﻿_id	﻿cod_depto	departamento	cod_mun	municipio	cod_estacion	estacion	cod_mes	mes	fecha	hora	cod_parametro	parametro	Valor
1	7	Sololá	701	Sololá	1	Sololá	1	Enero	2023-11-01T00:00:00	2024-11-08T19:00:00	2	Temperatura media	14.2
2	7	Sololá	701	Sololá	1	Sololá	1	Enero	2023-11-01T00:00:00	2024-11-08T19:00:00	4	Temperatura máxima	15.6
3	7	Sololá	701	Sololá	1	Sololá	1	Enero	2023-11-01T00:00:00	2024-11-08T19:00:00	3	Temperatura mínima	14.2
4	7	Sololá	701	Sololá	1	Sololá	1	Enero	2023-11-01T00:00:00	2024-11-08T19:00:00	5	Humedad	80
5	7	Sololá	701	Sololá	1	Sololá	1	Enero	2023-11-01T00:00:00	2024-11-08T19:00:00	6	Velocidad del viento	0
6	7	Sololá	701	Sololá	1	Sololá	1	Enero	2023-11-01T00:00:00	2024-11-08T19:00:00	7	Dirección del viento	0
7	7	Sololá	701	Sololá	1	Sololá	1	Enero	2023-11-01T00:00:00	2024-11-08T19:00:00	1	Precipitación	0
8	7	Sololá	701	Sololá	1	Sololá	1	Enero	2023-11-01T00:00:00	2024-11-08T19:00:00	8	Radiación solar	0
9	7	Sololá	701	Sololá	1	Sololá	1	Enero	2023-11-01T00:00:00	2024-11-08T20:00:00	2	Temperatura media	14
10	7	Sololá	701	Sololá	1	Sololá	1	Enero	2023-11-01T00:00:00	2024-11-08T20:00:00	4	Temperatura máxima	14.2
11	7	Sololá	701	Sololá	1	Sololá	1	Enero	2023-11-01T00:00:00	2024-11-08T20:00:00	3	Temperatura mínima	13.9
12	7	Sololá	701	Sololá	1	Sololá	1	Enero	2023-11-01T00:00:00	2024-11-08T20:00:00	5	Humedad	82
13	7	Sololá	701	Sololá	1	Sololá	1	Enero	2023-11-01T00:00:00	2024-11-08T20:00:00	6	Velocidad del viento	0
14	7	Sololá	701	Sololá	1	Sololá	1	Enero	2023-11-01T00:00:00	2024-11-08T20:00:00	7	Dirección del viento	0
15	7	Sololá	701	Sololá	1	Sololá	1	Enero	2023-11-01T00:00:00	2024-11-08T20:00:00	1	Precipitación	0
16	7	Sololá	701	Sololá	1	Sololá	1	Enero	2023-11-01T00:00:00	2024-11-08T20:00:00	8	Radiación solar	0
17	7	Sololá	701	Sololá	1	Sololá	1	Enero	2023-11-01T00:00:00	2024-11-08T21:00:00	2	Temperatura media	13.9
18	7	Sololá	701	Sololá	1	Sololá	1	Enero	2023-11-01T00:00:00	2024-11-08T21:00:00	4	Temperatura máxima	14.2
19	7	Sololá	701	Sololá	1	Sololá	1	Enero	2023-11-01T00:00:00	2024-11-08T21:00:00	3	Temperatura mínima	13.9
20	7	Sololá	701	Sololá	1	Sololá	1	Enero	2023-11-01T00:00:00	2024-11-08T21:00:00	5	Humedad	82
21	7	Sololá	701	Sololá	1	Sololá	1	Enero	2023-11-01T00:00:00	2024-11-08T21:00:00	6	Velocidad del viento	0
22	7	Sololá	701	Sololá	1	Sololá	1	Enero	2023-11-01T00:00:00	2024-11-08T21:00:00	7	Dirección del viento	0
23	7	Sololá	701	Sololá	1	Sololá	1	Enero	2023-11-01T00:00:00	2024-11-08T21:00:00	1	Precipitación	0
24	7	Sololá	701	Sololá	1	Sololá	1	Enero	2023-11-01T00:00:00	2024-11-08T21:00:00	8	Radiación solar	0
25	7	Sololá	701	Sololá	1	Sololá	1	Enero	2023-11-01T00:00:00	2024-11-08T22:00:00	2	Temperatura media	13.1
26	7	Sololá	701	Sololá	1	Sololá	1	Enero	2023-11-01T00:00:00	2024-11-08T22:00:00	4	Temperatura máxima	13.9
27	7	Sololá	701	Sololá	1	Sololá	1	Enero	2023-11-01T00:00:00	2024-11-08T22:00:00	3	Temperatura mínima	13.1
28	7	Sololá	701	Sololá	1	Sololá	1	Enero	2023-11-01T00:00:00	2024-11-08T22:00:00	5	Humedad	83
29	7	Sololá	701	Sololá	1	Sololá	1	Enero	2023-11-01T00:00:00	2024-11-08T22:00:00	6	Velocidad del viento	0
30	7	Sololá	701	Sololá	1	Sololá	1	Enero	2023-11-01T00:00:00	2024-11-08T22:00:00	7	Dirección del viento	0
31	7	Sololá	701	Sololá	1	Sololá	1	Enero	2023-11-01T00:00:00	2024-11-08T22:00:00	1	Precipitación	0
32	7	Sololá	701	Sololá	1	Sololá	1	Enero	2023-11-01T00:00:00	2024-11-08T22:00:00	8	Radiación solar	0
33	7	Sololá	701	Sololá	1	Sololá	1	Enero	2023-11-01T00:00:00	2024-11-08T23:00:00	2	Temperatura media	12.4
34	7	Sololá	701	Sololá	1	Sololá	1	Enero	2023-11-01T00:00:00	2024-11-08T23:00:00	4	Temperatura máxima	13.1
35	7	Sololá	701	Sololá	1	Sololá	1	Enero	2023-11-01T00:00:00	2024-11-08T23:00:00	3	Temperatura mínima	12.4
36	7	Sololá	701	Sololá	1	Sololá	1	Enero	2023-11-01T00:00:00	2024-11-08T23:00:00	5	Humedad	83
37	7	Sololá	701	Sololá	1	Sololá	1	Enero	2023-11-01T00:00:00	2024-11-08T23:00:00	6	Velocidad del viento	0
38	7	Sololá	701	Sololá	1	Sololá	1	Enero	2023-11-01T00:00:00	2024-11-08T23:00:00	7	Dirección del viento	0
39	7	Sololá	701	Sololá	1	Sololá	1	Enero	2023-11-01T00:00:00	2024-11-08T23:00:00	1	Precipitación	0
40	7	Sololá	701	Sololá	1	Sololá	1	Enero	2023-11-01T00:00:00	2024-11-08T23:00:00	8	Radiación solar	0
41	7	Sololá	701	Sololá	1	Sololá	1	Enero	2023-12-01T00:00:00	2024-11-08T00:00:00	2	Temperatura media	12.2
42	7	Sololá	701	Sololá	1	Sololá	1	Enero	2023-12-01T00:00:00	2024-11-08T00:00:00	4	Temperatura máxima	12.6
43	7	Sololá	701	Sololá	1	Sololá	1	Enero	2023-12-01T00:00:00	2024-11-08T00:00:00	3	Temperatura mínima	12.2
44	7	Sololá	701	Sololá	1	Sololá	1	Enero	2023-12-01T00:00:00	2024-11-08T00:00:00	5	Humedad	84
45	7	Sololá	701	Sololá	1	Sololá	1	Enero	2023-12-01T00:00:00	2024-11-08T00:00:00	6	Velocidad del viento	0
46	7	Sololá	701	Sololá	1	Sololá	1	Enero	2023-12-01T00:00:00	2024-11-08T00:00:00	7	Dirección del viento	0
47	7	Sololá	701	Sololá	1	Sololá	1	Enero	2023-12-01T00:00:00	2024-11-08T00:00:00	1	Precipitación	0
48	7	Sololá	701	Sololá	1	Sololá	1	Enero	2023-12-01T00:00:00	2024-11-08T00:00:00	8	Radiación solar	0
49	7	Sololá	701	Sololá	1	Sololá	1	Enero	2023-12-01T00:00:00	2024-11-08T01:00:00	2	Temperatura media	11.6
50	7	Sololá	701	Sololá	1	Sololá	1	Enero	2023-12-01T00:00:00	2024-11-08T01:00:00	4	Temperatura máxima	12.2
51	7	Sololá	701	Sololá	1	Sololá	1	Enero	2023-12-01T00:00:00	2024-11-08T01:00:00	3	Temperatura mínima	11.6
52	7	Sololá	701	Sololá	1	Sololá	1	Enero	2023-12-01T00:00:00	2024-11-08T01:00:00	5	Humedad	85
53	7	Sololá	701	Sololá	1	Sololá	1	Enero	2023-12-01T00:00:00	2024-11-08T01:00:00	6	Velocidad del viento	0
54	7	Sololá	701	Sololá	1	Sololá	1	Enero	2023-12-01T00:00:00	2024-11-08T01:00:00	7	Dirección del viento	0
55	7	Sololá	701	Sololá	1	Sololá	1	Enero	2023-12-01T00:00:00	2024-11-08T01:00:00	1	Precipitación	0
56	7	Sololá	701	Sololá	1	Sololá	1	Enero	2023-12-01T00:00:00	2024-11-08T01:00:00	8	Radiación solar	0
57	7	Sololá	701	Sololá	1	Sololá	1	Enero	2023-12-01T00:00:00	2024-11-08T02:00:00	2	Temperatura media	11.8
58	7	Sololá	701	Sololá	1	Sololá	1	Enero	2023-12-01T00:00:00	2024-11-08T02:00:00	4	Temperatura máxima	11.9
59	7	Sololá	701	Sololá	1	Sololá	1	Enero	2023-12-01T00:00:00	2024-11-08T02:00:00	3	Temperatura mínima	11.3
60	7	Sololá	701	Sololá	1	Sololá	1	Enero	2023-12-01T00:00:00	2024-11-08T02:00:00	5	Humedad	85
61	7	Sololá	701	Sololá	1	Sololá	1	Enero	2023-12-01T00:00:00	2024-11-08T02:00:00	6	Velocidad del viento	0
62	7	Sololá	701	Sololá	1	Sololá	1	Enero	2023-12-01T00:00:00	2024-11-08T02:00:00	7	Dirección del viento	0
63	7	Sololá	701	Sololá	1	Sololá	1	Enero	2023-12-01T00:00:00	2024-11-08T02:00:00	1	Precipitación	0
64	7	Sololá	701	Sololá	1	Sololá	1	Enero	2023-12-01T00:00:00	2024-11-08T02:00:00	8	Radiación solar	0
65	7	Sololá	701	Sololá	1	Sololá	1	Enero	2023-12-01T00:00:00	2024-11-08T03:00:00	2	Temperatura media	11.5
66	7	Sololá	701	Sololá	1	Sololá	1	Enero	2023-12-01T00:00:00	2024-11-08T03:00:00	4	Temperatura máxima	11.9
67	7	Sololá	701	Sololá	1	Sololá	1	Enero	2023-12-01T00:00:00	2024-11-08T03:00:00	3	Temperatura mínima	11.5
68	7	Sololá	701	Sololá	1	Sololá	1	Enero	2023-12-01T00:00:00	2024-11-08T03:00:00	5	Humedad	83
69	7	Sololá	701	Sololá	1	Sololá	1	Enero	2023-12-01T00:00:00	2024-11-08T03:00:00	6	Velocidad del viento	0
70	7	Sololá	701	Sololá	1	Sololá	1	Enero	2023-12-01T00:00:00	2024-11-08T03:00:00	7	Dirección del viento	0
71	7	Sololá	701	Sololá	1	Sololá	1	Enero	2023-12-01T00:00:00	2024-11-08T03:00:00	1	Precipitación	0
72	7	Sololá	701	Sololá	1	Sololá	1	Enero	2023-12-01T00:00:00	2024-11-08T03:00:00	8	Radiación solar	0
73	7	Sololá	701	Sololá	1	Sololá	1	Enero	2023-12-01T00:00:00	2024-11-08T04:00:00	2	Temperatura media	10.3
74	7	Sololá	701	Sololá	1	Sololá	1	Enero	2023-12-01T00:00:00	2024-11-08T04:00:00	4	Temperatura máxima	11.5
75	7	Sololá	701	Sololá	1	Sololá	1	Enero	2023-12-01T00:00:00	2024-11-08T04:00:00	3	Temperatura mínima	10.3
76	7	Sololá	701	Sololá	1	Sololá	1	Enero	2023-12-01T00:00:00	2024-11-08T04:00:00	5	Humedad	86
77	7	Sololá	701	Sololá	1	Sololá	1	Enero	2023-12-01T00:00:00	2024-11-08T04:00:00	6	Velocidad del viento	0
78	7	Sololá	701	Sololá	1	Sololá	1	Enero	2023-12-01T00:00:00	2024-11-08T04:00:00	7	Dirección del viento	0
79	7	Sololá	701	Sololá	1	Sololá	1	Enero	2023-12-01T00:00:00	2024-11-08T04:00:00	1	Precipitación	0
80	7	Sololá	701	Sololá	1	Sololá	1	Enero	2023-12-01T00:00:00	2024-11-08T04:00:00	8	Radiación solar	0
81	7	Sololá	701	Sololá	1	Sololá	1	Enero	2023-12-01T00:00:00	2024-11-08T05:00:00	2	Temperatura media	10.3
82	7	Sololá	701	Sololá	1	Sololá	1	Enero	2023-12-01T00:00:00	2024-11-08T05:00:00	4	Temperatura máxima	10.3
83	7	Sololá	701	Sololá	1	Sololá	1	Enero	2023-12-01T00:00:00	2024-11-08T05:00:00	3	Temperatura mínima	10
84	7	Sololá	701	Sololá	1	Sololá	1	Enero	2023-12-01T00:00:00	2024-11-08T05:00:00	5	Humedad	85
85	7	Sololá	701	Sololá	1	Sololá	1	Enero	2023-12-01T00:00:00	2024-11-08T05:00:00	6	Velocidad del viento	0
86	7	Sololá	701	Sololá	1	Sololá	1	Enero	2023-12-01T00:00:00	2024-11-08T05:00:00	7	Dirección del viento	0
87	7	Sololá	701	Sololá	1	Sololá	1	Enero	2023-12-01T00:00:00	2024-11-08T05:00:00	1	Precipitación	0
88	7	Sololá	701	Sololá	1	Sololá	1	Enero	2023-12-01T00:00:00	2024-11-08T05:00:00	8	Radiación solar	0
89	7	Sololá	701	Sololá	1	Sololá	1	Enero	2023-12-01T00:00:00	2024-11-08T06:00:00	2	Temperatura media	9.7
90	7	Sololá	701	Sololá	1	Sololá	1	Enero	2023-12-01T00:00:00	2024-11-08T06:00:00	4	Temperatura máxima	10.3
91	7	Sololá	701	Sololá	1	Sololá	1	Enero	2023-12-01T00:00:00	2024-11-08T06:00:00	3	Temperatura mínima	9.6
92	7	Sololá	701	Sololá	1	Sololá	1	Enero	2023-12-01T00:00:00	2024-11-08T06:00:00	5	Humedad	85
93	7	Sololá	701	Sololá	1	Sololá	1	Enero	2023-12-01T00:00:00	2024-11-08T06:00:00	6	Velocidad del viento	0
94	7	Sololá	701	Sololá	1	Sololá	1	Enero	2023-12-01T00:00:00	2024-11-08T06:00:00	7	Dirección del viento	0
95	7	Sololá	701	Sololá	1	Sololá	1	Enero	2023-12-01T00:00:00	2024-11-08T06:00:00	1	Precipitación	0
96	7	Sololá	701	Sololá	1	Sololá	1	Enero	2023-12-01T00:00:00	2024-11-08T06:00:00	8	Radiación solar	0
97	7	Sololá	701	Sololá	1	Sololá	1	Enero	2023-12-01T00:00:00	2024-11-08T07:00:00	2	Temperatura media	9.9
98	7	Sololá	701	Sololá	1	Sololá	1	Enero	2023-12-01T00:00:00	2024-11-08T07:00:00	4	Temperatura máxima	10.2
99	7	Sololá	701	Sololá	1	Sololá	1	Enero	2023-12-01T00:00:00	2024-11-08T07:00:00	3	Temperatura mínima	9.7
100	7	Sololá	701	Sololá	1	Sololá	1	Enero	2023-12-01T00:00:00	2024-11-08T07:00:00	5	Humedad	84
101	7	Sololá	701	Sololá	1	Sololá	1	Enero	2023-12-01T00:00:00	2024-11-08T07:00:00	6	Velocidad del viento	0
102	7	Sololá	701	Sololá	1	Sololá	1	Enero	2023-12-01T00:00:00	2024-11-08T07:00:00	7	Dirección del viento	0
103	7	Sololá	701	Sololá	1	Sololá	1	Enero	2023-12-01T00:00:00	2024-11-08T07:00:00	1	Precipitación	0
104	7	Sololá	701	Sololá	1	Sololá	1	Enero	2023-12-01T00:00:00	2024-11-08T07:00:00	8	Radiación solar	3
105	7	Sololá	701	Sololá	1	Sololá	1	Enero	2023-12-01T00:00:00	2024-11-08T08:00:00	2	Temperatura media	11
106	7	Sololá	701	Sololá	1	Sololá	1	Enero	2023-12-01T00:00:00	2024-11-08T08:00:00	4	Temperatura máxima	11.1
107	7	Sololá	701	Sololá	1	Sololá	1	Enero	2023-12-01T00:00:00	2024-11-08T08:00:00	3	Temperatura mínima	9.8
108	7	Sololá	701	Sololá	1	Sololá	1	Enero	2023-12-01T00:00:00	2024-11-08T08:00:00	5	Humedad	85
109	7	Sololá	701	Sololá	1	Sololá	1	Enero	2023-12-01T00:00:00	2024-11-08T08:00:00	6	Velocidad del viento	0
110	7	Sololá	701	Sololá	1	Sololá	1	Enero	2023-12-01T00:00:00	2024-11-08T08:00:00	7	Dirección del viento	0
111	7	Sololá	701	Sololá	1	Sololá	1	Enero	2023-12-01T00:00:00	2024-11-08T08:00:00	1	Precipitación	0
112	7	Sololá	701	Sololá	1	Sololá	1	Enero	2023-12-01T00:00:00	2024-11-08T08:00:00	8	Radiación solar	27
113	7	Sololá	701	Sololá	1	Sololá	1	Enero	2023-12-01T00:00:00	2024-11-08T09:00:00	2	Temperatura media	17.1
114	7	Sololá	701	Sololá	1	Sololá	1	Enero	2023-12-01T00:00:00	2024-11-08T09:00:00	4	Temperatura máxima	17.1
115	7	Sololá	701	Sololá	1	Sololá	1	Enero	2023-12-01T00:00:00	2024-11-08T09:00:00	3	Temperatura mínima	11.1
116	7	Sololá	701	Sololá	1	Sololá	1	Enero	2023-12-01T00:00:00	2024-11-08T09:00:00	5	Humedad	68
117	7	Sololá	701	Sololá	1	Sololá	1	Enero	2023-12-01T00:00:00	2024-11-08T09:00:00	6	Velocidad del viento	0
118	7	Sololá	701	Sololá	1	Sololá	1	Enero	2023-12-01T00:00:00	2024-11-08T09:00:00	7	Dirección del viento	0
119	7	Sololá	701	Sololá	1	Sololá	1	Enero	2023-12-01T00:00:00	2024-11-08T09:00:00	1	Precipitación	0
120	7	Sololá	701	Sololá	1	Sololá	1	Enero	2023-12-01T00:00:00	2024-11-08T09:00:00	8	Radiación solar	390
121	7	Sololá	701	Sololá	1	Sololá	1	Enero	2023-12-01T00:00:00	2024-11-08T10:00:00	2	Temperatura media	19
122	7	Sololá	701	Sololá	1	Sololá	1	Enero	2023-12-01T00:00:00	2024-11-08T10:00:00	4	Temperatura máxima	19
123	7	Sololá	701	Sololá	1	Sololá	1	Enero	2023-12-01T00:00:00	2024-11-08T10:00:00	3	Temperatura mínima	17
124	7	Sololá	701	Sololá	1	Sololá	1	Enero	2023-12-01T00:00:00	2024-11-08T10:00:00	5	Humedad	66
125	7	Sololá	701	Sololá	1	Sololá	1	Enero	2023-12-01T00:00:00	2024-11-08T10:00:00	6	Velocidad del viento	0
126	7	Sololá	701	Sololá	1	Sololá	1	Enero	2023-12-01T00:00:00	2024-11-08T10:00:00	7	Dirección del viento	0
127	7	Sololá	701	Sololá	1	Sololá	1	Enero	2023-12-01T00:00:00	2024-11-08T10:00:00	1	Precipitación	0
128	7	Sololá	701	Sololá	1	Sololá	1	Enero	2023-12-01T00:00:00	2024-11-08T10:00:00	8	Radiación solar	608
129	7	Sololá	701	Sololá	1	Sololá	1	Enero	2023-12-01T00:00:00	2024-11-08T11:00:00	2	Temperatura media	20.3
130	7	Sololá	701	Sololá	1	Sololá	1	Enero	2023-12-01T00:00:00	2024-11-08T11:00:00	4	Temperatura máxima	20.4
131	7	Sololá	701	Sololá	1	Sololá	1	Enero	2023-12-01T00:00:00	2024-11-08T11:00:00	3	Temperatura mínima	19
132	7	Sololá	701	Sololá	1	Sololá	1	Enero	2023-12-01T00:00:00	2024-11-08T11:00:00	5	Humedad	63
133	7	Sololá	701	Sololá	1	Sololá	1	Enero	2023-12-01T00:00:00	2024-11-08T11:00:00	6	Velocidad del viento	0
134	7	Sololá	701	Sololá	1	Sololá	1	Enero	2023-12-01T00:00:00	2024-11-08T11:00:00	7	Dirección del viento	0
135	7	Sololá	701	Sololá	1	Sololá	1	Enero	2023-12-01T00:00:00	2024-11-08T11:00:00	1	Precipitación	0
136	7	Sololá	701	Sololá	1	Sololá	1	Enero	2023-12-01T00:00:00	2024-11-08T11:00:00	8	Radiación solar	742
137	7	Sololá	701	Sololá	1	Sololá	1	Enero	2023-12-01T00:00:00	2024-11-08T12:00:00	2	Temperatura media	21.3
138	7	Sololá	701	Sololá	1	Sololá	1	Enero	2023-12-01T00:00:00	2024-11-08T12:00:00	4	Temperatura máxima	21.3
139	7	Sololá	701	Sololá	1	Sololá	1	Enero	2023-12-01T00:00:00	2024-11-08T12:00:00	3	Temperatura mínima	20.3
140	7	Sololá	701	Sololá	1	Sololá	1	Enero	2023-12-01T00:00:00	2024-11-08T12:00:00	5	Humedad	60
141	7	Sololá	701	Sololá	1	Sololá	1	Enero	2023-12-01T00:00:00	2024-11-08T12:00:00	6	Velocidad del viento	0
142	7	Sololá	701	Sololá	1	Sololá	1	Enero	2023-12-01T00:00:00	2024-11-08T12:00:00	7	Dirección del viento	0
143	7	Sololá	701	Sololá	1	Sololá	1	Enero	2023-12-01T00:00:00	2024-11-08T12:00:00	1	Precipitación	0
144	7	Sololá	701	Sololá	1	Sololá	1	Enero	2023-12-01T00:00:00	2024-11-08T12:00:00	8	Radiación solar	813
145	7	Sololá	701	Sololá	1	Sololá	1	Enero	2023-12-01T00:00:00	2024-11-08T13:00:00	2	Temperatura media	20.6
146	7	Sololá	701	Sololá	1	Sololá	1	Enero	2023-12-01T00:00:00	2024-11-08T13:00:00	4	Temperatura máxima	21.5
147	7	Sololá	701	Sololá	1	Sololá	1	Enero	2023-12-01T00:00:00	2024-11-08T13:00:00	3	Temperatura mínima	20.5
148	7	Sololá	701	Sololá	1	Sololá	1	Enero	2023-12-01T00:00:00	2024-11-08T13:00:00	5	Humedad	73
149	7	Sololá	701	Sololá	1	Sololá	1	Enero	2023-12-01T00:00:00	2024-11-08T13:00:00	6	Velocidad del viento	0
150	7	Sololá	701	Sololá	1	Sololá	1	Enero	2023-12-01T00:00:00	2024-11-08T13:00:00	7	Dirección del viento	0
151	7	Sololá	701	Sololá	1	Sololá	1	Enero	2023-12-01T00:00:00	2024-11-08T13:00:00	1	Precipitación	0
152	7	Sololá	701	Sololá	1	Sololá	1	Enero	2023-12-01T00:00:00	2024-11-08T13:00:00	8	Radiación solar	834
153	7	Sololá	701	Sololá	1	Sololá	1	Enero	2023-12-01T00:00:00	2024-11-08T14:00:00	2	Temperatura media	20.4
154	7	Sololá	701	Sololá	1	Sololá	1	Enero	2023-12-01T00:00:00	2024-11-08T14:00:00	4	Temperatura máxima	21.2
155	7	Sololá	701	Sololá	1	Sololá	1	Enero	2023-12-01T00:00:00	2024-11-08T14:00:00	3	Temperatura mínima	20.2
156	7	Sololá	701	Sololá	1	Sololá	1	Enero	2023-12-01T00:00:00	2024-11-08T14:00:00	5	Humedad	75
157	7	Sololá	701	Sololá	1	Sololá	1	Enero	2023-12-01T00:00:00	2024-11-08T14:00:00	6	Velocidad del viento	0
158	7	Sololá	701	Sololá	1	Sololá	1	Enero	2023-12-01T00:00:00	2024-11-08T14:00:00	7	Dirección del viento	0
159	7	Sololá	701	Sololá	1	Sololá	1	Enero	2023-12-01T00:00:00	2024-11-08T14:00:00	1	Precipitación	0
160	7	Sololá	701	Sololá	1	Sololá	1	Enero	2023-12-01T00:00:00	2024-11-08T14:00:00	8	Radiación solar	316
161	7	Sololá	701	Sololá	1	Sololá	1	Enero	2023-12-01T00:00:00	2024-11-08T15:00:00	2	Temperatura media	18.4
162	7	Sololá	701	Sololá	1	Sololá	1	Enero	2023-12-01T00:00:00	2024-11-08T15:00:00	4	Temperatura máxima	20.8
163	7	Sololá	701	Sololá	1	Sololá	1	Enero	2023-12-01T00:00:00	2024-11-08T15:00:00	3	Temperatura mínima	18.4
164	7	Sololá	701	Sololá	1	Sololá	1	Enero	2023-12-01T00:00:00	2024-11-08T15:00:00	5	Humedad	79
165	7	Sololá	701	Sololá	1	Sololá	1	Enero	2023-12-01T00:00:00	2024-11-08T15:00:00	6	Velocidad del viento	0
166	7	Sololá	701	Sololá	1	Sololá	1	Enero	2023-12-01T00:00:00	2024-11-08T15:00:00	7	Dirección del viento	0
167	7	Sololá	701	Sololá	1	Sololá	1	Enero	2023-12-01T00:00:00	2024-11-08T15:00:00	1	Precipitación	0
168	7	Sololá	701	Sololá	1	Sololá	1	Enero	2023-12-01T00:00:00	2024-11-08T15:00:00	8	Radiación solar	184
169	7	Sololá	701	Sololá	1	Sololá	1	Enero	2023-12-01T00:00:00	2024-11-08T16:00:00	2	Temperatura media	17.3
170	7	Sololá	701	Sololá	1	Sololá	1	Enero	2023-12-01T00:00:00	2024-11-08T16:00:00	4	Temperatura máxima	18.6
171	7	Sololá	701	Sololá	1	Sololá	1	Enero	2023-12-01T00:00:00	2024-11-08T16:00:00	3	Temperatura mínima	17.3
172	7	Sololá	701	Sololá	1	Sololá	1	Enero	2023-12-01T00:00:00	2024-11-08T16:00:00	5	Humedad	85
173	7	Sololá	701	Sololá	1	Sololá	1	Enero	2023-12-01T00:00:00	2024-11-08T16:00:00	6	Velocidad del viento	0
174	7	Sololá	701	Sololá	1	Sololá	1	Enero	2023-12-01T00:00:00	2024-11-08T16:00:00	7	Dirección del viento	0
175	7	Sololá	701	Sololá	1	Sololá	1	Enero	2023-12-01T00:00:00	2024-11-08T16:00:00	1	Precipitación	0
176	7	Sololá	701	Sololá	1	Sololá	1	Enero	2023-12-01T00:00:00	2024-11-08T16:00:00	8	Radiación solar	109
177	7	Sololá	701	Sololá	1	Sololá	1	Enero	2023-12-01T00:00:00	2024-11-08T17:00:00	2	Temperatura media	16.3
178	7	Sololá	701	Sololá	1	Sololá	1	Enero	2023-12-01T00:00:00	2024-11-08T17:00:00	4	Temperatura máxima	17.3
179	7	Sololá	701	Sololá	1	Sololá	1	Enero	2023-12-01T00:00:00	2024-11-08T17:00:00	3	Temperatura mínima	16.3
180	7	Sololá	701	Sololá	1	Sololá	1	Enero	2023-12-01T00:00:00	2024-11-08T17:00:00	5	Humedad	88
181	7	Sololá	701	Sololá	1	Sololá	1	Enero	2023-12-01T00:00:00	2024-11-08T17:00:00	6	Velocidad del viento	0
182	7	Sololá	701	Sololá	1	Sololá	1	Enero	2023-12-01T00:00:00	2024-11-08T17:00:00	7	Dirección del viento	0
183	7	Sololá	701	Sololá	1	Sololá	1	Enero	2023-12-01T00:00:00	2024-11-08T17:00:00	1	Precipitación	0
184	7	Sololá	701	Sololá	1	Sololá	1	Enero	2023-12-01T00:00:00	2024-11-08T17:00:00	8	Radiación solar	20
185	7	Sololá	701	Sololá	1	Sololá	1	Enero	2023-12-01T00:00:00	2024-11-08T18:00:00	2	Temperatura media	15.7
186	7	Sololá	701	Sololá	1	Sololá	1	Enero	2023-12-01T00:00:00	2024-11-08T18:00:00	4	Temperatura máxima	16.3
187	7	Sololá	701	Sololá	1	Sololá	1	Enero	2023-12-01T00:00:00	2024-11-08T18:00:00	3	Temperatura mínima	15.7
188	7	Sololá	701	Sololá	1	Sololá	1	Enero	2023-12-01T00:00:00	2024-11-08T18:00:00	5	Humedad	91
189	7	Sololá	701	Sololá	1	Sololá	1	Enero	2023-12-01T00:00:00	2024-11-08T18:00:00	6	Velocidad del viento	0
190	7	Sololá	701	Sololá	1	Sololá	1	Enero	2023-12-01T00:00:00	2024-11-08T18:00:00	7	Dirección del viento	0
191	7	Sololá	701	Sololá	1	Sololá	1	Enero	2023-12-01T00:00:00	2024-11-08T18:00:00	1	Precipitación	0
192	7	Sololá	701	Sololá	1	Sololá	1	Enero	2023-12-01T00:00:00	2024-11-08T18:00:00	8	Radiación solar	3
193	7	Sololá	701	Sololá	1	Sololá	1	Enero	2023-12-01T00:00:00	2024-11-08T19:00:00	2	Temperatura media	15.1
194	7	Sololá	701	Sololá	1	Sololá	1	Enero	2023-12-01T00:00:00	2024-11-08T19:00:00	4	Temperatura máxima	15.7
195	7	Sololá	701	Sololá	1	Sololá	1	Enero	2023-12-01T00:00:00	2024-11-08T19:00:00	3	Temperatura mínima	15.1
196	7	Sololá	701	Sololá	1	Sololá	1	Enero	2023-12-01T00:00:00	2024-11-08T19:00:00	5	Humedad	93
197	7	Sololá	701	Sololá	1	Sololá	1	Enero	2023-12-01T00:00:00	2024-11-08T19:00:00	6	Velocidad del viento	0
198	7	Sololá	701	Sololá	1	Sololá	1	Enero	2023-12-01T00:00:00	2024-11-08T19:00:00	7	Dirección del viento	0
199	7	Sololá	701	Sololá	1	Sololá	1	Enero	2023-12-01T00:00:00	2024-11-08T19:00:00	1	Precipitación	0
200	7	Sololá	701	Sololá	1	Sololá	1	Enero	2023-12-01T00:00:00	2024-11-08T19:00:00	8	Radiación solar	0
201	7	Sololá	701	Sololá	1	Sololá	1	Enero	2023-12-01T00:00:00	2024-11-08T20:00:00	2	Temperatura media	13.8
202	7	Sololá	701	Sololá	1	Sololá	1	Enero	2023-12-01T00:00:00	2024-11-08T20:00:00	4	Temperatura máxima	15.1
203	7	Sololá	701	Sololá	1	Sololá	1	Enero	2023-12-01T00:00:00	2024-11-08T20:00:00	3	Temperatura mínima	13.8
204	7	Sololá	701	Sololá	1	Sololá	1	Enero	2023-12-01T00:00:00	2024-11-08T20:00:00	5	Humedad	89
205	7	Sololá	701	Sololá	1	Sololá	1	Enero	2023-12-01T00:00:00	2024-11-08T20:00:00	6	Velocidad del viento	0
206	7	Sololá	701	Sololá	1	Sololá	1	Enero	2023-12-01T00:00:00	2024-11-08T20:00:00	7	Dirección del viento	0
207	7	Sololá	701	Sololá	1	Sololá	1	Enero	2023-12-01T00:00:00	2024-11-08T20:00:00	1	Precipitación	0
208	7	Sololá	701	Sololá	1	Sololá	1	Enero	2023-12-01T00:00:00	2024-11-08T20:00:00	8	Radiación solar	0
209	7	Sololá	701	Sololá	1	Sololá	1	Enero	2023-12-01T00:00:00	2024-11-08T21:00:00	2	Temperatura media	14.4
210	7	Sololá	701	Sololá	1	Sololá	1	Enero	2023-12-01T00:00:00	2024-11-08T21:00:00	4	Temperatura máxima	14.5
211	7	Sololá	701	Sololá	1	Sololá	1	Enero	2023-12-01T00:00:00	2024-11-08T21:00:00	3	Temperatura mínima	13.8
212	7	Sololá	701	Sololá	1	Sololá	1	Enero	2023-12-01T00:00:00	2024-11-08T21:00:00	5	Humedad	84
213	7	Sololá	701	Sololá	1	Sololá	1	Enero	2023-12-01T00:00:00	2024-11-08T21:00:00	6	Velocidad del viento	0
214	7	Sololá	701	Sololá	1	Sololá	1	Enero	2023-12-01T00:00:00	2024-11-08T21:00:00	7	Dirección del viento	0
215	7	Sololá	701	Sololá	1	Sololá	1	Enero	2023-12-01T00:00:00	2024-11-08T21:00:00	1	Precipitación	0
216	7	Sololá	701	Sololá	1	Sololá	1	Enero	2023-12-01T00:00:00	2024-11-08T21:00:00	8	Radiación solar	0
217	7	Sololá	701	Sololá	1	Sololá	1	Enero	2023-12-01T00:00:00	2024-11-08T22:00:00	2	Temperatura media	13.7
218	7	Sololá	701	Sololá	1	Sololá	1	Enero	2023-12-01T00:00:00	2024-11-08T22:00:00	4	Temperatura máxima	14.4
219	7	Sololá	701	Sololá	1	Sololá	1	Enero	2023-12-01T00:00:00	2024-11-08T22:00:00	3	Temperatura mínima	13.7
220	7	Sololá	701	Sololá	1	Sololá	1	Enero	2023-12-01T00:00:00	2024-11-08T22:00:00	5	Humedad	84
221	7	Sololá	701	Sololá	1	Sololá	1	Enero	2023-12-01T00:00:00	2024-11-08T22:00:00	6	Velocidad del viento	0
222	7	Sololá	701	Sololá	1	Sololá	1	Enero	2023-12-01T00:00:00	2024-11-08T22:00:00	7	Dirección del viento	0
223	7	Sololá	701	Sololá	1	Sololá	1	Enero	2023-12-01T00:00:00	2024-11-08T22:00:00	1	Precipitación	0
224	7	Sololá	701	Sololá	1	Sololá	1	Enero	2023-12-01T00:00:00	2024-11-08T22:00:00	8	Radiación solar	0
225	7	Sololá	701	Sololá	1	Sololá	1	Enero	2023-12-01T00:00:00	2024-11-08T23:00:00	2	Temperatura media	13.2
226	7	Sololá	701	Sololá	1	Sololá	1	Enero	2023-12-01T00:00:00	2024-11-08T23:00:00	4	Temperatura máxima	13.7
227	7	Sololá	701	Sololá	1	Sololá	1	Enero	2023-12-01T00:00:00	2024-11-08T23:00:00	3	Temperatura mínima	13.2
228	7	Sololá	701	Sololá	1	Sololá	1	Enero	2023-12-01T00:00:00	2024-11-08T23:00:00	5	Humedad	85
229	7	Sololá	701	Sololá	1	Sololá	1	Enero	2023-12-01T00:00:00	2024-11-08T23:00:00	6	Velocidad del viento	0
230	7	Sololá	701	Sololá	1	Sololá	1	Enero	2023-12-01T00:00:00	2024-11-08T23:00:00	7	Dirección del viento	0
231	7	Sololá	701	Sololá	1	Sololá	1	Enero	2023-12-01T00:00:00	2024-11-08T23:00:00	1	Precipitación	0
232	7	Sololá	701	Sololá	1	Sololá	1	Enero	2023-12-01T00:00:00	2024-11-08T23:00:00	8	Radiación solar	0
233	7	Sololá	701	Sololá	1	Sololá	1	Enero	2023-01-13T00:00:00	2024-11-08T00:00:00	2	Temperatura media	13
234	7	Sololá	701	Sololá	1	Sololá	1	Enero	2023-01-13T00:00:00	2024-11-08T00:00:00	4	Temperatura máxima	13.2
235	7	Sololá	701	Sololá	1	Sololá	1	Enero	2023-01-13T00:00:00	2024-11-08T00:00:00	3	Temperatura mínima	12.9
236	7	Sololá	701	Sololá	1	Sololá	1	Enero	2023-01-13T00:00:00	2024-11-08T00:00:00	5	Humedad	85
237	7	Sololá	701	Sololá	1	Sololá	1	Enero	2023-01-13T00:00:00	2024-11-08T00:00:00	6	Velocidad del viento	0
238	7	Sololá	701	Sololá	1	Sololá	1	Enero	2023-01-13T00:00:00	2024-11-08T00:00:00	7	Dirección del viento	0
239	7	Sololá	701	Sololá	1	Sololá	1	Enero	2023-01-13T00:00:00	2024-11-08T00:00:00	1	Precipitación	0
240	7	Sololá	701	Sololá	1	Sololá	1	Enero	2023-01-13T00:00:00	2024-11-08T00:00:00	8	Radiación solar	0
241	7	Sololá	701	Sololá	1	Sololá	1	Enero	2023-01-13T00:00:00	2024-11-08T01:00:00	2	Temperatura media	12.9
242	7	Sololá	701	Sololá	1	Sololá	1	Enero	2023-01-13T00:00:00	2024-11-08T01:00:00	4	Temperatura máxima	13.1
243	7	Sololá	701	Sololá	1	Sololá	1	Enero	2023-01-13T00:00:00	2024-11-08T01:00:00	3	Temperatura mínima	12.8
244	7	Sololá	701	Sololá	1	Sololá	1	Enero	2023-01-13T00:00:00	2024-11-08T01:00:00	5	Humedad	84
245	7	Sololá	701	Sololá	1	Sololá	1	Enero	2023-01-13T00:00:00	2024-11-08T01:00:00	6	Velocidad del viento	0
246	7	Sololá	701	Sololá	1	Sololá	1	Enero	2023-01-13T00:00:00	2024-11-08T01:00:00	7	Dirección del viento	0
247	7	Sololá	701	Sololá	1	Sololá	1	Enero	2023-01-13T00:00:00	2024-11-08T01:00:00	1	Precipitación	0
248	7	Sololá	701	Sololá	1	Sololá	1	Enero	2023-01-13T00:00:00	2024-11-08T01:00:00	8	Radiación solar	0
249	7	Sololá	701	Sololá	1	Sololá	1	Enero	2023-01-13T00:00:00	2024-11-08T02:00:00	2	Temperatura media	12.6
250	7	Sololá	701	Sololá	1	Sololá	1	Enero	2023-01-13T00:00:00	2024-11-08T02:00:00	4	Temperatura máxima	12.9
251	7	Sololá	701	Sololá	1	Sololá	1	Enero	2023-01-13T00:00:00	2024-11-08T02:00:00	3	Temperatura mínima	12.6
252	7	Sololá	701	Sololá	1	Sololá	1	Enero	2023-01-13T00:00:00	2024-11-08T02:00:00	5	Humedad	83
253	7	Sololá	701	Sololá	1	Sololá	1	Enero	2023-01-13T00:00:00	2024-11-08T02:00:00	6	Velocidad del viento	0
254	7	Sololá	701	Sololá	1	Sololá	1	Enero	2023-01-13T00:00:00	2024-11-08T02:00:00	7	Dirección del viento	0
255	7	Sololá	701	Sololá	1	Sololá	1	Enero	2023-01-13T00:00:00	2024-11-08T02:00:00	1	Precipitación	0
256	7	Sololá	701	Sololá	1	Sololá	1	Enero	2023-01-13T00:00:00	2024-11-08T02:00:00	8	Radiación solar	0
257	7	Sololá	701	Sololá	1	Sololá	1	Enero	2023-01-13T00:00:00	2024-11-08T03:00:00	2	Temperatura media	12.6
258	7	Sololá	701	Sololá	1	Sololá	1	Enero	2023-01-13T00:00:00	2024-11-08T03:00:00	4	Temperatura máxima	12.7
259	7	Sololá	701	Sololá	1	Sololá	1	Enero	2023-01-13T00:00:00	2024-11-08T03:00:00	3	Temperatura mínima	12.6
260	7	Sololá	701	Sololá	1	Sololá	1	Enero	2023-01-13T00:00:00	2024-11-08T03:00:00	5	Humedad	79
261	7	Sololá	701	Sololá	1	Sololá	1	Enero	2023-01-13T00:00:00	2024-11-08T03:00:00	6	Velocidad del viento	0
262	7	Sololá	701	Sololá	1	Sololá	1	Enero	2023-01-13T00:00:00	2024-11-08T03:00:00	7	Dirección del viento	0
263	7	Sololá	701	Sololá	1	Sololá	1	Enero	2023-01-13T00:00:00	2024-11-08T03:00:00	1	Precipitación	0
264	7	Sololá	701	Sololá	1	Sololá	1	Enero	2023-01-13T00:00:00	2024-11-08T03:00:00	8	Radiación solar	0
265	7	Sololá	701	Sololá	1	Sololá	1	Enero	2023-01-13T00:00:00	2024-11-08T04:00:00	2	Temperatura media	12.7
266	7	Sololá	701	Sololá	1	Sololá	1	Enero	2023-01-13T00:00:00	2024-11-08T04:00:00	4	Temperatura máxima	12.8
267	7	Sololá	701	Sololá	1	Sololá	1	Enero	2023-01-13T00:00:00	2024-11-08T04:00:00	3	Temperatura mínima	12.6
268	7	Sololá	701	Sololá	1	Sololá	1	Enero	2023-01-13T00:00:00	2024-11-08T04:00:00	5	Humedad	78
269	7	Sololá	701	Sololá	1	Sololá	1	Enero	2023-01-13T00:00:00	2024-11-08T04:00:00	6	Velocidad del viento	0
270	7	Sololá	701	Sololá	1	Sololá	1	Enero	2023-01-13T00:00:00	2024-11-08T04:00:00	7	Dirección del viento	0
271	7	Sololá	701	Sololá	1	Sololá	1	Enero	2023-01-13T00:00:00	2024-11-08T04:00:00	1	Precipitación	0
272	7	Sololá	701	Sololá	1	Sololá	1	Enero	2023-01-13T00:00:00	2024-11-08T04:00:00	8	Radiación solar	0
273	7	Sololá	701	Sololá	1	Sololá	1	Enero	2023-01-13T00:00:00	2024-11-08T05:00:00	2	Temperatura media	12.4
274	7	Sololá	701	Sololá	1	Sololá	1	Enero	2023-01-13T00:00:00	2024-11-08T05:00:00	4	Temperatura máxima	12.8
275	7	Sololá	701	Sololá	1	Sololá	1	Enero	2023-01-13T00:00:00	2024-11-08T05:00:00	3	Temperatura mínima	12.4
276	7	Sololá	701	Sololá	1	Sololá	1	Enero	2023-01-13T00:00:00	2024-11-08T05:00:00	5	Humedad	78
277	7	Sololá	701	Sololá	1	Sololá	1	Enero	2023-01-13T00:00:00	2024-11-08T05:00:00	6	Velocidad del viento	0
278	7	Sololá	701	Sololá	1	Sololá	1	Enero	2023-01-13T00:00:00	2024-11-08T05:00:00	7	Dirección del viento	0
279	7	Sololá	701	Sololá	1	Sololá	1	Enero	2023-01-13T00:00:00	2024-11-08T05:00:00	1	Precipitación	0
280	7	Sololá	701	Sololá	1	Sololá	1	Enero	2023-01-13T00:00:00	2024-11-08T05:00:00	8	Radiación solar	0
281	7	Sololá	701	Sololá	1	Sololá	1	Enero	2023-01-13T00:00:00	2024-11-08T06:00:00	2	Temperatura media	12.1
282	7	Sololá	701	Sololá	1	Sololá	1	Enero	2023-01-13T00:00:00	2024-11-08T06:00:00	4	Temperatura máxima	12.4
283	7	Sololá	701	Sololá	1	Sololá	1	Enero	2023-01-13T00:00:00	2024-11-08T06:00:00	3	Temperatura mínima	12.1
284	7	Sololá	701	Sololá	1	Sololá	1	Enero	2023-01-13T00:00:00	2024-11-08T06:00:00	5	Humedad	80
285	7	Sololá	701	Sololá	1	Sololá	1	Enero	2023-01-13T00:00:00	2024-11-08T06:00:00	6	Velocidad del viento	0
286	7	Sololá	701	Sololá	1	Sololá	1	Enero	2023-01-13T00:00:00	2024-11-08T06:00:00	7	Dirección del viento	0
287	7	Sololá	701	Sololá	1	Sololá	1	Enero	2023-01-13T00:00:00	2024-11-08T06:00:00	1	Precipitación	0
288	7	Sololá	701	Sololá	1	Sololá	1	Enero	2023-01-13T00:00:00	2024-11-08T06:00:00	8	Radiación solar	0
289	7	Sololá	701	Sololá	1	Sololá	1	Enero	2023-01-13T00:00:00	2024-11-08T07:00:00	2	Temperatura media	12.3
290	7	Sololá	701	Sololá	1	Sololá	1	Enero	2023-01-13T00:00:00	2024-11-08T07:00:00	4	Temperatura máxima	12.3
291	7	Sololá	701	Sololá	1	Sololá	1	Enero	2023-01-13T00:00:00	2024-11-08T07:00:00	3	Temperatura mínima	12
292	7	Sololá	701	Sololá	1	Sololá	1	Enero	2023-01-13T00:00:00	2024-11-08T07:00:00	5	Humedad	79
293	7	Sololá	701	Sololá	1	Sololá	1	Enero	2023-01-13T00:00:00	2024-11-08T07:00:00	6	Velocidad del viento	0
294	7	Sololá	701	Sololá	1	Sololá	1	Enero	2023-01-13T00:00:00	2024-11-08T07:00:00	7	Dirección del viento	0
295	7	Sololá	701	Sololá	1	Sololá	1	Enero	2023-01-13T00:00:00	2024-11-08T07:00:00	1	Precipitación	0
296	7	Sololá	701	Sololá	1	Sololá	1	Enero	2023-01-13T00:00:00	2024-11-08T07:00:00	8	Radiación solar	3
297	7	Sololá	701	Sololá	1	Sololá	1	Enero	2023-01-13T00:00:00	2024-11-08T08:00:00	2	Temperatura media	13.6
298	7	Sololá	701	Sololá	1	Sololá	1	Enero	2023-01-13T00:00:00	2024-11-08T08:00:00	4	Temperatura máxima	13.6
299	7	Sololá	701	Sololá	1	Sololá	1	Enero	2023-01-13T00:00:00	2024-11-08T08:00:00	3	Temperatura mínima	12.3
300	7	Sololá	701	Sololá	1	Sololá	1	Enero	2023-01-13T00:00:00	2024-11-08T08:00:00	5	Humedad	77
301	7	Sololá	701	Sololá	1	Sololá	1	Enero	2023-01-13T00:00:00	2024-11-08T08:00:00	6	Velocidad del viento	1.6
302	7	Sololá	701	Sololá	1	Sololá	1	Enero	2023-01-13T00:00:00	2024-11-08T08:00:00	7	Dirección del viento	1.61
303	7	Sololá	701	Sololá	1	Sololá	1	Enero	2023-01-13T00:00:00	2024-11-08T08:00:00	1	Precipitación	0
304	7	Sololá	701	Sololá	1	Sololá	1	Enero	2023-01-13T00:00:00	2024-11-08T08:00:00	8	Radiación solar	26
305	7	Sololá	701	Sololá	1	Sololá	1	Enero	2023-01-13T00:00:00	2024-11-08T09:00:00	2	Temperatura media	16.8
306	7	Sololá	701	Sololá	1	Sololá	1	Enero	2023-01-13T00:00:00	2024-11-08T09:00:00	4	Temperatura máxima	16.8
307	7	Sololá	701	Sololá	1	Sololá	1	Enero	2023-01-13T00:00:00	2024-11-08T09:00:00	3	Temperatura mínima	13.6
308	7	Sololá	701	Sololá	1	Sololá	1	Enero	2023-01-13T00:00:00	2024-11-08T09:00:00	5	Humedad	68
309	7	Sololá	701	Sololá	1	Sololá	1	Enero	2023-01-13T00:00:00	2024-11-08T09:00:00	6	Velocidad del viento	1.6
310	7	Sololá	701	Sololá	1	Sololá	1	Enero	2023-01-13T00:00:00	2024-11-08T09:00:00	7	Dirección del viento	1.61
311	7	Sololá	701	Sololá	1	Sololá	1	Enero	2023-01-13T00:00:00	2024-11-08T09:00:00	1	Precipitación	0
312	7	Sololá	701	Sololá	1	Sololá	1	Enero	2023-01-13T00:00:00	2024-11-08T09:00:00	8	Radiación solar	391
313	7	Sololá	701	Sololá	1	Sololá	1	Enero	2023-01-13T00:00:00	2024-11-08T10:00:00	2	Temperatura media	18
314	7	Sololá	701	Sololá	1	Sololá	1	Enero	2023-01-13T00:00:00	2024-11-08T10:00:00	4	Temperatura máxima	18
315	7	Sololá	701	Sololá	1	Sololá	1	Enero	2023-01-13T00:00:00	2024-11-08T10:00:00	3	Temperatura mínima	16.8
316	7	Sololá	701	Sololá	1	Sololá	1	Enero	2023-01-13T00:00:00	2024-11-08T10:00:00	5	Humedad	67
317	7	Sololá	701	Sololá	1	Sololá	1	Enero	2023-01-13T00:00:00	2024-11-08T10:00:00	6	Velocidad del viento	1.6
318	7	Sololá	701	Sololá	1	Sololá	1	Enero	2023-01-13T00:00:00	2024-11-08T10:00:00	7	Dirección del viento	1.61
319	7	Sololá	701	Sololá	1	Sololá	1	Enero	2023-01-13T00:00:00	2024-11-08T10:00:00	1	Precipitación	0
320	7	Sololá	701	Sololá	1	Sololá	1	Enero	2023-01-13T00:00:00	2024-11-08T10:00:00	8	Radiación solar	621
321	7	Sololá	701	Sololá	1	Sololá	1	Enero	2023-01-13T00:00:00	2024-11-08T11:00:00	2	Temperatura media	19
322	7	Sololá	701	Sololá	1	Sololá	1	Enero	2023-01-13T00:00:00	2024-11-08T11:00:00	4	Temperatura máxima	19.1
323	7	Sololá	701	Sololá	1	Sololá	1	Enero	2023-01-13T00:00:00	2024-11-08T11:00:00	3	Temperatura mínima	17.9
324	7	Sololá	701	Sololá	1	Sololá	1	Enero	2023-01-13T00:00:00	2024-11-08T11:00:00	5	Humedad	65
325	7	Sololá	701	Sololá	1	Sololá	1	Enero	2023-01-13T00:00:00	2024-11-08T11:00:00	6	Velocidad del viento	1.6
326	7	Sololá	701	Sololá	1	Sololá	1	Enero	2023-01-13T00:00:00	2024-11-08T11:00:00	7	Dirección del viento	1.61
327	7	Sololá	701	Sololá	1	Sololá	1	Enero	2023-01-13T00:00:00	2024-11-08T11:00:00	1	Precipitación	0
328	7	Sololá	701	Sololá	1	Sololá	1	Enero	2023-01-13T00:00:00	2024-11-08T11:00:00	8	Radiación solar	752
329	7	Sololá	701	Sololá	1	Sololá	1	Enero	2023-01-13T00:00:00	2024-11-08T12:00:00	2	Temperatura media	18.8
330	7	Sololá	701	Sololá	1	Sololá	1	Enero	2023-01-13T00:00:00	2024-11-08T12:00:00	4	Temperatura máxima	19.2
331	7	Sololá	701	Sololá	1	Sololá	1	Enero	2023-01-13T00:00:00	2024-11-08T12:00:00	3	Temperatura mínima	18.4
332	7	Sololá	701	Sololá	1	Sololá	1	Enero	2023-01-13T00:00:00	2024-11-08T12:00:00	5	Humedad	62
333	7	Sololá	701	Sololá	1	Sololá	1	Enero	2023-01-13T00:00:00	2024-11-08T12:00:00	6	Velocidad del viento	1.6
334	7	Sololá	701	Sololá	1	Sololá	1	Enero	2023-01-13T00:00:00	2024-11-08T12:00:00	7	Dirección del viento	1.61
335	7	Sololá	701	Sololá	1	Sololá	1	Enero	2023-01-13T00:00:00	2024-11-08T12:00:00	1	Precipitación	0
336	7	Sololá	701	Sololá	1	Sololá	1	Enero	2023-01-13T00:00:00	2024-11-08T12:00:00	8	Radiación solar	823
337	7	Sololá	701	Sololá	1	Sololá	1	Enero	2023-01-13T00:00:00	2024-11-08T13:00:00	2	Temperatura media	20.2
338	7	Sololá	701	Sololá	1	Sololá	1	Enero	2023-01-13T00:00:00	2024-11-08T13:00:00	4	Temperatura máxima	20.3
339	7	Sololá	701	Sololá	1	Sololá	1	Enero	2023-01-13T00:00:00	2024-11-08T13:00:00	3	Temperatura mínima	18.7
340	7	Sololá	701	Sololá	1	Sololá	1	Enero	2023-01-13T00:00:00	2024-11-08T13:00:00	5	Humedad	59
341	7	Sololá	701	Sololá	1	Sololá	1	Enero	2023-01-13T00:00:00	2024-11-08T13:00:00	6	Velocidad del viento	1.6
342	7	Sololá	701	Sololá	1	Sololá	1	Enero	2023-01-13T00:00:00	2024-11-08T13:00:00	7	Dirección del viento	1.61
343	7	Sololá	701	Sololá	1	Sololá	1	Enero	2023-01-13T00:00:00	2024-11-08T13:00:00	1	Precipitación	0
344	7	Sololá	701	Sololá	1	Sololá	1	Enero	2023-01-13T00:00:00	2024-11-08T13:00:00	8	Radiación solar	828
345	7	Sololá	701	Sololá	1	Sololá	1	Enero	2023-01-13T00:00:00	2024-11-08T14:00:00	2	Temperatura media	20.3
346	7	Sololá	701	Sololá	1	Sololá	1	Enero	2023-01-13T00:00:00	2024-11-08T14:00:00	4	Temperatura máxima	20.9
347	7	Sololá	701	Sololá	1	Sololá	1	Enero	2023-01-13T00:00:00	2024-11-08T14:00:00	3	Temperatura mínima	19.9
348	7	Sololá	701	Sololá	1	Sololá	1	Enero	2023-01-13T00:00:00	2024-11-08T14:00:00	5	Humedad	58
349	7	Sololá	701	Sololá	1	Sololá	1	Enero	2023-01-13T00:00:00	2024-11-08T14:00:00	6	Velocidad del viento	1.6
350	7	Sololá	701	Sololá	1	Sololá	1	Enero	2023-01-13T00:00:00	2024-11-08T14:00:00	7	Dirección del viento	1.61
351	7	Sololá	701	Sololá	1	Sololá	1	Enero	2023-01-13T00:00:00	2024-11-08T14:00:00	1	Precipitación	0
352	7	Sololá	701	Sololá	1	Sololá	1	Enero	2023-01-13T00:00:00	2024-11-08T14:00:00	8	Radiación solar	236
353	7	Sololá	701	Sololá	1	Sololá	1	Enero	2023-01-13T00:00:00	2024-11-08T15:00:00	2	Temperatura media	20.1
354	7	Sololá	701	Sololá	1	Sololá	1	Enero	2023-01-13T00:00:00	2024-11-08T15:00:00	4	Temperatura máxima	20.6
355	7	Sololá	701	Sololá	1	Sololá	1	Enero	2023-01-13T00:00:00	2024-11-08T15:00:00	3	Temperatura mínima	20.1
356	7	Sololá	701	Sololá	1	Sololá	1	Enero	2023-01-13T00:00:00	2024-11-08T15:00:00	5	Humedad	57
357	7	Sololá	701	Sololá	1	Sololá	1	Enero	2023-01-13T00:00:00	2024-11-08T15:00:00	6	Velocidad del viento	1.6
358	7	Sololá	701	Sololá	1	Sololá	1	Enero	2023-01-13T00:00:00	2024-11-08T15:00:00	7	Dirección del viento	1.61
359	7	Sololá	701	Sololá	1	Sololá	1	Enero	2023-01-13T00:00:00	2024-11-08T15:00:00	1	Precipitación	0
360	7	Sololá	701	Sololá	1	Sololá	1	Enero	2023-01-13T00:00:00	2024-11-08T15:00:00	8	Radiación solar	95
361	7	Sololá	701	Sololá	1	Sololá	1	Enero	2023-01-13T00:00:00	2024-11-08T16:00:00	2	Temperatura media	20.1
362	7	Sololá	701	Sololá	1	Sololá	1	Enero	2023-01-13T00:00:00	2024-11-08T16:00:00	4	Temperatura máxima	20.6
363	7	Sololá	701	Sololá	1	Sololá	1	Enero	2023-01-13T00:00:00	2024-11-08T16:00:00	3	Temperatura mínima	19.7
364	7	Sololá	701	Sololá	1	Sololá	1	Enero	2023-01-13T00:00:00	2024-11-08T16:00:00	5	Humedad	55
365	7	Sololá	701	Sololá	1	Sololá	1	Enero	2023-01-13T00:00:00	2024-11-08T16:00:00	6	Velocidad del viento	1.6
366	7	Sololá	701	Sololá	1	Sololá	1	Enero	2023-01-13T00:00:00	2024-11-08T16:00:00	7	Dirección del viento	1.61
367	7	Sololá	701	Sololá	1	Sololá	1	Enero	2023-01-13T00:00:00	2024-11-08T16:00:00	1	Precipitación	0
368	7	Sololá	701	Sololá	1	Sololá	1	Enero	2023-01-13T00:00:00	2024-11-08T16:00:00	8	Radiación solar	79
369	7	Sololá	701	Sololá	1	Sololá	1	Enero	2023-01-13T00:00:00	2024-11-08T17:00:00	2	Temperatura media	15.3
370	7	Sololá	701	Sololá	1	Sololá	1	Enero	2023-01-13T00:00:00	2024-11-08T17:00:00	4	Temperatura máxima	20.2
371	7	Sololá	701	Sololá	1	Sololá	1	Enero	2023-01-13T00:00:00	2024-11-08T17:00:00	3	Temperatura mínima	15.3
372	7	Sololá	701	Sololá	1	Sololá	1	Enero	2023-01-13T00:00:00	2024-11-08T17:00:00	5	Humedad	76
373	7	Sololá	701	Sololá	1	Sololá	1	Enero	2023-01-13T00:00:00	2024-11-08T17:00:00	6	Velocidad del viento	0
374	7	Sololá	701	Sololá	1	Sololá	1	Enero	2023-01-13T00:00:00	2024-11-08T17:00:00	7	Dirección del viento	0
375	7	Sololá	701	Sololá	1	Sololá	1	Enero	2023-01-13T00:00:00	2024-11-08T17:00:00	1	Precipitación	0
376	7	Sololá	701	Sololá	1	Sololá	1	Enero	2023-01-13T00:00:00	2024-11-08T17:00:00	8	Radiación solar	44
377	7	Sololá	701	Sololá	1	Sololá	1	Enero	2023-01-13T00:00:00	2024-11-08T18:00:00	2	Temperatura media	13.5
378	7	Sololá	701	Sololá	1	Sololá	1	Enero	2023-01-13T00:00:00	2024-11-08T18:00:00	4	Temperatura máxima	15.3
379	7	Sololá	701	Sololá	1	Sololá	1	Enero	2023-01-13T00:00:00	2024-11-08T18:00:00	3	Temperatura mínima	13.4
380	7	Sololá	701	Sololá	1	Sololá	1	Enero	2023-01-13T00:00:00	2024-11-08T18:00:00	5	Humedad	78
381	7	Sololá	701	Sololá	1	Sololá	1	Enero	2023-01-13T00:00:00	2024-11-08T18:00:00	6	Velocidad del viento	0
382	7	Sololá	701	Sololá	1	Sololá	1	Enero	2023-01-13T00:00:00	2024-11-08T18:00:00	7	Dirección del viento	0
383	7	Sololá	701	Sololá	1	Sololá	1	Enero	2023-01-13T00:00:00	2024-11-08T18:00:00	1	Precipitación	0
384	7	Sololá	701	Sololá	1	Sololá	1	Enero	2023-01-13T00:00:00	2024-11-08T18:00:00	8	Radiación solar	13
385	7	Sololá	701	Sololá	1	Sololá	1	Enero	2023-01-13T00:00:00	2024-11-08T19:00:00	2	Temperatura media	13.1
386	7	Sololá	701	Sololá	1	Sololá	1	Enero	2023-01-13T00:00:00	2024-11-08T19:00:00	4	Temperatura máxima	13.5
387	7	Sololá	701	Sololá	1	Sololá	1	Enero	2023-01-13T00:00:00	2024-11-08T19:00:00	3	Temperatura mínima	13.1
388	7	Sololá	701	Sololá	1	Sololá	1	Enero	2023-01-13T00:00:00	2024-11-08T19:00:00	5	Humedad	80
389	7	Sololá	701	Sololá	1	Sololá	1	Enero	2023-01-13T00:00:00	2024-11-08T19:00:00	6	Velocidad del viento	1.6
390	7	Sololá	701	Sololá	1	Sololá	1	Enero	2023-01-13T00:00:00	2024-11-08T19:00:00	7	Dirección del viento	1.61
391	7	Sololá	701	Sololá	1	Sololá	1	Enero	2023-01-13T00:00:00	2024-11-08T19:00:00	1	Precipitación	0
392	7	Sololá	701	Sololá	1	Sololá	1	Enero	2023-01-13T00:00:00	2024-11-08T19:00:00	8	Radiación solar	0
393	7	Sololá	701	Sololá	1	Sololá	1	Enero	2023-01-13T00:00:00	2024-11-08T20:00:00	2	Temperatura media	12.9
394	7	Sololá	701	Sololá	1	Sololá	1	Enero	2023-01-13T00:00:00	2024-11-08T20:00:00	4	Temperatura máxima	13.1
395	7	Sololá	701	Sololá	1	Sololá	1	Enero	2023-01-13T00:00:00	2024-11-08T20:00:00	3	Temperatura mínima	12.9
396	7	Sololá	701	Sololá	1	Sololá	1	Enero	2023-01-13T00:00:00	2024-11-08T20:00:00	5	Humedad	80
397	7	Sololá	701	Sololá	1	Sololá	1	Enero	2023-01-13T00:00:00	2024-11-08T20:00:00	6	Velocidad del viento	1.6
398	7	Sololá	701	Sololá	1	Sololá	1	Enero	2023-01-13T00:00:00	2024-11-08T20:00:00	7	Dirección del viento	1.61
399	7	Sololá	701	Sololá	1	Sololá	1	Enero	2023-01-13T00:00:00	2024-11-08T20:00:00	1	Precipitación	0
400	7	Sololá	701	Sololá	1	Sololá	1	Enero	2023-01-13T00:00:00	2024-11-08T20:00:00	8	Radiación solar	0
401	7	Sololá	701	Sololá	1	Sololá	1	Enero	2023-01-13T00:00:00	2024-11-08T21:00:00	2	Temperatura media	11.6
402	7	Sololá	701	Sololá	1	Sololá	1	Enero	2023-01-13T00:00:00	2024-11-08T21:00:00	4	Temperatura máxima	12.9
403	7	Sololá	701	Sololá	1	Sololá	1	Enero	2023-01-13T00:00:00	2024-11-08T21:00:00	3	Temperatura mínima	11.6
404	7	Sololá	701	Sololá	1	Sololá	1	Enero	2023-01-13T00:00:00	2024-11-08T21:00:00	5	Humedad	83
405	7	Sololá	701	Sololá	1	Sololá	1	Enero	2023-01-13T00:00:00	2024-11-08T21:00:00	6	Velocidad del viento	1.6
406	7	Sololá	701	Sololá	1	Sololá	1	Enero	2023-01-13T00:00:00	2024-11-08T21:00:00	7	Dirección del viento	1.61
407	7	Sololá	701	Sololá	1	Sololá	1	Enero	2023-01-13T00:00:00	2024-11-08T21:00:00	1	Precipitación	0
408	7	Sololá	701	Sololá	1	Sololá	1	Enero	2023-01-13T00:00:00	2024-11-08T21:00:00	8	Radiación solar	0
409	7	Sololá	701	Sololá	1	Sololá	1	Enero	2023-01-13T00:00:00	2024-11-08T22:00:00	2	Temperatura media	11.4
410	7	Sololá	701	Sololá	1	Sololá	1	Enero	2023-01-13T00:00:00	2024-11-08T22:00:00	4	Temperatura máxima	11.6
411	7	Sololá	701	Sololá	1	Sololá	1	Enero	2023-01-13T00:00:00	2024-11-08T22:00:00	3	Temperatura mínima	11.4
412	7	Sololá	701	Sololá	1	Sololá	1	Enero	2023-01-13T00:00:00	2024-11-08T22:00:00	5	Humedad	82
413	7	Sololá	701	Sololá	1	Sololá	1	Enero	2023-01-13T00:00:00	2024-11-08T22:00:00	6	Velocidad del viento	1.6
414	7	Sololá	701	Sololá	1	Sololá	1	Enero	2023-01-13T00:00:00	2024-11-08T22:00:00	7	Dirección del viento	1.61
415	7	Sololá	701	Sololá	1	Sololá	1	Enero	2023-01-13T00:00:00	2024-11-08T22:00:00	1	Precipitación	0
416	7	Sololá	701	Sololá	1	Sololá	1	Enero	2023-01-13T00:00:00	2024-11-08T22:00:00	8	Radiación solar	0
417	7	Sololá	701	Sololá	1	Sololá	1	Enero	2023-01-13T00:00:00	2024-11-08T23:00:00	2	Temperatura media	11.9
418	7	Sololá	701	Sololá	1	Sololá	1	Enero	2023-01-13T00:00:00	2024-11-08T23:00:00	4	Temperatura máxima	12
419	7	Sololá	701	Sololá	1	Sololá	1	Enero	2023-01-13T00:00:00	2024-11-08T23:00:00	3	Temperatura mínima	11.4
420	7	Sololá	701	Sololá	1	Sololá	1	Enero	2023-01-13T00:00:00	2024-11-08T23:00:00	5	Humedad	78
421	7	Sololá	701	Sololá	1	Sololá	1	Enero	2023-01-13T00:00:00	2024-11-08T23:00:00	6	Velocidad del viento	1.6
422	7	Sololá	701	Sololá	1	Sololá	1	Enero	2023-01-13T00:00:00	2024-11-08T23:00:00	7	Dirección del viento	1.61
423	7	Sololá	701	Sololá	1	Sololá	1	Enero	2023-01-13T00:00:00	2024-11-08T23:00:00	1	Precipitación	0
424	7	Sololá	701	Sololá	1	Sololá	1	Enero	2023-01-13T00:00:00	2024-11-08T23:00:00	8	Radiación solar	0
425	7	Sololá	701	Sololá	1	Sololá	1	Enero	2023-01-14T00:00:00	2024-11-08T00:00:00	2	Temperatura media	11.9
426	7	Sololá	701	Sololá	1	Sololá	1	Enero	2023-01-14T00:00:00	2024-11-08T00:00:00	4	Temperatura máxima	12
427	7	Sololá	701	Sololá	1	Sololá	1	Enero	2023-01-14T00:00:00	2024-11-08T00:00:00	3	Temperatura mínima	11.9
428	7	Sololá	701	Sololá	1	Sololá	1	Enero	2023-01-14T00:00:00	2024-11-08T00:00:00	5	Humedad	77
429	7	Sololá	701	Sololá	1	Sololá	1	Enero	2023-01-14T00:00:00	2024-11-08T00:00:00	6	Velocidad del viento	1.6
430	7	Sololá	701	Sololá	1	Sololá	1	Enero	2023-01-14T00:00:00	2024-11-08T00:00:00	7	Dirección del viento	1.61
431	7	Sololá	701	Sololá	1	Sololá	1	Enero	2023-01-14T00:00:00	2024-11-08T00:00:00	1	Precipitación	0
432	7	Sololá	701	Sololá	1	Sololá	1	Enero	2023-01-14T00:00:00	2024-11-08T00:00:00	8	Radiación solar	0
433	7	Sololá	701	Sololá	1	Sololá	1	Enero	2023-01-14T00:00:00	2024-11-08T01:00:00	2	Temperatura media	11.8
434	7	Sololá	701	Sololá	1	Sololá	1	Enero	2023-01-14T00:00:00	2024-11-08T01:00:00	4	Temperatura máxima	12
435	7	Sololá	701	Sololá	1	Sololá	1	Enero	2023-01-14T00:00:00	2024-11-08T01:00:00	3	Temperatura mínima	11.7
436	7	Sololá	701	Sololá	1	Sololá	1	Enero	2023-01-14T00:00:00	2024-11-08T01:00:00	5	Humedad	78
437	7	Sololá	701	Sololá	1	Sololá	1	Enero	2023-01-14T00:00:00	2024-11-08T01:00:00	6	Velocidad del viento	1.6
438	7	Sololá	701	Sololá	1	Sololá	1	Enero	2023-01-14T00:00:00	2024-11-08T01:00:00	7	Dirección del viento	1.61
439	7	Sololá	701	Sololá	1	Sololá	1	Enero	2023-01-14T00:00:00	2024-11-08T01:00:00	1	Precipitación	0
440	7	Sololá	701	Sololá	1	Sololá	1	Enero	2023-01-14T00:00:00	2024-11-08T01:00:00	8	Radiación solar	0
441	7	Sololá	701	Sololá	1	Sololá	1	Enero	2023-01-14T00:00:00	2024-11-08T02:00:00	2	Temperatura media	11.3
442	7	Sololá	701	Sololá	1	Sololá	1	Enero	2023-01-14T00:00:00	2024-11-08T02:00:00	4	Temperatura máxima	11.8
443	7	Sololá	701	Sololá	1	Sololá	1	Enero	2023-01-14T00:00:00	2024-11-08T02:00:00	3	Temperatura mínima	11.3
444	7	Sololá	701	Sololá	1	Sololá	1	Enero	2023-01-14T00:00:00	2024-11-08T02:00:00	5	Humedad	80
445	7	Sololá	701	Sololá	1	Sololá	1	Enero	2023-01-14T00:00:00	2024-11-08T02:00:00	6	Velocidad del viento	1.6
446	7	Sololá	701	Sololá	1	Sololá	1	Enero	2023-01-14T00:00:00	2024-11-08T02:00:00	7	Dirección del viento	1.61
447	7	Sololá	701	Sololá	1	Sololá	1	Enero	2023-01-14T00:00:00	2024-11-08T02:00:00	1	Precipitación	0
448	7	Sololá	701	Sololá	1	Sololá	1	Enero	2023-01-14T00:00:00	2024-11-08T02:00:00	8	Radiación solar	0
449	7	Sololá	701	Sololá	1	Sololá	1	Enero	2023-01-14T00:00:00	2024-11-08T03:00:00	2	Temperatura media	11.2
450	7	Sololá	701	Sololá	1	Sololá	1	Enero	2023-01-14T00:00:00	2024-11-08T03:00:00	4	Temperatura máxima	11.4
451	7	Sololá	701	Sololá	1	Sololá	1	Enero	2023-01-14T00:00:00	2024-11-08T03:00:00	3	Temperatura mínima	11.2
452	7	Sololá	701	Sololá	1	Sololá	1	Enero	2023-01-14T00:00:00	2024-11-08T03:00:00	5	Humedad	77
453	7	Sololá	701	Sololá	1	Sololá	1	Enero	2023-01-14T00:00:00	2024-11-08T03:00:00	6	Velocidad del viento	1.6
454	7	Sololá	701	Sololá	1	Sololá	1	Enero	2023-01-14T00:00:00	2024-11-08T03:00:00	7	Dirección del viento	1.61
455	7	Sololá	701	Sololá	1	Sololá	1	Enero	2023-01-14T00:00:00	2024-11-08T03:00:00	1	Precipitación	0
456	7	Sololá	701	Sololá	1	Sololá	1	Enero	2023-01-14T00:00:00	2024-11-08T03:00:00	8	Radiación solar	0
457	7	Sololá	701	Sololá	1	Sololá	1	Enero	2023-01-14T00:00:00	2024-11-08T04:00:00	2	Temperatura media	11.2
458	7	Sololá	701	Sololá	1	Sololá	1	Enero	2023-01-14T00:00:00	2024-11-08T04:00:00	4	Temperatura máxima	11.3
459	7	Sololá	701	Sololá	1	Sololá	1	Enero	2023-01-14T00:00:00	2024-11-08T04:00:00	3	Temperatura mínima	11.1
460	7	Sololá	701	Sololá	1	Sololá	1	Enero	2023-01-14T00:00:00	2024-11-08T04:00:00	5	Humedad	78
461	7	Sololá	701	Sololá	1	Sololá	1	Enero	2023-01-14T00:00:00	2024-11-08T04:00:00	6	Velocidad del viento	1.6
462	7	Sololá	701	Sololá	1	Sololá	1	Enero	2023-01-14T00:00:00	2024-11-08T04:00:00	7	Dirección del viento	1.61
463	7	Sololá	701	Sololá	1	Sololá	1	Enero	2023-01-14T00:00:00	2024-11-08T04:00:00	1	Precipitación	0
464	7	Sololá	701	Sololá	1	Sololá	1	Enero	2023-01-14T00:00:00	2024-11-08T04:00:00	8	Radiación solar	0
465	7	Sololá	701	Sololá	1	Sololá	1	Enero	2023-01-14T00:00:00	2024-11-08T05:00:00	2	Temperatura media	11.2
466	7	Sololá	701	Sololá	1	Sololá	1	Enero	2023-01-14T00:00:00	2024-11-08T05:00:00	4	Temperatura máxima	11.3
467	7	Sololá	701	Sololá	1	Sololá	1	Enero	2023-01-14T00:00:00	2024-11-08T05:00:00	3	Temperatura mínima	11.2
468	7	Sololá	701	Sololá	1	Sololá	1	Enero	2023-01-14T00:00:00	2024-11-08T05:00:00	5	Humedad	80
469	7	Sololá	701	Sololá	1	Sololá	1	Enero	2023-01-14T00:00:00	2024-11-08T05:00:00	6	Velocidad del viento	1.6
470	7	Sololá	701	Sololá	1	Sololá	1	Enero	2023-01-14T00:00:00	2024-11-08T05:00:00	7	Dirección del viento	1.61
471	7	Sololá	701	Sololá	1	Sololá	1	Enero	2023-01-14T00:00:00	2024-11-08T05:00:00	1	Precipitación	0
472	7	Sololá	701	Sololá	1	Sololá	1	Enero	2023-01-14T00:00:00	2024-11-08T05:00:00	8	Radiación solar	0
473	7	Sololá	701	Sololá	1	Sololá	1	Enero	2023-01-14T00:00:00	2024-11-08T06:00:00	2	Temperatura media	10.9
474	7	Sololá	701	Sololá	1	Sololá	1	Enero	2023-01-14T00:00:00	2024-11-08T06:00:00	4	Temperatura máxima	11.3
475	7	Sololá	701	Sololá	1	Sololá	1	Enero	2023-01-14T00:00:00	2024-11-08T06:00:00	3	Temperatura mínima	10.9
476	7	Sololá	701	Sololá	1	Sololá	1	Enero	2023-01-14T00:00:00	2024-11-08T06:00:00	5	Humedad	82
477	7	Sololá	701	Sololá	1	Sololá	1	Enero	2023-01-14T00:00:00	2024-11-08T06:00:00	6	Velocidad del viento	1.6
478	7	Sololá	701	Sololá	1	Sololá	1	Enero	2023-01-14T00:00:00	2024-11-08T06:00:00	7	Dirección del viento	1.61
479	7	Sololá	701	Sololá	1	Sololá	1	Enero	2023-01-14T00:00:00	2024-11-08T06:00:00	1	Precipitación	0
480	7	Sololá	701	Sololá	1	Sololá	1	Enero	2023-01-14T00:00:00	2024-11-08T06:00:00	8	Radiación solar	0
481	7	Sololá	701	Sololá	1	Sololá	1	Enero	2023-01-14T00:00:00	2024-11-08T07:00:00	2	Temperatura media	10.5
482	7	Sololá	701	Sololá	1	Sololá	1	Enero	2023-01-14T00:00:00	2024-11-08T07:00:00	4	Temperatura máxima	10.9
483	7	Sololá	701	Sololá	1	Sololá	1	Enero	2023-01-14T00:00:00	2024-11-08T07:00:00	3	Temperatura mínima	10.5
484	7	Sololá	701	Sololá	1	Sololá	1	Enero	2023-01-14T00:00:00	2024-11-08T07:00:00	5	Humedad	83
485	7	Sololá	701	Sololá	1	Sololá	1	Enero	2023-01-14T00:00:00	2024-11-08T07:00:00	6	Velocidad del viento	1.6
486	7	Sololá	701	Sololá	1	Sololá	1	Enero	2023-01-14T00:00:00	2024-11-08T07:00:00	7	Dirección del viento	1.61
487	7	Sololá	701	Sololá	1	Sololá	1	Enero	2023-01-14T00:00:00	2024-11-08T07:00:00	1	Precipitación	0
488	7	Sololá	701	Sololá	1	Sololá	1	Enero	2023-01-14T00:00:00	2024-11-08T07:00:00	8	Radiación solar	3
489	7	Sololá	701	Sololá	1	Sololá	1	Enero	2023-01-14T00:00:00	2024-11-08T08:00:00	2	Temperatura media	11.5
490	7	Sololá	701	Sololá	1	Sololá	1	Enero	2023-01-14T00:00:00	2024-11-08T08:00:00	4	Temperatura máxima	11.5
491	7	Sololá	701	Sololá	1	Sololá	1	Enero	2023-01-14T00:00:00	2024-11-08T08:00:00	3	Temperatura mínima	10.5
492	7	Sololá	701	Sololá	1	Sololá	1	Enero	2023-01-14T00:00:00	2024-11-08T08:00:00	5	Humedad	81
493	7	Sololá	701	Sololá	1	Sololá	1	Enero	2023-01-14T00:00:00	2024-11-08T08:00:00	6	Velocidad del viento	1.6
494	7	Sololá	701	Sololá	1	Sololá	1	Enero	2023-01-14T00:00:00	2024-11-08T08:00:00	7	Dirección del viento	1.61
495	7	Sololá	701	Sololá	1	Sololá	1	Enero	2023-01-14T00:00:00	2024-11-08T08:00:00	1	Precipitación	0
496	7	Sololá	701	Sololá	1	Sololá	1	Enero	2023-01-14T00:00:00	2024-11-08T08:00:00	8	Radiación solar	26
497	7	Sololá	701	Sololá	1	Sololá	1	Enero	2023-01-14T00:00:00	2024-11-08T09:00:00	2	Temperatura media	15.2
498	7	Sololá	701	Sololá	1	Sololá	1	Enero	2023-01-14T00:00:00	2024-11-08T09:00:00	4	Temperatura máxima	15.2
499	7	Sololá	701	Sololá	1	Sololá	1	Enero	2023-01-14T00:00:00	2024-11-08T09:00:00	3	Temperatura mínima	11.5
500	7	Sololá	701	Sololá	1	Sololá	1	Enero	2023-01-14T00:00:00	2024-11-08T09:00:00	5	Humedad	68
501	7	Sololá	701	Sololá	1	Sololá	1	Enero	2023-01-14T00:00:00	2024-11-08T09:00:00	6	Velocidad del viento	1.6
502	7	Sololá	701	Sololá	1	Sololá	1	Enero	2023-01-14T00:00:00	2024-11-08T09:00:00	7	Dirección del viento	1.61
503	7	Sololá	701	Sololá	1	Sololá	1	Enero	2023-01-14T00:00:00	2024-11-08T09:00:00	1	Precipitación	0
504	7	Sololá	701	Sololá	1	Sololá	1	Enero	2023-01-14T00:00:00	2024-11-08T09:00:00	8	Radiación solar	392
505	7	Sololá	701	Sololá	1	Sololá	1	Enero	2023-01-14T00:00:00	2024-11-08T10:00:00	2	Temperatura media	17.1
506	7	Sololá	701	Sololá	1	Sololá	1	Enero	2023-01-14T00:00:00	2024-11-08T10:00:00	4	Temperatura máxima	17.1
507	7	Sololá	701	Sololá	1	Sololá	1	Enero	2023-01-14T00:00:00	2024-11-08T10:00:00	3	Temperatura mínima	15.2
508	7	Sololá	701	Sololá	1	Sololá	1	Enero	2023-01-14T00:00:00	2024-11-08T10:00:00	5	Humedad	59
509	7	Sololá	701	Sololá	1	Sololá	1	Enero	2023-01-14T00:00:00	2024-11-08T10:00:00	6	Velocidad del viento	1.6
510	7	Sololá	701	Sololá	1	Sololá	1	Enero	2023-01-14T00:00:00	2024-11-08T10:00:00	7	Dirección del viento	1.61
511	7	Sololá	701	Sololá	1	Sololá	1	Enero	2023-01-14T00:00:00	2024-11-08T10:00:00	1	Precipitación	0
512	7	Sololá	701	Sololá	1	Sololá	1	Enero	2023-01-14T00:00:00	2024-11-08T10:00:00	8	Radiación solar	627
513	7	Sololá	701	Sololá	1	Sololá	1	Enero	2023-01-14T00:00:00	2024-11-08T11:00:00	2	Temperatura media	18.6
514	7	Sololá	701	Sololá	1	Sololá	1	Enero	2023-01-14T00:00:00	2024-11-08T11:00:00	4	Temperatura máxima	18.6
515	7	Sololá	701	Sololá	1	Sololá	1	Enero	2023-01-14T00:00:00	2024-11-08T11:00:00	3	Temperatura mínima	17.1
516	7	Sololá	701	Sololá	1	Sololá	1	Enero	2023-01-14T00:00:00	2024-11-08T11:00:00	5	Humedad	56
517	7	Sololá	701	Sololá	1	Sololá	1	Enero	2023-01-14T00:00:00	2024-11-08T11:00:00	6	Velocidad del viento	1.6
518	7	Sololá	701	Sololá	1	Sololá	1	Enero	2023-01-14T00:00:00	2024-11-08T11:00:00	7	Dirección del viento	1.61
519	7	Sololá	701	Sololá	1	Sololá	1	Enero	2023-01-14T00:00:00	2024-11-08T11:00:00	1	Precipitación	0
520	7	Sololá	701	Sololá	1	Sololá	1	Enero	2023-01-14T00:00:00	2024-11-08T11:00:00	8	Radiación solar	762
521	7	Sololá	701	Sololá	1	Sololá	1	Enero	2023-01-14T00:00:00	2024-11-08T12:00:00	2	Temperatura media	20.9
522	7	Sololá	701	Sololá	1	Sololá	1	Enero	2023-01-14T00:00:00	2024-11-08T12:00:00	4	Temperatura máxima	21.1
523	7	Sololá	701	Sololá	1	Sololá	1	Enero	2023-01-14T00:00:00	2024-11-08T12:00:00	3	Temperatura mínima	18.6
524	7	Sololá	701	Sololá	1	Sololá	1	Enero	2023-01-14T00:00:00	2024-11-08T12:00:00	5	Humedad	45
525	7	Sololá	701	Sololá	1	Sololá	1	Enero	2023-01-14T00:00:00	2024-11-08T12:00:00	6	Velocidad del viento	0
526	7	Sololá	701	Sololá	1	Sololá	1	Enero	2023-01-14T00:00:00	2024-11-08T12:00:00	7	Dirección del viento	0
527	7	Sololá	701	Sololá	1	Sololá	1	Enero	2023-01-14T00:00:00	2024-11-08T12:00:00	1	Precipitación	0
528	7	Sololá	701	Sololá	1	Sololá	1	Enero	2023-01-14T00:00:00	2024-11-08T12:00:00	8	Radiación solar	835
529	7	Sololá	701	Sololá	1	Sololá	1	Enero	2023-01-14T00:00:00	2024-11-08T13:00:00	2	Temperatura media	22.2
530	7	Sololá	701	Sololá	1	Sololá	1	Enero	2023-01-14T00:00:00	2024-11-08T13:00:00	4	Temperatura máxima	22.3
531	7	Sololá	701	Sololá	1	Sololá	1	Enero	2023-01-14T00:00:00	2024-11-08T13:00:00	3	Temperatura mínima	20.9
532	7	Sololá	701	Sololá	1	Sololá	1	Enero	2023-01-14T00:00:00	2024-11-08T13:00:00	5	Humedad	38
533	7	Sololá	701	Sololá	1	Sololá	1	Enero	2023-01-14T00:00:00	2024-11-08T13:00:00	6	Velocidad del viento	0
534	7	Sololá	701	Sololá	1	Sololá	1	Enero	2023-01-14T00:00:00	2024-11-08T13:00:00	7	Dirección del viento	0
535	7	Sololá	701	Sololá	1	Sololá	1	Enero	2023-01-14T00:00:00	2024-11-08T13:00:00	1	Precipitación	0
536	7	Sololá	701	Sololá	1	Sololá	1	Enero	2023-01-14T00:00:00	2024-11-08T13:00:00	8	Radiación solar	838
537	7	Sololá	701	Sololá	1	Sololá	1	Enero	2023-01-14T00:00:00	2024-11-08T14:00:00	2	Temperatura media	21.8
538	7	Sololá	701	Sololá	1	Sololá	1	Enero	2023-01-14T00:00:00	2024-11-08T14:00:00	4	Temperatura máxima	22.2
539	7	Sololá	701	Sololá	1	Sololá	1	Enero	2023-01-14T00:00:00	2024-11-08T14:00:00	3	Temperatura mínima	21.6
540	7	Sololá	701	Sololá	1	Sololá	1	Enero	2023-01-14T00:00:00	2024-11-08T14:00:00	5	Humedad	40
541	7	Sololá	701	Sololá	1	Sololá	1	Enero	2023-01-14T00:00:00	2024-11-08T14:00:00	6	Velocidad del viento	1.6
542	7	Sololá	701	Sololá	1	Sololá	1	Enero	2023-01-14T00:00:00	2024-11-08T14:00:00	7	Dirección del viento	1.61
543	7	Sololá	701	Sololá	1	Sololá	1	Enero	2023-01-14T00:00:00	2024-11-08T14:00:00	1	Precipitación	0
544	7	Sololá	701	Sololá	1	Sololá	1	Enero	2023-01-14T00:00:00	2024-11-08T14:00:00	8	Radiación solar	284
545	7	Sololá	701	Sololá	1	Sololá	1	Enero	2023-01-14T00:00:00	2024-11-08T15:00:00	2	Temperatura media	21.6
546	7	Sololá	701	Sololá	1	Sololá	1	Enero	2023-01-14T00:00:00	2024-11-08T15:00:00	4	Temperatura máxima	21.8
547	7	Sololá	701	Sololá	1	Sololá	1	Enero	2023-01-14T00:00:00	2024-11-08T15:00:00	3	Temperatura mínima	21.3
548	7	Sololá	701	Sololá	1	Sololá	1	Enero	2023-01-14T00:00:00	2024-11-08T15:00:00	5	Humedad	37
549	7	Sololá	701	Sololá	1	Sololá	1	Enero	2023-01-14T00:00:00	2024-11-08T15:00:00	6	Velocidad del viento	0
550	7	Sololá	701	Sololá	1	Sololá	1	Enero	2023-01-14T00:00:00	2024-11-08T15:00:00	7	Dirección del viento	0
551	7	Sololá	701	Sololá	1	Sololá	1	Enero	2023-01-14T00:00:00	2024-11-08T15:00:00	1	Precipitación	0
552	7	Sololá	701	Sololá	1	Sololá	1	Enero	2023-01-14T00:00:00	2024-11-08T15:00:00	8	Radiación solar	88
553	7	Sololá	701	Sololá	1	Sololá	1	Enero	2023-01-14T00:00:00	2024-11-08T16:00:00	2	Temperatura media	17.8
554	7	Sololá	701	Sololá	1	Sololá	1	Enero	2023-01-14T00:00:00	2024-11-08T16:00:00	4	Temperatura máxima	21.7
555	7	Sololá	701	Sololá	1	Sololá	1	Enero	2023-01-14T00:00:00	2024-11-08T16:00:00	3	Temperatura mínima	17.7
556	7	Sololá	701	Sololá	1	Sololá	1	Enero	2023-01-14T00:00:00	2024-11-08T16:00:00	5	Humedad	47
557	7	Sololá	701	Sololá	1	Sololá	1	Enero	2023-01-14T00:00:00	2024-11-08T16:00:00	6	Velocidad del viento	0
558	7	Sololá	701	Sololá	1	Sololá	1	Enero	2023-01-14T00:00:00	2024-11-08T16:00:00	7	Dirección del viento	0
559	7	Sololá	701	Sololá	1	Sololá	1	Enero	2023-01-14T00:00:00	2024-11-08T16:00:00	1	Precipitación	0
560	7	Sololá	701	Sololá	1	Sololá	1	Enero	2023-01-14T00:00:00	2024-11-08T16:00:00	8	Radiación solar	38
561	7	Sololá	701	Sololá	1	Sololá	1	Enero	2023-01-14T00:00:00	2024-11-08T17:00:00	2	Temperatura media	19.4
562	7	Sololá	701	Sololá	1	Sololá	1	Enero	2023-01-14T00:00:00	2024-11-08T17:00:00	4	Temperatura máxima	19.6
563	7	Sololá	701	Sololá	1	Sololá	1	Enero	2023-01-14T00:00:00	2024-11-08T17:00:00	3	Temperatura mínima	17.8
564	7	Sololá	701	Sololá	1	Sololá	1	Enero	2023-01-14T00:00:00	2024-11-08T17:00:00	5	Humedad	43
565	7	Sololá	701	Sololá	1	Sololá	1	Enero	2023-01-14T00:00:00	2024-11-08T17:00:00	6	Velocidad del viento	0
566	7	Sololá	701	Sololá	1	Sololá	1	Enero	2023-01-14T00:00:00	2024-11-08T17:00:00	7	Dirección del viento	0
567	7	Sololá	701	Sololá	1	Sololá	1	Enero	2023-01-14T00:00:00	2024-11-08T17:00:00	1	Precipitación	0
568	7	Sololá	701	Sololá	1	Sololá	1	Enero	2023-01-14T00:00:00	2024-11-08T17:00:00	8	Radiación solar	83
569	7	Sololá	701	Sololá	1	Sololá	1	Enero	2023-01-14T00:00:00	2024-11-08T18:00:00	2	Temperatura media	15.7
570	7	Sololá	701	Sololá	1	Sololá	1	Enero	2023-01-14T00:00:00	2024-11-08T18:00:00	4	Temperatura máxima	19.4
571	7	Sololá	701	Sololá	1	Sololá	1	Enero	2023-01-14T00:00:00	2024-11-08T18:00:00	3	Temperatura mínima	15.7
572	7	Sololá	701	Sololá	1	Sololá	1	Enero	2023-01-14T00:00:00	2024-11-08T18:00:00	5	Humedad	57
573	7	Sololá	701	Sololá	1	Sololá	1	Enero	2023-01-14T00:00:00	2024-11-08T18:00:00	6	Velocidad del viento	0
574	7	Sololá	701	Sololá	1	Sololá	1	Enero	2023-01-14T00:00:00	2024-11-08T18:00:00	7	Dirección del viento	0
575	7	Sololá	701	Sololá	1	Sololá	1	Enero	2023-01-14T00:00:00	2024-11-08T18:00:00	1	Precipitación	0
576	7	Sololá	701	Sololá	1	Sololá	1	Enero	2023-01-14T00:00:00	2024-11-08T18:00:00	8	Radiación solar	13
577	7	Sololá	701	Sololá	1	Sololá	1	Enero	2023-01-14T00:00:00	2024-11-08T19:00:00	2	Temperatura media	13.7
578	7	Sololá	701	Sololá	1	Sololá	1	Enero	2023-01-14T00:00:00	2024-11-08T19:00:00	4	Temperatura máxima	15.7
579	7	Sololá	701	Sololá	1	Sololá	1	Enero	2023-01-14T00:00:00	2024-11-08T19:00:00	3	Temperatura mínima	13.7
580	7	Sololá	701	Sololá	1	Sololá	1	Enero	2023-01-14T00:00:00	2024-11-08T19:00:00	5	Humedad	57
581	7	Sololá	701	Sololá	1	Sololá	1	Enero	2023-01-14T00:00:00	2024-11-08T19:00:00	6	Velocidad del viento	0
582	7	Sololá	701	Sololá	1	Sololá	1	Enero	2023-01-14T00:00:00	2024-11-08T19:00:00	7	Dirección del viento	0
583	7	Sololá	701	Sololá	1	Sololá	1	Enero	2023-01-14T00:00:00	2024-11-08T19:00:00	1	Precipitación	0
584	7	Sololá	701	Sololá	1	Sololá	1	Enero	2023-01-14T00:00:00	2024-11-08T19:00:00	8	Radiación solar	0
585	7	Sololá	701	Sololá	1	Sololá	1	Enero	2023-01-14T00:00:00	2024-11-08T20:00:00	2	Temperatura media	11.7
586	7	Sololá	701	Sololá	1	Sololá	1	Enero	2023-01-14T00:00:00	2024-11-08T20:00:00	4	Temperatura máxima	13.7
587	7	Sololá	701	Sololá	1	Sololá	1	Enero	2023-01-14T00:00:00	2024-11-08T20:00:00	3	Temperatura mínima	11.7
588	7	Sololá	701	Sololá	1	Sololá	1	Enero	2023-01-14T00:00:00	2024-11-08T20:00:00	5	Humedad	51
589	7	Sololá	701	Sololá	1	Sololá	1	Enero	2023-01-14T00:00:00	2024-11-08T20:00:00	6	Velocidad del viento	0
590	7	Sololá	701	Sololá	1	Sololá	1	Enero	2023-01-14T00:00:00	2024-11-08T20:00:00	7	Dirección del viento	0
591	7	Sololá	701	Sololá	1	Sololá	1	Enero	2023-01-14T00:00:00	2024-11-08T20:00:00	1	Precipitación	0
592	7	Sololá	701	Sololá	1	Sololá	1	Enero	2023-01-14T00:00:00	2024-11-08T20:00:00	8	Radiación solar	0
593	7	Sololá	701	Sololá	1	Sololá	1	Enero	2023-01-14T00:00:00	2024-11-08T21:00:00	2	Temperatura media	11
594	7	Sololá	701	Sololá	1	Sololá	1	Enero	2023-01-14T00:00:00	2024-11-08T21:00:00	4	Temperatura máxima	11.7
595	7	Sololá	701	Sololá	1	Sololá	1	Enero	2023-01-14T00:00:00	2024-11-08T21:00:00	3	Temperatura mínima	11
596	7	Sololá	701	Sololá	1	Sololá	1	Enero	2023-01-14T00:00:00	2024-11-08T21:00:00	5	Humedad	47
597	7	Sololá	701	Sololá	1	Sololá	1	Enero	2023-01-14T00:00:00	2024-11-08T21:00:00	6	Velocidad del viento	0
598	7	Sololá	701	Sololá	1	Sololá	1	Enero	2023-01-14T00:00:00	2024-11-08T21:00:00	7	Dirección del viento	0
599	7	Sololá	701	Sololá	1	Sololá	1	Enero	2023-01-14T00:00:00	2024-11-08T21:00:00	1	Precipitación	0
600	7	Sololá	701	Sololá	1	Sololá	1	Enero	2023-01-14T00:00:00	2024-11-08T21:00:00	8	Radiación solar	0
601	7	Sololá	701	Sololá	1	Sololá	1	Enero	2023-01-14T00:00:00	2024-11-08T22:00:00	2	Temperatura media	10.6
602	7	Sololá	701	Sololá	1	Sololá	1	Enero	2023-01-14T00:00:00	2024-11-08T22:00:00	4	Temperatura máxima	11
603	7	Sololá	701	Sololá	1	Sololá	1	Enero	2023-01-14T00:00:00	2024-11-08T22:00:00	3	Temperatura mínima	9.9
604	7	Sololá	701	Sololá	1	Sololá	1	Enero	2023-01-14T00:00:00	2024-11-08T22:00:00	5	Humedad	42
605	7	Sololá	701	Sololá	1	Sololá	1	Enero	2023-01-14T00:00:00	2024-11-08T22:00:00	6	Velocidad del viento	0
606	7	Sololá	701	Sololá	1	Sololá	1	Enero	2023-01-14T00:00:00	2024-11-08T22:00:00	7	Dirección del viento	0
607	7	Sololá	701	Sololá	1	Sololá	1	Enero	2023-01-14T00:00:00	2024-11-08T22:00:00	1	Precipitación	0
608	7	Sololá	701	Sololá	1	Sololá	1	Enero	2023-01-14T00:00:00	2024-11-08T22:00:00	8	Radiación solar	0
609	7	Sololá	701	Sololá	1	Sololá	1	Enero	2023-01-14T00:00:00	2024-11-08T23:00:00	2	Temperatura media	10.2
610	7	Sololá	701	Sololá	1	Sololá	1	Enero	2023-01-14T00:00:00	2024-11-08T23:00:00	4	Temperatura máxima	10.9
611	7	Sololá	701	Sololá	1	Sololá	1	Enero	2023-01-14T00:00:00	2024-11-08T23:00:00	3	Temperatura mínima	10.2
612	7	Sololá	701	Sololá	1	Sololá	1	Enero	2023-01-14T00:00:00	2024-11-08T23:00:00	5	Humedad	42
613	7	Sololá	701	Sololá	1	Sololá	1	Enero	2023-01-14T00:00:00	2024-11-08T23:00:00	6	Velocidad del viento	0
614	7	Sololá	701	Sololá	1	Sololá	1	Enero	2023-01-14T00:00:00	2024-11-08T23:00:00	7	Dirección del viento	0
615	7	Sololá	701	Sololá	1	Sololá	1	Enero	2023-01-14T00:00:00	2024-11-08T23:00:00	1	Precipitación	0
616	7	Sololá	701	Sololá	1	Sololá	1	Enero	2023-01-14T00:00:00	2024-11-08T23:00:00	8	Radiación solar	0
617	7	Sololá	701	Sololá	1	Sololá	1	Enero	2023-01-15T00:00:00	2024-11-08T00:00:00	2	Temperatura media	9.1
618	7	Sololá	701	Sololá	1	Sololá	1	Enero	2023-01-15T00:00:00	2024-11-08T00:00:00	4	Temperatura máxima	10.2
619	7	Sololá	701	Sololá	1	Sololá	1	Enero	2023-01-15T00:00:00	2024-11-08T00:00:00	3	Temperatura mínima	9.1
620	7	Sololá	701	Sololá	1	Sololá	1	Enero	2023-01-15T00:00:00	2024-11-08T00:00:00	5	Humedad	42
621	7	Sololá	701	Sololá	1	Sololá	1	Enero	2023-01-15T00:00:00	2024-11-08T00:00:00	6	Velocidad del viento	0
622	7	Sololá	701	Sololá	1	Sololá	1	Enero	2023-01-15T00:00:00	2024-11-08T00:00:00	7	Dirección del viento	0
623	7	Sololá	701	Sololá	1	Sololá	1	Enero	2023-01-15T00:00:00	2024-11-08T00:00:00	1	Precipitación	0
624	7	Sololá	701	Sololá	1	Sololá	1	Enero	2023-01-15T00:00:00	2024-11-08T00:00:00	8	Radiación solar	0
625	7	Sololá	701	Sololá	1	Sololá	1	Enero	2023-01-15T00:00:00	2024-11-08T01:00:00	2	Temperatura media	9.9
626	7	Sololá	701	Sololá	1	Sololá	1	Enero	2023-01-15T00:00:00	2024-11-08T01:00:00	4	Temperatura máxima	10.2
627	7	Sololá	701	Sololá	1	Sololá	1	Enero	2023-01-15T00:00:00	2024-11-08T01:00:00	3	Temperatura mínima	9.1
628	7	Sololá	701	Sololá	1	Sololá	1	Enero	2023-01-15T00:00:00	2024-11-08T01:00:00	5	Humedad	40
629	7	Sololá	701	Sololá	1	Sololá	1	Enero	2023-01-15T00:00:00	2024-11-08T01:00:00	6	Velocidad del viento	0
630	7	Sololá	701	Sololá	1	Sololá	1	Enero	2023-01-15T00:00:00	2024-11-08T01:00:00	7	Dirección del viento	0
631	7	Sololá	701	Sololá	1	Sololá	1	Enero	2023-01-15T00:00:00	2024-11-08T01:00:00	1	Precipitación	0
632	7	Sololá	701	Sololá	1	Sololá	1	Enero	2023-01-15T00:00:00	2024-11-08T01:00:00	8	Radiación solar	0
633	7	Sololá	701	Sololá	1	Sololá	1	Enero	2023-01-15T00:00:00	2024-11-08T02:00:00	2	Temperatura media	9.8
634	7	Sololá	701	Sololá	1	Sololá	1	Enero	2023-01-15T00:00:00	2024-11-08T02:00:00	4	Temperatura máxima	9.9
635	7	Sololá	701	Sololá	1	Sololá	1	Enero	2023-01-15T00:00:00	2024-11-08T02:00:00	3	Temperatura mínima	9.4
636	7	Sololá	701	Sololá	1	Sololá	1	Enero	2023-01-15T00:00:00	2024-11-08T02:00:00	5	Humedad	45
637	7	Sololá	701	Sololá	1	Sololá	1	Enero	2023-01-15T00:00:00	2024-11-08T02:00:00	6	Velocidad del viento	1.6
638	7	Sololá	701	Sololá	1	Sololá	1	Enero	2023-01-15T00:00:00	2024-11-08T02:00:00	7	Dirección del viento	1.61
639	7	Sololá	701	Sololá	1	Sololá	1	Enero	2023-01-15T00:00:00	2024-11-08T02:00:00	1	Precipitación	0
640	7	Sololá	701	Sololá	1	Sololá	1	Enero	2023-01-15T00:00:00	2024-11-08T02:00:00	8	Radiación solar	0
641	7	Sololá	701	Sololá	1	Sololá	1	Enero	2023-01-15T00:00:00	2024-11-08T03:00:00	2	Temperatura media	9.6
642	7	Sololá	701	Sololá	1	Sololá	1	Enero	2023-01-15T00:00:00	2024-11-08T03:00:00	4	Temperatura máxima	9.8
643	7	Sololá	701	Sololá	1	Sololá	1	Enero	2023-01-15T00:00:00	2024-11-08T03:00:00	3	Temperatura mínima	9.6
644	7	Sololá	701	Sololá	1	Sololá	1	Enero	2023-01-15T00:00:00	2024-11-08T03:00:00	5	Humedad	51
645	7	Sololá	701	Sololá	1	Sololá	1	Enero	2023-01-15T00:00:00	2024-11-08T03:00:00	6	Velocidad del viento	0
646	7	Sololá	701	Sololá	1	Sololá	1	Enero	2023-01-15T00:00:00	2024-11-08T03:00:00	7	Dirección del viento	0
647	7	Sololá	701	Sololá	1	Sololá	1	Enero	2023-01-15T00:00:00	2024-11-08T03:00:00	1	Precipitación	0
648	7	Sololá	701	Sololá	1	Sololá	1	Enero	2023-01-15T00:00:00	2024-11-08T03:00:00	8	Radiación solar	0
649	7	Sololá	701	Sololá	1	Sololá	1	Enero	2023-01-15T00:00:00	2024-11-08T04:00:00	2	Temperatura media	8.9
650	7	Sololá	701	Sololá	1	Sololá	1	Enero	2023-01-15T00:00:00	2024-11-08T04:00:00	4	Temperatura máxima	9.6
651	7	Sololá	701	Sololá	1	Sololá	1	Enero	2023-01-15T00:00:00	2024-11-08T04:00:00	3	Temperatura mínima	8.9
652	7	Sololá	701	Sololá	1	Sololá	1	Enero	2023-01-15T00:00:00	2024-11-08T04:00:00	5	Humedad	57
653	7	Sololá	701	Sololá	1	Sololá	1	Enero	2023-01-15T00:00:00	2024-11-08T04:00:00	6	Velocidad del viento	1.6
654	7	Sololá	701	Sololá	1	Sololá	1	Enero	2023-01-15T00:00:00	2024-11-08T04:00:00	7	Dirección del viento	1.61
655	7	Sololá	701	Sololá	1	Sololá	1	Enero	2023-01-15T00:00:00	2024-11-08T04:00:00	1	Precipitación	0
656	7	Sololá	701	Sololá	1	Sololá	1	Enero	2023-01-15T00:00:00	2024-11-08T04:00:00	8	Radiación solar	0
657	7	Sololá	701	Sololá	1	Sololá	1	Enero	2023-01-15T00:00:00	2024-11-08T05:00:00	2	Temperatura media	8.8
658	7	Sololá	701	Sololá	1	Sololá	1	Enero	2023-01-15T00:00:00	2024-11-08T05:00:00	4	Temperatura máxima	8.9
659	7	Sololá	701	Sololá	1	Sololá	1	Enero	2023-01-15T00:00:00	2024-11-08T05:00:00	3	Temperatura mínima	8.7
660	7	Sololá	701	Sololá	1	Sololá	1	Enero	2023-01-15T00:00:00	2024-11-08T05:00:00	5	Humedad	56
661	7	Sololá	701	Sololá	1	Sololá	1	Enero	2023-01-15T00:00:00	2024-11-08T05:00:00	6	Velocidad del viento	1.6
662	7	Sololá	701	Sololá	1	Sololá	1	Enero	2023-01-15T00:00:00	2024-11-08T05:00:00	7	Dirección del viento	1.61
663	7	Sololá	701	Sololá	1	Sololá	1	Enero	2023-01-15T00:00:00	2024-11-08T05:00:00	1	Precipitación	0
664	7	Sololá	701	Sololá	1	Sololá	1	Enero	2023-01-15T00:00:00	2024-11-08T05:00:00	8	Radiación solar	0
665	7	Sololá	701	Sololá	1	Sololá	1	Enero	2023-01-15T00:00:00	2024-11-08T06:00:00	2	Temperatura media	8.7
666	7	Sololá	701	Sololá	1	Sololá	1	Enero	2023-01-15T00:00:00	2024-11-08T06:00:00	4	Temperatura máxima	8.9
667	7	Sololá	701	Sololá	1	Sololá	1	Enero	2023-01-15T00:00:00	2024-11-08T06:00:00	3	Temperatura mínima	8.4
668	7	Sololá	701	Sololá	1	Sololá	1	Enero	2023-01-15T00:00:00	2024-11-08T06:00:00	5	Humedad	58
669	7	Sololá	701	Sololá	1	Sololá	1	Enero	2023-01-15T00:00:00	2024-11-08T06:00:00	6	Velocidad del viento	1.6
670	7	Sololá	701	Sololá	1	Sololá	1	Enero	2023-01-15T00:00:00	2024-11-08T06:00:00	7	Dirección del viento	1.61
671	7	Sololá	701	Sololá	1	Sololá	1	Enero	2023-01-15T00:00:00	2024-11-08T06:00:00	1	Precipitación	0
672	7	Sololá	701	Sololá	1	Sololá	1	Enero	2023-01-15T00:00:00	2024-11-08T06:00:00	8	Radiación solar	0
673	7	Sololá	701	Sololá	1	Sololá	1	Enero	2023-01-15T00:00:00	2024-11-08T07:00:00	2	Temperatura media	8.8
674	7	Sololá	701	Sololá	1	Sololá	1	Enero	2023-01-15T00:00:00	2024-11-08T07:00:00	4	Temperatura máxima	8.9
675	7	Sololá	701	Sololá	1	Sololá	1	Enero	2023-01-15T00:00:00	2024-11-08T07:00:00	3	Temperatura mínima	8.6
676	7	Sololá	701	Sololá	1	Sololá	1	Enero	2023-01-15T00:00:00	2024-11-08T07:00:00	5	Humedad	63
677	7	Sololá	701	Sololá	1	Sololá	1	Enero	2023-01-15T00:00:00	2024-11-08T07:00:00	6	Velocidad del viento	1.6
678	7	Sololá	701	Sololá	1	Sololá	1	Enero	2023-01-15T00:00:00	2024-11-08T07:00:00	7	Dirección del viento	1.61
679	7	Sololá	701	Sololá	1	Sololá	1	Enero	2023-01-15T00:00:00	2024-11-08T07:00:00	1	Precipitación	0
680	7	Sololá	701	Sololá	1	Sololá	1	Enero	2023-01-15T00:00:00	2024-11-08T07:00:00	8	Radiación solar	3
681	7	Sololá	701	Sololá	1	Sololá	1	Enero	2023-01-15T00:00:00	2024-11-08T08:00:00	2	Temperatura media	11.3
682	7	Sololá	701	Sololá	1	Sololá	1	Enero	2023-01-15T00:00:00	2024-11-08T08:00:00	4	Temperatura máxima	11.3
683	7	Sololá	701	Sololá	1	Sololá	1	Enero	2023-01-15T00:00:00	2024-11-08T08:00:00	3	Temperatura mínima	8.8
684	7	Sololá	701	Sololá	1	Sololá	1	Enero	2023-01-15T00:00:00	2024-11-08T08:00:00	5	Humedad	64
685	7	Sololá	701	Sololá	1	Sololá	1	Enero	2023-01-15T00:00:00	2024-11-08T08:00:00	6	Velocidad del viento	0
686	7	Sololá	701	Sololá	1	Sololá	1	Enero	2023-01-15T00:00:00	2024-11-08T08:00:00	7	Dirección del viento	0
687	7	Sololá	701	Sololá	1	Sololá	1	Enero	2023-01-15T00:00:00	2024-11-08T08:00:00	1	Precipitación	0
688	7	Sololá	701	Sololá	1	Sololá	1	Enero	2023-01-15T00:00:00	2024-11-08T08:00:00	8	Radiación solar	25
689	7	Sololá	701	Sololá	1	Sololá	1	Enero	2023-01-15T00:00:00	2024-11-08T09:00:00	2	Temperatura media	17.9
690	7	Sololá	701	Sololá	1	Sololá	1	Enero	2023-01-15T00:00:00	2024-11-08T09:00:00	4	Temperatura máxima	17.9
691	7	Sololá	701	Sololá	1	Sololá	1	Enero	2023-01-15T00:00:00	2024-11-08T09:00:00	3	Temperatura mínima	11.3
692	7	Sololá	701	Sololá	1	Sololá	1	Enero	2023-01-15T00:00:00	2024-11-08T09:00:00	5	Humedad	46
693	7	Sololá	701	Sololá	1	Sololá	1	Enero	2023-01-15T00:00:00	2024-11-08T09:00:00	6	Velocidad del viento	0
694	7	Sololá	701	Sololá	1	Sololá	1	Enero	2023-01-15T00:00:00	2024-11-08T09:00:00	7	Dirección del viento	0
695	7	Sololá	701	Sololá	1	Sololá	1	Enero	2023-01-15T00:00:00	2024-11-08T09:00:00	1	Precipitación	0
696	7	Sololá	701	Sololá	1	Sololá	1	Enero	2023-01-15T00:00:00	2024-11-08T09:00:00	8	Radiación solar	386
697	7	Sololá	701	Sololá	1	Sololá	1	Enero	2023-01-15T00:00:00	2024-11-08T10:00:00	2	Temperatura media	21
698	7	Sololá	701	Sololá	1	Sololá	1	Enero	2023-01-15T00:00:00	2024-11-08T10:00:00	4	Temperatura máxima	21.1
699	7	Sololá	701	Sololá	1	Sololá	1	Enero	2023-01-15T00:00:00	2024-11-08T10:00:00	3	Temperatura mínima	18
700	7	Sololá	701	Sololá	1	Sololá	1	Enero	2023-01-15T00:00:00	2024-11-08T10:00:00	5	Humedad	39
701	7	Sololá	701	Sololá	1	Sololá	1	Enero	2023-01-15T00:00:00	2024-11-08T10:00:00	6	Velocidad del viento	0
702	7	Sololá	701	Sololá	1	Sololá	1	Enero	2023-01-15T00:00:00	2024-11-08T10:00:00	7	Dirección del viento	0
703	7	Sololá	701	Sololá	1	Sololá	1	Enero	2023-01-15T00:00:00	2024-11-08T10:00:00	1	Precipitación	0
704	7	Sololá	701	Sololá	1	Sololá	1	Enero	2023-01-15T00:00:00	2024-11-08T10:00:00	8	Radiación solar	631
705	7	Sololá	701	Sololá	1	Sololá	1	Enero	2023-01-15T00:00:00	2024-11-08T11:00:00	2	Temperatura media	21.8
706	7	Sololá	701	Sololá	1	Sololá	1	Enero	2023-01-15T00:00:00	2024-11-08T11:00:00	4	Temperatura máxima	21.8
707	7	Sololá	701	Sololá	1	Sololá	1	Enero	2023-01-15T00:00:00	2024-11-08T11:00:00	3	Temperatura mínima	20.9
708	7	Sololá	701	Sololá	1	Sololá	1	Enero	2023-01-15T00:00:00	2024-11-08T11:00:00	5	Humedad	36
709	7	Sololá	701	Sololá	1	Sololá	1	Enero	2023-01-15T00:00:00	2024-11-08T11:00:00	6	Velocidad del viento	0
710	7	Sololá	701	Sololá	1	Sololá	1	Enero	2023-01-15T00:00:00	2024-11-08T11:00:00	7	Dirección del viento	0
711	7	Sololá	701	Sololá	1	Sololá	1	Enero	2023-01-15T00:00:00	2024-11-08T11:00:00	1	Precipitación	0
712	7	Sololá	701	Sololá	1	Sololá	1	Enero	2023-01-15T00:00:00	2024-11-08T11:00:00	8	Radiación solar	771
713	7	Sololá	701	Sololá	1	Sololá	1	Enero	2023-01-15T00:00:00	2024-11-08T12:00:00	2	Temperatura media	21.6
714	7	Sololá	701	Sololá	1	Sololá	1	Enero	2023-01-15T00:00:00	2024-11-08T12:00:00	4	Temperatura máxima	21.9
715	7	Sololá	701	Sololá	1	Sololá	1	Enero	2023-01-15T00:00:00	2024-11-08T12:00:00	3	Temperatura mínima	21.4
716	7	Sololá	701	Sololá	1	Sololá	1	Enero	2023-01-15T00:00:00	2024-11-08T12:00:00	5	Humedad	42
717	7	Sololá	701	Sololá	1	Sololá	1	Enero	2023-01-15T00:00:00	2024-11-08T12:00:00	6	Velocidad del viento	0
718	7	Sololá	701	Sololá	1	Sololá	1	Enero	2023-01-15T00:00:00	2024-11-08T12:00:00	7	Dirección del viento	0
719	7	Sololá	701	Sololá	1	Sololá	1	Enero	2023-01-15T00:00:00	2024-11-08T12:00:00	1	Precipitación	0
720	7	Sololá	701	Sololá	1	Sololá	1	Enero	2023-01-15T00:00:00	2024-11-08T12:00:00	8	Radiación solar	845
721	7	Sololá	701	Sololá	1	Sololá	1	Enero	2023-01-15T00:00:00	2024-11-08T13:00:00	2	Temperatura media	20.4
722	7	Sololá	701	Sololá	1	Sololá	1	Enero	2023-01-15T00:00:00	2024-11-08T13:00:00	4	Temperatura máxima	22
723	7	Sololá	701	Sololá	1	Sololá	1	Enero	2023-01-15T00:00:00	2024-11-08T13:00:00	3	Temperatura mínima	20.4
724	7	Sololá	701	Sololá	1	Sololá	1	Enero	2023-01-15T00:00:00	2024-11-08T13:00:00	5	Humedad	56
725	7	Sololá	701	Sololá	1	Sololá	1	Enero	2023-01-15T00:00:00	2024-11-08T13:00:00	6	Velocidad del viento	0
726	7	Sololá	701	Sololá	1	Sololá	1	Enero	2023-01-15T00:00:00	2024-11-08T13:00:00	7	Dirección del viento	0
727	7	Sololá	701	Sololá	1	Sololá	1	Enero	2023-01-15T00:00:00	2024-11-08T13:00:00	1	Precipitación	0
728	7	Sololá	701	Sololá	1	Sololá	1	Enero	2023-01-15T00:00:00	2024-11-08T13:00:00	8	Radiación solar	838
729	7	Sololá	701	Sololá	1	Sololá	1	Enero	2023-01-15T00:00:00	2024-11-08T14:00:00	2	Temperatura media	19.2
730	7	Sololá	701	Sololá	1	Sololá	1	Enero	2023-01-15T00:00:00	2024-11-08T14:00:00	4	Temperatura máxima	20.6
731	7	Sololá	701	Sololá	1	Sololá	1	Enero	2023-01-15T00:00:00	2024-11-08T14:00:00	3	Temperatura mínima	19.2
732	7	Sololá	701	Sololá	1	Sololá	1	Enero	2023-01-15T00:00:00	2024-11-08T14:00:00	5	Humedad	68
733	7	Sololá	701	Sololá	1	Sololá	1	Enero	2023-01-15T00:00:00	2024-11-08T14:00:00	6	Velocidad del viento	0
734	7	Sololá	701	Sololá	1	Sololá	1	Enero	2023-01-15T00:00:00	2024-11-08T14:00:00	7	Dirección del viento	0
735	7	Sololá	701	Sololá	1	Sololá	1	Enero	2023-01-15T00:00:00	2024-11-08T14:00:00	1	Precipitación	0
736	7	Sololá	701	Sololá	1	Sololá	1	Enero	2023-01-15T00:00:00	2024-11-08T14:00:00	8	Radiación solar	172
737	7	Sololá	701	Sololá	1	Sololá	1	Enero	2023-01-15T00:00:00	2024-11-08T15:00:00	2	Temperatura media	18
738	7	Sololá	701	Sololá	1	Sololá	1	Enero	2023-01-15T00:00:00	2024-11-08T15:00:00	4	Temperatura máxima	19.2
739	7	Sololá	701	Sololá	1	Sololá	1	Enero	2023-01-15T00:00:00	2024-11-08T15:00:00	3	Temperatura mínima	17.9
740	7	Sololá	701	Sololá	1	Sololá	1	Enero	2023-01-15T00:00:00	2024-11-08T15:00:00	5	Humedad	72
741	7	Sololá	701	Sololá	1	Sololá	1	Enero	2023-01-15T00:00:00	2024-11-08T15:00:00	6	Velocidad del viento	0
742	7	Sololá	701	Sololá	1	Sololá	1	Enero	2023-01-15T00:00:00	2024-11-08T15:00:00	7	Dirección del viento	0
743	7	Sololá	701	Sololá	1	Sololá	1	Enero	2023-01-15T00:00:00	2024-11-08T15:00:00	1	Precipitación	0
744	7	Sololá	701	Sololá	1	Sololá	1	Enero	2023-01-15T00:00:00	2024-11-08T15:00:00	8	Radiación solar	184
745	7	Sololá	701	Sololá	1	Sololá	1	Enero	2023-01-15T00:00:00	2024-11-08T16:00:00	2	Temperatura media	17.2
746	7	Sololá	701	Sololá	1	Sololá	1	Enero	2023-01-15T00:00:00	2024-11-08T16:00:00	4	Temperatura máxima	18.1
747	7	Sololá	701	Sololá	1	Sololá	1	Enero	2023-01-15T00:00:00	2024-11-08T16:00:00	3	Temperatura mínima	17.1
748	7	Sololá	701	Sololá	1	Sololá	1	Enero	2023-01-15T00:00:00	2024-11-08T16:00:00	5	Humedad	75
749	7	Sololá	701	Sololá	1	Sololá	1	Enero	2023-01-15T00:00:00	2024-11-08T16:00:00	6	Velocidad del viento	0
750	7	Sololá	701	Sololá	1	Sololá	1	Enero	2023-01-15T00:00:00	2024-11-08T16:00:00	7	Dirección del viento	0
751	7	Sololá	701	Sololá	1	Sololá	1	Enero	2023-01-15T00:00:00	2024-11-08T16:00:00	1	Precipitación	0
752	7	Sololá	701	Sololá	1	Sololá	1	Enero	2023-01-15T00:00:00	2024-11-08T16:00:00	8	Radiación solar	128
753	7	Sololá	701	Sololá	1	Sololá	1	Enero	2023-01-15T00:00:00	2024-11-08T17:00:00	2	Temperatura media	15.9
754	7	Sololá	701	Sololá	1	Sololá	1	Enero	2023-01-15T00:00:00	2024-11-08T17:00:00	4	Temperatura máxima	17.3
755	7	Sololá	701	Sololá	1	Sololá	1	Enero	2023-01-15T00:00:00	2024-11-08T17:00:00	3	Temperatura mínima	15.9
756	7	Sololá	701	Sololá	1	Sololá	1	Enero	2023-01-15T00:00:00	2024-11-08T17:00:00	5	Humedad	84
757	7	Sololá	701	Sololá	1	Sololá	1	Enero	2023-01-15T00:00:00	2024-11-08T17:00:00	6	Velocidad del viento	0
758	7	Sololá	701	Sololá	1	Sololá	1	Enero	2023-01-15T00:00:00	2024-11-08T17:00:00	7	Dirección del viento	0
759	7	Sololá	701	Sololá	1	Sololá	1	Enero	2023-01-15T00:00:00	2024-11-08T17:00:00	1	Precipitación	0
760	7	Sololá	701	Sololá	1	Sololá	1	Enero	2023-01-15T00:00:00	2024-11-08T17:00:00	8	Radiación solar	69
761	7	Sololá	701	Sololá	1	Sololá	1	Enero	2023-01-15T00:00:00	2024-11-08T18:00:00	2	Temperatura media	14.9
762	7	Sololá	701	Sololá	1	Sololá	1	Enero	2023-01-15T00:00:00	2024-11-08T18:00:00	4	Temperatura máxima	15.9
763	7	Sololá	701	Sololá	1	Sololá	1	Enero	2023-01-15T00:00:00	2024-11-08T18:00:00	3	Temperatura mínima	14.9
764	7	Sololá	701	Sololá	1	Sololá	1	Enero	2023-01-15T00:00:00	2024-11-08T18:00:00	5	Humedad	88
765	7	Sololá	701	Sololá	1	Sololá	1	Enero	2023-01-15T00:00:00	2024-11-08T18:00:00	6	Velocidad del viento	0
766	7	Sololá	701	Sololá	1	Sololá	1	Enero	2023-01-15T00:00:00	2024-11-08T18:00:00	7	Dirección del viento	0
767	7	Sololá	701	Sololá	1	Sololá	1	Enero	2023-01-15T00:00:00	2024-11-08T18:00:00	1	Precipitación	0
768	7	Sololá	701	Sololá	1	Sololá	1	Enero	2023-01-15T00:00:00	2024-11-08T18:00:00	8	Radiación solar	9
769	7	Sololá	701	Sololá	1	Sololá	1	Enero	2023-01-15T00:00:00	2024-11-08T19:00:00	2	Temperatura media	14.3
770	7	Sololá	701	Sololá	1	Sololá	1	Enero	2023-01-15T00:00:00	2024-11-08T19:00:00	4	Temperatura máxima	14.9
771	7	Sololá	701	Sololá	1	Sololá	1	Enero	2023-01-15T00:00:00	2024-11-08T19:00:00	3	Temperatura mínima	14.3
772	7	Sololá	701	Sololá	1	Sololá	1	Enero	2023-01-15T00:00:00	2024-11-08T19:00:00	5	Humedad	91
773	7	Sololá	701	Sololá	1	Sololá	1	Enero	2023-01-15T00:00:00	2024-11-08T19:00:00	6	Velocidad del viento	0
774	7	Sololá	701	Sololá	1	Sololá	1	Enero	2023-01-15T00:00:00	2024-11-08T19:00:00	7	Dirección del viento	0
775	7	Sololá	701	Sololá	1	Sololá	1	Enero	2023-01-15T00:00:00	2024-11-08T19:00:00	1	Precipitación	0
776	7	Sololá	701	Sololá	1	Sololá	1	Enero	2023-01-15T00:00:00	2024-11-08T19:00:00	8	Radiación solar	0
777	7	Sololá	701	Sololá	1	Sololá	1	Enero	2023-01-15T00:00:00	2024-11-08T20:00:00	2	Temperatura media	14.2
778	7	Sololá	701	Sololá	1	Sololá	1	Enero	2023-01-15T00:00:00	2024-11-08T20:00:00	4	Temperatura máxima	14.3
779	7	Sololá	701	Sololá	1	Sololá	1	Enero	2023-01-15T00:00:00	2024-11-08T20:00:00	3	Temperatura mínima	14.2
780	7	Sololá	701	Sololá	1	Sololá	1	Enero	2023-01-15T00:00:00	2024-11-08T20:00:00	5	Humedad	90
781	7	Sololá	701	Sololá	1	Sololá	1	Enero	2023-01-15T00:00:00	2024-11-08T20:00:00	6	Velocidad del viento	0
782	7	Sololá	701	Sololá	1	Sololá	1	Enero	2023-01-15T00:00:00	2024-11-08T20:00:00	7	Dirección del viento	0
783	7	Sololá	701	Sololá	1	Sololá	1	Enero	2023-01-15T00:00:00	2024-11-08T20:00:00	1	Precipitación	0
784	7	Sololá	701	Sololá	1	Sololá	1	Enero	2023-01-15T00:00:00	2024-11-08T20:00:00	8	Radiación solar	0
785	7	Sololá	701	Sololá	1	Sololá	1	Enero	2023-01-15T00:00:00	2024-11-08T21:00:00	2	Temperatura media	13.3
786	7	Sololá	701	Sololá	1	Sololá	1	Enero	2023-01-15T00:00:00	2024-11-08T21:00:00	4	Temperatura máxima	14.2
787	7	Sololá	701	Sololá	1	Sololá	1	Enero	2023-01-15T00:00:00	2024-11-08T21:00:00	3	Temperatura mínima	13.3
788	7	Sololá	701	Sololá	1	Sololá	1	Enero	2023-01-15T00:00:00	2024-11-08T21:00:00	5	Humedad	87
789	7	Sololá	701	Sololá	1	Sololá	1	Enero	2023-01-15T00:00:00	2024-11-08T21:00:00	6	Velocidad del viento	0
790	7	Sololá	701	Sololá	1	Sololá	1	Enero	2023-01-15T00:00:00	2024-11-08T21:00:00	7	Dirección del viento	0
791	7	Sololá	701	Sololá	1	Sololá	1	Enero	2023-01-15T00:00:00	2024-11-08T21:00:00	1	Precipitación	0
792	7	Sololá	701	Sololá	1	Sololá	1	Enero	2023-01-15T00:00:00	2024-11-08T21:00:00	8	Radiación solar	0
793	7	Sololá	701	Sololá	1	Sololá	1	Enero	2023-01-15T00:00:00	2024-11-08T22:00:00	2	Temperatura media	12.8
794	7	Sololá	701	Sololá	1	Sololá	1	Enero	2023-01-15T00:00:00	2024-11-08T22:00:00	4	Temperatura máxima	13.3
795	7	Sololá	701	Sololá	1	Sololá	1	Enero	2023-01-15T00:00:00	2024-11-08T22:00:00	3	Temperatura mínima	12.6
796	7	Sololá	701	Sololá	1	Sololá	1	Enero	2023-01-15T00:00:00	2024-11-08T22:00:00	5	Humedad	86
797	7	Sololá	701	Sololá	1	Sololá	1	Enero	2023-01-15T00:00:00	2024-11-08T22:00:00	6	Velocidad del viento	0
798	7	Sololá	701	Sololá	1	Sololá	1	Enero	2023-01-15T00:00:00	2024-11-08T22:00:00	7	Dirección del viento	0
799	7	Sololá	701	Sololá	1	Sololá	1	Enero	2023-01-15T00:00:00	2024-11-08T22:00:00	1	Precipitación	0
800	7	Sololá	701	Sololá	1	Sololá	1	Enero	2023-01-15T00:00:00	2024-11-08T22:00:00	8	Radiación solar	0
801	7	Sololá	701	Sololá	1	Sololá	1	Enero	2023-01-15T00:00:00	2024-11-08T23:00:00	2	Temperatura media	13.1
802	7	Sololá	701	Sololá	1	Sololá	1	Enero	2023-01-15T00:00:00	2024-11-08T23:00:00	4	Temperatura máxima	13.1
803	7	Sololá	701	Sololá	1	Sololá	1	Enero	2023-01-15T00:00:00	2024-11-08T23:00:00	3	Temperatura mínima	12.8
804	7	Sololá	701	Sololá	1	Sololá	1	Enero	2023-01-15T00:00:00	2024-11-08T23:00:00	5	Humedad	85
805	7	Sololá	701	Sololá	1	Sololá	1	Enero	2023-01-15T00:00:00	2024-11-08T23:00:00	6	Velocidad del viento	0
806	7	Sololá	701	Sololá	1	Sololá	1	Enero	2023-01-15T00:00:00	2024-11-08T23:00:00	7	Dirección del viento	0
807	7	Sololá	701	Sololá	1	Sololá	1	Enero	2023-01-15T00:00:00	2024-11-08T23:00:00	1	Precipitación	0
808	7	Sololá	701	Sololá	1	Sololá	1	Enero	2023-01-15T00:00:00	2024-11-08T23:00:00	8	Radiación solar	0
809	7	Sololá	701	Sololá	1	Sololá	1	Enero	2023-01-16T00:00:00	2024-11-08T00:00:00	2	Temperatura media	13.3
810	7	Sololá	701	Sololá	1	Sololá	1	Enero	2023-01-16T00:00:00	2024-11-08T00:00:00	4	Temperatura máxima	13.4
811	7	Sololá	701	Sololá	1	Sololá	1	Enero	2023-01-16T00:00:00	2024-11-08T00:00:00	3	Temperatura mínima	13.1
812	7	Sololá	701	Sololá	1	Sololá	1	Enero	2023-01-16T00:00:00	2024-11-08T00:00:00	5	Humedad	83
813	7	Sololá	701	Sololá	1	Sololá	1	Enero	2023-01-16T00:00:00	2024-11-08T00:00:00	6	Velocidad del viento	0
814	7	Sololá	701	Sololá	1	Sololá	1	Enero	2023-01-16T00:00:00	2024-11-08T00:00:00	7	Dirección del viento	0
815	7	Sololá	701	Sololá	1	Sololá	1	Enero	2023-01-16T00:00:00	2024-11-08T00:00:00	1	Precipitación	0
816	7	Sololá	701	Sololá	1	Sololá	1	Enero	2023-01-16T00:00:00	2024-11-08T00:00:00	8	Radiación solar	0
817	7	Sololá	701	Sololá	1	Sololá	1	Enero	2023-01-16T00:00:00	2024-11-08T01:00:00	2	Temperatura media	12.9
818	7	Sololá	701	Sololá	1	Sololá	1	Enero	2023-01-16T00:00:00	2024-11-08T01:00:00	4	Temperatura máxima	13.4
819	7	Sololá	701	Sololá	1	Sololá	1	Enero	2023-01-16T00:00:00	2024-11-08T01:00:00	3	Temperatura mínima	12.9
820	7	Sololá	701	Sololá	1	Sololá	1	Enero	2023-01-16T00:00:00	2024-11-08T01:00:00	5	Humedad	82
821	7	Sololá	701	Sololá	1	Sololá	1	Enero	2023-01-16T00:00:00	2024-11-08T01:00:00	6	Velocidad del viento	0
822	7	Sololá	701	Sololá	1	Sololá	1	Enero	2023-01-16T00:00:00	2024-11-08T01:00:00	7	Dirección del viento	0
823	7	Sololá	701	Sololá	1	Sololá	1	Enero	2023-01-16T00:00:00	2024-11-08T01:00:00	1	Precipitación	0
824	7	Sololá	701	Sololá	1	Sololá	1	Enero	2023-01-16T00:00:00	2024-11-08T01:00:00	8	Radiación solar	0
825	7	Sololá	701	Sololá	1	Sololá	1	Enero	2023-01-16T00:00:00	2024-11-08T02:00:00	2	Temperatura media	12.2
826	7	Sololá	701	Sololá	1	Sololá	1	Enero	2023-01-16T00:00:00	2024-11-08T02:00:00	4	Temperatura máxima	12.9
827	7	Sololá	701	Sololá	1	Sololá	1	Enero	2023-01-16T00:00:00	2024-11-08T02:00:00	3	Temperatura mínima	12.2
828	7	Sololá	701	Sololá	1	Sololá	1	Enero	2023-01-16T00:00:00	2024-11-08T02:00:00	5	Humedad	85
829	7	Sololá	701	Sololá	1	Sololá	1	Enero	2023-01-16T00:00:00	2024-11-08T02:00:00	6	Velocidad del viento	0
830	7	Sololá	701	Sololá	1	Sololá	1	Enero	2023-01-16T00:00:00	2024-11-08T02:00:00	7	Dirección del viento	0
831	7	Sololá	701	Sololá	1	Sololá	1	Enero	2023-01-16T00:00:00	2024-11-08T02:00:00	1	Precipitación	0
832	7	Sololá	701	Sololá	1	Sololá	1	Enero	2023-01-16T00:00:00	2024-11-08T02:00:00	8	Radiación solar	0
833	7	Sololá	701	Sololá	1	Sololá	1	Enero	2023-01-16T00:00:00	2024-11-08T03:00:00	2	Temperatura media	10.6
834	7	Sololá	701	Sololá	1	Sololá	1	Enero	2023-01-16T00:00:00	2024-11-08T03:00:00	4	Temperatura máxima	12.2
835	7	Sololá	701	Sololá	1	Sololá	1	Enero	2023-01-16T00:00:00	2024-11-08T03:00:00	3	Temperatura mínima	10.6
836	7	Sololá	701	Sololá	1	Sololá	1	Enero	2023-01-16T00:00:00	2024-11-08T03:00:00	5	Humedad	87
837	7	Sololá	701	Sololá	1	Sololá	1	Enero	2023-01-16T00:00:00	2024-11-08T03:00:00	6	Velocidad del viento	0
838	7	Sololá	701	Sololá	1	Sololá	1	Enero	2023-01-16T00:00:00	2024-11-08T03:00:00	7	Dirección del viento	0
839	7	Sololá	701	Sololá	1	Sololá	1	Enero	2023-01-16T00:00:00	2024-11-08T03:00:00	1	Precipitación	0
840	7	Sololá	701	Sololá	1	Sololá	1	Enero	2023-01-16T00:00:00	2024-11-08T03:00:00	8	Radiación solar	0
841	7	Sololá	701	Sololá	1	Sololá	1	Enero	2023-01-16T00:00:00	2024-11-08T04:00:00	2	Temperatura media	9.7
842	7	Sololá	701	Sololá	1	Sololá	1	Enero	2023-01-16T00:00:00	2024-11-08T04:00:00	4	Temperatura máxima	10.7
843	7	Sololá	701	Sololá	1	Sololá	1	Enero	2023-01-16T00:00:00	2024-11-08T04:00:00	3	Temperatura mínima	9.7
844	7	Sololá	701	Sololá	1	Sololá	1	Enero	2023-01-16T00:00:00	2024-11-08T04:00:00	5	Humedad	86
845	7	Sololá	701	Sololá	1	Sololá	1	Enero	2023-01-16T00:00:00	2024-11-08T04:00:00	6	Velocidad del viento	1.6
846	7	Sololá	701	Sololá	1	Sololá	1	Enero	2023-01-16T00:00:00	2024-11-08T04:00:00	7	Dirección del viento	1.61
847	7	Sololá	701	Sololá	1	Sololá	1	Enero	2023-01-16T00:00:00	2024-11-08T04:00:00	1	Precipitación	0
848	7	Sololá	701	Sololá	1	Sololá	1	Enero	2023-01-16T00:00:00	2024-11-08T04:00:00	8	Radiación solar	0
849	7	Sololá	701	Sololá	1	Sololá	1	Enero	2023-01-16T00:00:00	2024-11-08T05:00:00	2	Temperatura media	9.6
850	7	Sololá	701	Sololá	1	Sololá	1	Enero	2023-01-16T00:00:00	2024-11-08T05:00:00	4	Temperatura máxima	9.9
851	7	Sololá	701	Sololá	1	Sololá	1	Enero	2023-01-16T00:00:00	2024-11-08T05:00:00	3	Temperatura mínima	9.6
852	7	Sololá	701	Sololá	1	Sololá	1	Enero	2023-01-16T00:00:00	2024-11-08T05:00:00	5	Humedad	86
853	7	Sololá	701	Sololá	1	Sololá	1	Enero	2023-01-16T00:00:00	2024-11-08T05:00:00	6	Velocidad del viento	1.6
854	7	Sololá	701	Sololá	1	Sololá	1	Enero	2023-01-16T00:00:00	2024-11-08T05:00:00	7	Dirección del viento	1.61
855	7	Sololá	701	Sololá	1	Sololá	1	Enero	2023-01-16T00:00:00	2024-11-08T05:00:00	1	Precipitación	0
856	7	Sololá	701	Sololá	1	Sololá	1	Enero	2023-01-16T00:00:00	2024-11-08T05:00:00	8	Radiación solar	0
857	7	Sololá	701	Sololá	1	Sololá	1	Enero	2023-01-16T00:00:00	2024-11-08T06:00:00	2	Temperatura media	9.2
858	7	Sololá	701	Sololá	1	Sololá	1	Enero	2023-01-16T00:00:00	2024-11-08T06:00:00	4	Temperatura máxima	9.6
859	7	Sololá	701	Sololá	1	Sololá	1	Enero	2023-01-16T00:00:00	2024-11-08T06:00:00	3	Temperatura mínima	9.2
860	7	Sololá	701	Sololá	1	Sololá	1	Enero	2023-01-16T00:00:00	2024-11-08T06:00:00	5	Humedad	86
861	7	Sololá	701	Sololá	1	Sololá	1	Enero	2023-01-16T00:00:00	2024-11-08T06:00:00	6	Velocidad del viento	1.6
862	7	Sololá	701	Sololá	1	Sololá	1	Enero	2023-01-16T00:00:00	2024-11-08T06:00:00	7	Dirección del viento	1.61
863	7	Sololá	701	Sololá	1	Sololá	1	Enero	2023-01-16T00:00:00	2024-11-08T06:00:00	1	Precipitación	0
864	7	Sololá	701	Sololá	1	Sololá	1	Enero	2023-01-16T00:00:00	2024-11-08T06:00:00	8	Radiación solar	0
865	7	Sololá	701	Sololá	1	Sololá	1	Enero	2023-01-16T00:00:00	2024-11-08T07:00:00	2	Temperatura media	8.8
866	7	Sololá	701	Sololá	1	Sololá	1	Enero	2023-01-16T00:00:00	2024-11-08T07:00:00	4	Temperatura máxima	9.3
867	7	Sololá	701	Sololá	1	Sololá	1	Enero	2023-01-16T00:00:00	2024-11-08T07:00:00	3	Temperatura mínima	8.8
868	7	Sololá	701	Sololá	1	Sololá	1	Enero	2023-01-16T00:00:00	2024-11-08T07:00:00	5	Humedad	85
869	7	Sololá	701	Sololá	1	Sololá	1	Enero	2023-01-16T00:00:00	2024-11-08T07:00:00	6	Velocidad del viento	1.6
870	7	Sololá	701	Sololá	1	Sololá	1	Enero	2023-01-16T00:00:00	2024-11-08T07:00:00	7	Dirección del viento	1.61
871	7	Sololá	701	Sololá	1	Sololá	1	Enero	2023-01-16T00:00:00	2024-11-08T07:00:00	1	Precipitación	0
872	7	Sololá	701	Sololá	1	Sololá	1	Enero	2023-01-16T00:00:00	2024-11-08T07:00:00	8	Radiación solar	5
873	7	Sololá	701	Sololá	1	Sololá	1	Enero	2023-01-16T00:00:00	2024-11-08T08:00:00	2	Temperatura media	11.3
874	7	Sololá	701	Sololá	1	Sololá	1	Enero	2023-01-16T00:00:00	2024-11-08T08:00:00	4	Temperatura máxima	11.3
875	7	Sololá	701	Sololá	1	Sololá	1	Enero	2023-01-16T00:00:00	2024-11-08T08:00:00	3	Temperatura mínima	8.8
876	7	Sololá	701	Sololá	1	Sololá	1	Enero	2023-01-16T00:00:00	2024-11-08T08:00:00	5	Humedad	81
877	7	Sololá	701	Sololá	1	Sololá	1	Enero	2023-01-16T00:00:00	2024-11-08T08:00:00	6	Velocidad del viento	0
878	7	Sololá	701	Sololá	1	Sololá	1	Enero	2023-01-16T00:00:00	2024-11-08T08:00:00	7	Dirección del viento	0
879	7	Sololá	701	Sololá	1	Sololá	1	Enero	2023-01-16T00:00:00	2024-11-08T08:00:00	1	Precipitación	0
880	7	Sololá	701	Sololá	1	Sololá	1	Enero	2023-01-16T00:00:00	2024-11-08T08:00:00	8	Radiación solar	31
881	7	Sololá	701	Sololá	1	Sololá	1	Enero	2023-01-16T00:00:00	2024-11-08T09:00:00	2	Temperatura media	16.7
882	7	Sololá	701	Sololá	1	Sololá	1	Enero	2023-01-16T00:00:00	2024-11-08T09:00:00	4	Temperatura máxima	16.7
883	7	Sololá	701	Sololá	1	Sololá	1	Enero	2023-01-16T00:00:00	2024-11-08T09:00:00	3	Temperatura mínima	11.3
884	7	Sololá	701	Sololá	1	Sololá	1	Enero	2023-01-16T00:00:00	2024-11-08T09:00:00	5	Humedad	64
885	7	Sololá	701	Sololá	1	Sololá	1	Enero	2023-01-16T00:00:00	2024-11-08T09:00:00	6	Velocidad del viento	0
886	7	Sololá	701	Sololá	1	Sololá	1	Enero	2023-01-16T00:00:00	2024-11-08T09:00:00	7	Dirección del viento	0
887	7	Sololá	701	Sololá	1	Sololá	1	Enero	2023-01-16T00:00:00	2024-11-08T09:00:00	1	Precipitación	0
888	7	Sololá	701	Sololá	1	Sololá	1	Enero	2023-01-16T00:00:00	2024-11-08T09:00:00	8	Radiación solar	375
889	7	Sololá	701	Sololá	1	Sololá	1	Enero	2023-01-16T00:00:00	2024-11-08T10:00:00	2	Temperatura media	18.4
890	7	Sololá	701	Sololá	1	Sololá	1	Enero	2023-01-16T00:00:00	2024-11-08T10:00:00	4	Temperatura máxima	18.4
891	7	Sololá	701	Sololá	1	Sololá	1	Enero	2023-01-16T00:00:00	2024-11-08T10:00:00	3	Temperatura mínima	16.7
892	7	Sololá	701	Sololá	1	Sololá	1	Enero	2023-01-16T00:00:00	2024-11-08T10:00:00	5	Humedad	64
893	7	Sololá	701	Sololá	1	Sololá	1	Enero	2023-01-16T00:00:00	2024-11-08T10:00:00	6	Velocidad del viento	0
894	7	Sololá	701	Sololá	1	Sololá	1	Enero	2023-01-16T00:00:00	2024-11-08T10:00:00	7	Dirección del viento	0
895	7	Sololá	701	Sololá	1	Sololá	1	Enero	2023-01-16T00:00:00	2024-11-08T10:00:00	1	Precipitación	0
896	7	Sololá	701	Sololá	1	Sololá	1	Enero	2023-01-16T00:00:00	2024-11-08T10:00:00	8	Radiación solar	620
897	7	Sololá	701	Sololá	1	Sololá	1	Enero	2023-01-16T00:00:00	2024-11-08T11:00:00	2	Temperatura media	19.3
898	7	Sololá	701	Sololá	1	Sololá	1	Enero	2023-01-16T00:00:00	2024-11-08T11:00:00	4	Temperatura máxima	19.4
899	7	Sololá	701	Sololá	1	Sololá	1	Enero	2023-01-16T00:00:00	2024-11-08T11:00:00	3	Temperatura mínima	18.4
900	7	Sololá	701	Sololá	1	Sololá	1	Enero	2023-01-16T00:00:00	2024-11-08T11:00:00	5	Humedad	60
901	7	Sololá	701	Sololá	1	Sololá	1	Enero	2023-01-16T00:00:00	2024-11-08T11:00:00	6	Velocidad del viento	0
902	7	Sololá	701	Sololá	1	Sololá	1	Enero	2023-01-16T00:00:00	2024-11-08T11:00:00	7	Dirección del viento	0
903	7	Sololá	701	Sololá	1	Sololá	1	Enero	2023-01-16T00:00:00	2024-11-08T11:00:00	1	Precipitación	0
904	7	Sololá	701	Sololá	1	Sololá	1	Enero	2023-01-16T00:00:00	2024-11-08T11:00:00	8	Radiación solar	755
905	7	Sololá	701	Sololá	1	Sololá	1	Enero	2023-01-16T00:00:00	2024-11-08T12:00:00	2	Temperatura media	21.4
906	7	Sololá	701	Sololá	1	Sololá	1	Enero	2023-01-16T00:00:00	2024-11-08T12:00:00	4	Temperatura máxima	21.4
907	7	Sololá	701	Sololá	1	Sololá	1	Enero	2023-01-16T00:00:00	2024-11-08T12:00:00	3	Temperatura mínima	19.2
908	7	Sololá	701	Sololá	1	Sololá	1	Enero	2023-01-16T00:00:00	2024-11-08T12:00:00	5	Humedad	53
909	7	Sololá	701	Sololá	1	Sololá	1	Enero	2023-01-16T00:00:00	2024-11-08T12:00:00	6	Velocidad del viento	0
910	7	Sololá	701	Sololá	1	Sololá	1	Enero	2023-01-16T00:00:00	2024-11-08T12:00:00	7	Dirección del viento	0
911	7	Sololá	701	Sololá	1	Sololá	1	Enero	2023-01-16T00:00:00	2024-11-08T12:00:00	1	Precipitación	0
912	7	Sololá	701	Sololá	1	Sololá	1	Enero	2023-01-16T00:00:00	2024-11-08T12:00:00	8	Radiación solar	825
913	7	Sololá	701	Sololá	1	Sololá	1	Enero	2023-01-16T00:00:00	2024-11-08T13:00:00	2	Temperatura media	21.2
914	7	Sololá	701	Sololá	1	Sololá	1	Enero	2023-01-16T00:00:00	2024-11-08T13:00:00	4	Temperatura máxima	21.5
915	7	Sololá	701	Sololá	1	Sololá	1	Enero	2023-01-16T00:00:00	2024-11-08T13:00:00	3	Temperatura mínima	21.2
916	7	Sololá	701	Sololá	1	Sololá	1	Enero	2023-01-16T00:00:00	2024-11-08T13:00:00	5	Humedad	61
917	7	Sololá	701	Sololá	1	Sololá	1	Enero	2023-01-16T00:00:00	2024-11-08T13:00:00	6	Velocidad del viento	0
918	7	Sololá	701	Sololá	1	Sololá	1	Enero	2023-01-16T00:00:00	2024-11-08T13:00:00	7	Dirección del viento	0
919	7	Sololá	701	Sololá	1	Sololá	1	Enero	2023-01-16T00:00:00	2024-11-08T13:00:00	1	Precipitación	0
920	7	Sololá	701	Sololá	1	Sololá	1	Enero	2023-01-16T00:00:00	2024-11-08T13:00:00	8	Radiación solar	816
921	7	Sololá	701	Sololá	1	Sololá	1	Enero	2023-01-16T00:00:00	2024-11-08T14:00:00	2	Temperatura media	19.4
922	7	Sololá	701	Sololá	1	Sololá	1	Enero	2023-01-16T00:00:00	2024-11-08T14:00:00	4	Temperatura máxima	21.2
923	7	Sololá	701	Sololá	1	Sololá	1	Enero	2023-01-16T00:00:00	2024-11-08T14:00:00	3	Temperatura mínima	19.4
924	7	Sololá	701	Sololá	1	Sololá	1	Enero	2023-01-16T00:00:00	2024-11-08T14:00:00	5	Humedad	72
925	7	Sololá	701	Sololá	1	Sololá	1	Enero	2023-01-16T00:00:00	2024-11-08T14:00:00	6	Velocidad del viento	0
926	7	Sololá	701	Sololá	1	Sololá	1	Enero	2023-01-16T00:00:00	2024-11-08T14:00:00	7	Dirección del viento	0
927	7	Sololá	701	Sololá	1	Sololá	1	Enero	2023-01-16T00:00:00	2024-11-08T14:00:00	1	Precipitación	0
928	7	Sololá	701	Sololá	1	Sololá	1	Enero	2023-01-16T00:00:00	2024-11-08T14:00:00	8	Radiación solar	212
929	7	Sololá	701	Sololá	1	Sololá	1	Enero	2023-01-16T00:00:00	2024-11-08T15:00:00	2	Temperatura media	18.2
930	7	Sololá	701	Sololá	1	Sololá	1	Enero	2023-01-16T00:00:00	2024-11-08T15:00:00	4	Temperatura máxima	19.4
931	7	Sololá	701	Sololá	1	Sololá	1	Enero	2023-01-16T00:00:00	2024-11-08T15:00:00	3	Temperatura mínima	17.4
932	7	Sololá	701	Sololá	1	Sololá	1	Enero	2023-01-16T00:00:00	2024-11-08T15:00:00	5	Humedad	79
933	7	Sololá	701	Sololá	1	Sololá	1	Enero	2023-01-16T00:00:00	2024-11-08T15:00:00	6	Velocidad del viento	0
934	7	Sololá	701	Sololá	1	Sololá	1	Enero	2023-01-16T00:00:00	2024-11-08T15:00:00	7	Dirección del viento	0
935	7	Sololá	701	Sololá	1	Sololá	1	Enero	2023-01-16T00:00:00	2024-11-08T15:00:00	1	Precipitación	0
936	7	Sololá	701	Sololá	1	Sololá	1	Enero	2023-01-16T00:00:00	2024-11-08T15:00:00	8	Radiación solar	199
937	7	Sololá	701	Sololá	1	Sololá	1	Enero	2023-01-16T00:00:00	2024-11-08T16:00:00	2	Temperatura media	17.1
938	7	Sololá	701	Sololá	1	Sololá	1	Enero	2023-01-16T00:00:00	2024-11-08T16:00:00	4	Temperatura máxima	18.2
939	7	Sololá	701	Sololá	1	Sololá	1	Enero	2023-01-16T00:00:00	2024-11-08T16:00:00	3	Temperatura mínima	17.1
940	7	Sololá	701	Sololá	1	Sololá	1	Enero	2023-01-16T00:00:00	2024-11-08T16:00:00	5	Humedad	84
941	7	Sololá	701	Sololá	1	Sololá	1	Enero	2023-01-16T00:00:00	2024-11-08T16:00:00	6	Velocidad del viento	0
942	7	Sololá	701	Sololá	1	Sololá	1	Enero	2023-01-16T00:00:00	2024-11-08T16:00:00	7	Dirección del viento	0
943	7	Sololá	701	Sololá	1	Sololá	1	Enero	2023-01-16T00:00:00	2024-11-08T16:00:00	1	Precipitación	0
944	7	Sololá	701	Sololá	1	Sololá	1	Enero	2023-01-16T00:00:00	2024-11-08T16:00:00	8	Radiación solar	139
945	7	Sololá	701	Sololá	1	Sololá	1	Enero	2023-01-16T00:00:00	2024-11-08T17:00:00	2	Temperatura media	15.9
946	7	Sololá	701	Sololá	1	Sololá	1	Enero	2023-01-16T00:00:00	2024-11-08T17:00:00	4	Temperatura máxima	17.1
947	7	Sololá	701	Sololá	1	Sololá	1	Enero	2023-01-16T00:00:00	2024-11-08T17:00:00	3	Temperatura mínima	15.9
948	7	Sololá	701	Sololá	1	Sololá	1	Enero	2023-01-16T00:00:00	2024-11-08T17:00:00	5	Humedad	88
949	7	Sololá	701	Sololá	1	Sololá	1	Enero	2023-01-16T00:00:00	2024-11-08T17:00:00	6	Velocidad del viento	0
950	7	Sololá	701	Sololá	1	Sololá	1	Enero	2023-01-16T00:00:00	2024-11-08T17:00:00	7	Dirección del viento	0
951	7	Sololá	701	Sololá	1	Sololá	1	Enero	2023-01-16T00:00:00	2024-11-08T17:00:00	1	Precipitación	0
952	7	Sololá	701	Sololá	1	Sololá	1	Enero	2023-01-16T00:00:00	2024-11-08T17:00:00	8	Radiación solar	49
953	7	Sololá	701	Sololá	1	Sololá	1	Enero	2023-01-16T00:00:00	2024-11-08T18:00:00	2	Temperatura media	15.1
954	7	Sololá	701	Sololá	1	Sololá	1	Enero	2023-01-16T00:00:00	2024-11-08T18:00:00	4	Temperatura máxima	15.9
955	7	Sololá	701	Sololá	1	Sololá	1	Enero	2023-01-16T00:00:00	2024-11-08T18:00:00	3	Temperatura mínima	15.1
956	7	Sololá	701	Sololá	1	Sololá	1	Enero	2023-01-16T00:00:00	2024-11-08T18:00:00	5	Humedad	91
957	7	Sololá	701	Sololá	1	Sololá	1	Enero	2023-01-16T00:00:00	2024-11-08T18:00:00	6	Velocidad del viento	0
958	7	Sololá	701	Sololá	1	Sololá	1	Enero	2023-01-16T00:00:00	2024-11-08T18:00:00	7	Dirección del viento	0
959	7	Sololá	701	Sololá	1	Sololá	1	Enero	2023-01-16T00:00:00	2024-11-08T18:00:00	1	Precipitación	0
960	7	Sololá	701	Sololá	1	Sololá	1	Enero	2023-01-16T00:00:00	2024-11-08T18:00:00	8	Radiación solar	3
961	7	Sololá	701	Sololá	1	Sololá	1	Enero	2023-01-16T00:00:00	2024-11-08T19:00:00	2	Temperatura media	14.5
962	7	Sololá	701	Sololá	1	Sololá	1	Enero	2023-01-16T00:00:00	2024-11-08T19:00:00	4	Temperatura máxima	15.1
963	7	Sololá	701	Sololá	1	Sololá	1	Enero	2023-01-16T00:00:00	2024-11-08T19:00:00	3	Temperatura mínima	14.5
964	7	Sololá	701	Sololá	1	Sololá	1	Enero	2023-01-16T00:00:00	2024-11-08T19:00:00	5	Humedad	93
965	7	Sololá	701	Sololá	1	Sololá	1	Enero	2023-01-16T00:00:00	2024-11-08T19:00:00	6	Velocidad del viento	0
966	7	Sololá	701	Sololá	1	Sololá	1	Enero	2023-01-16T00:00:00	2024-11-08T19:00:00	7	Dirección del viento	0
967	7	Sololá	701	Sololá	1	Sololá	1	Enero	2023-01-16T00:00:00	2024-11-08T19:00:00	1	Precipitación	0
968	7	Sololá	701	Sololá	1	Sololá	1	Enero	2023-01-16T00:00:00	2024-11-08T19:00:00	8	Radiación solar	0
969	7	Sololá	701	Sololá	1	Sololá	1	Enero	2023-01-16T00:00:00	2024-11-08T20:00:00	2	Temperatura media	14.5
970	7	Sololá	701	Sololá	1	Sololá	1	Enero	2023-01-16T00:00:00	2024-11-08T20:00:00	4	Temperatura máxima	14.6
971	7	Sololá	701	Sololá	1	Sololá	1	Enero	2023-01-16T00:00:00	2024-11-08T20:00:00	3	Temperatura mínima	14.4
972	7	Sololá	701	Sololá	1	Sololá	1	Enero	2023-01-16T00:00:00	2024-11-08T20:00:00	5	Humedad	92
973	7	Sololá	701	Sololá	1	Sololá	1	Enero	2023-01-16T00:00:00	2024-11-08T20:00:00	6	Velocidad del viento	0
974	7	Sololá	701	Sololá	1	Sololá	1	Enero	2023-01-16T00:00:00	2024-11-08T20:00:00	7	Dirección del viento	0
975	7	Sololá	701	Sololá	1	Sololá	1	Enero	2023-01-16T00:00:00	2024-11-08T20:00:00	1	Precipitación	0
976	7	Sololá	701	Sololá	1	Sololá	1	Enero	2023-01-16T00:00:00	2024-11-08T20:00:00	8	Radiación solar	0
977	7	Sololá	701	Sololá	1	Sololá	1	Enero	2023-01-16T00:00:00	2024-11-08T21:00:00	2	Temperatura media	13.8
978	7	Sololá	701	Sololá	1	Sololá	1	Enero	2023-01-16T00:00:00	2024-11-08T21:00:00	4	Temperatura máxima	14.6
979	7	Sololá	701	Sololá	1	Sololá	1	Enero	2023-01-16T00:00:00	2024-11-08T21:00:00	3	Temperatura mínima	13.8
980	7	Sololá	701	Sololá	1	Sololá	1	Enero	2023-01-16T00:00:00	2024-11-08T21:00:00	5	Humedad	90
981	7	Sololá	701	Sololá	1	Sololá	1	Enero	2023-01-16T00:00:00	2024-11-08T21:00:00	6	Velocidad del viento	0
982	7	Sololá	701	Sololá	1	Sololá	1	Enero	2023-01-16T00:00:00	2024-11-08T21:00:00	7	Dirección del viento	0
983	7	Sololá	701	Sololá	1	Sololá	1	Enero	2023-01-16T00:00:00	2024-11-08T21:00:00	1	Precipitación	0
984	7	Sololá	701	Sololá	1	Sololá	1	Enero	2023-01-16T00:00:00	2024-11-08T21:00:00	8	Radiación solar	0
985	7	Sololá	701	Sololá	1	Sololá	1	Enero	2023-01-16T00:00:00	2024-11-08T22:00:00	2	Temperatura media	12.4
986	7	Sololá	701	Sololá	1	Sololá	1	Enero	2023-01-16T00:00:00	2024-11-08T22:00:00	4	Temperatura máxima	13.8
987	7	Sololá	701	Sololá	1	Sololá	1	Enero	2023-01-16T00:00:00	2024-11-08T22:00:00	3	Temperatura mínima	12.4
988	7	Sololá	701	Sololá	1	Sololá	1	Enero	2023-01-16T00:00:00	2024-11-08T22:00:00	5	Humedad	91
989	7	Sololá	701	Sololá	1	Sololá	1	Enero	2023-01-16T00:00:00	2024-11-08T22:00:00	6	Velocidad del viento	0
990	7	Sololá	701	Sololá	1	Sololá	1	Enero	2023-01-16T00:00:00	2024-11-08T22:00:00	7	Dirección del viento	0
991	7	Sololá	701	Sololá	1	Sololá	1	Enero	2023-01-16T00:00:00	2024-11-08T22:00:00	1	Precipitación	0
992	7	Sololá	701	Sololá	1	Sololá	1	Enero	2023-01-16T00:00:00	2024-11-08T22:00:00	8	Radiación solar	0
993	7	Sololá	701	Sololá	1	Sololá	1	Enero	2023-01-16T00:00:00	2024-11-08T23:00:00	2	Temperatura media	11.6
994	7	Sololá	701	Sololá	1	Sololá	1	Enero	2023-01-16T00:00:00	2024-11-08T23:00:00	4	Temperatura máxima	12.4
995	7	Sololá	701	Sololá	1	Sololá	1	Enero	2023-01-16T00:00:00	2024-11-08T23:00:00	3	Temperatura mínima	11.6
996	7	Sololá	701	Sololá	1	Sololá	1	Enero	2023-01-16T00:00:00	2024-11-08T23:00:00	5	Humedad	89
997	7	Sololá	701	Sololá	1	Sololá	1	Enero	2023-01-16T00:00:00	2024-11-08T23:00:00	6	Velocidad del viento	0
998	7	Sololá	701	Sololá	1	Sololá	1	Enero	2023-01-16T00:00:00	2024-11-08T23:00:00	7	Dirección del viento	0
999	7	Sololá	701	Sololá	1	Sololá	1	Enero	2023-01-16T00:00:00	2024-11-08T23:00:00	1	Precipitación	0
1000	7	Sololá	701	Sololá	1	Sololá	1	Enero	2023-01-16T00:00:00	2024-11-08T23:00:00	8	Radiación solar	0
1001	7	Sololá	701	Sololá	1	Sololá	1	Enero	2023-01-17T00:00:00	2024-11-08T00:00:00	2	Temperatura media	12.2
1002	7	Sololá	701	Sololá	1	Sololá	1	Enero	2023-01-17T00:00:00	2024-11-08T00:00:00	4	Temperatura máxima	12.2
1003	7	Sololá	701	Sololá	1	Sololá	1	Enero	2023-01-17T00:00:00	2024-11-08T00:00:00	3	Temperatura mínima	11.6
1004	7	Sololá	701	Sololá	1	Sololá	1	Enero	2023-01-17T00:00:00	2024-11-08T00:00:00	5	Humedad	90
1005	7	Sololá	701	Sololá	1	Sololá	1	Enero	2023-01-17T00:00:00	2024-11-08T00:00:00	6	Velocidad del viento	0
1006	7	Sololá	701	Sololá	1	Sololá	1	Enero	2023-01-17T00:00:00	2024-11-08T00:00:00	7	Dirección del viento	0
1007	7	Sololá	701	Sololá	1	Sololá	1	Enero	2023-01-17T00:00:00	2024-11-08T00:00:00	1	Precipitación	0
1008	7	Sololá	701	Sololá	1	Sololá	1	Enero	2023-01-17T00:00:00	2024-11-08T00:00:00	8	Radiación solar	0
1009	7	Sololá	701	Sololá	1	Sololá	1	Enero	2023-01-17T00:00:00	2024-11-08T01:00:00	2	Temperatura media	12.6
1010	7	Sololá	701	Sololá	1	Sololá	1	Enero	2023-01-17T00:00:00	2024-11-08T01:00:00	4	Temperatura máxima	12.6
1011	7	Sololá	701	Sololá	1	Sololá	1	Enero	2023-01-17T00:00:00	2024-11-08T01:00:00	3	Temperatura mínima	12.2
1012	7	Sololá	701	Sololá	1	Sololá	1	Enero	2023-01-17T00:00:00	2024-11-08T01:00:00	5	Humedad	87
1013	7	Sololá	701	Sololá	1	Sololá	1	Enero	2023-01-17T00:00:00	2024-11-08T01:00:00	6	Velocidad del viento	0
1014	7	Sololá	701	Sololá	1	Sololá	1	Enero	2023-01-17T00:00:00	2024-11-08T01:00:00	7	Dirección del viento	0
1015	7	Sololá	701	Sololá	1	Sololá	1	Enero	2023-01-17T00:00:00	2024-11-08T01:00:00	1	Precipitación	0
1016	7	Sololá	701	Sololá	1	Sololá	1	Enero	2023-01-17T00:00:00	2024-11-08T01:00:00	8	Radiación solar	0
1017	7	Sololá	701	Sololá	1	Sololá	1	Enero	2023-01-17T00:00:00	2024-11-08T02:00:00	2	Temperatura media	12.8
1018	7	Sololá	701	Sololá	1	Sololá	1	Enero	2023-01-17T00:00:00	2024-11-08T02:00:00	4	Temperatura máxima	12.8
1019	7	Sololá	701	Sololá	1	Sololá	1	Enero	2023-01-17T00:00:00	2024-11-08T02:00:00	3	Temperatura mínima	12.5
1020	7	Sololá	701	Sololá	1	Sololá	1	Enero	2023-01-17T00:00:00	2024-11-08T02:00:00	5	Humedad	88
1021	7	Sololá	701	Sololá	1	Sololá	1	Enero	2023-01-17T00:00:00	2024-11-08T02:00:00	6	Velocidad del viento	0
1022	7	Sololá	701	Sololá	1	Sololá	1	Enero	2023-01-17T00:00:00	2024-11-08T02:00:00	7	Dirección del viento	0
1023	7	Sololá	701	Sololá	1	Sololá	1	Enero	2023-01-17T00:00:00	2024-11-08T02:00:00	1	Precipitación	0
1024	7	Sololá	701	Sololá	1	Sololá	1	Enero	2023-01-17T00:00:00	2024-11-08T02:00:00	8	Radiación solar	0
1025	7	Sololá	701	Sololá	1	Sololá	1	Enero	2023-01-17T00:00:00	2024-11-08T03:00:00	2	Temperatura media	12.2
1026	7	Sololá	701	Sololá	1	Sololá	1	Enero	2023-01-17T00:00:00	2024-11-08T03:00:00	4	Temperatura máxima	12.8
1027	7	Sololá	701	Sololá	1	Sololá	1	Enero	2023-01-17T00:00:00	2024-11-08T03:00:00	3	Temperatura mínima	12.2
1028	7	Sololá	701	Sololá	1	Sololá	1	Enero	2023-01-17T00:00:00	2024-11-08T03:00:00	5	Humedad	87
1029	7	Sololá	701	Sololá	1	Sololá	1	Enero	2023-01-17T00:00:00	2024-11-08T03:00:00	6	Velocidad del viento	0
1030	7	Sololá	701	Sololá	1	Sololá	1	Enero	2023-01-17T00:00:00	2024-11-08T03:00:00	7	Dirección del viento	0
1031	7	Sololá	701	Sololá	1	Sololá	1	Enero	2023-01-17T00:00:00	2024-11-08T03:00:00	1	Precipitación	0
1032	7	Sololá	701	Sololá	1	Sololá	1	Enero	2023-01-17T00:00:00	2024-11-08T03:00:00	8	Radiación solar	0
1033	7	Sololá	701	Sololá	1	Sololá	1	Enero	2023-01-17T00:00:00	2024-11-08T04:00:00	2	Temperatura media	11.1
1034	7	Sololá	701	Sololá	1	Sololá	1	Enero	2023-01-17T00:00:00	2024-11-08T04:00:00	4	Temperatura máxima	12.2
1035	7	Sololá	701	Sololá	1	Sololá	1	Enero	2023-01-17T00:00:00	2024-11-08T04:00:00	3	Temperatura mínima	11.1
1036	7	Sololá	701	Sololá	1	Sololá	1	Enero	2023-01-17T00:00:00	2024-11-08T04:00:00	5	Humedad	88
1037	7	Sololá	701	Sololá	1	Sololá	1	Enero	2023-01-17T00:00:00	2024-11-08T04:00:00	6	Velocidad del viento	0
1038	7	Sololá	701	Sololá	1	Sololá	1	Enero	2023-01-17T00:00:00	2024-11-08T04:00:00	7	Dirección del viento	0
1039	7	Sololá	701	Sololá	1	Sololá	1	Enero	2023-01-17T00:00:00	2024-11-08T04:00:00	1	Precipitación	0
1040	7	Sololá	701	Sololá	1	Sololá	1	Enero	2023-01-17T00:00:00	2024-11-08T04:00:00	8	Radiación solar	0
1041	7	Sololá	701	Sololá	1	Sololá	1	Enero	2023-01-17T00:00:00	2024-11-08T05:00:00	2	Temperatura media	9.8
1042	7	Sololá	701	Sololá	1	Sololá	1	Enero	2023-01-17T00:00:00	2024-11-08T05:00:00	4	Temperatura máxima	11.1
1043	7	Sololá	701	Sololá	1	Sololá	1	Enero	2023-01-17T00:00:00	2024-11-08T05:00:00	3	Temperatura mínima	9.8
1044	7	Sololá	701	Sololá	1	Sololá	1	Enero	2023-01-17T00:00:00	2024-11-08T05:00:00	5	Humedad	86
1045	7	Sololá	701	Sololá	1	Sololá	1	Enero	2023-01-17T00:00:00	2024-11-08T05:00:00	6	Velocidad del viento	0
1046	7	Sololá	701	Sololá	1	Sololá	1	Enero	2023-01-17T00:00:00	2024-11-08T05:00:00	7	Dirección del viento	0
1047	7	Sololá	701	Sololá	1	Sololá	1	Enero	2023-01-17T00:00:00	2024-11-08T05:00:00	1	Precipitación	0
1048	7	Sololá	701	Sololá	1	Sololá	1	Enero	2023-01-17T00:00:00	2024-11-08T05:00:00	8	Radiación solar	0
1049	7	Sololá	701	Sololá	1	Sololá	1	Enero	2023-01-17T00:00:00	2024-11-08T06:00:00	2	Temperatura media	9.9
1050	7	Sololá	701	Sololá	1	Sololá	1	Enero	2023-01-17T00:00:00	2024-11-08T06:00:00	4	Temperatura máxima	9.9
1051	7	Sololá	701	Sololá	1	Sololá	1	Enero	2023-01-17T00:00:00	2024-11-08T06:00:00	3	Temperatura mínima	8.9
1052	7	Sololá	701	Sololá	1	Sololá	1	Enero	2023-01-17T00:00:00	2024-11-08T06:00:00	5	Humedad	88
1053	7	Sololá	701	Sololá	1	Sololá	1	Enero	2023-01-17T00:00:00	2024-11-08T06:00:00	6	Velocidad del viento	0
1054	7	Sololá	701	Sololá	1	Sololá	1	Enero	2023-01-17T00:00:00	2024-11-08T06:00:00	7	Dirección del viento	0
1055	7	Sololá	701	Sololá	1	Sololá	1	Enero	2023-01-17T00:00:00	2024-11-08T06:00:00	1	Precipitación	0
1056	7	Sololá	701	Sololá	1	Sololá	1	Enero	2023-01-17T00:00:00	2024-11-08T06:00:00	8	Radiación solar	0
1057	7	Sololá	701	Sololá	1	Sololá	1	Enero	2023-01-17T00:00:00	2024-11-08T07:00:00	2	Temperatura media	10.5
1058	7	Sololá	701	Sololá	1	Sololá	1	Enero	2023-01-17T00:00:00	2024-11-08T07:00:00	4	Temperatura máxima	10.5
1059	7	Sololá	701	Sololá	1	Sololá	1	Enero	2023-01-17T00:00:00	2024-11-08T07:00:00	3	Temperatura mínima	9.8
1060	7	Sololá	701	Sololá	1	Sololá	1	Enero	2023-01-17T00:00:00	2024-11-08T07:00:00	5	Humedad	83
1061	7	Sololá	701	Sololá	1	Sololá	1	Enero	2023-01-17T00:00:00	2024-11-08T07:00:00	6	Velocidad del viento	1.6
1062	7	Sololá	701	Sololá	1	Sololá	1	Enero	2023-01-17T00:00:00	2024-11-08T07:00:00	7	Dirección del viento	1.61
1063	7	Sololá	701	Sololá	1	Sololá	1	Enero	2023-01-17T00:00:00	2024-11-08T07:00:00	1	Precipitación	0
1064	7	Sololá	701	Sololá	1	Sololá	1	Enero	2023-01-17T00:00:00	2024-11-08T07:00:00	8	Radiación solar	4
1065	7	Sololá	701	Sololá	1	Sololá	1	Enero	2023-01-17T00:00:00	2024-11-08T08:00:00	2	Temperatura media	12.1
1066	7	Sololá	701	Sololá	1	Sololá	1	Enero	2023-01-17T00:00:00	2024-11-08T08:00:00	4	Temperatura máxima	12.1
1067	7	Sololá	701	Sololá	1	Sololá	1	Enero	2023-01-17T00:00:00	2024-11-08T08:00:00	3	Temperatura mínima	10.5
1068	7	Sololá	701	Sololá	1	Sololá	1	Enero	2023-01-17T00:00:00	2024-11-08T08:00:00	5	Humedad	82
1069	7	Sololá	701	Sololá	1	Sololá	1	Enero	2023-01-17T00:00:00	2024-11-08T08:00:00	6	Velocidad del viento	1.6
1070	7	Sololá	701	Sololá	1	Sololá	1	Enero	2023-01-17T00:00:00	2024-11-08T08:00:00	7	Dirección del viento	1.61
1071	7	Sololá	701	Sololá	1	Sololá	1	Enero	2023-01-17T00:00:00	2024-11-08T08:00:00	1	Precipitación	0
1072	7	Sololá	701	Sololá	1	Sololá	1	Enero	2023-01-17T00:00:00	2024-11-08T08:00:00	8	Radiación solar	34
1073	7	Sololá	701	Sololá	1	Sololá	1	Enero	2023-01-17T00:00:00	2024-11-08T09:00:00	2	Temperatura media	16.8
1074	7	Sololá	701	Sololá	1	Sololá	1	Enero	2023-01-17T00:00:00	2024-11-08T09:00:00	4	Temperatura máxima	16.8
1075	7	Sololá	701	Sololá	1	Sololá	1	Enero	2023-01-17T00:00:00	2024-11-08T09:00:00	3	Temperatura mínima	12.1
1076	7	Sololá	701	Sololá	1	Sololá	1	Enero	2023-01-17T00:00:00	2024-11-08T09:00:00	5	Humedad	68
1077	7	Sololá	701	Sololá	1	Sololá	1	Enero	2023-01-17T00:00:00	2024-11-08T09:00:00	6	Velocidad del viento	0
1078	7	Sololá	701	Sololá	1	Sololá	1	Enero	2023-01-17T00:00:00	2024-11-08T09:00:00	7	Dirección del viento	0
1079	7	Sololá	701	Sololá	1	Sololá	1	Enero	2023-01-17T00:00:00	2024-11-08T09:00:00	1	Precipitación	0
1080	7	Sololá	701	Sololá	1	Sololá	1	Enero	2023-01-17T00:00:00	2024-11-08T09:00:00	8	Radiación solar	352
1081	7	Sololá	701	Sololá	1	Sololá	1	Enero	2023-01-17T00:00:00	2024-11-08T10:00:00	2	Temperatura media	18.8
1082	7	Sololá	701	Sololá	1	Sololá	1	Enero	2023-01-17T00:00:00	2024-11-08T10:00:00	4	Temperatura máxima	18.8
1083	7	Sololá	701	Sololá	1	Sololá	1	Enero	2023-01-17T00:00:00	2024-11-08T10:00:00	3	Temperatura mínima	16.8
1084	7	Sololá	701	Sololá	1	Sololá	1	Enero	2023-01-17T00:00:00	2024-11-08T10:00:00	5	Humedad	73
1085	7	Sololá	701	Sololá	1	Sololá	1	Enero	2023-01-17T00:00:00	2024-11-08T10:00:00	6	Velocidad del viento	0
1086	7	Sololá	701	Sololá	1	Sololá	1	Enero	2023-01-17T00:00:00	2024-11-08T10:00:00	7	Dirección del viento	0
1087	7	Sololá	701	Sololá	1	Sololá	1	Enero	2023-01-17T00:00:00	2024-11-08T10:00:00	1	Precipitación	0
1088	7	Sololá	701	Sololá	1	Sololá	1	Enero	2023-01-17T00:00:00	2024-11-08T10:00:00	8	Radiación solar	601
1089	7	Sololá	701	Sololá	1	Sololá	1	Enero	2023-01-17T00:00:00	2024-11-08T11:00:00	2	Temperatura media	19.8
1090	7	Sololá	701	Sololá	1	Sololá	1	Enero	2023-01-17T00:00:00	2024-11-08T11:00:00	4	Temperatura máxima	19.8
1091	7	Sololá	701	Sololá	1	Sololá	1	Enero	2023-01-17T00:00:00	2024-11-08T11:00:00	3	Temperatura mínima	18.8
1092	7	Sololá	701	Sololá	1	Sololá	1	Enero	2023-01-17T00:00:00	2024-11-08T11:00:00	5	Humedad	64
1093	7	Sololá	701	Sololá	1	Sololá	1	Enero	2023-01-17T00:00:00	2024-11-08T11:00:00	6	Velocidad del viento	0
1094	7	Sololá	701	Sololá	1	Sololá	1	Enero	2023-01-17T00:00:00	2024-11-08T11:00:00	7	Dirección del viento	0
1095	7	Sololá	701	Sololá	1	Sololá	1	Enero	2023-01-17T00:00:00	2024-11-08T11:00:00	1	Precipitación	0
1096	7	Sololá	701	Sololá	1	Sololá	1	Enero	2023-01-17T00:00:00	2024-11-08T11:00:00	8	Radiación solar	738
1097	7	Sololá	701	Sololá	1	Sololá	1	Enero	2023-01-17T00:00:00	2024-11-08T12:00:00	2	Temperatura media	20.7
1098	7	Sololá	701	Sololá	1	Sololá	1	Enero	2023-01-17T00:00:00	2024-11-08T12:00:00	4	Temperatura máxima	20.7
1099	7	Sololá	701	Sololá	1	Sololá	1	Enero	2023-01-17T00:00:00	2024-11-08T12:00:00	3	Temperatura mínima	19.8
1100	7	Sololá	701	Sololá	1	Sololá	1	Enero	2023-01-17T00:00:00	2024-11-08T12:00:00	5	Humedad	66
1101	7	Sololá	701	Sololá	1	Sololá	1	Enero	2023-01-17T00:00:00	2024-11-08T12:00:00	6	Velocidad del viento	0
1102	7	Sololá	701	Sololá	1	Sololá	1	Enero	2023-01-17T00:00:00	2024-11-08T12:00:00	7	Dirección del viento	0
1103	7	Sololá	701	Sololá	1	Sololá	1	Enero	2023-01-17T00:00:00	2024-11-08T12:00:00	1	Precipitación	0
1104	7	Sololá	701	Sololá	1	Sololá	1	Enero	2023-01-17T00:00:00	2024-11-08T12:00:00	8	Radiación solar	810
1105	7	Sololá	701	Sololá	1	Sololá	1	Enero	2023-01-17T00:00:00	2024-11-08T13:00:00	2	Temperatura media	19.8
1106	7	Sololá	701	Sololá	1	Sololá	1	Enero	2023-01-17T00:00:00	2024-11-08T13:00:00	4	Temperatura máxima	20.8
1107	7	Sololá	701	Sololá	1	Sololá	1	Enero	2023-01-17T00:00:00	2024-11-08T13:00:00	3	Temperatura mínima	19.6
1108	7	Sololá	701	Sololá	1	Sololá	1	Enero	2023-01-17T00:00:00	2024-11-08T13:00:00	5	Humedad	68
1109	7	Sololá	701	Sololá	1	Sololá	1	Enero	2023-01-17T00:00:00	2024-11-08T13:00:00	6	Velocidad del viento	0
1110	7	Sololá	701	Sololá	1	Sololá	1	Enero	2023-01-17T00:00:00	2024-11-08T13:00:00	7	Dirección del viento	0
1111	7	Sololá	701	Sololá	1	Sololá	1	Enero	2023-01-17T00:00:00	2024-11-08T13:00:00	1	Precipitación	0
1112	7	Sololá	701	Sololá	1	Sololá	1	Enero	2023-01-17T00:00:00	2024-11-08T13:00:00	8	Radiación solar	764
1113	7	Sololá	701	Sololá	1	Sololá	1	Enero	2023-01-17T00:00:00	2024-11-08T14:00:00	2	Temperatura media	18.6
1114	7	Sololá	701	Sololá	1	Sololá	1	Enero	2023-01-17T00:00:00	2024-11-08T14:00:00	4	Temperatura máxima	20
1115	7	Sololá	701	Sololá	1	Sololá	1	Enero	2023-01-17T00:00:00	2024-11-08T14:00:00	3	Temperatura mínima	18.6
1116	7	Sololá	701	Sololá	1	Sololá	1	Enero	2023-01-17T00:00:00	2024-11-08T14:00:00	5	Humedad	77
1117	7	Sololá	701	Sololá	1	Sololá	1	Enero	2023-01-17T00:00:00	2024-11-08T14:00:00	6	Velocidad del viento	0
1118	7	Sololá	701	Sololá	1	Sololá	1	Enero	2023-01-17T00:00:00	2024-11-08T14:00:00	7	Dirección del viento	0
1119	7	Sololá	701	Sololá	1	Sololá	1	Enero	2023-01-17T00:00:00	2024-11-08T14:00:00	1	Precipitación	0
1120	7	Sololá	701	Sololá	1	Sololá	1	Enero	2023-01-17T00:00:00	2024-11-08T14:00:00	8	Radiación solar	268
1121	7	Sololá	701	Sololá	1	Sololá	1	Enero	2023-01-17T00:00:00	2024-11-08T15:00:00	2	Temperatura media	16.8
1122	7	Sololá	701	Sololá	1	Sololá	1	Enero	2023-01-17T00:00:00	2024-11-08T15:00:00	4	Temperatura máxima	18.6
1123	7	Sololá	701	Sololá	1	Sololá	1	Enero	2023-01-17T00:00:00	2024-11-08T15:00:00	3	Temperatura mínima	16.8
1124	7	Sololá	701	Sololá	1	Sololá	1	Enero	2023-01-17T00:00:00	2024-11-08T15:00:00	5	Humedad	85
1125	7	Sololá	701	Sololá	1	Sololá	1	Enero	2023-01-17T00:00:00	2024-11-08T15:00:00	6	Velocidad del viento	0
1126	7	Sololá	701	Sololá	1	Sololá	1	Enero	2023-01-17T00:00:00	2024-11-08T15:00:00	7	Dirección del viento	0
1127	7	Sololá	701	Sololá	1	Sololá	1	Enero	2023-01-17T00:00:00	2024-11-08T15:00:00	1	Precipitación	0
1128	7	Sololá	701	Sololá	1	Sololá	1	Enero	2023-01-17T00:00:00	2024-11-08T15:00:00	8	Radiación solar	109
1129	7	Sololá	701	Sololá	1	Sololá	1	Enero	2023-01-17T00:00:00	2024-11-08T16:00:00	2	Temperatura media	15.9
1130	7	Sololá	701	Sololá	1	Sololá	1	Enero	2023-01-17T00:00:00	2024-11-08T16:00:00	4	Temperatura máxima	16.8
1131	7	Sololá	701	Sololá	1	Sololá	1	Enero	2023-01-17T00:00:00	2024-11-08T16:00:00	3	Temperatura mínima	15.9
1132	7	Sololá	701	Sololá	1	Sololá	1	Enero	2023-01-17T00:00:00	2024-11-08T16:00:00	5	Humedad	87
1133	7	Sololá	701	Sololá	1	Sololá	1	Enero	2023-01-17T00:00:00	2024-11-08T16:00:00	6	Velocidad del viento	0
1134	7	Sololá	701	Sololá	1	Sololá	1	Enero	2023-01-17T00:00:00	2024-11-08T16:00:00	7	Dirección del viento	0
1135	7	Sololá	701	Sololá	1	Sololá	1	Enero	2023-01-17T00:00:00	2024-11-08T16:00:00	1	Precipitación	0
1136	7	Sololá	701	Sololá	1	Sololá	1	Enero	2023-01-17T00:00:00	2024-11-08T16:00:00	8	Radiación solar	91
1137	7	Sololá	701	Sololá	1	Sololá	1	Enero	2023-01-17T00:00:00	2024-11-08T17:00:00	2	Temperatura media	15.5
1138	7	Sololá	701	Sololá	1	Sololá	1	Enero	2023-01-17T00:00:00	2024-11-08T17:00:00	4	Temperatura máxima	15.9
1139	7	Sololá	701	Sololá	1	Sololá	1	Enero	2023-01-17T00:00:00	2024-11-08T17:00:00	3	Temperatura mínima	15.5
1140	7	Sololá	701	Sololá	1	Sololá	1	Enero	2023-01-17T00:00:00	2024-11-08T17:00:00	5	Humedad	89
1141	7	Sololá	701	Sololá	1	Sololá	1	Enero	2023-01-17T00:00:00	2024-11-08T17:00:00	6	Velocidad del viento	0
1142	7	Sololá	701	Sololá	1	Sololá	1	Enero	2023-01-17T00:00:00	2024-11-08T17:00:00	7	Dirección del viento	0
1143	7	Sololá	701	Sololá	1	Sololá	1	Enero	2023-01-17T00:00:00	2024-11-08T17:00:00	1	Precipitación	0
1144	7	Sololá	701	Sololá	1	Sololá	1	Enero	2023-01-17T00:00:00	2024-11-08T17:00:00	8	Radiación solar	49
1145	7	Sololá	701	Sololá	1	Sololá	1	Enero	2023-01-17T00:00:00	2024-11-08T18:00:00	2	Temperatura media	14.6
1146	7	Sololá	701	Sololá	1	Sololá	1	Enero	2023-01-17T00:00:00	2024-11-08T18:00:00	4	Temperatura máxima	15.5
1147	7	Sololá	701	Sololá	1	Sololá	1	Enero	2023-01-17T00:00:00	2024-11-08T18:00:00	3	Temperatura mínima	14.6
1148	7	Sololá	701	Sololá	1	Sololá	1	Enero	2023-01-17T00:00:00	2024-11-08T18:00:00	5	Humedad	92
1149	7	Sololá	701	Sololá	1	Sololá	1	Enero	2023-01-17T00:00:00	2024-11-08T18:00:00	6	Velocidad del viento	0
1150	7	Sololá	701	Sololá	1	Sololá	1	Enero	2023-01-17T00:00:00	2024-11-08T18:00:00	7	Dirección del viento	0
1151	7	Sololá	701	Sololá	1	Sololá	1	Enero	2023-01-17T00:00:00	2024-11-08T18:00:00	1	Precipitación	0
1152	7	Sololá	701	Sololá	1	Sololá	1	Enero	2023-01-17T00:00:00	2024-11-08T18:00:00	8	Radiación solar	1
1153	7	Sololá	701	Sololá	1	Sololá	1	Enero	2023-01-17T00:00:00	2024-11-08T19:00:00	2	Temperatura media	14.3
1154	7	Sololá	701	Sololá	1	Sololá	1	Enero	2023-01-17T00:00:00	2024-11-08T19:00:00	4	Temperatura máxima	14.6
1155	7	Sololá	701	Sololá	1	Sololá	1	Enero	2023-01-17T00:00:00	2024-11-08T19:00:00	3	Temperatura mínima	14.3
1156	7	Sololá	701	Sololá	1	Sololá	1	Enero	2023-01-17T00:00:00	2024-11-08T19:00:00	5	Humedad	89
1157	7	Sololá	701	Sololá	1	Sololá	1	Enero	2023-01-17T00:00:00	2024-11-08T19:00:00	6	Velocidad del viento	0
1158	7	Sololá	701	Sololá	1	Sololá	1	Enero	2023-01-17T00:00:00	2024-11-08T19:00:00	7	Dirección del viento	0
1159	7	Sololá	701	Sololá	1	Sololá	1	Enero	2023-01-17T00:00:00	2024-11-08T19:00:00	1	Precipitación	0
1160	7	Sololá	701	Sololá	1	Sololá	1	Enero	2023-01-17T00:00:00	2024-11-08T19:00:00	8	Radiación solar	0
1161	7	Sololá	701	Sololá	1	Sololá	1	Enero	2023-01-17T00:00:00	2024-11-08T20:00:00	2	Temperatura media	13.5
1162	7	Sololá	701	Sololá	1	Sololá	1	Enero	2023-01-17T00:00:00	2024-11-08T20:00:00	4	Temperatura máxima	14.5
1163	7	Sololá	701	Sololá	1	Sololá	1	Enero	2023-01-17T00:00:00	2024-11-08T20:00:00	3	Temperatura mínima	13.5
1164	7	Sololá	701	Sololá	1	Sololá	1	Enero	2023-01-17T00:00:00	2024-11-08T20:00:00	5	Humedad	89
1165	7	Sololá	701	Sololá	1	Sololá	1	Enero	2023-01-17T00:00:00	2024-11-08T20:00:00	6	Velocidad del viento	0
1166	7	Sololá	701	Sololá	1	Sololá	1	Enero	2023-01-17T00:00:00	2024-11-08T20:00:00	7	Dirección del viento	0
1167	7	Sololá	701	Sololá	1	Sololá	1	Enero	2023-01-17T00:00:00	2024-11-08T20:00:00	1	Precipitación	0
1168	7	Sololá	701	Sololá	1	Sololá	1	Enero	2023-01-17T00:00:00	2024-11-08T20:00:00	8	Radiación solar	0
1169	7	Sololá	701	Sololá	1	Sololá	1	Enero	2023-01-17T00:00:00	2024-11-08T21:00:00	2	Temperatura media	12.4
1170	7	Sololá	701	Sololá	1	Sololá	1	Enero	2023-01-17T00:00:00	2024-11-08T21:00:00	4	Temperatura máxima	13.5
1171	7	Sololá	701	Sololá	1	Sololá	1	Enero	2023-01-17T00:00:00	2024-11-08T21:00:00	3	Temperatura mínima	12.4
1172	7	Sololá	701	Sololá	1	Sololá	1	Enero	2023-01-17T00:00:00	2024-11-08T21:00:00	5	Humedad	91
1173	7	Sololá	701	Sololá	1	Sololá	1	Enero	2023-01-17T00:00:00	2024-11-08T21:00:00	6	Velocidad del viento	0
1174	7	Sololá	701	Sololá	1	Sololá	1	Enero	2023-01-17T00:00:00	2024-11-08T21:00:00	7	Dirección del viento	0
1175	7	Sololá	701	Sololá	1	Sololá	1	Enero	2023-01-17T00:00:00	2024-11-08T21:00:00	1	Precipitación	0
1176	7	Sololá	701	Sololá	1	Sololá	1	Enero	2023-01-17T00:00:00	2024-11-08T21:00:00	8	Radiación solar	0
1177	7	Sololá	701	Sololá	1	Sololá	1	Enero	2023-01-17T00:00:00	2024-11-08T22:00:00	2	Temperatura media	11.4
1178	7	Sololá	701	Sololá	1	Sololá	1	Enero	2023-01-17T00:00:00	2024-11-08T22:00:00	4	Temperatura máxima	12.4
1179	7	Sololá	701	Sololá	1	Sololá	1	Enero	2023-01-17T00:00:00	2024-11-08T22:00:00	3	Temperatura mínima	11.4
1180	7	Sololá	701	Sololá	1	Sololá	1	Enero	2023-01-17T00:00:00	2024-11-08T22:00:00	5	Humedad	90
1181	7	Sololá	701	Sololá	1	Sololá	1	Enero	2023-01-17T00:00:00	2024-11-08T22:00:00	6	Velocidad del viento	0
1182	7	Sololá	701	Sololá	1	Sololá	1	Enero	2023-01-17T00:00:00	2024-11-08T22:00:00	7	Dirección del viento	0
1183	7	Sololá	701	Sololá	1	Sololá	1	Enero	2023-01-17T00:00:00	2024-11-08T22:00:00	1	Precipitación	0
1184	7	Sololá	701	Sololá	1	Sololá	1	Enero	2023-01-17T00:00:00	2024-11-08T22:00:00	8	Radiación solar	0
1185	7	Sololá	701	Sololá	1	Sololá	1	Enero	2023-01-17T00:00:00	2024-11-08T23:00:00	2	Temperatura media	11.8
1186	7	Sololá	701	Sololá	1	Sololá	1	Enero	2023-01-17T00:00:00	2024-11-08T23:00:00	4	Temperatura máxima	11.8
1187	7	Sololá	701	Sololá	1	Sololá	1	Enero	2023-01-17T00:00:00	2024-11-08T23:00:00	3	Temperatura mínima	11.3
1188	7	Sololá	701	Sololá	1	Sololá	1	Enero	2023-01-17T00:00:00	2024-11-08T23:00:00	5	Humedad	86
1189	7	Sololá	701	Sololá	1	Sololá	1	Enero	2023-01-17T00:00:00	2024-11-08T23:00:00	6	Velocidad del viento	1.6
1190	7	Sololá	701	Sololá	1	Sololá	1	Enero	2023-01-17T00:00:00	2024-11-08T23:00:00	7	Dirección del viento	1.61
1191	7	Sololá	701	Sololá	1	Sololá	1	Enero	2023-01-17T00:00:00	2024-11-08T23:00:00	1	Precipitación	0
1192	7	Sololá	701	Sololá	1	Sololá	1	Enero	2023-01-17T00:00:00	2024-11-08T23:00:00	8	Radiación solar	0
1193	7	Sololá	701	Sololá	1	Sololá	1	Enero	2023-01-18T00:00:00	2024-11-08T00:00:00	2	Temperatura media	12.3
1194	7	Sololá	701	Sololá	1	Sololá	1	Enero	2023-01-18T00:00:00	2024-11-08T00:00:00	4	Temperatura máxima	12.3
1195	7	Sololá	701	Sololá	1	Sololá	1	Enero	2023-01-18T00:00:00	2024-11-08T00:00:00	3	Temperatura mínima	11.8
1196	7	Sololá	701	Sololá	1	Sololá	1	Enero	2023-01-18T00:00:00	2024-11-08T00:00:00	5	Humedad	87
1197	7	Sololá	701	Sololá	1	Sololá	1	Enero	2023-01-18T00:00:00	2024-11-08T00:00:00	6	Velocidad del viento	0
1198	7	Sololá	701	Sololá	1	Sololá	1	Enero	2023-01-18T00:00:00	2024-11-08T00:00:00	7	Dirección del viento	0
1199	7	Sololá	701	Sololá	1	Sololá	1	Enero	2023-01-18T00:00:00	2024-11-08T00:00:00	1	Precipitación	0
1200	7	Sololá	701	Sololá	1	Sololá	1	Enero	2023-01-18T00:00:00	2024-11-08T00:00:00	8	Radiación solar	0
1201	7	Sololá	701	Sololá	1	Sololá	1	Enero	2023-01-18T00:00:00	2024-11-08T01:00:00	2	Temperatura media	12.3
1202	7	Sololá	701	Sololá	1	Sololá	1	Enero	2023-01-18T00:00:00	2024-11-08T01:00:00	4	Temperatura máxima	12.4
1203	7	Sololá	701	Sololá	1	Sololá	1	Enero	2023-01-18T00:00:00	2024-11-08T01:00:00	3	Temperatura mínima	12.2
1204	7	Sololá	701	Sololá	1	Sololá	1	Enero	2023-01-18T00:00:00	2024-11-08T01:00:00	5	Humedad	84
1205	7	Sololá	701	Sololá	1	Sololá	1	Enero	2023-01-18T00:00:00	2024-11-08T01:00:00	6	Velocidad del viento	0
1206	7	Sololá	701	Sololá	1	Sololá	1	Enero	2023-01-18T00:00:00	2024-11-08T01:00:00	7	Dirección del viento	0
1207	7	Sololá	701	Sololá	1	Sololá	1	Enero	2023-01-18T00:00:00	2024-11-08T01:00:00	1	Precipitación	0
1208	7	Sololá	701	Sololá	1	Sololá	1	Enero	2023-01-18T00:00:00	2024-11-08T01:00:00	8	Radiación solar	0
1209	7	Sololá	701	Sololá	1	Sololá	1	Enero	2023-01-18T00:00:00	2024-11-08T02:00:00	2	Temperatura media	11.4
1210	7	Sololá	701	Sololá	1	Sololá	1	Enero	2023-01-18T00:00:00	2024-11-08T02:00:00	4	Temperatura máxima	12.3
1211	7	Sololá	701	Sololá	1	Sololá	1	Enero	2023-01-18T00:00:00	2024-11-08T02:00:00	3	Temperatura mínima	11.4
1212	7	Sololá	701	Sololá	1	Sololá	1	Enero	2023-01-18T00:00:00	2024-11-08T02:00:00	5	Humedad	87
1213	7	Sololá	701	Sololá	1	Sololá	1	Enero	2023-01-18T00:00:00	2024-11-08T02:00:00	6	Velocidad del viento	0
1214	7	Sololá	701	Sololá	1	Sololá	1	Enero	2023-01-18T00:00:00	2024-11-08T02:00:00	7	Dirección del viento	0
1215	7	Sololá	701	Sololá	1	Sololá	1	Enero	2023-01-18T00:00:00	2024-11-08T02:00:00	1	Precipitación	0
1216	7	Sololá	701	Sololá	1	Sololá	1	Enero	2023-01-18T00:00:00	2024-11-08T02:00:00	8	Radiación solar	0
1217	7	Sololá	701	Sololá	1	Sololá	1	Enero	2023-01-18T00:00:00	2024-11-08T03:00:00	2	Temperatura media	10.4
1218	7	Sololá	701	Sololá	1	Sololá	1	Enero	2023-01-18T00:00:00	2024-11-08T03:00:00	4	Temperatura máxima	11.4
1219	7	Sololá	701	Sololá	1	Sololá	1	Enero	2023-01-18T00:00:00	2024-11-08T03:00:00	3	Temperatura mínima	10.4
1220	7	Sololá	701	Sololá	1	Sololá	1	Enero	2023-01-18T00:00:00	2024-11-08T03:00:00	5	Humedad	87
1221	7	Sololá	701	Sololá	1	Sololá	1	Enero	2023-01-18T00:00:00	2024-11-08T03:00:00	6	Velocidad del viento	1.6
1222	7	Sololá	701	Sololá	1	Sololá	1	Enero	2023-01-18T00:00:00	2024-11-08T03:00:00	7	Dirección del viento	1.61
1223	7	Sololá	701	Sololá	1	Sololá	1	Enero	2023-01-18T00:00:00	2024-11-08T03:00:00	1	Precipitación	0
1224	7	Sololá	701	Sololá	1	Sololá	1	Enero	2023-01-18T00:00:00	2024-11-08T03:00:00	8	Radiación solar	0
1225	7	Sololá	701	Sololá	1	Sololá	1	Enero	2023-01-18T00:00:00	2024-11-08T04:00:00	2	Temperatura media	9.9
1226	7	Sololá	701	Sololá	1	Sololá	1	Enero	2023-01-18T00:00:00	2024-11-08T04:00:00	4	Temperatura máxima	10.4
1227	7	Sololá	701	Sololá	1	Sololá	1	Enero	2023-01-18T00:00:00	2024-11-08T04:00:00	3	Temperatura mínima	9.9
1228	7	Sololá	701	Sololá	1	Sololá	1	Enero	2023-01-18T00:00:00	2024-11-08T04:00:00	5	Humedad	88
1229	7	Sololá	701	Sololá	1	Sololá	1	Enero	2023-01-18T00:00:00	2024-11-08T04:00:00	6	Velocidad del viento	1.6
1230	7	Sololá	701	Sololá	1	Sololá	1	Enero	2023-01-18T00:00:00	2024-11-08T04:00:00	7	Dirección del viento	1.61
1231	7	Sololá	701	Sololá	1	Sololá	1	Enero	2023-01-18T00:00:00	2024-11-08T04:00:00	1	Precipitación	0
1232	7	Sololá	701	Sololá	1	Sololá	1	Enero	2023-01-18T00:00:00	2024-11-08T04:00:00	8	Radiación solar	0
1233	7	Sololá	701	Sololá	1	Sololá	1	Enero	2023-01-18T00:00:00	2024-11-08T05:00:00	2	Temperatura media	9.3
1234	7	Sololá	701	Sololá	1	Sololá	1	Enero	2023-01-18T00:00:00	2024-11-08T05:00:00	4	Temperatura máxima	9.9
1235	7	Sololá	701	Sololá	1	Sololá	1	Enero	2023-01-18T00:00:00	2024-11-08T05:00:00	3	Temperatura mínima	9.3
1236	7	Sololá	701	Sololá	1	Sololá	1	Enero	2023-01-18T00:00:00	2024-11-08T05:00:00	5	Humedad	86
1237	7	Sololá	701	Sololá	1	Sololá	1	Enero	2023-01-18T00:00:00	2024-11-08T05:00:00	6	Velocidad del viento	1.6
1238	7	Sololá	701	Sololá	1	Sololá	1	Enero	2023-01-18T00:00:00	2024-11-08T05:00:00	7	Dirección del viento	1.61
1239	7	Sololá	701	Sololá	1	Sololá	1	Enero	2023-01-18T00:00:00	2024-11-08T05:00:00	1	Precipitación	0
1240	7	Sololá	701	Sololá	1	Sololá	1	Enero	2023-01-18T00:00:00	2024-11-08T05:00:00	8	Radiación solar	0
1241	7	Sololá	701	Sololá	1	Sololá	1	Enero	2023-01-18T00:00:00	2024-11-08T06:00:00	2	Temperatura media	9
1242	7	Sololá	701	Sololá	1	Sololá	1	Enero	2023-01-18T00:00:00	2024-11-08T06:00:00	4	Temperatura máxima	9.3
1243	7	Sololá	701	Sololá	1	Sololá	1	Enero	2023-01-18T00:00:00	2024-11-08T06:00:00	3	Temperatura mínima	9
1244	7	Sololá	701	Sololá	1	Sololá	1	Enero	2023-01-18T00:00:00	2024-11-08T06:00:00	5	Humedad	82
1245	7	Sololá	701	Sololá	1	Sololá	1	Enero	2023-01-18T00:00:00	2024-11-08T06:00:00	6	Velocidad del viento	1.6
1246	7	Sololá	701	Sololá	1	Sololá	1	Enero	2023-01-18T00:00:00	2024-11-08T06:00:00	7	Dirección del viento	1.61
1247	7	Sololá	701	Sololá	1	Sololá	1	Enero	2023-01-18T00:00:00	2024-11-08T06:00:00	1	Precipitación	0
1248	7	Sololá	701	Sololá	1	Sololá	1	Enero	2023-01-18T00:00:00	2024-11-08T06:00:00	8	Radiación solar	0
1249	7	Sololá	701	Sololá	1	Sololá	1	Enero	2023-01-18T00:00:00	2024-11-08T07:00:00	2	Temperatura media	9.1
1250	7	Sololá	701	Sololá	1	Sololá	1	Enero	2023-01-18T00:00:00	2024-11-08T07:00:00	4	Temperatura máxima	9.1
1251	7	Sololá	701	Sololá	1	Sololá	1	Enero	2023-01-18T00:00:00	2024-11-08T07:00:00	3	Temperatura mínima	8.8
1252	7	Sololá	701	Sololá	1	Sololá	1	Enero	2023-01-18T00:00:00	2024-11-08T07:00:00	5	Humedad	83
1253	7	Sololá	701	Sololá	1	Sololá	1	Enero	2023-01-18T00:00:00	2024-11-08T07:00:00	6	Velocidad del viento	1.6
1254	7	Sololá	701	Sololá	1	Sololá	1	Enero	2023-01-18T00:00:00	2024-11-08T07:00:00	7	Dirección del viento	1.61
1255	7	Sololá	701	Sololá	1	Sololá	1	Enero	2023-01-18T00:00:00	2024-11-08T07:00:00	1	Precipitación	0
1256	7	Sololá	701	Sololá	1	Sololá	1	Enero	2023-01-18T00:00:00	2024-11-08T07:00:00	8	Radiación solar	4
1257	7	Sololá	701	Sololá	1	Sololá	1	Enero	2023-01-18T00:00:00	2024-11-08T08:00:00	2	Temperatura media	11.2
1258	7	Sololá	701	Sololá	1	Sololá	1	Enero	2023-01-18T00:00:00	2024-11-08T08:00:00	4	Temperatura máxima	11.2
1259	7	Sololá	701	Sololá	1	Sololá	1	Enero	2023-01-18T00:00:00	2024-11-08T08:00:00	3	Temperatura mínima	9.1
1260	7	Sololá	701	Sololá	1	Sololá	1	Enero	2023-01-18T00:00:00	2024-11-08T08:00:00	5	Humedad	87
1261	7	Sololá	701	Sololá	1	Sololá	1	Enero	2023-01-18T00:00:00	2024-11-08T08:00:00	6	Velocidad del viento	1.6
1262	7	Sololá	701	Sololá	1	Sololá	1	Enero	2023-01-18T00:00:00	2024-11-08T08:00:00	7	Dirección del viento	1.61
1263	7	Sololá	701	Sololá	1	Sololá	1	Enero	2023-01-18T00:00:00	2024-11-08T08:00:00	1	Precipitación	0
1264	7	Sololá	701	Sololá	1	Sololá	1	Enero	2023-01-18T00:00:00	2024-11-08T08:00:00	8	Radiación solar	35
1265	7	Sololá	701	Sololá	1	Sololá	1	Enero	2023-01-18T00:00:00	2024-11-08T09:00:00	2	Temperatura media	15.8
1266	7	Sololá	701	Sololá	1	Sololá	1	Enero	2023-01-18T00:00:00	2024-11-08T09:00:00	4	Temperatura máxima	15.8
1267	7	Sololá	701	Sololá	1	Sololá	1	Enero	2023-01-18T00:00:00	2024-11-08T09:00:00	3	Temperatura mínima	11.2
1268	7	Sololá	701	Sololá	1	Sololá	1	Enero	2023-01-18T00:00:00	2024-11-08T09:00:00	5	Humedad	71
1269	7	Sololá	701	Sololá	1	Sololá	1	Enero	2023-01-18T00:00:00	2024-11-08T09:00:00	6	Velocidad del viento	0
1270	7	Sololá	701	Sololá	1	Sololá	1	Enero	2023-01-18T00:00:00	2024-11-08T09:00:00	7	Dirección del viento	0
1271	7	Sololá	701	Sololá	1	Sololá	1	Enero	2023-01-18T00:00:00	2024-11-08T09:00:00	1	Precipitación	0
1272	7	Sololá	701	Sololá	1	Sololá	1	Enero	2023-01-18T00:00:00	2024-11-08T09:00:00	8	Radiación solar	342
1273	7	Sololá	701	Sololá	1	Sololá	1	Enero	2023-01-18T00:00:00	2024-11-08T10:00:00	2	Temperatura media	17.9
1274	7	Sololá	701	Sololá	1	Sololá	1	Enero	2023-01-18T00:00:00	2024-11-08T10:00:00	4	Temperatura máxima	18
1275	7	Sololá	701	Sololá	1	Sololá	1	Enero	2023-01-18T00:00:00	2024-11-08T10:00:00	3	Temperatura mínima	15.8
1276	7	Sololá	701	Sololá	1	Sololá	1	Enero	2023-01-18T00:00:00	2024-11-08T10:00:00	5	Humedad	72
1277	7	Sololá	701	Sololá	1	Sololá	1	Enero	2023-01-18T00:00:00	2024-11-08T10:00:00	6	Velocidad del viento	0
1278	7	Sololá	701	Sololá	1	Sololá	1	Enero	2023-01-18T00:00:00	2024-11-08T10:00:00	7	Dirección del viento	0
1279	7	Sololá	701	Sololá	1	Sololá	1	Enero	2023-01-18T00:00:00	2024-11-08T10:00:00	1	Precipitación	0
1280	7	Sololá	701	Sololá	1	Sololá	1	Enero	2023-01-18T00:00:00	2024-11-08T10:00:00	8	Radiación solar	603
1281	7	Sololá	701	Sololá	1	Sololá	1	Enero	2023-01-18T00:00:00	2024-11-08T11:00:00	2	Temperatura media	18.9
1282	7	Sololá	701	Sololá	1	Sololá	1	Enero	2023-01-18T00:00:00	2024-11-08T11:00:00	4	Temperatura máxima	18.9
1283	7	Sololá	701	Sololá	1	Sololá	1	Enero	2023-01-18T00:00:00	2024-11-08T11:00:00	3	Temperatura mínima	17.9
1284	7	Sololá	701	Sololá	1	Sololá	1	Enero	2023-01-18T00:00:00	2024-11-08T11:00:00	5	Humedad	66
1285	7	Sololá	701	Sololá	1	Sololá	1	Enero	2023-01-18T00:00:00	2024-11-08T11:00:00	6	Velocidad del viento	0
1286	7	Sololá	701	Sololá	1	Sololá	1	Enero	2023-01-18T00:00:00	2024-11-08T11:00:00	7	Dirección del viento	0
1287	7	Sololá	701	Sololá	1	Sololá	1	Enero	2023-01-18T00:00:00	2024-11-08T11:00:00	1	Precipitación	0
1288	7	Sololá	701	Sololá	1	Sololá	1	Enero	2023-01-18T00:00:00	2024-11-08T11:00:00	8	Radiación solar	747
1289	7	Sololá	701	Sololá	1	Sololá	1	Enero	2023-01-18T00:00:00	2024-11-08T12:00:00	2	Temperatura media	20.1
1290	7	Sololá	701	Sololá	1	Sololá	1	Enero	2023-01-18T00:00:00	2024-11-08T12:00:00	4	Temperatura máxima	20.2
1291	7	Sololá	701	Sololá	1	Sololá	1	Enero	2023-01-18T00:00:00	2024-11-08T12:00:00	3	Temperatura mínima	18.9
1292	7	Sololá	701	Sololá	1	Sololá	1	Enero	2023-01-18T00:00:00	2024-11-08T12:00:00	5	Humedad	65
1293	7	Sololá	701	Sololá	1	Sololá	1	Enero	2023-01-18T00:00:00	2024-11-08T12:00:00	6	Velocidad del viento	0
1294	7	Sololá	701	Sololá	1	Sololá	1	Enero	2023-01-18T00:00:00	2024-11-08T12:00:00	7	Dirección del viento	0
1295	7	Sololá	701	Sololá	1	Sololá	1	Enero	2023-01-18T00:00:00	2024-11-08T12:00:00	1	Precipitación	0
1296	7	Sololá	701	Sololá	1	Sololá	1	Enero	2023-01-18T00:00:00	2024-11-08T12:00:00	8	Radiación solar	819
1297	7	Sololá	701	Sololá	1	Sololá	1	Enero	2023-01-18T00:00:00	2024-11-08T13:00:00	2	Temperatura media	19.5
1298	7	Sololá	701	Sololá	1	Sololá	1	Enero	2023-01-18T00:00:00	2024-11-08T13:00:00	4	Temperatura máxima	20.3
1299	7	Sololá	701	Sololá	1	Sololá	1	Enero	2023-01-18T00:00:00	2024-11-08T13:00:00	3	Temperatura mínima	19.5
1300	7	Sololá	701	Sololá	1	Sololá	1	Enero	2023-01-18T00:00:00	2024-11-08T13:00:00	5	Humedad	69
1301	7	Sololá	701	Sololá	1	Sololá	1	Enero	2023-01-18T00:00:00	2024-11-08T13:00:00	6	Velocidad del viento	0
1302	7	Sololá	701	Sololá	1	Sololá	1	Enero	2023-01-18T00:00:00	2024-11-08T13:00:00	7	Dirección del viento	0
1303	7	Sololá	701	Sololá	1	Sololá	1	Enero	2023-01-18T00:00:00	2024-11-08T13:00:00	1	Precipitación	0
1304	7	Sololá	701	Sololá	1	Sololá	1	Enero	2023-01-18T00:00:00	2024-11-08T13:00:00	8	Radiación solar	717
1305	7	Sololá	701	Sololá	1	Sololá	1	Enero	2023-01-18T00:00:00	2024-11-08T14:00:00	2	Temperatura media	16.6
1306	7	Sololá	701	Sololá	1	Sololá	1	Enero	2023-01-18T00:00:00	2024-11-08T14:00:00	4	Temperatura máxima	19.5
1307	7	Sololá	701	Sololá	1	Sololá	1	Enero	2023-01-18T00:00:00	2024-11-08T14:00:00	3	Temperatura mínima	16.6
1308	7	Sololá	701	Sololá	1	Sololá	1	Enero	2023-01-18T00:00:00	2024-11-08T14:00:00	5	Humedad	82
1309	7	Sololá	701	Sololá	1	Sololá	1	Enero	2023-01-18T00:00:00	2024-11-08T14:00:00	6	Velocidad del viento	0
1310	7	Sololá	701	Sololá	1	Sololá	1	Enero	2023-01-18T00:00:00	2024-11-08T14:00:00	7	Dirección del viento	0
1311	7	Sololá	701	Sololá	1	Sololá	1	Enero	2023-01-18T00:00:00	2024-11-08T14:00:00	1	Precipitación	0
1312	7	Sololá	701	Sololá	1	Sololá	1	Enero	2023-01-18T00:00:00	2024-11-08T14:00:00	8	Radiación solar	182
1313	7	Sololá	701	Sololá	1	Sololá	1	Enero	2023-01-18T00:00:00	2024-11-08T15:00:00	2	Temperatura media	16.3
1314	7	Sololá	701	Sololá	1	Sololá	1	Enero	2023-01-18T00:00:00	2024-11-08T15:00:00	4	Temperatura máxima	16.8
1315	7	Sololá	701	Sololá	1	Sololá	1	Enero	2023-01-18T00:00:00	2024-11-08T15:00:00	3	Temperatura mínima	16.3
1316	7	Sololá	701	Sololá	1	Sololá	1	Enero	2023-01-18T00:00:00	2024-11-08T15:00:00	5	Humedad	84
1317	7	Sololá	701	Sololá	1	Sololá	1	Enero	2023-01-18T00:00:00	2024-11-08T15:00:00	6	Velocidad del viento	0
1318	7	Sololá	701	Sololá	1	Sololá	1	Enero	2023-01-18T00:00:00	2024-11-08T15:00:00	7	Dirección del viento	0
1319	7	Sololá	701	Sololá	1	Sololá	1	Enero	2023-01-18T00:00:00	2024-11-08T15:00:00	1	Precipitación	0
1320	7	Sololá	701	Sololá	1	Sololá	1	Enero	2023-01-18T00:00:00	2024-11-08T15:00:00	8	Radiación solar	142
1321	7	Sololá	701	Sololá	1	Sololá	1	Enero	2023-01-18T00:00:00	2024-11-08T16:00:00	2	Temperatura media	15.7
1322	7	Sololá	701	Sololá	1	Sololá	1	Enero	2023-01-18T00:00:00	2024-11-08T16:00:00	4	Temperatura máxima	16.3
1323	7	Sololá	701	Sololá	1	Sololá	1	Enero	2023-01-18T00:00:00	2024-11-08T16:00:00	3	Temperatura mínima	15.7
1324	7	Sololá	701	Sololá	1	Sololá	1	Enero	2023-01-18T00:00:00	2024-11-08T16:00:00	5	Humedad	87
1325	7	Sololá	701	Sololá	1	Sololá	1	Enero	2023-01-18T00:00:00	2024-11-08T16:00:00	6	Velocidad del viento	0
1326	7	Sololá	701	Sololá	1	Sololá	1	Enero	2023-01-18T00:00:00	2024-11-08T16:00:00	7	Dirección del viento	0
1327	7	Sololá	701	Sololá	1	Sololá	1	Enero	2023-01-18T00:00:00	2024-11-08T16:00:00	1	Precipitación	0
1328	7	Sololá	701	Sololá	1	Sololá	1	Enero	2023-01-18T00:00:00	2024-11-08T16:00:00	8	Radiación solar	68
1329	7	Sololá	701	Sololá	1	Sololá	1	Enero	2023-01-18T00:00:00	2024-11-08T17:00:00	2	Temperatura media	14.9
1330	7	Sololá	701	Sololá	1	Sololá	1	Enero	2023-01-18T00:00:00	2024-11-08T17:00:00	4	Temperatura máxima	15.7
1331	7	Sololá	701	Sololá	1	Sololá	1	Enero	2023-01-18T00:00:00	2024-11-08T17:00:00	3	Temperatura mínima	14.9
1332	7	Sololá	701	Sololá	1	Sololá	1	Enero	2023-01-18T00:00:00	2024-11-08T17:00:00	5	Humedad	90
1333	7	Sololá	701	Sololá	1	Sololá	1	Enero	2023-01-18T00:00:00	2024-11-08T17:00:00	6	Velocidad del viento	0
1334	7	Sololá	701	Sololá	1	Sololá	1	Enero	2023-01-18T00:00:00	2024-11-08T17:00:00	7	Dirección del viento	0
1335	7	Sololá	701	Sololá	1	Sololá	1	Enero	2023-01-18T00:00:00	2024-11-08T17:00:00	1	Precipitación	0
1336	7	Sololá	701	Sololá	1	Sololá	1	Enero	2023-01-18T00:00:00	2024-11-08T17:00:00	8	Radiación solar	23
1337	7	Sololá	701	Sololá	1	Sololá	1	Enero	2023-01-18T00:00:00	2024-11-08T18:00:00	2	Temperatura media	14.2
1338	7	Sololá	701	Sololá	1	Sololá	1	Enero	2023-01-18T00:00:00	2024-11-08T18:00:00	4	Temperatura máxima	14.9
1339	7	Sololá	701	Sololá	1	Sololá	1	Enero	2023-01-18T00:00:00	2024-11-08T18:00:00	3	Temperatura mínima	14.2
1340	7	Sololá	701	Sololá	1	Sololá	1	Enero	2023-01-18T00:00:00	2024-11-08T18:00:00	5	Humedad	92
1341	7	Sololá	701	Sololá	1	Sololá	1	Enero	2023-01-18T00:00:00	2024-11-08T18:00:00	6	Velocidad del viento	0
1342	7	Sololá	701	Sololá	1	Sololá	1	Enero	2023-01-18T00:00:00	2024-11-08T18:00:00	7	Dirección del viento	0
1343	7	Sololá	701	Sololá	1	Sololá	1	Enero	2023-01-18T00:00:00	2024-11-08T18:00:00	1	Precipitación	0
1344	7	Sololá	701	Sololá	1	Sololá	1	Enero	2023-01-18T00:00:00	2024-11-08T18:00:00	8	Radiación solar	4
1345	7	Sololá	701	Sololá	1	Sololá	1	Enero	2023-01-18T00:00:00	2024-11-08T19:00:00	2	Temperatura media	13.9
1346	7	Sololá	701	Sololá	1	Sololá	1	Enero	2023-01-18T00:00:00	2024-11-08T19:00:00	4	Temperatura máxima	14.2
1347	7	Sololá	701	Sololá	1	Sololá	1	Enero	2023-01-18T00:00:00	2024-11-08T19:00:00	3	Temperatura mínima	13.9
1348	7	Sololá	701	Sololá	1	Sololá	1	Enero	2023-01-18T00:00:00	2024-11-08T19:00:00	5	Humedad	93
1349	7	Sololá	701	Sololá	1	Sololá	1	Enero	2023-01-18T00:00:00	2024-11-08T19:00:00	6	Velocidad del viento	0
1350	7	Sololá	701	Sololá	1	Sololá	1	Enero	2023-01-18T00:00:00	2024-11-08T19:00:00	7	Dirección del viento	0
1351	7	Sololá	701	Sololá	1	Sololá	1	Enero	2023-01-18T00:00:00	2024-11-08T19:00:00	1	Precipitación	0
1352	7	Sololá	701	Sololá	1	Sololá	1	Enero	2023-01-18T00:00:00	2024-11-08T19:00:00	8	Radiación solar	0
1353	7	Sololá	701	Sololá	1	Sololá	1	Enero	2023-01-18T00:00:00	2024-11-08T20:00:00	2	Temperatura media	13.8
1354	7	Sololá	701	Sololá	1	Sololá	1	Enero	2023-01-18T00:00:00	2024-11-08T20:00:00	4	Temperatura máxima	14
1355	7	Sololá	701	Sololá	1	Sololá	1	Enero	2023-01-18T00:00:00	2024-11-08T20:00:00	3	Temperatura mínima	13.8
1356	7	Sololá	701	Sololá	1	Sololá	1	Enero	2023-01-18T00:00:00	2024-11-08T20:00:00	5	Humedad	94
1357	7	Sololá	701	Sololá	1	Sololá	1	Enero	2023-01-18T00:00:00	2024-11-08T20:00:00	6	Velocidad del viento	0
1358	7	Sololá	701	Sololá	1	Sololá	1	Enero	2023-01-18T00:00:00	2024-11-08T20:00:00	7	Dirección del viento	0
1359	7	Sololá	701	Sololá	1	Sololá	1	Enero	2023-01-18T00:00:00	2024-11-08T20:00:00	1	Precipitación	0
1360	7	Sololá	701	Sololá	1	Sololá	1	Enero	2023-01-18T00:00:00	2024-11-08T20:00:00	8	Radiación solar	0
1361	7	Sololá	701	Sololá	1	Sololá	1	Enero	2023-01-18T00:00:00	2024-11-08T21:00:00	2	Temperatura media	13.5
1362	7	Sololá	701	Sololá	1	Sololá	1	Enero	2023-01-18T00:00:00	2024-11-08T21:00:00	4	Temperatura máxima	13.8
1363	7	Sololá	701	Sololá	1	Sololá	1	Enero	2023-01-18T00:00:00	2024-11-08T21:00:00	3	Temperatura mínima	13.4
1364	7	Sololá	701	Sololá	1	Sololá	1	Enero	2023-01-18T00:00:00	2024-11-08T21:00:00	5	Humedad	92
1365	7	Sololá	701	Sololá	1	Sololá	1	Enero	2023-01-18T00:00:00	2024-11-08T21:00:00	6	Velocidad del viento	0
1366	7	Sololá	701	Sololá	1	Sololá	1	Enero	2023-01-18T00:00:00	2024-11-08T21:00:00	7	Dirección del viento	0
1367	7	Sololá	701	Sololá	1	Sololá	1	Enero	2023-01-18T00:00:00	2024-11-08T21:00:00	1	Precipitación	0
1368	7	Sololá	701	Sololá	1	Sololá	1	Enero	2023-01-18T00:00:00	2024-11-08T21:00:00	8	Radiación solar	0
1369	7	Sololá	701	Sololá	1	Sololá	1	Enero	2023-01-18T00:00:00	2024-11-08T22:00:00	2	Temperatura media	11.9
1370	7	Sololá	701	Sololá	1	Sololá	1	Enero	2023-01-18T00:00:00	2024-11-08T22:00:00	4	Temperatura máxima	13.5
1371	7	Sololá	701	Sololá	1	Sololá	1	Enero	2023-01-18T00:00:00	2024-11-08T22:00:00	3	Temperatura mínima	11.9
1372	7	Sololá	701	Sololá	1	Sololá	1	Enero	2023-01-18T00:00:00	2024-11-08T22:00:00	5	Humedad	92
1373	7	Sololá	701	Sololá	1	Sololá	1	Enero	2023-01-18T00:00:00	2024-11-08T22:00:00	6	Velocidad del viento	0
1374	7	Sololá	701	Sololá	1	Sololá	1	Enero	2023-01-18T00:00:00	2024-11-08T22:00:00	7	Dirección del viento	0
1375	7	Sololá	701	Sololá	1	Sololá	1	Enero	2023-01-18T00:00:00	2024-11-08T22:00:00	1	Precipitación	0
1376	7	Sololá	701	Sololá	1	Sololá	1	Enero	2023-01-18T00:00:00	2024-11-08T22:00:00	8	Radiación solar	0
1377	7	Sololá	701	Sololá	1	Sololá	1	Enero	2023-01-18T00:00:00	2024-11-08T23:00:00	2	Temperatura media	11.3
1378	7	Sololá	701	Sololá	1	Sololá	1	Enero	2023-01-18T00:00:00	2024-11-08T23:00:00	4	Temperatura máxima	11.9
1379	7	Sololá	701	Sololá	1	Sololá	1	Enero	2023-01-18T00:00:00	2024-11-08T23:00:00	3	Temperatura mínima	11.3
1380	7	Sololá	701	Sololá	1	Sololá	1	Enero	2023-01-18T00:00:00	2024-11-08T23:00:00	5	Humedad	92
1381	7	Sololá	701	Sololá	1	Sololá	1	Enero	2023-01-18T00:00:00	2024-11-08T23:00:00	6	Velocidad del viento	0
1382	7	Sololá	701	Sololá	1	Sololá	1	Enero	2023-01-18T00:00:00	2024-11-08T23:00:00	7	Dirección del viento	0
1383	7	Sololá	701	Sololá	1	Sololá	1	Enero	2023-01-18T00:00:00	2024-11-08T23:00:00	1	Precipitación	0
1384	7	Sololá	701	Sololá	1	Sololá	1	Enero	2023-01-18T00:00:00	2024-11-08T23:00:00	8	Radiación solar	0
1385	7	Sololá	701	Sololá	1	Sololá	1	Enero	2023-01-19T00:00:00	2024-11-08T00:00:00	2	Temperatura media	10.6
1386	7	Sololá	701	Sololá	1	Sololá	1	Enero	2023-01-19T00:00:00	2024-11-08T00:00:00	4	Temperatura máxima	11.3
1387	7	Sololá	701	Sololá	1	Sololá	1	Enero	2023-01-19T00:00:00	2024-11-08T00:00:00	3	Temperatura mínima	10.6
1388	7	Sololá	701	Sololá	1	Sololá	1	Enero	2023-01-19T00:00:00	2024-11-08T00:00:00	5	Humedad	91
1389	7	Sololá	701	Sololá	1	Sololá	1	Enero	2023-01-19T00:00:00	2024-11-08T00:00:00	6	Velocidad del viento	0
1390	7	Sololá	701	Sololá	1	Sololá	1	Enero	2023-01-19T00:00:00	2024-11-08T00:00:00	7	Dirección del viento	0
1391	7	Sololá	701	Sololá	1	Sololá	1	Enero	2023-01-19T00:00:00	2024-11-08T00:00:00	1	Precipitación	0
1392	7	Sololá	701	Sololá	1	Sololá	1	Enero	2023-01-19T00:00:00	2024-11-08T00:00:00	8	Radiación solar	0
1393	7	Sololá	701	Sololá	1	Sololá	1	Enero	2023-01-19T00:00:00	2024-11-08T01:00:00	2	Temperatura media	10.2
1394	7	Sololá	701	Sololá	1	Sololá	1	Enero	2023-01-19T00:00:00	2024-11-08T01:00:00	4	Temperatura máxima	10.7
1395	7	Sololá	701	Sololá	1	Sololá	1	Enero	2023-01-19T00:00:00	2024-11-08T01:00:00	3	Temperatura mínima	10.2
1396	7	Sololá	701	Sololá	1	Sololá	1	Enero	2023-01-19T00:00:00	2024-11-08T01:00:00	5	Humedad	87
1397	7	Sololá	701	Sololá	1	Sololá	1	Enero	2023-01-19T00:00:00	2024-11-08T01:00:00	6	Velocidad del viento	0
1398	7	Sololá	701	Sololá	1	Sololá	1	Enero	2023-01-19T00:00:00	2024-11-08T01:00:00	7	Dirección del viento	0
1399	7	Sololá	701	Sololá	1	Sololá	1	Enero	2023-01-19T00:00:00	2024-11-08T01:00:00	1	Precipitación	0
1400	7	Sololá	701	Sololá	1	Sololá	1	Enero	2023-01-19T00:00:00	2024-11-08T01:00:00	8	Radiación solar	0
1401	7	Sololá	701	Sololá	1	Sololá	1	Enero	2023-01-19T00:00:00	2024-11-08T02:00:00	2	Temperatura media	9.7
1402	7	Sololá	701	Sololá	1	Sololá	1	Enero	2023-01-19T00:00:00	2024-11-08T02:00:00	4	Temperatura máxima	10.2
1403	7	Sololá	701	Sololá	1	Sololá	1	Enero	2023-01-19T00:00:00	2024-11-08T02:00:00	3	Temperatura mínima	9.7
1404	7	Sololá	701	Sololá	1	Sololá	1	Enero	2023-01-19T00:00:00	2024-11-08T02:00:00	5	Humedad	86
1405	7	Sololá	701	Sololá	1	Sololá	1	Enero	2023-01-19T00:00:00	2024-11-08T02:00:00	6	Velocidad del viento	1.6
1406	7	Sololá	701	Sololá	1	Sololá	1	Enero	2023-01-19T00:00:00	2024-11-08T02:00:00	7	Dirección del viento	1.61
1407	7	Sololá	701	Sololá	1	Sololá	1	Enero	2023-01-19T00:00:00	2024-11-08T02:00:00	1	Precipitación	0
1408	7	Sololá	701	Sololá	1	Sololá	1	Enero	2023-01-19T00:00:00	2024-11-08T02:00:00	8	Radiación solar	0
1409	7	Sololá	701	Sololá	1	Sololá	1	Enero	2023-01-19T00:00:00	2024-11-08T03:00:00	2	Temperatura media	8.9
1410	7	Sololá	701	Sololá	1	Sololá	1	Enero	2023-01-19T00:00:00	2024-11-08T03:00:00	4	Temperatura máxima	9.7
1411	7	Sololá	701	Sololá	1	Sololá	1	Enero	2023-01-19T00:00:00	2024-11-08T03:00:00	3	Temperatura mínima	8.9
1412	7	Sololá	701	Sololá	1	Sololá	1	Enero	2023-01-19T00:00:00	2024-11-08T03:00:00	5	Humedad	73
1413	7	Sololá	701	Sololá	1	Sololá	1	Enero	2023-01-19T00:00:00	2024-11-08T03:00:00	6	Velocidad del viento	1.6
1414	7	Sololá	701	Sololá	1	Sololá	1	Enero	2023-01-19T00:00:00	2024-11-08T03:00:00	7	Dirección del viento	1.61
1415	7	Sololá	701	Sololá	1	Sololá	1	Enero	2023-01-19T00:00:00	2024-11-08T03:00:00	1	Precipitación	0
1416	7	Sololá	701	Sololá	1	Sololá	1	Enero	2023-01-19T00:00:00	2024-11-08T03:00:00	8	Radiación solar	0
1417	7	Sololá	701	Sololá	1	Sololá	1	Enero	2023-01-19T00:00:00	2024-11-08T04:00:00	2	Temperatura media	9.1
1418	7	Sololá	701	Sololá	1	Sololá	1	Enero	2023-01-19T00:00:00	2024-11-08T04:00:00	4	Temperatura máxima	9.1
1419	7	Sololá	701	Sololá	1	Sololá	1	Enero	2023-01-19T00:00:00	2024-11-08T04:00:00	3	Temperatura mínima	8.7
1420	7	Sololá	701	Sololá	1	Sololá	1	Enero	2023-01-19T00:00:00	2024-11-08T04:00:00	5	Humedad	59
1421	7	Sololá	701	Sololá	1	Sololá	1	Enero	2023-01-19T00:00:00	2024-11-08T04:00:00	6	Velocidad del viento	1.6
1422	7	Sololá	701	Sololá	1	Sololá	1	Enero	2023-01-19T00:00:00	2024-11-08T04:00:00	7	Dirección del viento	1.61
1423	7	Sololá	701	Sololá	1	Sololá	1	Enero	2023-01-19T00:00:00	2024-11-08T04:00:00	1	Precipitación	0
1424	7	Sololá	701	Sololá	1	Sololá	1	Enero	2023-01-19T00:00:00	2024-11-08T04:00:00	8	Radiación solar	0
1425	7	Sololá	701	Sololá	1	Sololá	1	Enero	2023-01-19T00:00:00	2024-11-08T05:00:00	2	Temperatura media	9.1
1426	7	Sololá	701	Sololá	1	Sololá	1	Enero	2023-01-19T00:00:00	2024-11-08T05:00:00	4	Temperatura máxima	9.3
1427	7	Sololá	701	Sololá	1	Sololá	1	Enero	2023-01-19T00:00:00	2024-11-08T05:00:00	3	Temperatura mínima	9.1
1428	7	Sololá	701	Sololá	1	Sololá	1	Enero	2023-01-19T00:00:00	2024-11-08T05:00:00	5	Humedad	48
1429	7	Sololá	701	Sololá	1	Sololá	1	Enero	2023-01-19T00:00:00	2024-11-08T05:00:00	6	Velocidad del viento	1.6
1430	7	Sololá	701	Sololá	1	Sololá	1	Enero	2023-01-19T00:00:00	2024-11-08T05:00:00	7	Dirección del viento	1.61
1431	7	Sololá	701	Sololá	1	Sololá	1	Enero	2023-01-19T00:00:00	2024-11-08T05:00:00	1	Precipitación	0
1432	7	Sololá	701	Sololá	1	Sololá	1	Enero	2023-01-19T00:00:00	2024-11-08T05:00:00	8	Radiación solar	0
1433	7	Sololá	701	Sololá	1	Sololá	1	Enero	2023-01-19T00:00:00	2024-11-08T06:00:00	2	Temperatura media	9.5
1434	7	Sololá	701	Sololá	1	Sololá	1	Enero	2023-01-19T00:00:00	2024-11-08T06:00:00	4	Temperatura máxima	9.6
1435	7	Sololá	701	Sololá	1	Sololá	1	Enero	2023-01-19T00:00:00	2024-11-08T06:00:00	3	Temperatura mínima	9
1436	7	Sololá	701	Sololá	1	Sololá	1	Enero	2023-01-19T00:00:00	2024-11-08T06:00:00	5	Humedad	40
1437	7	Sololá	701	Sololá	1	Sololá	1	Enero	2023-01-19T00:00:00	2024-11-08T06:00:00	6	Velocidad del viento	1.6
1438	7	Sololá	701	Sololá	1	Sololá	1	Enero	2023-01-19T00:00:00	2024-11-08T06:00:00	7	Dirección del viento	1.61
1439	7	Sololá	701	Sololá	1	Sololá	1	Enero	2023-01-19T00:00:00	2024-11-08T06:00:00	1	Precipitación	0
1440	7	Sololá	701	Sololá	1	Sololá	1	Enero	2023-01-19T00:00:00	2024-11-08T06:00:00	8	Radiación solar	0
1441	7	Sololá	701	Sololá	1	Sololá	1	Enero	2023-01-19T00:00:00	2024-11-08T07:00:00	2	Temperatura media	8.7
1442	7	Sololá	701	Sololá	1	Sololá	1	Enero	2023-01-19T00:00:00	2024-11-08T07:00:00	4	Temperatura máxima	9.5
1443	7	Sololá	701	Sololá	1	Sololá	1	Enero	2023-01-19T00:00:00	2024-11-08T07:00:00	3	Temperatura mínima	8.7
1444	7	Sololá	701	Sololá	1	Sololá	1	Enero	2023-01-19T00:00:00	2024-11-08T07:00:00	5	Humedad	37
1445	7	Sololá	701	Sololá	1	Sololá	1	Enero	2023-01-19T00:00:00	2024-11-08T07:00:00	6	Velocidad del viento	3.2
1446	7	Sololá	701	Sololá	1	Sololá	1	Enero	2023-01-19T00:00:00	2024-11-08T07:00:00	7	Dirección del viento	3.22
1447	7	Sololá	701	Sololá	1	Sololá	1	Enero	2023-01-19T00:00:00	2024-11-08T07:00:00	1	Precipitación	0
1448	7	Sololá	701	Sololá	1	Sololá	1	Enero	2023-01-19T00:00:00	2024-11-08T07:00:00	8	Radiación solar	3
1449	7	Sololá	701	Sololá	1	Sololá	1	Enero	2023-01-19T00:00:00	2024-11-08T08:00:00	2	Temperatura media	10.3
1450	7	Sololá	701	Sololá	1	Sololá	1	Enero	2023-01-19T00:00:00	2024-11-08T08:00:00	4	Temperatura máxima	10.3
1451	7	Sololá	701	Sololá	1	Sololá	1	Enero	2023-01-19T00:00:00	2024-11-08T08:00:00	3	Temperatura mínima	8.7
1452	7	Sololá	701	Sololá	1	Sololá	1	Enero	2023-01-19T00:00:00	2024-11-08T08:00:00	5	Humedad	45
1453	7	Sololá	701	Sololá	1	Sololá	1	Enero	2023-01-19T00:00:00	2024-11-08T08:00:00	6	Velocidad del viento	1.6
1454	7	Sololá	701	Sololá	1	Sololá	1	Enero	2023-01-19T00:00:00	2024-11-08T08:00:00	7	Dirección del viento	1.61
1455	7	Sololá	701	Sololá	1	Sololá	1	Enero	2023-01-19T00:00:00	2024-11-08T08:00:00	1	Precipitación	0
1456	7	Sololá	701	Sololá	1	Sololá	1	Enero	2023-01-19T00:00:00	2024-11-08T08:00:00	8	Radiación solar	21
1457	7	Sololá	701	Sololá	1	Sololá	1	Enero	2023-01-19T00:00:00	2024-11-08T09:00:00	2	Temperatura media	16.2
1458	7	Sololá	701	Sololá	1	Sololá	1	Enero	2023-01-19T00:00:00	2024-11-08T09:00:00	4	Temperatura máxima	16.2
1459	7	Sololá	701	Sololá	1	Sololá	1	Enero	2023-01-19T00:00:00	2024-11-08T09:00:00	3	Temperatura mínima	10.3
1460	7	Sololá	701	Sololá	1	Sololá	1	Enero	2023-01-19T00:00:00	2024-11-08T09:00:00	5	Humedad	55
1461	7	Sololá	701	Sololá	1	Sololá	1	Enero	2023-01-19T00:00:00	2024-11-08T09:00:00	6	Velocidad del viento	0
1462	7	Sololá	701	Sololá	1	Sololá	1	Enero	2023-01-19T00:00:00	2024-11-08T09:00:00	7	Dirección del viento	0
1463	7	Sololá	701	Sololá	1	Sololá	1	Enero	2023-01-19T00:00:00	2024-11-08T09:00:00	1	Precipitación	0
1464	7	Sololá	701	Sololá	1	Sololá	1	Enero	2023-01-19T00:00:00	2024-11-08T09:00:00	8	Radiación solar	377
1465	7	Sololá	701	Sololá	1	Sololá	1	Enero	2023-01-19T00:00:00	2024-11-08T10:00:00	2	Temperatura media	17.3
1466	7	Sololá	701	Sololá	1	Sololá	1	Enero	2023-01-19T00:00:00	2024-11-08T10:00:00	4	Temperatura máxima	17.5
1467	7	Sololá	701	Sololá	1	Sololá	1	Enero	2023-01-19T00:00:00	2024-11-08T10:00:00	3	Temperatura mínima	16.2
1468	7	Sololá	701	Sololá	1	Sololá	1	Enero	2023-01-19T00:00:00	2024-11-08T10:00:00	5	Humedad	53
1469	7	Sololá	701	Sololá	1	Sololá	1	Enero	2023-01-19T00:00:00	2024-11-08T10:00:00	6	Velocidad del viento	0
1470	7	Sololá	701	Sololá	1	Sololá	1	Enero	2023-01-19T00:00:00	2024-11-08T10:00:00	7	Dirección del viento	0
1471	7	Sololá	701	Sololá	1	Sololá	1	Enero	2023-01-19T00:00:00	2024-11-08T10:00:00	1	Precipitación	0
1472	7	Sololá	701	Sololá	1	Sololá	1	Enero	2023-01-19T00:00:00	2024-11-08T10:00:00	8	Radiación solar	647
1473	7	Sololá	701	Sololá	1	Sololá	1	Enero	2023-01-19T00:00:00	2024-11-08T11:00:00	2	Temperatura media	18.3
1474	7	Sololá	701	Sololá	1	Sololá	1	Enero	2023-01-19T00:00:00	2024-11-08T11:00:00	4	Temperatura máxima	18.3
1475	7	Sololá	701	Sololá	1	Sololá	1	Enero	2023-01-19T00:00:00	2024-11-08T11:00:00	3	Temperatura mínima	17.3
1476	7	Sololá	701	Sololá	1	Sololá	1	Enero	2023-01-19T00:00:00	2024-11-08T11:00:00	5	Humedad	54
1477	7	Sololá	701	Sololá	1	Sololá	1	Enero	2023-01-19T00:00:00	2024-11-08T11:00:00	6	Velocidad del viento	0
1478	7	Sololá	701	Sololá	1	Sololá	1	Enero	2023-01-19T00:00:00	2024-11-08T11:00:00	7	Dirección del viento	0
1479	7	Sololá	701	Sololá	1	Sololá	1	Enero	2023-01-19T00:00:00	2024-11-08T11:00:00	1	Precipitación	0
1480	7	Sololá	701	Sololá	1	Sololá	1	Enero	2023-01-19T00:00:00	2024-11-08T11:00:00	8	Radiación solar	785
1481	7	Sololá	701	Sololá	1	Sololá	1	Enero	2023-01-19T00:00:00	2024-11-08T12:00:00	2	Temperatura media	19.4
1482	7	Sololá	701	Sololá	1	Sololá	1	Enero	2023-01-19T00:00:00	2024-11-08T12:00:00	4	Temperatura máxima	19.6
1483	7	Sololá	701	Sololá	1	Sololá	1	Enero	2023-01-19T00:00:00	2024-11-08T12:00:00	3	Temperatura mínima	18.3
1484	7	Sololá	701	Sololá	1	Sololá	1	Enero	2023-01-19T00:00:00	2024-11-08T12:00:00	5	Humedad	44
1485	7	Sololá	701	Sololá	1	Sololá	1	Enero	2023-01-19T00:00:00	2024-11-08T12:00:00	6	Velocidad del viento	0
1486	7	Sololá	701	Sololá	1	Sololá	1	Enero	2023-01-19T00:00:00	2024-11-08T12:00:00	7	Dirección del viento	0
1487	7	Sololá	701	Sololá	1	Sololá	1	Enero	2023-01-19T00:00:00	2024-11-08T12:00:00	1	Precipitación	0
1488	7	Sololá	701	Sololá	1	Sololá	1	Enero	2023-01-19T00:00:00	2024-11-08T12:00:00	8	Radiación solar	853
1489	7	Sololá	701	Sololá	1	Sololá	1	Enero	2023-01-19T00:00:00	2024-11-08T13:00:00	2	Temperatura media	19.8
1490	7	Sololá	701	Sololá	1	Sololá	1	Enero	2023-01-19T00:00:00	2024-11-08T13:00:00	4	Temperatura máxima	20.2
1491	7	Sololá	701	Sololá	1	Sololá	1	Enero	2023-01-19T00:00:00	2024-11-08T13:00:00	3	Temperatura mínima	19.5
1492	7	Sololá	701	Sololá	1	Sololá	1	Enero	2023-01-19T00:00:00	2024-11-08T13:00:00	5	Humedad	55
1493	7	Sololá	701	Sololá	1	Sololá	1	Enero	2023-01-19T00:00:00	2024-11-08T13:00:00	6	Velocidad del viento	1.6
1494	7	Sololá	701	Sololá	1	Sololá	1	Enero	2023-01-19T00:00:00	2024-11-08T13:00:00	7	Dirección del viento	1.61
1495	7	Sololá	701	Sololá	1	Sololá	1	Enero	2023-01-19T00:00:00	2024-11-08T13:00:00	1	Precipitación	0
1496	7	Sololá	701	Sololá	1	Sololá	1	Enero	2023-01-19T00:00:00	2024-11-08T13:00:00	8	Radiación solar	848
1497	7	Sololá	701	Sololá	1	Sololá	1	Enero	2023-01-19T00:00:00	2024-11-08T14:00:00	2	Temperatura media	19.3
1498	7	Sololá	701	Sololá	1	Sololá	1	Enero	2023-01-19T00:00:00	2024-11-08T14:00:00	4	Temperatura máxima	19.9
1499	7	Sololá	701	Sololá	1	Sololá	1	Enero	2023-01-19T00:00:00	2024-11-08T14:00:00	3	Temperatura mínima	19.1
1500	7	Sololá	701	Sololá	1	Sololá	1	Enero	2023-01-19T00:00:00	2024-11-08T14:00:00	5	Humedad	66
1501	7	Sololá	701	Sololá	1	Sololá	1	Enero	2023-01-19T00:00:00	2024-11-08T14:00:00	6	Velocidad del viento	0
1502	7	Sololá	701	Sololá	1	Sololá	1	Enero	2023-01-19T00:00:00	2024-11-08T14:00:00	7	Dirección del viento	0
1503	7	Sololá	701	Sololá	1	Sololá	1	Enero	2023-01-19T00:00:00	2024-11-08T14:00:00	1	Precipitación	0
1504	7	Sololá	701	Sololá	1	Sololá	1	Enero	2023-01-19T00:00:00	2024-11-08T14:00:00	8	Radiación solar	178
1505	7	Sololá	701	Sololá	1	Sololá	1	Enero	2023-01-19T00:00:00	2024-11-08T15:00:00	2	Temperatura media	18.7
1506	7	Sololá	701	Sololá	1	Sololá	1	Enero	2023-01-19T00:00:00	2024-11-08T15:00:00	4	Temperatura máxima	19.3
1507	7	Sololá	701	Sololá	1	Sololá	1	Enero	2023-01-19T00:00:00	2024-11-08T15:00:00	3	Temperatura mínima	18.3
1508	7	Sololá	701	Sololá	1	Sololá	1	Enero	2023-01-19T00:00:00	2024-11-08T15:00:00	5	Humedad	69
1509	7	Sololá	701	Sololá	1	Sololá	1	Enero	2023-01-19T00:00:00	2024-11-08T15:00:00	6	Velocidad del viento	0
1510	7	Sololá	701	Sololá	1	Sololá	1	Enero	2023-01-19T00:00:00	2024-11-08T15:00:00	7	Dirección del viento	0
1511	7	Sololá	701	Sololá	1	Sololá	1	Enero	2023-01-19T00:00:00	2024-11-08T15:00:00	1	Precipitación	0
1512	7	Sololá	701	Sololá	1	Sololá	1	Enero	2023-01-19T00:00:00	2024-11-08T15:00:00	8	Radiación solar	182
1513	7	Sololá	701	Sololá	1	Sololá	1	Enero	2023-01-19T00:00:00	2024-11-08T16:00:00	2	Temperatura media	18.3
1514	7	Sololá	701	Sololá	1	Sololá	1	Enero	2023-01-19T00:00:00	2024-11-08T16:00:00	4	Temperatura máxima	18.7
1515	7	Sololá	701	Sololá	1	Sololá	1	Enero	2023-01-19T00:00:00	2024-11-08T16:00:00	3	Temperatura mínima	18.1
1516	7	Sololá	701	Sololá	1	Sololá	1	Enero	2023-01-19T00:00:00	2024-11-08T16:00:00	5	Humedad	72
1517	7	Sololá	701	Sololá	1	Sololá	1	Enero	2023-01-19T00:00:00	2024-11-08T16:00:00	6	Velocidad del viento	0
1518	7	Sololá	701	Sololá	1	Sololá	1	Enero	2023-01-19T00:00:00	2024-11-08T16:00:00	7	Dirección del viento	0
1519	7	Sololá	701	Sololá	1	Sololá	1	Enero	2023-01-19T00:00:00	2024-11-08T16:00:00	1	Precipitación	0
1520	7	Sololá	701	Sololá	1	Sololá	1	Enero	2023-01-19T00:00:00	2024-11-08T16:00:00	8	Radiación solar	227
1521	7	Sololá	701	Sololá	1	Sololá	1	Enero	2023-01-19T00:00:00	2024-11-08T17:00:00	2	Temperatura media	16.6
1522	7	Sololá	701	Sololá	1	Sololá	1	Enero	2023-01-19T00:00:00	2024-11-08T17:00:00	4	Temperatura máxima	18.3
1523	7	Sololá	701	Sololá	1	Sololá	1	Enero	2023-01-19T00:00:00	2024-11-08T17:00:00	3	Temperatura mínima	16.6
1524	7	Sololá	701	Sololá	1	Sololá	1	Enero	2023-01-19T00:00:00	2024-11-08T17:00:00	5	Humedad	79
1525	7	Sololá	701	Sololá	1	Sololá	1	Enero	2023-01-19T00:00:00	2024-11-08T17:00:00	6	Velocidad del viento	0
1526	7	Sololá	701	Sololá	1	Sololá	1	Enero	2023-01-19T00:00:00	2024-11-08T17:00:00	7	Dirección del viento	0
1527	7	Sololá	701	Sololá	1	Sololá	1	Enero	2023-01-19T00:00:00	2024-11-08T17:00:00	1	Precipitación	0
1528	7	Sololá	701	Sololá	1	Sololá	1	Enero	2023-01-19T00:00:00	2024-11-08T17:00:00	8	Radiación solar	97
1529	7	Sololá	701	Sololá	1	Sololá	1	Enero	2023-01-19T00:00:00	2024-11-08T18:00:00	2	Temperatura media	14.8
1530	7	Sololá	701	Sololá	1	Sololá	1	Enero	2023-01-19T00:00:00	2024-11-08T18:00:00	4	Temperatura máxima	16.6
1531	7	Sololá	701	Sololá	1	Sololá	1	Enero	2023-01-19T00:00:00	2024-11-08T18:00:00	3	Temperatura mínima	14.8
1532	7	Sololá	701	Sololá	1	Sololá	1	Enero	2023-01-19T00:00:00	2024-11-08T18:00:00	5	Humedad	84
1533	7	Sololá	701	Sololá	1	Sololá	1	Enero	2023-01-19T00:00:00	2024-11-08T18:00:00	6	Velocidad del viento	0
1534	7	Sololá	701	Sololá	1	Sololá	1	Enero	2023-01-19T00:00:00	2024-11-08T18:00:00	7	Dirección del viento	0
1535	7	Sololá	701	Sololá	1	Sololá	1	Enero	2023-01-19T00:00:00	2024-11-08T18:00:00	1	Precipitación	0
1536	7	Sololá	701	Sololá	1	Sololá	1	Enero	2023-01-19T00:00:00	2024-11-08T18:00:00	8	Radiación solar	15
1537	7	Sololá	701	Sololá	1	Sololá	1	Enero	2023-01-19T00:00:00	2024-11-08T19:00:00	2	Temperatura media	13.4
1538	7	Sololá	701	Sololá	1	Sololá	1	Enero	2023-01-19T00:00:00	2024-11-08T19:00:00	4	Temperatura máxima	14.9
1539	7	Sololá	701	Sololá	1	Sololá	1	Enero	2023-01-19T00:00:00	2024-11-08T19:00:00	3	Temperatura mínima	13.4
1540	7	Sololá	701	Sololá	1	Sololá	1	Enero	2023-01-19T00:00:00	2024-11-08T19:00:00	5	Humedad	84
1541	7	Sololá	701	Sololá	1	Sololá	1	Enero	2023-01-19T00:00:00	2024-11-08T19:00:00	6	Velocidad del viento	0
1542	7	Sololá	701	Sololá	1	Sololá	1	Enero	2023-01-19T00:00:00	2024-11-08T19:00:00	7	Dirección del viento	0
1543	7	Sololá	701	Sololá	1	Sololá	1	Enero	2023-01-19T00:00:00	2024-11-08T19:00:00	1	Precipitación	0
1544	7	Sololá	701	Sololá	1	Sololá	1	Enero	2023-01-19T00:00:00	2024-11-08T19:00:00	8	Radiación solar	0
1545	7	Sololá	701	Sololá	1	Sololá	1	Enero	2023-01-19T00:00:00	2024-11-08T20:00:00	2	Temperatura media	11.3
1546	7	Sololá	701	Sololá	1	Sololá	1	Enero	2023-01-19T00:00:00	2024-11-08T20:00:00	4	Temperatura máxima	13.4
1547	7	Sololá	701	Sololá	1	Sololá	1	Enero	2023-01-19T00:00:00	2024-11-08T20:00:00	3	Temperatura mínima	11.3
1548	7	Sololá	701	Sololá	1	Sololá	1	Enero	2023-01-19T00:00:00	2024-11-08T20:00:00	5	Humedad	71
1549	7	Sololá	701	Sololá	1	Sololá	1	Enero	2023-01-19T00:00:00	2024-11-08T20:00:00	6	Velocidad del viento	0
1550	7	Sololá	701	Sololá	1	Sololá	1	Enero	2023-01-19T00:00:00	2024-11-08T20:00:00	7	Dirección del viento	0
1551	7	Sololá	701	Sololá	1	Sololá	1	Enero	2023-01-19T00:00:00	2024-11-08T20:00:00	1	Precipitación	0
1552	7	Sololá	701	Sololá	1	Sololá	1	Enero	2023-01-19T00:00:00	2024-11-08T20:00:00	8	Radiación solar	0
1553	7	Sololá	701	Sololá	1	Sololá	1	Enero	2023-01-19T00:00:00	2024-11-08T21:00:00	2	Temperatura media	13.4
1554	7	Sololá	701	Sololá	1	Sololá	1	Enero	2023-01-19T00:00:00	2024-11-08T21:00:00	4	Temperatura máxima	13.4
1555	7	Sololá	701	Sololá	1	Sololá	1	Enero	2023-01-19T00:00:00	2024-11-08T21:00:00	3	Temperatura mínima	11.3
1556	7	Sololá	701	Sololá	1	Sololá	1	Enero	2023-01-19T00:00:00	2024-11-08T21:00:00	5	Humedad	74
1557	7	Sololá	701	Sololá	1	Sololá	1	Enero	2023-01-19T00:00:00	2024-11-08T21:00:00	6	Velocidad del viento	0
1558	7	Sololá	701	Sololá	1	Sololá	1	Enero	2023-01-19T00:00:00	2024-11-08T21:00:00	7	Dirección del viento	0
1559	7	Sololá	701	Sololá	1	Sololá	1	Enero	2023-01-19T00:00:00	2024-11-08T21:00:00	1	Precipitación	0
1560	7	Sololá	701	Sololá	1	Sololá	1	Enero	2023-01-19T00:00:00	2024-11-08T21:00:00	8	Radiación solar	0
1561	7	Sololá	701	Sololá	1	Sololá	1	Enero	2023-01-19T00:00:00	2024-11-08T22:00:00	2	Temperatura media	13.8
1562	7	Sololá	701	Sololá	1	Sololá	1	Enero	2023-01-19T00:00:00	2024-11-08T22:00:00	4	Temperatura máxima	13.9
1563	7	Sololá	701	Sololá	1	Sololá	1	Enero	2023-01-19T00:00:00	2024-11-08T22:00:00	3	Temperatura mínima	13.4
1564	7	Sololá	701	Sololá	1	Sololá	1	Enero	2023-01-19T00:00:00	2024-11-08T22:00:00	5	Humedad	69
1565	7	Sololá	701	Sololá	1	Sololá	1	Enero	2023-01-19T00:00:00	2024-11-08T22:00:00	6	Velocidad del viento	0
1566	7	Sololá	701	Sololá	1	Sololá	1	Enero	2023-01-19T00:00:00	2024-11-08T22:00:00	7	Dirección del viento	0
1567	7	Sololá	701	Sololá	1	Sololá	1	Enero	2023-01-19T00:00:00	2024-11-08T22:00:00	1	Precipitación	0
1568	7	Sololá	701	Sololá	1	Sololá	1	Enero	2023-01-19T00:00:00	2024-11-08T22:00:00	8	Radiación solar	0
1569	7	Sololá	701	Sololá	1	Sololá	1	Enero	2023-01-19T00:00:00	2024-11-08T23:00:00	2	Temperatura media	12.3
1570	7	Sololá	701	Sololá	1	Sololá	1	Enero	2023-01-19T00:00:00	2024-11-08T23:00:00	4	Temperatura máxima	13.8
1571	7	Sololá	701	Sololá	1	Sololá	1	Enero	2023-01-19T00:00:00	2024-11-08T23:00:00	3	Temperatura mínima	12.3
1572	7	Sololá	701	Sololá	1	Sololá	1	Enero	2023-01-19T00:00:00	2024-11-08T23:00:00	5	Humedad	73
1573	7	Sololá	701	Sololá	1	Sololá	1	Enero	2023-01-19T00:00:00	2024-11-08T23:00:00	6	Velocidad del viento	0
1574	7	Sololá	701	Sololá	1	Sololá	1	Enero	2023-01-19T00:00:00	2024-11-08T23:00:00	7	Dirección del viento	0
1575	7	Sololá	701	Sololá	1	Sololá	1	Enero	2023-01-19T00:00:00	2024-11-08T23:00:00	1	Precipitación	0
1576	7	Sololá	701	Sololá	1	Sololá	1	Enero	2023-01-19T00:00:00	2024-11-08T23:00:00	8	Radiación solar	0
1577	7	Sololá	701	Sololá	1	Sololá	1	Enero	2023-01-20T00:00:00	2024-11-08T00:00:00	2	Temperatura media	11.6
1578	7	Sololá	701	Sololá	1	Sololá	1	Enero	2023-01-20T00:00:00	2024-11-08T00:00:00	4	Temperatura máxima	12.3
1579	7	Sololá	701	Sololá	1	Sololá	1	Enero	2023-01-20T00:00:00	2024-11-08T00:00:00	3	Temperatura mínima	11.6
1580	7	Sololá	701	Sololá	1	Sololá	1	Enero	2023-01-20T00:00:00	2024-11-08T00:00:00	5	Humedad	80
1581	7	Sololá	701	Sololá	1	Sololá	1	Enero	2023-01-20T00:00:00	2024-11-08T00:00:00	6	Velocidad del viento	0
1582	7	Sololá	701	Sololá	1	Sololá	1	Enero	2023-01-20T00:00:00	2024-11-08T00:00:00	7	Dirección del viento	0
1583	7	Sololá	701	Sololá	1	Sololá	1	Enero	2023-01-20T00:00:00	2024-11-08T00:00:00	1	Precipitación	0
1584	7	Sololá	701	Sololá	1	Sololá	1	Enero	2023-01-20T00:00:00	2024-11-08T00:00:00	8	Radiación solar	0
1585	7	Sololá	701	Sololá	1	Sololá	1	Enero	2023-01-20T00:00:00	2024-11-08T01:00:00	2	Temperatura media	11.3
1586	7	Sololá	701	Sololá	1	Sololá	1	Enero	2023-01-20T00:00:00	2024-11-08T01:00:00	4	Temperatura máxima	11.6
1587	7	Sololá	701	Sololá	1	Sololá	1	Enero	2023-01-20T00:00:00	2024-11-08T01:00:00	3	Temperatura mínima	11.3
1588	7	Sololá	701	Sololá	1	Sololá	1	Enero	2023-01-20T00:00:00	2024-11-08T01:00:00	5	Humedad	80
1589	7	Sololá	701	Sololá	1	Sololá	1	Enero	2023-01-20T00:00:00	2024-11-08T01:00:00	6	Velocidad del viento	1.6
1590	7	Sololá	701	Sololá	1	Sololá	1	Enero	2023-01-20T00:00:00	2024-11-08T01:00:00	7	Dirección del viento	1.61
1591	7	Sololá	701	Sololá	1	Sololá	1	Enero	2023-01-20T00:00:00	2024-11-08T01:00:00	1	Precipitación	0
1592	7	Sololá	701	Sololá	1	Sololá	1	Enero	2023-01-20T00:00:00	2024-11-08T01:00:00	8	Radiación solar	0
1593	7	Sololá	701	Sololá	1	Sololá	1	Enero	2023-01-20T00:00:00	2024-11-08T02:00:00	2	Temperatura media	10.5
1594	7	Sololá	701	Sololá	1	Sololá	1	Enero	2023-01-20T00:00:00	2024-11-08T02:00:00	4	Temperatura máxima	11.3
1595	7	Sololá	701	Sololá	1	Sololá	1	Enero	2023-01-20T00:00:00	2024-11-08T02:00:00	3	Temperatura mínima	10.5
1596	7	Sololá	701	Sololá	1	Sololá	1	Enero	2023-01-20T00:00:00	2024-11-08T02:00:00	5	Humedad	79
1597	7	Sololá	701	Sololá	1	Sololá	1	Enero	2023-01-20T00:00:00	2024-11-08T02:00:00	6	Velocidad del viento	0
1598	7	Sololá	701	Sololá	1	Sololá	1	Enero	2023-01-20T00:00:00	2024-11-08T02:00:00	7	Dirección del viento	0
1599	7	Sololá	701	Sololá	1	Sololá	1	Enero	2023-01-20T00:00:00	2024-11-08T02:00:00	1	Precipitación	0
1600	7	Sololá	701	Sololá	1	Sololá	1	Enero	2023-01-20T00:00:00	2024-11-08T02:00:00	8	Radiación solar	0
1601	7	Sololá	701	Sololá	1	Sololá	1	Enero	2023-01-20T00:00:00	2024-11-08T03:00:00	2	Temperatura media	10.9
1602	7	Sololá	701	Sololá	1	Sololá	1	Enero	2023-01-20T00:00:00	2024-11-08T03:00:00	4	Temperatura máxima	10.9
1603	7	Sololá	701	Sololá	1	Sololá	1	Enero	2023-01-20T00:00:00	2024-11-08T03:00:00	3	Temperatura mínima	10.3
1604	7	Sololá	701	Sololá	1	Sololá	1	Enero	2023-01-20T00:00:00	2024-11-08T03:00:00	5	Humedad	74
1605	7	Sololá	701	Sololá	1	Sololá	1	Enero	2023-01-20T00:00:00	2024-11-08T03:00:00	6	Velocidad del viento	1.6
1606	7	Sololá	701	Sololá	1	Sololá	1	Enero	2023-01-20T00:00:00	2024-11-08T03:00:00	7	Dirección del viento	1.61
1607	7	Sololá	701	Sololá	1	Sololá	1	Enero	2023-01-20T00:00:00	2024-11-08T03:00:00	1	Precipitación	0
1608	7	Sololá	701	Sololá	1	Sololá	1	Enero	2023-01-20T00:00:00	2024-11-08T03:00:00	8	Radiación solar	0
1609	7	Sololá	701	Sololá	1	Sololá	1	Enero	2023-01-20T00:00:00	2024-11-08T04:00:00	2	Temperatura media	9.8
1610	7	Sololá	701	Sololá	1	Sololá	1	Enero	2023-01-20T00:00:00	2024-11-08T04:00:00	4	Temperatura máxima	11.2
1611	7	Sololá	701	Sololá	1	Sololá	1	Enero	2023-01-20T00:00:00	2024-11-08T04:00:00	3	Temperatura mínima	9.8
1612	7	Sololá	701	Sololá	1	Sololá	1	Enero	2023-01-20T00:00:00	2024-11-08T04:00:00	5	Humedad	70
1613	7	Sololá	701	Sololá	1	Sololá	1	Enero	2023-01-20T00:00:00	2024-11-08T04:00:00	6	Velocidad del viento	1.6
1614	7	Sololá	701	Sololá	1	Sololá	1	Enero	2023-01-20T00:00:00	2024-11-08T04:00:00	7	Dirección del viento	1.61
1615	7	Sololá	701	Sololá	1	Sololá	1	Enero	2023-01-20T00:00:00	2024-11-08T04:00:00	1	Precipitación	0
1616	7	Sololá	701	Sololá	1	Sololá	1	Enero	2023-01-20T00:00:00	2024-11-08T04:00:00	8	Radiación solar	0
1617	7	Sololá	701	Sololá	1	Sololá	1	Enero	2023-01-20T00:00:00	2024-11-08T05:00:00	2	Temperatura media	8.9
1618	7	Sololá	701	Sololá	1	Sololá	1	Enero	2023-01-20T00:00:00	2024-11-08T05:00:00	4	Temperatura máxima	9.8
1619	7	Sololá	701	Sololá	1	Sololá	1	Enero	2023-01-20T00:00:00	2024-11-08T05:00:00	3	Temperatura mínima	8.9
1620	7	Sololá	701	Sololá	1	Sololá	1	Enero	2023-01-20T00:00:00	2024-11-08T05:00:00	5	Humedad	73
1621	7	Sololá	701	Sololá	1	Sololá	1	Enero	2023-01-20T00:00:00	2024-11-08T05:00:00	6	Velocidad del viento	0
1622	7	Sololá	701	Sololá	1	Sololá	1	Enero	2023-01-20T00:00:00	2024-11-08T05:00:00	7	Dirección del viento	0
1623	7	Sololá	701	Sololá	1	Sololá	1	Enero	2023-01-20T00:00:00	2024-11-08T05:00:00	1	Precipitación	0
1624	7	Sololá	701	Sololá	1	Sololá	1	Enero	2023-01-20T00:00:00	2024-11-08T05:00:00	8	Radiación solar	0
1625	7	Sololá	701	Sololá	1	Sololá	1	Enero	2023-01-20T00:00:00	2024-11-08T06:00:00	2	Temperatura media	9.7
1626	7	Sololá	701	Sololá	1	Sololá	1	Enero	2023-01-20T00:00:00	2024-11-08T06:00:00	4	Temperatura máxima	9.7
1627	7	Sololá	701	Sololá	1	Sololá	1	Enero	2023-01-20T00:00:00	2024-11-08T06:00:00	3	Temperatura mínima	8.8
1628	7	Sololá	701	Sololá	1	Sololá	1	Enero	2023-01-20T00:00:00	2024-11-08T06:00:00	5	Humedad	73
1629	7	Sololá	701	Sololá	1	Sololá	1	Enero	2023-01-20T00:00:00	2024-11-08T06:00:00	6	Velocidad del viento	0
1630	7	Sololá	701	Sololá	1	Sololá	1	Enero	2023-01-20T00:00:00	2024-11-08T06:00:00	7	Dirección del viento	0
1631	7	Sololá	701	Sololá	1	Sololá	1	Enero	2023-01-20T00:00:00	2024-11-08T06:00:00	1	Precipitación	0
1632	7	Sololá	701	Sololá	1	Sololá	1	Enero	2023-01-20T00:00:00	2024-11-08T06:00:00	8	Radiación solar	0
1633	7	Sololá	701	Sololá	1	Sololá	1	Enero	2023-01-20T00:00:00	2024-11-08T07:00:00	2	Temperatura media	9.4
1634	7	Sololá	701	Sololá	1	Sololá	1	Enero	2023-01-20T00:00:00	2024-11-08T07:00:00	4	Temperatura máxima	9.8
1635	7	Sololá	701	Sololá	1	Sololá	1	Enero	2023-01-20T00:00:00	2024-11-08T07:00:00	3	Temperatura mínima	9.4
1636	7	Sololá	701	Sololá	1	Sololá	1	Enero	2023-01-20T00:00:00	2024-11-08T07:00:00	5	Humedad	79
1637	7	Sololá	701	Sololá	1	Sololá	1	Enero	2023-01-20T00:00:00	2024-11-08T07:00:00	6	Velocidad del viento	0
1638	7	Sololá	701	Sololá	1	Sololá	1	Enero	2023-01-20T00:00:00	2024-11-08T07:00:00	7	Dirección del viento	0
1639	7	Sololá	701	Sololá	1	Sololá	1	Enero	2023-01-20T00:00:00	2024-11-08T07:00:00	1	Precipitación	0
1640	7	Sololá	701	Sololá	1	Sololá	1	Enero	2023-01-20T00:00:00	2024-11-08T07:00:00	8	Radiación solar	3
1641	7	Sololá	701	Sololá	1	Sololá	1	Enero	2023-01-20T00:00:00	2024-11-08T08:00:00	2	Temperatura media	12.1
1642	7	Sololá	701	Sololá	1	Sololá	1	Enero	2023-01-20T00:00:00	2024-11-08T08:00:00	4	Temperatura máxima	12.1
1643	7	Sololá	701	Sololá	1	Sololá	1	Enero	2023-01-20T00:00:00	2024-11-08T08:00:00	3	Temperatura mínima	9.4
1644	7	Sololá	701	Sololá	1	Sololá	1	Enero	2023-01-20T00:00:00	2024-11-08T08:00:00	5	Humedad	76
1645	7	Sololá	701	Sololá	1	Sololá	1	Enero	2023-01-20T00:00:00	2024-11-08T08:00:00	6	Velocidad del viento	0
1646	7	Sololá	701	Sololá	1	Sololá	1	Enero	2023-01-20T00:00:00	2024-11-08T08:00:00	7	Dirección del viento	0
1647	7	Sololá	701	Sololá	1	Sololá	1	Enero	2023-01-20T00:00:00	2024-11-08T08:00:00	1	Precipitación	0
1648	7	Sololá	701	Sololá	1	Sololá	1	Enero	2023-01-20T00:00:00	2024-11-08T08:00:00	8	Radiación solar	20
1649	7	Sololá	701	Sololá	1	Sololá	1	Enero	2023-01-20T00:00:00	2024-11-08T09:00:00	2	Temperatura media	18.6
1650	7	Sololá	701	Sololá	1	Sololá	1	Enero	2023-01-20T00:00:00	2024-11-08T09:00:00	4	Temperatura máxima	18.6
1651	7	Sololá	701	Sololá	1	Sololá	1	Enero	2023-01-20T00:00:00	2024-11-08T09:00:00	3	Temperatura mínima	12.1
1652	7	Sololá	701	Sololá	1	Sololá	1	Enero	2023-01-20T00:00:00	2024-11-08T09:00:00	5	Humedad	55
1653	7	Sololá	701	Sololá	1	Sololá	1	Enero	2023-01-20T00:00:00	2024-11-08T09:00:00	6	Velocidad del viento	0
1654	7	Sololá	701	Sololá	1	Sololá	1	Enero	2023-01-20T00:00:00	2024-11-08T09:00:00	7	Dirección del viento	0
1655	7	Sololá	701	Sololá	1	Sololá	1	Enero	2023-01-20T00:00:00	2024-11-08T09:00:00	1	Precipitación	0
1656	7	Sololá	701	Sololá	1	Sololá	1	Enero	2023-01-20T00:00:00	2024-11-08T09:00:00	8	Radiación solar	365
1657	7	Sololá	701	Sololá	1	Sololá	1	Enero	2023-01-20T00:00:00	2024-11-08T10:00:00	2	Temperatura media	20.5
1658	7	Sololá	701	Sololá	1	Sololá	1	Enero	2023-01-20T00:00:00	2024-11-08T10:00:00	4	Temperatura máxima	20.6
1659	7	Sololá	701	Sololá	1	Sololá	1	Enero	2023-01-20T00:00:00	2024-11-08T10:00:00	3	Temperatura mínima	18.6
1660	7	Sololá	701	Sololá	1	Sololá	1	Enero	2023-01-20T00:00:00	2024-11-08T10:00:00	5	Humedad	53
1661	7	Sololá	701	Sololá	1	Sololá	1	Enero	2023-01-20T00:00:00	2024-11-08T10:00:00	6	Velocidad del viento	0
1662	7	Sololá	701	Sololá	1	Sololá	1	Enero	2023-01-20T00:00:00	2024-11-08T10:00:00	7	Dirección del viento	0
1663	7	Sololá	701	Sololá	1	Sololá	1	Enero	2023-01-20T00:00:00	2024-11-08T10:00:00	1	Precipitación	0
1664	7	Sololá	701	Sololá	1	Sololá	1	Enero	2023-01-20T00:00:00	2024-11-08T10:00:00	8	Radiación solar	620
1665	7	Sololá	701	Sololá	1	Sololá	1	Enero	2023-01-20T00:00:00	2024-11-08T11:00:00	2	Temperatura media	21.5
1666	7	Sololá	701	Sololá	1	Sololá	1	Enero	2023-01-20T00:00:00	2024-11-08T11:00:00	4	Temperatura máxima	21.6
1667	7	Sololá	701	Sololá	1	Sololá	1	Enero	2023-01-20T00:00:00	2024-11-08T11:00:00	3	Temperatura mínima	20.5
1668	7	Sololá	701	Sololá	1	Sololá	1	Enero	2023-01-20T00:00:00	2024-11-08T11:00:00	5	Humedad	50
1669	7	Sololá	701	Sololá	1	Sololá	1	Enero	2023-01-20T00:00:00	2024-11-08T11:00:00	6	Velocidad del viento	0
1670	7	Sololá	701	Sololá	1	Sololá	1	Enero	2023-01-20T00:00:00	2024-11-08T11:00:00	7	Dirección del viento	0
1671	7	Sololá	701	Sololá	1	Sololá	1	Enero	2023-01-20T00:00:00	2024-11-08T11:00:00	1	Precipitación	0
1672	7	Sololá	701	Sololá	1	Sololá	1	Enero	2023-01-20T00:00:00	2024-11-08T11:00:00	8	Radiación solar	763
1673	7	Sololá	701	Sololá	1	Sololá	1	Enero	2023-01-20T00:00:00	2024-11-08T12:00:00	2	Temperatura media	23.7
1674	7	Sololá	701	Sololá	1	Sololá	1	Enero	2023-01-20T00:00:00	2024-11-08T12:00:00	4	Temperatura máxima	23.7
1675	7	Sololá	701	Sololá	1	Sololá	1	Enero	2023-01-20T00:00:00	2024-11-08T12:00:00	3	Temperatura mínima	21.2
1676	7	Sololá	701	Sololá	1	Sololá	1	Enero	2023-01-20T00:00:00	2024-11-08T12:00:00	5	Humedad	39
1677	7	Sololá	701	Sololá	1	Sololá	1	Enero	2023-01-20T00:00:00	2024-11-08T12:00:00	6	Velocidad del viento	0
1678	7	Sololá	701	Sololá	1	Sololá	1	Enero	2023-01-20T00:00:00	2024-11-08T12:00:00	7	Dirección del viento	0
1679	7	Sololá	701	Sololá	1	Sololá	1	Enero	2023-01-20T00:00:00	2024-11-08T12:00:00	1	Precipitación	0
1680	7	Sololá	701	Sololá	1	Sololá	1	Enero	2023-01-20T00:00:00	2024-11-08T12:00:00	8	Radiación solar	834
1681	7	Sololá	701	Sololá	1	Sololá	1	Enero	2023-01-20T00:00:00	2024-11-08T13:00:00	2	Temperatura media	23.7
1682	7	Sololá	701	Sololá	1	Sololá	1	Enero	2023-01-20T00:00:00	2024-11-08T13:00:00	4	Temperatura máxima	24.2
1683	7	Sololá	701	Sololá	1	Sololá	1	Enero	2023-01-20T00:00:00	2024-11-08T13:00:00	3	Temperatura mínima	23.7
1684	7	Sololá	701	Sololá	1	Sololá	1	Enero	2023-01-20T00:00:00	2024-11-08T13:00:00	5	Humedad	35
1685	7	Sololá	701	Sololá	1	Sololá	1	Enero	2023-01-20T00:00:00	2024-11-08T13:00:00	6	Velocidad del viento	1.6
1686	7	Sololá	701	Sololá	1	Sololá	1	Enero	2023-01-20T00:00:00	2024-11-08T13:00:00	7	Dirección del viento	1.61
1687	7	Sololá	701	Sololá	1	Sololá	1	Enero	2023-01-20T00:00:00	2024-11-08T13:00:00	1	Precipitación	0
1688	7	Sololá	701	Sololá	1	Sololá	1	Enero	2023-01-20T00:00:00	2024-11-08T13:00:00	8	Radiación solar	837
1689	7	Sololá	701	Sololá	1	Sololá	1	Enero	2023-01-20T00:00:00	2024-11-08T14:00:00	2	Temperatura media	20.8
1690	7	Sololá	701	Sololá	1	Sololá	1	Enero	2023-01-20T00:00:00	2024-11-08T14:00:00	4	Temperatura máxima	24
1691	7	Sololá	701	Sololá	1	Sololá	1	Enero	2023-01-20T00:00:00	2024-11-08T14:00:00	3	Temperatura mínima	20.8
1692	7	Sololá	701	Sololá	1	Sololá	1	Enero	2023-01-20T00:00:00	2024-11-08T14:00:00	5	Humedad	64
1693	7	Sololá	701	Sololá	1	Sololá	1	Enero	2023-01-20T00:00:00	2024-11-08T14:00:00	6	Velocidad del viento	0
1694	7	Sololá	701	Sololá	1	Sololá	1	Enero	2023-01-20T00:00:00	2024-11-08T14:00:00	7	Dirección del viento	0
1695	7	Sololá	701	Sololá	1	Sololá	1	Enero	2023-01-20T00:00:00	2024-11-08T14:00:00	1	Precipitación	0
1696	7	Sololá	701	Sololá	1	Sololá	1	Enero	2023-01-20T00:00:00	2024-11-08T14:00:00	8	Radiación solar	208
1697	7	Sololá	701	Sololá	1	Sololá	1	Enero	2023-01-20T00:00:00	2024-11-08T15:00:00	2	Temperatura media	20.3
1698	7	Sololá	701	Sololá	1	Sololá	1	Enero	2023-01-20T00:00:00	2024-11-08T15:00:00	4	Temperatura máxima	20.7
1699	7	Sololá	701	Sololá	1	Sololá	1	Enero	2023-01-20T00:00:00	2024-11-08T15:00:00	3	Temperatura mínima	19.8
1700	7	Sololá	701	Sololá	1	Sololá	1	Enero	2023-01-20T00:00:00	2024-11-08T15:00:00	5	Humedad	69
1701	7	Sololá	701	Sololá	1	Sololá	1	Enero	2023-01-20T00:00:00	2024-11-08T15:00:00	6	Velocidad del viento	0
1702	7	Sololá	701	Sololá	1	Sololá	1	Enero	2023-01-20T00:00:00	2024-11-08T15:00:00	7	Dirección del viento	0
1703	7	Sololá	701	Sololá	1	Sololá	1	Enero	2023-01-20T00:00:00	2024-11-08T15:00:00	1	Precipitación	0
1704	7	Sololá	701	Sololá	1	Sololá	1	Enero	2023-01-20T00:00:00	2024-11-08T15:00:00	8	Radiación solar	181
1705	7	Sololá	701	Sololá	1	Sololá	1	Enero	2023-01-20T00:00:00	2024-11-08T16:00:00	2	Temperatura media	19.8
1706	7	Sololá	701	Sololá	1	Sololá	1	Enero	2023-01-20T00:00:00	2024-11-08T16:00:00	4	Temperatura máxima	20.3
1707	7	Sololá	701	Sololá	1	Sololá	1	Enero	2023-01-20T00:00:00	2024-11-08T16:00:00	3	Temperatura mínima	19.8
1708	7	Sololá	701	Sololá	1	Sololá	1	Enero	2023-01-20T00:00:00	2024-11-08T16:00:00	5	Humedad	72
1709	7	Sololá	701	Sololá	1	Sololá	1	Enero	2023-01-20T00:00:00	2024-11-08T16:00:00	6	Velocidad del viento	0
1710	7	Sololá	701	Sololá	1	Sololá	1	Enero	2023-01-20T00:00:00	2024-11-08T16:00:00	7	Dirección del viento	0
1711	7	Sololá	701	Sololá	1	Sololá	1	Enero	2023-01-20T00:00:00	2024-11-08T16:00:00	1	Precipitación	0
1712	7	Sololá	701	Sololá	1	Sololá	1	Enero	2023-01-20T00:00:00	2024-11-08T16:00:00	8	Radiación solar	127
1713	7	Sololá	701	Sololá	1	Sololá	1	Enero	2023-01-20T00:00:00	2024-11-08T17:00:00	2	Temperatura media	17.4
1714	7	Sololá	701	Sololá	1	Sololá	1	Enero	2023-01-20T00:00:00	2024-11-08T17:00:00	4	Temperatura máxima	19.8
1715	7	Sololá	701	Sololá	1	Sololá	1	Enero	2023-01-20T00:00:00	2024-11-08T17:00:00	3	Temperatura mínima	17.4
1716	7	Sololá	701	Sololá	1	Sololá	1	Enero	2023-01-20T00:00:00	2024-11-08T17:00:00	5	Humedad	81
1717	7	Sololá	701	Sololá	1	Sololá	1	Enero	2023-01-20T00:00:00	2024-11-08T17:00:00	6	Velocidad del viento	0
1718	7	Sololá	701	Sololá	1	Sololá	1	Enero	2023-01-20T00:00:00	2024-11-08T17:00:00	7	Dirección del viento	0
1719	7	Sololá	701	Sololá	1	Sololá	1	Enero	2023-01-20T00:00:00	2024-11-08T17:00:00	1	Precipitación	0
1720	7	Sololá	701	Sololá	1	Sololá	1	Enero	2023-01-20T00:00:00	2024-11-08T17:00:00	8	Radiación solar	90
1721	7	Sololá	701	Sololá	1	Sololá	1	Enero	2023-01-20T00:00:00	2024-11-08T18:00:00	2	Temperatura media	15.7
1722	7	Sololá	701	Sololá	1	Sololá	1	Enero	2023-01-20T00:00:00	2024-11-08T18:00:00	4	Temperatura máxima	17.4
1723	7	Sololá	701	Sololá	1	Sololá	1	Enero	2023-01-20T00:00:00	2024-11-08T18:00:00	3	Temperatura mínima	15.7
1724	7	Sololá	701	Sololá	1	Sololá	1	Enero	2023-01-20T00:00:00	2024-11-08T18:00:00	5	Humedad	86
1725	7	Sololá	701	Sololá	1	Sololá	1	Enero	2023-01-20T00:00:00	2024-11-08T18:00:00	6	Velocidad del viento	0
1726	7	Sololá	701	Sololá	1	Sololá	1	Enero	2023-01-20T00:00:00	2024-11-08T18:00:00	7	Dirección del viento	0
1727	7	Sololá	701	Sololá	1	Sololá	1	Enero	2023-01-20T00:00:00	2024-11-08T18:00:00	1	Precipitación	0
1728	7	Sololá	701	Sololá	1	Sololá	1	Enero	2023-01-20T00:00:00	2024-11-08T18:00:00	8	Radiación solar	13
1729	7	Sololá	701	Sololá	1	Sololá	1	Enero	2023-01-20T00:00:00	2024-11-08T19:00:00	2	Temperatura media	14.3
1730	7	Sololá	701	Sololá	1	Sololá	1	Enero	2023-01-20T00:00:00	2024-11-08T19:00:00	4	Temperatura máxima	15.7
1731	7	Sololá	701	Sololá	1	Sololá	1	Enero	2023-01-20T00:00:00	2024-11-08T19:00:00	3	Temperatura mínima	14.3
1732	7	Sololá	701	Sololá	1	Sololá	1	Enero	2023-01-20T00:00:00	2024-11-08T19:00:00	5	Humedad	73
1733	7	Sololá	701	Sololá	1	Sololá	1	Enero	2023-01-20T00:00:00	2024-11-08T19:00:00	6	Velocidad del viento	0
1734	7	Sololá	701	Sololá	1	Sololá	1	Enero	2023-01-20T00:00:00	2024-11-08T19:00:00	7	Dirección del viento	0
1735	7	Sololá	701	Sololá	1	Sololá	1	Enero	2023-01-20T00:00:00	2024-11-08T19:00:00	1	Precipitación	0
1736	7	Sololá	701	Sololá	1	Sololá	1	Enero	2023-01-20T00:00:00	2024-11-08T19:00:00	8	Radiación solar	0
1737	7	Sololá	701	Sololá	1	Sololá	1	Enero	2023-01-20T00:00:00	2024-11-08T20:00:00	2	Temperatura media	13.8
1738	7	Sololá	701	Sololá	1	Sololá	1	Enero	2023-01-20T00:00:00	2024-11-08T20:00:00	4	Temperatura máxima	14.3
1739	7	Sololá	701	Sololá	1	Sololá	1	Enero	2023-01-20T00:00:00	2024-11-08T20:00:00	3	Temperatura mínima	13.7
1740	7	Sololá	701	Sololá	1	Sololá	1	Enero	2023-01-20T00:00:00	2024-11-08T20:00:00	5	Humedad	79
1741	7	Sololá	701	Sololá	1	Sololá	1	Enero	2023-01-20T00:00:00	2024-11-08T20:00:00	6	Velocidad del viento	0
1742	7	Sololá	701	Sololá	1	Sololá	1	Enero	2023-01-20T00:00:00	2024-11-08T20:00:00	7	Dirección del viento	0
1743	7	Sololá	701	Sololá	1	Sololá	1	Enero	2023-01-20T00:00:00	2024-11-08T20:00:00	1	Precipitación	0
1744	7	Sololá	701	Sololá	1	Sololá	1	Enero	2023-01-20T00:00:00	2024-11-08T20:00:00	8	Radiación solar	0
1745	7	Sololá	701	Sololá	1	Sololá	1	Enero	2023-01-20T00:00:00	2024-11-08T21:00:00	2	Temperatura media	13.8
1746	7	Sololá	701	Sololá	1	Sololá	1	Enero	2023-01-20T00:00:00	2024-11-08T21:00:00	4	Temperatura máxima	13.9
1747	7	Sololá	701	Sololá	1	Sololá	1	Enero	2023-01-20T00:00:00	2024-11-08T21:00:00	3	Temperatura mínima	13.7
1748	7	Sololá	701	Sololá	1	Sololá	1	Enero	2023-01-20T00:00:00	2024-11-08T21:00:00	5	Humedad	83
1749	7	Sololá	701	Sololá	1	Sololá	1	Enero	2023-01-20T00:00:00	2024-11-08T21:00:00	6	Velocidad del viento	0
1750	7	Sololá	701	Sololá	1	Sololá	1	Enero	2023-01-20T00:00:00	2024-11-08T21:00:00	7	Dirección del viento	0
1751	7	Sololá	701	Sololá	1	Sololá	1	Enero	2023-01-20T00:00:00	2024-11-08T21:00:00	1	Precipitación	0
1752	7	Sololá	701	Sololá	1	Sololá	1	Enero	2023-01-20T00:00:00	2024-11-08T21:00:00	8	Radiación solar	0
1753	7	Sololá	701	Sololá	1	Sololá	1	Enero	2023-01-20T00:00:00	2024-11-08T22:00:00	2	Temperatura media	13.7
1754	7	Sololá	701	Sololá	1	Sololá	1	Enero	2023-01-20T00:00:00	2024-11-08T22:00:00	4	Temperatura máxima	13.8
1755	7	Sololá	701	Sololá	1	Sololá	1	Enero	2023-01-20T00:00:00	2024-11-08T22:00:00	3	Temperatura mínima	13.7
1756	7	Sololá	701	Sololá	1	Sololá	1	Enero	2023-01-20T00:00:00	2024-11-08T22:00:00	5	Humedad	84
1757	7	Sololá	701	Sololá	1	Sololá	1	Enero	2023-01-20T00:00:00	2024-11-08T22:00:00	6	Velocidad del viento	0
1758	7	Sololá	701	Sololá	1	Sololá	1	Enero	2023-01-20T00:00:00	2024-11-08T22:00:00	7	Dirección del viento	0
1759	7	Sololá	701	Sololá	1	Sololá	1	Enero	2023-01-20T00:00:00	2024-11-08T22:00:00	1	Precipitación	0
1760	7	Sololá	701	Sololá	1	Sololá	1	Enero	2023-01-20T00:00:00	2024-11-08T22:00:00	8	Radiación solar	0
1761	7	Sololá	701	Sololá	1	Sololá	1	Enero	2023-01-20T00:00:00	2024-11-08T23:00:00	2	Temperatura media	13.7
1762	7	Sololá	701	Sololá	1	Sololá	1	Enero	2023-01-20T00:00:00	2024-11-08T23:00:00	4	Temperatura máxima	13.8
1763	7	Sololá	701	Sololá	1	Sololá	1	Enero	2023-01-20T00:00:00	2024-11-08T23:00:00	3	Temperatura mínima	13.6
1764	7	Sololá	701	Sololá	1	Sololá	1	Enero	2023-01-20T00:00:00	2024-11-08T23:00:00	5	Humedad	81
1765	7	Sololá	701	Sololá	1	Sololá	1	Enero	2023-01-20T00:00:00	2024-11-08T23:00:00	6	Velocidad del viento	0
1766	7	Sololá	701	Sololá	1	Sololá	1	Enero	2023-01-20T00:00:00	2024-11-08T23:00:00	7	Dirección del viento	0
1767	7	Sololá	701	Sololá	1	Sololá	1	Enero	2023-01-20T00:00:00	2024-11-08T23:00:00	1	Precipitación	0
1768	7	Sololá	701	Sololá	1	Sololá	1	Enero	2023-01-20T00:00:00	2024-11-08T23:00:00	8	Radiación solar	0
1769	7	Sololá	701	Sololá	1	Sololá	1	Enero	2023-01-21T00:00:00	2024-11-08T00:00:00	2	Temperatura media	13.4
1770	7	Sololá	701	Sololá	1	Sololá	1	Enero	2023-01-21T00:00:00	2024-11-08T00:00:00	4	Temperatura máxima	13.7
1771	7	Sololá	701	Sololá	1	Sololá	1	Enero	2023-01-21T00:00:00	2024-11-08T00:00:00	3	Temperatura mínima	13.4
1772	7	Sololá	701	Sololá	1	Sololá	1	Enero	2023-01-21T00:00:00	2024-11-08T00:00:00	5	Humedad	81
1773	7	Sololá	701	Sololá	1	Sololá	1	Enero	2023-01-21T00:00:00	2024-11-08T00:00:00	6	Velocidad del viento	0
1774	7	Sololá	701	Sololá	1	Sololá	1	Enero	2023-01-21T00:00:00	2024-11-08T00:00:00	7	Dirección del viento	0
1775	7	Sololá	701	Sololá	1	Sololá	1	Enero	2023-01-21T00:00:00	2024-11-08T00:00:00	1	Precipitación	0
1776	7	Sololá	701	Sololá	1	Sololá	1	Enero	2023-01-21T00:00:00	2024-11-08T00:00:00	8	Radiación solar	0
1777	7	Sololá	701	Sololá	1	Sololá	1	Enero	2023-01-21T00:00:00	2024-11-08T01:00:00	2	Temperatura media	12.3
1778	7	Sololá	701	Sololá	1	Sololá	1	Enero	2023-01-21T00:00:00	2024-11-08T01:00:00	4	Temperatura máxima	13.4
1779	7	Sololá	701	Sololá	1	Sololá	1	Enero	2023-01-21T00:00:00	2024-11-08T01:00:00	3	Temperatura mínima	12.3
1780	7	Sololá	701	Sololá	1	Sololá	1	Enero	2023-01-21T00:00:00	2024-11-08T01:00:00	5	Humedad	82
1781	7	Sololá	701	Sololá	1	Sololá	1	Enero	2023-01-21T00:00:00	2024-11-08T01:00:00	6	Velocidad del viento	0
1782	7	Sololá	701	Sololá	1	Sololá	1	Enero	2023-01-21T00:00:00	2024-11-08T01:00:00	7	Dirección del viento	0
1783	7	Sololá	701	Sololá	1	Sololá	1	Enero	2023-01-21T00:00:00	2024-11-08T01:00:00	1	Precipitación	0
1784	7	Sololá	701	Sololá	1	Sololá	1	Enero	2023-01-21T00:00:00	2024-11-08T01:00:00	8	Radiación solar	0
1785	7	Sololá	701	Sololá	1	Sololá	1	Enero	2023-01-21T00:00:00	2024-11-08T02:00:00	2	Temperatura media	11.2
1786	7	Sololá	701	Sololá	1	Sololá	1	Enero	2023-01-21T00:00:00	2024-11-08T02:00:00	4	Temperatura máxima	12.3
1787	7	Sololá	701	Sololá	1	Sololá	1	Enero	2023-01-21T00:00:00	2024-11-08T02:00:00	3	Temperatura mínima	11.2
1788	7	Sololá	701	Sololá	1	Sololá	1	Enero	2023-01-21T00:00:00	2024-11-08T02:00:00	5	Humedad	84
1789	7	Sololá	701	Sololá	1	Sololá	1	Enero	2023-01-21T00:00:00	2024-11-08T02:00:00	6	Velocidad del viento	0
1790	7	Sololá	701	Sololá	1	Sololá	1	Enero	2023-01-21T00:00:00	2024-11-08T02:00:00	7	Dirección del viento	0
1791	7	Sololá	701	Sololá	1	Sololá	1	Enero	2023-01-21T00:00:00	2024-11-08T02:00:00	1	Precipitación	0
1792	7	Sololá	701	Sololá	1	Sololá	1	Enero	2023-01-21T00:00:00	2024-11-08T02:00:00	8	Radiación solar	0
1793	7	Sololá	701	Sololá	1	Sololá	1	Enero	2023-01-21T00:00:00	2024-11-08T03:00:00	2	Temperatura media	11.2
1794	7	Sololá	701	Sololá	1	Sololá	1	Enero	2023-01-21T00:00:00	2024-11-08T03:00:00	4	Temperatura máxima	11.2
1795	7	Sololá	701	Sololá	1	Sololá	1	Enero	2023-01-21T00:00:00	2024-11-08T03:00:00	3	Temperatura mínima	11.1
1796	7	Sololá	701	Sololá	1	Sololá	1	Enero	2023-01-21T00:00:00	2024-11-08T03:00:00	5	Humedad	85
1797	7	Sololá	701	Sololá	1	Sololá	1	Enero	2023-01-21T00:00:00	2024-11-08T03:00:00	6	Velocidad del viento	0
1798	7	Sololá	701	Sololá	1	Sololá	1	Enero	2023-01-21T00:00:00	2024-11-08T03:00:00	7	Dirección del viento	0
1799	7	Sololá	701	Sololá	1	Sololá	1	Enero	2023-01-21T00:00:00	2024-11-08T03:00:00	1	Precipitación	0
1800	7	Sololá	701	Sololá	1	Sololá	1	Enero	2023-01-21T00:00:00	2024-11-08T03:00:00	8	Radiación solar	0
1801	7	Sololá	701	Sololá	1	Sololá	1	Enero	2023-01-21T00:00:00	2024-11-08T04:00:00	2	Temperatura media	11.2
1802	7	Sololá	701	Sololá	1	Sololá	1	Enero	2023-01-21T00:00:00	2024-11-08T04:00:00	4	Temperatura máxima	11.4
1803	7	Sololá	701	Sololá	1	Sololá	1	Enero	2023-01-21T00:00:00	2024-11-08T04:00:00	3	Temperatura mínima	11.2
1804	7	Sololá	701	Sololá	1	Sololá	1	Enero	2023-01-21T00:00:00	2024-11-08T04:00:00	5	Humedad	84
1805	7	Sololá	701	Sololá	1	Sololá	1	Enero	2023-01-21T00:00:00	2024-11-08T04:00:00	6	Velocidad del viento	0
1806	7	Sololá	701	Sololá	1	Sololá	1	Enero	2023-01-21T00:00:00	2024-11-08T04:00:00	7	Dirección del viento	0
1807	7	Sololá	701	Sololá	1	Sololá	1	Enero	2023-01-21T00:00:00	2024-11-08T04:00:00	1	Precipitación	0
1808	7	Sololá	701	Sololá	1	Sololá	1	Enero	2023-01-21T00:00:00	2024-11-08T04:00:00	8	Radiación solar	0
1809	7	Sololá	701	Sololá	1	Sololá	1	Enero	2023-01-21T00:00:00	2024-11-08T05:00:00	2	Temperatura media	10.9
1810	7	Sololá	701	Sololá	1	Sololá	1	Enero	2023-01-21T00:00:00	2024-11-08T05:00:00	4	Temperatura máxima	11.2
1811	7	Sololá	701	Sololá	1	Sololá	1	Enero	2023-01-21T00:00:00	2024-11-08T05:00:00	3	Temperatura mínima	10.7
1812	7	Sololá	701	Sololá	1	Sololá	1	Enero	2023-01-21T00:00:00	2024-11-08T05:00:00	5	Humedad	84
1813	7	Sololá	701	Sololá	1	Sololá	1	Enero	2023-01-21T00:00:00	2024-11-08T05:00:00	6	Velocidad del viento	0
1814	7	Sololá	701	Sololá	1	Sololá	1	Enero	2023-01-21T00:00:00	2024-11-08T05:00:00	7	Dirección del viento	0
1815	7	Sololá	701	Sololá	1	Sololá	1	Enero	2023-01-21T00:00:00	2024-11-08T05:00:00	1	Precipitación	0
1816	7	Sololá	701	Sololá	1	Sololá	1	Enero	2023-01-21T00:00:00	2024-11-08T05:00:00	8	Radiación solar	0
1817	7	Sololá	701	Sololá	1	Sololá	1	Enero	2023-01-21T00:00:00	2024-11-08T06:00:00	2	Temperatura media	10.3
1818	7	Sololá	701	Sololá	1	Sololá	1	Enero	2023-01-21T00:00:00	2024-11-08T06:00:00	4	Temperatura máxima	10.9
1819	7	Sololá	701	Sololá	1	Sololá	1	Enero	2023-01-21T00:00:00	2024-11-08T06:00:00	3	Temperatura mínima	10.3
1820	7	Sololá	701	Sololá	1	Sololá	1	Enero	2023-01-21T00:00:00	2024-11-08T06:00:00	5	Humedad	85
1821	7	Sololá	701	Sololá	1	Sololá	1	Enero	2023-01-21T00:00:00	2024-11-08T06:00:00	6	Velocidad del viento	0
1822	7	Sololá	701	Sololá	1	Sololá	1	Enero	2023-01-21T00:00:00	2024-11-08T06:00:00	7	Dirección del viento	0
1823	7	Sololá	701	Sololá	1	Sololá	1	Enero	2023-01-21T00:00:00	2024-11-08T06:00:00	1	Precipitación	0
1824	7	Sololá	701	Sololá	1	Sololá	1	Enero	2023-01-21T00:00:00	2024-11-08T06:00:00	8	Radiación solar	0
1825	7	Sololá	701	Sololá	1	Sololá	1	Enero	2023-01-21T00:00:00	2024-11-08T07:00:00	2	Temperatura media	10.6
1826	7	Sololá	701	Sololá	1	Sololá	1	Enero	2023-01-21T00:00:00	2024-11-08T07:00:00	4	Temperatura máxima	10.7
1827	7	Sololá	701	Sololá	1	Sololá	1	Enero	2023-01-21T00:00:00	2024-11-08T07:00:00	3	Temperatura mínima	10.3
1828	7	Sololá	701	Sololá	1	Sololá	1	Enero	2023-01-21T00:00:00	2024-11-08T07:00:00	5	Humedad	84
1829	7	Sololá	701	Sololá	1	Sololá	1	Enero	2023-01-21T00:00:00	2024-11-08T07:00:00	6	Velocidad del viento	1.6
1830	7	Sololá	701	Sololá	1	Sololá	1	Enero	2023-01-21T00:00:00	2024-11-08T07:00:00	7	Dirección del viento	1.61
1831	7	Sololá	701	Sololá	1	Sololá	1	Enero	2023-01-21T00:00:00	2024-11-08T07:00:00	1	Precipitación	0
1832	7	Sololá	701	Sololá	1	Sololá	1	Enero	2023-01-21T00:00:00	2024-11-08T07:00:00	8	Radiación solar	3
1833	7	Sololá	701	Sololá	1	Sololá	1	Enero	2023-01-21T00:00:00	2024-11-08T08:00:00	2	Temperatura media	11.4
1834	7	Sololá	701	Sololá	1	Sololá	1	Enero	2023-01-21T00:00:00	2024-11-08T08:00:00	4	Temperatura máxima	11.4
1835	7	Sololá	701	Sololá	1	Sololá	1	Enero	2023-01-21T00:00:00	2024-11-08T08:00:00	3	Temperatura mínima	10.5
1836	7	Sololá	701	Sololá	1	Sololá	1	Enero	2023-01-21T00:00:00	2024-11-08T08:00:00	5	Humedad	85
1837	7	Sololá	701	Sololá	1	Sololá	1	Enero	2023-01-21T00:00:00	2024-11-08T08:00:00	6	Velocidad del viento	0
1838	7	Sololá	701	Sololá	1	Sololá	1	Enero	2023-01-21T00:00:00	2024-11-08T08:00:00	7	Dirección del viento	0
1839	7	Sololá	701	Sololá	1	Sololá	1	Enero	2023-01-21T00:00:00	2024-11-08T08:00:00	1	Precipitación	0
1840	7	Sololá	701	Sololá	1	Sololá	1	Enero	2023-01-21T00:00:00	2024-11-08T08:00:00	8	Radiación solar	21
1841	7	Sololá	701	Sololá	1	Sololá	1	Enero	2023-01-21T00:00:00	2024-11-08T09:00:00	2	Temperatura media	16.8
1842	7	Sololá	701	Sololá	1	Sololá	1	Enero	2023-01-21T00:00:00	2024-11-08T09:00:00	4	Temperatura máxima	16.8
1843	7	Sololá	701	Sololá	1	Sololá	1	Enero	2023-01-21T00:00:00	2024-11-08T09:00:00	3	Temperatura mínima	11.4
1844	7	Sololá	701	Sololá	1	Sololá	1	Enero	2023-01-21T00:00:00	2024-11-08T09:00:00	5	Humedad	72
1845	7	Sololá	701	Sololá	1	Sololá	1	Enero	2023-01-21T00:00:00	2024-11-08T09:00:00	6	Velocidad del viento	0
1846	7	Sololá	701	Sololá	1	Sololá	1	Enero	2023-01-21T00:00:00	2024-11-08T09:00:00	7	Dirección del viento	0
1847	7	Sololá	701	Sololá	1	Sololá	1	Enero	2023-01-21T00:00:00	2024-11-08T09:00:00	1	Precipitación	0
1848	7	Sololá	701	Sololá	1	Sololá	1	Enero	2023-01-21T00:00:00	2024-11-08T09:00:00	8	Radiación solar	341
1849	7	Sololá	701	Sololá	1	Sololá	1	Enero	2023-01-21T00:00:00	2024-11-08T10:00:00	2	Temperatura media	19
1850	7	Sololá	701	Sololá	1	Sololá	1	Enero	2023-01-21T00:00:00	2024-11-08T10:00:00	4	Temperatura máxima	19
1851	7	Sololá	701	Sololá	1	Sololá	1	Enero	2023-01-21T00:00:00	2024-11-08T10:00:00	3	Temperatura mínima	16.8
1852	7	Sololá	701	Sololá	1	Sololá	1	Enero	2023-01-21T00:00:00	2024-11-08T10:00:00	5	Humedad	69
1853	7	Sololá	701	Sololá	1	Sololá	1	Enero	2023-01-21T00:00:00	2024-11-08T10:00:00	6	Velocidad del viento	0
1854	7	Sololá	701	Sololá	1	Sololá	1	Enero	2023-01-21T00:00:00	2024-11-08T10:00:00	7	Dirección del viento	0
1855	7	Sololá	701	Sololá	1	Sololá	1	Enero	2023-01-21T00:00:00	2024-11-08T10:00:00	1	Precipitación	0
1856	7	Sololá	701	Sololá	1	Sololá	1	Enero	2023-01-21T00:00:00	2024-11-08T10:00:00	8	Radiación solar	616
1857	7	Sololá	701	Sololá	1	Sololá	1	Enero	2023-01-21T00:00:00	2024-11-08T11:00:00	2	Temperatura media	20.1
1858	7	Sololá	701	Sololá	1	Sololá	1	Enero	2023-01-21T00:00:00	2024-11-08T11:00:00	4	Temperatura máxima	20.1
1859	7	Sololá	701	Sololá	1	Sololá	1	Enero	2023-01-21T00:00:00	2024-11-08T11:00:00	3	Temperatura mínima	18.9
1860	7	Sololá	701	Sololá	1	Sololá	1	Enero	2023-01-21T00:00:00	2024-11-08T11:00:00	5	Humedad	63
1861	7	Sololá	701	Sololá	1	Sololá	1	Enero	2023-01-21T00:00:00	2024-11-08T11:00:00	6	Velocidad del viento	0
1862	7	Sololá	701	Sololá	1	Sololá	1	Enero	2023-01-21T00:00:00	2024-11-08T11:00:00	7	Dirección del viento	0
1863	7	Sololá	701	Sololá	1	Sololá	1	Enero	2023-01-21T00:00:00	2024-11-08T11:00:00	1	Precipitación	0
1864	7	Sololá	701	Sololá	1	Sololá	1	Enero	2023-01-21T00:00:00	2024-11-08T11:00:00	8	Radiación solar	761
1865	7	Sololá	701	Sololá	1	Sololá	1	Enero	2023-01-21T00:00:00	2024-11-08T12:00:00	2	Temperatura media	20.9
1866	7	Sololá	701	Sololá	1	Sololá	1	Enero	2023-01-21T00:00:00	2024-11-08T12:00:00	4	Temperatura máxima	21.1
1867	7	Sololá	701	Sololá	1	Sololá	1	Enero	2023-01-21T00:00:00	2024-11-08T12:00:00	3	Temperatura mínima	20.1
1868	7	Sololá	701	Sololá	1	Sololá	1	Enero	2023-01-21T00:00:00	2024-11-08T12:00:00	5	Humedad	66
1869	7	Sololá	701	Sololá	1	Sololá	1	Enero	2023-01-21T00:00:00	2024-11-08T12:00:00	6	Velocidad del viento	0
1870	7	Sololá	701	Sololá	1	Sololá	1	Enero	2023-01-21T00:00:00	2024-11-08T12:00:00	7	Dirección del viento	0
1871	7	Sololá	701	Sololá	1	Sololá	1	Enero	2023-01-21T00:00:00	2024-11-08T12:00:00	1	Precipitación	0
1872	7	Sololá	701	Sololá	1	Sololá	1	Enero	2023-01-21T00:00:00	2024-11-08T12:00:00	8	Radiación solar	816
1873	7	Sololá	701	Sololá	1	Sololá	1	Enero	2023-01-21T00:00:00	2024-11-08T13:00:00	2	Temperatura media	21.4
1874	7	Sololá	701	Sololá	1	Sololá	1	Enero	2023-01-21T00:00:00	2024-11-08T13:00:00	4	Temperatura máxima	21.7
1875	7	Sololá	701	Sololá	1	Sololá	1	Enero	2023-01-21T00:00:00	2024-11-08T13:00:00	3	Temperatura mínima	20.9
1876	7	Sololá	701	Sololá	1	Sololá	1	Enero	2023-01-21T00:00:00	2024-11-08T13:00:00	5	Humedad	70
1877	7	Sololá	701	Sololá	1	Sololá	1	Enero	2023-01-21T00:00:00	2024-11-08T13:00:00	6	Velocidad del viento	0
1878	7	Sololá	701	Sololá	1	Sololá	1	Enero	2023-01-21T00:00:00	2024-11-08T13:00:00	7	Dirección del viento	0
1879	7	Sololá	701	Sololá	1	Sololá	1	Enero	2023-01-21T00:00:00	2024-11-08T13:00:00	1	Precipitación	0
1880	7	Sololá	701	Sololá	1	Sololá	1	Enero	2023-01-21T00:00:00	2024-11-08T13:00:00	8	Radiación solar	880
1881	7	Sololá	701	Sololá	1	Sololá	1	Enero	2023-01-21T00:00:00	2024-11-08T14:00:00	2	Temperatura media	20.4
1882	7	Sololá	701	Sololá	1	Sololá	1	Enero	2023-01-21T00:00:00	2024-11-08T14:00:00	4	Temperatura máxima	21.7
1883	7	Sololá	701	Sololá	1	Sololá	1	Enero	2023-01-21T00:00:00	2024-11-08T14:00:00	3	Temperatura mínima	20.3
1884	7	Sololá	701	Sololá	1	Sololá	1	Enero	2023-01-21T00:00:00	2024-11-08T14:00:00	5	Humedad	74
1885	7	Sololá	701	Sololá	1	Sololá	1	Enero	2023-01-21T00:00:00	2024-11-08T14:00:00	6	Velocidad del viento	0
1886	7	Sololá	701	Sololá	1	Sololá	1	Enero	2023-01-21T00:00:00	2024-11-08T14:00:00	7	Dirección del viento	0
1887	7	Sololá	701	Sololá	1	Sololá	1	Enero	2023-01-21T00:00:00	2024-11-08T14:00:00	1	Precipitación	0
1888	7	Sololá	701	Sololá	1	Sololá	1	Enero	2023-01-21T00:00:00	2024-11-08T14:00:00	8	Radiación solar	336
1889	7	Sololá	701	Sololá	1	Sololá	1	Enero	2023-01-21T00:00:00	2024-11-08T15:00:00	2	Temperatura media	18.8
1890	7	Sololá	701	Sololá	1	Sololá	1	Enero	2023-01-21T00:00:00	2024-11-08T15:00:00	4	Temperatura máxima	20.6
1891	7	Sololá	701	Sololá	1	Sololá	1	Enero	2023-01-21T00:00:00	2024-11-08T15:00:00	3	Temperatura mínima	18.8
1892	7	Sololá	701	Sololá	1	Sololá	1	Enero	2023-01-21T00:00:00	2024-11-08T15:00:00	5	Humedad	79
1893	7	Sololá	701	Sololá	1	Sololá	1	Enero	2023-01-21T00:00:00	2024-11-08T15:00:00	6	Velocidad del viento	0
1894	7	Sololá	701	Sololá	1	Sololá	1	Enero	2023-01-21T00:00:00	2024-11-08T15:00:00	7	Dirección del viento	0
1895	7	Sololá	701	Sololá	1	Sololá	1	Enero	2023-01-21T00:00:00	2024-11-08T15:00:00	1	Precipitación	0
1896	7	Sololá	701	Sololá	1	Sololá	1	Enero	2023-01-21T00:00:00	2024-11-08T15:00:00	8	Radiación solar	237
1897	7	Sololá	701	Sololá	1	Sololá	1	Enero	2023-01-21T00:00:00	2024-11-08T16:00:00	2	Temperatura media	17.4
1898	7	Sololá	701	Sololá	1	Sololá	1	Enero	2023-01-21T00:00:00	2024-11-08T16:00:00	4	Temperatura máxima	18.8
1899	7	Sololá	701	Sololá	1	Sololá	1	Enero	2023-01-21T00:00:00	2024-11-08T16:00:00	3	Temperatura mínima	17.4
1900	7	Sololá	701	Sololá	1	Sololá	1	Enero	2023-01-21T00:00:00	2024-11-08T16:00:00	5	Humedad	82
1901	7	Sololá	701	Sololá	1	Sololá	1	Enero	2023-01-21T00:00:00	2024-11-08T16:00:00	6	Velocidad del viento	0
1902	7	Sololá	701	Sololá	1	Sololá	1	Enero	2023-01-21T00:00:00	2024-11-08T16:00:00	7	Dirección del viento	0
1903	7	Sololá	701	Sololá	1	Sololá	1	Enero	2023-01-21T00:00:00	2024-11-08T16:00:00	1	Precipitación	0
1904	7	Sololá	701	Sololá	1	Sololá	1	Enero	2023-01-21T00:00:00	2024-11-08T16:00:00	8	Radiación solar	142
1905	7	Sololá	701	Sololá	1	Sololá	1	Enero	2023-01-21T00:00:00	2024-11-08T17:00:00	2	Temperatura media	16.1
1906	7	Sololá	701	Sololá	1	Sololá	1	Enero	2023-01-21T00:00:00	2024-11-08T17:00:00	4	Temperatura máxima	17.4
1907	7	Sololá	701	Sololá	1	Sololá	1	Enero	2023-01-21T00:00:00	2024-11-08T17:00:00	3	Temperatura mínima	16
1908	7	Sololá	701	Sololá	1	Sololá	1	Enero	2023-01-21T00:00:00	2024-11-08T17:00:00	5	Humedad	88
1909	7	Sololá	701	Sololá	1	Sololá	1	Enero	2023-01-21T00:00:00	2024-11-08T17:00:00	6	Velocidad del viento	0
1910	7	Sololá	701	Sololá	1	Sololá	1	Enero	2023-01-21T00:00:00	2024-11-08T17:00:00	7	Dirección del viento	0
1911	7	Sololá	701	Sololá	1	Sololá	1	Enero	2023-01-21T00:00:00	2024-11-08T17:00:00	1	Precipitación	0
1912	7	Sololá	701	Sololá	1	Sololá	1	Enero	2023-01-21T00:00:00	2024-11-08T17:00:00	8	Radiación solar	59
1913	7	Sololá	701	Sololá	1	Sololá	1	Enero	2023-01-21T00:00:00	2024-11-08T18:00:00	2	Temperatura media	15.4
1914	7	Sololá	701	Sololá	1	Sololá	1	Enero	2023-01-21T00:00:00	2024-11-08T18:00:00	4	Temperatura máxima	16.1
1915	7	Sololá	701	Sololá	1	Sololá	1	Enero	2023-01-21T00:00:00	2024-11-08T18:00:00	3	Temperatura mínima	15.4
1916	7	Sololá	701	Sololá	1	Sololá	1	Enero	2023-01-21T00:00:00	2024-11-08T18:00:00	5	Humedad	89
1917	7	Sololá	701	Sololá	1	Sololá	1	Enero	2023-01-21T00:00:00	2024-11-08T18:00:00	6	Velocidad del viento	0
1918	7	Sololá	701	Sololá	1	Sololá	1	Enero	2023-01-21T00:00:00	2024-11-08T18:00:00	7	Dirección del viento	0
1919	7	Sololá	701	Sololá	1	Sololá	1	Enero	2023-01-21T00:00:00	2024-11-08T18:00:00	1	Precipitación	0
1920	7	Sololá	701	Sololá	1	Sololá	1	Enero	2023-01-21T00:00:00	2024-11-08T18:00:00	8	Radiación solar	22
1921	7	Sololá	701	Sololá	1	Sololá	1	Enero	2023-01-21T00:00:00	2024-11-08T19:00:00	2	Temperatura media	14.8
1922	7	Sololá	701	Sololá	1	Sololá	1	Enero	2023-01-21T00:00:00	2024-11-08T19:00:00	4	Temperatura máxima	15.4
1923	7	Sololá	701	Sololá	1	Sololá	1	Enero	2023-01-21T00:00:00	2024-11-08T19:00:00	3	Temperatura mínima	14.8
1924	7	Sololá	701	Sololá	1	Sololá	1	Enero	2023-01-21T00:00:00	2024-11-08T19:00:00	5	Humedad	91
1925	7	Sololá	701	Sololá	1	Sololá	1	Enero	2023-01-21T00:00:00	2024-11-08T19:00:00	6	Velocidad del viento	0
1926	7	Sololá	701	Sololá	1	Sololá	1	Enero	2023-01-21T00:00:00	2024-11-08T19:00:00	7	Dirección del viento	0
1927	7	Sololá	701	Sololá	1	Sololá	1	Enero	2023-01-21T00:00:00	2024-11-08T19:00:00	1	Precipitación	0
1928	7	Sololá	701	Sololá	1	Sololá	1	Enero	2023-01-21T00:00:00	2024-11-08T19:00:00	8	Radiación solar	0
1929	7	Sololá	701	Sololá	1	Sololá	1	Enero	2023-01-21T00:00:00	2024-11-08T20:00:00	2	Temperatura media	14.3
1930	7	Sololá	701	Sololá	1	Sololá	1	Enero	2023-01-21T00:00:00	2024-11-08T20:00:00	4	Temperatura máxima	14.8
1931	7	Sololá	701	Sololá	1	Sololá	1	Enero	2023-01-21T00:00:00	2024-11-08T20:00:00	3	Temperatura mínima	14.3
1932	7	Sololá	701	Sololá	1	Sololá	1	Enero	2023-01-21T00:00:00	2024-11-08T20:00:00	5	Humedad	92
1933	7	Sololá	701	Sololá	1	Sololá	1	Enero	2023-01-21T00:00:00	2024-11-08T20:00:00	6	Velocidad del viento	0
1934	7	Sololá	701	Sololá	1	Sololá	1	Enero	2023-01-21T00:00:00	2024-11-08T20:00:00	7	Dirección del viento	0
1935	7	Sololá	701	Sololá	1	Sololá	1	Enero	2023-01-21T00:00:00	2024-11-08T20:00:00	1	Precipitación	0
1936	7	Sololá	701	Sololá	1	Sololá	1	Enero	2023-01-21T00:00:00	2024-11-08T20:00:00	8	Radiación solar	0
1937	7	Sololá	701	Sololá	1	Sololá	1	Enero	2023-01-21T00:00:00	2024-11-08T21:00:00	2	Temperatura media	12.6
1938	7	Sololá	701	Sololá	1	Sololá	1	Enero	2023-01-21T00:00:00	2024-11-08T21:00:00	4	Temperatura máxima	14.3
1939	7	Sololá	701	Sololá	1	Sololá	1	Enero	2023-01-21T00:00:00	2024-11-08T21:00:00	3	Temperatura mínima	12.6
1940	7	Sololá	701	Sololá	1	Sololá	1	Enero	2023-01-21T00:00:00	2024-11-08T21:00:00	5	Humedad	88
1941	7	Sololá	701	Sololá	1	Sololá	1	Enero	2023-01-21T00:00:00	2024-11-08T21:00:00	6	Velocidad del viento	0
1942	7	Sololá	701	Sololá	1	Sololá	1	Enero	2023-01-21T00:00:00	2024-11-08T21:00:00	7	Dirección del viento	0
1943	7	Sololá	701	Sololá	1	Sololá	1	Enero	2023-01-21T00:00:00	2024-11-08T21:00:00	1	Precipitación	0
1944	7	Sololá	701	Sololá	1	Sololá	1	Enero	2023-01-21T00:00:00	2024-11-08T21:00:00	8	Radiación solar	0
1945	7	Sololá	701	Sololá	1	Sololá	1	Enero	2023-01-21T00:00:00	2024-11-08T22:00:00	2	Temperatura media	11.8
1946	7	Sololá	701	Sololá	1	Sololá	1	Enero	2023-01-21T00:00:00	2024-11-08T22:00:00	4	Temperatura máxima	12.7
1947	7	Sololá	701	Sololá	1	Sololá	1	Enero	2023-01-21T00:00:00	2024-11-08T22:00:00	3	Temperatura mínima	11.8
1948	7	Sololá	701	Sololá	1	Sololá	1	Enero	2023-01-21T00:00:00	2024-11-08T22:00:00	5	Humedad	87
1949	7	Sololá	701	Sololá	1	Sololá	1	Enero	2023-01-21T00:00:00	2024-11-08T22:00:00	6	Velocidad del viento	0
1950	7	Sololá	701	Sololá	1	Sololá	1	Enero	2023-01-21T00:00:00	2024-11-08T22:00:00	7	Dirección del viento	0
1951	7	Sololá	701	Sololá	1	Sololá	1	Enero	2023-01-21T00:00:00	2024-11-08T22:00:00	1	Precipitación	0
1952	7	Sololá	701	Sololá	1	Sololá	1	Enero	2023-01-21T00:00:00	2024-11-08T22:00:00	8	Radiación solar	0
1953	7	Sololá	701	Sololá	1	Sololá	1	Enero	2023-01-21T00:00:00	2024-11-08T23:00:00	2	Temperatura media	11.4
1954	7	Sololá	701	Sololá	1	Sololá	1	Enero	2023-01-21T00:00:00	2024-11-08T23:00:00	4	Temperatura máxima	11.8
1955	7	Sololá	701	Sololá	1	Sololá	1	Enero	2023-01-21T00:00:00	2024-11-08T23:00:00	3	Temperatura mínima	11.4
1956	7	Sololá	701	Sololá	1	Sololá	1	Enero	2023-01-21T00:00:00	2024-11-08T23:00:00	5	Humedad	83
1957	7	Sololá	701	Sololá	1	Sololá	1	Enero	2023-01-21T00:00:00	2024-11-08T23:00:00	6	Velocidad del viento	0
1958	7	Sololá	701	Sololá	1	Sololá	1	Enero	2023-01-21T00:00:00	2024-11-08T23:00:00	7	Dirección del viento	0
1959	7	Sololá	701	Sololá	1	Sololá	1	Enero	2023-01-21T00:00:00	2024-11-08T23:00:00	1	Precipitación	0
1960	7	Sololá	701	Sololá	1	Sololá	1	Enero	2023-01-21T00:00:00	2024-11-08T23:00:00	8	Radiación solar	0
1961	7	Sololá	701	Sololá	1	Sololá	1	Enero	2023-01-22T00:00:00	2024-11-08T00:00:00	2	Temperatura media	10.6
1962	7	Sololá	701	Sololá	1	Sololá	1	Enero	2023-01-22T00:00:00	2024-11-08T00:00:00	4	Temperatura máxima	11.5
1963	7	Sololá	701	Sololá	1	Sololá	1	Enero	2023-01-22T00:00:00	2024-11-08T00:00:00	3	Temperatura mínima	10.5
1964	7	Sololá	701	Sololá	1	Sololá	1	Enero	2023-01-22T00:00:00	2024-11-08T00:00:00	5	Humedad	78
1965	7	Sololá	701	Sololá	1	Sololá	1	Enero	2023-01-22T00:00:00	2024-11-08T00:00:00	6	Velocidad del viento	1.6
1966	7	Sololá	701	Sololá	1	Sololá	1	Enero	2023-01-22T00:00:00	2024-11-08T00:00:00	7	Dirección del viento	1.61
1967	7	Sololá	701	Sololá	1	Sololá	1	Enero	2023-01-22T00:00:00	2024-11-08T00:00:00	1	Precipitación	0
1968	7	Sololá	701	Sololá	1	Sololá	1	Enero	2023-01-22T00:00:00	2024-11-08T00:00:00	8	Radiación solar	0
1969	7	Sololá	701	Sololá	1	Sololá	1	Enero	2023-01-22T00:00:00	2024-11-08T01:00:00	2	Temperatura media	10.1
1970	7	Sololá	701	Sololá	1	Sololá	1	Enero	2023-01-22T00:00:00	2024-11-08T01:00:00	4	Temperatura máxima	10.6
1971	7	Sololá	701	Sololá	1	Sololá	1	Enero	2023-01-22T00:00:00	2024-11-08T01:00:00	3	Temperatura mínima	10.1
1972	7	Sololá	701	Sololá	1	Sololá	1	Enero	2023-01-22T00:00:00	2024-11-08T01:00:00	5	Humedad	79
1973	7	Sololá	701	Sololá	1	Sololá	1	Enero	2023-01-22T00:00:00	2024-11-08T01:00:00	6	Velocidad del viento	1.6
1974	7	Sololá	701	Sololá	1	Sololá	1	Enero	2023-01-22T00:00:00	2024-11-08T01:00:00	7	Dirección del viento	1.61
1975	7	Sololá	701	Sololá	1	Sololá	1	Enero	2023-01-22T00:00:00	2024-11-08T01:00:00	1	Precipitación	0
1976	7	Sololá	701	Sololá	1	Sololá	1	Enero	2023-01-22T00:00:00	2024-11-08T01:00:00	8	Radiación solar	0
1977	7	Sololá	701	Sololá	1	Sololá	1	Enero	2023-01-22T00:00:00	2024-11-08T02:00:00	2	Temperatura media	9.8
1978	7	Sololá	701	Sololá	1	Sololá	1	Enero	2023-01-22T00:00:00	2024-11-08T02:00:00	4	Temperatura máxima	10.2
1979	7	Sololá	701	Sololá	1	Sololá	1	Enero	2023-01-22T00:00:00	2024-11-08T02:00:00	3	Temperatura mínima	9.8
1980	7	Sololá	701	Sololá	1	Sololá	1	Enero	2023-01-22T00:00:00	2024-11-08T02:00:00	5	Humedad	79
1981	7	Sololá	701	Sololá	1	Sololá	1	Enero	2023-01-22T00:00:00	2024-11-08T02:00:00	6	Velocidad del viento	0
1982	7	Sololá	701	Sololá	1	Sololá	1	Enero	2023-01-22T00:00:00	2024-11-08T02:00:00	7	Dirección del viento	0
1983	7	Sololá	701	Sololá	1	Sololá	1	Enero	2023-01-22T00:00:00	2024-11-08T02:00:00	1	Precipitación	0
1984	7	Sololá	701	Sololá	1	Sololá	1	Enero	2023-01-22T00:00:00	2024-11-08T02:00:00	8	Radiación solar	0
1985	7	Sololá	701	Sololá	1	Sololá	1	Enero	2023-01-22T00:00:00	2024-11-08T03:00:00	2	Temperatura media	9.7
1986	7	Sololá	701	Sololá	1	Sololá	1	Enero	2023-01-22T00:00:00	2024-11-08T03:00:00	4	Temperatura máxima	9.8
1987	7	Sololá	701	Sololá	1	Sololá	1	Enero	2023-01-22T00:00:00	2024-11-08T03:00:00	3	Temperatura mínima	9.7
1988	7	Sololá	701	Sololá	1	Sololá	1	Enero	2023-01-22T00:00:00	2024-11-08T03:00:00	5	Humedad	80
1989	7	Sololá	701	Sololá	1	Sololá	1	Enero	2023-01-22T00:00:00	2024-11-08T03:00:00	6	Velocidad del viento	1.6
1990	7	Sololá	701	Sololá	1	Sololá	1	Enero	2023-01-22T00:00:00	2024-11-08T03:00:00	7	Dirección del viento	1.61
1991	7	Sololá	701	Sololá	1	Sololá	1	Enero	2023-01-22T00:00:00	2024-11-08T03:00:00	1	Precipitación	0
1992	7	Sololá	701	Sololá	1	Sololá	1	Enero	2023-01-22T00:00:00	2024-11-08T03:00:00	8	Radiación solar	0
1993	7	Sololá	701	Sololá	1	Sololá	1	Enero	2023-01-22T00:00:00	2024-11-08T04:00:00	2	Temperatura media	8.9
1994	7	Sololá	701	Sololá	1	Sololá	1	Enero	2023-01-22T00:00:00	2024-11-08T04:00:00	4	Temperatura máxima	9.7
1995	7	Sololá	701	Sololá	1	Sololá	1	Enero	2023-01-22T00:00:00	2024-11-08T04:00:00	3	Temperatura mínima	8.9
1996	7	Sololá	701	Sololá	1	Sololá	1	Enero	2023-01-22T00:00:00	2024-11-08T04:00:00	5	Humedad	82
1997	7	Sololá	701	Sololá	1	Sololá	1	Enero	2023-01-22T00:00:00	2024-11-08T04:00:00	6	Velocidad del viento	1.6
1998	7	Sololá	701	Sololá	1	Sololá	1	Enero	2023-01-22T00:00:00	2024-11-08T04:00:00	7	Dirección del viento	1.61
1999	7	Sololá	701	Sololá	1	Sololá	1	Enero	2023-01-22T00:00:00	2024-11-08T04:00:00	1	Precipitación	0
2000	7	Sololá	701	Sololá	1	Sololá	1	Enero	2023-01-22T00:00:00	2024-11-08T04:00:00	8	Radiación solar	0
2001	7	Sololá	701	Sololá	1	Sololá	1	Enero	2023-01-22T00:00:00	2024-11-08T05:00:00	2	Temperatura media	8.3
2002	7	Sololá	701	Sololá	1	Sololá	1	Enero	2023-01-22T00:00:00	2024-11-08T05:00:00	4	Temperatura máxima	8.9
2003	7	Sololá	701	Sololá	1	Sololá	1	Enero	2023-01-22T00:00:00	2024-11-08T05:00:00	3	Temperatura mínima	8.3
2004	7	Sololá	701	Sololá	1	Sololá	1	Enero	2023-01-22T00:00:00	2024-11-08T05:00:00	5	Humedad	80
2005	7	Sololá	701	Sololá	1	Sololá	1	Enero	2023-01-22T00:00:00	2024-11-08T05:00:00	6	Velocidad del viento	1.6
2006	7	Sololá	701	Sololá	1	Sololá	1	Enero	2023-01-22T00:00:00	2024-11-08T05:00:00	7	Dirección del viento	1.61
2007	7	Sololá	701	Sololá	1	Sololá	1	Enero	2023-01-22T00:00:00	2024-11-08T05:00:00	1	Precipitación	0
2008	7	Sololá	701	Sololá	1	Sololá	1	Enero	2023-01-22T00:00:00	2024-11-08T05:00:00	8	Radiación solar	0
2009	7	Sololá	701	Sololá	1	Sololá	1	Enero	2023-01-22T00:00:00	2024-11-08T06:00:00	2	Temperatura media	8.6
2010	7	Sololá	701	Sololá	1	Sololá	1	Enero	2023-01-22T00:00:00	2024-11-08T06:00:00	4	Temperatura máxima	8.6
2011	7	Sololá	701	Sololá	1	Sololá	1	Enero	2023-01-22T00:00:00	2024-11-08T06:00:00	3	Temperatura mínima	8.3
2012	7	Sololá	701	Sololá	1	Sololá	1	Enero	2023-01-22T00:00:00	2024-11-08T06:00:00	5	Humedad	78
2013	7	Sololá	701	Sololá	1	Sololá	1	Enero	2023-01-22T00:00:00	2024-11-08T06:00:00	6	Velocidad del viento	1.6
2014	7	Sololá	701	Sololá	1	Sololá	1	Enero	2023-01-22T00:00:00	2024-11-08T06:00:00	7	Dirección del viento	1.61
2015	7	Sololá	701	Sololá	1	Sololá	1	Enero	2023-01-22T00:00:00	2024-11-08T06:00:00	1	Precipitación	0
2016	7	Sololá	701	Sololá	1	Sololá	1	Enero	2023-01-22T00:00:00	2024-11-08T06:00:00	8	Radiación solar	0
2017	7	Sololá	701	Sololá	1	Sololá	1	Enero	2023-01-22T00:00:00	2024-11-08T07:00:00	2	Temperatura media	8.1
2018	7	Sololá	701	Sololá	1	Sololá	1	Enero	2023-01-22T00:00:00	2024-11-08T07:00:00	4	Temperatura máxima	8.6
2019	7	Sololá	701	Sololá	1	Sololá	1	Enero	2023-01-22T00:00:00	2024-11-08T07:00:00	3	Temperatura mínima	8.1
2020	7	Sololá	701	Sololá	1	Sololá	1	Enero	2023-01-22T00:00:00	2024-11-08T07:00:00	5	Humedad	81
2021	7	Sololá	701	Sololá	1	Sololá	1	Enero	2023-01-22T00:00:00	2024-11-08T07:00:00	6	Velocidad del viento	1.6
2022	7	Sololá	701	Sololá	1	Sololá	1	Enero	2023-01-22T00:00:00	2024-11-08T07:00:00	7	Dirección del viento	1.61
2023	7	Sololá	701	Sololá	1	Sololá	1	Enero	2023-01-22T00:00:00	2024-11-08T07:00:00	1	Precipitación	0
2024	7	Sololá	701	Sololá	1	Sololá	1	Enero	2023-01-22T00:00:00	2024-11-08T07:00:00	8	Radiación solar	4
2025	7	Sololá	701	Sololá	1	Sololá	1	Enero	2023-01-22T00:00:00	2024-11-08T08:00:00	2	Temperatura media	9.6
2026	7	Sololá	701	Sololá	1	Sololá	1	Enero	2023-01-22T00:00:00	2024-11-08T08:00:00	4	Temperatura máxima	9.6
2027	7	Sololá	701	Sololá	1	Sololá	1	Enero	2023-01-22T00:00:00	2024-11-08T08:00:00	3	Temperatura mínima	7.9
2028	7	Sololá	701	Sololá	1	Sololá	1	Enero	2023-01-22T00:00:00	2024-11-08T08:00:00	5	Humedad	82
2029	7	Sololá	701	Sololá	1	Sololá	1	Enero	2023-01-22T00:00:00	2024-11-08T08:00:00	6	Velocidad del viento	0
2030	7	Sololá	701	Sololá	1	Sololá	1	Enero	2023-01-22T00:00:00	2024-11-08T08:00:00	7	Dirección del viento	0
2031	7	Sololá	701	Sololá	1	Sololá	1	Enero	2023-01-22T00:00:00	2024-11-08T08:00:00	1	Precipitación	0
2032	7	Sololá	701	Sololá	1	Sololá	1	Enero	2023-01-22T00:00:00	2024-11-08T08:00:00	8	Radiación solar	23
2033	7	Sololá	701	Sololá	1	Sololá	1	Enero	2023-01-22T00:00:00	2024-11-08T09:00:00	2	Temperatura media	15.3
2034	7	Sololá	701	Sololá	1	Sololá	1	Enero	2023-01-22T00:00:00	2024-11-08T09:00:00	4	Temperatura máxima	15.3
2035	7	Sololá	701	Sololá	1	Sololá	1	Enero	2023-01-22T00:00:00	2024-11-08T09:00:00	3	Temperatura mínima	9.6
2036	7	Sololá	701	Sololá	1	Sololá	1	Enero	2023-01-22T00:00:00	2024-11-08T09:00:00	5	Humedad	68
2037	7	Sololá	701	Sololá	1	Sololá	1	Enero	2023-01-22T00:00:00	2024-11-08T09:00:00	6	Velocidad del viento	0
2038	7	Sololá	701	Sololá	1	Sololá	1	Enero	2023-01-22T00:00:00	2024-11-08T09:00:00	7	Dirección del viento	0
2039	7	Sololá	701	Sololá	1	Sololá	1	Enero	2023-01-22T00:00:00	2024-11-08T09:00:00	1	Precipitación	0
2040	7	Sololá	701	Sololá	1	Sololá	1	Enero	2023-01-22T00:00:00	2024-11-08T09:00:00	8	Radiación solar	347
2041	7	Sololá	701	Sololá	1	Sololá	1	Enero	2023-01-22T00:00:00	2024-11-08T10:00:00	2	Temperatura media	17.7
2042	7	Sololá	701	Sololá	1	Sololá	1	Enero	2023-01-22T00:00:00	2024-11-08T10:00:00	4	Temperatura máxima	17.7
2043	7	Sololá	701	Sololá	1	Sololá	1	Enero	2023-01-22T00:00:00	2024-11-08T10:00:00	3	Temperatura mínima	15.4
2044	7	Sololá	701	Sololá	1	Sololá	1	Enero	2023-01-22T00:00:00	2024-11-08T10:00:00	5	Humedad	66
2045	7	Sololá	701	Sololá	1	Sololá	1	Enero	2023-01-22T00:00:00	2024-11-08T10:00:00	6	Velocidad del viento	0
2046	7	Sololá	701	Sololá	1	Sololá	1	Enero	2023-01-22T00:00:00	2024-11-08T10:00:00	7	Dirección del viento	0
2047	7	Sololá	701	Sololá	1	Sololá	1	Enero	2023-01-22T00:00:00	2024-11-08T10:00:00	1	Precipitación	0
2048	7	Sololá	701	Sololá	1	Sololá	1	Enero	2023-01-22T00:00:00	2024-11-08T10:00:00	8	Radiación solar	644
2049	7	Sololá	701	Sololá	1	Sololá	1	Enero	2023-01-22T00:00:00	2024-11-08T11:00:00	2	Temperatura media	19.5
2050	7	Sololá	701	Sololá	1	Sololá	1	Enero	2023-01-22T00:00:00	2024-11-08T11:00:00	4	Temperatura máxima	19.5
2051	7	Sololá	701	Sololá	1	Sololá	1	Enero	2023-01-22T00:00:00	2024-11-08T11:00:00	3	Temperatura mínima	17.8
2052	7	Sololá	701	Sololá	1	Sololá	1	Enero	2023-01-22T00:00:00	2024-11-08T11:00:00	5	Humedad	35
2053	7	Sololá	701	Sololá	1	Sololá	1	Enero	2023-01-22T00:00:00	2024-11-08T11:00:00	6	Velocidad del viento	0
2054	7	Sololá	701	Sololá	1	Sololá	1	Enero	2023-01-22T00:00:00	2024-11-08T11:00:00	7	Dirección del viento	0
2055	7	Sololá	701	Sololá	1	Sololá	1	Enero	2023-01-22T00:00:00	2024-11-08T11:00:00	1	Precipitación	0
2056	7	Sololá	701	Sololá	1	Sololá	1	Enero	2023-01-22T00:00:00	2024-11-08T11:00:00	8	Radiación solar	791
2057	7	Sololá	701	Sololá	1	Sololá	1	Enero	2023-01-22T00:00:00	2024-11-08T12:00:00	2	Temperatura media	21.2
2058	7	Sololá	701	Sololá	1	Sololá	1	Enero	2023-01-22T00:00:00	2024-11-08T12:00:00	4	Temperatura máxima	21.2
2059	7	Sololá	701	Sololá	1	Sololá	1	Enero	2023-01-22T00:00:00	2024-11-08T12:00:00	3	Temperatura mínima	19.5
2060	7	Sololá	701	Sololá	1	Sololá	1	Enero	2023-01-22T00:00:00	2024-11-08T12:00:00	5	Humedad	37
2061	7	Sololá	701	Sololá	1	Sololá	1	Enero	2023-01-22T00:00:00	2024-11-08T12:00:00	6	Velocidad del viento	0
2062	7	Sololá	701	Sololá	1	Sololá	1	Enero	2023-01-22T00:00:00	2024-11-08T12:00:00	7	Dirección del viento	0
2063	7	Sololá	701	Sololá	1	Sololá	1	Enero	2023-01-22T00:00:00	2024-11-08T12:00:00	1	Precipitación	0
2064	7	Sololá	701	Sololá	1	Sololá	1	Enero	2023-01-22T00:00:00	2024-11-08T12:00:00	8	Radiación solar	866
2065	7	Sololá	701	Sololá	1	Sololá	1	Enero	2023-01-22T00:00:00	2024-11-08T13:00:00	2	Temperatura media	20.6
2066	7	Sololá	701	Sololá	1	Sololá	1	Enero	2023-01-22T00:00:00	2024-11-08T13:00:00	4	Temperatura máxima	21.6
2067	7	Sololá	701	Sololá	1	Sololá	1	Enero	2023-01-22T00:00:00	2024-11-08T13:00:00	3	Temperatura mínima	20.6
2068	7	Sololá	701	Sololá	1	Sololá	1	Enero	2023-01-22T00:00:00	2024-11-08T13:00:00	5	Humedad	55
2069	7	Sololá	701	Sololá	1	Sololá	1	Enero	2023-01-22T00:00:00	2024-11-08T13:00:00	6	Velocidad del viento	0
2070	7	Sololá	701	Sololá	1	Sololá	1	Enero	2023-01-22T00:00:00	2024-11-08T13:00:00	7	Dirección del viento	0
2071	7	Sololá	701	Sololá	1	Sololá	1	Enero	2023-01-22T00:00:00	2024-11-08T13:00:00	1	Precipitación	0
2072	7	Sololá	701	Sololá	1	Sololá	1	Enero	2023-01-22T00:00:00	2024-11-08T13:00:00	8	Radiación solar	864
2073	7	Sololá	701	Sololá	1	Sololá	1	Enero	2023-01-22T00:00:00	2024-11-08T14:00:00	2	Temperatura media	20.1
2074	7	Sololá	701	Sololá	1	Sololá	1	Enero	2023-01-22T00:00:00	2024-11-08T14:00:00	4	Temperatura máxima	20.6
2075	7	Sololá	701	Sololá	1	Sololá	1	Enero	2023-01-22T00:00:00	2024-11-08T14:00:00	3	Temperatura mínima	19.9
2076	7	Sololá	701	Sololá	1	Sololá	1	Enero	2023-01-22T00:00:00	2024-11-08T14:00:00	5	Humedad	64
2077	7	Sololá	701	Sololá	1	Sololá	1	Enero	2023-01-22T00:00:00	2024-11-08T14:00:00	6	Velocidad del viento	0
2078	7	Sololá	701	Sololá	1	Sololá	1	Enero	2023-01-22T00:00:00	2024-11-08T14:00:00	7	Dirección del viento	0
2079	7	Sololá	701	Sololá	1	Sololá	1	Enero	2023-01-22T00:00:00	2024-11-08T14:00:00	1	Precipitación	0
2080	7	Sololá	701	Sololá	1	Sololá	1	Enero	2023-01-22T00:00:00	2024-11-08T14:00:00	8	Radiación solar	268
2081	7	Sololá	701	Sololá	1	Sololá	1	Enero	2023-01-22T00:00:00	2024-11-08T15:00:00	2	Temperatura media	18.8
2082	7	Sololá	701	Sololá	1	Sololá	1	Enero	2023-01-22T00:00:00	2024-11-08T15:00:00	4	Temperatura máxima	20.3
2083	7	Sololá	701	Sololá	1	Sololá	1	Enero	2023-01-22T00:00:00	2024-11-08T15:00:00	3	Temperatura mínima	18.8
2084	7	Sololá	701	Sololá	1	Sololá	1	Enero	2023-01-22T00:00:00	2024-11-08T15:00:00	5	Humedad	73
2085	7	Sololá	701	Sololá	1	Sololá	1	Enero	2023-01-22T00:00:00	2024-11-08T15:00:00	6	Velocidad del viento	0
2086	7	Sololá	701	Sololá	1	Sololá	1	Enero	2023-01-22T00:00:00	2024-11-08T15:00:00	7	Dirección del viento	0
2087	7	Sololá	701	Sololá	1	Sololá	1	Enero	2023-01-22T00:00:00	2024-11-08T15:00:00	1	Precipitación	0
2088	7	Sololá	701	Sololá	1	Sololá	1	Enero	2023-01-22T00:00:00	2024-11-08T15:00:00	8	Radiación solar	211
2089	7	Sololá	701	Sololá	1	Sololá	1	Enero	2023-01-22T00:00:00	2024-11-08T16:00:00	2	Temperatura media	17.2
2090	7	Sololá	701	Sololá	1	Sololá	1	Enero	2023-01-22T00:00:00	2024-11-08T16:00:00	4	Temperatura máxima	18.9
2091	7	Sololá	701	Sololá	1	Sololá	1	Enero	2023-01-22T00:00:00	2024-11-08T16:00:00	3	Temperatura mínima	17.2
2092	7	Sololá	701	Sololá	1	Sololá	1	Enero	2023-01-22T00:00:00	2024-11-08T16:00:00	5	Humedad	79
2093	7	Sololá	701	Sololá	1	Sololá	1	Enero	2023-01-22T00:00:00	2024-11-08T16:00:00	6	Velocidad del viento	0
2094	7	Sololá	701	Sololá	1	Sololá	1	Enero	2023-01-22T00:00:00	2024-11-08T16:00:00	7	Dirección del viento	0
2095	7	Sololá	701	Sololá	1	Sololá	1	Enero	2023-01-22T00:00:00	2024-11-08T16:00:00	1	Precipitación	0
2096	7	Sololá	701	Sololá	1	Sololá	1	Enero	2023-01-22T00:00:00	2024-11-08T16:00:00	8	Radiación solar	146
2097	7	Sololá	701	Sololá	1	Sololá	1	Enero	2023-01-22T00:00:00	2024-11-08T17:00:00	2	Temperatura media	16.1
2098	7	Sololá	701	Sololá	1	Sololá	1	Enero	2023-01-22T00:00:00	2024-11-08T17:00:00	4	Temperatura máxima	17.2
2099	7	Sololá	701	Sololá	1	Sololá	1	Enero	2023-01-22T00:00:00	2024-11-08T17:00:00	3	Temperatura mínima	16.1
2100	7	Sololá	701	Sololá	1	Sololá	1	Enero	2023-01-22T00:00:00	2024-11-08T17:00:00	5	Humedad	85
2101	7	Sololá	701	Sololá	1	Sololá	1	Enero	2023-01-22T00:00:00	2024-11-08T17:00:00	6	Velocidad del viento	0
2102	7	Sololá	701	Sololá	1	Sololá	1	Enero	2023-01-22T00:00:00	2024-11-08T17:00:00	7	Dirección del viento	0
2103	7	Sololá	701	Sololá	1	Sololá	1	Enero	2023-01-22T00:00:00	2024-11-08T17:00:00	1	Precipitación	0
2104	7	Sololá	701	Sololá	1	Sololá	1	Enero	2023-01-22T00:00:00	2024-11-08T17:00:00	8	Radiación solar	93
2105	7	Sololá	701	Sololá	1	Sololá	1	Enero	2023-01-22T00:00:00	2024-11-08T18:00:00	2	Temperatura media	15.1
2106	7	Sololá	701	Sololá	1	Sololá	1	Enero	2023-01-22T00:00:00	2024-11-08T18:00:00	4	Temperatura máxima	16.1
2107	7	Sololá	701	Sololá	1	Sololá	1	Enero	2023-01-22T00:00:00	2024-11-08T18:00:00	3	Temperatura mínima	15.1
2108	7	Sololá	701	Sololá	1	Sololá	1	Enero	2023-01-22T00:00:00	2024-11-08T18:00:00	5	Humedad	90
2109	7	Sololá	701	Sololá	1	Sololá	1	Enero	2023-01-22T00:00:00	2024-11-08T18:00:00	6	Velocidad del viento	0
2110	7	Sololá	701	Sololá	1	Sololá	1	Enero	2023-01-22T00:00:00	2024-11-08T18:00:00	7	Dirección del viento	0
2111	7	Sololá	701	Sololá	1	Sololá	1	Enero	2023-01-22T00:00:00	2024-11-08T18:00:00	1	Precipitación	0
2112	7	Sololá	701	Sololá	1	Sololá	1	Enero	2023-01-22T00:00:00	2024-11-08T18:00:00	8	Radiación solar	9
2113	7	Sololá	701	Sololá	1	Sololá	1	Enero	2023-01-22T00:00:00	2024-11-08T19:00:00	2	Temperatura media	13.8
2114	7	Sololá	701	Sololá	1	Sololá	1	Enero	2023-01-22T00:00:00	2024-11-08T19:00:00	4	Temperatura máxima	15.1
2115	7	Sololá	701	Sololá	1	Sololá	1	Enero	2023-01-22T00:00:00	2024-11-08T19:00:00	3	Temperatura mínima	13.8
2116	7	Sololá	701	Sololá	1	Sololá	1	Enero	2023-01-22T00:00:00	2024-11-08T19:00:00	5	Humedad	89
2117	7	Sololá	701	Sololá	1	Sololá	1	Enero	2023-01-22T00:00:00	2024-11-08T19:00:00	6	Velocidad del viento	0
2118	7	Sololá	701	Sololá	1	Sololá	1	Enero	2023-01-22T00:00:00	2024-11-08T19:00:00	7	Dirección del viento	0
2119	7	Sololá	701	Sololá	1	Sololá	1	Enero	2023-01-22T00:00:00	2024-11-08T19:00:00	1	Precipitación	0
2120	7	Sololá	701	Sololá	1	Sololá	1	Enero	2023-01-22T00:00:00	2024-11-08T19:00:00	8	Radiación solar	0
2121	7	Sololá	701	Sololá	1	Sololá	1	Enero	2023-01-22T00:00:00	2024-11-08T20:00:00	2	Temperatura media	12.8
2122	7	Sololá	701	Sololá	1	Sololá	1	Enero	2023-01-22T00:00:00	2024-11-08T20:00:00	4	Temperatura máxima	13.8
2123	7	Sololá	701	Sololá	1	Sololá	1	Enero	2023-01-22T00:00:00	2024-11-08T20:00:00	3	Temperatura mínima	12.7
2124	7	Sololá	701	Sololá	1	Sololá	1	Enero	2023-01-22T00:00:00	2024-11-08T20:00:00	5	Humedad	87
2125	7	Sololá	701	Sololá	1	Sololá	1	Enero	2023-01-22T00:00:00	2024-11-08T20:00:00	6	Velocidad del viento	0
2126	7	Sololá	701	Sololá	1	Sololá	1	Enero	2023-01-22T00:00:00	2024-11-08T20:00:00	7	Dirección del viento	0
2127	7	Sololá	701	Sololá	1	Sololá	1	Enero	2023-01-22T00:00:00	2024-11-08T20:00:00	1	Precipitación	0
2128	7	Sololá	701	Sololá	1	Sololá	1	Enero	2023-01-22T00:00:00	2024-11-08T20:00:00	8	Radiación solar	0
2129	7	Sololá	701	Sololá	1	Sololá	1	Enero	2023-01-22T00:00:00	2024-11-08T21:00:00	2	Temperatura media	12.1
2130	7	Sololá	701	Sololá	1	Sololá	1	Enero	2023-01-22T00:00:00	2024-11-08T21:00:00	4	Temperatura máxima	12.7
2131	7	Sololá	701	Sololá	1	Sololá	1	Enero	2023-01-22T00:00:00	2024-11-08T21:00:00	3	Temperatura mínima	12.1
2132	7	Sololá	701	Sololá	1	Sololá	1	Enero	2023-01-22T00:00:00	2024-11-08T21:00:00	5	Humedad	87
2133	7	Sololá	701	Sololá	1	Sololá	1	Enero	2023-01-22T00:00:00	2024-11-08T21:00:00	6	Velocidad del viento	0
2134	7	Sololá	701	Sololá	1	Sololá	1	Enero	2023-01-22T00:00:00	2024-11-08T21:00:00	7	Dirección del viento	0
2135	7	Sololá	701	Sololá	1	Sololá	1	Enero	2023-01-22T00:00:00	2024-11-08T21:00:00	1	Precipitación	0
2136	7	Sololá	701	Sololá	1	Sololá	1	Enero	2023-01-22T00:00:00	2024-11-08T21:00:00	8	Radiación solar	0
2137	7	Sololá	701	Sololá	1	Sololá	1	Enero	2023-01-22T00:00:00	2024-11-08T22:00:00	2	Temperatura media	11.8
2138	7	Sololá	701	Sololá	1	Sololá	1	Enero	2023-01-22T00:00:00	2024-11-08T22:00:00	4	Temperatura máxima	12.2
2139	7	Sololá	701	Sololá	1	Sololá	1	Enero	2023-01-22T00:00:00	2024-11-08T22:00:00	3	Temperatura mínima	11.8
2140	7	Sololá	701	Sololá	1	Sololá	1	Enero	2023-01-22T00:00:00	2024-11-08T22:00:00	5	Humedad	83
2141	7	Sololá	701	Sololá	1	Sololá	1	Enero	2023-01-22T00:00:00	2024-11-08T22:00:00	6	Velocidad del viento	0
2142	7	Sololá	701	Sololá	1	Sololá	1	Enero	2023-01-22T00:00:00	2024-11-08T22:00:00	7	Dirección del viento	0
2143	7	Sololá	701	Sololá	1	Sololá	1	Enero	2023-01-22T00:00:00	2024-11-08T22:00:00	1	Precipitación	0
2144	7	Sololá	701	Sololá	1	Sololá	1	Enero	2023-01-22T00:00:00	2024-11-08T22:00:00	8	Radiación solar	0
2145	7	Sololá	701	Sololá	1	Sololá	1	Enero	2023-01-22T00:00:00	2024-11-08T23:00:00	2	Temperatura media	11.6
2146	7	Sololá	701	Sololá	1	Sololá	1	Enero	2023-01-22T00:00:00	2024-11-08T23:00:00	4	Temperatura máxima	11.9
2147	7	Sololá	701	Sololá	1	Sololá	1	Enero	2023-01-22T00:00:00	2024-11-08T23:00:00	3	Temperatura mínima	11.6
2148	7	Sololá	701	Sololá	1	Sololá	1	Enero	2023-01-22T00:00:00	2024-11-08T23:00:00	5	Humedad	83
2149	7	Sololá	701	Sololá	1	Sololá	1	Enero	2023-01-22T00:00:00	2024-11-08T23:00:00	6	Velocidad del viento	0
2150	7	Sololá	701	Sololá	1	Sololá	1	Enero	2023-01-22T00:00:00	2024-11-08T23:00:00	7	Dirección del viento	0
2151	7	Sololá	701	Sololá	1	Sololá	1	Enero	2023-01-22T00:00:00	2024-11-08T23:00:00	1	Precipitación	0
2152	7	Sololá	701	Sololá	1	Sololá	1	Enero	2023-01-22T00:00:00	2024-11-08T23:00:00	8	Radiación solar	0
2153	7	Sololá	701	Sololá	1	Sololá	1	Enero	2023-01-23T00:00:00	2024-11-08T00:00:00	2	Temperatura media	10.9
2154	7	Sololá	701	Sololá	1	Sololá	1	Enero	2023-01-23T00:00:00	2024-11-08T00:00:00	4	Temperatura máxima	11.7
2155	7	Sololá	701	Sololá	1	Sololá	1	Enero	2023-01-23T00:00:00	2024-11-08T00:00:00	3	Temperatura mínima	10.9
2156	7	Sololá	701	Sololá	1	Sololá	1	Enero	2023-01-23T00:00:00	2024-11-08T00:00:00	5	Humedad	86
2157	7	Sololá	701	Sololá	1	Sololá	1	Enero	2023-01-23T00:00:00	2024-11-08T00:00:00	6	Velocidad del viento	0
2158	7	Sololá	701	Sololá	1	Sololá	1	Enero	2023-01-23T00:00:00	2024-11-08T00:00:00	7	Dirección del viento	0
2159	7	Sololá	701	Sololá	1	Sololá	1	Enero	2023-01-23T00:00:00	2024-11-08T00:00:00	1	Precipitación	0
2160	7	Sololá	701	Sololá	1	Sololá	1	Enero	2023-01-23T00:00:00	2024-11-08T00:00:00	8	Radiación solar	0
2161	7	Sololá	701	Sololá	1	Sololá	1	Enero	2023-01-23T00:00:00	2024-11-08T01:00:00	2	Temperatura media	10.6
2162	7	Sololá	701	Sololá	1	Sololá	1	Enero	2023-01-23T00:00:00	2024-11-08T01:00:00	4	Temperatura máxima	10.9
2163	7	Sololá	701	Sololá	1	Sololá	1	Enero	2023-01-23T00:00:00	2024-11-08T01:00:00	3	Temperatura mínima	10.4
2164	7	Sololá	701	Sololá	1	Sololá	1	Enero	2023-01-23T00:00:00	2024-11-08T01:00:00	5	Humedad	89
2165	7	Sololá	701	Sololá	1	Sololá	1	Enero	2023-01-23T00:00:00	2024-11-08T01:00:00	6	Velocidad del viento	0
2166	7	Sololá	701	Sololá	1	Sololá	1	Enero	2023-01-23T00:00:00	2024-11-08T01:00:00	7	Dirección del viento	0
2167	7	Sololá	701	Sololá	1	Sololá	1	Enero	2023-01-23T00:00:00	2024-11-08T01:00:00	1	Precipitación	0
2168	7	Sololá	701	Sololá	1	Sololá	1	Enero	2023-01-23T00:00:00	2024-11-08T01:00:00	8	Radiación solar	0
2169	7	Sololá	701	Sololá	1	Sololá	1	Enero	2023-01-23T00:00:00	2024-11-08T02:00:00	2	Temperatura media	9.8
2170	7	Sololá	701	Sololá	1	Sololá	1	Enero	2023-01-23T00:00:00	2024-11-08T02:00:00	4	Temperatura máxima	10.6
2171	7	Sololá	701	Sololá	1	Sololá	1	Enero	2023-01-23T00:00:00	2024-11-08T02:00:00	3	Temperatura mínima	9.8
2172	7	Sololá	701	Sololá	1	Sololá	1	Enero	2023-01-23T00:00:00	2024-11-08T02:00:00	5	Humedad	90
2173	7	Sololá	701	Sololá	1	Sololá	1	Enero	2023-01-23T00:00:00	2024-11-08T02:00:00	6	Velocidad del viento	0
2174	7	Sololá	701	Sololá	1	Sololá	1	Enero	2023-01-23T00:00:00	2024-11-08T02:00:00	7	Dirección del viento	0
2175	7	Sololá	701	Sololá	1	Sololá	1	Enero	2023-01-23T00:00:00	2024-11-08T02:00:00	1	Precipitación	0
2176	7	Sololá	701	Sololá	1	Sololá	1	Enero	2023-01-23T00:00:00	2024-11-08T02:00:00	8	Radiación solar	0
2177	7	Sololá	701	Sololá	1	Sololá	1	Enero	2023-01-23T00:00:00	2024-11-08T03:00:00	2	Temperatura media	10.8
2178	7	Sololá	701	Sololá	1	Sololá	1	Enero	2023-01-23T00:00:00	2024-11-08T03:00:00	4	Temperatura máxima	10.8
2179	7	Sololá	701	Sololá	1	Sololá	1	Enero	2023-01-23T00:00:00	2024-11-08T03:00:00	3	Temperatura mínima	9.8
2180	7	Sololá	701	Sololá	1	Sololá	1	Enero	2023-01-23T00:00:00	2024-11-08T03:00:00	5	Humedad	87
2181	7	Sololá	701	Sololá	1	Sololá	1	Enero	2023-01-23T00:00:00	2024-11-08T03:00:00	6	Velocidad del viento	0
2182	7	Sololá	701	Sololá	1	Sololá	1	Enero	2023-01-23T00:00:00	2024-11-08T03:00:00	7	Dirección del viento	0
2183	7	Sololá	701	Sololá	1	Sololá	1	Enero	2023-01-23T00:00:00	2024-11-08T03:00:00	1	Precipitación	0
2184	7	Sololá	701	Sololá	1	Sololá	1	Enero	2023-01-23T00:00:00	2024-11-08T03:00:00	8	Radiación solar	0
2185	7	Sololá	701	Sololá	1	Sololá	1	Enero	2023-01-23T00:00:00	2024-11-08T04:00:00	2	Temperatura media	10.9
2186	7	Sololá	701	Sololá	1	Sololá	1	Enero	2023-01-23T00:00:00	2024-11-08T04:00:00	4	Temperatura máxima	11.2
2187	7	Sololá	701	Sololá	1	Sololá	1	Enero	2023-01-23T00:00:00	2024-11-08T04:00:00	3	Temperatura mínima	10.8
2188	7	Sololá	701	Sololá	1	Sololá	1	Enero	2023-01-23T00:00:00	2024-11-08T04:00:00	5	Humedad	84
2189	7	Sololá	701	Sololá	1	Sololá	1	Enero	2023-01-23T00:00:00	2024-11-08T04:00:00	6	Velocidad del viento	0
2190	7	Sololá	701	Sololá	1	Sololá	1	Enero	2023-01-23T00:00:00	2024-11-08T04:00:00	7	Dirección del viento	0
2191	7	Sololá	701	Sololá	1	Sololá	1	Enero	2023-01-23T00:00:00	2024-11-08T04:00:00	1	Precipitación	0
2192	7	Sololá	701	Sololá	1	Sololá	1	Enero	2023-01-23T00:00:00	2024-11-08T04:00:00	8	Radiación solar	0
2193	7	Sololá	701	Sololá	1	Sololá	1	Enero	2023-01-23T00:00:00	2024-11-08T05:00:00	2	Temperatura media	10.5
2194	7	Sololá	701	Sololá	1	Sololá	1	Enero	2023-01-23T00:00:00	2024-11-08T05:00:00	4	Temperatura máxima	10.9
2195	7	Sololá	701	Sololá	1	Sololá	1	Enero	2023-01-23T00:00:00	2024-11-08T05:00:00	3	Temperatura mínima	10.5
2196	7	Sololá	701	Sololá	1	Sololá	1	Enero	2023-01-23T00:00:00	2024-11-08T05:00:00	5	Humedad	78
2197	7	Sololá	701	Sololá	1	Sololá	1	Enero	2023-01-23T00:00:00	2024-11-08T05:00:00	6	Velocidad del viento	0
2198	7	Sololá	701	Sololá	1	Sololá	1	Enero	2023-01-23T00:00:00	2024-11-08T05:00:00	7	Dirección del viento	0
2199	7	Sololá	701	Sololá	1	Sololá	1	Enero	2023-01-23T00:00:00	2024-11-08T05:00:00	1	Precipitación	0
2200	7	Sololá	701	Sololá	1	Sololá	1	Enero	2023-01-23T00:00:00	2024-11-08T05:00:00	8	Radiación solar	0
2201	7	Sololá	701	Sololá	1	Sololá	1	Enero	2023-01-23T00:00:00	2024-11-08T06:00:00	2	Temperatura media	10.6
2202	7	Sololá	701	Sololá	1	Sololá	1	Enero	2023-01-23T00:00:00	2024-11-08T06:00:00	4	Temperatura máxima	10.7
2203	7	Sololá	701	Sololá	1	Sololá	1	Enero	2023-01-23T00:00:00	2024-11-08T06:00:00	3	Temperatura mínima	9.9
2204	7	Sololá	701	Sololá	1	Sololá	1	Enero	2023-01-23T00:00:00	2024-11-08T06:00:00	5	Humedad	82
2205	7	Sololá	701	Sololá	1	Sololá	1	Enero	2023-01-23T00:00:00	2024-11-08T06:00:00	6	Velocidad del viento	0
2206	7	Sololá	701	Sololá	1	Sololá	1	Enero	2023-01-23T00:00:00	2024-11-08T06:00:00	7	Dirección del viento	0
2207	7	Sololá	701	Sololá	1	Sololá	1	Enero	2023-01-23T00:00:00	2024-11-08T06:00:00	1	Precipitación	0
2208	7	Sololá	701	Sololá	1	Sololá	1	Enero	2023-01-23T00:00:00	2024-11-08T06:00:00	8	Radiación solar	0
2209	7	Sololá	701	Sololá	1	Sololá	1	Enero	2023-01-23T00:00:00	2024-11-08T07:00:00	2	Temperatura media	10.8
2210	7	Sololá	701	Sololá	1	Sololá	1	Enero	2023-01-23T00:00:00	2024-11-08T07:00:00	4	Temperatura máxima	10.8
2211	7	Sololá	701	Sololá	1	Sololá	1	Enero	2023-01-23T00:00:00	2024-11-08T07:00:00	3	Temperatura mínima	10.6
2212	7	Sololá	701	Sololá	1	Sololá	1	Enero	2023-01-23T00:00:00	2024-11-08T07:00:00	5	Humedad	79
2213	7	Sololá	701	Sololá	1	Sololá	1	Enero	2023-01-23T00:00:00	2024-11-08T07:00:00	6	Velocidad del viento	0
2214	7	Sololá	701	Sololá	1	Sololá	1	Enero	2023-01-23T00:00:00	2024-11-08T07:00:00	7	Dirección del viento	0
2215	7	Sololá	701	Sololá	1	Sololá	1	Enero	2023-01-23T00:00:00	2024-11-08T07:00:00	1	Precipitación	0
2216	7	Sololá	701	Sololá	1	Sololá	1	Enero	2023-01-23T00:00:00	2024-11-08T07:00:00	8	Radiación solar	3
2217	7	Sololá	701	Sololá	1	Sololá	1	Enero	2023-01-23T00:00:00	2024-11-08T08:00:00	2	Temperatura media	12.5
2218	7	Sololá	701	Sololá	1	Sololá	1	Enero	2023-01-23T00:00:00	2024-11-08T08:00:00	4	Temperatura máxima	12.5
2219	7	Sololá	701	Sololá	1	Sololá	1	Enero	2023-01-23T00:00:00	2024-11-08T08:00:00	3	Temperatura mínima	10.8
2220	7	Sololá	701	Sololá	1	Sololá	1	Enero	2023-01-23T00:00:00	2024-11-08T08:00:00	5	Humedad	73
2221	7	Sololá	701	Sololá	1	Sololá	1	Enero	2023-01-23T00:00:00	2024-11-08T08:00:00	6	Velocidad del viento	0
2222	7	Sololá	701	Sololá	1	Sololá	1	Enero	2023-01-23T00:00:00	2024-11-08T08:00:00	7	Dirección del viento	0
2223	7	Sololá	701	Sololá	1	Sololá	1	Enero	2023-01-23T00:00:00	2024-11-08T08:00:00	1	Precipitación	0
2224	7	Sololá	701	Sololá	1	Sololá	1	Enero	2023-01-23T00:00:00	2024-11-08T08:00:00	8	Radiación solar	19
2225	7	Sololá	701	Sololá	1	Sololá	1	Enero	2023-01-23T00:00:00	2024-11-08T09:00:00	2	Temperatura media	17.2
2226	7	Sololá	701	Sololá	1	Sololá	1	Enero	2023-01-23T00:00:00	2024-11-08T09:00:00	4	Temperatura máxima	17.2
2227	7	Sololá	701	Sololá	1	Sololá	1	Enero	2023-01-23T00:00:00	2024-11-08T09:00:00	3	Temperatura mínima	12.6
2228	7	Sololá	701	Sololá	1	Sololá	1	Enero	2023-01-23T00:00:00	2024-11-08T09:00:00	5	Humedad	61
2229	7	Sololá	701	Sololá	1	Sololá	1	Enero	2023-01-23T00:00:00	2024-11-08T09:00:00	6	Velocidad del viento	0
2230	7	Sololá	701	Sololá	1	Sololá	1	Enero	2023-01-23T00:00:00	2024-11-08T09:00:00	7	Dirección del viento	0
2231	7	Sololá	701	Sololá	1	Sololá	1	Enero	2023-01-23T00:00:00	2024-11-08T09:00:00	1	Precipitación	0
2232	7	Sololá	701	Sololá	1	Sololá	1	Enero	2023-01-23T00:00:00	2024-11-08T09:00:00	8	Radiación solar	343
2233	7	Sololá	701	Sololá	1	Sololá	1	Enero	2023-01-23T00:00:00	2024-11-08T10:00:00	2	Temperatura media	19.6
2234	7	Sololá	701	Sololá	1	Sololá	1	Enero	2023-01-23T00:00:00	2024-11-08T10:00:00	4	Temperatura máxima	19.6
2235	7	Sololá	701	Sololá	1	Sololá	1	Enero	2023-01-23T00:00:00	2024-11-08T10:00:00	3	Temperatura mínima	17.2
2236	7	Sololá	701	Sololá	1	Sololá	1	Enero	2023-01-23T00:00:00	2024-11-08T10:00:00	5	Humedad	50
2237	7	Sololá	701	Sololá	1	Sololá	1	Enero	2023-01-23T00:00:00	2024-11-08T10:00:00	6	Velocidad del viento	0
2238	7	Sololá	701	Sololá	1	Sololá	1	Enero	2023-01-23T00:00:00	2024-11-08T10:00:00	7	Dirección del viento	0
2239	7	Sololá	701	Sololá	1	Sololá	1	Enero	2023-01-23T00:00:00	2024-11-08T10:00:00	1	Precipitación	0
2240	7	Sololá	701	Sololá	1	Sololá	1	Enero	2023-01-23T00:00:00	2024-11-08T10:00:00	8	Radiación solar	640
2241	7	Sololá	701	Sololá	1	Sololá	1	Enero	2023-01-23T00:00:00	2024-11-08T11:00:00	2	Temperatura media	21.2
2242	7	Sololá	701	Sololá	1	Sololá	1	Enero	2023-01-23T00:00:00	2024-11-08T11:00:00	4	Temperatura máxima	21.4
2243	7	Sololá	701	Sololá	1	Sololá	1	Enero	2023-01-23T00:00:00	2024-11-08T11:00:00	3	Temperatura mínima	19.6
2244	7	Sololá	701	Sololá	1	Sololá	1	Enero	2023-01-23T00:00:00	2024-11-08T11:00:00	5	Humedad	42
2245	7	Sololá	701	Sololá	1	Sololá	1	Enero	2023-01-23T00:00:00	2024-11-08T11:00:00	6	Velocidad del viento	0
2246	7	Sololá	701	Sololá	1	Sololá	1	Enero	2023-01-23T00:00:00	2024-11-08T11:00:00	7	Dirección del viento	0
2247	7	Sololá	701	Sololá	1	Sololá	1	Enero	2023-01-23T00:00:00	2024-11-08T11:00:00	1	Precipitación	0
2248	7	Sololá	701	Sololá	1	Sololá	1	Enero	2023-01-23T00:00:00	2024-11-08T11:00:00	8	Radiación solar	775
2249	7	Sololá	701	Sololá	1	Sololá	1	Enero	2023-01-23T00:00:00	2024-11-08T12:00:00	2	Temperatura media	22.3
2250	7	Sololá	701	Sololá	1	Sololá	1	Enero	2023-01-23T00:00:00	2024-11-08T12:00:00	4	Temperatura máxima	22.5
2251	7	Sololá	701	Sololá	1	Sololá	1	Enero	2023-01-23T00:00:00	2024-11-08T12:00:00	3	Temperatura mínima	21.1
2252	7	Sololá	701	Sololá	1	Sololá	1	Enero	2023-01-23T00:00:00	2024-11-08T12:00:00	5	Humedad	37
2253	7	Sololá	701	Sololá	1	Sololá	1	Enero	2023-01-23T00:00:00	2024-11-08T12:00:00	6	Velocidad del viento	0
2254	7	Sololá	701	Sololá	1	Sololá	1	Enero	2023-01-23T00:00:00	2024-11-08T12:00:00	7	Dirección del viento	0
2255	7	Sololá	701	Sololá	1	Sololá	1	Enero	2023-01-23T00:00:00	2024-11-08T12:00:00	1	Precipitación	0
2256	7	Sololá	701	Sololá	1	Sololá	1	Enero	2023-01-23T00:00:00	2024-11-08T12:00:00	8	Radiación solar	847
2257	7	Sololá	701	Sololá	1	Sololá	1	Enero	2023-01-23T00:00:00	2024-11-08T13:00:00	2	Temperatura media	22.7
2258	7	Sololá	701	Sololá	1	Sololá	1	Enero	2023-01-23T00:00:00	2024-11-08T13:00:00	4	Temperatura máxima	23.2
2259	7	Sololá	701	Sololá	1	Sololá	1	Enero	2023-01-23T00:00:00	2024-11-08T13:00:00	3	Temperatura mínima	22.3
2260	7	Sololá	701	Sololá	1	Sololá	1	Enero	2023-01-23T00:00:00	2024-11-08T13:00:00	5	Humedad	39
2261	7	Sololá	701	Sololá	1	Sololá	1	Enero	2023-01-23T00:00:00	2024-11-08T13:00:00	6	Velocidad del viento	1.6
2262	7	Sololá	701	Sololá	1	Sololá	1	Enero	2023-01-23T00:00:00	2024-11-08T13:00:00	7	Dirección del viento	1.61
2263	7	Sololá	701	Sololá	1	Sololá	1	Enero	2023-01-23T00:00:00	2024-11-08T13:00:00	1	Precipitación	0
2264	7	Sololá	701	Sololá	1	Sololá	1	Enero	2023-01-23T00:00:00	2024-11-08T13:00:00	8	Radiación solar	841
2265	7	Sololá	701	Sololá	1	Sololá	1	Enero	2023-01-23T00:00:00	2024-11-08T14:00:00	2	Temperatura media	21.4
2266	7	Sololá	701	Sololá	1	Sololá	1	Enero	2023-01-23T00:00:00	2024-11-08T14:00:00	4	Temperatura máxima	23.2
2267	7	Sololá	701	Sololá	1	Sololá	1	Enero	2023-01-23T00:00:00	2024-11-08T14:00:00	3	Temperatura mínima	21.3
2268	7	Sololá	701	Sololá	1	Sololá	1	Enero	2023-01-23T00:00:00	2024-11-08T14:00:00	5	Humedad	46
2269	7	Sololá	701	Sololá	1	Sololá	1	Enero	2023-01-23T00:00:00	2024-11-08T14:00:00	6	Velocidad del viento	0
2270	7	Sololá	701	Sololá	1	Sololá	1	Enero	2023-01-23T00:00:00	2024-11-08T14:00:00	7	Dirección del viento	0
2271	7	Sololá	701	Sololá	1	Sololá	1	Enero	2023-01-23T00:00:00	2024-11-08T14:00:00	1	Precipitación	0
2272	7	Sololá	701	Sololá	1	Sololá	1	Enero	2023-01-23T00:00:00	2024-11-08T14:00:00	8	Radiación solar	391
2273	7	Sololá	701	Sololá	1	Sololá	1	Enero	2023-01-23T00:00:00	2024-11-08T15:00:00	2	Temperatura media	21.8
2274	7	Sololá	701	Sololá	1	Sololá	1	Enero	2023-01-23T00:00:00	2024-11-08T15:00:00	4	Temperatura máxima	22.4
2275	7	Sololá	701	Sololá	1	Sololá	1	Enero	2023-01-23T00:00:00	2024-11-08T15:00:00	3	Temperatura mínima	20.7
2276	7	Sololá	701	Sololá	1	Sololá	1	Enero	2023-01-23T00:00:00	2024-11-08T15:00:00	5	Humedad	45
2277	7	Sololá	701	Sololá	1	Sololá	1	Enero	2023-01-23T00:00:00	2024-11-08T15:00:00	6	Velocidad del viento	0
2278	7	Sololá	701	Sololá	1	Sololá	1	Enero	2023-01-23T00:00:00	2024-11-08T15:00:00	7	Dirección del viento	0
2279	7	Sololá	701	Sololá	1	Sololá	1	Enero	2023-01-23T00:00:00	2024-11-08T15:00:00	1	Precipitación	0
2280	7	Sololá	701	Sololá	1	Sololá	1	Enero	2023-01-23T00:00:00	2024-11-08T15:00:00	8	Radiación solar	107
2281	7	Sololá	701	Sololá	1	Sololá	1	Enero	2023-01-23T00:00:00	2024-11-08T16:00:00	2	Temperatura media	21.4
2282	7	Sololá	701	Sololá	1	Sololá	1	Enero	2023-01-23T00:00:00	2024-11-08T16:00:00	4	Temperatura máxima	21.8
2283	7	Sololá	701	Sololá	1	Sololá	1	Enero	2023-01-23T00:00:00	2024-11-08T16:00:00	3	Temperatura mínima	20.8
2284	7	Sololá	701	Sololá	1	Sololá	1	Enero	2023-01-23T00:00:00	2024-11-08T16:00:00	5	Humedad	46
2285	7	Sololá	701	Sololá	1	Sololá	1	Enero	2023-01-23T00:00:00	2024-11-08T16:00:00	6	Velocidad del viento	0
2286	7	Sololá	701	Sololá	1	Sololá	1	Enero	2023-01-23T00:00:00	2024-11-08T16:00:00	7	Dirección del viento	0
2287	7	Sololá	701	Sololá	1	Sololá	1	Enero	2023-01-23T00:00:00	2024-11-08T16:00:00	1	Precipitación	0
2288	7	Sololá	701	Sololá	1	Sololá	1	Enero	2023-01-23T00:00:00	2024-11-08T16:00:00	8	Radiación solar	118
2289	7	Sololá	701	Sololá	1	Sololá	1	Enero	2023-01-23T00:00:00	2024-11-08T17:00:00	2	Temperatura media	20.2
2290	7	Sololá	701	Sololá	1	Sololá	1	Enero	2023-01-23T00:00:00	2024-11-08T17:00:00	4	Temperatura máxima	21.5
2291	7	Sololá	701	Sololá	1	Sololá	1	Enero	2023-01-23T00:00:00	2024-11-08T17:00:00	3	Temperatura mínima	20.2
2292	7	Sololá	701	Sololá	1	Sololá	1	Enero	2023-01-23T00:00:00	2024-11-08T17:00:00	5	Humedad	54
2293	7	Sololá	701	Sololá	1	Sololá	1	Enero	2023-01-23T00:00:00	2024-11-08T17:00:00	6	Velocidad del viento	0
2294	7	Sololá	701	Sololá	1	Sololá	1	Enero	2023-01-23T00:00:00	2024-11-08T17:00:00	7	Dirección del viento	0
2295	7	Sololá	701	Sololá	1	Sololá	1	Enero	2023-01-23T00:00:00	2024-11-08T17:00:00	1	Precipitación	0
2296	7	Sololá	701	Sololá	1	Sololá	1	Enero	2023-01-23T00:00:00	2024-11-08T17:00:00	8	Radiación solar	47
2297	7	Sololá	701	Sololá	1	Sololá	1	Enero	2023-01-23T00:00:00	2024-11-08T18:00:00	2	Temperatura media	17.8
2298	7	Sololá	701	Sololá	1	Sololá	1	Enero	2023-01-23T00:00:00	2024-11-08T18:00:00	4	Temperatura máxima	20.2
2299	7	Sololá	701	Sololá	1	Sololá	1	Enero	2023-01-23T00:00:00	2024-11-08T18:00:00	3	Temperatura mínima	17.8
2300	7	Sololá	701	Sololá	1	Sololá	1	Enero	2023-01-23T00:00:00	2024-11-08T18:00:00	5	Humedad	62
2301	7	Sololá	701	Sololá	1	Sololá	1	Enero	2023-01-23T00:00:00	2024-11-08T18:00:00	6	Velocidad del viento	0
2302	7	Sololá	701	Sololá	1	Sololá	1	Enero	2023-01-23T00:00:00	2024-11-08T18:00:00	7	Dirección del viento	0
2303	7	Sololá	701	Sololá	1	Sololá	1	Enero	2023-01-23T00:00:00	2024-11-08T18:00:00	1	Precipitación	0
2304	7	Sololá	701	Sololá	1	Sololá	1	Enero	2023-01-23T00:00:00	2024-11-08T18:00:00	8	Radiación solar	23
2305	7	Sololá	701	Sololá	1	Sololá	1	Enero	2023-01-23T00:00:00	2024-11-08T19:00:00	2	Temperatura media	15.4
2306	7	Sololá	701	Sololá	1	Sololá	1	Enero	2023-01-23T00:00:00	2024-11-08T19:00:00	4	Temperatura máxima	17.8
2307	7	Sololá	701	Sololá	1	Sololá	1	Enero	2023-01-23T00:00:00	2024-11-08T19:00:00	3	Temperatura mínima	15.4
2308	7	Sololá	701	Sololá	1	Sololá	1	Enero	2023-01-23T00:00:00	2024-11-08T19:00:00	5	Humedad	71
2309	7	Sololá	701	Sololá	1	Sololá	1	Enero	2023-01-23T00:00:00	2024-11-08T19:00:00	6	Velocidad del viento	0
2310	7	Sololá	701	Sololá	1	Sololá	1	Enero	2023-01-23T00:00:00	2024-11-08T19:00:00	7	Dirección del viento	0
2311	7	Sololá	701	Sololá	1	Sololá	1	Enero	2023-01-23T00:00:00	2024-11-08T19:00:00	1	Precipitación	0
2312	7	Sololá	701	Sololá	1	Sololá	1	Enero	2023-01-23T00:00:00	2024-11-08T19:00:00	8	Radiación solar	0
2313	7	Sololá	701	Sololá	1	Sololá	1	Enero	2023-01-23T00:00:00	2024-11-08T20:00:00	2	Temperatura media	14.2
2314	7	Sololá	701	Sololá	1	Sololá	1	Enero	2023-01-23T00:00:00	2024-11-08T20:00:00	4	Temperatura máxima	15.4
2315	7	Sololá	701	Sololá	1	Sololá	1	Enero	2023-01-23T00:00:00	2024-11-08T20:00:00	3	Temperatura mínima	14.2
2316	7	Sololá	701	Sololá	1	Sololá	1	Enero	2023-01-23T00:00:00	2024-11-08T20:00:00	5	Humedad	75
2317	7	Sololá	701	Sololá	1	Sololá	1	Enero	2023-01-23T00:00:00	2024-11-08T20:00:00	6	Velocidad del viento	0
2318	7	Sololá	701	Sololá	1	Sololá	1	Enero	2023-01-23T00:00:00	2024-11-08T20:00:00	7	Dirección del viento	0
2319	7	Sololá	701	Sololá	1	Sololá	1	Enero	2023-01-23T00:00:00	2024-11-08T20:00:00	1	Precipitación	0
2320	7	Sololá	701	Sololá	1	Sololá	1	Enero	2023-01-23T00:00:00	2024-11-08T20:00:00	8	Radiación solar	0
2321	7	Sololá	701	Sololá	1	Sololá	1	Enero	2023-01-23T00:00:00	2024-11-08T21:00:00	2	Temperatura media	13.6
2322	7	Sololá	701	Sololá	1	Sololá	1	Enero	2023-01-23T00:00:00	2024-11-08T21:00:00	4	Temperatura máxima	14.2
2323	7	Sololá	701	Sololá	1	Sololá	1	Enero	2023-01-23T00:00:00	2024-11-08T21:00:00	3	Temperatura mínima	13.6
2324	7	Sololá	701	Sololá	1	Sololá	1	Enero	2023-01-23T00:00:00	2024-11-08T21:00:00	5	Humedad	78
2325	7	Sololá	701	Sololá	1	Sololá	1	Enero	2023-01-23T00:00:00	2024-11-08T21:00:00	6	Velocidad del viento	0
2326	7	Sololá	701	Sololá	1	Sololá	1	Enero	2023-01-23T00:00:00	2024-11-08T21:00:00	7	Dirección del viento	0
2327	7	Sololá	701	Sololá	1	Sololá	1	Enero	2023-01-23T00:00:00	2024-11-08T21:00:00	1	Precipitación	0
2328	7	Sololá	701	Sololá	1	Sololá	1	Enero	2023-01-23T00:00:00	2024-11-08T21:00:00	8	Radiación solar	0
2329	7	Sololá	701	Sololá	1	Sololá	1	Enero	2023-01-23T00:00:00	2024-11-08T22:00:00	2	Temperatura media	13
2330	7	Sololá	701	Sololá	1	Sololá	1	Enero	2023-01-23T00:00:00	2024-11-08T22:00:00	4	Temperatura máxima	13.6
2331	7	Sololá	701	Sololá	1	Sololá	1	Enero	2023-01-23T00:00:00	2024-11-08T22:00:00	3	Temperatura mínima	12.9
2332	7	Sololá	701	Sololá	1	Sololá	1	Enero	2023-01-23T00:00:00	2024-11-08T22:00:00	5	Humedad	79
2333	7	Sololá	701	Sololá	1	Sololá	1	Enero	2023-01-23T00:00:00	2024-11-08T22:00:00	6	Velocidad del viento	0
2334	7	Sololá	701	Sololá	1	Sololá	1	Enero	2023-01-23T00:00:00	2024-11-08T22:00:00	7	Dirección del viento	0
2335	7	Sololá	701	Sololá	1	Sololá	1	Enero	2023-01-23T00:00:00	2024-11-08T22:00:00	1	Precipitación	0
2336	7	Sololá	701	Sololá	1	Sololá	1	Enero	2023-01-23T00:00:00	2024-11-08T22:00:00	8	Radiación solar	0
2337	7	Sololá	701	Sololá	1	Sololá	1	Enero	2023-01-23T00:00:00	2024-11-08T23:00:00	2	Temperatura media	12.5
2338	7	Sololá	701	Sololá	1	Sololá	1	Enero	2023-01-23T00:00:00	2024-11-08T23:00:00	4	Temperatura máxima	13
2339	7	Sololá	701	Sololá	1	Sololá	1	Enero	2023-01-23T00:00:00	2024-11-08T23:00:00	3	Temperatura mínima	12.5
2340	7	Sololá	701	Sololá	1	Sololá	1	Enero	2023-01-23T00:00:00	2024-11-08T23:00:00	5	Humedad	74
2341	7	Sololá	701	Sololá	1	Sololá	1	Enero	2023-01-23T00:00:00	2024-11-08T23:00:00	6	Velocidad del viento	0
2342	7	Sololá	701	Sololá	1	Sololá	1	Enero	2023-01-23T00:00:00	2024-11-08T23:00:00	7	Dirección del viento	0
2343	7	Sololá	701	Sololá	1	Sololá	1	Enero	2023-01-23T00:00:00	2024-11-08T23:00:00	1	Precipitación	0
2344	7	Sololá	701	Sololá	1	Sololá	1	Enero	2023-01-23T00:00:00	2024-11-08T23:00:00	8	Radiación solar	0
2345	7	Sololá	701	Sololá	1	Sololá	1	Enero	2023-01-24T00:00:00	2024-11-08T00:00:00	2	Temperatura media	12.2
2346	7	Sololá	701	Sololá	1	Sololá	1	Enero	2023-01-24T00:00:00	2024-11-08T00:00:00	4	Temperatura máxima	12.6
2347	7	Sololá	701	Sololá	1	Sololá	1	Enero	2023-01-24T00:00:00	2024-11-08T00:00:00	3	Temperatura mínima	12.2
2348	7	Sololá	701	Sololá	1	Sololá	1	Enero	2023-01-24T00:00:00	2024-11-08T00:00:00	5	Humedad	66
2349	7	Sololá	701	Sololá	1	Sololá	1	Enero	2023-01-24T00:00:00	2024-11-08T00:00:00	6	Velocidad del viento	0
2350	7	Sololá	701	Sololá	1	Sololá	1	Enero	2023-01-24T00:00:00	2024-11-08T00:00:00	7	Dirección del viento	0
2351	7	Sololá	701	Sololá	1	Sololá	1	Enero	2023-01-24T00:00:00	2024-11-08T00:00:00	1	Precipitación	0
2352	7	Sololá	701	Sololá	1	Sololá	1	Enero	2023-01-24T00:00:00	2024-11-08T00:00:00	8	Radiación solar	0
2353	7	Sololá	701	Sololá	1	Sololá	1	Enero	2023-01-24T00:00:00	2024-11-08T01:00:00	2	Temperatura media	11.8
2354	7	Sololá	701	Sololá	1	Sololá	1	Enero	2023-01-24T00:00:00	2024-11-08T01:00:00	4	Temperatura máxima	12.2
2355	7	Sololá	701	Sololá	1	Sololá	1	Enero	2023-01-24T00:00:00	2024-11-08T01:00:00	3	Temperatura mínima	11.8
2356	7	Sololá	701	Sololá	1	Sololá	1	Enero	2023-01-24T00:00:00	2024-11-08T01:00:00	5	Humedad	51
2357	7	Sololá	701	Sololá	1	Sololá	1	Enero	2023-01-24T00:00:00	2024-11-08T01:00:00	6	Velocidad del viento	0
2358	7	Sololá	701	Sololá	1	Sololá	1	Enero	2023-01-24T00:00:00	2024-11-08T01:00:00	7	Dirección del viento	0
2359	7	Sololá	701	Sololá	1	Sololá	1	Enero	2023-01-24T00:00:00	2024-11-08T01:00:00	1	Precipitación	0
2360	7	Sololá	701	Sololá	1	Sololá	1	Enero	2023-01-24T00:00:00	2024-11-08T01:00:00	8	Radiación solar	0
2361	7	Sololá	701	Sololá	1	Sololá	1	Enero	2023-01-24T00:00:00	2024-11-08T02:00:00	2	Temperatura media	11.7
2362	7	Sololá	701	Sololá	1	Sololá	1	Enero	2023-01-24T00:00:00	2024-11-08T02:00:00	4	Temperatura máxima	11.8
2363	7	Sololá	701	Sololá	1	Sololá	1	Enero	2023-01-24T00:00:00	2024-11-08T02:00:00	3	Temperatura mínima	11.6
2364	7	Sololá	701	Sololá	1	Sololá	1	Enero	2023-01-24T00:00:00	2024-11-08T02:00:00	5	Humedad	46
2365	7	Sololá	701	Sololá	1	Sololá	1	Enero	2023-01-24T00:00:00	2024-11-08T02:00:00	6	Velocidad del viento	0
2366	7	Sololá	701	Sololá	1	Sololá	1	Enero	2023-01-24T00:00:00	2024-11-08T02:00:00	7	Dirección del viento	0
2367	7	Sololá	701	Sololá	1	Sololá	1	Enero	2023-01-24T00:00:00	2024-11-08T02:00:00	1	Precipitación	0
2368	7	Sololá	701	Sololá	1	Sololá	1	Enero	2023-01-24T00:00:00	2024-11-08T02:00:00	8	Radiación solar	0
2369	7	Sololá	701	Sololá	1	Sololá	1	Enero	2023-01-24T00:00:00	2024-11-08T03:00:00	2	Temperatura media	11.5
2370	7	Sololá	701	Sololá	1	Sololá	1	Enero	2023-01-24T00:00:00	2024-11-08T03:00:00	4	Temperatura máxima	11.8
2371	7	Sololá	701	Sololá	1	Sololá	1	Enero	2023-01-24T00:00:00	2024-11-08T03:00:00	3	Temperatura mínima	11.5
2372	7	Sololá	701	Sololá	1	Sololá	1	Enero	2023-01-24T00:00:00	2024-11-08T03:00:00	5	Humedad	52
2373	7	Sololá	701	Sololá	1	Sololá	1	Enero	2023-01-24T00:00:00	2024-11-08T03:00:00	6	Velocidad del viento	0
2374	7	Sololá	701	Sololá	1	Sololá	1	Enero	2023-01-24T00:00:00	2024-11-08T03:00:00	7	Dirección del viento	0
2375	7	Sololá	701	Sololá	1	Sololá	1	Enero	2023-01-24T00:00:00	2024-11-08T03:00:00	1	Precipitación	0
2376	7	Sololá	701	Sololá	1	Sololá	1	Enero	2023-01-24T00:00:00	2024-11-08T03:00:00	8	Radiación solar	0
2377	7	Sololá	701	Sololá	1	Sololá	1	Enero	2023-01-24T00:00:00	2024-11-08T04:00:00	2	Temperatura media	11.4
2378	7	Sololá	701	Sololá	1	Sololá	1	Enero	2023-01-24T00:00:00	2024-11-08T04:00:00	4	Temperatura máxima	11.5
2379	7	Sololá	701	Sololá	1	Sololá	1	Enero	2023-01-24T00:00:00	2024-11-08T04:00:00	3	Temperatura mínima	11.3
2380	7	Sololá	701	Sololá	1	Sololá	1	Enero	2023-01-24T00:00:00	2024-11-08T04:00:00	5	Humedad	50
2381	7	Sololá	701	Sololá	1	Sololá	1	Enero	2023-01-24T00:00:00	2024-11-08T04:00:00	6	Velocidad del viento	0
2382	7	Sololá	701	Sololá	1	Sololá	1	Enero	2023-01-24T00:00:00	2024-11-08T04:00:00	7	Dirección del viento	0
2383	7	Sololá	701	Sololá	1	Sololá	1	Enero	2023-01-24T00:00:00	2024-11-08T04:00:00	1	Precipitación	0
2384	7	Sololá	701	Sololá	1	Sololá	1	Enero	2023-01-24T00:00:00	2024-11-08T04:00:00	8	Radiación solar	0
2385	7	Sololá	701	Sololá	1	Sololá	1	Enero	2023-01-24T00:00:00	2024-11-08T05:00:00	2	Temperatura media	11.6
2386	7	Sololá	701	Sololá	1	Sololá	1	Enero	2023-01-24T00:00:00	2024-11-08T05:00:00	4	Temperatura máxima	11.6
2387	7	Sololá	701	Sololá	1	Sololá	1	Enero	2023-01-24T00:00:00	2024-11-08T05:00:00	3	Temperatura mínima	11.4
2388	7	Sololá	701	Sololá	1	Sololá	1	Enero	2023-01-24T00:00:00	2024-11-08T05:00:00	5	Humedad	49
2389	7	Sololá	701	Sololá	1	Sololá	1	Enero	2023-01-24T00:00:00	2024-11-08T05:00:00	6	Velocidad del viento	0
2390	7	Sololá	701	Sololá	1	Sololá	1	Enero	2023-01-24T00:00:00	2024-11-08T05:00:00	7	Dirección del viento	0
2391	7	Sololá	701	Sololá	1	Sololá	1	Enero	2023-01-24T00:00:00	2024-11-08T05:00:00	1	Precipitación	0
2392	7	Sololá	701	Sololá	1	Sololá	1	Enero	2023-01-24T00:00:00	2024-11-08T05:00:00	8	Radiación solar	0
2393	7	Sololá	701	Sololá	1	Sololá	1	Enero	2023-01-24T00:00:00	2024-11-08T06:00:00	2	Temperatura media	11.6
2394	7	Sololá	701	Sololá	1	Sololá	1	Enero	2023-01-24T00:00:00	2024-11-08T06:00:00	4	Temperatura máxima	11.6
2395	7	Sololá	701	Sololá	1	Sololá	1	Enero	2023-01-24T00:00:00	2024-11-08T06:00:00	3	Temperatura mínima	11.4
2396	7	Sololá	701	Sololá	1	Sololá	1	Enero	2023-01-24T00:00:00	2024-11-08T06:00:00	5	Humedad	50
2397	7	Sololá	701	Sololá	1	Sololá	1	Enero	2023-01-24T00:00:00	2024-11-08T06:00:00	6	Velocidad del viento	0
2398	7	Sololá	701	Sololá	1	Sololá	1	Enero	2023-01-24T00:00:00	2024-11-08T06:00:00	7	Dirección del viento	0
2399	7	Sololá	701	Sololá	1	Sololá	1	Enero	2023-01-24T00:00:00	2024-11-08T06:00:00	1	Precipitación	0
2400	7	Sololá	701	Sololá	1	Sololá	1	Enero	2023-01-24T00:00:00	2024-11-08T06:00:00	8	Radiación solar	0
2401	7	Sololá	701	Sololá	1	Sololá	1	Enero	2023-01-24T00:00:00	2024-11-08T07:00:00	2	Temperatura media	11.3
2402	7	Sololá	701	Sololá	1	Sololá	1	Enero	2023-01-24T00:00:00	2024-11-08T07:00:00	4	Temperatura máxima	11.6
2403	7	Sololá	701	Sololá	1	Sololá	1	Enero	2023-01-24T00:00:00	2024-11-08T07:00:00	3	Temperatura mínima	11.3
2404	7	Sololá	701	Sololá	1	Sololá	1	Enero	2023-01-24T00:00:00	2024-11-08T07:00:00	5	Humedad	53
2405	7	Sololá	701	Sololá	1	Sololá	1	Enero	2023-01-24T00:00:00	2024-11-08T07:00:00	6	Velocidad del viento	0
2406	7	Sololá	701	Sololá	1	Sololá	1	Enero	2023-01-24T00:00:00	2024-11-08T07:00:00	7	Dirección del viento	0
2407	7	Sololá	701	Sololá	1	Sololá	1	Enero	2023-01-24T00:00:00	2024-11-08T07:00:00	1	Precipitación	0
2408	7	Sololá	701	Sololá	1	Sololá	1	Enero	2023-01-24T00:00:00	2024-11-08T07:00:00	8	Radiación solar	2
2409	7	Sololá	701	Sololá	1	Sololá	1	Enero	2023-01-24T00:00:00	2024-11-08T08:00:00	2	Temperatura media	12.4
2410	7	Sololá	701	Sololá	1	Sololá	1	Enero	2023-01-24T00:00:00	2024-11-08T08:00:00	4	Temperatura máxima	12.4
2411	7	Sololá	701	Sololá	1	Sololá	1	Enero	2023-01-24T00:00:00	2024-11-08T08:00:00	3	Temperatura mínima	11.3
2412	7	Sololá	701	Sololá	1	Sololá	1	Enero	2023-01-24T00:00:00	2024-11-08T08:00:00	5	Humedad	52
2413	7	Sololá	701	Sololá	1	Sololá	1	Enero	2023-01-24T00:00:00	2024-11-08T08:00:00	6	Velocidad del viento	0
2414	7	Sololá	701	Sololá	1	Sololá	1	Enero	2023-01-24T00:00:00	2024-11-08T08:00:00	7	Dirección del viento	0
2415	7	Sololá	701	Sololá	1	Sololá	1	Enero	2023-01-24T00:00:00	2024-11-08T08:00:00	1	Precipitación	0
2416	7	Sololá	701	Sololá	1	Sololá	1	Enero	2023-01-24T00:00:00	2024-11-08T08:00:00	8	Radiación solar	17
2417	7	Sololá	701	Sololá	1	Sololá	1	Enero	2023-01-24T00:00:00	2024-11-08T09:00:00	2	Temperatura media	18.6
2418	7	Sololá	701	Sololá	1	Sololá	1	Enero	2023-01-24T00:00:00	2024-11-08T09:00:00	4	Temperatura máxima	18.6
2419	7	Sololá	701	Sololá	1	Sololá	1	Enero	2023-01-24T00:00:00	2024-11-08T09:00:00	3	Temperatura mínima	12.4
2420	7	Sololá	701	Sololá	1	Sololá	1	Enero	2023-01-24T00:00:00	2024-11-08T09:00:00	5	Humedad	37
2421	7	Sololá	701	Sololá	1	Sololá	1	Enero	2023-01-24T00:00:00	2024-11-08T09:00:00	6	Velocidad del viento	0
2422	7	Sololá	701	Sololá	1	Sololá	1	Enero	2023-01-24T00:00:00	2024-11-08T09:00:00	7	Dirección del viento	0
2423	7	Sololá	701	Sololá	1	Sololá	1	Enero	2023-01-24T00:00:00	2024-11-08T09:00:00	1	Precipitación	0
2424	7	Sololá	701	Sololá	1	Sololá	1	Enero	2023-01-24T00:00:00	2024-11-08T09:00:00	8	Radiación solar	352
2425	7	Sololá	701	Sololá	1	Sololá	1	Enero	2023-01-24T00:00:00	2024-11-08T10:00:00	2	Temperatura media	20.8
2426	7	Sololá	701	Sololá	1	Sololá	1	Enero	2023-01-24T00:00:00	2024-11-08T10:00:00	4	Temperatura máxima	21.2
2427	7	Sololá	701	Sololá	1	Sololá	1	Enero	2023-01-24T00:00:00	2024-11-08T10:00:00	3	Temperatura mínima	18.6
2428	7	Sololá	701	Sololá	1	Sololá	1	Enero	2023-01-24T00:00:00	2024-11-08T10:00:00	5	Humedad	42
2429	7	Sololá	701	Sololá	1	Sololá	1	Enero	2023-01-24T00:00:00	2024-11-08T10:00:00	6	Velocidad del viento	0
2430	7	Sololá	701	Sololá	1	Sololá	1	Enero	2023-01-24T00:00:00	2024-11-08T10:00:00	7	Dirección del viento	0
2431	7	Sololá	701	Sololá	1	Sololá	1	Enero	2023-01-24T00:00:00	2024-11-08T10:00:00	1	Precipitación	0
2432	7	Sololá	701	Sololá	1	Sololá	1	Enero	2023-01-24T00:00:00	2024-11-08T10:00:00	8	Radiación solar	648
2433	7	Sololá	701	Sololá	1	Sololá	1	Enero	2023-01-24T00:00:00	2024-11-08T11:00:00	2	Temperatura media	21.3
2434	7	Sololá	701	Sololá	1	Sololá	1	Enero	2023-01-24T00:00:00	2024-11-08T11:00:00	4	Temperatura máxima	21.3
2435	7	Sololá	701	Sololá	1	Sololá	1	Enero	2023-01-24T00:00:00	2024-11-08T11:00:00	3	Temperatura mínima	20.7
2436	7	Sololá	701	Sololá	1	Sololá	1	Enero	2023-01-24T00:00:00	2024-11-08T11:00:00	5	Humedad	43
2437	7	Sololá	701	Sololá	1	Sololá	1	Enero	2023-01-24T00:00:00	2024-11-08T11:00:00	6	Velocidad del viento	0
2438	7	Sololá	701	Sololá	1	Sololá	1	Enero	2023-01-24T00:00:00	2024-11-08T11:00:00	7	Dirección del viento	0
2439	7	Sololá	701	Sololá	1	Sololá	1	Enero	2023-01-24T00:00:00	2024-11-08T11:00:00	1	Precipitación	0
2440	7	Sololá	701	Sololá	1	Sololá	1	Enero	2023-01-24T00:00:00	2024-11-08T11:00:00	8	Radiación solar	785
2441	7	Sololá	701	Sololá	1	Sololá	1	Enero	2023-01-24T00:00:00	2024-11-08T12:00:00	2	Temperatura media	22.1
2442	7	Sololá	701	Sololá	1	Sololá	1	Enero	2023-01-24T00:00:00	2024-11-08T12:00:00	4	Temperatura máxima	22.1
2443	7	Sololá	701	Sololá	1	Sololá	1	Enero	2023-01-24T00:00:00	2024-11-08T12:00:00	3	Temperatura mínima	21.2
2444	7	Sololá	701	Sololá	1	Sololá	1	Enero	2023-01-24T00:00:00	2024-11-08T12:00:00	5	Humedad	40
2445	7	Sololá	701	Sololá	1	Sololá	1	Enero	2023-01-24T00:00:00	2024-11-08T12:00:00	6	Velocidad del viento	0
2446	7	Sololá	701	Sololá	1	Sololá	1	Enero	2023-01-24T00:00:00	2024-11-08T12:00:00	7	Dirección del viento	0
2447	7	Sololá	701	Sololá	1	Sololá	1	Enero	2023-01-24T00:00:00	2024-11-08T12:00:00	1	Precipitación	0
2448	7	Sololá	701	Sololá	1	Sololá	1	Enero	2023-01-24T00:00:00	2024-11-08T12:00:00	8	Radiación solar	854
2449	7	Sololá	701	Sololá	1	Sololá	1	Enero	2023-01-24T00:00:00	2024-11-08T13:00:00	2	Temperatura media	22.4
2450	7	Sololá	701	Sololá	1	Sololá	1	Enero	2023-01-24T00:00:00	2024-11-08T13:00:00	4	Temperatura máxima	23
2451	7	Sololá	701	Sololá	1	Sololá	1	Enero	2023-01-24T00:00:00	2024-11-08T13:00:00	3	Temperatura mínima	22.1
2452	7	Sololá	701	Sololá	1	Sololá	1	Enero	2023-01-24T00:00:00	2024-11-08T13:00:00	5	Humedad	43
2453	7	Sololá	701	Sololá	1	Sololá	1	Enero	2023-01-24T00:00:00	2024-11-08T13:00:00	6	Velocidad del viento	0
2454	7	Sololá	701	Sololá	1	Sololá	1	Enero	2023-01-24T00:00:00	2024-11-08T13:00:00	7	Dirección del viento	0
2455	7	Sololá	701	Sololá	1	Sololá	1	Enero	2023-01-24T00:00:00	2024-11-08T13:00:00	1	Precipitación	0
2456	7	Sololá	701	Sololá	1	Sololá	1	Enero	2023-01-24T00:00:00	2024-11-08T13:00:00	8	Radiación solar	857
2457	7	Sololá	701	Sololá	1	Sololá	1	Enero	2023-01-24T00:00:00	2024-11-08T14:00:00	2	Temperatura media	21.3
2458	7	Sololá	701	Sololá	1	Sololá	1	Enero	2023-01-24T00:00:00	2024-11-08T14:00:00	4	Temperatura máxima	22.7
2459	7	Sololá	701	Sololá	1	Sololá	1	Enero	2023-01-24T00:00:00	2024-11-08T14:00:00	3	Temperatura mínima	21.3
2460	7	Sololá	701	Sololá	1	Sololá	1	Enero	2023-01-24T00:00:00	2024-11-08T14:00:00	5	Humedad	63
2461	7	Sololá	701	Sololá	1	Sololá	1	Enero	2023-01-24T00:00:00	2024-11-08T14:00:00	6	Velocidad del viento	0
2462	7	Sololá	701	Sololá	1	Sololá	1	Enero	2023-01-24T00:00:00	2024-11-08T14:00:00	7	Dirección del viento	0
2463	7	Sololá	701	Sololá	1	Sololá	1	Enero	2023-01-24T00:00:00	2024-11-08T14:00:00	1	Precipitación	0
2464	7	Sololá	701	Sololá	1	Sololá	1	Enero	2023-01-24T00:00:00	2024-11-08T14:00:00	8	Radiación solar	254
2465	7	Sololá	701	Sololá	1	Sololá	1	Enero	2023-01-24T00:00:00	2024-11-08T15:00:00	2	Temperatura media	20.1
2466	7	Sololá	701	Sololá	1	Sololá	1	Enero	2023-01-24T00:00:00	2024-11-08T15:00:00	4	Temperatura máxima	21.3
2467	7	Sololá	701	Sololá	1	Sololá	1	Enero	2023-01-24T00:00:00	2024-11-08T15:00:00	3	Temperatura mínima	20.1
2468	7	Sololá	701	Sololá	1	Sololá	1	Enero	2023-01-24T00:00:00	2024-11-08T15:00:00	5	Humedad	70
2469	7	Sololá	701	Sololá	1	Sololá	1	Enero	2023-01-24T00:00:00	2024-11-08T15:00:00	6	Velocidad del viento	0
2470	7	Sololá	701	Sololá	1	Sololá	1	Enero	2023-01-24T00:00:00	2024-11-08T15:00:00	7	Dirección del viento	0
2471	7	Sololá	701	Sololá	1	Sololá	1	Enero	2023-01-24T00:00:00	2024-11-08T15:00:00	1	Precipitación	0
2472	7	Sololá	701	Sololá	1	Sololá	1	Enero	2023-01-24T00:00:00	2024-11-08T15:00:00	8	Radiación solar	126
2473	7	Sololá	701	Sololá	1	Sololá	1	Enero	2023-01-24T00:00:00	2024-11-08T16:00:00	2	Temperatura media	17.9
2474	7	Sololá	701	Sololá	1	Sololá	1	Enero	2023-01-24T00:00:00	2024-11-08T16:00:00	4	Temperatura máxima	20.2
2475	7	Sololá	701	Sololá	1	Sololá	1	Enero	2023-01-24T00:00:00	2024-11-08T16:00:00	3	Temperatura mínima	17.9
2476	7	Sololá	701	Sololá	1	Sololá	1	Enero	2023-01-24T00:00:00	2024-11-08T16:00:00	5	Humedad	77
2477	7	Sololá	701	Sololá	1	Sololá	1	Enero	2023-01-24T00:00:00	2024-11-08T16:00:00	6	Velocidad del viento	0
2478	7	Sololá	701	Sololá	1	Sololá	1	Enero	2023-01-24T00:00:00	2024-11-08T16:00:00	7	Dirección del viento	0
2479	7	Sololá	701	Sololá	1	Sololá	1	Enero	2023-01-24T00:00:00	2024-11-08T16:00:00	1	Precipitación	0
2480	7	Sololá	701	Sololá	1	Sololá	1	Enero	2023-01-24T00:00:00	2024-11-08T16:00:00	8	Radiación solar	127
2481	7	Sololá	701	Sololá	1	Sololá	1	Enero	2023-01-24T00:00:00	2024-11-08T17:00:00	2	Temperatura media	16.8
2482	7	Sololá	701	Sololá	1	Sololá	1	Enero	2023-01-24T00:00:00	2024-11-08T17:00:00	4	Temperatura máxima	17.9
2483	7	Sololá	701	Sololá	1	Sololá	1	Enero	2023-01-24T00:00:00	2024-11-08T17:00:00	3	Temperatura mínima	16.7
2484	7	Sololá	701	Sololá	1	Sololá	1	Enero	2023-01-24T00:00:00	2024-11-08T17:00:00	5	Humedad	81
2485	7	Sololá	701	Sololá	1	Sololá	1	Enero	2023-01-24T00:00:00	2024-11-08T17:00:00	6	Velocidad del viento	0
2486	7	Sololá	701	Sololá	1	Sololá	1	Enero	2023-01-24T00:00:00	2024-11-08T17:00:00	7	Dirección del viento	0
2487	7	Sololá	701	Sololá	1	Sololá	1	Enero	2023-01-24T00:00:00	2024-11-08T17:00:00	1	Precipitación	0
2488	7	Sololá	701	Sololá	1	Sololá	1	Enero	2023-01-24T00:00:00	2024-11-08T17:00:00	8	Radiación solar	66
2489	7	Sololá	701	Sololá	1	Sololá	1	Enero	2023-01-24T00:00:00	2024-11-08T18:00:00	2	Temperatura media	15.7
2490	7	Sololá	701	Sololá	1	Sololá	1	Enero	2023-01-24T00:00:00	2024-11-08T18:00:00	4	Temperatura máxima	16.7
2491	7	Sololá	701	Sololá	1	Sololá	1	Enero	2023-01-24T00:00:00	2024-11-08T18:00:00	3	Temperatura mínima	15.7
2492	7	Sololá	701	Sololá	1	Sololá	1	Enero	2023-01-24T00:00:00	2024-11-08T18:00:00	5	Humedad	84
2493	7	Sololá	701	Sololá	1	Sololá	1	Enero	2023-01-24T00:00:00	2024-11-08T18:00:00	6	Velocidad del viento	0
2494	7	Sololá	701	Sololá	1	Sololá	1	Enero	2023-01-24T00:00:00	2024-11-08T18:00:00	7	Dirección del viento	0
2495	7	Sololá	701	Sololá	1	Sololá	1	Enero	2023-01-24T00:00:00	2024-11-08T18:00:00	1	Precipitación	0
2496	7	Sololá	701	Sololá	1	Sololá	1	Enero	2023-01-24T00:00:00	2024-11-08T18:00:00	8	Radiación solar	25
2497	7	Sololá	701	Sololá	1	Sololá	1	Enero	2023-01-24T00:00:00	2024-11-08T19:00:00	2	Temperatura media	14.6
2498	7	Sololá	701	Sololá	1	Sololá	1	Enero	2023-01-24T00:00:00	2024-11-08T19:00:00	4	Temperatura máxima	15.7
2499	7	Sololá	701	Sololá	1	Sololá	1	Enero	2023-01-24T00:00:00	2024-11-08T19:00:00	3	Temperatura mínima	14.6
2500	7	Sololá	701	Sololá	1	Sololá	1	Enero	2023-01-24T00:00:00	2024-11-08T19:00:00	5	Humedad	90
2501	7	Sololá	701	Sololá	1	Sololá	1	Enero	2023-01-24T00:00:00	2024-11-08T19:00:00	6	Velocidad del viento	0
2502	7	Sololá	701	Sololá	1	Sololá	1	Enero	2023-01-24T00:00:00	2024-11-08T19:00:00	7	Dirección del viento	0
2503	7	Sololá	701	Sololá	1	Sololá	1	Enero	2023-01-24T00:00:00	2024-11-08T19:00:00	1	Precipitación	0
2504	7	Sololá	701	Sololá	1	Sololá	1	Enero	2023-01-24T00:00:00	2024-11-08T19:00:00	8	Radiación solar	0
2505	7	Sololá	701	Sololá	1	Sololá	1	Enero	2023-01-24T00:00:00	2024-11-08T20:00:00	2	Temperatura media	13.5
2506	7	Sololá	701	Sololá	1	Sololá	1	Enero	2023-01-24T00:00:00	2024-11-08T20:00:00	4	Temperatura máxima	14.6
2507	7	Sololá	701	Sololá	1	Sololá	1	Enero	2023-01-24T00:00:00	2024-11-08T20:00:00	3	Temperatura mínima	13.5
2508	7	Sololá	701	Sololá	1	Sololá	1	Enero	2023-01-24T00:00:00	2024-11-08T20:00:00	5	Humedad	86
2509	7	Sololá	701	Sololá	1	Sololá	1	Enero	2023-01-24T00:00:00	2024-11-08T20:00:00	6	Velocidad del viento	0
2510	7	Sololá	701	Sololá	1	Sololá	1	Enero	2023-01-24T00:00:00	2024-11-08T20:00:00	7	Dirección del viento	0
2511	7	Sololá	701	Sololá	1	Sololá	1	Enero	2023-01-24T00:00:00	2024-11-08T20:00:00	1	Precipitación	0
2512	7	Sololá	701	Sololá	1	Sololá	1	Enero	2023-01-24T00:00:00	2024-11-08T20:00:00	8	Radiación solar	0
2513	7	Sololá	701	Sololá	1	Sololá	1	Enero	2023-01-24T00:00:00	2024-11-08T21:00:00	2	Temperatura media	11.5
2514	7	Sololá	701	Sololá	1	Sololá	1	Enero	2023-01-24T00:00:00	2024-11-08T21:00:00	4	Temperatura máxima	13.5
2515	7	Sololá	701	Sololá	1	Sololá	1	Enero	2023-01-24T00:00:00	2024-11-08T21:00:00	3	Temperatura mínima	11.5
2516	7	Sololá	701	Sololá	1	Sololá	1	Enero	2023-01-24T00:00:00	2024-11-08T21:00:00	5	Humedad	85
2517	7	Sololá	701	Sololá	1	Sololá	1	Enero	2023-01-24T00:00:00	2024-11-08T21:00:00	6	Velocidad del viento	0
2518	7	Sololá	701	Sololá	1	Sololá	1	Enero	2023-01-24T00:00:00	2024-11-08T21:00:00	7	Dirección del viento	0
2519	7	Sololá	701	Sololá	1	Sololá	1	Enero	2023-01-24T00:00:00	2024-11-08T21:00:00	1	Precipitación	0
2520	7	Sololá	701	Sololá	1	Sololá	1	Enero	2023-01-24T00:00:00	2024-11-08T21:00:00	8	Radiación solar	0
2521	7	Sololá	701	Sololá	1	Sololá	1	Enero	2023-01-24T00:00:00	2024-11-08T22:00:00	2	Temperatura media	11.1
2522	7	Sololá	701	Sololá	1	Sololá	1	Enero	2023-01-24T00:00:00	2024-11-08T22:00:00	4	Temperatura máxima	11.5
2523	7	Sololá	701	Sololá	1	Sololá	1	Enero	2023-01-24T00:00:00	2024-11-08T22:00:00	3	Temperatura mínima	10.9
2524	7	Sololá	701	Sololá	1	Sololá	1	Enero	2023-01-24T00:00:00	2024-11-08T22:00:00	5	Humedad	72
2525	7	Sololá	701	Sololá	1	Sololá	1	Enero	2023-01-24T00:00:00	2024-11-08T22:00:00	6	Velocidad del viento	1.6
2526	7	Sololá	701	Sololá	1	Sololá	1	Enero	2023-01-24T00:00:00	2024-11-08T22:00:00	7	Dirección del viento	1.61
2527	7	Sololá	701	Sololá	1	Sololá	1	Enero	2023-01-24T00:00:00	2024-11-08T22:00:00	1	Precipitación	0
2528	7	Sololá	701	Sololá	1	Sololá	1	Enero	2023-01-24T00:00:00	2024-11-08T22:00:00	8	Radiación solar	0
2529	7	Sololá	701	Sololá	1	Sololá	1	Enero	2023-01-24T00:00:00	2024-11-08T23:00:00	2	Temperatura media	10.7
2530	7	Sololá	701	Sololá	1	Sololá	1	Enero	2023-01-24T00:00:00	2024-11-08T23:00:00	4	Temperatura máxima	11.2
2531	7	Sololá	701	Sololá	1	Sololá	1	Enero	2023-01-24T00:00:00	2024-11-08T23:00:00	3	Temperatura mínima	10.7
2532	7	Sololá	701	Sololá	1	Sololá	1	Enero	2023-01-24T00:00:00	2024-11-08T23:00:00	5	Humedad	71
2533	7	Sololá	701	Sololá	1	Sololá	1	Enero	2023-01-24T00:00:00	2024-11-08T23:00:00	6	Velocidad del viento	0
2534	7	Sololá	701	Sololá	1	Sololá	1	Enero	2023-01-24T00:00:00	2024-11-08T23:00:00	7	Dirección del viento	0
2535	7	Sololá	701	Sololá	1	Sololá	1	Enero	2023-01-24T00:00:00	2024-11-08T23:00:00	1	Precipitación	0
2536	7	Sololá	701	Sololá	1	Sololá	1	Enero	2023-01-24T00:00:00	2024-11-08T23:00:00	8	Radiación solar	0
2537	7	Sololá	701	Sololá	1	Sololá	1	Enero	2023-01-25T00:00:00	2024-11-08T00:00:00	2	Temperatura media	10.2
2538	7	Sololá	701	Sololá	1	Sololá	1	Enero	2023-01-25T00:00:00	2024-11-08T00:00:00	4	Temperatura máxima	10.7
2539	7	Sololá	701	Sololá	1	Sololá	1	Enero	2023-01-25T00:00:00	2024-11-08T00:00:00	3	Temperatura mínima	10.1
2540	7	Sololá	701	Sololá	1	Sololá	1	Enero	2023-01-25T00:00:00	2024-11-08T00:00:00	5	Humedad	78
2541	7	Sololá	701	Sololá	1	Sololá	1	Enero	2023-01-25T00:00:00	2024-11-08T00:00:00	6	Velocidad del viento	0
2542	7	Sololá	701	Sololá	1	Sololá	1	Enero	2023-01-25T00:00:00	2024-11-08T00:00:00	7	Dirección del viento	0
2543	7	Sololá	701	Sololá	1	Sololá	1	Enero	2023-01-25T00:00:00	2024-11-08T00:00:00	1	Precipitación	0
2544	7	Sololá	701	Sololá	1	Sololá	1	Enero	2023-01-25T00:00:00	2024-11-08T00:00:00	8	Radiación solar	0
2545	7	Sololá	701	Sololá	1	Sololá	1	Enero	2023-01-25T00:00:00	2024-11-08T01:00:00	2	Temperatura media	10.3
2546	7	Sololá	701	Sololá	1	Sololá	1	Enero	2023-01-25T00:00:00	2024-11-08T01:00:00	4	Temperatura máxima	10.3
2547	7	Sololá	701	Sololá	1	Sololá	1	Enero	2023-01-25T00:00:00	2024-11-08T01:00:00	3	Temperatura mínima	10.1
2548	7	Sololá	701	Sololá	1	Sololá	1	Enero	2023-01-25T00:00:00	2024-11-08T01:00:00	5	Humedad	81
2549	7	Sololá	701	Sololá	1	Sololá	1	Enero	2023-01-25T00:00:00	2024-11-08T01:00:00	6	Velocidad del viento	0
2550	7	Sololá	701	Sololá	1	Sololá	1	Enero	2023-01-25T00:00:00	2024-11-08T01:00:00	7	Dirección del viento	0
2551	7	Sololá	701	Sololá	1	Sololá	1	Enero	2023-01-25T00:00:00	2024-11-08T01:00:00	1	Precipitación	0
2552	7	Sololá	701	Sololá	1	Sololá	1	Enero	2023-01-25T00:00:00	2024-11-08T01:00:00	8	Radiación solar	0
2553	7	Sololá	701	Sololá	1	Sololá	1	Enero	2023-01-25T00:00:00	2024-11-08T02:00:00	2	Temperatura media	10.2
2554	7	Sololá	701	Sololá	1	Sololá	1	Enero	2023-01-25T00:00:00	2024-11-08T02:00:00	4	Temperatura máxima	10.3
2555	7	Sololá	701	Sololá	1	Sololá	1	Enero	2023-01-25T00:00:00	2024-11-08T02:00:00	3	Temperatura mínima	9.8
2556	7	Sololá	701	Sololá	1	Sololá	1	Enero	2023-01-25T00:00:00	2024-11-08T02:00:00	5	Humedad	82
2557	7	Sololá	701	Sololá	1	Sololá	1	Enero	2023-01-25T00:00:00	2024-11-08T02:00:00	6	Velocidad del viento	3.2
2558	7	Sololá	701	Sololá	1	Sololá	1	Enero	2023-01-25T00:00:00	2024-11-08T02:00:00	7	Dirección del viento	3.22
2559	7	Sololá	701	Sololá	1	Sololá	1	Enero	2023-01-25T00:00:00	2024-11-08T02:00:00	1	Precipitación	0
2560	7	Sololá	701	Sololá	1	Sololá	1	Enero	2023-01-25T00:00:00	2024-11-08T02:00:00	8	Radiación solar	0
2561	7	Sololá	701	Sololá	1	Sololá	1	Enero	2023-01-25T00:00:00	2024-11-08T03:00:00	2	Temperatura media	10.1
2562	7	Sololá	701	Sololá	1	Sololá	1	Enero	2023-01-25T00:00:00	2024-11-08T03:00:00	4	Temperatura máxima	10.2
2563	7	Sololá	701	Sololá	1	Sololá	1	Enero	2023-01-25T00:00:00	2024-11-08T03:00:00	3	Temperatura mínima	9.8
2564	7	Sololá	701	Sololá	1	Sololá	1	Enero	2023-01-25T00:00:00	2024-11-08T03:00:00	5	Humedad	83
2565	7	Sololá	701	Sololá	1	Sololá	1	Enero	2023-01-25T00:00:00	2024-11-08T03:00:00	6	Velocidad del viento	1.6
2566	7	Sololá	701	Sololá	1	Sololá	1	Enero	2023-01-25T00:00:00	2024-11-08T03:00:00	7	Dirección del viento	1.61
2567	7	Sololá	701	Sololá	1	Sololá	1	Enero	2023-01-25T00:00:00	2024-11-08T03:00:00	1	Precipitación	0
2568	7	Sololá	701	Sololá	1	Sololá	1	Enero	2023-01-25T00:00:00	2024-11-08T03:00:00	8	Radiación solar	0
2569	7	Sololá	701	Sololá	1	Sololá	1	Enero	2023-01-25T00:00:00	2024-11-08T04:00:00	2	Temperatura media	9.2
2570	7	Sololá	701	Sololá	1	Sololá	1	Enero	2023-01-25T00:00:00	2024-11-08T04:00:00	4	Temperatura máxima	10.2
2571	7	Sololá	701	Sololá	1	Sololá	1	Enero	2023-01-25T00:00:00	2024-11-08T04:00:00	3	Temperatura mínima	9.2
2572	7	Sololá	701	Sololá	1	Sololá	1	Enero	2023-01-25T00:00:00	2024-11-08T04:00:00	5	Humedad	79
2573	7	Sololá	701	Sololá	1	Sololá	1	Enero	2023-01-25T00:00:00	2024-11-08T04:00:00	6	Velocidad del viento	3.2
2574	7	Sololá	701	Sololá	1	Sololá	1	Enero	2023-01-25T00:00:00	2024-11-08T04:00:00	7	Dirección del viento	3.22
2575	7	Sololá	701	Sololá	1	Sololá	1	Enero	2023-01-25T00:00:00	2024-11-08T04:00:00	1	Precipitación	0
2576	7	Sololá	701	Sololá	1	Sololá	1	Enero	2023-01-25T00:00:00	2024-11-08T04:00:00	8	Radiación solar	0
2577	7	Sololá	701	Sololá	1	Sololá	1	Enero	2023-01-25T00:00:00	2024-11-08T05:00:00	2	Temperatura media	11.1
2578	7	Sololá	701	Sololá	1	Sololá	1	Enero	2023-01-25T00:00:00	2024-11-08T05:00:00	4	Temperatura máxima	11.1
2579	7	Sololá	701	Sololá	1	Sololá	1	Enero	2023-01-25T00:00:00	2024-11-08T05:00:00	3	Temperatura mínima	9.1
2580	7	Sololá	701	Sololá	1	Sololá	1	Enero	2023-01-25T00:00:00	2024-11-08T05:00:00	5	Humedad	79
2581	7	Sololá	701	Sololá	1	Sololá	1	Enero	2023-01-25T00:00:00	2024-11-08T05:00:00	6	Velocidad del viento	4.8
2582	7	Sololá	701	Sololá	1	Sololá	1	Enero	2023-01-25T00:00:00	2024-11-08T05:00:00	7	Dirección del viento	4.83
2583	7	Sololá	701	Sololá	1	Sololá	1	Enero	2023-01-25T00:00:00	2024-11-08T05:00:00	1	Precipitación	0
2584	7	Sololá	701	Sololá	1	Sololá	1	Enero	2023-01-25T00:00:00	2024-11-08T05:00:00	8	Radiación solar	0
2585	7	Sololá	701	Sololá	1	Sololá	1	Enero	2023-01-25T00:00:00	2024-11-08T06:00:00	2	Temperatura media	10.4
2586	7	Sololá	701	Sololá	1	Sololá	1	Enero	2023-01-25T00:00:00	2024-11-08T06:00:00	4	Temperatura máxima	11.4
2587	7	Sololá	701	Sololá	1	Sololá	1	Enero	2023-01-25T00:00:00	2024-11-08T06:00:00	3	Temperatura mínima	10.4
2588	7	Sololá	701	Sololá	1	Sololá	1	Enero	2023-01-25T00:00:00	2024-11-08T06:00:00	5	Humedad	78
2589	7	Sololá	701	Sololá	1	Sololá	1	Enero	2023-01-25T00:00:00	2024-11-08T06:00:00	6	Velocidad del viento	3.2
2590	7	Sololá	701	Sololá	1	Sololá	1	Enero	2023-01-25T00:00:00	2024-11-08T06:00:00	7	Dirección del viento	3.22
2591	7	Sololá	701	Sololá	1	Sololá	1	Enero	2023-01-25T00:00:00	2024-11-08T06:00:00	1	Precipitación	0
2592	7	Sololá	701	Sololá	1	Sololá	1	Enero	2023-01-25T00:00:00	2024-11-08T06:00:00	8	Radiación solar	0
2593	7	Sololá	701	Sololá	1	Sololá	1	Enero	2023-01-25T00:00:00	2024-11-08T07:00:00	2	Temperatura media	10.2
2594	7	Sololá	701	Sololá	1	Sololá	1	Enero	2023-01-25T00:00:00	2024-11-08T07:00:00	4	Temperatura máxima	11.4
2595	7	Sololá	701	Sololá	1	Sololá	1	Enero	2023-01-25T00:00:00	2024-11-08T07:00:00	3	Temperatura mínima	10.1
2596	7	Sololá	701	Sololá	1	Sololá	1	Enero	2023-01-25T00:00:00	2024-11-08T07:00:00	5	Humedad	76
2597	7	Sololá	701	Sololá	1	Sololá	1	Enero	2023-01-25T00:00:00	2024-11-08T07:00:00	6	Velocidad del viento	4.8
2598	7	Sololá	701	Sololá	1	Sololá	1	Enero	2023-01-25T00:00:00	2024-11-08T07:00:00	7	Dirección del viento	4.83
2599	7	Sololá	701	Sololá	1	Sololá	1	Enero	2023-01-25T00:00:00	2024-11-08T07:00:00	1	Precipitación	0
2600	7	Sololá	701	Sololá	1	Sololá	1	Enero	2023-01-25T00:00:00	2024-11-08T07:00:00	8	Radiación solar	4
2601	7	Sololá	701	Sololá	1	Sololá	1	Enero	2023-01-25T00:00:00	2024-11-08T08:00:00	2	Temperatura media	14.1
2602	7	Sololá	701	Sololá	1	Sololá	1	Enero	2023-01-25T00:00:00	2024-11-08T08:00:00	4	Temperatura máxima	14.1
2603	7	Sololá	701	Sololá	1	Sololá	1	Enero	2023-01-25T00:00:00	2024-11-08T08:00:00	3	Temperatura mínima	10.1
2604	7	Sololá	701	Sololá	1	Sololá	1	Enero	2023-01-25T00:00:00	2024-11-08T08:00:00	5	Humedad	68
2605	7	Sololá	701	Sololá	1	Sololá	1	Enero	2023-01-25T00:00:00	2024-11-08T08:00:00	6	Velocidad del viento	1.6
2606	7	Sololá	701	Sololá	1	Sololá	1	Enero	2023-01-25T00:00:00	2024-11-08T08:00:00	7	Dirección del viento	1.61
2607	7	Sololá	701	Sololá	1	Sololá	1	Enero	2023-01-25T00:00:00	2024-11-08T08:00:00	1	Precipitación	0
2608	7	Sololá	701	Sololá	1	Sololá	1	Enero	2023-01-25T00:00:00	2024-11-08T08:00:00	8	Radiación solar	119
2609	7	Sololá	701	Sololá	1	Sololá	1	Enero	2023-01-25T00:00:00	2024-11-08T09:00:00	2	Temperatura media	16.7
2610	7	Sololá	701	Sololá	1	Sololá	1	Enero	2023-01-25T00:00:00	2024-11-08T09:00:00	4	Temperatura máxima	16.7
2611	7	Sololá	701	Sololá	1	Sololá	1	Enero	2023-01-25T00:00:00	2024-11-08T09:00:00	3	Temperatura mínima	14.1
2612	7	Sololá	701	Sololá	1	Sololá	1	Enero	2023-01-25T00:00:00	2024-11-08T09:00:00	5	Humedad	65
2613	7	Sololá	701	Sololá	1	Sololá	1	Enero	2023-01-25T00:00:00	2024-11-08T09:00:00	6	Velocidad del viento	1.6
2614	7	Sololá	701	Sololá	1	Sololá	1	Enero	2023-01-25T00:00:00	2024-11-08T09:00:00	7	Dirección del viento	1.61
2615	7	Sololá	701	Sololá	1	Sololá	1	Enero	2023-01-25T00:00:00	2024-11-08T09:00:00	1	Precipitación	0
2616	7	Sololá	701	Sololá	1	Sololá	1	Enero	2023-01-25T00:00:00	2024-11-08T09:00:00	8	Radiación solar	458
2617	7	Sololá	701	Sololá	1	Sololá	1	Enero	2023-01-25T00:00:00	2024-11-08T10:00:00	2	Temperatura media	18.1
2618	7	Sololá	701	Sololá	1	Sololá	1	Enero	2023-01-25T00:00:00	2024-11-08T10:00:00	4	Temperatura máxima	18.2
2619	7	Sololá	701	Sololá	1	Sololá	1	Enero	2023-01-25T00:00:00	2024-11-08T10:00:00	3	Temperatura mínima	16.7
2620	7	Sololá	701	Sololá	1	Sololá	1	Enero	2023-01-25T00:00:00	2024-11-08T10:00:00	5	Humedad	59
2621	7	Sololá	701	Sololá	1	Sololá	1	Enero	2023-01-25T00:00:00	2024-11-08T10:00:00	6	Velocidad del viento	3.2
2622	7	Sololá	701	Sololá	1	Sololá	1	Enero	2023-01-25T00:00:00	2024-11-08T10:00:00	7	Dirección del viento	3.22
2623	7	Sololá	701	Sololá	1	Sololá	1	Enero	2023-01-25T00:00:00	2024-11-08T10:00:00	1	Precipitación	0
2624	7	Sololá	701	Sololá	1	Sololá	1	Enero	2023-01-25T00:00:00	2024-11-08T10:00:00	8	Radiación solar	645
2625	7	Sololá	701	Sololá	1	Sololá	1	Enero	2023-01-25T00:00:00	2024-11-08T11:00:00	2	Temperatura media	19.6
2626	7	Sololá	701	Sololá	1	Sololá	1	Enero	2023-01-25T00:00:00	2024-11-08T11:00:00	4	Temperatura máxima	19.6
2627	7	Sololá	701	Sololá	1	Sololá	1	Enero	2023-01-25T00:00:00	2024-11-08T11:00:00	3	Temperatura mínima	18.1
2628	7	Sololá	701	Sololá	1	Sololá	1	Enero	2023-01-25T00:00:00	2024-11-08T11:00:00	5	Humedad	51
2629	7	Sololá	701	Sololá	1	Sololá	1	Enero	2023-01-25T00:00:00	2024-11-08T11:00:00	6	Velocidad del viento	4.8
2630	7	Sololá	701	Sololá	1	Sololá	1	Enero	2023-01-25T00:00:00	2024-11-08T11:00:00	7	Dirección del viento	4.83
2631	7	Sololá	701	Sololá	1	Sololá	1	Enero	2023-01-25T00:00:00	2024-11-08T11:00:00	1	Precipitación	0
2632	7	Sololá	701	Sololá	1	Sololá	1	Enero	2023-01-25T00:00:00	2024-11-08T11:00:00	8	Radiación solar	786
2633	7	Sololá	701	Sololá	1	Sololá	1	Enero	2023-01-25T00:00:00	2024-11-08T12:00:00	2	Temperatura media	20.4
2634	7	Sololá	701	Sololá	1	Sololá	1	Enero	2023-01-25T00:00:00	2024-11-08T12:00:00	4	Temperatura máxima	20.5
2635	7	Sololá	701	Sololá	1	Sololá	1	Enero	2023-01-25T00:00:00	2024-11-08T12:00:00	3	Temperatura mínima	19.6
2636	7	Sololá	701	Sololá	1	Sololá	1	Enero	2023-01-25T00:00:00	2024-11-08T12:00:00	5	Humedad	59
2637	7	Sololá	701	Sololá	1	Sololá	1	Enero	2023-01-25T00:00:00	2024-11-08T12:00:00	6	Velocidad del viento	4.8
2638	7	Sololá	701	Sololá	1	Sololá	1	Enero	2023-01-25T00:00:00	2024-11-08T12:00:00	7	Dirección del viento	4.83
2639	7	Sololá	701	Sololá	1	Sololá	1	Enero	2023-01-25T00:00:00	2024-11-08T12:00:00	1	Precipitación	0
2640	7	Sololá	701	Sololá	1	Sololá	1	Enero	2023-01-25T00:00:00	2024-11-08T12:00:00	8	Radiación solar	859
2641	7	Sololá	701	Sololá	1	Sololá	1	Enero	2023-01-25T00:00:00	2024-11-08T13:00:00	2	Temperatura media	20.1
2642	7	Sololá	701	Sololá	1	Sololá	1	Enero	2023-01-25T00:00:00	2024-11-08T13:00:00	4	Temperatura máxima	20.5
2643	7	Sololá	701	Sololá	1	Sololá	1	Enero	2023-01-25T00:00:00	2024-11-08T13:00:00	3	Temperatura mínima	19.6
2644	7	Sololá	701	Sololá	1	Sololá	1	Enero	2023-01-25T00:00:00	2024-11-08T13:00:00	5	Humedad	67
2645	7	Sololá	701	Sololá	1	Sololá	1	Enero	2023-01-25T00:00:00	2024-11-08T13:00:00	6	Velocidad del viento	6.4
2646	7	Sololá	701	Sololá	1	Sololá	1	Enero	2023-01-25T00:00:00	2024-11-08T13:00:00	7	Dirección del viento	6.44
2647	7	Sololá	701	Sololá	1	Sololá	1	Enero	2023-01-25T00:00:00	2024-11-08T13:00:00	1	Precipitación	0
2648	7	Sololá	701	Sololá	1	Sololá	1	Enero	2023-01-25T00:00:00	2024-11-08T13:00:00	8	Radiación solar	855
2649	7	Sololá	701	Sololá	1	Sololá	1	Enero	2023-01-25T00:00:00	2024-11-08T14:00:00	2	Temperatura media	20.3
2650	7	Sololá	701	Sololá	1	Sololá	1	Enero	2023-01-25T00:00:00	2024-11-08T14:00:00	4	Temperatura máxima	20.4
2651	7	Sololá	701	Sololá	1	Sololá	1	Enero	2023-01-25T00:00:00	2024-11-08T14:00:00	3	Temperatura mínima	19.9
2652	7	Sololá	701	Sololá	1	Sololá	1	Enero	2023-01-25T00:00:00	2024-11-08T14:00:00	5	Humedad	68
2653	7	Sololá	701	Sololá	1	Sololá	1	Enero	2023-01-25T00:00:00	2024-11-08T14:00:00	6	Velocidad del viento	6.4
2654	7	Sololá	701	Sololá	1	Sololá	1	Enero	2023-01-25T00:00:00	2024-11-08T14:00:00	7	Dirección del viento	6.44
2655	7	Sololá	701	Sololá	1	Sololá	1	Enero	2023-01-25T00:00:00	2024-11-08T14:00:00	1	Precipitación	0
2656	7	Sololá	701	Sololá	1	Sololá	1	Enero	2023-01-25T00:00:00	2024-11-08T14:00:00	8	Radiación solar	752
2657	7	Sololá	701	Sololá	1	Sololá	1	Enero	2023-01-25T00:00:00	2024-11-08T15:00:00	2	Temperatura media	20.4
2658	7	Sololá	701	Sololá	1	Sololá	1	Enero	2023-01-25T00:00:00	2024-11-08T15:00:00	4	Temperatura máxima	20.6
2659	7	Sololá	701	Sololá	1	Sololá	1	Enero	2023-01-25T00:00:00	2024-11-08T15:00:00	3	Temperatura mínima	20.3
2660	7	Sololá	701	Sololá	1	Sololá	1	Enero	2023-01-25T00:00:00	2024-11-08T15:00:00	5	Humedad	69
2661	7	Sololá	701	Sololá	1	Sololá	1	Enero	2023-01-25T00:00:00	2024-11-08T15:00:00	6	Velocidad del viento	6.4
2662	7	Sololá	701	Sololá	1	Sololá	1	Enero	2023-01-25T00:00:00	2024-11-08T15:00:00	7	Dirección del viento	6.44
2663	7	Sololá	701	Sololá	1	Sololá	1	Enero	2023-01-25T00:00:00	2024-11-08T15:00:00	1	Precipitación	0
2664	7	Sololá	701	Sololá	1	Sololá	1	Enero	2023-01-25T00:00:00	2024-11-08T15:00:00	8	Radiación solar	657
2665	7	Sololá	701	Sololá	1	Sololá	1	Enero	2023-01-25T00:00:00	2024-11-08T16:00:00	2	Temperatura media	19.9
2666	7	Sololá	701	Sololá	1	Sololá	1	Enero	2023-01-25T00:00:00	2024-11-08T16:00:00	4	Temperatura máxima	20.8
2667	7	Sololá	701	Sololá	1	Sololá	1	Enero	2023-01-25T00:00:00	2024-11-08T16:00:00	3	Temperatura mínima	19.9
2668	7	Sololá	701	Sololá	1	Sololá	1	Enero	2023-01-25T00:00:00	2024-11-08T16:00:00	5	Humedad	73
2669	7	Sololá	701	Sololá	1	Sololá	1	Enero	2023-01-25T00:00:00	2024-11-08T16:00:00	6	Velocidad del viento	6.4
2670	7	Sololá	701	Sololá	1	Sololá	1	Enero	2023-01-25T00:00:00	2024-11-08T16:00:00	7	Dirección del viento	6.44
2671	7	Sololá	701	Sololá	1	Sololá	1	Enero	2023-01-25T00:00:00	2024-11-08T16:00:00	1	Precipitación	0
2672	7	Sololá	701	Sololá	1	Sololá	1	Enero	2023-01-25T00:00:00	2024-11-08T16:00:00	8	Radiación solar	319
2673	7	Sololá	701	Sololá	1	Sololá	1	Enero	2023-01-25T00:00:00	2024-11-08T17:00:00	2	Temperatura media	18.8
2674	7	Sololá	701	Sololá	1	Sololá	1	Enero	2023-01-25T00:00:00	2024-11-08T17:00:00	4	Temperatura máxima	19.9
2675	7	Sololá	701	Sololá	1	Sololá	1	Enero	2023-01-25T00:00:00	2024-11-08T17:00:00	3	Temperatura mínima	18.8
2676	7	Sololá	701	Sololá	1	Sololá	1	Enero	2023-01-25T00:00:00	2024-11-08T17:00:00	5	Humedad	78
2677	7	Sololá	701	Sololá	1	Sololá	1	Enero	2023-01-25T00:00:00	2024-11-08T17:00:00	6	Velocidad del viento	4.8
2678	7	Sololá	701	Sololá	1	Sololá	1	Enero	2023-01-25T00:00:00	2024-11-08T17:00:00	7	Dirección del viento	4.83
2679	7	Sololá	701	Sololá	1	Sololá	1	Enero	2023-01-25T00:00:00	2024-11-08T17:00:00	1	Precipitación	0
2680	7	Sololá	701	Sololá	1	Sololá	1	Enero	2023-01-25T00:00:00	2024-11-08T17:00:00	8	Radiación solar	122
2681	7	Sololá	701	Sololá	1	Sololá	1	Enero	2023-01-25T00:00:00	2024-11-08T18:00:00	2	Temperatura media	17.5
2682	7	Sololá	701	Sololá	1	Sololá	1	Enero	2023-01-25T00:00:00	2024-11-08T18:00:00	4	Temperatura máxima	18.9
2683	7	Sololá	701	Sololá	1	Sololá	1	Enero	2023-01-25T00:00:00	2024-11-08T18:00:00	3	Temperatura mínima	17.4
2684	7	Sololá	701	Sololá	1	Sololá	1	Enero	2023-01-25T00:00:00	2024-11-08T18:00:00	5	Humedad	84
2685	7	Sololá	701	Sololá	1	Sololá	1	Enero	2023-01-25T00:00:00	2024-11-08T18:00:00	6	Velocidad del viento	1.6
2686	7	Sololá	701	Sololá	1	Sololá	1	Enero	2023-01-25T00:00:00	2024-11-08T18:00:00	7	Dirección del viento	1.61
2687	7	Sololá	701	Sololá	1	Sololá	1	Enero	2023-01-25T00:00:00	2024-11-08T18:00:00	1	Precipitación	0
2688	7	Sololá	701	Sololá	1	Sololá	1	Enero	2023-01-25T00:00:00	2024-11-08T18:00:00	8	Radiación solar	14
2689	7	Sololá	701	Sololá	1	Sololá	1	Enero	2023-01-25T00:00:00	2024-11-08T19:00:00	2	Temperatura media	17.1
2690	7	Sololá	701	Sololá	1	Sololá	1	Enero	2023-01-25T00:00:00	2024-11-08T19:00:00	4	Temperatura máxima	17.6
2691	7	Sololá	701	Sololá	1	Sololá	1	Enero	2023-01-25T00:00:00	2024-11-08T19:00:00	3	Temperatura mínima	16.9
2692	7	Sololá	701	Sololá	1	Sololá	1	Enero	2023-01-25T00:00:00	2024-11-08T19:00:00	5	Humedad	52
2693	7	Sololá	701	Sololá	1	Sololá	1	Enero	2023-01-25T00:00:00	2024-11-08T19:00:00	6	Velocidad del viento	8
2694	7	Sololá	701	Sololá	1	Sololá	1	Enero	2023-01-25T00:00:00	2024-11-08T19:00:00	7	Dirección del viento	8.05
2695	7	Sololá	701	Sololá	1	Sololá	1	Enero	2023-01-25T00:00:00	2024-11-08T19:00:00	1	Precipitación	0
2696	7	Sololá	701	Sololá	1	Sololá	1	Enero	2023-01-25T00:00:00	2024-11-08T19:00:00	8	Radiación solar	0
2697	7	Sololá	701	Sololá	1	Sololá	1	Enero	2023-01-25T00:00:00	2024-11-08T20:00:00	2	Temperatura media	15.9
2698	7	Sololá	701	Sololá	1	Sololá	1	Enero	2023-01-25T00:00:00	2024-11-08T20:00:00	4	Temperatura máxima	17.1
2699	7	Sololá	701	Sololá	1	Sololá	1	Enero	2023-01-25T00:00:00	2024-11-08T20:00:00	3	Temperatura mínima	15.9
2700	7	Sololá	701	Sololá	1	Sololá	1	Enero	2023-01-25T00:00:00	2024-11-08T20:00:00	5	Humedad	53
2701	7	Sololá	701	Sololá	1	Sololá	1	Enero	2023-01-25T00:00:00	2024-11-08T20:00:00	6	Velocidad del viento	8
2702	7	Sololá	701	Sololá	1	Sololá	1	Enero	2023-01-25T00:00:00	2024-11-08T20:00:00	7	Dirección del viento	8.05
2703	7	Sololá	701	Sololá	1	Sololá	1	Enero	2023-01-25T00:00:00	2024-11-08T20:00:00	1	Precipitación	0
2704	7	Sololá	701	Sololá	1	Sololá	1	Enero	2023-01-25T00:00:00	2024-11-08T20:00:00	8	Radiación solar	0
2705	7	Sololá	701	Sololá	1	Sololá	1	Enero	2023-01-25T00:00:00	2024-11-08T21:00:00	2	Temperatura media	15.2
2706	7	Sololá	701	Sololá	1	Sololá	1	Enero	2023-01-25T00:00:00	2024-11-08T21:00:00	4	Temperatura máxima	15.9
2707	7	Sololá	701	Sololá	1	Sololá	1	Enero	2023-01-25T00:00:00	2024-11-08T21:00:00	3	Temperatura mínima	15.2
2708	7	Sololá	701	Sololá	1	Sololá	1	Enero	2023-01-25T00:00:00	2024-11-08T21:00:00	5	Humedad	56
2709	7	Sololá	701	Sololá	1	Sololá	1	Enero	2023-01-25T00:00:00	2024-11-08T21:00:00	6	Velocidad del viento	12.9
2710	7	Sololá	701	Sololá	1	Sololá	1	Enero	2023-01-25T00:00:00	2024-11-08T21:00:00	7	Dirección del viento	12.87
2711	7	Sololá	701	Sololá	1	Sololá	1	Enero	2023-01-25T00:00:00	2024-11-08T21:00:00	1	Precipitación	0
2712	7	Sololá	701	Sololá	1	Sololá	1	Enero	2023-01-25T00:00:00	2024-11-08T21:00:00	8	Radiación solar	0
2713	7	Sololá	701	Sololá	1	Sololá	1	Enero	2023-01-25T00:00:00	2024-11-08T22:00:00	2	Temperatura media	14.9
2714	7	Sololá	701	Sololá	1	Sololá	1	Enero	2023-01-25T00:00:00	2024-11-08T22:00:00	4	Temperatura máxima	15.2
2715	7	Sololá	701	Sololá	1	Sololá	1	Enero	2023-01-25T00:00:00	2024-11-08T22:00:00	3	Temperatura mínima	14.9
2716	7	Sololá	701	Sololá	1	Sololá	1	Enero	2023-01-25T00:00:00	2024-11-08T22:00:00	5	Humedad	60
2717	7	Sololá	701	Sololá	1	Sololá	1	Enero	2023-01-25T00:00:00	2024-11-08T22:00:00	6	Velocidad del viento	16.1
2718	7	Sololá	701	Sololá	1	Sololá	1	Enero	2023-01-25T00:00:00	2024-11-08T22:00:00	7	Dirección del viento	16.09
2719	7	Sololá	701	Sololá	1	Sololá	1	Enero	2023-01-25T00:00:00	2024-11-08T22:00:00	1	Precipitación	0
2720	7	Sololá	701	Sololá	1	Sololá	1	Enero	2023-01-25T00:00:00	2024-11-08T22:00:00	8	Radiación solar	0
2721	7	Sololá	701	Sololá	1	Sololá	1	Enero	2023-01-25T00:00:00	2024-11-08T23:00:00	2	Temperatura media	14.1
2722	7	Sololá	701	Sololá	1	Sololá	1	Enero	2023-01-25T00:00:00	2024-11-08T23:00:00	4	Temperatura máxima	15
2723	7	Sololá	701	Sololá	1	Sololá	1	Enero	2023-01-25T00:00:00	2024-11-08T23:00:00	3	Temperatura mínima	14.1
2724	7	Sololá	701	Sololá	1	Sololá	1	Enero	2023-01-25T00:00:00	2024-11-08T23:00:00	5	Humedad	73
2725	7	Sololá	701	Sololá	1	Sololá	1	Enero	2023-01-25T00:00:00	2024-11-08T23:00:00	6	Velocidad del viento	17.7
2726	7	Sololá	701	Sololá	1	Sololá	1	Enero	2023-01-25T00:00:00	2024-11-08T23:00:00	7	Dirección del viento	17.7
2727	7	Sololá	701	Sololá	1	Sololá	1	Enero	2023-01-25T00:00:00	2024-11-08T23:00:00	1	Precipitación	0
2728	7	Sololá	701	Sololá	1	Sololá	1	Enero	2023-01-25T00:00:00	2024-11-08T23:00:00	8	Radiación solar	0
2729	7	Sololá	701	Sololá	1	Sololá	1	Enero	2023-01-26T00:00:00	2024-11-08T00:00:00	2	Temperatura media	13.8
2730	7	Sololá	701	Sololá	1	Sololá	1	Enero	2023-01-26T00:00:00	2024-11-08T00:00:00	4	Temperatura máxima	14.2
2731	7	Sololá	701	Sololá	1	Sololá	1	Enero	2023-01-26T00:00:00	2024-11-08T00:00:00	3	Temperatura mínima	13.8
2732	7	Sololá	701	Sololá	1	Sololá	1	Enero	2023-01-26T00:00:00	2024-11-08T00:00:00	5	Humedad	77
2733	7	Sololá	701	Sololá	1	Sololá	1	Enero	2023-01-26T00:00:00	2024-11-08T00:00:00	6	Velocidad del viento	19.3
2734	7	Sololá	701	Sololá	1	Sololá	1	Enero	2023-01-26T00:00:00	2024-11-08T00:00:00	7	Dirección del viento	19.31
2735	7	Sololá	701	Sololá	1	Sololá	1	Enero	2023-01-26T00:00:00	2024-11-08T00:00:00	1	Precipitación	0
2736	7	Sololá	701	Sololá	1	Sololá	1	Enero	2023-01-26T00:00:00	2024-11-08T00:00:00	8	Radiación solar	0
2737	7	Sololá	701	Sololá	1	Sololá	1	Enero	2023-01-26T00:00:00	2024-11-08T01:00:00	2	Temperatura media	13.7
2738	7	Sololá	701	Sololá	1	Sololá	1	Enero	2023-01-26T00:00:00	2024-11-08T01:00:00	4	Temperatura máxima	13.9
2739	7	Sololá	701	Sololá	1	Sololá	1	Enero	2023-01-26T00:00:00	2024-11-08T01:00:00	3	Temperatura mínima	13.7
2740	7	Sololá	701	Sololá	1	Sololá	1	Enero	2023-01-26T00:00:00	2024-11-08T01:00:00	5	Humedad	76
2741	7	Sololá	701	Sololá	1	Sololá	1	Enero	2023-01-26T00:00:00	2024-11-08T01:00:00	6	Velocidad del viento	17.7
2742	7	Sololá	701	Sololá	1	Sololá	1	Enero	2023-01-26T00:00:00	2024-11-08T01:00:00	7	Dirección del viento	17.7
2743	7	Sololá	701	Sololá	1	Sololá	1	Enero	2023-01-26T00:00:00	2024-11-08T01:00:00	1	Precipitación	0
2744	7	Sololá	701	Sololá	1	Sololá	1	Enero	2023-01-26T00:00:00	2024-11-08T01:00:00	8	Radiación solar	0
2745	7	Sololá	701	Sololá	1	Sololá	1	Enero	2023-01-26T00:00:00	2024-11-08T02:00:00	2	Temperatura media	13.7
2746	7	Sololá	701	Sololá	1	Sololá	1	Enero	2023-01-26T00:00:00	2024-11-08T02:00:00	4	Temperatura máxima	13.8
2747	7	Sololá	701	Sololá	1	Sololá	1	Enero	2023-01-26T00:00:00	2024-11-08T02:00:00	3	Temperatura mínima	13.6
2748	7	Sololá	701	Sololá	1	Sololá	1	Enero	2023-01-26T00:00:00	2024-11-08T02:00:00	5	Humedad	77
2749	7	Sololá	701	Sololá	1	Sololá	1	Enero	2023-01-26T00:00:00	2024-11-08T02:00:00	6	Velocidad del viento	17.7
2750	7	Sololá	701	Sololá	1	Sololá	1	Enero	2023-01-26T00:00:00	2024-11-08T02:00:00	7	Dirección del viento	17.7
2751	7	Sololá	701	Sololá	1	Sololá	1	Enero	2023-01-26T00:00:00	2024-11-08T02:00:00	1	Precipitación	0
2752	7	Sololá	701	Sololá	1	Sololá	1	Enero	2023-01-26T00:00:00	2024-11-08T02:00:00	8	Radiación solar	0
2753	7	Sololá	701	Sololá	1	Sololá	1	Enero	2023-01-26T00:00:00	2024-11-08T03:00:00	2	Temperatura media	13.7
2754	7	Sololá	701	Sololá	1	Sololá	1	Enero	2023-01-26T00:00:00	2024-11-08T03:00:00	4	Temperatura máxima	13.8
2755	7	Sololá	701	Sololá	1	Sololá	1	Enero	2023-01-26T00:00:00	2024-11-08T03:00:00	3	Temperatura mínima	13.6
2756	7	Sololá	701	Sololá	1	Sololá	1	Enero	2023-01-26T00:00:00	2024-11-08T03:00:00	5	Humedad	75
2757	7	Sololá	701	Sololá	1	Sololá	1	Enero	2023-01-26T00:00:00	2024-11-08T03:00:00	6	Velocidad del viento	17.7
2758	7	Sololá	701	Sololá	1	Sololá	1	Enero	2023-01-26T00:00:00	2024-11-08T03:00:00	7	Dirección del viento	17.7
2759	7	Sololá	701	Sololá	1	Sololá	1	Enero	2023-01-26T00:00:00	2024-11-08T03:00:00	1	Precipitación	0
2760	7	Sololá	701	Sololá	1	Sololá	1	Enero	2023-01-26T00:00:00	2024-11-08T03:00:00	8	Radiación solar	0
2761	7	Sololá	701	Sololá	1	Sololá	1	Enero	2023-01-26T00:00:00	2024-11-08T04:00:00	2	Temperatura media	13.8
2762	7	Sololá	701	Sololá	1	Sololá	1	Enero	2023-01-26T00:00:00	2024-11-08T04:00:00	4	Temperatura máxima	13.8
2763	7	Sololá	701	Sololá	1	Sololá	1	Enero	2023-01-26T00:00:00	2024-11-08T04:00:00	3	Temperatura mínima	13.6
2764	7	Sololá	701	Sololá	1	Sololá	1	Enero	2023-01-26T00:00:00	2024-11-08T04:00:00	5	Humedad	75
2765	7	Sololá	701	Sololá	1	Sololá	1	Enero	2023-01-26T00:00:00	2024-11-08T04:00:00	6	Velocidad del viento	20.9
2766	7	Sololá	701	Sololá	1	Sololá	1	Enero	2023-01-26T00:00:00	2024-11-08T04:00:00	7	Dirección del viento	20.92
2767	7	Sololá	701	Sololá	1	Sololá	1	Enero	2023-01-26T00:00:00	2024-11-08T04:00:00	1	Precipitación	0
2768	7	Sololá	701	Sololá	1	Sololá	1	Enero	2023-01-26T00:00:00	2024-11-08T04:00:00	8	Radiación solar	0
2769	7	Sololá	701	Sololá	1	Sololá	1	Enero	2023-01-26T00:00:00	2024-11-08T05:00:00	2	Temperatura media	13.8
2770	7	Sololá	701	Sololá	1	Sololá	1	Enero	2023-01-26T00:00:00	2024-11-08T05:00:00	4	Temperatura máxima	13.9
2771	7	Sololá	701	Sololá	1	Sololá	1	Enero	2023-01-26T00:00:00	2024-11-08T05:00:00	3	Temperatura mínima	13.7
2772	7	Sololá	701	Sololá	1	Sololá	1	Enero	2023-01-26T00:00:00	2024-11-08T05:00:00	5	Humedad	76
2773	7	Sololá	701	Sololá	1	Sololá	1	Enero	2023-01-26T00:00:00	2024-11-08T05:00:00	6	Velocidad del viento	20.9
2774	7	Sololá	701	Sololá	1	Sololá	1	Enero	2023-01-26T00:00:00	2024-11-08T05:00:00	7	Dirección del viento	20.92
2775	7	Sololá	701	Sololá	1	Sololá	1	Enero	2023-01-26T00:00:00	2024-11-08T05:00:00	1	Precipitación	0
2776	7	Sololá	701	Sololá	1	Sololá	1	Enero	2023-01-26T00:00:00	2024-11-08T05:00:00	8	Radiación solar	0
2777	7	Sololá	701	Sololá	1	Sololá	1	Enero	2023-01-26T00:00:00	2024-11-08T06:00:00	2	Temperatura media	14
2778	7	Sololá	701	Sololá	1	Sololá	1	Enero	2023-01-26T00:00:00	2024-11-08T06:00:00	4	Temperatura máxima	14.1
2779	7	Sololá	701	Sololá	1	Sololá	1	Enero	2023-01-26T00:00:00	2024-11-08T06:00:00	3	Temperatura mínima	13.7
2780	7	Sololá	701	Sololá	1	Sololá	1	Enero	2023-01-26T00:00:00	2024-11-08T06:00:00	5	Humedad	74
2781	7	Sololá	701	Sololá	1	Sololá	1	Enero	2023-01-26T00:00:00	2024-11-08T06:00:00	6	Velocidad del viento	20.9
2782	7	Sololá	701	Sololá	1	Sololá	1	Enero	2023-01-26T00:00:00	2024-11-08T06:00:00	7	Dirección del viento	20.92
2783	7	Sololá	701	Sololá	1	Sololá	1	Enero	2023-01-26T00:00:00	2024-11-08T06:00:00	1	Precipitación	0
2784	7	Sololá	701	Sololá	1	Sololá	1	Enero	2023-01-26T00:00:00	2024-11-08T06:00:00	8	Radiación solar	0
2785	7	Sololá	701	Sololá	1	Sololá	1	Enero	2023-01-26T00:00:00	2024-11-08T07:00:00	2	Temperatura media	14.5
2786	7	Sololá	701	Sololá	1	Sololá	1	Enero	2023-01-26T00:00:00	2024-11-08T07:00:00	4	Temperatura máxima	14.5
2787	7	Sololá	701	Sololá	1	Sololá	1	Enero	2023-01-26T00:00:00	2024-11-08T07:00:00	3	Temperatura mínima	14
2788	7	Sololá	701	Sololá	1	Sololá	1	Enero	2023-01-26T00:00:00	2024-11-08T07:00:00	5	Humedad	72
2789	7	Sololá	701	Sololá	1	Sololá	1	Enero	2023-01-26T00:00:00	2024-11-08T07:00:00	6	Velocidad del viento	19.3
2790	7	Sololá	701	Sololá	1	Sololá	1	Enero	2023-01-26T00:00:00	2024-11-08T07:00:00	7	Dirección del viento	19.31
2791	7	Sololá	701	Sololá	1	Sololá	1	Enero	2023-01-26T00:00:00	2024-11-08T07:00:00	1	Precipitación	0
2792	7	Sololá	701	Sololá	1	Sololá	1	Enero	2023-01-26T00:00:00	2024-11-08T07:00:00	8	Radiación solar	5
2793	7	Sololá	701	Sololá	1	Sololá	1	Enero	2023-01-26T00:00:00	2024-11-08T08:00:00	2	Temperatura media	15.8
2794	7	Sololá	701	Sololá	1	Sololá	1	Enero	2023-01-26T00:00:00	2024-11-08T08:00:00	4	Temperatura máxima	15.8
2795	7	Sololá	701	Sololá	1	Sololá	1	Enero	2023-01-26T00:00:00	2024-11-08T08:00:00	3	Temperatura mínima	14.4
2796	7	Sololá	701	Sololá	1	Sololá	1	Enero	2023-01-26T00:00:00	2024-11-08T08:00:00	5	Humedad	71
2797	7	Sololá	701	Sololá	1	Sololá	1	Enero	2023-01-26T00:00:00	2024-11-08T08:00:00	6	Velocidad del viento	19.3
2798	7	Sololá	701	Sololá	1	Sololá	1	Enero	2023-01-26T00:00:00	2024-11-08T08:00:00	7	Dirección del viento	19.31
2799	7	Sololá	701	Sololá	1	Sololá	1	Enero	2023-01-26T00:00:00	2024-11-08T08:00:00	1	Precipitación	0
2800	7	Sololá	701	Sololá	1	Sololá	1	Enero	2023-01-26T00:00:00	2024-11-08T08:00:00	8	Radiación solar	107
2801	7	Sololá	701	Sololá	1	Sololá	1	Enero	2023-01-26T00:00:00	2024-11-08T09:00:00	2	Temperatura media	16.6
2802	7	Sololá	701	Sololá	1	Sololá	1	Enero	2023-01-26T00:00:00	2024-11-08T09:00:00	4	Temperatura máxima	16.8
2803	7	Sololá	701	Sololá	1	Sololá	1	Enero	2023-01-26T00:00:00	2024-11-08T09:00:00	3	Temperatura mínima	15.8
2804	7	Sololá	701	Sololá	1	Sololá	1	Enero	2023-01-26T00:00:00	2024-11-08T09:00:00	5	Humedad	70
2805	7	Sololá	701	Sololá	1	Sololá	1	Enero	2023-01-26T00:00:00	2024-11-08T09:00:00	6	Velocidad del viento	19.3
2806	7	Sololá	701	Sololá	1	Sololá	1	Enero	2023-01-26T00:00:00	2024-11-08T09:00:00	7	Dirección del viento	19.31
2807	7	Sololá	701	Sololá	1	Sololá	1	Enero	2023-01-26T00:00:00	2024-11-08T09:00:00	1	Precipitación	0
2808	7	Sololá	701	Sololá	1	Sololá	1	Enero	2023-01-26T00:00:00	2024-11-08T09:00:00	8	Radiación solar	447
2809	7	Sololá	701	Sololá	1	Sololá	1	Enero	2023-01-26T00:00:00	2024-11-08T10:00:00	2	Temperatura media	17.7
2810	7	Sololá	701	Sololá	1	Sololá	1	Enero	2023-01-26T00:00:00	2024-11-08T10:00:00	4	Temperatura máxima	17.8
2811	7	Sololá	701	Sololá	1	Sololá	1	Enero	2023-01-26T00:00:00	2024-11-08T10:00:00	3	Temperatura mínima	16.5
2812	7	Sololá	701	Sololá	1	Sololá	1	Enero	2023-01-26T00:00:00	2024-11-08T10:00:00	5	Humedad	63
2813	7	Sololá	701	Sololá	1	Sololá	1	Enero	2023-01-26T00:00:00	2024-11-08T10:00:00	6	Velocidad del viento	22.5
2814	7	Sololá	701	Sololá	1	Sololá	1	Enero	2023-01-26T00:00:00	2024-11-08T10:00:00	7	Dirección del viento	22.53
2815	7	Sololá	701	Sololá	1	Sololá	1	Enero	2023-01-26T00:00:00	2024-11-08T10:00:00	1	Precipitación	0
2816	7	Sololá	701	Sololá	1	Sololá	1	Enero	2023-01-26T00:00:00	2024-11-08T10:00:00	8	Radiación solar	639
2817	7	Sololá	701	Sololá	1	Sololá	1	Enero	2023-01-26T00:00:00	2024-11-08T11:00:00	2	Temperatura media	18.3
2818	7	Sololá	701	Sololá	1	Sololá	1	Enero	2023-01-26T00:00:00	2024-11-08T11:00:00	4	Temperatura máxima	18.5
2819	7	Sololá	701	Sololá	1	Sololá	1	Enero	2023-01-26T00:00:00	2024-11-08T11:00:00	3	Temperatura mínima	17.7
2820	7	Sololá	701	Sololá	1	Sololá	1	Enero	2023-01-26T00:00:00	2024-11-08T11:00:00	5	Humedad	60
2821	7	Sololá	701	Sololá	1	Sololá	1	Enero	2023-01-26T00:00:00	2024-11-08T11:00:00	6	Velocidad del viento	24.1
2822	7	Sololá	701	Sololá	1	Sololá	1	Enero	2023-01-26T00:00:00	2024-11-08T11:00:00	7	Dirección del viento	24.14
2823	7	Sololá	701	Sololá	1	Sololá	1	Enero	2023-01-26T00:00:00	2024-11-08T11:00:00	1	Precipitación	0
2824	7	Sololá	701	Sololá	1	Sololá	1	Enero	2023-01-26T00:00:00	2024-11-08T11:00:00	8	Radiación solar	771
2825	7	Sololá	701	Sololá	1	Sololá	1	Enero	2023-01-26T00:00:00	2024-11-08T12:00:00	2	Temperatura media	19.5
2826	7	Sololá	701	Sololá	1	Sololá	1	Enero	2023-01-26T00:00:00	2024-11-08T12:00:00	4	Temperatura máxima	19.5
2827	7	Sololá	701	Sololá	1	Sololá	1	Enero	2023-01-26T00:00:00	2024-11-08T12:00:00	3	Temperatura mínima	18.3
2828	7	Sololá	701	Sololá	1	Sololá	1	Enero	2023-01-26T00:00:00	2024-11-08T12:00:00	5	Humedad	56
2829	7	Sololá	701	Sololá	1	Sololá	1	Enero	2023-01-26T00:00:00	2024-11-08T12:00:00	6	Velocidad del viento	24.1
2830	7	Sololá	701	Sololá	1	Sololá	1	Enero	2023-01-26T00:00:00	2024-11-08T12:00:00	7	Dirección del viento	24.14
2831	7	Sololá	701	Sololá	1	Sololá	1	Enero	2023-01-26T00:00:00	2024-11-08T12:00:00	1	Precipitación	0
2832	7	Sololá	701	Sololá	1	Sololá	1	Enero	2023-01-26T00:00:00	2024-11-08T12:00:00	8	Radiación solar	857
2833	7	Sololá	701	Sololá	1	Sololá	1	Enero	2023-01-26T00:00:00	2024-11-08T13:00:00	2	Temperatura media	20.4
2834	7	Sololá	701	Sololá	1	Sololá	1	Enero	2023-01-26T00:00:00	2024-11-08T13:00:00	4	Temperatura máxima	20.5
2835	7	Sololá	701	Sololá	1	Sololá	1	Enero	2023-01-26T00:00:00	2024-11-08T13:00:00	3	Temperatura mínima	19.1
2836	7	Sololá	701	Sololá	1	Sololá	1	Enero	2023-01-26T00:00:00	2024-11-08T13:00:00	5	Humedad	55
2837	7	Sololá	701	Sololá	1	Sololá	1	Enero	2023-01-26T00:00:00	2024-11-08T13:00:00	6	Velocidad del viento	20.9
2838	7	Sololá	701	Sololá	1	Sololá	1	Enero	2023-01-26T00:00:00	2024-11-08T13:00:00	7	Dirección del viento	20.92
2839	7	Sololá	701	Sololá	1	Sololá	1	Enero	2023-01-26T00:00:00	2024-11-08T13:00:00	1	Precipitación	0
2840	7	Sololá	701	Sololá	1	Sololá	1	Enero	2023-01-26T00:00:00	2024-11-08T13:00:00	8	Radiación solar	860
2841	7	Sololá	701	Sololá	1	Sololá	1	Enero	2023-01-26T00:00:00	2024-11-08T14:00:00	2	Temperatura media	19.9
2842	7	Sololá	701	Sololá	1	Sololá	1	Enero	2023-01-26T00:00:00	2024-11-08T14:00:00	4	Temperatura máxima	20.8
2843	7	Sololá	701	Sololá	1	Sololá	1	Enero	2023-01-26T00:00:00	2024-11-08T14:00:00	3	Temperatura mínima	19.8
2844	7	Sololá	701	Sololá	1	Sololá	1	Enero	2023-01-26T00:00:00	2024-11-08T14:00:00	5	Humedad	55
2845	7	Sololá	701	Sololá	1	Sololá	1	Enero	2023-01-26T00:00:00	2024-11-08T14:00:00	6	Velocidad del viento	16.1
2846	7	Sololá	701	Sololá	1	Sololá	1	Enero	2023-01-26T00:00:00	2024-11-08T14:00:00	7	Dirección del viento	16.09
2847	7	Sololá	701	Sololá	1	Sololá	1	Enero	2023-01-26T00:00:00	2024-11-08T14:00:00	1	Precipitación	0
2848	7	Sololá	701	Sololá	1	Sololá	1	Enero	2023-01-26T00:00:00	2024-11-08T14:00:00	8	Radiación solar	728
2849	7	Sololá	701	Sololá	1	Sololá	1	Enero	2023-01-26T00:00:00	2024-11-08T15:00:00	2	Temperatura media	20
2850	7	Sololá	701	Sololá	1	Sololá	1	Enero	2023-01-26T00:00:00	2024-11-08T15:00:00	4	Temperatura máxima	20.5
2851	7	Sololá	701	Sololá	1	Sololá	1	Enero	2023-01-26T00:00:00	2024-11-08T15:00:00	3	Temperatura mínima	19.8
2852	7	Sololá	701	Sololá	1	Sololá	1	Enero	2023-01-26T00:00:00	2024-11-08T15:00:00	5	Humedad	50
2853	7	Sololá	701	Sololá	1	Sololá	1	Enero	2023-01-26T00:00:00	2024-11-08T15:00:00	6	Velocidad del viento	17.7
2854	7	Sololá	701	Sololá	1	Sololá	1	Enero	2023-01-26T00:00:00	2024-11-08T15:00:00	7	Dirección del viento	17.7
2855	7	Sololá	701	Sololá	1	Sololá	1	Enero	2023-01-26T00:00:00	2024-11-08T15:00:00	1	Precipitación	0
2856	7	Sololá	701	Sololá	1	Sololá	1	Enero	2023-01-26T00:00:00	2024-11-08T15:00:00	8	Radiación solar	643
2857	7	Sololá	701	Sololá	1	Sololá	1	Enero	2023-01-26T00:00:00	2024-11-08T16:00:00	2	Temperatura media	18.8
2858	7	Sololá	701	Sololá	1	Sololá	1	Enero	2023-01-26T00:00:00	2024-11-08T16:00:00	4	Temperatura máxima	20.2
2859	7	Sololá	701	Sololá	1	Sololá	1	Enero	2023-01-26T00:00:00	2024-11-08T16:00:00	3	Temperatura mínima	18.7
2860	7	Sololá	701	Sololá	1	Sololá	1	Enero	2023-01-26T00:00:00	2024-11-08T16:00:00	5	Humedad	60
2861	7	Sololá	701	Sololá	1	Sololá	1	Enero	2023-01-26T00:00:00	2024-11-08T16:00:00	6	Velocidad del viento	19.3
2862	7	Sololá	701	Sololá	1	Sololá	1	Enero	2023-01-26T00:00:00	2024-11-08T16:00:00	7	Dirección del viento	19.31
2863	7	Sololá	701	Sololá	1	Sololá	1	Enero	2023-01-26T00:00:00	2024-11-08T16:00:00	1	Precipitación	0
2864	7	Sololá	701	Sololá	1	Sololá	1	Enero	2023-01-26T00:00:00	2024-11-08T16:00:00	8	Radiación solar	239
2865	7	Sololá	701	Sololá	1	Sololá	1	Enero	2023-01-26T00:00:00	2024-11-08T17:00:00	2	Temperatura media	17
2866	7	Sololá	701	Sololá	1	Sololá	1	Enero	2023-01-26T00:00:00	2024-11-08T17:00:00	4	Temperatura máxima	19
2867	7	Sololá	701	Sololá	1	Sololá	1	Enero	2023-01-26T00:00:00	2024-11-08T17:00:00	3	Temperatura mínima	17
2868	7	Sololá	701	Sololá	1	Sololá	1	Enero	2023-01-26T00:00:00	2024-11-08T17:00:00	5	Humedad	63
2869	7	Sololá	701	Sololá	1	Sololá	1	Enero	2023-01-26T00:00:00	2024-11-08T17:00:00	6	Velocidad del viento	20.9
2870	7	Sololá	701	Sololá	1	Sololá	1	Enero	2023-01-26T00:00:00	2024-11-08T17:00:00	7	Dirección del viento	20.92
2871	7	Sololá	701	Sololá	1	Sololá	1	Enero	2023-01-26T00:00:00	2024-11-08T17:00:00	1	Precipitación	0
2872	7	Sololá	701	Sololá	1	Sololá	1	Enero	2023-01-26T00:00:00	2024-11-08T17:00:00	8	Radiación solar	85
2873	7	Sololá	701	Sololá	1	Sololá	1	Enero	2023-01-26T00:00:00	2024-11-08T18:00:00	2	Temperatura media	15
2874	7	Sololá	701	Sololá	1	Sololá	1	Enero	2023-01-26T00:00:00	2024-11-08T18:00:00	4	Temperatura máxima	17
2875	7	Sololá	701	Sololá	1	Sololá	1	Enero	2023-01-26T00:00:00	2024-11-08T18:00:00	3	Temperatura mínima	15
2876	7	Sololá	701	Sololá	1	Sololá	1	Enero	2023-01-26T00:00:00	2024-11-08T18:00:00	5	Humedad	71
2877	7	Sololá	701	Sololá	1	Sololá	1	Enero	2023-01-26T00:00:00	2024-11-08T18:00:00	6	Velocidad del viento	20.9
2878	7	Sololá	701	Sololá	1	Sololá	1	Enero	2023-01-26T00:00:00	2024-11-08T18:00:00	7	Dirección del viento	20.92
2879	7	Sololá	701	Sololá	1	Sololá	1	Enero	2023-01-26T00:00:00	2024-11-08T18:00:00	1	Precipitación	0
2880	7	Sololá	701	Sololá	1	Sololá	1	Enero	2023-01-26T00:00:00	2024-11-08T18:00:00	8	Radiación solar	11
2881	7	Sololá	701	Sololá	1	Sololá	1	Enero	2023-01-26T00:00:00	2024-11-08T19:00:00	2	Temperatura media	14.3
2882	7	Sololá	701	Sololá	1	Sololá	1	Enero	2023-01-26T00:00:00	2024-11-08T19:00:00	4	Temperatura máxima	15.1
2883	7	Sololá	701	Sololá	1	Sololá	1	Enero	2023-01-26T00:00:00	2024-11-08T19:00:00	3	Temperatura mínima	14.3
2884	7	Sololá	701	Sololá	1	Sololá	1	Enero	2023-01-26T00:00:00	2024-11-08T19:00:00	5	Humedad	72
2885	7	Sololá	701	Sololá	1	Sololá	1	Enero	2023-01-26T00:00:00	2024-11-08T19:00:00	6	Velocidad del viento	19.3
2886	7	Sololá	701	Sololá	1	Sololá	1	Enero	2023-01-26T00:00:00	2024-11-08T19:00:00	7	Dirección del viento	19.31
2887	7	Sololá	701	Sololá	1	Sololá	1	Enero	2023-01-26T00:00:00	2024-11-08T19:00:00	1	Precipitación	0
2888	7	Sololá	701	Sololá	1	Sololá	1	Enero	2023-01-26T00:00:00	2024-11-08T19:00:00	8	Radiación solar	0
2889	7	Sololá	701	Sololá	1	Sololá	1	Enero	2023-01-26T00:00:00	2024-11-08T20:00:00	2	Temperatura media	14.2
2890	7	Sololá	701	Sololá	1	Sololá	1	Enero	2023-01-26T00:00:00	2024-11-08T20:00:00	4	Temperatura máxima	14.4
2891	7	Sololá	701	Sololá	1	Sololá	1	Enero	2023-01-26T00:00:00	2024-11-08T20:00:00	3	Temperatura mínima	14.2
2892	7	Sololá	701	Sololá	1	Sololá	1	Enero	2023-01-26T00:00:00	2024-11-08T20:00:00	5	Humedad	70
2893	7	Sololá	701	Sololá	1	Sololá	1	Enero	2023-01-26T00:00:00	2024-11-08T20:00:00	6	Velocidad del viento	22.5
2894	7	Sololá	701	Sololá	1	Sololá	1	Enero	2023-01-26T00:00:00	2024-11-08T20:00:00	7	Dirección del viento	22.53
2895	7	Sololá	701	Sololá	1	Sololá	1	Enero	2023-01-26T00:00:00	2024-11-08T20:00:00	1	Precipitación	0
2896	7	Sololá	701	Sololá	1	Sololá	1	Enero	2023-01-26T00:00:00	2024-11-08T20:00:00	8	Radiación solar	0
2897	7	Sololá	701	Sololá	1	Sololá	1	Enero	2023-01-26T00:00:00	2024-11-08T21:00:00	2	Temperatura media	13.6
2898	7	Sololá	701	Sololá	1	Sololá	1	Enero	2023-01-26T00:00:00	2024-11-08T21:00:00	4	Temperatura máxima	14.3
2899	7	Sololá	701	Sololá	1	Sololá	1	Enero	2023-01-26T00:00:00	2024-11-08T21:00:00	3	Temperatura mínima	13.6
2900	7	Sololá	701	Sololá	1	Sololá	1	Enero	2023-01-26T00:00:00	2024-11-08T21:00:00	5	Humedad	74
2901	7	Sololá	701	Sololá	1	Sololá	1	Enero	2023-01-26T00:00:00	2024-11-08T21:00:00	6	Velocidad del viento	22.5
2902	7	Sololá	701	Sololá	1	Sololá	1	Enero	2023-01-26T00:00:00	2024-11-08T21:00:00	7	Dirección del viento	22.53
2903	7	Sololá	701	Sololá	1	Sololá	1	Enero	2023-01-26T00:00:00	2024-11-08T21:00:00	1	Precipitación	0
2904	7	Sololá	701	Sololá	1	Sololá	1	Enero	2023-01-26T00:00:00	2024-11-08T21:00:00	8	Radiación solar	0
2905	7	Sololá	701	Sololá	1	Sololá	1	Enero	2023-01-26T00:00:00	2024-11-08T22:00:00	2	Temperatura media	13.4
2906	7	Sololá	701	Sololá	1	Sololá	1	Enero	2023-01-26T00:00:00	2024-11-08T22:00:00	4	Temperatura máxima	13.7
2907	7	Sololá	701	Sololá	1	Sololá	1	Enero	2023-01-26T00:00:00	2024-11-08T22:00:00	3	Temperatura mínima	13.3
2908	7	Sololá	701	Sololá	1	Sololá	1	Enero	2023-01-26T00:00:00	2024-11-08T22:00:00	5	Humedad	75
2909	7	Sololá	701	Sololá	1	Sololá	1	Enero	2023-01-26T00:00:00	2024-11-08T22:00:00	6	Velocidad del viento	27.4
2910	7	Sololá	701	Sololá	1	Sololá	1	Enero	2023-01-26T00:00:00	2024-11-08T22:00:00	7	Dirección del viento	27.36
2911	7	Sololá	701	Sololá	1	Sololá	1	Enero	2023-01-26T00:00:00	2024-11-08T22:00:00	1	Precipitación	0
2912	7	Sololá	701	Sololá	1	Sololá	1	Enero	2023-01-26T00:00:00	2024-11-08T22:00:00	8	Radiación solar	0
2913	7	Sololá	701	Sololá	1	Sololá	1	Enero	2023-01-26T00:00:00	2024-11-08T23:00:00	2	Temperatura media	13.5
2914	7	Sololá	701	Sololá	1	Sololá	1	Enero	2023-01-26T00:00:00	2024-11-08T23:00:00	4	Temperatura máxima	13.5
2915	7	Sololá	701	Sololá	1	Sololá	1	Enero	2023-01-26T00:00:00	2024-11-08T23:00:00	3	Temperatura mínima	13.2
2916	7	Sololá	701	Sololá	1	Sololá	1	Enero	2023-01-26T00:00:00	2024-11-08T23:00:00	5	Humedad	75
2917	7	Sololá	701	Sololá	1	Sololá	1	Enero	2023-01-26T00:00:00	2024-11-08T23:00:00	6	Velocidad del viento	24.1
2918	7	Sololá	701	Sololá	1	Sololá	1	Enero	2023-01-26T00:00:00	2024-11-08T23:00:00	7	Dirección del viento	24.14
2919	7	Sololá	701	Sololá	1	Sololá	1	Enero	2023-01-26T00:00:00	2024-11-08T23:00:00	1	Precipitación	0
2920	7	Sololá	701	Sololá	1	Sololá	1	Enero	2023-01-26T00:00:00	2024-11-08T23:00:00	8	Radiación solar	0
2921	7	Sololá	701	Sololá	1	Sololá	1	Enero	2023-01-27T00:00:00	2024-11-08T00:00:00	2	Temperatura media	13.4
2922	7	Sololá	701	Sololá	1	Sololá	1	Enero	2023-01-27T00:00:00	2024-11-08T00:00:00	4	Temperatura máxima	13.8
2923	7	Sololá	701	Sololá	1	Sololá	1	Enero	2023-01-27T00:00:00	2024-11-08T00:00:00	3	Temperatura mínima	13.3
2924	7	Sololá	701	Sololá	1	Sololá	1	Enero	2023-01-27T00:00:00	2024-11-08T00:00:00	5	Humedad	75
2925	7	Sololá	701	Sololá	1	Sololá	1	Enero	2023-01-27T00:00:00	2024-11-08T00:00:00	6	Velocidad del viento	22.5
2926	7	Sololá	701	Sololá	1	Sololá	1	Enero	2023-01-27T00:00:00	2024-11-08T00:00:00	7	Dirección del viento	22.53
2927	7	Sololá	701	Sololá	1	Sololá	1	Enero	2023-01-27T00:00:00	2024-11-08T00:00:00	1	Precipitación	0
2928	7	Sololá	701	Sololá	1	Sololá	1	Enero	2023-01-27T00:00:00	2024-11-08T00:00:00	8	Radiación solar	0
2929	7	Sololá	701	Sololá	1	Sololá	1	Enero	2023-01-27T00:00:00	2024-11-08T01:00:00	2	Temperatura media	13.7
2930	7	Sololá	701	Sololá	1	Sololá	1	Enero	2023-01-27T00:00:00	2024-11-08T01:00:00	4	Temperatura máxima	13.7
2931	7	Sololá	701	Sololá	1	Sololá	1	Enero	2023-01-27T00:00:00	2024-11-08T01:00:00	3	Temperatura mínima	13.3
2932	7	Sololá	701	Sololá	1	Sololá	1	Enero	2023-01-27T00:00:00	2024-11-08T01:00:00	5	Humedad	74
2933	7	Sololá	701	Sololá	1	Sololá	1	Enero	2023-01-27T00:00:00	2024-11-08T01:00:00	6	Velocidad del viento	29
2934	7	Sololá	701	Sololá	1	Sololá	1	Enero	2023-01-27T00:00:00	2024-11-08T01:00:00	7	Dirección del viento	28.97
2935	7	Sololá	701	Sololá	1	Sololá	1	Enero	2023-01-27T00:00:00	2024-11-08T01:00:00	1	Precipitación	0
2936	7	Sololá	701	Sololá	1	Sololá	1	Enero	2023-01-27T00:00:00	2024-11-08T01:00:00	8	Radiación solar	0
2937	7	Sololá	701	Sololá	1	Sololá	1	Enero	2023-01-27T00:00:00	2024-11-08T02:00:00	2	Temperatura media	13.9
2938	7	Sololá	701	Sololá	1	Sololá	1	Enero	2023-01-27T00:00:00	2024-11-08T02:00:00	4	Temperatura máxima	14
2939	7	Sololá	701	Sololá	1	Sololá	1	Enero	2023-01-27T00:00:00	2024-11-08T02:00:00	3	Temperatura mínima	13.7
2940	7	Sololá	701	Sololá	1	Sololá	1	Enero	2023-01-27T00:00:00	2024-11-08T02:00:00	5	Humedad	78
2941	7	Sololá	701	Sololá	1	Sololá	1	Enero	2023-01-27T00:00:00	2024-11-08T02:00:00	6	Velocidad del viento	27.4
2942	7	Sololá	701	Sololá	1	Sololá	1	Enero	2023-01-27T00:00:00	2024-11-08T02:00:00	7	Dirección del viento	27.36
2943	7	Sololá	701	Sololá	1	Sololá	1	Enero	2023-01-27T00:00:00	2024-11-08T02:00:00	1	Precipitación	0
2944	7	Sololá	701	Sololá	1	Sololá	1	Enero	2023-01-27T00:00:00	2024-11-08T02:00:00	8	Radiación solar	0
2945	7	Sololá	701	Sololá	1	Sololá	1	Enero	2023-01-27T00:00:00	2024-11-08T03:00:00	2	Temperatura media	13.9
2946	7	Sololá	701	Sololá	1	Sololá	1	Enero	2023-01-27T00:00:00	2024-11-08T03:00:00	4	Temperatura máxima	14
2947	7	Sololá	701	Sololá	1	Sololá	1	Enero	2023-01-27T00:00:00	2024-11-08T03:00:00	3	Temperatura mínima	13.7
2948	7	Sololá	701	Sololá	1	Sololá	1	Enero	2023-01-27T00:00:00	2024-11-08T03:00:00	5	Humedad	78
2949	7	Sololá	701	Sololá	1	Sololá	1	Enero	2023-01-27T00:00:00	2024-11-08T03:00:00	6	Velocidad del viento	29
2950	7	Sololá	701	Sololá	1	Sololá	1	Enero	2023-01-27T00:00:00	2024-11-08T03:00:00	7	Dirección del viento	28.97
2951	7	Sololá	701	Sololá	1	Sololá	1	Enero	2023-01-27T00:00:00	2024-11-08T03:00:00	1	Precipitación	0
2952	7	Sololá	701	Sololá	1	Sololá	1	Enero	2023-01-27T00:00:00	2024-11-08T03:00:00	8	Radiación solar	0
2953	7	Sololá	701	Sololá	1	Sololá	1	Enero	2023-01-27T00:00:00	2024-11-08T04:00:00	2	Temperatura media	13.7
2954	7	Sololá	701	Sololá	1	Sololá	1	Enero	2023-01-27T00:00:00	2024-11-08T04:00:00	4	Temperatura máxima	14.1
2955	7	Sololá	701	Sololá	1	Sololá	1	Enero	2023-01-27T00:00:00	2024-11-08T04:00:00	3	Temperatura mínima	13.7
2956	7	Sololá	701	Sololá	1	Sololá	1	Enero	2023-01-27T00:00:00	2024-11-08T04:00:00	5	Humedad	79
2957	7	Sololá	701	Sololá	1	Sololá	1	Enero	2023-01-27T00:00:00	2024-11-08T04:00:00	6	Velocidad del viento	27.4
2958	7	Sololá	701	Sololá	1	Sololá	1	Enero	2023-01-27T00:00:00	2024-11-08T04:00:00	7	Dirección del viento	27.36
2959	7	Sololá	701	Sololá	1	Sololá	1	Enero	2023-01-27T00:00:00	2024-11-08T04:00:00	1	Precipitación	0
2960	7	Sololá	701	Sololá	1	Sololá	1	Enero	2023-01-27T00:00:00	2024-11-08T04:00:00	8	Radiación solar	0
2961	7	Sololá	701	Sololá	1	Sololá	1	Enero	2023-01-27T00:00:00	2024-11-08T05:00:00	2	Temperatura media	13.6
2962	7	Sololá	701	Sololá	1	Sololá	1	Enero	2023-01-27T00:00:00	2024-11-08T05:00:00	4	Temperatura máxima	13.7
2963	7	Sololá	701	Sololá	1	Sololá	1	Enero	2023-01-27T00:00:00	2024-11-08T05:00:00	3	Temperatura mínima	12.9
2964	7	Sololá	701	Sololá	1	Sololá	1	Enero	2023-01-27T00:00:00	2024-11-08T05:00:00	5	Humedad	80
2965	7	Sololá	701	Sololá	1	Sololá	1	Enero	2023-01-27T00:00:00	2024-11-08T05:00:00	6	Velocidad del viento	25.7
2966	7	Sololá	701	Sololá	1	Sololá	1	Enero	2023-01-27T00:00:00	2024-11-08T05:00:00	7	Dirección del viento	25.75
2967	7	Sololá	701	Sololá	1	Sololá	1	Enero	2023-01-27T00:00:00	2024-11-08T05:00:00	1	Precipitación	0
2968	7	Sololá	701	Sololá	1	Sololá	1	Enero	2023-01-27T00:00:00	2024-11-08T05:00:00	8	Radiación solar	0
2969	7	Sololá	701	Sololá	1	Sololá	1	Enero	2023-01-27T00:00:00	2024-11-08T06:00:00	2	Temperatura media	13.5
2970	7	Sololá	701	Sololá	1	Sololá	1	Enero	2023-01-27T00:00:00	2024-11-08T06:00:00	4	Temperatura máxima	13.8
2971	7	Sololá	701	Sololá	1	Sololá	1	Enero	2023-01-27T00:00:00	2024-11-08T06:00:00	3	Temperatura mínima	13.4
2972	7	Sololá	701	Sololá	1	Sololá	1	Enero	2023-01-27T00:00:00	2024-11-08T06:00:00	5	Humedad	79
2973	7	Sololá	701	Sololá	1	Sololá	1	Enero	2023-01-27T00:00:00	2024-11-08T06:00:00	6	Velocidad del viento	20.9
2974	7	Sololá	701	Sololá	1	Sololá	1	Enero	2023-01-27T00:00:00	2024-11-08T06:00:00	7	Dirección del viento	20.92
2975	7	Sololá	701	Sololá	1	Sololá	1	Enero	2023-01-27T00:00:00	2024-11-08T06:00:00	1	Precipitación	0
2976	7	Sololá	701	Sololá	1	Sololá	1	Enero	2023-01-27T00:00:00	2024-11-08T06:00:00	8	Radiación solar	0
2977	7	Sololá	701	Sololá	1	Sololá	1	Enero	2023-01-27T00:00:00	2024-11-08T07:00:00	2	Temperatura media	14.2
2978	7	Sololá	701	Sololá	1	Sololá	1	Enero	2023-01-27T00:00:00	2024-11-08T07:00:00	4	Temperatura máxima	14.2
2979	7	Sololá	701	Sololá	1	Sololá	1	Enero	2023-01-27T00:00:00	2024-11-08T07:00:00	3	Temperatura mínima	13.5
2980	7	Sololá	701	Sololá	1	Sololá	1	Enero	2023-01-27T00:00:00	2024-11-08T07:00:00	5	Humedad	74
2981	7	Sololá	701	Sololá	1	Sololá	1	Enero	2023-01-27T00:00:00	2024-11-08T07:00:00	6	Velocidad del viento	19.3
2982	7	Sololá	701	Sololá	1	Sololá	1	Enero	2023-01-27T00:00:00	2024-11-08T07:00:00	7	Dirección del viento	19.31
2983	7	Sololá	701	Sololá	1	Sololá	1	Enero	2023-01-27T00:00:00	2024-11-08T07:00:00	1	Precipitación	0
2984	7	Sololá	701	Sololá	1	Sololá	1	Enero	2023-01-27T00:00:00	2024-11-08T07:00:00	8	Radiación solar	5
2985	7	Sololá	701	Sololá	1	Sololá	1	Enero	2023-01-27T00:00:00	2024-11-08T08:00:00	2	Temperatura media	15
2986	7	Sololá	701	Sololá	1	Sololá	1	Enero	2023-01-27T00:00:00	2024-11-08T08:00:00	4	Temperatura máxima	15
2987	7	Sololá	701	Sololá	1	Sololá	1	Enero	2023-01-27T00:00:00	2024-11-08T08:00:00	3	Temperatura mínima	14.2
2988	7	Sololá	701	Sololá	1	Sololá	1	Enero	2023-01-27T00:00:00	2024-11-08T08:00:00	5	Humedad	71
2989	7	Sololá	701	Sololá	1	Sololá	1	Enero	2023-01-27T00:00:00	2024-11-08T08:00:00	6	Velocidad del viento	20.9
2990	7	Sololá	701	Sololá	1	Sololá	1	Enero	2023-01-27T00:00:00	2024-11-08T08:00:00	7	Dirección del viento	20.92
2991	7	Sololá	701	Sololá	1	Sololá	1	Enero	2023-01-27T00:00:00	2024-11-08T08:00:00	1	Precipitación	0
2992	7	Sololá	701	Sololá	1	Sololá	1	Enero	2023-01-27T00:00:00	2024-11-08T08:00:00	8	Radiación solar	68
2993	7	Sololá	701	Sololá	1	Sololá	1	Enero	2023-01-27T00:00:00	2024-11-08T09:00:00	2	Temperatura media	15.8
2994	7	Sololá	701	Sololá	1	Sololá	1	Enero	2023-01-27T00:00:00	2024-11-08T09:00:00	4	Temperatura máxima	15.9
2995	7	Sololá	701	Sololá	1	Sololá	1	Enero	2023-01-27T00:00:00	2024-11-08T09:00:00	3	Temperatura mínima	14.9
2996	7	Sololá	701	Sololá	1	Sololá	1	Enero	2023-01-27T00:00:00	2024-11-08T09:00:00	5	Humedad	72
2997	7	Sololá	701	Sololá	1	Sololá	1	Enero	2023-01-27T00:00:00	2024-11-08T09:00:00	6	Velocidad del viento	24.1
2998	7	Sololá	701	Sololá	1	Sololá	1	Enero	2023-01-27T00:00:00	2024-11-08T09:00:00	7	Dirección del viento	24.14
2999	7	Sololá	701	Sololá	1	Sololá	1	Enero	2023-01-27T00:00:00	2024-11-08T09:00:00	1	Precipitación	0
3000	7	Sololá	701	Sololá	1	Sololá	1	Enero	2023-01-27T00:00:00	2024-11-08T09:00:00	8	Radiación solar	207
3001	7	Sololá	701	Sololá	1	Sololá	1	Enero	2023-01-27T00:00:00	2024-11-08T10:00:00	2	Temperatura media	16.3
3002	7	Sololá	701	Sololá	1	Sololá	1	Enero	2023-01-27T00:00:00	2024-11-08T10:00:00	4	Temperatura máxima	16.4
3003	7	Sololá	701	Sololá	1	Sololá	1	Enero	2023-01-27T00:00:00	2024-11-08T10:00:00	3	Temperatura mínima	15.8
3004	7	Sololá	701	Sololá	1	Sololá	1	Enero	2023-01-27T00:00:00	2024-11-08T10:00:00	5	Humedad	72
3005	7	Sololá	701	Sololá	1	Sololá	1	Enero	2023-01-27T00:00:00	2024-11-08T10:00:00	6	Velocidad del viento	24.1
3006	7	Sololá	701	Sololá	1	Sololá	1	Enero	2023-01-27T00:00:00	2024-11-08T10:00:00	7	Dirección del viento	24.14
3007	7	Sololá	701	Sololá	1	Sololá	1	Enero	2023-01-27T00:00:00	2024-11-08T10:00:00	1	Precipitación	0
3008	7	Sololá	701	Sololá	1	Sololá	1	Enero	2023-01-27T00:00:00	2024-11-08T10:00:00	8	Radiación solar	353
3009	7	Sololá	701	Sololá	1	Sololá	1	Enero	2023-01-27T00:00:00	2024-11-08T11:00:00	2	Temperatura media	16.9
3010	7	Sololá	701	Sololá	1	Sololá	1	Enero	2023-01-27T00:00:00	2024-11-08T11:00:00	4	Temperatura máxima	17.6
3011	7	Sololá	701	Sololá	1	Sololá	1	Enero	2023-01-27T00:00:00	2024-11-08T11:00:00	3	Temperatura mínima	16.3
3012	7	Sololá	701	Sololá	1	Sololá	1	Enero	2023-01-27T00:00:00	2024-11-08T11:00:00	5	Humedad	70
3013	7	Sololá	701	Sololá	1	Sololá	1	Enero	2023-01-27T00:00:00	2024-11-08T11:00:00	6	Velocidad del viento	16.1
3014	7	Sololá	701	Sololá	1	Sololá	1	Enero	2023-01-27T00:00:00	2024-11-08T11:00:00	7	Dirección del viento	16.09
3015	7	Sololá	701	Sololá	1	Sololá	1	Enero	2023-01-27T00:00:00	2024-11-08T11:00:00	1	Precipitación	0
3016	7	Sololá	701	Sololá	1	Sololá	1	Enero	2023-01-27T00:00:00	2024-11-08T11:00:00	8	Radiación solar	210
3017	7	Sololá	701	Sololá	1	Sololá	1	Enero	2023-01-27T00:00:00	2024-11-08T12:00:00	2	Temperatura media	17.7
3018	7	Sololá	701	Sololá	1	Sololá	1	Enero	2023-01-27T00:00:00	2024-11-08T12:00:00	4	Temperatura máxima	18.1
3019	7	Sololá	701	Sololá	1	Sololá	1	Enero	2023-01-27T00:00:00	2024-11-08T12:00:00	3	Temperatura mínima	16.6
3020	7	Sololá	701	Sololá	1	Sololá	1	Enero	2023-01-27T00:00:00	2024-11-08T12:00:00	5	Humedad	67
3021	7	Sololá	701	Sololá	1	Sololá	1	Enero	2023-01-27T00:00:00	2024-11-08T12:00:00	6	Velocidad del viento	16.1
3022	7	Sololá	701	Sololá	1	Sololá	1	Enero	2023-01-27T00:00:00	2024-11-08T12:00:00	7	Dirección del viento	16.09
3023	7	Sololá	701	Sololá	1	Sololá	1	Enero	2023-01-27T00:00:00	2024-11-08T12:00:00	1	Precipitación	0
3024	7	Sololá	701	Sololá	1	Sololá	1	Enero	2023-01-27T00:00:00	2024-11-08T12:00:00	8	Radiación solar	531
3025	7	Sololá	701	Sololá	1	Sololá	1	Enero	2023-01-27T00:00:00	2024-11-08T13:00:00	2	Temperatura media	17
3026	7	Sololá	701	Sololá	1	Sololá	1	Enero	2023-01-27T00:00:00	2024-11-08T13:00:00	4	Temperatura máxima	17.8
3027	7	Sololá	701	Sololá	1	Sololá	1	Enero	2023-01-27T00:00:00	2024-11-08T13:00:00	3	Temperatura mínima	16.8
3028	7	Sololá	701	Sololá	1	Sololá	1	Enero	2023-01-27T00:00:00	2024-11-08T13:00:00	5	Humedad	69
3029	7	Sololá	701	Sololá	1	Sololá	1	Enero	2023-01-27T00:00:00	2024-11-08T13:00:00	6	Velocidad del viento	14.5
3030	7	Sololá	701	Sololá	1	Sololá	1	Enero	2023-01-27T00:00:00	2024-11-08T13:00:00	7	Dirección del viento	14.48
3031	7	Sololá	701	Sololá	1	Sololá	1	Enero	2023-01-27T00:00:00	2024-11-08T13:00:00	1	Precipitación	0
3032	7	Sololá	701	Sololá	1	Sololá	1	Enero	2023-01-27T00:00:00	2024-11-08T13:00:00	8	Radiación solar	247
3033	7	Sololá	701	Sololá	1	Sololá	1	Enero	2023-01-27T00:00:00	2024-11-08T14:00:00	2	Temperatura media	17.8
3034	7	Sololá	701	Sololá	1	Sololá	1	Enero	2023-01-27T00:00:00	2024-11-08T14:00:00	4	Temperatura máxima	17.9
3035	7	Sololá	701	Sololá	1	Sololá	1	Enero	2023-01-27T00:00:00	2024-11-08T14:00:00	3	Temperatura mínima	16.9
3036	7	Sololá	701	Sololá	1	Sololá	1	Enero	2023-01-27T00:00:00	2024-11-08T14:00:00	5	Humedad	67
3037	7	Sololá	701	Sololá	1	Sololá	1	Enero	2023-01-27T00:00:00	2024-11-08T14:00:00	6	Velocidad del viento	16.1
3038	7	Sololá	701	Sololá	1	Sololá	1	Enero	2023-01-27T00:00:00	2024-11-08T14:00:00	7	Dirección del viento	16.09
3039	7	Sololá	701	Sololá	1	Sololá	1	Enero	2023-01-27T00:00:00	2024-11-08T14:00:00	1	Precipitación	0
3040	7	Sololá	701	Sololá	1	Sololá	1	Enero	2023-01-27T00:00:00	2024-11-08T14:00:00	8	Radiación solar	352
3041	7	Sololá	701	Sololá	1	Sololá	1	Enero	2023-01-27T00:00:00	2024-11-08T15:00:00	2	Temperatura media	17.6
3042	7	Sololá	701	Sololá	1	Sololá	1	Enero	2023-01-27T00:00:00	2024-11-08T15:00:00	4	Temperatura máxima	17.8
3043	7	Sololá	701	Sololá	1	Sololá	1	Enero	2023-01-27T00:00:00	2024-11-08T15:00:00	3	Temperatura mínima	17
3044	7	Sololá	701	Sololá	1	Sololá	1	Enero	2023-01-27T00:00:00	2024-11-08T15:00:00	5	Humedad	70
3045	7	Sololá	701	Sololá	1	Sololá	1	Enero	2023-01-27T00:00:00	2024-11-08T15:00:00	6	Velocidad del viento	16.1
3046	7	Sololá	701	Sololá	1	Sololá	1	Enero	2023-01-27T00:00:00	2024-11-08T15:00:00	7	Dirección del viento	16.09
3047	7	Sololá	701	Sololá	1	Sololá	1	Enero	2023-01-27T00:00:00	2024-11-08T15:00:00	1	Precipitación	0
3048	7	Sololá	701	Sololá	1	Sololá	1	Enero	2023-01-27T00:00:00	2024-11-08T15:00:00	8	Radiación solar	208
3049	7	Sololá	701	Sololá	1	Sololá	1	Enero	2023-01-27T00:00:00	2024-11-08T16:00:00	2	Temperatura media	16.9
3050	7	Sololá	701	Sololá	1	Sololá	1	Enero	2023-01-27T00:00:00	2024-11-08T16:00:00	4	Temperatura máxima	17.8
3051	7	Sololá	701	Sololá	1	Sololá	1	Enero	2023-01-27T00:00:00	2024-11-08T16:00:00	3	Temperatura mínima	16.5
3052	7	Sololá	701	Sololá	1	Sololá	1	Enero	2023-01-27T00:00:00	2024-11-08T16:00:00	5	Humedad	71
3053	7	Sololá	701	Sololá	1	Sololá	1	Enero	2023-01-27T00:00:00	2024-11-08T16:00:00	6	Velocidad del viento	12.9
3054	7	Sololá	701	Sololá	1	Sololá	1	Enero	2023-01-27T00:00:00	2024-11-08T16:00:00	7	Dirección del viento	12.87
3055	7	Sololá	701	Sololá	1	Sololá	1	Enero	2023-01-27T00:00:00	2024-11-08T16:00:00	1	Precipitación	0
3056	7	Sololá	701	Sololá	1	Sololá	1	Enero	2023-01-27T00:00:00	2024-11-08T16:00:00	8	Radiación solar	203
3057	7	Sololá	701	Sololá	1	Sololá	1	Enero	2023-01-27T00:00:00	2024-11-08T17:00:00	2	Temperatura media	15.8
3058	7	Sololá	701	Sololá	1	Sololá	1	Enero	2023-01-27T00:00:00	2024-11-08T17:00:00	4	Temperatura máxima	17.3
3059	7	Sololá	701	Sololá	1	Sololá	1	Enero	2023-01-27T00:00:00	2024-11-08T17:00:00	3	Temperatura mínima	15.8
3060	7	Sololá	701	Sololá	1	Sololá	1	Enero	2023-01-27T00:00:00	2024-11-08T17:00:00	5	Humedad	75
3061	7	Sololá	701	Sololá	1	Sololá	1	Enero	2023-01-27T00:00:00	2024-11-08T17:00:00	6	Velocidad del viento	11.3
3062	7	Sololá	701	Sololá	1	Sololá	1	Enero	2023-01-27T00:00:00	2024-11-08T17:00:00	7	Dirección del viento	11.27
3063	7	Sololá	701	Sololá	1	Sololá	1	Enero	2023-01-27T00:00:00	2024-11-08T17:00:00	1	Precipitación	0
3064	7	Sololá	701	Sololá	1	Sololá	1	Enero	2023-01-27T00:00:00	2024-11-08T17:00:00	8	Radiación solar	63
3065	7	Sololá	701	Sololá	1	Sololá	1	Enero	2023-01-27T00:00:00	2024-11-08T18:00:00	2	Temperatura media	15
3066	7	Sololá	701	Sololá	1	Sololá	1	Enero	2023-01-27T00:00:00	2024-11-08T18:00:00	4	Temperatura máxima	15.8
3067	7	Sololá	701	Sololá	1	Sololá	1	Enero	2023-01-27T00:00:00	2024-11-08T18:00:00	3	Temperatura mínima	15
3068	7	Sololá	701	Sololá	1	Sololá	1	Enero	2023-01-27T00:00:00	2024-11-08T18:00:00	5	Humedad	78
3069	7	Sololá	701	Sololá	1	Sololá	1	Enero	2023-01-27T00:00:00	2024-11-08T18:00:00	6	Velocidad del viento	11.3
3070	7	Sololá	701	Sololá	1	Sololá	1	Enero	2023-01-27T00:00:00	2024-11-08T18:00:00	7	Dirección del viento	11.27
3071	7	Sololá	701	Sololá	1	Sololá	1	Enero	2023-01-27T00:00:00	2024-11-08T18:00:00	1	Precipitación	0
3072	7	Sololá	701	Sololá	1	Sololá	1	Enero	2023-01-27T00:00:00	2024-11-08T18:00:00	8	Radiación solar	14
3073	7	Sololá	701	Sololá	1	Sololá	1	Enero	2023-01-27T00:00:00	2024-11-08T19:00:00	2	Temperatura media	14.2
3074	7	Sololá	701	Sololá	1	Sololá	1	Enero	2023-01-27T00:00:00	2024-11-08T19:00:00	4	Temperatura máxima	15
3075	7	Sololá	701	Sololá	1	Sololá	1	Enero	2023-01-27T00:00:00	2024-11-08T19:00:00	3	Temperatura mínima	14.1
3076	7	Sololá	701	Sololá	1	Sololá	1	Enero	2023-01-27T00:00:00	2024-11-08T19:00:00	5	Humedad	82
3077	7	Sololá	701	Sololá	1	Sololá	1	Enero	2023-01-27T00:00:00	2024-11-08T19:00:00	6	Velocidad del viento	8
3078	7	Sololá	701	Sololá	1	Sololá	1	Enero	2023-01-27T00:00:00	2024-11-08T19:00:00	7	Dirección del viento	8.05
3079	7	Sololá	701	Sololá	1	Sololá	1	Enero	2023-01-27T00:00:00	2024-11-08T19:00:00	1	Precipitación	0
3080	7	Sololá	701	Sololá	1	Sololá	1	Enero	2023-01-27T00:00:00	2024-11-08T19:00:00	8	Radiación solar	0
3081	7	Sololá	701	Sololá	1	Sololá	1	Enero	2023-01-27T00:00:00	2024-11-08T20:00:00	2	Temperatura media	13.8
3082	7	Sololá	701	Sololá	1	Sololá	1	Enero	2023-01-27T00:00:00	2024-11-08T20:00:00	4	Temperatura máxima	14.2
3083	7	Sololá	701	Sololá	1	Sololá	1	Enero	2023-01-27T00:00:00	2024-11-08T20:00:00	3	Temperatura mínima	13.8
3084	7	Sololá	701	Sololá	1	Sololá	1	Enero	2023-01-27T00:00:00	2024-11-08T20:00:00	5	Humedad	83
3085	7	Sololá	701	Sololá	1	Sololá	1	Enero	2023-01-27T00:00:00	2024-11-08T20:00:00	6	Velocidad del viento	9.7
3086	7	Sololá	701	Sololá	1	Sololá	1	Enero	2023-01-27T00:00:00	2024-11-08T20:00:00	7	Dirección del viento	9.66
3087	7	Sololá	701	Sololá	1	Sololá	1	Enero	2023-01-27T00:00:00	2024-11-08T20:00:00	1	Precipitación	0
3088	7	Sololá	701	Sololá	1	Sololá	1	Enero	2023-01-27T00:00:00	2024-11-08T20:00:00	8	Radiación solar	0
3089	7	Sololá	701	Sololá	1	Sololá	1	Enero	2023-01-27T00:00:00	2024-11-08T21:00:00	2	Temperatura media	13.4
3090	7	Sololá	701	Sololá	1	Sololá	1	Enero	2023-01-27T00:00:00	2024-11-08T21:00:00	4	Temperatura máxima	13.9
3091	7	Sololá	701	Sololá	1	Sololá	1	Enero	2023-01-27T00:00:00	2024-11-08T21:00:00	3	Temperatura mínima	13.4
3092	7	Sololá	701	Sololá	1	Sololá	1	Enero	2023-01-27T00:00:00	2024-11-08T21:00:00	5	Humedad	83
3093	7	Sololá	701	Sololá	1	Sololá	1	Enero	2023-01-27T00:00:00	2024-11-08T21:00:00	6	Velocidad del viento	12.9
3094	7	Sololá	701	Sololá	1	Sololá	1	Enero	2023-01-27T00:00:00	2024-11-08T21:00:00	7	Dirección del viento	12.87
3095	7	Sololá	701	Sololá	1	Sololá	1	Enero	2023-01-27T00:00:00	2024-11-08T21:00:00	1	Precipitación	0
3096	7	Sololá	701	Sololá	1	Sololá	1	Enero	2023-01-27T00:00:00	2024-11-08T21:00:00	8	Radiación solar	0
3097	7	Sololá	701	Sololá	1	Sololá	1	Enero	2023-01-27T00:00:00	2024-11-08T22:00:00	2	Temperatura media	13.1
3098	7	Sololá	701	Sololá	1	Sololá	1	Enero	2023-01-27T00:00:00	2024-11-08T22:00:00	4	Temperatura máxima	13.4
3099	7	Sololá	701	Sololá	1	Sololá	1	Enero	2023-01-27T00:00:00	2024-11-08T22:00:00	3	Temperatura mínima	13.1
3100	7	Sololá	701	Sololá	1	Sololá	1	Enero	2023-01-27T00:00:00	2024-11-08T22:00:00	5	Humedad	74
3101	7	Sololá	701	Sololá	1	Sololá	1	Enero	2023-01-27T00:00:00	2024-11-08T22:00:00	6	Velocidad del viento	14.5
3102	7	Sololá	701	Sololá	1	Sololá	1	Enero	2023-01-27T00:00:00	2024-11-08T22:00:00	7	Dirección del viento	14.48
3103	7	Sololá	701	Sololá	1	Sololá	1	Enero	2023-01-27T00:00:00	2024-11-08T22:00:00	1	Precipitación	0
3104	7	Sololá	701	Sololá	1	Sololá	1	Enero	2023-01-27T00:00:00	2024-11-08T22:00:00	8	Radiación solar	0
3105	7	Sololá	701	Sololá	1	Sololá	1	Enero	2023-01-27T00:00:00	2024-11-08T23:00:00	2	Temperatura media	13.4
3106	7	Sololá	701	Sololá	1	Sololá	1	Enero	2023-01-27T00:00:00	2024-11-08T23:00:00	4	Temperatura máxima	13.5
3107	7	Sololá	701	Sololá	1	Sololá	1	Enero	2023-01-27T00:00:00	2024-11-08T23:00:00	3	Temperatura mínima	13
3108	7	Sololá	701	Sololá	1	Sololá	1	Enero	2023-01-27T00:00:00	2024-11-08T23:00:00	5	Humedad	45
3109	7	Sololá	701	Sololá	1	Sololá	1	Enero	2023-01-27T00:00:00	2024-11-08T23:00:00	6	Velocidad del viento	22.5
3110	7	Sololá	701	Sololá	1	Sololá	1	Enero	2023-01-27T00:00:00	2024-11-08T23:00:00	7	Dirección del viento	22.53
3111	7	Sololá	701	Sololá	1	Sololá	1	Enero	2023-01-27T00:00:00	2024-11-08T23:00:00	1	Precipitación	0
3112	7	Sololá	701	Sololá	1	Sololá	1	Enero	2023-01-27T00:00:00	2024-11-08T23:00:00	8	Radiación solar	0
3113	7	Sololá	701	Sololá	1	Sololá	1	Enero	2023-01-28T00:00:00	2024-11-08T00:00:00	2	Temperatura media	12.9
3114	7	Sololá	701	Sololá	1	Sololá	1	Enero	2023-01-28T00:00:00	2024-11-08T00:00:00	4	Temperatura máxima	13.5
3115	7	Sololá	701	Sololá	1	Sololá	1	Enero	2023-01-28T00:00:00	2024-11-08T00:00:00	3	Temperatura mínima	12.9
3116	7	Sololá	701	Sololá	1	Sololá	1	Enero	2023-01-28T00:00:00	2024-11-08T00:00:00	5	Humedad	41
3117	7	Sololá	701	Sololá	1	Sololá	1	Enero	2023-01-28T00:00:00	2024-11-08T00:00:00	6	Velocidad del viento	14.5
3118	7	Sololá	701	Sololá	1	Sololá	1	Enero	2023-01-28T00:00:00	2024-11-08T00:00:00	7	Dirección del viento	14.48
3119	7	Sololá	701	Sololá	1	Sololá	1	Enero	2023-01-28T00:00:00	2024-11-08T00:00:00	1	Precipitación	0
3120	7	Sololá	701	Sololá	1	Sololá	1	Enero	2023-01-28T00:00:00	2024-11-08T00:00:00	8	Radiación solar	0
3121	7	Sololá	701	Sololá	1	Sololá	1	Enero	2023-01-28T00:00:00	2024-11-08T01:00:00	2	Temperatura media	12.4
3122	7	Sololá	701	Sololá	1	Sololá	1	Enero	2023-01-28T00:00:00	2024-11-08T01:00:00	4	Temperatura máxima	13
3123	7	Sololá	701	Sololá	1	Sololá	1	Enero	2023-01-28T00:00:00	2024-11-08T01:00:00	3	Temperatura mínima	12.3
3124	7	Sololá	701	Sololá	1	Sololá	1	Enero	2023-01-28T00:00:00	2024-11-08T01:00:00	5	Humedad	44
3125	7	Sololá	701	Sololá	1	Sololá	1	Enero	2023-01-28T00:00:00	2024-11-08T01:00:00	6	Velocidad del viento	20.9
3126	7	Sololá	701	Sololá	1	Sololá	1	Enero	2023-01-28T00:00:00	2024-11-08T01:00:00	7	Dirección del viento	20.92
3127	7	Sololá	701	Sololá	1	Sololá	1	Enero	2023-01-28T00:00:00	2024-11-08T01:00:00	1	Precipitación	0
3128	7	Sololá	701	Sololá	1	Sololá	1	Enero	2023-01-28T00:00:00	2024-11-08T01:00:00	8	Radiación solar	0
3129	7	Sololá	701	Sololá	1	Sololá	1	Enero	2023-01-28T00:00:00	2024-11-08T02:00:00	2	Temperatura media	13.2
3130	7	Sololá	701	Sololá	1	Sololá	1	Enero	2023-01-28T00:00:00	2024-11-08T02:00:00	4	Temperatura máxima	13.3
3131	7	Sololá	701	Sololá	1	Sololá	1	Enero	2023-01-28T00:00:00	2024-11-08T02:00:00	3	Temperatura mínima	12.1
3132	7	Sololá	701	Sololá	1	Sololá	1	Enero	2023-01-28T00:00:00	2024-11-08T02:00:00	5	Humedad	55
3133	7	Sololá	701	Sololá	1	Sololá	1	Enero	2023-01-28T00:00:00	2024-11-08T02:00:00	6	Velocidad del viento	29
3134	7	Sololá	701	Sololá	1	Sololá	1	Enero	2023-01-28T00:00:00	2024-11-08T02:00:00	7	Dirección del viento	28.97
3135	7	Sololá	701	Sololá	1	Sololá	1	Enero	2023-01-28T00:00:00	2024-11-08T02:00:00	1	Precipitación	0
3136	7	Sololá	701	Sololá	1	Sololá	1	Enero	2023-01-28T00:00:00	2024-11-08T02:00:00	8	Radiación solar	0
3137	7	Sololá	701	Sololá	1	Sololá	1	Enero	2023-01-28T00:00:00	2024-11-08T03:00:00	2	Temperatura media	12.8
3138	7	Sololá	701	Sololá	1	Sololá	1	Enero	2023-01-28T00:00:00	2024-11-08T03:00:00	4	Temperatura máxima	13.3
3139	7	Sololá	701	Sololá	1	Sololá	1	Enero	2023-01-28T00:00:00	2024-11-08T03:00:00	3	Temperatura mínima	12.3
3140	7	Sololá	701	Sololá	1	Sololá	1	Enero	2023-01-28T00:00:00	2024-11-08T03:00:00	5	Humedad	63
3141	7	Sololá	701	Sololá	1	Sololá	1	Enero	2023-01-28T00:00:00	2024-11-08T03:00:00	6	Velocidad del viento	27.4
3142	7	Sololá	701	Sololá	1	Sololá	1	Enero	2023-01-28T00:00:00	2024-11-08T03:00:00	7	Dirección del viento	27.36
3143	7	Sololá	701	Sololá	1	Sololá	1	Enero	2023-01-28T00:00:00	2024-11-08T03:00:00	1	Precipitación	0
3144	7	Sololá	701	Sololá	1	Sololá	1	Enero	2023-01-28T00:00:00	2024-11-08T03:00:00	8	Radiación solar	0
3145	7	Sololá	701	Sololá	1	Sololá	1	Enero	2023-01-28T00:00:00	2024-11-08T04:00:00	2	Temperatura media	12.3
3146	7	Sololá	701	Sololá	1	Sololá	1	Enero	2023-01-28T00:00:00	2024-11-08T04:00:00	4	Temperatura máxima	12.8
3147	7	Sololá	701	Sololá	1	Sololá	1	Enero	2023-01-28T00:00:00	2024-11-08T04:00:00	3	Temperatura mínima	12
3148	7	Sololá	701	Sololá	1	Sololá	1	Enero	2023-01-28T00:00:00	2024-11-08T04:00:00	5	Humedad	77
3149	7	Sololá	701	Sololá	1	Sololá	1	Enero	2023-01-28T00:00:00	2024-11-08T04:00:00	6	Velocidad del viento	33.8
3150	7	Sololá	701	Sololá	1	Sololá	1	Enero	2023-01-28T00:00:00	2024-11-08T04:00:00	7	Dirección del viento	33.8
3151	7	Sololá	701	Sololá	1	Sololá	1	Enero	2023-01-28T00:00:00	2024-11-08T04:00:00	1	Precipitación	0
3152	7	Sololá	701	Sololá	1	Sololá	1	Enero	2023-01-28T00:00:00	2024-11-08T04:00:00	8	Radiación solar	0
3153	7	Sololá	701	Sololá	1	Sololá	1	Enero	2023-01-28T00:00:00	2024-11-08T05:00:00	2	Temperatura media	12.6
3154	7	Sololá	701	Sololá	1	Sololá	1	Enero	2023-01-28T00:00:00	2024-11-08T05:00:00	4	Temperatura máxima	12.6
3155	7	Sololá	701	Sololá	1	Sololá	1	Enero	2023-01-28T00:00:00	2024-11-08T05:00:00	3	Temperatura mínima	12.3
3156	7	Sololá	701	Sololá	1	Sololá	1	Enero	2023-01-28T00:00:00	2024-11-08T05:00:00	5	Humedad	80
3157	7	Sololá	701	Sololá	1	Sololá	1	Enero	2023-01-28T00:00:00	2024-11-08T05:00:00	6	Velocidad del viento	33.8
3158	7	Sololá	701	Sololá	1	Sololá	1	Enero	2023-01-28T00:00:00	2024-11-08T05:00:00	7	Dirección del viento	33.8
3159	7	Sololá	701	Sololá	1	Sololá	1	Enero	2023-01-28T00:00:00	2024-11-08T05:00:00	1	Precipitación	0
3160	7	Sololá	701	Sololá	1	Sololá	1	Enero	2023-01-28T00:00:00	2024-11-08T05:00:00	8	Radiación solar	0
3161	7	Sololá	701	Sololá	1	Sololá	1	Enero	2023-01-28T00:00:00	2024-11-08T06:00:00	2	Temperatura media	12.8
3162	7	Sololá	701	Sololá	1	Sololá	1	Enero	2023-01-28T00:00:00	2024-11-08T06:00:00	4	Temperatura máxima	12.9
3163	7	Sololá	701	Sololá	1	Sololá	1	Enero	2023-01-28T00:00:00	2024-11-08T06:00:00	3	Temperatura mínima	12.4
3164	7	Sololá	701	Sololá	1	Sololá	1	Enero	2023-01-28T00:00:00	2024-11-08T06:00:00	5	Humedad	79
3165	7	Sololá	701	Sololá	1	Sololá	1	Enero	2023-01-28T00:00:00	2024-11-08T06:00:00	6	Velocidad del viento	33.8
3166	7	Sololá	701	Sololá	1	Sololá	1	Enero	2023-01-28T00:00:00	2024-11-08T06:00:00	7	Dirección del viento	33.8
3167	7	Sololá	701	Sololá	1	Sololá	1	Enero	2023-01-28T00:00:00	2024-11-08T06:00:00	1	Precipitación	0
3168	7	Sololá	701	Sololá	1	Sololá	1	Enero	2023-01-28T00:00:00	2024-11-08T06:00:00	8	Radiación solar	0
3169	7	Sololá	701	Sololá	1	Sololá	1	Enero	2023-01-28T00:00:00	2024-11-08T07:00:00	2	Temperatura media	13.2
3170	7	Sololá	701	Sololá	1	Sololá	1	Enero	2023-01-28T00:00:00	2024-11-08T07:00:00	4	Temperatura máxima	13.4
3171	7	Sololá	701	Sololá	1	Sololá	1	Enero	2023-01-28T00:00:00	2024-11-08T07:00:00	3	Temperatura mínima	12.8
3172	7	Sololá	701	Sololá	1	Sololá	1	Enero	2023-01-28T00:00:00	2024-11-08T07:00:00	5	Humedad	78
3173	7	Sololá	701	Sololá	1	Sololá	1	Enero	2023-01-28T00:00:00	2024-11-08T07:00:00	6	Velocidad del viento	35.4
3174	7	Sololá	701	Sololá	1	Sololá	1	Enero	2023-01-28T00:00:00	2024-11-08T07:00:00	7	Dirección del viento	35.41
3175	7	Sololá	701	Sololá	1	Sololá	1	Enero	2023-01-28T00:00:00	2024-11-08T07:00:00	1	Precipitación	0
3176	7	Sololá	701	Sololá	1	Sololá	1	Enero	2023-01-28T00:00:00	2024-11-08T07:00:00	8	Radiación solar	9
3177	7	Sololá	701	Sololá	1	Sololá	1	Enero	2023-01-28T00:00:00	2024-11-08T08:00:00	2	Temperatura media	14.7
3178	7	Sololá	701	Sololá	1	Sololá	1	Enero	2023-01-28T00:00:00	2024-11-08T08:00:00	4	Temperatura máxima	14.7
3179	7	Sololá	701	Sololá	1	Sololá	1	Enero	2023-01-28T00:00:00	2024-11-08T08:00:00	3	Temperatura mínima	13.2
3180	7	Sololá	701	Sololá	1	Sololá	1	Enero	2023-01-28T00:00:00	2024-11-08T08:00:00	5	Humedad	75
3181	7	Sololá	701	Sololá	1	Sololá	1	Enero	2023-01-28T00:00:00	2024-11-08T08:00:00	6	Velocidad del viento	29
3182	7	Sololá	701	Sololá	1	Sololá	1	Enero	2023-01-28T00:00:00	2024-11-08T08:00:00	7	Dirección del viento	28.97
3183	7	Sololá	701	Sololá	1	Sololá	1	Enero	2023-01-28T00:00:00	2024-11-08T08:00:00	1	Precipitación	0
3184	7	Sololá	701	Sololá	1	Sololá	1	Enero	2023-01-28T00:00:00	2024-11-08T08:00:00	8	Radiación solar	136
3185	7	Sololá	701	Sololá	1	Sololá	1	Enero	2023-01-28T00:00:00	2024-11-08T09:00:00	2	Temperatura media	15.6
3186	7	Sololá	701	Sololá	1	Sololá	1	Enero	2023-01-28T00:00:00	2024-11-08T09:00:00	4	Temperatura máxima	15.6
3187	7	Sololá	701	Sololá	1	Sololá	1	Enero	2023-01-28T00:00:00	2024-11-08T09:00:00	3	Temperatura mínima	14.7
3188	7	Sololá	701	Sololá	1	Sololá	1	Enero	2023-01-28T00:00:00	2024-11-08T09:00:00	5	Humedad	69
3189	7	Sololá	701	Sololá	1	Sololá	1	Enero	2023-01-28T00:00:00	2024-11-08T09:00:00	6	Velocidad del viento	17.7
3190	7	Sololá	701	Sololá	1	Sololá	1	Enero	2023-01-28T00:00:00	2024-11-08T09:00:00	7	Dirección del viento	17.7
3191	7	Sololá	701	Sololá	1	Sololá	1	Enero	2023-01-28T00:00:00	2024-11-08T09:00:00	1	Precipitación	0
3192	7	Sololá	701	Sololá	1	Sololá	1	Enero	2023-01-28T00:00:00	2024-11-08T09:00:00	8	Radiación solar	311
3193	7	Sololá	701	Sololá	1	Sololá	1	Enero	2023-01-28T00:00:00	2024-11-08T10:00:00	2	Temperatura media	16.9
3194	7	Sololá	701	Sololá	1	Sololá	1	Enero	2023-01-28T00:00:00	2024-11-08T10:00:00	4	Temperatura máxima	16.9
3195	7	Sololá	701	Sololá	1	Sololá	1	Enero	2023-01-28T00:00:00	2024-11-08T10:00:00	3	Temperatura mínima	15.6
3196	7	Sololá	701	Sololá	1	Sololá	1	Enero	2023-01-28T00:00:00	2024-11-08T10:00:00	5	Humedad	55
3197	7	Sololá	701	Sololá	1	Sololá	1	Enero	2023-01-28T00:00:00	2024-11-08T10:00:00	6	Velocidad del viento	17.7
3198	7	Sololá	701	Sololá	1	Sololá	1	Enero	2023-01-28T00:00:00	2024-11-08T10:00:00	7	Dirección del viento	17.7
3199	7	Sololá	701	Sololá	1	Sololá	1	Enero	2023-01-28T00:00:00	2024-11-08T10:00:00	1	Precipitación	0
3200	7	Sololá	701	Sololá	1	Sololá	1	Enero	2023-01-28T00:00:00	2024-11-08T10:00:00	8	Radiación solar	327
3201	7	Sololá	701	Sololá	1	Sololá	1	Enero	2023-01-28T00:00:00	2024-11-08T11:00:00	2	Temperatura media	18.2
3202	7	Sololá	701	Sololá	1	Sololá	1	Enero	2023-01-28T00:00:00	2024-11-08T11:00:00	4	Temperatura máxima	18.2
3203	7	Sololá	701	Sololá	1	Sololá	1	Enero	2023-01-28T00:00:00	2024-11-08T11:00:00	3	Temperatura mínima	16.9
3204	7	Sololá	701	Sololá	1	Sololá	1	Enero	2023-01-28T00:00:00	2024-11-08T11:00:00	5	Humedad	41
3205	7	Sololá	701	Sololá	1	Sololá	1	Enero	2023-01-28T00:00:00	2024-11-08T11:00:00	6	Velocidad del viento	22.5
3206	7	Sololá	701	Sololá	1	Sololá	1	Enero	2023-01-28T00:00:00	2024-11-08T11:00:00	7	Dirección del viento	22.53
3207	7	Sololá	701	Sololá	1	Sololá	1	Enero	2023-01-28T00:00:00	2024-11-08T11:00:00	1	Precipitación	0
3208	7	Sololá	701	Sololá	1	Sololá	1	Enero	2023-01-28T00:00:00	2024-11-08T11:00:00	8	Radiación solar	298
3209	7	Sololá	701	Sololá	1	Sololá	1	Enero	2023-01-28T00:00:00	2024-11-08T12:00:00	2	Temperatura media	19.7
3210	7	Sololá	701	Sololá	1	Sololá	1	Enero	2023-01-28T00:00:00	2024-11-08T12:00:00	4	Temperatura máxima	19.9
3211	7	Sololá	701	Sololá	1	Sololá	1	Enero	2023-01-28T00:00:00	2024-11-08T12:00:00	3	Temperatura mínima	18.2
3212	7	Sololá	701	Sololá	1	Sololá	1	Enero	2023-01-28T00:00:00	2024-11-08T12:00:00	5	Humedad	40
3213	7	Sololá	701	Sololá	1	Sololá	1	Enero	2023-01-28T00:00:00	2024-11-08T12:00:00	6	Velocidad del viento	14.5
3214	7	Sololá	701	Sololá	1	Sololá	1	Enero	2023-01-28T00:00:00	2024-11-08T12:00:00	7	Dirección del viento	14.48
3215	7	Sololá	701	Sololá	1	Sololá	1	Enero	2023-01-28T00:00:00	2024-11-08T12:00:00	1	Precipitación	0
3216	7	Sololá	701	Sololá	1	Sololá	1	Enero	2023-01-28T00:00:00	2024-11-08T12:00:00	8	Radiación solar	342
3217	7	Sololá	701	Sololá	1	Sololá	1	Enero	2023-01-28T00:00:00	2024-11-08T13:00:00	2	Temperatura media	20.7
3218	7	Sololá	701	Sololá	1	Sololá	1	Enero	2023-01-28T00:00:00	2024-11-08T13:00:00	4	Temperatura máxima	20.8
3219	7	Sololá	701	Sololá	1	Sololá	1	Enero	2023-01-28T00:00:00	2024-11-08T13:00:00	3	Temperatura mínima	19.4
3220	7	Sololá	701	Sololá	1	Sololá	1	Enero	2023-01-28T00:00:00	2024-11-08T13:00:00	5	Humedad	33
3221	7	Sololá	701	Sololá	1	Sololá	1	Enero	2023-01-28T00:00:00	2024-11-08T13:00:00	6	Velocidad del viento	12.9
3222	7	Sololá	701	Sololá	1	Sololá	1	Enero	2023-01-28T00:00:00	2024-11-08T13:00:00	7	Dirección del viento	12.87
3223	7	Sololá	701	Sololá	1	Sololá	1	Enero	2023-01-28T00:00:00	2024-11-08T13:00:00	1	Precipitación	0
3224	7	Sololá	701	Sololá	1	Sololá	1	Enero	2023-01-28T00:00:00	2024-11-08T13:00:00	8	Radiación solar	303
3225	7	Sololá	701	Sololá	1	Sololá	1	Enero	2023-01-28T00:00:00	2024-11-08T14:00:00	2	Temperatura media	22.3
3226	7	Sololá	701	Sololá	1	Sololá	1	Enero	2023-01-28T00:00:00	2024-11-08T14:00:00	4	Temperatura máxima	22.4
3227	7	Sololá	701	Sololá	1	Sololá	1	Enero	2023-01-28T00:00:00	2024-11-08T14:00:00	3	Temperatura mínima	20.7
3228	7	Sololá	701	Sololá	1	Sololá	1	Enero	2023-01-28T00:00:00	2024-11-08T14:00:00	5	Humedad	34
3229	7	Sololá	701	Sololá	1	Sololá	1	Enero	2023-01-28T00:00:00	2024-11-08T14:00:00	6	Velocidad del viento	6.4
3230	7	Sololá	701	Sololá	1	Sololá	1	Enero	2023-01-28T00:00:00	2024-11-08T14:00:00	7	Dirección del viento	6.44
3231	7	Sololá	701	Sololá	1	Sololá	1	Enero	2023-01-28T00:00:00	2024-11-08T14:00:00	1	Precipitación	0
3232	7	Sololá	701	Sololá	1	Sololá	1	Enero	2023-01-28T00:00:00	2024-11-08T14:00:00	8	Radiación solar	211
3233	7	Sololá	701	Sololá	1	Sololá	1	Enero	2023-01-28T00:00:00	2024-11-08T15:00:00	2	Temperatura media	21.5
3234	7	Sololá	701	Sololá	1	Sololá	1	Enero	2023-01-28T00:00:00	2024-11-08T15:00:00	4	Temperatura máxima	22.3
3235	7	Sololá	701	Sololá	1	Sololá	1	Enero	2023-01-28T00:00:00	2024-11-08T15:00:00	3	Temperatura mínima	21.4
3236	7	Sololá	701	Sololá	1	Sololá	1	Enero	2023-01-28T00:00:00	2024-11-08T15:00:00	5	Humedad	32
3237	7	Sololá	701	Sololá	1	Sololá	1	Enero	2023-01-28T00:00:00	2024-11-08T15:00:00	6	Velocidad del viento	8
3238	7	Sololá	701	Sololá	1	Sololá	1	Enero	2023-01-28T00:00:00	2024-11-08T15:00:00	7	Dirección del viento	8.05
3239	7	Sololá	701	Sololá	1	Sololá	1	Enero	2023-01-28T00:00:00	2024-11-08T15:00:00	1	Precipitación	0
3240	7	Sololá	701	Sololá	1	Sololá	1	Enero	2023-01-28T00:00:00	2024-11-08T15:00:00	8	Radiación solar	232
3241	7	Sololá	701	Sololá	1	Sololá	1	Enero	2023-01-28T00:00:00	2024-11-08T16:00:00	2	Temperatura media	20.6
3242	7	Sololá	701	Sololá	1	Sololá	1	Enero	2023-01-28T00:00:00	2024-11-08T16:00:00	4	Temperatura máxima	21.7
3243	7	Sololá	701	Sololá	1	Sololá	1	Enero	2023-01-28T00:00:00	2024-11-08T16:00:00	3	Temperatura mínima	20.5
3244	7	Sololá	701	Sololá	1	Sololá	1	Enero	2023-01-28T00:00:00	2024-11-08T16:00:00	5	Humedad	40
3245	7	Sololá	701	Sololá	1	Sololá	1	Enero	2023-01-28T00:00:00	2024-11-08T16:00:00	6	Velocidad del viento	11.3
3246	7	Sololá	701	Sololá	1	Sololá	1	Enero	2023-01-28T00:00:00	2024-11-08T16:00:00	7	Dirección del viento	11.27
3247	7	Sololá	701	Sololá	1	Sololá	1	Enero	2023-01-28T00:00:00	2024-11-08T16:00:00	1	Precipitación	0
3248	7	Sololá	701	Sololá	1	Sololá	1	Enero	2023-01-28T00:00:00	2024-11-08T16:00:00	8	Radiación solar	126
3249	7	Sololá	701	Sololá	1	Sololá	1	Enero	2023-01-28T00:00:00	2024-11-08T17:00:00	2	Temperatura media	18.8
3250	7	Sololá	701	Sololá	1	Sololá	1	Enero	2023-01-28T00:00:00	2024-11-08T17:00:00	4	Temperatura máxima	20.6
3251	7	Sololá	701	Sololá	1	Sololá	1	Enero	2023-01-28T00:00:00	2024-11-08T17:00:00	3	Temperatura mínima	18.8
3252	7	Sololá	701	Sololá	1	Sololá	1	Enero	2023-01-28T00:00:00	2024-11-08T17:00:00	5	Humedad	46
3253	7	Sololá	701	Sololá	1	Sololá	1	Enero	2023-01-28T00:00:00	2024-11-08T17:00:00	6	Velocidad del viento	12.9
3254	7	Sololá	701	Sololá	1	Sololá	1	Enero	2023-01-28T00:00:00	2024-11-08T17:00:00	7	Dirección del viento	12.87
3255	7	Sololá	701	Sololá	1	Sololá	1	Enero	2023-01-28T00:00:00	2024-11-08T17:00:00	1	Precipitación	0
3256	7	Sololá	701	Sololá	1	Sololá	1	Enero	2023-01-28T00:00:00	2024-11-08T17:00:00	8	Radiación solar	60
3257	7	Sololá	701	Sololá	1	Sololá	1	Enero	2023-01-28T00:00:00	2024-11-08T18:00:00	2	Temperatura media	16.4
3258	7	Sololá	701	Sololá	1	Sololá	1	Enero	2023-01-28T00:00:00	2024-11-08T18:00:00	4	Temperatura máxima	18.8
3259	7	Sololá	701	Sololá	1	Sololá	1	Enero	2023-01-28T00:00:00	2024-11-08T18:00:00	3	Temperatura mínima	16.4
3260	7	Sololá	701	Sololá	1	Sololá	1	Enero	2023-01-28T00:00:00	2024-11-08T18:00:00	5	Humedad	48
3261	7	Sololá	701	Sololá	1	Sololá	1	Enero	2023-01-28T00:00:00	2024-11-08T18:00:00	6	Velocidad del viento	12.9
3262	7	Sololá	701	Sololá	1	Sololá	1	Enero	2023-01-28T00:00:00	2024-11-08T18:00:00	7	Dirección del viento	12.87
3263	7	Sololá	701	Sololá	1	Sololá	1	Enero	2023-01-28T00:00:00	2024-11-08T18:00:00	1	Precipitación	0
3264	7	Sololá	701	Sololá	1	Sololá	1	Enero	2023-01-28T00:00:00	2024-11-08T18:00:00	8	Radiación solar	16
3265	7	Sololá	701	Sololá	1	Sololá	1	Enero	2023-01-28T00:00:00	2024-11-08T19:00:00	2	Temperatura media	14.8
3266	7	Sololá	701	Sololá	1	Sololá	1	Enero	2023-01-28T00:00:00	2024-11-08T19:00:00	4	Temperatura máxima	16.4
3267	7	Sololá	701	Sololá	1	Sololá	1	Enero	2023-01-28T00:00:00	2024-11-08T19:00:00	3	Temperatura mínima	14.8
3268	7	Sololá	701	Sololá	1	Sololá	1	Enero	2023-01-28T00:00:00	2024-11-08T19:00:00	5	Humedad	63
3269	7	Sololá	701	Sololá	1	Sololá	1	Enero	2023-01-28T00:00:00	2024-11-08T19:00:00	6	Velocidad del viento	17.7
3270	7	Sololá	701	Sololá	1	Sololá	1	Enero	2023-01-28T00:00:00	2024-11-08T19:00:00	7	Dirección del viento	17.7
3271	7	Sololá	701	Sololá	1	Sololá	1	Enero	2023-01-28T00:00:00	2024-11-08T19:00:00	1	Precipitación	0
3272	7	Sololá	701	Sololá	1	Sololá	1	Enero	2023-01-28T00:00:00	2024-11-08T19:00:00	8	Radiación solar	0
3273	7	Sololá	701	Sololá	1	Sololá	1	Enero	2023-01-28T00:00:00	2024-11-08T20:00:00	2	Temperatura media	13.9
3274	7	Sololá	701	Sololá	1	Sololá	1	Enero	2023-01-28T00:00:00	2024-11-08T20:00:00	4	Temperatura máxima	14.8
3275	7	Sololá	701	Sololá	1	Sololá	1	Enero	2023-01-28T00:00:00	2024-11-08T20:00:00	3	Temperatura mínima	13.9
3276	7	Sololá	701	Sololá	1	Sololá	1	Enero	2023-01-28T00:00:00	2024-11-08T20:00:00	5	Humedad	72
3277	7	Sololá	701	Sololá	1	Sololá	1	Enero	2023-01-28T00:00:00	2024-11-08T20:00:00	6	Velocidad del viento	20.9
3278	7	Sololá	701	Sololá	1	Sololá	1	Enero	2023-01-28T00:00:00	2024-11-08T20:00:00	7	Dirección del viento	20.92
3279	7	Sololá	701	Sololá	1	Sololá	1	Enero	2023-01-28T00:00:00	2024-11-08T20:00:00	1	Precipitación	0
3280	7	Sololá	701	Sololá	1	Sololá	1	Enero	2023-01-28T00:00:00	2024-11-08T20:00:00	8	Radiación solar	0
3281	7	Sololá	701	Sololá	1	Sololá	1	Enero	2023-01-28T00:00:00	2024-11-08T21:00:00	2	Temperatura media	13.7
3282	7	Sololá	701	Sololá	1	Sololá	1	Enero	2023-01-28T00:00:00	2024-11-08T21:00:00	4	Temperatura máxima	14.1
3283	7	Sololá	701	Sololá	1	Sololá	1	Enero	2023-01-28T00:00:00	2024-11-08T21:00:00	3	Temperatura mínima	13.7
3284	7	Sololá	701	Sololá	1	Sololá	1	Enero	2023-01-28T00:00:00	2024-11-08T21:00:00	5	Humedad	72
3285	7	Sololá	701	Sololá	1	Sololá	1	Enero	2023-01-28T00:00:00	2024-11-08T21:00:00	6	Velocidad del viento	22.5
3286	7	Sololá	701	Sololá	1	Sololá	1	Enero	2023-01-28T00:00:00	2024-11-08T21:00:00	7	Dirección del viento	22.53
3287	7	Sololá	701	Sololá	1	Sololá	1	Enero	2023-01-28T00:00:00	2024-11-08T21:00:00	1	Precipitación	0
3288	7	Sololá	701	Sololá	1	Sololá	1	Enero	2023-01-28T00:00:00	2024-11-08T21:00:00	8	Radiación solar	0
3289	7	Sololá	701	Sololá	1	Sololá	1	Enero	2023-01-28T00:00:00	2024-11-08T22:00:00	2	Temperatura media	13.4
3290	7	Sololá	701	Sololá	1	Sololá	1	Enero	2023-01-28T00:00:00	2024-11-08T22:00:00	4	Temperatura máxima	13.8
3291	7	Sololá	701	Sololá	1	Sololá	1	Enero	2023-01-28T00:00:00	2024-11-08T22:00:00	3	Temperatura mínima	13.3
3292	7	Sololá	701	Sololá	1	Sololá	1	Enero	2023-01-28T00:00:00	2024-11-08T22:00:00	5	Humedad	69
3293	7	Sololá	701	Sololá	1	Sololá	1	Enero	2023-01-28T00:00:00	2024-11-08T22:00:00	6	Velocidad del viento	17.7
3294	7	Sololá	701	Sololá	1	Sololá	1	Enero	2023-01-28T00:00:00	2024-11-08T22:00:00	7	Dirección del viento	17.7
3295	7	Sololá	701	Sololá	1	Sololá	1	Enero	2023-01-28T00:00:00	2024-11-08T22:00:00	1	Precipitación	0
3296	7	Sololá	701	Sololá	1	Sololá	1	Enero	2023-01-28T00:00:00	2024-11-08T22:00:00	8	Radiación solar	0
3297	7	Sololá	701	Sololá	1	Sololá	1	Enero	2023-01-28T00:00:00	2024-11-08T23:00:00	2	Temperatura media	13
3298	7	Sololá	701	Sololá	1	Sololá	1	Enero	2023-01-28T00:00:00	2024-11-08T23:00:00	4	Temperatura máxima	13.5
3299	7	Sololá	701	Sololá	1	Sololá	1	Enero	2023-01-28T00:00:00	2024-11-08T23:00:00	3	Temperatura mínima	12.9
3300	7	Sololá	701	Sololá	1	Sololá	1	Enero	2023-01-28T00:00:00	2024-11-08T23:00:00	5	Humedad	65
3301	7	Sololá	701	Sololá	1	Sololá	1	Enero	2023-01-28T00:00:00	2024-11-08T23:00:00	6	Velocidad del viento	16.1
3302	7	Sololá	701	Sololá	1	Sololá	1	Enero	2023-01-28T00:00:00	2024-11-08T23:00:00	7	Dirección del viento	16.09
3303	7	Sololá	701	Sololá	1	Sololá	1	Enero	2023-01-28T00:00:00	2024-11-08T23:00:00	1	Precipitación	0
3304	7	Sololá	701	Sololá	1	Sololá	1	Enero	2023-01-28T00:00:00	2024-11-08T23:00:00	8	Radiación solar	0
3305	7	Sololá	701	Sololá	1	Sololá	1	Enero	2023-01-29T00:00:00	2024-11-08T00:00:00	2	Temperatura media	14.5
3306	7	Sololá	701	Sololá	1	Sololá	1	Enero	2023-01-29T00:00:00	2024-11-08T00:00:00	4	Temperatura máxima	14.5
3307	7	Sololá	701	Sololá	1	Sololá	1	Enero	2023-01-29T00:00:00	2024-11-08T00:00:00	3	Temperatura mínima	13
3308	7	Sololá	701	Sololá	1	Sololá	1	Enero	2023-01-29T00:00:00	2024-11-08T00:00:00	5	Humedad	21
3309	7	Sololá	701	Sololá	1	Sololá	1	Enero	2023-01-29T00:00:00	2024-11-08T00:00:00	6	Velocidad del viento	16.1
3310	7	Sololá	701	Sololá	1	Sololá	1	Enero	2023-01-29T00:00:00	2024-11-08T00:00:00	7	Dirección del viento	16.09
3311	7	Sololá	701	Sololá	1	Sololá	1	Enero	2023-01-29T00:00:00	2024-11-08T00:00:00	1	Precipitación	0
3312	7	Sololá	701	Sololá	1	Sololá	1	Enero	2023-01-29T00:00:00	2024-11-08T00:00:00	8	Radiación solar	0
3313	7	Sololá	701	Sololá	1	Sololá	1	Enero	2023-01-29T00:00:00	2024-11-08T01:00:00	2	Temperatura media	14.4
3314	7	Sololá	701	Sololá	1	Sololá	1	Enero	2023-01-29T00:00:00	2024-11-08T01:00:00	4	Temperatura máxima	15
3315	7	Sololá	701	Sololá	1	Sololá	1	Enero	2023-01-29T00:00:00	2024-11-08T01:00:00	3	Temperatura mínima	14.4
3316	7	Sololá	701	Sololá	1	Sololá	1	Enero	2023-01-29T00:00:00	2024-11-08T01:00:00	5	Humedad	22
3317	7	Sololá	701	Sololá	1	Sololá	1	Enero	2023-01-29T00:00:00	2024-11-08T01:00:00	6	Velocidad del viento	11.3
3318	7	Sololá	701	Sololá	1	Sololá	1	Enero	2023-01-29T00:00:00	2024-11-08T01:00:00	7	Dirección del viento	11.27
3319	7	Sololá	701	Sololá	1	Sololá	1	Enero	2023-01-29T00:00:00	2024-11-08T01:00:00	1	Precipitación	0
3320	7	Sololá	701	Sololá	1	Sololá	1	Enero	2023-01-29T00:00:00	2024-11-08T01:00:00	8	Radiación solar	0
3321	7	Sololá	701	Sololá	1	Sololá	1	Enero	2023-01-29T00:00:00	2024-11-08T02:00:00	2	Temperatura media	13.9
3322	7	Sololá	701	Sololá	1	Sololá	1	Enero	2023-01-29T00:00:00	2024-11-08T02:00:00	4	Temperatura máxima	14.5
3323	7	Sololá	701	Sololá	1	Sololá	1	Enero	2023-01-29T00:00:00	2024-11-08T02:00:00	3	Temperatura mínima	13.4
3324	7	Sololá	701	Sololá	1	Sololá	1	Enero	2023-01-29T00:00:00	2024-11-08T02:00:00	5	Humedad	27
3325	7	Sololá	701	Sololá	1	Sololá	1	Enero	2023-01-29T00:00:00	2024-11-08T02:00:00	6	Velocidad del viento	8
3326	7	Sololá	701	Sololá	1	Sololá	1	Enero	2023-01-29T00:00:00	2024-11-08T02:00:00	7	Dirección del viento	8.05
3327	7	Sololá	701	Sololá	1	Sololá	1	Enero	2023-01-29T00:00:00	2024-11-08T02:00:00	1	Precipitación	0
3328	7	Sololá	701	Sololá	1	Sololá	1	Enero	2023-01-29T00:00:00	2024-11-08T02:00:00	8	Radiación solar	0
3329	7	Sololá	701	Sololá	1	Sololá	1	Enero	2023-01-29T00:00:00	2024-11-08T03:00:00	2	Temperatura media	11.9
3330	7	Sololá	701	Sololá	1	Sololá	1	Enero	2023-01-29T00:00:00	2024-11-08T03:00:00	4	Temperatura máxima	13.9
3331	7	Sololá	701	Sololá	1	Sololá	1	Enero	2023-01-29T00:00:00	2024-11-08T03:00:00	3	Temperatura mínima	11.3
3332	7	Sololá	701	Sololá	1	Sololá	1	Enero	2023-01-29T00:00:00	2024-11-08T03:00:00	5	Humedad	35
3333	7	Sololá	701	Sololá	1	Sololá	1	Enero	2023-01-29T00:00:00	2024-11-08T03:00:00	6	Velocidad del viento	8
3334	7	Sololá	701	Sololá	1	Sololá	1	Enero	2023-01-29T00:00:00	2024-11-08T03:00:00	7	Dirección del viento	8.05
3335	7	Sololá	701	Sololá	1	Sololá	1	Enero	2023-01-29T00:00:00	2024-11-08T03:00:00	1	Precipitación	0
3336	7	Sololá	701	Sololá	1	Sololá	1	Enero	2023-01-29T00:00:00	2024-11-08T03:00:00	8	Radiación solar	0
3337	7	Sololá	701	Sololá	1	Sololá	1	Enero	2023-01-29T00:00:00	2024-11-08T04:00:00	2	Temperatura media	12.3
3338	7	Sololá	701	Sololá	1	Sololá	1	Enero	2023-01-29T00:00:00	2024-11-08T04:00:00	4	Temperatura máxima	12.8
3339	7	Sololá	701	Sololá	1	Sololá	1	Enero	2023-01-29T00:00:00	2024-11-08T04:00:00	3	Temperatura mínima	11.8
3340	7	Sololá	701	Sololá	1	Sololá	1	Enero	2023-01-29T00:00:00	2024-11-08T04:00:00	5	Humedad	41
3341	7	Sololá	701	Sololá	1	Sololá	1	Enero	2023-01-29T00:00:00	2024-11-08T04:00:00	6	Velocidad del viento	11.3
3342	7	Sololá	701	Sololá	1	Sololá	1	Enero	2023-01-29T00:00:00	2024-11-08T04:00:00	7	Dirección del viento	11.27
3343	7	Sololá	701	Sololá	1	Sololá	1	Enero	2023-01-29T00:00:00	2024-11-08T04:00:00	1	Precipitación	0
3344	7	Sololá	701	Sololá	1	Sololá	1	Enero	2023-01-29T00:00:00	2024-11-08T04:00:00	8	Radiación solar	0
3345	7	Sololá	701	Sololá	1	Sololá	1	Enero	2023-01-29T00:00:00	2024-11-08T05:00:00	2	Temperatura media	12.1
3346	7	Sololá	701	Sololá	1	Sololá	1	Enero	2023-01-29T00:00:00	2024-11-08T05:00:00	4	Temperatura máxima	12.3
3347	7	Sololá	701	Sololá	1	Sololá	1	Enero	2023-01-29T00:00:00	2024-11-08T05:00:00	3	Temperatura mínima	11.9
3348	7	Sololá	701	Sololá	1	Sololá	1	Enero	2023-01-29T00:00:00	2024-11-08T05:00:00	5	Humedad	37
3349	7	Sololá	701	Sololá	1	Sololá	1	Enero	2023-01-29T00:00:00	2024-11-08T05:00:00	6	Velocidad del viento	9.7
3350	7	Sololá	701	Sololá	1	Sololá	1	Enero	2023-01-29T00:00:00	2024-11-08T05:00:00	7	Dirección del viento	9.66
3351	7	Sololá	701	Sololá	1	Sololá	1	Enero	2023-01-29T00:00:00	2024-11-08T05:00:00	1	Precipitación	0
3352	7	Sololá	701	Sololá	1	Sololá	1	Enero	2023-01-29T00:00:00	2024-11-08T05:00:00	8	Radiación solar	0
3353	7	Sololá	701	Sololá	1	Sololá	1	Enero	2023-01-29T00:00:00	2024-11-08T06:00:00	2	Temperatura media	11.7
3354	7	Sololá	701	Sololá	1	Sololá	1	Enero	2023-01-29T00:00:00	2024-11-08T06:00:00	4	Temperatura máxima	12.2
3355	7	Sololá	701	Sololá	1	Sololá	1	Enero	2023-01-29T00:00:00	2024-11-08T06:00:00	3	Temperatura mínima	11.6
3356	7	Sololá	701	Sololá	1	Sololá	1	Enero	2023-01-29T00:00:00	2024-11-08T06:00:00	5	Humedad	35
3357	7	Sololá	701	Sololá	1	Sololá	1	Enero	2023-01-29T00:00:00	2024-11-08T06:00:00	6	Velocidad del viento	9.7
3358	7	Sololá	701	Sololá	1	Sololá	1	Enero	2023-01-29T00:00:00	2024-11-08T06:00:00	7	Dirección del viento	9.66
3359	7	Sololá	701	Sololá	1	Sololá	1	Enero	2023-01-29T00:00:00	2024-11-08T06:00:00	1	Precipitación	0
3360	7	Sololá	701	Sololá	1	Sololá	1	Enero	2023-01-29T00:00:00	2024-11-08T06:00:00	8	Radiación solar	0
3361	7	Sololá	701	Sololá	1	Sololá	1	Enero	2023-01-29T00:00:00	2024-11-08T07:00:00	2	Temperatura media	12.3
3362	7	Sololá	701	Sololá	1	Sololá	1	Enero	2023-01-29T00:00:00	2024-11-08T07:00:00	4	Temperatura máxima	12.3
3363	7	Sololá	701	Sololá	1	Sololá	1	Enero	2023-01-29T00:00:00	2024-11-08T07:00:00	3	Temperatura mínima	11.2
3364	7	Sololá	701	Sololá	1	Sololá	1	Enero	2023-01-29T00:00:00	2024-11-08T07:00:00	5	Humedad	32
3365	7	Sololá	701	Sololá	1	Sololá	1	Enero	2023-01-29T00:00:00	2024-11-08T07:00:00	6	Velocidad del viento	6.4
3366	7	Sololá	701	Sololá	1	Sololá	1	Enero	2023-01-29T00:00:00	2024-11-08T07:00:00	7	Dirección del viento	6.44
3367	7	Sololá	701	Sololá	1	Sololá	1	Enero	2023-01-29T00:00:00	2024-11-08T07:00:00	1	Precipitación	0
3368	7	Sololá	701	Sololá	1	Sololá	1	Enero	2023-01-29T00:00:00	2024-11-08T07:00:00	8	Radiación solar	4
3369	7	Sololá	701	Sololá	1	Sololá	1	Enero	2023-01-29T00:00:00	2024-11-08T08:00:00	2	Temperatura media	14.1
3370	7	Sololá	701	Sololá	1	Sololá	1	Enero	2023-01-29T00:00:00	2024-11-08T08:00:00	4	Temperatura máxima	14.7
3371	7	Sololá	701	Sololá	1	Sololá	1	Enero	2023-01-29T00:00:00	2024-11-08T08:00:00	3	Temperatura mínima	12.3
3372	7	Sololá	701	Sololá	1	Sololá	1	Enero	2023-01-29T00:00:00	2024-11-08T08:00:00	5	Humedad	32
3373	7	Sololá	701	Sololá	1	Sololá	1	Enero	2023-01-29T00:00:00	2024-11-08T08:00:00	6	Velocidad del viento	8
3374	7	Sololá	701	Sololá	1	Sololá	1	Enero	2023-01-29T00:00:00	2024-11-08T08:00:00	7	Dirección del viento	8.05
3375	7	Sololá	701	Sololá	1	Sololá	1	Enero	2023-01-29T00:00:00	2024-11-08T08:00:00	1	Precipitación	0
3376	7	Sololá	701	Sololá	1	Sololá	1	Enero	2023-01-29T00:00:00	2024-11-08T08:00:00	8	Radiación solar	41
3377	7	Sololá	701	Sololá	1	Sololá	1	Enero	2023-01-29T00:00:00	2024-11-08T09:00:00	2	Temperatura media	17.2
3378	7	Sololá	701	Sololá	1	Sololá	1	Enero	2023-01-29T00:00:00	2024-11-08T09:00:00	4	Temperatura máxima	17.2
3379	7	Sololá	701	Sololá	1	Sololá	1	Enero	2023-01-29T00:00:00	2024-11-08T09:00:00	3	Temperatura mínima	14.1
3380	7	Sololá	701	Sololá	1	Sololá	1	Enero	2023-01-29T00:00:00	2024-11-08T09:00:00	5	Humedad	33
3381	7	Sololá	701	Sololá	1	Sololá	1	Enero	2023-01-29T00:00:00	2024-11-08T09:00:00	6	Velocidad del viento	8
3382	7	Sololá	701	Sololá	1	Sololá	1	Enero	2023-01-29T00:00:00	2024-11-08T09:00:00	7	Dirección del viento	8.05
3383	7	Sololá	701	Sololá	1	Sololá	1	Enero	2023-01-29T00:00:00	2024-11-08T09:00:00	1	Precipitación	0
3384	7	Sololá	701	Sololá	1	Sololá	1	Enero	2023-01-29T00:00:00	2024-11-08T09:00:00	8	Radiación solar	125
3385	7	Sololá	701	Sololá	1	Sololá	1	Enero	2023-01-29T00:00:00	2024-11-08T10:00:00	2	Temperatura media	19.7
3386	7	Sololá	701	Sololá	1	Sololá	1	Enero	2023-01-29T00:00:00	2024-11-08T10:00:00	4	Temperatura máxima	19.7
3387	7	Sololá	701	Sololá	1	Sololá	1	Enero	2023-01-29T00:00:00	2024-11-08T10:00:00	3	Temperatura mínima	17.2
3388	7	Sololá	701	Sololá	1	Sololá	1	Enero	2023-01-29T00:00:00	2024-11-08T10:00:00	5	Humedad	29
3389	7	Sololá	701	Sololá	1	Sololá	1	Enero	2023-01-29T00:00:00	2024-11-08T10:00:00	6	Velocidad del viento	9.7
3390	7	Sololá	701	Sololá	1	Sololá	1	Enero	2023-01-29T00:00:00	2024-11-08T10:00:00	7	Dirección del viento	9.66
3391	7	Sololá	701	Sololá	1	Sololá	1	Enero	2023-01-29T00:00:00	2024-11-08T10:00:00	1	Precipitación	0
3392	7	Sololá	701	Sololá	1	Sololá	1	Enero	2023-01-29T00:00:00	2024-11-08T10:00:00	8	Radiación solar	563
3393	7	Sololá	701	Sololá	1	Sololá	1	Enero	2023-01-29T00:00:00	2024-11-08T11:00:00	2	Temperatura media	19.7
3394	7	Sololá	701	Sololá	1	Sololá	1	Enero	2023-01-29T00:00:00	2024-11-08T11:00:00	4	Temperatura máxima	19.7
3395	7	Sololá	701	Sololá	1	Sololá	1	Enero	2023-01-29T00:00:00	2024-11-08T11:00:00	3	Temperatura mínima	19.2
3396	7	Sololá	701	Sololá	1	Sololá	1	Enero	2023-01-29T00:00:00	2024-11-08T11:00:00	5	Humedad	32
3397	7	Sololá	701	Sololá	1	Sololá	1	Enero	2023-01-29T00:00:00	2024-11-08T11:00:00	6	Velocidad del viento	11.3
3398	7	Sololá	701	Sololá	1	Sololá	1	Enero	2023-01-29T00:00:00	2024-11-08T11:00:00	7	Dirección del viento	11.27
3399	7	Sololá	701	Sololá	1	Sololá	1	Enero	2023-01-29T00:00:00	2024-11-08T11:00:00	1	Precipitación	0
3400	7	Sololá	701	Sololá	1	Sololá	1	Enero	2023-01-29T00:00:00	2024-11-08T11:00:00	8	Radiación solar	763
3401	7	Sololá	701	Sololá	1	Sololá	1	Enero	2023-01-29T00:00:00	2024-11-08T12:00:00	2	Temperatura media	21.3
3402	7	Sololá	701	Sololá	1	Sololá	1	Enero	2023-01-29T00:00:00	2024-11-08T12:00:00	4	Temperatura máxima	21.3
3403	7	Sololá	701	Sololá	1	Sololá	1	Enero	2023-01-29T00:00:00	2024-11-08T12:00:00	3	Temperatura mínima	19.7
3404	7	Sololá	701	Sololá	1	Sololá	1	Enero	2023-01-29T00:00:00	2024-11-08T12:00:00	5	Humedad	33
3405	7	Sololá	701	Sololá	1	Sololá	1	Enero	2023-01-29T00:00:00	2024-11-08T12:00:00	6	Velocidad del viento	9.7
3406	7	Sololá	701	Sololá	1	Sololá	1	Enero	2023-01-29T00:00:00	2024-11-08T12:00:00	7	Dirección del viento	9.66
3407	7	Sololá	701	Sololá	1	Sololá	1	Enero	2023-01-29T00:00:00	2024-11-08T12:00:00	1	Precipitación	0
3408	7	Sololá	701	Sololá	1	Sololá	1	Enero	2023-01-29T00:00:00	2024-11-08T12:00:00	8	Radiación solar	891
3409	7	Sololá	701	Sololá	1	Sololá	1	Enero	2023-01-29T00:00:00	2024-11-08T13:00:00	2	Temperatura media	22.6
3410	7	Sololá	701	Sololá	1	Sololá	1	Enero	2023-01-29T00:00:00	2024-11-08T13:00:00	4	Temperatura máxima	22.6
3411	7	Sololá	701	Sololá	1	Sololá	1	Enero	2023-01-29T00:00:00	2024-11-08T13:00:00	3	Temperatura mínima	21.1
3412	7	Sololá	701	Sololá	1	Sololá	1	Enero	2023-01-29T00:00:00	2024-11-08T13:00:00	5	Humedad	28
3413	7	Sololá	701	Sololá	1	Sololá	1	Enero	2023-01-29T00:00:00	2024-11-08T13:00:00	6	Velocidad del viento	8
3414	7	Sololá	701	Sololá	1	Sololá	1	Enero	2023-01-29T00:00:00	2024-11-08T13:00:00	7	Dirección del viento	8.05
3415	7	Sololá	701	Sololá	1	Sololá	1	Enero	2023-01-29T00:00:00	2024-11-08T13:00:00	1	Precipitación	0
3416	7	Sololá	701	Sololá	1	Sololá	1	Enero	2023-01-29T00:00:00	2024-11-08T13:00:00	8	Radiación solar	951
3417	7	Sololá	701	Sololá	1	Sololá	1	Enero	2023-01-29T00:00:00	2024-11-08T14:00:00	2	Temperatura media	21.8
3418	7	Sololá	701	Sololá	1	Sololá	1	Enero	2023-01-29T00:00:00	2024-11-08T14:00:00	4	Temperatura máxima	22.8
3419	7	Sololá	701	Sololá	1	Sololá	1	Enero	2023-01-29T00:00:00	2024-11-08T14:00:00	3	Temperatura mínima	21.8
3420	7	Sololá	701	Sololá	1	Sololá	1	Enero	2023-01-29T00:00:00	2024-11-08T14:00:00	5	Humedad	48
3421	7	Sololá	701	Sololá	1	Sololá	1	Enero	2023-01-29T00:00:00	2024-11-08T14:00:00	6	Velocidad del viento	8
3422	7	Sololá	701	Sololá	1	Sololá	1	Enero	2023-01-29T00:00:00	2024-11-08T14:00:00	7	Dirección del viento	8.05
3423	7	Sololá	701	Sololá	1	Sololá	1	Enero	2023-01-29T00:00:00	2024-11-08T14:00:00	1	Precipitación	0
3424	7	Sololá	701	Sololá	1	Sololá	1	Enero	2023-01-29T00:00:00	2024-11-08T14:00:00	8	Radiación solar	937
3425	7	Sololá	701	Sololá	1	Sololá	1	Enero	2023-01-29T00:00:00	2024-11-08T15:00:00	2	Temperatura media	20.6
3426	7	Sololá	701	Sololá	1	Sololá	1	Enero	2023-01-29T00:00:00	2024-11-08T15:00:00	4	Temperatura máxima	21.8
3427	7	Sololá	701	Sololá	1	Sololá	1	Enero	2023-01-29T00:00:00	2024-11-08T15:00:00	3	Temperatura mínima	20.2
3428	7	Sololá	701	Sololá	1	Sololá	1	Enero	2023-01-29T00:00:00	2024-11-08T15:00:00	5	Humedad	56
3429	7	Sololá	701	Sololá	1	Sololá	1	Enero	2023-01-29T00:00:00	2024-11-08T15:00:00	6	Velocidad del viento	8
3430	7	Sololá	701	Sololá	1	Sololá	1	Enero	2023-01-29T00:00:00	2024-11-08T15:00:00	7	Dirección del viento	8.05
3431	7	Sololá	701	Sololá	1	Sololá	1	Enero	2023-01-29T00:00:00	2024-11-08T15:00:00	1	Precipitación	0
3432	7	Sololá	701	Sololá	1	Sololá	1	Enero	2023-01-29T00:00:00	2024-11-08T15:00:00	8	Radiación solar	731
3433	7	Sololá	701	Sololá	1	Sololá	1	Enero	2023-01-29T00:00:00	2024-11-08T16:00:00	2	Temperatura media	19.6
3434	7	Sololá	701	Sololá	1	Sololá	1	Enero	2023-01-29T00:00:00	2024-11-08T16:00:00	4	Temperatura máxima	20.7
3435	7	Sololá	701	Sololá	1	Sololá	1	Enero	2023-01-29T00:00:00	2024-11-08T16:00:00	3	Temperatura mínima	19.6
3436	7	Sololá	701	Sololá	1	Sololá	1	Enero	2023-01-29T00:00:00	2024-11-08T16:00:00	5	Humedad	60
3437	7	Sololá	701	Sololá	1	Sololá	1	Enero	2023-01-29T00:00:00	2024-11-08T16:00:00	6	Velocidad del viento	6.4
3438	7	Sololá	701	Sololá	1	Sololá	1	Enero	2023-01-29T00:00:00	2024-11-08T16:00:00	7	Dirección del viento	6.44
3439	7	Sololá	701	Sololá	1	Sololá	1	Enero	2023-01-29T00:00:00	2024-11-08T16:00:00	1	Precipitación	0
3440	7	Sololá	701	Sololá	1	Sololá	1	Enero	2023-01-29T00:00:00	2024-11-08T16:00:00	8	Radiación solar	48
3441	7	Sololá	701	Sololá	1	Sololá	1	Enero	2023-01-29T00:00:00	2024-11-08T17:00:00	2	Temperatura media	19.6
3442	7	Sololá	701	Sololá	1	Sololá	1	Enero	2023-01-29T00:00:00	2024-11-08T17:00:00	4	Temperatura máxima	19.6
3443	7	Sololá	701	Sololá	1	Sololá	1	Enero	2023-01-29T00:00:00	2024-11-08T17:00:00	3	Temperatura mínima	19.1
3444	7	Sololá	701	Sololá	1	Sololá	1	Enero	2023-01-29T00:00:00	2024-11-08T17:00:00	5	Humedad	61
3445	7	Sololá	701	Sololá	1	Sololá	1	Enero	2023-01-29T00:00:00	2024-11-08T17:00:00	6	Velocidad del viento	4.8
3446	7	Sololá	701	Sololá	1	Sololá	1	Enero	2023-01-29T00:00:00	2024-11-08T17:00:00	7	Dirección del viento	4.83
3447	7	Sololá	701	Sololá	1	Sololá	1	Enero	2023-01-29T00:00:00	2024-11-08T17:00:00	1	Precipitación	0
3448	7	Sololá	701	Sololá	1	Sololá	1	Enero	2023-01-29T00:00:00	2024-11-08T17:00:00	8	Radiación solar	61
3449	7	Sololá	701	Sololá	1	Sololá	1	Enero	2023-01-29T00:00:00	2024-11-08T18:00:00	2	Temperatura media	17.4
3450	7	Sololá	701	Sololá	1	Sololá	1	Enero	2023-01-29T00:00:00	2024-11-08T18:00:00	4	Temperatura máxima	19.6
3451	7	Sololá	701	Sololá	1	Sololá	1	Enero	2023-01-29T00:00:00	2024-11-08T18:00:00	3	Temperatura mínima	17.3
3452	7	Sololá	701	Sololá	1	Sololá	1	Enero	2023-01-29T00:00:00	2024-11-08T18:00:00	5	Humedad	56
3453	7	Sololá	701	Sololá	1	Sololá	1	Enero	2023-01-29T00:00:00	2024-11-08T18:00:00	6	Velocidad del viento	3.2
3454	7	Sololá	701	Sololá	1	Sololá	1	Enero	2023-01-29T00:00:00	2024-11-08T18:00:00	7	Dirección del viento	3.22
3455	7	Sololá	701	Sololá	1	Sololá	1	Enero	2023-01-29T00:00:00	2024-11-08T18:00:00	1	Precipitación	0
3456	7	Sololá	701	Sololá	1	Sololá	1	Enero	2023-01-29T00:00:00	2024-11-08T18:00:00	8	Radiación solar	17
3457	7	Sololá	701	Sololá	1	Sololá	1	Enero	2023-01-29T00:00:00	2024-11-08T19:00:00	2	Temperatura media	15.6
3458	7	Sololá	701	Sololá	1	Sololá	1	Enero	2023-01-29T00:00:00	2024-11-08T19:00:00	4	Temperatura máxima	17.4
3459	7	Sololá	701	Sololá	1	Sololá	1	Enero	2023-01-29T00:00:00	2024-11-08T19:00:00	3	Temperatura mínima	15.6
3460	7	Sololá	701	Sololá	1	Sololá	1	Enero	2023-01-29T00:00:00	2024-11-08T19:00:00	5	Humedad	67
3461	7	Sololá	701	Sololá	1	Sololá	1	Enero	2023-01-29T00:00:00	2024-11-08T19:00:00	6	Velocidad del viento	12.9
3462	7	Sololá	701	Sololá	1	Sololá	1	Enero	2023-01-29T00:00:00	2024-11-08T19:00:00	7	Dirección del viento	12.87
3463	7	Sololá	701	Sololá	1	Sololá	1	Enero	2023-01-29T00:00:00	2024-11-08T19:00:00	1	Precipitación	0
3464	7	Sololá	701	Sololá	1	Sololá	1	Enero	2023-01-29T00:00:00	2024-11-08T19:00:00	8	Radiación solar	0
3465	7	Sololá	701	Sololá	1	Sololá	1	Enero	2023-01-29T00:00:00	2024-11-08T20:00:00	2	Temperatura media	14.6
3466	7	Sololá	701	Sololá	1	Sololá	1	Enero	2023-01-29T00:00:00	2024-11-08T20:00:00	4	Temperatura máxima	15.6
3467	7	Sololá	701	Sololá	1	Sololá	1	Enero	2023-01-29T00:00:00	2024-11-08T20:00:00	3	Temperatura mínima	14.6
3468	7	Sololá	701	Sololá	1	Sololá	1	Enero	2023-01-29T00:00:00	2024-11-08T20:00:00	5	Humedad	72
3469	7	Sololá	701	Sololá	1	Sololá	1	Enero	2023-01-29T00:00:00	2024-11-08T20:00:00	6	Velocidad del viento	12.9
3470	7	Sololá	701	Sololá	1	Sololá	1	Enero	2023-01-29T00:00:00	2024-11-08T20:00:00	7	Dirección del viento	12.87
3471	7	Sololá	701	Sololá	1	Sololá	1	Enero	2023-01-29T00:00:00	2024-11-08T20:00:00	1	Precipitación	0
3472	7	Sololá	701	Sololá	1	Sololá	1	Enero	2023-01-29T00:00:00	2024-11-08T20:00:00	8	Radiación solar	0
3473	7	Sololá	701	Sololá	1	Sololá	1	Enero	2023-01-29T00:00:00	2024-11-08T21:00:00	2	Temperatura media	13.7
3474	7	Sololá	701	Sololá	1	Sololá	1	Enero	2023-01-29T00:00:00	2024-11-08T21:00:00	4	Temperatura máxima	14.6
3475	7	Sololá	701	Sololá	1	Sololá	1	Enero	2023-01-29T00:00:00	2024-11-08T21:00:00	3	Temperatura mínima	13.7
3476	7	Sololá	701	Sololá	1	Sololá	1	Enero	2023-01-29T00:00:00	2024-11-08T21:00:00	5	Humedad	72
3477	7	Sololá	701	Sololá	1	Sololá	1	Enero	2023-01-29T00:00:00	2024-11-08T21:00:00	6	Velocidad del viento	11.3
3478	7	Sololá	701	Sololá	1	Sololá	1	Enero	2023-01-29T00:00:00	2024-11-08T21:00:00	7	Dirección del viento	11.27
3479	7	Sololá	701	Sololá	1	Sololá	1	Enero	2023-01-29T00:00:00	2024-11-08T21:00:00	1	Precipitación	0
3480	7	Sololá	701	Sololá	1	Sololá	1	Enero	2023-01-29T00:00:00	2024-11-08T21:00:00	8	Radiación solar	0
3481	7	Sololá	701	Sololá	1	Sololá	1	Enero	2023-01-29T00:00:00	2024-11-08T22:00:00	2	Temperatura media	10.3
3482	7	Sololá	701	Sololá	1	Sololá	1	Enero	2023-01-29T00:00:00	2024-11-08T22:00:00	4	Temperatura máxima	13.9
3483	7	Sololá	701	Sololá	1	Sololá	1	Enero	2023-01-29T00:00:00	2024-11-08T22:00:00	3	Temperatura mínima	10.3
3484	7	Sololá	701	Sololá	1	Sololá	1	Enero	2023-01-29T00:00:00	2024-11-08T22:00:00	5	Humedad	71
3485	7	Sololá	701	Sololá	1	Sololá	1	Enero	2023-01-29T00:00:00	2024-11-08T22:00:00	6	Velocidad del viento	8
3486	7	Sololá	701	Sololá	1	Sololá	1	Enero	2023-01-29T00:00:00	2024-11-08T22:00:00	7	Dirección del viento	8.05
3487	7	Sololá	701	Sololá	1	Sololá	1	Enero	2023-01-29T00:00:00	2024-11-08T22:00:00	1	Precipitación	0
3488	7	Sololá	701	Sololá	1	Sololá	1	Enero	2023-01-29T00:00:00	2024-11-08T22:00:00	8	Radiación solar	0
3489	7	Sololá	701	Sololá	1	Sololá	1	Enero	2023-01-29T00:00:00	2024-11-08T23:00:00	2	Temperatura media	9.7
3490	7	Sololá	701	Sololá	1	Sololá	1	Enero	2023-01-29T00:00:00	2024-11-08T23:00:00	4	Temperatura máxima	10.6
3491	7	Sololá	701	Sololá	1	Sololá	1	Enero	2023-01-29T00:00:00	2024-11-08T23:00:00	3	Temperatura mínima	9.7
3492	7	Sololá	701	Sololá	1	Sololá	1	Enero	2023-01-29T00:00:00	2024-11-08T23:00:00	5	Humedad	67
3493	7	Sololá	701	Sololá	1	Sololá	1	Enero	2023-01-29T00:00:00	2024-11-08T23:00:00	6	Velocidad del viento	9.7
3494	7	Sololá	701	Sololá	1	Sololá	1	Enero	2023-01-29T00:00:00	2024-11-08T23:00:00	7	Dirección del viento	9.66
3495	7	Sololá	701	Sololá	1	Sololá	1	Enero	2023-01-29T00:00:00	2024-11-08T23:00:00	1	Precipitación	0
3496	7	Sololá	701	Sololá	1	Sololá	1	Enero	2023-01-29T00:00:00	2024-11-08T23:00:00	8	Radiación solar	0
3497	7	Sololá	701	Sololá	1	Sololá	1	Enero	2023-01-30T00:00:00	2024-11-08T00:00:00	2	Temperatura media	9.8
3498	7	Sololá	701	Sololá	1	Sololá	1	Enero	2023-01-30T00:00:00	2024-11-08T00:00:00	4	Temperatura máxima	10.2
3499	7	Sololá	701	Sololá	1	Sololá	1	Enero	2023-01-30T00:00:00	2024-11-08T00:00:00	3	Temperatura mínima	9.7
3500	7	Sololá	701	Sololá	1	Sololá	1	Enero	2023-01-30T00:00:00	2024-11-08T00:00:00	5	Humedad	69
3501	7	Sololá	701	Sololá	1	Sololá	1	Enero	2023-01-30T00:00:00	2024-11-08T00:00:00	6	Velocidad del viento	6.4
3502	7	Sololá	701	Sololá	1	Sololá	1	Enero	2023-01-30T00:00:00	2024-11-08T00:00:00	7	Dirección del viento	6.44
3503	7	Sololá	701	Sololá	1	Sololá	1	Enero	2023-01-30T00:00:00	2024-11-08T00:00:00	1	Precipitación	0
3504	7	Sololá	701	Sololá	1	Sololá	1	Enero	2023-01-30T00:00:00	2024-11-08T00:00:00	8	Radiación solar	0
3505	7	Sololá	701	Sololá	1	Sololá	1	Enero	2023-01-30T00:00:00	2024-11-08T01:00:00	2	Temperatura media	9.9
3506	7	Sololá	701	Sololá	1	Sololá	1	Enero	2023-01-30T00:00:00	2024-11-08T01:00:00	4	Temperatura máxima	9.9
3507	7	Sololá	701	Sololá	1	Sololá	1	Enero	2023-01-30T00:00:00	2024-11-08T01:00:00	3	Temperatura mínima	9.3
3508	7	Sololá	701	Sololá	1	Sololá	1	Enero	2023-01-30T00:00:00	2024-11-08T01:00:00	5	Humedad	72
3509	7	Sololá	701	Sololá	1	Sololá	1	Enero	2023-01-30T00:00:00	2024-11-08T01:00:00	6	Velocidad del viento	6.4
3510	7	Sololá	701	Sololá	1	Sololá	1	Enero	2023-01-30T00:00:00	2024-11-08T01:00:00	7	Dirección del viento	6.44
3511	7	Sololá	701	Sololá	1	Sololá	1	Enero	2023-01-30T00:00:00	2024-11-08T01:00:00	1	Precipitación	0
3512	7	Sololá	701	Sololá	1	Sololá	1	Enero	2023-01-30T00:00:00	2024-11-08T01:00:00	8	Radiación solar	0
3513	7	Sololá	701	Sololá	1	Sololá	1	Enero	2023-01-30T00:00:00	2024-11-08T02:00:00	2	Temperatura media	11
3514	7	Sololá	701	Sololá	1	Sololá	1	Enero	2023-01-30T00:00:00	2024-11-08T02:00:00	4	Temperatura máxima	11.3
3515	7	Sololá	701	Sololá	1	Sololá	1	Enero	2023-01-30T00:00:00	2024-11-08T02:00:00	3	Temperatura mínima	9.9
3516	7	Sololá	701	Sololá	1	Sololá	1	Enero	2023-01-30T00:00:00	2024-11-08T02:00:00	5	Humedad	62
3517	7	Sololá	701	Sololá	1	Sololá	1	Enero	2023-01-30T00:00:00	2024-11-08T02:00:00	6	Velocidad del viento	6.4
3518	7	Sololá	701	Sololá	1	Sololá	1	Enero	2023-01-30T00:00:00	2024-11-08T02:00:00	7	Dirección del viento	6.44
3519	7	Sololá	701	Sololá	1	Sololá	1	Enero	2023-01-30T00:00:00	2024-11-08T02:00:00	1	Precipitación	0
3520	7	Sololá	701	Sololá	1	Sololá	1	Enero	2023-01-30T00:00:00	2024-11-08T02:00:00	8	Radiación solar	0
3521	7	Sololá	701	Sololá	1	Sololá	1	Enero	2023-01-30T00:00:00	2024-11-08T03:00:00	2	Temperatura media	10
3522	7	Sololá	701	Sololá	1	Sololá	1	Enero	2023-01-30T00:00:00	2024-11-08T03:00:00	4	Temperatura máxima	11
3523	7	Sololá	701	Sololá	1	Sololá	1	Enero	2023-01-30T00:00:00	2024-11-08T03:00:00	3	Temperatura mínima	9.1
3524	7	Sololá	701	Sololá	1	Sololá	1	Enero	2023-01-30T00:00:00	2024-11-08T03:00:00	5	Humedad	60
3525	7	Sololá	701	Sololá	1	Sololá	1	Enero	2023-01-30T00:00:00	2024-11-08T03:00:00	6	Velocidad del viento	6.4
3526	7	Sololá	701	Sololá	1	Sololá	1	Enero	2023-01-30T00:00:00	2024-11-08T03:00:00	7	Dirección del viento	6.44
3527	7	Sololá	701	Sololá	1	Sololá	1	Enero	2023-01-30T00:00:00	2024-11-08T03:00:00	1	Precipitación	0
3528	7	Sololá	701	Sololá	1	Sololá	1	Enero	2023-01-30T00:00:00	2024-11-08T03:00:00	8	Radiación solar	0
3529	7	Sololá	701	Sololá	1	Sololá	1	Enero	2023-01-30T00:00:00	2024-11-08T04:00:00	2	Temperatura media	12.2
3530	7	Sololá	701	Sololá	1	Sololá	1	Enero	2023-01-30T00:00:00	2024-11-08T04:00:00	4	Temperatura máxima	12.4
3531	7	Sololá	701	Sololá	1	Sololá	1	Enero	2023-01-30T00:00:00	2024-11-08T04:00:00	3	Temperatura mínima	10
3532	7	Sololá	701	Sololá	1	Sololá	1	Enero	2023-01-30T00:00:00	2024-11-08T04:00:00	5	Humedad	50
3533	7	Sololá	701	Sololá	1	Sololá	1	Enero	2023-01-30T00:00:00	2024-11-08T04:00:00	6	Velocidad del viento	6.4
3534	7	Sololá	701	Sololá	1	Sololá	1	Enero	2023-01-30T00:00:00	2024-11-08T04:00:00	7	Dirección del viento	6.44
3535	7	Sololá	701	Sololá	1	Sololá	1	Enero	2023-01-30T00:00:00	2024-11-08T04:00:00	1	Precipitación	0
3536	7	Sololá	701	Sololá	1	Sololá	1	Enero	2023-01-30T00:00:00	2024-11-08T04:00:00	8	Radiación solar	0
3537	7	Sololá	701	Sololá	1	Sololá	1	Enero	2023-01-30T00:00:00	2024-11-08T05:00:00	2	Temperatura media	10.3
3538	7	Sololá	701	Sololá	1	Sololá	1	Enero	2023-01-30T00:00:00	2024-11-08T05:00:00	4	Temperatura máxima	12.2
3539	7	Sololá	701	Sololá	1	Sololá	1	Enero	2023-01-30T00:00:00	2024-11-08T05:00:00	3	Temperatura mínima	10.2
3540	7	Sololá	701	Sololá	1	Sololá	1	Enero	2023-01-30T00:00:00	2024-11-08T05:00:00	5	Humedad	58
3541	7	Sololá	701	Sololá	1	Sololá	1	Enero	2023-01-30T00:00:00	2024-11-08T05:00:00	6	Velocidad del viento	3.2
3542	7	Sololá	701	Sololá	1	Sololá	1	Enero	2023-01-30T00:00:00	2024-11-08T05:00:00	7	Dirección del viento	3.22
3543	7	Sololá	701	Sololá	1	Sololá	1	Enero	2023-01-30T00:00:00	2024-11-08T05:00:00	1	Precipitación	0
3544	7	Sololá	701	Sololá	1	Sololá	1	Enero	2023-01-30T00:00:00	2024-11-08T05:00:00	8	Radiación solar	0
3545	7	Sololá	701	Sololá	1	Sololá	1	Enero	2023-01-30T00:00:00	2024-11-08T06:00:00	2	Temperatura media	9.3
3546	7	Sololá	701	Sololá	1	Sololá	1	Enero	2023-01-30T00:00:00	2024-11-08T06:00:00	4	Temperatura máxima	10.3
3547	7	Sololá	701	Sololá	1	Sololá	1	Enero	2023-01-30T00:00:00	2024-11-08T06:00:00	3	Temperatura mínima	9.2
3548	7	Sololá	701	Sololá	1	Sololá	1	Enero	2023-01-30T00:00:00	2024-11-08T06:00:00	5	Humedad	63
3549	7	Sololá	701	Sololá	1	Sololá	1	Enero	2023-01-30T00:00:00	2024-11-08T06:00:00	6	Velocidad del viento	1.6
3550	7	Sololá	701	Sololá	1	Sololá	1	Enero	2023-01-30T00:00:00	2024-11-08T06:00:00	7	Dirección del viento	1.61
3551	7	Sololá	701	Sololá	1	Sololá	1	Enero	2023-01-30T00:00:00	2024-11-08T06:00:00	1	Precipitación	0
3552	7	Sololá	701	Sololá	1	Sololá	1	Enero	2023-01-30T00:00:00	2024-11-08T06:00:00	8	Radiación solar	0
3553	7	Sololá	701	Sololá	1	Sololá	1	Enero	2023-01-30T00:00:00	2024-11-08T07:00:00	2	Temperatura media	8.8
3554	7	Sololá	701	Sololá	1	Sololá	1	Enero	2023-01-30T00:00:00	2024-11-08T07:00:00	4	Temperatura máxima	9.3
3555	7	Sololá	701	Sololá	1	Sololá	1	Enero	2023-01-30T00:00:00	2024-11-08T07:00:00	3	Temperatura mínima	8.6
3556	7	Sololá	701	Sololá	1	Sololá	1	Enero	2023-01-30T00:00:00	2024-11-08T07:00:00	5	Humedad	65
3557	7	Sololá	701	Sololá	1	Sololá	1	Enero	2023-01-30T00:00:00	2024-11-08T07:00:00	6	Velocidad del viento	3.2
3558	7	Sololá	701	Sololá	1	Sololá	1	Enero	2023-01-30T00:00:00	2024-11-08T07:00:00	7	Dirección del viento	3.22
3559	7	Sololá	701	Sololá	1	Sololá	1	Enero	2023-01-30T00:00:00	2024-11-08T07:00:00	1	Precipitación	0
3560	7	Sololá	701	Sololá	1	Sololá	1	Enero	2023-01-30T00:00:00	2024-11-08T07:00:00	8	Radiación solar	8
3561	7	Sololá	701	Sololá	1	Sololá	1	Enero	2023-01-30T00:00:00	2024-11-08T08:00:00	2	Temperatura media	13.9
3562	7	Sololá	701	Sololá	1	Sololá	1	Enero	2023-01-30T00:00:00	2024-11-08T08:00:00	4	Temperatura máxima	13.9
3563	7	Sololá	701	Sololá	1	Sololá	1	Enero	2023-01-30T00:00:00	2024-11-08T08:00:00	3	Temperatura mínima	8.8
3564	7	Sololá	701	Sololá	1	Sololá	1	Enero	2023-01-30T00:00:00	2024-11-08T08:00:00	5	Humedad	51
3565	7	Sololá	701	Sololá	1	Sololá	1	Enero	2023-01-30T00:00:00	2024-11-08T08:00:00	6	Velocidad del viento	1.6
3566	7	Sololá	701	Sololá	1	Sololá	1	Enero	2023-01-30T00:00:00	2024-11-08T08:00:00	7	Dirección del viento	1.61
3567	7	Sololá	701	Sololá	1	Sololá	1	Enero	2023-01-30T00:00:00	2024-11-08T08:00:00	1	Precipitación	0
3568	7	Sololá	701	Sololá	1	Sololá	1	Enero	2023-01-30T00:00:00	2024-11-08T08:00:00	8	Radiación solar	177
3569	7	Sololá	701	Sololá	1	Sololá	1	Enero	2023-01-30T00:00:00	2024-11-08T09:00:00	2	Temperatura media	16.7
3570	7	Sololá	701	Sololá	1	Sololá	1	Enero	2023-01-30T00:00:00	2024-11-08T09:00:00	4	Temperatura máxima	16.7
3571	7	Sololá	701	Sololá	1	Sololá	1	Enero	2023-01-30T00:00:00	2024-11-08T09:00:00	3	Temperatura mínima	13.9
3572	7	Sololá	701	Sololá	1	Sololá	1	Enero	2023-01-30T00:00:00	2024-11-08T09:00:00	5	Humedad	57
3573	7	Sololá	701	Sololá	1	Sololá	1	Enero	2023-01-30T00:00:00	2024-11-08T09:00:00	6	Velocidad del viento	1.6
3574	7	Sololá	701	Sololá	1	Sololá	1	Enero	2023-01-30T00:00:00	2024-11-08T09:00:00	7	Dirección del viento	1.61
3575	7	Sololá	701	Sololá	1	Sololá	1	Enero	2023-01-30T00:00:00	2024-11-08T09:00:00	1	Precipitación	0
3576	7	Sololá	701	Sololá	1	Sololá	1	Enero	2023-01-30T00:00:00	2024-11-08T09:00:00	8	Radiación solar	493
3577	7	Sololá	701	Sololá	1	Sololá	1	Enero	2023-01-30T00:00:00	2024-11-08T10:00:00	2	Temperatura media	17.4
3578	7	Sololá	701	Sololá	1	Sololá	1	Enero	2023-01-30T00:00:00	2024-11-08T10:00:00	4	Temperatura máxima	17.6
3579	7	Sololá	701	Sololá	1	Sololá	1	Enero	2023-01-30T00:00:00	2024-11-08T10:00:00	3	Temperatura mínima	16.3
3580	7	Sololá	701	Sololá	1	Sololá	1	Enero	2023-01-30T00:00:00	2024-11-08T10:00:00	5	Humedad	58
3581	7	Sololá	701	Sololá	1	Sololá	1	Enero	2023-01-30T00:00:00	2024-11-08T10:00:00	6	Velocidad del viento	4.8
3582	7	Sololá	701	Sololá	1	Sololá	1	Enero	2023-01-30T00:00:00	2024-11-08T10:00:00	7	Dirección del viento	4.83
3583	7	Sololá	701	Sololá	1	Sololá	1	Enero	2023-01-30T00:00:00	2024-11-08T10:00:00	1	Precipitación	0
3584	7	Sololá	701	Sololá	1	Sololá	1	Enero	2023-01-30T00:00:00	2024-11-08T10:00:00	8	Radiación solar	680
3585	7	Sololá	701	Sololá	1	Sololá	1	Enero	2023-01-30T00:00:00	2024-11-08T11:00:00	2	Temperatura media	19.1
3586	7	Sololá	701	Sololá	1	Sololá	1	Enero	2023-01-30T00:00:00	2024-11-08T11:00:00	4	Temperatura máxima	19.1
3587	7	Sololá	701	Sololá	1	Sololá	1	Enero	2023-01-30T00:00:00	2024-11-08T11:00:00	3	Temperatura mínima	17.4
3588	7	Sololá	701	Sololá	1	Sololá	1	Enero	2023-01-30T00:00:00	2024-11-08T11:00:00	5	Humedad	52
3589	7	Sololá	701	Sololá	1	Sololá	1	Enero	2023-01-30T00:00:00	2024-11-08T11:00:00	6	Velocidad del viento	4.8
3590	7	Sololá	701	Sololá	1	Sololá	1	Enero	2023-01-30T00:00:00	2024-11-08T11:00:00	7	Dirección del viento	4.83
3591	7	Sololá	701	Sololá	1	Sololá	1	Enero	2023-01-30T00:00:00	2024-11-08T11:00:00	1	Precipitación	0
3592	7	Sololá	701	Sololá	1	Sololá	1	Enero	2023-01-30T00:00:00	2024-11-08T11:00:00	8	Radiación solar	812
3593	7	Sololá	701	Sololá	1	Sololá	1	Enero	2023-01-30T00:00:00	2024-11-08T12:00:00	2	Temperatura media	20.3
3594	7	Sololá	701	Sololá	1	Sololá	1	Enero	2023-01-30T00:00:00	2024-11-08T12:00:00	4	Temperatura máxima	20.3
3595	7	Sololá	701	Sololá	1	Sololá	1	Enero	2023-01-30T00:00:00	2024-11-08T12:00:00	3	Temperatura mínima	19.1
3596	7	Sololá	701	Sololá	1	Sololá	1	Enero	2023-01-30T00:00:00	2024-11-08T12:00:00	5	Humedad	47
3597	7	Sololá	701	Sololá	1	Sololá	1	Enero	2023-01-30T00:00:00	2024-11-08T12:00:00	6	Velocidad del viento	6.4
3598	7	Sololá	701	Sololá	1	Sololá	1	Enero	2023-01-30T00:00:00	2024-11-08T12:00:00	7	Dirección del viento	6.44
3599	7	Sololá	701	Sololá	1	Sololá	1	Enero	2023-01-30T00:00:00	2024-11-08T12:00:00	1	Precipitación	0
3600	7	Sololá	701	Sololá	1	Sololá	1	Enero	2023-01-30T00:00:00	2024-11-08T12:00:00	8	Radiación solar	883
3601	7	Sololá	701	Sololá	1	Sololá	1	Enero	2023-01-30T00:00:00	2024-11-08T13:00:00	2	Temperatura media	20.5
3602	7	Sololá	701	Sololá	1	Sololá	1	Enero	2023-01-30T00:00:00	2024-11-08T13:00:00	4	Temperatura máxima	20.7
3603	7	Sololá	701	Sololá	1	Sololá	1	Enero	2023-01-30T00:00:00	2024-11-08T13:00:00	3	Temperatura mínima	20
3604	7	Sololá	701	Sololá	1	Sololá	1	Enero	2023-01-30T00:00:00	2024-11-08T13:00:00	5	Humedad	53
3605	7	Sololá	701	Sololá	1	Sololá	1	Enero	2023-01-30T00:00:00	2024-11-08T13:00:00	6	Velocidad del viento	8
3606	7	Sololá	701	Sololá	1	Sololá	1	Enero	2023-01-30T00:00:00	2024-11-08T13:00:00	7	Dirección del viento	8.05
3607	7	Sololá	701	Sololá	1	Sololá	1	Enero	2023-01-30T00:00:00	2024-11-08T13:00:00	1	Precipitación	0
3608	7	Sololá	701	Sololá	1	Sololá	1	Enero	2023-01-30T00:00:00	2024-11-08T13:00:00	8	Radiación solar	847
3609	7	Sololá	701	Sololá	1	Sololá	1	Enero	2023-01-30T00:00:00	2024-11-08T14:00:00	2	Temperatura media	20.4
3610	7	Sololá	701	Sololá	1	Sololá	1	Enero	2023-01-30T00:00:00	2024-11-08T14:00:00	4	Temperatura máxima	20.8
3611	7	Sololá	701	Sololá	1	Sololá	1	Enero	2023-01-30T00:00:00	2024-11-08T14:00:00	3	Temperatura mínima	20.3
3612	7	Sololá	701	Sololá	1	Sololá	1	Enero	2023-01-30T00:00:00	2024-11-08T14:00:00	5	Humedad	58
3613	7	Sololá	701	Sololá	1	Sololá	1	Enero	2023-01-30T00:00:00	2024-11-08T14:00:00	6	Velocidad del viento	8
3614	7	Sololá	701	Sololá	1	Sololá	1	Enero	2023-01-30T00:00:00	2024-11-08T14:00:00	7	Dirección del viento	8.05
3615	7	Sololá	701	Sololá	1	Sololá	1	Enero	2023-01-30T00:00:00	2024-11-08T14:00:00	1	Precipitación	0
3616	7	Sololá	701	Sololá	1	Sololá	1	Enero	2023-01-30T00:00:00	2024-11-08T14:00:00	8	Radiación solar	199
3617	7	Sololá	701	Sololá	1	Sololá	1	Enero	2023-01-30T00:00:00	2024-11-08T15:00:00	2	Temperatura media	20.4
3618	7	Sololá	701	Sololá	1	Sololá	1	Enero	2023-01-30T00:00:00	2024-11-08T15:00:00	4	Temperatura máxima	20.8
3619	7	Sololá	701	Sololá	1	Sololá	1	Enero	2023-01-30T00:00:00	2024-11-08T15:00:00	3	Temperatura mínima	20.3
3620	7	Sololá	701	Sololá	1	Sololá	1	Enero	2023-01-30T00:00:00	2024-11-08T15:00:00	5	Humedad	62
3621	7	Sololá	701	Sololá	1	Sololá	1	Enero	2023-01-30T00:00:00	2024-11-08T15:00:00	6	Velocidad del viento	6.4
3622	7	Sololá	701	Sololá	1	Sololá	1	Enero	2023-01-30T00:00:00	2024-11-08T15:00:00	7	Dirección del viento	6.44
3623	7	Sololá	701	Sololá	1	Sololá	1	Enero	2023-01-30T00:00:00	2024-11-08T15:00:00	1	Precipitación	0
3624	7	Sololá	701	Sololá	1	Sololá	1	Enero	2023-01-30T00:00:00	2024-11-08T15:00:00	8	Radiación solar	416
3625	7	Sololá	701	Sololá	1	Sololá	1	Enero	2023-01-30T00:00:00	2024-11-08T16:00:00	2	Temperatura media	19.8
3626	7	Sololá	701	Sololá	1	Sololá	1	Enero	2023-01-30T00:00:00	2024-11-08T16:00:00	4	Temperatura máxima	20.4
3627	7	Sololá	701	Sololá	1	Sololá	1	Enero	2023-01-30T00:00:00	2024-11-08T16:00:00	3	Temperatura mínima	19.7
3628	7	Sololá	701	Sololá	1	Sololá	1	Enero	2023-01-30T00:00:00	2024-11-08T16:00:00	5	Humedad	65
3629	7	Sololá	701	Sololá	1	Sololá	1	Enero	2023-01-30T00:00:00	2024-11-08T16:00:00	6	Velocidad del viento	6.4
3630	7	Sololá	701	Sololá	1	Sololá	1	Enero	2023-01-30T00:00:00	2024-11-08T16:00:00	7	Dirección del viento	6.44
3631	7	Sololá	701	Sololá	1	Sololá	1	Enero	2023-01-30T00:00:00	2024-11-08T16:00:00	1	Precipitación	0
3632	7	Sololá	701	Sololá	1	Sololá	1	Enero	2023-01-30T00:00:00	2024-11-08T16:00:00	8	Radiación solar	149
3633	7	Sololá	701	Sololá	1	Sololá	1	Enero	2023-01-30T00:00:00	2024-11-08T17:00:00	2	Temperatura media	19.1
3634	7	Sololá	701	Sololá	1	Sololá	1	Enero	2023-01-30T00:00:00	2024-11-08T17:00:00	4	Temperatura máxima	20
3635	7	Sololá	701	Sololá	1	Sololá	1	Enero	2023-01-30T00:00:00	2024-11-08T17:00:00	3	Temperatura mínima	19
3636	7	Sololá	701	Sololá	1	Sololá	1	Enero	2023-01-30T00:00:00	2024-11-08T17:00:00	5	Humedad	69
3637	7	Sololá	701	Sololá	1	Sololá	1	Enero	2023-01-30T00:00:00	2024-11-08T17:00:00	6	Velocidad del viento	4.8
3638	7	Sololá	701	Sololá	1	Sololá	1	Enero	2023-01-30T00:00:00	2024-11-08T17:00:00	7	Dirección del viento	4.83
3639	7	Sololá	701	Sololá	1	Sololá	1	Enero	2023-01-30T00:00:00	2024-11-08T17:00:00	1	Precipitación	0
3640	7	Sololá	701	Sololá	1	Sololá	1	Enero	2023-01-30T00:00:00	2024-11-08T17:00:00	8	Radiación solar	64
3641	7	Sololá	701	Sololá	1	Sololá	1	Enero	2023-01-30T00:00:00	2024-11-08T18:00:00	2	Temperatura media	16.6
3642	7	Sololá	701	Sololá	1	Sololá	1	Enero	2023-01-30T00:00:00	2024-11-08T18:00:00	4	Temperatura máxima	19.1
3643	7	Sololá	701	Sololá	1	Sololá	1	Enero	2023-01-30T00:00:00	2024-11-08T18:00:00	3	Temperatura mínima	16.6
3644	7	Sololá	701	Sololá	1	Sololá	1	Enero	2023-01-30T00:00:00	2024-11-08T18:00:00	5	Humedad	77
3645	7	Sololá	701	Sololá	1	Sololá	1	Enero	2023-01-30T00:00:00	2024-11-08T18:00:00	6	Velocidad del viento	3.2
3646	7	Sololá	701	Sololá	1	Sololá	1	Enero	2023-01-30T00:00:00	2024-11-08T18:00:00	7	Dirección del viento	3.22
3647	7	Sololá	701	Sololá	1	Sololá	1	Enero	2023-01-30T00:00:00	2024-11-08T18:00:00	1	Precipitación	0
3648	7	Sololá	701	Sololá	1	Sololá	1	Enero	2023-01-30T00:00:00	2024-11-08T18:00:00	8	Radiación solar	9
3649	7	Sololá	701	Sololá	1	Sololá	1	Enero	2023-01-30T00:00:00	2024-11-08T19:00:00	2	Temperatura media	15.6
3650	7	Sololá	701	Sololá	1	Sololá	1	Enero	2023-01-30T00:00:00	2024-11-08T19:00:00	4	Temperatura máxima	16.6
3651	7	Sololá	701	Sololá	1	Sololá	1	Enero	2023-01-30T00:00:00	2024-11-08T19:00:00	3	Temperatura mínima	15.6
3652	7	Sololá	701	Sololá	1	Sololá	1	Enero	2023-01-30T00:00:00	2024-11-08T19:00:00	5	Humedad	70
3653	7	Sololá	701	Sololá	1	Sololá	1	Enero	2023-01-30T00:00:00	2024-11-08T19:00:00	6	Velocidad del viento	0
3654	7	Sololá	701	Sololá	1	Sololá	1	Enero	2023-01-30T00:00:00	2024-11-08T19:00:00	7	Dirección del viento	0
3655	7	Sololá	701	Sololá	1	Sololá	1	Enero	2023-01-30T00:00:00	2024-11-08T19:00:00	1	Precipitación	0
3656	7	Sololá	701	Sololá	1	Sololá	1	Enero	2023-01-30T00:00:00	2024-11-08T19:00:00	8	Radiación solar	0
3657	7	Sololá	701	Sololá	1	Sololá	1	Enero	2023-01-30T00:00:00	2024-11-08T20:00:00	2	Temperatura media	15.1
3658	7	Sololá	701	Sololá	1	Sololá	1	Enero	2023-01-30T00:00:00	2024-11-08T20:00:00	4	Temperatura máxima	16
3659	7	Sololá	701	Sololá	1	Sololá	1	Enero	2023-01-30T00:00:00	2024-11-08T20:00:00	3	Temperatura mínima	15.1
3660	7	Sololá	701	Sololá	1	Sololá	1	Enero	2023-01-30T00:00:00	2024-11-08T20:00:00	5	Humedad	72
3661	7	Sololá	701	Sololá	1	Sololá	1	Enero	2023-01-30T00:00:00	2024-11-08T20:00:00	6	Velocidad del viento	8
3662	7	Sololá	701	Sololá	1	Sololá	1	Enero	2023-01-30T00:00:00	2024-11-08T20:00:00	7	Dirección del viento	8.05
3663	7	Sololá	701	Sololá	1	Sololá	1	Enero	2023-01-30T00:00:00	2024-11-08T20:00:00	1	Precipitación	0
3664	7	Sololá	701	Sololá	1	Sololá	1	Enero	2023-01-30T00:00:00	2024-11-08T20:00:00	8	Radiación solar	0
3665	7	Sololá	701	Sololá	1	Sololá	1	Enero	2023-01-30T00:00:00	2024-11-08T21:00:00	2	Temperatura media	14.7
3666	7	Sololá	701	Sololá	1	Sololá	1	Enero	2023-01-30T00:00:00	2024-11-08T21:00:00	4	Temperatura máxima	15.1
3667	7	Sololá	701	Sololá	1	Sololá	1	Enero	2023-01-30T00:00:00	2024-11-08T21:00:00	3	Temperatura mínima	14.6
3668	7	Sololá	701	Sololá	1	Sololá	1	Enero	2023-01-30T00:00:00	2024-11-08T21:00:00	5	Humedad	75
3669	7	Sololá	701	Sololá	1	Sololá	1	Enero	2023-01-30T00:00:00	2024-11-08T21:00:00	6	Velocidad del viento	9.7
3670	7	Sololá	701	Sololá	1	Sololá	1	Enero	2023-01-30T00:00:00	2024-11-08T21:00:00	7	Dirección del viento	9.66
3671	7	Sololá	701	Sololá	1	Sololá	1	Enero	2023-01-30T00:00:00	2024-11-08T21:00:00	1	Precipitación	0
3672	7	Sololá	701	Sololá	1	Sololá	1	Enero	2023-01-30T00:00:00	2024-11-08T21:00:00	8	Radiación solar	0
3673	7	Sololá	701	Sololá	1	Sololá	1	Enero	2023-01-30T00:00:00	2024-11-08T22:00:00	2	Temperatura media	14.3
3674	7	Sololá	701	Sololá	1	Sololá	1	Enero	2023-01-30T00:00:00	2024-11-08T22:00:00	4	Temperatura máxima	14.8
3675	7	Sololá	701	Sololá	1	Sololá	1	Enero	2023-01-30T00:00:00	2024-11-08T22:00:00	3	Temperatura mínima	14.3
3676	7	Sololá	701	Sololá	1	Sololá	1	Enero	2023-01-30T00:00:00	2024-11-08T22:00:00	5	Humedad	70
3677	7	Sololá	701	Sololá	1	Sololá	1	Enero	2023-01-30T00:00:00	2024-11-08T22:00:00	6	Velocidad del viento	9.7
3678	7	Sololá	701	Sololá	1	Sololá	1	Enero	2023-01-30T00:00:00	2024-11-08T22:00:00	7	Dirección del viento	9.66
3679	7	Sololá	701	Sololá	1	Sololá	1	Enero	2023-01-30T00:00:00	2024-11-08T22:00:00	1	Precipitación	0
3680	7	Sololá	701	Sololá	1	Sololá	1	Enero	2023-01-30T00:00:00	2024-11-08T22:00:00	8	Radiación solar	0
3681	7	Sololá	701	Sololá	1	Sololá	1	Enero	2023-01-30T00:00:00	2024-11-08T23:00:00	2	Temperatura media	13.8
3682	7	Sololá	701	Sololá	1	Sololá	1	Enero	2023-01-30T00:00:00	2024-11-08T23:00:00	4	Temperatura máxima	14.3
3683	7	Sololá	701	Sololá	1	Sololá	1	Enero	2023-01-30T00:00:00	2024-11-08T23:00:00	3	Temperatura mínima	13.8
3684	7	Sololá	701	Sololá	1	Sololá	1	Enero	2023-01-30T00:00:00	2024-11-08T23:00:00	5	Humedad	74
3685	7	Sololá	701	Sololá	1	Sololá	1	Enero	2023-01-30T00:00:00	2024-11-08T23:00:00	6	Velocidad del viento	11.3
3686	7	Sololá	701	Sololá	1	Sololá	1	Enero	2023-01-30T00:00:00	2024-11-08T23:00:00	7	Dirección del viento	11.27
3687	7	Sololá	701	Sololá	1	Sololá	1	Enero	2023-01-30T00:00:00	2024-11-08T23:00:00	1	Precipitación	0
3688	7	Sololá	701	Sololá	1	Sololá	1	Enero	2023-01-30T00:00:00	2024-11-08T23:00:00	8	Radiación solar	0
3689	7	Sololá	701	Sololá	1	Sololá	1	Enero	2023-01-31T00:00:00	2024-11-08T00:00:00	2	Temperatura media	13.1
3690	7	Sololá	701	Sololá	1	Sololá	1	Enero	2023-01-31T00:00:00	2024-11-08T00:00:00	4	Temperatura máxima	13.8
3691	7	Sololá	701	Sololá	1	Sololá	1	Enero	2023-01-31T00:00:00	2024-11-08T00:00:00	3	Temperatura mínima	13.1
3692	7	Sololá	701	Sololá	1	Sololá	1	Enero	2023-01-31T00:00:00	2024-11-08T00:00:00	5	Humedad	74
3693	7	Sololá	701	Sololá	1	Sololá	1	Enero	2023-01-31T00:00:00	2024-11-08T00:00:00	6	Velocidad del viento	14.5
3694	7	Sololá	701	Sololá	1	Sololá	1	Enero	2023-01-31T00:00:00	2024-11-08T00:00:00	7	Dirección del viento	14.48
3695	7	Sololá	701	Sololá	1	Sololá	1	Enero	2023-01-31T00:00:00	2024-11-08T00:00:00	1	Precipitación	0
3696	7	Sololá	701	Sololá	1	Sololá	1	Enero	2023-01-31T00:00:00	2024-11-08T00:00:00	8	Radiación solar	0
3697	7	Sololá	701	Sololá	1	Sololá	1	Enero	2023-01-31T00:00:00	2024-11-08T01:00:00	2	Temperatura media	12.4
3698	7	Sololá	701	Sololá	1	Sololá	1	Enero	2023-01-31T00:00:00	2024-11-08T01:00:00	4	Temperatura máxima	13.1
3699	7	Sololá	701	Sololá	1	Sololá	1	Enero	2023-01-31T00:00:00	2024-11-08T01:00:00	3	Temperatura mínima	12.4
3700	7	Sololá	701	Sololá	1	Sololá	1	Enero	2023-01-31T00:00:00	2024-11-08T01:00:00	5	Humedad	76
3701	7	Sololá	701	Sololá	1	Sololá	1	Enero	2023-01-31T00:00:00	2024-11-08T01:00:00	6	Velocidad del viento	14.5
3702	7	Sololá	701	Sololá	1	Sololá	1	Enero	2023-01-31T00:00:00	2024-11-08T01:00:00	7	Dirección del viento	14.48
3703	7	Sololá	701	Sololá	1	Sololá	1	Enero	2023-01-31T00:00:00	2024-11-08T01:00:00	1	Precipitación	0
3704	7	Sololá	701	Sololá	1	Sololá	1	Enero	2023-01-31T00:00:00	2024-11-08T01:00:00	8	Radiación solar	0
3705	7	Sololá	701	Sololá	1	Sololá	1	Enero	2023-01-31T00:00:00	2024-11-08T02:00:00	2	Temperatura media	11.6
3706	7	Sololá	701	Sololá	1	Sololá	1	Enero	2023-01-31T00:00:00	2024-11-08T02:00:00	4	Temperatura máxima	12.4
3707	7	Sololá	701	Sololá	1	Sololá	1	Enero	2023-01-31T00:00:00	2024-11-08T02:00:00	3	Temperatura mínima	11.6
3708	7	Sololá	701	Sololá	1	Sololá	1	Enero	2023-01-31T00:00:00	2024-11-08T02:00:00	5	Humedad	68
3709	7	Sololá	701	Sololá	1	Sololá	1	Enero	2023-01-31T00:00:00	2024-11-08T02:00:00	6	Velocidad del viento	12.9
3710	7	Sololá	701	Sololá	1	Sololá	1	Enero	2023-01-31T00:00:00	2024-11-08T02:00:00	7	Dirección del viento	12.87
3711	7	Sololá	701	Sololá	1	Sololá	1	Enero	2023-01-31T00:00:00	2024-11-08T02:00:00	1	Precipitación	0
3712	7	Sololá	701	Sololá	1	Sololá	1	Enero	2023-01-31T00:00:00	2024-11-08T02:00:00	8	Radiación solar	0
3713	7	Sololá	701	Sololá	1	Sololá	1	Enero	2023-01-31T00:00:00	2024-11-08T03:00:00	2	Temperatura media	9.8
3714	7	Sololá	701	Sololá	1	Sololá	1	Enero	2023-01-31T00:00:00	2024-11-08T03:00:00	4	Temperatura máxima	11.6
3715	7	Sololá	701	Sololá	1	Sololá	1	Enero	2023-01-31T00:00:00	2024-11-08T03:00:00	3	Temperatura mínima	9.8
3716	7	Sololá	701	Sololá	1	Sololá	1	Enero	2023-01-31T00:00:00	2024-11-08T03:00:00	5	Humedad	72
3717	7	Sololá	701	Sololá	1	Sololá	1	Enero	2023-01-31T00:00:00	2024-11-08T03:00:00	6	Velocidad del viento	11.3
3718	7	Sololá	701	Sololá	1	Sololá	1	Enero	2023-01-31T00:00:00	2024-11-08T03:00:00	7	Dirección del viento	11.27
3719	7	Sololá	701	Sololá	1	Sololá	1	Enero	2023-01-31T00:00:00	2024-11-08T03:00:00	1	Precipitación	0
3720	7	Sololá	701	Sololá	1	Sololá	1	Enero	2023-01-31T00:00:00	2024-11-08T03:00:00	8	Radiación solar	0
3721	7	Sololá	701	Sololá	1	Sololá	1	Enero	2023-01-31T00:00:00	2024-11-08T04:00:00	2	Temperatura media	9.9
3722	7	Sololá	701	Sololá	1	Sololá	1	Enero	2023-01-31T00:00:00	2024-11-08T04:00:00	4	Temperatura máxima	10.6
3723	7	Sololá	701	Sololá	1	Sololá	1	Enero	2023-01-31T00:00:00	2024-11-08T04:00:00	3	Temperatura mínima	9.7
3724	7	Sololá	701	Sololá	1	Sololá	1	Enero	2023-01-31T00:00:00	2024-11-08T04:00:00	5	Humedad	75
3725	7	Sololá	701	Sololá	1	Sololá	1	Enero	2023-01-31T00:00:00	2024-11-08T04:00:00	6	Velocidad del viento	8
3726	7	Sololá	701	Sololá	1	Sololá	1	Enero	2023-01-31T00:00:00	2024-11-08T04:00:00	7	Dirección del viento	8.05
3727	7	Sololá	701	Sololá	1	Sololá	1	Enero	2023-01-31T00:00:00	2024-11-08T04:00:00	1	Precipitación	0
3728	7	Sololá	701	Sololá	1	Sololá	1	Enero	2023-01-31T00:00:00	2024-11-08T04:00:00	8	Radiación solar	0
3729	7	Sololá	701	Sololá	1	Sololá	1	Enero	2023-01-31T00:00:00	2024-11-08T05:00:00	2	Temperatura media	10.1
3730	7	Sololá	701	Sololá	1	Sololá	1	Enero	2023-01-31T00:00:00	2024-11-08T05:00:00	4	Temperatura máxima	10.1
3731	7	Sololá	701	Sololá	1	Sololá	1	Enero	2023-01-31T00:00:00	2024-11-08T05:00:00	3	Temperatura mínima	9.7
3732	7	Sololá	701	Sololá	1	Sololá	1	Enero	2023-01-31T00:00:00	2024-11-08T05:00:00	5	Humedad	78
3733	7	Sololá	701	Sololá	1	Sololá	1	Enero	2023-01-31T00:00:00	2024-11-08T05:00:00	6	Velocidad del viento	6.4
3734	7	Sololá	701	Sololá	1	Sololá	1	Enero	2023-01-31T00:00:00	2024-11-08T05:00:00	7	Dirección del viento	6.44
3735	7	Sololá	701	Sololá	1	Sololá	1	Enero	2023-01-31T00:00:00	2024-11-08T05:00:00	1	Precipitación	0
3736	7	Sololá	701	Sololá	1	Sololá	1	Enero	2023-01-31T00:00:00	2024-11-08T05:00:00	8	Radiación solar	0
3737	7	Sololá	701	Sololá	1	Sololá	1	Enero	2023-01-31T00:00:00	2024-11-08T06:00:00	2	Temperatura media	11.7
3738	7	Sololá	701	Sololá	1	Sololá	1	Enero	2023-01-31T00:00:00	2024-11-08T06:00:00	4	Temperatura máxima	11.9
3739	7	Sololá	701	Sololá	1	Sololá	1	Enero	2023-01-31T00:00:00	2024-11-08T06:00:00	3	Temperatura mínima	9.8
3740	7	Sololá	701	Sololá	1	Sololá	1	Enero	2023-01-31T00:00:00	2024-11-08T06:00:00	5	Humedad	77
3741	7	Sololá	701	Sololá	1	Sololá	1	Enero	2023-01-31T00:00:00	2024-11-08T06:00:00	6	Velocidad del viento	6.4
3742	7	Sololá	701	Sololá	1	Sololá	1	Enero	2023-01-31T00:00:00	2024-11-08T06:00:00	7	Dirección del viento	6.44
3743	7	Sololá	701	Sololá	1	Sololá	1	Enero	2023-01-31T00:00:00	2024-11-08T06:00:00	1	Precipitación	0
3744	7	Sololá	701	Sololá	1	Sololá	1	Enero	2023-01-31T00:00:00	2024-11-08T06:00:00	8	Radiación solar	0
3745	7	Sololá	701	Sololá	1	Sololá	1	Enero	2023-01-31T00:00:00	2024-11-08T07:00:00	2	Temperatura media	11.8
3746	7	Sololá	701	Sololá	1	Sololá	1	Enero	2023-01-31T00:00:00	2024-11-08T07:00:00	4	Temperatura máxima	11.8
3747	7	Sololá	701	Sololá	1	Sololá	1	Enero	2023-01-31T00:00:00	2024-11-08T07:00:00	3	Temperatura mínima	11.4
3748	7	Sololá	701	Sololá	1	Sololá	1	Enero	2023-01-31T00:00:00	2024-11-08T07:00:00	5	Humedad	76
3749	7	Sololá	701	Sololá	1	Sololá	1	Enero	2023-01-31T00:00:00	2024-11-08T07:00:00	6	Velocidad del viento	8
3750	7	Sololá	701	Sololá	1	Sololá	1	Enero	2023-01-31T00:00:00	2024-11-08T07:00:00	7	Dirección del viento	8.05
3751	7	Sololá	701	Sololá	1	Sololá	1	Enero	2023-01-31T00:00:00	2024-11-08T07:00:00	1	Precipitación	0
3752	7	Sololá	701	Sololá	1	Sololá	1	Enero	2023-01-31T00:00:00	2024-11-08T07:00:00	8	Radiación solar	4
3753	7	Sololá	701	Sololá	1	Sololá	1	Enero	2023-01-31T00:00:00	2024-11-08T08:00:00	2	Temperatura media	14.3
3754	7	Sololá	701	Sololá	1	Sololá	1	Enero	2023-01-31T00:00:00	2024-11-08T08:00:00	4	Temperatura máxima	14.3
3755	7	Sololá	701	Sololá	1	Sololá	1	Enero	2023-01-31T00:00:00	2024-11-08T08:00:00	3	Temperatura mínima	11.8
3756	7	Sololá	701	Sololá	1	Sololá	1	Enero	2023-01-31T00:00:00	2024-11-08T08:00:00	5	Humedad	67
3757	7	Sololá	701	Sololá	1	Sololá	1	Enero	2023-01-31T00:00:00	2024-11-08T08:00:00	6	Velocidad del viento	9.7
3758	7	Sololá	701	Sololá	1	Sololá	1	Enero	2023-01-31T00:00:00	2024-11-08T08:00:00	7	Dirección del viento	9.66
3759	7	Sololá	701	Sololá	1	Sololá	1	Enero	2023-01-31T00:00:00	2024-11-08T08:00:00	1	Precipitación	0
3760	7	Sololá	701	Sololá	1	Sololá	1	Enero	2023-01-31T00:00:00	2024-11-08T08:00:00	8	Radiación solar	45
3761	7	Sololá	701	Sololá	1	Sololá	1	Enero	2023-01-31T00:00:00	2024-11-08T09:00:00	2	Temperatura media	15.8
3762	7	Sololá	701	Sololá	1	Sololá	1	Enero	2023-01-31T00:00:00	2024-11-08T09:00:00	4	Temperatura máxima	15.8
3763	7	Sololá	701	Sololá	1	Sololá	1	Enero	2023-01-31T00:00:00	2024-11-08T09:00:00	3	Temperatura mínima	14.3
3764	7	Sololá	701	Sololá	1	Sololá	1	Enero	2023-01-31T00:00:00	2024-11-08T09:00:00	5	Humedad	59
3765	7	Sololá	701	Sololá	1	Sololá	1	Enero	2023-01-31T00:00:00	2024-11-08T09:00:00	6	Velocidad del viento	9.7
3766	7	Sololá	701	Sololá	1	Sololá	1	Enero	2023-01-31T00:00:00	2024-11-08T09:00:00	7	Dirección del viento	9.66
3767	7	Sololá	701	Sololá	1	Sololá	1	Enero	2023-01-31T00:00:00	2024-11-08T09:00:00	1	Precipitación	0
3768	7	Sololá	701	Sololá	1	Sololá	1	Enero	2023-01-31T00:00:00	2024-11-08T09:00:00	8	Radiación solar	446
3769	7	Sololá	701	Sololá	1	Sololá	1	Enero	2023-01-31T00:00:00	2024-11-08T10:00:00	2	Temperatura media	17.8
3770	7	Sololá	701	Sololá	1	Sololá	1	Enero	2023-01-31T00:00:00	2024-11-08T10:00:00	4	Temperatura máxima	18.1
3771	7	Sololá	701	Sololá	1	Sololá	1	Enero	2023-01-31T00:00:00	2024-11-08T10:00:00	3	Temperatura mínima	15.8
3772	7	Sololá	701	Sololá	1	Sololá	1	Enero	2023-01-31T00:00:00	2024-11-08T10:00:00	5	Humedad	62
3773	7	Sololá	701	Sololá	1	Sololá	1	Enero	2023-01-31T00:00:00	2024-11-08T10:00:00	6	Velocidad del viento	8
3774	7	Sololá	701	Sololá	1	Sololá	1	Enero	2023-01-31T00:00:00	2024-11-08T10:00:00	7	Dirección del viento	8.05
3775	7	Sololá	701	Sololá	1	Sololá	1	Enero	2023-01-31T00:00:00	2024-11-08T10:00:00	1	Precipitación	0
3776	7	Sololá	701	Sololá	1	Sololá	1	Enero	2023-01-31T00:00:00	2024-11-08T10:00:00	8	Radiación solar	675
3777	7	Sololá	701	Sololá	1	Sololá	1	Enero	2023-01-31T00:00:00	2024-11-08T11:00:00	2	Temperatura media	19.3
3778	7	Sololá	701	Sololá	1	Sololá	1	Enero	2023-01-31T00:00:00	2024-11-08T11:00:00	4	Temperatura máxima	19.4
3779	7	Sololá	701	Sololá	1	Sololá	1	Enero	2023-01-31T00:00:00	2024-11-08T11:00:00	3	Temperatura mínima	17.6
3780	7	Sololá	701	Sololá	1	Sololá	1	Enero	2023-01-31T00:00:00	2024-11-08T11:00:00	5	Humedad	55
3781	7	Sololá	701	Sololá	1	Sololá	1	Enero	2023-01-31T00:00:00	2024-11-08T11:00:00	6	Velocidad del viento	4.8
3782	7	Sololá	701	Sololá	1	Sololá	1	Enero	2023-01-31T00:00:00	2024-11-08T11:00:00	7	Dirección del viento	4.83
3783	7	Sololá	701	Sololá	1	Sololá	1	Enero	2023-01-31T00:00:00	2024-11-08T11:00:00	1	Precipitación	0
3784	7	Sololá	701	Sololá	1	Sololá	1	Enero	2023-01-31T00:00:00	2024-11-08T11:00:00	8	Radiación solar	693
3785	7	Sololá	701	Sololá	1	Sololá	1	Enero	2023-01-31T00:00:00	2024-11-08T12:00:00	2	Temperatura media	21.3
3786	7	Sololá	701	Sololá	1	Sololá	1	Enero	2023-01-31T00:00:00	2024-11-08T12:00:00	4	Temperatura máxima	21.3
3787	7	Sololá	701	Sololá	1	Sololá	1	Enero	2023-01-31T00:00:00	2024-11-08T12:00:00	3	Temperatura mínima	19.3
3788	7	Sololá	701	Sololá	1	Sololá	1	Enero	2023-01-31T00:00:00	2024-11-08T12:00:00	5	Humedad	43
3789	7	Sololá	701	Sololá	1	Sololá	1	Enero	2023-01-31T00:00:00	2024-11-08T12:00:00	6	Velocidad del viento	6.4
3790	7	Sololá	701	Sololá	1	Sololá	1	Enero	2023-01-31T00:00:00	2024-11-08T12:00:00	7	Dirección del viento	6.44
3791	7	Sololá	701	Sololá	1	Sololá	1	Enero	2023-01-31T00:00:00	2024-11-08T12:00:00	1	Precipitación	0
3792	7	Sololá	701	Sololá	1	Sololá	1	Enero	2023-01-31T00:00:00	2024-11-08T12:00:00	8	Radiación solar	908
3793	7	Sololá	701	Sololá	1	Sololá	1	Enero	2023-01-31T00:00:00	2024-11-08T13:00:00	2	Temperatura media	22.1
3794	7	Sololá	701	Sololá	1	Sololá	1	Enero	2023-01-31T00:00:00	2024-11-08T13:00:00	4	Temperatura máxima	22.2
3795	7	Sololá	701	Sololá	1	Sololá	1	Enero	2023-01-31T00:00:00	2024-11-08T13:00:00	3	Temperatura mínima	20.9
3796	7	Sololá	701	Sololá	1	Sololá	1	Enero	2023-01-31T00:00:00	2024-11-08T13:00:00	5	Humedad	37
3797	7	Sololá	701	Sololá	1	Sololá	1	Enero	2023-01-31T00:00:00	2024-11-08T13:00:00	6	Velocidad del viento	8
3798	7	Sololá	701	Sololá	1	Sololá	1	Enero	2023-01-31T00:00:00	2024-11-08T13:00:00	7	Dirección del viento	8.05
3799	7	Sololá	701	Sololá	1	Sololá	1	Enero	2023-01-31T00:00:00	2024-11-08T13:00:00	1	Precipitación	0
3800	7	Sololá	701	Sololá	1	Sololá	1	Enero	2023-01-31T00:00:00	2024-11-08T13:00:00	8	Radiación solar	943
3801	7	Sololá	701	Sololá	1	Sololá	1	Enero	2023-01-31T00:00:00	2024-11-08T14:00:00	2	Temperatura media	22.4
3802	7	Sololá	701	Sololá	1	Sololá	1	Enero	2023-01-31T00:00:00	2024-11-08T14:00:00	4	Temperatura máxima	22.5
3803	7	Sololá	701	Sololá	1	Sololá	1	Enero	2023-01-31T00:00:00	2024-11-08T14:00:00	3	Temperatura mínima	22
3804	7	Sololá	701	Sololá	1	Sololá	1	Enero	2023-01-31T00:00:00	2024-11-08T14:00:00	5	Humedad	41
3805	7	Sololá	701	Sololá	1	Sololá	1	Enero	2023-01-31T00:00:00	2024-11-08T14:00:00	6	Velocidad del viento	8
3806	7	Sololá	701	Sololá	1	Sololá	1	Enero	2023-01-31T00:00:00	2024-11-08T14:00:00	7	Dirección del viento	8.05
3807	7	Sololá	701	Sololá	1	Sololá	1	Enero	2023-01-31T00:00:00	2024-11-08T14:00:00	1	Precipitación	0
3808	7	Sololá	701	Sololá	1	Sololá	1	Enero	2023-01-31T00:00:00	2024-11-08T14:00:00	8	Radiación solar	689
3809	7	Sololá	701	Sololá	1	Sololá	1	Enero	2023-01-31T00:00:00	2024-11-08T15:00:00	2	Temperatura media	21.2
3810	7	Sololá	701	Sololá	1	Sololá	1	Enero	2023-01-31T00:00:00	2024-11-08T15:00:00	4	Temperatura máxima	22.6
3811	7	Sololá	701	Sololá	1	Sololá	1	Enero	2023-01-31T00:00:00	2024-11-08T15:00:00	3	Temperatura mínima	21.1
3812	7	Sololá	701	Sololá	1	Sololá	1	Enero	2023-01-31T00:00:00	2024-11-08T15:00:00	5	Humedad	56
3813	7	Sololá	701	Sololá	1	Sololá	1	Enero	2023-01-31T00:00:00	2024-11-08T15:00:00	6	Velocidad del viento	8
3814	7	Sololá	701	Sololá	1	Sololá	1	Enero	2023-01-31T00:00:00	2024-11-08T15:00:00	7	Dirección del viento	8.05
3815	7	Sololá	701	Sololá	1	Sololá	1	Enero	2023-01-31T00:00:00	2024-11-08T15:00:00	1	Precipitación	0
3816	7	Sololá	701	Sololá	1	Sololá	1	Enero	2023-01-31T00:00:00	2024-11-08T15:00:00	8	Radiación solar	259
3817	7	Sololá	701	Sololá	1	Sololá	1	Enero	2023-01-31T00:00:00	2024-11-08T16:00:00	2	Temperatura media	19.9
3818	7	Sololá	701	Sololá	1	Sololá	1	Enero	2023-01-31T00:00:00	2024-11-08T16:00:00	4	Temperatura máxima	21.3
3819	7	Sololá	701	Sololá	1	Sololá	1	Enero	2023-01-31T00:00:00	2024-11-08T16:00:00	3	Temperatura mínima	19.9
3820	7	Sololá	701	Sololá	1	Sololá	1	Enero	2023-01-31T00:00:00	2024-11-08T16:00:00	5	Humedad	66
3821	7	Sololá	701	Sololá	1	Sololá	1	Enero	2023-01-31T00:00:00	2024-11-08T16:00:00	6	Velocidad del viento	8
3822	7	Sololá	701	Sololá	1	Sololá	1	Enero	2023-01-31T00:00:00	2024-11-08T16:00:00	7	Dirección del viento	8.05
3823	7	Sololá	701	Sololá	1	Sololá	1	Enero	2023-01-31T00:00:00	2024-11-08T16:00:00	1	Precipitación	0
3824	7	Sololá	701	Sololá	1	Sololá	1	Enero	2023-01-31T00:00:00	2024-11-08T16:00:00	8	Radiación solar	200
3825	7	Sololá	701	Sololá	1	Sololá	1	Enero	2023-01-31T00:00:00	2024-11-08T17:00:00	2	Temperatura media	19.9
3826	7	Sololá	701	Sololá	1	Sololá	1	Enero	2023-01-31T00:00:00	2024-11-08T17:00:00	4	Temperatura máxima	20.2
3827	7	Sololá	701	Sololá	1	Sololá	1	Enero	2023-01-31T00:00:00	2024-11-08T17:00:00	3	Temperatura mínima	19.3
3828	7	Sololá	701	Sololá	1	Sololá	1	Enero	2023-01-31T00:00:00	2024-11-08T17:00:00	5	Humedad	69
3829	7	Sololá	701	Sololá	1	Sololá	1	Enero	2023-01-31T00:00:00	2024-11-08T17:00:00	6	Velocidad del viento	4.8
3830	7	Sololá	701	Sololá	1	Sololá	1	Enero	2023-01-31T00:00:00	2024-11-08T17:00:00	7	Dirección del viento	4.83
3831	7	Sololá	701	Sololá	1	Sololá	1	Enero	2023-01-31T00:00:00	2024-11-08T17:00:00	1	Precipitación	0
3832	7	Sololá	701	Sololá	1	Sololá	1	Enero	2023-01-31T00:00:00	2024-11-08T17:00:00	8	Radiación solar	24
3833	7	Sololá	701	Sololá	1	Sololá	1	Enero	2023-01-31T00:00:00	2024-11-08T18:00:00	2	Temperatura media	17.9
3834	7	Sololá	701	Sololá	1	Sololá	1	Enero	2023-01-31T00:00:00	2024-11-08T18:00:00	4	Temperatura máxima	20.2
3835	7	Sololá	701	Sololá	1	Sololá	1	Enero	2023-01-31T00:00:00	2024-11-08T18:00:00	3	Temperatura mínima	17.9
3836	7	Sololá	701	Sololá	1	Sololá	1	Enero	2023-01-31T00:00:00	2024-11-08T18:00:00	5	Humedad	48
3837	7	Sololá	701	Sololá	1	Sololá	1	Enero	2023-01-31T00:00:00	2024-11-08T18:00:00	6	Velocidad del viento	8
3838	7	Sololá	701	Sololá	1	Sololá	1	Enero	2023-01-31T00:00:00	2024-11-08T18:00:00	7	Dirección del viento	8.05
3839	7	Sololá	701	Sololá	1	Sololá	1	Enero	2023-01-31T00:00:00	2024-11-08T18:00:00	1	Precipitación	0
3840	7	Sololá	701	Sololá	1	Sololá	1	Enero	2023-01-31T00:00:00	2024-11-08T18:00:00	8	Radiación solar	17
3841	7	Sololá	701	Sololá	1	Sololá	1	Enero	2023-01-31T00:00:00	2024-11-08T19:00:00	2	Temperatura media	16.9
3842	7	Sololá	701	Sololá	1	Sololá	1	Enero	2023-01-31T00:00:00	2024-11-08T19:00:00	4	Temperatura máxima	17.9
3843	7	Sololá	701	Sololá	1	Sololá	1	Enero	2023-01-31T00:00:00	2024-11-08T19:00:00	3	Temperatura mínima	16.9
3844	7	Sololá	701	Sololá	1	Sololá	1	Enero	2023-01-31T00:00:00	2024-11-08T19:00:00	5	Humedad	60
3845	7	Sololá	701	Sololá	1	Sololá	1	Enero	2023-01-31T00:00:00	2024-11-08T19:00:00	6	Velocidad del viento	12.9
3846	7	Sololá	701	Sololá	1	Sololá	1	Enero	2023-01-31T00:00:00	2024-11-08T19:00:00	7	Dirección del viento	12.87
3847	7	Sololá	701	Sololá	1	Sololá	1	Enero	2023-01-31T00:00:00	2024-11-08T19:00:00	1	Precipitación	0
3848	7	Sololá	701	Sololá	1	Sololá	1	Enero	2023-01-31T00:00:00	2024-11-08T19:00:00	8	Radiación solar	0
3849	7	Sololá	701	Sololá	1	Sololá	1	Enero	2023-01-31T00:00:00	2024-11-08T20:00:00	2	Temperatura media	15.9
3850	7	Sololá	701	Sololá	1	Sololá	1	Enero	2023-01-31T00:00:00	2024-11-08T20:00:00	4	Temperatura máxima	16.9
3851	7	Sololá	701	Sololá	1	Sololá	1	Enero	2023-01-31T00:00:00	2024-11-08T20:00:00	3	Temperatura mínima	15.9
3852	7	Sololá	701	Sololá	1	Sololá	1	Enero	2023-01-31T00:00:00	2024-11-08T20:00:00	5	Humedad	62
3853	7	Sololá	701	Sololá	1	Sololá	1	Enero	2023-01-31T00:00:00	2024-11-08T20:00:00	6	Velocidad del viento	8
3854	7	Sololá	701	Sololá	1	Sololá	1	Enero	2023-01-31T00:00:00	2024-11-08T20:00:00	7	Dirección del viento	8.05
3855	7	Sololá	701	Sololá	1	Sololá	1	Enero	2023-01-31T00:00:00	2024-11-08T20:00:00	1	Precipitación	0
3856	7	Sololá	701	Sololá	1	Sololá	1	Enero	2023-01-31T00:00:00	2024-11-08T20:00:00	8	Radiación solar	0
3857	7	Sololá	701	Sololá	1	Sololá	1	Enero	2023-01-31T00:00:00	2024-11-08T21:00:00	2	Temperatura media	15.2
3858	7	Sololá	701	Sololá	1	Sololá	1	Enero	2023-01-31T00:00:00	2024-11-08T21:00:00	4	Temperatura máxima	15.9
3859	7	Sololá	701	Sololá	1	Sololá	1	Enero	2023-01-31T00:00:00	2024-11-08T21:00:00	3	Temperatura mínima	15.2
3860	7	Sololá	701	Sololá	1	Sololá	1	Enero	2023-01-31T00:00:00	2024-11-08T21:00:00	5	Humedad	68
3861	7	Sololá	701	Sololá	1	Sololá	1	Enero	2023-01-31T00:00:00	2024-11-08T21:00:00	6	Velocidad del viento	8
3862	7	Sololá	701	Sololá	1	Sololá	1	Enero	2023-01-31T00:00:00	2024-11-08T21:00:00	7	Dirección del viento	8.05
3863	7	Sololá	701	Sololá	1	Sololá	1	Enero	2023-01-31T00:00:00	2024-11-08T21:00:00	1	Precipitación	0
3864	7	Sololá	701	Sololá	1	Sololá	1	Enero	2023-01-31T00:00:00	2024-11-08T21:00:00	8	Radiación solar	0
3865	7	Sololá	701	Sololá	1	Sololá	1	Enero	2023-01-31T00:00:00	2024-11-08T22:00:00	2	Temperatura media	14.5
3866	7	Sololá	701	Sololá	1	Sololá	1	Enero	2023-01-31T00:00:00	2024-11-08T22:00:00	4	Temperatura máxima	15.3
3867	7	Sololá	701	Sololá	1	Sololá	1	Enero	2023-01-31T00:00:00	2024-11-08T22:00:00	3	Temperatura mínima	14.5
3868	7	Sololá	701	Sololá	1	Sololá	1	Enero	2023-01-31T00:00:00	2024-11-08T22:00:00	5	Humedad	68
3869	7	Sololá	701	Sololá	1	Sololá	1	Enero	2023-01-31T00:00:00	2024-11-08T22:00:00	6	Velocidad del viento	11.3
3870	7	Sololá	701	Sololá	1	Sololá	1	Enero	2023-01-31T00:00:00	2024-11-08T22:00:00	7	Dirección del viento	11.27
3871	7	Sololá	701	Sololá	1	Sololá	1	Enero	2023-01-31T00:00:00	2024-11-08T22:00:00	1	Precipitación	0
3872	7	Sololá	701	Sololá	1	Sololá	1	Enero	2023-01-31T00:00:00	2024-11-08T22:00:00	8	Radiación solar	0
3873	7	Sololá	701	Sololá	1	Sololá	1	Enero	2023-01-31T00:00:00	2024-11-08T23:00:00	2	Temperatura media	12.8
3874	7	Sololá	701	Sololá	1	Sololá	1	Enero	2023-01-31T00:00:00	2024-11-08T23:00:00	4	Temperatura máxima	14.6
3875	7	Sololá	701	Sololá	1	Sololá	1	Enero	2023-01-31T00:00:00	2024-11-08T23:00:00	3	Temperatura mínima	12.8
3876	7	Sololá	701	Sololá	1	Sololá	1	Enero	2023-01-31T00:00:00	2024-11-08T23:00:00	5	Humedad	66
3877	7	Sololá	701	Sololá	1	Sololá	1	Enero	2023-01-31T00:00:00	2024-11-08T23:00:00	6	Velocidad del viento	9.7
3878	7	Sololá	701	Sololá	1	Sololá	1	Enero	2023-01-31T00:00:00	2024-11-08T23:00:00	7	Dirección del viento	9.66
3879	7	Sololá	701	Sololá	1	Sololá	1	Enero	2023-01-31T00:00:00	2024-11-08T23:00:00	1	Precipitación	0
3880	7	Sololá	701	Sololá	1	Sololá	1	Enero	2023-01-31T00:00:00	2024-11-08T23:00:00	8	Radiación solar	0
3881	7	Sololá	701	Sololá	1	Sololá	2	Febrero	2023-01-02T00:00:00	2024-11-08T00:00:00	2	Temperatura media	13.9
3882	7	Sololá	701	Sololá	1	Sololá	2	Febrero	2023-01-02T00:00:00	2024-11-08T00:00:00	4	Temperatura máxima	13.9
3883	7	Sololá	701	Sololá	1	Sololá	2	Febrero	2023-01-02T00:00:00	2024-11-08T00:00:00	3	Temperatura mínima	12
3884	7	Sololá	701	Sololá	1	Sololá	2	Febrero	2023-01-02T00:00:00	2024-11-08T00:00:00	5	Humedad	67
3885	7	Sololá	701	Sololá	1	Sololá	2	Febrero	2023-01-02T00:00:00	2024-11-08T00:00:00	6	Velocidad del viento	8
3886	7	Sololá	701	Sololá	1	Sololá	2	Febrero	2023-01-02T00:00:00	2024-11-08T00:00:00	7	Dirección del viento	8.05
3887	7	Sololá	701	Sololá	1	Sololá	2	Febrero	2023-01-02T00:00:00	2024-11-08T00:00:00	1	Precipitación	0
3888	7	Sololá	701	Sololá	1	Sololá	2	Febrero	2023-01-02T00:00:00	2024-11-08T00:00:00	8	Radiación solar	0
3889	7	Sololá	701	Sololá	1	Sololá	2	Febrero	2023-01-02T00:00:00	2024-11-08T01:00:00	2	Temperatura media	13.3
3890	7	Sololá	701	Sololá	1	Sololá	2	Febrero	2023-01-02T00:00:00	2024-11-08T01:00:00	4	Temperatura máxima	13.8
3891	7	Sololá	701	Sololá	1	Sololá	2	Febrero	2023-01-02T00:00:00	2024-11-08T01:00:00	3	Temperatura mínima	12.3
3892	7	Sololá	701	Sololá	1	Sololá	2	Febrero	2023-01-02T00:00:00	2024-11-08T01:00:00	5	Humedad	72
3893	7	Sololá	701	Sololá	1	Sololá	2	Febrero	2023-01-02T00:00:00	2024-11-08T01:00:00	6	Velocidad del viento	9.7
3894	7	Sololá	701	Sololá	1	Sololá	2	Febrero	2023-01-02T00:00:00	2024-11-08T01:00:00	7	Dirección del viento	9.66
3895	7	Sololá	701	Sololá	1	Sololá	2	Febrero	2023-01-02T00:00:00	2024-11-08T01:00:00	1	Precipitación	0
3896	7	Sololá	701	Sololá	1	Sololá	2	Febrero	2023-01-02T00:00:00	2024-11-08T01:00:00	8	Radiación solar	0
3897	7	Sololá	701	Sololá	1	Sololá	2	Febrero	2023-01-02T00:00:00	2024-11-08T02:00:00	2	Temperatura media	12.7
3898	7	Sololá	701	Sololá	1	Sololá	2	Febrero	2023-01-02T00:00:00	2024-11-08T02:00:00	4	Temperatura máxima	13.4
3899	7	Sololá	701	Sololá	1	Sololá	2	Febrero	2023-01-02T00:00:00	2024-11-08T02:00:00	3	Temperatura mínima	12.7
3900	7	Sololá	701	Sololá	1	Sololá	2	Febrero	2023-01-02T00:00:00	2024-11-08T02:00:00	5	Humedad	74
3901	7	Sololá	701	Sololá	1	Sololá	2	Febrero	2023-01-02T00:00:00	2024-11-08T02:00:00	6	Velocidad del viento	9.7
3902	7	Sololá	701	Sololá	1	Sololá	2	Febrero	2023-01-02T00:00:00	2024-11-08T02:00:00	7	Dirección del viento	9.66
3903	7	Sololá	701	Sololá	1	Sololá	2	Febrero	2023-01-02T00:00:00	2024-11-08T02:00:00	1	Precipitación	0
3904	7	Sololá	701	Sololá	1	Sololá	2	Febrero	2023-01-02T00:00:00	2024-11-08T02:00:00	8	Radiación solar	0
3905	7	Sololá	701	Sololá	1	Sololá	2	Febrero	2023-01-02T00:00:00	2024-11-08T03:00:00	2	Temperatura media	12.3
3906	7	Sololá	701	Sololá	1	Sololá	2	Febrero	2023-01-02T00:00:00	2024-11-08T03:00:00	4	Temperatura máxima	12.7
3907	7	Sololá	701	Sololá	1	Sololá	2	Febrero	2023-01-02T00:00:00	2024-11-08T03:00:00	3	Temperatura mínima	12.3
3908	7	Sololá	701	Sololá	1	Sololá	2	Febrero	2023-01-02T00:00:00	2024-11-08T03:00:00	5	Humedad	76
3909	7	Sololá	701	Sololá	1	Sololá	2	Febrero	2023-01-02T00:00:00	2024-11-08T03:00:00	6	Velocidad del viento	14.5
3910	7	Sololá	701	Sololá	1	Sololá	2	Febrero	2023-01-02T00:00:00	2024-11-08T03:00:00	7	Dirección del viento	14.48
3911	7	Sololá	701	Sololá	1	Sololá	2	Febrero	2023-01-02T00:00:00	2024-11-08T03:00:00	1	Precipitación	0
3912	7	Sololá	701	Sololá	1	Sololá	2	Febrero	2023-01-02T00:00:00	2024-11-08T03:00:00	8	Radiación solar	0
3913	7	Sololá	701	Sololá	1	Sololá	2	Febrero	2023-01-02T00:00:00	2024-11-08T04:00:00	2	Temperatura media	12.4
3914	7	Sololá	701	Sololá	1	Sololá	2	Febrero	2023-01-02T00:00:00	2024-11-08T04:00:00	4	Temperatura máxima	12.5
3915	7	Sololá	701	Sololá	1	Sololá	2	Febrero	2023-01-02T00:00:00	2024-11-08T04:00:00	3	Temperatura mínima	12.2
3916	7	Sololá	701	Sololá	1	Sololá	2	Febrero	2023-01-02T00:00:00	2024-11-08T04:00:00	5	Humedad	73
3917	7	Sololá	701	Sololá	1	Sololá	2	Febrero	2023-01-02T00:00:00	2024-11-08T04:00:00	6	Velocidad del viento	11.3
3918	7	Sololá	701	Sololá	1	Sololá	2	Febrero	2023-01-02T00:00:00	2024-11-08T04:00:00	7	Dirección del viento	11.27
3919	7	Sololá	701	Sololá	1	Sololá	2	Febrero	2023-01-02T00:00:00	2024-11-08T04:00:00	1	Precipitación	0
3920	7	Sololá	701	Sololá	1	Sololá	2	Febrero	2023-01-02T00:00:00	2024-11-08T04:00:00	8	Radiación solar	0
3921	7	Sololá	701	Sololá	1	Sololá	2	Febrero	2023-01-02T00:00:00	2024-11-08T05:00:00	2	Temperatura media	12.4
3922	7	Sololá	701	Sololá	1	Sololá	2	Febrero	2023-01-02T00:00:00	2024-11-08T05:00:00	4	Temperatura máxima	12.4
3923	7	Sololá	701	Sololá	1	Sololá	2	Febrero	2023-01-02T00:00:00	2024-11-08T05:00:00	3	Temperatura mínima	10.7
3924	7	Sololá	701	Sololá	1	Sololá	2	Febrero	2023-01-02T00:00:00	2024-11-08T05:00:00	5	Humedad	74
3925	7	Sololá	701	Sololá	1	Sololá	2	Febrero	2023-01-02T00:00:00	2024-11-08T05:00:00	6	Velocidad del viento	9.7
3926	7	Sololá	701	Sololá	1	Sololá	2	Febrero	2023-01-02T00:00:00	2024-11-08T05:00:00	7	Dirección del viento	9.66
3927	7	Sololá	701	Sololá	1	Sololá	2	Febrero	2023-01-02T00:00:00	2024-11-08T05:00:00	1	Precipitación	0
3928	7	Sololá	701	Sololá	1	Sololá	2	Febrero	2023-01-02T00:00:00	2024-11-08T05:00:00	8	Radiación solar	0
3929	7	Sololá	701	Sololá	1	Sololá	2	Febrero	2023-01-02T00:00:00	2024-11-08T06:00:00	2	Temperatura media	9.6
3930	7	Sololá	701	Sololá	1	Sololá	2	Febrero	2023-01-02T00:00:00	2024-11-08T06:00:00	4	Temperatura máxima	12.4
3931	7	Sololá	701	Sololá	1	Sololá	2	Febrero	2023-01-02T00:00:00	2024-11-08T06:00:00	3	Temperatura mínima	9.6
3932	7	Sololá	701	Sololá	1	Sololá	2	Febrero	2023-01-02T00:00:00	2024-11-08T06:00:00	5	Humedad	69
3933	7	Sololá	701	Sololá	1	Sololá	2	Febrero	2023-01-02T00:00:00	2024-11-08T06:00:00	6	Velocidad del viento	9.7
3934	7	Sololá	701	Sololá	1	Sololá	2	Febrero	2023-01-02T00:00:00	2024-11-08T06:00:00	7	Dirección del viento	9.66
3935	7	Sololá	701	Sololá	1	Sololá	2	Febrero	2023-01-02T00:00:00	2024-11-08T06:00:00	1	Precipitación	0
3936	7	Sololá	701	Sololá	1	Sololá	2	Febrero	2023-01-02T00:00:00	2024-11-08T06:00:00	8	Radiación solar	0
3937	7	Sololá	701	Sololá	1	Sololá	2	Febrero	2023-01-02T00:00:00	2024-11-08T07:00:00	2	Temperatura media	12.4
3938	7	Sololá	701	Sololá	1	Sololá	2	Febrero	2023-01-02T00:00:00	2024-11-08T07:00:00	4	Temperatura máxima	12.6
3939	7	Sololá	701	Sololá	1	Sololá	2	Febrero	2023-01-02T00:00:00	2024-11-08T07:00:00	3	Temperatura mínima	9.4
3940	7	Sololá	701	Sololá	1	Sololá	2	Febrero	2023-01-02T00:00:00	2024-11-08T07:00:00	5	Humedad	74
3941	7	Sololá	701	Sololá	1	Sololá	2	Febrero	2023-01-02T00:00:00	2024-11-08T07:00:00	6	Velocidad del viento	8
3942	7	Sololá	701	Sololá	1	Sololá	2	Febrero	2023-01-02T00:00:00	2024-11-08T07:00:00	7	Dirección del viento	8.05
3943	7	Sololá	701	Sololá	1	Sololá	2	Febrero	2023-01-02T00:00:00	2024-11-08T07:00:00	1	Precipitación	0
3944	7	Sololá	701	Sololá	1	Sololá	2	Febrero	2023-01-02T00:00:00	2024-11-08T07:00:00	8	Radiación solar	7
3945	7	Sololá	701	Sololá	1	Sololá	2	Febrero	2023-01-02T00:00:00	2024-11-08T08:00:00	2	Temperatura media	15.1
3946	7	Sololá	701	Sololá	1	Sololá	2	Febrero	2023-01-02T00:00:00	2024-11-08T08:00:00	4	Temperatura máxima	15.1
3947	7	Sololá	701	Sololá	1	Sololá	2	Febrero	2023-01-02T00:00:00	2024-11-08T08:00:00	3	Temperatura mínima	12.4
3948	7	Sololá	701	Sololá	1	Sololá	2	Febrero	2023-01-02T00:00:00	2024-11-08T08:00:00	5	Humedad	67
3949	7	Sololá	701	Sololá	1	Sololá	2	Febrero	2023-01-02T00:00:00	2024-11-08T08:00:00	6	Velocidad del viento	8
3950	7	Sololá	701	Sololá	1	Sololá	2	Febrero	2023-01-02T00:00:00	2024-11-08T08:00:00	7	Dirección del viento	8.05
3951	7	Sololá	701	Sololá	1	Sololá	2	Febrero	2023-01-02T00:00:00	2024-11-08T08:00:00	1	Precipitación	0
3952	7	Sololá	701	Sololá	1	Sololá	2	Febrero	2023-01-02T00:00:00	2024-11-08T08:00:00	8	Radiación solar	28
3953	7	Sololá	701	Sololá	1	Sololá	2	Febrero	2023-01-02T00:00:00	2024-11-08T09:00:00	2	Temperatura media	17.6
3954	7	Sololá	701	Sololá	1	Sololá	2	Febrero	2023-01-02T00:00:00	2024-11-08T09:00:00	4	Temperatura máxima	17.6
3955	7	Sololá	701	Sololá	1	Sololá	2	Febrero	2023-01-02T00:00:00	2024-11-08T09:00:00	3	Temperatura mínima	15.1
3956	7	Sololá	701	Sololá	1	Sololá	2	Febrero	2023-01-02T00:00:00	2024-11-08T09:00:00	5	Humedad	56
3957	7	Sololá	701	Sololá	1	Sololá	2	Febrero	2023-01-02T00:00:00	2024-11-08T09:00:00	6	Velocidad del viento	6.4
3958	7	Sololá	701	Sololá	1	Sololá	2	Febrero	2023-01-02T00:00:00	2024-11-08T09:00:00	7	Dirección del viento	6.44
3959	7	Sololá	701	Sololá	1	Sololá	2	Febrero	2023-01-02T00:00:00	2024-11-08T09:00:00	1	Precipitación	0
3960	7	Sololá	701	Sololá	1	Sololá	2	Febrero	2023-01-02T00:00:00	2024-11-08T09:00:00	8	Radiación solar	423
3961	7	Sololá	701	Sololá	1	Sololá	2	Febrero	2023-01-02T00:00:00	2024-11-08T10:00:00	2	Temperatura media	18.8
3962	7	Sololá	701	Sololá	1	Sololá	2	Febrero	2023-01-02T00:00:00	2024-11-08T10:00:00	4	Temperatura máxima	18.8
3963	7	Sololá	701	Sololá	1	Sololá	2	Febrero	2023-01-02T00:00:00	2024-11-08T10:00:00	3	Temperatura mínima	17.5
3964	7	Sololá	701	Sololá	1	Sololá	2	Febrero	2023-01-02T00:00:00	2024-11-08T10:00:00	5	Humedad	55
3965	7	Sololá	701	Sololá	1	Sololá	2	Febrero	2023-01-02T00:00:00	2024-11-08T10:00:00	6	Velocidad del viento	9.7
3966	7	Sololá	701	Sololá	1	Sololá	2	Febrero	2023-01-02T00:00:00	2024-11-08T10:00:00	7	Dirección del viento	9.66
3967	7	Sololá	701	Sololá	1	Sololá	2	Febrero	2023-01-02T00:00:00	2024-11-08T10:00:00	1	Precipitación	0
3968	7	Sololá	701	Sololá	1	Sololá	2	Febrero	2023-01-02T00:00:00	2024-11-08T10:00:00	8	Radiación solar	712
3969	7	Sololá	701	Sololá	1	Sololá	2	Febrero	2023-01-02T00:00:00	2024-11-08T11:00:00	2	Temperatura media	20.6
3970	7	Sololá	701	Sololá	1	Sololá	2	Febrero	2023-01-02T00:00:00	2024-11-08T11:00:00	4	Temperatura máxima	20.7
3971	7	Sololá	701	Sololá	1	Sololá	2	Febrero	2023-01-02T00:00:00	2024-11-08T11:00:00	3	Temperatura mínima	18.9
3972	7	Sololá	701	Sololá	1	Sololá	2	Febrero	2023-01-02T00:00:00	2024-11-08T11:00:00	5	Humedad	54
3973	7	Sololá	701	Sololá	1	Sololá	2	Febrero	2023-01-02T00:00:00	2024-11-08T11:00:00	6	Velocidad del viento	8
3974	7	Sololá	701	Sololá	1	Sololá	2	Febrero	2023-01-02T00:00:00	2024-11-08T11:00:00	7	Dirección del viento	8.05
3975	7	Sololá	701	Sololá	1	Sololá	2	Febrero	2023-01-02T00:00:00	2024-11-08T11:00:00	1	Precipitación	0
3976	7	Sololá	701	Sololá	1	Sololá	2	Febrero	2023-01-02T00:00:00	2024-11-08T11:00:00	8	Radiación solar	870
3977	7	Sololá	701	Sololá	1	Sololá	2	Febrero	2023-01-02T00:00:00	2024-11-08T12:00:00	2	Temperatura media	21.6
3978	7	Sololá	701	Sololá	1	Sololá	2	Febrero	2023-01-02T00:00:00	2024-11-08T12:00:00	4	Temperatura máxima	21.6
3979	7	Sololá	701	Sololá	1	Sololá	2	Febrero	2023-01-02T00:00:00	2024-11-08T12:00:00	3	Temperatura mínima	20.2
3980	7	Sololá	701	Sololá	1	Sololá	2	Febrero	2023-01-02T00:00:00	2024-11-08T12:00:00	5	Humedad	45
3981	7	Sololá	701	Sololá	1	Sololá	2	Febrero	2023-01-02T00:00:00	2024-11-08T12:00:00	6	Velocidad del viento	4.8
3982	7	Sololá	701	Sololá	1	Sololá	2	Febrero	2023-01-02T00:00:00	2024-11-08T12:00:00	7	Dirección del viento	4.83
3983	7	Sololá	701	Sololá	1	Sololá	2	Febrero	2023-01-02T00:00:00	2024-11-08T12:00:00	1	Precipitación	0
3984	7	Sololá	701	Sololá	1	Sololá	2	Febrero	2023-01-02T00:00:00	2024-11-08T12:00:00	8	Radiación solar	962
3985	7	Sololá	701	Sololá	1	Sololá	2	Febrero	2023-01-02T00:00:00	2024-11-08T13:00:00	2	Temperatura media	22.4
3986	7	Sololá	701	Sololá	1	Sololá	2	Febrero	2023-01-02T00:00:00	2024-11-08T13:00:00	4	Temperatura máxima	22.7
3987	7	Sololá	701	Sololá	1	Sololá	2	Febrero	2023-01-02T00:00:00	2024-11-08T13:00:00	3	Temperatura mínima	21.6
3988	7	Sololá	701	Sololá	1	Sololá	2	Febrero	2023-01-02T00:00:00	2024-11-08T13:00:00	5	Humedad	42
3989	7	Sololá	701	Sololá	1	Sololá	2	Febrero	2023-01-02T00:00:00	2024-11-08T13:00:00	6	Velocidad del viento	6.4
3990	7	Sololá	701	Sololá	1	Sololá	2	Febrero	2023-01-02T00:00:00	2024-11-08T13:00:00	7	Dirección del viento	6.44
3991	7	Sololá	701	Sololá	1	Sololá	2	Febrero	2023-01-02T00:00:00	2024-11-08T13:00:00	1	Precipitación	0
3992	7	Sololá	701	Sololá	1	Sololá	2	Febrero	2023-01-02T00:00:00	2024-11-08T13:00:00	8	Radiación solar	986
3993	7	Sololá	701	Sololá	1	Sololá	2	Febrero	2023-01-02T00:00:00	2024-11-08T14:00:00	2	Temperatura media	21.8
3994	7	Sololá	701	Sololá	1	Sololá	2	Febrero	2023-01-02T00:00:00	2024-11-08T14:00:00	4	Temperatura máxima	22.8
3995	7	Sololá	701	Sololá	1	Sololá	2	Febrero	2023-01-02T00:00:00	2024-11-08T14:00:00	3	Temperatura mínima	21.4
3996	7	Sololá	701	Sololá	1	Sololá	2	Febrero	2023-01-02T00:00:00	2024-11-08T14:00:00	5	Humedad	58
3997	7	Sololá	701	Sololá	1	Sololá	2	Febrero	2023-01-02T00:00:00	2024-11-08T14:00:00	6	Velocidad del viento	6.4
3998	7	Sololá	701	Sololá	1	Sololá	2	Febrero	2023-01-02T00:00:00	2024-11-08T14:00:00	7	Dirección del viento	6.44
3999	7	Sololá	701	Sololá	1	Sololá	2	Febrero	2023-01-02T00:00:00	2024-11-08T14:00:00	1	Precipitación	0
4000	7	Sololá	701	Sololá	1	Sololá	2	Febrero	2023-01-02T00:00:00	2024-11-08T14:00:00	8	Radiación solar	314
4001	7	Sololá	701	Sololá	1	Sololá	2	Febrero	2023-01-02T00:00:00	2024-11-08T15:00:00	2	Temperatura media	21.6
4002	7	Sololá	701	Sololá	1	Sololá	2	Febrero	2023-01-02T00:00:00	2024-11-08T15:00:00	4	Temperatura máxima	22.6
4003	7	Sololá	701	Sololá	1	Sololá	2	Febrero	2023-01-02T00:00:00	2024-11-08T15:00:00	3	Temperatura mínima	21.6
4004	7	Sololá	701	Sololá	1	Sololá	2	Febrero	2023-01-02T00:00:00	2024-11-08T15:00:00	5	Humedad	65
4005	7	Sololá	701	Sololá	1	Sololá	2	Febrero	2023-01-02T00:00:00	2024-11-08T15:00:00	6	Velocidad del viento	6.4
4006	7	Sololá	701	Sololá	1	Sololá	2	Febrero	2023-01-02T00:00:00	2024-11-08T15:00:00	7	Dirección del viento	6.44
4007	7	Sololá	701	Sololá	1	Sololá	2	Febrero	2023-01-02T00:00:00	2024-11-08T15:00:00	1	Precipitación	0
4008	7	Sololá	701	Sololá	1	Sololá	2	Febrero	2023-01-02T00:00:00	2024-11-08T15:00:00	8	Radiación solar	210
4009	7	Sololá	701	Sololá	1	Sololá	2	Febrero	2023-01-02T00:00:00	2024-11-08T16:00:00	2	Temperatura media	20.3
4010	7	Sololá	701	Sololá	1	Sololá	2	Febrero	2023-01-02T00:00:00	2024-11-08T16:00:00	4	Temperatura máxima	21.6
4011	7	Sololá	701	Sololá	1	Sololá	2	Febrero	2023-01-02T00:00:00	2024-11-08T16:00:00	3	Temperatura mínima	20.2
4012	7	Sololá	701	Sololá	1	Sololá	2	Febrero	2023-01-02T00:00:00	2024-11-08T16:00:00	5	Humedad	70
4013	7	Sololá	701	Sololá	1	Sololá	2	Febrero	2023-01-02T00:00:00	2024-11-08T16:00:00	6	Velocidad del viento	6.4
4014	7	Sololá	701	Sololá	1	Sololá	2	Febrero	2023-01-02T00:00:00	2024-11-08T16:00:00	7	Dirección del viento	6.44
4015	7	Sololá	701	Sololá	1	Sololá	2	Febrero	2023-01-02T00:00:00	2024-11-08T16:00:00	1	Precipitación	0
4016	7	Sololá	701	Sololá	1	Sololá	2	Febrero	2023-01-02T00:00:00	2024-11-08T16:00:00	8	Radiación solar	153
4017	7	Sololá	701	Sololá	1	Sololá	2	Febrero	2023-01-02T00:00:00	2024-11-08T17:00:00	2	Temperatura media	19.1
4018	7	Sololá	701	Sololá	1	Sololá	2	Febrero	2023-01-02T00:00:00	2024-11-08T17:00:00	4	Temperatura máxima	20.4
4019	7	Sololá	701	Sololá	1	Sololá	2	Febrero	2023-01-02T00:00:00	2024-11-08T17:00:00	3	Temperatura mínima	19.1
4020	7	Sololá	701	Sololá	1	Sololá	2	Febrero	2023-01-02T00:00:00	2024-11-08T17:00:00	5	Humedad	75
4021	7	Sololá	701	Sololá	1	Sololá	2	Febrero	2023-01-02T00:00:00	2024-11-08T17:00:00	6	Velocidad del viento	6.4
4022	7	Sololá	701	Sololá	1	Sololá	2	Febrero	2023-01-02T00:00:00	2024-11-08T17:00:00	7	Dirección del viento	6.44
4023	7	Sololá	701	Sololá	1	Sololá	2	Febrero	2023-01-02T00:00:00	2024-11-08T17:00:00	1	Precipitación	0
4024	7	Sololá	701	Sololá	1	Sololá	2	Febrero	2023-01-02T00:00:00	2024-11-08T17:00:00	8	Radiación solar	93
4025	7	Sololá	701	Sololá	1	Sololá	2	Febrero	2023-01-02T00:00:00	2024-11-08T18:00:00	2	Temperatura media	17.5
4026	7	Sololá	701	Sololá	1	Sololá	2	Febrero	2023-01-02T00:00:00	2024-11-08T18:00:00	4	Temperatura máxima	19.1
4027	7	Sololá	701	Sololá	1	Sololá	2	Febrero	2023-01-02T00:00:00	2024-11-08T18:00:00	3	Temperatura mínima	17.4
4028	7	Sololá	701	Sololá	1	Sololá	2	Febrero	2023-01-02T00:00:00	2024-11-08T18:00:00	5	Humedad	71
4029	7	Sololá	701	Sololá	1	Sololá	2	Febrero	2023-01-02T00:00:00	2024-11-08T18:00:00	6	Velocidad del viento	3.2
4030	7	Sololá	701	Sololá	1	Sololá	2	Febrero	2023-01-02T00:00:00	2024-11-08T18:00:00	7	Dirección del viento	3.22
4031	7	Sololá	701	Sololá	1	Sololá	2	Febrero	2023-01-02T00:00:00	2024-11-08T18:00:00	1	Precipitación	0
4032	7	Sololá	701	Sololá	1	Sololá	2	Febrero	2023-01-02T00:00:00	2024-11-08T18:00:00	8	Radiación solar	36
4033	7	Sololá	701	Sololá	1	Sololá	2	Febrero	2023-01-02T00:00:00	2024-11-08T19:00:00	2	Temperatura media	16.2
4034	7	Sololá	701	Sololá	1	Sololá	2	Febrero	2023-01-02T00:00:00	2024-11-08T19:00:00	4	Temperatura máxima	17.5
4035	7	Sololá	701	Sololá	1	Sololá	2	Febrero	2023-01-02T00:00:00	2024-11-08T19:00:00	3	Temperatura mínima	16.1
4036	7	Sololá	701	Sololá	1	Sololá	2	Febrero	2023-01-02T00:00:00	2024-11-08T19:00:00	5	Humedad	71
4037	7	Sololá	701	Sololá	1	Sololá	2	Febrero	2023-01-02T00:00:00	2024-11-08T19:00:00	6	Velocidad del viento	11.3
4038	7	Sololá	701	Sololá	1	Sololá	2	Febrero	2023-01-02T00:00:00	2024-11-08T19:00:00	7	Dirección del viento	11.27
4039	7	Sololá	701	Sololá	1	Sololá	2	Febrero	2023-01-02T00:00:00	2024-11-08T19:00:00	1	Precipitación	0
4040	7	Sololá	701	Sololá	1	Sololá	2	Febrero	2023-01-02T00:00:00	2024-11-08T19:00:00	8	Radiación solar	0
4041	7	Sololá	701	Sololá	1	Sololá	2	Febrero	2023-01-02T00:00:00	2024-11-08T20:00:00	2	Temperatura media	15.2
4042	7	Sololá	701	Sololá	1	Sololá	2	Febrero	2023-01-02T00:00:00	2024-11-08T20:00:00	4	Temperatura máxima	16.2
4043	7	Sololá	701	Sololá	1	Sololá	2	Febrero	2023-01-02T00:00:00	2024-11-08T20:00:00	3	Temperatura mínima	15.2
4044	7	Sololá	701	Sololá	1	Sololá	2	Febrero	2023-01-02T00:00:00	2024-11-08T20:00:00	5	Humedad	74
4045	7	Sololá	701	Sololá	1	Sololá	2	Febrero	2023-01-02T00:00:00	2024-11-08T20:00:00	6	Velocidad del viento	9.7
4046	7	Sololá	701	Sololá	1	Sololá	2	Febrero	2023-01-02T00:00:00	2024-11-08T20:00:00	7	Dirección del viento	9.66
4047	7	Sololá	701	Sololá	1	Sololá	2	Febrero	2023-01-02T00:00:00	2024-11-08T20:00:00	1	Precipitación	0
4048	7	Sololá	701	Sololá	1	Sololá	2	Febrero	2023-01-02T00:00:00	2024-11-08T20:00:00	8	Radiación solar	0
4049	7	Sololá	701	Sololá	1	Sololá	2	Febrero	2023-01-02T00:00:00	2024-11-08T21:00:00	2	Temperatura media	14.6
4050	7	Sololá	701	Sololá	1	Sololá	2	Febrero	2023-01-02T00:00:00	2024-11-08T21:00:00	4	Temperatura máxima	15.2
4051	7	Sololá	701	Sololá	1	Sololá	2	Febrero	2023-01-02T00:00:00	2024-11-08T21:00:00	3	Temperatura mínima	14.6
4052	7	Sololá	701	Sololá	1	Sololá	2	Febrero	2023-01-02T00:00:00	2024-11-08T21:00:00	5	Humedad	74
4053	7	Sololá	701	Sololá	1	Sololá	2	Febrero	2023-01-02T00:00:00	2024-11-08T21:00:00	6	Velocidad del viento	19.3
4054	7	Sololá	701	Sololá	1	Sololá	2	Febrero	2023-01-02T00:00:00	2024-11-08T21:00:00	7	Dirección del viento	19.31
4055	7	Sololá	701	Sololá	1	Sololá	2	Febrero	2023-01-02T00:00:00	2024-11-08T21:00:00	1	Precipitación	0
4056	7	Sololá	701	Sololá	1	Sololá	2	Febrero	2023-01-02T00:00:00	2024-11-08T21:00:00	8	Radiación solar	0
4057	7	Sololá	701	Sololá	1	Sololá	2	Febrero	2023-01-02T00:00:00	2024-11-08T22:00:00	2	Temperatura media	14.3
4058	7	Sololá	701	Sololá	1	Sololá	2	Febrero	2023-01-02T00:00:00	2024-11-08T22:00:00	4	Temperatura máxima	14.6
4059	7	Sololá	701	Sololá	1	Sololá	2	Febrero	2023-01-02T00:00:00	2024-11-08T22:00:00	3	Temperatura mínima	14.2
4060	7	Sololá	701	Sololá	1	Sololá	2	Febrero	2023-01-02T00:00:00	2024-11-08T22:00:00	5	Humedad	72
4061	7	Sololá	701	Sololá	1	Sololá	2	Febrero	2023-01-02T00:00:00	2024-11-08T22:00:00	6	Velocidad del viento	24.1
4062	7	Sololá	701	Sololá	1	Sololá	2	Febrero	2023-01-02T00:00:00	2024-11-08T22:00:00	7	Dirección del viento	24.14
4063	7	Sololá	701	Sololá	1	Sololá	2	Febrero	2023-01-02T00:00:00	2024-11-08T22:00:00	1	Precipitación	0
4064	7	Sololá	701	Sololá	1	Sololá	2	Febrero	2023-01-02T00:00:00	2024-11-08T22:00:00	8	Radiación solar	0
4065	7	Sololá	701	Sololá	1	Sololá	2	Febrero	2023-01-02T00:00:00	2024-11-08T23:00:00	2	Temperatura media	13.8
4066	7	Sololá	701	Sololá	1	Sololá	2	Febrero	2023-01-02T00:00:00	2024-11-08T23:00:00	4	Temperatura máxima	14.4
4067	7	Sololá	701	Sololá	1	Sololá	2	Febrero	2023-01-02T00:00:00	2024-11-08T23:00:00	3	Temperatura mínima	13.8
4068	7	Sololá	701	Sololá	1	Sololá	2	Febrero	2023-01-02T00:00:00	2024-11-08T23:00:00	5	Humedad	73
4069	7	Sololá	701	Sololá	1	Sololá	2	Febrero	2023-01-02T00:00:00	2024-11-08T23:00:00	6	Velocidad del viento	19.3
4070	7	Sololá	701	Sololá	1	Sololá	2	Febrero	2023-01-02T00:00:00	2024-11-08T23:00:00	7	Dirección del viento	19.31
4071	7	Sololá	701	Sololá	1	Sololá	2	Febrero	2023-01-02T00:00:00	2024-11-08T23:00:00	1	Precipitación	0
4072	7	Sololá	701	Sololá	1	Sololá	2	Febrero	2023-01-02T00:00:00	2024-11-08T23:00:00	8	Radiación solar	0
4073	7	Sololá	701	Sololá	1	Sololá	2	Febrero	2023-02-02T00:00:00	2024-11-08T00:00:00	2	Temperatura media	13.6
4074	7	Sololá	701	Sololá	1	Sololá	2	Febrero	2023-02-02T00:00:00	2024-11-08T00:00:00	4	Temperatura máxima	13.8
4075	7	Sololá	701	Sololá	1	Sololá	2	Febrero	2023-02-02T00:00:00	2024-11-08T00:00:00	3	Temperatura mínima	13.5
4076	7	Sololá	701	Sololá	1	Sololá	2	Febrero	2023-02-02T00:00:00	2024-11-08T00:00:00	5	Humedad	73
4077	7	Sololá	701	Sololá	1	Sololá	2	Febrero	2023-02-02T00:00:00	2024-11-08T00:00:00	6	Velocidad del viento	16.1
4078	7	Sololá	701	Sololá	1	Sololá	2	Febrero	2023-02-02T00:00:00	2024-11-08T00:00:00	7	Dirección del viento	16.09
4079	7	Sololá	701	Sololá	1	Sololá	2	Febrero	2023-02-02T00:00:00	2024-11-08T00:00:00	1	Precipitación	0
4080	7	Sololá	701	Sololá	1	Sololá	2	Febrero	2023-02-02T00:00:00	2024-11-08T00:00:00	8	Radiación solar	0
4081	7	Sololá	701	Sololá	1	Sololá	2	Febrero	2023-02-02T00:00:00	2024-11-08T01:00:00	2	Temperatura media	13.1
4082	7	Sololá	701	Sololá	1	Sololá	2	Febrero	2023-02-02T00:00:00	2024-11-08T01:00:00	4	Temperatura máxima	13.6
4083	7	Sololá	701	Sololá	1	Sololá	2	Febrero	2023-02-02T00:00:00	2024-11-08T01:00:00	3	Temperatura mínima	13.1
4084	7	Sololá	701	Sololá	1	Sololá	2	Febrero	2023-02-02T00:00:00	2024-11-08T01:00:00	5	Humedad	74
4085	7	Sololá	701	Sololá	1	Sololá	2	Febrero	2023-02-02T00:00:00	2024-11-08T01:00:00	6	Velocidad del viento	14.5
4086	7	Sololá	701	Sololá	1	Sololá	2	Febrero	2023-02-02T00:00:00	2024-11-08T01:00:00	7	Dirección del viento	14.48
4087	7	Sololá	701	Sololá	1	Sololá	2	Febrero	2023-02-02T00:00:00	2024-11-08T01:00:00	1	Precipitación	0
4088	7	Sololá	701	Sololá	1	Sololá	2	Febrero	2023-02-02T00:00:00	2024-11-08T01:00:00	8	Radiación solar	0
4089	7	Sololá	701	Sololá	1	Sololá	2	Febrero	2023-02-02T00:00:00	2024-11-08T02:00:00	2	Temperatura media	12.7
4090	7	Sololá	701	Sololá	1	Sololá	2	Febrero	2023-02-02T00:00:00	2024-11-08T02:00:00	4	Temperatura máxima	13.1
4091	7	Sololá	701	Sololá	1	Sololá	2	Febrero	2023-02-02T00:00:00	2024-11-08T02:00:00	3	Temperatura mínima	12.6
4092	7	Sololá	701	Sololá	1	Sololá	2	Febrero	2023-02-02T00:00:00	2024-11-08T02:00:00	5	Humedad	72
4093	7	Sololá	701	Sololá	1	Sololá	2	Febrero	2023-02-02T00:00:00	2024-11-08T02:00:00	6	Velocidad del viento	16.1
4094	7	Sololá	701	Sololá	1	Sololá	2	Febrero	2023-02-02T00:00:00	2024-11-08T02:00:00	7	Dirección del viento	16.09
4095	7	Sololá	701	Sololá	1	Sololá	2	Febrero	2023-02-02T00:00:00	2024-11-08T02:00:00	1	Precipitación	0
4096	7	Sololá	701	Sololá	1	Sololá	2	Febrero	2023-02-02T00:00:00	2024-11-08T02:00:00	8	Radiación solar	0
4097	7	Sololá	701	Sololá	1	Sololá	2	Febrero	2023-02-02T00:00:00	2024-11-08T03:00:00	2	Temperatura media	12.3
4098	7	Sololá	701	Sololá	1	Sololá	2	Febrero	2023-02-02T00:00:00	2024-11-08T03:00:00	4	Temperatura máxima	12.7
4099	7	Sololá	701	Sololá	1	Sololá	2	Febrero	2023-02-02T00:00:00	2024-11-08T03:00:00	3	Temperatura mínima	12.3
4100	7	Sololá	701	Sololá	1	Sololá	2	Febrero	2023-02-02T00:00:00	2024-11-08T03:00:00	5	Humedad	73
4101	7	Sololá	701	Sololá	1	Sololá	2	Febrero	2023-02-02T00:00:00	2024-11-08T03:00:00	6	Velocidad del viento	12.9
4102	7	Sololá	701	Sololá	1	Sololá	2	Febrero	2023-02-02T00:00:00	2024-11-08T03:00:00	7	Dirección del viento	12.87
4103	7	Sololá	701	Sololá	1	Sololá	2	Febrero	2023-02-02T00:00:00	2024-11-08T03:00:00	1	Precipitación	0
4104	7	Sololá	701	Sololá	1	Sololá	2	Febrero	2023-02-02T00:00:00	2024-11-08T03:00:00	8	Radiación solar	0
4105	7	Sololá	701	Sololá	1	Sololá	2	Febrero	2023-02-02T00:00:00	2024-11-08T04:00:00	2	Temperatura media	7.9
4106	7	Sololá	701	Sololá	1	Sololá	2	Febrero	2023-02-02T00:00:00	2024-11-08T04:00:00	4	Temperatura máxima	12.4
4107	7	Sololá	701	Sololá	1	Sololá	2	Febrero	2023-02-02T00:00:00	2024-11-08T04:00:00	3	Temperatura mínima	7.9
4108	7	Sololá	701	Sololá	1	Sololá	2	Febrero	2023-02-02T00:00:00	2024-11-08T04:00:00	5	Humedad	70
4109	7	Sololá	701	Sololá	1	Sololá	2	Febrero	2023-02-02T00:00:00	2024-11-08T04:00:00	6	Velocidad del viento	9.7
4110	7	Sololá	701	Sololá	1	Sololá	2	Febrero	2023-02-02T00:00:00	2024-11-08T04:00:00	7	Dirección del viento	9.66
4111	7	Sololá	701	Sololá	1	Sololá	2	Febrero	2023-02-02T00:00:00	2024-11-08T04:00:00	1	Precipitación	0
4112	7	Sololá	701	Sololá	1	Sololá	2	Febrero	2023-02-02T00:00:00	2024-11-08T04:00:00	8	Radiación solar	0
4113	7	Sololá	701	Sololá	1	Sololá	2	Febrero	2023-02-02T00:00:00	2024-11-08T05:00:00	2	Temperatura media	10.6
4114	7	Sololá	701	Sololá	1	Sololá	2	Febrero	2023-02-02T00:00:00	2024-11-08T05:00:00	4	Temperatura máxima	10.6
4115	7	Sololá	701	Sololá	1	Sololá	2	Febrero	2023-02-02T00:00:00	2024-11-08T05:00:00	3	Temperatura mínima	7.8
4116	7	Sololá	701	Sololá	1	Sololá	2	Febrero	2023-02-02T00:00:00	2024-11-08T05:00:00	5	Humedad	76
4117	7	Sololá	701	Sololá	1	Sololá	2	Febrero	2023-02-02T00:00:00	2024-11-08T05:00:00	6	Velocidad del viento	9.7
4118	7	Sololá	701	Sololá	1	Sololá	2	Febrero	2023-02-02T00:00:00	2024-11-08T05:00:00	7	Dirección del viento	9.66
4119	7	Sololá	701	Sololá	1	Sololá	2	Febrero	2023-02-02T00:00:00	2024-11-08T05:00:00	1	Precipitación	0
4120	7	Sololá	701	Sololá	1	Sololá	2	Febrero	2023-02-02T00:00:00	2024-11-08T05:00:00	8	Radiación solar	0
4121	7	Sololá	701	Sololá	1	Sololá	2	Febrero	2023-02-02T00:00:00	2024-11-08T06:00:00	2	Temperatura media	11.3
4122	7	Sololá	701	Sololá	1	Sololá	2	Febrero	2023-02-02T00:00:00	2024-11-08T06:00:00	4	Temperatura máxima	12.7
4123	7	Sololá	701	Sololá	1	Sololá	2	Febrero	2023-02-02T00:00:00	2024-11-08T06:00:00	3	Temperatura mínima	9.9
4124	7	Sololá	701	Sololá	1	Sololá	2	Febrero	2023-02-02T00:00:00	2024-11-08T06:00:00	5	Humedad	67
4125	7	Sololá	701	Sololá	1	Sololá	2	Febrero	2023-02-02T00:00:00	2024-11-08T06:00:00	6	Velocidad del viento	11.3
4126	7	Sololá	701	Sololá	1	Sololá	2	Febrero	2023-02-02T00:00:00	2024-11-08T06:00:00	7	Dirección del viento	11.27
4127	7	Sololá	701	Sololá	1	Sololá	2	Febrero	2023-02-02T00:00:00	2024-11-08T06:00:00	1	Precipitación	0
4128	7	Sololá	701	Sololá	1	Sololá	2	Febrero	2023-02-02T00:00:00	2024-11-08T06:00:00	8	Radiación solar	0
4129	7	Sololá	701	Sololá	1	Sololá	2	Febrero	2023-02-02T00:00:00	2024-11-08T07:00:00	2	Temperatura media	9.8
4130	7	Sololá	701	Sololá	1	Sololá	2	Febrero	2023-02-02T00:00:00	2024-11-08T07:00:00	4	Temperatura máxima	12.2
4131	7	Sololá	701	Sololá	1	Sololá	2	Febrero	2023-02-02T00:00:00	2024-11-08T07:00:00	3	Temperatura mínima	9.8
4132	7	Sololá	701	Sololá	1	Sololá	2	Febrero	2023-02-02T00:00:00	2024-11-08T07:00:00	5	Humedad	57
4133	7	Sololá	701	Sololá	1	Sololá	2	Febrero	2023-02-02T00:00:00	2024-11-08T07:00:00	6	Velocidad del viento	9.7
4134	7	Sololá	701	Sololá	1	Sololá	2	Febrero	2023-02-02T00:00:00	2024-11-08T07:00:00	7	Dirección del viento	9.66
4135	7	Sololá	701	Sololá	1	Sololá	2	Febrero	2023-02-02T00:00:00	2024-11-08T07:00:00	1	Precipitación	0
4136	7	Sololá	701	Sololá	1	Sololá	2	Febrero	2023-02-02T00:00:00	2024-11-08T07:00:00	8	Radiación solar	5
4137	7	Sololá	701	Sololá	1	Sololá	2	Febrero	2023-02-02T00:00:00	2024-11-08T08:00:00	2	Temperatura media	14.6
4138	7	Sololá	701	Sololá	1	Sololá	2	Febrero	2023-02-02T00:00:00	2024-11-08T08:00:00	4	Temperatura máxima	14.6
4139	7	Sololá	701	Sololá	1	Sololá	2	Febrero	2023-02-02T00:00:00	2024-11-08T08:00:00	3	Temperatura mínima	9.6
4140	7	Sololá	701	Sololá	1	Sololá	2	Febrero	2023-02-02T00:00:00	2024-11-08T08:00:00	5	Humedad	56
4141	7	Sololá	701	Sololá	1	Sololá	2	Febrero	2023-02-02T00:00:00	2024-11-08T08:00:00	6	Velocidad del viento	6.4
4142	7	Sololá	701	Sololá	1	Sololá	2	Febrero	2023-02-02T00:00:00	2024-11-08T08:00:00	7	Dirección del viento	6.44
4143	7	Sololá	701	Sololá	1	Sololá	2	Febrero	2023-02-02T00:00:00	2024-11-08T08:00:00	1	Precipitación	0
4144	7	Sololá	701	Sololá	1	Sololá	2	Febrero	2023-02-02T00:00:00	2024-11-08T08:00:00	8	Radiación solar	24
4145	7	Sololá	701	Sololá	1	Sololá	2	Febrero	2023-02-02T00:00:00	2024-11-08T09:00:00	2	Temperatura media	17.6
4146	7	Sololá	701	Sololá	1	Sololá	2	Febrero	2023-02-02T00:00:00	2024-11-08T09:00:00	4	Temperatura máxima	17.6
4147	7	Sololá	701	Sololá	1	Sololá	2	Febrero	2023-02-02T00:00:00	2024-11-08T09:00:00	3	Temperatura mínima	14.4
4148	7	Sololá	701	Sololá	1	Sololá	2	Febrero	2023-02-02T00:00:00	2024-11-08T09:00:00	5	Humedad	44
4149	7	Sololá	701	Sololá	1	Sololá	2	Febrero	2023-02-02T00:00:00	2024-11-08T09:00:00	6	Velocidad del viento	6.4
4150	7	Sololá	701	Sololá	1	Sololá	2	Febrero	2023-02-02T00:00:00	2024-11-08T09:00:00	7	Dirección del viento	6.44
4151	7	Sololá	701	Sololá	1	Sololá	2	Febrero	2023-02-02T00:00:00	2024-11-08T09:00:00	1	Precipitación	0
4152	7	Sololá	701	Sololá	1	Sololá	2	Febrero	2023-02-02T00:00:00	2024-11-08T09:00:00	8	Radiación solar	416
4153	7	Sololá	701	Sololá	1	Sololá	2	Febrero	2023-02-02T00:00:00	2024-11-08T10:00:00	2	Temperatura media	18.4
4154	7	Sololá	701	Sololá	1	Sololá	2	Febrero	2023-02-02T00:00:00	2024-11-08T10:00:00	4	Temperatura máxima	18.6
4155	7	Sololá	701	Sololá	1	Sololá	2	Febrero	2023-02-02T00:00:00	2024-11-08T10:00:00	3	Temperatura mínima	17.6
4156	7	Sololá	701	Sololá	1	Sololá	2	Febrero	2023-02-02T00:00:00	2024-11-08T10:00:00	5	Humedad	52
4157	7	Sololá	701	Sololá	1	Sololá	2	Febrero	2023-02-02T00:00:00	2024-11-08T10:00:00	6	Velocidad del viento	6.4
4158	7	Sololá	701	Sololá	1	Sololá	2	Febrero	2023-02-02T00:00:00	2024-11-08T10:00:00	7	Dirección del viento	6.44
4159	7	Sololá	701	Sololá	1	Sololá	2	Febrero	2023-02-02T00:00:00	2024-11-08T10:00:00	1	Precipitación	0
4160	7	Sololá	701	Sololá	1	Sololá	2	Febrero	2023-02-02T00:00:00	2024-11-08T10:00:00	8	Radiación solar	708
4161	7	Sololá	701	Sololá	1	Sololá	2	Febrero	2023-02-02T00:00:00	2024-11-08T11:00:00	2	Temperatura media	19.1
4162	7	Sololá	701	Sololá	1	Sololá	2	Febrero	2023-02-02T00:00:00	2024-11-08T11:00:00	4	Temperatura máxima	19.6
4163	7	Sololá	701	Sololá	1	Sololá	2	Febrero	2023-02-02T00:00:00	2024-11-08T11:00:00	3	Temperatura mínima	18.3
4164	7	Sololá	701	Sololá	1	Sololá	2	Febrero	2023-02-02T00:00:00	2024-11-08T11:00:00	5	Humedad	42
4165	7	Sololá	701	Sololá	1	Sololá	2	Febrero	2023-02-02T00:00:00	2024-11-08T11:00:00	6	Velocidad del viento	6.4
4166	7	Sololá	701	Sololá	1	Sololá	2	Febrero	2023-02-02T00:00:00	2024-11-08T11:00:00	7	Dirección del viento	6.44
4167	7	Sololá	701	Sololá	1	Sololá	2	Febrero	2023-02-02T00:00:00	2024-11-08T11:00:00	1	Precipitación	0
4168	7	Sololá	701	Sololá	1	Sololá	2	Febrero	2023-02-02T00:00:00	2024-11-08T11:00:00	8	Radiación solar	869
4169	7	Sololá	701	Sololá	1	Sololá	2	Febrero	2023-02-02T00:00:00	2024-11-08T12:00:00	2	Temperatura media	20.4
4170	7	Sololá	701	Sololá	1	Sololá	2	Febrero	2023-02-02T00:00:00	2024-11-08T12:00:00	4	Temperatura máxima	20.8
4171	7	Sololá	701	Sololá	1	Sololá	2	Febrero	2023-02-02T00:00:00	2024-11-08T12:00:00	3	Temperatura mínima	19.1
4172	7	Sololá	701	Sololá	1	Sololá	2	Febrero	2023-02-02T00:00:00	2024-11-08T12:00:00	5	Humedad	34
4173	7	Sololá	701	Sololá	1	Sololá	2	Febrero	2023-02-02T00:00:00	2024-11-08T12:00:00	6	Velocidad del viento	8
4174	7	Sololá	701	Sololá	1	Sololá	2	Febrero	2023-02-02T00:00:00	2024-11-08T12:00:00	7	Dirección del viento	8.05
4175	7	Sololá	701	Sololá	1	Sololá	2	Febrero	2023-02-02T00:00:00	2024-11-08T12:00:00	1	Precipitación	0
4176	7	Sololá	701	Sololá	1	Sololá	2	Febrero	2023-02-02T00:00:00	2024-11-08T12:00:00	8	Radiación solar	959
4177	7	Sololá	701	Sololá	1	Sololá	2	Febrero	2023-02-02T00:00:00	2024-11-08T13:00:00	2	Temperatura media	21.6
4178	7	Sololá	701	Sololá	1	Sololá	2	Febrero	2023-02-02T00:00:00	2024-11-08T13:00:00	4	Temperatura máxima	21.9
4179	7	Sololá	701	Sololá	1	Sololá	2	Febrero	2023-02-02T00:00:00	2024-11-08T13:00:00	3	Temperatura mínima	20.5
4180	7	Sololá	701	Sololá	1	Sololá	2	Febrero	2023-02-02T00:00:00	2024-11-08T13:00:00	5	Humedad	38
4181	7	Sololá	701	Sololá	1	Sololá	2	Febrero	2023-02-02T00:00:00	2024-11-08T13:00:00	6	Velocidad del viento	8
4182	7	Sololá	701	Sololá	1	Sololá	2	Febrero	2023-02-02T00:00:00	2024-11-08T13:00:00	7	Dirección del viento	8.05
4183	7	Sololá	701	Sololá	1	Sololá	2	Febrero	2023-02-02T00:00:00	2024-11-08T13:00:00	1	Precipitación	0
4184	7	Sololá	701	Sololá	1	Sololá	2	Febrero	2023-02-02T00:00:00	2024-11-08T13:00:00	8	Radiación solar	965
4185	7	Sololá	701	Sololá	1	Sololá	2	Febrero	2023-02-02T00:00:00	2024-11-08T14:00:00	2	Temperatura media	21.4
4186	7	Sololá	701	Sololá	1	Sololá	2	Febrero	2023-02-02T00:00:00	2024-11-08T14:00:00	4	Temperatura máxima	21.9
4187	7	Sololá	701	Sololá	1	Sololá	2	Febrero	2023-02-02T00:00:00	2024-11-08T14:00:00	3	Temperatura mínima	21.4
4188	7	Sololá	701	Sololá	1	Sololá	2	Febrero	2023-02-02T00:00:00	2024-11-08T14:00:00	5	Humedad	50
4189	7	Sololá	701	Sololá	1	Sololá	2	Febrero	2023-02-02T00:00:00	2024-11-08T14:00:00	6	Velocidad del viento	8
4190	7	Sololá	701	Sololá	1	Sololá	2	Febrero	2023-02-02T00:00:00	2024-11-08T14:00:00	7	Dirección del viento	8.05
4191	7	Sololá	701	Sololá	1	Sololá	2	Febrero	2023-02-02T00:00:00	2024-11-08T14:00:00	1	Precipitación	0
4192	7	Sololá	701	Sololá	1	Sololá	2	Febrero	2023-02-02T00:00:00	2024-11-08T14:00:00	8	Radiación solar	304
4193	7	Sololá	701	Sololá	1	Sololá	2	Febrero	2023-02-02T00:00:00	2024-11-08T15:00:00	2	Temperatura media	21.2
4194	7	Sololá	701	Sololá	1	Sololá	2	Febrero	2023-02-02T00:00:00	2024-11-08T15:00:00	4	Temperatura máxima	21.6
4195	7	Sololá	701	Sololá	1	Sololá	2	Febrero	2023-02-02T00:00:00	2024-11-08T15:00:00	3	Temperatura mínima	20.9
4196	7	Sololá	701	Sololá	1	Sololá	2	Febrero	2023-02-02T00:00:00	2024-11-08T15:00:00	5	Humedad	56
4197	7	Sololá	701	Sololá	1	Sololá	2	Febrero	2023-02-02T00:00:00	2024-11-08T15:00:00	6	Velocidad del viento	6.4
4198	7	Sololá	701	Sololá	1	Sololá	2	Febrero	2023-02-02T00:00:00	2024-11-08T15:00:00	7	Dirección del viento	6.44
4199	7	Sololá	701	Sololá	1	Sololá	2	Febrero	2023-02-02T00:00:00	2024-11-08T15:00:00	1	Precipitación	0
4200	7	Sololá	701	Sololá	1	Sololá	2	Febrero	2023-02-02T00:00:00	2024-11-08T15:00:00	8	Radiación solar	232
4201	7	Sololá	701	Sololá	1	Sololá	2	Febrero	2023-02-02T00:00:00	2024-11-08T16:00:00	2	Temperatura media	20.4
4202	7	Sololá	701	Sololá	1	Sololá	2	Febrero	2023-02-02T00:00:00	2024-11-08T16:00:00	4	Temperatura máxima	21.2
4203	7	Sololá	701	Sololá	1	Sololá	2	Febrero	2023-02-02T00:00:00	2024-11-08T16:00:00	3	Temperatura mínima	20.4
4204	7	Sololá	701	Sololá	1	Sololá	2	Febrero	2023-02-02T00:00:00	2024-11-08T16:00:00	5	Humedad	62
4205	7	Sololá	701	Sololá	1	Sololá	2	Febrero	2023-02-02T00:00:00	2024-11-08T16:00:00	6	Velocidad del viento	6.4
4206	7	Sololá	701	Sololá	1	Sololá	2	Febrero	2023-02-02T00:00:00	2024-11-08T16:00:00	7	Dirección del viento	6.44
4207	7	Sololá	701	Sololá	1	Sololá	2	Febrero	2023-02-02T00:00:00	2024-11-08T16:00:00	1	Precipitación	0
4208	7	Sololá	701	Sololá	1	Sololá	2	Febrero	2023-02-02T00:00:00	2024-11-08T16:00:00	8	Radiación solar	128
4209	7	Sololá	701	Sololá	1	Sololá	2	Febrero	2023-02-02T00:00:00	2024-11-08T17:00:00	2	Temperatura media	19.4
4210	7	Sololá	701	Sololá	1	Sololá	2	Febrero	2023-02-02T00:00:00	2024-11-08T17:00:00	4	Temperatura máxima	20.6
4211	7	Sololá	701	Sololá	1	Sololá	2	Febrero	2023-02-02T00:00:00	2024-11-08T17:00:00	3	Temperatura mínima	19.3
4212	7	Sololá	701	Sololá	1	Sololá	2	Febrero	2023-02-02T00:00:00	2024-11-08T17:00:00	5	Humedad	70
4213	7	Sololá	701	Sololá	1	Sololá	2	Febrero	2023-02-02T00:00:00	2024-11-08T17:00:00	6	Velocidad del viento	4.8
4214	7	Sololá	701	Sololá	1	Sololá	2	Febrero	2023-02-02T00:00:00	2024-11-08T17:00:00	7	Dirección del viento	4.83
4215	7	Sololá	701	Sololá	1	Sololá	2	Febrero	2023-02-02T00:00:00	2024-11-08T17:00:00	1	Precipitación	0
4216	7	Sololá	701	Sololá	1	Sololá	2	Febrero	2023-02-02T00:00:00	2024-11-08T17:00:00	8	Radiación solar	77
4217	7	Sololá	701	Sololá	1	Sololá	2	Febrero	2023-02-02T00:00:00	2024-11-08T18:00:00	2	Temperatura media	18.3
4218	7	Sololá	701	Sololá	1	Sololá	2	Febrero	2023-02-02T00:00:00	2024-11-08T18:00:00	4	Temperatura máxima	19.4
4219	7	Sololá	701	Sololá	1	Sololá	2	Febrero	2023-02-02T00:00:00	2024-11-08T18:00:00	3	Temperatura mínima	18.3
4220	7	Sololá	701	Sololá	1	Sololá	2	Febrero	2023-02-02T00:00:00	2024-11-08T18:00:00	5	Humedad	37
4221	7	Sololá	701	Sololá	1	Sololá	2	Febrero	2023-02-02T00:00:00	2024-11-08T18:00:00	6	Velocidad del viento	4.8
4222	7	Sololá	701	Sololá	1	Sololá	2	Febrero	2023-02-02T00:00:00	2024-11-08T18:00:00	7	Dirección del viento	4.83
4223	7	Sololá	701	Sololá	1	Sololá	2	Febrero	2023-02-02T00:00:00	2024-11-08T18:00:00	1	Precipitación	0
4224	7	Sololá	701	Sololá	1	Sololá	2	Febrero	2023-02-02T00:00:00	2024-11-08T18:00:00	8	Radiación solar	39
4225	7	Sololá	701	Sololá	1	Sololá	2	Febrero	2023-02-02T00:00:00	2024-11-08T19:00:00	2	Temperatura media	16.4
4226	7	Sololá	701	Sololá	1	Sololá	2	Febrero	2023-02-02T00:00:00	2024-11-08T19:00:00	4	Temperatura máxima	18.3
4227	7	Sololá	701	Sololá	1	Sololá	2	Febrero	2023-02-02T00:00:00	2024-11-08T19:00:00	3	Temperatura mínima	16.4
4228	7	Sololá	701	Sololá	1	Sololá	2	Febrero	2023-02-02T00:00:00	2024-11-08T19:00:00	5	Humedad	64
4229	7	Sololá	701	Sololá	1	Sololá	2	Febrero	2023-02-02T00:00:00	2024-11-08T19:00:00	6	Velocidad del viento	6.4
4230	7	Sololá	701	Sololá	1	Sololá	2	Febrero	2023-02-02T00:00:00	2024-11-08T19:00:00	7	Dirección del viento	6.44
4231	7	Sololá	701	Sololá	1	Sololá	2	Febrero	2023-02-02T00:00:00	2024-11-08T19:00:00	1	Precipitación	0
4232	7	Sololá	701	Sololá	1	Sololá	2	Febrero	2023-02-02T00:00:00	2024-11-08T19:00:00	8	Radiación solar	0
4233	7	Sololá	701	Sololá	1	Sololá	2	Febrero	2023-02-02T00:00:00	2024-11-08T20:00:00	2	Temperatura media	15
4234	7	Sololá	701	Sololá	1	Sololá	2	Febrero	2023-02-02T00:00:00	2024-11-08T20:00:00	4	Temperatura máxima	16.4
4235	7	Sololá	701	Sololá	1	Sololá	2	Febrero	2023-02-02T00:00:00	2024-11-08T20:00:00	3	Temperatura mínima	15
4236	7	Sololá	701	Sololá	1	Sololá	2	Febrero	2023-02-02T00:00:00	2024-11-08T20:00:00	5	Humedad	73
4237	7	Sololá	701	Sololá	1	Sololá	2	Febrero	2023-02-02T00:00:00	2024-11-08T20:00:00	6	Velocidad del viento	11.3
4238	7	Sololá	701	Sololá	1	Sololá	2	Febrero	2023-02-02T00:00:00	2024-11-08T20:00:00	7	Dirección del viento	11.27
4239	7	Sololá	701	Sololá	1	Sololá	2	Febrero	2023-02-02T00:00:00	2024-11-08T20:00:00	1	Precipitación	0
4240	7	Sololá	701	Sololá	1	Sololá	2	Febrero	2023-02-02T00:00:00	2024-11-08T20:00:00	8	Radiación solar	0
4241	7	Sololá	701	Sololá	1	Sololá	2	Febrero	2023-02-02T00:00:00	2024-11-08T21:00:00	2	Temperatura media	14.6
4242	7	Sololá	701	Sololá	1	Sololá	2	Febrero	2023-02-02T00:00:00	2024-11-08T21:00:00	4	Temperatura máxima	15
4243	7	Sololá	701	Sololá	1	Sololá	2	Febrero	2023-02-02T00:00:00	2024-11-08T21:00:00	3	Temperatura mínima	14.4
4244	7	Sololá	701	Sololá	1	Sololá	2	Febrero	2023-02-02T00:00:00	2024-11-08T21:00:00	5	Humedad	72
4245	7	Sololá	701	Sololá	1	Sololá	2	Febrero	2023-02-02T00:00:00	2024-11-08T21:00:00	6	Velocidad del viento	8
4246	7	Sololá	701	Sololá	1	Sololá	2	Febrero	2023-02-02T00:00:00	2024-11-08T21:00:00	7	Dirección del viento	8.05
4247	7	Sololá	701	Sololá	1	Sololá	2	Febrero	2023-02-02T00:00:00	2024-11-08T21:00:00	1	Precipitación	0
4248	7	Sololá	701	Sololá	1	Sololá	2	Febrero	2023-02-02T00:00:00	2024-11-08T21:00:00	8	Radiación solar	0
4249	7	Sololá	701	Sololá	1	Sololá	2	Febrero	2023-02-02T00:00:00	2024-11-08T22:00:00	2	Temperatura media	13.9
4250	7	Sololá	701	Sololá	1	Sololá	2	Febrero	2023-02-02T00:00:00	2024-11-08T22:00:00	4	Temperatura máxima	14.7
4251	7	Sololá	701	Sololá	1	Sololá	2	Febrero	2023-02-02T00:00:00	2024-11-08T22:00:00	3	Temperatura mínima	13.9
4252	7	Sololá	701	Sololá	1	Sololá	2	Febrero	2023-02-02T00:00:00	2024-11-08T22:00:00	5	Humedad	73
4253	7	Sololá	701	Sololá	1	Sololá	2	Febrero	2023-02-02T00:00:00	2024-11-08T22:00:00	6	Velocidad del viento	12.9
4254	7	Sololá	701	Sololá	1	Sololá	2	Febrero	2023-02-02T00:00:00	2024-11-08T22:00:00	7	Dirección del viento	12.87
4255	7	Sololá	701	Sololá	1	Sololá	2	Febrero	2023-02-02T00:00:00	2024-11-08T22:00:00	1	Precipitación	0
4256	7	Sololá	701	Sololá	1	Sololá	2	Febrero	2023-02-02T00:00:00	2024-11-08T22:00:00	8	Radiación solar	0
4257	7	Sololá	701	Sololá	1	Sololá	2	Febrero	2023-02-02T00:00:00	2024-11-08T23:00:00	2	Temperatura media	13.1
4258	7	Sololá	701	Sololá	1	Sololá	2	Febrero	2023-02-02T00:00:00	2024-11-08T23:00:00	4	Temperatura máxima	13.9
4259	7	Sololá	701	Sololá	1	Sololá	2	Febrero	2023-02-02T00:00:00	2024-11-08T23:00:00	3	Temperatura mínima	13.1
4260	7	Sololá	701	Sololá	1	Sololá	2	Febrero	2023-02-02T00:00:00	2024-11-08T23:00:00	5	Humedad	76
4261	7	Sololá	701	Sololá	1	Sololá	2	Febrero	2023-02-02T00:00:00	2024-11-08T23:00:00	6	Velocidad del viento	16.1
4262	7	Sololá	701	Sololá	1	Sololá	2	Febrero	2023-02-02T00:00:00	2024-11-08T23:00:00	7	Dirección del viento	16.09
4263	7	Sololá	701	Sololá	1	Sololá	2	Febrero	2023-02-02T00:00:00	2024-11-08T23:00:00	1	Precipitación	0
4264	7	Sololá	701	Sololá	1	Sololá	2	Febrero	2023-02-02T00:00:00	2024-11-08T23:00:00	8	Radiación solar	0
4265	7	Sololá	701	Sololá	1	Sololá	2	Febrero	2023-03-02T00:00:00	2024-11-08T00:00:00	2	Temperatura media	12.4
4266	7	Sololá	701	Sololá	1	Sololá	2	Febrero	2023-03-02T00:00:00	2024-11-08T00:00:00	4	Temperatura máxima	13.1
4267	7	Sololá	701	Sololá	1	Sololá	2	Febrero	2023-03-02T00:00:00	2024-11-08T00:00:00	3	Temperatura mínima	12.4
4268	7	Sololá	701	Sololá	1	Sololá	2	Febrero	2023-03-02T00:00:00	2024-11-08T00:00:00	5	Humedad	78
4269	7	Sololá	701	Sololá	1	Sololá	2	Febrero	2023-03-02T00:00:00	2024-11-08T00:00:00	6	Velocidad del viento	17.7
4270	7	Sololá	701	Sololá	1	Sololá	2	Febrero	2023-03-02T00:00:00	2024-11-08T00:00:00	7	Dirección del viento	17.7
4271	7	Sololá	701	Sololá	1	Sololá	2	Febrero	2023-03-02T00:00:00	2024-11-08T00:00:00	1	Precipitación	0
4272	7	Sololá	701	Sololá	1	Sololá	2	Febrero	2023-03-02T00:00:00	2024-11-08T00:00:00	8	Radiación solar	0
4273	7	Sololá	701	Sololá	1	Sololá	2	Febrero	2023-03-02T00:00:00	2024-11-08T01:00:00	2	Temperatura media	12.2
4274	7	Sololá	701	Sololá	1	Sololá	2	Febrero	2023-03-02T00:00:00	2024-11-08T01:00:00	4	Temperatura máxima	12.5
4275	7	Sololá	701	Sololá	1	Sololá	2	Febrero	2023-03-02T00:00:00	2024-11-08T01:00:00	3	Temperatura mínima	12.1
4276	7	Sololá	701	Sololá	1	Sololá	2	Febrero	2023-03-02T00:00:00	2024-11-08T01:00:00	5	Humedad	78
4277	7	Sololá	701	Sololá	1	Sololá	2	Febrero	2023-03-02T00:00:00	2024-11-08T01:00:00	6	Velocidad del viento	19.3
4278	7	Sololá	701	Sololá	1	Sololá	2	Febrero	2023-03-02T00:00:00	2024-11-08T01:00:00	7	Dirección del viento	19.31
4279	7	Sololá	701	Sololá	1	Sololá	2	Febrero	2023-03-02T00:00:00	2024-11-08T01:00:00	1	Precipitación	0
4280	7	Sololá	701	Sololá	1	Sololá	2	Febrero	2023-03-02T00:00:00	2024-11-08T01:00:00	8	Radiación solar	0
4281	7	Sololá	701	Sololá	1	Sololá	2	Febrero	2023-03-02T00:00:00	2024-11-08T02:00:00	2	Temperatura media	12.3
4282	7	Sololá	701	Sololá	1	Sololá	2	Febrero	2023-03-02T00:00:00	2024-11-08T02:00:00	4	Temperatura máxima	12.4
4283	7	Sololá	701	Sololá	1	Sololá	2	Febrero	2023-03-02T00:00:00	2024-11-08T02:00:00	3	Temperatura mínima	11.9
4284	7	Sololá	701	Sololá	1	Sololá	2	Febrero	2023-03-02T00:00:00	2024-11-08T02:00:00	5	Humedad	72
4285	7	Sololá	701	Sololá	1	Sololá	2	Febrero	2023-03-02T00:00:00	2024-11-08T02:00:00	6	Velocidad del viento	20.9
4286	7	Sololá	701	Sololá	1	Sololá	2	Febrero	2023-03-02T00:00:00	2024-11-08T02:00:00	7	Dirección del viento	20.92
4287	7	Sololá	701	Sololá	1	Sololá	2	Febrero	2023-03-02T00:00:00	2024-11-08T02:00:00	1	Precipitación	0
4288	7	Sololá	701	Sololá	1	Sololá	2	Febrero	2023-03-02T00:00:00	2024-11-08T02:00:00	8	Radiación solar	0
4289	7	Sololá	701	Sololá	1	Sololá	2	Febrero	2023-03-02T00:00:00	2024-11-08T03:00:00	2	Temperatura media	12.1
4290	7	Sololá	701	Sololá	1	Sololá	2	Febrero	2023-03-02T00:00:00	2024-11-08T03:00:00	4	Temperatura máxima	12.3
4291	7	Sololá	701	Sololá	1	Sololá	2	Febrero	2023-03-02T00:00:00	2024-11-08T03:00:00	3	Temperatura mínima	11.9
4292	7	Sololá	701	Sololá	1	Sololá	2	Febrero	2023-03-02T00:00:00	2024-11-08T03:00:00	5	Humedad	68
4293	7	Sololá	701	Sololá	1	Sololá	2	Febrero	2023-03-02T00:00:00	2024-11-08T03:00:00	6	Velocidad del viento	17.7
4294	7	Sololá	701	Sololá	1	Sololá	2	Febrero	2023-03-02T00:00:00	2024-11-08T03:00:00	7	Dirección del viento	17.7
4295	7	Sololá	701	Sololá	1	Sololá	2	Febrero	2023-03-02T00:00:00	2024-11-08T03:00:00	1	Precipitación	0
4296	7	Sololá	701	Sololá	1	Sololá	2	Febrero	2023-03-02T00:00:00	2024-11-08T03:00:00	8	Radiación solar	0
4297	7	Sololá	701	Sololá	1	Sololá	2	Febrero	2023-03-02T00:00:00	2024-11-08T04:00:00	2	Temperatura media	11.8
4298	7	Sololá	701	Sololá	1	Sololá	2	Febrero	2023-03-02T00:00:00	2024-11-08T04:00:00	4	Temperatura máxima	12.2
4299	7	Sololá	701	Sololá	1	Sololá	2	Febrero	2023-03-02T00:00:00	2024-11-08T04:00:00	3	Temperatura mínima	11.8
4300	7	Sololá	701	Sololá	1	Sololá	2	Febrero	2023-03-02T00:00:00	2024-11-08T04:00:00	5	Humedad	71
4301	7	Sololá	701	Sololá	1	Sololá	2	Febrero	2023-03-02T00:00:00	2024-11-08T04:00:00	6	Velocidad del viento	17.7
4302	7	Sololá	701	Sololá	1	Sololá	2	Febrero	2023-03-02T00:00:00	2024-11-08T04:00:00	7	Dirección del viento	17.7
4303	7	Sololá	701	Sololá	1	Sololá	2	Febrero	2023-03-02T00:00:00	2024-11-08T04:00:00	1	Precipitación	0
4304	7	Sololá	701	Sololá	1	Sololá	2	Febrero	2023-03-02T00:00:00	2024-11-08T04:00:00	8	Radiación solar	0
4305	7	Sololá	701	Sololá	1	Sololá	2	Febrero	2023-03-02T00:00:00	2024-11-08T05:00:00	2	Temperatura media	12
4306	7	Sololá	701	Sololá	1	Sololá	2	Febrero	2023-03-02T00:00:00	2024-11-08T05:00:00	4	Temperatura máxima	12.1
4307	7	Sololá	701	Sololá	1	Sololá	2	Febrero	2023-03-02T00:00:00	2024-11-08T05:00:00	3	Temperatura mínima	11.8
4308	7	Sololá	701	Sololá	1	Sololá	2	Febrero	2023-03-02T00:00:00	2024-11-08T05:00:00	5	Humedad	69
4309	7	Sololá	701	Sololá	1	Sololá	2	Febrero	2023-03-02T00:00:00	2024-11-08T05:00:00	6	Velocidad del viento	22.5
4310	7	Sololá	701	Sololá	1	Sololá	2	Febrero	2023-03-02T00:00:00	2024-11-08T05:00:00	7	Dirección del viento	22.53
4311	7	Sololá	701	Sololá	1	Sololá	2	Febrero	2023-03-02T00:00:00	2024-11-08T05:00:00	1	Precipitación	0
4312	7	Sololá	701	Sololá	1	Sololá	2	Febrero	2023-03-02T00:00:00	2024-11-08T05:00:00	8	Radiación solar	0
4313	7	Sololá	701	Sololá	1	Sololá	2	Febrero	2023-03-02T00:00:00	2024-11-08T06:00:00	2	Temperatura media	12.3
4314	7	Sololá	701	Sololá	1	Sololá	2	Febrero	2023-03-02T00:00:00	2024-11-08T06:00:00	4	Temperatura máxima	12.4
4315	7	Sololá	701	Sololá	1	Sololá	2	Febrero	2023-03-02T00:00:00	2024-11-08T06:00:00	3	Temperatura mínima	12
4316	7	Sololá	701	Sololá	1	Sololá	2	Febrero	2023-03-02T00:00:00	2024-11-08T06:00:00	5	Humedad	73
4317	7	Sololá	701	Sololá	1	Sololá	2	Febrero	2023-03-02T00:00:00	2024-11-08T06:00:00	6	Velocidad del viento	17.7
4318	7	Sololá	701	Sololá	1	Sololá	2	Febrero	2023-03-02T00:00:00	2024-11-08T06:00:00	7	Dirección del viento	17.7
4319	7	Sololá	701	Sololá	1	Sololá	2	Febrero	2023-03-02T00:00:00	2024-11-08T06:00:00	1	Precipitación	0
4320	7	Sololá	701	Sololá	1	Sololá	2	Febrero	2023-03-02T00:00:00	2024-11-08T06:00:00	8	Radiación solar	0
4321	7	Sololá	701	Sololá	1	Sololá	2	Febrero	2023-03-02T00:00:00	2024-11-08T07:00:00	2	Temperatura media	12.5
4322	7	Sololá	701	Sololá	1	Sololá	2	Febrero	2023-03-02T00:00:00	2024-11-08T07:00:00	4	Temperatura máxima	12.5
4323	7	Sololá	701	Sololá	1	Sololá	2	Febrero	2023-03-02T00:00:00	2024-11-08T07:00:00	3	Temperatura mínima	12.2
4324	7	Sololá	701	Sololá	1	Sololá	2	Febrero	2023-03-02T00:00:00	2024-11-08T07:00:00	5	Humedad	69
4325	7	Sololá	701	Sololá	1	Sololá	2	Febrero	2023-03-02T00:00:00	2024-11-08T07:00:00	6	Velocidad del viento	14.5
4326	7	Sololá	701	Sololá	1	Sololá	2	Febrero	2023-03-02T00:00:00	2024-11-08T07:00:00	7	Dirección del viento	14.48
4327	7	Sololá	701	Sololá	1	Sololá	2	Febrero	2023-03-02T00:00:00	2024-11-08T07:00:00	1	Precipitación	0
4328	7	Sololá	701	Sololá	1	Sololá	2	Febrero	2023-03-02T00:00:00	2024-11-08T07:00:00	8	Radiación solar	5
4329	7	Sololá	701	Sololá	1	Sololá	2	Febrero	2023-03-02T00:00:00	2024-11-08T08:00:00	2	Temperatura media	14.9
4330	7	Sololá	701	Sololá	1	Sololá	2	Febrero	2023-03-02T00:00:00	2024-11-08T08:00:00	4	Temperatura máxima	14.9
4331	7	Sololá	701	Sololá	1	Sololá	2	Febrero	2023-03-02T00:00:00	2024-11-08T08:00:00	3	Temperatura mínima	12.6
4332	7	Sololá	701	Sololá	1	Sololá	2	Febrero	2023-03-02T00:00:00	2024-11-08T08:00:00	5	Humedad	60
4333	7	Sololá	701	Sololá	1	Sololá	2	Febrero	2023-03-02T00:00:00	2024-11-08T08:00:00	6	Velocidad del viento	16.1
4334	7	Sololá	701	Sololá	1	Sololá	2	Febrero	2023-03-02T00:00:00	2024-11-08T08:00:00	7	Dirección del viento	16.09
4335	7	Sololá	701	Sololá	1	Sololá	2	Febrero	2023-03-02T00:00:00	2024-11-08T08:00:00	1	Precipitación	0
4336	7	Sololá	701	Sololá	1	Sololá	2	Febrero	2023-03-02T00:00:00	2024-11-08T08:00:00	8	Radiación solar	26
4337	7	Sololá	701	Sololá	1	Sololá	2	Febrero	2023-03-02T00:00:00	2024-11-08T09:00:00	2	Temperatura media	15.7
4338	7	Sololá	701	Sololá	1	Sololá	2	Febrero	2023-03-02T00:00:00	2024-11-08T09:00:00	4	Temperatura máxima	15.8
4339	7	Sololá	701	Sololá	1	Sololá	2	Febrero	2023-03-02T00:00:00	2024-11-08T09:00:00	3	Temperatura mínima	14.9
4340	7	Sololá	701	Sololá	1	Sololá	2	Febrero	2023-03-02T00:00:00	2024-11-08T09:00:00	5	Humedad	62
4341	7	Sololá	701	Sololá	1	Sololá	2	Febrero	2023-03-02T00:00:00	2024-11-08T09:00:00	6	Velocidad del viento	16.1
4342	7	Sololá	701	Sololá	1	Sololá	2	Febrero	2023-03-02T00:00:00	2024-11-08T09:00:00	7	Dirección del viento	16.09
4343	7	Sololá	701	Sololá	1	Sololá	2	Febrero	2023-03-02T00:00:00	2024-11-08T09:00:00	1	Precipitación	0
4344	7	Sololá	701	Sololá	1	Sololá	2	Febrero	2023-03-02T00:00:00	2024-11-08T09:00:00	8	Radiación solar	404
4345	7	Sololá	701	Sololá	1	Sololá	2	Febrero	2023-03-02T00:00:00	2024-11-08T10:00:00	2	Temperatura media	16.5
4346	7	Sololá	701	Sololá	1	Sololá	2	Febrero	2023-03-02T00:00:00	2024-11-08T10:00:00	4	Temperatura máxima	16.6
4347	7	Sololá	701	Sololá	1	Sololá	2	Febrero	2023-03-02T00:00:00	2024-11-08T10:00:00	3	Temperatura mínima	15.7
4348	7	Sololá	701	Sololá	1	Sololá	2	Febrero	2023-03-02T00:00:00	2024-11-08T10:00:00	5	Humedad	61
4349	7	Sololá	701	Sololá	1	Sololá	2	Febrero	2023-03-02T00:00:00	2024-11-08T10:00:00	6	Velocidad del viento	24.1
4350	7	Sololá	701	Sololá	1	Sololá	2	Febrero	2023-03-02T00:00:00	2024-11-08T10:00:00	7	Dirección del viento	24.14
4351	7	Sololá	701	Sololá	1	Sololá	2	Febrero	2023-03-02T00:00:00	2024-11-08T10:00:00	1	Precipitación	0
4352	7	Sololá	701	Sololá	1	Sololá	2	Febrero	2023-03-02T00:00:00	2024-11-08T10:00:00	8	Radiación solar	716
4353	7	Sololá	701	Sololá	1	Sololá	2	Febrero	2023-03-02T00:00:00	2024-11-08T11:00:00	2	Temperatura media	16.5
4354	7	Sololá	701	Sololá	1	Sololá	2	Febrero	2023-03-02T00:00:00	2024-11-08T11:00:00	4	Temperatura máxima	16.8
4355	7	Sololá	701	Sololá	1	Sololá	2	Febrero	2023-03-02T00:00:00	2024-11-08T11:00:00	3	Temperatura mínima	16.2
4356	7	Sololá	701	Sololá	1	Sololá	2	Febrero	2023-03-02T00:00:00	2024-11-08T11:00:00	5	Humedad	65
4357	7	Sololá	701	Sololá	1	Sololá	2	Febrero	2023-03-02T00:00:00	2024-11-08T11:00:00	6	Velocidad del viento	27.4
4358	7	Sololá	701	Sololá	1	Sololá	2	Febrero	2023-03-02T00:00:00	2024-11-08T11:00:00	7	Dirección del viento	27.36
4359	7	Sololá	701	Sololá	1	Sololá	2	Febrero	2023-03-02T00:00:00	2024-11-08T11:00:00	1	Precipitación	0
4360	7	Sololá	701	Sololá	1	Sololá	2	Febrero	2023-03-02T00:00:00	2024-11-08T11:00:00	8	Radiación solar	871
4361	7	Sololá	701	Sololá	1	Sololá	2	Febrero	2023-03-02T00:00:00	2024-11-08T12:00:00	2	Temperatura media	17.1
4362	7	Sololá	701	Sololá	1	Sololá	2	Febrero	2023-03-02T00:00:00	2024-11-08T12:00:00	4	Temperatura máxima	17.2
4363	7	Sololá	701	Sololá	1	Sololá	2	Febrero	2023-03-02T00:00:00	2024-11-08T12:00:00	3	Temperatura mínima	16.2
4364	7	Sololá	701	Sololá	1	Sololá	2	Febrero	2023-03-02T00:00:00	2024-11-08T12:00:00	5	Humedad	66
4365	7	Sololá	701	Sololá	1	Sololá	2	Febrero	2023-03-02T00:00:00	2024-11-08T12:00:00	6	Velocidad del viento	27.4
4366	7	Sololá	701	Sololá	1	Sololá	2	Febrero	2023-03-02T00:00:00	2024-11-08T12:00:00	7	Dirección del viento	27.36
4367	7	Sololá	701	Sololá	1	Sololá	2	Febrero	2023-03-02T00:00:00	2024-11-08T12:00:00	1	Precipitación	0
4368	7	Sololá	701	Sololá	1	Sololá	2	Febrero	2023-03-02T00:00:00	2024-11-08T12:00:00	8	Radiación solar	965
4369	7	Sololá	701	Sololá	1	Sololá	2	Febrero	2023-03-02T00:00:00	2024-11-08T13:00:00	2	Temperatura media	16.6
4370	7	Sololá	701	Sololá	1	Sololá	2	Febrero	2023-03-02T00:00:00	2024-11-08T13:00:00	4	Temperatura máxima	17.3
4371	7	Sololá	701	Sololá	1	Sololá	2	Febrero	2023-03-02T00:00:00	2024-11-08T13:00:00	3	Temperatura mínima	15.9
4372	7	Sololá	701	Sololá	1	Sololá	2	Febrero	2023-03-02T00:00:00	2024-11-08T13:00:00	5	Humedad	69
4373	7	Sololá	701	Sololá	1	Sololá	2	Febrero	2023-03-02T00:00:00	2024-11-08T13:00:00	6	Velocidad del viento	20.9
4374	7	Sololá	701	Sololá	1	Sololá	2	Febrero	2023-03-02T00:00:00	2024-11-08T13:00:00	7	Dirección del viento	20.92
4375	7	Sololá	701	Sololá	1	Sololá	2	Febrero	2023-03-02T00:00:00	2024-11-08T13:00:00	1	Precipitación	0
4376	7	Sololá	701	Sololá	1	Sololá	2	Febrero	2023-03-02T00:00:00	2024-11-08T13:00:00	8	Radiación solar	979
4377	7	Sololá	701	Sololá	1	Sololá	2	Febrero	2023-03-02T00:00:00	2024-11-08T14:00:00	2	Temperatura media	14.3
4378	7	Sololá	701	Sololá	1	Sololá	2	Febrero	2023-03-02T00:00:00	2024-11-08T14:00:00	4	Temperatura máxima	16.6
4379	7	Sololá	701	Sololá	1	Sololá	2	Febrero	2023-03-02T00:00:00	2024-11-08T14:00:00	3	Temperatura mínima	14.3
4380	7	Sololá	701	Sololá	1	Sololá	2	Febrero	2023-03-02T00:00:00	2024-11-08T14:00:00	5	Humedad	76
4381	7	Sololá	701	Sololá	1	Sololá	2	Febrero	2023-03-02T00:00:00	2024-11-08T14:00:00	6	Velocidad del viento	16.1
4382	7	Sololá	701	Sololá	1	Sololá	2	Febrero	2023-03-02T00:00:00	2024-11-08T14:00:00	7	Dirección del viento	16.09
4383	7	Sololá	701	Sololá	1	Sololá	2	Febrero	2023-03-02T00:00:00	2024-11-08T14:00:00	1	Precipitación	0
4384	7	Sololá	701	Sololá	1	Sololá	2	Febrero	2023-03-02T00:00:00	2024-11-08T14:00:00	8	Radiación solar	239
4385	7	Sololá	701	Sololá	1	Sololá	2	Febrero	2023-03-02T00:00:00	2024-11-08T15:00:00	2	Temperatura media	14.1
4386	7	Sololá	701	Sololá	1	Sololá	2	Febrero	2023-03-02T00:00:00	2024-11-08T15:00:00	4	Temperatura máxima	14.3
4387	7	Sololá	701	Sololá	1	Sololá	2	Febrero	2023-03-02T00:00:00	2024-11-08T15:00:00	3	Temperatura mínima	13.4
4388	7	Sololá	701	Sololá	1	Sololá	2	Febrero	2023-03-02T00:00:00	2024-11-08T15:00:00	5	Humedad	74
4389	7	Sololá	701	Sololá	1	Sololá	2	Febrero	2023-03-02T00:00:00	2024-11-08T15:00:00	6	Velocidad del viento	9.7
4390	7	Sololá	701	Sololá	1	Sololá	2	Febrero	2023-03-02T00:00:00	2024-11-08T15:00:00	7	Dirección del viento	9.66
4391	7	Sololá	701	Sololá	1	Sololá	2	Febrero	2023-03-02T00:00:00	2024-11-08T15:00:00	1	Precipitación	0
4392	7	Sololá	701	Sololá	1	Sololá	2	Febrero	2023-03-02T00:00:00	2024-11-08T15:00:00	8	Radiación solar	233
4393	7	Sololá	701	Sololá	1	Sololá	2	Febrero	2023-03-02T00:00:00	2024-11-08T16:00:00	2	Temperatura media	14.1
4394	7	Sololá	701	Sololá	1	Sololá	2	Febrero	2023-03-02T00:00:00	2024-11-08T16:00:00	4	Temperatura máxima	14.9
4395	7	Sololá	701	Sololá	1	Sololá	2	Febrero	2023-03-02T00:00:00	2024-11-08T16:00:00	3	Temperatura mínima	14.1
4396	7	Sololá	701	Sololá	1	Sololá	2	Febrero	2023-03-02T00:00:00	2024-11-08T16:00:00	5	Humedad	74
4397	7	Sololá	701	Sololá	1	Sololá	2	Febrero	2023-03-02T00:00:00	2024-11-08T16:00:00	6	Velocidad del viento	16.1
4398	7	Sololá	701	Sololá	1	Sololá	2	Febrero	2023-03-02T00:00:00	2024-11-08T16:00:00	7	Dirección del viento	16.09
4399	7	Sololá	701	Sololá	1	Sololá	2	Febrero	2023-03-02T00:00:00	2024-11-08T16:00:00	1	Precipitación	0
4400	7	Sololá	701	Sololá	1	Sololá	2	Febrero	2023-03-02T00:00:00	2024-11-08T16:00:00	8	Radiación solar	140
4401	7	Sololá	701	Sololá	1	Sololá	2	Febrero	2023-03-02T00:00:00	2024-11-08T17:00:00	2	Temperatura media	14.1
4402	7	Sololá	701	Sololá	1	Sololá	2	Febrero	2023-03-02T00:00:00	2024-11-08T17:00:00	4	Temperatura máxima	14.4
4403	7	Sololá	701	Sololá	1	Sololá	2	Febrero	2023-03-02T00:00:00	2024-11-08T17:00:00	3	Temperatura mínima	13.7
4404	7	Sololá	701	Sololá	1	Sololá	2	Febrero	2023-03-02T00:00:00	2024-11-08T17:00:00	5	Humedad	70
4405	7	Sololá	701	Sololá	1	Sololá	2	Febrero	2023-03-02T00:00:00	2024-11-08T17:00:00	6	Velocidad del viento	16.1
4406	7	Sololá	701	Sololá	1	Sololá	2	Febrero	2023-03-02T00:00:00	2024-11-08T17:00:00	7	Dirección del viento	16.09
4407	7	Sololá	701	Sololá	1	Sololá	2	Febrero	2023-03-02T00:00:00	2024-11-08T17:00:00	1	Precipitación	0
4408	7	Sololá	701	Sololá	1	Sololá	2	Febrero	2023-03-02T00:00:00	2024-11-08T17:00:00	8	Radiación solar	69
4409	7	Sololá	701	Sololá	1	Sololá	2	Febrero	2023-03-02T00:00:00	2024-11-08T18:00:00	2	Temperatura media	13.1
4410	7	Sololá	701	Sololá	1	Sololá	2	Febrero	2023-03-02T00:00:00	2024-11-08T18:00:00	4	Temperatura máxima	14.1
4411	7	Sololá	701	Sololá	1	Sololá	2	Febrero	2023-03-02T00:00:00	2024-11-08T18:00:00	3	Temperatura mínima	13.1
4412	7	Sololá	701	Sololá	1	Sololá	2	Febrero	2023-03-02T00:00:00	2024-11-08T18:00:00	5	Humedad	76
4413	7	Sololá	701	Sololá	1	Sololá	2	Febrero	2023-03-02T00:00:00	2024-11-08T18:00:00	6	Velocidad del viento	14.5
4414	7	Sololá	701	Sololá	1	Sololá	2	Febrero	2023-03-02T00:00:00	2024-11-08T18:00:00	7	Dirección del viento	14.48
4415	7	Sololá	701	Sololá	1	Sololá	2	Febrero	2023-03-02T00:00:00	2024-11-08T18:00:00	1	Precipitación	0
4416	7	Sololá	701	Sololá	1	Sololá	2	Febrero	2023-03-02T00:00:00	2024-11-08T18:00:00	8	Radiación solar	41
4417	7	Sololá	701	Sololá	1	Sololá	2	Febrero	2023-03-02T00:00:00	2024-11-08T19:00:00	2	Temperatura media	12.8
4418	7	Sololá	701	Sololá	1	Sololá	2	Febrero	2023-03-02T00:00:00	2024-11-08T19:00:00	4	Temperatura máxima	13.1
4419	7	Sololá	701	Sololá	1	Sololá	2	Febrero	2023-03-02T00:00:00	2024-11-08T19:00:00	3	Temperatura mínima	12.7
4420	7	Sololá	701	Sololá	1	Sololá	2	Febrero	2023-03-02T00:00:00	2024-11-08T19:00:00	5	Humedad	75
4421	7	Sololá	701	Sololá	1	Sololá	2	Febrero	2023-03-02T00:00:00	2024-11-08T19:00:00	6	Velocidad del viento	19.3
4422	7	Sololá	701	Sololá	1	Sololá	2	Febrero	2023-03-02T00:00:00	2024-11-08T19:00:00	7	Dirección del viento	19.31
4423	7	Sololá	701	Sololá	1	Sololá	2	Febrero	2023-03-02T00:00:00	2024-11-08T19:00:00	1	Precipitación	0
4424	7	Sololá	701	Sololá	1	Sololá	2	Febrero	2023-03-02T00:00:00	2024-11-08T19:00:00	8	Radiación solar	0
4425	7	Sololá	701	Sololá	1	Sololá	2	Febrero	2023-03-02T00:00:00	2024-11-08T20:00:00	2	Temperatura media	13
4426	7	Sololá	701	Sololá	1	Sololá	2	Febrero	2023-03-02T00:00:00	2024-11-08T20:00:00	4	Temperatura máxima	13
4427	7	Sololá	701	Sololá	1	Sololá	2	Febrero	2023-03-02T00:00:00	2024-11-08T20:00:00	3	Temperatura mínima	12.8
4428	7	Sololá	701	Sololá	1	Sololá	2	Febrero	2023-03-02T00:00:00	2024-11-08T20:00:00	5	Humedad	75
4429	7	Sololá	701	Sololá	1	Sololá	2	Febrero	2023-03-02T00:00:00	2024-11-08T20:00:00	6	Velocidad del viento	20.9
4430	7	Sololá	701	Sololá	1	Sololá	2	Febrero	2023-03-02T00:00:00	2024-11-08T20:00:00	7	Dirección del viento	20.92
4431	7	Sololá	701	Sololá	1	Sololá	2	Febrero	2023-03-02T00:00:00	2024-11-08T20:00:00	1	Precipitación	0
4432	7	Sololá	701	Sololá	1	Sololá	2	Febrero	2023-03-02T00:00:00	2024-11-08T20:00:00	8	Radiación solar	0
4433	7	Sololá	701	Sololá	1	Sololá	2	Febrero	2023-03-02T00:00:00	2024-11-08T21:00:00	2	Temperatura media	13.2
4434	7	Sololá	701	Sololá	1	Sololá	2	Febrero	2023-03-02T00:00:00	2024-11-08T21:00:00	4	Temperatura máxima	13.2
4435	7	Sololá	701	Sololá	1	Sololá	2	Febrero	2023-03-02T00:00:00	2024-11-08T21:00:00	3	Temperatura mínima	12.9
4436	7	Sololá	701	Sololá	1	Sololá	2	Febrero	2023-03-02T00:00:00	2024-11-08T21:00:00	5	Humedad	73
4437	7	Sololá	701	Sololá	1	Sololá	2	Febrero	2023-03-02T00:00:00	2024-11-08T21:00:00	6	Velocidad del viento	17.7
4438	7	Sololá	701	Sololá	1	Sololá	2	Febrero	2023-03-02T00:00:00	2024-11-08T21:00:00	7	Dirección del viento	17.7
4439	7	Sololá	701	Sololá	1	Sololá	2	Febrero	2023-03-02T00:00:00	2024-11-08T21:00:00	1	Precipitación	0
4440	7	Sololá	701	Sololá	1	Sololá	2	Febrero	2023-03-02T00:00:00	2024-11-08T21:00:00	8	Radiación solar	0
4441	7	Sololá	701	Sololá	1	Sololá	2	Febrero	2023-03-02T00:00:00	2024-11-08T22:00:00	2	Temperatura media	12.3
4442	7	Sololá	701	Sololá	1	Sololá	2	Febrero	2023-03-02T00:00:00	2024-11-08T22:00:00	4	Temperatura máxima	13.2
4443	7	Sololá	701	Sololá	1	Sololá	2	Febrero	2023-03-02T00:00:00	2024-11-08T22:00:00	3	Temperatura mínima	12.3
4444	7	Sololá	701	Sololá	1	Sololá	2	Febrero	2023-03-02T00:00:00	2024-11-08T22:00:00	5	Humedad	79
4445	7	Sololá	701	Sololá	1	Sololá	2	Febrero	2023-03-02T00:00:00	2024-11-08T22:00:00	6	Velocidad del viento	11.3
4446	7	Sololá	701	Sololá	1	Sololá	2	Febrero	2023-03-02T00:00:00	2024-11-08T22:00:00	7	Dirección del viento	11.27
4447	7	Sololá	701	Sololá	1	Sololá	2	Febrero	2023-03-02T00:00:00	2024-11-08T22:00:00	1	Precipitación	0
4448	7	Sololá	701	Sololá	1	Sololá	2	Febrero	2023-03-02T00:00:00	2024-11-08T22:00:00	8	Radiación solar	0
4449	7	Sololá	701	Sololá	1	Sololá	2	Febrero	2023-03-02T00:00:00	2024-11-08T23:00:00	2	Temperatura media	12.1
4450	7	Sololá	701	Sololá	1	Sololá	2	Febrero	2023-03-02T00:00:00	2024-11-08T23:00:00	4	Temperatura máxima	12.3
4451	7	Sololá	701	Sololá	1	Sololá	2	Febrero	2023-03-02T00:00:00	2024-11-08T23:00:00	3	Temperatura mínima	11.9
4452	7	Sololá	701	Sololá	1	Sololá	2	Febrero	2023-03-02T00:00:00	2024-11-08T23:00:00	5	Humedad	84
4453	7	Sololá	701	Sololá	1	Sololá	2	Febrero	2023-03-02T00:00:00	2024-11-08T23:00:00	6	Velocidad del viento	6.4
4454	7	Sololá	701	Sololá	1	Sololá	2	Febrero	2023-03-02T00:00:00	2024-11-08T23:00:00	7	Dirección del viento	6.44
4455	7	Sololá	701	Sololá	1	Sololá	2	Febrero	2023-03-02T00:00:00	2024-11-08T23:00:00	1	Precipitación	0
4456	7	Sololá	701	Sololá	1	Sololá	2	Febrero	2023-03-02T00:00:00	2024-11-08T23:00:00	8	Radiación solar	0
4457	7	Sololá	701	Sololá	1	Sololá	2	Febrero	2023-04-02T00:00:00	2024-11-08T00:00:00	2	Temperatura media	12.4
4458	7	Sololá	701	Sololá	1	Sololá	2	Febrero	2023-04-02T00:00:00	2024-11-08T00:00:00	4	Temperatura máxima	12.4
4459	7	Sololá	701	Sololá	1	Sololá	2	Febrero	2023-04-02T00:00:00	2024-11-08T00:00:00	3	Temperatura mínima	11.9
4460	7	Sololá	701	Sololá	1	Sololá	2	Febrero	2023-04-02T00:00:00	2024-11-08T00:00:00	5	Humedad	84
4461	7	Sololá	701	Sololá	1	Sololá	2	Febrero	2023-04-02T00:00:00	2024-11-08T00:00:00	6	Velocidad del viento	12.9
4462	7	Sololá	701	Sololá	1	Sololá	2	Febrero	2023-04-02T00:00:00	2024-11-08T00:00:00	7	Dirección del viento	12.87
4463	7	Sololá	701	Sololá	1	Sololá	2	Febrero	2023-04-02T00:00:00	2024-11-08T00:00:00	1	Precipitación	0
4464	7	Sololá	701	Sololá	1	Sololá	2	Febrero	2023-04-02T00:00:00	2024-11-08T00:00:00	8	Radiación solar	0
4465	7	Sololá	701	Sololá	1	Sololá	2	Febrero	2023-04-02T00:00:00	2024-11-08T01:00:00	2	Temperatura media	12.6
4466	7	Sololá	701	Sololá	1	Sololá	2	Febrero	2023-04-02T00:00:00	2024-11-08T01:00:00	4	Temperatura máxima	12.6
4467	7	Sololá	701	Sololá	1	Sololá	2	Febrero	2023-04-02T00:00:00	2024-11-08T01:00:00	3	Temperatura mínima	12.3
4468	7	Sololá	701	Sololá	1	Sololá	2	Febrero	2023-04-02T00:00:00	2024-11-08T01:00:00	5	Humedad	83
4469	7	Sololá	701	Sololá	1	Sololá	2	Febrero	2023-04-02T00:00:00	2024-11-08T01:00:00	6	Velocidad del viento	17.7
4470	7	Sololá	701	Sololá	1	Sololá	2	Febrero	2023-04-02T00:00:00	2024-11-08T01:00:00	7	Dirección del viento	17.7
4471	7	Sololá	701	Sololá	1	Sololá	2	Febrero	2023-04-02T00:00:00	2024-11-08T01:00:00	1	Precipitación	0
4472	7	Sololá	701	Sololá	1	Sololá	2	Febrero	2023-04-02T00:00:00	2024-11-08T01:00:00	8	Radiación solar	0
4473	7	Sololá	701	Sololá	1	Sololá	2	Febrero	2023-04-02T00:00:00	2024-11-08T02:00:00	2	Temperatura media	12.3
4474	7	Sololá	701	Sololá	1	Sololá	2	Febrero	2023-04-02T00:00:00	2024-11-08T02:00:00	4	Temperatura máxima	12.6
4475	7	Sololá	701	Sololá	1	Sololá	2	Febrero	2023-04-02T00:00:00	2024-11-08T02:00:00	3	Temperatura mínima	12.2
4476	7	Sololá	701	Sololá	1	Sololá	2	Febrero	2023-04-02T00:00:00	2024-11-08T02:00:00	5	Humedad	85
4477	7	Sololá	701	Sololá	1	Sololá	2	Febrero	2023-04-02T00:00:00	2024-11-08T02:00:00	6	Velocidad del viento	19.3
4478	7	Sololá	701	Sololá	1	Sololá	2	Febrero	2023-04-02T00:00:00	2024-11-08T02:00:00	7	Dirección del viento	19.31
4479	7	Sololá	701	Sololá	1	Sololá	2	Febrero	2023-04-02T00:00:00	2024-11-08T02:00:00	1	Precipitación	0
4480	7	Sololá	701	Sololá	1	Sololá	2	Febrero	2023-04-02T00:00:00	2024-11-08T02:00:00	8	Radiación solar	0
4481	7	Sololá	701	Sololá	1	Sololá	2	Febrero	2023-04-02T00:00:00	2024-11-08T03:00:00	2	Temperatura media	12.4
4482	7	Sololá	701	Sololá	1	Sololá	2	Febrero	2023-04-02T00:00:00	2024-11-08T03:00:00	4	Temperatura máxima	12.6
4483	7	Sololá	701	Sololá	1	Sololá	2	Febrero	2023-04-02T00:00:00	2024-11-08T03:00:00	3	Temperatura mínima	12.3
4484	7	Sololá	701	Sololá	1	Sololá	2	Febrero	2023-04-02T00:00:00	2024-11-08T03:00:00	5	Humedad	84
4485	7	Sololá	701	Sololá	1	Sololá	2	Febrero	2023-04-02T00:00:00	2024-11-08T03:00:00	6	Velocidad del viento	16.1
4486	7	Sololá	701	Sololá	1	Sololá	2	Febrero	2023-04-02T00:00:00	2024-11-08T03:00:00	7	Dirección del viento	16.09
4487	7	Sololá	701	Sololá	1	Sololá	2	Febrero	2023-04-02T00:00:00	2024-11-08T03:00:00	1	Precipitación	0
4488	7	Sololá	701	Sololá	1	Sololá	2	Febrero	2023-04-02T00:00:00	2024-11-08T03:00:00	8	Radiación solar	0
4489	7	Sololá	701	Sololá	1	Sololá	2	Febrero	2023-04-02T00:00:00	2024-11-08T04:00:00	2	Temperatura media	12.5
4490	7	Sololá	701	Sololá	1	Sololá	2	Febrero	2023-04-02T00:00:00	2024-11-08T04:00:00	4	Temperatura máxima	12.7
4491	7	Sololá	701	Sololá	1	Sololá	2	Febrero	2023-04-02T00:00:00	2024-11-08T04:00:00	3	Temperatura mínima	12.4
4492	7	Sololá	701	Sololá	1	Sololá	2	Febrero	2023-04-02T00:00:00	2024-11-08T04:00:00	5	Humedad	83
4493	7	Sololá	701	Sololá	1	Sololá	2	Febrero	2023-04-02T00:00:00	2024-11-08T04:00:00	6	Velocidad del viento	20.9
4494	7	Sololá	701	Sololá	1	Sololá	2	Febrero	2023-04-02T00:00:00	2024-11-08T04:00:00	7	Dirección del viento	20.92
4495	7	Sololá	701	Sololá	1	Sololá	2	Febrero	2023-04-02T00:00:00	2024-11-08T04:00:00	1	Precipitación	0
4496	7	Sololá	701	Sololá	1	Sololá	2	Febrero	2023-04-02T00:00:00	2024-11-08T04:00:00	8	Radiación solar	0
4497	7	Sololá	701	Sololá	1	Sololá	2	Febrero	2023-04-02T00:00:00	2024-11-08T05:00:00	2	Temperatura media	12.1
4498	7	Sololá	701	Sololá	1	Sololá	2	Febrero	2023-04-02T00:00:00	2024-11-08T05:00:00	4	Temperatura máxima	12.5
4499	7	Sololá	701	Sololá	1	Sololá	2	Febrero	2023-04-02T00:00:00	2024-11-08T05:00:00	3	Temperatura mínima	12
4500	7	Sololá	701	Sololá	1	Sololá	2	Febrero	2023-04-02T00:00:00	2024-11-08T05:00:00	5	Humedad	84
4501	7	Sololá	701	Sololá	1	Sololá	2	Febrero	2023-04-02T00:00:00	2024-11-08T05:00:00	6	Velocidad del viento	17.7
4502	7	Sololá	701	Sololá	1	Sololá	2	Febrero	2023-04-02T00:00:00	2024-11-08T05:00:00	7	Dirección del viento	17.7
4503	7	Sololá	701	Sololá	1	Sololá	2	Febrero	2023-04-02T00:00:00	2024-11-08T05:00:00	1	Precipitación	0
4504	7	Sololá	701	Sololá	1	Sololá	2	Febrero	2023-04-02T00:00:00	2024-11-08T05:00:00	8	Radiación solar	0
4505	7	Sololá	701	Sololá	1	Sololá	2	Febrero	2023-04-02T00:00:00	2024-11-08T06:00:00	2	Temperatura media	12
4506	7	Sololá	701	Sololá	1	Sololá	2	Febrero	2023-04-02T00:00:00	2024-11-08T06:00:00	4	Temperatura máxima	12.2
4507	7	Sololá	701	Sololá	1	Sololá	2	Febrero	2023-04-02T00:00:00	2024-11-08T06:00:00	3	Temperatura mínima	11.9
4508	7	Sololá	701	Sololá	1	Sololá	2	Febrero	2023-04-02T00:00:00	2024-11-08T06:00:00	5	Humedad	84
4509	7	Sololá	701	Sololá	1	Sololá	2	Febrero	2023-04-02T00:00:00	2024-11-08T06:00:00	6	Velocidad del viento	14.5
4510	7	Sololá	701	Sololá	1	Sololá	2	Febrero	2023-04-02T00:00:00	2024-11-08T06:00:00	7	Dirección del viento	14.48
4511	7	Sololá	701	Sololá	1	Sololá	2	Febrero	2023-04-02T00:00:00	2024-11-08T06:00:00	1	Precipitación	0
4512	7	Sololá	701	Sololá	1	Sololá	2	Febrero	2023-04-02T00:00:00	2024-11-08T06:00:00	8	Radiación solar	0
4513	7	Sololá	701	Sololá	1	Sololá	2	Febrero	2023-04-02T00:00:00	2024-11-08T07:00:00	2	Temperatura media	12.1
4514	7	Sololá	701	Sololá	1	Sololá	2	Febrero	2023-04-02T00:00:00	2024-11-08T07:00:00	4	Temperatura máxima	12.1
4515	7	Sololá	701	Sololá	1	Sololá	2	Febrero	2023-04-02T00:00:00	2024-11-08T07:00:00	3	Temperatura mínima	11.9
4516	7	Sololá	701	Sololá	1	Sololá	2	Febrero	2023-04-02T00:00:00	2024-11-08T07:00:00	5	Humedad	84
4517	7	Sololá	701	Sololá	1	Sololá	2	Febrero	2023-04-02T00:00:00	2024-11-08T07:00:00	6	Velocidad del viento	8
4518	7	Sololá	701	Sololá	1	Sololá	2	Febrero	2023-04-02T00:00:00	2024-11-08T07:00:00	7	Dirección del viento	8.05
4519	7	Sololá	701	Sololá	1	Sololá	2	Febrero	2023-04-02T00:00:00	2024-11-08T07:00:00	1	Precipitación	0
4520	7	Sololá	701	Sololá	1	Sololá	2	Febrero	2023-04-02T00:00:00	2024-11-08T07:00:00	8	Radiación solar	5
4521	7	Sololá	701	Sololá	1	Sololá	2	Febrero	2023-04-02T00:00:00	2024-11-08T08:00:00	2	Temperatura media	12.8
4522	7	Sololá	701	Sololá	1	Sololá	2	Febrero	2023-04-02T00:00:00	2024-11-08T08:00:00	4	Temperatura máxima	12.8
4523	7	Sololá	701	Sololá	1	Sololá	2	Febrero	2023-04-02T00:00:00	2024-11-08T08:00:00	3	Temperatura mínima	11.8
4524	7	Sololá	701	Sololá	1	Sololá	2	Febrero	2023-04-02T00:00:00	2024-11-08T08:00:00	5	Humedad	74
4525	7	Sololá	701	Sololá	1	Sololá	2	Febrero	2023-04-02T00:00:00	2024-11-08T08:00:00	6	Velocidad del viento	19.3
4526	7	Sololá	701	Sololá	1	Sololá	2	Febrero	2023-04-02T00:00:00	2024-11-08T08:00:00	7	Dirección del viento	19.31
4527	7	Sololá	701	Sololá	1	Sololá	2	Febrero	2023-04-02T00:00:00	2024-11-08T08:00:00	1	Precipitación	0
4528	7	Sololá	701	Sololá	1	Sololá	2	Febrero	2023-04-02T00:00:00	2024-11-08T08:00:00	8	Radiación solar	24
4529	7	Sololá	701	Sololá	1	Sololá	2	Febrero	2023-04-02T00:00:00	2024-11-08T09:00:00	2	Temperatura media	13.8
4530	7	Sololá	701	Sololá	1	Sololá	2	Febrero	2023-04-02T00:00:00	2024-11-08T09:00:00	4	Temperatura máxima	13.8
4531	7	Sololá	701	Sololá	1	Sololá	2	Febrero	2023-04-02T00:00:00	2024-11-08T09:00:00	3	Temperatura mínima	12.8
4532	7	Sololá	701	Sololá	1	Sololá	2	Febrero	2023-04-02T00:00:00	2024-11-08T09:00:00	5	Humedad	69
4533	7	Sololá	701	Sololá	1	Sololá	2	Febrero	2023-04-02T00:00:00	2024-11-08T09:00:00	6	Velocidad del viento	25.7
4534	7	Sololá	701	Sololá	1	Sololá	2	Febrero	2023-04-02T00:00:00	2024-11-08T09:00:00	7	Dirección del viento	25.75
4535	7	Sololá	701	Sololá	1	Sololá	2	Febrero	2023-04-02T00:00:00	2024-11-08T09:00:00	1	Precipitación	0
4536	7	Sololá	701	Sololá	1	Sololá	2	Febrero	2023-04-02T00:00:00	2024-11-08T09:00:00	8	Radiación solar	366
4537	7	Sololá	701	Sololá	1	Sololá	2	Febrero	2023-04-02T00:00:00	2024-11-08T10:00:00	2	Temperatura media	14.7
4538	7	Sololá	701	Sololá	1	Sololá	2	Febrero	2023-04-02T00:00:00	2024-11-08T10:00:00	4	Temperatura máxima	14.7
4539	7	Sololá	701	Sololá	1	Sololá	2	Febrero	2023-04-02T00:00:00	2024-11-08T10:00:00	3	Temperatura mínima	13.8
4540	7	Sololá	701	Sololá	1	Sololá	2	Febrero	2023-04-02T00:00:00	2024-11-08T10:00:00	5	Humedad	70
4541	7	Sololá	701	Sololá	1	Sololá	2	Febrero	2023-04-02T00:00:00	2024-11-08T10:00:00	6	Velocidad del viento	29
4542	7	Sololá	701	Sololá	1	Sololá	2	Febrero	2023-04-02T00:00:00	2024-11-08T10:00:00	7	Dirección del viento	28.97
4543	7	Sololá	701	Sololá	1	Sololá	2	Febrero	2023-04-02T00:00:00	2024-11-08T10:00:00	1	Precipitación	0
4544	7	Sololá	701	Sololá	1	Sololá	2	Febrero	2023-04-02T00:00:00	2024-11-08T10:00:00	8	Radiación solar	696
4545	7	Sololá	701	Sololá	1	Sololá	2	Febrero	2023-04-02T00:00:00	2024-11-08T11:00:00	2	Temperatura media	16.7
4546	7	Sololá	701	Sololá	1	Sololá	2	Febrero	2023-04-02T00:00:00	2024-11-08T11:00:00	4	Temperatura máxima	16.7
4547	7	Sololá	701	Sololá	1	Sololá	2	Febrero	2023-04-02T00:00:00	2024-11-08T11:00:00	3	Temperatura mínima	14.7
4548	7	Sololá	701	Sololá	1	Sololá	2	Febrero	2023-04-02T00:00:00	2024-11-08T11:00:00	5	Humedad	66
4549	7	Sololá	701	Sololá	1	Sololá	2	Febrero	2023-04-02T00:00:00	2024-11-08T11:00:00	6	Velocidad del viento	24.1
4550	7	Sololá	701	Sololá	1	Sololá	2	Febrero	2023-04-02T00:00:00	2024-11-08T11:00:00	7	Dirección del viento	24.14
4551	7	Sololá	701	Sololá	1	Sololá	2	Febrero	2023-04-02T00:00:00	2024-11-08T11:00:00	1	Precipitación	0
4552	7	Sololá	701	Sololá	1	Sololá	2	Febrero	2023-04-02T00:00:00	2024-11-08T11:00:00	8	Radiación solar	860
4553	7	Sololá	701	Sololá	1	Sololá	2	Febrero	2023-04-02T00:00:00	2024-11-08T12:00:00	2	Temperatura media	17.3
4554	7	Sololá	701	Sololá	1	Sololá	2	Febrero	2023-04-02T00:00:00	2024-11-08T12:00:00	4	Temperatura máxima	17.6
4555	7	Sololá	701	Sololá	1	Sololá	2	Febrero	2023-04-02T00:00:00	2024-11-08T12:00:00	3	Temperatura mínima	16.6
4556	7	Sololá	701	Sololá	1	Sololá	2	Febrero	2023-04-02T00:00:00	2024-11-08T12:00:00	5	Humedad	65
4557	7	Sololá	701	Sololá	1	Sololá	2	Febrero	2023-04-02T00:00:00	2024-11-08T12:00:00	6	Velocidad del viento	20.9
4558	7	Sololá	701	Sololá	1	Sololá	2	Febrero	2023-04-02T00:00:00	2024-11-08T12:00:00	7	Dirección del viento	20.92
4559	7	Sololá	701	Sololá	1	Sololá	2	Febrero	2023-04-02T00:00:00	2024-11-08T12:00:00	1	Precipitación	0
4560	7	Sololá	701	Sololá	1	Sololá	2	Febrero	2023-04-02T00:00:00	2024-11-08T12:00:00	8	Radiación solar	962
4561	7	Sololá	701	Sololá	1	Sololá	2	Febrero	2023-04-02T00:00:00	2024-11-08T13:00:00	2	Temperatura media	17.9
4562	7	Sololá	701	Sololá	1	Sololá	2	Febrero	2023-04-02T00:00:00	2024-11-08T13:00:00	4	Temperatura máxima	17.9
4563	7	Sololá	701	Sololá	1	Sololá	2	Febrero	2023-04-02T00:00:00	2024-11-08T13:00:00	3	Temperatura mínima	16.7
4564	7	Sololá	701	Sololá	1	Sololá	2	Febrero	2023-04-02T00:00:00	2024-11-08T13:00:00	5	Humedad	65
4565	7	Sololá	701	Sololá	1	Sololá	2	Febrero	2023-04-02T00:00:00	2024-11-08T13:00:00	6	Velocidad del viento	22.5
4566	7	Sololá	701	Sololá	1	Sololá	2	Febrero	2023-04-02T00:00:00	2024-11-08T13:00:00	7	Dirección del viento	22.53
4567	7	Sololá	701	Sololá	1	Sololá	2	Febrero	2023-04-02T00:00:00	2024-11-08T13:00:00	1	Precipitación	0
4568	7	Sololá	701	Sololá	1	Sololá	2	Febrero	2023-04-02T00:00:00	2024-11-08T13:00:00	8	Radiación solar	975
4569	7	Sololá	701	Sololá	1	Sololá	2	Febrero	2023-04-02T00:00:00	2024-11-08T14:00:00	2	Temperatura media	18.2
4570	7	Sololá	701	Sololá	1	Sololá	2	Febrero	2023-04-02T00:00:00	2024-11-08T14:00:00	4	Temperatura máxima	19.2
4571	7	Sololá	701	Sololá	1	Sololá	2	Febrero	2023-04-02T00:00:00	2024-11-08T14:00:00	3	Temperatura mínima	17.6
4572	7	Sololá	701	Sololá	1	Sololá	2	Febrero	2023-04-02T00:00:00	2024-11-08T14:00:00	5	Humedad	63
4573	7	Sololá	701	Sololá	1	Sololá	2	Febrero	2023-04-02T00:00:00	2024-11-08T14:00:00	6	Velocidad del viento	19.3
4574	7	Sololá	701	Sololá	1	Sololá	2	Febrero	2023-04-02T00:00:00	2024-11-08T14:00:00	7	Dirección del viento	19.31
4575	7	Sololá	701	Sololá	1	Sololá	2	Febrero	2023-04-02T00:00:00	2024-11-08T14:00:00	1	Precipitación	0
4576	7	Sololá	701	Sololá	1	Sololá	2	Febrero	2023-04-02T00:00:00	2024-11-08T14:00:00	8	Radiación solar	222
4577	7	Sololá	701	Sololá	1	Sololá	2	Febrero	2023-04-02T00:00:00	2024-11-08T15:00:00	2	Temperatura media	18.4
4578	7	Sololá	701	Sololá	1	Sololá	2	Febrero	2023-04-02T00:00:00	2024-11-08T15:00:00	4	Temperatura máxima	19.3
4579	7	Sololá	701	Sololá	1	Sololá	2	Febrero	2023-04-02T00:00:00	2024-11-08T15:00:00	3	Temperatura mínima	18.1
4580	7	Sololá	701	Sololá	1	Sololá	2	Febrero	2023-04-02T00:00:00	2024-11-08T15:00:00	5	Humedad	63
4581	7	Sololá	701	Sololá	1	Sololá	2	Febrero	2023-04-02T00:00:00	2024-11-08T15:00:00	6	Velocidad del viento	17.7
4582	7	Sololá	701	Sololá	1	Sololá	2	Febrero	2023-04-02T00:00:00	2024-11-08T15:00:00	7	Dirección del viento	17.7
4583	7	Sololá	701	Sololá	1	Sololá	2	Febrero	2023-04-02T00:00:00	2024-11-08T15:00:00	1	Precipitación	0
4584	7	Sololá	701	Sololá	1	Sololá	2	Febrero	2023-04-02T00:00:00	2024-11-08T15:00:00	8	Radiación solar	128
4585	7	Sololá	701	Sololá	1	Sololá	2	Febrero	2023-04-02T00:00:00	2024-11-08T16:00:00	2	Temperatura media	17.9
4586	7	Sololá	701	Sololá	1	Sololá	2	Febrero	2023-04-02T00:00:00	2024-11-08T16:00:00	4	Temperatura máxima	18.8
4587	7	Sololá	701	Sololá	1	Sololá	2	Febrero	2023-04-02T00:00:00	2024-11-08T16:00:00	3	Temperatura mínima	17.8
4588	7	Sololá	701	Sololá	1	Sololá	2	Febrero	2023-04-02T00:00:00	2024-11-08T16:00:00	5	Humedad	64
4589	7	Sololá	701	Sololá	1	Sololá	2	Febrero	2023-04-02T00:00:00	2024-11-08T16:00:00	6	Velocidad del viento	16.1
4590	7	Sololá	701	Sololá	1	Sololá	2	Febrero	2023-04-02T00:00:00	2024-11-08T16:00:00	7	Dirección del viento	16.09
4591	7	Sololá	701	Sololá	1	Sololá	2	Febrero	2023-04-02T00:00:00	2024-11-08T16:00:00	1	Precipitación	0
4592	7	Sololá	701	Sololá	1	Sololá	2	Febrero	2023-04-02T00:00:00	2024-11-08T16:00:00	8	Radiación solar	122
4593	7	Sololá	701	Sololá	1	Sololá	2	Febrero	2023-04-02T00:00:00	2024-11-08T17:00:00	2	Temperatura media	17.6
4594	7	Sololá	701	Sololá	1	Sololá	2	Febrero	2023-04-02T00:00:00	2024-11-08T17:00:00	4	Temperatura máxima	18.6
4595	7	Sololá	701	Sololá	1	Sololá	2	Febrero	2023-04-02T00:00:00	2024-11-08T17:00:00	3	Temperatura mínima	17.4
4596	7	Sololá	701	Sololá	1	Sololá	2	Febrero	2023-04-02T00:00:00	2024-11-08T17:00:00	5	Humedad	66
4597	7	Sololá	701	Sololá	1	Sololá	2	Febrero	2023-04-02T00:00:00	2024-11-08T17:00:00	6	Velocidad del viento	14.5
4598	7	Sololá	701	Sololá	1	Sololá	2	Febrero	2023-04-02T00:00:00	2024-11-08T17:00:00	7	Dirección del viento	14.48
4599	7	Sololá	701	Sololá	1	Sololá	2	Febrero	2023-04-02T00:00:00	2024-11-08T17:00:00	1	Precipitación	0
4600	7	Sololá	701	Sololá	1	Sololá	2	Febrero	2023-04-02T00:00:00	2024-11-08T17:00:00	8	Radiación solar	51
4601	7	Sololá	701	Sololá	1	Sololá	2	Febrero	2023-04-02T00:00:00	2024-11-08T18:00:00	2	Temperatura media	15.2
4602	7	Sololá	701	Sololá	1	Sololá	2	Febrero	2023-04-02T00:00:00	2024-11-08T18:00:00	4	Temperatura máxima	17.5
4603	7	Sololá	701	Sololá	1	Sololá	2	Febrero	2023-04-02T00:00:00	2024-11-08T18:00:00	3	Temperatura mínima	15.2
4604	7	Sololá	701	Sololá	1	Sololá	2	Febrero	2023-04-02T00:00:00	2024-11-08T18:00:00	5	Humedad	73
4605	7	Sololá	701	Sololá	1	Sololá	2	Febrero	2023-04-02T00:00:00	2024-11-08T18:00:00	6	Velocidad del viento	16.1
4606	7	Sololá	701	Sololá	1	Sololá	2	Febrero	2023-04-02T00:00:00	2024-11-08T18:00:00	7	Dirección del viento	16.09
4607	7	Sololá	701	Sololá	1	Sololá	2	Febrero	2023-04-02T00:00:00	2024-11-08T18:00:00	1	Precipitación	0
4608	7	Sololá	701	Sololá	1	Sololá	2	Febrero	2023-04-02T00:00:00	2024-11-08T18:00:00	8	Radiación solar	32
4609	7	Sololá	701	Sololá	1	Sololá	2	Febrero	2023-04-02T00:00:00	2024-11-08T19:00:00	2	Temperatura media	14.1
4610	7	Sololá	701	Sololá	1	Sololá	2	Febrero	2023-04-02T00:00:00	2024-11-08T19:00:00	4	Temperatura máxima	15.2
4611	7	Sololá	701	Sololá	1	Sololá	2	Febrero	2023-04-02T00:00:00	2024-11-08T19:00:00	3	Temperatura mínima	14.1
4612	7	Sololá	701	Sololá	1	Sololá	2	Febrero	2023-04-02T00:00:00	2024-11-08T19:00:00	5	Humedad	79
4613	7	Sololá	701	Sololá	1	Sololá	2	Febrero	2023-04-02T00:00:00	2024-11-08T19:00:00	6	Velocidad del viento	20.9
4614	7	Sololá	701	Sololá	1	Sololá	2	Febrero	2023-04-02T00:00:00	2024-11-08T19:00:00	7	Dirección del viento	20.92
4615	7	Sololá	701	Sololá	1	Sololá	2	Febrero	2023-04-02T00:00:00	2024-11-08T19:00:00	1	Precipitación	0
4616	7	Sololá	701	Sololá	1	Sololá	2	Febrero	2023-04-02T00:00:00	2024-11-08T19:00:00	8	Radiación solar	0
4617	7	Sololá	701	Sololá	1	Sololá	2	Febrero	2023-04-02T00:00:00	2024-11-08T20:00:00	2	Temperatura media	13.9
4618	7	Sololá	701	Sololá	1	Sololá	2	Febrero	2023-04-02T00:00:00	2024-11-08T20:00:00	4	Temperatura máxima	14.3
4619	7	Sololá	701	Sololá	1	Sololá	2	Febrero	2023-04-02T00:00:00	2024-11-08T20:00:00	3	Temperatura mínima	13.9
4620	7	Sololá	701	Sololá	1	Sololá	2	Febrero	2023-04-02T00:00:00	2024-11-08T20:00:00	5	Humedad	78
4621	7	Sololá	701	Sololá	1	Sololá	2	Febrero	2023-04-02T00:00:00	2024-11-08T20:00:00	6	Velocidad del viento	24.1
4622	7	Sololá	701	Sololá	1	Sololá	2	Febrero	2023-04-02T00:00:00	2024-11-08T20:00:00	7	Dirección del viento	24.14
4623	7	Sololá	701	Sololá	1	Sololá	2	Febrero	2023-04-02T00:00:00	2024-11-08T20:00:00	1	Precipitación	0
4624	7	Sololá	701	Sololá	1	Sololá	2	Febrero	2023-04-02T00:00:00	2024-11-08T20:00:00	8	Radiación solar	0
4625	7	Sololá	701	Sololá	1	Sololá	2	Febrero	2023-04-02T00:00:00	2024-11-08T21:00:00	2	Temperatura media	13.8
4626	7	Sololá	701	Sololá	1	Sololá	2	Febrero	2023-04-02T00:00:00	2024-11-08T21:00:00	4	Temperatura máxima	13.9
4627	7	Sololá	701	Sololá	1	Sololá	2	Febrero	2023-04-02T00:00:00	2024-11-08T21:00:00	3	Temperatura mínima	13.8
4628	7	Sololá	701	Sololá	1	Sololá	2	Febrero	2023-04-02T00:00:00	2024-11-08T21:00:00	5	Humedad	77
4629	7	Sololá	701	Sololá	1	Sololá	2	Febrero	2023-04-02T00:00:00	2024-11-08T21:00:00	6	Velocidad del viento	17.7
4630	7	Sololá	701	Sololá	1	Sololá	2	Febrero	2023-04-02T00:00:00	2024-11-08T21:00:00	7	Dirección del viento	17.7
4631	7	Sololá	701	Sololá	1	Sololá	2	Febrero	2023-04-02T00:00:00	2024-11-08T21:00:00	1	Precipitación	0
4632	7	Sololá	701	Sololá	1	Sololá	2	Febrero	2023-04-02T00:00:00	2024-11-08T21:00:00	8	Radiación solar	0
4633	7	Sololá	701	Sololá	1	Sololá	2	Febrero	2023-04-02T00:00:00	2024-11-08T22:00:00	2	Temperatura media	13.7
4634	7	Sololá	701	Sololá	1	Sololá	2	Febrero	2023-04-02T00:00:00	2024-11-08T22:00:00	4	Temperatura máxima	13.8
4635	7	Sololá	701	Sololá	1	Sololá	2	Febrero	2023-04-02T00:00:00	2024-11-08T22:00:00	3	Temperatura mínima	13.6
4636	7	Sololá	701	Sololá	1	Sololá	2	Febrero	2023-04-02T00:00:00	2024-11-08T22:00:00	5	Humedad	78
4637	7	Sololá	701	Sololá	1	Sololá	2	Febrero	2023-04-02T00:00:00	2024-11-08T22:00:00	6	Velocidad del viento	19.3
4638	7	Sololá	701	Sololá	1	Sololá	2	Febrero	2023-04-02T00:00:00	2024-11-08T22:00:00	7	Dirección del viento	19.31
4639	7	Sololá	701	Sololá	1	Sololá	2	Febrero	2023-04-02T00:00:00	2024-11-08T22:00:00	1	Precipitación	0
4640	7	Sololá	701	Sololá	1	Sololá	2	Febrero	2023-04-02T00:00:00	2024-11-08T22:00:00	8	Radiación solar	0
4641	7	Sololá	701	Sololá	1	Sololá	2	Febrero	2023-04-02T00:00:00	2024-11-08T23:00:00	2	Temperatura media	13.6
4642	7	Sololá	701	Sololá	1	Sololá	2	Febrero	2023-04-02T00:00:00	2024-11-08T23:00:00	4	Temperatura máxima	13.8
4643	7	Sololá	701	Sololá	1	Sololá	2	Febrero	2023-04-02T00:00:00	2024-11-08T23:00:00	3	Temperatura mínima	13.4
4644	7	Sololá	701	Sololá	1	Sololá	2	Febrero	2023-04-02T00:00:00	2024-11-08T23:00:00	5	Humedad	76
4645	7	Sololá	701	Sololá	1	Sololá	2	Febrero	2023-04-02T00:00:00	2024-11-08T23:00:00	6	Velocidad del viento	19.3
4646	7	Sololá	701	Sololá	1	Sololá	2	Febrero	2023-04-02T00:00:00	2024-11-08T23:00:00	7	Dirección del viento	19.31
4647	7	Sololá	701	Sololá	1	Sololá	2	Febrero	2023-04-02T00:00:00	2024-11-08T23:00:00	1	Precipitación	0
4648	7	Sololá	701	Sololá	1	Sololá	2	Febrero	2023-04-02T00:00:00	2024-11-08T23:00:00	8	Radiación solar	0
4649	7	Sololá	701	Sololá	1	Sololá	2	Febrero	2023-05-02T00:00:00	2024-11-08T00:00:00	2	Temperatura media	13.4
4650	7	Sololá	701	Sololá	1	Sololá	2	Febrero	2023-05-02T00:00:00	2024-11-08T00:00:00	4	Temperatura máxima	13.6
4651	7	Sololá	701	Sololá	1	Sololá	2	Febrero	2023-05-02T00:00:00	2024-11-08T00:00:00	3	Temperatura mínima	13.2
4652	7	Sololá	701	Sololá	1	Sololá	2	Febrero	2023-05-02T00:00:00	2024-11-08T00:00:00	5	Humedad	78
4653	7	Sololá	701	Sololá	1	Sololá	2	Febrero	2023-05-02T00:00:00	2024-11-08T00:00:00	6	Velocidad del viento	19.3
4654	7	Sololá	701	Sololá	1	Sololá	2	Febrero	2023-05-02T00:00:00	2024-11-08T00:00:00	7	Dirección del viento	19.31
4655	7	Sololá	701	Sololá	1	Sololá	2	Febrero	2023-05-02T00:00:00	2024-11-08T00:00:00	1	Precipitación	0
4656	7	Sololá	701	Sololá	1	Sololá	2	Febrero	2023-05-02T00:00:00	2024-11-08T00:00:00	8	Radiación solar	0
4657	7	Sololá	701	Sololá	1	Sololá	2	Febrero	2023-05-02T00:00:00	2024-11-08T01:00:00	2	Temperatura media	13.4
4658	7	Sololá	701	Sololá	1	Sololá	2	Febrero	2023-05-02T00:00:00	2024-11-08T01:00:00	4	Temperatura máxima	13.6
4659	7	Sololá	701	Sololá	1	Sololá	2	Febrero	2023-05-02T00:00:00	2024-11-08T01:00:00	3	Temperatura mínima	13.3
4660	7	Sololá	701	Sololá	1	Sololá	2	Febrero	2023-05-02T00:00:00	2024-11-08T01:00:00	5	Humedad	78
4661	7	Sololá	701	Sololá	1	Sololá	2	Febrero	2023-05-02T00:00:00	2024-11-08T01:00:00	6	Velocidad del viento	22.5
4662	7	Sololá	701	Sololá	1	Sololá	2	Febrero	2023-05-02T00:00:00	2024-11-08T01:00:00	7	Dirección del viento	22.53
4663	7	Sololá	701	Sololá	1	Sololá	2	Febrero	2023-05-02T00:00:00	2024-11-08T01:00:00	1	Precipitación	0
4664	7	Sololá	701	Sololá	1	Sololá	2	Febrero	2023-05-02T00:00:00	2024-11-08T01:00:00	8	Radiación solar	0
4665	7	Sololá	701	Sololá	1	Sololá	2	Febrero	2023-05-02T00:00:00	2024-11-08T02:00:00	2	Temperatura media	13.7
4666	7	Sololá	701	Sololá	1	Sololá	2	Febrero	2023-05-02T00:00:00	2024-11-08T02:00:00	4	Temperatura máxima	13.7
4667	7	Sololá	701	Sololá	1	Sololá	2	Febrero	2023-05-02T00:00:00	2024-11-08T02:00:00	3	Temperatura mínima	13.1
4668	7	Sololá	701	Sololá	1	Sololá	2	Febrero	2023-05-02T00:00:00	2024-11-08T02:00:00	5	Humedad	78
4669	7	Sololá	701	Sololá	1	Sololá	2	Febrero	2023-05-02T00:00:00	2024-11-08T02:00:00	6	Velocidad del viento	20.9
4670	7	Sololá	701	Sololá	1	Sololá	2	Febrero	2023-05-02T00:00:00	2024-11-08T02:00:00	7	Dirección del viento	20.92
4671	7	Sololá	701	Sololá	1	Sololá	2	Febrero	2023-05-02T00:00:00	2024-11-08T02:00:00	1	Precipitación	0
4672	7	Sololá	701	Sololá	1	Sololá	2	Febrero	2023-05-02T00:00:00	2024-11-08T02:00:00	8	Radiación solar	0
4673	7	Sololá	701	Sololá	1	Sololá	2	Febrero	2023-05-02T00:00:00	2024-11-08T03:00:00	2	Temperatura media	13.4
4674	7	Sololá	701	Sololá	1	Sololá	2	Febrero	2023-05-02T00:00:00	2024-11-08T03:00:00	4	Temperatura máxima	13.8
4675	7	Sololá	701	Sololá	1	Sololá	2	Febrero	2023-05-02T00:00:00	2024-11-08T03:00:00	3	Temperatura mínima	13.3
4676	7	Sololá	701	Sololá	1	Sololá	2	Febrero	2023-05-02T00:00:00	2024-11-08T03:00:00	5	Humedad	79
4677	7	Sololá	701	Sololá	1	Sololá	2	Febrero	2023-05-02T00:00:00	2024-11-08T03:00:00	6	Velocidad del viento	19.3
4678	7	Sololá	701	Sololá	1	Sololá	2	Febrero	2023-05-02T00:00:00	2024-11-08T03:00:00	7	Dirección del viento	19.31
4679	7	Sololá	701	Sololá	1	Sololá	2	Febrero	2023-05-02T00:00:00	2024-11-08T03:00:00	1	Precipitación	0
4680	7	Sololá	701	Sololá	1	Sololá	2	Febrero	2023-05-02T00:00:00	2024-11-08T03:00:00	8	Radiación solar	0
4681	7	Sololá	701	Sololá	1	Sololá	2	Febrero	2023-05-02T00:00:00	2024-11-08T04:00:00	2	Temperatura media	13.3
4682	7	Sololá	701	Sololá	1	Sololá	2	Febrero	2023-05-02T00:00:00	2024-11-08T04:00:00	4	Temperatura máxima	13.4
4683	7	Sololá	701	Sololá	1	Sololá	2	Febrero	2023-05-02T00:00:00	2024-11-08T04:00:00	3	Temperatura mínima	13.3
4684	7	Sololá	701	Sololá	1	Sololá	2	Febrero	2023-05-02T00:00:00	2024-11-08T04:00:00	5	Humedad	79
4685	7	Sololá	701	Sololá	1	Sololá	2	Febrero	2023-05-02T00:00:00	2024-11-08T04:00:00	6	Velocidad del viento	19.3
4686	7	Sololá	701	Sololá	1	Sololá	2	Febrero	2023-05-02T00:00:00	2024-11-08T04:00:00	7	Dirección del viento	19.31
4687	7	Sololá	701	Sololá	1	Sololá	2	Febrero	2023-05-02T00:00:00	2024-11-08T04:00:00	1	Precipitación	0
4688	7	Sololá	701	Sololá	1	Sololá	2	Febrero	2023-05-02T00:00:00	2024-11-08T04:00:00	8	Radiación solar	0
4689	7	Sololá	701	Sololá	1	Sololá	2	Febrero	2023-05-02T00:00:00	2024-11-08T05:00:00	2	Temperatura media	13.3
4690	7	Sololá	701	Sololá	1	Sololá	2	Febrero	2023-05-02T00:00:00	2024-11-08T05:00:00	4	Temperatura máxima	13.3
4691	7	Sololá	701	Sololá	1	Sololá	2	Febrero	2023-05-02T00:00:00	2024-11-08T05:00:00	3	Temperatura mínima	13.1
4692	7	Sololá	701	Sololá	1	Sololá	2	Febrero	2023-05-02T00:00:00	2024-11-08T05:00:00	5	Humedad	78
4693	7	Sololá	701	Sololá	1	Sololá	2	Febrero	2023-05-02T00:00:00	2024-11-08T05:00:00	6	Velocidad del viento	17.7
4694	7	Sololá	701	Sololá	1	Sololá	2	Febrero	2023-05-02T00:00:00	2024-11-08T05:00:00	7	Dirección del viento	17.7
4695	7	Sololá	701	Sololá	1	Sololá	2	Febrero	2023-05-02T00:00:00	2024-11-08T05:00:00	1	Precipitación	0
4696	7	Sololá	701	Sololá	1	Sololá	2	Febrero	2023-05-02T00:00:00	2024-11-08T05:00:00	8	Radiación solar	0
4697	7	Sololá	701	Sololá	1	Sololá	2	Febrero	2023-05-02T00:00:00	2024-11-08T06:00:00	2	Temperatura media	12.7
4698	7	Sololá	701	Sololá	1	Sololá	2	Febrero	2023-05-02T00:00:00	2024-11-08T06:00:00	4	Temperatura máxima	13.3
4699	7	Sololá	701	Sololá	1	Sololá	2	Febrero	2023-05-02T00:00:00	2024-11-08T06:00:00	3	Temperatura mínima	12.5
4700	7	Sololá	701	Sololá	1	Sololá	2	Febrero	2023-05-02T00:00:00	2024-11-08T06:00:00	5	Humedad	79
4701	7	Sololá	701	Sololá	1	Sololá	2	Febrero	2023-05-02T00:00:00	2024-11-08T06:00:00	6	Velocidad del viento	19.3
4702	7	Sololá	701	Sololá	1	Sololá	2	Febrero	2023-05-02T00:00:00	2024-11-08T06:00:00	7	Dirección del viento	19.31
4703	7	Sololá	701	Sololá	1	Sololá	2	Febrero	2023-05-02T00:00:00	2024-11-08T06:00:00	1	Precipitación	0
4704	7	Sololá	701	Sololá	1	Sololá	2	Febrero	2023-05-02T00:00:00	2024-11-08T06:00:00	8	Radiación solar	0
4705	7	Sololá	701	Sololá	1	Sololá	2	Febrero	2023-05-02T00:00:00	2024-11-08T07:00:00	2	Temperatura media	12.5
4706	7	Sololá	701	Sololá	1	Sololá	2	Febrero	2023-05-02T00:00:00	2024-11-08T07:00:00	4	Temperatura máxima	12.8
4707	7	Sololá	701	Sololá	1	Sololá	2	Febrero	2023-05-02T00:00:00	2024-11-08T07:00:00	3	Temperatura mínima	12.3
4708	7	Sololá	701	Sololá	1	Sololá	2	Febrero	2023-05-02T00:00:00	2024-11-08T07:00:00	5	Humedad	80
4709	7	Sololá	701	Sololá	1	Sololá	2	Febrero	2023-05-02T00:00:00	2024-11-08T07:00:00	6	Velocidad del viento	16.1
4710	7	Sololá	701	Sololá	1	Sololá	2	Febrero	2023-05-02T00:00:00	2024-11-08T07:00:00	7	Dirección del viento	16.09
4711	7	Sololá	701	Sololá	1	Sololá	2	Febrero	2023-05-02T00:00:00	2024-11-08T07:00:00	1	Precipitación	0
4712	7	Sololá	701	Sololá	1	Sololá	2	Febrero	2023-05-02T00:00:00	2024-11-08T07:00:00	8	Radiación solar	6
4713	7	Sololá	701	Sololá	1	Sololá	2	Febrero	2023-05-02T00:00:00	2024-11-08T08:00:00	2	Temperatura media	13.9
4714	7	Sololá	701	Sololá	1	Sololá	2	Febrero	2023-05-02T00:00:00	2024-11-08T08:00:00	4	Temperatura máxima	13.9
4715	7	Sololá	701	Sololá	1	Sololá	2	Febrero	2023-05-02T00:00:00	2024-11-08T08:00:00	3	Temperatura mínima	12.5
4716	7	Sololá	701	Sololá	1	Sololá	2	Febrero	2023-05-02T00:00:00	2024-11-08T08:00:00	5	Humedad	75
4717	7	Sololá	701	Sololá	1	Sololá	2	Febrero	2023-05-02T00:00:00	2024-11-08T08:00:00	6	Velocidad del viento	17.7
4718	7	Sololá	701	Sololá	1	Sololá	2	Febrero	2023-05-02T00:00:00	2024-11-08T08:00:00	7	Dirección del viento	17.7
4719	7	Sololá	701	Sololá	1	Sololá	2	Febrero	2023-05-02T00:00:00	2024-11-08T08:00:00	1	Precipitación	0
4720	7	Sololá	701	Sololá	1	Sololá	2	Febrero	2023-05-02T00:00:00	2024-11-08T08:00:00	8	Radiación solar	26
4721	7	Sololá	701	Sololá	1	Sololá	2	Febrero	2023-05-02T00:00:00	2024-11-08T09:00:00	2	Temperatura media	15
4722	7	Sololá	701	Sololá	1	Sololá	2	Febrero	2023-05-02T00:00:00	2024-11-08T09:00:00	4	Temperatura máxima	15.1
4723	7	Sololá	701	Sololá	1	Sololá	2	Febrero	2023-05-02T00:00:00	2024-11-08T09:00:00	3	Temperatura mínima	13.9
4724	7	Sololá	701	Sololá	1	Sololá	2	Febrero	2023-05-02T00:00:00	2024-11-08T09:00:00	5	Humedad	70
4725	7	Sololá	701	Sololá	1	Sololá	2	Febrero	2023-05-02T00:00:00	2024-11-08T09:00:00	6	Velocidad del viento	19.3
4726	7	Sololá	701	Sololá	1	Sololá	2	Febrero	2023-05-02T00:00:00	2024-11-08T09:00:00	7	Dirección del viento	19.31
4727	7	Sololá	701	Sololá	1	Sololá	2	Febrero	2023-05-02T00:00:00	2024-11-08T09:00:00	1	Precipitación	0
4728	7	Sololá	701	Sololá	1	Sololá	2	Febrero	2023-05-02T00:00:00	2024-11-08T09:00:00	8	Radiación solar	375
4729	7	Sololá	701	Sololá	1	Sololá	2	Febrero	2023-05-02T00:00:00	2024-11-08T10:00:00	2	Temperatura media	16.1
4730	7	Sololá	701	Sololá	1	Sololá	2	Febrero	2023-05-02T00:00:00	2024-11-08T10:00:00	4	Temperatura máxima	16.1
4731	7	Sololá	701	Sololá	1	Sololá	2	Febrero	2023-05-02T00:00:00	2024-11-08T10:00:00	3	Temperatura mínima	14.9
4732	7	Sololá	701	Sololá	1	Sololá	2	Febrero	2023-05-02T00:00:00	2024-11-08T10:00:00	5	Humedad	65
4733	7	Sololá	701	Sololá	1	Sololá	2	Febrero	2023-05-02T00:00:00	2024-11-08T10:00:00	6	Velocidad del viento	22.5
4734	7	Sololá	701	Sololá	1	Sololá	2	Febrero	2023-05-02T00:00:00	2024-11-08T10:00:00	7	Dirección del viento	22.53
4735	7	Sololá	701	Sololá	1	Sololá	2	Febrero	2023-05-02T00:00:00	2024-11-08T10:00:00	1	Precipitación	0
4736	7	Sololá	701	Sololá	1	Sololá	2	Febrero	2023-05-02T00:00:00	2024-11-08T10:00:00	8	Radiación solar	700
4737	7	Sololá	701	Sololá	1	Sololá	2	Febrero	2023-05-02T00:00:00	2024-11-08T11:00:00	2	Temperatura media	17.4
4738	7	Sololá	701	Sololá	1	Sololá	2	Febrero	2023-05-02T00:00:00	2024-11-08T11:00:00	4	Temperatura máxima	17.5
4739	7	Sololá	701	Sololá	1	Sololá	2	Febrero	2023-05-02T00:00:00	2024-11-08T11:00:00	3	Temperatura mínima	16
4740	7	Sololá	701	Sololá	1	Sololá	2	Febrero	2023-05-02T00:00:00	2024-11-08T11:00:00	5	Humedad	56
4741	7	Sololá	701	Sololá	1	Sololá	2	Febrero	2023-05-02T00:00:00	2024-11-08T11:00:00	6	Velocidad del viento	20.9
4742	7	Sololá	701	Sololá	1	Sololá	2	Febrero	2023-05-02T00:00:00	2024-11-08T11:00:00	7	Dirección del viento	20.92
4743	7	Sololá	701	Sololá	1	Sololá	2	Febrero	2023-05-02T00:00:00	2024-11-08T11:00:00	1	Precipitación	0
4744	7	Sololá	701	Sololá	1	Sololá	2	Febrero	2023-05-02T00:00:00	2024-11-08T11:00:00	8	Radiación solar	875
4745	7	Sololá	701	Sololá	1	Sololá	2	Febrero	2023-05-02T00:00:00	2024-11-08T12:00:00	2	Temperatura media	19.5
4746	7	Sololá	701	Sololá	1	Sololá	2	Febrero	2023-05-02T00:00:00	2024-11-08T12:00:00	4	Temperatura máxima	19.7
4747	7	Sololá	701	Sololá	1	Sololá	2	Febrero	2023-05-02T00:00:00	2024-11-08T12:00:00	3	Temperatura mínima	17.4
4748	7	Sololá	701	Sololá	1	Sololá	2	Febrero	2023-05-02T00:00:00	2024-11-08T12:00:00	5	Humedad	46
4749	7	Sololá	701	Sololá	1	Sololá	2	Febrero	2023-05-02T00:00:00	2024-11-08T12:00:00	6	Velocidad del viento	16.1
4750	7	Sololá	701	Sololá	1	Sololá	2	Febrero	2023-05-02T00:00:00	2024-11-08T12:00:00	7	Dirección del viento	16.09
4751	7	Sololá	701	Sololá	1	Sololá	2	Febrero	2023-05-02T00:00:00	2024-11-08T12:00:00	1	Precipitación	0
4752	7	Sololá	701	Sololá	1	Sololá	2	Febrero	2023-05-02T00:00:00	2024-11-08T12:00:00	8	Radiación solar	966
4753	7	Sololá	701	Sololá	1	Sololá	2	Febrero	2023-05-02T00:00:00	2024-11-08T13:00:00	2	Temperatura media	20.7
4754	7	Sololá	701	Sololá	1	Sololá	2	Febrero	2023-05-02T00:00:00	2024-11-08T13:00:00	4	Temperatura máxima	20.7
4755	7	Sololá	701	Sololá	1	Sololá	2	Febrero	2023-05-02T00:00:00	2024-11-08T13:00:00	3	Temperatura mínima	19.4
4756	7	Sololá	701	Sololá	1	Sololá	2	Febrero	2023-05-02T00:00:00	2024-11-08T13:00:00	5	Humedad	37
4757	7	Sololá	701	Sololá	1	Sololá	2	Febrero	2023-05-02T00:00:00	2024-11-08T13:00:00	6	Velocidad del viento	14.5
4758	7	Sololá	701	Sololá	1	Sololá	2	Febrero	2023-05-02T00:00:00	2024-11-08T13:00:00	7	Dirección del viento	14.48
4759	7	Sololá	701	Sololá	1	Sololá	2	Febrero	2023-05-02T00:00:00	2024-11-08T13:00:00	1	Precipitación	0
4760	7	Sololá	701	Sololá	1	Sololá	2	Febrero	2023-05-02T00:00:00	2024-11-08T13:00:00	8	Radiación solar	1054
4761	7	Sololá	701	Sololá	1	Sololá	2	Febrero	2023-05-02T00:00:00	2024-11-08T14:00:00	2	Temperatura media	20
4762	7	Sololá	701	Sololá	1	Sololá	2	Febrero	2023-05-02T00:00:00	2024-11-08T14:00:00	4	Temperatura máxima	21.1
4763	7	Sololá	701	Sololá	1	Sololá	2	Febrero	2023-05-02T00:00:00	2024-11-08T14:00:00	3	Temperatura mínima	19.9
4764	7	Sololá	701	Sololá	1	Sololá	2	Febrero	2023-05-02T00:00:00	2024-11-08T14:00:00	5	Humedad	43
4765	7	Sololá	701	Sololá	1	Sololá	2	Febrero	2023-05-02T00:00:00	2024-11-08T14:00:00	6	Velocidad del viento	16.1
4766	7	Sololá	701	Sololá	1	Sololá	2	Febrero	2023-05-02T00:00:00	2024-11-08T14:00:00	7	Dirección del viento	16.09
4767	7	Sololá	701	Sololá	1	Sololá	2	Febrero	2023-05-02T00:00:00	2024-11-08T14:00:00	1	Precipitación	0
4768	7	Sololá	701	Sololá	1	Sololá	2	Febrero	2023-05-02T00:00:00	2024-11-08T14:00:00	8	Radiación solar	419
4769	7	Sololá	701	Sololá	1	Sololá	2	Febrero	2023-05-02T00:00:00	2024-11-08T15:00:00	2	Temperatura media	20.3
4770	7	Sololá	701	Sololá	1	Sololá	2	Febrero	2023-05-02T00:00:00	2024-11-08T15:00:00	4	Temperatura máxima	20.8
4771	7	Sololá	701	Sololá	1	Sololá	2	Febrero	2023-05-02T00:00:00	2024-11-08T15:00:00	3	Temperatura mínima	19.9
4772	7	Sololá	701	Sololá	1	Sololá	2	Febrero	2023-05-02T00:00:00	2024-11-08T15:00:00	5	Humedad	44
4773	7	Sololá	701	Sololá	1	Sololá	2	Febrero	2023-05-02T00:00:00	2024-11-08T15:00:00	6	Velocidad del viento	12.9
4774	7	Sololá	701	Sololá	1	Sololá	2	Febrero	2023-05-02T00:00:00	2024-11-08T15:00:00	7	Dirección del viento	12.87
4775	7	Sololá	701	Sololá	1	Sololá	2	Febrero	2023-05-02T00:00:00	2024-11-08T15:00:00	1	Precipitación	0
4776	7	Sololá	701	Sololá	1	Sololá	2	Febrero	2023-05-02T00:00:00	2024-11-08T15:00:00	8	Radiación solar	301
4777	7	Sololá	701	Sololá	1	Sololá	2	Febrero	2023-05-02T00:00:00	2024-11-08T16:00:00	2	Temperatura media	19.6
4778	7	Sololá	701	Sololá	1	Sololá	2	Febrero	2023-05-02T00:00:00	2024-11-08T16:00:00	4	Temperatura máxima	20.8
4779	7	Sololá	701	Sololá	1	Sololá	2	Febrero	2023-05-02T00:00:00	2024-11-08T16:00:00	3	Temperatura mínima	19.6
4780	7	Sololá	701	Sololá	1	Sololá	2	Febrero	2023-05-02T00:00:00	2024-11-08T16:00:00	5	Humedad	46
4781	7	Sololá	701	Sololá	1	Sololá	2	Febrero	2023-05-02T00:00:00	2024-11-08T16:00:00	6	Velocidad del viento	12.9
4782	7	Sololá	701	Sololá	1	Sololá	2	Febrero	2023-05-02T00:00:00	2024-11-08T16:00:00	7	Dirección del viento	12.87
4783	7	Sololá	701	Sololá	1	Sololá	2	Febrero	2023-05-02T00:00:00	2024-11-08T16:00:00	1	Precipitación	0
4784	7	Sololá	701	Sololá	1	Sololá	2	Febrero	2023-05-02T00:00:00	2024-11-08T16:00:00	8	Radiación solar	199
4785	7	Sololá	701	Sololá	1	Sololá	2	Febrero	2023-05-02T00:00:00	2024-11-08T17:00:00	2	Temperatura media	18.4
4786	7	Sololá	701	Sololá	1	Sololá	2	Febrero	2023-05-02T00:00:00	2024-11-08T17:00:00	4	Temperatura máxima	19.7
4787	7	Sololá	701	Sololá	1	Sololá	2	Febrero	2023-05-02T00:00:00	2024-11-08T17:00:00	3	Temperatura mínima	18.4
4788	7	Sololá	701	Sololá	1	Sololá	2	Febrero	2023-05-02T00:00:00	2024-11-08T17:00:00	5	Humedad	54
4789	7	Sololá	701	Sololá	1	Sololá	2	Febrero	2023-05-02T00:00:00	2024-11-08T17:00:00	6	Velocidad del viento	14.5
4790	7	Sololá	701	Sololá	1	Sololá	2	Febrero	2023-05-02T00:00:00	2024-11-08T17:00:00	7	Dirección del viento	14.48
4791	7	Sololá	701	Sololá	1	Sololá	2	Febrero	2023-05-02T00:00:00	2024-11-08T17:00:00	1	Precipitación	0
4792	7	Sololá	701	Sololá	1	Sololá	2	Febrero	2023-05-02T00:00:00	2024-11-08T17:00:00	8	Radiación solar	149
4793	7	Sololá	701	Sololá	1	Sololá	2	Febrero	2023-05-02T00:00:00	2024-11-08T18:00:00	2	Temperatura media	15.8
4794	7	Sololá	701	Sololá	1	Sololá	2	Febrero	2023-05-02T00:00:00	2024-11-08T18:00:00	4	Temperatura máxima	18.4
4795	7	Sololá	701	Sololá	1	Sololá	2	Febrero	2023-05-02T00:00:00	2024-11-08T18:00:00	3	Temperatura mínima	15.8
4796	7	Sololá	701	Sololá	1	Sololá	2	Febrero	2023-05-02T00:00:00	2024-11-08T18:00:00	5	Humedad	69
4797	7	Sololá	701	Sololá	1	Sololá	2	Febrero	2023-05-02T00:00:00	2024-11-08T18:00:00	6	Velocidad del viento	12.9
4798	7	Sololá	701	Sololá	1	Sololá	2	Febrero	2023-05-02T00:00:00	2024-11-08T18:00:00	7	Dirección del viento	12.87
4799	7	Sololá	701	Sololá	1	Sololá	2	Febrero	2023-05-02T00:00:00	2024-11-08T18:00:00	1	Precipitación	0
4800	7	Sololá	701	Sololá	1	Sololá	2	Febrero	2023-05-02T00:00:00	2024-11-08T18:00:00	8	Radiación solar	58
4801	7	Sololá	701	Sololá	1	Sololá	2	Febrero	2023-05-02T00:00:00	2024-11-08T19:00:00	2	Temperatura media	14.1
4802	7	Sololá	701	Sololá	1	Sololá	2	Febrero	2023-05-02T00:00:00	2024-11-08T19:00:00	4	Temperatura máxima	15.8
4803	7	Sololá	701	Sololá	1	Sololá	2	Febrero	2023-05-02T00:00:00	2024-11-08T19:00:00	3	Temperatura mínima	14.1
4804	7	Sololá	701	Sololá	1	Sololá	2	Febrero	2023-05-02T00:00:00	2024-11-08T19:00:00	5	Humedad	75
4805	7	Sololá	701	Sololá	1	Sololá	2	Febrero	2023-05-02T00:00:00	2024-11-08T19:00:00	6	Velocidad del viento	17.7
4806	7	Sololá	701	Sololá	1	Sololá	2	Febrero	2023-05-02T00:00:00	2024-11-08T19:00:00	7	Dirección del viento	17.7
4807	7	Sololá	701	Sololá	1	Sololá	2	Febrero	2023-05-02T00:00:00	2024-11-08T19:00:00	1	Precipitación	0
4808	7	Sololá	701	Sololá	1	Sololá	2	Febrero	2023-05-02T00:00:00	2024-11-08T19:00:00	8	Radiación solar	0
4809	7	Sololá	701	Sololá	1	Sololá	2	Febrero	2023-05-02T00:00:00	2024-11-08T20:00:00	2	Temperatura media	13.4
4810	7	Sololá	701	Sololá	1	Sololá	2	Febrero	2023-05-02T00:00:00	2024-11-08T20:00:00	4	Temperatura máxima	14.1
4811	7	Sololá	701	Sololá	1	Sololá	2	Febrero	2023-05-02T00:00:00	2024-11-08T20:00:00	3	Temperatura mínima	13.4
4812	7	Sololá	701	Sololá	1	Sololá	2	Febrero	2023-05-02T00:00:00	2024-11-08T20:00:00	5	Humedad	74
4813	7	Sololá	701	Sololá	1	Sololá	2	Febrero	2023-05-02T00:00:00	2024-11-08T20:00:00	6	Velocidad del viento	22.5
4814	7	Sololá	701	Sololá	1	Sololá	2	Febrero	2023-05-02T00:00:00	2024-11-08T20:00:00	7	Dirección del viento	22.53
4815	7	Sololá	701	Sololá	1	Sololá	2	Febrero	2023-05-02T00:00:00	2024-11-08T20:00:00	1	Precipitación	0
4816	7	Sololá	701	Sololá	1	Sololá	2	Febrero	2023-05-02T00:00:00	2024-11-08T20:00:00	8	Radiación solar	0
4817	7	Sololá	701	Sololá	1	Sololá	2	Febrero	2023-05-02T00:00:00	2024-11-08T21:00:00	2	Temperatura media	13.2
4818	7	Sololá	701	Sololá	1	Sololá	2	Febrero	2023-05-02T00:00:00	2024-11-08T21:00:00	4	Temperatura máxima	13.5
4819	7	Sololá	701	Sololá	1	Sololá	2	Febrero	2023-05-02T00:00:00	2024-11-08T21:00:00	3	Temperatura mínima	13.2
4820	7	Sololá	701	Sololá	1	Sololá	2	Febrero	2023-05-02T00:00:00	2024-11-08T21:00:00	5	Humedad	73
4821	7	Sololá	701	Sololá	1	Sololá	2	Febrero	2023-05-02T00:00:00	2024-11-08T21:00:00	6	Velocidad del viento	19.3
4822	7	Sololá	701	Sololá	1	Sololá	2	Febrero	2023-05-02T00:00:00	2024-11-08T21:00:00	7	Dirección del viento	19.31
4823	7	Sololá	701	Sololá	1	Sololá	2	Febrero	2023-05-02T00:00:00	2024-11-08T21:00:00	1	Precipitación	0
4824	7	Sololá	701	Sololá	1	Sololá	2	Febrero	2023-05-02T00:00:00	2024-11-08T21:00:00	8	Radiación solar	0
4825	7	Sololá	701	Sololá	1	Sololá	2	Febrero	2023-05-02T00:00:00	2024-11-08T22:00:00	2	Temperatura media	12.7
4826	7	Sololá	701	Sololá	1	Sololá	2	Febrero	2023-05-02T00:00:00	2024-11-08T22:00:00	4	Temperatura máxima	13.2
4827	7	Sololá	701	Sololá	1	Sololá	2	Febrero	2023-05-02T00:00:00	2024-11-08T22:00:00	3	Temperatura mínima	12.7
4828	7	Sololá	701	Sololá	1	Sololá	2	Febrero	2023-05-02T00:00:00	2024-11-08T22:00:00	5	Humedad	75
4829	7	Sololá	701	Sololá	1	Sololá	2	Febrero	2023-05-02T00:00:00	2024-11-08T22:00:00	6	Velocidad del viento	19.3
4830	7	Sololá	701	Sololá	1	Sololá	2	Febrero	2023-05-02T00:00:00	2024-11-08T22:00:00	7	Dirección del viento	19.31
4831	7	Sololá	701	Sololá	1	Sololá	2	Febrero	2023-05-02T00:00:00	2024-11-08T22:00:00	1	Precipitación	0
4832	7	Sololá	701	Sololá	1	Sololá	2	Febrero	2023-05-02T00:00:00	2024-11-08T22:00:00	8	Radiación solar	0
4833	7	Sololá	701	Sololá	1	Sololá	2	Febrero	2023-05-02T00:00:00	2024-11-08T23:00:00	2	Temperatura media	12.1
4834	7	Sololá	701	Sololá	1	Sololá	2	Febrero	2023-05-02T00:00:00	2024-11-08T23:00:00	4	Temperatura máxima	12.8
4835	7	Sololá	701	Sololá	1	Sololá	2	Febrero	2023-05-02T00:00:00	2024-11-08T23:00:00	3	Temperatura mínima	12
4836	7	Sololá	701	Sololá	1	Sololá	2	Febrero	2023-05-02T00:00:00	2024-11-08T23:00:00	5	Humedad	76
4837	7	Sololá	701	Sololá	1	Sololá	2	Febrero	2023-05-02T00:00:00	2024-11-08T23:00:00	6	Velocidad del viento	19.3
4838	7	Sololá	701	Sololá	1	Sololá	2	Febrero	2023-05-02T00:00:00	2024-11-08T23:00:00	7	Dirección del viento	19.31
4839	7	Sololá	701	Sololá	1	Sololá	2	Febrero	2023-05-02T00:00:00	2024-11-08T23:00:00	1	Precipitación	0
4840	7	Sololá	701	Sololá	1	Sololá	2	Febrero	2023-05-02T00:00:00	2024-11-08T23:00:00	8	Radiación solar	0
4841	7	Sololá	701	Sololá	1	Sololá	2	Febrero	2023-06-02T00:00:00	2024-11-08T00:00:00	2	Temperatura media	12.2
4842	7	Sololá	701	Sololá	1	Sololá	2	Febrero	2023-06-02T00:00:00	2024-11-08T00:00:00	4	Temperatura máxima	12.4
4843	7	Sololá	701	Sololá	1	Sololá	2	Febrero	2023-06-02T00:00:00	2024-11-08T00:00:00	3	Temperatura mínima	12
4844	7	Sololá	701	Sololá	1	Sololá	2	Febrero	2023-06-02T00:00:00	2024-11-08T00:00:00	5	Humedad	75
4845	7	Sololá	701	Sololá	1	Sololá	2	Febrero	2023-06-02T00:00:00	2024-11-08T00:00:00	6	Velocidad del viento	22.5
4846	7	Sololá	701	Sololá	1	Sololá	2	Febrero	2023-06-02T00:00:00	2024-11-08T00:00:00	7	Dirección del viento	22.53
4847	7	Sololá	701	Sololá	1	Sololá	2	Febrero	2023-06-02T00:00:00	2024-11-08T00:00:00	1	Precipitación	0
4848	7	Sololá	701	Sololá	1	Sololá	2	Febrero	2023-06-02T00:00:00	2024-11-08T00:00:00	8	Radiación solar	0
4849	7	Sololá	701	Sololá	1	Sololá	2	Febrero	2023-06-02T00:00:00	2024-11-08T01:00:00	2	Temperatura media	12.1
4850	7	Sololá	701	Sololá	1	Sololá	2	Febrero	2023-06-02T00:00:00	2024-11-08T01:00:00	4	Temperatura máxima	12.2
4851	7	Sololá	701	Sololá	1	Sololá	2	Febrero	2023-06-02T00:00:00	2024-11-08T01:00:00	3	Temperatura mínima	11.9
4852	7	Sololá	701	Sololá	1	Sololá	2	Febrero	2023-06-02T00:00:00	2024-11-08T01:00:00	5	Humedad	76
4853	7	Sololá	701	Sololá	1	Sololá	2	Febrero	2023-06-02T00:00:00	2024-11-08T01:00:00	6	Velocidad del viento	19.3
4854	7	Sololá	701	Sololá	1	Sololá	2	Febrero	2023-06-02T00:00:00	2024-11-08T01:00:00	7	Dirección del viento	19.31
4855	7	Sololá	701	Sololá	1	Sololá	2	Febrero	2023-06-02T00:00:00	2024-11-08T01:00:00	1	Precipitación	0
4856	7	Sololá	701	Sololá	1	Sololá	2	Febrero	2023-06-02T00:00:00	2024-11-08T01:00:00	8	Radiación solar	0
4857	7	Sololá	701	Sololá	1	Sololá	2	Febrero	2023-06-02T00:00:00	2024-11-08T02:00:00	2	Temperatura media	11.8
4858	7	Sololá	701	Sololá	1	Sololá	2	Febrero	2023-06-02T00:00:00	2024-11-08T02:00:00	4	Temperatura máxima	12.1
4859	7	Sololá	701	Sololá	1	Sololá	2	Febrero	2023-06-02T00:00:00	2024-11-08T02:00:00	3	Temperatura mínima	11.8
4860	7	Sololá	701	Sololá	1	Sololá	2	Febrero	2023-06-02T00:00:00	2024-11-08T02:00:00	5	Humedad	76
4861	7	Sololá	701	Sololá	1	Sololá	2	Febrero	2023-06-02T00:00:00	2024-11-08T02:00:00	6	Velocidad del viento	16.1
4862	7	Sololá	701	Sololá	1	Sololá	2	Febrero	2023-06-02T00:00:00	2024-11-08T02:00:00	7	Dirección del viento	16.09
4863	7	Sololá	701	Sololá	1	Sololá	2	Febrero	2023-06-02T00:00:00	2024-11-08T02:00:00	1	Precipitación	0
4864	7	Sololá	701	Sololá	1	Sololá	2	Febrero	2023-06-02T00:00:00	2024-11-08T02:00:00	8	Radiación solar	0
4865	7	Sololá	701	Sololá	1	Sololá	2	Febrero	2023-06-02T00:00:00	2024-11-08T03:00:00	2	Temperatura media	11.7
4866	7	Sololá	701	Sololá	1	Sololá	2	Febrero	2023-06-02T00:00:00	2024-11-08T03:00:00	4	Temperatura máxima	11.9
4867	7	Sololá	701	Sololá	1	Sololá	2	Febrero	2023-06-02T00:00:00	2024-11-08T03:00:00	3	Temperatura mínima	11.6
4868	7	Sololá	701	Sololá	1	Sololá	2	Febrero	2023-06-02T00:00:00	2024-11-08T03:00:00	5	Humedad	70
4869	7	Sololá	701	Sololá	1	Sololá	2	Febrero	2023-06-02T00:00:00	2024-11-08T03:00:00	6	Velocidad del viento	20.9
4870	7	Sololá	701	Sololá	1	Sololá	2	Febrero	2023-06-02T00:00:00	2024-11-08T03:00:00	7	Dirección del viento	20.92
4871	7	Sololá	701	Sololá	1	Sololá	2	Febrero	2023-06-02T00:00:00	2024-11-08T03:00:00	1	Precipitación	0
4872	7	Sololá	701	Sololá	1	Sololá	2	Febrero	2023-06-02T00:00:00	2024-11-08T03:00:00	8	Radiación solar	0
4873	7	Sololá	701	Sololá	1	Sololá	2	Febrero	2023-06-02T00:00:00	2024-11-08T04:00:00	2	Temperatura media	12.1
4874	7	Sololá	701	Sololá	1	Sololá	2	Febrero	2023-06-02T00:00:00	2024-11-08T04:00:00	4	Temperatura máxima	12.1
4875	7	Sololá	701	Sololá	1	Sololá	2	Febrero	2023-06-02T00:00:00	2024-11-08T04:00:00	3	Temperatura mínima	11.6
4876	7	Sololá	701	Sololá	1	Sololá	2	Febrero	2023-06-02T00:00:00	2024-11-08T04:00:00	5	Humedad	69
4877	7	Sololá	701	Sololá	1	Sololá	2	Febrero	2023-06-02T00:00:00	2024-11-08T04:00:00	6	Velocidad del viento	25.7
4878	7	Sololá	701	Sololá	1	Sololá	2	Febrero	2023-06-02T00:00:00	2024-11-08T04:00:00	7	Dirección del viento	25.75
4879	7	Sololá	701	Sololá	1	Sololá	2	Febrero	2023-06-02T00:00:00	2024-11-08T04:00:00	1	Precipitación	0
4880	7	Sololá	701	Sololá	1	Sololá	2	Febrero	2023-06-02T00:00:00	2024-11-08T04:00:00	8	Radiación solar	0
4881	7	Sololá	701	Sololá	1	Sololá	2	Febrero	2023-06-02T00:00:00	2024-11-08T05:00:00	2	Temperatura media	12.1
4882	7	Sololá	701	Sololá	1	Sololá	2	Febrero	2023-06-02T00:00:00	2024-11-08T05:00:00	4	Temperatura máxima	12.3
4883	7	Sololá	701	Sololá	1	Sololá	2	Febrero	2023-06-02T00:00:00	2024-11-08T05:00:00	3	Temperatura mínima	11.9
4884	7	Sololá	701	Sololá	1	Sololá	2	Febrero	2023-06-02T00:00:00	2024-11-08T05:00:00	5	Humedad	69
4885	7	Sololá	701	Sololá	1	Sololá	2	Febrero	2023-06-02T00:00:00	2024-11-08T05:00:00	6	Velocidad del viento	25.7
4886	7	Sololá	701	Sololá	1	Sololá	2	Febrero	2023-06-02T00:00:00	2024-11-08T05:00:00	7	Dirección del viento	25.75
4887	7	Sololá	701	Sololá	1	Sololá	2	Febrero	2023-06-02T00:00:00	2024-11-08T05:00:00	1	Precipitación	0
4888	7	Sololá	701	Sololá	1	Sololá	2	Febrero	2023-06-02T00:00:00	2024-11-08T05:00:00	8	Radiación solar	0
4889	7	Sololá	701	Sololá	1	Sololá	2	Febrero	2023-06-02T00:00:00	2024-11-08T06:00:00	2	Temperatura media	11.7
4890	7	Sololá	701	Sololá	1	Sololá	2	Febrero	2023-06-02T00:00:00	2024-11-08T06:00:00	4	Temperatura máxima	12.2
4891	7	Sololá	701	Sololá	1	Sololá	2	Febrero	2023-06-02T00:00:00	2024-11-08T06:00:00	3	Temperatura mínima	11.7
4892	7	Sololá	701	Sololá	1	Sololá	2	Febrero	2023-06-02T00:00:00	2024-11-08T06:00:00	5	Humedad	57
4893	7	Sololá	701	Sololá	1	Sololá	2	Febrero	2023-06-02T00:00:00	2024-11-08T06:00:00	6	Velocidad del viento	25.7
4894	7	Sololá	701	Sololá	1	Sololá	2	Febrero	2023-06-02T00:00:00	2024-11-08T06:00:00	7	Dirección del viento	25.75
4895	7	Sololá	701	Sololá	1	Sololá	2	Febrero	2023-06-02T00:00:00	2024-11-08T06:00:00	1	Precipitación	0
4896	7	Sololá	701	Sololá	1	Sololá	2	Febrero	2023-06-02T00:00:00	2024-11-08T06:00:00	8	Radiación solar	0
4897	7	Sololá	701	Sololá	1	Sololá	2	Febrero	2023-06-02T00:00:00	2024-11-08T07:00:00	2	Temperatura media	11.6
4898	7	Sololá	701	Sololá	1	Sololá	2	Febrero	2023-06-02T00:00:00	2024-11-08T07:00:00	4	Temperatura máxima	11.8
4899	7	Sololá	701	Sololá	1	Sololá	2	Febrero	2023-06-02T00:00:00	2024-11-08T07:00:00	3	Temperatura mínima	11.3
4900	7	Sololá	701	Sololá	1	Sololá	2	Febrero	2023-06-02T00:00:00	2024-11-08T07:00:00	5	Humedad	67
4901	7	Sololá	701	Sololá	1	Sololá	2	Febrero	2023-06-02T00:00:00	2024-11-08T07:00:00	6	Velocidad del viento	27.4
4902	7	Sololá	701	Sololá	1	Sololá	2	Febrero	2023-06-02T00:00:00	2024-11-08T07:00:00	7	Dirección del viento	27.36
4903	7	Sololá	701	Sololá	1	Sololá	2	Febrero	2023-06-02T00:00:00	2024-11-08T07:00:00	1	Precipitación	0
4904	7	Sololá	701	Sololá	1	Sololá	2	Febrero	2023-06-02T00:00:00	2024-11-08T07:00:00	8	Radiación solar	5
4905	7	Sololá	701	Sololá	1	Sololá	2	Febrero	2023-06-02T00:00:00	2024-11-08T08:00:00	2	Temperatura media	12.7
4906	7	Sololá	701	Sololá	1	Sololá	2	Febrero	2023-06-02T00:00:00	2024-11-08T08:00:00	4	Temperatura máxima	12.7
4907	7	Sololá	701	Sololá	1	Sololá	2	Febrero	2023-06-02T00:00:00	2024-11-08T08:00:00	3	Temperatura mínima	11.6
4908	7	Sololá	701	Sololá	1	Sololá	2	Febrero	2023-06-02T00:00:00	2024-11-08T08:00:00	5	Humedad	69
4909	7	Sololá	701	Sololá	1	Sololá	2	Febrero	2023-06-02T00:00:00	2024-11-08T08:00:00	6	Velocidad del viento	32.2
4910	7	Sololá	701	Sololá	1	Sololá	2	Febrero	2023-06-02T00:00:00	2024-11-08T08:00:00	7	Dirección del viento	32.19
4911	7	Sololá	701	Sololá	1	Sololá	2	Febrero	2023-06-02T00:00:00	2024-11-08T08:00:00	1	Precipitación	0
4912	7	Sololá	701	Sololá	1	Sololá	2	Febrero	2023-06-02T00:00:00	2024-11-08T08:00:00	8	Radiación solar	25
4913	7	Sololá	701	Sololá	1	Sololá	2	Febrero	2023-06-02T00:00:00	2024-11-08T09:00:00	2	Temperatura media	15.2
4914	7	Sololá	701	Sololá	1	Sololá	2	Febrero	2023-06-02T00:00:00	2024-11-08T09:00:00	4	Temperatura máxima	15.2
4915	7	Sololá	701	Sololá	1	Sololá	2	Febrero	2023-06-02T00:00:00	2024-11-08T09:00:00	3	Temperatura mínima	12.7
4916	7	Sololá	701	Sololá	1	Sololá	2	Febrero	2023-06-02T00:00:00	2024-11-08T09:00:00	5	Humedad	62
4917	7	Sololá	701	Sololá	1	Sololá	2	Febrero	2023-06-02T00:00:00	2024-11-08T09:00:00	6	Velocidad del viento	24.1
4918	7	Sololá	701	Sololá	1	Sololá	2	Febrero	2023-06-02T00:00:00	2024-11-08T09:00:00	7	Dirección del viento	24.14
4919	7	Sololá	701	Sololá	1	Sololá	2	Febrero	2023-06-02T00:00:00	2024-11-08T09:00:00	1	Precipitación	0
4920	7	Sololá	701	Sololá	1	Sololá	2	Febrero	2023-06-02T00:00:00	2024-11-08T09:00:00	8	Radiación solar	395
4921	7	Sololá	701	Sololá	1	Sololá	2	Febrero	2023-06-02T00:00:00	2024-11-08T10:00:00	2	Temperatura media	16.4
4922	7	Sololá	701	Sololá	1	Sololá	2	Febrero	2023-06-02T00:00:00	2024-11-08T10:00:00	4	Temperatura máxima	16.6
4923	7	Sololá	701	Sololá	1	Sololá	2	Febrero	2023-06-02T00:00:00	2024-11-08T10:00:00	3	Temperatura mínima	15.1
4924	7	Sololá	701	Sololá	1	Sololá	2	Febrero	2023-06-02T00:00:00	2024-11-08T10:00:00	5	Humedad	57
4925	7	Sololá	701	Sololá	1	Sololá	2	Febrero	2023-06-02T00:00:00	2024-11-08T10:00:00	6	Velocidad del viento	16.1
4926	7	Sololá	701	Sololá	1	Sololá	2	Febrero	2023-06-02T00:00:00	2024-11-08T10:00:00	7	Dirección del viento	16.09
4927	7	Sololá	701	Sololá	1	Sololá	2	Febrero	2023-06-02T00:00:00	2024-11-08T10:00:00	1	Precipitación	0
4928	7	Sololá	701	Sololá	1	Sololá	2	Febrero	2023-06-02T00:00:00	2024-11-08T10:00:00	8	Radiación solar	699
4929	7	Sololá	701	Sololá	1	Sololá	2	Febrero	2023-06-02T00:00:00	2024-11-08T11:00:00	2	Temperatura media	17.7
4930	7	Sololá	701	Sololá	1	Sololá	2	Febrero	2023-06-02T00:00:00	2024-11-08T11:00:00	4	Temperatura máxima	17.7
4931	7	Sololá	701	Sololá	1	Sololá	2	Febrero	2023-06-02T00:00:00	2024-11-08T11:00:00	3	Temperatura mínima	16.4
4932	7	Sololá	701	Sololá	1	Sololá	2	Febrero	2023-06-02T00:00:00	2024-11-08T11:00:00	5	Humedad	52
4933	7	Sololá	701	Sololá	1	Sololá	2	Febrero	2023-06-02T00:00:00	2024-11-08T11:00:00	6	Velocidad del viento	16.1
4934	7	Sololá	701	Sololá	1	Sololá	2	Febrero	2023-06-02T00:00:00	2024-11-08T11:00:00	7	Dirección del viento	16.09
4935	7	Sololá	701	Sololá	1	Sololá	2	Febrero	2023-06-02T00:00:00	2024-11-08T11:00:00	1	Precipitación	0
4936	7	Sololá	701	Sololá	1	Sololá	2	Febrero	2023-06-02T00:00:00	2024-11-08T11:00:00	8	Radiación solar	862
4937	7	Sololá	701	Sololá	1	Sololá	2	Febrero	2023-06-02T00:00:00	2024-11-08T12:00:00	2	Temperatura media	19.1
4938	7	Sololá	701	Sololá	1	Sololá	2	Febrero	2023-06-02T00:00:00	2024-11-08T12:00:00	4	Temperatura máxima	19.3
4939	7	Sololá	701	Sololá	1	Sololá	2	Febrero	2023-06-02T00:00:00	2024-11-08T12:00:00	3	Temperatura mínima	17.7
4940	7	Sololá	701	Sololá	1	Sololá	2	Febrero	2023-06-02T00:00:00	2024-11-08T12:00:00	5	Humedad	49
4941	7	Sololá	701	Sololá	1	Sololá	2	Febrero	2023-06-02T00:00:00	2024-11-08T12:00:00	6	Velocidad del viento	12.9
4942	7	Sololá	701	Sololá	1	Sololá	2	Febrero	2023-06-02T00:00:00	2024-11-08T12:00:00	7	Dirección del viento	12.87
4943	7	Sololá	701	Sololá	1	Sololá	2	Febrero	2023-06-02T00:00:00	2024-11-08T12:00:00	1	Precipitación	0
4944	7	Sololá	701	Sololá	1	Sololá	2	Febrero	2023-06-02T00:00:00	2024-11-08T12:00:00	8	Radiación solar	954
4945	7	Sololá	701	Sololá	1	Sololá	2	Febrero	2023-06-02T00:00:00	2024-11-08T13:00:00	2	Temperatura media	19.8
4946	7	Sololá	701	Sololá	1	Sololá	2	Febrero	2023-06-02T00:00:00	2024-11-08T13:00:00	4	Temperatura máxima	20.2
4947	7	Sololá	701	Sololá	1	Sololá	2	Febrero	2023-06-02T00:00:00	2024-11-08T13:00:00	3	Temperatura mínima	19.1
4948	7	Sololá	701	Sololá	1	Sololá	2	Febrero	2023-06-02T00:00:00	2024-11-08T13:00:00	5	Humedad	49
4949	7	Sololá	701	Sololá	1	Sololá	2	Febrero	2023-06-02T00:00:00	2024-11-08T13:00:00	6	Velocidad del viento	12.9
4950	7	Sololá	701	Sololá	1	Sololá	2	Febrero	2023-06-02T00:00:00	2024-11-08T13:00:00	7	Dirección del viento	12.87
4951	7	Sololá	701	Sololá	1	Sololá	2	Febrero	2023-06-02T00:00:00	2024-11-08T13:00:00	1	Precipitación	0
4952	7	Sololá	701	Sololá	1	Sololá	2	Febrero	2023-06-02T00:00:00	2024-11-08T13:00:00	8	Radiación solar	983
4953	7	Sololá	701	Sololá	1	Sololá	2	Febrero	2023-06-02T00:00:00	2024-11-08T14:00:00	2	Temperatura media	20.4
4954	7	Sololá	701	Sololá	1	Sololá	2	Febrero	2023-06-02T00:00:00	2024-11-08T14:00:00	4	Temperatura máxima	20.4
4955	7	Sololá	701	Sololá	1	Sololá	2	Febrero	2023-06-02T00:00:00	2024-11-08T14:00:00	3	Temperatura mínima	19.7
4956	7	Sololá	701	Sololá	1	Sololá	2	Febrero	2023-06-02T00:00:00	2024-11-08T14:00:00	5	Humedad	47
4957	7	Sololá	701	Sololá	1	Sololá	2	Febrero	2023-06-02T00:00:00	2024-11-08T14:00:00	6	Velocidad del viento	11.3
4958	7	Sololá	701	Sololá	1	Sololá	2	Febrero	2023-06-02T00:00:00	2024-11-08T14:00:00	7	Dirección del viento	11.27
4959	7	Sololá	701	Sololá	1	Sololá	2	Febrero	2023-06-02T00:00:00	2024-11-08T14:00:00	1	Precipitación	0
4960	7	Sololá	701	Sololá	1	Sololá	2	Febrero	2023-06-02T00:00:00	2024-11-08T14:00:00	8	Radiación solar	492
4961	7	Sololá	701	Sololá	1	Sololá	2	Febrero	2023-06-02T00:00:00	2024-11-08T15:00:00	2	Temperatura media	21.1
4962	7	Sololá	701	Sololá	1	Sololá	2	Febrero	2023-06-02T00:00:00	2024-11-08T15:00:00	4	Temperatura máxima	21.4
4963	7	Sololá	701	Sololá	1	Sololá	2	Febrero	2023-06-02T00:00:00	2024-11-08T15:00:00	3	Temperatura mínima	20.5
4964	7	Sololá	701	Sololá	1	Sololá	2	Febrero	2023-06-02T00:00:00	2024-11-08T15:00:00	5	Humedad	50
4965	7	Sololá	701	Sololá	1	Sololá	2	Febrero	2023-06-02T00:00:00	2024-11-08T15:00:00	6	Velocidad del viento	6.4
4966	7	Sololá	701	Sololá	1	Sololá	2	Febrero	2023-06-02T00:00:00	2024-11-08T15:00:00	7	Dirección del viento	6.44
4967	7	Sololá	701	Sololá	1	Sololá	2	Febrero	2023-06-02T00:00:00	2024-11-08T15:00:00	1	Precipitación	0
4968	7	Sololá	701	Sololá	1	Sololá	2	Febrero	2023-06-02T00:00:00	2024-11-08T15:00:00	8	Radiación solar	195
4969	7	Sololá	701	Sololá	1	Sololá	2	Febrero	2023-06-02T00:00:00	2024-11-08T16:00:00	2	Temperatura media	18.5
4970	7	Sololá	701	Sololá	1	Sololá	2	Febrero	2023-06-02T00:00:00	2024-11-08T16:00:00	4	Temperatura máxima	21.1
4971	7	Sololá	701	Sololá	1	Sololá	2	Febrero	2023-06-02T00:00:00	2024-11-08T16:00:00	3	Temperatura mínima	18.5
4972	7	Sololá	701	Sololá	1	Sololá	2	Febrero	2023-06-02T00:00:00	2024-11-08T16:00:00	5	Humedad	54
4973	7	Sololá	701	Sololá	1	Sololá	2	Febrero	2023-06-02T00:00:00	2024-11-08T16:00:00	6	Velocidad del viento	8
4974	7	Sololá	701	Sololá	1	Sololá	2	Febrero	2023-06-02T00:00:00	2024-11-08T16:00:00	7	Dirección del viento	8.05
4975	7	Sololá	701	Sololá	1	Sololá	2	Febrero	2023-06-02T00:00:00	2024-11-08T16:00:00	1	Precipitación	0
4976	7	Sololá	701	Sololá	1	Sololá	2	Febrero	2023-06-02T00:00:00	2024-11-08T16:00:00	8	Radiación solar	229
4977	7	Sololá	701	Sololá	1	Sololá	2	Febrero	2023-06-02T00:00:00	2024-11-08T17:00:00	2	Temperatura media	17.1
4978	7	Sololá	701	Sololá	1	Sololá	2	Febrero	2023-06-02T00:00:00	2024-11-08T17:00:00	4	Temperatura máxima	18.5
4979	7	Sololá	701	Sololá	1	Sololá	2	Febrero	2023-06-02T00:00:00	2024-11-08T17:00:00	3	Temperatura mínima	17.1
4980	7	Sololá	701	Sololá	1	Sololá	2	Febrero	2023-06-02T00:00:00	2024-11-08T17:00:00	5	Humedad	61
4981	7	Sololá	701	Sololá	1	Sololá	2	Febrero	2023-06-02T00:00:00	2024-11-08T17:00:00	6	Velocidad del viento	12.9
4982	7	Sololá	701	Sololá	1	Sololá	2	Febrero	2023-06-02T00:00:00	2024-11-08T17:00:00	7	Dirección del viento	12.87
4983	7	Sololá	701	Sololá	1	Sololá	2	Febrero	2023-06-02T00:00:00	2024-11-08T17:00:00	1	Precipitación	0
4984	7	Sololá	701	Sololá	1	Sololá	2	Febrero	2023-06-02T00:00:00	2024-11-08T17:00:00	8	Radiación solar	66
4985	7	Sololá	701	Sololá	1	Sololá	2	Febrero	2023-06-02T00:00:00	2024-11-08T18:00:00	2	Temperatura media	14.7
4986	7	Sololá	701	Sololá	1	Sololá	2	Febrero	2023-06-02T00:00:00	2024-11-08T18:00:00	4	Temperatura máxima	17.1
4987	7	Sololá	701	Sololá	1	Sololá	2	Febrero	2023-06-02T00:00:00	2024-11-08T18:00:00	3	Temperatura mínima	14.7
4988	7	Sololá	701	Sololá	1	Sololá	2	Febrero	2023-06-02T00:00:00	2024-11-08T18:00:00	5	Humedad	70
4989	7	Sololá	701	Sololá	1	Sololá	2	Febrero	2023-06-02T00:00:00	2024-11-08T18:00:00	6	Velocidad del viento	20.9
4990	7	Sololá	701	Sololá	1	Sololá	2	Febrero	2023-06-02T00:00:00	2024-11-08T18:00:00	7	Dirección del viento	20.92
4991	7	Sololá	701	Sololá	1	Sololá	2	Febrero	2023-06-02T00:00:00	2024-11-08T18:00:00	1	Precipitación	0
4992	7	Sololá	701	Sololá	1	Sololá	2	Febrero	2023-06-02T00:00:00	2024-11-08T18:00:00	8	Radiación solar	24
4993	7	Sololá	701	Sololá	1	Sololá	2	Febrero	2023-06-02T00:00:00	2024-11-08T19:00:00	2	Temperatura media	13.4
4994	7	Sololá	701	Sololá	1	Sololá	2	Febrero	2023-06-02T00:00:00	2024-11-08T19:00:00	4	Temperatura máxima	14.7
4995	7	Sololá	701	Sololá	1	Sololá	2	Febrero	2023-06-02T00:00:00	2024-11-08T19:00:00	3	Temperatura mínima	13.4
4996	7	Sololá	701	Sololá	1	Sololá	2	Febrero	2023-06-02T00:00:00	2024-11-08T19:00:00	5	Humedad	74
4997	7	Sololá	701	Sololá	1	Sololá	2	Febrero	2023-06-02T00:00:00	2024-11-08T19:00:00	6	Velocidad del viento	24.1
4998	7	Sololá	701	Sololá	1	Sololá	2	Febrero	2023-06-02T00:00:00	2024-11-08T19:00:00	7	Dirección del viento	24.14
4999	7	Sololá	701	Sololá	1	Sololá	2	Febrero	2023-06-02T00:00:00	2024-11-08T19:00:00	1	Precipitación	0
5000	7	Sololá	701	Sololá	1	Sololá	2	Febrero	2023-06-02T00:00:00	2024-11-08T19:00:00	8	Radiación solar	0
5001	7	Sololá	701	Sololá	1	Sololá	2	Febrero	2023-06-02T00:00:00	2024-11-08T20:00:00	2	Temperatura media	12.8
5002	7	Sololá	701	Sololá	1	Sololá	2	Febrero	2023-06-02T00:00:00	2024-11-08T20:00:00	4	Temperatura máxima	13.5
5003	7	Sololá	701	Sololá	1	Sololá	2	Febrero	2023-06-02T00:00:00	2024-11-08T20:00:00	3	Temperatura mínima	12.8
5004	7	Sololá	701	Sololá	1	Sololá	2	Febrero	2023-06-02T00:00:00	2024-11-08T20:00:00	5	Humedad	74
5005	7	Sololá	701	Sololá	1	Sololá	2	Febrero	2023-06-02T00:00:00	2024-11-08T20:00:00	6	Velocidad del viento	20.9
5006	7	Sololá	701	Sololá	1	Sololá	2	Febrero	2023-06-02T00:00:00	2024-11-08T20:00:00	7	Dirección del viento	20.92
5007	7	Sololá	701	Sololá	1	Sololá	2	Febrero	2023-06-02T00:00:00	2024-11-08T20:00:00	1	Precipitación	0
5008	7	Sololá	701	Sololá	1	Sololá	2	Febrero	2023-06-02T00:00:00	2024-11-08T20:00:00	8	Radiación solar	0
5009	7	Sololá	701	Sololá	1	Sololá	2	Febrero	2023-06-02T00:00:00	2024-11-08T21:00:00	2	Temperatura media	12.4
5010	7	Sololá	701	Sololá	1	Sololá	2	Febrero	2023-06-02T00:00:00	2024-11-08T21:00:00	4	Temperatura máxima	12.8
5011	7	Sololá	701	Sololá	1	Sololá	2	Febrero	2023-06-02T00:00:00	2024-11-08T21:00:00	3	Temperatura mínima	12.4
5012	7	Sololá	701	Sololá	1	Sololá	2	Febrero	2023-06-02T00:00:00	2024-11-08T21:00:00	5	Humedad	74
5013	7	Sololá	701	Sololá	1	Sololá	2	Febrero	2023-06-02T00:00:00	2024-11-08T21:00:00	6	Velocidad del viento	22.5
5014	7	Sololá	701	Sololá	1	Sololá	2	Febrero	2023-06-02T00:00:00	2024-11-08T21:00:00	7	Dirección del viento	22.53
5015	7	Sololá	701	Sololá	1	Sololá	2	Febrero	2023-06-02T00:00:00	2024-11-08T21:00:00	1	Precipitación	0
5016	7	Sololá	701	Sololá	1	Sololá	2	Febrero	2023-06-02T00:00:00	2024-11-08T21:00:00	8	Radiación solar	0
5017	7	Sololá	701	Sololá	1	Sololá	2	Febrero	2023-06-02T00:00:00	2024-11-08T22:00:00	2	Temperatura media	12.4
5018	7	Sololá	701	Sololá	1	Sololá	2	Febrero	2023-06-02T00:00:00	2024-11-08T22:00:00	4	Temperatura máxima	12.5
5019	7	Sololá	701	Sololá	1	Sololá	2	Febrero	2023-06-02T00:00:00	2024-11-08T22:00:00	3	Temperatura mínima	12.3
5020	7	Sololá	701	Sololá	1	Sololá	2	Febrero	2023-06-02T00:00:00	2024-11-08T22:00:00	5	Humedad	70
5021	7	Sololá	701	Sololá	1	Sololá	2	Febrero	2023-06-02T00:00:00	2024-11-08T22:00:00	6	Velocidad del viento	19.3
5022	7	Sololá	701	Sololá	1	Sololá	2	Febrero	2023-06-02T00:00:00	2024-11-08T22:00:00	7	Dirección del viento	19.31
5023	7	Sololá	701	Sololá	1	Sololá	2	Febrero	2023-06-02T00:00:00	2024-11-08T22:00:00	1	Precipitación	0
5024	7	Sololá	701	Sololá	1	Sololá	2	Febrero	2023-06-02T00:00:00	2024-11-08T22:00:00	8	Radiación solar	0
5025	7	Sololá	701	Sololá	1	Sololá	2	Febrero	2023-06-02T00:00:00	2024-11-08T23:00:00	2	Temperatura media	11.9
5026	7	Sololá	701	Sololá	1	Sololá	2	Febrero	2023-06-02T00:00:00	2024-11-08T23:00:00	4	Temperatura máxima	12.4
5027	7	Sololá	701	Sololá	1	Sololá	2	Febrero	2023-06-02T00:00:00	2024-11-08T23:00:00	3	Temperatura mínima	11.9
5028	7	Sololá	701	Sololá	1	Sololá	2	Febrero	2023-06-02T00:00:00	2024-11-08T23:00:00	5	Humedad	70
5029	7	Sololá	701	Sololá	1	Sololá	2	Febrero	2023-06-02T00:00:00	2024-11-08T23:00:00	6	Velocidad del viento	17.7
5030	7	Sololá	701	Sololá	1	Sololá	2	Febrero	2023-06-02T00:00:00	2024-11-08T23:00:00	7	Dirección del viento	17.7
5031	7	Sololá	701	Sololá	1	Sololá	2	Febrero	2023-06-02T00:00:00	2024-11-08T23:00:00	1	Precipitación	0
5032	7	Sololá	701	Sololá	1	Sololá	2	Febrero	2023-06-02T00:00:00	2024-11-08T23:00:00	8	Radiación solar	0
5033	7	Sololá	701	Sololá	1	Sololá	2	Febrero	2023-07-02T00:00:00	2024-11-08T00:00:00	2	Temperatura media	11.8
5034	7	Sololá	701	Sololá	1	Sololá	2	Febrero	2023-07-02T00:00:00	2024-11-08T00:00:00	4	Temperatura máxima	12
5035	7	Sololá	701	Sololá	1	Sololá	2	Febrero	2023-07-02T00:00:00	2024-11-08T00:00:00	3	Temperatura mínima	11.8
5036	7	Sololá	701	Sololá	1	Sololá	2	Febrero	2023-07-02T00:00:00	2024-11-08T00:00:00	5	Humedad	70
5037	7	Sololá	701	Sololá	1	Sololá	2	Febrero	2023-07-02T00:00:00	2024-11-08T00:00:00	6	Velocidad del viento	16.1
5038	7	Sololá	701	Sololá	1	Sololá	2	Febrero	2023-07-02T00:00:00	2024-11-08T00:00:00	7	Dirección del viento	16.09
5039	7	Sololá	701	Sololá	1	Sololá	2	Febrero	2023-07-02T00:00:00	2024-11-08T00:00:00	1	Precipitación	0
5040	7	Sololá	701	Sololá	1	Sololá	2	Febrero	2023-07-02T00:00:00	2024-11-08T00:00:00	8	Radiación solar	0
5041	7	Sololá	701	Sololá	1	Sololá	2	Febrero	2023-07-02T00:00:00	2024-11-08T01:00:00	2	Temperatura media	11.6
5042	7	Sololá	701	Sololá	1	Sololá	2	Febrero	2023-07-02T00:00:00	2024-11-08T01:00:00	4	Temperatura máxima	11.8
5043	7	Sololá	701	Sololá	1	Sololá	2	Febrero	2023-07-02T00:00:00	2024-11-08T01:00:00	3	Temperatura mínima	11.5
5044	7	Sololá	701	Sololá	1	Sololá	2	Febrero	2023-07-02T00:00:00	2024-11-08T01:00:00	5	Humedad	71
5045	7	Sololá	701	Sololá	1	Sololá	2	Febrero	2023-07-02T00:00:00	2024-11-08T01:00:00	6	Velocidad del viento	14.5
5046	7	Sololá	701	Sololá	1	Sololá	2	Febrero	2023-07-02T00:00:00	2024-11-08T01:00:00	7	Dirección del viento	14.48
5047	7	Sololá	701	Sololá	1	Sololá	2	Febrero	2023-07-02T00:00:00	2024-11-08T01:00:00	1	Precipitación	0
5048	7	Sololá	701	Sololá	1	Sololá	2	Febrero	2023-07-02T00:00:00	2024-11-08T01:00:00	8	Radiación solar	0
5049	7	Sololá	701	Sololá	1	Sololá	2	Febrero	2023-07-02T00:00:00	2024-11-08T02:00:00	2	Temperatura media	10.8
5050	7	Sololá	701	Sololá	1	Sololá	2	Febrero	2023-07-02T00:00:00	2024-11-08T02:00:00	4	Temperatura máxima	11.6
5051	7	Sololá	701	Sololá	1	Sololá	2	Febrero	2023-07-02T00:00:00	2024-11-08T02:00:00	3	Temperatura mínima	8.3
5052	7	Sololá	701	Sololá	1	Sololá	2	Febrero	2023-07-02T00:00:00	2024-11-08T02:00:00	5	Humedad	72
5053	7	Sololá	701	Sololá	1	Sololá	2	Febrero	2023-07-02T00:00:00	2024-11-08T02:00:00	6	Velocidad del viento	11.3
5054	7	Sololá	701	Sololá	1	Sololá	2	Febrero	2023-07-02T00:00:00	2024-11-08T02:00:00	7	Dirección del viento	11.27
5055	7	Sololá	701	Sololá	1	Sololá	2	Febrero	2023-07-02T00:00:00	2024-11-08T02:00:00	1	Precipitación	0
5056	7	Sololá	701	Sololá	1	Sololá	2	Febrero	2023-07-02T00:00:00	2024-11-08T02:00:00	8	Radiación solar	0
5057	7	Sololá	701	Sololá	1	Sololá	2	Febrero	2023-07-02T00:00:00	2024-11-08T03:00:00	2	Temperatura media	9.3
5058	7	Sololá	701	Sololá	1	Sololá	2	Febrero	2023-07-02T00:00:00	2024-11-08T03:00:00	4	Temperatura máxima	11.1
5059	7	Sololá	701	Sololá	1	Sololá	2	Febrero	2023-07-02T00:00:00	2024-11-08T03:00:00	3	Temperatura mínima	9.3
5060	7	Sololá	701	Sololá	1	Sololá	2	Febrero	2023-07-02T00:00:00	2024-11-08T03:00:00	5	Humedad	71
5061	7	Sololá	701	Sololá	1	Sololá	2	Febrero	2023-07-02T00:00:00	2024-11-08T03:00:00	6	Velocidad del viento	9.7
5062	7	Sololá	701	Sololá	1	Sololá	2	Febrero	2023-07-02T00:00:00	2024-11-08T03:00:00	7	Dirección del viento	9.66
5063	7	Sololá	701	Sololá	1	Sololá	2	Febrero	2023-07-02T00:00:00	2024-11-08T03:00:00	1	Precipitación	0
5064	7	Sololá	701	Sololá	1	Sololá	2	Febrero	2023-07-02T00:00:00	2024-11-08T03:00:00	8	Radiación solar	0
5065	7	Sololá	701	Sololá	1	Sololá	2	Febrero	2023-07-02T00:00:00	2024-11-08T04:00:00	2	Temperatura media	10.4
5066	7	Sololá	701	Sololá	1	Sololá	2	Febrero	2023-07-02T00:00:00	2024-11-08T04:00:00	4	Temperatura máxima	10.6
5067	7	Sololá	701	Sololá	1	Sololá	2	Febrero	2023-07-02T00:00:00	2024-11-08T04:00:00	3	Temperatura mínima	8.2
5068	7	Sololá	701	Sololá	1	Sololá	2	Febrero	2023-07-02T00:00:00	2024-11-08T04:00:00	5	Humedad	74
5069	7	Sololá	701	Sololá	1	Sololá	2	Febrero	2023-07-02T00:00:00	2024-11-08T04:00:00	6	Velocidad del viento	12.9
5070	7	Sololá	701	Sololá	1	Sololá	2	Febrero	2023-07-02T00:00:00	2024-11-08T04:00:00	7	Dirección del viento	12.87
5071	7	Sololá	701	Sololá	1	Sololá	2	Febrero	2023-07-02T00:00:00	2024-11-08T04:00:00	1	Precipitación	0
5072	7	Sololá	701	Sololá	1	Sololá	2	Febrero	2023-07-02T00:00:00	2024-11-08T04:00:00	8	Radiación solar	0
5073	7	Sololá	701	Sololá	1	Sololá	2	Febrero	2023-07-02T00:00:00	2024-11-08T05:00:00	2	Temperatura media	9.2
5074	7	Sololá	701	Sololá	1	Sololá	2	Febrero	2023-07-02T00:00:00	2024-11-08T05:00:00	4	Temperatura máxima	10.5
5075	7	Sololá	701	Sololá	1	Sololá	2	Febrero	2023-07-02T00:00:00	2024-11-08T05:00:00	3	Temperatura mínima	9.2
5076	7	Sololá	701	Sololá	1	Sololá	2	Febrero	2023-07-02T00:00:00	2024-11-08T05:00:00	5	Humedad	73
5077	7	Sololá	701	Sololá	1	Sololá	2	Febrero	2023-07-02T00:00:00	2024-11-08T05:00:00	6	Velocidad del viento	9.7
5078	7	Sololá	701	Sololá	1	Sololá	2	Febrero	2023-07-02T00:00:00	2024-11-08T05:00:00	7	Dirección del viento	9.66
5079	7	Sololá	701	Sololá	1	Sololá	2	Febrero	2023-07-02T00:00:00	2024-11-08T05:00:00	1	Precipitación	0
5080	7	Sololá	701	Sololá	1	Sololá	2	Febrero	2023-07-02T00:00:00	2024-11-08T05:00:00	8	Radiación solar	0
5081	7	Sololá	701	Sololá	1	Sololá	2	Febrero	2023-07-02T00:00:00	2024-11-08T06:00:00	2	Temperatura media	7.3
5082	7	Sololá	701	Sololá	1	Sololá	2	Febrero	2023-07-02T00:00:00	2024-11-08T06:00:00	4	Temperatura máxima	9.1
5083	7	Sololá	701	Sololá	1	Sololá	2	Febrero	2023-07-02T00:00:00	2024-11-08T06:00:00	3	Temperatura mínima	6.7
5084	7	Sololá	701	Sololá	1	Sololá	2	Febrero	2023-07-02T00:00:00	2024-11-08T06:00:00	5	Humedad	74
5085	7	Sololá	701	Sololá	1	Sololá	2	Febrero	2023-07-02T00:00:00	2024-11-08T06:00:00	6	Velocidad del viento	11.3
5086	7	Sololá	701	Sololá	1	Sololá	2	Febrero	2023-07-02T00:00:00	2024-11-08T06:00:00	7	Dirección del viento	11.27
5087	7	Sololá	701	Sololá	1	Sololá	2	Febrero	2023-07-02T00:00:00	2024-11-08T06:00:00	1	Precipitación	0
5088	7	Sololá	701	Sololá	1	Sololá	2	Febrero	2023-07-02T00:00:00	2024-11-08T06:00:00	8	Radiación solar	0
5089	7	Sololá	701	Sololá	1	Sololá	2	Febrero	2023-07-02T00:00:00	2024-11-08T07:00:00	2	Temperatura media	7.7
5090	7	Sololá	701	Sololá	1	Sololá	2	Febrero	2023-07-02T00:00:00	2024-11-08T07:00:00	4	Temperatura máxima	8.4
5091	7	Sololá	701	Sololá	1	Sololá	2	Febrero	2023-07-02T00:00:00	2024-11-08T07:00:00	3	Temperatura mínima	7.3
5092	7	Sololá	701	Sololá	1	Sololá	2	Febrero	2023-07-02T00:00:00	2024-11-08T07:00:00	5	Humedad	71
5093	7	Sololá	701	Sololá	1	Sololá	2	Febrero	2023-07-02T00:00:00	2024-11-08T07:00:00	6	Velocidad del viento	8
5094	7	Sololá	701	Sololá	1	Sololá	2	Febrero	2023-07-02T00:00:00	2024-11-08T07:00:00	7	Dirección del viento	8.05
5095	7	Sololá	701	Sololá	1	Sololá	2	Febrero	2023-07-02T00:00:00	2024-11-08T07:00:00	1	Precipitación	0
5096	7	Sololá	701	Sololá	1	Sololá	2	Febrero	2023-07-02T00:00:00	2024-11-08T07:00:00	8	Radiación solar	5
5097	7	Sololá	701	Sololá	1	Sololá	2	Febrero	2023-07-02T00:00:00	2024-11-08T08:00:00	2	Temperatura media	11.4
5098	7	Sololá	701	Sololá	1	Sololá	2	Febrero	2023-07-02T00:00:00	2024-11-08T08:00:00	4	Temperatura máxima	11.7
5099	7	Sololá	701	Sololá	1	Sololá	2	Febrero	2023-07-02T00:00:00	2024-11-08T08:00:00	3	Temperatura mínima	7.7
5100	7	Sololá	701	Sololá	1	Sololá	2	Febrero	2023-07-02T00:00:00	2024-11-08T08:00:00	5	Humedad	63
5101	7	Sololá	701	Sololá	1	Sololá	2	Febrero	2023-07-02T00:00:00	2024-11-08T08:00:00	6	Velocidad del viento	6.4
5102	7	Sololá	701	Sololá	1	Sololá	2	Febrero	2023-07-02T00:00:00	2024-11-08T08:00:00	7	Dirección del viento	6.44
5103	7	Sololá	701	Sololá	1	Sololá	2	Febrero	2023-07-02T00:00:00	2024-11-08T08:00:00	1	Precipitación	0
5104	7	Sololá	701	Sololá	1	Sololá	2	Febrero	2023-07-02T00:00:00	2024-11-08T08:00:00	8	Radiación solar	24
5105	7	Sololá	701	Sololá	1	Sololá	2	Febrero	2023-07-02T00:00:00	2024-11-08T09:00:00	2	Temperatura media	16
5106	7	Sololá	701	Sololá	1	Sololá	2	Febrero	2023-07-02T00:00:00	2024-11-08T09:00:00	4	Temperatura máxima	16
5107	7	Sololá	701	Sololá	1	Sololá	2	Febrero	2023-07-02T00:00:00	2024-11-08T09:00:00	3	Temperatura mínima	11.4
5108	7	Sololá	701	Sololá	1	Sololá	2	Febrero	2023-07-02T00:00:00	2024-11-08T09:00:00	5	Humedad	56
5109	7	Sololá	701	Sololá	1	Sololá	2	Febrero	2023-07-02T00:00:00	2024-11-08T09:00:00	6	Velocidad del viento	4.8
5110	7	Sololá	701	Sololá	1	Sololá	2	Febrero	2023-07-02T00:00:00	2024-11-08T09:00:00	7	Dirección del viento	4.83
5111	7	Sololá	701	Sololá	1	Sololá	2	Febrero	2023-07-02T00:00:00	2024-11-08T09:00:00	1	Precipitación	0
5112	7	Sololá	701	Sololá	1	Sololá	2	Febrero	2023-07-02T00:00:00	2024-11-08T09:00:00	8	Radiación solar	399
5113	7	Sololá	701	Sololá	1	Sololá	2	Febrero	2023-07-02T00:00:00	2024-11-08T10:00:00	2	Temperatura media	17.6
5114	7	Sololá	701	Sololá	1	Sololá	2	Febrero	2023-07-02T00:00:00	2024-11-08T10:00:00	4	Temperatura máxima	17.6
5115	7	Sololá	701	Sololá	1	Sololá	2	Febrero	2023-07-02T00:00:00	2024-11-08T10:00:00	3	Temperatura mínima	16.1
5116	7	Sololá	701	Sololá	1	Sololá	2	Febrero	2023-07-02T00:00:00	2024-11-08T10:00:00	5	Humedad	56
5117	7	Sololá	701	Sololá	1	Sololá	2	Febrero	2023-07-02T00:00:00	2024-11-08T10:00:00	6	Velocidad del viento	4.8
5118	7	Sololá	701	Sololá	1	Sololá	2	Febrero	2023-07-02T00:00:00	2024-11-08T10:00:00	7	Dirección del viento	4.83
5119	7	Sololá	701	Sololá	1	Sololá	2	Febrero	2023-07-02T00:00:00	2024-11-08T10:00:00	1	Precipitación	0
5120	7	Sololá	701	Sololá	1	Sololá	2	Febrero	2023-07-02T00:00:00	2024-11-08T10:00:00	8	Radiación solar	704
5121	7	Sololá	701	Sololá	1	Sololá	2	Febrero	2023-07-02T00:00:00	2024-11-08T11:00:00	2	Temperatura media	19.2
5122	7	Sololá	701	Sololá	1	Sololá	2	Febrero	2023-07-02T00:00:00	2024-11-08T11:00:00	4	Temperatura máxima	19.2
5123	7	Sololá	701	Sololá	1	Sololá	2	Febrero	2023-07-02T00:00:00	2024-11-08T11:00:00	3	Temperatura mínima	17.6
5124	7	Sololá	701	Sololá	1	Sololá	2	Febrero	2023-07-02T00:00:00	2024-11-08T11:00:00	5	Humedad	42
5125	7	Sololá	701	Sololá	1	Sololá	2	Febrero	2023-07-02T00:00:00	2024-11-08T11:00:00	6	Velocidad del viento	6.4
5126	7	Sololá	701	Sololá	1	Sololá	2	Febrero	2023-07-02T00:00:00	2024-11-08T11:00:00	7	Dirección del viento	6.44
5127	7	Sololá	701	Sololá	1	Sololá	2	Febrero	2023-07-02T00:00:00	2024-11-08T11:00:00	1	Precipitación	0
5128	7	Sololá	701	Sololá	1	Sololá	2	Febrero	2023-07-02T00:00:00	2024-11-08T11:00:00	8	Radiación solar	866
5129	7	Sololá	701	Sololá	1	Sololá	2	Febrero	2023-07-02T00:00:00	2024-11-08T12:00:00	2	Temperatura media	20.7
5130	7	Sololá	701	Sololá	1	Sololá	2	Febrero	2023-07-02T00:00:00	2024-11-08T12:00:00	4	Temperatura máxima	20.7
5131	7	Sololá	701	Sololá	1	Sololá	2	Febrero	2023-07-02T00:00:00	2024-11-08T12:00:00	3	Temperatura mínima	19.1
5132	7	Sololá	701	Sololá	1	Sololá	2	Febrero	2023-07-02T00:00:00	2024-11-08T12:00:00	5	Humedad	47
5133	7	Sololá	701	Sololá	1	Sololá	2	Febrero	2023-07-02T00:00:00	2024-11-08T12:00:00	6	Velocidad del viento	6.4
5134	7	Sololá	701	Sololá	1	Sololá	2	Febrero	2023-07-02T00:00:00	2024-11-08T12:00:00	7	Dirección del viento	6.44
5135	7	Sololá	701	Sololá	1	Sololá	2	Febrero	2023-07-02T00:00:00	2024-11-08T12:00:00	1	Precipitación	0
5136	7	Sololá	701	Sololá	1	Sololá	2	Febrero	2023-07-02T00:00:00	2024-11-08T12:00:00	8	Radiación solar	951
5137	7	Sololá	701	Sololá	1	Sololá	2	Febrero	2023-07-02T00:00:00	2024-11-08T13:00:00	2	Temperatura media	20.9
5138	7	Sololá	701	Sololá	1	Sololá	2	Febrero	2023-07-02T00:00:00	2024-11-08T13:00:00	4	Temperatura máxima	21.3
5139	7	Sololá	701	Sololá	1	Sololá	2	Febrero	2023-07-02T00:00:00	2024-11-08T13:00:00	3	Temperatura mínima	20.6
5140	7	Sololá	701	Sololá	1	Sololá	2	Febrero	2023-07-02T00:00:00	2024-11-08T13:00:00	5	Humedad	44
5141	7	Sololá	701	Sololá	1	Sololá	2	Febrero	2023-07-02T00:00:00	2024-11-08T13:00:00	6	Velocidad del viento	6.4
5142	7	Sololá	701	Sololá	1	Sololá	2	Febrero	2023-07-02T00:00:00	2024-11-08T13:00:00	7	Dirección del viento	6.44
5143	7	Sololá	701	Sololá	1	Sololá	2	Febrero	2023-07-02T00:00:00	2024-11-08T13:00:00	1	Precipitación	0
5144	7	Sololá	701	Sololá	1	Sololá	2	Febrero	2023-07-02T00:00:00	2024-11-08T13:00:00	8	Radiación solar	972
5145	7	Sololá	701	Sololá	1	Sololá	2	Febrero	2023-07-02T00:00:00	2024-11-08T14:00:00	2	Temperatura media	20.2
5146	7	Sololá	701	Sololá	1	Sololá	2	Febrero	2023-07-02T00:00:00	2024-11-08T14:00:00	4	Temperatura máxima	21.3
5147	7	Sololá	701	Sololá	1	Sololá	2	Febrero	2023-07-02T00:00:00	2024-11-08T14:00:00	3	Temperatura mínima	20.1
5148	7	Sololá	701	Sololá	1	Sololá	2	Febrero	2023-07-02T00:00:00	2024-11-08T14:00:00	5	Humedad	60
5149	7	Sololá	701	Sololá	1	Sololá	2	Febrero	2023-07-02T00:00:00	2024-11-08T14:00:00	6	Velocidad del viento	8
5150	7	Sololá	701	Sololá	1	Sololá	2	Febrero	2023-07-02T00:00:00	2024-11-08T14:00:00	7	Dirección del viento	8.05
5151	7	Sololá	701	Sololá	1	Sololá	2	Febrero	2023-07-02T00:00:00	2024-11-08T14:00:00	1	Precipitación	0
5152	7	Sololá	701	Sololá	1	Sololá	2	Febrero	2023-07-02T00:00:00	2024-11-08T14:00:00	8	Radiación solar	475
5153	7	Sololá	701	Sololá	1	Sololá	2	Febrero	2023-07-02T00:00:00	2024-11-08T15:00:00	2	Temperatura media	20.1
5154	7	Sololá	701	Sololá	1	Sololá	2	Febrero	2023-07-02T00:00:00	2024-11-08T15:00:00	4	Temperatura máxima	20.4
5155	7	Sololá	701	Sololá	1	Sololá	2	Febrero	2023-07-02T00:00:00	2024-11-08T15:00:00	3	Temperatura mínima	19.7
5156	7	Sololá	701	Sololá	1	Sololá	2	Febrero	2023-07-02T00:00:00	2024-11-08T15:00:00	5	Humedad	61
5157	7	Sololá	701	Sololá	1	Sololá	2	Febrero	2023-07-02T00:00:00	2024-11-08T15:00:00	6	Velocidad del viento	8
5158	7	Sololá	701	Sololá	1	Sololá	2	Febrero	2023-07-02T00:00:00	2024-11-08T15:00:00	7	Dirección del viento	8.05
5159	7	Sololá	701	Sololá	1	Sololá	2	Febrero	2023-07-02T00:00:00	2024-11-08T15:00:00	1	Precipitación	0
5160	7	Sololá	701	Sololá	1	Sololá	2	Febrero	2023-07-02T00:00:00	2024-11-08T15:00:00	8	Radiación solar	137
5161	7	Sololá	701	Sololá	1	Sololá	2	Febrero	2023-07-02T00:00:00	2024-11-08T16:00:00	2	Temperatura media	19.1
5162	7	Sololá	701	Sololá	1	Sololá	2	Febrero	2023-07-02T00:00:00	2024-11-08T16:00:00	4	Temperatura máxima	20.3
5163	7	Sololá	701	Sololá	1	Sololá	2	Febrero	2023-07-02T00:00:00	2024-11-08T16:00:00	3	Temperatura mínima	18.7
5164	7	Sololá	701	Sololá	1	Sololá	2	Febrero	2023-07-02T00:00:00	2024-11-08T16:00:00	5	Humedad	65
5165	7	Sololá	701	Sololá	1	Sololá	2	Febrero	2023-07-02T00:00:00	2024-11-08T16:00:00	6	Velocidad del viento	8
5166	7	Sololá	701	Sololá	1	Sololá	2	Febrero	2023-07-02T00:00:00	2024-11-08T16:00:00	7	Dirección del viento	8.05
5167	7	Sololá	701	Sololá	1	Sololá	2	Febrero	2023-07-02T00:00:00	2024-11-08T16:00:00	1	Precipitación	0
5168	7	Sololá	701	Sololá	1	Sololá	2	Febrero	2023-07-02T00:00:00	2024-11-08T16:00:00	8	Radiación solar	206
5169	7	Sololá	701	Sololá	1	Sololá	2	Febrero	2023-07-02T00:00:00	2024-11-08T17:00:00	2	Temperatura media	18.2
5170	7	Sololá	701	Sololá	1	Sololá	2	Febrero	2023-07-02T00:00:00	2024-11-08T17:00:00	4	Temperatura máxima	19.4
5171	7	Sololá	701	Sololá	1	Sololá	2	Febrero	2023-07-02T00:00:00	2024-11-08T17:00:00	3	Temperatura mínima	18.2
5172	7	Sololá	701	Sololá	1	Sololá	2	Febrero	2023-07-02T00:00:00	2024-11-08T17:00:00	5	Humedad	73
5173	7	Sololá	701	Sololá	1	Sololá	2	Febrero	2023-07-02T00:00:00	2024-11-08T17:00:00	6	Velocidad del viento	6.4
5174	7	Sololá	701	Sololá	1	Sololá	2	Febrero	2023-07-02T00:00:00	2024-11-08T17:00:00	7	Dirección del viento	6.44
5175	7	Sololá	701	Sololá	1	Sololá	2	Febrero	2023-07-02T00:00:00	2024-11-08T17:00:00	1	Precipitación	0
5176	7	Sololá	701	Sololá	1	Sololá	2	Febrero	2023-07-02T00:00:00	2024-11-08T17:00:00	8	Radiación solar	61
5177	7	Sololá	701	Sololá	1	Sololá	2	Febrero	2023-07-02T00:00:00	2024-11-08T18:00:00	2	Temperatura media	16.4
5178	7	Sololá	701	Sololá	1	Sololá	2	Febrero	2023-07-02T00:00:00	2024-11-08T18:00:00	4	Temperatura máxima	18.2
5179	7	Sololá	701	Sololá	1	Sololá	2	Febrero	2023-07-02T00:00:00	2024-11-08T18:00:00	3	Temperatura mínima	16.4
5180	7	Sololá	701	Sololá	1	Sololá	2	Febrero	2023-07-02T00:00:00	2024-11-08T18:00:00	5	Humedad	82
5181	7	Sololá	701	Sololá	1	Sololá	2	Febrero	2023-07-02T00:00:00	2024-11-08T18:00:00	6	Velocidad del viento	3.2
5182	7	Sololá	701	Sololá	1	Sololá	2	Febrero	2023-07-02T00:00:00	2024-11-08T18:00:00	7	Dirección del viento	3.22
5183	7	Sololá	701	Sololá	1	Sololá	2	Febrero	2023-07-02T00:00:00	2024-11-08T18:00:00	1	Precipitación	0
5184	7	Sololá	701	Sololá	1	Sololá	2	Febrero	2023-07-02T00:00:00	2024-11-08T18:00:00	8	Radiación solar	47
5185	7	Sololá	701	Sololá	1	Sololá	2	Febrero	2023-07-02T00:00:00	2024-11-08T19:00:00	2	Temperatura media	15.2
5186	7	Sololá	701	Sololá	1	Sololá	2	Febrero	2023-07-02T00:00:00	2024-11-08T19:00:00	4	Temperatura máxima	16.5
5187	7	Sololá	701	Sololá	1	Sololá	2	Febrero	2023-07-02T00:00:00	2024-11-08T19:00:00	3	Temperatura mínima	15.2
5188	7	Sololá	701	Sololá	1	Sololá	2	Febrero	2023-07-02T00:00:00	2024-11-08T19:00:00	5	Humedad	85
5189	7	Sololá	701	Sololá	1	Sololá	2	Febrero	2023-07-02T00:00:00	2024-11-08T19:00:00	6	Velocidad del viento	1.6
5190	7	Sololá	701	Sololá	1	Sololá	2	Febrero	2023-07-02T00:00:00	2024-11-08T19:00:00	7	Dirección del viento	1.61
5191	7	Sololá	701	Sololá	1	Sololá	2	Febrero	2023-07-02T00:00:00	2024-11-08T19:00:00	1	Precipitación	0
5192	7	Sololá	701	Sololá	1	Sololá	2	Febrero	2023-07-02T00:00:00	2024-11-08T19:00:00	8	Radiación solar	0
5193	7	Sololá	701	Sololá	1	Sololá	2	Febrero	2023-07-02T00:00:00	2024-11-08T20:00:00	2	Temperatura media	13.8
5194	7	Sololá	701	Sololá	1	Sololá	2	Febrero	2023-07-02T00:00:00	2024-11-08T20:00:00	4	Temperatura máxima	15.2
5195	7	Sololá	701	Sololá	1	Sololá	2	Febrero	2023-07-02T00:00:00	2024-11-08T20:00:00	3	Temperatura mínima	13.8
5196	7	Sololá	701	Sololá	1	Sololá	2	Febrero	2023-07-02T00:00:00	2024-11-08T20:00:00	5	Humedad	82
5197	7	Sololá	701	Sololá	1	Sololá	2	Febrero	2023-07-02T00:00:00	2024-11-08T20:00:00	6	Velocidad del viento	6.4
5198	7	Sololá	701	Sololá	1	Sololá	2	Febrero	2023-07-02T00:00:00	2024-11-08T20:00:00	7	Dirección del viento	6.44
5199	7	Sololá	701	Sololá	1	Sololá	2	Febrero	2023-07-02T00:00:00	2024-11-08T20:00:00	1	Precipitación	0
5200	7	Sololá	701	Sololá	1	Sololá	2	Febrero	2023-07-02T00:00:00	2024-11-08T20:00:00	8	Radiación solar	0
5201	7	Sololá	701	Sololá	1	Sololá	2	Febrero	2023-07-02T00:00:00	2024-11-08T21:00:00	2	Temperatura media	12.7
5202	7	Sololá	701	Sololá	1	Sololá	2	Febrero	2023-07-02T00:00:00	2024-11-08T21:00:00	4	Temperatura máxima	13.9
5203	7	Sololá	701	Sololá	1	Sololá	2	Febrero	2023-07-02T00:00:00	2024-11-08T21:00:00	3	Temperatura mínima	12.7
5204	7	Sololá	701	Sololá	1	Sololá	2	Febrero	2023-07-02T00:00:00	2024-11-08T21:00:00	5	Humedad	80
5205	7	Sololá	701	Sololá	1	Sololá	2	Febrero	2023-07-02T00:00:00	2024-11-08T21:00:00	6	Velocidad del viento	6.4
5206	7	Sololá	701	Sololá	1	Sololá	2	Febrero	2023-07-02T00:00:00	2024-11-08T21:00:00	7	Dirección del viento	6.44
5207	7	Sololá	701	Sololá	1	Sololá	2	Febrero	2023-07-02T00:00:00	2024-11-08T21:00:00	1	Precipitación	0
5208	7	Sololá	701	Sololá	1	Sololá	2	Febrero	2023-07-02T00:00:00	2024-11-08T21:00:00	8	Radiación solar	0
5209	7	Sololá	701	Sololá	1	Sololá	2	Febrero	2023-07-02T00:00:00	2024-11-08T22:00:00	2	Temperatura media	14.4
5210	7	Sololá	701	Sololá	1	Sololá	2	Febrero	2023-07-02T00:00:00	2024-11-08T22:00:00	4	Temperatura máxima	14.4
5211	7	Sololá	701	Sololá	1	Sololá	2	Febrero	2023-07-02T00:00:00	2024-11-08T22:00:00	3	Temperatura mínima	12.7
5212	7	Sololá	701	Sololá	1	Sololá	2	Febrero	2023-07-02T00:00:00	2024-11-08T22:00:00	5	Humedad	78
5213	7	Sololá	701	Sololá	1	Sololá	2	Febrero	2023-07-02T00:00:00	2024-11-08T22:00:00	6	Velocidad del viento	11.3
5214	7	Sololá	701	Sololá	1	Sololá	2	Febrero	2023-07-02T00:00:00	2024-11-08T22:00:00	7	Dirección del viento	11.27
5215	7	Sololá	701	Sololá	1	Sololá	2	Febrero	2023-07-02T00:00:00	2024-11-08T22:00:00	1	Precipitación	0
5216	7	Sololá	701	Sololá	1	Sololá	2	Febrero	2023-07-02T00:00:00	2024-11-08T22:00:00	8	Radiación solar	0
5217	7	Sololá	701	Sololá	1	Sololá	2	Febrero	2023-07-02T00:00:00	2024-11-08T23:00:00	2	Temperatura media	12.1
5218	7	Sololá	701	Sololá	1	Sololá	2	Febrero	2023-07-02T00:00:00	2024-11-08T23:00:00	4	Temperatura máxima	14.4
5219	7	Sololá	701	Sololá	1	Sololá	2	Febrero	2023-07-02T00:00:00	2024-11-08T23:00:00	3	Temperatura mínima	12.1
5220	7	Sololá	701	Sololá	1	Sololá	2	Febrero	2023-07-02T00:00:00	2024-11-08T23:00:00	5	Humedad	75
5221	7	Sololá	701	Sololá	1	Sololá	2	Febrero	2023-07-02T00:00:00	2024-11-08T23:00:00	6	Velocidad del viento	9.7
5222	7	Sololá	701	Sololá	1	Sololá	2	Febrero	2023-07-02T00:00:00	2024-11-08T23:00:00	7	Dirección del viento	9.66
5223	7	Sololá	701	Sololá	1	Sololá	2	Febrero	2023-07-02T00:00:00	2024-11-08T23:00:00	1	Precipitación	0
5224	7	Sololá	701	Sololá	1	Sololá	2	Febrero	2023-07-02T00:00:00	2024-11-08T23:00:00	8	Radiación solar	0
5225	7	Sololá	701	Sololá	1	Sololá	2	Febrero	2023-08-02T00:00:00	2024-11-08T00:00:00	2	Temperatura media	11
5226	7	Sololá	701	Sololá	1	Sololá	2	Febrero	2023-08-02T00:00:00	2024-11-08T00:00:00	4	Temperatura máxima	12.1
5227	7	Sololá	701	Sololá	1	Sololá	2	Febrero	2023-08-02T00:00:00	2024-11-08T00:00:00	3	Temperatura mínima	10.9
5228	7	Sololá	701	Sololá	1	Sololá	2	Febrero	2023-08-02T00:00:00	2024-11-08T00:00:00	5	Humedad	76
5229	7	Sololá	701	Sololá	1	Sololá	2	Febrero	2023-08-02T00:00:00	2024-11-08T00:00:00	6	Velocidad del viento	9.7
5230	7	Sololá	701	Sololá	1	Sololá	2	Febrero	2023-08-02T00:00:00	2024-11-08T00:00:00	7	Dirección del viento	9.66
5231	7	Sololá	701	Sololá	1	Sololá	2	Febrero	2023-08-02T00:00:00	2024-11-08T00:00:00	1	Precipitación	0
5232	7	Sololá	701	Sololá	1	Sololá	2	Febrero	2023-08-02T00:00:00	2024-11-08T00:00:00	8	Radiación solar	0
5233	7	Sololá	701	Sololá	1	Sololá	2	Febrero	2023-08-02T00:00:00	2024-11-08T01:00:00	2	Temperatura media	10.4
5234	7	Sololá	701	Sololá	1	Sololá	2	Febrero	2023-08-02T00:00:00	2024-11-08T01:00:00	4	Temperatura máxima	11.1
5235	7	Sololá	701	Sololá	1	Sololá	2	Febrero	2023-08-02T00:00:00	2024-11-08T01:00:00	3	Temperatura mínima	10.3
5236	7	Sololá	701	Sololá	1	Sololá	2	Febrero	2023-08-02T00:00:00	2024-11-08T01:00:00	5	Humedad	78
5237	7	Sololá	701	Sololá	1	Sololá	2	Febrero	2023-08-02T00:00:00	2024-11-08T01:00:00	6	Velocidad del viento	9.7
5238	7	Sololá	701	Sololá	1	Sololá	2	Febrero	2023-08-02T00:00:00	2024-11-08T01:00:00	7	Dirección del viento	9.66
5239	7	Sololá	701	Sololá	1	Sololá	2	Febrero	2023-08-02T00:00:00	2024-11-08T01:00:00	1	Precipitación	0
5240	7	Sololá	701	Sololá	1	Sololá	2	Febrero	2023-08-02T00:00:00	2024-11-08T01:00:00	8	Radiación solar	0
5241	7	Sololá	701	Sololá	1	Sololá	2	Febrero	2023-08-02T00:00:00	2024-11-08T02:00:00	2	Temperatura media	9.8
5242	7	Sololá	701	Sololá	1	Sololá	2	Febrero	2023-08-02T00:00:00	2024-11-08T02:00:00	4	Temperatura máxima	10.5
5243	7	Sololá	701	Sololá	1	Sololá	2	Febrero	2023-08-02T00:00:00	2024-11-08T02:00:00	3	Temperatura mínima	9.8
5244	7	Sololá	701	Sololá	1	Sololá	2	Febrero	2023-08-02T00:00:00	2024-11-08T02:00:00	5	Humedad	75
5245	7	Sololá	701	Sololá	1	Sololá	2	Febrero	2023-08-02T00:00:00	2024-11-08T02:00:00	6	Velocidad del viento	8
5246	7	Sololá	701	Sololá	1	Sololá	2	Febrero	2023-08-02T00:00:00	2024-11-08T02:00:00	7	Dirección del viento	8.05
5247	7	Sololá	701	Sololá	1	Sololá	2	Febrero	2023-08-02T00:00:00	2024-11-08T02:00:00	1	Precipitación	0
5248	7	Sololá	701	Sololá	1	Sololá	2	Febrero	2023-08-02T00:00:00	2024-11-08T02:00:00	8	Radiación solar	0
5249	7	Sololá	701	Sololá	1	Sololá	2	Febrero	2023-08-02T00:00:00	2024-11-08T03:00:00	2	Temperatura media	10.9
5250	7	Sololá	701	Sololá	1	Sololá	2	Febrero	2023-08-02T00:00:00	2024-11-08T03:00:00	4	Temperatura máxima	10.9
5251	7	Sololá	701	Sololá	1	Sololá	2	Febrero	2023-08-02T00:00:00	2024-11-08T03:00:00	3	Temperatura mínima	9.7
5252	7	Sololá	701	Sololá	1	Sololá	2	Febrero	2023-08-02T00:00:00	2024-11-08T03:00:00	5	Humedad	80
5253	7	Sololá	701	Sololá	1	Sololá	2	Febrero	2023-08-02T00:00:00	2024-11-08T03:00:00	6	Velocidad del viento	4.8
5254	7	Sololá	701	Sololá	1	Sololá	2	Febrero	2023-08-02T00:00:00	2024-11-08T03:00:00	7	Dirección del viento	4.83
5255	7	Sololá	701	Sololá	1	Sololá	2	Febrero	2023-08-02T00:00:00	2024-11-08T03:00:00	1	Precipitación	0
5256	7	Sololá	701	Sololá	1	Sololá	2	Febrero	2023-08-02T00:00:00	2024-11-08T03:00:00	8	Radiación solar	0
5257	7	Sololá	701	Sololá	1	Sololá	2	Febrero	2023-08-02T00:00:00	2024-11-08T04:00:00	2	Temperatura media	9
5258	7	Sololá	701	Sololá	1	Sololá	2	Febrero	2023-08-02T00:00:00	2024-11-08T04:00:00	4	Temperatura máxima	10.9
5259	7	Sololá	701	Sololá	1	Sololá	2	Febrero	2023-08-02T00:00:00	2024-11-08T04:00:00	3	Temperatura mínima	8.9
5260	7	Sololá	701	Sololá	1	Sololá	2	Febrero	2023-08-02T00:00:00	2024-11-08T04:00:00	5	Humedad	78
5261	7	Sololá	701	Sololá	1	Sololá	2	Febrero	2023-08-02T00:00:00	2024-11-08T04:00:00	6	Velocidad del viento	6.4
5262	7	Sololá	701	Sololá	1	Sololá	2	Febrero	2023-08-02T00:00:00	2024-11-08T04:00:00	7	Dirección del viento	6.44
5263	7	Sololá	701	Sololá	1	Sololá	2	Febrero	2023-08-02T00:00:00	2024-11-08T04:00:00	1	Precipitación	0
5264	7	Sololá	701	Sololá	1	Sololá	2	Febrero	2023-08-02T00:00:00	2024-11-08T04:00:00	8	Radiación solar	0
5265	7	Sololá	701	Sololá	1	Sololá	2	Febrero	2023-08-02T00:00:00	2024-11-08T05:00:00	2	Temperatura media	9.7
5266	7	Sololá	701	Sololá	1	Sololá	2	Febrero	2023-08-02T00:00:00	2024-11-08T05:00:00	4	Temperatura máxima	9.7
5267	7	Sololá	701	Sololá	1	Sololá	2	Febrero	2023-08-02T00:00:00	2024-11-08T05:00:00	3	Temperatura mínima	9
5268	7	Sololá	701	Sololá	1	Sololá	2	Febrero	2023-08-02T00:00:00	2024-11-08T05:00:00	5	Humedad	82
5269	7	Sololá	701	Sololá	1	Sololá	2	Febrero	2023-08-02T00:00:00	2024-11-08T05:00:00	6	Velocidad del viento	6.4
5270	7	Sololá	701	Sololá	1	Sololá	2	Febrero	2023-08-02T00:00:00	2024-11-08T05:00:00	7	Dirección del viento	6.44
5271	7	Sololá	701	Sololá	1	Sololá	2	Febrero	2023-08-02T00:00:00	2024-11-08T05:00:00	1	Precipitación	0
5272	7	Sololá	701	Sololá	1	Sololá	2	Febrero	2023-08-02T00:00:00	2024-11-08T05:00:00	8	Radiación solar	0
5273	7	Sololá	701	Sololá	1	Sololá	2	Febrero	2023-08-02T00:00:00	2024-11-08T06:00:00	2	Temperatura media	9.6
5274	7	Sololá	701	Sololá	1	Sololá	2	Febrero	2023-08-02T00:00:00	2024-11-08T06:00:00	4	Temperatura máxima	9.9
5275	7	Sololá	701	Sololá	1	Sololá	2	Febrero	2023-08-02T00:00:00	2024-11-08T06:00:00	3	Temperatura mínima	9.2
5276	7	Sololá	701	Sololá	1	Sololá	2	Febrero	2023-08-02T00:00:00	2024-11-08T06:00:00	5	Humedad	83
5277	7	Sololá	701	Sololá	1	Sololá	2	Febrero	2023-08-02T00:00:00	2024-11-08T06:00:00	6	Velocidad del viento	8
5278	7	Sololá	701	Sololá	1	Sololá	2	Febrero	2023-08-02T00:00:00	2024-11-08T06:00:00	7	Dirección del viento	8.05
5279	7	Sololá	701	Sololá	1	Sololá	2	Febrero	2023-08-02T00:00:00	2024-11-08T06:00:00	1	Precipitación	0
5280	7	Sololá	701	Sololá	1	Sololá	2	Febrero	2023-08-02T00:00:00	2024-11-08T06:00:00	8	Radiación solar	0
5281	7	Sololá	701	Sololá	1	Sololá	2	Febrero	2023-08-02T00:00:00	2024-11-08T07:00:00	2	Temperatura media	9.4
5282	7	Sololá	701	Sololá	1	Sololá	2	Febrero	2023-08-02T00:00:00	2024-11-08T07:00:00	4	Temperatura máxima	9.7
5283	7	Sololá	701	Sololá	1	Sololá	2	Febrero	2023-08-02T00:00:00	2024-11-08T07:00:00	3	Temperatura mínima	9.4
5284	7	Sololá	701	Sololá	1	Sololá	2	Febrero	2023-08-02T00:00:00	2024-11-08T07:00:00	5	Humedad	75
5285	7	Sololá	701	Sololá	1	Sololá	2	Febrero	2023-08-02T00:00:00	2024-11-08T07:00:00	6	Velocidad del viento	9.7
5286	7	Sololá	701	Sololá	1	Sololá	2	Febrero	2023-08-02T00:00:00	2024-11-08T07:00:00	7	Dirección del viento	9.66
5287	7	Sololá	701	Sololá	1	Sololá	2	Febrero	2023-08-02T00:00:00	2024-11-08T07:00:00	1	Precipitación	0
5288	7	Sololá	701	Sololá	1	Sololá	2	Febrero	2023-08-02T00:00:00	2024-11-08T07:00:00	8	Radiación solar	6
5289	7	Sololá	701	Sololá	1	Sololá	2	Febrero	2023-08-02T00:00:00	2024-11-08T08:00:00	2	Temperatura media	13.6
5290	7	Sololá	701	Sololá	1	Sololá	2	Febrero	2023-08-02T00:00:00	2024-11-08T08:00:00	4	Temperatura máxima	13.6
5291	7	Sololá	701	Sololá	1	Sololá	2	Febrero	2023-08-02T00:00:00	2024-11-08T08:00:00	3	Temperatura mínima	9.4
5292	7	Sololá	701	Sololá	1	Sololá	2	Febrero	2023-08-02T00:00:00	2024-11-08T08:00:00	5	Humedad	64
5293	7	Sololá	701	Sololá	1	Sololá	2	Febrero	2023-08-02T00:00:00	2024-11-08T08:00:00	6	Velocidad del viento	6.4
5294	7	Sololá	701	Sololá	1	Sololá	2	Febrero	2023-08-02T00:00:00	2024-11-08T08:00:00	7	Dirección del viento	6.44
5295	7	Sololá	701	Sololá	1	Sololá	2	Febrero	2023-08-02T00:00:00	2024-11-08T08:00:00	1	Precipitación	0
5296	7	Sololá	701	Sololá	1	Sololá	2	Febrero	2023-08-02T00:00:00	2024-11-08T08:00:00	8	Radiación solar	34
5297	7	Sololá	701	Sololá	1	Sololá	2	Febrero	2023-08-02T00:00:00	2024-11-08T09:00:00	2	Temperatura media	16.7
5298	7	Sololá	701	Sololá	1	Sololá	2	Febrero	2023-08-02T00:00:00	2024-11-08T09:00:00	4	Temperatura máxima	16.7
5299	7	Sololá	701	Sololá	1	Sololá	2	Febrero	2023-08-02T00:00:00	2024-11-08T09:00:00	3	Temperatura mínima	13.7
5300	7	Sololá	701	Sololá	1	Sololá	2	Febrero	2023-08-02T00:00:00	2024-11-08T09:00:00	5	Humedad	60
5301	7	Sololá	701	Sololá	1	Sololá	2	Febrero	2023-08-02T00:00:00	2024-11-08T09:00:00	6	Velocidad del viento	3.2
5302	7	Sololá	701	Sololá	1	Sololá	2	Febrero	2023-08-02T00:00:00	2024-11-08T09:00:00	7	Dirección del viento	3.22
5303	7	Sololá	701	Sololá	1	Sololá	2	Febrero	2023-08-02T00:00:00	2024-11-08T09:00:00	1	Precipitación	0
5304	7	Sololá	701	Sololá	1	Sololá	2	Febrero	2023-08-02T00:00:00	2024-11-08T09:00:00	8	Radiación solar	407
5305	7	Sololá	701	Sololá	1	Sololá	2	Febrero	2023-08-02T00:00:00	2024-11-08T10:00:00	2	Temperatura media	18.5
5306	7	Sololá	701	Sololá	1	Sololá	2	Febrero	2023-08-02T00:00:00	2024-11-08T10:00:00	4	Temperatura máxima	18.5
5307	7	Sololá	701	Sololá	1	Sololá	2	Febrero	2023-08-02T00:00:00	2024-11-08T10:00:00	3	Temperatura mínima	16.7
5308	7	Sololá	701	Sololá	1	Sololá	2	Febrero	2023-08-02T00:00:00	2024-11-08T10:00:00	5	Humedad	61
5309	7	Sololá	701	Sololá	1	Sololá	2	Febrero	2023-08-02T00:00:00	2024-11-08T10:00:00	6	Velocidad del viento	3.2
5310	7	Sololá	701	Sololá	1	Sololá	2	Febrero	2023-08-02T00:00:00	2024-11-08T10:00:00	7	Dirección del viento	3.22
5311	7	Sololá	701	Sololá	1	Sololá	2	Febrero	2023-08-02T00:00:00	2024-11-08T10:00:00	1	Precipitación	0
5312	7	Sololá	701	Sololá	1	Sololá	2	Febrero	2023-08-02T00:00:00	2024-11-08T10:00:00	8	Radiación solar	701
5313	7	Sololá	701	Sololá	1	Sololá	2	Febrero	2023-08-02T00:00:00	2024-11-08T11:00:00	2	Temperatura media	19.7
5314	7	Sololá	701	Sololá	1	Sololá	2	Febrero	2023-08-02T00:00:00	2024-11-08T11:00:00	4	Temperatura máxima	19.7
5315	7	Sololá	701	Sololá	1	Sololá	2	Febrero	2023-08-02T00:00:00	2024-11-08T11:00:00	3	Temperatura mínima	18.6
5316	7	Sololá	701	Sololá	1	Sololá	2	Febrero	2023-08-02T00:00:00	2024-11-08T11:00:00	5	Humedad	55
5317	7	Sololá	701	Sololá	1	Sololá	2	Febrero	2023-08-02T00:00:00	2024-11-08T11:00:00	6	Velocidad del viento	4.8
5318	7	Sololá	701	Sololá	1	Sololá	2	Febrero	2023-08-02T00:00:00	2024-11-08T11:00:00	7	Dirección del viento	4.83
5319	7	Sololá	701	Sololá	1	Sololá	2	Febrero	2023-08-02T00:00:00	2024-11-08T11:00:00	1	Precipitación	0
5320	7	Sololá	701	Sololá	1	Sololá	2	Febrero	2023-08-02T00:00:00	2024-11-08T11:00:00	8	Radiación solar	866
5321	7	Sololá	701	Sololá	1	Sololá	2	Febrero	2023-08-02T00:00:00	2024-11-08T12:00:00	2	Temperatura media	19.9
5322	7	Sololá	701	Sololá	1	Sololá	2	Febrero	2023-08-02T00:00:00	2024-11-08T12:00:00	4	Temperatura máxima	20.1
5323	7	Sololá	701	Sololá	1	Sololá	2	Febrero	2023-08-02T00:00:00	2024-11-08T12:00:00	3	Temperatura mínima	19.6
5324	7	Sololá	701	Sololá	1	Sololá	2	Febrero	2023-08-02T00:00:00	2024-11-08T12:00:00	5	Humedad	60
5325	7	Sololá	701	Sololá	1	Sololá	2	Febrero	2023-08-02T00:00:00	2024-11-08T12:00:00	6	Velocidad del viento	6.4
5326	7	Sololá	701	Sololá	1	Sololá	2	Febrero	2023-08-02T00:00:00	2024-11-08T12:00:00	7	Dirección del viento	6.44
5327	7	Sololá	701	Sololá	1	Sololá	2	Febrero	2023-08-02T00:00:00	2024-11-08T12:00:00	1	Precipitación	0
5328	7	Sololá	701	Sololá	1	Sololá	2	Febrero	2023-08-02T00:00:00	2024-11-08T12:00:00	8	Radiación solar	963
5329	7	Sololá	701	Sololá	1	Sololá	2	Febrero	2023-08-02T00:00:00	2024-11-08T13:00:00	2	Temperatura media	20.4
5330	7	Sololá	701	Sololá	1	Sololá	2	Febrero	2023-08-02T00:00:00	2024-11-08T13:00:00	4	Temperatura máxima	20.7
5331	7	Sololá	701	Sololá	1	Sololá	2	Febrero	2023-08-02T00:00:00	2024-11-08T13:00:00	3	Temperatura mínima	19.7
5332	7	Sololá	701	Sololá	1	Sololá	2	Febrero	2023-08-02T00:00:00	2024-11-08T13:00:00	5	Humedad	62
5333	7	Sololá	701	Sololá	1	Sololá	2	Febrero	2023-08-02T00:00:00	2024-11-08T13:00:00	6	Velocidad del viento	6.4
5334	7	Sololá	701	Sololá	1	Sololá	2	Febrero	2023-08-02T00:00:00	2024-11-08T13:00:00	7	Dirección del viento	6.44
5335	7	Sololá	701	Sololá	1	Sololá	2	Febrero	2023-08-02T00:00:00	2024-11-08T13:00:00	1	Precipitación	0
5336	7	Sololá	701	Sololá	1	Sololá	2	Febrero	2023-08-02T00:00:00	2024-11-08T13:00:00	8	Radiación solar	990
5337	7	Sololá	701	Sololá	1	Sololá	2	Febrero	2023-08-02T00:00:00	2024-11-08T14:00:00	2	Temperatura media	20.8
5338	7	Sololá	701	Sololá	1	Sololá	2	Febrero	2023-08-02T00:00:00	2024-11-08T14:00:00	4	Temperatura máxima	21.2
5339	7	Sololá	701	Sololá	1	Sololá	2	Febrero	2023-08-02T00:00:00	2024-11-08T14:00:00	3	Temperatura mínima	20.4
5340	7	Sololá	701	Sololá	1	Sololá	2	Febrero	2023-08-02T00:00:00	2024-11-08T14:00:00	5	Humedad	63
5341	7	Sololá	701	Sololá	1	Sololá	2	Febrero	2023-08-02T00:00:00	2024-11-08T14:00:00	6	Velocidad del viento	6.4
5342	7	Sololá	701	Sololá	1	Sololá	2	Febrero	2023-08-02T00:00:00	2024-11-08T14:00:00	7	Dirección del viento	6.44
5343	7	Sololá	701	Sololá	1	Sololá	2	Febrero	2023-08-02T00:00:00	2024-11-08T14:00:00	1	Precipitación	0
5344	7	Sololá	701	Sololá	1	Sololá	2	Febrero	2023-08-02T00:00:00	2024-11-08T14:00:00	8	Radiación solar	415
5345	7	Sololá	701	Sololá	1	Sololá	2	Febrero	2023-08-02T00:00:00	2024-11-08T15:00:00	2	Temperatura media	21.3
5346	7	Sololá	701	Sololá	1	Sololá	2	Febrero	2023-08-02T00:00:00	2024-11-08T15:00:00	4	Temperatura máxima	21.3
5347	7	Sololá	701	Sololá	1	Sololá	2	Febrero	2023-08-02T00:00:00	2024-11-08T15:00:00	3	Temperatura mínima	20.5
5348	7	Sololá	701	Sololá	1	Sololá	2	Febrero	2023-08-02T00:00:00	2024-11-08T15:00:00	5	Humedad	66
5349	7	Sololá	701	Sololá	1	Sololá	2	Febrero	2023-08-02T00:00:00	2024-11-08T15:00:00	6	Velocidad del viento	8
5350	7	Sololá	701	Sololá	1	Sololá	2	Febrero	2023-08-02T00:00:00	2024-11-08T15:00:00	7	Dirección del viento	8.05
5351	7	Sololá	701	Sololá	1	Sololá	2	Febrero	2023-08-02T00:00:00	2024-11-08T15:00:00	1	Precipitación	0
5352	7	Sololá	701	Sololá	1	Sololá	2	Febrero	2023-08-02T00:00:00	2024-11-08T15:00:00	8	Radiación solar	203
5353	7	Sololá	701	Sololá	1	Sololá	2	Febrero	2023-08-02T00:00:00	2024-11-08T16:00:00	2	Temperatura media	18.7
5354	7	Sololá	701	Sololá	1	Sololá	2	Febrero	2023-08-02T00:00:00	2024-11-08T16:00:00	4	Temperatura máxima	21.3
5355	7	Sololá	701	Sololá	1	Sololá	2	Febrero	2023-08-02T00:00:00	2024-11-08T16:00:00	3	Temperatura mínima	18.7
5356	7	Sololá	701	Sololá	1	Sololá	2	Febrero	2023-08-02T00:00:00	2024-11-08T16:00:00	5	Humedad	75
5357	7	Sololá	701	Sololá	1	Sololá	2	Febrero	2023-08-02T00:00:00	2024-11-08T16:00:00	6	Velocidad del viento	6.4
5358	7	Sololá	701	Sololá	1	Sololá	2	Febrero	2023-08-02T00:00:00	2024-11-08T16:00:00	7	Dirección del viento	6.44
5359	7	Sololá	701	Sololá	1	Sololá	2	Febrero	2023-08-02T00:00:00	2024-11-08T16:00:00	1	Precipitación	0
5360	7	Sololá	701	Sololá	1	Sololá	2	Febrero	2023-08-02T00:00:00	2024-11-08T16:00:00	8	Radiación solar	184
5361	7	Sololá	701	Sololá	1	Sololá	2	Febrero	2023-08-02T00:00:00	2024-11-08T17:00:00	2	Temperatura media	19.3
5362	7	Sololá	701	Sololá	1	Sololá	2	Febrero	2023-08-02T00:00:00	2024-11-08T17:00:00	4	Temperatura máxima	19.3
5363	7	Sololá	701	Sololá	1	Sololá	2	Febrero	2023-08-02T00:00:00	2024-11-08T17:00:00	3	Temperatura mínima	18.4
5364	7	Sololá	701	Sololá	1	Sololá	2	Febrero	2023-08-02T00:00:00	2024-11-08T17:00:00	5	Humedad	74
5365	7	Sololá	701	Sololá	1	Sololá	2	Febrero	2023-08-02T00:00:00	2024-11-08T17:00:00	6	Velocidad del viento	3.2
5366	7	Sololá	701	Sololá	1	Sololá	2	Febrero	2023-08-02T00:00:00	2024-11-08T17:00:00	7	Dirección del viento	3.22
5367	7	Sololá	701	Sololá	1	Sololá	2	Febrero	2023-08-02T00:00:00	2024-11-08T17:00:00	1	Precipitación	0
5368	7	Sololá	701	Sololá	1	Sololá	2	Febrero	2023-08-02T00:00:00	2024-11-08T17:00:00	8	Radiación solar	123
5369	7	Sololá	701	Sololá	1	Sololá	2	Febrero	2023-08-02T00:00:00	2024-11-08T18:00:00	2	Temperatura media	17
5370	7	Sololá	701	Sololá	1	Sololá	2	Febrero	2023-08-02T00:00:00	2024-11-08T18:00:00	4	Temperatura máxima	19.4
5371	7	Sololá	701	Sololá	1	Sololá	2	Febrero	2023-08-02T00:00:00	2024-11-08T18:00:00	3	Temperatura mínima	17
5372	7	Sololá	701	Sololá	1	Sololá	2	Febrero	2023-08-02T00:00:00	2024-11-08T18:00:00	5	Humedad	83
5373	7	Sololá	701	Sololá	1	Sololá	2	Febrero	2023-08-02T00:00:00	2024-11-08T18:00:00	6	Velocidad del viento	1.6
5374	7	Sololá	701	Sololá	1	Sololá	2	Febrero	2023-08-02T00:00:00	2024-11-08T18:00:00	7	Dirección del viento	1.61
5375	7	Sololá	701	Sololá	1	Sololá	2	Febrero	2023-08-02T00:00:00	2024-11-08T18:00:00	1	Precipitación	0
5376	7	Sololá	701	Sololá	1	Sololá	2	Febrero	2023-08-02T00:00:00	2024-11-08T18:00:00	8	Radiación solar	47
5377	7	Sololá	701	Sololá	1	Sololá	2	Febrero	2023-08-02T00:00:00	2024-11-08T19:00:00	2	Temperatura media	16.2
5378	7	Sololá	701	Sololá	1	Sololá	2	Febrero	2023-08-02T00:00:00	2024-11-08T19:00:00	4	Temperatura máxima	17.1
5379	7	Sololá	701	Sololá	1	Sololá	2	Febrero	2023-08-02T00:00:00	2024-11-08T19:00:00	3	Temperatura mínima	16.2
5380	7	Sololá	701	Sololá	1	Sololá	2	Febrero	2023-08-02T00:00:00	2024-11-08T19:00:00	5	Humedad	85
5381	7	Sololá	701	Sololá	1	Sololá	2	Febrero	2023-08-02T00:00:00	2024-11-08T19:00:00	6	Velocidad del viento	1.6
5382	7	Sololá	701	Sololá	1	Sololá	2	Febrero	2023-08-02T00:00:00	2024-11-08T19:00:00	7	Dirección del viento	1.61
5383	7	Sololá	701	Sololá	1	Sololá	2	Febrero	2023-08-02T00:00:00	2024-11-08T19:00:00	1	Precipitación	0
5384	7	Sololá	701	Sololá	1	Sololá	2	Febrero	2023-08-02T00:00:00	2024-11-08T19:00:00	8	Radiación solar	0
5385	7	Sololá	701	Sololá	1	Sololá	2	Febrero	2023-08-02T00:00:00	2024-11-08T20:00:00	2	Temperatura media	16.1
5386	7	Sololá	701	Sololá	1	Sololá	2	Febrero	2023-08-02T00:00:00	2024-11-08T20:00:00	4	Temperatura máxima	16.4
5387	7	Sololá	701	Sololá	1	Sololá	2	Febrero	2023-08-02T00:00:00	2024-11-08T20:00:00	3	Temperatura mínima	16
5388	7	Sololá	701	Sololá	1	Sololá	2	Febrero	2023-08-02T00:00:00	2024-11-08T20:00:00	5	Humedad	75
5389	7	Sololá	701	Sololá	1	Sololá	2	Febrero	2023-08-02T00:00:00	2024-11-08T20:00:00	6	Velocidad del viento	6.4
5390	7	Sololá	701	Sololá	1	Sololá	2	Febrero	2023-08-02T00:00:00	2024-11-08T20:00:00	7	Dirección del viento	6.44
5391	7	Sololá	701	Sololá	1	Sololá	2	Febrero	2023-08-02T00:00:00	2024-11-08T20:00:00	1	Precipitación	0
5392	7	Sololá	701	Sololá	1	Sololá	2	Febrero	2023-08-02T00:00:00	2024-11-08T20:00:00	8	Radiación solar	0
5393	7	Sololá	701	Sololá	1	Sololá	2	Febrero	2023-08-02T00:00:00	2024-11-08T21:00:00	2	Temperatura media	16.2
5394	7	Sololá	701	Sololá	1	Sololá	2	Febrero	2023-08-02T00:00:00	2024-11-08T21:00:00	4	Temperatura máxima	16.4
5395	7	Sololá	701	Sololá	1	Sololá	2	Febrero	2023-08-02T00:00:00	2024-11-08T21:00:00	3	Temperatura mínima	16
5396	7	Sololá	701	Sololá	1	Sololá	2	Febrero	2023-08-02T00:00:00	2024-11-08T21:00:00	5	Humedad	75
5397	7	Sololá	701	Sololá	1	Sololá	2	Febrero	2023-08-02T00:00:00	2024-11-08T21:00:00	6	Velocidad del viento	4.8
5398	7	Sololá	701	Sololá	1	Sololá	2	Febrero	2023-08-02T00:00:00	2024-11-08T21:00:00	7	Dirección del viento	4.83
5399	7	Sololá	701	Sololá	1	Sololá	2	Febrero	2023-08-02T00:00:00	2024-11-08T21:00:00	1	Precipitación	0
5400	7	Sololá	701	Sololá	1	Sololá	2	Febrero	2023-08-02T00:00:00	2024-11-08T21:00:00	8	Radiación solar	0
5401	7	Sololá	701	Sololá	1	Sololá	2	Febrero	2023-08-02T00:00:00	2024-11-08T22:00:00	2	Temperatura media	16.1
5402	7	Sololá	701	Sololá	1	Sololá	2	Febrero	2023-08-02T00:00:00	2024-11-08T22:00:00	4	Temperatura máxima	16.2
5403	7	Sololá	701	Sololá	1	Sololá	2	Febrero	2023-08-02T00:00:00	2024-11-08T22:00:00	3	Temperatura mínima	16
5404	7	Sololá	701	Sololá	1	Sololá	2	Febrero	2023-08-02T00:00:00	2024-11-08T22:00:00	5	Humedad	77
5405	7	Sololá	701	Sololá	1	Sololá	2	Febrero	2023-08-02T00:00:00	2024-11-08T22:00:00	6	Velocidad del viento	9.7
5406	7	Sololá	701	Sololá	1	Sololá	2	Febrero	2023-08-02T00:00:00	2024-11-08T22:00:00	7	Dirección del viento	9.66
5407	7	Sololá	701	Sololá	1	Sololá	2	Febrero	2023-08-02T00:00:00	2024-11-08T22:00:00	1	Precipitación	0
5408	7	Sololá	701	Sololá	1	Sololá	2	Febrero	2023-08-02T00:00:00	2024-11-08T22:00:00	8	Radiación solar	0
5409	7	Sololá	701	Sololá	1	Sololá	2	Febrero	2023-08-02T00:00:00	2024-11-08T23:00:00	2	Temperatura media	15.2
5410	7	Sololá	701	Sololá	1	Sololá	2	Febrero	2023-08-02T00:00:00	2024-11-08T23:00:00	4	Temperatura máxima	16.1
5411	7	Sololá	701	Sololá	1	Sololá	2	Febrero	2023-08-02T00:00:00	2024-11-08T23:00:00	3	Temperatura mínima	15.2
5412	7	Sololá	701	Sololá	1	Sololá	2	Febrero	2023-08-02T00:00:00	2024-11-08T23:00:00	5	Humedad	79
5413	7	Sololá	701	Sololá	1	Sololá	2	Febrero	2023-08-02T00:00:00	2024-11-08T23:00:00	6	Velocidad del viento	14.5
5414	7	Sololá	701	Sololá	1	Sololá	2	Febrero	2023-08-02T00:00:00	2024-11-08T23:00:00	7	Dirección del viento	14.48
5415	7	Sololá	701	Sololá	1	Sololá	2	Febrero	2023-08-02T00:00:00	2024-11-08T23:00:00	1	Precipitación	0
5416	7	Sololá	701	Sololá	1	Sololá	2	Febrero	2023-08-02T00:00:00	2024-11-08T23:00:00	8	Radiación solar	0
5417	7	Sololá	701	Sololá	1	Sololá	2	Febrero	2023-09-02T00:00:00	2024-11-08T00:00:00	2	Temperatura media	14.9
5418	7	Sololá	701	Sololá	1	Sololá	2	Febrero	2023-09-02T00:00:00	2024-11-08T00:00:00	4	Temperatura máxima	15.2
5419	7	Sololá	701	Sololá	1	Sololá	2	Febrero	2023-09-02T00:00:00	2024-11-08T00:00:00	3	Temperatura mínima	14.9
5420	7	Sololá	701	Sololá	1	Sololá	2	Febrero	2023-09-02T00:00:00	2024-11-08T00:00:00	5	Humedad	77
5421	7	Sololá	701	Sololá	1	Sololá	2	Febrero	2023-09-02T00:00:00	2024-11-08T00:00:00	6	Velocidad del viento	14.5
5422	7	Sololá	701	Sololá	1	Sololá	2	Febrero	2023-09-02T00:00:00	2024-11-08T00:00:00	7	Dirección del viento	14.48
5423	7	Sololá	701	Sololá	1	Sololá	2	Febrero	2023-09-02T00:00:00	2024-11-08T00:00:00	1	Precipitación	0
5424	7	Sololá	701	Sololá	1	Sololá	2	Febrero	2023-09-02T00:00:00	2024-11-08T00:00:00	8	Radiación solar	0
5425	7	Sololá	701	Sololá	1	Sololá	2	Febrero	2023-09-02T00:00:00	2024-11-08T01:00:00	2	Temperatura media	14.9
5426	7	Sololá	701	Sololá	1	Sololá	2	Febrero	2023-09-02T00:00:00	2024-11-08T01:00:00	4	Temperatura máxima	15.1
5427	7	Sololá	701	Sololá	1	Sololá	2	Febrero	2023-09-02T00:00:00	2024-11-08T01:00:00	3	Temperatura mínima	14.8
5428	7	Sololá	701	Sololá	1	Sololá	2	Febrero	2023-09-02T00:00:00	2024-11-08T01:00:00	5	Humedad	75
5429	7	Sololá	701	Sololá	1	Sololá	2	Febrero	2023-09-02T00:00:00	2024-11-08T01:00:00	6	Velocidad del viento	9.7
5430	7	Sololá	701	Sololá	1	Sololá	2	Febrero	2023-09-02T00:00:00	2024-11-08T01:00:00	7	Dirección del viento	9.66
5431	7	Sololá	701	Sololá	1	Sololá	2	Febrero	2023-09-02T00:00:00	2024-11-08T01:00:00	1	Precipitación	0
5432	7	Sololá	701	Sololá	1	Sololá	2	Febrero	2023-09-02T00:00:00	2024-11-08T01:00:00	8	Radiación solar	0
5433	7	Sololá	701	Sololá	1	Sololá	2	Febrero	2023-09-02T00:00:00	2024-11-08T02:00:00	2	Temperatura media	12.1
5434	7	Sololá	701	Sololá	1	Sololá	2	Febrero	2023-09-02T00:00:00	2024-11-08T02:00:00	4	Temperatura máxima	14.9
5435	7	Sololá	701	Sololá	1	Sololá	2	Febrero	2023-09-02T00:00:00	2024-11-08T02:00:00	3	Temperatura mínima	12.1
5436	7	Sololá	701	Sololá	1	Sololá	2	Febrero	2023-09-02T00:00:00	2024-11-08T02:00:00	5	Humedad	80
5437	7	Sololá	701	Sololá	1	Sololá	2	Febrero	2023-09-02T00:00:00	2024-11-08T02:00:00	6	Velocidad del viento	8
5438	7	Sololá	701	Sololá	1	Sololá	2	Febrero	2023-09-02T00:00:00	2024-11-08T02:00:00	7	Dirección del viento	8.05
5439	7	Sololá	701	Sololá	1	Sololá	2	Febrero	2023-09-02T00:00:00	2024-11-08T02:00:00	1	Precipitación	0
5440	7	Sololá	701	Sololá	1	Sololá	2	Febrero	2023-09-02T00:00:00	2024-11-08T02:00:00	8	Radiación solar	0
5441	7	Sololá	701	Sololá	1	Sololá	2	Febrero	2023-09-02T00:00:00	2024-11-08T03:00:00	2	Temperatura media	11.7
5442	7	Sololá	701	Sololá	1	Sololá	2	Febrero	2023-09-02T00:00:00	2024-11-08T03:00:00	4	Temperatura máxima	12.1
5443	7	Sololá	701	Sololá	1	Sololá	2	Febrero	2023-09-02T00:00:00	2024-11-08T03:00:00	3	Temperatura mínima	11.6
5444	7	Sololá	701	Sololá	1	Sololá	2	Febrero	2023-09-02T00:00:00	2024-11-08T03:00:00	5	Humedad	79
5445	7	Sololá	701	Sololá	1	Sololá	2	Febrero	2023-09-02T00:00:00	2024-11-08T03:00:00	6	Velocidad del viento	6.4
5446	7	Sololá	701	Sololá	1	Sololá	2	Febrero	2023-09-02T00:00:00	2024-11-08T03:00:00	7	Dirección del viento	6.44
5447	7	Sololá	701	Sololá	1	Sololá	2	Febrero	2023-09-02T00:00:00	2024-11-08T03:00:00	1	Precipitación	0
5448	7	Sololá	701	Sololá	1	Sololá	2	Febrero	2023-09-02T00:00:00	2024-11-08T03:00:00	8	Radiación solar	0
5449	7	Sololá	701	Sololá	1	Sololá	2	Febrero	2023-09-02T00:00:00	2024-11-08T04:00:00	2	Temperatura media	11.7
5450	7	Sololá	701	Sololá	1	Sololá	2	Febrero	2023-09-02T00:00:00	2024-11-08T04:00:00	4	Temperatura máxima	11.8
5451	7	Sololá	701	Sololá	1	Sololá	2	Febrero	2023-09-02T00:00:00	2024-11-08T04:00:00	3	Temperatura mínima	10.8
5452	7	Sololá	701	Sololá	1	Sololá	2	Febrero	2023-09-02T00:00:00	2024-11-08T04:00:00	5	Humedad	76
5453	7	Sololá	701	Sololá	1	Sololá	2	Febrero	2023-09-02T00:00:00	2024-11-08T04:00:00	6	Velocidad del viento	6.4
5454	7	Sololá	701	Sololá	1	Sololá	2	Febrero	2023-09-02T00:00:00	2024-11-08T04:00:00	7	Dirección del viento	6.44
5455	7	Sololá	701	Sololá	1	Sololá	2	Febrero	2023-09-02T00:00:00	2024-11-08T04:00:00	1	Precipitación	0
5456	7	Sololá	701	Sololá	1	Sololá	2	Febrero	2023-09-02T00:00:00	2024-11-08T04:00:00	8	Radiación solar	0
5457	7	Sololá	701	Sololá	1	Sololá	2	Febrero	2023-09-02T00:00:00	2024-11-08T05:00:00	2	Temperatura media	11.7
5458	7	Sololá	701	Sololá	1	Sololá	2	Febrero	2023-09-02T00:00:00	2024-11-08T05:00:00	4	Temperatura máxima	11.7
5459	7	Sololá	701	Sololá	1	Sololá	2	Febrero	2023-09-02T00:00:00	2024-11-08T05:00:00	3	Temperatura mínima	11.1
5460	7	Sololá	701	Sololá	1	Sololá	2	Febrero	2023-09-02T00:00:00	2024-11-08T05:00:00	5	Humedad	73
5461	7	Sololá	701	Sololá	1	Sololá	2	Febrero	2023-09-02T00:00:00	2024-11-08T05:00:00	6	Velocidad del viento	4.8
5462	7	Sololá	701	Sololá	1	Sololá	2	Febrero	2023-09-02T00:00:00	2024-11-08T05:00:00	7	Dirección del viento	4.83
5463	7	Sololá	701	Sololá	1	Sololá	2	Febrero	2023-09-02T00:00:00	2024-11-08T05:00:00	1	Precipitación	0
5464	7	Sololá	701	Sololá	1	Sololá	2	Febrero	2023-09-02T00:00:00	2024-11-08T05:00:00	8	Radiación solar	0
5465	7	Sololá	701	Sololá	1	Sololá	2	Febrero	2023-09-02T00:00:00	2024-11-08T06:00:00	2	Temperatura media	11.3
5466	7	Sololá	701	Sololá	1	Sololá	2	Febrero	2023-09-02T00:00:00	2024-11-08T06:00:00	4	Temperatura máxima	11.8
5467	7	Sololá	701	Sololá	1	Sololá	2	Febrero	2023-09-02T00:00:00	2024-11-08T06:00:00	3	Temperatura mínima	11.3
5468	7	Sololá	701	Sololá	1	Sololá	2	Febrero	2023-09-02T00:00:00	2024-11-08T06:00:00	5	Humedad	73
5469	7	Sololá	701	Sololá	1	Sololá	2	Febrero	2023-09-02T00:00:00	2024-11-08T06:00:00	6	Velocidad del viento	1.6
5470	7	Sololá	701	Sololá	1	Sololá	2	Febrero	2023-09-02T00:00:00	2024-11-08T06:00:00	7	Dirección del viento	1.61
5471	7	Sololá	701	Sololá	1	Sololá	2	Febrero	2023-09-02T00:00:00	2024-11-08T06:00:00	1	Precipitación	0
5472	7	Sololá	701	Sololá	1	Sololá	2	Febrero	2023-09-02T00:00:00	2024-11-08T06:00:00	8	Radiación solar	0
5473	7	Sololá	701	Sololá	1	Sololá	2	Febrero	2023-09-02T00:00:00	2024-11-08T07:00:00	2	Temperatura media	11.7
5474	7	Sololá	701	Sololá	1	Sololá	2	Febrero	2023-09-02T00:00:00	2024-11-08T07:00:00	4	Temperatura máxima	11.7
5475	7	Sololá	701	Sololá	1	Sololá	2	Febrero	2023-09-02T00:00:00	2024-11-08T07:00:00	3	Temperatura mínima	10.7
5476	7	Sololá	701	Sololá	1	Sololá	2	Febrero	2023-09-02T00:00:00	2024-11-08T07:00:00	5	Humedad	67
5477	7	Sololá	701	Sololá	1	Sololá	2	Febrero	2023-09-02T00:00:00	2024-11-08T07:00:00	6	Velocidad del viento	3.2
5478	7	Sololá	701	Sololá	1	Sololá	2	Febrero	2023-09-02T00:00:00	2024-11-08T07:00:00	7	Dirección del viento	3.22
5479	7	Sololá	701	Sololá	1	Sololá	2	Febrero	2023-09-02T00:00:00	2024-11-08T07:00:00	1	Precipitación	0
5480	7	Sololá	701	Sololá	1	Sololá	2	Febrero	2023-09-02T00:00:00	2024-11-08T07:00:00	8	Radiación solar	8
5481	7	Sololá	701	Sololá	1	Sololá	2	Febrero	2023-09-02T00:00:00	2024-11-08T08:00:00	2	Temperatura media	14.8
5482	7	Sololá	701	Sololá	1	Sololá	2	Febrero	2023-09-02T00:00:00	2024-11-08T08:00:00	4	Temperatura máxima	14.8
5483	7	Sololá	701	Sololá	1	Sololá	2	Febrero	2023-09-02T00:00:00	2024-11-08T08:00:00	3	Temperatura mínima	11.7
5484	7	Sololá	701	Sololá	1	Sololá	2	Febrero	2023-09-02T00:00:00	2024-11-08T08:00:00	5	Humedad	54
5485	7	Sololá	701	Sololá	1	Sololá	2	Febrero	2023-09-02T00:00:00	2024-11-08T08:00:00	6	Velocidad del viento	3.2
5486	7	Sololá	701	Sololá	1	Sololá	2	Febrero	2023-09-02T00:00:00	2024-11-08T08:00:00	7	Dirección del viento	3.22
5487	7	Sololá	701	Sololá	1	Sololá	2	Febrero	2023-09-02T00:00:00	2024-11-08T08:00:00	1	Precipitación	0
5488	7	Sololá	701	Sololá	1	Sololá	2	Febrero	2023-09-02T00:00:00	2024-11-08T08:00:00	8	Radiación solar	28
5489	7	Sololá	701	Sololá	1	Sololá	2	Febrero	2023-09-02T00:00:00	2024-11-08T09:00:00	2	Temperatura media	16.9
5490	7	Sololá	701	Sololá	1	Sololá	2	Febrero	2023-09-02T00:00:00	2024-11-08T09:00:00	4	Temperatura máxima	16.9
5491	7	Sololá	701	Sololá	1	Sololá	2	Febrero	2023-09-02T00:00:00	2024-11-08T09:00:00	3	Temperatura mínima	14.8
5492	7	Sololá	701	Sololá	1	Sololá	2	Febrero	2023-09-02T00:00:00	2024-11-08T09:00:00	5	Humedad	67
5493	7	Sololá	701	Sololá	1	Sololá	2	Febrero	2023-09-02T00:00:00	2024-11-08T09:00:00	6	Velocidad del viento	1.6
5494	7	Sololá	701	Sololá	1	Sololá	2	Febrero	2023-09-02T00:00:00	2024-11-08T09:00:00	7	Dirección del viento	1.61
5495	7	Sololá	701	Sololá	1	Sololá	2	Febrero	2023-09-02T00:00:00	2024-11-08T09:00:00	1	Precipitación	0
5496	7	Sololá	701	Sololá	1	Sololá	2	Febrero	2023-09-02T00:00:00	2024-11-08T09:00:00	8	Radiación solar	388
5497	7	Sololá	701	Sololá	1	Sololá	2	Febrero	2023-09-02T00:00:00	2024-11-08T10:00:00	2	Temperatura media	18.3
5498	7	Sololá	701	Sololá	1	Sololá	2	Febrero	2023-09-02T00:00:00	2024-11-08T10:00:00	4	Temperatura máxima	18.4
5499	7	Sololá	701	Sololá	1	Sololá	2	Febrero	2023-09-02T00:00:00	2024-11-08T10:00:00	3	Temperatura mínima	16.9
5500	7	Sololá	701	Sololá	1	Sololá	2	Febrero	2023-09-02T00:00:00	2024-11-08T10:00:00	5	Humedad	68
5501	7	Sololá	701	Sololá	1	Sololá	2	Febrero	2023-09-02T00:00:00	2024-11-08T10:00:00	6	Velocidad del viento	3.2
5502	7	Sololá	701	Sololá	1	Sololá	2	Febrero	2023-09-02T00:00:00	2024-11-08T10:00:00	7	Dirección del viento	3.22
5503	7	Sololá	701	Sololá	1	Sololá	2	Febrero	2023-09-02T00:00:00	2024-11-08T10:00:00	1	Precipitación	0
5504	7	Sololá	701	Sololá	1	Sololá	2	Febrero	2023-09-02T00:00:00	2024-11-08T10:00:00	8	Radiación solar	698
5505	7	Sololá	701	Sololá	1	Sololá	2	Febrero	2023-09-02T00:00:00	2024-11-08T11:00:00	2	Temperatura media	21.1
5506	7	Sololá	701	Sololá	1	Sololá	2	Febrero	2023-09-02T00:00:00	2024-11-08T11:00:00	4	Temperatura máxima	21.1
5507	7	Sololá	701	Sololá	1	Sololá	2	Febrero	2023-09-02T00:00:00	2024-11-08T11:00:00	3	Temperatura mínima	18.3
5508	7	Sololá	701	Sololá	1	Sololá	2	Febrero	2023-09-02T00:00:00	2024-11-08T11:00:00	5	Humedad	37
5509	7	Sololá	701	Sololá	1	Sololá	2	Febrero	2023-09-02T00:00:00	2024-11-08T11:00:00	6	Velocidad del viento	12.9
5510	7	Sololá	701	Sololá	1	Sololá	2	Febrero	2023-09-02T00:00:00	2024-11-08T11:00:00	7	Dirección del viento	12.87
5511	7	Sololá	701	Sololá	1	Sololá	2	Febrero	2023-09-02T00:00:00	2024-11-08T11:00:00	1	Precipitación	0
5512	7	Sololá	701	Sololá	1	Sololá	2	Febrero	2023-09-02T00:00:00	2024-11-08T11:00:00	8	Radiación solar	862
5513	7	Sololá	701	Sololá	1	Sololá	2	Febrero	2023-09-02T00:00:00	2024-11-08T12:00:00	2	Temperatura media	21.6
5514	7	Sololá	701	Sololá	1	Sololá	2	Febrero	2023-09-02T00:00:00	2024-11-08T12:00:00	4	Temperatura máxima	21.6
5515	7	Sololá	701	Sololá	1	Sololá	2	Febrero	2023-09-02T00:00:00	2024-11-08T12:00:00	3	Temperatura mínima	20.7
5516	7	Sololá	701	Sololá	1	Sololá	2	Febrero	2023-09-02T00:00:00	2024-11-08T12:00:00	5	Humedad	39
5517	7	Sololá	701	Sololá	1	Sololá	2	Febrero	2023-09-02T00:00:00	2024-11-08T12:00:00	6	Velocidad del viento	12.9
5518	7	Sololá	701	Sololá	1	Sololá	2	Febrero	2023-09-02T00:00:00	2024-11-08T12:00:00	7	Dirección del viento	12.87
5519	7	Sololá	701	Sololá	1	Sololá	2	Febrero	2023-09-02T00:00:00	2024-11-08T12:00:00	1	Precipitación	0
5520	7	Sololá	701	Sololá	1	Sololá	2	Febrero	2023-09-02T00:00:00	2024-11-08T12:00:00	8	Radiación solar	973
5521	7	Sololá	701	Sololá	1	Sololá	2	Febrero	2023-09-02T00:00:00	2024-11-08T13:00:00	2	Temperatura media	22.4
5522	7	Sololá	701	Sololá	1	Sololá	2	Febrero	2023-09-02T00:00:00	2024-11-08T13:00:00	4	Temperatura máxima	22.7
5523	7	Sololá	701	Sololá	1	Sololá	2	Febrero	2023-09-02T00:00:00	2024-11-08T13:00:00	3	Temperatura mínima	21.6
5524	7	Sololá	701	Sololá	1	Sololá	2	Febrero	2023-09-02T00:00:00	2024-11-08T13:00:00	5	Humedad	34
5525	7	Sololá	701	Sololá	1	Sololá	2	Febrero	2023-09-02T00:00:00	2024-11-08T13:00:00	6	Velocidad del viento	11.3
5526	7	Sololá	701	Sololá	1	Sololá	2	Febrero	2023-09-02T00:00:00	2024-11-08T13:00:00	7	Dirección del viento	11.27
5527	7	Sololá	701	Sololá	1	Sololá	2	Febrero	2023-09-02T00:00:00	2024-11-08T13:00:00	1	Precipitación	0
5528	7	Sololá	701	Sololá	1	Sololá	2	Febrero	2023-09-02T00:00:00	2024-11-08T13:00:00	8	Radiación solar	587
5529	7	Sololá	701	Sololá	1	Sololá	2	Febrero	2023-09-02T00:00:00	2024-11-08T14:00:00	2	Temperatura media	21.1
5530	7	Sololá	701	Sololá	1	Sololá	2	Febrero	2023-09-02T00:00:00	2024-11-08T14:00:00	4	Temperatura máxima	22.8
5531	7	Sololá	701	Sololá	1	Sololá	2	Febrero	2023-09-02T00:00:00	2024-11-08T14:00:00	3	Temperatura mínima	21
5532	7	Sololá	701	Sololá	1	Sololá	2	Febrero	2023-09-02T00:00:00	2024-11-08T14:00:00	5	Humedad	66
5533	7	Sololá	701	Sololá	1	Sololá	2	Febrero	2023-09-02T00:00:00	2024-11-08T14:00:00	6	Velocidad del viento	8
5534	7	Sololá	701	Sololá	1	Sololá	2	Febrero	2023-09-02T00:00:00	2024-11-08T14:00:00	7	Dirección del viento	8.05
5535	7	Sololá	701	Sololá	1	Sololá	2	Febrero	2023-09-02T00:00:00	2024-11-08T14:00:00	1	Precipitación	0
5536	7	Sololá	701	Sololá	1	Sololá	2	Febrero	2023-09-02T00:00:00	2024-11-08T14:00:00	8	Radiación solar	288
5537	7	Sololá	701	Sololá	1	Sololá	2	Febrero	2023-09-02T00:00:00	2024-11-08T15:00:00	2	Temperatura media	19.6
5538	7	Sololá	701	Sololá	1	Sololá	2	Febrero	2023-09-02T00:00:00	2024-11-08T15:00:00	4	Temperatura máxima	21.1
5539	7	Sololá	701	Sololá	1	Sololá	2	Febrero	2023-09-02T00:00:00	2024-11-08T15:00:00	3	Temperatura mínima	19.4
5540	7	Sololá	701	Sololá	1	Sololá	2	Febrero	2023-09-02T00:00:00	2024-11-08T15:00:00	5	Humedad	74
5541	7	Sololá	701	Sololá	1	Sololá	2	Febrero	2023-09-02T00:00:00	2024-11-08T15:00:00	6	Velocidad del viento	8
5542	7	Sololá	701	Sololá	1	Sololá	2	Febrero	2023-09-02T00:00:00	2024-11-08T15:00:00	7	Dirección del viento	8.05
5543	7	Sololá	701	Sololá	1	Sololá	2	Febrero	2023-09-02T00:00:00	2024-11-08T15:00:00	1	Precipitación	0
5544	7	Sololá	701	Sololá	1	Sololá	2	Febrero	2023-09-02T00:00:00	2024-11-08T15:00:00	8	Radiación solar	275
5545	7	Sololá	701	Sololá	1	Sololá	2	Febrero	2023-09-02T00:00:00	2024-11-08T16:00:00	2	Temperatura media	19.6
5546	7	Sololá	701	Sololá	1	Sololá	2	Febrero	2023-09-02T00:00:00	2024-11-08T16:00:00	4	Temperatura máxima	20.1
5547	7	Sololá	701	Sololá	1	Sololá	2	Febrero	2023-09-02T00:00:00	2024-11-08T16:00:00	3	Temperatura mínima	18.9
5548	7	Sololá	701	Sololá	1	Sololá	2	Febrero	2023-09-02T00:00:00	2024-11-08T16:00:00	5	Humedad	75
5549	7	Sololá	701	Sololá	1	Sololá	2	Febrero	2023-09-02T00:00:00	2024-11-08T16:00:00	6	Velocidad del viento	6.4
5550	7	Sololá	701	Sololá	1	Sololá	2	Febrero	2023-09-02T00:00:00	2024-11-08T16:00:00	7	Dirección del viento	6.44
5551	7	Sololá	701	Sololá	1	Sololá	2	Febrero	2023-09-02T00:00:00	2024-11-08T16:00:00	1	Precipitación	0
5552	7	Sololá	701	Sololá	1	Sololá	2	Febrero	2023-09-02T00:00:00	2024-11-08T16:00:00	8	Radiación solar	122
5553	7	Sololá	701	Sololá	1	Sololá	2	Febrero	2023-09-02T00:00:00	2024-11-08T17:00:00	2	Temperatura media	20.1
5554	7	Sololá	701	Sololá	1	Sololá	2	Febrero	2023-09-02T00:00:00	2024-11-08T17:00:00	4	Temperatura máxima	20.3
5555	7	Sololá	701	Sololá	1	Sololá	2	Febrero	2023-09-02T00:00:00	2024-11-08T17:00:00	3	Temperatura mínima	19.1
5556	7	Sololá	701	Sololá	1	Sololá	2	Febrero	2023-09-02T00:00:00	2024-11-08T17:00:00	5	Humedad	49
5557	7	Sololá	701	Sololá	1	Sololá	2	Febrero	2023-09-02T00:00:00	2024-11-08T17:00:00	6	Velocidad del viento	8
5558	7	Sololá	701	Sololá	1	Sololá	2	Febrero	2023-09-02T00:00:00	2024-11-08T17:00:00	7	Dirección del viento	8.05
5559	7	Sololá	701	Sololá	1	Sololá	2	Febrero	2023-09-02T00:00:00	2024-11-08T17:00:00	1	Precipitación	0
5560	7	Sololá	701	Sololá	1	Sololá	2	Febrero	2023-09-02T00:00:00	2024-11-08T17:00:00	8	Radiación solar	86
5561	7	Sololá	701	Sololá	1	Sololá	2	Febrero	2023-09-02T00:00:00	2024-11-08T18:00:00	2	Temperatura media	17.7
5562	7	Sololá	701	Sololá	1	Sololá	2	Febrero	2023-09-02T00:00:00	2024-11-08T18:00:00	4	Temperatura máxima	20.1
5563	7	Sololá	701	Sololá	1	Sololá	2	Febrero	2023-09-02T00:00:00	2024-11-08T18:00:00	3	Temperatura mínima	17.7
5564	7	Sololá	701	Sololá	1	Sololá	2	Febrero	2023-09-02T00:00:00	2024-11-08T18:00:00	5	Humedad	54
5565	7	Sololá	701	Sololá	1	Sololá	2	Febrero	2023-09-02T00:00:00	2024-11-08T18:00:00	6	Velocidad del viento	12.9
5566	7	Sololá	701	Sololá	1	Sololá	2	Febrero	2023-09-02T00:00:00	2024-11-08T18:00:00	7	Dirección del viento	12.87
5567	7	Sololá	701	Sololá	1	Sololá	2	Febrero	2023-09-02T00:00:00	2024-11-08T18:00:00	1	Precipitación	0
5568	7	Sololá	701	Sololá	1	Sololá	2	Febrero	2023-09-02T00:00:00	2024-11-08T18:00:00	8	Radiación solar	35
5569	7	Sololá	701	Sololá	1	Sololá	2	Febrero	2023-09-02T00:00:00	2024-11-08T19:00:00	2	Temperatura media	16.3
5570	7	Sololá	701	Sololá	1	Sololá	2	Febrero	2023-09-02T00:00:00	2024-11-08T19:00:00	4	Temperatura máxima	17.7
5571	7	Sololá	701	Sololá	1	Sololá	2	Febrero	2023-09-02T00:00:00	2024-11-08T19:00:00	3	Temperatura mínima	16.3
5572	7	Sololá	701	Sololá	1	Sololá	2	Febrero	2023-09-02T00:00:00	2024-11-08T19:00:00	5	Humedad	61
5573	7	Sololá	701	Sololá	1	Sololá	2	Febrero	2023-09-02T00:00:00	2024-11-08T19:00:00	6	Velocidad del viento	8
5574	7	Sololá	701	Sololá	1	Sololá	2	Febrero	2023-09-02T00:00:00	2024-11-08T19:00:00	7	Dirección del viento	8.05
5575	7	Sololá	701	Sololá	1	Sololá	2	Febrero	2023-09-02T00:00:00	2024-11-08T19:00:00	1	Precipitación	0
5576	7	Sololá	701	Sololá	1	Sololá	2	Febrero	2023-09-02T00:00:00	2024-11-08T19:00:00	8	Radiación solar	0
5577	7	Sololá	701	Sololá	1	Sololá	2	Febrero	2023-09-02T00:00:00	2024-11-08T20:00:00	2	Temperatura media	15.1
5578	7	Sololá	701	Sololá	1	Sololá	2	Febrero	2023-09-02T00:00:00	2024-11-08T20:00:00	4	Temperatura máxima	16.3
5579	7	Sololá	701	Sololá	1	Sololá	2	Febrero	2023-09-02T00:00:00	2024-11-08T20:00:00	3	Temperatura mínima	15.1
5580	7	Sololá	701	Sololá	1	Sololá	2	Febrero	2023-09-02T00:00:00	2024-11-08T20:00:00	5	Humedad	71
5581	7	Sololá	701	Sololá	1	Sololá	2	Febrero	2023-09-02T00:00:00	2024-11-08T20:00:00	6	Velocidad del viento	6.4
5582	7	Sololá	701	Sololá	1	Sololá	2	Febrero	2023-09-02T00:00:00	2024-11-08T20:00:00	7	Dirección del viento	6.44
5583	7	Sololá	701	Sololá	1	Sololá	2	Febrero	2023-09-02T00:00:00	2024-11-08T20:00:00	1	Precipitación	0
5584	7	Sololá	701	Sololá	1	Sololá	2	Febrero	2023-09-02T00:00:00	2024-11-08T20:00:00	8	Radiación solar	0
5585	7	Sololá	701	Sololá	1	Sololá	2	Febrero	2023-09-02T00:00:00	2024-11-08T21:00:00	2	Temperatura media	14.4
5586	7	Sololá	701	Sololá	1	Sololá	2	Febrero	2023-09-02T00:00:00	2024-11-08T21:00:00	4	Temperatura máxima	15.1
5587	7	Sololá	701	Sololá	1	Sololá	2	Febrero	2023-09-02T00:00:00	2024-11-08T21:00:00	3	Temperatura mínima	14.4
5588	7	Sololá	701	Sololá	1	Sololá	2	Febrero	2023-09-02T00:00:00	2024-11-08T21:00:00	5	Humedad	75
5589	7	Sololá	701	Sololá	1	Sololá	2	Febrero	2023-09-02T00:00:00	2024-11-08T21:00:00	6	Velocidad del viento	12.9
5590	7	Sololá	701	Sololá	1	Sololá	2	Febrero	2023-09-02T00:00:00	2024-11-08T21:00:00	7	Dirección del viento	12.87
5591	7	Sololá	701	Sololá	1	Sololá	2	Febrero	2023-09-02T00:00:00	2024-11-08T21:00:00	1	Precipitación	0
5592	7	Sololá	701	Sololá	1	Sololá	2	Febrero	2023-09-02T00:00:00	2024-11-08T21:00:00	8	Radiación solar	0
5593	7	Sololá	701	Sololá	1	Sololá	2	Febrero	2023-09-02T00:00:00	2024-11-08T22:00:00	2	Temperatura media	14.1
5594	7	Sololá	701	Sololá	1	Sololá	2	Febrero	2023-09-02T00:00:00	2024-11-08T22:00:00	4	Temperatura máxima	14.4
5595	7	Sololá	701	Sololá	1	Sololá	2	Febrero	2023-09-02T00:00:00	2024-11-08T22:00:00	3	Temperatura mínima	14.1
5596	7	Sololá	701	Sololá	1	Sololá	2	Febrero	2023-09-02T00:00:00	2024-11-08T22:00:00	5	Humedad	74
5597	7	Sololá	701	Sololá	1	Sololá	2	Febrero	2023-09-02T00:00:00	2024-11-08T22:00:00	6	Velocidad del viento	9.7
5598	7	Sololá	701	Sololá	1	Sololá	2	Febrero	2023-09-02T00:00:00	2024-11-08T22:00:00	7	Dirección del viento	9.66
5599	7	Sololá	701	Sololá	1	Sololá	2	Febrero	2023-09-02T00:00:00	2024-11-08T22:00:00	1	Precipitación	0
5600	7	Sololá	701	Sololá	1	Sololá	2	Febrero	2023-09-02T00:00:00	2024-11-08T22:00:00	8	Radiación solar	0
5601	7	Sololá	701	Sololá	1	Sololá	2	Febrero	2023-09-02T00:00:00	2024-11-08T23:00:00	2	Temperatura media	13.9
5602	7	Sololá	701	Sololá	1	Sololá	2	Febrero	2023-09-02T00:00:00	2024-11-08T23:00:00	4	Temperatura máxima	14.1
5603	7	Sololá	701	Sololá	1	Sololá	2	Febrero	2023-09-02T00:00:00	2024-11-08T23:00:00	3	Temperatura mínima	13.6
5604	7	Sololá	701	Sololá	1	Sololá	2	Febrero	2023-09-02T00:00:00	2024-11-08T23:00:00	5	Humedad	77
5605	7	Sololá	701	Sololá	1	Sololá	2	Febrero	2023-09-02T00:00:00	2024-11-08T23:00:00	6	Velocidad del viento	12.9
5606	7	Sololá	701	Sololá	1	Sololá	2	Febrero	2023-09-02T00:00:00	2024-11-08T23:00:00	7	Dirección del viento	12.87
5607	7	Sololá	701	Sololá	1	Sololá	2	Febrero	2023-09-02T00:00:00	2024-11-08T23:00:00	1	Precipitación	0
5608	7	Sololá	701	Sololá	1	Sololá	2	Febrero	2023-09-02T00:00:00	2024-11-08T23:00:00	8	Radiación solar	0
5609	7	Sololá	701	Sololá	1	Sololá	2	Febrero	2023-10-02T00:00:00	2024-11-08T00:00:00	2	Temperatura media	13.7
5610	7	Sololá	701	Sololá	1	Sololá	2	Febrero	2023-10-02T00:00:00	2024-11-08T00:00:00	4	Temperatura máxima	13.9
5611	7	Sololá	701	Sololá	1	Sololá	2	Febrero	2023-10-02T00:00:00	2024-11-08T00:00:00	3	Temperatura mínima	13.7
5612	7	Sololá	701	Sololá	1	Sololá	2	Febrero	2023-10-02T00:00:00	2024-11-08T00:00:00	5	Humedad	78
5613	7	Sololá	701	Sololá	1	Sololá	2	Febrero	2023-10-02T00:00:00	2024-11-08T00:00:00	6	Velocidad del viento	9.7
5614	7	Sololá	701	Sololá	1	Sololá	2	Febrero	2023-10-02T00:00:00	2024-11-08T00:00:00	7	Dirección del viento	9.66
5615	7	Sololá	701	Sololá	1	Sololá	2	Febrero	2023-10-02T00:00:00	2024-11-08T00:00:00	1	Precipitación	0
5616	7	Sololá	701	Sololá	1	Sololá	2	Febrero	2023-10-02T00:00:00	2024-11-08T00:00:00	8	Radiación solar	0
5617	7	Sololá	701	Sololá	1	Sololá	2	Febrero	2023-10-02T00:00:00	2024-11-08T01:00:00	2	Temperatura media	13.3
5618	7	Sololá	701	Sololá	1	Sololá	2	Febrero	2023-10-02T00:00:00	2024-11-08T01:00:00	4	Temperatura máxima	13.7
5619	7	Sololá	701	Sololá	1	Sololá	2	Febrero	2023-10-02T00:00:00	2024-11-08T01:00:00	3	Temperatura mínima	13.3
5620	7	Sololá	701	Sololá	1	Sololá	2	Febrero	2023-10-02T00:00:00	2024-11-08T01:00:00	5	Humedad	78
5621	7	Sololá	701	Sololá	1	Sololá	2	Febrero	2023-10-02T00:00:00	2024-11-08T01:00:00	6	Velocidad del viento	4.8
5622	7	Sololá	701	Sololá	1	Sololá	2	Febrero	2023-10-02T00:00:00	2024-11-08T01:00:00	7	Dirección del viento	4.83
5623	7	Sololá	701	Sololá	1	Sololá	2	Febrero	2023-10-02T00:00:00	2024-11-08T01:00:00	1	Precipitación	0
5624	7	Sololá	701	Sololá	1	Sololá	2	Febrero	2023-10-02T00:00:00	2024-11-08T01:00:00	8	Radiación solar	0
5625	7	Sololá	701	Sololá	1	Sololá	2	Febrero	2023-10-02T00:00:00	2024-11-08T02:00:00	2	Temperatura media	13.1
5626	7	Sololá	701	Sololá	1	Sololá	2	Febrero	2023-10-02T00:00:00	2024-11-08T02:00:00	4	Temperatura máxima	13.3
5627	7	Sololá	701	Sololá	1	Sololá	2	Febrero	2023-10-02T00:00:00	2024-11-08T02:00:00	3	Temperatura mínima	12.9
5628	7	Sololá	701	Sololá	1	Sololá	2	Febrero	2023-10-02T00:00:00	2024-11-08T02:00:00	5	Humedad	79
5629	7	Sololá	701	Sololá	1	Sololá	2	Febrero	2023-10-02T00:00:00	2024-11-08T02:00:00	6	Velocidad del viento	1.6
5630	7	Sololá	701	Sololá	1	Sololá	2	Febrero	2023-10-02T00:00:00	2024-11-08T02:00:00	7	Dirección del viento	1.61
5631	7	Sololá	701	Sololá	1	Sololá	2	Febrero	2023-10-02T00:00:00	2024-11-08T02:00:00	1	Precipitación	0
5632	7	Sololá	701	Sololá	1	Sololá	2	Febrero	2023-10-02T00:00:00	2024-11-08T02:00:00	8	Radiación solar	0
5633	7	Sololá	701	Sololá	1	Sololá	2	Febrero	2023-10-02T00:00:00	2024-11-08T03:00:00	2	Temperatura media	12.7
5634	7	Sololá	701	Sololá	1	Sololá	2	Febrero	2023-10-02T00:00:00	2024-11-08T03:00:00	4	Temperatura máxima	13.3
5635	7	Sololá	701	Sololá	1	Sololá	2	Febrero	2023-10-02T00:00:00	2024-11-08T03:00:00	3	Temperatura mínima	11.4
5636	7	Sololá	701	Sololá	1	Sololá	2	Febrero	2023-10-02T00:00:00	2024-11-08T03:00:00	5	Humedad	79
5637	7	Sololá	701	Sololá	1	Sololá	2	Febrero	2023-10-02T00:00:00	2024-11-08T03:00:00	6	Velocidad del viento	6.4
5638	7	Sololá	701	Sololá	1	Sololá	2	Febrero	2023-10-02T00:00:00	2024-11-08T03:00:00	7	Dirección del viento	6.44
5639	7	Sololá	701	Sololá	1	Sololá	2	Febrero	2023-10-02T00:00:00	2024-11-08T03:00:00	1	Precipitación	0
5640	7	Sololá	701	Sololá	1	Sololá	2	Febrero	2023-10-02T00:00:00	2024-11-08T03:00:00	8	Radiación solar	0
5641	7	Sololá	701	Sololá	1	Sololá	2	Febrero	2023-10-02T00:00:00	2024-11-08T04:00:00	2	Temperatura media	10.7
5642	7	Sololá	701	Sololá	1	Sololá	2	Febrero	2023-10-02T00:00:00	2024-11-08T04:00:00	4	Temperatura máxima	13.2
5643	7	Sololá	701	Sololá	1	Sololá	2	Febrero	2023-10-02T00:00:00	2024-11-08T04:00:00	3	Temperatura mínima	10.7
5644	7	Sololá	701	Sololá	1	Sololá	2	Febrero	2023-10-02T00:00:00	2024-11-08T04:00:00	5	Humedad	76
5645	7	Sololá	701	Sololá	1	Sololá	2	Febrero	2023-10-02T00:00:00	2024-11-08T04:00:00	6	Velocidad del viento	9.7
5646	7	Sololá	701	Sololá	1	Sololá	2	Febrero	2023-10-02T00:00:00	2024-11-08T04:00:00	7	Dirección del viento	9.66
5647	7	Sololá	701	Sololá	1	Sololá	2	Febrero	2023-10-02T00:00:00	2024-11-08T04:00:00	1	Precipitación	0
5648	7	Sololá	701	Sololá	1	Sololá	2	Febrero	2023-10-02T00:00:00	2024-11-08T04:00:00	8	Radiación solar	0
5649	7	Sololá	701	Sololá	1	Sololá	2	Febrero	2023-10-02T00:00:00	2024-11-08T05:00:00	2	Temperatura media	9.4
5650	7	Sololá	701	Sololá	1	Sololá	2	Febrero	2023-10-02T00:00:00	2024-11-08T05:00:00	4	Temperatura máxima	11.1
5651	7	Sololá	701	Sololá	1	Sololá	2	Febrero	2023-10-02T00:00:00	2024-11-08T05:00:00	3	Temperatura mínima	9.4
5652	7	Sololá	701	Sololá	1	Sololá	2	Febrero	2023-10-02T00:00:00	2024-11-08T05:00:00	5	Humedad	78
5653	7	Sololá	701	Sololá	1	Sololá	2	Febrero	2023-10-02T00:00:00	2024-11-08T05:00:00	6	Velocidad del viento	9.7
5654	7	Sololá	701	Sololá	1	Sololá	2	Febrero	2023-10-02T00:00:00	2024-11-08T05:00:00	7	Dirección del viento	9.66
5655	7	Sololá	701	Sololá	1	Sololá	2	Febrero	2023-10-02T00:00:00	2024-11-08T05:00:00	1	Precipitación	0
5656	7	Sololá	701	Sololá	1	Sololá	2	Febrero	2023-10-02T00:00:00	2024-11-08T05:00:00	8	Radiación solar	0
5657	7	Sololá	701	Sololá	1	Sololá	2	Febrero	2023-10-02T00:00:00	2024-11-08T06:00:00	2	Temperatura media	9
5658	7	Sololá	701	Sololá	1	Sololá	2	Febrero	2023-10-02T00:00:00	2024-11-08T06:00:00	4	Temperatura máxima	9.4
5659	7	Sololá	701	Sololá	1	Sololá	2	Febrero	2023-10-02T00:00:00	2024-11-08T06:00:00	3	Temperatura mínima	9
5660	7	Sololá	701	Sololá	1	Sololá	2	Febrero	2023-10-02T00:00:00	2024-11-08T06:00:00	5	Humedad	77
5661	7	Sololá	701	Sololá	1	Sololá	2	Febrero	2023-10-02T00:00:00	2024-11-08T06:00:00	6	Velocidad del viento	9.7
5662	7	Sololá	701	Sololá	1	Sololá	2	Febrero	2023-10-02T00:00:00	2024-11-08T06:00:00	7	Dirección del viento	9.66
5663	7	Sololá	701	Sololá	1	Sololá	2	Febrero	2023-10-02T00:00:00	2024-11-08T06:00:00	1	Precipitación	0
5664	7	Sololá	701	Sololá	1	Sololá	2	Febrero	2023-10-02T00:00:00	2024-11-08T06:00:00	8	Radiación solar	0
5665	7	Sololá	701	Sololá	1	Sololá	2	Febrero	2023-10-02T00:00:00	2024-11-08T07:00:00	2	Temperatura media	9.6
5666	7	Sololá	701	Sololá	1	Sololá	2	Febrero	2023-10-02T00:00:00	2024-11-08T07:00:00	4	Temperatura máxima	9.6
5667	7	Sololá	701	Sololá	1	Sololá	2	Febrero	2023-10-02T00:00:00	2024-11-08T07:00:00	3	Temperatura mínima	8.8
5668	7	Sololá	701	Sololá	1	Sololá	2	Febrero	2023-10-02T00:00:00	2024-11-08T07:00:00	5	Humedad	78
5669	7	Sololá	701	Sololá	1	Sololá	2	Febrero	2023-10-02T00:00:00	2024-11-08T07:00:00	6	Velocidad del viento	11.3
5670	7	Sololá	701	Sololá	1	Sololá	2	Febrero	2023-10-02T00:00:00	2024-11-08T07:00:00	7	Dirección del viento	11.27
5671	7	Sololá	701	Sololá	1	Sololá	2	Febrero	2023-10-02T00:00:00	2024-11-08T07:00:00	1	Precipitación	0
5672	7	Sololá	701	Sololá	1	Sololá	2	Febrero	2023-10-02T00:00:00	2024-11-08T07:00:00	8	Radiación solar	4
5673	7	Sololá	701	Sololá	1	Sololá	2	Febrero	2023-10-02T00:00:00	2024-11-08T08:00:00	2	Temperatura media	15.5
5674	7	Sololá	701	Sololá	1	Sololá	2	Febrero	2023-10-02T00:00:00	2024-11-08T08:00:00	4	Temperatura máxima	15.5
5675	7	Sololá	701	Sololá	1	Sololá	2	Febrero	2023-10-02T00:00:00	2024-11-08T08:00:00	3	Temperatura mínima	9.5
5676	7	Sololá	701	Sololá	1	Sololá	2	Febrero	2023-10-02T00:00:00	2024-11-08T08:00:00	5	Humedad	57
5677	7	Sololá	701	Sololá	1	Sololá	2	Febrero	2023-10-02T00:00:00	2024-11-08T08:00:00	6	Velocidad del viento	8
5678	7	Sololá	701	Sololá	1	Sololá	2	Febrero	2023-10-02T00:00:00	2024-11-08T08:00:00	7	Dirección del viento	8.05
5679	7	Sololá	701	Sololá	1	Sololá	2	Febrero	2023-10-02T00:00:00	2024-11-08T08:00:00	1	Precipitación	0
5680	7	Sololá	701	Sololá	1	Sololá	2	Febrero	2023-10-02T00:00:00	2024-11-08T08:00:00	8	Radiación solar	41
5681	7	Sololá	701	Sololá	1	Sololá	2	Febrero	2023-10-02T00:00:00	2024-11-08T09:00:00	2	Temperatura media	17.7
5682	7	Sololá	701	Sololá	1	Sololá	2	Febrero	2023-10-02T00:00:00	2024-11-08T09:00:00	4	Temperatura máxima	17.7
5683	7	Sololá	701	Sololá	1	Sololá	2	Febrero	2023-10-02T00:00:00	2024-11-08T09:00:00	3	Temperatura mínima	15.5
5684	7	Sololá	701	Sololá	1	Sololá	2	Febrero	2023-10-02T00:00:00	2024-11-08T09:00:00	5	Humedad	49
5685	7	Sololá	701	Sololá	1	Sololá	2	Febrero	2023-10-02T00:00:00	2024-11-08T09:00:00	6	Velocidad del viento	9.7
5686	7	Sololá	701	Sololá	1	Sololá	2	Febrero	2023-10-02T00:00:00	2024-11-08T09:00:00	7	Dirección del viento	9.66
5687	7	Sololá	701	Sololá	1	Sololá	2	Febrero	2023-10-02T00:00:00	2024-11-08T09:00:00	1	Precipitación	0
5688	7	Sololá	701	Sololá	1	Sololá	2	Febrero	2023-10-02T00:00:00	2024-11-08T09:00:00	8	Radiación solar	438
5689	7	Sololá	701	Sololá	1	Sololá	2	Febrero	2023-10-02T00:00:00	2024-11-08T10:00:00	2	Temperatura media	18.9
5690	7	Sololá	701	Sololá	1	Sololá	2	Febrero	2023-10-02T00:00:00	2024-11-08T10:00:00	4	Temperatura máxima	19.2
5691	7	Sololá	701	Sololá	1	Sololá	2	Febrero	2023-10-02T00:00:00	2024-11-08T10:00:00	3	Temperatura mínima	17.6
5692	7	Sololá	701	Sololá	1	Sololá	2	Febrero	2023-10-02T00:00:00	2024-11-08T10:00:00	5	Humedad	47
5693	7	Sololá	701	Sololá	1	Sololá	2	Febrero	2023-10-02T00:00:00	2024-11-08T10:00:00	6	Velocidad del viento	8
5694	7	Sololá	701	Sololá	1	Sololá	2	Febrero	2023-10-02T00:00:00	2024-11-08T10:00:00	7	Dirección del viento	8.05
5695	7	Sololá	701	Sololá	1	Sololá	2	Febrero	2023-10-02T00:00:00	2024-11-08T10:00:00	1	Precipitación	0
5696	7	Sololá	701	Sololá	1	Sololá	2	Febrero	2023-10-02T00:00:00	2024-11-08T10:00:00	8	Radiación solar	658
5697	7	Sololá	701	Sololá	1	Sololá	2	Febrero	2023-10-02T00:00:00	2024-11-08T11:00:00	2	Temperatura media	20.7
5698	7	Sololá	701	Sololá	1	Sololá	2	Febrero	2023-10-02T00:00:00	2024-11-08T11:00:00	4	Temperatura máxima	20.7
5699	7	Sololá	701	Sololá	1	Sololá	2	Febrero	2023-10-02T00:00:00	2024-11-08T11:00:00	3	Temperatura mínima	18.9
5700	7	Sololá	701	Sololá	1	Sololá	2	Febrero	2023-10-02T00:00:00	2024-11-08T11:00:00	5	Humedad	41
5701	7	Sololá	701	Sololá	1	Sololá	2	Febrero	2023-10-02T00:00:00	2024-11-08T11:00:00	6	Velocidad del viento	12.9
5702	7	Sololá	701	Sololá	1	Sololá	2	Febrero	2023-10-02T00:00:00	2024-11-08T11:00:00	7	Dirección del viento	12.87
5703	7	Sololá	701	Sololá	1	Sololá	2	Febrero	2023-10-02T00:00:00	2024-11-08T11:00:00	1	Precipitación	0
5704	7	Sololá	701	Sololá	1	Sololá	2	Febrero	2023-10-02T00:00:00	2024-11-08T11:00:00	8	Radiación solar	810
5705	7	Sololá	701	Sololá	1	Sololá	2	Febrero	2023-10-02T00:00:00	2024-11-08T12:00:00	2	Temperatura media	21.3
5706	7	Sololá	701	Sololá	1	Sololá	2	Febrero	2023-10-02T00:00:00	2024-11-08T12:00:00	4	Temperatura máxima	22
5707	7	Sololá	701	Sololá	1	Sololá	2	Febrero	2023-10-02T00:00:00	2024-11-08T12:00:00	3	Temperatura mínima	20.4
5708	7	Sololá	701	Sololá	1	Sololá	2	Febrero	2023-10-02T00:00:00	2024-11-08T12:00:00	5	Humedad	46
5709	7	Sololá	701	Sololá	1	Sololá	2	Febrero	2023-10-02T00:00:00	2024-11-08T12:00:00	6	Velocidad del viento	9.7
5710	7	Sololá	701	Sololá	1	Sololá	2	Febrero	2023-10-02T00:00:00	2024-11-08T12:00:00	7	Dirección del viento	9.66
5711	7	Sololá	701	Sololá	1	Sololá	2	Febrero	2023-10-02T00:00:00	2024-11-08T12:00:00	1	Precipitación	0
5712	7	Sololá	701	Sololá	1	Sololá	2	Febrero	2023-10-02T00:00:00	2024-11-08T12:00:00	8	Radiación solar	885
5713	7	Sololá	701	Sololá	1	Sololá	2	Febrero	2023-10-02T00:00:00	2024-11-08T13:00:00	2	Temperatura media	20.3
5714	7	Sololá	701	Sololá	1	Sololá	2	Febrero	2023-10-02T00:00:00	2024-11-08T13:00:00	4	Temperatura máxima	21.7
5715	7	Sololá	701	Sololá	1	Sololá	2	Febrero	2023-10-02T00:00:00	2024-11-08T13:00:00	3	Temperatura mínima	20.3
5716	7	Sololá	701	Sololá	1	Sololá	2	Febrero	2023-10-02T00:00:00	2024-11-08T13:00:00	5	Humedad	64
5717	7	Sololá	701	Sololá	1	Sololá	2	Febrero	2023-10-02T00:00:00	2024-11-08T13:00:00	6	Velocidad del viento	9.7
5718	7	Sololá	701	Sololá	1	Sololá	2	Febrero	2023-10-02T00:00:00	2024-11-08T13:00:00	7	Dirección del viento	9.66
5719	7	Sololá	701	Sololá	1	Sololá	2	Febrero	2023-10-02T00:00:00	2024-11-08T13:00:00	1	Precipitación	0
5720	7	Sololá	701	Sololá	1	Sololá	2	Febrero	2023-10-02T00:00:00	2024-11-08T13:00:00	8	Radiación solar	915
5721	7	Sololá	701	Sololá	1	Sololá	2	Febrero	2023-10-02T00:00:00	2024-11-08T14:00:00	2	Temperatura media	20.2
5722	7	Sololá	701	Sololá	1	Sololá	2	Febrero	2023-10-02T00:00:00	2024-11-08T14:00:00	4	Temperatura máxima	20.8
5723	7	Sololá	701	Sololá	1	Sololá	2	Febrero	2023-10-02T00:00:00	2024-11-08T14:00:00	3	Temperatura mínima	20.2
5724	7	Sololá	701	Sololá	1	Sololá	2	Febrero	2023-10-02T00:00:00	2024-11-08T14:00:00	5	Humedad	70
5725	7	Sololá	701	Sololá	1	Sololá	2	Febrero	2023-10-02T00:00:00	2024-11-08T14:00:00	6	Velocidad del viento	9.7
5726	7	Sololá	701	Sololá	1	Sololá	2	Febrero	2023-10-02T00:00:00	2024-11-08T14:00:00	7	Dirección del viento	9.66
5727	7	Sololá	701	Sololá	1	Sololá	2	Febrero	2023-10-02T00:00:00	2024-11-08T14:00:00	1	Precipitación	0
5728	7	Sololá	701	Sololá	1	Sololá	2	Febrero	2023-10-02T00:00:00	2024-11-08T14:00:00	8	Radiación solar	552
5729	7	Sololá	701	Sololá	1	Sololá	2	Febrero	2023-10-02T00:00:00	2024-11-08T15:00:00	2	Temperatura media	20.3
5730	7	Sololá	701	Sololá	1	Sololá	2	Febrero	2023-10-02T00:00:00	2024-11-08T15:00:00	4	Temperatura máxima	20.5
5731	7	Sololá	701	Sololá	1	Sololá	2	Febrero	2023-10-02T00:00:00	2024-11-08T15:00:00	3	Temperatura mínima	19.8
5732	7	Sololá	701	Sololá	1	Sololá	2	Febrero	2023-10-02T00:00:00	2024-11-08T15:00:00	5	Humedad	71
5733	7	Sololá	701	Sololá	1	Sololá	2	Febrero	2023-10-02T00:00:00	2024-11-08T15:00:00	6	Velocidad del viento	8
5734	7	Sololá	701	Sololá	1	Sololá	2	Febrero	2023-10-02T00:00:00	2024-11-08T15:00:00	7	Dirección del viento	8.05
5735	7	Sololá	701	Sololá	1	Sololá	2	Febrero	2023-10-02T00:00:00	2024-11-08T15:00:00	1	Precipitación	0
5736	7	Sololá	701	Sololá	1	Sololá	2	Febrero	2023-10-02T00:00:00	2024-11-08T15:00:00	8	Radiación solar	178
5737	7	Sololá	701	Sololá	1	Sololá	2	Febrero	2023-10-02T00:00:00	2024-11-08T16:00:00	2	Temperatura media	19.8
5738	7	Sololá	701	Sololá	1	Sololá	2	Febrero	2023-10-02T00:00:00	2024-11-08T16:00:00	4	Temperatura máxima	20.5
5739	7	Sololá	701	Sololá	1	Sololá	2	Febrero	2023-10-02T00:00:00	2024-11-08T16:00:00	3	Temperatura mínima	19.7
5740	7	Sololá	701	Sololá	1	Sololá	2	Febrero	2023-10-02T00:00:00	2024-11-08T16:00:00	5	Humedad	73
5741	7	Sololá	701	Sololá	1	Sololá	2	Febrero	2023-10-02T00:00:00	2024-11-08T16:00:00	6	Velocidad del viento	8
5742	7	Sololá	701	Sololá	1	Sololá	2	Febrero	2023-10-02T00:00:00	2024-11-08T16:00:00	7	Dirección del viento	8.05
5743	7	Sololá	701	Sololá	1	Sololá	2	Febrero	2023-10-02T00:00:00	2024-11-08T16:00:00	1	Precipitación	0
5744	7	Sololá	701	Sololá	1	Sololá	2	Febrero	2023-10-02T00:00:00	2024-11-08T16:00:00	8	Radiación solar	70
5745	7	Sololá	701	Sololá	1	Sololá	2	Febrero	2023-10-02T00:00:00	2024-11-08T17:00:00	2	Temperatura media	18.6
5746	7	Sololá	701	Sololá	1	Sololá	2	Febrero	2023-10-02T00:00:00	2024-11-08T17:00:00	4	Temperatura máxima	19.9
5747	7	Sololá	701	Sololá	1	Sololá	2	Febrero	2023-10-02T00:00:00	2024-11-08T17:00:00	3	Temperatura mínima	18.6
5748	7	Sololá	701	Sololá	1	Sololá	2	Febrero	2023-10-02T00:00:00	2024-11-08T17:00:00	5	Humedad	78
5749	7	Sololá	701	Sololá	1	Sololá	2	Febrero	2023-10-02T00:00:00	2024-11-08T17:00:00	6	Velocidad del viento	6.4
5750	7	Sololá	701	Sololá	1	Sololá	2	Febrero	2023-10-02T00:00:00	2024-11-08T17:00:00	7	Dirección del viento	6.44
5751	7	Sololá	701	Sololá	1	Sololá	2	Febrero	2023-10-02T00:00:00	2024-11-08T17:00:00	1	Precipitación	0
5752	7	Sololá	701	Sololá	1	Sololá	2	Febrero	2023-10-02T00:00:00	2024-11-08T17:00:00	8	Radiación solar	19
5753	7	Sololá	701	Sololá	1	Sololá	2	Febrero	2023-10-02T00:00:00	2024-11-08T18:00:00	2	Temperatura media	17.6
5754	7	Sololá	701	Sololá	1	Sololá	2	Febrero	2023-10-02T00:00:00	2024-11-08T18:00:00	4	Temperatura máxima	18.9
5755	7	Sololá	701	Sololá	1	Sololá	2	Febrero	2023-10-02T00:00:00	2024-11-08T18:00:00	3	Temperatura mínima	17.6
5756	7	Sololá	701	Sololá	1	Sololá	2	Febrero	2023-10-02T00:00:00	2024-11-08T18:00:00	5	Humedad	83
5757	7	Sololá	701	Sololá	1	Sololá	2	Febrero	2023-10-02T00:00:00	2024-11-08T18:00:00	6	Velocidad del viento	3.2
5758	7	Sololá	701	Sololá	1	Sololá	2	Febrero	2023-10-02T00:00:00	2024-11-08T18:00:00	7	Dirección del viento	3.22
5759	7	Sololá	701	Sololá	1	Sololá	2	Febrero	2023-10-02T00:00:00	2024-11-08T18:00:00	1	Precipitación	0
5760	7	Sololá	701	Sololá	1	Sololá	2	Febrero	2023-10-02T00:00:00	2024-11-08T18:00:00	8	Radiación solar	0
5761	7	Sololá	701	Sololá	1	Sololá	2	Febrero	2023-10-02T00:00:00	2024-11-08T19:00:00	2	Temperatura media	16.4
5762	7	Sololá	701	Sololá	1	Sololá	2	Febrero	2023-10-02T00:00:00	2024-11-08T19:00:00	4	Temperatura máxima	17.6
5763	7	Sololá	701	Sololá	1	Sololá	2	Febrero	2023-10-02T00:00:00	2024-11-08T19:00:00	3	Temperatura mínima	15.9
5764	7	Sololá	701	Sololá	1	Sololá	2	Febrero	2023-10-02T00:00:00	2024-11-08T19:00:00	5	Humedad	76
5765	7	Sololá	701	Sololá	1	Sololá	2	Febrero	2023-10-02T00:00:00	2024-11-08T19:00:00	6	Velocidad del viento	4.8
5766	7	Sololá	701	Sololá	1	Sololá	2	Febrero	2023-10-02T00:00:00	2024-11-08T19:00:00	7	Dirección del viento	4.83
5767	7	Sololá	701	Sololá	1	Sololá	2	Febrero	2023-10-02T00:00:00	2024-11-08T19:00:00	1	Precipitación	0
5768	7	Sololá	701	Sololá	1	Sololá	2	Febrero	2023-10-02T00:00:00	2024-11-08T19:00:00	8	Radiación solar	0
5769	7	Sololá	701	Sololá	1	Sololá	2	Febrero	2023-10-02T00:00:00	2024-11-08T20:00:00	2	Temperatura media	15.7
5770	7	Sololá	701	Sololá	1	Sololá	2	Febrero	2023-10-02T00:00:00	2024-11-08T20:00:00	4	Temperatura máxima	16.4
5771	7	Sololá	701	Sololá	1	Sololá	2	Febrero	2023-10-02T00:00:00	2024-11-08T20:00:00	3	Temperatura mínima	15.7
5772	7	Sololá	701	Sololá	1	Sololá	2	Febrero	2023-10-02T00:00:00	2024-11-08T20:00:00	5	Humedad	77
5773	7	Sololá	701	Sololá	1	Sololá	2	Febrero	2023-10-02T00:00:00	2024-11-08T20:00:00	6	Velocidad del viento	6.4
5774	7	Sololá	701	Sololá	1	Sololá	2	Febrero	2023-10-02T00:00:00	2024-11-08T20:00:00	7	Dirección del viento	6.44
5775	7	Sololá	701	Sololá	1	Sololá	2	Febrero	2023-10-02T00:00:00	2024-11-08T20:00:00	1	Precipitación	0
5776	7	Sololá	701	Sololá	1	Sololá	2	Febrero	2023-10-02T00:00:00	2024-11-08T20:00:00	8	Radiación solar	0
5777	7	Sololá	701	Sololá	1	Sololá	2	Febrero	2023-10-02T00:00:00	2024-11-08T21:00:00	2	Temperatura media	15.1
5778	7	Sololá	701	Sololá	1	Sololá	2	Febrero	2023-10-02T00:00:00	2024-11-08T21:00:00	4	Temperatura máxima	15.7
5779	7	Sololá	701	Sololá	1	Sololá	2	Febrero	2023-10-02T00:00:00	2024-11-08T21:00:00	3	Temperatura mínima	15.1
5780	7	Sololá	701	Sololá	1	Sololá	2	Febrero	2023-10-02T00:00:00	2024-11-08T21:00:00	5	Humedad	76
5781	7	Sololá	701	Sololá	1	Sololá	2	Febrero	2023-10-02T00:00:00	2024-11-08T21:00:00	6	Velocidad del viento	8
5782	7	Sololá	701	Sololá	1	Sololá	2	Febrero	2023-10-02T00:00:00	2024-11-08T21:00:00	7	Dirección del viento	8.05
5783	7	Sololá	701	Sololá	1	Sololá	2	Febrero	2023-10-02T00:00:00	2024-11-08T21:00:00	1	Precipitación	0
5784	7	Sololá	701	Sololá	1	Sololá	2	Febrero	2023-10-02T00:00:00	2024-11-08T21:00:00	8	Radiación solar	0
5785	7	Sololá	701	Sololá	1	Sololá	2	Febrero	2023-10-02T00:00:00	2024-11-08T22:00:00	2	Temperatura media	14.3
5786	7	Sololá	701	Sololá	1	Sololá	2	Febrero	2023-10-02T00:00:00	2024-11-08T22:00:00	4	Temperatura máxima	15.1
5787	7	Sololá	701	Sololá	1	Sololá	2	Febrero	2023-10-02T00:00:00	2024-11-08T22:00:00	3	Temperatura mínima	14.3
5788	7	Sololá	701	Sololá	1	Sololá	2	Febrero	2023-10-02T00:00:00	2024-11-08T22:00:00	5	Humedad	76
5789	7	Sololá	701	Sololá	1	Sololá	2	Febrero	2023-10-02T00:00:00	2024-11-08T22:00:00	6	Velocidad del viento	11.3
5790	7	Sololá	701	Sololá	1	Sololá	2	Febrero	2023-10-02T00:00:00	2024-11-08T22:00:00	7	Dirección del viento	11.27
5791	7	Sololá	701	Sololá	1	Sololá	2	Febrero	2023-10-02T00:00:00	2024-11-08T22:00:00	1	Precipitación	0
5792	7	Sololá	701	Sololá	1	Sololá	2	Febrero	2023-10-02T00:00:00	2024-11-08T22:00:00	8	Radiación solar	0
5793	7	Sololá	701	Sololá	1	Sololá	2	Febrero	2023-10-02T00:00:00	2024-11-08T23:00:00	2	Temperatura media	14.1
5794	7	Sololá	701	Sololá	1	Sololá	2	Febrero	2023-10-02T00:00:00	2024-11-08T23:00:00	4	Temperatura máxima	14.3
5795	7	Sololá	701	Sololá	1	Sololá	2	Febrero	2023-10-02T00:00:00	2024-11-08T23:00:00	3	Temperatura mínima	14.1
5796	7	Sololá	701	Sololá	1	Sololá	2	Febrero	2023-10-02T00:00:00	2024-11-08T23:00:00	5	Humedad	75
5797	7	Sololá	701	Sololá	1	Sololá	2	Febrero	2023-10-02T00:00:00	2024-11-08T23:00:00	6	Velocidad del viento	9.7
5798	7	Sololá	701	Sololá	1	Sololá	2	Febrero	2023-10-02T00:00:00	2024-11-08T23:00:00	7	Dirección del viento	9.66
5799	7	Sololá	701	Sololá	1	Sololá	2	Febrero	2023-10-02T00:00:00	2024-11-08T23:00:00	1	Precipitación	0
5800	7	Sololá	701	Sololá	1	Sololá	2	Febrero	2023-10-02T00:00:00	2024-11-08T23:00:00	8	Radiación solar	0
5801	7	Sololá	701	Sololá	1	Sololá	2	Febrero	2023-11-02T00:00:00	2024-11-08T00:00:00	2	Temperatura media	14.1
5802	7	Sololá	701	Sololá	1	Sololá	2	Febrero	2023-11-02T00:00:00	2024-11-08T00:00:00	4	Temperatura máxima	14.2
5803	7	Sololá	701	Sololá	1	Sololá	2	Febrero	2023-11-02T00:00:00	2024-11-08T00:00:00	3	Temperatura mínima	13.9
5804	7	Sololá	701	Sololá	1	Sololá	2	Febrero	2023-11-02T00:00:00	2024-11-08T00:00:00	5	Humedad	73
5805	7	Sololá	701	Sololá	1	Sololá	2	Febrero	2023-11-02T00:00:00	2024-11-08T00:00:00	6	Velocidad del viento	17.7
5806	7	Sololá	701	Sololá	1	Sololá	2	Febrero	2023-11-02T00:00:00	2024-11-08T00:00:00	7	Dirección del viento	17.7
5807	7	Sololá	701	Sololá	1	Sololá	2	Febrero	2023-11-02T00:00:00	2024-11-08T00:00:00	1	Precipitación	0
5808	7	Sololá	701	Sololá	1	Sololá	2	Febrero	2023-11-02T00:00:00	2024-11-08T00:00:00	8	Radiación solar	0
5809	7	Sololá	701	Sololá	1	Sololá	2	Febrero	2023-11-02T00:00:00	2024-11-08T01:00:00	2	Temperatura media	14.2
5810	7	Sololá	701	Sololá	1	Sololá	2	Febrero	2023-11-02T00:00:00	2024-11-08T01:00:00	4	Temperatura máxima	14.3
5811	7	Sololá	701	Sololá	1	Sololá	2	Febrero	2023-11-02T00:00:00	2024-11-08T01:00:00	3	Temperatura mínima	14
5812	7	Sololá	701	Sololá	1	Sololá	2	Febrero	2023-11-02T00:00:00	2024-11-08T01:00:00	5	Humedad	72
5813	7	Sololá	701	Sololá	1	Sololá	2	Febrero	2023-11-02T00:00:00	2024-11-08T01:00:00	6	Velocidad del viento	17.7
5814	7	Sololá	701	Sololá	1	Sololá	2	Febrero	2023-11-02T00:00:00	2024-11-08T01:00:00	7	Dirección del viento	17.7
5815	7	Sololá	701	Sololá	1	Sololá	2	Febrero	2023-11-02T00:00:00	2024-11-08T01:00:00	1	Precipitación	0
5816	7	Sololá	701	Sololá	1	Sololá	2	Febrero	2023-11-02T00:00:00	2024-11-08T01:00:00	8	Radiación solar	0
5817	7	Sololá	701	Sololá	1	Sololá	2	Febrero	2023-11-02T00:00:00	2024-11-08T02:00:00	2	Temperatura media	14.3
5818	7	Sololá	701	Sololá	1	Sololá	2	Febrero	2023-11-02T00:00:00	2024-11-08T02:00:00	4	Temperatura máxima	14.4
5819	7	Sololá	701	Sololá	1	Sololá	2	Febrero	2023-11-02T00:00:00	2024-11-08T02:00:00	3	Temperatura mínima	14.1
5820	7	Sololá	701	Sololá	1	Sololá	2	Febrero	2023-11-02T00:00:00	2024-11-08T02:00:00	5	Humedad	68
5821	7	Sololá	701	Sololá	1	Sololá	2	Febrero	2023-11-02T00:00:00	2024-11-08T02:00:00	6	Velocidad del viento	12.9
5822	7	Sololá	701	Sololá	1	Sololá	2	Febrero	2023-11-02T00:00:00	2024-11-08T02:00:00	7	Dirección del viento	12.87
5823	7	Sololá	701	Sololá	1	Sololá	2	Febrero	2023-11-02T00:00:00	2024-11-08T02:00:00	1	Precipitación	0
5824	7	Sololá	701	Sololá	1	Sololá	2	Febrero	2023-11-02T00:00:00	2024-11-08T02:00:00	8	Radiación solar	0
5825	7	Sololá	701	Sololá	1	Sololá	2	Febrero	2023-11-02T00:00:00	2024-11-08T03:00:00	2	Temperatura media	13.9
5826	7	Sololá	701	Sololá	1	Sololá	2	Febrero	2023-11-02T00:00:00	2024-11-08T03:00:00	4	Temperatura máxima	14.5
5827	7	Sololá	701	Sololá	1	Sololá	2	Febrero	2023-11-02T00:00:00	2024-11-08T03:00:00	3	Temperatura mínima	13
5828	7	Sololá	701	Sololá	1	Sololá	2	Febrero	2023-11-02T00:00:00	2024-11-08T03:00:00	5	Humedad	67
5829	7	Sololá	701	Sololá	1	Sololá	2	Febrero	2023-11-02T00:00:00	2024-11-08T03:00:00	6	Velocidad del viento	4.8
5830	7	Sololá	701	Sololá	1	Sololá	2	Febrero	2023-11-02T00:00:00	2024-11-08T03:00:00	7	Dirección del viento	4.83
5831	7	Sololá	701	Sololá	1	Sololá	2	Febrero	2023-11-02T00:00:00	2024-11-08T03:00:00	1	Precipitación	0
5832	7	Sololá	701	Sololá	1	Sololá	2	Febrero	2023-11-02T00:00:00	2024-11-08T03:00:00	8	Radiación solar	0
5833	7	Sololá	701	Sololá	1	Sololá	2	Febrero	2023-11-02T00:00:00	2024-11-08T04:00:00	2	Temperatura media	14.2
5834	7	Sololá	701	Sololá	1	Sololá	2	Febrero	2023-11-02T00:00:00	2024-11-08T04:00:00	4	Temperatura máxima	14.2
5835	7	Sololá	701	Sololá	1	Sololá	2	Febrero	2023-11-02T00:00:00	2024-11-08T04:00:00	3	Temperatura mínima	13.8
5836	7	Sololá	701	Sololá	1	Sololá	2	Febrero	2023-11-02T00:00:00	2024-11-08T04:00:00	5	Humedad	59
5837	7	Sololá	701	Sololá	1	Sololá	2	Febrero	2023-11-02T00:00:00	2024-11-08T04:00:00	6	Velocidad del viento	9.7
5838	7	Sololá	701	Sololá	1	Sololá	2	Febrero	2023-11-02T00:00:00	2024-11-08T04:00:00	7	Dirección del viento	9.66
5839	7	Sololá	701	Sololá	1	Sololá	2	Febrero	2023-11-02T00:00:00	2024-11-08T04:00:00	1	Precipitación	0
5840	7	Sololá	701	Sololá	1	Sololá	2	Febrero	2023-11-02T00:00:00	2024-11-08T04:00:00	8	Radiación solar	0
5841	7	Sololá	701	Sololá	1	Sololá	2	Febrero	2023-11-02T00:00:00	2024-11-08T05:00:00	2	Temperatura media	14.3
5842	7	Sololá	701	Sololá	1	Sololá	2	Febrero	2023-11-02T00:00:00	2024-11-08T05:00:00	4	Temperatura máxima	14.4
5843	7	Sololá	701	Sololá	1	Sololá	2	Febrero	2023-11-02T00:00:00	2024-11-08T05:00:00	3	Temperatura mínima	14.2
5844	7	Sololá	701	Sololá	1	Sololá	2	Febrero	2023-11-02T00:00:00	2024-11-08T05:00:00	5	Humedad	48
5845	7	Sololá	701	Sololá	1	Sololá	2	Febrero	2023-11-02T00:00:00	2024-11-08T05:00:00	6	Velocidad del viento	9.7
5846	7	Sololá	701	Sololá	1	Sololá	2	Febrero	2023-11-02T00:00:00	2024-11-08T05:00:00	7	Dirección del viento	9.66
5847	7	Sololá	701	Sololá	1	Sololá	2	Febrero	2023-11-02T00:00:00	2024-11-08T05:00:00	1	Precipitación	0
5848	7	Sololá	701	Sololá	1	Sololá	2	Febrero	2023-11-02T00:00:00	2024-11-08T05:00:00	8	Radiación solar	0
5849	7	Sololá	701	Sololá	1	Sololá	2	Febrero	2023-11-02T00:00:00	2024-11-08T06:00:00	2	Temperatura media	13.2
5850	7	Sololá	701	Sololá	1	Sololá	2	Febrero	2023-11-02T00:00:00	2024-11-08T06:00:00	4	Temperatura máxima	14.3
5851	7	Sololá	701	Sololá	1	Sololá	2	Febrero	2023-11-02T00:00:00	2024-11-08T06:00:00	3	Temperatura mínima	13.2
5852	7	Sololá	701	Sololá	1	Sololá	2	Febrero	2023-11-02T00:00:00	2024-11-08T06:00:00	5	Humedad	56
5853	7	Sololá	701	Sololá	1	Sololá	2	Febrero	2023-11-02T00:00:00	2024-11-08T06:00:00	6	Velocidad del viento	3.2
5854	7	Sololá	701	Sololá	1	Sololá	2	Febrero	2023-11-02T00:00:00	2024-11-08T06:00:00	7	Dirección del viento	3.22
5855	7	Sololá	701	Sololá	1	Sololá	2	Febrero	2023-11-02T00:00:00	2024-11-08T06:00:00	1	Precipitación	0
5856	7	Sololá	701	Sololá	1	Sololá	2	Febrero	2023-11-02T00:00:00	2024-11-08T06:00:00	8	Radiación solar	0
5857	7	Sololá	701	Sololá	1	Sololá	2	Febrero	2023-11-02T00:00:00	2024-11-08T07:00:00	2	Temperatura media	14.8
5858	7	Sololá	701	Sololá	1	Sololá	2	Febrero	2023-11-02T00:00:00	2024-11-08T07:00:00	4	Temperatura máxima	14.8
5859	7	Sololá	701	Sololá	1	Sololá	2	Febrero	2023-11-02T00:00:00	2024-11-08T07:00:00	3	Temperatura mínima	13.1
5860	7	Sololá	701	Sololá	1	Sololá	2	Febrero	2023-11-02T00:00:00	2024-11-08T07:00:00	5	Humedad	44
5861	7	Sololá	701	Sololá	1	Sololá	2	Febrero	2023-11-02T00:00:00	2024-11-08T07:00:00	6	Velocidad del viento	8
5862	7	Sololá	701	Sololá	1	Sololá	2	Febrero	2023-11-02T00:00:00	2024-11-08T07:00:00	7	Dirección del viento	8.05
5863	7	Sololá	701	Sololá	1	Sololá	2	Febrero	2023-11-02T00:00:00	2024-11-08T07:00:00	1	Precipitación	0
5864	7	Sololá	701	Sololá	1	Sololá	2	Febrero	2023-11-02T00:00:00	2024-11-08T07:00:00	8	Radiación solar	5
5865	7	Sololá	701	Sololá	1	Sololá	2	Febrero	2023-11-02T00:00:00	2024-11-08T08:00:00	2	Temperatura media	15.8
5866	7	Sololá	701	Sololá	1	Sololá	2	Febrero	2023-11-02T00:00:00	2024-11-08T08:00:00	4	Temperatura máxima	15.8
5867	7	Sololá	701	Sololá	1	Sololá	2	Febrero	2023-11-02T00:00:00	2024-11-08T08:00:00	3	Temperatura mínima	14.8
5868	7	Sololá	701	Sololá	1	Sololá	2	Febrero	2023-11-02T00:00:00	2024-11-08T08:00:00	5	Humedad	41
5869	7	Sololá	701	Sololá	1	Sololá	2	Febrero	2023-11-02T00:00:00	2024-11-08T08:00:00	6	Velocidad del viento	14.5
5870	7	Sololá	701	Sololá	1	Sololá	2	Febrero	2023-11-02T00:00:00	2024-11-08T08:00:00	7	Dirección del viento	14.48
5871	7	Sololá	701	Sololá	1	Sololá	2	Febrero	2023-11-02T00:00:00	2024-11-08T08:00:00	1	Precipitación	0
5872	7	Sololá	701	Sololá	1	Sololá	2	Febrero	2023-11-02T00:00:00	2024-11-08T08:00:00	8	Radiación solar	107
5873	7	Sololá	701	Sololá	1	Sololá	2	Febrero	2023-11-02T00:00:00	2024-11-08T09:00:00	2	Temperatura media	16.8
5874	7	Sololá	701	Sololá	1	Sololá	2	Febrero	2023-11-02T00:00:00	2024-11-08T09:00:00	4	Temperatura máxima	16.8
5875	7	Sololá	701	Sololá	1	Sololá	2	Febrero	2023-11-02T00:00:00	2024-11-08T09:00:00	3	Temperatura mínima	15.7
5876	7	Sololá	701	Sololá	1	Sololá	2	Febrero	2023-11-02T00:00:00	2024-11-08T09:00:00	5	Humedad	40
5877	7	Sololá	701	Sololá	1	Sololá	2	Febrero	2023-11-02T00:00:00	2024-11-08T09:00:00	6	Velocidad del viento	22.5
5878	7	Sololá	701	Sololá	1	Sololá	2	Febrero	2023-11-02T00:00:00	2024-11-08T09:00:00	7	Dirección del viento	22.53
5879	7	Sololá	701	Sololá	1	Sololá	2	Febrero	2023-11-02T00:00:00	2024-11-08T09:00:00	1	Precipitación	0
5880	7	Sololá	701	Sololá	1	Sololá	2	Febrero	2023-11-02T00:00:00	2024-11-08T09:00:00	8	Radiación solar	447
5881	7	Sololá	701	Sololá	1	Sololá	2	Febrero	2023-11-02T00:00:00	2024-11-08T10:00:00	2	Temperatura media	18.2
5882	7	Sololá	701	Sololá	1	Sololá	2	Febrero	2023-11-02T00:00:00	2024-11-08T10:00:00	4	Temperatura máxima	18.3
5883	7	Sololá	701	Sololá	1	Sololá	2	Febrero	2023-11-02T00:00:00	2024-11-08T10:00:00	3	Temperatura mínima	16.8
5884	7	Sololá	701	Sololá	1	Sololá	2	Febrero	2023-11-02T00:00:00	2024-11-08T10:00:00	5	Humedad	36
5885	7	Sololá	701	Sololá	1	Sololá	2	Febrero	2023-11-02T00:00:00	2024-11-08T10:00:00	6	Velocidad del viento	20.9
5886	7	Sololá	701	Sololá	1	Sololá	2	Febrero	2023-11-02T00:00:00	2024-11-08T10:00:00	7	Dirección del viento	20.92
5887	7	Sololá	701	Sololá	1	Sololá	2	Febrero	2023-11-02T00:00:00	2024-11-08T10:00:00	1	Precipitación	0
5888	7	Sololá	701	Sololá	1	Sololá	2	Febrero	2023-11-02T00:00:00	2024-11-08T10:00:00	8	Radiación solar	639
5889	7	Sololá	701	Sololá	1	Sololá	2	Febrero	2023-11-02T00:00:00	2024-11-08T11:00:00	2	Temperatura media	18.6
5890	7	Sololá	701	Sololá	1	Sololá	2	Febrero	2023-11-02T00:00:00	2024-11-08T11:00:00	4	Temperatura máxima	18.9
5891	7	Sololá	701	Sololá	1	Sololá	2	Febrero	2023-11-02T00:00:00	2024-11-08T11:00:00	3	Temperatura mínima	18.2
5892	7	Sololá	701	Sololá	1	Sololá	2	Febrero	2023-11-02T00:00:00	2024-11-08T11:00:00	5	Humedad	47
5893	7	Sololá	701	Sololá	1	Sololá	2	Febrero	2023-11-02T00:00:00	2024-11-08T11:00:00	6	Velocidad del viento	17.7
5894	7	Sololá	701	Sololá	1	Sololá	2	Febrero	2023-11-02T00:00:00	2024-11-08T11:00:00	7	Dirección del viento	17.7
5895	7	Sololá	701	Sololá	1	Sololá	2	Febrero	2023-11-02T00:00:00	2024-11-08T11:00:00	1	Precipitación	0
5896	7	Sololá	701	Sololá	1	Sololá	2	Febrero	2023-11-02T00:00:00	2024-11-08T11:00:00	8	Radiación solar	771
5897	7	Sololá	701	Sololá	1	Sololá	2	Febrero	2023-11-02T00:00:00	2024-11-08T12:00:00	2	Temperatura media	19.6
5898	7	Sololá	701	Sololá	1	Sololá	2	Febrero	2023-11-02T00:00:00	2024-11-08T12:00:00	4	Temperatura máxima	19.8
5899	7	Sololá	701	Sololá	1	Sololá	2	Febrero	2023-11-02T00:00:00	2024-11-08T12:00:00	3	Temperatura mínima	18.3
5900	7	Sololá	701	Sololá	1	Sololá	2	Febrero	2023-11-02T00:00:00	2024-11-08T12:00:00	5	Humedad	44
5901	7	Sololá	701	Sololá	1	Sololá	2	Febrero	2023-11-02T00:00:00	2024-11-08T12:00:00	6	Velocidad del viento	19.3
5902	7	Sololá	701	Sololá	1	Sololá	2	Febrero	2023-11-02T00:00:00	2024-11-08T12:00:00	7	Dirección del viento	19.31
5903	7	Sololá	701	Sololá	1	Sololá	2	Febrero	2023-11-02T00:00:00	2024-11-08T12:00:00	1	Precipitación	0
5904	7	Sololá	701	Sololá	1	Sololá	2	Febrero	2023-11-02T00:00:00	2024-11-08T12:00:00	8	Radiación solar	857
5905	7	Sololá	701	Sololá	1	Sololá	2	Febrero	2023-11-02T00:00:00	2024-11-08T13:00:00	2	Temperatura media	20.8
5906	7	Sololá	701	Sololá	1	Sololá	2	Febrero	2023-11-02T00:00:00	2024-11-08T13:00:00	4	Temperatura máxima	20.8
5907	7	Sololá	701	Sololá	1	Sololá	2	Febrero	2023-11-02T00:00:00	2024-11-08T13:00:00	3	Temperatura mínima	19.6
5908	7	Sololá	701	Sololá	1	Sololá	2	Febrero	2023-11-02T00:00:00	2024-11-08T13:00:00	5	Humedad	42
5909	7	Sololá	701	Sololá	1	Sololá	2	Febrero	2023-11-02T00:00:00	2024-11-08T13:00:00	6	Velocidad del viento	14.5
5910	7	Sololá	701	Sololá	1	Sololá	2	Febrero	2023-11-02T00:00:00	2024-11-08T13:00:00	7	Dirección del viento	14.48
5911	7	Sololá	701	Sololá	1	Sololá	2	Febrero	2023-11-02T00:00:00	2024-11-08T13:00:00	1	Precipitación	0
5912	7	Sololá	701	Sololá	1	Sololá	2	Febrero	2023-11-02T00:00:00	2024-11-08T13:00:00	8	Radiación solar	860
5913	7	Sololá	701	Sololá	1	Sololá	2	Febrero	2023-11-02T00:00:00	2024-11-08T14:00:00	2	Temperatura media	20.7
5914	7	Sololá	701	Sololá	1	Sololá	2	Febrero	2023-11-02T00:00:00	2024-11-08T14:00:00	4	Temperatura máxima	21.2
5915	7	Sololá	701	Sololá	1	Sololá	2	Febrero	2023-11-02T00:00:00	2024-11-08T14:00:00	3	Temperatura mínima	20
5916	7	Sololá	701	Sololá	1	Sololá	2	Febrero	2023-11-02T00:00:00	2024-11-08T14:00:00	5	Humedad	47
5917	7	Sololá	701	Sololá	1	Sololá	2	Febrero	2023-11-02T00:00:00	2024-11-08T14:00:00	6	Velocidad del viento	17.7
5918	7	Sololá	701	Sololá	1	Sololá	2	Febrero	2023-11-02T00:00:00	2024-11-08T14:00:00	7	Dirección del viento	17.7
5919	7	Sololá	701	Sololá	1	Sololá	2	Febrero	2023-11-02T00:00:00	2024-11-08T14:00:00	1	Precipitación	0
5920	7	Sololá	701	Sololá	1	Sololá	2	Febrero	2023-11-02T00:00:00	2024-11-08T14:00:00	8	Radiación solar	728
5921	7	Sololá	701	Sololá	1	Sololá	2	Febrero	2023-11-02T00:00:00	2024-11-08T15:00:00	2	Temperatura media	19.7
5922	7	Sololá	701	Sololá	1	Sololá	2	Febrero	2023-11-02T00:00:00	2024-11-08T15:00:00	4	Temperatura máxima	21
5923	7	Sololá	701	Sololá	1	Sololá	2	Febrero	2023-11-02T00:00:00	2024-11-08T15:00:00	3	Temperatura mínima	19.7
5924	7	Sololá	701	Sololá	1	Sololá	2	Febrero	2023-11-02T00:00:00	2024-11-08T15:00:00	5	Humedad	48
5925	7	Sololá	701	Sololá	1	Sololá	2	Febrero	2023-11-02T00:00:00	2024-11-08T15:00:00	6	Velocidad del viento	22.5
5926	7	Sololá	701	Sololá	1	Sololá	2	Febrero	2023-11-02T00:00:00	2024-11-08T15:00:00	7	Dirección del viento	22.53
5927	7	Sololá	701	Sololá	1	Sololá	2	Febrero	2023-11-02T00:00:00	2024-11-08T15:00:00	1	Precipitación	0
5928	7	Sololá	701	Sololá	1	Sololá	2	Febrero	2023-11-02T00:00:00	2024-11-08T15:00:00	8	Radiación solar	643
5929	7	Sololá	701	Sololá	1	Sololá	2	Febrero	2023-11-02T00:00:00	2024-11-08T16:00:00	2	Temperatura media	19.1
5930	7	Sololá	701	Sololá	1	Sololá	2	Febrero	2023-11-02T00:00:00	2024-11-08T16:00:00	4	Temperatura máxima	20
5931	7	Sololá	701	Sololá	1	Sololá	2	Febrero	2023-11-02T00:00:00	2024-11-08T16:00:00	3	Temperatura mínima	18.9
5932	7	Sololá	701	Sololá	1	Sololá	2	Febrero	2023-11-02T00:00:00	2024-11-08T16:00:00	5	Humedad	48
5933	7	Sololá	701	Sololá	1	Sololá	2	Febrero	2023-11-02T00:00:00	2024-11-08T16:00:00	6	Velocidad del viento	20.9
5934	7	Sololá	701	Sololá	1	Sololá	2	Febrero	2023-11-02T00:00:00	2024-11-08T16:00:00	7	Dirección del viento	20.92
5935	7	Sololá	701	Sololá	1	Sololá	2	Febrero	2023-11-02T00:00:00	2024-11-08T16:00:00	1	Precipitación	0
5936	7	Sololá	701	Sololá	1	Sololá	2	Febrero	2023-11-02T00:00:00	2024-11-08T16:00:00	8	Radiación solar	239
5937	7	Sololá	701	Sololá	1	Sololá	2	Febrero	2023-11-02T00:00:00	2024-11-08T17:00:00	2	Temperatura media	17.3
5938	7	Sololá	701	Sololá	1	Sololá	2	Febrero	2023-11-02T00:00:00	2024-11-08T17:00:00	4	Temperatura máxima	19.6
5939	7	Sololá	701	Sololá	1	Sololá	2	Febrero	2023-11-02T00:00:00	2024-11-08T17:00:00	3	Temperatura mínima	17.3
5940	7	Sololá	701	Sololá	1	Sololá	2	Febrero	2023-11-02T00:00:00	2024-11-08T17:00:00	5	Humedad	60
5941	7	Sololá	701	Sololá	1	Sololá	2	Febrero	2023-11-02T00:00:00	2024-11-08T17:00:00	6	Velocidad del viento	17.7
5942	7	Sololá	701	Sololá	1	Sololá	2	Febrero	2023-11-02T00:00:00	2024-11-08T17:00:00	7	Dirección del viento	17.7
5943	7	Sololá	701	Sololá	1	Sololá	2	Febrero	2023-11-02T00:00:00	2024-11-08T17:00:00	1	Precipitación	0
5944	7	Sololá	701	Sololá	1	Sololá	2	Febrero	2023-11-02T00:00:00	2024-11-08T17:00:00	8	Radiación solar	85
5945	7	Sololá	701	Sololá	1	Sololá	2	Febrero	2023-11-02T00:00:00	2024-11-08T18:00:00	2	Temperatura media	16.2
5946	7	Sololá	701	Sololá	1	Sololá	2	Febrero	2023-11-02T00:00:00	2024-11-08T18:00:00	4	Temperatura máxima	17.5
5947	7	Sololá	701	Sololá	1	Sololá	2	Febrero	2023-11-02T00:00:00	2024-11-08T18:00:00	3	Temperatura mínima	16.2
5948	7	Sololá	701	Sololá	1	Sololá	2	Febrero	2023-11-02T00:00:00	2024-11-08T18:00:00	5	Humedad	65
5949	7	Sololá	701	Sololá	1	Sololá	2	Febrero	2023-11-02T00:00:00	2024-11-08T18:00:00	6	Velocidad del viento	11.3
5950	7	Sololá	701	Sololá	1	Sololá	2	Febrero	2023-11-02T00:00:00	2024-11-08T18:00:00	7	Dirección del viento	11.27
5951	7	Sololá	701	Sololá	1	Sololá	2	Febrero	2023-11-02T00:00:00	2024-11-08T18:00:00	1	Precipitación	0
5952	7	Sololá	701	Sololá	1	Sololá	2	Febrero	2023-11-02T00:00:00	2024-11-08T18:00:00	8	Radiación solar	11
5953	7	Sololá	701	Sololá	1	Sololá	2	Febrero	2023-11-02T00:00:00	2024-11-08T19:00:00	2	Temperatura media	14.9
5954	7	Sololá	701	Sololá	1	Sololá	2	Febrero	2023-11-02T00:00:00	2024-11-08T19:00:00	4	Temperatura máxima	16.2
5955	7	Sololá	701	Sololá	1	Sololá	2	Febrero	2023-11-02T00:00:00	2024-11-08T19:00:00	3	Temperatura mínima	14.9
5956	7	Sololá	701	Sololá	1	Sololá	2	Febrero	2023-11-02T00:00:00	2024-11-08T19:00:00	5	Humedad	74
5957	7	Sololá	701	Sololá	1	Sololá	2	Febrero	2023-11-02T00:00:00	2024-11-08T19:00:00	6	Velocidad del viento	9.7
5958	7	Sololá	701	Sololá	1	Sololá	2	Febrero	2023-11-02T00:00:00	2024-11-08T19:00:00	7	Dirección del viento	9.66
5959	7	Sololá	701	Sololá	1	Sololá	2	Febrero	2023-11-02T00:00:00	2024-11-08T19:00:00	1	Precipitación	0
5960	7	Sololá	701	Sololá	1	Sololá	2	Febrero	2023-11-02T00:00:00	2024-11-08T19:00:00	8	Radiación solar	0
5961	7	Sololá	701	Sololá	1	Sololá	2	Febrero	2023-11-02T00:00:00	2024-11-08T20:00:00	2	Temperatura media	14
5962	7	Sololá	701	Sololá	1	Sololá	2	Febrero	2023-11-02T00:00:00	2024-11-08T20:00:00	4	Temperatura máxima	14.9
5963	7	Sololá	701	Sololá	1	Sololá	2	Febrero	2023-11-02T00:00:00	2024-11-08T20:00:00	3	Temperatura mínima	13.9
5964	7	Sololá	701	Sololá	1	Sololá	2	Febrero	2023-11-02T00:00:00	2024-11-08T20:00:00	5	Humedad	81
5965	7	Sololá	701	Sololá	1	Sololá	2	Febrero	2023-11-02T00:00:00	2024-11-08T20:00:00	6	Velocidad del viento	9.7
5966	7	Sololá	701	Sololá	1	Sololá	2	Febrero	2023-11-02T00:00:00	2024-11-08T20:00:00	7	Dirección del viento	9.66
5967	7	Sololá	701	Sololá	1	Sololá	2	Febrero	2023-11-02T00:00:00	2024-11-08T20:00:00	1	Precipitación	0
5968	7	Sololá	701	Sololá	1	Sololá	2	Febrero	2023-11-02T00:00:00	2024-11-08T20:00:00	8	Radiación solar	0
5969	7	Sololá	701	Sololá	1	Sololá	2	Febrero	2023-11-02T00:00:00	2024-11-08T21:00:00	2	Temperatura media	14.1
5970	7	Sololá	701	Sololá	1	Sololá	2	Febrero	2023-11-02T00:00:00	2024-11-08T21:00:00	4	Temperatura máxima	14.2
5971	7	Sololá	701	Sololá	1	Sololá	2	Febrero	2023-11-02T00:00:00	2024-11-08T21:00:00	3	Temperatura mínima	13.9
5972	7	Sololá	701	Sololá	1	Sololá	2	Febrero	2023-11-02T00:00:00	2024-11-08T21:00:00	5	Humedad	82
5973	7	Sololá	701	Sololá	1	Sololá	2	Febrero	2023-11-02T00:00:00	2024-11-08T21:00:00	6	Velocidad del viento	16.1
5974	7	Sololá	701	Sololá	1	Sololá	2	Febrero	2023-11-02T00:00:00	2024-11-08T21:00:00	7	Dirección del viento	16.09
5975	7	Sololá	701	Sololá	1	Sololá	2	Febrero	2023-11-02T00:00:00	2024-11-08T21:00:00	1	Precipitación	0
5976	7	Sololá	701	Sololá	1	Sololá	2	Febrero	2023-11-02T00:00:00	2024-11-08T21:00:00	8	Radiación solar	0
5977	7	Sololá	701	Sololá	1	Sololá	2	Febrero	2023-11-02T00:00:00	2024-11-08T22:00:00	2	Temperatura media	13.9
5978	7	Sololá	701	Sololá	1	Sololá	2	Febrero	2023-11-02T00:00:00	2024-11-08T22:00:00	4	Temperatura máxima	14.1
5979	7	Sololá	701	Sololá	1	Sololá	2	Febrero	2023-11-02T00:00:00	2024-11-08T22:00:00	3	Temperatura mínima	13.7
5980	7	Sololá	701	Sololá	1	Sololá	2	Febrero	2023-11-02T00:00:00	2024-11-08T22:00:00	5	Humedad	83
5981	7	Sololá	701	Sololá	1	Sololá	2	Febrero	2023-11-02T00:00:00	2024-11-08T22:00:00	6	Velocidad del viento	17.7
5982	7	Sololá	701	Sololá	1	Sololá	2	Febrero	2023-11-02T00:00:00	2024-11-08T22:00:00	7	Dirección del viento	17.7
5983	7	Sololá	701	Sololá	1	Sololá	2	Febrero	2023-11-02T00:00:00	2024-11-08T22:00:00	1	Precipitación	0
5984	7	Sololá	701	Sololá	1	Sololá	2	Febrero	2023-11-02T00:00:00	2024-11-08T22:00:00	8	Radiación solar	0
5985	7	Sololá	701	Sololá	1	Sololá	2	Febrero	2023-11-02T00:00:00	2024-11-08T23:00:00	2	Temperatura media	13.7
5986	7	Sololá	701	Sololá	1	Sololá	2	Febrero	2023-11-02T00:00:00	2024-11-08T23:00:00	4	Temperatura máxima	14
5987	7	Sololá	701	Sololá	1	Sololá	2	Febrero	2023-11-02T00:00:00	2024-11-08T23:00:00	3	Temperatura mínima	13.7
5988	7	Sololá	701	Sololá	1	Sololá	2	Febrero	2023-11-02T00:00:00	2024-11-08T23:00:00	5	Humedad	81
5989	7	Sololá	701	Sololá	1	Sololá	2	Febrero	2023-11-02T00:00:00	2024-11-08T23:00:00	6	Velocidad del viento	14.5
5990	7	Sololá	701	Sololá	1	Sololá	2	Febrero	2023-11-02T00:00:00	2024-11-08T23:00:00	7	Dirección del viento	14.48
5991	7	Sololá	701	Sololá	1	Sololá	2	Febrero	2023-11-02T00:00:00	2024-11-08T23:00:00	1	Precipitación	0
5992	7	Sololá	701	Sololá	1	Sololá	2	Febrero	2023-11-02T00:00:00	2024-11-08T23:00:00	8	Radiación solar	0
5993	7	Sololá	701	Sololá	1	Sololá	2	Febrero	2023-12-02T00:00:00	2024-11-08T00:00:00	2	Temperatura media	13.3
5994	7	Sololá	701	Sololá	1	Sololá	2	Febrero	2023-12-02T00:00:00	2024-11-08T00:00:00	4	Temperatura máxima	13.8
5995	7	Sololá	701	Sololá	1	Sololá	2	Febrero	2023-12-02T00:00:00	2024-11-08T00:00:00	3	Temperatura mínima	13.3
5996	7	Sololá	701	Sololá	1	Sololá	2	Febrero	2023-12-02T00:00:00	2024-11-08T00:00:00	5	Humedad	82
5997	7	Sololá	701	Sololá	1	Sololá	2	Febrero	2023-12-02T00:00:00	2024-11-08T00:00:00	6	Velocidad del viento	16.1
5998	7	Sololá	701	Sololá	1	Sololá	2	Febrero	2023-12-02T00:00:00	2024-11-08T00:00:00	7	Dirección del viento	16.09
5999	7	Sololá	701	Sololá	1	Sololá	2	Febrero	2023-12-02T00:00:00	2024-11-08T00:00:00	1	Precipitación	0
6000	7	Sololá	701	Sololá	1	Sololá	2	Febrero	2023-12-02T00:00:00	2024-11-08T00:00:00	8	Radiación solar	0
6001	7	Sololá	701	Sololá	1	Sololá	2	Febrero	2023-12-02T00:00:00	2024-11-08T01:00:00	2	Temperatura media	12.8
6002	7	Sololá	701	Sololá	1	Sololá	2	Febrero	2023-12-02T00:00:00	2024-11-08T01:00:00	4	Temperatura máxima	13.4
6003	7	Sololá	701	Sololá	1	Sololá	2	Febrero	2023-12-02T00:00:00	2024-11-08T01:00:00	3	Temperatura mínima	12.8
6004	7	Sololá	701	Sololá	1	Sololá	2	Febrero	2023-12-02T00:00:00	2024-11-08T01:00:00	5	Humedad	83
6005	7	Sololá	701	Sololá	1	Sololá	2	Febrero	2023-12-02T00:00:00	2024-11-08T01:00:00	6	Velocidad del viento	14.5
6006	7	Sololá	701	Sololá	1	Sololá	2	Febrero	2023-12-02T00:00:00	2024-11-08T01:00:00	7	Dirección del viento	14.48
6007	7	Sololá	701	Sololá	1	Sololá	2	Febrero	2023-12-02T00:00:00	2024-11-08T01:00:00	1	Precipitación	0
6008	7	Sololá	701	Sololá	1	Sololá	2	Febrero	2023-12-02T00:00:00	2024-11-08T01:00:00	8	Radiación solar	0
6009	7	Sololá	701	Sololá	1	Sololá	2	Febrero	2023-12-02T00:00:00	2024-11-08T02:00:00	2	Temperatura media	12.2
6010	7	Sololá	701	Sololá	1	Sololá	2	Febrero	2023-12-02T00:00:00	2024-11-08T02:00:00	4	Temperatura máxima	12.8
6011	7	Sololá	701	Sololá	1	Sololá	2	Febrero	2023-12-02T00:00:00	2024-11-08T02:00:00	3	Temperatura mínima	12.2
6012	7	Sololá	701	Sololá	1	Sololá	2	Febrero	2023-12-02T00:00:00	2024-11-08T02:00:00	5	Humedad	83
6013	7	Sololá	701	Sololá	1	Sololá	2	Febrero	2023-12-02T00:00:00	2024-11-08T02:00:00	6	Velocidad del viento	16.1
6014	7	Sololá	701	Sololá	1	Sololá	2	Febrero	2023-12-02T00:00:00	2024-11-08T02:00:00	7	Dirección del viento	16.09
6015	7	Sololá	701	Sololá	1	Sololá	2	Febrero	2023-12-02T00:00:00	2024-11-08T02:00:00	1	Precipitación	0
6016	7	Sololá	701	Sololá	1	Sololá	2	Febrero	2023-12-02T00:00:00	2024-11-08T02:00:00	8	Radiación solar	0
6017	7	Sololá	701	Sololá	1	Sololá	2	Febrero	2023-12-02T00:00:00	2024-11-08T03:00:00	2	Temperatura media	11.8
6018	7	Sololá	701	Sololá	1	Sololá	2	Febrero	2023-12-02T00:00:00	2024-11-08T03:00:00	4	Temperatura máxima	12.2
6019	7	Sololá	701	Sololá	1	Sololá	2	Febrero	2023-12-02T00:00:00	2024-11-08T03:00:00	3	Temperatura mínima	11.8
6020	7	Sololá	701	Sololá	1	Sololá	2	Febrero	2023-12-02T00:00:00	2024-11-08T03:00:00	5	Humedad	84
6021	7	Sololá	701	Sololá	1	Sololá	2	Febrero	2023-12-02T00:00:00	2024-11-08T03:00:00	6	Velocidad del viento	14.5
6022	7	Sololá	701	Sololá	1	Sololá	2	Febrero	2023-12-02T00:00:00	2024-11-08T03:00:00	7	Dirección del viento	14.48
6023	7	Sololá	701	Sololá	1	Sololá	2	Febrero	2023-12-02T00:00:00	2024-11-08T03:00:00	1	Precipitación	0
6024	7	Sololá	701	Sololá	1	Sololá	2	Febrero	2023-12-02T00:00:00	2024-11-08T03:00:00	8	Radiación solar	0
6025	7	Sololá	701	Sololá	1	Sololá	2	Febrero	2023-12-02T00:00:00	2024-11-08T04:00:00	2	Temperatura media	11.9
6026	7	Sololá	701	Sololá	1	Sololá	2	Febrero	2023-12-02T00:00:00	2024-11-08T04:00:00	4	Temperatura máxima	12
6027	7	Sololá	701	Sololá	1	Sololá	2	Febrero	2023-12-02T00:00:00	2024-11-08T04:00:00	3	Temperatura mínima	11.6
6028	7	Sololá	701	Sololá	1	Sololá	2	Febrero	2023-12-02T00:00:00	2024-11-08T04:00:00	5	Humedad	80
6029	7	Sololá	701	Sololá	1	Sololá	2	Febrero	2023-12-02T00:00:00	2024-11-08T04:00:00	6	Velocidad del viento	24.1
6030	7	Sololá	701	Sololá	1	Sololá	2	Febrero	2023-12-02T00:00:00	2024-11-08T04:00:00	7	Dirección del viento	24.14
6031	7	Sololá	701	Sololá	1	Sololá	2	Febrero	2023-12-02T00:00:00	2024-11-08T04:00:00	1	Precipitación	0
6032	7	Sololá	701	Sololá	1	Sololá	2	Febrero	2023-12-02T00:00:00	2024-11-08T04:00:00	8	Radiación solar	0
6033	7	Sololá	701	Sololá	1	Sololá	2	Febrero	2023-12-02T00:00:00	2024-11-08T05:00:00	2	Temperatura media	12.5
6034	7	Sololá	701	Sololá	1	Sololá	2	Febrero	2023-12-02T00:00:00	2024-11-08T05:00:00	4	Temperatura máxima	12.8
6035	7	Sololá	701	Sololá	1	Sololá	2	Febrero	2023-12-02T00:00:00	2024-11-08T05:00:00	3	Temperatura mínima	11.9
6036	7	Sololá	701	Sololá	1	Sololá	2	Febrero	2023-12-02T00:00:00	2024-11-08T05:00:00	5	Humedad	74
6037	7	Sololá	701	Sololá	1	Sololá	2	Febrero	2023-12-02T00:00:00	2024-11-08T05:00:00	6	Velocidad del viento	27.4
6038	7	Sololá	701	Sololá	1	Sololá	2	Febrero	2023-12-02T00:00:00	2024-11-08T05:00:00	7	Dirección del viento	27.36
6039	7	Sololá	701	Sololá	1	Sololá	2	Febrero	2023-12-02T00:00:00	2024-11-08T05:00:00	1	Precipitación	0
6040	7	Sololá	701	Sololá	1	Sololá	2	Febrero	2023-12-02T00:00:00	2024-11-08T05:00:00	8	Radiación solar	0
6041	7	Sololá	701	Sololá	1	Sololá	2	Febrero	2023-12-02T00:00:00	2024-11-08T06:00:00	2	Temperatura media	12.7
6042	7	Sololá	701	Sololá	1	Sololá	2	Febrero	2023-12-02T00:00:00	2024-11-08T06:00:00	4	Temperatura máxima	12.7
6043	7	Sololá	701	Sololá	1	Sololá	2	Febrero	2023-12-02T00:00:00	2024-11-08T06:00:00	3	Temperatura mínima	12.4
6044	7	Sololá	701	Sololá	1	Sololá	2	Febrero	2023-12-02T00:00:00	2024-11-08T06:00:00	5	Humedad	72
6045	7	Sololá	701	Sololá	1	Sololá	2	Febrero	2023-12-02T00:00:00	2024-11-08T06:00:00	6	Velocidad del viento	27.4
6046	7	Sololá	701	Sololá	1	Sololá	2	Febrero	2023-12-02T00:00:00	2024-11-08T06:00:00	7	Dirección del viento	27.36
6047	7	Sololá	701	Sololá	1	Sololá	2	Febrero	2023-12-02T00:00:00	2024-11-08T06:00:00	1	Precipitación	0
6048	7	Sololá	701	Sololá	1	Sololá	2	Febrero	2023-12-02T00:00:00	2024-11-08T06:00:00	8	Radiación solar	0
6049	7	Sololá	701	Sololá	1	Sololá	2	Febrero	2023-12-02T00:00:00	2024-11-08T07:00:00	2	Temperatura media	12.7
6050	7	Sololá	701	Sololá	1	Sololá	2	Febrero	2023-12-02T00:00:00	2024-11-08T07:00:00	4	Temperatura máxima	12.8
6051	7	Sololá	701	Sololá	1	Sololá	2	Febrero	2023-12-02T00:00:00	2024-11-08T07:00:00	3	Temperatura mínima	12.4
6052	7	Sololá	701	Sololá	1	Sololá	2	Febrero	2023-12-02T00:00:00	2024-11-08T07:00:00	5	Humedad	71
6053	7	Sololá	701	Sololá	1	Sololá	2	Febrero	2023-12-02T00:00:00	2024-11-08T07:00:00	6	Velocidad del viento	27.4
6054	7	Sololá	701	Sololá	1	Sololá	2	Febrero	2023-12-02T00:00:00	2024-11-08T07:00:00	7	Dirección del viento	27.36
6055	7	Sololá	701	Sololá	1	Sololá	2	Febrero	2023-12-02T00:00:00	2024-11-08T07:00:00	1	Precipitación	0
6056	7	Sololá	701	Sololá	1	Sololá	2	Febrero	2023-12-02T00:00:00	2024-11-08T07:00:00	8	Radiación solar	10
6057	7	Sololá	701	Sololá	1	Sololá	2	Febrero	2023-12-02T00:00:00	2024-11-08T08:00:00	2	Temperatura media	14.3
6058	7	Sololá	701	Sololá	1	Sololá	2	Febrero	2023-12-02T00:00:00	2024-11-08T08:00:00	4	Temperatura máxima	14.3
6059	7	Sololá	701	Sololá	1	Sololá	2	Febrero	2023-12-02T00:00:00	2024-11-08T08:00:00	3	Temperatura mínima	12.7
6060	7	Sololá	701	Sololá	1	Sololá	2	Febrero	2023-12-02T00:00:00	2024-11-08T08:00:00	5	Humedad	66
6061	7	Sololá	701	Sololá	1	Sololá	2	Febrero	2023-12-02T00:00:00	2024-11-08T08:00:00	6	Velocidad del viento	27.4
6062	7	Sololá	701	Sololá	1	Sololá	2	Febrero	2023-12-02T00:00:00	2024-11-08T08:00:00	7	Dirección del viento	27.36
6063	7	Sololá	701	Sololá	1	Sololá	2	Febrero	2023-12-02T00:00:00	2024-11-08T08:00:00	1	Precipitación	0
6064	7	Sololá	701	Sololá	1	Sololá	2	Febrero	2023-12-02T00:00:00	2024-11-08T08:00:00	8	Radiación solar	68
6065	7	Sololá	701	Sololá	1	Sololá	2	Febrero	2023-12-02T00:00:00	2024-11-08T09:00:00	2	Temperatura media	15.3
6066	7	Sololá	701	Sololá	1	Sololá	2	Febrero	2023-12-02T00:00:00	2024-11-08T09:00:00	4	Temperatura máxima	15.3
6067	7	Sololá	701	Sololá	1	Sololá	2	Febrero	2023-12-02T00:00:00	2024-11-08T09:00:00	3	Temperatura mínima	14.3
6068	7	Sololá	701	Sololá	1	Sololá	2	Febrero	2023-12-02T00:00:00	2024-11-08T09:00:00	5	Humedad	64
6069	7	Sololá	701	Sololá	1	Sololá	2	Febrero	2023-12-02T00:00:00	2024-11-08T09:00:00	6	Velocidad del viento	27.4
6070	7	Sololá	701	Sololá	1	Sololá	2	Febrero	2023-12-02T00:00:00	2024-11-08T09:00:00	7	Dirección del viento	27.36
6071	7	Sololá	701	Sololá	1	Sololá	2	Febrero	2023-12-02T00:00:00	2024-11-08T09:00:00	1	Precipitación	0
6072	7	Sololá	701	Sololá	1	Sololá	2	Febrero	2023-12-02T00:00:00	2024-11-08T09:00:00	8	Radiación solar	179
6073	7	Sololá	701	Sololá	1	Sololá	2	Febrero	2023-12-02T00:00:00	2024-11-08T10:00:00	2	Temperatura media	16.6
6074	7	Sololá	701	Sololá	1	Sololá	2	Febrero	2023-12-02T00:00:00	2024-11-08T10:00:00	4	Temperatura máxima	16.6
6075	7	Sololá	701	Sololá	1	Sololá	2	Febrero	2023-12-02T00:00:00	2024-11-08T10:00:00	3	Temperatura mínima	15.2
6076	7	Sololá	701	Sololá	1	Sololá	2	Febrero	2023-12-02T00:00:00	2024-11-08T10:00:00	5	Humedad	62
6077	7	Sololá	701	Sololá	1	Sololá	2	Febrero	2023-12-02T00:00:00	2024-11-08T10:00:00	6	Velocidad del viento	25.7
6078	7	Sololá	701	Sololá	1	Sololá	2	Febrero	2023-12-02T00:00:00	2024-11-08T10:00:00	7	Dirección del viento	25.75
6079	7	Sololá	701	Sololá	1	Sololá	2	Febrero	2023-12-02T00:00:00	2024-11-08T10:00:00	1	Precipitación	0
6080	7	Sololá	701	Sololá	1	Sololá	2	Febrero	2023-12-02T00:00:00	2024-11-08T10:00:00	8	Radiación solar	341
6081	7	Sololá	701	Sololá	1	Sololá	2	Febrero	2023-12-02T00:00:00	2024-11-08T11:00:00	2	Temperatura media	17.5
6082	7	Sololá	701	Sololá	1	Sololá	2	Febrero	2023-12-02T00:00:00	2024-11-08T11:00:00	4	Temperatura máxima	17.5
6083	7	Sololá	701	Sololá	1	Sololá	2	Febrero	2023-12-02T00:00:00	2024-11-08T11:00:00	3	Temperatura mínima	16.6
6084	7	Sololá	701	Sololá	1	Sololá	2	Febrero	2023-12-02T00:00:00	2024-11-08T11:00:00	5	Humedad	58
6085	7	Sololá	701	Sololá	1	Sololá	2	Febrero	2023-12-02T00:00:00	2024-11-08T11:00:00	6	Velocidad del viento	27.4
6086	7	Sololá	701	Sololá	1	Sololá	2	Febrero	2023-12-02T00:00:00	2024-11-08T11:00:00	7	Dirección del viento	27.36
6087	7	Sololá	701	Sololá	1	Sololá	2	Febrero	2023-12-02T00:00:00	2024-11-08T11:00:00	1	Precipitación	0
6088	7	Sololá	701	Sololá	1	Sololá	2	Febrero	2023-12-02T00:00:00	2024-11-08T11:00:00	8	Radiación solar	515
6089	7	Sololá	701	Sololá	1	Sololá	2	Febrero	2023-12-02T00:00:00	2024-11-08T12:00:00	2	Temperatura media	19.2
6090	7	Sololá	701	Sololá	1	Sololá	2	Febrero	2023-12-02T00:00:00	2024-11-08T12:00:00	4	Temperatura máxima	19.4
6091	7	Sololá	701	Sololá	1	Sololá	2	Febrero	2023-12-02T00:00:00	2024-11-08T12:00:00	3	Temperatura mínima	17.5
6092	7	Sololá	701	Sololá	1	Sololá	2	Febrero	2023-12-02T00:00:00	2024-11-08T12:00:00	5	Humedad	52
6093	7	Sololá	701	Sololá	1	Sololá	2	Febrero	2023-12-02T00:00:00	2024-11-08T12:00:00	6	Velocidad del viento	22.5
6094	7	Sololá	701	Sololá	1	Sololá	2	Febrero	2023-12-02T00:00:00	2024-11-08T12:00:00	7	Dirección del viento	22.53
6095	7	Sololá	701	Sololá	1	Sololá	2	Febrero	2023-12-02T00:00:00	2024-11-08T12:00:00	1	Precipitación	0
6096	7	Sololá	701	Sololá	1	Sololá	2	Febrero	2023-12-02T00:00:00	2024-11-08T12:00:00	8	Radiación solar	862
6097	7	Sololá	701	Sololá	1	Sololá	2	Febrero	2023-12-02T00:00:00	2024-11-08T13:00:00	2	Temperatura media	20.3
6098	7	Sololá	701	Sololá	1	Sololá	2	Febrero	2023-12-02T00:00:00	2024-11-08T13:00:00	4	Temperatura máxima	20.4
6099	7	Sololá	701	Sololá	1	Sololá	2	Febrero	2023-12-02T00:00:00	2024-11-08T13:00:00	3	Temperatura mínima	19.2
6100	7	Sololá	701	Sololá	1	Sololá	2	Febrero	2023-12-02T00:00:00	2024-11-08T13:00:00	5	Humedad	51
6101	7	Sololá	701	Sololá	1	Sololá	2	Febrero	2023-12-02T00:00:00	2024-11-08T13:00:00	6	Velocidad del viento	22.5
6102	7	Sololá	701	Sololá	1	Sololá	2	Febrero	2023-12-02T00:00:00	2024-11-08T13:00:00	7	Dirección del viento	22.53
6103	7	Sololá	701	Sololá	1	Sololá	2	Febrero	2023-12-02T00:00:00	2024-11-08T13:00:00	1	Precipitación	0
6104	7	Sololá	701	Sololá	1	Sololá	2	Febrero	2023-12-02T00:00:00	2024-11-08T13:00:00	8	Radiación solar	746
6105	7	Sololá	701	Sololá	1	Sololá	2	Febrero	2023-12-02T00:00:00	2024-11-08T14:00:00	2	Temperatura media	21.1
6106	7	Sololá	701	Sololá	1	Sololá	2	Febrero	2023-12-02T00:00:00	2024-11-08T14:00:00	4	Temperatura máxima	21.1
6107	7	Sololá	701	Sololá	1	Sololá	2	Febrero	2023-12-02T00:00:00	2024-11-08T14:00:00	3	Temperatura mínima	19.9
6108	7	Sololá	701	Sololá	1	Sololá	2	Febrero	2023-12-02T00:00:00	2024-11-08T14:00:00	5	Humedad	47
6109	7	Sololá	701	Sololá	1	Sololá	2	Febrero	2023-12-02T00:00:00	2024-11-08T14:00:00	6	Velocidad del viento	17.7
6110	7	Sololá	701	Sololá	1	Sololá	2	Febrero	2023-12-02T00:00:00	2024-11-08T14:00:00	7	Dirección del viento	17.7
6111	7	Sololá	701	Sololá	1	Sololá	2	Febrero	2023-12-02T00:00:00	2024-11-08T14:00:00	1	Precipitación	0
6112	7	Sololá	701	Sololá	1	Sololá	2	Febrero	2023-12-02T00:00:00	2024-11-08T14:00:00	8	Radiación solar	643
6113	7	Sololá	701	Sololá	1	Sololá	2	Febrero	2023-12-02T00:00:00	2024-11-08T15:00:00	2	Temperatura media	20.2
6114	7	Sololá	701	Sololá	1	Sololá	2	Febrero	2023-12-02T00:00:00	2024-11-08T15:00:00	4	Temperatura máxima	21.6
6115	7	Sololá	701	Sololá	1	Sololá	2	Febrero	2023-12-02T00:00:00	2024-11-08T15:00:00	3	Temperatura mínima	20.2
6116	7	Sololá	701	Sololá	1	Sololá	2	Febrero	2023-12-02T00:00:00	2024-11-08T15:00:00	5	Humedad	51
6117	7	Sololá	701	Sololá	1	Sololá	2	Febrero	2023-12-02T00:00:00	2024-11-08T15:00:00	6	Velocidad del viento	16.1
6118	7	Sololá	701	Sololá	1	Sololá	2	Febrero	2023-12-02T00:00:00	2024-11-08T15:00:00	7	Dirección del viento	16.09
6119	7	Sololá	701	Sololá	1	Sololá	2	Febrero	2023-12-02T00:00:00	2024-11-08T15:00:00	1	Precipitación	0
6120	7	Sololá	701	Sololá	1	Sololá	2	Febrero	2023-12-02T00:00:00	2024-11-08T15:00:00	8	Radiación solar	643
6121	7	Sololá	701	Sololá	1	Sololá	2	Febrero	2023-12-02T00:00:00	2024-11-08T16:00:00	2	Temperatura media	19.9
6122	7	Sololá	701	Sololá	1	Sololá	2	Febrero	2023-12-02T00:00:00	2024-11-08T16:00:00	4	Temperatura máxima	20.6
6123	7	Sololá	701	Sololá	1	Sololá	2	Febrero	2023-12-02T00:00:00	2024-11-08T16:00:00	3	Temperatura mínima	19.7
6124	7	Sololá	701	Sololá	1	Sololá	2	Febrero	2023-12-02T00:00:00	2024-11-08T16:00:00	5	Humedad	54
6125	7	Sololá	701	Sololá	1	Sololá	2	Febrero	2023-12-02T00:00:00	2024-11-08T16:00:00	6	Velocidad del viento	16.1
6126	7	Sololá	701	Sololá	1	Sololá	2	Febrero	2023-12-02T00:00:00	2024-11-08T16:00:00	7	Dirección del viento	16.09
6127	7	Sololá	701	Sololá	1	Sololá	2	Febrero	2023-12-02T00:00:00	2024-11-08T16:00:00	1	Precipitación	0
6128	7	Sololá	701	Sololá	1	Sololá	2	Febrero	2023-12-02T00:00:00	2024-11-08T16:00:00	8	Radiación solar	193
6129	7	Sololá	701	Sololá	1	Sololá	2	Febrero	2023-12-02T00:00:00	2024-11-08T17:00:00	2	Temperatura media	18.9
6130	7	Sololá	701	Sololá	1	Sololá	2	Febrero	2023-12-02T00:00:00	2024-11-08T17:00:00	4	Temperatura máxima	19.9
6131	7	Sololá	701	Sololá	1	Sololá	2	Febrero	2023-12-02T00:00:00	2024-11-08T17:00:00	3	Temperatura mínima	18.4
6132	7	Sololá	701	Sololá	1	Sololá	2	Febrero	2023-12-02T00:00:00	2024-11-08T17:00:00	5	Humedad	57
6133	7	Sololá	701	Sololá	1	Sololá	2	Febrero	2023-12-02T00:00:00	2024-11-08T17:00:00	6	Velocidad del viento	14.5
6134	7	Sololá	701	Sololá	1	Sololá	2	Febrero	2023-12-02T00:00:00	2024-11-08T17:00:00	7	Dirección del viento	14.48
6135	7	Sololá	701	Sololá	1	Sololá	2	Febrero	2023-12-02T00:00:00	2024-11-08T17:00:00	1	Precipitación	0
6136	7	Sololá	701	Sololá	1	Sololá	2	Febrero	2023-12-02T00:00:00	2024-11-08T17:00:00	8	Radiación solar	34
6137	7	Sololá	701	Sololá	1	Sololá	2	Febrero	2023-12-02T00:00:00	2024-11-08T18:00:00	2	Temperatura media	16.3
6138	7	Sololá	701	Sololá	1	Sololá	2	Febrero	2023-12-02T00:00:00	2024-11-08T18:00:00	4	Temperatura máxima	18.9
6139	7	Sololá	701	Sololá	1	Sololá	2	Febrero	2023-12-02T00:00:00	2024-11-08T18:00:00	3	Temperatura mínima	16.3
6140	7	Sololá	701	Sololá	1	Sololá	2	Febrero	2023-12-02T00:00:00	2024-11-08T18:00:00	5	Humedad	66
6141	7	Sololá	701	Sololá	1	Sololá	2	Febrero	2023-12-02T00:00:00	2024-11-08T18:00:00	6	Velocidad del viento	17.7
6142	7	Sololá	701	Sololá	1	Sololá	2	Febrero	2023-12-02T00:00:00	2024-11-08T18:00:00	7	Dirección del viento	17.7
6143	7	Sololá	701	Sololá	1	Sololá	2	Febrero	2023-12-02T00:00:00	2024-11-08T18:00:00	1	Precipitación	0
6144	7	Sololá	701	Sololá	1	Sololá	2	Febrero	2023-12-02T00:00:00	2024-11-08T18:00:00	8	Radiación solar	6
6145	7	Sololá	701	Sololá	1	Sololá	2	Febrero	2023-12-02T00:00:00	2024-11-08T19:00:00	2	Temperatura media	14.7
6146	7	Sololá	701	Sololá	1	Sololá	2	Febrero	2023-12-02T00:00:00	2024-11-08T19:00:00	4	Temperatura máxima	16.3
6147	7	Sololá	701	Sololá	1	Sololá	2	Febrero	2023-12-02T00:00:00	2024-11-08T19:00:00	3	Temperatura mínima	14.7
6148	7	Sololá	701	Sololá	1	Sololá	2	Febrero	2023-12-02T00:00:00	2024-11-08T19:00:00	5	Humedad	70
6149	7	Sololá	701	Sololá	1	Sololá	2	Febrero	2023-12-02T00:00:00	2024-11-08T19:00:00	6	Velocidad del viento	16.1
6150	7	Sololá	701	Sololá	1	Sololá	2	Febrero	2023-12-02T00:00:00	2024-11-08T19:00:00	7	Dirección del viento	16.09
6151	7	Sololá	701	Sololá	1	Sololá	2	Febrero	2023-12-02T00:00:00	2024-11-08T19:00:00	1	Precipitación	0
6152	7	Sololá	701	Sololá	1	Sololá	2	Febrero	2023-12-02T00:00:00	2024-11-08T19:00:00	8	Radiación solar	0
6153	7	Sololá	701	Sololá	1	Sololá	2	Febrero	2023-12-02T00:00:00	2024-11-08T20:00:00	2	Temperatura media	13.6
6154	7	Sololá	701	Sololá	1	Sololá	2	Febrero	2023-12-02T00:00:00	2024-11-08T20:00:00	4	Temperatura máxima	14.7
6155	7	Sololá	701	Sololá	1	Sololá	2	Febrero	2023-12-02T00:00:00	2024-11-08T20:00:00	3	Temperatura mínima	13.6
6156	7	Sololá	701	Sololá	1	Sololá	2	Febrero	2023-12-02T00:00:00	2024-11-08T20:00:00	5	Humedad	72
6157	7	Sololá	701	Sololá	1	Sololá	2	Febrero	2023-12-02T00:00:00	2024-11-08T20:00:00	6	Velocidad del viento	19.3
6158	7	Sololá	701	Sololá	1	Sololá	2	Febrero	2023-12-02T00:00:00	2024-11-08T20:00:00	7	Dirección del viento	19.31
6159	7	Sololá	701	Sololá	1	Sololá	2	Febrero	2023-12-02T00:00:00	2024-11-08T20:00:00	1	Precipitación	0
6160	7	Sololá	701	Sololá	1	Sololá	2	Febrero	2023-12-02T00:00:00	2024-11-08T20:00:00	8	Radiación solar	0
6161	7	Sololá	701	Sololá	1	Sololá	2	Febrero	2023-12-02T00:00:00	2024-11-08T21:00:00	2	Temperatura media	13.5
6162	7	Sololá	701	Sololá	1	Sololá	2	Febrero	2023-12-02T00:00:00	2024-11-08T21:00:00	4	Temperatura máxima	13.6
6163	7	Sololá	701	Sololá	1	Sololá	2	Febrero	2023-12-02T00:00:00	2024-11-08T21:00:00	3	Temperatura mínima	13.3
6164	7	Sololá	701	Sololá	1	Sololá	2	Febrero	2023-12-02T00:00:00	2024-11-08T21:00:00	5	Humedad	72
6165	7	Sololá	701	Sololá	1	Sololá	2	Febrero	2023-12-02T00:00:00	2024-11-08T21:00:00	6	Velocidad del viento	11.3
6166	7	Sololá	701	Sololá	1	Sololá	2	Febrero	2023-12-02T00:00:00	2024-11-08T21:00:00	7	Dirección del viento	11.27
6167	7	Sololá	701	Sololá	1	Sololá	2	Febrero	2023-12-02T00:00:00	2024-11-08T21:00:00	1	Precipitación	0
6168	7	Sololá	701	Sololá	1	Sololá	2	Febrero	2023-12-02T00:00:00	2024-11-08T21:00:00	8	Radiación solar	0
6169	7	Sololá	701	Sololá	1	Sololá	2	Febrero	2023-12-02T00:00:00	2024-11-08T22:00:00	2	Temperatura media	13.2
6170	7	Sololá	701	Sololá	1	Sololá	2	Febrero	2023-12-02T00:00:00	2024-11-08T22:00:00	4	Temperatura máxima	13.6
6171	7	Sololá	701	Sololá	1	Sololá	2	Febrero	2023-12-02T00:00:00	2024-11-08T22:00:00	3	Temperatura mínima	13.2
6172	7	Sololá	701	Sololá	1	Sololá	2	Febrero	2023-12-02T00:00:00	2024-11-08T22:00:00	5	Humedad	74
6173	7	Sololá	701	Sololá	1	Sololá	2	Febrero	2023-12-02T00:00:00	2024-11-08T22:00:00	6	Velocidad del viento	14.5
6174	7	Sololá	701	Sololá	1	Sololá	2	Febrero	2023-12-02T00:00:00	2024-11-08T22:00:00	7	Dirección del viento	14.48
6175	7	Sololá	701	Sololá	1	Sololá	2	Febrero	2023-12-02T00:00:00	2024-11-08T22:00:00	1	Precipitación	0
6176	7	Sololá	701	Sololá	1	Sololá	2	Febrero	2023-12-02T00:00:00	2024-11-08T22:00:00	8	Radiación solar	0
6177	7	Sololá	701	Sololá	1	Sololá	2	Febrero	2023-12-02T00:00:00	2024-11-08T23:00:00	2	Temperatura media	12.3
6178	7	Sololá	701	Sololá	1	Sololá	2	Febrero	2023-12-02T00:00:00	2024-11-08T23:00:00	4	Temperatura máxima	13.2
6179	7	Sololá	701	Sololá	1	Sololá	2	Febrero	2023-12-02T00:00:00	2024-11-08T23:00:00	3	Temperatura mínima	12.2
6180	7	Sololá	701	Sololá	1	Sololá	2	Febrero	2023-12-02T00:00:00	2024-11-08T23:00:00	5	Humedad	78
6181	7	Sololá	701	Sololá	1	Sololá	2	Febrero	2023-12-02T00:00:00	2024-11-08T23:00:00	6	Velocidad del viento	20.9
6182	7	Sololá	701	Sololá	1	Sololá	2	Febrero	2023-12-02T00:00:00	2024-11-08T23:00:00	7	Dirección del viento	20.92
6183	7	Sololá	701	Sololá	1	Sololá	2	Febrero	2023-12-02T00:00:00	2024-11-08T23:00:00	1	Precipitación	0
6184	7	Sololá	701	Sololá	1	Sololá	2	Febrero	2023-12-02T00:00:00	2024-11-08T23:00:00	8	Radiación solar	0
6185	7	Sololá	701	Sololá	1	Sololá	2	Febrero	2023-02-13T00:00:00	2024-11-08T00:00:00	2	Temperatura media	12.1
6186	7	Sololá	701	Sololá	1	Sololá	2	Febrero	2023-02-13T00:00:00	2024-11-08T00:00:00	4	Temperatura máxima	12.3
6187	7	Sololá	701	Sololá	1	Sololá	2	Febrero	2023-02-13T00:00:00	2024-11-08T00:00:00	3	Temperatura mínima	12.1
6188	7	Sololá	701	Sololá	1	Sololá	2	Febrero	2023-02-13T00:00:00	2024-11-08T00:00:00	5	Humedad	79
6189	7	Sololá	701	Sololá	1	Sololá	2	Febrero	2023-02-13T00:00:00	2024-11-08T00:00:00	6	Velocidad del viento	17.7
6190	7	Sololá	701	Sololá	1	Sololá	2	Febrero	2023-02-13T00:00:00	2024-11-08T00:00:00	7	Dirección del viento	17.7
6191	7	Sololá	701	Sololá	1	Sololá	2	Febrero	2023-02-13T00:00:00	2024-11-08T00:00:00	1	Precipitación	0
6192	7	Sololá	701	Sololá	1	Sololá	2	Febrero	2023-02-13T00:00:00	2024-11-08T00:00:00	8	Radiación solar	0
6193	7	Sololá	701	Sololá	1	Sololá	2	Febrero	2023-02-13T00:00:00	2024-11-08T01:00:00	2	Temperatura media	12.6
6194	7	Sololá	701	Sololá	1	Sololá	2	Febrero	2023-02-13T00:00:00	2024-11-08T01:00:00	4	Temperatura máxima	12.6
6195	7	Sololá	701	Sololá	1	Sololá	2	Febrero	2023-02-13T00:00:00	2024-11-08T01:00:00	3	Temperatura mínima	11.9
6196	7	Sololá	701	Sololá	1	Sololá	2	Febrero	2023-02-13T00:00:00	2024-11-08T01:00:00	5	Humedad	78
6197	7	Sololá	701	Sololá	1	Sololá	2	Febrero	2023-02-13T00:00:00	2024-11-08T01:00:00	6	Velocidad del viento	9.7
6198	7	Sololá	701	Sololá	1	Sololá	2	Febrero	2023-02-13T00:00:00	2024-11-08T01:00:00	7	Dirección del viento	9.66
6199	7	Sololá	701	Sololá	1	Sololá	2	Febrero	2023-02-13T00:00:00	2024-11-08T01:00:00	1	Precipitación	0
6200	7	Sololá	701	Sololá	1	Sololá	2	Febrero	2023-02-13T00:00:00	2024-11-08T01:00:00	8	Radiación solar	0
6201	7	Sololá	701	Sololá	1	Sololá	2	Febrero	2023-02-13T00:00:00	2024-11-08T02:00:00	2	Temperatura media	12.7
6202	7	Sololá	701	Sololá	1	Sololá	2	Febrero	2023-02-13T00:00:00	2024-11-08T02:00:00	4	Temperatura máxima	12.8
6203	7	Sololá	701	Sololá	1	Sololá	2	Febrero	2023-02-13T00:00:00	2024-11-08T02:00:00	3	Temperatura mínima	12.5
6204	7	Sololá	701	Sololá	1	Sololá	2	Febrero	2023-02-13T00:00:00	2024-11-08T02:00:00	5	Humedad	77
6205	7	Sololá	701	Sololá	1	Sololá	2	Febrero	2023-02-13T00:00:00	2024-11-08T02:00:00	6	Velocidad del viento	11.3
6206	7	Sololá	701	Sololá	1	Sololá	2	Febrero	2023-02-13T00:00:00	2024-11-08T02:00:00	7	Dirección del viento	11.27
6207	7	Sololá	701	Sololá	1	Sololá	2	Febrero	2023-02-13T00:00:00	2024-11-08T02:00:00	1	Precipitación	0
6208	7	Sololá	701	Sololá	1	Sololá	2	Febrero	2023-02-13T00:00:00	2024-11-08T02:00:00	8	Radiación solar	0
6209	7	Sololá	701	Sololá	1	Sololá	2	Febrero	2023-02-13T00:00:00	2024-11-08T03:00:00	2	Temperatura media	12.6
6210	7	Sololá	701	Sololá	1	Sololá	2	Febrero	2023-02-13T00:00:00	2024-11-08T03:00:00	4	Temperatura máxima	12.8
6211	7	Sololá	701	Sololá	1	Sololá	2	Febrero	2023-02-13T00:00:00	2024-11-08T03:00:00	3	Temperatura mínima	12.6
6212	7	Sololá	701	Sololá	1	Sololá	2	Febrero	2023-02-13T00:00:00	2024-11-08T03:00:00	5	Humedad	78
6213	7	Sololá	701	Sololá	1	Sololá	2	Febrero	2023-02-13T00:00:00	2024-11-08T03:00:00	6	Velocidad del viento	16.1
6214	7	Sololá	701	Sololá	1	Sololá	2	Febrero	2023-02-13T00:00:00	2024-11-08T03:00:00	7	Dirección del viento	16.09
6215	7	Sololá	701	Sololá	1	Sololá	2	Febrero	2023-02-13T00:00:00	2024-11-08T03:00:00	1	Precipitación	0
6216	7	Sololá	701	Sololá	1	Sololá	2	Febrero	2023-02-13T00:00:00	2024-11-08T03:00:00	8	Radiación solar	0
6217	7	Sololá	701	Sololá	1	Sololá	2	Febrero	2023-02-13T00:00:00	2024-11-08T04:00:00	2	Temperatura media	12.4
6218	7	Sololá	701	Sololá	1	Sololá	2	Febrero	2023-02-13T00:00:00	2024-11-08T04:00:00	4	Temperatura máxima	12.7
6219	7	Sololá	701	Sololá	1	Sololá	2	Febrero	2023-02-13T00:00:00	2024-11-08T04:00:00	3	Temperatura mínima	12.3
6220	7	Sololá	701	Sololá	1	Sololá	2	Febrero	2023-02-13T00:00:00	2024-11-08T04:00:00	5	Humedad	78
6221	7	Sololá	701	Sololá	1	Sololá	2	Febrero	2023-02-13T00:00:00	2024-11-08T04:00:00	6	Velocidad del viento	14.5
6222	7	Sololá	701	Sololá	1	Sololá	2	Febrero	2023-02-13T00:00:00	2024-11-08T04:00:00	7	Dirección del viento	14.48
6223	7	Sololá	701	Sololá	1	Sololá	2	Febrero	2023-02-13T00:00:00	2024-11-08T04:00:00	1	Precipitación	0
6224	7	Sololá	701	Sololá	1	Sololá	2	Febrero	2023-02-13T00:00:00	2024-11-08T04:00:00	8	Radiación solar	0
6225	7	Sololá	701	Sololá	1	Sololá	2	Febrero	2023-02-13T00:00:00	2024-11-08T05:00:00	2	Temperatura media	12.3
6226	7	Sololá	701	Sololá	1	Sololá	2	Febrero	2023-02-13T00:00:00	2024-11-08T05:00:00	4	Temperatura máxima	12.7
6227	7	Sololá	701	Sololá	1	Sololá	2	Febrero	2023-02-13T00:00:00	2024-11-08T05:00:00	3	Temperatura mínima	12.3
6228	7	Sololá	701	Sololá	1	Sololá	2	Febrero	2023-02-13T00:00:00	2024-11-08T05:00:00	5	Humedad	79
6229	7	Sololá	701	Sololá	1	Sololá	2	Febrero	2023-02-13T00:00:00	2024-11-08T05:00:00	6	Velocidad del viento	12.9
6230	7	Sololá	701	Sololá	1	Sololá	2	Febrero	2023-02-13T00:00:00	2024-11-08T05:00:00	7	Dirección del viento	12.87
6231	7	Sololá	701	Sololá	1	Sololá	2	Febrero	2023-02-13T00:00:00	2024-11-08T05:00:00	1	Precipitación	0
6232	7	Sololá	701	Sololá	1	Sololá	2	Febrero	2023-02-13T00:00:00	2024-11-08T05:00:00	8	Radiación solar	0
6233	7	Sololá	701	Sololá	1	Sololá	2	Febrero	2023-02-13T00:00:00	2024-11-08T06:00:00	2	Temperatura media	11.9
6234	7	Sololá	701	Sololá	1	Sololá	2	Febrero	2023-02-13T00:00:00	2024-11-08T06:00:00	4	Temperatura máxima	12.3
6235	7	Sololá	701	Sololá	1	Sololá	2	Febrero	2023-02-13T00:00:00	2024-11-08T06:00:00	3	Temperatura mínima	11.9
6236	7	Sololá	701	Sololá	1	Sololá	2	Febrero	2023-02-13T00:00:00	2024-11-08T06:00:00	5	Humedad	81
6237	7	Sololá	701	Sololá	1	Sololá	2	Febrero	2023-02-13T00:00:00	2024-11-08T06:00:00	6	Velocidad del viento	20.9
6238	7	Sololá	701	Sololá	1	Sololá	2	Febrero	2023-02-13T00:00:00	2024-11-08T06:00:00	7	Dirección del viento	20.92
6239	7	Sololá	701	Sololá	1	Sololá	2	Febrero	2023-02-13T00:00:00	2024-11-08T06:00:00	1	Precipitación	0
6240	7	Sololá	701	Sololá	1	Sololá	2	Febrero	2023-02-13T00:00:00	2024-11-08T06:00:00	8	Radiación solar	0
6241	7	Sololá	701	Sololá	1	Sololá	2	Febrero	2023-02-13T00:00:00	2024-11-08T07:00:00	2	Temperatura media	12.4
6242	7	Sololá	701	Sololá	1	Sololá	2	Febrero	2023-02-13T00:00:00	2024-11-08T07:00:00	4	Temperatura máxima	12.4
6243	7	Sololá	701	Sololá	1	Sololá	2	Febrero	2023-02-13T00:00:00	2024-11-08T07:00:00	3	Temperatura mínima	11.9
6244	7	Sololá	701	Sololá	1	Sololá	2	Febrero	2023-02-13T00:00:00	2024-11-08T07:00:00	5	Humedad	80
6245	7	Sololá	701	Sololá	1	Sololá	2	Febrero	2023-02-13T00:00:00	2024-11-08T07:00:00	6	Velocidad del viento	20.9
6246	7	Sololá	701	Sololá	1	Sololá	2	Febrero	2023-02-13T00:00:00	2024-11-08T07:00:00	7	Dirección del viento	20.92
6247	7	Sololá	701	Sololá	1	Sololá	2	Febrero	2023-02-13T00:00:00	2024-11-08T07:00:00	1	Precipitación	0
6248	7	Sololá	701	Sololá	1	Sololá	2	Febrero	2023-02-13T00:00:00	2024-11-08T07:00:00	8	Radiación solar	9
6249	7	Sololá	701	Sololá	1	Sololá	2	Febrero	2023-02-13T00:00:00	2024-11-08T08:00:00	2	Temperatura media	13.6
6250	7	Sololá	701	Sololá	1	Sololá	2	Febrero	2023-02-13T00:00:00	2024-11-08T08:00:00	4	Temperatura máxima	13.6
6251	7	Sololá	701	Sololá	1	Sololá	2	Febrero	2023-02-13T00:00:00	2024-11-08T08:00:00	3	Temperatura mínima	12.4
6252	7	Sololá	701	Sololá	1	Sololá	2	Febrero	2023-02-13T00:00:00	2024-11-08T08:00:00	5	Humedad	76
6253	7	Sololá	701	Sololá	1	Sololá	2	Febrero	2023-02-13T00:00:00	2024-11-08T08:00:00	6	Velocidad del viento	20.9
6254	7	Sololá	701	Sololá	1	Sololá	2	Febrero	2023-02-13T00:00:00	2024-11-08T08:00:00	7	Dirección del viento	20.92
6255	7	Sololá	701	Sololá	1	Sololá	2	Febrero	2023-02-13T00:00:00	2024-11-08T08:00:00	1	Precipitación	0
6256	7	Sololá	701	Sololá	1	Sololá	2	Febrero	2023-02-13T00:00:00	2024-11-08T08:00:00	8	Radiación solar	136
6257	7	Sololá	701	Sololá	1	Sololá	2	Febrero	2023-02-13T00:00:00	2024-11-08T09:00:00	2	Temperatura media	14.6
6258	7	Sololá	701	Sololá	1	Sololá	2	Febrero	2023-02-13T00:00:00	2024-11-08T09:00:00	4	Temperatura máxima	14.6
6259	7	Sololá	701	Sololá	1	Sololá	2	Febrero	2023-02-13T00:00:00	2024-11-08T09:00:00	3	Temperatura mínima	13.6
6260	7	Sololá	701	Sololá	1	Sololá	2	Febrero	2023-02-13T00:00:00	2024-11-08T09:00:00	5	Humedad	73
6261	7	Sololá	701	Sololá	1	Sololá	2	Febrero	2023-02-13T00:00:00	2024-11-08T09:00:00	6	Velocidad del viento	27.4
6262	7	Sololá	701	Sololá	1	Sololá	2	Febrero	2023-02-13T00:00:00	2024-11-08T09:00:00	7	Dirección del viento	27.36
6263	7	Sololá	701	Sololá	1	Sololá	2	Febrero	2023-02-13T00:00:00	2024-11-08T09:00:00	1	Precipitación	0
6264	7	Sololá	701	Sololá	1	Sololá	2	Febrero	2023-02-13T00:00:00	2024-11-08T09:00:00	8	Radiación solar	311
6265	7	Sololá	701	Sololá	1	Sololá	2	Febrero	2023-02-13T00:00:00	2024-11-08T10:00:00	2	Temperatura media	16.7
6266	7	Sololá	701	Sololá	1	Sololá	2	Febrero	2023-02-13T00:00:00	2024-11-08T10:00:00	4	Temperatura máxima	16.7
6267	7	Sololá	701	Sololá	1	Sololá	2	Febrero	2023-02-13T00:00:00	2024-11-08T10:00:00	3	Temperatura mínima	14.6
6268	7	Sololá	701	Sololá	1	Sololá	2	Febrero	2023-02-13T00:00:00	2024-11-08T10:00:00	5	Humedad	66
6269	7	Sololá	701	Sololá	1	Sololá	2	Febrero	2023-02-13T00:00:00	2024-11-08T10:00:00	6	Velocidad del viento	19.3
6270	7	Sololá	701	Sololá	1	Sololá	2	Febrero	2023-02-13T00:00:00	2024-11-08T10:00:00	7	Dirección del viento	19.31
6271	7	Sololá	701	Sololá	1	Sololá	2	Febrero	2023-02-13T00:00:00	2024-11-08T10:00:00	1	Precipitación	0
6272	7	Sololá	701	Sololá	1	Sololá	2	Febrero	2023-02-13T00:00:00	2024-11-08T10:00:00	8	Radiación solar	327
6273	7	Sololá	701	Sololá	1	Sololá	2	Febrero	2023-02-13T00:00:00	2024-11-08T11:00:00	2	Temperatura media	18.4
6274	7	Sololá	701	Sololá	1	Sololá	2	Febrero	2023-02-13T00:00:00	2024-11-08T11:00:00	4	Temperatura máxima	18.5
6275	7	Sololá	701	Sololá	1	Sololá	2	Febrero	2023-02-13T00:00:00	2024-11-08T11:00:00	3	Temperatura mínima	16.7
6276	7	Sololá	701	Sololá	1	Sololá	2	Febrero	2023-02-13T00:00:00	2024-11-08T11:00:00	5	Humedad	61
6277	7	Sololá	701	Sololá	1	Sololá	2	Febrero	2023-02-13T00:00:00	2024-11-08T11:00:00	6	Velocidad del viento	12.9
6278	7	Sololá	701	Sololá	1	Sololá	2	Febrero	2023-02-13T00:00:00	2024-11-08T11:00:00	7	Dirección del viento	12.87
6279	7	Sololá	701	Sololá	1	Sololá	2	Febrero	2023-02-13T00:00:00	2024-11-08T11:00:00	1	Precipitación	0
6280	7	Sololá	701	Sololá	1	Sololá	2	Febrero	2023-02-13T00:00:00	2024-11-08T11:00:00	8	Radiación solar	298
6281	7	Sololá	701	Sololá	1	Sololá	2	Febrero	2023-02-13T00:00:00	2024-11-08T12:00:00	2	Temperatura media	19.1
6282	7	Sololá	701	Sololá	1	Sololá	2	Febrero	2023-02-13T00:00:00	2024-11-08T12:00:00	4	Temperatura máxima	19.5
6283	7	Sololá	701	Sololá	1	Sololá	2	Febrero	2023-02-13T00:00:00	2024-11-08T12:00:00	3	Temperatura mínima	18.2
6284	7	Sololá	701	Sololá	1	Sololá	2	Febrero	2023-02-13T00:00:00	2024-11-08T12:00:00	5	Humedad	57
6285	7	Sololá	701	Sololá	1	Sololá	2	Febrero	2023-02-13T00:00:00	2024-11-08T12:00:00	6	Velocidad del viento	11.3
6286	7	Sololá	701	Sololá	1	Sololá	2	Febrero	2023-02-13T00:00:00	2024-11-08T12:00:00	7	Dirección del viento	11.27
6287	7	Sololá	701	Sololá	1	Sololá	2	Febrero	2023-02-13T00:00:00	2024-11-08T12:00:00	1	Precipitación	0
6288	7	Sololá	701	Sololá	1	Sololá	2	Febrero	2023-02-13T00:00:00	2024-11-08T12:00:00	8	Radiación solar	342
6289	7	Sololá	701	Sololá	1	Sololá	2	Febrero	2023-02-13T00:00:00	2024-11-08T13:00:00	2	Temperatura media	20.1
6290	7	Sololá	701	Sololá	1	Sololá	2	Febrero	2023-02-13T00:00:00	2024-11-08T13:00:00	4	Temperatura máxima	20.3
6291	7	Sololá	701	Sololá	1	Sololá	2	Febrero	2023-02-13T00:00:00	2024-11-08T13:00:00	3	Temperatura mínima	19.1
6292	7	Sololá	701	Sololá	1	Sololá	2	Febrero	2023-02-13T00:00:00	2024-11-08T13:00:00	5	Humedad	50
6293	7	Sololá	701	Sololá	1	Sololá	2	Febrero	2023-02-13T00:00:00	2024-11-08T13:00:00	6	Velocidad del viento	9.7
6294	7	Sololá	701	Sololá	1	Sololá	2	Febrero	2023-02-13T00:00:00	2024-11-08T13:00:00	7	Dirección del viento	9.66
6295	7	Sololá	701	Sololá	1	Sololá	2	Febrero	2023-02-13T00:00:00	2024-11-08T13:00:00	1	Precipitación	0
6296	7	Sololá	701	Sololá	1	Sololá	2	Febrero	2023-02-13T00:00:00	2024-11-08T13:00:00	8	Radiación solar	303
6297	7	Sololá	701	Sololá	1	Sololá	2	Febrero	2023-02-13T00:00:00	2024-11-08T14:00:00	2	Temperatura media	21.1
6298	7	Sololá	701	Sololá	1	Sololá	2	Febrero	2023-02-13T00:00:00	2024-11-08T14:00:00	4	Temperatura máxima	21.1
6299	7	Sololá	701	Sololá	1	Sololá	2	Febrero	2023-02-13T00:00:00	2024-11-08T14:00:00	3	Temperatura mínima	19.5
6300	7	Sololá	701	Sololá	1	Sololá	2	Febrero	2023-02-13T00:00:00	2024-11-08T14:00:00	5	Humedad	48
6301	7	Sololá	701	Sololá	1	Sololá	2	Febrero	2023-02-13T00:00:00	2024-11-08T14:00:00	6	Velocidad del viento	9.7
6302	7	Sololá	701	Sololá	1	Sololá	2	Febrero	2023-02-13T00:00:00	2024-11-08T14:00:00	7	Dirección del viento	9.66
6303	7	Sololá	701	Sololá	1	Sololá	2	Febrero	2023-02-13T00:00:00	2024-11-08T14:00:00	1	Precipitación	0
6304	7	Sololá	701	Sololá	1	Sololá	2	Febrero	2023-02-13T00:00:00	2024-11-08T14:00:00	8	Radiación solar	211
6305	7	Sololá	701	Sololá	1	Sololá	2	Febrero	2023-02-13T00:00:00	2024-11-08T15:00:00	2	Temperatura media	20.9
6306	7	Sololá	701	Sololá	1	Sololá	2	Febrero	2023-02-13T00:00:00	2024-11-08T15:00:00	4	Temperatura máxima	21.8
6307	7	Sololá	701	Sololá	1	Sololá	2	Febrero	2023-02-13T00:00:00	2024-11-08T15:00:00	3	Temperatura mínima	20.9
6308	7	Sololá	701	Sololá	1	Sololá	2	Febrero	2023-02-13T00:00:00	2024-11-08T15:00:00	5	Humedad	47
6309	7	Sololá	701	Sololá	1	Sololá	2	Febrero	2023-02-13T00:00:00	2024-11-08T15:00:00	6	Velocidad del viento	11.3
6310	7	Sololá	701	Sololá	1	Sololá	2	Febrero	2023-02-13T00:00:00	2024-11-08T15:00:00	7	Dirección del viento	11.27
6311	7	Sololá	701	Sololá	1	Sololá	2	Febrero	2023-02-13T00:00:00	2024-11-08T15:00:00	1	Precipitación	0
6312	7	Sololá	701	Sololá	1	Sololá	2	Febrero	2023-02-13T00:00:00	2024-11-08T15:00:00	8	Radiación solar	232
6313	7	Sololá	701	Sololá	1	Sololá	2	Febrero	2023-02-13T00:00:00	2024-11-08T16:00:00	2	Temperatura media	20.8
6314	7	Sololá	701	Sololá	1	Sololá	2	Febrero	2023-02-13T00:00:00	2024-11-08T16:00:00	4	Temperatura máxima	21.7
6315	7	Sololá	701	Sololá	1	Sololá	2	Febrero	2023-02-13T00:00:00	2024-11-08T16:00:00	3	Temperatura mínima	20.7
6316	7	Sololá	701	Sololá	1	Sololá	2	Febrero	2023-02-13T00:00:00	2024-11-08T16:00:00	5	Humedad	45
6317	7	Sololá	701	Sololá	1	Sololá	2	Febrero	2023-02-13T00:00:00	2024-11-08T16:00:00	6	Velocidad del viento	8
6318	7	Sololá	701	Sololá	1	Sololá	2	Febrero	2023-02-13T00:00:00	2024-11-08T16:00:00	7	Dirección del viento	8.05
6319	7	Sololá	701	Sololá	1	Sololá	2	Febrero	2023-02-13T00:00:00	2024-11-08T16:00:00	1	Precipitación	0
6320	7	Sololá	701	Sololá	1	Sololá	2	Febrero	2023-02-13T00:00:00	2024-11-08T16:00:00	8	Radiación solar	126
6321	7	Sololá	701	Sololá	1	Sololá	2	Febrero	2023-02-13T00:00:00	2024-11-08T17:00:00	2	Temperatura media	19.8
6322	7	Sololá	701	Sololá	1	Sololá	2	Febrero	2023-02-13T00:00:00	2024-11-08T17:00:00	4	Temperatura máxima	20.9
6323	7	Sololá	701	Sololá	1	Sololá	2	Febrero	2023-02-13T00:00:00	2024-11-08T17:00:00	3	Temperatura mínima	19.6
6324	7	Sololá	701	Sololá	1	Sololá	2	Febrero	2023-02-13T00:00:00	2024-11-08T17:00:00	5	Humedad	52
6325	7	Sololá	701	Sololá	1	Sololá	2	Febrero	2023-02-13T00:00:00	2024-11-08T17:00:00	6	Velocidad del viento	11.3
6326	7	Sololá	701	Sololá	1	Sololá	2	Febrero	2023-02-13T00:00:00	2024-11-08T17:00:00	7	Dirección del viento	11.27
6327	7	Sololá	701	Sololá	1	Sololá	2	Febrero	2023-02-13T00:00:00	2024-11-08T17:00:00	1	Precipitación	0
6328	7	Sololá	701	Sololá	1	Sololá	2	Febrero	2023-02-13T00:00:00	2024-11-08T17:00:00	8	Radiación solar	60
6329	7	Sololá	701	Sololá	1	Sololá	2	Febrero	2023-02-13T00:00:00	2024-11-08T18:00:00	2	Temperatura media	17.1
6330	7	Sololá	701	Sololá	1	Sololá	2	Febrero	2023-02-13T00:00:00	2024-11-08T18:00:00	4	Temperatura máxima	19.8
6331	7	Sololá	701	Sololá	1	Sololá	2	Febrero	2023-02-13T00:00:00	2024-11-08T18:00:00	3	Temperatura mínima	17.1
6332	7	Sololá	701	Sololá	1	Sololá	2	Febrero	2023-02-13T00:00:00	2024-11-08T18:00:00	5	Humedad	60
6333	7	Sololá	701	Sololá	1	Sololá	2	Febrero	2023-02-13T00:00:00	2024-11-08T18:00:00	6	Velocidad del viento	12.9
6334	7	Sololá	701	Sololá	1	Sololá	2	Febrero	2023-02-13T00:00:00	2024-11-08T18:00:00	7	Dirección del viento	12.87
6335	7	Sololá	701	Sololá	1	Sololá	2	Febrero	2023-02-13T00:00:00	2024-11-08T18:00:00	1	Precipitación	0
6336	7	Sololá	701	Sololá	1	Sololá	2	Febrero	2023-02-13T00:00:00	2024-11-08T18:00:00	8	Radiación solar	16
6337	7	Sololá	701	Sololá	1	Sololá	2	Febrero	2023-02-13T00:00:00	2024-11-08T19:00:00	2	Temperatura media	16
6338	7	Sololá	701	Sololá	1	Sololá	2	Febrero	2023-02-13T00:00:00	2024-11-08T19:00:00	4	Temperatura máxima	17.1
6339	7	Sololá	701	Sololá	1	Sololá	2	Febrero	2023-02-13T00:00:00	2024-11-08T19:00:00	3	Temperatura mínima	15.9
6340	7	Sololá	701	Sololá	1	Sololá	2	Febrero	2023-02-13T00:00:00	2024-11-08T19:00:00	5	Humedad	67
6341	7	Sololá	701	Sololá	1	Sololá	2	Febrero	2023-02-13T00:00:00	2024-11-08T19:00:00	6	Velocidad del viento	8
6342	7	Sololá	701	Sololá	1	Sololá	2	Febrero	2023-02-13T00:00:00	2024-11-08T19:00:00	7	Dirección del viento	8.05
6343	7	Sololá	701	Sololá	1	Sololá	2	Febrero	2023-02-13T00:00:00	2024-11-08T19:00:00	1	Precipitación	0
6344	7	Sololá	701	Sololá	1	Sololá	2	Febrero	2023-02-13T00:00:00	2024-11-08T19:00:00	8	Radiación solar	0
6345	7	Sololá	701	Sololá	1	Sololá	2	Febrero	2023-02-13T00:00:00	2024-11-08T20:00:00	2	Temperatura media	14.9
6346	7	Sololá	701	Sololá	1	Sololá	2	Febrero	2023-02-13T00:00:00	2024-11-08T20:00:00	4	Temperatura máxima	16
6347	7	Sololá	701	Sololá	1	Sololá	2	Febrero	2023-02-13T00:00:00	2024-11-08T20:00:00	3	Temperatura mínima	14.9
6348	7	Sololá	701	Sololá	1	Sololá	2	Febrero	2023-02-13T00:00:00	2024-11-08T20:00:00	5	Humedad	72
6349	7	Sololá	701	Sololá	1	Sololá	2	Febrero	2023-02-13T00:00:00	2024-11-08T20:00:00	6	Velocidad del viento	9.7
6350	7	Sololá	701	Sololá	1	Sololá	2	Febrero	2023-02-13T00:00:00	2024-11-08T20:00:00	7	Dirección del viento	9.66
6351	7	Sololá	701	Sololá	1	Sololá	2	Febrero	2023-02-13T00:00:00	2024-11-08T20:00:00	1	Precipitación	0
6352	7	Sololá	701	Sololá	1	Sololá	2	Febrero	2023-02-13T00:00:00	2024-11-08T20:00:00	8	Radiación solar	0
6353	7	Sololá	701	Sololá	1	Sololá	2	Febrero	2023-02-13T00:00:00	2024-11-08T21:00:00	2	Temperatura media	14.5
6354	7	Sololá	701	Sololá	1	Sololá	2	Febrero	2023-02-13T00:00:00	2024-11-08T21:00:00	4	Temperatura máxima	14.9
6355	7	Sololá	701	Sololá	1	Sololá	2	Febrero	2023-02-13T00:00:00	2024-11-08T21:00:00	3	Temperatura mínima	14.3
6356	7	Sololá	701	Sololá	1	Sololá	2	Febrero	2023-02-13T00:00:00	2024-11-08T21:00:00	5	Humedad	71
6357	7	Sololá	701	Sololá	1	Sololá	2	Febrero	2023-02-13T00:00:00	2024-11-08T21:00:00	6	Velocidad del viento	6.4
6358	7	Sololá	701	Sololá	1	Sololá	2	Febrero	2023-02-13T00:00:00	2024-11-08T21:00:00	7	Dirección del viento	6.44
6359	7	Sololá	701	Sololá	1	Sololá	2	Febrero	2023-02-13T00:00:00	2024-11-08T21:00:00	1	Precipitación	0
6360	7	Sololá	701	Sololá	1	Sololá	2	Febrero	2023-02-13T00:00:00	2024-11-08T21:00:00	8	Radiación solar	0
6361	7	Sololá	701	Sololá	1	Sololá	2	Febrero	2023-02-13T00:00:00	2024-11-08T22:00:00	2	Temperatura media	13.3
6362	7	Sololá	701	Sololá	1	Sololá	2	Febrero	2023-02-13T00:00:00	2024-11-08T22:00:00	4	Temperatura máxima	14.6
6363	7	Sololá	701	Sololá	1	Sololá	2	Febrero	2023-02-13T00:00:00	2024-11-08T22:00:00	3	Temperatura mínima	13.3
6364	7	Sololá	701	Sololá	1	Sololá	2	Febrero	2023-02-13T00:00:00	2024-11-08T22:00:00	5	Humedad	74
6365	7	Sololá	701	Sololá	1	Sololá	2	Febrero	2023-02-13T00:00:00	2024-11-08T22:00:00	6	Velocidad del viento	6.4
6366	7	Sololá	701	Sololá	1	Sololá	2	Febrero	2023-02-13T00:00:00	2024-11-08T22:00:00	7	Dirección del viento	6.44
6367	7	Sololá	701	Sololá	1	Sololá	2	Febrero	2023-02-13T00:00:00	2024-11-08T22:00:00	1	Precipitación	0
6368	7	Sololá	701	Sololá	1	Sololá	2	Febrero	2023-02-13T00:00:00	2024-11-08T22:00:00	8	Radiación solar	0
6369	7	Sololá	701	Sololá	1	Sololá	2	Febrero	2023-02-13T00:00:00	2024-11-08T23:00:00	2	Temperatura media	11.8
6370	7	Sololá	701	Sololá	1	Sololá	2	Febrero	2023-02-13T00:00:00	2024-11-08T23:00:00	4	Temperatura máxima	13.3
6371	7	Sololá	701	Sololá	1	Sololá	2	Febrero	2023-02-13T00:00:00	2024-11-08T23:00:00	3	Temperatura mínima	11.8
6372	7	Sololá	701	Sololá	1	Sololá	2	Febrero	2023-02-13T00:00:00	2024-11-08T23:00:00	5	Humedad	75
6373	7	Sololá	701	Sololá	1	Sololá	2	Febrero	2023-02-13T00:00:00	2024-11-08T23:00:00	6	Velocidad del viento	6.4
6374	7	Sololá	701	Sololá	1	Sololá	2	Febrero	2023-02-13T00:00:00	2024-11-08T23:00:00	7	Dirección del viento	6.44
6375	7	Sololá	701	Sololá	1	Sololá	2	Febrero	2023-02-13T00:00:00	2024-11-08T23:00:00	1	Precipitación	0
6376	7	Sololá	701	Sololá	1	Sololá	2	Febrero	2023-02-13T00:00:00	2024-11-08T23:00:00	8	Radiación solar	0
6377	7	Sololá	701	Sololá	1	Sololá	2	Febrero	2023-02-14T00:00:00	2024-11-08T00:00:00	2	Temperatura media	11.9
6378	7	Sololá	701	Sololá	1	Sololá	2	Febrero	2023-02-14T00:00:00	2024-11-08T00:00:00	4	Temperatura máxima	12.1
6379	7	Sololá	701	Sololá	1	Sololá	2	Febrero	2023-02-14T00:00:00	2024-11-08T00:00:00	3	Temperatura mínima	11.2
6380	7	Sololá	701	Sololá	1	Sololá	2	Febrero	2023-02-14T00:00:00	2024-11-08T00:00:00	5	Humedad	69
6381	7	Sololá	701	Sololá	1	Sololá	2	Febrero	2023-02-14T00:00:00	2024-11-08T00:00:00	6	Velocidad del viento	8
6382	7	Sololá	701	Sololá	1	Sololá	2	Febrero	2023-02-14T00:00:00	2024-11-08T00:00:00	7	Dirección del viento	8.05
6383	7	Sololá	701	Sololá	1	Sololá	2	Febrero	2023-02-14T00:00:00	2024-11-08T00:00:00	1	Precipitación	0
6384	7	Sololá	701	Sololá	1	Sololá	2	Febrero	2023-02-14T00:00:00	2024-11-08T00:00:00	8	Radiación solar	0
6385	7	Sololá	701	Sololá	1	Sololá	2	Febrero	2023-02-14T00:00:00	2024-11-08T01:00:00	2	Temperatura media	10.9
6386	7	Sololá	701	Sololá	1	Sololá	2	Febrero	2023-02-14T00:00:00	2024-11-08T01:00:00	4	Temperatura máxima	11.8
6387	7	Sololá	701	Sololá	1	Sololá	2	Febrero	2023-02-14T00:00:00	2024-11-08T01:00:00	3	Temperatura mínima	10.6
6388	7	Sololá	701	Sololá	1	Sololá	2	Febrero	2023-02-14T00:00:00	2024-11-08T01:00:00	5	Humedad	73
6389	7	Sololá	701	Sololá	1	Sololá	2	Febrero	2023-02-14T00:00:00	2024-11-08T01:00:00	6	Velocidad del viento	4.8
6390	7	Sololá	701	Sololá	1	Sololá	2	Febrero	2023-02-14T00:00:00	2024-11-08T01:00:00	7	Dirección del viento	4.83
6391	7	Sololá	701	Sololá	1	Sololá	2	Febrero	2023-02-14T00:00:00	2024-11-08T01:00:00	1	Precipitación	0
6392	7	Sololá	701	Sololá	1	Sololá	2	Febrero	2023-02-14T00:00:00	2024-11-08T01:00:00	8	Radiación solar	0
6393	7	Sololá	701	Sololá	1	Sololá	2	Febrero	2023-02-14T00:00:00	2024-11-08T02:00:00	2	Temperatura media	10.4
6394	7	Sololá	701	Sololá	1	Sololá	2	Febrero	2023-02-14T00:00:00	2024-11-08T02:00:00	4	Temperatura máxima	11
6395	7	Sololá	701	Sololá	1	Sololá	2	Febrero	2023-02-14T00:00:00	2024-11-08T02:00:00	3	Temperatura mínima	10.4
6396	7	Sololá	701	Sololá	1	Sololá	2	Febrero	2023-02-14T00:00:00	2024-11-08T02:00:00	5	Humedad	71
6397	7	Sololá	701	Sololá	1	Sololá	2	Febrero	2023-02-14T00:00:00	2024-11-08T02:00:00	6	Velocidad del viento	3.2
6398	7	Sololá	701	Sololá	1	Sololá	2	Febrero	2023-02-14T00:00:00	2024-11-08T02:00:00	7	Dirección del viento	3.22
6399	7	Sololá	701	Sololá	1	Sololá	2	Febrero	2023-02-14T00:00:00	2024-11-08T02:00:00	1	Precipitación	0
6400	7	Sololá	701	Sololá	1	Sololá	2	Febrero	2023-02-14T00:00:00	2024-11-08T02:00:00	8	Radiación solar	0
6401	7	Sololá	701	Sololá	1	Sololá	2	Febrero	2023-02-14T00:00:00	2024-11-08T03:00:00	2	Temperatura media	11.7
6402	7	Sololá	701	Sololá	1	Sololá	2	Febrero	2023-02-14T00:00:00	2024-11-08T03:00:00	4	Temperatura máxima	11.7
6403	7	Sololá	701	Sololá	1	Sololá	2	Febrero	2023-02-14T00:00:00	2024-11-08T03:00:00	3	Temperatura mínima	10.4
6404	7	Sololá	701	Sololá	1	Sololá	2	Febrero	2023-02-14T00:00:00	2024-11-08T03:00:00	5	Humedad	68
6405	7	Sololá	701	Sololá	1	Sololá	2	Febrero	2023-02-14T00:00:00	2024-11-08T03:00:00	6	Velocidad del viento	6.4
6406	7	Sololá	701	Sololá	1	Sololá	2	Febrero	2023-02-14T00:00:00	2024-11-08T03:00:00	7	Dirección del viento	6.44
6407	7	Sololá	701	Sololá	1	Sololá	2	Febrero	2023-02-14T00:00:00	2024-11-08T03:00:00	1	Precipitación	0
6408	7	Sololá	701	Sololá	1	Sololá	2	Febrero	2023-02-14T00:00:00	2024-11-08T03:00:00	8	Radiación solar	0
6409	7	Sololá	701	Sololá	1	Sololá	2	Febrero	2023-02-14T00:00:00	2024-11-08T04:00:00	2	Temperatura media	11.4
6410	7	Sololá	701	Sololá	1	Sololá	2	Febrero	2023-02-14T00:00:00	2024-11-08T04:00:00	4	Temperatura máxima	11.9
6411	7	Sololá	701	Sololá	1	Sololá	2	Febrero	2023-02-14T00:00:00	2024-11-08T04:00:00	3	Temperatura mínima	11.2
6412	7	Sololá	701	Sololá	1	Sololá	2	Febrero	2023-02-14T00:00:00	2024-11-08T04:00:00	5	Humedad	70
6413	7	Sololá	701	Sololá	1	Sololá	2	Febrero	2023-02-14T00:00:00	2024-11-08T04:00:00	6	Velocidad del viento	3.2
6414	7	Sololá	701	Sololá	1	Sololá	2	Febrero	2023-02-14T00:00:00	2024-11-08T04:00:00	7	Dirección del viento	3.22
6415	7	Sololá	701	Sololá	1	Sololá	2	Febrero	2023-02-14T00:00:00	2024-11-08T04:00:00	1	Precipitación	0
6416	7	Sololá	701	Sololá	1	Sololá	2	Febrero	2023-02-14T00:00:00	2024-11-08T04:00:00	8	Radiación solar	0
6417	7	Sololá	701	Sololá	1	Sololá	2	Febrero	2023-02-14T00:00:00	2024-11-08T05:00:00	2	Temperatura media	10.2
6418	7	Sololá	701	Sololá	1	Sololá	2	Febrero	2023-02-14T00:00:00	2024-11-08T05:00:00	4	Temperatura máxima	11.4
6419	7	Sololá	701	Sololá	1	Sololá	2	Febrero	2023-02-14T00:00:00	2024-11-08T05:00:00	3	Temperatura mínima	10.2
6420	7	Sololá	701	Sololá	1	Sololá	2	Febrero	2023-02-14T00:00:00	2024-11-08T05:00:00	5	Humedad	75
6421	7	Sololá	701	Sololá	1	Sololá	2	Febrero	2023-02-14T00:00:00	2024-11-08T05:00:00	6	Velocidad del viento	3.2
6422	7	Sololá	701	Sololá	1	Sololá	2	Febrero	2023-02-14T00:00:00	2024-11-08T05:00:00	7	Dirección del viento	3.22
6423	7	Sololá	701	Sololá	1	Sololá	2	Febrero	2023-02-14T00:00:00	2024-11-08T05:00:00	1	Precipitación	0
6424	7	Sololá	701	Sololá	1	Sololá	2	Febrero	2023-02-14T00:00:00	2024-11-08T05:00:00	8	Radiación solar	0
6425	7	Sololá	701	Sololá	1	Sololá	2	Febrero	2023-02-14T00:00:00	2024-11-08T06:00:00	2	Temperatura media	10.8
6426	7	Sololá	701	Sololá	1	Sololá	2	Febrero	2023-02-14T00:00:00	2024-11-08T06:00:00	4	Temperatura máxima	10.8
6427	7	Sololá	701	Sololá	1	Sololá	2	Febrero	2023-02-14T00:00:00	2024-11-08T06:00:00	3	Temperatura mínima	10.1
6428	7	Sololá	701	Sololá	1	Sololá	2	Febrero	2023-02-14T00:00:00	2024-11-08T06:00:00	5	Humedad	73
6429	7	Sololá	701	Sololá	1	Sololá	2	Febrero	2023-02-14T00:00:00	2024-11-08T06:00:00	6	Velocidad del viento	3.2
6430	7	Sololá	701	Sololá	1	Sololá	2	Febrero	2023-02-14T00:00:00	2024-11-08T06:00:00	7	Dirección del viento	3.22
6431	7	Sololá	701	Sololá	1	Sololá	2	Febrero	2023-02-14T00:00:00	2024-11-08T06:00:00	1	Precipitación	0
6432	7	Sololá	701	Sololá	1	Sololá	2	Febrero	2023-02-14T00:00:00	2024-11-08T06:00:00	8	Radiación solar	0
6433	7	Sololá	701	Sololá	1	Sololá	2	Febrero	2023-02-14T00:00:00	2024-11-08T07:00:00	2	Temperatura media	11.5
6434	7	Sololá	701	Sololá	1	Sololá	2	Febrero	2023-02-14T00:00:00	2024-11-08T07:00:00	4	Temperatura máxima	11.5
6435	7	Sololá	701	Sololá	1	Sololá	2	Febrero	2023-02-14T00:00:00	2024-11-08T07:00:00	3	Temperatura mínima	10.2
6436	7	Sololá	701	Sololá	1	Sololá	2	Febrero	2023-02-14T00:00:00	2024-11-08T07:00:00	5	Humedad	72
6437	7	Sololá	701	Sololá	1	Sololá	2	Febrero	2023-02-14T00:00:00	2024-11-08T07:00:00	6	Velocidad del viento	4.8
6438	7	Sololá	701	Sololá	1	Sololá	2	Febrero	2023-02-14T00:00:00	2024-11-08T07:00:00	7	Dirección del viento	4.83
6439	7	Sololá	701	Sololá	1	Sololá	2	Febrero	2023-02-14T00:00:00	2024-11-08T07:00:00	1	Precipitación	0
6440	7	Sololá	701	Sololá	1	Sololá	2	Febrero	2023-02-14T00:00:00	2024-11-08T07:00:00	8	Radiación solar	3
6441	7	Sololá	701	Sololá	1	Sololá	2	Febrero	2023-02-14T00:00:00	2024-11-08T08:00:00	2	Temperatura media	15.1
6442	7	Sololá	701	Sololá	1	Sololá	2	Febrero	2023-02-14T00:00:00	2024-11-08T08:00:00	4	Temperatura máxima	15.1
6443	7	Sololá	701	Sololá	1	Sololá	2	Febrero	2023-02-14T00:00:00	2024-11-08T08:00:00	3	Temperatura mínima	11.5
6444	7	Sololá	701	Sololá	1	Sololá	2	Febrero	2023-02-14T00:00:00	2024-11-08T08:00:00	5	Humedad	61
6445	7	Sololá	701	Sololá	1	Sololá	2	Febrero	2023-02-14T00:00:00	2024-11-08T08:00:00	6	Velocidad del viento	3.2
6446	7	Sololá	701	Sololá	1	Sololá	2	Febrero	2023-02-14T00:00:00	2024-11-08T08:00:00	7	Dirección del viento	3.22
6447	7	Sololá	701	Sololá	1	Sololá	2	Febrero	2023-02-14T00:00:00	2024-11-08T08:00:00	1	Precipitación	0
6448	7	Sololá	701	Sololá	1	Sololá	2	Febrero	2023-02-14T00:00:00	2024-11-08T08:00:00	8	Radiación solar	25
6449	7	Sololá	701	Sololá	1	Sololá	2	Febrero	2023-02-14T00:00:00	2024-11-08T09:00:00	2	Temperatura media	17.5
6450	7	Sololá	701	Sololá	1	Sololá	2	Febrero	2023-02-14T00:00:00	2024-11-08T09:00:00	4	Temperatura máxima	17.5
6451	7	Sololá	701	Sololá	1	Sololá	2	Febrero	2023-02-14T00:00:00	2024-11-08T09:00:00	3	Temperatura mínima	15
6452	7	Sololá	701	Sololá	1	Sololá	2	Febrero	2023-02-14T00:00:00	2024-11-08T09:00:00	5	Humedad	62
6453	7	Sololá	701	Sololá	1	Sololá	2	Febrero	2023-02-14T00:00:00	2024-11-08T09:00:00	6	Velocidad del viento	1.6
6454	7	Sololá	701	Sololá	1	Sololá	2	Febrero	2023-02-14T00:00:00	2024-11-08T09:00:00	7	Dirección del viento	1.61
6455	7	Sololá	701	Sololá	1	Sololá	2	Febrero	2023-02-14T00:00:00	2024-11-08T09:00:00	1	Precipitación	0
6456	7	Sololá	701	Sololá	1	Sololá	2	Febrero	2023-02-14T00:00:00	2024-11-08T09:00:00	8	Radiación solar	360
6457	7	Sololá	701	Sololá	1	Sololá	2	Febrero	2023-02-14T00:00:00	2024-11-08T10:00:00	2	Temperatura media	18.2
6458	7	Sololá	701	Sololá	1	Sololá	2	Febrero	2023-02-14T00:00:00	2024-11-08T10:00:00	4	Temperatura máxima	18.6
6459	7	Sololá	701	Sololá	1	Sololá	2	Febrero	2023-02-14T00:00:00	2024-11-08T10:00:00	3	Temperatura mínima	17.5
6460	7	Sololá	701	Sololá	1	Sololá	2	Febrero	2023-02-14T00:00:00	2024-11-08T10:00:00	5	Humedad	61
6461	7	Sololá	701	Sololá	1	Sololá	2	Febrero	2023-02-14T00:00:00	2024-11-08T10:00:00	6	Velocidad del viento	3.2
6462	7	Sololá	701	Sololá	1	Sololá	2	Febrero	2023-02-14T00:00:00	2024-11-08T10:00:00	7	Dirección del viento	3.22
6463	7	Sololá	701	Sololá	1	Sololá	2	Febrero	2023-02-14T00:00:00	2024-11-08T10:00:00	1	Precipitación	0
6464	7	Sololá	701	Sololá	1	Sololá	2	Febrero	2023-02-14T00:00:00	2024-11-08T10:00:00	8	Radiación solar	672
6465	7	Sololá	701	Sololá	1	Sololá	2	Febrero	2023-02-14T00:00:00	2024-11-08T11:00:00	2	Temperatura media	19.4
6466	7	Sololá	701	Sololá	1	Sololá	2	Febrero	2023-02-14T00:00:00	2024-11-08T11:00:00	4	Temperatura máxima	19.5
6467	7	Sololá	701	Sololá	1	Sololá	2	Febrero	2023-02-14T00:00:00	2024-11-08T11:00:00	3	Temperatura mínima	18.2
6468	7	Sololá	701	Sololá	1	Sololá	2	Febrero	2023-02-14T00:00:00	2024-11-08T11:00:00	5	Humedad	56
6469	7	Sololá	701	Sololá	1	Sololá	2	Febrero	2023-02-14T00:00:00	2024-11-08T11:00:00	6	Velocidad del viento	4.8
6470	7	Sololá	701	Sololá	1	Sololá	2	Febrero	2023-02-14T00:00:00	2024-11-08T11:00:00	7	Dirección del viento	4.83
6471	7	Sololá	701	Sololá	1	Sololá	2	Febrero	2023-02-14T00:00:00	2024-11-08T11:00:00	1	Precipitación	0
6472	7	Sololá	701	Sololá	1	Sololá	2	Febrero	2023-02-14T00:00:00	2024-11-08T11:00:00	8	Radiación solar	826
6473	7	Sololá	701	Sololá	1	Sololá	2	Febrero	2023-02-14T00:00:00	2024-11-08T12:00:00	2	Temperatura media	20.1
6474	7	Sololá	701	Sololá	1	Sololá	2	Febrero	2023-02-14T00:00:00	2024-11-08T12:00:00	4	Temperatura máxima	20.2
6475	7	Sololá	701	Sololá	1	Sololá	2	Febrero	2023-02-14T00:00:00	2024-11-08T12:00:00	3	Temperatura mínima	19.3
6476	7	Sololá	701	Sololá	1	Sololá	2	Febrero	2023-02-14T00:00:00	2024-11-08T12:00:00	5	Humedad	61
6477	7	Sololá	701	Sololá	1	Sololá	2	Febrero	2023-02-14T00:00:00	2024-11-08T12:00:00	6	Velocidad del viento	6.4
6478	7	Sololá	701	Sololá	1	Sololá	2	Febrero	2023-02-14T00:00:00	2024-11-08T12:00:00	7	Dirección del viento	6.44
6479	7	Sololá	701	Sololá	1	Sololá	2	Febrero	2023-02-14T00:00:00	2024-11-08T12:00:00	1	Precipitación	0
6480	7	Sololá	701	Sololá	1	Sololá	2	Febrero	2023-02-14T00:00:00	2024-11-08T12:00:00	8	Radiación solar	915
6481	7	Sololá	701	Sololá	1	Sololá	2	Febrero	2023-02-14T00:00:00	2024-11-08T13:00:00	2	Temperatura media	20
6482	7	Sololá	701	Sololá	1	Sololá	2	Febrero	2023-02-14T00:00:00	2024-11-08T13:00:00	4	Temperatura máxima	20.2
6483	7	Sololá	701	Sololá	1	Sololá	2	Febrero	2023-02-14T00:00:00	2024-11-08T13:00:00	3	Temperatura mínima	19.6
6484	7	Sololá	701	Sololá	1	Sololá	2	Febrero	2023-02-14T00:00:00	2024-11-08T13:00:00	5	Humedad	67
6485	7	Sololá	701	Sololá	1	Sololá	2	Febrero	2023-02-14T00:00:00	2024-11-08T13:00:00	6	Velocidad del viento	8
6486	7	Sololá	701	Sololá	1	Sololá	2	Febrero	2023-02-14T00:00:00	2024-11-08T13:00:00	7	Dirección del viento	8.05
6487	7	Sololá	701	Sololá	1	Sololá	2	Febrero	2023-02-14T00:00:00	2024-11-08T13:00:00	1	Precipitación	0
6488	7	Sololá	701	Sololá	1	Sololá	2	Febrero	2023-02-14T00:00:00	2024-11-08T13:00:00	8	Radiación solar	930
6489	7	Sololá	701	Sololá	1	Sololá	2	Febrero	2023-02-14T00:00:00	2024-11-08T14:00:00	2	Temperatura media	19.9
6490	7	Sololá	701	Sololá	1	Sololá	2	Febrero	2023-02-14T00:00:00	2024-11-08T14:00:00	4	Temperatura máxima	20.3
6491	7	Sololá	701	Sololá	1	Sololá	2	Febrero	2023-02-14T00:00:00	2024-11-08T14:00:00	3	Temperatura mínima	19.8
6492	7	Sololá	701	Sololá	1	Sololá	2	Febrero	2023-02-14T00:00:00	2024-11-08T14:00:00	5	Humedad	66
6493	7	Sololá	701	Sololá	1	Sololá	2	Febrero	2023-02-14T00:00:00	2024-11-08T14:00:00	6	Velocidad del viento	8
6494	7	Sololá	701	Sololá	1	Sololá	2	Febrero	2023-02-14T00:00:00	2024-11-08T14:00:00	7	Dirección del viento	8.05
6495	7	Sololá	701	Sololá	1	Sololá	2	Febrero	2023-02-14T00:00:00	2024-11-08T14:00:00	1	Precipitación	0
6496	7	Sololá	701	Sololá	1	Sololá	2	Febrero	2023-02-14T00:00:00	2024-11-08T14:00:00	8	Radiación solar	672
6497	7	Sololá	701	Sololá	1	Sololá	2	Febrero	2023-02-14T00:00:00	2024-11-08T15:00:00	2	Temperatura media	19.4
6498	7	Sololá	701	Sololá	1	Sololá	2	Febrero	2023-02-14T00:00:00	2024-11-08T15:00:00	4	Temperatura máxima	20.4
6499	7	Sololá	701	Sololá	1	Sololá	2	Febrero	2023-02-14T00:00:00	2024-11-08T15:00:00	3	Temperatura mínima	19.4
6500	7	Sololá	701	Sololá	1	Sololá	2	Febrero	2023-02-14T00:00:00	2024-11-08T15:00:00	5	Humedad	71
6501	7	Sololá	701	Sololá	1	Sololá	2	Febrero	2023-02-14T00:00:00	2024-11-08T15:00:00	6	Velocidad del viento	8
6502	7	Sololá	701	Sololá	1	Sololá	2	Febrero	2023-02-14T00:00:00	2024-11-08T15:00:00	7	Dirección del viento	8.05
6503	7	Sololá	701	Sololá	1	Sololá	2	Febrero	2023-02-14T00:00:00	2024-11-08T15:00:00	1	Precipitación	0
6504	7	Sololá	701	Sololá	1	Sololá	2	Febrero	2023-02-14T00:00:00	2024-11-08T15:00:00	8	Radiación solar	200
6505	7	Sololá	701	Sololá	1	Sololá	2	Febrero	2023-02-14T00:00:00	2024-11-08T16:00:00	2	Temperatura media	18.8
6506	7	Sololá	701	Sololá	1	Sololá	2	Febrero	2023-02-14T00:00:00	2024-11-08T16:00:00	4	Temperatura máxima	19.4
6507	7	Sololá	701	Sololá	1	Sololá	2	Febrero	2023-02-14T00:00:00	2024-11-08T16:00:00	3	Temperatura mínima	18.7
6508	7	Sololá	701	Sololá	1	Sololá	2	Febrero	2023-02-14T00:00:00	2024-11-08T16:00:00	5	Humedad	74
6509	7	Sololá	701	Sololá	1	Sololá	2	Febrero	2023-02-14T00:00:00	2024-11-08T16:00:00	6	Velocidad del viento	6.4
6510	7	Sololá	701	Sololá	1	Sololá	2	Febrero	2023-02-14T00:00:00	2024-11-08T16:00:00	7	Dirección del viento	6.44
6511	7	Sololá	701	Sololá	1	Sololá	2	Febrero	2023-02-14T00:00:00	2024-11-08T16:00:00	1	Precipitación	0
6512	7	Sololá	701	Sololá	1	Sololá	2	Febrero	2023-02-14T00:00:00	2024-11-08T16:00:00	8	Radiación solar	127
6513	7	Sololá	701	Sololá	1	Sololá	2	Febrero	2023-02-14T00:00:00	2024-11-08T17:00:00	2	Temperatura media	18.8
6514	7	Sololá	701	Sololá	1	Sololá	2	Febrero	2023-02-14T00:00:00	2024-11-08T17:00:00	4	Temperatura máxima	19.1
6515	7	Sololá	701	Sololá	1	Sololá	2	Febrero	2023-02-14T00:00:00	2024-11-08T17:00:00	3	Temperatura mínima	18.3
6516	7	Sololá	701	Sololá	1	Sololá	2	Febrero	2023-02-14T00:00:00	2024-11-08T17:00:00	5	Humedad	77
6517	7	Sololá	701	Sololá	1	Sololá	2	Febrero	2023-02-14T00:00:00	2024-11-08T17:00:00	6	Velocidad del viento	4.8
6518	7	Sololá	701	Sololá	1	Sololá	2	Febrero	2023-02-14T00:00:00	2024-11-08T17:00:00	7	Dirección del viento	4.83
6519	7	Sololá	701	Sololá	1	Sololá	2	Febrero	2023-02-14T00:00:00	2024-11-08T17:00:00	1	Precipitación	0
6520	7	Sololá	701	Sololá	1	Sololá	2	Febrero	2023-02-14T00:00:00	2024-11-08T17:00:00	8	Radiación solar	44
6521	7	Sololá	701	Sololá	1	Sololá	2	Febrero	2023-02-14T00:00:00	2024-11-08T18:00:00	2	Temperatura media	16.8
6522	7	Sololá	701	Sololá	1	Sololá	2	Febrero	2023-02-14T00:00:00	2024-11-08T18:00:00	4	Temperatura máxima	18.8
6523	7	Sololá	701	Sololá	1	Sololá	2	Febrero	2023-02-14T00:00:00	2024-11-08T18:00:00	3	Temperatura mínima	16.8
6524	7	Sololá	701	Sololá	1	Sololá	2	Febrero	2023-02-14T00:00:00	2024-11-08T18:00:00	5	Humedad	84
6525	7	Sololá	701	Sololá	1	Sololá	2	Febrero	2023-02-14T00:00:00	2024-11-08T18:00:00	6	Velocidad del viento	3.2
6526	7	Sololá	701	Sololá	1	Sololá	2	Febrero	2023-02-14T00:00:00	2024-11-08T18:00:00	7	Dirección del viento	3.22
6527	7	Sololá	701	Sololá	1	Sololá	2	Febrero	2023-02-14T00:00:00	2024-11-08T18:00:00	1	Precipitación	0
6528	7	Sololá	701	Sololá	1	Sololá	2	Febrero	2023-02-14T00:00:00	2024-11-08T18:00:00	8	Radiación solar	21
6529	7	Sololá	701	Sololá	1	Sololá	2	Febrero	2023-02-14T00:00:00	2024-11-08T19:00:00	2	Temperatura media	15.4
6530	7	Sololá	701	Sololá	1	Sololá	2	Febrero	2023-02-14T00:00:00	2024-11-08T19:00:00	4	Temperatura máxima	16.8
6531	7	Sololá	701	Sololá	1	Sololá	2	Febrero	2023-02-14T00:00:00	2024-11-08T19:00:00	3	Temperatura mínima	15.4
6532	7	Sololá	701	Sololá	1	Sololá	2	Febrero	2023-02-14T00:00:00	2024-11-08T19:00:00	5	Humedad	87
6533	7	Sololá	701	Sololá	1	Sololá	2	Febrero	2023-02-14T00:00:00	2024-11-08T19:00:00	6	Velocidad del viento	1.6
6534	7	Sololá	701	Sololá	1	Sololá	2	Febrero	2023-02-14T00:00:00	2024-11-08T19:00:00	7	Dirección del viento	1.61
6535	7	Sololá	701	Sololá	1	Sololá	2	Febrero	2023-02-14T00:00:00	2024-11-08T19:00:00	1	Precipitación	0
6536	7	Sololá	701	Sololá	1	Sololá	2	Febrero	2023-02-14T00:00:00	2024-11-08T19:00:00	8	Radiación solar	0
6537	7	Sololá	701	Sololá	1	Sololá	2	Febrero	2023-02-14T00:00:00	2024-11-08T20:00:00	2	Temperatura media	14.3
6538	7	Sololá	701	Sololá	1	Sololá	2	Febrero	2023-02-14T00:00:00	2024-11-08T20:00:00	4	Temperatura máxima	15.4
6539	7	Sololá	701	Sololá	1	Sololá	2	Febrero	2023-02-14T00:00:00	2024-11-08T20:00:00	3	Temperatura mínima	14.3
6540	7	Sololá	701	Sololá	1	Sololá	2	Febrero	2023-02-14T00:00:00	2024-11-08T20:00:00	5	Humedad	82
6541	7	Sololá	701	Sololá	1	Sololá	2	Febrero	2023-02-14T00:00:00	2024-11-08T20:00:00	6	Velocidad del viento	6.4
6542	7	Sololá	701	Sololá	1	Sololá	2	Febrero	2023-02-14T00:00:00	2024-11-08T20:00:00	7	Dirección del viento	6.44
6543	7	Sololá	701	Sololá	1	Sololá	2	Febrero	2023-02-14T00:00:00	2024-11-08T20:00:00	1	Precipitación	0
6544	7	Sololá	701	Sololá	1	Sololá	2	Febrero	2023-02-14T00:00:00	2024-11-08T20:00:00	8	Radiación solar	0
6545	7	Sololá	701	Sololá	1	Sololá	2	Febrero	2023-02-14T00:00:00	2024-11-08T21:00:00	2	Temperatura media	13.7
6546	7	Sololá	701	Sololá	1	Sololá	2	Febrero	2023-02-14T00:00:00	2024-11-08T21:00:00	4	Temperatura máxima	14.6
6547	7	Sololá	701	Sololá	1	Sololá	2	Febrero	2023-02-14T00:00:00	2024-11-08T21:00:00	3	Temperatura mínima	13.7
6548	7	Sololá	701	Sololá	1	Sololá	2	Febrero	2023-02-14T00:00:00	2024-11-08T21:00:00	5	Humedad	70
6549	7	Sololá	701	Sololá	1	Sololá	2	Febrero	2023-02-14T00:00:00	2024-11-08T21:00:00	6	Velocidad del viento	6.4
6550	7	Sololá	701	Sololá	1	Sololá	2	Febrero	2023-02-14T00:00:00	2024-11-08T21:00:00	7	Dirección del viento	6.44
6551	7	Sololá	701	Sololá	1	Sololá	2	Febrero	2023-02-14T00:00:00	2024-11-08T21:00:00	1	Precipitación	0
6552	7	Sololá	701	Sololá	1	Sololá	2	Febrero	2023-02-14T00:00:00	2024-11-08T21:00:00	8	Radiación solar	0
6553	7	Sololá	701	Sololá	1	Sololá	2	Febrero	2023-02-14T00:00:00	2024-11-08T22:00:00	2	Temperatura media	13
6554	7	Sololá	701	Sololá	1	Sololá	2	Febrero	2023-02-14T00:00:00	2024-11-08T22:00:00	4	Temperatura máxima	13.8
6555	7	Sololá	701	Sololá	1	Sololá	2	Febrero	2023-02-14T00:00:00	2024-11-08T22:00:00	3	Temperatura mínima	13
6556	7	Sololá	701	Sololá	1	Sololá	2	Febrero	2023-02-14T00:00:00	2024-11-08T22:00:00	5	Humedad	76
6557	7	Sololá	701	Sololá	1	Sololá	2	Febrero	2023-02-14T00:00:00	2024-11-08T22:00:00	6	Velocidad del viento	3.2
6558	7	Sololá	701	Sololá	1	Sololá	2	Febrero	2023-02-14T00:00:00	2024-11-08T22:00:00	7	Dirección del viento	3.22
6559	7	Sololá	701	Sololá	1	Sololá	2	Febrero	2023-02-14T00:00:00	2024-11-08T22:00:00	1	Precipitación	0
6560	7	Sololá	701	Sololá	1	Sololá	2	Febrero	2023-02-14T00:00:00	2024-11-08T22:00:00	8	Radiación solar	0
6561	7	Sololá	701	Sololá	1	Sololá	2	Febrero	2023-02-14T00:00:00	2024-11-08T23:00:00	2	Temperatura media	12.1
6562	7	Sololá	701	Sololá	1	Sololá	2	Febrero	2023-02-14T00:00:00	2024-11-08T23:00:00	4	Temperatura máxima	13.1
6563	7	Sololá	701	Sololá	1	Sololá	2	Febrero	2023-02-14T00:00:00	2024-11-08T23:00:00	3	Temperatura mínima	12.1
6564	7	Sololá	701	Sololá	1	Sololá	2	Febrero	2023-02-14T00:00:00	2024-11-08T23:00:00	5	Humedad	74
6565	7	Sololá	701	Sololá	1	Sololá	2	Febrero	2023-02-14T00:00:00	2024-11-08T23:00:00	6	Velocidad del viento	3.2
6566	7	Sololá	701	Sololá	1	Sololá	2	Febrero	2023-02-14T00:00:00	2024-11-08T23:00:00	7	Dirección del viento	3.22
6567	7	Sololá	701	Sololá	1	Sololá	2	Febrero	2023-02-14T00:00:00	2024-11-08T23:00:00	1	Precipitación	0
6568	7	Sololá	701	Sololá	1	Sololá	2	Febrero	2023-02-14T00:00:00	2024-11-08T23:00:00	8	Radiación solar	0
6569	7	Sololá	701	Sololá	1	Sololá	2	Febrero	2023-02-15T00:00:00	2024-11-08T00:00:00	2	Temperatura media	12.1
6570	7	Sololá	701	Sololá	1	Sololá	2	Febrero	2023-02-15T00:00:00	2024-11-08T00:00:00	4	Temperatura máxima	12.2
6571	7	Sololá	701	Sololá	1	Sololá	2	Febrero	2023-02-15T00:00:00	2024-11-08T00:00:00	3	Temperatura mínima	12.1
6572	7	Sololá	701	Sololá	1	Sololá	2	Febrero	2023-02-15T00:00:00	2024-11-08T00:00:00	5	Humedad	74
6573	7	Sololá	701	Sololá	1	Sololá	2	Febrero	2023-02-15T00:00:00	2024-11-08T00:00:00	6	Velocidad del viento	1.6
6574	7	Sololá	701	Sololá	1	Sololá	2	Febrero	2023-02-15T00:00:00	2024-11-08T00:00:00	7	Dirección del viento	1.61
6575	7	Sololá	701	Sololá	1	Sololá	2	Febrero	2023-02-15T00:00:00	2024-11-08T00:00:00	1	Precipitación	0
6576	7	Sololá	701	Sololá	1	Sololá	2	Febrero	2023-02-15T00:00:00	2024-11-08T00:00:00	8	Radiación solar	0
6577	7	Sololá	701	Sololá	1	Sololá	2	Febrero	2023-02-15T00:00:00	2024-11-08T01:00:00	2	Temperatura media	11.3
6578	7	Sololá	701	Sololá	1	Sololá	2	Febrero	2023-02-15T00:00:00	2024-11-08T01:00:00	4	Temperatura máxima	12.1
6579	7	Sololá	701	Sololá	1	Sololá	2	Febrero	2023-02-15T00:00:00	2024-11-08T01:00:00	3	Temperatura mínima	11.2
6580	7	Sololá	701	Sololá	1	Sololá	2	Febrero	2023-02-15T00:00:00	2024-11-08T01:00:00	5	Humedad	77
6581	7	Sololá	701	Sololá	1	Sololá	2	Febrero	2023-02-15T00:00:00	2024-11-08T01:00:00	6	Velocidad del viento	3.2
6582	7	Sololá	701	Sololá	1	Sololá	2	Febrero	2023-02-15T00:00:00	2024-11-08T01:00:00	7	Dirección del viento	3.22
6583	7	Sololá	701	Sololá	1	Sololá	2	Febrero	2023-02-15T00:00:00	2024-11-08T01:00:00	1	Precipitación	0
6584	7	Sololá	701	Sololá	1	Sololá	2	Febrero	2023-02-15T00:00:00	2024-11-08T01:00:00	8	Radiación solar	0
6585	7	Sololá	701	Sololá	1	Sololá	2	Febrero	2023-02-15T00:00:00	2024-11-08T02:00:00	2	Temperatura media	11.7
6586	7	Sololá	701	Sololá	1	Sololá	2	Febrero	2023-02-15T00:00:00	2024-11-08T02:00:00	4	Temperatura máxima	11.7
6587	7	Sololá	701	Sololá	1	Sololá	2	Febrero	2023-02-15T00:00:00	2024-11-08T02:00:00	3	Temperatura mínima	11.2
6588	7	Sololá	701	Sololá	1	Sololá	2	Febrero	2023-02-15T00:00:00	2024-11-08T02:00:00	5	Humedad	72
6589	7	Sololá	701	Sololá	1	Sololá	2	Febrero	2023-02-15T00:00:00	2024-11-08T02:00:00	6	Velocidad del viento	3.2
6590	7	Sololá	701	Sololá	1	Sololá	2	Febrero	2023-02-15T00:00:00	2024-11-08T02:00:00	7	Dirección del viento	3.22
6591	7	Sololá	701	Sololá	1	Sololá	2	Febrero	2023-02-15T00:00:00	2024-11-08T02:00:00	1	Precipitación	0
6592	7	Sololá	701	Sololá	1	Sololá	2	Febrero	2023-02-15T00:00:00	2024-11-08T02:00:00	8	Radiación solar	0
6593	7	Sololá	701	Sololá	1	Sololá	2	Febrero	2023-02-15T00:00:00	2024-11-08T03:00:00	2	Temperatura media	10.5
6594	7	Sololá	701	Sololá	1	Sololá	2	Febrero	2023-02-15T00:00:00	2024-11-08T03:00:00	4	Temperatura máxima	11.7
6595	7	Sololá	701	Sololá	1	Sololá	2	Febrero	2023-02-15T00:00:00	2024-11-08T03:00:00	3	Temperatura mínima	10.5
6596	7	Sololá	701	Sololá	1	Sololá	2	Febrero	2023-02-15T00:00:00	2024-11-08T03:00:00	5	Humedad	66
6597	7	Sololá	701	Sololá	1	Sololá	2	Febrero	2023-02-15T00:00:00	2024-11-08T03:00:00	6	Velocidad del viento	1.6
6598	7	Sololá	701	Sololá	1	Sololá	2	Febrero	2023-02-15T00:00:00	2024-11-08T03:00:00	7	Dirección del viento	1.61
6599	7	Sololá	701	Sololá	1	Sololá	2	Febrero	2023-02-15T00:00:00	2024-11-08T03:00:00	1	Precipitación	0
6600	7	Sololá	701	Sololá	1	Sololá	2	Febrero	2023-02-15T00:00:00	2024-11-08T03:00:00	8	Radiación solar	0
6601	7	Sololá	701	Sololá	1	Sololá	2	Febrero	2023-02-15T00:00:00	2024-11-08T04:00:00	2	Temperatura media	9.8
6602	7	Sololá	701	Sololá	1	Sololá	2	Febrero	2023-02-15T00:00:00	2024-11-08T04:00:00	4	Temperatura máxima	10.6
6603	7	Sololá	701	Sololá	1	Sololá	2	Febrero	2023-02-15T00:00:00	2024-11-08T04:00:00	3	Temperatura mínima	9.8
6604	7	Sololá	701	Sololá	1	Sololá	2	Febrero	2023-02-15T00:00:00	2024-11-08T04:00:00	5	Humedad	66
6605	7	Sololá	701	Sololá	1	Sololá	2	Febrero	2023-02-15T00:00:00	2024-11-08T04:00:00	6	Velocidad del viento	3.2
6606	7	Sololá	701	Sololá	1	Sololá	2	Febrero	2023-02-15T00:00:00	2024-11-08T04:00:00	7	Dirección del viento	3.22
6607	7	Sololá	701	Sololá	1	Sololá	2	Febrero	2023-02-15T00:00:00	2024-11-08T04:00:00	1	Precipitación	0
6608	7	Sololá	701	Sololá	1	Sololá	2	Febrero	2023-02-15T00:00:00	2024-11-08T04:00:00	8	Radiación solar	0
6609	7	Sololá	701	Sololá	1	Sololá	2	Febrero	2023-02-15T00:00:00	2024-11-08T05:00:00	2	Temperatura media	9.4
6610	7	Sololá	701	Sololá	1	Sololá	2	Febrero	2023-02-15T00:00:00	2024-11-08T05:00:00	4	Temperatura máxima	9.8
6611	7	Sololá	701	Sololá	1	Sololá	2	Febrero	2023-02-15T00:00:00	2024-11-08T05:00:00	3	Temperatura mínima	9.3
6612	7	Sololá	701	Sololá	1	Sololá	2	Febrero	2023-02-15T00:00:00	2024-11-08T05:00:00	5	Humedad	68
6613	7	Sololá	701	Sololá	1	Sololá	2	Febrero	2023-02-15T00:00:00	2024-11-08T05:00:00	6	Velocidad del viento	1.6
6614	7	Sololá	701	Sololá	1	Sololá	2	Febrero	2023-02-15T00:00:00	2024-11-08T05:00:00	7	Dirección del viento	1.61
6615	7	Sololá	701	Sololá	1	Sololá	2	Febrero	2023-02-15T00:00:00	2024-11-08T05:00:00	1	Precipitación	0
6616	7	Sololá	701	Sololá	1	Sololá	2	Febrero	2023-02-15T00:00:00	2024-11-08T05:00:00	8	Radiación solar	0
6617	7	Sololá	701	Sololá	1	Sololá	2	Febrero	2023-02-15T00:00:00	2024-11-08T06:00:00	2	Temperatura media	9.1
6618	7	Sololá	701	Sololá	1	Sololá	2	Febrero	2023-02-15T00:00:00	2024-11-08T06:00:00	4	Temperatura máxima	9.4
6619	7	Sololá	701	Sololá	1	Sololá	2	Febrero	2023-02-15T00:00:00	2024-11-08T06:00:00	3	Temperatura mínima	9.1
6620	7	Sololá	701	Sololá	1	Sololá	2	Febrero	2023-02-15T00:00:00	2024-11-08T06:00:00	5	Humedad	72
6621	7	Sololá	701	Sololá	1	Sololá	2	Febrero	2023-02-15T00:00:00	2024-11-08T06:00:00	6	Velocidad del viento	1.6
6622	7	Sololá	701	Sololá	1	Sololá	2	Febrero	2023-02-15T00:00:00	2024-11-08T06:00:00	7	Dirección del viento	1.61
6623	7	Sololá	701	Sololá	1	Sololá	2	Febrero	2023-02-15T00:00:00	2024-11-08T06:00:00	1	Precipitación	0
6624	7	Sololá	701	Sololá	1	Sololá	2	Febrero	2023-02-15T00:00:00	2024-11-08T06:00:00	8	Radiación solar	0
6625	7	Sololá	701	Sololá	1	Sololá	2	Febrero	2023-02-15T00:00:00	2024-11-08T07:00:00	2	Temperatura media	9.4
6626	7	Sololá	701	Sololá	1	Sololá	2	Febrero	2023-02-15T00:00:00	2024-11-08T07:00:00	4	Temperatura máxima	9.4
6627	7	Sololá	701	Sololá	1	Sololá	2	Febrero	2023-02-15T00:00:00	2024-11-08T07:00:00	3	Temperatura mínima	8.8
6628	7	Sololá	701	Sololá	1	Sololá	2	Febrero	2023-02-15T00:00:00	2024-11-08T07:00:00	5	Humedad	72
6629	7	Sololá	701	Sololá	1	Sololá	2	Febrero	2023-02-15T00:00:00	2024-11-08T07:00:00	6	Velocidad del viento	3.2
6630	7	Sololá	701	Sololá	1	Sololá	2	Febrero	2023-02-15T00:00:00	2024-11-08T07:00:00	7	Dirección del viento	3.22
6631	7	Sololá	701	Sololá	1	Sololá	2	Febrero	2023-02-15T00:00:00	2024-11-08T07:00:00	1	Precipitación	0
6632	7	Sololá	701	Sololá	1	Sololá	2	Febrero	2023-02-15T00:00:00	2024-11-08T07:00:00	8	Radiación solar	3
6633	7	Sololá	701	Sololá	1	Sololá	2	Febrero	2023-02-15T00:00:00	2024-11-08T08:00:00	2	Temperatura media	12.8
6634	7	Sololá	701	Sololá	1	Sololá	2	Febrero	2023-02-15T00:00:00	2024-11-08T08:00:00	4	Temperatura máxima	12.9
6635	7	Sololá	701	Sololá	1	Sololá	2	Febrero	2023-02-15T00:00:00	2024-11-08T08:00:00	3	Temperatura mínima	9.4
6636	7	Sololá	701	Sololá	1	Sololá	2	Febrero	2023-02-15T00:00:00	2024-11-08T08:00:00	5	Humedad	65
6637	7	Sololá	701	Sololá	1	Sololá	2	Febrero	2023-02-15T00:00:00	2024-11-08T08:00:00	6	Velocidad del viento	4.8
6638	7	Sololá	701	Sololá	1	Sololá	2	Febrero	2023-02-15T00:00:00	2024-11-08T08:00:00	7	Dirección del viento	4.83
6639	7	Sololá	701	Sololá	1	Sololá	2	Febrero	2023-02-15T00:00:00	2024-11-08T08:00:00	1	Precipitación	0
6640	7	Sololá	701	Sololá	1	Sololá	2	Febrero	2023-02-15T00:00:00	2024-11-08T08:00:00	8	Radiación solar	20
6641	7	Sololá	701	Sololá	1	Sololá	2	Febrero	2023-02-15T00:00:00	2024-11-08T09:00:00	2	Temperatura media	16.6
6642	7	Sololá	701	Sololá	1	Sololá	2	Febrero	2023-02-15T00:00:00	2024-11-08T09:00:00	4	Temperatura máxima	16.6
6643	7	Sololá	701	Sololá	1	Sololá	2	Febrero	2023-02-15T00:00:00	2024-11-08T09:00:00	3	Temperatura mínima	12.8
6644	7	Sololá	701	Sololá	1	Sololá	2	Febrero	2023-02-15T00:00:00	2024-11-08T09:00:00	5	Humedad	64
6645	7	Sololá	701	Sololá	1	Sololá	2	Febrero	2023-02-15T00:00:00	2024-11-08T09:00:00	6	Velocidad del viento	3.2
6646	7	Sololá	701	Sololá	1	Sololá	2	Febrero	2023-02-15T00:00:00	2024-11-08T09:00:00	7	Dirección del viento	3.22
6647	7	Sololá	701	Sololá	1	Sololá	2	Febrero	2023-02-15T00:00:00	2024-11-08T09:00:00	1	Precipitación	0
6648	7	Sololá	701	Sololá	1	Sololá	2	Febrero	2023-02-15T00:00:00	2024-11-08T09:00:00	8	Radiación solar	359
6649	7	Sololá	701	Sololá	1	Sololá	2	Febrero	2023-02-15T00:00:00	2024-11-08T10:00:00	2	Temperatura media	17.3
6650	7	Sololá	701	Sololá	1	Sololá	2	Febrero	2023-02-15T00:00:00	2024-11-08T10:00:00	4	Temperatura máxima	17.7
6651	7	Sololá	701	Sololá	1	Sololá	2	Febrero	2023-02-15T00:00:00	2024-11-08T10:00:00	3	Temperatura mínima	16.6
6652	7	Sololá	701	Sololá	1	Sololá	2	Febrero	2023-02-15T00:00:00	2024-11-08T10:00:00	5	Humedad	69
6653	7	Sololá	701	Sololá	1	Sololá	2	Febrero	2023-02-15T00:00:00	2024-11-08T10:00:00	6	Velocidad del viento	3.2
6654	7	Sololá	701	Sololá	1	Sololá	2	Febrero	2023-02-15T00:00:00	2024-11-08T10:00:00	7	Dirección del viento	3.22
6655	7	Sololá	701	Sololá	1	Sololá	2	Febrero	2023-02-15T00:00:00	2024-11-08T10:00:00	1	Precipitación	0
6656	7	Sololá	701	Sololá	1	Sololá	2	Febrero	2023-02-15T00:00:00	2024-11-08T10:00:00	8	Radiación solar	669
6657	7	Sololá	701	Sololá	1	Sololá	2	Febrero	2023-02-15T00:00:00	2024-11-08T11:00:00	2	Temperatura media	18.6
6658	7	Sololá	701	Sololá	1	Sololá	2	Febrero	2023-02-15T00:00:00	2024-11-08T11:00:00	4	Temperatura máxima	18.6
6659	7	Sololá	701	Sololá	1	Sololá	2	Febrero	2023-02-15T00:00:00	2024-11-08T11:00:00	3	Temperatura mínima	17.3
6660	7	Sololá	701	Sololá	1	Sololá	2	Febrero	2023-02-15T00:00:00	2024-11-08T11:00:00	5	Humedad	63
6661	7	Sololá	701	Sololá	1	Sololá	2	Febrero	2023-02-15T00:00:00	2024-11-08T11:00:00	6	Velocidad del viento	6.4
6662	7	Sololá	701	Sololá	1	Sololá	2	Febrero	2023-02-15T00:00:00	2024-11-08T11:00:00	7	Dirección del viento	6.44
6663	7	Sololá	701	Sololá	1	Sololá	2	Febrero	2023-02-15T00:00:00	2024-11-08T11:00:00	1	Precipitación	0
6664	7	Sololá	701	Sololá	1	Sololá	2	Febrero	2023-02-15T00:00:00	2024-11-08T11:00:00	8	Radiación solar	836
6665	7	Sololá	701	Sololá	1	Sololá	2	Febrero	2023-02-15T00:00:00	2024-11-08T12:00:00	2	Temperatura media	19.8
6666	7	Sololá	701	Sololá	1	Sololá	2	Febrero	2023-02-15T00:00:00	2024-11-08T12:00:00	4	Temperatura máxima	19.9
6667	7	Sololá	701	Sololá	1	Sololá	2	Febrero	2023-02-15T00:00:00	2024-11-08T12:00:00	3	Temperatura mínima	18.6
6668	7	Sololá	701	Sololá	1	Sololá	2	Febrero	2023-02-15T00:00:00	2024-11-08T12:00:00	5	Humedad	62
6669	7	Sololá	701	Sololá	1	Sololá	2	Febrero	2023-02-15T00:00:00	2024-11-08T12:00:00	6	Velocidad del viento	6.4
6670	7	Sololá	701	Sololá	1	Sololá	2	Febrero	2023-02-15T00:00:00	2024-11-08T12:00:00	7	Dirección del viento	6.44
6671	7	Sololá	701	Sololá	1	Sololá	2	Febrero	2023-02-15T00:00:00	2024-11-08T12:00:00	1	Precipitación	0
6672	7	Sololá	701	Sololá	1	Sololá	2	Febrero	2023-02-15T00:00:00	2024-11-08T12:00:00	8	Radiación solar	970
6673	7	Sololá	701	Sololá	1	Sololá	2	Febrero	2023-02-15T00:00:00	2024-11-08T13:00:00	2	Temperatura media	19.7
6674	7	Sololá	701	Sololá	1	Sololá	2	Febrero	2023-02-15T00:00:00	2024-11-08T13:00:00	4	Temperatura máxima	20
6675	7	Sololá	701	Sololá	1	Sololá	2	Febrero	2023-02-15T00:00:00	2024-11-08T13:00:00	3	Temperatura mínima	19.4
6676	7	Sololá	701	Sololá	1	Sololá	2	Febrero	2023-02-15T00:00:00	2024-11-08T13:00:00	5	Humedad	71
6677	7	Sololá	701	Sololá	1	Sololá	2	Febrero	2023-02-15T00:00:00	2024-11-08T13:00:00	6	Velocidad del viento	8
6678	7	Sololá	701	Sololá	1	Sololá	2	Febrero	2023-02-15T00:00:00	2024-11-08T13:00:00	7	Dirección del viento	8.05
6679	7	Sololá	701	Sololá	1	Sololá	2	Febrero	2023-02-15T00:00:00	2024-11-08T13:00:00	1	Precipitación	0
6680	7	Sololá	701	Sololá	1	Sololá	2	Febrero	2023-02-15T00:00:00	2024-11-08T13:00:00	8	Radiación solar	712
6681	7	Sololá	701	Sololá	1	Sololá	2	Febrero	2023-02-15T00:00:00	2024-11-08T14:00:00	2	Temperatura media	18.4
6682	7	Sololá	701	Sololá	1	Sololá	2	Febrero	2023-02-15T00:00:00	2024-11-08T14:00:00	4	Temperatura máxima	20.1
6683	7	Sololá	701	Sololá	1	Sololá	2	Febrero	2023-02-15T00:00:00	2024-11-08T14:00:00	3	Temperatura mínima	18.4
6684	7	Sololá	701	Sololá	1	Sololá	2	Febrero	2023-02-15T00:00:00	2024-11-08T14:00:00	5	Humedad	79
6685	7	Sololá	701	Sololá	1	Sololá	2	Febrero	2023-02-15T00:00:00	2024-11-08T14:00:00	6	Velocidad del viento	8
6686	7	Sololá	701	Sololá	1	Sololá	2	Febrero	2023-02-15T00:00:00	2024-11-08T14:00:00	7	Dirección del viento	8.05
6687	7	Sololá	701	Sololá	1	Sololá	2	Febrero	2023-02-15T00:00:00	2024-11-08T14:00:00	1	Precipitación	0
6688	7	Sololá	701	Sololá	1	Sololá	2	Febrero	2023-02-15T00:00:00	2024-11-08T14:00:00	8	Radiación solar	262
6689	7	Sololá	701	Sololá	1	Sololá	2	Febrero	2023-02-15T00:00:00	2024-11-08T15:00:00	2	Temperatura media	18.2
6690	7	Sololá	701	Sololá	1	Sololá	2	Febrero	2023-02-15T00:00:00	2024-11-08T15:00:00	4	Temperatura máxima	18.6
6691	7	Sololá	701	Sololá	1	Sololá	2	Febrero	2023-02-15T00:00:00	2024-11-08T15:00:00	3	Temperatura mínima	17.9
6692	7	Sololá	701	Sololá	1	Sololá	2	Febrero	2023-02-15T00:00:00	2024-11-08T15:00:00	5	Humedad	79
6693	7	Sololá	701	Sololá	1	Sololá	2	Febrero	2023-02-15T00:00:00	2024-11-08T15:00:00	6	Velocidad del viento	6.4
6694	7	Sololá	701	Sololá	1	Sololá	2	Febrero	2023-02-15T00:00:00	2024-11-08T15:00:00	7	Dirección del viento	6.44
6695	7	Sololá	701	Sololá	1	Sololá	2	Febrero	2023-02-15T00:00:00	2024-11-08T15:00:00	1	Precipitación	0
6696	7	Sololá	701	Sololá	1	Sololá	2	Febrero	2023-02-15T00:00:00	2024-11-08T15:00:00	8	Radiación solar	165
6697	7	Sololá	701	Sololá	1	Sololá	2	Febrero	2023-02-15T00:00:00	2024-11-08T16:00:00	2	Temperatura media	17.5
6698	7	Sololá	701	Sololá	1	Sololá	2	Febrero	2023-02-15T00:00:00	2024-11-08T16:00:00	4	Temperatura máxima	18.3
6699	7	Sololá	701	Sololá	1	Sololá	2	Febrero	2023-02-15T00:00:00	2024-11-08T16:00:00	3	Temperatura mínima	17.3
6700	7	Sololá	701	Sololá	1	Sololá	2	Febrero	2023-02-15T00:00:00	2024-11-08T16:00:00	5	Humedad	83
6701	7	Sololá	701	Sololá	1	Sololá	2	Febrero	2023-02-15T00:00:00	2024-11-08T16:00:00	6	Velocidad del viento	3.2
6702	7	Sololá	701	Sololá	1	Sololá	2	Febrero	2023-02-15T00:00:00	2024-11-08T16:00:00	7	Dirección del viento	3.22
6703	7	Sololá	701	Sololá	1	Sololá	2	Febrero	2023-02-15T00:00:00	2024-11-08T16:00:00	1	Precipitación	0
6704	7	Sololá	701	Sololá	1	Sololá	2	Febrero	2023-02-15T00:00:00	2024-11-08T16:00:00	8	Radiación solar	134
6705	7	Sololá	701	Sololá	1	Sololá	2	Febrero	2023-02-15T00:00:00	2024-11-08T17:00:00	2	Temperatura media	17.7
6706	7	Sololá	701	Sololá	1	Sololá	2	Febrero	2023-02-15T00:00:00	2024-11-08T17:00:00	4	Temperatura máxima	18.3
6707	7	Sololá	701	Sololá	1	Sololá	2	Febrero	2023-02-15T00:00:00	2024-11-08T17:00:00	3	Temperatura mínima	17.5
6708	7	Sololá	701	Sololá	1	Sololá	2	Febrero	2023-02-15T00:00:00	2024-11-08T17:00:00	5	Humedad	84
6709	7	Sololá	701	Sololá	1	Sololá	2	Febrero	2023-02-15T00:00:00	2024-11-08T17:00:00	6	Velocidad del viento	4.8
6710	7	Sololá	701	Sololá	1	Sololá	2	Febrero	2023-02-15T00:00:00	2024-11-08T17:00:00	7	Dirección del viento	4.83
6711	7	Sololá	701	Sololá	1	Sololá	2	Febrero	2023-02-15T00:00:00	2024-11-08T17:00:00	1	Precipitación	0
6712	7	Sololá	701	Sololá	1	Sololá	2	Febrero	2023-02-15T00:00:00	2024-11-08T17:00:00	8	Radiación solar	80
6713	7	Sololá	701	Sololá	1	Sololá	2	Febrero	2023-02-15T00:00:00	2024-11-08T18:00:00	2	Temperatura media	16.6
6714	7	Sololá	701	Sololá	1	Sololá	2	Febrero	2023-02-15T00:00:00	2024-11-08T18:00:00	4	Temperatura máxima	17.7
6715	7	Sololá	701	Sololá	1	Sololá	2	Febrero	2023-02-15T00:00:00	2024-11-08T18:00:00	3	Temperatura mínima	16.6
6716	7	Sololá	701	Sololá	1	Sololá	2	Febrero	2023-02-15T00:00:00	2024-11-08T18:00:00	5	Humedad	88
6717	7	Sololá	701	Sololá	1	Sololá	2	Febrero	2023-02-15T00:00:00	2024-11-08T18:00:00	6	Velocidad del viento	1.6
6718	7	Sololá	701	Sololá	1	Sololá	2	Febrero	2023-02-15T00:00:00	2024-11-08T18:00:00	7	Dirección del viento	1.61
6719	7	Sololá	701	Sololá	1	Sololá	2	Febrero	2023-02-15T00:00:00	2024-11-08T18:00:00	1	Precipitación	0
6720	7	Sololá	701	Sololá	1	Sololá	2	Febrero	2023-02-15T00:00:00	2024-11-08T18:00:00	8	Radiación solar	26
6721	7	Sololá	701	Sololá	1	Sololá	2	Febrero	2023-02-15T00:00:00	2024-11-08T19:00:00	2	Temperatura media	15.8
6722	7	Sololá	701	Sololá	1	Sololá	2	Febrero	2023-02-15T00:00:00	2024-11-08T19:00:00	4	Temperatura máxima	16.6
6723	7	Sololá	701	Sololá	1	Sololá	2	Febrero	2023-02-15T00:00:00	2024-11-08T19:00:00	3	Temperatura mínima	15.8
6724	7	Sololá	701	Sololá	1	Sololá	2	Febrero	2023-02-15T00:00:00	2024-11-08T19:00:00	5	Humedad	89
6725	7	Sololá	701	Sololá	1	Sololá	2	Febrero	2023-02-15T00:00:00	2024-11-08T19:00:00	6	Velocidad del viento	1.6
6726	7	Sololá	701	Sololá	1	Sololá	2	Febrero	2023-02-15T00:00:00	2024-11-08T19:00:00	7	Dirección del viento	1.61
6727	7	Sololá	701	Sololá	1	Sololá	2	Febrero	2023-02-15T00:00:00	2024-11-08T19:00:00	1	Precipitación	0
6728	7	Sololá	701	Sololá	1	Sololá	2	Febrero	2023-02-15T00:00:00	2024-11-08T19:00:00	8	Radiación solar	0
6729	7	Sololá	701	Sololá	1	Sololá	2	Febrero	2023-02-15T00:00:00	2024-11-08T20:00:00	2	Temperatura media	15.7
6730	7	Sololá	701	Sololá	1	Sololá	2	Febrero	2023-02-15T00:00:00	2024-11-08T20:00:00	4	Temperatura máxima	15.9
6731	7	Sololá	701	Sololá	1	Sololá	2	Febrero	2023-02-15T00:00:00	2024-11-08T20:00:00	3	Temperatura mínima	15.7
6732	7	Sololá	701	Sololá	1	Sololá	2	Febrero	2023-02-15T00:00:00	2024-11-08T20:00:00	5	Humedad	93
6733	7	Sololá	701	Sololá	1	Sololá	2	Febrero	2023-02-15T00:00:00	2024-11-08T20:00:00	6	Velocidad del viento	0
6734	7	Sololá	701	Sololá	1	Sololá	2	Febrero	2023-02-15T00:00:00	2024-11-08T20:00:00	7	Dirección del viento	0
6735	7	Sololá	701	Sololá	1	Sololá	2	Febrero	2023-02-15T00:00:00	2024-11-08T20:00:00	1	Precipitación	0
6736	7	Sololá	701	Sololá	1	Sololá	2	Febrero	2023-02-15T00:00:00	2024-11-08T20:00:00	8	Radiación solar	0
6737	7	Sololá	701	Sololá	1	Sololá	2	Febrero	2023-02-15T00:00:00	2024-11-08T21:00:00	2	Temperatura media	14.8
6738	7	Sololá	701	Sololá	1	Sololá	2	Febrero	2023-02-15T00:00:00	2024-11-08T21:00:00	4	Temperatura máxima	15.7
6739	7	Sololá	701	Sololá	1	Sololá	2	Febrero	2023-02-15T00:00:00	2024-11-08T21:00:00	3	Temperatura mínima	14.8
6740	7	Sololá	701	Sololá	1	Sololá	2	Febrero	2023-02-15T00:00:00	2024-11-08T21:00:00	5	Humedad	81
6741	7	Sololá	701	Sololá	1	Sololá	2	Febrero	2023-02-15T00:00:00	2024-11-08T21:00:00	6	Velocidad del viento	3.2
6742	7	Sololá	701	Sololá	1	Sololá	2	Febrero	2023-02-15T00:00:00	2024-11-08T21:00:00	7	Dirección del viento	3.22
6743	7	Sololá	701	Sololá	1	Sololá	2	Febrero	2023-02-15T00:00:00	2024-11-08T21:00:00	1	Precipitación	0
6744	7	Sololá	701	Sololá	1	Sololá	2	Febrero	2023-02-15T00:00:00	2024-11-08T21:00:00	8	Radiación solar	0
6745	7	Sololá	701	Sololá	1	Sololá	2	Febrero	2023-02-15T00:00:00	2024-11-08T22:00:00	2	Temperatura media	14.7
6746	7	Sololá	701	Sololá	1	Sololá	2	Febrero	2023-02-15T00:00:00	2024-11-08T22:00:00	4	Temperatura máxima	14.8
6747	7	Sololá	701	Sololá	1	Sololá	2	Febrero	2023-02-15T00:00:00	2024-11-08T22:00:00	3	Temperatura mínima	14.2
6748	7	Sololá	701	Sololá	1	Sololá	2	Febrero	2023-02-15T00:00:00	2024-11-08T22:00:00	5	Humedad	67
6749	7	Sololá	701	Sololá	1	Sololá	2	Febrero	2023-02-15T00:00:00	2024-11-08T22:00:00	6	Velocidad del viento	8
6750	7	Sololá	701	Sololá	1	Sololá	2	Febrero	2023-02-15T00:00:00	2024-11-08T22:00:00	7	Dirección del viento	8.05
6751	7	Sololá	701	Sololá	1	Sololá	2	Febrero	2023-02-15T00:00:00	2024-11-08T22:00:00	1	Precipitación	0
6752	7	Sololá	701	Sololá	1	Sololá	2	Febrero	2023-02-15T00:00:00	2024-11-08T22:00:00	8	Radiación solar	0
6753	7	Sololá	701	Sololá	1	Sololá	2	Febrero	2023-02-15T00:00:00	2024-11-08T23:00:00	2	Temperatura media	12
6754	7	Sololá	701	Sololá	1	Sololá	2	Febrero	2023-02-15T00:00:00	2024-11-08T23:00:00	4	Temperatura máxima	14.7
6755	7	Sololá	701	Sololá	1	Sololá	2	Febrero	2023-02-15T00:00:00	2024-11-08T23:00:00	3	Temperatura mínima	11.9
6756	7	Sololá	701	Sololá	1	Sololá	2	Febrero	2023-02-15T00:00:00	2024-11-08T23:00:00	5	Humedad	64
6757	7	Sololá	701	Sololá	1	Sololá	2	Febrero	2023-02-15T00:00:00	2024-11-08T23:00:00	6	Velocidad del viento	8
6758	7	Sololá	701	Sololá	1	Sololá	2	Febrero	2023-02-15T00:00:00	2024-11-08T23:00:00	7	Dirección del viento	8.05
6759	7	Sololá	701	Sololá	1	Sololá	2	Febrero	2023-02-15T00:00:00	2024-11-08T23:00:00	1	Precipitación	0
6760	7	Sololá	701	Sololá	1	Sololá	2	Febrero	2023-02-15T00:00:00	2024-11-08T23:00:00	8	Radiación solar	0
6761	7	Sololá	701	Sololá	1	Sololá	2	Febrero	2023-02-16T00:00:00	2024-11-08T00:00:00	2	Temperatura media	12.3
6762	7	Sololá	701	Sololá	1	Sololá	2	Febrero	2023-02-16T00:00:00	2024-11-08T00:00:00	4	Temperatura máxima	12.3
6763	7	Sololá	701	Sololá	1	Sololá	2	Febrero	2023-02-16T00:00:00	2024-11-08T00:00:00	3	Temperatura mínima	11.7
6764	7	Sololá	701	Sololá	1	Sololá	2	Febrero	2023-02-16T00:00:00	2024-11-08T00:00:00	5	Humedad	70
6765	7	Sololá	701	Sololá	1	Sololá	2	Febrero	2023-02-16T00:00:00	2024-11-08T00:00:00	6	Velocidad del viento	4.8
6766	7	Sololá	701	Sololá	1	Sololá	2	Febrero	2023-02-16T00:00:00	2024-11-08T00:00:00	7	Dirección del viento	4.83
6767	7	Sololá	701	Sololá	1	Sololá	2	Febrero	2023-02-16T00:00:00	2024-11-08T00:00:00	1	Precipitación	0
6768	7	Sololá	701	Sololá	1	Sololá	2	Febrero	2023-02-16T00:00:00	2024-11-08T00:00:00	8	Radiación solar	0
6769	7	Sololá	701	Sololá	1	Sololá	2	Febrero	2023-02-16T00:00:00	2024-11-08T01:00:00	2	Temperatura media	10.9
6770	7	Sololá	701	Sololá	1	Sololá	2	Febrero	2023-02-16T00:00:00	2024-11-08T01:00:00	4	Temperatura máxima	12.3
6771	7	Sololá	701	Sololá	1	Sololá	2	Febrero	2023-02-16T00:00:00	2024-11-08T01:00:00	3	Temperatura mínima	10.9
6772	7	Sololá	701	Sololá	1	Sololá	2	Febrero	2023-02-16T00:00:00	2024-11-08T01:00:00	5	Humedad	69
6773	7	Sololá	701	Sololá	1	Sololá	2	Febrero	2023-02-16T00:00:00	2024-11-08T01:00:00	6	Velocidad del viento	3.2
6774	7	Sololá	701	Sololá	1	Sololá	2	Febrero	2023-02-16T00:00:00	2024-11-08T01:00:00	7	Dirección del viento	3.22
6775	7	Sololá	701	Sololá	1	Sololá	2	Febrero	2023-02-16T00:00:00	2024-11-08T01:00:00	1	Precipitación	0
6776	7	Sololá	701	Sololá	1	Sololá	2	Febrero	2023-02-16T00:00:00	2024-11-08T01:00:00	8	Radiación solar	0
6777	7	Sololá	701	Sololá	1	Sololá	2	Febrero	2023-02-16T00:00:00	2024-11-08T02:00:00	2	Temperatura media	10.2
6778	7	Sololá	701	Sololá	1	Sololá	2	Febrero	2023-02-16T00:00:00	2024-11-08T02:00:00	4	Temperatura máxima	10.9
6779	7	Sololá	701	Sololá	1	Sololá	2	Febrero	2023-02-16T00:00:00	2024-11-08T02:00:00	3	Temperatura mínima	10.1
6780	7	Sololá	701	Sololá	1	Sololá	2	Febrero	2023-02-16T00:00:00	2024-11-08T02:00:00	5	Humedad	65
6781	7	Sololá	701	Sololá	1	Sololá	2	Febrero	2023-02-16T00:00:00	2024-11-08T02:00:00	6	Velocidad del viento	1.6
6782	7	Sololá	701	Sololá	1	Sololá	2	Febrero	2023-02-16T00:00:00	2024-11-08T02:00:00	7	Dirección del viento	1.61
6783	7	Sololá	701	Sololá	1	Sololá	2	Febrero	2023-02-16T00:00:00	2024-11-08T02:00:00	1	Precipitación	0
6784	7	Sololá	701	Sololá	1	Sololá	2	Febrero	2023-02-16T00:00:00	2024-11-08T02:00:00	8	Radiación solar	0
6785	7	Sololá	701	Sololá	1	Sololá	2	Febrero	2023-02-16T00:00:00	2024-11-08T03:00:00	2	Temperatura media	9.4
6786	7	Sololá	701	Sololá	1	Sololá	2	Febrero	2023-02-16T00:00:00	2024-11-08T03:00:00	4	Temperatura máxima	10.2
6787	7	Sololá	701	Sololá	1	Sololá	2	Febrero	2023-02-16T00:00:00	2024-11-08T03:00:00	3	Temperatura mínima	9.4
6788	7	Sololá	701	Sololá	1	Sololá	2	Febrero	2023-02-16T00:00:00	2024-11-08T03:00:00	5	Humedad	62
6789	7	Sololá	701	Sololá	1	Sololá	2	Febrero	2023-02-16T00:00:00	2024-11-08T03:00:00	6	Velocidad del viento	3.2
6790	7	Sololá	701	Sololá	1	Sololá	2	Febrero	2023-02-16T00:00:00	2024-11-08T03:00:00	7	Dirección del viento	3.22
6791	7	Sololá	701	Sololá	1	Sololá	2	Febrero	2023-02-16T00:00:00	2024-11-08T03:00:00	1	Precipitación	0
6792	7	Sololá	701	Sololá	1	Sololá	2	Febrero	2023-02-16T00:00:00	2024-11-08T03:00:00	8	Radiación solar	0
6793	7	Sololá	701	Sololá	1	Sololá	2	Febrero	2023-02-16T00:00:00	2024-11-08T04:00:00	2	Temperatura media	8.4
6794	7	Sololá	701	Sololá	1	Sololá	2	Febrero	2023-02-16T00:00:00	2024-11-08T04:00:00	4	Temperatura máxima	9.4
6795	7	Sololá	701	Sololá	1	Sololá	2	Febrero	2023-02-16T00:00:00	2024-11-08T04:00:00	3	Temperatura mínima	8.4
6796	7	Sololá	701	Sololá	1	Sololá	2	Febrero	2023-02-16T00:00:00	2024-11-08T04:00:00	5	Humedad	65
6797	7	Sololá	701	Sololá	1	Sololá	2	Febrero	2023-02-16T00:00:00	2024-11-08T04:00:00	6	Velocidad del viento	3.2
6798	7	Sololá	701	Sololá	1	Sololá	2	Febrero	2023-02-16T00:00:00	2024-11-08T04:00:00	7	Dirección del viento	3.22
6799	7	Sololá	701	Sololá	1	Sololá	2	Febrero	2023-02-16T00:00:00	2024-11-08T04:00:00	1	Precipitación	0
6800	7	Sololá	701	Sololá	1	Sololá	2	Febrero	2023-02-16T00:00:00	2024-11-08T04:00:00	8	Radiación solar	0
6801	7	Sololá	701	Sololá	1	Sololá	2	Febrero	2023-02-16T00:00:00	2024-11-08T05:00:00	2	Temperatura media	8.4
6802	7	Sololá	701	Sololá	1	Sololá	2	Febrero	2023-02-16T00:00:00	2024-11-08T05:00:00	4	Temperatura máxima	8.8
6803	7	Sololá	701	Sololá	1	Sololá	2	Febrero	2023-02-16T00:00:00	2024-11-08T05:00:00	3	Temperatura mínima	8.4
6804	7	Sololá	701	Sololá	1	Sololá	2	Febrero	2023-02-16T00:00:00	2024-11-08T05:00:00	5	Humedad	82
6805	7	Sololá	701	Sololá	1	Sololá	2	Febrero	2023-02-16T00:00:00	2024-11-08T05:00:00	6	Velocidad del viento	1.6
6806	7	Sololá	701	Sololá	1	Sololá	2	Febrero	2023-02-16T00:00:00	2024-11-08T05:00:00	7	Dirección del viento	1.61
6807	7	Sololá	701	Sololá	1	Sololá	2	Febrero	2023-02-16T00:00:00	2024-11-08T05:00:00	1	Precipitación	0
6808	7	Sololá	701	Sololá	1	Sololá	2	Febrero	2023-02-16T00:00:00	2024-11-08T05:00:00	8	Radiación solar	0
6809	7	Sololá	701	Sololá	1	Sololá	2	Febrero	2023-02-16T00:00:00	2024-11-08T06:00:00	2	Temperatura media	7.6
6810	7	Sololá	701	Sololá	1	Sololá	2	Febrero	2023-02-16T00:00:00	2024-11-08T06:00:00	4	Temperatura máxima	8.5
6811	7	Sololá	701	Sololá	1	Sololá	2	Febrero	2023-02-16T00:00:00	2024-11-08T06:00:00	3	Temperatura mínima	7.6
6812	7	Sololá	701	Sololá	1	Sololá	2	Febrero	2023-02-16T00:00:00	2024-11-08T06:00:00	5	Humedad	81
6813	7	Sololá	701	Sololá	1	Sololá	2	Febrero	2023-02-16T00:00:00	2024-11-08T06:00:00	6	Velocidad del viento	1.6
6814	7	Sololá	701	Sololá	1	Sololá	2	Febrero	2023-02-16T00:00:00	2024-11-08T06:00:00	7	Dirección del viento	1.61
6815	7	Sololá	701	Sololá	1	Sololá	2	Febrero	2023-02-16T00:00:00	2024-11-08T06:00:00	1	Precipitación	0
6816	7	Sololá	701	Sololá	1	Sololá	2	Febrero	2023-02-16T00:00:00	2024-11-08T06:00:00	8	Radiación solar	0
6817	7	Sololá	701	Sololá	1	Sololá	2	Febrero	2023-02-16T00:00:00	2024-11-08T07:00:00	2	Temperatura media	8
6818	7	Sololá	701	Sololá	1	Sololá	2	Febrero	2023-02-16T00:00:00	2024-11-08T07:00:00	4	Temperatura máxima	8
6819	7	Sololá	701	Sololá	1	Sololá	2	Febrero	2023-02-16T00:00:00	2024-11-08T07:00:00	3	Temperatura mínima	7.4
6820	7	Sololá	701	Sololá	1	Sololá	2	Febrero	2023-02-16T00:00:00	2024-11-08T07:00:00	5	Humedad	59
6821	7	Sololá	701	Sololá	1	Sololá	2	Febrero	2023-02-16T00:00:00	2024-11-08T07:00:00	6	Velocidad del viento	3.2
6822	7	Sololá	701	Sololá	1	Sololá	2	Febrero	2023-02-16T00:00:00	2024-11-08T07:00:00	7	Dirección del viento	3.22
6823	7	Sololá	701	Sololá	1	Sololá	2	Febrero	2023-02-16T00:00:00	2024-11-08T07:00:00	1	Precipitación	0
6824	7	Sololá	701	Sololá	1	Sololá	2	Febrero	2023-02-16T00:00:00	2024-11-08T07:00:00	8	Radiación solar	3
6825	7	Sololá	701	Sololá	1	Sololá	2	Febrero	2023-02-16T00:00:00	2024-11-08T08:00:00	2	Temperatura media	14.1
6826	7	Sololá	701	Sololá	1	Sololá	2	Febrero	2023-02-16T00:00:00	2024-11-08T08:00:00	4	Temperatura máxima	14.1
6827	7	Sololá	701	Sololá	1	Sololá	2	Febrero	2023-02-16T00:00:00	2024-11-08T08:00:00	3	Temperatura mínima	8
6828	7	Sololá	701	Sololá	1	Sololá	2	Febrero	2023-02-16T00:00:00	2024-11-08T08:00:00	5	Humedad	58
6829	7	Sololá	701	Sololá	1	Sololá	2	Febrero	2023-02-16T00:00:00	2024-11-08T08:00:00	6	Velocidad del viento	3.2
6830	7	Sololá	701	Sololá	1	Sololá	2	Febrero	2023-02-16T00:00:00	2024-11-08T08:00:00	7	Dirección del viento	3.22
6831	7	Sololá	701	Sololá	1	Sololá	2	Febrero	2023-02-16T00:00:00	2024-11-08T08:00:00	1	Precipitación	0
6832	7	Sololá	701	Sololá	1	Sololá	2	Febrero	2023-02-16T00:00:00	2024-11-08T08:00:00	8	Radiación solar	21
6833	7	Sololá	701	Sololá	1	Sololá	2	Febrero	2023-02-16T00:00:00	2024-11-08T09:00:00	2	Temperatura media	15.1
6834	7	Sololá	701	Sololá	1	Sololá	2	Febrero	2023-02-16T00:00:00	2024-11-08T09:00:00	4	Temperatura máxima	15.2
6835	7	Sololá	701	Sololá	1	Sololá	2	Febrero	2023-02-16T00:00:00	2024-11-08T09:00:00	3	Temperatura mínima	14
6836	7	Sololá	701	Sololá	1	Sololá	2	Febrero	2023-02-16T00:00:00	2024-11-08T09:00:00	5	Humedad	76
6837	7	Sololá	701	Sololá	1	Sololá	2	Febrero	2023-02-16T00:00:00	2024-11-08T09:00:00	6	Velocidad del viento	3.2
6838	7	Sololá	701	Sololá	1	Sololá	2	Febrero	2023-02-16T00:00:00	2024-11-08T09:00:00	7	Dirección del viento	3.22
6839	7	Sololá	701	Sololá	1	Sololá	2	Febrero	2023-02-16T00:00:00	2024-11-08T09:00:00	1	Precipitación	0
6840	7	Sololá	701	Sololá	1	Sololá	2	Febrero	2023-02-16T00:00:00	2024-11-08T09:00:00	8	Radiación solar	346
6841	7	Sololá	701	Sololá	1	Sololá	2	Febrero	2023-02-16T00:00:00	2024-11-08T10:00:00	2	Temperatura media	16.9
6842	7	Sololá	701	Sololá	1	Sololá	2	Febrero	2023-02-16T00:00:00	2024-11-08T10:00:00	4	Temperatura máxima	16.9
6843	7	Sololá	701	Sololá	1	Sololá	2	Febrero	2023-02-16T00:00:00	2024-11-08T10:00:00	3	Temperatura mínima	15.2
6844	7	Sololá	701	Sololá	1	Sololá	2	Febrero	2023-02-16T00:00:00	2024-11-08T10:00:00	5	Humedad	74
6845	7	Sololá	701	Sololá	1	Sololá	2	Febrero	2023-02-16T00:00:00	2024-11-08T10:00:00	6	Velocidad del viento	3.2
6846	7	Sololá	701	Sololá	1	Sololá	2	Febrero	2023-02-16T00:00:00	2024-11-08T10:00:00	7	Dirección del viento	3.22
6847	7	Sololá	701	Sololá	1	Sololá	2	Febrero	2023-02-16T00:00:00	2024-11-08T10:00:00	1	Precipitación	0
6848	7	Sololá	701	Sololá	1	Sololá	2	Febrero	2023-02-16T00:00:00	2024-11-08T10:00:00	8	Radiación solar	661
6849	7	Sololá	701	Sololá	1	Sololá	2	Febrero	2023-02-16T00:00:00	2024-11-08T11:00:00	2	Temperatura media	17.9
6850	7	Sololá	701	Sololá	1	Sololá	2	Febrero	2023-02-16T00:00:00	2024-11-08T11:00:00	4	Temperatura máxima	18.2
6851	7	Sololá	701	Sololá	1	Sololá	2	Febrero	2023-02-16T00:00:00	2024-11-08T11:00:00	3	Temperatura mínima	16.9
6852	7	Sololá	701	Sololá	1	Sololá	2	Febrero	2023-02-16T00:00:00	2024-11-08T11:00:00	5	Humedad	70
6853	7	Sololá	701	Sololá	1	Sololá	2	Febrero	2023-02-16T00:00:00	2024-11-08T11:00:00	6	Velocidad del viento	4.8
6854	7	Sololá	701	Sololá	1	Sololá	2	Febrero	2023-02-16T00:00:00	2024-11-08T11:00:00	7	Dirección del viento	4.83
6855	7	Sololá	701	Sololá	1	Sololá	2	Febrero	2023-02-16T00:00:00	2024-11-08T11:00:00	1	Precipitación	0
6856	7	Sololá	701	Sololá	1	Sololá	2	Febrero	2023-02-16T00:00:00	2024-11-08T11:00:00	8	Radiación solar	825
6857	7	Sololá	701	Sololá	1	Sololá	2	Febrero	2023-02-16T00:00:00	2024-11-08T12:00:00	2	Temperatura media	19.3
6858	7	Sololá	701	Sololá	1	Sololá	2	Febrero	2023-02-16T00:00:00	2024-11-08T12:00:00	4	Temperatura máxima	19.3
6859	7	Sololá	701	Sololá	1	Sololá	2	Febrero	2023-02-16T00:00:00	2024-11-08T12:00:00	3	Temperatura mínima	17.8
6860	7	Sololá	701	Sololá	1	Sololá	2	Febrero	2023-02-16T00:00:00	2024-11-08T12:00:00	5	Humedad	64
6861	7	Sololá	701	Sololá	1	Sololá	2	Febrero	2023-02-16T00:00:00	2024-11-08T12:00:00	6	Velocidad del viento	6.4
6862	7	Sololá	701	Sololá	1	Sololá	2	Febrero	2023-02-16T00:00:00	2024-11-08T12:00:00	7	Dirección del viento	6.44
6863	7	Sololá	701	Sololá	1	Sololá	2	Febrero	2023-02-16T00:00:00	2024-11-08T12:00:00	1	Precipitación	0
6864	7	Sololá	701	Sololá	1	Sololá	2	Febrero	2023-02-16T00:00:00	2024-11-08T12:00:00	8	Radiación solar	450
6865	7	Sololá	701	Sololá	1	Sololá	2	Febrero	2023-02-16T00:00:00	2024-11-08T13:00:00	2	Temperatura media	19.2
6866	7	Sololá	701	Sololá	1	Sololá	2	Febrero	2023-02-16T00:00:00	2024-11-08T13:00:00	4	Temperatura máxima	19.4
6867	7	Sololá	701	Sololá	1	Sololá	2	Febrero	2023-02-16T00:00:00	2024-11-08T13:00:00	3	Temperatura mínima	19.1
6868	7	Sololá	701	Sololá	1	Sololá	2	Febrero	2023-02-16T00:00:00	2024-11-08T13:00:00	5	Humedad	72
6869	7	Sololá	701	Sololá	1	Sololá	2	Febrero	2023-02-16T00:00:00	2024-11-08T13:00:00	6	Velocidad del viento	8
6870	7	Sololá	701	Sololá	1	Sololá	2	Febrero	2023-02-16T00:00:00	2024-11-08T13:00:00	7	Dirección del viento	8.05
6871	7	Sololá	701	Sololá	1	Sololá	2	Febrero	2023-02-16T00:00:00	2024-11-08T13:00:00	1	Precipitación	0
6872	7	Sololá	701	Sololá	1	Sololá	2	Febrero	2023-02-16T00:00:00	2024-11-08T13:00:00	8	Radiación solar	285
6873	7	Sololá	701	Sololá	1	Sololá	2	Febrero	2023-02-16T00:00:00	2024-11-08T14:00:00	2	Temperatura media	18.3
6874	7	Sololá	701	Sololá	1	Sololá	2	Febrero	2023-02-16T00:00:00	2024-11-08T14:00:00	4	Temperatura máxima	19.2
6875	7	Sololá	701	Sololá	1	Sololá	2	Febrero	2023-02-16T00:00:00	2024-11-08T14:00:00	3	Temperatura mínima	17.8
6876	7	Sololá	701	Sololá	1	Sololá	2	Febrero	2023-02-16T00:00:00	2024-11-08T14:00:00	5	Humedad	79
6877	7	Sololá	701	Sololá	1	Sololá	2	Febrero	2023-02-16T00:00:00	2024-11-08T14:00:00	6	Velocidad del viento	8
6878	7	Sololá	701	Sololá	1	Sololá	2	Febrero	2023-02-16T00:00:00	2024-11-08T14:00:00	7	Dirección del viento	8.05
6879	7	Sololá	701	Sololá	1	Sololá	2	Febrero	2023-02-16T00:00:00	2024-11-08T14:00:00	1	Precipitación	0
6880	7	Sololá	701	Sololá	1	Sololá	2	Febrero	2023-02-16T00:00:00	2024-11-08T14:00:00	8	Radiación solar	209
6881	7	Sololá	701	Sololá	1	Sololá	2	Febrero	2023-02-16T00:00:00	2024-11-08T15:00:00	2	Temperatura media	17.8
6882	7	Sololá	701	Sololá	1	Sololá	2	Febrero	2023-02-16T00:00:00	2024-11-08T15:00:00	4	Temperatura máxima	18.3
6883	7	Sololá	701	Sololá	1	Sololá	2	Febrero	2023-02-16T00:00:00	2024-11-08T15:00:00	3	Temperatura mínima	17.1
6884	7	Sololá	701	Sololá	1	Sololá	2	Febrero	2023-02-16T00:00:00	2024-11-08T15:00:00	5	Humedad	80
6885	7	Sololá	701	Sololá	1	Sololá	2	Febrero	2023-02-16T00:00:00	2024-11-08T15:00:00	6	Velocidad del viento	4.8
6886	7	Sololá	701	Sololá	1	Sololá	2	Febrero	2023-02-16T00:00:00	2024-11-08T15:00:00	7	Dirección del viento	4.83
6887	7	Sololá	701	Sololá	1	Sololá	2	Febrero	2023-02-16T00:00:00	2024-11-08T15:00:00	1	Precipitación	0
6888	7	Sololá	701	Sololá	1	Sololá	2	Febrero	2023-02-16T00:00:00	2024-11-08T15:00:00	8	Radiación solar	91
6889	7	Sololá	701	Sololá	1	Sololá	2	Febrero	2023-02-16T00:00:00	2024-11-08T16:00:00	2	Temperatura media	16.8
6890	7	Sololá	701	Sololá	1	Sololá	2	Febrero	2023-02-16T00:00:00	2024-11-08T16:00:00	4	Temperatura máxima	17.9
6891	7	Sololá	701	Sololá	1	Sololá	2	Febrero	2023-02-16T00:00:00	2024-11-08T16:00:00	3	Temperatura mínima	16.8
6892	7	Sololá	701	Sololá	1	Sololá	2	Febrero	2023-02-16T00:00:00	2024-11-08T16:00:00	5	Humedad	85
6893	7	Sololá	701	Sololá	1	Sololá	2	Febrero	2023-02-16T00:00:00	2024-11-08T16:00:00	6	Velocidad del viento	4.8
6894	7	Sololá	701	Sololá	1	Sololá	2	Febrero	2023-02-16T00:00:00	2024-11-08T16:00:00	7	Dirección del viento	4.83
6895	7	Sololá	701	Sololá	1	Sololá	2	Febrero	2023-02-16T00:00:00	2024-11-08T16:00:00	1	Precipitación	0
6896	7	Sololá	701	Sololá	1	Sololá	2	Febrero	2023-02-16T00:00:00	2024-11-08T16:00:00	8	Radiación solar	19
6897	7	Sololá	701	Sololá	1	Sololá	2	Febrero	2023-02-16T00:00:00	2024-11-08T17:00:00	2	Temperatura media	15.7
6898	7	Sololá	701	Sololá	1	Sololá	2	Febrero	2023-02-16T00:00:00	2024-11-08T17:00:00	4	Temperatura máxima	16.8
6899	7	Sololá	701	Sololá	1	Sololá	2	Febrero	2023-02-16T00:00:00	2024-11-08T17:00:00	3	Temperatura mínima	15.6
6900	7	Sololá	701	Sololá	1	Sololá	2	Febrero	2023-02-16T00:00:00	2024-11-08T17:00:00	5	Humedad	89
6901	7	Sololá	701	Sololá	1	Sololá	2	Febrero	2023-02-16T00:00:00	2024-11-08T17:00:00	6	Velocidad del viento	4.8
6902	7	Sololá	701	Sololá	1	Sololá	2	Febrero	2023-02-16T00:00:00	2024-11-08T17:00:00	7	Dirección del viento	4.83
6903	7	Sololá	701	Sololá	1	Sololá	2	Febrero	2023-02-16T00:00:00	2024-11-08T17:00:00	1	Precipitación	0
6904	7	Sololá	701	Sololá	1	Sololá	2	Febrero	2023-02-16T00:00:00	2024-11-08T17:00:00	8	Radiación solar	43
6905	7	Sololá	701	Sololá	1	Sololá	2	Febrero	2023-02-16T00:00:00	2024-11-08T18:00:00	2	Temperatura media	15.4
6906	7	Sololá	701	Sololá	1	Sololá	2	Febrero	2023-02-16T00:00:00	2024-11-08T18:00:00	4	Temperatura máxima	15.9
6907	7	Sololá	701	Sololá	1	Sololá	2	Febrero	2023-02-16T00:00:00	2024-11-08T18:00:00	3	Temperatura mínima	15.3
6908	7	Sololá	701	Sololá	1	Sololá	2	Febrero	2023-02-16T00:00:00	2024-11-08T18:00:00	5	Humedad	89
6909	7	Sololá	701	Sololá	1	Sololá	2	Febrero	2023-02-16T00:00:00	2024-11-08T18:00:00	6	Velocidad del viento	1.6
6910	7	Sololá	701	Sololá	1	Sololá	2	Febrero	2023-02-16T00:00:00	2024-11-08T18:00:00	7	Dirección del viento	1.61
6911	7	Sololá	701	Sololá	1	Sololá	2	Febrero	2023-02-16T00:00:00	2024-11-08T18:00:00	1	Precipitación	0
6912	7	Sololá	701	Sololá	1	Sololá	2	Febrero	2023-02-16T00:00:00	2024-11-08T18:00:00	8	Radiación solar	7
6913	7	Sololá	701	Sololá	1	Sololá	2	Febrero	2023-02-16T00:00:00	2024-11-08T19:00:00	2	Temperatura media	14.9
6914	7	Sololá	701	Sololá	1	Sololá	2	Febrero	2023-02-16T00:00:00	2024-11-08T19:00:00	4	Temperatura máxima	15.4
6915	7	Sololá	701	Sololá	1	Sololá	2	Febrero	2023-02-16T00:00:00	2024-11-08T19:00:00	3	Temperatura mínima	14.8
6916	7	Sololá	701	Sololá	1	Sololá	2	Febrero	2023-02-16T00:00:00	2024-11-08T19:00:00	5	Humedad	91
6917	7	Sololá	701	Sololá	1	Sololá	2	Febrero	2023-02-16T00:00:00	2024-11-08T19:00:00	6	Velocidad del viento	0
6918	7	Sololá	701	Sololá	1	Sololá	2	Febrero	2023-02-16T00:00:00	2024-11-08T19:00:00	7	Dirección del viento	0
6919	7	Sololá	701	Sololá	1	Sololá	2	Febrero	2023-02-16T00:00:00	2024-11-08T19:00:00	1	Precipitación	0
6920	7	Sololá	701	Sololá	1	Sololá	2	Febrero	2023-02-16T00:00:00	2024-11-08T19:00:00	8	Radiación solar	0
6921	7	Sololá	701	Sololá	1	Sololá	2	Febrero	2023-02-16T00:00:00	2024-11-08T20:00:00	2	Temperatura media	13.6
6922	7	Sololá	701	Sololá	1	Sololá	2	Febrero	2023-02-16T00:00:00	2024-11-08T20:00:00	4	Temperatura máxima	14.9
6923	7	Sololá	701	Sololá	1	Sololá	2	Febrero	2023-02-16T00:00:00	2024-11-08T20:00:00	3	Temperatura mínima	13.6
6924	7	Sololá	701	Sololá	1	Sololá	2	Febrero	2023-02-16T00:00:00	2024-11-08T20:00:00	5	Humedad	82
6925	7	Sololá	701	Sololá	1	Sololá	2	Febrero	2023-02-16T00:00:00	2024-11-08T20:00:00	6	Velocidad del viento	1.6
6926	7	Sololá	701	Sololá	1	Sololá	2	Febrero	2023-02-16T00:00:00	2024-11-08T20:00:00	7	Dirección del viento	1.61
6927	7	Sololá	701	Sololá	1	Sololá	2	Febrero	2023-02-16T00:00:00	2024-11-08T20:00:00	1	Precipitación	0
6928	7	Sololá	701	Sololá	1	Sololá	2	Febrero	2023-02-16T00:00:00	2024-11-08T20:00:00	8	Radiación solar	0
6929	7	Sololá	701	Sololá	1	Sololá	2	Febrero	2023-02-16T00:00:00	2024-11-08T21:00:00	2	Temperatura media	13.7
6930	7	Sololá	701	Sololá	1	Sololá	2	Febrero	2023-02-16T00:00:00	2024-11-08T21:00:00	4	Temperatura máxima	13.7
6931	7	Sololá	701	Sololá	1	Sololá	2	Febrero	2023-02-16T00:00:00	2024-11-08T21:00:00	3	Temperatura mínima	13.4
6932	7	Sololá	701	Sololá	1	Sololá	2	Febrero	2023-02-16T00:00:00	2024-11-08T21:00:00	5	Humedad	76
6933	7	Sololá	701	Sololá	1	Sololá	2	Febrero	2023-02-16T00:00:00	2024-11-08T21:00:00	6	Velocidad del viento	1.6
6934	7	Sololá	701	Sololá	1	Sololá	2	Febrero	2023-02-16T00:00:00	2024-11-08T21:00:00	7	Dirección del viento	1.61
6935	7	Sololá	701	Sololá	1	Sololá	2	Febrero	2023-02-16T00:00:00	2024-11-08T21:00:00	1	Precipitación	0
6936	7	Sololá	701	Sololá	1	Sololá	2	Febrero	2023-02-16T00:00:00	2024-11-08T21:00:00	8	Radiación solar	0
6937	7	Sololá	701	Sololá	1	Sololá	2	Febrero	2023-02-16T00:00:00	2024-11-08T22:00:00	2	Temperatura media	15.1
6938	7	Sololá	701	Sololá	1	Sololá	2	Febrero	2023-02-16T00:00:00	2024-11-08T22:00:00	4	Temperatura máxima	15.3
6939	7	Sololá	701	Sololá	1	Sololá	2	Febrero	2023-02-16T00:00:00	2024-11-08T22:00:00	3	Temperatura mínima	13.6
6940	7	Sololá	701	Sololá	1	Sololá	2	Febrero	2023-02-16T00:00:00	2024-11-08T22:00:00	5	Humedad	76
6941	7	Sololá	701	Sololá	1	Sololá	2	Febrero	2023-02-16T00:00:00	2024-11-08T22:00:00	6	Velocidad del viento	1.6
6942	7	Sololá	701	Sololá	1	Sololá	2	Febrero	2023-02-16T00:00:00	2024-11-08T22:00:00	7	Dirección del viento	1.61
6943	7	Sololá	701	Sololá	1	Sololá	2	Febrero	2023-02-16T00:00:00	2024-11-08T22:00:00	1	Precipitación	0
6944	7	Sololá	701	Sololá	1	Sololá	2	Febrero	2023-02-16T00:00:00	2024-11-08T22:00:00	8	Radiación solar	0
6945	7	Sololá	701	Sololá	1	Sololá	2	Febrero	2023-02-16T00:00:00	2024-11-08T23:00:00	2	Temperatura media	13.7
6946	7	Sololá	701	Sololá	1	Sololá	2	Febrero	2023-02-16T00:00:00	2024-11-08T23:00:00	4	Temperatura máxima	15.3
6947	7	Sololá	701	Sololá	1	Sololá	2	Febrero	2023-02-16T00:00:00	2024-11-08T23:00:00	3	Temperatura mínima	13.7
6948	7	Sololá	701	Sololá	1	Sololá	2	Febrero	2023-02-16T00:00:00	2024-11-08T23:00:00	5	Humedad	80
6949	7	Sololá	701	Sololá	1	Sololá	2	Febrero	2023-02-16T00:00:00	2024-11-08T23:00:00	6	Velocidad del viento	1.6
6950	7	Sololá	701	Sololá	1	Sololá	2	Febrero	2023-02-16T00:00:00	2024-11-08T23:00:00	7	Dirección del viento	1.61
6951	7	Sololá	701	Sololá	1	Sololá	2	Febrero	2023-02-16T00:00:00	2024-11-08T23:00:00	1	Precipitación	0
6952	7	Sololá	701	Sololá	1	Sololá	2	Febrero	2023-02-16T00:00:00	2024-11-08T23:00:00	8	Radiación solar	0
6953	7	Sololá	701	Sololá	1	Sololá	2	Febrero	2023-02-17T00:00:00	2024-11-08T00:00:00	2	Temperatura media	12.4
6954	7	Sololá	701	Sololá	1	Sololá	2	Febrero	2023-02-17T00:00:00	2024-11-08T00:00:00	4	Temperatura máxima	13.7
6955	7	Sololá	701	Sololá	1	Sololá	2	Febrero	2023-02-17T00:00:00	2024-11-08T00:00:00	3	Temperatura mínima	12.4
6956	7	Sololá	701	Sololá	1	Sololá	2	Febrero	2023-02-17T00:00:00	2024-11-08T00:00:00	5	Humedad	83
6957	7	Sololá	701	Sololá	1	Sololá	2	Febrero	2023-02-17T00:00:00	2024-11-08T00:00:00	6	Velocidad del viento	1.6
6958	7	Sololá	701	Sololá	1	Sololá	2	Febrero	2023-02-17T00:00:00	2024-11-08T00:00:00	7	Dirección del viento	1.61
6959	7	Sololá	701	Sololá	1	Sololá	2	Febrero	2023-02-17T00:00:00	2024-11-08T00:00:00	1	Precipitación	0
6960	7	Sololá	701	Sololá	1	Sololá	2	Febrero	2023-02-17T00:00:00	2024-11-08T00:00:00	8	Radiación solar	0
6961	7	Sololá	701	Sololá	1	Sololá	2	Febrero	2023-02-17T00:00:00	2024-11-08T01:00:00	2	Temperatura media	11.6
6962	7	Sololá	701	Sololá	1	Sololá	2	Febrero	2023-02-17T00:00:00	2024-11-08T01:00:00	4	Temperatura máxima	12.4
6963	7	Sololá	701	Sololá	1	Sololá	2	Febrero	2023-02-17T00:00:00	2024-11-08T01:00:00	3	Temperatura mínima	11.6
6964	7	Sololá	701	Sololá	1	Sololá	2	Febrero	2023-02-17T00:00:00	2024-11-08T01:00:00	5	Humedad	81
6965	7	Sololá	701	Sololá	1	Sololá	2	Febrero	2023-02-17T00:00:00	2024-11-08T01:00:00	6	Velocidad del viento	1.6
6966	7	Sololá	701	Sololá	1	Sololá	2	Febrero	2023-02-17T00:00:00	2024-11-08T01:00:00	7	Dirección del viento	1.61
6967	7	Sololá	701	Sololá	1	Sololá	2	Febrero	2023-02-17T00:00:00	2024-11-08T01:00:00	1	Precipitación	0
6968	7	Sololá	701	Sololá	1	Sololá	2	Febrero	2023-02-17T00:00:00	2024-11-08T01:00:00	8	Radiación solar	0
6969	7	Sololá	701	Sololá	1	Sololá	2	Febrero	2023-02-17T00:00:00	2024-11-08T02:00:00	2	Temperatura media	10.5
6970	7	Sololá	701	Sololá	1	Sololá	2	Febrero	2023-02-17T00:00:00	2024-11-08T02:00:00	4	Temperatura máxima	11.6
6971	7	Sololá	701	Sololá	1	Sololá	2	Febrero	2023-02-17T00:00:00	2024-11-08T02:00:00	3	Temperatura mínima	10.5
6972	7	Sololá	701	Sololá	1	Sololá	2	Febrero	2023-02-17T00:00:00	2024-11-08T02:00:00	5	Humedad	82
6973	7	Sololá	701	Sololá	1	Sololá	2	Febrero	2023-02-17T00:00:00	2024-11-08T02:00:00	6	Velocidad del viento	1.6
6974	7	Sololá	701	Sololá	1	Sololá	2	Febrero	2023-02-17T00:00:00	2024-11-08T02:00:00	7	Dirección del viento	1.61
6975	7	Sololá	701	Sololá	1	Sololá	2	Febrero	2023-02-17T00:00:00	2024-11-08T02:00:00	1	Precipitación	0
6976	7	Sololá	701	Sololá	1	Sololá	2	Febrero	2023-02-17T00:00:00	2024-11-08T02:00:00	8	Radiación solar	0
6977	7	Sololá	701	Sololá	1	Sololá	2	Febrero	2023-02-17T00:00:00	2024-11-08T03:00:00	2	Temperatura media	10.1
6978	7	Sololá	701	Sololá	1	Sololá	2	Febrero	2023-02-17T00:00:00	2024-11-08T03:00:00	4	Temperatura máxima	10.5
6979	7	Sololá	701	Sololá	1	Sololá	2	Febrero	2023-02-17T00:00:00	2024-11-08T03:00:00	3	Temperatura mínima	9.9
6980	7	Sololá	701	Sololá	1	Sololá	2	Febrero	2023-02-17T00:00:00	2024-11-08T03:00:00	5	Humedad	82
6981	7	Sololá	701	Sololá	1	Sololá	2	Febrero	2023-02-17T00:00:00	2024-11-08T03:00:00	6	Velocidad del viento	1.6
6982	7	Sololá	701	Sololá	1	Sololá	2	Febrero	2023-02-17T00:00:00	2024-11-08T03:00:00	7	Dirección del viento	1.61
6983	7	Sololá	701	Sololá	1	Sololá	2	Febrero	2023-02-17T00:00:00	2024-11-08T03:00:00	1	Precipitación	0
6984	7	Sololá	701	Sololá	1	Sololá	2	Febrero	2023-02-17T00:00:00	2024-11-08T03:00:00	8	Radiación solar	0
6985	7	Sololá	701	Sololá	1	Sololá	2	Febrero	2023-02-17T00:00:00	2024-11-08T04:00:00	2	Temperatura media	9.1
6986	7	Sololá	701	Sololá	1	Sololá	2	Febrero	2023-02-17T00:00:00	2024-11-08T04:00:00	4	Temperatura máxima	10.2
6987	7	Sololá	701	Sololá	1	Sololá	2	Febrero	2023-02-17T00:00:00	2024-11-08T04:00:00	3	Temperatura mínima	9
6988	7	Sololá	701	Sololá	1	Sololá	2	Febrero	2023-02-17T00:00:00	2024-11-08T04:00:00	5	Humedad	80
6989	7	Sololá	701	Sololá	1	Sololá	2	Febrero	2023-02-17T00:00:00	2024-11-08T04:00:00	6	Velocidad del viento	3.2
6990	7	Sololá	701	Sololá	1	Sololá	2	Febrero	2023-02-17T00:00:00	2024-11-08T04:00:00	7	Dirección del viento	3.22
6991	7	Sololá	701	Sololá	1	Sololá	2	Febrero	2023-02-17T00:00:00	2024-11-08T04:00:00	1	Precipitación	0
6992	7	Sololá	701	Sololá	1	Sololá	2	Febrero	2023-02-17T00:00:00	2024-11-08T04:00:00	8	Radiación solar	0
6993	7	Sololá	701	Sololá	1	Sololá	2	Febrero	2023-02-17T00:00:00	2024-11-08T05:00:00	2	Temperatura media	8.7
6994	7	Sololá	701	Sololá	1	Sololá	2	Febrero	2023-02-17T00:00:00	2024-11-08T05:00:00	4	Temperatura máxima	9.1
6995	7	Sololá	701	Sololá	1	Sololá	2	Febrero	2023-02-17T00:00:00	2024-11-08T05:00:00	3	Temperatura mínima	8.7
6996	7	Sololá	701	Sololá	1	Sololá	2	Febrero	2023-02-17T00:00:00	2024-11-08T05:00:00	5	Humedad	82
6997	7	Sololá	701	Sololá	1	Sololá	2	Febrero	2023-02-17T00:00:00	2024-11-08T05:00:00	6	Velocidad del viento	1.6
6998	7	Sololá	701	Sololá	1	Sololá	2	Febrero	2023-02-17T00:00:00	2024-11-08T05:00:00	7	Dirección del viento	1.61
6999	7	Sololá	701	Sololá	1	Sololá	2	Febrero	2023-02-17T00:00:00	2024-11-08T05:00:00	1	Precipitación	0
7000	7	Sololá	701	Sololá	1	Sololá	2	Febrero	2023-02-17T00:00:00	2024-11-08T05:00:00	8	Radiación solar	0
7001	7	Sololá	701	Sololá	1	Sololá	2	Febrero	2023-02-17T00:00:00	2024-11-08T06:00:00	2	Temperatura media	8.3
7002	7	Sololá	701	Sololá	1	Sololá	2	Febrero	2023-02-17T00:00:00	2024-11-08T06:00:00	4	Temperatura máxima	8.7
7003	7	Sololá	701	Sololá	1	Sololá	2	Febrero	2023-02-17T00:00:00	2024-11-08T06:00:00	3	Temperatura mínima	8.2
7004	7	Sololá	701	Sololá	1	Sololá	2	Febrero	2023-02-17T00:00:00	2024-11-08T06:00:00	5	Humedad	73
7005	7	Sololá	701	Sololá	1	Sololá	2	Febrero	2023-02-17T00:00:00	2024-11-08T06:00:00	6	Velocidad del viento	1.6
7006	7	Sololá	701	Sololá	1	Sololá	2	Febrero	2023-02-17T00:00:00	2024-11-08T06:00:00	7	Dirección del viento	1.61
7007	7	Sololá	701	Sololá	1	Sololá	2	Febrero	2023-02-17T00:00:00	2024-11-08T06:00:00	1	Precipitación	0
7008	7	Sololá	701	Sololá	1	Sololá	2	Febrero	2023-02-17T00:00:00	2024-11-08T06:00:00	8	Radiación solar	0
7009	7	Sololá	701	Sololá	1	Sololá	2	Febrero	2023-02-17T00:00:00	2024-11-08T07:00:00	2	Temperatura media	8.8
7010	7	Sololá	701	Sololá	1	Sololá	2	Febrero	2023-02-17T00:00:00	2024-11-08T07:00:00	4	Temperatura máxima	8.8
7011	7	Sololá	701	Sololá	1	Sololá	2	Febrero	2023-02-17T00:00:00	2024-11-08T07:00:00	3	Temperatura mínima	8.2
7012	7	Sololá	701	Sololá	1	Sololá	2	Febrero	2023-02-17T00:00:00	2024-11-08T07:00:00	5	Humedad	73
7013	7	Sololá	701	Sololá	1	Sololá	2	Febrero	2023-02-17T00:00:00	2024-11-08T07:00:00	6	Velocidad del viento	1.6
7014	7	Sololá	701	Sololá	1	Sololá	2	Febrero	2023-02-17T00:00:00	2024-11-08T07:00:00	7	Dirección del viento	1.61
7015	7	Sololá	701	Sololá	1	Sololá	2	Febrero	2023-02-17T00:00:00	2024-11-08T07:00:00	1	Precipitación	0
7016	7	Sololá	701	Sololá	1	Sololá	2	Febrero	2023-02-17T00:00:00	2024-11-08T07:00:00	8	Radiación solar	5
7017	7	Sololá	701	Sololá	1	Sololá	2	Febrero	2023-02-17T00:00:00	2024-11-08T08:00:00	2	Temperatura media	13.4
7018	7	Sololá	701	Sololá	1	Sololá	2	Febrero	2023-02-17T00:00:00	2024-11-08T08:00:00	4	Temperatura máxima	13.4
7019	7	Sololá	701	Sololá	1	Sololá	2	Febrero	2023-02-17T00:00:00	2024-11-08T08:00:00	3	Temperatura mínima	8.8
7020	7	Sololá	701	Sololá	1	Sololá	2	Febrero	2023-02-17T00:00:00	2024-11-08T08:00:00	5	Humedad	83
7021	7	Sololá	701	Sololá	1	Sololá	2	Febrero	2023-02-17T00:00:00	2024-11-08T08:00:00	6	Velocidad del viento	1.6
7022	7	Sololá	701	Sololá	1	Sololá	2	Febrero	2023-02-17T00:00:00	2024-11-08T08:00:00	7	Dirección del viento	1.61
7023	7	Sololá	701	Sololá	1	Sololá	2	Febrero	2023-02-17T00:00:00	2024-11-08T08:00:00	1	Precipitación	0
7024	7	Sololá	701	Sololá	1	Sololá	2	Febrero	2023-02-17T00:00:00	2024-11-08T08:00:00	8	Radiación solar	27
7025	7	Sololá	701	Sololá	1	Sololá	2	Febrero	2023-02-17T00:00:00	2024-11-08T09:00:00	2	Temperatura media	15.3
7026	7	Sololá	701	Sololá	1	Sololá	2	Febrero	2023-02-17T00:00:00	2024-11-08T09:00:00	4	Temperatura máxima	15.3
7027	7	Sololá	701	Sololá	1	Sololá	2	Febrero	2023-02-17T00:00:00	2024-11-08T09:00:00	3	Temperatura mínima	13.5
7028	7	Sololá	701	Sololá	1	Sololá	2	Febrero	2023-02-17T00:00:00	2024-11-08T09:00:00	5	Humedad	79
7029	7	Sololá	701	Sololá	1	Sololá	2	Febrero	2023-02-17T00:00:00	2024-11-08T09:00:00	6	Velocidad del viento	3.2
7030	7	Sololá	701	Sololá	1	Sololá	2	Febrero	2023-02-17T00:00:00	2024-11-08T09:00:00	7	Dirección del viento	3.22
7031	7	Sololá	701	Sololá	1	Sololá	2	Febrero	2023-02-17T00:00:00	2024-11-08T09:00:00	1	Precipitación	0
7032	7	Sololá	701	Sololá	1	Sololá	2	Febrero	2023-02-17T00:00:00	2024-11-08T09:00:00	8	Radiación solar	321
7033	7	Sololá	701	Sololá	1	Sololá	2	Febrero	2023-02-17T00:00:00	2024-11-08T10:00:00	2	Temperatura media	17.1
7034	7	Sololá	701	Sololá	1	Sololá	2	Febrero	2023-02-17T00:00:00	2024-11-08T10:00:00	4	Temperatura máxima	17.1
7035	7	Sololá	701	Sololá	1	Sololá	2	Febrero	2023-02-17T00:00:00	2024-11-08T10:00:00	3	Temperatura mínima	15.3
7036	7	Sololá	701	Sololá	1	Sololá	2	Febrero	2023-02-17T00:00:00	2024-11-08T10:00:00	5	Humedad	74
7037	7	Sololá	701	Sololá	1	Sololá	2	Febrero	2023-02-17T00:00:00	2024-11-08T10:00:00	6	Velocidad del viento	4.8
7038	7	Sololá	701	Sololá	1	Sololá	2	Febrero	2023-02-17T00:00:00	2024-11-08T10:00:00	7	Dirección del viento	4.83
7039	7	Sololá	701	Sololá	1	Sololá	2	Febrero	2023-02-17T00:00:00	2024-11-08T10:00:00	1	Precipitación	0
7040	7	Sololá	701	Sololá	1	Sololá	2	Febrero	2023-02-17T00:00:00	2024-11-08T10:00:00	8	Radiación solar	572
7041	7	Sololá	701	Sololá	1	Sololá	2	Febrero	2023-02-17T00:00:00	2024-11-08T11:00:00	2	Temperatura media	20.1
7042	7	Sololá	701	Sololá	1	Sololá	2	Febrero	2023-02-17T00:00:00	2024-11-08T11:00:00	4	Temperatura máxima	20.8
7043	7	Sololá	701	Sololá	1	Sololá	2	Febrero	2023-02-17T00:00:00	2024-11-08T11:00:00	3	Temperatura mínima	17.1
7044	7	Sololá	701	Sololá	1	Sololá	2	Febrero	2023-02-17T00:00:00	2024-11-08T11:00:00	5	Humedad	48
7045	7	Sololá	701	Sololá	1	Sololá	2	Febrero	2023-02-17T00:00:00	2024-11-08T11:00:00	6	Velocidad del viento	8
7046	7	Sololá	701	Sololá	1	Sololá	2	Febrero	2023-02-17T00:00:00	2024-11-08T11:00:00	7	Dirección del viento	8.05
7047	7	Sololá	701	Sololá	1	Sololá	2	Febrero	2023-02-17T00:00:00	2024-11-08T11:00:00	1	Precipitación	0
7048	7	Sololá	701	Sololá	1	Sololá	2	Febrero	2023-02-17T00:00:00	2024-11-08T11:00:00	8	Radiación solar	789
7049	7	Sololá	701	Sololá	1	Sololá	2	Febrero	2023-02-17T00:00:00	2024-11-08T12:00:00	2	Temperatura media	21.3
7050	7	Sololá	701	Sololá	1	Sololá	2	Febrero	2023-02-17T00:00:00	2024-11-08T12:00:00	4	Temperatura máxima	21.3
7051	7	Sololá	701	Sololá	1	Sololá	2	Febrero	2023-02-17T00:00:00	2024-11-08T12:00:00	3	Temperatura mínima	19.9
7052	7	Sololá	701	Sololá	1	Sololá	2	Febrero	2023-02-17T00:00:00	2024-11-08T12:00:00	5	Humedad	46
7053	7	Sololá	701	Sololá	1	Sololá	2	Febrero	2023-02-17T00:00:00	2024-11-08T12:00:00	6	Velocidad del viento	16.1
7054	7	Sololá	701	Sololá	1	Sololá	2	Febrero	2023-02-17T00:00:00	2024-11-08T12:00:00	7	Dirección del viento	16.09
7055	7	Sololá	701	Sololá	1	Sololá	2	Febrero	2023-02-17T00:00:00	2024-11-08T12:00:00	1	Precipitación	0
7056	7	Sololá	701	Sololá	1	Sololá	2	Febrero	2023-02-17T00:00:00	2024-11-08T12:00:00	8	Radiación solar	780
7057	7	Sololá	701	Sololá	1	Sololá	2	Febrero	2023-02-17T00:00:00	2024-11-08T13:00:00	2	Temperatura media	21.1
7058	7	Sololá	701	Sololá	1	Sololá	2	Febrero	2023-02-17T00:00:00	2024-11-08T13:00:00	4	Temperatura máxima	21.4
7059	7	Sololá	701	Sololá	1	Sololá	2	Febrero	2023-02-17T00:00:00	2024-11-08T13:00:00	3	Temperatura mínima	20.7
7060	7	Sololá	701	Sololá	1	Sololá	2	Febrero	2023-02-17T00:00:00	2024-11-08T13:00:00	5	Humedad	46
7061	7	Sololá	701	Sololá	1	Sololá	2	Febrero	2023-02-17T00:00:00	2024-11-08T13:00:00	6	Velocidad del viento	22.5
7062	7	Sololá	701	Sololá	1	Sololá	2	Febrero	2023-02-17T00:00:00	2024-11-08T13:00:00	7	Dirección del viento	22.53
7063	7	Sololá	701	Sololá	1	Sololá	2	Febrero	2023-02-17T00:00:00	2024-11-08T13:00:00	1	Precipitación	0
7064	7	Sololá	701	Sololá	1	Sololá	2	Febrero	2023-02-17T00:00:00	2024-11-08T13:00:00	8	Radiación solar	208
7065	7	Sololá	701	Sololá	1	Sololá	2	Febrero	2023-02-17T00:00:00	2024-11-08T14:00:00	2	Temperatura media	20.9
7066	7	Sololá	701	Sololá	1	Sololá	2	Febrero	2023-02-17T00:00:00	2024-11-08T14:00:00	4	Temperatura máxima	21.3
7067	7	Sololá	701	Sololá	1	Sololá	2	Febrero	2023-02-17T00:00:00	2024-11-08T14:00:00	3	Temperatura mínima	20.6
7068	7	Sololá	701	Sololá	1	Sololá	2	Febrero	2023-02-17T00:00:00	2024-11-08T14:00:00	5	Humedad	46
7069	7	Sololá	701	Sololá	1	Sololá	2	Febrero	2023-02-17T00:00:00	2024-11-08T14:00:00	6	Velocidad del viento	20.9
7070	7	Sololá	701	Sololá	1	Sololá	2	Febrero	2023-02-17T00:00:00	2024-11-08T14:00:00	7	Dirección del viento	20.92
7071	7	Sololá	701	Sololá	1	Sololá	2	Febrero	2023-02-17T00:00:00	2024-11-08T14:00:00	1	Precipitación	0
7072	7	Sololá	701	Sololá	1	Sololá	2	Febrero	2023-02-17T00:00:00	2024-11-08T14:00:00	8	Radiación solar	175
7073	7	Sololá	701	Sololá	1	Sololá	2	Febrero	2023-02-17T00:00:00	2024-11-08T15:00:00	2	Temperatura media	20
7074	7	Sololá	701	Sololá	1	Sololá	2	Febrero	2023-02-17T00:00:00	2024-11-08T15:00:00	4	Temperatura máxima	20.9
7075	7	Sololá	701	Sololá	1	Sololá	2	Febrero	2023-02-17T00:00:00	2024-11-08T15:00:00	3	Temperatura mínima	19.9
7076	7	Sololá	701	Sololá	1	Sololá	2	Febrero	2023-02-17T00:00:00	2024-11-08T15:00:00	5	Humedad	48
7077	7	Sololá	701	Sololá	1	Sololá	2	Febrero	2023-02-17T00:00:00	2024-11-08T15:00:00	6	Velocidad del viento	20.9
7078	7	Sololá	701	Sololá	1	Sololá	2	Febrero	2023-02-17T00:00:00	2024-11-08T15:00:00	7	Dirección del viento	20.92
7079	7	Sololá	701	Sololá	1	Sololá	2	Febrero	2023-02-17T00:00:00	2024-11-08T15:00:00	1	Precipitación	0
7080	7	Sololá	701	Sololá	1	Sololá	2	Febrero	2023-02-17T00:00:00	2024-11-08T15:00:00	8	Radiación solar	222
7081	7	Sololá	701	Sololá	1	Sololá	2	Febrero	2023-02-17T00:00:00	2024-11-08T16:00:00	2	Temperatura media	18.7
7082	7	Sololá	701	Sololá	1	Sololá	2	Febrero	2023-02-17T00:00:00	2024-11-08T16:00:00	4	Temperatura máxima	20.3
7083	7	Sololá	701	Sololá	1	Sololá	2	Febrero	2023-02-17T00:00:00	2024-11-08T16:00:00	3	Temperatura mínima	18.6
7084	7	Sololá	701	Sololá	1	Sololá	2	Febrero	2023-02-17T00:00:00	2024-11-08T16:00:00	5	Humedad	52
7085	7	Sololá	701	Sololá	1	Sololá	2	Febrero	2023-02-17T00:00:00	2024-11-08T16:00:00	6	Velocidad del viento	19.3
7086	7	Sololá	701	Sololá	1	Sololá	2	Febrero	2023-02-17T00:00:00	2024-11-08T16:00:00	7	Dirección del viento	19.31
7087	7	Sololá	701	Sololá	1	Sololá	2	Febrero	2023-02-17T00:00:00	2024-11-08T16:00:00	1	Precipitación	0
7088	7	Sololá	701	Sololá	1	Sololá	2	Febrero	2023-02-17T00:00:00	2024-11-08T16:00:00	8	Radiación solar	122
7089	7	Sololá	701	Sololá	1	Sololá	2	Febrero	2023-02-17T00:00:00	2024-11-08T17:00:00	2	Temperatura media	18.2
7090	7	Sololá	701	Sololá	1	Sololá	2	Febrero	2023-02-17T00:00:00	2024-11-08T17:00:00	4	Temperatura máxima	19.3
7091	7	Sololá	701	Sololá	1	Sololá	2	Febrero	2023-02-17T00:00:00	2024-11-08T17:00:00	3	Temperatura mínima	18.2
7092	7	Sololá	701	Sololá	1	Sololá	2	Febrero	2023-02-17T00:00:00	2024-11-08T17:00:00	5	Humedad	55
7093	7	Sololá	701	Sololá	1	Sololá	2	Febrero	2023-02-17T00:00:00	2024-11-08T17:00:00	6	Velocidad del viento	16.1
7094	7	Sololá	701	Sololá	1	Sololá	2	Febrero	2023-02-17T00:00:00	2024-11-08T17:00:00	7	Dirección del viento	16.09
7095	7	Sololá	701	Sololá	1	Sololá	2	Febrero	2023-02-17T00:00:00	2024-11-08T17:00:00	1	Precipitación	0
7096	7	Sololá	701	Sololá	1	Sololá	2	Febrero	2023-02-17T00:00:00	2024-11-08T17:00:00	8	Radiación solar	5
7097	7	Sololá	701	Sololá	1	Sololá	2	Febrero	2023-02-17T00:00:00	2024-11-08T18:00:00	2	Temperatura media	16
7098	7	Sololá	701	Sololá	1	Sololá	2	Febrero	2023-02-17T00:00:00	2024-11-08T18:00:00	4	Temperatura máxima	18.2
7099	7	Sololá	701	Sololá	1	Sololá	2	Febrero	2023-02-17T00:00:00	2024-11-08T18:00:00	3	Temperatura mínima	16
7100	7	Sololá	701	Sololá	1	Sololá	2	Febrero	2023-02-17T00:00:00	2024-11-08T18:00:00	5	Humedad	66
7101	7	Sololá	701	Sololá	1	Sololá	2	Febrero	2023-02-17T00:00:00	2024-11-08T18:00:00	6	Velocidad del viento	11.3
7102	7	Sololá	701	Sololá	1	Sololá	2	Febrero	2023-02-17T00:00:00	2024-11-08T18:00:00	7	Dirección del viento	11.27
7103	7	Sololá	701	Sololá	1	Sololá	2	Febrero	2023-02-17T00:00:00	2024-11-08T18:00:00	1	Precipitación	0
7104	7	Sololá	701	Sololá	1	Sololá	2	Febrero	2023-02-17T00:00:00	2024-11-08T18:00:00	8	Radiación solar	4
7105	7	Sololá	701	Sololá	1	Sololá	2	Febrero	2023-02-17T00:00:00	2024-11-08T19:00:00	2	Temperatura media	14.6
7106	7	Sololá	701	Sololá	1	Sololá	2	Febrero	2023-02-17T00:00:00	2024-11-08T19:00:00	4	Temperatura máxima	15.9
7107	7	Sololá	701	Sololá	1	Sololá	2	Febrero	2023-02-17T00:00:00	2024-11-08T19:00:00	3	Temperatura mínima	14.5
7108	7	Sololá	701	Sololá	1	Sololá	2	Febrero	2023-02-17T00:00:00	2024-11-08T19:00:00	5	Humedad	70
7109	7	Sololá	701	Sololá	1	Sololá	2	Febrero	2023-02-17T00:00:00	2024-11-08T19:00:00	6	Velocidad del viento	12.9
7110	7	Sololá	701	Sololá	1	Sololá	2	Febrero	2023-02-17T00:00:00	2024-11-08T19:00:00	7	Dirección del viento	12.87
7111	7	Sololá	701	Sololá	1	Sololá	2	Febrero	2023-02-17T00:00:00	2024-11-08T19:00:00	1	Precipitación	0
7112	7	Sololá	701	Sololá	1	Sololá	2	Febrero	2023-02-17T00:00:00	2024-11-08T19:00:00	8	Radiación solar	0
7113	7	Sololá	701	Sololá	1	Sololá	2	Febrero	2023-02-17T00:00:00	2024-11-08T20:00:00	2	Temperatura media	14.1
7114	7	Sololá	701	Sololá	1	Sololá	2	Febrero	2023-02-17T00:00:00	2024-11-08T20:00:00	4	Temperatura máxima	14.6
7115	7	Sololá	701	Sololá	1	Sololá	2	Febrero	2023-02-17T00:00:00	2024-11-08T20:00:00	3	Temperatura mínima	14
7116	7	Sololá	701	Sololá	1	Sololá	2	Febrero	2023-02-17T00:00:00	2024-11-08T20:00:00	5	Humedad	75
7117	7	Sololá	701	Sololá	1	Sololá	2	Febrero	2023-02-17T00:00:00	2024-11-08T20:00:00	6	Velocidad del viento	16.1
7118	7	Sololá	701	Sololá	1	Sololá	2	Febrero	2023-02-17T00:00:00	2024-11-08T20:00:00	7	Dirección del viento	16.09
7119	7	Sololá	701	Sololá	1	Sololá	2	Febrero	2023-02-17T00:00:00	2024-11-08T20:00:00	1	Precipitación	0
7120	7	Sololá	701	Sololá	1	Sololá	2	Febrero	2023-02-17T00:00:00	2024-11-08T20:00:00	8	Radiación solar	0
7121	7	Sololá	701	Sololá	1	Sololá	2	Febrero	2023-02-17T00:00:00	2024-11-08T21:00:00	2	Temperatura media	14.4
7122	7	Sololá	701	Sololá	1	Sololá	2	Febrero	2023-02-17T00:00:00	2024-11-08T21:00:00	4	Temperatura máxima	14.5
7123	7	Sololá	701	Sololá	1	Sololá	2	Febrero	2023-02-17T00:00:00	2024-11-08T21:00:00	3	Temperatura mínima	14
7124	7	Sololá	701	Sololá	1	Sololá	2	Febrero	2023-02-17T00:00:00	2024-11-08T21:00:00	5	Humedad	69
7125	7	Sololá	701	Sololá	1	Sololá	2	Febrero	2023-02-17T00:00:00	2024-11-08T21:00:00	6	Velocidad del viento	17.7
7126	7	Sololá	701	Sololá	1	Sololá	2	Febrero	2023-02-17T00:00:00	2024-11-08T21:00:00	7	Dirección del viento	17.7
7127	7	Sololá	701	Sololá	1	Sololá	2	Febrero	2023-02-17T00:00:00	2024-11-08T21:00:00	1	Precipitación	0
7128	7	Sololá	701	Sololá	1	Sololá	2	Febrero	2023-02-17T00:00:00	2024-11-08T21:00:00	8	Radiación solar	0
7129	7	Sololá	701	Sololá	1	Sololá	2	Febrero	2023-02-17T00:00:00	2024-11-08T22:00:00	2	Temperatura media	14.4
7130	7	Sololá	701	Sololá	1	Sololá	2	Febrero	2023-02-17T00:00:00	2024-11-08T22:00:00	4	Temperatura máxima	14.6
7131	7	Sololá	701	Sololá	1	Sololá	2	Febrero	2023-02-17T00:00:00	2024-11-08T22:00:00	3	Temperatura mínima	14.4
7132	7	Sololá	701	Sololá	1	Sololá	2	Febrero	2023-02-17T00:00:00	2024-11-08T22:00:00	5	Humedad	73
7133	7	Sololá	701	Sololá	1	Sololá	2	Febrero	2023-02-17T00:00:00	2024-11-08T22:00:00	6	Velocidad del viento	20.9
7134	7	Sololá	701	Sololá	1	Sololá	2	Febrero	2023-02-17T00:00:00	2024-11-08T22:00:00	7	Dirección del viento	20.92
7135	7	Sololá	701	Sololá	1	Sololá	2	Febrero	2023-02-17T00:00:00	2024-11-08T22:00:00	1	Precipitación	0
7136	7	Sololá	701	Sololá	1	Sololá	2	Febrero	2023-02-17T00:00:00	2024-11-08T22:00:00	8	Radiación solar	0
7137	7	Sololá	701	Sololá	1	Sololá	2	Febrero	2023-02-17T00:00:00	2024-11-08T23:00:00	2	Temperatura media	14.3
7138	7	Sololá	701	Sololá	1	Sololá	2	Febrero	2023-02-17T00:00:00	2024-11-08T23:00:00	4	Temperatura máxima	14.4
7139	7	Sololá	701	Sololá	1	Sololá	2	Febrero	2023-02-17T00:00:00	2024-11-08T23:00:00	3	Temperatura mínima	14.2
7140	7	Sololá	701	Sololá	1	Sololá	2	Febrero	2023-02-17T00:00:00	2024-11-08T23:00:00	5	Humedad	75
7141	7	Sololá	701	Sololá	1	Sololá	2	Febrero	2023-02-17T00:00:00	2024-11-08T23:00:00	6	Velocidad del viento	19.3
7142	7	Sololá	701	Sololá	1	Sololá	2	Febrero	2023-02-17T00:00:00	2024-11-08T23:00:00	7	Dirección del viento	19.31
7143	7	Sololá	701	Sololá	1	Sololá	2	Febrero	2023-02-17T00:00:00	2024-11-08T23:00:00	1	Precipitación	0
7144	7	Sololá	701	Sololá	1	Sololá	2	Febrero	2023-02-17T00:00:00	2024-11-08T23:00:00	8	Radiación solar	0
7145	7	Sololá	701	Sololá	1	Sololá	2	Febrero	2023-02-18T00:00:00	2024-11-08T00:00:00	2	Temperatura media	14.2
7146	7	Sololá	701	Sololá	1	Sololá	2	Febrero	2023-02-18T00:00:00	2024-11-08T00:00:00	4	Temperatura máxima	14.4
7147	7	Sololá	701	Sololá	1	Sololá	2	Febrero	2023-02-18T00:00:00	2024-11-08T00:00:00	3	Temperatura mínima	14.1
7148	7	Sololá	701	Sololá	1	Sololá	2	Febrero	2023-02-18T00:00:00	2024-11-08T00:00:00	5	Humedad	76
7149	7	Sololá	701	Sololá	1	Sololá	2	Febrero	2023-02-18T00:00:00	2024-11-08T00:00:00	6	Velocidad del viento	22.5
7150	7	Sololá	701	Sololá	1	Sololá	2	Febrero	2023-02-18T00:00:00	2024-11-08T00:00:00	7	Dirección del viento	22.53
7151	7	Sololá	701	Sololá	1	Sololá	2	Febrero	2023-02-18T00:00:00	2024-11-08T00:00:00	1	Precipitación	0
7152	7	Sololá	701	Sololá	1	Sololá	2	Febrero	2023-02-18T00:00:00	2024-11-08T00:00:00	8	Radiación solar	0
7153	7	Sololá	701	Sololá	1	Sololá	2	Febrero	2023-02-18T00:00:00	2024-11-08T01:00:00	2	Temperatura media	14.3
7154	7	Sololá	701	Sololá	1	Sololá	2	Febrero	2023-02-18T00:00:00	2024-11-08T01:00:00	4	Temperatura máxima	14.6
7155	7	Sololá	701	Sololá	1	Sololá	2	Febrero	2023-02-18T00:00:00	2024-11-08T01:00:00	3	Temperatura mínima	14.2
7156	7	Sololá	701	Sololá	1	Sololá	2	Febrero	2023-02-18T00:00:00	2024-11-08T01:00:00	5	Humedad	76
7157	7	Sololá	701	Sololá	1	Sololá	2	Febrero	2023-02-18T00:00:00	2024-11-08T01:00:00	6	Velocidad del viento	24.1
7158	7	Sololá	701	Sololá	1	Sololá	2	Febrero	2023-02-18T00:00:00	2024-11-08T01:00:00	7	Dirección del viento	24.14
7159	7	Sololá	701	Sololá	1	Sololá	2	Febrero	2023-02-18T00:00:00	2024-11-08T01:00:00	1	Precipitación	0
7160	7	Sololá	701	Sololá	1	Sololá	2	Febrero	2023-02-18T00:00:00	2024-11-08T01:00:00	8	Radiación solar	0
7161	7	Sololá	701	Sololá	1	Sololá	2	Febrero	2023-02-18T00:00:00	2024-11-08T02:00:00	2	Temperatura media	13.7
7162	7	Sololá	701	Sololá	1	Sololá	2	Febrero	2023-02-18T00:00:00	2024-11-08T02:00:00	4	Temperatura máxima	14.3
7163	7	Sololá	701	Sololá	1	Sololá	2	Febrero	2023-02-18T00:00:00	2024-11-08T02:00:00	3	Temperatura mínima	13.7
7164	7	Sololá	701	Sololá	1	Sololá	2	Febrero	2023-02-18T00:00:00	2024-11-08T02:00:00	5	Humedad	82
7165	7	Sololá	701	Sololá	1	Sololá	2	Febrero	2023-02-18T00:00:00	2024-11-08T02:00:00	6	Velocidad del viento	20.9
7166	7	Sololá	701	Sololá	1	Sololá	2	Febrero	2023-02-18T00:00:00	2024-11-08T02:00:00	7	Dirección del viento	20.92
7167	7	Sololá	701	Sololá	1	Sololá	2	Febrero	2023-02-18T00:00:00	2024-11-08T02:00:00	1	Precipitación	0
7168	7	Sololá	701	Sololá	1	Sololá	2	Febrero	2023-02-18T00:00:00	2024-11-08T02:00:00	8	Radiación solar	0
7169	7	Sololá	701	Sololá	1	Sololá	2	Febrero	2023-02-18T00:00:00	2024-11-08T03:00:00	2	Temperatura media	12.9
7170	7	Sololá	701	Sololá	1	Sololá	2	Febrero	2023-02-18T00:00:00	2024-11-08T03:00:00	4	Temperatura máxima	13.7
7171	7	Sololá	701	Sololá	1	Sololá	2	Febrero	2023-02-18T00:00:00	2024-11-08T03:00:00	3	Temperatura mínima	12.8
7172	7	Sololá	701	Sololá	1	Sololá	2	Febrero	2023-02-18T00:00:00	2024-11-08T03:00:00	5	Humedad	83
7173	7	Sololá	701	Sololá	1	Sololá	2	Febrero	2023-02-18T00:00:00	2024-11-08T03:00:00	6	Velocidad del viento	24.1
7174	7	Sololá	701	Sololá	1	Sololá	2	Febrero	2023-02-18T00:00:00	2024-11-08T03:00:00	7	Dirección del viento	24.14
7175	7	Sololá	701	Sololá	1	Sololá	2	Febrero	2023-02-18T00:00:00	2024-11-08T03:00:00	1	Precipitación	0
7176	7	Sololá	701	Sololá	1	Sololá	2	Febrero	2023-02-18T00:00:00	2024-11-08T03:00:00	8	Radiación solar	0
7177	7	Sololá	701	Sololá	1	Sololá	2	Febrero	2023-02-18T00:00:00	2024-11-08T04:00:00	2	Temperatura media	12.6
7178	7	Sololá	701	Sololá	1	Sololá	2	Febrero	2023-02-18T00:00:00	2024-11-08T04:00:00	4	Temperatura máxima	12.9
7179	7	Sololá	701	Sololá	1	Sololá	2	Febrero	2023-02-18T00:00:00	2024-11-08T04:00:00	3	Temperatura mínima	12.5
7180	7	Sololá	701	Sololá	1	Sololá	2	Febrero	2023-02-18T00:00:00	2024-11-08T04:00:00	5	Humedad	75
7181	7	Sololá	701	Sololá	1	Sololá	2	Febrero	2023-02-18T00:00:00	2024-11-08T04:00:00	6	Velocidad del viento	24.1
7182	7	Sololá	701	Sololá	1	Sololá	2	Febrero	2023-02-18T00:00:00	2024-11-08T04:00:00	7	Dirección del viento	24.14
7183	7	Sololá	701	Sololá	1	Sololá	2	Febrero	2023-02-18T00:00:00	2024-11-08T04:00:00	1	Precipitación	0
7184	7	Sololá	701	Sololá	1	Sololá	2	Febrero	2023-02-18T00:00:00	2024-11-08T04:00:00	8	Radiación solar	0
7185	7	Sololá	701	Sololá	1	Sololá	2	Febrero	2023-02-18T00:00:00	2024-11-08T05:00:00	2	Temperatura media	12.2
7186	7	Sololá	701	Sololá	1	Sololá	2	Febrero	2023-02-18T00:00:00	2024-11-08T05:00:00	4	Temperatura máxima	12.7
7187	7	Sololá	701	Sololá	1	Sololá	2	Febrero	2023-02-18T00:00:00	2024-11-08T05:00:00	3	Temperatura mínima	12.2
7188	7	Sololá	701	Sololá	1	Sololá	2	Febrero	2023-02-18T00:00:00	2024-11-08T05:00:00	5	Humedad	77
7189	7	Sololá	701	Sololá	1	Sololá	2	Febrero	2023-02-18T00:00:00	2024-11-08T05:00:00	6	Velocidad del viento	27.4
7190	7	Sololá	701	Sololá	1	Sololá	2	Febrero	2023-02-18T00:00:00	2024-11-08T05:00:00	7	Dirección del viento	27.36
7191	7	Sololá	701	Sololá	1	Sololá	2	Febrero	2023-02-18T00:00:00	2024-11-08T05:00:00	1	Precipitación	0
7192	7	Sololá	701	Sololá	1	Sololá	2	Febrero	2023-02-18T00:00:00	2024-11-08T05:00:00	8	Radiación solar	0
7193	7	Sololá	701	Sololá	1	Sololá	2	Febrero	2023-02-18T00:00:00	2024-11-08T06:00:00	2	Temperatura media	12.2
7194	7	Sololá	701	Sololá	1	Sololá	2	Febrero	2023-02-18T00:00:00	2024-11-08T06:00:00	4	Temperatura máxima	12.4
7195	7	Sololá	701	Sololá	1	Sololá	2	Febrero	2023-02-18T00:00:00	2024-11-08T06:00:00	3	Temperatura mínima	12.1
7196	7	Sololá	701	Sololá	1	Sololá	2	Febrero	2023-02-18T00:00:00	2024-11-08T06:00:00	5	Humedad	73
7197	7	Sololá	701	Sololá	1	Sololá	2	Febrero	2023-02-18T00:00:00	2024-11-08T06:00:00	6	Velocidad del viento	27.4
7198	7	Sololá	701	Sololá	1	Sololá	2	Febrero	2023-02-18T00:00:00	2024-11-08T06:00:00	7	Dirección del viento	27.36
7199	7	Sololá	701	Sololá	1	Sololá	2	Febrero	2023-02-18T00:00:00	2024-11-08T06:00:00	1	Precipitación	0
7200	7	Sololá	701	Sololá	1	Sololá	2	Febrero	2023-02-18T00:00:00	2024-11-08T06:00:00	8	Radiación solar	0
7201	7	Sololá	701	Sololá	1	Sololá	2	Febrero	2023-02-18T00:00:00	2024-11-08T07:00:00	2	Temperatura media	12.4
7202	7	Sololá	701	Sololá	1	Sololá	2	Febrero	2023-02-18T00:00:00	2024-11-08T07:00:00	4	Temperatura máxima	12.4
7203	7	Sololá	701	Sololá	1	Sololá	2	Febrero	2023-02-18T00:00:00	2024-11-08T07:00:00	3	Temperatura mínima	11.9
7204	7	Sololá	701	Sololá	1	Sololá	2	Febrero	2023-02-18T00:00:00	2024-11-08T07:00:00	5	Humedad	69
7205	7	Sololá	701	Sololá	1	Sololá	2	Febrero	2023-02-18T00:00:00	2024-11-08T07:00:00	6	Velocidad del viento	24.1
7206	7	Sololá	701	Sololá	1	Sololá	2	Febrero	2023-02-18T00:00:00	2024-11-08T07:00:00	7	Dirección del viento	24.14
7207	7	Sololá	701	Sololá	1	Sololá	2	Febrero	2023-02-18T00:00:00	2024-11-08T07:00:00	1	Precipitación	0
7208	7	Sololá	701	Sololá	1	Sololá	2	Febrero	2023-02-18T00:00:00	2024-11-08T07:00:00	8	Radiación solar	4
7209	7	Sololá	701	Sololá	1	Sololá	2	Febrero	2023-02-18T00:00:00	2024-11-08T08:00:00	2	Temperatura media	13.4
7210	7	Sololá	701	Sololá	1	Sololá	2	Febrero	2023-02-18T00:00:00	2024-11-08T08:00:00	4	Temperatura máxima	13.4
7211	7	Sololá	701	Sololá	1	Sololá	2	Febrero	2023-02-18T00:00:00	2024-11-08T08:00:00	3	Temperatura mínima	12.4
7212	7	Sololá	701	Sololá	1	Sololá	2	Febrero	2023-02-18T00:00:00	2024-11-08T08:00:00	5	Humedad	64
7213	7	Sololá	701	Sololá	1	Sololá	2	Febrero	2023-02-18T00:00:00	2024-11-08T08:00:00	6	Velocidad del viento	29
7214	7	Sololá	701	Sololá	1	Sololá	2	Febrero	2023-02-18T00:00:00	2024-11-08T08:00:00	7	Dirección del viento	28.97
7215	7	Sololá	701	Sololá	1	Sololá	2	Febrero	2023-02-18T00:00:00	2024-11-08T08:00:00	1	Precipitación	0
7216	7	Sololá	701	Sololá	1	Sololá	2	Febrero	2023-02-18T00:00:00	2024-11-08T08:00:00	8	Radiación solar	20
7217	7	Sololá	701	Sololá	1	Sololá	2	Febrero	2023-02-18T00:00:00	2024-11-08T09:00:00	2	Temperatura media	14.7
7218	7	Sololá	701	Sololá	1	Sololá	2	Febrero	2023-02-18T00:00:00	2024-11-08T09:00:00	4	Temperatura máxima	14.8
7219	7	Sololá	701	Sololá	1	Sololá	2	Febrero	2023-02-18T00:00:00	2024-11-08T09:00:00	3	Temperatura mínima	13.4
7220	7	Sololá	701	Sololá	1	Sololá	2	Febrero	2023-02-18T00:00:00	2024-11-08T09:00:00	5	Humedad	66
7221	7	Sololá	701	Sololá	1	Sololá	2	Febrero	2023-02-18T00:00:00	2024-11-08T09:00:00	6	Velocidad del viento	29
7222	7	Sololá	701	Sololá	1	Sololá	2	Febrero	2023-02-18T00:00:00	2024-11-08T09:00:00	7	Dirección del viento	28.97
7223	7	Sololá	701	Sololá	1	Sololá	2	Febrero	2023-02-18T00:00:00	2024-11-08T09:00:00	1	Precipitación	0
7224	7	Sololá	701	Sololá	1	Sololá	2	Febrero	2023-02-18T00:00:00	2024-11-08T09:00:00	8	Radiación solar	386
7225	7	Sololá	701	Sololá	1	Sololá	2	Febrero	2023-02-18T00:00:00	2024-11-08T10:00:00	2	Temperatura media	15.4
7226	7	Sololá	701	Sololá	1	Sololá	2	Febrero	2023-02-18T00:00:00	2024-11-08T10:00:00	4	Temperatura máxima	15.8
7227	7	Sololá	701	Sololá	1	Sololá	2	Febrero	2023-02-18T00:00:00	2024-11-08T10:00:00	3	Temperatura mínima	14.7
7228	7	Sololá	701	Sololá	1	Sololá	2	Febrero	2023-02-18T00:00:00	2024-11-08T10:00:00	5	Humedad	68
7229	7	Sololá	701	Sololá	1	Sololá	2	Febrero	2023-02-18T00:00:00	2024-11-08T10:00:00	6	Velocidad del viento	25.7
7230	7	Sololá	701	Sololá	1	Sololá	2	Febrero	2023-02-18T00:00:00	2024-11-08T10:00:00	7	Dirección del viento	25.75
7231	7	Sololá	701	Sololá	1	Sololá	2	Febrero	2023-02-18T00:00:00	2024-11-08T10:00:00	1	Precipitación	0
7232	7	Sololá	701	Sololá	1	Sololá	2	Febrero	2023-02-18T00:00:00	2024-11-08T10:00:00	8	Radiación solar	682
7233	7	Sololá	701	Sololá	1	Sololá	2	Febrero	2023-02-18T00:00:00	2024-11-08T11:00:00	2	Temperatura media	16.2
7234	7	Sololá	701	Sololá	1	Sololá	2	Febrero	2023-02-18T00:00:00	2024-11-08T11:00:00	4	Temperatura máxima	16.4
7235	7	Sololá	701	Sololá	1	Sololá	2	Febrero	2023-02-18T00:00:00	2024-11-08T11:00:00	3	Temperatura mínima	15.3
7236	7	Sololá	701	Sololá	1	Sololá	2	Febrero	2023-02-18T00:00:00	2024-11-08T11:00:00	5	Humedad	68
7237	7	Sololá	701	Sololá	1	Sololá	2	Febrero	2023-02-18T00:00:00	2024-11-08T11:00:00	6	Velocidad del viento	27.4
7238	7	Sololá	701	Sololá	1	Sololá	2	Febrero	2023-02-18T00:00:00	2024-11-08T11:00:00	7	Dirección del viento	27.36
7239	7	Sololá	701	Sololá	1	Sololá	2	Febrero	2023-02-18T00:00:00	2024-11-08T11:00:00	1	Precipitación	0
7240	7	Sololá	701	Sololá	1	Sololá	2	Febrero	2023-02-18T00:00:00	2024-11-08T11:00:00	8	Radiación solar	845
7241	7	Sololá	701	Sololá	1	Sololá	2	Febrero	2023-02-18T00:00:00	2024-11-08T12:00:00	2	Temperatura media	17.3
7242	7	Sololá	701	Sololá	1	Sololá	2	Febrero	2023-02-18T00:00:00	2024-11-08T12:00:00	4	Temperatura máxima	17.3
7243	7	Sololá	701	Sololá	1	Sololá	2	Febrero	2023-02-18T00:00:00	2024-11-08T12:00:00	3	Temperatura mínima	16.1
7244	7	Sololá	701	Sololá	1	Sololá	2	Febrero	2023-02-18T00:00:00	2024-11-08T12:00:00	5	Humedad	65
7245	7	Sololá	701	Sololá	1	Sololá	2	Febrero	2023-02-18T00:00:00	2024-11-08T12:00:00	6	Velocidad del viento	20.9
7246	7	Sololá	701	Sololá	1	Sololá	2	Febrero	2023-02-18T00:00:00	2024-11-08T12:00:00	7	Dirección del viento	20.92
7247	7	Sololá	701	Sololá	1	Sololá	2	Febrero	2023-02-18T00:00:00	2024-11-08T12:00:00	1	Precipitación	0
7248	7	Sololá	701	Sololá	1	Sololá	2	Febrero	2023-02-18T00:00:00	2024-11-08T12:00:00	8	Radiación solar	952
7249	7	Sololá	701	Sololá	1	Sololá	2	Febrero	2023-02-18T00:00:00	2024-11-08T13:00:00	2	Temperatura media	16.7
7250	7	Sololá	701	Sololá	1	Sololá	2	Febrero	2023-02-18T00:00:00	2024-11-08T13:00:00	4	Temperatura máxima	17.4
7251	7	Sololá	701	Sololá	1	Sololá	2	Febrero	2023-02-18T00:00:00	2024-11-08T13:00:00	3	Temperatura mínima	16.2
7252	7	Sololá	701	Sololá	1	Sololá	2	Febrero	2023-02-18T00:00:00	2024-11-08T13:00:00	5	Humedad	68
7253	7	Sololá	701	Sololá	1	Sololá	2	Febrero	2023-02-18T00:00:00	2024-11-08T13:00:00	6	Velocidad del viento	19.3
7254	7	Sololá	701	Sololá	1	Sololá	2	Febrero	2023-02-18T00:00:00	2024-11-08T13:00:00	7	Dirección del viento	19.31
7255	7	Sololá	701	Sololá	1	Sololá	2	Febrero	2023-02-18T00:00:00	2024-11-08T13:00:00	1	Precipitación	0
7256	7	Sololá	701	Sololá	1	Sololá	2	Febrero	2023-02-18T00:00:00	2024-11-08T13:00:00	8	Radiación solar	976
7257	7	Sololá	701	Sololá	1	Sololá	2	Febrero	2023-02-18T00:00:00	2024-11-08T14:00:00	2	Temperatura media	16.5
7258	7	Sololá	701	Sololá	1	Sololá	2	Febrero	2023-02-18T00:00:00	2024-11-08T14:00:00	4	Temperatura máxima	16.9
7259	7	Sololá	701	Sololá	1	Sololá	2	Febrero	2023-02-18T00:00:00	2024-11-08T14:00:00	3	Temperatura mínima	15.9
7260	7	Sololá	701	Sololá	1	Sololá	2	Febrero	2023-02-18T00:00:00	2024-11-08T14:00:00	5	Humedad	70
7261	7	Sololá	701	Sololá	1	Sololá	2	Febrero	2023-02-18T00:00:00	2024-11-08T14:00:00	6	Velocidad del viento	19.3
7262	7	Sololá	701	Sololá	1	Sololá	2	Febrero	2023-02-18T00:00:00	2024-11-08T14:00:00	7	Dirección del viento	19.31
7263	7	Sololá	701	Sololá	1	Sololá	2	Febrero	2023-02-18T00:00:00	2024-11-08T14:00:00	1	Precipitación	0
7264	7	Sololá	701	Sololá	1	Sololá	2	Febrero	2023-02-18T00:00:00	2024-11-08T14:00:00	8	Radiación solar	172
7265	7	Sololá	701	Sololá	1	Sololá	2	Febrero	2023-02-18T00:00:00	2024-11-08T15:00:00	2	Temperatura media	17.5
7266	7	Sololá	701	Sololá	1	Sololá	2	Febrero	2023-02-18T00:00:00	2024-11-08T15:00:00	4	Temperatura máxima	18.1
7267	7	Sololá	701	Sololá	1	Sololá	2	Febrero	2023-02-18T00:00:00	2024-11-08T15:00:00	3	Temperatura mínima	17.5
7268	7	Sololá	701	Sololá	1	Sololá	2	Febrero	2023-02-18T00:00:00	2024-11-08T15:00:00	5	Humedad	68
7269	7	Sololá	701	Sololá	1	Sololá	2	Febrero	2023-02-18T00:00:00	2024-11-08T15:00:00	6	Velocidad del viento	1.6
7270	7	Sololá	701	Sololá	1	Sololá	2	Febrero	2023-02-18T00:00:00	2024-11-08T15:00:00	7	Dirección del viento	1.61
7271	7	Sololá	701	Sololá	1	Sololá	2	Febrero	2023-02-18T00:00:00	2024-11-08T15:00:00	1	Precipitación	0
7272	7	Sololá	701	Sololá	1	Sololá	2	Febrero	2023-02-18T00:00:00	2024-11-08T15:00:00	8	Radiación solar	233
7273	7	Sololá	701	Sololá	1	Sololá	2	Febrero	2023-02-18T00:00:00	2024-11-08T16:00:00	2	Temperatura media	16.1
7274	7	Sololá	701	Sololá	1	Sololá	2	Febrero	2023-02-18T00:00:00	2024-11-08T16:00:00	4	Temperatura máxima	17.8
7275	7	Sololá	701	Sololá	1	Sololá	2	Febrero	2023-02-18T00:00:00	2024-11-08T16:00:00	3	Temperatura mínima	16.1
7276	7	Sololá	701	Sololá	1	Sololá	2	Febrero	2023-02-18T00:00:00	2024-11-08T16:00:00	5	Humedad	71
7277	7	Sololá	701	Sololá	1	Sololá	2	Febrero	2023-02-18T00:00:00	2024-11-08T16:00:00	6	Velocidad del viento	1.6
7278	7	Sololá	701	Sololá	1	Sololá	2	Febrero	2023-02-18T00:00:00	2024-11-08T16:00:00	7	Dirección del viento	1.61
7279	7	Sololá	701	Sololá	1	Sololá	2	Febrero	2023-02-18T00:00:00	2024-11-08T16:00:00	1	Precipitación	0
7280	7	Sololá	701	Sololá	1	Sololá	2	Febrero	2023-02-18T00:00:00	2024-11-08T16:00:00	8	Radiación solar	144
7281	7	Sololá	701	Sololá	1	Sololá	2	Febrero	2023-02-18T00:00:00	2024-11-08T17:00:00	2	Temperatura media	15.4
7282	7	Sololá	701	Sololá	1	Sololá	2	Febrero	2023-02-18T00:00:00	2024-11-08T17:00:00	4	Temperatura máxima	16.2
7283	7	Sololá	701	Sololá	1	Sololá	2	Febrero	2023-02-18T00:00:00	2024-11-08T17:00:00	3	Temperatura mínima	15.2
7284	7	Sololá	701	Sololá	1	Sololá	2	Febrero	2023-02-18T00:00:00	2024-11-08T17:00:00	5	Humedad	73
7285	7	Sololá	701	Sololá	1	Sololá	2	Febrero	2023-02-18T00:00:00	2024-11-08T17:00:00	6	Velocidad del viento	0
7286	7	Sololá	701	Sololá	1	Sololá	2	Febrero	2023-02-18T00:00:00	2024-11-08T17:00:00	7	Dirección del viento	0
7287	7	Sololá	701	Sololá	1	Sololá	2	Febrero	2023-02-18T00:00:00	2024-11-08T17:00:00	1	Precipitación	0
7288	7	Sololá	701	Sololá	1	Sololá	2	Febrero	2023-02-18T00:00:00	2024-11-08T17:00:00	8	Radiación solar	81
7289	7	Sololá	701	Sololá	1	Sololá	2	Febrero	2023-02-18T00:00:00	2024-11-08T18:00:00	2	Temperatura media	14.3
7290	7	Sololá	701	Sololá	1	Sololá	2	Febrero	2023-02-18T00:00:00	2024-11-08T18:00:00	4	Temperatura máxima	15.8
7291	7	Sololá	701	Sololá	1	Sololá	2	Febrero	2023-02-18T00:00:00	2024-11-08T18:00:00	3	Temperatura mínima	14.3
7292	7	Sololá	701	Sololá	1	Sololá	2	Febrero	2023-02-18T00:00:00	2024-11-08T18:00:00	5	Humedad	73
7293	7	Sololá	701	Sololá	1	Sololá	2	Febrero	2023-02-18T00:00:00	2024-11-08T18:00:00	6	Velocidad del viento	1.6
7294	7	Sololá	701	Sololá	1	Sololá	2	Febrero	2023-02-18T00:00:00	2024-11-08T18:00:00	7	Dirección del viento	1.61
7295	7	Sololá	701	Sololá	1	Sololá	2	Febrero	2023-02-18T00:00:00	2024-11-08T18:00:00	1	Precipitación	0
7296	7	Sololá	701	Sololá	1	Sololá	2	Febrero	2023-02-18T00:00:00	2024-11-08T18:00:00	8	Radiación solar	26
7297	7	Sololá	701	Sololá	1	Sololá	2	Febrero	2023-02-18T00:00:00	2024-11-08T19:00:00	2	Temperatura media	12.4
7298	7	Sololá	701	Sololá	1	Sololá	2	Febrero	2023-02-18T00:00:00	2024-11-08T19:00:00	4	Temperatura máxima	14.3
7299	7	Sololá	701	Sololá	1	Sololá	2	Febrero	2023-02-18T00:00:00	2024-11-08T19:00:00	3	Temperatura mínima	12.4
7300	7	Sololá	701	Sololá	1	Sololá	2	Febrero	2023-02-18T00:00:00	2024-11-08T19:00:00	5	Humedad	72
7301	7	Sololá	701	Sololá	1	Sololá	2	Febrero	2023-02-18T00:00:00	2024-11-08T19:00:00	6	Velocidad del viento	1.6
7302	7	Sololá	701	Sololá	1	Sololá	2	Febrero	2023-02-18T00:00:00	2024-11-08T19:00:00	7	Dirección del viento	1.61
7303	7	Sololá	701	Sololá	1	Sololá	2	Febrero	2023-02-18T00:00:00	2024-11-08T19:00:00	1	Precipitación	0
7304	7	Sololá	701	Sololá	1	Sololá	2	Febrero	2023-02-18T00:00:00	2024-11-08T19:00:00	8	Radiación solar	0
7305	7	Sololá	701	Sololá	1	Sololá	2	Febrero	2023-02-18T00:00:00	2024-11-08T20:00:00	2	Temperatura media	12.3
7306	7	Sololá	701	Sololá	1	Sololá	2	Febrero	2023-02-18T00:00:00	2024-11-08T20:00:00	4	Temperatura máxima	12.5
7307	7	Sololá	701	Sololá	1	Sololá	2	Febrero	2023-02-18T00:00:00	2024-11-08T20:00:00	3	Temperatura mínima	12.3
7308	7	Sololá	701	Sololá	1	Sololá	2	Febrero	2023-02-18T00:00:00	2024-11-08T20:00:00	5	Humedad	75
7309	7	Sololá	701	Sololá	1	Sololá	2	Febrero	2023-02-18T00:00:00	2024-11-08T20:00:00	6	Velocidad del viento	1.6
7310	7	Sololá	701	Sololá	1	Sololá	2	Febrero	2023-02-18T00:00:00	2024-11-08T20:00:00	7	Dirección del viento	1.61
7311	7	Sololá	701	Sololá	1	Sololá	2	Febrero	2023-02-18T00:00:00	2024-11-08T20:00:00	1	Precipitación	0
7312	7	Sololá	701	Sololá	1	Sololá	2	Febrero	2023-02-18T00:00:00	2024-11-08T20:00:00	8	Radiación solar	0
7313	7	Sololá	701	Sololá	1	Sololá	2	Febrero	2023-02-18T00:00:00	2024-11-08T21:00:00	2	Temperatura media	12.6
7314	7	Sololá	701	Sololá	1	Sololá	2	Febrero	2023-02-18T00:00:00	2024-11-08T21:00:00	4	Temperatura máxima	12.6
7315	7	Sololá	701	Sololá	1	Sololá	2	Febrero	2023-02-18T00:00:00	2024-11-08T21:00:00	3	Temperatura mínima	12.2
7316	7	Sololá	701	Sololá	1	Sololá	2	Febrero	2023-02-18T00:00:00	2024-11-08T21:00:00	5	Humedad	78
7317	7	Sololá	701	Sololá	1	Sololá	2	Febrero	2023-02-18T00:00:00	2024-11-08T21:00:00	6	Velocidad del viento	1.6
7318	7	Sololá	701	Sololá	1	Sololá	2	Febrero	2023-02-18T00:00:00	2024-11-08T21:00:00	7	Dirección del viento	1.61
7319	7	Sololá	701	Sololá	1	Sololá	2	Febrero	2023-02-18T00:00:00	2024-11-08T21:00:00	1	Precipitación	0
7320	7	Sololá	701	Sololá	1	Sololá	2	Febrero	2023-02-18T00:00:00	2024-11-08T21:00:00	8	Radiación solar	0
7321	7	Sololá	701	Sololá	1	Sololá	2	Febrero	2023-02-18T00:00:00	2024-11-08T22:00:00	2	Temperatura media	12
7322	7	Sololá	701	Sololá	1	Sololá	2	Febrero	2023-02-18T00:00:00	2024-11-08T22:00:00	4	Temperatura máxima	12.6
7323	7	Sololá	701	Sololá	1	Sololá	2	Febrero	2023-02-18T00:00:00	2024-11-08T22:00:00	3	Temperatura mínima	12
7324	7	Sololá	701	Sololá	1	Sololá	2	Febrero	2023-02-18T00:00:00	2024-11-08T22:00:00	5	Humedad	82
7325	7	Sololá	701	Sololá	1	Sololá	2	Febrero	2023-02-18T00:00:00	2024-11-08T22:00:00	6	Velocidad del viento	1.6
7326	7	Sololá	701	Sololá	1	Sololá	2	Febrero	2023-02-18T00:00:00	2024-11-08T22:00:00	7	Dirección del viento	1.61
7327	7	Sololá	701	Sololá	1	Sololá	2	Febrero	2023-02-18T00:00:00	2024-11-08T22:00:00	1	Precipitación	0
7328	7	Sololá	701	Sololá	1	Sololá	2	Febrero	2023-02-18T00:00:00	2024-11-08T22:00:00	8	Radiación solar	0
7329	7	Sololá	701	Sololá	1	Sololá	2	Febrero	2023-02-18T00:00:00	2024-11-08T23:00:00	2	Temperatura media	12.1
7330	7	Sololá	701	Sololá	1	Sololá	2	Febrero	2023-02-18T00:00:00	2024-11-08T23:00:00	4	Temperatura máxima	12.1
7331	7	Sololá	701	Sololá	1	Sololá	2	Febrero	2023-02-18T00:00:00	2024-11-08T23:00:00	3	Temperatura mínima	11.9
7332	7	Sololá	701	Sololá	1	Sololá	2	Febrero	2023-02-18T00:00:00	2024-11-08T23:00:00	5	Humedad	84
7333	7	Sololá	701	Sololá	1	Sololá	2	Febrero	2023-02-18T00:00:00	2024-11-08T23:00:00	6	Velocidad del viento	1.6
7334	7	Sololá	701	Sololá	1	Sololá	2	Febrero	2023-02-18T00:00:00	2024-11-08T23:00:00	7	Dirección del viento	1.61
7335	7	Sololá	701	Sololá	1	Sololá	2	Febrero	2023-02-18T00:00:00	2024-11-08T23:00:00	1	Precipitación	0
7336	7	Sololá	701	Sololá	1	Sololá	2	Febrero	2023-02-18T00:00:00	2024-11-08T23:00:00	8	Radiación solar	0
7337	7	Sololá	701	Sololá	1	Sololá	2	Febrero	2023-02-19T00:00:00	2024-11-08T00:00:00	2	Temperatura media	12.1
7338	7	Sololá	701	Sololá	1	Sololá	2	Febrero	2023-02-19T00:00:00	2024-11-08T00:00:00	4	Temperatura máxima	12.1
7339	7	Sololá	701	Sololá	1	Sololá	2	Febrero	2023-02-19T00:00:00	2024-11-08T00:00:00	3	Temperatura mínima	11.8
7340	7	Sololá	701	Sololá	1	Sololá	2	Febrero	2023-02-19T00:00:00	2024-11-08T00:00:00	5	Humedad	84
7341	7	Sololá	701	Sololá	1	Sololá	2	Febrero	2023-02-19T00:00:00	2024-11-08T00:00:00	6	Velocidad del viento	1.6
7342	7	Sololá	701	Sololá	1	Sololá	2	Febrero	2023-02-19T00:00:00	2024-11-08T00:00:00	7	Dirección del viento	1.61
7343	7	Sololá	701	Sololá	1	Sololá	2	Febrero	2023-02-19T00:00:00	2024-11-08T00:00:00	1	Precipitación	0
7344	7	Sololá	701	Sololá	1	Sololá	2	Febrero	2023-02-19T00:00:00	2024-11-08T00:00:00	8	Radiación solar	0
7345	7	Sololá	701	Sololá	1	Sololá	2	Febrero	2023-02-19T00:00:00	2024-11-08T01:00:00	2	Temperatura media	12.1
7346	7	Sololá	701	Sololá	1	Sololá	2	Febrero	2023-02-19T00:00:00	2024-11-08T01:00:00	4	Temperatura máxima	12.4
7347	7	Sololá	701	Sololá	1	Sololá	2	Febrero	2023-02-19T00:00:00	2024-11-08T01:00:00	3	Temperatura mínima	12
7348	7	Sololá	701	Sololá	1	Sololá	2	Febrero	2023-02-19T00:00:00	2024-11-08T01:00:00	5	Humedad	84
7349	7	Sololá	701	Sololá	1	Sololá	2	Febrero	2023-02-19T00:00:00	2024-11-08T01:00:00	6	Velocidad del viento	0
7350	7	Sololá	701	Sololá	1	Sololá	2	Febrero	2023-02-19T00:00:00	2024-11-08T01:00:00	7	Dirección del viento	0
7351	7	Sololá	701	Sololá	1	Sololá	2	Febrero	2023-02-19T00:00:00	2024-11-08T01:00:00	1	Precipitación	0
7352	7	Sololá	701	Sololá	1	Sololá	2	Febrero	2023-02-19T00:00:00	2024-11-08T01:00:00	8	Radiación solar	0
7353	7	Sololá	701	Sololá	1	Sololá	2	Febrero	2023-02-19T00:00:00	2024-11-08T02:00:00	2	Temperatura media	11.7
7354	7	Sololá	701	Sololá	1	Sololá	2	Febrero	2023-02-19T00:00:00	2024-11-08T02:00:00	4	Temperatura máxima	12.1
7355	7	Sololá	701	Sololá	1	Sololá	2	Febrero	2023-02-19T00:00:00	2024-11-08T02:00:00	3	Temperatura mínima	11.6
7356	7	Sololá	701	Sololá	1	Sololá	2	Febrero	2023-02-19T00:00:00	2024-11-08T02:00:00	5	Humedad	84
7357	7	Sololá	701	Sololá	1	Sololá	2	Febrero	2023-02-19T00:00:00	2024-11-08T02:00:00	6	Velocidad del viento	1.6
7358	7	Sololá	701	Sololá	1	Sololá	2	Febrero	2023-02-19T00:00:00	2024-11-08T02:00:00	7	Dirección del viento	1.61
7359	7	Sololá	701	Sololá	1	Sololá	2	Febrero	2023-02-19T00:00:00	2024-11-08T02:00:00	1	Precipitación	0
7360	7	Sololá	701	Sololá	1	Sololá	2	Febrero	2023-02-19T00:00:00	2024-11-08T02:00:00	8	Radiación solar	0
7361	7	Sololá	701	Sololá	1	Sololá	2	Febrero	2023-02-19T00:00:00	2024-11-08T03:00:00	2	Temperatura media	11.6
7362	7	Sololá	701	Sololá	1	Sololá	2	Febrero	2023-02-19T00:00:00	2024-11-08T03:00:00	4	Temperatura máxima	11.7
7363	7	Sololá	701	Sololá	1	Sololá	2	Febrero	2023-02-19T00:00:00	2024-11-08T03:00:00	3	Temperatura mínima	11.5
7364	7	Sololá	701	Sololá	1	Sololá	2	Febrero	2023-02-19T00:00:00	2024-11-08T03:00:00	5	Humedad	85
7365	7	Sololá	701	Sololá	1	Sololá	2	Febrero	2023-02-19T00:00:00	2024-11-08T03:00:00	6	Velocidad del viento	3.2
7366	7	Sololá	701	Sololá	1	Sololá	2	Febrero	2023-02-19T00:00:00	2024-11-08T03:00:00	7	Dirección del viento	3.22
7367	7	Sololá	701	Sololá	1	Sololá	2	Febrero	2023-02-19T00:00:00	2024-11-08T03:00:00	1	Precipitación	0
7368	7	Sololá	701	Sololá	1	Sololá	2	Febrero	2023-02-19T00:00:00	2024-11-08T03:00:00	8	Radiación solar	0
7369	7	Sololá	701	Sololá	1	Sololá	2	Febrero	2023-02-19T00:00:00	2024-11-08T04:00:00	2	Temperatura media	11.1
7370	7	Sololá	701	Sololá	1	Sololá	2	Febrero	2023-02-19T00:00:00	2024-11-08T04:00:00	4	Temperatura máxima	11.6
7371	7	Sololá	701	Sololá	1	Sololá	2	Febrero	2023-02-19T00:00:00	2024-11-08T04:00:00	3	Temperatura mínima	11.1
7372	7	Sololá	701	Sololá	1	Sololá	2	Febrero	2023-02-19T00:00:00	2024-11-08T04:00:00	5	Humedad	86
7373	7	Sololá	701	Sololá	1	Sololá	2	Febrero	2023-02-19T00:00:00	2024-11-08T04:00:00	6	Velocidad del viento	1.6
7374	7	Sololá	701	Sololá	1	Sololá	2	Febrero	2023-02-19T00:00:00	2024-11-08T04:00:00	7	Dirección del viento	1.61
7375	7	Sololá	701	Sololá	1	Sololá	2	Febrero	2023-02-19T00:00:00	2024-11-08T04:00:00	1	Precipitación	0
7376	7	Sololá	701	Sololá	1	Sololá	2	Febrero	2023-02-19T00:00:00	2024-11-08T04:00:00	8	Radiación solar	0
7377	7	Sololá	701	Sololá	1	Sololá	2	Febrero	2023-02-19T00:00:00	2024-11-08T05:00:00	2	Temperatura media	11.1
7378	7	Sololá	701	Sololá	1	Sololá	2	Febrero	2023-02-19T00:00:00	2024-11-08T05:00:00	4	Temperatura máxima	11.1
7379	7	Sololá	701	Sololá	1	Sololá	2	Febrero	2023-02-19T00:00:00	2024-11-08T05:00:00	3	Temperatura mínima	11
7380	7	Sololá	701	Sololá	1	Sololá	2	Febrero	2023-02-19T00:00:00	2024-11-08T05:00:00	5	Humedad	87
7381	7	Sololá	701	Sololá	1	Sololá	2	Febrero	2023-02-19T00:00:00	2024-11-08T05:00:00	6	Velocidad del viento	1.6
7382	7	Sololá	701	Sololá	1	Sololá	2	Febrero	2023-02-19T00:00:00	2024-11-08T05:00:00	7	Dirección del viento	1.61
7383	7	Sololá	701	Sololá	1	Sololá	2	Febrero	2023-02-19T00:00:00	2024-11-08T05:00:00	1	Precipitación	0
7384	7	Sololá	701	Sololá	1	Sololá	2	Febrero	2023-02-19T00:00:00	2024-11-08T05:00:00	8	Radiación solar	0
7385	7	Sololá	701	Sololá	1	Sololá	2	Febrero	2023-02-19T00:00:00	2024-11-08T06:00:00	2	Temperatura media	11.3
7386	7	Sololá	701	Sololá	1	Sololá	2	Febrero	2023-02-19T00:00:00	2024-11-08T06:00:00	4	Temperatura máxima	11.4
7387	7	Sololá	701	Sololá	1	Sololá	2	Febrero	2023-02-19T00:00:00	2024-11-08T06:00:00	3	Temperatura mínima	11.1
7388	7	Sololá	701	Sololá	1	Sololá	2	Febrero	2023-02-19T00:00:00	2024-11-08T06:00:00	5	Humedad	88
7389	7	Sololá	701	Sololá	1	Sololá	2	Febrero	2023-02-19T00:00:00	2024-11-08T06:00:00	6	Velocidad del viento	1.6
7390	7	Sololá	701	Sololá	1	Sololá	2	Febrero	2023-02-19T00:00:00	2024-11-08T06:00:00	7	Dirección del viento	1.61
7391	7	Sololá	701	Sololá	1	Sololá	2	Febrero	2023-02-19T00:00:00	2024-11-08T06:00:00	1	Precipitación	0
7392	7	Sololá	701	Sololá	1	Sololá	2	Febrero	2023-02-19T00:00:00	2024-11-08T06:00:00	8	Radiación solar	0
7393	7	Sololá	701	Sololá	1	Sololá	2	Febrero	2023-02-19T00:00:00	2024-11-08T07:00:00	2	Temperatura media	11.4
7394	7	Sololá	701	Sololá	1	Sololá	2	Febrero	2023-02-19T00:00:00	2024-11-08T07:00:00	4	Temperatura máxima	11.4
7395	7	Sololá	701	Sololá	1	Sololá	2	Febrero	2023-02-19T00:00:00	2024-11-08T07:00:00	3	Temperatura mínima	11.1
7396	7	Sololá	701	Sololá	1	Sololá	2	Febrero	2023-02-19T00:00:00	2024-11-08T07:00:00	5	Humedad	87
7397	7	Sololá	701	Sololá	1	Sololá	2	Febrero	2023-02-19T00:00:00	2024-11-08T07:00:00	6	Velocidad del viento	1.6
7398	7	Sololá	701	Sololá	1	Sololá	2	Febrero	2023-02-19T00:00:00	2024-11-08T07:00:00	7	Dirección del viento	1.61
7399	7	Sololá	701	Sololá	1	Sololá	2	Febrero	2023-02-19T00:00:00	2024-11-08T07:00:00	1	Precipitación	0
7400	7	Sololá	701	Sololá	1	Sololá	2	Febrero	2023-02-19T00:00:00	2024-11-08T07:00:00	8	Radiación solar	5
7401	7	Sololá	701	Sololá	1	Sololá	2	Febrero	2023-02-19T00:00:00	2024-11-08T08:00:00	2	Temperatura media	12.2
7402	7	Sololá	701	Sololá	1	Sololá	2	Febrero	2023-02-19T00:00:00	2024-11-08T08:00:00	4	Temperatura máxima	12.2
7403	7	Sololá	701	Sololá	1	Sololá	2	Febrero	2023-02-19T00:00:00	2024-11-08T08:00:00	3	Temperatura mínima	11.3
7404	7	Sololá	701	Sololá	1	Sololá	2	Febrero	2023-02-19T00:00:00	2024-11-08T08:00:00	5	Humedad	83
7405	7	Sololá	701	Sololá	1	Sololá	2	Febrero	2023-02-19T00:00:00	2024-11-08T08:00:00	6	Velocidad del viento	1.6
7406	7	Sololá	701	Sololá	1	Sololá	2	Febrero	2023-02-19T00:00:00	2024-11-08T08:00:00	7	Dirección del viento	1.61
7407	7	Sololá	701	Sololá	1	Sololá	2	Febrero	2023-02-19T00:00:00	2024-11-08T08:00:00	1	Precipitación	0
7408	7	Sololá	701	Sololá	1	Sololá	2	Febrero	2023-02-19T00:00:00	2024-11-08T08:00:00	8	Radiación solar	43
7409	7	Sololá	701	Sololá	1	Sololá	2	Febrero	2023-02-19T00:00:00	2024-11-08T09:00:00	2	Temperatura media	13.7
7410	7	Sololá	701	Sololá	1	Sololá	2	Febrero	2023-02-19T00:00:00	2024-11-08T09:00:00	4	Temperatura máxima	14.4
7411	7	Sololá	701	Sololá	1	Sololá	2	Febrero	2023-02-19T00:00:00	2024-11-08T09:00:00	3	Temperatura mínima	12.2
7412	7	Sololá	701	Sololá	1	Sololá	2	Febrero	2023-02-19T00:00:00	2024-11-08T09:00:00	5	Humedad	79
7413	7	Sololá	701	Sololá	1	Sololá	2	Febrero	2023-02-19T00:00:00	2024-11-08T09:00:00	6	Velocidad del viento	1.6
7414	7	Sololá	701	Sololá	1	Sololá	2	Febrero	2023-02-19T00:00:00	2024-11-08T09:00:00	7	Dirección del viento	1.61
7415	7	Sololá	701	Sololá	1	Sololá	2	Febrero	2023-02-19T00:00:00	2024-11-08T09:00:00	1	Precipitación	0
7416	7	Sololá	701	Sololá	1	Sololá	2	Febrero	2023-02-19T00:00:00	2024-11-08T09:00:00	8	Radiación solar	283
7417	7	Sololá	701	Sololá	1	Sololá	2	Febrero	2023-02-19T00:00:00	2024-11-08T10:00:00	2	Temperatura media	15
7418	7	Sololá	701	Sololá	1	Sololá	2	Febrero	2023-02-19T00:00:00	2024-11-08T10:00:00	4	Temperatura máxima	15
7419	7	Sololá	701	Sololá	1	Sololá	2	Febrero	2023-02-19T00:00:00	2024-11-08T10:00:00	3	Temperatura mínima	13.6
7420	7	Sololá	701	Sololá	1	Sololá	2	Febrero	2023-02-19T00:00:00	2024-11-08T10:00:00	5	Humedad	76
7421	7	Sololá	701	Sololá	1	Sololá	2	Febrero	2023-02-19T00:00:00	2024-11-08T10:00:00	6	Velocidad del viento	1.6
7422	7	Sololá	701	Sololá	1	Sololá	2	Febrero	2023-02-19T00:00:00	2024-11-08T10:00:00	7	Dirección del viento	1.61
7423	7	Sololá	701	Sololá	1	Sololá	2	Febrero	2023-02-19T00:00:00	2024-11-08T10:00:00	1	Precipitación	0
7424	7	Sololá	701	Sololá	1	Sololá	2	Febrero	2023-02-19T00:00:00	2024-11-08T10:00:00	8	Radiación solar	356
7425	7	Sololá	701	Sololá	1	Sololá	2	Febrero	2023-02-19T00:00:00	2024-11-08T11:00:00	2	Temperatura media	15.4
7426	7	Sololá	701	Sololá	1	Sololá	2	Febrero	2023-02-19T00:00:00	2024-11-08T11:00:00	4	Temperatura máxima	15.8
7427	7	Sololá	701	Sololá	1	Sololá	2	Febrero	2023-02-19T00:00:00	2024-11-08T11:00:00	3	Temperatura mínima	15
7428	7	Sololá	701	Sololá	1	Sololá	2	Febrero	2023-02-19T00:00:00	2024-11-08T11:00:00	5	Humedad	74
7429	7	Sololá	701	Sololá	1	Sololá	2	Febrero	2023-02-19T00:00:00	2024-11-08T11:00:00	6	Velocidad del viento	1.6
7430	7	Sololá	701	Sololá	1	Sololá	2	Febrero	2023-02-19T00:00:00	2024-11-08T11:00:00	7	Dirección del viento	1.61
7431	7	Sololá	701	Sololá	1	Sololá	2	Febrero	2023-02-19T00:00:00	2024-11-08T11:00:00	1	Precipitación	0
7432	7	Sololá	701	Sololá	1	Sololá	2	Febrero	2023-02-19T00:00:00	2024-11-08T11:00:00	8	Radiación solar	469
7433	7	Sololá	701	Sololá	1	Sololá	2	Febrero	2023-02-19T00:00:00	2024-11-08T12:00:00	2	Temperatura media	15.1
7434	7	Sololá	701	Sololá	1	Sololá	2	Febrero	2023-02-19T00:00:00	2024-11-08T12:00:00	4	Temperatura máxima	15.8
7435	7	Sololá	701	Sololá	1	Sololá	2	Febrero	2023-02-19T00:00:00	2024-11-08T12:00:00	3	Temperatura mínima	15.1
7436	7	Sololá	701	Sololá	1	Sololá	2	Febrero	2023-02-19T00:00:00	2024-11-08T12:00:00	5	Humedad	75
7437	7	Sololá	701	Sololá	1	Sololá	2	Febrero	2023-02-19T00:00:00	2024-11-08T12:00:00	6	Velocidad del viento	1.6
7438	7	Sololá	701	Sololá	1	Sololá	2	Febrero	2023-02-19T00:00:00	2024-11-08T12:00:00	7	Dirección del viento	1.61
7439	7	Sololá	701	Sololá	1	Sololá	2	Febrero	2023-02-19T00:00:00	2024-11-08T12:00:00	1	Precipitación	0
7440	7	Sololá	701	Sololá	1	Sololá	2	Febrero	2023-02-19T00:00:00	2024-11-08T12:00:00	8	Radiación solar	247
7441	7	Sololá	701	Sololá	1	Sololá	2	Febrero	2023-02-19T00:00:00	2024-11-08T13:00:00	2	Temperatura media	17.7
7442	7	Sololá	701	Sololá	1	Sololá	2	Febrero	2023-02-19T00:00:00	2024-11-08T13:00:00	4	Temperatura máxima	17.7
7443	7	Sololá	701	Sololá	1	Sololá	2	Febrero	2023-02-19T00:00:00	2024-11-08T13:00:00	3	Temperatura mínima	14.8
7444	7	Sololá	701	Sololá	1	Sololá	2	Febrero	2023-02-19T00:00:00	2024-11-08T13:00:00	5	Humedad	67
7445	7	Sololá	701	Sololá	1	Sololá	2	Febrero	2023-02-19T00:00:00	2024-11-08T13:00:00	6	Velocidad del viento	1.6
7446	7	Sololá	701	Sololá	1	Sololá	2	Febrero	2023-02-19T00:00:00	2024-11-08T13:00:00	7	Dirección del viento	1.61
7447	7	Sololá	701	Sololá	1	Sololá	2	Febrero	2023-02-19T00:00:00	2024-11-08T13:00:00	1	Precipitación	0
7448	7	Sololá	701	Sololá	1	Sololá	2	Febrero	2023-02-19T00:00:00	2024-11-08T13:00:00	8	Radiación solar	562
7449	7	Sololá	701	Sololá	1	Sololá	2	Febrero	2023-02-19T00:00:00	2024-11-08T14:00:00	2	Temperatura media	18.3
7450	7	Sololá	701	Sololá	1	Sololá	2	Febrero	2023-02-19T00:00:00	2024-11-08T14:00:00	4	Temperatura máxima	18.4
7451	7	Sololá	701	Sololá	1	Sololá	2	Febrero	2023-02-19T00:00:00	2024-11-08T14:00:00	3	Temperatura mínima	17.2
7452	7	Sololá	701	Sololá	1	Sololá	2	Febrero	2023-02-19T00:00:00	2024-11-08T14:00:00	5	Humedad	65
7453	7	Sololá	701	Sololá	1	Sololá	2	Febrero	2023-02-19T00:00:00	2024-11-08T14:00:00	6	Velocidad del viento	1.6
7454	7	Sololá	701	Sololá	1	Sololá	2	Febrero	2023-02-19T00:00:00	2024-11-08T14:00:00	7	Dirección del viento	1.61
7455	7	Sololá	701	Sololá	1	Sololá	2	Febrero	2023-02-19T00:00:00	2024-11-08T14:00:00	1	Precipitación	0
7456	7	Sololá	701	Sololá	1	Sololá	2	Febrero	2023-02-19T00:00:00	2024-11-08T14:00:00	8	Radiación solar	670
7457	7	Sololá	701	Sololá	1	Sololá	2	Febrero	2023-02-19T00:00:00	2024-11-08T15:00:00	2	Temperatura media	18.4
7458	7	Sololá	701	Sololá	1	Sololá	2	Febrero	2023-02-19T00:00:00	2024-11-08T15:00:00	4	Temperatura máxima	18.7
7459	7	Sololá	701	Sololá	1	Sololá	2	Febrero	2023-02-19T00:00:00	2024-11-08T15:00:00	3	Temperatura mínima	17.7
7460	7	Sololá	701	Sololá	1	Sololá	2	Febrero	2023-02-19T00:00:00	2024-11-08T15:00:00	5	Humedad	64
7461	7	Sololá	701	Sololá	1	Sololá	2	Febrero	2023-02-19T00:00:00	2024-11-08T15:00:00	6	Velocidad del viento	1.6
7462	7	Sololá	701	Sololá	1	Sololá	2	Febrero	2023-02-19T00:00:00	2024-11-08T15:00:00	7	Dirección del viento	1.61
7463	7	Sololá	701	Sololá	1	Sololá	2	Febrero	2023-02-19T00:00:00	2024-11-08T15:00:00	1	Precipitación	0
7464	7	Sololá	701	Sololá	1	Sololá	2	Febrero	2023-02-19T00:00:00	2024-11-08T15:00:00	8	Radiación solar	194
7465	7	Sololá	701	Sololá	1	Sololá	2	Febrero	2023-02-19T00:00:00	2024-11-08T16:00:00	2	Temperatura media	19.1
7466	7	Sololá	701	Sololá	1	Sololá	2	Febrero	2023-02-19T00:00:00	2024-11-08T16:00:00	4	Temperatura máxima	19.3
7467	7	Sololá	701	Sololá	1	Sololá	2	Febrero	2023-02-19T00:00:00	2024-11-08T16:00:00	3	Temperatura mínima	18.2
7468	7	Sololá	701	Sololá	1	Sololá	2	Febrero	2023-02-19T00:00:00	2024-11-08T16:00:00	5	Humedad	62
7469	7	Sololá	701	Sololá	1	Sololá	2	Febrero	2023-02-19T00:00:00	2024-11-08T16:00:00	6	Velocidad del viento	1.6
7470	7	Sololá	701	Sololá	1	Sololá	2	Febrero	2023-02-19T00:00:00	2024-11-08T16:00:00	7	Dirección del viento	1.61
7471	7	Sololá	701	Sololá	1	Sololá	2	Febrero	2023-02-19T00:00:00	2024-11-08T16:00:00	1	Precipitación	0
7472	7	Sololá	701	Sololá	1	Sololá	2	Febrero	2023-02-19T00:00:00	2024-11-08T16:00:00	8	Radiación solar	57
7473	7	Sololá	701	Sololá	1	Sololá	2	Febrero	2023-02-19T00:00:00	2024-11-08T17:00:00	2	Temperatura media	18.4
7474	7	Sololá	701	Sololá	1	Sololá	2	Febrero	2023-02-19T00:00:00	2024-11-08T17:00:00	4	Temperatura máxima	19.4
7475	7	Sololá	701	Sololá	1	Sololá	2	Febrero	2023-02-19T00:00:00	2024-11-08T17:00:00	3	Temperatura mínima	18.3
7476	7	Sololá	701	Sololá	1	Sololá	2	Febrero	2023-02-19T00:00:00	2024-11-08T17:00:00	5	Humedad	64
7477	7	Sololá	701	Sololá	1	Sololá	2	Febrero	2023-02-19T00:00:00	2024-11-08T17:00:00	6	Velocidad del viento	1.6
7478	7	Sololá	701	Sololá	1	Sololá	2	Febrero	2023-02-19T00:00:00	2024-11-08T17:00:00	7	Dirección del viento	1.61
7479	7	Sololá	701	Sololá	1	Sololá	2	Febrero	2023-02-19T00:00:00	2024-11-08T17:00:00	1	Precipitación	0
7480	7	Sololá	701	Sololá	1	Sololá	2	Febrero	2023-02-19T00:00:00	2024-11-08T17:00:00	8	Radiación solar	45
7481	7	Sololá	701	Sololá	1	Sololá	2	Febrero	2023-02-19T00:00:00	2024-11-08T18:00:00	2	Temperatura media	15.7
7482	7	Sololá	701	Sololá	1	Sololá	2	Febrero	2023-02-19T00:00:00	2024-11-08T18:00:00	4	Temperatura máxima	18.4
7483	7	Sololá	701	Sololá	1	Sololá	2	Febrero	2023-02-19T00:00:00	2024-11-08T18:00:00	3	Temperatura mínima	15.7
7484	7	Sololá	701	Sololá	1	Sololá	2	Febrero	2023-02-19T00:00:00	2024-11-08T18:00:00	5	Humedad	71
7485	7	Sololá	701	Sololá	1	Sololá	2	Febrero	2023-02-19T00:00:00	2024-11-08T18:00:00	6	Velocidad del viento	0
7486	7	Sololá	701	Sololá	1	Sololá	2	Febrero	2023-02-19T00:00:00	2024-11-08T18:00:00	7	Dirección del viento	0
7487	7	Sololá	701	Sololá	1	Sololá	2	Febrero	2023-02-19T00:00:00	2024-11-08T18:00:00	1	Precipitación	0
7488	7	Sololá	701	Sololá	1	Sololá	2	Febrero	2023-02-19T00:00:00	2024-11-08T18:00:00	8	Radiación solar	18
7489	7	Sololá	701	Sololá	1	Sololá	2	Febrero	2023-02-19T00:00:00	2024-11-08T19:00:00	2	Temperatura media	13.3
7490	7	Sololá	701	Sololá	1	Sololá	2	Febrero	2023-02-19T00:00:00	2024-11-08T19:00:00	4	Temperatura máxima	15.7
7491	7	Sololá	701	Sololá	1	Sololá	2	Febrero	2023-02-19T00:00:00	2024-11-08T19:00:00	3	Temperatura mínima	13.3
7492	7	Sololá	701	Sololá	1	Sololá	2	Febrero	2023-02-19T00:00:00	2024-11-08T19:00:00	5	Humedad	78
7493	7	Sololá	701	Sololá	1	Sololá	2	Febrero	2023-02-19T00:00:00	2024-11-08T19:00:00	6	Velocidad del viento	0
7494	7	Sololá	701	Sololá	1	Sololá	2	Febrero	2023-02-19T00:00:00	2024-11-08T19:00:00	7	Dirección del viento	0
7495	7	Sololá	701	Sololá	1	Sololá	2	Febrero	2023-02-19T00:00:00	2024-11-08T19:00:00	1	Precipitación	0
7496	7	Sololá	701	Sololá	1	Sololá	2	Febrero	2023-02-19T00:00:00	2024-11-08T19:00:00	8	Radiación solar	0
7497	7	Sololá	701	Sololá	1	Sololá	2	Febrero	2023-02-19T00:00:00	2024-11-08T20:00:00	2	Temperatura media	12.7
7498	7	Sololá	701	Sololá	1	Sololá	2	Febrero	2023-02-19T00:00:00	2024-11-08T20:00:00	4	Temperatura máxima	13.4
7499	7	Sololá	701	Sololá	1	Sololá	2	Febrero	2023-02-19T00:00:00	2024-11-08T20:00:00	3	Temperatura mínima	12.7
7500	7	Sololá	701	Sololá	1	Sololá	2	Febrero	2023-02-19T00:00:00	2024-11-08T20:00:00	5	Humedad	80
7501	7	Sololá	701	Sololá	1	Sololá	2	Febrero	2023-02-19T00:00:00	2024-11-08T20:00:00	6	Velocidad del viento	1.6
7502	7	Sololá	701	Sololá	1	Sololá	2	Febrero	2023-02-19T00:00:00	2024-11-08T20:00:00	7	Dirección del viento	1.61
7503	7	Sololá	701	Sololá	1	Sololá	2	Febrero	2023-02-19T00:00:00	2024-11-08T20:00:00	1	Precipitación	0
7504	7	Sololá	701	Sololá	1	Sololá	2	Febrero	2023-02-19T00:00:00	2024-11-08T20:00:00	8	Radiación solar	0
7505	7	Sololá	701	Sololá	1	Sololá	2	Febrero	2023-02-19T00:00:00	2024-11-08T21:00:00	2	Temperatura media	12.4
7506	7	Sololá	701	Sololá	1	Sololá	2	Febrero	2023-02-19T00:00:00	2024-11-08T21:00:00	4	Temperatura máxima	12.7
7507	7	Sololá	701	Sololá	1	Sololá	2	Febrero	2023-02-19T00:00:00	2024-11-08T21:00:00	3	Temperatura mínima	12.3
7508	7	Sololá	701	Sololá	1	Sololá	2	Febrero	2023-02-19T00:00:00	2024-11-08T21:00:00	5	Humedad	78
7509	7	Sololá	701	Sololá	1	Sololá	2	Febrero	2023-02-19T00:00:00	2024-11-08T21:00:00	6	Velocidad del viento	0
7510	7	Sololá	701	Sololá	1	Sololá	2	Febrero	2023-02-19T00:00:00	2024-11-08T21:00:00	7	Dirección del viento	0
7511	7	Sololá	701	Sololá	1	Sololá	2	Febrero	2023-02-19T00:00:00	2024-11-08T21:00:00	1	Precipitación	0
7512	7	Sololá	701	Sololá	1	Sololá	2	Febrero	2023-02-19T00:00:00	2024-11-08T21:00:00	8	Radiación solar	0
7513	7	Sololá	701	Sololá	1	Sololá	2	Febrero	2023-02-19T00:00:00	2024-11-08T22:00:00	2	Temperatura media	12.1
7514	7	Sololá	701	Sololá	1	Sololá	2	Febrero	2023-02-19T00:00:00	2024-11-08T22:00:00	4	Temperatura máxima	12.4
7515	7	Sololá	701	Sololá	1	Sololá	2	Febrero	2023-02-19T00:00:00	2024-11-08T22:00:00	3	Temperatura mínima	12.1
7516	7	Sololá	701	Sololá	1	Sololá	2	Febrero	2023-02-19T00:00:00	2024-11-08T22:00:00	5	Humedad	77
7517	7	Sololá	701	Sololá	1	Sololá	2	Febrero	2023-02-19T00:00:00	2024-11-08T22:00:00	6	Velocidad del viento	1.6
7518	7	Sololá	701	Sololá	1	Sololá	2	Febrero	2023-02-19T00:00:00	2024-11-08T22:00:00	7	Dirección del viento	1.61
7519	7	Sololá	701	Sololá	1	Sololá	2	Febrero	2023-02-19T00:00:00	2024-11-08T22:00:00	1	Precipitación	0
7520	7	Sololá	701	Sololá	1	Sololá	2	Febrero	2023-02-19T00:00:00	2024-11-08T22:00:00	8	Radiación solar	0
7521	7	Sololá	701	Sololá	1	Sololá	2	Febrero	2023-02-19T00:00:00	2024-11-08T23:00:00	2	Temperatura media	11.9
7522	7	Sololá	701	Sololá	1	Sololá	2	Febrero	2023-02-19T00:00:00	2024-11-08T23:00:00	4	Temperatura máxima	12.1
7523	7	Sololá	701	Sololá	1	Sololá	2	Febrero	2023-02-19T00:00:00	2024-11-08T23:00:00	3	Temperatura mínima	11.9
7524	7	Sololá	701	Sololá	1	Sololá	2	Febrero	2023-02-19T00:00:00	2024-11-08T23:00:00	5	Humedad	73
7525	7	Sololá	701	Sololá	1	Sololá	2	Febrero	2023-02-19T00:00:00	2024-11-08T23:00:00	6	Velocidad del viento	0
7526	7	Sololá	701	Sololá	1	Sololá	2	Febrero	2023-02-19T00:00:00	2024-11-08T23:00:00	7	Dirección del viento	0
7527	7	Sololá	701	Sololá	1	Sololá	2	Febrero	2023-02-19T00:00:00	2024-11-08T23:00:00	1	Precipitación	0
7528	7	Sololá	701	Sololá	1	Sololá	2	Febrero	2023-02-19T00:00:00	2024-11-08T23:00:00	8	Radiación solar	0
7529	7	Sololá	701	Sololá	1	Sololá	2	Febrero	2023-02-20T00:00:00	2024-11-08T00:00:00	2	Temperatura media	11.6
7530	7	Sololá	701	Sololá	1	Sololá	2	Febrero	2023-02-20T00:00:00	2024-11-08T00:00:00	4	Temperatura máxima	12.1
7531	7	Sololá	701	Sololá	1	Sololá	2	Febrero	2023-02-20T00:00:00	2024-11-08T00:00:00	3	Temperatura mínima	11.6
7532	7	Sololá	701	Sololá	1	Sololá	2	Febrero	2023-02-20T00:00:00	2024-11-08T00:00:00	5	Humedad	74
7533	7	Sololá	701	Sololá	1	Sololá	2	Febrero	2023-02-20T00:00:00	2024-11-08T00:00:00	6	Velocidad del viento	1.6
7534	7	Sololá	701	Sololá	1	Sololá	2	Febrero	2023-02-20T00:00:00	2024-11-08T00:00:00	7	Dirección del viento	1.61
7535	7	Sololá	701	Sololá	1	Sololá	2	Febrero	2023-02-20T00:00:00	2024-11-08T00:00:00	1	Precipitación	0
7536	7	Sololá	701	Sololá	1	Sololá	2	Febrero	2023-02-20T00:00:00	2024-11-08T00:00:00	8	Radiación solar	0
7537	7	Sololá	701	Sololá	1	Sololá	2	Febrero	2023-02-20T00:00:00	2024-11-08T01:00:00	2	Temperatura media	11.1
7538	7	Sololá	701	Sololá	1	Sololá	2	Febrero	2023-02-20T00:00:00	2024-11-08T01:00:00	4	Temperatura máxima	11.6
7539	7	Sololá	701	Sololá	1	Sololá	2	Febrero	2023-02-20T00:00:00	2024-11-08T01:00:00	3	Temperatura mínima	11.1
7540	7	Sololá	701	Sololá	1	Sololá	2	Febrero	2023-02-20T00:00:00	2024-11-08T01:00:00	5	Humedad	76
7541	7	Sololá	701	Sololá	1	Sololá	2	Febrero	2023-02-20T00:00:00	2024-11-08T01:00:00	6	Velocidad del viento	1.6
7542	7	Sololá	701	Sololá	1	Sololá	2	Febrero	2023-02-20T00:00:00	2024-11-08T01:00:00	7	Dirección del viento	1.61
7543	7	Sololá	701	Sololá	1	Sololá	2	Febrero	2023-02-20T00:00:00	2024-11-08T01:00:00	1	Precipitación	0
7544	7	Sololá	701	Sololá	1	Sololá	2	Febrero	2023-02-20T00:00:00	2024-11-08T01:00:00	8	Radiación solar	0
7545	7	Sololá	701	Sololá	1	Sololá	2	Febrero	2023-02-20T00:00:00	2024-11-08T02:00:00	2	Temperatura media	10.8
7546	7	Sololá	701	Sololá	1	Sololá	2	Febrero	2023-02-20T00:00:00	2024-11-08T02:00:00	4	Temperatura máxima	11.1
7547	7	Sololá	701	Sololá	1	Sololá	2	Febrero	2023-02-20T00:00:00	2024-11-08T02:00:00	3	Temperatura mínima	10.8
7548	7	Sololá	701	Sololá	1	Sololá	2	Febrero	2023-02-20T00:00:00	2024-11-08T02:00:00	5	Humedad	78
7549	7	Sololá	701	Sololá	1	Sololá	2	Febrero	2023-02-20T00:00:00	2024-11-08T02:00:00	6	Velocidad del viento	0
7550	7	Sololá	701	Sololá	1	Sololá	2	Febrero	2023-02-20T00:00:00	2024-11-08T02:00:00	7	Dirección del viento	0
7551	7	Sololá	701	Sololá	1	Sololá	2	Febrero	2023-02-20T00:00:00	2024-11-08T02:00:00	1	Precipitación	0
7552	7	Sololá	701	Sololá	1	Sololá	2	Febrero	2023-02-20T00:00:00	2024-11-08T02:00:00	8	Radiación solar	0
7553	7	Sololá	701	Sololá	1	Sololá	2	Febrero	2023-02-20T00:00:00	2024-11-08T03:00:00	2	Temperatura media	10.9
7554	7	Sololá	701	Sololá	1	Sololá	2	Febrero	2023-02-20T00:00:00	2024-11-08T03:00:00	4	Temperatura máxima	10.9
7555	7	Sololá	701	Sololá	1	Sololá	2	Febrero	2023-02-20T00:00:00	2024-11-08T03:00:00	3	Temperatura mínima	10.7
7556	7	Sololá	701	Sololá	1	Sololá	2	Febrero	2023-02-20T00:00:00	2024-11-08T03:00:00	5	Humedad	77
7557	7	Sololá	701	Sololá	1	Sololá	2	Febrero	2023-02-20T00:00:00	2024-11-08T03:00:00	6	Velocidad del viento	1.6
7558	7	Sololá	701	Sololá	1	Sololá	2	Febrero	2023-02-20T00:00:00	2024-11-08T03:00:00	7	Dirección del viento	1.61
7559	7	Sololá	701	Sololá	1	Sololá	2	Febrero	2023-02-20T00:00:00	2024-11-08T03:00:00	1	Precipitación	0
7560	7	Sololá	701	Sololá	1	Sololá	2	Febrero	2023-02-20T00:00:00	2024-11-08T03:00:00	8	Radiación solar	0
7561	7	Sololá	701	Sololá	1	Sololá	2	Febrero	2023-02-20T00:00:00	2024-11-08T04:00:00	2	Temperatura media	10.9
7562	7	Sololá	701	Sololá	1	Sololá	2	Febrero	2023-02-20T00:00:00	2024-11-08T04:00:00	4	Temperatura máxima	11
7563	7	Sololá	701	Sololá	1	Sololá	2	Febrero	2023-02-20T00:00:00	2024-11-08T04:00:00	3	Temperatura mínima	10.9
7564	7	Sololá	701	Sololá	1	Sololá	2	Febrero	2023-02-20T00:00:00	2024-11-08T04:00:00	5	Humedad	78
7565	7	Sololá	701	Sololá	1	Sololá	2	Febrero	2023-02-20T00:00:00	2024-11-08T04:00:00	6	Velocidad del viento	1.6
7566	7	Sololá	701	Sololá	1	Sololá	2	Febrero	2023-02-20T00:00:00	2024-11-08T04:00:00	7	Dirección del viento	1.61
7567	7	Sololá	701	Sololá	1	Sololá	2	Febrero	2023-02-20T00:00:00	2024-11-08T04:00:00	1	Precipitación	0
7568	7	Sololá	701	Sololá	1	Sololá	2	Febrero	2023-02-20T00:00:00	2024-11-08T04:00:00	8	Radiación solar	0
7569	7	Sololá	701	Sololá	1	Sololá	2	Febrero	2023-02-20T00:00:00	2024-11-08T05:00:00	2	Temperatura media	10.7
7570	7	Sololá	701	Sololá	1	Sololá	2	Febrero	2023-02-20T00:00:00	2024-11-08T05:00:00	4	Temperatura máxima	10.9
7571	7	Sololá	701	Sololá	1	Sololá	2	Febrero	2023-02-20T00:00:00	2024-11-08T05:00:00	3	Temperatura mínima	10.7
7572	7	Sololá	701	Sololá	1	Sololá	2	Febrero	2023-02-20T00:00:00	2024-11-08T05:00:00	5	Humedad	79
7573	7	Sololá	701	Sololá	1	Sololá	2	Febrero	2023-02-20T00:00:00	2024-11-08T05:00:00	6	Velocidad del viento	1.6
7574	7	Sololá	701	Sololá	1	Sololá	2	Febrero	2023-02-20T00:00:00	2024-11-08T05:00:00	7	Dirección del viento	1.61
7575	7	Sololá	701	Sololá	1	Sololá	2	Febrero	2023-02-20T00:00:00	2024-11-08T05:00:00	1	Precipitación	0
7576	7	Sololá	701	Sololá	1	Sololá	2	Febrero	2023-02-20T00:00:00	2024-11-08T05:00:00	8	Radiación solar	0
7577	7	Sololá	701	Sololá	1	Sololá	2	Febrero	2023-02-20T00:00:00	2024-11-08T06:00:00	2	Temperatura media	10.3
7578	7	Sololá	701	Sololá	1	Sololá	2	Febrero	2023-02-20T00:00:00	2024-11-08T06:00:00	4	Temperatura máxima	10.8
7579	7	Sololá	701	Sololá	1	Sololá	2	Febrero	2023-02-20T00:00:00	2024-11-08T06:00:00	3	Temperatura mínima	10.3
7580	7	Sololá	701	Sololá	1	Sololá	2	Febrero	2023-02-20T00:00:00	2024-11-08T06:00:00	5	Humedad	82
7581	7	Sololá	701	Sololá	1	Sololá	2	Febrero	2023-02-20T00:00:00	2024-11-08T06:00:00	6	Velocidad del viento	1.6
7582	7	Sololá	701	Sololá	1	Sololá	2	Febrero	2023-02-20T00:00:00	2024-11-08T06:00:00	7	Dirección del viento	1.61
7583	7	Sololá	701	Sololá	1	Sololá	2	Febrero	2023-02-20T00:00:00	2024-11-08T06:00:00	1	Precipitación	0
7584	7	Sololá	701	Sololá	1	Sololá	2	Febrero	2023-02-20T00:00:00	2024-11-08T06:00:00	8	Radiación solar	0
7585	7	Sololá	701	Sololá	1	Sololá	2	Febrero	2023-02-20T00:00:00	2024-11-08T07:00:00	2	Temperatura media	10.8
7586	7	Sololá	701	Sololá	1	Sololá	2	Febrero	2023-02-20T00:00:00	2024-11-08T07:00:00	4	Temperatura máxima	10.9
7587	7	Sololá	701	Sololá	1	Sololá	2	Febrero	2023-02-20T00:00:00	2024-11-08T07:00:00	3	Temperatura mínima	10.3
7588	7	Sololá	701	Sololá	1	Sololá	2	Febrero	2023-02-20T00:00:00	2024-11-08T07:00:00	5	Humedad	79
7589	7	Sololá	701	Sololá	1	Sololá	2	Febrero	2023-02-20T00:00:00	2024-11-08T07:00:00	6	Velocidad del viento	1.6
7590	7	Sololá	701	Sololá	1	Sololá	2	Febrero	2023-02-20T00:00:00	2024-11-08T07:00:00	7	Dirección del viento	1.61
7591	7	Sololá	701	Sololá	1	Sololá	2	Febrero	2023-02-20T00:00:00	2024-11-08T07:00:00	1	Precipitación	0
7592	7	Sololá	701	Sololá	1	Sololá	2	Febrero	2023-02-20T00:00:00	2024-11-08T07:00:00	8	Radiación solar	4
7593	7	Sololá	701	Sololá	1	Sololá	2	Febrero	2023-02-20T00:00:00	2024-11-08T08:00:00	2	Temperatura media	12
7594	7	Sololá	701	Sololá	1	Sololá	2	Febrero	2023-02-20T00:00:00	2024-11-08T08:00:00	4	Temperatura máxima	12
7595	7	Sololá	701	Sololá	1	Sololá	2	Febrero	2023-02-20T00:00:00	2024-11-08T08:00:00	3	Temperatura mínima	10.8
7596	7	Sololá	701	Sololá	1	Sololá	2	Febrero	2023-02-20T00:00:00	2024-11-08T08:00:00	5	Humedad	75
7597	7	Sololá	701	Sololá	1	Sololá	2	Febrero	2023-02-20T00:00:00	2024-11-08T08:00:00	6	Velocidad del viento	1.6
7598	7	Sololá	701	Sololá	1	Sololá	2	Febrero	2023-02-20T00:00:00	2024-11-08T08:00:00	7	Dirección del viento	1.61
7599	7	Sololá	701	Sololá	1	Sololá	2	Febrero	2023-02-20T00:00:00	2024-11-08T08:00:00	1	Precipitación	0
7600	7	Sololá	701	Sololá	1	Sololá	2	Febrero	2023-02-20T00:00:00	2024-11-08T08:00:00	8	Radiación solar	23
7601	7	Sololá	701	Sololá	1	Sololá	2	Febrero	2023-02-20T00:00:00	2024-11-08T09:00:00	2	Temperatura media	15.7
7602	7	Sololá	701	Sololá	1	Sololá	2	Febrero	2023-02-20T00:00:00	2024-11-08T09:00:00	4	Temperatura máxima	15.7
7603	7	Sololá	701	Sololá	1	Sololá	2	Febrero	2023-02-20T00:00:00	2024-11-08T09:00:00	3	Temperatura mínima	12
7604	7	Sololá	701	Sololá	1	Sololá	2	Febrero	2023-02-20T00:00:00	2024-11-08T09:00:00	5	Humedad	64
7605	7	Sololá	701	Sololá	1	Sololá	2	Febrero	2023-02-20T00:00:00	2024-11-08T09:00:00	6	Velocidad del viento	1.6
7606	7	Sololá	701	Sololá	1	Sololá	2	Febrero	2023-02-20T00:00:00	2024-11-08T09:00:00	7	Dirección del viento	1.61
7607	7	Sololá	701	Sololá	1	Sololá	2	Febrero	2023-02-20T00:00:00	2024-11-08T09:00:00	1	Precipitación	0
7608	7	Sololá	701	Sololá	1	Sololá	2	Febrero	2023-02-20T00:00:00	2024-11-08T09:00:00	8	Radiación solar	379
7609	7	Sololá	701	Sololá	1	Sololá	2	Febrero	2023-02-20T00:00:00	2024-11-08T10:00:00	2	Temperatura media	18.4
7610	7	Sololá	701	Sololá	1	Sololá	2	Febrero	2023-02-20T00:00:00	2024-11-08T10:00:00	4	Temperatura máxima	18.4
7611	7	Sololá	701	Sololá	1	Sololá	2	Febrero	2023-02-20T00:00:00	2024-11-08T10:00:00	3	Temperatura mínima	15.7
7612	7	Sololá	701	Sololá	1	Sololá	2	Febrero	2023-02-20T00:00:00	2024-11-08T10:00:00	5	Humedad	55
7613	7	Sololá	701	Sololá	1	Sololá	2	Febrero	2023-02-20T00:00:00	2024-11-08T10:00:00	6	Velocidad del viento	0
7614	7	Sololá	701	Sololá	1	Sololá	2	Febrero	2023-02-20T00:00:00	2024-11-08T10:00:00	7	Dirección del viento	0
7615	7	Sololá	701	Sololá	1	Sololá	2	Febrero	2023-02-20T00:00:00	2024-11-08T10:00:00	1	Precipitación	0
7616	7	Sololá	701	Sololá	1	Sololá	2	Febrero	2023-02-20T00:00:00	2024-11-08T10:00:00	8	Radiación solar	716
7617	7	Sololá	701	Sololá	1	Sololá	2	Febrero	2023-02-20T00:00:00	2024-11-08T11:00:00	2	Temperatura media	20.8
7618	7	Sololá	701	Sololá	1	Sololá	2	Febrero	2023-02-20T00:00:00	2024-11-08T11:00:00	4	Temperatura máxima	20.8
7619	7	Sololá	701	Sololá	1	Sololá	2	Febrero	2023-02-20T00:00:00	2024-11-08T11:00:00	3	Temperatura mínima	18.4
7620	7	Sololá	701	Sololá	1	Sololá	2	Febrero	2023-02-20T00:00:00	2024-11-08T11:00:00	5	Humedad	48
7621	7	Sololá	701	Sololá	1	Sololá	2	Febrero	2023-02-20T00:00:00	2024-11-08T11:00:00	6	Velocidad del viento	1.6
7622	7	Sololá	701	Sololá	1	Sololá	2	Febrero	2023-02-20T00:00:00	2024-11-08T11:00:00	7	Dirección del viento	1.61
7623	7	Sololá	701	Sololá	1	Sololá	2	Febrero	2023-02-20T00:00:00	2024-11-08T11:00:00	1	Precipitación	0
7624	7	Sololá	701	Sololá	1	Sololá	2	Febrero	2023-02-20T00:00:00	2024-11-08T11:00:00	8	Radiación solar	856
7625	7	Sololá	701	Sololá	1	Sololá	2	Febrero	2023-02-20T00:00:00	2024-11-08T12:00:00	2	Temperatura media	22.3
7626	7	Sololá	701	Sololá	1	Sololá	2	Febrero	2023-02-20T00:00:00	2024-11-08T12:00:00	4	Temperatura máxima	22.3
7627	7	Sololá	701	Sololá	1	Sololá	2	Febrero	2023-02-20T00:00:00	2024-11-08T12:00:00	3	Temperatura mínima	20.8
7628	7	Sololá	701	Sololá	1	Sololá	2	Febrero	2023-02-20T00:00:00	2024-11-08T12:00:00	5	Humedad	44
7629	7	Sololá	701	Sololá	1	Sololá	2	Febrero	2023-02-20T00:00:00	2024-11-08T12:00:00	6	Velocidad del viento	0
7630	7	Sololá	701	Sololá	1	Sololá	2	Febrero	2023-02-20T00:00:00	2024-11-08T12:00:00	7	Dirección del viento	0
7631	7	Sololá	701	Sololá	1	Sololá	2	Febrero	2023-02-20T00:00:00	2024-11-08T12:00:00	1	Precipitación	0
7632	7	Sololá	701	Sololá	1	Sololá	2	Febrero	2023-02-20T00:00:00	2024-11-08T12:00:00	8	Radiación solar	930
7633	7	Sololá	701	Sololá	1	Sololá	2	Febrero	2023-02-20T00:00:00	2024-11-08T13:00:00	2	Temperatura media	22.7
7634	7	Sololá	701	Sololá	1	Sololá	2	Febrero	2023-02-20T00:00:00	2024-11-08T13:00:00	4	Temperatura máxima	22.9
7635	7	Sololá	701	Sololá	1	Sololá	2	Febrero	2023-02-20T00:00:00	2024-11-08T13:00:00	3	Temperatura mínima	22.2
7636	7	Sololá	701	Sololá	1	Sololá	2	Febrero	2023-02-20T00:00:00	2024-11-08T13:00:00	5	Humedad	42
7637	7	Sololá	701	Sololá	1	Sololá	2	Febrero	2023-02-20T00:00:00	2024-11-08T13:00:00	6	Velocidad del viento	1.6
7638	7	Sololá	701	Sololá	1	Sololá	2	Febrero	2023-02-20T00:00:00	2024-11-08T13:00:00	7	Dirección del viento	1.61
7639	7	Sololá	701	Sololá	1	Sololá	2	Febrero	2023-02-20T00:00:00	2024-11-08T13:00:00	1	Precipitación	0
7640	7	Sololá	701	Sololá	1	Sololá	2	Febrero	2023-02-20T00:00:00	2024-11-08T13:00:00	8	Radiación solar	938
7641	7	Sololá	701	Sololá	1	Sololá	2	Febrero	2023-02-20T00:00:00	2024-11-08T14:00:00	2	Temperatura media	22.4
7642	7	Sololá	701	Sololá	1	Sololá	2	Febrero	2023-02-20T00:00:00	2024-11-08T14:00:00	4	Temperatura máxima	23
7643	7	Sololá	701	Sololá	1	Sololá	2	Febrero	2023-02-20T00:00:00	2024-11-08T14:00:00	3	Temperatura mínima	22.1
7644	7	Sololá	701	Sololá	1	Sololá	2	Febrero	2023-02-20T00:00:00	2024-11-08T14:00:00	5	Humedad	42
7645	7	Sololá	701	Sololá	1	Sololá	2	Febrero	2023-02-20T00:00:00	2024-11-08T14:00:00	6	Velocidad del viento	1.6
7646	7	Sololá	701	Sololá	1	Sololá	2	Febrero	2023-02-20T00:00:00	2024-11-08T14:00:00	7	Dirección del viento	1.61
7647	7	Sololá	701	Sololá	1	Sololá	2	Febrero	2023-02-20T00:00:00	2024-11-08T14:00:00	1	Precipitación	0
7648	7	Sololá	701	Sololá	1	Sololá	2	Febrero	2023-02-20T00:00:00	2024-11-08T14:00:00	8	Radiación solar	749
7649	7	Sololá	701	Sololá	1	Sololá	2	Febrero	2023-02-20T00:00:00	2024-11-08T15:00:00	2	Temperatura media	22.3
7650	7	Sololá	701	Sololá	1	Sololá	2	Febrero	2023-02-20T00:00:00	2024-11-08T15:00:00	4	Temperatura máxima	22.6
7651	7	Sololá	701	Sololá	1	Sololá	2	Febrero	2023-02-20T00:00:00	2024-11-08T15:00:00	3	Temperatura mínima	22.2
7652	7	Sololá	701	Sololá	1	Sololá	2	Febrero	2023-02-20T00:00:00	2024-11-08T15:00:00	5	Humedad	45
7653	7	Sololá	701	Sololá	1	Sololá	2	Febrero	2023-02-20T00:00:00	2024-11-08T15:00:00	6	Velocidad del viento	1.6
7654	7	Sololá	701	Sololá	1	Sololá	2	Febrero	2023-02-20T00:00:00	2024-11-08T15:00:00	7	Dirección del viento	1.61
7655	7	Sololá	701	Sololá	1	Sololá	2	Febrero	2023-02-20T00:00:00	2024-11-08T15:00:00	1	Precipitación	0
7656	7	Sololá	701	Sololá	1	Sololá	2	Febrero	2023-02-20T00:00:00	2024-11-08T15:00:00	8	Radiación solar	118
7657	7	Sololá	701	Sololá	1	Sololá	2	Febrero	2023-02-20T00:00:00	2024-11-08T16:00:00	2	Temperatura media	21.4
7658	7	Sololá	701	Sololá	1	Sololá	2	Febrero	2023-02-20T00:00:00	2024-11-08T16:00:00	4	Temperatura máxima	22.3
7659	7	Sololá	701	Sololá	1	Sololá	2	Febrero	2023-02-20T00:00:00	2024-11-08T16:00:00	3	Temperatura mínima	21.4
7660	7	Sololá	701	Sololá	1	Sololá	2	Febrero	2023-02-20T00:00:00	2024-11-08T16:00:00	5	Humedad	45
7661	7	Sololá	701	Sololá	1	Sololá	2	Febrero	2023-02-20T00:00:00	2024-11-08T16:00:00	6	Velocidad del viento	1.6
7662	7	Sololá	701	Sololá	1	Sololá	2	Febrero	2023-02-20T00:00:00	2024-11-08T16:00:00	7	Dirección del viento	1.61
7663	7	Sololá	701	Sololá	1	Sololá	2	Febrero	2023-02-20T00:00:00	2024-11-08T16:00:00	1	Precipitación	0
7664	7	Sololá	701	Sololá	1	Sololá	2	Febrero	2023-02-20T00:00:00	2024-11-08T16:00:00	8	Radiación solar	72
7665	7	Sololá	701	Sololá	1	Sololá	2	Febrero	2023-02-20T00:00:00	2024-11-08T17:00:00	2	Temperatura media	20.8
7666	7	Sololá	701	Sololá	1	Sololá	2	Febrero	2023-02-20T00:00:00	2024-11-08T17:00:00	4	Temperatura máxima	21.4
7667	7	Sololá	701	Sololá	1	Sololá	2	Febrero	2023-02-20T00:00:00	2024-11-08T17:00:00	3	Temperatura mínima	20.7
7668	7	Sololá	701	Sololá	1	Sololá	2	Febrero	2023-02-20T00:00:00	2024-11-08T17:00:00	5	Humedad	49
7669	7	Sololá	701	Sololá	1	Sololá	2	Febrero	2023-02-20T00:00:00	2024-11-08T17:00:00	6	Velocidad del viento	0
7670	7	Sololá	701	Sololá	1	Sololá	2	Febrero	2023-02-20T00:00:00	2024-11-08T17:00:00	7	Dirección del viento	0
7671	7	Sololá	701	Sololá	1	Sololá	2	Febrero	2023-02-20T00:00:00	2024-11-08T17:00:00	1	Precipitación	0
7672	7	Sololá	701	Sololá	1	Sololá	2	Febrero	2023-02-20T00:00:00	2024-11-08T17:00:00	8	Radiación solar	47
7673	7	Sololá	701	Sololá	1	Sololá	2	Febrero	2023-02-20T00:00:00	2024-11-08T18:00:00	2	Temperatura media	17.2
7674	7	Sololá	701	Sololá	1	Sololá	2	Febrero	2023-02-20T00:00:00	2024-11-08T18:00:00	4	Temperatura máxima	20.8
7675	7	Sololá	701	Sololá	1	Sololá	2	Febrero	2023-02-20T00:00:00	2024-11-08T18:00:00	3	Temperatura mínima	17.2
7676	7	Sololá	701	Sololá	1	Sololá	2	Febrero	2023-02-20T00:00:00	2024-11-08T18:00:00	5	Humedad	59
7677	7	Sololá	701	Sololá	1	Sololá	2	Febrero	2023-02-20T00:00:00	2024-11-08T18:00:00	6	Velocidad del viento	0
7678	7	Sololá	701	Sololá	1	Sololá	2	Febrero	2023-02-20T00:00:00	2024-11-08T18:00:00	7	Dirección del viento	0
7679	7	Sololá	701	Sololá	1	Sololá	2	Febrero	2023-02-20T00:00:00	2024-11-08T18:00:00	1	Precipitación	0
7680	7	Sololá	701	Sololá	1	Sololá	2	Febrero	2023-02-20T00:00:00	2024-11-08T18:00:00	8	Radiación solar	23
7681	7	Sololá	701	Sololá	1	Sololá	2	Febrero	2023-02-20T00:00:00	2024-11-08T19:00:00	2	Temperatura media	14.3
7682	7	Sololá	701	Sololá	1	Sololá	2	Febrero	2023-02-20T00:00:00	2024-11-08T19:00:00	4	Temperatura máxima	17.2
7683	7	Sololá	701	Sololá	1	Sololá	2	Febrero	2023-02-20T00:00:00	2024-11-08T19:00:00	3	Temperatura mínima	14.3
7684	7	Sololá	701	Sololá	1	Sololá	2	Febrero	2023-02-20T00:00:00	2024-11-08T19:00:00	5	Humedad	70
7685	7	Sololá	701	Sololá	1	Sololá	2	Febrero	2023-02-20T00:00:00	2024-11-08T19:00:00	6	Velocidad del viento	0
7686	7	Sololá	701	Sololá	1	Sololá	2	Febrero	2023-02-20T00:00:00	2024-11-08T19:00:00	7	Dirección del viento	0
7687	7	Sololá	701	Sololá	1	Sololá	2	Febrero	2023-02-20T00:00:00	2024-11-08T19:00:00	1	Precipitación	0
7688	7	Sololá	701	Sololá	1	Sololá	2	Febrero	2023-02-20T00:00:00	2024-11-08T19:00:00	8	Radiación solar	0
7689	7	Sololá	701	Sololá	1	Sololá	2	Febrero	2023-02-20T00:00:00	2024-11-08T20:00:00	2	Temperatura media	13.3
7690	7	Sololá	701	Sololá	1	Sololá	2	Febrero	2023-02-20T00:00:00	2024-11-08T20:00:00	4	Temperatura máxima	14.3
7691	7	Sololá	701	Sololá	1	Sololá	2	Febrero	2023-02-20T00:00:00	2024-11-08T20:00:00	3	Temperatura mínima	13.3
7692	7	Sololá	701	Sololá	1	Sololá	2	Febrero	2023-02-20T00:00:00	2024-11-08T20:00:00	5	Humedad	74
7693	7	Sololá	701	Sololá	1	Sololá	2	Febrero	2023-02-20T00:00:00	2024-11-08T20:00:00	6	Velocidad del viento	0
7694	7	Sololá	701	Sololá	1	Sololá	2	Febrero	2023-02-20T00:00:00	2024-11-08T20:00:00	7	Dirección del viento	0
7695	7	Sololá	701	Sololá	1	Sololá	2	Febrero	2023-02-20T00:00:00	2024-11-08T20:00:00	1	Precipitación	0
7696	7	Sololá	701	Sololá	1	Sololá	2	Febrero	2023-02-20T00:00:00	2024-11-08T20:00:00	8	Radiación solar	0
7697	7	Sololá	701	Sololá	1	Sololá	2	Febrero	2023-02-20T00:00:00	2024-11-08T21:00:00	2	Temperatura media	12.5
7698	7	Sololá	701	Sololá	1	Sololá	2	Febrero	2023-02-20T00:00:00	2024-11-08T21:00:00	4	Temperatura máxima	13.3
7699	7	Sololá	701	Sololá	1	Sololá	2	Febrero	2023-02-20T00:00:00	2024-11-08T21:00:00	3	Temperatura mínima	12.5
7700	7	Sololá	701	Sololá	1	Sololá	2	Febrero	2023-02-20T00:00:00	2024-11-08T21:00:00	5	Humedad	77
7701	7	Sololá	701	Sololá	1	Sololá	2	Febrero	2023-02-20T00:00:00	2024-11-08T21:00:00	6	Velocidad del viento	0
7702	7	Sololá	701	Sololá	1	Sololá	2	Febrero	2023-02-20T00:00:00	2024-11-08T21:00:00	7	Dirección del viento	0
7703	7	Sololá	701	Sololá	1	Sololá	2	Febrero	2023-02-20T00:00:00	2024-11-08T21:00:00	1	Precipitación	0
7704	7	Sololá	701	Sololá	1	Sololá	2	Febrero	2023-02-20T00:00:00	2024-11-08T21:00:00	8	Radiación solar	0
7705	7	Sololá	701	Sololá	1	Sololá	2	Febrero	2023-02-20T00:00:00	2024-11-08T22:00:00	2	Temperatura media	12.3
7706	7	Sololá	701	Sololá	1	Sololá	2	Febrero	2023-02-20T00:00:00	2024-11-08T22:00:00	4	Temperatura máxima	12.6
7707	7	Sololá	701	Sololá	1	Sololá	2	Febrero	2023-02-20T00:00:00	2024-11-08T22:00:00	3	Temperatura mínima	12.2
7708	7	Sololá	701	Sololá	1	Sololá	2	Febrero	2023-02-20T00:00:00	2024-11-08T22:00:00	5	Humedad	75
7709	7	Sololá	701	Sololá	1	Sololá	2	Febrero	2023-02-20T00:00:00	2024-11-08T22:00:00	6	Velocidad del viento	0
7710	7	Sololá	701	Sololá	1	Sololá	2	Febrero	2023-02-20T00:00:00	2024-11-08T22:00:00	7	Dirección del viento	0
7711	7	Sololá	701	Sololá	1	Sololá	2	Febrero	2023-02-20T00:00:00	2024-11-08T22:00:00	1	Precipitación	0
7712	7	Sololá	701	Sololá	1	Sololá	2	Febrero	2023-02-20T00:00:00	2024-11-08T22:00:00	8	Radiación solar	0
7713	7	Sololá	701	Sololá	1	Sololá	2	Febrero	2023-02-20T00:00:00	2024-11-08T23:00:00	2	Temperatura media	12.2
7714	7	Sololá	701	Sololá	1	Sololá	2	Febrero	2023-02-20T00:00:00	2024-11-08T23:00:00	4	Temperatura máxima	12.3
7715	7	Sololá	701	Sololá	1	Sololá	2	Febrero	2023-02-20T00:00:00	2024-11-08T23:00:00	3	Temperatura mínima	12.2
7716	7	Sololá	701	Sololá	1	Sololá	2	Febrero	2023-02-20T00:00:00	2024-11-08T23:00:00	5	Humedad	73
7717	7	Sololá	701	Sololá	1	Sololá	2	Febrero	2023-02-20T00:00:00	2024-11-08T23:00:00	6	Velocidad del viento	0
7718	7	Sololá	701	Sololá	1	Sololá	2	Febrero	2023-02-20T00:00:00	2024-11-08T23:00:00	7	Dirección del viento	0
7719	7	Sololá	701	Sololá	1	Sololá	2	Febrero	2023-02-20T00:00:00	2024-11-08T23:00:00	1	Precipitación	0
7720	7	Sololá	701	Sololá	1	Sololá	2	Febrero	2023-02-20T00:00:00	2024-11-08T23:00:00	8	Radiación solar	0
7721	7	Sololá	701	Sololá	1	Sololá	2	Febrero	2023-02-21T00:00:00	2024-11-08T00:00:00	2	Temperatura media	11.5
7722	7	Sololá	701	Sololá	1	Sololá	2	Febrero	2023-02-21T00:00:00	2024-11-08T00:00:00	4	Temperatura máxima	12.3
7723	7	Sololá	701	Sololá	1	Sololá	2	Febrero	2023-02-21T00:00:00	2024-11-08T00:00:00	3	Temperatura mínima	11.5
7724	7	Sololá	701	Sololá	1	Sololá	2	Febrero	2023-02-21T00:00:00	2024-11-08T00:00:00	5	Humedad	76
7725	7	Sololá	701	Sololá	1	Sololá	2	Febrero	2023-02-21T00:00:00	2024-11-08T00:00:00	6	Velocidad del viento	0
7726	7	Sololá	701	Sololá	1	Sololá	2	Febrero	2023-02-21T00:00:00	2024-11-08T00:00:00	7	Dirección del viento	0
7727	7	Sololá	701	Sololá	1	Sololá	2	Febrero	2023-02-21T00:00:00	2024-11-08T00:00:00	1	Precipitación	0
7728	7	Sololá	701	Sololá	1	Sololá	2	Febrero	2023-02-21T00:00:00	2024-11-08T00:00:00	8	Radiación solar	0
7729	7	Sololá	701	Sololá	1	Sololá	2	Febrero	2023-02-21T00:00:00	2024-11-08T01:00:00	2	Temperatura media	10.9
7730	7	Sololá	701	Sololá	1	Sololá	2	Febrero	2023-02-21T00:00:00	2024-11-08T01:00:00	4	Temperatura máxima	11.6
7731	7	Sololá	701	Sololá	1	Sololá	2	Febrero	2023-02-21T00:00:00	2024-11-08T01:00:00	3	Temperatura mínima	10.9
7732	7	Sololá	701	Sololá	1	Sololá	2	Febrero	2023-02-21T00:00:00	2024-11-08T01:00:00	5	Humedad	78
7733	7	Sololá	701	Sololá	1	Sololá	2	Febrero	2023-02-21T00:00:00	2024-11-08T01:00:00	6	Velocidad del viento	0
7734	7	Sololá	701	Sololá	1	Sololá	2	Febrero	2023-02-21T00:00:00	2024-11-08T01:00:00	7	Dirección del viento	0
7735	7	Sololá	701	Sololá	1	Sololá	2	Febrero	2023-02-21T00:00:00	2024-11-08T01:00:00	1	Precipitación	0
7736	7	Sololá	701	Sololá	1	Sololá	2	Febrero	2023-02-21T00:00:00	2024-11-08T01:00:00	8	Radiación solar	0
7737	7	Sololá	701	Sololá	1	Sololá	2	Febrero	2023-02-21T00:00:00	2024-11-08T02:00:00	2	Temperatura media	10.6
7738	7	Sololá	701	Sololá	1	Sololá	2	Febrero	2023-02-21T00:00:00	2024-11-08T02:00:00	4	Temperatura máxima	10.9
7739	7	Sololá	701	Sololá	1	Sololá	2	Febrero	2023-02-21T00:00:00	2024-11-08T02:00:00	3	Temperatura mínima	10.5
7740	7	Sololá	701	Sololá	1	Sololá	2	Febrero	2023-02-21T00:00:00	2024-11-08T02:00:00	5	Humedad	77
7741	7	Sololá	701	Sololá	1	Sololá	2	Febrero	2023-02-21T00:00:00	2024-11-08T02:00:00	6	Velocidad del viento	0
7742	7	Sololá	701	Sololá	1	Sololá	2	Febrero	2023-02-21T00:00:00	2024-11-08T02:00:00	7	Dirección del viento	0
7743	7	Sololá	701	Sololá	1	Sololá	2	Febrero	2023-02-21T00:00:00	2024-11-08T02:00:00	1	Precipitación	0
7744	7	Sololá	701	Sololá	1	Sololá	2	Febrero	2023-02-21T00:00:00	2024-11-08T02:00:00	8	Radiación solar	0
7745	7	Sololá	701	Sololá	1	Sololá	2	Febrero	2023-02-21T00:00:00	2024-11-08T03:00:00	2	Temperatura media	10.1
7746	7	Sololá	701	Sololá	1	Sololá	2	Febrero	2023-02-21T00:00:00	2024-11-08T03:00:00	4	Temperatura máxima	10.7
7747	7	Sololá	701	Sololá	1	Sololá	2	Febrero	2023-02-21T00:00:00	2024-11-08T03:00:00	3	Temperatura mínima	10.1
7748	7	Sololá	701	Sololá	1	Sololá	2	Febrero	2023-02-21T00:00:00	2024-11-08T03:00:00	5	Humedad	79
7749	7	Sololá	701	Sololá	1	Sololá	2	Febrero	2023-02-21T00:00:00	2024-11-08T03:00:00	6	Velocidad del viento	0
7750	7	Sololá	701	Sololá	1	Sololá	2	Febrero	2023-02-21T00:00:00	2024-11-08T03:00:00	7	Dirección del viento	0
7751	7	Sololá	701	Sololá	1	Sololá	2	Febrero	2023-02-21T00:00:00	2024-11-08T03:00:00	1	Precipitación	0
7752	7	Sololá	701	Sololá	1	Sololá	2	Febrero	2023-02-21T00:00:00	2024-11-08T03:00:00	8	Radiación solar	0
7753	7	Sololá	701	Sololá	1	Sololá	2	Febrero	2023-02-21T00:00:00	2024-11-08T04:00:00	2	Temperatura media	10.3
7754	7	Sololá	701	Sololá	1	Sololá	2	Febrero	2023-02-21T00:00:00	2024-11-08T04:00:00	4	Temperatura máxima	10.3
7755	7	Sololá	701	Sololá	1	Sololá	2	Febrero	2023-02-21T00:00:00	2024-11-08T04:00:00	3	Temperatura mínima	10.2
7756	7	Sololá	701	Sololá	1	Sololá	2	Febrero	2023-02-21T00:00:00	2024-11-08T04:00:00	5	Humedad	79
7757	7	Sololá	701	Sololá	1	Sololá	2	Febrero	2023-02-21T00:00:00	2024-11-08T04:00:00	6	Velocidad del viento	1.6
7758	7	Sololá	701	Sololá	1	Sololá	2	Febrero	2023-02-21T00:00:00	2024-11-08T04:00:00	7	Dirección del viento	1.61
7759	7	Sololá	701	Sololá	1	Sololá	2	Febrero	2023-02-21T00:00:00	2024-11-08T04:00:00	1	Precipitación	0
7760	7	Sololá	701	Sololá	1	Sololá	2	Febrero	2023-02-21T00:00:00	2024-11-08T04:00:00	8	Radiación solar	0
7761	7	Sololá	701	Sololá	1	Sololá	2	Febrero	2023-02-21T00:00:00	2024-11-08T05:00:00	2	Temperatura media	10.3
7762	7	Sololá	701	Sololá	1	Sololá	2	Febrero	2023-02-21T00:00:00	2024-11-08T05:00:00	4	Temperatura máxima	10.4
7763	7	Sololá	701	Sololá	1	Sololá	2	Febrero	2023-02-21T00:00:00	2024-11-08T05:00:00	3	Temperatura mínima	10.3
7764	7	Sololá	701	Sololá	1	Sololá	2	Febrero	2023-02-21T00:00:00	2024-11-08T05:00:00	5	Humedad	80
7765	7	Sololá	701	Sololá	1	Sololá	2	Febrero	2023-02-21T00:00:00	2024-11-08T05:00:00	6	Velocidad del viento	0
7766	7	Sololá	701	Sololá	1	Sololá	2	Febrero	2023-02-21T00:00:00	2024-11-08T05:00:00	7	Dirección del viento	0
7767	7	Sololá	701	Sololá	1	Sololá	2	Febrero	2023-02-21T00:00:00	2024-11-08T05:00:00	1	Precipitación	0
7768	7	Sololá	701	Sololá	1	Sololá	2	Febrero	2023-02-21T00:00:00	2024-11-08T05:00:00	8	Radiación solar	0
7769	7	Sololá	701	Sololá	1	Sololá	2	Febrero	2023-02-21T00:00:00	2024-11-08T06:00:00	2	Temperatura media	10.6
7770	7	Sololá	701	Sololá	1	Sololá	2	Febrero	2023-02-21T00:00:00	2024-11-08T06:00:00	4	Temperatura máxima	10.7
7771	7	Sololá	701	Sololá	1	Sololá	2	Febrero	2023-02-21T00:00:00	2024-11-08T06:00:00	3	Temperatura mínima	10.3
7772	7	Sololá	701	Sololá	1	Sololá	2	Febrero	2023-02-21T00:00:00	2024-11-08T06:00:00	5	Humedad	81
7773	7	Sololá	701	Sololá	1	Sololá	2	Febrero	2023-02-21T00:00:00	2024-11-08T06:00:00	6	Velocidad del viento	0
7774	7	Sololá	701	Sololá	1	Sololá	2	Febrero	2023-02-21T00:00:00	2024-11-08T06:00:00	7	Dirección del viento	0
7775	7	Sololá	701	Sololá	1	Sololá	2	Febrero	2023-02-21T00:00:00	2024-11-08T06:00:00	1	Precipitación	0
7776	7	Sololá	701	Sololá	1	Sololá	2	Febrero	2023-02-21T00:00:00	2024-11-08T06:00:00	8	Radiación solar	0
7777	7	Sololá	701	Sololá	1	Sololá	2	Febrero	2023-02-21T00:00:00	2024-11-08T07:00:00	2	Temperatura media	11.2
7778	7	Sololá	701	Sololá	1	Sololá	2	Febrero	2023-02-21T00:00:00	2024-11-08T07:00:00	4	Temperatura máxima	11.2
7779	7	Sololá	701	Sololá	1	Sololá	2	Febrero	2023-02-21T00:00:00	2024-11-08T07:00:00	3	Temperatura mínima	10.7
7780	7	Sololá	701	Sololá	1	Sololá	2	Febrero	2023-02-21T00:00:00	2024-11-08T07:00:00	5	Humedad	82
7781	7	Sololá	701	Sololá	1	Sololá	2	Febrero	2023-02-21T00:00:00	2024-11-08T07:00:00	6	Velocidad del viento	0
7782	7	Sololá	701	Sololá	1	Sololá	2	Febrero	2023-02-21T00:00:00	2024-11-08T07:00:00	7	Dirección del viento	0
7783	7	Sololá	701	Sololá	1	Sololá	2	Febrero	2023-02-21T00:00:00	2024-11-08T07:00:00	1	Precipitación	0
7784	7	Sololá	701	Sololá	1	Sololá	2	Febrero	2023-02-21T00:00:00	2024-11-08T07:00:00	8	Radiación solar	10
7785	7	Sololá	701	Sololá	1	Sololá	2	Febrero	2023-02-21T00:00:00	2024-11-08T08:00:00	2	Temperatura media	13.2
7786	7	Sololá	701	Sololá	1	Sololá	2	Febrero	2023-02-21T00:00:00	2024-11-08T08:00:00	4	Temperatura máxima	13.2
7787	7	Sololá	701	Sololá	1	Sololá	2	Febrero	2023-02-21T00:00:00	2024-11-08T08:00:00	3	Temperatura mínima	11.2
7788	7	Sololá	701	Sololá	1	Sololá	2	Febrero	2023-02-21T00:00:00	2024-11-08T08:00:00	5	Humedad	79
7789	7	Sololá	701	Sololá	1	Sololá	2	Febrero	2023-02-21T00:00:00	2024-11-08T08:00:00	6	Velocidad del viento	0
7790	7	Sololá	701	Sololá	1	Sololá	2	Febrero	2023-02-21T00:00:00	2024-11-08T08:00:00	7	Dirección del viento	0
7791	7	Sololá	701	Sololá	1	Sololá	2	Febrero	2023-02-21T00:00:00	2024-11-08T08:00:00	1	Precipitación	0
7792	7	Sololá	701	Sololá	1	Sololá	2	Febrero	2023-02-21T00:00:00	2024-11-08T08:00:00	8	Radiación solar	51
7793	7	Sololá	701	Sololá	1	Sololá	2	Febrero	2023-02-21T00:00:00	2024-11-08T09:00:00	2	Temperatura media	17.7
7794	7	Sololá	701	Sololá	1	Sololá	2	Febrero	2023-02-21T00:00:00	2024-11-08T09:00:00	4	Temperatura máxima	17.7
7795	7	Sololá	701	Sololá	1	Sololá	2	Febrero	2023-02-21T00:00:00	2024-11-08T09:00:00	3	Temperatura mínima	13.2
7796	7	Sololá	701	Sololá	1	Sololá	2	Febrero	2023-02-21T00:00:00	2024-11-08T09:00:00	5	Humedad	66
7797	7	Sololá	701	Sololá	1	Sololá	2	Febrero	2023-02-21T00:00:00	2024-11-08T09:00:00	6	Velocidad del viento	0
7798	7	Sololá	701	Sololá	1	Sololá	2	Febrero	2023-02-21T00:00:00	2024-11-08T09:00:00	7	Dirección del viento	0
7799	7	Sololá	701	Sololá	1	Sololá	2	Febrero	2023-02-21T00:00:00	2024-11-08T09:00:00	1	Precipitación	0
7800	7	Sololá	701	Sololá	1	Sololá	2	Febrero	2023-02-21T00:00:00	2024-11-08T09:00:00	8	Radiación solar	302
7801	7	Sololá	701	Sololá	1	Sololá	2	Febrero	2023-02-21T00:00:00	2024-11-08T10:00:00	2	Temperatura media	19.9
7802	7	Sololá	701	Sololá	1	Sololá	2	Febrero	2023-02-21T00:00:00	2024-11-08T10:00:00	4	Temperatura máxima	20
7803	7	Sololá	701	Sololá	1	Sololá	2	Febrero	2023-02-21T00:00:00	2024-11-08T10:00:00	3	Temperatura mínima	17.7
7804	7	Sololá	701	Sololá	1	Sololá	2	Febrero	2023-02-21T00:00:00	2024-11-08T10:00:00	5	Humedad	59
7805	7	Sololá	701	Sololá	1	Sololá	2	Febrero	2023-02-21T00:00:00	2024-11-08T10:00:00	6	Velocidad del viento	0
7806	7	Sololá	701	Sololá	1	Sololá	2	Febrero	2023-02-21T00:00:00	2024-11-08T10:00:00	7	Dirección del viento	0
7807	7	Sololá	701	Sololá	1	Sololá	2	Febrero	2023-02-21T00:00:00	2024-11-08T10:00:00	1	Precipitación	0
7808	7	Sololá	701	Sololá	1	Sololá	2	Febrero	2023-02-21T00:00:00	2024-11-08T10:00:00	8	Radiación solar	630
7809	7	Sololá	701	Sololá	1	Sololá	2	Febrero	2023-02-21T00:00:00	2024-11-08T11:00:00	2	Temperatura media	21.1
7810	7	Sololá	701	Sololá	1	Sololá	2	Febrero	2023-02-21T00:00:00	2024-11-08T11:00:00	4	Temperatura máxima	21.2
7811	7	Sololá	701	Sololá	1	Sololá	2	Febrero	2023-02-21T00:00:00	2024-11-08T11:00:00	3	Temperatura mínima	19.9
7812	7	Sololá	701	Sololá	1	Sololá	2	Febrero	2023-02-21T00:00:00	2024-11-08T11:00:00	5	Humedad	55
7813	7	Sololá	701	Sololá	1	Sololá	2	Febrero	2023-02-21T00:00:00	2024-11-08T11:00:00	6	Velocidad del viento	0
7814	7	Sololá	701	Sololá	1	Sololá	2	Febrero	2023-02-21T00:00:00	2024-11-08T11:00:00	7	Dirección del viento	0
7815	7	Sololá	701	Sololá	1	Sololá	2	Febrero	2023-02-21T00:00:00	2024-11-08T11:00:00	1	Precipitación	0
7816	7	Sololá	701	Sololá	1	Sololá	2	Febrero	2023-02-21T00:00:00	2024-11-08T11:00:00	8	Radiación solar	848
7817	7	Sololá	701	Sololá	1	Sololá	2	Febrero	2023-02-21T00:00:00	2024-11-08T12:00:00	2	Temperatura media	21.9
7818	7	Sololá	701	Sololá	1	Sololá	2	Febrero	2023-02-21T00:00:00	2024-11-08T12:00:00	4	Temperatura máxima	21.9
7819	7	Sololá	701	Sololá	1	Sololá	2	Febrero	2023-02-21T00:00:00	2024-11-08T12:00:00	3	Temperatura mínima	20.8
7820	7	Sololá	701	Sololá	1	Sololá	2	Febrero	2023-02-21T00:00:00	2024-11-08T12:00:00	5	Humedad	53
7821	7	Sololá	701	Sololá	1	Sololá	2	Febrero	2023-02-21T00:00:00	2024-11-08T12:00:00	6	Velocidad del viento	0
7822	7	Sololá	701	Sololá	1	Sololá	2	Febrero	2023-02-21T00:00:00	2024-11-08T12:00:00	7	Dirección del viento	0
7823	7	Sololá	701	Sololá	1	Sololá	2	Febrero	2023-02-21T00:00:00	2024-11-08T12:00:00	1	Precipitación	0
7824	7	Sololá	701	Sololá	1	Sololá	2	Febrero	2023-02-21T00:00:00	2024-11-08T12:00:00	8	Radiación solar	906
7825	7	Sololá	701	Sololá	1	Sololá	2	Febrero	2023-02-21T00:00:00	2024-11-08T13:00:00	2	Temperatura media	22.9
7826	7	Sololá	701	Sololá	1	Sololá	2	Febrero	2023-02-21T00:00:00	2024-11-08T13:00:00	4	Temperatura máxima	23.2
7827	7	Sololá	701	Sololá	1	Sololá	2	Febrero	2023-02-21T00:00:00	2024-11-08T13:00:00	3	Temperatura mínima	21.9
7828	7	Sololá	701	Sololá	1	Sololá	2	Febrero	2023-02-21T00:00:00	2024-11-08T13:00:00	5	Humedad	49
7829	7	Sololá	701	Sololá	1	Sololá	2	Febrero	2023-02-21T00:00:00	2024-11-08T13:00:00	6	Velocidad del viento	0
7830	7	Sololá	701	Sololá	1	Sololá	2	Febrero	2023-02-21T00:00:00	2024-11-08T13:00:00	7	Dirección del viento	0
7831	7	Sololá	701	Sololá	1	Sololá	2	Febrero	2023-02-21T00:00:00	2024-11-08T13:00:00	1	Precipitación	0
7832	7	Sololá	701	Sololá	1	Sololá	2	Febrero	2023-02-21T00:00:00	2024-11-08T13:00:00	8	Radiación solar	904
7833	7	Sololá	701	Sololá	1	Sololá	2	Febrero	2023-02-21T00:00:00	2024-11-08T14:00:00	2	Temperatura media	21.3
7834	7	Sololá	701	Sololá	1	Sololá	2	Febrero	2023-02-21T00:00:00	2024-11-08T14:00:00	4	Temperatura máxima	23.3
7835	7	Sololá	701	Sololá	1	Sololá	2	Febrero	2023-02-21T00:00:00	2024-11-08T14:00:00	3	Temperatura mínima	21.3
7836	7	Sololá	701	Sololá	1	Sololá	2	Febrero	2023-02-21T00:00:00	2024-11-08T14:00:00	5	Humedad	61
7837	7	Sololá	701	Sololá	1	Sololá	2	Febrero	2023-02-21T00:00:00	2024-11-08T14:00:00	6	Velocidad del viento	0
7838	7	Sololá	701	Sololá	1	Sololá	2	Febrero	2023-02-21T00:00:00	2024-11-08T14:00:00	7	Dirección del viento	0
7839	7	Sololá	701	Sololá	1	Sololá	2	Febrero	2023-02-21T00:00:00	2024-11-08T14:00:00	1	Precipitación	0
7840	7	Sololá	701	Sololá	1	Sololá	2	Febrero	2023-02-21T00:00:00	2024-11-08T14:00:00	8	Radiación solar	665
7841	7	Sololá	701	Sololá	1	Sololá	2	Febrero	2023-02-21T00:00:00	2024-11-08T15:00:00	2	Temperatura media	20.6
7842	7	Sololá	701	Sololá	1	Sololá	2	Febrero	2023-02-21T00:00:00	2024-11-08T15:00:00	4	Temperatura máxima	21.3
7843	7	Sololá	701	Sololá	1	Sololá	2	Febrero	2023-02-21T00:00:00	2024-11-08T15:00:00	3	Temperatura mínima	20.2
7844	7	Sololá	701	Sololá	1	Sololá	2	Febrero	2023-02-21T00:00:00	2024-11-08T15:00:00	5	Humedad	65
7845	7	Sololá	701	Sololá	1	Sololá	2	Febrero	2023-02-21T00:00:00	2024-11-08T15:00:00	6	Velocidad del viento	0
7846	7	Sololá	701	Sololá	1	Sololá	2	Febrero	2023-02-21T00:00:00	2024-11-08T15:00:00	7	Dirección del viento	0
7847	7	Sololá	701	Sololá	1	Sololá	2	Febrero	2023-02-21T00:00:00	2024-11-08T15:00:00	1	Precipitación	0
7848	7	Sololá	701	Sololá	1	Sololá	2	Febrero	2023-02-21T00:00:00	2024-11-08T15:00:00	8	Radiación solar	284
7849	7	Sololá	701	Sololá	1	Sololá	2	Febrero	2023-02-21T00:00:00	2024-11-08T16:00:00	2	Temperatura media	20.3
7850	7	Sololá	701	Sololá	1	Sololá	2	Febrero	2023-02-21T00:00:00	2024-11-08T16:00:00	4	Temperatura máxima	20.8
7851	7	Sololá	701	Sololá	1	Sololá	2	Febrero	2023-02-21T00:00:00	2024-11-08T16:00:00	3	Temperatura mínima	20.3
7852	7	Sololá	701	Sololá	1	Sololá	2	Febrero	2023-02-21T00:00:00	2024-11-08T16:00:00	5	Humedad	65
7853	7	Sololá	701	Sololá	1	Sololá	2	Febrero	2023-02-21T00:00:00	2024-11-08T16:00:00	6	Velocidad del viento	0
7854	7	Sololá	701	Sololá	1	Sololá	2	Febrero	2023-02-21T00:00:00	2024-11-08T16:00:00	7	Dirección del viento	0
7855	7	Sololá	701	Sololá	1	Sololá	2	Febrero	2023-02-21T00:00:00	2024-11-08T16:00:00	1	Precipitación	0
7856	7	Sololá	701	Sololá	1	Sololá	2	Febrero	2023-02-21T00:00:00	2024-11-08T16:00:00	8	Radiación solar	129
7857	7	Sololá	701	Sololá	1	Sololá	2	Febrero	2023-02-21T00:00:00	2024-11-08T17:00:00	2	Temperatura media	19.2
7858	7	Sololá	701	Sololá	1	Sololá	2	Febrero	2023-02-21T00:00:00	2024-11-08T17:00:00	4	Temperatura máxima	20.3
7859	7	Sololá	701	Sololá	1	Sololá	2	Febrero	2023-02-21T00:00:00	2024-11-08T17:00:00	3	Temperatura mínima	19.2
7860	7	Sololá	701	Sololá	1	Sololá	2	Febrero	2023-02-21T00:00:00	2024-11-08T17:00:00	5	Humedad	71
7861	7	Sololá	701	Sololá	1	Sololá	2	Febrero	2023-02-21T00:00:00	2024-11-08T17:00:00	6	Velocidad del viento	0
7862	7	Sololá	701	Sololá	1	Sololá	2	Febrero	2023-02-21T00:00:00	2024-11-08T17:00:00	7	Dirección del viento	0
7863	7	Sololá	701	Sololá	1	Sololá	2	Febrero	2023-02-21T00:00:00	2024-11-08T17:00:00	1	Precipitación	0
7864	7	Sololá	701	Sololá	1	Sololá	2	Febrero	2023-02-21T00:00:00	2024-11-08T17:00:00	8	Radiación solar	71
7865	7	Sololá	701	Sololá	1	Sololá	2	Febrero	2023-02-21T00:00:00	2024-11-08T18:00:00	2	Temperatura media	17
7866	7	Sololá	701	Sololá	1	Sololá	2	Febrero	2023-02-21T00:00:00	2024-11-08T18:00:00	4	Temperatura máxima	19.2
7867	7	Sololá	701	Sololá	1	Sololá	2	Febrero	2023-02-21T00:00:00	2024-11-08T18:00:00	3	Temperatura mínima	16.9
7868	7	Sololá	701	Sololá	1	Sololá	2	Febrero	2023-02-21T00:00:00	2024-11-08T18:00:00	5	Humedad	84
7869	7	Sololá	701	Sololá	1	Sololá	2	Febrero	2023-02-21T00:00:00	2024-11-08T18:00:00	6	Velocidad del viento	0
7870	7	Sololá	701	Sololá	1	Sololá	2	Febrero	2023-02-21T00:00:00	2024-11-08T18:00:00	7	Dirección del viento	0
7871	7	Sololá	701	Sololá	1	Sololá	2	Febrero	2023-02-21T00:00:00	2024-11-08T18:00:00	1	Precipitación	0
7872	7	Sololá	701	Sololá	1	Sololá	2	Febrero	2023-02-21T00:00:00	2024-11-08T18:00:00	8	Radiación solar	43
7873	7	Sololá	701	Sololá	1	Sololá	2	Febrero	2023-02-21T00:00:00	2024-11-08T19:00:00	2	Temperatura media	15.6
7874	7	Sololá	701	Sololá	1	Sololá	2	Febrero	2023-02-21T00:00:00	2024-11-08T19:00:00	4	Temperatura máxima	16.9
7875	7	Sololá	701	Sololá	1	Sololá	2	Febrero	2023-02-21T00:00:00	2024-11-08T19:00:00	3	Temperatura mínima	15.6
7876	7	Sololá	701	Sololá	1	Sololá	2	Febrero	2023-02-21T00:00:00	2024-11-08T19:00:00	5	Humedad	90
7877	7	Sololá	701	Sololá	1	Sololá	2	Febrero	2023-02-21T00:00:00	2024-11-08T19:00:00	6	Velocidad del viento	0
7878	7	Sololá	701	Sololá	1	Sololá	2	Febrero	2023-02-21T00:00:00	2024-11-08T19:00:00	7	Dirección del viento	0
7879	7	Sololá	701	Sololá	1	Sololá	2	Febrero	2023-02-21T00:00:00	2024-11-08T19:00:00	1	Precipitación	0
7880	7	Sololá	701	Sololá	1	Sololá	2	Febrero	2023-02-21T00:00:00	2024-11-08T19:00:00	8	Radiación solar	0
7881	7	Sololá	701	Sololá	1	Sololá	2	Febrero	2023-02-21T00:00:00	2024-11-08T20:00:00	2	Temperatura media	15.1
7882	7	Sololá	701	Sololá	1	Sololá	2	Febrero	2023-02-21T00:00:00	2024-11-08T20:00:00	4	Temperatura máxima	15.6
7883	7	Sololá	701	Sololá	1	Sololá	2	Febrero	2023-02-21T00:00:00	2024-11-08T20:00:00	3	Temperatura mínima	15.1
7884	7	Sololá	701	Sololá	1	Sololá	2	Febrero	2023-02-21T00:00:00	2024-11-08T20:00:00	5	Humedad	90
7885	7	Sololá	701	Sololá	1	Sololá	2	Febrero	2023-02-21T00:00:00	2024-11-08T20:00:00	6	Velocidad del viento	0
7886	7	Sololá	701	Sololá	1	Sololá	2	Febrero	2023-02-21T00:00:00	2024-11-08T20:00:00	7	Dirección del viento	0
7887	7	Sololá	701	Sololá	1	Sololá	2	Febrero	2023-02-21T00:00:00	2024-11-08T20:00:00	1	Precipitación	0
7888	7	Sololá	701	Sololá	1	Sololá	2	Febrero	2023-02-21T00:00:00	2024-11-08T20:00:00	8	Radiación solar	0
7889	7	Sololá	701	Sololá	1	Sololá	2	Febrero	2023-02-21T00:00:00	2024-11-08T21:00:00	2	Temperatura media	13.8
7890	7	Sololá	701	Sololá	1	Sololá	2	Febrero	2023-02-21T00:00:00	2024-11-08T21:00:00	4	Temperatura máxima	15.1
7891	7	Sololá	701	Sololá	1	Sololá	2	Febrero	2023-02-21T00:00:00	2024-11-08T21:00:00	3	Temperatura mínima	13.8
7892	7	Sololá	701	Sololá	1	Sololá	2	Febrero	2023-02-21T00:00:00	2024-11-08T21:00:00	5	Humedad	87
7893	7	Sololá	701	Sololá	1	Sololá	2	Febrero	2023-02-21T00:00:00	2024-11-08T21:00:00	6	Velocidad del viento	0
7894	7	Sololá	701	Sololá	1	Sololá	2	Febrero	2023-02-21T00:00:00	2024-11-08T21:00:00	7	Dirección del viento	0
7895	7	Sololá	701	Sololá	1	Sololá	2	Febrero	2023-02-21T00:00:00	2024-11-08T21:00:00	1	Precipitación	0
7896	7	Sololá	701	Sololá	1	Sololá	2	Febrero	2023-02-21T00:00:00	2024-11-08T21:00:00	8	Radiación solar	0
7897	7	Sololá	701	Sololá	1	Sololá	2	Febrero	2023-02-21T00:00:00	2024-11-08T22:00:00	2	Temperatura media	13.2
7898	7	Sololá	701	Sololá	1	Sololá	2	Febrero	2023-02-21T00:00:00	2024-11-08T22:00:00	4	Temperatura máxima	13.8
7899	7	Sololá	701	Sololá	1	Sololá	2	Febrero	2023-02-21T00:00:00	2024-11-08T22:00:00	3	Temperatura mínima	13.2
7900	7	Sololá	701	Sololá	1	Sololá	2	Febrero	2023-02-21T00:00:00	2024-11-08T22:00:00	5	Humedad	85
7901	7	Sololá	701	Sololá	1	Sololá	2	Febrero	2023-02-21T00:00:00	2024-11-08T22:00:00	6	Velocidad del viento	0
7902	7	Sololá	701	Sololá	1	Sololá	2	Febrero	2023-02-21T00:00:00	2024-11-08T22:00:00	7	Dirección del viento	0
7903	7	Sololá	701	Sololá	1	Sololá	2	Febrero	2023-02-21T00:00:00	2024-11-08T22:00:00	1	Precipitación	0
7904	7	Sololá	701	Sololá	1	Sololá	2	Febrero	2023-02-21T00:00:00	2024-11-08T22:00:00	8	Radiación solar	0
7905	7	Sololá	701	Sololá	1	Sololá	2	Febrero	2023-02-21T00:00:00	2024-11-08T23:00:00	2	Temperatura media	13
7906	7	Sololá	701	Sololá	1	Sololá	2	Febrero	2023-02-21T00:00:00	2024-11-08T23:00:00	4	Temperatura máxima	13.3
7907	7	Sololá	701	Sololá	1	Sololá	2	Febrero	2023-02-21T00:00:00	2024-11-08T23:00:00	3	Temperatura mínima	13
7908	7	Sololá	701	Sololá	1	Sololá	2	Febrero	2023-02-21T00:00:00	2024-11-08T23:00:00	5	Humedad	84
7909	7	Sololá	701	Sololá	1	Sololá	2	Febrero	2023-02-21T00:00:00	2024-11-08T23:00:00	6	Velocidad del viento	0
7910	7	Sololá	701	Sololá	1	Sololá	2	Febrero	2023-02-21T00:00:00	2024-11-08T23:00:00	7	Dirección del viento	0
7911	7	Sololá	701	Sololá	1	Sololá	2	Febrero	2023-02-21T00:00:00	2024-11-08T23:00:00	1	Precipitación	0
7912	7	Sololá	701	Sololá	1	Sololá	2	Febrero	2023-02-21T00:00:00	2024-11-08T23:00:00	8	Radiación solar	0
7913	7	Sololá	701	Sololá	1	Sololá	2	Febrero	2023-02-22T00:00:00	2024-11-08T00:00:00	2	Temperatura media	13.3
7914	7	Sololá	701	Sololá	1	Sololá	2	Febrero	2023-02-22T00:00:00	2024-11-08T00:00:00	4	Temperatura máxima	13.3
7915	7	Sololá	701	Sololá	1	Sololá	2	Febrero	2023-02-22T00:00:00	2024-11-08T00:00:00	3	Temperatura mínima	12.8
7916	7	Sololá	701	Sololá	1	Sololá	2	Febrero	2023-02-22T00:00:00	2024-11-08T00:00:00	5	Humedad	85
7917	7	Sololá	701	Sololá	1	Sololá	2	Febrero	2023-02-22T00:00:00	2024-11-08T00:00:00	6	Velocidad del viento	0
7918	7	Sololá	701	Sololá	1	Sololá	2	Febrero	2023-02-22T00:00:00	2024-11-08T00:00:00	7	Dirección del viento	0
7919	7	Sololá	701	Sololá	1	Sololá	2	Febrero	2023-02-22T00:00:00	2024-11-08T00:00:00	1	Precipitación	0
7920	7	Sololá	701	Sololá	1	Sololá	2	Febrero	2023-02-22T00:00:00	2024-11-08T00:00:00	8	Radiación solar	0
7921	7	Sololá	701	Sololá	1	Sololá	2	Febrero	2023-02-22T00:00:00	2024-11-08T01:00:00	2	Temperatura media	13.3
7922	7	Sololá	701	Sololá	1	Sololá	2	Febrero	2023-02-22T00:00:00	2024-11-08T01:00:00	4	Temperatura máxima	13.5
7923	7	Sololá	701	Sololá	1	Sololá	2	Febrero	2023-02-22T00:00:00	2024-11-08T01:00:00	3	Temperatura mínima	13.3
7924	7	Sololá	701	Sololá	1	Sololá	2	Febrero	2023-02-22T00:00:00	2024-11-08T01:00:00	5	Humedad	87
7925	7	Sololá	701	Sololá	1	Sololá	2	Febrero	2023-02-22T00:00:00	2024-11-08T01:00:00	6	Velocidad del viento	0
7926	7	Sololá	701	Sololá	1	Sololá	2	Febrero	2023-02-22T00:00:00	2024-11-08T01:00:00	7	Dirección del viento	0
7927	7	Sololá	701	Sololá	1	Sololá	2	Febrero	2023-02-22T00:00:00	2024-11-08T01:00:00	1	Precipitación	0
7928	7	Sololá	701	Sololá	1	Sololá	2	Febrero	2023-02-22T00:00:00	2024-11-08T01:00:00	8	Radiación solar	0
7929	7	Sololá	701	Sololá	1	Sololá	2	Febrero	2023-02-22T00:00:00	2024-11-08T02:00:00	2	Temperatura media	13.4
7930	7	Sololá	701	Sololá	1	Sololá	2	Febrero	2023-02-22T00:00:00	2024-11-08T02:00:00	4	Temperatura máxima	13.4
7931	7	Sololá	701	Sololá	1	Sololá	2	Febrero	2023-02-22T00:00:00	2024-11-08T02:00:00	3	Temperatura mínima	13.2
7932	7	Sololá	701	Sololá	1	Sololá	2	Febrero	2023-02-22T00:00:00	2024-11-08T02:00:00	5	Humedad	86
7933	7	Sololá	701	Sololá	1	Sololá	2	Febrero	2023-02-22T00:00:00	2024-11-08T02:00:00	6	Velocidad del viento	0
7934	7	Sololá	701	Sololá	1	Sololá	2	Febrero	2023-02-22T00:00:00	2024-11-08T02:00:00	7	Dirección del viento	0
7935	7	Sololá	701	Sololá	1	Sololá	2	Febrero	2023-02-22T00:00:00	2024-11-08T02:00:00	1	Precipitación	0
7936	7	Sololá	701	Sololá	1	Sololá	2	Febrero	2023-02-22T00:00:00	2024-11-08T02:00:00	8	Radiación solar	0
7937	7	Sololá	701	Sololá	1	Sololá	2	Febrero	2023-02-22T00:00:00	2024-11-08T03:00:00	2	Temperatura media	13.7
7938	7	Sololá	701	Sololá	1	Sololá	2	Febrero	2023-02-22T00:00:00	2024-11-08T03:00:00	4	Temperatura máxima	13.8
7939	7	Sololá	701	Sololá	1	Sololá	2	Febrero	2023-02-22T00:00:00	2024-11-08T03:00:00	3	Temperatura mínima	13.4
7940	7	Sololá	701	Sololá	1	Sololá	2	Febrero	2023-02-22T00:00:00	2024-11-08T03:00:00	5	Humedad	90
7941	7	Sololá	701	Sololá	1	Sololá	2	Febrero	2023-02-22T00:00:00	2024-11-08T03:00:00	6	Velocidad del viento	0
7942	7	Sololá	701	Sololá	1	Sololá	2	Febrero	2023-02-22T00:00:00	2024-11-08T03:00:00	7	Dirección del viento	0
7943	7	Sololá	701	Sololá	1	Sololá	2	Febrero	2023-02-22T00:00:00	2024-11-08T03:00:00	1	Precipitación	0
7944	7	Sololá	701	Sololá	1	Sololá	2	Febrero	2023-02-22T00:00:00	2024-11-08T03:00:00	8	Radiación solar	0
7945	7	Sololá	701	Sololá	1	Sololá	2	Febrero	2023-02-22T00:00:00	2024-11-08T04:00:00	2	Temperatura media	13.5
7946	7	Sololá	701	Sololá	1	Sololá	2	Febrero	2023-02-22T00:00:00	2024-11-08T04:00:00	4	Temperatura máxima	13.8
7947	7	Sololá	701	Sololá	1	Sololá	2	Febrero	2023-02-22T00:00:00	2024-11-08T04:00:00	3	Temperatura mínima	13.5
7948	7	Sololá	701	Sololá	1	Sololá	2	Febrero	2023-02-22T00:00:00	2024-11-08T04:00:00	5	Humedad	92
7949	7	Sololá	701	Sololá	1	Sololá	2	Febrero	2023-02-22T00:00:00	2024-11-08T04:00:00	6	Velocidad del viento	0
7950	7	Sololá	701	Sololá	1	Sololá	2	Febrero	2023-02-22T00:00:00	2024-11-08T04:00:00	7	Dirección del viento	0
7951	7	Sololá	701	Sololá	1	Sololá	2	Febrero	2023-02-22T00:00:00	2024-11-08T04:00:00	1	Precipitación	0
7952	7	Sololá	701	Sololá	1	Sololá	2	Febrero	2023-02-22T00:00:00	2024-11-08T04:00:00	8	Radiación solar	0
7953	7	Sololá	701	Sololá	1	Sololá	2	Febrero	2023-02-22T00:00:00	2024-11-08T05:00:00	2	Temperatura media	12.9
7954	7	Sololá	701	Sololá	1	Sololá	2	Febrero	2023-02-22T00:00:00	2024-11-08T05:00:00	4	Temperatura máxima	13.6
7955	7	Sololá	701	Sololá	1	Sololá	2	Febrero	2023-02-22T00:00:00	2024-11-08T05:00:00	3	Temperatura mínima	12.9
7956	7	Sololá	701	Sololá	1	Sololá	2	Febrero	2023-02-22T00:00:00	2024-11-08T05:00:00	5	Humedad	94
7957	7	Sololá	701	Sololá	1	Sololá	2	Febrero	2023-02-22T00:00:00	2024-11-08T05:00:00	6	Velocidad del viento	0
7958	7	Sololá	701	Sololá	1	Sololá	2	Febrero	2023-02-22T00:00:00	2024-11-08T05:00:00	7	Dirección del viento	0
7959	7	Sololá	701	Sololá	1	Sololá	2	Febrero	2023-02-22T00:00:00	2024-11-08T05:00:00	1	Precipitación	0
7960	7	Sololá	701	Sololá	1	Sololá	2	Febrero	2023-02-22T00:00:00	2024-11-08T05:00:00	8	Radiación solar	0
7961	7	Sololá	701	Sololá	1	Sololá	2	Febrero	2023-02-22T00:00:00	2024-11-08T06:00:00	2	Temperatura media	12.8
7962	7	Sololá	701	Sololá	1	Sololá	2	Febrero	2023-02-22T00:00:00	2024-11-08T06:00:00	4	Temperatura máxima	13
7963	7	Sololá	701	Sololá	1	Sololá	2	Febrero	2023-02-22T00:00:00	2024-11-08T06:00:00	3	Temperatura mínima	12.7
7964	7	Sololá	701	Sololá	1	Sololá	2	Febrero	2023-02-22T00:00:00	2024-11-08T06:00:00	5	Humedad	92
7965	7	Sololá	701	Sololá	1	Sololá	2	Febrero	2023-02-22T00:00:00	2024-11-08T06:00:00	6	Velocidad del viento	0
7966	7	Sololá	701	Sololá	1	Sololá	2	Febrero	2023-02-22T00:00:00	2024-11-08T06:00:00	7	Dirección del viento	0
7967	7	Sololá	701	Sololá	1	Sololá	2	Febrero	2023-02-22T00:00:00	2024-11-08T06:00:00	1	Precipitación	0
7968	7	Sololá	701	Sololá	1	Sololá	2	Febrero	2023-02-22T00:00:00	2024-11-08T06:00:00	8	Radiación solar	0
7969	7	Sololá	701	Sololá	1	Sololá	2	Febrero	2023-02-22T00:00:00	2024-11-08T07:00:00	2	Temperatura media	12.3
7970	7	Sololá	701	Sololá	1	Sololá	2	Febrero	2023-02-22T00:00:00	2024-11-08T07:00:00	4	Temperatura máxima	12.8
7971	7	Sololá	701	Sololá	1	Sololá	2	Febrero	2023-02-22T00:00:00	2024-11-08T07:00:00	3	Temperatura mínima	12.2
7972	7	Sololá	701	Sololá	1	Sololá	2	Febrero	2023-02-22T00:00:00	2024-11-08T07:00:00	5	Humedad	92
7973	7	Sololá	701	Sololá	1	Sololá	2	Febrero	2023-02-22T00:00:00	2024-11-08T07:00:00	6	Velocidad del viento	0
7974	7	Sololá	701	Sololá	1	Sololá	2	Febrero	2023-02-22T00:00:00	2024-11-08T07:00:00	7	Dirección del viento	0
7975	7	Sololá	701	Sololá	1	Sololá	2	Febrero	2023-02-22T00:00:00	2024-11-08T07:00:00	1	Precipitación	0
7976	7	Sololá	701	Sololá	1	Sololá	2	Febrero	2023-02-22T00:00:00	2024-11-08T07:00:00	8	Radiación solar	16
7977	7	Sololá	701	Sololá	1	Sololá	2	Febrero	2023-02-22T00:00:00	2024-11-08T08:00:00	2	Temperatura media	14.3
7978	7	Sololá	701	Sololá	1	Sololá	2	Febrero	2023-02-22T00:00:00	2024-11-08T08:00:00	4	Temperatura máxima	14.3
7979	7	Sololá	701	Sololá	1	Sololá	2	Febrero	2023-02-22T00:00:00	2024-11-08T08:00:00	3	Temperatura mínima	12.3
7980	7	Sololá	701	Sololá	1	Sololá	2	Febrero	2023-02-22T00:00:00	2024-11-08T08:00:00	5	Humedad	87
7981	7	Sololá	701	Sololá	1	Sololá	2	Febrero	2023-02-22T00:00:00	2024-11-08T08:00:00	6	Velocidad del viento	0
7982	7	Sololá	701	Sololá	1	Sololá	2	Febrero	2023-02-22T00:00:00	2024-11-08T08:00:00	7	Dirección del viento	0
7983	7	Sololá	701	Sololá	1	Sololá	2	Febrero	2023-02-22T00:00:00	2024-11-08T08:00:00	1	Precipitación	0
7984	7	Sololá	701	Sololá	1	Sololá	2	Febrero	2023-02-22T00:00:00	2024-11-08T08:00:00	8	Radiación solar	79
7985	7	Sololá	701	Sololá	1	Sololá	2	Febrero	2023-02-22T00:00:00	2024-11-08T09:00:00	2	Temperatura media	16.4
7986	7	Sololá	701	Sololá	1	Sololá	2	Febrero	2023-02-22T00:00:00	2024-11-08T09:00:00	4	Temperatura máxima	16.4
7987	7	Sololá	701	Sololá	1	Sololá	2	Febrero	2023-02-22T00:00:00	2024-11-08T09:00:00	3	Temperatura mínima	14.3
7988	7	Sololá	701	Sololá	1	Sololá	2	Febrero	2023-02-22T00:00:00	2024-11-08T09:00:00	5	Humedad	81
7989	7	Sololá	701	Sololá	1	Sololá	2	Febrero	2023-02-22T00:00:00	2024-11-08T09:00:00	6	Velocidad del viento	0
7990	7	Sololá	701	Sololá	1	Sololá	2	Febrero	2023-02-22T00:00:00	2024-11-08T09:00:00	7	Dirección del viento	0
7991	7	Sololá	701	Sololá	1	Sololá	2	Febrero	2023-02-22T00:00:00	2024-11-08T09:00:00	1	Precipitación	0
7992	7	Sololá	701	Sololá	1	Sololá	2	Febrero	2023-02-22T00:00:00	2024-11-08T09:00:00	8	Radiación solar	234
7993	7	Sololá	701	Sololá	1	Sololá	2	Febrero	2023-02-22T00:00:00	2024-11-08T10:00:00	2	Temperatura media	19.3
7994	7	Sololá	701	Sololá	1	Sololá	2	Febrero	2023-02-22T00:00:00	2024-11-08T10:00:00	4	Temperatura máxima	19.6
7995	7	Sololá	701	Sololá	1	Sololá	2	Febrero	2023-02-22T00:00:00	2024-11-08T10:00:00	3	Temperatura mínima	16.4
7996	7	Sololá	701	Sololá	1	Sololá	2	Febrero	2023-02-22T00:00:00	2024-11-08T10:00:00	5	Humedad	74
7997	7	Sololá	701	Sololá	1	Sololá	2	Febrero	2023-02-22T00:00:00	2024-11-08T10:00:00	6	Velocidad del viento	0
7998	7	Sololá	701	Sololá	1	Sololá	2	Febrero	2023-02-22T00:00:00	2024-11-08T10:00:00	7	Dirección del viento	0
7999	7	Sololá	701	Sololá	1	Sololá	2	Febrero	2023-02-22T00:00:00	2024-11-08T10:00:00	1	Precipitación	0
8000	7	Sololá	701	Sololá	1	Sololá	2	Febrero	2023-02-22T00:00:00	2024-11-08T10:00:00	8	Radiación solar	667
8001	7	Sololá	701	Sololá	1	Sololá	2	Febrero	2023-02-22T00:00:00	2024-11-08T11:00:00	2	Temperatura media	20.3
8002	7	Sololá	701	Sololá	1	Sololá	2	Febrero	2023-02-22T00:00:00	2024-11-08T11:00:00	4	Temperatura máxima	20.3
8003	7	Sololá	701	Sololá	1	Sololá	2	Febrero	2023-02-22T00:00:00	2024-11-08T11:00:00	3	Temperatura mínima	18.7
8004	7	Sololá	701	Sololá	1	Sololá	2	Febrero	2023-02-22T00:00:00	2024-11-08T11:00:00	5	Humedad	67
8005	7	Sololá	701	Sololá	1	Sololá	2	Febrero	2023-02-22T00:00:00	2024-11-08T11:00:00	6	Velocidad del viento	0
8006	7	Sololá	701	Sololá	1	Sololá	2	Febrero	2023-02-22T00:00:00	2024-11-08T11:00:00	7	Dirección del viento	0
8007	7	Sololá	701	Sololá	1	Sololá	2	Febrero	2023-02-22T00:00:00	2024-11-08T11:00:00	1	Precipitación	0
8008	7	Sololá	701	Sololá	1	Sololá	2	Febrero	2023-02-22T00:00:00	2024-11-08T11:00:00	8	Radiación solar	883
8009	7	Sololá	701	Sololá	1	Sololá	2	Febrero	2023-02-22T00:00:00	2024-11-08T12:00:00	2	Temperatura media	21.4
8010	7	Sololá	701	Sololá	1	Sololá	2	Febrero	2023-02-22T00:00:00	2024-11-08T12:00:00	4	Temperatura máxima	21.5
8011	7	Sololá	701	Sololá	1	Sololá	2	Febrero	2023-02-22T00:00:00	2024-11-08T12:00:00	3	Temperatura mínima	20.3
8012	7	Sololá	701	Sololá	1	Sololá	2	Febrero	2023-02-22T00:00:00	2024-11-08T12:00:00	5	Humedad	60
8013	7	Sololá	701	Sololá	1	Sololá	2	Febrero	2023-02-22T00:00:00	2024-11-08T12:00:00	6	Velocidad del viento	0
8014	7	Sololá	701	Sololá	1	Sololá	2	Febrero	2023-02-22T00:00:00	2024-11-08T12:00:00	7	Dirección del viento	0
8015	7	Sololá	701	Sololá	1	Sololá	2	Febrero	2023-02-22T00:00:00	2024-11-08T12:00:00	1	Precipitación	0
8016	7	Sololá	701	Sololá	1	Sololá	2	Febrero	2023-02-22T00:00:00	2024-11-08T12:00:00	8	Radiación solar	986
8017	7	Sololá	701	Sololá	1	Sololá	2	Febrero	2023-02-22T00:00:00	2024-11-08T13:00:00	2	Temperatura media	21.4
8018	7	Sololá	701	Sololá	1	Sololá	2	Febrero	2023-02-22T00:00:00	2024-11-08T13:00:00	4	Temperatura máxima	21.6
8019	7	Sololá	701	Sololá	1	Sololá	2	Febrero	2023-02-22T00:00:00	2024-11-08T13:00:00	3	Temperatura mínima	21.2
8020	7	Sololá	701	Sololá	1	Sololá	2	Febrero	2023-02-22T00:00:00	2024-11-08T13:00:00	5	Humedad	63
8021	7	Sololá	701	Sololá	1	Sololá	2	Febrero	2023-02-22T00:00:00	2024-11-08T13:00:00	6	Velocidad del viento	0
8022	7	Sololá	701	Sololá	1	Sololá	2	Febrero	2023-02-22T00:00:00	2024-11-08T13:00:00	7	Dirección del viento	0
8023	7	Sololá	701	Sololá	1	Sololá	2	Febrero	2023-02-22T00:00:00	2024-11-08T13:00:00	1	Precipitación	0
8024	7	Sololá	701	Sololá	1	Sololá	2	Febrero	2023-02-22T00:00:00	2024-11-08T13:00:00	8	Radiación solar	871
8025	7	Sololá	701	Sololá	1	Sololá	2	Febrero	2023-02-22T00:00:00	2024-11-08T14:00:00	2	Temperatura media	20.9
8026	7	Sololá	701	Sololá	1	Sololá	2	Febrero	2023-02-22T00:00:00	2024-11-08T14:00:00	4	Temperatura máxima	21.6
8027	7	Sololá	701	Sololá	1	Sololá	2	Febrero	2023-02-22T00:00:00	2024-11-08T14:00:00	3	Temperatura mínima	20.7
8028	7	Sololá	701	Sololá	1	Sololá	2	Febrero	2023-02-22T00:00:00	2024-11-08T14:00:00	5	Humedad	63
8029	7	Sololá	701	Sololá	1	Sololá	2	Febrero	2023-02-22T00:00:00	2024-11-08T14:00:00	6	Velocidad del viento	1.6
8030	7	Sololá	701	Sololá	1	Sololá	2	Febrero	2023-02-22T00:00:00	2024-11-08T14:00:00	7	Dirección del viento	1.61
8031	7	Sololá	701	Sololá	1	Sololá	2	Febrero	2023-02-22T00:00:00	2024-11-08T14:00:00	1	Precipitación	0
8032	7	Sololá	701	Sololá	1	Sololá	2	Febrero	2023-02-22T00:00:00	2024-11-08T14:00:00	8	Radiación solar	706
8033	7	Sololá	701	Sololá	1	Sololá	2	Febrero	2023-02-22T00:00:00	2024-11-08T15:00:00	2	Temperatura media	21.1
8034	7	Sololá	701	Sololá	1	Sololá	2	Febrero	2023-02-22T00:00:00	2024-11-08T15:00:00	4	Temperatura máxima	21.3
8035	7	Sololá	701	Sololá	1	Sololá	2	Febrero	2023-02-22T00:00:00	2024-11-08T15:00:00	3	Temperatura mínima	20.9
8036	7	Sololá	701	Sololá	1	Sololá	2	Febrero	2023-02-22T00:00:00	2024-11-08T15:00:00	5	Humedad	67
8037	7	Sololá	701	Sololá	1	Sololá	2	Febrero	2023-02-22T00:00:00	2024-11-08T15:00:00	6	Velocidad del viento	1.6
8038	7	Sololá	701	Sololá	1	Sololá	2	Febrero	2023-02-22T00:00:00	2024-11-08T15:00:00	7	Dirección del viento	1.61
8039	7	Sololá	701	Sololá	1	Sololá	2	Febrero	2023-02-22T00:00:00	2024-11-08T15:00:00	1	Precipitación	0
8040	7	Sololá	701	Sololá	1	Sololá	2	Febrero	2023-02-22T00:00:00	2024-11-08T15:00:00	8	Radiación solar	311
8041	7	Sololá	701	Sololá	1	Sololá	2	Febrero	2023-02-22T00:00:00	2024-11-08T16:00:00	2	Temperatura media	18.7
8042	7	Sololá	701	Sololá	1	Sololá	2	Febrero	2023-02-22T00:00:00	2024-11-08T16:00:00	4	Temperatura máxima	21.2
8043	7	Sololá	701	Sololá	1	Sololá	2	Febrero	2023-02-22T00:00:00	2024-11-08T16:00:00	3	Temperatura mínima	18.7
8044	7	Sololá	701	Sololá	1	Sololá	2	Febrero	2023-02-22T00:00:00	2024-11-08T16:00:00	5	Humedad	75
8045	7	Sololá	701	Sololá	1	Sololá	2	Febrero	2023-02-22T00:00:00	2024-11-08T16:00:00	6	Velocidad del viento	0
8046	7	Sololá	701	Sololá	1	Sololá	2	Febrero	2023-02-22T00:00:00	2024-11-08T16:00:00	7	Dirección del viento	0
8047	7	Sololá	701	Sololá	1	Sololá	2	Febrero	2023-02-22T00:00:00	2024-11-08T16:00:00	1	Precipitación	0
8048	7	Sololá	701	Sololá	1	Sololá	2	Febrero	2023-02-22T00:00:00	2024-11-08T16:00:00	8	Radiación solar	173
8049	7	Sololá	701	Sololá	1	Sololá	2	Febrero	2023-02-22T00:00:00	2024-11-08T17:00:00	2	Temperatura media	17.3
8050	7	Sololá	701	Sololá	1	Sololá	2	Febrero	2023-02-22T00:00:00	2024-11-08T17:00:00	4	Temperatura máxima	18.7
8051	7	Sololá	701	Sololá	1	Sololá	2	Febrero	2023-02-22T00:00:00	2024-11-08T17:00:00	3	Temperatura mínima	17.2
8052	7	Sololá	701	Sololá	1	Sololá	2	Febrero	2023-02-22T00:00:00	2024-11-08T17:00:00	5	Humedad	82
8053	7	Sololá	701	Sololá	1	Sololá	2	Febrero	2023-02-22T00:00:00	2024-11-08T17:00:00	6	Velocidad del viento	0
8054	7	Sololá	701	Sololá	1	Sololá	2	Febrero	2023-02-22T00:00:00	2024-11-08T17:00:00	7	Dirección del viento	0
8055	7	Sololá	701	Sololá	1	Sololá	2	Febrero	2023-02-22T00:00:00	2024-11-08T17:00:00	1	Precipitación	0
8056	7	Sololá	701	Sololá	1	Sololá	2	Febrero	2023-02-22T00:00:00	2024-11-08T17:00:00	8	Radiación solar	146
8057	7	Sololá	701	Sololá	1	Sololá	2	Febrero	2023-02-22T00:00:00	2024-11-08T18:00:00	2	Temperatura media	16.2
8058	7	Sololá	701	Sololá	1	Sololá	2	Febrero	2023-02-22T00:00:00	2024-11-08T18:00:00	4	Temperatura máxima	17.3
8059	7	Sololá	701	Sololá	1	Sololá	2	Febrero	2023-02-22T00:00:00	2024-11-08T18:00:00	3	Temperatura mínima	16.2
8060	7	Sololá	701	Sololá	1	Sololá	2	Febrero	2023-02-22T00:00:00	2024-11-08T18:00:00	5	Humedad	86
8061	7	Sololá	701	Sololá	1	Sololá	2	Febrero	2023-02-22T00:00:00	2024-11-08T18:00:00	6	Velocidad del viento	0
8062	7	Sololá	701	Sololá	1	Sololá	2	Febrero	2023-02-22T00:00:00	2024-11-08T18:00:00	7	Dirección del viento	0
8063	7	Sololá	701	Sololá	1	Sololá	2	Febrero	2023-02-22T00:00:00	2024-11-08T18:00:00	1	Precipitación	0
8064	7	Sololá	701	Sololá	1	Sololá	2	Febrero	2023-02-22T00:00:00	2024-11-08T18:00:00	8	Radiación solar	43
8065	7	Sololá	701	Sololá	1	Sololá	2	Febrero	2023-02-22T00:00:00	2024-11-08T19:00:00	2	Temperatura media	15.2
8066	7	Sololá	701	Sololá	1	Sololá	2	Febrero	2023-02-22T00:00:00	2024-11-08T19:00:00	4	Temperatura máxima	16.2
8067	7	Sololá	701	Sololá	1	Sololá	2	Febrero	2023-02-22T00:00:00	2024-11-08T19:00:00	3	Temperatura mínima	15.2
8068	7	Sololá	701	Sololá	1	Sololá	2	Febrero	2023-02-22T00:00:00	2024-11-08T19:00:00	5	Humedad	88
8069	7	Sololá	701	Sololá	1	Sololá	2	Febrero	2023-02-22T00:00:00	2024-11-08T19:00:00	6	Velocidad del viento	0
8070	7	Sololá	701	Sololá	1	Sololá	2	Febrero	2023-02-22T00:00:00	2024-11-08T19:00:00	7	Dirección del viento	0
8071	7	Sololá	701	Sololá	1	Sololá	2	Febrero	2023-02-22T00:00:00	2024-11-08T19:00:00	1	Precipitación	0
8072	7	Sololá	701	Sololá	1	Sololá	2	Febrero	2023-02-22T00:00:00	2024-11-08T19:00:00	8	Radiación solar	0
8073	7	Sololá	701	Sololá	1	Sololá	2	Febrero	2023-02-22T00:00:00	2024-11-08T20:00:00	2	Temperatura media	14.9
8074	7	Sololá	701	Sololá	1	Sololá	2	Febrero	2023-02-22T00:00:00	2024-11-08T20:00:00	4	Temperatura máxima	15.2
8075	7	Sololá	701	Sololá	1	Sololá	2	Febrero	2023-02-22T00:00:00	2024-11-08T20:00:00	3	Temperatura mínima	14.9
8076	7	Sololá	701	Sololá	1	Sololá	2	Febrero	2023-02-22T00:00:00	2024-11-08T20:00:00	5	Humedad	92
8077	7	Sololá	701	Sololá	1	Sololá	2	Febrero	2023-02-22T00:00:00	2024-11-08T20:00:00	6	Velocidad del viento	0
8078	7	Sololá	701	Sololá	1	Sololá	2	Febrero	2023-02-22T00:00:00	2024-11-08T20:00:00	7	Dirección del viento	0
8079	7	Sololá	701	Sololá	1	Sololá	2	Febrero	2023-02-22T00:00:00	2024-11-08T20:00:00	1	Precipitación	0
8080	7	Sololá	701	Sololá	1	Sololá	2	Febrero	2023-02-22T00:00:00	2024-11-08T20:00:00	8	Radiación solar	0
8081	7	Sololá	701	Sololá	1	Sololá	2	Febrero	2023-02-22T00:00:00	2024-11-08T21:00:00	2	Temperatura media	14.8
8082	7	Sololá	701	Sololá	1	Sololá	2	Febrero	2023-02-22T00:00:00	2024-11-08T21:00:00	4	Temperatura máxima	14.9
8083	7	Sololá	701	Sololá	1	Sololá	2	Febrero	2023-02-22T00:00:00	2024-11-08T21:00:00	3	Temperatura mínima	14.7
8084	7	Sololá	701	Sololá	1	Sololá	2	Febrero	2023-02-22T00:00:00	2024-11-08T21:00:00	5	Humedad	88
8085	7	Sololá	701	Sololá	1	Sololá	2	Febrero	2023-02-22T00:00:00	2024-11-08T21:00:00	6	Velocidad del viento	0
8086	7	Sololá	701	Sololá	1	Sololá	2	Febrero	2023-02-22T00:00:00	2024-11-08T21:00:00	7	Dirección del viento	0
8087	7	Sololá	701	Sololá	1	Sololá	2	Febrero	2023-02-22T00:00:00	2024-11-08T21:00:00	1	Precipitación	0
8088	7	Sololá	701	Sololá	1	Sololá	2	Febrero	2023-02-22T00:00:00	2024-11-08T21:00:00	8	Radiación solar	0
8089	7	Sololá	701	Sololá	1	Sololá	2	Febrero	2023-02-22T00:00:00	2024-11-08T22:00:00	2	Temperatura media	14.2
8090	7	Sololá	701	Sololá	1	Sololá	2	Febrero	2023-02-22T00:00:00	2024-11-08T22:00:00	4	Temperatura máxima	14.9
8091	7	Sololá	701	Sololá	1	Sololá	2	Febrero	2023-02-22T00:00:00	2024-11-08T22:00:00	3	Temperatura mínima	14.2
8092	7	Sololá	701	Sololá	1	Sololá	2	Febrero	2023-02-22T00:00:00	2024-11-08T22:00:00	5	Humedad	87
8093	7	Sololá	701	Sololá	1	Sololá	2	Febrero	2023-02-22T00:00:00	2024-11-08T22:00:00	6	Velocidad del viento	0
8094	7	Sololá	701	Sololá	1	Sololá	2	Febrero	2023-02-22T00:00:00	2024-11-08T22:00:00	7	Dirección del viento	0
8095	7	Sololá	701	Sololá	1	Sololá	2	Febrero	2023-02-22T00:00:00	2024-11-08T22:00:00	1	Precipitación	0
8096	7	Sololá	701	Sololá	1	Sololá	2	Febrero	2023-02-22T00:00:00	2024-11-08T22:00:00	8	Radiación solar	0
8097	7	Sololá	701	Sololá	1	Sololá	2	Febrero	2023-02-22T00:00:00	2024-11-08T23:00:00	2	Temperatura media	13.5
8098	7	Sololá	701	Sololá	1	Sololá	2	Febrero	2023-02-22T00:00:00	2024-11-08T23:00:00	4	Temperatura máxima	14.2
8099	7	Sololá	701	Sololá	1	Sololá	2	Febrero	2023-02-22T00:00:00	2024-11-08T23:00:00	3	Temperatura mínima	13.4
8100	7	Sololá	701	Sololá	1	Sololá	2	Febrero	2023-02-22T00:00:00	2024-11-08T23:00:00	5	Humedad	87
8101	7	Sololá	701	Sololá	1	Sololá	2	Febrero	2023-02-22T00:00:00	2024-11-08T23:00:00	6	Velocidad del viento	0
8102	7	Sololá	701	Sololá	1	Sololá	2	Febrero	2023-02-22T00:00:00	2024-11-08T23:00:00	7	Dirección del viento	0
8103	7	Sololá	701	Sololá	1	Sololá	2	Febrero	2023-02-22T00:00:00	2024-11-08T23:00:00	1	Precipitación	0
8104	7	Sololá	701	Sololá	1	Sololá	2	Febrero	2023-02-22T00:00:00	2024-11-08T23:00:00	8	Radiación solar	0
8105	7	Sololá	701	Sololá	1	Sololá	2	Febrero	2023-02-23T00:00:00	2024-11-08T00:00:00	2	Temperatura media	13.1
8106	7	Sololá	701	Sololá	1	Sololá	2	Febrero	2023-02-23T00:00:00	2024-11-08T00:00:00	4	Temperatura máxima	13.6
8107	7	Sololá	701	Sololá	1	Sololá	2	Febrero	2023-02-23T00:00:00	2024-11-08T00:00:00	3	Temperatura mínima	13.1
8108	7	Sololá	701	Sololá	1	Sololá	2	Febrero	2023-02-23T00:00:00	2024-11-08T00:00:00	5	Humedad	90
8109	7	Sololá	701	Sololá	1	Sololá	2	Febrero	2023-02-23T00:00:00	2024-11-08T00:00:00	6	Velocidad del viento	0
8110	7	Sololá	701	Sololá	1	Sololá	2	Febrero	2023-02-23T00:00:00	2024-11-08T00:00:00	7	Dirección del viento	0
8111	7	Sololá	701	Sololá	1	Sololá	2	Febrero	2023-02-23T00:00:00	2024-11-08T00:00:00	1	Precipitación	0
8112	7	Sololá	701	Sololá	1	Sololá	2	Febrero	2023-02-23T00:00:00	2024-11-08T00:00:00	8	Radiación solar	0
8113	7	Sololá	701	Sololá	1	Sololá	2	Febrero	2023-02-23T00:00:00	2024-11-08T01:00:00	2	Temperatura media	13
8114	7	Sololá	701	Sololá	1	Sololá	2	Febrero	2023-02-23T00:00:00	2024-11-08T01:00:00	4	Temperatura máxima	13.1
8115	7	Sololá	701	Sololá	1	Sololá	2	Febrero	2023-02-23T00:00:00	2024-11-08T01:00:00	3	Temperatura mínima	12.9
8116	7	Sololá	701	Sololá	1	Sololá	2	Febrero	2023-02-23T00:00:00	2024-11-08T01:00:00	5	Humedad	91
8117	7	Sololá	701	Sololá	1	Sololá	2	Febrero	2023-02-23T00:00:00	2024-11-08T01:00:00	6	Velocidad del viento	0
8118	7	Sololá	701	Sololá	1	Sololá	2	Febrero	2023-02-23T00:00:00	2024-11-08T01:00:00	7	Dirección del viento	0
8119	7	Sololá	701	Sololá	1	Sololá	2	Febrero	2023-02-23T00:00:00	2024-11-08T01:00:00	1	Precipitación	0
8120	7	Sololá	701	Sololá	1	Sololá	2	Febrero	2023-02-23T00:00:00	2024-11-08T01:00:00	8	Radiación solar	0
8121	7	Sololá	701	Sololá	1	Sololá	2	Febrero	2023-02-23T00:00:00	2024-11-08T02:00:00	2	Temperatura media	12.8
8122	7	Sololá	701	Sololá	1	Sololá	2	Febrero	2023-02-23T00:00:00	2024-11-08T02:00:00	4	Temperatura máxima	13.1
8123	7	Sololá	701	Sololá	1	Sololá	2	Febrero	2023-02-23T00:00:00	2024-11-08T02:00:00	3	Temperatura mínima	12.8
8124	7	Sololá	701	Sololá	1	Sololá	2	Febrero	2023-02-23T00:00:00	2024-11-08T02:00:00	5	Humedad	91
8125	7	Sololá	701	Sololá	1	Sololá	2	Febrero	2023-02-23T00:00:00	2024-11-08T02:00:00	6	Velocidad del viento	0
8126	7	Sololá	701	Sololá	1	Sololá	2	Febrero	2023-02-23T00:00:00	2024-11-08T02:00:00	7	Dirección del viento	0
8127	7	Sololá	701	Sololá	1	Sololá	2	Febrero	2023-02-23T00:00:00	2024-11-08T02:00:00	1	Precipitación	0
8128	7	Sololá	701	Sololá	1	Sololá	2	Febrero	2023-02-23T00:00:00	2024-11-08T02:00:00	8	Radiación solar	0
8129	7	Sololá	701	Sololá	1	Sololá	2	Febrero	2023-02-23T00:00:00	2024-11-08T03:00:00	2	Temperatura media	12.4
8130	7	Sololá	701	Sololá	1	Sololá	2	Febrero	2023-02-23T00:00:00	2024-11-08T03:00:00	4	Temperatura máxima	12.8
8131	7	Sololá	701	Sololá	1	Sololá	2	Febrero	2023-02-23T00:00:00	2024-11-08T03:00:00	3	Temperatura mínima	12.3
8132	7	Sololá	701	Sololá	1	Sololá	2	Febrero	2023-02-23T00:00:00	2024-11-08T03:00:00	5	Humedad	92
8133	7	Sololá	701	Sololá	1	Sololá	2	Febrero	2023-02-23T00:00:00	2024-11-08T03:00:00	6	Velocidad del viento	0
8134	7	Sololá	701	Sololá	1	Sololá	2	Febrero	2023-02-23T00:00:00	2024-11-08T03:00:00	7	Dirección del viento	0
8135	7	Sololá	701	Sololá	1	Sololá	2	Febrero	2023-02-23T00:00:00	2024-11-08T03:00:00	1	Precipitación	0
8136	7	Sololá	701	Sololá	1	Sololá	2	Febrero	2023-02-23T00:00:00	2024-11-08T03:00:00	8	Radiación solar	0
8137	7	Sololá	701	Sololá	1	Sololá	2	Febrero	2023-02-23T00:00:00	2024-11-08T04:00:00	2	Temperatura media	12.6
8138	7	Sololá	701	Sololá	1	Sololá	2	Febrero	2023-02-23T00:00:00	2024-11-08T04:00:00	4	Temperatura máxima	12.7
8139	7	Sololá	701	Sololá	1	Sololá	2	Febrero	2023-02-23T00:00:00	2024-11-08T04:00:00	3	Temperatura mínima	12.4
8140	7	Sololá	701	Sololá	1	Sololá	2	Febrero	2023-02-23T00:00:00	2024-11-08T04:00:00	5	Humedad	93
8141	7	Sololá	701	Sololá	1	Sololá	2	Febrero	2023-02-23T00:00:00	2024-11-08T04:00:00	6	Velocidad del viento	0
8142	7	Sololá	701	Sololá	1	Sololá	2	Febrero	2023-02-23T00:00:00	2024-11-08T04:00:00	7	Dirección del viento	0
8143	7	Sololá	701	Sololá	1	Sololá	2	Febrero	2023-02-23T00:00:00	2024-11-08T04:00:00	1	Precipitación	0
8144	7	Sololá	701	Sololá	1	Sololá	2	Febrero	2023-02-23T00:00:00	2024-11-08T04:00:00	8	Radiación solar	0
8145	7	Sololá	701	Sololá	1	Sololá	2	Febrero	2023-02-23T00:00:00	2024-11-08T05:00:00	2	Temperatura media	11.3
8146	7	Sololá	701	Sololá	1	Sololá	2	Febrero	2023-02-23T00:00:00	2024-11-08T05:00:00	4	Temperatura máxima	12.6
8147	7	Sololá	701	Sololá	1	Sololá	2	Febrero	2023-02-23T00:00:00	2024-11-08T05:00:00	3	Temperatura mínima	11.3
8148	7	Sololá	701	Sololá	1	Sololá	2	Febrero	2023-02-23T00:00:00	2024-11-08T05:00:00	5	Humedad	89
8149	7	Sololá	701	Sololá	1	Sololá	2	Febrero	2023-02-23T00:00:00	2024-11-08T05:00:00	6	Velocidad del viento	0
8150	7	Sololá	701	Sololá	1	Sololá	2	Febrero	2023-02-23T00:00:00	2024-11-08T05:00:00	7	Dirección del viento	0
8151	7	Sololá	701	Sololá	1	Sololá	2	Febrero	2023-02-23T00:00:00	2024-11-08T05:00:00	1	Precipitación	0
8152	7	Sololá	701	Sololá	1	Sololá	2	Febrero	2023-02-23T00:00:00	2024-11-08T05:00:00	8	Radiación solar	0
8153	7	Sololá	701	Sololá	1	Sololá	2	Febrero	2023-02-23T00:00:00	2024-11-08T06:00:00	2	Temperatura media	10.8
8154	7	Sololá	701	Sololá	1	Sololá	2	Febrero	2023-02-23T00:00:00	2024-11-08T06:00:00	4	Temperatura máxima	11.3
8155	7	Sololá	701	Sololá	1	Sololá	2	Febrero	2023-02-23T00:00:00	2024-11-08T06:00:00	3	Temperatura mínima	10.8
8156	7	Sololá	701	Sololá	1	Sololá	2	Febrero	2023-02-23T00:00:00	2024-11-08T06:00:00	5	Humedad	88
8157	7	Sololá	701	Sololá	1	Sololá	2	Febrero	2023-02-23T00:00:00	2024-11-08T06:00:00	6	Velocidad del viento	0
8158	7	Sololá	701	Sololá	1	Sololá	2	Febrero	2023-02-23T00:00:00	2024-11-08T06:00:00	7	Dirección del viento	0
8159	7	Sololá	701	Sololá	1	Sololá	2	Febrero	2023-02-23T00:00:00	2024-11-08T06:00:00	1	Precipitación	0
8160	7	Sololá	701	Sololá	1	Sololá	2	Febrero	2023-02-23T00:00:00	2024-11-08T06:00:00	8	Radiación solar	0
8161	7	Sololá	701	Sololá	1	Sololá	2	Febrero	2023-02-23T00:00:00	2024-11-08T07:00:00	2	Temperatura media	10.7
8162	7	Sololá	701	Sololá	1	Sololá	2	Febrero	2023-02-23T00:00:00	2024-11-08T07:00:00	4	Temperatura máxima	11.1
8163	7	Sololá	701	Sololá	1	Sololá	2	Febrero	2023-02-23T00:00:00	2024-11-08T07:00:00	3	Temperatura mínima	10.7
8164	7	Sololá	701	Sololá	1	Sololá	2	Febrero	2023-02-23T00:00:00	2024-11-08T07:00:00	5	Humedad	88
8165	7	Sololá	701	Sololá	1	Sololá	2	Febrero	2023-02-23T00:00:00	2024-11-08T07:00:00	6	Velocidad del viento	0
8166	7	Sololá	701	Sololá	1	Sololá	2	Febrero	2023-02-23T00:00:00	2024-11-08T07:00:00	7	Dirección del viento	0
8167	7	Sololá	701	Sololá	1	Sololá	2	Febrero	2023-02-23T00:00:00	2024-11-08T07:00:00	1	Precipitación	0
8168	7	Sololá	701	Sololá	1	Sololá	2	Febrero	2023-02-23T00:00:00	2024-11-08T07:00:00	8	Radiación solar	7
8169	7	Sololá	701	Sololá	1	Sololá	2	Febrero	2023-02-23T00:00:00	2024-11-08T08:00:00	2	Temperatura media	11.6
8170	7	Sololá	701	Sololá	1	Sololá	2	Febrero	2023-02-23T00:00:00	2024-11-08T08:00:00	4	Temperatura máxima	11.6
8171	7	Sololá	701	Sololá	1	Sololá	2	Febrero	2023-02-23T00:00:00	2024-11-08T08:00:00	3	Temperatura mínima	10.6
8172	7	Sololá	701	Sololá	1	Sololá	2	Febrero	2023-02-23T00:00:00	2024-11-08T08:00:00	5	Humedad	86
8173	7	Sololá	701	Sololá	1	Sololá	2	Febrero	2023-02-23T00:00:00	2024-11-08T08:00:00	6	Velocidad del viento	0
8174	7	Sololá	701	Sololá	1	Sololá	2	Febrero	2023-02-23T00:00:00	2024-11-08T08:00:00	7	Dirección del viento	0
8175	7	Sololá	701	Sololá	1	Sololá	2	Febrero	2023-02-23T00:00:00	2024-11-08T08:00:00	1	Precipitación	0
8176	7	Sololá	701	Sololá	1	Sololá	2	Febrero	2023-02-23T00:00:00	2024-11-08T08:00:00	8	Radiación solar	43
8177	7	Sololá	701	Sololá	1	Sololá	2	Febrero	2023-02-23T00:00:00	2024-11-08T09:00:00	2	Temperatura media	15.5
8178	7	Sololá	701	Sololá	1	Sololá	2	Febrero	2023-02-23T00:00:00	2024-11-08T09:00:00	4	Temperatura máxima	15.5
8179	7	Sololá	701	Sololá	1	Sololá	2	Febrero	2023-02-23T00:00:00	2024-11-08T09:00:00	3	Temperatura mínima	11.6
8180	7	Sololá	701	Sololá	1	Sololá	2	Febrero	2023-02-23T00:00:00	2024-11-08T09:00:00	5	Humedad	77
8181	7	Sololá	701	Sololá	1	Sololá	2	Febrero	2023-02-23T00:00:00	2024-11-08T09:00:00	6	Velocidad del viento	0
8182	7	Sololá	701	Sololá	1	Sololá	2	Febrero	2023-02-23T00:00:00	2024-11-08T09:00:00	7	Dirección del viento	0
8183	7	Sololá	701	Sololá	1	Sololá	2	Febrero	2023-02-23T00:00:00	2024-11-08T09:00:00	1	Precipitación	0
8184	7	Sololá	701	Sololá	1	Sololá	2	Febrero	2023-02-23T00:00:00	2024-11-08T09:00:00	8	Radiación solar	368
8185	7	Sololá	701	Sololá	1	Sololá	2	Febrero	2023-02-23T00:00:00	2024-11-08T10:00:00	2	Temperatura media	18.4
8186	7	Sololá	701	Sololá	1	Sololá	2	Febrero	2023-02-23T00:00:00	2024-11-08T10:00:00	4	Temperatura máxima	18.6
8187	7	Sololá	701	Sololá	1	Sololá	2	Febrero	2023-02-23T00:00:00	2024-11-08T10:00:00	3	Temperatura mínima	15.5
8188	7	Sololá	701	Sololá	1	Sololá	2	Febrero	2023-02-23T00:00:00	2024-11-08T10:00:00	5	Humedad	67
8189	7	Sololá	701	Sololá	1	Sololá	2	Febrero	2023-02-23T00:00:00	2024-11-08T10:00:00	6	Velocidad del viento	0
8190	7	Sololá	701	Sololá	1	Sololá	2	Febrero	2023-02-23T00:00:00	2024-11-08T10:00:00	7	Dirección del viento	0
8191	7	Sololá	701	Sololá	1	Sololá	2	Febrero	2023-02-23T00:00:00	2024-11-08T10:00:00	1	Precipitación	0
8192	7	Sololá	701	Sololá	1	Sololá	2	Febrero	2023-02-23T00:00:00	2024-11-08T10:00:00	8	Radiación solar	697
8193	7	Sololá	701	Sololá	1	Sololá	2	Febrero	2023-02-23T00:00:00	2024-11-08T11:00:00	2	Temperatura media	20.2
8194	7	Sololá	701	Sololá	1	Sololá	2	Febrero	2023-02-23T00:00:00	2024-11-08T11:00:00	4	Temperatura máxima	20.2
8195	7	Sololá	701	Sololá	1	Sololá	2	Febrero	2023-02-23T00:00:00	2024-11-08T11:00:00	3	Temperatura mínima	18.4
8196	7	Sololá	701	Sololá	1	Sololá	2	Febrero	2023-02-23T00:00:00	2024-11-08T11:00:00	5	Humedad	56
8197	7	Sololá	701	Sololá	1	Sololá	2	Febrero	2023-02-23T00:00:00	2024-11-08T11:00:00	6	Velocidad del viento	0
8198	7	Sololá	701	Sololá	1	Sololá	2	Febrero	2023-02-23T00:00:00	2024-11-08T11:00:00	7	Dirección del viento	0
8199	7	Sololá	701	Sololá	1	Sololá	2	Febrero	2023-02-23T00:00:00	2024-11-08T11:00:00	1	Precipitación	0
8200	7	Sololá	701	Sololá	1	Sololá	2	Febrero	2023-02-23T00:00:00	2024-11-08T11:00:00	8	Radiación solar	848
8201	7	Sololá	701	Sololá	1	Sololá	2	Febrero	2023-02-23T00:00:00	2024-11-08T12:00:00	2	Temperatura media	21.6
8202	7	Sololá	701	Sololá	1	Sololá	2	Febrero	2023-02-23T00:00:00	2024-11-08T12:00:00	4	Temperatura máxima	21.6
8203	7	Sololá	701	Sololá	1	Sololá	2	Febrero	2023-02-23T00:00:00	2024-11-08T12:00:00	3	Temperatura mínima	20
8204	7	Sololá	701	Sololá	1	Sololá	2	Febrero	2023-02-23T00:00:00	2024-11-08T12:00:00	5	Humedad	47
8205	7	Sololá	701	Sololá	1	Sololá	2	Febrero	2023-02-23T00:00:00	2024-11-08T12:00:00	6	Velocidad del viento	0
8206	7	Sololá	701	Sololá	1	Sololá	2	Febrero	2023-02-23T00:00:00	2024-11-08T12:00:00	7	Dirección del viento	0
8207	7	Sololá	701	Sololá	1	Sololá	2	Febrero	2023-02-23T00:00:00	2024-11-08T12:00:00	1	Precipitación	0
8208	7	Sololá	701	Sololá	1	Sololá	2	Febrero	2023-02-23T00:00:00	2024-11-08T12:00:00	8	Radiación solar	918
8209	7	Sololá	701	Sololá	1	Sololá	2	Febrero	2023-02-23T00:00:00	2024-11-08T13:00:00	2	Temperatura media	21.1
8210	7	Sololá	701	Sololá	1	Sololá	2	Febrero	2023-02-23T00:00:00	2024-11-08T13:00:00	4	Temperatura máxima	21.8
8211	7	Sololá	701	Sololá	1	Sololá	2	Febrero	2023-02-23T00:00:00	2024-11-08T13:00:00	3	Temperatura mínima	21.1
8212	7	Sololá	701	Sololá	1	Sololá	2	Febrero	2023-02-23T00:00:00	2024-11-08T13:00:00	5	Humedad	63
8213	7	Sololá	701	Sololá	1	Sololá	2	Febrero	2023-02-23T00:00:00	2024-11-08T13:00:00	6	Velocidad del viento	0
8214	7	Sololá	701	Sololá	1	Sololá	2	Febrero	2023-02-23T00:00:00	2024-11-08T13:00:00	7	Dirección del viento	0
8215	7	Sololá	701	Sololá	1	Sololá	2	Febrero	2023-02-23T00:00:00	2024-11-08T13:00:00	1	Precipitación	0
8216	7	Sololá	701	Sololá	1	Sololá	2	Febrero	2023-02-23T00:00:00	2024-11-08T13:00:00	8	Radiación solar	903
8217	7	Sololá	701	Sololá	1	Sololá	2	Febrero	2023-02-23T00:00:00	2024-11-08T14:00:00	2	Temperatura media	20.1
8218	7	Sololá	701	Sololá	1	Sololá	2	Febrero	2023-02-23T00:00:00	2024-11-08T14:00:00	4	Temperatura máxima	21.1
8219	7	Sololá	701	Sololá	1	Sololá	2	Febrero	2023-02-23T00:00:00	2024-11-08T14:00:00	3	Temperatura mínima	20.1
8220	7	Sololá	701	Sololá	1	Sololá	2	Febrero	2023-02-23T00:00:00	2024-11-08T14:00:00	5	Humedad	72
8221	7	Sololá	701	Sololá	1	Sololá	2	Febrero	2023-02-23T00:00:00	2024-11-08T14:00:00	6	Velocidad del viento	1.6
8222	7	Sololá	701	Sololá	1	Sololá	2	Febrero	2023-02-23T00:00:00	2024-11-08T14:00:00	7	Dirección del viento	1.61
8223	7	Sololá	701	Sololá	1	Sololá	2	Febrero	2023-02-23T00:00:00	2024-11-08T14:00:00	1	Precipitación	0
8224	7	Sololá	701	Sololá	1	Sololá	2	Febrero	2023-02-23T00:00:00	2024-11-08T14:00:00	8	Radiación solar	782
8225	7	Sololá	701	Sololá	1	Sololá	2	Febrero	2023-02-23T00:00:00	2024-11-08T15:00:00	2	Temperatura media	18.7
8226	7	Sololá	701	Sololá	1	Sololá	2	Febrero	2023-02-23T00:00:00	2024-11-08T15:00:00	4	Temperatura máxima	20.1
8227	7	Sololá	701	Sololá	1	Sololá	2	Febrero	2023-02-23T00:00:00	2024-11-08T15:00:00	3	Temperatura mínima	18.5
8228	7	Sololá	701	Sololá	1	Sololá	2	Febrero	2023-02-23T00:00:00	2024-11-08T15:00:00	5	Humedad	76
8229	7	Sololá	701	Sololá	1	Sololá	2	Febrero	2023-02-23T00:00:00	2024-11-08T15:00:00	6	Velocidad del viento	1.6
8230	7	Sololá	701	Sololá	1	Sololá	2	Febrero	2023-02-23T00:00:00	2024-11-08T15:00:00	7	Dirección del viento	1.61
8231	7	Sololá	701	Sololá	1	Sololá	2	Febrero	2023-02-23T00:00:00	2024-11-08T15:00:00	1	Precipitación	0
8232	7	Sololá	701	Sololá	1	Sololá	2	Febrero	2023-02-23T00:00:00	2024-11-08T15:00:00	8	Radiación solar	233
8233	7	Sololá	701	Sololá	1	Sololá	2	Febrero	2023-02-23T00:00:00	2024-11-08T16:00:00	2	Temperatura media	19.1
8234	7	Sololá	701	Sololá	1	Sololá	2	Febrero	2023-02-23T00:00:00	2024-11-08T16:00:00	4	Temperatura máxima	19.2
8235	7	Sololá	701	Sololá	1	Sololá	2	Febrero	2023-02-23T00:00:00	2024-11-08T16:00:00	3	Temperatura mínima	18.7
8236	7	Sololá	701	Sololá	1	Sololá	2	Febrero	2023-02-23T00:00:00	2024-11-08T16:00:00	5	Humedad	76
8237	7	Sololá	701	Sololá	1	Sololá	2	Febrero	2023-02-23T00:00:00	2024-11-08T16:00:00	6	Velocidad del viento	1.6
8238	7	Sololá	701	Sololá	1	Sololá	2	Febrero	2023-02-23T00:00:00	2024-11-08T16:00:00	7	Dirección del viento	1.61
8239	7	Sololá	701	Sololá	1	Sololá	2	Febrero	2023-02-23T00:00:00	2024-11-08T16:00:00	1	Precipitación	0
8240	7	Sololá	701	Sololá	1	Sololá	2	Febrero	2023-02-23T00:00:00	2024-11-08T16:00:00	8	Radiación solar	222
8241	7	Sololá	701	Sololá	1	Sololá	2	Febrero	2023-02-23T00:00:00	2024-11-08T17:00:00	2	Temperatura media	17.5
8242	7	Sololá	701	Sololá	1	Sololá	2	Febrero	2023-02-23T00:00:00	2024-11-08T17:00:00	4	Temperatura máxima	19.1
8243	7	Sololá	701	Sololá	1	Sololá	2	Febrero	2023-02-23T00:00:00	2024-11-08T17:00:00	3	Temperatura mínima	17.4
8244	7	Sololá	701	Sololá	1	Sololá	2	Febrero	2023-02-23T00:00:00	2024-11-08T17:00:00	5	Humedad	82
8245	7	Sololá	701	Sololá	1	Sololá	2	Febrero	2023-02-23T00:00:00	2024-11-08T17:00:00	6	Velocidad del viento	0
8246	7	Sololá	701	Sololá	1	Sololá	2	Febrero	2023-02-23T00:00:00	2024-11-08T17:00:00	7	Dirección del viento	0
8247	7	Sololá	701	Sololá	1	Sololá	2	Febrero	2023-02-23T00:00:00	2024-11-08T17:00:00	1	Precipitación	0
8248	7	Sololá	701	Sololá	1	Sololá	2	Febrero	2023-02-23T00:00:00	2024-11-08T17:00:00	8	Radiación solar	142
8249	7	Sololá	701	Sololá	1	Sololá	2	Febrero	2023-02-23T00:00:00	2024-11-08T18:00:00	2	Temperatura media	16.1
8250	7	Sololá	701	Sololá	1	Sololá	2	Febrero	2023-02-23T00:00:00	2024-11-08T18:00:00	4	Temperatura máxima	17.4
8251	7	Sololá	701	Sololá	1	Sololá	2	Febrero	2023-02-23T00:00:00	2024-11-08T18:00:00	3	Temperatura mínima	16.1
8252	7	Sololá	701	Sololá	1	Sololá	2	Febrero	2023-02-23T00:00:00	2024-11-08T18:00:00	5	Humedad	86
8253	7	Sololá	701	Sololá	1	Sololá	2	Febrero	2023-02-23T00:00:00	2024-11-08T18:00:00	6	Velocidad del viento	0
8254	7	Sololá	701	Sololá	1	Sololá	2	Febrero	2023-02-23T00:00:00	2024-11-08T18:00:00	7	Dirección del viento	0
8255	7	Sololá	701	Sololá	1	Sololá	2	Febrero	2023-02-23T00:00:00	2024-11-08T18:00:00	1	Precipitación	0
8256	7	Sololá	701	Sololá	1	Sololá	2	Febrero	2023-02-23T00:00:00	2024-11-08T18:00:00	8	Radiación solar	34
8257	7	Sololá	701	Sololá	1	Sololá	2	Febrero	2023-02-23T00:00:00	2024-11-08T19:00:00	2	Temperatura media	15.1
8258	7	Sololá	701	Sololá	1	Sololá	2	Febrero	2023-02-23T00:00:00	2024-11-08T19:00:00	4	Temperatura máxima	16.1
8259	7	Sololá	701	Sololá	1	Sololá	2	Febrero	2023-02-23T00:00:00	2024-11-08T19:00:00	3	Temperatura mínima	15.1
8260	7	Sololá	701	Sololá	1	Sololá	2	Febrero	2023-02-23T00:00:00	2024-11-08T19:00:00	5	Humedad	87
8261	7	Sololá	701	Sololá	1	Sololá	2	Febrero	2023-02-23T00:00:00	2024-11-08T19:00:00	6	Velocidad del viento	0
8262	7	Sololá	701	Sololá	1	Sololá	2	Febrero	2023-02-23T00:00:00	2024-11-08T19:00:00	7	Dirección del viento	0
8263	7	Sololá	701	Sololá	1	Sololá	2	Febrero	2023-02-23T00:00:00	2024-11-08T19:00:00	1	Precipitación	0
8264	7	Sololá	701	Sololá	1	Sololá	2	Febrero	2023-02-23T00:00:00	2024-11-08T19:00:00	8	Radiación solar	0
8265	7	Sololá	701	Sololá	1	Sololá	2	Febrero	2023-02-23T00:00:00	2024-11-08T20:00:00	2	Temperatura media	13.4
8266	7	Sololá	701	Sololá	1	Sololá	2	Febrero	2023-02-23T00:00:00	2024-11-08T20:00:00	4	Temperatura máxima	15.1
8267	7	Sololá	701	Sololá	1	Sololá	2	Febrero	2023-02-23T00:00:00	2024-11-08T20:00:00	3	Temperatura mínima	13.4
8268	7	Sololá	701	Sololá	1	Sololá	2	Febrero	2023-02-23T00:00:00	2024-11-08T20:00:00	5	Humedad	87
8269	7	Sololá	701	Sololá	1	Sololá	2	Febrero	2023-02-23T00:00:00	2024-11-08T20:00:00	6	Velocidad del viento	0
8270	7	Sololá	701	Sololá	1	Sololá	2	Febrero	2023-02-23T00:00:00	2024-11-08T20:00:00	7	Dirección del viento	0
8271	7	Sololá	701	Sololá	1	Sololá	2	Febrero	2023-02-23T00:00:00	2024-11-08T20:00:00	1	Precipitación	0
8272	7	Sololá	701	Sololá	1	Sololá	2	Febrero	2023-02-23T00:00:00	2024-11-08T20:00:00	8	Radiación solar	0
8273	7	Sololá	701	Sololá	1	Sololá	2	Febrero	2023-02-23T00:00:00	2024-11-08T21:00:00	2	Temperatura media	12.3
8274	7	Sololá	701	Sololá	1	Sololá	2	Febrero	2023-02-23T00:00:00	2024-11-08T21:00:00	4	Temperatura máxima	13.4
8275	7	Sololá	701	Sololá	1	Sololá	2	Febrero	2023-02-23T00:00:00	2024-11-08T21:00:00	3	Temperatura mínima	12.2
8276	7	Sololá	701	Sololá	1	Sololá	2	Febrero	2023-02-23T00:00:00	2024-11-08T21:00:00	5	Humedad	77
8277	7	Sololá	701	Sololá	1	Sololá	2	Febrero	2023-02-23T00:00:00	2024-11-08T21:00:00	6	Velocidad del viento	0
8278	7	Sololá	701	Sololá	1	Sololá	2	Febrero	2023-02-23T00:00:00	2024-11-08T21:00:00	7	Dirección del viento	0
8279	7	Sololá	701	Sololá	1	Sololá	2	Febrero	2023-02-23T00:00:00	2024-11-08T21:00:00	1	Precipitación	0
8280	7	Sololá	701	Sololá	1	Sololá	2	Febrero	2023-02-23T00:00:00	2024-11-08T21:00:00	8	Radiación solar	0
8281	7	Sololá	701	Sololá	1	Sololá	2	Febrero	2023-02-23T00:00:00	2024-11-08T22:00:00	2	Temperatura media	12.3
8282	7	Sololá	701	Sololá	1	Sololá	2	Febrero	2023-02-23T00:00:00	2024-11-08T22:00:00	4	Temperatura máxima	12.3
8283	7	Sololá	701	Sololá	1	Sololá	2	Febrero	2023-02-23T00:00:00	2024-11-08T22:00:00	3	Temperatura mínima	12
8284	7	Sololá	701	Sololá	1	Sololá	2	Febrero	2023-02-23T00:00:00	2024-11-08T22:00:00	5	Humedad	81
8285	7	Sololá	701	Sololá	1	Sololá	2	Febrero	2023-02-23T00:00:00	2024-11-08T22:00:00	6	Velocidad del viento	0
8286	7	Sololá	701	Sololá	1	Sololá	2	Febrero	2023-02-23T00:00:00	2024-11-08T22:00:00	7	Dirección del viento	0
8287	7	Sololá	701	Sololá	1	Sololá	2	Febrero	2023-02-23T00:00:00	2024-11-08T22:00:00	1	Precipitación	0
8288	7	Sololá	701	Sololá	1	Sololá	2	Febrero	2023-02-23T00:00:00	2024-11-08T22:00:00	8	Radiación solar	0
8289	7	Sololá	701	Sololá	1	Sololá	2	Febrero	2023-02-23T00:00:00	2024-11-08T23:00:00	2	Temperatura media	11.4
8290	7	Sololá	701	Sololá	1	Sololá	2	Febrero	2023-02-23T00:00:00	2024-11-08T23:00:00	4	Temperatura máxima	12.4
8291	7	Sololá	701	Sololá	1	Sololá	2	Febrero	2023-02-23T00:00:00	2024-11-08T23:00:00	3	Temperatura mínima	11.4
8292	7	Sololá	701	Sololá	1	Sololá	2	Febrero	2023-02-23T00:00:00	2024-11-08T23:00:00	5	Humedad	84
8293	7	Sololá	701	Sololá	1	Sololá	2	Febrero	2023-02-23T00:00:00	2024-11-08T23:00:00	6	Velocidad del viento	0
8294	7	Sololá	701	Sololá	1	Sololá	2	Febrero	2023-02-23T00:00:00	2024-11-08T23:00:00	7	Dirección del viento	0
8295	7	Sololá	701	Sololá	1	Sololá	2	Febrero	2023-02-23T00:00:00	2024-11-08T23:00:00	1	Precipitación	0
8296	7	Sololá	701	Sololá	1	Sololá	2	Febrero	2023-02-23T00:00:00	2024-11-08T23:00:00	8	Radiación solar	0
8297	7	Sololá	701	Sololá	1	Sololá	2	Febrero	2023-02-24T00:00:00	2024-11-08T00:00:00	2	Temperatura media	11.4
8298	7	Sololá	701	Sololá	1	Sololá	2	Febrero	2023-02-24T00:00:00	2024-11-08T00:00:00	4	Temperatura máxima	11.4
8299	7	Sololá	701	Sololá	1	Sololá	2	Febrero	2023-02-24T00:00:00	2024-11-08T00:00:00	3	Temperatura mínima	11.1
8300	7	Sololá	701	Sololá	1	Sololá	2	Febrero	2023-02-24T00:00:00	2024-11-08T00:00:00	5	Humedad	86
8301	7	Sololá	701	Sololá	1	Sololá	2	Febrero	2023-02-24T00:00:00	2024-11-08T00:00:00	6	Velocidad del viento	0
8302	7	Sololá	701	Sololá	1	Sololá	2	Febrero	2023-02-24T00:00:00	2024-11-08T00:00:00	7	Dirección del viento	0
8303	7	Sololá	701	Sololá	1	Sololá	2	Febrero	2023-02-24T00:00:00	2024-11-08T00:00:00	1	Precipitación	0
8304	7	Sololá	701	Sololá	1	Sololá	2	Febrero	2023-02-24T00:00:00	2024-11-08T00:00:00	8	Radiación solar	0
8305	7	Sololá	701	Sololá	1	Sololá	2	Febrero	2023-02-24T00:00:00	2024-11-08T01:00:00	2	Temperatura media	11.8
8306	7	Sololá	701	Sololá	1	Sololá	2	Febrero	2023-02-24T00:00:00	2024-11-08T01:00:00	4	Temperatura máxima	11.8
8307	7	Sololá	701	Sololá	1	Sololá	2	Febrero	2023-02-24T00:00:00	2024-11-08T01:00:00	3	Temperatura mínima	11.4
8308	7	Sololá	701	Sololá	1	Sololá	2	Febrero	2023-02-24T00:00:00	2024-11-08T01:00:00	5	Humedad	85
8309	7	Sololá	701	Sololá	1	Sololá	2	Febrero	2023-02-24T00:00:00	2024-11-08T01:00:00	6	Velocidad del viento	0
8310	7	Sololá	701	Sololá	1	Sololá	2	Febrero	2023-02-24T00:00:00	2024-11-08T01:00:00	7	Dirección del viento	0
8311	7	Sololá	701	Sololá	1	Sololá	2	Febrero	2023-02-24T00:00:00	2024-11-08T01:00:00	1	Precipitación	0
8312	7	Sololá	701	Sololá	1	Sololá	2	Febrero	2023-02-24T00:00:00	2024-11-08T01:00:00	8	Radiación solar	0
8313	7	Sololá	701	Sololá	1	Sololá	2	Febrero	2023-02-24T00:00:00	2024-11-08T02:00:00	2	Temperatura media	11.4
8314	7	Sololá	701	Sololá	1	Sololá	2	Febrero	2023-02-24T00:00:00	2024-11-08T02:00:00	4	Temperatura máxima	11.8
8315	7	Sololá	701	Sololá	1	Sololá	2	Febrero	2023-02-24T00:00:00	2024-11-08T02:00:00	3	Temperatura mínima	11.4
8316	7	Sololá	701	Sololá	1	Sololá	2	Febrero	2023-02-24T00:00:00	2024-11-08T02:00:00	5	Humedad	83
8317	7	Sololá	701	Sololá	1	Sololá	2	Febrero	2023-02-24T00:00:00	2024-11-08T02:00:00	6	Velocidad del viento	0
8318	7	Sololá	701	Sololá	1	Sololá	2	Febrero	2023-02-24T00:00:00	2024-11-08T02:00:00	7	Dirección del viento	0
8319	7	Sololá	701	Sololá	1	Sololá	2	Febrero	2023-02-24T00:00:00	2024-11-08T02:00:00	1	Precipitación	0
8320	7	Sololá	701	Sololá	1	Sololá	2	Febrero	2023-02-24T00:00:00	2024-11-08T02:00:00	8	Radiación solar	0
8321	7	Sololá	701	Sololá	1	Sololá	2	Febrero	2023-02-24T00:00:00	2024-11-08T03:00:00	2	Temperatura media	10.9
8322	7	Sololá	701	Sololá	1	Sololá	2	Febrero	2023-02-24T00:00:00	2024-11-08T03:00:00	4	Temperatura máxima	11.4
8323	7	Sololá	701	Sololá	1	Sololá	2	Febrero	2023-02-24T00:00:00	2024-11-08T03:00:00	3	Temperatura mínima	10.9
8324	7	Sololá	701	Sololá	1	Sololá	2	Febrero	2023-02-24T00:00:00	2024-11-08T03:00:00	5	Humedad	83
8325	7	Sololá	701	Sololá	1	Sololá	2	Febrero	2023-02-24T00:00:00	2024-11-08T03:00:00	6	Velocidad del viento	0
8326	7	Sololá	701	Sololá	1	Sololá	2	Febrero	2023-02-24T00:00:00	2024-11-08T03:00:00	7	Dirección del viento	0
8327	7	Sololá	701	Sololá	1	Sololá	2	Febrero	2023-02-24T00:00:00	2024-11-08T03:00:00	1	Precipitación	0
8328	7	Sololá	701	Sololá	1	Sololá	2	Febrero	2023-02-24T00:00:00	2024-11-08T03:00:00	8	Radiación solar	0
8329	7	Sololá	701	Sololá	1	Sololá	2	Febrero	2023-02-24T00:00:00	2024-11-08T04:00:00	2	Temperatura media	10.2
8330	7	Sololá	701	Sololá	1	Sololá	2	Febrero	2023-02-24T00:00:00	2024-11-08T04:00:00	4	Temperatura máxima	10.9
8331	7	Sololá	701	Sololá	1	Sololá	2	Febrero	2023-02-24T00:00:00	2024-11-08T04:00:00	3	Temperatura mínima	10.2
8332	7	Sololá	701	Sololá	1	Sololá	2	Febrero	2023-02-24T00:00:00	2024-11-08T04:00:00	5	Humedad	83
8333	7	Sololá	701	Sololá	1	Sololá	2	Febrero	2023-02-24T00:00:00	2024-11-08T04:00:00	6	Velocidad del viento	0
8334	7	Sololá	701	Sololá	1	Sololá	2	Febrero	2023-02-24T00:00:00	2024-11-08T04:00:00	7	Dirección del viento	0
8335	7	Sololá	701	Sololá	1	Sololá	2	Febrero	2023-02-24T00:00:00	2024-11-08T04:00:00	1	Precipitación	0
8336	7	Sololá	701	Sololá	1	Sololá	2	Febrero	2023-02-24T00:00:00	2024-11-08T04:00:00	8	Radiación solar	0
8337	7	Sololá	701	Sololá	1	Sololá	2	Febrero	2023-02-24T00:00:00	2024-11-08T05:00:00	2	Temperatura media	10.3
8338	7	Sololá	701	Sololá	1	Sololá	2	Febrero	2023-02-24T00:00:00	2024-11-08T05:00:00	4	Temperatura máxima	10.4
8339	7	Sololá	701	Sololá	1	Sololá	2	Febrero	2023-02-24T00:00:00	2024-11-08T05:00:00	3	Temperatura mínima	10.1
8340	7	Sololá	701	Sololá	1	Sololá	2	Febrero	2023-02-24T00:00:00	2024-11-08T05:00:00	5	Humedad	76
8341	7	Sololá	701	Sololá	1	Sololá	2	Febrero	2023-02-24T00:00:00	2024-11-08T05:00:00	6	Velocidad del viento	0
8342	7	Sololá	701	Sololá	1	Sololá	2	Febrero	2023-02-24T00:00:00	2024-11-08T05:00:00	7	Dirección del viento	0
8343	7	Sololá	701	Sololá	1	Sololá	2	Febrero	2023-02-24T00:00:00	2024-11-08T05:00:00	1	Precipitación	0
8344	7	Sololá	701	Sololá	1	Sololá	2	Febrero	2023-02-24T00:00:00	2024-11-08T05:00:00	8	Radiación solar	0
8345	7	Sololá	701	Sololá	1	Sololá	2	Febrero	2023-02-24T00:00:00	2024-11-08T06:00:00	2	Temperatura media	9.8
8346	7	Sololá	701	Sololá	1	Sololá	2	Febrero	2023-02-24T00:00:00	2024-11-08T06:00:00	4	Temperatura máxima	10.4
8347	7	Sololá	701	Sololá	1	Sololá	2	Febrero	2023-02-24T00:00:00	2024-11-08T06:00:00	3	Temperatura mínima	9.8
8348	7	Sololá	701	Sololá	1	Sololá	2	Febrero	2023-02-24T00:00:00	2024-11-08T06:00:00	5	Humedad	78
8349	7	Sololá	701	Sololá	1	Sololá	2	Febrero	2023-02-24T00:00:00	2024-11-08T06:00:00	6	Velocidad del viento	0
8350	7	Sololá	701	Sololá	1	Sololá	2	Febrero	2023-02-24T00:00:00	2024-11-08T06:00:00	7	Dirección del viento	0
8351	7	Sololá	701	Sololá	1	Sololá	2	Febrero	2023-02-24T00:00:00	2024-11-08T06:00:00	1	Precipitación	0
8352	7	Sololá	701	Sololá	1	Sololá	2	Febrero	2023-02-24T00:00:00	2024-11-08T06:00:00	8	Radiación solar	0
8353	7	Sololá	701	Sololá	1	Sololá	2	Febrero	2023-02-24T00:00:00	2024-11-08T07:00:00	2	Temperatura media	10.2
8354	7	Sololá	701	Sololá	1	Sololá	2	Febrero	2023-02-24T00:00:00	2024-11-08T07:00:00	4	Temperatura máxima	10.3
8355	7	Sololá	701	Sololá	1	Sololá	2	Febrero	2023-02-24T00:00:00	2024-11-08T07:00:00	3	Temperatura mínima	9.8
8356	7	Sololá	701	Sololá	1	Sololá	2	Febrero	2023-02-24T00:00:00	2024-11-08T07:00:00	5	Humedad	76
8357	7	Sololá	701	Sololá	1	Sololá	2	Febrero	2023-02-24T00:00:00	2024-11-08T07:00:00	6	Velocidad del viento	0
8358	7	Sololá	701	Sololá	1	Sololá	2	Febrero	2023-02-24T00:00:00	2024-11-08T07:00:00	7	Dirección del viento	0
8359	7	Sololá	701	Sololá	1	Sololá	2	Febrero	2023-02-24T00:00:00	2024-11-08T07:00:00	1	Precipitación	0
8360	7	Sololá	701	Sololá	1	Sololá	2	Febrero	2023-02-24T00:00:00	2024-11-08T07:00:00	8	Radiación solar	5
8361	7	Sololá	701	Sololá	1	Sololá	2	Febrero	2023-02-24T00:00:00	2024-11-08T08:00:00	2	Temperatura media	12.8
8362	7	Sololá	701	Sololá	1	Sololá	2	Febrero	2023-02-24T00:00:00	2024-11-08T08:00:00	4	Temperatura máxima	12.8
8363	7	Sololá	701	Sololá	1	Sololá	2	Febrero	2023-02-24T00:00:00	2024-11-08T08:00:00	3	Temperatura mínima	10.2
8364	7	Sololá	701	Sololá	1	Sololá	2	Febrero	2023-02-24T00:00:00	2024-11-08T08:00:00	5	Humedad	60
8365	7	Sololá	701	Sololá	1	Sololá	2	Febrero	2023-02-24T00:00:00	2024-11-08T08:00:00	6	Velocidad del viento	0
8366	7	Sololá	701	Sololá	1	Sololá	2	Febrero	2023-02-24T00:00:00	2024-11-08T08:00:00	7	Dirección del viento	0
8367	7	Sololá	701	Sololá	1	Sololá	2	Febrero	2023-02-24T00:00:00	2024-11-08T08:00:00	1	Precipitación	0
8368	7	Sololá	701	Sololá	1	Sololá	2	Febrero	2023-02-24T00:00:00	2024-11-08T08:00:00	8	Radiación solar	26
8369	7	Sololá	701	Sololá	1	Sololá	2	Febrero	2023-02-24T00:00:00	2024-11-08T09:00:00	2	Temperatura media	19
8370	7	Sololá	701	Sololá	1	Sololá	2	Febrero	2023-02-24T00:00:00	2024-11-08T09:00:00	4	Temperatura máxima	19
8371	7	Sololá	701	Sololá	1	Sololá	2	Febrero	2023-02-24T00:00:00	2024-11-08T09:00:00	3	Temperatura mínima	12.9
8372	7	Sololá	701	Sololá	1	Sololá	2	Febrero	2023-02-24T00:00:00	2024-11-08T09:00:00	5	Humedad	32
8373	7	Sololá	701	Sololá	1	Sololá	2	Febrero	2023-02-24T00:00:00	2024-11-08T09:00:00	6	Velocidad del viento	0
8374	7	Sololá	701	Sololá	1	Sololá	2	Febrero	2023-02-24T00:00:00	2024-11-08T09:00:00	7	Dirección del viento	0
8375	7	Sololá	701	Sololá	1	Sololá	2	Febrero	2023-02-24T00:00:00	2024-11-08T09:00:00	1	Precipitación	0
8376	7	Sololá	701	Sololá	1	Sololá	2	Febrero	2023-02-24T00:00:00	2024-11-08T09:00:00	8	Radiación solar	379
8377	7	Sololá	701	Sololá	1	Sololá	2	Febrero	2023-02-24T00:00:00	2024-11-08T10:00:00	2	Temperatura media	21.2
8378	7	Sololá	701	Sololá	1	Sololá	2	Febrero	2023-02-24T00:00:00	2024-11-08T10:00:00	4	Temperatura máxima	21.6
8379	7	Sololá	701	Sololá	1	Sololá	2	Febrero	2023-02-24T00:00:00	2024-11-08T10:00:00	3	Temperatura mínima	19.1
8380	7	Sololá	701	Sololá	1	Sololá	2	Febrero	2023-02-24T00:00:00	2024-11-08T10:00:00	5	Humedad	40
8381	7	Sololá	701	Sololá	1	Sololá	2	Febrero	2023-02-24T00:00:00	2024-11-08T10:00:00	6	Velocidad del viento	0
8382	7	Sololá	701	Sololá	1	Sololá	2	Febrero	2023-02-24T00:00:00	2024-11-08T10:00:00	7	Dirección del viento	0
8383	7	Sololá	701	Sololá	1	Sololá	2	Febrero	2023-02-24T00:00:00	2024-11-08T10:00:00	1	Precipitación	0
8384	7	Sololá	701	Sololá	1	Sololá	2	Febrero	2023-02-24T00:00:00	2024-11-08T10:00:00	8	Radiación solar	715
8385	7	Sololá	701	Sololá	1	Sololá	2	Febrero	2023-02-24T00:00:00	2024-11-08T11:00:00	2	Temperatura media	21.4
8386	7	Sololá	701	Sololá	1	Sololá	2	Febrero	2023-02-24T00:00:00	2024-11-08T11:00:00	4	Temperatura máxima	21.4
8387	7	Sololá	701	Sololá	1	Sololá	2	Febrero	2023-02-24T00:00:00	2024-11-08T11:00:00	3	Temperatura mínima	20.8
8388	7	Sololá	701	Sololá	1	Sololá	2	Febrero	2023-02-24T00:00:00	2024-11-08T11:00:00	5	Humedad	41
8389	7	Sololá	701	Sololá	1	Sololá	2	Febrero	2023-02-24T00:00:00	2024-11-08T11:00:00	6	Velocidad del viento	0
8390	7	Sololá	701	Sololá	1	Sololá	2	Febrero	2023-02-24T00:00:00	2024-11-08T11:00:00	7	Dirección del viento	0
8391	7	Sololá	701	Sololá	1	Sololá	2	Febrero	2023-02-24T00:00:00	2024-11-08T11:00:00	1	Precipitación	0
8392	7	Sololá	701	Sololá	1	Sololá	2	Febrero	2023-02-24T00:00:00	2024-11-08T11:00:00	8	Radiación solar	852
8393	7	Sololá	701	Sololá	1	Sololá	2	Febrero	2023-02-24T00:00:00	2024-11-08T12:00:00	2	Temperatura media	22.1
8394	7	Sololá	701	Sololá	1	Sololá	2	Febrero	2023-02-24T00:00:00	2024-11-08T12:00:00	4	Temperatura máxima	22.1
8395	7	Sololá	701	Sololá	1	Sololá	2	Febrero	2023-02-24T00:00:00	2024-11-08T12:00:00	3	Temperatura mínima	21.5
8396	7	Sololá	701	Sololá	1	Sololá	2	Febrero	2023-02-24T00:00:00	2024-11-08T12:00:00	5	Humedad	48
8397	7	Sololá	701	Sololá	1	Sololá	2	Febrero	2023-02-24T00:00:00	2024-11-08T12:00:00	6	Velocidad del viento	0
8398	7	Sololá	701	Sololá	1	Sololá	2	Febrero	2023-02-24T00:00:00	2024-11-08T12:00:00	7	Dirección del viento	0
8399	7	Sololá	701	Sololá	1	Sololá	2	Febrero	2023-02-24T00:00:00	2024-11-08T12:00:00	1	Precipitación	0
8400	7	Sololá	701	Sololá	1	Sololá	2	Febrero	2023-02-24T00:00:00	2024-11-08T12:00:00	8	Radiación solar	919
8401	7	Sololá	701	Sololá	1	Sololá	2	Febrero	2023-02-24T00:00:00	2024-11-08T13:00:00	2	Temperatura media	22
8402	7	Sololá	701	Sololá	1	Sololá	2	Febrero	2023-02-24T00:00:00	2024-11-08T13:00:00	4	Temperatura máxima	22.7
8403	7	Sololá	701	Sololá	1	Sololá	2	Febrero	2023-02-24T00:00:00	2024-11-08T13:00:00	3	Temperatura mínima	22
8404	7	Sololá	701	Sololá	1	Sololá	2	Febrero	2023-02-24T00:00:00	2024-11-08T13:00:00	5	Humedad	59
8405	7	Sololá	701	Sololá	1	Sololá	2	Febrero	2023-02-24T00:00:00	2024-11-08T13:00:00	6	Velocidad del viento	0
8406	7	Sololá	701	Sololá	1	Sololá	2	Febrero	2023-02-24T00:00:00	2024-11-08T13:00:00	7	Dirección del viento	0
8407	7	Sololá	701	Sololá	1	Sololá	2	Febrero	2023-02-24T00:00:00	2024-11-08T13:00:00	1	Precipitación	0
8408	7	Sololá	701	Sololá	1	Sololá	2	Febrero	2023-02-24T00:00:00	2024-11-08T13:00:00	8	Radiación solar	912
8409	7	Sololá	701	Sololá	1	Sololá	2	Febrero	2023-02-24T00:00:00	2024-11-08T14:00:00	2	Temperatura media	21.6
8410	7	Sololá	701	Sololá	1	Sololá	2	Febrero	2023-02-24T00:00:00	2024-11-08T14:00:00	4	Temperatura máxima	22.1
8411	7	Sololá	701	Sololá	1	Sololá	2	Febrero	2023-02-24T00:00:00	2024-11-08T14:00:00	3	Temperatura mínima	21.5
8412	7	Sololá	701	Sololá	1	Sololá	2	Febrero	2023-02-24T00:00:00	2024-11-08T14:00:00	5	Humedad	65
8413	7	Sololá	701	Sololá	1	Sololá	2	Febrero	2023-02-24T00:00:00	2024-11-08T14:00:00	6	Velocidad del viento	1.6
8414	7	Sololá	701	Sololá	1	Sololá	2	Febrero	2023-02-24T00:00:00	2024-11-08T14:00:00	7	Dirección del viento	1.61
8415	7	Sololá	701	Sololá	1	Sololá	2	Febrero	2023-02-24T00:00:00	2024-11-08T14:00:00	1	Precipitación	0
8416	7	Sololá	701	Sololá	1	Sololá	2	Febrero	2023-02-24T00:00:00	2024-11-08T14:00:00	8	Radiación solar	833
8417	7	Sololá	701	Sololá	1	Sololá	2	Febrero	2023-02-24T00:00:00	2024-11-08T15:00:00	2	Temperatura media	20.6
8418	7	Sololá	701	Sololá	1	Sololá	2	Febrero	2023-02-24T00:00:00	2024-11-08T15:00:00	4	Temperatura máxima	21.6
8419	7	Sololá	701	Sololá	1	Sololá	2	Febrero	2023-02-24T00:00:00	2024-11-08T15:00:00	3	Temperatura mínima	20.6
8420	7	Sololá	701	Sololá	1	Sololá	2	Febrero	2023-02-24T00:00:00	2024-11-08T15:00:00	5	Humedad	69
8421	7	Sololá	701	Sololá	1	Sololá	2	Febrero	2023-02-24T00:00:00	2024-11-08T15:00:00	6	Velocidad del viento	0
8422	7	Sololá	701	Sololá	1	Sololá	2	Febrero	2023-02-24T00:00:00	2024-11-08T15:00:00	7	Dirección del viento	0
8423	7	Sololá	701	Sololá	1	Sololá	2	Febrero	2023-02-24T00:00:00	2024-11-08T15:00:00	1	Precipitación	0
8424	7	Sololá	701	Sololá	1	Sololá	2	Febrero	2023-02-24T00:00:00	2024-11-08T15:00:00	8	Radiación solar	167
8425	7	Sololá	701	Sololá	1	Sololá	2	Febrero	2023-02-24T00:00:00	2024-11-08T16:00:00	2	Temperatura media	20.4
8426	7	Sololá	701	Sololá	1	Sololá	2	Febrero	2023-02-24T00:00:00	2024-11-08T16:00:00	4	Temperatura máxima	20.6
8427	7	Sololá	701	Sololá	1	Sololá	2	Febrero	2023-02-24T00:00:00	2024-11-08T16:00:00	3	Temperatura mínima	20.4
8428	7	Sololá	701	Sololá	1	Sololá	2	Febrero	2023-02-24T00:00:00	2024-11-08T16:00:00	5	Humedad	71
8429	7	Sololá	701	Sololá	1	Sololá	2	Febrero	2023-02-24T00:00:00	2024-11-08T16:00:00	6	Velocidad del viento	0
8430	7	Sololá	701	Sololá	1	Sololá	2	Febrero	2023-02-24T00:00:00	2024-11-08T16:00:00	7	Dirección del viento	0
8431	7	Sololá	701	Sololá	1	Sololá	2	Febrero	2023-02-24T00:00:00	2024-11-08T16:00:00	1	Precipitación	0
8432	7	Sololá	701	Sololá	1	Sololá	2	Febrero	2023-02-24T00:00:00	2024-11-08T16:00:00	8	Radiación solar	170
8433	7	Sololá	701	Sololá	1	Sololá	2	Febrero	2023-02-24T00:00:00	2024-11-08T17:00:00	2	Temperatura media	18.1
8434	7	Sololá	701	Sololá	1	Sololá	2	Febrero	2023-02-24T00:00:00	2024-11-08T17:00:00	4	Temperatura máxima	20.4
8435	7	Sololá	701	Sololá	1	Sololá	2	Febrero	2023-02-24T00:00:00	2024-11-08T17:00:00	3	Temperatura mínima	18.1
8436	7	Sololá	701	Sololá	1	Sololá	2	Febrero	2023-02-24T00:00:00	2024-11-08T17:00:00	5	Humedad	78
8437	7	Sololá	701	Sololá	1	Sololá	2	Febrero	2023-02-24T00:00:00	2024-11-08T17:00:00	6	Velocidad del viento	0
8438	7	Sololá	701	Sololá	1	Sololá	2	Febrero	2023-02-24T00:00:00	2024-11-08T17:00:00	7	Dirección del viento	0
8439	7	Sololá	701	Sololá	1	Sololá	2	Febrero	2023-02-24T00:00:00	2024-11-08T17:00:00	1	Precipitación	0
8440	7	Sololá	701	Sololá	1	Sololá	2	Febrero	2023-02-24T00:00:00	2024-11-08T17:00:00	8	Radiación solar	120
8441	7	Sololá	701	Sololá	1	Sololá	2	Febrero	2023-02-24T00:00:00	2024-11-08T18:00:00	2	Temperatura media	17.3
8442	7	Sololá	701	Sololá	1	Sololá	2	Febrero	2023-02-24T00:00:00	2024-11-08T18:00:00	4	Temperatura máxima	18.2
8443	7	Sololá	701	Sololá	1	Sololá	2	Febrero	2023-02-24T00:00:00	2024-11-08T18:00:00	3	Temperatura mínima	17.3
8444	7	Sololá	701	Sololá	1	Sololá	2	Febrero	2023-02-24T00:00:00	2024-11-08T18:00:00	5	Humedad	81
8445	7	Sololá	701	Sololá	1	Sololá	2	Febrero	2023-02-24T00:00:00	2024-11-08T18:00:00	6	Velocidad del viento	0
8446	7	Sololá	701	Sololá	1	Sololá	2	Febrero	2023-02-24T00:00:00	2024-11-08T18:00:00	7	Dirección del viento	0
8447	7	Sololá	701	Sololá	1	Sololá	2	Febrero	2023-02-24T00:00:00	2024-11-08T18:00:00	1	Precipitación	0
8448	7	Sololá	701	Sololá	1	Sololá	2	Febrero	2023-02-24T00:00:00	2024-11-08T18:00:00	8	Radiación solar	51
8449	7	Sololá	701	Sololá	1	Sololá	2	Febrero	2023-02-24T00:00:00	2024-11-08T19:00:00	2	Temperatura media	15.1
8450	7	Sololá	701	Sololá	1	Sololá	2	Febrero	2023-02-24T00:00:00	2024-11-08T19:00:00	4	Temperatura máxima	17.3
8451	7	Sololá	701	Sololá	1	Sololá	2	Febrero	2023-02-24T00:00:00	2024-11-08T19:00:00	3	Temperatura mínima	15.1
8452	7	Sololá	701	Sololá	1	Sololá	2	Febrero	2023-02-24T00:00:00	2024-11-08T19:00:00	5	Humedad	77
8453	7	Sololá	701	Sololá	1	Sololá	2	Febrero	2023-02-24T00:00:00	2024-11-08T19:00:00	6	Velocidad del viento	0
8454	7	Sololá	701	Sololá	1	Sololá	2	Febrero	2023-02-24T00:00:00	2024-11-08T19:00:00	7	Dirección del viento	0
8455	7	Sololá	701	Sololá	1	Sololá	2	Febrero	2023-02-24T00:00:00	2024-11-08T19:00:00	1	Precipitación	0
8456	7	Sololá	701	Sololá	1	Sololá	2	Febrero	2023-02-24T00:00:00	2024-11-08T19:00:00	8	Radiación solar	0
8457	7	Sololá	701	Sololá	1	Sololá	2	Febrero	2023-02-24T00:00:00	2024-11-08T20:00:00	2	Temperatura media	14.8
8458	7	Sololá	701	Sololá	1	Sololá	2	Febrero	2023-02-24T00:00:00	2024-11-08T20:00:00	4	Temperatura máxima	15.1
8459	7	Sololá	701	Sololá	1	Sololá	2	Febrero	2023-02-24T00:00:00	2024-11-08T20:00:00	3	Temperatura mínima	14.5
8460	7	Sololá	701	Sololá	1	Sololá	2	Febrero	2023-02-24T00:00:00	2024-11-08T20:00:00	5	Humedad	72
8461	7	Sololá	701	Sololá	1	Sololá	2	Febrero	2023-02-24T00:00:00	2024-11-08T20:00:00	6	Velocidad del viento	0
8462	7	Sololá	701	Sololá	1	Sololá	2	Febrero	2023-02-24T00:00:00	2024-11-08T20:00:00	7	Dirección del viento	0
8463	7	Sololá	701	Sololá	1	Sololá	2	Febrero	2023-02-24T00:00:00	2024-11-08T20:00:00	1	Precipitación	0
8464	7	Sololá	701	Sololá	1	Sololá	2	Febrero	2023-02-24T00:00:00	2024-11-08T20:00:00	8	Radiación solar	0
8465	7	Sololá	701	Sololá	1	Sololá	2	Febrero	2023-02-24T00:00:00	2024-11-08T21:00:00	2	Temperatura media	14.7
8466	7	Sololá	701	Sololá	1	Sololá	2	Febrero	2023-02-24T00:00:00	2024-11-08T21:00:00	4	Temperatura máxima	14.9
8467	7	Sololá	701	Sololá	1	Sololá	2	Febrero	2023-02-24T00:00:00	2024-11-08T21:00:00	3	Temperatura mínima	14.6
8468	7	Sololá	701	Sololá	1	Sololá	2	Febrero	2023-02-24T00:00:00	2024-11-08T21:00:00	5	Humedad	80
8469	7	Sololá	701	Sololá	1	Sololá	2	Febrero	2023-02-24T00:00:00	2024-11-08T21:00:00	6	Velocidad del viento	0
8470	7	Sololá	701	Sololá	1	Sololá	2	Febrero	2023-02-24T00:00:00	2024-11-08T21:00:00	7	Dirección del viento	0
8471	7	Sololá	701	Sololá	1	Sololá	2	Febrero	2023-02-24T00:00:00	2024-11-08T21:00:00	1	Precipitación	0
8472	7	Sololá	701	Sololá	1	Sololá	2	Febrero	2023-02-24T00:00:00	2024-11-08T21:00:00	8	Radiación solar	0
8473	7	Sololá	701	Sololá	1	Sololá	2	Febrero	2023-02-24T00:00:00	2024-11-08T22:00:00	2	Temperatura media	14.3
8474	7	Sololá	701	Sololá	1	Sololá	2	Febrero	2023-02-24T00:00:00	2024-11-08T22:00:00	4	Temperatura máxima	14.7
8475	7	Sololá	701	Sololá	1	Sololá	2	Febrero	2023-02-24T00:00:00	2024-11-08T22:00:00	3	Temperatura mínima	14.3
8476	7	Sololá	701	Sololá	1	Sololá	2	Febrero	2023-02-24T00:00:00	2024-11-08T22:00:00	5	Humedad	80
8477	7	Sololá	701	Sololá	1	Sololá	2	Febrero	2023-02-24T00:00:00	2024-11-08T22:00:00	6	Velocidad del viento	0
8478	7	Sololá	701	Sololá	1	Sololá	2	Febrero	2023-02-24T00:00:00	2024-11-08T22:00:00	7	Dirección del viento	0
8479	7	Sololá	701	Sololá	1	Sololá	2	Febrero	2023-02-24T00:00:00	2024-11-08T22:00:00	1	Precipitación	0
8480	7	Sololá	701	Sololá	1	Sololá	2	Febrero	2023-02-24T00:00:00	2024-11-08T22:00:00	8	Radiación solar	0
8481	7	Sololá	701	Sololá	1	Sololá	2	Febrero	2023-02-24T00:00:00	2024-11-08T23:00:00	2	Temperatura media	13.7
8482	7	Sololá	701	Sololá	1	Sololá	2	Febrero	2023-02-24T00:00:00	2024-11-08T23:00:00	4	Temperatura máxima	14.3
8483	7	Sololá	701	Sololá	1	Sololá	2	Febrero	2023-02-24T00:00:00	2024-11-08T23:00:00	3	Temperatura mínima	13.7
8484	7	Sololá	701	Sololá	1	Sololá	2	Febrero	2023-02-24T00:00:00	2024-11-08T23:00:00	5	Humedad	79
8485	7	Sololá	701	Sololá	1	Sololá	2	Febrero	2023-02-24T00:00:00	2024-11-08T23:00:00	6	Velocidad del viento	0
8486	7	Sololá	701	Sololá	1	Sololá	2	Febrero	2023-02-24T00:00:00	2024-11-08T23:00:00	7	Dirección del viento	0
8487	7	Sololá	701	Sololá	1	Sololá	2	Febrero	2023-02-24T00:00:00	2024-11-08T23:00:00	1	Precipitación	0
8488	7	Sololá	701	Sololá	1	Sololá	2	Febrero	2023-02-24T00:00:00	2024-11-08T23:00:00	8	Radiación solar	0
8489	7	Sololá	701	Sololá	1	Sololá	2	Febrero	2023-02-25T00:00:00	2024-11-08T00:00:00	2	Temperatura media	12.8
8490	7	Sololá	701	Sololá	1	Sololá	2	Febrero	2023-02-25T00:00:00	2024-11-08T00:00:00	4	Temperatura máxima	13.7
8491	7	Sololá	701	Sololá	1	Sololá	2	Febrero	2023-02-25T00:00:00	2024-11-08T00:00:00	3	Temperatura mínima	12.8
8492	7	Sololá	701	Sololá	1	Sololá	2	Febrero	2023-02-25T00:00:00	2024-11-08T00:00:00	5	Humedad	79
8493	7	Sololá	701	Sololá	1	Sololá	2	Febrero	2023-02-25T00:00:00	2024-11-08T00:00:00	6	Velocidad del viento	0
8494	7	Sololá	701	Sololá	1	Sololá	2	Febrero	2023-02-25T00:00:00	2024-11-08T00:00:00	7	Dirección del viento	0
8495	7	Sololá	701	Sololá	1	Sololá	2	Febrero	2023-02-25T00:00:00	2024-11-08T00:00:00	1	Precipitación	0
8496	7	Sololá	701	Sololá	1	Sololá	2	Febrero	2023-02-25T00:00:00	2024-11-08T00:00:00	8	Radiación solar	0
8497	7	Sololá	701	Sololá	1	Sololá	2	Febrero	2023-02-25T00:00:00	2024-11-08T01:00:00	2	Temperatura media	12.4
8498	7	Sololá	701	Sololá	1	Sololá	2	Febrero	2023-02-25T00:00:00	2024-11-08T01:00:00	4	Temperatura máxima	12.8
8499	7	Sololá	701	Sololá	1	Sololá	2	Febrero	2023-02-25T00:00:00	2024-11-08T01:00:00	3	Temperatura mínima	12.4
8500	7	Sololá	701	Sololá	1	Sololá	2	Febrero	2023-02-25T00:00:00	2024-11-08T01:00:00	5	Humedad	74
8501	7	Sololá	701	Sololá	1	Sololá	2	Febrero	2023-02-25T00:00:00	2024-11-08T01:00:00	6	Velocidad del viento	0
8502	7	Sololá	701	Sololá	1	Sololá	2	Febrero	2023-02-25T00:00:00	2024-11-08T01:00:00	7	Dirección del viento	0
8503	7	Sololá	701	Sololá	1	Sololá	2	Febrero	2023-02-25T00:00:00	2024-11-08T01:00:00	1	Precipitación	0
8504	7	Sololá	701	Sololá	1	Sololá	2	Febrero	2023-02-25T00:00:00	2024-11-08T01:00:00	8	Radiación solar	0
8505	7	Sololá	701	Sololá	1	Sololá	2	Febrero	2023-02-25T00:00:00	2024-11-08T02:00:00	2	Temperatura media	11.4
8506	7	Sololá	701	Sololá	1	Sololá	2	Febrero	2023-02-25T00:00:00	2024-11-08T02:00:00	4	Temperatura máxima	12.4
8507	7	Sololá	701	Sololá	1	Sololá	2	Febrero	2023-02-25T00:00:00	2024-11-08T02:00:00	3	Temperatura mínima	11.3
8508	7	Sololá	701	Sololá	1	Sololá	2	Febrero	2023-02-25T00:00:00	2024-11-08T02:00:00	5	Humedad	71
8509	7	Sololá	701	Sololá	1	Sololá	2	Febrero	2023-02-25T00:00:00	2024-11-08T02:00:00	6	Velocidad del viento	0
8510	7	Sololá	701	Sololá	1	Sololá	2	Febrero	2023-02-25T00:00:00	2024-11-08T02:00:00	7	Dirección del viento	0
8511	7	Sololá	701	Sololá	1	Sololá	2	Febrero	2023-02-25T00:00:00	2024-11-08T02:00:00	1	Precipitación	0
8512	7	Sololá	701	Sololá	1	Sololá	2	Febrero	2023-02-25T00:00:00	2024-11-08T02:00:00	8	Radiación solar	0
8513	7	Sololá	701	Sololá	1	Sololá	2	Febrero	2023-02-25T00:00:00	2024-11-08T03:00:00	2	Temperatura media	11.4
8514	7	Sololá	701	Sololá	1	Sololá	2	Febrero	2023-02-25T00:00:00	2024-11-08T03:00:00	4	Temperatura máxima	11.4
8515	7	Sololá	701	Sololá	1	Sololá	2	Febrero	2023-02-25T00:00:00	2024-11-08T03:00:00	3	Temperatura mínima	11.3
8516	7	Sololá	701	Sololá	1	Sololá	2	Febrero	2023-02-25T00:00:00	2024-11-08T03:00:00	5	Humedad	74
8517	7	Sololá	701	Sololá	1	Sololá	2	Febrero	2023-02-25T00:00:00	2024-11-08T03:00:00	6	Velocidad del viento	0
8518	7	Sololá	701	Sololá	1	Sololá	2	Febrero	2023-02-25T00:00:00	2024-11-08T03:00:00	7	Dirección del viento	0
8519	7	Sololá	701	Sololá	1	Sololá	2	Febrero	2023-02-25T00:00:00	2024-11-08T03:00:00	1	Precipitación	0
8520	7	Sololá	701	Sololá	1	Sololá	2	Febrero	2023-02-25T00:00:00	2024-11-08T03:00:00	8	Radiación solar	0
8521	7	Sololá	701	Sololá	1	Sololá	2	Febrero	2023-02-25T00:00:00	2024-11-08T04:00:00	2	Temperatura media	10.7
8522	7	Sololá	701	Sololá	1	Sololá	2	Febrero	2023-02-25T00:00:00	2024-11-08T04:00:00	4	Temperatura máxima	11.4
8523	7	Sololá	701	Sololá	1	Sololá	2	Febrero	2023-02-25T00:00:00	2024-11-08T04:00:00	3	Temperatura mínima	10.7
8524	7	Sololá	701	Sololá	1	Sololá	2	Febrero	2023-02-25T00:00:00	2024-11-08T04:00:00	5	Humedad	75
8525	7	Sololá	701	Sololá	1	Sololá	2	Febrero	2023-02-25T00:00:00	2024-11-08T04:00:00	6	Velocidad del viento	0
8526	7	Sololá	701	Sololá	1	Sololá	2	Febrero	2023-02-25T00:00:00	2024-11-08T04:00:00	7	Dirección del viento	0
8527	7	Sololá	701	Sololá	1	Sololá	2	Febrero	2023-02-25T00:00:00	2024-11-08T04:00:00	1	Precipitación	0
8528	7	Sololá	701	Sololá	1	Sololá	2	Febrero	2023-02-25T00:00:00	2024-11-08T04:00:00	8	Radiación solar	0
8529	7	Sololá	701	Sololá	1	Sololá	2	Febrero	2023-02-25T00:00:00	2024-11-08T05:00:00	2	Temperatura media	10.6
8530	7	Sololá	701	Sololá	1	Sololá	2	Febrero	2023-02-25T00:00:00	2024-11-08T05:00:00	4	Temperatura máxima	11.1
8531	7	Sololá	701	Sololá	1	Sololá	2	Febrero	2023-02-25T00:00:00	2024-11-08T05:00:00	3	Temperatura mínima	10.6
8532	7	Sololá	701	Sololá	1	Sololá	2	Febrero	2023-02-25T00:00:00	2024-11-08T05:00:00	5	Humedad	75
8533	7	Sololá	701	Sololá	1	Sololá	2	Febrero	2023-02-25T00:00:00	2024-11-08T05:00:00	6	Velocidad del viento	0
8534	7	Sololá	701	Sololá	1	Sololá	2	Febrero	2023-02-25T00:00:00	2024-11-08T05:00:00	7	Dirección del viento	0
8535	7	Sololá	701	Sololá	1	Sololá	2	Febrero	2023-02-25T00:00:00	2024-11-08T05:00:00	1	Precipitación	0
8536	7	Sololá	701	Sololá	1	Sololá	2	Febrero	2023-02-25T00:00:00	2024-11-08T05:00:00	8	Radiación solar	0
8537	7	Sololá	701	Sololá	1	Sololá	2	Febrero	2023-02-25T00:00:00	2024-11-08T06:00:00	2	Temperatura media	9.9
8538	7	Sololá	701	Sololá	1	Sololá	2	Febrero	2023-02-25T00:00:00	2024-11-08T06:00:00	4	Temperatura máxima	10.6
8539	7	Sololá	701	Sololá	1	Sololá	2	Febrero	2023-02-25T00:00:00	2024-11-08T06:00:00	3	Temperatura mínima	9.8
8540	7	Sololá	701	Sololá	1	Sololá	2	Febrero	2023-02-25T00:00:00	2024-11-08T06:00:00	5	Humedad	76
8541	7	Sololá	701	Sololá	1	Sololá	2	Febrero	2023-02-25T00:00:00	2024-11-08T06:00:00	6	Velocidad del viento	0
8542	7	Sololá	701	Sololá	1	Sololá	2	Febrero	2023-02-25T00:00:00	2024-11-08T06:00:00	7	Dirección del viento	0
8543	7	Sololá	701	Sololá	1	Sololá	2	Febrero	2023-02-25T00:00:00	2024-11-08T06:00:00	1	Precipitación	0
8544	7	Sololá	701	Sololá	1	Sololá	2	Febrero	2023-02-25T00:00:00	2024-11-08T06:00:00	8	Radiación solar	0
8545	7	Sololá	701	Sololá	1	Sololá	2	Febrero	2023-02-25T00:00:00	2024-11-08T07:00:00	2	Temperatura media	10.4
8546	7	Sololá	701	Sololá	1	Sololá	2	Febrero	2023-02-25T00:00:00	2024-11-08T07:00:00	4	Temperatura máxima	10.5
8547	7	Sololá	701	Sololá	1	Sololá	2	Febrero	2023-02-25T00:00:00	2024-11-08T07:00:00	3	Temperatura mínima	9.9
8548	7	Sololá	701	Sololá	1	Sololá	2	Febrero	2023-02-25T00:00:00	2024-11-08T07:00:00	5	Humedad	75
8549	7	Sololá	701	Sololá	1	Sololá	2	Febrero	2023-02-25T00:00:00	2024-11-08T07:00:00	6	Velocidad del viento	0
8550	7	Sololá	701	Sololá	1	Sololá	2	Febrero	2023-02-25T00:00:00	2024-11-08T07:00:00	7	Dirección del viento	0
8551	7	Sololá	701	Sololá	1	Sololá	2	Febrero	2023-02-25T00:00:00	2024-11-08T07:00:00	1	Precipitación	0
8552	7	Sololá	701	Sololá	1	Sololá	2	Febrero	2023-02-25T00:00:00	2024-11-08T07:00:00	8	Radiación solar	5
8553	7	Sololá	701	Sololá	1	Sololá	2	Febrero	2023-02-25T00:00:00	2024-11-08T08:00:00	2	Temperatura media	12.9
8554	7	Sololá	701	Sololá	1	Sololá	2	Febrero	2023-02-25T00:00:00	2024-11-08T08:00:00	4	Temperatura máxima	12.9
8555	7	Sololá	701	Sololá	1	Sololá	2	Febrero	2023-02-25T00:00:00	2024-11-08T08:00:00	3	Temperatura mínima	10.4
8556	7	Sololá	701	Sololá	1	Sololá	2	Febrero	2023-02-25T00:00:00	2024-11-08T08:00:00	5	Humedad	65
8557	7	Sololá	701	Sololá	1	Sololá	2	Febrero	2023-02-25T00:00:00	2024-11-08T08:00:00	6	Velocidad del viento	0
8558	7	Sololá	701	Sololá	1	Sololá	2	Febrero	2023-02-25T00:00:00	2024-11-08T08:00:00	7	Dirección del viento	0
8559	7	Sololá	701	Sololá	1	Sololá	2	Febrero	2023-02-25T00:00:00	2024-11-08T08:00:00	1	Precipitación	0
8560	7	Sololá	701	Sololá	1	Sololá	2	Febrero	2023-02-25T00:00:00	2024-11-08T08:00:00	8	Radiación solar	26
8561	7	Sololá	701	Sololá	1	Sololá	2	Febrero	2023-02-25T00:00:00	2024-11-08T09:00:00	2	Temperatura media	19.4
8562	7	Sololá	701	Sololá	1	Sololá	2	Febrero	2023-02-25T00:00:00	2024-11-08T09:00:00	4	Temperatura máxima	19.4
8563	7	Sololá	701	Sololá	1	Sololá	2	Febrero	2023-02-25T00:00:00	2024-11-08T09:00:00	3	Temperatura mínima	12.9
8564	7	Sololá	701	Sololá	1	Sololá	2	Febrero	2023-02-25T00:00:00	2024-11-08T09:00:00	5	Humedad	49
8565	7	Sololá	701	Sololá	1	Sololá	2	Febrero	2023-02-25T00:00:00	2024-11-08T09:00:00	6	Velocidad del viento	0
8566	7	Sololá	701	Sololá	1	Sololá	2	Febrero	2023-02-25T00:00:00	2024-11-08T09:00:00	7	Dirección del viento	0
8567	7	Sololá	701	Sololá	1	Sololá	2	Febrero	2023-02-25T00:00:00	2024-11-08T09:00:00	1	Precipitación	0
8568	7	Sololá	701	Sololá	1	Sololá	2	Febrero	2023-02-25T00:00:00	2024-11-08T09:00:00	8	Radiación solar	412
8569	7	Sololá	701	Sololá	1	Sololá	2	Febrero	2023-02-25T00:00:00	2024-11-08T10:00:00	2	Temperatura media	22.4
8570	7	Sololá	701	Sololá	1	Sololá	2	Febrero	2023-02-25T00:00:00	2024-11-08T10:00:00	4	Temperatura máxima	22.4
8571	7	Sololá	701	Sololá	1	Sololá	2	Febrero	2023-02-25T00:00:00	2024-11-08T10:00:00	3	Temperatura mínima	19.4
8572	7	Sololá	701	Sololá	1	Sololá	2	Febrero	2023-02-25T00:00:00	2024-11-08T10:00:00	5	Humedad	36
8573	7	Sololá	701	Sololá	1	Sololá	2	Febrero	2023-02-25T00:00:00	2024-11-08T10:00:00	6	Velocidad del viento	0
8574	7	Sololá	701	Sololá	1	Sololá	2	Febrero	2023-02-25T00:00:00	2024-11-08T10:00:00	7	Dirección del viento	0
8575	7	Sololá	701	Sololá	1	Sololá	2	Febrero	2023-02-25T00:00:00	2024-11-08T10:00:00	1	Precipitación	0
8576	7	Sololá	701	Sololá	1	Sololá	2	Febrero	2023-02-25T00:00:00	2024-11-08T10:00:00	8	Radiación solar	713
8577	7	Sololá	701	Sololá	1	Sololá	2	Febrero	2023-02-25T00:00:00	2024-11-08T11:00:00	2	Temperatura media	23.2
8578	7	Sololá	701	Sololá	1	Sololá	2	Febrero	2023-02-25T00:00:00	2024-11-08T11:00:00	4	Temperatura máxima	23.3
8579	7	Sololá	701	Sololá	1	Sololá	2	Febrero	2023-02-25T00:00:00	2024-11-08T11:00:00	3	Temperatura mínima	22.4
8580	7	Sololá	701	Sololá	1	Sololá	2	Febrero	2023-02-25T00:00:00	2024-11-08T11:00:00	5	Humedad	44
8581	7	Sololá	701	Sololá	1	Sololá	2	Febrero	2023-02-25T00:00:00	2024-11-08T11:00:00	6	Velocidad del viento	0
8582	7	Sololá	701	Sololá	1	Sololá	2	Febrero	2023-02-25T00:00:00	2024-11-08T11:00:00	7	Dirección del viento	0
8583	7	Sololá	701	Sololá	1	Sololá	2	Febrero	2023-02-25T00:00:00	2024-11-08T11:00:00	1	Precipitación	0
8584	7	Sololá	701	Sololá	1	Sololá	2	Febrero	2023-02-25T00:00:00	2024-11-08T11:00:00	8	Radiación solar	847
8585	7	Sololá	701	Sololá	1	Sololá	2	Febrero	2023-02-25T00:00:00	2024-11-08T12:00:00	2	Temperatura media	23.8
8586	7	Sololá	701	Sololá	1	Sololá	2	Febrero	2023-02-25T00:00:00	2024-11-08T12:00:00	4	Temperatura máxima	23.9
8587	7	Sololá	701	Sololá	1	Sololá	2	Febrero	2023-02-25T00:00:00	2024-11-08T12:00:00	3	Temperatura mínima	23.2
8588	7	Sololá	701	Sololá	1	Sololá	2	Febrero	2023-02-25T00:00:00	2024-11-08T12:00:00	5	Humedad	40
8589	7	Sololá	701	Sololá	1	Sololá	2	Febrero	2023-02-25T00:00:00	2024-11-08T12:00:00	6	Velocidad del viento	0
8590	7	Sololá	701	Sololá	1	Sololá	2	Febrero	2023-02-25T00:00:00	2024-11-08T12:00:00	7	Dirección del viento	0
8591	7	Sololá	701	Sololá	1	Sololá	2	Febrero	2023-02-25T00:00:00	2024-11-08T12:00:00	1	Precipitación	0
8592	7	Sololá	701	Sololá	1	Sololá	2	Febrero	2023-02-25T00:00:00	2024-11-08T12:00:00	8	Radiación solar	920
8593	7	Sololá	701	Sololá	1	Sololá	2	Febrero	2023-02-25T00:00:00	2024-11-08T13:00:00	2	Temperatura media	24
8594	7	Sololá	701	Sololá	1	Sololá	2	Febrero	2023-02-25T00:00:00	2024-11-08T13:00:00	4	Temperatura máxima	24.6
8595	7	Sololá	701	Sololá	1	Sololá	2	Febrero	2023-02-25T00:00:00	2024-11-08T13:00:00	3	Temperatura mínima	23.8
8596	7	Sololá	701	Sololá	1	Sololá	2	Febrero	2023-02-25T00:00:00	2024-11-08T13:00:00	5	Humedad	44
8597	7	Sololá	701	Sololá	1	Sololá	2	Febrero	2023-02-25T00:00:00	2024-11-08T13:00:00	6	Velocidad del viento	0
8598	7	Sololá	701	Sololá	1	Sololá	2	Febrero	2023-02-25T00:00:00	2024-11-08T13:00:00	7	Dirección del viento	0
8599	7	Sololá	701	Sololá	1	Sololá	2	Febrero	2023-02-25T00:00:00	2024-11-08T13:00:00	1	Precipitación	0
8600	7	Sololá	701	Sololá	1	Sololá	2	Febrero	2023-02-25T00:00:00	2024-11-08T13:00:00	8	Radiación solar	924
8601	7	Sololá	701	Sololá	1	Sololá	2	Febrero	2023-02-25T00:00:00	2024-11-08T14:00:00	2	Temperatura media	23.1
8602	7	Sololá	701	Sololá	1	Sololá	2	Febrero	2023-02-25T00:00:00	2024-11-08T14:00:00	4	Temperatura máxima	24.4
8603	7	Sololá	701	Sololá	1	Sololá	2	Febrero	2023-02-25T00:00:00	2024-11-08T14:00:00	3	Temperatura mínima	23.1
8604	7	Sololá	701	Sololá	1	Sololá	2	Febrero	2023-02-25T00:00:00	2024-11-08T14:00:00	5	Humedad	60
8605	7	Sololá	701	Sololá	1	Sololá	2	Febrero	2023-02-25T00:00:00	2024-11-08T14:00:00	6	Velocidad del viento	0
8606	7	Sololá	701	Sololá	1	Sololá	2	Febrero	2023-02-25T00:00:00	2024-11-08T14:00:00	7	Dirección del viento	0
8607	7	Sololá	701	Sololá	1	Sololá	2	Febrero	2023-02-25T00:00:00	2024-11-08T14:00:00	1	Precipitación	0
8608	7	Sololá	701	Sololá	1	Sololá	2	Febrero	2023-02-25T00:00:00	2024-11-08T14:00:00	8	Radiación solar	851
8609	7	Sololá	701	Sololá	1	Sololá	2	Febrero	2023-02-25T00:00:00	2024-11-08T15:00:00	2	Temperatura media	22.5
8610	7	Sololá	701	Sololá	1	Sololá	2	Febrero	2023-02-25T00:00:00	2024-11-08T15:00:00	4	Temperatura máxima	23.1
8611	7	Sololá	701	Sololá	1	Sololá	2	Febrero	2023-02-25T00:00:00	2024-11-08T15:00:00	3	Temperatura mínima	22.5
8612	7	Sololá	701	Sololá	1	Sololá	2	Febrero	2023-02-25T00:00:00	2024-11-08T15:00:00	5	Humedad	63
8613	7	Sololá	701	Sololá	1	Sololá	2	Febrero	2023-02-25T00:00:00	2024-11-08T15:00:00	6	Velocidad del viento	0
8614	7	Sololá	701	Sololá	1	Sololá	2	Febrero	2023-02-25T00:00:00	2024-11-08T15:00:00	7	Dirección del viento	0
8615	7	Sololá	701	Sololá	1	Sololá	2	Febrero	2023-02-25T00:00:00	2024-11-08T15:00:00	1	Precipitación	0
8616	7	Sololá	701	Sololá	1	Sololá	2	Febrero	2023-02-25T00:00:00	2024-11-08T15:00:00	8	Radiación solar	100
8617	7	Sololá	701	Sololá	1	Sololá	2	Febrero	2023-02-25T00:00:00	2024-11-08T16:00:00	2	Temperatura media	21.9
8618	7	Sololá	701	Sololá	1	Sololá	2	Febrero	2023-02-25T00:00:00	2024-11-08T16:00:00	4	Temperatura máxima	22.6
8619	7	Sololá	701	Sololá	1	Sololá	2	Febrero	2023-02-25T00:00:00	2024-11-08T16:00:00	3	Temperatura mínima	21.9
8620	7	Sololá	701	Sololá	1	Sololá	2	Febrero	2023-02-25T00:00:00	2024-11-08T16:00:00	5	Humedad	67
8621	7	Sololá	701	Sololá	1	Sololá	2	Febrero	2023-02-25T00:00:00	2024-11-08T16:00:00	6	Velocidad del viento	0
8622	7	Sololá	701	Sololá	1	Sololá	2	Febrero	2023-02-25T00:00:00	2024-11-08T16:00:00	7	Dirección del viento	0
8623	7	Sololá	701	Sololá	1	Sololá	2	Febrero	2023-02-25T00:00:00	2024-11-08T16:00:00	1	Precipitación	0
8624	7	Sololá	701	Sololá	1	Sololá	2	Febrero	2023-02-25T00:00:00	2024-11-08T16:00:00	8	Radiación solar	86
8625	7	Sololá	701	Sololá	1	Sololá	2	Febrero	2023-02-25T00:00:00	2024-11-08T17:00:00	2	Temperatura media	20.4
8626	7	Sololá	701	Sololá	1	Sololá	2	Febrero	2023-02-25T00:00:00	2024-11-08T17:00:00	4	Temperatura máxima	21.9
8627	7	Sololá	701	Sololá	1	Sololá	2	Febrero	2023-02-25T00:00:00	2024-11-08T17:00:00	3	Temperatura mínima	20.2
8628	7	Sololá	701	Sololá	1	Sololá	2	Febrero	2023-02-25T00:00:00	2024-11-08T17:00:00	5	Humedad	73
8629	7	Sololá	701	Sololá	1	Sololá	2	Febrero	2023-02-25T00:00:00	2024-11-08T17:00:00	6	Velocidad del viento	0
8630	7	Sololá	701	Sololá	1	Sololá	2	Febrero	2023-02-25T00:00:00	2024-11-08T17:00:00	7	Dirección del viento	0
8631	7	Sololá	701	Sololá	1	Sololá	2	Febrero	2023-02-25T00:00:00	2024-11-08T17:00:00	1	Precipitación	0
8632	7	Sololá	701	Sololá	1	Sololá	2	Febrero	2023-02-25T00:00:00	2024-11-08T17:00:00	8	Radiación solar	46
8633	7	Sololá	701	Sololá	1	Sololá	2	Febrero	2023-02-25T00:00:00	2024-11-08T18:00:00	2	Temperatura media	19.9
8634	7	Sololá	701	Sololá	1	Sololá	2	Febrero	2023-02-25T00:00:00	2024-11-08T18:00:00	4	Temperatura máxima	20.5
8635	7	Sololá	701	Sololá	1	Sololá	2	Febrero	2023-02-25T00:00:00	2024-11-08T18:00:00	3	Temperatura mínima	19.9
8636	7	Sololá	701	Sololá	1	Sololá	2	Febrero	2023-02-25T00:00:00	2024-11-08T18:00:00	5	Humedad	58
8637	7	Sololá	701	Sololá	1	Sololá	2	Febrero	2023-02-25T00:00:00	2024-11-08T18:00:00	6	Velocidad del viento	0
8638	7	Sololá	701	Sololá	1	Sololá	2	Febrero	2023-02-25T00:00:00	2024-11-08T18:00:00	7	Dirección del viento	0
8639	7	Sololá	701	Sololá	1	Sololá	2	Febrero	2023-02-25T00:00:00	2024-11-08T18:00:00	1	Precipitación	0
8640	7	Sololá	701	Sololá	1	Sololá	2	Febrero	2023-02-25T00:00:00	2024-11-08T18:00:00	8	Radiación solar	24
8641	7	Sololá	701	Sololá	1	Sololá	2	Febrero	2023-02-25T00:00:00	2024-11-08T19:00:00	2	Temperatura media	16.9
8642	7	Sololá	701	Sololá	1	Sololá	2	Febrero	2023-02-25T00:00:00	2024-11-08T19:00:00	4	Temperatura máxima	19.9
8643	7	Sololá	701	Sololá	1	Sololá	2	Febrero	2023-02-25T00:00:00	2024-11-08T19:00:00	3	Temperatura mínima	16.9
8644	7	Sololá	701	Sololá	1	Sololá	2	Febrero	2023-02-25T00:00:00	2024-11-08T19:00:00	5	Humedad	70
8645	7	Sololá	701	Sololá	1	Sololá	2	Febrero	2023-02-25T00:00:00	2024-11-08T19:00:00	6	Velocidad del viento	0
8646	7	Sololá	701	Sololá	1	Sololá	2	Febrero	2023-02-25T00:00:00	2024-11-08T19:00:00	7	Dirección del viento	0
8647	7	Sololá	701	Sololá	1	Sololá	2	Febrero	2023-02-25T00:00:00	2024-11-08T19:00:00	1	Precipitación	0
8648	7	Sololá	701	Sololá	1	Sololá	2	Febrero	2023-02-25T00:00:00	2024-11-08T19:00:00	8	Radiación solar	0
8649	7	Sololá	701	Sololá	1	Sololá	2	Febrero	2023-02-25T00:00:00	2024-11-08T20:00:00	2	Temperatura media	15.2
8650	7	Sololá	701	Sololá	1	Sololá	2	Febrero	2023-02-25T00:00:00	2024-11-08T20:00:00	4	Temperatura máxima	16.9
8651	7	Sololá	701	Sololá	1	Sololá	2	Febrero	2023-02-25T00:00:00	2024-11-08T20:00:00	3	Temperatura mínima	15.2
8652	7	Sololá	701	Sololá	1	Sololá	2	Febrero	2023-02-25T00:00:00	2024-11-08T20:00:00	5	Humedad	75
8653	7	Sololá	701	Sololá	1	Sololá	2	Febrero	2023-02-25T00:00:00	2024-11-08T20:00:00	6	Velocidad del viento	0
8654	7	Sololá	701	Sololá	1	Sololá	2	Febrero	2023-02-25T00:00:00	2024-11-08T20:00:00	7	Dirección del viento	0
8655	7	Sololá	701	Sololá	1	Sololá	2	Febrero	2023-02-25T00:00:00	2024-11-08T20:00:00	1	Precipitación	0
8656	7	Sololá	701	Sololá	1	Sololá	2	Febrero	2023-02-25T00:00:00	2024-11-08T20:00:00	8	Radiación solar	0
8657	7	Sololá	701	Sololá	1	Sololá	2	Febrero	2023-02-25T00:00:00	2024-11-08T21:00:00	2	Temperatura media	14.5
8658	7	Sololá	701	Sololá	1	Sololá	2	Febrero	2023-02-25T00:00:00	2024-11-08T21:00:00	4	Temperatura máxima	15.3
8659	7	Sololá	701	Sololá	1	Sololá	2	Febrero	2023-02-25T00:00:00	2024-11-08T21:00:00	3	Temperatura mínima	14.4
8660	7	Sololá	701	Sololá	1	Sololá	2	Febrero	2023-02-25T00:00:00	2024-11-08T21:00:00	5	Humedad	76
8661	7	Sololá	701	Sololá	1	Sololá	2	Febrero	2023-02-25T00:00:00	2024-11-08T21:00:00	6	Velocidad del viento	1.6
8662	7	Sololá	701	Sololá	1	Sololá	2	Febrero	2023-02-25T00:00:00	2024-11-08T21:00:00	7	Dirección del viento	1.61
8663	7	Sololá	701	Sololá	1	Sololá	2	Febrero	2023-02-25T00:00:00	2024-11-08T21:00:00	1	Precipitación	0
8664	7	Sololá	701	Sololá	1	Sololá	2	Febrero	2023-02-25T00:00:00	2024-11-08T21:00:00	8	Radiación solar	0
8665	7	Sololá	701	Sololá	1	Sololá	2	Febrero	2023-02-25T00:00:00	2024-11-08T22:00:00	2	Temperatura media	13.7
8666	7	Sololá	701	Sololá	1	Sololá	2	Febrero	2023-02-25T00:00:00	2024-11-08T22:00:00	4	Temperatura máxima	14.5
8667	7	Sololá	701	Sololá	1	Sololá	2	Febrero	2023-02-25T00:00:00	2024-11-08T22:00:00	3	Temperatura mínima	13.7
8668	7	Sololá	701	Sololá	1	Sololá	2	Febrero	2023-02-25T00:00:00	2024-11-08T22:00:00	5	Humedad	74
8669	7	Sololá	701	Sololá	1	Sololá	2	Febrero	2023-02-25T00:00:00	2024-11-08T22:00:00	6	Velocidad del viento	0
8670	7	Sololá	701	Sololá	1	Sololá	2	Febrero	2023-02-25T00:00:00	2024-11-08T22:00:00	7	Dirección del viento	0
8671	7	Sololá	701	Sololá	1	Sololá	2	Febrero	2023-02-25T00:00:00	2024-11-08T22:00:00	1	Precipitación	0
8672	7	Sololá	701	Sololá	1	Sololá	2	Febrero	2023-02-25T00:00:00	2024-11-08T22:00:00	8	Radiación solar	0
8673	7	Sololá	701	Sololá	1	Sololá	2	Febrero	2023-02-25T00:00:00	2024-11-08T23:00:00	2	Temperatura media	13.1
8674	7	Sololá	701	Sololá	1	Sololá	2	Febrero	2023-02-25T00:00:00	2024-11-08T23:00:00	4	Temperatura máxima	13.7
8675	7	Sololá	701	Sololá	1	Sololá	2	Febrero	2023-02-25T00:00:00	2024-11-08T23:00:00	3	Temperatura mínima	13.1
8676	7	Sololá	701	Sololá	1	Sololá	2	Febrero	2023-02-25T00:00:00	2024-11-08T23:00:00	5	Humedad	75
8677	7	Sololá	701	Sololá	1	Sololá	2	Febrero	2023-02-25T00:00:00	2024-11-08T23:00:00	6	Velocidad del viento	0
8678	7	Sololá	701	Sololá	1	Sololá	2	Febrero	2023-02-25T00:00:00	2024-11-08T23:00:00	7	Dirección del viento	0
8679	7	Sololá	701	Sololá	1	Sololá	2	Febrero	2023-02-25T00:00:00	2024-11-08T23:00:00	1	Precipitación	0
8680	7	Sololá	701	Sololá	1	Sololá	2	Febrero	2023-02-25T00:00:00	2024-11-08T23:00:00	8	Radiación solar	0
8681	7	Sololá	701	Sololá	1	Sololá	2	Febrero	2023-02-26T00:00:00	2024-11-08T00:00:00	2	Temperatura media	12.5
8682	7	Sololá	701	Sololá	1	Sololá	2	Febrero	2023-02-26T00:00:00	2024-11-08T00:00:00	4	Temperatura máxima	13.1
8683	7	Sololá	701	Sololá	1	Sololá	2	Febrero	2023-02-26T00:00:00	2024-11-08T00:00:00	3	Temperatura mínima	12.4
8684	7	Sololá	701	Sololá	1	Sololá	2	Febrero	2023-02-26T00:00:00	2024-11-08T00:00:00	5	Humedad	74
8685	7	Sololá	701	Sololá	1	Sololá	2	Febrero	2023-02-26T00:00:00	2024-11-08T00:00:00	6	Velocidad del viento	0
8686	7	Sololá	701	Sololá	1	Sololá	2	Febrero	2023-02-26T00:00:00	2024-11-08T00:00:00	7	Dirección del viento	0
8687	7	Sololá	701	Sololá	1	Sololá	2	Febrero	2023-02-26T00:00:00	2024-11-08T00:00:00	1	Precipitación	0
8688	7	Sololá	701	Sololá	1	Sololá	2	Febrero	2023-02-26T00:00:00	2024-11-08T00:00:00	8	Radiación solar	0
8689	7	Sololá	701	Sololá	1	Sololá	2	Febrero	2023-02-26T00:00:00	2024-11-08T01:00:00	2	Temperatura media	11.9
8690	7	Sololá	701	Sololá	1	Sololá	2	Febrero	2023-02-26T00:00:00	2024-11-08T01:00:00	4	Temperatura máxima	12.5
8691	7	Sololá	701	Sololá	1	Sololá	2	Febrero	2023-02-26T00:00:00	2024-11-08T01:00:00	3	Temperatura mínima	11.6
8692	7	Sololá	701	Sololá	1	Sololá	2	Febrero	2023-02-26T00:00:00	2024-11-08T01:00:00	5	Humedad	78
8693	7	Sololá	701	Sololá	1	Sololá	2	Febrero	2023-02-26T00:00:00	2024-11-08T01:00:00	6	Velocidad del viento	0
8694	7	Sololá	701	Sololá	1	Sololá	2	Febrero	2023-02-26T00:00:00	2024-11-08T01:00:00	7	Dirección del viento	0
8695	7	Sololá	701	Sololá	1	Sololá	2	Febrero	2023-02-26T00:00:00	2024-11-08T01:00:00	1	Precipitación	0
8696	7	Sololá	701	Sololá	1	Sololá	2	Febrero	2023-02-26T00:00:00	2024-11-08T01:00:00	8	Radiación solar	0
8697	7	Sololá	701	Sololá	1	Sololá	2	Febrero	2023-02-26T00:00:00	2024-11-08T02:00:00	2	Temperatura media	11.6
8698	7	Sololá	701	Sololá	1	Sololá	2	Febrero	2023-02-26T00:00:00	2024-11-08T02:00:00	4	Temperatura máxima	11.9
8699	7	Sololá	701	Sololá	1	Sololá	2	Febrero	2023-02-26T00:00:00	2024-11-08T02:00:00	3	Temperatura mínima	11.6
8700	7	Sololá	701	Sololá	1	Sololá	2	Febrero	2023-02-26T00:00:00	2024-11-08T02:00:00	5	Humedad	77
8701	7	Sololá	701	Sololá	1	Sololá	2	Febrero	2023-02-26T00:00:00	2024-11-08T02:00:00	6	Velocidad del viento	0
8702	7	Sololá	701	Sololá	1	Sololá	2	Febrero	2023-02-26T00:00:00	2024-11-08T02:00:00	7	Dirección del viento	0
8703	7	Sololá	701	Sololá	1	Sololá	2	Febrero	2023-02-26T00:00:00	2024-11-08T02:00:00	1	Precipitación	0
8704	7	Sololá	701	Sololá	1	Sololá	2	Febrero	2023-02-26T00:00:00	2024-11-08T02:00:00	8	Radiación solar	0
8705	7	Sololá	701	Sololá	1	Sololá	2	Febrero	2023-02-26T00:00:00	2024-11-08T03:00:00	2	Temperatura media	10.9
8706	7	Sololá	701	Sololá	1	Sololá	2	Febrero	2023-02-26T00:00:00	2024-11-08T03:00:00	4	Temperatura máxima	11.6
8707	7	Sololá	701	Sololá	1	Sololá	2	Febrero	2023-02-26T00:00:00	2024-11-08T03:00:00	3	Temperatura mínima	10.9
8708	7	Sololá	701	Sololá	1	Sololá	2	Febrero	2023-02-26T00:00:00	2024-11-08T03:00:00	5	Humedad	76
8709	7	Sololá	701	Sololá	1	Sololá	2	Febrero	2023-02-26T00:00:00	2024-11-08T03:00:00	6	Velocidad del viento	0
8710	7	Sololá	701	Sololá	1	Sololá	2	Febrero	2023-02-26T00:00:00	2024-11-08T03:00:00	7	Dirección del viento	0
8711	7	Sololá	701	Sololá	1	Sololá	2	Febrero	2023-02-26T00:00:00	2024-11-08T03:00:00	1	Precipitación	0
8712	7	Sololá	701	Sololá	1	Sololá	2	Febrero	2023-02-26T00:00:00	2024-11-08T03:00:00	8	Radiación solar	0
8713	7	Sololá	701	Sololá	1	Sololá	2	Febrero	2023-02-26T00:00:00	2024-11-08T04:00:00	2	Temperatura media	10.6
8714	7	Sololá	701	Sololá	1	Sololá	2	Febrero	2023-02-26T00:00:00	2024-11-08T04:00:00	4	Temperatura máxima	10.9
8715	7	Sololá	701	Sololá	1	Sololá	2	Febrero	2023-02-26T00:00:00	2024-11-08T04:00:00	3	Temperatura mínima	10.6
8716	7	Sololá	701	Sololá	1	Sololá	2	Febrero	2023-02-26T00:00:00	2024-11-08T04:00:00	5	Humedad	77
8717	7	Sololá	701	Sololá	1	Sololá	2	Febrero	2023-02-26T00:00:00	2024-11-08T04:00:00	6	Velocidad del viento	0
8718	7	Sololá	701	Sololá	1	Sololá	2	Febrero	2023-02-26T00:00:00	2024-11-08T04:00:00	7	Dirección del viento	0
8719	7	Sololá	701	Sololá	1	Sololá	2	Febrero	2023-02-26T00:00:00	2024-11-08T04:00:00	1	Precipitación	0
8720	7	Sololá	701	Sololá	1	Sololá	2	Febrero	2023-02-26T00:00:00	2024-11-08T04:00:00	8	Radiación solar	0
8721	7	Sololá	701	Sololá	1	Sololá	2	Febrero	2023-02-26T00:00:00	2024-11-08T05:00:00	2	Temperatura media	10.1
8722	7	Sololá	701	Sololá	1	Sololá	2	Febrero	2023-02-26T00:00:00	2024-11-08T05:00:00	4	Temperatura máxima	10.6
8723	7	Sololá	701	Sololá	1	Sololá	2	Febrero	2023-02-26T00:00:00	2024-11-08T05:00:00	3	Temperatura mínima	10.1
8724	7	Sololá	701	Sololá	1	Sololá	2	Febrero	2023-02-26T00:00:00	2024-11-08T05:00:00	5	Humedad	79
8725	7	Sololá	701	Sololá	1	Sololá	2	Febrero	2023-02-26T00:00:00	2024-11-08T05:00:00	6	Velocidad del viento	0
8726	7	Sololá	701	Sololá	1	Sololá	2	Febrero	2023-02-26T00:00:00	2024-11-08T05:00:00	7	Dirección del viento	0
8727	7	Sololá	701	Sololá	1	Sololá	2	Febrero	2023-02-26T00:00:00	2024-11-08T05:00:00	1	Precipitación	0
8728	7	Sololá	701	Sololá	1	Sololá	2	Febrero	2023-02-26T00:00:00	2024-11-08T05:00:00	8	Radiación solar	0
8729	7	Sololá	701	Sololá	1	Sololá	2	Febrero	2023-02-26T00:00:00	2024-11-08T06:00:00	2	Temperatura media	9.9
8730	7	Sololá	701	Sololá	1	Sololá	2	Febrero	2023-02-26T00:00:00	2024-11-08T06:00:00	4	Temperatura máxima	10.2
8731	7	Sololá	701	Sololá	1	Sololá	2	Febrero	2023-02-26T00:00:00	2024-11-08T06:00:00	3	Temperatura mínima	9.9
8732	7	Sololá	701	Sololá	1	Sololá	2	Febrero	2023-02-26T00:00:00	2024-11-08T06:00:00	5	Humedad	79
8733	7	Sololá	701	Sololá	1	Sololá	2	Febrero	2023-02-26T00:00:00	2024-11-08T06:00:00	6	Velocidad del viento	0
8734	7	Sololá	701	Sololá	1	Sololá	2	Febrero	2023-02-26T00:00:00	2024-11-08T06:00:00	7	Dirección del viento	0
8735	7	Sololá	701	Sololá	1	Sololá	2	Febrero	2023-02-26T00:00:00	2024-11-08T06:00:00	1	Precipitación	0
8736	7	Sololá	701	Sololá	1	Sololá	2	Febrero	2023-02-26T00:00:00	2024-11-08T06:00:00	8	Radiación solar	0
8737	7	Sololá	701	Sololá	1	Sololá	2	Febrero	2023-02-26T00:00:00	2024-11-08T07:00:00	2	Temperatura media	9.9
8738	7	Sololá	701	Sololá	1	Sololá	2	Febrero	2023-02-26T00:00:00	2024-11-08T07:00:00	4	Temperatura máxima	9.9
8739	7	Sololá	701	Sololá	1	Sololá	2	Febrero	2023-02-26T00:00:00	2024-11-08T07:00:00	3	Temperatura mínima	9.8
8740	7	Sololá	701	Sololá	1	Sololá	2	Febrero	2023-02-26T00:00:00	2024-11-08T07:00:00	5	Humedad	77
8741	7	Sololá	701	Sololá	1	Sololá	2	Febrero	2023-02-26T00:00:00	2024-11-08T07:00:00	6	Velocidad del viento	0
8742	7	Sololá	701	Sololá	1	Sololá	2	Febrero	2023-02-26T00:00:00	2024-11-08T07:00:00	7	Dirección del viento	0
8743	7	Sololá	701	Sololá	1	Sololá	2	Febrero	2023-02-26T00:00:00	2024-11-08T07:00:00	1	Precipitación	0
8744	7	Sololá	701	Sololá	1	Sololá	2	Febrero	2023-02-26T00:00:00	2024-11-08T07:00:00	8	Radiación solar	5
8745	7	Sololá	701	Sololá	1	Sololá	2	Febrero	2023-02-26T00:00:00	2024-11-08T08:00:00	2	Temperatura media	12.1
8746	7	Sololá	701	Sololá	1	Sololá	2	Febrero	2023-02-26T00:00:00	2024-11-08T08:00:00	4	Temperatura máxima	12.1
8747	7	Sololá	701	Sololá	1	Sololá	2	Febrero	2023-02-26T00:00:00	2024-11-08T08:00:00	3	Temperatura mínima	9.9
8748	7	Sololá	701	Sololá	1	Sololá	2	Febrero	2023-02-26T00:00:00	2024-11-08T08:00:00	5	Humedad	73
8749	7	Sololá	701	Sololá	1	Sololá	2	Febrero	2023-02-26T00:00:00	2024-11-08T08:00:00	6	Velocidad del viento	0
8750	7	Sololá	701	Sololá	1	Sololá	2	Febrero	2023-02-26T00:00:00	2024-11-08T08:00:00	7	Dirección del viento	0
8751	7	Sololá	701	Sololá	1	Sololá	2	Febrero	2023-02-26T00:00:00	2024-11-08T08:00:00	1	Precipitación	0
8752	7	Sololá	701	Sololá	1	Sololá	2	Febrero	2023-02-26T00:00:00	2024-11-08T08:00:00	8	Radiación solar	26
8753	7	Sololá	701	Sololá	1	Sololá	2	Febrero	2023-02-26T00:00:00	2024-11-08T09:00:00	2	Temperatura media	17.8
8754	7	Sololá	701	Sololá	1	Sololá	2	Febrero	2023-02-26T00:00:00	2024-11-08T09:00:00	4	Temperatura máxima	17.8
8755	7	Sololá	701	Sololá	1	Sololá	2	Febrero	2023-02-26T00:00:00	2024-11-08T09:00:00	3	Temperatura mínima	12.1
8756	7	Sololá	701	Sololá	1	Sololá	2	Febrero	2023-02-26T00:00:00	2024-11-08T09:00:00	5	Humedad	58
8757	7	Sololá	701	Sololá	1	Sololá	2	Febrero	2023-02-26T00:00:00	2024-11-08T09:00:00	6	Velocidad del viento	0
8758	7	Sololá	701	Sololá	1	Sololá	2	Febrero	2023-02-26T00:00:00	2024-11-08T09:00:00	7	Dirección del viento	0
8759	7	Sololá	701	Sololá	1	Sololá	2	Febrero	2023-02-26T00:00:00	2024-11-08T09:00:00	1	Precipitación	0
8760	7	Sololá	701	Sololá	1	Sololá	2	Febrero	2023-02-26T00:00:00	2024-11-08T09:00:00	8	Radiación solar	409
8761	7	Sololá	701	Sololá	1	Sololá	2	Febrero	2023-02-26T00:00:00	2024-11-08T10:00:00	2	Temperatura media	20.7
8762	7	Sololá	701	Sololá	1	Sololá	2	Febrero	2023-02-26T00:00:00	2024-11-08T10:00:00	4	Temperatura máxima	20.7
8763	7	Sololá	701	Sololá	1	Sololá	2	Febrero	2023-02-26T00:00:00	2024-11-08T10:00:00	3	Temperatura mínima	17.8
8764	7	Sololá	701	Sololá	1	Sololá	2	Febrero	2023-02-26T00:00:00	2024-11-08T10:00:00	5	Humedad	45
8765	7	Sololá	701	Sololá	1	Sololá	2	Febrero	2023-02-26T00:00:00	2024-11-08T10:00:00	6	Velocidad del viento	0
8766	7	Sololá	701	Sololá	1	Sololá	2	Febrero	2023-02-26T00:00:00	2024-11-08T10:00:00	7	Dirección del viento	0
8767	7	Sololá	701	Sololá	1	Sololá	2	Febrero	2023-02-26T00:00:00	2024-11-08T10:00:00	1	Precipitación	0
8768	7	Sololá	701	Sololá	1	Sololá	2	Febrero	2023-02-26T00:00:00	2024-11-08T10:00:00	8	Radiación solar	730
8769	7	Sololá	701	Sololá	1	Sololá	2	Febrero	2023-02-26T00:00:00	2024-11-08T11:00:00	2	Temperatura media	22.1
8770	7	Sololá	701	Sololá	1	Sololá	2	Febrero	2023-02-26T00:00:00	2024-11-08T11:00:00	4	Temperatura máxima	22.1
8771	7	Sololá	701	Sololá	1	Sololá	2	Febrero	2023-02-26T00:00:00	2024-11-08T11:00:00	3	Temperatura mínima	20.7
8772	7	Sololá	701	Sololá	1	Sololá	2	Febrero	2023-02-26T00:00:00	2024-11-08T11:00:00	5	Humedad	44
8773	7	Sololá	701	Sololá	1	Sololá	2	Febrero	2023-02-26T00:00:00	2024-11-08T11:00:00	6	Velocidad del viento	0
8774	7	Sololá	701	Sololá	1	Sololá	2	Febrero	2023-02-26T00:00:00	2024-11-08T11:00:00	7	Dirección del viento	0
8775	7	Sololá	701	Sololá	1	Sololá	2	Febrero	2023-02-26T00:00:00	2024-11-08T11:00:00	1	Precipitación	0
8776	7	Sololá	701	Sololá	1	Sololá	2	Febrero	2023-02-26T00:00:00	2024-11-08T11:00:00	8	Radiación solar	864
8777	7	Sololá	701	Sololá	1	Sololá	2	Febrero	2023-02-26T00:00:00	2024-11-08T12:00:00	2	Temperatura media	22.6
8778	7	Sololá	701	Sololá	1	Sololá	2	Febrero	2023-02-26T00:00:00	2024-11-08T12:00:00	4	Temperatura máxima	22.6
8779	7	Sololá	701	Sololá	1	Sololá	2	Febrero	2023-02-26T00:00:00	2024-11-08T12:00:00	3	Temperatura mínima	21.7
8780	7	Sololá	701	Sololá	1	Sololá	2	Febrero	2023-02-26T00:00:00	2024-11-08T12:00:00	5	Humedad	46
8781	7	Sololá	701	Sololá	1	Sololá	2	Febrero	2023-02-26T00:00:00	2024-11-08T12:00:00	6	Velocidad del viento	0
8782	7	Sololá	701	Sololá	1	Sololá	2	Febrero	2023-02-26T00:00:00	2024-11-08T12:00:00	7	Dirección del viento	0
8783	7	Sololá	701	Sololá	1	Sololá	2	Febrero	2023-02-26T00:00:00	2024-11-08T12:00:00	1	Precipitación	0
8784	7	Sololá	701	Sololá	1	Sololá	2	Febrero	2023-02-26T00:00:00	2024-11-08T12:00:00	8	Radiación solar	936
8785	7	Sololá	701	Sololá	1	Sololá	2	Febrero	2023-02-26T00:00:00	2024-11-08T13:00:00	2	Temperatura media	22.8
8786	7	Sololá	701	Sololá	1	Sololá	2	Febrero	2023-02-26T00:00:00	2024-11-08T13:00:00	4	Temperatura máxima	22.8
8787	7	Sololá	701	Sololá	1	Sololá	2	Febrero	2023-02-26T00:00:00	2024-11-08T13:00:00	3	Temperatura mínima	22.4
8788	7	Sololá	701	Sololá	1	Sololá	2	Febrero	2023-02-26T00:00:00	2024-11-08T13:00:00	5	Humedad	48
8789	7	Sololá	701	Sololá	1	Sololá	2	Febrero	2023-02-26T00:00:00	2024-11-08T13:00:00	6	Velocidad del viento	0
8790	7	Sololá	701	Sololá	1	Sololá	2	Febrero	2023-02-26T00:00:00	2024-11-08T13:00:00	7	Dirección del viento	0
8791	7	Sololá	701	Sololá	1	Sololá	2	Febrero	2023-02-26T00:00:00	2024-11-08T13:00:00	1	Precipitación	0
8792	7	Sololá	701	Sololá	1	Sololá	2	Febrero	2023-02-26T00:00:00	2024-11-08T13:00:00	8	Radiación solar	937
8793	7	Sololá	701	Sololá	1	Sololá	2	Febrero	2023-02-26T00:00:00	2024-11-08T14:00:00	2	Temperatura media	21.8
8794	7	Sololá	701	Sololá	1	Sololá	2	Febrero	2023-02-26T00:00:00	2024-11-08T14:00:00	4	Temperatura máxima	23
8795	7	Sololá	701	Sololá	1	Sololá	2	Febrero	2023-02-26T00:00:00	2024-11-08T14:00:00	3	Temperatura mínima	21.7
8796	7	Sololá	701	Sololá	1	Sololá	2	Febrero	2023-02-26T00:00:00	2024-11-08T14:00:00	5	Humedad	64
8797	7	Sololá	701	Sololá	1	Sololá	2	Febrero	2023-02-26T00:00:00	2024-11-08T14:00:00	6	Velocidad del viento	0
8798	7	Sololá	701	Sololá	1	Sololá	2	Febrero	2023-02-26T00:00:00	2024-11-08T14:00:00	7	Dirección del viento	0
8799	7	Sololá	701	Sololá	1	Sololá	2	Febrero	2023-02-26T00:00:00	2024-11-08T14:00:00	1	Precipitación	0
8800	7	Sololá	701	Sololá	1	Sololá	2	Febrero	2023-02-26T00:00:00	2024-11-08T14:00:00	8	Radiación solar	858
8801	7	Sololá	701	Sololá	1	Sololá	2	Febrero	2023-02-26T00:00:00	2024-11-08T15:00:00	2	Temperatura media	21.1
8802	7	Sololá	701	Sololá	1	Sololá	2	Febrero	2023-02-26T00:00:00	2024-11-08T15:00:00	4	Temperatura máxima	21.9
8803	7	Sololá	701	Sololá	1	Sololá	2	Febrero	2023-02-26T00:00:00	2024-11-08T15:00:00	3	Temperatura mínima	21
8804	7	Sololá	701	Sololá	1	Sololá	2	Febrero	2023-02-26T00:00:00	2024-11-08T15:00:00	5	Humedad	68
8805	7	Sololá	701	Sololá	1	Sololá	2	Febrero	2023-02-26T00:00:00	2024-11-08T15:00:00	6	Velocidad del viento	0
8806	7	Sololá	701	Sololá	1	Sololá	2	Febrero	2023-02-26T00:00:00	2024-11-08T15:00:00	7	Dirección del viento	0
8807	7	Sololá	701	Sololá	1	Sololá	2	Febrero	2023-02-26T00:00:00	2024-11-08T15:00:00	1	Precipitación	0
8808	7	Sololá	701	Sololá	1	Sololá	2	Febrero	2023-02-26T00:00:00	2024-11-08T15:00:00	8	Radiación solar	138
8809	7	Sololá	701	Sololá	1	Sololá	2	Febrero	2023-02-26T00:00:00	2024-11-08T16:00:00	2	Temperatura media	19.8
8810	7	Sololá	701	Sololá	1	Sololá	2	Febrero	2023-02-26T00:00:00	2024-11-08T16:00:00	4	Temperatura máxima	21.1
8811	7	Sololá	701	Sololá	1	Sololá	2	Febrero	2023-02-26T00:00:00	2024-11-08T16:00:00	3	Temperatura mínima	19.8
8812	7	Sololá	701	Sololá	1	Sololá	2	Febrero	2023-02-26T00:00:00	2024-11-08T16:00:00	5	Humedad	73
8813	7	Sololá	701	Sololá	1	Sololá	2	Febrero	2023-02-26T00:00:00	2024-11-08T16:00:00	6	Velocidad del viento	0
8814	7	Sololá	701	Sololá	1	Sololá	2	Febrero	2023-02-26T00:00:00	2024-11-08T16:00:00	7	Dirección del viento	0
8815	7	Sololá	701	Sololá	1	Sololá	2	Febrero	2023-02-26T00:00:00	2024-11-08T16:00:00	1	Precipitación	0
8816	7	Sololá	701	Sololá	1	Sololá	2	Febrero	2023-02-26T00:00:00	2024-11-08T16:00:00	8	Radiación solar	155
8817	7	Sololá	701	Sololá	1	Sololá	2	Febrero	2023-02-26T00:00:00	2024-11-08T17:00:00	2	Temperatura media	18.6
8818	7	Sololá	701	Sololá	1	Sololá	2	Febrero	2023-02-26T00:00:00	2024-11-08T17:00:00	4	Temperatura máxima	20.1
8819	7	Sololá	701	Sololá	1	Sololá	2	Febrero	2023-02-26T00:00:00	2024-11-08T17:00:00	3	Temperatura mínima	18.6
8820	7	Sololá	701	Sololá	1	Sololá	2	Febrero	2023-02-26T00:00:00	2024-11-08T17:00:00	5	Humedad	78
8821	7	Sololá	701	Sololá	1	Sololá	2	Febrero	2023-02-26T00:00:00	2024-11-08T17:00:00	6	Velocidad del viento	0
8822	7	Sololá	701	Sololá	1	Sololá	2	Febrero	2023-02-26T00:00:00	2024-11-08T17:00:00	7	Dirección del viento	0
8823	7	Sololá	701	Sololá	1	Sololá	2	Febrero	2023-02-26T00:00:00	2024-11-08T17:00:00	1	Precipitación	0
8824	7	Sololá	701	Sololá	1	Sololá	2	Febrero	2023-02-26T00:00:00	2024-11-08T17:00:00	8	Radiación solar	113
8825	7	Sololá	701	Sololá	1	Sololá	2	Febrero	2023-02-26T00:00:00	2024-11-08T18:00:00	2	Temperatura media	16.3
8826	7	Sololá	701	Sololá	1	Sololá	2	Febrero	2023-02-26T00:00:00	2024-11-08T18:00:00	4	Temperatura máxima	18.6
8827	7	Sololá	701	Sololá	1	Sololá	2	Febrero	2023-02-26T00:00:00	2024-11-08T18:00:00	3	Temperatura mínima	16.3
8828	7	Sololá	701	Sololá	1	Sololá	2	Febrero	2023-02-26T00:00:00	2024-11-08T18:00:00	5	Humedad	86
8829	7	Sololá	701	Sololá	1	Sololá	2	Febrero	2023-02-26T00:00:00	2024-11-08T18:00:00	6	Velocidad del viento	0
8830	7	Sololá	701	Sololá	1	Sololá	2	Febrero	2023-02-26T00:00:00	2024-11-08T18:00:00	7	Dirección del viento	0
8831	7	Sololá	701	Sololá	1	Sololá	2	Febrero	2023-02-26T00:00:00	2024-11-08T18:00:00	1	Precipitación	0
8832	7	Sololá	701	Sololá	1	Sololá	2	Febrero	2023-02-26T00:00:00	2024-11-08T18:00:00	8	Radiación solar	22
8833	7	Sololá	701	Sololá	1	Sololá	2	Febrero	2023-02-26T00:00:00	2024-11-08T19:00:00	2	Temperatura media	15.3
8834	7	Sololá	701	Sololá	1	Sololá	2	Febrero	2023-02-26T00:00:00	2024-11-08T19:00:00	4	Temperatura máxima	16.3
8835	7	Sololá	701	Sololá	1	Sololá	2	Febrero	2023-02-26T00:00:00	2024-11-08T19:00:00	3	Temperatura mínima	15.3
8836	7	Sololá	701	Sololá	1	Sololá	2	Febrero	2023-02-26T00:00:00	2024-11-08T19:00:00	5	Humedad	89
8837	7	Sololá	701	Sololá	1	Sololá	2	Febrero	2023-02-26T00:00:00	2024-11-08T19:00:00	6	Velocidad del viento	0
8838	7	Sololá	701	Sololá	1	Sololá	2	Febrero	2023-02-26T00:00:00	2024-11-08T19:00:00	7	Dirección del viento	0
8839	7	Sololá	701	Sololá	1	Sololá	2	Febrero	2023-02-26T00:00:00	2024-11-08T19:00:00	1	Precipitación	0
8840	7	Sololá	701	Sololá	1	Sololá	2	Febrero	2023-02-26T00:00:00	2024-11-08T19:00:00	8	Radiación solar	0
8841	7	Sololá	701	Sololá	1	Sololá	2	Febrero	2023-02-26T00:00:00	2024-11-08T20:00:00	2	Temperatura media	14.3
8842	7	Sololá	701	Sololá	1	Sololá	2	Febrero	2023-02-26T00:00:00	2024-11-08T20:00:00	4	Temperatura máxima	15.3
8843	7	Sololá	701	Sololá	1	Sololá	2	Febrero	2023-02-26T00:00:00	2024-11-08T20:00:00	3	Temperatura mínima	14.3
8844	7	Sololá	701	Sololá	1	Sololá	2	Febrero	2023-02-26T00:00:00	2024-11-08T20:00:00	5	Humedad	83
8845	7	Sololá	701	Sololá	1	Sololá	2	Febrero	2023-02-26T00:00:00	2024-11-08T20:00:00	6	Velocidad del viento	0
8846	7	Sololá	701	Sololá	1	Sololá	2	Febrero	2023-02-26T00:00:00	2024-11-08T20:00:00	7	Dirección del viento	0
8847	7	Sololá	701	Sololá	1	Sololá	2	Febrero	2023-02-26T00:00:00	2024-11-08T20:00:00	1	Precipitación	0
8848	7	Sololá	701	Sololá	1	Sololá	2	Febrero	2023-02-26T00:00:00	2024-11-08T20:00:00	8	Radiación solar	0
8849	7	Sololá	701	Sololá	1	Sololá	2	Febrero	2023-02-26T00:00:00	2024-11-08T21:00:00	2	Temperatura media	12.4
8850	7	Sololá	701	Sololá	1	Sololá	2	Febrero	2023-02-26T00:00:00	2024-11-08T21:00:00	4	Temperatura máxima	14.3
8851	7	Sololá	701	Sololá	1	Sololá	2	Febrero	2023-02-26T00:00:00	2024-11-08T21:00:00	3	Temperatura mínima	12.4
8852	7	Sololá	701	Sololá	1	Sololá	2	Febrero	2023-02-26T00:00:00	2024-11-08T21:00:00	5	Humedad	80
8853	7	Sololá	701	Sololá	1	Sololá	2	Febrero	2023-02-26T00:00:00	2024-11-08T21:00:00	6	Velocidad del viento	0
8854	7	Sololá	701	Sololá	1	Sololá	2	Febrero	2023-02-26T00:00:00	2024-11-08T21:00:00	7	Dirección del viento	0
8855	7	Sololá	701	Sololá	1	Sololá	2	Febrero	2023-02-26T00:00:00	2024-11-08T21:00:00	1	Precipitación	0
8856	7	Sololá	701	Sololá	1	Sololá	2	Febrero	2023-02-26T00:00:00	2024-11-08T21:00:00	8	Radiación solar	0
8857	7	Sololá	701	Sololá	1	Sololá	2	Febrero	2023-02-26T00:00:00	2024-11-08T22:00:00	2	Temperatura media	11.4
8858	7	Sololá	701	Sololá	1	Sololá	2	Febrero	2023-02-26T00:00:00	2024-11-08T22:00:00	4	Temperatura máxima	12.4
8859	7	Sololá	701	Sololá	1	Sololá	2	Febrero	2023-02-26T00:00:00	2024-11-08T22:00:00	3	Temperatura mínima	11.4
8860	7	Sololá	701	Sololá	1	Sololá	2	Febrero	2023-02-26T00:00:00	2024-11-08T22:00:00	5	Humedad	81
8861	7	Sololá	701	Sololá	1	Sololá	2	Febrero	2023-02-26T00:00:00	2024-11-08T22:00:00	6	Velocidad del viento	0
8862	7	Sololá	701	Sololá	1	Sololá	2	Febrero	2023-02-26T00:00:00	2024-11-08T22:00:00	7	Dirección del viento	0
8863	7	Sololá	701	Sololá	1	Sololá	2	Febrero	2023-02-26T00:00:00	2024-11-08T22:00:00	1	Precipitación	0
8864	7	Sololá	701	Sololá	1	Sololá	2	Febrero	2023-02-26T00:00:00	2024-11-08T22:00:00	8	Radiación solar	0
8865	7	Sololá	701	Sololá	1	Sololá	2	Febrero	2023-02-26T00:00:00	2024-11-08T23:00:00	2	Temperatura media	10.6
8866	7	Sololá	701	Sololá	1	Sololá	2	Febrero	2023-02-26T00:00:00	2024-11-08T23:00:00	4	Temperatura máxima	11.4
8867	7	Sololá	701	Sololá	1	Sololá	2	Febrero	2023-02-26T00:00:00	2024-11-08T23:00:00	3	Temperatura mínima	10.6
8868	7	Sololá	701	Sololá	1	Sololá	2	Febrero	2023-02-26T00:00:00	2024-11-08T23:00:00	5	Humedad	82
8869	7	Sololá	701	Sololá	1	Sololá	2	Febrero	2023-02-26T00:00:00	2024-11-08T23:00:00	6	Velocidad del viento	0
8870	7	Sololá	701	Sololá	1	Sololá	2	Febrero	2023-02-26T00:00:00	2024-11-08T23:00:00	7	Dirección del viento	0
8871	7	Sololá	701	Sololá	1	Sololá	2	Febrero	2023-02-26T00:00:00	2024-11-08T23:00:00	1	Precipitación	0
8872	7	Sololá	701	Sololá	1	Sololá	2	Febrero	2023-02-26T00:00:00	2024-11-08T23:00:00	8	Radiación solar	0
8873	7	Sololá	701	Sololá	1	Sololá	2	Febrero	2023-02-27T00:00:00	2024-11-08T00:00:00	2	Temperatura media	10.1
8874	7	Sololá	701	Sololá	1	Sololá	2	Febrero	2023-02-27T00:00:00	2024-11-08T00:00:00	4	Temperatura máxima	10.6
8875	7	Sololá	701	Sololá	1	Sololá	2	Febrero	2023-02-27T00:00:00	2024-11-08T00:00:00	3	Temperatura mínima	10.1
8876	7	Sololá	701	Sololá	1	Sololá	2	Febrero	2023-02-27T00:00:00	2024-11-08T00:00:00	5	Humedad	82
8877	7	Sololá	701	Sololá	1	Sololá	2	Febrero	2023-02-27T00:00:00	2024-11-08T00:00:00	6	Velocidad del viento	0
8878	7	Sololá	701	Sololá	1	Sololá	2	Febrero	2023-02-27T00:00:00	2024-11-08T00:00:00	7	Dirección del viento	0
8879	7	Sololá	701	Sololá	1	Sololá	2	Febrero	2023-02-27T00:00:00	2024-11-08T00:00:00	1	Precipitación	0
8880	7	Sololá	701	Sololá	1	Sololá	2	Febrero	2023-02-27T00:00:00	2024-11-08T00:00:00	8	Radiación solar	0
8881	7	Sololá	701	Sololá	1	Sololá	2	Febrero	2023-02-27T00:00:00	2024-11-08T01:00:00	2	Temperatura media	9.4
8882	7	Sololá	701	Sololá	1	Sololá	2	Febrero	2023-02-27T00:00:00	2024-11-08T01:00:00	4	Temperatura máxima	10.2
8883	7	Sololá	701	Sololá	1	Sololá	2	Febrero	2023-02-27T00:00:00	2024-11-08T01:00:00	3	Temperatura mínima	9.4
8884	7	Sololá	701	Sololá	1	Sololá	2	Febrero	2023-02-27T00:00:00	2024-11-08T01:00:00	5	Humedad	80
8885	7	Sololá	701	Sololá	1	Sololá	2	Febrero	2023-02-27T00:00:00	2024-11-08T01:00:00	6	Velocidad del viento	0
8886	7	Sololá	701	Sololá	1	Sololá	2	Febrero	2023-02-27T00:00:00	2024-11-08T01:00:00	7	Dirección del viento	0
8887	7	Sololá	701	Sololá	1	Sololá	2	Febrero	2023-02-27T00:00:00	2024-11-08T01:00:00	1	Precipitación	0
8888	7	Sololá	701	Sololá	1	Sololá	2	Febrero	2023-02-27T00:00:00	2024-11-08T01:00:00	8	Radiación solar	0
8889	7	Sololá	701	Sololá	1	Sololá	2	Febrero	2023-02-27T00:00:00	2024-11-08T02:00:00	2	Temperatura media	9.3
8890	7	Sololá	701	Sololá	1	Sololá	2	Febrero	2023-02-27T00:00:00	2024-11-08T02:00:00	4	Temperatura máxima	9.4
8891	7	Sololá	701	Sololá	1	Sololá	2	Febrero	2023-02-27T00:00:00	2024-11-08T02:00:00	3	Temperatura mínima	9.3
8892	7	Sololá	701	Sololá	1	Sololá	2	Febrero	2023-02-27T00:00:00	2024-11-08T02:00:00	5	Humedad	79
8893	7	Sololá	701	Sololá	1	Sololá	2	Febrero	2023-02-27T00:00:00	2024-11-08T02:00:00	6	Velocidad del viento	0
8894	7	Sololá	701	Sololá	1	Sololá	2	Febrero	2023-02-27T00:00:00	2024-11-08T02:00:00	7	Dirección del viento	0
8895	7	Sololá	701	Sololá	1	Sololá	2	Febrero	2023-02-27T00:00:00	2024-11-08T02:00:00	1	Precipitación	0
8896	7	Sololá	701	Sololá	1	Sololá	2	Febrero	2023-02-27T00:00:00	2024-11-08T02:00:00	8	Radiación solar	0
8897	7	Sololá	701	Sololá	1	Sololá	2	Febrero	2023-02-27T00:00:00	2024-11-08T03:00:00	2	Temperatura media	9.3
8898	7	Sololá	701	Sololá	1	Sololá	2	Febrero	2023-02-27T00:00:00	2024-11-08T03:00:00	4	Temperatura máxima	9.4
8899	7	Sololá	701	Sololá	1	Sololá	2	Febrero	2023-02-27T00:00:00	2024-11-08T03:00:00	3	Temperatura mínima	9.3
8900	7	Sololá	701	Sololá	1	Sololá	2	Febrero	2023-02-27T00:00:00	2024-11-08T03:00:00	5	Humedad	77
8901	7	Sololá	701	Sololá	1	Sololá	2	Febrero	2023-02-27T00:00:00	2024-11-08T03:00:00	6	Velocidad del viento	0
8902	7	Sololá	701	Sololá	1	Sololá	2	Febrero	2023-02-27T00:00:00	2024-11-08T03:00:00	7	Dirección del viento	0
8903	7	Sololá	701	Sololá	1	Sololá	2	Febrero	2023-02-27T00:00:00	2024-11-08T03:00:00	1	Precipitación	0
8904	7	Sololá	701	Sololá	1	Sololá	2	Febrero	2023-02-27T00:00:00	2024-11-08T03:00:00	8	Radiación solar	0
8905	7	Sololá	701	Sololá	1	Sololá	2	Febrero	2023-02-27T00:00:00	2024-11-08T04:00:00	2	Temperatura media	8.9
8906	7	Sololá	701	Sololá	1	Sololá	2	Febrero	2023-02-27T00:00:00	2024-11-08T04:00:00	4	Temperatura máxima	9.4
8907	7	Sololá	701	Sololá	1	Sololá	2	Febrero	2023-02-27T00:00:00	2024-11-08T04:00:00	3	Temperatura mínima	8.9
8908	7	Sololá	701	Sololá	1	Sololá	2	Febrero	2023-02-27T00:00:00	2024-11-08T04:00:00	5	Humedad	77
8909	7	Sololá	701	Sololá	1	Sololá	2	Febrero	2023-02-27T00:00:00	2024-11-08T04:00:00	6	Velocidad del viento	0
8910	7	Sololá	701	Sololá	1	Sololá	2	Febrero	2023-02-27T00:00:00	2024-11-08T04:00:00	7	Dirección del viento	0
8911	7	Sololá	701	Sololá	1	Sololá	2	Febrero	2023-02-27T00:00:00	2024-11-08T04:00:00	1	Precipitación	0
8912	7	Sololá	701	Sololá	1	Sololá	2	Febrero	2023-02-27T00:00:00	2024-11-08T04:00:00	8	Radiación solar	0
8913	7	Sololá	701	Sololá	1	Sololá	2	Febrero	2023-02-27T00:00:00	2024-11-08T05:00:00	2	Temperatura media	8.7
8914	7	Sololá	701	Sololá	1	Sololá	2	Febrero	2023-02-27T00:00:00	2024-11-08T05:00:00	4	Temperatura máxima	8.9
8915	7	Sololá	701	Sololá	1	Sololá	2	Febrero	2023-02-27T00:00:00	2024-11-08T05:00:00	3	Temperatura mínima	8.6
8916	7	Sololá	701	Sololá	1	Sololá	2	Febrero	2023-02-27T00:00:00	2024-11-08T05:00:00	5	Humedad	75
8917	7	Sololá	701	Sololá	1	Sololá	2	Febrero	2023-02-27T00:00:00	2024-11-08T05:00:00	6	Velocidad del viento	1.6
8918	7	Sololá	701	Sololá	1	Sololá	2	Febrero	2023-02-27T00:00:00	2024-11-08T05:00:00	7	Dirección del viento	1.61
8919	7	Sololá	701	Sololá	1	Sololá	2	Febrero	2023-02-27T00:00:00	2024-11-08T05:00:00	1	Precipitación	0
8920	7	Sololá	701	Sololá	1	Sololá	2	Febrero	2023-02-27T00:00:00	2024-11-08T05:00:00	8	Radiación solar	0
8921	7	Sololá	701	Sololá	1	Sololá	2	Febrero	2023-02-27T00:00:00	2024-11-08T06:00:00	2	Temperatura media	8.6
8922	7	Sololá	701	Sololá	1	Sololá	2	Febrero	2023-02-27T00:00:00	2024-11-08T06:00:00	4	Temperatura máxima	8.8
8923	7	Sololá	701	Sololá	1	Sololá	2	Febrero	2023-02-27T00:00:00	2024-11-08T06:00:00	3	Temperatura mínima	8.6
8924	7	Sololá	701	Sololá	1	Sololá	2	Febrero	2023-02-27T00:00:00	2024-11-08T06:00:00	5	Humedad	78
8925	7	Sololá	701	Sololá	1	Sololá	2	Febrero	2023-02-27T00:00:00	2024-11-08T06:00:00	6	Velocidad del viento	1.6
8926	7	Sololá	701	Sololá	1	Sololá	2	Febrero	2023-02-27T00:00:00	2024-11-08T06:00:00	7	Dirección del viento	1.61
8927	7	Sololá	701	Sololá	1	Sololá	2	Febrero	2023-02-27T00:00:00	2024-11-08T06:00:00	1	Precipitación	0
8928	7	Sololá	701	Sololá	1	Sololá	2	Febrero	2023-02-27T00:00:00	2024-11-08T06:00:00	8	Radiación solar	0
8929	7	Sololá	701	Sololá	1	Sololá	2	Febrero	2023-02-27T00:00:00	2024-11-08T07:00:00	2	Temperatura media	8.8
8930	7	Sololá	701	Sololá	1	Sololá	2	Febrero	2023-02-27T00:00:00	2024-11-08T07:00:00	4	Temperatura máxima	8.9
8931	7	Sololá	701	Sololá	1	Sololá	2	Febrero	2023-02-27T00:00:00	2024-11-08T07:00:00	3	Temperatura mínima	8.5
8932	7	Sololá	701	Sololá	1	Sololá	2	Febrero	2023-02-27T00:00:00	2024-11-08T07:00:00	5	Humedad	78
8933	7	Sololá	701	Sololá	1	Sololá	2	Febrero	2023-02-27T00:00:00	2024-11-08T07:00:00	6	Velocidad del viento	1.6
8934	7	Sololá	701	Sololá	1	Sololá	2	Febrero	2023-02-27T00:00:00	2024-11-08T07:00:00	7	Dirección del viento	1.61
8935	7	Sololá	701	Sololá	1	Sololá	2	Febrero	2023-02-27T00:00:00	2024-11-08T07:00:00	1	Precipitación	0
8936	7	Sololá	701	Sololá	1	Sololá	2	Febrero	2023-02-27T00:00:00	2024-11-08T07:00:00	8	Radiación solar	6
8937	7	Sololá	701	Sololá	1	Sololá	2	Febrero	2023-02-27T00:00:00	2024-11-08T08:00:00	2	Temperatura media	11.4
8938	7	Sololá	701	Sololá	1	Sololá	2	Febrero	2023-02-27T00:00:00	2024-11-08T08:00:00	4	Temperatura máxima	11.4
8939	7	Sololá	701	Sololá	1	Sololá	2	Febrero	2023-02-27T00:00:00	2024-11-08T08:00:00	3	Temperatura mínima	8.9
8940	7	Sololá	701	Sololá	1	Sololá	2	Febrero	2023-02-27T00:00:00	2024-11-08T08:00:00	5	Humedad	78
8941	7	Sololá	701	Sololá	1	Sololá	2	Febrero	2023-02-27T00:00:00	2024-11-08T08:00:00	6	Velocidad del viento	0
8942	7	Sololá	701	Sololá	1	Sololá	2	Febrero	2023-02-27T00:00:00	2024-11-08T08:00:00	7	Dirección del viento	0
8943	7	Sololá	701	Sololá	1	Sololá	2	Febrero	2023-02-27T00:00:00	2024-11-08T08:00:00	1	Precipitación	0
8944	7	Sololá	701	Sololá	1	Sololá	2	Febrero	2023-02-27T00:00:00	2024-11-08T08:00:00	8	Radiación solar	32
8945	7	Sololá	701	Sololá	1	Sololá	2	Febrero	2023-02-27T00:00:00	2024-11-08T09:00:00	2	Temperatura media	16.3
8946	7	Sololá	701	Sololá	1	Sololá	2	Febrero	2023-02-27T00:00:00	2024-11-08T09:00:00	4	Temperatura máxima	16.3
8947	7	Sololá	701	Sololá	1	Sololá	2	Febrero	2023-02-27T00:00:00	2024-11-08T09:00:00	3	Temperatura mínima	11.4
8948	7	Sololá	701	Sololá	1	Sololá	2	Febrero	2023-02-27T00:00:00	2024-11-08T09:00:00	5	Humedad	65
8949	7	Sololá	701	Sololá	1	Sololá	2	Febrero	2023-02-27T00:00:00	2024-11-08T09:00:00	6	Velocidad del viento	0
8950	7	Sololá	701	Sololá	1	Sololá	2	Febrero	2023-02-27T00:00:00	2024-11-08T09:00:00	7	Dirección del viento	0
8951	7	Sololá	701	Sololá	1	Sololá	2	Febrero	2023-02-27T00:00:00	2024-11-08T09:00:00	1	Precipitación	0
8952	7	Sololá	701	Sololá	1	Sololá	2	Febrero	2023-02-27T00:00:00	2024-11-08T09:00:00	8	Radiación solar	393
8953	7	Sololá	701	Sololá	1	Sololá	2	Febrero	2023-02-27T00:00:00	2024-11-08T10:00:00	2	Temperatura media	18.9
8954	7	Sololá	701	Sololá	1	Sololá	2	Febrero	2023-02-27T00:00:00	2024-11-08T10:00:00	4	Temperatura máxima	19
8955	7	Sololá	701	Sololá	1	Sololá	2	Febrero	2023-02-27T00:00:00	2024-11-08T10:00:00	3	Temperatura mínima	16.3
8956	7	Sololá	701	Sololá	1	Sololá	2	Febrero	2023-02-27T00:00:00	2024-11-08T10:00:00	5	Humedad	63
8957	7	Sololá	701	Sololá	1	Sololá	2	Febrero	2023-02-27T00:00:00	2024-11-08T10:00:00	6	Velocidad del viento	0
8958	7	Sololá	701	Sololá	1	Sololá	2	Febrero	2023-02-27T00:00:00	2024-11-08T10:00:00	7	Dirección del viento	0
8959	7	Sololá	701	Sololá	1	Sololá	2	Febrero	2023-02-27T00:00:00	2024-11-08T10:00:00	1	Precipitación	0
8960	7	Sololá	701	Sololá	1	Sololá	2	Febrero	2023-02-27T00:00:00	2024-11-08T10:00:00	8	Radiación solar	718
8961	7	Sololá	701	Sololá	1	Sololá	2	Febrero	2023-02-27T00:00:00	2024-11-08T11:00:00	2	Temperatura media	19.8
8962	7	Sololá	701	Sololá	1	Sololá	2	Febrero	2023-02-27T00:00:00	2024-11-08T11:00:00	4	Temperatura máxima	19.9
8963	7	Sololá	701	Sololá	1	Sololá	2	Febrero	2023-02-27T00:00:00	2024-11-08T11:00:00	3	Temperatura mínima	18.9
8964	7	Sololá	701	Sololá	1	Sololá	2	Febrero	2023-02-27T00:00:00	2024-11-08T11:00:00	5	Humedad	58
8965	7	Sololá	701	Sololá	1	Sololá	2	Febrero	2023-02-27T00:00:00	2024-11-08T11:00:00	6	Velocidad del viento	0
8966	7	Sololá	701	Sololá	1	Sololá	2	Febrero	2023-02-27T00:00:00	2024-11-08T11:00:00	7	Dirección del viento	0
8967	7	Sololá	701	Sololá	1	Sololá	2	Febrero	2023-02-27T00:00:00	2024-11-08T11:00:00	1	Precipitación	0
8968	7	Sololá	701	Sololá	1	Sololá	2	Febrero	2023-02-27T00:00:00	2024-11-08T11:00:00	8	Radiación solar	874
8969	7	Sololá	701	Sololá	1	Sololá	2	Febrero	2023-02-27T00:00:00	2024-11-08T12:00:00	2	Temperatura media	20.8
8970	7	Sololá	701	Sololá	1	Sololá	2	Febrero	2023-02-27T00:00:00	2024-11-08T12:00:00	4	Temperatura máxima	20.8
8971	7	Sololá	701	Sololá	1	Sololá	2	Febrero	2023-02-27T00:00:00	2024-11-08T12:00:00	3	Temperatura mínima	19.8
8972	7	Sololá	701	Sololá	1	Sololá	2	Febrero	2023-02-27T00:00:00	2024-11-08T12:00:00	5	Humedad	54
8973	7	Sololá	701	Sololá	1	Sololá	2	Febrero	2023-02-27T00:00:00	2024-11-08T12:00:00	6	Velocidad del viento	0
8974	7	Sololá	701	Sololá	1	Sololá	2	Febrero	2023-02-27T00:00:00	2024-11-08T12:00:00	7	Dirección del viento	0
8975	7	Sololá	701	Sololá	1	Sololá	2	Febrero	2023-02-27T00:00:00	2024-11-08T12:00:00	1	Precipitación	0
8976	7	Sololá	701	Sololá	1	Sololá	2	Febrero	2023-02-27T00:00:00	2024-11-08T12:00:00	8	Radiación solar	952
8977	7	Sololá	701	Sololá	1	Sololá	2	Febrero	2023-02-27T00:00:00	2024-11-08T13:00:00	2	Temperatura media	21.9
8978	7	Sololá	701	Sololá	1	Sololá	2	Febrero	2023-02-27T00:00:00	2024-11-08T13:00:00	4	Temperatura máxima	21.9
8979	7	Sololá	701	Sololá	1	Sololá	2	Febrero	2023-02-27T00:00:00	2024-11-08T13:00:00	3	Temperatura mínima	20.7
8980	7	Sololá	701	Sololá	1	Sololá	2	Febrero	2023-02-27T00:00:00	2024-11-08T13:00:00	5	Humedad	56
8981	7	Sololá	701	Sololá	1	Sololá	2	Febrero	2023-02-27T00:00:00	2024-11-08T13:00:00	6	Velocidad del viento	0
8982	7	Sololá	701	Sololá	1	Sololá	2	Febrero	2023-02-27T00:00:00	2024-11-08T13:00:00	7	Dirección del viento	0
8983	7	Sololá	701	Sololá	1	Sololá	2	Febrero	2023-02-27T00:00:00	2024-11-08T13:00:00	1	Precipitación	0
8984	7	Sololá	701	Sololá	1	Sololá	2	Febrero	2023-02-27T00:00:00	2024-11-08T13:00:00	8	Radiación solar	950
8985	7	Sololá	701	Sololá	1	Sololá	2	Febrero	2023-02-27T00:00:00	2024-11-08T14:00:00	2	Temperatura media	21.2
8986	7	Sololá	701	Sololá	1	Sololá	2	Febrero	2023-02-27T00:00:00	2024-11-08T14:00:00	4	Temperatura máxima	21.9
8987	7	Sololá	701	Sololá	1	Sololá	2	Febrero	2023-02-27T00:00:00	2024-11-08T14:00:00	3	Temperatura mínima	21.2
8988	7	Sololá	701	Sololá	1	Sololá	2	Febrero	2023-02-27T00:00:00	2024-11-08T14:00:00	5	Humedad	65
8989	7	Sololá	701	Sololá	1	Sololá	2	Febrero	2023-02-27T00:00:00	2024-11-08T14:00:00	6	Velocidad del viento	0
8990	7	Sololá	701	Sololá	1	Sololá	2	Febrero	2023-02-27T00:00:00	2024-11-08T14:00:00	7	Dirección del viento	0
8991	7	Sololá	701	Sololá	1	Sololá	2	Febrero	2023-02-27T00:00:00	2024-11-08T14:00:00	1	Precipitación	0
8992	7	Sololá	701	Sololá	1	Sololá	2	Febrero	2023-02-27T00:00:00	2024-11-08T14:00:00	8	Radiación solar	869
8993	7	Sololá	701	Sololá	1	Sololá	2	Febrero	2023-02-27T00:00:00	2024-11-08T15:00:00	2	Temperatura media	19.1
8994	7	Sololá	701	Sololá	1	Sololá	2	Febrero	2023-02-27T00:00:00	2024-11-08T15:00:00	4	Temperatura máxima	21.4
8995	7	Sololá	701	Sololá	1	Sololá	2	Febrero	2023-02-27T00:00:00	2024-11-08T15:00:00	3	Temperatura mínima	19.1
8996	7	Sololá	701	Sololá	1	Sololá	2	Febrero	2023-02-27T00:00:00	2024-11-08T15:00:00	5	Humedad	73
8997	7	Sololá	701	Sololá	1	Sololá	2	Febrero	2023-02-27T00:00:00	2024-11-08T15:00:00	6	Velocidad del viento	0
8998	7	Sololá	701	Sololá	1	Sololá	2	Febrero	2023-02-27T00:00:00	2024-11-08T15:00:00	7	Dirección del viento	0
8999	7	Sololá	701	Sololá	1	Sololá	2	Febrero	2023-02-27T00:00:00	2024-11-08T15:00:00	1	Precipitación	0
9000	7	Sololá	701	Sololá	1	Sololá	2	Febrero	2023-02-27T00:00:00	2024-11-08T15:00:00	8	Radiación solar	211
9001	7	Sololá	701	Sololá	1	Sololá	2	Febrero	2023-02-27T00:00:00	2024-11-08T16:00:00	2	Temperatura media	18.4
9002	7	Sololá	701	Sololá	1	Sololá	2	Febrero	2023-02-27T00:00:00	2024-11-08T16:00:00	4	Temperatura máxima	19.2
9003	7	Sololá	701	Sololá	1	Sololá	2	Febrero	2023-02-27T00:00:00	2024-11-08T16:00:00	3	Temperatura mínima	18.4
9004	7	Sololá	701	Sololá	1	Sololá	2	Febrero	2023-02-27T00:00:00	2024-11-08T16:00:00	5	Humedad	76
9005	7	Sololá	701	Sololá	1	Sololá	2	Febrero	2023-02-27T00:00:00	2024-11-08T16:00:00	6	Velocidad del viento	0
9006	7	Sololá	701	Sololá	1	Sololá	2	Febrero	2023-02-27T00:00:00	2024-11-08T16:00:00	7	Dirección del viento	0
9007	7	Sololá	701	Sololá	1	Sololá	2	Febrero	2023-02-27T00:00:00	2024-11-08T16:00:00	1	Precipitación	0
9008	7	Sololá	701	Sololá	1	Sololá	2	Febrero	2023-02-27T00:00:00	2024-11-08T16:00:00	8	Radiación solar	154
9009	7	Sololá	701	Sololá	1	Sololá	2	Febrero	2023-02-27T00:00:00	2024-11-08T17:00:00	2	Temperatura media	17
9010	7	Sololá	701	Sololá	1	Sololá	2	Febrero	2023-02-27T00:00:00	2024-11-08T17:00:00	4	Temperatura máxima	18.4
9011	7	Sololá	701	Sololá	1	Sololá	2	Febrero	2023-02-27T00:00:00	2024-11-08T17:00:00	3	Temperatura mínima	17
9012	7	Sololá	701	Sololá	1	Sololá	2	Febrero	2023-02-27T00:00:00	2024-11-08T17:00:00	5	Humedad	83
9013	7	Sololá	701	Sololá	1	Sololá	2	Febrero	2023-02-27T00:00:00	2024-11-08T17:00:00	6	Velocidad del viento	0
9014	7	Sololá	701	Sololá	1	Sololá	2	Febrero	2023-02-27T00:00:00	2024-11-08T17:00:00	7	Dirección del viento	0
9015	7	Sololá	701	Sololá	1	Sololá	2	Febrero	2023-02-27T00:00:00	2024-11-08T17:00:00	1	Precipitación	0
9016	7	Sololá	701	Sololá	1	Sololá	2	Febrero	2023-02-27T00:00:00	2024-11-08T17:00:00	8	Radiación solar	63
9017	7	Sololá	701	Sololá	1	Sololá	2	Febrero	2023-02-27T00:00:00	2024-11-08T18:00:00	2	Temperatura media	16.2
9018	7	Sololá	701	Sololá	1	Sololá	2	Febrero	2023-02-27T00:00:00	2024-11-08T18:00:00	4	Temperatura máxima	17.1
9019	7	Sololá	701	Sololá	1	Sololá	2	Febrero	2023-02-27T00:00:00	2024-11-08T18:00:00	3	Temperatura mínima	16.2
9020	7	Sololá	701	Sololá	1	Sololá	2	Febrero	2023-02-27T00:00:00	2024-11-08T18:00:00	5	Humedad	84
9021	7	Sololá	701	Sololá	1	Sololá	2	Febrero	2023-02-27T00:00:00	2024-11-08T18:00:00	6	Velocidad del viento	0
9022	7	Sololá	701	Sololá	1	Sololá	2	Febrero	2023-02-27T00:00:00	2024-11-08T18:00:00	7	Dirección del viento	0
9023	7	Sololá	701	Sololá	1	Sololá	2	Febrero	2023-02-27T00:00:00	2024-11-08T18:00:00	1	Precipitación	0
9024	7	Sololá	701	Sololá	1	Sololá	2	Febrero	2023-02-27T00:00:00	2024-11-08T18:00:00	8	Radiación solar	16
9025	7	Sololá	701	Sololá	1	Sololá	2	Febrero	2023-02-27T00:00:00	2024-11-08T19:00:00	2	Temperatura media	15.2
9026	7	Sololá	701	Sololá	1	Sololá	2	Febrero	2023-02-27T00:00:00	2024-11-08T19:00:00	4	Temperatura máxima	16.2
9027	7	Sololá	701	Sololá	1	Sololá	2	Febrero	2023-02-27T00:00:00	2024-11-08T19:00:00	3	Temperatura mínima	15.2
9028	7	Sololá	701	Sololá	1	Sololá	2	Febrero	2023-02-27T00:00:00	2024-11-08T19:00:00	5	Humedad	85
9029	7	Sololá	701	Sololá	1	Sololá	2	Febrero	2023-02-27T00:00:00	2024-11-08T19:00:00	6	Velocidad del viento	0
9030	7	Sololá	701	Sololá	1	Sololá	2	Febrero	2023-02-27T00:00:00	2024-11-08T19:00:00	7	Dirección del viento	0
9031	7	Sololá	701	Sololá	1	Sololá	2	Febrero	2023-02-27T00:00:00	2024-11-08T19:00:00	1	Precipitación	0
9032	7	Sololá	701	Sololá	1	Sololá	2	Febrero	2023-02-27T00:00:00	2024-11-08T19:00:00	8	Radiación solar	0
9033	7	Sololá	701	Sololá	1	Sololá	2	Febrero	2023-02-27T00:00:00	2024-11-08T20:00:00	2	Temperatura media	13.6
9034	7	Sololá	701	Sololá	1	Sololá	2	Febrero	2023-02-27T00:00:00	2024-11-08T20:00:00	4	Temperatura máxima	15.2
9035	7	Sololá	701	Sololá	1	Sololá	2	Febrero	2023-02-27T00:00:00	2024-11-08T20:00:00	3	Temperatura mínima	13.6
9036	7	Sololá	701	Sololá	1	Sololá	2	Febrero	2023-02-27T00:00:00	2024-11-08T20:00:00	5	Humedad	89
9037	7	Sololá	701	Sololá	1	Sololá	2	Febrero	2023-02-27T00:00:00	2024-11-08T20:00:00	6	Velocidad del viento	0
9038	7	Sololá	701	Sololá	1	Sololá	2	Febrero	2023-02-27T00:00:00	2024-11-08T20:00:00	7	Dirección del viento	0
9039	7	Sololá	701	Sololá	1	Sololá	2	Febrero	2023-02-27T00:00:00	2024-11-08T20:00:00	1	Precipitación	0
9040	7	Sololá	701	Sololá	1	Sololá	2	Febrero	2023-02-27T00:00:00	2024-11-08T20:00:00	8	Radiación solar	0
9041	7	Sololá	701	Sololá	1	Sololá	2	Febrero	2023-02-27T00:00:00	2024-11-08T21:00:00	2	Temperatura media	12.8
9042	7	Sololá	701	Sololá	1	Sololá	2	Febrero	2023-02-27T00:00:00	2024-11-08T21:00:00	4	Temperatura máxima	13.6
9043	7	Sololá	701	Sololá	1	Sololá	2	Febrero	2023-02-27T00:00:00	2024-11-08T21:00:00	3	Temperatura mínima	12.8
9044	7	Sololá	701	Sololá	1	Sololá	2	Febrero	2023-02-27T00:00:00	2024-11-08T21:00:00	5	Humedad	88
9045	7	Sololá	701	Sololá	1	Sololá	2	Febrero	2023-02-27T00:00:00	2024-11-08T21:00:00	6	Velocidad del viento	0
9046	7	Sololá	701	Sololá	1	Sololá	2	Febrero	2023-02-27T00:00:00	2024-11-08T21:00:00	7	Dirección del viento	0
9047	7	Sololá	701	Sololá	1	Sololá	2	Febrero	2023-02-27T00:00:00	2024-11-08T21:00:00	1	Precipitación	0
9048	7	Sololá	701	Sololá	1	Sololá	2	Febrero	2023-02-27T00:00:00	2024-11-08T21:00:00	8	Radiación solar	0
9049	7	Sololá	701	Sololá	1	Sololá	2	Febrero	2023-02-27T00:00:00	2024-11-08T22:00:00	2	Temperatura media	11.8
9050	7	Sololá	701	Sololá	1	Sololá	2	Febrero	2023-02-27T00:00:00	2024-11-08T22:00:00	4	Temperatura máxima	12.8
9051	7	Sololá	701	Sololá	1	Sololá	2	Febrero	2023-02-27T00:00:00	2024-11-08T22:00:00	3	Temperatura mínima	11.8
9052	7	Sololá	701	Sololá	1	Sololá	2	Febrero	2023-02-27T00:00:00	2024-11-08T22:00:00	5	Humedad	86
9053	7	Sololá	701	Sololá	1	Sololá	2	Febrero	2023-02-27T00:00:00	2024-11-08T22:00:00	6	Velocidad del viento	0
9054	7	Sololá	701	Sololá	1	Sololá	2	Febrero	2023-02-27T00:00:00	2024-11-08T22:00:00	7	Dirección del viento	0
9055	7	Sololá	701	Sololá	1	Sololá	2	Febrero	2023-02-27T00:00:00	2024-11-08T22:00:00	1	Precipitación	0
9056	7	Sololá	701	Sololá	1	Sololá	2	Febrero	2023-02-27T00:00:00	2024-11-08T22:00:00	8	Radiación solar	0
9057	7	Sololá	701	Sololá	1	Sololá	2	Febrero	2023-02-27T00:00:00	2024-11-08T23:00:00	2	Temperatura media	13.1
9058	7	Sololá	701	Sololá	1	Sololá	2	Febrero	2023-02-27T00:00:00	2024-11-08T23:00:00	4	Temperatura máxima	13.1
9059	7	Sololá	701	Sololá	1	Sololá	2	Febrero	2023-02-27T00:00:00	2024-11-08T23:00:00	3	Temperatura mínima	11.8
9060	7	Sololá	701	Sololá	1	Sololá	2	Febrero	2023-02-27T00:00:00	2024-11-08T23:00:00	5	Humedad	84
9061	7	Sololá	701	Sololá	1	Sololá	2	Febrero	2023-02-27T00:00:00	2024-11-08T23:00:00	6	Velocidad del viento	0
9062	7	Sololá	701	Sololá	1	Sololá	2	Febrero	2023-02-27T00:00:00	2024-11-08T23:00:00	7	Dirección del viento	0
9063	7	Sololá	701	Sololá	1	Sololá	2	Febrero	2023-02-27T00:00:00	2024-11-08T23:00:00	1	Precipitación	0
9064	7	Sololá	701	Sololá	1	Sololá	2	Febrero	2023-02-27T00:00:00	2024-11-08T23:00:00	8	Radiación solar	0
9065	7	Sololá	701	Sololá	1	Sololá	2	Febrero	2023-02-28T00:00:00	2024-11-08T00:00:00	2	Temperatura media	12.1
9066	7	Sololá	701	Sololá	1	Sololá	2	Febrero	2023-02-28T00:00:00	2024-11-08T00:00:00	4	Temperatura máxima	13.1
9067	7	Sololá	701	Sololá	1	Sololá	2	Febrero	2023-02-28T00:00:00	2024-11-08T00:00:00	3	Temperatura mínima	12.1
9068	7	Sololá	701	Sololá	1	Sololá	2	Febrero	2023-02-28T00:00:00	2024-11-08T00:00:00	5	Humedad	83
9069	7	Sololá	701	Sololá	1	Sololá	2	Febrero	2023-02-28T00:00:00	2024-11-08T00:00:00	6	Velocidad del viento	0
9070	7	Sololá	701	Sololá	1	Sololá	2	Febrero	2023-02-28T00:00:00	2024-11-08T00:00:00	7	Dirección del viento	0
9071	7	Sololá	701	Sololá	1	Sololá	2	Febrero	2023-02-28T00:00:00	2024-11-08T00:00:00	1	Precipitación	0
9072	7	Sololá	701	Sololá	1	Sololá	2	Febrero	2023-02-28T00:00:00	2024-11-08T00:00:00	8	Radiación solar	0
9073	7	Sololá	701	Sololá	1	Sololá	2	Febrero	2023-02-28T00:00:00	2024-11-08T01:00:00	2	Temperatura media	12.1
9074	7	Sololá	701	Sololá	1	Sololá	2	Febrero	2023-02-28T00:00:00	2024-11-08T01:00:00	4	Temperatura máxima	12.2
9075	7	Sololá	701	Sololá	1	Sololá	2	Febrero	2023-02-28T00:00:00	2024-11-08T01:00:00	3	Temperatura mínima	12.1
9076	7	Sololá	701	Sololá	1	Sololá	2	Febrero	2023-02-28T00:00:00	2024-11-08T01:00:00	5	Humedad	80
9077	7	Sololá	701	Sololá	1	Sololá	2	Febrero	2023-02-28T00:00:00	2024-11-08T01:00:00	6	Velocidad del viento	1.6
9078	7	Sololá	701	Sololá	1	Sololá	2	Febrero	2023-02-28T00:00:00	2024-11-08T01:00:00	7	Dirección del viento	1.61
9079	7	Sololá	701	Sololá	1	Sololá	2	Febrero	2023-02-28T00:00:00	2024-11-08T01:00:00	1	Precipitación	0
9080	7	Sololá	701	Sololá	1	Sololá	2	Febrero	2023-02-28T00:00:00	2024-11-08T01:00:00	8	Radiación solar	0
9081	7	Sololá	701	Sololá	1	Sololá	2	Febrero	2023-02-28T00:00:00	2024-11-08T02:00:00	2	Temperatura media	11.8
9082	7	Sololá	701	Sololá	1	Sololá	2	Febrero	2023-02-28T00:00:00	2024-11-08T02:00:00	4	Temperatura máxima	12.1
9083	7	Sololá	701	Sololá	1	Sololá	2	Febrero	2023-02-28T00:00:00	2024-11-08T02:00:00	3	Temperatura mínima	11.7
9084	7	Sololá	701	Sololá	1	Sololá	2	Febrero	2023-02-28T00:00:00	2024-11-08T02:00:00	5	Humedad	78
9085	7	Sololá	701	Sololá	1	Sololá	2	Febrero	2023-02-28T00:00:00	2024-11-08T02:00:00	6	Velocidad del viento	0
9086	7	Sololá	701	Sololá	1	Sololá	2	Febrero	2023-02-28T00:00:00	2024-11-08T02:00:00	7	Dirección del viento	0
9087	7	Sololá	701	Sololá	1	Sololá	2	Febrero	2023-02-28T00:00:00	2024-11-08T02:00:00	1	Precipitación	0
9088	7	Sololá	701	Sololá	1	Sololá	2	Febrero	2023-02-28T00:00:00	2024-11-08T02:00:00	8	Radiación solar	0
9089	7	Sololá	701	Sololá	1	Sololá	2	Febrero	2023-02-28T00:00:00	2024-11-08T03:00:00	2	Temperatura media	11.2
9090	7	Sololá	701	Sololá	1	Sololá	2	Febrero	2023-02-28T00:00:00	2024-11-08T03:00:00	4	Temperatura máxima	11.8
9091	7	Sololá	701	Sololá	1	Sololá	2	Febrero	2023-02-28T00:00:00	2024-11-08T03:00:00	3	Temperatura mínima	11.2
9092	7	Sololá	701	Sololá	1	Sololá	2	Febrero	2023-02-28T00:00:00	2024-11-08T03:00:00	5	Humedad	80
9093	7	Sololá	701	Sololá	1	Sololá	2	Febrero	2023-02-28T00:00:00	2024-11-08T03:00:00	6	Velocidad del viento	0
9094	7	Sololá	701	Sololá	1	Sololá	2	Febrero	2023-02-28T00:00:00	2024-11-08T03:00:00	7	Dirección del viento	0
9095	7	Sololá	701	Sololá	1	Sololá	2	Febrero	2023-02-28T00:00:00	2024-11-08T03:00:00	1	Precipitación	0
9096	7	Sololá	701	Sololá	1	Sololá	2	Febrero	2023-02-28T00:00:00	2024-11-08T03:00:00	8	Radiación solar	0
9097	7	Sololá	701	Sololá	1	Sololá	2	Febrero	2023-02-28T00:00:00	2024-11-08T04:00:00	2	Temperatura media	10.5
9098	7	Sololá	701	Sololá	1	Sololá	2	Febrero	2023-02-28T00:00:00	2024-11-08T04:00:00	4	Temperatura máxima	11.3
9099	7	Sololá	701	Sololá	1	Sololá	2	Febrero	2023-02-28T00:00:00	2024-11-08T04:00:00	3	Temperatura mínima	10.5
9100	7	Sololá	701	Sololá	1	Sololá	2	Febrero	2023-02-28T00:00:00	2024-11-08T04:00:00	5	Humedad	79
9101	7	Sololá	701	Sololá	1	Sololá	2	Febrero	2023-02-28T00:00:00	2024-11-08T04:00:00	6	Velocidad del viento	0
9102	7	Sololá	701	Sololá	1	Sololá	2	Febrero	2023-02-28T00:00:00	2024-11-08T04:00:00	7	Dirección del viento	0
9103	7	Sololá	701	Sololá	1	Sololá	2	Febrero	2023-02-28T00:00:00	2024-11-08T04:00:00	1	Precipitación	0
9104	7	Sololá	701	Sololá	1	Sololá	2	Febrero	2023-02-28T00:00:00	2024-11-08T04:00:00	8	Radiación solar	0
9105	7	Sololá	701	Sololá	1	Sololá	2	Febrero	2023-02-28T00:00:00	2024-11-08T05:00:00	2	Temperatura media	10.3
9106	7	Sololá	701	Sololá	1	Sololá	2	Febrero	2023-02-28T00:00:00	2024-11-08T05:00:00	4	Temperatura máxima	10.5
9107	7	Sololá	701	Sololá	1	Sololá	2	Febrero	2023-02-28T00:00:00	2024-11-08T05:00:00	3	Temperatura mínima	10.2
9108	7	Sololá	701	Sololá	1	Sololá	2	Febrero	2023-02-28T00:00:00	2024-11-08T05:00:00	5	Humedad	77
9109	7	Sololá	701	Sololá	1	Sololá	2	Febrero	2023-02-28T00:00:00	2024-11-08T05:00:00	6	Velocidad del viento	1.6
9110	7	Sololá	701	Sololá	1	Sololá	2	Febrero	2023-02-28T00:00:00	2024-11-08T05:00:00	7	Dirección del viento	1.61
9111	7	Sololá	701	Sololá	1	Sololá	2	Febrero	2023-02-28T00:00:00	2024-11-08T05:00:00	1	Precipitación	0
9112	7	Sololá	701	Sololá	1	Sololá	2	Febrero	2023-02-28T00:00:00	2024-11-08T05:00:00	8	Radiación solar	0
9113	7	Sololá	701	Sololá	1	Sololá	2	Febrero	2023-02-28T00:00:00	2024-11-08T06:00:00	2	Temperatura media	9.8
9114	7	Sololá	701	Sololá	1	Sololá	2	Febrero	2023-02-28T00:00:00	2024-11-08T06:00:00	4	Temperatura máxima	10.3
9115	7	Sololá	701	Sololá	1	Sololá	2	Febrero	2023-02-28T00:00:00	2024-11-08T06:00:00	3	Temperatura mínima	9.8
9116	7	Sololá	701	Sololá	1	Sololá	2	Febrero	2023-02-28T00:00:00	2024-11-08T06:00:00	5	Humedad	81
9117	7	Sololá	701	Sololá	1	Sololá	2	Febrero	2023-02-28T00:00:00	2024-11-08T06:00:00	6	Velocidad del viento	0
9118	7	Sololá	701	Sololá	1	Sololá	2	Febrero	2023-02-28T00:00:00	2024-11-08T06:00:00	7	Dirección del viento	0
9119	7	Sololá	701	Sololá	1	Sololá	2	Febrero	2023-02-28T00:00:00	2024-11-08T06:00:00	1	Precipitación	0
9120	7	Sololá	701	Sololá	1	Sololá	2	Febrero	2023-02-28T00:00:00	2024-11-08T06:00:00	8	Radiación solar	0
9121	7	Sololá	701	Sololá	1	Sololá	2	Febrero	2023-02-28T00:00:00	2024-11-08T07:00:00	2	Temperatura media	10
9122	7	Sololá	701	Sololá	1	Sololá	2	Febrero	2023-02-28T00:00:00	2024-11-08T07:00:00	4	Temperatura máxima	10
9123	7	Sololá	701	Sololá	1	Sololá	2	Febrero	2023-02-28T00:00:00	2024-11-08T07:00:00	3	Temperatura mínima	9.6
9124	7	Sololá	701	Sololá	1	Sololá	2	Febrero	2023-02-28T00:00:00	2024-11-08T07:00:00	5	Humedad	75
9125	7	Sololá	701	Sololá	1	Sololá	2	Febrero	2023-02-28T00:00:00	2024-11-08T07:00:00	6	Velocidad del viento	0
9126	7	Sololá	701	Sololá	1	Sololá	2	Febrero	2023-02-28T00:00:00	2024-11-08T07:00:00	7	Dirección del viento	0
9127	7	Sololá	701	Sololá	1	Sololá	2	Febrero	2023-02-28T00:00:00	2024-11-08T07:00:00	1	Precipitación	0
9128	7	Sololá	701	Sololá	1	Sololá	2	Febrero	2023-02-28T00:00:00	2024-11-08T07:00:00	8	Radiación solar	5
9129	7	Sololá	701	Sololá	1	Sololá	2	Febrero	2023-02-28T00:00:00	2024-11-08T08:00:00	2	Temperatura media	11.5
9130	7	Sololá	701	Sololá	1	Sololá	2	Febrero	2023-02-28T00:00:00	2024-11-08T08:00:00	4	Temperatura máxima	11.5
9131	7	Sololá	701	Sololá	1	Sololá	2	Febrero	2023-02-28T00:00:00	2024-11-08T08:00:00	3	Temperatura mínima	10
9132	7	Sololá	701	Sololá	1	Sololá	2	Febrero	2023-02-28T00:00:00	2024-11-08T08:00:00	5	Humedad	74
9133	7	Sololá	701	Sololá	1	Sololá	2	Febrero	2023-02-28T00:00:00	2024-11-08T08:00:00	6	Velocidad del viento	0
9134	7	Sololá	701	Sololá	1	Sololá	2	Febrero	2023-02-28T00:00:00	2024-11-08T08:00:00	7	Dirección del viento	0
9135	7	Sololá	701	Sololá	1	Sololá	2	Febrero	2023-02-28T00:00:00	2024-11-08T08:00:00	1	Precipitación	0
9136	7	Sololá	701	Sololá	1	Sololá	2	Febrero	2023-02-28T00:00:00	2024-11-08T08:00:00	8	Radiación solar	31
9137	7	Sololá	701	Sololá	1	Sololá	2	Febrero	2023-02-28T00:00:00	2024-11-08T09:00:00	2	Temperatura media	17.2
9138	7	Sololá	701	Sololá	1	Sololá	2	Febrero	2023-02-28T00:00:00	2024-11-08T09:00:00	4	Temperatura máxima	17.2
9139	7	Sololá	701	Sololá	1	Sololá	2	Febrero	2023-02-28T00:00:00	2024-11-08T09:00:00	3	Temperatura mínima	11.4
9140	7	Sololá	701	Sololá	1	Sololá	2	Febrero	2023-02-28T00:00:00	2024-11-08T09:00:00	5	Humedad	71
9141	7	Sololá	701	Sololá	1	Sololá	2	Febrero	2023-02-28T00:00:00	2024-11-08T09:00:00	6	Velocidad del viento	0
9142	7	Sololá	701	Sololá	1	Sololá	2	Febrero	2023-02-28T00:00:00	2024-11-08T09:00:00	7	Dirección del viento	0
9143	7	Sololá	701	Sololá	1	Sololá	2	Febrero	2023-02-28T00:00:00	2024-11-08T09:00:00	1	Precipitación	0
9144	7	Sololá	701	Sololá	1	Sololá	2	Febrero	2023-02-28T00:00:00	2024-11-08T09:00:00	8	Radiación solar	403
9145	7	Sololá	701	Sololá	1	Sololá	2	Febrero	2023-02-28T00:00:00	2024-11-08T10:00:00	2	Temperatura media	19.1
9146	7	Sololá	701	Sololá	1	Sololá	2	Febrero	2023-02-28T00:00:00	2024-11-08T10:00:00	4	Temperatura máxima	19.1
9147	7	Sololá	701	Sololá	1	Sololá	2	Febrero	2023-02-28T00:00:00	2024-11-08T10:00:00	3	Temperatura mínima	17.2
9148	7	Sololá	701	Sololá	1	Sololá	2	Febrero	2023-02-28T00:00:00	2024-11-08T10:00:00	5	Humedad	69
9149	7	Sololá	701	Sololá	1	Sololá	2	Febrero	2023-02-28T00:00:00	2024-11-08T10:00:00	6	Velocidad del viento	0
9150	7	Sololá	701	Sololá	1	Sololá	2	Febrero	2023-02-28T00:00:00	2024-11-08T10:00:00	7	Dirección del viento	0
9151	7	Sololá	701	Sololá	1	Sololá	2	Febrero	2023-02-28T00:00:00	2024-11-08T10:00:00	1	Precipitación	0
9152	7	Sololá	701	Sololá	1	Sololá	2	Febrero	2023-02-28T00:00:00	2024-11-08T10:00:00	8	Radiación solar	722
9153	7	Sololá	701	Sololá	1	Sololá	2	Febrero	2023-02-28T00:00:00	2024-11-08T11:00:00	2	Temperatura media	20.4
9154	7	Sololá	701	Sololá	1	Sololá	2	Febrero	2023-02-28T00:00:00	2024-11-08T11:00:00	4	Temperatura máxima	20.5
9155	7	Sololá	701	Sololá	1	Sololá	2	Febrero	2023-02-28T00:00:00	2024-11-08T11:00:00	3	Temperatura mínima	19.1
9156	7	Sololá	701	Sololá	1	Sololá	2	Febrero	2023-02-28T00:00:00	2024-11-08T11:00:00	5	Humedad	61
9157	7	Sololá	701	Sololá	1	Sololá	2	Febrero	2023-02-28T00:00:00	2024-11-08T11:00:00	6	Velocidad del viento	0
9158	7	Sololá	701	Sololá	1	Sololá	2	Febrero	2023-02-28T00:00:00	2024-11-08T11:00:00	7	Dirección del viento	0
9159	7	Sololá	701	Sololá	1	Sololá	2	Febrero	2023-02-28T00:00:00	2024-11-08T11:00:00	1	Precipitación	0
9160	7	Sololá	701	Sololá	1	Sololá	2	Febrero	2023-02-28T00:00:00	2024-11-08T11:00:00	8	Radiación solar	874
9161	7	Sololá	701	Sololá	1	Sololá	2	Febrero	2023-02-28T00:00:00	2024-11-08T12:00:00	2	Temperatura media	20.8
9162	7	Sololá	701	Sololá	1	Sololá	2	Febrero	2023-02-28T00:00:00	2024-11-08T12:00:00	4	Temperatura máxima	20.8
9163	7	Sololá	701	Sololá	1	Sololá	2	Febrero	2023-02-28T00:00:00	2024-11-08T12:00:00	3	Temperatura mínima	20.2
9164	7	Sololá	701	Sololá	1	Sololá	2	Febrero	2023-02-28T00:00:00	2024-11-08T12:00:00	5	Humedad	65
9165	7	Sololá	701	Sololá	1	Sololá	2	Febrero	2023-02-28T00:00:00	2024-11-08T12:00:00	6	Velocidad del viento	0
9166	7	Sololá	701	Sololá	1	Sololá	2	Febrero	2023-02-28T00:00:00	2024-11-08T12:00:00	7	Dirección del viento	0
9167	7	Sololá	701	Sololá	1	Sololá	2	Febrero	2023-02-28T00:00:00	2024-11-08T12:00:00	1	Precipitación	0
9168	7	Sololá	701	Sololá	1	Sololá	2	Febrero	2023-02-28T00:00:00	2024-11-08T12:00:00	8	Radiación solar	920
9169	7	Sololá	701	Sololá	1	Sololá	2	Febrero	2023-02-28T00:00:00	2024-11-08T13:00:00	2	Temperatura media	21.3
9170	7	Sololá	701	Sololá	1	Sololá	2	Febrero	2023-02-28T00:00:00	2024-11-08T13:00:00	4	Temperatura máxima	21.3
9171	7	Sololá	701	Sololá	1	Sololá	2	Febrero	2023-02-28T00:00:00	2024-11-08T13:00:00	3	Temperatura mínima	20.7
9172	7	Sololá	701	Sololá	1	Sololá	2	Febrero	2023-02-28T00:00:00	2024-11-08T13:00:00	5	Humedad	66
9173	7	Sololá	701	Sololá	1	Sololá	2	Febrero	2023-02-28T00:00:00	2024-11-08T13:00:00	6	Velocidad del viento	0
9174	7	Sololá	701	Sololá	1	Sololá	2	Febrero	2023-02-28T00:00:00	2024-11-08T13:00:00	7	Dirección del viento	0
9175	7	Sololá	701	Sololá	1	Sololá	2	Febrero	2023-02-28T00:00:00	2024-11-08T13:00:00	1	Precipitación	0
9176	7	Sololá	701	Sololá	1	Sololá	2	Febrero	2023-02-28T00:00:00	2024-11-08T13:00:00	8	Radiación solar	907
9177	7	Sololá	701	Sololá	1	Sololá	2	Febrero	2023-02-28T00:00:00	2024-11-08T14:00:00	2	Temperatura media	21.3
9178	7	Sololá	701	Sololá	1	Sololá	2	Febrero	2023-02-28T00:00:00	2024-11-08T14:00:00	4	Temperatura máxima	21.6
9179	7	Sololá	701	Sololá	1	Sololá	2	Febrero	2023-02-28T00:00:00	2024-11-08T14:00:00	3	Temperatura mínima	20.7
9180	7	Sololá	701	Sololá	1	Sololá	2	Febrero	2023-02-28T00:00:00	2024-11-08T14:00:00	5	Humedad	68
9181	7	Sololá	701	Sololá	1	Sololá	2	Febrero	2023-02-28T00:00:00	2024-11-08T14:00:00	6	Velocidad del viento	0
9182	7	Sololá	701	Sololá	1	Sololá	2	Febrero	2023-02-28T00:00:00	2024-11-08T14:00:00	7	Dirección del viento	0
9183	7	Sololá	701	Sololá	1	Sololá	2	Febrero	2023-02-28T00:00:00	2024-11-08T14:00:00	1	Precipitación	0
9184	7	Sololá	701	Sololá	1	Sololá	2	Febrero	2023-02-28T00:00:00	2024-11-08T14:00:00	8	Radiación solar	807
9185	7	Sololá	701	Sololá	1	Sololá	2	Febrero	2023-02-28T00:00:00	2024-11-08T15:00:00	2	Temperatura media	21.1
9186	7	Sololá	701	Sololá	1	Sololá	2	Febrero	2023-02-28T00:00:00	2024-11-08T15:00:00	4	Temperatura máxima	21.8
9187	7	Sololá	701	Sololá	1	Sololá	2	Febrero	2023-02-28T00:00:00	2024-11-08T15:00:00	3	Temperatura mínima	21.1
9188	7	Sololá	701	Sololá	1	Sololá	2	Febrero	2023-02-28T00:00:00	2024-11-08T15:00:00	5	Humedad	72
9189	7	Sololá	701	Sololá	1	Sololá	2	Febrero	2023-02-28T00:00:00	2024-11-08T15:00:00	6	Velocidad del viento	0
9190	7	Sololá	701	Sololá	1	Sololá	2	Febrero	2023-02-28T00:00:00	2024-11-08T15:00:00	7	Dirección del viento	0
9191	7	Sololá	701	Sololá	1	Sololá	2	Febrero	2023-02-28T00:00:00	2024-11-08T15:00:00	1	Precipitación	0
9192	7	Sololá	701	Sololá	1	Sololá	2	Febrero	2023-02-28T00:00:00	2024-11-08T15:00:00	8	Radiación solar	312
9193	7	Sololá	701	Sololá	1	Sololá	2	Febrero	2023-02-28T00:00:00	2024-11-08T16:00:00	2	Temperatura media	19.1
9194	7	Sololá	701	Sololá	1	Sololá	2	Febrero	2023-02-28T00:00:00	2024-11-08T16:00:00	4	Temperatura máxima	21.1
9195	7	Sololá	701	Sololá	1	Sololá	2	Febrero	2023-02-28T00:00:00	2024-11-08T16:00:00	3	Temperatura mínima	19.1
9196	7	Sololá	701	Sololá	1	Sololá	2	Febrero	2023-02-28T00:00:00	2024-11-08T16:00:00	5	Humedad	81
9197	7	Sololá	701	Sololá	1	Sololá	2	Febrero	2023-02-28T00:00:00	2024-11-08T16:00:00	6	Velocidad del viento	0
9198	7	Sololá	701	Sololá	1	Sololá	2	Febrero	2023-02-28T00:00:00	2024-11-08T16:00:00	7	Dirección del viento	0
9199	7	Sololá	701	Sololá	1	Sololá	2	Febrero	2023-02-28T00:00:00	2024-11-08T16:00:00	1	Precipitación	0
9200	7	Sololá	701	Sololá	1	Sololá	2	Febrero	2023-02-28T00:00:00	2024-11-08T16:00:00	8	Radiación solar	173
9201	7	Sololá	701	Sololá	1	Sololá	2	Febrero	2023-02-28T00:00:00	2024-11-08T17:00:00	2	Temperatura media	17.7
9202	7	Sololá	701	Sololá	1	Sololá	2	Febrero	2023-02-28T00:00:00	2024-11-08T17:00:00	4	Temperatura máxima	19.2
9203	7	Sololá	701	Sololá	1	Sololá	2	Febrero	2023-02-28T00:00:00	2024-11-08T17:00:00	3	Temperatura mínima	17.7
9204	7	Sololá	701	Sololá	1	Sololá	2	Febrero	2023-02-28T00:00:00	2024-11-08T17:00:00	5	Humedad	86
9205	7	Sololá	701	Sololá	1	Sololá	2	Febrero	2023-02-28T00:00:00	2024-11-08T17:00:00	6	Velocidad del viento	0
9206	7	Sololá	701	Sololá	1	Sololá	2	Febrero	2023-02-28T00:00:00	2024-11-08T17:00:00	7	Dirección del viento	0
9207	7	Sololá	701	Sololá	1	Sololá	2	Febrero	2023-02-28T00:00:00	2024-11-08T17:00:00	1	Precipitación	0
9208	7	Sololá	701	Sololá	1	Sololá	2	Febrero	2023-02-28T00:00:00	2024-11-08T17:00:00	8	Radiación solar	73
9209	7	Sololá	701	Sololá	1	Sololá	2	Febrero	2023-02-28T00:00:00	2024-11-08T18:00:00	2	Temperatura media	16.9
9210	7	Sololá	701	Sololá	1	Sololá	2	Febrero	2023-02-28T00:00:00	2024-11-08T18:00:00	4	Temperatura máxima	17.7
9211	7	Sololá	701	Sololá	1	Sololá	2	Febrero	2023-02-28T00:00:00	2024-11-08T18:00:00	3	Temperatura mínima	16.9
9212	7	Sololá	701	Sololá	1	Sololá	2	Febrero	2023-02-28T00:00:00	2024-11-08T18:00:00	5	Humedad	90
9213	7	Sololá	701	Sololá	1	Sololá	2	Febrero	2023-02-28T00:00:00	2024-11-08T18:00:00	6	Velocidad del viento	0
9214	7	Sololá	701	Sololá	1	Sololá	2	Febrero	2023-02-28T00:00:00	2024-11-08T18:00:00	7	Dirección del viento	0
9215	7	Sololá	701	Sololá	1	Sololá	2	Febrero	2023-02-28T00:00:00	2024-11-08T18:00:00	1	Precipitación	0
9216	7	Sololá	701	Sololá	1	Sololá	2	Febrero	2023-02-28T00:00:00	2024-11-08T18:00:00	8	Radiación solar	11
9217	7	Sololá	701	Sololá	1	Sololá	2	Febrero	2023-02-28T00:00:00	2024-11-08T19:00:00	2	Temperatura media	16.4
9218	7	Sololá	701	Sololá	1	Sololá	2	Febrero	2023-02-28T00:00:00	2024-11-08T19:00:00	4	Temperatura máxima	16.9
9219	7	Sololá	701	Sololá	1	Sololá	2	Febrero	2023-02-28T00:00:00	2024-11-08T19:00:00	3	Temperatura mínima	16.3
9220	7	Sololá	701	Sololá	1	Sololá	2	Febrero	2023-02-28T00:00:00	2024-11-08T19:00:00	5	Humedad	91
9221	7	Sololá	701	Sololá	1	Sololá	2	Febrero	2023-02-28T00:00:00	2024-11-08T19:00:00	6	Velocidad del viento	0
9222	7	Sololá	701	Sololá	1	Sololá	2	Febrero	2023-02-28T00:00:00	2024-11-08T19:00:00	7	Dirección del viento	0
9223	7	Sololá	701	Sololá	1	Sololá	2	Febrero	2023-02-28T00:00:00	2024-11-08T19:00:00	1	Precipitación	0
9224	7	Sololá	701	Sololá	1	Sololá	2	Febrero	2023-02-28T00:00:00	2024-11-08T19:00:00	8	Radiación solar	0
9225	7	Sololá	701	Sololá	1	Sololá	2	Febrero	2023-02-28T00:00:00	2024-11-08T20:00:00	2	Temperatura media	14.8
9226	7	Sololá	701	Sololá	1	Sololá	2	Febrero	2023-02-28T00:00:00	2024-11-08T20:00:00	4	Temperatura máxima	16.4
9227	7	Sololá	701	Sololá	1	Sololá	2	Febrero	2023-02-28T00:00:00	2024-11-08T20:00:00	3	Temperatura mínima	14.7
9228	7	Sololá	701	Sololá	1	Sololá	2	Febrero	2023-02-28T00:00:00	2024-11-08T20:00:00	5	Humedad	90
9229	7	Sololá	701	Sololá	1	Sololá	2	Febrero	2023-02-28T00:00:00	2024-11-08T20:00:00	6	Velocidad del viento	0
9230	7	Sololá	701	Sololá	1	Sololá	2	Febrero	2023-02-28T00:00:00	2024-11-08T20:00:00	7	Dirección del viento	0
9231	7	Sololá	701	Sololá	1	Sololá	2	Febrero	2023-02-28T00:00:00	2024-11-08T20:00:00	1	Precipitación	0
9232	7	Sololá	701	Sololá	1	Sololá	2	Febrero	2023-02-28T00:00:00	2024-11-08T20:00:00	8	Radiación solar	0
9233	7	Sololá	701	Sololá	1	Sololá	2	Febrero	2023-02-28T00:00:00	2024-11-08T21:00:00	2	Temperatura media	13.3
9234	7	Sololá	701	Sololá	1	Sololá	2	Febrero	2023-02-28T00:00:00	2024-11-08T21:00:00	4	Temperatura máxima	14.8
9235	7	Sololá	701	Sololá	1	Sololá	2	Febrero	2023-02-28T00:00:00	2024-11-08T21:00:00	3	Temperatura mínima	13.3
9236	7	Sololá	701	Sololá	1	Sololá	2	Febrero	2023-02-28T00:00:00	2024-11-08T21:00:00	5	Humedad	90
9237	7	Sololá	701	Sololá	1	Sololá	2	Febrero	2023-02-28T00:00:00	2024-11-08T21:00:00	6	Velocidad del viento	0
9238	7	Sololá	701	Sololá	1	Sololá	2	Febrero	2023-02-28T00:00:00	2024-11-08T21:00:00	7	Dirección del viento	0
9239	7	Sololá	701	Sololá	1	Sololá	2	Febrero	2023-02-28T00:00:00	2024-11-08T21:00:00	1	Precipitación	0
9240	7	Sololá	701	Sololá	1	Sololá	2	Febrero	2023-02-28T00:00:00	2024-11-08T21:00:00	8	Radiación solar	0
9241	7	Sololá	701	Sololá	1	Sololá	2	Febrero	2023-02-28T00:00:00	2024-11-08T22:00:00	2	Temperatura media	12.3
9242	7	Sololá	701	Sololá	1	Sololá	2	Febrero	2023-02-28T00:00:00	2024-11-08T22:00:00	4	Temperatura máxima	13.3
9243	7	Sololá	701	Sololá	1	Sololá	2	Febrero	2023-02-28T00:00:00	2024-11-08T22:00:00	3	Temperatura mínima	12.3
9244	7	Sololá	701	Sololá	1	Sololá	2	Febrero	2023-02-28T00:00:00	2024-11-08T22:00:00	5	Humedad	73
9245	7	Sololá	701	Sololá	1	Sololá	2	Febrero	2023-02-28T00:00:00	2024-11-08T22:00:00	6	Velocidad del viento	0
9246	7	Sololá	701	Sololá	1	Sololá	2	Febrero	2023-02-28T00:00:00	2024-11-08T22:00:00	7	Dirección del viento	0
9247	7	Sololá	701	Sololá	1	Sololá	2	Febrero	2023-02-28T00:00:00	2024-11-08T22:00:00	1	Precipitación	0
9248	7	Sololá	701	Sololá	1	Sololá	2	Febrero	2023-02-28T00:00:00	2024-11-08T22:00:00	8	Radiación solar	0
9249	7	Sololá	701	Sololá	1	Sololá	2	Febrero	2023-02-28T00:00:00	2024-11-08T23:00:00	2	Temperatura media	12.4
9250	7	Sololá	701	Sololá	1	Sololá	2	Febrero	2023-02-28T00:00:00	2024-11-08T23:00:00	4	Temperatura máxima	12.4
9251	7	Sololá	701	Sololá	1	Sololá	2	Febrero	2023-02-28T00:00:00	2024-11-08T23:00:00	3	Temperatura mínima	12
9252	7	Sololá	701	Sololá	1	Sololá	2	Febrero	2023-02-28T00:00:00	2024-11-08T23:00:00	5	Humedad	74
9253	7	Sololá	701	Sololá	1	Sololá	2	Febrero	2023-02-28T00:00:00	2024-11-08T23:00:00	6	Velocidad del viento	1.6
9254	7	Sololá	701	Sololá	1	Sololá	2	Febrero	2023-02-28T00:00:00	2024-11-08T23:00:00	7	Dirección del viento	1.61
9255	7	Sololá	701	Sololá	1	Sololá	2	Febrero	2023-02-28T00:00:00	2024-11-08T23:00:00	1	Precipitación	0
9256	7	Sololá	701	Sololá	1	Sololá	2	Febrero	2023-02-28T00:00:00	2024-11-08T23:00:00	8	Radiación solar	0
9257	7	Sololá	701	Sololá	1	Sololá	3	Marzo	2023-01-03T00:00:00	2024-11-08T00:00:00	2	Temperatura media	11.9
9258	7	Sololá	701	Sololá	1	Sololá	3	Marzo	2023-01-03T00:00:00	2024-11-08T00:00:00	4	Temperatura máxima	12.5
9259	7	Sololá	701	Sololá	1	Sololá	3	Marzo	2023-01-03T00:00:00	2024-11-08T00:00:00	3	Temperatura mínima	11.8
9260	7	Sololá	701	Sololá	1	Sololá	3	Marzo	2023-01-03T00:00:00	2024-11-08T00:00:00	5	Humedad	77
9261	7	Sololá	701	Sololá	1	Sololá	3	Marzo	2023-01-03T00:00:00	2024-11-08T00:00:00	6	Velocidad del viento	0
9262	7	Sololá	701	Sololá	1	Sololá	3	Marzo	2023-01-03T00:00:00	2024-11-08T00:00:00	7	Dirección del viento	0
9263	7	Sololá	701	Sololá	1	Sololá	3	Marzo	2023-01-03T00:00:00	2024-11-08T00:00:00	1	Precipitación	0
9264	7	Sololá	701	Sololá	1	Sololá	3	Marzo	2023-01-03T00:00:00	2024-11-08T00:00:00	8	Radiación solar	0
9265	7	Sololá	701	Sololá	1	Sololá	3	Marzo	2023-01-03T00:00:00	2024-11-08T01:00:00	2	Temperatura media	12.3
9266	7	Sololá	701	Sololá	1	Sololá	3	Marzo	2023-01-03T00:00:00	2024-11-08T01:00:00	4	Temperatura máxima	12.3
9267	7	Sololá	701	Sololá	1	Sololá	3	Marzo	2023-01-03T00:00:00	2024-11-08T01:00:00	3	Temperatura mínima	11.8
9268	7	Sololá	701	Sololá	1	Sololá	3	Marzo	2023-01-03T00:00:00	2024-11-08T01:00:00	5	Humedad	68
9269	7	Sololá	701	Sololá	1	Sololá	3	Marzo	2023-01-03T00:00:00	2024-11-08T01:00:00	6	Velocidad del viento	1.6
9270	7	Sololá	701	Sololá	1	Sololá	3	Marzo	2023-01-03T00:00:00	2024-11-08T01:00:00	7	Dirección del viento	1.61
9271	7	Sololá	701	Sololá	1	Sololá	3	Marzo	2023-01-03T00:00:00	2024-11-08T01:00:00	1	Precipitación	0
9272	7	Sololá	701	Sololá	1	Sololá	3	Marzo	2023-01-03T00:00:00	2024-11-08T01:00:00	8	Radiación solar	0
9273	7	Sololá	701	Sololá	1	Sololá	3	Marzo	2023-01-03T00:00:00	2024-11-08T02:00:00	2	Temperatura media	11.6
9274	7	Sololá	701	Sololá	1	Sololá	3	Marzo	2023-01-03T00:00:00	2024-11-08T02:00:00	4	Temperatura máxima	12.3
9275	7	Sololá	701	Sololá	1	Sololá	3	Marzo	2023-01-03T00:00:00	2024-11-08T02:00:00	3	Temperatura mínima	11.6
9276	7	Sololá	701	Sololá	1	Sololá	3	Marzo	2023-01-03T00:00:00	2024-11-08T02:00:00	5	Humedad	62
9277	7	Sololá	701	Sololá	1	Sololá	3	Marzo	2023-01-03T00:00:00	2024-11-08T02:00:00	6	Velocidad del viento	1.6
9278	7	Sololá	701	Sololá	1	Sololá	3	Marzo	2023-01-03T00:00:00	2024-11-08T02:00:00	7	Dirección del viento	1.61
9279	7	Sololá	701	Sololá	1	Sololá	3	Marzo	2023-01-03T00:00:00	2024-11-08T02:00:00	1	Precipitación	0
9280	7	Sololá	701	Sololá	1	Sololá	3	Marzo	2023-01-03T00:00:00	2024-11-08T02:00:00	8	Radiación solar	0
9281	7	Sololá	701	Sololá	1	Sololá	3	Marzo	2023-01-03T00:00:00	2024-11-08T03:00:00	2	Temperatura media	11.5
9282	7	Sololá	701	Sololá	1	Sololá	3	Marzo	2023-01-03T00:00:00	2024-11-08T03:00:00	4	Temperatura máxima	11.6
9283	7	Sololá	701	Sololá	1	Sololá	3	Marzo	2023-01-03T00:00:00	2024-11-08T03:00:00	3	Temperatura mínima	11.4
9284	7	Sololá	701	Sololá	1	Sololá	3	Marzo	2023-01-03T00:00:00	2024-11-08T03:00:00	5	Humedad	64
9285	7	Sololá	701	Sololá	1	Sololá	3	Marzo	2023-01-03T00:00:00	2024-11-08T03:00:00	6	Velocidad del viento	1.6
9286	7	Sololá	701	Sololá	1	Sololá	3	Marzo	2023-01-03T00:00:00	2024-11-08T03:00:00	7	Dirección del viento	1.61
9287	7	Sololá	701	Sololá	1	Sololá	3	Marzo	2023-01-03T00:00:00	2024-11-08T03:00:00	1	Precipitación	0
9288	7	Sololá	701	Sololá	1	Sololá	3	Marzo	2023-01-03T00:00:00	2024-11-08T03:00:00	8	Radiación solar	0
9289	7	Sololá	701	Sololá	1	Sololá	3	Marzo	2023-01-03T00:00:00	2024-11-08T04:00:00	2	Temperatura media	10.8
9290	7	Sololá	701	Sololá	1	Sololá	3	Marzo	2023-01-03T00:00:00	2024-11-08T04:00:00	4	Temperatura máxima	11.6
9291	7	Sololá	701	Sololá	1	Sololá	3	Marzo	2023-01-03T00:00:00	2024-11-08T04:00:00	3	Temperatura mínima	10.8
9292	7	Sololá	701	Sololá	1	Sololá	3	Marzo	2023-01-03T00:00:00	2024-11-08T04:00:00	5	Humedad	68
9293	7	Sololá	701	Sololá	1	Sololá	3	Marzo	2023-01-03T00:00:00	2024-11-08T04:00:00	6	Velocidad del viento	1.6
9294	7	Sololá	701	Sololá	1	Sololá	3	Marzo	2023-01-03T00:00:00	2024-11-08T04:00:00	7	Dirección del viento	1.61
9295	7	Sololá	701	Sololá	1	Sololá	3	Marzo	2023-01-03T00:00:00	2024-11-08T04:00:00	1	Precipitación	0
9296	7	Sololá	701	Sololá	1	Sololá	3	Marzo	2023-01-03T00:00:00	2024-11-08T04:00:00	8	Radiación solar	0
9297	7	Sololá	701	Sololá	1	Sololá	3	Marzo	2023-01-03T00:00:00	2024-11-08T05:00:00	2	Temperatura media	10.9
9298	7	Sololá	701	Sololá	1	Sololá	3	Marzo	2023-01-03T00:00:00	2024-11-08T05:00:00	4	Temperatura máxima	10.9
9299	7	Sololá	701	Sololá	1	Sololá	3	Marzo	2023-01-03T00:00:00	2024-11-08T05:00:00	3	Temperatura mínima	10.8
9300	7	Sololá	701	Sololá	1	Sololá	3	Marzo	2023-01-03T00:00:00	2024-11-08T05:00:00	5	Humedad	70
9301	7	Sololá	701	Sololá	1	Sololá	3	Marzo	2023-01-03T00:00:00	2024-11-08T05:00:00	6	Velocidad del viento	1.6
9302	7	Sololá	701	Sololá	1	Sololá	3	Marzo	2023-01-03T00:00:00	2024-11-08T05:00:00	7	Dirección del viento	1.61
9303	7	Sololá	701	Sololá	1	Sololá	3	Marzo	2023-01-03T00:00:00	2024-11-08T05:00:00	1	Precipitación	0
9304	7	Sololá	701	Sololá	1	Sololá	3	Marzo	2023-01-03T00:00:00	2024-11-08T05:00:00	8	Radiación solar	0
9305	7	Sololá	701	Sololá	1	Sololá	3	Marzo	2023-01-03T00:00:00	2024-11-08T06:00:00	2	Temperatura media	10.5
9306	7	Sololá	701	Sololá	1	Sololá	3	Marzo	2023-01-03T00:00:00	2024-11-08T06:00:00	4	Temperatura máxima	10.9
9307	7	Sololá	701	Sololá	1	Sololá	3	Marzo	2023-01-03T00:00:00	2024-11-08T06:00:00	3	Temperatura mínima	10.4
9308	7	Sololá	701	Sololá	1	Sololá	3	Marzo	2023-01-03T00:00:00	2024-11-08T06:00:00	5	Humedad	72
9309	7	Sololá	701	Sololá	1	Sololá	3	Marzo	2023-01-03T00:00:00	2024-11-08T06:00:00	6	Velocidad del viento	1.6
9310	7	Sololá	701	Sololá	1	Sololá	3	Marzo	2023-01-03T00:00:00	2024-11-08T06:00:00	7	Dirección del viento	1.61
9311	7	Sololá	701	Sololá	1	Sololá	3	Marzo	2023-01-03T00:00:00	2024-11-08T06:00:00	1	Precipitación	0
9312	7	Sololá	701	Sololá	1	Sololá	3	Marzo	2023-01-03T00:00:00	2024-11-08T06:00:00	8	Radiación solar	0
9313	7	Sololá	701	Sololá	1	Sololá	3	Marzo	2023-01-03T00:00:00	2024-11-08T07:00:00	2	Temperatura media	10.6
9314	7	Sololá	701	Sololá	1	Sololá	3	Marzo	2023-01-03T00:00:00	2024-11-08T07:00:00	4	Temperatura máxima	10.6
9315	7	Sololá	701	Sololá	1	Sololá	3	Marzo	2023-01-03T00:00:00	2024-11-08T07:00:00	3	Temperatura mínima	10.4
9316	7	Sololá	701	Sololá	1	Sololá	3	Marzo	2023-01-03T00:00:00	2024-11-08T07:00:00	5	Humedad	74
9317	7	Sololá	701	Sololá	1	Sololá	3	Marzo	2023-01-03T00:00:00	2024-11-08T07:00:00	6	Velocidad del viento	1.6
9318	7	Sololá	701	Sololá	1	Sololá	3	Marzo	2023-01-03T00:00:00	2024-11-08T07:00:00	7	Dirección del viento	1.61
9319	7	Sololá	701	Sololá	1	Sololá	3	Marzo	2023-01-03T00:00:00	2024-11-08T07:00:00	1	Precipitación	0
9320	7	Sololá	701	Sololá	1	Sololá	3	Marzo	2023-01-03T00:00:00	2024-11-08T07:00:00	8	Radiación solar	5
9321	7	Sololá	701	Sololá	1	Sololá	3	Marzo	2023-01-03T00:00:00	2024-11-08T08:00:00	2	Temperatura media	12.7
9322	7	Sololá	701	Sololá	1	Sololá	3	Marzo	2023-01-03T00:00:00	2024-11-08T08:00:00	4	Temperatura máxima	12.7
9323	7	Sololá	701	Sololá	1	Sololá	3	Marzo	2023-01-03T00:00:00	2024-11-08T08:00:00	3	Temperatura mínima	10.6
9324	7	Sololá	701	Sololá	1	Sololá	3	Marzo	2023-01-03T00:00:00	2024-11-08T08:00:00	5	Humedad	59
9325	7	Sololá	701	Sololá	1	Sololá	3	Marzo	2023-01-03T00:00:00	2024-11-08T08:00:00	6	Velocidad del viento	1.6
9326	7	Sololá	701	Sololá	1	Sololá	3	Marzo	2023-01-03T00:00:00	2024-11-08T08:00:00	7	Dirección del viento	1.61
9327	7	Sololá	701	Sololá	1	Sololá	3	Marzo	2023-01-03T00:00:00	2024-11-08T08:00:00	1	Precipitación	0
9328	7	Sololá	701	Sololá	1	Sololá	3	Marzo	2023-01-03T00:00:00	2024-11-08T08:00:00	8	Radiación solar	29
9329	7	Sololá	701	Sololá	1	Sololá	3	Marzo	2023-01-03T00:00:00	2024-11-08T09:00:00	2	Temperatura media	18.8
9330	7	Sololá	701	Sololá	1	Sololá	3	Marzo	2023-01-03T00:00:00	2024-11-08T09:00:00	4	Temperatura máxima	18.8
9331	7	Sololá	701	Sololá	1	Sololá	3	Marzo	2023-01-03T00:00:00	2024-11-08T09:00:00	3	Temperatura mínima	12.7
9332	7	Sololá	701	Sololá	1	Sololá	3	Marzo	2023-01-03T00:00:00	2024-11-08T09:00:00	5	Humedad	56
9333	7	Sololá	701	Sololá	1	Sololá	3	Marzo	2023-01-03T00:00:00	2024-11-08T09:00:00	6	Velocidad del viento	0
9334	7	Sololá	701	Sololá	1	Sololá	3	Marzo	2023-01-03T00:00:00	2024-11-08T09:00:00	7	Dirección del viento	0
9335	7	Sololá	701	Sololá	1	Sololá	3	Marzo	2023-01-03T00:00:00	2024-11-08T09:00:00	1	Precipitación	0
9336	7	Sololá	701	Sololá	1	Sololá	3	Marzo	2023-01-03T00:00:00	2024-11-08T09:00:00	8	Radiación solar	437
9337	7	Sololá	701	Sololá	1	Sololá	3	Marzo	2023-01-03T00:00:00	2024-11-08T10:00:00	2	Temperatura media	20.4
9338	7	Sololá	701	Sololá	1	Sololá	3	Marzo	2023-01-03T00:00:00	2024-11-08T10:00:00	4	Temperatura máxima	20.5
9339	7	Sololá	701	Sololá	1	Sololá	3	Marzo	2023-01-03T00:00:00	2024-11-08T10:00:00	3	Temperatura mínima	18.8
9340	7	Sololá	701	Sololá	1	Sololá	3	Marzo	2023-01-03T00:00:00	2024-11-08T10:00:00	5	Humedad	54
9341	7	Sololá	701	Sololá	1	Sololá	3	Marzo	2023-01-03T00:00:00	2024-11-08T10:00:00	6	Velocidad del viento	0
9342	7	Sololá	701	Sololá	1	Sololá	3	Marzo	2023-01-03T00:00:00	2024-11-08T10:00:00	7	Dirección del viento	0
9343	7	Sololá	701	Sololá	1	Sololá	3	Marzo	2023-01-03T00:00:00	2024-11-08T10:00:00	1	Precipitación	0
9344	7	Sololá	701	Sololá	1	Sololá	3	Marzo	2023-01-03T00:00:00	2024-11-08T10:00:00	8	Radiación solar	735
9345	7	Sololá	701	Sololá	1	Sololá	3	Marzo	2023-01-03T00:00:00	2024-11-08T11:00:00	2	Temperatura media	21.3
9346	7	Sololá	701	Sololá	1	Sololá	3	Marzo	2023-01-03T00:00:00	2024-11-08T11:00:00	4	Temperatura máxima	21.5
9347	7	Sololá	701	Sololá	1	Sololá	3	Marzo	2023-01-03T00:00:00	2024-11-08T11:00:00	3	Temperatura mínima	20.4
9348	7	Sololá	701	Sololá	1	Sololá	3	Marzo	2023-01-03T00:00:00	2024-11-08T11:00:00	5	Humedad	58
9349	7	Sololá	701	Sololá	1	Sololá	3	Marzo	2023-01-03T00:00:00	2024-11-08T11:00:00	6	Velocidad del viento	0
9350	7	Sololá	701	Sololá	1	Sololá	3	Marzo	2023-01-03T00:00:00	2024-11-08T11:00:00	7	Dirección del viento	0
9351	7	Sololá	701	Sololá	1	Sololá	3	Marzo	2023-01-03T00:00:00	2024-11-08T11:00:00	1	Precipitación	0
9352	7	Sololá	701	Sololá	1	Sololá	3	Marzo	2023-01-03T00:00:00	2024-11-08T11:00:00	8	Radiación solar	878
9353	7	Sololá	701	Sololá	1	Sololá	3	Marzo	2023-01-03T00:00:00	2024-11-08T12:00:00	2	Temperatura media	21.6
9354	7	Sololá	701	Sololá	1	Sololá	3	Marzo	2023-01-03T00:00:00	2024-11-08T12:00:00	4	Temperatura máxima	21.9
9355	7	Sololá	701	Sololá	1	Sololá	3	Marzo	2023-01-03T00:00:00	2024-11-08T12:00:00	3	Temperatura mínima	21.3
9356	7	Sololá	701	Sololá	1	Sololá	3	Marzo	2023-01-03T00:00:00	2024-11-08T12:00:00	5	Humedad	60
9357	7	Sololá	701	Sololá	1	Sololá	3	Marzo	2023-01-03T00:00:00	2024-11-08T12:00:00	6	Velocidad del viento	0
9358	7	Sololá	701	Sololá	1	Sololá	3	Marzo	2023-01-03T00:00:00	2024-11-08T12:00:00	7	Dirección del viento	0
9359	7	Sololá	701	Sololá	1	Sololá	3	Marzo	2023-01-03T00:00:00	2024-11-08T12:00:00	1	Precipitación	0
9360	7	Sololá	701	Sololá	1	Sololá	3	Marzo	2023-01-03T00:00:00	2024-11-08T12:00:00	8	Radiación solar	944
9361	7	Sololá	701	Sololá	1	Sololá	3	Marzo	2023-01-03T00:00:00	2024-11-08T13:00:00	2	Temperatura media	21.4
9362	7	Sololá	701	Sololá	1	Sololá	3	Marzo	2023-01-03T00:00:00	2024-11-08T13:00:00	4	Temperatura máxima	22.1
9363	7	Sololá	701	Sololá	1	Sololá	3	Marzo	2023-01-03T00:00:00	2024-11-08T13:00:00	3	Temperatura mínima	21.4
9364	7	Sololá	701	Sololá	1	Sololá	3	Marzo	2023-01-03T00:00:00	2024-11-08T13:00:00	5	Humedad	70
9365	7	Sololá	701	Sololá	1	Sololá	3	Marzo	2023-01-03T00:00:00	2024-11-08T13:00:00	6	Velocidad del viento	0
9366	7	Sololá	701	Sololá	1	Sololá	3	Marzo	2023-01-03T00:00:00	2024-11-08T13:00:00	7	Dirección del viento	0
9367	7	Sololá	701	Sololá	1	Sololá	3	Marzo	2023-01-03T00:00:00	2024-11-08T13:00:00	1	Precipitación	0
9368	7	Sololá	701	Sololá	1	Sololá	3	Marzo	2023-01-03T00:00:00	2024-11-08T13:00:00	8	Radiación solar	920
9369	7	Sololá	701	Sololá	1	Sololá	3	Marzo	2023-01-03T00:00:00	2024-11-08T14:00:00	2	Temperatura media	20.8
9370	7	Sololá	701	Sololá	1	Sololá	3	Marzo	2023-01-03T00:00:00	2024-11-08T14:00:00	4	Temperatura máxima	21.4
9371	7	Sololá	701	Sololá	1	Sololá	3	Marzo	2023-01-03T00:00:00	2024-11-08T14:00:00	3	Temperatura mínima	20.7
9372	7	Sololá	701	Sololá	1	Sololá	3	Marzo	2023-01-03T00:00:00	2024-11-08T14:00:00	5	Humedad	72
9373	7	Sololá	701	Sololá	1	Sololá	3	Marzo	2023-01-03T00:00:00	2024-11-08T14:00:00	6	Velocidad del viento	0
9374	7	Sololá	701	Sololá	1	Sololá	3	Marzo	2023-01-03T00:00:00	2024-11-08T14:00:00	7	Dirección del viento	0
9375	7	Sololá	701	Sololá	1	Sololá	3	Marzo	2023-01-03T00:00:00	2024-11-08T14:00:00	1	Precipitación	0
9376	7	Sololá	701	Sololá	1	Sololá	3	Marzo	2023-01-03T00:00:00	2024-11-08T14:00:00	8	Radiación solar	565
9377	7	Sololá	701	Sololá	1	Sololá	3	Marzo	2023-01-03T00:00:00	2024-11-08T15:00:00	2	Temperatura media	20.6
9378	7	Sololá	701	Sololá	1	Sololá	3	Marzo	2023-01-03T00:00:00	2024-11-08T15:00:00	4	Temperatura máxima	21.3
9379	7	Sololá	701	Sololá	1	Sololá	3	Marzo	2023-01-03T00:00:00	2024-11-08T15:00:00	3	Temperatura mínima	20.2
9380	7	Sololá	701	Sololá	1	Sololá	3	Marzo	2023-01-03T00:00:00	2024-11-08T15:00:00	5	Humedad	75
9381	7	Sololá	701	Sololá	1	Sololá	3	Marzo	2023-01-03T00:00:00	2024-11-08T15:00:00	6	Velocidad del viento	0
9382	7	Sololá	701	Sololá	1	Sololá	3	Marzo	2023-01-03T00:00:00	2024-11-08T15:00:00	7	Dirección del viento	0
9383	7	Sololá	701	Sololá	1	Sololá	3	Marzo	2023-01-03T00:00:00	2024-11-08T15:00:00	1	Precipitación	0
9384	7	Sololá	701	Sololá	1	Sololá	3	Marzo	2023-01-03T00:00:00	2024-11-08T15:00:00	8	Radiación solar	324
9385	7	Sololá	701	Sololá	1	Sololá	3	Marzo	2023-01-03T00:00:00	2024-11-08T16:00:00	2	Temperatura media	20.3
9386	7	Sololá	701	Sololá	1	Sololá	3	Marzo	2023-01-03T00:00:00	2024-11-08T16:00:00	4	Temperatura máxima	20.7
9387	7	Sololá	701	Sololá	1	Sololá	3	Marzo	2023-01-03T00:00:00	2024-11-08T16:00:00	3	Temperatura mínima	20.2
9388	7	Sololá	701	Sololá	1	Sololá	3	Marzo	2023-01-03T00:00:00	2024-11-08T16:00:00	5	Humedad	77
9389	7	Sololá	701	Sololá	1	Sololá	3	Marzo	2023-01-03T00:00:00	2024-11-08T16:00:00	6	Velocidad del viento	0
9390	7	Sololá	701	Sololá	1	Sololá	3	Marzo	2023-01-03T00:00:00	2024-11-08T16:00:00	7	Dirección del viento	0
9391	7	Sololá	701	Sololá	1	Sololá	3	Marzo	2023-01-03T00:00:00	2024-11-08T16:00:00	1	Precipitación	0
9392	7	Sololá	701	Sololá	1	Sololá	3	Marzo	2023-01-03T00:00:00	2024-11-08T16:00:00	8	Radiación solar	255
9393	7	Sololá	701	Sololá	1	Sololá	3	Marzo	2023-01-03T00:00:00	2024-11-08T17:00:00	2	Temperatura media	18.3
9394	7	Sololá	701	Sololá	1	Sololá	3	Marzo	2023-01-03T00:00:00	2024-11-08T17:00:00	4	Temperatura máxima	20.3
9395	7	Sololá	701	Sololá	1	Sololá	3	Marzo	2023-01-03T00:00:00	2024-11-08T17:00:00	3	Temperatura mínima	18.3
9396	7	Sololá	701	Sololá	1	Sololá	3	Marzo	2023-01-03T00:00:00	2024-11-08T17:00:00	5	Humedad	85
9397	7	Sololá	701	Sololá	1	Sololá	3	Marzo	2023-01-03T00:00:00	2024-11-08T17:00:00	6	Velocidad del viento	0
9398	7	Sololá	701	Sololá	1	Sololá	3	Marzo	2023-01-03T00:00:00	2024-11-08T17:00:00	7	Dirección del viento	0
9399	7	Sololá	701	Sololá	1	Sololá	3	Marzo	2023-01-03T00:00:00	2024-11-08T17:00:00	1	Precipitación	0
9400	7	Sololá	701	Sololá	1	Sololá	3	Marzo	2023-01-03T00:00:00	2024-11-08T17:00:00	8	Radiación solar	156
9401	7	Sololá	701	Sololá	1	Sololá	3	Marzo	2023-01-03T00:00:00	2024-11-08T18:00:00	2	Temperatura media	16.6
9402	7	Sololá	701	Sololá	1	Sololá	3	Marzo	2023-01-03T00:00:00	2024-11-08T18:00:00	4	Temperatura máxima	18.3
9403	7	Sololá	701	Sololá	1	Sololá	3	Marzo	2023-01-03T00:00:00	2024-11-08T18:00:00	3	Temperatura mínima	16.6
9404	7	Sololá	701	Sololá	1	Sololá	3	Marzo	2023-01-03T00:00:00	2024-11-08T18:00:00	5	Humedad	90
9405	7	Sololá	701	Sololá	1	Sololá	3	Marzo	2023-01-03T00:00:00	2024-11-08T18:00:00	6	Velocidad del viento	0
9406	7	Sololá	701	Sololá	1	Sololá	3	Marzo	2023-01-03T00:00:00	2024-11-08T18:00:00	7	Dirección del viento	0
9407	7	Sololá	701	Sololá	1	Sololá	3	Marzo	2023-01-03T00:00:00	2024-11-08T18:00:00	1	Precipitación	0
9408	7	Sololá	701	Sololá	1	Sololá	3	Marzo	2023-01-03T00:00:00	2024-11-08T18:00:00	8	Radiación solar	17
9409	7	Sololá	701	Sololá	1	Sololá	3	Marzo	2023-01-03T00:00:00	2024-11-08T19:00:00	2	Temperatura media	15.7
9410	7	Sololá	701	Sololá	1	Sololá	3	Marzo	2023-01-03T00:00:00	2024-11-08T19:00:00	4	Temperatura máxima	16.6
9411	7	Sololá	701	Sololá	1	Sololá	3	Marzo	2023-01-03T00:00:00	2024-11-08T19:00:00	3	Temperatura mínima	15.7
9412	7	Sololá	701	Sololá	1	Sololá	3	Marzo	2023-01-03T00:00:00	2024-11-08T19:00:00	5	Humedad	91
9413	7	Sololá	701	Sololá	1	Sololá	3	Marzo	2023-01-03T00:00:00	2024-11-08T19:00:00	6	Velocidad del viento	0
9414	7	Sololá	701	Sololá	1	Sololá	3	Marzo	2023-01-03T00:00:00	2024-11-08T19:00:00	7	Dirección del viento	0
9415	7	Sololá	701	Sololá	1	Sololá	3	Marzo	2023-01-03T00:00:00	2024-11-08T19:00:00	1	Precipitación	0
9416	7	Sololá	701	Sololá	1	Sololá	3	Marzo	2023-01-03T00:00:00	2024-11-08T19:00:00	8	Radiación solar	0
9417	7	Sololá	701	Sololá	1	Sololá	3	Marzo	2023-01-03T00:00:00	2024-11-08T20:00:00	2	Temperatura media	14.4
9418	7	Sololá	701	Sololá	1	Sololá	3	Marzo	2023-01-03T00:00:00	2024-11-08T20:00:00	4	Temperatura máxima	15.7
9419	7	Sololá	701	Sololá	1	Sololá	3	Marzo	2023-01-03T00:00:00	2024-11-08T20:00:00	3	Temperatura mínima	14.4
9420	7	Sololá	701	Sololá	1	Sololá	3	Marzo	2023-01-03T00:00:00	2024-11-08T20:00:00	5	Humedad	91
9421	7	Sololá	701	Sololá	1	Sololá	3	Marzo	2023-01-03T00:00:00	2024-11-08T20:00:00	6	Velocidad del viento	0
9422	7	Sololá	701	Sololá	1	Sololá	3	Marzo	2023-01-03T00:00:00	2024-11-08T20:00:00	7	Dirección del viento	0
9423	7	Sololá	701	Sololá	1	Sololá	3	Marzo	2023-01-03T00:00:00	2024-11-08T20:00:00	1	Precipitación	0
9424	7	Sololá	701	Sololá	1	Sololá	3	Marzo	2023-01-03T00:00:00	2024-11-08T20:00:00	8	Radiación solar	0
9425	7	Sololá	701	Sololá	1	Sololá	3	Marzo	2023-01-03T00:00:00	2024-11-08T21:00:00	2	Temperatura media	14
9426	7	Sololá	701	Sololá	1	Sololá	3	Marzo	2023-01-03T00:00:00	2024-11-08T21:00:00	4	Temperatura máxima	14.4
9427	7	Sololá	701	Sololá	1	Sololá	3	Marzo	2023-01-03T00:00:00	2024-11-08T21:00:00	3	Temperatura mínima	14
9428	7	Sololá	701	Sololá	1	Sololá	3	Marzo	2023-01-03T00:00:00	2024-11-08T21:00:00	5	Humedad	91
9429	7	Sololá	701	Sololá	1	Sololá	3	Marzo	2023-01-03T00:00:00	2024-11-08T21:00:00	6	Velocidad del viento	0
9430	7	Sololá	701	Sololá	1	Sololá	3	Marzo	2023-01-03T00:00:00	2024-11-08T21:00:00	7	Dirección del viento	0
9431	7	Sololá	701	Sololá	1	Sololá	3	Marzo	2023-01-03T00:00:00	2024-11-08T21:00:00	1	Precipitación	0
9432	7	Sololá	701	Sololá	1	Sololá	3	Marzo	2023-01-03T00:00:00	2024-11-08T21:00:00	8	Radiación solar	0
9433	7	Sololá	701	Sololá	1	Sololá	3	Marzo	2023-01-03T00:00:00	2024-11-08T22:00:00	2	Temperatura media	13.2
9434	7	Sololá	701	Sololá	1	Sololá	3	Marzo	2023-01-03T00:00:00	2024-11-08T22:00:00	4	Temperatura máxima	14
9435	7	Sololá	701	Sololá	1	Sololá	3	Marzo	2023-01-03T00:00:00	2024-11-08T22:00:00	3	Temperatura mínima	13.2
9436	7	Sololá	701	Sololá	1	Sololá	3	Marzo	2023-01-03T00:00:00	2024-11-08T22:00:00	5	Humedad	86
9437	7	Sololá	701	Sololá	1	Sololá	3	Marzo	2023-01-03T00:00:00	2024-11-08T22:00:00	6	Velocidad del viento	0
9438	7	Sololá	701	Sololá	1	Sololá	3	Marzo	2023-01-03T00:00:00	2024-11-08T22:00:00	7	Dirección del viento	0
9439	7	Sololá	701	Sololá	1	Sololá	3	Marzo	2023-01-03T00:00:00	2024-11-08T22:00:00	1	Precipitación	0
9440	7	Sololá	701	Sololá	1	Sololá	3	Marzo	2023-01-03T00:00:00	2024-11-08T22:00:00	8	Radiación solar	0
9441	7	Sololá	701	Sololá	1	Sololá	3	Marzo	2023-01-03T00:00:00	2024-11-08T23:00:00	2	Temperatura media	13.3
9442	7	Sololá	701	Sololá	1	Sololá	3	Marzo	2023-01-03T00:00:00	2024-11-08T23:00:00	4	Temperatura máxima	13.4
9443	7	Sololá	701	Sololá	1	Sololá	3	Marzo	2023-01-03T00:00:00	2024-11-08T23:00:00	3	Temperatura mínima	12.9
9444	7	Sololá	701	Sololá	1	Sololá	3	Marzo	2023-01-03T00:00:00	2024-11-08T23:00:00	5	Humedad	81
9445	7	Sololá	701	Sololá	1	Sololá	3	Marzo	2023-01-03T00:00:00	2024-11-08T23:00:00	6	Velocidad del viento	0
9446	7	Sololá	701	Sololá	1	Sololá	3	Marzo	2023-01-03T00:00:00	2024-11-08T23:00:00	7	Dirección del viento	0
9447	7	Sololá	701	Sololá	1	Sololá	3	Marzo	2023-01-03T00:00:00	2024-11-08T23:00:00	1	Precipitación	0
9448	7	Sololá	701	Sololá	1	Sololá	3	Marzo	2023-01-03T00:00:00	2024-11-08T23:00:00	8	Radiación solar	0
9449	7	Sololá	701	Sololá	1	Sololá	3	Marzo	2023-02-03T00:00:00	2024-11-08T00:00:00	2	Temperatura media	13
9450	7	Sololá	701	Sololá	1	Sololá	3	Marzo	2023-02-03T00:00:00	2024-11-08T00:00:00	4	Temperatura máxima	13.3
9451	7	Sololá	701	Sololá	1	Sololá	3	Marzo	2023-02-03T00:00:00	2024-11-08T00:00:00	3	Temperatura mínima	13
9452	7	Sololá	701	Sololá	1	Sololá	3	Marzo	2023-02-03T00:00:00	2024-11-08T00:00:00	5	Humedad	84
9453	7	Sololá	701	Sololá	1	Sololá	3	Marzo	2023-02-03T00:00:00	2024-11-08T00:00:00	6	Velocidad del viento	1.6
9454	7	Sololá	701	Sololá	1	Sololá	3	Marzo	2023-02-03T00:00:00	2024-11-08T00:00:00	7	Dirección del viento	1.61
9455	7	Sololá	701	Sololá	1	Sololá	3	Marzo	2023-02-03T00:00:00	2024-11-08T00:00:00	1	Precipitación	0
9456	7	Sololá	701	Sololá	1	Sololá	3	Marzo	2023-02-03T00:00:00	2024-11-08T00:00:00	8	Radiación solar	0
9457	7	Sololá	701	Sololá	1	Sololá	3	Marzo	2023-02-03T00:00:00	2024-11-08T01:00:00	2	Temperatura media	13.4
9458	7	Sololá	701	Sololá	1	Sololá	3	Marzo	2023-02-03T00:00:00	2024-11-08T01:00:00	4	Temperatura máxima	13.4
9459	7	Sololá	701	Sololá	1	Sololá	3	Marzo	2023-02-03T00:00:00	2024-11-08T01:00:00	3	Temperatura mínima	12.9
9460	7	Sololá	701	Sololá	1	Sololá	3	Marzo	2023-02-03T00:00:00	2024-11-08T01:00:00	5	Humedad	89
9461	7	Sololá	701	Sololá	1	Sololá	3	Marzo	2023-02-03T00:00:00	2024-11-08T01:00:00	6	Velocidad del viento	0
9462	7	Sololá	701	Sololá	1	Sololá	3	Marzo	2023-02-03T00:00:00	2024-11-08T01:00:00	7	Dirección del viento	0
9463	7	Sololá	701	Sololá	1	Sololá	3	Marzo	2023-02-03T00:00:00	2024-11-08T01:00:00	1	Precipitación	0
9464	7	Sololá	701	Sololá	1	Sololá	3	Marzo	2023-02-03T00:00:00	2024-11-08T01:00:00	8	Radiación solar	0
9465	7	Sololá	701	Sololá	1	Sololá	3	Marzo	2023-02-03T00:00:00	2024-11-08T02:00:00	2	Temperatura media	13.3
9466	7	Sololá	701	Sololá	1	Sololá	3	Marzo	2023-02-03T00:00:00	2024-11-08T02:00:00	4	Temperatura máxima	13.4
9467	7	Sololá	701	Sololá	1	Sololá	3	Marzo	2023-02-03T00:00:00	2024-11-08T02:00:00	3	Temperatura mínima	13.3
9468	7	Sololá	701	Sololá	1	Sololá	3	Marzo	2023-02-03T00:00:00	2024-11-08T02:00:00	5	Humedad	90
9469	7	Sololá	701	Sololá	1	Sololá	3	Marzo	2023-02-03T00:00:00	2024-11-08T02:00:00	6	Velocidad del viento	0
9470	7	Sololá	701	Sololá	1	Sololá	3	Marzo	2023-02-03T00:00:00	2024-11-08T02:00:00	7	Dirección del viento	0
9471	7	Sololá	701	Sololá	1	Sololá	3	Marzo	2023-02-03T00:00:00	2024-11-08T02:00:00	1	Precipitación	0
9472	7	Sololá	701	Sololá	1	Sololá	3	Marzo	2023-02-03T00:00:00	2024-11-08T02:00:00	8	Radiación solar	0
9473	7	Sololá	701	Sololá	1	Sololá	3	Marzo	2023-02-03T00:00:00	2024-11-08T03:00:00	2	Temperatura media	11.9
9474	7	Sololá	701	Sololá	1	Sololá	3	Marzo	2023-02-03T00:00:00	2024-11-08T03:00:00	4	Temperatura máxima	13.3
9475	7	Sololá	701	Sololá	1	Sololá	3	Marzo	2023-02-03T00:00:00	2024-11-08T03:00:00	3	Temperatura mínima	11.9
9476	7	Sololá	701	Sololá	1	Sololá	3	Marzo	2023-02-03T00:00:00	2024-11-08T03:00:00	5	Humedad	85
9477	7	Sololá	701	Sololá	1	Sololá	3	Marzo	2023-02-03T00:00:00	2024-11-08T03:00:00	6	Velocidad del viento	0
9478	7	Sololá	701	Sololá	1	Sololá	3	Marzo	2023-02-03T00:00:00	2024-11-08T03:00:00	7	Dirección del viento	0
9479	7	Sololá	701	Sololá	1	Sololá	3	Marzo	2023-02-03T00:00:00	2024-11-08T03:00:00	1	Precipitación	0
9480	7	Sololá	701	Sololá	1	Sololá	3	Marzo	2023-02-03T00:00:00	2024-11-08T03:00:00	8	Radiación solar	0
9481	7	Sololá	701	Sololá	1	Sololá	3	Marzo	2023-02-03T00:00:00	2024-11-08T04:00:00	2	Temperatura media	11.3
9482	7	Sololá	701	Sololá	1	Sololá	3	Marzo	2023-02-03T00:00:00	2024-11-08T04:00:00	4	Temperatura máxima	11.9
9483	7	Sololá	701	Sololá	1	Sololá	3	Marzo	2023-02-03T00:00:00	2024-11-08T04:00:00	3	Temperatura mínima	11.3
9484	7	Sololá	701	Sololá	1	Sololá	3	Marzo	2023-02-03T00:00:00	2024-11-08T04:00:00	5	Humedad	87
9485	7	Sololá	701	Sololá	1	Sololá	3	Marzo	2023-02-03T00:00:00	2024-11-08T04:00:00	6	Velocidad del viento	0
9486	7	Sololá	701	Sololá	1	Sololá	3	Marzo	2023-02-03T00:00:00	2024-11-08T04:00:00	7	Dirección del viento	0
9487	7	Sololá	701	Sololá	1	Sololá	3	Marzo	2023-02-03T00:00:00	2024-11-08T04:00:00	1	Precipitación	0
9488	7	Sololá	701	Sololá	1	Sololá	3	Marzo	2023-02-03T00:00:00	2024-11-08T04:00:00	8	Radiación solar	0
9489	7	Sololá	701	Sololá	1	Sololá	3	Marzo	2023-02-03T00:00:00	2024-11-08T05:00:00	2	Temperatura media	10.9
9490	7	Sololá	701	Sololá	1	Sololá	3	Marzo	2023-02-03T00:00:00	2024-11-08T05:00:00	4	Temperatura máxima	11.3
9491	7	Sololá	701	Sololá	1	Sololá	3	Marzo	2023-02-03T00:00:00	2024-11-08T05:00:00	3	Temperatura mínima	10.9
9492	7	Sololá	701	Sololá	1	Sololá	3	Marzo	2023-02-03T00:00:00	2024-11-08T05:00:00	5	Humedad	90
9493	7	Sololá	701	Sololá	1	Sololá	3	Marzo	2023-02-03T00:00:00	2024-11-08T05:00:00	6	Velocidad del viento	0
9494	7	Sololá	701	Sololá	1	Sololá	3	Marzo	2023-02-03T00:00:00	2024-11-08T05:00:00	7	Dirección del viento	0
9495	7	Sololá	701	Sololá	1	Sololá	3	Marzo	2023-02-03T00:00:00	2024-11-08T05:00:00	1	Precipitación	0
9496	7	Sololá	701	Sololá	1	Sololá	3	Marzo	2023-02-03T00:00:00	2024-11-08T05:00:00	8	Radiación solar	0
9497	7	Sololá	701	Sololá	1	Sololá	3	Marzo	2023-02-03T00:00:00	2024-11-08T06:00:00	2	Temperatura media	10.7
9498	7	Sololá	701	Sololá	1	Sololá	3	Marzo	2023-02-03T00:00:00	2024-11-08T06:00:00	4	Temperatura máxima	10.9
9499	7	Sololá	701	Sololá	1	Sololá	3	Marzo	2023-02-03T00:00:00	2024-11-08T06:00:00	3	Temperatura mínima	10.7
9500	7	Sololá	701	Sololá	1	Sololá	3	Marzo	2023-02-03T00:00:00	2024-11-08T06:00:00	5	Humedad	93
9501	7	Sololá	701	Sololá	1	Sololá	3	Marzo	2023-02-03T00:00:00	2024-11-08T06:00:00	6	Velocidad del viento	0
9502	7	Sololá	701	Sololá	1	Sololá	3	Marzo	2023-02-03T00:00:00	2024-11-08T06:00:00	7	Dirección del viento	0
9503	7	Sololá	701	Sololá	1	Sololá	3	Marzo	2023-02-03T00:00:00	2024-11-08T06:00:00	1	Precipitación	0
9504	7	Sololá	701	Sololá	1	Sololá	3	Marzo	2023-02-03T00:00:00	2024-11-08T06:00:00	8	Radiación solar	0
9505	7	Sololá	701	Sololá	1	Sololá	3	Marzo	2023-02-03T00:00:00	2024-11-08T07:00:00	2	Temperatura media	10.5
9506	7	Sololá	701	Sololá	1	Sololá	3	Marzo	2023-02-03T00:00:00	2024-11-08T07:00:00	4	Temperatura máxima	10.7
9507	7	Sololá	701	Sololá	1	Sololá	3	Marzo	2023-02-03T00:00:00	2024-11-08T07:00:00	3	Temperatura mínima	10.4
9508	7	Sololá	701	Sololá	1	Sololá	3	Marzo	2023-02-03T00:00:00	2024-11-08T07:00:00	5	Humedad	90
9509	7	Sololá	701	Sololá	1	Sololá	3	Marzo	2023-02-03T00:00:00	2024-11-08T07:00:00	6	Velocidad del viento	0
9510	7	Sololá	701	Sololá	1	Sololá	3	Marzo	2023-02-03T00:00:00	2024-11-08T07:00:00	7	Dirección del viento	0
9511	7	Sololá	701	Sololá	1	Sololá	3	Marzo	2023-02-03T00:00:00	2024-11-08T07:00:00	1	Precipitación	0
9512	7	Sololá	701	Sololá	1	Sololá	3	Marzo	2023-02-03T00:00:00	2024-11-08T07:00:00	8	Radiación solar	10
9513	7	Sololá	701	Sololá	1	Sololá	3	Marzo	2023-02-03T00:00:00	2024-11-08T08:00:00	2	Temperatura media	12.2
9514	7	Sololá	701	Sololá	1	Sololá	3	Marzo	2023-02-03T00:00:00	2024-11-08T08:00:00	4	Temperatura máxima	12.2
9515	7	Sololá	701	Sololá	1	Sololá	3	Marzo	2023-02-03T00:00:00	2024-11-08T08:00:00	3	Temperatura mínima	10.5
9516	7	Sololá	701	Sololá	1	Sololá	3	Marzo	2023-02-03T00:00:00	2024-11-08T08:00:00	5	Humedad	88
9517	7	Sololá	701	Sololá	1	Sololá	3	Marzo	2023-02-03T00:00:00	2024-11-08T08:00:00	6	Velocidad del viento	0
9518	7	Sololá	701	Sololá	1	Sololá	3	Marzo	2023-02-03T00:00:00	2024-11-08T08:00:00	7	Dirección del viento	0
9519	7	Sololá	701	Sololá	1	Sololá	3	Marzo	2023-02-03T00:00:00	2024-11-08T08:00:00	1	Precipitación	0
9520	7	Sololá	701	Sololá	1	Sololá	3	Marzo	2023-02-03T00:00:00	2024-11-08T08:00:00	8	Radiación solar	44
9521	7	Sololá	701	Sololá	1	Sololá	3	Marzo	2023-02-03T00:00:00	2024-11-08T09:00:00	2	Temperatura media	17.3
9522	7	Sololá	701	Sololá	1	Sololá	3	Marzo	2023-02-03T00:00:00	2024-11-08T09:00:00	4	Temperatura máxima	17.3
9523	7	Sololá	701	Sololá	1	Sololá	3	Marzo	2023-02-03T00:00:00	2024-11-08T09:00:00	3	Temperatura mínima	12.2
9524	7	Sololá	701	Sololá	1	Sololá	3	Marzo	2023-02-03T00:00:00	2024-11-08T09:00:00	5	Humedad	70
9525	7	Sololá	701	Sololá	1	Sololá	3	Marzo	2023-02-03T00:00:00	2024-11-08T09:00:00	6	Velocidad del viento	0
9526	7	Sololá	701	Sololá	1	Sololá	3	Marzo	2023-02-03T00:00:00	2024-11-08T09:00:00	7	Dirección del viento	0
9527	7	Sololá	701	Sololá	1	Sololá	3	Marzo	2023-02-03T00:00:00	2024-11-08T09:00:00	1	Precipitación	0
9528	7	Sololá	701	Sololá	1	Sololá	3	Marzo	2023-02-03T00:00:00	2024-11-08T09:00:00	8	Radiación solar	393
9529	7	Sololá	701	Sololá	1	Sololá	3	Marzo	2023-02-03T00:00:00	2024-11-08T10:00:00	2	Temperatura media	19.9
9530	7	Sololá	701	Sololá	1	Sololá	3	Marzo	2023-02-03T00:00:00	2024-11-08T10:00:00	4	Temperatura máxima	19.9
9531	7	Sololá	701	Sololá	1	Sololá	3	Marzo	2023-02-03T00:00:00	2024-11-08T10:00:00	3	Temperatura mínima	17.3
9532	7	Sololá	701	Sololá	1	Sololá	3	Marzo	2023-02-03T00:00:00	2024-11-08T10:00:00	5	Humedad	64
9533	7	Sololá	701	Sololá	1	Sololá	3	Marzo	2023-02-03T00:00:00	2024-11-08T10:00:00	6	Velocidad del viento	0
9534	7	Sololá	701	Sololá	1	Sololá	3	Marzo	2023-02-03T00:00:00	2024-11-08T10:00:00	7	Dirección del viento	0
9535	7	Sololá	701	Sololá	1	Sololá	3	Marzo	2023-02-03T00:00:00	2024-11-08T10:00:00	1	Precipitación	0
9536	7	Sololá	701	Sololá	1	Sololá	3	Marzo	2023-02-03T00:00:00	2024-11-08T10:00:00	8	Radiación solar	729
9537	7	Sololá	701	Sololá	1	Sololá	3	Marzo	2023-02-03T00:00:00	2024-11-08T11:00:00	2	Temperatura media	21.1
9538	7	Sololá	701	Sololá	1	Sololá	3	Marzo	2023-02-03T00:00:00	2024-11-08T11:00:00	4	Temperatura máxima	21.1
9539	7	Sololá	701	Sololá	1	Sololá	3	Marzo	2023-02-03T00:00:00	2024-11-08T11:00:00	3	Temperatura mínima	19.9
9540	7	Sololá	701	Sololá	1	Sololá	3	Marzo	2023-02-03T00:00:00	2024-11-08T11:00:00	5	Humedad	36
9541	7	Sololá	701	Sololá	1	Sololá	3	Marzo	2023-02-03T00:00:00	2024-11-08T11:00:00	6	Velocidad del viento	0
9542	7	Sololá	701	Sololá	1	Sololá	3	Marzo	2023-02-03T00:00:00	2024-11-08T11:00:00	7	Dirección del viento	0
9543	7	Sololá	701	Sololá	1	Sololá	3	Marzo	2023-02-03T00:00:00	2024-11-08T11:00:00	1	Precipitación	0
9544	7	Sololá	701	Sololá	1	Sololá	3	Marzo	2023-02-03T00:00:00	2024-11-08T11:00:00	8	Radiación solar	874
9545	7	Sololá	701	Sololá	1	Sololá	3	Marzo	2023-02-03T00:00:00	2024-11-08T12:00:00	2	Temperatura media	21.9
9546	7	Sololá	701	Sololá	1	Sololá	3	Marzo	2023-02-03T00:00:00	2024-11-08T12:00:00	4	Temperatura máxima	21.9
9547	7	Sololá	701	Sololá	1	Sololá	3	Marzo	2023-02-03T00:00:00	2024-11-08T12:00:00	3	Temperatura mínima	21.1
9548	7	Sololá	701	Sololá	1	Sololá	3	Marzo	2023-02-03T00:00:00	2024-11-08T12:00:00	5	Humedad	43
9549	7	Sololá	701	Sololá	1	Sololá	3	Marzo	2023-02-03T00:00:00	2024-11-08T12:00:00	6	Velocidad del viento	0
9550	7	Sololá	701	Sololá	1	Sololá	3	Marzo	2023-02-03T00:00:00	2024-11-08T12:00:00	7	Dirección del viento	0
9551	7	Sololá	701	Sololá	1	Sololá	3	Marzo	2023-02-03T00:00:00	2024-11-08T12:00:00	1	Precipitación	0
9552	7	Sololá	701	Sololá	1	Sololá	3	Marzo	2023-02-03T00:00:00	2024-11-08T12:00:00	8	Radiación solar	954
9553	7	Sololá	701	Sololá	1	Sololá	3	Marzo	2023-02-03T00:00:00	2024-11-08T13:00:00	2	Temperatura media	22.4
9554	7	Sololá	701	Sololá	1	Sololá	3	Marzo	2023-02-03T00:00:00	2024-11-08T13:00:00	4	Temperatura máxima	22.6
9555	7	Sololá	701	Sololá	1	Sololá	3	Marzo	2023-02-03T00:00:00	2024-11-08T13:00:00	3	Temperatura mínima	21.8
9556	7	Sololá	701	Sololá	1	Sololá	3	Marzo	2023-02-03T00:00:00	2024-11-08T13:00:00	5	Humedad	42
9557	7	Sololá	701	Sololá	1	Sololá	3	Marzo	2023-02-03T00:00:00	2024-11-08T13:00:00	6	Velocidad del viento	0
9558	7	Sololá	701	Sololá	1	Sololá	3	Marzo	2023-02-03T00:00:00	2024-11-08T13:00:00	7	Dirección del viento	0
9559	7	Sololá	701	Sololá	1	Sololá	3	Marzo	2023-02-03T00:00:00	2024-11-08T13:00:00	1	Precipitación	0
9560	7	Sololá	701	Sololá	1	Sololá	3	Marzo	2023-02-03T00:00:00	2024-11-08T13:00:00	8	Radiación solar	922
9561	7	Sololá	701	Sololá	1	Sololá	3	Marzo	2023-02-03T00:00:00	2024-11-08T14:00:00	2	Temperatura media	21.3
9562	7	Sololá	701	Sololá	1	Sololá	3	Marzo	2023-02-03T00:00:00	2024-11-08T14:00:00	4	Temperatura máxima	22.6
9563	7	Sololá	701	Sololá	1	Sololá	3	Marzo	2023-02-03T00:00:00	2024-11-08T14:00:00	3	Temperatura mínima	21.3
9564	7	Sololá	701	Sololá	1	Sololá	3	Marzo	2023-02-03T00:00:00	2024-11-08T14:00:00	5	Humedad	66
9565	7	Sololá	701	Sololá	1	Sololá	3	Marzo	2023-02-03T00:00:00	2024-11-08T14:00:00	6	Velocidad del viento	0
9566	7	Sololá	701	Sololá	1	Sololá	3	Marzo	2023-02-03T00:00:00	2024-11-08T14:00:00	7	Dirección del viento	0
9567	7	Sololá	701	Sololá	1	Sololá	3	Marzo	2023-02-03T00:00:00	2024-11-08T14:00:00	1	Precipitación	0
9568	7	Sololá	701	Sololá	1	Sololá	3	Marzo	2023-02-03T00:00:00	2024-11-08T14:00:00	8	Radiación solar	836
9569	7	Sololá	701	Sololá	1	Sololá	3	Marzo	2023-02-03T00:00:00	2024-11-08T15:00:00	2	Temperatura media	20.1
9570	7	Sololá	701	Sololá	1	Sololá	3	Marzo	2023-02-03T00:00:00	2024-11-08T15:00:00	4	Temperatura máxima	21.3
9571	7	Sololá	701	Sololá	1	Sololá	3	Marzo	2023-02-03T00:00:00	2024-11-08T15:00:00	3	Temperatura mínima	20.1
9572	7	Sololá	701	Sololá	1	Sololá	3	Marzo	2023-02-03T00:00:00	2024-11-08T15:00:00	5	Humedad	72
9573	7	Sololá	701	Sololá	1	Sololá	3	Marzo	2023-02-03T00:00:00	2024-11-08T15:00:00	6	Velocidad del viento	0
9574	7	Sololá	701	Sololá	1	Sololá	3	Marzo	2023-02-03T00:00:00	2024-11-08T15:00:00	7	Dirección del viento	0
9575	7	Sololá	701	Sololá	1	Sololá	3	Marzo	2023-02-03T00:00:00	2024-11-08T15:00:00	1	Precipitación	0
9576	7	Sololá	701	Sololá	1	Sololá	3	Marzo	2023-02-03T00:00:00	2024-11-08T15:00:00	8	Radiación solar	287
9577	7	Sololá	701	Sololá	1	Sololá	3	Marzo	2023-02-03T00:00:00	2024-11-08T16:00:00	2	Temperatura media	19.6
9578	7	Sololá	701	Sololá	1	Sololá	3	Marzo	2023-02-03T00:00:00	2024-11-08T16:00:00	4	Temperatura máxima	20.2
9579	7	Sololá	701	Sololá	1	Sololá	3	Marzo	2023-02-03T00:00:00	2024-11-08T16:00:00	3	Temperatura mínima	19.6
9580	7	Sololá	701	Sololá	1	Sololá	3	Marzo	2023-02-03T00:00:00	2024-11-08T16:00:00	5	Humedad	74
9581	7	Sololá	701	Sololá	1	Sololá	3	Marzo	2023-02-03T00:00:00	2024-11-08T16:00:00	6	Velocidad del viento	0
9582	7	Sololá	701	Sololá	1	Sololá	3	Marzo	2023-02-03T00:00:00	2024-11-08T16:00:00	7	Dirección del viento	0
9583	7	Sololá	701	Sololá	1	Sololá	3	Marzo	2023-02-03T00:00:00	2024-11-08T16:00:00	1	Precipitación	0
9584	7	Sololá	701	Sololá	1	Sololá	3	Marzo	2023-02-03T00:00:00	2024-11-08T16:00:00	8	Radiación solar	186
9585	7	Sololá	701	Sololá	1	Sololá	3	Marzo	2023-02-03T00:00:00	2024-11-08T17:00:00	2	Temperatura media	17.5
9586	7	Sololá	701	Sololá	1	Sololá	3	Marzo	2023-02-03T00:00:00	2024-11-08T17:00:00	4	Temperatura máxima	19.6
9587	7	Sololá	701	Sololá	1	Sololá	3	Marzo	2023-02-03T00:00:00	2024-11-08T17:00:00	3	Temperatura mínima	17.5
9588	7	Sololá	701	Sololá	1	Sololá	3	Marzo	2023-02-03T00:00:00	2024-11-08T17:00:00	5	Humedad	80
9589	7	Sololá	701	Sololá	1	Sololá	3	Marzo	2023-02-03T00:00:00	2024-11-08T17:00:00	6	Velocidad del viento	0
9590	7	Sololá	701	Sololá	1	Sololá	3	Marzo	2023-02-03T00:00:00	2024-11-08T17:00:00	7	Dirección del viento	0
9591	7	Sololá	701	Sololá	1	Sololá	3	Marzo	2023-02-03T00:00:00	2024-11-08T17:00:00	1	Precipitación	0
9592	7	Sololá	701	Sololá	1	Sololá	3	Marzo	2023-02-03T00:00:00	2024-11-08T17:00:00	8	Radiación solar	86
9593	7	Sololá	701	Sololá	1	Sololá	3	Marzo	2023-02-03T00:00:00	2024-11-08T18:00:00	2	Temperatura media	16.7
9594	7	Sololá	701	Sololá	1	Sololá	3	Marzo	2023-02-03T00:00:00	2024-11-08T18:00:00	4	Temperatura máxima	17.5
9595	7	Sololá	701	Sololá	1	Sololá	3	Marzo	2023-02-03T00:00:00	2024-11-08T18:00:00	3	Temperatura mínima	16.7
9596	7	Sololá	701	Sololá	1	Sololá	3	Marzo	2023-02-03T00:00:00	2024-11-08T18:00:00	5	Humedad	86
9597	7	Sololá	701	Sololá	1	Sololá	3	Marzo	2023-02-03T00:00:00	2024-11-08T18:00:00	6	Velocidad del viento	0
9598	7	Sololá	701	Sololá	1	Sololá	3	Marzo	2023-02-03T00:00:00	2024-11-08T18:00:00	7	Dirección del viento	0
9599	7	Sololá	701	Sololá	1	Sololá	3	Marzo	2023-02-03T00:00:00	2024-11-08T18:00:00	1	Precipitación	0
9600	7	Sololá	701	Sololá	1	Sololá	3	Marzo	2023-02-03T00:00:00	2024-11-08T18:00:00	8	Radiación solar	32
9601	7	Sololá	701	Sololá	1	Sololá	3	Marzo	2023-02-03T00:00:00	2024-11-08T19:00:00	2	Temperatura media	15.1
9602	7	Sololá	701	Sololá	1	Sololá	3	Marzo	2023-02-03T00:00:00	2024-11-08T19:00:00	4	Temperatura máxima	16.7
9603	7	Sololá	701	Sololá	1	Sololá	3	Marzo	2023-02-03T00:00:00	2024-11-08T19:00:00	3	Temperatura mínima	15.1
9604	7	Sololá	701	Sololá	1	Sololá	3	Marzo	2023-02-03T00:00:00	2024-11-08T19:00:00	5	Humedad	90
9605	7	Sololá	701	Sololá	1	Sololá	3	Marzo	2023-02-03T00:00:00	2024-11-08T19:00:00	6	Velocidad del viento	0
9606	7	Sololá	701	Sololá	1	Sololá	3	Marzo	2023-02-03T00:00:00	2024-11-08T19:00:00	7	Dirección del viento	0
9607	7	Sololá	701	Sololá	1	Sololá	3	Marzo	2023-02-03T00:00:00	2024-11-08T19:00:00	1	Precipitación	0
9608	7	Sololá	701	Sololá	1	Sololá	3	Marzo	2023-02-03T00:00:00	2024-11-08T19:00:00	8	Radiación solar	0
9609	7	Sololá	701	Sololá	1	Sololá	3	Marzo	2023-02-03T00:00:00	2024-11-08T20:00:00	2	Temperatura media	14.5
9610	7	Sololá	701	Sololá	1	Sololá	3	Marzo	2023-02-03T00:00:00	2024-11-08T20:00:00	4	Temperatura máxima	15.1
9611	7	Sololá	701	Sololá	1	Sololá	3	Marzo	2023-02-03T00:00:00	2024-11-08T20:00:00	3	Temperatura mínima	14.4
9612	7	Sololá	701	Sololá	1	Sololá	3	Marzo	2023-02-03T00:00:00	2024-11-08T20:00:00	5	Humedad	91
9613	7	Sololá	701	Sololá	1	Sololá	3	Marzo	2023-02-03T00:00:00	2024-11-08T20:00:00	6	Velocidad del viento	0
9614	7	Sololá	701	Sololá	1	Sololá	3	Marzo	2023-02-03T00:00:00	2024-11-08T20:00:00	7	Dirección del viento	0
9615	7	Sololá	701	Sololá	1	Sololá	3	Marzo	2023-02-03T00:00:00	2024-11-08T20:00:00	1	Precipitación	0
9616	7	Sololá	701	Sololá	1	Sololá	3	Marzo	2023-02-03T00:00:00	2024-11-08T20:00:00	8	Radiación solar	0
9617	7	Sololá	701	Sololá	1	Sololá	3	Marzo	2023-02-03T00:00:00	2024-11-08T21:00:00	2	Temperatura media	14.2
9618	7	Sololá	701	Sololá	1	Sololá	3	Marzo	2023-02-03T00:00:00	2024-11-08T21:00:00	4	Temperatura máxima	14.5
9619	7	Sololá	701	Sololá	1	Sololá	3	Marzo	2023-02-03T00:00:00	2024-11-08T21:00:00	3	Temperatura mínima	14.2
9620	7	Sololá	701	Sololá	1	Sololá	3	Marzo	2023-02-03T00:00:00	2024-11-08T21:00:00	5	Humedad	92
9621	7	Sololá	701	Sololá	1	Sololá	3	Marzo	2023-02-03T00:00:00	2024-11-08T21:00:00	6	Velocidad del viento	0
9622	7	Sololá	701	Sololá	1	Sololá	3	Marzo	2023-02-03T00:00:00	2024-11-08T21:00:00	7	Dirección del viento	0
9623	7	Sololá	701	Sololá	1	Sololá	3	Marzo	2023-02-03T00:00:00	2024-11-08T21:00:00	1	Precipitación	0
9624	7	Sololá	701	Sololá	1	Sololá	3	Marzo	2023-02-03T00:00:00	2024-11-08T21:00:00	8	Radiación solar	0
9625	7	Sololá	701	Sololá	1	Sololá	3	Marzo	2023-02-03T00:00:00	2024-11-08T22:00:00	2	Temperatura media	12.9
9626	7	Sololá	701	Sololá	1	Sololá	3	Marzo	2023-02-03T00:00:00	2024-11-08T22:00:00	4	Temperatura máxima	14.2
9627	7	Sololá	701	Sololá	1	Sololá	3	Marzo	2023-02-03T00:00:00	2024-11-08T22:00:00	3	Temperatura mínima	12.9
9628	7	Sololá	701	Sololá	1	Sololá	3	Marzo	2023-02-03T00:00:00	2024-11-08T22:00:00	5	Humedad	84
9629	7	Sololá	701	Sololá	1	Sololá	3	Marzo	2023-02-03T00:00:00	2024-11-08T22:00:00	6	Velocidad del viento	0
9630	7	Sololá	701	Sololá	1	Sololá	3	Marzo	2023-02-03T00:00:00	2024-11-08T22:00:00	7	Dirección del viento	0
9631	7	Sololá	701	Sololá	1	Sololá	3	Marzo	2023-02-03T00:00:00	2024-11-08T22:00:00	1	Precipitación	0
9632	7	Sololá	701	Sololá	1	Sololá	3	Marzo	2023-02-03T00:00:00	2024-11-08T22:00:00	8	Radiación solar	0
9633	7	Sololá	701	Sololá	1	Sololá	3	Marzo	2023-02-03T00:00:00	2024-11-08T23:00:00	2	Temperatura media	10.6
9634	7	Sololá	701	Sololá	1	Sololá	3	Marzo	2023-02-03T00:00:00	2024-11-08T23:00:00	4	Temperatura máxima	12.9
9635	7	Sololá	701	Sololá	1	Sololá	3	Marzo	2023-02-03T00:00:00	2024-11-08T23:00:00	3	Temperatura mínima	10.6
9636	7	Sololá	701	Sololá	1	Sololá	3	Marzo	2023-02-03T00:00:00	2024-11-08T23:00:00	5	Humedad	62
9637	7	Sololá	701	Sololá	1	Sololá	3	Marzo	2023-02-03T00:00:00	2024-11-08T23:00:00	6	Velocidad del viento	0
9638	7	Sololá	701	Sololá	1	Sololá	3	Marzo	2023-02-03T00:00:00	2024-11-08T23:00:00	7	Dirección del viento	0
9639	7	Sololá	701	Sololá	1	Sololá	3	Marzo	2023-02-03T00:00:00	2024-11-08T23:00:00	1	Precipitación	0
9640	7	Sololá	701	Sololá	1	Sololá	3	Marzo	2023-02-03T00:00:00	2024-11-08T23:00:00	8	Radiación solar	0
9641	7	Sololá	701	Sololá	1	Sololá	3	Marzo	2023-03-03T00:00:00	2024-11-08T00:00:00	2	Temperatura media	10.7
9642	7	Sololá	701	Sololá	1	Sololá	3	Marzo	2023-03-03T00:00:00	2024-11-08T00:00:00	4	Temperatura máxima	10.7
9643	7	Sololá	701	Sololá	1	Sololá	3	Marzo	2023-03-03T00:00:00	2024-11-08T00:00:00	3	Temperatura mínima	10.3
9644	7	Sololá	701	Sololá	1	Sololá	3	Marzo	2023-03-03T00:00:00	2024-11-08T00:00:00	5	Humedad	49
9645	7	Sololá	701	Sololá	1	Sololá	3	Marzo	2023-03-03T00:00:00	2024-11-08T00:00:00	6	Velocidad del viento	1.6
9646	7	Sololá	701	Sololá	1	Sololá	3	Marzo	2023-03-03T00:00:00	2024-11-08T00:00:00	7	Dirección del viento	1.61
9647	7	Sololá	701	Sololá	1	Sololá	3	Marzo	2023-03-03T00:00:00	2024-11-08T00:00:00	1	Precipitación	0
9648	7	Sololá	701	Sololá	1	Sololá	3	Marzo	2023-03-03T00:00:00	2024-11-08T00:00:00	8	Radiación solar	0
9649	7	Sololá	701	Sololá	1	Sololá	3	Marzo	2023-03-03T00:00:00	2024-11-08T01:00:00	2	Temperatura media	11.1
9650	7	Sololá	701	Sololá	1	Sololá	3	Marzo	2023-03-03T00:00:00	2024-11-08T01:00:00	4	Temperatura máxima	11.2
9651	7	Sololá	701	Sololá	1	Sololá	3	Marzo	2023-03-03T00:00:00	2024-11-08T01:00:00	3	Temperatura mínima	10.6
9652	7	Sololá	701	Sololá	1	Sololá	3	Marzo	2023-03-03T00:00:00	2024-11-08T01:00:00	5	Humedad	40
9653	7	Sololá	701	Sololá	1	Sololá	3	Marzo	2023-03-03T00:00:00	2024-11-08T01:00:00	6	Velocidad del viento	3.2
9654	7	Sololá	701	Sololá	1	Sololá	3	Marzo	2023-03-03T00:00:00	2024-11-08T01:00:00	7	Dirección del viento	3.22
9655	7	Sololá	701	Sololá	1	Sololá	3	Marzo	2023-03-03T00:00:00	2024-11-08T01:00:00	1	Precipitación	0
9656	7	Sololá	701	Sololá	1	Sololá	3	Marzo	2023-03-03T00:00:00	2024-11-08T01:00:00	8	Radiación solar	0
9657	7	Sololá	701	Sololá	1	Sololá	3	Marzo	2023-03-03T00:00:00	2024-11-08T02:00:00	2	Temperatura media	11.7
9658	7	Sololá	701	Sololá	1	Sololá	3	Marzo	2023-03-03T00:00:00	2024-11-08T02:00:00	4	Temperatura máxima	11.7
9659	7	Sololá	701	Sololá	1	Sololá	3	Marzo	2023-03-03T00:00:00	2024-11-08T02:00:00	3	Temperatura mínima	10.8
9660	7	Sololá	701	Sololá	1	Sololá	3	Marzo	2023-03-03T00:00:00	2024-11-08T02:00:00	5	Humedad	41
9661	7	Sololá	701	Sololá	1	Sololá	3	Marzo	2023-03-03T00:00:00	2024-11-08T02:00:00	6	Velocidad del viento	3.2
9662	7	Sololá	701	Sololá	1	Sololá	3	Marzo	2023-03-03T00:00:00	2024-11-08T02:00:00	7	Dirección del viento	3.22
9663	7	Sololá	701	Sololá	1	Sololá	3	Marzo	2023-03-03T00:00:00	2024-11-08T02:00:00	1	Precipitación	0
9664	7	Sololá	701	Sololá	1	Sololá	3	Marzo	2023-03-03T00:00:00	2024-11-08T02:00:00	8	Radiación solar	0
9665	7	Sololá	701	Sololá	1	Sololá	3	Marzo	2023-03-03T00:00:00	2024-11-08T03:00:00	2	Temperatura media	12.2
9666	7	Sololá	701	Sololá	1	Sololá	3	Marzo	2023-03-03T00:00:00	2024-11-08T03:00:00	4	Temperatura máxima	12.3
9667	7	Sololá	701	Sololá	1	Sololá	3	Marzo	2023-03-03T00:00:00	2024-11-08T03:00:00	3	Temperatura mínima	11.7
9668	7	Sololá	701	Sololá	1	Sololá	3	Marzo	2023-03-03T00:00:00	2024-11-08T03:00:00	5	Humedad	45
9669	7	Sololá	701	Sololá	1	Sololá	3	Marzo	2023-03-03T00:00:00	2024-11-08T03:00:00	6	Velocidad del viento	3.2
9670	7	Sololá	701	Sololá	1	Sololá	3	Marzo	2023-03-03T00:00:00	2024-11-08T03:00:00	7	Dirección del viento	3.22
9671	7	Sololá	701	Sololá	1	Sololá	3	Marzo	2023-03-03T00:00:00	2024-11-08T03:00:00	1	Precipitación	0
9672	7	Sololá	701	Sololá	1	Sololá	3	Marzo	2023-03-03T00:00:00	2024-11-08T03:00:00	8	Radiación solar	0
9673	7	Sololá	701	Sololá	1	Sololá	3	Marzo	2023-03-03T00:00:00	2024-11-08T04:00:00	2	Temperatura media	12
9674	7	Sololá	701	Sololá	1	Sololá	3	Marzo	2023-03-03T00:00:00	2024-11-08T04:00:00	4	Temperatura máxima	12.2
9675	7	Sololá	701	Sololá	1	Sololá	3	Marzo	2023-03-03T00:00:00	2024-11-08T04:00:00	3	Temperatura mínima	12
9676	7	Sololá	701	Sololá	1	Sololá	3	Marzo	2023-03-03T00:00:00	2024-11-08T04:00:00	5	Humedad	47
9677	7	Sololá	701	Sololá	1	Sololá	3	Marzo	2023-03-03T00:00:00	2024-11-08T04:00:00	6	Velocidad del viento	1.6
9678	7	Sololá	701	Sololá	1	Sololá	3	Marzo	2023-03-03T00:00:00	2024-11-08T04:00:00	7	Dirección del viento	1.61
9679	7	Sololá	701	Sololá	1	Sololá	3	Marzo	2023-03-03T00:00:00	2024-11-08T04:00:00	1	Precipitación	0
9680	7	Sololá	701	Sololá	1	Sololá	3	Marzo	2023-03-03T00:00:00	2024-11-08T04:00:00	8	Radiación solar	0
9681	7	Sololá	701	Sololá	1	Sololá	3	Marzo	2023-03-03T00:00:00	2024-11-08T05:00:00	2	Temperatura media	11.9
9682	7	Sololá	701	Sololá	1	Sololá	3	Marzo	2023-03-03T00:00:00	2024-11-08T05:00:00	4	Temperatura máxima	12
9683	7	Sololá	701	Sololá	1	Sololá	3	Marzo	2023-03-03T00:00:00	2024-11-08T05:00:00	3	Temperatura mínima	11.7
9684	7	Sololá	701	Sololá	1	Sololá	3	Marzo	2023-03-03T00:00:00	2024-11-08T05:00:00	5	Humedad	48
9685	7	Sololá	701	Sololá	1	Sololá	3	Marzo	2023-03-03T00:00:00	2024-11-08T05:00:00	6	Velocidad del viento	3.2
9686	7	Sololá	701	Sololá	1	Sololá	3	Marzo	2023-03-03T00:00:00	2024-11-08T05:00:00	7	Dirección del viento	3.22
9687	7	Sololá	701	Sololá	1	Sololá	3	Marzo	2023-03-03T00:00:00	2024-11-08T05:00:00	1	Precipitación	0
9688	7	Sololá	701	Sololá	1	Sololá	3	Marzo	2023-03-03T00:00:00	2024-11-08T05:00:00	8	Radiación solar	0
9689	7	Sololá	701	Sololá	1	Sololá	3	Marzo	2023-03-03T00:00:00	2024-11-08T06:00:00	2	Temperatura media	12.2
9690	7	Sololá	701	Sololá	1	Sololá	3	Marzo	2023-03-03T00:00:00	2024-11-08T06:00:00	4	Temperatura máxima	12.3
9691	7	Sololá	701	Sololá	1	Sololá	3	Marzo	2023-03-03T00:00:00	2024-11-08T06:00:00	3	Temperatura mínima	11.6
9692	7	Sololá	701	Sololá	1	Sololá	3	Marzo	2023-03-03T00:00:00	2024-11-08T06:00:00	5	Humedad	50
9693	7	Sololá	701	Sololá	1	Sololá	3	Marzo	2023-03-03T00:00:00	2024-11-08T06:00:00	6	Velocidad del viento	1.6
9694	7	Sololá	701	Sololá	1	Sololá	3	Marzo	2023-03-03T00:00:00	2024-11-08T06:00:00	7	Dirección del viento	1.61
9695	7	Sololá	701	Sololá	1	Sololá	3	Marzo	2023-03-03T00:00:00	2024-11-08T06:00:00	1	Precipitación	0
9696	7	Sololá	701	Sololá	1	Sololá	3	Marzo	2023-03-03T00:00:00	2024-11-08T06:00:00	8	Radiación solar	0
9697	7	Sololá	701	Sololá	1	Sololá	3	Marzo	2023-03-03T00:00:00	2024-11-08T07:00:00	2	Temperatura media	13
9698	7	Sololá	701	Sololá	1	Sololá	3	Marzo	2023-03-03T00:00:00	2024-11-08T07:00:00	4	Temperatura máxima	13
9699	7	Sololá	701	Sololá	1	Sololá	3	Marzo	2023-03-03T00:00:00	2024-11-08T07:00:00	3	Temperatura mínima	12.1
9700	7	Sololá	701	Sololá	1	Sololá	3	Marzo	2023-03-03T00:00:00	2024-11-08T07:00:00	5	Humedad	51
9701	7	Sololá	701	Sololá	1	Sololá	3	Marzo	2023-03-03T00:00:00	2024-11-08T07:00:00	6	Velocidad del viento	0
9702	7	Sololá	701	Sololá	1	Sololá	3	Marzo	2023-03-03T00:00:00	2024-11-08T07:00:00	7	Dirección del viento	0
9703	7	Sololá	701	Sololá	1	Sololá	3	Marzo	2023-03-03T00:00:00	2024-11-08T07:00:00	1	Precipitación	0
9704	7	Sololá	701	Sololá	1	Sololá	3	Marzo	2023-03-03T00:00:00	2024-11-08T07:00:00	8	Radiación solar	5
9705	7	Sololá	701	Sololá	1	Sololá	3	Marzo	2023-03-03T00:00:00	2024-11-08T08:00:00	2	Temperatura media	14.3
9706	7	Sololá	701	Sololá	1	Sololá	3	Marzo	2023-03-03T00:00:00	2024-11-08T08:00:00	4	Temperatura máxima	14.3
9707	7	Sololá	701	Sololá	1	Sololá	3	Marzo	2023-03-03T00:00:00	2024-11-08T08:00:00	3	Temperatura mínima	12.9
9708	7	Sololá	701	Sololá	1	Sololá	3	Marzo	2023-03-03T00:00:00	2024-11-08T08:00:00	5	Humedad	46
9709	7	Sololá	701	Sololá	1	Sololá	3	Marzo	2023-03-03T00:00:00	2024-11-08T08:00:00	6	Velocidad del viento	0
9710	7	Sololá	701	Sololá	1	Sololá	3	Marzo	2023-03-03T00:00:00	2024-11-08T08:00:00	7	Dirección del viento	0
9711	7	Sololá	701	Sololá	1	Sololá	3	Marzo	2023-03-03T00:00:00	2024-11-08T08:00:00	1	Precipitación	0
9712	7	Sololá	701	Sololá	1	Sololá	3	Marzo	2023-03-03T00:00:00	2024-11-08T08:00:00	8	Radiación solar	27
9713	7	Sololá	701	Sololá	1	Sololá	3	Marzo	2023-03-03T00:00:00	2024-11-08T09:00:00	2	Temperatura media	19.9
9714	7	Sololá	701	Sololá	1	Sololá	3	Marzo	2023-03-03T00:00:00	2024-11-08T09:00:00	4	Temperatura máxima	19.9
9715	7	Sololá	701	Sololá	1	Sololá	3	Marzo	2023-03-03T00:00:00	2024-11-08T09:00:00	3	Temperatura mínima	14.3
9716	7	Sololá	701	Sololá	1	Sololá	3	Marzo	2023-03-03T00:00:00	2024-11-08T09:00:00	5	Humedad	39
9717	7	Sololá	701	Sololá	1	Sololá	3	Marzo	2023-03-03T00:00:00	2024-11-08T09:00:00	6	Velocidad del viento	0
9718	7	Sololá	701	Sololá	1	Sololá	3	Marzo	2023-03-03T00:00:00	2024-11-08T09:00:00	7	Dirección del viento	0
9719	7	Sololá	701	Sololá	1	Sololá	3	Marzo	2023-03-03T00:00:00	2024-11-08T09:00:00	1	Precipitación	0
9720	7	Sololá	701	Sololá	1	Sololá	3	Marzo	2023-03-03T00:00:00	2024-11-08T09:00:00	8	Radiación solar	422
9721	7	Sololá	701	Sololá	1	Sololá	3	Marzo	2023-03-03T00:00:00	2024-11-08T10:00:00	2	Temperatura media	21.1
9722	7	Sololá	701	Sololá	1	Sololá	3	Marzo	2023-03-03T00:00:00	2024-11-08T10:00:00	4	Temperatura máxima	21.2
9723	7	Sololá	701	Sololá	1	Sololá	3	Marzo	2023-03-03T00:00:00	2024-11-08T10:00:00	3	Temperatura mínima	19.9
9724	7	Sololá	701	Sololá	1	Sololá	3	Marzo	2023-03-03T00:00:00	2024-11-08T10:00:00	5	Humedad	38
9725	7	Sololá	701	Sololá	1	Sololá	3	Marzo	2023-03-03T00:00:00	2024-11-08T10:00:00	6	Velocidad del viento	0
9726	7	Sololá	701	Sololá	1	Sololá	3	Marzo	2023-03-03T00:00:00	2024-11-08T10:00:00	7	Dirección del viento	0
9727	7	Sololá	701	Sololá	1	Sololá	3	Marzo	2023-03-03T00:00:00	2024-11-08T10:00:00	1	Precipitación	0
9728	7	Sololá	701	Sololá	1	Sololá	3	Marzo	2023-03-03T00:00:00	2024-11-08T10:00:00	8	Radiación solar	744
9729	7	Sololá	701	Sololá	1	Sololá	3	Marzo	2023-03-03T00:00:00	2024-11-08T11:00:00	2	Temperatura media	22.1
9730	7	Sololá	701	Sololá	1	Sololá	3	Marzo	2023-03-03T00:00:00	2024-11-08T11:00:00	4	Temperatura máxima	22.1
9731	7	Sololá	701	Sololá	1	Sololá	3	Marzo	2023-03-03T00:00:00	2024-11-08T11:00:00	3	Temperatura mínima	21
9732	7	Sololá	701	Sololá	1	Sololá	3	Marzo	2023-03-03T00:00:00	2024-11-08T11:00:00	5	Humedad	37
9733	7	Sololá	701	Sololá	1	Sololá	3	Marzo	2023-03-03T00:00:00	2024-11-08T11:00:00	6	Velocidad del viento	0
9734	7	Sololá	701	Sololá	1	Sololá	3	Marzo	2023-03-03T00:00:00	2024-11-08T11:00:00	7	Dirección del viento	0
9735	7	Sololá	701	Sololá	1	Sololá	3	Marzo	2023-03-03T00:00:00	2024-11-08T11:00:00	1	Precipitación	0
9736	7	Sololá	701	Sololá	1	Sololá	3	Marzo	2023-03-03T00:00:00	2024-11-08T11:00:00	8	Radiación solar	886
9737	7	Sololá	701	Sololá	1	Sololá	3	Marzo	2023-03-03T00:00:00	2024-11-08T12:00:00	2	Temperatura media	22.3
9738	7	Sololá	701	Sololá	1	Sololá	3	Marzo	2023-03-03T00:00:00	2024-11-08T12:00:00	4	Temperatura máxima	22.4
9739	7	Sololá	701	Sololá	1	Sololá	3	Marzo	2023-03-03T00:00:00	2024-11-08T12:00:00	3	Temperatura mínima	21.8
9740	7	Sololá	701	Sololá	1	Sololá	3	Marzo	2023-03-03T00:00:00	2024-11-08T12:00:00	5	Humedad	51
9741	7	Sololá	701	Sololá	1	Sololá	3	Marzo	2023-03-03T00:00:00	2024-11-08T12:00:00	6	Velocidad del viento	0
9742	7	Sololá	701	Sololá	1	Sololá	3	Marzo	2023-03-03T00:00:00	2024-11-08T12:00:00	7	Dirección del viento	0
9743	7	Sololá	701	Sololá	1	Sololá	3	Marzo	2023-03-03T00:00:00	2024-11-08T12:00:00	1	Precipitación	0
9744	7	Sololá	701	Sololá	1	Sololá	3	Marzo	2023-03-03T00:00:00	2024-11-08T12:00:00	8	Radiación solar	960
9745	7	Sololá	701	Sololá	1	Sololá	3	Marzo	2023-03-03T00:00:00	2024-11-08T13:00:00	2	Temperatura media	22.3
9746	7	Sololá	701	Sololá	1	Sololá	3	Marzo	2023-03-03T00:00:00	2024-11-08T13:00:00	4	Temperatura máxima	22.6
9747	7	Sololá	701	Sololá	1	Sololá	3	Marzo	2023-03-03T00:00:00	2024-11-08T13:00:00	3	Temperatura mínima	22.3
9748	7	Sololá	701	Sololá	1	Sololá	3	Marzo	2023-03-03T00:00:00	2024-11-08T13:00:00	5	Humedad	57
9749	7	Sololá	701	Sololá	1	Sololá	3	Marzo	2023-03-03T00:00:00	2024-11-08T13:00:00	6	Velocidad del viento	0
9750	7	Sololá	701	Sololá	1	Sololá	3	Marzo	2023-03-03T00:00:00	2024-11-08T13:00:00	7	Dirección del viento	0
9751	7	Sololá	701	Sololá	1	Sololá	3	Marzo	2023-03-03T00:00:00	2024-11-08T13:00:00	1	Precipitación	0
9752	7	Sololá	701	Sololá	1	Sololá	3	Marzo	2023-03-03T00:00:00	2024-11-08T13:00:00	8	Radiación solar	955
9753	7	Sololá	701	Sololá	1	Sololá	3	Marzo	2023-03-03T00:00:00	2024-11-08T14:00:00	2	Temperatura media	22
9754	7	Sololá	701	Sololá	1	Sololá	3	Marzo	2023-03-03T00:00:00	2024-11-08T14:00:00	4	Temperatura máxima	22.4
9755	7	Sololá	701	Sololá	1	Sololá	3	Marzo	2023-03-03T00:00:00	2024-11-08T14:00:00	3	Temperatura mínima	22
9756	7	Sololá	701	Sololá	1	Sololá	3	Marzo	2023-03-03T00:00:00	2024-11-08T14:00:00	5	Humedad	62
9757	7	Sololá	701	Sololá	1	Sololá	3	Marzo	2023-03-03T00:00:00	2024-11-08T14:00:00	6	Velocidad del viento	0
9758	7	Sololá	701	Sololá	1	Sololá	3	Marzo	2023-03-03T00:00:00	2024-11-08T14:00:00	7	Dirección del viento	0
9759	7	Sololá	701	Sololá	1	Sololá	3	Marzo	2023-03-03T00:00:00	2024-11-08T14:00:00	1	Precipitación	0
9760	7	Sololá	701	Sololá	1	Sololá	3	Marzo	2023-03-03T00:00:00	2024-11-08T14:00:00	8	Radiación solar	872
9761	7	Sololá	701	Sololá	1	Sololá	3	Marzo	2023-03-03T00:00:00	2024-11-08T15:00:00	2	Temperatura media	21.1
9762	7	Sololá	701	Sololá	1	Sololá	3	Marzo	2023-03-03T00:00:00	2024-11-08T15:00:00	4	Temperatura máxima	22
9763	7	Sololá	701	Sololá	1	Sololá	3	Marzo	2023-03-03T00:00:00	2024-11-08T15:00:00	3	Temperatura mínima	21.1
9764	7	Sololá	701	Sololá	1	Sololá	3	Marzo	2023-03-03T00:00:00	2024-11-08T15:00:00	5	Humedad	66
9765	7	Sololá	701	Sololá	1	Sololá	3	Marzo	2023-03-03T00:00:00	2024-11-08T15:00:00	6	Velocidad del viento	0
9766	7	Sololá	701	Sololá	1	Sololá	3	Marzo	2023-03-03T00:00:00	2024-11-08T15:00:00	7	Dirección del viento	0
9767	7	Sololá	701	Sololá	1	Sololá	3	Marzo	2023-03-03T00:00:00	2024-11-08T15:00:00	1	Precipitación	0
9768	7	Sololá	701	Sololá	1	Sololá	3	Marzo	2023-03-03T00:00:00	2024-11-08T15:00:00	8	Radiación solar	397
9769	7	Sololá	701	Sololá	1	Sololá	3	Marzo	2023-03-03T00:00:00	2024-11-08T16:00:00	2	Temperatura media	19.4
9770	7	Sololá	701	Sololá	1	Sololá	3	Marzo	2023-03-03T00:00:00	2024-11-08T16:00:00	4	Temperatura máxima	21.2
9771	7	Sololá	701	Sololá	1	Sololá	3	Marzo	2023-03-03T00:00:00	2024-11-08T16:00:00	3	Temperatura mínima	19.3
9772	7	Sololá	701	Sololá	1	Sololá	3	Marzo	2023-03-03T00:00:00	2024-11-08T16:00:00	5	Humedad	73
9773	7	Sololá	701	Sololá	1	Sololá	3	Marzo	2023-03-03T00:00:00	2024-11-08T16:00:00	6	Velocidad del viento	0
9774	7	Sololá	701	Sololá	1	Sololá	3	Marzo	2023-03-03T00:00:00	2024-11-08T16:00:00	7	Dirección del viento	0
9775	7	Sololá	701	Sololá	1	Sololá	3	Marzo	2023-03-03T00:00:00	2024-11-08T16:00:00	1	Precipitación	0
9776	7	Sololá	701	Sololá	1	Sololá	3	Marzo	2023-03-03T00:00:00	2024-11-08T16:00:00	8	Radiación solar	126
9777	7	Sololá	701	Sololá	1	Sololá	3	Marzo	2023-03-03T00:00:00	2024-11-08T17:00:00	2	Temperatura media	18.4
9778	7	Sololá	701	Sololá	1	Sololá	3	Marzo	2023-03-03T00:00:00	2024-11-08T17:00:00	4	Temperatura máxima	19.4
9779	7	Sololá	701	Sololá	1	Sololá	3	Marzo	2023-03-03T00:00:00	2024-11-08T17:00:00	3	Temperatura mínima	18.4
9780	7	Sololá	701	Sololá	1	Sololá	3	Marzo	2023-03-03T00:00:00	2024-11-08T17:00:00	5	Humedad	76
9781	7	Sololá	701	Sololá	1	Sololá	3	Marzo	2023-03-03T00:00:00	2024-11-08T17:00:00	6	Velocidad del viento	0
9782	7	Sololá	701	Sololá	1	Sololá	3	Marzo	2023-03-03T00:00:00	2024-11-08T17:00:00	7	Dirección del viento	0
9783	7	Sololá	701	Sololá	1	Sololá	3	Marzo	2023-03-03T00:00:00	2024-11-08T17:00:00	1	Precipitación	0
9784	7	Sololá	701	Sololá	1	Sololá	3	Marzo	2023-03-03T00:00:00	2024-11-08T17:00:00	8	Radiación solar	73
9785	7	Sololá	701	Sololá	1	Sololá	3	Marzo	2023-03-03T00:00:00	2024-11-08T18:00:00	2	Temperatura media	16.5
9786	7	Sololá	701	Sololá	1	Sololá	3	Marzo	2023-03-03T00:00:00	2024-11-08T18:00:00	4	Temperatura máxima	18.3
9787	7	Sololá	701	Sololá	1	Sololá	3	Marzo	2023-03-03T00:00:00	2024-11-08T18:00:00	3	Temperatura mínima	16.5
9788	7	Sololá	701	Sololá	1	Sololá	3	Marzo	2023-03-03T00:00:00	2024-11-08T18:00:00	5	Humedad	86
9789	7	Sololá	701	Sololá	1	Sololá	3	Marzo	2023-03-03T00:00:00	2024-11-08T18:00:00	6	Velocidad del viento	0
9790	7	Sololá	701	Sololá	1	Sololá	3	Marzo	2023-03-03T00:00:00	2024-11-08T18:00:00	7	Dirección del viento	0
9791	7	Sololá	701	Sololá	1	Sololá	3	Marzo	2023-03-03T00:00:00	2024-11-08T18:00:00	1	Precipitación	0
9792	7	Sololá	701	Sololá	1	Sololá	3	Marzo	2023-03-03T00:00:00	2024-11-08T18:00:00	8	Radiación solar	26
9793	7	Sololá	701	Sololá	1	Sololá	3	Marzo	2023-03-03T00:00:00	2024-11-08T19:00:00	2	Temperatura media	15.8
9794	7	Sololá	701	Sololá	1	Sololá	3	Marzo	2023-03-03T00:00:00	2024-11-08T19:00:00	4	Temperatura máxima	16.5
9795	7	Sololá	701	Sololá	1	Sololá	3	Marzo	2023-03-03T00:00:00	2024-11-08T19:00:00	3	Temperatura mínima	15.8
9796	7	Sololá	701	Sololá	1	Sololá	3	Marzo	2023-03-03T00:00:00	2024-11-08T19:00:00	5	Humedad	89
9797	7	Sololá	701	Sololá	1	Sololá	3	Marzo	2023-03-03T00:00:00	2024-11-08T19:00:00	6	Velocidad del viento	0
9798	7	Sololá	701	Sololá	1	Sololá	3	Marzo	2023-03-03T00:00:00	2024-11-08T19:00:00	7	Dirección del viento	0
9799	7	Sololá	701	Sololá	1	Sololá	3	Marzo	2023-03-03T00:00:00	2024-11-08T19:00:00	1	Precipitación	0
9800	7	Sololá	701	Sololá	1	Sololá	3	Marzo	2023-03-03T00:00:00	2024-11-08T19:00:00	8	Radiación solar	0
9801	7	Sololá	701	Sololá	1	Sololá	3	Marzo	2023-03-03T00:00:00	2024-11-08T20:00:00	2	Temperatura media	15.5
9802	7	Sololá	701	Sololá	1	Sololá	3	Marzo	2023-03-03T00:00:00	2024-11-08T20:00:00	4	Temperatura máxima	15.9
9803	7	Sololá	701	Sololá	1	Sololá	3	Marzo	2023-03-03T00:00:00	2024-11-08T20:00:00	3	Temperatura mínima	15.5
9804	7	Sololá	701	Sololá	1	Sololá	3	Marzo	2023-03-03T00:00:00	2024-11-08T20:00:00	5	Humedad	91
9805	7	Sololá	701	Sololá	1	Sololá	3	Marzo	2023-03-03T00:00:00	2024-11-08T20:00:00	6	Velocidad del viento	0
9806	7	Sololá	701	Sololá	1	Sololá	3	Marzo	2023-03-03T00:00:00	2024-11-08T20:00:00	7	Dirección del viento	0
9807	7	Sololá	701	Sololá	1	Sololá	3	Marzo	2023-03-03T00:00:00	2024-11-08T20:00:00	1	Precipitación	0
9808	7	Sololá	701	Sololá	1	Sololá	3	Marzo	2023-03-03T00:00:00	2024-11-08T20:00:00	8	Radiación solar	0
9809	7	Sololá	701	Sololá	1	Sololá	3	Marzo	2023-03-03T00:00:00	2024-11-08T21:00:00	2	Temperatura media	15
9810	7	Sololá	701	Sololá	1	Sololá	3	Marzo	2023-03-03T00:00:00	2024-11-08T21:00:00	4	Temperatura máxima	15.6
9811	7	Sololá	701	Sololá	1	Sololá	3	Marzo	2023-03-03T00:00:00	2024-11-08T21:00:00	3	Temperatura mínima	15
9812	7	Sololá	701	Sololá	1	Sololá	3	Marzo	2023-03-03T00:00:00	2024-11-08T21:00:00	5	Humedad	92
9813	7	Sololá	701	Sololá	1	Sololá	3	Marzo	2023-03-03T00:00:00	2024-11-08T21:00:00	6	Velocidad del viento	0
9814	7	Sololá	701	Sololá	1	Sololá	3	Marzo	2023-03-03T00:00:00	2024-11-08T21:00:00	7	Dirección del viento	0
9815	7	Sololá	701	Sololá	1	Sololá	3	Marzo	2023-03-03T00:00:00	2024-11-08T21:00:00	1	Precipitación	0
9816	7	Sololá	701	Sololá	1	Sololá	3	Marzo	2023-03-03T00:00:00	2024-11-08T21:00:00	8	Radiación solar	0
9817	7	Sololá	701	Sololá	1	Sololá	3	Marzo	2023-03-03T00:00:00	2024-11-08T22:00:00	2	Temperatura media	13.7
9818	7	Sololá	701	Sololá	1	Sololá	3	Marzo	2023-03-03T00:00:00	2024-11-08T22:00:00	4	Temperatura máxima	15
9819	7	Sololá	701	Sololá	1	Sololá	3	Marzo	2023-03-03T00:00:00	2024-11-08T22:00:00	3	Temperatura mínima	13.6
9820	7	Sololá	701	Sololá	1	Sololá	3	Marzo	2023-03-03T00:00:00	2024-11-08T22:00:00	5	Humedad	89
9821	7	Sololá	701	Sololá	1	Sololá	3	Marzo	2023-03-03T00:00:00	2024-11-08T22:00:00	6	Velocidad del viento	0
9822	7	Sololá	701	Sololá	1	Sololá	3	Marzo	2023-03-03T00:00:00	2024-11-08T22:00:00	7	Dirección del viento	0
9823	7	Sololá	701	Sololá	1	Sololá	3	Marzo	2023-03-03T00:00:00	2024-11-08T22:00:00	1	Precipitación	0
9824	7	Sololá	701	Sololá	1	Sololá	3	Marzo	2023-03-03T00:00:00	2024-11-08T22:00:00	8	Radiación solar	0
9825	7	Sololá	701	Sololá	1	Sololá	3	Marzo	2023-03-03T00:00:00	2024-11-08T23:00:00	2	Temperatura media	12.7
9826	7	Sololá	701	Sololá	1	Sololá	3	Marzo	2023-03-03T00:00:00	2024-11-08T23:00:00	4	Temperatura máxima	13.6
9827	7	Sololá	701	Sololá	1	Sololá	3	Marzo	2023-03-03T00:00:00	2024-11-08T23:00:00	3	Temperatura mínima	12.7
9828	7	Sololá	701	Sololá	1	Sololá	3	Marzo	2023-03-03T00:00:00	2024-11-08T23:00:00	5	Humedad	90
9829	7	Sololá	701	Sololá	1	Sololá	3	Marzo	2023-03-03T00:00:00	2024-11-08T23:00:00	6	Velocidad del viento	0
9830	7	Sololá	701	Sololá	1	Sololá	3	Marzo	2023-03-03T00:00:00	2024-11-08T23:00:00	7	Dirección del viento	0
9831	7	Sololá	701	Sololá	1	Sololá	3	Marzo	2023-03-03T00:00:00	2024-11-08T23:00:00	1	Precipitación	0
9832	7	Sololá	701	Sololá	1	Sololá	3	Marzo	2023-03-03T00:00:00	2024-11-08T23:00:00	8	Radiación solar	0
9833	7	Sololá	701	Sololá	1	Sololá	3	Marzo	2023-04-03T00:00:00	2024-11-08T00:00:00	2	Temperatura media	11.9
9834	7	Sololá	701	Sololá	1	Sololá	3	Marzo	2023-04-03T00:00:00	2024-11-08T00:00:00	4	Temperatura máxima	12.7
9835	7	Sololá	701	Sololá	1	Sololá	3	Marzo	2023-04-03T00:00:00	2024-11-08T00:00:00	3	Temperatura mínima	11.9
9836	7	Sololá	701	Sololá	1	Sololá	3	Marzo	2023-04-03T00:00:00	2024-11-08T00:00:00	5	Humedad	90
9837	7	Sololá	701	Sololá	1	Sololá	3	Marzo	2023-04-03T00:00:00	2024-11-08T00:00:00	6	Velocidad del viento	0
9838	7	Sololá	701	Sololá	1	Sololá	3	Marzo	2023-04-03T00:00:00	2024-11-08T00:00:00	7	Dirección del viento	0
9839	7	Sololá	701	Sololá	1	Sololá	3	Marzo	2023-04-03T00:00:00	2024-11-08T00:00:00	1	Precipitación	0
9840	7	Sololá	701	Sololá	1	Sololá	3	Marzo	2023-04-03T00:00:00	2024-11-08T00:00:00	8	Radiación solar	0
9841	7	Sololá	701	Sololá	1	Sololá	3	Marzo	2023-04-03T00:00:00	2024-11-08T01:00:00	2	Temperatura media	11.7
9842	7	Sololá	701	Sololá	1	Sololá	3	Marzo	2023-04-03T00:00:00	2024-11-08T01:00:00	4	Temperatura máxima	11.9
9843	7	Sololá	701	Sololá	1	Sololá	3	Marzo	2023-04-03T00:00:00	2024-11-08T01:00:00	3	Temperatura mínima	11.7
9844	7	Sololá	701	Sololá	1	Sololá	3	Marzo	2023-04-03T00:00:00	2024-11-08T01:00:00	5	Humedad	79
9845	7	Sololá	701	Sololá	1	Sololá	3	Marzo	2023-04-03T00:00:00	2024-11-08T01:00:00	6	Velocidad del viento	0
9846	7	Sololá	701	Sololá	1	Sololá	3	Marzo	2023-04-03T00:00:00	2024-11-08T01:00:00	7	Dirección del viento	0
9847	7	Sololá	701	Sololá	1	Sololá	3	Marzo	2023-04-03T00:00:00	2024-11-08T01:00:00	1	Precipitación	0
9848	7	Sololá	701	Sololá	1	Sololá	3	Marzo	2023-04-03T00:00:00	2024-11-08T01:00:00	8	Radiación solar	0
9849	7	Sololá	701	Sololá	1	Sololá	3	Marzo	2023-04-03T00:00:00	2024-11-08T02:00:00	2	Temperatura media	11.7
9850	7	Sololá	701	Sololá	1	Sololá	3	Marzo	2023-04-03T00:00:00	2024-11-08T02:00:00	4	Temperatura máxima	12.1
9851	7	Sololá	701	Sololá	1	Sololá	3	Marzo	2023-04-03T00:00:00	2024-11-08T02:00:00	3	Temperatura mínima	11.5
9852	7	Sololá	701	Sololá	1	Sololá	3	Marzo	2023-04-03T00:00:00	2024-11-08T02:00:00	5	Humedad	81
9853	7	Sololá	701	Sololá	1	Sololá	3	Marzo	2023-04-03T00:00:00	2024-11-08T02:00:00	6	Velocidad del viento	0
9854	7	Sololá	701	Sololá	1	Sololá	3	Marzo	2023-04-03T00:00:00	2024-11-08T02:00:00	7	Dirección del viento	0
9855	7	Sololá	701	Sololá	1	Sololá	3	Marzo	2023-04-03T00:00:00	2024-11-08T02:00:00	1	Precipitación	0
9856	7	Sololá	701	Sololá	1	Sololá	3	Marzo	2023-04-03T00:00:00	2024-11-08T02:00:00	8	Radiación solar	0
9857	7	Sololá	701	Sololá	1	Sololá	3	Marzo	2023-04-03T00:00:00	2024-11-08T03:00:00	2	Temperatura media	12.2
9858	7	Sololá	701	Sololá	1	Sololá	3	Marzo	2023-04-03T00:00:00	2024-11-08T03:00:00	4	Temperatura máxima	12.3
9859	7	Sololá	701	Sololá	1	Sololá	3	Marzo	2023-04-03T00:00:00	2024-11-08T03:00:00	3	Temperatura mínima	11.6
9860	7	Sololá	701	Sololá	1	Sololá	3	Marzo	2023-04-03T00:00:00	2024-11-08T03:00:00	5	Humedad	79
9861	7	Sololá	701	Sololá	1	Sololá	3	Marzo	2023-04-03T00:00:00	2024-11-08T03:00:00	6	Velocidad del viento	0
9862	7	Sololá	701	Sololá	1	Sololá	3	Marzo	2023-04-03T00:00:00	2024-11-08T03:00:00	7	Dirección del viento	0
9863	7	Sololá	701	Sololá	1	Sololá	3	Marzo	2023-04-03T00:00:00	2024-11-08T03:00:00	1	Precipitación	0
9864	7	Sololá	701	Sololá	1	Sololá	3	Marzo	2023-04-03T00:00:00	2024-11-08T03:00:00	8	Radiación solar	0
9865	7	Sololá	701	Sololá	1	Sololá	3	Marzo	2023-04-03T00:00:00	2024-11-08T04:00:00	2	Temperatura media	11.6
9866	7	Sololá	701	Sololá	1	Sololá	3	Marzo	2023-04-03T00:00:00	2024-11-08T04:00:00	4	Temperatura máxima	12.2
9867	7	Sololá	701	Sololá	1	Sololá	3	Marzo	2023-04-03T00:00:00	2024-11-08T04:00:00	3	Temperatura mínima	11.5
9868	7	Sololá	701	Sololá	1	Sololá	3	Marzo	2023-04-03T00:00:00	2024-11-08T04:00:00	5	Humedad	78
9869	7	Sololá	701	Sololá	1	Sololá	3	Marzo	2023-04-03T00:00:00	2024-11-08T04:00:00	6	Velocidad del viento	0
9870	7	Sololá	701	Sololá	1	Sololá	3	Marzo	2023-04-03T00:00:00	2024-11-08T04:00:00	7	Dirección del viento	0
9871	7	Sololá	701	Sololá	1	Sololá	3	Marzo	2023-04-03T00:00:00	2024-11-08T04:00:00	1	Precipitación	0
9872	7	Sololá	701	Sololá	1	Sololá	3	Marzo	2023-04-03T00:00:00	2024-11-08T04:00:00	8	Radiación solar	0
9873	7	Sololá	701	Sololá	1	Sololá	3	Marzo	2023-04-03T00:00:00	2024-11-08T05:00:00	2	Temperatura media	11.8
9874	7	Sololá	701	Sololá	1	Sololá	3	Marzo	2023-04-03T00:00:00	2024-11-08T05:00:00	4	Temperatura máxima	11.8
9875	7	Sololá	701	Sololá	1	Sololá	3	Marzo	2023-04-03T00:00:00	2024-11-08T05:00:00	3	Temperatura mínima	11.3
9876	7	Sololá	701	Sololá	1	Sololá	3	Marzo	2023-04-03T00:00:00	2024-11-08T05:00:00	5	Humedad	78
9877	7	Sololá	701	Sololá	1	Sololá	3	Marzo	2023-04-03T00:00:00	2024-11-08T05:00:00	6	Velocidad del viento	0
9878	7	Sololá	701	Sololá	1	Sololá	3	Marzo	2023-04-03T00:00:00	2024-11-08T05:00:00	7	Dirección del viento	0
9879	7	Sololá	701	Sololá	1	Sololá	3	Marzo	2023-04-03T00:00:00	2024-11-08T05:00:00	1	Precipitación	0
9880	7	Sololá	701	Sololá	1	Sololá	3	Marzo	2023-04-03T00:00:00	2024-11-08T05:00:00	8	Radiación solar	0
9881	7	Sololá	701	Sololá	1	Sololá	3	Marzo	2023-04-03T00:00:00	2024-11-08T06:00:00	2	Temperatura media	11.3
9882	7	Sololá	701	Sololá	1	Sololá	3	Marzo	2023-04-03T00:00:00	2024-11-08T06:00:00	4	Temperatura máxima	11.8
9883	7	Sololá	701	Sololá	1	Sololá	3	Marzo	2023-04-03T00:00:00	2024-11-08T06:00:00	3	Temperatura mínima	11.3
9884	7	Sololá	701	Sololá	1	Sololá	3	Marzo	2023-04-03T00:00:00	2024-11-08T06:00:00	5	Humedad	80
9885	7	Sololá	701	Sololá	1	Sololá	3	Marzo	2023-04-03T00:00:00	2024-11-08T06:00:00	6	Velocidad del viento	1.6
9886	7	Sololá	701	Sololá	1	Sololá	3	Marzo	2023-04-03T00:00:00	2024-11-08T06:00:00	7	Dirección del viento	1.61
9887	7	Sololá	701	Sololá	1	Sololá	3	Marzo	2023-04-03T00:00:00	2024-11-08T06:00:00	1	Precipitación	0
9888	7	Sololá	701	Sololá	1	Sololá	3	Marzo	2023-04-03T00:00:00	2024-11-08T06:00:00	8	Radiación solar	0
9889	7	Sololá	701	Sololá	1	Sololá	3	Marzo	2023-04-03T00:00:00	2024-11-08T07:00:00	2	Temperatura media	10.7
9890	7	Sololá	701	Sololá	1	Sololá	3	Marzo	2023-04-03T00:00:00	2024-11-08T07:00:00	4	Temperatura máxima	11.3
9891	7	Sololá	701	Sololá	1	Sololá	3	Marzo	2023-04-03T00:00:00	2024-11-08T07:00:00	3	Temperatura mínima	10.6
9892	7	Sololá	701	Sololá	1	Sololá	3	Marzo	2023-04-03T00:00:00	2024-11-08T07:00:00	5	Humedad	83
9893	7	Sololá	701	Sololá	1	Sololá	3	Marzo	2023-04-03T00:00:00	2024-11-08T07:00:00	6	Velocidad del viento	0
9894	7	Sololá	701	Sololá	1	Sololá	3	Marzo	2023-04-03T00:00:00	2024-11-08T07:00:00	7	Dirección del viento	0
9895	7	Sololá	701	Sololá	1	Sololá	3	Marzo	2023-04-03T00:00:00	2024-11-08T07:00:00	1	Precipitación	0
9896	7	Sololá	701	Sololá	1	Sololá	3	Marzo	2023-04-03T00:00:00	2024-11-08T07:00:00	8	Radiación solar	8
9897	7	Sololá	701	Sololá	1	Sololá	3	Marzo	2023-04-03T00:00:00	2024-11-08T08:00:00	2	Temperatura media	12.7
9898	7	Sololá	701	Sololá	1	Sololá	3	Marzo	2023-04-03T00:00:00	2024-11-08T08:00:00	4	Temperatura máxima	12.7
9899	7	Sololá	701	Sololá	1	Sololá	3	Marzo	2023-04-03T00:00:00	2024-11-08T08:00:00	3	Temperatura mínima	10.7
9900	7	Sololá	701	Sololá	1	Sololá	3	Marzo	2023-04-03T00:00:00	2024-11-08T08:00:00	5	Humedad	80
9901	7	Sololá	701	Sololá	1	Sololá	3	Marzo	2023-04-03T00:00:00	2024-11-08T08:00:00	6	Velocidad del viento	0
9902	7	Sololá	701	Sololá	1	Sololá	3	Marzo	2023-04-03T00:00:00	2024-11-08T08:00:00	7	Dirección del viento	0
9903	7	Sololá	701	Sololá	1	Sololá	3	Marzo	2023-04-03T00:00:00	2024-11-08T08:00:00	1	Precipitación	0
9904	7	Sololá	701	Sololá	1	Sololá	3	Marzo	2023-04-03T00:00:00	2024-11-08T08:00:00	8	Radiación solar	42
9905	7	Sololá	701	Sololá	1	Sololá	3	Marzo	2023-04-03T00:00:00	2024-11-08T09:00:00	2	Temperatura media	19.7
9906	7	Sololá	701	Sololá	1	Sololá	3	Marzo	2023-04-03T00:00:00	2024-11-08T09:00:00	4	Temperatura máxima	19.7
9907	7	Sololá	701	Sololá	1	Sololá	3	Marzo	2023-04-03T00:00:00	2024-11-08T09:00:00	3	Temperatura mínima	12.7
9908	7	Sololá	701	Sololá	1	Sololá	3	Marzo	2023-04-03T00:00:00	2024-11-08T09:00:00	5	Humedad	60
9909	7	Sololá	701	Sololá	1	Sololá	3	Marzo	2023-04-03T00:00:00	2024-11-08T09:00:00	6	Velocidad del viento	0
9910	7	Sololá	701	Sololá	1	Sololá	3	Marzo	2023-04-03T00:00:00	2024-11-08T09:00:00	7	Dirección del viento	0
9911	7	Sololá	701	Sololá	1	Sololá	3	Marzo	2023-04-03T00:00:00	2024-11-08T09:00:00	1	Precipitación	0
9912	7	Sololá	701	Sololá	1	Sololá	3	Marzo	2023-04-03T00:00:00	2024-11-08T09:00:00	8	Radiación solar	397
9913	7	Sololá	701	Sololá	1	Sololá	3	Marzo	2023-04-03T00:00:00	2024-11-08T10:00:00	2	Temperatura media	22.7
9914	7	Sololá	701	Sololá	1	Sololá	3	Marzo	2023-04-03T00:00:00	2024-11-08T10:00:00	4	Temperatura máxima	22.7
9915	7	Sololá	701	Sololá	1	Sololá	3	Marzo	2023-04-03T00:00:00	2024-11-08T10:00:00	3	Temperatura mínima	19.7
9916	7	Sololá	701	Sololá	1	Sololá	3	Marzo	2023-04-03T00:00:00	2024-11-08T10:00:00	5	Humedad	57
9917	7	Sololá	701	Sololá	1	Sololá	3	Marzo	2023-04-03T00:00:00	2024-11-08T10:00:00	6	Velocidad del viento	0
9918	7	Sololá	701	Sololá	1	Sololá	3	Marzo	2023-04-03T00:00:00	2024-11-08T10:00:00	7	Dirección del viento	0
9919	7	Sololá	701	Sololá	1	Sololá	3	Marzo	2023-04-03T00:00:00	2024-11-08T10:00:00	1	Precipitación	0
9920	7	Sololá	701	Sololá	1	Sololá	3	Marzo	2023-04-03T00:00:00	2024-11-08T10:00:00	8	Radiación solar	706
9921	7	Sololá	701	Sololá	1	Sololá	3	Marzo	2023-04-03T00:00:00	2024-11-08T11:00:00	2	Temperatura media	22.8
9922	7	Sololá	701	Sololá	1	Sololá	3	Marzo	2023-04-03T00:00:00	2024-11-08T11:00:00	4	Temperatura máxima	23
9923	7	Sololá	701	Sololá	1	Sololá	3	Marzo	2023-04-03T00:00:00	2024-11-08T11:00:00	3	Temperatura mínima	22.4
9924	7	Sololá	701	Sololá	1	Sololá	3	Marzo	2023-04-03T00:00:00	2024-11-08T11:00:00	5	Humedad	56
9925	7	Sololá	701	Sololá	1	Sololá	3	Marzo	2023-04-03T00:00:00	2024-11-08T11:00:00	6	Velocidad del viento	0
9926	7	Sololá	701	Sololá	1	Sololá	3	Marzo	2023-04-03T00:00:00	2024-11-08T11:00:00	7	Dirección del viento	0
9927	7	Sololá	701	Sololá	1	Sololá	3	Marzo	2023-04-03T00:00:00	2024-11-08T11:00:00	1	Precipitación	0
9928	7	Sololá	701	Sololá	1	Sololá	3	Marzo	2023-04-03T00:00:00	2024-11-08T11:00:00	8	Radiación solar	853
9929	7	Sololá	701	Sololá	1	Sololá	3	Marzo	2023-04-03T00:00:00	2024-11-08T12:00:00	2	Temperatura media	22.6
9930	7	Sololá	701	Sololá	1	Sololá	3	Marzo	2023-04-03T00:00:00	2024-11-08T12:00:00	4	Temperatura máxima	23
9931	7	Sololá	701	Sololá	1	Sololá	3	Marzo	2023-04-03T00:00:00	2024-11-08T12:00:00	3	Temperatura mínima	22.5
9932	7	Sololá	701	Sololá	1	Sololá	3	Marzo	2023-04-03T00:00:00	2024-11-08T12:00:00	5	Humedad	62
9933	7	Sololá	701	Sololá	1	Sololá	3	Marzo	2023-04-03T00:00:00	2024-11-08T12:00:00	6	Velocidad del viento	0
9934	7	Sololá	701	Sololá	1	Sololá	3	Marzo	2023-04-03T00:00:00	2024-11-08T12:00:00	7	Dirección del viento	0
9935	7	Sololá	701	Sololá	1	Sololá	3	Marzo	2023-04-03T00:00:00	2024-11-08T12:00:00	1	Precipitación	0
9936	7	Sololá	701	Sololá	1	Sololá	3	Marzo	2023-04-03T00:00:00	2024-11-08T12:00:00	8	Radiación solar	905
9937	7	Sololá	701	Sololá	1	Sololá	3	Marzo	2023-04-03T00:00:00	2024-11-08T13:00:00	2	Temperatura media	22.9
9938	7	Sololá	701	Sololá	1	Sololá	3	Marzo	2023-04-03T00:00:00	2024-11-08T13:00:00	4	Temperatura máxima	23.2
9939	7	Sololá	701	Sololá	1	Sololá	3	Marzo	2023-04-03T00:00:00	2024-11-08T13:00:00	3	Temperatura mínima	22.4
9940	7	Sololá	701	Sololá	1	Sololá	3	Marzo	2023-04-03T00:00:00	2024-11-08T13:00:00	5	Humedad	61
9941	7	Sololá	701	Sololá	1	Sololá	3	Marzo	2023-04-03T00:00:00	2024-11-08T13:00:00	6	Velocidad del viento	0
9942	7	Sololá	701	Sololá	1	Sololá	3	Marzo	2023-04-03T00:00:00	2024-11-08T13:00:00	7	Dirección del viento	0
9943	7	Sololá	701	Sololá	1	Sololá	3	Marzo	2023-04-03T00:00:00	2024-11-08T13:00:00	1	Precipitación	0
9944	7	Sololá	701	Sololá	1	Sololá	3	Marzo	2023-04-03T00:00:00	2024-11-08T13:00:00	8	Radiación solar	898
9945	7	Sololá	701	Sololá	1	Sololá	3	Marzo	2023-04-03T00:00:00	2024-11-08T14:00:00	2	Temperatura media	21.8
9946	7	Sololá	701	Sololá	1	Sololá	3	Marzo	2023-04-03T00:00:00	2024-11-08T14:00:00	4	Temperatura máxima	22.9
9947	7	Sololá	701	Sololá	1	Sololá	3	Marzo	2023-04-03T00:00:00	2024-11-08T14:00:00	3	Temperatura mínima	21.7
9948	7	Sololá	701	Sololá	1	Sololá	3	Marzo	2023-04-03T00:00:00	2024-11-08T14:00:00	5	Humedad	68
9949	7	Sololá	701	Sololá	1	Sololá	3	Marzo	2023-04-03T00:00:00	2024-11-08T14:00:00	6	Velocidad del viento	0
9950	7	Sololá	701	Sololá	1	Sololá	3	Marzo	2023-04-03T00:00:00	2024-11-08T14:00:00	7	Dirección del viento	0
9951	7	Sololá	701	Sololá	1	Sololá	3	Marzo	2023-04-03T00:00:00	2024-11-08T14:00:00	1	Precipitación	0
9952	7	Sololá	701	Sololá	1	Sololá	3	Marzo	2023-04-03T00:00:00	2024-11-08T14:00:00	8	Radiación solar	650
9953	7	Sololá	701	Sololá	1	Sololá	3	Marzo	2023-04-03T00:00:00	2024-11-08T15:00:00	2	Temperatura media	22.1
9954	7	Sololá	701	Sololá	1	Sololá	3	Marzo	2023-04-03T00:00:00	2024-11-08T15:00:00	4	Temperatura máxima	22.2
9955	7	Sololá	701	Sololá	1	Sololá	3	Marzo	2023-04-03T00:00:00	2024-11-08T15:00:00	3	Temperatura mínima	21.7
9956	7	Sololá	701	Sololá	1	Sololá	3	Marzo	2023-04-03T00:00:00	2024-11-08T15:00:00	5	Humedad	67
9957	7	Sololá	701	Sololá	1	Sololá	3	Marzo	2023-04-03T00:00:00	2024-11-08T15:00:00	6	Velocidad del viento	0
9958	7	Sololá	701	Sololá	1	Sololá	3	Marzo	2023-04-03T00:00:00	2024-11-08T15:00:00	7	Dirección del viento	0
9959	7	Sololá	701	Sololá	1	Sololá	3	Marzo	2023-04-03T00:00:00	2024-11-08T15:00:00	1	Precipitación	0
9960	7	Sololá	701	Sololá	1	Sololá	3	Marzo	2023-04-03T00:00:00	2024-11-08T15:00:00	8	Radiación solar	375
9961	7	Sololá	701	Sololá	1	Sololá	3	Marzo	2023-04-03T00:00:00	2024-11-08T16:00:00	2	Temperatura media	20.3
9962	7	Sololá	701	Sololá	1	Sololá	3	Marzo	2023-04-03T00:00:00	2024-11-08T16:00:00	4	Temperatura máxima	22.2
9963	7	Sololá	701	Sololá	1	Sololá	3	Marzo	2023-04-03T00:00:00	2024-11-08T16:00:00	3	Temperatura mínima	20.3
9964	7	Sololá	701	Sololá	1	Sololá	3	Marzo	2023-04-03T00:00:00	2024-11-08T16:00:00	5	Humedad	74
9965	7	Sololá	701	Sololá	1	Sololá	3	Marzo	2023-04-03T00:00:00	2024-11-08T16:00:00	6	Velocidad del viento	0
9966	7	Sololá	701	Sololá	1	Sololá	3	Marzo	2023-04-03T00:00:00	2024-11-08T16:00:00	7	Dirección del viento	0
9967	7	Sololá	701	Sololá	1	Sololá	3	Marzo	2023-04-03T00:00:00	2024-11-08T16:00:00	1	Precipitación	0
9968	7	Sololá	701	Sololá	1	Sololá	3	Marzo	2023-04-03T00:00:00	2024-11-08T16:00:00	8	Radiación solar	223
9969	7	Sololá	701	Sololá	1	Sololá	3	Marzo	2023-04-03T00:00:00	2024-11-08T17:00:00	2	Temperatura media	18.9
9970	7	Sololá	701	Sololá	1	Sololá	3	Marzo	2023-04-03T00:00:00	2024-11-08T17:00:00	4	Temperatura máxima	20.3
9971	7	Sololá	701	Sololá	1	Sololá	3	Marzo	2023-04-03T00:00:00	2024-11-08T17:00:00	3	Temperatura mínima	18.8
9972	7	Sololá	701	Sololá	1	Sololá	3	Marzo	2023-04-03T00:00:00	2024-11-08T17:00:00	5	Humedad	79
9973	7	Sololá	701	Sololá	1	Sololá	3	Marzo	2023-04-03T00:00:00	2024-11-08T17:00:00	6	Velocidad del viento	0
9974	7	Sololá	701	Sololá	1	Sololá	3	Marzo	2023-04-03T00:00:00	2024-11-08T17:00:00	7	Dirección del viento	0
9975	7	Sololá	701	Sololá	1	Sololá	3	Marzo	2023-04-03T00:00:00	2024-11-08T17:00:00	1	Precipitación	0
9976	7	Sololá	701	Sololá	1	Sololá	3	Marzo	2023-04-03T00:00:00	2024-11-08T17:00:00	8	Radiación solar	80
9977	7	Sololá	701	Sololá	1	Sololá	3	Marzo	2023-04-03T00:00:00	2024-11-08T18:00:00	2	Temperatura media	17.5
9978	7	Sololá	701	Sololá	1	Sololá	3	Marzo	2023-04-03T00:00:00	2024-11-08T18:00:00	4	Temperatura máxima	19.1
9979	7	Sololá	701	Sololá	1	Sololá	3	Marzo	2023-04-03T00:00:00	2024-11-08T18:00:00	3	Temperatura mínima	17.5
9980	7	Sololá	701	Sololá	1	Sololá	3	Marzo	2023-04-03T00:00:00	2024-11-08T18:00:00	5	Humedad	86
9981	7	Sololá	701	Sololá	1	Sololá	3	Marzo	2023-04-03T00:00:00	2024-11-08T18:00:00	6	Velocidad del viento	0
9982	7	Sololá	701	Sololá	1	Sololá	3	Marzo	2023-04-03T00:00:00	2024-11-08T18:00:00	7	Dirección del viento	0
9983	7	Sololá	701	Sololá	1	Sololá	3	Marzo	2023-04-03T00:00:00	2024-11-08T18:00:00	1	Precipitación	0
9984	7	Sololá	701	Sololá	1	Sololá	3	Marzo	2023-04-03T00:00:00	2024-11-08T18:00:00	8	Radiación solar	38
9985	7	Sololá	701	Sololá	1	Sololá	3	Marzo	2023-04-03T00:00:00	2024-11-08T19:00:00	2	Temperatura media	16.5
9986	7	Sololá	701	Sololá	1	Sololá	3	Marzo	2023-04-03T00:00:00	2024-11-08T19:00:00	4	Temperatura máxima	17.6
9987	7	Sololá	701	Sololá	1	Sololá	3	Marzo	2023-04-03T00:00:00	2024-11-08T19:00:00	3	Temperatura mínima	16.5
9988	7	Sololá	701	Sololá	1	Sololá	3	Marzo	2023-04-03T00:00:00	2024-11-08T19:00:00	5	Humedad	86
9989	7	Sololá	701	Sololá	1	Sololá	3	Marzo	2023-04-03T00:00:00	2024-11-08T19:00:00	6	Velocidad del viento	0
9990	7	Sololá	701	Sololá	1	Sololá	3	Marzo	2023-04-03T00:00:00	2024-11-08T19:00:00	7	Dirección del viento	0
9991	7	Sololá	701	Sololá	1	Sololá	3	Marzo	2023-04-03T00:00:00	2024-11-08T19:00:00	1	Precipitación	0
9992	7	Sololá	701	Sololá	1	Sololá	3	Marzo	2023-04-03T00:00:00	2024-11-08T19:00:00	8	Radiación solar	0
9993	7	Sololá	701	Sololá	1	Sololá	3	Marzo	2023-04-03T00:00:00	2024-11-08T20:00:00	2	Temperatura media	16.1
9994	7	Sololá	701	Sololá	1	Sololá	3	Marzo	2023-04-03T00:00:00	2024-11-08T20:00:00	4	Temperatura máxima	16.5
9995	7	Sololá	701	Sololá	1	Sololá	3	Marzo	2023-04-03T00:00:00	2024-11-08T20:00:00	3	Temperatura mínima	16.1
9996	7	Sololá	701	Sololá	1	Sololá	3	Marzo	2023-04-03T00:00:00	2024-11-08T20:00:00	5	Humedad	81
9997	7	Sololá	701	Sololá	1	Sololá	3	Marzo	2023-04-03T00:00:00	2024-11-08T20:00:00	6	Velocidad del viento	0
9998	7	Sololá	701	Sololá	1	Sololá	3	Marzo	2023-04-03T00:00:00	2024-11-08T20:00:00	7	Dirección del viento	0
9999	7	Sololá	701	Sololá	1	Sololá	3	Marzo	2023-04-03T00:00:00	2024-11-08T20:00:00	1	Precipitación	0
10000	7	Sololá	701	Sololá	1	Sololá	3	Marzo	2023-04-03T00:00:00	2024-11-08T20:00:00	8	Radiación solar	0
10001	7	Sololá	701	Sololá	1	Sololá	3	Marzo	2023-04-03T00:00:00	2024-11-08T21:00:00	2	Temperatura media	16.7
10002	7	Sololá	701	Sololá	1	Sololá	3	Marzo	2023-04-03T00:00:00	2024-11-08T21:00:00	4	Temperatura máxima	16.7
10003	7	Sololá	701	Sololá	1	Sololá	3	Marzo	2023-04-03T00:00:00	2024-11-08T21:00:00	3	Temperatura mínima	16.1
10004	7	Sololá	701	Sololá	1	Sololá	3	Marzo	2023-04-03T00:00:00	2024-11-08T21:00:00	5	Humedad	77
10005	7	Sololá	701	Sololá	1	Sololá	3	Marzo	2023-04-03T00:00:00	2024-11-08T21:00:00	6	Velocidad del viento	0
10006	7	Sololá	701	Sololá	1	Sololá	3	Marzo	2023-04-03T00:00:00	2024-11-08T21:00:00	7	Dirección del viento	0
10007	7	Sololá	701	Sololá	1	Sololá	3	Marzo	2023-04-03T00:00:00	2024-11-08T21:00:00	1	Precipitación	0
10008	7	Sololá	701	Sololá	1	Sololá	3	Marzo	2023-04-03T00:00:00	2024-11-08T21:00:00	8	Radiación solar	0
10009	7	Sololá	701	Sololá	1	Sololá	3	Marzo	2023-04-03T00:00:00	2024-11-08T22:00:00	2	Temperatura media	16.4
10010	7	Sololá	701	Sololá	1	Sololá	3	Marzo	2023-04-03T00:00:00	2024-11-08T22:00:00	4	Temperatura máxima	16.8
10011	7	Sololá	701	Sololá	1	Sololá	3	Marzo	2023-04-03T00:00:00	2024-11-08T22:00:00	3	Temperatura mínima	16.4
10012	7	Sololá	701	Sololá	1	Sololá	3	Marzo	2023-04-03T00:00:00	2024-11-08T22:00:00	5	Humedad	76
10013	7	Sololá	701	Sololá	1	Sololá	3	Marzo	2023-04-03T00:00:00	2024-11-08T22:00:00	6	Velocidad del viento	0
10014	7	Sololá	701	Sololá	1	Sololá	3	Marzo	2023-04-03T00:00:00	2024-11-08T22:00:00	7	Dirección del viento	0
10015	7	Sololá	701	Sololá	1	Sololá	3	Marzo	2023-04-03T00:00:00	2024-11-08T22:00:00	1	Precipitación	0
10016	7	Sololá	701	Sololá	1	Sololá	3	Marzo	2023-04-03T00:00:00	2024-11-08T22:00:00	8	Radiación solar	0
10017	7	Sololá	701	Sololá	1	Sololá	3	Marzo	2023-04-03T00:00:00	2024-11-08T23:00:00	2	Temperatura media	15.7
10018	7	Sololá	701	Sololá	1	Sololá	3	Marzo	2023-04-03T00:00:00	2024-11-08T23:00:00	4	Temperatura máxima	16.4
10019	7	Sololá	701	Sololá	1	Sololá	3	Marzo	2023-04-03T00:00:00	2024-11-08T23:00:00	3	Temperatura mínima	15.7
10020	7	Sololá	701	Sololá	1	Sololá	3	Marzo	2023-04-03T00:00:00	2024-11-08T23:00:00	5	Humedad	80
10021	7	Sololá	701	Sololá	1	Sololá	3	Marzo	2023-04-03T00:00:00	2024-11-08T23:00:00	6	Velocidad del viento	0
10022	7	Sololá	701	Sololá	1	Sololá	3	Marzo	2023-04-03T00:00:00	2024-11-08T23:00:00	7	Dirección del viento	0
10023	7	Sololá	701	Sololá	1	Sololá	3	Marzo	2023-04-03T00:00:00	2024-11-08T23:00:00	1	Precipitación	0
10024	7	Sololá	701	Sololá	1	Sololá	3	Marzo	2023-04-03T00:00:00	2024-11-08T23:00:00	8	Radiación solar	0
10025	7	Sololá	701	Sololá	1	Sololá	3	Marzo	2023-05-03T00:00:00	2024-11-08T00:00:00	2	Temperatura media	15
10026	7	Sololá	701	Sololá	1	Sololá	3	Marzo	2023-05-03T00:00:00	2024-11-08T00:00:00	4	Temperatura máxima	15.8
10027	7	Sololá	701	Sololá	1	Sololá	3	Marzo	2023-05-03T00:00:00	2024-11-08T00:00:00	3	Temperatura mínima	14.9
10028	7	Sololá	701	Sololá	1	Sololá	3	Marzo	2023-05-03T00:00:00	2024-11-08T00:00:00	5	Humedad	81
10029	7	Sololá	701	Sololá	1	Sololá	3	Marzo	2023-05-03T00:00:00	2024-11-08T00:00:00	6	Velocidad del viento	0
10030	7	Sololá	701	Sololá	1	Sololá	3	Marzo	2023-05-03T00:00:00	2024-11-08T00:00:00	7	Dirección del viento	0
10031	7	Sololá	701	Sololá	1	Sololá	3	Marzo	2023-05-03T00:00:00	2024-11-08T00:00:00	1	Precipitación	0
10032	7	Sololá	701	Sololá	1	Sololá	3	Marzo	2023-05-03T00:00:00	2024-11-08T00:00:00	8	Radiación solar	0
10033	7	Sololá	701	Sololá	1	Sololá	3	Marzo	2023-05-03T00:00:00	2024-11-08T01:00:00	2	Temperatura media	14.5
10034	7	Sololá	701	Sololá	1	Sololá	3	Marzo	2023-05-03T00:00:00	2024-11-08T01:00:00	4	Temperatura máxima	15
10035	7	Sololá	701	Sololá	1	Sololá	3	Marzo	2023-05-03T00:00:00	2024-11-08T01:00:00	3	Temperatura mínima	14.5
10036	7	Sololá	701	Sololá	1	Sololá	3	Marzo	2023-05-03T00:00:00	2024-11-08T01:00:00	5	Humedad	82
10037	7	Sololá	701	Sololá	1	Sololá	3	Marzo	2023-05-03T00:00:00	2024-11-08T01:00:00	6	Velocidad del viento	0
10038	7	Sololá	701	Sololá	1	Sololá	3	Marzo	2023-05-03T00:00:00	2024-11-08T01:00:00	7	Dirección del viento	0
10039	7	Sololá	701	Sololá	1	Sololá	3	Marzo	2023-05-03T00:00:00	2024-11-08T01:00:00	1	Precipitación	0
10040	7	Sololá	701	Sololá	1	Sololá	3	Marzo	2023-05-03T00:00:00	2024-11-08T01:00:00	8	Radiación solar	0
10041	7	Sololá	701	Sololá	1	Sololá	3	Marzo	2023-05-03T00:00:00	2024-11-08T02:00:00	2	Temperatura media	14
10042	7	Sololá	701	Sololá	1	Sololá	3	Marzo	2023-05-03T00:00:00	2024-11-08T02:00:00	4	Temperatura máxima	14.6
10043	7	Sololá	701	Sololá	1	Sololá	3	Marzo	2023-05-03T00:00:00	2024-11-08T02:00:00	3	Temperatura mínima	14
10044	7	Sololá	701	Sololá	1	Sololá	3	Marzo	2023-05-03T00:00:00	2024-11-08T02:00:00	5	Humedad	81
10045	7	Sololá	701	Sololá	1	Sololá	3	Marzo	2023-05-03T00:00:00	2024-11-08T02:00:00	6	Velocidad del viento	0
10046	7	Sololá	701	Sololá	1	Sololá	3	Marzo	2023-05-03T00:00:00	2024-11-08T02:00:00	7	Dirección del viento	0
10047	7	Sololá	701	Sololá	1	Sololá	3	Marzo	2023-05-03T00:00:00	2024-11-08T02:00:00	1	Precipitación	0
10048	7	Sololá	701	Sololá	1	Sololá	3	Marzo	2023-05-03T00:00:00	2024-11-08T02:00:00	8	Radiación solar	0
10049	7	Sololá	701	Sololá	1	Sololá	3	Marzo	2023-05-03T00:00:00	2024-11-08T03:00:00	2	Temperatura media	13.6
10050	7	Sololá	701	Sololá	1	Sololá	3	Marzo	2023-05-03T00:00:00	2024-11-08T03:00:00	4	Temperatura máxima	14.1
10051	7	Sololá	701	Sololá	1	Sololá	3	Marzo	2023-05-03T00:00:00	2024-11-08T03:00:00	3	Temperatura mínima	13.6
10052	7	Sololá	701	Sololá	1	Sololá	3	Marzo	2023-05-03T00:00:00	2024-11-08T03:00:00	5	Humedad	80
10053	7	Sololá	701	Sololá	1	Sololá	3	Marzo	2023-05-03T00:00:00	2024-11-08T03:00:00	6	Velocidad del viento	0
10054	7	Sololá	701	Sololá	1	Sololá	3	Marzo	2023-05-03T00:00:00	2024-11-08T03:00:00	7	Dirección del viento	0
10055	7	Sololá	701	Sololá	1	Sololá	3	Marzo	2023-05-03T00:00:00	2024-11-08T03:00:00	1	Precipitación	0
10056	7	Sololá	701	Sololá	1	Sololá	3	Marzo	2023-05-03T00:00:00	2024-11-08T03:00:00	8	Radiación solar	0
10057	7	Sololá	701	Sololá	1	Sololá	3	Marzo	2023-05-03T00:00:00	2024-11-08T04:00:00	2	Temperatura media	13.2
10058	7	Sololá	701	Sololá	1	Sololá	3	Marzo	2023-05-03T00:00:00	2024-11-08T04:00:00	4	Temperatura máxima	13.7
10059	7	Sololá	701	Sololá	1	Sololá	3	Marzo	2023-05-03T00:00:00	2024-11-08T04:00:00	3	Temperatura mínima	13.2
10060	7	Sololá	701	Sololá	1	Sololá	3	Marzo	2023-05-03T00:00:00	2024-11-08T04:00:00	5	Humedad	82
10061	7	Sololá	701	Sololá	1	Sololá	3	Marzo	2023-05-03T00:00:00	2024-11-08T04:00:00	6	Velocidad del viento	0
10062	7	Sololá	701	Sololá	1	Sololá	3	Marzo	2023-05-03T00:00:00	2024-11-08T04:00:00	7	Dirección del viento	0
10063	7	Sololá	701	Sololá	1	Sololá	3	Marzo	2023-05-03T00:00:00	2024-11-08T04:00:00	1	Precipitación	0
10064	7	Sololá	701	Sololá	1	Sololá	3	Marzo	2023-05-03T00:00:00	2024-11-08T04:00:00	8	Radiación solar	0
10065	7	Sololá	701	Sololá	1	Sololá	3	Marzo	2023-05-03T00:00:00	2024-11-08T05:00:00	2	Temperatura media	12.9
10066	7	Sololá	701	Sololá	1	Sololá	3	Marzo	2023-05-03T00:00:00	2024-11-08T05:00:00	4	Temperatura máxima	13.3
10067	7	Sololá	701	Sololá	1	Sololá	3	Marzo	2023-05-03T00:00:00	2024-11-08T05:00:00	3	Temperatura mínima	12.9
10068	7	Sololá	701	Sololá	1	Sololá	3	Marzo	2023-05-03T00:00:00	2024-11-08T05:00:00	5	Humedad	82
10069	7	Sololá	701	Sololá	1	Sololá	3	Marzo	2023-05-03T00:00:00	2024-11-08T05:00:00	6	Velocidad del viento	0
10070	7	Sololá	701	Sololá	1	Sololá	3	Marzo	2023-05-03T00:00:00	2024-11-08T05:00:00	7	Dirección del viento	0
10071	7	Sololá	701	Sololá	1	Sololá	3	Marzo	2023-05-03T00:00:00	2024-11-08T05:00:00	1	Precipitación	0
10072	7	Sololá	701	Sololá	1	Sololá	3	Marzo	2023-05-03T00:00:00	2024-11-08T05:00:00	8	Radiación solar	0
10073	7	Sololá	701	Sololá	1	Sololá	3	Marzo	2023-05-03T00:00:00	2024-11-08T06:00:00	2	Temperatura media	13.1
10074	7	Sololá	701	Sololá	1	Sololá	3	Marzo	2023-05-03T00:00:00	2024-11-08T06:00:00	4	Temperatura máxima	13.1
10075	7	Sololá	701	Sololá	1	Sololá	3	Marzo	2023-05-03T00:00:00	2024-11-08T06:00:00	3	Temperatura mínima	12.8
10076	7	Sololá	701	Sololá	1	Sololá	3	Marzo	2023-05-03T00:00:00	2024-11-08T06:00:00	5	Humedad	82
10077	7	Sololá	701	Sololá	1	Sololá	3	Marzo	2023-05-03T00:00:00	2024-11-08T06:00:00	6	Velocidad del viento	0
10078	7	Sololá	701	Sololá	1	Sololá	3	Marzo	2023-05-03T00:00:00	2024-11-08T06:00:00	7	Dirección del viento	0
10079	7	Sololá	701	Sololá	1	Sololá	3	Marzo	2023-05-03T00:00:00	2024-11-08T06:00:00	1	Precipitación	0
10080	7	Sololá	701	Sololá	1	Sololá	3	Marzo	2023-05-03T00:00:00	2024-11-08T06:00:00	8	Radiación solar	0
10081	7	Sololá	701	Sololá	1	Sololá	3	Marzo	2023-05-03T00:00:00	2024-11-08T07:00:00	2	Temperatura media	12.2
10082	7	Sololá	701	Sololá	1	Sololá	3	Marzo	2023-05-03T00:00:00	2024-11-08T07:00:00	4	Temperatura máxima	13.2
10083	7	Sololá	701	Sololá	1	Sololá	3	Marzo	2023-05-03T00:00:00	2024-11-08T07:00:00	3	Temperatura mínima	12.2
10084	7	Sololá	701	Sololá	1	Sololá	3	Marzo	2023-05-03T00:00:00	2024-11-08T07:00:00	5	Humedad	80
10085	7	Sololá	701	Sololá	1	Sololá	3	Marzo	2023-05-03T00:00:00	2024-11-08T07:00:00	6	Velocidad del viento	0
10086	7	Sololá	701	Sololá	1	Sololá	3	Marzo	2023-05-03T00:00:00	2024-11-08T07:00:00	7	Dirección del viento	0
10087	7	Sololá	701	Sololá	1	Sololá	3	Marzo	2023-05-03T00:00:00	2024-11-08T07:00:00	1	Precipitación	0
10088	7	Sololá	701	Sololá	1	Sololá	3	Marzo	2023-05-03T00:00:00	2024-11-08T07:00:00	8	Radiación solar	8
10089	7	Sololá	701	Sololá	1	Sololá	3	Marzo	2023-05-03T00:00:00	2024-11-08T08:00:00	2	Temperatura media	12.9
10090	7	Sololá	701	Sololá	1	Sololá	3	Marzo	2023-05-03T00:00:00	2024-11-08T08:00:00	4	Temperatura máxima	12.9
10091	7	Sololá	701	Sololá	1	Sololá	3	Marzo	2023-05-03T00:00:00	2024-11-08T08:00:00	3	Temperatura mínima	12.1
10092	7	Sololá	701	Sololá	1	Sololá	3	Marzo	2023-05-03T00:00:00	2024-11-08T08:00:00	5	Humedad	74
10093	7	Sololá	701	Sololá	1	Sololá	3	Marzo	2023-05-03T00:00:00	2024-11-08T08:00:00	6	Velocidad del viento	0
10094	7	Sololá	701	Sololá	1	Sololá	3	Marzo	2023-05-03T00:00:00	2024-11-08T08:00:00	7	Dirección del viento	0
10095	7	Sololá	701	Sololá	1	Sololá	3	Marzo	2023-05-03T00:00:00	2024-11-08T08:00:00	1	Precipitación	0
10096	7	Sololá	701	Sololá	1	Sololá	3	Marzo	2023-05-03T00:00:00	2024-11-08T08:00:00	8	Radiación solar	37
10097	7	Sololá	701	Sololá	1	Sololá	3	Marzo	2023-05-03T00:00:00	2024-11-08T09:00:00	2	Temperatura media	20.8
10098	7	Sololá	701	Sololá	1	Sololá	3	Marzo	2023-05-03T00:00:00	2024-11-08T09:00:00	4	Temperatura máxima	20.8
10099	7	Sololá	701	Sololá	1	Sololá	3	Marzo	2023-05-03T00:00:00	2024-11-08T09:00:00	3	Temperatura mínima	12.9
10100	7	Sololá	701	Sololá	1	Sololá	3	Marzo	2023-05-03T00:00:00	2024-11-08T09:00:00	5	Humedad	47
10101	7	Sololá	701	Sololá	1	Sololá	3	Marzo	2023-05-03T00:00:00	2024-11-08T09:00:00	6	Velocidad del viento	0
10102	7	Sololá	701	Sololá	1	Sololá	3	Marzo	2023-05-03T00:00:00	2024-11-08T09:00:00	7	Dirección del viento	0
10103	7	Sololá	701	Sololá	1	Sololá	3	Marzo	2023-05-03T00:00:00	2024-11-08T09:00:00	1	Precipitación	0
10104	7	Sololá	701	Sololá	1	Sololá	3	Marzo	2023-05-03T00:00:00	2024-11-08T09:00:00	8	Radiación solar	439
10105	7	Sololá	701	Sololá	1	Sololá	3	Marzo	2023-05-03T00:00:00	2024-11-08T10:00:00	2	Temperatura media	22.7
10106	7	Sololá	701	Sololá	1	Sololá	3	Marzo	2023-05-03T00:00:00	2024-11-08T10:00:00	4	Temperatura máxima	23.2
10107	7	Sololá	701	Sololá	1	Sololá	3	Marzo	2023-05-03T00:00:00	2024-11-08T10:00:00	3	Temperatura mínima	20.8
10108	7	Sololá	701	Sololá	1	Sololá	3	Marzo	2023-05-03T00:00:00	2024-11-08T10:00:00	5	Humedad	56
10109	7	Sololá	701	Sololá	1	Sololá	3	Marzo	2023-05-03T00:00:00	2024-11-08T10:00:00	6	Velocidad del viento	0
10110	7	Sololá	701	Sololá	1	Sololá	3	Marzo	2023-05-03T00:00:00	2024-11-08T10:00:00	7	Dirección del viento	0
10111	7	Sololá	701	Sololá	1	Sololá	3	Marzo	2023-05-03T00:00:00	2024-11-08T10:00:00	1	Precipitación	0
10112	7	Sololá	701	Sololá	1	Sololá	3	Marzo	2023-05-03T00:00:00	2024-11-08T10:00:00	8	Radiación solar	719
10113	7	Sololá	701	Sololá	1	Sololá	3	Marzo	2023-05-03T00:00:00	2024-11-08T11:00:00	2	Temperatura media	22.9
10114	7	Sololá	701	Sololá	1	Sololá	3	Marzo	2023-05-03T00:00:00	2024-11-08T11:00:00	4	Temperatura máxima	22.9
10115	7	Sololá	701	Sololá	1	Sololá	3	Marzo	2023-05-03T00:00:00	2024-11-08T11:00:00	3	Temperatura mínima	21.8
10116	7	Sololá	701	Sololá	1	Sololá	3	Marzo	2023-05-03T00:00:00	2024-11-08T11:00:00	5	Humedad	45
10117	7	Sololá	701	Sololá	1	Sololá	3	Marzo	2023-05-03T00:00:00	2024-11-08T11:00:00	6	Velocidad del viento	0
10118	7	Sololá	701	Sololá	1	Sololá	3	Marzo	2023-05-03T00:00:00	2024-11-08T11:00:00	7	Dirección del viento	0
10119	7	Sololá	701	Sololá	1	Sololá	3	Marzo	2023-05-03T00:00:00	2024-11-08T11:00:00	1	Precipitación	0
10120	7	Sololá	701	Sololá	1	Sololá	3	Marzo	2023-05-03T00:00:00	2024-11-08T11:00:00	8	Radiación solar	840
10121	7	Sololá	701	Sololá	1	Sololá	3	Marzo	2023-05-03T00:00:00	2024-11-08T12:00:00	2	Temperatura media	24.5
10122	7	Sololá	701	Sololá	1	Sololá	3	Marzo	2023-05-03T00:00:00	2024-11-08T12:00:00	4	Temperatura máxima	24.6
10123	7	Sololá	701	Sololá	1	Sololá	3	Marzo	2023-05-03T00:00:00	2024-11-08T12:00:00	3	Temperatura mínima	23
10124	7	Sololá	701	Sololá	1	Sololá	3	Marzo	2023-05-03T00:00:00	2024-11-08T12:00:00	5	Humedad	49
10125	7	Sololá	701	Sololá	1	Sololá	3	Marzo	2023-05-03T00:00:00	2024-11-08T12:00:00	6	Velocidad del viento	0
10126	7	Sololá	701	Sololá	1	Sololá	3	Marzo	2023-05-03T00:00:00	2024-11-08T12:00:00	7	Dirección del viento	0
10127	7	Sololá	701	Sololá	1	Sololá	3	Marzo	2023-05-03T00:00:00	2024-11-08T12:00:00	1	Precipitación	0
10128	7	Sololá	701	Sololá	1	Sololá	3	Marzo	2023-05-03T00:00:00	2024-11-08T12:00:00	8	Radiación solar	915
10129	7	Sololá	701	Sololá	1	Sololá	3	Marzo	2023-05-03T00:00:00	2024-11-08T13:00:00	2	Temperatura media	23.6
10130	7	Sololá	701	Sololá	1	Sololá	3	Marzo	2023-05-03T00:00:00	2024-11-08T13:00:00	4	Temperatura máxima	24.8
10131	7	Sololá	701	Sololá	1	Sololá	3	Marzo	2023-05-03T00:00:00	2024-11-08T13:00:00	3	Temperatura mínima	23.4
10132	7	Sololá	701	Sololá	1	Sololá	3	Marzo	2023-05-03T00:00:00	2024-11-08T13:00:00	5	Humedad	68
10133	7	Sololá	701	Sololá	1	Sololá	3	Marzo	2023-05-03T00:00:00	2024-11-08T13:00:00	6	Velocidad del viento	0
10134	7	Sololá	701	Sololá	1	Sololá	3	Marzo	2023-05-03T00:00:00	2024-11-08T13:00:00	7	Dirección del viento	0
10135	7	Sololá	701	Sololá	1	Sololá	3	Marzo	2023-05-03T00:00:00	2024-11-08T13:00:00	1	Precipitación	0
10136	7	Sololá	701	Sololá	1	Sololá	3	Marzo	2023-05-03T00:00:00	2024-11-08T13:00:00	8	Radiación solar	931
10137	7	Sololá	701	Sololá	1	Sololá	3	Marzo	2023-05-03T00:00:00	2024-11-08T14:00:00	2	Temperatura media	22.8
10138	7	Sololá	701	Sololá	1	Sololá	3	Marzo	2023-05-03T00:00:00	2024-11-08T14:00:00	4	Temperatura máxima	23.7
10139	7	Sololá	701	Sololá	1	Sololá	3	Marzo	2023-05-03T00:00:00	2024-11-08T14:00:00	3	Temperatura mínima	22.8
10140	7	Sololá	701	Sololá	1	Sololá	3	Marzo	2023-05-03T00:00:00	2024-11-08T14:00:00	5	Humedad	67
10141	7	Sololá	701	Sololá	1	Sololá	3	Marzo	2023-05-03T00:00:00	2024-11-08T14:00:00	6	Velocidad del viento	0
10142	7	Sololá	701	Sololá	1	Sololá	3	Marzo	2023-05-03T00:00:00	2024-11-08T14:00:00	7	Dirección del viento	0
10143	7	Sololá	701	Sololá	1	Sololá	3	Marzo	2023-05-03T00:00:00	2024-11-08T14:00:00	1	Precipitación	0
10144	7	Sololá	701	Sololá	1	Sololá	3	Marzo	2023-05-03T00:00:00	2024-11-08T14:00:00	8	Radiación solar	763
10145	7	Sololá	701	Sololá	1	Sololá	3	Marzo	2023-05-03T00:00:00	2024-11-08T15:00:00	2	Temperatura media	22
10146	7	Sololá	701	Sololá	1	Sololá	3	Marzo	2023-05-03T00:00:00	2024-11-08T15:00:00	4	Temperatura máxima	22.9
10147	7	Sololá	701	Sololá	1	Sololá	3	Marzo	2023-05-03T00:00:00	2024-11-08T15:00:00	3	Temperatura mínima	21.9
10148	7	Sololá	701	Sololá	1	Sololá	3	Marzo	2023-05-03T00:00:00	2024-11-08T15:00:00	5	Humedad	73
10149	7	Sololá	701	Sololá	1	Sololá	3	Marzo	2023-05-03T00:00:00	2024-11-08T15:00:00	6	Velocidad del viento	1.6
10150	7	Sololá	701	Sololá	1	Sololá	3	Marzo	2023-05-03T00:00:00	2024-11-08T15:00:00	7	Dirección del viento	1.61
10151	7	Sololá	701	Sololá	1	Sololá	3	Marzo	2023-05-03T00:00:00	2024-11-08T15:00:00	1	Precipitación	0
10152	7	Sololá	701	Sololá	1	Sololá	3	Marzo	2023-05-03T00:00:00	2024-11-08T15:00:00	8	Radiación solar	246
10153	7	Sololá	701	Sololá	1	Sololá	3	Marzo	2023-05-03T00:00:00	2024-11-08T16:00:00	2	Temperatura media	20.1
10154	7	Sololá	701	Sololá	1	Sololá	3	Marzo	2023-05-03T00:00:00	2024-11-08T16:00:00	4	Temperatura máxima	22.1
10155	7	Sololá	701	Sololá	1	Sololá	3	Marzo	2023-05-03T00:00:00	2024-11-08T16:00:00	3	Temperatura mínima	20.1
10156	7	Sololá	701	Sololá	1	Sololá	3	Marzo	2023-05-03T00:00:00	2024-11-08T16:00:00	5	Humedad	80
10157	7	Sololá	701	Sololá	1	Sololá	3	Marzo	2023-05-03T00:00:00	2024-11-08T16:00:00	6	Velocidad del viento	0
10158	7	Sololá	701	Sololá	1	Sololá	3	Marzo	2023-05-03T00:00:00	2024-11-08T16:00:00	7	Dirección del viento	0
10159	7	Sololá	701	Sololá	1	Sololá	3	Marzo	2023-05-03T00:00:00	2024-11-08T16:00:00	1	Precipitación	0
10160	7	Sololá	701	Sololá	1	Sololá	3	Marzo	2023-05-03T00:00:00	2024-11-08T16:00:00	8	Radiación solar	216
10161	7	Sololá	701	Sololá	1	Sololá	3	Marzo	2023-05-03T00:00:00	2024-11-08T17:00:00	2	Temperatura media	18.6
10162	7	Sololá	701	Sololá	1	Sololá	3	Marzo	2023-05-03T00:00:00	2024-11-08T17:00:00	4	Temperatura máxima	20.2
10163	7	Sololá	701	Sololá	1	Sololá	3	Marzo	2023-05-03T00:00:00	2024-11-08T17:00:00	3	Temperatura mínima	18.6
10164	7	Sololá	701	Sololá	1	Sololá	3	Marzo	2023-05-03T00:00:00	2024-11-08T17:00:00	5	Humedad	86
10165	7	Sololá	701	Sololá	1	Sololá	3	Marzo	2023-05-03T00:00:00	2024-11-08T17:00:00	6	Velocidad del viento	0
10166	7	Sololá	701	Sololá	1	Sololá	3	Marzo	2023-05-03T00:00:00	2024-11-08T17:00:00	7	Dirección del viento	0
10167	7	Sololá	701	Sololá	1	Sololá	3	Marzo	2023-05-03T00:00:00	2024-11-08T17:00:00	1	Precipitación	0
10168	7	Sololá	701	Sololá	1	Sololá	3	Marzo	2023-05-03T00:00:00	2024-11-08T17:00:00	8	Radiación solar	115
10169	7	Sololá	701	Sololá	1	Sololá	3	Marzo	2023-05-03T00:00:00	2024-11-08T18:00:00	2	Temperatura media	16.9
10170	7	Sololá	701	Sololá	1	Sololá	3	Marzo	2023-05-03T00:00:00	2024-11-08T18:00:00	4	Temperatura máxima	18.6
10171	7	Sololá	701	Sololá	1	Sololá	3	Marzo	2023-05-03T00:00:00	2024-11-08T18:00:00	3	Temperatura mínima	16.8
10172	7	Sololá	701	Sololá	1	Sololá	3	Marzo	2023-05-03T00:00:00	2024-11-08T18:00:00	5	Humedad	90
10173	7	Sololá	701	Sololá	1	Sololá	3	Marzo	2023-05-03T00:00:00	2024-11-08T18:00:00	6	Velocidad del viento	0
10174	7	Sololá	701	Sololá	1	Sololá	3	Marzo	2023-05-03T00:00:00	2024-11-08T18:00:00	7	Dirección del viento	0
10175	7	Sololá	701	Sololá	1	Sololá	3	Marzo	2023-05-03T00:00:00	2024-11-08T18:00:00	1	Precipitación	0
10176	7	Sololá	701	Sololá	1	Sololá	3	Marzo	2023-05-03T00:00:00	2024-11-08T18:00:00	8	Radiación solar	12
10177	7	Sololá	701	Sololá	1	Sololá	3	Marzo	2023-05-03T00:00:00	2024-11-08T19:00:00	2	Temperatura media	16.2
10178	7	Sololá	701	Sololá	1	Sololá	3	Marzo	2023-05-03T00:00:00	2024-11-08T19:00:00	4	Temperatura máxima	16.9
10179	7	Sololá	701	Sololá	1	Sololá	3	Marzo	2023-05-03T00:00:00	2024-11-08T19:00:00	3	Temperatura mínima	16.2
10180	7	Sololá	701	Sololá	1	Sololá	3	Marzo	2023-05-03T00:00:00	2024-11-08T19:00:00	5	Humedad	93
10181	7	Sololá	701	Sololá	1	Sololá	3	Marzo	2023-05-03T00:00:00	2024-11-08T19:00:00	6	Velocidad del viento	0
10182	7	Sololá	701	Sololá	1	Sololá	3	Marzo	2023-05-03T00:00:00	2024-11-08T19:00:00	7	Dirección del viento	0
10183	7	Sololá	701	Sololá	1	Sololá	3	Marzo	2023-05-03T00:00:00	2024-11-08T19:00:00	1	Precipitación	0
10184	7	Sololá	701	Sololá	1	Sololá	3	Marzo	2023-05-03T00:00:00	2024-11-08T19:00:00	8	Radiación solar	0
10185	7	Sololá	701	Sololá	1	Sololá	3	Marzo	2023-05-03T00:00:00	2024-11-08T20:00:00	2	Temperatura media	15.7
10186	7	Sololá	701	Sololá	1	Sololá	3	Marzo	2023-05-03T00:00:00	2024-11-08T20:00:00	4	Temperatura máxima	16.2
10187	7	Sololá	701	Sololá	1	Sololá	3	Marzo	2023-05-03T00:00:00	2024-11-08T20:00:00	3	Temperatura mínima	15.7
10188	7	Sololá	701	Sololá	1	Sololá	3	Marzo	2023-05-03T00:00:00	2024-11-08T20:00:00	5	Humedad	94
10189	7	Sololá	701	Sololá	1	Sololá	3	Marzo	2023-05-03T00:00:00	2024-11-08T20:00:00	6	Velocidad del viento	0
10190	7	Sololá	701	Sololá	1	Sololá	3	Marzo	2023-05-03T00:00:00	2024-11-08T20:00:00	7	Dirección del viento	0
10191	7	Sololá	701	Sololá	1	Sololá	3	Marzo	2023-05-03T00:00:00	2024-11-08T20:00:00	1	Precipitación	0
10192	7	Sololá	701	Sololá	1	Sololá	3	Marzo	2023-05-03T00:00:00	2024-11-08T20:00:00	8	Radiación solar	0
10193	7	Sololá	701	Sololá	1	Sololá	3	Marzo	2023-05-03T00:00:00	2024-11-08T21:00:00	2	Temperatura media	15.2
10194	7	Sololá	701	Sololá	1	Sololá	3	Marzo	2023-05-03T00:00:00	2024-11-08T21:00:00	4	Temperatura máxima	15.7
10195	7	Sololá	701	Sololá	1	Sololá	3	Marzo	2023-05-03T00:00:00	2024-11-08T21:00:00	3	Temperatura mínima	15.2
10196	7	Sololá	701	Sololá	1	Sololá	3	Marzo	2023-05-03T00:00:00	2024-11-08T21:00:00	5	Humedad	91
10197	7	Sololá	701	Sololá	1	Sololá	3	Marzo	2023-05-03T00:00:00	2024-11-08T21:00:00	6	Velocidad del viento	0
10198	7	Sololá	701	Sololá	1	Sololá	3	Marzo	2023-05-03T00:00:00	2024-11-08T21:00:00	7	Dirección del viento	0
10199	7	Sololá	701	Sololá	1	Sololá	3	Marzo	2023-05-03T00:00:00	2024-11-08T21:00:00	1	Precipitación	0
10200	7	Sololá	701	Sololá	1	Sololá	3	Marzo	2023-05-03T00:00:00	2024-11-08T21:00:00	8	Radiación solar	0
10201	7	Sololá	701	Sololá	1	Sololá	3	Marzo	2023-05-03T00:00:00	2024-11-08T22:00:00	2	Temperatura media	14.6
10202	7	Sololá	701	Sololá	1	Sololá	3	Marzo	2023-05-03T00:00:00	2024-11-08T22:00:00	4	Temperatura máxima	15.2
10203	7	Sololá	701	Sololá	1	Sololá	3	Marzo	2023-05-03T00:00:00	2024-11-08T22:00:00	3	Temperatura mínima	14.6
10204	7	Sololá	701	Sololá	1	Sololá	3	Marzo	2023-05-03T00:00:00	2024-11-08T22:00:00	5	Humedad	83
10205	7	Sololá	701	Sololá	1	Sololá	3	Marzo	2023-05-03T00:00:00	2024-11-08T22:00:00	6	Velocidad del viento	0
10206	7	Sololá	701	Sololá	1	Sololá	3	Marzo	2023-05-03T00:00:00	2024-11-08T22:00:00	7	Dirección del viento	0
10207	7	Sololá	701	Sololá	1	Sololá	3	Marzo	2023-05-03T00:00:00	2024-11-08T22:00:00	1	Precipitación	0
10208	7	Sololá	701	Sololá	1	Sololá	3	Marzo	2023-05-03T00:00:00	2024-11-08T22:00:00	8	Radiación solar	0
10209	7	Sololá	701	Sololá	1	Sololá	3	Marzo	2023-05-03T00:00:00	2024-11-08T23:00:00	2	Temperatura media	14.2
10210	7	Sololá	701	Sololá	1	Sololá	3	Marzo	2023-05-03T00:00:00	2024-11-08T23:00:00	4	Temperatura máxima	14.7
10211	7	Sololá	701	Sololá	1	Sololá	3	Marzo	2023-05-03T00:00:00	2024-11-08T23:00:00	3	Temperatura mínima	14.2
10212	7	Sololá	701	Sololá	1	Sololá	3	Marzo	2023-05-03T00:00:00	2024-11-08T23:00:00	5	Humedad	81
10213	7	Sololá	701	Sololá	1	Sololá	3	Marzo	2023-05-03T00:00:00	2024-11-08T23:00:00	6	Velocidad del viento	0
10214	7	Sololá	701	Sololá	1	Sololá	3	Marzo	2023-05-03T00:00:00	2024-11-08T23:00:00	7	Dirección del viento	0
10215	7	Sololá	701	Sololá	1	Sololá	3	Marzo	2023-05-03T00:00:00	2024-11-08T23:00:00	1	Precipitación	0
10216	7	Sololá	701	Sololá	1	Sololá	3	Marzo	2023-05-03T00:00:00	2024-11-08T23:00:00	8	Radiación solar	0
10217	7	Sololá	701	Sololá	1	Sololá	3	Marzo	2023-06-03T00:00:00	2024-11-08T00:00:00	2	Temperatura media	14.3
10218	7	Sololá	701	Sololá	1	Sololá	3	Marzo	2023-06-03T00:00:00	2024-11-08T00:00:00	4	Temperatura máxima	14.3
10219	7	Sololá	701	Sololá	1	Sololá	3	Marzo	2023-06-03T00:00:00	2024-11-08T00:00:00	3	Temperatura mínima	14
10220	7	Sololá	701	Sololá	1	Sololá	3	Marzo	2023-06-03T00:00:00	2024-11-08T00:00:00	5	Humedad	80
10221	7	Sololá	701	Sololá	1	Sololá	3	Marzo	2023-06-03T00:00:00	2024-11-08T00:00:00	6	Velocidad del viento	0
10222	7	Sololá	701	Sololá	1	Sololá	3	Marzo	2023-06-03T00:00:00	2024-11-08T00:00:00	7	Dirección del viento	0
10223	7	Sololá	701	Sololá	1	Sololá	3	Marzo	2023-06-03T00:00:00	2024-11-08T00:00:00	1	Precipitación	0
10224	7	Sololá	701	Sololá	1	Sololá	3	Marzo	2023-06-03T00:00:00	2024-11-08T00:00:00	8	Radiación solar	0
10225	7	Sololá	701	Sololá	1	Sololá	3	Marzo	2023-06-03T00:00:00	2024-11-08T01:00:00	2	Temperatura media	13.8
10226	7	Sololá	701	Sololá	1	Sololá	3	Marzo	2023-06-03T00:00:00	2024-11-08T01:00:00	4	Temperatura máxima	14.3
10227	7	Sololá	701	Sololá	1	Sololá	3	Marzo	2023-06-03T00:00:00	2024-11-08T01:00:00	3	Temperatura mínima	13.8
10228	7	Sololá	701	Sololá	1	Sololá	3	Marzo	2023-06-03T00:00:00	2024-11-08T01:00:00	5	Humedad	80
10229	7	Sololá	701	Sololá	1	Sololá	3	Marzo	2023-06-03T00:00:00	2024-11-08T01:00:00	6	Velocidad del viento	0
10230	7	Sololá	701	Sololá	1	Sololá	3	Marzo	2023-06-03T00:00:00	2024-11-08T01:00:00	7	Dirección del viento	0
10231	7	Sololá	701	Sololá	1	Sololá	3	Marzo	2023-06-03T00:00:00	2024-11-08T01:00:00	1	Precipitación	0
10232	7	Sololá	701	Sololá	1	Sololá	3	Marzo	2023-06-03T00:00:00	2024-11-08T01:00:00	8	Radiación solar	0
10233	7	Sololá	701	Sololá	1	Sololá	3	Marzo	2023-06-03T00:00:00	2024-11-08T02:00:00	2	Temperatura media	12.2
10234	7	Sololá	701	Sololá	1	Sololá	3	Marzo	2023-06-03T00:00:00	2024-11-08T02:00:00	4	Temperatura máxima	13.8
10235	7	Sololá	701	Sololá	1	Sololá	3	Marzo	2023-06-03T00:00:00	2024-11-08T02:00:00	3	Temperatura mínima	12.2
10236	7	Sololá	701	Sololá	1	Sololá	3	Marzo	2023-06-03T00:00:00	2024-11-08T02:00:00	5	Humedad	82
10237	7	Sololá	701	Sololá	1	Sololá	3	Marzo	2023-06-03T00:00:00	2024-11-08T02:00:00	6	Velocidad del viento	0
10238	7	Sololá	701	Sololá	1	Sololá	3	Marzo	2023-06-03T00:00:00	2024-11-08T02:00:00	7	Dirección del viento	0
10239	7	Sololá	701	Sololá	1	Sololá	3	Marzo	2023-06-03T00:00:00	2024-11-08T02:00:00	1	Precipitación	0
10240	7	Sololá	701	Sololá	1	Sololá	3	Marzo	2023-06-03T00:00:00	2024-11-08T02:00:00	8	Radiación solar	0
10241	7	Sololá	701	Sololá	1	Sololá	3	Marzo	2023-06-03T00:00:00	2024-11-08T03:00:00	2	Temperatura media	12.3
10242	7	Sololá	701	Sololá	1	Sololá	3	Marzo	2023-06-03T00:00:00	2024-11-08T03:00:00	4	Temperatura máxima	12.3
10243	7	Sololá	701	Sololá	1	Sololá	3	Marzo	2023-06-03T00:00:00	2024-11-08T03:00:00	3	Temperatura mínima	11.9
10244	7	Sololá	701	Sololá	1	Sololá	3	Marzo	2023-06-03T00:00:00	2024-11-08T03:00:00	5	Humedad	84
10245	7	Sololá	701	Sololá	1	Sololá	3	Marzo	2023-06-03T00:00:00	2024-11-08T03:00:00	6	Velocidad del viento	0
10246	7	Sololá	701	Sololá	1	Sololá	3	Marzo	2023-06-03T00:00:00	2024-11-08T03:00:00	7	Dirección del viento	0
10247	7	Sololá	701	Sololá	1	Sololá	3	Marzo	2023-06-03T00:00:00	2024-11-08T03:00:00	1	Precipitación	0
10248	7	Sololá	701	Sololá	1	Sololá	3	Marzo	2023-06-03T00:00:00	2024-11-08T03:00:00	8	Radiación solar	0
10249	7	Sololá	701	Sololá	1	Sololá	3	Marzo	2023-06-03T00:00:00	2024-11-08T04:00:00	2	Temperatura media	12.4
10250	7	Sololá	701	Sololá	1	Sololá	3	Marzo	2023-06-03T00:00:00	2024-11-08T04:00:00	4	Temperatura máxima	12.5
10251	7	Sololá	701	Sololá	1	Sololá	3	Marzo	2023-06-03T00:00:00	2024-11-08T04:00:00	3	Temperatura mínima	12.3
10252	7	Sololá	701	Sololá	1	Sololá	3	Marzo	2023-06-03T00:00:00	2024-11-08T04:00:00	5	Humedad	82
10253	7	Sololá	701	Sololá	1	Sololá	3	Marzo	2023-06-03T00:00:00	2024-11-08T04:00:00	6	Velocidad del viento	0
10254	7	Sololá	701	Sololá	1	Sololá	3	Marzo	2023-06-03T00:00:00	2024-11-08T04:00:00	7	Dirección del viento	0
10255	7	Sololá	701	Sololá	1	Sololá	3	Marzo	2023-06-03T00:00:00	2024-11-08T04:00:00	1	Precipitación	0
10256	7	Sololá	701	Sololá	1	Sololá	3	Marzo	2023-06-03T00:00:00	2024-11-08T04:00:00	8	Radiación solar	0
10257	7	Sololá	701	Sololá	1	Sololá	3	Marzo	2023-06-03T00:00:00	2024-11-08T05:00:00	2	Temperatura media	12.1
10258	7	Sololá	701	Sololá	1	Sololá	3	Marzo	2023-06-03T00:00:00	2024-11-08T05:00:00	4	Temperatura máxima	12.4
10259	7	Sololá	701	Sololá	1	Sololá	3	Marzo	2023-06-03T00:00:00	2024-11-08T05:00:00	3	Temperatura mínima	12.1
10260	7	Sololá	701	Sololá	1	Sololá	3	Marzo	2023-06-03T00:00:00	2024-11-08T05:00:00	5	Humedad	82
10261	7	Sololá	701	Sololá	1	Sololá	3	Marzo	2023-06-03T00:00:00	2024-11-08T05:00:00	6	Velocidad del viento	0
10262	7	Sololá	701	Sololá	1	Sololá	3	Marzo	2023-06-03T00:00:00	2024-11-08T05:00:00	7	Dirección del viento	0
10263	7	Sololá	701	Sololá	1	Sololá	3	Marzo	2023-06-03T00:00:00	2024-11-08T05:00:00	1	Precipitación	0
10264	7	Sololá	701	Sololá	1	Sololá	3	Marzo	2023-06-03T00:00:00	2024-11-08T05:00:00	8	Radiación solar	0
10265	7	Sololá	701	Sololá	1	Sololá	3	Marzo	2023-06-03T00:00:00	2024-11-08T06:00:00	2	Temperatura media	11.6
10266	7	Sololá	701	Sololá	1	Sololá	3	Marzo	2023-06-03T00:00:00	2024-11-08T06:00:00	4	Temperatura máxima	12.1
10267	7	Sololá	701	Sololá	1	Sololá	3	Marzo	2023-06-03T00:00:00	2024-11-08T06:00:00	3	Temperatura mínima	11.5
10268	7	Sololá	701	Sololá	1	Sololá	3	Marzo	2023-06-03T00:00:00	2024-11-08T06:00:00	5	Humedad	82
10269	7	Sololá	701	Sololá	1	Sololá	3	Marzo	2023-06-03T00:00:00	2024-11-08T06:00:00	6	Velocidad del viento	0
10270	7	Sololá	701	Sololá	1	Sololá	3	Marzo	2023-06-03T00:00:00	2024-11-08T06:00:00	7	Dirección del viento	0
10271	7	Sololá	701	Sololá	1	Sololá	3	Marzo	2023-06-03T00:00:00	2024-11-08T06:00:00	1	Precipitación	0
10272	7	Sololá	701	Sololá	1	Sololá	3	Marzo	2023-06-03T00:00:00	2024-11-08T06:00:00	8	Radiación solar	0
10273	7	Sololá	701	Sololá	1	Sololá	3	Marzo	2023-06-03T00:00:00	2024-11-08T07:00:00	2	Temperatura media	10.5
10274	7	Sololá	701	Sololá	1	Sololá	3	Marzo	2023-06-03T00:00:00	2024-11-08T07:00:00	4	Temperatura máxima	11.6
10275	7	Sololá	701	Sololá	1	Sololá	3	Marzo	2023-06-03T00:00:00	2024-11-08T07:00:00	3	Temperatura mínima	10.5
10276	7	Sololá	701	Sololá	1	Sololá	3	Marzo	2023-06-03T00:00:00	2024-11-08T07:00:00	5	Humedad	80
10277	7	Sololá	701	Sololá	1	Sololá	3	Marzo	2023-06-03T00:00:00	2024-11-08T07:00:00	6	Velocidad del viento	0
10278	7	Sololá	701	Sololá	1	Sololá	3	Marzo	2023-06-03T00:00:00	2024-11-08T07:00:00	7	Dirección del viento	0
10279	7	Sololá	701	Sololá	1	Sololá	3	Marzo	2023-06-03T00:00:00	2024-11-08T07:00:00	1	Precipitación	0
10280	7	Sololá	701	Sololá	1	Sololá	3	Marzo	2023-06-03T00:00:00	2024-11-08T07:00:00	8	Radiación solar	8
10281	7	Sololá	701	Sololá	1	Sololá	3	Marzo	2023-06-03T00:00:00	2024-11-08T08:00:00	2	Temperatura media	12.4
10282	7	Sololá	701	Sololá	1	Sololá	3	Marzo	2023-06-03T00:00:00	2024-11-08T08:00:00	4	Temperatura máxima	12.4
10283	7	Sololá	701	Sololá	1	Sololá	3	Marzo	2023-06-03T00:00:00	2024-11-08T08:00:00	3	Temperatura mínima	10.4
10284	7	Sololá	701	Sololá	1	Sololá	3	Marzo	2023-06-03T00:00:00	2024-11-08T08:00:00	5	Humedad	77
10285	7	Sololá	701	Sololá	1	Sololá	3	Marzo	2023-06-03T00:00:00	2024-11-08T08:00:00	6	Velocidad del viento	0
10286	7	Sololá	701	Sololá	1	Sololá	3	Marzo	2023-06-03T00:00:00	2024-11-08T08:00:00	7	Dirección del viento	0
10287	7	Sololá	701	Sololá	1	Sololá	3	Marzo	2023-06-03T00:00:00	2024-11-08T08:00:00	1	Precipitación	0
10288	7	Sololá	701	Sololá	1	Sololá	3	Marzo	2023-06-03T00:00:00	2024-11-08T08:00:00	8	Radiación solar	41
10289	7	Sololá	701	Sololá	1	Sololá	3	Marzo	2023-06-03T00:00:00	2024-11-08T09:00:00	2	Temperatura media	18.5
10290	7	Sololá	701	Sololá	1	Sololá	3	Marzo	2023-06-03T00:00:00	2024-11-08T09:00:00	4	Temperatura máxima	18.5
10291	7	Sololá	701	Sololá	1	Sololá	3	Marzo	2023-06-03T00:00:00	2024-11-08T09:00:00	3	Temperatura mínima	12.4
10292	7	Sololá	701	Sololá	1	Sololá	3	Marzo	2023-06-03T00:00:00	2024-11-08T09:00:00	5	Humedad	66
10293	7	Sololá	701	Sololá	1	Sololá	3	Marzo	2023-06-03T00:00:00	2024-11-08T09:00:00	6	Velocidad del viento	0
10294	7	Sololá	701	Sololá	1	Sololá	3	Marzo	2023-06-03T00:00:00	2024-11-08T09:00:00	7	Dirección del viento	0
10295	7	Sololá	701	Sololá	1	Sololá	3	Marzo	2023-06-03T00:00:00	2024-11-08T09:00:00	1	Precipitación	0
10296	7	Sololá	701	Sololá	1	Sololá	3	Marzo	2023-06-03T00:00:00	2024-11-08T09:00:00	8	Radiación solar	429
10297	7	Sololá	701	Sololá	1	Sololá	3	Marzo	2023-06-03T00:00:00	2024-11-08T10:00:00	2	Temperatura media	20.7
10298	7	Sololá	701	Sololá	1	Sololá	3	Marzo	2023-06-03T00:00:00	2024-11-08T10:00:00	4	Temperatura máxima	20.7
10299	7	Sololá	701	Sololá	1	Sololá	3	Marzo	2023-06-03T00:00:00	2024-11-08T10:00:00	3	Temperatura mínima	18.5
10300	7	Sololá	701	Sololá	1	Sololá	3	Marzo	2023-06-03T00:00:00	2024-11-08T10:00:00	5	Humedad	58
10301	7	Sololá	701	Sololá	1	Sololá	3	Marzo	2023-06-03T00:00:00	2024-11-08T10:00:00	6	Velocidad del viento	0
10302	7	Sololá	701	Sololá	1	Sololá	3	Marzo	2023-06-03T00:00:00	2024-11-08T10:00:00	7	Dirección del viento	0
10303	7	Sololá	701	Sololá	1	Sololá	3	Marzo	2023-06-03T00:00:00	2024-11-08T10:00:00	1	Precipitación	0
10304	7	Sololá	701	Sololá	1	Sololá	3	Marzo	2023-06-03T00:00:00	2024-11-08T10:00:00	8	Radiación solar	701
10305	7	Sololá	701	Sololá	1	Sololá	3	Marzo	2023-06-03T00:00:00	2024-11-08T11:00:00	2	Temperatura media	21.8
10306	7	Sololá	701	Sololá	1	Sololá	3	Marzo	2023-06-03T00:00:00	2024-11-08T11:00:00	4	Temperatura máxima	21.9
10307	7	Sololá	701	Sololá	1	Sololá	3	Marzo	2023-06-03T00:00:00	2024-11-08T11:00:00	3	Temperatura mínima	20.7
10308	7	Sololá	701	Sololá	1	Sololá	3	Marzo	2023-06-03T00:00:00	2024-11-08T11:00:00	5	Humedad	51
10309	7	Sololá	701	Sololá	1	Sololá	3	Marzo	2023-06-03T00:00:00	2024-11-08T11:00:00	6	Velocidad del viento	0
10310	7	Sololá	701	Sololá	1	Sololá	3	Marzo	2023-06-03T00:00:00	2024-11-08T11:00:00	7	Dirección del viento	0
10311	7	Sololá	701	Sololá	1	Sololá	3	Marzo	2023-06-03T00:00:00	2024-11-08T11:00:00	1	Precipitación	0
10312	7	Sololá	701	Sololá	1	Sololá	3	Marzo	2023-06-03T00:00:00	2024-11-08T11:00:00	8	Radiación solar	842
10313	7	Sololá	701	Sololá	1	Sololá	3	Marzo	2023-06-03T00:00:00	2024-11-08T12:00:00	2	Temperatura media	22.8
10314	7	Sololá	701	Sololá	1	Sololá	3	Marzo	2023-06-03T00:00:00	2024-11-08T12:00:00	4	Temperatura máxima	22.9
10315	7	Sololá	701	Sololá	1	Sololá	3	Marzo	2023-06-03T00:00:00	2024-11-08T12:00:00	3	Temperatura mínima	21.8
10316	7	Sololá	701	Sololá	1	Sololá	3	Marzo	2023-06-03T00:00:00	2024-11-08T12:00:00	5	Humedad	55
10317	7	Sololá	701	Sololá	1	Sololá	3	Marzo	2023-06-03T00:00:00	2024-11-08T12:00:00	6	Velocidad del viento	0
10318	7	Sololá	701	Sololá	1	Sololá	3	Marzo	2023-06-03T00:00:00	2024-11-08T12:00:00	7	Dirección del viento	0
10319	7	Sololá	701	Sololá	1	Sololá	3	Marzo	2023-06-03T00:00:00	2024-11-08T12:00:00	1	Precipitación	0
10320	7	Sololá	701	Sololá	1	Sololá	3	Marzo	2023-06-03T00:00:00	2024-11-08T12:00:00	8	Radiación solar	895
10321	7	Sololá	701	Sololá	1	Sololá	3	Marzo	2023-06-03T00:00:00	2024-11-08T13:00:00	2	Temperatura media	22.7
10322	7	Sololá	701	Sololá	1	Sololá	3	Marzo	2023-06-03T00:00:00	2024-11-08T13:00:00	4	Temperatura máxima	22.9
10323	7	Sololá	701	Sololá	1	Sololá	3	Marzo	2023-06-03T00:00:00	2024-11-08T13:00:00	3	Temperatura mínima	22.6
10324	7	Sololá	701	Sololá	1	Sololá	3	Marzo	2023-06-03T00:00:00	2024-11-08T13:00:00	5	Humedad	64
10325	7	Sololá	701	Sololá	1	Sololá	3	Marzo	2023-06-03T00:00:00	2024-11-08T13:00:00	6	Velocidad del viento	1.6
10326	7	Sololá	701	Sololá	1	Sololá	3	Marzo	2023-06-03T00:00:00	2024-11-08T13:00:00	7	Dirección del viento	1.61
10327	7	Sololá	701	Sololá	1	Sololá	3	Marzo	2023-06-03T00:00:00	2024-11-08T13:00:00	1	Precipitación	0
10328	7	Sololá	701	Sololá	1	Sololá	3	Marzo	2023-06-03T00:00:00	2024-11-08T13:00:00	8	Radiación solar	895
10329	7	Sololá	701	Sololá	1	Sololá	3	Marzo	2023-06-03T00:00:00	2024-11-08T14:00:00	2	Temperatura media	22.4
10330	7	Sololá	701	Sololá	1	Sololá	3	Marzo	2023-06-03T00:00:00	2024-11-08T14:00:00	4	Temperatura máxima	22.8
10331	7	Sololá	701	Sololá	1	Sololá	3	Marzo	2023-06-03T00:00:00	2024-11-08T14:00:00	3	Temperatura mínima	22.4
10332	7	Sololá	701	Sololá	1	Sololá	3	Marzo	2023-06-03T00:00:00	2024-11-08T14:00:00	5	Humedad	66
10333	7	Sololá	701	Sololá	1	Sololá	3	Marzo	2023-06-03T00:00:00	2024-11-08T14:00:00	6	Velocidad del viento	0
10334	7	Sololá	701	Sololá	1	Sololá	3	Marzo	2023-06-03T00:00:00	2024-11-08T14:00:00	7	Dirección del viento	0
10335	7	Sololá	701	Sololá	1	Sololá	3	Marzo	2023-06-03T00:00:00	2024-11-08T14:00:00	1	Precipitación	0
10336	7	Sololá	701	Sololá	1	Sololá	3	Marzo	2023-06-03T00:00:00	2024-11-08T14:00:00	8	Radiación solar	762
10337	7	Sololá	701	Sololá	1	Sololá	3	Marzo	2023-06-03T00:00:00	2024-11-08T15:00:00	2	Temperatura media	21.7
10338	7	Sololá	701	Sololá	1	Sololá	3	Marzo	2023-06-03T00:00:00	2024-11-08T15:00:00	4	Temperatura máxima	22.4
10339	7	Sololá	701	Sololá	1	Sololá	3	Marzo	2023-06-03T00:00:00	2024-11-08T15:00:00	3	Temperatura mínima	21.7
10340	7	Sololá	701	Sololá	1	Sololá	3	Marzo	2023-06-03T00:00:00	2024-11-08T15:00:00	5	Humedad	70
10341	7	Sololá	701	Sololá	1	Sololá	3	Marzo	2023-06-03T00:00:00	2024-11-08T15:00:00	6	Velocidad del viento	0
10342	7	Sololá	701	Sololá	1	Sololá	3	Marzo	2023-06-03T00:00:00	2024-11-08T15:00:00	7	Dirección del viento	0
10343	7	Sololá	701	Sololá	1	Sololá	3	Marzo	2023-06-03T00:00:00	2024-11-08T15:00:00	1	Precipitación	0
10344	7	Sololá	701	Sololá	1	Sololá	3	Marzo	2023-06-03T00:00:00	2024-11-08T15:00:00	8	Radiación solar	370
10345	7	Sololá	701	Sololá	1	Sololá	3	Marzo	2023-06-03T00:00:00	2024-11-08T16:00:00	2	Temperatura media	21.1
10346	7	Sololá	701	Sololá	1	Sololá	3	Marzo	2023-06-03T00:00:00	2024-11-08T16:00:00	4	Temperatura máxima	21.8
10347	7	Sololá	701	Sololá	1	Sololá	3	Marzo	2023-06-03T00:00:00	2024-11-08T16:00:00	3	Temperatura mínima	21
10348	7	Sololá	701	Sololá	1	Sololá	3	Marzo	2023-06-03T00:00:00	2024-11-08T16:00:00	5	Humedad	70
10349	7	Sololá	701	Sololá	1	Sololá	3	Marzo	2023-06-03T00:00:00	2024-11-08T16:00:00	6	Velocidad del viento	0
10350	7	Sololá	701	Sololá	1	Sololá	3	Marzo	2023-06-03T00:00:00	2024-11-08T16:00:00	7	Dirección del viento	0
10351	7	Sololá	701	Sololá	1	Sololá	3	Marzo	2023-06-03T00:00:00	2024-11-08T16:00:00	1	Precipitación	0
10352	7	Sololá	701	Sololá	1	Sololá	3	Marzo	2023-06-03T00:00:00	2024-11-08T16:00:00	8	Radiación solar	175
10353	7	Sololá	701	Sololá	1	Sololá	3	Marzo	2023-06-03T00:00:00	2024-11-08T17:00:00	2	Temperatura media	19.9
10354	7	Sololá	701	Sololá	1	Sololá	3	Marzo	2023-06-03T00:00:00	2024-11-08T17:00:00	4	Temperatura máxima	21.2
10355	7	Sololá	701	Sololá	1	Sololá	3	Marzo	2023-06-03T00:00:00	2024-11-08T17:00:00	3	Temperatura mínima	19.9
10356	7	Sololá	701	Sololá	1	Sololá	3	Marzo	2023-06-03T00:00:00	2024-11-08T17:00:00	5	Humedad	76
10357	7	Sololá	701	Sololá	1	Sololá	3	Marzo	2023-06-03T00:00:00	2024-11-08T17:00:00	6	Velocidad del viento	0
10358	7	Sololá	701	Sololá	1	Sololá	3	Marzo	2023-06-03T00:00:00	2024-11-08T17:00:00	7	Dirección del viento	0
10359	7	Sololá	701	Sololá	1	Sololá	3	Marzo	2023-06-03T00:00:00	2024-11-08T17:00:00	1	Precipitación	0
10360	7	Sololá	701	Sololá	1	Sololá	3	Marzo	2023-06-03T00:00:00	2024-11-08T17:00:00	8	Radiación solar	124
10361	7	Sololá	701	Sololá	1	Sololá	3	Marzo	2023-06-03T00:00:00	2024-11-08T18:00:00	2	Temperatura media	18
10362	7	Sololá	701	Sololá	1	Sololá	3	Marzo	2023-06-03T00:00:00	2024-11-08T18:00:00	4	Temperatura máxima	19.9
10363	7	Sololá	701	Sololá	1	Sololá	3	Marzo	2023-06-03T00:00:00	2024-11-08T18:00:00	3	Temperatura mínima	18
10364	7	Sololá	701	Sololá	1	Sololá	3	Marzo	2023-06-03T00:00:00	2024-11-08T18:00:00	5	Humedad	85
10365	7	Sololá	701	Sololá	1	Sololá	3	Marzo	2023-06-03T00:00:00	2024-11-08T18:00:00	6	Velocidad del viento	0
10366	7	Sololá	701	Sololá	1	Sololá	3	Marzo	2023-06-03T00:00:00	2024-11-08T18:00:00	7	Dirección del viento	0
10367	7	Sololá	701	Sololá	1	Sololá	3	Marzo	2023-06-03T00:00:00	2024-11-08T18:00:00	1	Precipitación	0
10368	7	Sololá	701	Sololá	1	Sololá	3	Marzo	2023-06-03T00:00:00	2024-11-08T18:00:00	8	Radiación solar	34
10369	7	Sololá	701	Sololá	1	Sololá	3	Marzo	2023-06-03T00:00:00	2024-11-08T19:00:00	2	Temperatura media	16.2
10370	7	Sololá	701	Sololá	1	Sololá	3	Marzo	2023-06-03T00:00:00	2024-11-08T19:00:00	4	Temperatura máxima	18
10371	7	Sololá	701	Sololá	1	Sololá	3	Marzo	2023-06-03T00:00:00	2024-11-08T19:00:00	3	Temperatura mínima	16.2
10372	7	Sololá	701	Sololá	1	Sololá	3	Marzo	2023-06-03T00:00:00	2024-11-08T19:00:00	5	Humedad	90
10373	7	Sololá	701	Sololá	1	Sololá	3	Marzo	2023-06-03T00:00:00	2024-11-08T19:00:00	6	Velocidad del viento	0
10374	7	Sololá	701	Sololá	1	Sololá	3	Marzo	2023-06-03T00:00:00	2024-11-08T19:00:00	7	Dirección del viento	0
10375	7	Sololá	701	Sololá	1	Sololá	3	Marzo	2023-06-03T00:00:00	2024-11-08T19:00:00	1	Precipitación	0
10376	7	Sololá	701	Sololá	1	Sololá	3	Marzo	2023-06-03T00:00:00	2024-11-08T19:00:00	8	Radiación solar	0
10377	7	Sololá	701	Sololá	1	Sololá	3	Marzo	2023-06-03T00:00:00	2024-11-08T20:00:00	2	Temperatura media	15.3
10378	7	Sololá	701	Sololá	1	Sololá	3	Marzo	2023-06-03T00:00:00	2024-11-08T20:00:00	4	Temperatura máxima	16.2
10379	7	Sololá	701	Sololá	1	Sololá	3	Marzo	2023-06-03T00:00:00	2024-11-08T20:00:00	3	Temperatura mínima	15.3
10380	7	Sololá	701	Sololá	1	Sololá	3	Marzo	2023-06-03T00:00:00	2024-11-08T20:00:00	5	Humedad	80
10381	7	Sololá	701	Sololá	1	Sololá	3	Marzo	2023-06-03T00:00:00	2024-11-08T20:00:00	6	Velocidad del viento	0
10382	7	Sololá	701	Sololá	1	Sololá	3	Marzo	2023-06-03T00:00:00	2024-11-08T20:00:00	7	Dirección del viento	0
10383	7	Sololá	701	Sololá	1	Sololá	3	Marzo	2023-06-03T00:00:00	2024-11-08T20:00:00	1	Precipitación	0
10384	7	Sololá	701	Sololá	1	Sololá	3	Marzo	2023-06-03T00:00:00	2024-11-08T20:00:00	8	Radiación solar	0
10385	7	Sololá	701	Sololá	1	Sololá	3	Marzo	2023-06-03T00:00:00	2024-11-08T21:00:00	2	Temperatura media	14.9
10386	7	Sololá	701	Sololá	1	Sololá	3	Marzo	2023-06-03T00:00:00	2024-11-08T21:00:00	4	Temperatura máxima	15.3
10387	7	Sololá	701	Sololá	1	Sololá	3	Marzo	2023-06-03T00:00:00	2024-11-08T21:00:00	3	Temperatura mínima	14.9
10388	7	Sololá	701	Sololá	1	Sololá	3	Marzo	2023-06-03T00:00:00	2024-11-08T21:00:00	5	Humedad	80
10389	7	Sololá	701	Sololá	1	Sololá	3	Marzo	2023-06-03T00:00:00	2024-11-08T21:00:00	6	Velocidad del viento	0
10390	7	Sololá	701	Sololá	1	Sololá	3	Marzo	2023-06-03T00:00:00	2024-11-08T21:00:00	7	Dirección del viento	0
10391	7	Sololá	701	Sololá	1	Sololá	3	Marzo	2023-06-03T00:00:00	2024-11-08T21:00:00	1	Precipitación	0
10392	7	Sololá	701	Sololá	1	Sololá	3	Marzo	2023-06-03T00:00:00	2024-11-08T21:00:00	8	Radiación solar	0
10393	7	Sololá	701	Sololá	1	Sololá	3	Marzo	2023-06-03T00:00:00	2024-11-08T22:00:00	2	Temperatura media	14.4
10394	7	Sololá	701	Sololá	1	Sololá	3	Marzo	2023-06-03T00:00:00	2024-11-08T22:00:00	4	Temperatura máxima	14.9
10395	7	Sololá	701	Sololá	1	Sololá	3	Marzo	2023-06-03T00:00:00	2024-11-08T22:00:00	3	Temperatura mínima	14.3
10396	7	Sololá	701	Sololá	1	Sololá	3	Marzo	2023-06-03T00:00:00	2024-11-08T22:00:00	5	Humedad	80
10397	7	Sololá	701	Sololá	1	Sololá	3	Marzo	2023-06-03T00:00:00	2024-11-08T22:00:00	6	Velocidad del viento	0
10398	7	Sololá	701	Sololá	1	Sololá	3	Marzo	2023-06-03T00:00:00	2024-11-08T22:00:00	7	Dirección del viento	0
10399	7	Sololá	701	Sololá	1	Sololá	3	Marzo	2023-06-03T00:00:00	2024-11-08T22:00:00	1	Precipitación	0
10400	7	Sololá	701	Sololá	1	Sololá	3	Marzo	2023-06-03T00:00:00	2024-11-08T22:00:00	8	Radiación solar	0
10401	7	Sololá	701	Sololá	1	Sololá	3	Marzo	2023-06-03T00:00:00	2024-11-08T23:00:00	2	Temperatura media	13.9
10402	7	Sololá	701	Sololá	1	Sololá	3	Marzo	2023-06-03T00:00:00	2024-11-08T23:00:00	4	Temperatura máxima	14.4
10403	7	Sololá	701	Sololá	1	Sololá	3	Marzo	2023-06-03T00:00:00	2024-11-08T23:00:00	3	Temperatura mínima	13.9
10404	7	Sololá	701	Sololá	1	Sololá	3	Marzo	2023-06-03T00:00:00	2024-11-08T23:00:00	5	Humedad	79
10405	7	Sololá	701	Sololá	1	Sololá	3	Marzo	2023-06-03T00:00:00	2024-11-08T23:00:00	6	Velocidad del viento	0
10406	7	Sololá	701	Sololá	1	Sololá	3	Marzo	2023-06-03T00:00:00	2024-11-08T23:00:00	7	Dirección del viento	0
10407	7	Sololá	701	Sololá	1	Sololá	3	Marzo	2023-06-03T00:00:00	2024-11-08T23:00:00	1	Precipitación	0
10408	7	Sololá	701	Sololá	1	Sololá	3	Marzo	2023-06-03T00:00:00	2024-11-08T23:00:00	8	Radiación solar	0
10409	7	Sololá	701	Sololá	1	Sololá	3	Marzo	2023-07-03T00:00:00	2024-11-08T00:00:00	2	Temperatura media	12.9
10410	7	Sololá	701	Sololá	1	Sololá	3	Marzo	2023-07-03T00:00:00	2024-11-08T00:00:00	4	Temperatura máxima	13.9
10411	7	Sololá	701	Sololá	1	Sololá	3	Marzo	2023-07-03T00:00:00	2024-11-08T00:00:00	3	Temperatura mínima	12.9
10412	7	Sololá	701	Sololá	1	Sololá	3	Marzo	2023-07-03T00:00:00	2024-11-08T00:00:00	5	Humedad	73
10413	7	Sololá	701	Sololá	1	Sololá	3	Marzo	2023-07-03T00:00:00	2024-11-08T00:00:00	6	Velocidad del viento	0
10414	7	Sololá	701	Sololá	1	Sololá	3	Marzo	2023-07-03T00:00:00	2024-11-08T00:00:00	7	Dirección del viento	0
10415	7	Sololá	701	Sololá	1	Sololá	3	Marzo	2023-07-03T00:00:00	2024-11-08T00:00:00	1	Precipitación	0
10416	7	Sololá	701	Sololá	1	Sololá	3	Marzo	2023-07-03T00:00:00	2024-11-08T00:00:00	8	Radiación solar	0
10417	7	Sololá	701	Sololá	1	Sololá	3	Marzo	2023-07-03T00:00:00	2024-11-08T01:00:00	2	Temperatura media	11.1
10418	7	Sololá	701	Sololá	1	Sololá	3	Marzo	2023-07-03T00:00:00	2024-11-08T01:00:00	4	Temperatura máxima	12.9
10419	7	Sololá	701	Sololá	1	Sololá	3	Marzo	2023-07-03T00:00:00	2024-11-08T01:00:00	3	Temperatura mínima	11
10420	7	Sololá	701	Sololá	1	Sololá	3	Marzo	2023-07-03T00:00:00	2024-11-08T01:00:00	5	Humedad	85
10421	7	Sololá	701	Sololá	1	Sololá	3	Marzo	2023-07-03T00:00:00	2024-11-08T01:00:00	6	Velocidad del viento	0
10422	7	Sololá	701	Sololá	1	Sololá	3	Marzo	2023-07-03T00:00:00	2024-11-08T01:00:00	7	Dirección del viento	0
10423	7	Sololá	701	Sololá	1	Sololá	3	Marzo	2023-07-03T00:00:00	2024-11-08T01:00:00	1	Precipitación	0
10424	7	Sololá	701	Sololá	1	Sololá	3	Marzo	2023-07-03T00:00:00	2024-11-08T01:00:00	8	Radiación solar	0
10425	7	Sololá	701	Sololá	1	Sololá	3	Marzo	2023-07-03T00:00:00	2024-11-08T02:00:00	2	Temperatura media	10.5
10426	7	Sololá	701	Sololá	1	Sololá	3	Marzo	2023-07-03T00:00:00	2024-11-08T02:00:00	4	Temperatura máxima	11.2
10427	7	Sololá	701	Sololá	1	Sololá	3	Marzo	2023-07-03T00:00:00	2024-11-08T02:00:00	3	Temperatura mínima	10.5
10428	7	Sololá	701	Sololá	1	Sololá	3	Marzo	2023-07-03T00:00:00	2024-11-08T02:00:00	5	Humedad	83
10429	7	Sololá	701	Sololá	1	Sololá	3	Marzo	2023-07-03T00:00:00	2024-11-08T02:00:00	6	Velocidad del viento	0
10430	7	Sololá	701	Sololá	1	Sololá	3	Marzo	2023-07-03T00:00:00	2024-11-08T02:00:00	7	Dirección del viento	0
10431	7	Sololá	701	Sololá	1	Sololá	3	Marzo	2023-07-03T00:00:00	2024-11-08T02:00:00	1	Precipitación	0
10432	7	Sololá	701	Sololá	1	Sololá	3	Marzo	2023-07-03T00:00:00	2024-11-08T02:00:00	8	Radiación solar	0
10433	7	Sololá	701	Sololá	1	Sololá	3	Marzo	2023-07-03T00:00:00	2024-11-08T03:00:00	2	Temperatura media	10.3
10434	7	Sololá	701	Sololá	1	Sololá	3	Marzo	2023-07-03T00:00:00	2024-11-08T03:00:00	4	Temperatura máxima	10.5
10435	7	Sololá	701	Sololá	1	Sololá	3	Marzo	2023-07-03T00:00:00	2024-11-08T03:00:00	3	Temperatura mínima	10.2
10436	7	Sololá	701	Sololá	1	Sololá	3	Marzo	2023-07-03T00:00:00	2024-11-08T03:00:00	5	Humedad	77
10437	7	Sololá	701	Sololá	1	Sololá	3	Marzo	2023-07-03T00:00:00	2024-11-08T03:00:00	6	Velocidad del viento	0
10438	7	Sololá	701	Sololá	1	Sololá	3	Marzo	2023-07-03T00:00:00	2024-11-08T03:00:00	7	Dirección del viento	0
10439	7	Sololá	701	Sololá	1	Sololá	3	Marzo	2023-07-03T00:00:00	2024-11-08T03:00:00	1	Precipitación	0
10440	7	Sololá	701	Sololá	1	Sololá	3	Marzo	2023-07-03T00:00:00	2024-11-08T03:00:00	8	Radiación solar	0
10441	7	Sololá	701	Sololá	1	Sololá	3	Marzo	2023-07-03T00:00:00	2024-11-08T04:00:00	2	Temperatura media	9.8
10442	7	Sololá	701	Sololá	1	Sololá	3	Marzo	2023-07-03T00:00:00	2024-11-08T04:00:00	4	Temperatura máxima	10.3
10443	7	Sololá	701	Sololá	1	Sololá	3	Marzo	2023-07-03T00:00:00	2024-11-08T04:00:00	3	Temperatura mínima	9.7
10444	7	Sololá	701	Sololá	1	Sololá	3	Marzo	2023-07-03T00:00:00	2024-11-08T04:00:00	5	Humedad	83
10445	7	Sololá	701	Sololá	1	Sololá	3	Marzo	2023-07-03T00:00:00	2024-11-08T04:00:00	6	Velocidad del viento	1.6
10446	7	Sololá	701	Sololá	1	Sololá	3	Marzo	2023-07-03T00:00:00	2024-11-08T04:00:00	7	Dirección del viento	1.61
10447	7	Sololá	701	Sololá	1	Sololá	3	Marzo	2023-07-03T00:00:00	2024-11-08T04:00:00	1	Precipitación	0
10448	7	Sololá	701	Sololá	1	Sololá	3	Marzo	2023-07-03T00:00:00	2024-11-08T04:00:00	8	Radiación solar	0
10449	7	Sololá	701	Sololá	1	Sololá	3	Marzo	2023-07-03T00:00:00	2024-11-08T05:00:00	2	Temperatura media	10
10450	7	Sololá	701	Sololá	1	Sololá	3	Marzo	2023-07-03T00:00:00	2024-11-08T05:00:00	4	Temperatura máxima	10.1
10451	7	Sololá	701	Sololá	1	Sololá	3	Marzo	2023-07-03T00:00:00	2024-11-08T05:00:00	3	Temperatura mínima	9.8
10452	7	Sololá	701	Sololá	1	Sololá	3	Marzo	2023-07-03T00:00:00	2024-11-08T05:00:00	5	Humedad	80
10453	7	Sololá	701	Sololá	1	Sololá	3	Marzo	2023-07-03T00:00:00	2024-11-08T05:00:00	6	Velocidad del viento	1.6
10454	7	Sololá	701	Sololá	1	Sololá	3	Marzo	2023-07-03T00:00:00	2024-11-08T05:00:00	7	Dirección del viento	1.61
10455	7	Sololá	701	Sololá	1	Sololá	3	Marzo	2023-07-03T00:00:00	2024-11-08T05:00:00	1	Precipitación	0
10456	7	Sololá	701	Sololá	1	Sololá	3	Marzo	2023-07-03T00:00:00	2024-11-08T05:00:00	8	Radiación solar	0
10457	7	Sololá	701	Sololá	1	Sololá	3	Marzo	2023-07-03T00:00:00	2024-11-08T06:00:00	2	Temperatura media	10.3
10458	7	Sololá	701	Sololá	1	Sololá	3	Marzo	2023-07-03T00:00:00	2024-11-08T06:00:00	4	Temperatura máxima	10.3
10459	7	Sololá	701	Sololá	1	Sololá	3	Marzo	2023-07-03T00:00:00	2024-11-08T06:00:00	3	Temperatura mínima	10
10460	7	Sololá	701	Sololá	1	Sololá	3	Marzo	2023-07-03T00:00:00	2024-11-08T06:00:00	5	Humedad	69
10461	7	Sololá	701	Sololá	1	Sololá	3	Marzo	2023-07-03T00:00:00	2024-11-08T06:00:00	6	Velocidad del viento	1.6
10462	7	Sololá	701	Sololá	1	Sololá	3	Marzo	2023-07-03T00:00:00	2024-11-08T06:00:00	7	Dirección del viento	1.61
10463	7	Sololá	701	Sololá	1	Sololá	3	Marzo	2023-07-03T00:00:00	2024-11-08T06:00:00	1	Precipitación	0
10464	7	Sololá	701	Sololá	1	Sololá	3	Marzo	2023-07-03T00:00:00	2024-11-08T06:00:00	8	Radiación solar	0
10465	7	Sololá	701	Sololá	1	Sololá	3	Marzo	2023-07-03T00:00:00	2024-11-08T07:00:00	2	Temperatura media	11.1
10466	7	Sololá	701	Sololá	1	Sololá	3	Marzo	2023-07-03T00:00:00	2024-11-08T07:00:00	4	Temperatura máxima	11.1
10467	7	Sololá	701	Sololá	1	Sololá	3	Marzo	2023-07-03T00:00:00	2024-11-08T07:00:00	3	Temperatura mínima	10.3
10468	7	Sololá	701	Sololá	1	Sololá	3	Marzo	2023-07-03T00:00:00	2024-11-08T07:00:00	5	Humedad	67
10469	7	Sololá	701	Sololá	1	Sololá	3	Marzo	2023-07-03T00:00:00	2024-11-08T07:00:00	6	Velocidad del viento	1.6
10470	7	Sololá	701	Sololá	1	Sololá	3	Marzo	2023-07-03T00:00:00	2024-11-08T07:00:00	7	Dirección del viento	1.61
10471	7	Sololá	701	Sololá	1	Sololá	3	Marzo	2023-07-03T00:00:00	2024-11-08T07:00:00	1	Precipitación	0
10472	7	Sololá	701	Sololá	1	Sololá	3	Marzo	2023-07-03T00:00:00	2024-11-08T07:00:00	8	Radiación solar	16
10473	7	Sololá	701	Sololá	1	Sololá	3	Marzo	2023-07-03T00:00:00	2024-11-08T08:00:00	2	Temperatura media	12.8
10474	7	Sololá	701	Sololá	1	Sololá	3	Marzo	2023-07-03T00:00:00	2024-11-08T08:00:00	4	Temperatura máxima	12.8
10475	7	Sololá	701	Sololá	1	Sololá	3	Marzo	2023-07-03T00:00:00	2024-11-08T08:00:00	3	Temperatura mínima	11.1
10476	7	Sololá	701	Sololá	1	Sololá	3	Marzo	2023-07-03T00:00:00	2024-11-08T08:00:00	5	Humedad	67
10477	7	Sololá	701	Sololá	1	Sololá	3	Marzo	2023-07-03T00:00:00	2024-11-08T08:00:00	6	Velocidad del viento	0
10478	7	Sololá	701	Sololá	1	Sololá	3	Marzo	2023-07-03T00:00:00	2024-11-08T08:00:00	7	Dirección del viento	0
10479	7	Sololá	701	Sololá	1	Sololá	3	Marzo	2023-07-03T00:00:00	2024-11-08T08:00:00	1	Precipitación	0
10480	7	Sololá	701	Sololá	1	Sololá	3	Marzo	2023-07-03T00:00:00	2024-11-08T08:00:00	8	Radiación solar	95
10481	7	Sololá	701	Sololá	1	Sololá	3	Marzo	2023-07-03T00:00:00	2024-11-08T09:00:00	2	Temperatura media	16.3
10482	7	Sololá	701	Sololá	1	Sololá	3	Marzo	2023-07-03T00:00:00	2024-11-08T09:00:00	4	Temperatura máxima	16.4
10483	7	Sololá	701	Sololá	1	Sololá	3	Marzo	2023-07-03T00:00:00	2024-11-08T09:00:00	3	Temperatura mínima	12.8
10484	7	Sololá	701	Sololá	1	Sololá	3	Marzo	2023-07-03T00:00:00	2024-11-08T09:00:00	5	Humedad	64
10485	7	Sololá	701	Sololá	1	Sololá	3	Marzo	2023-07-03T00:00:00	2024-11-08T09:00:00	6	Velocidad del viento	0
10486	7	Sololá	701	Sololá	1	Sololá	3	Marzo	2023-07-03T00:00:00	2024-11-08T09:00:00	7	Dirección del viento	0
10487	7	Sololá	701	Sololá	1	Sololá	3	Marzo	2023-07-03T00:00:00	2024-11-08T09:00:00	1	Precipitación	0
10488	7	Sololá	701	Sololá	1	Sololá	3	Marzo	2023-07-03T00:00:00	2024-11-08T09:00:00	8	Radiación solar	281
10489	7	Sololá	701	Sololá	1	Sololá	3	Marzo	2023-07-03T00:00:00	2024-11-08T10:00:00	2	Temperatura media	18.5
10490	7	Sololá	701	Sololá	1	Sololá	3	Marzo	2023-07-03T00:00:00	2024-11-08T10:00:00	4	Temperatura máxima	18.5
10491	7	Sololá	701	Sololá	1	Sololá	3	Marzo	2023-07-03T00:00:00	2024-11-08T10:00:00	3	Temperatura mínima	16.3
10492	7	Sololá	701	Sololá	1	Sololá	3	Marzo	2023-07-03T00:00:00	2024-11-08T10:00:00	5	Humedad	65
10493	7	Sololá	701	Sololá	1	Sololá	3	Marzo	2023-07-03T00:00:00	2024-11-08T10:00:00	6	Velocidad del viento	0
10494	7	Sololá	701	Sololá	1	Sololá	3	Marzo	2023-07-03T00:00:00	2024-11-08T10:00:00	7	Dirección del viento	0
10495	7	Sololá	701	Sololá	1	Sololá	3	Marzo	2023-07-03T00:00:00	2024-11-08T10:00:00	1	Precipitación	0
10496	7	Sololá	701	Sololá	1	Sololá	3	Marzo	2023-07-03T00:00:00	2024-11-08T10:00:00	8	Radiación solar	532
10497	7	Sololá	701	Sololá	1	Sololá	3	Marzo	2023-07-03T00:00:00	2024-11-08T11:00:00	2	Temperatura media	19
10498	7	Sololá	701	Sololá	1	Sololá	3	Marzo	2023-07-03T00:00:00	2024-11-08T11:00:00	4	Temperatura máxima	19
10499	7	Sololá	701	Sololá	1	Sololá	3	Marzo	2023-07-03T00:00:00	2024-11-08T11:00:00	3	Temperatura mínima	17.7
10500	7	Sololá	701	Sololá	1	Sololá	3	Marzo	2023-07-03T00:00:00	2024-11-08T11:00:00	5	Humedad	63
10501	7	Sololá	701	Sololá	1	Sololá	3	Marzo	2023-07-03T00:00:00	2024-11-08T11:00:00	6	Velocidad del viento	0
10502	7	Sololá	701	Sololá	1	Sololá	3	Marzo	2023-07-03T00:00:00	2024-11-08T11:00:00	7	Dirección del viento	0
10503	7	Sololá	701	Sololá	1	Sololá	3	Marzo	2023-07-03T00:00:00	2024-11-08T11:00:00	1	Precipitación	0
10504	7	Sololá	701	Sololá	1	Sololá	3	Marzo	2023-07-03T00:00:00	2024-11-08T11:00:00	8	Radiación solar	569
10505	7	Sololá	701	Sololá	1	Sololá	3	Marzo	2023-07-03T00:00:00	2024-11-08T12:00:00	2	Temperatura media	20.7
10506	7	Sololá	701	Sololá	1	Sololá	3	Marzo	2023-07-03T00:00:00	2024-11-08T12:00:00	4	Temperatura máxima	20.7
10507	7	Sololá	701	Sololá	1	Sololá	3	Marzo	2023-07-03T00:00:00	2024-11-08T12:00:00	3	Temperatura mínima	19
10508	7	Sololá	701	Sololá	1	Sololá	3	Marzo	2023-07-03T00:00:00	2024-11-08T12:00:00	5	Humedad	67
10509	7	Sololá	701	Sololá	1	Sololá	3	Marzo	2023-07-03T00:00:00	2024-11-08T12:00:00	6	Velocidad del viento	0
10510	7	Sololá	701	Sololá	1	Sololá	3	Marzo	2023-07-03T00:00:00	2024-11-08T12:00:00	7	Dirección del viento	0
10511	7	Sololá	701	Sololá	1	Sololá	3	Marzo	2023-07-03T00:00:00	2024-11-08T12:00:00	1	Precipitación	0
10512	7	Sololá	701	Sololá	1	Sololá	3	Marzo	2023-07-03T00:00:00	2024-11-08T12:00:00	8	Radiación solar	902
10513	7	Sololá	701	Sololá	1	Sololá	3	Marzo	2023-07-03T00:00:00	2024-11-08T13:00:00	2	Temperatura media	19.6
10514	7	Sololá	701	Sololá	1	Sololá	3	Marzo	2023-07-03T00:00:00	2024-11-08T13:00:00	4	Temperatura máxima	20.8
10515	7	Sololá	701	Sololá	1	Sololá	3	Marzo	2023-07-03T00:00:00	2024-11-08T13:00:00	3	Temperatura mínima	19.5
10516	7	Sololá	701	Sololá	1	Sololá	3	Marzo	2023-07-03T00:00:00	2024-11-08T13:00:00	5	Humedad	71
10517	7	Sololá	701	Sololá	1	Sololá	3	Marzo	2023-07-03T00:00:00	2024-11-08T13:00:00	6	Velocidad del viento	0
10518	7	Sololá	701	Sololá	1	Sololá	3	Marzo	2023-07-03T00:00:00	2024-11-08T13:00:00	7	Dirección del viento	0
10519	7	Sololá	701	Sololá	1	Sololá	3	Marzo	2023-07-03T00:00:00	2024-11-08T13:00:00	1	Precipitación	0
10520	7	Sololá	701	Sololá	1	Sololá	3	Marzo	2023-07-03T00:00:00	2024-11-08T13:00:00	8	Radiación solar	548
10521	7	Sololá	701	Sololá	1	Sololá	3	Marzo	2023-07-03T00:00:00	2024-11-08T14:00:00	2	Temperatura media	19.6
10522	7	Sololá	701	Sololá	1	Sololá	3	Marzo	2023-07-03T00:00:00	2024-11-08T14:00:00	4	Temperatura máxima	19.9
10523	7	Sololá	701	Sololá	1	Sololá	3	Marzo	2023-07-03T00:00:00	2024-11-08T14:00:00	3	Temperatura mínima	19.6
10524	7	Sololá	701	Sololá	1	Sololá	3	Marzo	2023-07-03T00:00:00	2024-11-08T14:00:00	5	Humedad	73
10525	7	Sololá	701	Sololá	1	Sololá	3	Marzo	2023-07-03T00:00:00	2024-11-08T14:00:00	6	Velocidad del viento	0
10526	7	Sololá	701	Sololá	1	Sololá	3	Marzo	2023-07-03T00:00:00	2024-11-08T14:00:00	7	Dirección del viento	0
10527	7	Sololá	701	Sololá	1	Sololá	3	Marzo	2023-07-03T00:00:00	2024-11-08T14:00:00	1	Precipitación	0
10528	7	Sololá	701	Sololá	1	Sololá	3	Marzo	2023-07-03T00:00:00	2024-11-08T14:00:00	8	Radiación solar	449
10529	7	Sololá	701	Sololá	1	Sololá	3	Marzo	2023-07-03T00:00:00	2024-11-08T15:00:00	2	Temperatura media	17.8
10530	7	Sololá	701	Sololá	1	Sololá	3	Marzo	2023-07-03T00:00:00	2024-11-08T15:00:00	4	Temperatura máxima	19.7
10531	7	Sololá	701	Sololá	1	Sololá	3	Marzo	2023-07-03T00:00:00	2024-11-08T15:00:00	3	Temperatura mínima	17.8
10532	7	Sololá	701	Sololá	1	Sololá	3	Marzo	2023-07-03T00:00:00	2024-11-08T15:00:00	5	Humedad	82
10533	7	Sololá	701	Sololá	1	Sololá	3	Marzo	2023-07-03T00:00:00	2024-11-08T15:00:00	6	Velocidad del viento	0
10534	7	Sololá	701	Sololá	1	Sololá	3	Marzo	2023-07-03T00:00:00	2024-11-08T15:00:00	7	Dirección del viento	0
10535	7	Sololá	701	Sololá	1	Sololá	3	Marzo	2023-07-03T00:00:00	2024-11-08T15:00:00	1	Precipitación	0
10536	7	Sololá	701	Sololá	1	Sololá	3	Marzo	2023-07-03T00:00:00	2024-11-08T15:00:00	8	Radiación solar	186
10537	7	Sololá	701	Sololá	1	Sololá	3	Marzo	2023-07-03T00:00:00	2024-11-08T16:00:00	2	Temperatura media	17.2
10538	7	Sololá	701	Sololá	1	Sololá	3	Marzo	2023-07-03T00:00:00	2024-11-08T16:00:00	4	Temperatura máxima	17.8
10539	7	Sololá	701	Sololá	1	Sololá	3	Marzo	2023-07-03T00:00:00	2024-11-08T16:00:00	3	Temperatura mínima	17.1
10540	7	Sololá	701	Sololá	1	Sololá	3	Marzo	2023-07-03T00:00:00	2024-11-08T16:00:00	5	Humedad	84
10541	7	Sololá	701	Sololá	1	Sololá	3	Marzo	2023-07-03T00:00:00	2024-11-08T16:00:00	6	Velocidad del viento	0
10542	7	Sololá	701	Sololá	1	Sololá	3	Marzo	2023-07-03T00:00:00	2024-11-08T16:00:00	7	Dirección del viento	0
10543	7	Sololá	701	Sololá	1	Sololá	3	Marzo	2023-07-03T00:00:00	2024-11-08T16:00:00	1	Precipitación	0
10544	7	Sololá	701	Sololá	1	Sololá	3	Marzo	2023-07-03T00:00:00	2024-11-08T16:00:00	8	Radiación solar	132
10545	7	Sololá	701	Sololá	1	Sololá	3	Marzo	2023-07-03T00:00:00	2024-11-08T17:00:00	2	Temperatura media	16.1
10546	7	Sololá	701	Sololá	1	Sololá	3	Marzo	2023-07-03T00:00:00	2024-11-08T17:00:00	4	Temperatura máxima	17.3
10547	7	Sololá	701	Sololá	1	Sololá	3	Marzo	2023-07-03T00:00:00	2024-11-08T17:00:00	3	Temperatura mínima	16.1
10548	7	Sololá	701	Sololá	1	Sololá	3	Marzo	2023-07-03T00:00:00	2024-11-08T17:00:00	5	Humedad	89
10549	7	Sololá	701	Sololá	1	Sololá	3	Marzo	2023-07-03T00:00:00	2024-11-08T17:00:00	6	Velocidad del viento	0
10550	7	Sololá	701	Sololá	1	Sololá	3	Marzo	2023-07-03T00:00:00	2024-11-08T17:00:00	7	Dirección del viento	0
10551	7	Sololá	701	Sololá	1	Sololá	3	Marzo	2023-07-03T00:00:00	2024-11-08T17:00:00	1	Precipitación	0
10552	7	Sololá	701	Sololá	1	Sololá	3	Marzo	2023-07-03T00:00:00	2024-11-08T17:00:00	8	Radiación solar	33
10553	7	Sololá	701	Sololá	1	Sololá	3	Marzo	2023-07-03T00:00:00	2024-11-08T18:00:00	2	Temperatura media	15.8
10554	7	Sololá	701	Sololá	1	Sololá	3	Marzo	2023-07-03T00:00:00	2024-11-08T18:00:00	4	Temperatura máxima	16.1
10555	7	Sololá	701	Sololá	1	Sololá	3	Marzo	2023-07-03T00:00:00	2024-11-08T18:00:00	3	Temperatura mínima	15.8
10556	7	Sololá	701	Sololá	1	Sololá	3	Marzo	2023-07-03T00:00:00	2024-11-08T18:00:00	5	Humedad	90
10557	7	Sololá	701	Sololá	1	Sololá	3	Marzo	2023-07-03T00:00:00	2024-11-08T18:00:00	6	Velocidad del viento	0
10558	7	Sololá	701	Sololá	1	Sololá	3	Marzo	2023-07-03T00:00:00	2024-11-08T18:00:00	7	Dirección del viento	0
10559	7	Sololá	701	Sololá	1	Sololá	3	Marzo	2023-07-03T00:00:00	2024-11-08T18:00:00	1	Precipitación	0
10560	7	Sololá	701	Sololá	1	Sololá	3	Marzo	2023-07-03T00:00:00	2024-11-08T18:00:00	8	Radiación solar	15
10561	7	Sololá	701	Sololá	1	Sololá	3	Marzo	2023-07-03T00:00:00	2024-11-08T19:00:00	2	Temperatura media	15.3
10562	7	Sololá	701	Sololá	1	Sololá	3	Marzo	2023-07-03T00:00:00	2024-11-08T19:00:00	4	Temperatura máxima	15.8
10563	7	Sololá	701	Sololá	1	Sololá	3	Marzo	2023-07-03T00:00:00	2024-11-08T19:00:00	3	Temperatura mínima	15.3
10564	7	Sololá	701	Sololá	1	Sololá	3	Marzo	2023-07-03T00:00:00	2024-11-08T19:00:00	5	Humedad	91
10565	7	Sololá	701	Sololá	1	Sololá	3	Marzo	2023-07-03T00:00:00	2024-11-08T19:00:00	6	Velocidad del viento	0
10566	7	Sololá	701	Sololá	1	Sololá	3	Marzo	2023-07-03T00:00:00	2024-11-08T19:00:00	7	Dirección del viento	0
10567	7	Sololá	701	Sololá	1	Sololá	3	Marzo	2023-07-03T00:00:00	2024-11-08T19:00:00	1	Precipitación	0
10568	7	Sololá	701	Sololá	1	Sololá	3	Marzo	2023-07-03T00:00:00	2024-11-08T19:00:00	8	Radiación solar	0
10569	7	Sololá	701	Sololá	1	Sololá	3	Marzo	2023-07-03T00:00:00	2024-11-08T20:00:00	2	Temperatura media	14.7
10570	7	Sololá	701	Sololá	1	Sololá	3	Marzo	2023-07-03T00:00:00	2024-11-08T20:00:00	4	Temperatura máxima	15.4
10571	7	Sololá	701	Sololá	1	Sololá	3	Marzo	2023-07-03T00:00:00	2024-11-08T20:00:00	3	Temperatura mínima	14.6
10572	7	Sololá	701	Sololá	1	Sololá	3	Marzo	2023-07-03T00:00:00	2024-11-08T20:00:00	5	Humedad	92
10573	7	Sololá	701	Sololá	1	Sololá	3	Marzo	2023-07-03T00:00:00	2024-11-08T20:00:00	6	Velocidad del viento	0
10574	7	Sololá	701	Sololá	1	Sololá	3	Marzo	2023-07-03T00:00:00	2024-11-08T20:00:00	7	Dirección del viento	0
10575	7	Sololá	701	Sololá	1	Sololá	3	Marzo	2023-07-03T00:00:00	2024-11-08T20:00:00	1	Precipitación	0
10576	7	Sololá	701	Sololá	1	Sololá	3	Marzo	2023-07-03T00:00:00	2024-11-08T20:00:00	8	Radiación solar	0
10577	7	Sololá	701	Sololá	1	Sololá	3	Marzo	2023-07-03T00:00:00	2024-11-08T21:00:00	2	Temperatura media	13.9
10578	7	Sololá	701	Sololá	1	Sololá	3	Marzo	2023-07-03T00:00:00	2024-11-08T21:00:00	4	Temperatura máxima	14.6
10579	7	Sololá	701	Sololá	1	Sololá	3	Marzo	2023-07-03T00:00:00	2024-11-08T21:00:00	3	Temperatura mínima	13.9
10580	7	Sololá	701	Sololá	1	Sololá	3	Marzo	2023-07-03T00:00:00	2024-11-08T21:00:00	5	Humedad	83
10581	7	Sololá	701	Sololá	1	Sololá	3	Marzo	2023-07-03T00:00:00	2024-11-08T21:00:00	6	Velocidad del viento	0
10582	7	Sololá	701	Sololá	1	Sololá	3	Marzo	2023-07-03T00:00:00	2024-11-08T21:00:00	7	Dirección del viento	0
10583	7	Sololá	701	Sololá	1	Sololá	3	Marzo	2023-07-03T00:00:00	2024-11-08T21:00:00	1	Precipitación	0
10584	7	Sololá	701	Sololá	1	Sololá	3	Marzo	2023-07-03T00:00:00	2024-11-08T21:00:00	8	Radiación solar	0
10585	7	Sololá	701	Sololá	1	Sololá	3	Marzo	2023-07-03T00:00:00	2024-11-08T22:00:00	2	Temperatura media	14.3
10586	7	Sololá	701	Sololá	1	Sololá	3	Marzo	2023-07-03T00:00:00	2024-11-08T22:00:00	4	Temperatura máxima	14.3
10587	7	Sololá	701	Sololá	1	Sololá	3	Marzo	2023-07-03T00:00:00	2024-11-08T22:00:00	3	Temperatura mínima	13.8
10588	7	Sololá	701	Sololá	1	Sololá	3	Marzo	2023-07-03T00:00:00	2024-11-08T22:00:00	5	Humedad	82
10589	7	Sololá	701	Sololá	1	Sololá	3	Marzo	2023-07-03T00:00:00	2024-11-08T22:00:00	6	Velocidad del viento	0
10590	7	Sololá	701	Sololá	1	Sololá	3	Marzo	2023-07-03T00:00:00	2024-11-08T22:00:00	7	Dirección del viento	0
10591	7	Sololá	701	Sololá	1	Sololá	3	Marzo	2023-07-03T00:00:00	2024-11-08T22:00:00	1	Precipitación	0
10592	7	Sololá	701	Sololá	1	Sololá	3	Marzo	2023-07-03T00:00:00	2024-11-08T22:00:00	8	Radiación solar	0
10593	7	Sololá	701	Sololá	1	Sololá	3	Marzo	2023-07-03T00:00:00	2024-11-08T23:00:00	2	Temperatura media	14.2
10594	7	Sololá	701	Sololá	1	Sololá	3	Marzo	2023-07-03T00:00:00	2024-11-08T23:00:00	4	Temperatura máxima	14.3
10595	7	Sololá	701	Sololá	1	Sololá	3	Marzo	2023-07-03T00:00:00	2024-11-08T23:00:00	3	Temperatura mínima	14.2
10596	7	Sololá	701	Sololá	1	Sololá	3	Marzo	2023-07-03T00:00:00	2024-11-08T23:00:00	5	Humedad	82
10597	7	Sololá	701	Sololá	1	Sololá	3	Marzo	2023-07-03T00:00:00	2024-11-08T23:00:00	6	Velocidad del viento	0
10598	7	Sololá	701	Sololá	1	Sololá	3	Marzo	2023-07-03T00:00:00	2024-11-08T23:00:00	7	Dirección del viento	0
10599	7	Sololá	701	Sololá	1	Sololá	3	Marzo	2023-07-03T00:00:00	2024-11-08T23:00:00	1	Precipitación	0
10600	7	Sololá	701	Sololá	1	Sololá	3	Marzo	2023-07-03T00:00:00	2024-11-08T23:00:00	8	Radiación solar	0
10601	7	Sololá	701	Sololá	1	Sololá	3	Marzo	2023-08-03T00:00:00	2024-11-08T00:00:00	2	Temperatura media	13.3
10602	7	Sololá	701	Sololá	1	Sololá	3	Marzo	2023-08-03T00:00:00	2024-11-08T00:00:00	4	Temperatura máxima	14.2
10603	7	Sololá	701	Sololá	1	Sololá	3	Marzo	2023-08-03T00:00:00	2024-11-08T00:00:00	3	Temperatura mínima	13.3
10604	7	Sololá	701	Sololá	1	Sololá	3	Marzo	2023-08-03T00:00:00	2024-11-08T00:00:00	5	Humedad	84
10605	7	Sololá	701	Sololá	1	Sololá	3	Marzo	2023-08-03T00:00:00	2024-11-08T00:00:00	6	Velocidad del viento	0
10606	7	Sololá	701	Sololá	1	Sololá	3	Marzo	2023-08-03T00:00:00	2024-11-08T00:00:00	7	Dirección del viento	0
10607	7	Sololá	701	Sololá	1	Sololá	3	Marzo	2023-08-03T00:00:00	2024-11-08T00:00:00	1	Precipitación	0
10608	7	Sololá	701	Sololá	1	Sololá	3	Marzo	2023-08-03T00:00:00	2024-11-08T00:00:00	8	Radiación solar	0
10609	7	Sololá	701	Sololá	1	Sololá	3	Marzo	2023-08-03T00:00:00	2024-11-08T01:00:00	2	Temperatura media	12.9
10610	7	Sololá	701	Sololá	1	Sololá	3	Marzo	2023-08-03T00:00:00	2024-11-08T01:00:00	4	Temperatura máxima	13.3
10611	7	Sololá	701	Sololá	1	Sololá	3	Marzo	2023-08-03T00:00:00	2024-11-08T01:00:00	3	Temperatura mínima	12.9
10612	7	Sololá	701	Sololá	1	Sololá	3	Marzo	2023-08-03T00:00:00	2024-11-08T01:00:00	5	Humedad	85
10613	7	Sololá	701	Sololá	1	Sololá	3	Marzo	2023-08-03T00:00:00	2024-11-08T01:00:00	6	Velocidad del viento	0
10614	7	Sololá	701	Sololá	1	Sololá	3	Marzo	2023-08-03T00:00:00	2024-11-08T01:00:00	7	Dirección del viento	0
10615	7	Sololá	701	Sololá	1	Sololá	3	Marzo	2023-08-03T00:00:00	2024-11-08T01:00:00	1	Precipitación	0
10616	7	Sololá	701	Sololá	1	Sololá	3	Marzo	2023-08-03T00:00:00	2024-11-08T01:00:00	8	Radiación solar	0
10617	7	Sololá	701	Sololá	1	Sololá	3	Marzo	2023-08-03T00:00:00	2024-11-08T02:00:00	2	Temperatura media	12.7
10618	7	Sololá	701	Sololá	1	Sololá	3	Marzo	2023-08-03T00:00:00	2024-11-08T02:00:00	4	Temperatura máxima	13
10619	7	Sololá	701	Sololá	1	Sololá	3	Marzo	2023-08-03T00:00:00	2024-11-08T02:00:00	3	Temperatura mínima	12.6
10620	7	Sololá	701	Sololá	1	Sololá	3	Marzo	2023-08-03T00:00:00	2024-11-08T02:00:00	5	Humedad	87
10621	7	Sololá	701	Sololá	1	Sololá	3	Marzo	2023-08-03T00:00:00	2024-11-08T02:00:00	6	Velocidad del viento	0
10622	7	Sololá	701	Sololá	1	Sololá	3	Marzo	2023-08-03T00:00:00	2024-11-08T02:00:00	7	Dirección del viento	0
10623	7	Sololá	701	Sololá	1	Sololá	3	Marzo	2023-08-03T00:00:00	2024-11-08T02:00:00	1	Precipitación	0
10624	7	Sololá	701	Sololá	1	Sololá	3	Marzo	2023-08-03T00:00:00	2024-11-08T02:00:00	8	Radiación solar	0
10625	7	Sololá	701	Sololá	1	Sololá	3	Marzo	2023-08-03T00:00:00	2024-11-08T03:00:00	2	Temperatura media	12.3
10626	7	Sololá	701	Sololá	1	Sololá	3	Marzo	2023-08-03T00:00:00	2024-11-08T03:00:00	4	Temperatura máxima	12.7
10627	7	Sololá	701	Sololá	1	Sololá	3	Marzo	2023-08-03T00:00:00	2024-11-08T03:00:00	3	Temperatura mínima	12.3
10628	7	Sololá	701	Sololá	1	Sololá	3	Marzo	2023-08-03T00:00:00	2024-11-08T03:00:00	5	Humedad	88
10629	7	Sololá	701	Sololá	1	Sololá	3	Marzo	2023-08-03T00:00:00	2024-11-08T03:00:00	6	Velocidad del viento	0
10630	7	Sololá	701	Sololá	1	Sololá	3	Marzo	2023-08-03T00:00:00	2024-11-08T03:00:00	7	Dirección del viento	0
10631	7	Sololá	701	Sololá	1	Sololá	3	Marzo	2023-08-03T00:00:00	2024-11-08T03:00:00	1	Precipitación	0
10632	7	Sololá	701	Sololá	1	Sololá	3	Marzo	2023-08-03T00:00:00	2024-11-08T03:00:00	8	Radiación solar	0
10633	7	Sololá	701	Sololá	1	Sololá	3	Marzo	2023-08-03T00:00:00	2024-11-08T04:00:00	2	Temperatura media	12.4
10634	7	Sololá	701	Sololá	1	Sololá	3	Marzo	2023-08-03T00:00:00	2024-11-08T04:00:00	4	Temperatura máxima	12.4
10635	7	Sololá	701	Sololá	1	Sololá	3	Marzo	2023-08-03T00:00:00	2024-11-08T04:00:00	3	Temperatura mínima	12.2
10636	7	Sololá	701	Sololá	1	Sololá	3	Marzo	2023-08-03T00:00:00	2024-11-08T04:00:00	5	Humedad	88
10637	7	Sololá	701	Sololá	1	Sololá	3	Marzo	2023-08-03T00:00:00	2024-11-08T04:00:00	6	Velocidad del viento	0
10638	7	Sololá	701	Sololá	1	Sololá	3	Marzo	2023-08-03T00:00:00	2024-11-08T04:00:00	7	Dirección del viento	0
10639	7	Sololá	701	Sololá	1	Sololá	3	Marzo	2023-08-03T00:00:00	2024-11-08T04:00:00	1	Precipitación	0
10640	7	Sololá	701	Sololá	1	Sololá	3	Marzo	2023-08-03T00:00:00	2024-11-08T04:00:00	8	Radiación solar	0
10641	7	Sololá	701	Sololá	1	Sololá	3	Marzo	2023-08-03T00:00:00	2024-11-08T05:00:00	2	Temperatura media	11.9
10642	7	Sololá	701	Sololá	1	Sololá	3	Marzo	2023-08-03T00:00:00	2024-11-08T05:00:00	4	Temperatura máxima	12.4
10643	7	Sololá	701	Sololá	1	Sololá	3	Marzo	2023-08-03T00:00:00	2024-11-08T05:00:00	3	Temperatura mínima	11.9
10644	7	Sololá	701	Sololá	1	Sololá	3	Marzo	2023-08-03T00:00:00	2024-11-08T05:00:00	5	Humedad	83
10645	7	Sololá	701	Sololá	1	Sololá	3	Marzo	2023-08-03T00:00:00	2024-11-08T05:00:00	6	Velocidad del viento	0
10646	7	Sololá	701	Sololá	1	Sololá	3	Marzo	2023-08-03T00:00:00	2024-11-08T05:00:00	7	Dirección del viento	0
10647	7	Sololá	701	Sololá	1	Sololá	3	Marzo	2023-08-03T00:00:00	2024-11-08T05:00:00	1	Precipitación	0
10648	7	Sololá	701	Sololá	1	Sololá	3	Marzo	2023-08-03T00:00:00	2024-11-08T05:00:00	8	Radiación solar	0
10649	7	Sololá	701	Sololá	1	Sololá	3	Marzo	2023-08-03T00:00:00	2024-11-08T06:00:00	2	Temperatura media	11.2
10650	7	Sololá	701	Sololá	1	Sololá	3	Marzo	2023-08-03T00:00:00	2024-11-08T06:00:00	4	Temperatura máxima	11.9
10651	7	Sololá	701	Sololá	1	Sololá	3	Marzo	2023-08-03T00:00:00	2024-11-08T06:00:00	3	Temperatura mínima	11.2
10652	7	Sololá	701	Sololá	1	Sololá	3	Marzo	2023-08-03T00:00:00	2024-11-08T06:00:00	5	Humedad	82
10653	7	Sololá	701	Sololá	1	Sololá	3	Marzo	2023-08-03T00:00:00	2024-11-08T06:00:00	6	Velocidad del viento	0
10654	7	Sololá	701	Sololá	1	Sololá	3	Marzo	2023-08-03T00:00:00	2024-11-08T06:00:00	7	Dirección del viento	0
10655	7	Sololá	701	Sololá	1	Sololá	3	Marzo	2023-08-03T00:00:00	2024-11-08T06:00:00	1	Precipitación	0
10656	7	Sololá	701	Sololá	1	Sololá	3	Marzo	2023-08-03T00:00:00	2024-11-08T06:00:00	8	Radiación solar	0
10657	7	Sololá	701	Sololá	1	Sololá	3	Marzo	2023-08-03T00:00:00	2024-11-08T07:00:00	2	Temperatura media	11.2
10658	7	Sololá	701	Sololá	1	Sololá	3	Marzo	2023-08-03T00:00:00	2024-11-08T07:00:00	4	Temperatura máxima	11.3
10659	7	Sololá	701	Sololá	1	Sololá	3	Marzo	2023-08-03T00:00:00	2024-11-08T07:00:00	3	Temperatura mínima	11.1
10660	7	Sololá	701	Sololá	1	Sololá	3	Marzo	2023-08-03T00:00:00	2024-11-08T07:00:00	5	Humedad	79
10661	7	Sololá	701	Sololá	1	Sololá	3	Marzo	2023-08-03T00:00:00	2024-11-08T07:00:00	6	Velocidad del viento	0
10662	7	Sololá	701	Sololá	1	Sololá	3	Marzo	2023-08-03T00:00:00	2024-11-08T07:00:00	7	Dirección del viento	0
10663	7	Sololá	701	Sololá	1	Sololá	3	Marzo	2023-08-03T00:00:00	2024-11-08T07:00:00	1	Precipitación	0
10664	7	Sololá	701	Sololá	1	Sololá	3	Marzo	2023-08-03T00:00:00	2024-11-08T07:00:00	8	Radiación solar	8
10665	7	Sololá	701	Sololá	1	Sololá	3	Marzo	2023-08-03T00:00:00	2024-11-08T08:00:00	2	Temperatura media	13.1
10666	7	Sololá	701	Sololá	1	Sololá	3	Marzo	2023-08-03T00:00:00	2024-11-08T08:00:00	4	Temperatura máxima	13.1
10667	7	Sololá	701	Sololá	1	Sololá	3	Marzo	2023-08-03T00:00:00	2024-11-08T08:00:00	3	Temperatura mínima	11.2
10668	7	Sololá	701	Sololá	1	Sololá	3	Marzo	2023-08-03T00:00:00	2024-11-08T08:00:00	5	Humedad	83
10669	7	Sololá	701	Sololá	1	Sololá	3	Marzo	2023-08-03T00:00:00	2024-11-08T08:00:00	6	Velocidad del viento	0
10670	7	Sololá	701	Sololá	1	Sololá	3	Marzo	2023-08-03T00:00:00	2024-11-08T08:00:00	7	Dirección del viento	0
10671	7	Sololá	701	Sololá	1	Sololá	3	Marzo	2023-08-03T00:00:00	2024-11-08T08:00:00	1	Precipitación	0
10672	7	Sololá	701	Sololá	1	Sololá	3	Marzo	2023-08-03T00:00:00	2024-11-08T08:00:00	8	Radiación solar	67
10673	7	Sololá	701	Sololá	1	Sololá	3	Marzo	2023-08-03T00:00:00	2024-11-08T09:00:00	2	Temperatura media	16.5
10674	7	Sololá	701	Sololá	1	Sololá	3	Marzo	2023-08-03T00:00:00	2024-11-08T09:00:00	4	Temperatura máxima	16.5
10675	7	Sololá	701	Sololá	1	Sololá	3	Marzo	2023-08-03T00:00:00	2024-11-08T09:00:00	3	Temperatura mínima	13.1
10676	7	Sololá	701	Sololá	1	Sololá	3	Marzo	2023-08-03T00:00:00	2024-11-08T09:00:00	5	Humedad	78
10677	7	Sololá	701	Sololá	1	Sololá	3	Marzo	2023-08-03T00:00:00	2024-11-08T09:00:00	6	Velocidad del viento	0
10678	7	Sololá	701	Sololá	1	Sololá	3	Marzo	2023-08-03T00:00:00	2024-11-08T09:00:00	7	Dirección del viento	0
10679	7	Sololá	701	Sololá	1	Sololá	3	Marzo	2023-08-03T00:00:00	2024-11-08T09:00:00	1	Precipitación	0
10680	7	Sololá	701	Sololá	1	Sololá	3	Marzo	2023-08-03T00:00:00	2024-11-08T09:00:00	8	Radiación solar	322
10681	7	Sololá	701	Sololá	1	Sololá	3	Marzo	2023-08-03T00:00:00	2024-11-08T10:00:00	2	Temperatura media	19
10682	7	Sololá	701	Sololá	1	Sololá	3	Marzo	2023-08-03T00:00:00	2024-11-08T10:00:00	4	Temperatura máxima	19
10683	7	Sololá	701	Sololá	1	Sololá	3	Marzo	2023-08-03T00:00:00	2024-11-08T10:00:00	3	Temperatura mínima	16.5
10684	7	Sololá	701	Sololá	1	Sololá	3	Marzo	2023-08-03T00:00:00	2024-11-08T10:00:00	5	Humedad	70
10685	7	Sololá	701	Sololá	1	Sololá	3	Marzo	2023-08-03T00:00:00	2024-11-08T10:00:00	6	Velocidad del viento	0
10686	7	Sololá	701	Sololá	1	Sololá	3	Marzo	2023-08-03T00:00:00	2024-11-08T10:00:00	7	Dirección del viento	0
10687	7	Sololá	701	Sololá	1	Sololá	3	Marzo	2023-08-03T00:00:00	2024-11-08T10:00:00	1	Precipitación	0
10688	7	Sololá	701	Sololá	1	Sololá	3	Marzo	2023-08-03T00:00:00	2024-11-08T10:00:00	8	Radiación solar	696
10689	7	Sololá	701	Sololá	1	Sololá	3	Marzo	2023-08-03T00:00:00	2024-11-08T11:00:00	2	Temperatura media	20
10690	7	Sololá	701	Sololá	1	Sololá	3	Marzo	2023-08-03T00:00:00	2024-11-08T11:00:00	4	Temperatura máxima	20
10691	7	Sololá	701	Sololá	1	Sololá	3	Marzo	2023-08-03T00:00:00	2024-11-08T11:00:00	3	Temperatura mínima	18.9
10692	7	Sololá	701	Sololá	1	Sololá	3	Marzo	2023-08-03T00:00:00	2024-11-08T11:00:00	5	Humedad	68
10693	7	Sololá	701	Sololá	1	Sololá	3	Marzo	2023-08-03T00:00:00	2024-11-08T11:00:00	6	Velocidad del viento	0
10694	7	Sololá	701	Sololá	1	Sololá	3	Marzo	2023-08-03T00:00:00	2024-11-08T11:00:00	7	Dirección del viento	0
10695	7	Sololá	701	Sololá	1	Sololá	3	Marzo	2023-08-03T00:00:00	2024-11-08T11:00:00	1	Precipitación	0
10696	7	Sololá	701	Sololá	1	Sololá	3	Marzo	2023-08-03T00:00:00	2024-11-08T11:00:00	8	Radiación solar	801
10697	7	Sololá	701	Sololá	1	Sololá	3	Marzo	2023-08-03T00:00:00	2024-11-08T12:00:00	2	Temperatura media	20.1
10698	7	Sololá	701	Sololá	1	Sololá	3	Marzo	2023-08-03T00:00:00	2024-11-08T12:00:00	4	Temperatura máxima	20.3
10699	7	Sololá	701	Sololá	1	Sololá	3	Marzo	2023-08-03T00:00:00	2024-11-08T12:00:00	3	Temperatura mínima	19.8
10700	7	Sololá	701	Sololá	1	Sololá	3	Marzo	2023-08-03T00:00:00	2024-11-08T12:00:00	5	Humedad	70
10701	7	Sololá	701	Sololá	1	Sololá	3	Marzo	2023-08-03T00:00:00	2024-11-08T12:00:00	6	Velocidad del viento	1.6
10702	7	Sololá	701	Sololá	1	Sololá	3	Marzo	2023-08-03T00:00:00	2024-11-08T12:00:00	7	Dirección del viento	1.61
10703	7	Sololá	701	Sololá	1	Sololá	3	Marzo	2023-08-03T00:00:00	2024-11-08T12:00:00	1	Precipitación	0
10704	7	Sololá	701	Sololá	1	Sololá	3	Marzo	2023-08-03T00:00:00	2024-11-08T12:00:00	8	Radiación solar	856
10705	7	Sololá	701	Sololá	1	Sololá	3	Marzo	2023-08-03T00:00:00	2024-11-08T13:00:00	2	Temperatura media	20.1
10706	7	Sololá	701	Sololá	1	Sololá	3	Marzo	2023-08-03T00:00:00	2024-11-08T13:00:00	4	Temperatura máxima	20.4
10707	7	Sololá	701	Sololá	1	Sololá	3	Marzo	2023-08-03T00:00:00	2024-11-08T13:00:00	3	Temperatura mínima	19.9
10708	7	Sololá	701	Sololá	1	Sololá	3	Marzo	2023-08-03T00:00:00	2024-11-08T13:00:00	5	Humedad	70
10709	7	Sololá	701	Sololá	1	Sololá	3	Marzo	2023-08-03T00:00:00	2024-11-08T13:00:00	6	Velocidad del viento	1.6
10710	7	Sololá	701	Sololá	1	Sololá	3	Marzo	2023-08-03T00:00:00	2024-11-08T13:00:00	7	Dirección del viento	1.61
10711	7	Sololá	701	Sololá	1	Sololá	3	Marzo	2023-08-03T00:00:00	2024-11-08T13:00:00	1	Precipitación	0
10712	7	Sololá	701	Sololá	1	Sololá	3	Marzo	2023-08-03T00:00:00	2024-11-08T13:00:00	8	Radiación solar	805
10713	7	Sololá	701	Sololá	1	Sololá	3	Marzo	2023-08-03T00:00:00	2024-11-08T14:00:00	2	Temperatura media	18
10714	7	Sololá	701	Sololá	1	Sololá	3	Marzo	2023-08-03T00:00:00	2024-11-08T14:00:00	4	Temperatura máxima	20.2
10715	7	Sololá	701	Sololá	1	Sololá	3	Marzo	2023-08-03T00:00:00	2024-11-08T14:00:00	3	Temperatura mínima	18
10716	7	Sololá	701	Sololá	1	Sololá	3	Marzo	2023-08-03T00:00:00	2024-11-08T14:00:00	5	Humedad	78
10717	7	Sololá	701	Sololá	1	Sololá	3	Marzo	2023-08-03T00:00:00	2024-11-08T14:00:00	6	Velocidad del viento	1.6
10718	7	Sololá	701	Sololá	1	Sololá	3	Marzo	2023-08-03T00:00:00	2024-11-08T14:00:00	7	Dirección del viento	1.61
10719	7	Sololá	701	Sololá	1	Sololá	3	Marzo	2023-08-03T00:00:00	2024-11-08T14:00:00	1	Precipitación	0
10720	7	Sololá	701	Sololá	1	Sololá	3	Marzo	2023-08-03T00:00:00	2024-11-08T14:00:00	8	Radiación solar	270
10721	7	Sololá	701	Sololá	1	Sololá	3	Marzo	2023-08-03T00:00:00	2024-11-08T15:00:00	2	Temperatura media	16.8
10722	7	Sololá	701	Sololá	1	Sololá	3	Marzo	2023-08-03T00:00:00	2024-11-08T15:00:00	4	Temperatura máxima	18
10723	7	Sololá	701	Sololá	1	Sololá	3	Marzo	2023-08-03T00:00:00	2024-11-08T15:00:00	3	Temperatura mínima	16.8
10724	7	Sololá	701	Sololá	1	Sololá	3	Marzo	2023-08-03T00:00:00	2024-11-08T15:00:00	5	Humedad	84
10725	7	Sololá	701	Sololá	1	Sololá	3	Marzo	2023-08-03T00:00:00	2024-11-08T15:00:00	6	Velocidad del viento	0
10726	7	Sololá	701	Sololá	1	Sololá	3	Marzo	2023-08-03T00:00:00	2024-11-08T15:00:00	7	Dirección del viento	0
10727	7	Sololá	701	Sololá	1	Sololá	3	Marzo	2023-08-03T00:00:00	2024-11-08T15:00:00	1	Precipitación	0
10728	7	Sololá	701	Sololá	1	Sololá	3	Marzo	2023-08-03T00:00:00	2024-11-08T15:00:00	8	Radiación solar	176
10729	7	Sololá	701	Sololá	1	Sololá	3	Marzo	2023-08-03T00:00:00	2024-11-08T16:00:00	2	Temperatura media	16.8
10730	7	Sololá	701	Sololá	1	Sololá	3	Marzo	2023-08-03T00:00:00	2024-11-08T16:00:00	4	Temperatura máxima	16.8
10731	7	Sololá	701	Sololá	1	Sololá	3	Marzo	2023-08-03T00:00:00	2024-11-08T16:00:00	3	Temperatura mínima	15.9
10732	7	Sololá	701	Sololá	1	Sololá	3	Marzo	2023-08-03T00:00:00	2024-11-08T16:00:00	5	Humedad	85
10733	7	Sololá	701	Sololá	1	Sololá	3	Marzo	2023-08-03T00:00:00	2024-11-08T16:00:00	6	Velocidad del viento	0
10734	7	Sololá	701	Sololá	1	Sololá	3	Marzo	2023-08-03T00:00:00	2024-11-08T16:00:00	7	Dirección del viento	0
10735	7	Sololá	701	Sololá	1	Sololá	3	Marzo	2023-08-03T00:00:00	2024-11-08T16:00:00	1	Precipitación	0
10736	7	Sololá	701	Sololá	1	Sololá	3	Marzo	2023-08-03T00:00:00	2024-11-08T16:00:00	8	Radiación solar	147
10737	7	Sololá	701	Sololá	1	Sololá	3	Marzo	2023-08-03T00:00:00	2024-11-08T17:00:00	2	Temperatura media	16
10738	7	Sololá	701	Sololá	1	Sololá	3	Marzo	2023-08-03T00:00:00	2024-11-08T17:00:00	4	Temperatura máxima	16.9
10739	7	Sololá	701	Sololá	1	Sololá	3	Marzo	2023-08-03T00:00:00	2024-11-08T17:00:00	3	Temperatura mínima	16
10740	7	Sololá	701	Sololá	1	Sololá	3	Marzo	2023-08-03T00:00:00	2024-11-08T17:00:00	5	Humedad	87
10741	7	Sololá	701	Sololá	1	Sololá	3	Marzo	2023-08-03T00:00:00	2024-11-08T17:00:00	6	Velocidad del viento	0
10742	7	Sololá	701	Sololá	1	Sololá	3	Marzo	2023-08-03T00:00:00	2024-11-08T17:00:00	7	Dirección del viento	0
10743	7	Sololá	701	Sololá	1	Sololá	3	Marzo	2023-08-03T00:00:00	2024-11-08T17:00:00	1	Precipitación	0
10744	7	Sololá	701	Sololá	1	Sololá	3	Marzo	2023-08-03T00:00:00	2024-11-08T17:00:00	8	Radiación solar	79
10745	7	Sololá	701	Sololá	1	Sololá	3	Marzo	2023-08-03T00:00:00	2024-11-08T18:00:00	2	Temperatura media	15.6
10746	7	Sololá	701	Sololá	1	Sololá	3	Marzo	2023-08-03T00:00:00	2024-11-08T18:00:00	4	Temperatura máxima	16.1
10747	7	Sololá	701	Sololá	1	Sololá	3	Marzo	2023-08-03T00:00:00	2024-11-08T18:00:00	3	Temperatura mínima	15.6
10748	7	Sololá	701	Sololá	1	Sololá	3	Marzo	2023-08-03T00:00:00	2024-11-08T18:00:00	5	Humedad	90
10749	7	Sololá	701	Sololá	1	Sololá	3	Marzo	2023-08-03T00:00:00	2024-11-08T18:00:00	6	Velocidad del viento	0
10750	7	Sololá	701	Sololá	1	Sololá	3	Marzo	2023-08-03T00:00:00	2024-11-08T18:00:00	7	Dirección del viento	0
10751	7	Sololá	701	Sololá	1	Sololá	3	Marzo	2023-08-03T00:00:00	2024-11-08T18:00:00	1	Precipitación	0
10752	7	Sololá	701	Sololá	1	Sololá	3	Marzo	2023-08-03T00:00:00	2024-11-08T18:00:00	8	Radiación solar	36
10753	7	Sololá	701	Sololá	1	Sololá	3	Marzo	2023-08-03T00:00:00	2024-11-08T19:00:00	2	Temperatura media	14.8
10754	7	Sololá	701	Sololá	1	Sololá	3	Marzo	2023-08-03T00:00:00	2024-11-08T19:00:00	4	Temperatura máxima	15.6
10755	7	Sololá	701	Sololá	1	Sololá	3	Marzo	2023-08-03T00:00:00	2024-11-08T19:00:00	3	Temperatura mínima	14.8
10756	7	Sololá	701	Sololá	1	Sololá	3	Marzo	2023-08-03T00:00:00	2024-11-08T19:00:00	5	Humedad	93
10757	7	Sololá	701	Sololá	1	Sololá	3	Marzo	2023-08-03T00:00:00	2024-11-08T19:00:00	6	Velocidad del viento	0
10758	7	Sololá	701	Sololá	1	Sololá	3	Marzo	2023-08-03T00:00:00	2024-11-08T19:00:00	7	Dirección del viento	0
10759	7	Sololá	701	Sololá	1	Sololá	3	Marzo	2023-08-03T00:00:00	2024-11-08T19:00:00	1	Precipitación	0
10760	7	Sololá	701	Sololá	1	Sololá	3	Marzo	2023-08-03T00:00:00	2024-11-08T19:00:00	8	Radiación solar	0
10761	7	Sololá	701	Sololá	1	Sololá	3	Marzo	2023-08-03T00:00:00	2024-11-08T20:00:00	2	Temperatura media	14.4
10762	7	Sololá	701	Sololá	1	Sololá	3	Marzo	2023-08-03T00:00:00	2024-11-08T20:00:00	4	Temperatura máxima	14.8
10763	7	Sololá	701	Sololá	1	Sololá	3	Marzo	2023-08-03T00:00:00	2024-11-08T20:00:00	3	Temperatura mínima	14.4
10764	7	Sololá	701	Sololá	1	Sololá	3	Marzo	2023-08-03T00:00:00	2024-11-08T20:00:00	5	Humedad	91
10765	7	Sololá	701	Sololá	1	Sololá	3	Marzo	2023-08-03T00:00:00	2024-11-08T20:00:00	6	Velocidad del viento	0
10766	7	Sololá	701	Sololá	1	Sololá	3	Marzo	2023-08-03T00:00:00	2024-11-08T20:00:00	7	Dirección del viento	0
10767	7	Sololá	701	Sololá	1	Sololá	3	Marzo	2023-08-03T00:00:00	2024-11-08T20:00:00	1	Precipitación	0
10768	7	Sololá	701	Sololá	1	Sololá	3	Marzo	2023-08-03T00:00:00	2024-11-08T20:00:00	8	Radiación solar	0
10769	7	Sololá	701	Sololá	1	Sololá	3	Marzo	2023-08-03T00:00:00	2024-11-08T21:00:00	2	Temperatura media	12.9
10770	7	Sololá	701	Sololá	1	Sololá	3	Marzo	2023-08-03T00:00:00	2024-11-08T21:00:00	4	Temperatura máxima	14.4
10771	7	Sololá	701	Sololá	1	Sololá	3	Marzo	2023-08-03T00:00:00	2024-11-08T21:00:00	3	Temperatura mínima	12.9
10772	7	Sololá	701	Sololá	1	Sololá	3	Marzo	2023-08-03T00:00:00	2024-11-08T21:00:00	5	Humedad	85
10773	7	Sololá	701	Sololá	1	Sololá	3	Marzo	2023-08-03T00:00:00	2024-11-08T21:00:00	6	Velocidad del viento	0
10774	7	Sololá	701	Sololá	1	Sololá	3	Marzo	2023-08-03T00:00:00	2024-11-08T21:00:00	7	Dirección del viento	0
10775	7	Sololá	701	Sololá	1	Sololá	3	Marzo	2023-08-03T00:00:00	2024-11-08T21:00:00	1	Precipitación	0
10776	7	Sololá	701	Sololá	1	Sololá	3	Marzo	2023-08-03T00:00:00	2024-11-08T21:00:00	8	Radiación solar	0
10777	7	Sololá	701	Sololá	1	Sololá	3	Marzo	2023-08-03T00:00:00	2024-11-08T22:00:00	2	Temperatura media	13.1
10778	7	Sololá	701	Sololá	1	Sololá	3	Marzo	2023-08-03T00:00:00	2024-11-08T22:00:00	4	Temperatura máxima	13.1
10779	7	Sololá	701	Sololá	1	Sololá	3	Marzo	2023-08-03T00:00:00	2024-11-08T22:00:00	3	Temperatura mínima	12.4
10780	7	Sololá	701	Sololá	1	Sololá	3	Marzo	2023-08-03T00:00:00	2024-11-08T22:00:00	5	Humedad	85
10781	7	Sololá	701	Sololá	1	Sololá	3	Marzo	2023-08-03T00:00:00	2024-11-08T22:00:00	6	Velocidad del viento	0
10782	7	Sololá	701	Sololá	1	Sololá	3	Marzo	2023-08-03T00:00:00	2024-11-08T22:00:00	7	Dirección del viento	0
10783	7	Sololá	701	Sololá	1	Sololá	3	Marzo	2023-08-03T00:00:00	2024-11-08T22:00:00	1	Precipitación	0
10784	7	Sololá	701	Sololá	1	Sololá	3	Marzo	2023-08-03T00:00:00	2024-11-08T22:00:00	8	Radiación solar	0
10785	7	Sololá	701	Sololá	1	Sololá	3	Marzo	2023-08-03T00:00:00	2024-11-08T23:00:00	2	Temperatura media	12.2
10786	7	Sololá	701	Sololá	1	Sololá	3	Marzo	2023-08-03T00:00:00	2024-11-08T23:00:00	4	Temperatura máxima	13.2
10787	7	Sololá	701	Sololá	1	Sololá	3	Marzo	2023-08-03T00:00:00	2024-11-08T23:00:00	3	Temperatura mínima	12.2
10788	7	Sololá	701	Sololá	1	Sololá	3	Marzo	2023-08-03T00:00:00	2024-11-08T23:00:00	5	Humedad	84
10789	7	Sololá	701	Sololá	1	Sololá	3	Marzo	2023-08-03T00:00:00	2024-11-08T23:00:00	6	Velocidad del viento	0
10790	7	Sololá	701	Sololá	1	Sololá	3	Marzo	2023-08-03T00:00:00	2024-11-08T23:00:00	7	Dirección del viento	0
10791	7	Sololá	701	Sololá	1	Sololá	3	Marzo	2023-08-03T00:00:00	2024-11-08T23:00:00	1	Precipitación	0
10792	7	Sololá	701	Sololá	1	Sololá	3	Marzo	2023-08-03T00:00:00	2024-11-08T23:00:00	8	Radiación solar	0
10793	7	Sololá	701	Sololá	1	Sololá	3	Marzo	2023-09-03T00:00:00	2024-11-08T00:00:00	2	Temperatura media	11
10794	7	Sololá	701	Sololá	1	Sololá	3	Marzo	2023-09-03T00:00:00	2024-11-08T00:00:00	4	Temperatura máxima	12.3
10795	7	Sololá	701	Sololá	1	Sololá	3	Marzo	2023-09-03T00:00:00	2024-11-08T00:00:00	3	Temperatura mínima	10.9
10796	7	Sololá	701	Sololá	1	Sololá	3	Marzo	2023-09-03T00:00:00	2024-11-08T00:00:00	5	Humedad	85
10797	7	Sololá	701	Sololá	1	Sololá	3	Marzo	2023-09-03T00:00:00	2024-11-08T00:00:00	6	Velocidad del viento	0
10798	7	Sololá	701	Sololá	1	Sololá	3	Marzo	2023-09-03T00:00:00	2024-11-08T00:00:00	7	Dirección del viento	0
10799	7	Sololá	701	Sololá	1	Sololá	3	Marzo	2023-09-03T00:00:00	2024-11-08T00:00:00	1	Precipitación	0
10800	7	Sololá	701	Sololá	1	Sololá	3	Marzo	2023-09-03T00:00:00	2024-11-08T00:00:00	8	Radiación solar	0
10801	7	Sololá	701	Sololá	1	Sololá	3	Marzo	2023-09-03T00:00:00	2024-11-08T01:00:00	2	Temperatura media	10.4
10802	7	Sololá	701	Sololá	1	Sololá	3	Marzo	2023-09-03T00:00:00	2024-11-08T01:00:00	4	Temperatura máxima	11
10803	7	Sololá	701	Sololá	1	Sololá	3	Marzo	2023-09-03T00:00:00	2024-11-08T01:00:00	3	Temperatura mínima	10.4
10804	7	Sololá	701	Sololá	1	Sololá	3	Marzo	2023-09-03T00:00:00	2024-11-08T01:00:00	5	Humedad	82
10805	7	Sololá	701	Sololá	1	Sololá	3	Marzo	2023-09-03T00:00:00	2024-11-08T01:00:00	6	Velocidad del viento	0
10806	7	Sololá	701	Sololá	1	Sololá	3	Marzo	2023-09-03T00:00:00	2024-11-08T01:00:00	7	Dirección del viento	0
10807	7	Sololá	701	Sololá	1	Sololá	3	Marzo	2023-09-03T00:00:00	2024-11-08T01:00:00	1	Precipitación	0
10808	7	Sololá	701	Sololá	1	Sololá	3	Marzo	2023-09-03T00:00:00	2024-11-08T01:00:00	8	Radiación solar	0
10809	7	Sololá	701	Sololá	1	Sololá	3	Marzo	2023-09-03T00:00:00	2024-11-08T02:00:00	2	Temperatura media	11.2
10810	7	Sololá	701	Sololá	1	Sololá	3	Marzo	2023-09-03T00:00:00	2024-11-08T02:00:00	4	Temperatura máxima	11.2
10811	7	Sololá	701	Sololá	1	Sololá	3	Marzo	2023-09-03T00:00:00	2024-11-08T02:00:00	3	Temperatura mínima	10.4
10812	7	Sololá	701	Sololá	1	Sololá	3	Marzo	2023-09-03T00:00:00	2024-11-08T02:00:00	5	Humedad	76
10813	7	Sololá	701	Sololá	1	Sololá	3	Marzo	2023-09-03T00:00:00	2024-11-08T02:00:00	6	Velocidad del viento	1.6
10814	7	Sololá	701	Sololá	1	Sololá	3	Marzo	2023-09-03T00:00:00	2024-11-08T02:00:00	7	Dirección del viento	1.61
10815	7	Sololá	701	Sololá	1	Sololá	3	Marzo	2023-09-03T00:00:00	2024-11-08T02:00:00	1	Precipitación	0
10816	7	Sololá	701	Sololá	1	Sololá	3	Marzo	2023-09-03T00:00:00	2024-11-08T02:00:00	8	Radiación solar	0
10817	7	Sololá	701	Sololá	1	Sololá	3	Marzo	2023-09-03T00:00:00	2024-11-08T03:00:00	2	Temperatura media	11.2
10818	7	Sololá	701	Sololá	1	Sololá	3	Marzo	2023-09-03T00:00:00	2024-11-08T03:00:00	4	Temperatura máxima	11.2
10819	7	Sololá	701	Sololá	1	Sololá	3	Marzo	2023-09-03T00:00:00	2024-11-08T03:00:00	3	Temperatura mínima	11.1
10820	7	Sololá	701	Sololá	1	Sololá	3	Marzo	2023-09-03T00:00:00	2024-11-08T03:00:00	5	Humedad	80
10821	7	Sololá	701	Sololá	1	Sololá	3	Marzo	2023-09-03T00:00:00	2024-11-08T03:00:00	6	Velocidad del viento	0
10822	7	Sololá	701	Sololá	1	Sololá	3	Marzo	2023-09-03T00:00:00	2024-11-08T03:00:00	7	Dirección del viento	0
10823	7	Sololá	701	Sololá	1	Sololá	3	Marzo	2023-09-03T00:00:00	2024-11-08T03:00:00	1	Precipitación	0
10824	7	Sololá	701	Sololá	1	Sololá	3	Marzo	2023-09-03T00:00:00	2024-11-08T03:00:00	8	Radiación solar	0
10825	7	Sololá	701	Sololá	1	Sololá	3	Marzo	2023-09-03T00:00:00	2024-11-08T04:00:00	2	Temperatura media	11.1
10826	7	Sololá	701	Sololá	1	Sololá	3	Marzo	2023-09-03T00:00:00	2024-11-08T04:00:00	4	Temperatura máxima	11.4
10827	7	Sololá	701	Sololá	1	Sololá	3	Marzo	2023-09-03T00:00:00	2024-11-08T04:00:00	3	Temperatura mínima	11.1
10828	7	Sololá	701	Sololá	1	Sololá	3	Marzo	2023-09-03T00:00:00	2024-11-08T04:00:00	5	Humedad	83
10829	7	Sololá	701	Sololá	1	Sololá	3	Marzo	2023-09-03T00:00:00	2024-11-08T04:00:00	6	Velocidad del viento	0
10830	7	Sololá	701	Sololá	1	Sololá	3	Marzo	2023-09-03T00:00:00	2024-11-08T04:00:00	7	Dirección del viento	0
10831	7	Sololá	701	Sololá	1	Sololá	3	Marzo	2023-09-03T00:00:00	2024-11-08T04:00:00	1	Precipitación	0
10832	7	Sololá	701	Sololá	1	Sololá	3	Marzo	2023-09-03T00:00:00	2024-11-08T04:00:00	8	Radiación solar	0
10833	7	Sololá	701	Sololá	1	Sololá	3	Marzo	2023-09-03T00:00:00	2024-11-08T05:00:00	2	Temperatura media	10.6
10834	7	Sololá	701	Sololá	1	Sololá	3	Marzo	2023-09-03T00:00:00	2024-11-08T05:00:00	4	Temperatura máxima	11.1
10835	7	Sololá	701	Sololá	1	Sololá	3	Marzo	2023-09-03T00:00:00	2024-11-08T05:00:00	3	Temperatura mínima	10.6
10836	7	Sololá	701	Sololá	1	Sololá	3	Marzo	2023-09-03T00:00:00	2024-11-08T05:00:00	5	Humedad	84
10837	7	Sololá	701	Sololá	1	Sololá	3	Marzo	2023-09-03T00:00:00	2024-11-08T05:00:00	6	Velocidad del viento	1.6
10838	7	Sololá	701	Sololá	1	Sololá	3	Marzo	2023-09-03T00:00:00	2024-11-08T05:00:00	7	Dirección del viento	1.61
10839	7	Sololá	701	Sololá	1	Sololá	3	Marzo	2023-09-03T00:00:00	2024-11-08T05:00:00	1	Precipitación	0
10840	7	Sololá	701	Sololá	1	Sololá	3	Marzo	2023-09-03T00:00:00	2024-11-08T05:00:00	8	Radiación solar	0
10841	7	Sololá	701	Sololá	1	Sololá	3	Marzo	2023-09-03T00:00:00	2024-11-08T06:00:00	2	Temperatura media	10.4
10842	7	Sololá	701	Sololá	1	Sololá	3	Marzo	2023-09-03T00:00:00	2024-11-08T06:00:00	4	Temperatura máxima	10.6
10843	7	Sololá	701	Sololá	1	Sololá	3	Marzo	2023-09-03T00:00:00	2024-11-08T06:00:00	3	Temperatura mínima	10.3
10844	7	Sololá	701	Sololá	1	Sololá	3	Marzo	2023-09-03T00:00:00	2024-11-08T06:00:00	5	Humedad	85
10845	7	Sololá	701	Sololá	1	Sololá	3	Marzo	2023-09-03T00:00:00	2024-11-08T06:00:00	6	Velocidad del viento	1.6
10846	7	Sololá	701	Sololá	1	Sololá	3	Marzo	2023-09-03T00:00:00	2024-11-08T06:00:00	7	Dirección del viento	1.61
10847	7	Sololá	701	Sololá	1	Sololá	3	Marzo	2023-09-03T00:00:00	2024-11-08T06:00:00	1	Precipitación	0
10848	7	Sololá	701	Sololá	1	Sololá	3	Marzo	2023-09-03T00:00:00	2024-11-08T06:00:00	8	Radiación solar	0
10849	7	Sololá	701	Sololá	1	Sololá	3	Marzo	2023-09-03T00:00:00	2024-11-08T07:00:00	2	Temperatura media	10.6
10850	7	Sololá	701	Sololá	1	Sololá	3	Marzo	2023-09-03T00:00:00	2024-11-08T07:00:00	4	Temperatura máxima	10.6
10851	7	Sololá	701	Sololá	1	Sololá	3	Marzo	2023-09-03T00:00:00	2024-11-08T07:00:00	3	Temperatura mínima	10.3
10852	7	Sololá	701	Sololá	1	Sololá	3	Marzo	2023-09-03T00:00:00	2024-11-08T07:00:00	5	Humedad	85
10853	7	Sololá	701	Sololá	1	Sololá	3	Marzo	2023-09-03T00:00:00	2024-11-08T07:00:00	6	Velocidad del viento	1.6
10854	7	Sololá	701	Sololá	1	Sololá	3	Marzo	2023-09-03T00:00:00	2024-11-08T07:00:00	7	Dirección del viento	1.61
10855	7	Sololá	701	Sololá	1	Sololá	3	Marzo	2023-09-03T00:00:00	2024-11-08T07:00:00	1	Precipitación	0
10856	7	Sololá	701	Sololá	1	Sololá	3	Marzo	2023-09-03T00:00:00	2024-11-08T07:00:00	8	Radiación solar	21
10857	7	Sololá	701	Sololá	1	Sololá	3	Marzo	2023-09-03T00:00:00	2024-11-08T08:00:00	2	Temperatura media	13
10858	7	Sololá	701	Sololá	1	Sololá	3	Marzo	2023-09-03T00:00:00	2024-11-08T08:00:00	4	Temperatura máxima	13
10859	7	Sololá	701	Sololá	1	Sololá	3	Marzo	2023-09-03T00:00:00	2024-11-08T08:00:00	3	Temperatura mínima	10.6
10860	7	Sololá	701	Sololá	1	Sololá	3	Marzo	2023-09-03T00:00:00	2024-11-08T08:00:00	5	Humedad	81
10861	7	Sololá	701	Sololá	1	Sololá	3	Marzo	2023-09-03T00:00:00	2024-11-08T08:00:00	6	Velocidad del viento	0
10862	7	Sololá	701	Sololá	1	Sololá	3	Marzo	2023-09-03T00:00:00	2024-11-08T08:00:00	7	Dirección del viento	0
10863	7	Sololá	701	Sololá	1	Sololá	3	Marzo	2023-09-03T00:00:00	2024-11-08T08:00:00	1	Precipitación	0
10864	7	Sololá	701	Sololá	1	Sololá	3	Marzo	2023-09-03T00:00:00	2024-11-08T08:00:00	8	Radiación solar	91
10865	7	Sololá	701	Sololá	1	Sololá	3	Marzo	2023-09-03T00:00:00	2024-11-08T09:00:00	2	Temperatura media	17.1
10866	7	Sololá	701	Sololá	1	Sololá	3	Marzo	2023-09-03T00:00:00	2024-11-08T09:00:00	4	Temperatura máxima	17.1
10867	7	Sololá	701	Sololá	1	Sololá	3	Marzo	2023-09-03T00:00:00	2024-11-08T09:00:00	3	Temperatura mínima	13
10868	7	Sololá	701	Sololá	1	Sololá	3	Marzo	2023-09-03T00:00:00	2024-11-08T09:00:00	5	Humedad	73
10869	7	Sololá	701	Sololá	1	Sololá	3	Marzo	2023-09-03T00:00:00	2024-11-08T09:00:00	6	Velocidad del viento	0
10870	7	Sololá	701	Sololá	1	Sololá	3	Marzo	2023-09-03T00:00:00	2024-11-08T09:00:00	7	Dirección del viento	0
10871	7	Sololá	701	Sololá	1	Sololá	3	Marzo	2023-09-03T00:00:00	2024-11-08T09:00:00	1	Precipitación	0
10872	7	Sololá	701	Sololá	1	Sololá	3	Marzo	2023-09-03T00:00:00	2024-11-08T09:00:00	8	Radiación solar	352
10873	7	Sololá	701	Sololá	1	Sololá	3	Marzo	2023-09-03T00:00:00	2024-11-08T10:00:00	2	Temperatura media	18.1
10874	7	Sololá	701	Sololá	1	Sololá	3	Marzo	2023-09-03T00:00:00	2024-11-08T10:00:00	4	Temperatura máxima	18.7
10875	7	Sololá	701	Sololá	1	Sololá	3	Marzo	2023-09-03T00:00:00	2024-11-08T10:00:00	3	Temperatura mínima	17.1
10876	7	Sololá	701	Sololá	1	Sololá	3	Marzo	2023-09-03T00:00:00	2024-11-08T10:00:00	5	Humedad	71
10877	7	Sololá	701	Sololá	1	Sololá	3	Marzo	2023-09-03T00:00:00	2024-11-08T10:00:00	6	Velocidad del viento	0
10878	7	Sololá	701	Sololá	1	Sololá	3	Marzo	2023-09-03T00:00:00	2024-11-08T10:00:00	7	Dirección del viento	0
10879	7	Sololá	701	Sololá	1	Sololá	3	Marzo	2023-09-03T00:00:00	2024-11-08T10:00:00	1	Precipitación	0
10880	7	Sololá	701	Sololá	1	Sololá	3	Marzo	2023-09-03T00:00:00	2024-11-08T10:00:00	8	Radiación solar	531
10881	7	Sololá	701	Sololá	1	Sololá	3	Marzo	2023-09-03T00:00:00	2024-11-08T11:00:00	2	Temperatura media	19.5
10882	7	Sololá	701	Sololá	1	Sololá	3	Marzo	2023-09-03T00:00:00	2024-11-08T11:00:00	4	Temperatura máxima	19.6
10883	7	Sololá	701	Sololá	1	Sololá	3	Marzo	2023-09-03T00:00:00	2024-11-08T11:00:00	3	Temperatura mínima	18.1
10884	7	Sololá	701	Sololá	1	Sololá	3	Marzo	2023-09-03T00:00:00	2024-11-08T11:00:00	5	Humedad	64
10885	7	Sololá	701	Sololá	1	Sololá	3	Marzo	2023-09-03T00:00:00	2024-11-08T11:00:00	6	Velocidad del viento	0
10886	7	Sololá	701	Sololá	1	Sololá	3	Marzo	2023-09-03T00:00:00	2024-11-08T11:00:00	7	Dirección del viento	0
10887	7	Sololá	701	Sololá	1	Sololá	3	Marzo	2023-09-03T00:00:00	2024-11-08T11:00:00	1	Precipitación	0
10888	7	Sololá	701	Sololá	1	Sololá	3	Marzo	2023-09-03T00:00:00	2024-11-08T11:00:00	8	Radiación solar	755
10889	7	Sololá	701	Sololá	1	Sololá	3	Marzo	2023-09-03T00:00:00	2024-11-08T12:00:00	2	Temperatura media	20.1
10890	7	Sololá	701	Sololá	1	Sololá	3	Marzo	2023-09-03T00:00:00	2024-11-08T12:00:00	4	Temperatura máxima	20.4
10891	7	Sololá	701	Sololá	1	Sololá	3	Marzo	2023-09-03T00:00:00	2024-11-08T12:00:00	3	Temperatura mínima	19.5
10892	7	Sololá	701	Sololá	1	Sololá	3	Marzo	2023-09-03T00:00:00	2024-11-08T12:00:00	5	Humedad	65
10893	7	Sololá	701	Sololá	1	Sololá	3	Marzo	2023-09-03T00:00:00	2024-11-08T12:00:00	6	Velocidad del viento	1.6
10894	7	Sololá	701	Sololá	1	Sololá	3	Marzo	2023-09-03T00:00:00	2024-11-08T12:00:00	7	Dirección del viento	1.61
10895	7	Sololá	701	Sololá	1	Sololá	3	Marzo	2023-09-03T00:00:00	2024-11-08T12:00:00	1	Precipitación	0
10896	7	Sololá	701	Sololá	1	Sololá	3	Marzo	2023-09-03T00:00:00	2024-11-08T12:00:00	8	Radiación solar	897
10897	7	Sololá	701	Sololá	1	Sololá	3	Marzo	2023-09-03T00:00:00	2024-11-08T13:00:00	2	Temperatura media	20.7
10898	7	Sololá	701	Sololá	1	Sololá	3	Marzo	2023-09-03T00:00:00	2024-11-08T13:00:00	4	Temperatura máxima	21.4
10899	7	Sololá	701	Sololá	1	Sololá	3	Marzo	2023-09-03T00:00:00	2024-11-08T13:00:00	3	Temperatura mínima	20.1
10900	7	Sololá	701	Sololá	1	Sololá	3	Marzo	2023-09-03T00:00:00	2024-11-08T13:00:00	5	Humedad	72
10901	7	Sololá	701	Sololá	1	Sololá	3	Marzo	2023-09-03T00:00:00	2024-11-08T13:00:00	6	Velocidad del viento	1.6
10902	7	Sololá	701	Sololá	1	Sololá	3	Marzo	2023-09-03T00:00:00	2024-11-08T13:00:00	7	Dirección del viento	1.61
10903	7	Sololá	701	Sololá	1	Sololá	3	Marzo	2023-09-03T00:00:00	2024-11-08T13:00:00	1	Precipitación	0
10904	7	Sololá	701	Sololá	1	Sololá	3	Marzo	2023-09-03T00:00:00	2024-11-08T13:00:00	8	Radiación solar	889
10905	7	Sololá	701	Sololá	1	Sololá	3	Marzo	2023-09-03T00:00:00	2024-11-08T14:00:00	2	Temperatura media	18.6
10906	7	Sololá	701	Sololá	1	Sololá	3	Marzo	2023-09-03T00:00:00	2024-11-08T14:00:00	4	Temperatura máxima	20.8
10907	7	Sololá	701	Sololá	1	Sololá	3	Marzo	2023-09-03T00:00:00	2024-11-08T14:00:00	3	Temperatura mínima	18.6
10908	7	Sololá	701	Sololá	1	Sololá	3	Marzo	2023-09-03T00:00:00	2024-11-08T14:00:00	5	Humedad	78
10909	7	Sololá	701	Sololá	1	Sololá	3	Marzo	2023-09-03T00:00:00	2024-11-08T14:00:00	6	Velocidad del viento	0
10910	7	Sololá	701	Sololá	1	Sololá	3	Marzo	2023-09-03T00:00:00	2024-11-08T14:00:00	7	Dirección del viento	0
10911	7	Sololá	701	Sololá	1	Sololá	3	Marzo	2023-09-03T00:00:00	2024-11-08T14:00:00	1	Precipitación	0
10912	7	Sololá	701	Sololá	1	Sololá	3	Marzo	2023-09-03T00:00:00	2024-11-08T14:00:00	8	Radiación solar	258
10913	7	Sololá	701	Sololá	1	Sololá	3	Marzo	2023-09-03T00:00:00	2024-11-08T15:00:00	2	Temperatura media	17.8
10914	7	Sololá	701	Sololá	1	Sololá	3	Marzo	2023-09-03T00:00:00	2024-11-08T15:00:00	4	Temperatura máxima	18.6
10915	7	Sololá	701	Sololá	1	Sololá	3	Marzo	2023-09-03T00:00:00	2024-11-08T15:00:00	3	Temperatura mínima	17.8
10916	7	Sololá	701	Sololá	1	Sololá	3	Marzo	2023-09-03T00:00:00	2024-11-08T15:00:00	5	Humedad	81
10917	7	Sololá	701	Sololá	1	Sololá	3	Marzo	2023-09-03T00:00:00	2024-11-08T15:00:00	6	Velocidad del viento	0
10918	7	Sololá	701	Sololá	1	Sololá	3	Marzo	2023-09-03T00:00:00	2024-11-08T15:00:00	7	Dirección del viento	0
10919	7	Sololá	701	Sololá	1	Sololá	3	Marzo	2023-09-03T00:00:00	2024-11-08T15:00:00	1	Precipitación	0
10920	7	Sololá	701	Sololá	1	Sololá	3	Marzo	2023-09-03T00:00:00	2024-11-08T15:00:00	8	Radiación solar	132
10921	7	Sololá	701	Sololá	1	Sololá	3	Marzo	2023-09-03T00:00:00	2024-11-08T16:00:00	2	Temperatura media	17.2
10922	7	Sololá	701	Sololá	1	Sololá	3	Marzo	2023-09-03T00:00:00	2024-11-08T16:00:00	4	Temperatura máxima	17.8
10923	7	Sololá	701	Sololá	1	Sololá	3	Marzo	2023-09-03T00:00:00	2024-11-08T16:00:00	3	Temperatura mínima	17.2
10924	7	Sololá	701	Sololá	1	Sololá	3	Marzo	2023-09-03T00:00:00	2024-11-08T16:00:00	5	Humedad	85
10925	7	Sololá	701	Sololá	1	Sololá	3	Marzo	2023-09-03T00:00:00	2024-11-08T16:00:00	6	Velocidad del viento	0
10926	7	Sololá	701	Sololá	1	Sololá	3	Marzo	2023-09-03T00:00:00	2024-11-08T16:00:00	7	Dirección del viento	0
10927	7	Sololá	701	Sololá	1	Sololá	3	Marzo	2023-09-03T00:00:00	2024-11-08T16:00:00	1	Precipitación	0
10928	7	Sololá	701	Sololá	1	Sololá	3	Marzo	2023-09-03T00:00:00	2024-11-08T16:00:00	8	Radiación solar	77
10929	7	Sololá	701	Sololá	1	Sololá	3	Marzo	2023-09-03T00:00:00	2024-11-08T17:00:00	2	Temperatura media	17
10930	7	Sololá	701	Sololá	1	Sololá	3	Marzo	2023-09-03T00:00:00	2024-11-08T17:00:00	4	Temperatura máxima	17.3
10931	7	Sololá	701	Sololá	1	Sololá	3	Marzo	2023-09-03T00:00:00	2024-11-08T17:00:00	3	Temperatura mínima	16.9
10932	7	Sololá	701	Sololá	1	Sololá	3	Marzo	2023-09-03T00:00:00	2024-11-08T17:00:00	5	Humedad	86
10933	7	Sololá	701	Sololá	1	Sololá	3	Marzo	2023-09-03T00:00:00	2024-11-08T17:00:00	6	Velocidad del viento	0
10934	7	Sololá	701	Sololá	1	Sololá	3	Marzo	2023-09-03T00:00:00	2024-11-08T17:00:00	7	Dirección del viento	0
10935	7	Sololá	701	Sololá	1	Sololá	3	Marzo	2023-09-03T00:00:00	2024-11-08T17:00:00	1	Precipitación	0
10936	7	Sololá	701	Sololá	1	Sololá	3	Marzo	2023-09-03T00:00:00	2024-11-08T17:00:00	8	Radiación solar	63
10937	7	Sololá	701	Sololá	1	Sololá	3	Marzo	2023-09-03T00:00:00	2024-11-08T18:00:00	2	Temperatura media	16.6
10938	7	Sololá	701	Sololá	1	Sololá	3	Marzo	2023-09-03T00:00:00	2024-11-08T18:00:00	4	Temperatura máxima	17.2
10939	7	Sololá	701	Sololá	1	Sololá	3	Marzo	2023-09-03T00:00:00	2024-11-08T18:00:00	3	Temperatura mínima	16.6
10940	7	Sololá	701	Sololá	1	Sololá	3	Marzo	2023-09-03T00:00:00	2024-11-08T18:00:00	5	Humedad	86
10941	7	Sololá	701	Sololá	1	Sololá	3	Marzo	2023-09-03T00:00:00	2024-11-08T18:00:00	6	Velocidad del viento	0
10942	7	Sololá	701	Sololá	1	Sololá	3	Marzo	2023-09-03T00:00:00	2024-11-08T18:00:00	7	Dirección del viento	0
10943	7	Sololá	701	Sololá	1	Sololá	3	Marzo	2023-09-03T00:00:00	2024-11-08T18:00:00	1	Precipitación	0
10944	7	Sololá	701	Sololá	1	Sololá	3	Marzo	2023-09-03T00:00:00	2024-11-08T18:00:00	8	Radiación solar	52
10945	7	Sololá	701	Sololá	1	Sololá	3	Marzo	2023-09-03T00:00:00	2024-11-08T19:00:00	2	Temperatura media	15.9
10946	7	Sololá	701	Sololá	1	Sololá	3	Marzo	2023-09-03T00:00:00	2024-11-08T19:00:00	4	Temperatura máxima	16.6
10947	7	Sololá	701	Sololá	1	Sololá	3	Marzo	2023-09-03T00:00:00	2024-11-08T19:00:00	3	Temperatura mínima	15.9
10948	7	Sololá	701	Sololá	1	Sololá	3	Marzo	2023-09-03T00:00:00	2024-11-08T19:00:00	5	Humedad	91
10949	7	Sololá	701	Sololá	1	Sololá	3	Marzo	2023-09-03T00:00:00	2024-11-08T19:00:00	6	Velocidad del viento	0
10950	7	Sololá	701	Sololá	1	Sololá	3	Marzo	2023-09-03T00:00:00	2024-11-08T19:00:00	7	Dirección del viento	0
10951	7	Sololá	701	Sololá	1	Sololá	3	Marzo	2023-09-03T00:00:00	2024-11-08T19:00:00	1	Precipitación	0
10952	7	Sololá	701	Sololá	1	Sololá	3	Marzo	2023-09-03T00:00:00	2024-11-08T19:00:00	8	Radiación solar	0
10953	7	Sololá	701	Sololá	1	Sololá	3	Marzo	2023-09-03T00:00:00	2024-11-08T20:00:00	2	Temperatura media	15.5
10954	7	Sololá	701	Sololá	1	Sololá	3	Marzo	2023-09-03T00:00:00	2024-11-08T20:00:00	4	Temperatura máxima	15.9
10955	7	Sololá	701	Sololá	1	Sololá	3	Marzo	2023-09-03T00:00:00	2024-11-08T20:00:00	3	Temperatura mínima	15.5
10956	7	Sololá	701	Sololá	1	Sololá	3	Marzo	2023-09-03T00:00:00	2024-11-08T20:00:00	5	Humedad	92
10957	7	Sololá	701	Sololá	1	Sololá	3	Marzo	2023-09-03T00:00:00	2024-11-08T20:00:00	6	Velocidad del viento	0
10958	7	Sololá	701	Sololá	1	Sololá	3	Marzo	2023-09-03T00:00:00	2024-11-08T20:00:00	7	Dirección del viento	0
10959	7	Sololá	701	Sololá	1	Sololá	3	Marzo	2023-09-03T00:00:00	2024-11-08T20:00:00	1	Precipitación	0
10960	7	Sololá	701	Sololá	1	Sololá	3	Marzo	2023-09-03T00:00:00	2024-11-08T20:00:00	8	Radiación solar	0
10961	7	Sololá	701	Sololá	1	Sololá	3	Marzo	2023-09-03T00:00:00	2024-11-08T21:00:00	2	Temperatura media	14.6
10962	7	Sololá	701	Sololá	1	Sololá	3	Marzo	2023-09-03T00:00:00	2024-11-08T21:00:00	4	Temperatura máxima	15.5
10963	7	Sololá	701	Sololá	1	Sololá	3	Marzo	2023-09-03T00:00:00	2024-11-08T21:00:00	3	Temperatura mínima	14.6
10964	7	Sololá	701	Sololá	1	Sololá	3	Marzo	2023-09-03T00:00:00	2024-11-08T21:00:00	5	Humedad	82
10965	7	Sololá	701	Sololá	1	Sololá	3	Marzo	2023-09-03T00:00:00	2024-11-08T21:00:00	6	Velocidad del viento	0
10966	7	Sololá	701	Sololá	1	Sololá	3	Marzo	2023-09-03T00:00:00	2024-11-08T21:00:00	7	Dirección del viento	0
10967	7	Sololá	701	Sololá	1	Sololá	3	Marzo	2023-09-03T00:00:00	2024-11-08T21:00:00	1	Precipitación	0
10968	7	Sololá	701	Sololá	1	Sololá	3	Marzo	2023-09-03T00:00:00	2024-11-08T21:00:00	8	Radiación solar	0
10969	7	Sololá	701	Sololá	1	Sololá	3	Marzo	2023-09-03T00:00:00	2024-11-08T22:00:00	2	Temperatura media	13.5
10970	7	Sololá	701	Sololá	1	Sololá	3	Marzo	2023-09-03T00:00:00	2024-11-08T22:00:00	4	Temperatura máxima	14.6
10971	7	Sololá	701	Sololá	1	Sololá	3	Marzo	2023-09-03T00:00:00	2024-11-08T22:00:00	3	Temperatura mínima	13.5
10972	7	Sololá	701	Sololá	1	Sololá	3	Marzo	2023-09-03T00:00:00	2024-11-08T22:00:00	5	Humedad	81
10973	7	Sololá	701	Sololá	1	Sololá	3	Marzo	2023-09-03T00:00:00	2024-11-08T22:00:00	6	Velocidad del viento	0
10974	7	Sololá	701	Sololá	1	Sololá	3	Marzo	2023-09-03T00:00:00	2024-11-08T22:00:00	7	Dirección del viento	0
10975	7	Sololá	701	Sololá	1	Sololá	3	Marzo	2023-09-03T00:00:00	2024-11-08T22:00:00	1	Precipitación	0
10976	7	Sololá	701	Sololá	1	Sololá	3	Marzo	2023-09-03T00:00:00	2024-11-08T22:00:00	8	Radiación solar	0
10977	7	Sololá	701	Sololá	1	Sololá	3	Marzo	2023-09-03T00:00:00	2024-11-08T23:00:00	2	Temperatura media	12.3
10978	7	Sololá	701	Sololá	1	Sololá	3	Marzo	2023-09-03T00:00:00	2024-11-08T23:00:00	4	Temperatura máxima	13.5
10979	7	Sololá	701	Sololá	1	Sololá	3	Marzo	2023-09-03T00:00:00	2024-11-08T23:00:00	3	Temperatura mínima	12.3
10980	7	Sololá	701	Sololá	1	Sololá	3	Marzo	2023-09-03T00:00:00	2024-11-08T23:00:00	5	Humedad	85
10981	7	Sololá	701	Sololá	1	Sololá	3	Marzo	2023-09-03T00:00:00	2024-11-08T23:00:00	6	Velocidad del viento	0
10982	7	Sololá	701	Sololá	1	Sololá	3	Marzo	2023-09-03T00:00:00	2024-11-08T23:00:00	7	Dirección del viento	0
10983	7	Sololá	701	Sololá	1	Sololá	3	Marzo	2023-09-03T00:00:00	2024-11-08T23:00:00	1	Precipitación	0
10984	7	Sololá	701	Sololá	1	Sololá	3	Marzo	2023-09-03T00:00:00	2024-11-08T23:00:00	8	Radiación solar	0
10985	7	Sololá	701	Sololá	1	Sololá	3	Marzo	2023-10-03T00:00:00	2024-11-08T00:00:00	2	Temperatura media	11.9
10986	7	Sololá	701	Sololá	1	Sololá	3	Marzo	2023-10-03T00:00:00	2024-11-08T00:00:00	4	Temperatura máxima	12.3
10987	7	Sololá	701	Sololá	1	Sololá	3	Marzo	2023-10-03T00:00:00	2024-11-08T00:00:00	3	Temperatura mínima	11.8
10988	7	Sololá	701	Sololá	1	Sololá	3	Marzo	2023-10-03T00:00:00	2024-11-08T00:00:00	5	Humedad	85
10989	7	Sololá	701	Sololá	1	Sololá	3	Marzo	2023-10-03T00:00:00	2024-11-08T00:00:00	6	Velocidad del viento	0
10990	7	Sololá	701	Sololá	1	Sololá	3	Marzo	2023-10-03T00:00:00	2024-11-08T00:00:00	7	Dirección del viento	0
10991	7	Sololá	701	Sololá	1	Sololá	3	Marzo	2023-10-03T00:00:00	2024-11-08T00:00:00	1	Precipitación	0
10992	7	Sololá	701	Sololá	1	Sololá	3	Marzo	2023-10-03T00:00:00	2024-11-08T00:00:00	8	Radiación solar	0
10993	7	Sololá	701	Sololá	1	Sololá	3	Marzo	2023-10-03T00:00:00	2024-11-08T01:00:00	2	Temperatura media	11
10994	7	Sololá	701	Sololá	1	Sololá	3	Marzo	2023-10-03T00:00:00	2024-11-08T01:00:00	4	Temperatura máxima	11.8
10995	7	Sololá	701	Sololá	1	Sololá	3	Marzo	2023-10-03T00:00:00	2024-11-08T01:00:00	3	Temperatura mínima	11
10996	7	Sololá	701	Sololá	1	Sololá	3	Marzo	2023-10-03T00:00:00	2024-11-08T01:00:00	5	Humedad	86
10997	7	Sololá	701	Sololá	1	Sololá	3	Marzo	2023-10-03T00:00:00	2024-11-08T01:00:00	6	Velocidad del viento	0
10998	7	Sololá	701	Sololá	1	Sololá	3	Marzo	2023-10-03T00:00:00	2024-11-08T01:00:00	7	Dirección del viento	0
10999	7	Sololá	701	Sololá	1	Sololá	3	Marzo	2023-10-03T00:00:00	2024-11-08T01:00:00	1	Precipitación	0
11000	7	Sololá	701	Sololá	1	Sololá	3	Marzo	2023-10-03T00:00:00	2024-11-08T01:00:00	8	Radiación solar	0
11001	7	Sololá	701	Sololá	1	Sololá	3	Marzo	2023-10-03T00:00:00	2024-11-08T02:00:00	2	Temperatura media	10.9
11002	7	Sololá	701	Sololá	1	Sololá	3	Marzo	2023-10-03T00:00:00	2024-11-08T02:00:00	4	Temperatura máxima	11.1
11003	7	Sololá	701	Sololá	1	Sololá	3	Marzo	2023-10-03T00:00:00	2024-11-08T02:00:00	3	Temperatura mínima	10.8
11004	7	Sololá	701	Sololá	1	Sololá	3	Marzo	2023-10-03T00:00:00	2024-11-08T02:00:00	5	Humedad	86
11005	7	Sololá	701	Sololá	1	Sololá	3	Marzo	2023-10-03T00:00:00	2024-11-08T02:00:00	6	Velocidad del viento	0
11006	7	Sololá	701	Sololá	1	Sololá	3	Marzo	2023-10-03T00:00:00	2024-11-08T02:00:00	7	Dirección del viento	0
11007	7	Sololá	701	Sololá	1	Sololá	3	Marzo	2023-10-03T00:00:00	2024-11-08T02:00:00	1	Precipitación	0
11008	7	Sololá	701	Sololá	1	Sololá	3	Marzo	2023-10-03T00:00:00	2024-11-08T02:00:00	8	Radiación solar	0
11009	7	Sololá	701	Sololá	1	Sololá	3	Marzo	2023-10-03T00:00:00	2024-11-08T03:00:00	2	Temperatura media	10.4
11010	7	Sololá	701	Sololá	1	Sololá	3	Marzo	2023-10-03T00:00:00	2024-11-08T03:00:00	4	Temperatura máxima	10.9
11011	7	Sololá	701	Sololá	1	Sololá	3	Marzo	2023-10-03T00:00:00	2024-11-08T03:00:00	3	Temperatura mínima	10.3
11012	7	Sololá	701	Sololá	1	Sololá	3	Marzo	2023-10-03T00:00:00	2024-11-08T03:00:00	5	Humedad	89
11013	7	Sololá	701	Sololá	1	Sololá	3	Marzo	2023-10-03T00:00:00	2024-11-08T03:00:00	6	Velocidad del viento	0
11014	7	Sololá	701	Sololá	1	Sololá	3	Marzo	2023-10-03T00:00:00	2024-11-08T03:00:00	7	Dirección del viento	0
11015	7	Sololá	701	Sololá	1	Sololá	3	Marzo	2023-10-03T00:00:00	2024-11-08T03:00:00	1	Precipitación	0
11016	7	Sololá	701	Sololá	1	Sololá	3	Marzo	2023-10-03T00:00:00	2024-11-08T03:00:00	8	Radiación solar	0
11017	7	Sololá	701	Sololá	1	Sololá	3	Marzo	2023-10-03T00:00:00	2024-11-08T04:00:00	2	Temperatura media	10.6
11018	7	Sololá	701	Sololá	1	Sololá	3	Marzo	2023-10-03T00:00:00	2024-11-08T04:00:00	4	Temperatura máxima	10.7
11019	7	Sololá	701	Sololá	1	Sololá	3	Marzo	2023-10-03T00:00:00	2024-11-08T04:00:00	3	Temperatura mínima	10.3
11020	7	Sololá	701	Sololá	1	Sololá	3	Marzo	2023-10-03T00:00:00	2024-11-08T04:00:00	5	Humedad	88
11021	7	Sololá	701	Sololá	1	Sololá	3	Marzo	2023-10-03T00:00:00	2024-11-08T04:00:00	6	Velocidad del viento	0
11022	7	Sololá	701	Sololá	1	Sololá	3	Marzo	2023-10-03T00:00:00	2024-11-08T04:00:00	7	Dirección del viento	0
11023	7	Sololá	701	Sololá	1	Sololá	3	Marzo	2023-10-03T00:00:00	2024-11-08T04:00:00	1	Precipitación	0
11024	7	Sololá	701	Sololá	1	Sololá	3	Marzo	2023-10-03T00:00:00	2024-11-08T04:00:00	8	Radiación solar	0
11025	7	Sololá	701	Sololá	1	Sololá	3	Marzo	2023-10-03T00:00:00	2024-11-08T05:00:00	2	Temperatura media	10.3
11026	7	Sololá	701	Sololá	1	Sololá	3	Marzo	2023-10-03T00:00:00	2024-11-08T05:00:00	4	Temperatura máxima	10.6
11027	7	Sololá	701	Sololá	1	Sololá	3	Marzo	2023-10-03T00:00:00	2024-11-08T05:00:00	3	Temperatura mínima	10.3
11028	7	Sololá	701	Sololá	1	Sololá	3	Marzo	2023-10-03T00:00:00	2024-11-08T05:00:00	5	Humedad	88
11029	7	Sololá	701	Sololá	1	Sololá	3	Marzo	2023-10-03T00:00:00	2024-11-08T05:00:00	6	Velocidad del viento	0
11030	7	Sololá	701	Sololá	1	Sololá	3	Marzo	2023-10-03T00:00:00	2024-11-08T05:00:00	7	Dirección del viento	0
11031	7	Sololá	701	Sololá	1	Sololá	3	Marzo	2023-10-03T00:00:00	2024-11-08T05:00:00	1	Precipitación	0
11032	7	Sololá	701	Sololá	1	Sololá	3	Marzo	2023-10-03T00:00:00	2024-11-08T05:00:00	8	Radiación solar	0
11033	7	Sololá	701	Sololá	1	Sololá	3	Marzo	2023-10-03T00:00:00	2024-11-08T06:00:00	2	Temperatura media	10.9
11034	7	Sololá	701	Sololá	1	Sololá	3	Marzo	2023-10-03T00:00:00	2024-11-08T06:00:00	4	Temperatura máxima	10.9
11035	7	Sololá	701	Sololá	1	Sololá	3	Marzo	2023-10-03T00:00:00	2024-11-08T06:00:00	3	Temperatura mínima	10
11036	7	Sololá	701	Sololá	1	Sololá	3	Marzo	2023-10-03T00:00:00	2024-11-08T06:00:00	5	Humedad	87
11037	7	Sololá	701	Sololá	1	Sololá	3	Marzo	2023-10-03T00:00:00	2024-11-08T06:00:00	6	Velocidad del viento	0
11038	7	Sololá	701	Sololá	1	Sololá	3	Marzo	2023-10-03T00:00:00	2024-11-08T06:00:00	7	Dirección del viento	0
11039	7	Sololá	701	Sololá	1	Sololá	3	Marzo	2023-10-03T00:00:00	2024-11-08T06:00:00	1	Precipitación	0
11040	7	Sololá	701	Sololá	1	Sololá	3	Marzo	2023-10-03T00:00:00	2024-11-08T06:00:00	8	Radiación solar	0
11041	7	Sololá	701	Sololá	1	Sololá	3	Marzo	2023-10-03T00:00:00	2024-11-08T07:00:00	2	Temperatura media	11.2
11042	7	Sololá	701	Sololá	1	Sololá	3	Marzo	2023-10-03T00:00:00	2024-11-08T07:00:00	4	Temperatura máxima	11.2
11043	7	Sololá	701	Sololá	1	Sololá	3	Marzo	2023-10-03T00:00:00	2024-11-08T07:00:00	3	Temperatura mínima	10.9
11044	7	Sololá	701	Sololá	1	Sololá	3	Marzo	2023-10-03T00:00:00	2024-11-08T07:00:00	5	Humedad	87
11045	7	Sololá	701	Sololá	1	Sololá	3	Marzo	2023-10-03T00:00:00	2024-11-08T07:00:00	6	Velocidad del viento	0
11046	7	Sololá	701	Sololá	1	Sololá	3	Marzo	2023-10-03T00:00:00	2024-11-08T07:00:00	7	Dirección del viento	0
11047	7	Sololá	701	Sololá	1	Sololá	3	Marzo	2023-10-03T00:00:00	2024-11-08T07:00:00	1	Precipitación	0
11048	7	Sololá	701	Sololá	1	Sololá	3	Marzo	2023-10-03T00:00:00	2024-11-08T07:00:00	8	Radiación solar	10
11049	7	Sololá	701	Sololá	1	Sololá	3	Marzo	2023-10-03T00:00:00	2024-11-08T08:00:00	2	Temperatura media	12.3
11050	7	Sololá	701	Sololá	1	Sololá	3	Marzo	2023-10-03T00:00:00	2024-11-08T08:00:00	4	Temperatura máxima	12.3
11051	7	Sololá	701	Sololá	1	Sololá	3	Marzo	2023-10-03T00:00:00	2024-11-08T08:00:00	3	Temperatura mínima	11.2
11052	7	Sololá	701	Sololá	1	Sololá	3	Marzo	2023-10-03T00:00:00	2024-11-08T08:00:00	5	Humedad	82
11053	7	Sololá	701	Sololá	1	Sololá	3	Marzo	2023-10-03T00:00:00	2024-11-08T08:00:00	6	Velocidad del viento	0
11054	7	Sololá	701	Sololá	1	Sololá	3	Marzo	2023-10-03T00:00:00	2024-11-08T08:00:00	7	Dirección del viento	0
11055	7	Sololá	701	Sololá	1	Sololá	3	Marzo	2023-10-03T00:00:00	2024-11-08T08:00:00	1	Precipitación	0
11056	7	Sololá	701	Sololá	1	Sololá	3	Marzo	2023-10-03T00:00:00	2024-11-08T08:00:00	8	Radiación solar	68
11057	7	Sololá	701	Sololá	1	Sololá	3	Marzo	2023-10-03T00:00:00	2024-11-08T09:00:00	2	Temperatura media	14.7
11058	7	Sololá	701	Sololá	1	Sololá	3	Marzo	2023-10-03T00:00:00	2024-11-08T09:00:00	4	Temperatura máxima	14.8
11059	7	Sololá	701	Sololá	1	Sololá	3	Marzo	2023-10-03T00:00:00	2024-11-08T09:00:00	3	Temperatura mínima	12.3
11060	7	Sololá	701	Sololá	1	Sololá	3	Marzo	2023-10-03T00:00:00	2024-11-08T09:00:00	5	Humedad	85
11061	7	Sololá	701	Sololá	1	Sololá	3	Marzo	2023-10-03T00:00:00	2024-11-08T09:00:00	6	Velocidad del viento	0
11062	7	Sololá	701	Sololá	1	Sololá	3	Marzo	2023-10-03T00:00:00	2024-11-08T09:00:00	7	Dirección del viento	0
11063	7	Sololá	701	Sololá	1	Sololá	3	Marzo	2023-10-03T00:00:00	2024-11-08T09:00:00	1	Precipitación	0
11064	7	Sololá	701	Sololá	1	Sololá	3	Marzo	2023-10-03T00:00:00	2024-11-08T09:00:00	8	Radiación solar	173
11065	7	Sololá	701	Sololá	1	Sololá	3	Marzo	2023-10-03T00:00:00	2024-11-08T10:00:00	2	Temperatura media	14.8
11066	7	Sololá	701	Sololá	1	Sololá	3	Marzo	2023-10-03T00:00:00	2024-11-08T10:00:00	4	Temperatura máxima	14.8
11067	7	Sololá	701	Sololá	1	Sololá	3	Marzo	2023-10-03T00:00:00	2024-11-08T10:00:00	3	Temperatura mínima	14.5
11068	7	Sololá	701	Sololá	1	Sololá	3	Marzo	2023-10-03T00:00:00	2024-11-08T10:00:00	5	Humedad	86
11069	7	Sololá	701	Sololá	1	Sololá	3	Marzo	2023-10-03T00:00:00	2024-11-08T10:00:00	6	Velocidad del viento	0
11070	7	Sololá	701	Sololá	1	Sololá	3	Marzo	2023-10-03T00:00:00	2024-11-08T10:00:00	7	Dirección del viento	0
11071	7	Sololá	701	Sololá	1	Sololá	3	Marzo	2023-10-03T00:00:00	2024-11-08T10:00:00	1	Precipitación	0
11072	7	Sololá	701	Sololá	1	Sololá	3	Marzo	2023-10-03T00:00:00	2024-11-08T10:00:00	8	Radiación solar	125
11073	7	Sololá	701	Sololá	1	Sololá	3	Marzo	2023-10-03T00:00:00	2024-11-08T11:00:00	2	Temperatura media	15.6
11074	7	Sololá	701	Sololá	1	Sololá	3	Marzo	2023-10-03T00:00:00	2024-11-08T11:00:00	4	Temperatura máxima	16.2
11075	7	Sololá	701	Sololá	1	Sololá	3	Marzo	2023-10-03T00:00:00	2024-11-08T11:00:00	3	Temperatura mínima	14.8
11076	7	Sololá	701	Sololá	1	Sololá	3	Marzo	2023-10-03T00:00:00	2024-11-08T11:00:00	5	Humedad	80
11077	7	Sololá	701	Sololá	1	Sololá	3	Marzo	2023-10-03T00:00:00	2024-11-08T11:00:00	6	Velocidad del viento	0
11078	7	Sololá	701	Sololá	1	Sololá	3	Marzo	2023-10-03T00:00:00	2024-11-08T11:00:00	7	Dirección del viento	0
11079	7	Sololá	701	Sololá	1	Sololá	3	Marzo	2023-10-03T00:00:00	2024-11-08T11:00:00	1	Precipitación	0
11080	7	Sololá	701	Sololá	1	Sololá	3	Marzo	2023-10-03T00:00:00	2024-11-08T11:00:00	8	Radiación solar	222
11081	7	Sololá	701	Sololá	1	Sololá	3	Marzo	2023-10-03T00:00:00	2024-11-08T12:00:00	2	Temperatura media	14.4
11082	7	Sololá	701	Sololá	1	Sololá	3	Marzo	2023-10-03T00:00:00	2024-11-08T12:00:00	4	Temperatura máxima	15.6
11083	7	Sololá	701	Sololá	1	Sololá	3	Marzo	2023-10-03T00:00:00	2024-11-08T12:00:00	3	Temperatura mínima	14.4
11084	7	Sololá	701	Sololá	1	Sololá	3	Marzo	2023-10-03T00:00:00	2024-11-08T12:00:00	5	Humedad	87
11085	7	Sololá	701	Sololá	1	Sololá	3	Marzo	2023-10-03T00:00:00	2024-11-08T12:00:00	6	Velocidad del viento	0
11086	7	Sololá	701	Sololá	1	Sololá	3	Marzo	2023-10-03T00:00:00	2024-11-08T12:00:00	7	Dirección del viento	0
11087	7	Sololá	701	Sololá	1	Sololá	3	Marzo	2023-10-03T00:00:00	2024-11-08T12:00:00	1	Precipitación	0
11088	7	Sololá	701	Sololá	1	Sololá	3	Marzo	2023-10-03T00:00:00	2024-11-08T12:00:00	8	Radiación solar	73
11089	7	Sololá	701	Sololá	1	Sololá	3	Marzo	2023-10-03T00:00:00	2024-11-08T13:00:00	2	Temperatura media	15.2
11090	7	Sololá	701	Sololá	1	Sololá	3	Marzo	2023-10-03T00:00:00	2024-11-08T13:00:00	4	Temperatura máxima	15.3
11091	7	Sololá	701	Sololá	1	Sololá	3	Marzo	2023-10-03T00:00:00	2024-11-08T13:00:00	3	Temperatura mínima	14.3
11092	7	Sololá	701	Sololá	1	Sololá	3	Marzo	2023-10-03T00:00:00	2024-11-08T13:00:00	5	Humedad	86
11093	7	Sololá	701	Sololá	1	Sololá	3	Marzo	2023-10-03T00:00:00	2024-11-08T13:00:00	6	Velocidad del viento	0
11094	7	Sololá	701	Sololá	1	Sololá	3	Marzo	2023-10-03T00:00:00	2024-11-08T13:00:00	7	Dirección del viento	0
11095	7	Sololá	701	Sololá	1	Sololá	3	Marzo	2023-10-03T00:00:00	2024-11-08T13:00:00	1	Precipitación	0
11096	7	Sololá	701	Sololá	1	Sololá	3	Marzo	2023-10-03T00:00:00	2024-11-08T13:00:00	8	Radiación solar	145
11097	7	Sololá	701	Sololá	1	Sololá	3	Marzo	2023-10-03T00:00:00	2024-11-08T14:00:00	2	Temperatura media	17.3
11098	7	Sololá	701	Sololá	1	Sololá	3	Marzo	2023-10-03T00:00:00	2024-11-08T14:00:00	4	Temperatura máxima	17.3
11099	7	Sololá	701	Sololá	1	Sololá	3	Marzo	2023-10-03T00:00:00	2024-11-08T14:00:00	3	Temperatura mínima	15.2
11100	7	Sololá	701	Sololá	1	Sololá	3	Marzo	2023-10-03T00:00:00	2024-11-08T14:00:00	5	Humedad	79
11101	7	Sololá	701	Sololá	1	Sololá	3	Marzo	2023-10-03T00:00:00	2024-11-08T14:00:00	6	Velocidad del viento	0
11102	7	Sololá	701	Sololá	1	Sololá	3	Marzo	2023-10-03T00:00:00	2024-11-08T14:00:00	7	Dirección del viento	0
11103	7	Sololá	701	Sololá	1	Sololá	3	Marzo	2023-10-03T00:00:00	2024-11-08T14:00:00	1	Precipitación	0
11104	7	Sololá	701	Sololá	1	Sololá	3	Marzo	2023-10-03T00:00:00	2024-11-08T14:00:00	8	Radiación solar	237
11105	7	Sololá	701	Sololá	1	Sololá	3	Marzo	2023-10-03T00:00:00	2024-11-08T15:00:00	2	Temperatura media	17.3
11106	7	Sololá	701	Sololá	1	Sololá	3	Marzo	2023-10-03T00:00:00	2024-11-08T15:00:00	4	Temperatura máxima	18.1
11107	7	Sololá	701	Sololá	1	Sololá	3	Marzo	2023-10-03T00:00:00	2024-11-08T15:00:00	3	Temperatura mínima	17.2
11108	7	Sololá	701	Sololá	1	Sololá	3	Marzo	2023-10-03T00:00:00	2024-11-08T15:00:00	5	Humedad	79
11109	7	Sololá	701	Sololá	1	Sololá	3	Marzo	2023-10-03T00:00:00	2024-11-08T15:00:00	6	Velocidad del viento	0
11110	7	Sololá	701	Sololá	1	Sololá	3	Marzo	2023-10-03T00:00:00	2024-11-08T15:00:00	7	Dirección del viento	0
11111	7	Sololá	701	Sololá	1	Sololá	3	Marzo	2023-10-03T00:00:00	2024-11-08T15:00:00	1	Precipitación	0
11112	7	Sololá	701	Sololá	1	Sololá	3	Marzo	2023-10-03T00:00:00	2024-11-08T15:00:00	8	Radiación solar	212
11113	7	Sololá	701	Sololá	1	Sololá	3	Marzo	2023-10-03T00:00:00	2024-11-08T16:00:00	2	Temperatura media	16.3
11114	7	Sololá	701	Sololá	1	Sololá	3	Marzo	2023-10-03T00:00:00	2024-11-08T16:00:00	4	Temperatura máxima	17.8
11115	7	Sololá	701	Sololá	1	Sololá	3	Marzo	2023-10-03T00:00:00	2024-11-08T16:00:00	3	Temperatura mínima	16.3
11116	7	Sololá	701	Sololá	1	Sololá	3	Marzo	2023-10-03T00:00:00	2024-11-08T16:00:00	5	Humedad	85
11117	7	Sololá	701	Sololá	1	Sololá	3	Marzo	2023-10-03T00:00:00	2024-11-08T16:00:00	6	Velocidad del viento	0
11118	7	Sololá	701	Sololá	1	Sololá	3	Marzo	2023-10-03T00:00:00	2024-11-08T16:00:00	7	Dirección del viento	0
11119	7	Sololá	701	Sololá	1	Sololá	3	Marzo	2023-10-03T00:00:00	2024-11-08T16:00:00	1	Precipitación	0
11120	7	Sololá	701	Sololá	1	Sololá	3	Marzo	2023-10-03T00:00:00	2024-11-08T16:00:00	8	Radiación solar	129
11121	7	Sololá	701	Sololá	1	Sololá	3	Marzo	2023-10-03T00:00:00	2024-11-08T17:00:00	2	Temperatura media	15.9
11122	7	Sololá	701	Sololá	1	Sololá	3	Marzo	2023-10-03T00:00:00	2024-11-08T17:00:00	4	Temperatura máxima	16.3
11123	7	Sololá	701	Sololá	1	Sololá	3	Marzo	2023-10-03T00:00:00	2024-11-08T17:00:00	3	Temperatura mínima	15.9
11124	7	Sololá	701	Sololá	1	Sololá	3	Marzo	2023-10-03T00:00:00	2024-11-08T17:00:00	5	Humedad	87
11125	7	Sololá	701	Sololá	1	Sololá	3	Marzo	2023-10-03T00:00:00	2024-11-08T17:00:00	6	Velocidad del viento	0
11126	7	Sololá	701	Sololá	1	Sololá	3	Marzo	2023-10-03T00:00:00	2024-11-08T17:00:00	7	Dirección del viento	0
11127	7	Sololá	701	Sololá	1	Sololá	3	Marzo	2023-10-03T00:00:00	2024-11-08T17:00:00	1	Precipitación	0
11128	7	Sololá	701	Sololá	1	Sololá	3	Marzo	2023-10-03T00:00:00	2024-11-08T17:00:00	8	Radiación solar	63
11129	7	Sololá	701	Sololá	1	Sololá	3	Marzo	2023-10-03T00:00:00	2024-11-08T18:00:00	2	Temperatura media	15.4
11130	7	Sololá	701	Sololá	1	Sololá	3	Marzo	2023-10-03T00:00:00	2024-11-08T18:00:00	4	Temperatura máxima	15.9
11131	7	Sololá	701	Sololá	1	Sololá	3	Marzo	2023-10-03T00:00:00	2024-11-08T18:00:00	3	Temperatura mínima	15.4
11132	7	Sololá	701	Sololá	1	Sololá	3	Marzo	2023-10-03T00:00:00	2024-11-08T18:00:00	5	Humedad	88
11133	7	Sololá	701	Sololá	1	Sololá	3	Marzo	2023-10-03T00:00:00	2024-11-08T18:00:00	6	Velocidad del viento	0
11134	7	Sololá	701	Sololá	1	Sololá	3	Marzo	2023-10-03T00:00:00	2024-11-08T18:00:00	7	Dirección del viento	0
11135	7	Sololá	701	Sololá	1	Sololá	3	Marzo	2023-10-03T00:00:00	2024-11-08T18:00:00	1	Precipitación	0
11136	7	Sololá	701	Sololá	1	Sololá	3	Marzo	2023-10-03T00:00:00	2024-11-08T18:00:00	8	Radiación solar	27
11137	7	Sololá	701	Sololá	1	Sololá	3	Marzo	2023-10-03T00:00:00	2024-11-08T19:00:00	2	Temperatura media	14.6
11138	7	Sololá	701	Sololá	1	Sololá	3	Marzo	2023-10-03T00:00:00	2024-11-08T19:00:00	4	Temperatura máxima	15.4
11139	7	Sololá	701	Sololá	1	Sololá	3	Marzo	2023-10-03T00:00:00	2024-11-08T19:00:00	3	Temperatura mínima	14.6
11140	7	Sololá	701	Sololá	1	Sololá	3	Marzo	2023-10-03T00:00:00	2024-11-08T19:00:00	5	Humedad	92
11141	7	Sololá	701	Sololá	1	Sololá	3	Marzo	2023-10-03T00:00:00	2024-11-08T19:00:00	6	Velocidad del viento	0
11142	7	Sololá	701	Sololá	1	Sololá	3	Marzo	2023-10-03T00:00:00	2024-11-08T19:00:00	7	Dirección del viento	0
11143	7	Sololá	701	Sololá	1	Sololá	3	Marzo	2023-10-03T00:00:00	2024-11-08T19:00:00	1	Precipitación	0
11144	7	Sololá	701	Sololá	1	Sololá	3	Marzo	2023-10-03T00:00:00	2024-11-08T19:00:00	8	Radiación solar	0
11145	7	Sololá	701	Sololá	1	Sololá	3	Marzo	2023-10-03T00:00:00	2024-11-08T20:00:00	2	Temperatura media	14.3
11146	7	Sololá	701	Sololá	1	Sololá	3	Marzo	2023-10-03T00:00:00	2024-11-08T20:00:00	4	Temperatura máxima	14.6
11147	7	Sololá	701	Sololá	1	Sololá	3	Marzo	2023-10-03T00:00:00	2024-11-08T20:00:00	3	Temperatura mínima	14.3
11148	7	Sololá	701	Sololá	1	Sololá	3	Marzo	2023-10-03T00:00:00	2024-11-08T20:00:00	5	Humedad	91
11149	7	Sololá	701	Sololá	1	Sololá	3	Marzo	2023-10-03T00:00:00	2024-11-08T20:00:00	6	Velocidad del viento	0
11150	7	Sololá	701	Sololá	1	Sololá	3	Marzo	2023-10-03T00:00:00	2024-11-08T20:00:00	7	Dirección del viento	0
11151	7	Sololá	701	Sololá	1	Sololá	3	Marzo	2023-10-03T00:00:00	2024-11-08T20:00:00	1	Precipitación	0
11152	7	Sololá	701	Sololá	1	Sololá	3	Marzo	2023-10-03T00:00:00	2024-11-08T20:00:00	8	Radiación solar	0
11153	7	Sololá	701	Sololá	1	Sololá	3	Marzo	2023-10-03T00:00:00	2024-11-08T21:00:00	2	Temperatura media	13.9
11154	7	Sololá	701	Sololá	1	Sololá	3	Marzo	2023-10-03T00:00:00	2024-11-08T21:00:00	4	Temperatura máxima	14.3
11155	7	Sololá	701	Sololá	1	Sololá	3	Marzo	2023-10-03T00:00:00	2024-11-08T21:00:00	3	Temperatura mínima	13.9
11156	7	Sololá	701	Sololá	1	Sololá	3	Marzo	2023-10-03T00:00:00	2024-11-08T21:00:00	5	Humedad	91
11157	7	Sololá	701	Sololá	1	Sololá	3	Marzo	2023-10-03T00:00:00	2024-11-08T21:00:00	6	Velocidad del viento	0
11158	7	Sololá	701	Sololá	1	Sololá	3	Marzo	2023-10-03T00:00:00	2024-11-08T21:00:00	7	Dirección del viento	0
11159	7	Sololá	701	Sololá	1	Sololá	3	Marzo	2023-10-03T00:00:00	2024-11-08T21:00:00	1	Precipitación	0
11160	7	Sololá	701	Sololá	1	Sololá	3	Marzo	2023-10-03T00:00:00	2024-11-08T21:00:00	8	Radiación solar	0
11161	7	Sololá	701	Sololá	1	Sololá	3	Marzo	2023-10-03T00:00:00	2024-11-08T22:00:00	2	Temperatura media	13.2
11162	7	Sololá	701	Sololá	1	Sololá	3	Marzo	2023-10-03T00:00:00	2024-11-08T22:00:00	4	Temperatura máxima	13.9
11163	7	Sololá	701	Sololá	1	Sololá	3	Marzo	2023-10-03T00:00:00	2024-11-08T22:00:00	3	Temperatura mínima	13.2
11164	7	Sololá	701	Sololá	1	Sololá	3	Marzo	2023-10-03T00:00:00	2024-11-08T22:00:00	5	Humedad	93
11165	7	Sololá	701	Sololá	1	Sololá	3	Marzo	2023-10-03T00:00:00	2024-11-08T22:00:00	6	Velocidad del viento	0
11166	7	Sololá	701	Sololá	1	Sololá	3	Marzo	2023-10-03T00:00:00	2024-11-08T22:00:00	7	Dirección del viento	0
11167	7	Sololá	701	Sololá	1	Sololá	3	Marzo	2023-10-03T00:00:00	2024-11-08T22:00:00	1	Precipitación	0
11168	7	Sololá	701	Sololá	1	Sololá	3	Marzo	2023-10-03T00:00:00	2024-11-08T22:00:00	8	Radiación solar	0
11169	7	Sololá	701	Sololá	1	Sololá	3	Marzo	2023-10-03T00:00:00	2024-11-08T23:00:00	2	Temperatura media	12.6
11170	7	Sololá	701	Sololá	1	Sololá	3	Marzo	2023-10-03T00:00:00	2024-11-08T23:00:00	4	Temperatura máxima	13.2
11171	7	Sololá	701	Sololá	1	Sololá	3	Marzo	2023-10-03T00:00:00	2024-11-08T23:00:00	3	Temperatura mínima	12.6
11172	7	Sololá	701	Sololá	1	Sololá	3	Marzo	2023-10-03T00:00:00	2024-11-08T23:00:00	5	Humedad	93
11173	7	Sololá	701	Sololá	1	Sololá	3	Marzo	2023-10-03T00:00:00	2024-11-08T23:00:00	6	Velocidad del viento	0
11174	7	Sololá	701	Sololá	1	Sololá	3	Marzo	2023-10-03T00:00:00	2024-11-08T23:00:00	7	Dirección del viento	0
11175	7	Sololá	701	Sololá	1	Sololá	3	Marzo	2023-10-03T00:00:00	2024-11-08T23:00:00	1	Precipitación	0
11176	7	Sololá	701	Sololá	1	Sololá	3	Marzo	2023-10-03T00:00:00	2024-11-08T23:00:00	8	Radiación solar	0
11177	7	Sololá	701	Sololá	1	Sololá	3	Marzo	2023-11-03T00:00:00	2024-11-08T00:00:00	2	Temperatura media	12.8
11178	7	Sololá	701	Sololá	1	Sololá	3	Marzo	2023-11-03T00:00:00	2024-11-08T00:00:00	4	Temperatura máxima	12.8
11179	7	Sololá	701	Sololá	1	Sololá	3	Marzo	2023-11-03T00:00:00	2024-11-08T00:00:00	3	Temperatura mínima	12.6
11180	7	Sololá	701	Sololá	1	Sololá	3	Marzo	2023-11-03T00:00:00	2024-11-08T00:00:00	5	Humedad	91
11181	7	Sololá	701	Sololá	1	Sololá	3	Marzo	2023-11-03T00:00:00	2024-11-08T00:00:00	6	Velocidad del viento	0
11182	7	Sololá	701	Sololá	1	Sololá	3	Marzo	2023-11-03T00:00:00	2024-11-08T00:00:00	7	Dirección del viento	0
11183	7	Sololá	701	Sololá	1	Sololá	3	Marzo	2023-11-03T00:00:00	2024-11-08T00:00:00	1	Precipitación	0
11184	7	Sololá	701	Sololá	1	Sololá	3	Marzo	2023-11-03T00:00:00	2024-11-08T00:00:00	8	Radiación solar	0
11185	7	Sololá	701	Sololá	1	Sololá	3	Marzo	2023-11-03T00:00:00	2024-11-08T01:00:00	2	Temperatura media	12.5
11186	7	Sololá	701	Sololá	1	Sololá	3	Marzo	2023-11-03T00:00:00	2024-11-08T01:00:00	4	Temperatura máxima	13.1
11187	7	Sololá	701	Sololá	1	Sololá	3	Marzo	2023-11-03T00:00:00	2024-11-08T01:00:00	3	Temperatura mínima	12.5
11188	7	Sololá	701	Sololá	1	Sololá	3	Marzo	2023-11-03T00:00:00	2024-11-08T01:00:00	5	Humedad	91
11189	7	Sololá	701	Sololá	1	Sololá	3	Marzo	2023-11-03T00:00:00	2024-11-08T01:00:00	6	Velocidad del viento	0
11190	7	Sololá	701	Sololá	1	Sololá	3	Marzo	2023-11-03T00:00:00	2024-11-08T01:00:00	7	Dirección del viento	0
11191	7	Sololá	701	Sololá	1	Sololá	3	Marzo	2023-11-03T00:00:00	2024-11-08T01:00:00	1	Precipitación	0
11192	7	Sololá	701	Sololá	1	Sololá	3	Marzo	2023-11-03T00:00:00	2024-11-08T01:00:00	8	Radiación solar	0
11193	7	Sololá	701	Sololá	1	Sololá	3	Marzo	2023-11-03T00:00:00	2024-11-08T02:00:00	2	Temperatura media	11.9
11194	7	Sololá	701	Sololá	1	Sololá	3	Marzo	2023-11-03T00:00:00	2024-11-08T02:00:00	4	Temperatura máxima	12.6
11195	7	Sololá	701	Sololá	1	Sololá	3	Marzo	2023-11-03T00:00:00	2024-11-08T02:00:00	3	Temperatura mínima	11.9
11196	7	Sololá	701	Sololá	1	Sololá	3	Marzo	2023-11-03T00:00:00	2024-11-08T02:00:00	5	Humedad	91
11197	7	Sololá	701	Sololá	1	Sololá	3	Marzo	2023-11-03T00:00:00	2024-11-08T02:00:00	6	Velocidad del viento	0
11198	7	Sololá	701	Sololá	1	Sololá	3	Marzo	2023-11-03T00:00:00	2024-11-08T02:00:00	7	Dirección del viento	0
11199	7	Sololá	701	Sololá	1	Sololá	3	Marzo	2023-11-03T00:00:00	2024-11-08T02:00:00	1	Precipitación	0
11200	7	Sololá	701	Sololá	1	Sololá	3	Marzo	2023-11-03T00:00:00	2024-11-08T02:00:00	8	Radiación solar	0
11201	7	Sololá	701	Sololá	1	Sololá	3	Marzo	2023-11-03T00:00:00	2024-11-08T03:00:00	2	Temperatura media	11.2
11202	7	Sololá	701	Sololá	1	Sololá	3	Marzo	2023-11-03T00:00:00	2024-11-08T03:00:00	4	Temperatura máxima	11.9
11203	7	Sololá	701	Sololá	1	Sololá	3	Marzo	2023-11-03T00:00:00	2024-11-08T03:00:00	3	Temperatura mínima	11.2
11204	7	Sololá	701	Sololá	1	Sololá	3	Marzo	2023-11-03T00:00:00	2024-11-08T03:00:00	5	Humedad	89
11205	7	Sololá	701	Sololá	1	Sololá	3	Marzo	2023-11-03T00:00:00	2024-11-08T03:00:00	6	Velocidad del viento	0
11206	7	Sololá	701	Sololá	1	Sololá	3	Marzo	2023-11-03T00:00:00	2024-11-08T03:00:00	7	Dirección del viento	0
11207	7	Sololá	701	Sololá	1	Sololá	3	Marzo	2023-11-03T00:00:00	2024-11-08T03:00:00	1	Precipitación	0
11208	7	Sololá	701	Sololá	1	Sololá	3	Marzo	2023-11-03T00:00:00	2024-11-08T03:00:00	8	Radiación solar	0
11209	7	Sololá	701	Sololá	1	Sololá	3	Marzo	2023-11-03T00:00:00	2024-11-08T04:00:00	2	Temperatura media	10.9
11210	7	Sololá	701	Sololá	1	Sololá	3	Marzo	2023-11-03T00:00:00	2024-11-08T04:00:00	4	Temperatura máxima	11.3
11211	7	Sololá	701	Sololá	1	Sololá	3	Marzo	2023-11-03T00:00:00	2024-11-08T04:00:00	3	Temperatura mínima	10.9
11212	7	Sololá	701	Sololá	1	Sololá	3	Marzo	2023-11-03T00:00:00	2024-11-08T04:00:00	5	Humedad	90
11213	7	Sololá	701	Sololá	1	Sololá	3	Marzo	2023-11-03T00:00:00	2024-11-08T04:00:00	6	Velocidad del viento	1.6
11214	7	Sololá	701	Sololá	1	Sololá	3	Marzo	2023-11-03T00:00:00	2024-11-08T04:00:00	7	Dirección del viento	1.61
11215	7	Sololá	701	Sololá	1	Sololá	3	Marzo	2023-11-03T00:00:00	2024-11-08T04:00:00	1	Precipitación	0
11216	7	Sololá	701	Sololá	1	Sololá	3	Marzo	2023-11-03T00:00:00	2024-11-08T04:00:00	8	Radiación solar	0
11217	7	Sololá	701	Sololá	1	Sololá	3	Marzo	2023-11-03T00:00:00	2024-11-08T05:00:00	2	Temperatura media	11.2
11218	7	Sololá	701	Sololá	1	Sololá	3	Marzo	2023-11-03T00:00:00	2024-11-08T05:00:00	4	Temperatura máxima	11.2
11219	7	Sololá	701	Sololá	1	Sololá	3	Marzo	2023-11-03T00:00:00	2024-11-08T05:00:00	3	Temperatura mínima	10.8
11220	7	Sololá	701	Sololá	1	Sololá	3	Marzo	2023-11-03T00:00:00	2024-11-08T05:00:00	5	Humedad	90
11221	7	Sololá	701	Sololá	1	Sololá	3	Marzo	2023-11-03T00:00:00	2024-11-08T05:00:00	6	Velocidad del viento	0
11222	7	Sololá	701	Sololá	1	Sololá	3	Marzo	2023-11-03T00:00:00	2024-11-08T05:00:00	7	Dirección del viento	0
11223	7	Sololá	701	Sololá	1	Sololá	3	Marzo	2023-11-03T00:00:00	2024-11-08T05:00:00	1	Precipitación	0
11224	7	Sololá	701	Sololá	1	Sololá	3	Marzo	2023-11-03T00:00:00	2024-11-08T05:00:00	8	Radiación solar	0
11225	7	Sololá	701	Sololá	1	Sololá	3	Marzo	2023-11-03T00:00:00	2024-11-08T06:00:00	2	Temperatura media	10.9
11226	7	Sololá	701	Sololá	1	Sololá	3	Marzo	2023-11-03T00:00:00	2024-11-08T06:00:00	4	Temperatura máxima	11.2
11227	7	Sololá	701	Sololá	1	Sololá	3	Marzo	2023-11-03T00:00:00	2024-11-08T06:00:00	3	Temperatura mínima	10.8
11228	7	Sololá	701	Sololá	1	Sololá	3	Marzo	2023-11-03T00:00:00	2024-11-08T06:00:00	5	Humedad	92
11229	7	Sololá	701	Sololá	1	Sololá	3	Marzo	2023-11-03T00:00:00	2024-11-08T06:00:00	6	Velocidad del viento	0
11230	7	Sololá	701	Sololá	1	Sololá	3	Marzo	2023-11-03T00:00:00	2024-11-08T06:00:00	7	Dirección del viento	0
11231	7	Sololá	701	Sololá	1	Sololá	3	Marzo	2023-11-03T00:00:00	2024-11-08T06:00:00	1	Precipitación	0
11232	7	Sololá	701	Sololá	1	Sololá	3	Marzo	2023-11-03T00:00:00	2024-11-08T06:00:00	8	Radiación solar	0
11233	7	Sololá	701	Sololá	1	Sololá	3	Marzo	2023-11-03T00:00:00	2024-11-08T07:00:00	2	Temperatura media	11.2
11234	7	Sololá	701	Sololá	1	Sololá	3	Marzo	2023-11-03T00:00:00	2024-11-08T07:00:00	4	Temperatura máxima	11.2
11235	7	Sololá	701	Sololá	1	Sololá	3	Marzo	2023-11-03T00:00:00	2024-11-08T07:00:00	3	Temperatura mínima	10.9
11236	7	Sololá	701	Sololá	1	Sololá	3	Marzo	2023-11-03T00:00:00	2024-11-08T07:00:00	5	Humedad	89
11237	7	Sololá	701	Sololá	1	Sololá	3	Marzo	2023-11-03T00:00:00	2024-11-08T07:00:00	6	Velocidad del viento	1.6
11238	7	Sololá	701	Sololá	1	Sololá	3	Marzo	2023-11-03T00:00:00	2024-11-08T07:00:00	7	Dirección del viento	1.61
11239	7	Sololá	701	Sololá	1	Sololá	3	Marzo	2023-11-03T00:00:00	2024-11-08T07:00:00	1	Precipitación	0
11240	7	Sololá	701	Sololá	1	Sololá	3	Marzo	2023-11-03T00:00:00	2024-11-08T07:00:00	8	Radiación solar	9
11241	7	Sololá	701	Sololá	1	Sololá	3	Marzo	2023-11-03T00:00:00	2024-11-08T08:00:00	2	Temperatura media	13.3
11242	7	Sololá	701	Sololá	1	Sololá	3	Marzo	2023-11-03T00:00:00	2024-11-08T08:00:00	4	Temperatura máxima	13.3
11243	7	Sololá	701	Sololá	1	Sololá	3	Marzo	2023-11-03T00:00:00	2024-11-08T08:00:00	3	Temperatura mínima	11.2
11244	7	Sololá	701	Sololá	1	Sololá	3	Marzo	2023-11-03T00:00:00	2024-11-08T08:00:00	5	Humedad	91
11245	7	Sololá	701	Sololá	1	Sololá	3	Marzo	2023-11-03T00:00:00	2024-11-08T08:00:00	6	Velocidad del viento	0
11246	7	Sololá	701	Sololá	1	Sololá	3	Marzo	2023-11-03T00:00:00	2024-11-08T08:00:00	7	Dirección del viento	0
11247	7	Sololá	701	Sololá	1	Sololá	3	Marzo	2023-11-03T00:00:00	2024-11-08T08:00:00	1	Precipitación	0
11248	7	Sololá	701	Sololá	1	Sololá	3	Marzo	2023-11-03T00:00:00	2024-11-08T08:00:00	8	Radiación solar	84
11249	7	Sololá	701	Sololá	1	Sololá	3	Marzo	2023-11-03T00:00:00	2024-11-08T09:00:00	2	Temperatura media	15.2
11250	7	Sololá	701	Sololá	1	Sololá	3	Marzo	2023-11-03T00:00:00	2024-11-08T09:00:00	4	Temperatura máxima	15.2
11251	7	Sololá	701	Sololá	1	Sololá	3	Marzo	2023-11-03T00:00:00	2024-11-08T09:00:00	3	Temperatura mínima	13.3
11252	7	Sololá	701	Sololá	1	Sololá	3	Marzo	2023-11-03T00:00:00	2024-11-08T09:00:00	5	Humedad	88
11253	7	Sololá	701	Sololá	1	Sololá	3	Marzo	2023-11-03T00:00:00	2024-11-08T09:00:00	6	Velocidad del viento	0
11254	7	Sololá	701	Sololá	1	Sololá	3	Marzo	2023-11-03T00:00:00	2024-11-08T09:00:00	7	Dirección del viento	0
11255	7	Sololá	701	Sololá	1	Sololá	3	Marzo	2023-11-03T00:00:00	2024-11-08T09:00:00	1	Precipitación	0
11256	7	Sololá	701	Sololá	1	Sololá	3	Marzo	2023-11-03T00:00:00	2024-11-08T09:00:00	8	Radiación solar	209
11257	7	Sololá	701	Sololá	1	Sololá	3	Marzo	2023-11-03T00:00:00	2024-11-08T10:00:00	2	Temperatura media	15.6
11258	7	Sololá	701	Sololá	1	Sololá	3	Marzo	2023-11-03T00:00:00	2024-11-08T10:00:00	4	Temperatura máxima	15.6
11259	7	Sololá	701	Sololá	1	Sololá	3	Marzo	2023-11-03T00:00:00	2024-11-08T10:00:00	3	Temperatura mínima	14.9
11260	7	Sololá	701	Sololá	1	Sololá	3	Marzo	2023-11-03T00:00:00	2024-11-08T10:00:00	5	Humedad	88
11261	7	Sololá	701	Sololá	1	Sololá	3	Marzo	2023-11-03T00:00:00	2024-11-08T10:00:00	6	Velocidad del viento	0
11262	7	Sololá	701	Sololá	1	Sololá	3	Marzo	2023-11-03T00:00:00	2024-11-08T10:00:00	7	Dirección del viento	0
11263	7	Sololá	701	Sololá	1	Sololá	3	Marzo	2023-11-03T00:00:00	2024-11-08T10:00:00	1	Precipitación	0
11264	7	Sololá	701	Sololá	1	Sololá	3	Marzo	2023-11-03T00:00:00	2024-11-08T10:00:00	8	Radiación solar	188
11265	7	Sololá	701	Sololá	1	Sololá	3	Marzo	2023-11-03T00:00:00	2024-11-08T11:00:00	2	Temperatura media	17.1
11266	7	Sololá	701	Sololá	1	Sololá	3	Marzo	2023-11-03T00:00:00	2024-11-08T11:00:00	4	Temperatura máxima	17.2
11267	7	Sololá	701	Sololá	1	Sololá	3	Marzo	2023-11-03T00:00:00	2024-11-08T11:00:00	3	Temperatura mínima	15.6
11268	7	Sololá	701	Sololá	1	Sololá	3	Marzo	2023-11-03T00:00:00	2024-11-08T11:00:00	5	Humedad	81
11269	7	Sololá	701	Sololá	1	Sololá	3	Marzo	2023-11-03T00:00:00	2024-11-08T11:00:00	6	Velocidad del viento	0
11270	7	Sololá	701	Sololá	1	Sololá	3	Marzo	2023-11-03T00:00:00	2024-11-08T11:00:00	7	Dirección del viento	0
11271	7	Sololá	701	Sololá	1	Sololá	3	Marzo	2023-11-03T00:00:00	2024-11-08T11:00:00	1	Precipitación	0
11272	7	Sololá	701	Sololá	1	Sololá	3	Marzo	2023-11-03T00:00:00	2024-11-08T11:00:00	8	Radiación solar	410
11273	7	Sololá	701	Sololá	1	Sololá	3	Marzo	2023-11-03T00:00:00	2024-11-08T12:00:00	2	Temperatura media	17.2
11274	7	Sololá	701	Sololá	1	Sololá	3	Marzo	2023-11-03T00:00:00	2024-11-08T12:00:00	4	Temperatura máxima	18.2
11275	7	Sololá	701	Sololá	1	Sololá	3	Marzo	2023-11-03T00:00:00	2024-11-08T12:00:00	3	Temperatura mínima	17.1
11276	7	Sololá	701	Sololá	1	Sololá	3	Marzo	2023-11-03T00:00:00	2024-11-08T12:00:00	5	Humedad	82
11277	7	Sololá	701	Sololá	1	Sololá	3	Marzo	2023-11-03T00:00:00	2024-11-08T12:00:00	6	Velocidad del viento	0
11278	7	Sololá	701	Sololá	1	Sololá	3	Marzo	2023-11-03T00:00:00	2024-11-08T12:00:00	7	Dirección del viento	0
11279	7	Sololá	701	Sololá	1	Sololá	3	Marzo	2023-11-03T00:00:00	2024-11-08T12:00:00	1	Precipitación	0
11280	7	Sololá	701	Sololá	1	Sololá	3	Marzo	2023-11-03T00:00:00	2024-11-08T12:00:00	8	Radiación solar	343
11281	7	Sololá	701	Sololá	1	Sololá	3	Marzo	2023-11-03T00:00:00	2024-11-08T13:00:00	2	Temperatura media	16.1
11282	7	Sololá	701	Sololá	1	Sololá	3	Marzo	2023-11-03T00:00:00	2024-11-08T13:00:00	4	Temperatura máxima	17.3
11283	7	Sololá	701	Sololá	1	Sololá	3	Marzo	2023-11-03T00:00:00	2024-11-08T13:00:00	3	Temperatura mínima	16.1
11284	7	Sololá	701	Sololá	1	Sololá	3	Marzo	2023-11-03T00:00:00	2024-11-08T13:00:00	5	Humedad	86
11285	7	Sololá	701	Sololá	1	Sololá	3	Marzo	2023-11-03T00:00:00	2024-11-08T13:00:00	6	Velocidad del viento	0
11286	7	Sololá	701	Sololá	1	Sololá	3	Marzo	2023-11-03T00:00:00	2024-11-08T13:00:00	7	Dirección del viento	0
11287	7	Sololá	701	Sololá	1	Sololá	3	Marzo	2023-11-03T00:00:00	2024-11-08T13:00:00	1	Precipitación	0
11288	7	Sololá	701	Sololá	1	Sololá	3	Marzo	2023-11-03T00:00:00	2024-11-08T13:00:00	8	Radiación solar	174
11289	7	Sololá	701	Sololá	1	Sololá	3	Marzo	2023-11-03T00:00:00	2024-11-08T14:00:00	2	Temperatura media	16.7
11290	7	Sololá	701	Sololá	1	Sololá	3	Marzo	2023-11-03T00:00:00	2024-11-08T14:00:00	4	Temperatura máxima	16.7
11291	7	Sololá	701	Sololá	1	Sololá	3	Marzo	2023-11-03T00:00:00	2024-11-08T14:00:00	3	Temperatura mínima	16.1
11292	7	Sololá	701	Sololá	1	Sololá	3	Marzo	2023-11-03T00:00:00	2024-11-08T14:00:00	5	Humedad	85
11293	7	Sololá	701	Sololá	1	Sololá	3	Marzo	2023-11-03T00:00:00	2024-11-08T14:00:00	6	Velocidad del viento	0
11294	7	Sololá	701	Sololá	1	Sololá	3	Marzo	2023-11-03T00:00:00	2024-11-08T14:00:00	7	Dirección del viento	0
11295	7	Sololá	701	Sololá	1	Sololá	3	Marzo	2023-11-03T00:00:00	2024-11-08T14:00:00	1	Precipitación	0
11296	7	Sololá	701	Sololá	1	Sololá	3	Marzo	2023-11-03T00:00:00	2024-11-08T14:00:00	8	Radiación solar	225
11297	7	Sololá	701	Sololá	1	Sololá	3	Marzo	2023-11-03T00:00:00	2024-11-08T15:00:00	2	Temperatura media	15.8
11298	7	Sololá	701	Sololá	1	Sololá	3	Marzo	2023-11-03T00:00:00	2024-11-08T15:00:00	4	Temperatura máxima	16.8
11299	7	Sololá	701	Sololá	1	Sololá	3	Marzo	2023-11-03T00:00:00	2024-11-08T15:00:00	3	Temperatura mínima	15.8
11300	7	Sololá	701	Sololá	1	Sololá	3	Marzo	2023-11-03T00:00:00	2024-11-08T15:00:00	5	Humedad	88
11301	7	Sololá	701	Sololá	1	Sololá	3	Marzo	2023-11-03T00:00:00	2024-11-08T15:00:00	6	Velocidad del viento	0
11302	7	Sololá	701	Sololá	1	Sololá	3	Marzo	2023-11-03T00:00:00	2024-11-08T15:00:00	7	Dirección del viento	0
11303	7	Sololá	701	Sololá	1	Sololá	3	Marzo	2023-11-03T00:00:00	2024-11-08T15:00:00	1	Precipitación	0
11304	7	Sololá	701	Sololá	1	Sololá	3	Marzo	2023-11-03T00:00:00	2024-11-08T15:00:00	8	Radiación solar	117
11305	7	Sololá	701	Sololá	1	Sololá	3	Marzo	2023-11-03T00:00:00	2024-11-08T16:00:00	2	Temperatura media	16
11306	7	Sololá	701	Sololá	1	Sololá	3	Marzo	2023-11-03T00:00:00	2024-11-08T16:00:00	4	Temperatura máxima	16.1
11307	7	Sololá	701	Sololá	1	Sololá	3	Marzo	2023-11-03T00:00:00	2024-11-08T16:00:00	3	Temperatura mínima	15.8
11308	7	Sololá	701	Sololá	1	Sololá	3	Marzo	2023-11-03T00:00:00	2024-11-08T16:00:00	5	Humedad	88
11309	7	Sololá	701	Sololá	1	Sololá	3	Marzo	2023-11-03T00:00:00	2024-11-08T16:00:00	6	Velocidad del viento	0
11310	7	Sololá	701	Sololá	1	Sololá	3	Marzo	2023-11-03T00:00:00	2024-11-08T16:00:00	7	Dirección del viento	0
11311	7	Sololá	701	Sololá	1	Sololá	3	Marzo	2023-11-03T00:00:00	2024-11-08T16:00:00	1	Precipitación	0
11312	7	Sololá	701	Sololá	1	Sololá	3	Marzo	2023-11-03T00:00:00	2024-11-08T16:00:00	8	Radiación solar	119
11313	7	Sololá	701	Sololá	1	Sololá	3	Marzo	2023-11-03T00:00:00	2024-11-08T17:00:00	2	Temperatura media	15.9
11314	7	Sololá	701	Sololá	1	Sololá	3	Marzo	2023-11-03T00:00:00	2024-11-08T17:00:00	4	Temperatura máxima	16.2
11315	7	Sololá	701	Sololá	1	Sololá	3	Marzo	2023-11-03T00:00:00	2024-11-08T17:00:00	3	Temperatura mínima	15.9
11316	7	Sololá	701	Sololá	1	Sololá	3	Marzo	2023-11-03T00:00:00	2024-11-08T17:00:00	5	Humedad	88
11317	7	Sololá	701	Sololá	1	Sololá	3	Marzo	2023-11-03T00:00:00	2024-11-08T17:00:00	6	Velocidad del viento	0
11318	7	Sololá	701	Sololá	1	Sololá	3	Marzo	2023-11-03T00:00:00	2024-11-08T17:00:00	7	Dirección del viento	0
11319	7	Sololá	701	Sololá	1	Sololá	3	Marzo	2023-11-03T00:00:00	2024-11-08T17:00:00	1	Precipitación	0
11320	7	Sololá	701	Sololá	1	Sololá	3	Marzo	2023-11-03T00:00:00	2024-11-08T17:00:00	8	Radiación solar	86
11321	7	Sololá	701	Sololá	1	Sololá	3	Marzo	2023-11-03T00:00:00	2024-11-08T18:00:00	2	Temperatura media	15.5
11322	7	Sololá	701	Sololá	1	Sololá	3	Marzo	2023-11-03T00:00:00	2024-11-08T18:00:00	4	Temperatura máxima	15.9
11323	7	Sololá	701	Sololá	1	Sololá	3	Marzo	2023-11-03T00:00:00	2024-11-08T18:00:00	3	Temperatura mínima	15.5
11324	7	Sololá	701	Sololá	1	Sololá	3	Marzo	2023-11-03T00:00:00	2024-11-08T18:00:00	5	Humedad	90
11325	7	Sololá	701	Sololá	1	Sololá	3	Marzo	2023-11-03T00:00:00	2024-11-08T18:00:00	6	Velocidad del viento	0
11326	7	Sololá	701	Sololá	1	Sololá	3	Marzo	2023-11-03T00:00:00	2024-11-08T18:00:00	7	Dirección del viento	0
11327	7	Sololá	701	Sololá	1	Sololá	3	Marzo	2023-11-03T00:00:00	2024-11-08T18:00:00	1	Precipitación	0
11328	7	Sololá	701	Sololá	1	Sololá	3	Marzo	2023-11-03T00:00:00	2024-11-08T18:00:00	8	Radiación solar	27
11329	7	Sololá	701	Sololá	1	Sololá	3	Marzo	2023-11-03T00:00:00	2024-11-08T19:00:00	2	Temperatura media	14.9
11330	7	Sololá	701	Sololá	1	Sololá	3	Marzo	2023-11-03T00:00:00	2024-11-08T19:00:00	4	Temperatura máxima	15.5
11331	7	Sololá	701	Sololá	1	Sololá	3	Marzo	2023-11-03T00:00:00	2024-11-08T19:00:00	3	Temperatura mínima	14.9
11332	7	Sololá	701	Sololá	1	Sololá	3	Marzo	2023-11-03T00:00:00	2024-11-08T19:00:00	5	Humedad	91
11333	7	Sololá	701	Sololá	1	Sololá	3	Marzo	2023-11-03T00:00:00	2024-11-08T19:00:00	6	Velocidad del viento	0
11334	7	Sololá	701	Sololá	1	Sololá	3	Marzo	2023-11-03T00:00:00	2024-11-08T19:00:00	7	Dirección del viento	0
11335	7	Sololá	701	Sololá	1	Sololá	3	Marzo	2023-11-03T00:00:00	2024-11-08T19:00:00	1	Precipitación	0
11336	7	Sololá	701	Sololá	1	Sololá	3	Marzo	2023-11-03T00:00:00	2024-11-08T19:00:00	8	Radiación solar	0
11337	7	Sololá	701	Sololá	1	Sololá	3	Marzo	2023-11-03T00:00:00	2024-11-08T20:00:00	2	Temperatura media	14.8
11338	7	Sololá	701	Sololá	1	Sololá	3	Marzo	2023-11-03T00:00:00	2024-11-08T20:00:00	4	Temperatura máxima	14.9
11339	7	Sololá	701	Sololá	1	Sololá	3	Marzo	2023-11-03T00:00:00	2024-11-08T20:00:00	3	Temperatura mínima	14.8
11340	7	Sololá	701	Sololá	1	Sololá	3	Marzo	2023-11-03T00:00:00	2024-11-08T20:00:00	5	Humedad	94
11341	7	Sololá	701	Sololá	1	Sololá	3	Marzo	2023-11-03T00:00:00	2024-11-08T20:00:00	6	Velocidad del viento	0
11342	7	Sololá	701	Sololá	1	Sololá	3	Marzo	2023-11-03T00:00:00	2024-11-08T20:00:00	7	Dirección del viento	0
11343	7	Sololá	701	Sololá	1	Sololá	3	Marzo	2023-11-03T00:00:00	2024-11-08T20:00:00	1	Precipitación	0
11344	7	Sololá	701	Sololá	1	Sololá	3	Marzo	2023-11-03T00:00:00	2024-11-08T20:00:00	8	Radiación solar	0
11345	7	Sololá	701	Sololá	1	Sololá	3	Marzo	2023-11-03T00:00:00	2024-11-08T21:00:00	2	Temperatura media	14.4
11346	7	Sololá	701	Sololá	1	Sololá	3	Marzo	2023-11-03T00:00:00	2024-11-08T21:00:00	4	Temperatura máxima	14.8
11347	7	Sololá	701	Sololá	1	Sololá	3	Marzo	2023-11-03T00:00:00	2024-11-08T21:00:00	3	Temperatura mínima	14.4
11348	7	Sololá	701	Sololá	1	Sololá	3	Marzo	2023-11-03T00:00:00	2024-11-08T21:00:00	5	Humedad	95
11349	7	Sololá	701	Sololá	1	Sololá	3	Marzo	2023-11-03T00:00:00	2024-11-08T21:00:00	6	Velocidad del viento	0
11350	7	Sololá	701	Sololá	1	Sololá	3	Marzo	2023-11-03T00:00:00	2024-11-08T21:00:00	7	Dirección del viento	0
11351	7	Sololá	701	Sololá	1	Sololá	3	Marzo	2023-11-03T00:00:00	2024-11-08T21:00:00	1	Precipitación	0
11352	7	Sololá	701	Sololá	1	Sololá	3	Marzo	2023-11-03T00:00:00	2024-11-08T21:00:00	8	Radiación solar	0
11353	7	Sololá	701	Sololá	1	Sololá	3	Marzo	2023-11-03T00:00:00	2024-11-08T22:00:00	2	Temperatura media	14.1
11354	7	Sololá	701	Sololá	1	Sololá	3	Marzo	2023-11-03T00:00:00	2024-11-08T22:00:00	4	Temperatura máxima	14.4
11355	7	Sololá	701	Sololá	1	Sololá	3	Marzo	2023-11-03T00:00:00	2024-11-08T22:00:00	3	Temperatura mínima	14.1
11356	7	Sololá	701	Sololá	1	Sololá	3	Marzo	2023-11-03T00:00:00	2024-11-08T22:00:00	5	Humedad	96
11357	7	Sololá	701	Sololá	1	Sololá	3	Marzo	2023-11-03T00:00:00	2024-11-08T22:00:00	6	Velocidad del viento	0
11358	7	Sololá	701	Sololá	1	Sololá	3	Marzo	2023-11-03T00:00:00	2024-11-08T22:00:00	7	Dirección del viento	0
11359	7	Sololá	701	Sololá	1	Sololá	3	Marzo	2023-11-03T00:00:00	2024-11-08T22:00:00	1	Precipitación	0
11360	7	Sololá	701	Sololá	1	Sololá	3	Marzo	2023-11-03T00:00:00	2024-11-08T22:00:00	8	Radiación solar	0
11361	7	Sololá	701	Sololá	1	Sololá	3	Marzo	2023-11-03T00:00:00	2024-11-08T23:00:00	2	Temperatura media	13.7
11362	7	Sololá	701	Sololá	1	Sololá	3	Marzo	2023-11-03T00:00:00	2024-11-08T23:00:00	4	Temperatura máxima	14.1
11363	7	Sololá	701	Sololá	1	Sololá	3	Marzo	2023-11-03T00:00:00	2024-11-08T23:00:00	3	Temperatura mínima	13.7
11364	7	Sololá	701	Sololá	1	Sololá	3	Marzo	2023-11-03T00:00:00	2024-11-08T23:00:00	5	Humedad	96
11365	7	Sololá	701	Sololá	1	Sololá	3	Marzo	2023-11-03T00:00:00	2024-11-08T23:00:00	6	Velocidad del viento	0
11366	7	Sololá	701	Sololá	1	Sololá	3	Marzo	2023-11-03T00:00:00	2024-11-08T23:00:00	7	Dirección del viento	0
11367	7	Sololá	701	Sololá	1	Sololá	3	Marzo	2023-11-03T00:00:00	2024-11-08T23:00:00	1	Precipitación	0.2
11368	7	Sololá	701	Sololá	1	Sololá	3	Marzo	2023-11-03T00:00:00	2024-11-08T23:00:00	8	Radiación solar	0
11369	7	Sololá	701	Sololá	1	Sololá	3	Marzo	2023-12-03T00:00:00	2024-11-08T00:00:00	2	Temperatura media	13.5
11370	7	Sololá	701	Sololá	1	Sololá	3	Marzo	2023-12-03T00:00:00	2024-11-08T00:00:00	4	Temperatura máxima	13.8
11371	7	Sololá	701	Sololá	1	Sololá	3	Marzo	2023-12-03T00:00:00	2024-11-08T00:00:00	3	Temperatura mínima	13.5
11372	7	Sololá	701	Sololá	1	Sololá	3	Marzo	2023-12-03T00:00:00	2024-11-08T00:00:00	5	Humedad	96
11373	7	Sololá	701	Sololá	1	Sololá	3	Marzo	2023-12-03T00:00:00	2024-11-08T00:00:00	6	Velocidad del viento	0
11374	7	Sololá	701	Sololá	1	Sololá	3	Marzo	2023-12-03T00:00:00	2024-11-08T00:00:00	7	Dirección del viento	0
11375	7	Sololá	701	Sololá	1	Sololá	3	Marzo	2023-12-03T00:00:00	2024-11-08T00:00:00	1	Precipitación	0
11376	7	Sololá	701	Sololá	1	Sololá	3	Marzo	2023-12-03T00:00:00	2024-11-08T00:00:00	8	Radiación solar	0
11377	7	Sololá	701	Sololá	1	Sololá	3	Marzo	2023-12-03T00:00:00	2024-11-08T01:00:00	2	Temperatura media	13.4
11378	7	Sololá	701	Sololá	1	Sololá	3	Marzo	2023-12-03T00:00:00	2024-11-08T01:00:00	4	Temperatura máxima	13.6
11379	7	Sololá	701	Sololá	1	Sololá	3	Marzo	2023-12-03T00:00:00	2024-11-08T01:00:00	3	Temperatura mínima	13.3
11380	7	Sololá	701	Sololá	1	Sololá	3	Marzo	2023-12-03T00:00:00	2024-11-08T01:00:00	5	Humedad	96
11381	7	Sololá	701	Sololá	1	Sololá	3	Marzo	2023-12-03T00:00:00	2024-11-08T01:00:00	6	Velocidad del viento	0
11382	7	Sololá	701	Sololá	1	Sololá	3	Marzo	2023-12-03T00:00:00	2024-11-08T01:00:00	7	Dirección del viento	0
11383	7	Sololá	701	Sololá	1	Sololá	3	Marzo	2023-12-03T00:00:00	2024-11-08T01:00:00	1	Precipitación	0
11384	7	Sololá	701	Sololá	1	Sololá	3	Marzo	2023-12-03T00:00:00	2024-11-08T01:00:00	8	Radiación solar	0
11385	7	Sololá	701	Sololá	1	Sololá	3	Marzo	2023-12-03T00:00:00	2024-11-08T02:00:00	2	Temperatura media	13.4
11386	7	Sololá	701	Sololá	1	Sololá	3	Marzo	2023-12-03T00:00:00	2024-11-08T02:00:00	4	Temperatura máxima	13.5
11387	7	Sololá	701	Sololá	1	Sololá	3	Marzo	2023-12-03T00:00:00	2024-11-08T02:00:00	3	Temperatura mínima	13.1
11388	7	Sololá	701	Sololá	1	Sololá	3	Marzo	2023-12-03T00:00:00	2024-11-08T02:00:00	5	Humedad	85
11389	7	Sololá	701	Sololá	1	Sololá	3	Marzo	2023-12-03T00:00:00	2024-11-08T02:00:00	6	Velocidad del viento	0
11390	7	Sololá	701	Sololá	1	Sololá	3	Marzo	2023-12-03T00:00:00	2024-11-08T02:00:00	7	Dirección del viento	0
11391	7	Sololá	701	Sololá	1	Sololá	3	Marzo	2023-12-03T00:00:00	2024-11-08T02:00:00	1	Precipitación	0
11392	7	Sololá	701	Sololá	1	Sololá	3	Marzo	2023-12-03T00:00:00	2024-11-08T02:00:00	8	Radiación solar	0
11393	7	Sololá	701	Sololá	1	Sololá	3	Marzo	2023-12-03T00:00:00	2024-11-08T03:00:00	2	Temperatura media	13.5
11394	7	Sololá	701	Sololá	1	Sololá	3	Marzo	2023-12-03T00:00:00	2024-11-08T03:00:00	4	Temperatura máxima	13.6
11395	7	Sololá	701	Sololá	1	Sololá	3	Marzo	2023-12-03T00:00:00	2024-11-08T03:00:00	3	Temperatura mínima	13.3
11396	7	Sololá	701	Sololá	1	Sololá	3	Marzo	2023-12-03T00:00:00	2024-11-08T03:00:00	5	Humedad	97
11397	7	Sololá	701	Sololá	1	Sololá	3	Marzo	2023-12-03T00:00:00	2024-11-08T03:00:00	6	Velocidad del viento	0
11398	7	Sololá	701	Sololá	1	Sololá	3	Marzo	2023-12-03T00:00:00	2024-11-08T03:00:00	7	Dirección del viento	0
11399	7	Sololá	701	Sololá	1	Sololá	3	Marzo	2023-12-03T00:00:00	2024-11-08T03:00:00	1	Precipitación	0
11400	7	Sololá	701	Sololá	1	Sololá	3	Marzo	2023-12-03T00:00:00	2024-11-08T03:00:00	8	Radiación solar	0
11401	7	Sololá	701	Sololá	1	Sololá	3	Marzo	2023-12-03T00:00:00	2024-11-08T04:00:00	2	Temperatura media	13.4
11402	7	Sololá	701	Sololá	1	Sololá	3	Marzo	2023-12-03T00:00:00	2024-11-08T04:00:00	4	Temperatura máxima	13.6
11403	7	Sololá	701	Sololá	1	Sololá	3	Marzo	2023-12-03T00:00:00	2024-11-08T04:00:00	3	Temperatura mínima	13.4
11404	7	Sololá	701	Sololá	1	Sololá	3	Marzo	2023-12-03T00:00:00	2024-11-08T04:00:00	5	Humedad	96
11405	7	Sololá	701	Sololá	1	Sololá	3	Marzo	2023-12-03T00:00:00	2024-11-08T04:00:00	6	Velocidad del viento	0
11406	7	Sololá	701	Sololá	1	Sololá	3	Marzo	2023-12-03T00:00:00	2024-11-08T04:00:00	7	Dirección del viento	0
11407	7	Sololá	701	Sololá	1	Sololá	3	Marzo	2023-12-03T00:00:00	2024-11-08T04:00:00	1	Precipitación	0.2
11408	7	Sololá	701	Sololá	1	Sololá	3	Marzo	2023-12-03T00:00:00	2024-11-08T04:00:00	8	Radiación solar	0
11409	7	Sololá	701	Sololá	1	Sololá	3	Marzo	2023-12-03T00:00:00	2024-11-08T05:00:00	2	Temperatura media	13.3
11410	7	Sololá	701	Sololá	1	Sololá	3	Marzo	2023-12-03T00:00:00	2024-11-08T05:00:00	4	Temperatura máxima	13.5
11411	7	Sololá	701	Sololá	1	Sololá	3	Marzo	2023-12-03T00:00:00	2024-11-08T05:00:00	3	Temperatura mínima	13.3
11412	7	Sololá	701	Sololá	1	Sololá	3	Marzo	2023-12-03T00:00:00	2024-11-08T05:00:00	5	Humedad	96
11413	7	Sololá	701	Sololá	1	Sololá	3	Marzo	2023-12-03T00:00:00	2024-11-08T05:00:00	6	Velocidad del viento	0
11414	7	Sololá	701	Sololá	1	Sololá	3	Marzo	2023-12-03T00:00:00	2024-11-08T05:00:00	7	Dirección del viento	0
11415	7	Sololá	701	Sololá	1	Sololá	3	Marzo	2023-12-03T00:00:00	2024-11-08T05:00:00	1	Precipitación	0
11416	7	Sololá	701	Sololá	1	Sololá	3	Marzo	2023-12-03T00:00:00	2024-11-08T05:00:00	8	Radiación solar	0
11417	7	Sololá	701	Sololá	1	Sololá	3	Marzo	2023-12-03T00:00:00	2024-11-08T06:00:00	2	Temperatura media	13.2
11418	7	Sololá	701	Sololá	1	Sololá	3	Marzo	2023-12-03T00:00:00	2024-11-08T06:00:00	4	Temperatura máxima	13.3
11419	7	Sololá	701	Sololá	1	Sololá	3	Marzo	2023-12-03T00:00:00	2024-11-08T06:00:00	3	Temperatura mínima	13.2
11420	7	Sololá	701	Sololá	1	Sololá	3	Marzo	2023-12-03T00:00:00	2024-11-08T06:00:00	5	Humedad	97
11421	7	Sololá	701	Sololá	1	Sololá	3	Marzo	2023-12-03T00:00:00	2024-11-08T06:00:00	6	Velocidad del viento	0
11422	7	Sololá	701	Sololá	1	Sololá	3	Marzo	2023-12-03T00:00:00	2024-11-08T06:00:00	7	Dirección del viento	0
11423	7	Sololá	701	Sololá	1	Sololá	3	Marzo	2023-12-03T00:00:00	2024-11-08T06:00:00	1	Precipitación	0
11424	7	Sololá	701	Sololá	1	Sololá	3	Marzo	2023-12-03T00:00:00	2024-11-08T06:00:00	8	Radiación solar	0
11425	7	Sololá	701	Sololá	1	Sololá	3	Marzo	2023-12-03T00:00:00	2024-11-08T07:00:00	2	Temperatura media	12.9
11426	7	Sololá	701	Sololá	1	Sololá	3	Marzo	2023-12-03T00:00:00	2024-11-08T07:00:00	4	Temperatura máxima	13.2
11427	7	Sololá	701	Sololá	1	Sololá	3	Marzo	2023-12-03T00:00:00	2024-11-08T07:00:00	3	Temperatura mínima	12.9
11428	7	Sololá	701	Sololá	1	Sololá	3	Marzo	2023-12-03T00:00:00	2024-11-08T07:00:00	5	Humedad	97
11429	7	Sololá	701	Sololá	1	Sololá	3	Marzo	2023-12-03T00:00:00	2024-11-08T07:00:00	6	Velocidad del viento	0
11430	7	Sololá	701	Sololá	1	Sololá	3	Marzo	2023-12-03T00:00:00	2024-11-08T07:00:00	7	Dirección del viento	0
11431	7	Sololá	701	Sololá	1	Sololá	3	Marzo	2023-12-03T00:00:00	2024-11-08T07:00:00	1	Precipitación	1
11432	7	Sololá	701	Sololá	1	Sololá	3	Marzo	2023-12-03T00:00:00	2024-11-08T07:00:00	8	Radiación solar	11
11433	7	Sololá	701	Sololá	1	Sololá	3	Marzo	2023-12-03T00:00:00	2024-11-08T08:00:00	2	Temperatura media	12.8
11434	7	Sololá	701	Sololá	1	Sololá	3	Marzo	2023-12-03T00:00:00	2024-11-08T08:00:00	4	Temperatura máxima	12.9
11435	7	Sololá	701	Sololá	1	Sololá	3	Marzo	2023-12-03T00:00:00	2024-11-08T08:00:00	3	Temperatura mínima	12.7
11436	7	Sololá	701	Sololá	1	Sololá	3	Marzo	2023-12-03T00:00:00	2024-11-08T08:00:00	5	Humedad	97
11437	7	Sololá	701	Sololá	1	Sololá	3	Marzo	2023-12-03T00:00:00	2024-11-08T08:00:00	6	Velocidad del viento	0
11438	7	Sololá	701	Sololá	1	Sololá	3	Marzo	2023-12-03T00:00:00	2024-11-08T08:00:00	7	Dirección del viento	0
11439	7	Sololá	701	Sololá	1	Sololá	3	Marzo	2023-12-03T00:00:00	2024-11-08T08:00:00	1	Precipitación	2
11440	7	Sololá	701	Sololá	1	Sololá	3	Marzo	2023-12-03T00:00:00	2024-11-08T08:00:00	8	Radiación solar	35
11441	7	Sololá	701	Sololá	1	Sololá	3	Marzo	2023-12-03T00:00:00	2024-11-08T09:00:00	2	Temperatura media	12.8
11442	7	Sololá	701	Sololá	1	Sololá	3	Marzo	2023-12-03T00:00:00	2024-11-08T09:00:00	4	Temperatura máxima	12.8
11443	7	Sololá	701	Sololá	1	Sololá	3	Marzo	2023-12-03T00:00:00	2024-11-08T09:00:00	3	Temperatura mínima	12.7
11444	7	Sololá	701	Sololá	1	Sololá	3	Marzo	2023-12-03T00:00:00	2024-11-08T09:00:00	5	Humedad	97
11445	7	Sololá	701	Sololá	1	Sololá	3	Marzo	2023-12-03T00:00:00	2024-11-08T09:00:00	6	Velocidad del viento	0
11446	7	Sololá	701	Sololá	1	Sololá	3	Marzo	2023-12-03T00:00:00	2024-11-08T09:00:00	7	Dirección del viento	0
11447	7	Sololá	701	Sololá	1	Sololá	3	Marzo	2023-12-03T00:00:00	2024-11-08T09:00:00	1	Precipitación	0
11448	7	Sololá	701	Sololá	1	Sololá	3	Marzo	2023-12-03T00:00:00	2024-11-08T09:00:00	8	Radiación solar	202
11449	7	Sololá	701	Sololá	1	Sololá	3	Marzo	2023-12-03T00:00:00	2024-11-08T10:00:00	2	Temperatura media	13
11450	7	Sololá	701	Sololá	1	Sololá	3	Marzo	2023-12-03T00:00:00	2024-11-08T10:00:00	4	Temperatura máxima	13
11451	7	Sololá	701	Sololá	1	Sololá	3	Marzo	2023-12-03T00:00:00	2024-11-08T10:00:00	3	Temperatura mínima	12.8
11452	7	Sololá	701	Sololá	1	Sololá	3	Marzo	2023-12-03T00:00:00	2024-11-08T10:00:00	5	Humedad	97
11453	7	Sololá	701	Sololá	1	Sololá	3	Marzo	2023-12-03T00:00:00	2024-11-08T10:00:00	6	Velocidad del viento	0
11454	7	Sololá	701	Sololá	1	Sololá	3	Marzo	2023-12-03T00:00:00	2024-11-08T10:00:00	7	Dirección del viento	0
11455	7	Sololá	701	Sololá	1	Sololá	3	Marzo	2023-12-03T00:00:00	2024-11-08T10:00:00	1	Precipitación	0
11456	7	Sololá	701	Sololá	1	Sololá	3	Marzo	2023-12-03T00:00:00	2024-11-08T10:00:00	8	Radiación solar	377
11457	7	Sololá	701	Sololá	1	Sololá	3	Marzo	2023-12-03T00:00:00	2024-11-08T11:00:00	2	Temperatura media	14.5
11458	7	Sololá	701	Sololá	1	Sololá	3	Marzo	2023-12-03T00:00:00	2024-11-08T11:00:00	4	Temperatura máxima	14.5
11459	7	Sololá	701	Sololá	1	Sololá	3	Marzo	2023-12-03T00:00:00	2024-11-08T11:00:00	3	Temperatura mínima	13
11460	7	Sololá	701	Sololá	1	Sololá	3	Marzo	2023-12-03T00:00:00	2024-11-08T11:00:00	5	Humedad	98
11461	7	Sololá	701	Sololá	1	Sololá	3	Marzo	2023-12-03T00:00:00	2024-11-08T11:00:00	6	Velocidad del viento	0
11462	7	Sololá	701	Sololá	1	Sololá	3	Marzo	2023-12-03T00:00:00	2024-11-08T11:00:00	7	Dirección del viento	0
11463	7	Sololá	701	Sololá	1	Sololá	3	Marzo	2023-12-03T00:00:00	2024-11-08T11:00:00	1	Precipitación	0
11464	7	Sololá	701	Sololá	1	Sololá	3	Marzo	2023-12-03T00:00:00	2024-11-08T11:00:00	8	Radiación solar	149
11465	7	Sololá	701	Sololá	1	Sololá	3	Marzo	2023-12-03T00:00:00	2024-11-08T12:00:00	2	Temperatura media	16.2
11466	7	Sololá	701	Sololá	1	Sololá	3	Marzo	2023-12-03T00:00:00	2024-11-08T12:00:00	4	Temperatura máxima	16.2
11467	7	Sololá	701	Sololá	1	Sololá	3	Marzo	2023-12-03T00:00:00	2024-11-08T12:00:00	3	Temperatura mínima	14.4
11468	7	Sololá	701	Sololá	1	Sololá	3	Marzo	2023-12-03T00:00:00	2024-11-08T12:00:00	5	Humedad	90
11469	7	Sololá	701	Sololá	1	Sololá	3	Marzo	2023-12-03T00:00:00	2024-11-08T12:00:00	6	Velocidad del viento	0
11470	7	Sololá	701	Sololá	1	Sololá	3	Marzo	2023-12-03T00:00:00	2024-11-08T12:00:00	7	Dirección del viento	0
11471	7	Sololá	701	Sololá	1	Sololá	3	Marzo	2023-12-03T00:00:00	2024-11-08T12:00:00	1	Precipitación	0
11472	7	Sololá	701	Sololá	1	Sololá	3	Marzo	2023-12-03T00:00:00	2024-11-08T12:00:00	8	Radiación solar	67
11473	7	Sololá	701	Sololá	1	Sololá	3	Marzo	2023-12-03T00:00:00	2024-11-08T13:00:00	2	Temperatura media	15.4
11474	7	Sololá	701	Sololá	1	Sololá	3	Marzo	2023-12-03T00:00:00	2024-11-08T13:00:00	4	Temperatura máxima	16.4
11475	7	Sololá	701	Sololá	1	Sololá	3	Marzo	2023-12-03T00:00:00	2024-11-08T13:00:00	3	Temperatura mínima	15.4
11476	7	Sololá	701	Sololá	1	Sololá	3	Marzo	2023-12-03T00:00:00	2024-11-08T13:00:00	5	Humedad	90
11477	7	Sololá	701	Sololá	1	Sololá	3	Marzo	2023-12-03T00:00:00	2024-11-08T13:00:00	6	Velocidad del viento	0
11478	7	Sololá	701	Sololá	1	Sololá	3	Marzo	2023-12-03T00:00:00	2024-11-08T13:00:00	7	Dirección del viento	0
11479	7	Sololá	701	Sololá	1	Sololá	3	Marzo	2023-12-03T00:00:00	2024-11-08T13:00:00	1	Precipitación	0
11480	7	Sololá	701	Sololá	1	Sololá	3	Marzo	2023-12-03T00:00:00	2024-11-08T13:00:00	8	Radiación solar	38
11481	7	Sololá	701	Sololá	1	Sololá	3	Marzo	2023-12-03T00:00:00	2024-11-08T14:00:00	2	Temperatura media	15
11482	7	Sololá	701	Sololá	1	Sololá	3	Marzo	2023-12-03T00:00:00	2024-11-08T14:00:00	4	Temperatura máxima	15.4
11483	7	Sololá	701	Sololá	1	Sololá	3	Marzo	2023-12-03T00:00:00	2024-11-08T14:00:00	3	Temperatura mínima	14.9
11484	7	Sololá	701	Sololá	1	Sololá	3	Marzo	2023-12-03T00:00:00	2024-11-08T14:00:00	5	Humedad	92
11485	7	Sololá	701	Sololá	1	Sololá	3	Marzo	2023-12-03T00:00:00	2024-11-08T14:00:00	6	Velocidad del viento	0
11486	7	Sololá	701	Sololá	1	Sololá	3	Marzo	2023-12-03T00:00:00	2024-11-08T14:00:00	7	Dirección del viento	0
11487	7	Sololá	701	Sololá	1	Sololá	3	Marzo	2023-12-03T00:00:00	2024-11-08T14:00:00	1	Precipitación	0
11488	7	Sololá	701	Sololá	1	Sololá	3	Marzo	2023-12-03T00:00:00	2024-11-08T14:00:00	8	Radiación solar	75
11489	7	Sololá	701	Sololá	1	Sololá	3	Marzo	2023-12-03T00:00:00	2024-11-08T15:00:00	2	Temperatura media	14.7
11490	7	Sololá	701	Sololá	1	Sololá	3	Marzo	2023-12-03T00:00:00	2024-11-08T15:00:00	4	Temperatura máxima	15
11491	7	Sololá	701	Sololá	1	Sololá	3	Marzo	2023-12-03T00:00:00	2024-11-08T15:00:00	3	Temperatura mínima	14.6
11492	7	Sololá	701	Sololá	1	Sololá	3	Marzo	2023-12-03T00:00:00	2024-11-08T15:00:00	5	Humedad	94
11493	7	Sololá	701	Sololá	1	Sololá	3	Marzo	2023-12-03T00:00:00	2024-11-08T15:00:00	6	Velocidad del viento	0
11494	7	Sololá	701	Sololá	1	Sololá	3	Marzo	2023-12-03T00:00:00	2024-11-08T15:00:00	7	Dirección del viento	0
11495	7	Sololá	701	Sololá	1	Sololá	3	Marzo	2023-12-03T00:00:00	2024-11-08T15:00:00	1	Precipitación	0
11496	7	Sololá	701	Sololá	1	Sololá	3	Marzo	2023-12-03T00:00:00	2024-11-08T15:00:00	8	Radiación solar	15
11497	7	Sololá	701	Sololá	1	Sololá	3	Marzo	2023-12-03T00:00:00	2024-11-08T16:00:00	2	Temperatura media	14.9
11498	7	Sololá	701	Sololá	1	Sololá	3	Marzo	2023-12-03T00:00:00	2024-11-08T16:00:00	4	Temperatura máxima	15.1
11499	7	Sololá	701	Sololá	1	Sololá	3	Marzo	2023-12-03T00:00:00	2024-11-08T16:00:00	3	Temperatura mínima	14.6
11500	7	Sololá	701	Sololá	1	Sololá	3	Marzo	2023-12-03T00:00:00	2024-11-08T16:00:00	5	Humedad	93
11501	7	Sololá	701	Sololá	1	Sololá	3	Marzo	2023-12-03T00:00:00	2024-11-08T16:00:00	6	Velocidad del viento	0
11502	7	Sololá	701	Sololá	1	Sololá	3	Marzo	2023-12-03T00:00:00	2024-11-08T16:00:00	7	Dirección del viento	0
11503	7	Sololá	701	Sololá	1	Sololá	3	Marzo	2023-12-03T00:00:00	2024-11-08T16:00:00	1	Precipitación	0
11504	7	Sololá	701	Sololá	1	Sololá	3	Marzo	2023-12-03T00:00:00	2024-11-08T16:00:00	8	Radiación solar	5
11505	7	Sololá	701	Sololá	1	Sololá	3	Marzo	2023-12-03T00:00:00	2024-11-08T17:00:00	2	Temperatura media	14.3
11506	7	Sololá	701	Sololá	1	Sololá	3	Marzo	2023-12-03T00:00:00	2024-11-08T17:00:00	4	Temperatura máxima	14.9
11507	7	Sololá	701	Sololá	1	Sololá	3	Marzo	2023-12-03T00:00:00	2024-11-08T17:00:00	3	Temperatura mínima	14.3
11508	7	Sololá	701	Sololá	1	Sololá	3	Marzo	2023-12-03T00:00:00	2024-11-08T17:00:00	5	Humedad	95
11509	7	Sololá	701	Sololá	1	Sololá	3	Marzo	2023-12-03T00:00:00	2024-11-08T17:00:00	6	Velocidad del viento	0
11510	7	Sololá	701	Sololá	1	Sololá	3	Marzo	2023-12-03T00:00:00	2024-11-08T17:00:00	7	Dirección del viento	0
11511	7	Sololá	701	Sololá	1	Sololá	3	Marzo	2023-12-03T00:00:00	2024-11-08T17:00:00	1	Precipitación	0
11512	7	Sololá	701	Sololá	1	Sololá	3	Marzo	2023-12-03T00:00:00	2024-11-08T17:00:00	8	Radiación solar	24
11513	7	Sololá	701	Sololá	1	Sololá	3	Marzo	2023-12-03T00:00:00	2024-11-08T18:00:00	2	Temperatura media	14.1
11514	7	Sololá	701	Sololá	1	Sololá	3	Marzo	2023-12-03T00:00:00	2024-11-08T18:00:00	4	Temperatura máxima	14.4
11515	7	Sololá	701	Sololá	1	Sololá	3	Marzo	2023-12-03T00:00:00	2024-11-08T18:00:00	3	Temperatura mínima	14
11516	7	Sololá	701	Sololá	1	Sololá	3	Marzo	2023-12-03T00:00:00	2024-11-08T18:00:00	5	Humedad	96
11517	7	Sololá	701	Sololá	1	Sololá	3	Marzo	2023-12-03T00:00:00	2024-11-08T18:00:00	6	Velocidad del viento	0
11518	7	Sololá	701	Sololá	1	Sololá	3	Marzo	2023-12-03T00:00:00	2024-11-08T18:00:00	7	Dirección del viento	0
11519	7	Sololá	701	Sololá	1	Sololá	3	Marzo	2023-12-03T00:00:00	2024-11-08T18:00:00	1	Precipitación	0.2
11520	7	Sololá	701	Sololá	1	Sololá	3	Marzo	2023-12-03T00:00:00	2024-11-08T18:00:00	8	Radiación solar	1
11521	7	Sololá	701	Sololá	1	Sololá	3	Marzo	2023-12-03T00:00:00	2024-11-08T19:00:00	2	Temperatura media	14.4
11522	7	Sololá	701	Sololá	1	Sololá	3	Marzo	2023-12-03T00:00:00	2024-11-08T19:00:00	4	Temperatura máxima	14.4
11523	7	Sololá	701	Sololá	1	Sololá	3	Marzo	2023-12-03T00:00:00	2024-11-08T19:00:00	3	Temperatura mínima	14
11524	7	Sololá	701	Sololá	1	Sololá	3	Marzo	2023-12-03T00:00:00	2024-11-08T19:00:00	5	Humedad	96
11525	7	Sololá	701	Sololá	1	Sololá	3	Marzo	2023-12-03T00:00:00	2024-11-08T19:00:00	6	Velocidad del viento	0
11526	7	Sololá	701	Sololá	1	Sololá	3	Marzo	2023-12-03T00:00:00	2024-11-08T19:00:00	7	Dirección del viento	0
11527	7	Sololá	701	Sololá	1	Sololá	3	Marzo	2023-12-03T00:00:00	2024-11-08T19:00:00	1	Precipitación	0
11528	7	Sololá	701	Sololá	1	Sololá	3	Marzo	2023-12-03T00:00:00	2024-11-08T19:00:00	8	Radiación solar	0
11529	7	Sololá	701	Sololá	1	Sololá	3	Marzo	2023-12-03T00:00:00	2024-11-08T20:00:00	2	Temperatura media	14.2
11530	7	Sololá	701	Sololá	1	Sololá	3	Marzo	2023-12-03T00:00:00	2024-11-08T20:00:00	4	Temperatura máxima	14.4
11531	7	Sololá	701	Sololá	1	Sololá	3	Marzo	2023-12-03T00:00:00	2024-11-08T20:00:00	3	Temperatura mínima	14.2
11532	7	Sololá	701	Sololá	1	Sololá	3	Marzo	2023-12-03T00:00:00	2024-11-08T20:00:00	5	Humedad	96
11533	7	Sololá	701	Sololá	1	Sololá	3	Marzo	2023-12-03T00:00:00	2024-11-08T20:00:00	6	Velocidad del viento	0
11534	7	Sololá	701	Sololá	1	Sololá	3	Marzo	2023-12-03T00:00:00	2024-11-08T20:00:00	7	Dirección del viento	0
11535	7	Sololá	701	Sololá	1	Sololá	3	Marzo	2023-12-03T00:00:00	2024-11-08T20:00:00	1	Precipitación	0
11536	7	Sololá	701	Sololá	1	Sololá	3	Marzo	2023-12-03T00:00:00	2024-11-08T20:00:00	8	Radiación solar	0
11537	7	Sololá	701	Sololá	1	Sololá	3	Marzo	2023-12-03T00:00:00	2024-11-08T21:00:00	2	Temperatura media	14.2
11538	7	Sololá	701	Sololá	1	Sololá	3	Marzo	2023-12-03T00:00:00	2024-11-08T21:00:00	4	Temperatura máxima	14.2
11539	7	Sololá	701	Sololá	1	Sololá	3	Marzo	2023-12-03T00:00:00	2024-11-08T21:00:00	3	Temperatura mínima	14.1
11540	7	Sololá	701	Sololá	1	Sololá	3	Marzo	2023-12-03T00:00:00	2024-11-08T21:00:00	5	Humedad	96
11541	7	Sololá	701	Sololá	1	Sololá	3	Marzo	2023-12-03T00:00:00	2024-11-08T21:00:00	6	Velocidad del viento	0
11542	7	Sololá	701	Sololá	1	Sololá	3	Marzo	2023-12-03T00:00:00	2024-11-08T21:00:00	7	Dirección del viento	0
11543	7	Sololá	701	Sololá	1	Sololá	3	Marzo	2023-12-03T00:00:00	2024-11-08T21:00:00	1	Precipitación	0
11544	7	Sololá	701	Sololá	1	Sololá	3	Marzo	2023-12-03T00:00:00	2024-11-08T21:00:00	8	Radiación solar	0
11545	7	Sololá	701	Sololá	1	Sololá	3	Marzo	2023-12-03T00:00:00	2024-11-08T22:00:00	2	Temperatura media	14.2
11546	7	Sololá	701	Sololá	1	Sololá	3	Marzo	2023-12-03T00:00:00	2024-11-08T22:00:00	4	Temperatura máxima	14.2
11547	7	Sololá	701	Sololá	1	Sololá	3	Marzo	2023-12-03T00:00:00	2024-11-08T22:00:00	3	Temperatura mínima	14.2
11548	7	Sololá	701	Sololá	1	Sololá	3	Marzo	2023-12-03T00:00:00	2024-11-08T22:00:00	5	Humedad	96
11549	7	Sololá	701	Sololá	1	Sololá	3	Marzo	2023-12-03T00:00:00	2024-11-08T22:00:00	6	Velocidad del viento	0
11550	7	Sololá	701	Sololá	1	Sololá	3	Marzo	2023-12-03T00:00:00	2024-11-08T22:00:00	7	Dirección del viento	0
11551	7	Sololá	701	Sololá	1	Sololá	3	Marzo	2023-12-03T00:00:00	2024-11-08T22:00:00	1	Precipitación	0
11552	7	Sololá	701	Sololá	1	Sololá	3	Marzo	2023-12-03T00:00:00	2024-11-08T22:00:00	8	Radiación solar	0
11553	7	Sololá	701	Sololá	1	Sololá	3	Marzo	2023-12-03T00:00:00	2024-11-08T23:00:00	2	Temperatura media	14.3
11554	7	Sololá	701	Sololá	1	Sololá	3	Marzo	2023-12-03T00:00:00	2024-11-08T23:00:00	4	Temperatura máxima	14.3
11555	7	Sololá	701	Sololá	1	Sololá	3	Marzo	2023-12-03T00:00:00	2024-11-08T23:00:00	3	Temperatura mínima	14.2
11556	7	Sololá	701	Sololá	1	Sololá	3	Marzo	2023-12-03T00:00:00	2024-11-08T23:00:00	5	Humedad	97
11557	7	Sololá	701	Sololá	1	Sololá	3	Marzo	2023-12-03T00:00:00	2024-11-08T23:00:00	6	Velocidad del viento	0
11558	7	Sololá	701	Sololá	1	Sololá	3	Marzo	2023-12-03T00:00:00	2024-11-08T23:00:00	7	Dirección del viento	0
11559	7	Sololá	701	Sololá	1	Sololá	3	Marzo	2023-12-03T00:00:00	2024-11-08T23:00:00	1	Precipitación	1.8
11560	7	Sololá	701	Sololá	1	Sololá	3	Marzo	2023-12-03T00:00:00	2024-11-08T23:00:00	8	Radiación solar	0
11561	7	Sololá	701	Sololá	1	Sololá	3	Marzo	2023-03-13T00:00:00	2024-11-08T00:00:00	2	Temperatura media	13.8
11562	7	Sololá	701	Sololá	1	Sololá	3	Marzo	2023-03-13T00:00:00	2024-11-08T00:00:00	4	Temperatura máxima	14.3
11563	7	Sololá	701	Sololá	1	Sololá	3	Marzo	2023-03-13T00:00:00	2024-11-08T00:00:00	3	Temperatura mínima	13.7
11564	7	Sololá	701	Sololá	1	Sololá	3	Marzo	2023-03-13T00:00:00	2024-11-08T00:00:00	5	Humedad	97
11565	7	Sololá	701	Sololá	1	Sololá	3	Marzo	2023-03-13T00:00:00	2024-11-08T00:00:00	6	Velocidad del viento	0
11566	7	Sololá	701	Sololá	1	Sololá	3	Marzo	2023-03-13T00:00:00	2024-11-08T00:00:00	7	Dirección del viento	0
11567	7	Sololá	701	Sololá	1	Sololá	3	Marzo	2023-03-13T00:00:00	2024-11-08T00:00:00	1	Precipitación	0.2
11568	7	Sololá	701	Sololá	1	Sololá	3	Marzo	2023-03-13T00:00:00	2024-11-08T00:00:00	8	Radiación solar	0
11569	7	Sololá	701	Sololá	1	Sololá	3	Marzo	2023-03-13T00:00:00	2024-11-08T01:00:00	2	Temperatura media	13.2
11570	7	Sololá	701	Sololá	1	Sololá	3	Marzo	2023-03-13T00:00:00	2024-11-08T01:00:00	4	Temperatura máxima	13.8
11571	7	Sololá	701	Sololá	1	Sololá	3	Marzo	2023-03-13T00:00:00	2024-11-08T01:00:00	3	Temperatura mínima	13.2
11572	7	Sololá	701	Sololá	1	Sololá	3	Marzo	2023-03-13T00:00:00	2024-11-08T01:00:00	5	Humedad	96
11573	7	Sololá	701	Sololá	1	Sololá	3	Marzo	2023-03-13T00:00:00	2024-11-08T01:00:00	6	Velocidad del viento	0
11574	7	Sololá	701	Sololá	1	Sololá	3	Marzo	2023-03-13T00:00:00	2024-11-08T01:00:00	7	Dirección del viento	0
11575	7	Sololá	701	Sololá	1	Sololá	3	Marzo	2023-03-13T00:00:00	2024-11-08T01:00:00	1	Precipitación	0
11576	7	Sololá	701	Sololá	1	Sololá	3	Marzo	2023-03-13T00:00:00	2024-11-08T01:00:00	8	Radiación solar	0
11577	7	Sololá	701	Sololá	1	Sololá	3	Marzo	2023-03-13T00:00:00	2024-11-08T02:00:00	2	Temperatura media	12.8
11578	7	Sololá	701	Sololá	1	Sololá	3	Marzo	2023-03-13T00:00:00	2024-11-08T02:00:00	4	Temperatura máxima	13.2
11579	7	Sololá	701	Sololá	1	Sololá	3	Marzo	2023-03-13T00:00:00	2024-11-08T02:00:00	3	Temperatura mínima	12.8
11580	7	Sololá	701	Sololá	1	Sololá	3	Marzo	2023-03-13T00:00:00	2024-11-08T02:00:00	5	Humedad	96
11581	7	Sololá	701	Sololá	1	Sololá	3	Marzo	2023-03-13T00:00:00	2024-11-08T02:00:00	6	Velocidad del viento	0
11582	7	Sololá	701	Sololá	1	Sololá	3	Marzo	2023-03-13T00:00:00	2024-11-08T02:00:00	7	Dirección del viento	0
11583	7	Sololá	701	Sololá	1	Sololá	3	Marzo	2023-03-13T00:00:00	2024-11-08T02:00:00	1	Precipitación	0
11584	7	Sololá	701	Sololá	1	Sololá	3	Marzo	2023-03-13T00:00:00	2024-11-08T02:00:00	8	Radiación solar	0
11585	7	Sololá	701	Sololá	1	Sololá	3	Marzo	2023-03-13T00:00:00	2024-11-08T03:00:00	2	Temperatura media	12.6
11586	7	Sololá	701	Sololá	1	Sololá	3	Marzo	2023-03-13T00:00:00	2024-11-08T03:00:00	4	Temperatura máxima	12.9
11587	7	Sololá	701	Sololá	1	Sololá	3	Marzo	2023-03-13T00:00:00	2024-11-08T03:00:00	3	Temperatura mínima	12.6
11588	7	Sololá	701	Sololá	1	Sololá	3	Marzo	2023-03-13T00:00:00	2024-11-08T03:00:00	5	Humedad	96
11589	7	Sololá	701	Sololá	1	Sololá	3	Marzo	2023-03-13T00:00:00	2024-11-08T03:00:00	6	Velocidad del viento	0
11590	7	Sololá	701	Sololá	1	Sololá	3	Marzo	2023-03-13T00:00:00	2024-11-08T03:00:00	7	Dirección del viento	0
11591	7	Sololá	701	Sololá	1	Sololá	3	Marzo	2023-03-13T00:00:00	2024-11-08T03:00:00	1	Precipitación	0
11592	7	Sololá	701	Sololá	1	Sololá	3	Marzo	2023-03-13T00:00:00	2024-11-08T03:00:00	8	Radiación solar	0
11593	7	Sololá	701	Sololá	1	Sololá	3	Marzo	2023-03-13T00:00:00	2024-11-08T04:00:00	2	Temperatura media	11.7
11594	7	Sololá	701	Sololá	1	Sololá	3	Marzo	2023-03-13T00:00:00	2024-11-08T04:00:00	4	Temperatura máxima	12.6
11595	7	Sololá	701	Sololá	1	Sololá	3	Marzo	2023-03-13T00:00:00	2024-11-08T04:00:00	3	Temperatura mínima	11.7
11596	7	Sololá	701	Sololá	1	Sololá	3	Marzo	2023-03-13T00:00:00	2024-11-08T04:00:00	5	Humedad	95
11597	7	Sololá	701	Sololá	1	Sololá	3	Marzo	2023-03-13T00:00:00	2024-11-08T04:00:00	6	Velocidad del viento	0
11598	7	Sololá	701	Sololá	1	Sololá	3	Marzo	2023-03-13T00:00:00	2024-11-08T04:00:00	7	Dirección del viento	0
11599	7	Sololá	701	Sololá	1	Sololá	3	Marzo	2023-03-13T00:00:00	2024-11-08T04:00:00	1	Precipitación	0
11600	7	Sololá	701	Sololá	1	Sololá	3	Marzo	2023-03-13T00:00:00	2024-11-08T04:00:00	8	Radiación solar	0
11601	7	Sololá	701	Sololá	1	Sololá	3	Marzo	2023-03-13T00:00:00	2024-11-08T05:00:00	2	Temperatura media	10.9
11602	7	Sololá	701	Sololá	1	Sololá	3	Marzo	2023-03-13T00:00:00	2024-11-08T05:00:00	4	Temperatura máxima	11.7
11603	7	Sololá	701	Sololá	1	Sololá	3	Marzo	2023-03-13T00:00:00	2024-11-08T05:00:00	3	Temperatura mínima	10.9
11604	7	Sololá	701	Sololá	1	Sololá	3	Marzo	2023-03-13T00:00:00	2024-11-08T05:00:00	5	Humedad	95
11605	7	Sololá	701	Sololá	1	Sololá	3	Marzo	2023-03-13T00:00:00	2024-11-08T05:00:00	6	Velocidad del viento	0
11606	7	Sololá	701	Sololá	1	Sololá	3	Marzo	2023-03-13T00:00:00	2024-11-08T05:00:00	7	Dirección del viento	0
11607	7	Sololá	701	Sololá	1	Sololá	3	Marzo	2023-03-13T00:00:00	2024-11-08T05:00:00	1	Precipitación	0
11608	7	Sololá	701	Sololá	1	Sololá	3	Marzo	2023-03-13T00:00:00	2024-11-08T05:00:00	8	Radiación solar	0
11609	7	Sololá	701	Sololá	1	Sololá	3	Marzo	2023-03-13T00:00:00	2024-11-08T06:00:00	2	Temperatura media	10.7
11610	7	Sololá	701	Sololá	1	Sololá	3	Marzo	2023-03-13T00:00:00	2024-11-08T06:00:00	4	Temperatura máxima	10.9
11611	7	Sololá	701	Sololá	1	Sololá	3	Marzo	2023-03-13T00:00:00	2024-11-08T06:00:00	3	Temperatura mínima	10.7
11612	7	Sololá	701	Sololá	1	Sololá	3	Marzo	2023-03-13T00:00:00	2024-11-08T06:00:00	5	Humedad	95
11613	7	Sololá	701	Sololá	1	Sololá	3	Marzo	2023-03-13T00:00:00	2024-11-08T06:00:00	6	Velocidad del viento	0
11614	7	Sololá	701	Sololá	1	Sololá	3	Marzo	2023-03-13T00:00:00	2024-11-08T06:00:00	7	Dirección del viento	0
11615	7	Sololá	701	Sololá	1	Sololá	3	Marzo	2023-03-13T00:00:00	2024-11-08T06:00:00	1	Precipitación	0
11616	7	Sololá	701	Sololá	1	Sololá	3	Marzo	2023-03-13T00:00:00	2024-11-08T06:00:00	8	Radiación solar	0
11617	7	Sololá	701	Sololá	1	Sololá	3	Marzo	2023-03-13T00:00:00	2024-11-08T07:00:00	2	Temperatura media	10.8
11618	7	Sololá	701	Sololá	1	Sololá	3	Marzo	2023-03-13T00:00:00	2024-11-08T07:00:00	4	Temperatura máxima	11
11619	7	Sololá	701	Sololá	1	Sololá	3	Marzo	2023-03-13T00:00:00	2024-11-08T07:00:00	3	Temperatura mínima	10.6
11620	7	Sololá	701	Sololá	1	Sololá	3	Marzo	2023-03-13T00:00:00	2024-11-08T07:00:00	5	Humedad	94
11621	7	Sololá	701	Sololá	1	Sololá	3	Marzo	2023-03-13T00:00:00	2024-11-08T07:00:00	6	Velocidad del viento	0
11622	7	Sololá	701	Sololá	1	Sololá	3	Marzo	2023-03-13T00:00:00	2024-11-08T07:00:00	7	Dirección del viento	0
11623	7	Sololá	701	Sololá	1	Sololá	3	Marzo	2023-03-13T00:00:00	2024-11-08T07:00:00	1	Precipitación	0
11624	7	Sololá	701	Sololá	1	Sololá	3	Marzo	2023-03-13T00:00:00	2024-11-08T07:00:00	8	Radiación solar	14
11625	7	Sololá	701	Sololá	1	Sololá	3	Marzo	2023-03-13T00:00:00	2024-11-08T08:00:00	2	Temperatura media	10.9
11626	7	Sololá	701	Sololá	1	Sololá	3	Marzo	2023-03-13T00:00:00	2024-11-08T08:00:00	4	Temperatura máxima	11.1
11627	7	Sololá	701	Sololá	1	Sololá	3	Marzo	2023-03-13T00:00:00	2024-11-08T08:00:00	3	Temperatura mínima	10.6
11628	7	Sololá	701	Sololá	1	Sololá	3	Marzo	2023-03-13T00:00:00	2024-11-08T08:00:00	5	Humedad	95
11629	7	Sololá	701	Sololá	1	Sololá	3	Marzo	2023-03-13T00:00:00	2024-11-08T08:00:00	6	Velocidad del viento	0
11630	7	Sololá	701	Sololá	1	Sololá	3	Marzo	2023-03-13T00:00:00	2024-11-08T08:00:00	7	Dirección del viento	0
11631	7	Sololá	701	Sololá	1	Sololá	3	Marzo	2023-03-13T00:00:00	2024-11-08T08:00:00	1	Precipitación	0.2
11632	7	Sololá	701	Sololá	1	Sololá	3	Marzo	2023-03-13T00:00:00	2024-11-08T08:00:00	8	Radiación solar	72
11633	7	Sololá	701	Sololá	1	Sololá	3	Marzo	2023-03-13T00:00:00	2024-11-08T09:00:00	2	Temperatura media	12.8
11634	7	Sololá	701	Sololá	1	Sololá	3	Marzo	2023-03-13T00:00:00	2024-11-08T09:00:00	4	Temperatura máxima	12.8
11635	7	Sololá	701	Sololá	1	Sololá	3	Marzo	2023-03-13T00:00:00	2024-11-08T09:00:00	3	Temperatura mínima	10.9
11636	7	Sololá	701	Sololá	1	Sololá	3	Marzo	2023-03-13T00:00:00	2024-11-08T09:00:00	5	Humedad	95
11637	7	Sololá	701	Sololá	1	Sololá	3	Marzo	2023-03-13T00:00:00	2024-11-08T09:00:00	6	Velocidad del viento	0
11638	7	Sololá	701	Sololá	1	Sololá	3	Marzo	2023-03-13T00:00:00	2024-11-08T09:00:00	7	Dirección del viento	0
11639	7	Sololá	701	Sololá	1	Sololá	3	Marzo	2023-03-13T00:00:00	2024-11-08T09:00:00	1	Precipitación	0
11640	7	Sololá	701	Sololá	1	Sololá	3	Marzo	2023-03-13T00:00:00	2024-11-08T09:00:00	8	Radiación solar	472
11641	7	Sololá	701	Sololá	1	Sololá	3	Marzo	2023-03-13T00:00:00	2024-11-08T10:00:00	2	Temperatura media	16.6
11642	7	Sololá	701	Sololá	1	Sololá	3	Marzo	2023-03-13T00:00:00	2024-11-08T10:00:00	4	Temperatura máxima	16.7
11643	7	Sololá	701	Sololá	1	Sololá	3	Marzo	2023-03-13T00:00:00	2024-11-08T10:00:00	3	Temperatura mínima	12.8
11644	7	Sololá	701	Sololá	1	Sololá	3	Marzo	2023-03-13T00:00:00	2024-11-08T10:00:00	5	Humedad	85
11645	7	Sololá	701	Sololá	1	Sololá	3	Marzo	2023-03-13T00:00:00	2024-11-08T10:00:00	6	Velocidad del viento	0
11646	7	Sololá	701	Sololá	1	Sololá	3	Marzo	2023-03-13T00:00:00	2024-11-08T10:00:00	7	Dirección del viento	0
11647	7	Sololá	701	Sololá	1	Sololá	3	Marzo	2023-03-13T00:00:00	2024-11-08T10:00:00	1	Precipitación	0
11648	7	Sololá	701	Sololá	1	Sololá	3	Marzo	2023-03-13T00:00:00	2024-11-08T10:00:00	8	Radiación solar	727
11649	7	Sololá	701	Sololá	1	Sololá	3	Marzo	2023-03-13T00:00:00	2024-11-08T11:00:00	2	Temperatura media	18.8
11650	7	Sololá	701	Sololá	1	Sololá	3	Marzo	2023-03-13T00:00:00	2024-11-08T11:00:00	4	Temperatura máxima	18.8
11651	7	Sololá	701	Sololá	1	Sololá	3	Marzo	2023-03-13T00:00:00	2024-11-08T11:00:00	3	Temperatura mínima	16.7
11652	7	Sololá	701	Sololá	1	Sololá	3	Marzo	2023-03-13T00:00:00	2024-11-08T11:00:00	5	Humedad	77
11653	7	Sololá	701	Sololá	1	Sololá	3	Marzo	2023-03-13T00:00:00	2024-11-08T11:00:00	6	Velocidad del viento	0
11654	7	Sololá	701	Sololá	1	Sololá	3	Marzo	2023-03-13T00:00:00	2024-11-08T11:00:00	7	Dirección del viento	0
11655	7	Sololá	701	Sololá	1	Sololá	3	Marzo	2023-03-13T00:00:00	2024-11-08T11:00:00	1	Precipitación	0
11656	7	Sololá	701	Sololá	1	Sololá	3	Marzo	2023-03-13T00:00:00	2024-11-08T11:00:00	8	Radiación solar	879
11657	7	Sololá	701	Sololá	1	Sololá	3	Marzo	2023-03-13T00:00:00	2024-11-08T12:00:00	2	Temperatura media	20.2
11658	7	Sololá	701	Sololá	1	Sololá	3	Marzo	2023-03-13T00:00:00	2024-11-08T12:00:00	4	Temperatura máxima	20.2
11659	7	Sololá	701	Sololá	1	Sololá	3	Marzo	2023-03-13T00:00:00	2024-11-08T12:00:00	3	Temperatura mínima	18.8
11660	7	Sololá	701	Sololá	1	Sololá	3	Marzo	2023-03-13T00:00:00	2024-11-08T12:00:00	5	Humedad	74
11661	7	Sololá	701	Sololá	1	Sololá	3	Marzo	2023-03-13T00:00:00	2024-11-08T12:00:00	6	Velocidad del viento	0
11662	7	Sololá	701	Sololá	1	Sololá	3	Marzo	2023-03-13T00:00:00	2024-11-08T12:00:00	7	Dirección del viento	0
11663	7	Sololá	701	Sololá	1	Sololá	3	Marzo	2023-03-13T00:00:00	2024-11-08T12:00:00	1	Precipitación	0
11664	7	Sololá	701	Sololá	1	Sololá	3	Marzo	2023-03-13T00:00:00	2024-11-08T12:00:00	8	Radiación solar	885
11665	7	Sololá	701	Sololá	1	Sololá	3	Marzo	2023-03-13T00:00:00	2024-11-08T13:00:00	2	Temperatura media	19.8
11666	7	Sololá	701	Sololá	1	Sololá	3	Marzo	2023-03-13T00:00:00	2024-11-08T13:00:00	4	Temperatura máxima	20.2
11667	7	Sololá	701	Sololá	1	Sololá	3	Marzo	2023-03-13T00:00:00	2024-11-08T13:00:00	3	Temperatura mínima	19.7
11668	7	Sololá	701	Sololá	1	Sololá	3	Marzo	2023-03-13T00:00:00	2024-11-08T13:00:00	5	Humedad	78
11669	7	Sololá	701	Sololá	1	Sololá	3	Marzo	2023-03-13T00:00:00	2024-11-08T13:00:00	6	Velocidad del viento	0
11670	7	Sololá	701	Sololá	1	Sololá	3	Marzo	2023-03-13T00:00:00	2024-11-08T13:00:00	7	Dirección del viento	0
11671	7	Sololá	701	Sololá	1	Sololá	3	Marzo	2023-03-13T00:00:00	2024-11-08T13:00:00	1	Precipitación	0
11672	7	Sololá	701	Sololá	1	Sololá	3	Marzo	2023-03-13T00:00:00	2024-11-08T13:00:00	8	Radiación solar	390
11673	7	Sololá	701	Sololá	1	Sololá	3	Marzo	2023-03-13T00:00:00	2024-11-08T14:00:00	2	Temperatura media	19.1
11674	7	Sololá	701	Sololá	1	Sololá	3	Marzo	2023-03-13T00:00:00	2024-11-08T14:00:00	4	Temperatura máxima	19.8
11675	7	Sololá	701	Sololá	1	Sololá	3	Marzo	2023-03-13T00:00:00	2024-11-08T14:00:00	3	Temperatura mínima	18.8
11676	7	Sololá	701	Sololá	1	Sololá	3	Marzo	2023-03-13T00:00:00	2024-11-08T14:00:00	5	Humedad	81
11677	7	Sololá	701	Sololá	1	Sololá	3	Marzo	2023-03-13T00:00:00	2024-11-08T14:00:00	6	Velocidad del viento	0
11678	7	Sololá	701	Sololá	1	Sololá	3	Marzo	2023-03-13T00:00:00	2024-11-08T14:00:00	7	Dirección del viento	0
11679	7	Sololá	701	Sololá	1	Sololá	3	Marzo	2023-03-13T00:00:00	2024-11-08T14:00:00	1	Precipitación	0
11680	7	Sololá	701	Sololá	1	Sololá	3	Marzo	2023-03-13T00:00:00	2024-11-08T14:00:00	8	Radiación solar	295
11681	7	Sololá	701	Sololá	1	Sololá	3	Marzo	2023-03-13T00:00:00	2024-11-08T15:00:00	2	Temperatura media	18.6
11682	7	Sololá	701	Sololá	1	Sololá	3	Marzo	2023-03-13T00:00:00	2024-11-08T15:00:00	4	Temperatura máxima	19.1
11683	7	Sololá	701	Sololá	1	Sololá	3	Marzo	2023-03-13T00:00:00	2024-11-08T15:00:00	3	Temperatura mínima	18.4
11684	7	Sololá	701	Sololá	1	Sololá	3	Marzo	2023-03-13T00:00:00	2024-11-08T15:00:00	5	Humedad	83
11685	7	Sololá	701	Sololá	1	Sololá	3	Marzo	2023-03-13T00:00:00	2024-11-08T15:00:00	6	Velocidad del viento	0
11686	7	Sololá	701	Sololá	1	Sololá	3	Marzo	2023-03-13T00:00:00	2024-11-08T15:00:00	7	Dirección del viento	0
11687	7	Sololá	701	Sololá	1	Sololá	3	Marzo	2023-03-13T00:00:00	2024-11-08T15:00:00	1	Precipitación	0
11688	7	Sololá	701	Sololá	1	Sololá	3	Marzo	2023-03-13T00:00:00	2024-11-08T15:00:00	8	Radiación solar	85
11689	7	Sololá	701	Sololá	1	Sololá	3	Marzo	2023-03-13T00:00:00	2024-11-08T16:00:00	2	Temperatura media	16.4
11690	7	Sololá	701	Sololá	1	Sololá	3	Marzo	2023-03-13T00:00:00	2024-11-08T16:00:00	4	Temperatura máxima	18.6
11691	7	Sololá	701	Sololá	1	Sololá	3	Marzo	2023-03-13T00:00:00	2024-11-08T16:00:00	3	Temperatura mínima	16.4
11692	7	Sololá	701	Sololá	1	Sololá	3	Marzo	2023-03-13T00:00:00	2024-11-08T16:00:00	5	Humedad	90
11693	7	Sololá	701	Sololá	1	Sololá	3	Marzo	2023-03-13T00:00:00	2024-11-08T16:00:00	6	Velocidad del viento	0
11694	7	Sololá	701	Sololá	1	Sololá	3	Marzo	2023-03-13T00:00:00	2024-11-08T16:00:00	7	Dirección del viento	0
11695	7	Sololá	701	Sololá	1	Sololá	3	Marzo	2023-03-13T00:00:00	2024-11-08T16:00:00	1	Precipitación	0
11696	7	Sololá	701	Sololá	1	Sololá	3	Marzo	2023-03-13T00:00:00	2024-11-08T16:00:00	8	Radiación solar	69
11697	7	Sololá	701	Sololá	1	Sololá	3	Marzo	2023-03-13T00:00:00	2024-11-08T17:00:00	2	Temperatura media	16.1
11698	7	Sololá	701	Sololá	1	Sololá	3	Marzo	2023-03-13T00:00:00	2024-11-08T17:00:00	4	Temperatura máxima	16.4
11699	7	Sololá	701	Sololá	1	Sololá	3	Marzo	2023-03-13T00:00:00	2024-11-08T17:00:00	3	Temperatura mínima	16.1
11700	7	Sololá	701	Sololá	1	Sololá	3	Marzo	2023-03-13T00:00:00	2024-11-08T17:00:00	5	Humedad	92
11701	7	Sololá	701	Sololá	1	Sololá	3	Marzo	2023-03-13T00:00:00	2024-11-08T17:00:00	6	Velocidad del viento	0
11702	7	Sololá	701	Sololá	1	Sololá	3	Marzo	2023-03-13T00:00:00	2024-11-08T17:00:00	7	Dirección del viento	0
11703	7	Sololá	701	Sololá	1	Sololá	3	Marzo	2023-03-13T00:00:00	2024-11-08T17:00:00	1	Precipitación	0
11704	7	Sololá	701	Sololá	1	Sololá	3	Marzo	2023-03-13T00:00:00	2024-11-08T17:00:00	8	Radiación solar	35
11705	7	Sololá	701	Sololá	1	Sololá	3	Marzo	2023-03-13T00:00:00	2024-11-08T18:00:00	2	Temperatura media	15.7
11706	7	Sololá	701	Sololá	1	Sololá	3	Marzo	2023-03-13T00:00:00	2024-11-08T18:00:00	4	Temperatura máxima	16.1
11707	7	Sololá	701	Sololá	1	Sololá	3	Marzo	2023-03-13T00:00:00	2024-11-08T18:00:00	3	Temperatura mínima	15.7
11708	7	Sololá	701	Sololá	1	Sololá	3	Marzo	2023-03-13T00:00:00	2024-11-08T18:00:00	5	Humedad	93
11709	7	Sololá	701	Sololá	1	Sololá	3	Marzo	2023-03-13T00:00:00	2024-11-08T18:00:00	6	Velocidad del viento	0
11710	7	Sololá	701	Sololá	1	Sololá	3	Marzo	2023-03-13T00:00:00	2024-11-08T18:00:00	7	Dirección del viento	0
11711	7	Sololá	701	Sololá	1	Sololá	3	Marzo	2023-03-13T00:00:00	2024-11-08T18:00:00	1	Precipitación	0
11712	7	Sololá	701	Sololá	1	Sololá	3	Marzo	2023-03-13T00:00:00	2024-11-08T18:00:00	8	Radiación solar	12
11713	7	Sololá	701	Sololá	1	Sololá	3	Marzo	2023-03-13T00:00:00	2024-11-08T19:00:00	2	Temperatura media	15.3
11714	7	Sololá	701	Sololá	1	Sololá	3	Marzo	2023-03-13T00:00:00	2024-11-08T19:00:00	4	Temperatura máxima	15.7
11715	7	Sololá	701	Sololá	1	Sololá	3	Marzo	2023-03-13T00:00:00	2024-11-08T19:00:00	3	Temperatura mínima	15.3
11716	7	Sololá	701	Sololá	1	Sololá	3	Marzo	2023-03-13T00:00:00	2024-11-08T19:00:00	5	Humedad	94
11717	7	Sololá	701	Sololá	1	Sololá	3	Marzo	2023-03-13T00:00:00	2024-11-08T19:00:00	6	Velocidad del viento	0
11718	7	Sololá	701	Sololá	1	Sololá	3	Marzo	2023-03-13T00:00:00	2024-11-08T19:00:00	7	Dirección del viento	0
11719	7	Sololá	701	Sololá	1	Sololá	3	Marzo	2023-03-13T00:00:00	2024-11-08T19:00:00	1	Precipitación	0
11720	7	Sololá	701	Sololá	1	Sololá	3	Marzo	2023-03-13T00:00:00	2024-11-08T19:00:00	8	Radiación solar	0
11721	7	Sololá	701	Sololá	1	Sololá	3	Marzo	2023-03-13T00:00:00	2024-11-08T20:00:00	2	Temperatura media	15.1
11722	7	Sololá	701	Sololá	1	Sololá	3	Marzo	2023-03-13T00:00:00	2024-11-08T20:00:00	4	Temperatura máxima	15.3
11723	7	Sololá	701	Sololá	1	Sololá	3	Marzo	2023-03-13T00:00:00	2024-11-08T20:00:00	3	Temperatura mínima	15.1
11724	7	Sololá	701	Sololá	1	Sololá	3	Marzo	2023-03-13T00:00:00	2024-11-08T20:00:00	5	Humedad	94
11725	7	Sololá	701	Sololá	1	Sololá	3	Marzo	2023-03-13T00:00:00	2024-11-08T20:00:00	6	Velocidad del viento	0
11726	7	Sololá	701	Sololá	1	Sololá	3	Marzo	2023-03-13T00:00:00	2024-11-08T20:00:00	7	Dirección del viento	0
11727	7	Sololá	701	Sololá	1	Sololá	3	Marzo	2023-03-13T00:00:00	2024-11-08T20:00:00	1	Precipitación	0
11728	7	Sololá	701	Sololá	1	Sololá	3	Marzo	2023-03-13T00:00:00	2024-11-08T20:00:00	8	Radiación solar	0
11729	7	Sololá	701	Sololá	1	Sololá	3	Marzo	2023-03-13T00:00:00	2024-11-08T21:00:00	2	Temperatura media	14.8
11730	7	Sololá	701	Sololá	1	Sololá	3	Marzo	2023-03-13T00:00:00	2024-11-08T21:00:00	4	Temperatura máxima	15.1
11731	7	Sololá	701	Sololá	1	Sololá	3	Marzo	2023-03-13T00:00:00	2024-11-08T21:00:00	3	Temperatura mínima	14.8
11732	7	Sololá	701	Sololá	1	Sololá	3	Marzo	2023-03-13T00:00:00	2024-11-08T21:00:00	5	Humedad	94
11733	7	Sololá	701	Sololá	1	Sololá	3	Marzo	2023-03-13T00:00:00	2024-11-08T21:00:00	6	Velocidad del viento	0
11734	7	Sololá	701	Sololá	1	Sololá	3	Marzo	2023-03-13T00:00:00	2024-11-08T21:00:00	7	Dirección del viento	0
11735	7	Sololá	701	Sololá	1	Sololá	3	Marzo	2023-03-13T00:00:00	2024-11-08T21:00:00	1	Precipitación	0
11736	7	Sololá	701	Sololá	1	Sololá	3	Marzo	2023-03-13T00:00:00	2024-11-08T21:00:00	8	Radiación solar	0
11737	7	Sololá	701	Sololá	1	Sololá	3	Marzo	2023-03-13T00:00:00	2024-11-08T22:00:00	2	Temperatura media	14.9
11738	7	Sololá	701	Sololá	1	Sololá	3	Marzo	2023-03-13T00:00:00	2024-11-08T22:00:00	4	Temperatura máxima	14.9
11739	7	Sololá	701	Sololá	1	Sololá	3	Marzo	2023-03-13T00:00:00	2024-11-08T22:00:00	3	Temperatura mínima	14.8
11740	7	Sololá	701	Sololá	1	Sololá	3	Marzo	2023-03-13T00:00:00	2024-11-08T22:00:00	5	Humedad	95
11741	7	Sololá	701	Sololá	1	Sololá	3	Marzo	2023-03-13T00:00:00	2024-11-08T22:00:00	6	Velocidad del viento	0
11742	7	Sololá	701	Sololá	1	Sololá	3	Marzo	2023-03-13T00:00:00	2024-11-08T22:00:00	7	Dirección del viento	0
11743	7	Sololá	701	Sololá	1	Sololá	3	Marzo	2023-03-13T00:00:00	2024-11-08T22:00:00	1	Precipitación	1.2
11744	7	Sololá	701	Sololá	1	Sololá	3	Marzo	2023-03-13T00:00:00	2024-11-08T22:00:00	8	Radiación solar	0
11745	7	Sololá	701	Sololá	1	Sololá	3	Marzo	2023-03-13T00:00:00	2024-11-08T23:00:00	2	Temperatura media	14.6
11746	7	Sololá	701	Sololá	1	Sololá	3	Marzo	2023-03-13T00:00:00	2024-11-08T23:00:00	4	Temperatura máxima	14.9
11747	7	Sololá	701	Sololá	1	Sololá	3	Marzo	2023-03-13T00:00:00	2024-11-08T23:00:00	3	Temperatura mínima	14.6
11748	7	Sololá	701	Sololá	1	Sololá	3	Marzo	2023-03-13T00:00:00	2024-11-08T23:00:00	5	Humedad	96
11749	7	Sololá	701	Sololá	1	Sololá	3	Marzo	2023-03-13T00:00:00	2024-11-08T23:00:00	6	Velocidad del viento	0
11750	7	Sololá	701	Sololá	1	Sololá	3	Marzo	2023-03-13T00:00:00	2024-11-08T23:00:00	7	Dirección del viento	0
11751	7	Sololá	701	Sololá	1	Sololá	3	Marzo	2023-03-13T00:00:00	2024-11-08T23:00:00	1	Precipitación	2.2
11752	7	Sololá	701	Sololá	1	Sololá	3	Marzo	2023-03-13T00:00:00	2024-11-08T23:00:00	8	Radiación solar	0
11753	7	Sololá	701	Sololá	1	Sololá	3	Marzo	2023-03-14T00:00:00	2024-11-08T00:00:00	2	Temperatura media	13
11754	7	Sololá	701	Sololá	1	Sololá	3	Marzo	2023-03-14T00:00:00	2024-11-08T00:00:00	4	Temperatura máxima	14.7
11755	7	Sololá	701	Sololá	1	Sololá	3	Marzo	2023-03-14T00:00:00	2024-11-08T00:00:00	3	Temperatura mínima	13
11756	7	Sololá	701	Sololá	1	Sololá	3	Marzo	2023-03-14T00:00:00	2024-11-08T00:00:00	5	Humedad	95
11757	7	Sololá	701	Sololá	1	Sololá	3	Marzo	2023-03-14T00:00:00	2024-11-08T00:00:00	6	Velocidad del viento	0
11758	7	Sololá	701	Sololá	1	Sololá	3	Marzo	2023-03-14T00:00:00	2024-11-08T00:00:00	7	Dirección del viento	0
11759	7	Sololá	701	Sololá	1	Sololá	3	Marzo	2023-03-14T00:00:00	2024-11-08T00:00:00	1	Precipitación	0
11760	7	Sololá	701	Sololá	1	Sololá	3	Marzo	2023-03-14T00:00:00	2024-11-08T00:00:00	8	Radiación solar	0
11761	7	Sololá	701	Sololá	1	Sololá	3	Marzo	2023-03-14T00:00:00	2024-11-08T01:00:00	2	Temperatura media	12.1
11762	7	Sololá	701	Sololá	1	Sololá	3	Marzo	2023-03-14T00:00:00	2024-11-08T01:00:00	4	Temperatura máxima	13
11763	7	Sololá	701	Sololá	1	Sololá	3	Marzo	2023-03-14T00:00:00	2024-11-08T01:00:00	3	Temperatura mínima	12.1
11764	7	Sololá	701	Sololá	1	Sololá	3	Marzo	2023-03-14T00:00:00	2024-11-08T01:00:00	5	Humedad	94
11765	7	Sololá	701	Sololá	1	Sololá	3	Marzo	2023-03-14T00:00:00	2024-11-08T01:00:00	6	Velocidad del viento	0
11766	7	Sololá	701	Sololá	1	Sololá	3	Marzo	2023-03-14T00:00:00	2024-11-08T01:00:00	7	Dirección del viento	0
11767	7	Sololá	701	Sololá	1	Sololá	3	Marzo	2023-03-14T00:00:00	2024-11-08T01:00:00	1	Precipitación	0
11768	7	Sololá	701	Sololá	1	Sololá	3	Marzo	2023-03-14T00:00:00	2024-11-08T01:00:00	8	Radiación solar	0
11769	7	Sololá	701	Sololá	1	Sololá	3	Marzo	2023-03-14T00:00:00	2024-11-08T02:00:00	2	Temperatura media	11.6
11770	7	Sololá	701	Sololá	1	Sololá	3	Marzo	2023-03-14T00:00:00	2024-11-08T02:00:00	4	Temperatura máxima	12.1
11771	7	Sololá	701	Sololá	1	Sololá	3	Marzo	2023-03-14T00:00:00	2024-11-08T02:00:00	3	Temperatura mínima	11.4
11772	7	Sololá	701	Sololá	1	Sololá	3	Marzo	2023-03-14T00:00:00	2024-11-08T02:00:00	5	Humedad	95
11773	7	Sololá	701	Sololá	1	Sololá	3	Marzo	2023-03-14T00:00:00	2024-11-08T02:00:00	6	Velocidad del viento	0
11774	7	Sololá	701	Sololá	1	Sololá	3	Marzo	2023-03-14T00:00:00	2024-11-08T02:00:00	7	Dirección del viento	0
11775	7	Sololá	701	Sololá	1	Sololá	3	Marzo	2023-03-14T00:00:00	2024-11-08T02:00:00	1	Precipitación	0
11776	7	Sololá	701	Sololá	1	Sololá	3	Marzo	2023-03-14T00:00:00	2024-11-08T02:00:00	8	Radiación solar	0
11777	7	Sololá	701	Sololá	1	Sololá	3	Marzo	2023-03-14T00:00:00	2024-11-08T03:00:00	2	Temperatura media	11.6
11778	7	Sololá	701	Sololá	1	Sololá	3	Marzo	2023-03-14T00:00:00	2024-11-08T03:00:00	4	Temperatura máxima	11.7
11779	7	Sololá	701	Sololá	1	Sololá	3	Marzo	2023-03-14T00:00:00	2024-11-08T03:00:00	3	Temperatura mínima	11.5
11780	7	Sololá	701	Sololá	1	Sololá	3	Marzo	2023-03-14T00:00:00	2024-11-08T03:00:00	5	Humedad	94
11781	7	Sololá	701	Sololá	1	Sololá	3	Marzo	2023-03-14T00:00:00	2024-11-08T03:00:00	6	Velocidad del viento	0
11782	7	Sololá	701	Sololá	1	Sololá	3	Marzo	2023-03-14T00:00:00	2024-11-08T03:00:00	7	Dirección del viento	0
11783	7	Sololá	701	Sololá	1	Sololá	3	Marzo	2023-03-14T00:00:00	2024-11-08T03:00:00	1	Precipitación	0
11784	7	Sololá	701	Sololá	1	Sololá	3	Marzo	2023-03-14T00:00:00	2024-11-08T03:00:00	8	Radiación solar	0
11785	7	Sololá	701	Sololá	1	Sololá	3	Marzo	2023-03-14T00:00:00	2024-11-08T04:00:00	2	Temperatura media	12.2
11786	7	Sololá	701	Sololá	1	Sololá	3	Marzo	2023-03-14T00:00:00	2024-11-08T04:00:00	4	Temperatura máxima	12.2
11787	7	Sololá	701	Sololá	1	Sololá	3	Marzo	2023-03-14T00:00:00	2024-11-08T04:00:00	3	Temperatura mínima	11.5
11788	7	Sololá	701	Sololá	1	Sololá	3	Marzo	2023-03-14T00:00:00	2024-11-08T04:00:00	5	Humedad	92
11789	7	Sololá	701	Sololá	1	Sololá	3	Marzo	2023-03-14T00:00:00	2024-11-08T04:00:00	6	Velocidad del viento	0
11790	7	Sololá	701	Sololá	1	Sololá	3	Marzo	2023-03-14T00:00:00	2024-11-08T04:00:00	7	Dirección del viento	0
11791	7	Sololá	701	Sololá	1	Sololá	3	Marzo	2023-03-14T00:00:00	2024-11-08T04:00:00	1	Precipitación	0
11792	7	Sololá	701	Sololá	1	Sololá	3	Marzo	2023-03-14T00:00:00	2024-11-08T04:00:00	8	Radiación solar	0
11793	7	Sololá	701	Sololá	1	Sololá	3	Marzo	2023-03-14T00:00:00	2024-11-08T05:00:00	2	Temperatura media	12.3
11794	7	Sololá	701	Sololá	1	Sololá	3	Marzo	2023-03-14T00:00:00	2024-11-08T05:00:00	4	Temperatura máxima	12.5
11795	7	Sololá	701	Sololá	1	Sololá	3	Marzo	2023-03-14T00:00:00	2024-11-08T05:00:00	3	Temperatura mínima	12.2
11796	7	Sololá	701	Sololá	1	Sololá	3	Marzo	2023-03-14T00:00:00	2024-11-08T05:00:00	5	Humedad	91
11797	7	Sololá	701	Sololá	1	Sololá	3	Marzo	2023-03-14T00:00:00	2024-11-08T05:00:00	6	Velocidad del viento	0
11798	7	Sololá	701	Sololá	1	Sololá	3	Marzo	2023-03-14T00:00:00	2024-11-08T05:00:00	7	Dirección del viento	0
11799	7	Sololá	701	Sololá	1	Sololá	3	Marzo	2023-03-14T00:00:00	2024-11-08T05:00:00	1	Precipitación	0
11800	7	Sololá	701	Sololá	1	Sololá	3	Marzo	2023-03-14T00:00:00	2024-11-08T05:00:00	8	Radiación solar	0
11801	7	Sololá	701	Sololá	1	Sololá	3	Marzo	2023-03-14T00:00:00	2024-11-08T06:00:00	2	Temperatura media	12.2
11802	7	Sololá	701	Sololá	1	Sololá	3	Marzo	2023-03-14T00:00:00	2024-11-08T06:00:00	4	Temperatura máxima	12.3
11803	7	Sololá	701	Sololá	1	Sololá	3	Marzo	2023-03-14T00:00:00	2024-11-08T06:00:00	3	Temperatura mínima	12.1
11804	7	Sololá	701	Sololá	1	Sololá	3	Marzo	2023-03-14T00:00:00	2024-11-08T06:00:00	5	Humedad	92
11805	7	Sololá	701	Sololá	1	Sololá	3	Marzo	2023-03-14T00:00:00	2024-11-08T06:00:00	6	Velocidad del viento	0
11806	7	Sololá	701	Sololá	1	Sololá	3	Marzo	2023-03-14T00:00:00	2024-11-08T06:00:00	7	Dirección del viento	0
11807	7	Sololá	701	Sololá	1	Sololá	3	Marzo	2023-03-14T00:00:00	2024-11-08T06:00:00	1	Precipitación	0
11808	7	Sololá	701	Sololá	1	Sololá	3	Marzo	2023-03-14T00:00:00	2024-11-08T06:00:00	8	Radiación solar	0
11809	7	Sololá	701	Sololá	1	Sololá	3	Marzo	2023-03-14T00:00:00	2024-11-08T07:00:00	2	Temperatura media	12.2
11810	7	Sololá	701	Sololá	1	Sololá	3	Marzo	2023-03-14T00:00:00	2024-11-08T07:00:00	4	Temperatura máxima	12.3
11811	7	Sololá	701	Sololá	1	Sololá	3	Marzo	2023-03-14T00:00:00	2024-11-08T07:00:00	3	Temperatura mínima	12.2
11812	7	Sololá	701	Sololá	1	Sololá	3	Marzo	2023-03-14T00:00:00	2024-11-08T07:00:00	5	Humedad	91
11813	7	Sololá	701	Sololá	1	Sololá	3	Marzo	2023-03-14T00:00:00	2024-11-08T07:00:00	6	Velocidad del viento	0
11814	7	Sololá	701	Sololá	1	Sololá	3	Marzo	2023-03-14T00:00:00	2024-11-08T07:00:00	7	Dirección del viento	0
11815	7	Sololá	701	Sololá	1	Sololá	3	Marzo	2023-03-14T00:00:00	2024-11-08T07:00:00	1	Precipitación	0
11816	7	Sololá	701	Sololá	1	Sololá	3	Marzo	2023-03-14T00:00:00	2024-11-08T07:00:00	8	Radiación solar	19
11817	7	Sololá	701	Sololá	1	Sololá	3	Marzo	2023-03-14T00:00:00	2024-11-08T08:00:00	2	Temperatura media	12.6
11818	7	Sololá	701	Sololá	1	Sololá	3	Marzo	2023-03-14T00:00:00	2024-11-08T08:00:00	4	Temperatura máxima	12.6
11819	7	Sololá	701	Sololá	1	Sololá	3	Marzo	2023-03-14T00:00:00	2024-11-08T08:00:00	3	Temperatura mínima	12.1
11820	7	Sololá	701	Sololá	1	Sololá	3	Marzo	2023-03-14T00:00:00	2024-11-08T08:00:00	5	Humedad	93
11821	7	Sololá	701	Sololá	1	Sololá	3	Marzo	2023-03-14T00:00:00	2024-11-08T08:00:00	6	Velocidad del viento	0
11822	7	Sololá	701	Sololá	1	Sololá	3	Marzo	2023-03-14T00:00:00	2024-11-08T08:00:00	7	Dirección del viento	0
11823	7	Sololá	701	Sololá	1	Sololá	3	Marzo	2023-03-14T00:00:00	2024-11-08T08:00:00	1	Precipitación	0
11824	7	Sololá	701	Sololá	1	Sololá	3	Marzo	2023-03-14T00:00:00	2024-11-08T08:00:00	8	Radiación solar	84
11825	7	Sololá	701	Sololá	1	Sololá	3	Marzo	2023-03-14T00:00:00	2024-11-08T09:00:00	2	Temperatura media	14.3
11826	7	Sololá	701	Sololá	1	Sololá	3	Marzo	2023-03-14T00:00:00	2024-11-08T09:00:00	4	Temperatura máxima	14.3
11827	7	Sololá	701	Sololá	1	Sololá	3	Marzo	2023-03-14T00:00:00	2024-11-08T09:00:00	3	Temperatura mínima	12.6
11828	7	Sololá	701	Sololá	1	Sololá	3	Marzo	2023-03-14T00:00:00	2024-11-08T09:00:00	5	Humedad	87
11829	7	Sololá	701	Sololá	1	Sololá	3	Marzo	2023-03-14T00:00:00	2024-11-08T09:00:00	6	Velocidad del viento	0
11830	7	Sololá	701	Sololá	1	Sololá	3	Marzo	2023-03-14T00:00:00	2024-11-08T09:00:00	7	Dirección del viento	0
11831	7	Sololá	701	Sololá	1	Sololá	3	Marzo	2023-03-14T00:00:00	2024-11-08T09:00:00	1	Precipitación	0
11832	7	Sololá	701	Sololá	1	Sololá	3	Marzo	2023-03-14T00:00:00	2024-11-08T09:00:00	8	Radiación solar	480
11833	7	Sololá	701	Sololá	1	Sololá	3	Marzo	2023-03-14T00:00:00	2024-11-08T10:00:00	2	Temperatura media	18.7
11834	7	Sololá	701	Sololá	1	Sololá	3	Marzo	2023-03-14T00:00:00	2024-11-08T10:00:00	4	Temperatura máxima	18.7
11835	7	Sololá	701	Sololá	1	Sololá	3	Marzo	2023-03-14T00:00:00	2024-11-08T10:00:00	3	Temperatura mínima	14.3
11836	7	Sololá	701	Sololá	1	Sololá	3	Marzo	2023-03-14T00:00:00	2024-11-08T10:00:00	5	Humedad	76
11837	7	Sololá	701	Sololá	1	Sololá	3	Marzo	2023-03-14T00:00:00	2024-11-08T10:00:00	6	Velocidad del viento	0
11838	7	Sololá	701	Sololá	1	Sololá	3	Marzo	2023-03-14T00:00:00	2024-11-08T10:00:00	7	Dirección del viento	0
11839	7	Sololá	701	Sololá	1	Sololá	3	Marzo	2023-03-14T00:00:00	2024-11-08T10:00:00	1	Precipitación	0
11840	7	Sololá	701	Sololá	1	Sololá	3	Marzo	2023-03-14T00:00:00	2024-11-08T10:00:00	8	Radiación solar	714
11841	7	Sololá	701	Sololá	1	Sololá	3	Marzo	2023-03-14T00:00:00	2024-11-08T11:00:00	2	Temperatura media	20.1
11842	7	Sololá	701	Sololá	1	Sololá	3	Marzo	2023-03-14T00:00:00	2024-11-08T11:00:00	4	Temperatura máxima	20.2
11843	7	Sololá	701	Sololá	1	Sololá	3	Marzo	2023-03-14T00:00:00	2024-11-08T11:00:00	3	Temperatura mínima	18.7
11844	7	Sololá	701	Sololá	1	Sololá	3	Marzo	2023-03-14T00:00:00	2024-11-08T11:00:00	5	Humedad	69
11845	7	Sololá	701	Sololá	1	Sololá	3	Marzo	2023-03-14T00:00:00	2024-11-08T11:00:00	6	Velocidad del viento	0
11846	7	Sololá	701	Sololá	1	Sololá	3	Marzo	2023-03-14T00:00:00	2024-11-08T11:00:00	7	Dirección del viento	0
11847	7	Sololá	701	Sololá	1	Sololá	3	Marzo	2023-03-14T00:00:00	2024-11-08T11:00:00	1	Precipitación	0
11848	7	Sololá	701	Sololá	1	Sololá	3	Marzo	2023-03-14T00:00:00	2024-11-08T11:00:00	8	Radiación solar	873
11849	7	Sololá	701	Sololá	1	Sololá	3	Marzo	2023-03-14T00:00:00	2024-11-08T12:00:00	2	Temperatura media	20.9
11850	7	Sololá	701	Sololá	1	Sololá	3	Marzo	2023-03-14T00:00:00	2024-11-08T12:00:00	4	Temperatura máxima	21.6
11851	7	Sololá	701	Sololá	1	Sololá	3	Marzo	2023-03-14T00:00:00	2024-11-08T12:00:00	3	Temperatura mínima	20.1
11852	7	Sololá	701	Sololá	1	Sololá	3	Marzo	2023-03-14T00:00:00	2024-11-08T12:00:00	5	Humedad	66
11853	7	Sololá	701	Sololá	1	Sololá	3	Marzo	2023-03-14T00:00:00	2024-11-08T12:00:00	6	Velocidad del viento	0
11854	7	Sololá	701	Sololá	1	Sololá	3	Marzo	2023-03-14T00:00:00	2024-11-08T12:00:00	7	Dirección del viento	0
11855	7	Sololá	701	Sololá	1	Sololá	3	Marzo	2023-03-14T00:00:00	2024-11-08T12:00:00	1	Precipitación	0
11856	7	Sololá	701	Sololá	1	Sololá	3	Marzo	2023-03-14T00:00:00	2024-11-08T12:00:00	8	Radiación solar	938
11857	7	Sololá	701	Sololá	1	Sololá	3	Marzo	2023-03-14T00:00:00	2024-11-08T13:00:00	2	Temperatura media	22.2
11858	7	Sololá	701	Sololá	1	Sololá	3	Marzo	2023-03-14T00:00:00	2024-11-08T13:00:00	4	Temperatura máxima	22.3
11859	7	Sololá	701	Sololá	1	Sololá	3	Marzo	2023-03-14T00:00:00	2024-11-08T13:00:00	3	Temperatura mínima	20.9
11860	7	Sololá	701	Sololá	1	Sololá	3	Marzo	2023-03-14T00:00:00	2024-11-08T13:00:00	5	Humedad	68
11861	7	Sololá	701	Sololá	1	Sololá	3	Marzo	2023-03-14T00:00:00	2024-11-08T13:00:00	6	Velocidad del viento	0
11862	7	Sololá	701	Sololá	1	Sololá	3	Marzo	2023-03-14T00:00:00	2024-11-08T13:00:00	7	Dirección del viento	0
11863	7	Sololá	701	Sololá	1	Sololá	3	Marzo	2023-03-14T00:00:00	2024-11-08T13:00:00	1	Precipitación	0
11864	7	Sololá	701	Sololá	1	Sololá	3	Marzo	2023-03-14T00:00:00	2024-11-08T13:00:00	8	Radiación solar	932
11865	7	Sololá	701	Sololá	1	Sololá	3	Marzo	2023-03-14T00:00:00	2024-11-08T14:00:00	2	Temperatura media	21.9
11866	7	Sololá	701	Sololá	1	Sololá	3	Marzo	2023-03-14T00:00:00	2024-11-08T14:00:00	4	Temperatura máxima	22.2
11867	7	Sololá	701	Sololá	1	Sololá	3	Marzo	2023-03-14T00:00:00	2024-11-08T14:00:00	3	Temperatura mínima	21.6
11868	7	Sololá	701	Sololá	1	Sololá	3	Marzo	2023-03-14T00:00:00	2024-11-08T14:00:00	5	Humedad	74
11869	7	Sololá	701	Sololá	1	Sololá	3	Marzo	2023-03-14T00:00:00	2024-11-08T14:00:00	6	Velocidad del viento	0
11870	7	Sololá	701	Sololá	1	Sololá	3	Marzo	2023-03-14T00:00:00	2024-11-08T14:00:00	7	Dirección del viento	0
11871	7	Sololá	701	Sololá	1	Sololá	3	Marzo	2023-03-14T00:00:00	2024-11-08T14:00:00	1	Precipitación	0
11872	7	Sololá	701	Sololá	1	Sololá	3	Marzo	2023-03-14T00:00:00	2024-11-08T14:00:00	8	Radiación solar	570
11873	7	Sololá	701	Sololá	1	Sololá	3	Marzo	2023-03-14T00:00:00	2024-11-08T15:00:00	2	Temperatura media	21.6
11874	7	Sololá	701	Sololá	1	Sololá	3	Marzo	2023-03-14T00:00:00	2024-11-08T15:00:00	4	Temperatura máxima	21.9
11875	7	Sololá	701	Sololá	1	Sololá	3	Marzo	2023-03-14T00:00:00	2024-11-08T15:00:00	3	Temperatura mínima	21.1
11876	7	Sololá	701	Sololá	1	Sololá	3	Marzo	2023-03-14T00:00:00	2024-11-08T15:00:00	5	Humedad	75
11877	7	Sololá	701	Sololá	1	Sololá	3	Marzo	2023-03-14T00:00:00	2024-11-08T15:00:00	6	Velocidad del viento	0
11878	7	Sololá	701	Sololá	1	Sololá	3	Marzo	2023-03-14T00:00:00	2024-11-08T15:00:00	7	Dirección del viento	0
11879	7	Sololá	701	Sololá	1	Sololá	3	Marzo	2023-03-14T00:00:00	2024-11-08T15:00:00	1	Precipitación	0
11880	7	Sololá	701	Sololá	1	Sololá	3	Marzo	2023-03-14T00:00:00	2024-11-08T15:00:00	8	Radiación solar	159
11881	7	Sololá	701	Sololá	1	Sololá	3	Marzo	2023-03-14T00:00:00	2024-11-08T16:00:00	2	Temperatura media	18.4
11882	7	Sololá	701	Sololá	1	Sololá	3	Marzo	2023-03-14T00:00:00	2024-11-08T16:00:00	4	Temperatura máxima	21.7
11883	7	Sololá	701	Sololá	1	Sololá	3	Marzo	2023-03-14T00:00:00	2024-11-08T16:00:00	3	Temperatura mínima	18.4
11884	7	Sololá	701	Sololá	1	Sololá	3	Marzo	2023-03-14T00:00:00	2024-11-08T16:00:00	5	Humedad	86
11885	7	Sololá	701	Sololá	1	Sololá	3	Marzo	2023-03-14T00:00:00	2024-11-08T16:00:00	6	Velocidad del viento	0
11886	7	Sololá	701	Sololá	1	Sololá	3	Marzo	2023-03-14T00:00:00	2024-11-08T16:00:00	7	Dirección del viento	0
11887	7	Sololá	701	Sololá	1	Sololá	3	Marzo	2023-03-14T00:00:00	2024-11-08T16:00:00	1	Precipitación	0
11888	7	Sololá	701	Sololá	1	Sololá	3	Marzo	2023-03-14T00:00:00	2024-11-08T16:00:00	8	Radiación solar	66
11889	7	Sololá	701	Sololá	1	Sololá	3	Marzo	2023-03-14T00:00:00	2024-11-08T17:00:00	2	Temperatura media	17
11890	7	Sololá	701	Sololá	1	Sololá	3	Marzo	2023-03-14T00:00:00	2024-11-08T17:00:00	4	Temperatura máxima	18.4
11891	7	Sololá	701	Sololá	1	Sololá	3	Marzo	2023-03-14T00:00:00	2024-11-08T17:00:00	3	Temperatura mínima	17
11892	7	Sololá	701	Sololá	1	Sololá	3	Marzo	2023-03-14T00:00:00	2024-11-08T17:00:00	5	Humedad	91
11893	7	Sololá	701	Sololá	1	Sololá	3	Marzo	2023-03-14T00:00:00	2024-11-08T17:00:00	6	Velocidad del viento	0
11894	7	Sololá	701	Sololá	1	Sololá	3	Marzo	2023-03-14T00:00:00	2024-11-08T17:00:00	7	Dirección del viento	0
11895	7	Sololá	701	Sololá	1	Sololá	3	Marzo	2023-03-14T00:00:00	2024-11-08T17:00:00	1	Precipitación	0
11896	7	Sololá	701	Sololá	1	Sololá	3	Marzo	2023-03-14T00:00:00	2024-11-08T17:00:00	8	Radiación solar	67
11897	7	Sololá	701	Sololá	1	Sololá	3	Marzo	2023-03-14T00:00:00	2024-11-08T18:00:00	2	Temperatura media	16.8
11898	7	Sololá	701	Sololá	1	Sololá	3	Marzo	2023-03-14T00:00:00	2024-11-08T18:00:00	4	Temperatura máxima	17.2
11899	7	Sololá	701	Sololá	1	Sololá	3	Marzo	2023-03-14T00:00:00	2024-11-08T18:00:00	3	Temperatura mínima	16.8
11900	7	Sololá	701	Sololá	1	Sololá	3	Marzo	2023-03-14T00:00:00	2024-11-08T18:00:00	5	Humedad	91
11901	7	Sololá	701	Sololá	1	Sololá	3	Marzo	2023-03-14T00:00:00	2024-11-08T18:00:00	6	Velocidad del viento	0
11902	7	Sololá	701	Sololá	1	Sololá	3	Marzo	2023-03-14T00:00:00	2024-11-08T18:00:00	7	Dirección del viento	0
11903	7	Sololá	701	Sololá	1	Sololá	3	Marzo	2023-03-14T00:00:00	2024-11-08T18:00:00	1	Precipitación	0
11904	7	Sololá	701	Sololá	1	Sololá	3	Marzo	2023-03-14T00:00:00	2024-11-08T18:00:00	8	Radiación solar	34
11905	7	Sololá	701	Sololá	1	Sololá	3	Marzo	2023-03-14T00:00:00	2024-11-08T19:00:00	2	Temperatura media	16.5
11906	7	Sololá	701	Sololá	1	Sololá	3	Marzo	2023-03-14T00:00:00	2024-11-08T19:00:00	4	Temperatura máxima	16.8
11907	7	Sololá	701	Sololá	1	Sololá	3	Marzo	2023-03-14T00:00:00	2024-11-08T19:00:00	3	Temperatura mínima	16.5
11908	7	Sololá	701	Sololá	1	Sololá	3	Marzo	2023-03-14T00:00:00	2024-11-08T19:00:00	5	Humedad	93
11909	7	Sololá	701	Sololá	1	Sololá	3	Marzo	2023-03-14T00:00:00	2024-11-08T19:00:00	6	Velocidad del viento	0
11910	7	Sololá	701	Sololá	1	Sololá	3	Marzo	2023-03-14T00:00:00	2024-11-08T19:00:00	7	Dirección del viento	0
11911	7	Sololá	701	Sololá	1	Sololá	3	Marzo	2023-03-14T00:00:00	2024-11-08T19:00:00	1	Precipitación	0
11912	7	Sololá	701	Sololá	1	Sololá	3	Marzo	2023-03-14T00:00:00	2024-11-08T19:00:00	8	Radiación solar	0
11913	7	Sololá	701	Sololá	1	Sololá	3	Marzo	2023-03-14T00:00:00	2024-11-08T20:00:00	2	Temperatura media	15.8
11914	7	Sololá	701	Sololá	1	Sololá	3	Marzo	2023-03-14T00:00:00	2024-11-08T20:00:00	4	Temperatura máxima	16.6
11915	7	Sololá	701	Sololá	1	Sololá	3	Marzo	2023-03-14T00:00:00	2024-11-08T20:00:00	3	Temperatura mínima	15.8
11916	7	Sololá	701	Sololá	1	Sololá	3	Marzo	2023-03-14T00:00:00	2024-11-08T20:00:00	5	Humedad	94
11917	7	Sololá	701	Sololá	1	Sololá	3	Marzo	2023-03-14T00:00:00	2024-11-08T20:00:00	6	Velocidad del viento	0
11918	7	Sololá	701	Sololá	1	Sololá	3	Marzo	2023-03-14T00:00:00	2024-11-08T20:00:00	7	Dirección del viento	0
11919	7	Sololá	701	Sololá	1	Sololá	3	Marzo	2023-03-14T00:00:00	2024-11-08T20:00:00	1	Precipitación	0
11920	7	Sololá	701	Sololá	1	Sololá	3	Marzo	2023-03-14T00:00:00	2024-11-08T20:00:00	8	Radiación solar	0
11921	7	Sololá	701	Sololá	1	Sololá	3	Marzo	2023-03-14T00:00:00	2024-11-08T21:00:00	2	Temperatura media	15.3
11922	7	Sololá	701	Sololá	1	Sololá	3	Marzo	2023-03-14T00:00:00	2024-11-08T21:00:00	4	Temperatura máxima	15.8
11923	7	Sololá	701	Sololá	1	Sololá	3	Marzo	2023-03-14T00:00:00	2024-11-08T21:00:00	3	Temperatura mínima	15.3
11924	7	Sololá	701	Sololá	1	Sololá	3	Marzo	2023-03-14T00:00:00	2024-11-08T21:00:00	5	Humedad	94
11925	7	Sololá	701	Sololá	1	Sololá	3	Marzo	2023-03-14T00:00:00	2024-11-08T21:00:00	6	Velocidad del viento	0
11926	7	Sololá	701	Sololá	1	Sololá	3	Marzo	2023-03-14T00:00:00	2024-11-08T21:00:00	7	Dirección del viento	0
11927	7	Sololá	701	Sololá	1	Sololá	3	Marzo	2023-03-14T00:00:00	2024-11-08T21:00:00	1	Precipitación	0
11928	7	Sololá	701	Sololá	1	Sololá	3	Marzo	2023-03-14T00:00:00	2024-11-08T21:00:00	8	Radiación solar	0
11929	7	Sololá	701	Sololá	1	Sololá	3	Marzo	2023-03-14T00:00:00	2024-11-08T22:00:00	2	Temperatura media	14.6
11930	7	Sololá	701	Sololá	1	Sololá	3	Marzo	2023-03-14T00:00:00	2024-11-08T22:00:00	4	Temperatura máxima	15.3
11931	7	Sololá	701	Sololá	1	Sololá	3	Marzo	2023-03-14T00:00:00	2024-11-08T22:00:00	3	Temperatura mínima	14.6
11932	7	Sololá	701	Sololá	1	Sololá	3	Marzo	2023-03-14T00:00:00	2024-11-08T22:00:00	5	Humedad	93
11933	7	Sololá	701	Sololá	1	Sololá	3	Marzo	2023-03-14T00:00:00	2024-11-08T22:00:00	6	Velocidad del viento	0
11934	7	Sololá	701	Sololá	1	Sololá	3	Marzo	2023-03-14T00:00:00	2024-11-08T22:00:00	7	Dirección del viento	0
11935	7	Sololá	701	Sololá	1	Sololá	3	Marzo	2023-03-14T00:00:00	2024-11-08T22:00:00	1	Precipitación	0
11936	7	Sololá	701	Sololá	1	Sololá	3	Marzo	2023-03-14T00:00:00	2024-11-08T22:00:00	8	Radiación solar	0
11937	7	Sololá	701	Sololá	1	Sololá	3	Marzo	2023-03-14T00:00:00	2024-11-08T23:00:00	2	Temperatura media	13.9
11938	7	Sololá	701	Sololá	1	Sololá	3	Marzo	2023-03-14T00:00:00	2024-11-08T23:00:00	4	Temperatura máxima	14.6
11939	7	Sololá	701	Sololá	1	Sololá	3	Marzo	2023-03-14T00:00:00	2024-11-08T23:00:00	3	Temperatura mínima	13.9
11940	7	Sololá	701	Sololá	1	Sololá	3	Marzo	2023-03-14T00:00:00	2024-11-08T23:00:00	5	Humedad	84
11941	7	Sololá	701	Sololá	1	Sololá	3	Marzo	2023-03-14T00:00:00	2024-11-08T23:00:00	6	Velocidad del viento	0
11942	7	Sololá	701	Sololá	1	Sololá	3	Marzo	2023-03-14T00:00:00	2024-11-08T23:00:00	7	Dirección del viento	0
11943	7	Sololá	701	Sololá	1	Sololá	3	Marzo	2023-03-14T00:00:00	2024-11-08T23:00:00	1	Precipitación	0
11944	7	Sololá	701	Sololá	1	Sololá	3	Marzo	2023-03-14T00:00:00	2024-11-08T23:00:00	8	Radiación solar	0
11945	7	Sololá	701	Sololá	1	Sololá	3	Marzo	2023-03-15T00:00:00	2024-11-08T00:00:00	2	Temperatura media	12.8
11946	7	Sololá	701	Sololá	1	Sololá	3	Marzo	2023-03-15T00:00:00	2024-11-08T00:00:00	4	Temperatura máxima	13.9
11947	7	Sololá	701	Sololá	1	Sololá	3	Marzo	2023-03-15T00:00:00	2024-11-08T00:00:00	3	Temperatura mínima	12.8
11948	7	Sololá	701	Sololá	1	Sololá	3	Marzo	2023-03-15T00:00:00	2024-11-08T00:00:00	5	Humedad	87
11949	7	Sololá	701	Sololá	1	Sololá	3	Marzo	2023-03-15T00:00:00	2024-11-08T00:00:00	6	Velocidad del viento	0
11950	7	Sololá	701	Sololá	1	Sololá	3	Marzo	2023-03-15T00:00:00	2024-11-08T00:00:00	7	Dirección del viento	0
11951	7	Sololá	701	Sololá	1	Sololá	3	Marzo	2023-03-15T00:00:00	2024-11-08T00:00:00	1	Precipitación	0
11952	7	Sololá	701	Sololá	1	Sololá	3	Marzo	2023-03-15T00:00:00	2024-11-08T00:00:00	8	Radiación solar	0
11953	7	Sololá	701	Sololá	1	Sololá	3	Marzo	2023-03-15T00:00:00	2024-11-08T01:00:00	2	Temperatura media	13
11954	7	Sololá	701	Sololá	1	Sololá	3	Marzo	2023-03-15T00:00:00	2024-11-08T01:00:00	4	Temperatura máxima	13.1
11955	7	Sololá	701	Sololá	1	Sololá	3	Marzo	2023-03-15T00:00:00	2024-11-08T01:00:00	3	Temperatura mínima	12.8
11956	7	Sololá	701	Sololá	1	Sololá	3	Marzo	2023-03-15T00:00:00	2024-11-08T01:00:00	5	Humedad	83
11957	7	Sololá	701	Sololá	1	Sololá	3	Marzo	2023-03-15T00:00:00	2024-11-08T01:00:00	6	Velocidad del viento	0
11958	7	Sololá	701	Sololá	1	Sololá	3	Marzo	2023-03-15T00:00:00	2024-11-08T01:00:00	7	Dirección del viento	0
11959	7	Sololá	701	Sololá	1	Sololá	3	Marzo	2023-03-15T00:00:00	2024-11-08T01:00:00	1	Precipitación	0
11960	7	Sololá	701	Sololá	1	Sololá	3	Marzo	2023-03-15T00:00:00	2024-11-08T01:00:00	8	Radiación solar	0
11961	7	Sololá	701	Sololá	1	Sololá	3	Marzo	2023-03-15T00:00:00	2024-11-08T02:00:00	2	Temperatura media	13
11962	7	Sololá	701	Sololá	1	Sololá	3	Marzo	2023-03-15T00:00:00	2024-11-08T02:00:00	4	Temperatura máxima	13
11963	7	Sololá	701	Sololá	1	Sololá	3	Marzo	2023-03-15T00:00:00	2024-11-08T02:00:00	3	Temperatura mínima	12.6
11964	7	Sololá	701	Sololá	1	Sololá	3	Marzo	2023-03-15T00:00:00	2024-11-08T02:00:00	5	Humedad	82
11965	7	Sololá	701	Sololá	1	Sololá	3	Marzo	2023-03-15T00:00:00	2024-11-08T02:00:00	6	Velocidad del viento	0
11966	7	Sololá	701	Sololá	1	Sololá	3	Marzo	2023-03-15T00:00:00	2024-11-08T02:00:00	7	Dirección del viento	0
11967	7	Sololá	701	Sololá	1	Sololá	3	Marzo	2023-03-15T00:00:00	2024-11-08T02:00:00	1	Precipitación	0
11968	7	Sololá	701	Sololá	1	Sololá	3	Marzo	2023-03-15T00:00:00	2024-11-08T02:00:00	8	Radiación solar	0
11969	7	Sololá	701	Sololá	1	Sololá	3	Marzo	2023-03-15T00:00:00	2024-11-08T03:00:00	2	Temperatura media	13.9
11970	7	Sololá	701	Sololá	1	Sololá	3	Marzo	2023-03-15T00:00:00	2024-11-08T03:00:00	4	Temperatura máxima	14
11971	7	Sololá	701	Sololá	1	Sololá	3	Marzo	2023-03-15T00:00:00	2024-11-08T03:00:00	3	Temperatura mínima	12.9
11972	7	Sololá	701	Sololá	1	Sololá	3	Marzo	2023-03-15T00:00:00	2024-11-08T03:00:00	5	Humedad	84
11973	7	Sololá	701	Sololá	1	Sololá	3	Marzo	2023-03-15T00:00:00	2024-11-08T03:00:00	6	Velocidad del viento	0
11974	7	Sololá	701	Sololá	1	Sololá	3	Marzo	2023-03-15T00:00:00	2024-11-08T03:00:00	7	Dirección del viento	0
11975	7	Sololá	701	Sololá	1	Sololá	3	Marzo	2023-03-15T00:00:00	2024-11-08T03:00:00	1	Precipitación	0
11976	7	Sololá	701	Sololá	1	Sololá	3	Marzo	2023-03-15T00:00:00	2024-11-08T03:00:00	8	Radiación solar	0
11977	7	Sololá	701	Sololá	1	Sololá	3	Marzo	2023-03-15T00:00:00	2024-11-08T04:00:00	2	Temperatura media	13.2
11978	7	Sololá	701	Sololá	1	Sololá	3	Marzo	2023-03-15T00:00:00	2024-11-08T04:00:00	4	Temperatura máxima	14
11979	7	Sololá	701	Sololá	1	Sololá	3	Marzo	2023-03-15T00:00:00	2024-11-08T04:00:00	3	Temperatura mínima	13.2
11980	7	Sololá	701	Sololá	1	Sololá	3	Marzo	2023-03-15T00:00:00	2024-11-08T04:00:00	5	Humedad	86
11981	7	Sololá	701	Sololá	1	Sololá	3	Marzo	2023-03-15T00:00:00	2024-11-08T04:00:00	6	Velocidad del viento	0
11982	7	Sololá	701	Sololá	1	Sololá	3	Marzo	2023-03-15T00:00:00	2024-11-08T04:00:00	7	Dirección del viento	0
11983	7	Sololá	701	Sololá	1	Sololá	3	Marzo	2023-03-15T00:00:00	2024-11-08T04:00:00	1	Precipitación	0
11984	7	Sololá	701	Sololá	1	Sololá	3	Marzo	2023-03-15T00:00:00	2024-11-08T04:00:00	8	Radiación solar	0
11985	7	Sololá	701	Sololá	1	Sololá	3	Marzo	2023-03-15T00:00:00	2024-11-08T05:00:00	2	Temperatura media	12.2
11986	7	Sololá	701	Sololá	1	Sololá	3	Marzo	2023-03-15T00:00:00	2024-11-08T05:00:00	4	Temperatura máxima	13.2
11987	7	Sololá	701	Sololá	1	Sololá	3	Marzo	2023-03-15T00:00:00	2024-11-08T05:00:00	3	Temperatura mínima	12.2
11988	7	Sololá	701	Sololá	1	Sololá	3	Marzo	2023-03-15T00:00:00	2024-11-08T05:00:00	5	Humedad	88
11989	7	Sololá	701	Sololá	1	Sololá	3	Marzo	2023-03-15T00:00:00	2024-11-08T05:00:00	6	Velocidad del viento	0
11990	7	Sololá	701	Sololá	1	Sololá	3	Marzo	2023-03-15T00:00:00	2024-11-08T05:00:00	7	Dirección del viento	0
11991	7	Sololá	701	Sololá	1	Sololá	3	Marzo	2023-03-15T00:00:00	2024-11-08T05:00:00	1	Precipitación	0
11992	7	Sololá	701	Sololá	1	Sololá	3	Marzo	2023-03-15T00:00:00	2024-11-08T05:00:00	8	Radiación solar	0
11993	7	Sololá	701	Sololá	1	Sololá	3	Marzo	2023-03-15T00:00:00	2024-11-08T06:00:00	2	Temperatura media	11.6
11994	7	Sololá	701	Sololá	1	Sololá	3	Marzo	2023-03-15T00:00:00	2024-11-08T06:00:00	4	Temperatura máxima	12.2
11995	7	Sololá	701	Sololá	1	Sololá	3	Marzo	2023-03-15T00:00:00	2024-11-08T06:00:00	3	Temperatura mínima	11.6
11996	7	Sololá	701	Sololá	1	Sololá	3	Marzo	2023-03-15T00:00:00	2024-11-08T06:00:00	5	Humedad	87
11997	7	Sololá	701	Sololá	1	Sololá	3	Marzo	2023-03-15T00:00:00	2024-11-08T06:00:00	6	Velocidad del viento	0
11998	7	Sololá	701	Sololá	1	Sololá	3	Marzo	2023-03-15T00:00:00	2024-11-08T06:00:00	7	Dirección del viento	0
11999	7	Sololá	701	Sololá	1	Sololá	3	Marzo	2023-03-15T00:00:00	2024-11-08T06:00:00	1	Precipitación	0
12000	7	Sololá	701	Sololá	1	Sololá	3	Marzo	2023-03-15T00:00:00	2024-11-08T06:00:00	8	Radiación solar	0
12001	7	Sololá	701	Sololá	1	Sololá	3	Marzo	2023-03-15T00:00:00	2024-11-08T07:00:00	2	Temperatura media	12.2
12002	7	Sololá	701	Sololá	1	Sololá	3	Marzo	2023-03-15T00:00:00	2024-11-08T07:00:00	4	Temperatura máxima	12.2
12003	7	Sololá	701	Sololá	1	Sololá	3	Marzo	2023-03-15T00:00:00	2024-11-08T07:00:00	3	Temperatura mínima	11.4
12004	7	Sololá	701	Sololá	1	Sololá	3	Marzo	2023-03-15T00:00:00	2024-11-08T07:00:00	5	Humedad	90
12005	7	Sololá	701	Sololá	1	Sololá	3	Marzo	2023-03-15T00:00:00	2024-11-08T07:00:00	6	Velocidad del viento	0
12006	7	Sololá	701	Sololá	1	Sololá	3	Marzo	2023-03-15T00:00:00	2024-11-08T07:00:00	7	Dirección del viento	0
12007	7	Sololá	701	Sololá	1	Sololá	3	Marzo	2023-03-15T00:00:00	2024-11-08T07:00:00	1	Precipitación	0
12008	7	Sololá	701	Sololá	1	Sololá	3	Marzo	2023-03-15T00:00:00	2024-11-08T07:00:00	8	Radiación solar	10
12009	7	Sololá	701	Sololá	1	Sololá	3	Marzo	2023-03-15T00:00:00	2024-11-08T08:00:00	2	Temperatura media	13.1
12010	7	Sololá	701	Sololá	1	Sololá	3	Marzo	2023-03-15T00:00:00	2024-11-08T08:00:00	4	Temperatura máxima	13.1
12011	7	Sololá	701	Sololá	1	Sololá	3	Marzo	2023-03-15T00:00:00	2024-11-08T08:00:00	3	Temperatura mínima	12.2
12012	7	Sololá	701	Sololá	1	Sololá	3	Marzo	2023-03-15T00:00:00	2024-11-08T08:00:00	5	Humedad	85
12013	7	Sololá	701	Sololá	1	Sololá	3	Marzo	2023-03-15T00:00:00	2024-11-08T08:00:00	6	Velocidad del viento	0
12014	7	Sololá	701	Sololá	1	Sololá	3	Marzo	2023-03-15T00:00:00	2024-11-08T08:00:00	7	Dirección del viento	0
12015	7	Sololá	701	Sololá	1	Sololá	3	Marzo	2023-03-15T00:00:00	2024-11-08T08:00:00	1	Precipitación	0
12016	7	Sololá	701	Sololá	1	Sololá	3	Marzo	2023-03-15T00:00:00	2024-11-08T08:00:00	8	Radiación solar	67
12017	7	Sololá	701	Sololá	1	Sololá	3	Marzo	2023-03-15T00:00:00	2024-11-08T09:00:00	2	Temperatura media	15.2
12018	7	Sololá	701	Sololá	1	Sololá	3	Marzo	2023-03-15T00:00:00	2024-11-08T09:00:00	4	Temperatura máxima	15.2
12019	7	Sololá	701	Sololá	1	Sololá	3	Marzo	2023-03-15T00:00:00	2024-11-08T09:00:00	3	Temperatura mínima	13.1
12020	7	Sololá	701	Sololá	1	Sololá	3	Marzo	2023-03-15T00:00:00	2024-11-08T09:00:00	5	Humedad	79
12021	7	Sololá	701	Sololá	1	Sololá	3	Marzo	2023-03-15T00:00:00	2024-11-08T09:00:00	6	Velocidad del viento	0
12022	7	Sololá	701	Sololá	1	Sololá	3	Marzo	2023-03-15T00:00:00	2024-11-08T09:00:00	7	Dirección del viento	0
12023	7	Sololá	701	Sololá	1	Sololá	3	Marzo	2023-03-15T00:00:00	2024-11-08T09:00:00	1	Precipitación	0
12024	7	Sololá	701	Sololá	1	Sololá	3	Marzo	2023-03-15T00:00:00	2024-11-08T09:00:00	8	Radiación solar	501
12025	7	Sololá	701	Sololá	1	Sololá	3	Marzo	2023-03-15T00:00:00	2024-11-08T10:00:00	2	Temperatura media	20.3
12026	7	Sololá	701	Sololá	1	Sololá	3	Marzo	2023-03-15T00:00:00	2024-11-08T10:00:00	4	Temperatura máxima	20.3
12027	7	Sololá	701	Sololá	1	Sololá	3	Marzo	2023-03-15T00:00:00	2024-11-08T10:00:00	3	Temperatura mínima	15.2
12028	7	Sololá	701	Sololá	1	Sololá	3	Marzo	2023-03-15T00:00:00	2024-11-08T10:00:00	5	Humedad	64
12029	7	Sololá	701	Sololá	1	Sololá	3	Marzo	2023-03-15T00:00:00	2024-11-08T10:00:00	6	Velocidad del viento	0
12030	7	Sololá	701	Sololá	1	Sololá	3	Marzo	2023-03-15T00:00:00	2024-11-08T10:00:00	7	Dirección del viento	0
12031	7	Sololá	701	Sololá	1	Sololá	3	Marzo	2023-03-15T00:00:00	2024-11-08T10:00:00	1	Precipitación	0
12032	7	Sololá	701	Sololá	1	Sololá	3	Marzo	2023-03-15T00:00:00	2024-11-08T10:00:00	8	Radiación solar	497
12033	7	Sololá	701	Sololá	1	Sololá	3	Marzo	2023-03-15T00:00:00	2024-11-08T11:00:00	2	Temperatura media	20.8
12034	7	Sololá	701	Sololá	1	Sololá	3	Marzo	2023-03-15T00:00:00	2024-11-08T11:00:00	4	Temperatura máxima	20.8
12035	7	Sololá	701	Sololá	1	Sololá	3	Marzo	2023-03-15T00:00:00	2024-11-08T11:00:00	3	Temperatura mínima	19.1
12036	7	Sololá	701	Sololá	1	Sololá	3	Marzo	2023-03-15T00:00:00	2024-11-08T11:00:00	5	Humedad	63
12037	7	Sololá	701	Sololá	1	Sololá	3	Marzo	2023-03-15T00:00:00	2024-11-08T11:00:00	6	Velocidad del viento	0
12038	7	Sololá	701	Sololá	1	Sololá	3	Marzo	2023-03-15T00:00:00	2024-11-08T11:00:00	7	Dirección del viento	0
12039	7	Sololá	701	Sololá	1	Sololá	3	Marzo	2023-03-15T00:00:00	2024-11-08T11:00:00	1	Precipitación	0
12040	7	Sololá	701	Sololá	1	Sololá	3	Marzo	2023-03-15T00:00:00	2024-11-08T11:00:00	8	Radiación solar	904
12041	7	Sololá	701	Sololá	1	Sololá	3	Marzo	2023-03-15T00:00:00	2024-11-08T12:00:00	2	Temperatura media	23.9
12042	7	Sololá	701	Sololá	1	Sololá	3	Marzo	2023-03-15T00:00:00	2024-11-08T12:00:00	4	Temperatura máxima	23.9
12043	7	Sololá	701	Sololá	1	Sololá	3	Marzo	2023-03-15T00:00:00	2024-11-08T12:00:00	3	Temperatura mínima	20.8
12044	7	Sololá	701	Sololá	1	Sololá	3	Marzo	2023-03-15T00:00:00	2024-11-08T12:00:00	5	Humedad	52
12045	7	Sololá	701	Sololá	1	Sololá	3	Marzo	2023-03-15T00:00:00	2024-11-08T12:00:00	6	Velocidad del viento	0
12046	7	Sololá	701	Sololá	1	Sololá	3	Marzo	2023-03-15T00:00:00	2024-11-08T12:00:00	7	Dirección del viento	0
12047	7	Sololá	701	Sololá	1	Sololá	3	Marzo	2023-03-15T00:00:00	2024-11-08T12:00:00	1	Precipitación	0
12048	7	Sololá	701	Sololá	1	Sololá	3	Marzo	2023-03-15T00:00:00	2024-11-08T12:00:00	8	Radiación solar	892
12049	7	Sololá	701	Sololá	1	Sololá	3	Marzo	2023-03-15T00:00:00	2024-11-08T13:00:00	2	Temperatura media	23.3
12050	7	Sololá	701	Sololá	1	Sololá	3	Marzo	2023-03-15T00:00:00	2024-11-08T13:00:00	4	Temperatura máxima	24.6
12051	7	Sololá	701	Sololá	1	Sololá	3	Marzo	2023-03-15T00:00:00	2024-11-08T13:00:00	3	Temperatura mínima	23.3
12052	7	Sololá	701	Sololá	1	Sololá	3	Marzo	2023-03-15T00:00:00	2024-11-08T13:00:00	5	Humedad	51
12053	7	Sololá	701	Sololá	1	Sololá	3	Marzo	2023-03-15T00:00:00	2024-11-08T13:00:00	6	Velocidad del viento	0
12054	7	Sololá	701	Sololá	1	Sololá	3	Marzo	2023-03-15T00:00:00	2024-11-08T13:00:00	7	Dirección del viento	0
12055	7	Sololá	701	Sololá	1	Sololá	3	Marzo	2023-03-15T00:00:00	2024-11-08T13:00:00	1	Precipitación	0
12056	7	Sololá	701	Sololá	1	Sololá	3	Marzo	2023-03-15T00:00:00	2024-11-08T13:00:00	8	Radiación solar	571
12057	7	Sololá	701	Sololá	1	Sololá	3	Marzo	2023-03-15T00:00:00	2024-11-08T14:00:00	2	Temperatura media	21.9
12058	7	Sololá	701	Sololá	1	Sololá	3	Marzo	2023-03-15T00:00:00	2024-11-08T14:00:00	4	Temperatura máxima	24
12059	7	Sololá	701	Sololá	1	Sololá	3	Marzo	2023-03-15T00:00:00	2024-11-08T14:00:00	3	Temperatura mínima	21.9
12060	7	Sololá	701	Sololá	1	Sololá	3	Marzo	2023-03-15T00:00:00	2024-11-08T14:00:00	5	Humedad	69
12061	7	Sololá	701	Sololá	1	Sololá	3	Marzo	2023-03-15T00:00:00	2024-11-08T14:00:00	6	Velocidad del viento	1.6
12062	7	Sololá	701	Sololá	1	Sololá	3	Marzo	2023-03-15T00:00:00	2024-11-08T14:00:00	7	Dirección del viento	1.61
12063	7	Sololá	701	Sololá	1	Sololá	3	Marzo	2023-03-15T00:00:00	2024-11-08T14:00:00	1	Precipitación	0
12064	7	Sololá	701	Sololá	1	Sololá	3	Marzo	2023-03-15T00:00:00	2024-11-08T14:00:00	8	Radiación solar	116
12065	7	Sololá	701	Sololá	1	Sololá	3	Marzo	2023-03-15T00:00:00	2024-11-08T15:00:00	2	Temperatura media	18.6
12066	7	Sololá	701	Sololá	1	Sololá	3	Marzo	2023-03-15T00:00:00	2024-11-08T15:00:00	4	Temperatura máxima	21.9
12067	7	Sololá	701	Sololá	1	Sololá	3	Marzo	2023-03-15T00:00:00	2024-11-08T15:00:00	3	Temperatura mínima	18.6
12068	7	Sololá	701	Sololá	1	Sololá	3	Marzo	2023-03-15T00:00:00	2024-11-08T15:00:00	5	Humedad	82
12069	7	Sololá	701	Sololá	1	Sololá	3	Marzo	2023-03-15T00:00:00	2024-11-08T15:00:00	6	Velocidad del viento	0
12070	7	Sololá	701	Sololá	1	Sololá	3	Marzo	2023-03-15T00:00:00	2024-11-08T15:00:00	7	Dirección del viento	0
12071	7	Sololá	701	Sololá	1	Sololá	3	Marzo	2023-03-15T00:00:00	2024-11-08T15:00:00	1	Precipitación	0
12072	7	Sololá	701	Sololá	1	Sololá	3	Marzo	2023-03-15T00:00:00	2024-11-08T15:00:00	8	Radiación solar	89
12073	7	Sololá	701	Sololá	1	Sololá	3	Marzo	2023-03-15T00:00:00	2024-11-08T16:00:00	2	Temperatura media	17.4
12074	7	Sololá	701	Sololá	1	Sololá	3	Marzo	2023-03-15T00:00:00	2024-11-08T16:00:00	4	Temperatura máxima	18.6
12075	7	Sololá	701	Sololá	1	Sololá	3	Marzo	2023-03-15T00:00:00	2024-11-08T16:00:00	3	Temperatura mínima	17.4
12076	7	Sololá	701	Sololá	1	Sololá	3	Marzo	2023-03-15T00:00:00	2024-11-08T16:00:00	5	Humedad	92
12077	7	Sololá	701	Sololá	1	Sololá	3	Marzo	2023-03-15T00:00:00	2024-11-08T16:00:00	6	Velocidad del viento	0
12078	7	Sololá	701	Sololá	1	Sololá	3	Marzo	2023-03-15T00:00:00	2024-11-08T16:00:00	7	Dirección del viento	0
12079	7	Sololá	701	Sololá	1	Sololá	3	Marzo	2023-03-15T00:00:00	2024-11-08T16:00:00	1	Precipitación	0.4
12080	7	Sololá	701	Sololá	1	Sololá	3	Marzo	2023-03-15T00:00:00	2024-11-08T16:00:00	8	Radiación solar	74
12081	7	Sololá	701	Sololá	1	Sololá	3	Marzo	2023-03-15T00:00:00	2024-11-08T17:00:00	2	Temperatura media	16.6
12082	7	Sololá	701	Sololá	1	Sololá	3	Marzo	2023-03-15T00:00:00	2024-11-08T17:00:00	4	Temperatura máxima	17.4
12083	7	Sololá	701	Sololá	1	Sololá	3	Marzo	2023-03-15T00:00:00	2024-11-08T17:00:00	3	Temperatura mínima	16.6
12084	7	Sololá	701	Sololá	1	Sololá	3	Marzo	2023-03-15T00:00:00	2024-11-08T17:00:00	5	Humedad	93
12085	7	Sololá	701	Sololá	1	Sololá	3	Marzo	2023-03-15T00:00:00	2024-11-08T17:00:00	6	Velocidad del viento	0
12086	7	Sololá	701	Sololá	1	Sololá	3	Marzo	2023-03-15T00:00:00	2024-11-08T17:00:00	7	Dirección del viento	0
12087	7	Sololá	701	Sololá	1	Sololá	3	Marzo	2023-03-15T00:00:00	2024-11-08T17:00:00	1	Precipitación	1.4
12088	7	Sololá	701	Sololá	1	Sololá	3	Marzo	2023-03-15T00:00:00	2024-11-08T17:00:00	8	Radiación solar	15
12089	7	Sololá	701	Sololá	1	Sololá	3	Marzo	2023-03-15T00:00:00	2024-11-08T18:00:00	2	Temperatura media	15.8
12090	7	Sololá	701	Sololá	1	Sololá	3	Marzo	2023-03-15T00:00:00	2024-11-08T18:00:00	4	Temperatura máxima	16.6
12091	7	Sololá	701	Sololá	1	Sololá	3	Marzo	2023-03-15T00:00:00	2024-11-08T18:00:00	3	Temperatura mínima	15.8
12092	7	Sololá	701	Sololá	1	Sololá	3	Marzo	2023-03-15T00:00:00	2024-11-08T18:00:00	5	Humedad	94
12093	7	Sololá	701	Sololá	1	Sololá	3	Marzo	2023-03-15T00:00:00	2024-11-08T18:00:00	6	Velocidad del viento	0
12094	7	Sololá	701	Sololá	1	Sololá	3	Marzo	2023-03-15T00:00:00	2024-11-08T18:00:00	7	Dirección del viento	0
12095	7	Sololá	701	Sololá	1	Sololá	3	Marzo	2023-03-15T00:00:00	2024-11-08T18:00:00	1	Precipitación	0.6
12096	7	Sololá	701	Sololá	1	Sololá	3	Marzo	2023-03-15T00:00:00	2024-11-08T18:00:00	8	Radiación solar	8
12097	7	Sololá	701	Sololá	1	Sololá	3	Marzo	2023-03-15T00:00:00	2024-11-08T19:00:00	2	Temperatura media	14.4
12098	7	Sololá	701	Sololá	1	Sololá	3	Marzo	2023-03-15T00:00:00	2024-11-08T19:00:00	4	Temperatura máxima	15.8
12099	7	Sololá	701	Sololá	1	Sololá	3	Marzo	2023-03-15T00:00:00	2024-11-08T19:00:00	3	Temperatura mínima	14.4
12100	7	Sololá	701	Sololá	1	Sololá	3	Marzo	2023-03-15T00:00:00	2024-11-08T19:00:00	5	Humedad	94
12101	7	Sololá	701	Sololá	1	Sololá	3	Marzo	2023-03-15T00:00:00	2024-11-08T19:00:00	6	Velocidad del viento	0
12102	7	Sololá	701	Sololá	1	Sololá	3	Marzo	2023-03-15T00:00:00	2024-11-08T19:00:00	7	Dirección del viento	0
12103	7	Sololá	701	Sololá	1	Sololá	3	Marzo	2023-03-15T00:00:00	2024-11-08T19:00:00	1	Precipitación	0.4
12104	7	Sololá	701	Sololá	1	Sololá	3	Marzo	2023-03-15T00:00:00	2024-11-08T19:00:00	8	Radiación solar	0
12105	7	Sololá	701	Sololá	1	Sololá	3	Marzo	2023-03-15T00:00:00	2024-11-08T20:00:00	2	Temperatura media	12.8
12106	7	Sololá	701	Sololá	1	Sololá	3	Marzo	2023-03-15T00:00:00	2024-11-08T20:00:00	4	Temperatura máxima	14.4
12107	7	Sololá	701	Sololá	1	Sololá	3	Marzo	2023-03-15T00:00:00	2024-11-08T20:00:00	3	Temperatura mínima	12.8
12108	7	Sololá	701	Sololá	1	Sololá	3	Marzo	2023-03-15T00:00:00	2024-11-08T20:00:00	5	Humedad	95
12109	7	Sololá	701	Sololá	1	Sololá	3	Marzo	2023-03-15T00:00:00	2024-11-08T20:00:00	6	Velocidad del viento	0
12110	7	Sololá	701	Sololá	1	Sololá	3	Marzo	2023-03-15T00:00:00	2024-11-08T20:00:00	7	Dirección del viento	0
12111	7	Sololá	701	Sololá	1	Sololá	3	Marzo	2023-03-15T00:00:00	2024-11-08T20:00:00	1	Precipitación	0.2
12112	7	Sololá	701	Sololá	1	Sololá	3	Marzo	2023-03-15T00:00:00	2024-11-08T20:00:00	8	Radiación solar	0
12113	7	Sololá	701	Sololá	1	Sololá	3	Marzo	2023-03-15T00:00:00	2024-11-08T21:00:00	2	Temperatura media	12.2
12114	7	Sololá	701	Sololá	1	Sololá	3	Marzo	2023-03-15T00:00:00	2024-11-08T21:00:00	4	Temperatura máxima	12.8
12115	7	Sololá	701	Sololá	1	Sololá	3	Marzo	2023-03-15T00:00:00	2024-11-08T21:00:00	3	Temperatura mínima	12.2
12116	7	Sololá	701	Sololá	1	Sololá	3	Marzo	2023-03-15T00:00:00	2024-11-08T21:00:00	5	Humedad	95
12117	7	Sololá	701	Sololá	1	Sololá	3	Marzo	2023-03-15T00:00:00	2024-11-08T21:00:00	6	Velocidad del viento	0
12118	7	Sololá	701	Sololá	1	Sololá	3	Marzo	2023-03-15T00:00:00	2024-11-08T21:00:00	7	Dirección del viento	0
12119	7	Sololá	701	Sololá	1	Sololá	3	Marzo	2023-03-15T00:00:00	2024-11-08T21:00:00	1	Precipitación	0
12120	7	Sololá	701	Sololá	1	Sololá	3	Marzo	2023-03-15T00:00:00	2024-11-08T21:00:00	8	Radiación solar	0
12121	7	Sololá	701	Sololá	1	Sololá	3	Marzo	2023-03-15T00:00:00	2024-11-08T22:00:00	2	Temperatura media	12.1
12122	7	Sololá	701	Sololá	1	Sololá	3	Marzo	2023-03-15T00:00:00	2024-11-08T22:00:00	4	Temperatura máxima	12.2
12123	7	Sololá	701	Sololá	1	Sololá	3	Marzo	2023-03-15T00:00:00	2024-11-08T22:00:00	3	Temperatura mínima	12
12124	7	Sololá	701	Sololá	1	Sololá	3	Marzo	2023-03-15T00:00:00	2024-11-08T22:00:00	5	Humedad	95
12125	7	Sololá	701	Sololá	1	Sololá	3	Marzo	2023-03-15T00:00:00	2024-11-08T22:00:00	6	Velocidad del viento	0
12126	7	Sololá	701	Sololá	1	Sololá	3	Marzo	2023-03-15T00:00:00	2024-11-08T22:00:00	7	Dirección del viento	0
12127	7	Sololá	701	Sololá	1	Sololá	3	Marzo	2023-03-15T00:00:00	2024-11-08T22:00:00	1	Precipitación	0
12128	7	Sololá	701	Sololá	1	Sololá	3	Marzo	2023-03-15T00:00:00	2024-11-08T22:00:00	8	Radiación solar	0
12129	7	Sololá	701	Sololá	1	Sololá	3	Marzo	2023-03-15T00:00:00	2024-11-08T23:00:00	2	Temperatura media	12.1
12130	7	Sololá	701	Sololá	1	Sololá	3	Marzo	2023-03-15T00:00:00	2024-11-08T23:00:00	4	Temperatura máxima	12.2
12131	7	Sololá	701	Sololá	1	Sololá	3	Marzo	2023-03-15T00:00:00	2024-11-08T23:00:00	3	Temperatura mínima	12.1
12132	7	Sololá	701	Sololá	1	Sololá	3	Marzo	2023-03-15T00:00:00	2024-11-08T23:00:00	5	Humedad	94
12133	7	Sololá	701	Sololá	1	Sololá	3	Marzo	2023-03-15T00:00:00	2024-11-08T23:00:00	6	Velocidad del viento	0
12134	7	Sololá	701	Sololá	1	Sololá	3	Marzo	2023-03-15T00:00:00	2024-11-08T23:00:00	7	Dirección del viento	0
12135	7	Sololá	701	Sololá	1	Sololá	3	Marzo	2023-03-15T00:00:00	2024-11-08T23:00:00	1	Precipitación	0.2
12136	7	Sololá	701	Sololá	1	Sololá	3	Marzo	2023-03-15T00:00:00	2024-11-08T23:00:00	8	Radiación solar	0
12137	7	Sololá	701	Sololá	1	Sololá	3	Marzo	2023-03-16T00:00:00	2024-11-08T00:00:00	2	Temperatura media	11.8
12138	7	Sololá	701	Sololá	1	Sololá	3	Marzo	2023-03-16T00:00:00	2024-11-08T00:00:00	4	Temperatura máxima	12.1
12139	7	Sololá	701	Sololá	1	Sololá	3	Marzo	2023-03-16T00:00:00	2024-11-08T00:00:00	3	Temperatura mínima	11.8
12140	7	Sololá	701	Sololá	1	Sololá	3	Marzo	2023-03-16T00:00:00	2024-11-08T00:00:00	5	Humedad	93
12141	7	Sololá	701	Sololá	1	Sololá	3	Marzo	2023-03-16T00:00:00	2024-11-08T00:00:00	6	Velocidad del viento	0
12142	7	Sololá	701	Sololá	1	Sololá	3	Marzo	2023-03-16T00:00:00	2024-11-08T00:00:00	7	Dirección del viento	0
12143	7	Sololá	701	Sololá	1	Sololá	3	Marzo	2023-03-16T00:00:00	2024-11-08T00:00:00	1	Precipitación	0
12144	7	Sololá	701	Sololá	1	Sololá	3	Marzo	2023-03-16T00:00:00	2024-11-08T00:00:00	8	Radiación solar	0
12145	7	Sololá	701	Sololá	1	Sololá	3	Marzo	2023-03-16T00:00:00	2024-11-08T01:00:00	2	Temperatura media	11.8
12146	7	Sololá	701	Sololá	1	Sololá	3	Marzo	2023-03-16T00:00:00	2024-11-08T01:00:00	4	Temperatura máxima	11.8
12147	7	Sololá	701	Sololá	1	Sololá	3	Marzo	2023-03-16T00:00:00	2024-11-08T01:00:00	3	Temperatura mínima	11.7
12148	7	Sololá	701	Sololá	1	Sololá	3	Marzo	2023-03-16T00:00:00	2024-11-08T01:00:00	5	Humedad	93
12149	7	Sololá	701	Sololá	1	Sololá	3	Marzo	2023-03-16T00:00:00	2024-11-08T01:00:00	6	Velocidad del viento	0
12150	7	Sololá	701	Sololá	1	Sololá	3	Marzo	2023-03-16T00:00:00	2024-11-08T01:00:00	7	Dirección del viento	0
12151	7	Sololá	701	Sololá	1	Sololá	3	Marzo	2023-03-16T00:00:00	2024-11-08T01:00:00	1	Precipitación	0
12152	7	Sololá	701	Sololá	1	Sololá	3	Marzo	2023-03-16T00:00:00	2024-11-08T01:00:00	8	Radiación solar	0
12153	7	Sololá	701	Sololá	1	Sololá	3	Marzo	2023-03-16T00:00:00	2024-11-08T02:00:00	2	Temperatura media	11.9
12154	7	Sololá	701	Sololá	1	Sololá	3	Marzo	2023-03-16T00:00:00	2024-11-08T02:00:00	4	Temperatura máxima	12
12155	7	Sololá	701	Sololá	1	Sololá	3	Marzo	2023-03-16T00:00:00	2024-11-08T02:00:00	3	Temperatura mínima	11.7
12156	7	Sololá	701	Sololá	1	Sololá	3	Marzo	2023-03-16T00:00:00	2024-11-08T02:00:00	5	Humedad	91
12157	7	Sololá	701	Sololá	1	Sololá	3	Marzo	2023-03-16T00:00:00	2024-11-08T02:00:00	6	Velocidad del viento	0
12158	7	Sololá	701	Sololá	1	Sololá	3	Marzo	2023-03-16T00:00:00	2024-11-08T02:00:00	7	Dirección del viento	0
12159	7	Sololá	701	Sololá	1	Sololá	3	Marzo	2023-03-16T00:00:00	2024-11-08T02:00:00	1	Precipitación	0
12160	7	Sololá	701	Sololá	1	Sololá	3	Marzo	2023-03-16T00:00:00	2024-11-08T02:00:00	8	Radiación solar	0
12161	7	Sololá	701	Sololá	1	Sololá	3	Marzo	2023-03-16T00:00:00	2024-11-08T03:00:00	2	Temperatura media	11.7
12162	7	Sololá	701	Sololá	1	Sololá	3	Marzo	2023-03-16T00:00:00	2024-11-08T03:00:00	4	Temperatura máxima	12
12163	7	Sololá	701	Sololá	1	Sololá	3	Marzo	2023-03-16T00:00:00	2024-11-08T03:00:00	3	Temperatura mínima	11.7
12164	7	Sololá	701	Sololá	1	Sololá	3	Marzo	2023-03-16T00:00:00	2024-11-08T03:00:00	5	Humedad	90
12165	7	Sololá	701	Sololá	1	Sololá	3	Marzo	2023-03-16T00:00:00	2024-11-08T03:00:00	6	Velocidad del viento	0
12166	7	Sololá	701	Sololá	1	Sololá	3	Marzo	2023-03-16T00:00:00	2024-11-08T03:00:00	7	Dirección del viento	0
12167	7	Sololá	701	Sololá	1	Sololá	3	Marzo	2023-03-16T00:00:00	2024-11-08T03:00:00	1	Precipitación	0
12168	7	Sololá	701	Sololá	1	Sololá	3	Marzo	2023-03-16T00:00:00	2024-11-08T03:00:00	8	Radiación solar	0
12169	7	Sololá	701	Sololá	1	Sololá	3	Marzo	2023-03-16T00:00:00	2024-11-08T04:00:00	2	Temperatura media	10.9
12170	7	Sololá	701	Sololá	1	Sololá	3	Marzo	2023-03-16T00:00:00	2024-11-08T04:00:00	4	Temperatura máxima	11.7
12171	7	Sololá	701	Sololá	1	Sololá	3	Marzo	2023-03-16T00:00:00	2024-11-08T04:00:00	3	Temperatura mínima	10.9
12172	7	Sololá	701	Sololá	1	Sololá	3	Marzo	2023-03-16T00:00:00	2024-11-08T04:00:00	5	Humedad	90
12173	7	Sololá	701	Sololá	1	Sololá	3	Marzo	2023-03-16T00:00:00	2024-11-08T04:00:00	6	Velocidad del viento	0
12174	7	Sololá	701	Sololá	1	Sololá	3	Marzo	2023-03-16T00:00:00	2024-11-08T04:00:00	7	Dirección del viento	0
12175	7	Sololá	701	Sololá	1	Sololá	3	Marzo	2023-03-16T00:00:00	2024-11-08T04:00:00	1	Precipitación	0
12176	7	Sololá	701	Sololá	1	Sololá	3	Marzo	2023-03-16T00:00:00	2024-11-08T04:00:00	8	Radiación solar	0
12177	7	Sololá	701	Sololá	1	Sololá	3	Marzo	2023-03-16T00:00:00	2024-11-08T05:00:00	2	Temperatura media	10.8
12178	7	Sololá	701	Sololá	1	Sololá	3	Marzo	2023-03-16T00:00:00	2024-11-08T05:00:00	4	Temperatura máxima	10.9
12179	7	Sololá	701	Sololá	1	Sololá	3	Marzo	2023-03-16T00:00:00	2024-11-08T05:00:00	3	Temperatura mínima	10.7
12180	7	Sololá	701	Sololá	1	Sololá	3	Marzo	2023-03-16T00:00:00	2024-11-08T05:00:00	5	Humedad	90
12181	7	Sololá	701	Sololá	1	Sololá	3	Marzo	2023-03-16T00:00:00	2024-11-08T05:00:00	6	Velocidad del viento	0
12182	7	Sololá	701	Sololá	1	Sololá	3	Marzo	2023-03-16T00:00:00	2024-11-08T05:00:00	7	Dirección del viento	0
12183	7	Sololá	701	Sololá	1	Sololá	3	Marzo	2023-03-16T00:00:00	2024-11-08T05:00:00	1	Precipitación	0
12184	7	Sololá	701	Sololá	1	Sololá	3	Marzo	2023-03-16T00:00:00	2024-11-08T05:00:00	8	Radiación solar	0
12185	7	Sololá	701	Sololá	1	Sololá	3	Marzo	2023-03-16T00:00:00	2024-11-08T06:00:00	2	Temperatura media	10.6
12186	7	Sololá	701	Sololá	1	Sololá	3	Marzo	2023-03-16T00:00:00	2024-11-08T06:00:00	4	Temperatura máxima	10.8
12187	7	Sololá	701	Sololá	1	Sololá	3	Marzo	2023-03-16T00:00:00	2024-11-08T06:00:00	3	Temperatura mínima	10.4
12188	7	Sololá	701	Sololá	1	Sololá	3	Marzo	2023-03-16T00:00:00	2024-11-08T06:00:00	5	Humedad	92
12189	7	Sololá	701	Sololá	1	Sololá	3	Marzo	2023-03-16T00:00:00	2024-11-08T06:00:00	6	Velocidad del viento	0
12190	7	Sololá	701	Sololá	1	Sololá	3	Marzo	2023-03-16T00:00:00	2024-11-08T06:00:00	7	Dirección del viento	0
12191	7	Sololá	701	Sololá	1	Sololá	3	Marzo	2023-03-16T00:00:00	2024-11-08T06:00:00	1	Precipitación	0
12192	7	Sololá	701	Sololá	1	Sololá	3	Marzo	2023-03-16T00:00:00	2024-11-08T06:00:00	8	Radiación solar	0
12193	7	Sololá	701	Sololá	1	Sololá	3	Marzo	2023-03-16T00:00:00	2024-11-08T07:00:00	2	Temperatura media	10.9
12194	7	Sololá	701	Sololá	1	Sololá	3	Marzo	2023-03-16T00:00:00	2024-11-08T07:00:00	4	Temperatura máxima	11
12195	7	Sololá	701	Sololá	1	Sololá	3	Marzo	2023-03-16T00:00:00	2024-11-08T07:00:00	3	Temperatura mínima	10.6
12196	7	Sololá	701	Sololá	1	Sololá	3	Marzo	2023-03-16T00:00:00	2024-11-08T07:00:00	5	Humedad	91
12197	7	Sololá	701	Sololá	1	Sololá	3	Marzo	2023-03-16T00:00:00	2024-11-08T07:00:00	6	Velocidad del viento	0
12198	7	Sololá	701	Sololá	1	Sololá	3	Marzo	2023-03-16T00:00:00	2024-11-08T07:00:00	7	Dirección del viento	0
12199	7	Sololá	701	Sololá	1	Sololá	3	Marzo	2023-03-16T00:00:00	2024-11-08T07:00:00	1	Precipitación	0
12200	7	Sololá	701	Sololá	1	Sololá	3	Marzo	2023-03-16T00:00:00	2024-11-08T07:00:00	8	Radiación solar	11
12201	7	Sololá	701	Sololá	1	Sololá	3	Marzo	2023-03-16T00:00:00	2024-11-08T08:00:00	2	Temperatura media	10.9
12202	7	Sololá	701	Sololá	1	Sololá	3	Marzo	2023-03-16T00:00:00	2024-11-08T08:00:00	4	Temperatura máxima	11
12203	7	Sololá	701	Sololá	1	Sololá	3	Marzo	2023-03-16T00:00:00	2024-11-08T08:00:00	3	Temperatura mínima	10.4
12204	7	Sololá	701	Sololá	1	Sololá	3	Marzo	2023-03-16T00:00:00	2024-11-08T08:00:00	5	Humedad	89
12205	7	Sololá	701	Sololá	1	Sololá	3	Marzo	2023-03-16T00:00:00	2024-11-08T08:00:00	6	Velocidad del viento	0
12206	7	Sololá	701	Sololá	1	Sololá	3	Marzo	2023-03-16T00:00:00	2024-11-08T08:00:00	7	Dirección del viento	0
12207	7	Sololá	701	Sololá	1	Sololá	3	Marzo	2023-03-16T00:00:00	2024-11-08T08:00:00	1	Precipitación	0
12208	7	Sololá	701	Sololá	1	Sololá	3	Marzo	2023-03-16T00:00:00	2024-11-08T08:00:00	8	Radiación solar	67
12209	7	Sololá	701	Sololá	1	Sololá	3	Marzo	2023-03-16T00:00:00	2024-11-08T09:00:00	2	Temperatura media	13.9
12210	7	Sololá	701	Sololá	1	Sololá	3	Marzo	2023-03-16T00:00:00	2024-11-08T09:00:00	4	Temperatura máxima	13.9
12211	7	Sololá	701	Sololá	1	Sololá	3	Marzo	2023-03-16T00:00:00	2024-11-08T09:00:00	3	Temperatura mínima	10.8
12212	7	Sololá	701	Sololá	1	Sololá	3	Marzo	2023-03-16T00:00:00	2024-11-08T09:00:00	5	Humedad	83
12213	7	Sololá	701	Sololá	1	Sololá	3	Marzo	2023-03-16T00:00:00	2024-11-08T09:00:00	6	Velocidad del viento	0
12214	7	Sololá	701	Sololá	1	Sololá	3	Marzo	2023-03-16T00:00:00	2024-11-08T09:00:00	7	Dirección del viento	0
12215	7	Sololá	701	Sololá	1	Sololá	3	Marzo	2023-03-16T00:00:00	2024-11-08T09:00:00	1	Precipitación	0
12216	7	Sololá	701	Sololá	1	Sololá	3	Marzo	2023-03-16T00:00:00	2024-11-08T09:00:00	8	Radiación solar	501
12217	7	Sololá	701	Sololá	1	Sololá	3	Marzo	2023-03-16T00:00:00	2024-11-08T10:00:00	2	Temperatura media	18.7
12218	7	Sololá	701	Sololá	1	Sololá	3	Marzo	2023-03-16T00:00:00	2024-11-08T10:00:00	4	Temperatura máxima	18.7
12219	7	Sololá	701	Sololá	1	Sololá	3	Marzo	2023-03-16T00:00:00	2024-11-08T10:00:00	3	Temperatura mínima	14
12220	7	Sololá	701	Sololá	1	Sololá	3	Marzo	2023-03-16T00:00:00	2024-11-08T10:00:00	5	Humedad	69
12221	7	Sololá	701	Sololá	1	Sololá	3	Marzo	2023-03-16T00:00:00	2024-11-08T10:00:00	6	Velocidad del viento	0
12222	7	Sololá	701	Sololá	1	Sololá	3	Marzo	2023-03-16T00:00:00	2024-11-08T10:00:00	7	Dirección del viento	0
12223	7	Sololá	701	Sololá	1	Sololá	3	Marzo	2023-03-16T00:00:00	2024-11-08T10:00:00	1	Precipitación	0.2
12224	7	Sololá	701	Sololá	1	Sololá	3	Marzo	2023-03-16T00:00:00	2024-11-08T10:00:00	8	Radiación solar	750
12225	7	Sololá	701	Sololá	1	Sololá	3	Marzo	2023-03-16T00:00:00	2024-11-08T11:00:00	2	Temperatura media	18.8
12226	7	Sololá	701	Sololá	1	Sololá	3	Marzo	2023-03-16T00:00:00	2024-11-08T11:00:00	4	Temperatura máxima	18.8
12227	7	Sololá	701	Sololá	1	Sololá	3	Marzo	2023-03-16T00:00:00	2024-11-08T11:00:00	3	Temperatura mínima	18
12228	7	Sololá	701	Sololá	1	Sololá	3	Marzo	2023-03-16T00:00:00	2024-11-08T11:00:00	5	Humedad	72
12229	7	Sololá	701	Sololá	1	Sololá	3	Marzo	2023-03-16T00:00:00	2024-11-08T11:00:00	6	Velocidad del viento	0
12230	7	Sololá	701	Sololá	1	Sololá	3	Marzo	2023-03-16T00:00:00	2024-11-08T11:00:00	7	Dirección del viento	0
12231	7	Sololá	701	Sololá	1	Sololá	3	Marzo	2023-03-16T00:00:00	2024-11-08T11:00:00	1	Precipitación	0
12232	7	Sololá	701	Sololá	1	Sololá	3	Marzo	2023-03-16T00:00:00	2024-11-08T11:00:00	8	Radiación solar	891
12233	7	Sololá	701	Sololá	1	Sololá	3	Marzo	2023-03-16T00:00:00	2024-11-08T12:00:00	2	Temperatura media	19.8
12234	7	Sololá	701	Sololá	1	Sololá	3	Marzo	2023-03-16T00:00:00	2024-11-08T12:00:00	4	Temperatura máxima	19.9
12235	7	Sololá	701	Sololá	1	Sololá	3	Marzo	2023-03-16T00:00:00	2024-11-08T12:00:00	3	Temperatura mínima	18.8
12236	7	Sololá	701	Sololá	1	Sololá	3	Marzo	2023-03-16T00:00:00	2024-11-08T12:00:00	5	Humedad	70
12237	7	Sololá	701	Sololá	1	Sololá	3	Marzo	2023-03-16T00:00:00	2024-11-08T12:00:00	6	Velocidad del viento	0
12238	7	Sololá	701	Sololá	1	Sololá	3	Marzo	2023-03-16T00:00:00	2024-11-08T12:00:00	7	Dirección del viento	0
12239	7	Sololá	701	Sololá	1	Sololá	3	Marzo	2023-03-16T00:00:00	2024-11-08T12:00:00	1	Precipitación	0
12240	7	Sololá	701	Sololá	1	Sololá	3	Marzo	2023-03-16T00:00:00	2024-11-08T12:00:00	8	Radiación solar	975
12241	7	Sololá	701	Sololá	1	Sololá	3	Marzo	2023-03-16T00:00:00	2024-11-08T13:00:00	2	Temperatura media	20.4
12242	7	Sololá	701	Sololá	1	Sololá	3	Marzo	2023-03-16T00:00:00	2024-11-08T13:00:00	4	Temperatura máxima	20.5
12243	7	Sololá	701	Sololá	1	Sololá	3	Marzo	2023-03-16T00:00:00	2024-11-08T13:00:00	3	Temperatura mínima	19.8
12244	7	Sololá	701	Sololá	1	Sololá	3	Marzo	2023-03-16T00:00:00	2024-11-08T13:00:00	5	Humedad	74
12245	7	Sololá	701	Sololá	1	Sololá	3	Marzo	2023-03-16T00:00:00	2024-11-08T13:00:00	6	Velocidad del viento	0
12246	7	Sololá	701	Sololá	1	Sololá	3	Marzo	2023-03-16T00:00:00	2024-11-08T13:00:00	7	Dirección del viento	0
12247	7	Sololá	701	Sololá	1	Sololá	3	Marzo	2023-03-16T00:00:00	2024-11-08T13:00:00	1	Precipitación	0
12248	7	Sololá	701	Sololá	1	Sololá	3	Marzo	2023-03-16T00:00:00	2024-11-08T13:00:00	8	Radiación solar	976
12249	7	Sololá	701	Sololá	1	Sololá	3	Marzo	2023-03-16T00:00:00	2024-11-08T14:00:00	2	Temperatura media	19.9
12250	7	Sololá	701	Sololá	1	Sololá	3	Marzo	2023-03-16T00:00:00	2024-11-08T14:00:00	4	Temperatura máxima	20.6
12251	7	Sololá	701	Sololá	1	Sololá	3	Marzo	2023-03-16T00:00:00	2024-11-08T14:00:00	3	Temperatura mínima	19.9
12252	7	Sololá	701	Sololá	1	Sololá	3	Marzo	2023-03-16T00:00:00	2024-11-08T14:00:00	5	Humedad	77
12253	7	Sololá	701	Sololá	1	Sololá	3	Marzo	2023-03-16T00:00:00	2024-11-08T14:00:00	6	Velocidad del viento	0
12254	7	Sololá	701	Sololá	1	Sololá	3	Marzo	2023-03-16T00:00:00	2024-11-08T14:00:00	7	Dirección del viento	0
12255	7	Sololá	701	Sololá	1	Sololá	3	Marzo	2023-03-16T00:00:00	2024-11-08T14:00:00	1	Precipitación	0
12256	7	Sololá	701	Sololá	1	Sololá	3	Marzo	2023-03-16T00:00:00	2024-11-08T14:00:00	8	Radiación solar	400
12257	7	Sololá	701	Sololá	1	Sololá	3	Marzo	2023-03-16T00:00:00	2024-11-08T15:00:00	2	Temperatura media	19.3
12258	7	Sololá	701	Sololá	1	Sololá	3	Marzo	2023-03-16T00:00:00	2024-11-08T15:00:00	4	Temperatura máxima	19.9
12259	7	Sololá	701	Sololá	1	Sololá	3	Marzo	2023-03-16T00:00:00	2024-11-08T15:00:00	3	Temperatura mínima	18.7
12260	7	Sololá	701	Sololá	1	Sololá	3	Marzo	2023-03-16T00:00:00	2024-11-08T15:00:00	5	Humedad	80
12261	7	Sololá	701	Sololá	1	Sololá	3	Marzo	2023-03-16T00:00:00	2024-11-08T15:00:00	6	Velocidad del viento	0
12262	7	Sololá	701	Sololá	1	Sololá	3	Marzo	2023-03-16T00:00:00	2024-11-08T15:00:00	7	Dirección del viento	0
12263	7	Sololá	701	Sololá	1	Sololá	3	Marzo	2023-03-16T00:00:00	2024-11-08T15:00:00	1	Precipitación	0
12264	7	Sololá	701	Sololá	1	Sololá	3	Marzo	2023-03-16T00:00:00	2024-11-08T15:00:00	8	Radiación solar	178
12265	7	Sololá	701	Sololá	1	Sololá	3	Marzo	2023-03-16T00:00:00	2024-11-08T16:00:00	2	Temperatura media	17.8
12266	7	Sololá	701	Sololá	1	Sololá	3	Marzo	2023-03-16T00:00:00	2024-11-08T16:00:00	4	Temperatura máxima	19.4
12267	7	Sololá	701	Sololá	1	Sololá	3	Marzo	2023-03-16T00:00:00	2024-11-08T16:00:00	3	Temperatura mínima	17.8
12268	7	Sololá	701	Sololá	1	Sololá	3	Marzo	2023-03-16T00:00:00	2024-11-08T16:00:00	5	Humedad	83
12269	7	Sololá	701	Sololá	1	Sololá	3	Marzo	2023-03-16T00:00:00	2024-11-08T16:00:00	6	Velocidad del viento	0
12270	7	Sololá	701	Sololá	1	Sololá	3	Marzo	2023-03-16T00:00:00	2024-11-08T16:00:00	7	Dirección del viento	0
12271	7	Sololá	701	Sololá	1	Sololá	3	Marzo	2023-03-16T00:00:00	2024-11-08T16:00:00	1	Precipitación	0
12272	7	Sololá	701	Sololá	1	Sololá	3	Marzo	2023-03-16T00:00:00	2024-11-08T16:00:00	8	Radiación solar	47
12273	7	Sololá	701	Sololá	1	Sololá	3	Marzo	2023-03-16T00:00:00	2024-11-08T17:00:00	2	Temperatura media	16.5
12274	7	Sololá	701	Sololá	1	Sololá	3	Marzo	2023-03-16T00:00:00	2024-11-08T17:00:00	4	Temperatura máxima	17.8
12275	7	Sololá	701	Sololá	1	Sololá	3	Marzo	2023-03-16T00:00:00	2024-11-08T17:00:00	3	Temperatura mínima	16.5
12276	7	Sololá	701	Sololá	1	Sololá	3	Marzo	2023-03-16T00:00:00	2024-11-08T17:00:00	5	Humedad	91
12277	7	Sololá	701	Sololá	1	Sololá	3	Marzo	2023-03-16T00:00:00	2024-11-08T17:00:00	6	Velocidad del viento	0
12278	7	Sololá	701	Sololá	1	Sololá	3	Marzo	2023-03-16T00:00:00	2024-11-08T17:00:00	7	Dirección del viento	0
12279	7	Sololá	701	Sololá	1	Sololá	3	Marzo	2023-03-16T00:00:00	2024-11-08T17:00:00	1	Precipitación	0
12280	7	Sololá	701	Sololá	1	Sololá	3	Marzo	2023-03-16T00:00:00	2024-11-08T17:00:00	8	Radiación solar	42
12281	7	Sololá	701	Sololá	1	Sololá	3	Marzo	2023-03-16T00:00:00	2024-11-08T18:00:00	2	Temperatura media	14.2
12282	7	Sololá	701	Sololá	1	Sololá	3	Marzo	2023-03-16T00:00:00	2024-11-08T18:00:00	4	Temperatura máxima	16.5
12283	7	Sololá	701	Sololá	1	Sololá	3	Marzo	2023-03-16T00:00:00	2024-11-08T18:00:00	3	Temperatura mínima	14.2
12284	7	Sololá	701	Sololá	1	Sololá	3	Marzo	2023-03-16T00:00:00	2024-11-08T18:00:00	5	Humedad	91
12285	7	Sololá	701	Sololá	1	Sololá	3	Marzo	2023-03-16T00:00:00	2024-11-08T18:00:00	6	Velocidad del viento	0
12286	7	Sololá	701	Sololá	1	Sololá	3	Marzo	2023-03-16T00:00:00	2024-11-08T18:00:00	7	Dirección del viento	0
12287	7	Sololá	701	Sololá	1	Sololá	3	Marzo	2023-03-16T00:00:00	2024-11-08T18:00:00	1	Precipitación	0
12288	7	Sololá	701	Sololá	1	Sololá	3	Marzo	2023-03-16T00:00:00	2024-11-08T18:00:00	8	Radiación solar	16
12289	7	Sololá	701	Sololá	1	Sololá	3	Marzo	2023-03-16T00:00:00	2024-11-08T19:00:00	2	Temperatura media	13.9
12290	7	Sololá	701	Sololá	1	Sololá	3	Marzo	2023-03-16T00:00:00	2024-11-08T19:00:00	4	Temperatura máxima	14.2
12291	7	Sololá	701	Sololá	1	Sololá	3	Marzo	2023-03-16T00:00:00	2024-11-08T19:00:00	3	Temperatura mínima	13.7
12292	7	Sololá	701	Sololá	1	Sololá	3	Marzo	2023-03-16T00:00:00	2024-11-08T19:00:00	5	Humedad	94
12293	7	Sololá	701	Sololá	1	Sololá	3	Marzo	2023-03-16T00:00:00	2024-11-08T19:00:00	6	Velocidad del viento	0
12294	7	Sololá	701	Sololá	1	Sololá	3	Marzo	2023-03-16T00:00:00	2024-11-08T19:00:00	7	Dirección del viento	0
12295	7	Sololá	701	Sololá	1	Sololá	3	Marzo	2023-03-16T00:00:00	2024-11-08T19:00:00	1	Precipitación	0
12296	7	Sololá	701	Sololá	1	Sololá	3	Marzo	2023-03-16T00:00:00	2024-11-08T19:00:00	8	Radiación solar	0
12297	7	Sololá	701	Sololá	1	Sololá	3	Marzo	2023-03-16T00:00:00	2024-11-08T20:00:00	2	Temperatura media	13.7
12298	7	Sololá	701	Sololá	1	Sololá	3	Marzo	2023-03-16T00:00:00	2024-11-08T20:00:00	4	Temperatura máxima	13.9
12299	7	Sololá	701	Sololá	1	Sololá	3	Marzo	2023-03-16T00:00:00	2024-11-08T20:00:00	3	Temperatura mínima	13.7
12300	7	Sololá	701	Sololá	1	Sololá	3	Marzo	2023-03-16T00:00:00	2024-11-08T20:00:00	5	Humedad	89
12301	7	Sololá	701	Sololá	1	Sololá	3	Marzo	2023-03-16T00:00:00	2024-11-08T20:00:00	6	Velocidad del viento	0
12302	7	Sololá	701	Sololá	1	Sololá	3	Marzo	2023-03-16T00:00:00	2024-11-08T20:00:00	7	Dirección del viento	0
12303	7	Sololá	701	Sololá	1	Sololá	3	Marzo	2023-03-16T00:00:00	2024-11-08T20:00:00	1	Precipitación	0
12304	7	Sololá	701	Sololá	1	Sololá	3	Marzo	2023-03-16T00:00:00	2024-11-08T20:00:00	8	Radiación solar	0
12305	7	Sololá	701	Sololá	1	Sololá	3	Marzo	2023-03-16T00:00:00	2024-11-08T21:00:00	2	Temperatura media	13.2
12306	7	Sololá	701	Sololá	1	Sololá	3	Marzo	2023-03-16T00:00:00	2024-11-08T21:00:00	4	Temperatura máxima	13.9
12307	7	Sololá	701	Sololá	1	Sololá	3	Marzo	2023-03-16T00:00:00	2024-11-08T21:00:00	3	Temperatura mínima	13.2
12308	7	Sololá	701	Sololá	1	Sololá	3	Marzo	2023-03-16T00:00:00	2024-11-08T21:00:00	5	Humedad	90
12309	7	Sololá	701	Sololá	1	Sololá	3	Marzo	2023-03-16T00:00:00	2024-11-08T21:00:00	6	Velocidad del viento	0
12310	7	Sololá	701	Sololá	1	Sololá	3	Marzo	2023-03-16T00:00:00	2024-11-08T21:00:00	7	Dirección del viento	0
12311	7	Sololá	701	Sololá	1	Sololá	3	Marzo	2023-03-16T00:00:00	2024-11-08T21:00:00	1	Precipitación	0
12312	7	Sololá	701	Sololá	1	Sololá	3	Marzo	2023-03-16T00:00:00	2024-11-08T21:00:00	8	Radiación solar	0
12313	7	Sololá	701	Sololá	1	Sololá	3	Marzo	2023-03-16T00:00:00	2024-11-08T22:00:00	2	Temperatura media	12.3
12314	7	Sololá	701	Sololá	1	Sololá	3	Marzo	2023-03-16T00:00:00	2024-11-08T22:00:00	4	Temperatura máxima	13.2
12315	7	Sololá	701	Sololá	1	Sololá	3	Marzo	2023-03-16T00:00:00	2024-11-08T22:00:00	3	Temperatura mínima	12.3
12316	7	Sololá	701	Sololá	1	Sololá	3	Marzo	2023-03-16T00:00:00	2024-11-08T22:00:00	5	Humedad	89
12317	7	Sololá	701	Sololá	1	Sololá	3	Marzo	2023-03-16T00:00:00	2024-11-08T22:00:00	6	Velocidad del viento	0
12318	7	Sololá	701	Sololá	1	Sololá	3	Marzo	2023-03-16T00:00:00	2024-11-08T22:00:00	7	Dirección del viento	0
12319	7	Sololá	701	Sololá	1	Sololá	3	Marzo	2023-03-16T00:00:00	2024-11-08T22:00:00	1	Precipitación	0
12320	7	Sololá	701	Sololá	1	Sololá	3	Marzo	2023-03-16T00:00:00	2024-11-08T22:00:00	8	Radiación solar	0
12321	7	Sololá	701	Sololá	1	Sololá	3	Marzo	2023-03-16T00:00:00	2024-11-08T23:00:00	2	Temperatura media	12
12322	7	Sololá	701	Sololá	1	Sololá	3	Marzo	2023-03-16T00:00:00	2024-11-08T23:00:00	4	Temperatura máxima	12.3
12323	7	Sololá	701	Sololá	1	Sololá	3	Marzo	2023-03-16T00:00:00	2024-11-08T23:00:00	3	Temperatura mínima	12
12324	7	Sololá	701	Sololá	1	Sololá	3	Marzo	2023-03-16T00:00:00	2024-11-08T23:00:00	5	Humedad	90
12325	7	Sololá	701	Sololá	1	Sololá	3	Marzo	2023-03-16T00:00:00	2024-11-08T23:00:00	6	Velocidad del viento	0
12326	7	Sololá	701	Sololá	1	Sololá	3	Marzo	2023-03-16T00:00:00	2024-11-08T23:00:00	7	Dirección del viento	0
12327	7	Sololá	701	Sololá	1	Sololá	3	Marzo	2023-03-16T00:00:00	2024-11-08T23:00:00	1	Precipitación	0.2
12328	7	Sololá	701	Sololá	1	Sololá	3	Marzo	2023-03-16T00:00:00	2024-11-08T23:00:00	8	Radiación solar	0
12329	7	Sololá	701	Sololá	1	Sololá	3	Marzo	2023-03-17T00:00:00	2024-11-08T00:00:00	2	Temperatura media	12.8
12330	7	Sololá	701	Sololá	1	Sololá	3	Marzo	2023-03-17T00:00:00	2024-11-08T00:00:00	4	Temperatura máxima	12.8
12331	7	Sololá	701	Sololá	1	Sololá	3	Marzo	2023-03-17T00:00:00	2024-11-08T00:00:00	3	Temperatura mínima	11.8
12332	7	Sololá	701	Sololá	1	Sololá	3	Marzo	2023-03-17T00:00:00	2024-11-08T00:00:00	5	Humedad	91
12333	7	Sololá	701	Sololá	1	Sololá	3	Marzo	2023-03-17T00:00:00	2024-11-08T00:00:00	6	Velocidad del viento	0
12334	7	Sololá	701	Sololá	1	Sololá	3	Marzo	2023-03-17T00:00:00	2024-11-08T00:00:00	7	Dirección del viento	0
12335	7	Sololá	701	Sololá	1	Sololá	3	Marzo	2023-03-17T00:00:00	2024-11-08T00:00:00	1	Precipitación	0.2
12336	7	Sololá	701	Sololá	1	Sololá	3	Marzo	2023-03-17T00:00:00	2024-11-08T00:00:00	8	Radiación solar	0
12337	7	Sololá	701	Sololá	1	Sololá	3	Marzo	2023-03-17T00:00:00	2024-11-08T01:00:00	2	Temperatura media	12.6
12338	7	Sololá	701	Sololá	1	Sololá	3	Marzo	2023-03-17T00:00:00	2024-11-08T01:00:00	4	Temperatura máxima	12.8
12339	7	Sololá	701	Sololá	1	Sololá	3	Marzo	2023-03-17T00:00:00	2024-11-08T01:00:00	3	Temperatura mínima	12.3
12340	7	Sololá	701	Sololá	1	Sololá	3	Marzo	2023-03-17T00:00:00	2024-11-08T01:00:00	5	Humedad	93
12341	7	Sololá	701	Sololá	1	Sololá	3	Marzo	2023-03-17T00:00:00	2024-11-08T01:00:00	6	Velocidad del viento	0
12342	7	Sololá	701	Sololá	1	Sololá	3	Marzo	2023-03-17T00:00:00	2024-11-08T01:00:00	7	Dirección del viento	0
12343	7	Sololá	701	Sololá	1	Sololá	3	Marzo	2023-03-17T00:00:00	2024-11-08T01:00:00	1	Precipitación	0
12344	7	Sololá	701	Sololá	1	Sololá	3	Marzo	2023-03-17T00:00:00	2024-11-08T01:00:00	8	Radiación solar	0
12345	7	Sololá	701	Sololá	1	Sololá	3	Marzo	2023-03-17T00:00:00	2024-11-08T02:00:00	2	Temperatura media	12.7
12346	7	Sololá	701	Sololá	1	Sololá	3	Marzo	2023-03-17T00:00:00	2024-11-08T02:00:00	4	Temperatura máxima	12.7
12347	7	Sololá	701	Sololá	1	Sololá	3	Marzo	2023-03-17T00:00:00	2024-11-08T02:00:00	3	Temperatura mínima	12.6
12348	7	Sololá	701	Sololá	1	Sololá	3	Marzo	2023-03-17T00:00:00	2024-11-08T02:00:00	5	Humedad	92
12349	7	Sololá	701	Sololá	1	Sololá	3	Marzo	2023-03-17T00:00:00	2024-11-08T02:00:00	6	Velocidad del viento	0
12350	7	Sololá	701	Sololá	1	Sololá	3	Marzo	2023-03-17T00:00:00	2024-11-08T02:00:00	7	Dirección del viento	0
12351	7	Sololá	701	Sololá	1	Sololá	3	Marzo	2023-03-17T00:00:00	2024-11-08T02:00:00	1	Precipitación	0
12352	7	Sololá	701	Sololá	1	Sololá	3	Marzo	2023-03-17T00:00:00	2024-11-08T02:00:00	8	Radiación solar	0
12353	7	Sololá	701	Sololá	1	Sololá	3	Marzo	2023-03-17T00:00:00	2024-11-08T03:00:00	2	Temperatura media	12.3
12354	7	Sololá	701	Sololá	1	Sololá	3	Marzo	2023-03-17T00:00:00	2024-11-08T03:00:00	4	Temperatura máxima	12.8
12355	7	Sololá	701	Sololá	1	Sololá	3	Marzo	2023-03-17T00:00:00	2024-11-08T03:00:00	3	Temperatura mínima	12.2
12356	7	Sololá	701	Sololá	1	Sololá	3	Marzo	2023-03-17T00:00:00	2024-11-08T03:00:00	5	Humedad	91
12357	7	Sololá	701	Sololá	1	Sololá	3	Marzo	2023-03-17T00:00:00	2024-11-08T03:00:00	6	Velocidad del viento	0
12358	7	Sololá	701	Sololá	1	Sololá	3	Marzo	2023-03-17T00:00:00	2024-11-08T03:00:00	7	Dirección del viento	0
12359	7	Sololá	701	Sololá	1	Sololá	3	Marzo	2023-03-17T00:00:00	2024-11-08T03:00:00	1	Precipitación	0
12360	7	Sololá	701	Sololá	1	Sololá	3	Marzo	2023-03-17T00:00:00	2024-11-08T03:00:00	8	Radiación solar	0
12361	7	Sololá	701	Sololá	1	Sololá	3	Marzo	2023-03-17T00:00:00	2024-11-08T04:00:00	2	Temperatura media	12.1
12362	7	Sololá	701	Sololá	1	Sololá	3	Marzo	2023-03-17T00:00:00	2024-11-08T04:00:00	4	Temperatura máxima	12.7
12363	7	Sololá	701	Sololá	1	Sololá	3	Marzo	2023-03-17T00:00:00	2024-11-08T04:00:00	3	Temperatura mínima	12.1
12364	7	Sololá	701	Sololá	1	Sololá	3	Marzo	2023-03-17T00:00:00	2024-11-08T04:00:00	5	Humedad	89
12365	7	Sololá	701	Sololá	1	Sololá	3	Marzo	2023-03-17T00:00:00	2024-11-08T04:00:00	6	Velocidad del viento	0
12366	7	Sololá	701	Sololá	1	Sololá	3	Marzo	2023-03-17T00:00:00	2024-11-08T04:00:00	7	Dirección del viento	0
12367	7	Sololá	701	Sololá	1	Sololá	3	Marzo	2023-03-17T00:00:00	2024-11-08T04:00:00	1	Precipitación	0
12368	7	Sololá	701	Sololá	1	Sololá	3	Marzo	2023-03-17T00:00:00	2024-11-08T04:00:00	8	Radiación solar	0
12369	7	Sololá	701	Sololá	1	Sololá	3	Marzo	2023-03-17T00:00:00	2024-11-08T05:00:00	2	Temperatura media	11.1
12370	7	Sololá	701	Sololá	1	Sololá	3	Marzo	2023-03-17T00:00:00	2024-11-08T05:00:00	4	Temperatura máxima	12.1
12371	7	Sololá	701	Sololá	1	Sololá	3	Marzo	2023-03-17T00:00:00	2024-11-08T05:00:00	3	Temperatura mínima	11.1
12372	7	Sololá	701	Sololá	1	Sololá	3	Marzo	2023-03-17T00:00:00	2024-11-08T05:00:00	5	Humedad	89
12373	7	Sololá	701	Sololá	1	Sololá	3	Marzo	2023-03-17T00:00:00	2024-11-08T05:00:00	6	Velocidad del viento	0
12374	7	Sololá	701	Sololá	1	Sololá	3	Marzo	2023-03-17T00:00:00	2024-11-08T05:00:00	7	Dirección del viento	0
12375	7	Sololá	701	Sololá	1	Sololá	3	Marzo	2023-03-17T00:00:00	2024-11-08T05:00:00	1	Precipitación	0
12376	7	Sololá	701	Sololá	1	Sololá	3	Marzo	2023-03-17T00:00:00	2024-11-08T05:00:00	8	Radiación solar	0
12377	7	Sololá	701	Sololá	1	Sololá	3	Marzo	2023-03-17T00:00:00	2024-11-08T06:00:00	2	Temperatura media	10.8
12378	7	Sololá	701	Sololá	1	Sololá	3	Marzo	2023-03-17T00:00:00	2024-11-08T06:00:00	4	Temperatura máxima	11.1
12379	7	Sololá	701	Sololá	1	Sololá	3	Marzo	2023-03-17T00:00:00	2024-11-08T06:00:00	3	Temperatura mínima	10.4
12380	7	Sololá	701	Sololá	1	Sololá	3	Marzo	2023-03-17T00:00:00	2024-11-08T06:00:00	5	Humedad	89
12381	7	Sololá	701	Sololá	1	Sololá	3	Marzo	2023-03-17T00:00:00	2024-11-08T06:00:00	6	Velocidad del viento	1.6
12382	7	Sololá	701	Sololá	1	Sololá	3	Marzo	2023-03-17T00:00:00	2024-11-08T06:00:00	7	Dirección del viento	1.61
12383	7	Sololá	701	Sololá	1	Sololá	3	Marzo	2023-03-17T00:00:00	2024-11-08T06:00:00	1	Precipitación	0.2
12384	7	Sololá	701	Sololá	1	Sololá	3	Marzo	2023-03-17T00:00:00	2024-11-08T06:00:00	8	Radiación solar	0
12385	7	Sololá	701	Sololá	1	Sololá	3	Marzo	2023-03-17T00:00:00	2024-11-08T07:00:00	2	Temperatura media	10.8
12386	7	Sololá	701	Sololá	1	Sololá	3	Marzo	2023-03-17T00:00:00	2024-11-08T07:00:00	4	Temperatura máxima	11.1
12387	7	Sololá	701	Sololá	1	Sololá	3	Marzo	2023-03-17T00:00:00	2024-11-08T07:00:00	3	Temperatura mínima	10.6
12388	7	Sololá	701	Sololá	1	Sololá	3	Marzo	2023-03-17T00:00:00	2024-11-08T07:00:00	5	Humedad	89
12389	7	Sololá	701	Sololá	1	Sololá	3	Marzo	2023-03-17T00:00:00	2024-11-08T07:00:00	6	Velocidad del viento	0
12390	7	Sololá	701	Sololá	1	Sololá	3	Marzo	2023-03-17T00:00:00	2024-11-08T07:00:00	7	Dirección del viento	0
12391	7	Sololá	701	Sololá	1	Sololá	3	Marzo	2023-03-17T00:00:00	2024-11-08T07:00:00	1	Precipitación	0
12392	7	Sololá	701	Sololá	1	Sololá	3	Marzo	2023-03-17T00:00:00	2024-11-08T07:00:00	8	Radiación solar	15
12393	7	Sololá	701	Sololá	1	Sololá	3	Marzo	2023-03-17T00:00:00	2024-11-08T08:00:00	2	Temperatura media	11.2
12394	7	Sololá	701	Sololá	1	Sololá	3	Marzo	2023-03-17T00:00:00	2024-11-08T08:00:00	4	Temperatura máxima	11.2
12395	7	Sololá	701	Sololá	1	Sololá	3	Marzo	2023-03-17T00:00:00	2024-11-08T08:00:00	3	Temperatura mínima	10.7
12396	7	Sololá	701	Sololá	1	Sololá	3	Marzo	2023-03-17T00:00:00	2024-11-08T08:00:00	5	Humedad	89
12397	7	Sololá	701	Sololá	1	Sololá	3	Marzo	2023-03-17T00:00:00	2024-11-08T08:00:00	6	Velocidad del viento	1.6
12398	7	Sololá	701	Sololá	1	Sololá	3	Marzo	2023-03-17T00:00:00	2024-11-08T08:00:00	7	Dirección del viento	1.61
12399	7	Sololá	701	Sololá	1	Sololá	3	Marzo	2023-03-17T00:00:00	2024-11-08T08:00:00	1	Precipitación	0
12400	7	Sololá	701	Sololá	1	Sololá	3	Marzo	2023-03-17T00:00:00	2024-11-08T08:00:00	8	Radiación solar	87
12401	7	Sololá	701	Sololá	1	Sololá	3	Marzo	2023-03-17T00:00:00	2024-11-08T09:00:00	2	Temperatura media	13.4
12402	7	Sololá	701	Sololá	1	Sololá	3	Marzo	2023-03-17T00:00:00	2024-11-08T09:00:00	4	Temperatura máxima	13.4
12403	7	Sololá	701	Sololá	1	Sololá	3	Marzo	2023-03-17T00:00:00	2024-11-08T09:00:00	3	Temperatura mínima	11.1
12404	7	Sololá	701	Sololá	1	Sololá	3	Marzo	2023-03-17T00:00:00	2024-11-08T09:00:00	5	Humedad	87
12405	7	Sololá	701	Sololá	1	Sololá	3	Marzo	2023-03-17T00:00:00	2024-11-08T09:00:00	6	Velocidad del viento	0
12406	7	Sololá	701	Sololá	1	Sololá	3	Marzo	2023-03-17T00:00:00	2024-11-08T09:00:00	7	Dirección del viento	0
12407	7	Sololá	701	Sololá	1	Sololá	3	Marzo	2023-03-17T00:00:00	2024-11-08T09:00:00	1	Precipitación	0
12408	7	Sololá	701	Sololá	1	Sololá	3	Marzo	2023-03-17T00:00:00	2024-11-08T09:00:00	8	Radiación solar	444
12409	7	Sololá	701	Sololá	1	Sololá	3	Marzo	2023-03-17T00:00:00	2024-11-08T10:00:00	2	Temperatura media	17.8
12410	7	Sololá	701	Sololá	1	Sololá	3	Marzo	2023-03-17T00:00:00	2024-11-08T10:00:00	4	Temperatura máxima	17.8
12411	7	Sololá	701	Sololá	1	Sololá	3	Marzo	2023-03-17T00:00:00	2024-11-08T10:00:00	3	Temperatura mínima	13.5
12412	7	Sololá	701	Sololá	1	Sololá	3	Marzo	2023-03-17T00:00:00	2024-11-08T10:00:00	5	Humedad	79
12413	7	Sololá	701	Sololá	1	Sololá	3	Marzo	2023-03-17T00:00:00	2024-11-08T10:00:00	6	Velocidad del viento	0
12414	7	Sololá	701	Sololá	1	Sololá	3	Marzo	2023-03-17T00:00:00	2024-11-08T10:00:00	7	Dirección del viento	0
12415	7	Sololá	701	Sololá	1	Sololá	3	Marzo	2023-03-17T00:00:00	2024-11-08T10:00:00	1	Precipitación	0
12416	7	Sololá	701	Sololá	1	Sololá	3	Marzo	2023-03-17T00:00:00	2024-11-08T10:00:00	8	Radiación solar	672
12417	7	Sololá	701	Sololá	1	Sololá	3	Marzo	2023-03-17T00:00:00	2024-11-08T11:00:00	2	Temperatura media	18.8
12418	7	Sololá	701	Sololá	1	Sololá	3	Marzo	2023-03-17T00:00:00	2024-11-08T11:00:00	4	Temperatura máxima	18.8
12419	7	Sololá	701	Sololá	1	Sololá	3	Marzo	2023-03-17T00:00:00	2024-11-08T11:00:00	3	Temperatura mínima	17.8
12420	7	Sololá	701	Sololá	1	Sololá	3	Marzo	2023-03-17T00:00:00	2024-11-08T11:00:00	5	Humedad	76
12421	7	Sololá	701	Sololá	1	Sololá	3	Marzo	2023-03-17T00:00:00	2024-11-08T11:00:00	6	Velocidad del viento	0
12422	7	Sololá	701	Sololá	1	Sololá	3	Marzo	2023-03-17T00:00:00	2024-11-08T11:00:00	7	Dirección del viento	0
12423	7	Sololá	701	Sololá	1	Sololá	3	Marzo	2023-03-17T00:00:00	2024-11-08T11:00:00	1	Precipitación	0
12424	7	Sololá	701	Sololá	1	Sololá	3	Marzo	2023-03-17T00:00:00	2024-11-08T11:00:00	8	Radiación solar	896
12425	7	Sololá	701	Sololá	1	Sololá	3	Marzo	2023-03-17T00:00:00	2024-11-08T12:00:00	2	Temperatura media	19.7
12426	7	Sololá	701	Sololá	1	Sololá	3	Marzo	2023-03-17T00:00:00	2024-11-08T12:00:00	4	Temperatura máxima	19.7
12427	7	Sololá	701	Sololá	1	Sololá	3	Marzo	2023-03-17T00:00:00	2024-11-08T12:00:00	3	Temperatura mínima	18.7
12428	7	Sololá	701	Sololá	1	Sololá	3	Marzo	2023-03-17T00:00:00	2024-11-08T12:00:00	5	Humedad	75
12429	7	Sololá	701	Sololá	1	Sololá	3	Marzo	2023-03-17T00:00:00	2024-11-08T12:00:00	6	Velocidad del viento	0
12430	7	Sololá	701	Sololá	1	Sololá	3	Marzo	2023-03-17T00:00:00	2024-11-08T12:00:00	7	Dirección del viento	0
12431	7	Sololá	701	Sololá	1	Sololá	3	Marzo	2023-03-17T00:00:00	2024-11-08T12:00:00	1	Precipitación	0
12432	7	Sololá	701	Sololá	1	Sololá	3	Marzo	2023-03-17T00:00:00	2024-11-08T12:00:00	8	Radiación solar	912
12433	7	Sololá	701	Sololá	1	Sololá	3	Marzo	2023-03-17T00:00:00	2024-11-08T13:00:00	2	Temperatura media	20.3
12434	7	Sololá	701	Sololá	1	Sololá	3	Marzo	2023-03-17T00:00:00	2024-11-08T13:00:00	4	Temperatura máxima	20.5
12435	7	Sololá	701	Sololá	1	Sololá	3	Marzo	2023-03-17T00:00:00	2024-11-08T13:00:00	3	Temperatura mínima	19.7
12436	7	Sololá	701	Sololá	1	Sololá	3	Marzo	2023-03-17T00:00:00	2024-11-08T13:00:00	5	Humedad	73
12437	7	Sololá	701	Sololá	1	Sololá	3	Marzo	2023-03-17T00:00:00	2024-11-08T13:00:00	6	Velocidad del viento	0
12438	7	Sololá	701	Sololá	1	Sololá	3	Marzo	2023-03-17T00:00:00	2024-11-08T13:00:00	7	Dirección del viento	0
12439	7	Sololá	701	Sololá	1	Sololá	3	Marzo	2023-03-17T00:00:00	2024-11-08T13:00:00	1	Precipitación	0
12440	7	Sololá	701	Sololá	1	Sololá	3	Marzo	2023-03-17T00:00:00	2024-11-08T13:00:00	8	Radiación solar	813
12441	7	Sololá	701	Sololá	1	Sololá	3	Marzo	2023-03-17T00:00:00	2024-11-08T14:00:00	2	Temperatura media	20.3
12442	7	Sololá	701	Sololá	1	Sololá	3	Marzo	2023-03-17T00:00:00	2024-11-08T14:00:00	4	Temperatura máxima	20.7
12443	7	Sololá	701	Sololá	1	Sololá	3	Marzo	2023-03-17T00:00:00	2024-11-08T14:00:00	3	Temperatura mínima	20.1
12444	7	Sololá	701	Sololá	1	Sololá	3	Marzo	2023-03-17T00:00:00	2024-11-08T14:00:00	5	Humedad	75
12445	7	Sololá	701	Sololá	1	Sololá	3	Marzo	2023-03-17T00:00:00	2024-11-08T14:00:00	6	Velocidad del viento	0
12446	7	Sololá	701	Sololá	1	Sololá	3	Marzo	2023-03-17T00:00:00	2024-11-08T14:00:00	7	Dirección del viento	0
12447	7	Sololá	701	Sololá	1	Sololá	3	Marzo	2023-03-17T00:00:00	2024-11-08T14:00:00	1	Precipitación	0
12448	7	Sololá	701	Sololá	1	Sololá	3	Marzo	2023-03-17T00:00:00	2024-11-08T14:00:00	8	Radiación solar	170
12449	7	Sololá	701	Sololá	1	Sololá	3	Marzo	2023-03-17T00:00:00	2024-11-08T15:00:00	2	Temperatura media	17.1
12450	7	Sololá	701	Sololá	1	Sololá	3	Marzo	2023-03-17T00:00:00	2024-11-08T15:00:00	4	Temperatura máxima	20.6
12451	7	Sololá	701	Sololá	1	Sololá	3	Marzo	2023-03-17T00:00:00	2024-11-08T15:00:00	3	Temperatura mínima	17.1
12452	7	Sololá	701	Sololá	1	Sololá	3	Marzo	2023-03-17T00:00:00	2024-11-08T15:00:00	5	Humedad	89
12453	7	Sololá	701	Sololá	1	Sololá	3	Marzo	2023-03-17T00:00:00	2024-11-08T15:00:00	6	Velocidad del viento	0
12454	7	Sololá	701	Sololá	1	Sololá	3	Marzo	2023-03-17T00:00:00	2024-11-08T15:00:00	7	Dirección del viento	0
12455	7	Sololá	701	Sololá	1	Sololá	3	Marzo	2023-03-17T00:00:00	2024-11-08T15:00:00	1	Precipitación	0
12456	7	Sololá	701	Sololá	1	Sololá	3	Marzo	2023-03-17T00:00:00	2024-11-08T15:00:00	8	Radiación solar	92
12457	7	Sololá	701	Sololá	1	Sololá	3	Marzo	2023-03-17T00:00:00	2024-11-08T16:00:00	2	Temperatura media	16.3
12458	7	Sololá	701	Sololá	1	Sololá	3	Marzo	2023-03-17T00:00:00	2024-11-08T16:00:00	4	Temperatura máxima	17.1
12459	7	Sololá	701	Sololá	1	Sololá	3	Marzo	2023-03-17T00:00:00	2024-11-08T16:00:00	3	Temperatura mínima	16.2
12460	7	Sololá	701	Sololá	1	Sololá	3	Marzo	2023-03-17T00:00:00	2024-11-08T16:00:00	5	Humedad	87
12461	7	Sololá	701	Sololá	1	Sololá	3	Marzo	2023-03-17T00:00:00	2024-11-08T16:00:00	6	Velocidad del viento	0
12462	7	Sololá	701	Sololá	1	Sololá	3	Marzo	2023-03-17T00:00:00	2024-11-08T16:00:00	7	Dirección del viento	0
12463	7	Sololá	701	Sololá	1	Sololá	3	Marzo	2023-03-17T00:00:00	2024-11-08T16:00:00	1	Precipitación	0
12464	7	Sololá	701	Sololá	1	Sololá	3	Marzo	2023-03-17T00:00:00	2024-11-08T16:00:00	8	Radiación solar	129
12465	7	Sololá	701	Sololá	1	Sololá	3	Marzo	2023-03-17T00:00:00	2024-11-08T17:00:00	2	Temperatura media	17.3
12466	7	Sololá	701	Sololá	1	Sololá	3	Marzo	2023-03-17T00:00:00	2024-11-08T17:00:00	4	Temperatura máxima	17.6
12467	7	Sololá	701	Sololá	1	Sololá	3	Marzo	2023-03-17T00:00:00	2024-11-08T17:00:00	3	Temperatura mínima	16.1
12468	7	Sololá	701	Sololá	1	Sololá	3	Marzo	2023-03-17T00:00:00	2024-11-08T17:00:00	5	Humedad	79
12469	7	Sololá	701	Sololá	1	Sololá	3	Marzo	2023-03-17T00:00:00	2024-11-08T17:00:00	6	Velocidad del viento	0
12470	7	Sololá	701	Sololá	1	Sololá	3	Marzo	2023-03-17T00:00:00	2024-11-08T17:00:00	7	Dirección del viento	0
12471	7	Sololá	701	Sololá	1	Sololá	3	Marzo	2023-03-17T00:00:00	2024-11-08T17:00:00	1	Precipitación	0
12472	7	Sololá	701	Sololá	1	Sololá	3	Marzo	2023-03-17T00:00:00	2024-11-08T17:00:00	8	Radiación solar	62
12473	7	Sololá	701	Sololá	1	Sololá	3	Marzo	2023-03-17T00:00:00	2024-11-08T18:00:00	2	Temperatura media	15.9
12474	7	Sololá	701	Sololá	1	Sololá	3	Marzo	2023-03-17T00:00:00	2024-11-08T18:00:00	4	Temperatura máxima	17.3
12475	7	Sololá	701	Sololá	1	Sololá	3	Marzo	2023-03-17T00:00:00	2024-11-08T18:00:00	3	Temperatura mínima	15.9
12476	7	Sololá	701	Sololá	1	Sololá	3	Marzo	2023-03-17T00:00:00	2024-11-08T18:00:00	5	Humedad	86
12477	7	Sololá	701	Sololá	1	Sololá	3	Marzo	2023-03-17T00:00:00	2024-11-08T18:00:00	6	Velocidad del viento	0
12478	7	Sololá	701	Sololá	1	Sololá	3	Marzo	2023-03-17T00:00:00	2024-11-08T18:00:00	7	Dirección del viento	0
12479	7	Sololá	701	Sololá	1	Sololá	3	Marzo	2023-03-17T00:00:00	2024-11-08T18:00:00	1	Precipitación	0
12480	7	Sololá	701	Sololá	1	Sololá	3	Marzo	2023-03-17T00:00:00	2024-11-08T18:00:00	8	Radiación solar	13
12481	7	Sololá	701	Sololá	1	Sololá	3	Marzo	2023-03-17T00:00:00	2024-11-08T19:00:00	2	Temperatura media	15.1
12482	7	Sololá	701	Sololá	1	Sololá	3	Marzo	2023-03-17T00:00:00	2024-11-08T19:00:00	4	Temperatura máxima	15.8
12483	7	Sololá	701	Sololá	1	Sololá	3	Marzo	2023-03-17T00:00:00	2024-11-08T19:00:00	3	Temperatura mínima	15.1
12484	7	Sololá	701	Sololá	1	Sololá	3	Marzo	2023-03-17T00:00:00	2024-11-08T19:00:00	5	Humedad	92
12485	7	Sololá	701	Sololá	1	Sololá	3	Marzo	2023-03-17T00:00:00	2024-11-08T19:00:00	6	Velocidad del viento	0
12486	7	Sololá	701	Sololá	1	Sololá	3	Marzo	2023-03-17T00:00:00	2024-11-08T19:00:00	7	Dirección del viento	0
12487	7	Sololá	701	Sololá	1	Sololá	3	Marzo	2023-03-17T00:00:00	2024-11-08T19:00:00	1	Precipitación	0
12488	7	Sololá	701	Sololá	1	Sololá	3	Marzo	2023-03-17T00:00:00	2024-11-08T19:00:00	8	Radiación solar	0
12489	7	Sololá	701	Sololá	1	Sololá	3	Marzo	2023-03-17T00:00:00	2024-11-08T20:00:00	2	Temperatura media	14.7
12490	7	Sololá	701	Sololá	1	Sololá	3	Marzo	2023-03-17T00:00:00	2024-11-08T20:00:00	4	Temperatura máxima	15.2
12491	7	Sololá	701	Sololá	1	Sololá	3	Marzo	2023-03-17T00:00:00	2024-11-08T20:00:00	3	Temperatura mínima	14.7
12492	7	Sololá	701	Sololá	1	Sololá	3	Marzo	2023-03-17T00:00:00	2024-11-08T20:00:00	5	Humedad	95
12493	7	Sololá	701	Sololá	1	Sololá	3	Marzo	2023-03-17T00:00:00	2024-11-08T20:00:00	6	Velocidad del viento	0
12494	7	Sololá	701	Sololá	1	Sololá	3	Marzo	2023-03-17T00:00:00	2024-11-08T20:00:00	7	Dirección del viento	0
12495	7	Sololá	701	Sololá	1	Sololá	3	Marzo	2023-03-17T00:00:00	2024-11-08T20:00:00	1	Precipitación	0
12496	7	Sololá	701	Sololá	1	Sololá	3	Marzo	2023-03-17T00:00:00	2024-11-08T20:00:00	8	Radiación solar	0
12497	7	Sololá	701	Sololá	1	Sololá	3	Marzo	2023-03-17T00:00:00	2024-11-08T21:00:00	2	Temperatura media	14.3
12498	7	Sololá	701	Sololá	1	Sololá	3	Marzo	2023-03-17T00:00:00	2024-11-08T21:00:00	4	Temperatura máxima	14.7
12499	7	Sololá	701	Sololá	1	Sololá	3	Marzo	2023-03-17T00:00:00	2024-11-08T21:00:00	3	Temperatura mínima	14.3
12500	7	Sololá	701	Sololá	1	Sololá	3	Marzo	2023-03-17T00:00:00	2024-11-08T21:00:00	5	Humedad	95
12501	7	Sololá	701	Sololá	1	Sololá	3	Marzo	2023-03-17T00:00:00	2024-11-08T21:00:00	6	Velocidad del viento	0
12502	7	Sololá	701	Sololá	1	Sololá	3	Marzo	2023-03-17T00:00:00	2024-11-08T21:00:00	7	Dirección del viento	0
12503	7	Sololá	701	Sololá	1	Sololá	3	Marzo	2023-03-17T00:00:00	2024-11-08T21:00:00	1	Precipitación	0
12504	7	Sololá	701	Sololá	1	Sololá	3	Marzo	2023-03-17T00:00:00	2024-11-08T21:00:00	8	Radiación solar	0
12505	7	Sololá	701	Sololá	1	Sololá	3	Marzo	2023-03-17T00:00:00	2024-11-08T22:00:00	2	Temperatura media	14
12506	7	Sololá	701	Sololá	1	Sololá	3	Marzo	2023-03-17T00:00:00	2024-11-08T22:00:00	4	Temperatura máxima	14.3
12507	7	Sololá	701	Sololá	1	Sololá	3	Marzo	2023-03-17T00:00:00	2024-11-08T22:00:00	3	Temperatura mínima	13.9
12508	7	Sololá	701	Sololá	1	Sololá	3	Marzo	2023-03-17T00:00:00	2024-11-08T22:00:00	5	Humedad	94
12509	7	Sololá	701	Sololá	1	Sololá	3	Marzo	2023-03-17T00:00:00	2024-11-08T22:00:00	6	Velocidad del viento	0
12510	7	Sololá	701	Sololá	1	Sololá	3	Marzo	2023-03-17T00:00:00	2024-11-08T22:00:00	7	Dirección del viento	0
12511	7	Sololá	701	Sololá	1	Sololá	3	Marzo	2023-03-17T00:00:00	2024-11-08T22:00:00	1	Precipitación	0
12512	7	Sololá	701	Sololá	1	Sololá	3	Marzo	2023-03-17T00:00:00	2024-11-08T22:00:00	8	Radiación solar	0
12513	7	Sololá	701	Sololá	1	Sololá	3	Marzo	2023-03-17T00:00:00	2024-11-08T23:00:00	2	Temperatura media	13.9
12514	7	Sololá	701	Sololá	1	Sololá	3	Marzo	2023-03-17T00:00:00	2024-11-08T23:00:00	4	Temperatura máxima	13.9
12515	7	Sololá	701	Sololá	1	Sololá	3	Marzo	2023-03-17T00:00:00	2024-11-08T23:00:00	3	Temperatura mínima	13.8
12516	7	Sololá	701	Sololá	1	Sololá	3	Marzo	2023-03-17T00:00:00	2024-11-08T23:00:00	5	Humedad	95
12517	7	Sololá	701	Sololá	1	Sololá	3	Marzo	2023-03-17T00:00:00	2024-11-08T23:00:00	6	Velocidad del viento	0
12518	7	Sololá	701	Sololá	1	Sololá	3	Marzo	2023-03-17T00:00:00	2024-11-08T23:00:00	7	Dirección del viento	0
12519	7	Sololá	701	Sololá	1	Sololá	3	Marzo	2023-03-17T00:00:00	2024-11-08T23:00:00	1	Precipitación	0
12520	7	Sololá	701	Sololá	1	Sololá	3	Marzo	2023-03-17T00:00:00	2024-11-08T23:00:00	8	Radiación solar	0
12521	7	Sololá	701	Sololá	1	Sololá	3	Marzo	2023-03-18T00:00:00	2024-11-08T00:00:00	2	Temperatura media	12.9
12522	7	Sololá	701	Sololá	1	Sololá	3	Marzo	2023-03-18T00:00:00	2024-11-08T00:00:00	4	Temperatura máxima	13.9
12523	7	Sololá	701	Sololá	1	Sololá	3	Marzo	2023-03-18T00:00:00	2024-11-08T00:00:00	3	Temperatura mínima	12.9
12524	7	Sololá	701	Sololá	1	Sololá	3	Marzo	2023-03-18T00:00:00	2024-11-08T00:00:00	5	Humedad	94
12525	7	Sololá	701	Sololá	1	Sololá	3	Marzo	2023-03-18T00:00:00	2024-11-08T00:00:00	6	Velocidad del viento	0
12526	7	Sololá	701	Sololá	1	Sololá	3	Marzo	2023-03-18T00:00:00	2024-11-08T00:00:00	7	Dirección del viento	0
12527	7	Sololá	701	Sololá	1	Sololá	3	Marzo	2023-03-18T00:00:00	2024-11-08T00:00:00	1	Precipitación	0
12528	7	Sololá	701	Sololá	1	Sololá	3	Marzo	2023-03-18T00:00:00	2024-11-08T00:00:00	8	Radiación solar	0
12529	7	Sololá	701	Sololá	1	Sololá	3	Marzo	2023-03-18T00:00:00	2024-11-08T01:00:00	2	Temperatura media	12.8
12530	7	Sololá	701	Sololá	1	Sololá	3	Marzo	2023-03-18T00:00:00	2024-11-08T01:00:00	4	Temperatura máxima	12.9
12531	7	Sololá	701	Sololá	1	Sololá	3	Marzo	2023-03-18T00:00:00	2024-11-08T01:00:00	3	Temperatura mínima	12.8
12532	7	Sololá	701	Sololá	1	Sololá	3	Marzo	2023-03-18T00:00:00	2024-11-08T01:00:00	5	Humedad	93
12533	7	Sololá	701	Sololá	1	Sololá	3	Marzo	2023-03-18T00:00:00	2024-11-08T01:00:00	6	Velocidad del viento	0
12534	7	Sololá	701	Sololá	1	Sololá	3	Marzo	2023-03-18T00:00:00	2024-11-08T01:00:00	7	Dirección del viento	0
12535	7	Sololá	701	Sololá	1	Sololá	3	Marzo	2023-03-18T00:00:00	2024-11-08T01:00:00	1	Precipitación	0
12536	7	Sololá	701	Sololá	1	Sololá	3	Marzo	2023-03-18T00:00:00	2024-11-08T01:00:00	8	Radiación solar	0
12537	7	Sololá	701	Sololá	1	Sololá	3	Marzo	2023-03-18T00:00:00	2024-11-08T02:00:00	2	Temperatura media	12
12538	7	Sololá	701	Sololá	1	Sololá	3	Marzo	2023-03-18T00:00:00	2024-11-08T02:00:00	4	Temperatura máxima	12.8
12539	7	Sololá	701	Sololá	1	Sololá	3	Marzo	2023-03-18T00:00:00	2024-11-08T02:00:00	3	Temperatura mínima	12
12540	7	Sololá	701	Sololá	1	Sololá	3	Marzo	2023-03-18T00:00:00	2024-11-08T02:00:00	5	Humedad	88
12541	7	Sololá	701	Sololá	1	Sololá	3	Marzo	2023-03-18T00:00:00	2024-11-08T02:00:00	6	Velocidad del viento	0
12542	7	Sololá	701	Sololá	1	Sololá	3	Marzo	2023-03-18T00:00:00	2024-11-08T02:00:00	7	Dirección del viento	0
12543	7	Sololá	701	Sololá	1	Sololá	3	Marzo	2023-03-18T00:00:00	2024-11-08T02:00:00	1	Precipitación	0
12544	7	Sololá	701	Sololá	1	Sololá	3	Marzo	2023-03-18T00:00:00	2024-11-08T02:00:00	8	Radiación solar	0
12545	7	Sololá	701	Sololá	1	Sololá	3	Marzo	2023-03-18T00:00:00	2024-11-08T03:00:00	2	Temperatura media	11.8
12546	7	Sololá	701	Sololá	1	Sololá	3	Marzo	2023-03-18T00:00:00	2024-11-08T03:00:00	4	Temperatura máxima	12.1
12547	7	Sololá	701	Sololá	1	Sololá	3	Marzo	2023-03-18T00:00:00	2024-11-08T03:00:00	3	Temperatura mínima	11.8
12548	7	Sololá	701	Sololá	1	Sololá	3	Marzo	2023-03-18T00:00:00	2024-11-08T03:00:00	5	Humedad	89
12549	7	Sololá	701	Sololá	1	Sololá	3	Marzo	2023-03-18T00:00:00	2024-11-08T03:00:00	6	Velocidad del viento	0
12550	7	Sololá	701	Sololá	1	Sololá	3	Marzo	2023-03-18T00:00:00	2024-11-08T03:00:00	7	Dirección del viento	0
12551	7	Sololá	701	Sololá	1	Sololá	3	Marzo	2023-03-18T00:00:00	2024-11-08T03:00:00	1	Precipitación	0
12552	7	Sololá	701	Sololá	1	Sololá	3	Marzo	2023-03-18T00:00:00	2024-11-08T03:00:00	8	Radiación solar	0
12553	7	Sololá	701	Sololá	1	Sololá	3	Marzo	2023-03-18T00:00:00	2024-11-08T04:00:00	2	Temperatura media	10.3
12554	7	Sololá	701	Sololá	1	Sololá	3	Marzo	2023-03-18T00:00:00	2024-11-08T04:00:00	4	Temperatura máxima	11.8
12555	7	Sololá	701	Sololá	1	Sololá	3	Marzo	2023-03-18T00:00:00	2024-11-08T04:00:00	3	Temperatura mínima	10.3
12556	7	Sololá	701	Sololá	1	Sololá	3	Marzo	2023-03-18T00:00:00	2024-11-08T04:00:00	5	Humedad	83
12557	7	Sololá	701	Sololá	1	Sololá	3	Marzo	2023-03-18T00:00:00	2024-11-08T04:00:00	6	Velocidad del viento	0
12558	7	Sololá	701	Sololá	1	Sololá	3	Marzo	2023-03-18T00:00:00	2024-11-08T04:00:00	7	Dirección del viento	0
12559	7	Sololá	701	Sololá	1	Sololá	3	Marzo	2023-03-18T00:00:00	2024-11-08T04:00:00	1	Precipitación	0
12560	7	Sololá	701	Sololá	1	Sololá	3	Marzo	2023-03-18T00:00:00	2024-11-08T04:00:00	8	Radiación solar	0
12561	7	Sololá	701	Sololá	1	Sololá	3	Marzo	2023-03-18T00:00:00	2024-11-08T05:00:00	2	Temperatura media	9.9
12562	7	Sololá	701	Sololá	1	Sololá	3	Marzo	2023-03-18T00:00:00	2024-11-08T05:00:00	4	Temperatura máxima	10.4
12563	7	Sololá	701	Sololá	1	Sololá	3	Marzo	2023-03-18T00:00:00	2024-11-08T05:00:00	3	Temperatura mínima	9.9
12564	7	Sololá	701	Sololá	1	Sololá	3	Marzo	2023-03-18T00:00:00	2024-11-08T05:00:00	5	Humedad	83
12565	7	Sololá	701	Sololá	1	Sololá	3	Marzo	2023-03-18T00:00:00	2024-11-08T05:00:00	6	Velocidad del viento	1.6
12566	7	Sololá	701	Sololá	1	Sololá	3	Marzo	2023-03-18T00:00:00	2024-11-08T05:00:00	7	Dirección del viento	1.61
12567	7	Sololá	701	Sololá	1	Sololá	3	Marzo	2023-03-18T00:00:00	2024-11-08T05:00:00	1	Precipitación	0
12568	7	Sololá	701	Sololá	1	Sololá	3	Marzo	2023-03-18T00:00:00	2024-11-08T05:00:00	8	Radiación solar	0
12569	7	Sololá	701	Sololá	1	Sololá	3	Marzo	2023-03-18T00:00:00	2024-11-08T06:00:00	2	Temperatura media	9.9
12570	7	Sololá	701	Sololá	1	Sololá	3	Marzo	2023-03-18T00:00:00	2024-11-08T06:00:00	4	Temperatura máxima	10.1
12571	7	Sololá	701	Sololá	1	Sololá	3	Marzo	2023-03-18T00:00:00	2024-11-08T06:00:00	3	Temperatura mínima	9.8
12572	7	Sololá	701	Sololá	1	Sololá	3	Marzo	2023-03-18T00:00:00	2024-11-08T06:00:00	5	Humedad	84
12573	7	Sololá	701	Sololá	1	Sololá	3	Marzo	2023-03-18T00:00:00	2024-11-08T06:00:00	6	Velocidad del viento	3.2
12574	7	Sololá	701	Sololá	1	Sololá	3	Marzo	2023-03-18T00:00:00	2024-11-08T06:00:00	7	Dirección del viento	3.22
12575	7	Sololá	701	Sololá	1	Sololá	3	Marzo	2023-03-18T00:00:00	2024-11-08T06:00:00	1	Precipitación	0
12576	7	Sololá	701	Sololá	1	Sololá	3	Marzo	2023-03-18T00:00:00	2024-11-08T06:00:00	8	Radiación solar	0
12577	7	Sololá	701	Sololá	1	Sololá	3	Marzo	2023-03-18T00:00:00	2024-11-08T07:00:00	2	Temperatura media	10
12578	7	Sololá	701	Sololá	1	Sololá	3	Marzo	2023-03-18T00:00:00	2024-11-08T07:00:00	4	Temperatura máxima	10.1
12579	7	Sololá	701	Sololá	1	Sololá	3	Marzo	2023-03-18T00:00:00	2024-11-08T07:00:00	3	Temperatura mínima	9.8
12580	7	Sololá	701	Sololá	1	Sololá	3	Marzo	2023-03-18T00:00:00	2024-11-08T07:00:00	5	Humedad	75
12581	7	Sololá	701	Sololá	1	Sololá	3	Marzo	2023-03-18T00:00:00	2024-11-08T07:00:00	6	Velocidad del viento	1.6
12582	7	Sololá	701	Sololá	1	Sololá	3	Marzo	2023-03-18T00:00:00	2024-11-08T07:00:00	7	Dirección del viento	1.61
12583	7	Sololá	701	Sololá	1	Sololá	3	Marzo	2023-03-18T00:00:00	2024-11-08T07:00:00	1	Precipitación	0
12584	7	Sololá	701	Sololá	1	Sololá	3	Marzo	2023-03-18T00:00:00	2024-11-08T07:00:00	8	Radiación solar	10
12585	7	Sololá	701	Sololá	1	Sololá	3	Marzo	2023-03-18T00:00:00	2024-11-08T08:00:00	2	Temperatura media	11
12586	7	Sololá	701	Sololá	1	Sololá	3	Marzo	2023-03-18T00:00:00	2024-11-08T08:00:00	4	Temperatura máxima	11.1
12587	7	Sololá	701	Sololá	1	Sololá	3	Marzo	2023-03-18T00:00:00	2024-11-08T08:00:00	3	Temperatura mínima	10
12588	7	Sololá	701	Sololá	1	Sololá	3	Marzo	2023-03-18T00:00:00	2024-11-08T08:00:00	5	Humedad	73
12589	7	Sololá	701	Sololá	1	Sololá	3	Marzo	2023-03-18T00:00:00	2024-11-08T08:00:00	6	Velocidad del viento	1.6
12590	7	Sololá	701	Sololá	1	Sololá	3	Marzo	2023-03-18T00:00:00	2024-11-08T08:00:00	7	Dirección del viento	1.61
12591	7	Sololá	701	Sololá	1	Sololá	3	Marzo	2023-03-18T00:00:00	2024-11-08T08:00:00	1	Precipitación	0
12592	7	Sololá	701	Sololá	1	Sololá	3	Marzo	2023-03-18T00:00:00	2024-11-08T08:00:00	8	Radiación solar	79
12593	7	Sololá	701	Sololá	1	Sololá	3	Marzo	2023-03-18T00:00:00	2024-11-08T09:00:00	2	Temperatura media	13.2
12594	7	Sololá	701	Sololá	1	Sololá	3	Marzo	2023-03-18T00:00:00	2024-11-08T09:00:00	4	Temperatura máxima	13.2
12595	7	Sololá	701	Sololá	1	Sololá	3	Marzo	2023-03-18T00:00:00	2024-11-08T09:00:00	3	Temperatura mínima	10.7
12596	7	Sololá	701	Sololá	1	Sololá	3	Marzo	2023-03-18T00:00:00	2024-11-08T09:00:00	5	Humedad	70
12597	7	Sololá	701	Sololá	1	Sololá	3	Marzo	2023-03-18T00:00:00	2024-11-08T09:00:00	6	Velocidad del viento	0
12598	7	Sololá	701	Sololá	1	Sololá	3	Marzo	2023-03-18T00:00:00	2024-11-08T09:00:00	7	Dirección del viento	0
12599	7	Sololá	701	Sololá	1	Sololá	3	Marzo	2023-03-18T00:00:00	2024-11-08T09:00:00	1	Precipitación	0
12600	7	Sololá	701	Sololá	1	Sololá	3	Marzo	2023-03-18T00:00:00	2024-11-08T09:00:00	8	Radiación solar	545
12601	7	Sololá	701	Sololá	1	Sololá	3	Marzo	2023-03-18T00:00:00	2024-11-08T10:00:00	2	Temperatura media	18.3
12602	7	Sololá	701	Sololá	1	Sololá	3	Marzo	2023-03-18T00:00:00	2024-11-08T10:00:00	4	Temperatura máxima	18.3
12603	7	Sololá	701	Sololá	1	Sololá	3	Marzo	2023-03-18T00:00:00	2024-11-08T10:00:00	3	Temperatura mínima	13.3
12604	7	Sololá	701	Sololá	1	Sololá	3	Marzo	2023-03-18T00:00:00	2024-11-08T10:00:00	5	Humedad	69
12605	7	Sololá	701	Sololá	1	Sololá	3	Marzo	2023-03-18T00:00:00	2024-11-08T10:00:00	6	Velocidad del viento	0
12606	7	Sololá	701	Sololá	1	Sololá	3	Marzo	2023-03-18T00:00:00	2024-11-08T10:00:00	7	Dirección del viento	0
12607	7	Sololá	701	Sololá	1	Sololá	3	Marzo	2023-03-18T00:00:00	2024-11-08T10:00:00	1	Precipitación	0
12608	7	Sololá	701	Sololá	1	Sololá	3	Marzo	2023-03-18T00:00:00	2024-11-08T10:00:00	8	Radiación solar	758
12609	7	Sololá	701	Sololá	1	Sololá	3	Marzo	2023-03-18T00:00:00	2024-11-08T11:00:00	2	Temperatura media	19.4
12610	7	Sololá	701	Sololá	1	Sololá	3	Marzo	2023-03-18T00:00:00	2024-11-08T11:00:00	4	Temperatura máxima	19.4
12611	7	Sololá	701	Sololá	1	Sololá	3	Marzo	2023-03-18T00:00:00	2024-11-08T11:00:00	3	Temperatura mínima	18.3
12612	7	Sololá	701	Sololá	1	Sololá	3	Marzo	2023-03-18T00:00:00	2024-11-08T11:00:00	5	Humedad	69
12613	7	Sololá	701	Sololá	1	Sololá	3	Marzo	2023-03-18T00:00:00	2024-11-08T11:00:00	6	Velocidad del viento	0
12614	7	Sololá	701	Sololá	1	Sololá	3	Marzo	2023-03-18T00:00:00	2024-11-08T11:00:00	7	Dirección del viento	0
12615	7	Sololá	701	Sololá	1	Sololá	3	Marzo	2023-03-18T00:00:00	2024-11-08T11:00:00	1	Precipitación	0
12616	7	Sololá	701	Sololá	1	Sololá	3	Marzo	2023-03-18T00:00:00	2024-11-08T11:00:00	8	Radiación solar	897
12617	7	Sololá	701	Sololá	1	Sololá	3	Marzo	2023-03-18T00:00:00	2024-11-08T12:00:00	2	Temperatura media	20
12618	7	Sololá	701	Sololá	1	Sololá	3	Marzo	2023-03-18T00:00:00	2024-11-08T12:00:00	4	Temperatura máxima	20.1
12619	7	Sololá	701	Sololá	1	Sololá	3	Marzo	2023-03-18T00:00:00	2024-11-08T12:00:00	3	Temperatura mínima	19.4
12620	7	Sololá	701	Sololá	1	Sololá	3	Marzo	2023-03-18T00:00:00	2024-11-08T12:00:00	5	Humedad	67
12621	7	Sololá	701	Sololá	1	Sololá	3	Marzo	2023-03-18T00:00:00	2024-11-08T12:00:00	6	Velocidad del viento	0
12622	7	Sololá	701	Sololá	1	Sololá	3	Marzo	2023-03-18T00:00:00	2024-11-08T12:00:00	7	Dirección del viento	0
12623	7	Sololá	701	Sololá	1	Sololá	3	Marzo	2023-03-18T00:00:00	2024-11-08T12:00:00	1	Precipitación	0
12624	7	Sololá	701	Sololá	1	Sololá	3	Marzo	2023-03-18T00:00:00	2024-11-08T12:00:00	8	Radiación solar	969
12625	7	Sololá	701	Sololá	1	Sololá	3	Marzo	2023-03-18T00:00:00	2024-11-08T13:00:00	2	Temperatura media	20.8
12626	7	Sololá	701	Sololá	1	Sololá	3	Marzo	2023-03-18T00:00:00	2024-11-08T13:00:00	4	Temperatura máxima	20.8
12627	7	Sololá	701	Sololá	1	Sololá	3	Marzo	2023-03-18T00:00:00	2024-11-08T13:00:00	3	Temperatura mínima	19.9
12628	7	Sololá	701	Sololá	1	Sololá	3	Marzo	2023-03-18T00:00:00	2024-11-08T13:00:00	5	Humedad	72
12629	7	Sololá	701	Sololá	1	Sololá	3	Marzo	2023-03-18T00:00:00	2024-11-08T13:00:00	6	Velocidad del viento	0
12630	7	Sololá	701	Sololá	1	Sololá	3	Marzo	2023-03-18T00:00:00	2024-11-08T13:00:00	7	Dirección del viento	0
12631	7	Sololá	701	Sololá	1	Sololá	3	Marzo	2023-03-18T00:00:00	2024-11-08T13:00:00	1	Precipitación	0
12632	7	Sololá	701	Sololá	1	Sololá	3	Marzo	2023-03-18T00:00:00	2024-11-08T13:00:00	8	Radiación solar	944
12633	7	Sololá	701	Sololá	1	Sololá	3	Marzo	2023-03-18T00:00:00	2024-11-08T14:00:00	2	Temperatura media	20.7
12634	7	Sololá	701	Sololá	1	Sololá	3	Marzo	2023-03-18T00:00:00	2024-11-08T14:00:00	4	Temperatura máxima	21.3
12635	7	Sololá	701	Sololá	1	Sololá	3	Marzo	2023-03-18T00:00:00	2024-11-08T14:00:00	3	Temperatura mínima	20.7
12636	7	Sololá	701	Sololá	1	Sololá	3	Marzo	2023-03-18T00:00:00	2024-11-08T14:00:00	5	Humedad	72
12637	7	Sololá	701	Sololá	1	Sololá	3	Marzo	2023-03-18T00:00:00	2024-11-08T14:00:00	6	Velocidad del viento	1.6
12638	7	Sololá	701	Sololá	1	Sololá	3	Marzo	2023-03-18T00:00:00	2024-11-08T14:00:00	7	Dirección del viento	1.61
12639	7	Sololá	701	Sololá	1	Sololá	3	Marzo	2023-03-18T00:00:00	2024-11-08T14:00:00	1	Precipitación	0
12640	7	Sololá	701	Sololá	1	Sololá	3	Marzo	2023-03-18T00:00:00	2024-11-08T14:00:00	8	Radiación solar	465
12641	7	Sololá	701	Sololá	1	Sololá	3	Marzo	2023-03-18T00:00:00	2024-11-08T15:00:00	2	Temperatura media	20.7
12642	7	Sololá	701	Sololá	1	Sololá	3	Marzo	2023-03-18T00:00:00	2024-11-08T15:00:00	4	Temperatura máxima	20.7
12643	7	Sololá	701	Sololá	1	Sololá	3	Marzo	2023-03-18T00:00:00	2024-11-08T15:00:00	3	Temperatura mínima	19.9
12644	7	Sololá	701	Sololá	1	Sololá	3	Marzo	2023-03-18T00:00:00	2024-11-08T15:00:00	5	Humedad	73
12645	7	Sololá	701	Sololá	1	Sololá	3	Marzo	2023-03-18T00:00:00	2024-11-08T15:00:00	6	Velocidad del viento	0
12646	7	Sololá	701	Sololá	1	Sololá	3	Marzo	2023-03-18T00:00:00	2024-11-08T15:00:00	7	Dirección del viento	0
12647	7	Sololá	701	Sololá	1	Sololá	3	Marzo	2023-03-18T00:00:00	2024-11-08T15:00:00	1	Precipitación	0
12648	7	Sololá	701	Sololá	1	Sololá	3	Marzo	2023-03-18T00:00:00	2024-11-08T15:00:00	8	Radiación solar	177
12649	7	Sololá	701	Sololá	1	Sololá	3	Marzo	2023-03-18T00:00:00	2024-11-08T16:00:00	2	Temperatura media	18.2
12650	7	Sololá	701	Sololá	1	Sololá	3	Marzo	2023-03-18T00:00:00	2024-11-08T16:00:00	4	Temperatura máxima	20.7
12651	7	Sololá	701	Sololá	1	Sololá	3	Marzo	2023-03-18T00:00:00	2024-11-08T16:00:00	3	Temperatura mínima	18.2
12652	7	Sololá	701	Sololá	1	Sololá	3	Marzo	2023-03-18T00:00:00	2024-11-08T16:00:00	5	Humedad	79
12653	7	Sololá	701	Sololá	1	Sololá	3	Marzo	2023-03-18T00:00:00	2024-11-08T16:00:00	6	Velocidad del viento	0
12654	7	Sololá	701	Sololá	1	Sololá	3	Marzo	2023-03-18T00:00:00	2024-11-08T16:00:00	7	Dirección del viento	0
12655	7	Sololá	701	Sololá	1	Sololá	3	Marzo	2023-03-18T00:00:00	2024-11-08T16:00:00	1	Precipitación	0
12656	7	Sololá	701	Sololá	1	Sololá	3	Marzo	2023-03-18T00:00:00	2024-11-08T16:00:00	8	Radiación solar	167
12657	7	Sololá	701	Sololá	1	Sololá	3	Marzo	2023-03-18T00:00:00	2024-11-08T17:00:00	2	Temperatura media	18.6
12658	7	Sololá	701	Sololá	1	Sololá	3	Marzo	2023-03-18T00:00:00	2024-11-08T17:00:00	4	Temperatura máxima	18.8
12659	7	Sololá	701	Sololá	1	Sololá	3	Marzo	2023-03-18T00:00:00	2024-11-08T17:00:00	3	Temperatura mínima	18.2
12660	7	Sololá	701	Sololá	1	Sololá	3	Marzo	2023-03-18T00:00:00	2024-11-08T17:00:00	5	Humedad	78
12661	7	Sololá	701	Sololá	1	Sololá	3	Marzo	2023-03-18T00:00:00	2024-11-08T17:00:00	6	Velocidad del viento	0
12662	7	Sololá	701	Sololá	1	Sololá	3	Marzo	2023-03-18T00:00:00	2024-11-08T17:00:00	7	Dirección del viento	0
12663	7	Sololá	701	Sololá	1	Sololá	3	Marzo	2023-03-18T00:00:00	2024-11-08T17:00:00	1	Precipitación	0
12664	7	Sololá	701	Sololá	1	Sololá	3	Marzo	2023-03-18T00:00:00	2024-11-08T17:00:00	8	Radiación solar	44
12665	7	Sololá	701	Sololá	1	Sololá	3	Marzo	2023-03-18T00:00:00	2024-11-08T18:00:00	2	Temperatura media	16.9
12666	7	Sololá	701	Sololá	1	Sololá	3	Marzo	2023-03-18T00:00:00	2024-11-08T18:00:00	4	Temperatura máxima	18.6
12667	7	Sololá	701	Sololá	1	Sololá	3	Marzo	2023-03-18T00:00:00	2024-11-08T18:00:00	3	Temperatura mínima	16.9
12668	7	Sololá	701	Sololá	1	Sololá	3	Marzo	2023-03-18T00:00:00	2024-11-08T18:00:00	5	Humedad	88
12669	7	Sololá	701	Sololá	1	Sololá	3	Marzo	2023-03-18T00:00:00	2024-11-08T18:00:00	6	Velocidad del viento	0
12670	7	Sololá	701	Sololá	1	Sololá	3	Marzo	2023-03-18T00:00:00	2024-11-08T18:00:00	7	Dirección del viento	0
12671	7	Sololá	701	Sololá	1	Sololá	3	Marzo	2023-03-18T00:00:00	2024-11-08T18:00:00	1	Precipitación	0
12672	7	Sololá	701	Sololá	1	Sololá	3	Marzo	2023-03-18T00:00:00	2024-11-08T18:00:00	8	Radiación solar	36
12673	7	Sololá	701	Sololá	1	Sololá	3	Marzo	2023-03-18T00:00:00	2024-11-08T19:00:00	2	Temperatura media	15.2
12674	7	Sololá	701	Sololá	1	Sololá	3	Marzo	2023-03-18T00:00:00	2024-11-08T19:00:00	4	Temperatura máxima	16.9
12675	7	Sololá	701	Sololá	1	Sololá	3	Marzo	2023-03-18T00:00:00	2024-11-08T19:00:00	3	Temperatura mínima	15.2
12676	7	Sololá	701	Sololá	1	Sololá	3	Marzo	2023-03-18T00:00:00	2024-11-08T19:00:00	5	Humedad	93
12677	7	Sololá	701	Sololá	1	Sololá	3	Marzo	2023-03-18T00:00:00	2024-11-08T19:00:00	6	Velocidad del viento	0
12678	7	Sololá	701	Sololá	1	Sololá	3	Marzo	2023-03-18T00:00:00	2024-11-08T19:00:00	7	Dirección del viento	0
12679	7	Sololá	701	Sololá	1	Sololá	3	Marzo	2023-03-18T00:00:00	2024-11-08T19:00:00	1	Precipitación	0
12680	7	Sololá	701	Sololá	1	Sololá	3	Marzo	2023-03-18T00:00:00	2024-11-08T19:00:00	8	Radiación solar	0
12681	7	Sololá	701	Sololá	1	Sololá	3	Marzo	2023-03-18T00:00:00	2024-11-08T20:00:00	2	Temperatura media	14.7
12682	7	Sololá	701	Sololá	1	Sololá	3	Marzo	2023-03-18T00:00:00	2024-11-08T20:00:00	4	Temperatura máxima	15.2
12683	7	Sololá	701	Sololá	1	Sololá	3	Marzo	2023-03-18T00:00:00	2024-11-08T20:00:00	3	Temperatura mínima	14.7
12684	7	Sololá	701	Sololá	1	Sololá	3	Marzo	2023-03-18T00:00:00	2024-11-08T20:00:00	5	Humedad	94
12685	7	Sololá	701	Sololá	1	Sololá	3	Marzo	2023-03-18T00:00:00	2024-11-08T20:00:00	6	Velocidad del viento	0
12686	7	Sololá	701	Sololá	1	Sololá	3	Marzo	2023-03-18T00:00:00	2024-11-08T20:00:00	7	Dirección del viento	0
12687	7	Sololá	701	Sololá	1	Sololá	3	Marzo	2023-03-18T00:00:00	2024-11-08T20:00:00	1	Precipitación	0
12688	7	Sololá	701	Sololá	1	Sololá	3	Marzo	2023-03-18T00:00:00	2024-11-08T20:00:00	8	Radiación solar	0
12689	7	Sololá	701	Sololá	1	Sololá	3	Marzo	2023-03-18T00:00:00	2024-11-08T21:00:00	2	Temperatura media	14.3
12690	7	Sololá	701	Sololá	1	Sololá	3	Marzo	2023-03-18T00:00:00	2024-11-08T21:00:00	4	Temperatura máxima	14.7
12691	7	Sololá	701	Sololá	1	Sololá	3	Marzo	2023-03-18T00:00:00	2024-11-08T21:00:00	3	Temperatura mínima	14.2
12692	7	Sololá	701	Sololá	1	Sololá	3	Marzo	2023-03-18T00:00:00	2024-11-08T21:00:00	5	Humedad	96
12693	7	Sololá	701	Sololá	1	Sololá	3	Marzo	2023-03-18T00:00:00	2024-11-08T21:00:00	6	Velocidad del viento	0
12694	7	Sololá	701	Sololá	1	Sololá	3	Marzo	2023-03-18T00:00:00	2024-11-08T21:00:00	7	Dirección del viento	0
12695	7	Sololá	701	Sololá	1	Sololá	3	Marzo	2023-03-18T00:00:00	2024-11-08T21:00:00	1	Precipitación	0
12696	7	Sololá	701	Sololá	1	Sololá	3	Marzo	2023-03-18T00:00:00	2024-11-08T21:00:00	8	Radiación solar	0
12697	7	Sololá	701	Sololá	1	Sololá	3	Marzo	2023-03-18T00:00:00	2024-11-08T22:00:00	2	Temperatura media	13.7
12698	7	Sololá	701	Sololá	1	Sololá	3	Marzo	2023-03-18T00:00:00	2024-11-08T22:00:00	4	Temperatura máxima	14.4
12699	7	Sololá	701	Sololá	1	Sololá	3	Marzo	2023-03-18T00:00:00	2024-11-08T22:00:00	3	Temperatura mínima	13.7
12700	7	Sololá	701	Sololá	1	Sololá	3	Marzo	2023-03-18T00:00:00	2024-11-08T22:00:00	5	Humedad	94
12701	7	Sololá	701	Sololá	1	Sololá	3	Marzo	2023-03-18T00:00:00	2024-11-08T22:00:00	6	Velocidad del viento	0
12702	7	Sololá	701	Sololá	1	Sololá	3	Marzo	2023-03-18T00:00:00	2024-11-08T22:00:00	7	Dirección del viento	0
12703	7	Sololá	701	Sololá	1	Sololá	3	Marzo	2023-03-18T00:00:00	2024-11-08T22:00:00	1	Precipitación	0
12704	7	Sololá	701	Sololá	1	Sololá	3	Marzo	2023-03-18T00:00:00	2024-11-08T22:00:00	8	Radiación solar	0
12705	7	Sololá	701	Sololá	1	Sololá	3	Marzo	2023-03-18T00:00:00	2024-11-08T23:00:00	2	Temperatura media	12.9
12706	7	Sololá	701	Sololá	1	Sololá	3	Marzo	2023-03-18T00:00:00	2024-11-08T23:00:00	4	Temperatura máxima	13.7
12707	7	Sololá	701	Sololá	1	Sololá	3	Marzo	2023-03-18T00:00:00	2024-11-08T23:00:00	3	Temperatura mínima	12.9
12708	7	Sololá	701	Sololá	1	Sololá	3	Marzo	2023-03-18T00:00:00	2024-11-08T23:00:00	5	Humedad	94
12709	7	Sololá	701	Sololá	1	Sololá	3	Marzo	2023-03-18T00:00:00	2024-11-08T23:00:00	6	Velocidad del viento	0
12710	7	Sololá	701	Sololá	1	Sololá	3	Marzo	2023-03-18T00:00:00	2024-11-08T23:00:00	7	Dirección del viento	0
12711	7	Sololá	701	Sololá	1	Sololá	3	Marzo	2023-03-18T00:00:00	2024-11-08T23:00:00	1	Precipitación	0
12712	7	Sololá	701	Sololá	1	Sololá	3	Marzo	2023-03-18T00:00:00	2024-11-08T23:00:00	8	Radiación solar	0
12713	7	Sololá	701	Sololá	1	Sololá	3	Marzo	2023-03-19T00:00:00	2024-11-08T00:00:00	2	Temperatura media	13.1
12714	7	Sololá	701	Sololá	1	Sololá	3	Marzo	2023-03-19T00:00:00	2024-11-08T00:00:00	4	Temperatura máxima	13.1
12715	7	Sololá	701	Sololá	1	Sololá	3	Marzo	2023-03-19T00:00:00	2024-11-08T00:00:00	3	Temperatura mínima	12.7
12716	7	Sololá	701	Sololá	1	Sololá	3	Marzo	2023-03-19T00:00:00	2024-11-08T00:00:00	5	Humedad	95
12717	7	Sololá	701	Sololá	1	Sololá	3	Marzo	2023-03-19T00:00:00	2024-11-08T00:00:00	6	Velocidad del viento	0
12718	7	Sololá	701	Sololá	1	Sololá	3	Marzo	2023-03-19T00:00:00	2024-11-08T00:00:00	7	Dirección del viento	0
12719	7	Sololá	701	Sololá	1	Sololá	3	Marzo	2023-03-19T00:00:00	2024-11-08T00:00:00	1	Precipitación	0
12720	7	Sololá	701	Sololá	1	Sololá	3	Marzo	2023-03-19T00:00:00	2024-11-08T00:00:00	8	Radiación solar	0
12721	7	Sololá	701	Sololá	1	Sololá	3	Marzo	2023-03-19T00:00:00	2024-11-08T01:00:00	2	Temperatura media	13.4
12722	7	Sololá	701	Sololá	1	Sololá	3	Marzo	2023-03-19T00:00:00	2024-11-08T01:00:00	4	Temperatura máxima	13.6
12723	7	Sololá	701	Sololá	1	Sololá	3	Marzo	2023-03-19T00:00:00	2024-11-08T01:00:00	3	Temperatura mínima	13.1
12724	7	Sololá	701	Sololá	1	Sololá	3	Marzo	2023-03-19T00:00:00	2024-11-08T01:00:00	5	Humedad	93
12725	7	Sololá	701	Sololá	1	Sololá	3	Marzo	2023-03-19T00:00:00	2024-11-08T01:00:00	6	Velocidad del viento	0
12726	7	Sololá	701	Sololá	1	Sololá	3	Marzo	2023-03-19T00:00:00	2024-11-08T01:00:00	7	Dirección del viento	0
12727	7	Sololá	701	Sololá	1	Sololá	3	Marzo	2023-03-19T00:00:00	2024-11-08T01:00:00	1	Precipitación	0
12728	7	Sololá	701	Sololá	1	Sololá	3	Marzo	2023-03-19T00:00:00	2024-11-08T01:00:00	8	Radiación solar	0
12729	7	Sololá	701	Sololá	1	Sololá	3	Marzo	2023-03-19T00:00:00	2024-11-08T02:00:00	2	Temperatura media	13.5
12730	7	Sololá	701	Sololá	1	Sololá	3	Marzo	2023-03-19T00:00:00	2024-11-08T02:00:00	4	Temperatura máxima	13.6
12731	7	Sololá	701	Sololá	1	Sololá	3	Marzo	2023-03-19T00:00:00	2024-11-08T02:00:00	3	Temperatura mínima	13.4
12732	7	Sololá	701	Sololá	1	Sololá	3	Marzo	2023-03-19T00:00:00	2024-11-08T02:00:00	5	Humedad	92
12733	7	Sololá	701	Sololá	1	Sololá	3	Marzo	2023-03-19T00:00:00	2024-11-08T02:00:00	6	Velocidad del viento	0
12734	7	Sololá	701	Sololá	1	Sololá	3	Marzo	2023-03-19T00:00:00	2024-11-08T02:00:00	7	Dirección del viento	0
12735	7	Sololá	701	Sololá	1	Sololá	3	Marzo	2023-03-19T00:00:00	2024-11-08T02:00:00	1	Precipitación	0
12736	7	Sololá	701	Sololá	1	Sololá	3	Marzo	2023-03-19T00:00:00	2024-11-08T02:00:00	8	Radiación solar	0
12737	7	Sololá	701	Sololá	1	Sololá	3	Marzo	2023-03-19T00:00:00	2024-11-08T03:00:00	2	Temperatura media	13.6
12738	7	Sololá	701	Sololá	1	Sololá	3	Marzo	2023-03-19T00:00:00	2024-11-08T03:00:00	4	Temperatura máxima	13.6
12739	7	Sololá	701	Sololá	1	Sololá	3	Marzo	2023-03-19T00:00:00	2024-11-08T03:00:00	3	Temperatura mínima	13.3
12740	7	Sololá	701	Sololá	1	Sololá	3	Marzo	2023-03-19T00:00:00	2024-11-08T03:00:00	5	Humedad	92
12741	7	Sololá	701	Sololá	1	Sololá	3	Marzo	2023-03-19T00:00:00	2024-11-08T03:00:00	6	Velocidad del viento	0
12742	7	Sololá	701	Sololá	1	Sololá	3	Marzo	2023-03-19T00:00:00	2024-11-08T03:00:00	7	Dirección del viento	0
12743	7	Sololá	701	Sololá	1	Sololá	3	Marzo	2023-03-19T00:00:00	2024-11-08T03:00:00	1	Precipitación	0
12744	7	Sololá	701	Sololá	1	Sololá	3	Marzo	2023-03-19T00:00:00	2024-11-08T03:00:00	8	Radiación solar	0
12745	7	Sololá	701	Sololá	1	Sololá	3	Marzo	2023-03-19T00:00:00	2024-11-08T04:00:00	2	Temperatura media	13.6
12746	7	Sololá	701	Sololá	1	Sololá	3	Marzo	2023-03-19T00:00:00	2024-11-08T04:00:00	4	Temperatura máxima	13.6
12747	7	Sololá	701	Sololá	1	Sololá	3	Marzo	2023-03-19T00:00:00	2024-11-08T04:00:00	3	Temperatura mínima	13.5
12748	7	Sololá	701	Sololá	1	Sololá	3	Marzo	2023-03-19T00:00:00	2024-11-08T04:00:00	5	Humedad	91
12749	7	Sololá	701	Sololá	1	Sololá	3	Marzo	2023-03-19T00:00:00	2024-11-08T04:00:00	6	Velocidad del viento	0
12750	7	Sololá	701	Sololá	1	Sololá	3	Marzo	2023-03-19T00:00:00	2024-11-08T04:00:00	7	Dirección del viento	0
12751	7	Sololá	701	Sololá	1	Sololá	3	Marzo	2023-03-19T00:00:00	2024-11-08T04:00:00	1	Precipitación	0
12752	7	Sololá	701	Sololá	1	Sololá	3	Marzo	2023-03-19T00:00:00	2024-11-08T04:00:00	8	Radiación solar	0
12753	7	Sololá	701	Sololá	1	Sololá	3	Marzo	2023-03-19T00:00:00	2024-11-08T05:00:00	2	Temperatura media	13.2
12754	7	Sololá	701	Sololá	1	Sololá	3	Marzo	2023-03-19T00:00:00	2024-11-08T05:00:00	4	Temperatura máxima	13.6
12755	7	Sololá	701	Sololá	1	Sololá	3	Marzo	2023-03-19T00:00:00	2024-11-08T05:00:00	3	Temperatura mínima	13.2
12756	7	Sololá	701	Sololá	1	Sololá	3	Marzo	2023-03-19T00:00:00	2024-11-08T05:00:00	5	Humedad	92
12757	7	Sololá	701	Sololá	1	Sololá	3	Marzo	2023-03-19T00:00:00	2024-11-08T05:00:00	6	Velocidad del viento	0
12758	7	Sololá	701	Sololá	1	Sololá	3	Marzo	2023-03-19T00:00:00	2024-11-08T05:00:00	7	Dirección del viento	0
12759	7	Sololá	701	Sololá	1	Sololá	3	Marzo	2023-03-19T00:00:00	2024-11-08T05:00:00	1	Precipitación	0
12760	7	Sololá	701	Sololá	1	Sololá	3	Marzo	2023-03-19T00:00:00	2024-11-08T05:00:00	8	Radiación solar	0
12761	7	Sololá	701	Sololá	1	Sololá	3	Marzo	2023-03-19T00:00:00	2024-11-08T06:00:00	2	Temperatura media	13.1
12762	7	Sololá	701	Sololá	1	Sololá	3	Marzo	2023-03-19T00:00:00	2024-11-08T06:00:00	4	Temperatura máxima	13.3
12763	7	Sololá	701	Sololá	1	Sololá	3	Marzo	2023-03-19T00:00:00	2024-11-08T06:00:00	3	Temperatura mínima	13
12764	7	Sololá	701	Sololá	1	Sololá	3	Marzo	2023-03-19T00:00:00	2024-11-08T06:00:00	5	Humedad	91
12765	7	Sololá	701	Sololá	1	Sololá	3	Marzo	2023-03-19T00:00:00	2024-11-08T06:00:00	6	Velocidad del viento	0
12766	7	Sololá	701	Sololá	1	Sololá	3	Marzo	2023-03-19T00:00:00	2024-11-08T06:00:00	7	Dirección del viento	0
12767	7	Sololá	701	Sololá	1	Sololá	3	Marzo	2023-03-19T00:00:00	2024-11-08T06:00:00	1	Precipitación	0
12768	7	Sololá	701	Sololá	1	Sololá	3	Marzo	2023-03-19T00:00:00	2024-11-08T06:00:00	8	Radiación solar	0
12769	7	Sololá	701	Sololá	1	Sololá	3	Marzo	2023-03-19T00:00:00	2024-11-08T07:00:00	2	Temperatura media	12.1
12770	7	Sololá	701	Sololá	1	Sololá	3	Marzo	2023-03-19T00:00:00	2024-11-08T07:00:00	4	Temperatura máxima	13.1
12771	7	Sololá	701	Sololá	1	Sololá	3	Marzo	2023-03-19T00:00:00	2024-11-08T07:00:00	3	Temperatura mínima	12.1
12772	7	Sololá	701	Sololá	1	Sololá	3	Marzo	2023-03-19T00:00:00	2024-11-08T07:00:00	5	Humedad	91
12773	7	Sololá	701	Sololá	1	Sololá	3	Marzo	2023-03-19T00:00:00	2024-11-08T07:00:00	6	Velocidad del viento	0
12774	7	Sololá	701	Sololá	1	Sololá	3	Marzo	2023-03-19T00:00:00	2024-11-08T07:00:00	7	Dirección del viento	0
12775	7	Sololá	701	Sololá	1	Sololá	3	Marzo	2023-03-19T00:00:00	2024-11-08T07:00:00	1	Precipitación	0
12776	7	Sololá	701	Sololá	1	Sololá	3	Marzo	2023-03-19T00:00:00	2024-11-08T07:00:00	8	Radiación solar	12
12777	7	Sololá	701	Sololá	1	Sololá	3	Marzo	2023-03-19T00:00:00	2024-11-08T08:00:00	2	Temperatura media	12.4
12778	7	Sololá	701	Sololá	1	Sololá	3	Marzo	2023-03-19T00:00:00	2024-11-08T08:00:00	4	Temperatura máxima	12.4
12779	7	Sololá	701	Sololá	1	Sololá	3	Marzo	2023-03-19T00:00:00	2024-11-08T08:00:00	3	Temperatura mínima	12.1
12780	7	Sololá	701	Sololá	1	Sololá	3	Marzo	2023-03-19T00:00:00	2024-11-08T08:00:00	5	Humedad	89
12781	7	Sololá	701	Sololá	1	Sololá	3	Marzo	2023-03-19T00:00:00	2024-11-08T08:00:00	6	Velocidad del viento	0
12782	7	Sololá	701	Sololá	1	Sololá	3	Marzo	2023-03-19T00:00:00	2024-11-08T08:00:00	7	Dirección del viento	0
12783	7	Sololá	701	Sololá	1	Sololá	3	Marzo	2023-03-19T00:00:00	2024-11-08T08:00:00	1	Precipitación	0
12784	7	Sololá	701	Sololá	1	Sololá	3	Marzo	2023-03-19T00:00:00	2024-11-08T08:00:00	8	Radiación solar	88
12785	7	Sololá	701	Sololá	1	Sololá	3	Marzo	2023-03-19T00:00:00	2024-11-08T09:00:00	2	Temperatura media	14.4
12786	7	Sololá	701	Sololá	1	Sololá	3	Marzo	2023-03-19T00:00:00	2024-11-08T09:00:00	4	Temperatura máxima	14.4
12787	7	Sololá	701	Sololá	1	Sololá	3	Marzo	2023-03-19T00:00:00	2024-11-08T09:00:00	3	Temperatura mínima	12.4
12788	7	Sololá	701	Sololá	1	Sololá	3	Marzo	2023-03-19T00:00:00	2024-11-08T09:00:00	5	Humedad	86
12789	7	Sololá	701	Sololá	1	Sololá	3	Marzo	2023-03-19T00:00:00	2024-11-08T09:00:00	6	Velocidad del viento	0
12790	7	Sololá	701	Sololá	1	Sololá	3	Marzo	2023-03-19T00:00:00	2024-11-08T09:00:00	7	Dirección del viento	0
12791	7	Sololá	701	Sololá	1	Sololá	3	Marzo	2023-03-19T00:00:00	2024-11-08T09:00:00	1	Precipitación	0
12792	7	Sololá	701	Sololá	1	Sololá	3	Marzo	2023-03-19T00:00:00	2024-11-08T09:00:00	8	Radiación solar	520
12793	7	Sololá	701	Sololá	1	Sololá	3	Marzo	2023-03-19T00:00:00	2024-11-08T10:00:00	2	Temperatura media	18.7
12794	7	Sololá	701	Sololá	1	Sololá	3	Marzo	2023-03-19T00:00:00	2024-11-08T10:00:00	4	Temperatura máxima	18.7
12795	7	Sololá	701	Sololá	1	Sololá	3	Marzo	2023-03-19T00:00:00	2024-11-08T10:00:00	3	Temperatura mínima	14.4
12796	7	Sololá	701	Sololá	1	Sololá	3	Marzo	2023-03-19T00:00:00	2024-11-08T10:00:00	5	Humedad	77
12797	7	Sololá	701	Sololá	1	Sololá	3	Marzo	2023-03-19T00:00:00	2024-11-08T10:00:00	6	Velocidad del viento	0
12798	7	Sololá	701	Sololá	1	Sololá	3	Marzo	2023-03-19T00:00:00	2024-11-08T10:00:00	7	Dirección del viento	0
12799	7	Sololá	701	Sololá	1	Sololá	3	Marzo	2023-03-19T00:00:00	2024-11-08T10:00:00	1	Precipitación	0
12800	7	Sololá	701	Sololá	1	Sololá	3	Marzo	2023-03-19T00:00:00	2024-11-08T10:00:00	8	Radiación solar	520
12801	7	Sololá	701	Sololá	1	Sololá	3	Marzo	2023-03-19T00:00:00	2024-11-08T11:00:00	2	Temperatura media	18.4
12802	7	Sololá	701	Sololá	1	Sololá	3	Marzo	2023-03-19T00:00:00	2024-11-08T11:00:00	4	Temperatura máxima	19.1
12803	7	Sololá	701	Sololá	1	Sololá	3	Marzo	2023-03-19T00:00:00	2024-11-08T11:00:00	3	Temperatura mínima	18.3
12804	7	Sololá	701	Sololá	1	Sololá	3	Marzo	2023-03-19T00:00:00	2024-11-08T11:00:00	5	Humedad	74
12805	7	Sololá	701	Sololá	1	Sololá	3	Marzo	2023-03-19T00:00:00	2024-11-08T11:00:00	6	Velocidad del viento	0
12806	7	Sololá	701	Sololá	1	Sololá	3	Marzo	2023-03-19T00:00:00	2024-11-08T11:00:00	7	Dirección del viento	0
12807	7	Sololá	701	Sololá	1	Sololá	3	Marzo	2023-03-19T00:00:00	2024-11-08T11:00:00	1	Precipitación	0
12808	7	Sololá	701	Sololá	1	Sololá	3	Marzo	2023-03-19T00:00:00	2024-11-08T11:00:00	8	Radiación solar	549
12809	7	Sololá	701	Sololá	1	Sololá	3	Marzo	2023-03-19T00:00:00	2024-11-08T12:00:00	2	Temperatura media	19.8
12810	7	Sololá	701	Sololá	1	Sololá	3	Marzo	2023-03-19T00:00:00	2024-11-08T12:00:00	4	Temperatura máxima	19.8
12811	7	Sololá	701	Sololá	1	Sololá	3	Marzo	2023-03-19T00:00:00	2024-11-08T12:00:00	3	Temperatura mínima	17.8
12812	7	Sololá	701	Sololá	1	Sololá	3	Marzo	2023-03-19T00:00:00	2024-11-08T12:00:00	5	Humedad	74
12813	7	Sololá	701	Sololá	1	Sololá	3	Marzo	2023-03-19T00:00:00	2024-11-08T12:00:00	6	Velocidad del viento	0
12814	7	Sololá	701	Sololá	1	Sololá	3	Marzo	2023-03-19T00:00:00	2024-11-08T12:00:00	7	Dirección del viento	0
12815	7	Sololá	701	Sololá	1	Sololá	3	Marzo	2023-03-19T00:00:00	2024-11-08T12:00:00	1	Precipitación	0
12816	7	Sololá	701	Sololá	1	Sololá	3	Marzo	2023-03-19T00:00:00	2024-11-08T12:00:00	8	Radiación solar	258
12817	7	Sololá	701	Sololá	1	Sololá	3	Marzo	2023-03-19T00:00:00	2024-11-08T13:00:00	2	Temperatura media	18.6
12818	7	Sololá	701	Sololá	1	Sololá	3	Marzo	2023-03-19T00:00:00	2024-11-08T13:00:00	4	Temperatura máxima	20.1
12819	7	Sololá	701	Sololá	1	Sololá	3	Marzo	2023-03-19T00:00:00	2024-11-08T13:00:00	3	Temperatura mínima	18.6
12820	7	Sololá	701	Sololá	1	Sololá	3	Marzo	2023-03-19T00:00:00	2024-11-08T13:00:00	5	Humedad	77
12821	7	Sololá	701	Sololá	1	Sololá	3	Marzo	2023-03-19T00:00:00	2024-11-08T13:00:00	6	Velocidad del viento	0
12822	7	Sololá	701	Sololá	1	Sololá	3	Marzo	2023-03-19T00:00:00	2024-11-08T13:00:00	7	Dirección del viento	0
12823	7	Sololá	701	Sololá	1	Sololá	3	Marzo	2023-03-19T00:00:00	2024-11-08T13:00:00	1	Precipitación	0
12824	7	Sololá	701	Sololá	1	Sololá	3	Marzo	2023-03-19T00:00:00	2024-11-08T13:00:00	8	Radiación solar	239
12825	7	Sololá	701	Sololá	1	Sololá	3	Marzo	2023-03-19T00:00:00	2024-11-08T14:00:00	2	Temperatura media	18.7
12826	7	Sololá	701	Sololá	1	Sololá	3	Marzo	2023-03-19T00:00:00	2024-11-08T14:00:00	4	Temperatura máxima	19.8
12827	7	Sololá	701	Sololá	1	Sololá	3	Marzo	2023-03-19T00:00:00	2024-11-08T14:00:00	3	Temperatura mínima	18.4
12828	7	Sololá	701	Sololá	1	Sololá	3	Marzo	2023-03-19T00:00:00	2024-11-08T14:00:00	5	Humedad	82
12829	7	Sololá	701	Sololá	1	Sololá	3	Marzo	2023-03-19T00:00:00	2024-11-08T14:00:00	6	Velocidad del viento	0
12830	7	Sololá	701	Sololá	1	Sololá	3	Marzo	2023-03-19T00:00:00	2024-11-08T14:00:00	7	Dirección del viento	0
12831	7	Sololá	701	Sololá	1	Sololá	3	Marzo	2023-03-19T00:00:00	2024-11-08T14:00:00	1	Precipitación	0
12832	7	Sololá	701	Sololá	1	Sololá	3	Marzo	2023-03-19T00:00:00	2024-11-08T14:00:00	8	Radiación solar	105
12833	7	Sololá	701	Sololá	1	Sololá	3	Marzo	2023-03-19T00:00:00	2024-11-08T15:00:00	2	Temperatura media	16.7
12834	7	Sololá	701	Sololá	1	Sololá	3	Marzo	2023-03-19T00:00:00	2024-11-08T15:00:00	4	Temperatura máxima	18.7
12835	7	Sololá	701	Sololá	1	Sololá	3	Marzo	2023-03-19T00:00:00	2024-11-08T15:00:00	3	Temperatura mínima	16.4
12836	7	Sololá	701	Sololá	1	Sololá	3	Marzo	2023-03-19T00:00:00	2024-11-08T15:00:00	5	Humedad	93
12837	7	Sololá	701	Sololá	1	Sololá	3	Marzo	2023-03-19T00:00:00	2024-11-08T15:00:00	6	Velocidad del viento	0
12838	7	Sololá	701	Sololá	1	Sololá	3	Marzo	2023-03-19T00:00:00	2024-11-08T15:00:00	7	Dirección del viento	0
12839	7	Sololá	701	Sololá	1	Sololá	3	Marzo	2023-03-19T00:00:00	2024-11-08T15:00:00	1	Precipitación	0
12840	7	Sololá	701	Sololá	1	Sololá	3	Marzo	2023-03-19T00:00:00	2024-11-08T15:00:00	8	Radiación solar	158
12841	7	Sololá	701	Sololá	1	Sololá	3	Marzo	2023-03-19T00:00:00	2024-11-08T16:00:00	2	Temperatura media	16.3
12842	7	Sololá	701	Sololá	1	Sololá	3	Marzo	2023-03-19T00:00:00	2024-11-08T16:00:00	4	Temperatura máxima	16.9
12843	7	Sololá	701	Sololá	1	Sololá	3	Marzo	2023-03-19T00:00:00	2024-11-08T16:00:00	3	Temperatura mínima	16.3
12844	7	Sololá	701	Sololá	1	Sololá	3	Marzo	2023-03-19T00:00:00	2024-11-08T16:00:00	5	Humedad	91
12845	7	Sololá	701	Sololá	1	Sololá	3	Marzo	2023-03-19T00:00:00	2024-11-08T16:00:00	6	Velocidad del viento	0
12846	7	Sololá	701	Sololá	1	Sololá	3	Marzo	2023-03-19T00:00:00	2024-11-08T16:00:00	7	Dirección del viento	0
12847	7	Sololá	701	Sololá	1	Sololá	3	Marzo	2023-03-19T00:00:00	2024-11-08T16:00:00	1	Precipitación	0
12848	7	Sololá	701	Sololá	1	Sololá	3	Marzo	2023-03-19T00:00:00	2024-11-08T16:00:00	8	Radiación solar	21
12849	7	Sololá	701	Sololá	1	Sololá	3	Marzo	2023-03-19T00:00:00	2024-11-08T17:00:00	2	Temperatura media	15.3
12850	7	Sololá	701	Sololá	1	Sololá	3	Marzo	2023-03-19T00:00:00	2024-11-08T17:00:00	4	Temperatura máxima	16.4
12851	7	Sololá	701	Sololá	1	Sololá	3	Marzo	2023-03-19T00:00:00	2024-11-08T17:00:00	3	Temperatura mínima	15.3
12852	7	Sololá	701	Sololá	1	Sololá	3	Marzo	2023-03-19T00:00:00	2024-11-08T17:00:00	5	Humedad	94
12853	7	Sololá	701	Sololá	1	Sololá	3	Marzo	2023-03-19T00:00:00	2024-11-08T17:00:00	6	Velocidad del viento	0
12854	7	Sololá	701	Sololá	1	Sololá	3	Marzo	2023-03-19T00:00:00	2024-11-08T17:00:00	7	Dirección del viento	0
12855	7	Sololá	701	Sololá	1	Sololá	3	Marzo	2023-03-19T00:00:00	2024-11-08T17:00:00	1	Precipitación	0
12856	7	Sololá	701	Sololá	1	Sololá	3	Marzo	2023-03-19T00:00:00	2024-11-08T17:00:00	8	Radiación solar	39
12857	7	Sololá	701	Sololá	1	Sololá	3	Marzo	2023-03-19T00:00:00	2024-11-08T18:00:00	2	Temperatura media	15.2
12858	7	Sololá	701	Sololá	1	Sololá	3	Marzo	2023-03-19T00:00:00	2024-11-08T18:00:00	4	Temperatura máxima	15.3
12859	7	Sololá	701	Sololá	1	Sololá	3	Marzo	2023-03-19T00:00:00	2024-11-08T18:00:00	3	Temperatura mínima	15.1
12860	7	Sololá	701	Sololá	1	Sololá	3	Marzo	2023-03-19T00:00:00	2024-11-08T18:00:00	5	Humedad	94
12861	7	Sololá	701	Sololá	1	Sololá	3	Marzo	2023-03-19T00:00:00	2024-11-08T18:00:00	6	Velocidad del viento	0
12862	7	Sololá	701	Sololá	1	Sololá	3	Marzo	2023-03-19T00:00:00	2024-11-08T18:00:00	7	Dirección del viento	0
12863	7	Sololá	701	Sololá	1	Sololá	3	Marzo	2023-03-19T00:00:00	2024-11-08T18:00:00	1	Precipitación	0
12864	7	Sololá	701	Sololá	1	Sololá	3	Marzo	2023-03-19T00:00:00	2024-11-08T18:00:00	8	Radiación solar	21
12865	7	Sololá	701	Sololá	1	Sololá	3	Marzo	2023-03-19T00:00:00	2024-11-08T19:00:00	2	Temperatura media	14.9
12866	7	Sololá	701	Sololá	1	Sololá	3	Marzo	2023-03-19T00:00:00	2024-11-08T19:00:00	4	Temperatura máxima	15.2
12867	7	Sololá	701	Sololá	1	Sololá	3	Marzo	2023-03-19T00:00:00	2024-11-08T19:00:00	3	Temperatura mínima	14.9
12868	7	Sololá	701	Sololá	1	Sololá	3	Marzo	2023-03-19T00:00:00	2024-11-08T19:00:00	5	Humedad	94
12869	7	Sololá	701	Sololá	1	Sololá	3	Marzo	2023-03-19T00:00:00	2024-11-08T19:00:00	6	Velocidad del viento	0
12870	7	Sololá	701	Sololá	1	Sololá	3	Marzo	2023-03-19T00:00:00	2024-11-08T19:00:00	7	Dirección del viento	0
12871	7	Sololá	701	Sololá	1	Sololá	3	Marzo	2023-03-19T00:00:00	2024-11-08T19:00:00	1	Precipitación	0
12872	7	Sololá	701	Sololá	1	Sololá	3	Marzo	2023-03-19T00:00:00	2024-11-08T19:00:00	8	Radiación solar	0
12873	7	Sololá	701	Sololá	1	Sololá	3	Marzo	2023-03-19T00:00:00	2024-11-08T20:00:00	2	Temperatura media	14.3
12874	7	Sololá	701	Sololá	1	Sololá	3	Marzo	2023-03-19T00:00:00	2024-11-08T20:00:00	4	Temperatura máxima	14.9
12875	7	Sololá	701	Sololá	1	Sololá	3	Marzo	2023-03-19T00:00:00	2024-11-08T20:00:00	3	Temperatura mínima	14.3
12876	7	Sololá	701	Sololá	1	Sololá	3	Marzo	2023-03-19T00:00:00	2024-11-08T20:00:00	5	Humedad	94
12877	7	Sololá	701	Sololá	1	Sololá	3	Marzo	2023-03-19T00:00:00	2024-11-08T20:00:00	6	Velocidad del viento	0
12878	7	Sololá	701	Sololá	1	Sololá	3	Marzo	2023-03-19T00:00:00	2024-11-08T20:00:00	7	Dirección del viento	0
12879	7	Sololá	701	Sololá	1	Sololá	3	Marzo	2023-03-19T00:00:00	2024-11-08T20:00:00	1	Precipitación	0
12880	7	Sololá	701	Sololá	1	Sololá	3	Marzo	2023-03-19T00:00:00	2024-11-08T20:00:00	8	Radiación solar	0
12881	7	Sololá	701	Sololá	1	Sololá	3	Marzo	2023-03-19T00:00:00	2024-11-08T21:00:00	2	Temperatura media	13.6
12882	7	Sololá	701	Sololá	1	Sololá	3	Marzo	2023-03-19T00:00:00	2024-11-08T21:00:00	4	Temperatura máxima	14.3
12883	7	Sololá	701	Sololá	1	Sololá	3	Marzo	2023-03-19T00:00:00	2024-11-08T21:00:00	3	Temperatura mínima	13.6
12884	7	Sololá	701	Sololá	1	Sololá	3	Marzo	2023-03-19T00:00:00	2024-11-08T21:00:00	5	Humedad	94
12885	7	Sololá	701	Sololá	1	Sololá	3	Marzo	2023-03-19T00:00:00	2024-11-08T21:00:00	6	Velocidad del viento	0
12886	7	Sololá	701	Sololá	1	Sololá	3	Marzo	2023-03-19T00:00:00	2024-11-08T21:00:00	7	Dirección del viento	0
12887	7	Sololá	701	Sololá	1	Sololá	3	Marzo	2023-03-19T00:00:00	2024-11-08T21:00:00	1	Precipitación	0
12888	7	Sololá	701	Sololá	1	Sololá	3	Marzo	2023-03-19T00:00:00	2024-11-08T21:00:00	8	Radiación solar	0
12889	7	Sololá	701	Sololá	1	Sololá	3	Marzo	2023-03-19T00:00:00	2024-11-08T22:00:00	2	Temperatura media	13.2
12890	7	Sololá	701	Sololá	1	Sololá	3	Marzo	2023-03-19T00:00:00	2024-11-08T22:00:00	4	Temperatura máxima	13.6
12891	7	Sololá	701	Sololá	1	Sololá	3	Marzo	2023-03-19T00:00:00	2024-11-08T22:00:00	3	Temperatura mínima	13.2
12892	7	Sololá	701	Sololá	1	Sololá	3	Marzo	2023-03-19T00:00:00	2024-11-08T22:00:00	5	Humedad	94
12893	7	Sololá	701	Sololá	1	Sololá	3	Marzo	2023-03-19T00:00:00	2024-11-08T22:00:00	6	Velocidad del viento	0
12894	7	Sololá	701	Sololá	1	Sololá	3	Marzo	2023-03-19T00:00:00	2024-11-08T22:00:00	7	Dirección del viento	0
12895	7	Sololá	701	Sololá	1	Sololá	3	Marzo	2023-03-19T00:00:00	2024-11-08T22:00:00	1	Precipitación	0
12896	7	Sololá	701	Sololá	1	Sololá	3	Marzo	2023-03-19T00:00:00	2024-11-08T22:00:00	8	Radiación solar	0
12897	7	Sololá	701	Sololá	1	Sololá	3	Marzo	2023-03-19T00:00:00	2024-11-08T23:00:00	2	Temperatura media	13.2
12898	7	Sololá	701	Sololá	1	Sololá	3	Marzo	2023-03-19T00:00:00	2024-11-08T23:00:00	4	Temperatura máxima	13.3
12899	7	Sololá	701	Sololá	1	Sololá	3	Marzo	2023-03-19T00:00:00	2024-11-08T23:00:00	3	Temperatura mínima	13.1
12900	7	Sololá	701	Sololá	1	Sololá	3	Marzo	2023-03-19T00:00:00	2024-11-08T23:00:00	5	Humedad	93
12901	7	Sololá	701	Sololá	1	Sololá	3	Marzo	2023-03-19T00:00:00	2024-11-08T23:00:00	6	Velocidad del viento	0
12902	7	Sololá	701	Sololá	1	Sololá	3	Marzo	2023-03-19T00:00:00	2024-11-08T23:00:00	7	Dirección del viento	0
12903	7	Sololá	701	Sololá	1	Sololá	3	Marzo	2023-03-19T00:00:00	2024-11-08T23:00:00	1	Precipitación	0
12904	7	Sololá	701	Sololá	1	Sololá	3	Marzo	2023-03-19T00:00:00	2024-11-08T23:00:00	8	Radiación solar	0
12905	7	Sololá	701	Sololá	1	Sololá	3	Marzo	2023-03-20T00:00:00	2024-11-08T00:00:00	2	Temperatura media	13.1
12906	7	Sololá	701	Sololá	1	Sololá	3	Marzo	2023-03-20T00:00:00	2024-11-08T00:00:00	4	Temperatura máxima	13.3
12907	7	Sololá	701	Sololá	1	Sololá	3	Marzo	2023-03-20T00:00:00	2024-11-08T00:00:00	3	Temperatura mínima	13.1
12908	7	Sololá	701	Sololá	1	Sololá	3	Marzo	2023-03-20T00:00:00	2024-11-08T00:00:00	5	Humedad	91
12909	7	Sololá	701	Sololá	1	Sololá	3	Marzo	2023-03-20T00:00:00	2024-11-08T00:00:00	6	Velocidad del viento	0
12910	7	Sololá	701	Sololá	1	Sololá	3	Marzo	2023-03-20T00:00:00	2024-11-08T00:00:00	7	Dirección del viento	0
12911	7	Sololá	701	Sololá	1	Sololá	3	Marzo	2023-03-20T00:00:00	2024-11-08T00:00:00	1	Precipitación	0
12912	7	Sololá	701	Sololá	1	Sololá	3	Marzo	2023-03-20T00:00:00	2024-11-08T00:00:00	8	Radiación solar	0
12913	7	Sololá	701	Sololá	1	Sololá	3	Marzo	2023-03-20T00:00:00	2024-11-08T01:00:00	2	Temperatura media	12.9
12914	7	Sololá	701	Sololá	1	Sololá	3	Marzo	2023-03-20T00:00:00	2024-11-08T01:00:00	4	Temperatura máxima	13.2
12915	7	Sololá	701	Sololá	1	Sololá	3	Marzo	2023-03-20T00:00:00	2024-11-08T01:00:00	3	Temperatura mínima	12.9
12916	7	Sololá	701	Sololá	1	Sololá	3	Marzo	2023-03-20T00:00:00	2024-11-08T01:00:00	5	Humedad	90
12917	7	Sololá	701	Sololá	1	Sololá	3	Marzo	2023-03-20T00:00:00	2024-11-08T01:00:00	6	Velocidad del viento	0
12918	7	Sololá	701	Sololá	1	Sololá	3	Marzo	2023-03-20T00:00:00	2024-11-08T01:00:00	7	Dirección del viento	0
12919	7	Sololá	701	Sololá	1	Sololá	3	Marzo	2023-03-20T00:00:00	2024-11-08T01:00:00	1	Precipitación	0
12920	7	Sololá	701	Sololá	1	Sololá	3	Marzo	2023-03-20T00:00:00	2024-11-08T01:00:00	8	Radiación solar	0
12921	7	Sololá	701	Sololá	1	Sololá	3	Marzo	2023-03-20T00:00:00	2024-11-08T02:00:00	2	Temperatura media	12.9
12922	7	Sololá	701	Sololá	1	Sololá	3	Marzo	2023-03-20T00:00:00	2024-11-08T02:00:00	4	Temperatura máxima	12.9
12923	7	Sololá	701	Sololá	1	Sololá	3	Marzo	2023-03-20T00:00:00	2024-11-08T02:00:00	3	Temperatura mínima	12.7
12924	7	Sololá	701	Sololá	1	Sololá	3	Marzo	2023-03-20T00:00:00	2024-11-08T02:00:00	5	Humedad	89
12925	7	Sololá	701	Sololá	1	Sololá	3	Marzo	2023-03-20T00:00:00	2024-11-08T02:00:00	6	Velocidad del viento	0
12926	7	Sololá	701	Sololá	1	Sololá	3	Marzo	2023-03-20T00:00:00	2024-11-08T02:00:00	7	Dirección del viento	0
12927	7	Sololá	701	Sololá	1	Sololá	3	Marzo	2023-03-20T00:00:00	2024-11-08T02:00:00	1	Precipitación	0
12928	7	Sololá	701	Sololá	1	Sololá	3	Marzo	2023-03-20T00:00:00	2024-11-08T02:00:00	8	Radiación solar	0
12929	7	Sololá	701	Sololá	1	Sololá	3	Marzo	2023-03-20T00:00:00	2024-11-08T03:00:00	2	Temperatura media	13
12930	7	Sololá	701	Sololá	1	Sololá	3	Marzo	2023-03-20T00:00:00	2024-11-08T03:00:00	4	Temperatura máxima	13.1
12931	7	Sololá	701	Sololá	1	Sololá	3	Marzo	2023-03-20T00:00:00	2024-11-08T03:00:00	3	Temperatura mínima	12.8
12932	7	Sololá	701	Sololá	1	Sololá	3	Marzo	2023-03-20T00:00:00	2024-11-08T03:00:00	5	Humedad	89
12933	7	Sololá	701	Sololá	1	Sololá	3	Marzo	2023-03-20T00:00:00	2024-11-08T03:00:00	6	Velocidad del viento	0
12934	7	Sololá	701	Sololá	1	Sololá	3	Marzo	2023-03-20T00:00:00	2024-11-08T03:00:00	7	Dirección del viento	0
12935	7	Sololá	701	Sololá	1	Sololá	3	Marzo	2023-03-20T00:00:00	2024-11-08T03:00:00	1	Precipitación	0
12936	7	Sololá	701	Sololá	1	Sololá	3	Marzo	2023-03-20T00:00:00	2024-11-08T03:00:00	8	Radiación solar	0
12937	7	Sololá	701	Sololá	1	Sololá	3	Marzo	2023-03-20T00:00:00	2024-11-08T04:00:00	2	Temperatura media	12.7
12938	7	Sololá	701	Sololá	1	Sololá	3	Marzo	2023-03-20T00:00:00	2024-11-08T04:00:00	4	Temperatura máxima	13.1
12939	7	Sololá	701	Sololá	1	Sololá	3	Marzo	2023-03-20T00:00:00	2024-11-08T04:00:00	3	Temperatura mínima	12.7
12940	7	Sololá	701	Sololá	1	Sololá	3	Marzo	2023-03-20T00:00:00	2024-11-08T04:00:00	5	Humedad	88
12941	7	Sololá	701	Sololá	1	Sololá	3	Marzo	2023-03-20T00:00:00	2024-11-08T04:00:00	6	Velocidad del viento	0
12942	7	Sololá	701	Sololá	1	Sololá	3	Marzo	2023-03-20T00:00:00	2024-11-08T04:00:00	7	Dirección del viento	0
12943	7	Sololá	701	Sololá	1	Sololá	3	Marzo	2023-03-20T00:00:00	2024-11-08T04:00:00	1	Precipitación	0
12944	7	Sololá	701	Sololá	1	Sololá	3	Marzo	2023-03-20T00:00:00	2024-11-08T04:00:00	8	Radiación solar	0
12945	7	Sololá	701	Sololá	1	Sololá	3	Marzo	2023-03-20T00:00:00	2024-11-08T05:00:00	2	Temperatura media	12.7
12946	7	Sololá	701	Sololá	1	Sololá	3	Marzo	2023-03-20T00:00:00	2024-11-08T05:00:00	4	Temperatura máxima	12.8
12947	7	Sololá	701	Sololá	1	Sololá	3	Marzo	2023-03-20T00:00:00	2024-11-08T05:00:00	3	Temperatura mínima	12.6
12948	7	Sololá	701	Sololá	1	Sololá	3	Marzo	2023-03-20T00:00:00	2024-11-08T05:00:00	5	Humedad	86
12949	7	Sololá	701	Sololá	1	Sololá	3	Marzo	2023-03-20T00:00:00	2024-11-08T05:00:00	6	Velocidad del viento	0
12950	7	Sololá	701	Sololá	1	Sololá	3	Marzo	2023-03-20T00:00:00	2024-11-08T05:00:00	7	Dirección del viento	0
12951	7	Sololá	701	Sololá	1	Sololá	3	Marzo	2023-03-20T00:00:00	2024-11-08T05:00:00	1	Precipitación	0
12952	7	Sololá	701	Sololá	1	Sololá	3	Marzo	2023-03-20T00:00:00	2024-11-08T05:00:00	8	Radiación solar	0
12953	7	Sololá	701	Sololá	1	Sololá	3	Marzo	2023-03-20T00:00:00	2024-11-08T06:00:00	2	Temperatura media	12.9
12954	7	Sololá	701	Sololá	1	Sololá	3	Marzo	2023-03-20T00:00:00	2024-11-08T06:00:00	4	Temperatura máxima	12.9
12955	7	Sololá	701	Sololá	1	Sololá	3	Marzo	2023-03-20T00:00:00	2024-11-08T06:00:00	3	Temperatura mínima	12.7
12956	7	Sololá	701	Sololá	1	Sololá	3	Marzo	2023-03-20T00:00:00	2024-11-08T06:00:00	5	Humedad	85
12957	7	Sololá	701	Sololá	1	Sololá	3	Marzo	2023-03-20T00:00:00	2024-11-08T06:00:00	6	Velocidad del viento	0
12958	7	Sololá	701	Sololá	1	Sololá	3	Marzo	2023-03-20T00:00:00	2024-11-08T06:00:00	7	Dirección del viento	0
12959	7	Sololá	701	Sololá	1	Sololá	3	Marzo	2023-03-20T00:00:00	2024-11-08T06:00:00	1	Precipitación	0.2
12960	7	Sololá	701	Sololá	1	Sololá	3	Marzo	2023-03-20T00:00:00	2024-11-08T06:00:00	8	Radiación solar	0
12961	7	Sololá	701	Sololá	1	Sololá	3	Marzo	2023-03-20T00:00:00	2024-11-08T07:00:00	2	Temperatura media	13.1
12962	7	Sololá	701	Sololá	1	Sololá	3	Marzo	2023-03-20T00:00:00	2024-11-08T07:00:00	4	Temperatura máxima	13.1
12963	7	Sololá	701	Sololá	1	Sololá	3	Marzo	2023-03-20T00:00:00	2024-11-08T07:00:00	3	Temperatura mínima	12.8
12964	7	Sololá	701	Sololá	1	Sololá	3	Marzo	2023-03-20T00:00:00	2024-11-08T07:00:00	5	Humedad	84
12965	7	Sololá	701	Sololá	1	Sololá	3	Marzo	2023-03-20T00:00:00	2024-11-08T07:00:00	6	Velocidad del viento	0
12966	7	Sololá	701	Sololá	1	Sololá	3	Marzo	2023-03-20T00:00:00	2024-11-08T07:00:00	7	Dirección del viento	0
12967	7	Sololá	701	Sololá	1	Sololá	3	Marzo	2023-03-20T00:00:00	2024-11-08T07:00:00	1	Precipitación	0
12968	7	Sololá	701	Sololá	1	Sololá	3	Marzo	2023-03-20T00:00:00	2024-11-08T07:00:00	8	Radiación solar	6
12969	7	Sololá	701	Sololá	1	Sololá	3	Marzo	2023-03-20T00:00:00	2024-11-08T08:00:00	2	Temperatura media	13.1
12970	7	Sololá	701	Sololá	1	Sololá	3	Marzo	2023-03-20T00:00:00	2024-11-08T08:00:00	4	Temperatura máxima	13.1
12971	7	Sololá	701	Sololá	1	Sololá	3	Marzo	2023-03-20T00:00:00	2024-11-08T08:00:00	3	Temperatura mínima	12.9
12972	7	Sololá	701	Sololá	1	Sololá	3	Marzo	2023-03-20T00:00:00	2024-11-08T08:00:00	5	Humedad	84
12973	7	Sololá	701	Sololá	1	Sololá	3	Marzo	2023-03-20T00:00:00	2024-11-08T08:00:00	6	Velocidad del viento	0
12974	7	Sololá	701	Sololá	1	Sololá	3	Marzo	2023-03-20T00:00:00	2024-11-08T08:00:00	7	Dirección del viento	0
12975	7	Sololá	701	Sololá	1	Sololá	3	Marzo	2023-03-20T00:00:00	2024-11-08T08:00:00	1	Precipitación	0
12976	7	Sololá	701	Sololá	1	Sololá	3	Marzo	2023-03-20T00:00:00	2024-11-08T08:00:00	8	Radiación solar	100
12977	7	Sololá	701	Sololá	1	Sololá	3	Marzo	2023-03-20T00:00:00	2024-11-08T09:00:00	2	Temperatura media	14.9
12978	7	Sololá	701	Sololá	1	Sololá	3	Marzo	2023-03-20T00:00:00	2024-11-08T09:00:00	4	Temperatura máxima	14.9
12979	7	Sololá	701	Sololá	1	Sololá	3	Marzo	2023-03-20T00:00:00	2024-11-08T09:00:00	3	Temperatura mínima	13.1
12980	7	Sololá	701	Sololá	1	Sololá	3	Marzo	2023-03-20T00:00:00	2024-11-08T09:00:00	5	Humedad	80
12981	7	Sololá	701	Sololá	1	Sololá	3	Marzo	2023-03-20T00:00:00	2024-11-08T09:00:00	6	Velocidad del viento	0
12982	7	Sololá	701	Sololá	1	Sololá	3	Marzo	2023-03-20T00:00:00	2024-11-08T09:00:00	7	Dirección del viento	0
12983	7	Sololá	701	Sololá	1	Sololá	3	Marzo	2023-03-20T00:00:00	2024-11-08T09:00:00	1	Precipitación	0
12984	7	Sololá	701	Sololá	1	Sololá	3	Marzo	2023-03-20T00:00:00	2024-11-08T09:00:00	8	Radiación solar	569
12985	7	Sololá	701	Sololá	1	Sololá	3	Marzo	2023-03-20T00:00:00	2024-11-08T10:00:00	2	Temperatura media	17.6
12986	7	Sololá	701	Sololá	1	Sololá	3	Marzo	2023-03-20T00:00:00	2024-11-08T10:00:00	4	Temperatura máxima	17.6
12987	7	Sololá	701	Sololá	1	Sololá	3	Marzo	2023-03-20T00:00:00	2024-11-08T10:00:00	3	Temperatura mínima	14.9
12988	7	Sololá	701	Sololá	1	Sololá	3	Marzo	2023-03-20T00:00:00	2024-11-08T10:00:00	5	Humedad	72
12989	7	Sololá	701	Sololá	1	Sololá	3	Marzo	2023-03-20T00:00:00	2024-11-08T10:00:00	6	Velocidad del viento	1.6
12990	7	Sololá	701	Sololá	1	Sololá	3	Marzo	2023-03-20T00:00:00	2024-11-08T10:00:00	7	Dirección del viento	1.61
12991	7	Sololá	701	Sololá	1	Sololá	3	Marzo	2023-03-20T00:00:00	2024-11-08T10:00:00	1	Precipitación	0
12992	7	Sololá	701	Sololá	1	Sololá	3	Marzo	2023-03-20T00:00:00	2024-11-08T10:00:00	8	Radiación solar	777
12993	7	Sololá	701	Sololá	1	Sololá	3	Marzo	2023-03-20T00:00:00	2024-11-08T11:00:00	2	Temperatura media	19.2
12994	7	Sololá	701	Sololá	1	Sololá	3	Marzo	2023-03-20T00:00:00	2024-11-08T11:00:00	4	Temperatura máxima	19.2
12995	7	Sololá	701	Sololá	1	Sololá	3	Marzo	2023-03-20T00:00:00	2024-11-08T11:00:00	3	Temperatura mínima	17.6
12996	7	Sololá	701	Sololá	1	Sololá	3	Marzo	2023-03-20T00:00:00	2024-11-08T11:00:00	5	Humedad	68
12997	7	Sololá	701	Sololá	1	Sololá	3	Marzo	2023-03-20T00:00:00	2024-11-08T11:00:00	6	Velocidad del viento	1.6
12998	7	Sololá	701	Sololá	1	Sololá	3	Marzo	2023-03-20T00:00:00	2024-11-08T11:00:00	7	Dirección del viento	1.61
12999	7	Sololá	701	Sololá	1	Sololá	3	Marzo	2023-03-20T00:00:00	2024-11-08T11:00:00	1	Precipitación	0
13000	7	Sololá	701	Sololá	1	Sololá	3	Marzo	2023-03-20T00:00:00	2024-11-08T11:00:00	8	Radiación solar	916
13001	7	Sololá	701	Sololá	1	Sololá	3	Marzo	2023-03-20T00:00:00	2024-11-08T12:00:00	2	Temperatura media	20.5
13002	7	Sololá	701	Sololá	1	Sololá	3	Marzo	2023-03-20T00:00:00	2024-11-08T12:00:00	4	Temperatura máxima	20.5
13003	7	Sololá	701	Sololá	1	Sololá	3	Marzo	2023-03-20T00:00:00	2024-11-08T12:00:00	3	Temperatura mínima	19.2
13004	7	Sololá	701	Sololá	1	Sololá	3	Marzo	2023-03-20T00:00:00	2024-11-08T12:00:00	5	Humedad	64
13005	7	Sololá	701	Sololá	1	Sololá	3	Marzo	2023-03-20T00:00:00	2024-11-08T12:00:00	6	Velocidad del viento	0
13006	7	Sololá	701	Sololá	1	Sololá	3	Marzo	2023-03-20T00:00:00	2024-11-08T12:00:00	7	Dirección del viento	0
13007	7	Sololá	701	Sololá	1	Sololá	3	Marzo	2023-03-20T00:00:00	2024-11-08T12:00:00	1	Precipitación	0
13008	7	Sololá	701	Sololá	1	Sololá	3	Marzo	2023-03-20T00:00:00	2024-11-08T12:00:00	8	Radiación solar	987
13009	7	Sololá	701	Sololá	1	Sololá	3	Marzo	2023-03-20T00:00:00	2024-11-08T13:00:00	2	Temperatura media	21.7
13010	7	Sololá	701	Sololá	1	Sololá	3	Marzo	2023-03-20T00:00:00	2024-11-08T13:00:00	4	Temperatura máxima	21.7
13011	7	Sololá	701	Sololá	1	Sololá	3	Marzo	2023-03-20T00:00:00	2024-11-08T13:00:00	3	Temperatura mínima	20.5
13012	7	Sololá	701	Sololá	1	Sololá	3	Marzo	2023-03-20T00:00:00	2024-11-08T13:00:00	5	Humedad	59
13013	7	Sololá	701	Sololá	1	Sololá	3	Marzo	2023-03-20T00:00:00	2024-11-08T13:00:00	6	Velocidad del viento	0
13014	7	Sololá	701	Sololá	1	Sololá	3	Marzo	2023-03-20T00:00:00	2024-11-08T13:00:00	7	Dirección del viento	0
13015	7	Sololá	701	Sololá	1	Sololá	3	Marzo	2023-03-20T00:00:00	2024-11-08T13:00:00	1	Precipitación	0
13016	7	Sololá	701	Sololá	1	Sololá	3	Marzo	2023-03-20T00:00:00	2024-11-08T13:00:00	8	Radiación solar	992
13017	7	Sololá	701	Sololá	1	Sololá	3	Marzo	2023-03-20T00:00:00	2024-11-08T14:00:00	2	Temperatura media	22.8
13018	7	Sololá	701	Sololá	1	Sololá	3	Marzo	2023-03-20T00:00:00	2024-11-08T14:00:00	4	Temperatura máxima	22.9
13019	7	Sololá	701	Sololá	1	Sololá	3	Marzo	2023-03-20T00:00:00	2024-11-08T14:00:00	3	Temperatura mínima	21.7
13020	7	Sololá	701	Sololá	1	Sololá	3	Marzo	2023-03-20T00:00:00	2024-11-08T14:00:00	5	Humedad	59
13021	7	Sololá	701	Sololá	1	Sololá	3	Marzo	2023-03-20T00:00:00	2024-11-08T14:00:00	6	Velocidad del viento	0
13022	7	Sololá	701	Sololá	1	Sololá	3	Marzo	2023-03-20T00:00:00	2024-11-08T14:00:00	7	Dirección del viento	0
13023	7	Sololá	701	Sololá	1	Sololá	3	Marzo	2023-03-20T00:00:00	2024-11-08T14:00:00	1	Precipitación	0
13024	7	Sololá	701	Sololá	1	Sololá	3	Marzo	2023-03-20T00:00:00	2024-11-08T14:00:00	8	Radiación solar	574
13025	7	Sololá	701	Sololá	1	Sololá	3	Marzo	2023-03-20T00:00:00	2024-11-08T15:00:00	2	Temperatura media	23.2
13026	7	Sololá	701	Sololá	1	Sololá	3	Marzo	2023-03-20T00:00:00	2024-11-08T15:00:00	4	Temperatura máxima	23.2
13027	7	Sololá	701	Sololá	1	Sololá	3	Marzo	2023-03-20T00:00:00	2024-11-08T15:00:00	3	Temperatura mínima	22.6
13028	7	Sololá	701	Sololá	1	Sololá	3	Marzo	2023-03-20T00:00:00	2024-11-08T15:00:00	5	Humedad	56
13029	7	Sololá	701	Sololá	1	Sololá	3	Marzo	2023-03-20T00:00:00	2024-11-08T15:00:00	6	Velocidad del viento	0
13030	7	Sololá	701	Sololá	1	Sololá	3	Marzo	2023-03-20T00:00:00	2024-11-08T15:00:00	7	Dirección del viento	0
13031	7	Sololá	701	Sololá	1	Sololá	3	Marzo	2023-03-20T00:00:00	2024-11-08T15:00:00	1	Precipitación	0
13032	7	Sololá	701	Sololá	1	Sololá	3	Marzo	2023-03-20T00:00:00	2024-11-08T15:00:00	8	Radiación solar	87
13033	7	Sololá	701	Sololá	1	Sololá	3	Marzo	2023-03-20T00:00:00	2024-11-08T16:00:00	2	Temperatura media	22.9
13034	7	Sololá	701	Sololá	1	Sololá	3	Marzo	2023-03-20T00:00:00	2024-11-08T16:00:00	4	Temperatura máxima	23.3
13035	7	Sololá	701	Sololá	1	Sololá	3	Marzo	2023-03-20T00:00:00	2024-11-08T16:00:00	3	Temperatura mínima	22.8
13036	7	Sololá	701	Sololá	1	Sololá	3	Marzo	2023-03-20T00:00:00	2024-11-08T16:00:00	5	Humedad	55
13037	7	Sololá	701	Sololá	1	Sololá	3	Marzo	2023-03-20T00:00:00	2024-11-08T16:00:00	6	Velocidad del viento	0
13038	7	Sololá	701	Sololá	1	Sololá	3	Marzo	2023-03-20T00:00:00	2024-11-08T16:00:00	7	Dirección del viento	0
13039	7	Sololá	701	Sololá	1	Sololá	3	Marzo	2023-03-20T00:00:00	2024-11-08T16:00:00	1	Precipitación	0
13040	7	Sololá	701	Sololá	1	Sololá	3	Marzo	2023-03-20T00:00:00	2024-11-08T16:00:00	8	Radiación solar	58
13041	7	Sololá	701	Sololá	1	Sololá	3	Marzo	2023-03-20T00:00:00	2024-11-08T17:00:00	2	Temperatura media	19.4
13042	7	Sololá	701	Sololá	1	Sololá	3	Marzo	2023-03-20T00:00:00	2024-11-08T17:00:00	4	Temperatura máxima	22.9
13043	7	Sololá	701	Sololá	1	Sololá	3	Marzo	2023-03-20T00:00:00	2024-11-08T17:00:00	3	Temperatura mínima	19.4
13044	7	Sololá	701	Sololá	1	Sololá	3	Marzo	2023-03-20T00:00:00	2024-11-08T17:00:00	5	Humedad	67
13045	7	Sololá	701	Sololá	1	Sololá	3	Marzo	2023-03-20T00:00:00	2024-11-08T17:00:00	6	Velocidad del viento	0
13046	7	Sololá	701	Sololá	1	Sololá	3	Marzo	2023-03-20T00:00:00	2024-11-08T17:00:00	7	Dirección del viento	0
13047	7	Sololá	701	Sololá	1	Sololá	3	Marzo	2023-03-20T00:00:00	2024-11-08T17:00:00	1	Precipitación	0
13048	7	Sololá	701	Sololá	1	Sololá	3	Marzo	2023-03-20T00:00:00	2024-11-08T17:00:00	8	Radiación solar	13
13049	7	Sololá	701	Sololá	1	Sololá	3	Marzo	2023-03-20T00:00:00	2024-11-08T18:00:00	2	Temperatura media	16.9
13050	7	Sololá	701	Sololá	1	Sololá	3	Marzo	2023-03-20T00:00:00	2024-11-08T18:00:00	4	Temperatura máxima	19.4
13051	7	Sololá	701	Sololá	1	Sololá	3	Marzo	2023-03-20T00:00:00	2024-11-08T18:00:00	3	Temperatura mínima	16.8
13052	7	Sololá	701	Sololá	1	Sololá	3	Marzo	2023-03-20T00:00:00	2024-11-08T18:00:00	5	Humedad	74
13053	7	Sololá	701	Sololá	1	Sololá	3	Marzo	2023-03-20T00:00:00	2024-11-08T18:00:00	6	Velocidad del viento	0
13054	7	Sololá	701	Sololá	1	Sololá	3	Marzo	2023-03-20T00:00:00	2024-11-08T18:00:00	7	Dirección del viento	0
13055	7	Sololá	701	Sololá	1	Sololá	3	Marzo	2023-03-20T00:00:00	2024-11-08T18:00:00	1	Precipitación	0
13056	7	Sololá	701	Sololá	1	Sololá	3	Marzo	2023-03-20T00:00:00	2024-11-08T18:00:00	8	Radiación solar	8
13057	7	Sololá	701	Sololá	1	Sololá	3	Marzo	2023-03-20T00:00:00	2024-11-08T19:00:00	2	Temperatura media	15.7
13058	7	Sololá	701	Sololá	1	Sololá	3	Marzo	2023-03-20T00:00:00	2024-11-08T19:00:00	4	Temperatura máxima	16.9
13059	7	Sololá	701	Sololá	1	Sololá	3	Marzo	2023-03-20T00:00:00	2024-11-08T19:00:00	3	Temperatura mínima	15.7
13060	7	Sololá	701	Sololá	1	Sololá	3	Marzo	2023-03-20T00:00:00	2024-11-08T19:00:00	5	Humedad	78
13061	7	Sololá	701	Sololá	1	Sololá	3	Marzo	2023-03-20T00:00:00	2024-11-08T19:00:00	6	Velocidad del viento	0
13062	7	Sololá	701	Sololá	1	Sololá	3	Marzo	2023-03-20T00:00:00	2024-11-08T19:00:00	7	Dirección del viento	0
13063	7	Sololá	701	Sololá	1	Sololá	3	Marzo	2023-03-20T00:00:00	2024-11-08T19:00:00	1	Precipitación	0
13064	7	Sololá	701	Sololá	1	Sololá	3	Marzo	2023-03-20T00:00:00	2024-11-08T19:00:00	8	Radiación solar	0
13065	7	Sololá	701	Sololá	1	Sololá	3	Marzo	2023-03-20T00:00:00	2024-11-08T20:00:00	2	Temperatura media	14.9
13066	7	Sololá	701	Sololá	1	Sololá	3	Marzo	2023-03-20T00:00:00	2024-11-08T20:00:00	4	Temperatura máxima	15.7
13067	7	Sololá	701	Sololá	1	Sololá	3	Marzo	2023-03-20T00:00:00	2024-11-08T20:00:00	3	Temperatura mínima	14.9
13068	7	Sololá	701	Sololá	1	Sololá	3	Marzo	2023-03-20T00:00:00	2024-11-08T20:00:00	5	Humedad	79
13069	7	Sololá	701	Sololá	1	Sololá	3	Marzo	2023-03-20T00:00:00	2024-11-08T20:00:00	6	Velocidad del viento	0
13070	7	Sololá	701	Sololá	1	Sololá	3	Marzo	2023-03-20T00:00:00	2024-11-08T20:00:00	7	Dirección del viento	0
13071	7	Sololá	701	Sololá	1	Sololá	3	Marzo	2023-03-20T00:00:00	2024-11-08T20:00:00	1	Precipitación	0
13072	7	Sololá	701	Sololá	1	Sololá	3	Marzo	2023-03-20T00:00:00	2024-11-08T20:00:00	8	Radiación solar	0
13073	7	Sololá	701	Sololá	1	Sololá	3	Marzo	2023-03-20T00:00:00	2024-11-08T21:00:00	2	Temperatura media	14.4
13074	7	Sololá	701	Sololá	1	Sololá	3	Marzo	2023-03-20T00:00:00	2024-11-08T21:00:00	4	Temperatura máxima	14.9
13075	7	Sololá	701	Sololá	1	Sololá	3	Marzo	2023-03-20T00:00:00	2024-11-08T21:00:00	3	Temperatura mínima	14.4
13076	7	Sololá	701	Sololá	1	Sololá	3	Marzo	2023-03-20T00:00:00	2024-11-08T21:00:00	5	Humedad	80
13077	7	Sololá	701	Sololá	1	Sololá	3	Marzo	2023-03-20T00:00:00	2024-11-08T21:00:00	6	Velocidad del viento	0
13078	7	Sololá	701	Sololá	1	Sololá	3	Marzo	2023-03-20T00:00:00	2024-11-08T21:00:00	7	Dirección del viento	0
13079	7	Sololá	701	Sololá	1	Sololá	3	Marzo	2023-03-20T00:00:00	2024-11-08T21:00:00	1	Precipitación	0
13080	7	Sololá	701	Sololá	1	Sololá	3	Marzo	2023-03-20T00:00:00	2024-11-08T21:00:00	8	Radiación solar	0
13081	7	Sololá	701	Sololá	1	Sololá	3	Marzo	2023-03-20T00:00:00	2024-11-08T22:00:00	2	Temperatura media	13.8
13082	7	Sololá	701	Sololá	1	Sololá	3	Marzo	2023-03-20T00:00:00	2024-11-08T22:00:00	4	Temperatura máxima	14.4
13083	7	Sololá	701	Sololá	1	Sololá	3	Marzo	2023-03-20T00:00:00	2024-11-08T22:00:00	3	Temperatura mínima	13.8
13084	7	Sololá	701	Sololá	1	Sololá	3	Marzo	2023-03-20T00:00:00	2024-11-08T22:00:00	5	Humedad	82
13085	7	Sololá	701	Sololá	1	Sololá	3	Marzo	2023-03-20T00:00:00	2024-11-08T22:00:00	6	Velocidad del viento	0
13086	7	Sololá	701	Sololá	1	Sololá	3	Marzo	2023-03-20T00:00:00	2024-11-08T22:00:00	7	Dirección del viento	0
13087	7	Sololá	701	Sololá	1	Sololá	3	Marzo	2023-03-20T00:00:00	2024-11-08T22:00:00	1	Precipitación	0
13088	7	Sololá	701	Sololá	1	Sololá	3	Marzo	2023-03-20T00:00:00	2024-11-08T22:00:00	8	Radiación solar	0
13089	7	Sololá	701	Sololá	1	Sololá	3	Marzo	2023-03-20T00:00:00	2024-11-08T23:00:00	2	Temperatura media	14.1
13090	7	Sololá	701	Sololá	1	Sololá	3	Marzo	2023-03-20T00:00:00	2024-11-08T23:00:00	4	Temperatura máxima	14.1
13091	7	Sololá	701	Sololá	1	Sololá	3	Marzo	2023-03-20T00:00:00	2024-11-08T23:00:00	3	Temperatura mínima	13.8
13092	7	Sololá	701	Sololá	1	Sololá	3	Marzo	2023-03-20T00:00:00	2024-11-08T23:00:00	5	Humedad	83
13093	7	Sololá	701	Sololá	1	Sololá	3	Marzo	2023-03-20T00:00:00	2024-11-08T23:00:00	6	Velocidad del viento	0
13094	7	Sololá	701	Sololá	1	Sololá	3	Marzo	2023-03-20T00:00:00	2024-11-08T23:00:00	7	Dirección del viento	0
13095	7	Sololá	701	Sololá	1	Sololá	3	Marzo	2023-03-20T00:00:00	2024-11-08T23:00:00	1	Precipitación	0
13096	7	Sololá	701	Sololá	1	Sololá	3	Marzo	2023-03-20T00:00:00	2024-11-08T23:00:00	8	Radiación solar	0
13097	7	Sololá	701	Sololá	1	Sololá	3	Marzo	2023-03-21T00:00:00	2024-11-08T00:00:00	2	Temperatura media	13.8
13098	7	Sololá	701	Sololá	1	Sololá	3	Marzo	2023-03-21T00:00:00	2024-11-08T00:00:00	4	Temperatura máxima	14.1
13099	7	Sololá	701	Sololá	1	Sololá	3	Marzo	2023-03-21T00:00:00	2024-11-08T00:00:00	3	Temperatura mínima	13.7
13100	7	Sololá	701	Sololá	1	Sololá	3	Marzo	2023-03-21T00:00:00	2024-11-08T00:00:00	5	Humedad	80
13101	7	Sololá	701	Sololá	1	Sololá	3	Marzo	2023-03-21T00:00:00	2024-11-08T00:00:00	6	Velocidad del viento	0
13102	7	Sololá	701	Sololá	1	Sololá	3	Marzo	2023-03-21T00:00:00	2024-11-08T00:00:00	7	Dirección del viento	0
13103	7	Sololá	701	Sololá	1	Sololá	3	Marzo	2023-03-21T00:00:00	2024-11-08T00:00:00	1	Precipitación	0
13104	7	Sololá	701	Sololá	1	Sololá	3	Marzo	2023-03-21T00:00:00	2024-11-08T00:00:00	8	Radiación solar	0
13105	7	Sololá	701	Sololá	1	Sololá	3	Marzo	2023-03-21T00:00:00	2024-11-08T01:00:00	2	Temperatura media	13.9
13106	7	Sololá	701	Sololá	1	Sololá	3	Marzo	2023-03-21T00:00:00	2024-11-08T01:00:00	4	Temperatura máxima	14
13107	7	Sololá	701	Sololá	1	Sololá	3	Marzo	2023-03-21T00:00:00	2024-11-08T01:00:00	3	Temperatura mínima	13.7
13108	7	Sololá	701	Sololá	1	Sololá	3	Marzo	2023-03-21T00:00:00	2024-11-08T01:00:00	5	Humedad	82
13109	7	Sololá	701	Sololá	1	Sololá	3	Marzo	2023-03-21T00:00:00	2024-11-08T01:00:00	6	Velocidad del viento	0
13110	7	Sololá	701	Sololá	1	Sololá	3	Marzo	2023-03-21T00:00:00	2024-11-08T01:00:00	7	Dirección del viento	0
13111	7	Sololá	701	Sololá	1	Sololá	3	Marzo	2023-03-21T00:00:00	2024-11-08T01:00:00	1	Precipitación	0
13112	7	Sololá	701	Sololá	1	Sololá	3	Marzo	2023-03-21T00:00:00	2024-11-08T01:00:00	8	Radiación solar	0
13113	7	Sololá	701	Sololá	1	Sololá	3	Marzo	2023-03-21T00:00:00	2024-11-08T02:00:00	2	Temperatura media	13.5
13114	7	Sololá	701	Sololá	1	Sololá	3	Marzo	2023-03-21T00:00:00	2024-11-08T02:00:00	4	Temperatura máxima	13.9
13115	7	Sololá	701	Sololá	1	Sololá	3	Marzo	2023-03-21T00:00:00	2024-11-08T02:00:00	3	Temperatura mínima	13.5
13116	7	Sololá	701	Sololá	1	Sololá	3	Marzo	2023-03-21T00:00:00	2024-11-08T02:00:00	5	Humedad	84
13117	7	Sololá	701	Sololá	1	Sololá	3	Marzo	2023-03-21T00:00:00	2024-11-08T02:00:00	6	Velocidad del viento	0
13118	7	Sololá	701	Sololá	1	Sololá	3	Marzo	2023-03-21T00:00:00	2024-11-08T02:00:00	7	Dirección del viento	0
13119	7	Sololá	701	Sololá	1	Sololá	3	Marzo	2023-03-21T00:00:00	2024-11-08T02:00:00	1	Precipitación	0
13120	7	Sololá	701	Sololá	1	Sololá	3	Marzo	2023-03-21T00:00:00	2024-11-08T02:00:00	8	Radiación solar	0
13121	7	Sololá	701	Sololá	1	Sololá	3	Marzo	2023-03-21T00:00:00	2024-11-08T03:00:00	2	Temperatura media	13.6
13122	7	Sololá	701	Sololá	1	Sololá	3	Marzo	2023-03-21T00:00:00	2024-11-08T03:00:00	4	Temperatura máxima	13.6
13123	7	Sololá	701	Sololá	1	Sololá	3	Marzo	2023-03-21T00:00:00	2024-11-08T03:00:00	3	Temperatura mínima	13.4
13124	7	Sololá	701	Sololá	1	Sololá	3	Marzo	2023-03-21T00:00:00	2024-11-08T03:00:00	5	Humedad	85
13125	7	Sololá	701	Sololá	1	Sololá	3	Marzo	2023-03-21T00:00:00	2024-11-08T03:00:00	6	Velocidad del viento	0
13126	7	Sololá	701	Sololá	1	Sololá	3	Marzo	2023-03-21T00:00:00	2024-11-08T03:00:00	7	Dirección del viento	0
13127	7	Sololá	701	Sololá	1	Sololá	3	Marzo	2023-03-21T00:00:00	2024-11-08T03:00:00	1	Precipitación	0
13128	7	Sololá	701	Sololá	1	Sololá	3	Marzo	2023-03-21T00:00:00	2024-11-08T03:00:00	8	Radiación solar	0
13129	7	Sololá	701	Sololá	1	Sololá	3	Marzo	2023-03-21T00:00:00	2024-11-08T04:00:00	2	Temperatura media	13.2
13130	7	Sololá	701	Sololá	1	Sololá	3	Marzo	2023-03-21T00:00:00	2024-11-08T04:00:00	4	Temperatura máxima	13.6
13131	7	Sololá	701	Sololá	1	Sololá	3	Marzo	2023-03-21T00:00:00	2024-11-08T04:00:00	3	Temperatura mínima	13.2
13132	7	Sololá	701	Sololá	1	Sololá	3	Marzo	2023-03-21T00:00:00	2024-11-08T04:00:00	5	Humedad	86
13133	7	Sololá	701	Sololá	1	Sololá	3	Marzo	2023-03-21T00:00:00	2024-11-08T04:00:00	6	Velocidad del viento	0
13134	7	Sololá	701	Sololá	1	Sololá	3	Marzo	2023-03-21T00:00:00	2024-11-08T04:00:00	7	Dirección del viento	0
13135	7	Sololá	701	Sololá	1	Sololá	3	Marzo	2023-03-21T00:00:00	2024-11-08T04:00:00	1	Precipitación	0
13136	7	Sololá	701	Sololá	1	Sololá	3	Marzo	2023-03-21T00:00:00	2024-11-08T04:00:00	8	Radiación solar	0
13137	7	Sololá	701	Sololá	1	Sololá	3	Marzo	2023-03-21T00:00:00	2024-11-08T05:00:00	2	Temperatura media	13.1
13138	7	Sololá	701	Sololá	1	Sololá	3	Marzo	2023-03-21T00:00:00	2024-11-08T05:00:00	4	Temperatura máxima	13.3
13139	7	Sololá	701	Sololá	1	Sololá	3	Marzo	2023-03-21T00:00:00	2024-11-08T05:00:00	3	Temperatura mínima	13.1
13140	7	Sololá	701	Sololá	1	Sololá	3	Marzo	2023-03-21T00:00:00	2024-11-08T05:00:00	5	Humedad	85
13141	7	Sololá	701	Sololá	1	Sololá	3	Marzo	2023-03-21T00:00:00	2024-11-08T05:00:00	6	Velocidad del viento	0
13142	7	Sololá	701	Sololá	1	Sololá	3	Marzo	2023-03-21T00:00:00	2024-11-08T05:00:00	7	Dirección del viento	0
13143	7	Sololá	701	Sololá	1	Sololá	3	Marzo	2023-03-21T00:00:00	2024-11-08T05:00:00	1	Precipitación	0
13144	7	Sololá	701	Sololá	1	Sololá	3	Marzo	2023-03-21T00:00:00	2024-11-08T05:00:00	8	Radiación solar	0
13145	7	Sololá	701	Sololá	1	Sololá	3	Marzo	2023-03-21T00:00:00	2024-11-08T06:00:00	2	Temperatura media	13.4
13146	7	Sololá	701	Sololá	1	Sololá	3	Marzo	2023-03-21T00:00:00	2024-11-08T06:00:00	4	Temperatura máxima	13.4
13147	7	Sololá	701	Sololá	1	Sololá	3	Marzo	2023-03-21T00:00:00	2024-11-08T06:00:00	3	Temperatura mínima	13.1
13148	7	Sololá	701	Sololá	1	Sololá	3	Marzo	2023-03-21T00:00:00	2024-11-08T06:00:00	5	Humedad	84
13149	7	Sololá	701	Sololá	1	Sololá	3	Marzo	2023-03-21T00:00:00	2024-11-08T06:00:00	6	Velocidad del viento	0
13150	7	Sololá	701	Sololá	1	Sololá	3	Marzo	2023-03-21T00:00:00	2024-11-08T06:00:00	7	Dirección del viento	0
13151	7	Sololá	701	Sololá	1	Sololá	3	Marzo	2023-03-21T00:00:00	2024-11-08T06:00:00	1	Precipitación	0
13152	7	Sololá	701	Sololá	1	Sololá	3	Marzo	2023-03-21T00:00:00	2024-11-08T06:00:00	8	Radiación solar	0
13153	7	Sololá	701	Sololá	1	Sololá	3	Marzo	2023-03-21T00:00:00	2024-11-08T07:00:00	2	Temperatura media	13.6
13154	7	Sololá	701	Sololá	1	Sololá	3	Marzo	2023-03-21T00:00:00	2024-11-08T07:00:00	4	Temperatura máxima	13.7
13155	7	Sololá	701	Sololá	1	Sololá	3	Marzo	2023-03-21T00:00:00	2024-11-08T07:00:00	3	Temperatura mínima	13.4
13156	7	Sololá	701	Sololá	1	Sololá	3	Marzo	2023-03-21T00:00:00	2024-11-08T07:00:00	5	Humedad	81
13157	7	Sololá	701	Sololá	1	Sololá	3	Marzo	2023-03-21T00:00:00	2024-11-08T07:00:00	6	Velocidad del viento	0
13158	7	Sololá	701	Sololá	1	Sololá	3	Marzo	2023-03-21T00:00:00	2024-11-08T07:00:00	7	Dirección del viento	0
13159	7	Sololá	701	Sololá	1	Sololá	3	Marzo	2023-03-21T00:00:00	2024-11-08T07:00:00	1	Precipitación	0
13160	7	Sololá	701	Sololá	1	Sololá	3	Marzo	2023-03-21T00:00:00	2024-11-08T07:00:00	8	Radiación solar	7
13161	7	Sololá	701	Sololá	1	Sololá	3	Marzo	2023-03-21T00:00:00	2024-11-08T08:00:00	2	Temperatura media	13.8
13162	7	Sololá	701	Sololá	1	Sololá	3	Marzo	2023-03-21T00:00:00	2024-11-08T08:00:00	4	Temperatura máxima	13.9
13163	7	Sololá	701	Sololá	1	Sololá	3	Marzo	2023-03-21T00:00:00	2024-11-08T08:00:00	3	Temperatura mínima	13.6
13164	7	Sololá	701	Sololá	1	Sololá	3	Marzo	2023-03-21T00:00:00	2024-11-08T08:00:00	5	Humedad	83
13165	7	Sololá	701	Sololá	1	Sololá	3	Marzo	2023-03-21T00:00:00	2024-11-08T08:00:00	6	Velocidad del viento	0
13166	7	Sololá	701	Sololá	1	Sololá	3	Marzo	2023-03-21T00:00:00	2024-11-08T08:00:00	7	Dirección del viento	0
13167	7	Sololá	701	Sololá	1	Sololá	3	Marzo	2023-03-21T00:00:00	2024-11-08T08:00:00	1	Precipitación	0
13168	7	Sololá	701	Sololá	1	Sololá	3	Marzo	2023-03-21T00:00:00	2024-11-08T08:00:00	8	Radiación solar	121
13169	7	Sololá	701	Sololá	1	Sololá	3	Marzo	2023-03-21T00:00:00	2024-11-08T09:00:00	2	Temperatura media	16.1
13170	7	Sololá	701	Sololá	1	Sololá	3	Marzo	2023-03-21T00:00:00	2024-11-08T09:00:00	4	Temperatura máxima	16.1
13171	7	Sololá	701	Sololá	1	Sololá	3	Marzo	2023-03-21T00:00:00	2024-11-08T09:00:00	3	Temperatura mínima	13.8
13172	7	Sololá	701	Sololá	1	Sololá	3	Marzo	2023-03-21T00:00:00	2024-11-08T09:00:00	5	Humedad	77
13173	7	Sololá	701	Sololá	1	Sololá	3	Marzo	2023-03-21T00:00:00	2024-11-08T09:00:00	6	Velocidad del viento	0
13174	7	Sololá	701	Sololá	1	Sololá	3	Marzo	2023-03-21T00:00:00	2024-11-08T09:00:00	7	Dirección del viento	0
13175	7	Sololá	701	Sololá	1	Sololá	3	Marzo	2023-03-21T00:00:00	2024-11-08T09:00:00	1	Precipitación	0
13176	7	Sololá	701	Sololá	1	Sololá	3	Marzo	2023-03-21T00:00:00	2024-11-08T09:00:00	8	Radiación solar	569
13177	7	Sololá	701	Sololá	1	Sololá	3	Marzo	2023-03-21T00:00:00	2024-11-08T10:00:00	2	Temperatura media	18.7
13178	7	Sololá	701	Sololá	1	Sololá	3	Marzo	2023-03-21T00:00:00	2024-11-08T10:00:00	4	Temperatura máxima	18.7
13179	7	Sololá	701	Sololá	1	Sololá	3	Marzo	2023-03-21T00:00:00	2024-11-08T10:00:00	3	Temperatura mínima	16.1
13180	7	Sololá	701	Sololá	1	Sololá	3	Marzo	2023-03-21T00:00:00	2024-11-08T10:00:00	5	Humedad	69
13181	7	Sololá	701	Sololá	1	Sololá	3	Marzo	2023-03-21T00:00:00	2024-11-08T10:00:00	6	Velocidad del viento	0
13182	7	Sololá	701	Sololá	1	Sololá	3	Marzo	2023-03-21T00:00:00	2024-11-08T10:00:00	7	Dirección del viento	0
13183	7	Sololá	701	Sololá	1	Sololá	3	Marzo	2023-03-21T00:00:00	2024-11-08T10:00:00	1	Precipitación	0
13184	7	Sololá	701	Sololá	1	Sololá	3	Marzo	2023-03-21T00:00:00	2024-11-08T10:00:00	8	Radiación solar	776
13185	7	Sololá	701	Sololá	1	Sololá	3	Marzo	2023-03-21T00:00:00	2024-11-08T11:00:00	2	Temperatura media	20.9
13186	7	Sololá	701	Sololá	1	Sololá	3	Marzo	2023-03-21T00:00:00	2024-11-08T11:00:00	4	Temperatura máxima	20.9
13187	7	Sololá	701	Sololá	1	Sololá	3	Marzo	2023-03-21T00:00:00	2024-11-08T11:00:00	3	Temperatura mínima	18.6
13188	7	Sololá	701	Sololá	1	Sololá	3	Marzo	2023-03-21T00:00:00	2024-11-08T11:00:00	5	Humedad	62
13189	7	Sololá	701	Sololá	1	Sololá	3	Marzo	2023-03-21T00:00:00	2024-11-08T11:00:00	6	Velocidad del viento	0
13190	7	Sololá	701	Sololá	1	Sololá	3	Marzo	2023-03-21T00:00:00	2024-11-08T11:00:00	7	Dirección del viento	0
13191	7	Sololá	701	Sololá	1	Sololá	3	Marzo	2023-03-21T00:00:00	2024-11-08T11:00:00	1	Precipitación	0
13192	7	Sololá	701	Sololá	1	Sololá	3	Marzo	2023-03-21T00:00:00	2024-11-08T11:00:00	8	Radiación solar	923
13193	7	Sololá	701	Sololá	1	Sololá	3	Marzo	2023-03-21T00:00:00	2024-11-08T12:00:00	2	Temperatura media	21.2
13194	7	Sololá	701	Sololá	1	Sololá	3	Marzo	2023-03-21T00:00:00	2024-11-08T12:00:00	4	Temperatura máxima	21.3
13195	7	Sololá	701	Sololá	1	Sololá	3	Marzo	2023-03-21T00:00:00	2024-11-08T12:00:00	3	Temperatura mínima	20.6
13196	7	Sololá	701	Sololá	1	Sololá	3	Marzo	2023-03-21T00:00:00	2024-11-08T12:00:00	5	Humedad	59
13197	7	Sololá	701	Sololá	1	Sololá	3	Marzo	2023-03-21T00:00:00	2024-11-08T12:00:00	6	Velocidad del viento	1.6
13198	7	Sololá	701	Sololá	1	Sololá	3	Marzo	2023-03-21T00:00:00	2024-11-08T12:00:00	7	Dirección del viento	1.61
13199	7	Sololá	701	Sololá	1	Sololá	3	Marzo	2023-03-21T00:00:00	2024-11-08T12:00:00	1	Precipitación	0
13200	7	Sololá	701	Sololá	1	Sololá	3	Marzo	2023-03-21T00:00:00	2024-11-08T12:00:00	8	Radiación solar	998
13201	7	Sololá	701	Sololá	1	Sololá	3	Marzo	2023-03-21T00:00:00	2024-11-08T13:00:00	2	Temperatura media	22.9
13202	7	Sololá	701	Sololá	1	Sololá	3	Marzo	2023-03-21T00:00:00	2024-11-08T13:00:00	4	Temperatura máxima	22.9
13203	7	Sololá	701	Sololá	1	Sololá	3	Marzo	2023-03-21T00:00:00	2024-11-08T13:00:00	3	Temperatura mínima	21.2
13204	7	Sololá	701	Sololá	1	Sololá	3	Marzo	2023-03-21T00:00:00	2024-11-08T13:00:00	5	Humedad	57
13205	7	Sololá	701	Sololá	1	Sololá	3	Marzo	2023-03-21T00:00:00	2024-11-08T13:00:00	6	Velocidad del viento	0
13206	7	Sololá	701	Sololá	1	Sololá	3	Marzo	2023-03-21T00:00:00	2024-11-08T13:00:00	7	Dirección del viento	0
13207	7	Sololá	701	Sololá	1	Sololá	3	Marzo	2023-03-21T00:00:00	2024-11-08T13:00:00	1	Precipitación	0
13208	7	Sololá	701	Sololá	1	Sololá	3	Marzo	2023-03-21T00:00:00	2024-11-08T13:00:00	8	Radiación solar	474
13209	7	Sololá	701	Sololá	1	Sololá	3	Marzo	2023-03-21T00:00:00	2024-11-08T14:00:00	2	Temperatura media	22
13210	7	Sololá	701	Sololá	1	Sololá	3	Marzo	2023-03-21T00:00:00	2024-11-08T14:00:00	4	Temperatura máxima	23.5
13211	7	Sololá	701	Sololá	1	Sololá	3	Marzo	2023-03-21T00:00:00	2024-11-08T14:00:00	3	Temperatura mínima	20.8
13212	7	Sololá	701	Sololá	1	Sololá	3	Marzo	2023-03-21T00:00:00	2024-11-08T14:00:00	5	Humedad	53
13213	7	Sololá	701	Sololá	1	Sololá	3	Marzo	2023-03-21T00:00:00	2024-11-08T14:00:00	6	Velocidad del viento	0
13214	7	Sololá	701	Sololá	1	Sololá	3	Marzo	2023-03-21T00:00:00	2024-11-08T14:00:00	7	Dirección del viento	0
13215	7	Sololá	701	Sololá	1	Sololá	3	Marzo	2023-03-21T00:00:00	2024-11-08T14:00:00	1	Precipitación	0
13216	7	Sololá	701	Sololá	1	Sololá	3	Marzo	2023-03-21T00:00:00	2024-11-08T14:00:00	8	Radiación solar	200
13217	7	Sololá	701	Sololá	1	Sololá	3	Marzo	2023-03-21T00:00:00	2024-11-08T15:00:00	2	Temperatura media	20.4
13218	7	Sololá	701	Sololá	1	Sololá	3	Marzo	2023-03-21T00:00:00	2024-11-08T15:00:00	4	Temperatura máxima	22.1
13219	7	Sololá	701	Sololá	1	Sololá	3	Marzo	2023-03-21T00:00:00	2024-11-08T15:00:00	3	Temperatura mínima	20.4
13220	7	Sololá	701	Sololá	1	Sololá	3	Marzo	2023-03-21T00:00:00	2024-11-08T15:00:00	5	Humedad	57
13221	7	Sololá	701	Sololá	1	Sololá	3	Marzo	2023-03-21T00:00:00	2024-11-08T15:00:00	6	Velocidad del viento	0
13222	7	Sololá	701	Sololá	1	Sololá	3	Marzo	2023-03-21T00:00:00	2024-11-08T15:00:00	7	Dirección del viento	0
13223	7	Sololá	701	Sololá	1	Sololá	3	Marzo	2023-03-21T00:00:00	2024-11-08T15:00:00	1	Precipitación	0
13224	7	Sololá	701	Sololá	1	Sololá	3	Marzo	2023-03-21T00:00:00	2024-11-08T15:00:00	8	Radiación solar	183
13225	7	Sololá	701	Sololá	1	Sololá	3	Marzo	2023-03-21T00:00:00	2024-11-08T16:00:00	2	Temperatura media	20.4
13226	7	Sololá	701	Sololá	1	Sololá	3	Marzo	2023-03-21T00:00:00	2024-11-08T16:00:00	4	Temperatura máxima	20.8
13227	7	Sololá	701	Sololá	1	Sololá	3	Marzo	2023-03-21T00:00:00	2024-11-08T16:00:00	3	Temperatura mínima	20.2
13228	7	Sololá	701	Sololá	1	Sololá	3	Marzo	2023-03-21T00:00:00	2024-11-08T16:00:00	5	Humedad	59
13229	7	Sololá	701	Sololá	1	Sololá	3	Marzo	2023-03-21T00:00:00	2024-11-08T16:00:00	6	Velocidad del viento	0
13230	7	Sololá	701	Sololá	1	Sololá	3	Marzo	2023-03-21T00:00:00	2024-11-08T16:00:00	7	Dirección del viento	0
13231	7	Sololá	701	Sololá	1	Sololá	3	Marzo	2023-03-21T00:00:00	2024-11-08T16:00:00	1	Precipitación	0
13232	7	Sololá	701	Sololá	1	Sololá	3	Marzo	2023-03-21T00:00:00	2024-11-08T16:00:00	8	Radiación solar	160
13233	7	Sololá	701	Sololá	1	Sololá	3	Marzo	2023-03-21T00:00:00	2024-11-08T17:00:00	2	Temperatura media	20.2
13234	7	Sololá	701	Sololá	1	Sololá	3	Marzo	2023-03-21T00:00:00	2024-11-08T17:00:00	4	Temperatura máxima	20.7
13235	7	Sololá	701	Sololá	1	Sololá	3	Marzo	2023-03-21T00:00:00	2024-11-08T17:00:00	3	Temperatura mínima	20.2
13236	7	Sololá	701	Sololá	1	Sololá	3	Marzo	2023-03-21T00:00:00	2024-11-08T17:00:00	5	Humedad	62
13237	7	Sololá	701	Sololá	1	Sololá	3	Marzo	2023-03-21T00:00:00	2024-11-08T17:00:00	6	Velocidad del viento	0
13238	7	Sololá	701	Sololá	1	Sololá	3	Marzo	2023-03-21T00:00:00	2024-11-08T17:00:00	7	Dirección del viento	0
13239	7	Sololá	701	Sololá	1	Sololá	3	Marzo	2023-03-21T00:00:00	2024-11-08T17:00:00	1	Precipitación	0
13240	7	Sololá	701	Sololá	1	Sololá	3	Marzo	2023-03-21T00:00:00	2024-11-08T17:00:00	8	Radiación solar	90
13241	7	Sololá	701	Sololá	1	Sololá	3	Marzo	2023-03-21T00:00:00	2024-11-08T18:00:00	2	Temperatura media	20.9
13242	7	Sololá	701	Sololá	1	Sololá	3	Marzo	2023-03-21T00:00:00	2024-11-08T18:00:00	4	Temperatura máxima	21.3
13243	7	Sololá	701	Sololá	1	Sololá	3	Marzo	2023-03-21T00:00:00	2024-11-08T18:00:00	3	Temperatura mínima	20.3
13244	7	Sololá	701	Sololá	1	Sololá	3	Marzo	2023-03-21T00:00:00	2024-11-08T18:00:00	5	Humedad	60
13245	7	Sololá	701	Sololá	1	Sololá	3	Marzo	2023-03-21T00:00:00	2024-11-08T18:00:00	6	Velocidad del viento	0
13246	7	Sololá	701	Sololá	1	Sololá	3	Marzo	2023-03-21T00:00:00	2024-11-08T18:00:00	7	Dirección del viento	0
13247	7	Sololá	701	Sololá	1	Sololá	3	Marzo	2023-03-21T00:00:00	2024-11-08T18:00:00	1	Precipitación	0
13248	7	Sololá	701	Sololá	1	Sololá	3	Marzo	2023-03-21T00:00:00	2024-11-08T18:00:00	8	Radiación solar	47
13249	7	Sololá	701	Sololá	1	Sololá	3	Marzo	2023-03-21T00:00:00	2024-11-08T19:00:00	2	Temperatura media	18.7
13250	7	Sololá	701	Sololá	1	Sololá	3	Marzo	2023-03-21T00:00:00	2024-11-08T19:00:00	4	Temperatura máxima	20.9
13251	7	Sololá	701	Sololá	1	Sololá	3	Marzo	2023-03-21T00:00:00	2024-11-08T19:00:00	3	Temperatura mínima	18.7
13252	7	Sololá	701	Sololá	1	Sololá	3	Marzo	2023-03-21T00:00:00	2024-11-08T19:00:00	5	Humedad	68
13253	7	Sololá	701	Sololá	1	Sololá	3	Marzo	2023-03-21T00:00:00	2024-11-08T19:00:00	6	Velocidad del viento	0
13254	7	Sololá	701	Sololá	1	Sololá	3	Marzo	2023-03-21T00:00:00	2024-11-08T19:00:00	7	Dirección del viento	0
13255	7	Sololá	701	Sololá	1	Sololá	3	Marzo	2023-03-21T00:00:00	2024-11-08T19:00:00	1	Precipitación	0
13256	7	Sololá	701	Sololá	1	Sololá	3	Marzo	2023-03-21T00:00:00	2024-11-08T19:00:00	8	Radiación solar	0
13257	7	Sololá	701	Sololá	1	Sololá	3	Marzo	2023-03-21T00:00:00	2024-11-08T20:00:00	2	Temperatura media	16.4
13258	7	Sololá	701	Sololá	1	Sololá	3	Marzo	2023-03-21T00:00:00	2024-11-08T20:00:00	4	Temperatura máxima	18.7
13259	7	Sololá	701	Sololá	1	Sololá	3	Marzo	2023-03-21T00:00:00	2024-11-08T20:00:00	3	Temperatura mínima	16.4
13260	7	Sololá	701	Sololá	1	Sololá	3	Marzo	2023-03-21T00:00:00	2024-11-08T20:00:00	5	Humedad	77
13261	7	Sololá	701	Sololá	1	Sololá	3	Marzo	2023-03-21T00:00:00	2024-11-08T20:00:00	6	Velocidad del viento	0
13262	7	Sololá	701	Sololá	1	Sololá	3	Marzo	2023-03-21T00:00:00	2024-11-08T20:00:00	7	Dirección del viento	0
13263	7	Sololá	701	Sololá	1	Sololá	3	Marzo	2023-03-21T00:00:00	2024-11-08T20:00:00	1	Precipitación	0
13264	7	Sololá	701	Sololá	1	Sololá	3	Marzo	2023-03-21T00:00:00	2024-11-08T20:00:00	8	Radiación solar	0
13265	7	Sololá	701	Sololá	1	Sololá	3	Marzo	2023-03-21T00:00:00	2024-11-08T21:00:00	2	Temperatura media	15.8
13266	7	Sololá	701	Sololá	1	Sololá	3	Marzo	2023-03-21T00:00:00	2024-11-08T21:00:00	4	Temperatura máxima	16.4
13267	7	Sololá	701	Sololá	1	Sololá	3	Marzo	2023-03-21T00:00:00	2024-11-08T21:00:00	3	Temperatura mínima	15.8
13268	7	Sololá	701	Sololá	1	Sololá	3	Marzo	2023-03-21T00:00:00	2024-11-08T21:00:00	5	Humedad	82
13269	7	Sololá	701	Sololá	1	Sololá	3	Marzo	2023-03-21T00:00:00	2024-11-08T21:00:00	6	Velocidad del viento	0
13270	7	Sololá	701	Sololá	1	Sololá	3	Marzo	2023-03-21T00:00:00	2024-11-08T21:00:00	7	Dirección del viento	0
13271	7	Sololá	701	Sololá	1	Sololá	3	Marzo	2023-03-21T00:00:00	2024-11-08T21:00:00	1	Precipitación	0
13272	7	Sololá	701	Sololá	1	Sololá	3	Marzo	2023-03-21T00:00:00	2024-11-08T21:00:00	8	Radiación solar	0
13273	7	Sololá	701	Sololá	1	Sololá	3	Marzo	2023-03-21T00:00:00	2024-11-08T22:00:00	2	Temperatura media	15.6
13274	7	Sololá	701	Sololá	1	Sololá	3	Marzo	2023-03-21T00:00:00	2024-11-08T22:00:00	4	Temperatura máxima	15.8
13275	7	Sololá	701	Sololá	1	Sololá	3	Marzo	2023-03-21T00:00:00	2024-11-08T22:00:00	3	Temperatura mínima	15.5
13276	7	Sololá	701	Sololá	1	Sololá	3	Marzo	2023-03-21T00:00:00	2024-11-08T22:00:00	5	Humedad	80
13277	7	Sololá	701	Sololá	1	Sololá	3	Marzo	2023-03-21T00:00:00	2024-11-08T22:00:00	6	Velocidad del viento	0
13278	7	Sololá	701	Sololá	1	Sololá	3	Marzo	2023-03-21T00:00:00	2024-11-08T22:00:00	7	Dirección del viento	0
13279	7	Sololá	701	Sololá	1	Sololá	3	Marzo	2023-03-21T00:00:00	2024-11-08T22:00:00	1	Precipitación	0
13280	7	Sololá	701	Sololá	1	Sololá	3	Marzo	2023-03-21T00:00:00	2024-11-08T22:00:00	8	Radiación solar	0
13281	7	Sololá	701	Sololá	1	Sololá	3	Marzo	2023-03-21T00:00:00	2024-11-08T23:00:00	2	Temperatura media	15.3
13282	7	Sololá	701	Sololá	1	Sololá	3	Marzo	2023-03-21T00:00:00	2024-11-08T23:00:00	4	Temperatura máxima	15.6
13283	7	Sololá	701	Sololá	1	Sololá	3	Marzo	2023-03-21T00:00:00	2024-11-08T23:00:00	3	Temperatura mínima	15.3
13284	7	Sololá	701	Sololá	1	Sololá	3	Marzo	2023-03-21T00:00:00	2024-11-08T23:00:00	5	Humedad	79
13285	7	Sololá	701	Sololá	1	Sololá	3	Marzo	2023-03-21T00:00:00	2024-11-08T23:00:00	6	Velocidad del viento	0
13286	7	Sololá	701	Sololá	1	Sololá	3	Marzo	2023-03-21T00:00:00	2024-11-08T23:00:00	7	Dirección del viento	0
13287	7	Sololá	701	Sololá	1	Sololá	3	Marzo	2023-03-21T00:00:00	2024-11-08T23:00:00	1	Precipitación	0
13288	7	Sololá	701	Sololá	1	Sololá	3	Marzo	2023-03-21T00:00:00	2024-11-08T23:00:00	8	Radiación solar	0
13289	7	Sololá	701	Sololá	1	Sololá	3	Marzo	2023-03-22T00:00:00	2024-11-08T00:00:00	2	Temperatura media	14.9
13290	7	Sololá	701	Sololá	1	Sololá	3	Marzo	2023-03-22T00:00:00	2024-11-08T00:00:00	4	Temperatura máxima	15.3
13291	7	Sololá	701	Sololá	1	Sololá	3	Marzo	2023-03-22T00:00:00	2024-11-08T00:00:00	3	Temperatura mínima	14.8
13292	7	Sololá	701	Sololá	1	Sololá	3	Marzo	2023-03-22T00:00:00	2024-11-08T00:00:00	5	Humedad	81
13293	7	Sololá	701	Sololá	1	Sololá	3	Marzo	2023-03-22T00:00:00	2024-11-08T00:00:00	6	Velocidad del viento	0
13294	7	Sololá	701	Sololá	1	Sololá	3	Marzo	2023-03-22T00:00:00	2024-11-08T00:00:00	7	Dirección del viento	0
13295	7	Sololá	701	Sololá	1	Sololá	3	Marzo	2023-03-22T00:00:00	2024-11-08T00:00:00	1	Precipitación	0
13296	7	Sololá	701	Sololá	1	Sololá	3	Marzo	2023-03-22T00:00:00	2024-11-08T00:00:00	8	Radiación solar	0
13297	7	Sololá	701	Sololá	1	Sololá	3	Marzo	2023-03-22T00:00:00	2024-11-08T01:00:00	2	Temperatura media	14.7
13298	7	Sololá	701	Sololá	1	Sololá	3	Marzo	2023-03-22T00:00:00	2024-11-08T01:00:00	4	Temperatura máxima	14.9
13299	7	Sololá	701	Sololá	1	Sololá	3	Marzo	2023-03-22T00:00:00	2024-11-08T01:00:00	3	Temperatura mínima	14.4
13300	7	Sololá	701	Sololá	1	Sololá	3	Marzo	2023-03-22T00:00:00	2024-11-08T01:00:00	5	Humedad	81
13301	7	Sololá	701	Sololá	1	Sololá	3	Marzo	2023-03-22T00:00:00	2024-11-08T01:00:00	6	Velocidad del viento	0
13302	7	Sololá	701	Sololá	1	Sololá	3	Marzo	2023-03-22T00:00:00	2024-11-08T01:00:00	7	Dirección del viento	0
13303	7	Sololá	701	Sololá	1	Sololá	3	Marzo	2023-03-22T00:00:00	2024-11-08T01:00:00	1	Precipitación	0
13304	7	Sololá	701	Sololá	1	Sololá	3	Marzo	2023-03-22T00:00:00	2024-11-08T01:00:00	8	Radiación solar	0
13305	7	Sololá	701	Sololá	1	Sololá	3	Marzo	2023-03-22T00:00:00	2024-11-08T02:00:00	2	Temperatura media	14.7
13306	7	Sololá	701	Sololá	1	Sololá	3	Marzo	2023-03-22T00:00:00	2024-11-08T02:00:00	4	Temperatura máxima	14.7
13307	7	Sololá	701	Sololá	1	Sololá	3	Marzo	2023-03-22T00:00:00	2024-11-08T02:00:00	3	Temperatura mínima	14.5
13308	7	Sololá	701	Sololá	1	Sololá	3	Marzo	2023-03-22T00:00:00	2024-11-08T02:00:00	5	Humedad	81
13309	7	Sololá	701	Sololá	1	Sololá	3	Marzo	2023-03-22T00:00:00	2024-11-08T02:00:00	6	Velocidad del viento	0
13310	7	Sololá	701	Sololá	1	Sololá	3	Marzo	2023-03-22T00:00:00	2024-11-08T02:00:00	7	Dirección del viento	0
13311	7	Sololá	701	Sololá	1	Sololá	3	Marzo	2023-03-22T00:00:00	2024-11-08T02:00:00	1	Precipitación	0
13312	7	Sololá	701	Sololá	1	Sololá	3	Marzo	2023-03-22T00:00:00	2024-11-08T02:00:00	8	Radiación solar	0
13313	7	Sololá	701	Sololá	1	Sololá	3	Marzo	2023-03-22T00:00:00	2024-11-08T03:00:00	2	Temperatura media	14.6
13314	7	Sololá	701	Sololá	1	Sololá	3	Marzo	2023-03-22T00:00:00	2024-11-08T03:00:00	4	Temperatura máxima	14.7
13315	7	Sololá	701	Sololá	1	Sololá	3	Marzo	2023-03-22T00:00:00	2024-11-08T03:00:00	3	Temperatura mínima	14.6
13316	7	Sololá	701	Sololá	1	Sololá	3	Marzo	2023-03-22T00:00:00	2024-11-08T03:00:00	5	Humedad	81
13317	7	Sololá	701	Sololá	1	Sololá	3	Marzo	2023-03-22T00:00:00	2024-11-08T03:00:00	6	Velocidad del viento	0
13318	7	Sololá	701	Sololá	1	Sololá	3	Marzo	2023-03-22T00:00:00	2024-11-08T03:00:00	7	Dirección del viento	0
13319	7	Sololá	701	Sololá	1	Sololá	3	Marzo	2023-03-22T00:00:00	2024-11-08T03:00:00	1	Precipitación	0
13320	7	Sololá	701	Sololá	1	Sololá	3	Marzo	2023-03-22T00:00:00	2024-11-08T03:00:00	8	Radiación solar	0
13321	7	Sololá	701	Sololá	1	Sololá	3	Marzo	2023-03-22T00:00:00	2024-11-08T04:00:00	2	Temperatura media	14.2
13322	7	Sololá	701	Sololá	1	Sololá	3	Marzo	2023-03-22T00:00:00	2024-11-08T04:00:00	4	Temperatura máxima	14.6
13323	7	Sololá	701	Sololá	1	Sololá	3	Marzo	2023-03-22T00:00:00	2024-11-08T04:00:00	3	Temperatura mínima	14.2
13324	7	Sololá	701	Sololá	1	Sololá	3	Marzo	2023-03-22T00:00:00	2024-11-08T04:00:00	5	Humedad	86
13325	7	Sololá	701	Sololá	1	Sololá	3	Marzo	2023-03-22T00:00:00	2024-11-08T04:00:00	6	Velocidad del viento	0
13326	7	Sololá	701	Sololá	1	Sololá	3	Marzo	2023-03-22T00:00:00	2024-11-08T04:00:00	7	Dirección del viento	0
13327	7	Sololá	701	Sololá	1	Sololá	3	Marzo	2023-03-22T00:00:00	2024-11-08T04:00:00	1	Precipitación	0
13328	7	Sololá	701	Sololá	1	Sololá	3	Marzo	2023-03-22T00:00:00	2024-11-08T04:00:00	8	Radiación solar	0
13329	7	Sololá	701	Sololá	1	Sololá	3	Marzo	2023-03-22T00:00:00	2024-11-08T05:00:00	2	Temperatura media	14
13330	7	Sololá	701	Sololá	1	Sololá	3	Marzo	2023-03-22T00:00:00	2024-11-08T05:00:00	4	Temperatura máxima	14.2
13331	7	Sololá	701	Sololá	1	Sololá	3	Marzo	2023-03-22T00:00:00	2024-11-08T05:00:00	3	Temperatura mínima	13.9
13332	7	Sololá	701	Sololá	1	Sololá	3	Marzo	2023-03-22T00:00:00	2024-11-08T05:00:00	5	Humedad	88
13333	7	Sololá	701	Sololá	1	Sololá	3	Marzo	2023-03-22T00:00:00	2024-11-08T05:00:00	6	Velocidad del viento	0
13334	7	Sololá	701	Sololá	1	Sololá	3	Marzo	2023-03-22T00:00:00	2024-11-08T05:00:00	7	Dirección del viento	0
13335	7	Sololá	701	Sololá	1	Sololá	3	Marzo	2023-03-22T00:00:00	2024-11-08T05:00:00	1	Precipitación	0
13336	7	Sololá	701	Sololá	1	Sololá	3	Marzo	2023-03-22T00:00:00	2024-11-08T05:00:00	8	Radiación solar	0
13337	7	Sololá	701	Sololá	1	Sololá	3	Marzo	2023-03-22T00:00:00	2024-11-08T06:00:00	2	Temperatura media	14.2
13338	7	Sololá	701	Sololá	1	Sololá	3	Marzo	2023-03-22T00:00:00	2024-11-08T06:00:00	4	Temperatura máxima	14.2
13339	7	Sololá	701	Sololá	1	Sololá	3	Marzo	2023-03-22T00:00:00	2024-11-08T06:00:00	3	Temperatura mínima	13.9
13340	7	Sololá	701	Sololá	1	Sololá	3	Marzo	2023-03-22T00:00:00	2024-11-08T06:00:00	5	Humedad	85
13341	7	Sololá	701	Sololá	1	Sololá	3	Marzo	2023-03-22T00:00:00	2024-11-08T06:00:00	6	Velocidad del viento	0
13342	7	Sololá	701	Sololá	1	Sololá	3	Marzo	2023-03-22T00:00:00	2024-11-08T06:00:00	7	Dirección del viento	0
13343	7	Sololá	701	Sololá	1	Sololá	3	Marzo	2023-03-22T00:00:00	2024-11-08T06:00:00	1	Precipitación	0
13344	7	Sololá	701	Sololá	1	Sololá	3	Marzo	2023-03-22T00:00:00	2024-11-08T06:00:00	8	Radiación solar	0
13345	7	Sololá	701	Sololá	1	Sololá	3	Marzo	2023-03-22T00:00:00	2024-11-08T07:00:00	2	Temperatura media	14
13346	7	Sololá	701	Sololá	1	Sololá	3	Marzo	2023-03-22T00:00:00	2024-11-08T07:00:00	4	Temperatura máxima	14.2
13347	7	Sololá	701	Sololá	1	Sololá	3	Marzo	2023-03-22T00:00:00	2024-11-08T07:00:00	3	Temperatura mínima	13.9
13348	7	Sololá	701	Sololá	1	Sololá	3	Marzo	2023-03-22T00:00:00	2024-11-08T07:00:00	5	Humedad	86
13349	7	Sololá	701	Sololá	1	Sololá	3	Marzo	2023-03-22T00:00:00	2024-11-08T07:00:00	6	Velocidad del viento	0
13350	7	Sololá	701	Sololá	1	Sololá	3	Marzo	2023-03-22T00:00:00	2024-11-08T07:00:00	7	Dirección del viento	0
13351	7	Sololá	701	Sololá	1	Sololá	3	Marzo	2023-03-22T00:00:00	2024-11-08T07:00:00	1	Precipitación	0
13352	7	Sololá	701	Sololá	1	Sololá	3	Marzo	2023-03-22T00:00:00	2024-11-08T07:00:00	8	Radiación solar	13
13353	7	Sololá	701	Sololá	1	Sololá	3	Marzo	2023-03-22T00:00:00	2024-11-08T08:00:00	2	Temperatura media	13.9
13354	7	Sololá	701	Sololá	1	Sololá	3	Marzo	2023-03-22T00:00:00	2024-11-08T08:00:00	4	Temperatura máxima	14
13355	7	Sololá	701	Sololá	1	Sololá	3	Marzo	2023-03-22T00:00:00	2024-11-08T08:00:00	3	Temperatura mínima	13.9
13356	7	Sololá	701	Sololá	1	Sololá	3	Marzo	2023-03-22T00:00:00	2024-11-08T08:00:00	5	Humedad	89
13357	7	Sololá	701	Sololá	1	Sololá	3	Marzo	2023-03-22T00:00:00	2024-11-08T08:00:00	6	Velocidad del viento	0
13358	7	Sololá	701	Sololá	1	Sololá	3	Marzo	2023-03-22T00:00:00	2024-11-08T08:00:00	7	Dirección del viento	0
13359	7	Sololá	701	Sololá	1	Sololá	3	Marzo	2023-03-22T00:00:00	2024-11-08T08:00:00	1	Precipitación	0
13360	7	Sololá	701	Sololá	1	Sololá	3	Marzo	2023-03-22T00:00:00	2024-11-08T08:00:00	8	Radiación solar	123
13361	7	Sololá	701	Sololá	1	Sololá	3	Marzo	2023-03-22T00:00:00	2024-11-08T09:00:00	2	Temperatura media	15.5
13362	7	Sololá	701	Sololá	1	Sololá	3	Marzo	2023-03-22T00:00:00	2024-11-08T09:00:00	4	Temperatura máxima	15.6
13363	7	Sololá	701	Sololá	1	Sololá	3	Marzo	2023-03-22T00:00:00	2024-11-08T09:00:00	3	Temperatura mínima	13.9
13364	7	Sololá	701	Sololá	1	Sololá	3	Marzo	2023-03-22T00:00:00	2024-11-08T09:00:00	5	Humedad	83
13365	7	Sololá	701	Sololá	1	Sololá	3	Marzo	2023-03-22T00:00:00	2024-11-08T09:00:00	6	Velocidad del viento	0
13366	7	Sololá	701	Sololá	1	Sololá	3	Marzo	2023-03-22T00:00:00	2024-11-08T09:00:00	7	Dirección del viento	0
13367	7	Sololá	701	Sololá	1	Sololá	3	Marzo	2023-03-22T00:00:00	2024-11-08T09:00:00	1	Precipitación	0
13368	7	Sololá	701	Sololá	1	Sololá	3	Marzo	2023-03-22T00:00:00	2024-11-08T09:00:00	8	Radiación solar	227
13369	7	Sololá	701	Sololá	1	Sololá	3	Marzo	2023-03-22T00:00:00	2024-11-08T10:00:00	2	Temperatura media	18.1
13370	7	Sololá	701	Sololá	1	Sololá	3	Marzo	2023-03-22T00:00:00	2024-11-08T10:00:00	4	Temperatura máxima	18.1
13371	7	Sololá	701	Sololá	1	Sololá	3	Marzo	2023-03-22T00:00:00	2024-11-08T10:00:00	3	Temperatura mínima	15.5
13372	7	Sololá	701	Sololá	1	Sololá	3	Marzo	2023-03-22T00:00:00	2024-11-08T10:00:00	5	Humedad	74
13373	7	Sololá	701	Sololá	1	Sololá	3	Marzo	2023-03-22T00:00:00	2024-11-08T10:00:00	6	Velocidad del viento	0
13374	7	Sololá	701	Sololá	1	Sololá	3	Marzo	2023-03-22T00:00:00	2024-11-08T10:00:00	7	Dirección del viento	0
13375	7	Sololá	701	Sololá	1	Sololá	3	Marzo	2023-03-22T00:00:00	2024-11-08T10:00:00	1	Precipitación	0
13376	7	Sololá	701	Sololá	1	Sololá	3	Marzo	2023-03-22T00:00:00	2024-11-08T10:00:00	8	Radiación solar	507
13377	7	Sololá	701	Sololá	1	Sololá	3	Marzo	2023-03-22T00:00:00	2024-11-08T11:00:00	2	Temperatura media	19.2
13378	7	Sololá	701	Sololá	1	Sololá	3	Marzo	2023-03-22T00:00:00	2024-11-08T11:00:00	4	Temperatura máxima	20.3
13379	7	Sololá	701	Sololá	1	Sololá	3	Marzo	2023-03-22T00:00:00	2024-11-08T11:00:00	3	Temperatura mínima	18.1
13380	7	Sololá	701	Sololá	1	Sololá	3	Marzo	2023-03-22T00:00:00	2024-11-08T11:00:00	5	Humedad	70
13381	7	Sololá	701	Sololá	1	Sololá	3	Marzo	2023-03-22T00:00:00	2024-11-08T11:00:00	6	Velocidad del viento	0
13382	7	Sololá	701	Sololá	1	Sololá	3	Marzo	2023-03-22T00:00:00	2024-11-08T11:00:00	7	Dirección del viento	0
13383	7	Sololá	701	Sololá	1	Sololá	3	Marzo	2023-03-22T00:00:00	2024-11-08T11:00:00	1	Precipitación	0
13384	7	Sololá	701	Sololá	1	Sololá	3	Marzo	2023-03-22T00:00:00	2024-11-08T11:00:00	8	Radiación solar	304
13385	7	Sololá	701	Sololá	1	Sololá	3	Marzo	2023-03-22T00:00:00	2024-11-08T12:00:00	2	Temperatura media	19.9
13386	7	Sololá	701	Sololá	1	Sololá	3	Marzo	2023-03-22T00:00:00	2024-11-08T12:00:00	4	Temperatura máxima	20.1
13387	7	Sololá	701	Sololá	1	Sololá	3	Marzo	2023-03-22T00:00:00	2024-11-08T12:00:00	3	Temperatura mínima	19.1
13388	7	Sololá	701	Sololá	1	Sololá	3	Marzo	2023-03-22T00:00:00	2024-11-08T12:00:00	5	Humedad	66
13389	7	Sololá	701	Sololá	1	Sololá	3	Marzo	2023-03-22T00:00:00	2024-11-08T12:00:00	6	Velocidad del viento	0
13390	7	Sololá	701	Sololá	1	Sololá	3	Marzo	2023-03-22T00:00:00	2024-11-08T12:00:00	7	Dirección del viento	0
13391	7	Sololá	701	Sololá	1	Sololá	3	Marzo	2023-03-22T00:00:00	2024-11-08T12:00:00	1	Precipitación	0
13392	7	Sololá	701	Sololá	1	Sololá	3	Marzo	2023-03-22T00:00:00	2024-11-08T12:00:00	8	Radiación solar	800
13393	7	Sololá	701	Sololá	1	Sololá	3	Marzo	2023-03-22T00:00:00	2024-11-08T13:00:00	2	Temperatura media	21.6
13394	7	Sololá	701	Sololá	1	Sololá	3	Marzo	2023-03-22T00:00:00	2024-11-08T13:00:00	4	Temperatura máxima	21.7
13395	7	Sololá	701	Sololá	1	Sololá	3	Marzo	2023-03-22T00:00:00	2024-11-08T13:00:00	3	Temperatura mínima	19.8
13396	7	Sololá	701	Sololá	1	Sololá	3	Marzo	2023-03-22T00:00:00	2024-11-08T13:00:00	5	Humedad	62
13397	7	Sololá	701	Sololá	1	Sololá	3	Marzo	2023-03-22T00:00:00	2024-11-08T13:00:00	6	Velocidad del viento	0
13398	7	Sololá	701	Sololá	1	Sololá	3	Marzo	2023-03-22T00:00:00	2024-11-08T13:00:00	7	Dirección del viento	0
13399	7	Sololá	701	Sololá	1	Sololá	3	Marzo	2023-03-22T00:00:00	2024-11-08T13:00:00	1	Precipitación	0
13400	7	Sololá	701	Sololá	1	Sololá	3	Marzo	2023-03-22T00:00:00	2024-11-08T13:00:00	8	Radiación solar	707
13401	7	Sololá	701	Sololá	1	Sololá	3	Marzo	2023-03-22T00:00:00	2024-11-08T14:00:00	2	Temperatura media	22.7
13402	7	Sololá	701	Sololá	1	Sololá	3	Marzo	2023-03-22T00:00:00	2024-11-08T14:00:00	4	Temperatura máxima	22.9
13403	7	Sololá	701	Sololá	1	Sololá	3	Marzo	2023-03-22T00:00:00	2024-11-08T14:00:00	3	Temperatura mínima	20.7
13404	7	Sololá	701	Sololá	1	Sololá	3	Marzo	2023-03-22T00:00:00	2024-11-08T14:00:00	5	Humedad	57
13405	7	Sololá	701	Sololá	1	Sololá	3	Marzo	2023-03-22T00:00:00	2024-11-08T14:00:00	6	Velocidad del viento	0
13406	7	Sololá	701	Sololá	1	Sololá	3	Marzo	2023-03-22T00:00:00	2024-11-08T14:00:00	7	Dirección del viento	0
13407	7	Sololá	701	Sololá	1	Sololá	3	Marzo	2023-03-22T00:00:00	2024-11-08T14:00:00	1	Precipitación	0
13408	7	Sololá	701	Sololá	1	Sololá	3	Marzo	2023-03-22T00:00:00	2024-11-08T14:00:00	8	Radiación solar	455
13409	7	Sololá	701	Sololá	1	Sololá	3	Marzo	2023-03-22T00:00:00	2024-11-08T15:00:00	2	Temperatura media	23.3
13410	7	Sololá	701	Sololá	1	Sololá	3	Marzo	2023-03-22T00:00:00	2024-11-08T15:00:00	4	Temperatura máxima	23.5
13411	7	Sololá	701	Sololá	1	Sololá	3	Marzo	2023-03-22T00:00:00	2024-11-08T15:00:00	3	Temperatura mínima	22.7
13412	7	Sololá	701	Sololá	1	Sololá	3	Marzo	2023-03-22T00:00:00	2024-11-08T15:00:00	5	Humedad	54
13413	7	Sololá	701	Sololá	1	Sololá	3	Marzo	2023-03-22T00:00:00	2024-11-08T15:00:00	6	Velocidad del viento	0
13414	7	Sololá	701	Sololá	1	Sololá	3	Marzo	2023-03-22T00:00:00	2024-11-08T15:00:00	7	Dirección del viento	0
13415	7	Sololá	701	Sololá	1	Sololá	3	Marzo	2023-03-22T00:00:00	2024-11-08T15:00:00	1	Precipitación	0
13416	7	Sololá	701	Sololá	1	Sololá	3	Marzo	2023-03-22T00:00:00	2024-11-08T15:00:00	8	Radiación solar	99
13417	7	Sololá	701	Sololá	1	Sololá	3	Marzo	2023-03-22T00:00:00	2024-11-08T16:00:00	2	Temperatura media	23.7
13418	7	Sololá	701	Sololá	1	Sololá	3	Marzo	2023-03-22T00:00:00	2024-11-08T16:00:00	4	Temperatura máxima	23.7
13419	7	Sololá	701	Sololá	1	Sololá	3	Marzo	2023-03-22T00:00:00	2024-11-08T16:00:00	3	Temperatura mínima	23.2
13420	7	Sololá	701	Sololá	1	Sololá	3	Marzo	2023-03-22T00:00:00	2024-11-08T16:00:00	5	Humedad	48
13421	7	Sololá	701	Sololá	1	Sololá	3	Marzo	2023-03-22T00:00:00	2024-11-08T16:00:00	6	Velocidad del viento	1.6
13422	7	Sololá	701	Sololá	1	Sololá	3	Marzo	2023-03-22T00:00:00	2024-11-08T16:00:00	7	Dirección del viento	1.61
13423	7	Sololá	701	Sololá	1	Sololá	3	Marzo	2023-03-22T00:00:00	2024-11-08T16:00:00	1	Precipitación	0
13424	7	Sololá	701	Sololá	1	Sololá	3	Marzo	2023-03-22T00:00:00	2024-11-08T16:00:00	8	Radiación solar	87
13425	7	Sololá	701	Sololá	1	Sololá	3	Marzo	2023-03-22T00:00:00	2024-11-08T17:00:00	2	Temperatura media	22.3
13426	7	Sololá	701	Sololá	1	Sololá	3	Marzo	2023-03-22T00:00:00	2024-11-08T17:00:00	4	Temperatura máxima	23.7
13427	7	Sololá	701	Sololá	1	Sololá	3	Marzo	2023-03-22T00:00:00	2024-11-08T17:00:00	3	Temperatura mínima	22.3
13428	7	Sololá	701	Sololá	1	Sololá	3	Marzo	2023-03-22T00:00:00	2024-11-08T17:00:00	5	Humedad	49
13429	7	Sololá	701	Sololá	1	Sololá	3	Marzo	2023-03-22T00:00:00	2024-11-08T17:00:00	6	Velocidad del viento	1.6
13430	7	Sololá	701	Sololá	1	Sololá	3	Marzo	2023-03-22T00:00:00	2024-11-08T17:00:00	7	Dirección del viento	1.61
13431	7	Sololá	701	Sololá	1	Sololá	3	Marzo	2023-03-22T00:00:00	2024-11-08T17:00:00	1	Precipitación	0
13432	7	Sololá	701	Sololá	1	Sololá	3	Marzo	2023-03-22T00:00:00	2024-11-08T17:00:00	8	Radiación solar	83
13433	7	Sololá	701	Sololá	1	Sololá	3	Marzo	2023-03-22T00:00:00	2024-11-08T18:00:00	2	Temperatura media	22.1
13434	7	Sololá	701	Sololá	1	Sololá	3	Marzo	2023-03-22T00:00:00	2024-11-08T18:00:00	4	Temperatura máxima	22.4
13435	7	Sololá	701	Sololá	1	Sololá	3	Marzo	2023-03-22T00:00:00	2024-11-08T18:00:00	3	Temperatura mínima	22
13436	7	Sololá	701	Sololá	1	Sololá	3	Marzo	2023-03-22T00:00:00	2024-11-08T18:00:00	5	Humedad	51
13437	7	Sololá	701	Sololá	1	Sololá	3	Marzo	2023-03-22T00:00:00	2024-11-08T18:00:00	6	Velocidad del viento	0
13438	7	Sololá	701	Sololá	1	Sololá	3	Marzo	2023-03-22T00:00:00	2024-11-08T18:00:00	7	Dirección del viento	0
13439	7	Sololá	701	Sololá	1	Sololá	3	Marzo	2023-03-22T00:00:00	2024-11-08T18:00:00	1	Precipitación	0
13440	7	Sololá	701	Sololá	1	Sololá	3	Marzo	2023-03-22T00:00:00	2024-11-08T18:00:00	8	Radiación solar	34
13441	7	Sololá	701	Sololá	1	Sololá	3	Marzo	2023-03-22T00:00:00	2024-11-08T19:00:00	2	Temperatura media	19.5
13442	7	Sololá	701	Sololá	1	Sololá	3	Marzo	2023-03-22T00:00:00	2024-11-08T19:00:00	4	Temperatura máxima	22.3
13443	7	Sololá	701	Sololá	1	Sololá	3	Marzo	2023-03-22T00:00:00	2024-11-08T19:00:00	3	Temperatura mínima	19.5
13444	7	Sololá	701	Sololá	1	Sololá	3	Marzo	2023-03-22T00:00:00	2024-11-08T19:00:00	5	Humedad	62
13445	7	Sololá	701	Sololá	1	Sololá	3	Marzo	2023-03-22T00:00:00	2024-11-08T19:00:00	6	Velocidad del viento	0
13446	7	Sololá	701	Sololá	1	Sololá	3	Marzo	2023-03-22T00:00:00	2024-11-08T19:00:00	7	Dirección del viento	0
13447	7	Sololá	701	Sololá	1	Sololá	3	Marzo	2023-03-22T00:00:00	2024-11-08T19:00:00	1	Precipitación	0
13448	7	Sololá	701	Sololá	1	Sololá	3	Marzo	2023-03-22T00:00:00	2024-11-08T19:00:00	8	Radiación solar	0
13449	7	Sololá	701	Sololá	1	Sololá	3	Marzo	2023-03-22T00:00:00	2024-11-08T20:00:00	2	Temperatura media	16.8
13450	7	Sololá	701	Sololá	1	Sololá	3	Marzo	2023-03-22T00:00:00	2024-11-08T20:00:00	4	Temperatura máxima	19.5
13451	7	Sololá	701	Sololá	1	Sololá	3	Marzo	2023-03-22T00:00:00	2024-11-08T20:00:00	3	Temperatura mínima	16.8
13452	7	Sololá	701	Sololá	1	Sololá	3	Marzo	2023-03-22T00:00:00	2024-11-08T20:00:00	5	Humedad	72
13453	7	Sololá	701	Sololá	1	Sololá	3	Marzo	2023-03-22T00:00:00	2024-11-08T20:00:00	6	Velocidad del viento	0
13454	7	Sololá	701	Sololá	1	Sololá	3	Marzo	2023-03-22T00:00:00	2024-11-08T20:00:00	7	Dirección del viento	0
13455	7	Sololá	701	Sololá	1	Sololá	3	Marzo	2023-03-22T00:00:00	2024-11-08T20:00:00	1	Precipitación	0
13456	7	Sololá	701	Sololá	1	Sololá	3	Marzo	2023-03-22T00:00:00	2024-11-08T20:00:00	8	Radiación solar	0
13457	7	Sololá	701	Sololá	1	Sololá	3	Marzo	2023-03-22T00:00:00	2024-11-08T21:00:00	2	Temperatura media	15.4
13458	7	Sololá	701	Sololá	1	Sololá	3	Marzo	2023-03-22T00:00:00	2024-11-08T21:00:00	4	Temperatura máxima	16.8
13459	7	Sololá	701	Sololá	1	Sololá	3	Marzo	2023-03-22T00:00:00	2024-11-08T21:00:00	3	Temperatura mínima	15.4
13460	7	Sololá	701	Sololá	1	Sololá	3	Marzo	2023-03-22T00:00:00	2024-11-08T21:00:00	5	Humedad	77
13461	7	Sololá	701	Sololá	1	Sololá	3	Marzo	2023-03-22T00:00:00	2024-11-08T21:00:00	6	Velocidad del viento	0
13462	7	Sololá	701	Sololá	1	Sololá	3	Marzo	2023-03-22T00:00:00	2024-11-08T21:00:00	7	Dirección del viento	0
13463	7	Sololá	701	Sololá	1	Sololá	3	Marzo	2023-03-22T00:00:00	2024-11-08T21:00:00	1	Precipitación	0
13464	7	Sololá	701	Sololá	1	Sololá	3	Marzo	2023-03-22T00:00:00	2024-11-08T21:00:00	8	Radiación solar	0
13465	7	Sololá	701	Sololá	1	Sololá	3	Marzo	2023-03-22T00:00:00	2024-11-08T22:00:00	2	Temperatura media	14.9
13466	7	Sololá	701	Sololá	1	Sololá	3	Marzo	2023-03-22T00:00:00	2024-11-08T22:00:00	4	Temperatura máxima	15.4
13467	7	Sololá	701	Sololá	1	Sololá	3	Marzo	2023-03-22T00:00:00	2024-11-08T22:00:00	3	Temperatura mínima	14.9
13468	7	Sololá	701	Sololá	1	Sololá	3	Marzo	2023-03-22T00:00:00	2024-11-08T22:00:00	5	Humedad	80
13469	7	Sololá	701	Sololá	1	Sololá	3	Marzo	2023-03-22T00:00:00	2024-11-08T22:00:00	6	Velocidad del viento	0
13470	7	Sololá	701	Sololá	1	Sololá	3	Marzo	2023-03-22T00:00:00	2024-11-08T22:00:00	7	Dirección del viento	0
13471	7	Sololá	701	Sololá	1	Sololá	3	Marzo	2023-03-22T00:00:00	2024-11-08T22:00:00	1	Precipitación	0
13472	7	Sololá	701	Sololá	1	Sololá	3	Marzo	2023-03-22T00:00:00	2024-11-08T22:00:00	8	Radiación solar	0
13473	7	Sololá	701	Sololá	1	Sololá	3	Marzo	2023-03-22T00:00:00	2024-11-08T23:00:00	2	Temperatura media	14.1
13474	7	Sololá	701	Sololá	1	Sololá	3	Marzo	2023-03-22T00:00:00	2024-11-08T23:00:00	4	Temperatura máxima	14.9
13475	7	Sololá	701	Sololá	1	Sololá	3	Marzo	2023-03-22T00:00:00	2024-11-08T23:00:00	3	Temperatura mínima	14.1
13476	7	Sololá	701	Sololá	1	Sololá	3	Marzo	2023-03-22T00:00:00	2024-11-08T23:00:00	5	Humedad	81
13477	7	Sololá	701	Sololá	1	Sololá	3	Marzo	2023-03-22T00:00:00	2024-11-08T23:00:00	6	Velocidad del viento	0
13478	7	Sololá	701	Sololá	1	Sololá	3	Marzo	2023-03-22T00:00:00	2024-11-08T23:00:00	7	Dirección del viento	0
13479	7	Sololá	701	Sololá	1	Sololá	3	Marzo	2023-03-22T00:00:00	2024-11-08T23:00:00	1	Precipitación	0
13480	7	Sololá	701	Sololá	1	Sololá	3	Marzo	2023-03-22T00:00:00	2024-11-08T23:00:00	8	Radiación solar	0
13481	7	Sololá	701	Sololá	1	Sololá	3	Marzo	2023-03-23T00:00:00	2024-11-08T00:00:00	2	Temperatura media	14.1
13482	7	Sololá	701	Sololá	1	Sololá	3	Marzo	2023-03-23T00:00:00	2024-11-08T00:00:00	4	Temperatura máxima	14.1
13483	7	Sololá	701	Sololá	1	Sololá	3	Marzo	2023-03-23T00:00:00	2024-11-08T00:00:00	3	Temperatura mínima	13.9
13484	7	Sololá	701	Sololá	1	Sololá	3	Marzo	2023-03-23T00:00:00	2024-11-08T00:00:00	5	Humedad	79
13485	7	Sololá	701	Sololá	1	Sololá	3	Marzo	2023-03-23T00:00:00	2024-11-08T00:00:00	6	Velocidad del viento	0
13486	7	Sololá	701	Sololá	1	Sololá	3	Marzo	2023-03-23T00:00:00	2024-11-08T00:00:00	7	Dirección del viento	0
13487	7	Sololá	701	Sololá	1	Sololá	3	Marzo	2023-03-23T00:00:00	2024-11-08T00:00:00	1	Precipitación	0
13488	7	Sololá	701	Sololá	1	Sololá	3	Marzo	2023-03-23T00:00:00	2024-11-08T00:00:00	8	Radiación solar	0
13489	7	Sololá	701	Sololá	1	Sololá	3	Marzo	2023-03-23T00:00:00	2024-11-08T01:00:00	2	Temperatura media	13.9
13490	7	Sololá	701	Sololá	1	Sololá	3	Marzo	2023-03-23T00:00:00	2024-11-08T01:00:00	4	Temperatura máxima	14.1
13491	7	Sololá	701	Sololá	1	Sololá	3	Marzo	2023-03-23T00:00:00	2024-11-08T01:00:00	3	Temperatura mínima	13.9
13492	7	Sololá	701	Sololá	1	Sololá	3	Marzo	2023-03-23T00:00:00	2024-11-08T01:00:00	5	Humedad	76
13493	7	Sololá	701	Sololá	1	Sololá	3	Marzo	2023-03-23T00:00:00	2024-11-08T01:00:00	6	Velocidad del viento	0
13494	7	Sololá	701	Sololá	1	Sololá	3	Marzo	2023-03-23T00:00:00	2024-11-08T01:00:00	7	Dirección del viento	0
13495	7	Sololá	701	Sololá	1	Sololá	3	Marzo	2023-03-23T00:00:00	2024-11-08T01:00:00	1	Precipitación	0
13496	7	Sololá	701	Sololá	1	Sololá	3	Marzo	2023-03-23T00:00:00	2024-11-08T01:00:00	8	Radiación solar	0
13497	7	Sololá	701	Sololá	1	Sololá	3	Marzo	2023-03-23T00:00:00	2024-11-08T02:00:00	2	Temperatura media	12.8
13498	7	Sololá	701	Sololá	1	Sololá	3	Marzo	2023-03-23T00:00:00	2024-11-08T02:00:00	4	Temperatura máxima	14
13499	7	Sololá	701	Sololá	1	Sololá	3	Marzo	2023-03-23T00:00:00	2024-11-08T02:00:00	3	Temperatura mínima	12.8
13500	7	Sololá	701	Sololá	1	Sololá	3	Marzo	2023-03-23T00:00:00	2024-11-08T02:00:00	5	Humedad	78
13501	7	Sololá	701	Sololá	1	Sololá	3	Marzo	2023-03-23T00:00:00	2024-11-08T02:00:00	6	Velocidad del viento	0
13502	7	Sololá	701	Sololá	1	Sololá	3	Marzo	2023-03-23T00:00:00	2024-11-08T02:00:00	7	Dirección del viento	0
13503	7	Sololá	701	Sololá	1	Sololá	3	Marzo	2023-03-23T00:00:00	2024-11-08T02:00:00	1	Precipitación	0
13504	7	Sololá	701	Sololá	1	Sololá	3	Marzo	2023-03-23T00:00:00	2024-11-08T02:00:00	8	Radiación solar	0
13505	7	Sololá	701	Sololá	1	Sololá	3	Marzo	2023-03-23T00:00:00	2024-11-08T03:00:00	2	Temperatura media	12.7
13506	7	Sololá	701	Sololá	1	Sololá	3	Marzo	2023-03-23T00:00:00	2024-11-08T03:00:00	4	Temperatura máxima	13
13507	7	Sololá	701	Sololá	1	Sololá	3	Marzo	2023-03-23T00:00:00	2024-11-08T03:00:00	3	Temperatura mínima	12.7
13508	7	Sololá	701	Sololá	1	Sololá	3	Marzo	2023-03-23T00:00:00	2024-11-08T03:00:00	5	Humedad	79
13509	7	Sololá	701	Sololá	1	Sololá	3	Marzo	2023-03-23T00:00:00	2024-11-08T03:00:00	6	Velocidad del viento	0
13510	7	Sololá	701	Sololá	1	Sololá	3	Marzo	2023-03-23T00:00:00	2024-11-08T03:00:00	7	Dirección del viento	0
13511	7	Sololá	701	Sololá	1	Sololá	3	Marzo	2023-03-23T00:00:00	2024-11-08T03:00:00	1	Precipitación	0
13512	7	Sololá	701	Sololá	1	Sololá	3	Marzo	2023-03-23T00:00:00	2024-11-08T03:00:00	8	Radiación solar	0
13513	7	Sololá	701	Sololá	1	Sololá	3	Marzo	2023-03-23T00:00:00	2024-11-08T04:00:00	2	Temperatura media	11.6
13514	7	Sololá	701	Sololá	1	Sololá	3	Marzo	2023-03-23T00:00:00	2024-11-08T04:00:00	4	Temperatura máxima	12.7
13515	7	Sololá	701	Sololá	1	Sololá	3	Marzo	2023-03-23T00:00:00	2024-11-08T04:00:00	3	Temperatura mínima	11.6
13516	7	Sololá	701	Sololá	1	Sololá	3	Marzo	2023-03-23T00:00:00	2024-11-08T04:00:00	5	Humedad	82
13517	7	Sololá	701	Sololá	1	Sololá	3	Marzo	2023-03-23T00:00:00	2024-11-08T04:00:00	6	Velocidad del viento	0
13518	7	Sololá	701	Sololá	1	Sololá	3	Marzo	2023-03-23T00:00:00	2024-11-08T04:00:00	7	Dirección del viento	0
13519	7	Sololá	701	Sololá	1	Sololá	3	Marzo	2023-03-23T00:00:00	2024-11-08T04:00:00	1	Precipitación	0
13520	7	Sololá	701	Sololá	1	Sololá	3	Marzo	2023-03-23T00:00:00	2024-11-08T04:00:00	8	Radiación solar	0
13521	7	Sololá	701	Sololá	1	Sololá	3	Marzo	2023-03-23T00:00:00	2024-11-08T05:00:00	2	Temperatura media	11.8
13522	7	Sololá	701	Sololá	1	Sololá	3	Marzo	2023-03-23T00:00:00	2024-11-08T05:00:00	4	Temperatura máxima	11.8
13523	7	Sololá	701	Sololá	1	Sololá	3	Marzo	2023-03-23T00:00:00	2024-11-08T05:00:00	3	Temperatura mínima	11.5
13524	7	Sololá	701	Sololá	1	Sololá	3	Marzo	2023-03-23T00:00:00	2024-11-08T05:00:00	5	Humedad	85
13525	7	Sololá	701	Sololá	1	Sololá	3	Marzo	2023-03-23T00:00:00	2024-11-08T05:00:00	6	Velocidad del viento	0
13526	7	Sololá	701	Sololá	1	Sololá	3	Marzo	2023-03-23T00:00:00	2024-11-08T05:00:00	7	Dirección del viento	0
13527	7	Sololá	701	Sololá	1	Sololá	3	Marzo	2023-03-23T00:00:00	2024-11-08T05:00:00	1	Precipitación	0
13528	7	Sololá	701	Sololá	1	Sololá	3	Marzo	2023-03-23T00:00:00	2024-11-08T05:00:00	8	Radiación solar	0
13529	7	Sololá	701	Sololá	1	Sololá	3	Marzo	2023-03-23T00:00:00	2024-11-08T06:00:00	2	Temperatura media	12.2
13530	7	Sololá	701	Sololá	1	Sololá	3	Marzo	2023-03-23T00:00:00	2024-11-08T06:00:00	4	Temperatura máxima	12.2
13531	7	Sololá	701	Sololá	1	Sololá	3	Marzo	2023-03-23T00:00:00	2024-11-08T06:00:00	3	Temperatura mínima	11.8
13532	7	Sololá	701	Sololá	1	Sololá	3	Marzo	2023-03-23T00:00:00	2024-11-08T06:00:00	5	Humedad	83
13533	7	Sololá	701	Sololá	1	Sololá	3	Marzo	2023-03-23T00:00:00	2024-11-08T06:00:00	6	Velocidad del viento	0
13534	7	Sololá	701	Sololá	1	Sololá	3	Marzo	2023-03-23T00:00:00	2024-11-08T06:00:00	7	Dirección del viento	0
13535	7	Sololá	701	Sololá	1	Sololá	3	Marzo	2023-03-23T00:00:00	2024-11-08T06:00:00	1	Precipitación	0
13536	7	Sololá	701	Sololá	1	Sololá	3	Marzo	2023-03-23T00:00:00	2024-11-08T06:00:00	8	Radiación solar	0
13537	7	Sololá	701	Sololá	1	Sololá	3	Marzo	2023-03-23T00:00:00	2024-11-08T07:00:00	2	Temperatura media	11.9
13538	7	Sololá	701	Sololá	1	Sololá	3	Marzo	2023-03-23T00:00:00	2024-11-08T07:00:00	4	Temperatura máxima	12.2
13539	7	Sololá	701	Sololá	1	Sololá	3	Marzo	2023-03-23T00:00:00	2024-11-08T07:00:00	3	Temperatura mínima	11.9
13540	7	Sololá	701	Sololá	1	Sololá	3	Marzo	2023-03-23T00:00:00	2024-11-08T07:00:00	5	Humedad	84
13541	7	Sololá	701	Sololá	1	Sololá	3	Marzo	2023-03-23T00:00:00	2024-11-08T07:00:00	6	Velocidad del viento	0
13542	7	Sololá	701	Sololá	1	Sololá	3	Marzo	2023-03-23T00:00:00	2024-11-08T07:00:00	7	Dirección del viento	0
13543	7	Sololá	701	Sololá	1	Sololá	3	Marzo	2023-03-23T00:00:00	2024-11-08T07:00:00	1	Precipitación	0
13544	7	Sololá	701	Sololá	1	Sololá	3	Marzo	2023-03-23T00:00:00	2024-11-08T07:00:00	8	Radiación solar	8
13545	7	Sololá	701	Sololá	1	Sololá	3	Marzo	2023-03-23T00:00:00	2024-11-08T08:00:00	2	Temperatura media	12.1
13546	7	Sololá	701	Sololá	1	Sololá	3	Marzo	2023-03-23T00:00:00	2024-11-08T08:00:00	4	Temperatura máxima	12.1
13547	7	Sololá	701	Sololá	1	Sololá	3	Marzo	2023-03-23T00:00:00	2024-11-08T08:00:00	3	Temperatura mínima	11.9
13548	7	Sololá	701	Sololá	1	Sololá	3	Marzo	2023-03-23T00:00:00	2024-11-08T08:00:00	5	Humedad	85
13549	7	Sololá	701	Sololá	1	Sololá	3	Marzo	2023-03-23T00:00:00	2024-11-08T08:00:00	6	Velocidad del viento	0
13550	7	Sololá	701	Sololá	1	Sololá	3	Marzo	2023-03-23T00:00:00	2024-11-08T08:00:00	7	Dirección del viento	0
13551	7	Sololá	701	Sololá	1	Sololá	3	Marzo	2023-03-23T00:00:00	2024-11-08T08:00:00	1	Precipitación	0
13552	7	Sololá	701	Sololá	1	Sololá	3	Marzo	2023-03-23T00:00:00	2024-11-08T08:00:00	8	Radiación solar	143
13553	7	Sololá	701	Sololá	1	Sololá	3	Marzo	2023-03-23T00:00:00	2024-11-08T09:00:00	2	Temperatura media	15.4
13554	7	Sololá	701	Sololá	1	Sololá	3	Marzo	2023-03-23T00:00:00	2024-11-08T09:00:00	4	Temperatura máxima	15.4
13555	7	Sololá	701	Sololá	1	Sololá	3	Marzo	2023-03-23T00:00:00	2024-11-08T09:00:00	3	Temperatura mínima	12.1
13556	7	Sololá	701	Sololá	1	Sololá	3	Marzo	2023-03-23T00:00:00	2024-11-08T09:00:00	5	Humedad	78
13557	7	Sololá	701	Sololá	1	Sololá	3	Marzo	2023-03-23T00:00:00	2024-11-08T09:00:00	6	Velocidad del viento	0
13558	7	Sololá	701	Sololá	1	Sololá	3	Marzo	2023-03-23T00:00:00	2024-11-08T09:00:00	7	Dirección del viento	0
13559	7	Sololá	701	Sololá	1	Sololá	3	Marzo	2023-03-23T00:00:00	2024-11-08T09:00:00	1	Precipitación	0
13560	7	Sololá	701	Sololá	1	Sololá	3	Marzo	2023-03-23T00:00:00	2024-11-08T09:00:00	8	Radiación solar	580
13561	7	Sololá	701	Sololá	1	Sololá	3	Marzo	2023-03-23T00:00:00	2024-11-08T10:00:00	2	Temperatura media	19.2
13562	7	Sololá	701	Sololá	1	Sololá	3	Marzo	2023-03-23T00:00:00	2024-11-08T10:00:00	4	Temperatura máxima	19.2
13563	7	Sololá	701	Sololá	1	Sololá	3	Marzo	2023-03-23T00:00:00	2024-11-08T10:00:00	3	Temperatura mínima	15.5
13564	7	Sololá	701	Sololá	1	Sololá	3	Marzo	2023-03-23T00:00:00	2024-11-08T10:00:00	5	Humedad	65
13565	7	Sololá	701	Sololá	1	Sololá	3	Marzo	2023-03-23T00:00:00	2024-11-08T10:00:00	6	Velocidad del viento	0
13566	7	Sololá	701	Sololá	1	Sololá	3	Marzo	2023-03-23T00:00:00	2024-11-08T10:00:00	7	Dirección del viento	0
13567	7	Sololá	701	Sololá	1	Sololá	3	Marzo	2023-03-23T00:00:00	2024-11-08T10:00:00	1	Precipitación	0
13568	7	Sololá	701	Sololá	1	Sololá	3	Marzo	2023-03-23T00:00:00	2024-11-08T10:00:00	8	Radiación solar	802
13569	7	Sololá	701	Sololá	1	Sololá	3	Marzo	2023-03-23T00:00:00	2024-11-08T11:00:00	2	Temperatura media	21.6
13570	7	Sololá	701	Sololá	1	Sololá	3	Marzo	2023-03-23T00:00:00	2024-11-08T11:00:00	4	Temperatura máxima	21.6
13571	7	Sololá	701	Sololá	1	Sololá	3	Marzo	2023-03-23T00:00:00	2024-11-08T11:00:00	3	Temperatura mínima	19.2
13572	7	Sololá	701	Sololá	1	Sololá	3	Marzo	2023-03-23T00:00:00	2024-11-08T11:00:00	5	Humedad	57
13573	7	Sololá	701	Sololá	1	Sololá	3	Marzo	2023-03-23T00:00:00	2024-11-08T11:00:00	6	Velocidad del viento	0
13574	7	Sololá	701	Sololá	1	Sololá	3	Marzo	2023-03-23T00:00:00	2024-11-08T11:00:00	7	Dirección del viento	0
13575	7	Sololá	701	Sololá	1	Sololá	3	Marzo	2023-03-23T00:00:00	2024-11-08T11:00:00	1	Precipitación	0
13576	7	Sololá	701	Sololá	1	Sololá	3	Marzo	2023-03-23T00:00:00	2024-11-08T11:00:00	8	Radiación solar	986
13577	7	Sololá	701	Sololá	1	Sololá	3	Marzo	2023-03-23T00:00:00	2024-11-08T12:00:00	2	Temperatura media	22.8
13578	7	Sololá	701	Sololá	1	Sololá	3	Marzo	2023-03-23T00:00:00	2024-11-08T12:00:00	4	Temperatura máxima	22.8
13579	7	Sololá	701	Sololá	1	Sololá	3	Marzo	2023-03-23T00:00:00	2024-11-08T12:00:00	3	Temperatura mínima	21.5
13580	7	Sololá	701	Sololá	1	Sololá	3	Marzo	2023-03-23T00:00:00	2024-11-08T12:00:00	5	Humedad	54
13581	7	Sololá	701	Sololá	1	Sololá	3	Marzo	2023-03-23T00:00:00	2024-11-08T12:00:00	6	Velocidad del viento	1.6
13582	7	Sololá	701	Sololá	1	Sololá	3	Marzo	2023-03-23T00:00:00	2024-11-08T12:00:00	7	Dirección del viento	1.61
13583	7	Sololá	701	Sololá	1	Sololá	3	Marzo	2023-03-23T00:00:00	2024-11-08T12:00:00	1	Precipitación	0
13584	7	Sololá	701	Sololá	1	Sololá	3	Marzo	2023-03-23T00:00:00	2024-11-08T12:00:00	8	Radiación solar	1007
13585	7	Sololá	701	Sololá	1	Sololá	3	Marzo	2023-03-23T00:00:00	2024-11-08T13:00:00	2	Temperatura media	23.5
13586	7	Sololá	701	Sololá	1	Sololá	3	Marzo	2023-03-23T00:00:00	2024-11-08T13:00:00	4	Temperatura máxima	23.6
13587	7	Sololá	701	Sololá	1	Sololá	3	Marzo	2023-03-23T00:00:00	2024-11-08T13:00:00	3	Temperatura mínima	22.6
13588	7	Sololá	701	Sololá	1	Sololá	3	Marzo	2023-03-23T00:00:00	2024-11-08T13:00:00	5	Humedad	51
13589	7	Sololá	701	Sololá	1	Sololá	3	Marzo	2023-03-23T00:00:00	2024-11-08T13:00:00	6	Velocidad del viento	0
13590	7	Sololá	701	Sololá	1	Sololá	3	Marzo	2023-03-23T00:00:00	2024-11-08T13:00:00	7	Dirección del viento	0
13591	7	Sololá	701	Sololá	1	Sololá	3	Marzo	2023-03-23T00:00:00	2024-11-08T13:00:00	1	Precipitación	0
13592	7	Sololá	701	Sololá	1	Sololá	3	Marzo	2023-03-23T00:00:00	2024-11-08T13:00:00	8	Radiación solar	889
13593	7	Sololá	701	Sololá	1	Sololá	3	Marzo	2023-03-23T00:00:00	2024-11-08T14:00:00	2	Temperatura media	24.2
13594	7	Sololá	701	Sololá	1	Sololá	3	Marzo	2023-03-23T00:00:00	2024-11-08T14:00:00	4	Temperatura máxima	24.2
13595	7	Sololá	701	Sololá	1	Sololá	3	Marzo	2023-03-23T00:00:00	2024-11-08T14:00:00	3	Temperatura mínima	22.9
13596	7	Sololá	701	Sololá	1	Sololá	3	Marzo	2023-03-23T00:00:00	2024-11-08T14:00:00	5	Humedad	48
13597	7	Sololá	701	Sololá	1	Sololá	3	Marzo	2023-03-23T00:00:00	2024-11-08T14:00:00	6	Velocidad del viento	0
13598	7	Sololá	701	Sololá	1	Sololá	3	Marzo	2023-03-23T00:00:00	2024-11-08T14:00:00	7	Dirección del viento	0
13599	7	Sololá	701	Sololá	1	Sololá	3	Marzo	2023-03-23T00:00:00	2024-11-08T14:00:00	1	Precipitación	0
13600	7	Sololá	701	Sololá	1	Sololá	3	Marzo	2023-03-23T00:00:00	2024-11-08T14:00:00	8	Radiación solar	277
13601	7	Sololá	701	Sololá	1	Sololá	3	Marzo	2023-03-23T00:00:00	2024-11-08T15:00:00	2	Temperatura media	23.3
13602	7	Sololá	701	Sololá	1	Sololá	3	Marzo	2023-03-23T00:00:00	2024-11-08T15:00:00	4	Temperatura máxima	24.1
13603	7	Sololá	701	Sololá	1	Sololá	3	Marzo	2023-03-23T00:00:00	2024-11-08T15:00:00	3	Temperatura mínima	22.9
13604	7	Sololá	701	Sololá	1	Sololá	3	Marzo	2023-03-23T00:00:00	2024-11-08T15:00:00	5	Humedad	48
13605	7	Sololá	701	Sololá	1	Sololá	3	Marzo	2023-03-23T00:00:00	2024-11-08T15:00:00	6	Velocidad del viento	0
13606	7	Sololá	701	Sololá	1	Sololá	3	Marzo	2023-03-23T00:00:00	2024-11-08T15:00:00	7	Dirección del viento	0
13607	7	Sololá	701	Sololá	1	Sololá	3	Marzo	2023-03-23T00:00:00	2024-11-08T15:00:00	1	Precipitación	0
13608	7	Sololá	701	Sololá	1	Sololá	3	Marzo	2023-03-23T00:00:00	2024-11-08T15:00:00	8	Radiación solar	132
13609	7	Sololá	701	Sololá	1	Sololá	3	Marzo	2023-03-23T00:00:00	2024-11-08T16:00:00	2	Temperatura media	23.3
13610	7	Sololá	701	Sololá	1	Sololá	3	Marzo	2023-03-23T00:00:00	2024-11-08T16:00:00	4	Temperatura máxima	23.4
13611	7	Sololá	701	Sololá	1	Sololá	3	Marzo	2023-03-23T00:00:00	2024-11-08T16:00:00	3	Temperatura mínima	22.4
13612	7	Sololá	701	Sololá	1	Sololá	3	Marzo	2023-03-23T00:00:00	2024-11-08T16:00:00	5	Humedad	52
13613	7	Sololá	701	Sololá	1	Sololá	3	Marzo	2023-03-23T00:00:00	2024-11-08T16:00:00	6	Velocidad del viento	0
13614	7	Sololá	701	Sololá	1	Sololá	3	Marzo	2023-03-23T00:00:00	2024-11-08T16:00:00	7	Dirección del viento	0
13615	7	Sololá	701	Sololá	1	Sololá	3	Marzo	2023-03-23T00:00:00	2024-11-08T16:00:00	1	Precipitación	0
13616	7	Sololá	701	Sololá	1	Sololá	3	Marzo	2023-03-23T00:00:00	2024-11-08T16:00:00	8	Radiación solar	87
13617	7	Sololá	701	Sololá	1	Sololá	3	Marzo	2023-03-23T00:00:00	2024-11-08T17:00:00	2	Temperatura media	23.2
13618	7	Sololá	701	Sololá	1	Sololá	3	Marzo	2023-03-23T00:00:00	2024-11-08T17:00:00	4	Temperatura máxima	23.8
13619	7	Sololá	701	Sololá	1	Sololá	3	Marzo	2023-03-23T00:00:00	2024-11-08T17:00:00	3	Temperatura mínima	23.2
13620	7	Sololá	701	Sololá	1	Sololá	3	Marzo	2023-03-23T00:00:00	2024-11-08T17:00:00	5	Humedad	50
13621	7	Sololá	701	Sololá	1	Sololá	3	Marzo	2023-03-23T00:00:00	2024-11-08T17:00:00	6	Velocidad del viento	0
13622	7	Sololá	701	Sololá	1	Sololá	3	Marzo	2023-03-23T00:00:00	2024-11-08T17:00:00	7	Dirección del viento	0
13623	7	Sololá	701	Sololá	1	Sololá	3	Marzo	2023-03-23T00:00:00	2024-11-08T17:00:00	1	Precipitación	0
13624	7	Sololá	701	Sololá	1	Sololá	3	Marzo	2023-03-23T00:00:00	2024-11-08T17:00:00	8	Radiación solar	60
13625	7	Sololá	701	Sololá	1	Sololá	3	Marzo	2023-03-23T00:00:00	2024-11-08T18:00:00	2	Temperatura media	21.4
13626	7	Sololá	701	Sololá	1	Sololá	3	Marzo	2023-03-23T00:00:00	2024-11-08T18:00:00	4	Temperatura máxima	23.2
13627	7	Sololá	701	Sololá	1	Sololá	3	Marzo	2023-03-23T00:00:00	2024-11-08T18:00:00	3	Temperatura mínima	21.4
13628	7	Sololá	701	Sololá	1	Sololá	3	Marzo	2023-03-23T00:00:00	2024-11-08T18:00:00	5	Humedad	53
13629	7	Sololá	701	Sololá	1	Sololá	3	Marzo	2023-03-23T00:00:00	2024-11-08T18:00:00	6	Velocidad del viento	0
13630	7	Sololá	701	Sololá	1	Sololá	3	Marzo	2023-03-23T00:00:00	2024-11-08T18:00:00	7	Dirección del viento	0
13631	7	Sololá	701	Sololá	1	Sololá	3	Marzo	2023-03-23T00:00:00	2024-11-08T18:00:00	1	Precipitación	0
13632	7	Sololá	701	Sololá	1	Sololá	3	Marzo	2023-03-23T00:00:00	2024-11-08T18:00:00	8	Radiación solar	22
13633	7	Sololá	701	Sololá	1	Sololá	3	Marzo	2023-03-23T00:00:00	2024-11-08T19:00:00	2	Temperatura media	18.9
13634	7	Sololá	701	Sololá	1	Sololá	3	Marzo	2023-03-23T00:00:00	2024-11-08T19:00:00	4	Temperatura máxima	21.4
13635	7	Sololá	701	Sololá	1	Sololá	3	Marzo	2023-03-23T00:00:00	2024-11-08T19:00:00	3	Temperatura mínima	18.9
13636	7	Sololá	701	Sololá	1	Sololá	3	Marzo	2023-03-23T00:00:00	2024-11-08T19:00:00	5	Humedad	61
13637	7	Sololá	701	Sololá	1	Sololá	3	Marzo	2023-03-23T00:00:00	2024-11-08T19:00:00	6	Velocidad del viento	0
13638	7	Sololá	701	Sololá	1	Sololá	3	Marzo	2023-03-23T00:00:00	2024-11-08T19:00:00	7	Dirección del viento	0
13639	7	Sololá	701	Sololá	1	Sololá	3	Marzo	2023-03-23T00:00:00	2024-11-08T19:00:00	1	Precipitación	0
13640	7	Sololá	701	Sololá	1	Sololá	3	Marzo	2023-03-23T00:00:00	2024-11-08T19:00:00	8	Radiación solar	0
13641	7	Sololá	701	Sololá	1	Sololá	3	Marzo	2023-03-23T00:00:00	2024-11-08T20:00:00	2	Temperatura media	17.3
13642	7	Sololá	701	Sololá	1	Sololá	3	Marzo	2023-03-23T00:00:00	2024-11-08T20:00:00	4	Temperatura máxima	18.9
13643	7	Sololá	701	Sololá	1	Sololá	3	Marzo	2023-03-23T00:00:00	2024-11-08T20:00:00	3	Temperatura mínima	17.2
13644	7	Sololá	701	Sololá	1	Sololá	3	Marzo	2023-03-23T00:00:00	2024-11-08T20:00:00	5	Humedad	68
13645	7	Sololá	701	Sololá	1	Sololá	3	Marzo	2023-03-23T00:00:00	2024-11-08T20:00:00	6	Velocidad del viento	0
13646	7	Sololá	701	Sololá	1	Sololá	3	Marzo	2023-03-23T00:00:00	2024-11-08T20:00:00	7	Dirección del viento	0
13647	7	Sololá	701	Sololá	1	Sololá	3	Marzo	2023-03-23T00:00:00	2024-11-08T20:00:00	1	Precipitación	0
13648	7	Sololá	701	Sololá	1	Sololá	3	Marzo	2023-03-23T00:00:00	2024-11-08T20:00:00	8	Radiación solar	0
13649	7	Sololá	701	Sololá	1	Sololá	3	Marzo	2023-03-23T00:00:00	2024-11-08T21:00:00	2	Temperatura media	16.3
13650	7	Sololá	701	Sololá	1	Sololá	3	Marzo	2023-03-23T00:00:00	2024-11-08T21:00:00	4	Temperatura máxima	17.3
13651	7	Sololá	701	Sololá	1	Sololá	3	Marzo	2023-03-23T00:00:00	2024-11-08T21:00:00	3	Temperatura mínima	16.3
13652	7	Sololá	701	Sololá	1	Sololá	3	Marzo	2023-03-23T00:00:00	2024-11-08T21:00:00	5	Humedad	71
13653	7	Sololá	701	Sololá	1	Sololá	3	Marzo	2023-03-23T00:00:00	2024-11-08T21:00:00	6	Velocidad del viento	0
13654	7	Sololá	701	Sololá	1	Sololá	3	Marzo	2023-03-23T00:00:00	2024-11-08T21:00:00	7	Dirección del viento	0
13655	7	Sololá	701	Sololá	1	Sololá	3	Marzo	2023-03-23T00:00:00	2024-11-08T21:00:00	1	Precipitación	0
13656	7	Sololá	701	Sololá	1	Sololá	3	Marzo	2023-03-23T00:00:00	2024-11-08T21:00:00	8	Radiación solar	0
13657	7	Sololá	701	Sololá	1	Sololá	3	Marzo	2023-03-23T00:00:00	2024-11-08T22:00:00	2	Temperatura media	15.3
13658	7	Sololá	701	Sololá	1	Sololá	3	Marzo	2023-03-23T00:00:00	2024-11-08T22:00:00	4	Temperatura máxima	16.3
13659	7	Sololá	701	Sololá	1	Sololá	3	Marzo	2023-03-23T00:00:00	2024-11-08T22:00:00	3	Temperatura mínima	15.3
13660	7	Sololá	701	Sololá	1	Sololá	3	Marzo	2023-03-23T00:00:00	2024-11-08T22:00:00	5	Humedad	75
13661	7	Sololá	701	Sololá	1	Sololá	3	Marzo	2023-03-23T00:00:00	2024-11-08T22:00:00	6	Velocidad del viento	0
13662	7	Sololá	701	Sololá	1	Sololá	3	Marzo	2023-03-23T00:00:00	2024-11-08T22:00:00	7	Dirección del viento	0
13663	7	Sololá	701	Sololá	1	Sololá	3	Marzo	2023-03-23T00:00:00	2024-11-08T22:00:00	1	Precipitación	0
13664	7	Sololá	701	Sololá	1	Sololá	3	Marzo	2023-03-23T00:00:00	2024-11-08T22:00:00	8	Radiación solar	0
13665	7	Sololá	701	Sololá	1	Sololá	3	Marzo	2023-03-23T00:00:00	2024-11-08T23:00:00	2	Temperatura media	14.6
13666	7	Sololá	701	Sololá	1	Sololá	3	Marzo	2023-03-23T00:00:00	2024-11-08T23:00:00	4	Temperatura máxima	15.3
13667	7	Sololá	701	Sololá	1	Sololá	3	Marzo	2023-03-23T00:00:00	2024-11-08T23:00:00	3	Temperatura mínima	14.6
13668	7	Sololá	701	Sololá	1	Sololá	3	Marzo	2023-03-23T00:00:00	2024-11-08T23:00:00	5	Humedad	77
13669	7	Sololá	701	Sololá	1	Sololá	3	Marzo	2023-03-23T00:00:00	2024-11-08T23:00:00	6	Velocidad del viento	0
13670	7	Sololá	701	Sololá	1	Sololá	3	Marzo	2023-03-23T00:00:00	2024-11-08T23:00:00	7	Dirección del viento	0
13671	7	Sololá	701	Sololá	1	Sololá	3	Marzo	2023-03-23T00:00:00	2024-11-08T23:00:00	1	Precipitación	0
13672	7	Sololá	701	Sololá	1	Sololá	3	Marzo	2023-03-23T00:00:00	2024-11-08T23:00:00	8	Radiación solar	0
13673	7	Sololá	701	Sololá	1	Sololá	3	Marzo	2023-03-24T00:00:00	2024-11-08T00:00:00	2	Temperatura media	13.9
13674	7	Sololá	701	Sololá	1	Sololá	3	Marzo	2023-03-24T00:00:00	2024-11-08T00:00:00	4	Temperatura máxima	14.6
13675	7	Sololá	701	Sololá	1	Sololá	3	Marzo	2023-03-24T00:00:00	2024-11-08T00:00:00	3	Temperatura mínima	13.9
13676	7	Sololá	701	Sololá	1	Sololá	3	Marzo	2023-03-24T00:00:00	2024-11-08T00:00:00	5	Humedad	79
13677	7	Sololá	701	Sololá	1	Sololá	3	Marzo	2023-03-24T00:00:00	2024-11-08T00:00:00	6	Velocidad del viento	0
13678	7	Sololá	701	Sololá	1	Sololá	3	Marzo	2023-03-24T00:00:00	2024-11-08T00:00:00	7	Dirección del viento	0
13679	7	Sololá	701	Sololá	1	Sololá	3	Marzo	2023-03-24T00:00:00	2024-11-08T00:00:00	1	Precipitación	0
13680	7	Sololá	701	Sololá	1	Sololá	3	Marzo	2023-03-24T00:00:00	2024-11-08T00:00:00	8	Radiación solar	0
13681	7	Sololá	701	Sololá	1	Sololá	3	Marzo	2023-03-24T00:00:00	2024-11-08T01:00:00	2	Temperatura media	13.4
13682	7	Sololá	701	Sololá	1	Sololá	3	Marzo	2023-03-24T00:00:00	2024-11-08T01:00:00	4	Temperatura máxima	13.9
13683	7	Sololá	701	Sololá	1	Sololá	3	Marzo	2023-03-24T00:00:00	2024-11-08T01:00:00	3	Temperatura mínima	13.4
13684	7	Sololá	701	Sololá	1	Sololá	3	Marzo	2023-03-24T00:00:00	2024-11-08T01:00:00	5	Humedad	77
13685	7	Sololá	701	Sololá	1	Sololá	3	Marzo	2023-03-24T00:00:00	2024-11-08T01:00:00	6	Velocidad del viento	0
13686	7	Sololá	701	Sololá	1	Sololá	3	Marzo	2023-03-24T00:00:00	2024-11-08T01:00:00	7	Dirección del viento	0
13687	7	Sololá	701	Sololá	1	Sololá	3	Marzo	2023-03-24T00:00:00	2024-11-08T01:00:00	1	Precipitación	0
13688	7	Sololá	701	Sololá	1	Sololá	3	Marzo	2023-03-24T00:00:00	2024-11-08T01:00:00	8	Radiación solar	0
13689	7	Sololá	701	Sololá	1	Sololá	3	Marzo	2023-03-24T00:00:00	2024-11-08T02:00:00	2	Temperatura media	12.6
13690	7	Sololá	701	Sololá	1	Sololá	3	Marzo	2023-03-24T00:00:00	2024-11-08T02:00:00	4	Temperatura máxima	13.5
13691	7	Sololá	701	Sololá	1	Sololá	3	Marzo	2023-03-24T00:00:00	2024-11-08T02:00:00	3	Temperatura mínima	12.6
13692	7	Sololá	701	Sololá	1	Sololá	3	Marzo	2023-03-24T00:00:00	2024-11-08T02:00:00	5	Humedad	78
13693	7	Sololá	701	Sololá	1	Sololá	3	Marzo	2023-03-24T00:00:00	2024-11-08T02:00:00	6	Velocidad del viento	0
13694	7	Sololá	701	Sololá	1	Sololá	3	Marzo	2023-03-24T00:00:00	2024-11-08T02:00:00	7	Dirección del viento	0
13695	7	Sololá	701	Sololá	1	Sololá	3	Marzo	2023-03-24T00:00:00	2024-11-08T02:00:00	1	Precipitación	0
13696	7	Sololá	701	Sololá	1	Sololá	3	Marzo	2023-03-24T00:00:00	2024-11-08T02:00:00	8	Radiación solar	0
13697	7	Sololá	701	Sololá	1	Sololá	3	Marzo	2023-03-24T00:00:00	2024-11-08T03:00:00	2	Temperatura media	11.5
13698	7	Sololá	701	Sololá	1	Sololá	3	Marzo	2023-03-24T00:00:00	2024-11-08T03:00:00	4	Temperatura máxima	12.6
13699	7	Sololá	701	Sololá	1	Sololá	3	Marzo	2023-03-24T00:00:00	2024-11-08T03:00:00	3	Temperatura mínima	11.5
13700	7	Sololá	701	Sololá	1	Sololá	3	Marzo	2023-03-24T00:00:00	2024-11-08T03:00:00	5	Humedad	80
13701	7	Sololá	701	Sololá	1	Sololá	3	Marzo	2023-03-24T00:00:00	2024-11-08T03:00:00	6	Velocidad del viento	0
13702	7	Sololá	701	Sololá	1	Sololá	3	Marzo	2023-03-24T00:00:00	2024-11-08T03:00:00	7	Dirección del viento	0
13703	7	Sololá	701	Sololá	1	Sololá	3	Marzo	2023-03-24T00:00:00	2024-11-08T03:00:00	1	Precipitación	0
13704	7	Sololá	701	Sololá	1	Sololá	3	Marzo	2023-03-24T00:00:00	2024-11-08T03:00:00	8	Radiación solar	0
13705	7	Sololá	701	Sololá	1	Sololá	3	Marzo	2023-03-24T00:00:00	2024-11-08T04:00:00	2	Temperatura media	11.4
13706	7	Sololá	701	Sololá	1	Sololá	3	Marzo	2023-03-24T00:00:00	2024-11-08T04:00:00	4	Temperatura máxima	11.6
13707	7	Sololá	701	Sololá	1	Sololá	3	Marzo	2023-03-24T00:00:00	2024-11-08T04:00:00	3	Temperatura mínima	11.3
13708	7	Sololá	701	Sololá	1	Sololá	3	Marzo	2023-03-24T00:00:00	2024-11-08T04:00:00	5	Humedad	77
13709	7	Sololá	701	Sololá	1	Sololá	3	Marzo	2023-03-24T00:00:00	2024-11-08T04:00:00	6	Velocidad del viento	0
13710	7	Sololá	701	Sololá	1	Sololá	3	Marzo	2023-03-24T00:00:00	2024-11-08T04:00:00	7	Dirección del viento	0
13711	7	Sololá	701	Sololá	1	Sololá	3	Marzo	2023-03-24T00:00:00	2024-11-08T04:00:00	1	Precipitación	0
13712	7	Sololá	701	Sololá	1	Sololá	3	Marzo	2023-03-24T00:00:00	2024-11-08T04:00:00	8	Radiación solar	0
13713	7	Sololá	701	Sololá	1	Sololá	3	Marzo	2023-03-24T00:00:00	2024-11-08T05:00:00	2	Temperatura media	11.3
13714	7	Sololá	701	Sololá	1	Sololá	3	Marzo	2023-03-24T00:00:00	2024-11-08T05:00:00	4	Temperatura máxima	11.5
13715	7	Sololá	701	Sololá	1	Sololá	3	Marzo	2023-03-24T00:00:00	2024-11-08T05:00:00	3	Temperatura mínima	11.2
13716	7	Sololá	701	Sololá	1	Sololá	3	Marzo	2023-03-24T00:00:00	2024-11-08T05:00:00	5	Humedad	75
13717	7	Sololá	701	Sololá	1	Sololá	3	Marzo	2023-03-24T00:00:00	2024-11-08T05:00:00	6	Velocidad del viento	1.6
13718	7	Sololá	701	Sololá	1	Sololá	3	Marzo	2023-03-24T00:00:00	2024-11-08T05:00:00	7	Dirección del viento	1.61
13719	7	Sololá	701	Sololá	1	Sololá	3	Marzo	2023-03-24T00:00:00	2024-11-08T05:00:00	1	Precipitación	0
13720	7	Sololá	701	Sololá	1	Sololá	3	Marzo	2023-03-24T00:00:00	2024-11-08T05:00:00	8	Radiación solar	0
13721	7	Sololá	701	Sololá	1	Sololá	3	Marzo	2023-03-24T00:00:00	2024-11-08T06:00:00	2	Temperatura media	11.1
13722	7	Sololá	701	Sololá	1	Sololá	3	Marzo	2023-03-24T00:00:00	2024-11-08T06:00:00	4	Temperatura máxima	11.5
13723	7	Sololá	701	Sololá	1	Sololá	3	Marzo	2023-03-24T00:00:00	2024-11-08T06:00:00	3	Temperatura mínima	11.1
13724	7	Sololá	701	Sololá	1	Sololá	3	Marzo	2023-03-24T00:00:00	2024-11-08T06:00:00	5	Humedad	75
13725	7	Sololá	701	Sololá	1	Sololá	3	Marzo	2023-03-24T00:00:00	2024-11-08T06:00:00	6	Velocidad del viento	1.6
13726	7	Sololá	701	Sololá	1	Sololá	3	Marzo	2023-03-24T00:00:00	2024-11-08T06:00:00	7	Dirección del viento	1.61
13727	7	Sololá	701	Sololá	1	Sololá	3	Marzo	2023-03-24T00:00:00	2024-11-08T06:00:00	1	Precipitación	0
13728	7	Sololá	701	Sololá	1	Sololá	3	Marzo	2023-03-24T00:00:00	2024-11-08T06:00:00	8	Radiación solar	0
13729	7	Sololá	701	Sololá	1	Sololá	3	Marzo	2023-03-24T00:00:00	2024-11-08T07:00:00	2	Temperatura media	10.8
13730	7	Sololá	701	Sololá	1	Sololá	3	Marzo	2023-03-24T00:00:00	2024-11-08T07:00:00	4	Temperatura máxima	11.1
13731	7	Sololá	701	Sololá	1	Sololá	3	Marzo	2023-03-24T00:00:00	2024-11-08T07:00:00	3	Temperatura mínima	10.8
13732	7	Sololá	701	Sololá	1	Sololá	3	Marzo	2023-03-24T00:00:00	2024-11-08T07:00:00	5	Humedad	76
13733	7	Sololá	701	Sololá	1	Sololá	3	Marzo	2023-03-24T00:00:00	2024-11-08T07:00:00	6	Velocidad del viento	1.6
13734	7	Sololá	701	Sololá	1	Sololá	3	Marzo	2023-03-24T00:00:00	2024-11-08T07:00:00	7	Dirección del viento	1.61
13735	7	Sololá	701	Sololá	1	Sololá	3	Marzo	2023-03-24T00:00:00	2024-11-08T07:00:00	1	Precipitación	0
13736	7	Sololá	701	Sololá	1	Sololá	3	Marzo	2023-03-24T00:00:00	2024-11-08T07:00:00	8	Radiación solar	19
13737	7	Sololá	701	Sololá	1	Sololá	3	Marzo	2023-03-24T00:00:00	2024-11-08T08:00:00	2	Temperatura media	11.3
13738	7	Sololá	701	Sololá	1	Sololá	3	Marzo	2023-03-24T00:00:00	2024-11-08T08:00:00	4	Temperatura máxima	11.3
13739	7	Sololá	701	Sololá	1	Sololá	3	Marzo	2023-03-24T00:00:00	2024-11-08T08:00:00	3	Temperatura mínima	10.6
13740	7	Sololá	701	Sololá	1	Sololá	3	Marzo	2023-03-24T00:00:00	2024-11-08T08:00:00	5	Humedad	79
13741	7	Sololá	701	Sololá	1	Sololá	3	Marzo	2023-03-24T00:00:00	2024-11-08T08:00:00	6	Velocidad del viento	1.6
13742	7	Sololá	701	Sololá	1	Sololá	3	Marzo	2023-03-24T00:00:00	2024-11-08T08:00:00	7	Dirección del viento	1.61
13743	7	Sololá	701	Sololá	1	Sololá	3	Marzo	2023-03-24T00:00:00	2024-11-08T08:00:00	1	Precipitación	0
13744	7	Sololá	701	Sololá	1	Sololá	3	Marzo	2023-03-24T00:00:00	2024-11-08T08:00:00	8	Radiación solar	124
13745	7	Sololá	701	Sololá	1	Sololá	3	Marzo	2023-03-24T00:00:00	2024-11-08T09:00:00	2	Temperatura media	14.6
13746	7	Sololá	701	Sololá	1	Sololá	3	Marzo	2023-03-24T00:00:00	2024-11-08T09:00:00	4	Temperatura máxima	14.6
13747	7	Sololá	701	Sololá	1	Sololá	3	Marzo	2023-03-24T00:00:00	2024-11-08T09:00:00	3	Temperatura mínima	11.3
13748	7	Sololá	701	Sololá	1	Sololá	3	Marzo	2023-03-24T00:00:00	2024-11-08T09:00:00	5	Humedad	81
13749	7	Sololá	701	Sololá	1	Sololá	3	Marzo	2023-03-24T00:00:00	2024-11-08T09:00:00	6	Velocidad del viento	0
13750	7	Sololá	701	Sololá	1	Sololá	3	Marzo	2023-03-24T00:00:00	2024-11-08T09:00:00	7	Dirección del viento	0
13751	7	Sololá	701	Sololá	1	Sololá	3	Marzo	2023-03-24T00:00:00	2024-11-08T09:00:00	1	Precipitación	0
13752	7	Sololá	701	Sololá	1	Sololá	3	Marzo	2023-03-24T00:00:00	2024-11-08T09:00:00	8	Radiación solar	590
13753	7	Sololá	701	Sololá	1	Sololá	3	Marzo	2023-03-24T00:00:00	2024-11-08T10:00:00	2	Temperatura media	18.4
13754	7	Sololá	701	Sololá	1	Sololá	3	Marzo	2023-03-24T00:00:00	2024-11-08T10:00:00	4	Temperatura máxima	18.4
13755	7	Sololá	701	Sololá	1	Sololá	3	Marzo	2023-03-24T00:00:00	2024-11-08T10:00:00	3	Temperatura mínima	14.6
13756	7	Sololá	701	Sololá	1	Sololá	3	Marzo	2023-03-24T00:00:00	2024-11-08T10:00:00	5	Humedad	68
13757	7	Sololá	701	Sololá	1	Sololá	3	Marzo	2023-03-24T00:00:00	2024-11-08T10:00:00	6	Velocidad del viento	0
13758	7	Sololá	701	Sololá	1	Sololá	3	Marzo	2023-03-24T00:00:00	2024-11-08T10:00:00	7	Dirección del viento	0
13759	7	Sololá	701	Sololá	1	Sololá	3	Marzo	2023-03-24T00:00:00	2024-11-08T10:00:00	1	Precipitación	0
13760	7	Sololá	701	Sololá	1	Sololá	3	Marzo	2023-03-24T00:00:00	2024-11-08T10:00:00	8	Radiación solar	791
13761	7	Sololá	701	Sololá	1	Sololá	3	Marzo	2023-03-24T00:00:00	2024-11-08T11:00:00	2	Temperatura media	19.4
13762	7	Sololá	701	Sololá	1	Sololá	3	Marzo	2023-03-24T00:00:00	2024-11-08T11:00:00	4	Temperatura máxima	19.4
13763	7	Sololá	701	Sololá	1	Sololá	3	Marzo	2023-03-24T00:00:00	2024-11-08T11:00:00	3	Temperatura mínima	18.3
13764	7	Sololá	701	Sololá	1	Sololá	3	Marzo	2023-03-24T00:00:00	2024-11-08T11:00:00	5	Humedad	69
13765	7	Sololá	701	Sololá	1	Sololá	3	Marzo	2023-03-24T00:00:00	2024-11-08T11:00:00	6	Velocidad del viento	0
13766	7	Sololá	701	Sololá	1	Sololá	3	Marzo	2023-03-24T00:00:00	2024-11-08T11:00:00	7	Dirección del viento	0
13767	7	Sololá	701	Sololá	1	Sololá	3	Marzo	2023-03-24T00:00:00	2024-11-08T11:00:00	1	Precipitación	0
13768	7	Sololá	701	Sololá	1	Sololá	3	Marzo	2023-03-24T00:00:00	2024-11-08T11:00:00	8	Radiación solar	927
13769	7	Sololá	701	Sololá	1	Sololá	3	Marzo	2023-03-24T00:00:00	2024-11-08T12:00:00	2	Temperatura media	21.1
13770	7	Sololá	701	Sololá	1	Sololá	3	Marzo	2023-03-24T00:00:00	2024-11-08T12:00:00	4	Temperatura máxima	21.1
13771	7	Sololá	701	Sololá	1	Sololá	3	Marzo	2023-03-24T00:00:00	2024-11-08T12:00:00	3	Temperatura mínima	19.4
13772	7	Sololá	701	Sololá	1	Sololá	3	Marzo	2023-03-24T00:00:00	2024-11-08T12:00:00	5	Humedad	58
13773	7	Sololá	701	Sololá	1	Sololá	3	Marzo	2023-03-24T00:00:00	2024-11-08T12:00:00	6	Velocidad del viento	0
13774	7	Sololá	701	Sololá	1	Sololá	3	Marzo	2023-03-24T00:00:00	2024-11-08T12:00:00	7	Dirección del viento	0
13775	7	Sololá	701	Sololá	1	Sololá	3	Marzo	2023-03-24T00:00:00	2024-11-08T12:00:00	1	Precipitación	0
13776	7	Sololá	701	Sololá	1	Sololá	3	Marzo	2023-03-24T00:00:00	2024-11-08T12:00:00	8	Radiación solar	1008
13777	7	Sololá	701	Sololá	1	Sololá	3	Marzo	2023-03-24T00:00:00	2024-11-08T13:00:00	2	Temperatura media	21.1
13778	7	Sololá	701	Sololá	1	Sololá	3	Marzo	2023-03-24T00:00:00	2024-11-08T13:00:00	4	Temperatura máxima	21.4
13779	7	Sololá	701	Sololá	1	Sololá	3	Marzo	2023-03-24T00:00:00	2024-11-08T13:00:00	3	Temperatura mínima	21
13780	7	Sololá	701	Sololá	1	Sololá	3	Marzo	2023-03-24T00:00:00	2024-11-08T13:00:00	5	Humedad	67
13781	7	Sololá	701	Sololá	1	Sololá	3	Marzo	2023-03-24T00:00:00	2024-11-08T13:00:00	6	Velocidad del viento	0
13782	7	Sololá	701	Sololá	1	Sololá	3	Marzo	2023-03-24T00:00:00	2024-11-08T13:00:00	7	Dirección del viento	0
13783	7	Sololá	701	Sololá	1	Sololá	3	Marzo	2023-03-24T00:00:00	2024-11-08T13:00:00	1	Precipitación	0
13784	7	Sololá	701	Sololá	1	Sololá	3	Marzo	2023-03-24T00:00:00	2024-11-08T13:00:00	8	Radiación solar	757
13785	7	Sololá	701	Sololá	1	Sololá	3	Marzo	2023-03-24T00:00:00	2024-11-08T14:00:00	2	Temperatura media	20.8
13786	7	Sololá	701	Sololá	1	Sololá	3	Marzo	2023-03-24T00:00:00	2024-11-08T14:00:00	4	Temperatura máxima	21.2
13787	7	Sololá	701	Sololá	1	Sololá	3	Marzo	2023-03-24T00:00:00	2024-11-08T14:00:00	3	Temperatura mínima	20.7
13788	7	Sololá	701	Sololá	1	Sololá	3	Marzo	2023-03-24T00:00:00	2024-11-08T14:00:00	5	Humedad	70
13789	7	Sololá	701	Sololá	1	Sololá	3	Marzo	2023-03-24T00:00:00	2024-11-08T14:00:00	6	Velocidad del viento	0
13790	7	Sololá	701	Sololá	1	Sololá	3	Marzo	2023-03-24T00:00:00	2024-11-08T14:00:00	7	Dirección del viento	0
13791	7	Sololá	701	Sololá	1	Sololá	3	Marzo	2023-03-24T00:00:00	2024-11-08T14:00:00	1	Precipitación	0
13792	7	Sololá	701	Sololá	1	Sololá	3	Marzo	2023-03-24T00:00:00	2024-11-08T14:00:00	8	Radiación solar	397
13793	7	Sololá	701	Sololá	1	Sololá	3	Marzo	2023-03-24T00:00:00	2024-11-08T15:00:00	2	Temperatura media	21.2
13794	7	Sololá	701	Sololá	1	Sololá	3	Marzo	2023-03-24T00:00:00	2024-11-08T15:00:00	4	Temperatura máxima	21.7
13795	7	Sololá	701	Sololá	1	Sololá	3	Marzo	2023-03-24T00:00:00	2024-11-08T15:00:00	3	Temperatura mínima	20.7
13796	7	Sololá	701	Sololá	1	Sololá	3	Marzo	2023-03-24T00:00:00	2024-11-08T15:00:00	5	Humedad	67
13797	7	Sololá	701	Sololá	1	Sololá	3	Marzo	2023-03-24T00:00:00	2024-11-08T15:00:00	6	Velocidad del viento	0
13798	7	Sololá	701	Sololá	1	Sololá	3	Marzo	2023-03-24T00:00:00	2024-11-08T15:00:00	7	Dirección del viento	0
13799	7	Sololá	701	Sololá	1	Sololá	3	Marzo	2023-03-24T00:00:00	2024-11-08T15:00:00	1	Precipitación	0
13800	7	Sololá	701	Sololá	1	Sololá	3	Marzo	2023-03-24T00:00:00	2024-11-08T15:00:00	8	Radiación solar	198
13801	7	Sololá	701	Sololá	1	Sololá	3	Marzo	2023-03-24T00:00:00	2024-11-08T16:00:00	2	Temperatura media	20.1
13802	7	Sololá	701	Sololá	1	Sololá	3	Marzo	2023-03-24T00:00:00	2024-11-08T16:00:00	4	Temperatura máxima	21.4
13803	7	Sololá	701	Sololá	1	Sololá	3	Marzo	2023-03-24T00:00:00	2024-11-08T16:00:00	3	Temperatura mínima	20.1
13804	7	Sololá	701	Sololá	1	Sololá	3	Marzo	2023-03-24T00:00:00	2024-11-08T16:00:00	5	Humedad	74
13805	7	Sololá	701	Sololá	1	Sololá	3	Marzo	2023-03-24T00:00:00	2024-11-08T16:00:00	6	Velocidad del viento	0
13806	7	Sololá	701	Sololá	1	Sololá	3	Marzo	2023-03-24T00:00:00	2024-11-08T16:00:00	7	Dirección del viento	0
13807	7	Sololá	701	Sololá	1	Sololá	3	Marzo	2023-03-24T00:00:00	2024-11-08T16:00:00	1	Precipitación	0
13808	7	Sololá	701	Sololá	1	Sololá	3	Marzo	2023-03-24T00:00:00	2024-11-08T16:00:00	8	Radiación solar	147
13809	7	Sololá	701	Sololá	1	Sololá	3	Marzo	2023-03-24T00:00:00	2024-11-08T17:00:00	2	Temperatura media	19.7
13810	7	Sololá	701	Sololá	1	Sololá	3	Marzo	2023-03-24T00:00:00	2024-11-08T17:00:00	4	Temperatura máxima	20.1
13811	7	Sololá	701	Sololá	1	Sololá	3	Marzo	2023-03-24T00:00:00	2024-11-08T17:00:00	3	Temperatura mínima	19.3
13812	7	Sololá	701	Sololá	1	Sololá	3	Marzo	2023-03-24T00:00:00	2024-11-08T17:00:00	5	Humedad	75
13813	7	Sololá	701	Sololá	1	Sololá	3	Marzo	2023-03-24T00:00:00	2024-11-08T17:00:00	6	Velocidad del viento	0
13814	7	Sololá	701	Sololá	1	Sololá	3	Marzo	2023-03-24T00:00:00	2024-11-08T17:00:00	7	Dirección del viento	0
13815	7	Sololá	701	Sololá	1	Sololá	3	Marzo	2023-03-24T00:00:00	2024-11-08T17:00:00	1	Precipitación	0
13816	7	Sololá	701	Sololá	1	Sololá	3	Marzo	2023-03-24T00:00:00	2024-11-08T17:00:00	8	Radiación solar	62
13817	7	Sololá	701	Sololá	1	Sololá	3	Marzo	2023-03-24T00:00:00	2024-11-08T18:00:00	2	Temperatura media	18.7
13818	7	Sololá	701	Sololá	1	Sololá	3	Marzo	2023-03-24T00:00:00	2024-11-08T18:00:00	4	Temperatura máxima	19.9
13819	7	Sololá	701	Sololá	1	Sololá	3	Marzo	2023-03-24T00:00:00	2024-11-08T18:00:00	3	Temperatura mínima	18.5
13820	7	Sololá	701	Sololá	1	Sololá	3	Marzo	2023-03-24T00:00:00	2024-11-08T18:00:00	5	Humedad	78
13821	7	Sololá	701	Sololá	1	Sololá	3	Marzo	2023-03-24T00:00:00	2024-11-08T18:00:00	6	Velocidad del viento	0
13822	7	Sololá	701	Sololá	1	Sololá	3	Marzo	2023-03-24T00:00:00	2024-11-08T18:00:00	7	Dirección del viento	0
13823	7	Sololá	701	Sololá	1	Sololá	3	Marzo	2023-03-24T00:00:00	2024-11-08T18:00:00	1	Precipitación	0
13824	7	Sololá	701	Sololá	1	Sololá	3	Marzo	2023-03-24T00:00:00	2024-11-08T18:00:00	8	Radiación solar	17
13825	7	Sololá	701	Sololá	1	Sololá	3	Marzo	2023-03-24T00:00:00	2024-11-08T19:00:00	2	Temperatura media	16.4
13826	7	Sololá	701	Sololá	1	Sololá	3	Marzo	2023-03-24T00:00:00	2024-11-08T19:00:00	4	Temperatura máxima	18.7
13827	7	Sololá	701	Sololá	1	Sololá	3	Marzo	2023-03-24T00:00:00	2024-11-08T19:00:00	3	Temperatura mínima	16.4
13828	7	Sololá	701	Sololá	1	Sololá	3	Marzo	2023-03-24T00:00:00	2024-11-08T19:00:00	5	Humedad	88
13829	7	Sololá	701	Sololá	1	Sololá	3	Marzo	2023-03-24T00:00:00	2024-11-08T19:00:00	6	Velocidad del viento	0
13830	7	Sololá	701	Sololá	1	Sololá	3	Marzo	2023-03-24T00:00:00	2024-11-08T19:00:00	7	Dirección del viento	0
13831	7	Sololá	701	Sololá	1	Sololá	3	Marzo	2023-03-24T00:00:00	2024-11-08T19:00:00	1	Precipitación	0
13832	7	Sololá	701	Sololá	1	Sololá	3	Marzo	2023-03-24T00:00:00	2024-11-08T19:00:00	8	Radiación solar	0
13833	7	Sololá	701	Sololá	1	Sololá	3	Marzo	2023-03-24T00:00:00	2024-11-08T20:00:00	2	Temperatura media	15.9
13834	7	Sololá	701	Sololá	1	Sololá	3	Marzo	2023-03-24T00:00:00	2024-11-08T20:00:00	4	Temperatura máxima	16.4
13835	7	Sololá	701	Sololá	1	Sololá	3	Marzo	2023-03-24T00:00:00	2024-11-08T20:00:00	3	Temperatura mínima	15.9
13836	7	Sololá	701	Sololá	1	Sololá	3	Marzo	2023-03-24T00:00:00	2024-11-08T20:00:00	5	Humedad	91
13837	7	Sololá	701	Sololá	1	Sololá	3	Marzo	2023-03-24T00:00:00	2024-11-08T20:00:00	6	Velocidad del viento	0
13838	7	Sololá	701	Sololá	1	Sololá	3	Marzo	2023-03-24T00:00:00	2024-11-08T20:00:00	7	Dirección del viento	0
13839	7	Sololá	701	Sololá	1	Sololá	3	Marzo	2023-03-24T00:00:00	2024-11-08T20:00:00	1	Precipitación	0
13840	7	Sololá	701	Sololá	1	Sololá	3	Marzo	2023-03-24T00:00:00	2024-11-08T20:00:00	8	Radiación solar	0
13841	7	Sololá	701	Sololá	1	Sololá	3	Marzo	2023-03-24T00:00:00	2024-11-08T21:00:00	2	Temperatura media	15.5
13842	7	Sololá	701	Sololá	1	Sololá	3	Marzo	2023-03-24T00:00:00	2024-11-08T21:00:00	4	Temperatura máxima	15.9
13843	7	Sololá	701	Sololá	1	Sololá	3	Marzo	2023-03-24T00:00:00	2024-11-08T21:00:00	3	Temperatura mínima	15.5
13844	7	Sololá	701	Sololá	1	Sololá	3	Marzo	2023-03-24T00:00:00	2024-11-08T21:00:00	5	Humedad	94
13845	7	Sololá	701	Sololá	1	Sololá	3	Marzo	2023-03-24T00:00:00	2024-11-08T21:00:00	6	Velocidad del viento	0
13846	7	Sololá	701	Sololá	1	Sololá	3	Marzo	2023-03-24T00:00:00	2024-11-08T21:00:00	7	Dirección del viento	0
13847	7	Sololá	701	Sololá	1	Sololá	3	Marzo	2023-03-24T00:00:00	2024-11-08T21:00:00	1	Precipitación	0
13848	7	Sololá	701	Sololá	1	Sololá	3	Marzo	2023-03-24T00:00:00	2024-11-08T21:00:00	8	Radiación solar	0
13849	7	Sololá	701	Sololá	1	Sololá	3	Marzo	2023-03-24T00:00:00	2024-11-08T22:00:00	2	Temperatura media	15.2
13850	7	Sololá	701	Sololá	1	Sololá	3	Marzo	2023-03-24T00:00:00	2024-11-08T22:00:00	4	Temperatura máxima	15.5
13851	7	Sololá	701	Sololá	1	Sololá	3	Marzo	2023-03-24T00:00:00	2024-11-08T22:00:00	3	Temperatura mínima	15.2
13852	7	Sololá	701	Sololá	1	Sololá	3	Marzo	2023-03-24T00:00:00	2024-11-08T22:00:00	5	Humedad	94
13853	7	Sololá	701	Sololá	1	Sololá	3	Marzo	2023-03-24T00:00:00	2024-11-08T22:00:00	6	Velocidad del viento	0
13854	7	Sololá	701	Sololá	1	Sololá	3	Marzo	2023-03-24T00:00:00	2024-11-08T22:00:00	7	Dirección del viento	0
13855	7	Sololá	701	Sololá	1	Sololá	3	Marzo	2023-03-24T00:00:00	2024-11-08T22:00:00	1	Precipitación	0
13856	7	Sololá	701	Sololá	1	Sololá	3	Marzo	2023-03-24T00:00:00	2024-11-08T22:00:00	8	Radiación solar	0
13857	7	Sololá	701	Sololá	1	Sololá	3	Marzo	2023-03-24T00:00:00	2024-11-08T23:00:00	2	Temperatura media	15.1
13858	7	Sololá	701	Sololá	1	Sololá	3	Marzo	2023-03-24T00:00:00	2024-11-08T23:00:00	4	Temperatura máxima	15.2
13859	7	Sololá	701	Sololá	1	Sololá	3	Marzo	2023-03-24T00:00:00	2024-11-08T23:00:00	3	Temperatura mínima	15
13860	7	Sololá	701	Sololá	1	Sololá	3	Marzo	2023-03-24T00:00:00	2024-11-08T23:00:00	5	Humedad	94
13861	7	Sololá	701	Sololá	1	Sololá	3	Marzo	2023-03-24T00:00:00	2024-11-08T23:00:00	6	Velocidad del viento	0
13862	7	Sololá	701	Sololá	1	Sololá	3	Marzo	2023-03-24T00:00:00	2024-11-08T23:00:00	7	Dirección del viento	0
13863	7	Sololá	701	Sololá	1	Sololá	3	Marzo	2023-03-24T00:00:00	2024-11-08T23:00:00	1	Precipitación	0
13864	7	Sololá	701	Sololá	1	Sololá	3	Marzo	2023-03-24T00:00:00	2024-11-08T23:00:00	8	Radiación solar	0
13865	7	Sololá	701	Sololá	1	Sololá	3	Marzo	2023-03-25T00:00:00	2024-11-08T00:00:00	2	Temperatura media	14.7
13866	7	Sololá	701	Sololá	1	Sololá	3	Marzo	2023-03-25T00:00:00	2024-11-08T00:00:00	4	Temperatura máxima	15.1
13867	7	Sololá	701	Sololá	1	Sololá	3	Marzo	2023-03-25T00:00:00	2024-11-08T00:00:00	3	Temperatura mínima	14.7
13868	7	Sololá	701	Sololá	1	Sololá	3	Marzo	2023-03-25T00:00:00	2024-11-08T00:00:00	5	Humedad	89
13869	7	Sololá	701	Sololá	1	Sololá	3	Marzo	2023-03-25T00:00:00	2024-11-08T00:00:00	6	Velocidad del viento	0
13870	7	Sololá	701	Sololá	1	Sololá	3	Marzo	2023-03-25T00:00:00	2024-11-08T00:00:00	7	Dirección del viento	0
13871	7	Sololá	701	Sololá	1	Sololá	3	Marzo	2023-03-25T00:00:00	2024-11-08T00:00:00	1	Precipitación	0
13872	7	Sololá	701	Sololá	1	Sololá	3	Marzo	2023-03-25T00:00:00	2024-11-08T00:00:00	8	Radiación solar	0
13873	7	Sololá	701	Sololá	1	Sololá	3	Marzo	2023-03-25T00:00:00	2024-11-08T01:00:00	2	Temperatura media	14.4
13874	7	Sololá	701	Sololá	1	Sololá	3	Marzo	2023-03-25T00:00:00	2024-11-08T01:00:00	4	Temperatura máxima	14.8
13875	7	Sololá	701	Sololá	1	Sololá	3	Marzo	2023-03-25T00:00:00	2024-11-08T01:00:00	3	Temperatura mínima	14.3
13876	7	Sololá	701	Sololá	1	Sololá	3	Marzo	2023-03-25T00:00:00	2024-11-08T01:00:00	5	Humedad	87
13877	7	Sololá	701	Sololá	1	Sololá	3	Marzo	2023-03-25T00:00:00	2024-11-08T01:00:00	6	Velocidad del viento	0
13878	7	Sololá	701	Sololá	1	Sololá	3	Marzo	2023-03-25T00:00:00	2024-11-08T01:00:00	7	Dirección del viento	0
13879	7	Sololá	701	Sololá	1	Sololá	3	Marzo	2023-03-25T00:00:00	2024-11-08T01:00:00	1	Precipitación	0
13880	7	Sololá	701	Sololá	1	Sololá	3	Marzo	2023-03-25T00:00:00	2024-11-08T01:00:00	8	Radiación solar	0
13881	7	Sololá	701	Sololá	1	Sololá	3	Marzo	2023-03-25T00:00:00	2024-11-08T02:00:00	2	Temperatura media	14.3
13882	7	Sololá	701	Sololá	1	Sololá	3	Marzo	2023-03-25T00:00:00	2024-11-08T02:00:00	4	Temperatura máxima	14.4
13883	7	Sololá	701	Sololá	1	Sololá	3	Marzo	2023-03-25T00:00:00	2024-11-08T02:00:00	3	Temperatura mínima	14.2
13884	7	Sololá	701	Sololá	1	Sololá	3	Marzo	2023-03-25T00:00:00	2024-11-08T02:00:00	5	Humedad	89
13885	7	Sololá	701	Sololá	1	Sololá	3	Marzo	2023-03-25T00:00:00	2024-11-08T02:00:00	6	Velocidad del viento	0
13886	7	Sololá	701	Sololá	1	Sololá	3	Marzo	2023-03-25T00:00:00	2024-11-08T02:00:00	7	Dirección del viento	0
13887	7	Sololá	701	Sololá	1	Sololá	3	Marzo	2023-03-25T00:00:00	2024-11-08T02:00:00	1	Precipitación	0
13888	7	Sololá	701	Sololá	1	Sololá	3	Marzo	2023-03-25T00:00:00	2024-11-08T02:00:00	8	Radiación solar	0
13889	7	Sololá	701	Sololá	1	Sololá	3	Marzo	2023-03-25T00:00:00	2024-11-08T03:00:00	2	Temperatura media	14.1
13890	7	Sololá	701	Sololá	1	Sololá	3	Marzo	2023-03-25T00:00:00	2024-11-08T03:00:00	4	Temperatura máxima	14.3
13891	7	Sololá	701	Sololá	1	Sololá	3	Marzo	2023-03-25T00:00:00	2024-11-08T03:00:00	3	Temperatura mínima	14.1
13892	7	Sololá	701	Sololá	1	Sololá	3	Marzo	2023-03-25T00:00:00	2024-11-08T03:00:00	5	Humedad	90
13893	7	Sololá	701	Sololá	1	Sololá	3	Marzo	2023-03-25T00:00:00	2024-11-08T03:00:00	6	Velocidad del viento	0
13894	7	Sololá	701	Sololá	1	Sololá	3	Marzo	2023-03-25T00:00:00	2024-11-08T03:00:00	7	Dirección del viento	0
13895	7	Sololá	701	Sololá	1	Sololá	3	Marzo	2023-03-25T00:00:00	2024-11-08T03:00:00	1	Precipitación	0
13896	7	Sololá	701	Sololá	1	Sololá	3	Marzo	2023-03-25T00:00:00	2024-11-08T03:00:00	8	Radiación solar	0
13897	7	Sololá	701	Sololá	1	Sololá	3	Marzo	2023-03-25T00:00:00	2024-11-08T04:00:00	2	Temperatura media	14.2
13898	7	Sololá	701	Sololá	1	Sololá	3	Marzo	2023-03-25T00:00:00	2024-11-08T04:00:00	4	Temperatura máxima	14.2
13899	7	Sololá	701	Sololá	1	Sololá	3	Marzo	2023-03-25T00:00:00	2024-11-08T04:00:00	3	Temperatura mínima	14.1
13900	7	Sololá	701	Sololá	1	Sololá	3	Marzo	2023-03-25T00:00:00	2024-11-08T04:00:00	5	Humedad	93
13901	7	Sololá	701	Sololá	1	Sololá	3	Marzo	2023-03-25T00:00:00	2024-11-08T04:00:00	6	Velocidad del viento	0
13902	7	Sololá	701	Sololá	1	Sololá	3	Marzo	2023-03-25T00:00:00	2024-11-08T04:00:00	7	Dirección del viento	0
13903	7	Sololá	701	Sololá	1	Sololá	3	Marzo	2023-03-25T00:00:00	2024-11-08T04:00:00	1	Precipitación	0
13904	7	Sololá	701	Sololá	1	Sololá	3	Marzo	2023-03-25T00:00:00	2024-11-08T04:00:00	8	Radiación solar	0
13905	7	Sololá	701	Sololá	1	Sololá	3	Marzo	2023-03-25T00:00:00	2024-11-08T05:00:00	2	Temperatura media	13.7
13906	7	Sololá	701	Sololá	1	Sololá	3	Marzo	2023-03-25T00:00:00	2024-11-08T05:00:00	4	Temperatura máxima	14.2
13907	7	Sololá	701	Sololá	1	Sololá	3	Marzo	2023-03-25T00:00:00	2024-11-08T05:00:00	3	Temperatura mínima	13.7
13908	7	Sololá	701	Sololá	1	Sololá	3	Marzo	2023-03-25T00:00:00	2024-11-08T05:00:00	5	Humedad	89
13909	7	Sololá	701	Sololá	1	Sololá	3	Marzo	2023-03-25T00:00:00	2024-11-08T05:00:00	6	Velocidad del viento	0
13910	7	Sololá	701	Sololá	1	Sololá	3	Marzo	2023-03-25T00:00:00	2024-11-08T05:00:00	7	Dirección del viento	0
13911	7	Sololá	701	Sololá	1	Sololá	3	Marzo	2023-03-25T00:00:00	2024-11-08T05:00:00	1	Precipitación	0
13912	7	Sololá	701	Sololá	1	Sololá	3	Marzo	2023-03-25T00:00:00	2024-11-08T05:00:00	8	Radiación solar	0
13913	7	Sololá	701	Sololá	1	Sololá	3	Marzo	2023-03-25T00:00:00	2024-11-08T06:00:00	2	Temperatura media	13.7
13914	7	Sololá	701	Sololá	1	Sololá	3	Marzo	2023-03-25T00:00:00	2024-11-08T06:00:00	4	Temperatura máxima	13.8
13915	7	Sololá	701	Sololá	1	Sololá	3	Marzo	2023-03-25T00:00:00	2024-11-08T06:00:00	3	Temperatura mínima	13.7
13916	7	Sololá	701	Sololá	1	Sololá	3	Marzo	2023-03-25T00:00:00	2024-11-08T06:00:00	5	Humedad	91
13917	7	Sololá	701	Sololá	1	Sololá	3	Marzo	2023-03-25T00:00:00	2024-11-08T06:00:00	6	Velocidad del viento	0
13918	7	Sololá	701	Sololá	1	Sololá	3	Marzo	2023-03-25T00:00:00	2024-11-08T06:00:00	7	Dirección del viento	0
13919	7	Sololá	701	Sololá	1	Sololá	3	Marzo	2023-03-25T00:00:00	2024-11-08T06:00:00	1	Precipitación	0
13920	7	Sololá	701	Sololá	1	Sololá	3	Marzo	2023-03-25T00:00:00	2024-11-08T06:00:00	8	Radiación solar	0
13921	7	Sololá	701	Sololá	1	Sololá	3	Marzo	2023-03-25T00:00:00	2024-11-08T07:00:00	2	Temperatura media	13.4
13922	7	Sololá	701	Sololá	1	Sololá	3	Marzo	2023-03-25T00:00:00	2024-11-08T07:00:00	4	Temperatura máxima	13.7
13923	7	Sololá	701	Sololá	1	Sololá	3	Marzo	2023-03-25T00:00:00	2024-11-08T07:00:00	3	Temperatura mínima	13.4
13924	7	Sololá	701	Sololá	1	Sololá	3	Marzo	2023-03-25T00:00:00	2024-11-08T07:00:00	5	Humedad	93
13925	7	Sololá	701	Sololá	1	Sololá	3	Marzo	2023-03-25T00:00:00	2024-11-08T07:00:00	6	Velocidad del viento	0
13926	7	Sololá	701	Sololá	1	Sololá	3	Marzo	2023-03-25T00:00:00	2024-11-08T07:00:00	7	Dirección del viento	0
13927	7	Sololá	701	Sololá	1	Sololá	3	Marzo	2023-03-25T00:00:00	2024-11-08T07:00:00	1	Precipitación	0
13928	7	Sololá	701	Sololá	1	Sololá	3	Marzo	2023-03-25T00:00:00	2024-11-08T07:00:00	8	Radiación solar	7
13929	7	Sololá	701	Sololá	1	Sololá	3	Marzo	2023-03-25T00:00:00	2024-11-08T08:00:00	2	Temperatura media	13.4
13930	7	Sololá	701	Sololá	1	Sololá	3	Marzo	2023-03-25T00:00:00	2024-11-08T08:00:00	4	Temperatura máxima	13.4
13931	7	Sololá	701	Sololá	1	Sololá	3	Marzo	2023-03-25T00:00:00	2024-11-08T08:00:00	3	Temperatura mínima	13.3
13932	7	Sololá	701	Sololá	1	Sololá	3	Marzo	2023-03-25T00:00:00	2024-11-08T08:00:00	5	Humedad	94
13933	7	Sololá	701	Sololá	1	Sololá	3	Marzo	2023-03-25T00:00:00	2024-11-08T08:00:00	6	Velocidad del viento	0
13934	7	Sololá	701	Sololá	1	Sololá	3	Marzo	2023-03-25T00:00:00	2024-11-08T08:00:00	7	Dirección del viento	0
13935	7	Sololá	701	Sololá	1	Sololá	3	Marzo	2023-03-25T00:00:00	2024-11-08T08:00:00	1	Precipitación	0
13936	7	Sololá	701	Sololá	1	Sololá	3	Marzo	2023-03-25T00:00:00	2024-11-08T08:00:00	8	Radiación solar	57
13937	7	Sololá	701	Sololá	1	Sololá	3	Marzo	2023-03-25T00:00:00	2024-11-08T09:00:00	2	Temperatura media	14.2
13938	7	Sololá	701	Sololá	1	Sololá	3	Marzo	2023-03-25T00:00:00	2024-11-08T09:00:00	4	Temperatura máxima	14.2
13939	7	Sololá	701	Sololá	1	Sololá	3	Marzo	2023-03-25T00:00:00	2024-11-08T09:00:00	3	Temperatura mínima	13.4
13940	7	Sololá	701	Sololá	1	Sololá	3	Marzo	2023-03-25T00:00:00	2024-11-08T09:00:00	5	Humedad	93
13941	7	Sololá	701	Sololá	1	Sololá	3	Marzo	2023-03-25T00:00:00	2024-11-08T09:00:00	6	Velocidad del viento	0
13942	7	Sololá	701	Sololá	1	Sololá	3	Marzo	2023-03-25T00:00:00	2024-11-08T09:00:00	7	Dirección del viento	0
13943	7	Sololá	701	Sololá	1	Sololá	3	Marzo	2023-03-25T00:00:00	2024-11-08T09:00:00	1	Precipitación	0
13944	7	Sololá	701	Sololá	1	Sololá	3	Marzo	2023-03-25T00:00:00	2024-11-08T09:00:00	8	Radiación solar	146
13945	7	Sololá	701	Sololá	1	Sololá	3	Marzo	2023-03-25T00:00:00	2024-11-08T10:00:00	2	Temperatura media	15.2
13946	7	Sololá	701	Sololá	1	Sololá	3	Marzo	2023-03-25T00:00:00	2024-11-08T10:00:00	4	Temperatura máxima	15.3
13947	7	Sololá	701	Sololá	1	Sololá	3	Marzo	2023-03-25T00:00:00	2024-11-08T10:00:00	3	Temperatura mínima	14.1
13948	7	Sololá	701	Sololá	1	Sololá	3	Marzo	2023-03-25T00:00:00	2024-11-08T10:00:00	5	Humedad	90
13949	7	Sololá	701	Sololá	1	Sololá	3	Marzo	2023-03-25T00:00:00	2024-11-08T10:00:00	6	Velocidad del viento	0
13950	7	Sololá	701	Sololá	1	Sololá	3	Marzo	2023-03-25T00:00:00	2024-11-08T10:00:00	7	Dirección del viento	0
13951	7	Sololá	701	Sololá	1	Sololá	3	Marzo	2023-03-25T00:00:00	2024-11-08T10:00:00	1	Precipitación	0
13952	7	Sololá	701	Sololá	1	Sololá	3	Marzo	2023-03-25T00:00:00	2024-11-08T10:00:00	8	Radiación solar	209
13953	7	Sololá	701	Sololá	1	Sololá	3	Marzo	2023-03-25T00:00:00	2024-11-08T11:00:00	2	Temperatura media	16.1
13954	7	Sololá	701	Sololá	1	Sololá	3	Marzo	2023-03-25T00:00:00	2024-11-08T11:00:00	4	Temperatura máxima	16.1
13955	7	Sololá	701	Sololá	1	Sololá	3	Marzo	2023-03-25T00:00:00	2024-11-08T11:00:00	3	Temperatura mínima	15.3
13956	7	Sololá	701	Sololá	1	Sololá	3	Marzo	2023-03-25T00:00:00	2024-11-08T11:00:00	5	Humedad	85
13957	7	Sololá	701	Sololá	1	Sololá	3	Marzo	2023-03-25T00:00:00	2024-11-08T11:00:00	6	Velocidad del viento	0
13958	7	Sololá	701	Sololá	1	Sololá	3	Marzo	2023-03-25T00:00:00	2024-11-08T11:00:00	7	Dirección del viento	0
13959	7	Sololá	701	Sololá	1	Sololá	3	Marzo	2023-03-25T00:00:00	2024-11-08T11:00:00	1	Precipitación	0
13960	7	Sololá	701	Sololá	1	Sololá	3	Marzo	2023-03-25T00:00:00	2024-11-08T11:00:00	8	Radiación solar	588
13961	7	Sololá	701	Sololá	1	Sololá	3	Marzo	2023-03-25T00:00:00	2024-11-08T12:00:00	2	Temperatura media	19.2
13962	7	Sololá	701	Sololá	1	Sololá	3	Marzo	2023-03-25T00:00:00	2024-11-08T12:00:00	4	Temperatura máxima	19.2
13963	7	Sololá	701	Sololá	1	Sololá	3	Marzo	2023-03-25T00:00:00	2024-11-08T12:00:00	3	Temperatura mínima	16.1
13964	7	Sololá	701	Sololá	1	Sololá	3	Marzo	2023-03-25T00:00:00	2024-11-08T12:00:00	5	Humedad	77
13965	7	Sololá	701	Sololá	1	Sololá	3	Marzo	2023-03-25T00:00:00	2024-11-08T12:00:00	6	Velocidad del viento	0
13966	7	Sololá	701	Sololá	1	Sololá	3	Marzo	2023-03-25T00:00:00	2024-11-08T12:00:00	7	Dirección del viento	0
13967	7	Sololá	701	Sololá	1	Sololá	3	Marzo	2023-03-25T00:00:00	2024-11-08T12:00:00	1	Precipitación	0
13968	7	Sololá	701	Sololá	1	Sololá	3	Marzo	2023-03-25T00:00:00	2024-11-08T12:00:00	8	Radiación solar	983
13969	7	Sololá	701	Sololá	1	Sololá	3	Marzo	2023-03-25T00:00:00	2024-11-08T13:00:00	2	Temperatura media	20.4
13970	7	Sololá	701	Sololá	1	Sololá	3	Marzo	2023-03-25T00:00:00	2024-11-08T13:00:00	4	Temperatura máxima	20.4
13971	7	Sololá	701	Sololá	1	Sololá	3	Marzo	2023-03-25T00:00:00	2024-11-08T13:00:00	3	Temperatura mínima	19.2
13972	7	Sololá	701	Sololá	1	Sololá	3	Marzo	2023-03-25T00:00:00	2024-11-08T13:00:00	5	Humedad	71
13973	7	Sololá	701	Sololá	1	Sololá	3	Marzo	2023-03-25T00:00:00	2024-11-08T13:00:00	6	Velocidad del viento	0
13974	7	Sololá	701	Sololá	1	Sololá	3	Marzo	2023-03-25T00:00:00	2024-11-08T13:00:00	7	Dirección del viento	0
13975	7	Sololá	701	Sololá	1	Sololá	3	Marzo	2023-03-25T00:00:00	2024-11-08T13:00:00	1	Precipitación	0
13976	7	Sololá	701	Sololá	1	Sololá	3	Marzo	2023-03-25T00:00:00	2024-11-08T13:00:00	8	Radiación solar	977
13977	7	Sololá	701	Sololá	1	Sololá	3	Marzo	2023-03-25T00:00:00	2024-11-08T14:00:00	2	Temperatura media	20.6
13978	7	Sololá	701	Sololá	1	Sololá	3	Marzo	2023-03-25T00:00:00	2024-11-08T14:00:00	4	Temperatura máxima	20.9
13979	7	Sololá	701	Sololá	1	Sololá	3	Marzo	2023-03-25T00:00:00	2024-11-08T14:00:00	3	Temperatura mínima	20.4
13980	7	Sololá	701	Sololá	1	Sololá	3	Marzo	2023-03-25T00:00:00	2024-11-08T14:00:00	5	Humedad	71
13981	7	Sololá	701	Sololá	1	Sololá	3	Marzo	2023-03-25T00:00:00	2024-11-08T14:00:00	6	Velocidad del viento	0
13982	7	Sololá	701	Sololá	1	Sololá	3	Marzo	2023-03-25T00:00:00	2024-11-08T14:00:00	7	Dirección del viento	0
13983	7	Sololá	701	Sololá	1	Sololá	3	Marzo	2023-03-25T00:00:00	2024-11-08T14:00:00	1	Precipitación	0
13984	7	Sololá	701	Sololá	1	Sololá	3	Marzo	2023-03-25T00:00:00	2024-11-08T14:00:00	8	Radiación solar	310
13985	7	Sololá	701	Sololá	1	Sololá	3	Marzo	2023-03-25T00:00:00	2024-11-08T15:00:00	2	Temperatura media	19.6
13986	7	Sololá	701	Sololá	1	Sololá	3	Marzo	2023-03-25T00:00:00	2024-11-08T15:00:00	4	Temperatura máxima	20.7
13987	7	Sololá	701	Sololá	1	Sololá	3	Marzo	2023-03-25T00:00:00	2024-11-08T15:00:00	3	Temperatura mínima	19.1
13988	7	Sololá	701	Sololá	1	Sololá	3	Marzo	2023-03-25T00:00:00	2024-11-08T15:00:00	5	Humedad	77
13989	7	Sololá	701	Sololá	1	Sololá	3	Marzo	2023-03-25T00:00:00	2024-11-08T15:00:00	6	Velocidad del viento	0
13990	7	Sololá	701	Sololá	1	Sololá	3	Marzo	2023-03-25T00:00:00	2024-11-08T15:00:00	7	Dirección del viento	0
13991	7	Sololá	701	Sololá	1	Sololá	3	Marzo	2023-03-25T00:00:00	2024-11-08T15:00:00	1	Precipitación	0
13992	7	Sololá	701	Sololá	1	Sololá	3	Marzo	2023-03-25T00:00:00	2024-11-08T15:00:00	8	Radiación solar	137
13993	7	Sololá	701	Sololá	1	Sololá	3	Marzo	2023-03-25T00:00:00	2024-11-08T16:00:00	2	Temperatura media	17.3
13994	7	Sololá	701	Sololá	1	Sololá	3	Marzo	2023-03-25T00:00:00	2024-11-08T16:00:00	4	Temperatura máxima	19.7
13995	7	Sololá	701	Sololá	1	Sololá	3	Marzo	2023-03-25T00:00:00	2024-11-08T16:00:00	3	Temperatura mínima	17.3
13996	7	Sololá	701	Sololá	1	Sololá	3	Marzo	2023-03-25T00:00:00	2024-11-08T16:00:00	5	Humedad	84
13997	7	Sololá	701	Sololá	1	Sololá	3	Marzo	2023-03-25T00:00:00	2024-11-08T16:00:00	6	Velocidad del viento	0
13998	7	Sololá	701	Sololá	1	Sololá	3	Marzo	2023-03-25T00:00:00	2024-11-08T16:00:00	7	Dirección del viento	0
13999	7	Sololá	701	Sololá	1	Sololá	3	Marzo	2023-03-25T00:00:00	2024-11-08T16:00:00	1	Precipitación	0
14000	7	Sololá	701	Sololá	1	Sololá	3	Marzo	2023-03-25T00:00:00	2024-11-08T16:00:00	8	Radiación solar	163
14001	7	Sololá	701	Sololá	1	Sololá	3	Marzo	2023-03-25T00:00:00	2024-11-08T17:00:00	2	Temperatura media	17.8
14002	7	Sololá	701	Sololá	1	Sololá	3	Marzo	2023-03-25T00:00:00	2024-11-08T17:00:00	4	Temperatura máxima	17.9
14003	7	Sololá	701	Sololá	1	Sololá	3	Marzo	2023-03-25T00:00:00	2024-11-08T17:00:00	3	Temperatura mínima	17.1
14004	7	Sololá	701	Sololá	1	Sololá	3	Marzo	2023-03-25T00:00:00	2024-11-08T17:00:00	5	Humedad	83
14005	7	Sololá	701	Sololá	1	Sololá	3	Marzo	2023-03-25T00:00:00	2024-11-08T17:00:00	6	Velocidad del viento	0
14006	7	Sololá	701	Sololá	1	Sololá	3	Marzo	2023-03-25T00:00:00	2024-11-08T17:00:00	7	Dirección del viento	0
14007	7	Sololá	701	Sololá	1	Sololá	3	Marzo	2023-03-25T00:00:00	2024-11-08T17:00:00	1	Precipitación	0
14008	7	Sololá	701	Sololá	1	Sololá	3	Marzo	2023-03-25T00:00:00	2024-11-08T17:00:00	8	Radiación solar	109
14009	7	Sololá	701	Sololá	1	Sololá	3	Marzo	2023-03-25T00:00:00	2024-11-08T18:00:00	2	Temperatura media	17.3
14010	7	Sololá	701	Sololá	1	Sololá	3	Marzo	2023-03-25T00:00:00	2024-11-08T18:00:00	4	Temperatura máxima	18.1
14011	7	Sololá	701	Sololá	1	Sololá	3	Marzo	2023-03-25T00:00:00	2024-11-08T18:00:00	3	Temperatura mínima	17.3
14012	7	Sololá	701	Sololá	1	Sololá	3	Marzo	2023-03-25T00:00:00	2024-11-08T18:00:00	5	Humedad	83
14013	7	Sololá	701	Sololá	1	Sololá	3	Marzo	2023-03-25T00:00:00	2024-11-08T18:00:00	6	Velocidad del viento	0
14014	7	Sololá	701	Sololá	1	Sololá	3	Marzo	2023-03-25T00:00:00	2024-11-08T18:00:00	7	Dirección del viento	0
14015	7	Sololá	701	Sololá	1	Sololá	3	Marzo	2023-03-25T00:00:00	2024-11-08T18:00:00	1	Precipitación	0
14016	7	Sololá	701	Sololá	1	Sololá	3	Marzo	2023-03-25T00:00:00	2024-11-08T18:00:00	8	Radiación solar	34
14017	7	Sololá	701	Sololá	1	Sololá	3	Marzo	2023-03-25T00:00:00	2024-11-08T19:00:00	2	Temperatura media	16.7
14018	7	Sololá	701	Sololá	1	Sololá	3	Marzo	2023-03-25T00:00:00	2024-11-08T19:00:00	4	Temperatura máxima	17.3
14019	7	Sololá	701	Sololá	1	Sololá	3	Marzo	2023-03-25T00:00:00	2024-11-08T19:00:00	3	Temperatura mínima	16.7
14020	7	Sololá	701	Sololá	1	Sololá	3	Marzo	2023-03-25T00:00:00	2024-11-08T19:00:00	5	Humedad	84
14021	7	Sololá	701	Sololá	1	Sololá	3	Marzo	2023-03-25T00:00:00	2024-11-08T19:00:00	6	Velocidad del viento	0
14022	7	Sololá	701	Sololá	1	Sololá	3	Marzo	2023-03-25T00:00:00	2024-11-08T19:00:00	7	Dirección del viento	0
14023	7	Sololá	701	Sololá	1	Sololá	3	Marzo	2023-03-25T00:00:00	2024-11-08T19:00:00	1	Precipitación	0
14024	7	Sololá	701	Sololá	1	Sololá	3	Marzo	2023-03-25T00:00:00	2024-11-08T19:00:00	8	Radiación solar	0
14025	7	Sololá	701	Sololá	1	Sololá	3	Marzo	2023-03-25T00:00:00	2024-11-08T20:00:00	2	Temperatura media	15.1
14026	7	Sololá	701	Sololá	1	Sololá	3	Marzo	2023-03-25T00:00:00	2024-11-08T20:00:00	4	Temperatura máxima	16.7
14027	7	Sololá	701	Sololá	1	Sololá	3	Marzo	2023-03-25T00:00:00	2024-11-08T20:00:00	3	Temperatura mínima	15.1
14028	7	Sololá	701	Sololá	1	Sololá	3	Marzo	2023-03-25T00:00:00	2024-11-08T20:00:00	5	Humedad	90
14029	7	Sololá	701	Sololá	1	Sololá	3	Marzo	2023-03-25T00:00:00	2024-11-08T20:00:00	6	Velocidad del viento	0
14030	7	Sololá	701	Sololá	1	Sololá	3	Marzo	2023-03-25T00:00:00	2024-11-08T20:00:00	7	Dirección del viento	0
14031	7	Sololá	701	Sololá	1	Sololá	3	Marzo	2023-03-25T00:00:00	2024-11-08T20:00:00	1	Precipitación	0
14032	7	Sololá	701	Sololá	1	Sololá	3	Marzo	2023-03-25T00:00:00	2024-11-08T20:00:00	8	Radiación solar	0
14033	7	Sololá	701	Sololá	1	Sololá	3	Marzo	2023-03-25T00:00:00	2024-11-08T21:00:00	2	Temperatura media	14.1
14034	7	Sololá	701	Sololá	1	Sololá	3	Marzo	2023-03-25T00:00:00	2024-11-08T21:00:00	4	Temperatura máxima	15.1
14035	7	Sololá	701	Sololá	1	Sololá	3	Marzo	2023-03-25T00:00:00	2024-11-08T21:00:00	3	Temperatura mínima	14.1
14036	7	Sololá	701	Sololá	1	Sololá	3	Marzo	2023-03-25T00:00:00	2024-11-08T21:00:00	5	Humedad	91
14037	7	Sololá	701	Sololá	1	Sololá	3	Marzo	2023-03-25T00:00:00	2024-11-08T21:00:00	6	Velocidad del viento	0
14038	7	Sololá	701	Sololá	1	Sololá	3	Marzo	2023-03-25T00:00:00	2024-11-08T21:00:00	7	Dirección del viento	0
14039	7	Sololá	701	Sololá	1	Sololá	3	Marzo	2023-03-25T00:00:00	2024-11-08T21:00:00	1	Precipitación	0
14040	7	Sololá	701	Sololá	1	Sololá	3	Marzo	2023-03-25T00:00:00	2024-11-08T21:00:00	8	Radiación solar	0
14041	7	Sololá	701	Sololá	1	Sololá	3	Marzo	2023-03-25T00:00:00	2024-11-08T22:00:00	2	Temperatura media	13.7
14042	7	Sololá	701	Sololá	1	Sololá	3	Marzo	2023-03-25T00:00:00	2024-11-08T22:00:00	4	Temperatura máxima	14.2
14043	7	Sololá	701	Sololá	1	Sololá	3	Marzo	2023-03-25T00:00:00	2024-11-08T22:00:00	3	Temperatura mínima	13.7
14044	7	Sololá	701	Sololá	1	Sololá	3	Marzo	2023-03-25T00:00:00	2024-11-08T22:00:00	5	Humedad	91
14045	7	Sololá	701	Sololá	1	Sololá	3	Marzo	2023-03-25T00:00:00	2024-11-08T22:00:00	6	Velocidad del viento	0
14046	7	Sololá	701	Sololá	1	Sololá	3	Marzo	2023-03-25T00:00:00	2024-11-08T22:00:00	7	Dirección del viento	0
14047	7	Sololá	701	Sololá	1	Sololá	3	Marzo	2023-03-25T00:00:00	2024-11-08T22:00:00	1	Precipitación	0
14048	7	Sololá	701	Sololá	1	Sololá	3	Marzo	2023-03-25T00:00:00	2024-11-08T22:00:00	8	Radiación solar	0
14049	7	Sololá	701	Sololá	1	Sololá	3	Marzo	2023-03-25T00:00:00	2024-11-08T23:00:00	2	Temperatura media	13.4
14050	7	Sololá	701	Sololá	1	Sololá	3	Marzo	2023-03-25T00:00:00	2024-11-08T23:00:00	4	Temperatura máxima	13.7
14051	7	Sololá	701	Sololá	1	Sololá	3	Marzo	2023-03-25T00:00:00	2024-11-08T23:00:00	3	Temperatura mínima	13.4
14052	7	Sololá	701	Sololá	1	Sololá	3	Marzo	2023-03-25T00:00:00	2024-11-08T23:00:00	5	Humedad	90
14053	7	Sololá	701	Sololá	1	Sololá	3	Marzo	2023-03-25T00:00:00	2024-11-08T23:00:00	6	Velocidad del viento	0
14054	7	Sololá	701	Sololá	1	Sololá	3	Marzo	2023-03-25T00:00:00	2024-11-08T23:00:00	7	Dirección del viento	0
14055	7	Sololá	701	Sololá	1	Sololá	3	Marzo	2023-03-25T00:00:00	2024-11-08T23:00:00	1	Precipitación	0
14056	7	Sololá	701	Sololá	1	Sololá	3	Marzo	2023-03-25T00:00:00	2024-11-08T23:00:00	8	Radiación solar	0
14057	7	Sololá	701	Sololá	1	Sololá	3	Marzo	2023-03-26T00:00:00	2024-11-08T00:00:00	2	Temperatura media	13.1
14058	7	Sololá	701	Sololá	1	Sololá	3	Marzo	2023-03-26T00:00:00	2024-11-08T00:00:00	4	Temperatura máxima	13.4
14059	7	Sololá	701	Sololá	1	Sololá	3	Marzo	2023-03-26T00:00:00	2024-11-08T00:00:00	3	Temperatura mínima	13.1
14060	7	Sololá	701	Sololá	1	Sololá	3	Marzo	2023-03-26T00:00:00	2024-11-08T00:00:00	5	Humedad	91
14061	7	Sololá	701	Sololá	1	Sololá	3	Marzo	2023-03-26T00:00:00	2024-11-08T00:00:00	6	Velocidad del viento	0
14062	7	Sololá	701	Sololá	1	Sololá	3	Marzo	2023-03-26T00:00:00	2024-11-08T00:00:00	7	Dirección del viento	0
14063	7	Sololá	701	Sololá	1	Sololá	3	Marzo	2023-03-26T00:00:00	2024-11-08T00:00:00	1	Precipitación	0
14064	7	Sololá	701	Sololá	1	Sololá	3	Marzo	2023-03-26T00:00:00	2024-11-08T00:00:00	8	Radiación solar	0
14065	7	Sololá	701	Sololá	1	Sololá	3	Marzo	2023-03-26T00:00:00	2024-11-08T01:00:00	2	Temperatura media	13.6
14066	7	Sololá	701	Sololá	1	Sololá	3	Marzo	2023-03-26T00:00:00	2024-11-08T01:00:00	4	Temperatura máxima	13.6
14067	7	Sololá	701	Sololá	1	Sololá	3	Marzo	2023-03-26T00:00:00	2024-11-08T01:00:00	3	Temperatura mínima	12.9
14068	7	Sololá	701	Sololá	1	Sololá	3	Marzo	2023-03-26T00:00:00	2024-11-08T01:00:00	5	Humedad	92
14069	7	Sololá	701	Sololá	1	Sololá	3	Marzo	2023-03-26T00:00:00	2024-11-08T01:00:00	6	Velocidad del viento	0
14070	7	Sololá	701	Sololá	1	Sololá	3	Marzo	2023-03-26T00:00:00	2024-11-08T01:00:00	7	Dirección del viento	0
14071	7	Sololá	701	Sololá	1	Sololá	3	Marzo	2023-03-26T00:00:00	2024-11-08T01:00:00	1	Precipitación	0
14072	7	Sololá	701	Sololá	1	Sololá	3	Marzo	2023-03-26T00:00:00	2024-11-08T01:00:00	8	Radiación solar	0
14073	7	Sololá	701	Sololá	1	Sololá	3	Marzo	2023-03-26T00:00:00	2024-11-08T02:00:00	2	Temperatura media	13.6
14074	7	Sololá	701	Sololá	1	Sololá	3	Marzo	2023-03-26T00:00:00	2024-11-08T02:00:00	4	Temperatura máxima	13.7
14075	7	Sololá	701	Sololá	1	Sololá	3	Marzo	2023-03-26T00:00:00	2024-11-08T02:00:00	3	Temperatura mínima	13.5
14076	7	Sololá	701	Sololá	1	Sololá	3	Marzo	2023-03-26T00:00:00	2024-11-08T02:00:00	5	Humedad	93
14077	7	Sololá	701	Sololá	1	Sololá	3	Marzo	2023-03-26T00:00:00	2024-11-08T02:00:00	6	Velocidad del viento	0
14078	7	Sololá	701	Sololá	1	Sololá	3	Marzo	2023-03-26T00:00:00	2024-11-08T02:00:00	7	Dirección del viento	0
14079	7	Sololá	701	Sololá	1	Sololá	3	Marzo	2023-03-26T00:00:00	2024-11-08T02:00:00	1	Precipitación	0
14080	7	Sololá	701	Sololá	1	Sololá	3	Marzo	2023-03-26T00:00:00	2024-11-08T02:00:00	8	Radiación solar	0
14081	7	Sololá	701	Sololá	1	Sololá	3	Marzo	2023-03-26T00:00:00	2024-11-08T03:00:00	2	Temperatura media	13.8
14082	7	Sololá	701	Sololá	1	Sololá	3	Marzo	2023-03-26T00:00:00	2024-11-08T03:00:00	4	Temperatura máxima	13.8
14083	7	Sololá	701	Sololá	1	Sololá	3	Marzo	2023-03-26T00:00:00	2024-11-08T03:00:00	3	Temperatura mínima	13.6
14084	7	Sololá	701	Sololá	1	Sololá	3	Marzo	2023-03-26T00:00:00	2024-11-08T03:00:00	5	Humedad	93
14085	7	Sololá	701	Sololá	1	Sololá	3	Marzo	2023-03-26T00:00:00	2024-11-08T03:00:00	6	Velocidad del viento	0
14086	7	Sololá	701	Sololá	1	Sololá	3	Marzo	2023-03-26T00:00:00	2024-11-08T03:00:00	7	Dirección del viento	0
14087	7	Sololá	701	Sololá	1	Sololá	3	Marzo	2023-03-26T00:00:00	2024-11-08T03:00:00	1	Precipitación	0
14088	7	Sololá	701	Sololá	1	Sololá	3	Marzo	2023-03-26T00:00:00	2024-11-08T03:00:00	8	Radiación solar	0
14089	7	Sololá	701	Sololá	1	Sololá	3	Marzo	2023-03-26T00:00:00	2024-11-08T04:00:00	2	Temperatura media	14.1
14090	7	Sololá	701	Sololá	1	Sololá	3	Marzo	2023-03-26T00:00:00	2024-11-08T04:00:00	4	Temperatura máxima	14.2
14091	7	Sololá	701	Sololá	1	Sololá	3	Marzo	2023-03-26T00:00:00	2024-11-08T04:00:00	3	Temperatura mínima	13.8
14092	7	Sololá	701	Sololá	1	Sololá	3	Marzo	2023-03-26T00:00:00	2024-11-08T04:00:00	5	Humedad	93
14093	7	Sololá	701	Sololá	1	Sololá	3	Marzo	2023-03-26T00:00:00	2024-11-08T04:00:00	6	Velocidad del viento	0
14094	7	Sololá	701	Sololá	1	Sololá	3	Marzo	2023-03-26T00:00:00	2024-11-08T04:00:00	7	Dirección del viento	0
14095	7	Sololá	701	Sololá	1	Sololá	3	Marzo	2023-03-26T00:00:00	2024-11-08T04:00:00	1	Precipitación	0
14096	7	Sololá	701	Sololá	1	Sololá	3	Marzo	2023-03-26T00:00:00	2024-11-08T04:00:00	8	Radiación solar	0
14097	7	Sololá	701	Sololá	1	Sololá	3	Marzo	2023-03-26T00:00:00	2024-11-08T05:00:00	2	Temperatura media	14
14098	7	Sololá	701	Sololá	1	Sololá	3	Marzo	2023-03-26T00:00:00	2024-11-08T05:00:00	4	Temperatura máxima	14.2
14099	7	Sololá	701	Sololá	1	Sololá	3	Marzo	2023-03-26T00:00:00	2024-11-08T05:00:00	3	Temperatura mínima	13.9
14100	7	Sololá	701	Sololá	1	Sololá	3	Marzo	2023-03-26T00:00:00	2024-11-08T05:00:00	5	Humedad	94
14101	7	Sololá	701	Sololá	1	Sololá	3	Marzo	2023-03-26T00:00:00	2024-11-08T05:00:00	6	Velocidad del viento	0
14102	7	Sololá	701	Sololá	1	Sololá	3	Marzo	2023-03-26T00:00:00	2024-11-08T05:00:00	7	Dirección del viento	0
14103	7	Sololá	701	Sololá	1	Sololá	3	Marzo	2023-03-26T00:00:00	2024-11-08T05:00:00	1	Precipitación	0
14104	7	Sololá	701	Sololá	1	Sololá	3	Marzo	2023-03-26T00:00:00	2024-11-08T05:00:00	8	Radiación solar	0
14105	7	Sololá	701	Sololá	1	Sololá	3	Marzo	2023-03-26T00:00:00	2024-11-08T06:00:00	2	Temperatura media	13.2
14106	7	Sololá	701	Sololá	1	Sololá	3	Marzo	2023-03-26T00:00:00	2024-11-08T06:00:00	4	Temperatura máxima	14
14107	7	Sololá	701	Sololá	1	Sololá	3	Marzo	2023-03-26T00:00:00	2024-11-08T06:00:00	3	Temperatura mínima	13.2
14108	7	Sololá	701	Sololá	1	Sololá	3	Marzo	2023-03-26T00:00:00	2024-11-08T06:00:00	5	Humedad	95
14109	7	Sololá	701	Sololá	1	Sololá	3	Marzo	2023-03-26T00:00:00	2024-11-08T06:00:00	6	Velocidad del viento	0
14110	7	Sololá	701	Sololá	1	Sololá	3	Marzo	2023-03-26T00:00:00	2024-11-08T06:00:00	7	Dirección del viento	0
14111	7	Sololá	701	Sololá	1	Sololá	3	Marzo	2023-03-26T00:00:00	2024-11-08T06:00:00	1	Precipitación	0
14112	7	Sololá	701	Sololá	1	Sololá	3	Marzo	2023-03-26T00:00:00	2024-11-08T06:00:00	8	Radiación solar	0
14113	7	Sololá	701	Sololá	1	Sololá	3	Marzo	2023-03-26T00:00:00	2024-11-08T07:00:00	2	Temperatura media	12.7
14114	7	Sololá	701	Sololá	1	Sololá	3	Marzo	2023-03-26T00:00:00	2024-11-08T07:00:00	4	Temperatura máxima	13.2
14115	7	Sololá	701	Sololá	1	Sololá	3	Marzo	2023-03-26T00:00:00	2024-11-08T07:00:00	3	Temperatura mínima	12.7
14116	7	Sololá	701	Sololá	1	Sololá	3	Marzo	2023-03-26T00:00:00	2024-11-08T07:00:00	5	Humedad	95
14117	7	Sololá	701	Sololá	1	Sololá	3	Marzo	2023-03-26T00:00:00	2024-11-08T07:00:00	6	Velocidad del viento	0
14118	7	Sololá	701	Sololá	1	Sololá	3	Marzo	2023-03-26T00:00:00	2024-11-08T07:00:00	7	Dirección del viento	0
14119	7	Sololá	701	Sololá	1	Sololá	3	Marzo	2023-03-26T00:00:00	2024-11-08T07:00:00	1	Precipitación	0
14120	7	Sololá	701	Sololá	1	Sololá	3	Marzo	2023-03-26T00:00:00	2024-11-08T07:00:00	8	Radiación solar	18
14121	7	Sololá	701	Sololá	1	Sololá	3	Marzo	2023-03-26T00:00:00	2024-11-08T08:00:00	2	Temperatura media	12.6
14122	7	Sololá	701	Sololá	1	Sololá	3	Marzo	2023-03-26T00:00:00	2024-11-08T08:00:00	4	Temperatura máxima	12.7
14123	7	Sololá	701	Sololá	1	Sololá	3	Marzo	2023-03-26T00:00:00	2024-11-08T08:00:00	3	Temperatura mínima	12.6
14124	7	Sololá	701	Sololá	1	Sololá	3	Marzo	2023-03-26T00:00:00	2024-11-08T08:00:00	5	Humedad	94
14125	7	Sololá	701	Sololá	1	Sololá	3	Marzo	2023-03-26T00:00:00	2024-11-08T08:00:00	6	Velocidad del viento	0
14126	7	Sololá	701	Sololá	1	Sololá	3	Marzo	2023-03-26T00:00:00	2024-11-08T08:00:00	7	Dirección del viento	0
14127	7	Sololá	701	Sololá	1	Sololá	3	Marzo	2023-03-26T00:00:00	2024-11-08T08:00:00	1	Precipitación	0
14128	7	Sololá	701	Sololá	1	Sololá	3	Marzo	2023-03-26T00:00:00	2024-11-08T08:00:00	8	Radiación solar	79
14129	7	Sololá	701	Sololá	1	Sololá	3	Marzo	2023-03-26T00:00:00	2024-11-08T09:00:00	2	Temperatura media	13.6
14130	7	Sololá	701	Sololá	1	Sololá	3	Marzo	2023-03-26T00:00:00	2024-11-08T09:00:00	4	Temperatura máxima	13.6
14131	7	Sololá	701	Sololá	1	Sololá	3	Marzo	2023-03-26T00:00:00	2024-11-08T09:00:00	3	Temperatura mínima	12.6
14132	7	Sololá	701	Sololá	1	Sololá	3	Marzo	2023-03-26T00:00:00	2024-11-08T09:00:00	5	Humedad	93
14133	7	Sololá	701	Sololá	1	Sololá	3	Marzo	2023-03-26T00:00:00	2024-11-08T09:00:00	6	Velocidad del viento	0
14134	7	Sololá	701	Sololá	1	Sololá	3	Marzo	2023-03-26T00:00:00	2024-11-08T09:00:00	7	Dirección del viento	0
14135	7	Sololá	701	Sololá	1	Sololá	3	Marzo	2023-03-26T00:00:00	2024-11-08T09:00:00	1	Precipitación	0
14136	7	Sololá	701	Sololá	1	Sololá	3	Marzo	2023-03-26T00:00:00	2024-11-08T09:00:00	8	Radiación solar	164
14137	7	Sololá	701	Sololá	1	Sololá	3	Marzo	2023-03-26T00:00:00	2024-11-08T10:00:00	2	Temperatura media	14.8
14138	7	Sololá	701	Sololá	1	Sololá	3	Marzo	2023-03-26T00:00:00	2024-11-08T10:00:00	4	Temperatura máxima	14.8
14139	7	Sololá	701	Sololá	1	Sololá	3	Marzo	2023-03-26T00:00:00	2024-11-08T10:00:00	3	Temperatura mínima	13.6
14140	7	Sololá	701	Sololá	1	Sololá	3	Marzo	2023-03-26T00:00:00	2024-11-08T10:00:00	5	Humedad	91
14141	7	Sololá	701	Sololá	1	Sololá	3	Marzo	2023-03-26T00:00:00	2024-11-08T10:00:00	6	Velocidad del viento	0
14142	7	Sololá	701	Sololá	1	Sololá	3	Marzo	2023-03-26T00:00:00	2024-11-08T10:00:00	7	Dirección del viento	0
14143	7	Sololá	701	Sololá	1	Sololá	3	Marzo	2023-03-26T00:00:00	2024-11-08T10:00:00	1	Precipitación	0
14144	7	Sololá	701	Sololá	1	Sololá	3	Marzo	2023-03-26T00:00:00	2024-11-08T10:00:00	8	Radiación solar	207
14145	7	Sololá	701	Sololá	1	Sololá	3	Marzo	2023-03-26T00:00:00	2024-11-08T11:00:00	2	Temperatura media	16.1
14146	7	Sololá	701	Sololá	1	Sololá	3	Marzo	2023-03-26T00:00:00	2024-11-08T11:00:00	4	Temperatura máxima	16.1
14147	7	Sololá	701	Sololá	1	Sololá	3	Marzo	2023-03-26T00:00:00	2024-11-08T11:00:00	3	Temperatura mínima	14.8
14148	7	Sololá	701	Sololá	1	Sololá	3	Marzo	2023-03-26T00:00:00	2024-11-08T11:00:00	5	Humedad	87
14149	7	Sololá	701	Sololá	1	Sololá	3	Marzo	2023-03-26T00:00:00	2024-11-08T11:00:00	6	Velocidad del viento	0
14150	7	Sololá	701	Sololá	1	Sololá	3	Marzo	2023-03-26T00:00:00	2024-11-08T11:00:00	7	Dirección del viento	0
14151	7	Sololá	701	Sololá	1	Sololá	3	Marzo	2023-03-26T00:00:00	2024-11-08T11:00:00	1	Precipitación	0
14152	7	Sololá	701	Sololá	1	Sololá	3	Marzo	2023-03-26T00:00:00	2024-11-08T11:00:00	8	Radiación solar	931
14153	7	Sololá	701	Sololá	1	Sololá	3	Marzo	2023-03-26T00:00:00	2024-11-08T12:00:00	2	Temperatura media	19.3
14154	7	Sololá	701	Sololá	1	Sololá	3	Marzo	2023-03-26T00:00:00	2024-11-08T12:00:00	4	Temperatura máxima	19.3
14155	7	Sololá	701	Sololá	1	Sololá	3	Marzo	2023-03-26T00:00:00	2024-11-08T12:00:00	3	Temperatura mínima	16.2
14156	7	Sololá	701	Sololá	1	Sololá	3	Marzo	2023-03-26T00:00:00	2024-11-08T12:00:00	5	Humedad	73
14157	7	Sololá	701	Sololá	1	Sololá	3	Marzo	2023-03-26T00:00:00	2024-11-08T12:00:00	6	Velocidad del viento	0
14158	7	Sololá	701	Sololá	1	Sololá	3	Marzo	2023-03-26T00:00:00	2024-11-08T12:00:00	7	Dirección del viento	0
14159	7	Sololá	701	Sololá	1	Sololá	3	Marzo	2023-03-26T00:00:00	2024-11-08T12:00:00	1	Precipitación	0
14160	7	Sololá	701	Sololá	1	Sololá	3	Marzo	2023-03-26T00:00:00	2024-11-08T12:00:00	8	Radiación solar	533
14161	7	Sololá	701	Sololá	1	Sololá	3	Marzo	2023-03-26T00:00:00	2024-11-08T13:00:00	2	Temperatura media	18.7
14162	7	Sololá	701	Sololá	1	Sololá	3	Marzo	2023-03-26T00:00:00	2024-11-08T13:00:00	4	Temperatura máxima	19.5
14163	7	Sololá	701	Sololá	1	Sololá	3	Marzo	2023-03-26T00:00:00	2024-11-08T13:00:00	3	Temperatura mínima	18.6
14164	7	Sololá	701	Sololá	1	Sololá	3	Marzo	2023-03-26T00:00:00	2024-11-08T13:00:00	5	Humedad	76
14165	7	Sololá	701	Sololá	1	Sololá	3	Marzo	2023-03-26T00:00:00	2024-11-08T13:00:00	6	Velocidad del viento	0
14166	7	Sololá	701	Sololá	1	Sololá	3	Marzo	2023-03-26T00:00:00	2024-11-08T13:00:00	7	Dirección del viento	0
14167	7	Sololá	701	Sololá	1	Sololá	3	Marzo	2023-03-26T00:00:00	2024-11-08T13:00:00	1	Precipitación	0
14168	7	Sololá	701	Sololá	1	Sololá	3	Marzo	2023-03-26T00:00:00	2024-11-08T13:00:00	8	Radiación solar	329
14169	7	Sololá	701	Sololá	1	Sololá	3	Marzo	2023-03-26T00:00:00	2024-11-08T14:00:00	2	Temperatura media	18.8
14170	7	Sololá	701	Sololá	1	Sololá	3	Marzo	2023-03-26T00:00:00	2024-11-08T14:00:00	4	Temperatura máxima	18.8
14171	7	Sololá	701	Sololá	1	Sololá	3	Marzo	2023-03-26T00:00:00	2024-11-08T14:00:00	3	Temperatura mínima	18.4
14172	7	Sololá	701	Sololá	1	Sololá	3	Marzo	2023-03-26T00:00:00	2024-11-08T14:00:00	5	Humedad	77
14173	7	Sololá	701	Sololá	1	Sololá	3	Marzo	2023-03-26T00:00:00	2024-11-08T14:00:00	6	Velocidad del viento	0
14174	7	Sololá	701	Sololá	1	Sololá	3	Marzo	2023-03-26T00:00:00	2024-11-08T14:00:00	7	Dirección del viento	0
14175	7	Sololá	701	Sololá	1	Sololá	3	Marzo	2023-03-26T00:00:00	2024-11-08T14:00:00	1	Precipitación	0
14176	7	Sololá	701	Sololá	1	Sololá	3	Marzo	2023-03-26T00:00:00	2024-11-08T14:00:00	8	Radiación solar	202
14177	7	Sololá	701	Sololá	1	Sololá	3	Marzo	2023-03-26T00:00:00	2024-11-08T15:00:00	2	Temperatura media	18.3
14178	7	Sololá	701	Sololá	1	Sololá	3	Marzo	2023-03-26T00:00:00	2024-11-08T15:00:00	4	Temperatura máxima	19.6
14179	7	Sololá	701	Sololá	1	Sololá	3	Marzo	2023-03-26T00:00:00	2024-11-08T15:00:00	3	Temperatura mínima	18.3
14180	7	Sololá	701	Sololá	1	Sololá	3	Marzo	2023-03-26T00:00:00	2024-11-08T15:00:00	5	Humedad	80
14181	7	Sololá	701	Sololá	1	Sololá	3	Marzo	2023-03-26T00:00:00	2024-11-08T15:00:00	6	Velocidad del viento	0
14182	7	Sololá	701	Sololá	1	Sololá	3	Marzo	2023-03-26T00:00:00	2024-11-08T15:00:00	7	Dirección del viento	0
14183	7	Sololá	701	Sololá	1	Sololá	3	Marzo	2023-03-26T00:00:00	2024-11-08T15:00:00	1	Precipitación	0
14184	7	Sololá	701	Sololá	1	Sololá	3	Marzo	2023-03-26T00:00:00	2024-11-08T15:00:00	8	Radiación solar	143
14185	7	Sololá	701	Sololá	1	Sololá	3	Marzo	2023-03-26T00:00:00	2024-11-08T16:00:00	2	Temperatura media	17.7
14186	7	Sololá	701	Sololá	1	Sololá	3	Marzo	2023-03-26T00:00:00	2024-11-08T16:00:00	4	Temperatura máxima	18.6
14187	7	Sololá	701	Sololá	1	Sololá	3	Marzo	2023-03-26T00:00:00	2024-11-08T16:00:00	3	Temperatura mínima	17.7
14188	7	Sololá	701	Sololá	1	Sololá	3	Marzo	2023-03-26T00:00:00	2024-11-08T16:00:00	5	Humedad	84
14189	7	Sololá	701	Sololá	1	Sololá	3	Marzo	2023-03-26T00:00:00	2024-11-08T16:00:00	6	Velocidad del viento	0
14190	7	Sololá	701	Sololá	1	Sololá	3	Marzo	2023-03-26T00:00:00	2024-11-08T16:00:00	7	Dirección del viento	0
14191	7	Sololá	701	Sololá	1	Sololá	3	Marzo	2023-03-26T00:00:00	2024-11-08T16:00:00	1	Precipitación	0
14192	7	Sololá	701	Sololá	1	Sololá	3	Marzo	2023-03-26T00:00:00	2024-11-08T16:00:00	8	Radiación solar	66
14193	7	Sololá	701	Sololá	1	Sololá	3	Marzo	2023-03-26T00:00:00	2024-11-08T17:00:00	2	Temperatura media	16.8
14194	7	Sololá	701	Sololá	1	Sololá	3	Marzo	2023-03-26T00:00:00	2024-11-08T17:00:00	4	Temperatura máxima	17.7
14195	7	Sololá	701	Sololá	1	Sololá	3	Marzo	2023-03-26T00:00:00	2024-11-08T17:00:00	3	Temperatura mínima	16.8
14196	7	Sololá	701	Sololá	1	Sololá	3	Marzo	2023-03-26T00:00:00	2024-11-08T17:00:00	5	Humedad	88
14197	7	Sololá	701	Sololá	1	Sololá	3	Marzo	2023-03-26T00:00:00	2024-11-08T17:00:00	6	Velocidad del viento	0
14198	7	Sololá	701	Sololá	1	Sololá	3	Marzo	2023-03-26T00:00:00	2024-11-08T17:00:00	7	Dirección del viento	0
14199	7	Sololá	701	Sololá	1	Sololá	3	Marzo	2023-03-26T00:00:00	2024-11-08T17:00:00	1	Precipitación	0
14200	7	Sololá	701	Sololá	1	Sololá	3	Marzo	2023-03-26T00:00:00	2024-11-08T17:00:00	8	Radiación solar	63
14201	7	Sololá	701	Sololá	1	Sololá	3	Marzo	2023-03-26T00:00:00	2024-11-08T18:00:00	2	Temperatura media	16.6
14202	7	Sololá	701	Sololá	1	Sololá	3	Marzo	2023-03-26T00:00:00	2024-11-08T18:00:00	4	Temperatura máxima	16.8
14203	7	Sololá	701	Sololá	1	Sololá	3	Marzo	2023-03-26T00:00:00	2024-11-08T18:00:00	3	Temperatura mínima	16.5
14204	7	Sololá	701	Sololá	1	Sololá	3	Marzo	2023-03-26T00:00:00	2024-11-08T18:00:00	5	Humedad	89
14205	7	Sololá	701	Sololá	1	Sololá	3	Marzo	2023-03-26T00:00:00	2024-11-08T18:00:00	6	Velocidad del viento	0
14206	7	Sololá	701	Sololá	1	Sololá	3	Marzo	2023-03-26T00:00:00	2024-11-08T18:00:00	7	Dirección del viento	0
14207	7	Sololá	701	Sololá	1	Sololá	3	Marzo	2023-03-26T00:00:00	2024-11-08T18:00:00	1	Precipitación	0
14208	7	Sololá	701	Sololá	1	Sololá	3	Marzo	2023-03-26T00:00:00	2024-11-08T18:00:00	8	Radiación solar	20
14209	7	Sololá	701	Sololá	1	Sololá	3	Marzo	2023-03-26T00:00:00	2024-11-08T19:00:00	2	Temperatura media	15.8
14210	7	Sololá	701	Sololá	1	Sololá	3	Marzo	2023-03-26T00:00:00	2024-11-08T19:00:00	4	Temperatura máxima	16.6
14211	7	Sololá	701	Sololá	1	Sololá	3	Marzo	2023-03-26T00:00:00	2024-11-08T19:00:00	3	Temperatura mínima	15.8
14212	7	Sololá	701	Sololá	1	Sololá	3	Marzo	2023-03-26T00:00:00	2024-11-08T19:00:00	5	Humedad	90
14213	7	Sololá	701	Sololá	1	Sololá	3	Marzo	2023-03-26T00:00:00	2024-11-08T19:00:00	6	Velocidad del viento	0
14214	7	Sololá	701	Sololá	1	Sololá	3	Marzo	2023-03-26T00:00:00	2024-11-08T19:00:00	7	Dirección del viento	0
14215	7	Sololá	701	Sololá	1	Sololá	3	Marzo	2023-03-26T00:00:00	2024-11-08T19:00:00	1	Precipitación	0
14216	7	Sololá	701	Sololá	1	Sololá	3	Marzo	2023-03-26T00:00:00	2024-11-08T19:00:00	8	Radiación solar	0
14217	7	Sololá	701	Sololá	1	Sololá	3	Marzo	2023-03-26T00:00:00	2024-11-08T20:00:00	2	Temperatura media	14.7
14218	7	Sololá	701	Sololá	1	Sololá	3	Marzo	2023-03-26T00:00:00	2024-11-08T20:00:00	4	Temperatura máxima	15.9
14219	7	Sololá	701	Sololá	1	Sololá	3	Marzo	2023-03-26T00:00:00	2024-11-08T20:00:00	3	Temperatura mínima	14.7
14220	7	Sololá	701	Sololá	1	Sololá	3	Marzo	2023-03-26T00:00:00	2024-11-08T20:00:00	5	Humedad	90
14221	7	Sololá	701	Sololá	1	Sololá	3	Marzo	2023-03-26T00:00:00	2024-11-08T20:00:00	6	Velocidad del viento	0
14222	7	Sololá	701	Sololá	1	Sololá	3	Marzo	2023-03-26T00:00:00	2024-11-08T20:00:00	7	Dirección del viento	0
14223	7	Sololá	701	Sololá	1	Sololá	3	Marzo	2023-03-26T00:00:00	2024-11-08T20:00:00	1	Precipitación	0
14224	7	Sololá	701	Sololá	1	Sololá	3	Marzo	2023-03-26T00:00:00	2024-11-08T20:00:00	8	Radiación solar	0
14225	7	Sololá	701	Sololá	1	Sololá	3	Marzo	2023-03-26T00:00:00	2024-11-08T21:00:00	2	Temperatura media	13.8
14226	7	Sololá	701	Sololá	1	Sololá	3	Marzo	2023-03-26T00:00:00	2024-11-08T21:00:00	4	Temperatura máxima	14.7
14227	7	Sololá	701	Sololá	1	Sololá	3	Marzo	2023-03-26T00:00:00	2024-11-08T21:00:00	3	Temperatura mínima	13.7
14228	7	Sololá	701	Sololá	1	Sololá	3	Marzo	2023-03-26T00:00:00	2024-11-08T21:00:00	5	Humedad	92
14229	7	Sololá	701	Sololá	1	Sololá	3	Marzo	2023-03-26T00:00:00	2024-11-08T21:00:00	6	Velocidad del viento	0
14230	7	Sololá	701	Sololá	1	Sololá	3	Marzo	2023-03-26T00:00:00	2024-11-08T21:00:00	7	Dirección del viento	0
14231	7	Sololá	701	Sololá	1	Sololá	3	Marzo	2023-03-26T00:00:00	2024-11-08T21:00:00	1	Precipitación	0
14232	7	Sololá	701	Sololá	1	Sololá	3	Marzo	2023-03-26T00:00:00	2024-11-08T21:00:00	8	Radiación solar	0
14233	7	Sololá	701	Sololá	1	Sololá	3	Marzo	2023-03-26T00:00:00	2024-11-08T22:00:00	2	Temperatura media	13.2
14234	7	Sololá	701	Sololá	1	Sololá	3	Marzo	2023-03-26T00:00:00	2024-11-08T22:00:00	4	Temperatura máxima	13.8
14235	7	Sololá	701	Sololá	1	Sololá	3	Marzo	2023-03-26T00:00:00	2024-11-08T22:00:00	3	Temperatura mínima	13.2
14236	7	Sololá	701	Sololá	1	Sololá	3	Marzo	2023-03-26T00:00:00	2024-11-08T22:00:00	5	Humedad	89
14237	7	Sololá	701	Sololá	1	Sololá	3	Marzo	2023-03-26T00:00:00	2024-11-08T22:00:00	6	Velocidad del viento	0
14238	7	Sololá	701	Sololá	1	Sololá	3	Marzo	2023-03-26T00:00:00	2024-11-08T22:00:00	7	Dirección del viento	0
14239	7	Sololá	701	Sololá	1	Sololá	3	Marzo	2023-03-26T00:00:00	2024-11-08T22:00:00	1	Precipitación	0
14240	7	Sololá	701	Sololá	1	Sololá	3	Marzo	2023-03-26T00:00:00	2024-11-08T22:00:00	8	Radiación solar	0
14241	7	Sololá	701	Sololá	1	Sololá	3	Marzo	2023-03-26T00:00:00	2024-11-08T23:00:00	2	Temperatura media	12.8
14242	7	Sololá	701	Sololá	1	Sololá	3	Marzo	2023-03-26T00:00:00	2024-11-08T23:00:00	4	Temperatura máxima	13.2
14243	7	Sololá	701	Sololá	1	Sololá	3	Marzo	2023-03-26T00:00:00	2024-11-08T23:00:00	3	Temperatura mínima	12.8
14244	7	Sololá	701	Sololá	1	Sololá	3	Marzo	2023-03-26T00:00:00	2024-11-08T23:00:00	5	Humedad	89
14245	7	Sololá	701	Sololá	1	Sololá	3	Marzo	2023-03-26T00:00:00	2024-11-08T23:00:00	6	Velocidad del viento	0
14246	7	Sololá	701	Sololá	1	Sololá	3	Marzo	2023-03-26T00:00:00	2024-11-08T23:00:00	7	Dirección del viento	0
14247	7	Sololá	701	Sololá	1	Sololá	3	Marzo	2023-03-26T00:00:00	2024-11-08T23:00:00	1	Precipitación	0
14248	7	Sololá	701	Sololá	1	Sololá	3	Marzo	2023-03-26T00:00:00	2024-11-08T23:00:00	8	Radiación solar	0
14249	7	Sololá	701	Sololá	1	Sololá	3	Marzo	2023-03-27T00:00:00	2024-11-08T00:00:00	2	Temperatura media	12.7
14250	7	Sololá	701	Sololá	1	Sololá	3	Marzo	2023-03-27T00:00:00	2024-11-08T00:00:00	4	Temperatura máxima	12.8
14251	7	Sololá	701	Sololá	1	Sololá	3	Marzo	2023-03-27T00:00:00	2024-11-08T00:00:00	3	Temperatura mínima	12.6
14252	7	Sololá	701	Sololá	1	Sololá	3	Marzo	2023-03-27T00:00:00	2024-11-08T00:00:00	5	Humedad	92
14253	7	Sololá	701	Sololá	1	Sololá	3	Marzo	2023-03-27T00:00:00	2024-11-08T00:00:00	6	Velocidad del viento	0
14254	7	Sololá	701	Sololá	1	Sololá	3	Marzo	2023-03-27T00:00:00	2024-11-08T00:00:00	7	Dirección del viento	0
14255	7	Sololá	701	Sololá	1	Sololá	3	Marzo	2023-03-27T00:00:00	2024-11-08T00:00:00	1	Precipitación	0
14256	7	Sololá	701	Sololá	1	Sololá	3	Marzo	2023-03-27T00:00:00	2024-11-08T00:00:00	8	Radiación solar	0
14257	7	Sololá	701	Sololá	1	Sololá	3	Marzo	2023-03-27T00:00:00	2024-11-08T01:00:00	2	Temperatura media	12.7
14258	7	Sololá	701	Sololá	1	Sololá	3	Marzo	2023-03-27T00:00:00	2024-11-08T01:00:00	4	Temperatura máxima	12.8
14259	7	Sololá	701	Sololá	1	Sololá	3	Marzo	2023-03-27T00:00:00	2024-11-08T01:00:00	3	Temperatura mínima	12.5
14260	7	Sololá	701	Sololá	1	Sololá	3	Marzo	2023-03-27T00:00:00	2024-11-08T01:00:00	5	Humedad	94
14261	7	Sololá	701	Sololá	1	Sololá	3	Marzo	2023-03-27T00:00:00	2024-11-08T01:00:00	6	Velocidad del viento	0
14262	7	Sololá	701	Sololá	1	Sololá	3	Marzo	2023-03-27T00:00:00	2024-11-08T01:00:00	7	Dirección del viento	0
14263	7	Sololá	701	Sololá	1	Sololá	3	Marzo	2023-03-27T00:00:00	2024-11-08T01:00:00	1	Precipitación	0
14264	7	Sololá	701	Sololá	1	Sololá	3	Marzo	2023-03-27T00:00:00	2024-11-08T01:00:00	8	Radiación solar	0
14265	7	Sololá	701	Sololá	1	Sololá	3	Marzo	2023-03-27T00:00:00	2024-11-08T02:00:00	2	Temperatura media	12.6
14266	7	Sololá	701	Sololá	1	Sololá	3	Marzo	2023-03-27T00:00:00	2024-11-08T02:00:00	4	Temperatura máxima	12.9
14267	7	Sololá	701	Sololá	1	Sololá	3	Marzo	2023-03-27T00:00:00	2024-11-08T02:00:00	3	Temperatura mínima	12.6
14268	7	Sololá	701	Sololá	1	Sololá	3	Marzo	2023-03-27T00:00:00	2024-11-08T02:00:00	5	Humedad	89
14269	7	Sololá	701	Sololá	1	Sololá	3	Marzo	2023-03-27T00:00:00	2024-11-08T02:00:00	6	Velocidad del viento	0
14270	7	Sololá	701	Sololá	1	Sololá	3	Marzo	2023-03-27T00:00:00	2024-11-08T02:00:00	7	Dirección del viento	0
14271	7	Sololá	701	Sololá	1	Sololá	3	Marzo	2023-03-27T00:00:00	2024-11-08T02:00:00	1	Precipitación	0
14272	7	Sololá	701	Sololá	1	Sololá	3	Marzo	2023-03-27T00:00:00	2024-11-08T02:00:00	8	Radiación solar	0
14273	7	Sololá	701	Sololá	1	Sololá	3	Marzo	2023-03-27T00:00:00	2024-11-08T03:00:00	2	Temperatura media	12.4
14274	7	Sololá	701	Sololá	1	Sololá	3	Marzo	2023-03-27T00:00:00	2024-11-08T03:00:00	4	Temperatura máxima	12.6
14275	7	Sololá	701	Sololá	1	Sololá	3	Marzo	2023-03-27T00:00:00	2024-11-08T03:00:00	3	Temperatura mínima	12.3
14276	7	Sololá	701	Sololá	1	Sololá	3	Marzo	2023-03-27T00:00:00	2024-11-08T03:00:00	5	Humedad	89
14277	7	Sololá	701	Sololá	1	Sololá	3	Marzo	2023-03-27T00:00:00	2024-11-08T03:00:00	6	Velocidad del viento	0
14278	7	Sololá	701	Sololá	1	Sololá	3	Marzo	2023-03-27T00:00:00	2024-11-08T03:00:00	7	Dirección del viento	0
14279	7	Sololá	701	Sololá	1	Sololá	3	Marzo	2023-03-27T00:00:00	2024-11-08T03:00:00	1	Precipitación	0
14280	7	Sololá	701	Sololá	1	Sololá	3	Marzo	2023-03-27T00:00:00	2024-11-08T03:00:00	8	Radiación solar	0
14281	7	Sololá	701	Sololá	1	Sololá	3	Marzo	2023-03-27T00:00:00	2024-11-08T04:00:00	2	Temperatura media	12.6
14282	7	Sololá	701	Sololá	1	Sololá	3	Marzo	2023-03-27T00:00:00	2024-11-08T04:00:00	4	Temperatura máxima	12.6
14283	7	Sololá	701	Sololá	1	Sololá	3	Marzo	2023-03-27T00:00:00	2024-11-08T04:00:00	3	Temperatura mínima	12.3
14284	7	Sololá	701	Sololá	1	Sololá	3	Marzo	2023-03-27T00:00:00	2024-11-08T04:00:00	5	Humedad	91
14285	7	Sololá	701	Sololá	1	Sololá	3	Marzo	2023-03-27T00:00:00	2024-11-08T04:00:00	6	Velocidad del viento	0
14286	7	Sololá	701	Sololá	1	Sololá	3	Marzo	2023-03-27T00:00:00	2024-11-08T04:00:00	7	Dirección del viento	0
14287	7	Sololá	701	Sololá	1	Sololá	3	Marzo	2023-03-27T00:00:00	2024-11-08T04:00:00	1	Precipitación	0
14288	7	Sololá	701	Sololá	1	Sololá	3	Marzo	2023-03-27T00:00:00	2024-11-08T04:00:00	8	Radiación solar	0
14289	7	Sololá	701	Sololá	1	Sololá	3	Marzo	2023-03-27T00:00:00	2024-11-08T05:00:00	2	Temperatura media	12.7
14290	7	Sololá	701	Sololá	1	Sololá	3	Marzo	2023-03-27T00:00:00	2024-11-08T05:00:00	4	Temperatura máxima	12.7
14291	7	Sololá	701	Sololá	1	Sololá	3	Marzo	2023-03-27T00:00:00	2024-11-08T05:00:00	3	Temperatura mínima	12.4
14292	7	Sololá	701	Sololá	1	Sololá	3	Marzo	2023-03-27T00:00:00	2024-11-08T05:00:00	5	Humedad	87
14293	7	Sololá	701	Sololá	1	Sololá	3	Marzo	2023-03-27T00:00:00	2024-11-08T05:00:00	6	Velocidad del viento	0
14294	7	Sololá	701	Sololá	1	Sololá	3	Marzo	2023-03-27T00:00:00	2024-11-08T05:00:00	7	Dirección del viento	0
14295	7	Sololá	701	Sololá	1	Sololá	3	Marzo	2023-03-27T00:00:00	2024-11-08T05:00:00	1	Precipitación	0
14296	7	Sololá	701	Sololá	1	Sololá	3	Marzo	2023-03-27T00:00:00	2024-11-08T05:00:00	8	Radiación solar	0
14297	7	Sololá	701	Sololá	1	Sololá	3	Marzo	2023-03-27T00:00:00	2024-11-08T06:00:00	2	Temperatura media	12.5
14298	7	Sololá	701	Sololá	1	Sololá	3	Marzo	2023-03-27T00:00:00	2024-11-08T06:00:00	4	Temperatura máxima	12.8
14299	7	Sololá	701	Sololá	1	Sololá	3	Marzo	2023-03-27T00:00:00	2024-11-08T06:00:00	3	Temperatura mínima	12.5
14300	7	Sololá	701	Sololá	1	Sololá	3	Marzo	2023-03-27T00:00:00	2024-11-08T06:00:00	5	Humedad	89
14301	7	Sololá	701	Sololá	1	Sololá	3	Marzo	2023-03-27T00:00:00	2024-11-08T06:00:00	6	Velocidad del viento	0
14302	7	Sololá	701	Sololá	1	Sololá	3	Marzo	2023-03-27T00:00:00	2024-11-08T06:00:00	7	Dirección del viento	0
14303	7	Sololá	701	Sololá	1	Sololá	3	Marzo	2023-03-27T00:00:00	2024-11-08T06:00:00	1	Precipitación	0
14304	7	Sololá	701	Sololá	1	Sololá	3	Marzo	2023-03-27T00:00:00	2024-11-08T06:00:00	8	Radiación solar	0
14305	7	Sololá	701	Sololá	1	Sololá	3	Marzo	2023-03-27T00:00:00	2024-11-08T07:00:00	2	Temperatura media	11.4
14306	7	Sololá	701	Sololá	1	Sololá	3	Marzo	2023-03-27T00:00:00	2024-11-08T07:00:00	4	Temperatura máxima	12.5
14307	7	Sololá	701	Sololá	1	Sololá	3	Marzo	2023-03-27T00:00:00	2024-11-08T07:00:00	3	Temperatura mínima	11.4
14308	7	Sololá	701	Sololá	1	Sololá	3	Marzo	2023-03-27T00:00:00	2024-11-08T07:00:00	5	Humedad	91
14309	7	Sololá	701	Sololá	1	Sololá	3	Marzo	2023-03-27T00:00:00	2024-11-08T07:00:00	6	Velocidad del viento	0
14310	7	Sololá	701	Sololá	1	Sololá	3	Marzo	2023-03-27T00:00:00	2024-11-08T07:00:00	7	Dirección del viento	0
14311	7	Sololá	701	Sololá	1	Sololá	3	Marzo	2023-03-27T00:00:00	2024-11-08T07:00:00	1	Precipitación	0
14312	7	Sololá	701	Sololá	1	Sololá	3	Marzo	2023-03-27T00:00:00	2024-11-08T07:00:00	8	Radiación solar	14
14313	7	Sololá	701	Sololá	1	Sololá	3	Marzo	2023-03-27T00:00:00	2024-11-08T08:00:00	2	Temperatura media	11.1
14314	7	Sololá	701	Sololá	1	Sololá	3	Marzo	2023-03-27T00:00:00	2024-11-08T08:00:00	4	Temperatura máxima	11.4
14315	7	Sololá	701	Sololá	1	Sololá	3	Marzo	2023-03-27T00:00:00	2024-11-08T08:00:00	3	Temperatura mínima	11
14316	7	Sololá	701	Sololá	1	Sololá	3	Marzo	2023-03-27T00:00:00	2024-11-08T08:00:00	5	Humedad	91
14317	7	Sololá	701	Sololá	1	Sololá	3	Marzo	2023-03-27T00:00:00	2024-11-08T08:00:00	6	Velocidad del viento	0
14318	7	Sololá	701	Sololá	1	Sololá	3	Marzo	2023-03-27T00:00:00	2024-11-08T08:00:00	7	Dirección del viento	0
14319	7	Sololá	701	Sololá	1	Sololá	3	Marzo	2023-03-27T00:00:00	2024-11-08T08:00:00	1	Precipitación	0
14320	7	Sololá	701	Sololá	1	Sololá	3	Marzo	2023-03-27T00:00:00	2024-11-08T08:00:00	8	Radiación solar	244
14321	7	Sololá	701	Sololá	1	Sololá	3	Marzo	2023-03-27T00:00:00	2024-11-08T09:00:00	2	Temperatura media	15.2
14322	7	Sololá	701	Sololá	1	Sololá	3	Marzo	2023-03-27T00:00:00	2024-11-08T09:00:00	4	Temperatura máxima	15.2
14323	7	Sololá	701	Sololá	1	Sololá	3	Marzo	2023-03-27T00:00:00	2024-11-08T09:00:00	3	Temperatura mínima	11.1
14324	7	Sololá	701	Sololá	1	Sololá	3	Marzo	2023-03-27T00:00:00	2024-11-08T09:00:00	5	Humedad	77
14325	7	Sololá	701	Sololá	1	Sololá	3	Marzo	2023-03-27T00:00:00	2024-11-08T09:00:00	6	Velocidad del viento	0
14326	7	Sololá	701	Sololá	1	Sololá	3	Marzo	2023-03-27T00:00:00	2024-11-08T09:00:00	7	Dirección del viento	0
14327	7	Sololá	701	Sololá	1	Sololá	3	Marzo	2023-03-27T00:00:00	2024-11-08T09:00:00	1	Precipitación	0
14328	7	Sololá	701	Sololá	1	Sololá	3	Marzo	2023-03-27T00:00:00	2024-11-08T09:00:00	8	Radiación solar	563
14329	7	Sololá	701	Sololá	1	Sololá	3	Marzo	2023-03-27T00:00:00	2024-11-08T10:00:00	2	Temperatura media	17.9
14330	7	Sololá	701	Sololá	1	Sololá	3	Marzo	2023-03-27T00:00:00	2024-11-08T10:00:00	4	Temperatura máxima	17.9
14331	7	Sololá	701	Sololá	1	Sololá	3	Marzo	2023-03-27T00:00:00	2024-11-08T10:00:00	3	Temperatura mínima	15.2
14332	7	Sololá	701	Sololá	1	Sololá	3	Marzo	2023-03-27T00:00:00	2024-11-08T10:00:00	5	Humedad	73
14333	7	Sololá	701	Sololá	1	Sololá	3	Marzo	2023-03-27T00:00:00	2024-11-08T10:00:00	6	Velocidad del viento	0
14334	7	Sololá	701	Sololá	1	Sololá	3	Marzo	2023-03-27T00:00:00	2024-11-08T10:00:00	7	Dirección del viento	0
14335	7	Sololá	701	Sololá	1	Sololá	3	Marzo	2023-03-27T00:00:00	2024-11-08T10:00:00	1	Precipitación	0
14336	7	Sololá	701	Sololá	1	Sololá	3	Marzo	2023-03-27T00:00:00	2024-11-08T10:00:00	8	Radiación solar	774
14337	7	Sololá	701	Sololá	1	Sololá	3	Marzo	2023-03-27T00:00:00	2024-11-08T11:00:00	2	Temperatura media	19.1
14338	7	Sololá	701	Sololá	1	Sololá	3	Marzo	2023-03-27T00:00:00	2024-11-08T11:00:00	4	Temperatura máxima	19.2
14339	7	Sololá	701	Sololá	1	Sololá	3	Marzo	2023-03-27T00:00:00	2024-11-08T11:00:00	3	Temperatura mínima	17.9
14340	7	Sololá	701	Sololá	1	Sololá	3	Marzo	2023-03-27T00:00:00	2024-11-08T11:00:00	5	Humedad	69
14341	7	Sololá	701	Sololá	1	Sololá	3	Marzo	2023-03-27T00:00:00	2024-11-08T11:00:00	6	Velocidad del viento	0
14342	7	Sololá	701	Sololá	1	Sololá	3	Marzo	2023-03-27T00:00:00	2024-11-08T11:00:00	7	Dirección del viento	0
14343	7	Sololá	701	Sololá	1	Sololá	3	Marzo	2023-03-27T00:00:00	2024-11-08T11:00:00	1	Precipitación	0
14344	7	Sololá	701	Sololá	1	Sololá	3	Marzo	2023-03-27T00:00:00	2024-11-08T11:00:00	8	Radiación solar	913
14345	7	Sololá	701	Sololá	1	Sololá	3	Marzo	2023-03-27T00:00:00	2024-11-08T12:00:00	2	Temperatura media	20.3
14346	7	Sololá	701	Sololá	1	Sololá	3	Marzo	2023-03-27T00:00:00	2024-11-08T12:00:00	4	Temperatura máxima	20.4
14347	7	Sololá	701	Sololá	1	Sololá	3	Marzo	2023-03-27T00:00:00	2024-11-08T12:00:00	3	Temperatura mínima	19.1
14348	7	Sololá	701	Sololá	1	Sololá	3	Marzo	2023-03-27T00:00:00	2024-11-08T12:00:00	5	Humedad	64
14349	7	Sololá	701	Sololá	1	Sololá	3	Marzo	2023-03-27T00:00:00	2024-11-08T12:00:00	6	Velocidad del viento	0
14350	7	Sololá	701	Sololá	1	Sololá	3	Marzo	2023-03-27T00:00:00	2024-11-08T12:00:00	7	Dirección del viento	0
14351	7	Sololá	701	Sololá	1	Sololá	3	Marzo	2023-03-27T00:00:00	2024-11-08T12:00:00	1	Precipitación	0
14352	7	Sololá	701	Sololá	1	Sololá	3	Marzo	2023-03-27T00:00:00	2024-11-08T12:00:00	8	Radiación solar	1024
14353	7	Sololá	701	Sololá	1	Sololá	3	Marzo	2023-03-27T00:00:00	2024-11-08T13:00:00	2	Temperatura media	21.2
14354	7	Sololá	701	Sololá	1	Sololá	3	Marzo	2023-03-27T00:00:00	2024-11-08T13:00:00	4	Temperatura máxima	21.4
14355	7	Sololá	701	Sololá	1	Sololá	3	Marzo	2023-03-27T00:00:00	2024-11-08T13:00:00	3	Temperatura mínima	20.3
14356	7	Sololá	701	Sololá	1	Sololá	3	Marzo	2023-03-27T00:00:00	2024-11-08T13:00:00	5	Humedad	66
14357	7	Sololá	701	Sololá	1	Sololá	3	Marzo	2023-03-27T00:00:00	2024-11-08T13:00:00	6	Velocidad del viento	1.6
14358	7	Sololá	701	Sololá	1	Sololá	3	Marzo	2023-03-27T00:00:00	2024-11-08T13:00:00	7	Dirección del viento	1.61
14359	7	Sololá	701	Sololá	1	Sololá	3	Marzo	2023-03-27T00:00:00	2024-11-08T13:00:00	1	Precipitación	0
14360	7	Sololá	701	Sololá	1	Sololá	3	Marzo	2023-03-27T00:00:00	2024-11-08T13:00:00	8	Radiación solar	984
14361	7	Sololá	701	Sololá	1	Sololá	3	Marzo	2023-03-27T00:00:00	2024-11-08T14:00:00	2	Temperatura media	21.4
14362	7	Sololá	701	Sololá	1	Sololá	3	Marzo	2023-03-27T00:00:00	2024-11-08T14:00:00	4	Temperatura máxima	21.7
14363	7	Sololá	701	Sololá	1	Sololá	3	Marzo	2023-03-27T00:00:00	2024-11-08T14:00:00	3	Temperatura mínima	21.1
14364	7	Sololá	701	Sololá	1	Sololá	3	Marzo	2023-03-27T00:00:00	2024-11-08T14:00:00	5	Humedad	68
14365	7	Sololá	701	Sololá	1	Sololá	3	Marzo	2023-03-27T00:00:00	2024-11-08T14:00:00	6	Velocidad del viento	1.6
14366	7	Sololá	701	Sololá	1	Sololá	3	Marzo	2023-03-27T00:00:00	2024-11-08T14:00:00	7	Dirección del viento	1.61
14367	7	Sololá	701	Sololá	1	Sololá	3	Marzo	2023-03-27T00:00:00	2024-11-08T14:00:00	1	Precipitación	0
14368	7	Sololá	701	Sololá	1	Sololá	3	Marzo	2023-03-27T00:00:00	2024-11-08T14:00:00	8	Radiación solar	497
14369	7	Sololá	701	Sololá	1	Sololá	3	Marzo	2023-03-27T00:00:00	2024-11-08T15:00:00	2	Temperatura media	21.3
14370	7	Sololá	701	Sololá	1	Sololá	3	Marzo	2023-03-27T00:00:00	2024-11-08T15:00:00	4	Temperatura máxima	21.8
14371	7	Sololá	701	Sololá	1	Sololá	3	Marzo	2023-03-27T00:00:00	2024-11-08T15:00:00	3	Temperatura mínima	21.3
14372	7	Sololá	701	Sololá	1	Sololá	3	Marzo	2023-03-27T00:00:00	2024-11-08T15:00:00	5	Humedad	72
14373	7	Sololá	701	Sololá	1	Sololá	3	Marzo	2023-03-27T00:00:00	2024-11-08T15:00:00	6	Velocidad del viento	0
14374	7	Sololá	701	Sololá	1	Sololá	3	Marzo	2023-03-27T00:00:00	2024-11-08T15:00:00	7	Dirección del viento	0
14375	7	Sololá	701	Sololá	1	Sololá	3	Marzo	2023-03-27T00:00:00	2024-11-08T15:00:00	1	Precipitación	0
14376	7	Sololá	701	Sololá	1	Sololá	3	Marzo	2023-03-27T00:00:00	2024-11-08T15:00:00	8	Radiación solar	246
14377	7	Sololá	701	Sololá	1	Sololá	3	Marzo	2023-03-27T00:00:00	2024-11-08T16:00:00	2	Temperatura media	21.3
14378	7	Sololá	701	Sololá	1	Sololá	3	Marzo	2023-03-27T00:00:00	2024-11-08T16:00:00	4	Temperatura máxima	21.6
14379	7	Sololá	701	Sololá	1	Sololá	3	Marzo	2023-03-27T00:00:00	2024-11-08T16:00:00	3	Temperatura mínima	20.9
14380	7	Sololá	701	Sololá	1	Sololá	3	Marzo	2023-03-27T00:00:00	2024-11-08T16:00:00	5	Humedad	72
14381	7	Sololá	701	Sololá	1	Sololá	3	Marzo	2023-03-27T00:00:00	2024-11-08T16:00:00	6	Velocidad del viento	0
14382	7	Sololá	701	Sololá	1	Sololá	3	Marzo	2023-03-27T00:00:00	2024-11-08T16:00:00	7	Dirección del viento	0
14383	7	Sololá	701	Sololá	1	Sololá	3	Marzo	2023-03-27T00:00:00	2024-11-08T16:00:00	1	Precipitación	0
14384	7	Sololá	701	Sololá	1	Sololá	3	Marzo	2023-03-27T00:00:00	2024-11-08T16:00:00	8	Radiación solar	200
14385	7	Sololá	701	Sololá	1	Sololá	3	Marzo	2023-03-27T00:00:00	2024-11-08T17:00:00	2	Temperatura media	20.8
14386	7	Sololá	701	Sololá	1	Sololá	3	Marzo	2023-03-27T00:00:00	2024-11-08T17:00:00	4	Temperatura máxima	21.6
14387	7	Sololá	701	Sololá	1	Sololá	3	Marzo	2023-03-27T00:00:00	2024-11-08T17:00:00	3	Temperatura mínima	20.8
14388	7	Sololá	701	Sololá	1	Sololá	3	Marzo	2023-03-27T00:00:00	2024-11-08T17:00:00	5	Humedad	75
14389	7	Sololá	701	Sololá	1	Sololá	3	Marzo	2023-03-27T00:00:00	2024-11-08T17:00:00	6	Velocidad del viento	0
14390	7	Sololá	701	Sololá	1	Sololá	3	Marzo	2023-03-27T00:00:00	2024-11-08T17:00:00	7	Dirección del viento	0
14391	7	Sololá	701	Sololá	1	Sololá	3	Marzo	2023-03-27T00:00:00	2024-11-08T17:00:00	1	Precipitación	0
14392	7	Sololá	701	Sololá	1	Sololá	3	Marzo	2023-03-27T00:00:00	2024-11-08T17:00:00	8	Radiación solar	135
14393	7	Sololá	701	Sololá	1	Sololá	3	Marzo	2023-03-27T00:00:00	2024-11-08T18:00:00	2	Temperatura media	19.7
14394	7	Sololá	701	Sololá	1	Sololá	3	Marzo	2023-03-27T00:00:00	2024-11-08T18:00:00	4	Temperatura máxima	20.8
14395	7	Sololá	701	Sololá	1	Sololá	3	Marzo	2023-03-27T00:00:00	2024-11-08T18:00:00	3	Temperatura mínima	19.7
14396	7	Sololá	701	Sololá	1	Sololá	3	Marzo	2023-03-27T00:00:00	2024-11-08T18:00:00	5	Humedad	78
14397	7	Sololá	701	Sololá	1	Sololá	3	Marzo	2023-03-27T00:00:00	2024-11-08T18:00:00	6	Velocidad del viento	0
14398	7	Sololá	701	Sololá	1	Sololá	3	Marzo	2023-03-27T00:00:00	2024-11-08T18:00:00	7	Dirección del viento	0
14399	7	Sololá	701	Sololá	1	Sololá	3	Marzo	2023-03-27T00:00:00	2024-11-08T18:00:00	1	Precipitación	0
14400	7	Sololá	701	Sololá	1	Sololá	3	Marzo	2023-03-27T00:00:00	2024-11-08T18:00:00	8	Radiación solar	80
14401	7	Sololá	701	Sololá	1	Sololá	3	Marzo	2023-03-27T00:00:00	2024-11-08T19:00:00	2	Temperatura media	17.8
14402	7	Sololá	701	Sololá	1	Sololá	3	Marzo	2023-03-27T00:00:00	2024-11-08T19:00:00	4	Temperatura máxima	19.7
14403	7	Sololá	701	Sololá	1	Sololá	3	Marzo	2023-03-27T00:00:00	2024-11-08T19:00:00	3	Temperatura mínima	17.8
14404	7	Sololá	701	Sololá	1	Sololá	3	Marzo	2023-03-27T00:00:00	2024-11-08T19:00:00	5	Humedad	84
14405	7	Sololá	701	Sololá	1	Sololá	3	Marzo	2023-03-27T00:00:00	2024-11-08T19:00:00	6	Velocidad del viento	0
14406	7	Sololá	701	Sololá	1	Sololá	3	Marzo	2023-03-27T00:00:00	2024-11-08T19:00:00	7	Dirección del viento	0
14407	7	Sololá	701	Sololá	1	Sololá	3	Marzo	2023-03-27T00:00:00	2024-11-08T19:00:00	1	Precipitación	0
14408	7	Sololá	701	Sololá	1	Sololá	3	Marzo	2023-03-27T00:00:00	2024-11-08T19:00:00	8	Radiación solar	0
14409	7	Sololá	701	Sololá	1	Sololá	3	Marzo	2023-03-27T00:00:00	2024-11-08T20:00:00	2	Temperatura media	16.4
14410	7	Sololá	701	Sololá	1	Sololá	3	Marzo	2023-03-27T00:00:00	2024-11-08T20:00:00	4	Temperatura máxima	17.8
14411	7	Sololá	701	Sololá	1	Sololá	3	Marzo	2023-03-27T00:00:00	2024-11-08T20:00:00	3	Temperatura mínima	16.4
14412	7	Sololá	701	Sololá	1	Sololá	3	Marzo	2023-03-27T00:00:00	2024-11-08T20:00:00	5	Humedad	87
14413	7	Sololá	701	Sololá	1	Sololá	3	Marzo	2023-03-27T00:00:00	2024-11-08T20:00:00	6	Velocidad del viento	0
14414	7	Sololá	701	Sololá	1	Sololá	3	Marzo	2023-03-27T00:00:00	2024-11-08T20:00:00	7	Dirección del viento	0
14415	7	Sololá	701	Sololá	1	Sololá	3	Marzo	2023-03-27T00:00:00	2024-11-08T20:00:00	1	Precipitación	0
14416	7	Sololá	701	Sololá	1	Sololá	3	Marzo	2023-03-27T00:00:00	2024-11-08T20:00:00	8	Radiación solar	0
14417	7	Sololá	701	Sololá	1	Sololá	3	Marzo	2023-03-27T00:00:00	2024-11-08T21:00:00	2	Temperatura media	15.8
14418	7	Sololá	701	Sololá	1	Sololá	3	Marzo	2023-03-27T00:00:00	2024-11-08T21:00:00	4	Temperatura máxima	16.5
14419	7	Sololá	701	Sololá	1	Sololá	3	Marzo	2023-03-27T00:00:00	2024-11-08T21:00:00	3	Temperatura mínima	15.8
14420	7	Sololá	701	Sololá	1	Sololá	3	Marzo	2023-03-27T00:00:00	2024-11-08T21:00:00	5	Humedad	87
14421	7	Sololá	701	Sololá	1	Sololá	3	Marzo	2023-03-27T00:00:00	2024-11-08T21:00:00	6	Velocidad del viento	0
14422	7	Sololá	701	Sololá	1	Sololá	3	Marzo	2023-03-27T00:00:00	2024-11-08T21:00:00	7	Dirección del viento	0
14423	7	Sololá	701	Sololá	1	Sololá	3	Marzo	2023-03-27T00:00:00	2024-11-08T21:00:00	1	Precipitación	0
14424	7	Sololá	701	Sololá	1	Sololá	3	Marzo	2023-03-27T00:00:00	2024-11-08T21:00:00	8	Radiación solar	0
14425	7	Sololá	701	Sololá	1	Sololá	3	Marzo	2023-03-27T00:00:00	2024-11-08T22:00:00	2	Temperatura media	14.4
14426	7	Sololá	701	Sololá	1	Sololá	3	Marzo	2023-03-27T00:00:00	2024-11-08T22:00:00	4	Temperatura máxima	15.8
14427	7	Sololá	701	Sololá	1	Sololá	3	Marzo	2023-03-27T00:00:00	2024-11-08T22:00:00	3	Temperatura mínima	14.4
14428	7	Sololá	701	Sololá	1	Sololá	3	Marzo	2023-03-27T00:00:00	2024-11-08T22:00:00	5	Humedad	89
14429	7	Sololá	701	Sololá	1	Sololá	3	Marzo	2023-03-27T00:00:00	2024-11-08T22:00:00	6	Velocidad del viento	0
14430	7	Sololá	701	Sololá	1	Sololá	3	Marzo	2023-03-27T00:00:00	2024-11-08T22:00:00	7	Dirección del viento	0
14431	7	Sololá	701	Sololá	1	Sololá	3	Marzo	2023-03-27T00:00:00	2024-11-08T22:00:00	1	Precipitación	0
14432	7	Sololá	701	Sololá	1	Sololá	3	Marzo	2023-03-27T00:00:00	2024-11-08T22:00:00	8	Radiación solar	0
14433	7	Sololá	701	Sololá	1	Sololá	3	Marzo	2023-03-27T00:00:00	2024-11-08T23:00:00	2	Temperatura media	13.6
14434	7	Sololá	701	Sololá	1	Sololá	3	Marzo	2023-03-27T00:00:00	2024-11-08T23:00:00	4	Temperatura máxima	14.4
14435	7	Sololá	701	Sololá	1	Sololá	3	Marzo	2023-03-27T00:00:00	2024-11-08T23:00:00	3	Temperatura mínima	13.6
14436	7	Sololá	701	Sololá	1	Sololá	3	Marzo	2023-03-27T00:00:00	2024-11-08T23:00:00	5	Humedad	87
14437	7	Sololá	701	Sololá	1	Sololá	3	Marzo	2023-03-27T00:00:00	2024-11-08T23:00:00	6	Velocidad del viento	0
14438	7	Sololá	701	Sololá	1	Sololá	3	Marzo	2023-03-27T00:00:00	2024-11-08T23:00:00	7	Dirección del viento	0
14439	7	Sololá	701	Sololá	1	Sololá	3	Marzo	2023-03-27T00:00:00	2024-11-08T23:00:00	1	Precipitación	0
14440	7	Sololá	701	Sololá	1	Sololá	3	Marzo	2023-03-27T00:00:00	2024-11-08T23:00:00	8	Radiación solar	0
14441	7	Sololá	701	Sololá	1	Sololá	3	Marzo	2023-03-28T00:00:00	2024-11-08T00:00:00	2	Temperatura media	13.4
14442	7	Sololá	701	Sololá	1	Sololá	3	Marzo	2023-03-28T00:00:00	2024-11-08T00:00:00	4	Temperatura máxima	13.7
14443	7	Sololá	701	Sololá	1	Sololá	3	Marzo	2023-03-28T00:00:00	2024-11-08T00:00:00	3	Temperatura mínima	13.4
14444	7	Sololá	701	Sololá	1	Sololá	3	Marzo	2023-03-28T00:00:00	2024-11-08T00:00:00	5	Humedad	84
14445	7	Sololá	701	Sololá	1	Sololá	3	Marzo	2023-03-28T00:00:00	2024-11-08T00:00:00	6	Velocidad del viento	0
14446	7	Sololá	701	Sololá	1	Sololá	3	Marzo	2023-03-28T00:00:00	2024-11-08T00:00:00	7	Dirección del viento	0
14447	7	Sololá	701	Sololá	1	Sololá	3	Marzo	2023-03-28T00:00:00	2024-11-08T00:00:00	1	Precipitación	0
14448	7	Sololá	701	Sololá	1	Sololá	3	Marzo	2023-03-28T00:00:00	2024-11-08T00:00:00	8	Radiación solar	0
14449	7	Sololá	701	Sololá	1	Sololá	3	Marzo	2023-03-28T00:00:00	2024-11-08T01:00:00	2	Temperatura media	13.2
14450	7	Sololá	701	Sololá	1	Sololá	3	Marzo	2023-03-28T00:00:00	2024-11-08T01:00:00	4	Temperatura máxima	13.4
14451	7	Sololá	701	Sololá	1	Sololá	3	Marzo	2023-03-28T00:00:00	2024-11-08T01:00:00	3	Temperatura mínima	13.1
14452	7	Sololá	701	Sololá	1	Sololá	3	Marzo	2023-03-28T00:00:00	2024-11-08T01:00:00	5	Humedad	86
14453	7	Sololá	701	Sololá	1	Sololá	3	Marzo	2023-03-28T00:00:00	2024-11-08T01:00:00	6	Velocidad del viento	0
14454	7	Sololá	701	Sololá	1	Sololá	3	Marzo	2023-03-28T00:00:00	2024-11-08T01:00:00	7	Dirección del viento	0
14455	7	Sololá	701	Sololá	1	Sololá	3	Marzo	2023-03-28T00:00:00	2024-11-08T01:00:00	1	Precipitación	0
14456	7	Sololá	701	Sololá	1	Sololá	3	Marzo	2023-03-28T00:00:00	2024-11-08T01:00:00	8	Radiación solar	0
14457	7	Sololá	701	Sololá	1	Sololá	3	Marzo	2023-03-28T00:00:00	2024-11-08T02:00:00	2	Temperatura media	12.3
14458	7	Sololá	701	Sololá	1	Sololá	3	Marzo	2023-03-28T00:00:00	2024-11-08T02:00:00	4	Temperatura máxima	13.3
14459	7	Sololá	701	Sololá	1	Sololá	3	Marzo	2023-03-28T00:00:00	2024-11-08T02:00:00	3	Temperatura mínima	12.3
14460	7	Sololá	701	Sololá	1	Sololá	3	Marzo	2023-03-28T00:00:00	2024-11-08T02:00:00	5	Humedad	87
14461	7	Sololá	701	Sololá	1	Sololá	3	Marzo	2023-03-28T00:00:00	2024-11-08T02:00:00	6	Velocidad del viento	0
14462	7	Sololá	701	Sololá	1	Sololá	3	Marzo	2023-03-28T00:00:00	2024-11-08T02:00:00	7	Dirección del viento	0
14463	7	Sololá	701	Sololá	1	Sololá	3	Marzo	2023-03-28T00:00:00	2024-11-08T02:00:00	1	Precipitación	0
14464	7	Sololá	701	Sololá	1	Sololá	3	Marzo	2023-03-28T00:00:00	2024-11-08T02:00:00	8	Radiación solar	0
14465	7	Sololá	701	Sololá	1	Sololá	3	Marzo	2023-03-28T00:00:00	2024-11-08T03:00:00	2	Temperatura media	12.6
14466	7	Sololá	701	Sololá	1	Sololá	3	Marzo	2023-03-28T00:00:00	2024-11-08T03:00:00	4	Temperatura máxima	12.6
14467	7	Sololá	701	Sololá	1	Sololá	3	Marzo	2023-03-28T00:00:00	2024-11-08T03:00:00	3	Temperatura mínima	12.2
14468	7	Sololá	701	Sololá	1	Sololá	3	Marzo	2023-03-28T00:00:00	2024-11-08T03:00:00	5	Humedad	87
14469	7	Sololá	701	Sololá	1	Sololá	3	Marzo	2023-03-28T00:00:00	2024-11-08T03:00:00	6	Velocidad del viento	0
14470	7	Sololá	701	Sololá	1	Sololá	3	Marzo	2023-03-28T00:00:00	2024-11-08T03:00:00	7	Dirección del viento	0
14471	7	Sololá	701	Sololá	1	Sololá	3	Marzo	2023-03-28T00:00:00	2024-11-08T03:00:00	1	Precipitación	0
14472	7	Sololá	701	Sololá	1	Sololá	3	Marzo	2023-03-28T00:00:00	2024-11-08T03:00:00	8	Radiación solar	0
14473	7	Sololá	701	Sololá	1	Sololá	3	Marzo	2023-03-28T00:00:00	2024-11-08T04:00:00	2	Temperatura media	12.8
14474	7	Sololá	701	Sololá	1	Sololá	3	Marzo	2023-03-28T00:00:00	2024-11-08T04:00:00	4	Temperatura máxima	12.8
14475	7	Sololá	701	Sololá	1	Sololá	3	Marzo	2023-03-28T00:00:00	2024-11-08T04:00:00	3	Temperatura mínima	12.4
14476	7	Sololá	701	Sololá	1	Sololá	3	Marzo	2023-03-28T00:00:00	2024-11-08T04:00:00	5	Humedad	85
14477	7	Sololá	701	Sololá	1	Sololá	3	Marzo	2023-03-28T00:00:00	2024-11-08T04:00:00	6	Velocidad del viento	0
14478	7	Sololá	701	Sololá	1	Sololá	3	Marzo	2023-03-28T00:00:00	2024-11-08T04:00:00	7	Dirección del viento	0
14479	7	Sololá	701	Sololá	1	Sololá	3	Marzo	2023-03-28T00:00:00	2024-11-08T04:00:00	1	Precipitación	0
14480	7	Sololá	701	Sololá	1	Sololá	3	Marzo	2023-03-28T00:00:00	2024-11-08T04:00:00	8	Radiación solar	0
14481	7	Sololá	701	Sololá	1	Sololá	3	Marzo	2023-03-28T00:00:00	2024-11-08T05:00:00	2	Temperatura media	12.3
14482	7	Sololá	701	Sololá	1	Sololá	3	Marzo	2023-03-28T00:00:00	2024-11-08T05:00:00	4	Temperatura máxima	12.8
14483	7	Sololá	701	Sololá	1	Sololá	3	Marzo	2023-03-28T00:00:00	2024-11-08T05:00:00	3	Temperatura mínima	12.3
14484	7	Sololá	701	Sololá	1	Sololá	3	Marzo	2023-03-28T00:00:00	2024-11-08T05:00:00	5	Humedad	86
14485	7	Sololá	701	Sololá	1	Sololá	3	Marzo	2023-03-28T00:00:00	2024-11-08T05:00:00	6	Velocidad del viento	0
14486	7	Sololá	701	Sololá	1	Sololá	3	Marzo	2023-03-28T00:00:00	2024-11-08T05:00:00	7	Dirección del viento	0
14487	7	Sololá	701	Sololá	1	Sololá	3	Marzo	2023-03-28T00:00:00	2024-11-08T05:00:00	1	Precipitación	0
14488	7	Sololá	701	Sololá	1	Sololá	3	Marzo	2023-03-28T00:00:00	2024-11-08T05:00:00	8	Radiación solar	0
14489	7	Sololá	701	Sololá	1	Sololá	3	Marzo	2023-03-28T00:00:00	2024-11-08T06:00:00	2	Temperatura media	12
14490	7	Sololá	701	Sololá	1	Sololá	3	Marzo	2023-03-28T00:00:00	2024-11-08T06:00:00	4	Temperatura máxima	12.3
14491	7	Sololá	701	Sololá	1	Sololá	3	Marzo	2023-03-28T00:00:00	2024-11-08T06:00:00	3	Temperatura mínima	11.9
14492	7	Sololá	701	Sololá	1	Sololá	3	Marzo	2023-03-28T00:00:00	2024-11-08T06:00:00	5	Humedad	87
14493	7	Sololá	701	Sololá	1	Sololá	3	Marzo	2023-03-28T00:00:00	2024-11-08T06:00:00	6	Velocidad del viento	0
14494	7	Sololá	701	Sololá	1	Sololá	3	Marzo	2023-03-28T00:00:00	2024-11-08T06:00:00	7	Dirección del viento	0
14495	7	Sololá	701	Sololá	1	Sololá	3	Marzo	2023-03-28T00:00:00	2024-11-08T06:00:00	1	Precipitación	0
14496	7	Sololá	701	Sololá	1	Sololá	3	Marzo	2023-03-28T00:00:00	2024-11-08T06:00:00	8	Radiación solar	0
14497	7	Sololá	701	Sololá	1	Sololá	3	Marzo	2023-03-28T00:00:00	2024-11-08T07:00:00	2	Temperatura media	12.4
14498	7	Sololá	701	Sololá	1	Sololá	3	Marzo	2023-03-28T00:00:00	2024-11-08T07:00:00	4	Temperatura máxima	12.4
14499	7	Sololá	701	Sololá	1	Sololá	3	Marzo	2023-03-28T00:00:00	2024-11-08T07:00:00	3	Temperatura mínima	11.9
14500	7	Sololá	701	Sololá	1	Sololá	3	Marzo	2023-03-28T00:00:00	2024-11-08T07:00:00	5	Humedad	86
14501	7	Sololá	701	Sololá	1	Sololá	3	Marzo	2023-03-28T00:00:00	2024-11-08T07:00:00	6	Velocidad del viento	0
14502	7	Sololá	701	Sololá	1	Sololá	3	Marzo	2023-03-28T00:00:00	2024-11-08T07:00:00	7	Dirección del viento	0
14503	7	Sololá	701	Sololá	1	Sololá	3	Marzo	2023-03-28T00:00:00	2024-11-08T07:00:00	1	Precipitación	0
14504	7	Sololá	701	Sololá	1	Sololá	3	Marzo	2023-03-28T00:00:00	2024-11-08T07:00:00	8	Radiación solar	23
14505	7	Sololá	701	Sololá	1	Sololá	3	Marzo	2023-03-28T00:00:00	2024-11-08T08:00:00	2	Temperatura media	12.7
14506	7	Sololá	701	Sololá	1	Sololá	3	Marzo	2023-03-28T00:00:00	2024-11-08T08:00:00	4	Temperatura máxima	12.8
14507	7	Sololá	701	Sololá	1	Sololá	3	Marzo	2023-03-28T00:00:00	2024-11-08T08:00:00	3	Temperatura mínima	12.4
14508	7	Sololá	701	Sololá	1	Sololá	3	Marzo	2023-03-28T00:00:00	2024-11-08T08:00:00	5	Humedad	86
14509	7	Sololá	701	Sololá	1	Sololá	3	Marzo	2023-03-28T00:00:00	2024-11-08T08:00:00	6	Velocidad del viento	0
14510	7	Sololá	701	Sololá	1	Sololá	3	Marzo	2023-03-28T00:00:00	2024-11-08T08:00:00	7	Dirección del viento	0
14511	7	Sololá	701	Sololá	1	Sololá	3	Marzo	2023-03-28T00:00:00	2024-11-08T08:00:00	1	Precipitación	0
14512	7	Sololá	701	Sololá	1	Sololá	3	Marzo	2023-03-28T00:00:00	2024-11-08T08:00:00	8	Radiación solar	150
14513	7	Sololá	701	Sololá	1	Sololá	3	Marzo	2023-03-28T00:00:00	2024-11-08T09:00:00	2	Temperatura media	15.9
14514	7	Sololá	701	Sololá	1	Sololá	3	Marzo	2023-03-28T00:00:00	2024-11-08T09:00:00	4	Temperatura máxima	15.9
14515	7	Sololá	701	Sololá	1	Sololá	3	Marzo	2023-03-28T00:00:00	2024-11-08T09:00:00	3	Temperatura mínima	12.8
14516	7	Sololá	701	Sololá	1	Sololá	3	Marzo	2023-03-28T00:00:00	2024-11-08T09:00:00	5	Humedad	81
14517	7	Sololá	701	Sololá	1	Sololá	3	Marzo	2023-03-28T00:00:00	2024-11-08T09:00:00	6	Velocidad del viento	0
14518	7	Sololá	701	Sololá	1	Sololá	3	Marzo	2023-03-28T00:00:00	2024-11-08T09:00:00	7	Dirección del viento	0
14519	7	Sololá	701	Sololá	1	Sololá	3	Marzo	2023-03-28T00:00:00	2024-11-08T09:00:00	1	Precipitación	0
14520	7	Sololá	701	Sololá	1	Sololá	3	Marzo	2023-03-28T00:00:00	2024-11-08T09:00:00	8	Radiación solar	449
14521	7	Sololá	701	Sololá	1	Sololá	3	Marzo	2023-03-28T00:00:00	2024-11-08T10:00:00	2	Temperatura media	18.6
14522	7	Sololá	701	Sololá	1	Sololá	3	Marzo	2023-03-28T00:00:00	2024-11-08T10:00:00	4	Temperatura máxima	18.6
14523	7	Sololá	701	Sololá	1	Sololá	3	Marzo	2023-03-28T00:00:00	2024-11-08T10:00:00	3	Temperatura mínima	15.9
14524	7	Sololá	701	Sololá	1	Sololá	3	Marzo	2023-03-28T00:00:00	2024-11-08T10:00:00	5	Humedad	78
14525	7	Sololá	701	Sololá	1	Sololá	3	Marzo	2023-03-28T00:00:00	2024-11-08T10:00:00	6	Velocidad del viento	0
14526	7	Sololá	701	Sololá	1	Sololá	3	Marzo	2023-03-28T00:00:00	2024-11-08T10:00:00	7	Dirección del viento	0
14527	7	Sololá	701	Sololá	1	Sololá	3	Marzo	2023-03-28T00:00:00	2024-11-08T10:00:00	1	Precipitación	0
14528	7	Sololá	701	Sololá	1	Sololá	3	Marzo	2023-03-28T00:00:00	2024-11-08T10:00:00	8	Radiación solar	658
14529	7	Sololá	701	Sololá	1	Sololá	3	Marzo	2023-03-28T00:00:00	2024-11-08T11:00:00	2	Temperatura media	19.8
14530	7	Sololá	701	Sololá	1	Sololá	3	Marzo	2023-03-28T00:00:00	2024-11-08T11:00:00	4	Temperatura máxima	19.8
14531	7	Sololá	701	Sololá	1	Sololá	3	Marzo	2023-03-28T00:00:00	2024-11-08T11:00:00	3	Temperatura mínima	18.6
14532	7	Sololá	701	Sololá	1	Sololá	3	Marzo	2023-03-28T00:00:00	2024-11-08T11:00:00	5	Humedad	73
14533	7	Sololá	701	Sololá	1	Sololá	3	Marzo	2023-03-28T00:00:00	2024-11-08T11:00:00	6	Velocidad del viento	0
14534	7	Sololá	701	Sololá	1	Sololá	3	Marzo	2023-03-28T00:00:00	2024-11-08T11:00:00	7	Dirección del viento	0
14535	7	Sololá	701	Sololá	1	Sololá	3	Marzo	2023-03-28T00:00:00	2024-11-08T11:00:00	1	Precipitación	0
14536	7	Sololá	701	Sololá	1	Sololá	3	Marzo	2023-03-28T00:00:00	2024-11-08T11:00:00	8	Radiación solar	938
14537	7	Sololá	701	Sololá	1	Sololá	3	Marzo	2023-03-28T00:00:00	2024-11-08T12:00:00	2	Temperatura media	21.1
14538	7	Sololá	701	Sololá	1	Sololá	3	Marzo	2023-03-28T00:00:00	2024-11-08T12:00:00	4	Temperatura máxima	21.2
14539	7	Sololá	701	Sololá	1	Sololá	3	Marzo	2023-03-28T00:00:00	2024-11-08T12:00:00	3	Temperatura mínima	19.8
14540	7	Sololá	701	Sololá	1	Sololá	3	Marzo	2023-03-28T00:00:00	2024-11-08T12:00:00	5	Humedad	70
14541	7	Sololá	701	Sololá	1	Sololá	3	Marzo	2023-03-28T00:00:00	2024-11-08T12:00:00	6	Velocidad del viento	0
14542	7	Sololá	701	Sololá	1	Sololá	3	Marzo	2023-03-28T00:00:00	2024-11-08T12:00:00	7	Dirección del viento	0
14543	7	Sololá	701	Sololá	1	Sololá	3	Marzo	2023-03-28T00:00:00	2024-11-08T12:00:00	1	Precipitación	0
14544	7	Sololá	701	Sololá	1	Sololá	3	Marzo	2023-03-28T00:00:00	2024-11-08T12:00:00	8	Radiación solar	999
14545	7	Sololá	701	Sololá	1	Sololá	3	Marzo	2023-03-28T00:00:00	2024-11-08T13:00:00	2	Temperatura media	21.8
14546	7	Sololá	701	Sololá	1	Sololá	3	Marzo	2023-03-28T00:00:00	2024-11-08T13:00:00	4	Temperatura máxima	22.1
14547	7	Sololá	701	Sololá	1	Sololá	3	Marzo	2023-03-28T00:00:00	2024-11-08T13:00:00	3	Temperatura mínima	21.1
14548	7	Sololá	701	Sololá	1	Sololá	3	Marzo	2023-03-28T00:00:00	2024-11-08T13:00:00	5	Humedad	69
14549	7	Sololá	701	Sololá	1	Sololá	3	Marzo	2023-03-28T00:00:00	2024-11-08T13:00:00	6	Velocidad del viento	0
14550	7	Sololá	701	Sololá	1	Sololá	3	Marzo	2023-03-28T00:00:00	2024-11-08T13:00:00	7	Dirección del viento	0
14551	7	Sololá	701	Sololá	1	Sololá	3	Marzo	2023-03-28T00:00:00	2024-11-08T13:00:00	1	Precipitación	0
14552	7	Sololá	701	Sololá	1	Sololá	3	Marzo	2023-03-28T00:00:00	2024-11-08T13:00:00	8	Radiación solar	681
14553	7	Sololá	701	Sololá	1	Sololá	3	Marzo	2023-03-28T00:00:00	2024-11-08T14:00:00	2	Temperatura media	21
14554	7	Sololá	701	Sololá	1	Sololá	3	Marzo	2023-03-28T00:00:00	2024-11-08T14:00:00	4	Temperatura máxima	21.9
14555	7	Sololá	701	Sololá	1	Sololá	3	Marzo	2023-03-28T00:00:00	2024-11-08T14:00:00	3	Temperatura mínima	21
14556	7	Sololá	701	Sololá	1	Sololá	3	Marzo	2023-03-28T00:00:00	2024-11-08T14:00:00	5	Humedad	75
14557	7	Sololá	701	Sololá	1	Sololá	3	Marzo	2023-03-28T00:00:00	2024-11-08T14:00:00	6	Velocidad del viento	0
14558	7	Sololá	701	Sololá	1	Sololá	3	Marzo	2023-03-28T00:00:00	2024-11-08T14:00:00	7	Dirección del viento	0
14559	7	Sololá	701	Sololá	1	Sololá	3	Marzo	2023-03-28T00:00:00	2024-11-08T14:00:00	1	Precipitación	0
14560	7	Sololá	701	Sololá	1	Sololá	3	Marzo	2023-03-28T00:00:00	2024-11-08T14:00:00	8	Radiación solar	338
14561	7	Sololá	701	Sololá	1	Sololá	3	Marzo	2023-03-28T00:00:00	2024-11-08T15:00:00	2	Temperatura media	21.1
14562	7	Sololá	701	Sololá	1	Sololá	3	Marzo	2023-03-28T00:00:00	2024-11-08T15:00:00	4	Temperatura máxima	21.3
14563	7	Sololá	701	Sololá	1	Sololá	3	Marzo	2023-03-28T00:00:00	2024-11-08T15:00:00	3	Temperatura mínima	20.8
14564	7	Sololá	701	Sololá	1	Sololá	3	Marzo	2023-03-28T00:00:00	2024-11-08T15:00:00	5	Humedad	75
14565	7	Sololá	701	Sololá	1	Sololá	3	Marzo	2023-03-28T00:00:00	2024-11-08T15:00:00	6	Velocidad del viento	0
14566	7	Sololá	701	Sololá	1	Sololá	3	Marzo	2023-03-28T00:00:00	2024-11-08T15:00:00	7	Dirección del viento	0
14567	7	Sololá	701	Sololá	1	Sololá	3	Marzo	2023-03-28T00:00:00	2024-11-08T15:00:00	1	Precipitación	0
14568	7	Sololá	701	Sololá	1	Sololá	3	Marzo	2023-03-28T00:00:00	2024-11-08T15:00:00	8	Radiación solar	222
14569	7	Sololá	701	Sololá	1	Sololá	3	Marzo	2023-03-28T00:00:00	2024-11-08T16:00:00	2	Temperatura media	21.1
14570	7	Sololá	701	Sololá	1	Sololá	3	Marzo	2023-03-28T00:00:00	2024-11-08T16:00:00	4	Temperatura máxima	21.2
14571	7	Sololá	701	Sololá	1	Sololá	3	Marzo	2023-03-28T00:00:00	2024-11-08T16:00:00	3	Temperatura mínima	20.8
14572	7	Sololá	701	Sololá	1	Sololá	3	Marzo	2023-03-28T00:00:00	2024-11-08T16:00:00	5	Humedad	73
14573	7	Sololá	701	Sololá	1	Sololá	3	Marzo	2023-03-28T00:00:00	2024-11-08T16:00:00	6	Velocidad del viento	0
14574	7	Sololá	701	Sololá	1	Sololá	3	Marzo	2023-03-28T00:00:00	2024-11-08T16:00:00	7	Dirección del viento	0
14575	7	Sololá	701	Sololá	1	Sololá	3	Marzo	2023-03-28T00:00:00	2024-11-08T16:00:00	1	Precipitación	0
14576	7	Sololá	701	Sololá	1	Sololá	3	Marzo	2023-03-28T00:00:00	2024-11-08T16:00:00	8	Radiación solar	183
14577	7	Sololá	701	Sololá	1	Sololá	3	Marzo	2023-03-28T00:00:00	2024-11-08T17:00:00	2	Temperatura media	20.9
14578	7	Sololá	701	Sololá	1	Sololá	3	Marzo	2023-03-28T00:00:00	2024-11-08T17:00:00	4	Temperatura máxima	21.3
14579	7	Sololá	701	Sololá	1	Sololá	3	Marzo	2023-03-28T00:00:00	2024-11-08T17:00:00	3	Temperatura mínima	20.7
14580	7	Sololá	701	Sololá	1	Sololá	3	Marzo	2023-03-28T00:00:00	2024-11-08T17:00:00	5	Humedad	76
14581	7	Sololá	701	Sololá	1	Sololá	3	Marzo	2023-03-28T00:00:00	2024-11-08T17:00:00	6	Velocidad del viento	0
14582	7	Sololá	701	Sololá	1	Sololá	3	Marzo	2023-03-28T00:00:00	2024-11-08T17:00:00	7	Dirección del viento	0
14583	7	Sololá	701	Sololá	1	Sololá	3	Marzo	2023-03-28T00:00:00	2024-11-08T17:00:00	1	Precipitación	0
14584	7	Sololá	701	Sololá	1	Sololá	3	Marzo	2023-03-28T00:00:00	2024-11-08T17:00:00	8	Radiación solar	138
14585	7	Sololá	701	Sololá	1	Sololá	3	Marzo	2023-03-28T00:00:00	2024-11-08T18:00:00	2	Temperatura media	19.1
14586	7	Sololá	701	Sololá	1	Sololá	3	Marzo	2023-03-28T00:00:00	2024-11-08T18:00:00	4	Temperatura máxima	20.9
14587	7	Sololá	701	Sololá	1	Sololá	3	Marzo	2023-03-28T00:00:00	2024-11-08T18:00:00	3	Temperatura mínima	19.1
14588	7	Sololá	701	Sololá	1	Sololá	3	Marzo	2023-03-28T00:00:00	2024-11-08T18:00:00	5	Humedad	83
14589	7	Sololá	701	Sololá	1	Sololá	3	Marzo	2023-03-28T00:00:00	2024-11-08T18:00:00	6	Velocidad del viento	0
14590	7	Sololá	701	Sololá	1	Sololá	3	Marzo	2023-03-28T00:00:00	2024-11-08T18:00:00	7	Dirección del viento	0
14591	7	Sololá	701	Sololá	1	Sololá	3	Marzo	2023-03-28T00:00:00	2024-11-08T18:00:00	1	Precipitación	0
14592	7	Sololá	701	Sololá	1	Sololá	3	Marzo	2023-03-28T00:00:00	2024-11-08T18:00:00	8	Radiación solar	68
14593	7	Sololá	701	Sololá	1	Sololá	3	Marzo	2023-03-28T00:00:00	2024-11-08T19:00:00	2	Temperatura media	18.3
14594	7	Sololá	701	Sololá	1	Sololá	3	Marzo	2023-03-28T00:00:00	2024-11-08T19:00:00	4	Temperatura máxima	19.1
14595	7	Sololá	701	Sololá	1	Sololá	3	Marzo	2023-03-28T00:00:00	2024-11-08T19:00:00	3	Temperatura mínima	18.2
14596	7	Sololá	701	Sololá	1	Sololá	3	Marzo	2023-03-28T00:00:00	2024-11-08T19:00:00	5	Humedad	86
14597	7	Sololá	701	Sololá	1	Sololá	3	Marzo	2023-03-28T00:00:00	2024-11-08T19:00:00	6	Velocidad del viento	0
14598	7	Sololá	701	Sololá	1	Sololá	3	Marzo	2023-03-28T00:00:00	2024-11-08T19:00:00	7	Dirección del viento	0
14599	7	Sololá	701	Sololá	1	Sololá	3	Marzo	2023-03-28T00:00:00	2024-11-08T19:00:00	1	Precipitación	0
14600	7	Sololá	701	Sololá	1	Sololá	3	Marzo	2023-03-28T00:00:00	2024-11-08T19:00:00	8	Radiación solar	0
14601	7	Sololá	701	Sololá	1	Sololá	3	Marzo	2023-03-28T00:00:00	2024-11-08T20:00:00	2	Temperatura media	17.3
14602	7	Sololá	701	Sololá	1	Sololá	3	Marzo	2023-03-28T00:00:00	2024-11-08T20:00:00	4	Temperatura máxima	18.2
14603	7	Sololá	701	Sololá	1	Sololá	3	Marzo	2023-03-28T00:00:00	2024-11-08T20:00:00	3	Temperatura mínima	17.3
14604	7	Sololá	701	Sololá	1	Sololá	3	Marzo	2023-03-28T00:00:00	2024-11-08T20:00:00	5	Humedad	90
14605	7	Sololá	701	Sololá	1	Sololá	3	Marzo	2023-03-28T00:00:00	2024-11-08T20:00:00	6	Velocidad del viento	0
14606	7	Sololá	701	Sololá	1	Sololá	3	Marzo	2023-03-28T00:00:00	2024-11-08T20:00:00	7	Dirección del viento	0
14607	7	Sololá	701	Sololá	1	Sololá	3	Marzo	2023-03-28T00:00:00	2024-11-08T20:00:00	1	Precipitación	0
14608	7	Sololá	701	Sololá	1	Sololá	3	Marzo	2023-03-28T00:00:00	2024-11-08T20:00:00	8	Radiación solar	0
14609	7	Sololá	701	Sololá	1	Sololá	3	Marzo	2023-03-28T00:00:00	2024-11-08T21:00:00	2	Temperatura media	16.7
14610	7	Sololá	701	Sololá	1	Sololá	3	Marzo	2023-03-28T00:00:00	2024-11-08T21:00:00	4	Temperatura máxima	17.3
14611	7	Sololá	701	Sololá	1	Sololá	3	Marzo	2023-03-28T00:00:00	2024-11-08T21:00:00	3	Temperatura mínima	16.7
14612	7	Sololá	701	Sololá	1	Sololá	3	Marzo	2023-03-28T00:00:00	2024-11-08T21:00:00	5	Humedad	90
14613	7	Sololá	701	Sololá	1	Sololá	3	Marzo	2023-03-28T00:00:00	2024-11-08T21:00:00	6	Velocidad del viento	0
14614	7	Sololá	701	Sololá	1	Sololá	3	Marzo	2023-03-28T00:00:00	2024-11-08T21:00:00	7	Dirección del viento	0
14615	7	Sololá	701	Sololá	1	Sololá	3	Marzo	2023-03-28T00:00:00	2024-11-08T21:00:00	1	Precipitación	0
14616	7	Sololá	701	Sololá	1	Sololá	3	Marzo	2023-03-28T00:00:00	2024-11-08T21:00:00	8	Radiación solar	0
14617	7	Sololá	701	Sololá	1	Sololá	3	Marzo	2023-03-28T00:00:00	2024-11-08T22:00:00	2	Temperatura media	15.9
14618	7	Sololá	701	Sololá	1	Sololá	3	Marzo	2023-03-28T00:00:00	2024-11-08T22:00:00	4	Temperatura máxima	16.7
14619	7	Sololá	701	Sololá	1	Sololá	3	Marzo	2023-03-28T00:00:00	2024-11-08T22:00:00	3	Temperatura mínima	15.9
14620	7	Sololá	701	Sololá	1	Sololá	3	Marzo	2023-03-28T00:00:00	2024-11-08T22:00:00	5	Humedad	81
14621	7	Sololá	701	Sololá	1	Sololá	3	Marzo	2023-03-28T00:00:00	2024-11-08T22:00:00	6	Velocidad del viento	0
14622	7	Sololá	701	Sololá	1	Sololá	3	Marzo	2023-03-28T00:00:00	2024-11-08T22:00:00	7	Dirección del viento	0
14623	7	Sololá	701	Sololá	1	Sololá	3	Marzo	2023-03-28T00:00:00	2024-11-08T22:00:00	1	Precipitación	0
14624	7	Sololá	701	Sololá	1	Sololá	3	Marzo	2023-03-28T00:00:00	2024-11-08T22:00:00	8	Radiación solar	0
14625	7	Sololá	701	Sololá	1	Sololá	3	Marzo	2023-03-28T00:00:00	2024-11-08T23:00:00	2	Temperatura media	15.6
14626	7	Sololá	701	Sololá	1	Sololá	3	Marzo	2023-03-28T00:00:00	2024-11-08T23:00:00	4	Temperatura máxima	15.9
14627	7	Sololá	701	Sololá	1	Sololá	3	Marzo	2023-03-28T00:00:00	2024-11-08T23:00:00	3	Temperatura mínima	15.5
14628	7	Sololá	701	Sololá	1	Sololá	3	Marzo	2023-03-28T00:00:00	2024-11-08T23:00:00	5	Humedad	77
14629	7	Sololá	701	Sololá	1	Sololá	3	Marzo	2023-03-28T00:00:00	2024-11-08T23:00:00	6	Velocidad del viento	0
14630	7	Sololá	701	Sololá	1	Sololá	3	Marzo	2023-03-28T00:00:00	2024-11-08T23:00:00	7	Dirección del viento	0
14631	7	Sololá	701	Sololá	1	Sololá	3	Marzo	2023-03-28T00:00:00	2024-11-08T23:00:00	1	Precipitación	0
14632	7	Sololá	701	Sololá	1	Sololá	3	Marzo	2023-03-28T00:00:00	2024-11-08T23:00:00	8	Radiación solar	0
14633	7	Sololá	701	Sololá	1	Sololá	3	Marzo	2023-03-29T00:00:00	2024-11-08T00:00:00	2	Temperatura media	15.2
14634	7	Sololá	701	Sololá	1	Sololá	3	Marzo	2023-03-29T00:00:00	2024-11-08T00:00:00	4	Temperatura máxima	15.6
14635	7	Sololá	701	Sololá	1	Sololá	3	Marzo	2023-03-29T00:00:00	2024-11-08T00:00:00	3	Temperatura mínima	15.2
14636	7	Sololá	701	Sololá	1	Sololá	3	Marzo	2023-03-29T00:00:00	2024-11-08T00:00:00	5	Humedad	72
14637	7	Sololá	701	Sololá	1	Sololá	3	Marzo	2023-03-29T00:00:00	2024-11-08T00:00:00	6	Velocidad del viento	0
14638	7	Sololá	701	Sololá	1	Sololá	3	Marzo	2023-03-29T00:00:00	2024-11-08T00:00:00	7	Dirección del viento	0
14639	7	Sololá	701	Sololá	1	Sololá	3	Marzo	2023-03-29T00:00:00	2024-11-08T00:00:00	1	Precipitación	0
14640	7	Sololá	701	Sololá	1	Sololá	3	Marzo	2023-03-29T00:00:00	2024-11-08T00:00:00	8	Radiación solar	0
14641	7	Sololá	701	Sololá	1	Sololá	3	Marzo	2023-03-29T00:00:00	2024-11-08T01:00:00	2	Temperatura media	15.2
14642	7	Sololá	701	Sololá	1	Sololá	3	Marzo	2023-03-29T00:00:00	2024-11-08T01:00:00	4	Temperatura máxima	15.3
14643	7	Sololá	701	Sololá	1	Sololá	3	Marzo	2023-03-29T00:00:00	2024-11-08T01:00:00	3	Temperatura mínima	15.2
14644	7	Sololá	701	Sololá	1	Sololá	3	Marzo	2023-03-29T00:00:00	2024-11-08T01:00:00	5	Humedad	70
14645	7	Sololá	701	Sololá	1	Sololá	3	Marzo	2023-03-29T00:00:00	2024-11-08T01:00:00	6	Velocidad del viento	0
14646	7	Sololá	701	Sololá	1	Sololá	3	Marzo	2023-03-29T00:00:00	2024-11-08T01:00:00	7	Dirección del viento	0
14647	7	Sololá	701	Sololá	1	Sololá	3	Marzo	2023-03-29T00:00:00	2024-11-08T01:00:00	1	Precipitación	0
14648	7	Sololá	701	Sololá	1	Sololá	3	Marzo	2023-03-29T00:00:00	2024-11-08T01:00:00	8	Radiación solar	0
14649	7	Sololá	701	Sololá	1	Sololá	3	Marzo	2023-03-29T00:00:00	2024-11-08T02:00:00	2	Temperatura media	13.6
14650	7	Sololá	701	Sololá	1	Sololá	3	Marzo	2023-03-29T00:00:00	2024-11-08T02:00:00	4	Temperatura máxima	15.2
14651	7	Sololá	701	Sololá	1	Sololá	3	Marzo	2023-03-29T00:00:00	2024-11-08T02:00:00	3	Temperatura mínima	13.6
14652	7	Sololá	701	Sololá	1	Sololá	3	Marzo	2023-03-29T00:00:00	2024-11-08T02:00:00	5	Humedad	75
14653	7	Sololá	701	Sololá	1	Sololá	3	Marzo	2023-03-29T00:00:00	2024-11-08T02:00:00	6	Velocidad del viento	0
14654	7	Sololá	701	Sololá	1	Sololá	3	Marzo	2023-03-29T00:00:00	2024-11-08T02:00:00	7	Dirección del viento	0
14655	7	Sololá	701	Sololá	1	Sololá	3	Marzo	2023-03-29T00:00:00	2024-11-08T02:00:00	1	Precipitación	0
14656	7	Sololá	701	Sololá	1	Sololá	3	Marzo	2023-03-29T00:00:00	2024-11-08T02:00:00	8	Radiación solar	0
14657	7	Sololá	701	Sololá	1	Sololá	3	Marzo	2023-03-29T00:00:00	2024-11-08T03:00:00	2	Temperatura media	12.3
14658	7	Sololá	701	Sololá	1	Sololá	3	Marzo	2023-03-29T00:00:00	2024-11-08T03:00:00	4	Temperatura máxima	13.6
14659	7	Sololá	701	Sololá	1	Sololá	3	Marzo	2023-03-29T00:00:00	2024-11-08T03:00:00	3	Temperatura mínima	12.3
14660	7	Sololá	701	Sololá	1	Sololá	3	Marzo	2023-03-29T00:00:00	2024-11-08T03:00:00	5	Humedad	81
14661	7	Sololá	701	Sololá	1	Sololá	3	Marzo	2023-03-29T00:00:00	2024-11-08T03:00:00	6	Velocidad del viento	0
14662	7	Sololá	701	Sololá	1	Sololá	3	Marzo	2023-03-29T00:00:00	2024-11-08T03:00:00	7	Dirección del viento	0
14663	7	Sololá	701	Sololá	1	Sololá	3	Marzo	2023-03-29T00:00:00	2024-11-08T03:00:00	1	Precipitación	0
14664	7	Sololá	701	Sololá	1	Sololá	3	Marzo	2023-03-29T00:00:00	2024-11-08T03:00:00	8	Radiación solar	0
14665	7	Sololá	701	Sololá	1	Sololá	3	Marzo	2023-03-29T00:00:00	2024-11-08T04:00:00	2	Temperatura media	11.5
14666	7	Sololá	701	Sololá	1	Sololá	3	Marzo	2023-03-29T00:00:00	2024-11-08T04:00:00	4	Temperatura máxima	12.3
14667	7	Sololá	701	Sololá	1	Sololá	3	Marzo	2023-03-29T00:00:00	2024-11-08T04:00:00	3	Temperatura mínima	11.5
14668	7	Sololá	701	Sololá	1	Sololá	3	Marzo	2023-03-29T00:00:00	2024-11-08T04:00:00	5	Humedad	83
14669	7	Sololá	701	Sololá	1	Sololá	3	Marzo	2023-03-29T00:00:00	2024-11-08T04:00:00	6	Velocidad del viento	0
14670	7	Sololá	701	Sololá	1	Sololá	3	Marzo	2023-03-29T00:00:00	2024-11-08T04:00:00	7	Dirección del viento	0
14671	7	Sololá	701	Sololá	1	Sololá	3	Marzo	2023-03-29T00:00:00	2024-11-08T04:00:00	1	Precipitación	0
14672	7	Sololá	701	Sololá	1	Sololá	3	Marzo	2023-03-29T00:00:00	2024-11-08T04:00:00	8	Radiación solar	0
14673	7	Sololá	701	Sololá	1	Sololá	3	Marzo	2023-03-29T00:00:00	2024-11-08T05:00:00	2	Temperatura media	10.7
14674	7	Sololá	701	Sololá	1	Sololá	3	Marzo	2023-03-29T00:00:00	2024-11-08T05:00:00	4	Temperatura máxima	11.6
14675	7	Sololá	701	Sololá	1	Sololá	3	Marzo	2023-03-29T00:00:00	2024-11-08T05:00:00	3	Temperatura mínima	10.7
14676	7	Sololá	701	Sololá	1	Sololá	3	Marzo	2023-03-29T00:00:00	2024-11-08T05:00:00	5	Humedad	85
14677	7	Sololá	701	Sololá	1	Sololá	3	Marzo	2023-03-29T00:00:00	2024-11-08T05:00:00	6	Velocidad del viento	0
14678	7	Sololá	701	Sololá	1	Sololá	3	Marzo	2023-03-29T00:00:00	2024-11-08T05:00:00	7	Dirección del viento	0
14679	7	Sololá	701	Sololá	1	Sololá	3	Marzo	2023-03-29T00:00:00	2024-11-08T05:00:00	1	Precipitación	0
14680	7	Sololá	701	Sololá	1	Sololá	3	Marzo	2023-03-29T00:00:00	2024-11-08T05:00:00	8	Radiación solar	0
14681	7	Sololá	701	Sololá	1	Sololá	3	Marzo	2023-03-29T00:00:00	2024-11-08T06:00:00	2	Temperatura media	12.3
14682	7	Sololá	701	Sololá	1	Sololá	3	Marzo	2023-03-29T00:00:00	2024-11-08T06:00:00	4	Temperatura máxima	12.3
14683	7	Sololá	701	Sololá	1	Sololá	3	Marzo	2023-03-29T00:00:00	2024-11-08T06:00:00	3	Temperatura mínima	10.6
14684	7	Sololá	701	Sololá	1	Sololá	3	Marzo	2023-03-29T00:00:00	2024-11-08T06:00:00	5	Humedad	80
14685	7	Sololá	701	Sololá	1	Sololá	3	Marzo	2023-03-29T00:00:00	2024-11-08T06:00:00	6	Velocidad del viento	0
14686	7	Sololá	701	Sololá	1	Sololá	3	Marzo	2023-03-29T00:00:00	2024-11-08T06:00:00	7	Dirección del viento	0
14687	7	Sololá	701	Sololá	1	Sololá	3	Marzo	2023-03-29T00:00:00	2024-11-08T06:00:00	1	Precipitación	0
14688	7	Sololá	701	Sololá	1	Sololá	3	Marzo	2023-03-29T00:00:00	2024-11-08T06:00:00	8	Radiación solar	0
14689	7	Sololá	701	Sololá	1	Sololá	3	Marzo	2023-03-29T00:00:00	2024-11-08T07:00:00	2	Temperatura media	12.4
14690	7	Sololá	701	Sololá	1	Sololá	3	Marzo	2023-03-29T00:00:00	2024-11-08T07:00:00	4	Temperatura máxima	12.4
14691	7	Sololá	701	Sololá	1	Sololá	3	Marzo	2023-03-29T00:00:00	2024-11-08T07:00:00	3	Temperatura mínima	12.1
14692	7	Sololá	701	Sololá	1	Sololá	3	Marzo	2023-03-29T00:00:00	2024-11-08T07:00:00	5	Humedad	79
14693	7	Sololá	701	Sololá	1	Sololá	3	Marzo	2023-03-29T00:00:00	2024-11-08T07:00:00	6	Velocidad del viento	0
14694	7	Sololá	701	Sololá	1	Sololá	3	Marzo	2023-03-29T00:00:00	2024-11-08T07:00:00	7	Dirección del viento	0
14695	7	Sololá	701	Sololá	1	Sololá	3	Marzo	2023-03-29T00:00:00	2024-11-08T07:00:00	1	Precipitación	0
14696	7	Sololá	701	Sololá	1	Sololá	3	Marzo	2023-03-29T00:00:00	2024-11-08T07:00:00	8	Radiación solar	12
14697	7	Sololá	701	Sololá	1	Sololá	3	Marzo	2023-03-29T00:00:00	2024-11-08T08:00:00	2	Temperatura media	13.6
14698	7	Sololá	701	Sololá	1	Sololá	3	Marzo	2023-03-29T00:00:00	2024-11-08T08:00:00	4	Temperatura máxima	13.6
14699	7	Sololá	701	Sololá	1	Sololá	3	Marzo	2023-03-29T00:00:00	2024-11-08T08:00:00	3	Temperatura mínima	12.4
14700	7	Sololá	701	Sololá	1	Sololá	3	Marzo	2023-03-29T00:00:00	2024-11-08T08:00:00	5	Humedad	78
14701	7	Sololá	701	Sololá	1	Sololá	3	Marzo	2023-03-29T00:00:00	2024-11-08T08:00:00	6	Velocidad del viento	0
14702	7	Sololá	701	Sololá	1	Sololá	3	Marzo	2023-03-29T00:00:00	2024-11-08T08:00:00	7	Dirección del viento	0
14703	7	Sololá	701	Sololá	1	Sololá	3	Marzo	2023-03-29T00:00:00	2024-11-08T08:00:00	1	Precipitación	0
14704	7	Sololá	701	Sololá	1	Sololá	3	Marzo	2023-03-29T00:00:00	2024-11-08T08:00:00	8	Radiación solar	258
14705	7	Sololá	701	Sololá	1	Sololá	3	Marzo	2023-03-29T00:00:00	2024-11-08T09:00:00	2	Temperatura media	16.5
14706	7	Sololá	701	Sololá	1	Sololá	3	Marzo	2023-03-29T00:00:00	2024-11-08T09:00:00	4	Temperatura máxima	16.5
14707	7	Sololá	701	Sololá	1	Sololá	3	Marzo	2023-03-29T00:00:00	2024-11-08T09:00:00	3	Temperatura mínima	13.6
14708	7	Sololá	701	Sololá	1	Sololá	3	Marzo	2023-03-29T00:00:00	2024-11-08T09:00:00	5	Humedad	74
14709	7	Sololá	701	Sololá	1	Sololá	3	Marzo	2023-03-29T00:00:00	2024-11-08T09:00:00	6	Velocidad del viento	0
14710	7	Sololá	701	Sololá	1	Sololá	3	Marzo	2023-03-29T00:00:00	2024-11-08T09:00:00	7	Dirección del viento	0
14711	7	Sololá	701	Sololá	1	Sololá	3	Marzo	2023-03-29T00:00:00	2024-11-08T09:00:00	1	Precipitación	0
14712	7	Sololá	701	Sololá	1	Sololá	3	Marzo	2023-03-29T00:00:00	2024-11-08T09:00:00	8	Radiación solar	577
14713	7	Sololá	701	Sololá	1	Sololá	3	Marzo	2023-03-29T00:00:00	2024-11-08T10:00:00	2	Temperatura media	18.6
14714	7	Sololá	701	Sololá	1	Sololá	3	Marzo	2023-03-29T00:00:00	2024-11-08T10:00:00	4	Temperatura máxima	18.6
14715	7	Sololá	701	Sololá	1	Sololá	3	Marzo	2023-03-29T00:00:00	2024-11-08T10:00:00	3	Temperatura mínima	16.5
14716	7	Sololá	701	Sololá	1	Sololá	3	Marzo	2023-03-29T00:00:00	2024-11-08T10:00:00	5	Humedad	67
14717	7	Sololá	701	Sololá	1	Sololá	3	Marzo	2023-03-29T00:00:00	2024-11-08T10:00:00	6	Velocidad del viento	0
14718	7	Sololá	701	Sololá	1	Sololá	3	Marzo	2023-03-29T00:00:00	2024-11-08T10:00:00	7	Dirección del viento	0
14719	7	Sololá	701	Sololá	1	Sololá	3	Marzo	2023-03-29T00:00:00	2024-11-08T10:00:00	1	Precipitación	0
14720	7	Sololá	701	Sololá	1	Sololá	3	Marzo	2023-03-29T00:00:00	2024-11-08T10:00:00	8	Radiación solar	757
14721	7	Sololá	701	Sololá	1	Sololá	3	Marzo	2023-03-29T00:00:00	2024-11-08T11:00:00	2	Temperatura media	20
14722	7	Sololá	701	Sololá	1	Sololá	3	Marzo	2023-03-29T00:00:00	2024-11-08T11:00:00	4	Temperatura máxima	20.3
14723	7	Sololá	701	Sololá	1	Sololá	3	Marzo	2023-03-29T00:00:00	2024-11-08T11:00:00	3	Temperatura mínima	18.6
14724	7	Sololá	701	Sololá	1	Sololá	3	Marzo	2023-03-29T00:00:00	2024-11-08T11:00:00	5	Humedad	60
14725	7	Sololá	701	Sololá	1	Sololá	3	Marzo	2023-03-29T00:00:00	2024-11-08T11:00:00	6	Velocidad del viento	0
14726	7	Sololá	701	Sololá	1	Sololá	3	Marzo	2023-03-29T00:00:00	2024-11-08T11:00:00	7	Dirección del viento	0
14727	7	Sololá	701	Sololá	1	Sololá	3	Marzo	2023-03-29T00:00:00	2024-11-08T11:00:00	1	Precipitación	0
14728	7	Sololá	701	Sololá	1	Sololá	3	Marzo	2023-03-29T00:00:00	2024-11-08T11:00:00	8	Radiación solar	957
14729	7	Sololá	701	Sololá	1	Sololá	3	Marzo	2023-03-29T00:00:00	2024-11-08T12:00:00	2	Temperatura media	22.4
14730	7	Sololá	701	Sololá	1	Sololá	3	Marzo	2023-03-29T00:00:00	2024-11-08T12:00:00	4	Temperatura máxima	22.4
14731	7	Sololá	701	Sololá	1	Sololá	3	Marzo	2023-03-29T00:00:00	2024-11-08T12:00:00	3	Temperatura mínima	20
14732	7	Sololá	701	Sololá	1	Sololá	3	Marzo	2023-03-29T00:00:00	2024-11-08T12:00:00	5	Humedad	52
14733	7	Sololá	701	Sololá	1	Sololá	3	Marzo	2023-03-29T00:00:00	2024-11-08T12:00:00	6	Velocidad del viento	0
14734	7	Sololá	701	Sololá	1	Sololá	3	Marzo	2023-03-29T00:00:00	2024-11-08T12:00:00	7	Dirección del viento	0
14735	7	Sololá	701	Sololá	1	Sololá	3	Marzo	2023-03-29T00:00:00	2024-11-08T12:00:00	1	Precipitación	0
14736	7	Sololá	701	Sololá	1	Sololá	3	Marzo	2023-03-29T00:00:00	2024-11-08T12:00:00	8	Radiación solar	1008
14737	7	Sololá	701	Sololá	1	Sololá	3	Marzo	2023-03-29T00:00:00	2024-11-08T13:00:00	2	Temperatura media	23.6
14738	7	Sololá	701	Sololá	1	Sololá	3	Marzo	2023-03-29T00:00:00	2024-11-08T13:00:00	4	Temperatura máxima	23.6
14739	7	Sololá	701	Sololá	1	Sololá	3	Marzo	2023-03-29T00:00:00	2024-11-08T13:00:00	3	Temperatura mínima	22.2
14740	7	Sololá	701	Sololá	1	Sololá	3	Marzo	2023-03-29T00:00:00	2024-11-08T13:00:00	5	Humedad	45
14741	7	Sololá	701	Sololá	1	Sololá	3	Marzo	2023-03-29T00:00:00	2024-11-08T13:00:00	6	Velocidad del viento	1.6
14742	7	Sololá	701	Sololá	1	Sololá	3	Marzo	2023-03-29T00:00:00	2024-11-08T13:00:00	7	Dirección del viento	1.61
14743	7	Sololá	701	Sololá	1	Sololá	3	Marzo	2023-03-29T00:00:00	2024-11-08T13:00:00	1	Precipitación	0
14744	7	Sololá	701	Sololá	1	Sololá	3	Marzo	2023-03-29T00:00:00	2024-11-08T13:00:00	8	Radiación solar	981
14745	7	Sololá	701	Sololá	1	Sololá	3	Marzo	2023-03-29T00:00:00	2024-11-08T14:00:00	2	Temperatura media	24.3
14746	7	Sololá	701	Sololá	1	Sololá	3	Marzo	2023-03-29T00:00:00	2024-11-08T14:00:00	4	Temperatura máxima	24.4
14747	7	Sololá	701	Sololá	1	Sololá	3	Marzo	2023-03-29T00:00:00	2024-11-08T14:00:00	3	Temperatura mínima	23.6
14748	7	Sololá	701	Sololá	1	Sololá	3	Marzo	2023-03-29T00:00:00	2024-11-08T14:00:00	5	Humedad	44
14749	7	Sololá	701	Sololá	1	Sololá	3	Marzo	2023-03-29T00:00:00	2024-11-08T14:00:00	6	Velocidad del viento	0
14750	7	Sololá	701	Sololá	1	Sololá	3	Marzo	2023-03-29T00:00:00	2024-11-08T14:00:00	7	Dirección del viento	0
14751	7	Sololá	701	Sololá	1	Sololá	3	Marzo	2023-03-29T00:00:00	2024-11-08T14:00:00	1	Precipitación	0
14752	7	Sololá	701	Sololá	1	Sololá	3	Marzo	2023-03-29T00:00:00	2024-11-08T14:00:00	8	Radiación solar	417
14753	7	Sololá	701	Sololá	1	Sololá	3	Marzo	2023-03-29T00:00:00	2024-11-08T15:00:00	2	Temperatura media	24.1
14754	7	Sololá	701	Sololá	1	Sololá	3	Marzo	2023-03-29T00:00:00	2024-11-08T15:00:00	4	Temperatura máxima	24.6
14755	7	Sololá	701	Sololá	1	Sololá	3	Marzo	2023-03-29T00:00:00	2024-11-08T15:00:00	3	Temperatura mínima	24.1
14756	7	Sololá	701	Sololá	1	Sololá	3	Marzo	2023-03-29T00:00:00	2024-11-08T15:00:00	5	Humedad	43
14757	7	Sololá	701	Sololá	1	Sololá	3	Marzo	2023-03-29T00:00:00	2024-11-08T15:00:00	6	Velocidad del viento	0
14758	7	Sololá	701	Sololá	1	Sololá	3	Marzo	2023-03-29T00:00:00	2024-11-08T15:00:00	7	Dirección del viento	0
14759	7	Sololá	701	Sololá	1	Sololá	3	Marzo	2023-03-29T00:00:00	2024-11-08T15:00:00	1	Precipitación	0
14760	7	Sololá	701	Sololá	1	Sololá	3	Marzo	2023-03-29T00:00:00	2024-11-08T15:00:00	8	Radiación solar	97
14761	7	Sololá	701	Sololá	1	Sololá	3	Marzo	2023-03-29T00:00:00	2024-11-08T16:00:00	2	Temperatura media	23.5
14762	7	Sololá	701	Sololá	1	Sololá	3	Marzo	2023-03-29T00:00:00	2024-11-08T16:00:00	4	Temperatura máxima	24.1
14763	7	Sololá	701	Sololá	1	Sololá	3	Marzo	2023-03-29T00:00:00	2024-11-08T16:00:00	3	Temperatura mínima	23.4
14764	7	Sololá	701	Sololá	1	Sololá	3	Marzo	2023-03-29T00:00:00	2024-11-08T16:00:00	5	Humedad	43
14765	7	Sololá	701	Sololá	1	Sololá	3	Marzo	2023-03-29T00:00:00	2024-11-08T16:00:00	6	Velocidad del viento	0
14766	7	Sololá	701	Sololá	1	Sololá	3	Marzo	2023-03-29T00:00:00	2024-11-08T16:00:00	7	Dirección del viento	0
14767	7	Sololá	701	Sololá	1	Sololá	3	Marzo	2023-03-29T00:00:00	2024-11-08T16:00:00	1	Precipitación	0
14768	7	Sololá	701	Sololá	1	Sololá	3	Marzo	2023-03-29T00:00:00	2024-11-08T16:00:00	8	Radiación solar	67
14769	7	Sololá	701	Sololá	1	Sololá	3	Marzo	2023-03-29T00:00:00	2024-11-08T17:00:00	2	Temperatura media	23.8
14770	7	Sololá	701	Sololá	1	Sololá	3	Marzo	2023-03-29T00:00:00	2024-11-08T17:00:00	4	Temperatura máxima	23.9
14771	7	Sololá	701	Sololá	1	Sololá	3	Marzo	2023-03-29T00:00:00	2024-11-08T17:00:00	3	Temperatura mínima	23.5
14772	7	Sololá	701	Sololá	1	Sololá	3	Marzo	2023-03-29T00:00:00	2024-11-08T17:00:00	5	Humedad	42
14773	7	Sololá	701	Sololá	1	Sololá	3	Marzo	2023-03-29T00:00:00	2024-11-08T17:00:00	6	Velocidad del viento	0
14774	7	Sololá	701	Sololá	1	Sololá	3	Marzo	2023-03-29T00:00:00	2024-11-08T17:00:00	7	Dirección del viento	0
14775	7	Sololá	701	Sololá	1	Sololá	3	Marzo	2023-03-29T00:00:00	2024-11-08T17:00:00	1	Precipitación	0
14776	7	Sololá	701	Sololá	1	Sololá	3	Marzo	2023-03-29T00:00:00	2024-11-08T17:00:00	8	Radiación solar	42
14777	7	Sololá	701	Sololá	1	Sololá	3	Marzo	2023-03-29T00:00:00	2024-11-08T18:00:00	2	Temperatura media	22.1
14778	7	Sololá	701	Sololá	1	Sololá	3	Marzo	2023-03-29T00:00:00	2024-11-08T18:00:00	4	Temperatura máxima	23.8
14779	7	Sololá	701	Sololá	1	Sololá	3	Marzo	2023-03-29T00:00:00	2024-11-08T18:00:00	3	Temperatura mínima	22
14780	7	Sololá	701	Sololá	1	Sololá	3	Marzo	2023-03-29T00:00:00	2024-11-08T18:00:00	5	Humedad	47
14781	7	Sololá	701	Sololá	1	Sololá	3	Marzo	2023-03-29T00:00:00	2024-11-08T18:00:00	6	Velocidad del viento	0
14782	7	Sololá	701	Sololá	1	Sololá	3	Marzo	2023-03-29T00:00:00	2024-11-08T18:00:00	7	Dirección del viento	0
14783	7	Sololá	701	Sololá	1	Sololá	3	Marzo	2023-03-29T00:00:00	2024-11-08T18:00:00	1	Precipitación	0
14784	7	Sololá	701	Sololá	1	Sololá	3	Marzo	2023-03-29T00:00:00	2024-11-08T18:00:00	8	Radiación solar	23
14785	7	Sololá	701	Sololá	1	Sololá	3	Marzo	2023-03-29T00:00:00	2024-11-08T19:00:00	2	Temperatura media	19.8
14786	7	Sololá	701	Sololá	1	Sololá	3	Marzo	2023-03-29T00:00:00	2024-11-08T19:00:00	4	Temperatura máxima	22.1
14787	7	Sololá	701	Sololá	1	Sololá	3	Marzo	2023-03-29T00:00:00	2024-11-08T19:00:00	3	Temperatura mínima	19.8
14788	7	Sololá	701	Sololá	1	Sololá	3	Marzo	2023-03-29T00:00:00	2024-11-08T19:00:00	5	Humedad	53
14789	7	Sololá	701	Sololá	1	Sololá	3	Marzo	2023-03-29T00:00:00	2024-11-08T19:00:00	6	Velocidad del viento	0
14790	7	Sololá	701	Sololá	1	Sololá	3	Marzo	2023-03-29T00:00:00	2024-11-08T19:00:00	7	Dirección del viento	0
14791	7	Sololá	701	Sololá	1	Sololá	3	Marzo	2023-03-29T00:00:00	2024-11-08T19:00:00	1	Precipitación	0
14792	7	Sololá	701	Sololá	1	Sololá	3	Marzo	2023-03-29T00:00:00	2024-11-08T19:00:00	8	Radiación solar	0
14793	7	Sololá	701	Sololá	1	Sololá	3	Marzo	2023-03-29T00:00:00	2024-11-08T20:00:00	2	Temperatura media	16.5
14794	7	Sololá	701	Sololá	1	Sololá	3	Marzo	2023-03-29T00:00:00	2024-11-08T20:00:00	4	Temperatura máxima	19.8
14795	7	Sololá	701	Sololá	1	Sololá	3	Marzo	2023-03-29T00:00:00	2024-11-08T20:00:00	3	Temperatura mínima	16.5
14796	7	Sololá	701	Sololá	1	Sololá	3	Marzo	2023-03-29T00:00:00	2024-11-08T20:00:00	5	Humedad	63
14797	7	Sololá	701	Sololá	1	Sololá	3	Marzo	2023-03-29T00:00:00	2024-11-08T20:00:00	6	Velocidad del viento	0
14798	7	Sololá	701	Sololá	1	Sololá	3	Marzo	2023-03-29T00:00:00	2024-11-08T20:00:00	7	Dirección del viento	0
14799	7	Sololá	701	Sololá	1	Sololá	3	Marzo	2023-03-29T00:00:00	2024-11-08T20:00:00	1	Precipitación	0
14800	7	Sololá	701	Sololá	1	Sololá	3	Marzo	2023-03-29T00:00:00	2024-11-08T20:00:00	8	Radiación solar	0
14801	7	Sololá	701	Sololá	1	Sololá	3	Marzo	2023-03-29T00:00:00	2024-11-08T21:00:00	2	Temperatura media	15
14802	7	Sololá	701	Sololá	1	Sololá	3	Marzo	2023-03-29T00:00:00	2024-11-08T21:00:00	4	Temperatura máxima	16.5
14803	7	Sololá	701	Sololá	1	Sololá	3	Marzo	2023-03-29T00:00:00	2024-11-08T21:00:00	3	Temperatura mínima	15
14804	7	Sololá	701	Sololá	1	Sololá	3	Marzo	2023-03-29T00:00:00	2024-11-08T21:00:00	5	Humedad	72
14805	7	Sololá	701	Sololá	1	Sololá	3	Marzo	2023-03-29T00:00:00	2024-11-08T21:00:00	6	Velocidad del viento	0
14806	7	Sololá	701	Sololá	1	Sololá	3	Marzo	2023-03-29T00:00:00	2024-11-08T21:00:00	7	Dirección del viento	0
14807	7	Sololá	701	Sololá	1	Sololá	3	Marzo	2023-03-29T00:00:00	2024-11-08T21:00:00	1	Precipitación	0
14808	7	Sololá	701	Sololá	1	Sololá	3	Marzo	2023-03-29T00:00:00	2024-11-08T21:00:00	8	Radiación solar	0
14809	7	Sololá	701	Sololá	1	Sololá	3	Marzo	2023-03-29T00:00:00	2024-11-08T22:00:00	2	Temperatura media	14.1
14810	7	Sololá	701	Sololá	1	Sololá	3	Marzo	2023-03-29T00:00:00	2024-11-08T22:00:00	4	Temperatura máxima	15
14811	7	Sololá	701	Sololá	1	Sololá	3	Marzo	2023-03-29T00:00:00	2024-11-08T22:00:00	3	Temperatura mínima	14.1
14812	7	Sololá	701	Sololá	1	Sololá	3	Marzo	2023-03-29T00:00:00	2024-11-08T22:00:00	5	Humedad	71
14813	7	Sololá	701	Sololá	1	Sololá	3	Marzo	2023-03-29T00:00:00	2024-11-08T22:00:00	6	Velocidad del viento	0
14814	7	Sololá	701	Sololá	1	Sololá	3	Marzo	2023-03-29T00:00:00	2024-11-08T22:00:00	7	Dirección del viento	0
14815	7	Sololá	701	Sololá	1	Sololá	3	Marzo	2023-03-29T00:00:00	2024-11-08T22:00:00	1	Precipitación	0
14816	7	Sololá	701	Sololá	1	Sololá	3	Marzo	2023-03-29T00:00:00	2024-11-08T22:00:00	8	Radiación solar	0
14817	7	Sololá	701	Sololá	1	Sololá	3	Marzo	2023-03-29T00:00:00	2024-11-08T23:00:00	2	Temperatura media	13.7
14818	7	Sololá	701	Sololá	1	Sololá	3	Marzo	2023-03-29T00:00:00	2024-11-08T23:00:00	4	Temperatura máxima	14.2
14819	7	Sololá	701	Sololá	1	Sololá	3	Marzo	2023-03-29T00:00:00	2024-11-08T23:00:00	3	Temperatura mínima	13.7
14820	7	Sololá	701	Sololá	1	Sololá	3	Marzo	2023-03-29T00:00:00	2024-11-08T23:00:00	5	Humedad	71
14821	7	Sololá	701	Sololá	1	Sololá	3	Marzo	2023-03-29T00:00:00	2024-11-08T23:00:00	6	Velocidad del viento	0
14822	7	Sololá	701	Sololá	1	Sololá	3	Marzo	2023-03-29T00:00:00	2024-11-08T23:00:00	7	Dirección del viento	0
14823	7	Sololá	701	Sololá	1	Sololá	3	Marzo	2023-03-29T00:00:00	2024-11-08T23:00:00	1	Precipitación	0
14824	7	Sololá	701	Sololá	1	Sololá	3	Marzo	2023-03-29T00:00:00	2024-11-08T23:00:00	8	Radiación solar	0
14825	7	Sololá	701	Sololá	1	Sololá	3	Marzo	2023-03-30T00:00:00	2024-11-08T00:00:00	2	Temperatura media	13.2
14826	7	Sololá	701	Sololá	1	Sololá	3	Marzo	2023-03-30T00:00:00	2024-11-08T00:00:00	4	Temperatura máxima	13.7
14827	7	Sololá	701	Sololá	1	Sololá	3	Marzo	2023-03-30T00:00:00	2024-11-08T00:00:00	3	Temperatura mínima	13.2
14828	7	Sololá	701	Sololá	1	Sololá	3	Marzo	2023-03-30T00:00:00	2024-11-08T00:00:00	5	Humedad	73
14829	7	Sololá	701	Sololá	1	Sololá	3	Marzo	2023-03-30T00:00:00	2024-11-08T00:00:00	6	Velocidad del viento	0
14830	7	Sololá	701	Sololá	1	Sololá	3	Marzo	2023-03-30T00:00:00	2024-11-08T00:00:00	7	Dirección del viento	0
14831	7	Sololá	701	Sololá	1	Sololá	3	Marzo	2023-03-30T00:00:00	2024-11-08T00:00:00	1	Precipitación	0
14832	7	Sololá	701	Sololá	1	Sololá	3	Marzo	2023-03-30T00:00:00	2024-11-08T00:00:00	8	Radiación solar	0
14833	7	Sololá	701	Sololá	1	Sololá	3	Marzo	2023-03-30T00:00:00	2024-11-08T01:00:00	2	Temperatura media	12.6
14834	7	Sololá	701	Sololá	1	Sololá	3	Marzo	2023-03-30T00:00:00	2024-11-08T01:00:00	4	Temperatura máxima	13.2
14835	7	Sololá	701	Sololá	1	Sololá	3	Marzo	2023-03-30T00:00:00	2024-11-08T01:00:00	3	Temperatura mínima	12.6
14836	7	Sololá	701	Sololá	1	Sololá	3	Marzo	2023-03-30T00:00:00	2024-11-08T01:00:00	5	Humedad	77
14837	7	Sololá	701	Sololá	1	Sololá	3	Marzo	2023-03-30T00:00:00	2024-11-08T01:00:00	6	Velocidad del viento	0
14838	7	Sololá	701	Sololá	1	Sololá	3	Marzo	2023-03-30T00:00:00	2024-11-08T01:00:00	7	Dirección del viento	0
14839	7	Sololá	701	Sololá	1	Sololá	3	Marzo	2023-03-30T00:00:00	2024-11-08T01:00:00	1	Precipitación	0
14840	7	Sololá	701	Sololá	1	Sololá	3	Marzo	2023-03-30T00:00:00	2024-11-08T01:00:00	8	Radiación solar	0
14841	7	Sololá	701	Sololá	1	Sololá	3	Marzo	2023-03-30T00:00:00	2024-11-08T02:00:00	2	Temperatura media	12.4
14842	7	Sololá	701	Sololá	1	Sololá	3	Marzo	2023-03-30T00:00:00	2024-11-08T02:00:00	4	Temperatura máxima	12.6
14843	7	Sololá	701	Sololá	1	Sololá	3	Marzo	2023-03-30T00:00:00	2024-11-08T02:00:00	3	Temperatura mínima	12.4
14844	7	Sololá	701	Sololá	1	Sololá	3	Marzo	2023-03-30T00:00:00	2024-11-08T02:00:00	5	Humedad	77
14845	7	Sololá	701	Sololá	1	Sololá	3	Marzo	2023-03-30T00:00:00	2024-11-08T02:00:00	6	Velocidad del viento	0
14846	7	Sololá	701	Sololá	1	Sololá	3	Marzo	2023-03-30T00:00:00	2024-11-08T02:00:00	7	Dirección del viento	0
14847	7	Sololá	701	Sololá	1	Sololá	3	Marzo	2023-03-30T00:00:00	2024-11-08T02:00:00	1	Precipitación	0
14848	7	Sololá	701	Sololá	1	Sololá	3	Marzo	2023-03-30T00:00:00	2024-11-08T02:00:00	8	Radiación solar	0
14849	7	Sololá	701	Sololá	1	Sololá	3	Marzo	2023-03-30T00:00:00	2024-11-08T03:00:00	2	Temperatura media	12
14850	7	Sololá	701	Sololá	1	Sololá	3	Marzo	2023-03-30T00:00:00	2024-11-08T03:00:00	4	Temperatura máxima	12.4
14851	7	Sololá	701	Sololá	1	Sololá	3	Marzo	2023-03-30T00:00:00	2024-11-08T03:00:00	3	Temperatura mínima	11.9
14852	7	Sololá	701	Sololá	1	Sololá	3	Marzo	2023-03-30T00:00:00	2024-11-08T03:00:00	5	Humedad	76
14853	7	Sololá	701	Sololá	1	Sololá	3	Marzo	2023-03-30T00:00:00	2024-11-08T03:00:00	6	Velocidad del viento	0
14854	7	Sololá	701	Sololá	1	Sololá	3	Marzo	2023-03-30T00:00:00	2024-11-08T03:00:00	7	Dirección del viento	0
14855	7	Sololá	701	Sololá	1	Sololá	3	Marzo	2023-03-30T00:00:00	2024-11-08T03:00:00	1	Precipitación	0
14856	7	Sololá	701	Sololá	1	Sololá	3	Marzo	2023-03-30T00:00:00	2024-11-08T03:00:00	8	Radiación solar	0
14857	7	Sololá	701	Sololá	1	Sololá	3	Marzo	2023-03-30T00:00:00	2024-11-08T04:00:00	2	Temperatura media	11.7
14858	7	Sololá	701	Sololá	1	Sololá	3	Marzo	2023-03-30T00:00:00	2024-11-08T04:00:00	4	Temperatura máxima	12
14859	7	Sololá	701	Sololá	1	Sololá	3	Marzo	2023-03-30T00:00:00	2024-11-08T04:00:00	3	Temperatura mínima	11.7
14860	7	Sololá	701	Sololá	1	Sololá	3	Marzo	2023-03-30T00:00:00	2024-11-08T04:00:00	5	Humedad	74
14861	7	Sololá	701	Sololá	1	Sololá	3	Marzo	2023-03-30T00:00:00	2024-11-08T04:00:00	6	Velocidad del viento	0
14862	7	Sololá	701	Sololá	1	Sololá	3	Marzo	2023-03-30T00:00:00	2024-11-08T04:00:00	7	Dirección del viento	0
14863	7	Sololá	701	Sololá	1	Sololá	3	Marzo	2023-03-30T00:00:00	2024-11-08T04:00:00	1	Precipitación	0
14864	7	Sololá	701	Sololá	1	Sololá	3	Marzo	2023-03-30T00:00:00	2024-11-08T04:00:00	8	Radiación solar	0
14865	7	Sololá	701	Sololá	1	Sololá	3	Marzo	2023-03-30T00:00:00	2024-11-08T05:00:00	2	Temperatura media	11.4
14866	7	Sololá	701	Sololá	1	Sololá	3	Marzo	2023-03-30T00:00:00	2024-11-08T05:00:00	4	Temperatura máxima	11.7
14867	7	Sololá	701	Sololá	1	Sololá	3	Marzo	2023-03-30T00:00:00	2024-11-08T05:00:00	3	Temperatura mínima	11.3
14868	7	Sololá	701	Sololá	1	Sololá	3	Marzo	2023-03-30T00:00:00	2024-11-08T05:00:00	5	Humedad	72
14869	7	Sololá	701	Sololá	1	Sololá	3	Marzo	2023-03-30T00:00:00	2024-11-08T05:00:00	6	Velocidad del viento	0
14870	7	Sololá	701	Sololá	1	Sololá	3	Marzo	2023-03-30T00:00:00	2024-11-08T05:00:00	7	Dirección del viento	0
14871	7	Sololá	701	Sololá	1	Sololá	3	Marzo	2023-03-30T00:00:00	2024-11-08T05:00:00	1	Precipitación	0
14872	7	Sololá	701	Sololá	1	Sololá	3	Marzo	2023-03-30T00:00:00	2024-11-08T05:00:00	8	Radiación solar	0
14873	7	Sololá	701	Sololá	1	Sololá	3	Marzo	2023-03-30T00:00:00	2024-11-08T06:00:00	2	Temperatura media	11
14874	7	Sololá	701	Sololá	1	Sololá	3	Marzo	2023-03-30T00:00:00	2024-11-08T06:00:00	4	Temperatura máxima	11.4
14875	7	Sololá	701	Sololá	1	Sololá	3	Marzo	2023-03-30T00:00:00	2024-11-08T06:00:00	3	Temperatura mínima	11
14876	7	Sololá	701	Sololá	1	Sololá	3	Marzo	2023-03-30T00:00:00	2024-11-08T06:00:00	5	Humedad	76
14877	7	Sololá	701	Sololá	1	Sololá	3	Marzo	2023-03-30T00:00:00	2024-11-08T06:00:00	6	Velocidad del viento	0
14878	7	Sololá	701	Sololá	1	Sololá	3	Marzo	2023-03-30T00:00:00	2024-11-08T06:00:00	7	Dirección del viento	0
14879	7	Sololá	701	Sololá	1	Sololá	3	Marzo	2023-03-30T00:00:00	2024-11-08T06:00:00	1	Precipitación	0
14880	7	Sololá	701	Sololá	1	Sololá	3	Marzo	2023-03-30T00:00:00	2024-11-08T06:00:00	8	Radiación solar	0
14881	7	Sololá	701	Sololá	1	Sololá	3	Marzo	2023-03-30T00:00:00	2024-11-08T07:00:00	2	Temperatura media	11.1
14882	7	Sololá	701	Sololá	1	Sololá	3	Marzo	2023-03-30T00:00:00	2024-11-08T07:00:00	4	Temperatura máxima	11.1
14883	7	Sololá	701	Sololá	1	Sololá	3	Marzo	2023-03-30T00:00:00	2024-11-08T07:00:00	3	Temperatura mínima	10.8
14884	7	Sololá	701	Sololá	1	Sololá	3	Marzo	2023-03-30T00:00:00	2024-11-08T07:00:00	5	Humedad	74
14885	7	Sololá	701	Sololá	1	Sololá	3	Marzo	2023-03-30T00:00:00	2024-11-08T07:00:00	6	Velocidad del viento	0
14886	7	Sololá	701	Sololá	1	Sololá	3	Marzo	2023-03-30T00:00:00	2024-11-08T07:00:00	7	Dirección del viento	0
14887	7	Sololá	701	Sololá	1	Sololá	3	Marzo	2023-03-30T00:00:00	2024-11-08T07:00:00	1	Precipitación	0
14888	7	Sololá	701	Sololá	1	Sololá	3	Marzo	2023-03-30T00:00:00	2024-11-08T07:00:00	8	Radiación solar	11
14889	7	Sololá	701	Sololá	1	Sololá	3	Marzo	2023-03-30T00:00:00	2024-11-08T08:00:00	2	Temperatura media	11.6
14890	7	Sololá	701	Sololá	1	Sololá	3	Marzo	2023-03-30T00:00:00	2024-11-08T08:00:00	4	Temperatura máxima	11.6
14891	7	Sololá	701	Sololá	1	Sololá	3	Marzo	2023-03-30T00:00:00	2024-11-08T08:00:00	3	Temperatura mínima	10.9
14892	7	Sololá	701	Sololá	1	Sololá	3	Marzo	2023-03-30T00:00:00	2024-11-08T08:00:00	5	Humedad	74
14893	7	Sololá	701	Sololá	1	Sololá	3	Marzo	2023-03-30T00:00:00	2024-11-08T08:00:00	6	Velocidad del viento	0
14894	7	Sololá	701	Sololá	1	Sololá	3	Marzo	2023-03-30T00:00:00	2024-11-08T08:00:00	7	Dirección del viento	0
14895	7	Sololá	701	Sololá	1	Sololá	3	Marzo	2023-03-30T00:00:00	2024-11-08T08:00:00	1	Precipitación	0
14896	7	Sololá	701	Sololá	1	Sololá	3	Marzo	2023-03-30T00:00:00	2024-11-08T08:00:00	8	Radiación solar	284
14897	7	Sololá	701	Sololá	1	Sololá	3	Marzo	2023-03-30T00:00:00	2024-11-08T09:00:00	2	Temperatura media	15.3
14898	7	Sololá	701	Sololá	1	Sololá	3	Marzo	2023-03-30T00:00:00	2024-11-08T09:00:00	4	Temperatura máxima	15.3
14899	7	Sololá	701	Sololá	1	Sololá	3	Marzo	2023-03-30T00:00:00	2024-11-08T09:00:00	3	Temperatura mínima	11.6
14900	7	Sololá	701	Sololá	1	Sololá	3	Marzo	2023-03-30T00:00:00	2024-11-08T09:00:00	5	Humedad	66
14901	7	Sololá	701	Sololá	1	Sololá	3	Marzo	2023-03-30T00:00:00	2024-11-08T09:00:00	6	Velocidad del viento	0
14902	7	Sololá	701	Sololá	1	Sololá	3	Marzo	2023-03-30T00:00:00	2024-11-08T09:00:00	7	Dirección del viento	0
14903	7	Sololá	701	Sololá	1	Sololá	3	Marzo	2023-03-30T00:00:00	2024-11-08T09:00:00	1	Precipitación	0
14904	7	Sololá	701	Sololá	1	Sololá	3	Marzo	2023-03-30T00:00:00	2024-11-08T09:00:00	8	Radiación solar	603
14905	7	Sololá	701	Sololá	1	Sololá	3	Marzo	2023-03-30T00:00:00	2024-11-08T10:00:00	2	Temperatura media	19
14906	7	Sololá	701	Sololá	1	Sololá	3	Marzo	2023-03-30T00:00:00	2024-11-08T10:00:00	4	Temperatura máxima	19.1
14907	7	Sololá	701	Sololá	1	Sololá	3	Marzo	2023-03-30T00:00:00	2024-11-08T10:00:00	3	Temperatura mínima	15.3
14908	7	Sololá	701	Sololá	1	Sololá	3	Marzo	2023-03-30T00:00:00	2024-11-08T10:00:00	5	Humedad	54
14909	7	Sololá	701	Sololá	1	Sololá	3	Marzo	2023-03-30T00:00:00	2024-11-08T10:00:00	6	Velocidad del viento	0
14910	7	Sololá	701	Sololá	1	Sololá	3	Marzo	2023-03-30T00:00:00	2024-11-08T10:00:00	7	Dirección del viento	0
14911	7	Sololá	701	Sololá	1	Sololá	3	Marzo	2023-03-30T00:00:00	2024-11-08T10:00:00	1	Precipitación	0
14912	7	Sololá	701	Sololá	1	Sololá	3	Marzo	2023-03-30T00:00:00	2024-11-08T10:00:00	8	Radiación solar	799
14913	7	Sololá	701	Sololá	1	Sololá	3	Marzo	2023-03-30T00:00:00	2024-11-08T11:00:00	2	Temperatura media	20.8
14914	7	Sololá	701	Sololá	1	Sololá	3	Marzo	2023-03-30T00:00:00	2024-11-08T11:00:00	4	Temperatura máxima	20.8
14915	7	Sololá	701	Sololá	1	Sololá	3	Marzo	2023-03-30T00:00:00	2024-11-08T11:00:00	3	Temperatura mínima	19
14916	7	Sololá	701	Sololá	1	Sololá	3	Marzo	2023-03-30T00:00:00	2024-11-08T11:00:00	5	Humedad	54
14917	7	Sololá	701	Sololá	1	Sololá	3	Marzo	2023-03-30T00:00:00	2024-11-08T11:00:00	6	Velocidad del viento	0
14918	7	Sololá	701	Sololá	1	Sololá	3	Marzo	2023-03-30T00:00:00	2024-11-08T11:00:00	7	Dirección del viento	0
14919	7	Sololá	701	Sololá	1	Sololá	3	Marzo	2023-03-30T00:00:00	2024-11-08T11:00:00	1	Precipitación	0
14920	7	Sololá	701	Sololá	1	Sololá	3	Marzo	2023-03-30T00:00:00	2024-11-08T11:00:00	8	Radiación solar	935
14921	7	Sololá	701	Sololá	1	Sololá	3	Marzo	2023-03-30T00:00:00	2024-11-08T12:00:00	2	Temperatura media	22.2
14922	7	Sololá	701	Sololá	1	Sololá	3	Marzo	2023-03-30T00:00:00	2024-11-08T12:00:00	4	Temperatura máxima	22.4
14923	7	Sololá	701	Sololá	1	Sololá	3	Marzo	2023-03-30T00:00:00	2024-11-08T12:00:00	3	Temperatura mínima	20.8
14924	7	Sololá	701	Sololá	1	Sololá	3	Marzo	2023-03-30T00:00:00	2024-11-08T12:00:00	5	Humedad	49
14925	7	Sololá	701	Sololá	1	Sololá	3	Marzo	2023-03-30T00:00:00	2024-11-08T12:00:00	6	Velocidad del viento	0
14926	7	Sololá	701	Sololá	1	Sololá	3	Marzo	2023-03-30T00:00:00	2024-11-08T12:00:00	7	Dirección del viento	0
14927	7	Sololá	701	Sololá	1	Sololá	3	Marzo	2023-03-30T00:00:00	2024-11-08T12:00:00	1	Precipitación	0
14928	7	Sololá	701	Sololá	1	Sololá	3	Marzo	2023-03-30T00:00:00	2024-11-08T12:00:00	8	Radiación solar	1008
14929	7	Sololá	701	Sololá	1	Sololá	3	Marzo	2023-03-30T00:00:00	2024-11-08T13:00:00	2	Temperatura media	22.9
14930	7	Sololá	701	Sololá	1	Sololá	3	Marzo	2023-03-30T00:00:00	2024-11-08T13:00:00	4	Temperatura máxima	22.9
14931	7	Sololá	701	Sololá	1	Sololá	3	Marzo	2023-03-30T00:00:00	2024-11-08T13:00:00	3	Temperatura mínima	22.1
14932	7	Sololá	701	Sololá	1	Sololá	3	Marzo	2023-03-30T00:00:00	2024-11-08T13:00:00	5	Humedad	47
14933	7	Sololá	701	Sololá	1	Sololá	3	Marzo	2023-03-30T00:00:00	2024-11-08T13:00:00	6	Velocidad del viento	0
14934	7	Sololá	701	Sololá	1	Sololá	3	Marzo	2023-03-30T00:00:00	2024-11-08T13:00:00	7	Dirección del viento	0
14935	7	Sololá	701	Sololá	1	Sololá	3	Marzo	2023-03-30T00:00:00	2024-11-08T13:00:00	1	Precipitación	0
14936	7	Sololá	701	Sololá	1	Sololá	3	Marzo	2023-03-30T00:00:00	2024-11-08T13:00:00	8	Radiación solar	994
14937	7	Sololá	701	Sololá	1	Sololá	3	Marzo	2023-03-30T00:00:00	2024-11-08T14:00:00	2	Temperatura media	23.4
14938	7	Sololá	701	Sololá	1	Sololá	3	Marzo	2023-03-30T00:00:00	2024-11-08T14:00:00	4	Temperatura máxima	23.6
14939	7	Sololá	701	Sololá	1	Sololá	3	Marzo	2023-03-30T00:00:00	2024-11-08T14:00:00	3	Temperatura mínima	22.9
14940	7	Sololá	701	Sololá	1	Sololá	3	Marzo	2023-03-30T00:00:00	2024-11-08T14:00:00	5	Humedad	44
14941	7	Sololá	701	Sololá	1	Sololá	3	Marzo	2023-03-30T00:00:00	2024-11-08T14:00:00	6	Velocidad del viento	1.6
14942	7	Sololá	701	Sololá	1	Sololá	3	Marzo	2023-03-30T00:00:00	2024-11-08T14:00:00	7	Dirección del viento	1.61
14943	7	Sololá	701	Sololá	1	Sololá	3	Marzo	2023-03-30T00:00:00	2024-11-08T14:00:00	1	Precipitación	0
14944	7	Sololá	701	Sololá	1	Sololá	3	Marzo	2023-03-30T00:00:00	2024-11-08T14:00:00	8	Radiación solar	392
14945	7	Sololá	701	Sololá	1	Sololá	3	Marzo	2023-03-30T00:00:00	2024-11-08T15:00:00	2	Temperatura media	24.2
14946	7	Sololá	701	Sololá	1	Sololá	3	Marzo	2023-03-30T00:00:00	2024-11-08T15:00:00	4	Temperatura máxima	24.2
14947	7	Sololá	701	Sololá	1	Sololá	3	Marzo	2023-03-30T00:00:00	2024-11-08T15:00:00	3	Temperatura mínima	23.3
14948	7	Sololá	701	Sololá	1	Sololá	3	Marzo	2023-03-30T00:00:00	2024-11-08T15:00:00	5	Humedad	39
14949	7	Sololá	701	Sololá	1	Sololá	3	Marzo	2023-03-30T00:00:00	2024-11-08T15:00:00	6	Velocidad del viento	0
14950	7	Sololá	701	Sololá	1	Sololá	3	Marzo	2023-03-30T00:00:00	2024-11-08T15:00:00	7	Dirección del viento	0
14951	7	Sololá	701	Sololá	1	Sololá	3	Marzo	2023-03-30T00:00:00	2024-11-08T15:00:00	1	Precipitación	0
14952	7	Sololá	701	Sololá	1	Sololá	3	Marzo	2023-03-30T00:00:00	2024-11-08T15:00:00	8	Radiación solar	64
14953	7	Sololá	701	Sololá	1	Sololá	3	Marzo	2023-03-30T00:00:00	2024-11-08T16:00:00	2	Temperatura media	24
14954	7	Sololá	701	Sololá	1	Sololá	3	Marzo	2023-03-30T00:00:00	2024-11-08T16:00:00	4	Temperatura máxima	24.4
14955	7	Sololá	701	Sololá	1	Sololá	3	Marzo	2023-03-30T00:00:00	2024-11-08T16:00:00	3	Temperatura mínima	23.9
14956	7	Sololá	701	Sololá	1	Sololá	3	Marzo	2023-03-30T00:00:00	2024-11-08T16:00:00	5	Humedad	38
14957	7	Sololá	701	Sololá	1	Sololá	3	Marzo	2023-03-30T00:00:00	2024-11-08T16:00:00	6	Velocidad del viento	1.6
14958	7	Sololá	701	Sololá	1	Sololá	3	Marzo	2023-03-30T00:00:00	2024-11-08T16:00:00	7	Dirección del viento	1.61
14959	7	Sololá	701	Sololá	1	Sololá	3	Marzo	2023-03-30T00:00:00	2024-11-08T16:00:00	1	Precipitación	0
14960	7	Sololá	701	Sololá	1	Sololá	3	Marzo	2023-03-30T00:00:00	2024-11-08T16:00:00	8	Radiación solar	56
14961	7	Sololá	701	Sololá	1	Sololá	3	Marzo	2023-03-30T00:00:00	2024-11-08T17:00:00	2	Temperatura media	22.9
14962	7	Sololá	701	Sololá	1	Sololá	3	Marzo	2023-03-30T00:00:00	2024-11-08T17:00:00	4	Temperatura máxima	23.9
14963	7	Sololá	701	Sololá	1	Sololá	3	Marzo	2023-03-30T00:00:00	2024-11-08T17:00:00	3	Temperatura mínima	22.7
14964	7	Sololá	701	Sololá	1	Sololá	3	Marzo	2023-03-30T00:00:00	2024-11-08T17:00:00	5	Humedad	53
14965	7	Sololá	701	Sololá	1	Sololá	3	Marzo	2023-03-30T00:00:00	2024-11-08T17:00:00	6	Velocidad del viento	1.6
14966	7	Sololá	701	Sololá	1	Sololá	3	Marzo	2023-03-30T00:00:00	2024-11-08T17:00:00	7	Dirección del viento	1.61
14967	7	Sololá	701	Sololá	1	Sololá	3	Marzo	2023-03-30T00:00:00	2024-11-08T17:00:00	1	Precipitación	0
14968	7	Sololá	701	Sololá	1	Sololá	3	Marzo	2023-03-30T00:00:00	2024-11-08T17:00:00	8	Radiación solar	39
14969	7	Sololá	701	Sololá	1	Sololá	3	Marzo	2023-03-30T00:00:00	2024-11-08T18:00:00	2	Temperatura media	20.2
14970	7	Sololá	701	Sololá	1	Sololá	3	Marzo	2023-03-30T00:00:00	2024-11-08T18:00:00	4	Temperatura máxima	22.9
14971	7	Sololá	701	Sololá	1	Sololá	3	Marzo	2023-03-30T00:00:00	2024-11-08T18:00:00	3	Temperatura mínima	20.2
14972	7	Sololá	701	Sololá	1	Sololá	3	Marzo	2023-03-30T00:00:00	2024-11-08T18:00:00	5	Humedad	67
14973	7	Sololá	701	Sololá	1	Sololá	3	Marzo	2023-03-30T00:00:00	2024-11-08T18:00:00	6	Velocidad del viento	0
14974	7	Sololá	701	Sololá	1	Sololá	3	Marzo	2023-03-30T00:00:00	2024-11-08T18:00:00	7	Dirección del viento	0
14975	7	Sololá	701	Sololá	1	Sololá	3	Marzo	2023-03-30T00:00:00	2024-11-08T18:00:00	1	Precipitación	0
14976	7	Sololá	701	Sololá	1	Sololá	3	Marzo	2023-03-30T00:00:00	2024-11-08T18:00:00	8	Radiación solar	24
14977	7	Sololá	701	Sololá	1	Sololá	3	Marzo	2023-03-30T00:00:00	2024-11-08T19:00:00	2	Temperatura media	18.4
14978	7	Sololá	701	Sololá	1	Sololá	3	Marzo	2023-03-30T00:00:00	2024-11-08T19:00:00	4	Temperatura máxima	20.2
14979	7	Sololá	701	Sololá	1	Sololá	3	Marzo	2023-03-30T00:00:00	2024-11-08T19:00:00	3	Temperatura mínima	18.4
14980	7	Sololá	701	Sololá	1	Sololá	3	Marzo	2023-03-30T00:00:00	2024-11-08T19:00:00	5	Humedad	77
14981	7	Sololá	701	Sololá	1	Sololá	3	Marzo	2023-03-30T00:00:00	2024-11-08T19:00:00	6	Velocidad del viento	0
14982	7	Sololá	701	Sololá	1	Sololá	3	Marzo	2023-03-30T00:00:00	2024-11-08T19:00:00	7	Dirección del viento	0
14983	7	Sololá	701	Sololá	1	Sololá	3	Marzo	2023-03-30T00:00:00	2024-11-08T19:00:00	1	Precipitación	0
14984	7	Sololá	701	Sololá	1	Sololá	3	Marzo	2023-03-30T00:00:00	2024-11-08T19:00:00	8	Radiación solar	0
14985	7	Sololá	701	Sololá	1	Sololá	3	Marzo	2023-03-30T00:00:00	2024-11-08T20:00:00	2	Temperatura media	16.3
14986	7	Sololá	701	Sololá	1	Sololá	3	Marzo	2023-03-30T00:00:00	2024-11-08T20:00:00	4	Temperatura máxima	18.4
14987	7	Sololá	701	Sololá	1	Sololá	3	Marzo	2023-03-30T00:00:00	2024-11-08T20:00:00	3	Temperatura mínima	16.3
14988	7	Sololá	701	Sololá	1	Sololá	3	Marzo	2023-03-30T00:00:00	2024-11-08T20:00:00	5	Humedad	80
14989	7	Sololá	701	Sololá	1	Sololá	3	Marzo	2023-03-30T00:00:00	2024-11-08T20:00:00	6	Velocidad del viento	0
14990	7	Sololá	701	Sololá	1	Sololá	3	Marzo	2023-03-30T00:00:00	2024-11-08T20:00:00	7	Dirección del viento	0
14991	7	Sololá	701	Sololá	1	Sololá	3	Marzo	2023-03-30T00:00:00	2024-11-08T20:00:00	1	Precipitación	0
14992	7	Sololá	701	Sololá	1	Sololá	3	Marzo	2023-03-30T00:00:00	2024-11-08T20:00:00	8	Radiación solar	0
14993	7	Sololá	701	Sololá	1	Sololá	3	Marzo	2023-03-30T00:00:00	2024-11-08T21:00:00	2	Temperatura media	14.9
14994	7	Sololá	701	Sololá	1	Sololá	3	Marzo	2023-03-30T00:00:00	2024-11-08T21:00:00	4	Temperatura máxima	16.3
14995	7	Sololá	701	Sololá	1	Sololá	3	Marzo	2023-03-30T00:00:00	2024-11-08T21:00:00	3	Temperatura mínima	14.9
14996	7	Sololá	701	Sololá	1	Sololá	3	Marzo	2023-03-30T00:00:00	2024-11-08T21:00:00	5	Humedad	80
14997	7	Sololá	701	Sololá	1	Sololá	3	Marzo	2023-03-30T00:00:00	2024-11-08T21:00:00	6	Velocidad del viento	0
14998	7	Sololá	701	Sololá	1	Sololá	3	Marzo	2023-03-30T00:00:00	2024-11-08T21:00:00	7	Dirección del viento	0
14999	7	Sololá	701	Sololá	1	Sololá	3	Marzo	2023-03-30T00:00:00	2024-11-08T21:00:00	1	Precipitación	0
15000	7	Sololá	701	Sololá	1	Sololá	3	Marzo	2023-03-30T00:00:00	2024-11-08T21:00:00	8	Radiación solar	0
15001	7	Sololá	701	Sololá	1	Sololá	3	Marzo	2023-03-30T00:00:00	2024-11-08T22:00:00	2	Temperatura media	14.8
15002	7	Sololá	701	Sololá	1	Sololá	3	Marzo	2023-03-30T00:00:00	2024-11-08T22:00:00	4	Temperatura máxima	15
15003	7	Sololá	701	Sololá	1	Sololá	3	Marzo	2023-03-30T00:00:00	2024-11-08T22:00:00	3	Temperatura mínima	14.8
15004	7	Sololá	701	Sololá	1	Sololá	3	Marzo	2023-03-30T00:00:00	2024-11-08T22:00:00	5	Humedad	80
15005	7	Sololá	701	Sololá	1	Sololá	3	Marzo	2023-03-30T00:00:00	2024-11-08T22:00:00	6	Velocidad del viento	0
15006	7	Sololá	701	Sololá	1	Sololá	3	Marzo	2023-03-30T00:00:00	2024-11-08T22:00:00	7	Dirección del viento	0
15007	7	Sololá	701	Sololá	1	Sololá	3	Marzo	2023-03-30T00:00:00	2024-11-08T22:00:00	1	Precipitación	0
15008	7	Sololá	701	Sololá	1	Sololá	3	Marzo	2023-03-30T00:00:00	2024-11-08T22:00:00	8	Radiación solar	0
15009	7	Sololá	701	Sololá	1	Sololá	3	Marzo	2023-03-30T00:00:00	2024-11-08T23:00:00	2	Temperatura media	14.2
15010	7	Sololá	701	Sololá	1	Sololá	3	Marzo	2023-03-30T00:00:00	2024-11-08T23:00:00	4	Temperatura máxima	14.8
15011	7	Sololá	701	Sololá	1	Sololá	3	Marzo	2023-03-30T00:00:00	2024-11-08T23:00:00	3	Temperatura mínima	14.2
15012	7	Sololá	701	Sololá	1	Sololá	3	Marzo	2023-03-30T00:00:00	2024-11-08T23:00:00	5	Humedad	79
15013	7	Sololá	701	Sololá	1	Sololá	3	Marzo	2023-03-30T00:00:00	2024-11-08T23:00:00	6	Velocidad del viento	0
15014	7	Sololá	701	Sololá	1	Sololá	3	Marzo	2023-03-30T00:00:00	2024-11-08T23:00:00	7	Dirección del viento	0
15015	7	Sololá	701	Sololá	1	Sololá	3	Marzo	2023-03-30T00:00:00	2024-11-08T23:00:00	1	Precipitación	0
15016	7	Sololá	701	Sololá	1	Sololá	3	Marzo	2023-03-30T00:00:00	2024-11-08T23:00:00	8	Radiación solar	0
15017	7	Sololá	701	Sololá	1	Sololá	3	Marzo	2023-03-31T00:00:00	2024-11-08T00:00:00	2	Temperatura media	13.7
15018	7	Sololá	701	Sololá	1	Sololá	3	Marzo	2023-03-31T00:00:00	2024-11-08T00:00:00	4	Temperatura máxima	14.2
15019	7	Sololá	701	Sololá	1	Sololá	3	Marzo	2023-03-31T00:00:00	2024-11-08T00:00:00	3	Temperatura mínima	13.6
15020	7	Sololá	701	Sololá	1	Sololá	3	Marzo	2023-03-31T00:00:00	2024-11-08T00:00:00	5	Humedad	79
15021	7	Sololá	701	Sololá	1	Sololá	3	Marzo	2023-03-31T00:00:00	2024-11-08T00:00:00	6	Velocidad del viento	0
15022	7	Sololá	701	Sololá	1	Sololá	3	Marzo	2023-03-31T00:00:00	2024-11-08T00:00:00	7	Dirección del viento	0
15023	7	Sololá	701	Sololá	1	Sololá	3	Marzo	2023-03-31T00:00:00	2024-11-08T00:00:00	1	Precipitación	0
15024	7	Sololá	701	Sololá	1	Sololá	3	Marzo	2023-03-31T00:00:00	2024-11-08T00:00:00	8	Radiación solar	0
15025	7	Sololá	701	Sololá	1	Sololá	3	Marzo	2023-03-31T00:00:00	2024-11-08T01:00:00	2	Temperatura media	13.4
15026	7	Sololá	701	Sololá	1	Sololá	3	Marzo	2023-03-31T00:00:00	2024-11-08T01:00:00	4	Temperatura máxima	13.6
15027	7	Sololá	701	Sololá	1	Sololá	3	Marzo	2023-03-31T00:00:00	2024-11-08T01:00:00	3	Temperatura mínima	13.3
15028	7	Sololá	701	Sololá	1	Sololá	3	Marzo	2023-03-31T00:00:00	2024-11-08T01:00:00	5	Humedad	79
15029	7	Sololá	701	Sololá	1	Sololá	3	Marzo	2023-03-31T00:00:00	2024-11-08T01:00:00	6	Velocidad del viento	0
15030	7	Sololá	701	Sololá	1	Sololá	3	Marzo	2023-03-31T00:00:00	2024-11-08T01:00:00	7	Dirección del viento	0
15031	7	Sololá	701	Sololá	1	Sololá	3	Marzo	2023-03-31T00:00:00	2024-11-08T01:00:00	1	Precipitación	0
15032	7	Sololá	701	Sololá	1	Sololá	3	Marzo	2023-03-31T00:00:00	2024-11-08T01:00:00	8	Radiación solar	0
15033	7	Sololá	701	Sololá	1	Sololá	3	Marzo	2023-03-31T00:00:00	2024-11-08T02:00:00	2	Temperatura media	12.8
15034	7	Sololá	701	Sololá	1	Sololá	3	Marzo	2023-03-31T00:00:00	2024-11-08T02:00:00	4	Temperatura máxima	13.4
15035	7	Sololá	701	Sololá	1	Sololá	3	Marzo	2023-03-31T00:00:00	2024-11-08T02:00:00	3	Temperatura mínima	12.8
15036	7	Sololá	701	Sololá	1	Sololá	3	Marzo	2023-03-31T00:00:00	2024-11-08T02:00:00	5	Humedad	80
15037	7	Sololá	701	Sololá	1	Sololá	3	Marzo	2023-03-31T00:00:00	2024-11-08T02:00:00	6	Velocidad del viento	0
15038	7	Sololá	701	Sololá	1	Sololá	3	Marzo	2023-03-31T00:00:00	2024-11-08T02:00:00	7	Dirección del viento	0
15039	7	Sololá	701	Sololá	1	Sololá	3	Marzo	2023-03-31T00:00:00	2024-11-08T02:00:00	1	Precipitación	0
15040	7	Sololá	701	Sololá	1	Sololá	3	Marzo	2023-03-31T00:00:00	2024-11-08T02:00:00	8	Radiación solar	0
15041	7	Sololá	701	Sololá	1	Sololá	3	Marzo	2023-03-31T00:00:00	2024-11-08T03:00:00	2	Temperatura media	12.4
15042	7	Sololá	701	Sololá	1	Sololá	3	Marzo	2023-03-31T00:00:00	2024-11-08T03:00:00	4	Temperatura máxima	12.8
15043	7	Sololá	701	Sololá	1	Sololá	3	Marzo	2023-03-31T00:00:00	2024-11-08T03:00:00	3	Temperatura mínima	12.4
15044	7	Sololá	701	Sololá	1	Sololá	3	Marzo	2023-03-31T00:00:00	2024-11-08T03:00:00	5	Humedad	74
15045	7	Sololá	701	Sololá	1	Sololá	3	Marzo	2023-03-31T00:00:00	2024-11-08T03:00:00	6	Velocidad del viento	0
15046	7	Sololá	701	Sololá	1	Sololá	3	Marzo	2023-03-31T00:00:00	2024-11-08T03:00:00	7	Dirección del viento	0
15047	7	Sololá	701	Sololá	1	Sololá	3	Marzo	2023-03-31T00:00:00	2024-11-08T03:00:00	1	Precipitación	0
15048	7	Sololá	701	Sololá	1	Sololá	3	Marzo	2023-03-31T00:00:00	2024-11-08T03:00:00	8	Radiación solar	0
15049	7	Sololá	701	Sololá	1	Sololá	3	Marzo	2023-03-31T00:00:00	2024-11-08T04:00:00	2	Temperatura media	12.3
15050	7	Sololá	701	Sololá	1	Sololá	3	Marzo	2023-03-31T00:00:00	2024-11-08T04:00:00	4	Temperatura máxima	12.5
15051	7	Sololá	701	Sololá	1	Sololá	3	Marzo	2023-03-31T00:00:00	2024-11-08T04:00:00	3	Temperatura mínima	12.2
15052	7	Sololá	701	Sololá	1	Sololá	3	Marzo	2023-03-31T00:00:00	2024-11-08T04:00:00	5	Humedad	80
15053	7	Sololá	701	Sololá	1	Sololá	3	Marzo	2023-03-31T00:00:00	2024-11-08T04:00:00	6	Velocidad del viento	0
15054	7	Sololá	701	Sololá	1	Sololá	3	Marzo	2023-03-31T00:00:00	2024-11-08T04:00:00	7	Dirección del viento	0
15055	7	Sololá	701	Sololá	1	Sololá	3	Marzo	2023-03-31T00:00:00	2024-11-08T04:00:00	1	Precipitación	0
15056	7	Sololá	701	Sololá	1	Sololá	3	Marzo	2023-03-31T00:00:00	2024-11-08T04:00:00	8	Radiación solar	0
15057	7	Sololá	701	Sololá	1	Sololá	3	Marzo	2023-03-31T00:00:00	2024-11-08T05:00:00	2	Temperatura media	11.3
15058	7	Sololá	701	Sololá	1	Sololá	3	Marzo	2023-03-31T00:00:00	2024-11-08T05:00:00	4	Temperatura máxima	12.3
15059	7	Sololá	701	Sololá	1	Sololá	3	Marzo	2023-03-31T00:00:00	2024-11-08T05:00:00	3	Temperatura mínima	11.3
15060	7	Sololá	701	Sololá	1	Sololá	3	Marzo	2023-03-31T00:00:00	2024-11-08T05:00:00	5	Humedad	81
15061	7	Sololá	701	Sololá	1	Sololá	3	Marzo	2023-03-31T00:00:00	2024-11-08T05:00:00	6	Velocidad del viento	0
15062	7	Sololá	701	Sololá	1	Sololá	3	Marzo	2023-03-31T00:00:00	2024-11-08T05:00:00	7	Dirección del viento	0
15063	7	Sololá	701	Sololá	1	Sololá	3	Marzo	2023-03-31T00:00:00	2024-11-08T05:00:00	1	Precipitación	0
15064	7	Sololá	701	Sololá	1	Sololá	3	Marzo	2023-03-31T00:00:00	2024-11-08T05:00:00	8	Radiación solar	0
15065	7	Sololá	701	Sololá	1	Sololá	3	Marzo	2023-03-31T00:00:00	2024-11-08T06:00:00	2	Temperatura media	12.3
15066	7	Sololá	701	Sololá	1	Sololá	3	Marzo	2023-03-31T00:00:00	2024-11-08T06:00:00	4	Temperatura máxima	12.3
15067	7	Sololá	701	Sololá	1	Sololá	3	Marzo	2023-03-31T00:00:00	2024-11-08T06:00:00	3	Temperatura mínima	11.2
15068	7	Sololá	701	Sololá	1	Sololá	3	Marzo	2023-03-31T00:00:00	2024-11-08T06:00:00	5	Humedad	77
15069	7	Sololá	701	Sololá	1	Sololá	3	Marzo	2023-03-31T00:00:00	2024-11-08T06:00:00	6	Velocidad del viento	0
15070	7	Sololá	701	Sololá	1	Sololá	3	Marzo	2023-03-31T00:00:00	2024-11-08T06:00:00	7	Dirección del viento	0
15071	7	Sololá	701	Sololá	1	Sololá	3	Marzo	2023-03-31T00:00:00	2024-11-08T06:00:00	1	Precipitación	0
15072	7	Sololá	701	Sololá	1	Sololá	3	Marzo	2023-03-31T00:00:00	2024-11-08T06:00:00	8	Radiación solar	0
15073	7	Sololá	701	Sololá	1	Sololá	3	Marzo	2023-03-31T00:00:00	2024-11-08T07:00:00	2	Temperatura media	12.4
15074	7	Sololá	701	Sololá	1	Sololá	3	Marzo	2023-03-31T00:00:00	2024-11-08T07:00:00	4	Temperatura máxima	12.6
15075	7	Sololá	701	Sololá	1	Sololá	3	Marzo	2023-03-31T00:00:00	2024-11-08T07:00:00	3	Temperatura mínima	12.3
15076	7	Sololá	701	Sololá	1	Sololá	3	Marzo	2023-03-31T00:00:00	2024-11-08T07:00:00	5	Humedad	78
15077	7	Sololá	701	Sololá	1	Sololá	3	Marzo	2023-03-31T00:00:00	2024-11-08T07:00:00	6	Velocidad del viento	0
15078	7	Sololá	701	Sololá	1	Sololá	3	Marzo	2023-03-31T00:00:00	2024-11-08T07:00:00	7	Dirección del viento	0
15079	7	Sololá	701	Sololá	1	Sololá	3	Marzo	2023-03-31T00:00:00	2024-11-08T07:00:00	1	Precipitación	0
15080	7	Sololá	701	Sololá	1	Sololá	3	Marzo	2023-03-31T00:00:00	2024-11-08T07:00:00	8	Radiación solar	13
15081	7	Sololá	701	Sololá	1	Sololá	3	Marzo	2023-03-31T00:00:00	2024-11-08T08:00:00	2	Temperatura media	12.2
15082	7	Sololá	701	Sololá	1	Sololá	3	Marzo	2023-03-31T00:00:00	2024-11-08T08:00:00	4	Temperatura máxima	12.4
15083	7	Sololá	701	Sololá	1	Sololá	3	Marzo	2023-03-31T00:00:00	2024-11-08T08:00:00	3	Temperatura mínima	11.9
15084	7	Sololá	701	Sololá	1	Sololá	3	Marzo	2023-03-31T00:00:00	2024-11-08T08:00:00	5	Humedad	81
15085	7	Sololá	701	Sololá	1	Sololá	3	Marzo	2023-03-31T00:00:00	2024-11-08T08:00:00	6	Velocidad del viento	0
15086	7	Sololá	701	Sololá	1	Sololá	3	Marzo	2023-03-31T00:00:00	2024-11-08T08:00:00	7	Dirección del viento	0
15087	7	Sololá	701	Sololá	1	Sololá	3	Marzo	2023-03-31T00:00:00	2024-11-08T08:00:00	1	Precipitación	0
15088	7	Sololá	701	Sololá	1	Sololá	3	Marzo	2023-03-31T00:00:00	2024-11-08T08:00:00	8	Radiación solar	273
15089	7	Sololá	701	Sololá	1	Sololá	3	Marzo	2023-03-31T00:00:00	2024-11-08T09:00:00	2	Temperatura media	16.4
15090	7	Sololá	701	Sololá	1	Sololá	3	Marzo	2023-03-31T00:00:00	2024-11-08T09:00:00	4	Temperatura máxima	16.4
15091	7	Sololá	701	Sololá	1	Sololá	3	Marzo	2023-03-31T00:00:00	2024-11-08T09:00:00	3	Temperatura mínima	12.2
15092	7	Sololá	701	Sololá	1	Sololá	3	Marzo	2023-03-31T00:00:00	2024-11-08T09:00:00	5	Humedad	70
15093	7	Sololá	701	Sololá	1	Sololá	3	Marzo	2023-03-31T00:00:00	2024-11-08T09:00:00	6	Velocidad del viento	0
15094	7	Sololá	701	Sololá	1	Sololá	3	Marzo	2023-03-31T00:00:00	2024-11-08T09:00:00	7	Dirección del viento	0
15095	7	Sololá	701	Sololá	1	Sololá	3	Marzo	2023-03-31T00:00:00	2024-11-08T09:00:00	1	Precipitación	0
15096	7	Sololá	701	Sololá	1	Sololá	3	Marzo	2023-03-31T00:00:00	2024-11-08T09:00:00	8	Radiación solar	606
15097	7	Sololá	701	Sololá	1	Sololá	3	Marzo	2023-03-31T00:00:00	2024-11-08T10:00:00	2	Temperatura media	19.6
15098	7	Sololá	701	Sololá	1	Sololá	3	Marzo	2023-03-31T00:00:00	2024-11-08T10:00:00	4	Temperatura máxima	19.6
15099	7	Sololá	701	Sololá	1	Sololá	3	Marzo	2023-03-31T00:00:00	2024-11-08T10:00:00	3	Temperatura mínima	16.4
15100	7	Sololá	701	Sololá	1	Sololá	3	Marzo	2023-03-31T00:00:00	2024-11-08T10:00:00	5	Humedad	59
15101	7	Sololá	701	Sololá	1	Sololá	3	Marzo	2023-03-31T00:00:00	2024-11-08T10:00:00	6	Velocidad del viento	0
15102	7	Sololá	701	Sololá	1	Sololá	3	Marzo	2023-03-31T00:00:00	2024-11-08T10:00:00	7	Dirección del viento	0
15103	7	Sololá	701	Sololá	1	Sololá	3	Marzo	2023-03-31T00:00:00	2024-11-08T10:00:00	1	Precipitación	0
15104	7	Sololá	701	Sololá	1	Sololá	3	Marzo	2023-03-31T00:00:00	2024-11-08T10:00:00	8	Radiación solar	800
15105	7	Sololá	701	Sololá	1	Sololá	3	Marzo	2023-03-31T00:00:00	2024-11-08T11:00:00	2	Temperatura media	21.3
15106	7	Sololá	701	Sololá	1	Sololá	3	Marzo	2023-03-31T00:00:00	2024-11-08T11:00:00	4	Temperatura máxima	21.3
15107	7	Sololá	701	Sololá	1	Sololá	3	Marzo	2023-03-31T00:00:00	2024-11-08T11:00:00	3	Temperatura mínima	19.6
15108	7	Sololá	701	Sololá	1	Sololá	3	Marzo	2023-03-31T00:00:00	2024-11-08T11:00:00	5	Humedad	50
15109	7	Sololá	701	Sololá	1	Sololá	3	Marzo	2023-03-31T00:00:00	2024-11-08T11:00:00	6	Velocidad del viento	0
15110	7	Sololá	701	Sololá	1	Sololá	3	Marzo	2023-03-31T00:00:00	2024-11-08T11:00:00	7	Dirección del viento	0
15111	7	Sololá	701	Sololá	1	Sololá	3	Marzo	2023-03-31T00:00:00	2024-11-08T11:00:00	1	Precipitación	0
15112	7	Sololá	701	Sololá	1	Sololá	3	Marzo	2023-03-31T00:00:00	2024-11-08T11:00:00	8	Radiación solar	929
15113	7	Sololá	701	Sololá	1	Sololá	3	Marzo	2023-03-31T00:00:00	2024-11-08T12:00:00	2	Temperatura media	22.1
15114	7	Sololá	701	Sololá	1	Sololá	3	Marzo	2023-03-31T00:00:00	2024-11-08T12:00:00	4	Temperatura máxima	22.1
15115	7	Sololá	701	Sololá	1	Sololá	3	Marzo	2023-03-31T00:00:00	2024-11-08T12:00:00	3	Temperatura mínima	21.2
15116	7	Sololá	701	Sololá	1	Sololá	3	Marzo	2023-03-31T00:00:00	2024-11-08T12:00:00	5	Humedad	52
15117	7	Sololá	701	Sololá	1	Sololá	3	Marzo	2023-03-31T00:00:00	2024-11-08T12:00:00	6	Velocidad del viento	0
15118	7	Sololá	701	Sololá	1	Sololá	3	Marzo	2023-03-31T00:00:00	2024-11-08T12:00:00	7	Dirección del viento	0
15119	7	Sololá	701	Sololá	1	Sololá	3	Marzo	2023-03-31T00:00:00	2024-11-08T12:00:00	1	Precipitación	0
15120	7	Sololá	701	Sololá	1	Sololá	3	Marzo	2023-03-31T00:00:00	2024-11-08T12:00:00	8	Radiación solar	992
15121	7	Sololá	701	Sololá	1	Sololá	3	Marzo	2023-03-31T00:00:00	2024-11-08T13:00:00	2	Temperatura media	22.8
15122	7	Sololá	701	Sololá	1	Sololá	3	Marzo	2023-03-31T00:00:00	2024-11-08T13:00:00	4	Temperatura máxima	23
15123	7	Sololá	701	Sololá	1	Sololá	3	Marzo	2023-03-31T00:00:00	2024-11-08T13:00:00	3	Temperatura mínima	22.1
15124	7	Sololá	701	Sololá	1	Sololá	3	Marzo	2023-03-31T00:00:00	2024-11-08T13:00:00	5	Humedad	50
15125	7	Sololá	701	Sololá	1	Sololá	3	Marzo	2023-03-31T00:00:00	2024-11-08T13:00:00	6	Velocidad del viento	0
15126	7	Sololá	701	Sololá	1	Sololá	3	Marzo	2023-03-31T00:00:00	2024-11-08T13:00:00	7	Dirección del viento	0
15127	7	Sololá	701	Sololá	1	Sololá	3	Marzo	2023-03-31T00:00:00	2024-11-08T13:00:00	1	Precipitación	0
15128	7	Sololá	701	Sololá	1	Sololá	3	Marzo	2023-03-31T00:00:00	2024-11-08T13:00:00	8	Radiación solar	970
15129	7	Sololá	701	Sololá	1	Sololá	3	Marzo	2023-03-31T00:00:00	2024-11-08T14:00:00	2	Temperatura media	22.8
15130	7	Sololá	701	Sololá	1	Sololá	3	Marzo	2023-03-31T00:00:00	2024-11-08T14:00:00	4	Temperatura máxima	23.1
15131	7	Sololá	701	Sololá	1	Sololá	3	Marzo	2023-03-31T00:00:00	2024-11-08T14:00:00	3	Temperatura mínima	22.7
15132	7	Sololá	701	Sololá	1	Sololá	3	Marzo	2023-03-31T00:00:00	2024-11-08T14:00:00	5	Humedad	63
15133	7	Sololá	701	Sololá	1	Sololá	3	Marzo	2023-03-31T00:00:00	2024-11-08T14:00:00	6	Velocidad del viento	0
15134	7	Sololá	701	Sololá	1	Sololá	3	Marzo	2023-03-31T00:00:00	2024-11-08T14:00:00	7	Dirección del viento	0
15135	7	Sololá	701	Sololá	1	Sololá	3	Marzo	2023-03-31T00:00:00	2024-11-08T14:00:00	1	Precipitación	0
15136	7	Sololá	701	Sololá	1	Sololá	3	Marzo	2023-03-31T00:00:00	2024-11-08T14:00:00	8	Radiación solar	303
15137	7	Sololá	701	Sololá	1	Sololá	3	Marzo	2023-03-31T00:00:00	2024-11-08T15:00:00	2	Temperatura media	22.2
15138	7	Sololá	701	Sololá	1	Sololá	3	Marzo	2023-03-31T00:00:00	2024-11-08T15:00:00	4	Temperatura máxima	22.8
15139	7	Sololá	701	Sololá	1	Sololá	3	Marzo	2023-03-31T00:00:00	2024-11-08T15:00:00	3	Temperatura mínima	22.2
15140	7	Sololá	701	Sololá	1	Sololá	3	Marzo	2023-03-31T00:00:00	2024-11-08T15:00:00	5	Humedad	68
15141	7	Sololá	701	Sololá	1	Sololá	3	Marzo	2023-03-31T00:00:00	2024-11-08T15:00:00	6	Velocidad del viento	0
15142	7	Sololá	701	Sololá	1	Sololá	3	Marzo	2023-03-31T00:00:00	2024-11-08T15:00:00	7	Dirección del viento	0
15143	7	Sololá	701	Sololá	1	Sololá	3	Marzo	2023-03-31T00:00:00	2024-11-08T15:00:00	1	Precipitación	0
15144	7	Sololá	701	Sololá	1	Sololá	3	Marzo	2023-03-31T00:00:00	2024-11-08T15:00:00	8	Radiación solar	193
15145	7	Sololá	701	Sololá	1	Sololá	3	Marzo	2023-03-31T00:00:00	2024-11-08T16:00:00	2	Temperatura media	21.1
15146	7	Sololá	701	Sololá	1	Sololá	3	Marzo	2023-03-31T00:00:00	2024-11-08T16:00:00	4	Temperatura máxima	22.2
15147	7	Sololá	701	Sololá	1	Sololá	3	Marzo	2023-03-31T00:00:00	2024-11-08T16:00:00	3	Temperatura mínima	21.1
15148	7	Sololá	701	Sololá	1	Sololá	3	Marzo	2023-03-31T00:00:00	2024-11-08T16:00:00	5	Humedad	72
15149	7	Sololá	701	Sololá	1	Sololá	3	Marzo	2023-03-31T00:00:00	2024-11-08T16:00:00	6	Velocidad del viento	0
15150	7	Sololá	701	Sololá	1	Sololá	3	Marzo	2023-03-31T00:00:00	2024-11-08T16:00:00	7	Dirección del viento	0
15151	7	Sololá	701	Sololá	1	Sololá	3	Marzo	2023-03-31T00:00:00	2024-11-08T16:00:00	1	Precipitación	0
15152	7	Sololá	701	Sololá	1	Sololá	3	Marzo	2023-03-31T00:00:00	2024-11-08T16:00:00	8	Radiación solar	205
15153	7	Sololá	701	Sololá	1	Sololá	3	Marzo	2023-03-31T00:00:00	2024-11-08T17:00:00	2	Temperatura media	20.4
15154	7	Sololá	701	Sololá	1	Sololá	3	Marzo	2023-03-31T00:00:00	2024-11-08T17:00:00	4	Temperatura máxima	21.1
15155	7	Sololá	701	Sololá	1	Sololá	3	Marzo	2023-03-31T00:00:00	2024-11-08T17:00:00	3	Temperatura mínima	19.8
15156	7	Sololá	701	Sololá	1	Sololá	3	Marzo	2023-03-31T00:00:00	2024-11-08T17:00:00	5	Humedad	75
15157	7	Sololá	701	Sololá	1	Sololá	3	Marzo	2023-03-31T00:00:00	2024-11-08T17:00:00	6	Velocidad del viento	0
15158	7	Sololá	701	Sololá	1	Sololá	3	Marzo	2023-03-31T00:00:00	2024-11-08T17:00:00	7	Dirección del viento	0
15159	7	Sololá	701	Sololá	1	Sololá	3	Marzo	2023-03-31T00:00:00	2024-11-08T17:00:00	1	Precipitación	0
15160	7	Sololá	701	Sololá	1	Sololá	3	Marzo	2023-03-31T00:00:00	2024-11-08T17:00:00	8	Radiación solar	103
15161	7	Sololá	701	Sololá	1	Sololá	3	Marzo	2023-03-31T00:00:00	2024-11-08T18:00:00	2	Temperatura media	18.7
15162	7	Sololá	701	Sololá	1	Sololá	3	Marzo	2023-03-31T00:00:00	2024-11-08T18:00:00	4	Temperatura máxima	20.4
15163	7	Sololá	701	Sololá	1	Sololá	3	Marzo	2023-03-31T00:00:00	2024-11-08T18:00:00	3	Temperatura mínima	18.7
15164	7	Sololá	701	Sololá	1	Sololá	3	Marzo	2023-03-31T00:00:00	2024-11-08T18:00:00	5	Humedad	80
15165	7	Sololá	701	Sololá	1	Sololá	3	Marzo	2023-03-31T00:00:00	2024-11-08T18:00:00	6	Velocidad del viento	0
15166	7	Sololá	701	Sololá	1	Sololá	3	Marzo	2023-03-31T00:00:00	2024-11-08T18:00:00	7	Dirección del viento	0
15167	7	Sololá	701	Sololá	1	Sololá	3	Marzo	2023-03-31T00:00:00	2024-11-08T18:00:00	1	Precipitación	0
15168	7	Sololá	701	Sololá	1	Sololá	3	Marzo	2023-03-31T00:00:00	2024-11-08T18:00:00	8	Radiación solar	67
15169	7	Sololá	701	Sololá	1	Sololá	3	Marzo	2023-03-31T00:00:00	2024-11-08T19:00:00	2	Temperatura media	18.2
15170	7	Sololá	701	Sololá	1	Sololá	3	Marzo	2023-03-31T00:00:00	2024-11-08T19:00:00	4	Temperatura máxima	19.3
15171	7	Sololá	701	Sololá	1	Sololá	3	Marzo	2023-03-31T00:00:00	2024-11-08T19:00:00	3	Temperatura mínima	18.2
15172	7	Sololá	701	Sololá	1	Sololá	3	Marzo	2023-03-31T00:00:00	2024-11-08T19:00:00	5	Humedad	85
15173	7	Sololá	701	Sololá	1	Sololá	3	Marzo	2023-03-31T00:00:00	2024-11-08T19:00:00	6	Velocidad del viento	0
15174	7	Sololá	701	Sololá	1	Sololá	3	Marzo	2023-03-31T00:00:00	2024-11-08T19:00:00	7	Dirección del viento	0
15175	7	Sololá	701	Sololá	1	Sololá	3	Marzo	2023-03-31T00:00:00	2024-11-08T19:00:00	1	Precipitación	0
15176	7	Sololá	701	Sololá	1	Sololá	3	Marzo	2023-03-31T00:00:00	2024-11-08T19:00:00	8	Radiación solar	0
15177	7	Sololá	701	Sololá	1	Sololá	3	Marzo	2023-03-31T00:00:00	2024-11-08T20:00:00	2	Temperatura media	16.7
15178	7	Sololá	701	Sololá	1	Sololá	3	Marzo	2023-03-31T00:00:00	2024-11-08T20:00:00	4	Temperatura máxima	18.2
15179	7	Sololá	701	Sololá	1	Sololá	3	Marzo	2023-03-31T00:00:00	2024-11-08T20:00:00	3	Temperatura mínima	16.7
15180	7	Sololá	701	Sololá	1	Sololá	3	Marzo	2023-03-31T00:00:00	2024-11-08T20:00:00	5	Humedad	90
15181	7	Sololá	701	Sololá	1	Sololá	3	Marzo	2023-03-31T00:00:00	2024-11-08T20:00:00	6	Velocidad del viento	0
15182	7	Sololá	701	Sololá	1	Sololá	3	Marzo	2023-03-31T00:00:00	2024-11-08T20:00:00	7	Dirección del viento	0
15183	7	Sololá	701	Sololá	1	Sololá	3	Marzo	2023-03-31T00:00:00	2024-11-08T20:00:00	1	Precipitación	0
15184	7	Sololá	701	Sololá	1	Sololá	3	Marzo	2023-03-31T00:00:00	2024-11-08T20:00:00	8	Radiación solar	0
15185	7	Sololá	701	Sololá	1	Sololá	3	Marzo	2023-03-31T00:00:00	2024-11-08T21:00:00	2	Temperatura media	16
15186	7	Sololá	701	Sololá	1	Sololá	3	Marzo	2023-03-31T00:00:00	2024-11-08T21:00:00	4	Temperatura máxima	16.7
15187	7	Sololá	701	Sololá	1	Sololá	3	Marzo	2023-03-31T00:00:00	2024-11-08T21:00:00	3	Temperatura mínima	16
15188	7	Sololá	701	Sololá	1	Sololá	3	Marzo	2023-03-31T00:00:00	2024-11-08T21:00:00	5	Humedad	89
15189	7	Sololá	701	Sololá	1	Sololá	3	Marzo	2023-03-31T00:00:00	2024-11-08T21:00:00	6	Velocidad del viento	0
15190	7	Sololá	701	Sololá	1	Sololá	3	Marzo	2023-03-31T00:00:00	2024-11-08T21:00:00	7	Dirección del viento	0
15191	7	Sololá	701	Sololá	1	Sololá	3	Marzo	2023-03-31T00:00:00	2024-11-08T21:00:00	1	Precipitación	0
15192	7	Sololá	701	Sololá	1	Sololá	3	Marzo	2023-03-31T00:00:00	2024-11-08T21:00:00	8	Radiación solar	0
15193	7	Sololá	701	Sololá	1	Sololá	3	Marzo	2023-03-31T00:00:00	2024-11-08T22:00:00	2	Temperatura media	14.4
15194	7	Sololá	701	Sololá	1	Sololá	3	Marzo	2023-03-31T00:00:00	2024-11-08T22:00:00	4	Temperatura máxima	16.1
15195	7	Sololá	701	Sololá	1	Sololá	3	Marzo	2023-03-31T00:00:00	2024-11-08T22:00:00	3	Temperatura mínima	14.4
15196	7	Sololá	701	Sololá	1	Sololá	3	Marzo	2023-03-31T00:00:00	2024-11-08T22:00:00	5	Humedad	81
15197	7	Sololá	701	Sololá	1	Sololá	3	Marzo	2023-03-31T00:00:00	2024-11-08T22:00:00	6	Velocidad del viento	0
15198	7	Sololá	701	Sololá	1	Sololá	3	Marzo	2023-03-31T00:00:00	2024-11-08T22:00:00	7	Dirección del viento	0
15199	7	Sololá	701	Sololá	1	Sololá	3	Marzo	2023-03-31T00:00:00	2024-11-08T22:00:00	1	Precipitación	0
15200	7	Sololá	701	Sololá	1	Sololá	3	Marzo	2023-03-31T00:00:00	2024-11-08T22:00:00	8	Radiación solar	0
15201	7	Sololá	701	Sololá	1	Sololá	3	Marzo	2023-03-31T00:00:00	2024-11-08T23:00:00	2	Temperatura media	13.2
15202	7	Sololá	701	Sololá	1	Sololá	3	Marzo	2023-03-31T00:00:00	2024-11-08T23:00:00	4	Temperatura máxima	14.4
15203	7	Sololá	701	Sololá	1	Sololá	3	Marzo	2023-03-31T00:00:00	2024-11-08T23:00:00	3	Temperatura mínima	13.2
15204	7	Sololá	701	Sololá	1	Sololá	3	Marzo	2023-03-31T00:00:00	2024-11-08T23:00:00	5	Humedad	82
15205	7	Sololá	701	Sololá	1	Sololá	3	Marzo	2023-03-31T00:00:00	2024-11-08T23:00:00	6	Velocidad del viento	0
15206	7	Sololá	701	Sololá	1	Sololá	3	Marzo	2023-03-31T00:00:00	2024-11-08T23:00:00	7	Dirección del viento	0
15207	7	Sololá	701	Sololá	1	Sololá	3	Marzo	2023-03-31T00:00:00	2024-11-08T23:00:00	1	Precipitación	0
15208	7	Sololá	701	Sololá	1	Sololá	3	Marzo	2023-03-31T00:00:00	2024-11-08T23:00:00	8	Radiación solar	0
15209	7	Sololá	701	Sololá	1	Sololá	4	Abril	2023-01-04T00:00:00	2024-11-08T00:00:00	2	Temperatura media	12.7
15210	7	Sololá	701	Sololá	1	Sololá	4	Abril	2023-01-04T00:00:00	2024-11-08T00:00:00	4	Temperatura máxima	13.2
15211	7	Sololá	701	Sololá	1	Sololá	4	Abril	2023-01-04T00:00:00	2024-11-08T00:00:00	3	Temperatura mínima	12.7
15212	7	Sololá	701	Sololá	1	Sololá	4	Abril	2023-01-04T00:00:00	2024-11-08T00:00:00	5	Humedad	83
15213	7	Sololá	701	Sololá	1	Sololá	4	Abril	2023-01-04T00:00:00	2024-11-08T00:00:00	6	Velocidad del viento	0
15214	7	Sololá	701	Sololá	1	Sololá	4	Abril	2023-01-04T00:00:00	2024-11-08T00:00:00	7	Dirección del viento	0
15215	7	Sololá	701	Sololá	1	Sololá	4	Abril	2023-01-04T00:00:00	2024-11-08T00:00:00	1	Precipitación	0
15216	7	Sololá	701	Sololá	1	Sololá	4	Abril	2023-01-04T00:00:00	2024-11-08T00:00:00	8	Radiación solar	0
15217	7	Sololá	701	Sololá	1	Sololá	4	Abril	2023-01-04T00:00:00	2024-11-08T01:00:00	2	Temperatura media	12.2
15218	7	Sololá	701	Sololá	1	Sololá	4	Abril	2023-01-04T00:00:00	2024-11-08T01:00:00	4	Temperatura máxima	12.7
15219	7	Sololá	701	Sololá	1	Sololá	4	Abril	2023-01-04T00:00:00	2024-11-08T01:00:00	3	Temperatura mínima	12
15220	7	Sololá	701	Sololá	1	Sololá	4	Abril	2023-01-04T00:00:00	2024-11-08T01:00:00	5	Humedad	84
15221	7	Sololá	701	Sololá	1	Sololá	4	Abril	2023-01-04T00:00:00	2024-11-08T01:00:00	6	Velocidad del viento	0
15222	7	Sololá	701	Sololá	1	Sololá	4	Abril	2023-01-04T00:00:00	2024-11-08T01:00:00	7	Dirección del viento	0
15223	7	Sololá	701	Sololá	1	Sololá	4	Abril	2023-01-04T00:00:00	2024-11-08T01:00:00	1	Precipitación	0
15224	7	Sololá	701	Sololá	1	Sololá	4	Abril	2023-01-04T00:00:00	2024-11-08T01:00:00	8	Radiación solar	0
15225	7	Sololá	701	Sololá	1	Sololá	4	Abril	2023-01-04T00:00:00	2024-11-08T02:00:00	2	Temperatura media	11.4
15226	7	Sololá	701	Sololá	1	Sololá	4	Abril	2023-01-04T00:00:00	2024-11-08T02:00:00	4	Temperatura máxima	12.3
15227	7	Sololá	701	Sololá	1	Sololá	4	Abril	2023-01-04T00:00:00	2024-11-08T02:00:00	3	Temperatura mínima	11.4
15228	7	Sololá	701	Sololá	1	Sololá	4	Abril	2023-01-04T00:00:00	2024-11-08T02:00:00	5	Humedad	77
15229	7	Sololá	701	Sololá	1	Sololá	4	Abril	2023-01-04T00:00:00	2024-11-08T02:00:00	6	Velocidad del viento	0
15230	7	Sololá	701	Sololá	1	Sololá	4	Abril	2023-01-04T00:00:00	2024-11-08T02:00:00	7	Dirección del viento	0
15231	7	Sololá	701	Sololá	1	Sololá	4	Abril	2023-01-04T00:00:00	2024-11-08T02:00:00	1	Precipitación	0
15232	7	Sololá	701	Sololá	1	Sololá	4	Abril	2023-01-04T00:00:00	2024-11-08T02:00:00	8	Radiación solar	0
15233	7	Sololá	701	Sololá	1	Sololá	4	Abril	2023-01-04T00:00:00	2024-11-08T03:00:00	2	Temperatura media	11.4
15234	7	Sololá	701	Sololá	1	Sololá	4	Abril	2023-01-04T00:00:00	2024-11-08T03:00:00	4	Temperatura máxima	11.4
15235	7	Sololá	701	Sololá	1	Sololá	4	Abril	2023-01-04T00:00:00	2024-11-08T03:00:00	3	Temperatura mínima	11.1
15236	7	Sololá	701	Sololá	1	Sololá	4	Abril	2023-01-04T00:00:00	2024-11-08T03:00:00	5	Humedad	82
15237	7	Sololá	701	Sololá	1	Sololá	4	Abril	2023-01-04T00:00:00	2024-11-08T03:00:00	6	Velocidad del viento	0
15238	7	Sololá	701	Sololá	1	Sololá	4	Abril	2023-01-04T00:00:00	2024-11-08T03:00:00	7	Dirección del viento	0
15239	7	Sololá	701	Sololá	1	Sololá	4	Abril	2023-01-04T00:00:00	2024-11-08T03:00:00	1	Precipitación	0
15240	7	Sololá	701	Sololá	1	Sololá	4	Abril	2023-01-04T00:00:00	2024-11-08T03:00:00	8	Radiación solar	0
15241	7	Sololá	701	Sololá	1	Sololá	4	Abril	2023-01-04T00:00:00	2024-11-08T04:00:00	2	Temperatura media	11.4
15242	7	Sololá	701	Sololá	1	Sololá	4	Abril	2023-01-04T00:00:00	2024-11-08T04:00:00	4	Temperatura máxima	11.7
15243	7	Sololá	701	Sololá	1	Sololá	4	Abril	2023-01-04T00:00:00	2024-11-08T04:00:00	3	Temperatura mínima	11.4
15244	7	Sololá	701	Sololá	1	Sololá	4	Abril	2023-01-04T00:00:00	2024-11-08T04:00:00	5	Humedad	78
15245	7	Sololá	701	Sololá	1	Sololá	4	Abril	2023-01-04T00:00:00	2024-11-08T04:00:00	6	Velocidad del viento	1.6
15246	7	Sololá	701	Sololá	1	Sololá	4	Abril	2023-01-04T00:00:00	2024-11-08T04:00:00	7	Dirección del viento	1.61
15247	7	Sololá	701	Sololá	1	Sololá	4	Abril	2023-01-04T00:00:00	2024-11-08T04:00:00	1	Precipitación	0
15248	7	Sololá	701	Sololá	1	Sololá	4	Abril	2023-01-04T00:00:00	2024-11-08T04:00:00	8	Radiación solar	0
15249	7	Sololá	701	Sololá	1	Sololá	4	Abril	2023-01-04T00:00:00	2024-11-08T05:00:00	2	Temperatura media	11.3
15250	7	Sololá	701	Sololá	1	Sololá	4	Abril	2023-01-04T00:00:00	2024-11-08T05:00:00	4	Temperatura máxima	11.4
15251	7	Sololá	701	Sololá	1	Sololá	4	Abril	2023-01-04T00:00:00	2024-11-08T05:00:00	3	Temperatura mínima	11
15252	7	Sololá	701	Sololá	1	Sololá	4	Abril	2023-01-04T00:00:00	2024-11-08T05:00:00	5	Humedad	78
15253	7	Sololá	701	Sololá	1	Sololá	4	Abril	2023-01-04T00:00:00	2024-11-08T05:00:00	6	Velocidad del viento	1.6
15254	7	Sololá	701	Sololá	1	Sololá	4	Abril	2023-01-04T00:00:00	2024-11-08T05:00:00	7	Dirección del viento	1.61
15255	7	Sololá	701	Sololá	1	Sololá	4	Abril	2023-01-04T00:00:00	2024-11-08T05:00:00	1	Precipitación	0
15256	7	Sololá	701	Sololá	1	Sololá	4	Abril	2023-01-04T00:00:00	2024-11-08T05:00:00	8	Radiación solar	0
15257	7	Sololá	701	Sololá	1	Sololá	4	Abril	2023-01-04T00:00:00	2024-11-08T06:00:00	2	Temperatura media	10.7
15258	7	Sololá	701	Sololá	1	Sololá	4	Abril	2023-01-04T00:00:00	2024-11-08T06:00:00	4	Temperatura máxima	11.3
15259	7	Sololá	701	Sololá	1	Sololá	4	Abril	2023-01-04T00:00:00	2024-11-08T06:00:00	3	Temperatura mínima	10.7
15260	7	Sololá	701	Sololá	1	Sololá	4	Abril	2023-01-04T00:00:00	2024-11-08T06:00:00	5	Humedad	81
15261	7	Sololá	701	Sololá	1	Sololá	4	Abril	2023-01-04T00:00:00	2024-11-08T06:00:00	6	Velocidad del viento	0
15262	7	Sololá	701	Sololá	1	Sololá	4	Abril	2023-01-04T00:00:00	2024-11-08T06:00:00	7	Dirección del viento	0
15263	7	Sololá	701	Sololá	1	Sololá	4	Abril	2023-01-04T00:00:00	2024-11-08T06:00:00	1	Precipitación	0
15264	7	Sololá	701	Sololá	1	Sololá	4	Abril	2023-01-04T00:00:00	2024-11-08T06:00:00	8	Radiación solar	0
15265	7	Sololá	701	Sololá	1	Sololá	4	Abril	2023-01-04T00:00:00	2024-11-08T07:00:00	2	Temperatura media	10.6
15266	7	Sololá	701	Sololá	1	Sololá	4	Abril	2023-01-04T00:00:00	2024-11-08T07:00:00	4	Temperatura máxima	10.7
15267	7	Sololá	701	Sololá	1	Sololá	4	Abril	2023-01-04T00:00:00	2024-11-08T07:00:00	3	Temperatura mínima	10.5
15268	7	Sololá	701	Sololá	1	Sololá	4	Abril	2023-01-04T00:00:00	2024-11-08T07:00:00	5	Humedad	78
15269	7	Sololá	701	Sololá	1	Sololá	4	Abril	2023-01-04T00:00:00	2024-11-08T07:00:00	6	Velocidad del viento	1.6
15270	7	Sololá	701	Sololá	1	Sololá	4	Abril	2023-01-04T00:00:00	2024-11-08T07:00:00	7	Dirección del viento	1.61
15271	7	Sololá	701	Sololá	1	Sololá	4	Abril	2023-01-04T00:00:00	2024-11-08T07:00:00	1	Precipitación	0
15272	7	Sololá	701	Sololá	1	Sololá	4	Abril	2023-01-04T00:00:00	2024-11-08T07:00:00	8	Radiación solar	12
15273	7	Sololá	701	Sololá	1	Sololá	4	Abril	2023-01-04T00:00:00	2024-11-08T08:00:00	2	Temperatura media	11.4
15274	7	Sololá	701	Sololá	1	Sololá	4	Abril	2023-01-04T00:00:00	2024-11-08T08:00:00	4	Temperatura máxima	11.4
15275	7	Sololá	701	Sololá	1	Sololá	4	Abril	2023-01-04T00:00:00	2024-11-08T08:00:00	3	Temperatura mínima	10.5
15276	7	Sololá	701	Sololá	1	Sololá	4	Abril	2023-01-04T00:00:00	2024-11-08T08:00:00	5	Humedad	79
15277	7	Sololá	701	Sololá	1	Sololá	4	Abril	2023-01-04T00:00:00	2024-11-08T08:00:00	6	Velocidad del viento	1.6
15278	7	Sololá	701	Sololá	1	Sololá	4	Abril	2023-01-04T00:00:00	2024-11-08T08:00:00	7	Dirección del viento	1.61
15279	7	Sololá	701	Sololá	1	Sololá	4	Abril	2023-01-04T00:00:00	2024-11-08T08:00:00	1	Precipitación	0
15280	7	Sololá	701	Sololá	1	Sololá	4	Abril	2023-01-04T00:00:00	2024-11-08T08:00:00	8	Radiación solar	278
15281	7	Sololá	701	Sololá	1	Sololá	4	Abril	2023-01-04T00:00:00	2024-11-08T09:00:00	2	Temperatura media	16.8
15282	7	Sololá	701	Sololá	1	Sololá	4	Abril	2023-01-04T00:00:00	2024-11-08T09:00:00	4	Temperatura máxima	16.8
15283	7	Sololá	701	Sololá	1	Sololá	4	Abril	2023-01-04T00:00:00	2024-11-08T09:00:00	3	Temperatura mínima	11.4
15284	7	Sololá	701	Sololá	1	Sololá	4	Abril	2023-01-04T00:00:00	2024-11-08T09:00:00	5	Humedad	65
15285	7	Sololá	701	Sololá	1	Sololá	4	Abril	2023-01-04T00:00:00	2024-11-08T09:00:00	6	Velocidad del viento	0
15286	7	Sololá	701	Sololá	1	Sololá	4	Abril	2023-01-04T00:00:00	2024-11-08T09:00:00	7	Dirección del viento	0
15287	7	Sololá	701	Sololá	1	Sololá	4	Abril	2023-01-04T00:00:00	2024-11-08T09:00:00	1	Precipitación	0
15288	7	Sololá	701	Sololá	1	Sololá	4	Abril	2023-01-04T00:00:00	2024-11-08T09:00:00	8	Radiación solar	591
15289	7	Sololá	701	Sololá	1	Sololá	4	Abril	2023-01-04T00:00:00	2024-11-08T10:00:00	2	Temperatura media	18
15290	7	Sololá	701	Sololá	1	Sololá	4	Abril	2023-01-04T00:00:00	2024-11-08T10:00:00	4	Temperatura máxima	18.1
15291	7	Sololá	701	Sololá	1	Sololá	4	Abril	2023-01-04T00:00:00	2024-11-08T10:00:00	3	Temperatura mínima	16.8
15292	7	Sololá	701	Sololá	1	Sololá	4	Abril	2023-01-04T00:00:00	2024-11-08T10:00:00	5	Humedad	70
15293	7	Sololá	701	Sololá	1	Sololá	4	Abril	2023-01-04T00:00:00	2024-11-08T10:00:00	6	Velocidad del viento	0
15294	7	Sololá	701	Sololá	1	Sololá	4	Abril	2023-01-04T00:00:00	2024-11-08T10:00:00	7	Dirección del viento	0
15295	7	Sololá	701	Sololá	1	Sololá	4	Abril	2023-01-04T00:00:00	2024-11-08T10:00:00	1	Precipitación	0
15296	7	Sololá	701	Sololá	1	Sololá	4	Abril	2023-01-04T00:00:00	2024-11-08T10:00:00	8	Radiación solar	792
15297	7	Sololá	701	Sololá	1	Sololá	4	Abril	2023-01-04T00:00:00	2024-11-08T11:00:00	2	Temperatura media	19.7
15298	7	Sololá	701	Sololá	1	Sololá	4	Abril	2023-01-04T00:00:00	2024-11-08T11:00:00	4	Temperatura máxima	19.7
15299	7	Sololá	701	Sololá	1	Sololá	4	Abril	2023-01-04T00:00:00	2024-11-08T11:00:00	3	Temperatura mínima	18
15300	7	Sololá	701	Sololá	1	Sololá	4	Abril	2023-01-04T00:00:00	2024-11-08T11:00:00	5	Humedad	63
15301	7	Sololá	701	Sololá	1	Sololá	4	Abril	2023-01-04T00:00:00	2024-11-08T11:00:00	6	Velocidad del viento	0
15302	7	Sololá	701	Sololá	1	Sololá	4	Abril	2023-01-04T00:00:00	2024-11-08T11:00:00	7	Dirección del viento	0
15303	7	Sololá	701	Sololá	1	Sololá	4	Abril	2023-01-04T00:00:00	2024-11-08T11:00:00	1	Precipitación	0
15304	7	Sololá	701	Sololá	1	Sololá	4	Abril	2023-01-04T00:00:00	2024-11-08T11:00:00	8	Radiación solar	925
15305	7	Sololá	701	Sololá	1	Sololá	4	Abril	2023-01-04T00:00:00	2024-11-08T12:00:00	2	Temperatura media	21.6
15306	7	Sololá	701	Sololá	1	Sololá	4	Abril	2023-01-04T00:00:00	2024-11-08T12:00:00	4	Temperatura máxima	21.6
15307	7	Sololá	701	Sololá	1	Sololá	4	Abril	2023-01-04T00:00:00	2024-11-08T12:00:00	3	Temperatura mínima	19.7
15308	7	Sololá	701	Sololá	1	Sololá	4	Abril	2023-01-04T00:00:00	2024-11-08T12:00:00	5	Humedad	57
15309	7	Sololá	701	Sololá	1	Sololá	4	Abril	2023-01-04T00:00:00	2024-11-08T12:00:00	6	Velocidad del viento	0
15310	7	Sololá	701	Sololá	1	Sololá	4	Abril	2023-01-04T00:00:00	2024-11-08T12:00:00	7	Dirección del viento	0
15311	7	Sololá	701	Sololá	1	Sololá	4	Abril	2023-01-04T00:00:00	2024-11-08T12:00:00	1	Precipitación	0
15312	7	Sololá	701	Sololá	1	Sololá	4	Abril	2023-01-04T00:00:00	2024-11-08T12:00:00	8	Radiación solar	984
15313	7	Sololá	701	Sololá	1	Sololá	4	Abril	2023-01-04T00:00:00	2024-11-08T13:00:00	2	Temperatura media	21.9
15314	7	Sololá	701	Sololá	1	Sololá	4	Abril	2023-01-04T00:00:00	2024-11-08T13:00:00	4	Temperatura máxima	22
15315	7	Sololá	701	Sololá	1	Sololá	4	Abril	2023-01-04T00:00:00	2024-11-08T13:00:00	3	Temperatura mínima	21.4
15316	7	Sololá	701	Sololá	1	Sololá	4	Abril	2023-01-04T00:00:00	2024-11-08T13:00:00	5	Humedad	65
15317	7	Sololá	701	Sololá	1	Sololá	4	Abril	2023-01-04T00:00:00	2024-11-08T13:00:00	6	Velocidad del viento	0
15318	7	Sololá	701	Sololá	1	Sololá	4	Abril	2023-01-04T00:00:00	2024-11-08T13:00:00	7	Dirección del viento	0
15319	7	Sololá	701	Sololá	1	Sololá	4	Abril	2023-01-04T00:00:00	2024-11-08T13:00:00	1	Precipitación	0
15320	7	Sololá	701	Sololá	1	Sololá	4	Abril	2023-01-04T00:00:00	2024-11-08T13:00:00	8	Radiación solar	966
15321	7	Sololá	701	Sololá	1	Sololá	4	Abril	2023-01-04T00:00:00	2024-11-08T14:00:00	2	Temperatura media	21.7
15322	7	Sololá	701	Sololá	1	Sololá	4	Abril	2023-01-04T00:00:00	2024-11-08T14:00:00	4	Temperatura máxima	22.1
15323	7	Sololá	701	Sololá	1	Sololá	4	Abril	2023-01-04T00:00:00	2024-11-08T14:00:00	3	Temperatura mínima	21.7
15324	7	Sololá	701	Sololá	1	Sololá	4	Abril	2023-01-04T00:00:00	2024-11-08T14:00:00	5	Humedad	70
15325	7	Sololá	701	Sololá	1	Sololá	4	Abril	2023-01-04T00:00:00	2024-11-08T14:00:00	6	Velocidad del viento	0
15326	7	Sololá	701	Sololá	1	Sololá	4	Abril	2023-01-04T00:00:00	2024-11-08T14:00:00	7	Dirección del viento	0
15327	7	Sololá	701	Sololá	1	Sololá	4	Abril	2023-01-04T00:00:00	2024-11-08T14:00:00	1	Precipitación	0
15328	7	Sololá	701	Sololá	1	Sololá	4	Abril	2023-01-04T00:00:00	2024-11-08T14:00:00	8	Radiación solar	369
15329	7	Sololá	701	Sololá	1	Sololá	4	Abril	2023-01-04T00:00:00	2024-11-08T15:00:00	2	Temperatura media	21.9
15330	7	Sololá	701	Sololá	1	Sololá	4	Abril	2023-01-04T00:00:00	2024-11-08T15:00:00	4	Temperatura máxima	22.3
15331	7	Sololá	701	Sololá	1	Sololá	4	Abril	2023-01-04T00:00:00	2024-11-08T15:00:00	3	Temperatura mínima	21.7
15332	7	Sololá	701	Sololá	1	Sololá	4	Abril	2023-01-04T00:00:00	2024-11-08T15:00:00	5	Humedad	72
15333	7	Sololá	701	Sololá	1	Sololá	4	Abril	2023-01-04T00:00:00	2024-11-08T15:00:00	6	Velocidad del viento	0
15334	7	Sololá	701	Sololá	1	Sololá	4	Abril	2023-01-04T00:00:00	2024-11-08T15:00:00	7	Dirección del viento	0
15335	7	Sololá	701	Sololá	1	Sololá	4	Abril	2023-01-04T00:00:00	2024-11-08T15:00:00	1	Precipitación	0
15336	7	Sololá	701	Sololá	1	Sololá	4	Abril	2023-01-04T00:00:00	2024-11-08T15:00:00	8	Radiación solar	234
15337	7	Sololá	701	Sololá	1	Sololá	4	Abril	2023-01-04T00:00:00	2024-11-08T16:00:00	2	Temperatura media	20.6
15338	7	Sololá	701	Sololá	1	Sololá	4	Abril	2023-01-04T00:00:00	2024-11-08T16:00:00	4	Temperatura máxima	22
15339	7	Sololá	701	Sololá	1	Sololá	4	Abril	2023-01-04T00:00:00	2024-11-08T16:00:00	3	Temperatura mínima	20.3
15340	7	Sololá	701	Sololá	1	Sololá	4	Abril	2023-01-04T00:00:00	2024-11-08T16:00:00	5	Humedad	75
15341	7	Sololá	701	Sololá	1	Sololá	4	Abril	2023-01-04T00:00:00	2024-11-08T16:00:00	6	Velocidad del viento	0
15342	7	Sololá	701	Sololá	1	Sololá	4	Abril	2023-01-04T00:00:00	2024-11-08T16:00:00	7	Dirección del viento	0
15343	7	Sololá	701	Sololá	1	Sololá	4	Abril	2023-01-04T00:00:00	2024-11-08T16:00:00	1	Precipitación	0
15344	7	Sololá	701	Sololá	1	Sololá	4	Abril	2023-01-04T00:00:00	2024-11-08T16:00:00	8	Radiación solar	196
15345	7	Sololá	701	Sololá	1	Sololá	4	Abril	2023-01-04T00:00:00	2024-11-08T17:00:00	2	Temperatura media	21.1
15346	7	Sololá	701	Sololá	1	Sololá	4	Abril	2023-01-04T00:00:00	2024-11-08T17:00:00	4	Temperatura máxima	21.3
15347	7	Sololá	701	Sololá	1	Sololá	4	Abril	2023-01-04T00:00:00	2024-11-08T17:00:00	3	Temperatura mínima	20.6
15348	7	Sololá	701	Sololá	1	Sololá	4	Abril	2023-01-04T00:00:00	2024-11-08T17:00:00	5	Humedad	74
15349	7	Sololá	701	Sololá	1	Sololá	4	Abril	2023-01-04T00:00:00	2024-11-08T17:00:00	6	Velocidad del viento	0
15350	7	Sololá	701	Sololá	1	Sololá	4	Abril	2023-01-04T00:00:00	2024-11-08T17:00:00	7	Dirección del viento	0
15351	7	Sololá	701	Sololá	1	Sololá	4	Abril	2023-01-04T00:00:00	2024-11-08T17:00:00	1	Precipitación	0
15352	7	Sololá	701	Sololá	1	Sololá	4	Abril	2023-01-04T00:00:00	2024-11-08T17:00:00	8	Radiación solar	100
15353	7	Sololá	701	Sololá	1	Sololá	4	Abril	2023-01-04T00:00:00	2024-11-08T18:00:00	2	Temperatura media	19.9
15354	7	Sololá	701	Sololá	1	Sololá	4	Abril	2023-01-04T00:00:00	2024-11-08T18:00:00	4	Temperatura máxima	21.2
15355	7	Sololá	701	Sololá	1	Sololá	4	Abril	2023-01-04T00:00:00	2024-11-08T18:00:00	3	Temperatura mínima	19.9
15356	7	Sololá	701	Sololá	1	Sololá	4	Abril	2023-01-04T00:00:00	2024-11-08T18:00:00	5	Humedad	78
15357	7	Sololá	701	Sololá	1	Sololá	4	Abril	2023-01-04T00:00:00	2024-11-08T18:00:00	6	Velocidad del viento	0
15358	7	Sololá	701	Sololá	1	Sololá	4	Abril	2023-01-04T00:00:00	2024-11-08T18:00:00	7	Dirección del viento	0
15359	7	Sololá	701	Sololá	1	Sololá	4	Abril	2023-01-04T00:00:00	2024-11-08T18:00:00	1	Precipitación	0
15360	7	Sololá	701	Sololá	1	Sololá	4	Abril	2023-01-04T00:00:00	2024-11-08T18:00:00	8	Radiación solar	27
15361	7	Sololá	701	Sololá	1	Sololá	4	Abril	2023-01-04T00:00:00	2024-11-08T19:00:00	2	Temperatura media	17.8
15362	7	Sololá	701	Sololá	1	Sololá	4	Abril	2023-01-04T00:00:00	2024-11-08T19:00:00	4	Temperatura máxima	20
15363	7	Sololá	701	Sololá	1	Sololá	4	Abril	2023-01-04T00:00:00	2024-11-08T19:00:00	3	Temperatura mínima	17.8
15364	7	Sololá	701	Sololá	1	Sololá	4	Abril	2023-01-04T00:00:00	2024-11-08T19:00:00	5	Humedad	87
15365	7	Sololá	701	Sololá	1	Sololá	4	Abril	2023-01-04T00:00:00	2024-11-08T19:00:00	6	Velocidad del viento	0
15366	7	Sololá	701	Sololá	1	Sololá	4	Abril	2023-01-04T00:00:00	2024-11-08T19:00:00	7	Dirección del viento	0
15367	7	Sololá	701	Sololá	1	Sololá	4	Abril	2023-01-04T00:00:00	2024-11-08T19:00:00	1	Precipitación	0
15368	7	Sololá	701	Sololá	1	Sololá	4	Abril	2023-01-04T00:00:00	2024-11-08T19:00:00	8	Radiación solar	0
15369	7	Sololá	701	Sololá	1	Sololá	4	Abril	2023-01-04T00:00:00	2024-11-08T20:00:00	2	Temperatura media	16.6
15370	7	Sololá	701	Sololá	1	Sololá	4	Abril	2023-01-04T00:00:00	2024-11-08T20:00:00	4	Temperatura máxima	17.8
15371	7	Sololá	701	Sololá	1	Sololá	4	Abril	2023-01-04T00:00:00	2024-11-08T20:00:00	3	Temperatura mínima	16.5
15372	7	Sololá	701	Sololá	1	Sololá	4	Abril	2023-01-04T00:00:00	2024-11-08T20:00:00	5	Humedad	89
15373	7	Sololá	701	Sololá	1	Sololá	4	Abril	2023-01-04T00:00:00	2024-11-08T20:00:00	6	Velocidad del viento	0
15374	7	Sololá	701	Sololá	1	Sololá	4	Abril	2023-01-04T00:00:00	2024-11-08T20:00:00	7	Dirección del viento	0
15375	7	Sololá	701	Sololá	1	Sololá	4	Abril	2023-01-04T00:00:00	2024-11-08T20:00:00	1	Precipitación	0
15376	7	Sololá	701	Sololá	1	Sololá	4	Abril	2023-01-04T00:00:00	2024-11-08T20:00:00	8	Radiación solar	0
15377	7	Sololá	701	Sololá	1	Sololá	4	Abril	2023-01-04T00:00:00	2024-11-08T21:00:00	2	Temperatura media	15.4
15378	7	Sololá	701	Sololá	1	Sololá	4	Abril	2023-01-04T00:00:00	2024-11-08T21:00:00	4	Temperatura máxima	16.6
15379	7	Sololá	701	Sololá	1	Sololá	4	Abril	2023-01-04T00:00:00	2024-11-08T21:00:00	3	Temperatura mínima	15.4
15380	7	Sololá	701	Sololá	1	Sololá	4	Abril	2023-01-04T00:00:00	2024-11-08T21:00:00	5	Humedad	83
15381	7	Sololá	701	Sololá	1	Sololá	4	Abril	2023-01-04T00:00:00	2024-11-08T21:00:00	6	Velocidad del viento	0
15382	7	Sololá	701	Sololá	1	Sololá	4	Abril	2023-01-04T00:00:00	2024-11-08T21:00:00	7	Dirección del viento	0
15383	7	Sololá	701	Sololá	1	Sololá	4	Abril	2023-01-04T00:00:00	2024-11-08T21:00:00	1	Precipitación	0
15384	7	Sololá	701	Sololá	1	Sololá	4	Abril	2023-01-04T00:00:00	2024-11-08T21:00:00	8	Radiación solar	0
15385	7	Sololá	701	Sololá	1	Sololá	4	Abril	2023-01-04T00:00:00	2024-11-08T22:00:00	2	Temperatura media	14.8
15386	7	Sololá	701	Sololá	1	Sololá	4	Abril	2023-01-04T00:00:00	2024-11-08T22:00:00	4	Temperatura máxima	15.4
15387	7	Sololá	701	Sololá	1	Sololá	4	Abril	2023-01-04T00:00:00	2024-11-08T22:00:00	3	Temperatura mínima	14.8
15388	7	Sololá	701	Sololá	1	Sololá	4	Abril	2023-01-04T00:00:00	2024-11-08T22:00:00	5	Humedad	80
15389	7	Sololá	701	Sololá	1	Sololá	4	Abril	2023-01-04T00:00:00	2024-11-08T22:00:00	6	Velocidad del viento	0
15390	7	Sololá	701	Sololá	1	Sololá	4	Abril	2023-01-04T00:00:00	2024-11-08T22:00:00	7	Dirección del viento	0
15391	7	Sololá	701	Sololá	1	Sololá	4	Abril	2023-01-04T00:00:00	2024-11-08T22:00:00	1	Precipitación	0
15392	7	Sololá	701	Sololá	1	Sololá	4	Abril	2023-01-04T00:00:00	2024-11-08T22:00:00	8	Radiación solar	0
15393	7	Sololá	701	Sololá	1	Sololá	4	Abril	2023-01-04T00:00:00	2024-11-08T23:00:00	2	Temperatura media	14.4
15394	7	Sololá	701	Sololá	1	Sololá	4	Abril	2023-01-04T00:00:00	2024-11-08T23:00:00	4	Temperatura máxima	14.8
15395	7	Sololá	701	Sololá	1	Sololá	4	Abril	2023-01-04T00:00:00	2024-11-08T23:00:00	3	Temperatura mínima	14.3
15396	7	Sololá	701	Sololá	1	Sololá	4	Abril	2023-01-04T00:00:00	2024-11-08T23:00:00	5	Humedad	81
15397	7	Sololá	701	Sololá	1	Sololá	4	Abril	2023-01-04T00:00:00	2024-11-08T23:00:00	6	Velocidad del viento	0
15398	7	Sololá	701	Sololá	1	Sololá	4	Abril	2023-01-04T00:00:00	2024-11-08T23:00:00	7	Dirección del viento	0
15399	7	Sololá	701	Sololá	1	Sololá	4	Abril	2023-01-04T00:00:00	2024-11-08T23:00:00	1	Precipitación	0
15400	7	Sololá	701	Sololá	1	Sololá	4	Abril	2023-01-04T00:00:00	2024-11-08T23:00:00	8	Radiación solar	0
15401	7	Sololá	701	Sololá	1	Sololá	4	Abril	2023-02-04T00:00:00	2024-11-08T00:00:00	2	Temperatura media	14.2
15402	7	Sololá	701	Sololá	1	Sololá	4	Abril	2023-02-04T00:00:00	2024-11-08T00:00:00	4	Temperatura máxima	14.4
15403	7	Sololá	701	Sololá	1	Sololá	4	Abril	2023-02-04T00:00:00	2024-11-08T00:00:00	3	Temperatura mínima	14.2
15404	7	Sololá	701	Sololá	1	Sololá	4	Abril	2023-02-04T00:00:00	2024-11-08T00:00:00	5	Humedad	80
15405	7	Sololá	701	Sololá	1	Sololá	4	Abril	2023-02-04T00:00:00	2024-11-08T00:00:00	6	Velocidad del viento	0
15406	7	Sololá	701	Sololá	1	Sololá	4	Abril	2023-02-04T00:00:00	2024-11-08T00:00:00	7	Dirección del viento	0
15407	7	Sololá	701	Sololá	1	Sololá	4	Abril	2023-02-04T00:00:00	2024-11-08T00:00:00	1	Precipitación	0
15408	7	Sololá	701	Sololá	1	Sololá	4	Abril	2023-02-04T00:00:00	2024-11-08T00:00:00	8	Radiación solar	0
15409	7	Sololá	701	Sololá	1	Sololá	4	Abril	2023-02-04T00:00:00	2024-11-08T01:00:00	2	Temperatura media	13.8
15410	7	Sololá	701	Sololá	1	Sololá	4	Abril	2023-02-04T00:00:00	2024-11-08T01:00:00	4	Temperatura máxima	14.2
15411	7	Sololá	701	Sololá	1	Sololá	4	Abril	2023-02-04T00:00:00	2024-11-08T01:00:00	3	Temperatura mínima	13.8
15412	7	Sololá	701	Sololá	1	Sololá	4	Abril	2023-02-04T00:00:00	2024-11-08T01:00:00	5	Humedad	79
15413	7	Sololá	701	Sololá	1	Sololá	4	Abril	2023-02-04T00:00:00	2024-11-08T01:00:00	6	Velocidad del viento	0
15414	7	Sololá	701	Sololá	1	Sololá	4	Abril	2023-02-04T00:00:00	2024-11-08T01:00:00	7	Dirección del viento	0
15415	7	Sololá	701	Sololá	1	Sololá	4	Abril	2023-02-04T00:00:00	2024-11-08T01:00:00	1	Precipitación	0
15416	7	Sololá	701	Sololá	1	Sololá	4	Abril	2023-02-04T00:00:00	2024-11-08T01:00:00	8	Radiación solar	0
15417	7	Sololá	701	Sololá	1	Sololá	4	Abril	2023-02-04T00:00:00	2024-11-08T02:00:00	2	Temperatura media	12.1
15418	7	Sololá	701	Sololá	1	Sololá	4	Abril	2023-02-04T00:00:00	2024-11-08T02:00:00	4	Temperatura máxima	13.8
15419	7	Sololá	701	Sololá	1	Sololá	4	Abril	2023-02-04T00:00:00	2024-11-08T02:00:00	3	Temperatura mínima	12.1
15420	7	Sololá	701	Sololá	1	Sololá	4	Abril	2023-02-04T00:00:00	2024-11-08T02:00:00	5	Humedad	79
15421	7	Sololá	701	Sololá	1	Sololá	4	Abril	2023-02-04T00:00:00	2024-11-08T02:00:00	6	Velocidad del viento	0
15422	7	Sololá	701	Sololá	1	Sololá	4	Abril	2023-02-04T00:00:00	2024-11-08T02:00:00	7	Dirección del viento	0
15423	7	Sololá	701	Sololá	1	Sololá	4	Abril	2023-02-04T00:00:00	2024-11-08T02:00:00	1	Precipitación	0
15424	7	Sololá	701	Sololá	1	Sololá	4	Abril	2023-02-04T00:00:00	2024-11-08T02:00:00	8	Radiación solar	0
15425	7	Sololá	701	Sololá	1	Sololá	4	Abril	2023-02-04T00:00:00	2024-11-08T03:00:00	2	Temperatura media	11.6
15426	7	Sololá	701	Sololá	1	Sololá	4	Abril	2023-02-04T00:00:00	2024-11-08T03:00:00	4	Temperatura máxima	12.1
15427	7	Sololá	701	Sololá	1	Sololá	4	Abril	2023-02-04T00:00:00	2024-11-08T03:00:00	3	Temperatura mínima	11.5
15428	7	Sololá	701	Sololá	1	Sololá	4	Abril	2023-02-04T00:00:00	2024-11-08T03:00:00	5	Humedad	71
15429	7	Sololá	701	Sololá	1	Sololá	4	Abril	2023-02-04T00:00:00	2024-11-08T03:00:00	6	Velocidad del viento	0
15430	7	Sololá	701	Sololá	1	Sololá	4	Abril	2023-02-04T00:00:00	2024-11-08T03:00:00	7	Dirección del viento	0
15431	7	Sololá	701	Sololá	1	Sololá	4	Abril	2023-02-04T00:00:00	2024-11-08T03:00:00	1	Precipitación	0
15432	7	Sololá	701	Sololá	1	Sololá	4	Abril	2023-02-04T00:00:00	2024-11-08T03:00:00	8	Radiación solar	0
15433	7	Sololá	701	Sololá	1	Sololá	4	Abril	2023-02-04T00:00:00	2024-11-08T04:00:00	2	Temperatura media	10.7
15434	7	Sololá	701	Sololá	1	Sololá	4	Abril	2023-02-04T00:00:00	2024-11-08T04:00:00	4	Temperatura máxima	11.6
15435	7	Sololá	701	Sololá	1	Sololá	4	Abril	2023-02-04T00:00:00	2024-11-08T04:00:00	3	Temperatura mínima	10.7
15436	7	Sololá	701	Sololá	1	Sololá	4	Abril	2023-02-04T00:00:00	2024-11-08T04:00:00	5	Humedad	70
15437	7	Sololá	701	Sololá	1	Sololá	4	Abril	2023-02-04T00:00:00	2024-11-08T04:00:00	6	Velocidad del viento	0
15438	7	Sololá	701	Sololá	1	Sololá	4	Abril	2023-02-04T00:00:00	2024-11-08T04:00:00	7	Dirección del viento	0
15439	7	Sololá	701	Sololá	1	Sololá	4	Abril	2023-02-04T00:00:00	2024-11-08T04:00:00	1	Precipitación	0
15440	7	Sololá	701	Sololá	1	Sololá	4	Abril	2023-02-04T00:00:00	2024-11-08T04:00:00	8	Radiación solar	0
15441	7	Sololá	701	Sololá	1	Sololá	4	Abril	2023-02-04T00:00:00	2024-11-08T05:00:00	2	Temperatura media	9.8
15442	7	Sololá	701	Sololá	1	Sololá	4	Abril	2023-02-04T00:00:00	2024-11-08T05:00:00	4	Temperatura máxima	10.8
15443	7	Sololá	701	Sololá	1	Sololá	4	Abril	2023-02-04T00:00:00	2024-11-08T05:00:00	3	Temperatura mínima	9.8
15444	7	Sololá	701	Sololá	1	Sololá	4	Abril	2023-02-04T00:00:00	2024-11-08T05:00:00	5	Humedad	69
15445	7	Sololá	701	Sololá	1	Sololá	4	Abril	2023-02-04T00:00:00	2024-11-08T05:00:00	6	Velocidad del viento	0
15446	7	Sololá	701	Sololá	1	Sololá	4	Abril	2023-02-04T00:00:00	2024-11-08T05:00:00	7	Dirección del viento	0
15447	7	Sololá	701	Sololá	1	Sololá	4	Abril	2023-02-04T00:00:00	2024-11-08T05:00:00	1	Precipitación	0
15448	7	Sololá	701	Sololá	1	Sololá	4	Abril	2023-02-04T00:00:00	2024-11-08T05:00:00	8	Radiación solar	0
15449	7	Sololá	701	Sololá	1	Sololá	4	Abril	2023-02-04T00:00:00	2024-11-08T06:00:00	2	Temperatura media	9.4
15450	7	Sololá	701	Sololá	1	Sololá	4	Abril	2023-02-04T00:00:00	2024-11-08T06:00:00	4	Temperatura máxima	10.1
15451	7	Sololá	701	Sololá	1	Sololá	4	Abril	2023-02-04T00:00:00	2024-11-08T06:00:00	3	Temperatura mínima	9.4
15452	7	Sololá	701	Sololá	1	Sololá	4	Abril	2023-02-04T00:00:00	2024-11-08T06:00:00	5	Humedad	63
15453	7	Sololá	701	Sololá	1	Sololá	4	Abril	2023-02-04T00:00:00	2024-11-08T06:00:00	6	Velocidad del viento	1.6
15454	7	Sololá	701	Sololá	1	Sololá	4	Abril	2023-02-04T00:00:00	2024-11-08T06:00:00	7	Dirección del viento	1.61
15455	7	Sololá	701	Sololá	1	Sololá	4	Abril	2023-02-04T00:00:00	2024-11-08T06:00:00	1	Precipitación	0
15456	7	Sololá	701	Sololá	1	Sololá	4	Abril	2023-02-04T00:00:00	2024-11-08T06:00:00	8	Radiación solar	0
15457	7	Sololá	701	Sololá	1	Sololá	4	Abril	2023-02-04T00:00:00	2024-11-08T07:00:00	2	Temperatura media	9.6
15458	7	Sololá	701	Sololá	1	Sololá	4	Abril	2023-02-04T00:00:00	2024-11-08T07:00:00	4	Temperatura máxima	9.6
15459	7	Sololá	701	Sololá	1	Sololá	4	Abril	2023-02-04T00:00:00	2024-11-08T07:00:00	3	Temperatura mínima	9.2
15460	7	Sololá	701	Sololá	1	Sololá	4	Abril	2023-02-04T00:00:00	2024-11-08T07:00:00	5	Humedad	62
15461	7	Sololá	701	Sololá	1	Sololá	4	Abril	2023-02-04T00:00:00	2024-11-08T07:00:00	6	Velocidad del viento	1.6
15462	7	Sololá	701	Sololá	1	Sololá	4	Abril	2023-02-04T00:00:00	2024-11-08T07:00:00	7	Dirección del viento	1.61
15463	7	Sololá	701	Sololá	1	Sololá	4	Abril	2023-02-04T00:00:00	2024-11-08T07:00:00	1	Precipitación	0
15464	7	Sololá	701	Sololá	1	Sololá	4	Abril	2023-02-04T00:00:00	2024-11-08T07:00:00	8	Radiación solar	12
15465	7	Sololá	701	Sololá	1	Sololá	4	Abril	2023-02-04T00:00:00	2024-11-08T08:00:00	2	Temperatura media	10.2
15466	7	Sololá	701	Sololá	1	Sololá	4	Abril	2023-02-04T00:00:00	2024-11-08T08:00:00	4	Temperatura máxima	10.2
15467	7	Sololá	701	Sololá	1	Sololá	4	Abril	2023-02-04T00:00:00	2024-11-08T08:00:00	3	Temperatura mínima	9.2
15468	7	Sololá	701	Sololá	1	Sololá	4	Abril	2023-02-04T00:00:00	2024-11-08T08:00:00	5	Humedad	68
15469	7	Sololá	701	Sololá	1	Sololá	4	Abril	2023-02-04T00:00:00	2024-11-08T08:00:00	6	Velocidad del viento	1.6
15470	7	Sololá	701	Sololá	1	Sololá	4	Abril	2023-02-04T00:00:00	2024-11-08T08:00:00	7	Dirección del viento	1.61
15471	7	Sololá	701	Sololá	1	Sololá	4	Abril	2023-02-04T00:00:00	2024-11-08T08:00:00	1	Precipitación	0
15472	7	Sololá	701	Sololá	1	Sololá	4	Abril	2023-02-04T00:00:00	2024-11-08T08:00:00	8	Radiación solar	289
15473	7	Sololá	701	Sololá	1	Sololá	4	Abril	2023-02-04T00:00:00	2024-11-08T09:00:00	2	Temperatura media	16.3
15474	7	Sololá	701	Sololá	1	Sololá	4	Abril	2023-02-04T00:00:00	2024-11-08T09:00:00	4	Temperatura máxima	16.3
15475	7	Sololá	701	Sololá	1	Sololá	4	Abril	2023-02-04T00:00:00	2024-11-08T09:00:00	3	Temperatura mínima	10.2
15476	7	Sololá	701	Sololá	1	Sololá	4	Abril	2023-02-04T00:00:00	2024-11-08T09:00:00	5	Humedad	59
15477	7	Sololá	701	Sololá	1	Sololá	4	Abril	2023-02-04T00:00:00	2024-11-08T09:00:00	6	Velocidad del viento	0
15478	7	Sololá	701	Sololá	1	Sololá	4	Abril	2023-02-04T00:00:00	2024-11-08T09:00:00	7	Dirección del viento	0
15479	7	Sololá	701	Sololá	1	Sololá	4	Abril	2023-02-04T00:00:00	2024-11-08T09:00:00	1	Precipitación	0
15480	7	Sololá	701	Sololá	1	Sololá	4	Abril	2023-02-04T00:00:00	2024-11-08T09:00:00	8	Radiación solar	608
15481	7	Sololá	701	Sololá	1	Sololá	4	Abril	2023-02-04T00:00:00	2024-11-08T10:00:00	2	Temperatura media	21.2
15482	7	Sololá	701	Sololá	1	Sololá	4	Abril	2023-02-04T00:00:00	2024-11-08T10:00:00	4	Temperatura máxima	21.2
15483	7	Sololá	701	Sololá	1	Sololá	4	Abril	2023-02-04T00:00:00	2024-11-08T10:00:00	3	Temperatura mínima	16.3
15484	7	Sololá	701	Sololá	1	Sololá	4	Abril	2023-02-04T00:00:00	2024-11-08T10:00:00	5	Humedad	47
15485	7	Sololá	701	Sololá	1	Sololá	4	Abril	2023-02-04T00:00:00	2024-11-08T10:00:00	6	Velocidad del viento	0
15486	7	Sololá	701	Sololá	1	Sololá	4	Abril	2023-02-04T00:00:00	2024-11-08T10:00:00	7	Dirección del viento	0
15487	7	Sololá	701	Sololá	1	Sololá	4	Abril	2023-02-04T00:00:00	2024-11-08T10:00:00	1	Precipitación	0
15488	7	Sololá	701	Sololá	1	Sololá	4	Abril	2023-02-04T00:00:00	2024-11-08T10:00:00	8	Radiación solar	806
15489	7	Sololá	701	Sololá	1	Sololá	4	Abril	2023-02-04T00:00:00	2024-11-08T11:00:00	2	Temperatura media	23.4
15490	7	Sololá	701	Sololá	1	Sololá	4	Abril	2023-02-04T00:00:00	2024-11-08T11:00:00	4	Temperatura máxima	23.4
15491	7	Sololá	701	Sololá	1	Sololá	4	Abril	2023-02-04T00:00:00	2024-11-08T11:00:00	3	Temperatura mínima	21.2
15492	7	Sololá	701	Sololá	1	Sololá	4	Abril	2023-02-04T00:00:00	2024-11-08T11:00:00	5	Humedad	41
15493	7	Sololá	701	Sololá	1	Sololá	4	Abril	2023-02-04T00:00:00	2024-11-08T11:00:00	6	Velocidad del viento	0
15494	7	Sololá	701	Sololá	1	Sololá	4	Abril	2023-02-04T00:00:00	2024-11-08T11:00:00	7	Dirección del viento	0
15495	7	Sololá	701	Sololá	1	Sololá	4	Abril	2023-02-04T00:00:00	2024-11-08T11:00:00	1	Precipitación	0
15496	7	Sololá	701	Sololá	1	Sololá	4	Abril	2023-02-04T00:00:00	2024-11-08T11:00:00	8	Radiación solar	941
15497	7	Sololá	701	Sololá	1	Sololá	4	Abril	2023-02-04T00:00:00	2024-11-08T12:00:00	2	Temperatura media	24.9
15498	7	Sololá	701	Sololá	1	Sololá	4	Abril	2023-02-04T00:00:00	2024-11-08T12:00:00	4	Temperatura máxima	25
15499	7	Sololá	701	Sololá	1	Sololá	4	Abril	2023-02-04T00:00:00	2024-11-08T12:00:00	3	Temperatura mínima	23.4
15500	7	Sololá	701	Sololá	1	Sololá	4	Abril	2023-02-04T00:00:00	2024-11-08T12:00:00	5	Humedad	26
15501	7	Sololá	701	Sololá	1	Sololá	4	Abril	2023-02-04T00:00:00	2024-11-08T12:00:00	6	Velocidad del viento	0
15502	7	Sololá	701	Sololá	1	Sololá	4	Abril	2023-02-04T00:00:00	2024-11-08T12:00:00	7	Dirección del viento	0
15503	7	Sololá	701	Sololá	1	Sololá	4	Abril	2023-02-04T00:00:00	2024-11-08T12:00:00	1	Precipitación	0
15504	7	Sololá	701	Sololá	1	Sololá	4	Abril	2023-02-04T00:00:00	2024-11-08T12:00:00	8	Radiación solar	1006
15505	7	Sololá	701	Sololá	1	Sololá	4	Abril	2023-02-04T00:00:00	2024-11-08T13:00:00	2	Temperatura media	24.6
15506	7	Sololá	701	Sololá	1	Sololá	4	Abril	2023-02-04T00:00:00	2024-11-08T13:00:00	4	Temperatura máxima	24.9
15507	7	Sololá	701	Sololá	1	Sololá	4	Abril	2023-02-04T00:00:00	2024-11-08T13:00:00	3	Temperatura mínima	24.3
15508	7	Sololá	701	Sololá	1	Sololá	4	Abril	2023-02-04T00:00:00	2024-11-08T13:00:00	5	Humedad	29
15509	7	Sololá	701	Sololá	1	Sololá	4	Abril	2023-02-04T00:00:00	2024-11-08T13:00:00	6	Velocidad del viento	1.6
15510	7	Sololá	701	Sololá	1	Sololá	4	Abril	2023-02-04T00:00:00	2024-11-08T13:00:00	7	Dirección del viento	1.61
15511	7	Sololá	701	Sololá	1	Sololá	4	Abril	2023-02-04T00:00:00	2024-11-08T13:00:00	1	Precipitación	0
15512	7	Sololá	701	Sololá	1	Sololá	4	Abril	2023-02-04T00:00:00	2024-11-08T13:00:00	8	Radiación solar	977
15513	7	Sololá	701	Sololá	1	Sololá	4	Abril	2023-02-04T00:00:00	2024-11-08T14:00:00	2	Temperatura media	24.2
15514	7	Sololá	701	Sololá	1	Sololá	4	Abril	2023-02-04T00:00:00	2024-11-08T14:00:00	4	Temperatura máxima	25.5
15515	7	Sololá	701	Sololá	1	Sololá	4	Abril	2023-02-04T00:00:00	2024-11-08T14:00:00	3	Temperatura mínima	23.9
15516	7	Sololá	701	Sololá	1	Sololá	4	Abril	2023-02-04T00:00:00	2024-11-08T14:00:00	5	Humedad	53
15517	7	Sololá	701	Sololá	1	Sololá	4	Abril	2023-02-04T00:00:00	2024-11-08T14:00:00	6	Velocidad del viento	0
15518	7	Sololá	701	Sololá	1	Sololá	4	Abril	2023-02-04T00:00:00	2024-11-08T14:00:00	7	Dirección del viento	0
15519	7	Sololá	701	Sololá	1	Sololá	4	Abril	2023-02-04T00:00:00	2024-11-08T14:00:00	1	Precipitación	0
15520	7	Sololá	701	Sololá	1	Sololá	4	Abril	2023-02-04T00:00:00	2024-11-08T14:00:00	8	Radiación solar	273
15521	7	Sololá	701	Sololá	1	Sololá	4	Abril	2023-02-04T00:00:00	2024-11-08T15:00:00	2	Temperatura media	23.1
15522	7	Sololá	701	Sololá	1	Sololá	4	Abril	2023-02-04T00:00:00	2024-11-08T15:00:00	4	Temperatura máxima	24.2
15523	7	Sololá	701	Sololá	1	Sololá	4	Abril	2023-02-04T00:00:00	2024-11-08T15:00:00	3	Temperatura mínima	23.1
15524	7	Sololá	701	Sololá	1	Sololá	4	Abril	2023-02-04T00:00:00	2024-11-08T15:00:00	5	Humedad	54
15525	7	Sololá	701	Sololá	1	Sololá	4	Abril	2023-02-04T00:00:00	2024-11-08T15:00:00	6	Velocidad del viento	0
15526	7	Sololá	701	Sololá	1	Sololá	4	Abril	2023-02-04T00:00:00	2024-11-08T15:00:00	7	Dirección del viento	0
15527	7	Sololá	701	Sololá	1	Sololá	4	Abril	2023-02-04T00:00:00	2024-11-08T15:00:00	1	Precipitación	0
15528	7	Sololá	701	Sololá	1	Sololá	4	Abril	2023-02-04T00:00:00	2024-11-08T15:00:00	8	Radiación solar	65
15529	7	Sololá	701	Sololá	1	Sololá	4	Abril	2023-02-04T00:00:00	2024-11-08T16:00:00	2	Temperatura media	22.7
15530	7	Sololá	701	Sololá	1	Sololá	4	Abril	2023-02-04T00:00:00	2024-11-08T16:00:00	4	Temperatura máxima	23.3
15531	7	Sololá	701	Sololá	1	Sololá	4	Abril	2023-02-04T00:00:00	2024-11-08T16:00:00	3	Temperatura mínima	22.7
15532	7	Sololá	701	Sololá	1	Sololá	4	Abril	2023-02-04T00:00:00	2024-11-08T16:00:00	5	Humedad	60
15533	7	Sololá	701	Sololá	1	Sololá	4	Abril	2023-02-04T00:00:00	2024-11-08T16:00:00	6	Velocidad del viento	0
15534	7	Sololá	701	Sololá	1	Sololá	4	Abril	2023-02-04T00:00:00	2024-11-08T16:00:00	7	Dirección del viento	0
15535	7	Sololá	701	Sololá	1	Sololá	4	Abril	2023-02-04T00:00:00	2024-11-08T16:00:00	1	Precipitación	0
15536	7	Sololá	701	Sololá	1	Sololá	4	Abril	2023-02-04T00:00:00	2024-11-08T16:00:00	8	Radiación solar	56
15537	7	Sololá	701	Sololá	1	Sololá	4	Abril	2023-02-04T00:00:00	2024-11-08T17:00:00	2	Temperatura media	22.1
15538	7	Sololá	701	Sololá	1	Sololá	4	Abril	2023-02-04T00:00:00	2024-11-08T17:00:00	4	Temperatura máxima	22.7
15539	7	Sololá	701	Sololá	1	Sololá	4	Abril	2023-02-04T00:00:00	2024-11-08T17:00:00	3	Temperatura mínima	22.1
15540	7	Sololá	701	Sololá	1	Sololá	4	Abril	2023-02-04T00:00:00	2024-11-08T17:00:00	5	Humedad	66
15541	7	Sololá	701	Sololá	1	Sololá	4	Abril	2023-02-04T00:00:00	2024-11-08T17:00:00	6	Velocidad del viento	0
15542	7	Sololá	701	Sololá	1	Sololá	4	Abril	2023-02-04T00:00:00	2024-11-08T17:00:00	7	Dirección del viento	0
15543	7	Sololá	701	Sololá	1	Sololá	4	Abril	2023-02-04T00:00:00	2024-11-08T17:00:00	1	Precipitación	0
15544	7	Sololá	701	Sololá	1	Sololá	4	Abril	2023-02-04T00:00:00	2024-11-08T17:00:00	8	Radiación solar	53
15545	7	Sololá	701	Sololá	1	Sololá	4	Abril	2023-02-04T00:00:00	2024-11-08T18:00:00	2	Temperatura media	20.1
15546	7	Sololá	701	Sololá	1	Sololá	4	Abril	2023-02-04T00:00:00	2024-11-08T18:00:00	4	Temperatura máxima	22.1
15547	7	Sololá	701	Sololá	1	Sololá	4	Abril	2023-02-04T00:00:00	2024-11-08T18:00:00	3	Temperatura mínima	20.1
15548	7	Sololá	701	Sololá	1	Sololá	4	Abril	2023-02-04T00:00:00	2024-11-08T18:00:00	5	Humedad	74
15549	7	Sololá	701	Sololá	1	Sololá	4	Abril	2023-02-04T00:00:00	2024-11-08T18:00:00	6	Velocidad del viento	0
15550	7	Sololá	701	Sololá	1	Sololá	4	Abril	2023-02-04T00:00:00	2024-11-08T18:00:00	7	Dirección del viento	0
15551	7	Sololá	701	Sololá	1	Sololá	4	Abril	2023-02-04T00:00:00	2024-11-08T18:00:00	1	Precipitación	0
15552	7	Sololá	701	Sololá	1	Sololá	4	Abril	2023-02-04T00:00:00	2024-11-08T18:00:00	8	Radiación solar	36
15553	7	Sololá	701	Sololá	1	Sololá	4	Abril	2023-02-04T00:00:00	2024-11-08T19:00:00	2	Temperatura media	18.6
15554	7	Sololá	701	Sololá	1	Sololá	4	Abril	2023-02-04T00:00:00	2024-11-08T19:00:00	4	Temperatura máxima	20.1
15555	7	Sololá	701	Sololá	1	Sololá	4	Abril	2023-02-04T00:00:00	2024-11-08T19:00:00	3	Temperatura mínima	18.6
15556	7	Sololá	701	Sololá	1	Sololá	4	Abril	2023-02-04T00:00:00	2024-11-08T19:00:00	5	Humedad	81
15557	7	Sololá	701	Sololá	1	Sololá	4	Abril	2023-02-04T00:00:00	2024-11-08T19:00:00	6	Velocidad del viento	0
15558	7	Sololá	701	Sololá	1	Sololá	4	Abril	2023-02-04T00:00:00	2024-11-08T19:00:00	7	Dirección del viento	0
15559	7	Sololá	701	Sololá	1	Sololá	4	Abril	2023-02-04T00:00:00	2024-11-08T19:00:00	1	Precipitación	0
15560	7	Sololá	701	Sololá	1	Sololá	4	Abril	2023-02-04T00:00:00	2024-11-08T19:00:00	8	Radiación solar	0
15561	7	Sololá	701	Sololá	1	Sololá	4	Abril	2023-02-04T00:00:00	2024-11-08T20:00:00	2	Temperatura media	16.4
15562	7	Sololá	701	Sololá	1	Sololá	4	Abril	2023-02-04T00:00:00	2024-11-08T20:00:00	4	Temperatura máxima	18.6
15563	7	Sololá	701	Sololá	1	Sololá	4	Abril	2023-02-04T00:00:00	2024-11-08T20:00:00	3	Temperatura mínima	16.4
15564	7	Sololá	701	Sololá	1	Sololá	4	Abril	2023-02-04T00:00:00	2024-11-08T20:00:00	5	Humedad	88
15565	7	Sololá	701	Sololá	1	Sololá	4	Abril	2023-02-04T00:00:00	2024-11-08T20:00:00	6	Velocidad del viento	0
15566	7	Sololá	701	Sololá	1	Sololá	4	Abril	2023-02-04T00:00:00	2024-11-08T20:00:00	7	Dirección del viento	0
15567	7	Sololá	701	Sololá	1	Sololá	4	Abril	2023-02-04T00:00:00	2024-11-08T20:00:00	1	Precipitación	0
15568	7	Sololá	701	Sololá	1	Sololá	4	Abril	2023-02-04T00:00:00	2024-11-08T20:00:00	8	Radiación solar	0
15569	7	Sololá	701	Sololá	1	Sololá	4	Abril	2023-02-04T00:00:00	2024-11-08T21:00:00	2	Temperatura media	14.5
15570	7	Sololá	701	Sololá	1	Sololá	4	Abril	2023-02-04T00:00:00	2024-11-08T21:00:00	4	Temperatura máxima	16.4
15571	7	Sololá	701	Sololá	1	Sololá	4	Abril	2023-02-04T00:00:00	2024-11-08T21:00:00	3	Temperatura mínima	14.5
15572	7	Sololá	701	Sololá	1	Sololá	4	Abril	2023-02-04T00:00:00	2024-11-08T21:00:00	5	Humedad	76
15573	7	Sololá	701	Sololá	1	Sololá	4	Abril	2023-02-04T00:00:00	2024-11-08T21:00:00	6	Velocidad del viento	0
15574	7	Sololá	701	Sololá	1	Sololá	4	Abril	2023-02-04T00:00:00	2024-11-08T21:00:00	7	Dirección del viento	0
15575	7	Sololá	701	Sololá	1	Sololá	4	Abril	2023-02-04T00:00:00	2024-11-08T21:00:00	1	Precipitación	0
15576	7	Sololá	701	Sololá	1	Sololá	4	Abril	2023-02-04T00:00:00	2024-11-08T21:00:00	8	Radiación solar	0
15577	7	Sololá	701	Sololá	1	Sololá	4	Abril	2023-02-04T00:00:00	2024-11-08T22:00:00	2	Temperatura media	14.7
15578	7	Sololá	701	Sololá	1	Sololá	4	Abril	2023-02-04T00:00:00	2024-11-08T22:00:00	4	Temperatura máxima	14.9
15579	7	Sololá	701	Sololá	1	Sololá	4	Abril	2023-02-04T00:00:00	2024-11-08T22:00:00	3	Temperatura mínima	14.4
15580	7	Sololá	701	Sololá	1	Sololá	4	Abril	2023-02-04T00:00:00	2024-11-08T22:00:00	5	Humedad	81
15581	7	Sololá	701	Sololá	1	Sololá	4	Abril	2023-02-04T00:00:00	2024-11-08T22:00:00	6	Velocidad del viento	0
15582	7	Sololá	701	Sololá	1	Sololá	4	Abril	2023-02-04T00:00:00	2024-11-08T22:00:00	7	Dirección del viento	0
15583	7	Sololá	701	Sololá	1	Sololá	4	Abril	2023-02-04T00:00:00	2024-11-08T22:00:00	1	Precipitación	0
15584	7	Sololá	701	Sololá	1	Sololá	4	Abril	2023-02-04T00:00:00	2024-11-08T22:00:00	8	Radiación solar	0
15585	7	Sololá	701	Sololá	1	Sololá	4	Abril	2023-02-04T00:00:00	2024-11-08T23:00:00	2	Temperatura media	14.7
15586	7	Sololá	701	Sololá	1	Sololá	4	Abril	2023-02-04T00:00:00	2024-11-08T23:00:00	4	Temperatura máxima	14.9
15587	7	Sololá	701	Sololá	1	Sololá	4	Abril	2023-02-04T00:00:00	2024-11-08T23:00:00	3	Temperatura mínima	14.6
15588	7	Sololá	701	Sololá	1	Sololá	4	Abril	2023-02-04T00:00:00	2024-11-08T23:00:00	5	Humedad	79
15589	7	Sololá	701	Sololá	1	Sololá	4	Abril	2023-02-04T00:00:00	2024-11-08T23:00:00	6	Velocidad del viento	0
15590	7	Sololá	701	Sololá	1	Sololá	4	Abril	2023-02-04T00:00:00	2024-11-08T23:00:00	7	Dirección del viento	0
15591	7	Sololá	701	Sololá	1	Sololá	4	Abril	2023-02-04T00:00:00	2024-11-08T23:00:00	1	Precipitación	0
15592	7	Sololá	701	Sololá	1	Sololá	4	Abril	2023-02-04T00:00:00	2024-11-08T23:00:00	8	Radiación solar	0
15593	7	Sololá	701	Sololá	1	Sololá	4	Abril	2023-03-04T00:00:00	2024-11-08T00:00:00	2	Temperatura media	13.4
15594	7	Sololá	701	Sololá	1	Sololá	4	Abril	2023-03-04T00:00:00	2024-11-08T00:00:00	4	Temperatura máxima	14.7
15595	7	Sololá	701	Sololá	1	Sololá	4	Abril	2023-03-04T00:00:00	2024-11-08T00:00:00	3	Temperatura mínima	13.4
15596	7	Sololá	701	Sololá	1	Sololá	4	Abril	2023-03-04T00:00:00	2024-11-08T00:00:00	5	Humedad	80
15597	7	Sololá	701	Sololá	1	Sololá	4	Abril	2023-03-04T00:00:00	2024-11-08T00:00:00	6	Velocidad del viento	0
15598	7	Sololá	701	Sololá	1	Sololá	4	Abril	2023-03-04T00:00:00	2024-11-08T00:00:00	7	Dirección del viento	0
15599	7	Sololá	701	Sololá	1	Sololá	4	Abril	2023-03-04T00:00:00	2024-11-08T00:00:00	1	Precipitación	0
15600	7	Sololá	701	Sololá	1	Sololá	4	Abril	2023-03-04T00:00:00	2024-11-08T00:00:00	8	Radiación solar	0
15601	7	Sololá	701	Sololá	1	Sololá	4	Abril	2023-03-04T00:00:00	2024-11-08T01:00:00	2	Temperatura media	12.6
15602	7	Sololá	701	Sololá	1	Sololá	4	Abril	2023-03-04T00:00:00	2024-11-08T01:00:00	4	Temperatura máxima	13.4
15603	7	Sololá	701	Sololá	1	Sololá	4	Abril	2023-03-04T00:00:00	2024-11-08T01:00:00	3	Temperatura mínima	12.5
15604	7	Sololá	701	Sololá	1	Sololá	4	Abril	2023-03-04T00:00:00	2024-11-08T01:00:00	5	Humedad	77
15605	7	Sololá	701	Sololá	1	Sololá	4	Abril	2023-03-04T00:00:00	2024-11-08T01:00:00	6	Velocidad del viento	0
15606	7	Sololá	701	Sololá	1	Sololá	4	Abril	2023-03-04T00:00:00	2024-11-08T01:00:00	7	Dirección del viento	0
15607	7	Sololá	701	Sololá	1	Sololá	4	Abril	2023-03-04T00:00:00	2024-11-08T01:00:00	1	Precipitación	0
15608	7	Sololá	701	Sololá	1	Sololá	4	Abril	2023-03-04T00:00:00	2024-11-08T01:00:00	8	Radiación solar	0
15609	7	Sololá	701	Sololá	1	Sololá	4	Abril	2023-03-04T00:00:00	2024-11-08T02:00:00	2	Temperatura media	11.9
15610	7	Sololá	701	Sololá	1	Sololá	4	Abril	2023-03-04T00:00:00	2024-11-08T02:00:00	4	Temperatura máxima	12.6
15611	7	Sololá	701	Sololá	1	Sololá	4	Abril	2023-03-04T00:00:00	2024-11-08T02:00:00	3	Temperatura mínima	11.9
15612	7	Sololá	701	Sololá	1	Sololá	4	Abril	2023-03-04T00:00:00	2024-11-08T02:00:00	5	Humedad	76
15613	7	Sololá	701	Sololá	1	Sololá	4	Abril	2023-03-04T00:00:00	2024-11-08T02:00:00	6	Velocidad del viento	1.6
15614	7	Sololá	701	Sololá	1	Sololá	4	Abril	2023-03-04T00:00:00	2024-11-08T02:00:00	7	Dirección del viento	1.61
15615	7	Sololá	701	Sololá	1	Sololá	4	Abril	2023-03-04T00:00:00	2024-11-08T02:00:00	1	Precipitación	0
15616	7	Sololá	701	Sololá	1	Sololá	4	Abril	2023-03-04T00:00:00	2024-11-08T02:00:00	8	Radiación solar	0
15617	7	Sololá	701	Sololá	1	Sololá	4	Abril	2023-03-04T00:00:00	2024-11-08T03:00:00	2	Temperatura media	11.6
15618	7	Sololá	701	Sololá	1	Sololá	4	Abril	2023-03-04T00:00:00	2024-11-08T03:00:00	4	Temperatura máxima	11.9
15619	7	Sololá	701	Sololá	1	Sololá	4	Abril	2023-03-04T00:00:00	2024-11-08T03:00:00	3	Temperatura mínima	11.5
15620	7	Sololá	701	Sololá	1	Sololá	4	Abril	2023-03-04T00:00:00	2024-11-08T03:00:00	5	Humedad	67
15621	7	Sololá	701	Sololá	1	Sololá	4	Abril	2023-03-04T00:00:00	2024-11-08T03:00:00	6	Velocidad del viento	1.6
15622	7	Sololá	701	Sololá	1	Sololá	4	Abril	2023-03-04T00:00:00	2024-11-08T03:00:00	7	Dirección del viento	1.61
15623	7	Sololá	701	Sololá	1	Sololá	4	Abril	2023-03-04T00:00:00	2024-11-08T03:00:00	1	Precipitación	0
15624	7	Sololá	701	Sololá	1	Sololá	4	Abril	2023-03-04T00:00:00	2024-11-08T03:00:00	8	Radiación solar	0
15625	7	Sololá	701	Sololá	1	Sololá	4	Abril	2023-03-04T00:00:00	2024-11-08T04:00:00	2	Temperatura media	11.3
15626	7	Sololá	701	Sololá	1	Sololá	4	Abril	2023-03-04T00:00:00	2024-11-08T04:00:00	4	Temperatura máxima	11.6
15627	7	Sololá	701	Sololá	1	Sololá	4	Abril	2023-03-04T00:00:00	2024-11-08T04:00:00	3	Temperatura mínima	11.3
15628	7	Sololá	701	Sololá	1	Sololá	4	Abril	2023-03-04T00:00:00	2024-11-08T04:00:00	5	Humedad	63
15629	7	Sololá	701	Sololá	1	Sololá	4	Abril	2023-03-04T00:00:00	2024-11-08T04:00:00	6	Velocidad del viento	3.2
15630	7	Sololá	701	Sololá	1	Sololá	4	Abril	2023-03-04T00:00:00	2024-11-08T04:00:00	7	Dirección del viento	3.22
15631	7	Sololá	701	Sololá	1	Sololá	4	Abril	2023-03-04T00:00:00	2024-11-08T04:00:00	1	Precipitación	0
15632	7	Sololá	701	Sololá	1	Sololá	4	Abril	2023-03-04T00:00:00	2024-11-08T04:00:00	8	Radiación solar	0
15633	7	Sololá	701	Sololá	1	Sololá	4	Abril	2023-03-04T00:00:00	2024-11-08T05:00:00	2	Temperatura media	11
15634	7	Sololá	701	Sololá	1	Sololá	4	Abril	2023-03-04T00:00:00	2024-11-08T05:00:00	4	Temperatura máxima	11.3
15635	7	Sololá	701	Sololá	1	Sololá	4	Abril	2023-03-04T00:00:00	2024-11-08T05:00:00	3	Temperatura mínima	11
15636	7	Sololá	701	Sololá	1	Sololá	4	Abril	2023-03-04T00:00:00	2024-11-08T05:00:00	5	Humedad	63
15637	7	Sololá	701	Sololá	1	Sololá	4	Abril	2023-03-04T00:00:00	2024-11-08T05:00:00	6	Velocidad del viento	3.2
15638	7	Sololá	701	Sololá	1	Sololá	4	Abril	2023-03-04T00:00:00	2024-11-08T05:00:00	7	Dirección del viento	3.22
15639	7	Sololá	701	Sololá	1	Sololá	4	Abril	2023-03-04T00:00:00	2024-11-08T05:00:00	1	Precipitación	0
15640	7	Sololá	701	Sololá	1	Sololá	4	Abril	2023-03-04T00:00:00	2024-11-08T05:00:00	8	Radiación solar	0
15641	7	Sololá	701	Sololá	1	Sololá	4	Abril	2023-03-04T00:00:00	2024-11-08T06:00:00	2	Temperatura media	10.7
15642	7	Sololá	701	Sololá	1	Sololá	4	Abril	2023-03-04T00:00:00	2024-11-08T06:00:00	4	Temperatura máxima	11.1
15643	7	Sololá	701	Sololá	1	Sololá	4	Abril	2023-03-04T00:00:00	2024-11-08T06:00:00	3	Temperatura mínima	10.7
15644	7	Sololá	701	Sololá	1	Sololá	4	Abril	2023-03-04T00:00:00	2024-11-08T06:00:00	5	Humedad	66
15645	7	Sololá	701	Sololá	1	Sololá	4	Abril	2023-03-04T00:00:00	2024-11-08T06:00:00	6	Velocidad del viento	3.2
15646	7	Sololá	701	Sololá	1	Sololá	4	Abril	2023-03-04T00:00:00	2024-11-08T06:00:00	7	Dirección del viento	3.22
15647	7	Sololá	701	Sololá	1	Sololá	4	Abril	2023-03-04T00:00:00	2024-11-08T06:00:00	1	Precipitación	0
15648	7	Sololá	701	Sololá	1	Sololá	4	Abril	2023-03-04T00:00:00	2024-11-08T06:00:00	8	Radiación solar	0
15649	7	Sololá	701	Sololá	1	Sololá	4	Abril	2023-03-04T00:00:00	2024-11-08T07:00:00	2	Temperatura media	10.7
15650	7	Sololá	701	Sololá	1	Sololá	4	Abril	2023-03-04T00:00:00	2024-11-08T07:00:00	4	Temperatura máxima	10.8
15651	7	Sololá	701	Sololá	1	Sololá	4	Abril	2023-03-04T00:00:00	2024-11-08T07:00:00	3	Temperatura mínima	10.6
15652	7	Sololá	701	Sololá	1	Sololá	4	Abril	2023-03-04T00:00:00	2024-11-08T07:00:00	5	Humedad	72
15653	7	Sololá	701	Sololá	1	Sololá	4	Abril	2023-03-04T00:00:00	2024-11-08T07:00:00	6	Velocidad del viento	3.2
15654	7	Sololá	701	Sololá	1	Sololá	4	Abril	2023-03-04T00:00:00	2024-11-08T07:00:00	7	Dirección del viento	3.22
15655	7	Sololá	701	Sololá	1	Sololá	4	Abril	2023-03-04T00:00:00	2024-11-08T07:00:00	1	Precipitación	0
15656	7	Sololá	701	Sololá	1	Sololá	4	Abril	2023-03-04T00:00:00	2024-11-08T07:00:00	8	Radiación solar	22
15657	7	Sololá	701	Sololá	1	Sololá	4	Abril	2023-03-04T00:00:00	2024-11-08T08:00:00	2	Temperatura media	11.2
15658	7	Sololá	701	Sololá	1	Sololá	4	Abril	2023-03-04T00:00:00	2024-11-08T08:00:00	4	Temperatura máxima	11.2
15659	7	Sololá	701	Sololá	1	Sololá	4	Abril	2023-03-04T00:00:00	2024-11-08T08:00:00	3	Temperatura mínima	10.6
15660	7	Sololá	701	Sololá	1	Sololá	4	Abril	2023-03-04T00:00:00	2024-11-08T08:00:00	5	Humedad	75
15661	7	Sololá	701	Sololá	1	Sololá	4	Abril	2023-03-04T00:00:00	2024-11-08T08:00:00	6	Velocidad del viento	1.6
15662	7	Sololá	701	Sololá	1	Sololá	4	Abril	2023-03-04T00:00:00	2024-11-08T08:00:00	7	Dirección del viento	1.61
15663	7	Sololá	701	Sololá	1	Sololá	4	Abril	2023-03-04T00:00:00	2024-11-08T08:00:00	1	Precipitación	0
15664	7	Sololá	701	Sololá	1	Sololá	4	Abril	2023-03-04T00:00:00	2024-11-08T08:00:00	8	Radiación solar	257
15665	7	Sololá	701	Sololá	1	Sololá	4	Abril	2023-03-04T00:00:00	2024-11-08T09:00:00	2	Temperatura media	16.5
15666	7	Sololá	701	Sololá	1	Sololá	4	Abril	2023-03-04T00:00:00	2024-11-08T09:00:00	4	Temperatura máxima	16.5
15667	7	Sololá	701	Sololá	1	Sololá	4	Abril	2023-03-04T00:00:00	2024-11-08T09:00:00	3	Temperatura mínima	11.2
15668	7	Sololá	701	Sololá	1	Sololá	4	Abril	2023-03-04T00:00:00	2024-11-08T09:00:00	5	Humedad	67
15669	7	Sololá	701	Sololá	1	Sololá	4	Abril	2023-03-04T00:00:00	2024-11-08T09:00:00	6	Velocidad del viento	0
15670	7	Sololá	701	Sololá	1	Sololá	4	Abril	2023-03-04T00:00:00	2024-11-08T09:00:00	7	Dirección del viento	0
15671	7	Sololá	701	Sololá	1	Sololá	4	Abril	2023-03-04T00:00:00	2024-11-08T09:00:00	1	Precipitación	0
15672	7	Sololá	701	Sololá	1	Sololá	4	Abril	2023-03-04T00:00:00	2024-11-08T09:00:00	8	Radiación solar	581
15673	7	Sololá	701	Sololá	1	Sololá	4	Abril	2023-03-04T00:00:00	2024-11-08T10:00:00	2	Temperatura media	18.6
15674	7	Sololá	701	Sololá	1	Sololá	4	Abril	2023-03-04T00:00:00	2024-11-08T10:00:00	4	Temperatura máxima	18.7
15675	7	Sololá	701	Sololá	1	Sololá	4	Abril	2023-03-04T00:00:00	2024-11-08T10:00:00	3	Temperatura mínima	16.5
15676	7	Sololá	701	Sololá	1	Sololá	4	Abril	2023-03-04T00:00:00	2024-11-08T10:00:00	5	Humedad	67
15677	7	Sololá	701	Sololá	1	Sololá	4	Abril	2023-03-04T00:00:00	2024-11-08T10:00:00	6	Velocidad del viento	0
15678	7	Sololá	701	Sololá	1	Sololá	4	Abril	2023-03-04T00:00:00	2024-11-08T10:00:00	7	Dirección del viento	0
15679	7	Sololá	701	Sololá	1	Sololá	4	Abril	2023-03-04T00:00:00	2024-11-08T10:00:00	1	Precipitación	0
15680	7	Sololá	701	Sololá	1	Sololá	4	Abril	2023-03-04T00:00:00	2024-11-08T10:00:00	8	Radiación solar	774
15681	7	Sololá	701	Sololá	1	Sololá	4	Abril	2023-03-04T00:00:00	2024-11-08T11:00:00	2	Temperatura media	19.7
15682	7	Sololá	701	Sololá	1	Sololá	4	Abril	2023-03-04T00:00:00	2024-11-08T11:00:00	4	Temperatura máxima	19.7
15683	7	Sololá	701	Sololá	1	Sololá	4	Abril	2023-03-04T00:00:00	2024-11-08T11:00:00	3	Temperatura mínima	18.6
15684	7	Sololá	701	Sololá	1	Sololá	4	Abril	2023-03-04T00:00:00	2024-11-08T11:00:00	5	Humedad	65
15685	7	Sololá	701	Sololá	1	Sololá	4	Abril	2023-03-04T00:00:00	2024-11-08T11:00:00	6	Velocidad del viento	0
15686	7	Sololá	701	Sololá	1	Sololá	4	Abril	2023-03-04T00:00:00	2024-11-08T11:00:00	7	Dirección del viento	0
15687	7	Sololá	701	Sololá	1	Sololá	4	Abril	2023-03-04T00:00:00	2024-11-08T11:00:00	1	Precipitación	0
15688	7	Sololá	701	Sololá	1	Sololá	4	Abril	2023-03-04T00:00:00	2024-11-08T11:00:00	8	Radiación solar	908
15689	7	Sololá	701	Sololá	1	Sololá	4	Abril	2023-03-04T00:00:00	2024-11-08T12:00:00	2	Temperatura media	21
15690	7	Sololá	701	Sololá	1	Sololá	4	Abril	2023-03-04T00:00:00	2024-11-08T12:00:00	4	Temperatura máxima	21.2
15691	7	Sololá	701	Sololá	1	Sololá	4	Abril	2023-03-04T00:00:00	2024-11-08T12:00:00	3	Temperatura mínima	19.6
15692	7	Sololá	701	Sololá	1	Sololá	4	Abril	2023-03-04T00:00:00	2024-11-08T12:00:00	5	Humedad	60
15693	7	Sololá	701	Sololá	1	Sololá	4	Abril	2023-03-04T00:00:00	2024-11-08T12:00:00	6	Velocidad del viento	0
15694	7	Sololá	701	Sololá	1	Sololá	4	Abril	2023-03-04T00:00:00	2024-11-08T12:00:00	7	Dirección del viento	0
15695	7	Sololá	701	Sololá	1	Sololá	4	Abril	2023-03-04T00:00:00	2024-11-08T12:00:00	1	Precipitación	0
15696	7	Sololá	701	Sololá	1	Sololá	4	Abril	2023-03-04T00:00:00	2024-11-08T12:00:00	8	Radiación solar	970
15697	7	Sololá	701	Sololá	1	Sololá	4	Abril	2023-03-04T00:00:00	2024-11-08T13:00:00	2	Temperatura media	21.5
15698	7	Sololá	701	Sololá	1	Sololá	4	Abril	2023-03-04T00:00:00	2024-11-08T13:00:00	4	Temperatura máxima	21.5
15699	7	Sololá	701	Sololá	1	Sololá	4	Abril	2023-03-04T00:00:00	2024-11-08T13:00:00	3	Temperatura mínima	20.9
15700	7	Sololá	701	Sololá	1	Sololá	4	Abril	2023-03-04T00:00:00	2024-11-08T13:00:00	5	Humedad	65
15701	7	Sololá	701	Sololá	1	Sololá	4	Abril	2023-03-04T00:00:00	2024-11-08T13:00:00	6	Velocidad del viento	0
15702	7	Sololá	701	Sololá	1	Sololá	4	Abril	2023-03-04T00:00:00	2024-11-08T13:00:00	7	Dirección del viento	0
15703	7	Sololá	701	Sololá	1	Sololá	4	Abril	2023-03-04T00:00:00	2024-11-08T13:00:00	1	Precipitación	0
15704	7	Sololá	701	Sololá	1	Sololá	4	Abril	2023-03-04T00:00:00	2024-11-08T13:00:00	8	Radiación solar	961
15705	7	Sololá	701	Sololá	1	Sololá	4	Abril	2023-03-04T00:00:00	2024-11-08T14:00:00	2	Temperatura media	21.8
15706	7	Sololá	701	Sololá	1	Sololá	4	Abril	2023-03-04T00:00:00	2024-11-08T14:00:00	4	Temperatura máxima	21.8
15707	7	Sololá	701	Sololá	1	Sololá	4	Abril	2023-03-04T00:00:00	2024-11-08T14:00:00	3	Temperatura mínima	21.4
15708	7	Sololá	701	Sololá	1	Sololá	4	Abril	2023-03-04T00:00:00	2024-11-08T14:00:00	5	Humedad	69
15709	7	Sololá	701	Sololá	1	Sololá	4	Abril	2023-03-04T00:00:00	2024-11-08T14:00:00	6	Velocidad del viento	0
15710	7	Sololá	701	Sololá	1	Sololá	4	Abril	2023-03-04T00:00:00	2024-11-08T14:00:00	7	Dirección del viento	0
15711	7	Sololá	701	Sololá	1	Sololá	4	Abril	2023-03-04T00:00:00	2024-11-08T14:00:00	1	Precipitación	0
15712	7	Sololá	701	Sololá	1	Sololá	4	Abril	2023-03-04T00:00:00	2024-11-08T14:00:00	8	Radiación solar	298
15713	7	Sololá	701	Sololá	1	Sololá	4	Abril	2023-03-04T00:00:00	2024-11-08T15:00:00	2	Temperatura media	19.5
15714	7	Sololá	701	Sololá	1	Sololá	4	Abril	2023-03-04T00:00:00	2024-11-08T15:00:00	4	Temperatura máxima	21.9
15715	7	Sololá	701	Sololá	1	Sololá	4	Abril	2023-03-04T00:00:00	2024-11-08T15:00:00	3	Temperatura mínima	19.4
15716	7	Sololá	701	Sololá	1	Sololá	4	Abril	2023-03-04T00:00:00	2024-11-08T15:00:00	5	Humedad	75
15717	7	Sololá	701	Sololá	1	Sololá	4	Abril	2023-03-04T00:00:00	2024-11-08T15:00:00	6	Velocidad del viento	1.6
15718	7	Sololá	701	Sololá	1	Sololá	4	Abril	2023-03-04T00:00:00	2024-11-08T15:00:00	7	Dirección del viento	1.61
15719	7	Sololá	701	Sololá	1	Sololá	4	Abril	2023-03-04T00:00:00	2024-11-08T15:00:00	1	Precipitación	0
15720	7	Sololá	701	Sololá	1	Sololá	4	Abril	2023-03-04T00:00:00	2024-11-08T15:00:00	8	Radiación solar	175
15721	7	Sololá	701	Sololá	1	Sololá	4	Abril	2023-03-04T00:00:00	2024-11-08T16:00:00	2	Temperatura media	18.3
15722	7	Sololá	701	Sololá	1	Sololá	4	Abril	2023-03-04T00:00:00	2024-11-08T16:00:00	4	Temperatura máxima	19.4
15723	7	Sololá	701	Sololá	1	Sololá	4	Abril	2023-03-04T00:00:00	2024-11-08T16:00:00	3	Temperatura mínima	18.3
15724	7	Sololá	701	Sololá	1	Sololá	4	Abril	2023-03-04T00:00:00	2024-11-08T16:00:00	5	Humedad	80
15725	7	Sololá	701	Sololá	1	Sololá	4	Abril	2023-03-04T00:00:00	2024-11-08T16:00:00	6	Velocidad del viento	0
15726	7	Sololá	701	Sololá	1	Sololá	4	Abril	2023-03-04T00:00:00	2024-11-08T16:00:00	7	Dirección del viento	0
15727	7	Sololá	701	Sololá	1	Sololá	4	Abril	2023-03-04T00:00:00	2024-11-08T16:00:00	1	Precipitación	0
15728	7	Sololá	701	Sololá	1	Sololá	4	Abril	2023-03-04T00:00:00	2024-11-08T16:00:00	8	Radiación solar	122
15729	7	Sololá	701	Sololá	1	Sololá	4	Abril	2023-03-04T00:00:00	2024-11-08T17:00:00	2	Temperatura media	18
15730	7	Sololá	701	Sololá	1	Sololá	4	Abril	2023-03-04T00:00:00	2024-11-08T17:00:00	4	Temperatura máxima	18.4
15731	7	Sololá	701	Sololá	1	Sololá	4	Abril	2023-03-04T00:00:00	2024-11-08T17:00:00	3	Temperatura mínima	18
15732	7	Sololá	701	Sololá	1	Sololá	4	Abril	2023-03-04T00:00:00	2024-11-08T17:00:00	5	Humedad	83
15733	7	Sololá	701	Sololá	1	Sololá	4	Abril	2023-03-04T00:00:00	2024-11-08T17:00:00	6	Velocidad del viento	0
15734	7	Sololá	701	Sololá	1	Sololá	4	Abril	2023-03-04T00:00:00	2024-11-08T17:00:00	7	Dirección del viento	0
15735	7	Sololá	701	Sololá	1	Sololá	4	Abril	2023-03-04T00:00:00	2024-11-08T17:00:00	1	Precipitación	0
15736	7	Sololá	701	Sololá	1	Sololá	4	Abril	2023-03-04T00:00:00	2024-11-08T17:00:00	8	Radiación solar	100
15737	7	Sololá	701	Sololá	1	Sololá	4	Abril	2023-03-04T00:00:00	2024-11-08T18:00:00	2	Temperatura media	17.9
15738	7	Sololá	701	Sololá	1	Sololá	4	Abril	2023-03-04T00:00:00	2024-11-08T18:00:00	4	Temperatura máxima	18.3
15739	7	Sololá	701	Sololá	1	Sololá	4	Abril	2023-03-04T00:00:00	2024-11-08T18:00:00	3	Temperatura mínima	17.9
15740	7	Sololá	701	Sololá	1	Sololá	4	Abril	2023-03-04T00:00:00	2024-11-08T18:00:00	5	Humedad	83
15741	7	Sololá	701	Sololá	1	Sololá	4	Abril	2023-03-04T00:00:00	2024-11-08T18:00:00	6	Velocidad del viento	0
15742	7	Sololá	701	Sololá	1	Sololá	4	Abril	2023-03-04T00:00:00	2024-11-08T18:00:00	7	Dirección del viento	0
15743	7	Sololá	701	Sololá	1	Sololá	4	Abril	2023-03-04T00:00:00	2024-11-08T18:00:00	1	Precipitación	0
15744	7	Sololá	701	Sololá	1	Sololá	4	Abril	2023-03-04T00:00:00	2024-11-08T18:00:00	8	Radiación solar	31
15745	7	Sololá	701	Sololá	1	Sololá	4	Abril	2023-03-04T00:00:00	2024-11-08T19:00:00	2	Temperatura media	17
15746	7	Sololá	701	Sololá	1	Sololá	4	Abril	2023-03-04T00:00:00	2024-11-08T19:00:00	4	Temperatura máxima	18
15747	7	Sololá	701	Sololá	1	Sololá	4	Abril	2023-03-04T00:00:00	2024-11-08T19:00:00	3	Temperatura mínima	17
15748	7	Sololá	701	Sololá	1	Sololá	4	Abril	2023-03-04T00:00:00	2024-11-08T19:00:00	5	Humedad	87
15749	7	Sololá	701	Sololá	1	Sololá	4	Abril	2023-03-04T00:00:00	2024-11-08T19:00:00	6	Velocidad del viento	0
15750	7	Sololá	701	Sololá	1	Sololá	4	Abril	2023-03-04T00:00:00	2024-11-08T19:00:00	7	Dirección del viento	0
15751	7	Sololá	701	Sololá	1	Sololá	4	Abril	2023-03-04T00:00:00	2024-11-08T19:00:00	1	Precipitación	0
15752	7	Sololá	701	Sololá	1	Sololá	4	Abril	2023-03-04T00:00:00	2024-11-08T19:00:00	8	Radiación solar	0
15753	7	Sololá	701	Sololá	1	Sololá	4	Abril	2023-03-04T00:00:00	2024-11-08T20:00:00	2	Temperatura media	16.1
15754	7	Sololá	701	Sololá	1	Sololá	4	Abril	2023-03-04T00:00:00	2024-11-08T20:00:00	4	Temperatura máxima	17
15755	7	Sololá	701	Sololá	1	Sololá	4	Abril	2023-03-04T00:00:00	2024-11-08T20:00:00	3	Temperatura mínima	16.1
15756	7	Sololá	701	Sololá	1	Sololá	4	Abril	2023-03-04T00:00:00	2024-11-08T20:00:00	5	Humedad	91
15757	7	Sololá	701	Sololá	1	Sololá	4	Abril	2023-03-04T00:00:00	2024-11-08T20:00:00	6	Velocidad del viento	0
15758	7	Sololá	701	Sololá	1	Sololá	4	Abril	2023-03-04T00:00:00	2024-11-08T20:00:00	7	Dirección del viento	0
15759	7	Sololá	701	Sololá	1	Sololá	4	Abril	2023-03-04T00:00:00	2024-11-08T20:00:00	1	Precipitación	0
15760	7	Sololá	701	Sololá	1	Sololá	4	Abril	2023-03-04T00:00:00	2024-11-08T20:00:00	8	Radiación solar	0
15761	7	Sololá	701	Sololá	1	Sololá	4	Abril	2023-03-04T00:00:00	2024-11-08T21:00:00	2	Temperatura media	15.7
15762	7	Sololá	701	Sololá	1	Sololá	4	Abril	2023-03-04T00:00:00	2024-11-08T21:00:00	4	Temperatura máxima	16.2
15763	7	Sololá	701	Sololá	1	Sololá	4	Abril	2023-03-04T00:00:00	2024-11-08T21:00:00	3	Temperatura mínima	15.7
15764	7	Sololá	701	Sololá	1	Sololá	4	Abril	2023-03-04T00:00:00	2024-11-08T21:00:00	5	Humedad	92
15765	7	Sololá	701	Sololá	1	Sololá	4	Abril	2023-03-04T00:00:00	2024-11-08T21:00:00	6	Velocidad del viento	0
15766	7	Sololá	701	Sololá	1	Sololá	4	Abril	2023-03-04T00:00:00	2024-11-08T21:00:00	7	Dirección del viento	0
15767	7	Sololá	701	Sololá	1	Sololá	4	Abril	2023-03-04T00:00:00	2024-11-08T21:00:00	1	Precipitación	0
15768	7	Sololá	701	Sololá	1	Sololá	4	Abril	2023-03-04T00:00:00	2024-11-08T21:00:00	8	Radiación solar	0
15769	7	Sololá	701	Sololá	1	Sololá	4	Abril	2023-03-04T00:00:00	2024-11-08T22:00:00	2	Temperatura media	14.3
15770	7	Sololá	701	Sololá	1	Sololá	4	Abril	2023-03-04T00:00:00	2024-11-08T22:00:00	4	Temperatura máxima	15.7
15771	7	Sololá	701	Sololá	1	Sololá	4	Abril	2023-03-04T00:00:00	2024-11-08T22:00:00	3	Temperatura mínima	14.3
15772	7	Sololá	701	Sololá	1	Sololá	4	Abril	2023-03-04T00:00:00	2024-11-08T22:00:00	5	Humedad	87
15773	7	Sololá	701	Sololá	1	Sololá	4	Abril	2023-03-04T00:00:00	2024-11-08T22:00:00	6	Velocidad del viento	0
15774	7	Sololá	701	Sololá	1	Sololá	4	Abril	2023-03-04T00:00:00	2024-11-08T22:00:00	7	Dirección del viento	0
15775	7	Sololá	701	Sololá	1	Sololá	4	Abril	2023-03-04T00:00:00	2024-11-08T22:00:00	1	Precipitación	0
15776	7	Sololá	701	Sololá	1	Sololá	4	Abril	2023-03-04T00:00:00	2024-11-08T22:00:00	8	Radiación solar	0
15777	7	Sololá	701	Sololá	1	Sololá	4	Abril	2023-03-04T00:00:00	2024-11-08T23:00:00	2	Temperatura media	13.2
15778	7	Sololá	701	Sololá	1	Sololá	4	Abril	2023-03-04T00:00:00	2024-11-08T23:00:00	4	Temperatura máxima	14.3
15779	7	Sololá	701	Sololá	1	Sololá	4	Abril	2023-03-04T00:00:00	2024-11-08T23:00:00	3	Temperatura mínima	13.1
15780	7	Sololá	701	Sololá	1	Sololá	4	Abril	2023-03-04T00:00:00	2024-11-08T23:00:00	5	Humedad	79
15781	7	Sololá	701	Sololá	1	Sololá	4	Abril	2023-03-04T00:00:00	2024-11-08T23:00:00	6	Velocidad del viento	0
15782	7	Sololá	701	Sololá	1	Sololá	4	Abril	2023-03-04T00:00:00	2024-11-08T23:00:00	7	Dirección del viento	0
15783	7	Sololá	701	Sololá	1	Sololá	4	Abril	2023-03-04T00:00:00	2024-11-08T23:00:00	1	Precipitación	0
15784	7	Sololá	701	Sololá	1	Sololá	4	Abril	2023-03-04T00:00:00	2024-11-08T23:00:00	8	Radiación solar	0
15785	7	Sololá	701	Sololá	1	Sololá	4	Abril	2023-04-04T00:00:00	2024-11-08T00:00:00	2	Temperatura media	13.1
15786	7	Sololá	701	Sololá	1	Sololá	4	Abril	2023-04-04T00:00:00	2024-11-08T00:00:00	4	Temperatura máxima	13.6
15787	7	Sololá	701	Sololá	1	Sololá	4	Abril	2023-04-04T00:00:00	2024-11-08T00:00:00	3	Temperatura mínima	13.1
15788	7	Sololá	701	Sololá	1	Sololá	4	Abril	2023-04-04T00:00:00	2024-11-08T00:00:00	5	Humedad	79
15789	7	Sololá	701	Sololá	1	Sololá	4	Abril	2023-04-04T00:00:00	2024-11-08T00:00:00	6	Velocidad del viento	0
15790	7	Sololá	701	Sololá	1	Sololá	4	Abril	2023-04-04T00:00:00	2024-11-08T00:00:00	7	Dirección del viento	0
15791	7	Sololá	701	Sololá	1	Sololá	4	Abril	2023-04-04T00:00:00	2024-11-08T00:00:00	1	Precipitación	0
15792	7	Sololá	701	Sololá	1	Sololá	4	Abril	2023-04-04T00:00:00	2024-11-08T00:00:00	8	Radiación solar	0
15793	7	Sololá	701	Sololá	1	Sololá	4	Abril	2023-04-04T00:00:00	2024-11-08T01:00:00	2	Temperatura media	12.4
15794	7	Sololá	701	Sololá	1	Sololá	4	Abril	2023-04-04T00:00:00	2024-11-08T01:00:00	4	Temperatura máxima	13.2
15795	7	Sololá	701	Sololá	1	Sololá	4	Abril	2023-04-04T00:00:00	2024-11-08T01:00:00	3	Temperatura mínima	12.3
15796	7	Sololá	701	Sololá	1	Sololá	4	Abril	2023-04-04T00:00:00	2024-11-08T01:00:00	5	Humedad	81
15797	7	Sololá	701	Sololá	1	Sololá	4	Abril	2023-04-04T00:00:00	2024-11-08T01:00:00	6	Velocidad del viento	0
15798	7	Sololá	701	Sololá	1	Sololá	4	Abril	2023-04-04T00:00:00	2024-11-08T01:00:00	7	Dirección del viento	0
15799	7	Sololá	701	Sololá	1	Sololá	4	Abril	2023-04-04T00:00:00	2024-11-08T01:00:00	1	Precipitación	0
15800	7	Sololá	701	Sololá	1	Sololá	4	Abril	2023-04-04T00:00:00	2024-11-08T01:00:00	8	Radiación solar	0
15801	7	Sololá	701	Sololá	1	Sololá	4	Abril	2023-04-04T00:00:00	2024-11-08T02:00:00	2	Temperatura media	12.1
15802	7	Sololá	701	Sololá	1	Sololá	4	Abril	2023-04-04T00:00:00	2024-11-08T02:00:00	4	Temperatura máxima	12.4
15803	7	Sololá	701	Sololá	1	Sololá	4	Abril	2023-04-04T00:00:00	2024-11-08T02:00:00	3	Temperatura mínima	12
15804	7	Sololá	701	Sololá	1	Sololá	4	Abril	2023-04-04T00:00:00	2024-11-08T02:00:00	5	Humedad	76
15805	7	Sololá	701	Sololá	1	Sololá	4	Abril	2023-04-04T00:00:00	2024-11-08T02:00:00	6	Velocidad del viento	1.6
15806	7	Sololá	701	Sololá	1	Sololá	4	Abril	2023-04-04T00:00:00	2024-11-08T02:00:00	7	Dirección del viento	1.61
15807	7	Sololá	701	Sololá	1	Sololá	4	Abril	2023-04-04T00:00:00	2024-11-08T02:00:00	1	Precipitación	0
15808	7	Sololá	701	Sololá	1	Sololá	4	Abril	2023-04-04T00:00:00	2024-11-08T02:00:00	8	Radiación solar	0
15809	7	Sololá	701	Sololá	1	Sololá	4	Abril	2023-04-04T00:00:00	2024-11-08T03:00:00	2	Temperatura media	11.8
15810	7	Sololá	701	Sololá	1	Sololá	4	Abril	2023-04-04T00:00:00	2024-11-08T03:00:00	4	Temperatura máxima	12.1
15811	7	Sololá	701	Sololá	1	Sololá	4	Abril	2023-04-04T00:00:00	2024-11-08T03:00:00	3	Temperatura mínima	11.8
15812	7	Sololá	701	Sololá	1	Sololá	4	Abril	2023-04-04T00:00:00	2024-11-08T03:00:00	5	Humedad	75
15813	7	Sololá	701	Sololá	1	Sololá	4	Abril	2023-04-04T00:00:00	2024-11-08T03:00:00	6	Velocidad del viento	1.6
15814	7	Sololá	701	Sololá	1	Sololá	4	Abril	2023-04-04T00:00:00	2024-11-08T03:00:00	7	Dirección del viento	1.61
15815	7	Sololá	701	Sololá	1	Sololá	4	Abril	2023-04-04T00:00:00	2024-11-08T03:00:00	1	Precipitación	0
15816	7	Sololá	701	Sololá	1	Sololá	4	Abril	2023-04-04T00:00:00	2024-11-08T03:00:00	8	Radiación solar	0
15817	7	Sololá	701	Sololá	1	Sololá	4	Abril	2023-04-04T00:00:00	2024-11-08T04:00:00	2	Temperatura media	11.2
15818	7	Sololá	701	Sololá	1	Sololá	4	Abril	2023-04-04T00:00:00	2024-11-08T04:00:00	4	Temperatura máxima	11.8
15819	7	Sololá	701	Sololá	1	Sololá	4	Abril	2023-04-04T00:00:00	2024-11-08T04:00:00	3	Temperatura mínima	11.2
15820	7	Sololá	701	Sololá	1	Sololá	4	Abril	2023-04-04T00:00:00	2024-11-08T04:00:00	5	Humedad	73
15821	7	Sololá	701	Sololá	1	Sololá	4	Abril	2023-04-04T00:00:00	2024-11-08T04:00:00	6	Velocidad del viento	1.6
15822	7	Sololá	701	Sololá	1	Sololá	4	Abril	2023-04-04T00:00:00	2024-11-08T04:00:00	7	Dirección del viento	1.61
15823	7	Sololá	701	Sololá	1	Sololá	4	Abril	2023-04-04T00:00:00	2024-11-08T04:00:00	1	Precipitación	0
15824	7	Sololá	701	Sololá	1	Sololá	4	Abril	2023-04-04T00:00:00	2024-11-08T04:00:00	8	Radiación solar	0
15825	7	Sololá	701	Sololá	1	Sololá	4	Abril	2023-04-04T00:00:00	2024-11-08T05:00:00	2	Temperatura media	10.8
15826	7	Sololá	701	Sololá	1	Sololá	4	Abril	2023-04-04T00:00:00	2024-11-08T05:00:00	4	Temperatura máxima	11.3
15827	7	Sololá	701	Sololá	1	Sololá	4	Abril	2023-04-04T00:00:00	2024-11-08T05:00:00	3	Temperatura mínima	10.6
15828	7	Sololá	701	Sololá	1	Sololá	4	Abril	2023-04-04T00:00:00	2024-11-08T05:00:00	5	Humedad	73
15829	7	Sololá	701	Sololá	1	Sololá	4	Abril	2023-04-04T00:00:00	2024-11-08T05:00:00	6	Velocidad del viento	1.6
15830	7	Sololá	701	Sololá	1	Sololá	4	Abril	2023-04-04T00:00:00	2024-11-08T05:00:00	7	Dirección del viento	1.61
15831	7	Sololá	701	Sololá	1	Sololá	4	Abril	2023-04-04T00:00:00	2024-11-08T05:00:00	1	Precipitación	0
15832	7	Sololá	701	Sololá	1	Sololá	4	Abril	2023-04-04T00:00:00	2024-11-08T05:00:00	8	Radiación solar	0
15833	7	Sololá	701	Sololá	1	Sololá	4	Abril	2023-04-04T00:00:00	2024-11-08T06:00:00	2	Temperatura media	10.6
15834	7	Sololá	701	Sololá	1	Sololá	4	Abril	2023-04-04T00:00:00	2024-11-08T06:00:00	4	Temperatura máxima	10.9
15835	7	Sololá	701	Sololá	1	Sololá	4	Abril	2023-04-04T00:00:00	2024-11-08T06:00:00	3	Temperatura mínima	10.6
15836	7	Sololá	701	Sololá	1	Sololá	4	Abril	2023-04-04T00:00:00	2024-11-08T06:00:00	5	Humedad	66
15837	7	Sololá	701	Sololá	1	Sololá	4	Abril	2023-04-04T00:00:00	2024-11-08T06:00:00	6	Velocidad del viento	1.6
15838	7	Sololá	701	Sololá	1	Sololá	4	Abril	2023-04-04T00:00:00	2024-11-08T06:00:00	7	Dirección del viento	1.61
15839	7	Sololá	701	Sololá	1	Sololá	4	Abril	2023-04-04T00:00:00	2024-11-08T06:00:00	1	Precipitación	0
15840	7	Sololá	701	Sololá	1	Sololá	4	Abril	2023-04-04T00:00:00	2024-11-08T06:00:00	8	Radiación solar	0
15841	7	Sololá	701	Sololá	1	Sololá	4	Abril	2023-04-04T00:00:00	2024-11-08T07:00:00	2	Temperatura media	10.3
15842	7	Sololá	701	Sololá	1	Sololá	4	Abril	2023-04-04T00:00:00	2024-11-08T07:00:00	4	Temperatura máxima	10.6
15843	7	Sololá	701	Sololá	1	Sololá	4	Abril	2023-04-04T00:00:00	2024-11-08T07:00:00	3	Temperatura mínima	10.3
15844	7	Sololá	701	Sololá	1	Sololá	4	Abril	2023-04-04T00:00:00	2024-11-08T07:00:00	5	Humedad	67
15845	7	Sololá	701	Sololá	1	Sololá	4	Abril	2023-04-04T00:00:00	2024-11-08T07:00:00	6	Velocidad del viento	3.2
15846	7	Sololá	701	Sololá	1	Sololá	4	Abril	2023-04-04T00:00:00	2024-11-08T07:00:00	7	Dirección del viento	3.22
15847	7	Sololá	701	Sololá	1	Sololá	4	Abril	2023-04-04T00:00:00	2024-11-08T07:00:00	1	Precipitación	0
15848	7	Sololá	701	Sololá	1	Sololá	4	Abril	2023-04-04T00:00:00	2024-11-08T07:00:00	8	Radiación solar	19
15849	7	Sololá	701	Sololá	1	Sololá	4	Abril	2023-04-04T00:00:00	2024-11-08T08:00:00	2	Temperatura media	10.9
15850	7	Sololá	701	Sololá	1	Sololá	4	Abril	2023-04-04T00:00:00	2024-11-08T08:00:00	4	Temperatura máxima	11
15851	7	Sololá	701	Sololá	1	Sololá	4	Abril	2023-04-04T00:00:00	2024-11-08T08:00:00	3	Temperatura mínima	10.3
15852	7	Sololá	701	Sololá	1	Sololá	4	Abril	2023-04-04T00:00:00	2024-11-08T08:00:00	5	Humedad	71
15853	7	Sololá	701	Sololá	1	Sololá	4	Abril	2023-04-04T00:00:00	2024-11-08T08:00:00	6	Velocidad del viento	1.6
15854	7	Sololá	701	Sololá	1	Sololá	4	Abril	2023-04-04T00:00:00	2024-11-08T08:00:00	7	Dirección del viento	1.61
15855	7	Sololá	701	Sololá	1	Sololá	4	Abril	2023-04-04T00:00:00	2024-11-08T08:00:00	1	Precipitación	0
15856	7	Sololá	701	Sololá	1	Sololá	4	Abril	2023-04-04T00:00:00	2024-11-08T08:00:00	8	Radiación solar	98
15857	7	Sololá	701	Sololá	1	Sololá	4	Abril	2023-04-04T00:00:00	2024-11-08T09:00:00	2	Temperatura media	13.9
15858	7	Sololá	701	Sololá	1	Sololá	4	Abril	2023-04-04T00:00:00	2024-11-08T09:00:00	4	Temperatura máxima	13.9
15859	7	Sololá	701	Sololá	1	Sololá	4	Abril	2023-04-04T00:00:00	2024-11-08T09:00:00	3	Temperatura mínima	10.9
15860	7	Sololá	701	Sololá	1	Sololá	4	Abril	2023-04-04T00:00:00	2024-11-08T09:00:00	5	Humedad	82
15861	7	Sololá	701	Sololá	1	Sololá	4	Abril	2023-04-04T00:00:00	2024-11-08T09:00:00	6	Velocidad del viento	0
15862	7	Sololá	701	Sololá	1	Sololá	4	Abril	2023-04-04T00:00:00	2024-11-08T09:00:00	7	Dirección del viento	0
15863	7	Sololá	701	Sololá	1	Sololá	4	Abril	2023-04-04T00:00:00	2024-11-08T09:00:00	1	Precipitación	0
15864	7	Sololá	701	Sololá	1	Sololá	4	Abril	2023-04-04T00:00:00	2024-11-08T09:00:00	8	Radiación solar	381
15865	7	Sololá	701	Sololá	1	Sololá	4	Abril	2023-04-04T00:00:00	2024-11-08T10:00:00	2	Temperatura media	16.6
15866	7	Sololá	701	Sololá	1	Sololá	4	Abril	2023-04-04T00:00:00	2024-11-08T10:00:00	4	Temperatura máxima	16.6
15867	7	Sololá	701	Sololá	1	Sololá	4	Abril	2023-04-04T00:00:00	2024-11-08T10:00:00	3	Temperatura mínima	13.9
15868	7	Sololá	701	Sololá	1	Sololá	4	Abril	2023-04-04T00:00:00	2024-11-08T10:00:00	5	Humedad	75
15869	7	Sololá	701	Sololá	1	Sololá	4	Abril	2023-04-04T00:00:00	2024-11-08T10:00:00	6	Velocidad del viento	0
15870	7	Sololá	701	Sololá	1	Sololá	4	Abril	2023-04-04T00:00:00	2024-11-08T10:00:00	7	Dirección del viento	0
15871	7	Sololá	701	Sololá	1	Sololá	4	Abril	2023-04-04T00:00:00	2024-11-08T10:00:00	1	Precipitación	0
15872	7	Sololá	701	Sololá	1	Sololá	4	Abril	2023-04-04T00:00:00	2024-11-08T10:00:00	8	Radiación solar	788
15873	7	Sololá	701	Sololá	1	Sololá	4	Abril	2023-04-04T00:00:00	2024-11-08T11:00:00	2	Temperatura media	19.1
15874	7	Sololá	701	Sololá	1	Sololá	4	Abril	2023-04-04T00:00:00	2024-11-08T11:00:00	4	Temperatura máxima	19.3
15875	7	Sololá	701	Sololá	1	Sololá	4	Abril	2023-04-04T00:00:00	2024-11-08T11:00:00	3	Temperatura mínima	16.6
15876	7	Sololá	701	Sololá	1	Sololá	4	Abril	2023-04-04T00:00:00	2024-11-08T11:00:00	5	Humedad	67
15877	7	Sololá	701	Sololá	1	Sololá	4	Abril	2023-04-04T00:00:00	2024-11-08T11:00:00	6	Velocidad del viento	0
15878	7	Sololá	701	Sololá	1	Sololá	4	Abril	2023-04-04T00:00:00	2024-11-08T11:00:00	7	Dirección del viento	0
15879	7	Sololá	701	Sololá	1	Sololá	4	Abril	2023-04-04T00:00:00	2024-11-08T11:00:00	1	Precipitación	0
15880	7	Sololá	701	Sololá	1	Sololá	4	Abril	2023-04-04T00:00:00	2024-11-08T11:00:00	8	Radiación solar	914
15881	7	Sololá	701	Sololá	1	Sololá	4	Abril	2023-04-04T00:00:00	2024-11-08T12:00:00	2	Temperatura media	20.3
15882	7	Sololá	701	Sololá	1	Sololá	4	Abril	2023-04-04T00:00:00	2024-11-08T12:00:00	4	Temperatura máxima	20.3
15883	7	Sololá	701	Sololá	1	Sololá	4	Abril	2023-04-04T00:00:00	2024-11-08T12:00:00	3	Temperatura mínima	19.1
15884	7	Sololá	701	Sololá	1	Sololá	4	Abril	2023-04-04T00:00:00	2024-11-08T12:00:00	5	Humedad	64
15885	7	Sololá	701	Sololá	1	Sololá	4	Abril	2023-04-04T00:00:00	2024-11-08T12:00:00	6	Velocidad del viento	0
15886	7	Sololá	701	Sololá	1	Sololá	4	Abril	2023-04-04T00:00:00	2024-11-08T12:00:00	7	Dirección del viento	0
15887	7	Sololá	701	Sololá	1	Sololá	4	Abril	2023-04-04T00:00:00	2024-11-08T12:00:00	1	Precipitación	0
15888	7	Sololá	701	Sololá	1	Sololá	4	Abril	2023-04-04T00:00:00	2024-11-08T12:00:00	8	Radiación solar	964
15889	7	Sololá	701	Sololá	1	Sololá	4	Abril	2023-04-04T00:00:00	2024-11-08T13:00:00	2	Temperatura media	21.2
15890	7	Sololá	701	Sololá	1	Sololá	4	Abril	2023-04-04T00:00:00	2024-11-08T13:00:00	4	Temperatura máxima	21.2
15891	7	Sololá	701	Sololá	1	Sololá	4	Abril	2023-04-04T00:00:00	2024-11-08T13:00:00	3	Temperatura mínima	20.3
15892	7	Sololá	701	Sololá	1	Sololá	4	Abril	2023-04-04T00:00:00	2024-11-08T13:00:00	5	Humedad	62
15893	7	Sololá	701	Sololá	1	Sololá	4	Abril	2023-04-04T00:00:00	2024-11-08T13:00:00	6	Velocidad del viento	0
15894	7	Sololá	701	Sololá	1	Sololá	4	Abril	2023-04-04T00:00:00	2024-11-08T13:00:00	7	Dirección del viento	0
15895	7	Sololá	701	Sololá	1	Sololá	4	Abril	2023-04-04T00:00:00	2024-11-08T13:00:00	1	Precipitación	0
15896	7	Sololá	701	Sololá	1	Sololá	4	Abril	2023-04-04T00:00:00	2024-11-08T13:00:00	8	Radiación solar	946
15897	7	Sololá	701	Sololá	1	Sololá	4	Abril	2023-04-04T00:00:00	2024-11-08T14:00:00	2	Temperatura media	21.7
15898	7	Sololá	701	Sololá	1	Sololá	4	Abril	2023-04-04T00:00:00	2024-11-08T14:00:00	4	Temperatura máxima	21.8
15899	7	Sololá	701	Sololá	1	Sololá	4	Abril	2023-04-04T00:00:00	2024-11-08T14:00:00	3	Temperatura mínima	21
15900	7	Sololá	701	Sololá	1	Sololá	4	Abril	2023-04-04T00:00:00	2024-11-08T14:00:00	5	Humedad	64
15901	7	Sololá	701	Sololá	1	Sololá	4	Abril	2023-04-04T00:00:00	2024-11-08T14:00:00	6	Velocidad del viento	0
15902	7	Sololá	701	Sololá	1	Sololá	4	Abril	2023-04-04T00:00:00	2024-11-08T14:00:00	7	Dirección del viento	0
15903	7	Sololá	701	Sololá	1	Sololá	4	Abril	2023-04-04T00:00:00	2024-11-08T14:00:00	1	Precipitación	0
15904	7	Sololá	701	Sololá	1	Sololá	4	Abril	2023-04-04T00:00:00	2024-11-08T14:00:00	8	Radiación solar	401
15905	7	Sololá	701	Sololá	1	Sololá	4	Abril	2023-04-04T00:00:00	2024-11-08T15:00:00	2	Temperatura media	21.2
15906	7	Sololá	701	Sololá	1	Sololá	4	Abril	2023-04-04T00:00:00	2024-11-08T15:00:00	4	Temperatura máxima	21.8
15907	7	Sololá	701	Sololá	1	Sololá	4	Abril	2023-04-04T00:00:00	2024-11-08T15:00:00	3	Temperatura mínima	21.2
15908	7	Sololá	701	Sololá	1	Sololá	4	Abril	2023-04-04T00:00:00	2024-11-08T15:00:00	5	Humedad	70
15909	7	Sololá	701	Sololá	1	Sololá	4	Abril	2023-04-04T00:00:00	2024-11-08T15:00:00	6	Velocidad del viento	1.6
15910	7	Sololá	701	Sololá	1	Sololá	4	Abril	2023-04-04T00:00:00	2024-11-08T15:00:00	7	Dirección del viento	1.61
15911	7	Sololá	701	Sololá	1	Sololá	4	Abril	2023-04-04T00:00:00	2024-11-08T15:00:00	1	Precipitación	0
15912	7	Sololá	701	Sololá	1	Sololá	4	Abril	2023-04-04T00:00:00	2024-11-08T15:00:00	8	Radiación solar	244
15913	7	Sololá	701	Sololá	1	Sololá	4	Abril	2023-04-04T00:00:00	2024-11-08T16:00:00	2	Temperatura media	20.4
15914	7	Sololá	701	Sololá	1	Sololá	4	Abril	2023-04-04T00:00:00	2024-11-08T16:00:00	4	Temperatura máxima	21.4
15915	7	Sololá	701	Sololá	1	Sololá	4	Abril	2023-04-04T00:00:00	2024-11-08T16:00:00	3	Temperatura mínima	20.4
15916	7	Sololá	701	Sololá	1	Sololá	4	Abril	2023-04-04T00:00:00	2024-11-08T16:00:00	5	Humedad	74
15917	7	Sololá	701	Sololá	1	Sololá	4	Abril	2023-04-04T00:00:00	2024-11-08T16:00:00	6	Velocidad del viento	0
15918	7	Sololá	701	Sololá	1	Sololá	4	Abril	2023-04-04T00:00:00	2024-11-08T16:00:00	7	Dirección del viento	0
15919	7	Sololá	701	Sololá	1	Sololá	4	Abril	2023-04-04T00:00:00	2024-11-08T16:00:00	1	Precipitación	0
15920	7	Sololá	701	Sololá	1	Sololá	4	Abril	2023-04-04T00:00:00	2024-11-08T16:00:00	8	Radiación solar	163
15921	7	Sololá	701	Sololá	1	Sololá	4	Abril	2023-04-04T00:00:00	2024-11-08T17:00:00	2	Temperatura media	18.9
15922	7	Sololá	701	Sololá	1	Sololá	4	Abril	2023-04-04T00:00:00	2024-11-08T17:00:00	4	Temperatura máxima	20.4
15923	7	Sololá	701	Sololá	1	Sololá	4	Abril	2023-04-04T00:00:00	2024-11-08T17:00:00	3	Temperatura mínima	18.9
15924	7	Sololá	701	Sololá	1	Sololá	4	Abril	2023-04-04T00:00:00	2024-11-08T17:00:00	5	Humedad	79
15925	7	Sololá	701	Sololá	1	Sololá	4	Abril	2023-04-04T00:00:00	2024-11-08T17:00:00	6	Velocidad del viento	0
15926	7	Sololá	701	Sololá	1	Sololá	4	Abril	2023-04-04T00:00:00	2024-11-08T17:00:00	7	Dirección del viento	0
15927	7	Sololá	701	Sololá	1	Sololá	4	Abril	2023-04-04T00:00:00	2024-11-08T17:00:00	1	Precipitación	0
15928	7	Sololá	701	Sololá	1	Sololá	4	Abril	2023-04-04T00:00:00	2024-11-08T17:00:00	8	Radiación solar	96
15929	7	Sololá	701	Sololá	1	Sololá	4	Abril	2023-04-04T00:00:00	2024-11-08T18:00:00	2	Temperatura media	17.8
15930	7	Sololá	701	Sololá	1	Sololá	4	Abril	2023-04-04T00:00:00	2024-11-08T18:00:00	4	Temperatura máxima	18.9
15931	7	Sololá	701	Sololá	1	Sololá	4	Abril	2023-04-04T00:00:00	2024-11-08T18:00:00	3	Temperatura mínima	17.8
15932	7	Sololá	701	Sololá	1	Sololá	4	Abril	2023-04-04T00:00:00	2024-11-08T18:00:00	5	Humedad	83
15933	7	Sololá	701	Sololá	1	Sololá	4	Abril	2023-04-04T00:00:00	2024-11-08T18:00:00	6	Velocidad del viento	0
15934	7	Sololá	701	Sololá	1	Sololá	4	Abril	2023-04-04T00:00:00	2024-11-08T18:00:00	7	Dirección del viento	0
15935	7	Sololá	701	Sololá	1	Sololá	4	Abril	2023-04-04T00:00:00	2024-11-08T18:00:00	1	Precipitación	0
15936	7	Sololá	701	Sololá	1	Sololá	4	Abril	2023-04-04T00:00:00	2024-11-08T18:00:00	8	Radiación solar	28
15937	7	Sololá	701	Sololá	1	Sololá	4	Abril	2023-04-04T00:00:00	2024-11-08T19:00:00	2	Temperatura media	17.1
15938	7	Sololá	701	Sololá	1	Sololá	4	Abril	2023-04-04T00:00:00	2024-11-08T19:00:00	4	Temperatura máxima	17.8
15939	7	Sololá	701	Sololá	1	Sololá	4	Abril	2023-04-04T00:00:00	2024-11-08T19:00:00	3	Temperatura mínima	17.1
15940	7	Sololá	701	Sololá	1	Sololá	4	Abril	2023-04-04T00:00:00	2024-11-08T19:00:00	5	Humedad	85
15941	7	Sololá	701	Sololá	1	Sololá	4	Abril	2023-04-04T00:00:00	2024-11-08T19:00:00	6	Velocidad del viento	0
15942	7	Sololá	701	Sololá	1	Sololá	4	Abril	2023-04-04T00:00:00	2024-11-08T19:00:00	7	Dirección del viento	0
15943	7	Sololá	701	Sololá	1	Sololá	4	Abril	2023-04-04T00:00:00	2024-11-08T19:00:00	1	Precipitación	0
15944	7	Sololá	701	Sololá	1	Sololá	4	Abril	2023-04-04T00:00:00	2024-11-08T19:00:00	8	Radiación solar	0
15945	7	Sololá	701	Sololá	1	Sololá	4	Abril	2023-04-04T00:00:00	2024-11-08T20:00:00	2	Temperatura media	16.3
15946	7	Sololá	701	Sololá	1	Sololá	4	Abril	2023-04-04T00:00:00	2024-11-08T20:00:00	4	Temperatura máxima	17.1
15947	7	Sololá	701	Sololá	1	Sololá	4	Abril	2023-04-04T00:00:00	2024-11-08T20:00:00	3	Temperatura mínima	16.3
15948	7	Sololá	701	Sololá	1	Sololá	4	Abril	2023-04-04T00:00:00	2024-11-08T20:00:00	5	Humedad	89
15949	7	Sololá	701	Sololá	1	Sololá	4	Abril	2023-04-04T00:00:00	2024-11-08T20:00:00	6	Velocidad del viento	0
15950	7	Sololá	701	Sololá	1	Sololá	4	Abril	2023-04-04T00:00:00	2024-11-08T20:00:00	7	Dirección del viento	0
15951	7	Sololá	701	Sololá	1	Sololá	4	Abril	2023-04-04T00:00:00	2024-11-08T20:00:00	1	Precipitación	0
15952	7	Sololá	701	Sololá	1	Sololá	4	Abril	2023-04-04T00:00:00	2024-11-08T20:00:00	8	Radiación solar	0
15953	7	Sololá	701	Sololá	1	Sololá	4	Abril	2023-04-04T00:00:00	2024-11-08T21:00:00	2	Temperatura media	15.9
15954	7	Sololá	701	Sololá	1	Sololá	4	Abril	2023-04-04T00:00:00	2024-11-08T21:00:00	4	Temperatura máxima	16.3
15955	7	Sololá	701	Sololá	1	Sololá	4	Abril	2023-04-04T00:00:00	2024-11-08T21:00:00	3	Temperatura mínima	15.8
15956	7	Sololá	701	Sololá	1	Sololá	4	Abril	2023-04-04T00:00:00	2024-11-08T21:00:00	5	Humedad	91
15957	7	Sololá	701	Sololá	1	Sololá	4	Abril	2023-04-04T00:00:00	2024-11-08T21:00:00	6	Velocidad del viento	0
15958	7	Sololá	701	Sololá	1	Sololá	4	Abril	2023-04-04T00:00:00	2024-11-08T21:00:00	7	Dirección del viento	0
15959	7	Sololá	701	Sololá	1	Sololá	4	Abril	2023-04-04T00:00:00	2024-11-08T21:00:00	1	Precipitación	0
15960	7	Sololá	701	Sololá	1	Sololá	4	Abril	2023-04-04T00:00:00	2024-11-08T21:00:00	8	Radiación solar	0
15961	7	Sololá	701	Sololá	1	Sololá	4	Abril	2023-04-04T00:00:00	2024-11-08T22:00:00	2	Temperatura media	14.6
15962	7	Sololá	701	Sololá	1	Sololá	4	Abril	2023-04-04T00:00:00	2024-11-08T22:00:00	4	Temperatura máxima	15.9
15963	7	Sololá	701	Sololá	1	Sololá	4	Abril	2023-04-04T00:00:00	2024-11-08T22:00:00	3	Temperatura mínima	14.6
15964	7	Sololá	701	Sololá	1	Sololá	4	Abril	2023-04-04T00:00:00	2024-11-08T22:00:00	5	Humedad	90
15965	7	Sololá	701	Sololá	1	Sololá	4	Abril	2023-04-04T00:00:00	2024-11-08T22:00:00	6	Velocidad del viento	0
15966	7	Sololá	701	Sololá	1	Sololá	4	Abril	2023-04-04T00:00:00	2024-11-08T22:00:00	7	Dirección del viento	0
15967	7	Sololá	701	Sololá	1	Sololá	4	Abril	2023-04-04T00:00:00	2024-11-08T22:00:00	1	Precipitación	0
15968	7	Sololá	701	Sololá	1	Sololá	4	Abril	2023-04-04T00:00:00	2024-11-08T22:00:00	8	Radiación solar	0
15969	7	Sololá	701	Sololá	1	Sololá	4	Abril	2023-04-04T00:00:00	2024-11-08T23:00:00	2	Temperatura media	14
15970	7	Sololá	701	Sololá	1	Sololá	4	Abril	2023-04-04T00:00:00	2024-11-08T23:00:00	4	Temperatura máxima	14.6
15971	7	Sololá	701	Sololá	1	Sololá	4	Abril	2023-04-04T00:00:00	2024-11-08T23:00:00	3	Temperatura mínima	14
15972	7	Sololá	701	Sololá	1	Sololá	4	Abril	2023-04-04T00:00:00	2024-11-08T23:00:00	5	Humedad	89
15973	7	Sololá	701	Sololá	1	Sololá	4	Abril	2023-04-04T00:00:00	2024-11-08T23:00:00	6	Velocidad del viento	0
15974	7	Sololá	701	Sololá	1	Sololá	4	Abril	2023-04-04T00:00:00	2024-11-08T23:00:00	7	Dirección del viento	0
15975	7	Sololá	701	Sololá	1	Sololá	4	Abril	2023-04-04T00:00:00	2024-11-08T23:00:00	1	Precipitación	0
15976	7	Sololá	701	Sololá	1	Sololá	4	Abril	2023-04-04T00:00:00	2024-11-08T23:00:00	8	Radiación solar	0
15977	7	Sololá	701	Sololá	1	Sololá	4	Abril	2023-05-04T00:00:00	2024-11-08T00:00:00	2	Temperatura media	13.5
15978	7	Sololá	701	Sololá	1	Sololá	4	Abril	2023-05-04T00:00:00	2024-11-08T00:00:00	4	Temperatura máxima	14.1
15979	7	Sololá	701	Sololá	1	Sololá	4	Abril	2023-05-04T00:00:00	2024-11-08T00:00:00	3	Temperatura mínima	13.5
15980	7	Sololá	701	Sololá	1	Sololá	4	Abril	2023-05-04T00:00:00	2024-11-08T00:00:00	5	Humedad	86
15981	7	Sololá	701	Sololá	1	Sololá	4	Abril	2023-05-04T00:00:00	2024-11-08T00:00:00	6	Velocidad del viento	0
15982	7	Sololá	701	Sololá	1	Sololá	4	Abril	2023-05-04T00:00:00	2024-11-08T00:00:00	7	Dirección del viento	0
15983	7	Sololá	701	Sololá	1	Sololá	4	Abril	2023-05-04T00:00:00	2024-11-08T00:00:00	1	Precipitación	0
15984	7	Sololá	701	Sololá	1	Sololá	4	Abril	2023-05-04T00:00:00	2024-11-08T00:00:00	8	Radiación solar	0
15985	7	Sololá	701	Sololá	1	Sololá	4	Abril	2023-05-04T00:00:00	2024-11-08T01:00:00	2	Temperatura media	13.3
15986	7	Sololá	701	Sololá	1	Sololá	4	Abril	2023-05-04T00:00:00	2024-11-08T01:00:00	4	Temperatura máxima	13.6
15987	7	Sololá	701	Sololá	1	Sololá	4	Abril	2023-05-04T00:00:00	2024-11-08T01:00:00	3	Temperatura mínima	13.3
15988	7	Sololá	701	Sololá	1	Sololá	4	Abril	2023-05-04T00:00:00	2024-11-08T01:00:00	5	Humedad	85
15989	7	Sololá	701	Sololá	1	Sololá	4	Abril	2023-05-04T00:00:00	2024-11-08T01:00:00	6	Velocidad del viento	1.6
15990	7	Sololá	701	Sololá	1	Sololá	4	Abril	2023-05-04T00:00:00	2024-11-08T01:00:00	7	Dirección del viento	1.61
15991	7	Sololá	701	Sololá	1	Sololá	4	Abril	2023-05-04T00:00:00	2024-11-08T01:00:00	1	Precipitación	0
15992	7	Sololá	701	Sololá	1	Sololá	4	Abril	2023-05-04T00:00:00	2024-11-08T01:00:00	8	Radiación solar	0
15993	7	Sololá	701	Sololá	1	Sololá	4	Abril	2023-05-04T00:00:00	2024-11-08T02:00:00	2	Temperatura media	13.2
15994	7	Sololá	701	Sololá	1	Sololá	4	Abril	2023-05-04T00:00:00	2024-11-08T02:00:00	4	Temperatura máxima	13.3
15995	7	Sololá	701	Sololá	1	Sololá	4	Abril	2023-05-04T00:00:00	2024-11-08T02:00:00	3	Temperatura mínima	13.1
15996	7	Sololá	701	Sololá	1	Sololá	4	Abril	2023-05-04T00:00:00	2024-11-08T02:00:00	5	Humedad	83
15997	7	Sololá	701	Sololá	1	Sololá	4	Abril	2023-05-04T00:00:00	2024-11-08T02:00:00	6	Velocidad del viento	1.6
15998	7	Sololá	701	Sololá	1	Sololá	4	Abril	2023-05-04T00:00:00	2024-11-08T02:00:00	7	Dirección del viento	1.61
15999	7	Sololá	701	Sololá	1	Sololá	4	Abril	2023-05-04T00:00:00	2024-11-08T02:00:00	1	Precipitación	0
16000	7	Sololá	701	Sololá	1	Sololá	4	Abril	2023-05-04T00:00:00	2024-11-08T02:00:00	8	Radiación solar	0
16001	7	Sololá	701	Sololá	1	Sololá	4	Abril	2023-05-04T00:00:00	2024-11-08T03:00:00	2	Temperatura media	12.7
16002	7	Sololá	701	Sololá	1	Sololá	4	Abril	2023-05-04T00:00:00	2024-11-08T03:00:00	4	Temperatura máxima	13.2
16003	7	Sololá	701	Sololá	1	Sololá	4	Abril	2023-05-04T00:00:00	2024-11-08T03:00:00	3	Temperatura mínima	12.7
16004	7	Sololá	701	Sololá	1	Sololá	4	Abril	2023-05-04T00:00:00	2024-11-08T03:00:00	5	Humedad	84
16005	7	Sololá	701	Sololá	1	Sololá	4	Abril	2023-05-04T00:00:00	2024-11-08T03:00:00	6	Velocidad del viento	0
16006	7	Sololá	701	Sololá	1	Sololá	4	Abril	2023-05-04T00:00:00	2024-11-08T03:00:00	7	Dirección del viento	0
16007	7	Sololá	701	Sololá	1	Sololá	4	Abril	2023-05-04T00:00:00	2024-11-08T03:00:00	1	Precipitación	0
16008	7	Sololá	701	Sololá	1	Sololá	4	Abril	2023-05-04T00:00:00	2024-11-08T03:00:00	8	Radiación solar	0
16009	7	Sololá	701	Sololá	1	Sololá	4	Abril	2023-05-04T00:00:00	2024-11-08T04:00:00	2	Temperatura media	12.4
16010	7	Sololá	701	Sololá	1	Sololá	4	Abril	2023-05-04T00:00:00	2024-11-08T04:00:00	4	Temperatura máxima	12.8
16011	7	Sololá	701	Sololá	1	Sololá	4	Abril	2023-05-04T00:00:00	2024-11-08T04:00:00	3	Temperatura mínima	12.3
16012	7	Sololá	701	Sololá	1	Sololá	4	Abril	2023-05-04T00:00:00	2024-11-08T04:00:00	5	Humedad	81
16013	7	Sololá	701	Sololá	1	Sololá	4	Abril	2023-05-04T00:00:00	2024-11-08T04:00:00	6	Velocidad del viento	1.6
16014	7	Sololá	701	Sololá	1	Sololá	4	Abril	2023-05-04T00:00:00	2024-11-08T04:00:00	7	Dirección del viento	1.61
16015	7	Sololá	701	Sololá	1	Sololá	4	Abril	2023-05-04T00:00:00	2024-11-08T04:00:00	1	Precipitación	0
16016	7	Sololá	701	Sololá	1	Sololá	4	Abril	2023-05-04T00:00:00	2024-11-08T04:00:00	8	Radiación solar	0
16017	7	Sololá	701	Sololá	1	Sololá	4	Abril	2023-05-04T00:00:00	2024-11-08T05:00:00	2	Temperatura media	12.3
16018	7	Sololá	701	Sololá	1	Sololá	4	Abril	2023-05-04T00:00:00	2024-11-08T05:00:00	4	Temperatura máxima	12.4
16019	7	Sololá	701	Sololá	1	Sololá	4	Abril	2023-05-04T00:00:00	2024-11-08T05:00:00	3	Temperatura mínima	11.9
16020	7	Sololá	701	Sololá	1	Sololá	4	Abril	2023-05-04T00:00:00	2024-11-08T05:00:00	5	Humedad	73
16021	7	Sololá	701	Sololá	1	Sololá	4	Abril	2023-05-04T00:00:00	2024-11-08T05:00:00	6	Velocidad del viento	1.6
16022	7	Sololá	701	Sololá	1	Sololá	4	Abril	2023-05-04T00:00:00	2024-11-08T05:00:00	7	Dirección del viento	1.61
16023	7	Sololá	701	Sololá	1	Sololá	4	Abril	2023-05-04T00:00:00	2024-11-08T05:00:00	1	Precipitación	0
16024	7	Sololá	701	Sololá	1	Sololá	4	Abril	2023-05-04T00:00:00	2024-11-08T05:00:00	8	Radiación solar	0
16025	7	Sololá	701	Sololá	1	Sololá	4	Abril	2023-05-04T00:00:00	2024-11-08T06:00:00	2	Temperatura media	11.3
16026	7	Sololá	701	Sololá	1	Sololá	4	Abril	2023-05-04T00:00:00	2024-11-08T06:00:00	4	Temperatura máxima	12.3
16027	7	Sololá	701	Sololá	1	Sololá	4	Abril	2023-05-04T00:00:00	2024-11-08T06:00:00	3	Temperatura mínima	11.3
16028	7	Sololá	701	Sololá	1	Sololá	4	Abril	2023-05-04T00:00:00	2024-11-08T06:00:00	5	Humedad	66
16029	7	Sololá	701	Sololá	1	Sololá	4	Abril	2023-05-04T00:00:00	2024-11-08T06:00:00	6	Velocidad del viento	1.6
16030	7	Sololá	701	Sololá	1	Sololá	4	Abril	2023-05-04T00:00:00	2024-11-08T06:00:00	7	Dirección del viento	1.61
16031	7	Sololá	701	Sololá	1	Sololá	4	Abril	2023-05-04T00:00:00	2024-11-08T06:00:00	1	Precipitación	0
16032	7	Sololá	701	Sololá	1	Sololá	4	Abril	2023-05-04T00:00:00	2024-11-08T06:00:00	8	Radiación solar	0
16033	7	Sololá	701	Sololá	1	Sololá	4	Abril	2023-05-04T00:00:00	2024-11-08T07:00:00	2	Temperatura media	10.9
16034	7	Sololá	701	Sololá	1	Sololá	4	Abril	2023-05-04T00:00:00	2024-11-08T07:00:00	4	Temperatura máxima	11.3
16035	7	Sololá	701	Sololá	1	Sololá	4	Abril	2023-05-04T00:00:00	2024-11-08T07:00:00	3	Temperatura mínima	10.9
16036	7	Sololá	701	Sololá	1	Sololá	4	Abril	2023-05-04T00:00:00	2024-11-08T07:00:00	5	Humedad	64
16037	7	Sololá	701	Sololá	1	Sololá	4	Abril	2023-05-04T00:00:00	2024-11-08T07:00:00	6	Velocidad del viento	3.2
16038	7	Sololá	701	Sololá	1	Sololá	4	Abril	2023-05-04T00:00:00	2024-11-08T07:00:00	7	Dirección del viento	3.22
16039	7	Sololá	701	Sololá	1	Sololá	4	Abril	2023-05-04T00:00:00	2024-11-08T07:00:00	1	Precipitación	0
16040	7	Sololá	701	Sololá	1	Sololá	4	Abril	2023-05-04T00:00:00	2024-11-08T07:00:00	8	Radiación solar	15
16041	7	Sololá	701	Sololá	1	Sololá	4	Abril	2023-05-04T00:00:00	2024-11-08T08:00:00	2	Temperatura media	12.1
16042	7	Sololá	701	Sololá	1	Sololá	4	Abril	2023-05-04T00:00:00	2024-11-08T08:00:00	4	Temperatura máxima	12.1
16043	7	Sololá	701	Sololá	1	Sololá	4	Abril	2023-05-04T00:00:00	2024-11-08T08:00:00	3	Temperatura mínima	10.8
16044	7	Sololá	701	Sololá	1	Sololá	4	Abril	2023-05-04T00:00:00	2024-11-08T08:00:00	5	Humedad	64
16045	7	Sololá	701	Sololá	1	Sololá	4	Abril	2023-05-04T00:00:00	2024-11-08T08:00:00	6	Velocidad del viento	1.6
16046	7	Sololá	701	Sololá	1	Sololá	4	Abril	2023-05-04T00:00:00	2024-11-08T08:00:00	7	Dirección del viento	1.61
16047	7	Sololá	701	Sololá	1	Sololá	4	Abril	2023-05-04T00:00:00	2024-11-08T08:00:00	1	Precipitación	0
16048	7	Sololá	701	Sololá	1	Sololá	4	Abril	2023-05-04T00:00:00	2024-11-08T08:00:00	8	Radiación solar	260
16049	7	Sololá	701	Sololá	1	Sololá	4	Abril	2023-05-04T00:00:00	2024-11-08T09:00:00	2	Temperatura media	17.6
16050	7	Sololá	701	Sololá	1	Sololá	4	Abril	2023-05-04T00:00:00	2024-11-08T09:00:00	4	Temperatura máxima	17.6
16051	7	Sololá	701	Sololá	1	Sololá	4	Abril	2023-05-04T00:00:00	2024-11-08T09:00:00	3	Temperatura mínima	12.1
16052	7	Sololá	701	Sololá	1	Sololá	4	Abril	2023-05-04T00:00:00	2024-11-08T09:00:00	5	Humedad	68
16053	7	Sololá	701	Sololá	1	Sololá	4	Abril	2023-05-04T00:00:00	2024-11-08T09:00:00	6	Velocidad del viento	0
16054	7	Sololá	701	Sololá	1	Sololá	4	Abril	2023-05-04T00:00:00	2024-11-08T09:00:00	7	Dirección del viento	0
16055	7	Sololá	701	Sololá	1	Sololá	4	Abril	2023-05-04T00:00:00	2024-11-08T09:00:00	1	Precipitación	0
16056	7	Sololá	701	Sololá	1	Sololá	4	Abril	2023-05-04T00:00:00	2024-11-08T09:00:00	8	Radiación solar	594
16057	7	Sololá	701	Sololá	1	Sololá	4	Abril	2023-05-04T00:00:00	2024-11-08T10:00:00	2	Temperatura media	19.7
16058	7	Sololá	701	Sololá	1	Sololá	4	Abril	2023-05-04T00:00:00	2024-11-08T10:00:00	4	Temperatura máxima	19.7
16059	7	Sololá	701	Sololá	1	Sololá	4	Abril	2023-05-04T00:00:00	2024-11-08T10:00:00	3	Temperatura mínima	17.6
16060	7	Sololá	701	Sololá	1	Sololá	4	Abril	2023-05-04T00:00:00	2024-11-08T10:00:00	5	Humedad	65
16061	7	Sololá	701	Sololá	1	Sololá	4	Abril	2023-05-04T00:00:00	2024-11-08T10:00:00	6	Velocidad del viento	0
16062	7	Sololá	701	Sololá	1	Sololá	4	Abril	2023-05-04T00:00:00	2024-11-08T10:00:00	7	Dirección del viento	0
16063	7	Sololá	701	Sololá	1	Sololá	4	Abril	2023-05-04T00:00:00	2024-11-08T10:00:00	1	Precipitación	0
16064	7	Sololá	701	Sololá	1	Sololá	4	Abril	2023-05-04T00:00:00	2024-11-08T10:00:00	8	Radiación solar	788
16065	7	Sololá	701	Sololá	1	Sololá	4	Abril	2023-05-04T00:00:00	2024-11-08T11:00:00	2	Temperatura media	20.8
16066	7	Sololá	701	Sololá	1	Sololá	4	Abril	2023-05-04T00:00:00	2024-11-08T11:00:00	4	Temperatura máxima	20.8
16067	7	Sololá	701	Sololá	1	Sololá	4	Abril	2023-05-04T00:00:00	2024-11-08T11:00:00	3	Temperatura mínima	19.4
16068	7	Sololá	701	Sololá	1	Sololá	4	Abril	2023-05-04T00:00:00	2024-11-08T11:00:00	5	Humedad	59
16069	7	Sololá	701	Sololá	1	Sololá	4	Abril	2023-05-04T00:00:00	2024-11-08T11:00:00	6	Velocidad del viento	0
16070	7	Sololá	701	Sololá	1	Sololá	4	Abril	2023-05-04T00:00:00	2024-11-08T11:00:00	7	Dirección del viento	0
16071	7	Sololá	701	Sololá	1	Sololá	4	Abril	2023-05-04T00:00:00	2024-11-08T11:00:00	1	Precipitación	0
16072	7	Sololá	701	Sololá	1	Sololá	4	Abril	2023-05-04T00:00:00	2024-11-08T11:00:00	8	Radiación solar	922
16073	7	Sololá	701	Sololá	1	Sololá	4	Abril	2023-05-04T00:00:00	2024-11-08T12:00:00	2	Temperatura media	22.1
16074	7	Sololá	701	Sololá	1	Sololá	4	Abril	2023-05-04T00:00:00	2024-11-08T12:00:00	4	Temperatura máxima	22.3
16075	7	Sololá	701	Sololá	1	Sololá	4	Abril	2023-05-04T00:00:00	2024-11-08T12:00:00	3	Temperatura mínima	20.8
16076	7	Sololá	701	Sololá	1	Sololá	4	Abril	2023-05-04T00:00:00	2024-11-08T12:00:00	5	Humedad	59
16077	7	Sololá	701	Sololá	1	Sololá	4	Abril	2023-05-04T00:00:00	2024-11-08T12:00:00	6	Velocidad del viento	0
16078	7	Sololá	701	Sololá	1	Sololá	4	Abril	2023-05-04T00:00:00	2024-11-08T12:00:00	7	Dirección del viento	0
16079	7	Sololá	701	Sololá	1	Sololá	4	Abril	2023-05-04T00:00:00	2024-11-08T12:00:00	1	Precipitación	0
16080	7	Sololá	701	Sololá	1	Sololá	4	Abril	2023-05-04T00:00:00	2024-11-08T12:00:00	8	Radiación solar	985
16081	7	Sololá	701	Sololá	1	Sololá	4	Abril	2023-05-04T00:00:00	2024-11-08T13:00:00	2	Temperatura media	22
16082	7	Sololá	701	Sololá	1	Sololá	4	Abril	2023-05-04T00:00:00	2024-11-08T13:00:00	4	Temperatura máxima	22.1
16083	7	Sololá	701	Sololá	1	Sololá	4	Abril	2023-05-04T00:00:00	2024-11-08T13:00:00	3	Temperatura mínima	21.7
16084	7	Sololá	701	Sololá	1	Sololá	4	Abril	2023-05-04T00:00:00	2024-11-08T13:00:00	5	Humedad	64
16085	7	Sololá	701	Sololá	1	Sololá	4	Abril	2023-05-04T00:00:00	2024-11-08T13:00:00	6	Velocidad del viento	1.6
16086	7	Sololá	701	Sololá	1	Sololá	4	Abril	2023-05-04T00:00:00	2024-11-08T13:00:00	7	Dirección del viento	1.61
16087	7	Sololá	701	Sololá	1	Sololá	4	Abril	2023-05-04T00:00:00	2024-11-08T13:00:00	1	Precipitación	0
16088	7	Sololá	701	Sololá	1	Sololá	4	Abril	2023-05-04T00:00:00	2024-11-08T13:00:00	8	Radiación solar	987
16089	7	Sololá	701	Sololá	1	Sololá	4	Abril	2023-05-04T00:00:00	2024-11-08T14:00:00	2	Temperatura media	22.6
16090	7	Sololá	701	Sololá	1	Sololá	4	Abril	2023-05-04T00:00:00	2024-11-08T14:00:00	4	Temperatura máxima	22.6
16091	7	Sololá	701	Sololá	1	Sololá	4	Abril	2023-05-04T00:00:00	2024-11-08T14:00:00	3	Temperatura mínima	21.9
16092	7	Sololá	701	Sololá	1	Sololá	4	Abril	2023-05-04T00:00:00	2024-11-08T14:00:00	5	Humedad	66
16093	7	Sololá	701	Sololá	1	Sololá	4	Abril	2023-05-04T00:00:00	2024-11-08T14:00:00	6	Velocidad del viento	1.6
16094	7	Sololá	701	Sololá	1	Sololá	4	Abril	2023-05-04T00:00:00	2024-11-08T14:00:00	7	Dirección del viento	1.61
16095	7	Sololá	701	Sololá	1	Sololá	4	Abril	2023-05-04T00:00:00	2024-11-08T14:00:00	1	Precipitación	0
16096	7	Sololá	701	Sololá	1	Sololá	4	Abril	2023-05-04T00:00:00	2024-11-08T14:00:00	8	Radiación solar	318
16097	7	Sololá	701	Sololá	1	Sololá	4	Abril	2023-05-04T00:00:00	2024-11-08T15:00:00	2	Temperatura media	21.7
16098	7	Sololá	701	Sololá	1	Sololá	4	Abril	2023-05-04T00:00:00	2024-11-08T15:00:00	4	Temperatura máxima	22.6
16099	7	Sololá	701	Sololá	1	Sololá	4	Abril	2023-05-04T00:00:00	2024-11-08T15:00:00	3	Temperatura mínima	21.7
16100	7	Sololá	701	Sololá	1	Sololá	4	Abril	2023-05-04T00:00:00	2024-11-08T15:00:00	5	Humedad	69
16101	7	Sololá	701	Sololá	1	Sololá	4	Abril	2023-05-04T00:00:00	2024-11-08T15:00:00	6	Velocidad del viento	1.6
16102	7	Sololá	701	Sololá	1	Sololá	4	Abril	2023-05-04T00:00:00	2024-11-08T15:00:00	7	Dirección del viento	1.61
16103	7	Sololá	701	Sololá	1	Sololá	4	Abril	2023-05-04T00:00:00	2024-11-08T15:00:00	1	Precipitación	0
16104	7	Sololá	701	Sololá	1	Sololá	4	Abril	2023-05-04T00:00:00	2024-11-08T15:00:00	8	Radiación solar	234
16105	7	Sololá	701	Sololá	1	Sololá	4	Abril	2023-05-04T00:00:00	2024-11-08T16:00:00	2	Temperatura media	22.1
16106	7	Sololá	701	Sololá	1	Sololá	4	Abril	2023-05-04T00:00:00	2024-11-08T16:00:00	4	Temperatura máxima	22.2
16107	7	Sololá	701	Sololá	1	Sololá	4	Abril	2023-05-04T00:00:00	2024-11-08T16:00:00	3	Temperatura mínima	21.6
16108	7	Sololá	701	Sololá	1	Sololá	4	Abril	2023-05-04T00:00:00	2024-11-08T16:00:00	5	Humedad	70
16109	7	Sololá	701	Sololá	1	Sololá	4	Abril	2023-05-04T00:00:00	2024-11-08T16:00:00	6	Velocidad del viento	1.6
16110	7	Sololá	701	Sololá	1	Sololá	4	Abril	2023-05-04T00:00:00	2024-11-08T16:00:00	7	Dirección del viento	1.61
16111	7	Sololá	701	Sololá	1	Sololá	4	Abril	2023-05-04T00:00:00	2024-11-08T16:00:00	1	Precipitación	0
16112	7	Sololá	701	Sololá	1	Sololá	4	Abril	2023-05-04T00:00:00	2024-11-08T16:00:00	8	Radiación solar	145
16113	7	Sololá	701	Sololá	1	Sololá	4	Abril	2023-05-04T00:00:00	2024-11-08T17:00:00	2	Temperatura media	19.6
16114	7	Sololá	701	Sololá	1	Sololá	4	Abril	2023-05-04T00:00:00	2024-11-08T17:00:00	4	Temperatura máxima	22.1
16115	7	Sololá	701	Sololá	1	Sololá	4	Abril	2023-05-04T00:00:00	2024-11-08T17:00:00	3	Temperatura mínima	19.6
16116	7	Sololá	701	Sololá	1	Sololá	4	Abril	2023-05-04T00:00:00	2024-11-08T17:00:00	5	Humedad	81
16117	7	Sololá	701	Sololá	1	Sololá	4	Abril	2023-05-04T00:00:00	2024-11-08T17:00:00	6	Velocidad del viento	0
16118	7	Sololá	701	Sololá	1	Sololá	4	Abril	2023-05-04T00:00:00	2024-11-08T17:00:00	7	Dirección del viento	0
16119	7	Sololá	701	Sololá	1	Sololá	4	Abril	2023-05-04T00:00:00	2024-11-08T17:00:00	1	Precipitación	0
16120	7	Sololá	701	Sololá	1	Sololá	4	Abril	2023-05-04T00:00:00	2024-11-08T17:00:00	8	Radiación solar	27
16121	7	Sololá	701	Sololá	1	Sololá	4	Abril	2023-05-04T00:00:00	2024-11-08T18:00:00	2	Temperatura media	18
16122	7	Sololá	701	Sololá	1	Sololá	4	Abril	2023-05-04T00:00:00	2024-11-08T18:00:00	4	Temperatura máxima	19.6
16123	7	Sololá	701	Sololá	1	Sololá	4	Abril	2023-05-04T00:00:00	2024-11-08T18:00:00	3	Temperatura mínima	18
16124	7	Sololá	701	Sololá	1	Sololá	4	Abril	2023-05-04T00:00:00	2024-11-08T18:00:00	5	Humedad	88
16125	7	Sololá	701	Sololá	1	Sololá	4	Abril	2023-05-04T00:00:00	2024-11-08T18:00:00	6	Velocidad del viento	0
16126	7	Sololá	701	Sololá	1	Sololá	4	Abril	2023-05-04T00:00:00	2024-11-08T18:00:00	7	Dirección del viento	0
16127	7	Sololá	701	Sololá	1	Sololá	4	Abril	2023-05-04T00:00:00	2024-11-08T18:00:00	1	Precipitación	0
16128	7	Sololá	701	Sololá	1	Sololá	4	Abril	2023-05-04T00:00:00	2024-11-08T18:00:00	8	Radiación solar	6
16129	7	Sololá	701	Sololá	1	Sololá	4	Abril	2023-05-04T00:00:00	2024-11-08T19:00:00	2	Temperatura media	17.3
16130	7	Sololá	701	Sololá	1	Sololá	4	Abril	2023-05-04T00:00:00	2024-11-08T19:00:00	4	Temperatura máxima	18
16131	7	Sololá	701	Sololá	1	Sololá	4	Abril	2023-05-04T00:00:00	2024-11-08T19:00:00	3	Temperatura mínima	17.3
16132	7	Sololá	701	Sololá	1	Sololá	4	Abril	2023-05-04T00:00:00	2024-11-08T19:00:00	5	Humedad	91
16133	7	Sololá	701	Sololá	1	Sololá	4	Abril	2023-05-04T00:00:00	2024-11-08T19:00:00	6	Velocidad del viento	0
16134	7	Sololá	701	Sololá	1	Sololá	4	Abril	2023-05-04T00:00:00	2024-11-08T19:00:00	7	Dirección del viento	0
16135	7	Sololá	701	Sololá	1	Sololá	4	Abril	2023-05-04T00:00:00	2024-11-08T19:00:00	1	Precipitación	0
16136	7	Sololá	701	Sololá	1	Sololá	4	Abril	2023-05-04T00:00:00	2024-11-08T19:00:00	8	Radiación solar	0
16137	7	Sololá	701	Sololá	1	Sololá	4	Abril	2023-05-04T00:00:00	2024-11-08T20:00:00	2	Temperatura media	17
16138	7	Sololá	701	Sololá	1	Sololá	4	Abril	2023-05-04T00:00:00	2024-11-08T20:00:00	4	Temperatura máxima	17.4
16139	7	Sololá	701	Sololá	1	Sololá	4	Abril	2023-05-04T00:00:00	2024-11-08T20:00:00	3	Temperatura mínima	17
16140	7	Sololá	701	Sololá	1	Sololá	4	Abril	2023-05-04T00:00:00	2024-11-08T20:00:00	5	Humedad	91
16141	7	Sololá	701	Sololá	1	Sololá	4	Abril	2023-05-04T00:00:00	2024-11-08T20:00:00	6	Velocidad del viento	0
16142	7	Sololá	701	Sololá	1	Sololá	4	Abril	2023-05-04T00:00:00	2024-11-08T20:00:00	7	Dirección del viento	0
16143	7	Sololá	701	Sololá	1	Sololá	4	Abril	2023-05-04T00:00:00	2024-11-08T20:00:00	1	Precipitación	0
16144	7	Sololá	701	Sololá	1	Sololá	4	Abril	2023-05-04T00:00:00	2024-11-08T20:00:00	8	Radiación solar	0
16145	7	Sololá	701	Sololá	1	Sololá	4	Abril	2023-05-04T00:00:00	2024-11-08T21:00:00	2	Temperatura media	17
16146	7	Sololá	701	Sololá	1	Sololá	4	Abril	2023-05-04T00:00:00	2024-11-08T21:00:00	4	Temperatura máxima	17.1
16147	7	Sololá	701	Sololá	1	Sololá	4	Abril	2023-05-04T00:00:00	2024-11-08T21:00:00	3	Temperatura mínima	16.9
16148	7	Sololá	701	Sololá	1	Sololá	4	Abril	2023-05-04T00:00:00	2024-11-08T21:00:00	5	Humedad	91
16149	7	Sololá	701	Sololá	1	Sololá	4	Abril	2023-05-04T00:00:00	2024-11-08T21:00:00	6	Velocidad del viento	0
16150	7	Sololá	701	Sololá	1	Sololá	4	Abril	2023-05-04T00:00:00	2024-11-08T21:00:00	7	Dirección del viento	0
16151	7	Sololá	701	Sololá	1	Sololá	4	Abril	2023-05-04T00:00:00	2024-11-08T21:00:00	1	Precipitación	0
16152	7	Sololá	701	Sololá	1	Sololá	4	Abril	2023-05-04T00:00:00	2024-11-08T21:00:00	8	Radiación solar	0
16153	7	Sololá	701	Sololá	1	Sololá	4	Abril	2023-05-04T00:00:00	2024-11-08T22:00:00	2	Temperatura media	16.5
16154	7	Sololá	701	Sololá	1	Sololá	4	Abril	2023-05-04T00:00:00	2024-11-08T22:00:00	4	Temperatura máxima	17
16155	7	Sololá	701	Sololá	1	Sololá	4	Abril	2023-05-04T00:00:00	2024-11-08T22:00:00	3	Temperatura mínima	16.4
16156	7	Sololá	701	Sololá	1	Sololá	4	Abril	2023-05-04T00:00:00	2024-11-08T22:00:00	5	Humedad	93
16157	7	Sololá	701	Sololá	1	Sololá	4	Abril	2023-05-04T00:00:00	2024-11-08T22:00:00	6	Velocidad del viento	0
16158	7	Sololá	701	Sololá	1	Sololá	4	Abril	2023-05-04T00:00:00	2024-11-08T22:00:00	7	Dirección del viento	0
16159	7	Sololá	701	Sololá	1	Sololá	4	Abril	2023-05-04T00:00:00	2024-11-08T22:00:00	1	Precipitación	0
16160	7	Sololá	701	Sololá	1	Sololá	4	Abril	2023-05-04T00:00:00	2024-11-08T22:00:00	8	Radiación solar	0
16161	7	Sololá	701	Sololá	1	Sololá	4	Abril	2023-05-04T00:00:00	2024-11-08T23:00:00	2	Temperatura media	16
16162	7	Sololá	701	Sololá	1	Sololá	4	Abril	2023-05-04T00:00:00	2024-11-08T23:00:00	4	Temperatura máxima	16.5
16163	7	Sololá	701	Sololá	1	Sololá	4	Abril	2023-05-04T00:00:00	2024-11-08T23:00:00	3	Temperatura mínima	16
16164	7	Sololá	701	Sololá	1	Sololá	4	Abril	2023-05-04T00:00:00	2024-11-08T23:00:00	5	Humedad	90
16165	7	Sololá	701	Sololá	1	Sololá	4	Abril	2023-05-04T00:00:00	2024-11-08T23:00:00	6	Velocidad del viento	0
16166	7	Sololá	701	Sololá	1	Sololá	4	Abril	2023-05-04T00:00:00	2024-11-08T23:00:00	7	Dirección del viento	0
16167	7	Sololá	701	Sololá	1	Sololá	4	Abril	2023-05-04T00:00:00	2024-11-08T23:00:00	1	Precipitación	0
16168	7	Sololá	701	Sololá	1	Sololá	4	Abril	2023-05-04T00:00:00	2024-11-08T23:00:00	8	Radiación solar	0
16169	7	Sololá	701	Sololá	1	Sololá	4	Abril	2023-06-04T00:00:00	2024-11-08T00:00:00	2	Temperatura media	14.6
16170	7	Sololá	701	Sololá	1	Sololá	4	Abril	2023-06-04T00:00:00	2024-11-08T00:00:00	4	Temperatura máxima	16
16171	7	Sololá	701	Sololá	1	Sololá	4	Abril	2023-06-04T00:00:00	2024-11-08T00:00:00	3	Temperatura mínima	14.6
16172	7	Sololá	701	Sololá	1	Sololá	4	Abril	2023-06-04T00:00:00	2024-11-08T00:00:00	5	Humedad	91
16173	7	Sololá	701	Sololá	1	Sololá	4	Abril	2023-06-04T00:00:00	2024-11-08T00:00:00	6	Velocidad del viento	0
16174	7	Sololá	701	Sololá	1	Sololá	4	Abril	2023-06-04T00:00:00	2024-11-08T00:00:00	7	Dirección del viento	0
16175	7	Sololá	701	Sololá	1	Sololá	4	Abril	2023-06-04T00:00:00	2024-11-08T00:00:00	1	Precipitación	0
16176	7	Sololá	701	Sololá	1	Sololá	4	Abril	2023-06-04T00:00:00	2024-11-08T00:00:00	8	Radiación solar	0
16177	7	Sololá	701	Sololá	1	Sololá	4	Abril	2023-06-04T00:00:00	2024-11-08T01:00:00	2	Temperatura media	13.7
16178	7	Sololá	701	Sololá	1	Sololá	4	Abril	2023-06-04T00:00:00	2024-11-08T01:00:00	4	Temperatura máxima	14.6
16179	7	Sololá	701	Sololá	1	Sololá	4	Abril	2023-06-04T00:00:00	2024-11-08T01:00:00	3	Temperatura mínima	13.7
16180	7	Sololá	701	Sololá	1	Sololá	4	Abril	2023-06-04T00:00:00	2024-11-08T01:00:00	5	Humedad	88
16181	7	Sololá	701	Sololá	1	Sololá	4	Abril	2023-06-04T00:00:00	2024-11-08T01:00:00	6	Velocidad del viento	0
16182	7	Sololá	701	Sololá	1	Sololá	4	Abril	2023-06-04T00:00:00	2024-11-08T01:00:00	7	Dirección del viento	0
16183	7	Sololá	701	Sololá	1	Sololá	4	Abril	2023-06-04T00:00:00	2024-11-08T01:00:00	1	Precipitación	0
16184	7	Sololá	701	Sololá	1	Sololá	4	Abril	2023-06-04T00:00:00	2024-11-08T01:00:00	8	Radiación solar	0
16185	7	Sololá	701	Sololá	1	Sololá	4	Abril	2023-06-04T00:00:00	2024-11-08T02:00:00	2	Temperatura media	14
16186	7	Sololá	701	Sololá	1	Sololá	4	Abril	2023-06-04T00:00:00	2024-11-08T02:00:00	4	Temperatura máxima	14.1
16187	7	Sololá	701	Sololá	1	Sololá	4	Abril	2023-06-04T00:00:00	2024-11-08T02:00:00	3	Temperatura mínima	13.6
16188	7	Sololá	701	Sololá	1	Sololá	4	Abril	2023-06-04T00:00:00	2024-11-08T02:00:00	5	Humedad	86
16189	7	Sololá	701	Sololá	1	Sololá	4	Abril	2023-06-04T00:00:00	2024-11-08T02:00:00	6	Velocidad del viento	0
16190	7	Sololá	701	Sololá	1	Sololá	4	Abril	2023-06-04T00:00:00	2024-11-08T02:00:00	7	Dirección del viento	0
16191	7	Sololá	701	Sololá	1	Sololá	4	Abril	2023-06-04T00:00:00	2024-11-08T02:00:00	1	Precipitación	0
16192	7	Sololá	701	Sololá	1	Sololá	4	Abril	2023-06-04T00:00:00	2024-11-08T02:00:00	8	Radiación solar	0
16193	7	Sololá	701	Sololá	1	Sololá	4	Abril	2023-06-04T00:00:00	2024-11-08T03:00:00	2	Temperatura media	14.5
16194	7	Sololá	701	Sololá	1	Sololá	4	Abril	2023-06-04T00:00:00	2024-11-08T03:00:00	4	Temperatura máxima	14.5
16195	7	Sololá	701	Sololá	1	Sololá	4	Abril	2023-06-04T00:00:00	2024-11-08T03:00:00	3	Temperatura mínima	14
16196	7	Sololá	701	Sololá	1	Sololá	4	Abril	2023-06-04T00:00:00	2024-11-08T03:00:00	5	Humedad	85
16197	7	Sololá	701	Sololá	1	Sololá	4	Abril	2023-06-04T00:00:00	2024-11-08T03:00:00	6	Velocidad del viento	0
16198	7	Sololá	701	Sololá	1	Sololá	4	Abril	2023-06-04T00:00:00	2024-11-08T03:00:00	7	Dirección del viento	0
16199	7	Sololá	701	Sololá	1	Sololá	4	Abril	2023-06-04T00:00:00	2024-11-08T03:00:00	1	Precipitación	0
16200	7	Sololá	701	Sololá	1	Sololá	4	Abril	2023-06-04T00:00:00	2024-11-08T03:00:00	8	Radiación solar	0
16201	7	Sololá	701	Sololá	1	Sololá	4	Abril	2023-06-04T00:00:00	2024-11-08T04:00:00	2	Temperatura media	13.3
16202	7	Sololá	701	Sololá	1	Sololá	4	Abril	2023-06-04T00:00:00	2024-11-08T04:00:00	4	Temperatura máxima	14.5
16203	7	Sololá	701	Sololá	1	Sololá	4	Abril	2023-06-04T00:00:00	2024-11-08T04:00:00	3	Temperatura mínima	13.3
16204	7	Sololá	701	Sololá	1	Sololá	4	Abril	2023-06-04T00:00:00	2024-11-08T04:00:00	5	Humedad	87
16205	7	Sololá	701	Sololá	1	Sololá	4	Abril	2023-06-04T00:00:00	2024-11-08T04:00:00	6	Velocidad del viento	0
16206	7	Sololá	701	Sololá	1	Sololá	4	Abril	2023-06-04T00:00:00	2024-11-08T04:00:00	7	Dirección del viento	0
16207	7	Sololá	701	Sololá	1	Sololá	4	Abril	2023-06-04T00:00:00	2024-11-08T04:00:00	1	Precipitación	0
16208	7	Sololá	701	Sololá	1	Sololá	4	Abril	2023-06-04T00:00:00	2024-11-08T04:00:00	8	Radiación solar	0
16209	7	Sololá	701	Sololá	1	Sololá	4	Abril	2023-06-04T00:00:00	2024-11-08T05:00:00	2	Temperatura media	13.6
16210	7	Sololá	701	Sololá	1	Sololá	4	Abril	2023-06-04T00:00:00	2024-11-08T05:00:00	4	Temperatura máxima	13.6
16211	7	Sololá	701	Sololá	1	Sololá	4	Abril	2023-06-04T00:00:00	2024-11-08T05:00:00	3	Temperatura mínima	13.2
16212	7	Sololá	701	Sololá	1	Sololá	4	Abril	2023-06-04T00:00:00	2024-11-08T05:00:00	5	Humedad	86
16213	7	Sololá	701	Sololá	1	Sololá	4	Abril	2023-06-04T00:00:00	2024-11-08T05:00:00	6	Velocidad del viento	0
16214	7	Sololá	701	Sololá	1	Sololá	4	Abril	2023-06-04T00:00:00	2024-11-08T05:00:00	7	Dirección del viento	0
16215	7	Sololá	701	Sololá	1	Sololá	4	Abril	2023-06-04T00:00:00	2024-11-08T05:00:00	1	Precipitación	0
16216	7	Sololá	701	Sololá	1	Sololá	4	Abril	2023-06-04T00:00:00	2024-11-08T05:00:00	8	Radiación solar	0
16217	7	Sololá	701	Sololá	1	Sololá	4	Abril	2023-06-04T00:00:00	2024-11-08T06:00:00	2	Temperatura media	13.3
16218	7	Sololá	701	Sololá	1	Sololá	4	Abril	2023-06-04T00:00:00	2024-11-08T06:00:00	4	Temperatura máxima	13.6
16219	7	Sololá	701	Sololá	1	Sololá	4	Abril	2023-06-04T00:00:00	2024-11-08T06:00:00	3	Temperatura mínima	13.3
16220	7	Sololá	701	Sololá	1	Sololá	4	Abril	2023-06-04T00:00:00	2024-11-08T06:00:00	5	Humedad	86
16221	7	Sololá	701	Sololá	1	Sololá	4	Abril	2023-06-04T00:00:00	2024-11-08T06:00:00	6	Velocidad del viento	0
16222	7	Sololá	701	Sololá	1	Sololá	4	Abril	2023-06-04T00:00:00	2024-11-08T06:00:00	7	Dirección del viento	0
16223	7	Sololá	701	Sololá	1	Sololá	4	Abril	2023-06-04T00:00:00	2024-11-08T06:00:00	1	Precipitación	0
16224	7	Sololá	701	Sololá	1	Sololá	4	Abril	2023-06-04T00:00:00	2024-11-08T06:00:00	8	Radiación solar	0
16225	7	Sololá	701	Sololá	1	Sololá	4	Abril	2023-06-04T00:00:00	2024-11-08T07:00:00	2	Temperatura media	13.4
16226	7	Sololá	701	Sololá	1	Sololá	4	Abril	2023-06-04T00:00:00	2024-11-08T07:00:00	4	Temperatura máxima	13.5
16227	7	Sololá	701	Sololá	1	Sololá	4	Abril	2023-06-04T00:00:00	2024-11-08T07:00:00	3	Temperatura mínima	13.1
16228	7	Sololá	701	Sololá	1	Sololá	4	Abril	2023-06-04T00:00:00	2024-11-08T07:00:00	5	Humedad	86
16229	7	Sololá	701	Sololá	1	Sololá	4	Abril	2023-06-04T00:00:00	2024-11-08T07:00:00	6	Velocidad del viento	0
16230	7	Sololá	701	Sololá	1	Sololá	4	Abril	2023-06-04T00:00:00	2024-11-08T07:00:00	7	Dirección del viento	0
16231	7	Sololá	701	Sololá	1	Sololá	4	Abril	2023-06-04T00:00:00	2024-11-08T07:00:00	1	Precipitación	0
16232	7	Sololá	701	Sololá	1	Sololá	4	Abril	2023-06-04T00:00:00	2024-11-08T07:00:00	8	Radiación solar	10
16233	7	Sololá	701	Sololá	1	Sololá	4	Abril	2023-06-04T00:00:00	2024-11-08T08:00:00	2	Temperatura media	14.2
16234	7	Sololá	701	Sololá	1	Sololá	4	Abril	2023-06-04T00:00:00	2024-11-08T08:00:00	4	Temperatura máxima	14.2
16235	7	Sololá	701	Sololá	1	Sololá	4	Abril	2023-06-04T00:00:00	2024-11-08T08:00:00	3	Temperatura mínima	13.4
16236	7	Sololá	701	Sololá	1	Sololá	4	Abril	2023-06-04T00:00:00	2024-11-08T08:00:00	5	Humedad	90
16237	7	Sololá	701	Sololá	1	Sololá	4	Abril	2023-06-04T00:00:00	2024-11-08T08:00:00	6	Velocidad del viento	0
16238	7	Sololá	701	Sololá	1	Sololá	4	Abril	2023-06-04T00:00:00	2024-11-08T08:00:00	7	Dirección del viento	0
16239	7	Sololá	701	Sololá	1	Sololá	4	Abril	2023-06-04T00:00:00	2024-11-08T08:00:00	1	Precipitación	0
16240	7	Sololá	701	Sololá	1	Sololá	4	Abril	2023-06-04T00:00:00	2024-11-08T08:00:00	8	Radiación solar	85
16241	7	Sololá	701	Sololá	1	Sololá	4	Abril	2023-06-04T00:00:00	2024-11-08T09:00:00	2	Temperatura media	15.4
16242	7	Sololá	701	Sololá	1	Sololá	4	Abril	2023-06-04T00:00:00	2024-11-08T09:00:00	4	Temperatura máxima	15.4
16243	7	Sololá	701	Sololá	1	Sololá	4	Abril	2023-06-04T00:00:00	2024-11-08T09:00:00	3	Temperatura mínima	14.2
16244	7	Sololá	701	Sololá	1	Sololá	4	Abril	2023-06-04T00:00:00	2024-11-08T09:00:00	5	Humedad	84
16245	7	Sololá	701	Sololá	1	Sololá	4	Abril	2023-06-04T00:00:00	2024-11-08T09:00:00	6	Velocidad del viento	0
16246	7	Sololá	701	Sololá	1	Sololá	4	Abril	2023-06-04T00:00:00	2024-11-08T09:00:00	7	Dirección del viento	0
16247	7	Sololá	701	Sololá	1	Sololá	4	Abril	2023-06-04T00:00:00	2024-11-08T09:00:00	1	Precipitación	0
16248	7	Sololá	701	Sololá	1	Sololá	4	Abril	2023-06-04T00:00:00	2024-11-08T09:00:00	8	Radiación solar	341
16249	7	Sololá	701	Sololá	1	Sololá	4	Abril	2023-06-04T00:00:00	2024-11-08T10:00:00	2	Temperatura media	18.2
16250	7	Sololá	701	Sololá	1	Sololá	4	Abril	2023-06-04T00:00:00	2024-11-08T10:00:00	4	Temperatura máxima	18.3
16251	7	Sololá	701	Sololá	1	Sololá	4	Abril	2023-06-04T00:00:00	2024-11-08T10:00:00	3	Temperatura mínima	15.4
16252	7	Sololá	701	Sololá	1	Sololá	4	Abril	2023-06-04T00:00:00	2024-11-08T10:00:00	5	Humedad	79
16253	7	Sololá	701	Sololá	1	Sololá	4	Abril	2023-06-04T00:00:00	2024-11-08T10:00:00	6	Velocidad del viento	0
16254	7	Sololá	701	Sololá	1	Sololá	4	Abril	2023-06-04T00:00:00	2024-11-08T10:00:00	7	Dirección del viento	0
16255	7	Sololá	701	Sololá	1	Sololá	4	Abril	2023-06-04T00:00:00	2024-11-08T10:00:00	1	Precipitación	0
16256	7	Sololá	701	Sololá	1	Sololá	4	Abril	2023-06-04T00:00:00	2024-11-08T10:00:00	8	Radiación solar	562
16257	7	Sololá	701	Sololá	1	Sololá	4	Abril	2023-06-04T00:00:00	2024-11-08T11:00:00	2	Temperatura media	19.6
16258	7	Sololá	701	Sololá	1	Sololá	4	Abril	2023-06-04T00:00:00	2024-11-08T11:00:00	4	Temperatura máxima	19.6
16259	7	Sololá	701	Sololá	1	Sololá	4	Abril	2023-06-04T00:00:00	2024-11-08T11:00:00	3	Temperatura mínima	17.6
16260	7	Sololá	701	Sololá	1	Sololá	4	Abril	2023-06-04T00:00:00	2024-11-08T11:00:00	5	Humedad	75
16261	7	Sololá	701	Sololá	1	Sololá	4	Abril	2023-06-04T00:00:00	2024-11-08T11:00:00	6	Velocidad del viento	0
16262	7	Sololá	701	Sololá	1	Sololá	4	Abril	2023-06-04T00:00:00	2024-11-08T11:00:00	7	Dirección del viento	0
16263	7	Sololá	701	Sololá	1	Sololá	4	Abril	2023-06-04T00:00:00	2024-11-08T11:00:00	1	Precipitación	0
16264	7	Sololá	701	Sololá	1	Sololá	4	Abril	2023-06-04T00:00:00	2024-11-08T11:00:00	8	Radiación solar	911
16265	7	Sololá	701	Sololá	1	Sololá	4	Abril	2023-06-04T00:00:00	2024-11-08T12:00:00	2	Temperatura media	20.6
16266	7	Sololá	701	Sololá	1	Sololá	4	Abril	2023-06-04T00:00:00	2024-11-08T12:00:00	4	Temperatura máxima	20.8
16267	7	Sololá	701	Sololá	1	Sololá	4	Abril	2023-06-04T00:00:00	2024-11-08T12:00:00	3	Temperatura mínima	19.6
16268	7	Sololá	701	Sololá	1	Sololá	4	Abril	2023-06-04T00:00:00	2024-11-08T12:00:00	5	Humedad	69
16269	7	Sololá	701	Sololá	1	Sololá	4	Abril	2023-06-04T00:00:00	2024-11-08T12:00:00	6	Velocidad del viento	1.6
16270	7	Sololá	701	Sololá	1	Sololá	4	Abril	2023-06-04T00:00:00	2024-11-08T12:00:00	7	Dirección del viento	1.61
16271	7	Sololá	701	Sololá	1	Sololá	4	Abril	2023-06-04T00:00:00	2024-11-08T12:00:00	1	Precipitación	0
16272	7	Sololá	701	Sololá	1	Sololá	4	Abril	2023-06-04T00:00:00	2024-11-08T12:00:00	8	Radiación solar	757
16273	7	Sololá	701	Sololá	1	Sololá	4	Abril	2023-06-04T00:00:00	2024-11-08T13:00:00	2	Temperatura media	20.7
16274	7	Sololá	701	Sololá	1	Sololá	4	Abril	2023-06-04T00:00:00	2024-11-08T13:00:00	4	Temperatura máxima	20.9
16275	7	Sololá	701	Sololá	1	Sololá	4	Abril	2023-06-04T00:00:00	2024-11-08T13:00:00	3	Temperatura mínima	20.6
16276	7	Sololá	701	Sololá	1	Sololá	4	Abril	2023-06-04T00:00:00	2024-11-08T13:00:00	5	Humedad	72
16277	7	Sololá	701	Sololá	1	Sololá	4	Abril	2023-06-04T00:00:00	2024-11-08T13:00:00	6	Velocidad del viento	1.6
16278	7	Sololá	701	Sololá	1	Sololá	4	Abril	2023-06-04T00:00:00	2024-11-08T13:00:00	7	Dirección del viento	1.61
16279	7	Sololá	701	Sololá	1	Sololá	4	Abril	2023-06-04T00:00:00	2024-11-08T13:00:00	1	Precipitación	0
16280	7	Sololá	701	Sololá	1	Sololá	4	Abril	2023-06-04T00:00:00	2024-11-08T13:00:00	8	Radiación solar	361
16281	7	Sololá	701	Sololá	1	Sololá	4	Abril	2023-06-04T00:00:00	2024-11-08T14:00:00	2	Temperatura media	20.5
16282	7	Sololá	701	Sololá	1	Sololá	4	Abril	2023-06-04T00:00:00	2024-11-08T14:00:00	4	Temperatura máxima	20.8
16283	7	Sololá	701	Sololá	1	Sololá	4	Abril	2023-06-04T00:00:00	2024-11-08T14:00:00	3	Temperatura mínima	20.4
16284	7	Sololá	701	Sololá	1	Sololá	4	Abril	2023-06-04T00:00:00	2024-11-08T14:00:00	5	Humedad	76
16285	7	Sololá	701	Sololá	1	Sololá	4	Abril	2023-06-04T00:00:00	2024-11-08T14:00:00	6	Velocidad del viento	1.6
16286	7	Sololá	701	Sololá	1	Sololá	4	Abril	2023-06-04T00:00:00	2024-11-08T14:00:00	7	Dirección del viento	1.61
16287	7	Sololá	701	Sololá	1	Sololá	4	Abril	2023-06-04T00:00:00	2024-11-08T14:00:00	1	Precipitación	0
16288	7	Sololá	701	Sololá	1	Sololá	4	Abril	2023-06-04T00:00:00	2024-11-08T14:00:00	8	Radiación solar	266
16289	7	Sololá	701	Sololá	1	Sololá	4	Abril	2023-06-04T00:00:00	2024-11-08T15:00:00	2	Temperatura media	21.1
16290	7	Sololá	701	Sololá	1	Sololá	4	Abril	2023-06-04T00:00:00	2024-11-08T15:00:00	4	Temperatura máxima	21.3
16291	7	Sololá	701	Sololá	1	Sololá	4	Abril	2023-06-04T00:00:00	2024-11-08T15:00:00	3	Temperatura mínima	20.4
16292	7	Sololá	701	Sololá	1	Sololá	4	Abril	2023-06-04T00:00:00	2024-11-08T15:00:00	5	Humedad	74
16293	7	Sololá	701	Sololá	1	Sololá	4	Abril	2023-06-04T00:00:00	2024-11-08T15:00:00	6	Velocidad del viento	1.6
16294	7	Sololá	701	Sololá	1	Sololá	4	Abril	2023-06-04T00:00:00	2024-11-08T15:00:00	7	Dirección del viento	1.61
16295	7	Sololá	701	Sololá	1	Sololá	4	Abril	2023-06-04T00:00:00	2024-11-08T15:00:00	1	Precipitación	0
16296	7	Sololá	701	Sololá	1	Sololá	4	Abril	2023-06-04T00:00:00	2024-11-08T15:00:00	8	Radiación solar	129
16297	7	Sololá	701	Sololá	1	Sololá	4	Abril	2023-06-04T00:00:00	2024-11-08T16:00:00	2	Temperatura media	19
16298	7	Sololá	701	Sololá	1	Sololá	4	Abril	2023-06-04T00:00:00	2024-11-08T16:00:00	4	Temperatura máxima	21.1
16299	7	Sololá	701	Sololá	1	Sololá	4	Abril	2023-06-04T00:00:00	2024-11-08T16:00:00	3	Temperatura mínima	19
16300	7	Sololá	701	Sololá	1	Sololá	4	Abril	2023-06-04T00:00:00	2024-11-08T16:00:00	5	Humedad	81
16301	7	Sololá	701	Sololá	1	Sololá	4	Abril	2023-06-04T00:00:00	2024-11-08T16:00:00	6	Velocidad del viento	0
16302	7	Sololá	701	Sololá	1	Sololá	4	Abril	2023-06-04T00:00:00	2024-11-08T16:00:00	7	Dirección del viento	0
16303	7	Sololá	701	Sololá	1	Sololá	4	Abril	2023-06-04T00:00:00	2024-11-08T16:00:00	1	Precipitación	0
16304	7	Sololá	701	Sololá	1	Sololá	4	Abril	2023-06-04T00:00:00	2024-11-08T16:00:00	8	Radiación solar	103
16305	7	Sololá	701	Sololá	1	Sololá	4	Abril	2023-06-04T00:00:00	2024-11-08T17:00:00	2	Temperatura media	18.4
16306	7	Sololá	701	Sololá	1	Sololá	4	Abril	2023-06-04T00:00:00	2024-11-08T17:00:00	4	Temperatura máxima	19
16307	7	Sololá	701	Sololá	1	Sololá	4	Abril	2023-06-04T00:00:00	2024-11-08T17:00:00	3	Temperatura mínima	18.2
16308	7	Sololá	701	Sololá	1	Sololá	4	Abril	2023-06-04T00:00:00	2024-11-08T17:00:00	5	Humedad	86
16309	7	Sololá	701	Sololá	1	Sololá	4	Abril	2023-06-04T00:00:00	2024-11-08T17:00:00	6	Velocidad del viento	0
16310	7	Sololá	701	Sololá	1	Sololá	4	Abril	2023-06-04T00:00:00	2024-11-08T17:00:00	7	Dirección del viento	0
16311	7	Sololá	701	Sololá	1	Sololá	4	Abril	2023-06-04T00:00:00	2024-11-08T17:00:00	1	Precipitación	0
16312	7	Sololá	701	Sololá	1	Sololá	4	Abril	2023-06-04T00:00:00	2024-11-08T17:00:00	8	Radiación solar	72
16313	7	Sololá	701	Sololá	1	Sololá	4	Abril	2023-06-04T00:00:00	2024-11-08T18:00:00	2	Temperatura media	17.9
16314	7	Sololá	701	Sololá	1	Sololá	4	Abril	2023-06-04T00:00:00	2024-11-08T18:00:00	4	Temperatura máxima	18.7
16315	7	Sololá	701	Sololá	1	Sololá	4	Abril	2023-06-04T00:00:00	2024-11-08T18:00:00	3	Temperatura mínima	17.9
16316	7	Sololá	701	Sololá	1	Sololá	4	Abril	2023-06-04T00:00:00	2024-11-08T18:00:00	5	Humedad	87
16317	7	Sololá	701	Sololá	1	Sololá	4	Abril	2023-06-04T00:00:00	2024-11-08T18:00:00	6	Velocidad del viento	0
16318	7	Sololá	701	Sololá	1	Sololá	4	Abril	2023-06-04T00:00:00	2024-11-08T18:00:00	7	Dirección del viento	0
16319	7	Sololá	701	Sololá	1	Sololá	4	Abril	2023-06-04T00:00:00	2024-11-08T18:00:00	1	Precipitación	0
16320	7	Sololá	701	Sololá	1	Sololá	4	Abril	2023-06-04T00:00:00	2024-11-08T18:00:00	8	Radiación solar	22
16321	7	Sololá	701	Sololá	1	Sololá	4	Abril	2023-06-04T00:00:00	2024-11-08T19:00:00	2	Temperatura media	17
16322	7	Sololá	701	Sololá	1	Sololá	4	Abril	2023-06-04T00:00:00	2024-11-08T19:00:00	4	Temperatura máxima	18
16323	7	Sololá	701	Sololá	1	Sololá	4	Abril	2023-06-04T00:00:00	2024-11-08T19:00:00	3	Temperatura mínima	17
16324	7	Sololá	701	Sololá	1	Sololá	4	Abril	2023-06-04T00:00:00	2024-11-08T19:00:00	5	Humedad	90
16325	7	Sololá	701	Sololá	1	Sololá	4	Abril	2023-06-04T00:00:00	2024-11-08T19:00:00	6	Velocidad del viento	0
16326	7	Sololá	701	Sololá	1	Sololá	4	Abril	2023-06-04T00:00:00	2024-11-08T19:00:00	7	Dirección del viento	0
16327	7	Sololá	701	Sololá	1	Sololá	4	Abril	2023-06-04T00:00:00	2024-11-08T19:00:00	1	Precipitación	0
16328	7	Sololá	701	Sololá	1	Sololá	4	Abril	2023-06-04T00:00:00	2024-11-08T19:00:00	8	Radiación solar	0
16329	7	Sololá	701	Sololá	1	Sololá	4	Abril	2023-06-04T00:00:00	2024-11-08T20:00:00	2	Temperatura media	16.6
16330	7	Sololá	701	Sololá	1	Sololá	4	Abril	2023-06-04T00:00:00	2024-11-08T20:00:00	4	Temperatura máxima	17
16331	7	Sololá	701	Sololá	1	Sololá	4	Abril	2023-06-04T00:00:00	2024-11-08T20:00:00	3	Temperatura mínima	16.6
16332	7	Sololá	701	Sololá	1	Sololá	4	Abril	2023-06-04T00:00:00	2024-11-08T20:00:00	5	Humedad	91
16333	7	Sololá	701	Sololá	1	Sololá	4	Abril	2023-06-04T00:00:00	2024-11-08T20:00:00	6	Velocidad del viento	0
16334	7	Sololá	701	Sololá	1	Sololá	4	Abril	2023-06-04T00:00:00	2024-11-08T20:00:00	7	Dirección del viento	0
16335	7	Sololá	701	Sololá	1	Sololá	4	Abril	2023-06-04T00:00:00	2024-11-08T20:00:00	1	Precipitación	0
16336	7	Sololá	701	Sololá	1	Sololá	4	Abril	2023-06-04T00:00:00	2024-11-08T20:00:00	8	Radiación solar	0
16337	7	Sololá	701	Sololá	1	Sololá	4	Abril	2023-06-04T00:00:00	2024-11-08T21:00:00	2	Temperatura media	15.9
16338	7	Sololá	701	Sololá	1	Sololá	4	Abril	2023-06-04T00:00:00	2024-11-08T21:00:00	4	Temperatura máxima	16.6
16339	7	Sololá	701	Sololá	1	Sololá	4	Abril	2023-06-04T00:00:00	2024-11-08T21:00:00	3	Temperatura mínima	15.9
16340	7	Sololá	701	Sololá	1	Sololá	4	Abril	2023-06-04T00:00:00	2024-11-08T21:00:00	5	Humedad	94
16341	7	Sololá	701	Sololá	1	Sololá	4	Abril	2023-06-04T00:00:00	2024-11-08T21:00:00	6	Velocidad del viento	0
16342	7	Sololá	701	Sololá	1	Sololá	4	Abril	2023-06-04T00:00:00	2024-11-08T21:00:00	7	Dirección del viento	0
16343	7	Sololá	701	Sololá	1	Sololá	4	Abril	2023-06-04T00:00:00	2024-11-08T21:00:00	1	Precipitación	0
16344	7	Sololá	701	Sololá	1	Sololá	4	Abril	2023-06-04T00:00:00	2024-11-08T21:00:00	8	Radiación solar	0
16345	7	Sololá	701	Sololá	1	Sololá	4	Abril	2023-06-04T00:00:00	2024-11-08T22:00:00	2	Temperatura media	15.5
16346	7	Sololá	701	Sololá	1	Sololá	4	Abril	2023-06-04T00:00:00	2024-11-08T22:00:00	4	Temperatura máxima	15.9
16347	7	Sololá	701	Sololá	1	Sololá	4	Abril	2023-06-04T00:00:00	2024-11-08T22:00:00	3	Temperatura mínima	15.4
16348	7	Sololá	701	Sololá	1	Sololá	4	Abril	2023-06-04T00:00:00	2024-11-08T22:00:00	5	Humedad	83
16349	7	Sololá	701	Sololá	1	Sololá	4	Abril	2023-06-04T00:00:00	2024-11-08T22:00:00	6	Velocidad del viento	0
16350	7	Sololá	701	Sololá	1	Sololá	4	Abril	2023-06-04T00:00:00	2024-11-08T22:00:00	7	Dirección del viento	0
16351	7	Sololá	701	Sololá	1	Sololá	4	Abril	2023-06-04T00:00:00	2024-11-08T22:00:00	1	Precipitación	0
16352	7	Sololá	701	Sololá	1	Sololá	4	Abril	2023-06-04T00:00:00	2024-11-08T22:00:00	8	Radiación solar	0
16353	7	Sololá	701	Sololá	1	Sololá	4	Abril	2023-06-04T00:00:00	2024-11-08T23:00:00	2	Temperatura media	15.2
16354	7	Sololá	701	Sololá	1	Sololá	4	Abril	2023-06-04T00:00:00	2024-11-08T23:00:00	4	Temperatura máxima	15.5
16355	7	Sololá	701	Sololá	1	Sololá	4	Abril	2023-06-04T00:00:00	2024-11-08T23:00:00	3	Temperatura mínima	15.2
16356	7	Sololá	701	Sololá	1	Sololá	4	Abril	2023-06-04T00:00:00	2024-11-08T23:00:00	5	Humedad	84
16357	7	Sololá	701	Sololá	1	Sololá	4	Abril	2023-06-04T00:00:00	2024-11-08T23:00:00	6	Velocidad del viento	0
16358	7	Sololá	701	Sololá	1	Sololá	4	Abril	2023-06-04T00:00:00	2024-11-08T23:00:00	7	Dirección del viento	0
16359	7	Sololá	701	Sololá	1	Sololá	4	Abril	2023-06-04T00:00:00	2024-11-08T23:00:00	1	Precipitación	0
16360	7	Sololá	701	Sololá	1	Sololá	4	Abril	2023-06-04T00:00:00	2024-11-08T23:00:00	8	Radiación solar	0
16361	7	Sololá	701	Sololá	1	Sololá	4	Abril	2023-07-04T00:00:00	2024-11-08T00:00:00	2	Temperatura media	14.4
16362	7	Sololá	701	Sololá	1	Sololá	4	Abril	2023-07-04T00:00:00	2024-11-08T00:00:00	4	Temperatura máxima	15.2
16363	7	Sololá	701	Sololá	1	Sololá	4	Abril	2023-07-04T00:00:00	2024-11-08T00:00:00	3	Temperatura mínima	14.4
16364	7	Sololá	701	Sololá	1	Sololá	4	Abril	2023-07-04T00:00:00	2024-11-08T00:00:00	5	Humedad	85
16365	7	Sololá	701	Sololá	1	Sololá	4	Abril	2023-07-04T00:00:00	2024-11-08T00:00:00	6	Velocidad del viento	0
16366	7	Sololá	701	Sololá	1	Sololá	4	Abril	2023-07-04T00:00:00	2024-11-08T00:00:00	7	Dirección del viento	0
16367	7	Sololá	701	Sololá	1	Sololá	4	Abril	2023-07-04T00:00:00	2024-11-08T00:00:00	1	Precipitación	0
16368	7	Sololá	701	Sololá	1	Sololá	4	Abril	2023-07-04T00:00:00	2024-11-08T00:00:00	8	Radiación solar	0
16369	7	Sololá	701	Sololá	1	Sololá	4	Abril	2023-07-04T00:00:00	2024-11-08T01:00:00	2	Temperatura media	13.8
16370	7	Sololá	701	Sololá	1	Sololá	4	Abril	2023-07-04T00:00:00	2024-11-08T01:00:00	4	Temperatura máxima	14.4
16371	7	Sololá	701	Sololá	1	Sololá	4	Abril	2023-07-04T00:00:00	2024-11-08T01:00:00	3	Temperatura mínima	13.8
16372	7	Sololá	701	Sololá	1	Sololá	4	Abril	2023-07-04T00:00:00	2024-11-08T01:00:00	5	Humedad	87
16373	7	Sololá	701	Sololá	1	Sololá	4	Abril	2023-07-04T00:00:00	2024-11-08T01:00:00	6	Velocidad del viento	0
16374	7	Sololá	701	Sololá	1	Sololá	4	Abril	2023-07-04T00:00:00	2024-11-08T01:00:00	7	Dirección del viento	0
16375	7	Sololá	701	Sololá	1	Sololá	4	Abril	2023-07-04T00:00:00	2024-11-08T01:00:00	1	Precipitación	0
16376	7	Sololá	701	Sololá	1	Sololá	4	Abril	2023-07-04T00:00:00	2024-11-08T01:00:00	8	Radiación solar	0
16377	7	Sololá	701	Sololá	1	Sololá	4	Abril	2023-07-04T00:00:00	2024-11-08T02:00:00	2	Temperatura media	14.2
16378	7	Sololá	701	Sololá	1	Sololá	4	Abril	2023-07-04T00:00:00	2024-11-08T02:00:00	4	Temperatura máxima	14.2
16379	7	Sololá	701	Sololá	1	Sololá	4	Abril	2023-07-04T00:00:00	2024-11-08T02:00:00	3	Temperatura mínima	13.8
16380	7	Sololá	701	Sololá	1	Sololá	4	Abril	2023-07-04T00:00:00	2024-11-08T02:00:00	5	Humedad	88
16381	7	Sololá	701	Sololá	1	Sololá	4	Abril	2023-07-04T00:00:00	2024-11-08T02:00:00	6	Velocidad del viento	0
16382	7	Sololá	701	Sololá	1	Sololá	4	Abril	2023-07-04T00:00:00	2024-11-08T02:00:00	7	Dirección del viento	0
16383	7	Sololá	701	Sololá	1	Sololá	4	Abril	2023-07-04T00:00:00	2024-11-08T02:00:00	1	Precipitación	0
16384	7	Sololá	701	Sololá	1	Sololá	4	Abril	2023-07-04T00:00:00	2024-11-08T02:00:00	8	Radiación solar	0
16385	7	Sololá	701	Sololá	1	Sololá	4	Abril	2023-07-04T00:00:00	2024-11-08T03:00:00	2	Temperatura media	14.2
16386	7	Sololá	701	Sololá	1	Sololá	4	Abril	2023-07-04T00:00:00	2024-11-08T03:00:00	4	Temperatura máxima	14.2
16387	7	Sololá	701	Sololá	1	Sololá	4	Abril	2023-07-04T00:00:00	2024-11-08T03:00:00	3	Temperatura mínima	13.9
16388	7	Sololá	701	Sololá	1	Sololá	4	Abril	2023-07-04T00:00:00	2024-11-08T03:00:00	5	Humedad	87
16389	7	Sololá	701	Sololá	1	Sololá	4	Abril	2023-07-04T00:00:00	2024-11-08T03:00:00	6	Velocidad del viento	0
16390	7	Sololá	701	Sololá	1	Sololá	4	Abril	2023-07-04T00:00:00	2024-11-08T03:00:00	7	Dirección del viento	0
16391	7	Sololá	701	Sololá	1	Sololá	4	Abril	2023-07-04T00:00:00	2024-11-08T03:00:00	1	Precipitación	0
16392	7	Sololá	701	Sololá	1	Sololá	4	Abril	2023-07-04T00:00:00	2024-11-08T03:00:00	8	Radiación solar	0
16393	7	Sololá	701	Sololá	1	Sololá	4	Abril	2023-07-04T00:00:00	2024-11-08T04:00:00	2	Temperatura media	13.4
16394	7	Sololá	701	Sololá	1	Sololá	4	Abril	2023-07-04T00:00:00	2024-11-08T04:00:00	4	Temperatura máxima	14.2
16395	7	Sololá	701	Sololá	1	Sololá	4	Abril	2023-07-04T00:00:00	2024-11-08T04:00:00	3	Temperatura mínima	13.4
16396	7	Sololá	701	Sololá	1	Sololá	4	Abril	2023-07-04T00:00:00	2024-11-08T04:00:00	5	Humedad	88
16397	7	Sololá	701	Sololá	1	Sololá	4	Abril	2023-07-04T00:00:00	2024-11-08T04:00:00	6	Velocidad del viento	0
16398	7	Sololá	701	Sololá	1	Sololá	4	Abril	2023-07-04T00:00:00	2024-11-08T04:00:00	7	Dirección del viento	0
16399	7	Sololá	701	Sololá	1	Sololá	4	Abril	2023-07-04T00:00:00	2024-11-08T04:00:00	1	Precipitación	0
16400	7	Sololá	701	Sololá	1	Sololá	4	Abril	2023-07-04T00:00:00	2024-11-08T04:00:00	8	Radiación solar	0
16401	7	Sololá	701	Sololá	1	Sololá	4	Abril	2023-07-04T00:00:00	2024-11-08T05:00:00	2	Temperatura media	12.5
16402	7	Sololá	701	Sololá	1	Sololá	4	Abril	2023-07-04T00:00:00	2024-11-08T05:00:00	4	Temperatura máxima	13.4
16403	7	Sololá	701	Sololá	1	Sololá	4	Abril	2023-07-04T00:00:00	2024-11-08T05:00:00	3	Temperatura mínima	12.4
16404	7	Sololá	701	Sololá	1	Sololá	4	Abril	2023-07-04T00:00:00	2024-11-08T05:00:00	5	Humedad	89
16405	7	Sololá	701	Sololá	1	Sololá	4	Abril	2023-07-04T00:00:00	2024-11-08T05:00:00	6	Velocidad del viento	0
16406	7	Sololá	701	Sololá	1	Sololá	4	Abril	2023-07-04T00:00:00	2024-11-08T05:00:00	7	Dirección del viento	0
16407	7	Sololá	701	Sololá	1	Sololá	4	Abril	2023-07-04T00:00:00	2024-11-08T05:00:00	1	Precipitación	0
16408	7	Sololá	701	Sololá	1	Sololá	4	Abril	2023-07-04T00:00:00	2024-11-08T05:00:00	8	Radiación solar	0
16409	7	Sololá	701	Sololá	1	Sololá	4	Abril	2023-07-04T00:00:00	2024-11-08T06:00:00	2	Temperatura media	11.7
16410	7	Sololá	701	Sololá	1	Sololá	4	Abril	2023-07-04T00:00:00	2024-11-08T06:00:00	4	Temperatura máxima	12.6
16411	7	Sololá	701	Sololá	1	Sololá	4	Abril	2023-07-04T00:00:00	2024-11-08T06:00:00	3	Temperatura mínima	11.7
16412	7	Sololá	701	Sololá	1	Sololá	4	Abril	2023-07-04T00:00:00	2024-11-08T06:00:00	5	Humedad	89
16413	7	Sololá	701	Sololá	1	Sololá	4	Abril	2023-07-04T00:00:00	2024-11-08T06:00:00	6	Velocidad del viento	0
16414	7	Sololá	701	Sololá	1	Sololá	4	Abril	2023-07-04T00:00:00	2024-11-08T06:00:00	7	Dirección del viento	0
16415	7	Sololá	701	Sololá	1	Sololá	4	Abril	2023-07-04T00:00:00	2024-11-08T06:00:00	1	Precipitación	0
16416	7	Sololá	701	Sololá	1	Sololá	4	Abril	2023-07-04T00:00:00	2024-11-08T06:00:00	8	Radiación solar	0
16417	7	Sololá	701	Sololá	1	Sololá	4	Abril	2023-07-04T00:00:00	2024-11-08T07:00:00	2	Temperatura media	11.4
16418	7	Sololá	701	Sololá	1	Sololá	4	Abril	2023-07-04T00:00:00	2024-11-08T07:00:00	4	Temperatura máxima	11.7
16419	7	Sololá	701	Sololá	1	Sololá	4	Abril	2023-07-04T00:00:00	2024-11-08T07:00:00	3	Temperatura mínima	11.3
16420	7	Sololá	701	Sololá	1	Sololá	4	Abril	2023-07-04T00:00:00	2024-11-08T07:00:00	5	Humedad	89
16421	7	Sololá	701	Sololá	1	Sololá	4	Abril	2023-07-04T00:00:00	2024-11-08T07:00:00	6	Velocidad del viento	0
16422	7	Sololá	701	Sololá	1	Sololá	4	Abril	2023-07-04T00:00:00	2024-11-08T07:00:00	7	Dirección del viento	0
16423	7	Sololá	701	Sololá	1	Sololá	4	Abril	2023-07-04T00:00:00	2024-11-08T07:00:00	1	Precipitación	0
16424	7	Sololá	701	Sololá	1	Sololá	4	Abril	2023-07-04T00:00:00	2024-11-08T07:00:00	8	Radiación solar	21
16425	7	Sololá	701	Sololá	1	Sololá	4	Abril	2023-07-04T00:00:00	2024-11-08T08:00:00	2	Temperatura media	11.4
16426	7	Sololá	701	Sololá	1	Sololá	4	Abril	2023-07-04T00:00:00	2024-11-08T08:00:00	4	Temperatura máxima	11.4
16427	7	Sololá	701	Sololá	1	Sololá	4	Abril	2023-07-04T00:00:00	2024-11-08T08:00:00	3	Temperatura mínima	11.2
16428	7	Sololá	701	Sololá	1	Sololá	4	Abril	2023-07-04T00:00:00	2024-11-08T08:00:00	5	Humedad	88
16429	7	Sololá	701	Sololá	1	Sololá	4	Abril	2023-07-04T00:00:00	2024-11-08T08:00:00	6	Velocidad del viento	0
16430	7	Sololá	701	Sololá	1	Sololá	4	Abril	2023-07-04T00:00:00	2024-11-08T08:00:00	7	Dirección del viento	0
16431	7	Sololá	701	Sololá	1	Sololá	4	Abril	2023-07-04T00:00:00	2024-11-08T08:00:00	1	Precipitación	0
16432	7	Sololá	701	Sololá	1	Sololá	4	Abril	2023-07-04T00:00:00	2024-11-08T08:00:00	8	Radiación solar	229
16433	7	Sololá	701	Sololá	1	Sololá	4	Abril	2023-07-04T00:00:00	2024-11-08T09:00:00	2	Temperatura media	15.6
16434	7	Sololá	701	Sololá	1	Sololá	4	Abril	2023-07-04T00:00:00	2024-11-08T09:00:00	4	Temperatura máxima	15.6
16435	7	Sololá	701	Sololá	1	Sololá	4	Abril	2023-07-04T00:00:00	2024-11-08T09:00:00	3	Temperatura mínima	11.4
16436	7	Sololá	701	Sololá	1	Sololá	4	Abril	2023-07-04T00:00:00	2024-11-08T09:00:00	5	Humedad	75
16437	7	Sololá	701	Sololá	1	Sololá	4	Abril	2023-07-04T00:00:00	2024-11-08T09:00:00	6	Velocidad del viento	0
16438	7	Sololá	701	Sololá	1	Sololá	4	Abril	2023-07-04T00:00:00	2024-11-08T09:00:00	7	Dirección del viento	0
16439	7	Sololá	701	Sololá	1	Sololá	4	Abril	2023-07-04T00:00:00	2024-11-08T09:00:00	1	Precipitación	0
16440	7	Sololá	701	Sololá	1	Sololá	4	Abril	2023-07-04T00:00:00	2024-11-08T09:00:00	8	Radiación solar	555
16441	7	Sololá	701	Sololá	1	Sololá	4	Abril	2023-07-04T00:00:00	2024-11-08T10:00:00	2	Temperatura media	18.9
16442	7	Sololá	701	Sololá	1	Sololá	4	Abril	2023-07-04T00:00:00	2024-11-08T10:00:00	4	Temperatura máxima	18.9
16443	7	Sololá	701	Sololá	1	Sololá	4	Abril	2023-07-04T00:00:00	2024-11-08T10:00:00	3	Temperatura mínima	15.6
16444	7	Sololá	701	Sololá	1	Sololá	4	Abril	2023-07-04T00:00:00	2024-11-08T10:00:00	5	Humedad	67
16445	7	Sololá	701	Sololá	1	Sololá	4	Abril	2023-07-04T00:00:00	2024-11-08T10:00:00	6	Velocidad del viento	0
16446	7	Sololá	701	Sololá	1	Sololá	4	Abril	2023-07-04T00:00:00	2024-11-08T10:00:00	7	Dirección del viento	0
16447	7	Sololá	701	Sololá	1	Sololá	4	Abril	2023-07-04T00:00:00	2024-11-08T10:00:00	1	Precipitación	0
16448	7	Sololá	701	Sololá	1	Sololá	4	Abril	2023-07-04T00:00:00	2024-11-08T10:00:00	8	Radiación solar	758
16449	7	Sololá	701	Sololá	1	Sololá	4	Abril	2023-07-04T00:00:00	2024-11-08T11:00:00	2	Temperatura media	20.6
16450	7	Sololá	701	Sololá	1	Sololá	4	Abril	2023-07-04T00:00:00	2024-11-08T11:00:00	4	Temperatura máxima	20.6
16451	7	Sololá	701	Sololá	1	Sololá	4	Abril	2023-07-04T00:00:00	2024-11-08T11:00:00	3	Temperatura mínima	18.9
16452	7	Sololá	701	Sololá	1	Sololá	4	Abril	2023-07-04T00:00:00	2024-11-08T11:00:00	5	Humedad	60
16453	7	Sololá	701	Sololá	1	Sololá	4	Abril	2023-07-04T00:00:00	2024-11-08T11:00:00	6	Velocidad del viento	0
16454	7	Sololá	701	Sololá	1	Sololá	4	Abril	2023-07-04T00:00:00	2024-11-08T11:00:00	7	Dirección del viento	0
16455	7	Sololá	701	Sololá	1	Sololá	4	Abril	2023-07-04T00:00:00	2024-11-08T11:00:00	1	Precipitación	0
16456	7	Sololá	701	Sololá	1	Sololá	4	Abril	2023-07-04T00:00:00	2024-11-08T11:00:00	8	Radiación solar	899
16457	7	Sololá	701	Sololá	1	Sololá	4	Abril	2023-07-04T00:00:00	2024-11-08T12:00:00	2	Temperatura media	21.6
16458	7	Sololá	701	Sololá	1	Sololá	4	Abril	2023-07-04T00:00:00	2024-11-08T12:00:00	4	Temperatura máxima	21.6
16459	7	Sololá	701	Sololá	1	Sololá	4	Abril	2023-07-04T00:00:00	2024-11-08T12:00:00	3	Temperatura mínima	20.6
16460	7	Sololá	701	Sololá	1	Sololá	4	Abril	2023-07-04T00:00:00	2024-11-08T12:00:00	5	Humedad	57
16461	7	Sololá	701	Sololá	1	Sololá	4	Abril	2023-07-04T00:00:00	2024-11-08T12:00:00	6	Velocidad del viento	0
16462	7	Sololá	701	Sololá	1	Sololá	4	Abril	2023-07-04T00:00:00	2024-11-08T12:00:00	7	Dirección del viento	0
16463	7	Sololá	701	Sololá	1	Sololá	4	Abril	2023-07-04T00:00:00	2024-11-08T12:00:00	1	Precipitación	0
16464	7	Sololá	701	Sololá	1	Sololá	4	Abril	2023-07-04T00:00:00	2024-11-08T12:00:00	8	Radiación solar	951
16465	7	Sololá	701	Sololá	1	Sololá	4	Abril	2023-07-04T00:00:00	2024-11-08T13:00:00	2	Temperatura media	21.3
16466	7	Sololá	701	Sololá	1	Sololá	4	Abril	2023-07-04T00:00:00	2024-11-08T13:00:00	4	Temperatura máxima	21.9
16467	7	Sololá	701	Sololá	1	Sololá	4	Abril	2023-07-04T00:00:00	2024-11-08T13:00:00	3	Temperatura mínima	21.3
16468	7	Sololá	701	Sololá	1	Sololá	4	Abril	2023-07-04T00:00:00	2024-11-08T13:00:00	5	Humedad	65
16469	7	Sololá	701	Sololá	1	Sololá	4	Abril	2023-07-04T00:00:00	2024-11-08T13:00:00	6	Velocidad del viento	1.6
16470	7	Sololá	701	Sololá	1	Sololá	4	Abril	2023-07-04T00:00:00	2024-11-08T13:00:00	7	Dirección del viento	1.61
16471	7	Sololá	701	Sololá	1	Sololá	4	Abril	2023-07-04T00:00:00	2024-11-08T13:00:00	1	Precipitación	0
16472	7	Sololá	701	Sololá	1	Sololá	4	Abril	2023-07-04T00:00:00	2024-11-08T13:00:00	8	Radiación solar	989
16473	7	Sololá	701	Sololá	1	Sololá	4	Abril	2023-07-04T00:00:00	2024-11-08T14:00:00	2	Temperatura media	21.4
16474	7	Sololá	701	Sololá	1	Sololá	4	Abril	2023-07-04T00:00:00	2024-11-08T14:00:00	4	Temperatura máxima	21.6
16475	7	Sololá	701	Sololá	1	Sololá	4	Abril	2023-07-04T00:00:00	2024-11-08T14:00:00	3	Temperatura mínima	21.3
16476	7	Sololá	701	Sololá	1	Sololá	4	Abril	2023-07-04T00:00:00	2024-11-08T14:00:00	5	Humedad	71
16477	7	Sololá	701	Sololá	1	Sololá	4	Abril	2023-07-04T00:00:00	2024-11-08T14:00:00	6	Velocidad del viento	1.6
16478	7	Sololá	701	Sololá	1	Sololá	4	Abril	2023-07-04T00:00:00	2024-11-08T14:00:00	7	Dirección del viento	1.61
16479	7	Sololá	701	Sololá	1	Sololá	4	Abril	2023-07-04T00:00:00	2024-11-08T14:00:00	1	Precipitación	0
16480	7	Sololá	701	Sololá	1	Sololá	4	Abril	2023-07-04T00:00:00	2024-11-08T14:00:00	8	Radiación solar	322
16481	7	Sololá	701	Sololá	1	Sololá	4	Abril	2023-07-04T00:00:00	2024-11-08T15:00:00	2	Temperatura media	20.6
16482	7	Sololá	701	Sololá	1	Sololá	4	Abril	2023-07-04T00:00:00	2024-11-08T15:00:00	4	Temperatura máxima	21.5
16483	7	Sololá	701	Sololá	1	Sololá	4	Abril	2023-07-04T00:00:00	2024-11-08T15:00:00	3	Temperatura mínima	20.6
16484	7	Sololá	701	Sololá	1	Sololá	4	Abril	2023-07-04T00:00:00	2024-11-08T15:00:00	5	Humedad	74
16485	7	Sololá	701	Sololá	1	Sololá	4	Abril	2023-07-04T00:00:00	2024-11-08T15:00:00	6	Velocidad del viento	1.6
16486	7	Sololá	701	Sololá	1	Sololá	4	Abril	2023-07-04T00:00:00	2024-11-08T15:00:00	7	Dirección del viento	1.61
16487	7	Sololá	701	Sololá	1	Sololá	4	Abril	2023-07-04T00:00:00	2024-11-08T15:00:00	1	Precipitación	0
16488	7	Sololá	701	Sololá	1	Sololá	4	Abril	2023-07-04T00:00:00	2024-11-08T15:00:00	8	Radiación solar	192
16489	7	Sololá	701	Sololá	1	Sololá	4	Abril	2023-07-04T00:00:00	2024-11-08T16:00:00	2	Temperatura media	19.1
16490	7	Sololá	701	Sololá	1	Sololá	4	Abril	2023-07-04T00:00:00	2024-11-08T16:00:00	4	Temperatura máxima	20.6
16491	7	Sololá	701	Sololá	1	Sololá	4	Abril	2023-07-04T00:00:00	2024-11-08T16:00:00	3	Temperatura mínima	19.1
16492	7	Sololá	701	Sololá	1	Sololá	4	Abril	2023-07-04T00:00:00	2024-11-08T16:00:00	5	Humedad	80
16493	7	Sololá	701	Sololá	1	Sololá	4	Abril	2023-07-04T00:00:00	2024-11-08T16:00:00	6	Velocidad del viento	0
16494	7	Sololá	701	Sololá	1	Sololá	4	Abril	2023-07-04T00:00:00	2024-11-08T16:00:00	7	Dirección del viento	0
16495	7	Sololá	701	Sololá	1	Sololá	4	Abril	2023-07-04T00:00:00	2024-11-08T16:00:00	1	Precipitación	0
16496	7	Sololá	701	Sololá	1	Sololá	4	Abril	2023-07-04T00:00:00	2024-11-08T16:00:00	8	Radiación solar	119
16497	7	Sololá	701	Sololá	1	Sololá	4	Abril	2023-07-04T00:00:00	2024-11-08T17:00:00	2	Temperatura media	18.7
16498	7	Sololá	701	Sololá	1	Sololá	4	Abril	2023-07-04T00:00:00	2024-11-08T17:00:00	4	Temperatura máxima	19.1
16499	7	Sololá	701	Sololá	1	Sololá	4	Abril	2023-07-04T00:00:00	2024-11-08T17:00:00	3	Temperatura mínima	18.4
16500	7	Sololá	701	Sololá	1	Sololá	4	Abril	2023-07-04T00:00:00	2024-11-08T17:00:00	5	Humedad	81
16501	7	Sololá	701	Sololá	1	Sololá	4	Abril	2023-07-04T00:00:00	2024-11-08T17:00:00	6	Velocidad del viento	0
16502	7	Sololá	701	Sololá	1	Sololá	4	Abril	2023-07-04T00:00:00	2024-11-08T17:00:00	7	Dirección del viento	0
16503	7	Sololá	701	Sololá	1	Sololá	4	Abril	2023-07-04T00:00:00	2024-11-08T17:00:00	1	Precipitación	0
16504	7	Sololá	701	Sololá	1	Sololá	4	Abril	2023-07-04T00:00:00	2024-11-08T17:00:00	8	Radiación solar	75
16505	7	Sololá	701	Sololá	1	Sololá	4	Abril	2023-07-04T00:00:00	2024-11-08T18:00:00	2	Temperatura media	18
16506	7	Sololá	701	Sololá	1	Sololá	4	Abril	2023-07-04T00:00:00	2024-11-08T18:00:00	4	Temperatura máxima	18.7
16507	7	Sololá	701	Sololá	1	Sololá	4	Abril	2023-07-04T00:00:00	2024-11-08T18:00:00	3	Temperatura mínima	18
16508	7	Sololá	701	Sololá	1	Sololá	4	Abril	2023-07-04T00:00:00	2024-11-08T18:00:00	5	Humedad	85
16509	7	Sololá	701	Sololá	1	Sololá	4	Abril	2023-07-04T00:00:00	2024-11-08T18:00:00	6	Velocidad del viento	0
16510	7	Sololá	701	Sololá	1	Sololá	4	Abril	2023-07-04T00:00:00	2024-11-08T18:00:00	7	Dirección del viento	0
16511	7	Sololá	701	Sololá	1	Sololá	4	Abril	2023-07-04T00:00:00	2024-11-08T18:00:00	1	Precipitación	0
16512	7	Sololá	701	Sololá	1	Sololá	4	Abril	2023-07-04T00:00:00	2024-11-08T18:00:00	8	Radiación solar	32
16513	7	Sololá	701	Sololá	1	Sololá	4	Abril	2023-07-04T00:00:00	2024-11-08T19:00:00	2	Temperatura media	17
16514	7	Sololá	701	Sololá	1	Sololá	4	Abril	2023-07-04T00:00:00	2024-11-08T19:00:00	4	Temperatura máxima	18
16515	7	Sololá	701	Sololá	1	Sololá	4	Abril	2023-07-04T00:00:00	2024-11-08T19:00:00	3	Temperatura mínima	17
16516	7	Sololá	701	Sololá	1	Sololá	4	Abril	2023-07-04T00:00:00	2024-11-08T19:00:00	5	Humedad	89
16517	7	Sololá	701	Sololá	1	Sololá	4	Abril	2023-07-04T00:00:00	2024-11-08T19:00:00	6	Velocidad del viento	0
16518	7	Sololá	701	Sololá	1	Sololá	4	Abril	2023-07-04T00:00:00	2024-11-08T19:00:00	7	Dirección del viento	0
16519	7	Sololá	701	Sololá	1	Sololá	4	Abril	2023-07-04T00:00:00	2024-11-08T19:00:00	1	Precipitación	0
16520	7	Sololá	701	Sololá	1	Sololá	4	Abril	2023-07-04T00:00:00	2024-11-08T19:00:00	8	Radiación solar	0
16521	7	Sololá	701	Sololá	1	Sololá	4	Abril	2023-07-04T00:00:00	2024-11-08T20:00:00	2	Temperatura media	16.1
16522	7	Sololá	701	Sololá	1	Sololá	4	Abril	2023-07-04T00:00:00	2024-11-08T20:00:00	4	Temperatura máxima	17
16523	7	Sololá	701	Sololá	1	Sololá	4	Abril	2023-07-04T00:00:00	2024-11-08T20:00:00	3	Temperatura mínima	16.1
16524	7	Sololá	701	Sololá	1	Sololá	4	Abril	2023-07-04T00:00:00	2024-11-08T20:00:00	5	Humedad	83
16525	7	Sololá	701	Sololá	1	Sololá	4	Abril	2023-07-04T00:00:00	2024-11-08T20:00:00	6	Velocidad del viento	0
16526	7	Sololá	701	Sololá	1	Sololá	4	Abril	2023-07-04T00:00:00	2024-11-08T20:00:00	7	Dirección del viento	0
16527	7	Sololá	701	Sololá	1	Sololá	4	Abril	2023-07-04T00:00:00	2024-11-08T20:00:00	1	Precipitación	0
16528	7	Sololá	701	Sololá	1	Sololá	4	Abril	2023-07-04T00:00:00	2024-11-08T20:00:00	8	Radiación solar	0
16529	7	Sololá	701	Sololá	1	Sololá	4	Abril	2023-07-04T00:00:00	2024-11-08T21:00:00	2	Temperatura media	15.5
16530	7	Sololá	701	Sololá	1	Sololá	4	Abril	2023-07-04T00:00:00	2024-11-08T21:00:00	4	Temperatura máxima	16.3
16531	7	Sololá	701	Sololá	1	Sololá	4	Abril	2023-07-04T00:00:00	2024-11-08T21:00:00	3	Temperatura mínima	15.5
16532	7	Sololá	701	Sololá	1	Sololá	4	Abril	2023-07-04T00:00:00	2024-11-08T21:00:00	5	Humedad	78
16533	7	Sololá	701	Sololá	1	Sololá	4	Abril	2023-07-04T00:00:00	2024-11-08T21:00:00	6	Velocidad del viento	0
16534	7	Sololá	701	Sololá	1	Sololá	4	Abril	2023-07-04T00:00:00	2024-11-08T21:00:00	7	Dirección del viento	0
16535	7	Sololá	701	Sololá	1	Sololá	4	Abril	2023-07-04T00:00:00	2024-11-08T21:00:00	1	Precipitación	0
16536	7	Sololá	701	Sololá	1	Sololá	4	Abril	2023-07-04T00:00:00	2024-11-08T21:00:00	8	Radiación solar	0
16537	7	Sololá	701	Sololá	1	Sololá	4	Abril	2023-07-04T00:00:00	2024-11-08T22:00:00	2	Temperatura media	14.9
16538	7	Sololá	701	Sololá	1	Sololá	4	Abril	2023-07-04T00:00:00	2024-11-08T22:00:00	4	Temperatura máxima	15.5
16539	7	Sololá	701	Sololá	1	Sololá	4	Abril	2023-07-04T00:00:00	2024-11-08T22:00:00	3	Temperatura mínima	14.9
16540	7	Sololá	701	Sololá	1	Sololá	4	Abril	2023-07-04T00:00:00	2024-11-08T22:00:00	5	Humedad	81
16541	7	Sololá	701	Sololá	1	Sololá	4	Abril	2023-07-04T00:00:00	2024-11-08T22:00:00	6	Velocidad del viento	0
16542	7	Sololá	701	Sololá	1	Sololá	4	Abril	2023-07-04T00:00:00	2024-11-08T22:00:00	7	Dirección del viento	0
16543	7	Sololá	701	Sololá	1	Sololá	4	Abril	2023-07-04T00:00:00	2024-11-08T22:00:00	1	Precipitación	0
16544	7	Sololá	701	Sololá	1	Sololá	4	Abril	2023-07-04T00:00:00	2024-11-08T22:00:00	8	Radiación solar	0
16545	7	Sololá	701	Sololá	1	Sololá	4	Abril	2023-07-04T00:00:00	2024-11-08T23:00:00	2	Temperatura media	14.5
16546	7	Sololá	701	Sololá	1	Sololá	4	Abril	2023-07-04T00:00:00	2024-11-08T23:00:00	4	Temperatura máxima	14.9
16547	7	Sololá	701	Sololá	1	Sololá	4	Abril	2023-07-04T00:00:00	2024-11-08T23:00:00	3	Temperatura mínima	14.5
16548	7	Sololá	701	Sololá	1	Sololá	4	Abril	2023-07-04T00:00:00	2024-11-08T23:00:00	5	Humedad	82
16549	7	Sololá	701	Sololá	1	Sololá	4	Abril	2023-07-04T00:00:00	2024-11-08T23:00:00	6	Velocidad del viento	0
16550	7	Sololá	701	Sololá	1	Sololá	4	Abril	2023-07-04T00:00:00	2024-11-08T23:00:00	7	Dirección del viento	0
16551	7	Sololá	701	Sololá	1	Sololá	4	Abril	2023-07-04T00:00:00	2024-11-08T23:00:00	1	Precipitación	0
16552	7	Sololá	701	Sololá	1	Sololá	4	Abril	2023-07-04T00:00:00	2024-11-08T23:00:00	8	Radiación solar	0
16553	7	Sololá	701	Sololá	1	Sololá	4	Abril	2023-08-04T00:00:00	2024-11-08T00:00:00	2	Temperatura media	14.1
16554	7	Sololá	701	Sololá	1	Sololá	4	Abril	2023-08-04T00:00:00	2024-11-08T00:00:00	4	Temperatura máxima	14.5
16555	7	Sololá	701	Sololá	1	Sololá	4	Abril	2023-08-04T00:00:00	2024-11-08T00:00:00	3	Temperatura mínima	13.9
16556	7	Sololá	701	Sololá	1	Sololá	4	Abril	2023-08-04T00:00:00	2024-11-08T00:00:00	5	Humedad	84
16557	7	Sololá	701	Sololá	1	Sololá	4	Abril	2023-08-04T00:00:00	2024-11-08T00:00:00	6	Velocidad del viento	0
16558	7	Sololá	701	Sololá	1	Sololá	4	Abril	2023-08-04T00:00:00	2024-11-08T00:00:00	7	Dirección del viento	0
16559	7	Sololá	701	Sololá	1	Sololá	4	Abril	2023-08-04T00:00:00	2024-11-08T00:00:00	1	Precipitación	0
16560	7	Sololá	701	Sololá	1	Sololá	4	Abril	2023-08-04T00:00:00	2024-11-08T00:00:00	8	Radiación solar	0
16561	7	Sololá	701	Sololá	1	Sololá	4	Abril	2023-08-04T00:00:00	2024-11-08T01:00:00	2	Temperatura media	14.5
16562	7	Sololá	701	Sololá	1	Sololá	4	Abril	2023-08-04T00:00:00	2024-11-08T01:00:00	4	Temperatura máxima	14.5
16563	7	Sololá	701	Sololá	1	Sololá	4	Abril	2023-08-04T00:00:00	2024-11-08T01:00:00	3	Temperatura mínima	14
16564	7	Sololá	701	Sololá	1	Sololá	4	Abril	2023-08-04T00:00:00	2024-11-08T01:00:00	5	Humedad	84
16565	7	Sololá	701	Sololá	1	Sololá	4	Abril	2023-08-04T00:00:00	2024-11-08T01:00:00	6	Velocidad del viento	0
16566	7	Sololá	701	Sololá	1	Sololá	4	Abril	2023-08-04T00:00:00	2024-11-08T01:00:00	7	Dirección del viento	0
16567	7	Sololá	701	Sololá	1	Sololá	4	Abril	2023-08-04T00:00:00	2024-11-08T01:00:00	1	Precipitación	0
16568	7	Sololá	701	Sololá	1	Sololá	4	Abril	2023-08-04T00:00:00	2024-11-08T01:00:00	8	Radiación solar	0
16569	7	Sololá	701	Sololá	1	Sololá	4	Abril	2023-08-04T00:00:00	2024-11-08T02:00:00	2	Temperatura media	14.7
16570	7	Sololá	701	Sololá	1	Sololá	4	Abril	2023-08-04T00:00:00	2024-11-08T02:00:00	4	Temperatura máxima	14.7
16571	7	Sololá	701	Sololá	1	Sololá	4	Abril	2023-08-04T00:00:00	2024-11-08T02:00:00	3	Temperatura mínima	14.4
16572	7	Sololá	701	Sololá	1	Sololá	4	Abril	2023-08-04T00:00:00	2024-11-08T02:00:00	5	Humedad	83
16573	7	Sololá	701	Sololá	1	Sololá	4	Abril	2023-08-04T00:00:00	2024-11-08T02:00:00	6	Velocidad del viento	0
16574	7	Sololá	701	Sololá	1	Sololá	4	Abril	2023-08-04T00:00:00	2024-11-08T02:00:00	7	Dirección del viento	0
16575	7	Sololá	701	Sololá	1	Sololá	4	Abril	2023-08-04T00:00:00	2024-11-08T02:00:00	1	Precipitación	0
16576	7	Sololá	701	Sololá	1	Sololá	4	Abril	2023-08-04T00:00:00	2024-11-08T02:00:00	8	Radiación solar	0
16577	7	Sololá	701	Sololá	1	Sololá	4	Abril	2023-08-04T00:00:00	2024-11-08T03:00:00	2	Temperatura media	14.7
16578	7	Sololá	701	Sololá	1	Sololá	4	Abril	2023-08-04T00:00:00	2024-11-08T03:00:00	4	Temperatura máxima	14.7
16579	7	Sololá	701	Sololá	1	Sololá	4	Abril	2023-08-04T00:00:00	2024-11-08T03:00:00	3	Temperatura mínima	14.6
16580	7	Sololá	701	Sololá	1	Sololá	4	Abril	2023-08-04T00:00:00	2024-11-08T03:00:00	5	Humedad	81
16581	7	Sololá	701	Sololá	1	Sololá	4	Abril	2023-08-04T00:00:00	2024-11-08T03:00:00	6	Velocidad del viento	0
16582	7	Sololá	701	Sololá	1	Sololá	4	Abril	2023-08-04T00:00:00	2024-11-08T03:00:00	7	Dirección del viento	0
16583	7	Sololá	701	Sololá	1	Sololá	4	Abril	2023-08-04T00:00:00	2024-11-08T03:00:00	1	Precipitación	0
16584	7	Sololá	701	Sololá	1	Sololá	4	Abril	2023-08-04T00:00:00	2024-11-08T03:00:00	8	Radiación solar	0
16585	7	Sololá	701	Sololá	1	Sololá	4	Abril	2023-08-04T00:00:00	2024-11-08T04:00:00	2	Temperatura media	13
16586	7	Sololá	701	Sololá	1	Sololá	4	Abril	2023-08-04T00:00:00	2024-11-08T04:00:00	4	Temperatura máxima	14.7
16587	7	Sololá	701	Sololá	1	Sololá	4	Abril	2023-08-04T00:00:00	2024-11-08T04:00:00	3	Temperatura mínima	12.9
16588	7	Sololá	701	Sololá	1	Sololá	4	Abril	2023-08-04T00:00:00	2024-11-08T04:00:00	5	Humedad	84
16589	7	Sololá	701	Sololá	1	Sololá	4	Abril	2023-08-04T00:00:00	2024-11-08T04:00:00	6	Velocidad del viento	0
16590	7	Sololá	701	Sololá	1	Sololá	4	Abril	2023-08-04T00:00:00	2024-11-08T04:00:00	7	Dirección del viento	0
16591	7	Sololá	701	Sololá	1	Sololá	4	Abril	2023-08-04T00:00:00	2024-11-08T04:00:00	1	Precipitación	0
16592	7	Sololá	701	Sololá	1	Sololá	4	Abril	2023-08-04T00:00:00	2024-11-08T04:00:00	8	Radiación solar	0
16593	7	Sololá	701	Sololá	1	Sololá	4	Abril	2023-08-04T00:00:00	2024-11-08T05:00:00	2	Temperatura media	12
16594	7	Sololá	701	Sololá	1	Sololá	4	Abril	2023-08-04T00:00:00	2024-11-08T05:00:00	4	Temperatura máxima	13
16595	7	Sololá	701	Sololá	1	Sololá	4	Abril	2023-08-04T00:00:00	2024-11-08T05:00:00	3	Temperatura mínima	12
16596	7	Sololá	701	Sololá	1	Sololá	4	Abril	2023-08-04T00:00:00	2024-11-08T05:00:00	5	Humedad	86
16597	7	Sololá	701	Sololá	1	Sololá	4	Abril	2023-08-04T00:00:00	2024-11-08T05:00:00	6	Velocidad del viento	0
16598	7	Sololá	701	Sololá	1	Sololá	4	Abril	2023-08-04T00:00:00	2024-11-08T05:00:00	7	Dirección del viento	0
16599	7	Sololá	701	Sololá	1	Sololá	4	Abril	2023-08-04T00:00:00	2024-11-08T05:00:00	1	Precipitación	0
16600	7	Sololá	701	Sololá	1	Sololá	4	Abril	2023-08-04T00:00:00	2024-11-08T05:00:00	8	Radiación solar	0
16601	7	Sololá	701	Sololá	1	Sololá	4	Abril	2023-08-04T00:00:00	2024-11-08T06:00:00	2	Temperatura media	11.1
16602	7	Sololá	701	Sololá	1	Sololá	4	Abril	2023-08-04T00:00:00	2024-11-08T06:00:00	4	Temperatura máxima	12
16603	7	Sololá	701	Sololá	1	Sololá	4	Abril	2023-08-04T00:00:00	2024-11-08T06:00:00	3	Temperatura mínima	11.1
16604	7	Sololá	701	Sololá	1	Sololá	4	Abril	2023-08-04T00:00:00	2024-11-08T06:00:00	5	Humedad	88
16605	7	Sololá	701	Sololá	1	Sololá	4	Abril	2023-08-04T00:00:00	2024-11-08T06:00:00	6	Velocidad del viento	0
16606	7	Sololá	701	Sololá	1	Sololá	4	Abril	2023-08-04T00:00:00	2024-11-08T06:00:00	7	Dirección del viento	0
16607	7	Sololá	701	Sololá	1	Sololá	4	Abril	2023-08-04T00:00:00	2024-11-08T06:00:00	1	Precipitación	0
16608	7	Sololá	701	Sololá	1	Sololá	4	Abril	2023-08-04T00:00:00	2024-11-08T06:00:00	8	Radiación solar	0
16609	7	Sololá	701	Sololá	1	Sololá	4	Abril	2023-08-04T00:00:00	2024-11-08T07:00:00	2	Temperatura media	11.4
16610	7	Sololá	701	Sololá	1	Sololá	4	Abril	2023-08-04T00:00:00	2024-11-08T07:00:00	4	Temperatura máxima	11.4
16611	7	Sololá	701	Sololá	1	Sololá	4	Abril	2023-08-04T00:00:00	2024-11-08T07:00:00	3	Temperatura mínima	10.9
16612	7	Sololá	701	Sololá	1	Sololá	4	Abril	2023-08-04T00:00:00	2024-11-08T07:00:00	5	Humedad	85
16613	7	Sololá	701	Sololá	1	Sololá	4	Abril	2023-08-04T00:00:00	2024-11-08T07:00:00	6	Velocidad del viento	0
16614	7	Sololá	701	Sololá	1	Sololá	4	Abril	2023-08-04T00:00:00	2024-11-08T07:00:00	7	Dirección del viento	0
16615	7	Sololá	701	Sololá	1	Sololá	4	Abril	2023-08-04T00:00:00	2024-11-08T07:00:00	1	Precipitación	0
16616	7	Sololá	701	Sololá	1	Sololá	4	Abril	2023-08-04T00:00:00	2024-11-08T07:00:00	8	Radiación solar	14
16617	7	Sololá	701	Sololá	1	Sololá	4	Abril	2023-08-04T00:00:00	2024-11-08T08:00:00	2	Temperatura media	11.7
16618	7	Sololá	701	Sololá	1	Sololá	4	Abril	2023-08-04T00:00:00	2024-11-08T08:00:00	4	Temperatura máxima	11.7
16619	7	Sololá	701	Sololá	1	Sololá	4	Abril	2023-08-04T00:00:00	2024-11-08T08:00:00	3	Temperatura mínima	11.2
16620	7	Sololá	701	Sololá	1	Sololá	4	Abril	2023-08-04T00:00:00	2024-11-08T08:00:00	5	Humedad	83
16621	7	Sololá	701	Sololá	1	Sololá	4	Abril	2023-08-04T00:00:00	2024-11-08T08:00:00	6	Velocidad del viento	0
16622	7	Sololá	701	Sololá	1	Sololá	4	Abril	2023-08-04T00:00:00	2024-11-08T08:00:00	7	Dirección del viento	0
16623	7	Sololá	701	Sololá	1	Sololá	4	Abril	2023-08-04T00:00:00	2024-11-08T08:00:00	1	Precipitación	0
16624	7	Sololá	701	Sololá	1	Sololá	4	Abril	2023-08-04T00:00:00	2024-11-08T08:00:00	8	Radiación solar	241
16625	7	Sololá	701	Sololá	1	Sololá	4	Abril	2023-08-04T00:00:00	2024-11-08T09:00:00	2	Temperatura media	16.5
16626	7	Sololá	701	Sololá	1	Sololá	4	Abril	2023-08-04T00:00:00	2024-11-08T09:00:00	4	Temperatura máxima	16.5
16627	7	Sololá	701	Sololá	1	Sololá	4	Abril	2023-08-04T00:00:00	2024-11-08T09:00:00	3	Temperatura mínima	11.7
16628	7	Sololá	701	Sololá	1	Sololá	4	Abril	2023-08-04T00:00:00	2024-11-08T09:00:00	5	Humedad	75
16629	7	Sololá	701	Sololá	1	Sololá	4	Abril	2023-08-04T00:00:00	2024-11-08T09:00:00	6	Velocidad del viento	0
16630	7	Sololá	701	Sololá	1	Sololá	4	Abril	2023-08-04T00:00:00	2024-11-08T09:00:00	7	Dirección del viento	0
16631	7	Sololá	701	Sololá	1	Sololá	4	Abril	2023-08-04T00:00:00	2024-11-08T09:00:00	1	Precipitación	0
16632	7	Sololá	701	Sololá	1	Sololá	4	Abril	2023-08-04T00:00:00	2024-11-08T09:00:00	8	Radiación solar	595
16633	7	Sololá	701	Sololá	1	Sololá	4	Abril	2023-08-04T00:00:00	2024-11-08T10:00:00	2	Temperatura media	18.5
16634	7	Sololá	701	Sololá	1	Sololá	4	Abril	2023-08-04T00:00:00	2024-11-08T10:00:00	4	Temperatura máxima	18.6
16635	7	Sololá	701	Sololá	1	Sololá	4	Abril	2023-08-04T00:00:00	2024-11-08T10:00:00	3	Temperatura mínima	16.6
16636	7	Sololá	701	Sololá	1	Sololá	4	Abril	2023-08-04T00:00:00	2024-11-08T10:00:00	5	Humedad	70
16637	7	Sololá	701	Sololá	1	Sololá	4	Abril	2023-08-04T00:00:00	2024-11-08T10:00:00	6	Velocidad del viento	0
16638	7	Sololá	701	Sololá	1	Sololá	4	Abril	2023-08-04T00:00:00	2024-11-08T10:00:00	7	Dirección del viento	0
16639	7	Sololá	701	Sololá	1	Sololá	4	Abril	2023-08-04T00:00:00	2024-11-08T10:00:00	1	Precipitación	0
16640	7	Sololá	701	Sololá	1	Sololá	4	Abril	2023-08-04T00:00:00	2024-11-08T10:00:00	8	Radiación solar	789
16641	7	Sololá	701	Sololá	1	Sololá	4	Abril	2023-08-04T00:00:00	2024-11-08T11:00:00	2	Temperatura media	19.8
16642	7	Sololá	701	Sololá	1	Sololá	4	Abril	2023-08-04T00:00:00	2024-11-08T11:00:00	4	Temperatura máxima	19.8
16643	7	Sololá	701	Sololá	1	Sololá	4	Abril	2023-08-04T00:00:00	2024-11-08T11:00:00	3	Temperatura mínima	18.5
16644	7	Sololá	701	Sololá	1	Sololá	4	Abril	2023-08-04T00:00:00	2024-11-08T11:00:00	5	Humedad	65
16645	7	Sololá	701	Sololá	1	Sololá	4	Abril	2023-08-04T00:00:00	2024-11-08T11:00:00	6	Velocidad del viento	0
16646	7	Sololá	701	Sololá	1	Sololá	4	Abril	2023-08-04T00:00:00	2024-11-08T11:00:00	7	Dirección del viento	0
16647	7	Sololá	701	Sololá	1	Sololá	4	Abril	2023-08-04T00:00:00	2024-11-08T11:00:00	1	Precipitación	0
16648	7	Sololá	701	Sololá	1	Sololá	4	Abril	2023-08-04T00:00:00	2024-11-08T11:00:00	8	Radiación solar	909
16649	7	Sololá	701	Sololá	1	Sololá	4	Abril	2023-08-04T00:00:00	2024-11-08T12:00:00	2	Temperatura media	20.8
16650	7	Sololá	701	Sololá	1	Sololá	4	Abril	2023-08-04T00:00:00	2024-11-08T12:00:00	4	Temperatura máxima	20.8
16651	7	Sololá	701	Sololá	1	Sololá	4	Abril	2023-08-04T00:00:00	2024-11-08T12:00:00	3	Temperatura mínima	19.8
16652	7	Sololá	701	Sololá	1	Sololá	4	Abril	2023-08-04T00:00:00	2024-11-08T12:00:00	5	Humedad	61
16653	7	Sololá	701	Sololá	1	Sololá	4	Abril	2023-08-04T00:00:00	2024-11-08T12:00:00	6	Velocidad del viento	0
16654	7	Sololá	701	Sololá	1	Sololá	4	Abril	2023-08-04T00:00:00	2024-11-08T12:00:00	7	Dirección del viento	0
16655	7	Sololá	701	Sololá	1	Sololá	4	Abril	2023-08-04T00:00:00	2024-11-08T12:00:00	1	Precipitación	0
16656	7	Sololá	701	Sololá	1	Sololá	4	Abril	2023-08-04T00:00:00	2024-11-08T12:00:00	8	Radiación solar	976
16657	7	Sololá	701	Sololá	1	Sololá	4	Abril	2023-08-04T00:00:00	2024-11-08T13:00:00	2	Temperatura media	21.1
16658	7	Sololá	701	Sololá	1	Sololá	4	Abril	2023-08-04T00:00:00	2024-11-08T13:00:00	4	Temperatura máxima	21.2
16659	7	Sololá	701	Sololá	1	Sololá	4	Abril	2023-08-04T00:00:00	2024-11-08T13:00:00	3	Temperatura mínima	20.8
16660	7	Sololá	701	Sololá	1	Sololá	4	Abril	2023-08-04T00:00:00	2024-11-08T13:00:00	5	Humedad	69
16661	7	Sololá	701	Sololá	1	Sololá	4	Abril	2023-08-04T00:00:00	2024-11-08T13:00:00	6	Velocidad del viento	1.6
16662	7	Sololá	701	Sololá	1	Sololá	4	Abril	2023-08-04T00:00:00	2024-11-08T13:00:00	7	Dirección del viento	1.61
16663	7	Sololá	701	Sololá	1	Sololá	4	Abril	2023-08-04T00:00:00	2024-11-08T13:00:00	1	Precipitación	0
16664	7	Sololá	701	Sololá	1	Sololá	4	Abril	2023-08-04T00:00:00	2024-11-08T13:00:00	8	Radiación solar	1028
16665	7	Sololá	701	Sololá	1	Sololá	4	Abril	2023-08-04T00:00:00	2024-11-08T14:00:00	2	Temperatura media	20.8
16666	7	Sololá	701	Sololá	1	Sololá	4	Abril	2023-08-04T00:00:00	2024-11-08T14:00:00	4	Temperatura máxima	21.4
16667	7	Sololá	701	Sololá	1	Sololá	4	Abril	2023-08-04T00:00:00	2024-11-08T14:00:00	3	Temperatura mínima	20.7
16668	7	Sololá	701	Sololá	1	Sololá	4	Abril	2023-08-04T00:00:00	2024-11-08T14:00:00	5	Humedad	73
16669	7	Sololá	701	Sololá	1	Sololá	4	Abril	2023-08-04T00:00:00	2024-11-08T14:00:00	6	Velocidad del viento	0
16670	7	Sololá	701	Sololá	1	Sololá	4	Abril	2023-08-04T00:00:00	2024-11-08T14:00:00	7	Dirección del viento	0
16671	7	Sololá	701	Sololá	1	Sololá	4	Abril	2023-08-04T00:00:00	2024-11-08T14:00:00	1	Precipitación	0
16672	7	Sololá	701	Sololá	1	Sololá	4	Abril	2023-08-04T00:00:00	2024-11-08T14:00:00	8	Radiación solar	279
16673	7	Sololá	701	Sololá	1	Sololá	4	Abril	2023-08-04T00:00:00	2024-11-08T15:00:00	2	Temperatura media	20.1
16674	7	Sololá	701	Sololá	1	Sololá	4	Abril	2023-08-04T00:00:00	2024-11-08T15:00:00	4	Temperatura máxima	20.9
16675	7	Sololá	701	Sololá	1	Sololá	4	Abril	2023-08-04T00:00:00	2024-11-08T15:00:00	3	Temperatura mínima	19.9
16676	7	Sololá	701	Sololá	1	Sololá	4	Abril	2023-08-04T00:00:00	2024-11-08T15:00:00	5	Humedad	77
16677	7	Sololá	701	Sololá	1	Sololá	4	Abril	2023-08-04T00:00:00	2024-11-08T15:00:00	6	Velocidad del viento	1.6
16678	7	Sololá	701	Sololá	1	Sololá	4	Abril	2023-08-04T00:00:00	2024-11-08T15:00:00	7	Dirección del viento	1.61
16679	7	Sololá	701	Sololá	1	Sololá	4	Abril	2023-08-04T00:00:00	2024-11-08T15:00:00	1	Precipitación	0
16680	7	Sololá	701	Sololá	1	Sololá	4	Abril	2023-08-04T00:00:00	2024-11-08T15:00:00	8	Radiación solar	188
16681	7	Sololá	701	Sololá	1	Sololá	4	Abril	2023-08-04T00:00:00	2024-11-08T16:00:00	2	Temperatura media	19.4
16682	7	Sololá	701	Sololá	1	Sololá	4	Abril	2023-08-04T00:00:00	2024-11-08T16:00:00	4	Temperatura máxima	20.7
16683	7	Sololá	701	Sololá	1	Sololá	4	Abril	2023-08-04T00:00:00	2024-11-08T16:00:00	3	Temperatura mínima	19.4
16684	7	Sololá	701	Sololá	1	Sololá	4	Abril	2023-08-04T00:00:00	2024-11-08T16:00:00	5	Humedad	80
16685	7	Sololá	701	Sololá	1	Sololá	4	Abril	2023-08-04T00:00:00	2024-11-08T16:00:00	6	Velocidad del viento	0
16686	7	Sololá	701	Sololá	1	Sololá	4	Abril	2023-08-04T00:00:00	2024-11-08T16:00:00	7	Dirección del viento	0
16687	7	Sololá	701	Sololá	1	Sololá	4	Abril	2023-08-04T00:00:00	2024-11-08T16:00:00	1	Precipitación	0
16688	7	Sololá	701	Sololá	1	Sololá	4	Abril	2023-08-04T00:00:00	2024-11-08T16:00:00	8	Radiación solar	95
16689	7	Sololá	701	Sololá	1	Sololá	4	Abril	2023-08-04T00:00:00	2024-11-08T17:00:00	2	Temperatura media	18.3
16690	7	Sololá	701	Sololá	1	Sololá	4	Abril	2023-08-04T00:00:00	2024-11-08T17:00:00	4	Temperatura máxima	19.4
16691	7	Sololá	701	Sololá	1	Sololá	4	Abril	2023-08-04T00:00:00	2024-11-08T17:00:00	3	Temperatura mínima	18.2
16692	7	Sololá	701	Sololá	1	Sololá	4	Abril	2023-08-04T00:00:00	2024-11-08T17:00:00	5	Humedad	85
16693	7	Sololá	701	Sololá	1	Sololá	4	Abril	2023-08-04T00:00:00	2024-11-08T17:00:00	6	Velocidad del viento	0
16694	7	Sololá	701	Sololá	1	Sololá	4	Abril	2023-08-04T00:00:00	2024-11-08T17:00:00	7	Dirección del viento	0
16695	7	Sololá	701	Sololá	1	Sololá	4	Abril	2023-08-04T00:00:00	2024-11-08T17:00:00	1	Precipitación	0
16696	7	Sololá	701	Sololá	1	Sololá	4	Abril	2023-08-04T00:00:00	2024-11-08T17:00:00	8	Radiación solar	61
16697	7	Sololá	701	Sololá	1	Sololá	4	Abril	2023-08-04T00:00:00	2024-11-08T18:00:00	2	Temperatura media	18.2
16698	7	Sololá	701	Sololá	1	Sololá	4	Abril	2023-08-04T00:00:00	2024-11-08T18:00:00	4	Temperatura máxima	18.3
16699	7	Sololá	701	Sololá	1	Sololá	4	Abril	2023-08-04T00:00:00	2024-11-08T18:00:00	3	Temperatura mínima	18
16700	7	Sololá	701	Sololá	1	Sololá	4	Abril	2023-08-04T00:00:00	2024-11-08T18:00:00	5	Humedad	86
16701	7	Sololá	701	Sololá	1	Sololá	4	Abril	2023-08-04T00:00:00	2024-11-08T18:00:00	6	Velocidad del viento	0
16702	7	Sololá	701	Sololá	1	Sololá	4	Abril	2023-08-04T00:00:00	2024-11-08T18:00:00	7	Dirección del viento	0
16703	7	Sololá	701	Sololá	1	Sololá	4	Abril	2023-08-04T00:00:00	2024-11-08T18:00:00	1	Precipitación	0
16704	7	Sololá	701	Sololá	1	Sololá	4	Abril	2023-08-04T00:00:00	2024-11-08T18:00:00	8	Radiación solar	28
16705	7	Sololá	701	Sololá	1	Sololá	4	Abril	2023-08-04T00:00:00	2024-11-08T19:00:00	2	Temperatura media	17.8
16706	7	Sololá	701	Sololá	1	Sololá	4	Abril	2023-08-04T00:00:00	2024-11-08T19:00:00	4	Temperatura máxima	18.2
16707	7	Sololá	701	Sololá	1	Sololá	4	Abril	2023-08-04T00:00:00	2024-11-08T19:00:00	3	Temperatura mínima	17.8
16708	7	Sololá	701	Sololá	1	Sololá	4	Abril	2023-08-04T00:00:00	2024-11-08T19:00:00	5	Humedad	62
16709	7	Sololá	701	Sololá	1	Sololá	4	Abril	2023-08-04T00:00:00	2024-11-08T19:00:00	6	Velocidad del viento	0
16710	7	Sololá	701	Sololá	1	Sololá	4	Abril	2023-08-04T00:00:00	2024-11-08T19:00:00	7	Dirección del viento	0
16711	7	Sololá	701	Sololá	1	Sololá	4	Abril	2023-08-04T00:00:00	2024-11-08T19:00:00	1	Precipitación	0
16712	7	Sololá	701	Sololá	1	Sololá	4	Abril	2023-08-04T00:00:00	2024-11-08T19:00:00	8	Radiación solar	0
16713	7	Sololá	701	Sololá	1	Sololá	4	Abril	2023-08-04T00:00:00	2024-11-08T20:00:00	2	Temperatura media	16.1
16714	7	Sololá	701	Sololá	1	Sololá	4	Abril	2023-08-04T00:00:00	2024-11-08T20:00:00	4	Temperatura máxima	17.8
16715	7	Sololá	701	Sololá	1	Sololá	4	Abril	2023-08-04T00:00:00	2024-11-08T20:00:00	3	Temperatura mínima	16.1
16716	7	Sololá	701	Sololá	1	Sololá	4	Abril	2023-08-04T00:00:00	2024-11-08T20:00:00	5	Humedad	68
16717	7	Sololá	701	Sololá	1	Sololá	4	Abril	2023-08-04T00:00:00	2024-11-08T20:00:00	6	Velocidad del viento	0
16718	7	Sololá	701	Sololá	1	Sololá	4	Abril	2023-08-04T00:00:00	2024-11-08T20:00:00	7	Dirección del viento	0
16719	7	Sololá	701	Sololá	1	Sololá	4	Abril	2023-08-04T00:00:00	2024-11-08T20:00:00	1	Precipitación	0
16720	7	Sololá	701	Sololá	1	Sololá	4	Abril	2023-08-04T00:00:00	2024-11-08T20:00:00	8	Radiación solar	0
16721	7	Sololá	701	Sololá	1	Sololá	4	Abril	2023-08-04T00:00:00	2024-11-08T21:00:00	2	Temperatura media	14.4
16722	7	Sololá	701	Sololá	1	Sololá	4	Abril	2023-08-04T00:00:00	2024-11-08T21:00:00	4	Temperatura máxima	16.1
16723	7	Sololá	701	Sololá	1	Sololá	4	Abril	2023-08-04T00:00:00	2024-11-08T21:00:00	3	Temperatura mínima	14.4
16724	7	Sololá	701	Sololá	1	Sololá	4	Abril	2023-08-04T00:00:00	2024-11-08T21:00:00	5	Humedad	72
16725	7	Sololá	701	Sololá	1	Sololá	4	Abril	2023-08-04T00:00:00	2024-11-08T21:00:00	6	Velocidad del viento	0
16726	7	Sololá	701	Sololá	1	Sololá	4	Abril	2023-08-04T00:00:00	2024-11-08T21:00:00	7	Dirección del viento	0
16727	7	Sololá	701	Sololá	1	Sololá	4	Abril	2023-08-04T00:00:00	2024-11-08T21:00:00	1	Precipitación	0
16728	7	Sololá	701	Sololá	1	Sololá	4	Abril	2023-08-04T00:00:00	2024-11-08T21:00:00	8	Radiación solar	0
16729	7	Sololá	701	Sololá	1	Sololá	4	Abril	2023-08-04T00:00:00	2024-11-08T22:00:00	2	Temperatura media	13.1
16730	7	Sololá	701	Sololá	1	Sololá	4	Abril	2023-08-04T00:00:00	2024-11-08T22:00:00	4	Temperatura máxima	14.4
16731	7	Sololá	701	Sololá	1	Sololá	4	Abril	2023-08-04T00:00:00	2024-11-08T22:00:00	3	Temperatura mínima	13.1
16732	7	Sololá	701	Sololá	1	Sololá	4	Abril	2023-08-04T00:00:00	2024-11-08T22:00:00	5	Humedad	75
16733	7	Sololá	701	Sololá	1	Sololá	4	Abril	2023-08-04T00:00:00	2024-11-08T22:00:00	6	Velocidad del viento	0
16734	7	Sololá	701	Sololá	1	Sololá	4	Abril	2023-08-04T00:00:00	2024-11-08T22:00:00	7	Dirección del viento	0
16735	7	Sololá	701	Sololá	1	Sololá	4	Abril	2023-08-04T00:00:00	2024-11-08T22:00:00	1	Precipitación	0
16736	7	Sololá	701	Sololá	1	Sololá	4	Abril	2023-08-04T00:00:00	2024-11-08T22:00:00	8	Radiación solar	0
16737	7	Sololá	701	Sololá	1	Sololá	4	Abril	2023-08-04T00:00:00	2024-11-08T23:00:00	2	Temperatura media	12.6
16738	7	Sololá	701	Sololá	1	Sololá	4	Abril	2023-08-04T00:00:00	2024-11-08T23:00:00	4	Temperatura máxima	13.1
16739	7	Sololá	701	Sololá	1	Sololá	4	Abril	2023-08-04T00:00:00	2024-11-08T23:00:00	3	Temperatura mínima	12.6
16740	7	Sololá	701	Sololá	1	Sololá	4	Abril	2023-08-04T00:00:00	2024-11-08T23:00:00	5	Humedad	78
16741	7	Sololá	701	Sololá	1	Sololá	4	Abril	2023-08-04T00:00:00	2024-11-08T23:00:00	6	Velocidad del viento	0
16742	7	Sololá	701	Sololá	1	Sololá	4	Abril	2023-08-04T00:00:00	2024-11-08T23:00:00	7	Dirección del viento	0
16743	7	Sololá	701	Sololá	1	Sololá	4	Abril	2023-08-04T00:00:00	2024-11-08T23:00:00	1	Precipitación	0
16744	7	Sololá	701	Sololá	1	Sololá	4	Abril	2023-08-04T00:00:00	2024-11-08T23:00:00	8	Radiación solar	0
16745	7	Sololá	701	Sololá	1	Sololá	4	Abril	2023-09-04T00:00:00	2024-11-08T00:00:00	2	Temperatura media	12
16746	7	Sololá	701	Sololá	1	Sololá	4	Abril	2023-09-04T00:00:00	2024-11-08T00:00:00	4	Temperatura máxima	12.6
16747	7	Sololá	701	Sololá	1	Sololá	4	Abril	2023-09-04T00:00:00	2024-11-08T00:00:00	3	Temperatura mínima	12
16748	7	Sololá	701	Sololá	1	Sololá	4	Abril	2023-09-04T00:00:00	2024-11-08T00:00:00	5	Humedad	75
16749	7	Sololá	701	Sololá	1	Sololá	4	Abril	2023-09-04T00:00:00	2024-11-08T00:00:00	6	Velocidad del viento	0
16750	7	Sololá	701	Sololá	1	Sololá	4	Abril	2023-09-04T00:00:00	2024-11-08T00:00:00	7	Dirección del viento	0
16751	7	Sololá	701	Sololá	1	Sololá	4	Abril	2023-09-04T00:00:00	2024-11-08T00:00:00	1	Precipitación	0
16752	7	Sololá	701	Sololá	1	Sololá	4	Abril	2023-09-04T00:00:00	2024-11-08T00:00:00	8	Radiación solar	0
16753	7	Sololá	701	Sololá	1	Sololá	4	Abril	2023-09-04T00:00:00	2024-11-08T01:00:00	2	Temperatura media	11.3
16754	7	Sololá	701	Sololá	1	Sololá	4	Abril	2023-09-04T00:00:00	2024-11-08T01:00:00	4	Temperatura máxima	12.1
16755	7	Sololá	701	Sololá	1	Sololá	4	Abril	2023-09-04T00:00:00	2024-11-08T01:00:00	3	Temperatura mínima	11.3
16756	7	Sololá	701	Sololá	1	Sololá	4	Abril	2023-09-04T00:00:00	2024-11-08T01:00:00	5	Humedad	77
16757	7	Sololá	701	Sololá	1	Sololá	4	Abril	2023-09-04T00:00:00	2024-11-08T01:00:00	6	Velocidad del viento	0
16758	7	Sololá	701	Sololá	1	Sololá	4	Abril	2023-09-04T00:00:00	2024-11-08T01:00:00	7	Dirección del viento	0
16759	7	Sololá	701	Sololá	1	Sololá	4	Abril	2023-09-04T00:00:00	2024-11-08T01:00:00	1	Precipitación	0
16760	7	Sololá	701	Sololá	1	Sololá	4	Abril	2023-09-04T00:00:00	2024-11-08T01:00:00	8	Radiación solar	0
16761	7	Sololá	701	Sololá	1	Sololá	4	Abril	2023-09-04T00:00:00	2024-11-08T02:00:00	2	Temperatura media	11.4
16762	7	Sololá	701	Sololá	1	Sololá	4	Abril	2023-09-04T00:00:00	2024-11-08T02:00:00	4	Temperatura máxima	11.5
16763	7	Sololá	701	Sololá	1	Sololá	4	Abril	2023-09-04T00:00:00	2024-11-08T02:00:00	3	Temperatura mínima	11.1
16764	7	Sololá	701	Sololá	1	Sololá	4	Abril	2023-09-04T00:00:00	2024-11-08T02:00:00	5	Humedad	71
16765	7	Sololá	701	Sololá	1	Sololá	4	Abril	2023-09-04T00:00:00	2024-11-08T02:00:00	6	Velocidad del viento	0
16766	7	Sololá	701	Sololá	1	Sololá	4	Abril	2023-09-04T00:00:00	2024-11-08T02:00:00	7	Dirección del viento	0
16767	7	Sololá	701	Sololá	1	Sololá	4	Abril	2023-09-04T00:00:00	2024-11-08T02:00:00	1	Precipitación	0
16768	7	Sololá	701	Sololá	1	Sololá	4	Abril	2023-09-04T00:00:00	2024-11-08T02:00:00	8	Radiación solar	0
16769	7	Sololá	701	Sololá	1	Sololá	4	Abril	2023-09-04T00:00:00	2024-11-08T03:00:00	2	Temperatura media	11.3
16770	7	Sololá	701	Sololá	1	Sololá	4	Abril	2023-09-04T00:00:00	2024-11-08T03:00:00	4	Temperatura máxima	11.5
16771	7	Sololá	701	Sololá	1	Sololá	4	Abril	2023-09-04T00:00:00	2024-11-08T03:00:00	3	Temperatura mínima	11.2
16772	7	Sololá	701	Sololá	1	Sololá	4	Abril	2023-09-04T00:00:00	2024-11-08T03:00:00	5	Humedad	77
16773	7	Sololá	701	Sololá	1	Sololá	4	Abril	2023-09-04T00:00:00	2024-11-08T03:00:00	6	Velocidad del viento	0
16774	7	Sololá	701	Sololá	1	Sololá	4	Abril	2023-09-04T00:00:00	2024-11-08T03:00:00	7	Dirección del viento	0
16775	7	Sololá	701	Sololá	1	Sololá	4	Abril	2023-09-04T00:00:00	2024-11-08T03:00:00	1	Precipitación	0
16776	7	Sololá	701	Sololá	1	Sololá	4	Abril	2023-09-04T00:00:00	2024-11-08T03:00:00	8	Radiación solar	0
16777	7	Sololá	701	Sololá	1	Sololá	4	Abril	2023-09-04T00:00:00	2024-11-08T04:00:00	2	Temperatura media	11.9
16778	7	Sololá	701	Sololá	1	Sololá	4	Abril	2023-09-04T00:00:00	2024-11-08T04:00:00	4	Temperatura máxima	11.9
16779	7	Sololá	701	Sololá	1	Sololá	4	Abril	2023-09-04T00:00:00	2024-11-08T04:00:00	3	Temperatura mínima	11.3
16780	7	Sololá	701	Sololá	1	Sololá	4	Abril	2023-09-04T00:00:00	2024-11-08T04:00:00	5	Humedad	72
16781	7	Sololá	701	Sololá	1	Sololá	4	Abril	2023-09-04T00:00:00	2024-11-08T04:00:00	6	Velocidad del viento	0
16782	7	Sololá	701	Sololá	1	Sololá	4	Abril	2023-09-04T00:00:00	2024-11-08T04:00:00	7	Dirección del viento	0
16783	7	Sololá	701	Sololá	1	Sololá	4	Abril	2023-09-04T00:00:00	2024-11-08T04:00:00	1	Precipitación	0
16784	7	Sololá	701	Sololá	1	Sololá	4	Abril	2023-09-04T00:00:00	2024-11-08T04:00:00	8	Radiación solar	0
16785	7	Sololá	701	Sololá	1	Sololá	4	Abril	2023-09-04T00:00:00	2024-11-08T05:00:00	2	Temperatura media	12
16786	7	Sololá	701	Sololá	1	Sololá	4	Abril	2023-09-04T00:00:00	2024-11-08T05:00:00	4	Temperatura máxima	12.1
16787	7	Sololá	701	Sololá	1	Sololá	4	Abril	2023-09-04T00:00:00	2024-11-08T05:00:00	3	Temperatura mínima	11.9
16788	7	Sololá	701	Sololá	1	Sololá	4	Abril	2023-09-04T00:00:00	2024-11-08T05:00:00	5	Humedad	72
16789	7	Sololá	701	Sololá	1	Sololá	4	Abril	2023-09-04T00:00:00	2024-11-08T05:00:00	6	Velocidad del viento	0
16790	7	Sololá	701	Sololá	1	Sololá	4	Abril	2023-09-04T00:00:00	2024-11-08T05:00:00	7	Dirección del viento	0
16791	7	Sololá	701	Sololá	1	Sololá	4	Abril	2023-09-04T00:00:00	2024-11-08T05:00:00	1	Precipitación	0
16792	7	Sololá	701	Sololá	1	Sololá	4	Abril	2023-09-04T00:00:00	2024-11-08T05:00:00	8	Radiación solar	0
16793	7	Sololá	701	Sololá	1	Sololá	4	Abril	2023-09-04T00:00:00	2024-11-08T06:00:00	2	Temperatura media	12.1
16794	7	Sololá	701	Sololá	1	Sololá	4	Abril	2023-09-04T00:00:00	2024-11-08T06:00:00	4	Temperatura máxima	12.1
16795	7	Sololá	701	Sololá	1	Sololá	4	Abril	2023-09-04T00:00:00	2024-11-08T06:00:00	3	Temperatura mínima	11.9
16796	7	Sololá	701	Sololá	1	Sololá	4	Abril	2023-09-04T00:00:00	2024-11-08T06:00:00	5	Humedad	75
16797	7	Sololá	701	Sololá	1	Sololá	4	Abril	2023-09-04T00:00:00	2024-11-08T06:00:00	6	Velocidad del viento	0
16798	7	Sololá	701	Sololá	1	Sololá	4	Abril	2023-09-04T00:00:00	2024-11-08T06:00:00	7	Dirección del viento	0
16799	7	Sololá	701	Sololá	1	Sololá	4	Abril	2023-09-04T00:00:00	2024-11-08T06:00:00	1	Precipitación	0
16800	7	Sololá	701	Sololá	1	Sololá	4	Abril	2023-09-04T00:00:00	2024-11-08T06:00:00	8	Radiación solar	0
16801	7	Sololá	701	Sololá	1	Sololá	4	Abril	2023-09-04T00:00:00	2024-11-08T07:00:00	2	Temperatura media	11.8
16802	7	Sololá	701	Sololá	1	Sololá	4	Abril	2023-09-04T00:00:00	2024-11-08T07:00:00	4	Temperatura máxima	12.1
16803	7	Sololá	701	Sololá	1	Sololá	4	Abril	2023-09-04T00:00:00	2024-11-08T07:00:00	3	Temperatura mínima	11.8
16804	7	Sololá	701	Sololá	1	Sololá	4	Abril	2023-09-04T00:00:00	2024-11-08T07:00:00	5	Humedad	73
16805	7	Sololá	701	Sololá	1	Sololá	4	Abril	2023-09-04T00:00:00	2024-11-08T07:00:00	6	Velocidad del viento	0
16806	7	Sololá	701	Sololá	1	Sololá	4	Abril	2023-09-04T00:00:00	2024-11-08T07:00:00	7	Dirección del viento	0
16807	7	Sololá	701	Sololá	1	Sololá	4	Abril	2023-09-04T00:00:00	2024-11-08T07:00:00	1	Precipitación	0
16808	7	Sololá	701	Sololá	1	Sololá	4	Abril	2023-09-04T00:00:00	2024-11-08T07:00:00	8	Radiación solar	12
16809	7	Sololá	701	Sololá	1	Sololá	4	Abril	2023-09-04T00:00:00	2024-11-08T08:00:00	2	Temperatura media	12.4
16810	7	Sololá	701	Sololá	1	Sololá	4	Abril	2023-09-04T00:00:00	2024-11-08T08:00:00	4	Temperatura máxima	12.4
16811	7	Sololá	701	Sololá	1	Sololá	4	Abril	2023-09-04T00:00:00	2024-11-08T08:00:00	3	Temperatura mínima	11.8
16812	7	Sololá	701	Sololá	1	Sololá	4	Abril	2023-09-04T00:00:00	2024-11-08T08:00:00	5	Humedad	72
16813	7	Sololá	701	Sololá	1	Sololá	4	Abril	2023-09-04T00:00:00	2024-11-08T08:00:00	6	Velocidad del viento	0
16814	7	Sololá	701	Sololá	1	Sololá	4	Abril	2023-09-04T00:00:00	2024-11-08T08:00:00	7	Dirección del viento	0
16815	7	Sololá	701	Sololá	1	Sololá	4	Abril	2023-09-04T00:00:00	2024-11-08T08:00:00	1	Precipitación	0
16816	7	Sololá	701	Sololá	1	Sololá	4	Abril	2023-09-04T00:00:00	2024-11-08T08:00:00	8	Radiación solar	231
16817	7	Sololá	701	Sololá	1	Sololá	4	Abril	2023-09-04T00:00:00	2024-11-08T09:00:00	2	Temperatura media	15.9
16818	7	Sololá	701	Sololá	1	Sololá	4	Abril	2023-09-04T00:00:00	2024-11-08T09:00:00	4	Temperatura máxima	15.9
16819	7	Sololá	701	Sololá	1	Sololá	4	Abril	2023-09-04T00:00:00	2024-11-08T09:00:00	3	Temperatura mínima	12.4
16820	7	Sololá	701	Sololá	1	Sololá	4	Abril	2023-09-04T00:00:00	2024-11-08T09:00:00	5	Humedad	64
16821	7	Sololá	701	Sololá	1	Sololá	4	Abril	2023-09-04T00:00:00	2024-11-08T09:00:00	6	Velocidad del viento	0
16822	7	Sololá	701	Sololá	1	Sololá	4	Abril	2023-09-04T00:00:00	2024-11-08T09:00:00	7	Dirección del viento	0
16823	7	Sololá	701	Sololá	1	Sololá	4	Abril	2023-09-04T00:00:00	2024-11-08T09:00:00	1	Precipitación	0
16824	7	Sololá	701	Sololá	1	Sololá	4	Abril	2023-09-04T00:00:00	2024-11-08T09:00:00	8	Radiación solar	603
16825	7	Sololá	701	Sololá	1	Sololá	4	Abril	2023-09-04T00:00:00	2024-11-08T10:00:00	2	Temperatura media	19.4
16826	7	Sololá	701	Sololá	1	Sololá	4	Abril	2023-09-04T00:00:00	2024-11-08T10:00:00	4	Temperatura máxima	19.5
16827	7	Sololá	701	Sololá	1	Sololá	4	Abril	2023-09-04T00:00:00	2024-11-08T10:00:00	3	Temperatura mínima	15.9
16828	7	Sololá	701	Sololá	1	Sololá	4	Abril	2023-09-04T00:00:00	2024-11-08T10:00:00	5	Humedad	52
16829	7	Sololá	701	Sololá	1	Sololá	4	Abril	2023-09-04T00:00:00	2024-11-08T10:00:00	6	Velocidad del viento	0
16830	7	Sololá	701	Sololá	1	Sololá	4	Abril	2023-09-04T00:00:00	2024-11-08T10:00:00	7	Dirección del viento	0
16831	7	Sololá	701	Sololá	1	Sololá	4	Abril	2023-09-04T00:00:00	2024-11-08T10:00:00	1	Precipitación	0
16832	7	Sololá	701	Sololá	1	Sololá	4	Abril	2023-09-04T00:00:00	2024-11-08T10:00:00	8	Radiación solar	799
16833	7	Sololá	701	Sololá	1	Sololá	4	Abril	2023-09-04T00:00:00	2024-11-08T11:00:00	2	Temperatura media	21.7
16834	7	Sololá	701	Sololá	1	Sololá	4	Abril	2023-09-04T00:00:00	2024-11-08T11:00:00	4	Temperatura máxima	21.7
16835	7	Sololá	701	Sololá	1	Sololá	4	Abril	2023-09-04T00:00:00	2024-11-08T11:00:00	3	Temperatura mínima	19.4
16836	7	Sololá	701	Sololá	1	Sololá	4	Abril	2023-09-04T00:00:00	2024-11-08T11:00:00	5	Humedad	46
16837	7	Sololá	701	Sololá	1	Sololá	4	Abril	2023-09-04T00:00:00	2024-11-08T11:00:00	6	Velocidad del viento	0
16838	7	Sololá	701	Sololá	1	Sololá	4	Abril	2023-09-04T00:00:00	2024-11-08T11:00:00	7	Dirección del viento	0
16839	7	Sololá	701	Sololá	1	Sololá	4	Abril	2023-09-04T00:00:00	2024-11-08T11:00:00	1	Precipitación	0
16840	7	Sololá	701	Sololá	1	Sololá	4	Abril	2023-09-04T00:00:00	2024-11-08T11:00:00	8	Radiación solar	937
16841	7	Sololá	701	Sololá	1	Sololá	4	Abril	2023-09-04T00:00:00	2024-11-08T12:00:00	2	Temperatura media	22.2
16842	7	Sololá	701	Sololá	1	Sololá	4	Abril	2023-09-04T00:00:00	2024-11-08T12:00:00	4	Temperatura máxima	22.2
16843	7	Sololá	701	Sololá	1	Sololá	4	Abril	2023-09-04T00:00:00	2024-11-08T12:00:00	3	Temperatura mínima	21.4
16844	7	Sololá	701	Sololá	1	Sololá	4	Abril	2023-09-04T00:00:00	2024-11-08T12:00:00	5	Humedad	47
16845	7	Sololá	701	Sololá	1	Sololá	4	Abril	2023-09-04T00:00:00	2024-11-08T12:00:00	6	Velocidad del viento	0
16846	7	Sololá	701	Sololá	1	Sololá	4	Abril	2023-09-04T00:00:00	2024-11-08T12:00:00	7	Dirección del viento	0
16847	7	Sololá	701	Sololá	1	Sololá	4	Abril	2023-09-04T00:00:00	2024-11-08T12:00:00	1	Precipitación	0
16848	7	Sololá	701	Sololá	1	Sololá	4	Abril	2023-09-04T00:00:00	2024-11-08T12:00:00	8	Radiación solar	989
16849	7	Sololá	701	Sololá	1	Sololá	4	Abril	2023-09-04T00:00:00	2024-11-08T13:00:00	2	Temperatura media	23.3
16850	7	Sololá	701	Sololá	1	Sololá	4	Abril	2023-09-04T00:00:00	2024-11-08T13:00:00	4	Temperatura máxima	23.3
16851	7	Sololá	701	Sololá	1	Sololá	4	Abril	2023-09-04T00:00:00	2024-11-08T13:00:00	3	Temperatura mínima	22.2
16852	7	Sololá	701	Sololá	1	Sololá	4	Abril	2023-09-04T00:00:00	2024-11-08T13:00:00	5	Humedad	42
16853	7	Sololá	701	Sololá	1	Sololá	4	Abril	2023-09-04T00:00:00	2024-11-08T13:00:00	6	Velocidad del viento	0
16854	7	Sololá	701	Sololá	1	Sololá	4	Abril	2023-09-04T00:00:00	2024-11-08T13:00:00	7	Dirección del viento	0
16855	7	Sololá	701	Sololá	1	Sololá	4	Abril	2023-09-04T00:00:00	2024-11-08T13:00:00	1	Precipitación	0
16856	7	Sololá	701	Sololá	1	Sololá	4	Abril	2023-09-04T00:00:00	2024-11-08T13:00:00	8	Radiación solar	983
16857	7	Sololá	701	Sololá	1	Sololá	4	Abril	2023-09-04T00:00:00	2024-11-08T14:00:00	2	Temperatura media	24.1
16858	7	Sololá	701	Sololá	1	Sololá	4	Abril	2023-09-04T00:00:00	2024-11-08T14:00:00	4	Temperatura máxima	24.1
16859	7	Sololá	701	Sololá	1	Sololá	4	Abril	2023-09-04T00:00:00	2024-11-08T14:00:00	3	Temperatura mínima	23.3
16860	7	Sololá	701	Sololá	1	Sololá	4	Abril	2023-09-04T00:00:00	2024-11-08T14:00:00	5	Humedad	41
16861	7	Sololá	701	Sololá	1	Sololá	4	Abril	2023-09-04T00:00:00	2024-11-08T14:00:00	6	Velocidad del viento	1.6
16862	7	Sololá	701	Sololá	1	Sololá	4	Abril	2023-09-04T00:00:00	2024-11-08T14:00:00	7	Dirección del viento	1.61
16863	7	Sololá	701	Sololá	1	Sololá	4	Abril	2023-09-04T00:00:00	2024-11-08T14:00:00	1	Precipitación	0
16864	7	Sololá	701	Sololá	1	Sololá	4	Abril	2023-09-04T00:00:00	2024-11-08T14:00:00	8	Radiación solar	168
16865	7	Sololá	701	Sololá	1	Sololá	4	Abril	2023-09-04T00:00:00	2024-11-08T15:00:00	2	Temperatura media	23.9
16866	7	Sololá	701	Sololá	1	Sololá	4	Abril	2023-09-04T00:00:00	2024-11-08T15:00:00	4	Temperatura máxima	24.5
16867	7	Sololá	701	Sololá	1	Sololá	4	Abril	2023-09-04T00:00:00	2024-11-08T15:00:00	3	Temperatura mínima	23.8
16868	7	Sololá	701	Sololá	1	Sololá	4	Abril	2023-09-04T00:00:00	2024-11-08T15:00:00	5	Humedad	40
16869	7	Sololá	701	Sololá	1	Sololá	4	Abril	2023-09-04T00:00:00	2024-11-08T15:00:00	6	Velocidad del viento	1.6
16870	7	Sololá	701	Sololá	1	Sololá	4	Abril	2023-09-04T00:00:00	2024-11-08T15:00:00	7	Dirección del viento	1.61
16871	7	Sololá	701	Sololá	1	Sololá	4	Abril	2023-09-04T00:00:00	2024-11-08T15:00:00	1	Precipitación	0
16872	7	Sololá	701	Sololá	1	Sololá	4	Abril	2023-09-04T00:00:00	2024-11-08T15:00:00	8	Radiación solar	91
16873	7	Sololá	701	Sololá	1	Sololá	4	Abril	2023-09-04T00:00:00	2024-11-08T16:00:00	2	Temperatura media	21.3
16874	7	Sololá	701	Sololá	1	Sololá	4	Abril	2023-09-04T00:00:00	2024-11-08T16:00:00	4	Temperatura máxima	23.8
16875	7	Sololá	701	Sololá	1	Sololá	4	Abril	2023-09-04T00:00:00	2024-11-08T16:00:00	3	Temperatura mínima	21.2
16876	7	Sololá	701	Sololá	1	Sololá	4	Abril	2023-09-04T00:00:00	2024-11-08T16:00:00	5	Humedad	70
16877	7	Sololá	701	Sololá	1	Sololá	4	Abril	2023-09-04T00:00:00	2024-11-08T16:00:00	6	Velocidad del viento	0
16878	7	Sololá	701	Sololá	1	Sololá	4	Abril	2023-09-04T00:00:00	2024-11-08T16:00:00	7	Dirección del viento	0
16879	7	Sololá	701	Sololá	1	Sololá	4	Abril	2023-09-04T00:00:00	2024-11-08T16:00:00	1	Precipitación	0
16880	7	Sololá	701	Sololá	1	Sololá	4	Abril	2023-09-04T00:00:00	2024-11-08T16:00:00	8	Radiación solar	91
16881	7	Sololá	701	Sololá	1	Sololá	4	Abril	2023-09-04T00:00:00	2024-11-08T17:00:00	2	Temperatura media	20.9
16882	7	Sololá	701	Sololá	1	Sololá	4	Abril	2023-09-04T00:00:00	2024-11-08T17:00:00	4	Temperatura máxima	21.6
16883	7	Sololá	701	Sololá	1	Sololá	4	Abril	2023-09-04T00:00:00	2024-11-08T17:00:00	3	Temperatura mínima	20.8
16884	7	Sololá	701	Sololá	1	Sololá	4	Abril	2023-09-04T00:00:00	2024-11-08T17:00:00	5	Humedad	71
16885	7	Sololá	701	Sololá	1	Sololá	4	Abril	2023-09-04T00:00:00	2024-11-08T17:00:00	6	Velocidad del viento	0
16886	7	Sololá	701	Sololá	1	Sololá	4	Abril	2023-09-04T00:00:00	2024-11-08T17:00:00	7	Dirección del viento	0
16887	7	Sololá	701	Sololá	1	Sololá	4	Abril	2023-09-04T00:00:00	2024-11-08T17:00:00	1	Precipitación	0
16888	7	Sololá	701	Sololá	1	Sololá	4	Abril	2023-09-04T00:00:00	2024-11-08T17:00:00	8	Radiación solar	86
16889	7	Sololá	701	Sololá	1	Sololá	4	Abril	2023-09-04T00:00:00	2024-11-08T18:00:00	2	Temperatura media	19.5
16890	7	Sololá	701	Sololá	1	Sololá	4	Abril	2023-09-04T00:00:00	2024-11-08T18:00:00	4	Temperatura máxima	21
16891	7	Sololá	701	Sololá	1	Sololá	4	Abril	2023-09-04T00:00:00	2024-11-08T18:00:00	3	Temperatura mínima	19.4
16892	7	Sololá	701	Sololá	1	Sololá	4	Abril	2023-09-04T00:00:00	2024-11-08T18:00:00	5	Humedad	77
16893	7	Sololá	701	Sololá	1	Sololá	4	Abril	2023-09-04T00:00:00	2024-11-08T18:00:00	6	Velocidad del viento	0
16894	7	Sololá	701	Sololá	1	Sololá	4	Abril	2023-09-04T00:00:00	2024-11-08T18:00:00	7	Dirección del viento	0
16895	7	Sololá	701	Sololá	1	Sololá	4	Abril	2023-09-04T00:00:00	2024-11-08T18:00:00	1	Precipitación	0
16896	7	Sololá	701	Sololá	1	Sololá	4	Abril	2023-09-04T00:00:00	2024-11-08T18:00:00	8	Radiación solar	25
16897	7	Sololá	701	Sololá	1	Sololá	4	Abril	2023-09-04T00:00:00	2024-11-08T19:00:00	2	Temperatura media	18.1
16898	7	Sololá	701	Sololá	1	Sololá	4	Abril	2023-09-04T00:00:00	2024-11-08T19:00:00	4	Temperatura máxima	19.5
16899	7	Sololá	701	Sololá	1	Sololá	4	Abril	2023-09-04T00:00:00	2024-11-08T19:00:00	3	Temperatura mínima	18
16900	7	Sololá	701	Sololá	1	Sololá	4	Abril	2023-09-04T00:00:00	2024-11-08T19:00:00	5	Humedad	61
16901	7	Sololá	701	Sololá	1	Sololá	4	Abril	2023-09-04T00:00:00	2024-11-08T19:00:00	6	Velocidad del viento	0
16902	7	Sololá	701	Sololá	1	Sololá	4	Abril	2023-09-04T00:00:00	2024-11-08T19:00:00	7	Dirección del viento	0
16903	7	Sololá	701	Sololá	1	Sololá	4	Abril	2023-09-04T00:00:00	2024-11-08T19:00:00	1	Precipitación	0
16904	7	Sololá	701	Sololá	1	Sololá	4	Abril	2023-09-04T00:00:00	2024-11-08T19:00:00	8	Radiación solar	0
16905	7	Sololá	701	Sololá	1	Sololá	4	Abril	2023-09-04T00:00:00	2024-11-08T20:00:00	2	Temperatura media	16
16906	7	Sololá	701	Sololá	1	Sololá	4	Abril	2023-09-04T00:00:00	2024-11-08T20:00:00	4	Temperatura máxima	18.1
16907	7	Sololá	701	Sololá	1	Sololá	4	Abril	2023-09-04T00:00:00	2024-11-08T20:00:00	3	Temperatura mínima	16
16908	7	Sololá	701	Sololá	1	Sololá	4	Abril	2023-09-04T00:00:00	2024-11-08T20:00:00	5	Humedad	63
16909	7	Sololá	701	Sololá	1	Sololá	4	Abril	2023-09-04T00:00:00	2024-11-08T20:00:00	6	Velocidad del viento	0
16910	7	Sololá	701	Sololá	1	Sololá	4	Abril	2023-09-04T00:00:00	2024-11-08T20:00:00	7	Dirección del viento	0
16911	7	Sololá	701	Sololá	1	Sololá	4	Abril	2023-09-04T00:00:00	2024-11-08T20:00:00	1	Precipitación	0
16912	7	Sololá	701	Sololá	1	Sololá	4	Abril	2023-09-04T00:00:00	2024-11-08T20:00:00	8	Radiación solar	0
16913	7	Sololá	701	Sololá	1	Sololá	4	Abril	2023-09-04T00:00:00	2024-11-08T21:00:00	2	Temperatura media	14.2
16914	7	Sololá	701	Sololá	1	Sololá	4	Abril	2023-09-04T00:00:00	2024-11-08T21:00:00	4	Temperatura máxima	16
16915	7	Sololá	701	Sololá	1	Sololá	4	Abril	2023-09-04T00:00:00	2024-11-08T21:00:00	3	Temperatura mínima	14.2
16916	7	Sololá	701	Sololá	1	Sololá	4	Abril	2023-09-04T00:00:00	2024-11-08T21:00:00	5	Humedad	66
16917	7	Sololá	701	Sololá	1	Sololá	4	Abril	2023-09-04T00:00:00	2024-11-08T21:00:00	6	Velocidad del viento	0
16918	7	Sololá	701	Sololá	1	Sololá	4	Abril	2023-09-04T00:00:00	2024-11-08T21:00:00	7	Dirección del viento	0
16919	7	Sololá	701	Sololá	1	Sololá	4	Abril	2023-09-04T00:00:00	2024-11-08T21:00:00	1	Precipitación	0
16920	7	Sololá	701	Sololá	1	Sololá	4	Abril	2023-09-04T00:00:00	2024-11-08T21:00:00	8	Radiación solar	0
16921	7	Sololá	701	Sololá	1	Sololá	4	Abril	2023-09-04T00:00:00	2024-11-08T22:00:00	2	Temperatura media	13.6
16922	7	Sololá	701	Sololá	1	Sololá	4	Abril	2023-09-04T00:00:00	2024-11-08T22:00:00	4	Temperatura máxima	14.2
16923	7	Sololá	701	Sololá	1	Sololá	4	Abril	2023-09-04T00:00:00	2024-11-08T22:00:00	3	Temperatura mínima	13.5
16924	7	Sololá	701	Sololá	1	Sololá	4	Abril	2023-09-04T00:00:00	2024-11-08T22:00:00	5	Humedad	68
16925	7	Sololá	701	Sololá	1	Sololá	4	Abril	2023-09-04T00:00:00	2024-11-08T22:00:00	6	Velocidad del viento	0
16926	7	Sololá	701	Sololá	1	Sololá	4	Abril	2023-09-04T00:00:00	2024-11-08T22:00:00	7	Dirección del viento	0
16927	7	Sololá	701	Sololá	1	Sololá	4	Abril	2023-09-04T00:00:00	2024-11-08T22:00:00	1	Precipitación	0
16928	7	Sololá	701	Sololá	1	Sololá	4	Abril	2023-09-04T00:00:00	2024-11-08T22:00:00	8	Radiación solar	0
16929	7	Sololá	701	Sololá	1	Sololá	4	Abril	2023-09-04T00:00:00	2024-11-08T23:00:00	2	Temperatura media	12.9
16930	7	Sololá	701	Sololá	1	Sololá	4	Abril	2023-09-04T00:00:00	2024-11-08T23:00:00	4	Temperatura máxima	13.6
16931	7	Sololá	701	Sololá	1	Sololá	4	Abril	2023-09-04T00:00:00	2024-11-08T23:00:00	3	Temperatura mínima	12.8
16932	7	Sololá	701	Sololá	1	Sololá	4	Abril	2023-09-04T00:00:00	2024-11-08T23:00:00	5	Humedad	73
16933	7	Sololá	701	Sololá	1	Sololá	4	Abril	2023-09-04T00:00:00	2024-11-08T23:00:00	6	Velocidad del viento	0
16934	7	Sololá	701	Sololá	1	Sololá	4	Abril	2023-09-04T00:00:00	2024-11-08T23:00:00	7	Dirección del viento	0
16935	7	Sololá	701	Sololá	1	Sololá	4	Abril	2023-09-04T00:00:00	2024-11-08T23:00:00	1	Precipitación	0
16936	7	Sololá	701	Sololá	1	Sololá	4	Abril	2023-09-04T00:00:00	2024-11-08T23:00:00	8	Radiación solar	0
16937	7	Sololá	701	Sololá	1	Sololá	4	Abril	2023-10-04T00:00:00	2024-11-08T00:00:00	2	Temperatura media	13
16938	7	Sololá	701	Sololá	1	Sololá	4	Abril	2023-10-04T00:00:00	2024-11-08T00:00:00	4	Temperatura máxima	13
16939	7	Sololá	701	Sololá	1	Sololá	4	Abril	2023-10-04T00:00:00	2024-11-08T00:00:00	3	Temperatura mínima	12.8
16940	7	Sololá	701	Sololá	1	Sololá	4	Abril	2023-10-04T00:00:00	2024-11-08T00:00:00	5	Humedad	62
16941	7	Sololá	701	Sololá	1	Sololá	4	Abril	2023-10-04T00:00:00	2024-11-08T00:00:00	6	Velocidad del viento	0
16942	7	Sololá	701	Sololá	1	Sololá	4	Abril	2023-10-04T00:00:00	2024-11-08T00:00:00	7	Dirección del viento	0
16943	7	Sololá	701	Sololá	1	Sololá	4	Abril	2023-10-04T00:00:00	2024-11-08T00:00:00	1	Precipitación	0
16944	7	Sololá	701	Sololá	1	Sololá	4	Abril	2023-10-04T00:00:00	2024-11-08T00:00:00	8	Radiación solar	0
16945	7	Sololá	701	Sololá	1	Sololá	4	Abril	2023-10-04T00:00:00	2024-11-08T01:00:00	2	Temperatura media	13
16946	7	Sololá	701	Sololá	1	Sololá	4	Abril	2023-10-04T00:00:00	2024-11-08T01:00:00	4	Temperatura máxima	13.1
16947	7	Sololá	701	Sololá	1	Sololá	4	Abril	2023-10-04T00:00:00	2024-11-08T01:00:00	3	Temperatura mínima	12.9
16948	7	Sololá	701	Sololá	1	Sololá	4	Abril	2023-10-04T00:00:00	2024-11-08T01:00:00	5	Humedad	54
16949	7	Sololá	701	Sololá	1	Sololá	4	Abril	2023-10-04T00:00:00	2024-11-08T01:00:00	6	Velocidad del viento	0
16950	7	Sololá	701	Sololá	1	Sololá	4	Abril	2023-10-04T00:00:00	2024-11-08T01:00:00	7	Dirección del viento	0
16951	7	Sololá	701	Sololá	1	Sololá	4	Abril	2023-10-04T00:00:00	2024-11-08T01:00:00	1	Precipitación	0
16952	7	Sololá	701	Sololá	1	Sololá	4	Abril	2023-10-04T00:00:00	2024-11-08T01:00:00	8	Radiación solar	0
16953	7	Sololá	701	Sololá	1	Sololá	4	Abril	2023-10-04T00:00:00	2024-11-08T02:00:00	2	Temperatura media	12.4
16954	7	Sololá	701	Sololá	1	Sololá	4	Abril	2023-10-04T00:00:00	2024-11-08T02:00:00	4	Temperatura máxima	13
16955	7	Sololá	701	Sololá	1	Sololá	4	Abril	2023-10-04T00:00:00	2024-11-08T02:00:00	3	Temperatura mínima	12.4
16956	7	Sololá	701	Sololá	1	Sololá	4	Abril	2023-10-04T00:00:00	2024-11-08T02:00:00	5	Humedad	66
16957	7	Sololá	701	Sololá	1	Sololá	4	Abril	2023-10-04T00:00:00	2024-11-08T02:00:00	6	Velocidad del viento	0
16958	7	Sololá	701	Sololá	1	Sololá	4	Abril	2023-10-04T00:00:00	2024-11-08T02:00:00	7	Dirección del viento	0
16959	7	Sololá	701	Sololá	1	Sololá	4	Abril	2023-10-04T00:00:00	2024-11-08T02:00:00	1	Precipitación	0
16960	7	Sololá	701	Sololá	1	Sololá	4	Abril	2023-10-04T00:00:00	2024-11-08T02:00:00	8	Radiación solar	0
16961	7	Sololá	701	Sololá	1	Sololá	4	Abril	2023-10-04T00:00:00	2024-11-08T03:00:00	2	Temperatura media	12.3
16962	7	Sololá	701	Sololá	1	Sololá	4	Abril	2023-10-04T00:00:00	2024-11-08T03:00:00	4	Temperatura máxima	12.4
16963	7	Sololá	701	Sololá	1	Sololá	4	Abril	2023-10-04T00:00:00	2024-11-08T03:00:00	3	Temperatura mínima	12.2
16964	7	Sololá	701	Sololá	1	Sololá	4	Abril	2023-10-04T00:00:00	2024-11-08T03:00:00	5	Humedad	68
16965	7	Sololá	701	Sololá	1	Sololá	4	Abril	2023-10-04T00:00:00	2024-11-08T03:00:00	6	Velocidad del viento	0
16966	7	Sololá	701	Sololá	1	Sololá	4	Abril	2023-10-04T00:00:00	2024-11-08T03:00:00	7	Dirección del viento	0
16967	7	Sololá	701	Sololá	1	Sololá	4	Abril	2023-10-04T00:00:00	2024-11-08T03:00:00	1	Precipitación	0
16968	7	Sololá	701	Sololá	1	Sololá	4	Abril	2023-10-04T00:00:00	2024-11-08T03:00:00	8	Radiación solar	0
16969	7	Sololá	701	Sololá	1	Sololá	4	Abril	2023-10-04T00:00:00	2024-11-08T04:00:00	2	Temperatura media	12.1
16970	7	Sololá	701	Sololá	1	Sololá	4	Abril	2023-10-04T00:00:00	2024-11-08T04:00:00	4	Temperatura máxima	12.3
16971	7	Sololá	701	Sololá	1	Sololá	4	Abril	2023-10-04T00:00:00	2024-11-08T04:00:00	3	Temperatura mínima	12
16972	7	Sololá	701	Sololá	1	Sololá	4	Abril	2023-10-04T00:00:00	2024-11-08T04:00:00	5	Humedad	69
16973	7	Sololá	701	Sololá	1	Sololá	4	Abril	2023-10-04T00:00:00	2024-11-08T04:00:00	6	Velocidad del viento	0
16974	7	Sololá	701	Sololá	1	Sololá	4	Abril	2023-10-04T00:00:00	2024-11-08T04:00:00	7	Dirección del viento	0
16975	7	Sololá	701	Sololá	1	Sololá	4	Abril	2023-10-04T00:00:00	2024-11-08T04:00:00	1	Precipitación	0
16976	7	Sololá	701	Sololá	1	Sololá	4	Abril	2023-10-04T00:00:00	2024-11-08T04:00:00	8	Radiación solar	0
16977	7	Sololá	701	Sololá	1	Sololá	4	Abril	2023-10-04T00:00:00	2024-11-08T05:00:00	2	Temperatura media	12
16978	7	Sololá	701	Sololá	1	Sololá	4	Abril	2023-10-04T00:00:00	2024-11-08T05:00:00	4	Temperatura máxima	12.2
16979	7	Sololá	701	Sololá	1	Sololá	4	Abril	2023-10-04T00:00:00	2024-11-08T05:00:00	3	Temperatura mínima	11.9
16980	7	Sololá	701	Sololá	1	Sololá	4	Abril	2023-10-04T00:00:00	2024-11-08T05:00:00	5	Humedad	69
16981	7	Sololá	701	Sololá	1	Sololá	4	Abril	2023-10-04T00:00:00	2024-11-08T05:00:00	6	Velocidad del viento	0
16982	7	Sololá	701	Sololá	1	Sololá	4	Abril	2023-10-04T00:00:00	2024-11-08T05:00:00	7	Dirección del viento	0
16983	7	Sololá	701	Sololá	1	Sololá	4	Abril	2023-10-04T00:00:00	2024-11-08T05:00:00	1	Precipitación	0
16984	7	Sololá	701	Sololá	1	Sololá	4	Abril	2023-10-04T00:00:00	2024-11-08T05:00:00	8	Radiación solar	0
16985	7	Sololá	701	Sololá	1	Sololá	4	Abril	2023-10-04T00:00:00	2024-11-08T06:00:00	2	Temperatura media	12.4
16986	7	Sololá	701	Sololá	1	Sololá	4	Abril	2023-10-04T00:00:00	2024-11-08T06:00:00	4	Temperatura máxima	12.4
16987	7	Sololá	701	Sololá	1	Sololá	4	Abril	2023-10-04T00:00:00	2024-11-08T06:00:00	3	Temperatura mínima	12
16988	7	Sololá	701	Sololá	1	Sololá	4	Abril	2023-10-04T00:00:00	2024-11-08T06:00:00	5	Humedad	68
16989	7	Sololá	701	Sololá	1	Sololá	4	Abril	2023-10-04T00:00:00	2024-11-08T06:00:00	6	Velocidad del viento	0
16990	7	Sololá	701	Sololá	1	Sololá	4	Abril	2023-10-04T00:00:00	2024-11-08T06:00:00	7	Dirección del viento	0
16991	7	Sololá	701	Sololá	1	Sololá	4	Abril	2023-10-04T00:00:00	2024-11-08T06:00:00	1	Precipitación	0
16992	7	Sololá	701	Sololá	1	Sololá	4	Abril	2023-10-04T00:00:00	2024-11-08T06:00:00	8	Radiación solar	0
16993	7	Sololá	701	Sololá	1	Sololá	4	Abril	2023-10-04T00:00:00	2024-11-08T07:00:00	2	Temperatura media	12
16994	7	Sololá	701	Sololá	1	Sololá	4	Abril	2023-10-04T00:00:00	2024-11-08T07:00:00	4	Temperatura máxima	12.4
16995	7	Sololá	701	Sololá	1	Sololá	4	Abril	2023-10-04T00:00:00	2024-11-08T07:00:00	3	Temperatura mínima	12
16996	7	Sololá	701	Sololá	1	Sololá	4	Abril	2023-10-04T00:00:00	2024-11-08T07:00:00	5	Humedad	69
16997	7	Sololá	701	Sololá	1	Sololá	4	Abril	2023-10-04T00:00:00	2024-11-08T07:00:00	6	Velocidad del viento	0
16998	7	Sololá	701	Sololá	1	Sololá	4	Abril	2023-10-04T00:00:00	2024-11-08T07:00:00	7	Dirección del viento	0
16999	7	Sololá	701	Sololá	1	Sololá	4	Abril	2023-10-04T00:00:00	2024-11-08T07:00:00	1	Precipitación	0
17000	7	Sololá	701	Sololá	1	Sololá	4	Abril	2023-10-04T00:00:00	2024-11-08T07:00:00	8	Radiación solar	13
17001	7	Sololá	701	Sololá	1	Sololá	4	Abril	2023-10-04T00:00:00	2024-11-08T08:00:00	2	Temperatura media	12.4
17002	7	Sololá	701	Sololá	1	Sololá	4	Abril	2023-10-04T00:00:00	2024-11-08T08:00:00	4	Temperatura máxima	12.4
17003	7	Sololá	701	Sololá	1	Sololá	4	Abril	2023-10-04T00:00:00	2024-11-08T08:00:00	3	Temperatura mínima	12
17004	7	Sololá	701	Sololá	1	Sololá	4	Abril	2023-10-04T00:00:00	2024-11-08T08:00:00	5	Humedad	70
17005	7	Sololá	701	Sololá	1	Sololá	4	Abril	2023-10-04T00:00:00	2024-11-08T08:00:00	6	Velocidad del viento	0
17006	7	Sololá	701	Sololá	1	Sololá	4	Abril	2023-10-04T00:00:00	2024-11-08T08:00:00	7	Dirección del viento	0
17007	7	Sololá	701	Sololá	1	Sololá	4	Abril	2023-10-04T00:00:00	2024-11-08T08:00:00	1	Precipitación	0
17008	7	Sololá	701	Sololá	1	Sololá	4	Abril	2023-10-04T00:00:00	2024-11-08T08:00:00	8	Radiación solar	242
17009	7	Sololá	701	Sololá	1	Sololá	4	Abril	2023-10-04T00:00:00	2024-11-08T09:00:00	2	Temperatura media	15.2
17010	7	Sololá	701	Sololá	1	Sololá	4	Abril	2023-10-04T00:00:00	2024-11-08T09:00:00	4	Temperatura máxima	15.3
17011	7	Sololá	701	Sololá	1	Sololá	4	Abril	2023-10-04T00:00:00	2024-11-08T09:00:00	3	Temperatura mínima	12.4
17012	7	Sololá	701	Sololá	1	Sololá	4	Abril	2023-10-04T00:00:00	2024-11-08T09:00:00	5	Humedad	62
17013	7	Sololá	701	Sololá	1	Sololá	4	Abril	2023-10-04T00:00:00	2024-11-08T09:00:00	6	Velocidad del viento	1.6
17014	7	Sololá	701	Sololá	1	Sololá	4	Abril	2023-10-04T00:00:00	2024-11-08T09:00:00	7	Dirección del viento	1.61
17015	7	Sololá	701	Sololá	1	Sololá	4	Abril	2023-10-04T00:00:00	2024-11-08T09:00:00	1	Precipitación	0
17016	7	Sololá	701	Sololá	1	Sololá	4	Abril	2023-10-04T00:00:00	2024-11-08T09:00:00	8	Radiación solar	606
17017	7	Sololá	701	Sololá	1	Sololá	4	Abril	2023-10-04T00:00:00	2024-11-08T10:00:00	2	Temperatura media	18.2
17018	7	Sololá	701	Sololá	1	Sololá	4	Abril	2023-10-04T00:00:00	2024-11-08T10:00:00	4	Temperatura máxima	18.2
17019	7	Sololá	701	Sololá	1	Sololá	4	Abril	2023-10-04T00:00:00	2024-11-08T10:00:00	3	Temperatura mínima	15.3
17020	7	Sololá	701	Sololá	1	Sololá	4	Abril	2023-10-04T00:00:00	2024-11-08T10:00:00	5	Humedad	56
17021	7	Sololá	701	Sololá	1	Sololá	4	Abril	2023-10-04T00:00:00	2024-11-08T10:00:00	6	Velocidad del viento	0
17022	7	Sololá	701	Sololá	1	Sololá	4	Abril	2023-10-04T00:00:00	2024-11-08T10:00:00	7	Dirección del viento	0
17023	7	Sololá	701	Sololá	1	Sololá	4	Abril	2023-10-04T00:00:00	2024-11-08T10:00:00	1	Precipitación	0
17024	7	Sololá	701	Sololá	1	Sololá	4	Abril	2023-10-04T00:00:00	2024-11-08T10:00:00	8	Radiación solar	803
17025	7	Sololá	701	Sololá	1	Sololá	4	Abril	2023-10-04T00:00:00	2024-11-08T11:00:00	2	Temperatura media	20.1
17026	7	Sololá	701	Sololá	1	Sololá	4	Abril	2023-10-04T00:00:00	2024-11-08T11:00:00	4	Temperatura máxima	20.1
17027	7	Sololá	701	Sololá	1	Sololá	4	Abril	2023-10-04T00:00:00	2024-11-08T11:00:00	3	Temperatura mínima	18.2
17028	7	Sololá	701	Sololá	1	Sololá	4	Abril	2023-10-04T00:00:00	2024-11-08T11:00:00	5	Humedad	51
17029	7	Sololá	701	Sololá	1	Sololá	4	Abril	2023-10-04T00:00:00	2024-11-08T11:00:00	6	Velocidad del viento	0
17030	7	Sololá	701	Sololá	1	Sololá	4	Abril	2023-10-04T00:00:00	2024-11-08T11:00:00	7	Dirección del viento	0
17031	7	Sololá	701	Sololá	1	Sololá	4	Abril	2023-10-04T00:00:00	2024-11-08T11:00:00	1	Precipitación	0
17032	7	Sololá	701	Sololá	1	Sololá	4	Abril	2023-10-04T00:00:00	2024-11-08T11:00:00	8	Radiación solar	934
17033	7	Sololá	701	Sololá	1	Sololá	4	Abril	2023-10-04T00:00:00	2024-11-08T12:00:00	2	Temperatura media	22.5
17034	7	Sololá	701	Sololá	1	Sololá	4	Abril	2023-10-04T00:00:00	2024-11-08T12:00:00	4	Temperatura máxima	22.5
17035	7	Sololá	701	Sololá	1	Sololá	4	Abril	2023-10-04T00:00:00	2024-11-08T12:00:00	3	Temperatura mínima	20.1
17036	7	Sololá	701	Sololá	1	Sololá	4	Abril	2023-10-04T00:00:00	2024-11-08T12:00:00	5	Humedad	44
17037	7	Sololá	701	Sololá	1	Sololá	4	Abril	2023-10-04T00:00:00	2024-11-08T12:00:00	6	Velocidad del viento	0
17038	7	Sololá	701	Sololá	1	Sololá	4	Abril	2023-10-04T00:00:00	2024-11-08T12:00:00	7	Dirección del viento	0
17039	7	Sololá	701	Sololá	1	Sololá	4	Abril	2023-10-04T00:00:00	2024-11-08T12:00:00	1	Precipitación	0
17040	7	Sololá	701	Sololá	1	Sololá	4	Abril	2023-10-04T00:00:00	2024-11-08T12:00:00	8	Radiación solar	993
17041	7	Sololá	701	Sololá	1	Sololá	4	Abril	2023-10-04T00:00:00	2024-11-08T13:00:00	2	Temperatura media	22.9
17042	7	Sololá	701	Sololá	1	Sololá	4	Abril	2023-10-04T00:00:00	2024-11-08T13:00:00	4	Temperatura máxima	22.9
17043	7	Sololá	701	Sololá	1	Sololá	4	Abril	2023-10-04T00:00:00	2024-11-08T13:00:00	3	Temperatura mínima	22.5
17044	7	Sololá	701	Sololá	1	Sololá	4	Abril	2023-10-04T00:00:00	2024-11-08T13:00:00	5	Humedad	42
17045	7	Sololá	701	Sololá	1	Sololá	4	Abril	2023-10-04T00:00:00	2024-11-08T13:00:00	6	Velocidad del viento	1.6
17046	7	Sololá	701	Sololá	1	Sololá	4	Abril	2023-10-04T00:00:00	2024-11-08T13:00:00	7	Dirección del viento	1.61
17047	7	Sololá	701	Sololá	1	Sololá	4	Abril	2023-10-04T00:00:00	2024-11-08T13:00:00	1	Precipitación	0
17048	7	Sololá	701	Sololá	1	Sololá	4	Abril	2023-10-04T00:00:00	2024-11-08T13:00:00	8	Radiación solar	978
17049	7	Sololá	701	Sololá	1	Sololá	4	Abril	2023-10-04T00:00:00	2024-11-08T14:00:00	2	Temperatura media	23.8
17050	7	Sololá	701	Sololá	1	Sololá	4	Abril	2023-10-04T00:00:00	2024-11-08T14:00:00	4	Temperatura máxima	23.8
17051	7	Sololá	701	Sololá	1	Sololá	4	Abril	2023-10-04T00:00:00	2024-11-08T14:00:00	3	Temperatura mínima	22.9
17052	7	Sololá	701	Sololá	1	Sololá	4	Abril	2023-10-04T00:00:00	2024-11-08T14:00:00	5	Humedad	42
17053	7	Sololá	701	Sololá	1	Sololá	4	Abril	2023-10-04T00:00:00	2024-11-08T14:00:00	6	Velocidad del viento	1.6
17054	7	Sololá	701	Sololá	1	Sololá	4	Abril	2023-10-04T00:00:00	2024-11-08T14:00:00	7	Dirección del viento	1.61
17055	7	Sololá	701	Sololá	1	Sololá	4	Abril	2023-10-04T00:00:00	2024-11-08T14:00:00	1	Precipitación	0
17056	7	Sololá	701	Sololá	1	Sololá	4	Abril	2023-10-04T00:00:00	2024-11-08T14:00:00	8	Radiación solar	148
17057	7	Sololá	701	Sololá	1	Sololá	4	Abril	2023-10-04T00:00:00	2024-11-08T15:00:00	2	Temperatura media	23.9
17058	7	Sololá	701	Sololá	1	Sololá	4	Abril	2023-10-04T00:00:00	2024-11-08T15:00:00	4	Temperatura máxima	24.2
17059	7	Sololá	701	Sololá	1	Sololá	4	Abril	2023-10-04T00:00:00	2024-11-08T15:00:00	3	Temperatura mínima	23.8
17060	7	Sololá	701	Sololá	1	Sololá	4	Abril	2023-10-04T00:00:00	2024-11-08T15:00:00	5	Humedad	40
17061	7	Sololá	701	Sololá	1	Sololá	4	Abril	2023-10-04T00:00:00	2024-11-08T15:00:00	6	Velocidad del viento	0
17062	7	Sololá	701	Sololá	1	Sololá	4	Abril	2023-10-04T00:00:00	2024-11-08T15:00:00	7	Dirección del viento	0
17063	7	Sololá	701	Sololá	1	Sololá	4	Abril	2023-10-04T00:00:00	2024-11-08T15:00:00	1	Precipitación	0
17064	7	Sololá	701	Sololá	1	Sololá	4	Abril	2023-10-04T00:00:00	2024-11-08T15:00:00	8	Radiación solar	91
17065	7	Sololá	701	Sololá	1	Sololá	4	Abril	2023-10-04T00:00:00	2024-11-08T16:00:00	2	Temperatura media	21.3
17066	7	Sololá	701	Sololá	1	Sololá	4	Abril	2023-10-04T00:00:00	2024-11-08T16:00:00	4	Temperatura máxima	24.2
17067	7	Sololá	701	Sololá	1	Sololá	4	Abril	2023-10-04T00:00:00	2024-11-08T16:00:00	3	Temperatura mínima	21.3
17068	7	Sololá	701	Sololá	1	Sololá	4	Abril	2023-10-04T00:00:00	2024-11-08T16:00:00	5	Humedad	59
17069	7	Sololá	701	Sololá	1	Sololá	4	Abril	2023-10-04T00:00:00	2024-11-08T16:00:00	6	Velocidad del viento	0
17070	7	Sololá	701	Sololá	1	Sololá	4	Abril	2023-10-04T00:00:00	2024-11-08T16:00:00	7	Dirección del viento	0
17071	7	Sololá	701	Sololá	1	Sololá	4	Abril	2023-10-04T00:00:00	2024-11-08T16:00:00	1	Precipitación	0
17072	7	Sololá	701	Sololá	1	Sololá	4	Abril	2023-10-04T00:00:00	2024-11-08T16:00:00	8	Radiación solar	95
17073	7	Sololá	701	Sololá	1	Sololá	4	Abril	2023-10-04T00:00:00	2024-11-08T17:00:00	2	Temperatura media	21.1
17074	7	Sololá	701	Sololá	1	Sololá	4	Abril	2023-10-04T00:00:00	2024-11-08T17:00:00	4	Temperatura máxima	21.4
17075	7	Sololá	701	Sololá	1	Sololá	4	Abril	2023-10-04T00:00:00	2024-11-08T17:00:00	3	Temperatura mínima	21.1
17076	7	Sololá	701	Sololá	1	Sololá	4	Abril	2023-10-04T00:00:00	2024-11-08T17:00:00	5	Humedad	51
17077	7	Sololá	701	Sololá	1	Sololá	4	Abril	2023-10-04T00:00:00	2024-11-08T17:00:00	6	Velocidad del viento	0
17078	7	Sololá	701	Sololá	1	Sololá	4	Abril	2023-10-04T00:00:00	2024-11-08T17:00:00	7	Dirección del viento	0
17079	7	Sololá	701	Sololá	1	Sololá	4	Abril	2023-10-04T00:00:00	2024-11-08T17:00:00	1	Precipitación	0
17080	7	Sololá	701	Sololá	1	Sololá	4	Abril	2023-10-04T00:00:00	2024-11-08T17:00:00	8	Radiación solar	53
17081	7	Sololá	701	Sololá	1	Sololá	4	Abril	2023-10-04T00:00:00	2024-11-08T18:00:00	2	Temperatura media	20.3
17082	7	Sololá	701	Sololá	1	Sololá	4	Abril	2023-10-04T00:00:00	2024-11-08T18:00:00	4	Temperatura máxima	21.7
17083	7	Sololá	701	Sololá	1	Sololá	4	Abril	2023-10-04T00:00:00	2024-11-08T18:00:00	3	Temperatura mínima	20.3
17084	7	Sololá	701	Sololá	1	Sololá	4	Abril	2023-10-04T00:00:00	2024-11-08T18:00:00	5	Humedad	50
17085	7	Sololá	701	Sololá	1	Sololá	4	Abril	2023-10-04T00:00:00	2024-11-08T18:00:00	6	Velocidad del viento	1.6
17086	7	Sololá	701	Sololá	1	Sololá	4	Abril	2023-10-04T00:00:00	2024-11-08T18:00:00	7	Dirección del viento	1.61
17087	7	Sololá	701	Sololá	1	Sololá	4	Abril	2023-10-04T00:00:00	2024-11-08T18:00:00	1	Precipitación	0
17088	7	Sololá	701	Sololá	1	Sololá	4	Abril	2023-10-04T00:00:00	2024-11-08T18:00:00	8	Radiación solar	23
17089	7	Sololá	701	Sololá	1	Sololá	4	Abril	2023-10-04T00:00:00	2024-11-08T19:00:00	2	Temperatura media	18.3
17090	7	Sololá	701	Sololá	1	Sololá	4	Abril	2023-10-04T00:00:00	2024-11-08T19:00:00	4	Temperatura máxima	20.3
17091	7	Sololá	701	Sololá	1	Sololá	4	Abril	2023-10-04T00:00:00	2024-11-08T19:00:00	3	Temperatura mínima	18.3
17092	7	Sololá	701	Sololá	1	Sololá	4	Abril	2023-10-04T00:00:00	2024-11-08T19:00:00	5	Humedad	52
17093	7	Sololá	701	Sololá	1	Sololá	4	Abril	2023-10-04T00:00:00	2024-11-08T19:00:00	6	Velocidad del viento	0
17094	7	Sololá	701	Sololá	1	Sololá	4	Abril	2023-10-04T00:00:00	2024-11-08T19:00:00	7	Dirección del viento	0
17095	7	Sololá	701	Sololá	1	Sololá	4	Abril	2023-10-04T00:00:00	2024-11-08T19:00:00	1	Precipitación	0
17096	7	Sololá	701	Sololá	1	Sololá	4	Abril	2023-10-04T00:00:00	2024-11-08T19:00:00	8	Radiación solar	0
17097	7	Sololá	701	Sololá	1	Sololá	4	Abril	2023-10-04T00:00:00	2024-11-08T20:00:00	2	Temperatura media	15.5
17098	7	Sololá	701	Sololá	1	Sololá	4	Abril	2023-10-04T00:00:00	2024-11-08T20:00:00	4	Temperatura máxima	18.3
17099	7	Sololá	701	Sololá	1	Sololá	4	Abril	2023-10-04T00:00:00	2024-11-08T20:00:00	3	Temperatura mínima	15.5
17100	7	Sololá	701	Sololá	1	Sololá	4	Abril	2023-10-04T00:00:00	2024-11-08T20:00:00	5	Humedad	65
17101	7	Sololá	701	Sololá	1	Sololá	4	Abril	2023-10-04T00:00:00	2024-11-08T20:00:00	6	Velocidad del viento	0
17102	7	Sololá	701	Sololá	1	Sololá	4	Abril	2023-10-04T00:00:00	2024-11-08T20:00:00	7	Dirección del viento	0
17103	7	Sololá	701	Sololá	1	Sololá	4	Abril	2023-10-04T00:00:00	2024-11-08T20:00:00	1	Precipitación	0
17104	7	Sololá	701	Sololá	1	Sololá	4	Abril	2023-10-04T00:00:00	2024-11-08T20:00:00	8	Radiación solar	0
17105	7	Sololá	701	Sololá	1	Sololá	4	Abril	2023-10-04T00:00:00	2024-11-08T21:00:00	2	Temperatura media	14.3
17106	7	Sololá	701	Sololá	1	Sololá	4	Abril	2023-10-04T00:00:00	2024-11-08T21:00:00	4	Temperatura máxima	15.4
17107	7	Sololá	701	Sololá	1	Sololá	4	Abril	2023-10-04T00:00:00	2024-11-08T21:00:00	3	Temperatura mínima	14.3
17108	7	Sololá	701	Sololá	1	Sololá	4	Abril	2023-10-04T00:00:00	2024-11-08T21:00:00	5	Humedad	73
17109	7	Sololá	701	Sololá	1	Sololá	4	Abril	2023-10-04T00:00:00	2024-11-08T21:00:00	6	Velocidad del viento	0
17110	7	Sololá	701	Sololá	1	Sololá	4	Abril	2023-10-04T00:00:00	2024-11-08T21:00:00	7	Dirección del viento	0
17111	7	Sololá	701	Sololá	1	Sololá	4	Abril	2023-10-04T00:00:00	2024-11-08T21:00:00	1	Precipitación	0
17112	7	Sololá	701	Sololá	1	Sololá	4	Abril	2023-10-04T00:00:00	2024-11-08T21:00:00	8	Radiación solar	0
17113	7	Sololá	701	Sololá	1	Sololá	4	Abril	2023-10-04T00:00:00	2024-11-08T22:00:00	2	Temperatura media	13.4
17114	7	Sololá	701	Sololá	1	Sololá	4	Abril	2023-10-04T00:00:00	2024-11-08T22:00:00	4	Temperatura máxima	14.3
17115	7	Sololá	701	Sololá	1	Sololá	4	Abril	2023-10-04T00:00:00	2024-11-08T22:00:00	3	Temperatura mínima	13.4
17116	7	Sololá	701	Sololá	1	Sololá	4	Abril	2023-10-04T00:00:00	2024-11-08T22:00:00	5	Humedad	74
17117	7	Sololá	701	Sololá	1	Sololá	4	Abril	2023-10-04T00:00:00	2024-11-08T22:00:00	6	Velocidad del viento	0
17118	7	Sololá	701	Sololá	1	Sololá	4	Abril	2023-10-04T00:00:00	2024-11-08T22:00:00	7	Dirección del viento	0
17119	7	Sololá	701	Sololá	1	Sololá	4	Abril	2023-10-04T00:00:00	2024-11-08T22:00:00	1	Precipitación	0
17120	7	Sololá	701	Sololá	1	Sololá	4	Abril	2023-10-04T00:00:00	2024-11-08T22:00:00	8	Radiación solar	0
17121	7	Sololá	701	Sololá	1	Sololá	4	Abril	2023-10-04T00:00:00	2024-11-08T23:00:00	2	Temperatura media	13.3
17122	7	Sololá	701	Sololá	1	Sololá	4	Abril	2023-10-04T00:00:00	2024-11-08T23:00:00	4	Temperatura máxima	13.4
17123	7	Sololá	701	Sololá	1	Sololá	4	Abril	2023-10-04T00:00:00	2024-11-08T23:00:00	3	Temperatura mínima	13.2
17124	7	Sololá	701	Sololá	1	Sololá	4	Abril	2023-10-04T00:00:00	2024-11-08T23:00:00	5	Humedad	68
17125	7	Sololá	701	Sololá	1	Sololá	4	Abril	2023-10-04T00:00:00	2024-11-08T23:00:00	6	Velocidad del viento	0
17126	7	Sololá	701	Sololá	1	Sololá	4	Abril	2023-10-04T00:00:00	2024-11-08T23:00:00	7	Dirección del viento	0
17127	7	Sololá	701	Sololá	1	Sololá	4	Abril	2023-10-04T00:00:00	2024-11-08T23:00:00	1	Precipitación	0
17128	7	Sololá	701	Sololá	1	Sololá	4	Abril	2023-10-04T00:00:00	2024-11-08T23:00:00	8	Radiación solar	0
17129	7	Sololá	701	Sololá	1	Sololá	4	Abril	2023-11-04T00:00:00	2024-11-08T00:00:00	2	Temperatura media	13.3
17130	7	Sololá	701	Sololá	1	Sololá	4	Abril	2023-11-04T00:00:00	2024-11-08T00:00:00	4	Temperatura máxima	13.4
17131	7	Sololá	701	Sololá	1	Sololá	4	Abril	2023-11-04T00:00:00	2024-11-08T00:00:00	3	Temperatura mínima	13.2
17132	7	Sololá	701	Sololá	1	Sololá	4	Abril	2023-11-04T00:00:00	2024-11-08T00:00:00	5	Humedad	68
17133	7	Sololá	701	Sololá	1	Sololá	4	Abril	2023-11-04T00:00:00	2024-11-08T00:00:00	6	Velocidad del viento	0
17134	7	Sololá	701	Sololá	1	Sololá	4	Abril	2023-11-04T00:00:00	2024-11-08T00:00:00	7	Dirección del viento	0
17135	7	Sololá	701	Sololá	1	Sololá	4	Abril	2023-11-04T00:00:00	2024-11-08T00:00:00	1	Precipitación	0
17136	7	Sololá	701	Sololá	1	Sololá	4	Abril	2023-11-04T00:00:00	2024-11-08T00:00:00	8	Radiación solar	0
17137	7	Sololá	701	Sololá	1	Sololá	4	Abril	2023-11-04T00:00:00	2024-11-08T01:00:00	2	Temperatura media	13.1
17138	7	Sololá	701	Sololá	1	Sololá	4	Abril	2023-11-04T00:00:00	2024-11-08T01:00:00	4	Temperatura máxima	13.4
17139	7	Sololá	701	Sololá	1	Sololá	4	Abril	2023-11-04T00:00:00	2024-11-08T01:00:00	3	Temperatura mínima	13.1
17140	7	Sololá	701	Sololá	1	Sololá	4	Abril	2023-11-04T00:00:00	2024-11-08T01:00:00	5	Humedad	68
17141	7	Sololá	701	Sololá	1	Sololá	4	Abril	2023-11-04T00:00:00	2024-11-08T01:00:00	6	Velocidad del viento	0
17142	7	Sololá	701	Sololá	1	Sololá	4	Abril	2023-11-04T00:00:00	2024-11-08T01:00:00	7	Dirección del viento	0
17143	7	Sololá	701	Sololá	1	Sololá	4	Abril	2023-11-04T00:00:00	2024-11-08T01:00:00	1	Precipitación	0
17144	7	Sololá	701	Sololá	1	Sololá	4	Abril	2023-11-04T00:00:00	2024-11-08T01:00:00	8	Radiación solar	0
17145	7	Sololá	701	Sololá	1	Sololá	4	Abril	2023-11-04T00:00:00	2024-11-08T02:00:00	2	Temperatura media	12.9
17146	7	Sololá	701	Sololá	1	Sololá	4	Abril	2023-11-04T00:00:00	2024-11-08T02:00:00	4	Temperatura máxima	13.1
17147	7	Sololá	701	Sololá	1	Sololá	4	Abril	2023-11-04T00:00:00	2024-11-08T02:00:00	3	Temperatura mínima	12.9
17148	7	Sololá	701	Sololá	1	Sololá	4	Abril	2023-11-04T00:00:00	2024-11-08T02:00:00	5	Humedad	69
17149	7	Sololá	701	Sololá	1	Sololá	4	Abril	2023-11-04T00:00:00	2024-11-08T02:00:00	6	Velocidad del viento	0
17150	7	Sololá	701	Sololá	1	Sololá	4	Abril	2023-11-04T00:00:00	2024-11-08T02:00:00	7	Dirección del viento	0
17151	7	Sololá	701	Sololá	1	Sololá	4	Abril	2023-11-04T00:00:00	2024-11-08T02:00:00	1	Precipitación	0
17152	7	Sololá	701	Sololá	1	Sololá	4	Abril	2023-11-04T00:00:00	2024-11-08T02:00:00	8	Radiación solar	0
17153	7	Sololá	701	Sololá	1	Sololá	4	Abril	2023-11-04T00:00:00	2024-11-08T03:00:00	2	Temperatura media	12.9
17154	7	Sololá	701	Sololá	1	Sololá	4	Abril	2023-11-04T00:00:00	2024-11-08T03:00:00	4	Temperatura máxima	13
17155	7	Sololá	701	Sololá	1	Sololá	4	Abril	2023-11-04T00:00:00	2024-11-08T03:00:00	3	Temperatura mínima	12.9
17156	7	Sololá	701	Sololá	1	Sololá	4	Abril	2023-11-04T00:00:00	2024-11-08T03:00:00	5	Humedad	70
17157	7	Sololá	701	Sololá	1	Sololá	4	Abril	2023-11-04T00:00:00	2024-11-08T03:00:00	6	Velocidad del viento	0
17158	7	Sololá	701	Sololá	1	Sololá	4	Abril	2023-11-04T00:00:00	2024-11-08T03:00:00	7	Dirección del viento	0
17159	7	Sololá	701	Sololá	1	Sololá	4	Abril	2023-11-04T00:00:00	2024-11-08T03:00:00	1	Precipitación	0
17160	7	Sololá	701	Sololá	1	Sololá	4	Abril	2023-11-04T00:00:00	2024-11-08T03:00:00	8	Radiación solar	0
17161	7	Sololá	701	Sololá	1	Sololá	4	Abril	2023-11-04T00:00:00	2024-11-08T04:00:00	2	Temperatura media	12.6
17162	7	Sololá	701	Sololá	1	Sololá	4	Abril	2023-11-04T00:00:00	2024-11-08T04:00:00	4	Temperatura máxima	12.9
17163	7	Sololá	701	Sololá	1	Sololá	4	Abril	2023-11-04T00:00:00	2024-11-08T04:00:00	3	Temperatura mínima	12.5
17164	7	Sololá	701	Sololá	1	Sololá	4	Abril	2023-11-04T00:00:00	2024-11-08T04:00:00	5	Humedad	73
17165	7	Sololá	701	Sololá	1	Sololá	4	Abril	2023-11-04T00:00:00	2024-11-08T04:00:00	6	Velocidad del viento	0
17166	7	Sololá	701	Sololá	1	Sololá	4	Abril	2023-11-04T00:00:00	2024-11-08T04:00:00	7	Dirección del viento	0
17167	7	Sololá	701	Sololá	1	Sololá	4	Abril	2023-11-04T00:00:00	2024-11-08T04:00:00	1	Precipitación	0
17168	7	Sololá	701	Sololá	1	Sololá	4	Abril	2023-11-04T00:00:00	2024-11-08T04:00:00	8	Radiación solar	0
17169	7	Sololá	701	Sololá	1	Sololá	4	Abril	2023-11-04T00:00:00	2024-11-08T05:00:00	2	Temperatura media	12.4
17170	7	Sololá	701	Sololá	1	Sololá	4	Abril	2023-11-04T00:00:00	2024-11-08T05:00:00	4	Temperatura máxima	12.6
17171	7	Sololá	701	Sololá	1	Sololá	4	Abril	2023-11-04T00:00:00	2024-11-08T05:00:00	3	Temperatura mínima	12.4
17172	7	Sololá	701	Sololá	1	Sololá	4	Abril	2023-11-04T00:00:00	2024-11-08T05:00:00	5	Humedad	72
17173	7	Sololá	701	Sololá	1	Sololá	4	Abril	2023-11-04T00:00:00	2024-11-08T05:00:00	6	Velocidad del viento	0
17174	7	Sololá	701	Sololá	1	Sololá	4	Abril	2023-11-04T00:00:00	2024-11-08T05:00:00	7	Dirección del viento	0
17175	7	Sololá	701	Sololá	1	Sololá	4	Abril	2023-11-04T00:00:00	2024-11-08T05:00:00	1	Precipitación	0
17176	7	Sololá	701	Sololá	1	Sololá	4	Abril	2023-11-04T00:00:00	2024-11-08T05:00:00	8	Radiación solar	0
17177	7	Sololá	701	Sololá	1	Sololá	4	Abril	2023-11-04T00:00:00	2024-11-08T06:00:00	2	Temperatura media	12.3
17178	7	Sololá	701	Sololá	1	Sololá	4	Abril	2023-11-04T00:00:00	2024-11-08T06:00:00	4	Temperatura máxima	12.4
17179	7	Sololá	701	Sololá	1	Sololá	4	Abril	2023-11-04T00:00:00	2024-11-08T06:00:00	3	Temperatura mínima	12.3
17180	7	Sololá	701	Sololá	1	Sololá	4	Abril	2023-11-04T00:00:00	2024-11-08T06:00:00	5	Humedad	74
17181	7	Sololá	701	Sololá	1	Sololá	4	Abril	2023-11-04T00:00:00	2024-11-08T06:00:00	6	Velocidad del viento	0
17182	7	Sololá	701	Sololá	1	Sololá	4	Abril	2023-11-04T00:00:00	2024-11-08T06:00:00	7	Dirección del viento	0
17183	7	Sololá	701	Sololá	1	Sololá	4	Abril	2023-11-04T00:00:00	2024-11-08T06:00:00	1	Precipitación	0
17184	7	Sololá	701	Sololá	1	Sololá	4	Abril	2023-11-04T00:00:00	2024-11-08T06:00:00	8	Radiación solar	0
17185	7	Sololá	701	Sololá	1	Sololá	4	Abril	2023-11-04T00:00:00	2024-11-08T07:00:00	2	Temperatura media	12.2
17186	7	Sololá	701	Sololá	1	Sololá	4	Abril	2023-11-04T00:00:00	2024-11-08T07:00:00	4	Temperatura máxima	12.3
17187	7	Sololá	701	Sololá	1	Sololá	4	Abril	2023-11-04T00:00:00	2024-11-08T07:00:00	3	Temperatura mínima	12.2
17188	7	Sololá	701	Sololá	1	Sololá	4	Abril	2023-11-04T00:00:00	2024-11-08T07:00:00	5	Humedad	76
17189	7	Sololá	701	Sololá	1	Sololá	4	Abril	2023-11-04T00:00:00	2024-11-08T07:00:00	6	Velocidad del viento	0
17190	7	Sololá	701	Sololá	1	Sololá	4	Abril	2023-11-04T00:00:00	2024-11-08T07:00:00	7	Dirección del viento	0
17191	7	Sololá	701	Sololá	1	Sololá	4	Abril	2023-11-04T00:00:00	2024-11-08T07:00:00	1	Precipitación	0
17192	7	Sololá	701	Sololá	1	Sololá	4	Abril	2023-11-04T00:00:00	2024-11-08T07:00:00	8	Radiación solar	13
17193	7	Sololá	701	Sololá	1	Sololá	4	Abril	2023-11-04T00:00:00	2024-11-08T08:00:00	2	Temperatura media	12.5
17194	7	Sololá	701	Sololá	1	Sololá	4	Abril	2023-11-04T00:00:00	2024-11-08T08:00:00	4	Temperatura máxima	12.5
17195	7	Sololá	701	Sololá	1	Sololá	4	Abril	2023-11-04T00:00:00	2024-11-08T08:00:00	3	Temperatura mínima	12.2
17196	7	Sololá	701	Sololá	1	Sololá	4	Abril	2023-11-04T00:00:00	2024-11-08T08:00:00	5	Humedad	75
17197	7	Sololá	701	Sololá	1	Sololá	4	Abril	2023-11-04T00:00:00	2024-11-08T08:00:00	6	Velocidad del viento	0
17198	7	Sololá	701	Sololá	1	Sololá	4	Abril	2023-11-04T00:00:00	2024-11-08T08:00:00	7	Dirección del viento	0
17199	7	Sololá	701	Sololá	1	Sololá	4	Abril	2023-11-04T00:00:00	2024-11-08T08:00:00	1	Precipitación	0
17200	7	Sololá	701	Sololá	1	Sololá	4	Abril	2023-11-04T00:00:00	2024-11-08T08:00:00	8	Radiación solar	241
17201	7	Sololá	701	Sololá	1	Sololá	4	Abril	2023-11-04T00:00:00	2024-11-08T09:00:00	2	Temperatura media	15.6
17202	7	Sololá	701	Sololá	1	Sololá	4	Abril	2023-11-04T00:00:00	2024-11-08T09:00:00	4	Temperatura máxima	15.6
17203	7	Sololá	701	Sololá	1	Sololá	4	Abril	2023-11-04T00:00:00	2024-11-08T09:00:00	3	Temperatura mínima	12.4
17204	7	Sololá	701	Sololá	1	Sololá	4	Abril	2023-11-04T00:00:00	2024-11-08T09:00:00	5	Humedad	66
17205	7	Sololá	701	Sololá	1	Sololá	4	Abril	2023-11-04T00:00:00	2024-11-08T09:00:00	6	Velocidad del viento	0
17206	7	Sololá	701	Sololá	1	Sololá	4	Abril	2023-11-04T00:00:00	2024-11-08T09:00:00	7	Dirección del viento	0
17207	7	Sololá	701	Sololá	1	Sololá	4	Abril	2023-11-04T00:00:00	2024-11-08T09:00:00	1	Precipitación	0
17208	7	Sololá	701	Sololá	1	Sololá	4	Abril	2023-11-04T00:00:00	2024-11-08T09:00:00	8	Radiación solar	603
17209	7	Sololá	701	Sololá	1	Sololá	4	Abril	2023-11-04T00:00:00	2024-11-08T10:00:00	2	Temperatura media	19.5
17210	7	Sololá	701	Sololá	1	Sololá	4	Abril	2023-11-04T00:00:00	2024-11-08T10:00:00	4	Temperatura máxima	19.5
17211	7	Sololá	701	Sololá	1	Sololá	4	Abril	2023-11-04T00:00:00	2024-11-08T10:00:00	3	Temperatura mínima	15.6
17212	7	Sololá	701	Sololá	1	Sololá	4	Abril	2023-11-04T00:00:00	2024-11-08T10:00:00	5	Humedad	57
17213	7	Sololá	701	Sololá	1	Sololá	4	Abril	2023-11-04T00:00:00	2024-11-08T10:00:00	6	Velocidad del viento	0
17214	7	Sololá	701	Sololá	1	Sololá	4	Abril	2023-11-04T00:00:00	2024-11-08T10:00:00	7	Dirección del viento	0
17215	7	Sololá	701	Sololá	1	Sololá	4	Abril	2023-11-04T00:00:00	2024-11-08T10:00:00	1	Precipitación	0
17216	7	Sololá	701	Sololá	1	Sololá	4	Abril	2023-11-04T00:00:00	2024-11-08T10:00:00	8	Radiación solar	791
17217	7	Sololá	701	Sololá	1	Sololá	4	Abril	2023-11-04T00:00:00	2024-11-08T11:00:00	2	Temperatura media	21.5
17218	7	Sololá	701	Sololá	1	Sololá	4	Abril	2023-11-04T00:00:00	2024-11-08T11:00:00	4	Temperatura máxima	21.5
17219	7	Sololá	701	Sololá	1	Sololá	4	Abril	2023-11-04T00:00:00	2024-11-08T11:00:00	3	Temperatura mínima	19.5
17220	7	Sololá	701	Sololá	1	Sololá	4	Abril	2023-11-04T00:00:00	2024-11-08T11:00:00	5	Humedad	50
17221	7	Sololá	701	Sololá	1	Sololá	4	Abril	2023-11-04T00:00:00	2024-11-08T11:00:00	6	Velocidad del viento	0
17222	7	Sololá	701	Sololá	1	Sololá	4	Abril	2023-11-04T00:00:00	2024-11-08T11:00:00	7	Dirección del viento	0
17223	7	Sololá	701	Sololá	1	Sololá	4	Abril	2023-11-04T00:00:00	2024-11-08T11:00:00	1	Precipitación	0
17224	7	Sololá	701	Sololá	1	Sololá	4	Abril	2023-11-04T00:00:00	2024-11-08T11:00:00	8	Radiación solar	926
17225	7	Sololá	701	Sololá	1	Sololá	4	Abril	2023-11-04T00:00:00	2024-11-08T12:00:00	2	Temperatura media	22.8
17226	7	Sololá	701	Sololá	1	Sololá	4	Abril	2023-11-04T00:00:00	2024-11-08T12:00:00	4	Temperatura máxima	22.8
17227	7	Sololá	701	Sololá	1	Sololá	4	Abril	2023-11-04T00:00:00	2024-11-08T12:00:00	3	Temperatura mínima	21.5
17228	7	Sololá	701	Sololá	1	Sololá	4	Abril	2023-11-04T00:00:00	2024-11-08T12:00:00	5	Humedad	44
17229	7	Sololá	701	Sololá	1	Sololá	4	Abril	2023-11-04T00:00:00	2024-11-08T12:00:00	6	Velocidad del viento	0
17230	7	Sololá	701	Sololá	1	Sololá	4	Abril	2023-11-04T00:00:00	2024-11-08T12:00:00	7	Dirección del viento	0
17231	7	Sololá	701	Sololá	1	Sololá	4	Abril	2023-11-04T00:00:00	2024-11-08T12:00:00	1	Precipitación	0
17232	7	Sololá	701	Sololá	1	Sololá	4	Abril	2023-11-04T00:00:00	2024-11-08T12:00:00	8	Radiación solar	991
17233	7	Sololá	701	Sololá	1	Sololá	4	Abril	2023-11-04T00:00:00	2024-11-08T13:00:00	2	Temperatura media	23.8
17234	7	Sololá	701	Sololá	1	Sololá	4	Abril	2023-11-04T00:00:00	2024-11-08T13:00:00	4	Temperatura máxima	23.8
17235	7	Sololá	701	Sololá	1	Sololá	4	Abril	2023-11-04T00:00:00	2024-11-08T13:00:00	3	Temperatura mínima	22.7
17236	7	Sololá	701	Sololá	1	Sololá	4	Abril	2023-11-04T00:00:00	2024-11-08T13:00:00	5	Humedad	42
17237	7	Sololá	701	Sololá	1	Sololá	4	Abril	2023-11-04T00:00:00	2024-11-08T13:00:00	6	Velocidad del viento	1.6
17238	7	Sololá	701	Sololá	1	Sololá	4	Abril	2023-11-04T00:00:00	2024-11-08T13:00:00	7	Dirección del viento	1.61
17239	7	Sololá	701	Sololá	1	Sololá	4	Abril	2023-11-04T00:00:00	2024-11-08T13:00:00	1	Precipitación	0
17240	7	Sololá	701	Sololá	1	Sololá	4	Abril	2023-11-04T00:00:00	2024-11-08T13:00:00	8	Radiación solar	910
17241	7	Sololá	701	Sololá	1	Sololá	4	Abril	2023-11-04T00:00:00	2024-11-08T14:00:00	2	Temperatura media	24.1
17242	7	Sololá	701	Sololá	1	Sololá	4	Abril	2023-11-04T00:00:00	2024-11-08T14:00:00	4	Temperatura máxima	24.6
17243	7	Sololá	701	Sololá	1	Sololá	4	Abril	2023-11-04T00:00:00	2024-11-08T14:00:00	3	Temperatura mínima	23.8
17244	7	Sololá	701	Sololá	1	Sololá	4	Abril	2023-11-04T00:00:00	2024-11-08T14:00:00	5	Humedad	51
17245	7	Sololá	701	Sololá	1	Sololá	4	Abril	2023-11-04T00:00:00	2024-11-08T14:00:00	6	Velocidad del viento	1.6
17246	7	Sololá	701	Sololá	1	Sololá	4	Abril	2023-11-04T00:00:00	2024-11-08T14:00:00	7	Dirección del viento	1.61
17247	7	Sololá	701	Sololá	1	Sololá	4	Abril	2023-11-04T00:00:00	2024-11-08T14:00:00	1	Precipitación	0
17248	7	Sololá	701	Sololá	1	Sololá	4	Abril	2023-11-04T00:00:00	2024-11-08T14:00:00	8	Radiación solar	181
17249	7	Sololá	701	Sololá	1	Sololá	4	Abril	2023-11-04T00:00:00	2024-11-08T15:00:00	2	Temperatura media	20.9
17250	7	Sololá	701	Sololá	1	Sololá	4	Abril	2023-11-04T00:00:00	2024-11-08T15:00:00	4	Temperatura máxima	24.1
17251	7	Sololá	701	Sololá	1	Sololá	4	Abril	2023-11-04T00:00:00	2024-11-08T15:00:00	3	Temperatura mínima	20.8
17252	7	Sololá	701	Sololá	1	Sololá	4	Abril	2023-11-04T00:00:00	2024-11-08T15:00:00	5	Humedad	64
17253	7	Sololá	701	Sololá	1	Sololá	4	Abril	2023-11-04T00:00:00	2024-11-08T15:00:00	6	Velocidad del viento	0
17254	7	Sololá	701	Sololá	1	Sololá	4	Abril	2023-11-04T00:00:00	2024-11-08T15:00:00	7	Dirección del viento	0
17255	7	Sololá	701	Sololá	1	Sololá	4	Abril	2023-11-04T00:00:00	2024-11-08T15:00:00	1	Precipitación	0
17256	7	Sololá	701	Sololá	1	Sololá	4	Abril	2023-11-04T00:00:00	2024-11-08T15:00:00	8	Radiación solar	147
17257	7	Sololá	701	Sololá	1	Sololá	4	Abril	2023-11-04T00:00:00	2024-11-08T16:00:00	2	Temperatura media	20.9
17258	7	Sololá	701	Sololá	1	Sololá	4	Abril	2023-11-04T00:00:00	2024-11-08T16:00:00	4	Temperatura máxima	21.3
17259	7	Sololá	701	Sololá	1	Sololá	4	Abril	2023-11-04T00:00:00	2024-11-08T16:00:00	3	Temperatura mínima	20.6
17260	7	Sololá	701	Sololá	1	Sololá	4	Abril	2023-11-04T00:00:00	2024-11-08T16:00:00	5	Humedad	65
17261	7	Sololá	701	Sololá	1	Sololá	4	Abril	2023-11-04T00:00:00	2024-11-08T16:00:00	6	Velocidad del viento	0
17262	7	Sololá	701	Sololá	1	Sololá	4	Abril	2023-11-04T00:00:00	2024-11-08T16:00:00	7	Dirección del viento	0
17263	7	Sololá	701	Sololá	1	Sololá	4	Abril	2023-11-04T00:00:00	2024-11-08T16:00:00	1	Precipitación	0
17264	7	Sololá	701	Sololá	1	Sololá	4	Abril	2023-11-04T00:00:00	2024-11-08T16:00:00	8	Radiación solar	78
17265	7	Sololá	701	Sololá	1	Sololá	4	Abril	2023-11-04T00:00:00	2024-11-08T17:00:00	2	Temperatura media	20.5
17266	7	Sololá	701	Sololá	1	Sololá	4	Abril	2023-11-04T00:00:00	2024-11-08T17:00:00	4	Temperatura máxima	20.9
17267	7	Sololá	701	Sololá	1	Sololá	4	Abril	2023-11-04T00:00:00	2024-11-08T17:00:00	3	Temperatura mínima	20.3
17268	7	Sololá	701	Sololá	1	Sololá	4	Abril	2023-11-04T00:00:00	2024-11-08T17:00:00	5	Humedad	67
17269	7	Sololá	701	Sololá	1	Sololá	4	Abril	2023-11-04T00:00:00	2024-11-08T17:00:00	6	Velocidad del viento	0
17270	7	Sololá	701	Sololá	1	Sololá	4	Abril	2023-11-04T00:00:00	2024-11-08T17:00:00	7	Dirección del viento	0
17271	7	Sololá	701	Sololá	1	Sololá	4	Abril	2023-11-04T00:00:00	2024-11-08T17:00:00	1	Precipitación	0
17272	7	Sololá	701	Sololá	1	Sololá	4	Abril	2023-11-04T00:00:00	2024-11-08T17:00:00	8	Radiación solar	64
17273	7	Sololá	701	Sololá	1	Sololá	4	Abril	2023-11-04T00:00:00	2024-11-08T18:00:00	2	Temperatura media	19.3
17274	7	Sololá	701	Sololá	1	Sololá	4	Abril	2023-11-04T00:00:00	2024-11-08T18:00:00	4	Temperatura máxima	20.6
17275	7	Sololá	701	Sololá	1	Sololá	4	Abril	2023-11-04T00:00:00	2024-11-08T18:00:00	3	Temperatura mínima	19.3
17276	7	Sololá	701	Sololá	1	Sololá	4	Abril	2023-11-04T00:00:00	2024-11-08T18:00:00	5	Humedad	73
17277	7	Sololá	701	Sololá	1	Sololá	4	Abril	2023-11-04T00:00:00	2024-11-08T18:00:00	6	Velocidad del viento	0
17278	7	Sololá	701	Sololá	1	Sololá	4	Abril	2023-11-04T00:00:00	2024-11-08T18:00:00	7	Dirección del viento	0
17279	7	Sololá	701	Sololá	1	Sololá	4	Abril	2023-11-04T00:00:00	2024-11-08T18:00:00	1	Precipitación	0
17280	7	Sololá	701	Sololá	1	Sololá	4	Abril	2023-11-04T00:00:00	2024-11-08T18:00:00	8	Radiación solar	36
17281	7	Sololá	701	Sololá	1	Sololá	4	Abril	2023-11-04T00:00:00	2024-11-08T19:00:00	2	Temperatura media	17.7
17282	7	Sololá	701	Sololá	1	Sololá	4	Abril	2023-11-04T00:00:00	2024-11-08T19:00:00	4	Temperatura máxima	19.3
17283	7	Sololá	701	Sololá	1	Sololá	4	Abril	2023-11-04T00:00:00	2024-11-08T19:00:00	3	Temperatura mínima	17.7
17284	7	Sololá	701	Sololá	1	Sololá	4	Abril	2023-11-04T00:00:00	2024-11-08T19:00:00	5	Humedad	81
17285	7	Sololá	701	Sololá	1	Sololá	4	Abril	2023-11-04T00:00:00	2024-11-08T19:00:00	6	Velocidad del viento	0
17286	7	Sololá	701	Sololá	1	Sololá	4	Abril	2023-11-04T00:00:00	2024-11-08T19:00:00	7	Dirección del viento	0
17287	7	Sololá	701	Sololá	1	Sololá	4	Abril	2023-11-04T00:00:00	2024-11-08T19:00:00	1	Precipitación	0
17288	7	Sololá	701	Sololá	1	Sololá	4	Abril	2023-11-04T00:00:00	2024-11-08T19:00:00	8	Radiación solar	0
17289	7	Sololá	701	Sololá	1	Sololá	4	Abril	2023-11-04T00:00:00	2024-11-08T20:00:00	2	Temperatura media	16
17290	7	Sololá	701	Sololá	1	Sololá	4	Abril	2023-11-04T00:00:00	2024-11-08T20:00:00	4	Temperatura máxima	17.7
17291	7	Sololá	701	Sololá	1	Sololá	4	Abril	2023-11-04T00:00:00	2024-11-08T20:00:00	3	Temperatura mínima	16
17292	7	Sololá	701	Sololá	1	Sololá	4	Abril	2023-11-04T00:00:00	2024-11-08T20:00:00	5	Humedad	74
17293	7	Sololá	701	Sololá	1	Sololá	4	Abril	2023-11-04T00:00:00	2024-11-08T20:00:00	6	Velocidad del viento	0
17294	7	Sololá	701	Sololá	1	Sololá	4	Abril	2023-11-04T00:00:00	2024-11-08T20:00:00	7	Dirección del viento	0
17295	7	Sololá	701	Sololá	1	Sololá	4	Abril	2023-11-04T00:00:00	2024-11-08T20:00:00	1	Precipitación	0
17296	7	Sololá	701	Sololá	1	Sololá	4	Abril	2023-11-04T00:00:00	2024-11-08T20:00:00	8	Radiación solar	0
17297	7	Sololá	701	Sololá	1	Sololá	4	Abril	2023-11-04T00:00:00	2024-11-08T21:00:00	2	Temperatura media	15.5
17298	7	Sololá	701	Sololá	1	Sololá	4	Abril	2023-11-04T00:00:00	2024-11-08T21:00:00	4	Temperatura máxima	16.1
17299	7	Sololá	701	Sololá	1	Sololá	4	Abril	2023-11-04T00:00:00	2024-11-08T21:00:00	3	Temperatura mínima	15.5
17300	7	Sololá	701	Sololá	1	Sololá	4	Abril	2023-11-04T00:00:00	2024-11-08T21:00:00	5	Humedad	71
17301	7	Sololá	701	Sololá	1	Sololá	4	Abril	2023-11-04T00:00:00	2024-11-08T21:00:00	6	Velocidad del viento	0
17302	7	Sololá	701	Sololá	1	Sololá	4	Abril	2023-11-04T00:00:00	2024-11-08T21:00:00	7	Dirección del viento	0
17303	7	Sololá	701	Sololá	1	Sololá	4	Abril	2023-11-04T00:00:00	2024-11-08T21:00:00	1	Precipitación	0
17304	7	Sololá	701	Sololá	1	Sololá	4	Abril	2023-11-04T00:00:00	2024-11-08T21:00:00	8	Radiación solar	0
17305	7	Sololá	701	Sololá	1	Sololá	4	Abril	2023-11-04T00:00:00	2024-11-08T22:00:00	2	Temperatura media	14.7
17306	7	Sololá	701	Sololá	1	Sololá	4	Abril	2023-11-04T00:00:00	2024-11-08T22:00:00	4	Temperatura máxima	15.6
17307	7	Sololá	701	Sololá	1	Sololá	4	Abril	2023-11-04T00:00:00	2024-11-08T22:00:00	3	Temperatura mínima	14.7
17308	7	Sololá	701	Sololá	1	Sololá	4	Abril	2023-11-04T00:00:00	2024-11-08T22:00:00	5	Humedad	78
17309	7	Sololá	701	Sololá	1	Sololá	4	Abril	2023-11-04T00:00:00	2024-11-08T22:00:00	6	Velocidad del viento	0
17310	7	Sololá	701	Sololá	1	Sololá	4	Abril	2023-11-04T00:00:00	2024-11-08T22:00:00	7	Dirección del viento	0
17311	7	Sololá	701	Sololá	1	Sololá	4	Abril	2023-11-04T00:00:00	2024-11-08T22:00:00	1	Precipitación	0
17312	7	Sololá	701	Sololá	1	Sololá	4	Abril	2023-11-04T00:00:00	2024-11-08T22:00:00	8	Radiación solar	0
17313	7	Sololá	701	Sololá	1	Sololá	4	Abril	2023-11-04T00:00:00	2024-11-08T23:00:00	2	Temperatura media	13.8
17314	7	Sololá	701	Sololá	1	Sololá	4	Abril	2023-11-04T00:00:00	2024-11-08T23:00:00	4	Temperatura máxima	14.7
17315	7	Sololá	701	Sololá	1	Sololá	4	Abril	2023-11-04T00:00:00	2024-11-08T23:00:00	3	Temperatura mínima	13.8
17316	7	Sololá	701	Sololá	1	Sololá	4	Abril	2023-11-04T00:00:00	2024-11-08T23:00:00	5	Humedad	76
17317	7	Sololá	701	Sololá	1	Sololá	4	Abril	2023-11-04T00:00:00	2024-11-08T23:00:00	6	Velocidad del viento	0
17318	7	Sololá	701	Sololá	1	Sololá	4	Abril	2023-11-04T00:00:00	2024-11-08T23:00:00	7	Dirección del viento	0
17319	7	Sololá	701	Sololá	1	Sololá	4	Abril	2023-11-04T00:00:00	2024-11-08T23:00:00	1	Precipitación	0
17320	7	Sololá	701	Sololá	1	Sololá	4	Abril	2023-11-04T00:00:00	2024-11-08T23:00:00	8	Radiación solar	0
17321	7	Sololá	701	Sololá	1	Sololá	4	Abril	2023-12-04T00:00:00	2024-11-08T00:00:00	2	Temperatura media	13
17322	7	Sololá	701	Sololá	1	Sololá	4	Abril	2023-12-04T00:00:00	2024-11-08T00:00:00	4	Temperatura máxima	13.8
17323	7	Sololá	701	Sololá	1	Sololá	4	Abril	2023-12-04T00:00:00	2024-11-08T00:00:00	3	Temperatura mínima	12.9
17324	7	Sololá	701	Sololá	1	Sololá	4	Abril	2023-12-04T00:00:00	2024-11-08T00:00:00	5	Humedad	81
17325	7	Sololá	701	Sololá	1	Sololá	4	Abril	2023-12-04T00:00:00	2024-11-08T00:00:00	6	Velocidad del viento	0
17326	7	Sololá	701	Sololá	1	Sololá	4	Abril	2023-12-04T00:00:00	2024-11-08T00:00:00	7	Dirección del viento	0
17327	7	Sololá	701	Sololá	1	Sololá	4	Abril	2023-12-04T00:00:00	2024-11-08T00:00:00	1	Precipitación	0
17328	7	Sololá	701	Sololá	1	Sololá	4	Abril	2023-12-04T00:00:00	2024-11-08T00:00:00	8	Radiación solar	0
17329	7	Sololá	701	Sololá	1	Sololá	4	Abril	2023-12-04T00:00:00	2024-11-08T01:00:00	2	Temperatura media	12.8
17330	7	Sololá	701	Sololá	1	Sololá	4	Abril	2023-12-04T00:00:00	2024-11-08T01:00:00	4	Temperatura máxima	12.9
17331	7	Sololá	701	Sololá	1	Sololá	4	Abril	2023-12-04T00:00:00	2024-11-08T01:00:00	3	Temperatura mínima	12.7
17332	7	Sololá	701	Sololá	1	Sololá	4	Abril	2023-12-04T00:00:00	2024-11-08T01:00:00	5	Humedad	81
17333	7	Sololá	701	Sololá	1	Sololá	4	Abril	2023-12-04T00:00:00	2024-11-08T01:00:00	6	Velocidad del viento	0
17334	7	Sololá	701	Sololá	1	Sololá	4	Abril	2023-12-04T00:00:00	2024-11-08T01:00:00	7	Dirección del viento	0
17335	7	Sololá	701	Sololá	1	Sololá	4	Abril	2023-12-04T00:00:00	2024-11-08T01:00:00	1	Precipitación	0
17336	7	Sololá	701	Sololá	1	Sololá	4	Abril	2023-12-04T00:00:00	2024-11-08T01:00:00	8	Radiación solar	0
17337	7	Sololá	701	Sololá	1	Sololá	4	Abril	2023-12-04T00:00:00	2024-11-08T02:00:00	2	Temperatura media	12.8
17338	7	Sololá	701	Sololá	1	Sololá	4	Abril	2023-12-04T00:00:00	2024-11-08T02:00:00	4	Temperatura máxima	12.9
17339	7	Sololá	701	Sololá	1	Sololá	4	Abril	2023-12-04T00:00:00	2024-11-08T02:00:00	3	Temperatura mínima	12.8
17340	7	Sololá	701	Sololá	1	Sololá	4	Abril	2023-12-04T00:00:00	2024-11-08T02:00:00	5	Humedad	79
17341	7	Sololá	701	Sololá	1	Sololá	4	Abril	2023-12-04T00:00:00	2024-11-08T02:00:00	6	Velocidad del viento	0
17342	7	Sololá	701	Sololá	1	Sololá	4	Abril	2023-12-04T00:00:00	2024-11-08T02:00:00	7	Dirección del viento	0
17343	7	Sololá	701	Sololá	1	Sololá	4	Abril	2023-12-04T00:00:00	2024-11-08T02:00:00	1	Precipitación	0
17344	7	Sololá	701	Sololá	1	Sololá	4	Abril	2023-12-04T00:00:00	2024-11-08T02:00:00	8	Radiación solar	0
17345	7	Sololá	701	Sololá	1	Sololá	4	Abril	2023-12-04T00:00:00	2024-11-08T03:00:00	2	Temperatura media	12.5
17346	7	Sololá	701	Sololá	1	Sololá	4	Abril	2023-12-04T00:00:00	2024-11-08T03:00:00	4	Temperatura máxima	12.8
17347	7	Sololá	701	Sololá	1	Sololá	4	Abril	2023-12-04T00:00:00	2024-11-08T03:00:00	3	Temperatura mínima	12.4
17348	7	Sololá	701	Sololá	1	Sololá	4	Abril	2023-12-04T00:00:00	2024-11-08T03:00:00	5	Humedad	79
17349	7	Sololá	701	Sololá	1	Sololá	4	Abril	2023-12-04T00:00:00	2024-11-08T03:00:00	6	Velocidad del viento	0
17350	7	Sololá	701	Sololá	1	Sololá	4	Abril	2023-12-04T00:00:00	2024-11-08T03:00:00	7	Dirección del viento	0
17351	7	Sololá	701	Sololá	1	Sololá	4	Abril	2023-12-04T00:00:00	2024-11-08T03:00:00	1	Precipitación	0
17352	7	Sololá	701	Sololá	1	Sololá	4	Abril	2023-12-04T00:00:00	2024-11-08T03:00:00	8	Radiación solar	0
17353	7	Sololá	701	Sololá	1	Sololá	4	Abril	2023-12-04T00:00:00	2024-11-08T04:00:00	2	Temperatura media	12.5
17354	7	Sololá	701	Sololá	1	Sololá	4	Abril	2023-12-04T00:00:00	2024-11-08T04:00:00	4	Temperatura máxima	12.6
17355	7	Sololá	701	Sololá	1	Sololá	4	Abril	2023-12-04T00:00:00	2024-11-08T04:00:00	3	Temperatura mínima	12.4
17356	7	Sololá	701	Sololá	1	Sololá	4	Abril	2023-12-04T00:00:00	2024-11-08T04:00:00	5	Humedad	76
17357	7	Sololá	701	Sololá	1	Sololá	4	Abril	2023-12-04T00:00:00	2024-11-08T04:00:00	6	Velocidad del viento	0
17358	7	Sololá	701	Sololá	1	Sololá	4	Abril	2023-12-04T00:00:00	2024-11-08T04:00:00	7	Dirección del viento	0
17359	7	Sololá	701	Sololá	1	Sololá	4	Abril	2023-12-04T00:00:00	2024-11-08T04:00:00	1	Precipitación	0
17360	7	Sololá	701	Sololá	1	Sololá	4	Abril	2023-12-04T00:00:00	2024-11-08T04:00:00	8	Radiación solar	0
17361	7	Sololá	701	Sololá	1	Sololá	4	Abril	2023-12-04T00:00:00	2024-11-08T05:00:00	2	Temperatura media	11.5
17362	7	Sololá	701	Sololá	1	Sololá	4	Abril	2023-12-04T00:00:00	2024-11-08T05:00:00	4	Temperatura máxima	12.5
17363	7	Sololá	701	Sololá	1	Sololá	4	Abril	2023-12-04T00:00:00	2024-11-08T05:00:00	3	Temperatura mínima	11.5
17364	7	Sololá	701	Sololá	1	Sololá	4	Abril	2023-12-04T00:00:00	2024-11-08T05:00:00	5	Humedad	73
17365	7	Sololá	701	Sololá	1	Sololá	4	Abril	2023-12-04T00:00:00	2024-11-08T05:00:00	6	Velocidad del viento	0
17366	7	Sololá	701	Sololá	1	Sololá	4	Abril	2023-12-04T00:00:00	2024-11-08T05:00:00	7	Dirección del viento	0
17367	7	Sololá	701	Sololá	1	Sololá	4	Abril	2023-12-04T00:00:00	2024-11-08T05:00:00	1	Precipitación	0
17368	7	Sololá	701	Sololá	1	Sololá	4	Abril	2023-12-04T00:00:00	2024-11-08T05:00:00	8	Radiación solar	0
17369	7	Sololá	701	Sololá	1	Sololá	4	Abril	2023-12-04T00:00:00	2024-11-08T06:00:00	2	Temperatura media	11.2
17370	7	Sololá	701	Sololá	1	Sololá	4	Abril	2023-12-04T00:00:00	2024-11-08T06:00:00	4	Temperatura máxima	11.5
17371	7	Sololá	701	Sololá	1	Sololá	4	Abril	2023-12-04T00:00:00	2024-11-08T06:00:00	3	Temperatura mínima	10.9
17372	7	Sololá	701	Sololá	1	Sololá	4	Abril	2023-12-04T00:00:00	2024-11-08T06:00:00	5	Humedad	75
17373	7	Sololá	701	Sololá	1	Sololá	4	Abril	2023-12-04T00:00:00	2024-11-08T06:00:00	6	Velocidad del viento	0
17374	7	Sololá	701	Sololá	1	Sololá	4	Abril	2023-12-04T00:00:00	2024-11-08T06:00:00	7	Dirección del viento	0
17375	7	Sololá	701	Sololá	1	Sololá	4	Abril	2023-12-04T00:00:00	2024-11-08T06:00:00	1	Precipitación	0
17376	7	Sololá	701	Sololá	1	Sololá	4	Abril	2023-12-04T00:00:00	2024-11-08T06:00:00	8	Radiación solar	0
17377	7	Sololá	701	Sololá	1	Sololá	4	Abril	2023-12-04T00:00:00	2024-11-08T07:00:00	2	Temperatura media	11.6
17378	7	Sololá	701	Sololá	1	Sololá	4	Abril	2023-12-04T00:00:00	2024-11-08T07:00:00	4	Temperatura máxima	11.6
17379	7	Sololá	701	Sololá	1	Sololá	4	Abril	2023-12-04T00:00:00	2024-11-08T07:00:00	3	Temperatura mínima	11.2
17380	7	Sololá	701	Sololá	1	Sololá	4	Abril	2023-12-04T00:00:00	2024-11-08T07:00:00	5	Humedad	75
17381	7	Sololá	701	Sololá	1	Sololá	4	Abril	2023-12-04T00:00:00	2024-11-08T07:00:00	6	Velocidad del viento	0
17382	7	Sololá	701	Sololá	1	Sololá	4	Abril	2023-12-04T00:00:00	2024-11-08T07:00:00	7	Dirección del viento	0
17383	7	Sololá	701	Sololá	1	Sololá	4	Abril	2023-12-04T00:00:00	2024-11-08T07:00:00	1	Precipitación	0
17384	7	Sololá	701	Sololá	1	Sololá	4	Abril	2023-12-04T00:00:00	2024-11-08T07:00:00	8	Radiación solar	24
17385	7	Sololá	701	Sololá	1	Sololá	4	Abril	2023-12-04T00:00:00	2024-11-08T08:00:00	2	Temperatura media	12.3
17386	7	Sololá	701	Sololá	1	Sololá	4	Abril	2023-12-04T00:00:00	2024-11-08T08:00:00	4	Temperatura máxima	12.3
17387	7	Sololá	701	Sololá	1	Sololá	4	Abril	2023-12-04T00:00:00	2024-11-08T08:00:00	3	Temperatura mínima	11.3
17388	7	Sololá	701	Sololá	1	Sololá	4	Abril	2023-12-04T00:00:00	2024-11-08T08:00:00	5	Humedad	73
17389	7	Sololá	701	Sololá	1	Sololá	4	Abril	2023-12-04T00:00:00	2024-11-08T08:00:00	6	Velocidad del viento	0
17390	7	Sololá	701	Sololá	1	Sololá	4	Abril	2023-12-04T00:00:00	2024-11-08T08:00:00	7	Dirección del viento	0
17391	7	Sololá	701	Sololá	1	Sololá	4	Abril	2023-12-04T00:00:00	2024-11-08T08:00:00	1	Precipitación	0
17392	7	Sololá	701	Sololá	1	Sololá	4	Abril	2023-12-04T00:00:00	2024-11-08T08:00:00	8	Radiación solar	157
17393	7	Sololá	701	Sololá	1	Sololá	4	Abril	2023-12-04T00:00:00	2024-11-08T09:00:00	2	Temperatura media	15.8
17394	7	Sololá	701	Sololá	1	Sololá	4	Abril	2023-12-04T00:00:00	2024-11-08T09:00:00	4	Temperatura máxima	15.8
17395	7	Sololá	701	Sololá	1	Sololá	4	Abril	2023-12-04T00:00:00	2024-11-08T09:00:00	3	Temperatura mínima	12.3
17396	7	Sololá	701	Sololá	1	Sololá	4	Abril	2023-12-04T00:00:00	2024-11-08T09:00:00	5	Humedad	64
17397	7	Sololá	701	Sololá	1	Sololá	4	Abril	2023-12-04T00:00:00	2024-11-08T09:00:00	6	Velocidad del viento	0
17398	7	Sololá	701	Sololá	1	Sololá	4	Abril	2023-12-04T00:00:00	2024-11-08T09:00:00	7	Dirección del viento	0
17399	7	Sololá	701	Sololá	1	Sololá	4	Abril	2023-12-04T00:00:00	2024-11-08T09:00:00	1	Precipitación	0
17400	7	Sololá	701	Sololá	1	Sololá	4	Abril	2023-12-04T00:00:00	2024-11-08T09:00:00	8	Radiación solar	217
17401	7	Sololá	701	Sololá	1	Sololá	4	Abril	2023-12-04T00:00:00	2024-11-08T10:00:00	2	Temperatura media	17.3
17402	7	Sololá	701	Sololá	1	Sololá	4	Abril	2023-12-04T00:00:00	2024-11-08T10:00:00	4	Temperatura máxima	17.3
17403	7	Sololá	701	Sololá	1	Sololá	4	Abril	2023-12-04T00:00:00	2024-11-08T10:00:00	3	Temperatura mínima	15.8
17404	7	Sololá	701	Sololá	1	Sololá	4	Abril	2023-12-04T00:00:00	2024-11-08T10:00:00	5	Humedad	61
17405	7	Sololá	701	Sololá	1	Sololá	4	Abril	2023-12-04T00:00:00	2024-11-08T10:00:00	6	Velocidad del viento	0
17406	7	Sololá	701	Sololá	1	Sololá	4	Abril	2023-12-04T00:00:00	2024-11-08T10:00:00	7	Dirección del viento	0
17407	7	Sololá	701	Sololá	1	Sololá	4	Abril	2023-12-04T00:00:00	2024-11-08T10:00:00	1	Precipitación	0
17408	7	Sololá	701	Sololá	1	Sololá	4	Abril	2023-12-04T00:00:00	2024-11-08T10:00:00	8	Radiación solar	278
17409	7	Sololá	701	Sololá	1	Sololá	4	Abril	2023-12-04T00:00:00	2024-11-08T11:00:00	2	Temperatura media	18.1
17410	7	Sololá	701	Sololá	1	Sololá	4	Abril	2023-12-04T00:00:00	2024-11-08T11:00:00	4	Temperatura máxima	18.3
17411	7	Sololá	701	Sololá	1	Sololá	4	Abril	2023-12-04T00:00:00	2024-11-08T11:00:00	3	Temperatura mínima	17.3
17412	7	Sololá	701	Sololá	1	Sololá	4	Abril	2023-12-04T00:00:00	2024-11-08T11:00:00	5	Humedad	57
17413	7	Sololá	701	Sololá	1	Sololá	4	Abril	2023-12-04T00:00:00	2024-11-08T11:00:00	6	Velocidad del viento	0
17414	7	Sololá	701	Sololá	1	Sololá	4	Abril	2023-12-04T00:00:00	2024-11-08T11:00:00	7	Dirección del viento	0
17415	7	Sololá	701	Sololá	1	Sololá	4	Abril	2023-12-04T00:00:00	2024-11-08T11:00:00	1	Precipitación	0
17416	7	Sololá	701	Sololá	1	Sololá	4	Abril	2023-12-04T00:00:00	2024-11-08T11:00:00	8	Radiación solar	230
17417	7	Sololá	701	Sololá	1	Sololá	4	Abril	2023-12-04T00:00:00	2024-11-08T12:00:00	2	Temperatura media	18.4
17418	7	Sololá	701	Sololá	1	Sololá	4	Abril	2023-12-04T00:00:00	2024-11-08T12:00:00	4	Temperatura máxima	18.4
17419	7	Sololá	701	Sololá	1	Sololá	4	Abril	2023-12-04T00:00:00	2024-11-08T12:00:00	3	Temperatura mínima	18.1
17420	7	Sololá	701	Sololá	1	Sololá	4	Abril	2023-12-04T00:00:00	2024-11-08T12:00:00	5	Humedad	58
17421	7	Sololá	701	Sololá	1	Sololá	4	Abril	2023-12-04T00:00:00	2024-11-08T12:00:00	6	Velocidad del viento	0
17422	7	Sololá	701	Sololá	1	Sololá	4	Abril	2023-12-04T00:00:00	2024-11-08T12:00:00	7	Dirección del viento	0
17423	7	Sololá	701	Sololá	1	Sololá	4	Abril	2023-12-04T00:00:00	2024-11-08T12:00:00	1	Precipitación	0
17424	7	Sololá	701	Sololá	1	Sololá	4	Abril	2023-12-04T00:00:00	2024-11-08T12:00:00	8	Radiación solar	696
17425	7	Sololá	701	Sololá	1	Sololá	4	Abril	2023-12-04T00:00:00	2024-11-08T13:00:00	2	Temperatura media	20.6
17426	7	Sololá	701	Sololá	1	Sololá	4	Abril	2023-12-04T00:00:00	2024-11-08T13:00:00	4	Temperatura máxima	20.7
17427	7	Sololá	701	Sololá	1	Sololá	4	Abril	2023-12-04T00:00:00	2024-11-08T13:00:00	3	Temperatura mínima	18.4
17428	7	Sololá	701	Sololá	1	Sololá	4	Abril	2023-12-04T00:00:00	2024-11-08T13:00:00	5	Humedad	54
17429	7	Sololá	701	Sololá	1	Sololá	4	Abril	2023-12-04T00:00:00	2024-11-08T13:00:00	6	Velocidad del viento	0
17430	7	Sololá	701	Sololá	1	Sololá	4	Abril	2023-12-04T00:00:00	2024-11-08T13:00:00	7	Dirección del viento	0
17431	7	Sololá	701	Sololá	1	Sololá	4	Abril	2023-12-04T00:00:00	2024-11-08T13:00:00	1	Precipitación	0
17432	7	Sololá	701	Sololá	1	Sololá	4	Abril	2023-12-04T00:00:00	2024-11-08T13:00:00	8	Radiación solar	653
17433	7	Sololá	701	Sololá	1	Sololá	4	Abril	2023-12-04T00:00:00	2024-11-08T14:00:00	2	Temperatura media	20.6
17434	7	Sololá	701	Sololá	1	Sololá	4	Abril	2023-12-04T00:00:00	2024-11-08T14:00:00	4	Temperatura máxima	20.9
17435	7	Sololá	701	Sololá	1	Sololá	4	Abril	2023-12-04T00:00:00	2024-11-08T14:00:00	3	Temperatura mínima	20.4
17436	7	Sololá	701	Sololá	1	Sololá	4	Abril	2023-12-04T00:00:00	2024-11-08T14:00:00	5	Humedad	62
17437	7	Sololá	701	Sololá	1	Sololá	4	Abril	2023-12-04T00:00:00	2024-11-08T14:00:00	6	Velocidad del viento	0
17438	7	Sololá	701	Sololá	1	Sololá	4	Abril	2023-12-04T00:00:00	2024-11-08T14:00:00	7	Dirección del viento	0
17439	7	Sololá	701	Sololá	1	Sololá	4	Abril	2023-12-04T00:00:00	2024-11-08T14:00:00	1	Precipitación	0
17440	7	Sololá	701	Sololá	1	Sololá	4	Abril	2023-12-04T00:00:00	2024-11-08T14:00:00	8	Radiación solar	282
17441	7	Sololá	701	Sololá	1	Sololá	4	Abril	2023-12-04T00:00:00	2024-11-08T15:00:00	2	Temperatura media	20.3
17442	7	Sololá	701	Sololá	1	Sololá	4	Abril	2023-12-04T00:00:00	2024-11-08T15:00:00	4	Temperatura máxima	21.3
17443	7	Sololá	701	Sololá	1	Sololá	4	Abril	2023-12-04T00:00:00	2024-11-08T15:00:00	3	Temperatura mínima	20.2
17444	7	Sololá	701	Sololá	1	Sololá	4	Abril	2023-12-04T00:00:00	2024-11-08T15:00:00	5	Humedad	68
17445	7	Sololá	701	Sololá	1	Sololá	4	Abril	2023-12-04T00:00:00	2024-11-08T15:00:00	6	Velocidad del viento	0
17446	7	Sololá	701	Sololá	1	Sololá	4	Abril	2023-12-04T00:00:00	2024-11-08T15:00:00	7	Dirección del viento	0
17447	7	Sololá	701	Sololá	1	Sololá	4	Abril	2023-12-04T00:00:00	2024-11-08T15:00:00	1	Precipitación	0
17448	7	Sololá	701	Sololá	1	Sololá	4	Abril	2023-12-04T00:00:00	2024-11-08T15:00:00	8	Radiación solar	189
17449	7	Sololá	701	Sololá	1	Sololá	4	Abril	2023-12-04T00:00:00	2024-11-08T16:00:00	2	Temperatura media	19.6
17450	7	Sololá	701	Sololá	1	Sololá	4	Abril	2023-12-04T00:00:00	2024-11-08T16:00:00	4	Temperatura máxima	20.3
17451	7	Sololá	701	Sololá	1	Sololá	4	Abril	2023-12-04T00:00:00	2024-11-08T16:00:00	3	Temperatura mínima	19.4
17452	7	Sololá	701	Sololá	1	Sololá	4	Abril	2023-12-04T00:00:00	2024-11-08T16:00:00	5	Humedad	71
17453	7	Sololá	701	Sololá	1	Sololá	4	Abril	2023-12-04T00:00:00	2024-11-08T16:00:00	6	Velocidad del viento	0
17454	7	Sololá	701	Sololá	1	Sololá	4	Abril	2023-12-04T00:00:00	2024-11-08T16:00:00	7	Dirección del viento	0
17455	7	Sololá	701	Sololá	1	Sololá	4	Abril	2023-12-04T00:00:00	2024-11-08T16:00:00	1	Precipitación	0
17456	7	Sololá	701	Sololá	1	Sololá	4	Abril	2023-12-04T00:00:00	2024-11-08T16:00:00	8	Radiación solar	80
17457	7	Sololá	701	Sololá	1	Sololá	4	Abril	2023-12-04T00:00:00	2024-11-08T17:00:00	2	Temperatura media	17.6
17458	7	Sololá	701	Sololá	1	Sololá	4	Abril	2023-12-04T00:00:00	2024-11-08T17:00:00	4	Temperatura máxima	19.6
17459	7	Sololá	701	Sololá	1	Sololá	4	Abril	2023-12-04T00:00:00	2024-11-08T17:00:00	3	Temperatura mínima	17.6
17460	7	Sololá	701	Sololá	1	Sololá	4	Abril	2023-12-04T00:00:00	2024-11-08T17:00:00	5	Humedad	78
17461	7	Sololá	701	Sololá	1	Sololá	4	Abril	2023-12-04T00:00:00	2024-11-08T17:00:00	6	Velocidad del viento	0
17462	7	Sololá	701	Sololá	1	Sololá	4	Abril	2023-12-04T00:00:00	2024-11-08T17:00:00	7	Dirección del viento	0
17463	7	Sololá	701	Sololá	1	Sololá	4	Abril	2023-12-04T00:00:00	2024-11-08T17:00:00	1	Precipitación	0
17464	7	Sololá	701	Sololá	1	Sololá	4	Abril	2023-12-04T00:00:00	2024-11-08T17:00:00	8	Radiación solar	96
17465	7	Sololá	701	Sololá	1	Sololá	4	Abril	2023-12-04T00:00:00	2024-11-08T18:00:00	2	Temperatura media	18.1
17466	7	Sololá	701	Sololá	1	Sololá	4	Abril	2023-12-04T00:00:00	2024-11-08T18:00:00	4	Temperatura máxima	19
17467	7	Sololá	701	Sololá	1	Sololá	4	Abril	2023-12-04T00:00:00	2024-11-08T18:00:00	3	Temperatura mínima	17.6
17468	7	Sololá	701	Sololá	1	Sololá	4	Abril	2023-12-04T00:00:00	2024-11-08T18:00:00	5	Humedad	76
17469	7	Sololá	701	Sololá	1	Sololá	4	Abril	2023-12-04T00:00:00	2024-11-08T18:00:00	6	Velocidad del viento	0
17470	7	Sololá	701	Sololá	1	Sololá	4	Abril	2023-12-04T00:00:00	2024-11-08T18:00:00	7	Dirección del viento	0
17471	7	Sololá	701	Sololá	1	Sololá	4	Abril	2023-12-04T00:00:00	2024-11-08T18:00:00	1	Precipitación	0
17472	7	Sololá	701	Sololá	1	Sololá	4	Abril	2023-12-04T00:00:00	2024-11-08T18:00:00	8	Radiación solar	24
17473	7	Sololá	701	Sololá	1	Sololá	4	Abril	2023-12-04T00:00:00	2024-11-08T19:00:00	2	Temperatura media	16.8
17474	7	Sololá	701	Sololá	1	Sololá	4	Abril	2023-12-04T00:00:00	2024-11-08T19:00:00	4	Temperatura máxima	18.1
17475	7	Sololá	701	Sololá	1	Sololá	4	Abril	2023-12-04T00:00:00	2024-11-08T19:00:00	3	Temperatura mínima	16.8
17476	7	Sololá	701	Sololá	1	Sololá	4	Abril	2023-12-04T00:00:00	2024-11-08T19:00:00	5	Humedad	83
17477	7	Sololá	701	Sololá	1	Sololá	4	Abril	2023-12-04T00:00:00	2024-11-08T19:00:00	6	Velocidad del viento	0
17478	7	Sololá	701	Sololá	1	Sololá	4	Abril	2023-12-04T00:00:00	2024-11-08T19:00:00	7	Dirección del viento	0
17479	7	Sololá	701	Sololá	1	Sololá	4	Abril	2023-12-04T00:00:00	2024-11-08T19:00:00	1	Precipitación	0
17480	7	Sololá	701	Sololá	1	Sololá	4	Abril	2023-12-04T00:00:00	2024-11-08T19:00:00	8	Radiación solar	0
17481	7	Sololá	701	Sololá	1	Sololá	4	Abril	2023-12-04T00:00:00	2024-11-08T20:00:00	2	Temperatura media	16.3
17482	7	Sololá	701	Sololá	1	Sololá	4	Abril	2023-12-04T00:00:00	2024-11-08T20:00:00	4	Temperatura máxima	16.8
17483	7	Sololá	701	Sololá	1	Sololá	4	Abril	2023-12-04T00:00:00	2024-11-08T20:00:00	3	Temperatura mínima	16.3
17484	7	Sololá	701	Sololá	1	Sololá	4	Abril	2023-12-04T00:00:00	2024-11-08T20:00:00	5	Humedad	87
17485	7	Sololá	701	Sololá	1	Sololá	4	Abril	2023-12-04T00:00:00	2024-11-08T20:00:00	6	Velocidad del viento	0
17486	7	Sololá	701	Sololá	1	Sololá	4	Abril	2023-12-04T00:00:00	2024-11-08T20:00:00	7	Dirección del viento	0
17487	7	Sololá	701	Sololá	1	Sololá	4	Abril	2023-12-04T00:00:00	2024-11-08T20:00:00	1	Precipitación	0
17488	7	Sololá	701	Sololá	1	Sololá	4	Abril	2023-12-04T00:00:00	2024-11-08T20:00:00	8	Radiación solar	0
17489	7	Sololá	701	Sololá	1	Sololá	4	Abril	2023-12-04T00:00:00	2024-11-08T21:00:00	2	Temperatura media	15.8
17490	7	Sololá	701	Sololá	1	Sololá	4	Abril	2023-12-04T00:00:00	2024-11-08T21:00:00	4	Temperatura máxima	16.3
17491	7	Sololá	701	Sololá	1	Sololá	4	Abril	2023-12-04T00:00:00	2024-11-08T21:00:00	3	Temperatura mínima	15.8
17492	7	Sololá	701	Sololá	1	Sololá	4	Abril	2023-12-04T00:00:00	2024-11-08T21:00:00	5	Humedad	83
17493	7	Sololá	701	Sololá	1	Sololá	4	Abril	2023-12-04T00:00:00	2024-11-08T21:00:00	6	Velocidad del viento	0
17494	7	Sololá	701	Sololá	1	Sololá	4	Abril	2023-12-04T00:00:00	2024-11-08T21:00:00	7	Dirección del viento	0
17495	7	Sololá	701	Sololá	1	Sololá	4	Abril	2023-12-04T00:00:00	2024-11-08T21:00:00	1	Precipitación	0
17496	7	Sololá	701	Sololá	1	Sololá	4	Abril	2023-12-04T00:00:00	2024-11-08T21:00:00	8	Radiación solar	0
17497	7	Sololá	701	Sololá	1	Sololá	4	Abril	2023-12-04T00:00:00	2024-11-08T22:00:00	2	Temperatura media	15.7
17498	7	Sololá	701	Sololá	1	Sololá	4	Abril	2023-12-04T00:00:00	2024-11-08T22:00:00	4	Temperatura máxima	15.9
17499	7	Sololá	701	Sololá	1	Sololá	4	Abril	2023-12-04T00:00:00	2024-11-08T22:00:00	3	Temperatura mínima	15.6
17500	7	Sololá	701	Sololá	1	Sololá	4	Abril	2023-12-04T00:00:00	2024-11-08T22:00:00	5	Humedad	81
17501	7	Sololá	701	Sololá	1	Sololá	4	Abril	2023-12-04T00:00:00	2024-11-08T22:00:00	6	Velocidad del viento	0
17502	7	Sololá	701	Sololá	1	Sololá	4	Abril	2023-12-04T00:00:00	2024-11-08T22:00:00	7	Dirección del viento	0
17503	7	Sololá	701	Sololá	1	Sololá	4	Abril	2023-12-04T00:00:00	2024-11-08T22:00:00	1	Precipitación	0
17504	7	Sololá	701	Sololá	1	Sololá	4	Abril	2023-12-04T00:00:00	2024-11-08T22:00:00	8	Radiación solar	0
17505	7	Sololá	701	Sololá	1	Sololá	4	Abril	2023-12-04T00:00:00	2024-11-08T23:00:00	2	Temperatura media	14.8
17506	7	Sololá	701	Sololá	1	Sololá	4	Abril	2023-12-04T00:00:00	2024-11-08T23:00:00	4	Temperatura máxima	15.7
17507	7	Sololá	701	Sololá	1	Sololá	4	Abril	2023-12-04T00:00:00	2024-11-08T23:00:00	3	Temperatura mínima	14.8
17508	7	Sololá	701	Sololá	1	Sololá	4	Abril	2023-12-04T00:00:00	2024-11-08T23:00:00	5	Humedad	84
17509	7	Sololá	701	Sololá	1	Sololá	4	Abril	2023-12-04T00:00:00	2024-11-08T23:00:00	6	Velocidad del viento	0
17510	7	Sololá	701	Sololá	1	Sololá	4	Abril	2023-12-04T00:00:00	2024-11-08T23:00:00	7	Dirección del viento	0
17511	7	Sololá	701	Sololá	1	Sololá	4	Abril	2023-12-04T00:00:00	2024-11-08T23:00:00	1	Precipitación	0
17512	7	Sololá	701	Sololá	1	Sololá	4	Abril	2023-12-04T00:00:00	2024-11-08T23:00:00	8	Radiación solar	0
17513	7	Sololá	701	Sololá	1	Sololá	4	Abril	2023-04-13T00:00:00	2024-11-08T00:00:00	2	Temperatura media	14.1
17514	7	Sololá	701	Sololá	1	Sololá	4	Abril	2023-04-13T00:00:00	2024-11-08T00:00:00	4	Temperatura máxima	14.8
17515	7	Sololá	701	Sololá	1	Sololá	4	Abril	2023-04-13T00:00:00	2024-11-08T00:00:00	3	Temperatura mínima	14.1
17516	7	Sololá	701	Sololá	1	Sololá	4	Abril	2023-04-13T00:00:00	2024-11-08T00:00:00	5	Humedad	84
17517	7	Sololá	701	Sololá	1	Sololá	4	Abril	2023-04-13T00:00:00	2024-11-08T00:00:00	6	Velocidad del viento	0
17518	7	Sololá	701	Sololá	1	Sololá	4	Abril	2023-04-13T00:00:00	2024-11-08T00:00:00	7	Dirección del viento	0
17519	7	Sololá	701	Sololá	1	Sololá	4	Abril	2023-04-13T00:00:00	2024-11-08T00:00:00	1	Precipitación	0
17520	7	Sololá	701	Sololá	1	Sololá	4	Abril	2023-04-13T00:00:00	2024-11-08T00:00:00	8	Radiación solar	0
17521	7	Sololá	701	Sololá	1	Sololá	4	Abril	2023-04-13T00:00:00	2024-11-08T01:00:00	2	Temperatura media	14.1
17522	7	Sololá	701	Sololá	1	Sololá	4	Abril	2023-04-13T00:00:00	2024-11-08T01:00:00	4	Temperatura máxima	14.2
17523	7	Sololá	701	Sololá	1	Sololá	4	Abril	2023-04-13T00:00:00	2024-11-08T01:00:00	3	Temperatura mínima	14
17524	7	Sololá	701	Sololá	1	Sololá	4	Abril	2023-04-13T00:00:00	2024-11-08T01:00:00	5	Humedad	82
17525	7	Sololá	701	Sololá	1	Sololá	4	Abril	2023-04-13T00:00:00	2024-11-08T01:00:00	6	Velocidad del viento	0
17526	7	Sololá	701	Sololá	1	Sololá	4	Abril	2023-04-13T00:00:00	2024-11-08T01:00:00	7	Dirección del viento	0
17527	7	Sololá	701	Sololá	1	Sololá	4	Abril	2023-04-13T00:00:00	2024-11-08T01:00:00	1	Precipitación	0
17528	7	Sololá	701	Sololá	1	Sololá	4	Abril	2023-04-13T00:00:00	2024-11-08T01:00:00	8	Radiación solar	0
17529	7	Sololá	701	Sololá	1	Sololá	4	Abril	2023-04-13T00:00:00	2024-11-08T02:00:00	2	Temperatura media	14.3
17530	7	Sololá	701	Sololá	1	Sololá	4	Abril	2023-04-13T00:00:00	2024-11-08T02:00:00	4	Temperatura máxima	14.4
17531	7	Sololá	701	Sololá	1	Sololá	4	Abril	2023-04-13T00:00:00	2024-11-08T02:00:00	3	Temperatura mínima	13.9
17532	7	Sololá	701	Sololá	1	Sololá	4	Abril	2023-04-13T00:00:00	2024-11-08T02:00:00	5	Humedad	79
17533	7	Sololá	701	Sololá	1	Sololá	4	Abril	2023-04-13T00:00:00	2024-11-08T02:00:00	6	Velocidad del viento	0
17534	7	Sololá	701	Sololá	1	Sololá	4	Abril	2023-04-13T00:00:00	2024-11-08T02:00:00	7	Dirección del viento	0
17535	7	Sololá	701	Sololá	1	Sololá	4	Abril	2023-04-13T00:00:00	2024-11-08T02:00:00	1	Precipitación	0
17536	7	Sololá	701	Sololá	1	Sololá	4	Abril	2023-04-13T00:00:00	2024-11-08T02:00:00	8	Radiación solar	0
17537	7	Sololá	701	Sololá	1	Sololá	4	Abril	2023-04-13T00:00:00	2024-11-08T03:00:00	2	Temperatura media	13.6
17538	7	Sololá	701	Sololá	1	Sololá	4	Abril	2023-04-13T00:00:00	2024-11-08T03:00:00	4	Temperatura máxima	14.4
17539	7	Sololá	701	Sololá	1	Sololá	4	Abril	2023-04-13T00:00:00	2024-11-08T03:00:00	3	Temperatura mínima	13.6
17540	7	Sololá	701	Sololá	1	Sololá	4	Abril	2023-04-13T00:00:00	2024-11-08T03:00:00	5	Humedad	81
17541	7	Sololá	701	Sololá	1	Sololá	4	Abril	2023-04-13T00:00:00	2024-11-08T03:00:00	6	Velocidad del viento	0
17542	7	Sololá	701	Sololá	1	Sololá	4	Abril	2023-04-13T00:00:00	2024-11-08T03:00:00	7	Dirección del viento	0
17543	7	Sololá	701	Sololá	1	Sololá	4	Abril	2023-04-13T00:00:00	2024-11-08T03:00:00	1	Precipitación	0
17544	7	Sololá	701	Sololá	1	Sololá	4	Abril	2023-04-13T00:00:00	2024-11-08T03:00:00	8	Radiación solar	0
17545	7	Sololá	701	Sololá	1	Sololá	4	Abril	2023-04-13T00:00:00	2024-11-08T04:00:00	2	Temperatura media	12.7
17546	7	Sololá	701	Sololá	1	Sololá	4	Abril	2023-04-13T00:00:00	2024-11-08T04:00:00	4	Temperatura máxima	13.6
17547	7	Sololá	701	Sololá	1	Sololá	4	Abril	2023-04-13T00:00:00	2024-11-08T04:00:00	3	Temperatura mínima	12.7
17548	7	Sololá	701	Sololá	1	Sololá	4	Abril	2023-04-13T00:00:00	2024-11-08T04:00:00	5	Humedad	82
17549	7	Sololá	701	Sololá	1	Sololá	4	Abril	2023-04-13T00:00:00	2024-11-08T04:00:00	6	Velocidad del viento	0
17550	7	Sololá	701	Sololá	1	Sololá	4	Abril	2023-04-13T00:00:00	2024-11-08T04:00:00	7	Dirección del viento	0
17551	7	Sololá	701	Sololá	1	Sololá	4	Abril	2023-04-13T00:00:00	2024-11-08T04:00:00	1	Precipitación	0
17552	7	Sololá	701	Sololá	1	Sololá	4	Abril	2023-04-13T00:00:00	2024-11-08T04:00:00	8	Radiación solar	0
17553	7	Sololá	701	Sololá	1	Sololá	4	Abril	2023-04-13T00:00:00	2024-11-08T05:00:00	2	Temperatura media	12
17554	7	Sololá	701	Sololá	1	Sololá	4	Abril	2023-04-13T00:00:00	2024-11-08T05:00:00	4	Temperatura máxima	12.7
17555	7	Sololá	701	Sololá	1	Sololá	4	Abril	2023-04-13T00:00:00	2024-11-08T05:00:00	3	Temperatura mínima	12
17556	7	Sololá	701	Sololá	1	Sololá	4	Abril	2023-04-13T00:00:00	2024-11-08T05:00:00	5	Humedad	83
17557	7	Sololá	701	Sololá	1	Sololá	4	Abril	2023-04-13T00:00:00	2024-11-08T05:00:00	6	Velocidad del viento	0
17558	7	Sololá	701	Sololá	1	Sololá	4	Abril	2023-04-13T00:00:00	2024-11-08T05:00:00	7	Dirección del viento	0
17559	7	Sololá	701	Sololá	1	Sololá	4	Abril	2023-04-13T00:00:00	2024-11-08T05:00:00	1	Precipitación	0
17560	7	Sololá	701	Sololá	1	Sololá	4	Abril	2023-04-13T00:00:00	2024-11-08T05:00:00	8	Radiación solar	0
17561	7	Sololá	701	Sololá	1	Sololá	4	Abril	2023-04-13T00:00:00	2024-11-08T06:00:00	2	Temperatura media	12
17562	7	Sololá	701	Sololá	1	Sololá	4	Abril	2023-04-13T00:00:00	2024-11-08T06:00:00	4	Temperatura máxima	12.1
17563	7	Sololá	701	Sololá	1	Sololá	4	Abril	2023-04-13T00:00:00	2024-11-08T06:00:00	3	Temperatura mínima	11.9
17564	7	Sololá	701	Sololá	1	Sololá	4	Abril	2023-04-13T00:00:00	2024-11-08T06:00:00	5	Humedad	84
17565	7	Sololá	701	Sololá	1	Sololá	4	Abril	2023-04-13T00:00:00	2024-11-08T06:00:00	6	Velocidad del viento	0
17566	7	Sololá	701	Sololá	1	Sololá	4	Abril	2023-04-13T00:00:00	2024-11-08T06:00:00	7	Dirección del viento	0
17567	7	Sololá	701	Sololá	1	Sololá	4	Abril	2023-04-13T00:00:00	2024-11-08T06:00:00	1	Precipitación	0
17568	7	Sololá	701	Sololá	1	Sololá	4	Abril	2023-04-13T00:00:00	2024-11-08T06:00:00	8	Radiación solar	0
17569	7	Sololá	701	Sololá	1	Sololá	4	Abril	2023-04-13T00:00:00	2024-11-08T07:00:00	2	Temperatura media	12.1
17570	7	Sololá	701	Sololá	1	Sololá	4	Abril	2023-04-13T00:00:00	2024-11-08T07:00:00	4	Temperatura máxima	12.1
17571	7	Sololá	701	Sololá	1	Sololá	4	Abril	2023-04-13T00:00:00	2024-11-08T07:00:00	3	Temperatura mínima	12
17572	7	Sololá	701	Sololá	1	Sololá	4	Abril	2023-04-13T00:00:00	2024-11-08T07:00:00	5	Humedad	82
17573	7	Sololá	701	Sololá	1	Sololá	4	Abril	2023-04-13T00:00:00	2024-11-08T07:00:00	6	Velocidad del viento	1.6
17574	7	Sololá	701	Sololá	1	Sololá	4	Abril	2023-04-13T00:00:00	2024-11-08T07:00:00	7	Dirección del viento	1.61
17575	7	Sololá	701	Sololá	1	Sololá	4	Abril	2023-04-13T00:00:00	2024-11-08T07:00:00	1	Precipitación	0
17576	7	Sololá	701	Sololá	1	Sololá	4	Abril	2023-04-13T00:00:00	2024-11-08T07:00:00	8	Radiación solar	22
17577	7	Sololá	701	Sololá	1	Sololá	4	Abril	2023-04-13T00:00:00	2024-11-08T08:00:00	2	Temperatura media	12.7
17578	7	Sololá	701	Sololá	1	Sololá	4	Abril	2023-04-13T00:00:00	2024-11-08T08:00:00	4	Temperatura máxima	12.7
17579	7	Sololá	701	Sololá	1	Sololá	4	Abril	2023-04-13T00:00:00	2024-11-08T08:00:00	3	Temperatura mínima	11.9
17580	7	Sololá	701	Sololá	1	Sololá	4	Abril	2023-04-13T00:00:00	2024-11-08T08:00:00	5	Humedad	83
17581	7	Sololá	701	Sololá	1	Sololá	4	Abril	2023-04-13T00:00:00	2024-11-08T08:00:00	6	Velocidad del viento	0
17582	7	Sololá	701	Sololá	1	Sololá	4	Abril	2023-04-13T00:00:00	2024-11-08T08:00:00	7	Dirección del viento	0
17583	7	Sololá	701	Sololá	1	Sololá	4	Abril	2023-04-13T00:00:00	2024-11-08T08:00:00	1	Precipitación	0
17584	7	Sololá	701	Sololá	1	Sololá	4	Abril	2023-04-13T00:00:00	2024-11-08T08:00:00	8	Radiación solar	199
17585	7	Sololá	701	Sololá	1	Sololá	4	Abril	2023-04-13T00:00:00	2024-11-08T09:00:00	2	Temperatura media	16.1
17586	7	Sololá	701	Sololá	1	Sololá	4	Abril	2023-04-13T00:00:00	2024-11-08T09:00:00	4	Temperatura máxima	16.1
17587	7	Sololá	701	Sololá	1	Sololá	4	Abril	2023-04-13T00:00:00	2024-11-08T09:00:00	3	Temperatura mínima	12.7
17588	7	Sololá	701	Sololá	1	Sololá	4	Abril	2023-04-13T00:00:00	2024-11-08T09:00:00	5	Humedad	75
17589	7	Sololá	701	Sololá	1	Sololá	4	Abril	2023-04-13T00:00:00	2024-11-08T09:00:00	6	Velocidad del viento	0
17590	7	Sololá	701	Sololá	1	Sololá	4	Abril	2023-04-13T00:00:00	2024-11-08T09:00:00	7	Dirección del viento	0
17591	7	Sololá	701	Sololá	1	Sololá	4	Abril	2023-04-13T00:00:00	2024-11-08T09:00:00	1	Precipitación	0
17592	7	Sololá	701	Sololá	1	Sololá	4	Abril	2023-04-13T00:00:00	2024-11-08T09:00:00	8	Radiación solar	480
17593	7	Sololá	701	Sololá	1	Sololá	4	Abril	2023-04-13T00:00:00	2024-11-08T10:00:00	2	Temperatura media	18.4
17594	7	Sololá	701	Sololá	1	Sololá	4	Abril	2023-04-13T00:00:00	2024-11-08T10:00:00	4	Temperatura máxima	18.6
17595	7	Sololá	701	Sololá	1	Sololá	4	Abril	2023-04-13T00:00:00	2024-11-08T10:00:00	3	Temperatura mínima	16.1
17596	7	Sololá	701	Sololá	1	Sololá	4	Abril	2023-04-13T00:00:00	2024-11-08T10:00:00	5	Humedad	66
17597	7	Sololá	701	Sololá	1	Sololá	4	Abril	2023-04-13T00:00:00	2024-11-08T10:00:00	6	Velocidad del viento	0
17598	7	Sololá	701	Sololá	1	Sololá	4	Abril	2023-04-13T00:00:00	2024-11-08T10:00:00	7	Dirección del viento	0
17599	7	Sololá	701	Sololá	1	Sololá	4	Abril	2023-04-13T00:00:00	2024-11-08T10:00:00	1	Precipitación	0
17600	7	Sololá	701	Sololá	1	Sololá	4	Abril	2023-04-13T00:00:00	2024-11-08T10:00:00	8	Radiación solar	718
17601	7	Sololá	701	Sololá	1	Sololá	4	Abril	2023-04-13T00:00:00	2024-11-08T11:00:00	2	Temperatura media	19.1
17602	7	Sololá	701	Sololá	1	Sololá	4	Abril	2023-04-13T00:00:00	2024-11-08T11:00:00	4	Temperatura máxima	19.4
17603	7	Sololá	701	Sololá	1	Sololá	4	Abril	2023-04-13T00:00:00	2024-11-08T11:00:00	3	Temperatura mínima	18.3
17604	7	Sololá	701	Sololá	1	Sololá	4	Abril	2023-04-13T00:00:00	2024-11-08T11:00:00	5	Humedad	65
17605	7	Sololá	701	Sololá	1	Sololá	4	Abril	2023-04-13T00:00:00	2024-11-08T11:00:00	6	Velocidad del viento	0
17606	7	Sololá	701	Sololá	1	Sololá	4	Abril	2023-04-13T00:00:00	2024-11-08T11:00:00	7	Dirección del viento	0
17607	7	Sololá	701	Sololá	1	Sololá	4	Abril	2023-04-13T00:00:00	2024-11-08T11:00:00	1	Precipitación	0
17608	7	Sololá	701	Sololá	1	Sololá	4	Abril	2023-04-13T00:00:00	2024-11-08T11:00:00	8	Radiación solar	895
17609	7	Sololá	701	Sololá	1	Sololá	4	Abril	2023-04-13T00:00:00	2024-11-08T12:00:00	2	Temperatura media	21
17610	7	Sololá	701	Sololá	1	Sololá	4	Abril	2023-04-13T00:00:00	2024-11-08T12:00:00	4	Temperatura máxima	21
17611	7	Sololá	701	Sololá	1	Sololá	4	Abril	2023-04-13T00:00:00	2024-11-08T12:00:00	3	Temperatura mínima	19.1
17612	7	Sololá	701	Sololá	1	Sololá	4	Abril	2023-04-13T00:00:00	2024-11-08T12:00:00	5	Humedad	60
17613	7	Sololá	701	Sololá	1	Sololá	4	Abril	2023-04-13T00:00:00	2024-11-08T12:00:00	6	Velocidad del viento	0
17614	7	Sololá	701	Sololá	1	Sololá	4	Abril	2023-04-13T00:00:00	2024-11-08T12:00:00	7	Dirección del viento	0
17615	7	Sololá	701	Sololá	1	Sololá	4	Abril	2023-04-13T00:00:00	2024-11-08T12:00:00	1	Precipitación	0
17616	7	Sololá	701	Sololá	1	Sololá	4	Abril	2023-04-13T00:00:00	2024-11-08T12:00:00	8	Radiación solar	949
17617	7	Sololá	701	Sololá	1	Sololá	4	Abril	2023-04-13T00:00:00	2024-11-08T13:00:00	2	Temperatura media	21.3
17618	7	Sololá	701	Sololá	1	Sololá	4	Abril	2023-04-13T00:00:00	2024-11-08T13:00:00	4	Temperatura máxima	21.4
17619	7	Sololá	701	Sololá	1	Sololá	4	Abril	2023-04-13T00:00:00	2024-11-08T13:00:00	3	Temperatura mínima	21
17620	7	Sololá	701	Sololá	1	Sololá	4	Abril	2023-04-13T00:00:00	2024-11-08T13:00:00	5	Humedad	66
17621	7	Sololá	701	Sololá	1	Sololá	4	Abril	2023-04-13T00:00:00	2024-11-08T13:00:00	6	Velocidad del viento	0
17622	7	Sololá	701	Sololá	1	Sololá	4	Abril	2023-04-13T00:00:00	2024-11-08T13:00:00	7	Dirección del viento	0
17623	7	Sololá	701	Sololá	1	Sololá	4	Abril	2023-04-13T00:00:00	2024-11-08T13:00:00	1	Precipitación	0
17624	7	Sololá	701	Sololá	1	Sololá	4	Abril	2023-04-13T00:00:00	2024-11-08T13:00:00	8	Radiación solar	954
17625	7	Sololá	701	Sololá	1	Sololá	4	Abril	2023-04-13T00:00:00	2024-11-08T14:00:00	2	Temperatura media	21.7
17626	7	Sololá	701	Sololá	1	Sololá	4	Abril	2023-04-13T00:00:00	2024-11-08T14:00:00	4	Temperatura máxima	21.8
17627	7	Sololá	701	Sololá	1	Sololá	4	Abril	2023-04-13T00:00:00	2024-11-08T14:00:00	3	Temperatura mínima	21.3
17628	7	Sololá	701	Sololá	1	Sololá	4	Abril	2023-04-13T00:00:00	2024-11-08T14:00:00	5	Humedad	68
17629	7	Sololá	701	Sololá	1	Sololá	4	Abril	2023-04-13T00:00:00	2024-11-08T14:00:00	6	Velocidad del viento	0
17630	7	Sololá	701	Sololá	1	Sololá	4	Abril	2023-04-13T00:00:00	2024-11-08T14:00:00	7	Dirección del viento	0
17631	7	Sololá	701	Sololá	1	Sololá	4	Abril	2023-04-13T00:00:00	2024-11-08T14:00:00	1	Precipitación	0
17632	7	Sololá	701	Sololá	1	Sololá	4	Abril	2023-04-13T00:00:00	2024-11-08T14:00:00	8	Radiación solar	288
17633	7	Sololá	701	Sololá	1	Sololá	4	Abril	2023-04-13T00:00:00	2024-11-08T15:00:00	2	Temperatura media	21.3
17634	7	Sololá	701	Sololá	1	Sololá	4	Abril	2023-04-13T00:00:00	2024-11-08T15:00:00	4	Temperatura máxima	21.7
17635	7	Sololá	701	Sololá	1	Sololá	4	Abril	2023-04-13T00:00:00	2024-11-08T15:00:00	3	Temperatura mínima	21.2
17636	7	Sololá	701	Sololá	1	Sololá	4	Abril	2023-04-13T00:00:00	2024-11-08T15:00:00	5	Humedad	73
17637	7	Sololá	701	Sololá	1	Sololá	4	Abril	2023-04-13T00:00:00	2024-11-08T15:00:00	6	Velocidad del viento	1.6
17638	7	Sololá	701	Sololá	1	Sololá	4	Abril	2023-04-13T00:00:00	2024-11-08T15:00:00	7	Dirección del viento	1.61
17639	7	Sololá	701	Sololá	1	Sololá	4	Abril	2023-04-13T00:00:00	2024-11-08T15:00:00	1	Precipitación	0
17640	7	Sololá	701	Sololá	1	Sololá	4	Abril	2023-04-13T00:00:00	2024-11-08T15:00:00	8	Radiación solar	161
17641	7	Sololá	701	Sololá	1	Sololá	4	Abril	2023-04-13T00:00:00	2024-11-08T16:00:00	2	Temperatura media	18.9
17642	7	Sololá	701	Sololá	1	Sololá	4	Abril	2023-04-13T00:00:00	2024-11-08T16:00:00	4	Temperatura máxima	21.3
17643	7	Sololá	701	Sololá	1	Sololá	4	Abril	2023-04-13T00:00:00	2024-11-08T16:00:00	3	Temperatura mínima	18.8
17644	7	Sololá	701	Sololá	1	Sololá	4	Abril	2023-04-13T00:00:00	2024-11-08T16:00:00	5	Humedad	80
17645	7	Sololá	701	Sololá	1	Sololá	4	Abril	2023-04-13T00:00:00	2024-11-08T16:00:00	6	Velocidad del viento	0
17646	7	Sololá	701	Sololá	1	Sololá	4	Abril	2023-04-13T00:00:00	2024-11-08T16:00:00	7	Dirección del viento	0
17647	7	Sololá	701	Sololá	1	Sololá	4	Abril	2023-04-13T00:00:00	2024-11-08T16:00:00	1	Precipitación	0
17648	7	Sololá	701	Sololá	1	Sololá	4	Abril	2023-04-13T00:00:00	2024-11-08T16:00:00	8	Radiación solar	49
17649	7	Sololá	701	Sololá	1	Sololá	4	Abril	2023-04-13T00:00:00	2024-11-08T17:00:00	2	Temperatura media	17.5
17650	7	Sololá	701	Sololá	1	Sololá	4	Abril	2023-04-13T00:00:00	2024-11-08T17:00:00	4	Temperatura máxima	19.2
17651	7	Sololá	701	Sololá	1	Sololá	4	Abril	2023-04-13T00:00:00	2024-11-08T17:00:00	3	Temperatura mínima	17.5
17652	7	Sololá	701	Sololá	1	Sololá	4	Abril	2023-04-13T00:00:00	2024-11-08T17:00:00	5	Humedad	86
17653	7	Sololá	701	Sololá	1	Sololá	4	Abril	2023-04-13T00:00:00	2024-11-08T17:00:00	6	Velocidad del viento	0
17654	7	Sololá	701	Sololá	1	Sololá	4	Abril	2023-04-13T00:00:00	2024-11-08T17:00:00	7	Dirección del viento	0
17655	7	Sololá	701	Sololá	1	Sololá	4	Abril	2023-04-13T00:00:00	2024-11-08T17:00:00	1	Precipitación	0
17656	7	Sololá	701	Sololá	1	Sololá	4	Abril	2023-04-13T00:00:00	2024-11-08T17:00:00	8	Radiación solar	85
17657	7	Sololá	701	Sololá	1	Sololá	4	Abril	2023-04-13T00:00:00	2024-11-08T18:00:00	2	Temperatura media	17.7
17658	7	Sololá	701	Sololá	1	Sololá	4	Abril	2023-04-13T00:00:00	2024-11-08T18:00:00	4	Temperatura máxima	17.7
17659	7	Sololá	701	Sololá	1	Sololá	4	Abril	2023-04-13T00:00:00	2024-11-08T18:00:00	3	Temperatura mínima	17.2
17660	7	Sololá	701	Sololá	1	Sololá	4	Abril	2023-04-13T00:00:00	2024-11-08T18:00:00	5	Humedad	84
17661	7	Sololá	701	Sololá	1	Sololá	4	Abril	2023-04-13T00:00:00	2024-11-08T18:00:00	6	Velocidad del viento	0
17662	7	Sololá	701	Sololá	1	Sololá	4	Abril	2023-04-13T00:00:00	2024-11-08T18:00:00	7	Dirección del viento	0
17663	7	Sololá	701	Sololá	1	Sololá	4	Abril	2023-04-13T00:00:00	2024-11-08T18:00:00	1	Precipitación	0
17664	7	Sololá	701	Sololá	1	Sololá	4	Abril	2023-04-13T00:00:00	2024-11-08T18:00:00	8	Radiación solar	46
17665	7	Sololá	701	Sololá	1	Sololá	4	Abril	2023-04-13T00:00:00	2024-11-08T19:00:00	2	Temperatura media	16.9
17666	7	Sololá	701	Sololá	1	Sololá	4	Abril	2023-04-13T00:00:00	2024-11-08T19:00:00	4	Temperatura máxima	17.8
17667	7	Sololá	701	Sololá	1	Sololá	4	Abril	2023-04-13T00:00:00	2024-11-08T19:00:00	3	Temperatura mínima	16.9
17668	7	Sololá	701	Sololá	1	Sololá	4	Abril	2023-04-13T00:00:00	2024-11-08T19:00:00	5	Humedad	88
17669	7	Sololá	701	Sololá	1	Sololá	4	Abril	2023-04-13T00:00:00	2024-11-08T19:00:00	6	Velocidad del viento	0
17670	7	Sololá	701	Sololá	1	Sololá	4	Abril	2023-04-13T00:00:00	2024-11-08T19:00:00	7	Dirección del viento	0
17671	7	Sololá	701	Sololá	1	Sololá	4	Abril	2023-04-13T00:00:00	2024-11-08T19:00:00	1	Precipitación	0
17672	7	Sololá	701	Sololá	1	Sololá	4	Abril	2023-04-13T00:00:00	2024-11-08T19:00:00	8	Radiación solar	0
17673	7	Sololá	701	Sololá	1	Sololá	4	Abril	2023-04-13T00:00:00	2024-11-08T20:00:00	2	Temperatura media	16.3
17674	7	Sololá	701	Sololá	1	Sololá	4	Abril	2023-04-13T00:00:00	2024-11-08T20:00:00	4	Temperatura máxima	16.9
17675	7	Sololá	701	Sololá	1	Sololá	4	Abril	2023-04-13T00:00:00	2024-11-08T20:00:00	3	Temperatura mínima	16.3
17676	7	Sololá	701	Sololá	1	Sololá	4	Abril	2023-04-13T00:00:00	2024-11-08T20:00:00	5	Humedad	91
17677	7	Sololá	701	Sololá	1	Sololá	4	Abril	2023-04-13T00:00:00	2024-11-08T20:00:00	6	Velocidad del viento	0
17678	7	Sololá	701	Sololá	1	Sololá	4	Abril	2023-04-13T00:00:00	2024-11-08T20:00:00	7	Dirección del viento	0
17679	7	Sololá	701	Sololá	1	Sololá	4	Abril	2023-04-13T00:00:00	2024-11-08T20:00:00	1	Precipitación	0
17680	7	Sololá	701	Sololá	1	Sololá	4	Abril	2023-04-13T00:00:00	2024-11-08T20:00:00	8	Radiación solar	0
17681	7	Sololá	701	Sololá	1	Sololá	4	Abril	2023-04-13T00:00:00	2024-11-08T21:00:00	2	Temperatura media	16.2
17682	7	Sololá	701	Sololá	1	Sololá	4	Abril	2023-04-13T00:00:00	2024-11-08T21:00:00	4	Temperatura máxima	16.4
17683	7	Sololá	701	Sololá	1	Sololá	4	Abril	2023-04-13T00:00:00	2024-11-08T21:00:00	3	Temperatura mínima	16.2
17684	7	Sololá	701	Sololá	1	Sololá	4	Abril	2023-04-13T00:00:00	2024-11-08T21:00:00	5	Humedad	92
17685	7	Sololá	701	Sololá	1	Sololá	4	Abril	2023-04-13T00:00:00	2024-11-08T21:00:00	6	Velocidad del viento	0
17686	7	Sololá	701	Sololá	1	Sololá	4	Abril	2023-04-13T00:00:00	2024-11-08T21:00:00	7	Dirección del viento	0
17687	7	Sololá	701	Sololá	1	Sololá	4	Abril	2023-04-13T00:00:00	2024-11-08T21:00:00	1	Precipitación	0
17688	7	Sololá	701	Sololá	1	Sololá	4	Abril	2023-04-13T00:00:00	2024-11-08T21:00:00	8	Radiación solar	0
17689	7	Sololá	701	Sololá	1	Sololá	4	Abril	2023-04-13T00:00:00	2024-11-08T22:00:00	2	Temperatura media	15.8
17690	7	Sololá	701	Sololá	1	Sololá	4	Abril	2023-04-13T00:00:00	2024-11-08T22:00:00	4	Temperatura máxima	16.2
17691	7	Sololá	701	Sololá	1	Sololá	4	Abril	2023-04-13T00:00:00	2024-11-08T22:00:00	3	Temperatura mínima	15.7
17692	7	Sololá	701	Sololá	1	Sololá	4	Abril	2023-04-13T00:00:00	2024-11-08T22:00:00	5	Humedad	91
17693	7	Sololá	701	Sololá	1	Sololá	4	Abril	2023-04-13T00:00:00	2024-11-08T22:00:00	6	Velocidad del viento	0
17694	7	Sololá	701	Sololá	1	Sololá	4	Abril	2023-04-13T00:00:00	2024-11-08T22:00:00	7	Dirección del viento	0
17695	7	Sololá	701	Sololá	1	Sololá	4	Abril	2023-04-13T00:00:00	2024-11-08T22:00:00	1	Precipitación	0
17696	7	Sololá	701	Sololá	1	Sololá	4	Abril	2023-04-13T00:00:00	2024-11-08T22:00:00	8	Radiación solar	0
17697	7	Sololá	701	Sololá	1	Sololá	4	Abril	2023-04-13T00:00:00	2024-11-08T23:00:00	2	Temperatura media	14.1
17698	7	Sololá	701	Sololá	1	Sololá	4	Abril	2023-04-13T00:00:00	2024-11-08T23:00:00	4	Temperatura máxima	15.7
17699	7	Sololá	701	Sololá	1	Sololá	4	Abril	2023-04-13T00:00:00	2024-11-08T23:00:00	3	Temperatura mínima	14.1
17700	7	Sololá	701	Sololá	1	Sololá	4	Abril	2023-04-13T00:00:00	2024-11-08T23:00:00	5	Humedad	87
17701	7	Sololá	701	Sololá	1	Sololá	4	Abril	2023-04-13T00:00:00	2024-11-08T23:00:00	6	Velocidad del viento	0
17702	7	Sololá	701	Sololá	1	Sololá	4	Abril	2023-04-13T00:00:00	2024-11-08T23:00:00	7	Dirección del viento	0
17703	7	Sololá	701	Sololá	1	Sololá	4	Abril	2023-04-13T00:00:00	2024-11-08T23:00:00	1	Precipitación	0
17704	7	Sololá	701	Sololá	1	Sololá	4	Abril	2023-04-13T00:00:00	2024-11-08T23:00:00	8	Radiación solar	0
17705	7	Sololá	701	Sololá	1	Sololá	4	Abril	2023-04-14T00:00:00	2024-11-08T00:00:00	2	Temperatura media	13.6
17706	7	Sololá	701	Sololá	1	Sololá	4	Abril	2023-04-14T00:00:00	2024-11-08T00:00:00	4	Temperatura máxima	14.1
17707	7	Sololá	701	Sololá	1	Sololá	4	Abril	2023-04-14T00:00:00	2024-11-08T00:00:00	3	Temperatura mínima	13.6
17708	7	Sololá	701	Sololá	1	Sololá	4	Abril	2023-04-14T00:00:00	2024-11-08T00:00:00	5	Humedad	87
17709	7	Sololá	701	Sololá	1	Sololá	4	Abril	2023-04-14T00:00:00	2024-11-08T00:00:00	6	Velocidad del viento	0
17710	7	Sololá	701	Sololá	1	Sololá	4	Abril	2023-04-14T00:00:00	2024-11-08T00:00:00	7	Dirección del viento	0
17711	7	Sololá	701	Sololá	1	Sololá	4	Abril	2023-04-14T00:00:00	2024-11-08T00:00:00	1	Precipitación	0
17712	7	Sololá	701	Sololá	1	Sololá	4	Abril	2023-04-14T00:00:00	2024-11-08T00:00:00	8	Radiación solar	0
17713	7	Sololá	701	Sololá	1	Sololá	4	Abril	2023-04-14T00:00:00	2024-11-08T01:00:00	2	Temperatura media	13.5
17714	7	Sololá	701	Sololá	1	Sololá	4	Abril	2023-04-14T00:00:00	2024-11-08T01:00:00	4	Temperatura máxima	13.6
17715	7	Sololá	701	Sololá	1	Sololá	4	Abril	2023-04-14T00:00:00	2024-11-08T01:00:00	3	Temperatura mínima	13.4
17716	7	Sololá	701	Sololá	1	Sololá	4	Abril	2023-04-14T00:00:00	2024-11-08T01:00:00	5	Humedad	86
17717	7	Sololá	701	Sololá	1	Sololá	4	Abril	2023-04-14T00:00:00	2024-11-08T01:00:00	6	Velocidad del viento	0
17718	7	Sololá	701	Sololá	1	Sololá	4	Abril	2023-04-14T00:00:00	2024-11-08T01:00:00	7	Dirección del viento	0
17719	7	Sololá	701	Sololá	1	Sololá	4	Abril	2023-04-14T00:00:00	2024-11-08T01:00:00	1	Precipitación	0
17720	7	Sololá	701	Sololá	1	Sololá	4	Abril	2023-04-14T00:00:00	2024-11-08T01:00:00	8	Radiación solar	0
17721	7	Sololá	701	Sololá	1	Sololá	4	Abril	2023-04-14T00:00:00	2024-11-08T02:00:00	2	Temperatura media	12.3
17722	7	Sololá	701	Sololá	1	Sololá	4	Abril	2023-04-14T00:00:00	2024-11-08T02:00:00	4	Temperatura máxima	13.5
17723	7	Sololá	701	Sololá	1	Sololá	4	Abril	2023-04-14T00:00:00	2024-11-08T02:00:00	3	Temperatura mínima	12.3
17724	7	Sololá	701	Sololá	1	Sololá	4	Abril	2023-04-14T00:00:00	2024-11-08T02:00:00	5	Humedad	88
17725	7	Sololá	701	Sololá	1	Sololá	4	Abril	2023-04-14T00:00:00	2024-11-08T02:00:00	6	Velocidad del viento	0
17726	7	Sololá	701	Sololá	1	Sololá	4	Abril	2023-04-14T00:00:00	2024-11-08T02:00:00	7	Dirección del viento	0
17727	7	Sololá	701	Sololá	1	Sololá	4	Abril	2023-04-14T00:00:00	2024-11-08T02:00:00	1	Precipitación	0
17728	7	Sololá	701	Sololá	1	Sololá	4	Abril	2023-04-14T00:00:00	2024-11-08T02:00:00	8	Radiación solar	0
17729	7	Sololá	701	Sololá	1	Sololá	4	Abril	2023-04-14T00:00:00	2024-11-08T03:00:00	2	Temperatura media	12.3
17730	7	Sololá	701	Sololá	1	Sololá	4	Abril	2023-04-14T00:00:00	2024-11-08T03:00:00	4	Temperatura máxima	12.3
17731	7	Sololá	701	Sololá	1	Sololá	4	Abril	2023-04-14T00:00:00	2024-11-08T03:00:00	3	Temperatura mínima	12.1
17732	7	Sololá	701	Sololá	1	Sololá	4	Abril	2023-04-14T00:00:00	2024-11-08T03:00:00	5	Humedad	82
17733	7	Sololá	701	Sololá	1	Sololá	4	Abril	2023-04-14T00:00:00	2024-11-08T03:00:00	6	Velocidad del viento	0
17734	7	Sololá	701	Sololá	1	Sololá	4	Abril	2023-04-14T00:00:00	2024-11-08T03:00:00	7	Dirección del viento	0
17735	7	Sololá	701	Sololá	1	Sololá	4	Abril	2023-04-14T00:00:00	2024-11-08T03:00:00	1	Precipitación	0
17736	7	Sololá	701	Sololá	1	Sololá	4	Abril	2023-04-14T00:00:00	2024-11-08T03:00:00	8	Radiación solar	0
17737	7	Sololá	701	Sololá	1	Sololá	4	Abril	2023-04-14T00:00:00	2024-11-08T04:00:00	2	Temperatura media	11.5
17738	7	Sololá	701	Sololá	1	Sololá	4	Abril	2023-04-14T00:00:00	2024-11-08T04:00:00	4	Temperatura máxima	12.2
17739	7	Sololá	701	Sololá	1	Sololá	4	Abril	2023-04-14T00:00:00	2024-11-08T04:00:00	3	Temperatura mínima	11.5
17740	7	Sololá	701	Sololá	1	Sololá	4	Abril	2023-04-14T00:00:00	2024-11-08T04:00:00	5	Humedad	80
17741	7	Sololá	701	Sololá	1	Sololá	4	Abril	2023-04-14T00:00:00	2024-11-08T04:00:00	6	Velocidad del viento	0
17742	7	Sololá	701	Sololá	1	Sololá	4	Abril	2023-04-14T00:00:00	2024-11-08T04:00:00	7	Dirección del viento	0
17743	7	Sololá	701	Sololá	1	Sololá	4	Abril	2023-04-14T00:00:00	2024-11-08T04:00:00	1	Precipitación	0
17744	7	Sololá	701	Sololá	1	Sololá	4	Abril	2023-04-14T00:00:00	2024-11-08T04:00:00	8	Radiación solar	0
17745	7	Sololá	701	Sololá	1	Sololá	4	Abril	2023-04-14T00:00:00	2024-11-08T05:00:00	2	Temperatura media	11.6
17746	7	Sololá	701	Sololá	1	Sololá	4	Abril	2023-04-14T00:00:00	2024-11-08T05:00:00	4	Temperatura máxima	11.9
17747	7	Sololá	701	Sololá	1	Sololá	4	Abril	2023-04-14T00:00:00	2024-11-08T05:00:00	3	Temperatura mínima	11.4
17748	7	Sololá	701	Sololá	1	Sololá	4	Abril	2023-04-14T00:00:00	2024-11-08T05:00:00	5	Humedad	78
17749	7	Sololá	701	Sololá	1	Sololá	4	Abril	2023-04-14T00:00:00	2024-11-08T05:00:00	6	Velocidad del viento	1.6
17750	7	Sololá	701	Sololá	1	Sololá	4	Abril	2023-04-14T00:00:00	2024-11-08T05:00:00	7	Dirección del viento	1.61
17751	7	Sololá	701	Sololá	1	Sololá	4	Abril	2023-04-14T00:00:00	2024-11-08T05:00:00	1	Precipitación	0
17752	7	Sololá	701	Sololá	1	Sololá	4	Abril	2023-04-14T00:00:00	2024-11-08T05:00:00	8	Radiación solar	0
17753	7	Sololá	701	Sololá	1	Sololá	4	Abril	2023-04-14T00:00:00	2024-11-08T06:00:00	2	Temperatura media	11.1
17754	7	Sololá	701	Sololá	1	Sololá	4	Abril	2023-04-14T00:00:00	2024-11-08T06:00:00	4	Temperatura máxima	11.8
17755	7	Sololá	701	Sololá	1	Sololá	4	Abril	2023-04-14T00:00:00	2024-11-08T06:00:00	3	Temperatura mínima	11.1
17756	7	Sololá	701	Sololá	1	Sololá	4	Abril	2023-04-14T00:00:00	2024-11-08T06:00:00	5	Humedad	76
17757	7	Sololá	701	Sololá	1	Sololá	4	Abril	2023-04-14T00:00:00	2024-11-08T06:00:00	6	Velocidad del viento	0
17758	7	Sololá	701	Sololá	1	Sololá	4	Abril	2023-04-14T00:00:00	2024-11-08T06:00:00	7	Dirección del viento	0
17759	7	Sololá	701	Sololá	1	Sololá	4	Abril	2023-04-14T00:00:00	2024-11-08T06:00:00	1	Precipitación	0
17760	7	Sololá	701	Sololá	1	Sololá	4	Abril	2023-04-14T00:00:00	2024-11-08T06:00:00	8	Radiación solar	0
17761	7	Sololá	701	Sololá	1	Sololá	4	Abril	2023-04-14T00:00:00	2024-11-08T07:00:00	2	Temperatura media	10.8
17762	7	Sololá	701	Sololá	1	Sololá	4	Abril	2023-04-14T00:00:00	2024-11-08T07:00:00	4	Temperatura máxima	11.1
17763	7	Sololá	701	Sololá	1	Sololá	4	Abril	2023-04-14T00:00:00	2024-11-08T07:00:00	3	Temperatura mínima	10.6
17764	7	Sololá	701	Sololá	1	Sololá	4	Abril	2023-04-14T00:00:00	2024-11-08T07:00:00	5	Humedad	77
17765	7	Sololá	701	Sololá	1	Sololá	4	Abril	2023-04-14T00:00:00	2024-11-08T07:00:00	6	Velocidad del viento	0
17766	7	Sololá	701	Sololá	1	Sololá	4	Abril	2023-04-14T00:00:00	2024-11-08T07:00:00	7	Dirección del viento	0
17767	7	Sololá	701	Sololá	1	Sololá	4	Abril	2023-04-14T00:00:00	2024-11-08T07:00:00	1	Precipitación	0
17768	7	Sololá	701	Sololá	1	Sololá	4	Abril	2023-04-14T00:00:00	2024-11-08T07:00:00	8	Radiación solar	15
17769	7	Sololá	701	Sololá	1	Sololá	4	Abril	2023-04-14T00:00:00	2024-11-08T08:00:00	2	Temperatura media	11.7
17770	7	Sololá	701	Sololá	1	Sololá	4	Abril	2023-04-14T00:00:00	2024-11-08T08:00:00	4	Temperatura máxima	11.7
17771	7	Sololá	701	Sololá	1	Sololá	4	Abril	2023-04-14T00:00:00	2024-11-08T08:00:00	3	Temperatura mínima	10.8
17772	7	Sololá	701	Sololá	1	Sololá	4	Abril	2023-04-14T00:00:00	2024-11-08T08:00:00	5	Humedad	78
17773	7	Sololá	701	Sololá	1	Sololá	4	Abril	2023-04-14T00:00:00	2024-11-08T08:00:00	6	Velocidad del viento	0
17774	7	Sololá	701	Sololá	1	Sololá	4	Abril	2023-04-14T00:00:00	2024-11-08T08:00:00	7	Dirección del viento	0
17775	7	Sololá	701	Sololá	1	Sololá	4	Abril	2023-04-14T00:00:00	2024-11-08T08:00:00	1	Precipitación	0
17776	7	Sololá	701	Sololá	1	Sololá	4	Abril	2023-04-14T00:00:00	2024-11-08T08:00:00	8	Radiación solar	245
17777	7	Sololá	701	Sololá	1	Sololá	4	Abril	2023-04-14T00:00:00	2024-11-08T09:00:00	2	Temperatura media	16.5
17778	7	Sololá	701	Sololá	1	Sololá	4	Abril	2023-04-14T00:00:00	2024-11-08T09:00:00	4	Temperatura máxima	16.5
17779	7	Sololá	701	Sololá	1	Sololá	4	Abril	2023-04-14T00:00:00	2024-11-08T09:00:00	3	Temperatura mínima	11.7
17780	7	Sololá	701	Sololá	1	Sololá	4	Abril	2023-04-14T00:00:00	2024-11-08T09:00:00	5	Humedad	63
17781	7	Sololá	701	Sololá	1	Sololá	4	Abril	2023-04-14T00:00:00	2024-11-08T09:00:00	6	Velocidad del viento	0
17782	7	Sololá	701	Sololá	1	Sololá	4	Abril	2023-04-14T00:00:00	2024-11-08T09:00:00	7	Dirección del viento	0
17783	7	Sololá	701	Sololá	1	Sololá	4	Abril	2023-04-14T00:00:00	2024-11-08T09:00:00	1	Precipitación	0
17784	7	Sololá	701	Sololá	1	Sololá	4	Abril	2023-04-14T00:00:00	2024-11-08T09:00:00	8	Radiación solar	589
17785	7	Sololá	701	Sololá	1	Sololá	4	Abril	2023-04-14T00:00:00	2024-11-08T10:00:00	2	Temperatura media	19.2
17786	7	Sololá	701	Sololá	1	Sololá	4	Abril	2023-04-14T00:00:00	2024-11-08T10:00:00	4	Temperatura máxima	19.2
17787	7	Sololá	701	Sololá	1	Sololá	4	Abril	2023-04-14T00:00:00	2024-11-08T10:00:00	3	Temperatura mínima	16.6
17788	7	Sololá	701	Sololá	1	Sololá	4	Abril	2023-04-14T00:00:00	2024-11-08T10:00:00	5	Humedad	58
17789	7	Sololá	701	Sololá	1	Sololá	4	Abril	2023-04-14T00:00:00	2024-11-08T10:00:00	6	Velocidad del viento	0
17790	7	Sololá	701	Sololá	1	Sololá	4	Abril	2023-04-14T00:00:00	2024-11-08T10:00:00	7	Dirección del viento	0
17791	7	Sololá	701	Sololá	1	Sololá	4	Abril	2023-04-14T00:00:00	2024-11-08T10:00:00	1	Precipitación	0
17792	7	Sololá	701	Sololá	1	Sololá	4	Abril	2023-04-14T00:00:00	2024-11-08T10:00:00	8	Radiación solar	781
17793	7	Sololá	701	Sololá	1	Sololá	4	Abril	2023-04-14T00:00:00	2024-11-08T11:00:00	2	Temperatura media	20.8
17794	7	Sololá	701	Sololá	1	Sololá	4	Abril	2023-04-14T00:00:00	2024-11-08T11:00:00	4	Temperatura máxima	20.9
17795	7	Sololá	701	Sololá	1	Sololá	4	Abril	2023-04-14T00:00:00	2024-11-08T11:00:00	3	Temperatura mínima	19.2
17796	7	Sololá	701	Sololá	1	Sololá	4	Abril	2023-04-14T00:00:00	2024-11-08T11:00:00	5	Humedad	51
17797	7	Sololá	701	Sololá	1	Sololá	4	Abril	2023-04-14T00:00:00	2024-11-08T11:00:00	6	Velocidad del viento	0
17798	7	Sololá	701	Sololá	1	Sololá	4	Abril	2023-04-14T00:00:00	2024-11-08T11:00:00	7	Dirección del viento	0
17799	7	Sololá	701	Sololá	1	Sololá	4	Abril	2023-04-14T00:00:00	2024-11-08T11:00:00	1	Precipitación	0
17800	7	Sololá	701	Sololá	1	Sololá	4	Abril	2023-04-14T00:00:00	2024-11-08T11:00:00	8	Radiación solar	904
17801	7	Sololá	701	Sololá	1	Sololá	4	Abril	2023-04-14T00:00:00	2024-11-08T12:00:00	2	Temperatura media	21.6
17802	7	Sololá	701	Sololá	1	Sololá	4	Abril	2023-04-14T00:00:00	2024-11-08T12:00:00	4	Temperatura máxima	21.6
17803	7	Sololá	701	Sololá	1	Sololá	4	Abril	2023-04-14T00:00:00	2024-11-08T12:00:00	3	Temperatura mínima	20.8
17804	7	Sololá	701	Sololá	1	Sololá	4	Abril	2023-04-14T00:00:00	2024-11-08T12:00:00	5	Humedad	54
17805	7	Sololá	701	Sololá	1	Sololá	4	Abril	2023-04-14T00:00:00	2024-11-08T12:00:00	6	Velocidad del viento	0
17806	7	Sololá	701	Sololá	1	Sololá	4	Abril	2023-04-14T00:00:00	2024-11-08T12:00:00	7	Dirección del viento	0
17807	7	Sololá	701	Sololá	1	Sololá	4	Abril	2023-04-14T00:00:00	2024-11-08T12:00:00	1	Precipitación	0
17808	7	Sololá	701	Sololá	1	Sololá	4	Abril	2023-04-14T00:00:00	2024-11-08T12:00:00	8	Radiación solar	963
17809	7	Sololá	701	Sololá	1	Sololá	4	Abril	2023-04-14T00:00:00	2024-11-08T13:00:00	2	Temperatura media	22.1
17810	7	Sololá	701	Sololá	1	Sololá	4	Abril	2023-04-14T00:00:00	2024-11-08T13:00:00	4	Temperatura máxima	22.2
17811	7	Sololá	701	Sololá	1	Sololá	4	Abril	2023-04-14T00:00:00	2024-11-08T13:00:00	3	Temperatura mínima	21.5
17812	7	Sololá	701	Sololá	1	Sololá	4	Abril	2023-04-14T00:00:00	2024-11-08T13:00:00	5	Humedad	58
17813	7	Sololá	701	Sololá	1	Sololá	4	Abril	2023-04-14T00:00:00	2024-11-08T13:00:00	6	Velocidad del viento	1.6
17814	7	Sololá	701	Sololá	1	Sololá	4	Abril	2023-04-14T00:00:00	2024-11-08T13:00:00	7	Dirección del viento	1.61
17815	7	Sololá	701	Sololá	1	Sololá	4	Abril	2023-04-14T00:00:00	2024-11-08T13:00:00	1	Precipitación	0
17816	7	Sololá	701	Sololá	1	Sololá	4	Abril	2023-04-14T00:00:00	2024-11-08T13:00:00	8	Radiación solar	949
17817	7	Sololá	701	Sololá	1	Sololá	4	Abril	2023-04-14T00:00:00	2024-11-08T14:00:00	2	Temperatura media	22
17818	7	Sololá	701	Sololá	1	Sololá	4	Abril	2023-04-14T00:00:00	2024-11-08T14:00:00	4	Temperatura máxima	22.6
17819	7	Sololá	701	Sololá	1	Sololá	4	Abril	2023-04-14T00:00:00	2024-11-08T14:00:00	3	Temperatura mínima	21.9
17820	7	Sololá	701	Sololá	1	Sololá	4	Abril	2023-04-14T00:00:00	2024-11-08T14:00:00	5	Humedad	68
17821	7	Sololá	701	Sololá	1	Sololá	4	Abril	2023-04-14T00:00:00	2024-11-08T14:00:00	6	Velocidad del viento	0
17822	7	Sololá	701	Sololá	1	Sololá	4	Abril	2023-04-14T00:00:00	2024-11-08T14:00:00	7	Dirección del viento	0
17823	7	Sololá	701	Sololá	1	Sololá	4	Abril	2023-04-14T00:00:00	2024-11-08T14:00:00	1	Precipitación	0
17824	7	Sololá	701	Sololá	1	Sololá	4	Abril	2023-04-14T00:00:00	2024-11-08T14:00:00	8	Radiación solar	229
17825	7	Sololá	701	Sololá	1	Sololá	4	Abril	2023-04-14T00:00:00	2024-11-08T15:00:00	2	Temperatura media	21.7
17826	7	Sololá	701	Sololá	1	Sololá	4	Abril	2023-04-14T00:00:00	2024-11-08T15:00:00	4	Temperatura máxima	22.1
17827	7	Sololá	701	Sololá	1	Sololá	4	Abril	2023-04-14T00:00:00	2024-11-08T15:00:00	3	Temperatura mínima	21.6
17828	7	Sololá	701	Sololá	1	Sololá	4	Abril	2023-04-14T00:00:00	2024-11-08T15:00:00	5	Humedad	70
17829	7	Sololá	701	Sololá	1	Sololá	4	Abril	2023-04-14T00:00:00	2024-11-08T15:00:00	6	Velocidad del viento	1.6
17830	7	Sololá	701	Sololá	1	Sololá	4	Abril	2023-04-14T00:00:00	2024-11-08T15:00:00	7	Dirección del viento	1.61
17831	7	Sololá	701	Sololá	1	Sololá	4	Abril	2023-04-14T00:00:00	2024-11-08T15:00:00	1	Precipitación	0
17832	7	Sololá	701	Sololá	1	Sololá	4	Abril	2023-04-14T00:00:00	2024-11-08T15:00:00	8	Radiación solar	205
17833	7	Sololá	701	Sololá	1	Sololá	4	Abril	2023-04-14T00:00:00	2024-11-08T16:00:00	2	Temperatura media	21.2
17834	7	Sololá	701	Sololá	1	Sololá	4	Abril	2023-04-14T00:00:00	2024-11-08T16:00:00	4	Temperatura máxima	22
17835	7	Sololá	701	Sololá	1	Sololá	4	Abril	2023-04-14T00:00:00	2024-11-08T16:00:00	3	Temperatura mínima	21.2
17836	7	Sololá	701	Sololá	1	Sololá	4	Abril	2023-04-14T00:00:00	2024-11-08T16:00:00	5	Humedad	72
17837	7	Sololá	701	Sololá	1	Sololá	4	Abril	2023-04-14T00:00:00	2024-11-08T16:00:00	6	Velocidad del viento	1.6
17838	7	Sololá	701	Sololá	1	Sololá	4	Abril	2023-04-14T00:00:00	2024-11-08T16:00:00	7	Dirección del viento	1.61
17839	7	Sololá	701	Sololá	1	Sololá	4	Abril	2023-04-14T00:00:00	2024-11-08T16:00:00	1	Precipitación	0
17840	7	Sololá	701	Sololá	1	Sololá	4	Abril	2023-04-14T00:00:00	2024-11-08T16:00:00	8	Radiación solar	173
17841	7	Sololá	701	Sololá	1	Sololá	4	Abril	2023-04-14T00:00:00	2024-11-08T17:00:00	2	Temperatura media	20.8
17842	7	Sololá	701	Sololá	1	Sololá	4	Abril	2023-04-14T00:00:00	2024-11-08T17:00:00	4	Temperatura máxima	21.2
17843	7	Sololá	701	Sololá	1	Sololá	4	Abril	2023-04-14T00:00:00	2024-11-08T17:00:00	3	Temperatura mínima	20.7
17844	7	Sololá	701	Sololá	1	Sololá	4	Abril	2023-04-14T00:00:00	2024-11-08T17:00:00	5	Humedad	74
17845	7	Sololá	701	Sololá	1	Sololá	4	Abril	2023-04-14T00:00:00	2024-11-08T17:00:00	6	Velocidad del viento	0
17846	7	Sololá	701	Sololá	1	Sololá	4	Abril	2023-04-14T00:00:00	2024-11-08T17:00:00	7	Dirección del viento	0
17847	7	Sololá	701	Sololá	1	Sololá	4	Abril	2023-04-14T00:00:00	2024-11-08T17:00:00	1	Precipitación	0
17848	7	Sololá	701	Sololá	1	Sololá	4	Abril	2023-04-14T00:00:00	2024-11-08T17:00:00	8	Radiación solar	124
17849	7	Sololá	701	Sololá	1	Sololá	4	Abril	2023-04-14T00:00:00	2024-11-08T18:00:00	2	Temperatura media	18.7
17850	7	Sololá	701	Sololá	1	Sololá	4	Abril	2023-04-14T00:00:00	2024-11-08T18:00:00	4	Temperatura máxima	20.8
17851	7	Sololá	701	Sololá	1	Sololá	4	Abril	2023-04-14T00:00:00	2024-11-08T18:00:00	3	Temperatura mínima	18.7
17852	7	Sololá	701	Sololá	1	Sololá	4	Abril	2023-04-14T00:00:00	2024-11-08T18:00:00	5	Humedad	83
17853	7	Sololá	701	Sololá	1	Sololá	4	Abril	2023-04-14T00:00:00	2024-11-08T18:00:00	6	Velocidad del viento	0
17854	7	Sololá	701	Sololá	1	Sololá	4	Abril	2023-04-14T00:00:00	2024-11-08T18:00:00	7	Dirección del viento	0
17855	7	Sololá	701	Sololá	1	Sololá	4	Abril	2023-04-14T00:00:00	2024-11-08T18:00:00	1	Precipitación	0
17856	7	Sololá	701	Sololá	1	Sololá	4	Abril	2023-04-14T00:00:00	2024-11-08T18:00:00	8	Radiación solar	49
17857	7	Sololá	701	Sololá	1	Sololá	4	Abril	2023-04-14T00:00:00	2024-11-08T19:00:00	2	Temperatura media	17.4
17858	7	Sololá	701	Sololá	1	Sololá	4	Abril	2023-04-14T00:00:00	2024-11-08T19:00:00	4	Temperatura máxima	18.7
17859	7	Sololá	701	Sololá	1	Sololá	4	Abril	2023-04-14T00:00:00	2024-11-08T19:00:00	3	Temperatura mínima	17.4
17860	7	Sololá	701	Sololá	1	Sololá	4	Abril	2023-04-14T00:00:00	2024-11-08T19:00:00	5	Humedad	87
17861	7	Sololá	701	Sololá	1	Sololá	4	Abril	2023-04-14T00:00:00	2024-11-08T19:00:00	6	Velocidad del viento	0
17862	7	Sololá	701	Sololá	1	Sololá	4	Abril	2023-04-14T00:00:00	2024-11-08T19:00:00	7	Dirección del viento	0
17863	7	Sololá	701	Sololá	1	Sololá	4	Abril	2023-04-14T00:00:00	2024-11-08T19:00:00	1	Precipitación	0
17864	7	Sololá	701	Sololá	1	Sololá	4	Abril	2023-04-14T00:00:00	2024-11-08T19:00:00	8	Radiación solar	0
17865	7	Sololá	701	Sololá	1	Sololá	4	Abril	2023-04-14T00:00:00	2024-11-08T20:00:00	2	Temperatura media	16.8
17866	7	Sololá	701	Sololá	1	Sololá	4	Abril	2023-04-14T00:00:00	2024-11-08T20:00:00	4	Temperatura máxima	17.4
17867	7	Sololá	701	Sololá	1	Sololá	4	Abril	2023-04-14T00:00:00	2024-11-08T20:00:00	3	Temperatura mínima	16.8
17868	7	Sololá	701	Sololá	1	Sololá	4	Abril	2023-04-14T00:00:00	2024-11-08T20:00:00	5	Humedad	89
17869	7	Sololá	701	Sololá	1	Sololá	4	Abril	2023-04-14T00:00:00	2024-11-08T20:00:00	6	Velocidad del viento	0
17870	7	Sololá	701	Sololá	1	Sololá	4	Abril	2023-04-14T00:00:00	2024-11-08T20:00:00	7	Dirección del viento	0
17871	7	Sololá	701	Sololá	1	Sololá	4	Abril	2023-04-14T00:00:00	2024-11-08T20:00:00	1	Precipitación	0
17872	7	Sololá	701	Sololá	1	Sololá	4	Abril	2023-04-14T00:00:00	2024-11-08T20:00:00	8	Radiación solar	0
17873	7	Sololá	701	Sololá	1	Sololá	4	Abril	2023-04-14T00:00:00	2024-11-08T21:00:00	2	Temperatura media	16.6
17874	7	Sololá	701	Sololá	1	Sololá	4	Abril	2023-04-14T00:00:00	2024-11-08T21:00:00	4	Temperatura máxima	16.9
17875	7	Sololá	701	Sololá	1	Sololá	4	Abril	2023-04-14T00:00:00	2024-11-08T21:00:00	3	Temperatura mínima	16.6
17876	7	Sololá	701	Sololá	1	Sololá	4	Abril	2023-04-14T00:00:00	2024-11-08T21:00:00	5	Humedad	89
17877	7	Sololá	701	Sololá	1	Sololá	4	Abril	2023-04-14T00:00:00	2024-11-08T21:00:00	6	Velocidad del viento	0
17878	7	Sololá	701	Sololá	1	Sololá	4	Abril	2023-04-14T00:00:00	2024-11-08T21:00:00	7	Dirección del viento	0
17879	7	Sololá	701	Sololá	1	Sololá	4	Abril	2023-04-14T00:00:00	2024-11-08T21:00:00	1	Precipitación	0
17880	7	Sololá	701	Sololá	1	Sololá	4	Abril	2023-04-14T00:00:00	2024-11-08T21:00:00	8	Radiación solar	0
17881	7	Sololá	701	Sololá	1	Sololá	4	Abril	2023-04-14T00:00:00	2024-11-08T22:00:00	2	Temperatura media	16.2
17882	7	Sololá	701	Sololá	1	Sololá	4	Abril	2023-04-14T00:00:00	2024-11-08T22:00:00	4	Temperatura máxima	16.6
17883	7	Sololá	701	Sololá	1	Sololá	4	Abril	2023-04-14T00:00:00	2024-11-08T22:00:00	3	Temperatura mínima	16.2
17884	7	Sololá	701	Sololá	1	Sololá	4	Abril	2023-04-14T00:00:00	2024-11-08T22:00:00	5	Humedad	87
17885	7	Sololá	701	Sololá	1	Sololá	4	Abril	2023-04-14T00:00:00	2024-11-08T22:00:00	6	Velocidad del viento	0
17886	7	Sololá	701	Sololá	1	Sololá	4	Abril	2023-04-14T00:00:00	2024-11-08T22:00:00	7	Dirección del viento	0
17887	7	Sololá	701	Sololá	1	Sololá	4	Abril	2023-04-14T00:00:00	2024-11-08T22:00:00	1	Precipitación	0
17888	7	Sololá	701	Sololá	1	Sololá	4	Abril	2023-04-14T00:00:00	2024-11-08T22:00:00	8	Radiación solar	0
17889	7	Sololá	701	Sololá	1	Sololá	4	Abril	2023-04-14T00:00:00	2024-11-08T23:00:00	2	Temperatura media	15.4
17890	7	Sololá	701	Sololá	1	Sololá	4	Abril	2023-04-14T00:00:00	2024-11-08T23:00:00	4	Temperatura máxima	16.3
17891	7	Sololá	701	Sololá	1	Sololá	4	Abril	2023-04-14T00:00:00	2024-11-08T23:00:00	3	Temperatura mínima	15.4
17892	7	Sololá	701	Sololá	1	Sololá	4	Abril	2023-04-14T00:00:00	2024-11-08T23:00:00	5	Humedad	88
17893	7	Sololá	701	Sololá	1	Sololá	4	Abril	2023-04-14T00:00:00	2024-11-08T23:00:00	6	Velocidad del viento	0
17894	7	Sololá	701	Sololá	1	Sololá	4	Abril	2023-04-14T00:00:00	2024-11-08T23:00:00	7	Dirección del viento	0
17895	7	Sololá	701	Sololá	1	Sololá	4	Abril	2023-04-14T00:00:00	2024-11-08T23:00:00	1	Precipitación	0
17896	7	Sololá	701	Sololá	1	Sololá	4	Abril	2023-04-14T00:00:00	2024-11-08T23:00:00	8	Radiación solar	0
17897	7	Sololá	701	Sololá	1	Sololá	4	Abril	2023-04-15T00:00:00	2024-11-08T00:00:00	2	Temperatura media	14.5
17898	7	Sololá	701	Sololá	1	Sololá	4	Abril	2023-04-15T00:00:00	2024-11-08T00:00:00	4	Temperatura máxima	15.4
17899	7	Sololá	701	Sololá	1	Sololá	4	Abril	2023-04-15T00:00:00	2024-11-08T00:00:00	3	Temperatura mínima	14.5
17900	7	Sololá	701	Sololá	1	Sololá	4	Abril	2023-04-15T00:00:00	2024-11-08T00:00:00	5	Humedad	87
17901	7	Sololá	701	Sololá	1	Sololá	4	Abril	2023-04-15T00:00:00	2024-11-08T00:00:00	6	Velocidad del viento	0
17902	7	Sololá	701	Sololá	1	Sololá	4	Abril	2023-04-15T00:00:00	2024-11-08T00:00:00	7	Dirección del viento	0
17903	7	Sololá	701	Sololá	1	Sololá	4	Abril	2023-04-15T00:00:00	2024-11-08T00:00:00	1	Precipitación	0
17904	7	Sololá	701	Sololá	1	Sololá	4	Abril	2023-04-15T00:00:00	2024-11-08T00:00:00	8	Radiación solar	0
17905	7	Sololá	701	Sololá	1	Sololá	4	Abril	2023-04-15T00:00:00	2024-11-08T01:00:00	2	Temperatura media	14.3
17906	7	Sololá	701	Sololá	1	Sololá	4	Abril	2023-04-15T00:00:00	2024-11-08T01:00:00	4	Temperatura máxima	14.6
17907	7	Sololá	701	Sololá	1	Sololá	4	Abril	2023-04-15T00:00:00	2024-11-08T01:00:00	3	Temperatura mínima	14.3
17908	7	Sololá	701	Sololá	1	Sololá	4	Abril	2023-04-15T00:00:00	2024-11-08T01:00:00	5	Humedad	89
17909	7	Sololá	701	Sololá	1	Sololá	4	Abril	2023-04-15T00:00:00	2024-11-08T01:00:00	6	Velocidad del viento	0
17910	7	Sololá	701	Sololá	1	Sololá	4	Abril	2023-04-15T00:00:00	2024-11-08T01:00:00	7	Dirección del viento	0
17911	7	Sololá	701	Sololá	1	Sololá	4	Abril	2023-04-15T00:00:00	2024-11-08T01:00:00	1	Precipitación	0
17912	7	Sololá	701	Sololá	1	Sololá	4	Abril	2023-04-15T00:00:00	2024-11-08T01:00:00	8	Radiación solar	0
17913	7	Sololá	701	Sololá	1	Sololá	4	Abril	2023-04-15T00:00:00	2024-11-08T02:00:00	2	Temperatura media	14.6
17914	7	Sololá	701	Sololá	1	Sololá	4	Abril	2023-04-15T00:00:00	2024-11-08T02:00:00	4	Temperatura máxima	14.6
17915	7	Sololá	701	Sololá	1	Sololá	4	Abril	2023-04-15T00:00:00	2024-11-08T02:00:00	3	Temperatura mínima	14.3
17916	7	Sololá	701	Sololá	1	Sololá	4	Abril	2023-04-15T00:00:00	2024-11-08T02:00:00	5	Humedad	87
17917	7	Sololá	701	Sololá	1	Sololá	4	Abril	2023-04-15T00:00:00	2024-11-08T02:00:00	6	Velocidad del viento	0
17918	7	Sololá	701	Sololá	1	Sololá	4	Abril	2023-04-15T00:00:00	2024-11-08T02:00:00	7	Dirección del viento	0
17919	7	Sololá	701	Sololá	1	Sololá	4	Abril	2023-04-15T00:00:00	2024-11-08T02:00:00	1	Precipitación	0
17920	7	Sololá	701	Sololá	1	Sololá	4	Abril	2023-04-15T00:00:00	2024-11-08T02:00:00	8	Radiación solar	0
17921	7	Sololá	701	Sololá	1	Sololá	4	Abril	2023-04-15T00:00:00	2024-11-08T03:00:00	2	Temperatura media	14.7
17922	7	Sololá	701	Sololá	1	Sololá	4	Abril	2023-04-15T00:00:00	2024-11-08T03:00:00	4	Temperatura máxima	15
17923	7	Sololá	701	Sololá	1	Sololá	4	Abril	2023-04-15T00:00:00	2024-11-08T03:00:00	3	Temperatura mínima	14.6
17924	7	Sololá	701	Sololá	1	Sololá	4	Abril	2023-04-15T00:00:00	2024-11-08T03:00:00	5	Humedad	90
17925	7	Sololá	701	Sololá	1	Sololá	4	Abril	2023-04-15T00:00:00	2024-11-08T03:00:00	6	Velocidad del viento	0
17926	7	Sololá	701	Sololá	1	Sololá	4	Abril	2023-04-15T00:00:00	2024-11-08T03:00:00	7	Dirección del viento	0
17927	7	Sololá	701	Sololá	1	Sololá	4	Abril	2023-04-15T00:00:00	2024-11-08T03:00:00	1	Precipitación	0
17928	7	Sololá	701	Sololá	1	Sololá	4	Abril	2023-04-15T00:00:00	2024-11-08T03:00:00	8	Radiación solar	0
17929	7	Sololá	701	Sololá	1	Sololá	4	Abril	2023-04-15T00:00:00	2024-11-08T04:00:00	2	Temperatura media	14.3
17930	7	Sololá	701	Sololá	1	Sololá	4	Abril	2023-04-15T00:00:00	2024-11-08T04:00:00	4	Temperatura máxima	14.7
17931	7	Sololá	701	Sololá	1	Sololá	4	Abril	2023-04-15T00:00:00	2024-11-08T04:00:00	3	Temperatura mínima	14.3
17932	7	Sololá	701	Sololá	1	Sololá	4	Abril	2023-04-15T00:00:00	2024-11-08T04:00:00	5	Humedad	88
17933	7	Sololá	701	Sololá	1	Sololá	4	Abril	2023-04-15T00:00:00	2024-11-08T04:00:00	6	Velocidad del viento	0
17934	7	Sololá	701	Sololá	1	Sololá	4	Abril	2023-04-15T00:00:00	2024-11-08T04:00:00	7	Dirección del viento	0
17935	7	Sololá	701	Sololá	1	Sololá	4	Abril	2023-04-15T00:00:00	2024-11-08T04:00:00	1	Precipitación	0
17936	7	Sololá	701	Sololá	1	Sololá	4	Abril	2023-04-15T00:00:00	2024-11-08T04:00:00	8	Radiación solar	0
17937	7	Sololá	701	Sololá	1	Sololá	4	Abril	2023-04-15T00:00:00	2024-11-08T05:00:00	2	Temperatura media	13.3
17938	7	Sololá	701	Sololá	1	Sololá	4	Abril	2023-04-15T00:00:00	2024-11-08T05:00:00	4	Temperatura máxima	14.3
17939	7	Sololá	701	Sololá	1	Sololá	4	Abril	2023-04-15T00:00:00	2024-11-08T05:00:00	3	Temperatura mínima	13.3
17940	7	Sololá	701	Sololá	1	Sololá	4	Abril	2023-04-15T00:00:00	2024-11-08T05:00:00	5	Humedad	87
17941	7	Sololá	701	Sololá	1	Sololá	4	Abril	2023-04-15T00:00:00	2024-11-08T05:00:00	6	Velocidad del viento	0
17942	7	Sololá	701	Sololá	1	Sololá	4	Abril	2023-04-15T00:00:00	2024-11-08T05:00:00	7	Dirección del viento	0
17943	7	Sololá	701	Sololá	1	Sololá	4	Abril	2023-04-15T00:00:00	2024-11-08T05:00:00	1	Precipitación	0
17944	7	Sololá	701	Sololá	1	Sololá	4	Abril	2023-04-15T00:00:00	2024-11-08T05:00:00	8	Radiación solar	0
17945	7	Sololá	701	Sololá	1	Sololá	4	Abril	2023-04-15T00:00:00	2024-11-08T06:00:00	2	Temperatura media	12.8
17946	7	Sololá	701	Sololá	1	Sololá	4	Abril	2023-04-15T00:00:00	2024-11-08T06:00:00	4	Temperatura máxima	13.3
17947	7	Sololá	701	Sololá	1	Sololá	4	Abril	2023-04-15T00:00:00	2024-11-08T06:00:00	3	Temperatura mínima	12.8
17948	7	Sololá	701	Sololá	1	Sololá	4	Abril	2023-04-15T00:00:00	2024-11-08T06:00:00	5	Humedad	85
17949	7	Sololá	701	Sololá	1	Sololá	4	Abril	2023-04-15T00:00:00	2024-11-08T06:00:00	6	Velocidad del viento	0
17950	7	Sololá	701	Sololá	1	Sololá	4	Abril	2023-04-15T00:00:00	2024-11-08T06:00:00	7	Dirección del viento	0
17951	7	Sololá	701	Sololá	1	Sololá	4	Abril	2023-04-15T00:00:00	2024-11-08T06:00:00	1	Precipitación	0
17952	7	Sololá	701	Sololá	1	Sololá	4	Abril	2023-04-15T00:00:00	2024-11-08T06:00:00	8	Radiación solar	0
17953	7	Sololá	701	Sololá	1	Sololá	4	Abril	2023-04-15T00:00:00	2024-11-08T07:00:00	2	Temperatura media	12.7
17954	7	Sololá	701	Sololá	1	Sololá	4	Abril	2023-04-15T00:00:00	2024-11-08T07:00:00	4	Temperatura máxima	12.9
17955	7	Sololá	701	Sololá	1	Sololá	4	Abril	2023-04-15T00:00:00	2024-11-08T07:00:00	3	Temperatura mínima	12.7
17956	7	Sololá	701	Sololá	1	Sololá	4	Abril	2023-04-15T00:00:00	2024-11-08T07:00:00	5	Humedad	83
17957	7	Sololá	701	Sololá	1	Sololá	4	Abril	2023-04-15T00:00:00	2024-11-08T07:00:00	6	Velocidad del viento	0
17958	7	Sololá	701	Sololá	1	Sololá	4	Abril	2023-04-15T00:00:00	2024-11-08T07:00:00	7	Dirección del viento	0
17959	7	Sololá	701	Sololá	1	Sololá	4	Abril	2023-04-15T00:00:00	2024-11-08T07:00:00	1	Precipitación	0
17960	7	Sololá	701	Sololá	1	Sololá	4	Abril	2023-04-15T00:00:00	2024-11-08T07:00:00	8	Radiación solar	33
17961	7	Sololá	701	Sololá	1	Sololá	4	Abril	2023-04-15T00:00:00	2024-11-08T08:00:00	2	Temperatura media	13.1
17962	7	Sololá	701	Sololá	1	Sololá	4	Abril	2023-04-15T00:00:00	2024-11-08T08:00:00	4	Temperatura máxima	13.1
17963	7	Sololá	701	Sololá	1	Sololá	4	Abril	2023-04-15T00:00:00	2024-11-08T08:00:00	3	Temperatura mínima	12.5
17964	7	Sololá	701	Sololá	1	Sololá	4	Abril	2023-04-15T00:00:00	2024-11-08T08:00:00	5	Humedad	83
17965	7	Sololá	701	Sololá	1	Sololá	4	Abril	2023-04-15T00:00:00	2024-11-08T08:00:00	6	Velocidad del viento	0
17966	7	Sololá	701	Sololá	1	Sololá	4	Abril	2023-04-15T00:00:00	2024-11-08T08:00:00	7	Dirección del viento	0
17967	7	Sololá	701	Sololá	1	Sololá	4	Abril	2023-04-15T00:00:00	2024-11-08T08:00:00	1	Precipitación	0
17968	7	Sololá	701	Sololá	1	Sololá	4	Abril	2023-04-15T00:00:00	2024-11-08T08:00:00	8	Radiación solar	203
17969	7	Sololá	701	Sololá	1	Sololá	4	Abril	2023-04-15T00:00:00	2024-11-08T09:00:00	2	Temperatura media	16.9
17970	7	Sololá	701	Sololá	1	Sololá	4	Abril	2023-04-15T00:00:00	2024-11-08T09:00:00	4	Temperatura máxima	16.9
17971	7	Sololá	701	Sololá	1	Sololá	4	Abril	2023-04-15T00:00:00	2024-11-08T09:00:00	3	Temperatura mínima	13.1
17972	7	Sololá	701	Sololá	1	Sololá	4	Abril	2023-04-15T00:00:00	2024-11-08T09:00:00	5	Humedad	79
17973	7	Sololá	701	Sololá	1	Sololá	4	Abril	2023-04-15T00:00:00	2024-11-08T09:00:00	6	Velocidad del viento	0
17974	7	Sololá	701	Sololá	1	Sololá	4	Abril	2023-04-15T00:00:00	2024-11-08T09:00:00	7	Dirección del viento	0
17975	7	Sololá	701	Sololá	1	Sololá	4	Abril	2023-04-15T00:00:00	2024-11-08T09:00:00	1	Precipitación	0
17976	7	Sololá	701	Sololá	1	Sololá	4	Abril	2023-04-15T00:00:00	2024-11-08T09:00:00	8	Radiación solar	494
17977	7	Sololá	701	Sololá	1	Sololá	4	Abril	2023-04-15T00:00:00	2024-11-08T10:00:00	2	Temperatura media	19.7
17978	7	Sololá	701	Sololá	1	Sololá	4	Abril	2023-04-15T00:00:00	2024-11-08T10:00:00	4	Temperatura máxima	19.8
17979	7	Sololá	701	Sololá	1	Sololá	4	Abril	2023-04-15T00:00:00	2024-11-08T10:00:00	3	Temperatura mínima	16.9
17980	7	Sololá	701	Sololá	1	Sololá	4	Abril	2023-04-15T00:00:00	2024-11-08T10:00:00	5	Humedad	74
17981	7	Sololá	701	Sololá	1	Sololá	4	Abril	2023-04-15T00:00:00	2024-11-08T10:00:00	6	Velocidad del viento	0
17982	7	Sololá	701	Sololá	1	Sololá	4	Abril	2023-04-15T00:00:00	2024-11-08T10:00:00	7	Dirección del viento	0
17983	7	Sololá	701	Sololá	1	Sololá	4	Abril	2023-04-15T00:00:00	2024-11-08T10:00:00	1	Precipitación	0
17984	7	Sololá	701	Sololá	1	Sololá	4	Abril	2023-04-15T00:00:00	2024-11-08T10:00:00	8	Radiación solar	747
17985	7	Sololá	701	Sololá	1	Sololá	4	Abril	2023-04-15T00:00:00	2024-11-08T11:00:00	2	Temperatura media	20.7
17986	7	Sololá	701	Sololá	1	Sololá	4	Abril	2023-04-15T00:00:00	2024-11-08T11:00:00	4	Temperatura máxima	20.7
17987	7	Sololá	701	Sololá	1	Sololá	4	Abril	2023-04-15T00:00:00	2024-11-08T11:00:00	3	Temperatura mínima	19.6
17988	7	Sololá	701	Sololá	1	Sololá	4	Abril	2023-04-15T00:00:00	2024-11-08T11:00:00	5	Humedad	68
17989	7	Sololá	701	Sololá	1	Sololá	4	Abril	2023-04-15T00:00:00	2024-11-08T11:00:00	6	Velocidad del viento	0
17990	7	Sololá	701	Sololá	1	Sololá	4	Abril	2023-04-15T00:00:00	2024-11-08T11:00:00	7	Dirección del viento	0
17991	7	Sololá	701	Sololá	1	Sololá	4	Abril	2023-04-15T00:00:00	2024-11-08T11:00:00	1	Precipitación	0
17992	7	Sololá	701	Sololá	1	Sololá	4	Abril	2023-04-15T00:00:00	2024-11-08T11:00:00	8	Radiación solar	855
17993	7	Sololá	701	Sololá	1	Sololá	4	Abril	2023-04-15T00:00:00	2024-11-08T12:00:00	2	Temperatura media	21.4
17994	7	Sololá	701	Sololá	1	Sololá	4	Abril	2023-04-15T00:00:00	2024-11-08T12:00:00	4	Temperatura máxima	21.4
17995	7	Sololá	701	Sololá	1	Sololá	4	Abril	2023-04-15T00:00:00	2024-11-08T12:00:00	3	Temperatura mínima	20.7
17996	7	Sololá	701	Sololá	1	Sololá	4	Abril	2023-04-15T00:00:00	2024-11-08T12:00:00	5	Humedad	70
17997	7	Sololá	701	Sololá	1	Sololá	4	Abril	2023-04-15T00:00:00	2024-11-08T12:00:00	6	Velocidad del viento	0
17998	7	Sololá	701	Sololá	1	Sololá	4	Abril	2023-04-15T00:00:00	2024-11-08T12:00:00	7	Dirección del viento	0
17999	7	Sololá	701	Sololá	1	Sololá	4	Abril	2023-04-15T00:00:00	2024-11-08T12:00:00	1	Precipitación	0
18000	7	Sololá	701	Sololá	1	Sololá	4	Abril	2023-04-15T00:00:00	2024-11-08T12:00:00	8	Radiación solar	876
18001	7	Sololá	701	Sololá	1	Sololá	4	Abril	2023-04-15T00:00:00	2024-11-08T13:00:00	2	Temperatura media	21.8
18002	7	Sololá	701	Sololá	1	Sololá	4	Abril	2023-04-15T00:00:00	2024-11-08T13:00:00	4	Temperatura máxima	21.8
18003	7	Sololá	701	Sololá	1	Sololá	4	Abril	2023-04-15T00:00:00	2024-11-08T13:00:00	3	Temperatura mínima	21.2
18004	7	Sololá	701	Sololá	1	Sololá	4	Abril	2023-04-15T00:00:00	2024-11-08T13:00:00	5	Humedad	71
18005	7	Sololá	701	Sololá	1	Sololá	4	Abril	2023-04-15T00:00:00	2024-11-08T13:00:00	6	Velocidad del viento	0
18006	7	Sololá	701	Sololá	1	Sololá	4	Abril	2023-04-15T00:00:00	2024-11-08T13:00:00	7	Dirección del viento	0
18007	7	Sololá	701	Sololá	1	Sololá	4	Abril	2023-04-15T00:00:00	2024-11-08T13:00:00	1	Precipitación	0
18008	7	Sololá	701	Sololá	1	Sololá	4	Abril	2023-04-15T00:00:00	2024-11-08T13:00:00	8	Radiación solar	655
18009	7	Sololá	701	Sololá	1	Sololá	4	Abril	2023-04-15T00:00:00	2024-11-08T14:00:00	2	Temperatura media	21.2
18010	7	Sololá	701	Sololá	1	Sololá	4	Abril	2023-04-15T00:00:00	2024-11-08T14:00:00	4	Temperatura máxima	22
18011	7	Sololá	701	Sololá	1	Sololá	4	Abril	2023-04-15T00:00:00	2024-11-08T14:00:00	3	Temperatura mínima	20.8
18012	7	Sololá	701	Sololá	1	Sololá	4	Abril	2023-04-15T00:00:00	2024-11-08T14:00:00	5	Humedad	75
18013	7	Sololá	701	Sololá	1	Sololá	4	Abril	2023-04-15T00:00:00	2024-11-08T14:00:00	6	Velocidad del viento	0
18014	7	Sololá	701	Sololá	1	Sololá	4	Abril	2023-04-15T00:00:00	2024-11-08T14:00:00	7	Dirección del viento	0
18015	7	Sololá	701	Sololá	1	Sololá	4	Abril	2023-04-15T00:00:00	2024-11-08T14:00:00	1	Precipitación	0
18016	7	Sololá	701	Sololá	1	Sololá	4	Abril	2023-04-15T00:00:00	2024-11-08T14:00:00	8	Radiación solar	311
18017	7	Sololá	701	Sololá	1	Sololá	4	Abril	2023-04-15T00:00:00	2024-11-08T15:00:00	2	Temperatura media	21.6
18018	7	Sololá	701	Sololá	1	Sololá	4	Abril	2023-04-15T00:00:00	2024-11-08T15:00:00	4	Temperatura máxima	21.9
18019	7	Sololá	701	Sololá	1	Sololá	4	Abril	2023-04-15T00:00:00	2024-11-08T15:00:00	3	Temperatura mínima	21.2
18020	7	Sololá	701	Sololá	1	Sololá	4	Abril	2023-04-15T00:00:00	2024-11-08T15:00:00	5	Humedad	74
18021	7	Sololá	701	Sololá	1	Sololá	4	Abril	2023-04-15T00:00:00	2024-11-08T15:00:00	6	Velocidad del viento	1.6
18022	7	Sololá	701	Sololá	1	Sololá	4	Abril	2023-04-15T00:00:00	2024-11-08T15:00:00	7	Dirección del viento	1.61
18023	7	Sololá	701	Sololá	1	Sololá	4	Abril	2023-04-15T00:00:00	2024-11-08T15:00:00	1	Precipitación	0
18024	7	Sololá	701	Sololá	1	Sololá	4	Abril	2023-04-15T00:00:00	2024-11-08T15:00:00	8	Radiación solar	132
18025	7	Sololá	701	Sololá	1	Sololá	4	Abril	2023-04-15T00:00:00	2024-11-08T16:00:00	2	Temperatura media	18.9
18026	7	Sololá	701	Sololá	1	Sololá	4	Abril	2023-04-15T00:00:00	2024-11-08T16:00:00	4	Temperatura máxima	21.6
18027	7	Sololá	701	Sololá	1	Sololá	4	Abril	2023-04-15T00:00:00	2024-11-08T16:00:00	3	Temperatura mínima	18.9
18028	7	Sololá	701	Sololá	1	Sololá	4	Abril	2023-04-15T00:00:00	2024-11-08T16:00:00	5	Humedad	85
18029	7	Sololá	701	Sololá	1	Sololá	4	Abril	2023-04-15T00:00:00	2024-11-08T16:00:00	6	Velocidad del viento	0
18030	7	Sololá	701	Sololá	1	Sololá	4	Abril	2023-04-15T00:00:00	2024-11-08T16:00:00	7	Dirección del viento	0
18031	7	Sololá	701	Sololá	1	Sololá	4	Abril	2023-04-15T00:00:00	2024-11-08T16:00:00	1	Precipitación	0
18032	7	Sololá	701	Sololá	1	Sololá	4	Abril	2023-04-15T00:00:00	2024-11-08T16:00:00	8	Radiación solar	35
18033	7	Sololá	701	Sololá	1	Sololá	4	Abril	2023-04-15T00:00:00	2024-11-08T17:00:00	2	Temperatura media	17.6
18034	7	Sololá	701	Sololá	1	Sololá	4	Abril	2023-04-15T00:00:00	2024-11-08T17:00:00	4	Temperatura máxima	18.9
18035	7	Sololá	701	Sololá	1	Sololá	4	Abril	2023-04-15T00:00:00	2024-11-08T17:00:00	3	Temperatura mínima	17.6
18036	7	Sololá	701	Sololá	1	Sololá	4	Abril	2023-04-15T00:00:00	2024-11-08T17:00:00	5	Humedad	90
18037	7	Sololá	701	Sololá	1	Sololá	4	Abril	2023-04-15T00:00:00	2024-11-08T17:00:00	6	Velocidad del viento	0
18038	7	Sololá	701	Sololá	1	Sololá	4	Abril	2023-04-15T00:00:00	2024-11-08T17:00:00	7	Dirección del viento	0
18039	7	Sololá	701	Sololá	1	Sololá	4	Abril	2023-04-15T00:00:00	2024-11-08T17:00:00	1	Precipitación	0
18040	7	Sololá	701	Sololá	1	Sololá	4	Abril	2023-04-15T00:00:00	2024-11-08T17:00:00	8	Radiación solar	10
18041	7	Sololá	701	Sololá	1	Sololá	4	Abril	2023-04-15T00:00:00	2024-11-08T18:00:00	2	Temperatura media	17.1
18042	7	Sololá	701	Sololá	1	Sololá	4	Abril	2023-04-15T00:00:00	2024-11-08T18:00:00	4	Temperatura máxima	17.6
18043	7	Sololá	701	Sololá	1	Sololá	4	Abril	2023-04-15T00:00:00	2024-11-08T18:00:00	3	Temperatura mínima	17
18044	7	Sololá	701	Sololá	1	Sololá	4	Abril	2023-04-15T00:00:00	2024-11-08T18:00:00	5	Humedad	93
18045	7	Sololá	701	Sololá	1	Sololá	4	Abril	2023-04-15T00:00:00	2024-11-08T18:00:00	6	Velocidad del viento	0
18046	7	Sololá	701	Sololá	1	Sololá	4	Abril	2023-04-15T00:00:00	2024-11-08T18:00:00	7	Dirección del viento	0
18047	7	Sololá	701	Sololá	1	Sololá	4	Abril	2023-04-15T00:00:00	2024-11-08T18:00:00	1	Precipitación	0
18048	7	Sololá	701	Sololá	1	Sololá	4	Abril	2023-04-15T00:00:00	2024-11-08T18:00:00	8	Radiación solar	3
18049	7	Sololá	701	Sololá	1	Sololá	4	Abril	2023-04-15T00:00:00	2024-11-08T19:00:00	2	Temperatura media	16.8
18050	7	Sololá	701	Sololá	1	Sololá	4	Abril	2023-04-15T00:00:00	2024-11-08T19:00:00	4	Temperatura máxima	17.1
18051	7	Sololá	701	Sololá	1	Sololá	4	Abril	2023-04-15T00:00:00	2024-11-08T19:00:00	3	Temperatura mínima	16.8
18052	7	Sololá	701	Sololá	1	Sololá	4	Abril	2023-04-15T00:00:00	2024-11-08T19:00:00	5	Humedad	93
18053	7	Sololá	701	Sololá	1	Sololá	4	Abril	2023-04-15T00:00:00	2024-11-08T19:00:00	6	Velocidad del viento	0
18054	7	Sololá	701	Sololá	1	Sololá	4	Abril	2023-04-15T00:00:00	2024-11-08T19:00:00	7	Dirección del viento	0
18055	7	Sololá	701	Sololá	1	Sololá	4	Abril	2023-04-15T00:00:00	2024-11-08T19:00:00	1	Precipitación	0
18056	7	Sololá	701	Sololá	1	Sololá	4	Abril	2023-04-15T00:00:00	2024-11-08T19:00:00	8	Radiación solar	0
18057	7	Sololá	701	Sololá	1	Sololá	4	Abril	2023-04-15T00:00:00	2024-11-08T20:00:00	2	Temperatura media	16.8
18058	7	Sololá	701	Sololá	1	Sololá	4	Abril	2023-04-15T00:00:00	2024-11-08T20:00:00	4	Temperatura máxima	16.8
18059	7	Sololá	701	Sololá	1	Sololá	4	Abril	2023-04-15T00:00:00	2024-11-08T20:00:00	3	Temperatura mínima	16.7
18060	7	Sololá	701	Sololá	1	Sololá	4	Abril	2023-04-15T00:00:00	2024-11-08T20:00:00	5	Humedad	92
18061	7	Sololá	701	Sololá	1	Sololá	4	Abril	2023-04-15T00:00:00	2024-11-08T20:00:00	6	Velocidad del viento	0
18062	7	Sololá	701	Sololá	1	Sololá	4	Abril	2023-04-15T00:00:00	2024-11-08T20:00:00	7	Dirección del viento	0
18063	7	Sololá	701	Sololá	1	Sololá	4	Abril	2023-04-15T00:00:00	2024-11-08T20:00:00	1	Precipitación	0
18064	7	Sololá	701	Sololá	1	Sololá	4	Abril	2023-04-15T00:00:00	2024-11-08T20:00:00	8	Radiación solar	0
18065	7	Sololá	701	Sololá	1	Sololá	4	Abril	2023-04-15T00:00:00	2024-11-08T21:00:00	2	Temperatura media	16.7
18066	7	Sololá	701	Sololá	1	Sololá	4	Abril	2023-04-15T00:00:00	2024-11-08T21:00:00	4	Temperatura máxima	16.9
18067	7	Sololá	701	Sololá	1	Sololá	4	Abril	2023-04-15T00:00:00	2024-11-08T21:00:00	3	Temperatura mínima	16.7
18068	7	Sololá	701	Sololá	1	Sololá	4	Abril	2023-04-15T00:00:00	2024-11-08T21:00:00	5	Humedad	94
18069	7	Sololá	701	Sololá	1	Sololá	4	Abril	2023-04-15T00:00:00	2024-11-08T21:00:00	6	Velocidad del viento	0
18070	7	Sololá	701	Sololá	1	Sololá	4	Abril	2023-04-15T00:00:00	2024-11-08T21:00:00	7	Dirección del viento	0
18071	7	Sololá	701	Sololá	1	Sololá	4	Abril	2023-04-15T00:00:00	2024-11-08T21:00:00	1	Precipitación	0
18072	7	Sololá	701	Sololá	1	Sololá	4	Abril	2023-04-15T00:00:00	2024-11-08T21:00:00	8	Radiación solar	0
18073	7	Sololá	701	Sololá	1	Sololá	4	Abril	2023-04-15T00:00:00	2024-11-08T22:00:00	2	Temperatura media	16.6
18074	7	Sololá	701	Sololá	1	Sololá	4	Abril	2023-04-15T00:00:00	2024-11-08T22:00:00	4	Temperatura máxima	16.8
18075	7	Sololá	701	Sololá	1	Sololá	4	Abril	2023-04-15T00:00:00	2024-11-08T22:00:00	3	Temperatura mínima	16.6
18076	7	Sololá	701	Sololá	1	Sololá	4	Abril	2023-04-15T00:00:00	2024-11-08T22:00:00	5	Humedad	94
18077	7	Sololá	701	Sololá	1	Sololá	4	Abril	2023-04-15T00:00:00	2024-11-08T22:00:00	6	Velocidad del viento	0
18078	7	Sololá	701	Sololá	1	Sololá	4	Abril	2023-04-15T00:00:00	2024-11-08T22:00:00	7	Dirección del viento	0
18079	7	Sololá	701	Sololá	1	Sololá	4	Abril	2023-04-15T00:00:00	2024-11-08T22:00:00	1	Precipitación	0
18080	7	Sololá	701	Sololá	1	Sololá	4	Abril	2023-04-15T00:00:00	2024-11-08T22:00:00	8	Radiación solar	0
18081	7	Sololá	701	Sololá	1	Sololá	4	Abril	2023-04-15T00:00:00	2024-11-08T23:00:00	2	Temperatura media	16.1
18082	7	Sololá	701	Sololá	1	Sololá	4	Abril	2023-04-15T00:00:00	2024-11-08T23:00:00	4	Temperatura máxima	16.6
18083	7	Sololá	701	Sololá	1	Sololá	4	Abril	2023-04-15T00:00:00	2024-11-08T23:00:00	3	Temperatura mínima	16.1
18084	7	Sololá	701	Sololá	1	Sololá	4	Abril	2023-04-15T00:00:00	2024-11-08T23:00:00	5	Humedad	93
18085	7	Sololá	701	Sololá	1	Sololá	4	Abril	2023-04-15T00:00:00	2024-11-08T23:00:00	6	Velocidad del viento	0
18086	7	Sololá	701	Sololá	1	Sololá	4	Abril	2023-04-15T00:00:00	2024-11-08T23:00:00	7	Dirección del viento	0
18087	7	Sololá	701	Sololá	1	Sololá	4	Abril	2023-04-15T00:00:00	2024-11-08T23:00:00	1	Precipitación	0
18088	7	Sololá	701	Sololá	1	Sololá	4	Abril	2023-04-15T00:00:00	2024-11-08T23:00:00	8	Radiación solar	0
18089	7	Sololá	701	Sololá	1	Sololá	4	Abril	2023-04-16T00:00:00	2024-11-08T00:00:00	2	Temperatura media	15.3
18090	7	Sololá	701	Sololá	1	Sololá	4	Abril	2023-04-16T00:00:00	2024-11-08T00:00:00	4	Temperatura máxima	16.1
18091	7	Sololá	701	Sololá	1	Sololá	4	Abril	2023-04-16T00:00:00	2024-11-08T00:00:00	3	Temperatura mínima	15.3
18092	7	Sololá	701	Sololá	1	Sololá	4	Abril	2023-04-16T00:00:00	2024-11-08T00:00:00	5	Humedad	87
18093	7	Sololá	701	Sololá	1	Sololá	4	Abril	2023-04-16T00:00:00	2024-11-08T00:00:00	6	Velocidad del viento	0
18094	7	Sololá	701	Sololá	1	Sololá	4	Abril	2023-04-16T00:00:00	2024-11-08T00:00:00	7	Dirección del viento	0
18095	7	Sololá	701	Sololá	1	Sololá	4	Abril	2023-04-16T00:00:00	2024-11-08T00:00:00	1	Precipitación	0
18096	7	Sololá	701	Sololá	1	Sololá	4	Abril	2023-04-16T00:00:00	2024-11-08T00:00:00	8	Radiación solar	0
18097	7	Sololá	701	Sololá	1	Sololá	4	Abril	2023-04-16T00:00:00	2024-11-08T01:00:00	2	Temperatura media	14.8
18098	7	Sololá	701	Sololá	1	Sololá	4	Abril	2023-04-16T00:00:00	2024-11-08T01:00:00	4	Temperatura máxima	15.3
18099	7	Sololá	701	Sololá	1	Sololá	4	Abril	2023-04-16T00:00:00	2024-11-08T01:00:00	3	Temperatura mínima	14.8
18100	7	Sololá	701	Sololá	1	Sololá	4	Abril	2023-04-16T00:00:00	2024-11-08T01:00:00	5	Humedad	86
18101	7	Sololá	701	Sololá	1	Sololá	4	Abril	2023-04-16T00:00:00	2024-11-08T01:00:00	6	Velocidad del viento	0
18102	7	Sololá	701	Sololá	1	Sololá	4	Abril	2023-04-16T00:00:00	2024-11-08T01:00:00	7	Dirección del viento	0
18103	7	Sololá	701	Sololá	1	Sololá	4	Abril	2023-04-16T00:00:00	2024-11-08T01:00:00	1	Precipitación	0
18104	7	Sololá	701	Sololá	1	Sololá	4	Abril	2023-04-16T00:00:00	2024-11-08T01:00:00	8	Radiación solar	0
18105	7	Sololá	701	Sololá	1	Sololá	4	Abril	2023-04-16T00:00:00	2024-11-08T02:00:00	2	Temperatura media	14.6
18106	7	Sololá	701	Sololá	1	Sololá	4	Abril	2023-04-16T00:00:00	2024-11-08T02:00:00	4	Temperatura máxima	15
18107	7	Sololá	701	Sololá	1	Sololá	4	Abril	2023-04-16T00:00:00	2024-11-08T02:00:00	3	Temperatura mínima	14.6
18108	7	Sololá	701	Sololá	1	Sololá	4	Abril	2023-04-16T00:00:00	2024-11-08T02:00:00	5	Humedad	87
18109	7	Sololá	701	Sololá	1	Sololá	4	Abril	2023-04-16T00:00:00	2024-11-08T02:00:00	6	Velocidad del viento	0
18110	7	Sololá	701	Sololá	1	Sololá	4	Abril	2023-04-16T00:00:00	2024-11-08T02:00:00	7	Dirección del viento	0
18111	7	Sololá	701	Sololá	1	Sololá	4	Abril	2023-04-16T00:00:00	2024-11-08T02:00:00	1	Precipitación	0
18112	7	Sololá	701	Sololá	1	Sololá	4	Abril	2023-04-16T00:00:00	2024-11-08T02:00:00	8	Radiación solar	0
18113	7	Sololá	701	Sololá	1	Sololá	4	Abril	2023-04-16T00:00:00	2024-11-08T03:00:00	2	Temperatura media	14.2
18114	7	Sololá	701	Sololá	1	Sololá	4	Abril	2023-04-16T00:00:00	2024-11-08T03:00:00	4	Temperatura máxima	14.6
18115	7	Sololá	701	Sololá	1	Sololá	4	Abril	2023-04-16T00:00:00	2024-11-08T03:00:00	3	Temperatura mínima	14.1
18116	7	Sololá	701	Sololá	1	Sololá	4	Abril	2023-04-16T00:00:00	2024-11-08T03:00:00	5	Humedad	86
18117	7	Sololá	701	Sololá	1	Sololá	4	Abril	2023-04-16T00:00:00	2024-11-08T03:00:00	6	Velocidad del viento	0
18118	7	Sololá	701	Sololá	1	Sololá	4	Abril	2023-04-16T00:00:00	2024-11-08T03:00:00	7	Dirección del viento	0
18119	7	Sololá	701	Sololá	1	Sololá	4	Abril	2023-04-16T00:00:00	2024-11-08T03:00:00	1	Precipitación	0
18120	7	Sololá	701	Sololá	1	Sololá	4	Abril	2023-04-16T00:00:00	2024-11-08T03:00:00	8	Radiación solar	0
18121	7	Sololá	701	Sololá	1	Sololá	4	Abril	2023-04-16T00:00:00	2024-11-08T04:00:00	2	Temperatura media	13.7
18122	7	Sololá	701	Sololá	1	Sololá	4	Abril	2023-04-16T00:00:00	2024-11-08T04:00:00	4	Temperatura máxima	14.2
18123	7	Sololá	701	Sololá	1	Sololá	4	Abril	2023-04-16T00:00:00	2024-11-08T04:00:00	3	Temperatura mínima	13.6
18124	7	Sololá	701	Sololá	1	Sololá	4	Abril	2023-04-16T00:00:00	2024-11-08T04:00:00	5	Humedad	86
18125	7	Sololá	701	Sololá	1	Sololá	4	Abril	2023-04-16T00:00:00	2024-11-08T04:00:00	6	Velocidad del viento	0
18126	7	Sololá	701	Sololá	1	Sololá	4	Abril	2023-04-16T00:00:00	2024-11-08T04:00:00	7	Dirección del viento	0
18127	7	Sololá	701	Sololá	1	Sololá	4	Abril	2023-04-16T00:00:00	2024-11-08T04:00:00	1	Precipitación	0
18128	7	Sololá	701	Sololá	1	Sololá	4	Abril	2023-04-16T00:00:00	2024-11-08T04:00:00	8	Radiación solar	0
18129	7	Sololá	701	Sololá	1	Sololá	4	Abril	2023-04-16T00:00:00	2024-11-08T05:00:00	2	Temperatura media	13.4
18130	7	Sololá	701	Sololá	1	Sololá	4	Abril	2023-04-16T00:00:00	2024-11-08T05:00:00	4	Temperatura máxima	13.8
18131	7	Sololá	701	Sololá	1	Sololá	4	Abril	2023-04-16T00:00:00	2024-11-08T05:00:00	3	Temperatura mínima	13.4
18132	7	Sololá	701	Sololá	1	Sololá	4	Abril	2023-04-16T00:00:00	2024-11-08T05:00:00	5	Humedad	87
18133	7	Sololá	701	Sololá	1	Sololá	4	Abril	2023-04-16T00:00:00	2024-11-08T05:00:00	6	Velocidad del viento	0
18134	7	Sololá	701	Sololá	1	Sololá	4	Abril	2023-04-16T00:00:00	2024-11-08T05:00:00	7	Dirección del viento	0
18135	7	Sololá	701	Sololá	1	Sololá	4	Abril	2023-04-16T00:00:00	2024-11-08T05:00:00	1	Precipitación	0
18136	7	Sololá	701	Sololá	1	Sololá	4	Abril	2023-04-16T00:00:00	2024-11-08T05:00:00	8	Radiación solar	0
18137	7	Sololá	701	Sololá	1	Sololá	4	Abril	2023-04-16T00:00:00	2024-11-08T06:00:00	2	Temperatura media	13.3
18138	7	Sololá	701	Sololá	1	Sololá	4	Abril	2023-04-16T00:00:00	2024-11-08T06:00:00	4	Temperatura máxima	13.6
18139	7	Sololá	701	Sololá	1	Sololá	4	Abril	2023-04-16T00:00:00	2024-11-08T06:00:00	3	Temperatura mínima	13.3
18140	7	Sololá	701	Sololá	1	Sololá	4	Abril	2023-04-16T00:00:00	2024-11-08T06:00:00	5	Humedad	86
18141	7	Sololá	701	Sololá	1	Sololá	4	Abril	2023-04-16T00:00:00	2024-11-08T06:00:00	6	Velocidad del viento	0
18142	7	Sololá	701	Sololá	1	Sololá	4	Abril	2023-04-16T00:00:00	2024-11-08T06:00:00	7	Dirección del viento	0
18143	7	Sololá	701	Sololá	1	Sololá	4	Abril	2023-04-16T00:00:00	2024-11-08T06:00:00	1	Precipitación	0
18144	7	Sololá	701	Sololá	1	Sololá	4	Abril	2023-04-16T00:00:00	2024-11-08T06:00:00	8	Radiación solar	0
18145	7	Sololá	701	Sololá	1	Sololá	4	Abril	2023-04-16T00:00:00	2024-11-08T07:00:00	2	Temperatura media	12.3
18146	7	Sololá	701	Sololá	1	Sololá	4	Abril	2023-04-16T00:00:00	2024-11-08T07:00:00	4	Temperatura máxima	13.3
18147	7	Sololá	701	Sololá	1	Sololá	4	Abril	2023-04-16T00:00:00	2024-11-08T07:00:00	3	Temperatura mínima	12.3
18148	7	Sololá	701	Sololá	1	Sololá	4	Abril	2023-04-16T00:00:00	2024-11-08T07:00:00	5	Humedad	82
18149	7	Sololá	701	Sololá	1	Sololá	4	Abril	2023-04-16T00:00:00	2024-11-08T07:00:00	6	Velocidad del viento	0
18150	7	Sololá	701	Sololá	1	Sololá	4	Abril	2023-04-16T00:00:00	2024-11-08T07:00:00	7	Dirección del viento	0
18151	7	Sololá	701	Sololá	1	Sololá	4	Abril	2023-04-16T00:00:00	2024-11-08T07:00:00	1	Precipitación	0
18152	7	Sololá	701	Sololá	1	Sololá	4	Abril	2023-04-16T00:00:00	2024-11-08T07:00:00	8	Radiación solar	25
18153	7	Sololá	701	Sololá	1	Sololá	4	Abril	2023-04-16T00:00:00	2024-11-08T08:00:00	2	Temperatura media	13.3
18154	7	Sololá	701	Sololá	1	Sololá	4	Abril	2023-04-16T00:00:00	2024-11-08T08:00:00	4	Temperatura máxima	13.3
18155	7	Sololá	701	Sololá	1	Sololá	4	Abril	2023-04-16T00:00:00	2024-11-08T08:00:00	3	Temperatura mínima	12.3
18156	7	Sololá	701	Sololá	1	Sololá	4	Abril	2023-04-16T00:00:00	2024-11-08T08:00:00	5	Humedad	81
18157	7	Sololá	701	Sololá	1	Sololá	4	Abril	2023-04-16T00:00:00	2024-11-08T08:00:00	6	Velocidad del viento	0
18158	7	Sololá	701	Sololá	1	Sololá	4	Abril	2023-04-16T00:00:00	2024-11-08T08:00:00	7	Dirección del viento	0
18159	7	Sololá	701	Sololá	1	Sololá	4	Abril	2023-04-16T00:00:00	2024-11-08T08:00:00	1	Precipitación	0
18160	7	Sololá	701	Sololá	1	Sololá	4	Abril	2023-04-16T00:00:00	2024-11-08T08:00:00	8	Radiación solar	224
18161	7	Sololá	701	Sololá	1	Sololá	4	Abril	2023-04-16T00:00:00	2024-11-08T09:00:00	2	Temperatura media	18.2
18162	7	Sololá	701	Sololá	1	Sololá	4	Abril	2023-04-16T00:00:00	2024-11-08T09:00:00	4	Temperatura máxima	18.2
18163	7	Sololá	701	Sololá	1	Sololá	4	Abril	2023-04-16T00:00:00	2024-11-08T09:00:00	3	Temperatura mínima	13.3
18164	7	Sololá	701	Sololá	1	Sololá	4	Abril	2023-04-16T00:00:00	2024-11-08T09:00:00	5	Humedad	71
18165	7	Sololá	701	Sololá	1	Sololá	4	Abril	2023-04-16T00:00:00	2024-11-08T09:00:00	6	Velocidad del viento	0
18166	7	Sololá	701	Sololá	1	Sololá	4	Abril	2023-04-16T00:00:00	2024-11-08T09:00:00	7	Dirección del viento	0
18167	7	Sololá	701	Sololá	1	Sololá	4	Abril	2023-04-16T00:00:00	2024-11-08T09:00:00	1	Precipitación	0
18168	7	Sololá	701	Sololá	1	Sololá	4	Abril	2023-04-16T00:00:00	2024-11-08T09:00:00	8	Radiación solar	532
18169	7	Sololá	701	Sololá	1	Sololá	4	Abril	2023-04-16T00:00:00	2024-11-08T10:00:00	2	Temperatura media	20
18170	7	Sololá	701	Sololá	1	Sololá	4	Abril	2023-04-16T00:00:00	2024-11-08T10:00:00	4	Temperatura máxima	20
18171	7	Sololá	701	Sololá	1	Sololá	4	Abril	2023-04-16T00:00:00	2024-11-08T10:00:00	3	Temperatura mínima	18.3
18172	7	Sololá	701	Sololá	1	Sololá	4	Abril	2023-04-16T00:00:00	2024-11-08T10:00:00	5	Humedad	72
18173	7	Sololá	701	Sololá	1	Sololá	4	Abril	2023-04-16T00:00:00	2024-11-08T10:00:00	6	Velocidad del viento	0
18174	7	Sololá	701	Sololá	1	Sololá	4	Abril	2023-04-16T00:00:00	2024-11-08T10:00:00	7	Dirección del viento	0
18175	7	Sololá	701	Sololá	1	Sololá	4	Abril	2023-04-16T00:00:00	2024-11-08T10:00:00	1	Precipitación	0
18176	7	Sololá	701	Sololá	1	Sololá	4	Abril	2023-04-16T00:00:00	2024-11-08T10:00:00	8	Radiación solar	711
18177	7	Sololá	701	Sololá	1	Sololá	4	Abril	2023-04-16T00:00:00	2024-11-08T11:00:00	2	Temperatura media	21.2
18178	7	Sololá	701	Sololá	1	Sololá	4	Abril	2023-04-16T00:00:00	2024-11-08T11:00:00	4	Temperatura máxima	21.3
18179	7	Sololá	701	Sololá	1	Sololá	4	Abril	2023-04-16T00:00:00	2024-11-08T11:00:00	3	Temperatura mínima	20
18180	7	Sololá	701	Sololá	1	Sololá	4	Abril	2023-04-16T00:00:00	2024-11-08T11:00:00	5	Humedad	71
18181	7	Sololá	701	Sololá	1	Sololá	4	Abril	2023-04-16T00:00:00	2024-11-08T11:00:00	6	Velocidad del viento	0
18182	7	Sololá	701	Sololá	1	Sololá	4	Abril	2023-04-16T00:00:00	2024-11-08T11:00:00	7	Dirección del viento	0
18183	7	Sololá	701	Sololá	1	Sololá	4	Abril	2023-04-16T00:00:00	2024-11-08T11:00:00	1	Precipitación	0
18184	7	Sololá	701	Sololá	1	Sololá	4	Abril	2023-04-16T00:00:00	2024-11-08T11:00:00	8	Radiación solar	852
18185	7	Sololá	701	Sololá	1	Sololá	4	Abril	2023-04-16T00:00:00	2024-11-08T12:00:00	2	Temperatura media	21.8
18186	7	Sololá	701	Sololá	1	Sololá	4	Abril	2023-04-16T00:00:00	2024-11-08T12:00:00	4	Temperatura máxima	21.9
18187	7	Sololá	701	Sololá	1	Sololá	4	Abril	2023-04-16T00:00:00	2024-11-08T12:00:00	3	Temperatura mínima	21.2
18188	7	Sololá	701	Sololá	1	Sololá	4	Abril	2023-04-16T00:00:00	2024-11-08T12:00:00	5	Humedad	68
18189	7	Sololá	701	Sololá	1	Sololá	4	Abril	2023-04-16T00:00:00	2024-11-08T12:00:00	6	Velocidad del viento	0
18190	7	Sololá	701	Sololá	1	Sololá	4	Abril	2023-04-16T00:00:00	2024-11-08T12:00:00	7	Dirección del viento	0
18191	7	Sololá	701	Sololá	1	Sololá	4	Abril	2023-04-16T00:00:00	2024-11-08T12:00:00	1	Precipitación	0
18192	7	Sololá	701	Sololá	1	Sololá	4	Abril	2023-04-16T00:00:00	2024-11-08T12:00:00	8	Radiación solar	858
18193	7	Sololá	701	Sololá	1	Sololá	4	Abril	2023-04-16T00:00:00	2024-11-08T13:00:00	2	Temperatura media	21.9
18194	7	Sololá	701	Sololá	1	Sololá	4	Abril	2023-04-16T00:00:00	2024-11-08T13:00:00	4	Temperatura máxima	22.4
18195	7	Sololá	701	Sololá	1	Sololá	4	Abril	2023-04-16T00:00:00	2024-11-08T13:00:00	3	Temperatura mínima	21.7
18196	7	Sololá	701	Sololá	1	Sololá	4	Abril	2023-04-16T00:00:00	2024-11-08T13:00:00	5	Humedad	73
18197	7	Sololá	701	Sololá	1	Sololá	4	Abril	2023-04-16T00:00:00	2024-11-08T13:00:00	6	Velocidad del viento	0
18198	7	Sololá	701	Sololá	1	Sololá	4	Abril	2023-04-16T00:00:00	2024-11-08T13:00:00	7	Dirección del viento	0
18199	7	Sololá	701	Sololá	1	Sololá	4	Abril	2023-04-16T00:00:00	2024-11-08T13:00:00	1	Precipitación	0
18200	7	Sololá	701	Sololá	1	Sololá	4	Abril	2023-04-16T00:00:00	2024-11-08T13:00:00	8	Radiación solar	743
18201	7	Sololá	701	Sololá	1	Sololá	4	Abril	2023-04-16T00:00:00	2024-11-08T14:00:00	2	Temperatura media	22.6
18202	7	Sololá	701	Sololá	1	Sololá	4	Abril	2023-04-16T00:00:00	2024-11-08T14:00:00	4	Temperatura máxima	22.6
18203	7	Sololá	701	Sololá	1	Sololá	4	Abril	2023-04-16T00:00:00	2024-11-08T14:00:00	3	Temperatura mínima	21.8
18204	7	Sololá	701	Sololá	1	Sololá	4	Abril	2023-04-16T00:00:00	2024-11-08T14:00:00	5	Humedad	72
18205	7	Sololá	701	Sololá	1	Sololá	4	Abril	2023-04-16T00:00:00	2024-11-08T14:00:00	6	Velocidad del viento	0
18206	7	Sololá	701	Sololá	1	Sololá	4	Abril	2023-04-16T00:00:00	2024-11-08T14:00:00	7	Dirección del viento	0
18207	7	Sololá	701	Sololá	1	Sololá	4	Abril	2023-04-16T00:00:00	2024-11-08T14:00:00	1	Precipitación	0
18208	7	Sololá	701	Sololá	1	Sololá	4	Abril	2023-04-16T00:00:00	2024-11-08T14:00:00	8	Radiación solar	271
18209	7	Sololá	701	Sololá	1	Sololá	4	Abril	2023-04-16T00:00:00	2024-11-08T15:00:00	2	Temperatura media	22.2
18210	7	Sololá	701	Sololá	1	Sololá	4	Abril	2023-04-16T00:00:00	2024-11-08T15:00:00	4	Temperatura máxima	22.7
18211	7	Sololá	701	Sololá	1	Sololá	4	Abril	2023-04-16T00:00:00	2024-11-08T15:00:00	3	Temperatura mínima	22.1
18212	7	Sololá	701	Sololá	1	Sololá	4	Abril	2023-04-16T00:00:00	2024-11-08T15:00:00	5	Humedad	73
18213	7	Sololá	701	Sololá	1	Sololá	4	Abril	2023-04-16T00:00:00	2024-11-08T15:00:00	6	Velocidad del viento	0
18214	7	Sololá	701	Sololá	1	Sololá	4	Abril	2023-04-16T00:00:00	2024-11-08T15:00:00	7	Dirección del viento	0
18215	7	Sololá	701	Sololá	1	Sololá	4	Abril	2023-04-16T00:00:00	2024-11-08T15:00:00	1	Precipitación	0
18216	7	Sololá	701	Sololá	1	Sololá	4	Abril	2023-04-16T00:00:00	2024-11-08T15:00:00	8	Radiación solar	192
18217	7	Sololá	701	Sololá	1	Sololá	4	Abril	2023-04-16T00:00:00	2024-11-08T16:00:00	2	Temperatura media	20.1
18218	7	Sololá	701	Sololá	1	Sololá	4	Abril	2023-04-16T00:00:00	2024-11-08T16:00:00	4	Temperatura máxima	22.2
18219	7	Sololá	701	Sololá	1	Sololá	4	Abril	2023-04-16T00:00:00	2024-11-08T16:00:00	3	Temperatura mínima	20.1
18220	7	Sololá	701	Sololá	1	Sololá	4	Abril	2023-04-16T00:00:00	2024-11-08T16:00:00	5	Humedad	79
18221	7	Sololá	701	Sololá	1	Sololá	4	Abril	2023-04-16T00:00:00	2024-11-08T16:00:00	6	Velocidad del viento	0
18222	7	Sololá	701	Sololá	1	Sololá	4	Abril	2023-04-16T00:00:00	2024-11-08T16:00:00	7	Dirección del viento	0
18223	7	Sololá	701	Sololá	1	Sololá	4	Abril	2023-04-16T00:00:00	2024-11-08T16:00:00	1	Precipitación	0
18224	7	Sololá	701	Sololá	1	Sololá	4	Abril	2023-04-16T00:00:00	2024-11-08T16:00:00	8	Radiación solar	85
18225	7	Sololá	701	Sololá	1	Sololá	4	Abril	2023-04-16T00:00:00	2024-11-08T17:00:00	2	Temperatura media	19.2
18226	7	Sololá	701	Sololá	1	Sololá	4	Abril	2023-04-16T00:00:00	2024-11-08T17:00:00	4	Temperatura máxima	20.2
18227	7	Sololá	701	Sololá	1	Sololá	4	Abril	2023-04-16T00:00:00	2024-11-08T17:00:00	3	Temperatura mínima	19.2
18228	7	Sololá	701	Sololá	1	Sololá	4	Abril	2023-04-16T00:00:00	2024-11-08T17:00:00	5	Humedad	82
18229	7	Sololá	701	Sololá	1	Sololá	4	Abril	2023-04-16T00:00:00	2024-11-08T17:00:00	6	Velocidad del viento	0
18230	7	Sololá	701	Sololá	1	Sololá	4	Abril	2023-04-16T00:00:00	2024-11-08T17:00:00	7	Dirección del viento	0
18231	7	Sololá	701	Sololá	1	Sololá	4	Abril	2023-04-16T00:00:00	2024-11-08T17:00:00	1	Precipitación	0
18232	7	Sololá	701	Sololá	1	Sololá	4	Abril	2023-04-16T00:00:00	2024-11-08T17:00:00	8	Radiación solar	19
18233	7	Sololá	701	Sololá	1	Sololá	4	Abril	2023-04-16T00:00:00	2024-11-08T18:00:00	2	Temperatura media	18.1
18234	7	Sololá	701	Sololá	1	Sololá	4	Abril	2023-04-16T00:00:00	2024-11-08T18:00:00	4	Temperatura máxima	19.2
18235	7	Sololá	701	Sololá	1	Sololá	4	Abril	2023-04-16T00:00:00	2024-11-08T18:00:00	3	Temperatura mínima	18.1
18236	7	Sololá	701	Sololá	1	Sololá	4	Abril	2023-04-16T00:00:00	2024-11-08T18:00:00	5	Humedad	85
18237	7	Sololá	701	Sololá	1	Sololá	4	Abril	2023-04-16T00:00:00	2024-11-08T18:00:00	6	Velocidad del viento	0
18238	7	Sololá	701	Sololá	1	Sololá	4	Abril	2023-04-16T00:00:00	2024-11-08T18:00:00	7	Dirección del viento	0
18239	7	Sololá	701	Sololá	1	Sololá	4	Abril	2023-04-16T00:00:00	2024-11-08T18:00:00	1	Precipitación	0
18240	7	Sololá	701	Sololá	1	Sololá	4	Abril	2023-04-16T00:00:00	2024-11-08T18:00:00	8	Radiación solar	20
18241	7	Sololá	701	Sololá	1	Sololá	4	Abril	2023-04-16T00:00:00	2024-11-08T19:00:00	2	Temperatura media	17.5
18242	7	Sololá	701	Sololá	1	Sololá	4	Abril	2023-04-16T00:00:00	2024-11-08T19:00:00	4	Temperatura máxima	18.1
18243	7	Sololá	701	Sololá	1	Sololá	4	Abril	2023-04-16T00:00:00	2024-11-08T19:00:00	3	Temperatura mínima	17.5
18244	7	Sololá	701	Sololá	1	Sololá	4	Abril	2023-04-16T00:00:00	2024-11-08T19:00:00	5	Humedad	89
18245	7	Sololá	701	Sololá	1	Sololá	4	Abril	2023-04-16T00:00:00	2024-11-08T19:00:00	6	Velocidad del viento	0
18246	7	Sololá	701	Sololá	1	Sololá	4	Abril	2023-04-16T00:00:00	2024-11-08T19:00:00	7	Dirección del viento	0
18247	7	Sololá	701	Sololá	1	Sololá	4	Abril	2023-04-16T00:00:00	2024-11-08T19:00:00	1	Precipitación	0
18248	7	Sololá	701	Sololá	1	Sololá	4	Abril	2023-04-16T00:00:00	2024-11-08T19:00:00	8	Radiación solar	0
18249	7	Sololá	701	Sololá	1	Sololá	4	Abril	2023-04-16T00:00:00	2024-11-08T20:00:00	2	Temperatura media	17.2
18250	7	Sololá	701	Sololá	1	Sololá	4	Abril	2023-04-16T00:00:00	2024-11-08T20:00:00	4	Temperatura máxima	17.6
18251	7	Sololá	701	Sololá	1	Sololá	4	Abril	2023-04-16T00:00:00	2024-11-08T20:00:00	3	Temperatura mínima	17.2
18252	7	Sololá	701	Sololá	1	Sololá	4	Abril	2023-04-16T00:00:00	2024-11-08T20:00:00	5	Humedad	81
18253	7	Sololá	701	Sololá	1	Sololá	4	Abril	2023-04-16T00:00:00	2024-11-08T20:00:00	6	Velocidad del viento	0
18254	7	Sololá	701	Sololá	1	Sololá	4	Abril	2023-04-16T00:00:00	2024-11-08T20:00:00	7	Dirección del viento	0
18255	7	Sololá	701	Sololá	1	Sololá	4	Abril	2023-04-16T00:00:00	2024-11-08T20:00:00	1	Precipitación	0
18256	7	Sololá	701	Sololá	1	Sololá	4	Abril	2023-04-16T00:00:00	2024-11-08T20:00:00	8	Radiación solar	0
18257	7	Sololá	701	Sololá	1	Sololá	4	Abril	2023-04-16T00:00:00	2024-11-08T21:00:00	2	Temperatura media	16.2
18258	7	Sololá	701	Sololá	1	Sololá	4	Abril	2023-04-16T00:00:00	2024-11-08T21:00:00	4	Temperatura máxima	17.2
18259	7	Sololá	701	Sololá	1	Sololá	4	Abril	2023-04-16T00:00:00	2024-11-08T21:00:00	3	Temperatura mínima	16.1
18260	7	Sololá	701	Sololá	1	Sololá	4	Abril	2023-04-16T00:00:00	2024-11-08T21:00:00	5	Humedad	71
18261	7	Sololá	701	Sololá	1	Sololá	4	Abril	2023-04-16T00:00:00	2024-11-08T21:00:00	6	Velocidad del viento	0
18262	7	Sololá	701	Sololá	1	Sololá	4	Abril	2023-04-16T00:00:00	2024-11-08T21:00:00	7	Dirección del viento	0
18263	7	Sololá	701	Sololá	1	Sololá	4	Abril	2023-04-16T00:00:00	2024-11-08T21:00:00	1	Precipitación	0
18264	7	Sololá	701	Sololá	1	Sololá	4	Abril	2023-04-16T00:00:00	2024-11-08T21:00:00	8	Radiación solar	0
18265	7	Sololá	701	Sololá	1	Sololá	4	Abril	2023-04-16T00:00:00	2024-11-08T22:00:00	2	Temperatura media	15.1
18266	7	Sololá	701	Sololá	1	Sololá	4	Abril	2023-04-16T00:00:00	2024-11-08T22:00:00	4	Temperatura máxima	16.2
18267	7	Sololá	701	Sololá	1	Sololá	4	Abril	2023-04-16T00:00:00	2024-11-08T22:00:00	3	Temperatura mínima	15.1
18268	7	Sololá	701	Sololá	1	Sololá	4	Abril	2023-04-16T00:00:00	2024-11-08T22:00:00	5	Humedad	71
18269	7	Sololá	701	Sololá	1	Sololá	4	Abril	2023-04-16T00:00:00	2024-11-08T22:00:00	6	Velocidad del viento	0
18270	7	Sololá	701	Sololá	1	Sololá	4	Abril	2023-04-16T00:00:00	2024-11-08T22:00:00	7	Dirección del viento	0
18271	7	Sololá	701	Sololá	1	Sololá	4	Abril	2023-04-16T00:00:00	2024-11-08T22:00:00	1	Precipitación	0
18272	7	Sololá	701	Sololá	1	Sololá	4	Abril	2023-04-16T00:00:00	2024-11-08T22:00:00	8	Radiación solar	0
18273	7	Sololá	701	Sololá	1	Sololá	4	Abril	2023-04-16T00:00:00	2024-11-08T23:00:00	2	Temperatura media	14.6
18274	7	Sololá	701	Sololá	1	Sololá	4	Abril	2023-04-16T00:00:00	2024-11-08T23:00:00	4	Temperatura máxima	15.1
18275	7	Sololá	701	Sololá	1	Sololá	4	Abril	2023-04-16T00:00:00	2024-11-08T23:00:00	3	Temperatura mínima	14.6
18276	7	Sololá	701	Sololá	1	Sololá	4	Abril	2023-04-16T00:00:00	2024-11-08T23:00:00	5	Humedad	73
18277	7	Sololá	701	Sololá	1	Sololá	4	Abril	2023-04-16T00:00:00	2024-11-08T23:00:00	6	Velocidad del viento	0
18278	7	Sololá	701	Sololá	1	Sololá	4	Abril	2023-04-16T00:00:00	2024-11-08T23:00:00	7	Dirección del viento	0
18279	7	Sololá	701	Sololá	1	Sololá	4	Abril	2023-04-16T00:00:00	2024-11-08T23:00:00	1	Precipitación	0
18280	7	Sololá	701	Sololá	1	Sololá	4	Abril	2023-04-16T00:00:00	2024-11-08T23:00:00	8	Radiación solar	0
18281	7	Sololá	701	Sololá	1	Sololá	4	Abril	2023-04-17T00:00:00	2024-11-08T00:00:00	2	Temperatura media	14.1
18282	7	Sololá	701	Sololá	1	Sololá	4	Abril	2023-04-17T00:00:00	2024-11-08T00:00:00	4	Temperatura máxima	14.6
18283	7	Sololá	701	Sololá	1	Sololá	4	Abril	2023-04-17T00:00:00	2024-11-08T00:00:00	3	Temperatura mínima	14.1
18284	7	Sololá	701	Sololá	1	Sololá	4	Abril	2023-04-17T00:00:00	2024-11-08T00:00:00	5	Humedad	77
18285	7	Sololá	701	Sololá	1	Sololá	4	Abril	2023-04-17T00:00:00	2024-11-08T00:00:00	6	Velocidad del viento	0
18286	7	Sololá	701	Sololá	1	Sololá	4	Abril	2023-04-17T00:00:00	2024-11-08T00:00:00	7	Dirección del viento	0
18287	7	Sololá	701	Sololá	1	Sololá	4	Abril	2023-04-17T00:00:00	2024-11-08T00:00:00	1	Precipitación	0
18288	7	Sololá	701	Sololá	1	Sololá	4	Abril	2023-04-17T00:00:00	2024-11-08T00:00:00	8	Radiación solar	0
18289	7	Sololá	701	Sololá	1	Sololá	4	Abril	2023-04-17T00:00:00	2024-11-08T01:00:00	2	Temperatura media	13.6
18290	7	Sololá	701	Sololá	1	Sololá	4	Abril	2023-04-17T00:00:00	2024-11-08T01:00:00	4	Temperatura máxima	14.1
18291	7	Sololá	701	Sololá	1	Sololá	4	Abril	2023-04-17T00:00:00	2024-11-08T01:00:00	3	Temperatura mínima	13.6
18292	7	Sololá	701	Sololá	1	Sololá	4	Abril	2023-04-17T00:00:00	2024-11-08T01:00:00	5	Humedad	81
18293	7	Sololá	701	Sololá	1	Sololá	4	Abril	2023-04-17T00:00:00	2024-11-08T01:00:00	6	Velocidad del viento	0
18294	7	Sololá	701	Sololá	1	Sololá	4	Abril	2023-04-17T00:00:00	2024-11-08T01:00:00	7	Dirección del viento	0
18295	7	Sololá	701	Sololá	1	Sololá	4	Abril	2023-04-17T00:00:00	2024-11-08T01:00:00	1	Precipitación	0
18296	7	Sololá	701	Sololá	1	Sololá	4	Abril	2023-04-17T00:00:00	2024-11-08T01:00:00	8	Radiación solar	0
18297	7	Sololá	701	Sololá	1	Sololá	4	Abril	2023-04-17T00:00:00	2024-11-08T02:00:00	2	Temperatura media	13.4
18298	7	Sololá	701	Sololá	1	Sololá	4	Abril	2023-04-17T00:00:00	2024-11-08T02:00:00	4	Temperatura máxima	13.6
18299	7	Sololá	701	Sololá	1	Sololá	4	Abril	2023-04-17T00:00:00	2024-11-08T02:00:00	3	Temperatura mínima	13.3
18300	7	Sololá	701	Sololá	1	Sololá	4	Abril	2023-04-17T00:00:00	2024-11-08T02:00:00	5	Humedad	84
18301	7	Sololá	701	Sololá	1	Sololá	4	Abril	2023-04-17T00:00:00	2024-11-08T02:00:00	6	Velocidad del viento	0
18302	7	Sololá	701	Sololá	1	Sololá	4	Abril	2023-04-17T00:00:00	2024-11-08T02:00:00	7	Dirección del viento	0
18303	7	Sololá	701	Sololá	1	Sololá	4	Abril	2023-04-17T00:00:00	2024-11-08T02:00:00	1	Precipitación	0
18304	7	Sololá	701	Sololá	1	Sololá	4	Abril	2023-04-17T00:00:00	2024-11-08T02:00:00	8	Radiación solar	0
18305	7	Sololá	701	Sololá	1	Sololá	4	Abril	2023-04-17T00:00:00	2024-11-08T03:00:00	2	Temperatura media	13.4
18306	7	Sololá	701	Sololá	1	Sololá	4	Abril	2023-04-17T00:00:00	2024-11-08T03:00:00	4	Temperatura máxima	13.6
18307	7	Sololá	701	Sololá	1	Sololá	4	Abril	2023-04-17T00:00:00	2024-11-08T03:00:00	3	Temperatura mínima	13.4
18308	7	Sololá	701	Sololá	1	Sololá	4	Abril	2023-04-17T00:00:00	2024-11-08T03:00:00	5	Humedad	85
18309	7	Sololá	701	Sololá	1	Sololá	4	Abril	2023-04-17T00:00:00	2024-11-08T03:00:00	6	Velocidad del viento	0
18310	7	Sololá	701	Sololá	1	Sololá	4	Abril	2023-04-17T00:00:00	2024-11-08T03:00:00	7	Dirección del viento	0
18311	7	Sololá	701	Sololá	1	Sololá	4	Abril	2023-04-17T00:00:00	2024-11-08T03:00:00	1	Precipitación	0
18312	7	Sololá	701	Sololá	1	Sololá	4	Abril	2023-04-17T00:00:00	2024-11-08T03:00:00	8	Radiación solar	0
18313	7	Sololá	701	Sololá	1	Sololá	4	Abril	2023-04-17T00:00:00	2024-11-08T04:00:00	2	Temperatura media	13.5
18314	7	Sololá	701	Sololá	1	Sololá	4	Abril	2023-04-17T00:00:00	2024-11-08T04:00:00	4	Temperatura máxima	13.5
18315	7	Sololá	701	Sololá	1	Sololá	4	Abril	2023-04-17T00:00:00	2024-11-08T04:00:00	3	Temperatura mínima	13.3
18316	7	Sololá	701	Sololá	1	Sololá	4	Abril	2023-04-17T00:00:00	2024-11-08T04:00:00	5	Humedad	85
18317	7	Sololá	701	Sololá	1	Sololá	4	Abril	2023-04-17T00:00:00	2024-11-08T04:00:00	6	Velocidad del viento	0
18318	7	Sololá	701	Sololá	1	Sololá	4	Abril	2023-04-17T00:00:00	2024-11-08T04:00:00	7	Dirección del viento	0
18319	7	Sololá	701	Sololá	1	Sololá	4	Abril	2023-04-17T00:00:00	2024-11-08T04:00:00	1	Precipitación	0
18320	7	Sololá	701	Sololá	1	Sololá	4	Abril	2023-04-17T00:00:00	2024-11-08T04:00:00	8	Radiación solar	0
18321	7	Sololá	701	Sololá	1	Sololá	4	Abril	2023-04-17T00:00:00	2024-11-08T05:00:00	2	Temperatura media	13.3
18322	7	Sololá	701	Sololá	1	Sololá	4	Abril	2023-04-17T00:00:00	2024-11-08T05:00:00	4	Temperatura máxima	13.7
18323	7	Sololá	701	Sololá	1	Sololá	4	Abril	2023-04-17T00:00:00	2024-11-08T05:00:00	3	Temperatura mínima	13.3
18324	7	Sololá	701	Sololá	1	Sololá	4	Abril	2023-04-17T00:00:00	2024-11-08T05:00:00	5	Humedad	83
18325	7	Sololá	701	Sololá	1	Sololá	4	Abril	2023-04-17T00:00:00	2024-11-08T05:00:00	6	Velocidad del viento	0
18326	7	Sololá	701	Sololá	1	Sololá	4	Abril	2023-04-17T00:00:00	2024-11-08T05:00:00	7	Dirección del viento	0
18327	7	Sololá	701	Sololá	1	Sololá	4	Abril	2023-04-17T00:00:00	2024-11-08T05:00:00	1	Precipitación	0
18328	7	Sololá	701	Sololá	1	Sololá	4	Abril	2023-04-17T00:00:00	2024-11-08T05:00:00	8	Radiación solar	0
18329	7	Sololá	701	Sololá	1	Sololá	4	Abril	2023-04-17T00:00:00	2024-11-08T06:00:00	2	Temperatura media	13.6
18330	7	Sololá	701	Sololá	1	Sololá	4	Abril	2023-04-17T00:00:00	2024-11-08T06:00:00	4	Temperatura máxima	13.6
18331	7	Sololá	701	Sololá	1	Sololá	4	Abril	2023-04-17T00:00:00	2024-11-08T06:00:00	3	Temperatura mínima	13.1
18332	7	Sololá	701	Sololá	1	Sololá	4	Abril	2023-04-17T00:00:00	2024-11-08T06:00:00	5	Humedad	83
18333	7	Sololá	701	Sololá	1	Sololá	4	Abril	2023-04-17T00:00:00	2024-11-08T06:00:00	6	Velocidad del viento	0
18334	7	Sololá	701	Sololá	1	Sololá	4	Abril	2023-04-17T00:00:00	2024-11-08T06:00:00	7	Dirección del viento	0
18335	7	Sololá	701	Sololá	1	Sololá	4	Abril	2023-04-17T00:00:00	2024-11-08T06:00:00	1	Precipitación	0
18336	7	Sololá	701	Sololá	1	Sololá	4	Abril	2023-04-17T00:00:00	2024-11-08T06:00:00	8	Radiación solar	0
18337	7	Sololá	701	Sololá	1	Sololá	4	Abril	2023-04-17T00:00:00	2024-11-08T07:00:00	2	Temperatura media	14.1
18338	7	Sololá	701	Sololá	1	Sololá	4	Abril	2023-04-17T00:00:00	2024-11-08T07:00:00	4	Temperatura máxima	14.1
18339	7	Sololá	701	Sololá	1	Sololá	4	Abril	2023-04-17T00:00:00	2024-11-08T07:00:00	3	Temperatura mínima	13.6
18340	7	Sololá	701	Sololá	1	Sololá	4	Abril	2023-04-17T00:00:00	2024-11-08T07:00:00	5	Humedad	81
18341	7	Sololá	701	Sololá	1	Sololá	4	Abril	2023-04-17T00:00:00	2024-11-08T07:00:00	6	Velocidad del viento	0
18342	7	Sololá	701	Sololá	1	Sololá	4	Abril	2023-04-17T00:00:00	2024-11-08T07:00:00	7	Dirección del viento	0
18343	7	Sololá	701	Sololá	1	Sololá	4	Abril	2023-04-17T00:00:00	2024-11-08T07:00:00	1	Precipitación	0
18344	7	Sololá	701	Sololá	1	Sololá	4	Abril	2023-04-17T00:00:00	2024-11-08T07:00:00	8	Radiación solar	25
18345	7	Sololá	701	Sololá	1	Sololá	4	Abril	2023-04-17T00:00:00	2024-11-08T08:00:00	2	Temperatura media	14.6
18346	7	Sololá	701	Sololá	1	Sololá	4	Abril	2023-04-17T00:00:00	2024-11-08T08:00:00	4	Temperatura máxima	14.6
18347	7	Sololá	701	Sololá	1	Sololá	4	Abril	2023-04-17T00:00:00	2024-11-08T08:00:00	3	Temperatura mínima	14.1
18348	7	Sololá	701	Sololá	1	Sololá	4	Abril	2023-04-17T00:00:00	2024-11-08T08:00:00	5	Humedad	81
18349	7	Sololá	701	Sololá	1	Sololá	4	Abril	2023-04-17T00:00:00	2024-11-08T08:00:00	6	Velocidad del viento	0
18350	7	Sololá	701	Sololá	1	Sololá	4	Abril	2023-04-17T00:00:00	2024-11-08T08:00:00	7	Dirección del viento	0
18351	7	Sololá	701	Sololá	1	Sololá	4	Abril	2023-04-17T00:00:00	2024-11-08T08:00:00	1	Precipitación	0
18352	7	Sololá	701	Sololá	1	Sololá	4	Abril	2023-04-17T00:00:00	2024-11-08T08:00:00	8	Radiación solar	131
18353	7	Sololá	701	Sololá	1	Sololá	4	Abril	2023-04-17T00:00:00	2024-11-08T09:00:00	2	Temperatura media	15.8
18354	7	Sololá	701	Sololá	1	Sololá	4	Abril	2023-04-17T00:00:00	2024-11-08T09:00:00	4	Temperatura máxima	15.8
18355	7	Sololá	701	Sololá	1	Sololá	4	Abril	2023-04-17T00:00:00	2024-11-08T09:00:00	3	Temperatura mínima	14.6
18356	7	Sololá	701	Sololá	1	Sololá	4	Abril	2023-04-17T00:00:00	2024-11-08T09:00:00	5	Humedad	75
18357	7	Sololá	701	Sololá	1	Sololá	4	Abril	2023-04-17T00:00:00	2024-11-08T09:00:00	6	Velocidad del viento	0
18358	7	Sololá	701	Sololá	1	Sololá	4	Abril	2023-04-17T00:00:00	2024-11-08T09:00:00	7	Dirección del viento	0
18359	7	Sololá	701	Sololá	1	Sololá	4	Abril	2023-04-17T00:00:00	2024-11-08T09:00:00	1	Precipitación	0
18360	7	Sololá	701	Sololá	1	Sololá	4	Abril	2023-04-17T00:00:00	2024-11-08T09:00:00	8	Radiación solar	572
18361	7	Sololá	701	Sololá	1	Sololá	4	Abril	2023-04-17T00:00:00	2024-11-08T10:00:00	2	Temperatura media	20.7
18362	7	Sololá	701	Sololá	1	Sololá	4	Abril	2023-04-17T00:00:00	2024-11-08T10:00:00	4	Temperatura máxima	20.7
18363	7	Sololá	701	Sololá	1	Sololá	4	Abril	2023-04-17T00:00:00	2024-11-08T10:00:00	3	Temperatura mínima	15.8
18364	7	Sololá	701	Sololá	1	Sololá	4	Abril	2023-04-17T00:00:00	2024-11-08T10:00:00	5	Humedad	56
18365	7	Sololá	701	Sololá	1	Sololá	4	Abril	2023-04-17T00:00:00	2024-11-08T10:00:00	6	Velocidad del viento	0
18366	7	Sololá	701	Sololá	1	Sololá	4	Abril	2023-04-17T00:00:00	2024-11-08T10:00:00	7	Dirección del viento	0
18367	7	Sololá	701	Sololá	1	Sololá	4	Abril	2023-04-17T00:00:00	2024-11-08T10:00:00	1	Precipitación	0
18368	7	Sololá	701	Sololá	1	Sololá	4	Abril	2023-04-17T00:00:00	2024-11-08T10:00:00	8	Radiación solar	773
18369	7	Sololá	701	Sololá	1	Sololá	4	Abril	2023-04-17T00:00:00	2024-11-08T11:00:00	2	Temperatura media	22.9
18370	7	Sololá	701	Sololá	1	Sololá	4	Abril	2023-04-17T00:00:00	2024-11-08T11:00:00	4	Temperatura máxima	23
18371	7	Sololá	701	Sololá	1	Sololá	4	Abril	2023-04-17T00:00:00	2024-11-08T11:00:00	3	Temperatura mínima	20.7
18372	7	Sololá	701	Sololá	1	Sololá	4	Abril	2023-04-17T00:00:00	2024-11-08T11:00:00	5	Humedad	50
18373	7	Sololá	701	Sololá	1	Sololá	4	Abril	2023-04-17T00:00:00	2024-11-08T11:00:00	6	Velocidad del viento	0
18374	7	Sololá	701	Sololá	1	Sololá	4	Abril	2023-04-17T00:00:00	2024-11-08T11:00:00	7	Dirección del viento	0
18375	7	Sololá	701	Sololá	1	Sololá	4	Abril	2023-04-17T00:00:00	2024-11-08T11:00:00	1	Precipitación	0
18376	7	Sololá	701	Sololá	1	Sololá	4	Abril	2023-04-17T00:00:00	2024-11-08T11:00:00	8	Radiación solar	882
18377	7	Sololá	701	Sololá	1	Sololá	4	Abril	2023-04-17T00:00:00	2024-11-08T12:00:00	2	Temperatura media	23.9
18378	7	Sololá	701	Sololá	1	Sololá	4	Abril	2023-04-17T00:00:00	2024-11-08T12:00:00	4	Temperatura máxima	23.9
18379	7	Sololá	701	Sololá	1	Sololá	4	Abril	2023-04-17T00:00:00	2024-11-08T12:00:00	3	Temperatura mínima	22.9
18380	7	Sololá	701	Sololá	1	Sololá	4	Abril	2023-04-17T00:00:00	2024-11-08T12:00:00	5	Humedad	47
18381	7	Sololá	701	Sololá	1	Sololá	4	Abril	2023-04-17T00:00:00	2024-11-08T12:00:00	6	Velocidad del viento	0
18382	7	Sololá	701	Sololá	1	Sololá	4	Abril	2023-04-17T00:00:00	2024-11-08T12:00:00	7	Dirección del viento	0
18383	7	Sololá	701	Sololá	1	Sololá	4	Abril	2023-04-17T00:00:00	2024-11-08T12:00:00	1	Precipitación	0
18384	7	Sololá	701	Sololá	1	Sololá	4	Abril	2023-04-17T00:00:00	2024-11-08T12:00:00	8	Radiación solar	769
18385	7	Sololá	701	Sololá	1	Sololá	4	Abril	2023-04-17T00:00:00	2024-11-08T13:00:00	2	Temperatura media	23
18386	7	Sololá	701	Sololá	1	Sololá	4	Abril	2023-04-17T00:00:00	2024-11-08T13:00:00	4	Temperatura máxima	25.6
18387	7	Sololá	701	Sololá	1	Sololá	4	Abril	2023-04-17T00:00:00	2024-11-08T13:00:00	3	Temperatura mínima	23
18388	7	Sololá	701	Sololá	1	Sololá	4	Abril	2023-04-17T00:00:00	2024-11-08T13:00:00	5	Humedad	44
18389	7	Sololá	701	Sololá	1	Sololá	4	Abril	2023-04-17T00:00:00	2024-11-08T13:00:00	6	Velocidad del viento	0
18390	7	Sololá	701	Sololá	1	Sololá	4	Abril	2023-04-17T00:00:00	2024-11-08T13:00:00	7	Dirección del viento	0
18391	7	Sololá	701	Sololá	1	Sololá	4	Abril	2023-04-17T00:00:00	2024-11-08T13:00:00	1	Precipitación	0
18392	7	Sololá	701	Sololá	1	Sololá	4	Abril	2023-04-17T00:00:00	2024-11-08T13:00:00	8	Radiación solar	789
18393	7	Sololá	701	Sololá	1	Sololá	4	Abril	2023-04-17T00:00:00	2024-11-08T14:00:00	2	Temperatura media	22.4
18394	7	Sololá	701	Sololá	1	Sololá	4	Abril	2023-04-17T00:00:00	2024-11-08T14:00:00	4	Temperatura máxima	24.3
18395	7	Sololá	701	Sololá	1	Sololá	4	Abril	2023-04-17T00:00:00	2024-11-08T14:00:00	3	Temperatura mínima	22.4
18396	7	Sololá	701	Sololá	1	Sololá	4	Abril	2023-04-17T00:00:00	2024-11-08T14:00:00	5	Humedad	65
18397	7	Sololá	701	Sololá	1	Sololá	4	Abril	2023-04-17T00:00:00	2024-11-08T14:00:00	6	Velocidad del viento	0
18398	7	Sololá	701	Sololá	1	Sololá	4	Abril	2023-04-17T00:00:00	2024-11-08T14:00:00	7	Dirección del viento	0
18399	7	Sololá	701	Sololá	1	Sololá	4	Abril	2023-04-17T00:00:00	2024-11-08T14:00:00	1	Precipitación	0
18400	7	Sololá	701	Sololá	1	Sololá	4	Abril	2023-04-17T00:00:00	2024-11-08T14:00:00	8	Radiación solar	83
18401	7	Sololá	701	Sololá	1	Sololá	4	Abril	2023-04-17T00:00:00	2024-11-08T15:00:00	2	Temperatura media	18.4
18402	7	Sololá	701	Sololá	1	Sololá	4	Abril	2023-04-17T00:00:00	2024-11-08T15:00:00	4	Temperatura máxima	22.4
18403	7	Sololá	701	Sololá	1	Sololá	4	Abril	2023-04-17T00:00:00	2024-11-08T15:00:00	3	Temperatura mínima	18.4
18404	7	Sololá	701	Sololá	1	Sololá	4	Abril	2023-04-17T00:00:00	2024-11-08T15:00:00	5	Humedad	81
18405	7	Sololá	701	Sololá	1	Sololá	4	Abril	2023-04-17T00:00:00	2024-11-08T15:00:00	6	Velocidad del viento	0
18406	7	Sololá	701	Sololá	1	Sololá	4	Abril	2023-04-17T00:00:00	2024-11-08T15:00:00	7	Dirección del viento	0
18407	7	Sololá	701	Sololá	1	Sololá	4	Abril	2023-04-17T00:00:00	2024-11-08T15:00:00	1	Precipitación	0
18408	7	Sololá	701	Sololá	1	Sololá	4	Abril	2023-04-17T00:00:00	2024-11-08T15:00:00	8	Radiación solar	68
18409	7	Sololá	701	Sololá	1	Sololá	4	Abril	2023-04-17T00:00:00	2024-11-08T16:00:00	2	Temperatura media	17.7
18410	7	Sololá	701	Sololá	1	Sololá	4	Abril	2023-04-17T00:00:00	2024-11-08T16:00:00	4	Temperatura máxima	18.4
18411	7	Sololá	701	Sololá	1	Sololá	4	Abril	2023-04-17T00:00:00	2024-11-08T16:00:00	3	Temperatura mínima	17.7
18412	7	Sololá	701	Sololá	1	Sololá	4	Abril	2023-04-17T00:00:00	2024-11-08T16:00:00	5	Humedad	86
18413	7	Sololá	701	Sololá	1	Sololá	4	Abril	2023-04-17T00:00:00	2024-11-08T16:00:00	6	Velocidad del viento	0
18414	7	Sololá	701	Sololá	1	Sololá	4	Abril	2023-04-17T00:00:00	2024-11-08T16:00:00	7	Dirección del viento	0
18415	7	Sololá	701	Sololá	1	Sololá	4	Abril	2023-04-17T00:00:00	2024-11-08T16:00:00	1	Precipitación	0
18416	7	Sololá	701	Sololá	1	Sololá	4	Abril	2023-04-17T00:00:00	2024-11-08T16:00:00	8	Radiación solar	23
18417	7	Sololá	701	Sololá	1	Sololá	4	Abril	2023-04-17T00:00:00	2024-11-08T17:00:00	2	Temperatura media	15.7
18418	7	Sololá	701	Sololá	1	Sololá	4	Abril	2023-04-17T00:00:00	2024-11-08T17:00:00	4	Temperatura máxima	17.7
18419	7	Sololá	701	Sololá	1	Sololá	4	Abril	2023-04-17T00:00:00	2024-11-08T17:00:00	3	Temperatura mínima	15.7
18420	7	Sololá	701	Sololá	1	Sololá	4	Abril	2023-04-17T00:00:00	2024-11-08T17:00:00	5	Humedad	90
18421	7	Sololá	701	Sololá	1	Sololá	4	Abril	2023-04-17T00:00:00	2024-11-08T17:00:00	6	Velocidad del viento	0
18422	7	Sololá	701	Sololá	1	Sololá	4	Abril	2023-04-17T00:00:00	2024-11-08T17:00:00	7	Dirección del viento	0
18423	7	Sololá	701	Sololá	1	Sololá	4	Abril	2023-04-17T00:00:00	2024-11-08T17:00:00	1	Precipitación	0.2
18424	7	Sololá	701	Sololá	1	Sololá	4	Abril	2023-04-17T00:00:00	2024-11-08T17:00:00	8	Radiación solar	30
18425	7	Sololá	701	Sololá	1	Sololá	4	Abril	2023-04-17T00:00:00	2024-11-08T18:00:00	2	Temperatura media	15.3
18426	7	Sololá	701	Sololá	1	Sololá	4	Abril	2023-04-17T00:00:00	2024-11-08T18:00:00	4	Temperatura máxima	15.7
18427	7	Sololá	701	Sololá	1	Sololá	4	Abril	2023-04-17T00:00:00	2024-11-08T18:00:00	3	Temperatura mínima	15.2
18428	7	Sololá	701	Sololá	1	Sololá	4	Abril	2023-04-17T00:00:00	2024-11-08T18:00:00	5	Humedad	94
18429	7	Sololá	701	Sololá	1	Sololá	4	Abril	2023-04-17T00:00:00	2024-11-08T18:00:00	6	Velocidad del viento	0
18430	7	Sololá	701	Sololá	1	Sololá	4	Abril	2023-04-17T00:00:00	2024-11-08T18:00:00	7	Dirección del viento	0
18431	7	Sololá	701	Sololá	1	Sololá	4	Abril	2023-04-17T00:00:00	2024-11-08T18:00:00	1	Precipitación	0.6
18432	7	Sololá	701	Sololá	1	Sololá	4	Abril	2023-04-17T00:00:00	2024-11-08T18:00:00	8	Radiación solar	24
18433	7	Sololá	701	Sololá	1	Sololá	4	Abril	2023-04-17T00:00:00	2024-11-08T19:00:00	2	Temperatura media	15.2
18434	7	Sololá	701	Sololá	1	Sololá	4	Abril	2023-04-17T00:00:00	2024-11-08T19:00:00	4	Temperatura máxima	15.3
18435	7	Sololá	701	Sololá	1	Sololá	4	Abril	2023-04-17T00:00:00	2024-11-08T19:00:00	3	Temperatura mínima	15.2
18436	7	Sololá	701	Sololá	1	Sololá	4	Abril	2023-04-17T00:00:00	2024-11-08T19:00:00	5	Humedad	95
18437	7	Sololá	701	Sololá	1	Sololá	4	Abril	2023-04-17T00:00:00	2024-11-08T19:00:00	6	Velocidad del viento	0
18438	7	Sololá	701	Sololá	1	Sololá	4	Abril	2023-04-17T00:00:00	2024-11-08T19:00:00	7	Dirección del viento	0
18439	7	Sololá	701	Sololá	1	Sololá	4	Abril	2023-04-17T00:00:00	2024-11-08T19:00:00	1	Precipitación	1.6
18440	7	Sololá	701	Sololá	1	Sololá	4	Abril	2023-04-17T00:00:00	2024-11-08T19:00:00	8	Radiación solar	0
18441	7	Sololá	701	Sololá	1	Sololá	4	Abril	2023-04-17T00:00:00	2024-11-08T20:00:00	2	Temperatura media	13.7
18442	7	Sololá	701	Sololá	1	Sololá	4	Abril	2023-04-17T00:00:00	2024-11-08T20:00:00	4	Temperatura máxima	15.2
18443	7	Sololá	701	Sololá	1	Sololá	4	Abril	2023-04-17T00:00:00	2024-11-08T20:00:00	3	Temperatura mínima	13.7
18444	7	Sololá	701	Sololá	1	Sololá	4	Abril	2023-04-17T00:00:00	2024-11-08T20:00:00	5	Humedad	87
18445	7	Sololá	701	Sololá	1	Sololá	4	Abril	2023-04-17T00:00:00	2024-11-08T20:00:00	6	Velocidad del viento	0
18446	7	Sololá	701	Sololá	1	Sololá	4	Abril	2023-04-17T00:00:00	2024-11-08T20:00:00	7	Dirección del viento	0
18447	7	Sololá	701	Sololá	1	Sololá	4	Abril	2023-04-17T00:00:00	2024-11-08T20:00:00	1	Precipitación	0
18448	7	Sololá	701	Sololá	1	Sololá	4	Abril	2023-04-17T00:00:00	2024-11-08T20:00:00	8	Radiación solar	0
18449	7	Sololá	701	Sololá	1	Sololá	4	Abril	2023-04-17T00:00:00	2024-11-08T21:00:00	2	Temperatura media	13.6
18450	7	Sololá	701	Sololá	1	Sololá	4	Abril	2023-04-17T00:00:00	2024-11-08T21:00:00	4	Temperatura máxima	13.8
18451	7	Sololá	701	Sololá	1	Sololá	4	Abril	2023-04-17T00:00:00	2024-11-08T21:00:00	3	Temperatura mínima	13.6
18452	7	Sololá	701	Sololá	1	Sololá	4	Abril	2023-04-17T00:00:00	2024-11-08T21:00:00	5	Humedad	88
18453	7	Sololá	701	Sololá	1	Sololá	4	Abril	2023-04-17T00:00:00	2024-11-08T21:00:00	6	Velocidad del viento	0
18454	7	Sololá	701	Sololá	1	Sololá	4	Abril	2023-04-17T00:00:00	2024-11-08T21:00:00	7	Dirección del viento	0
18455	7	Sololá	701	Sololá	1	Sololá	4	Abril	2023-04-17T00:00:00	2024-11-08T21:00:00	1	Precipitación	0
18456	7	Sololá	701	Sololá	1	Sololá	4	Abril	2023-04-17T00:00:00	2024-11-08T21:00:00	8	Radiación solar	0
18457	7	Sololá	701	Sololá	1	Sololá	4	Abril	2023-04-17T00:00:00	2024-11-08T22:00:00	2	Temperatura media	13.3
18458	7	Sololá	701	Sololá	1	Sololá	4	Abril	2023-04-17T00:00:00	2024-11-08T22:00:00	4	Temperatura máxima	13.6
18459	7	Sololá	701	Sololá	1	Sololá	4	Abril	2023-04-17T00:00:00	2024-11-08T22:00:00	3	Temperatura mínima	13.3
18460	7	Sololá	701	Sololá	1	Sololá	4	Abril	2023-04-17T00:00:00	2024-11-08T22:00:00	5	Humedad	87
18461	7	Sololá	701	Sololá	1	Sololá	4	Abril	2023-04-17T00:00:00	2024-11-08T22:00:00	6	Velocidad del viento	0
18462	7	Sololá	701	Sololá	1	Sololá	4	Abril	2023-04-17T00:00:00	2024-11-08T22:00:00	7	Dirección del viento	0
18463	7	Sololá	701	Sololá	1	Sololá	4	Abril	2023-04-17T00:00:00	2024-11-08T22:00:00	1	Precipitación	0
18464	7	Sololá	701	Sololá	1	Sololá	4	Abril	2023-04-17T00:00:00	2024-11-08T22:00:00	8	Radiación solar	0
18465	7	Sololá	701	Sololá	1	Sololá	4	Abril	2023-04-17T00:00:00	2024-11-08T23:00:00	2	Temperatura media	13.2
18466	7	Sololá	701	Sololá	1	Sololá	4	Abril	2023-04-17T00:00:00	2024-11-08T23:00:00	4	Temperatura máxima	13.3
18467	7	Sololá	701	Sololá	1	Sololá	4	Abril	2023-04-17T00:00:00	2024-11-08T23:00:00	3	Temperatura mínima	13.1
18468	7	Sololá	701	Sololá	1	Sololá	4	Abril	2023-04-17T00:00:00	2024-11-08T23:00:00	5	Humedad	88
18469	7	Sololá	701	Sololá	1	Sololá	4	Abril	2023-04-17T00:00:00	2024-11-08T23:00:00	6	Velocidad del viento	0
18470	7	Sololá	701	Sololá	1	Sololá	4	Abril	2023-04-17T00:00:00	2024-11-08T23:00:00	7	Dirección del viento	0
18471	7	Sololá	701	Sololá	1	Sololá	4	Abril	2023-04-17T00:00:00	2024-11-08T23:00:00	1	Precipitación	0
18472	7	Sololá	701	Sololá	1	Sololá	4	Abril	2023-04-17T00:00:00	2024-11-08T23:00:00	8	Radiación solar	0
18473	7	Sololá	701	Sololá	1	Sololá	4	Abril	2023-04-18T00:00:00	2024-11-08T00:00:00	2	Temperatura media	13.4
18474	7	Sololá	701	Sololá	1	Sololá	4	Abril	2023-04-18T00:00:00	2024-11-08T00:00:00	4	Temperatura máxima	13.4
18475	7	Sololá	701	Sololá	1	Sololá	4	Abril	2023-04-18T00:00:00	2024-11-08T00:00:00	3	Temperatura mínima	13.2
18476	7	Sololá	701	Sololá	1	Sololá	4	Abril	2023-04-18T00:00:00	2024-11-08T00:00:00	5	Humedad	87
18477	7	Sololá	701	Sololá	1	Sololá	4	Abril	2023-04-18T00:00:00	2024-11-08T00:00:00	6	Velocidad del viento	0
18478	7	Sololá	701	Sololá	1	Sololá	4	Abril	2023-04-18T00:00:00	2024-11-08T00:00:00	7	Dirección del viento	0
18479	7	Sololá	701	Sololá	1	Sololá	4	Abril	2023-04-18T00:00:00	2024-11-08T00:00:00	1	Precipitación	0
18480	7	Sololá	701	Sololá	1	Sololá	4	Abril	2023-04-18T00:00:00	2024-11-08T00:00:00	8	Radiación solar	0
18481	7	Sololá	701	Sololá	1	Sololá	4	Abril	2023-04-18T00:00:00	2024-11-08T01:00:00	2	Temperatura media	13.5
18482	7	Sololá	701	Sololá	1	Sololá	4	Abril	2023-04-18T00:00:00	2024-11-08T01:00:00	4	Temperatura máxima	13.7
18483	7	Sololá	701	Sololá	1	Sololá	4	Abril	2023-04-18T00:00:00	2024-11-08T01:00:00	3	Temperatura mínima	13.4
18484	7	Sololá	701	Sololá	1	Sololá	4	Abril	2023-04-18T00:00:00	2024-11-08T01:00:00	5	Humedad	90
18485	7	Sololá	701	Sololá	1	Sololá	4	Abril	2023-04-18T00:00:00	2024-11-08T01:00:00	6	Velocidad del viento	0
18486	7	Sololá	701	Sololá	1	Sololá	4	Abril	2023-04-18T00:00:00	2024-11-08T01:00:00	7	Dirección del viento	0
18487	7	Sololá	701	Sololá	1	Sololá	4	Abril	2023-04-18T00:00:00	2024-11-08T01:00:00	1	Precipitación	0
18488	7	Sololá	701	Sololá	1	Sololá	4	Abril	2023-04-18T00:00:00	2024-11-08T01:00:00	8	Radiación solar	0
18489	7	Sololá	701	Sololá	1	Sololá	4	Abril	2023-04-18T00:00:00	2024-11-08T02:00:00	2	Temperatura media	13.6
18490	7	Sololá	701	Sololá	1	Sololá	4	Abril	2023-04-18T00:00:00	2024-11-08T02:00:00	4	Temperatura máxima	13.6
18491	7	Sololá	701	Sololá	1	Sololá	4	Abril	2023-04-18T00:00:00	2024-11-08T02:00:00	3	Temperatura mínima	13.4
18492	7	Sololá	701	Sololá	1	Sololá	4	Abril	2023-04-18T00:00:00	2024-11-08T02:00:00	5	Humedad	89
18493	7	Sololá	701	Sololá	1	Sololá	4	Abril	2023-04-18T00:00:00	2024-11-08T02:00:00	6	Velocidad del viento	0
18494	7	Sololá	701	Sololá	1	Sololá	4	Abril	2023-04-18T00:00:00	2024-11-08T02:00:00	7	Dirección del viento	0
18495	7	Sololá	701	Sololá	1	Sololá	4	Abril	2023-04-18T00:00:00	2024-11-08T02:00:00	1	Precipitación	0
18496	7	Sololá	701	Sololá	1	Sololá	4	Abril	2023-04-18T00:00:00	2024-11-08T02:00:00	8	Radiación solar	0
18497	7	Sololá	701	Sololá	1	Sololá	4	Abril	2023-04-18T00:00:00	2024-11-08T03:00:00	2	Temperatura media	13.4
18498	7	Sololá	701	Sololá	1	Sololá	4	Abril	2023-04-18T00:00:00	2024-11-08T03:00:00	4	Temperatura máxima	13.6
18499	7	Sololá	701	Sololá	1	Sololá	4	Abril	2023-04-18T00:00:00	2024-11-08T03:00:00	3	Temperatura mínima	13.4
18500	7	Sololá	701	Sololá	1	Sololá	4	Abril	2023-04-18T00:00:00	2024-11-08T03:00:00	5	Humedad	87
18501	7	Sololá	701	Sololá	1	Sololá	4	Abril	2023-04-18T00:00:00	2024-11-08T03:00:00	6	Velocidad del viento	0
18502	7	Sololá	701	Sololá	1	Sololá	4	Abril	2023-04-18T00:00:00	2024-11-08T03:00:00	7	Dirección del viento	0
18503	7	Sololá	701	Sololá	1	Sololá	4	Abril	2023-04-18T00:00:00	2024-11-08T03:00:00	1	Precipitación	0
18504	7	Sololá	701	Sololá	1	Sololá	4	Abril	2023-04-18T00:00:00	2024-11-08T03:00:00	8	Radiación solar	0
18505	7	Sololá	701	Sololá	1	Sololá	4	Abril	2023-04-18T00:00:00	2024-11-08T04:00:00	2	Temperatura media	12.9
18506	7	Sololá	701	Sololá	1	Sololá	4	Abril	2023-04-18T00:00:00	2024-11-08T04:00:00	4	Temperatura máxima	13.4
18507	7	Sololá	701	Sololá	1	Sololá	4	Abril	2023-04-18T00:00:00	2024-11-08T04:00:00	3	Temperatura mínima	12.9
18508	7	Sololá	701	Sololá	1	Sololá	4	Abril	2023-04-18T00:00:00	2024-11-08T04:00:00	5	Humedad	83
18509	7	Sololá	701	Sololá	1	Sololá	4	Abril	2023-04-18T00:00:00	2024-11-08T04:00:00	6	Velocidad del viento	0
18510	7	Sololá	701	Sololá	1	Sololá	4	Abril	2023-04-18T00:00:00	2024-11-08T04:00:00	7	Dirección del viento	0
18511	7	Sololá	701	Sololá	1	Sololá	4	Abril	2023-04-18T00:00:00	2024-11-08T04:00:00	1	Precipitación	0
18512	7	Sololá	701	Sololá	1	Sololá	4	Abril	2023-04-18T00:00:00	2024-11-08T04:00:00	8	Radiación solar	0
18513	7	Sololá	701	Sololá	1	Sololá	4	Abril	2023-04-18T00:00:00	2024-11-08T05:00:00	2	Temperatura media	12.6
18514	7	Sololá	701	Sololá	1	Sololá	4	Abril	2023-04-18T00:00:00	2024-11-08T05:00:00	4	Temperatura máxima	13.1
18515	7	Sololá	701	Sololá	1	Sololá	4	Abril	2023-04-18T00:00:00	2024-11-08T05:00:00	3	Temperatura mínima	12.5
18516	7	Sololá	701	Sololá	1	Sololá	4	Abril	2023-04-18T00:00:00	2024-11-08T05:00:00	5	Humedad	82
18517	7	Sololá	701	Sololá	1	Sololá	4	Abril	2023-04-18T00:00:00	2024-11-08T05:00:00	6	Velocidad del viento	0
18518	7	Sololá	701	Sololá	1	Sololá	4	Abril	2023-04-18T00:00:00	2024-11-08T05:00:00	7	Dirección del viento	0
18519	7	Sololá	701	Sololá	1	Sololá	4	Abril	2023-04-18T00:00:00	2024-11-08T05:00:00	1	Precipitación	0
18520	7	Sololá	701	Sololá	1	Sololá	4	Abril	2023-04-18T00:00:00	2024-11-08T05:00:00	8	Radiación solar	0
18521	7	Sololá	701	Sololá	1	Sololá	4	Abril	2023-04-18T00:00:00	2024-11-08T06:00:00	2	Temperatura media	12.3
18522	7	Sololá	701	Sololá	1	Sololá	4	Abril	2023-04-18T00:00:00	2024-11-08T06:00:00	4	Temperatura máxima	12.6
18523	7	Sololá	701	Sololá	1	Sololá	4	Abril	2023-04-18T00:00:00	2024-11-08T06:00:00	3	Temperatura mínima	12.3
18524	7	Sololá	701	Sololá	1	Sololá	4	Abril	2023-04-18T00:00:00	2024-11-08T06:00:00	5	Humedad	85
18525	7	Sololá	701	Sololá	1	Sololá	4	Abril	2023-04-18T00:00:00	2024-11-08T06:00:00	6	Velocidad del viento	0
18526	7	Sololá	701	Sololá	1	Sololá	4	Abril	2023-04-18T00:00:00	2024-11-08T06:00:00	7	Dirección del viento	0
18527	7	Sololá	701	Sololá	1	Sololá	4	Abril	2023-04-18T00:00:00	2024-11-08T06:00:00	1	Precipitación	0
18528	7	Sololá	701	Sololá	1	Sololá	4	Abril	2023-04-18T00:00:00	2024-11-08T06:00:00	8	Radiación solar	0
18529	7	Sololá	701	Sololá	1	Sololá	4	Abril	2023-04-18T00:00:00	2024-11-08T07:00:00	2	Temperatura media	11.8
18530	7	Sololá	701	Sololá	1	Sololá	4	Abril	2023-04-18T00:00:00	2024-11-08T07:00:00	4	Temperatura máxima	12.3
18531	7	Sololá	701	Sololá	1	Sololá	4	Abril	2023-04-18T00:00:00	2024-11-08T07:00:00	3	Temperatura mínima	11.7
18532	7	Sololá	701	Sololá	1	Sololá	4	Abril	2023-04-18T00:00:00	2024-11-08T07:00:00	5	Humedad	86
18533	7	Sololá	701	Sololá	1	Sololá	4	Abril	2023-04-18T00:00:00	2024-11-08T07:00:00	6	Velocidad del viento	0
18534	7	Sololá	701	Sololá	1	Sololá	4	Abril	2023-04-18T00:00:00	2024-11-08T07:00:00	7	Dirección del viento	0
18535	7	Sololá	701	Sololá	1	Sololá	4	Abril	2023-04-18T00:00:00	2024-11-08T07:00:00	1	Precipitación	0
18536	7	Sololá	701	Sololá	1	Sololá	4	Abril	2023-04-18T00:00:00	2024-11-08T07:00:00	8	Radiación solar	13
18537	7	Sololá	701	Sololá	1	Sololá	4	Abril	2023-04-18T00:00:00	2024-11-08T08:00:00	2	Temperatura media	11.9
18538	7	Sololá	701	Sololá	1	Sololá	4	Abril	2023-04-18T00:00:00	2024-11-08T08:00:00	4	Temperatura máxima	12.1
18539	7	Sololá	701	Sololá	1	Sololá	4	Abril	2023-04-18T00:00:00	2024-11-08T08:00:00	3	Temperatura mínima	11.8
18540	7	Sololá	701	Sololá	1	Sololá	4	Abril	2023-04-18T00:00:00	2024-11-08T08:00:00	5	Humedad	87
18541	7	Sololá	701	Sololá	1	Sololá	4	Abril	2023-04-18T00:00:00	2024-11-08T08:00:00	6	Velocidad del viento	0
18542	7	Sololá	701	Sololá	1	Sololá	4	Abril	2023-04-18T00:00:00	2024-11-08T08:00:00	7	Dirección del viento	0
18543	7	Sololá	701	Sololá	1	Sololá	4	Abril	2023-04-18T00:00:00	2024-11-08T08:00:00	1	Precipitación	0
18544	7	Sololá	701	Sololá	1	Sololá	4	Abril	2023-04-18T00:00:00	2024-11-08T08:00:00	8	Radiación solar	253
18545	7	Sololá	701	Sololá	1	Sololá	4	Abril	2023-04-18T00:00:00	2024-11-08T09:00:00	2	Temperatura media	16.6
18546	7	Sololá	701	Sololá	1	Sololá	4	Abril	2023-04-18T00:00:00	2024-11-08T09:00:00	4	Temperatura máxima	16.6
18547	7	Sololá	701	Sololá	1	Sololá	4	Abril	2023-04-18T00:00:00	2024-11-08T09:00:00	3	Temperatura mínima	11.9
18548	7	Sololá	701	Sololá	1	Sololá	4	Abril	2023-04-18T00:00:00	2024-11-08T09:00:00	5	Humedad	74
18549	7	Sololá	701	Sololá	1	Sololá	4	Abril	2023-04-18T00:00:00	2024-11-08T09:00:00	6	Velocidad del viento	0
18550	7	Sololá	701	Sololá	1	Sololá	4	Abril	2023-04-18T00:00:00	2024-11-08T09:00:00	7	Dirección del viento	0
18551	7	Sololá	701	Sololá	1	Sololá	4	Abril	2023-04-18T00:00:00	2024-11-08T09:00:00	1	Precipitación	0
18552	7	Sololá	701	Sololá	1	Sololá	4	Abril	2023-04-18T00:00:00	2024-11-08T09:00:00	8	Radiación solar	611
18553	7	Sololá	701	Sololá	1	Sololá	4	Abril	2023-04-18T00:00:00	2024-11-08T10:00:00	2	Temperatura media	19.4
18554	7	Sololá	701	Sololá	1	Sololá	4	Abril	2023-04-18T00:00:00	2024-11-08T10:00:00	4	Temperatura máxima	19.4
18555	7	Sololá	701	Sololá	1	Sololá	4	Abril	2023-04-18T00:00:00	2024-11-08T10:00:00	3	Temperatura mínima	16.6
18556	7	Sololá	701	Sololá	1	Sololá	4	Abril	2023-04-18T00:00:00	2024-11-08T10:00:00	5	Humedad	66
18557	7	Sololá	701	Sololá	1	Sololá	4	Abril	2023-04-18T00:00:00	2024-11-08T10:00:00	6	Velocidad del viento	0
18558	7	Sololá	701	Sololá	1	Sololá	4	Abril	2023-04-18T00:00:00	2024-11-08T10:00:00	7	Dirección del viento	0
18559	7	Sololá	701	Sololá	1	Sololá	4	Abril	2023-04-18T00:00:00	2024-11-08T10:00:00	1	Precipitación	0
18560	7	Sololá	701	Sololá	1	Sololá	4	Abril	2023-04-18T00:00:00	2024-11-08T10:00:00	8	Radiación solar	802
18561	7	Sololá	701	Sololá	1	Sololá	4	Abril	2023-04-18T00:00:00	2024-11-08T11:00:00	2	Temperatura media	20.4
18562	7	Sololá	701	Sololá	1	Sololá	4	Abril	2023-04-18T00:00:00	2024-11-08T11:00:00	4	Temperatura máxima	20.4
18563	7	Sololá	701	Sololá	1	Sololá	4	Abril	2023-04-18T00:00:00	2024-11-08T11:00:00	3	Temperatura mínima	19.4
18564	7	Sololá	701	Sololá	1	Sololá	4	Abril	2023-04-18T00:00:00	2024-11-08T11:00:00	5	Humedad	60
18565	7	Sololá	701	Sololá	1	Sololá	4	Abril	2023-04-18T00:00:00	2024-11-08T11:00:00	6	Velocidad del viento	0
18566	7	Sololá	701	Sololá	1	Sololá	4	Abril	2023-04-18T00:00:00	2024-11-08T11:00:00	7	Dirección del viento	0
18567	7	Sololá	701	Sololá	1	Sololá	4	Abril	2023-04-18T00:00:00	2024-11-08T11:00:00	1	Precipitación	0
18568	7	Sololá	701	Sololá	1	Sololá	4	Abril	2023-04-18T00:00:00	2024-11-08T11:00:00	8	Radiación solar	917
18569	7	Sololá	701	Sololá	1	Sololá	4	Abril	2023-04-18T00:00:00	2024-11-08T12:00:00	2	Temperatura media	20.8
18570	7	Sololá	701	Sololá	1	Sololá	4	Abril	2023-04-18T00:00:00	2024-11-08T12:00:00	4	Temperatura máxima	21.1
18571	7	Sololá	701	Sololá	1	Sololá	4	Abril	2023-04-18T00:00:00	2024-11-08T12:00:00	3	Temperatura mínima	20.4
18572	7	Sololá	701	Sololá	1	Sololá	4	Abril	2023-04-18T00:00:00	2024-11-08T12:00:00	5	Humedad	61
18573	7	Sololá	701	Sololá	1	Sololá	4	Abril	2023-04-18T00:00:00	2024-11-08T12:00:00	6	Velocidad del viento	0
18574	7	Sololá	701	Sololá	1	Sololá	4	Abril	2023-04-18T00:00:00	2024-11-08T12:00:00	7	Dirección del viento	0
18575	7	Sololá	701	Sololá	1	Sololá	4	Abril	2023-04-18T00:00:00	2024-11-08T12:00:00	1	Precipitación	0
18576	7	Sololá	701	Sololá	1	Sololá	4	Abril	2023-04-18T00:00:00	2024-11-08T12:00:00	8	Radiación solar	976
18577	7	Sololá	701	Sololá	1	Sololá	4	Abril	2023-04-18T00:00:00	2024-11-08T13:00:00	2	Temperatura media	21.2
18578	7	Sololá	701	Sololá	1	Sololá	4	Abril	2023-04-18T00:00:00	2024-11-08T13:00:00	4	Temperatura máxima	21.2
18579	7	Sololá	701	Sololá	1	Sololá	4	Abril	2023-04-18T00:00:00	2024-11-08T13:00:00	3	Temperatura mínima	20.8
18580	7	Sololá	701	Sololá	1	Sololá	4	Abril	2023-04-18T00:00:00	2024-11-08T13:00:00	5	Humedad	68
18581	7	Sololá	701	Sololá	1	Sololá	4	Abril	2023-04-18T00:00:00	2024-11-08T13:00:00	6	Velocidad del viento	0
18582	7	Sololá	701	Sololá	1	Sololá	4	Abril	2023-04-18T00:00:00	2024-11-08T13:00:00	7	Dirección del viento	0
18583	7	Sololá	701	Sololá	1	Sololá	4	Abril	2023-04-18T00:00:00	2024-11-08T13:00:00	1	Precipitación	0
18584	7	Sololá	701	Sololá	1	Sololá	4	Abril	2023-04-18T00:00:00	2024-11-08T13:00:00	8	Radiación solar	528
18585	7	Sololá	701	Sololá	1	Sololá	4	Abril	2023-04-18T00:00:00	2024-11-08T14:00:00	2	Temperatura media	20
18586	7	Sololá	701	Sololá	1	Sololá	4	Abril	2023-04-18T00:00:00	2024-11-08T14:00:00	4	Temperatura máxima	21.4
18587	7	Sololá	701	Sololá	1	Sololá	4	Abril	2023-04-18T00:00:00	2024-11-08T14:00:00	3	Temperatura mínima	19.3
18588	7	Sololá	701	Sololá	1	Sololá	4	Abril	2023-04-18T00:00:00	2024-11-08T14:00:00	5	Humedad	72
18589	7	Sololá	701	Sololá	1	Sololá	4	Abril	2023-04-18T00:00:00	2024-11-08T14:00:00	6	Velocidad del viento	0
18590	7	Sololá	701	Sololá	1	Sololá	4	Abril	2023-04-18T00:00:00	2024-11-08T14:00:00	7	Dirección del viento	0
18591	7	Sololá	701	Sololá	1	Sololá	4	Abril	2023-04-18T00:00:00	2024-11-08T14:00:00	1	Precipitación	0
18592	7	Sololá	701	Sololá	1	Sololá	4	Abril	2023-04-18T00:00:00	2024-11-08T14:00:00	8	Radiación solar	287
18593	7	Sololá	701	Sololá	1	Sololá	4	Abril	2023-04-18T00:00:00	2024-11-08T15:00:00	2	Temperatura media	20.8
18594	7	Sololá	701	Sololá	1	Sololá	4	Abril	2023-04-18T00:00:00	2024-11-08T15:00:00	4	Temperatura máxima	20.9
18595	7	Sololá	701	Sololá	1	Sololá	4	Abril	2023-04-18T00:00:00	2024-11-08T15:00:00	3	Temperatura mínima	20
18596	7	Sololá	701	Sololá	1	Sololá	4	Abril	2023-04-18T00:00:00	2024-11-08T15:00:00	5	Humedad	68
18597	7	Sololá	701	Sololá	1	Sololá	4	Abril	2023-04-18T00:00:00	2024-11-08T15:00:00	6	Velocidad del viento	0
18598	7	Sololá	701	Sololá	1	Sololá	4	Abril	2023-04-18T00:00:00	2024-11-08T15:00:00	7	Dirección del viento	0
18599	7	Sololá	701	Sololá	1	Sololá	4	Abril	2023-04-18T00:00:00	2024-11-08T15:00:00	1	Precipitación	0
18600	7	Sololá	701	Sololá	1	Sololá	4	Abril	2023-04-18T00:00:00	2024-11-08T15:00:00	8	Radiación solar	209
18601	7	Sololá	701	Sololá	1	Sololá	4	Abril	2023-04-18T00:00:00	2024-11-08T16:00:00	2	Temperatura media	19.6
18602	7	Sololá	701	Sololá	1	Sololá	4	Abril	2023-04-18T00:00:00	2024-11-08T16:00:00	4	Temperatura máxima	20.9
18603	7	Sololá	701	Sololá	1	Sololá	4	Abril	2023-04-18T00:00:00	2024-11-08T16:00:00	3	Temperatura mínima	19.4
18604	7	Sololá	701	Sololá	1	Sololá	4	Abril	2023-04-18T00:00:00	2024-11-08T16:00:00	5	Humedad	74
18605	7	Sololá	701	Sololá	1	Sololá	4	Abril	2023-04-18T00:00:00	2024-11-08T16:00:00	6	Velocidad del viento	0
18606	7	Sololá	701	Sololá	1	Sololá	4	Abril	2023-04-18T00:00:00	2024-11-08T16:00:00	7	Dirección del viento	0
18607	7	Sololá	701	Sololá	1	Sololá	4	Abril	2023-04-18T00:00:00	2024-11-08T16:00:00	1	Precipitación	0
18608	7	Sololá	701	Sololá	1	Sololá	4	Abril	2023-04-18T00:00:00	2024-11-08T16:00:00	8	Radiación solar	167
18609	7	Sololá	701	Sololá	1	Sololá	4	Abril	2023-04-18T00:00:00	2024-11-08T17:00:00	2	Temperatura media	18.7
18610	7	Sololá	701	Sololá	1	Sololá	4	Abril	2023-04-18T00:00:00	2024-11-08T17:00:00	4	Temperatura máxima	19.8
18611	7	Sololá	701	Sololá	1	Sololá	4	Abril	2023-04-18T00:00:00	2024-11-08T17:00:00	3	Temperatura mínima	18.7
18612	7	Sololá	701	Sololá	1	Sololá	4	Abril	2023-04-18T00:00:00	2024-11-08T17:00:00	5	Humedad	78
18613	7	Sololá	701	Sololá	1	Sololá	4	Abril	2023-04-18T00:00:00	2024-11-08T17:00:00	6	Velocidad del viento	0
18614	7	Sololá	701	Sololá	1	Sololá	4	Abril	2023-04-18T00:00:00	2024-11-08T17:00:00	7	Dirección del viento	0
18615	7	Sololá	701	Sololá	1	Sololá	4	Abril	2023-04-18T00:00:00	2024-11-08T17:00:00	1	Precipitación	0
18616	7	Sololá	701	Sololá	1	Sololá	4	Abril	2023-04-18T00:00:00	2024-11-08T17:00:00	8	Radiación solar	43
18617	7	Sololá	701	Sololá	1	Sololá	4	Abril	2023-04-18T00:00:00	2024-11-08T18:00:00	2	Temperatura media	17.1
18618	7	Sololá	701	Sololá	1	Sololá	4	Abril	2023-04-18T00:00:00	2024-11-08T18:00:00	4	Temperatura máxima	18.7
18619	7	Sololá	701	Sololá	1	Sololá	4	Abril	2023-04-18T00:00:00	2024-11-08T18:00:00	3	Temperatura mínima	17.1
18620	7	Sololá	701	Sololá	1	Sololá	4	Abril	2023-04-18T00:00:00	2024-11-08T18:00:00	5	Humedad	87
18621	7	Sololá	701	Sololá	1	Sololá	4	Abril	2023-04-18T00:00:00	2024-11-08T18:00:00	6	Velocidad del viento	0
18622	7	Sololá	701	Sololá	1	Sololá	4	Abril	2023-04-18T00:00:00	2024-11-08T18:00:00	7	Dirección del viento	0
18623	7	Sololá	701	Sololá	1	Sololá	4	Abril	2023-04-18T00:00:00	2024-11-08T18:00:00	1	Precipitación	0
18624	7	Sololá	701	Sololá	1	Sololá	4	Abril	2023-04-18T00:00:00	2024-11-08T18:00:00	8	Radiación solar	7
18625	7	Sololá	701	Sololá	1	Sololá	4	Abril	2023-04-18T00:00:00	2024-11-08T19:00:00	2	Temperatura media	16.5
18626	7	Sololá	701	Sololá	1	Sololá	4	Abril	2023-04-18T00:00:00	2024-11-08T19:00:00	4	Temperatura máxima	17.1
18627	7	Sololá	701	Sololá	1	Sololá	4	Abril	2023-04-18T00:00:00	2024-11-08T19:00:00	3	Temperatura mínima	16.4
18628	7	Sololá	701	Sololá	1	Sololá	4	Abril	2023-04-18T00:00:00	2024-11-08T19:00:00	5	Humedad	89
18629	7	Sololá	701	Sololá	1	Sololá	4	Abril	2023-04-18T00:00:00	2024-11-08T19:00:00	6	Velocidad del viento	0
18630	7	Sololá	701	Sololá	1	Sololá	4	Abril	2023-04-18T00:00:00	2024-11-08T19:00:00	7	Dirección del viento	0
18631	7	Sololá	701	Sololá	1	Sololá	4	Abril	2023-04-18T00:00:00	2024-11-08T19:00:00	1	Precipitación	0
18632	7	Sololá	701	Sololá	1	Sololá	4	Abril	2023-04-18T00:00:00	2024-11-08T19:00:00	8	Radiación solar	0
18633	7	Sololá	701	Sololá	1	Sololá	4	Abril	2023-04-18T00:00:00	2024-11-08T20:00:00	2	Temperatura media	16
18634	7	Sololá	701	Sololá	1	Sololá	4	Abril	2023-04-18T00:00:00	2024-11-08T20:00:00	4	Temperatura máxima	16.5
18635	7	Sololá	701	Sololá	1	Sololá	4	Abril	2023-04-18T00:00:00	2024-11-08T20:00:00	3	Temperatura mínima	16
18636	7	Sololá	701	Sololá	1	Sololá	4	Abril	2023-04-18T00:00:00	2024-11-08T20:00:00	5	Humedad	91
18637	7	Sololá	701	Sololá	1	Sololá	4	Abril	2023-04-18T00:00:00	2024-11-08T20:00:00	6	Velocidad del viento	0
18638	7	Sololá	701	Sololá	1	Sololá	4	Abril	2023-04-18T00:00:00	2024-11-08T20:00:00	7	Dirección del viento	0
18639	7	Sololá	701	Sololá	1	Sololá	4	Abril	2023-04-18T00:00:00	2024-11-08T20:00:00	1	Precipitación	0
18640	7	Sololá	701	Sololá	1	Sololá	4	Abril	2023-04-18T00:00:00	2024-11-08T20:00:00	8	Radiación solar	0
18641	7	Sololá	701	Sololá	1	Sololá	4	Abril	2023-04-18T00:00:00	2024-11-08T21:00:00	2	Temperatura media	16.3
18642	7	Sololá	701	Sololá	1	Sololá	4	Abril	2023-04-18T00:00:00	2024-11-08T21:00:00	4	Temperatura máxima	16.3
18643	7	Sololá	701	Sololá	1	Sololá	4	Abril	2023-04-18T00:00:00	2024-11-08T21:00:00	3	Temperatura mínima	16
18644	7	Sololá	701	Sololá	1	Sololá	4	Abril	2023-04-18T00:00:00	2024-11-08T21:00:00	5	Humedad	90
18645	7	Sololá	701	Sololá	1	Sololá	4	Abril	2023-04-18T00:00:00	2024-11-08T21:00:00	6	Velocidad del viento	0
18646	7	Sololá	701	Sololá	1	Sololá	4	Abril	2023-04-18T00:00:00	2024-11-08T21:00:00	7	Dirección del viento	0
18647	7	Sololá	701	Sololá	1	Sololá	4	Abril	2023-04-18T00:00:00	2024-11-08T21:00:00	1	Precipitación	0
18648	7	Sololá	701	Sololá	1	Sololá	4	Abril	2023-04-18T00:00:00	2024-11-08T21:00:00	8	Radiación solar	0
18649	7	Sololá	701	Sololá	1	Sololá	4	Abril	2023-04-18T00:00:00	2024-11-08T22:00:00	2	Temperatura media	15.1
18650	7	Sololá	701	Sololá	1	Sololá	4	Abril	2023-04-18T00:00:00	2024-11-08T22:00:00	4	Temperatura máxima	16.3
18651	7	Sololá	701	Sololá	1	Sololá	4	Abril	2023-04-18T00:00:00	2024-11-08T22:00:00	3	Temperatura mínima	15.1
18652	7	Sololá	701	Sololá	1	Sololá	4	Abril	2023-04-18T00:00:00	2024-11-08T22:00:00	5	Humedad	89
18653	7	Sololá	701	Sololá	1	Sololá	4	Abril	2023-04-18T00:00:00	2024-11-08T22:00:00	6	Velocidad del viento	0
18654	7	Sololá	701	Sololá	1	Sololá	4	Abril	2023-04-18T00:00:00	2024-11-08T22:00:00	7	Dirección del viento	0
18655	7	Sololá	701	Sololá	1	Sololá	4	Abril	2023-04-18T00:00:00	2024-11-08T22:00:00	1	Precipitación	0
18656	7	Sololá	701	Sololá	1	Sololá	4	Abril	2023-04-18T00:00:00	2024-11-08T22:00:00	8	Radiación solar	0
18657	7	Sololá	701	Sololá	1	Sololá	4	Abril	2023-04-18T00:00:00	2024-11-08T23:00:00	2	Temperatura media	14.3
18658	7	Sololá	701	Sololá	1	Sololá	4	Abril	2023-04-18T00:00:00	2024-11-08T23:00:00	4	Temperatura máxima	15.1
18659	7	Sololá	701	Sololá	1	Sololá	4	Abril	2023-04-18T00:00:00	2024-11-08T23:00:00	3	Temperatura mínima	14.3
18660	7	Sololá	701	Sololá	1	Sololá	4	Abril	2023-04-18T00:00:00	2024-11-08T23:00:00	5	Humedad	87
18661	7	Sololá	701	Sololá	1	Sololá	4	Abril	2023-04-18T00:00:00	2024-11-08T23:00:00	6	Velocidad del viento	0
18662	7	Sololá	701	Sololá	1	Sololá	4	Abril	2023-04-18T00:00:00	2024-11-08T23:00:00	7	Dirección del viento	0
18663	7	Sololá	701	Sololá	1	Sololá	4	Abril	2023-04-18T00:00:00	2024-11-08T23:00:00	1	Precipitación	0
18664	7	Sololá	701	Sololá	1	Sololá	4	Abril	2023-04-18T00:00:00	2024-11-08T23:00:00	8	Radiación solar	0
18665	7	Sololá	701	Sololá	1	Sololá	4	Abril	2023-04-19T00:00:00	2024-11-08T00:00:00	2	Temperatura media	13.8
18666	7	Sololá	701	Sololá	1	Sololá	4	Abril	2023-04-19T00:00:00	2024-11-08T00:00:00	4	Temperatura máxima	14.3
18667	7	Sololá	701	Sololá	1	Sololá	4	Abril	2023-04-19T00:00:00	2024-11-08T00:00:00	3	Temperatura mínima	13.8
18668	7	Sololá	701	Sololá	1	Sololá	4	Abril	2023-04-19T00:00:00	2024-11-08T00:00:00	5	Humedad	87
18669	7	Sololá	701	Sololá	1	Sololá	4	Abril	2023-04-19T00:00:00	2024-11-08T00:00:00	6	Velocidad del viento	0
18670	7	Sololá	701	Sololá	1	Sololá	4	Abril	2023-04-19T00:00:00	2024-11-08T00:00:00	7	Dirección del viento	0
18671	7	Sololá	701	Sololá	1	Sololá	4	Abril	2023-04-19T00:00:00	2024-11-08T00:00:00	1	Precipitación	0
18672	7	Sololá	701	Sololá	1	Sololá	4	Abril	2023-04-19T00:00:00	2024-11-08T00:00:00	8	Radiación solar	0
18673	7	Sololá	701	Sololá	1	Sololá	4	Abril	2023-04-19T00:00:00	2024-11-08T01:00:00	2	Temperatura media	13.3
18674	7	Sololá	701	Sololá	1	Sololá	4	Abril	2023-04-19T00:00:00	2024-11-08T01:00:00	4	Temperatura máxima	13.8
18675	7	Sololá	701	Sololá	1	Sololá	4	Abril	2023-04-19T00:00:00	2024-11-08T01:00:00	3	Temperatura mínima	13.3
18676	7	Sololá	701	Sololá	1	Sololá	4	Abril	2023-04-19T00:00:00	2024-11-08T01:00:00	5	Humedad	86
18677	7	Sololá	701	Sololá	1	Sololá	4	Abril	2023-04-19T00:00:00	2024-11-08T01:00:00	6	Velocidad del viento	0
18678	7	Sololá	701	Sololá	1	Sololá	4	Abril	2023-04-19T00:00:00	2024-11-08T01:00:00	7	Dirección del viento	0
18679	7	Sololá	701	Sololá	1	Sololá	4	Abril	2023-04-19T00:00:00	2024-11-08T01:00:00	1	Precipitación	0
18680	7	Sololá	701	Sololá	1	Sololá	4	Abril	2023-04-19T00:00:00	2024-11-08T01:00:00	8	Radiación solar	0
18681	7	Sololá	701	Sololá	1	Sololá	4	Abril	2023-04-19T00:00:00	2024-11-08T02:00:00	2	Temperatura media	13.3
18682	7	Sololá	701	Sololá	1	Sololá	4	Abril	2023-04-19T00:00:00	2024-11-08T02:00:00	4	Temperatura máxima	13.6
18683	7	Sololá	701	Sololá	1	Sololá	4	Abril	2023-04-19T00:00:00	2024-11-08T02:00:00	3	Temperatura mínima	13.2
18684	7	Sololá	701	Sololá	1	Sololá	4	Abril	2023-04-19T00:00:00	2024-11-08T02:00:00	5	Humedad	85
18685	7	Sololá	701	Sololá	1	Sololá	4	Abril	2023-04-19T00:00:00	2024-11-08T02:00:00	6	Velocidad del viento	0
18686	7	Sololá	701	Sololá	1	Sololá	4	Abril	2023-04-19T00:00:00	2024-11-08T02:00:00	7	Dirección del viento	0
18687	7	Sololá	701	Sololá	1	Sololá	4	Abril	2023-04-19T00:00:00	2024-11-08T02:00:00	1	Precipitación	0
18688	7	Sololá	701	Sololá	1	Sololá	4	Abril	2023-04-19T00:00:00	2024-11-08T02:00:00	8	Radiación solar	0
18689	7	Sololá	701	Sololá	1	Sololá	4	Abril	2023-04-19T00:00:00	2024-11-08T03:00:00	2	Temperatura media	12.7
18690	7	Sololá	701	Sololá	1	Sololá	4	Abril	2023-04-19T00:00:00	2024-11-08T03:00:00	4	Temperatura máxima	13.3
18691	7	Sololá	701	Sololá	1	Sololá	4	Abril	2023-04-19T00:00:00	2024-11-08T03:00:00	3	Temperatura mínima	12.7
18692	7	Sololá	701	Sololá	1	Sololá	4	Abril	2023-04-19T00:00:00	2024-11-08T03:00:00	5	Humedad	84
18693	7	Sololá	701	Sololá	1	Sololá	4	Abril	2023-04-19T00:00:00	2024-11-08T03:00:00	6	Velocidad del viento	0
18694	7	Sololá	701	Sololá	1	Sololá	4	Abril	2023-04-19T00:00:00	2024-11-08T03:00:00	7	Dirección del viento	0
18695	7	Sololá	701	Sololá	1	Sololá	4	Abril	2023-04-19T00:00:00	2024-11-08T03:00:00	1	Precipitación	0
18696	7	Sololá	701	Sololá	1	Sololá	4	Abril	2023-04-19T00:00:00	2024-11-08T03:00:00	8	Radiación solar	0
18697	7	Sololá	701	Sololá	1	Sololá	4	Abril	2023-04-19T00:00:00	2024-11-08T04:00:00	2	Temperatura media	12.1
18698	7	Sololá	701	Sololá	1	Sololá	4	Abril	2023-04-19T00:00:00	2024-11-08T04:00:00	4	Temperatura máxima	12.7
18699	7	Sololá	701	Sololá	1	Sololá	4	Abril	2023-04-19T00:00:00	2024-11-08T04:00:00	3	Temperatura mínima	12.1
18700	7	Sololá	701	Sololá	1	Sololá	4	Abril	2023-04-19T00:00:00	2024-11-08T04:00:00	5	Humedad	81
18701	7	Sololá	701	Sololá	1	Sololá	4	Abril	2023-04-19T00:00:00	2024-11-08T04:00:00	6	Velocidad del viento	0
18702	7	Sololá	701	Sololá	1	Sololá	4	Abril	2023-04-19T00:00:00	2024-11-08T04:00:00	7	Dirección del viento	0
18703	7	Sololá	701	Sololá	1	Sololá	4	Abril	2023-04-19T00:00:00	2024-11-08T04:00:00	1	Precipitación	0
18704	7	Sololá	701	Sololá	1	Sololá	4	Abril	2023-04-19T00:00:00	2024-11-08T04:00:00	8	Radiación solar	0
18705	7	Sololá	701	Sololá	1	Sololá	4	Abril	2023-04-19T00:00:00	2024-11-08T05:00:00	2	Temperatura media	10.6
18706	7	Sololá	701	Sololá	1	Sololá	4	Abril	2023-04-19T00:00:00	2024-11-08T05:00:00	4	Temperatura máxima	12.1
18707	7	Sololá	701	Sololá	1	Sololá	4	Abril	2023-04-19T00:00:00	2024-11-08T05:00:00	3	Temperatura mínima	10.6
18708	7	Sololá	701	Sololá	1	Sololá	4	Abril	2023-04-19T00:00:00	2024-11-08T05:00:00	5	Humedad	82
18709	7	Sololá	701	Sololá	1	Sololá	4	Abril	2023-04-19T00:00:00	2024-11-08T05:00:00	6	Velocidad del viento	0
18710	7	Sololá	701	Sololá	1	Sololá	4	Abril	2023-04-19T00:00:00	2024-11-08T05:00:00	7	Dirección del viento	0
18711	7	Sololá	701	Sololá	1	Sololá	4	Abril	2023-04-19T00:00:00	2024-11-08T05:00:00	1	Precipitación	0
18712	7	Sololá	701	Sololá	1	Sololá	4	Abril	2023-04-19T00:00:00	2024-11-08T05:00:00	8	Radiación solar	0
18713	7	Sololá	701	Sololá	1	Sololá	4	Abril	2023-04-19T00:00:00	2024-11-08T06:00:00	2	Temperatura media	10.8
18714	7	Sololá	701	Sololá	1	Sololá	4	Abril	2023-04-19T00:00:00	2024-11-08T06:00:00	4	Temperatura máxima	10.9
18715	7	Sololá	701	Sololá	1	Sololá	4	Abril	2023-04-19T00:00:00	2024-11-08T06:00:00	3	Temperatura mínima	10.2
18716	7	Sololá	701	Sololá	1	Sololá	4	Abril	2023-04-19T00:00:00	2024-11-08T06:00:00	5	Humedad	77
18717	7	Sololá	701	Sololá	1	Sololá	4	Abril	2023-04-19T00:00:00	2024-11-08T06:00:00	6	Velocidad del viento	0
18718	7	Sololá	701	Sololá	1	Sololá	4	Abril	2023-04-19T00:00:00	2024-11-08T06:00:00	7	Dirección del viento	0
18719	7	Sololá	701	Sololá	1	Sololá	4	Abril	2023-04-19T00:00:00	2024-11-08T06:00:00	1	Precipitación	0
18720	7	Sololá	701	Sololá	1	Sololá	4	Abril	2023-04-19T00:00:00	2024-11-08T06:00:00	8	Radiación solar	0
18721	7	Sololá	701	Sololá	1	Sololá	4	Abril	2023-04-19T00:00:00	2024-11-08T07:00:00	2	Temperatura media	10.8
18722	7	Sololá	701	Sololá	1	Sololá	4	Abril	2023-04-19T00:00:00	2024-11-08T07:00:00	4	Temperatura máxima	11.1
18723	7	Sololá	701	Sololá	1	Sololá	4	Abril	2023-04-19T00:00:00	2024-11-08T07:00:00	3	Temperatura mínima	10.6
18724	7	Sololá	701	Sololá	1	Sololá	4	Abril	2023-04-19T00:00:00	2024-11-08T07:00:00	5	Humedad	72
18725	7	Sololá	701	Sololá	1	Sololá	4	Abril	2023-04-19T00:00:00	2024-11-08T07:00:00	6	Velocidad del viento	1.6
18726	7	Sololá	701	Sololá	1	Sololá	4	Abril	2023-04-19T00:00:00	2024-11-08T07:00:00	7	Dirección del viento	1.61
18727	7	Sololá	701	Sololá	1	Sololá	4	Abril	2023-04-19T00:00:00	2024-11-08T07:00:00	1	Precipitación	0
18728	7	Sololá	701	Sololá	1	Sololá	4	Abril	2023-04-19T00:00:00	2024-11-08T07:00:00	8	Radiación solar	1
18729	7	Sololá	701	Sololá	1	Sololá	4	Abril	2023-04-19T00:00:00	2024-11-08T08:00:00	2	Temperatura media	12.3
18730	7	Sololá	701	Sololá	1	Sololá	4	Abril	2023-04-19T00:00:00	2024-11-08T08:00:00	4	Temperatura máxima	12.3
18731	7	Sololá	701	Sololá	1	Sololá	4	Abril	2023-04-19T00:00:00	2024-11-08T08:00:00	3	Temperatura mínima	10.8
18732	7	Sololá	701	Sololá	1	Sololá	4	Abril	2023-04-19T00:00:00	2024-11-08T08:00:00	5	Humedad	63
18733	7	Sololá	701	Sololá	1	Sololá	4	Abril	2023-04-19T00:00:00	2024-11-08T08:00:00	6	Velocidad del viento	1.6
18734	7	Sololá	701	Sololá	1	Sololá	4	Abril	2023-04-19T00:00:00	2024-11-08T08:00:00	7	Dirección del viento	1.61
18735	7	Sololá	701	Sololá	1	Sololá	4	Abril	2023-04-19T00:00:00	2024-11-08T08:00:00	1	Precipitación	0
18736	7	Sololá	701	Sololá	1	Sololá	4	Abril	2023-04-19T00:00:00	2024-11-08T08:00:00	8	Radiación solar	14
18737	7	Sololá	701	Sololá	1	Sololá	4	Abril	2023-04-19T00:00:00	2024-11-08T09:00:00	2	Temperatura media	16.8
18738	7	Sololá	701	Sololá	1	Sololá	4	Abril	2023-04-19T00:00:00	2024-11-08T09:00:00	4	Temperatura máxima	16.8
18739	7	Sololá	701	Sololá	1	Sololá	4	Abril	2023-04-19T00:00:00	2024-11-08T09:00:00	3	Temperatura mínima	12.3
18740	7	Sololá	701	Sololá	1	Sololá	4	Abril	2023-04-19T00:00:00	2024-11-08T09:00:00	5	Humedad	54
18741	7	Sololá	701	Sololá	1	Sololá	4	Abril	2023-04-19T00:00:00	2024-11-08T09:00:00	6	Velocidad del viento	0
18742	7	Sololá	701	Sololá	1	Sololá	4	Abril	2023-04-19T00:00:00	2024-11-08T09:00:00	7	Dirección del viento	0
18743	7	Sololá	701	Sololá	1	Sololá	4	Abril	2023-04-19T00:00:00	2024-11-08T09:00:00	1	Precipitación	0
18744	7	Sololá	701	Sololá	1	Sololá	4	Abril	2023-04-19T00:00:00	2024-11-08T09:00:00	8	Radiación solar	270
18745	7	Sololá	701	Sololá	1	Sololá	4	Abril	2023-04-19T00:00:00	2024-11-08T10:00:00	2	Temperatura media	20.2
18746	7	Sololá	701	Sololá	1	Sololá	4	Abril	2023-04-19T00:00:00	2024-11-08T10:00:00	4	Temperatura máxima	20.2
18747	7	Sololá	701	Sololá	1	Sololá	4	Abril	2023-04-19T00:00:00	2024-11-08T10:00:00	3	Temperatura mínima	16.8
18748	7	Sololá	701	Sololá	1	Sololá	4	Abril	2023-04-19T00:00:00	2024-11-08T10:00:00	5	Humedad	47
18749	7	Sololá	701	Sololá	1	Sololá	4	Abril	2023-04-19T00:00:00	2024-11-08T10:00:00	6	Velocidad del viento	0
18750	7	Sololá	701	Sololá	1	Sololá	4	Abril	2023-04-19T00:00:00	2024-11-08T10:00:00	7	Dirección del viento	0
18751	7	Sololá	701	Sololá	1	Sololá	4	Abril	2023-04-19T00:00:00	2024-11-08T10:00:00	1	Precipitación	0
18752	7	Sololá	701	Sololá	1	Sololá	4	Abril	2023-04-19T00:00:00	2024-11-08T10:00:00	8	Radiación solar	623
18753	7	Sololá	701	Sololá	1	Sololá	4	Abril	2023-04-19T00:00:00	2024-11-08T11:00:00	2	Temperatura media	21.3
18754	7	Sololá	701	Sololá	1	Sololá	4	Abril	2023-04-19T00:00:00	2024-11-08T11:00:00	4	Temperatura máxima	21.3
18755	7	Sololá	701	Sololá	1	Sololá	4	Abril	2023-04-19T00:00:00	2024-11-08T11:00:00	3	Temperatura mínima	20.2
18756	7	Sololá	701	Sololá	1	Sololá	4	Abril	2023-04-19T00:00:00	2024-11-08T11:00:00	5	Humedad	48
18757	7	Sololá	701	Sololá	1	Sololá	4	Abril	2023-04-19T00:00:00	2024-11-08T11:00:00	6	Velocidad del viento	0
18758	7	Sololá	701	Sololá	1	Sololá	4	Abril	2023-04-19T00:00:00	2024-11-08T11:00:00	7	Dirección del viento	0
18759	7	Sololá	701	Sololá	1	Sololá	4	Abril	2023-04-19T00:00:00	2024-11-08T11:00:00	1	Precipitación	0
18760	7	Sololá	701	Sololá	1	Sololá	4	Abril	2023-04-19T00:00:00	2024-11-08T11:00:00	8	Radiación solar	814
18761	7	Sololá	701	Sololá	1	Sololá	4	Abril	2023-04-19T00:00:00	2024-11-08T12:00:00	2	Temperatura media	21.7
18762	7	Sololá	701	Sololá	1	Sololá	4	Abril	2023-04-19T00:00:00	2024-11-08T12:00:00	4	Temperatura máxima	22
18763	7	Sololá	701	Sololá	1	Sololá	4	Abril	2023-04-19T00:00:00	2024-11-08T12:00:00	3	Temperatura mínima	21.3
18764	7	Sololá	701	Sololá	1	Sololá	4	Abril	2023-04-19T00:00:00	2024-11-08T12:00:00	5	Humedad	58
18765	7	Sololá	701	Sololá	1	Sololá	4	Abril	2023-04-19T00:00:00	2024-11-08T12:00:00	6	Velocidad del viento	0
18766	7	Sololá	701	Sololá	1	Sololá	4	Abril	2023-04-19T00:00:00	2024-11-08T12:00:00	7	Dirección del viento	0
18767	7	Sololá	701	Sololá	1	Sololá	4	Abril	2023-04-19T00:00:00	2024-11-08T12:00:00	1	Precipitación	0
18768	7	Sololá	701	Sololá	1	Sololá	4	Abril	2023-04-19T00:00:00	2024-11-08T12:00:00	8	Radiación solar	946
18769	7	Sololá	701	Sololá	1	Sololá	4	Abril	2023-04-19T00:00:00	2024-11-08T13:00:00	2	Temperatura media	21.8
18770	7	Sololá	701	Sololá	1	Sololá	4	Abril	2023-04-19T00:00:00	2024-11-08T13:00:00	4	Temperatura máxima	22.1
18771	7	Sololá	701	Sololá	1	Sololá	4	Abril	2023-04-19T00:00:00	2024-11-08T13:00:00	3	Temperatura mínima	21.7
18772	7	Sololá	701	Sololá	1	Sololá	4	Abril	2023-04-19T00:00:00	2024-11-08T13:00:00	5	Humedad	63
18773	7	Sololá	701	Sololá	1	Sololá	4	Abril	2023-04-19T00:00:00	2024-11-08T13:00:00	6	Velocidad del viento	0
18774	7	Sololá	701	Sololá	1	Sololá	4	Abril	2023-04-19T00:00:00	2024-11-08T13:00:00	7	Dirección del viento	0
18775	7	Sololá	701	Sololá	1	Sololá	4	Abril	2023-04-19T00:00:00	2024-11-08T13:00:00	1	Precipitación	0
18776	7	Sololá	701	Sololá	1	Sololá	4	Abril	2023-04-19T00:00:00	2024-11-08T13:00:00	8	Radiación solar	1001
18777	7	Sololá	701	Sololá	1	Sololá	4	Abril	2023-04-19T00:00:00	2024-11-08T14:00:00	2	Temperatura media	21.9
18778	7	Sololá	701	Sololá	1	Sololá	4	Abril	2023-04-19T00:00:00	2024-11-08T14:00:00	4	Temperatura máxima	22.3
18779	7	Sololá	701	Sololá	1	Sololá	4	Abril	2023-04-19T00:00:00	2024-11-08T14:00:00	3	Temperatura mínima	21.8
18780	7	Sololá	701	Sololá	1	Sololá	4	Abril	2023-04-19T00:00:00	2024-11-08T14:00:00	5	Humedad	70
18781	7	Sololá	701	Sololá	1	Sololá	4	Abril	2023-04-19T00:00:00	2024-11-08T14:00:00	6	Velocidad del viento	1.6
18782	7	Sololá	701	Sololá	1	Sololá	4	Abril	2023-04-19T00:00:00	2024-11-08T14:00:00	7	Dirección del viento	1.61
18783	7	Sololá	701	Sololá	1	Sololá	4	Abril	2023-04-19T00:00:00	2024-11-08T14:00:00	1	Precipitación	0
18784	7	Sololá	701	Sololá	1	Sololá	4	Abril	2023-04-19T00:00:00	2024-11-08T14:00:00	8	Radiación solar	975
18785	7	Sololá	701	Sololá	1	Sololá	4	Abril	2023-04-19T00:00:00	2024-11-08T15:00:00	2	Temperatura media	21.9
18786	7	Sololá	701	Sololá	1	Sololá	4	Abril	2023-04-19T00:00:00	2024-11-08T15:00:00	4	Temperatura máxima	22.1
18787	7	Sololá	701	Sololá	1	Sololá	4	Abril	2023-04-19T00:00:00	2024-11-08T15:00:00	3	Temperatura mínima	21.9
18788	7	Sololá	701	Sololá	1	Sololá	4	Abril	2023-04-19T00:00:00	2024-11-08T15:00:00	5	Humedad	72
18789	7	Sololá	701	Sololá	1	Sololá	4	Abril	2023-04-19T00:00:00	2024-11-08T15:00:00	6	Velocidad del viento	1.6
18790	7	Sololá	701	Sololá	1	Sololá	4	Abril	2023-04-19T00:00:00	2024-11-08T15:00:00	7	Dirección del viento	1.61
18791	7	Sololá	701	Sololá	1	Sololá	4	Abril	2023-04-19T00:00:00	2024-11-08T15:00:00	1	Precipitación	0
18792	7	Sololá	701	Sololá	1	Sololá	4	Abril	2023-04-19T00:00:00	2024-11-08T15:00:00	8	Radiación solar	233
18793	7	Sololá	701	Sololá	1	Sololá	4	Abril	2023-04-19T00:00:00	2024-11-08T16:00:00	2	Temperatura media	21.5
18794	7	Sololá	701	Sololá	1	Sololá	4	Abril	2023-04-19T00:00:00	2024-11-08T16:00:00	4	Temperatura máxima	22.2
18795	7	Sololá	701	Sololá	1	Sololá	4	Abril	2023-04-19T00:00:00	2024-11-08T16:00:00	3	Temperatura mínima	21.1
18796	7	Sololá	701	Sololá	1	Sololá	4	Abril	2023-04-19T00:00:00	2024-11-08T16:00:00	5	Humedad	73
18797	7	Sololá	701	Sololá	1	Sololá	4	Abril	2023-04-19T00:00:00	2024-11-08T16:00:00	6	Velocidad del viento	0
18798	7	Sololá	701	Sololá	1	Sololá	4	Abril	2023-04-19T00:00:00	2024-11-08T16:00:00	7	Dirección del viento	0
18799	7	Sololá	701	Sololá	1	Sololá	4	Abril	2023-04-19T00:00:00	2024-11-08T16:00:00	1	Precipitación	0
18800	7	Sololá	701	Sololá	1	Sololá	4	Abril	2023-04-19T00:00:00	2024-11-08T16:00:00	8	Radiación solar	220
18801	7	Sololá	701	Sololá	1	Sololá	4	Abril	2023-04-19T00:00:00	2024-11-08T17:00:00	2	Temperatura media	19.6
18802	7	Sololá	701	Sololá	1	Sololá	4	Abril	2023-04-19T00:00:00	2024-11-08T17:00:00	4	Temperatura máxima	21.5
18803	7	Sololá	701	Sololá	1	Sololá	4	Abril	2023-04-19T00:00:00	2024-11-08T17:00:00	3	Temperatura mínima	19.6
18804	7	Sololá	701	Sololá	1	Sololá	4	Abril	2023-04-19T00:00:00	2024-11-08T17:00:00	5	Humedad	78
18805	7	Sololá	701	Sololá	1	Sololá	4	Abril	2023-04-19T00:00:00	2024-11-08T17:00:00	6	Velocidad del viento	0
18806	7	Sololá	701	Sololá	1	Sololá	4	Abril	2023-04-19T00:00:00	2024-11-08T17:00:00	7	Dirección del viento	0
18807	7	Sololá	701	Sololá	1	Sololá	4	Abril	2023-04-19T00:00:00	2024-11-08T17:00:00	1	Precipitación	0
18808	7	Sololá	701	Sololá	1	Sololá	4	Abril	2023-04-19T00:00:00	2024-11-08T17:00:00	8	Radiación solar	151
18809	7	Sololá	701	Sololá	1	Sololá	4	Abril	2023-04-19T00:00:00	2024-11-08T18:00:00	2	Temperatura media	18.6
18810	7	Sololá	701	Sololá	1	Sololá	4	Abril	2023-04-19T00:00:00	2024-11-08T18:00:00	4	Temperatura máxima	19.6
18811	7	Sololá	701	Sololá	1	Sololá	4	Abril	2023-04-19T00:00:00	2024-11-08T18:00:00	3	Temperatura mínima	18.6
18812	7	Sololá	701	Sololá	1	Sololá	4	Abril	2023-04-19T00:00:00	2024-11-08T18:00:00	5	Humedad	83
18813	7	Sololá	701	Sololá	1	Sololá	4	Abril	2023-04-19T00:00:00	2024-11-08T18:00:00	6	Velocidad del viento	0
18814	7	Sololá	701	Sololá	1	Sololá	4	Abril	2023-04-19T00:00:00	2024-11-08T18:00:00	7	Dirección del viento	0
18815	7	Sololá	701	Sololá	1	Sololá	4	Abril	2023-04-19T00:00:00	2024-11-08T18:00:00	1	Precipitación	0
18816	7	Sololá	701	Sololá	1	Sololá	4	Abril	2023-04-19T00:00:00	2024-11-08T18:00:00	8	Radiación solar	88
18817	7	Sololá	701	Sololá	1	Sololá	4	Abril	2023-04-19T00:00:00	2024-11-08T19:00:00	2	Temperatura media	17.8
18818	7	Sololá	701	Sololá	1	Sololá	4	Abril	2023-04-19T00:00:00	2024-11-08T19:00:00	4	Temperatura máxima	18.6
18819	7	Sololá	701	Sololá	1	Sololá	4	Abril	2023-04-19T00:00:00	2024-11-08T19:00:00	3	Temperatura mínima	17.8
18820	7	Sololá	701	Sololá	1	Sololá	4	Abril	2023-04-19T00:00:00	2024-11-08T19:00:00	5	Humedad	90
18821	7	Sololá	701	Sololá	1	Sololá	4	Abril	2023-04-19T00:00:00	2024-11-08T19:00:00	6	Velocidad del viento	0
18822	7	Sololá	701	Sololá	1	Sololá	4	Abril	2023-04-19T00:00:00	2024-11-08T19:00:00	7	Dirección del viento	0
18823	7	Sololá	701	Sololá	1	Sololá	4	Abril	2023-04-19T00:00:00	2024-11-08T19:00:00	1	Precipitación	0
18824	7	Sololá	701	Sololá	1	Sololá	4	Abril	2023-04-19T00:00:00	2024-11-08T19:00:00	8	Radiación solar	0
18825	7	Sololá	701	Sololá	1	Sololá	4	Abril	2023-04-19T00:00:00	2024-11-08T20:00:00	2	Temperatura media	16.9
18826	7	Sololá	701	Sololá	1	Sololá	4	Abril	2023-04-19T00:00:00	2024-11-08T20:00:00	4	Temperatura máxima	17.8
18827	7	Sololá	701	Sololá	1	Sololá	4	Abril	2023-04-19T00:00:00	2024-11-08T20:00:00	3	Temperatura mínima	16.8
18828	7	Sololá	701	Sololá	1	Sololá	4	Abril	2023-04-19T00:00:00	2024-11-08T20:00:00	5	Humedad	92
18829	7	Sololá	701	Sololá	1	Sololá	4	Abril	2023-04-19T00:00:00	2024-11-08T20:00:00	6	Velocidad del viento	0
18830	7	Sololá	701	Sololá	1	Sololá	4	Abril	2023-04-19T00:00:00	2024-11-08T20:00:00	7	Dirección del viento	0
18831	7	Sololá	701	Sololá	1	Sololá	4	Abril	2023-04-19T00:00:00	2024-11-08T20:00:00	1	Precipitación	0
18832	7	Sololá	701	Sololá	1	Sololá	4	Abril	2023-04-19T00:00:00	2024-11-08T20:00:00	8	Radiación solar	0
18833	7	Sololá	701	Sololá	1	Sololá	4	Abril	2023-04-19T00:00:00	2024-11-08T21:00:00	2	Temperatura media	16.7
18834	7	Sololá	701	Sololá	1	Sololá	4	Abril	2023-04-19T00:00:00	2024-11-08T21:00:00	4	Temperatura máxima	16.9
18835	7	Sololá	701	Sololá	1	Sololá	4	Abril	2023-04-19T00:00:00	2024-11-08T21:00:00	3	Temperatura mínima	16.7
18836	7	Sololá	701	Sololá	1	Sololá	4	Abril	2023-04-19T00:00:00	2024-11-08T21:00:00	5	Humedad	92
18837	7	Sololá	701	Sololá	1	Sololá	4	Abril	2023-04-19T00:00:00	2024-11-08T21:00:00	6	Velocidad del viento	0
18838	7	Sololá	701	Sololá	1	Sololá	4	Abril	2023-04-19T00:00:00	2024-11-08T21:00:00	7	Dirección del viento	0
18839	7	Sololá	701	Sololá	1	Sololá	4	Abril	2023-04-19T00:00:00	2024-11-08T21:00:00	1	Precipitación	0
18840	7	Sololá	701	Sololá	1	Sololá	4	Abril	2023-04-19T00:00:00	2024-11-08T21:00:00	8	Radiación solar	0
18841	7	Sololá	701	Sololá	1	Sololá	4	Abril	2023-04-19T00:00:00	2024-11-08T22:00:00	2	Temperatura media	16.2
18842	7	Sololá	701	Sololá	1	Sololá	4	Abril	2023-04-19T00:00:00	2024-11-08T22:00:00	4	Temperatura máxima	16.7
18843	7	Sololá	701	Sololá	1	Sololá	4	Abril	2023-04-19T00:00:00	2024-11-08T22:00:00	3	Temperatura mínima	16.2
18844	7	Sololá	701	Sololá	1	Sololá	4	Abril	2023-04-19T00:00:00	2024-11-08T22:00:00	5	Humedad	92
18845	7	Sololá	701	Sololá	1	Sololá	4	Abril	2023-04-19T00:00:00	2024-11-08T22:00:00	6	Velocidad del viento	0
18846	7	Sololá	701	Sololá	1	Sololá	4	Abril	2023-04-19T00:00:00	2024-11-08T22:00:00	7	Dirección del viento	0
18847	7	Sololá	701	Sololá	1	Sololá	4	Abril	2023-04-19T00:00:00	2024-11-08T22:00:00	1	Precipitación	0
18848	7	Sololá	701	Sololá	1	Sololá	4	Abril	2023-04-19T00:00:00	2024-11-08T22:00:00	8	Radiación solar	0
18849	7	Sololá	701	Sololá	1	Sololá	4	Abril	2023-04-19T00:00:00	2024-11-08T23:00:00	2	Temperatura media	15.9
18850	7	Sololá	701	Sololá	1	Sololá	4	Abril	2023-04-19T00:00:00	2024-11-08T23:00:00	4	Temperatura máxima	16.2
18851	7	Sololá	701	Sololá	1	Sololá	4	Abril	2023-04-19T00:00:00	2024-11-08T23:00:00	3	Temperatura mínima	15.6
18852	7	Sololá	701	Sololá	1	Sololá	4	Abril	2023-04-19T00:00:00	2024-11-08T23:00:00	5	Humedad	91
18853	7	Sololá	701	Sololá	1	Sololá	4	Abril	2023-04-19T00:00:00	2024-11-08T23:00:00	6	Velocidad del viento	0
18854	7	Sololá	701	Sololá	1	Sololá	4	Abril	2023-04-19T00:00:00	2024-11-08T23:00:00	7	Dirección del viento	0
18855	7	Sololá	701	Sololá	1	Sololá	4	Abril	2023-04-19T00:00:00	2024-11-08T23:00:00	1	Precipitación	0
18856	7	Sololá	701	Sololá	1	Sololá	4	Abril	2023-04-19T00:00:00	2024-11-08T23:00:00	8	Radiación solar	0
18857	7	Sololá	701	Sololá	1	Sololá	4	Abril	2023-04-20T00:00:00	2024-11-08T00:00:00	2	Temperatura media	14.7
18858	7	Sololá	701	Sololá	1	Sololá	4	Abril	2023-04-20T00:00:00	2024-11-08T00:00:00	4	Temperatura máxima	15.9
18859	7	Sololá	701	Sololá	1	Sololá	4	Abril	2023-04-20T00:00:00	2024-11-08T00:00:00	3	Temperatura mínima	14.7
18860	7	Sololá	701	Sololá	1	Sololá	4	Abril	2023-04-20T00:00:00	2024-11-08T00:00:00	5	Humedad	86
18861	7	Sololá	701	Sololá	1	Sololá	4	Abril	2023-04-20T00:00:00	2024-11-08T00:00:00	6	Velocidad del viento	0
18862	7	Sololá	701	Sololá	1	Sololá	4	Abril	2023-04-20T00:00:00	2024-11-08T00:00:00	7	Dirección del viento	0
18863	7	Sololá	701	Sololá	1	Sololá	4	Abril	2023-04-20T00:00:00	2024-11-08T00:00:00	1	Precipitación	0
18864	7	Sololá	701	Sololá	1	Sololá	4	Abril	2023-04-20T00:00:00	2024-11-08T00:00:00	8	Radiación solar	0
18865	7	Sololá	701	Sololá	1	Sololá	4	Abril	2023-04-20T00:00:00	2024-11-08T01:00:00	2	Temperatura media	14
18866	7	Sololá	701	Sololá	1	Sololá	4	Abril	2023-04-20T00:00:00	2024-11-08T01:00:00	4	Temperatura máxima	14.7
18867	7	Sololá	701	Sololá	1	Sololá	4	Abril	2023-04-20T00:00:00	2024-11-08T01:00:00	3	Temperatura mínima	14
18868	7	Sololá	701	Sololá	1	Sololá	4	Abril	2023-04-20T00:00:00	2024-11-08T01:00:00	5	Humedad	86
18869	7	Sololá	701	Sololá	1	Sololá	4	Abril	2023-04-20T00:00:00	2024-11-08T01:00:00	6	Velocidad del viento	0
18870	7	Sololá	701	Sololá	1	Sololá	4	Abril	2023-04-20T00:00:00	2024-11-08T01:00:00	7	Dirección del viento	0
18871	7	Sololá	701	Sololá	1	Sololá	4	Abril	2023-04-20T00:00:00	2024-11-08T01:00:00	1	Precipitación	0
18872	7	Sololá	701	Sololá	1	Sololá	4	Abril	2023-04-20T00:00:00	2024-11-08T01:00:00	8	Radiación solar	0
18873	7	Sololá	701	Sololá	1	Sololá	4	Abril	2023-04-20T00:00:00	2024-11-08T02:00:00	2	Temperatura media	13.3
18874	7	Sololá	701	Sololá	1	Sololá	4	Abril	2023-04-20T00:00:00	2024-11-08T02:00:00	4	Temperatura máxima	14.1
18875	7	Sololá	701	Sololá	1	Sololá	4	Abril	2023-04-20T00:00:00	2024-11-08T02:00:00	3	Temperatura mínima	13.3
18876	7	Sololá	701	Sololá	1	Sololá	4	Abril	2023-04-20T00:00:00	2024-11-08T02:00:00	5	Humedad	86
18877	7	Sololá	701	Sololá	1	Sololá	4	Abril	2023-04-20T00:00:00	2024-11-08T02:00:00	6	Velocidad del viento	0
18878	7	Sololá	701	Sololá	1	Sololá	4	Abril	2023-04-20T00:00:00	2024-11-08T02:00:00	7	Dirección del viento	0
18879	7	Sololá	701	Sololá	1	Sololá	4	Abril	2023-04-20T00:00:00	2024-11-08T02:00:00	1	Precipitación	0
18880	7	Sololá	701	Sololá	1	Sololá	4	Abril	2023-04-20T00:00:00	2024-11-08T02:00:00	8	Radiación solar	0
18881	7	Sololá	701	Sololá	1	Sololá	4	Abril	2023-04-20T00:00:00	2024-11-08T03:00:00	2	Temperatura media	12.8
18882	7	Sololá	701	Sololá	1	Sololá	4	Abril	2023-04-20T00:00:00	2024-11-08T03:00:00	4	Temperatura máxima	13.3
18883	7	Sololá	701	Sololá	1	Sololá	4	Abril	2023-04-20T00:00:00	2024-11-08T03:00:00	3	Temperatura mínima	12.8
18884	7	Sololá	701	Sololá	1	Sololá	4	Abril	2023-04-20T00:00:00	2024-11-08T03:00:00	5	Humedad	87
18885	7	Sololá	701	Sololá	1	Sololá	4	Abril	2023-04-20T00:00:00	2024-11-08T03:00:00	6	Velocidad del viento	0
18886	7	Sololá	701	Sololá	1	Sololá	4	Abril	2023-04-20T00:00:00	2024-11-08T03:00:00	7	Dirección del viento	0
18887	7	Sololá	701	Sololá	1	Sololá	4	Abril	2023-04-20T00:00:00	2024-11-08T03:00:00	1	Precipitación	0
18888	7	Sololá	701	Sololá	1	Sololá	4	Abril	2023-04-20T00:00:00	2024-11-08T03:00:00	8	Radiación solar	0
18889	7	Sololá	701	Sololá	1	Sololá	4	Abril	2023-04-20T00:00:00	2024-11-08T04:00:00	2	Temperatura media	12.6
18890	7	Sololá	701	Sololá	1	Sololá	4	Abril	2023-04-20T00:00:00	2024-11-08T04:00:00	4	Temperatura máxima	12.8
18891	7	Sololá	701	Sololá	1	Sololá	4	Abril	2023-04-20T00:00:00	2024-11-08T04:00:00	3	Temperatura mínima	12.6
18892	7	Sololá	701	Sololá	1	Sololá	4	Abril	2023-04-20T00:00:00	2024-11-08T04:00:00	5	Humedad	85
18893	7	Sololá	701	Sololá	1	Sololá	4	Abril	2023-04-20T00:00:00	2024-11-08T04:00:00	6	Velocidad del viento	0
18894	7	Sololá	701	Sololá	1	Sololá	4	Abril	2023-04-20T00:00:00	2024-11-08T04:00:00	7	Dirección del viento	0
18895	7	Sololá	701	Sololá	1	Sololá	4	Abril	2023-04-20T00:00:00	2024-11-08T04:00:00	1	Precipitación	0
18896	7	Sololá	701	Sololá	1	Sololá	4	Abril	2023-04-20T00:00:00	2024-11-08T04:00:00	8	Radiación solar	0
18897	7	Sololá	701	Sololá	1	Sololá	4	Abril	2023-04-20T00:00:00	2024-11-08T05:00:00	2	Temperatura media	11.6
18898	7	Sololá	701	Sololá	1	Sololá	4	Abril	2023-04-20T00:00:00	2024-11-08T05:00:00	4	Temperatura máxima	12.7
18899	7	Sololá	701	Sololá	1	Sololá	4	Abril	2023-04-20T00:00:00	2024-11-08T05:00:00	3	Temperatura mínima	11.5
18900	7	Sololá	701	Sololá	1	Sololá	4	Abril	2023-04-20T00:00:00	2024-11-08T05:00:00	5	Humedad	88
18901	7	Sololá	701	Sololá	1	Sololá	4	Abril	2023-04-20T00:00:00	2024-11-08T05:00:00	6	Velocidad del viento	0
18902	7	Sololá	701	Sololá	1	Sololá	4	Abril	2023-04-20T00:00:00	2024-11-08T05:00:00	7	Dirección del viento	0
18903	7	Sololá	701	Sololá	1	Sololá	4	Abril	2023-04-20T00:00:00	2024-11-08T05:00:00	1	Precipitación	0
18904	7	Sololá	701	Sololá	1	Sololá	4	Abril	2023-04-20T00:00:00	2024-11-08T05:00:00	8	Radiación solar	0
18905	7	Sololá	701	Sololá	1	Sololá	4	Abril	2023-04-20T00:00:00	2024-11-08T06:00:00	2	Temperatura media	11.5
18906	7	Sololá	701	Sololá	1	Sololá	4	Abril	2023-04-20T00:00:00	2024-11-08T06:00:00	4	Temperatura máxima	11.7
18907	7	Sololá	701	Sololá	1	Sololá	4	Abril	2023-04-20T00:00:00	2024-11-08T06:00:00	3	Temperatura mínima	11.2
18908	7	Sololá	701	Sololá	1	Sololá	4	Abril	2023-04-20T00:00:00	2024-11-08T06:00:00	5	Humedad	74
18909	7	Sololá	701	Sololá	1	Sololá	4	Abril	2023-04-20T00:00:00	2024-11-08T06:00:00	6	Velocidad del viento	0
18910	7	Sololá	701	Sololá	1	Sololá	4	Abril	2023-04-20T00:00:00	2024-11-08T06:00:00	7	Dirección del viento	0
18911	7	Sololá	701	Sololá	1	Sololá	4	Abril	2023-04-20T00:00:00	2024-11-08T06:00:00	1	Precipitación	0
18912	7	Sololá	701	Sololá	1	Sololá	4	Abril	2023-04-20T00:00:00	2024-11-08T06:00:00	8	Radiación solar	0
18913	7	Sololá	701	Sololá	1	Sololá	4	Abril	2023-04-20T00:00:00	2024-11-08T07:00:00	2	Temperatura media	10.8
18914	7	Sololá	701	Sololá	1	Sololá	4	Abril	2023-04-20T00:00:00	2024-11-08T07:00:00	4	Temperatura máxima	11.8
18915	7	Sololá	701	Sololá	1	Sololá	4	Abril	2023-04-20T00:00:00	2024-11-08T07:00:00	3	Temperatura mínima	10.8
18916	7	Sololá	701	Sololá	1	Sololá	4	Abril	2023-04-20T00:00:00	2024-11-08T07:00:00	5	Humedad	67
18917	7	Sololá	701	Sololá	1	Sololá	4	Abril	2023-04-20T00:00:00	2024-11-08T07:00:00	6	Velocidad del viento	1.6
18918	7	Sololá	701	Sololá	1	Sololá	4	Abril	2023-04-20T00:00:00	2024-11-08T07:00:00	7	Dirección del viento	1.61
18919	7	Sololá	701	Sololá	1	Sololá	4	Abril	2023-04-20T00:00:00	2024-11-08T07:00:00	1	Precipitación	0
18920	7	Sololá	701	Sololá	1	Sololá	4	Abril	2023-04-20T00:00:00	2024-11-08T07:00:00	8	Radiación solar	0
18921	7	Sololá	701	Sololá	1	Sololá	4	Abril	2023-04-20T00:00:00	2024-11-08T08:00:00	2	Temperatura media	11.8
18922	7	Sololá	701	Sololá	1	Sololá	4	Abril	2023-04-20T00:00:00	2024-11-08T08:00:00	4	Temperatura máxima	11.8
18923	7	Sololá	701	Sololá	1	Sololá	4	Abril	2023-04-20T00:00:00	2024-11-08T08:00:00	3	Temperatura mínima	10.8
18924	7	Sololá	701	Sololá	1	Sololá	4	Abril	2023-04-20T00:00:00	2024-11-08T08:00:00	5	Humedad	67
18925	7	Sololá	701	Sololá	1	Sololá	4	Abril	2023-04-20T00:00:00	2024-11-08T08:00:00	6	Velocidad del viento	1.6
18926	7	Sololá	701	Sololá	1	Sololá	4	Abril	2023-04-20T00:00:00	2024-11-08T08:00:00	7	Dirección del viento	1.61
18927	7	Sololá	701	Sololá	1	Sololá	4	Abril	2023-04-20T00:00:00	2024-11-08T08:00:00	1	Precipitación	0
18928	7	Sololá	701	Sololá	1	Sololá	4	Abril	2023-04-20T00:00:00	2024-11-08T08:00:00	8	Radiación solar	39
18929	7	Sololá	701	Sololá	1	Sololá	4	Abril	2023-04-20T00:00:00	2024-11-08T09:00:00	2	Temperatura media	14.9
18930	7	Sololá	701	Sololá	1	Sololá	4	Abril	2023-04-20T00:00:00	2024-11-08T09:00:00	4	Temperatura máxima	14.9
18931	7	Sololá	701	Sololá	1	Sololá	4	Abril	2023-04-20T00:00:00	2024-11-08T09:00:00	3	Temperatura mínima	11.8
18932	7	Sololá	701	Sololá	1	Sololá	4	Abril	2023-04-20T00:00:00	2024-11-08T09:00:00	5	Humedad	60
18933	7	Sololá	701	Sololá	1	Sololá	4	Abril	2023-04-20T00:00:00	2024-11-08T09:00:00	6	Velocidad del viento	0
18934	7	Sololá	701	Sololá	1	Sololá	4	Abril	2023-04-20T00:00:00	2024-11-08T09:00:00	7	Dirección del viento	0
18935	7	Sololá	701	Sololá	1	Sololá	4	Abril	2023-04-20T00:00:00	2024-11-08T09:00:00	1	Precipitación	0
18936	7	Sololá	701	Sololá	1	Sololá	4	Abril	2023-04-20T00:00:00	2024-11-08T09:00:00	8	Radiación solar	157
18937	7	Sololá	701	Sololá	1	Sololá	4	Abril	2023-04-20T00:00:00	2024-11-08T10:00:00	2	Temperatura media	18.2
18938	7	Sololá	701	Sololá	1	Sololá	4	Abril	2023-04-20T00:00:00	2024-11-08T10:00:00	4	Temperatura máxima	18.2
18939	7	Sololá	701	Sololá	1	Sololá	4	Abril	2023-04-20T00:00:00	2024-11-08T10:00:00	3	Temperatura mínima	14.9
18940	7	Sololá	701	Sololá	1	Sololá	4	Abril	2023-04-20T00:00:00	2024-11-08T10:00:00	5	Humedad	60
18941	7	Sololá	701	Sololá	1	Sololá	4	Abril	2023-04-20T00:00:00	2024-11-08T10:00:00	6	Velocidad del viento	0
18942	7	Sololá	701	Sololá	1	Sololá	4	Abril	2023-04-20T00:00:00	2024-11-08T10:00:00	7	Dirección del viento	0
18943	7	Sololá	701	Sololá	1	Sololá	4	Abril	2023-04-20T00:00:00	2024-11-08T10:00:00	1	Precipitación	0
18944	7	Sololá	701	Sololá	1	Sololá	4	Abril	2023-04-20T00:00:00	2024-11-08T10:00:00	8	Radiación solar	363
18945	7	Sololá	701	Sololá	1	Sololá	4	Abril	2023-04-20T00:00:00	2024-11-08T11:00:00	2	Temperatura media	18.9
18946	7	Sololá	701	Sololá	1	Sololá	4	Abril	2023-04-20T00:00:00	2024-11-08T11:00:00	4	Temperatura máxima	19
18947	7	Sololá	701	Sololá	1	Sololá	4	Abril	2023-04-20T00:00:00	2024-11-08T11:00:00	3	Temperatura mínima	18.1
18948	7	Sololá	701	Sololá	1	Sololá	4	Abril	2023-04-20T00:00:00	2024-11-08T11:00:00	5	Humedad	63
18949	7	Sololá	701	Sololá	1	Sololá	4	Abril	2023-04-20T00:00:00	2024-11-08T11:00:00	6	Velocidad del viento	0
18950	7	Sololá	701	Sololá	1	Sololá	4	Abril	2023-04-20T00:00:00	2024-11-08T11:00:00	7	Dirección del viento	0
18951	7	Sololá	701	Sololá	1	Sololá	4	Abril	2023-04-20T00:00:00	2024-11-08T11:00:00	1	Precipitación	0
18952	7	Sololá	701	Sololá	1	Sololá	4	Abril	2023-04-20T00:00:00	2024-11-08T11:00:00	8	Radiación solar	527
18953	7	Sololá	701	Sololá	1	Sololá	4	Abril	2023-04-20T00:00:00	2024-11-08T12:00:00	2	Temperatura media	19.3
18954	7	Sololá	701	Sololá	1	Sololá	4	Abril	2023-04-20T00:00:00	2024-11-08T12:00:00	4	Temperatura máxima	19.4
18955	7	Sololá	701	Sololá	1	Sololá	4	Abril	2023-04-20T00:00:00	2024-11-08T12:00:00	3	Temperatura mínima	18.9
18956	7	Sololá	701	Sololá	1	Sololá	4	Abril	2023-04-20T00:00:00	2024-11-08T12:00:00	5	Humedad	67
18957	7	Sololá	701	Sololá	1	Sololá	4	Abril	2023-04-20T00:00:00	2024-11-08T12:00:00	6	Velocidad del viento	0
18958	7	Sololá	701	Sololá	1	Sololá	4	Abril	2023-04-20T00:00:00	2024-11-08T12:00:00	7	Dirección del viento	0
18959	7	Sololá	701	Sololá	1	Sololá	4	Abril	2023-04-20T00:00:00	2024-11-08T12:00:00	1	Precipitación	0
18960	7	Sololá	701	Sololá	1	Sololá	4	Abril	2023-04-20T00:00:00	2024-11-08T12:00:00	8	Radiación solar	532
18961	7	Sololá	701	Sololá	1	Sololá	4	Abril	2023-04-20T00:00:00	2024-11-08T13:00:00	2	Temperatura media	19.6
18962	7	Sololá	701	Sololá	1	Sololá	4	Abril	2023-04-20T00:00:00	2024-11-08T13:00:00	4	Temperatura máxima	19.7
18963	7	Sololá	701	Sololá	1	Sololá	4	Abril	2023-04-20T00:00:00	2024-11-08T13:00:00	3	Temperatura mínima	19.2
18964	7	Sololá	701	Sololá	1	Sololá	4	Abril	2023-04-20T00:00:00	2024-11-08T13:00:00	5	Humedad	70
18965	7	Sololá	701	Sololá	1	Sololá	4	Abril	2023-04-20T00:00:00	2024-11-08T13:00:00	6	Velocidad del viento	0
18966	7	Sololá	701	Sololá	1	Sololá	4	Abril	2023-04-20T00:00:00	2024-11-08T13:00:00	7	Dirección del viento	0
18967	7	Sololá	701	Sololá	1	Sololá	4	Abril	2023-04-20T00:00:00	2024-11-08T13:00:00	1	Precipitación	0
18968	7	Sololá	701	Sololá	1	Sololá	4	Abril	2023-04-20T00:00:00	2024-11-08T13:00:00	8	Radiación solar	462
18969	7	Sololá	701	Sololá	1	Sololá	4	Abril	2023-04-20T00:00:00	2024-11-08T14:00:00	2	Temperatura media	20.3
18970	7	Sololá	701	Sololá	1	Sololá	4	Abril	2023-04-20T00:00:00	2024-11-08T14:00:00	4	Temperatura máxima	20.3
18971	7	Sololá	701	Sololá	1	Sololá	4	Abril	2023-04-20T00:00:00	2024-11-08T14:00:00	3	Temperatura mínima	19.4
18972	7	Sololá	701	Sololá	1	Sololá	4	Abril	2023-04-20T00:00:00	2024-11-08T14:00:00	5	Humedad	69
18973	7	Sololá	701	Sololá	1	Sololá	4	Abril	2023-04-20T00:00:00	2024-11-08T14:00:00	6	Velocidad del viento	0
18974	7	Sololá	701	Sololá	1	Sololá	4	Abril	2023-04-20T00:00:00	2024-11-08T14:00:00	7	Dirección del viento	0
18975	7	Sololá	701	Sololá	1	Sololá	4	Abril	2023-04-20T00:00:00	2024-11-08T14:00:00	1	Precipitación	0
18976	7	Sololá	701	Sololá	1	Sololá	4	Abril	2023-04-20T00:00:00	2024-11-08T14:00:00	8	Radiación solar	510
18977	7	Sololá	701	Sololá	1	Sololá	4	Abril	2023-04-20T00:00:00	2024-11-08T15:00:00	2	Temperatura media	20.7
18978	7	Sololá	701	Sololá	1	Sololá	4	Abril	2023-04-20T00:00:00	2024-11-08T15:00:00	4	Temperatura máxima	20.8
18979	7	Sololá	701	Sololá	1	Sololá	4	Abril	2023-04-20T00:00:00	2024-11-08T15:00:00	3	Temperatura mínima	20.3
18980	7	Sololá	701	Sololá	1	Sololá	4	Abril	2023-04-20T00:00:00	2024-11-08T15:00:00	5	Humedad	71
18981	7	Sololá	701	Sololá	1	Sololá	4	Abril	2023-04-20T00:00:00	2024-11-08T15:00:00	6	Velocidad del viento	0
18982	7	Sololá	701	Sololá	1	Sololá	4	Abril	2023-04-20T00:00:00	2024-11-08T15:00:00	7	Dirección del viento	0
18983	7	Sololá	701	Sololá	1	Sololá	4	Abril	2023-04-20T00:00:00	2024-11-08T15:00:00	1	Precipitación	0
18984	7	Sololá	701	Sololá	1	Sololá	4	Abril	2023-04-20T00:00:00	2024-11-08T15:00:00	8	Radiación solar	269
18985	7	Sololá	701	Sololá	1	Sololá	4	Abril	2023-04-20T00:00:00	2024-11-08T16:00:00	2	Temperatura media	20.8
18986	7	Sololá	701	Sololá	1	Sololá	4	Abril	2023-04-20T00:00:00	2024-11-08T16:00:00	4	Temperatura máxima	21
18987	7	Sololá	701	Sololá	1	Sololá	4	Abril	2023-04-20T00:00:00	2024-11-08T16:00:00	3	Temperatura mínima	20.6
18988	7	Sololá	701	Sololá	1	Sololá	4	Abril	2023-04-20T00:00:00	2024-11-08T16:00:00	5	Humedad	75
18989	7	Sololá	701	Sololá	1	Sololá	4	Abril	2023-04-20T00:00:00	2024-11-08T16:00:00	6	Velocidad del viento	0
18990	7	Sololá	701	Sololá	1	Sololá	4	Abril	2023-04-20T00:00:00	2024-11-08T16:00:00	7	Dirección del viento	0
18991	7	Sololá	701	Sololá	1	Sololá	4	Abril	2023-04-20T00:00:00	2024-11-08T16:00:00	1	Precipitación	0
18992	7	Sololá	701	Sololá	1	Sololá	4	Abril	2023-04-20T00:00:00	2024-11-08T16:00:00	8	Radiación solar	196
18993	7	Sololá	701	Sololá	1	Sololá	4	Abril	2023-04-20T00:00:00	2024-11-08T17:00:00	2	Temperatura media	18.8
18994	7	Sololá	701	Sololá	1	Sololá	4	Abril	2023-04-20T00:00:00	2024-11-08T17:00:00	4	Temperatura máxima	20.8
18995	7	Sololá	701	Sololá	1	Sololá	4	Abril	2023-04-20T00:00:00	2024-11-08T17:00:00	3	Temperatura mínima	18.8
18996	7	Sololá	701	Sololá	1	Sololá	4	Abril	2023-04-20T00:00:00	2024-11-08T17:00:00	5	Humedad	85
18997	7	Sololá	701	Sololá	1	Sololá	4	Abril	2023-04-20T00:00:00	2024-11-08T17:00:00	6	Velocidad del viento	0
18998	7	Sololá	701	Sololá	1	Sololá	4	Abril	2023-04-20T00:00:00	2024-11-08T17:00:00	7	Dirección del viento	0
18999	7	Sololá	701	Sololá	1	Sololá	4	Abril	2023-04-20T00:00:00	2024-11-08T17:00:00	1	Precipitación	0
19000	7	Sololá	701	Sololá	1	Sololá	4	Abril	2023-04-20T00:00:00	2024-11-08T17:00:00	8	Radiación solar	163
19001	7	Sololá	701	Sololá	1	Sololá	4	Abril	2023-04-20T00:00:00	2024-11-08T18:00:00	2	Temperatura media	17.8
19002	7	Sololá	701	Sololá	1	Sololá	4	Abril	2023-04-20T00:00:00	2024-11-08T18:00:00	4	Temperatura máxima	18.8
19003	7	Sololá	701	Sololá	1	Sololá	4	Abril	2023-04-20T00:00:00	2024-11-08T18:00:00	3	Temperatura mínima	17.8
19004	7	Sololá	701	Sololá	1	Sololá	4	Abril	2023-04-20T00:00:00	2024-11-08T18:00:00	5	Humedad	88
19005	7	Sololá	701	Sololá	1	Sololá	4	Abril	2023-04-20T00:00:00	2024-11-08T18:00:00	6	Velocidad del viento	0
19006	7	Sololá	701	Sololá	1	Sololá	4	Abril	2023-04-20T00:00:00	2024-11-08T18:00:00	7	Dirección del viento	0
19007	7	Sololá	701	Sololá	1	Sololá	4	Abril	2023-04-20T00:00:00	2024-11-08T18:00:00	1	Precipitación	0
19008	7	Sololá	701	Sololá	1	Sololá	4	Abril	2023-04-20T00:00:00	2024-11-08T18:00:00	8	Radiación solar	54
19009	7	Sololá	701	Sololá	1	Sololá	4	Abril	2023-04-20T00:00:00	2024-11-08T19:00:00	2	Temperatura media	17
19010	7	Sololá	701	Sololá	1	Sololá	4	Abril	2023-04-20T00:00:00	2024-11-08T19:00:00	4	Temperatura máxima	17.8
19011	7	Sololá	701	Sololá	1	Sololá	4	Abril	2023-04-20T00:00:00	2024-11-08T19:00:00	3	Temperatura mínima	17
19012	7	Sololá	701	Sololá	1	Sololá	4	Abril	2023-04-20T00:00:00	2024-11-08T19:00:00	5	Humedad	91
19013	7	Sololá	701	Sololá	1	Sololá	4	Abril	2023-04-20T00:00:00	2024-11-08T19:00:00	6	Velocidad del viento	0
19014	7	Sololá	701	Sololá	1	Sololá	4	Abril	2023-04-20T00:00:00	2024-11-08T19:00:00	7	Dirección del viento	0
19015	7	Sololá	701	Sololá	1	Sololá	4	Abril	2023-04-20T00:00:00	2024-11-08T19:00:00	1	Precipitación	0
19016	7	Sololá	701	Sololá	1	Sololá	4	Abril	2023-04-20T00:00:00	2024-11-08T19:00:00	8	Radiación solar	0
19017	7	Sololá	701	Sololá	1	Sololá	4	Abril	2023-04-20T00:00:00	2024-11-08T20:00:00	2	Temperatura media	16.7
19018	7	Sololá	701	Sololá	1	Sololá	4	Abril	2023-04-20T00:00:00	2024-11-08T20:00:00	4	Temperatura máxima	17
19019	7	Sololá	701	Sololá	1	Sololá	4	Abril	2023-04-20T00:00:00	2024-11-08T20:00:00	3	Temperatura mínima	16.7
19020	7	Sololá	701	Sololá	1	Sololá	4	Abril	2023-04-20T00:00:00	2024-11-08T20:00:00	5	Humedad	92
19021	7	Sololá	701	Sololá	1	Sololá	4	Abril	2023-04-20T00:00:00	2024-11-08T20:00:00	6	Velocidad del viento	0
19022	7	Sololá	701	Sololá	1	Sololá	4	Abril	2023-04-20T00:00:00	2024-11-08T20:00:00	7	Dirección del viento	0
19023	7	Sololá	701	Sololá	1	Sololá	4	Abril	2023-04-20T00:00:00	2024-11-08T20:00:00	1	Precipitación	0
19024	7	Sololá	701	Sololá	1	Sololá	4	Abril	2023-04-20T00:00:00	2024-11-08T20:00:00	8	Radiación solar	0
19025	7	Sololá	701	Sololá	1	Sololá	4	Abril	2023-04-20T00:00:00	2024-11-08T21:00:00	2	Temperatura media	16.1
19026	7	Sololá	701	Sololá	1	Sololá	4	Abril	2023-04-20T00:00:00	2024-11-08T21:00:00	4	Temperatura máxima	16.7
19027	7	Sololá	701	Sololá	1	Sololá	4	Abril	2023-04-20T00:00:00	2024-11-08T21:00:00	3	Temperatura mínima	16.1
19028	7	Sololá	701	Sololá	1	Sololá	4	Abril	2023-04-20T00:00:00	2024-11-08T21:00:00	5	Humedad	92
19029	7	Sololá	701	Sololá	1	Sololá	4	Abril	2023-04-20T00:00:00	2024-11-08T21:00:00	6	Velocidad del viento	0
19030	7	Sololá	701	Sololá	1	Sololá	4	Abril	2023-04-20T00:00:00	2024-11-08T21:00:00	7	Dirección del viento	0
19031	7	Sololá	701	Sololá	1	Sololá	4	Abril	2023-04-20T00:00:00	2024-11-08T21:00:00	1	Precipitación	0
19032	7	Sololá	701	Sololá	1	Sololá	4	Abril	2023-04-20T00:00:00	2024-11-08T21:00:00	8	Radiación solar	0
19033	7	Sololá	701	Sololá	1	Sololá	4	Abril	2023-04-20T00:00:00	2024-11-08T22:00:00	2	Temperatura media	15
19034	7	Sololá	701	Sololá	1	Sololá	4	Abril	2023-04-20T00:00:00	2024-11-08T22:00:00	4	Temperatura máxima	16.1
19035	7	Sololá	701	Sololá	1	Sololá	4	Abril	2023-04-20T00:00:00	2024-11-08T22:00:00	3	Temperatura mínima	15
19036	7	Sololá	701	Sololá	1	Sololá	4	Abril	2023-04-20T00:00:00	2024-11-08T22:00:00	5	Humedad	92
19037	7	Sololá	701	Sololá	1	Sololá	4	Abril	2023-04-20T00:00:00	2024-11-08T22:00:00	6	Velocidad del viento	0
19038	7	Sololá	701	Sololá	1	Sololá	4	Abril	2023-04-20T00:00:00	2024-11-08T22:00:00	7	Dirección del viento	0
19039	7	Sololá	701	Sololá	1	Sololá	4	Abril	2023-04-20T00:00:00	2024-11-08T22:00:00	1	Precipitación	0
19040	7	Sololá	701	Sololá	1	Sololá	4	Abril	2023-04-20T00:00:00	2024-11-08T22:00:00	8	Radiación solar	0
19041	7	Sololá	701	Sololá	1	Sololá	4	Abril	2023-04-20T00:00:00	2024-11-08T23:00:00	2	Temperatura media	14.6
19042	7	Sololá	701	Sololá	1	Sololá	4	Abril	2023-04-20T00:00:00	2024-11-08T23:00:00	4	Temperatura máxima	15
19043	7	Sololá	701	Sololá	1	Sololá	4	Abril	2023-04-20T00:00:00	2024-11-08T23:00:00	3	Temperatura mínima	14.6
19044	7	Sololá	701	Sololá	1	Sololá	4	Abril	2023-04-20T00:00:00	2024-11-08T23:00:00	5	Humedad	92
19045	7	Sololá	701	Sololá	1	Sololá	4	Abril	2023-04-20T00:00:00	2024-11-08T23:00:00	6	Velocidad del viento	0
19046	7	Sololá	701	Sololá	1	Sololá	4	Abril	2023-04-20T00:00:00	2024-11-08T23:00:00	7	Dirección del viento	0
19047	7	Sololá	701	Sololá	1	Sololá	4	Abril	2023-04-20T00:00:00	2024-11-08T23:00:00	1	Precipitación	0
19048	7	Sololá	701	Sololá	1	Sololá	4	Abril	2023-04-20T00:00:00	2024-11-08T23:00:00	8	Radiación solar	0
19049	7	Sololá	701	Sololá	1	Sololá	4	Abril	2023-04-21T00:00:00	2024-11-08T00:00:00	2	Temperatura media	14.2
19050	7	Sololá	701	Sololá	1	Sololá	4	Abril	2023-04-21T00:00:00	2024-11-08T00:00:00	4	Temperatura máxima	14.6
19051	7	Sololá	701	Sololá	1	Sololá	4	Abril	2023-04-21T00:00:00	2024-11-08T00:00:00	3	Temperatura mínima	14.2
19052	7	Sololá	701	Sololá	1	Sololá	4	Abril	2023-04-21T00:00:00	2024-11-08T00:00:00	5	Humedad	88
19053	7	Sololá	701	Sololá	1	Sololá	4	Abril	2023-04-21T00:00:00	2024-11-08T00:00:00	6	Velocidad del viento	0
19054	7	Sololá	701	Sololá	1	Sololá	4	Abril	2023-04-21T00:00:00	2024-11-08T00:00:00	7	Dirección del viento	0
19055	7	Sololá	701	Sololá	1	Sololá	4	Abril	2023-04-21T00:00:00	2024-11-08T00:00:00	1	Precipitación	0
19056	7	Sololá	701	Sololá	1	Sololá	4	Abril	2023-04-21T00:00:00	2024-11-08T00:00:00	8	Radiación solar	0
19057	7	Sololá	701	Sololá	1	Sololá	4	Abril	2023-04-21T00:00:00	2024-11-08T01:00:00	2	Temperatura media	13.7
19058	7	Sololá	701	Sololá	1	Sololá	4	Abril	2023-04-21T00:00:00	2024-11-08T01:00:00	4	Temperatura máxima	14.2
19059	7	Sololá	701	Sololá	1	Sololá	4	Abril	2023-04-21T00:00:00	2024-11-08T01:00:00	3	Temperatura mínima	13.7
19060	7	Sololá	701	Sololá	1	Sololá	4	Abril	2023-04-21T00:00:00	2024-11-08T01:00:00	5	Humedad	87
19061	7	Sololá	701	Sololá	1	Sololá	4	Abril	2023-04-21T00:00:00	2024-11-08T01:00:00	6	Velocidad del viento	0
19062	7	Sololá	701	Sololá	1	Sololá	4	Abril	2023-04-21T00:00:00	2024-11-08T01:00:00	7	Dirección del viento	0
19063	7	Sololá	701	Sololá	1	Sololá	4	Abril	2023-04-21T00:00:00	2024-11-08T01:00:00	1	Precipitación	0
19064	7	Sololá	701	Sololá	1	Sololá	4	Abril	2023-04-21T00:00:00	2024-11-08T01:00:00	8	Radiación solar	0
19065	7	Sololá	701	Sololá	1	Sololá	4	Abril	2023-04-21T00:00:00	2024-11-08T02:00:00	2	Temperatura media	13.2
19066	7	Sololá	701	Sololá	1	Sololá	4	Abril	2023-04-21T00:00:00	2024-11-08T02:00:00	4	Temperatura máxima	13.7
19067	7	Sololá	701	Sololá	1	Sololá	4	Abril	2023-04-21T00:00:00	2024-11-08T02:00:00	3	Temperatura mínima	13.2
19068	7	Sololá	701	Sololá	1	Sololá	4	Abril	2023-04-21T00:00:00	2024-11-08T02:00:00	5	Humedad	90
19069	7	Sololá	701	Sololá	1	Sololá	4	Abril	2023-04-21T00:00:00	2024-11-08T02:00:00	6	Velocidad del viento	1.6
19070	7	Sololá	701	Sololá	1	Sololá	4	Abril	2023-04-21T00:00:00	2024-11-08T02:00:00	7	Dirección del viento	1.61
19071	7	Sololá	701	Sololá	1	Sololá	4	Abril	2023-04-21T00:00:00	2024-11-08T02:00:00	1	Precipitación	0
19072	7	Sololá	701	Sololá	1	Sololá	4	Abril	2023-04-21T00:00:00	2024-11-08T02:00:00	8	Radiación solar	0
19073	7	Sololá	701	Sololá	1	Sololá	4	Abril	2023-04-21T00:00:00	2024-11-08T03:00:00	2	Temperatura media	12.7
19074	7	Sololá	701	Sololá	1	Sololá	4	Abril	2023-04-21T00:00:00	2024-11-08T03:00:00	4	Temperatura máxima	13.2
19075	7	Sololá	701	Sololá	1	Sololá	4	Abril	2023-04-21T00:00:00	2024-11-08T03:00:00	3	Temperatura mínima	12.7
19076	7	Sololá	701	Sololá	1	Sololá	4	Abril	2023-04-21T00:00:00	2024-11-08T03:00:00	5	Humedad	85
19077	7	Sololá	701	Sololá	1	Sololá	4	Abril	2023-04-21T00:00:00	2024-11-08T03:00:00	6	Velocidad del viento	1.6
19078	7	Sololá	701	Sololá	1	Sololá	4	Abril	2023-04-21T00:00:00	2024-11-08T03:00:00	7	Dirección del viento	1.61
19079	7	Sololá	701	Sololá	1	Sololá	4	Abril	2023-04-21T00:00:00	2024-11-08T03:00:00	1	Precipitación	0
19080	7	Sololá	701	Sololá	1	Sololá	4	Abril	2023-04-21T00:00:00	2024-11-08T03:00:00	8	Radiación solar	0
19081	7	Sololá	701	Sololá	1	Sololá	4	Abril	2023-04-21T00:00:00	2024-11-08T04:00:00	2	Temperatura media	11.9
19082	7	Sololá	701	Sololá	1	Sololá	4	Abril	2023-04-21T00:00:00	2024-11-08T04:00:00	4	Temperatura máxima	12.7
19083	7	Sololá	701	Sololá	1	Sololá	4	Abril	2023-04-21T00:00:00	2024-11-08T04:00:00	3	Temperatura mínima	11.9
19084	7	Sololá	701	Sololá	1	Sololá	4	Abril	2023-04-21T00:00:00	2024-11-08T04:00:00	5	Humedad	83
19085	7	Sololá	701	Sololá	1	Sololá	4	Abril	2023-04-21T00:00:00	2024-11-08T04:00:00	6	Velocidad del viento	0
19086	7	Sololá	701	Sololá	1	Sololá	4	Abril	2023-04-21T00:00:00	2024-11-08T04:00:00	7	Dirección del viento	0
19087	7	Sololá	701	Sololá	1	Sololá	4	Abril	2023-04-21T00:00:00	2024-11-08T04:00:00	1	Precipitación	0
19088	7	Sololá	701	Sololá	1	Sololá	4	Abril	2023-04-21T00:00:00	2024-11-08T04:00:00	8	Radiación solar	0
19089	7	Sololá	701	Sololá	1	Sololá	4	Abril	2023-04-21T00:00:00	2024-11-08T05:00:00	2	Temperatura media	11.7
19090	7	Sololá	701	Sololá	1	Sololá	4	Abril	2023-04-21T00:00:00	2024-11-08T05:00:00	4	Temperatura máxima	11.9
19091	7	Sololá	701	Sololá	1	Sololá	4	Abril	2023-04-21T00:00:00	2024-11-08T05:00:00	3	Temperatura mínima	11.5
19092	7	Sololá	701	Sololá	1	Sololá	4	Abril	2023-04-21T00:00:00	2024-11-08T05:00:00	5	Humedad	84
19093	7	Sololá	701	Sololá	1	Sololá	4	Abril	2023-04-21T00:00:00	2024-11-08T05:00:00	6	Velocidad del viento	0
19094	7	Sololá	701	Sololá	1	Sololá	4	Abril	2023-04-21T00:00:00	2024-11-08T05:00:00	7	Dirección del viento	0
19095	7	Sololá	701	Sololá	1	Sololá	4	Abril	2023-04-21T00:00:00	2024-11-08T05:00:00	1	Precipitación	0
19096	7	Sololá	701	Sololá	1	Sololá	4	Abril	2023-04-21T00:00:00	2024-11-08T05:00:00	8	Radiación solar	0
19097	7	Sololá	701	Sololá	1	Sololá	4	Abril	2023-04-21T00:00:00	2024-11-08T06:00:00	2	Temperatura media	11.8
19098	7	Sololá	701	Sololá	1	Sololá	4	Abril	2023-04-21T00:00:00	2024-11-08T06:00:00	4	Temperatura máxima	11.9
19099	7	Sololá	701	Sololá	1	Sololá	4	Abril	2023-04-21T00:00:00	2024-11-08T06:00:00	3	Temperatura mínima	11.7
19100	7	Sololá	701	Sololá	1	Sololá	4	Abril	2023-04-21T00:00:00	2024-11-08T06:00:00	5	Humedad	74
19101	7	Sololá	701	Sololá	1	Sololá	4	Abril	2023-04-21T00:00:00	2024-11-08T06:00:00	6	Velocidad del viento	1.6
19102	7	Sololá	701	Sololá	1	Sololá	4	Abril	2023-04-21T00:00:00	2024-11-08T06:00:00	7	Dirección del viento	1.61
19103	7	Sololá	701	Sololá	1	Sololá	4	Abril	2023-04-21T00:00:00	2024-11-08T06:00:00	1	Precipitación	0
19104	7	Sololá	701	Sololá	1	Sololá	4	Abril	2023-04-21T00:00:00	2024-11-08T06:00:00	8	Radiación solar	1
19105	7	Sololá	701	Sololá	1	Sololá	4	Abril	2023-04-21T00:00:00	2024-11-08T07:00:00	2	Temperatura media	11.8
19106	7	Sololá	701	Sololá	1	Sololá	4	Abril	2023-04-21T00:00:00	2024-11-08T07:00:00	4	Temperatura máxima	11.9
19107	7	Sololá	701	Sololá	1	Sololá	4	Abril	2023-04-21T00:00:00	2024-11-08T07:00:00	3	Temperatura mínima	11.7
19108	7	Sololá	701	Sololá	1	Sololá	4	Abril	2023-04-21T00:00:00	2024-11-08T07:00:00	5	Humedad	75
19109	7	Sololá	701	Sololá	1	Sololá	4	Abril	2023-04-21T00:00:00	2024-11-08T07:00:00	6	Velocidad del viento	1.6
19110	7	Sololá	701	Sololá	1	Sololá	4	Abril	2023-04-21T00:00:00	2024-11-08T07:00:00	7	Dirección del viento	1.61
19111	7	Sololá	701	Sololá	1	Sololá	4	Abril	2023-04-21T00:00:00	2024-11-08T07:00:00	1	Precipitación	0
19112	7	Sololá	701	Sololá	1	Sololá	4	Abril	2023-04-21T00:00:00	2024-11-08T07:00:00	8	Radiación solar	25
19113	7	Sololá	701	Sololá	1	Sololá	4	Abril	2023-04-21T00:00:00	2024-11-08T08:00:00	2	Temperatura media	13.3
19114	7	Sololá	701	Sololá	1	Sololá	4	Abril	2023-04-21T00:00:00	2024-11-08T08:00:00	4	Temperatura máxima	13.3
19115	7	Sololá	701	Sololá	1	Sololá	4	Abril	2023-04-21T00:00:00	2024-11-08T08:00:00	3	Temperatura mínima	11.8
19116	7	Sololá	701	Sololá	1	Sololá	4	Abril	2023-04-21T00:00:00	2024-11-08T08:00:00	5	Humedad	70
19117	7	Sololá	701	Sololá	1	Sololá	4	Abril	2023-04-21T00:00:00	2024-11-08T08:00:00	6	Velocidad del viento	1.6
19118	7	Sololá	701	Sololá	1	Sololá	4	Abril	2023-04-21T00:00:00	2024-11-08T08:00:00	7	Dirección del viento	1.61
19119	7	Sololá	701	Sololá	1	Sololá	4	Abril	2023-04-21T00:00:00	2024-11-08T08:00:00	1	Precipitación	0
19120	7	Sololá	701	Sololá	1	Sololá	4	Abril	2023-04-21T00:00:00	2024-11-08T08:00:00	8	Radiación solar	244
19121	7	Sololá	701	Sololá	1	Sololá	4	Abril	2023-04-21T00:00:00	2024-11-08T09:00:00	2	Temperatura media	17.7
19122	7	Sololá	701	Sololá	1	Sololá	4	Abril	2023-04-21T00:00:00	2024-11-08T09:00:00	4	Temperatura máxima	17.7
19123	7	Sololá	701	Sololá	1	Sololá	4	Abril	2023-04-21T00:00:00	2024-11-08T09:00:00	3	Temperatura mínima	13.3
19124	7	Sololá	701	Sololá	1	Sololá	4	Abril	2023-04-21T00:00:00	2024-11-08T09:00:00	5	Humedad	73
19125	7	Sololá	701	Sololá	1	Sololá	4	Abril	2023-04-21T00:00:00	2024-11-08T09:00:00	6	Velocidad del viento	0
19126	7	Sololá	701	Sololá	1	Sololá	4	Abril	2023-04-21T00:00:00	2024-11-08T09:00:00	7	Dirección del viento	0
19127	7	Sololá	701	Sololá	1	Sololá	4	Abril	2023-04-21T00:00:00	2024-11-08T09:00:00	1	Precipitación	0
19128	7	Sololá	701	Sololá	1	Sololá	4	Abril	2023-04-21T00:00:00	2024-11-08T09:00:00	8	Radiación solar	531
19129	7	Sololá	701	Sololá	1	Sololá	4	Abril	2023-04-21T00:00:00	2024-11-08T10:00:00	2	Temperatura media	19.9
19130	7	Sololá	701	Sololá	1	Sololá	4	Abril	2023-04-21T00:00:00	2024-11-08T10:00:00	4	Temperatura máxima	20.1
19131	7	Sololá	701	Sololá	1	Sololá	4	Abril	2023-04-21T00:00:00	2024-11-08T10:00:00	3	Temperatura mínima	17.7
19132	7	Sololá	701	Sololá	1	Sololá	4	Abril	2023-04-21T00:00:00	2024-11-08T10:00:00	5	Humedad	69
19133	7	Sololá	701	Sololá	1	Sololá	4	Abril	2023-04-21T00:00:00	2024-11-08T10:00:00	6	Velocidad del viento	0
19134	7	Sololá	701	Sololá	1	Sololá	4	Abril	2023-04-21T00:00:00	2024-11-08T10:00:00	7	Dirección del viento	0
19135	7	Sololá	701	Sololá	1	Sololá	4	Abril	2023-04-21T00:00:00	2024-11-08T10:00:00	1	Precipitación	0
19136	7	Sololá	701	Sololá	1	Sololá	4	Abril	2023-04-21T00:00:00	2024-11-08T10:00:00	8	Radiación solar	752
19137	7	Sololá	701	Sololá	1	Sololá	4	Abril	2023-04-21T00:00:00	2024-11-08T11:00:00	2	Temperatura media	21.3
19138	7	Sololá	701	Sololá	1	Sololá	4	Abril	2023-04-21T00:00:00	2024-11-08T11:00:00	4	Temperatura máxima	21.3
19139	7	Sololá	701	Sololá	1	Sololá	4	Abril	2023-04-21T00:00:00	2024-11-08T11:00:00	3	Temperatura mínima	19.9
19140	7	Sololá	701	Sololá	1	Sololá	4	Abril	2023-04-21T00:00:00	2024-11-08T11:00:00	5	Humedad	67
19141	7	Sololá	701	Sololá	1	Sololá	4	Abril	2023-04-21T00:00:00	2024-11-08T11:00:00	6	Velocidad del viento	0
19142	7	Sololá	701	Sololá	1	Sololá	4	Abril	2023-04-21T00:00:00	2024-11-08T11:00:00	7	Dirección del viento	0
19143	7	Sololá	701	Sololá	1	Sololá	4	Abril	2023-04-21T00:00:00	2024-11-08T11:00:00	1	Precipitación	0
19144	7	Sololá	701	Sololá	1	Sololá	4	Abril	2023-04-21T00:00:00	2024-11-08T11:00:00	8	Radiación solar	871
19145	7	Sololá	701	Sololá	1	Sololá	4	Abril	2023-04-21T00:00:00	2024-11-08T12:00:00	2	Temperatura media	21.6
19146	7	Sololá	701	Sololá	1	Sololá	4	Abril	2023-04-21T00:00:00	2024-11-08T12:00:00	4	Temperatura máxima	21.9
19147	7	Sololá	701	Sololá	1	Sololá	4	Abril	2023-04-21T00:00:00	2024-11-08T12:00:00	3	Temperatura mínima	21.3
19148	7	Sololá	701	Sololá	1	Sololá	4	Abril	2023-04-21T00:00:00	2024-11-08T12:00:00	5	Humedad	68
19149	7	Sololá	701	Sololá	1	Sololá	4	Abril	2023-04-21T00:00:00	2024-11-08T12:00:00	6	Velocidad del viento	0
19150	7	Sololá	701	Sololá	1	Sololá	4	Abril	2023-04-21T00:00:00	2024-11-08T12:00:00	7	Dirección del viento	0
19151	7	Sololá	701	Sololá	1	Sololá	4	Abril	2023-04-21T00:00:00	2024-11-08T12:00:00	1	Precipitación	0
19152	7	Sololá	701	Sololá	1	Sololá	4	Abril	2023-04-21T00:00:00	2024-11-08T12:00:00	8	Radiación solar	578
19153	7	Sololá	701	Sololá	1	Sololá	4	Abril	2023-04-21T00:00:00	2024-11-08T13:00:00	2	Temperatura media	19.9
19154	7	Sololá	701	Sololá	1	Sololá	4	Abril	2023-04-21T00:00:00	2024-11-08T13:00:00	4	Temperatura máxima	21.6
19155	7	Sololá	701	Sololá	1	Sololá	4	Abril	2023-04-21T00:00:00	2024-11-08T13:00:00	3	Temperatura mínima	19.9
19156	7	Sololá	701	Sololá	1	Sololá	4	Abril	2023-04-21T00:00:00	2024-11-08T13:00:00	5	Humedad	80
19157	7	Sololá	701	Sololá	1	Sololá	4	Abril	2023-04-21T00:00:00	2024-11-08T13:00:00	6	Velocidad del viento	1.6
19158	7	Sololá	701	Sololá	1	Sololá	4	Abril	2023-04-21T00:00:00	2024-11-08T13:00:00	7	Dirección del viento	1.61
19159	7	Sololá	701	Sololá	1	Sololá	4	Abril	2023-04-21T00:00:00	2024-11-08T13:00:00	1	Precipitación	0
19160	7	Sololá	701	Sololá	1	Sololá	4	Abril	2023-04-21T00:00:00	2024-11-08T13:00:00	8	Radiación solar	358
19161	7	Sololá	701	Sololá	1	Sololá	4	Abril	2023-04-21T00:00:00	2024-11-08T14:00:00	2	Temperatura media	19.7
19162	7	Sololá	701	Sololá	1	Sololá	4	Abril	2023-04-21T00:00:00	2024-11-08T14:00:00	4	Temperatura máxima	20.1
19163	7	Sololá	701	Sololá	1	Sololá	4	Abril	2023-04-21T00:00:00	2024-11-08T14:00:00	3	Temperatura mínima	19.7
19164	7	Sololá	701	Sololá	1	Sololá	4	Abril	2023-04-21T00:00:00	2024-11-08T14:00:00	5	Humedad	80
19165	7	Sololá	701	Sololá	1	Sololá	4	Abril	2023-04-21T00:00:00	2024-11-08T14:00:00	6	Velocidad del viento	0
19166	7	Sololá	701	Sololá	1	Sololá	4	Abril	2023-04-21T00:00:00	2024-11-08T14:00:00	7	Dirección del viento	0
19167	7	Sololá	701	Sololá	1	Sololá	4	Abril	2023-04-21T00:00:00	2024-11-08T14:00:00	1	Precipitación	0
19168	7	Sololá	701	Sololá	1	Sololá	4	Abril	2023-04-21T00:00:00	2024-11-08T14:00:00	8	Radiación solar	280
19169	7	Sololá	701	Sololá	1	Sololá	4	Abril	2023-04-21T00:00:00	2024-11-08T15:00:00	2	Temperatura media	20.1
19170	7	Sololá	701	Sololá	1	Sololá	4	Abril	2023-04-21T00:00:00	2024-11-08T15:00:00	4	Temperatura máxima	20.4
19171	7	Sololá	701	Sololá	1	Sololá	4	Abril	2023-04-21T00:00:00	2024-11-08T15:00:00	3	Temperatura mínima	19.7
19172	7	Sololá	701	Sololá	1	Sololá	4	Abril	2023-04-21T00:00:00	2024-11-08T15:00:00	5	Humedad	81
19173	7	Sololá	701	Sololá	1	Sololá	4	Abril	2023-04-21T00:00:00	2024-11-08T15:00:00	6	Velocidad del viento	0
19174	7	Sololá	701	Sololá	1	Sololá	4	Abril	2023-04-21T00:00:00	2024-11-08T15:00:00	7	Dirección del viento	0
19175	7	Sololá	701	Sololá	1	Sololá	4	Abril	2023-04-21T00:00:00	2024-11-08T15:00:00	1	Precipitación	0
19176	7	Sololá	701	Sololá	1	Sololá	4	Abril	2023-04-21T00:00:00	2024-11-08T15:00:00	8	Radiación solar	162
19177	7	Sololá	701	Sololá	1	Sololá	4	Abril	2023-04-21T00:00:00	2024-11-08T16:00:00	2	Temperatura media	18.6
19178	7	Sololá	701	Sololá	1	Sololá	4	Abril	2023-04-21T00:00:00	2024-11-08T16:00:00	4	Temperatura máxima	20.1
19179	7	Sololá	701	Sololá	1	Sololá	4	Abril	2023-04-21T00:00:00	2024-11-08T16:00:00	3	Temperatura mínima	18.3
19180	7	Sololá	701	Sololá	1	Sololá	4	Abril	2023-04-21T00:00:00	2024-11-08T16:00:00	5	Humedad	83
19181	7	Sololá	701	Sololá	1	Sololá	4	Abril	2023-04-21T00:00:00	2024-11-08T16:00:00	6	Velocidad del viento	0
19182	7	Sololá	701	Sololá	1	Sololá	4	Abril	2023-04-21T00:00:00	2024-11-08T16:00:00	7	Dirección del viento	0
19183	7	Sololá	701	Sololá	1	Sololá	4	Abril	2023-04-21T00:00:00	2024-11-08T16:00:00	1	Precipitación	0
19184	7	Sololá	701	Sololá	1	Sololá	4	Abril	2023-04-21T00:00:00	2024-11-08T16:00:00	8	Radiación solar	163
19185	7	Sololá	701	Sololá	1	Sololá	4	Abril	2023-04-21T00:00:00	2024-11-08T17:00:00	2	Temperatura media	18.8
19186	7	Sololá	701	Sololá	1	Sololá	4	Abril	2023-04-21T00:00:00	2024-11-08T17:00:00	4	Temperatura máxima	18.8
19187	7	Sololá	701	Sololá	1	Sololá	4	Abril	2023-04-21T00:00:00	2024-11-08T17:00:00	3	Temperatura mínima	18.6
19188	7	Sololá	701	Sololá	1	Sololá	4	Abril	2023-04-21T00:00:00	2024-11-08T17:00:00	5	Humedad	83
19189	7	Sololá	701	Sololá	1	Sololá	4	Abril	2023-04-21T00:00:00	2024-11-08T17:00:00	6	Velocidad del viento	0
19190	7	Sololá	701	Sololá	1	Sololá	4	Abril	2023-04-21T00:00:00	2024-11-08T17:00:00	7	Dirección del viento	0
19191	7	Sololá	701	Sololá	1	Sololá	4	Abril	2023-04-21T00:00:00	2024-11-08T17:00:00	1	Precipitación	0
19192	7	Sololá	701	Sololá	1	Sololá	4	Abril	2023-04-21T00:00:00	2024-11-08T17:00:00	8	Radiación solar	51
19193	7	Sololá	701	Sololá	1	Sololá	4	Abril	2023-04-21T00:00:00	2024-11-08T18:00:00	2	Temperatura media	17.9
19194	7	Sololá	701	Sololá	1	Sololá	4	Abril	2023-04-21T00:00:00	2024-11-08T18:00:00	4	Temperatura máxima	18.8
19195	7	Sololá	701	Sololá	1	Sololá	4	Abril	2023-04-21T00:00:00	2024-11-08T18:00:00	3	Temperatura mínima	17.9
19196	7	Sololá	701	Sololá	1	Sololá	4	Abril	2023-04-21T00:00:00	2024-11-08T18:00:00	5	Humedad	87
19197	7	Sololá	701	Sololá	1	Sololá	4	Abril	2023-04-21T00:00:00	2024-11-08T18:00:00	6	Velocidad del viento	0
19198	7	Sololá	701	Sololá	1	Sololá	4	Abril	2023-04-21T00:00:00	2024-11-08T18:00:00	7	Dirección del viento	0
19199	7	Sololá	701	Sololá	1	Sololá	4	Abril	2023-04-21T00:00:00	2024-11-08T18:00:00	1	Precipitación	0
19200	7	Sololá	701	Sololá	1	Sololá	4	Abril	2023-04-21T00:00:00	2024-11-08T18:00:00	8	Radiación solar	31
19201	7	Sololá	701	Sololá	1	Sololá	4	Abril	2023-04-21T00:00:00	2024-11-08T19:00:00	2	Temperatura media	17.3
19202	7	Sololá	701	Sololá	1	Sololá	4	Abril	2023-04-21T00:00:00	2024-11-08T19:00:00	4	Temperatura máxima	17.9
19203	7	Sololá	701	Sololá	1	Sololá	4	Abril	2023-04-21T00:00:00	2024-11-08T19:00:00	3	Temperatura mínima	17.3
19204	7	Sololá	701	Sololá	1	Sololá	4	Abril	2023-04-21T00:00:00	2024-11-08T19:00:00	5	Humedad	90
19205	7	Sololá	701	Sololá	1	Sololá	4	Abril	2023-04-21T00:00:00	2024-11-08T19:00:00	6	Velocidad del viento	0
19206	7	Sololá	701	Sololá	1	Sololá	4	Abril	2023-04-21T00:00:00	2024-11-08T19:00:00	7	Dirección del viento	0
19207	7	Sololá	701	Sololá	1	Sololá	4	Abril	2023-04-21T00:00:00	2024-11-08T19:00:00	1	Precipitación	0
19208	7	Sololá	701	Sololá	1	Sololá	4	Abril	2023-04-21T00:00:00	2024-11-08T19:00:00	8	Radiación solar	0
19209	7	Sololá	701	Sololá	1	Sololá	4	Abril	2023-04-21T00:00:00	2024-11-08T20:00:00	2	Temperatura media	16.8
19210	7	Sololá	701	Sololá	1	Sololá	4	Abril	2023-04-21T00:00:00	2024-11-08T20:00:00	4	Temperatura máxima	17.3
19211	7	Sololá	701	Sololá	1	Sololá	4	Abril	2023-04-21T00:00:00	2024-11-08T20:00:00	3	Temperatura mínima	16.8
19212	7	Sololá	701	Sololá	1	Sololá	4	Abril	2023-04-21T00:00:00	2024-11-08T20:00:00	5	Humedad	92
19213	7	Sololá	701	Sololá	1	Sololá	4	Abril	2023-04-21T00:00:00	2024-11-08T20:00:00	6	Velocidad del viento	0
19214	7	Sololá	701	Sololá	1	Sololá	4	Abril	2023-04-21T00:00:00	2024-11-08T20:00:00	7	Dirección del viento	0
19215	7	Sololá	701	Sololá	1	Sololá	4	Abril	2023-04-21T00:00:00	2024-11-08T20:00:00	1	Precipitación	0
19216	7	Sololá	701	Sololá	1	Sololá	4	Abril	2023-04-21T00:00:00	2024-11-08T20:00:00	8	Radiación solar	0
19217	7	Sololá	701	Sololá	1	Sololá	4	Abril	2023-04-21T00:00:00	2024-11-08T21:00:00	2	Temperatura media	16.4
19218	7	Sololá	701	Sololá	1	Sololá	4	Abril	2023-04-21T00:00:00	2024-11-08T21:00:00	4	Temperatura máxima	16.8
19219	7	Sololá	701	Sololá	1	Sololá	4	Abril	2023-04-21T00:00:00	2024-11-08T21:00:00	3	Temperatura mínima	16.4
19220	7	Sololá	701	Sololá	1	Sololá	4	Abril	2023-04-21T00:00:00	2024-11-08T21:00:00	5	Humedad	92
19221	7	Sololá	701	Sololá	1	Sololá	4	Abril	2023-04-21T00:00:00	2024-11-08T21:00:00	6	Velocidad del viento	0
19222	7	Sololá	701	Sololá	1	Sololá	4	Abril	2023-04-21T00:00:00	2024-11-08T21:00:00	7	Dirección del viento	0
19223	7	Sololá	701	Sololá	1	Sololá	4	Abril	2023-04-21T00:00:00	2024-11-08T21:00:00	1	Precipitación	0
19224	7	Sololá	701	Sololá	1	Sololá	4	Abril	2023-04-21T00:00:00	2024-11-08T21:00:00	8	Radiación solar	0
19225	7	Sololá	701	Sololá	1	Sololá	4	Abril	2023-04-21T00:00:00	2024-11-08T22:00:00	2	Temperatura media	15.3
19226	7	Sololá	701	Sololá	1	Sololá	4	Abril	2023-04-21T00:00:00	2024-11-08T22:00:00	4	Temperatura máxima	16.4
19227	7	Sololá	701	Sololá	1	Sololá	4	Abril	2023-04-21T00:00:00	2024-11-08T22:00:00	3	Temperatura mínima	15.3
19228	7	Sololá	701	Sololá	1	Sololá	4	Abril	2023-04-21T00:00:00	2024-11-08T22:00:00	5	Humedad	90
19229	7	Sololá	701	Sololá	1	Sololá	4	Abril	2023-04-21T00:00:00	2024-11-08T22:00:00	6	Velocidad del viento	0
19230	7	Sololá	701	Sololá	1	Sololá	4	Abril	2023-04-21T00:00:00	2024-11-08T22:00:00	7	Dirección del viento	0
19231	7	Sololá	701	Sololá	1	Sololá	4	Abril	2023-04-21T00:00:00	2024-11-08T22:00:00	1	Precipitación	0
19232	7	Sololá	701	Sololá	1	Sololá	4	Abril	2023-04-21T00:00:00	2024-11-08T22:00:00	8	Radiación solar	0
19233	7	Sololá	701	Sololá	1	Sololá	4	Abril	2023-04-21T00:00:00	2024-11-08T23:00:00	2	Temperatura media	14.1
19234	7	Sololá	701	Sololá	1	Sololá	4	Abril	2023-04-21T00:00:00	2024-11-08T23:00:00	4	Temperatura máxima	15.3
19235	7	Sololá	701	Sololá	1	Sololá	4	Abril	2023-04-21T00:00:00	2024-11-08T23:00:00	3	Temperatura mínima	14.1
19236	7	Sololá	701	Sololá	1	Sololá	4	Abril	2023-04-21T00:00:00	2024-11-08T23:00:00	5	Humedad	91
19237	7	Sololá	701	Sololá	1	Sololá	4	Abril	2023-04-21T00:00:00	2024-11-08T23:00:00	6	Velocidad del viento	0
19238	7	Sololá	701	Sololá	1	Sololá	4	Abril	2023-04-21T00:00:00	2024-11-08T23:00:00	7	Dirección del viento	0
19239	7	Sololá	701	Sololá	1	Sololá	4	Abril	2023-04-21T00:00:00	2024-11-08T23:00:00	1	Precipitación	0
19240	7	Sololá	701	Sololá	1	Sololá	4	Abril	2023-04-21T00:00:00	2024-11-08T23:00:00	8	Radiación solar	0
19241	7	Sololá	701	Sololá	1	Sololá	4	Abril	2023-04-22T00:00:00	2024-11-08T00:00:00	2	Temperatura media	14.5
19242	7	Sololá	701	Sololá	1	Sololá	4	Abril	2023-04-22T00:00:00	2024-11-08T00:00:00	4	Temperatura máxima	14.8
19243	7	Sololá	701	Sololá	1	Sololá	4	Abril	2023-04-22T00:00:00	2024-11-08T00:00:00	3	Temperatura mínima	14.1
19244	7	Sololá	701	Sololá	1	Sololá	4	Abril	2023-04-22T00:00:00	2024-11-08T00:00:00	5	Humedad	89
19245	7	Sololá	701	Sololá	1	Sololá	4	Abril	2023-04-22T00:00:00	2024-11-08T00:00:00	6	Velocidad del viento	0
19246	7	Sololá	701	Sololá	1	Sololá	4	Abril	2023-04-22T00:00:00	2024-11-08T00:00:00	7	Dirección del viento	0
19247	7	Sololá	701	Sololá	1	Sololá	4	Abril	2023-04-22T00:00:00	2024-11-08T00:00:00	1	Precipitación	0
19248	7	Sololá	701	Sololá	1	Sololá	4	Abril	2023-04-22T00:00:00	2024-11-08T00:00:00	8	Radiación solar	0
19249	7	Sololá	701	Sololá	1	Sololá	4	Abril	2023-04-22T00:00:00	2024-11-08T01:00:00	2	Temperatura media	14.4
19250	7	Sololá	701	Sololá	1	Sololá	4	Abril	2023-04-22T00:00:00	2024-11-08T01:00:00	4	Temperatura máxima	14.7
19251	7	Sololá	701	Sololá	1	Sololá	4	Abril	2023-04-22T00:00:00	2024-11-08T01:00:00	3	Temperatura mínima	14.4
19252	7	Sololá	701	Sololá	1	Sololá	4	Abril	2023-04-22T00:00:00	2024-11-08T01:00:00	5	Humedad	86
19253	7	Sololá	701	Sololá	1	Sololá	4	Abril	2023-04-22T00:00:00	2024-11-08T01:00:00	6	Velocidad del viento	0
19254	7	Sololá	701	Sololá	1	Sololá	4	Abril	2023-04-22T00:00:00	2024-11-08T01:00:00	7	Dirección del viento	0
19255	7	Sololá	701	Sololá	1	Sololá	4	Abril	2023-04-22T00:00:00	2024-11-08T01:00:00	1	Precipitación	0
19256	7	Sololá	701	Sololá	1	Sololá	4	Abril	2023-04-22T00:00:00	2024-11-08T01:00:00	8	Radiación solar	0
19257	7	Sololá	701	Sololá	1	Sololá	4	Abril	2023-04-22T00:00:00	2024-11-08T02:00:00	2	Temperatura media	13.4
19258	7	Sololá	701	Sololá	1	Sololá	4	Abril	2023-04-22T00:00:00	2024-11-08T02:00:00	4	Temperatura máxima	14.5
19259	7	Sololá	701	Sololá	1	Sololá	4	Abril	2023-04-22T00:00:00	2024-11-08T02:00:00	3	Temperatura mínima	13.4
19260	7	Sololá	701	Sololá	1	Sololá	4	Abril	2023-04-22T00:00:00	2024-11-08T02:00:00	5	Humedad	85
19261	7	Sololá	701	Sololá	1	Sololá	4	Abril	2023-04-22T00:00:00	2024-11-08T02:00:00	6	Velocidad del viento	0
19262	7	Sololá	701	Sololá	1	Sololá	4	Abril	2023-04-22T00:00:00	2024-11-08T02:00:00	7	Dirección del viento	0
19263	7	Sololá	701	Sololá	1	Sololá	4	Abril	2023-04-22T00:00:00	2024-11-08T02:00:00	1	Precipitación	0
19264	7	Sololá	701	Sololá	1	Sololá	4	Abril	2023-04-22T00:00:00	2024-11-08T02:00:00	8	Radiación solar	0
19265	7	Sololá	701	Sololá	1	Sololá	4	Abril	2023-04-22T00:00:00	2024-11-08T03:00:00	2	Temperatura media	13
19266	7	Sololá	701	Sololá	1	Sololá	4	Abril	2023-04-22T00:00:00	2024-11-08T03:00:00	4	Temperatura máxima	13.4
19267	7	Sololá	701	Sololá	1	Sololá	4	Abril	2023-04-22T00:00:00	2024-11-08T03:00:00	3	Temperatura mínima	13
19268	7	Sololá	701	Sololá	1	Sololá	4	Abril	2023-04-22T00:00:00	2024-11-08T03:00:00	5	Humedad	84
19269	7	Sololá	701	Sololá	1	Sololá	4	Abril	2023-04-22T00:00:00	2024-11-08T03:00:00	6	Velocidad del viento	0
19270	7	Sololá	701	Sololá	1	Sololá	4	Abril	2023-04-22T00:00:00	2024-11-08T03:00:00	7	Dirección del viento	0
19271	7	Sololá	701	Sololá	1	Sololá	4	Abril	2023-04-22T00:00:00	2024-11-08T03:00:00	1	Precipitación	0
19272	7	Sololá	701	Sololá	1	Sololá	4	Abril	2023-04-22T00:00:00	2024-11-08T03:00:00	8	Radiación solar	0
19273	7	Sololá	701	Sololá	1	Sololá	4	Abril	2023-04-22T00:00:00	2024-11-08T04:00:00	2	Temperatura media	12.9
19274	7	Sololá	701	Sololá	1	Sololá	4	Abril	2023-04-22T00:00:00	2024-11-08T04:00:00	4	Temperatura máxima	13.3
19275	7	Sololá	701	Sololá	1	Sololá	4	Abril	2023-04-22T00:00:00	2024-11-08T04:00:00	3	Temperatura mínima	12.9
19276	7	Sololá	701	Sololá	1	Sololá	4	Abril	2023-04-22T00:00:00	2024-11-08T04:00:00	5	Humedad	82
19277	7	Sololá	701	Sololá	1	Sololá	4	Abril	2023-04-22T00:00:00	2024-11-08T04:00:00	6	Velocidad del viento	0
19278	7	Sololá	701	Sololá	1	Sololá	4	Abril	2023-04-22T00:00:00	2024-11-08T04:00:00	7	Dirección del viento	0
19279	7	Sololá	701	Sololá	1	Sololá	4	Abril	2023-04-22T00:00:00	2024-11-08T04:00:00	1	Precipitación	0
19280	7	Sololá	701	Sololá	1	Sololá	4	Abril	2023-04-22T00:00:00	2024-11-08T04:00:00	8	Radiación solar	0
19281	7	Sololá	701	Sololá	1	Sololá	4	Abril	2023-04-22T00:00:00	2024-11-08T05:00:00	2	Temperatura media	13.3
19282	7	Sololá	701	Sololá	1	Sololá	4	Abril	2023-04-22T00:00:00	2024-11-08T05:00:00	4	Temperatura máxima	13.3
19283	7	Sololá	701	Sololá	1	Sololá	4	Abril	2023-04-22T00:00:00	2024-11-08T05:00:00	3	Temperatura mínima	12.9
19284	7	Sololá	701	Sololá	1	Sololá	4	Abril	2023-04-22T00:00:00	2024-11-08T05:00:00	5	Humedad	80
19285	7	Sololá	701	Sololá	1	Sololá	4	Abril	2023-04-22T00:00:00	2024-11-08T05:00:00	6	Velocidad del viento	1.6
19286	7	Sololá	701	Sololá	1	Sololá	4	Abril	2023-04-22T00:00:00	2024-11-08T05:00:00	7	Dirección del viento	1.61
19287	7	Sololá	701	Sololá	1	Sololá	4	Abril	2023-04-22T00:00:00	2024-11-08T05:00:00	1	Precipitación	0
19288	7	Sololá	701	Sololá	1	Sololá	4	Abril	2023-04-22T00:00:00	2024-11-08T05:00:00	8	Radiación solar	0
19289	7	Sololá	701	Sololá	1	Sololá	4	Abril	2023-04-22T00:00:00	2024-11-08T06:00:00	2	Temperatura media	12.9
19290	7	Sololá	701	Sololá	1	Sololá	4	Abril	2023-04-22T00:00:00	2024-11-08T06:00:00	4	Temperatura máxima	13.3
19291	7	Sololá	701	Sololá	1	Sololá	4	Abril	2023-04-22T00:00:00	2024-11-08T06:00:00	3	Temperatura mínima	12.9
19292	7	Sololá	701	Sololá	1	Sololá	4	Abril	2023-04-22T00:00:00	2024-11-08T06:00:00	5	Humedad	80
19293	7	Sololá	701	Sololá	1	Sololá	4	Abril	2023-04-22T00:00:00	2024-11-08T06:00:00	6	Velocidad del viento	1.6
19294	7	Sololá	701	Sololá	1	Sololá	4	Abril	2023-04-22T00:00:00	2024-11-08T06:00:00	7	Dirección del viento	1.61
19295	7	Sololá	701	Sololá	1	Sololá	4	Abril	2023-04-22T00:00:00	2024-11-08T06:00:00	1	Precipitación	0
19296	7	Sololá	701	Sololá	1	Sololá	4	Abril	2023-04-22T00:00:00	2024-11-08T06:00:00	8	Radiación solar	1
19297	7	Sololá	701	Sololá	1	Sololá	4	Abril	2023-04-22T00:00:00	2024-11-08T07:00:00	2	Temperatura media	12.7
19298	7	Sololá	701	Sololá	1	Sololá	4	Abril	2023-04-22T00:00:00	2024-11-08T07:00:00	4	Temperatura máxima	13.1
19299	7	Sololá	701	Sololá	1	Sololá	4	Abril	2023-04-22T00:00:00	2024-11-08T07:00:00	3	Temperatura mínima	12.6
19300	7	Sololá	701	Sololá	1	Sololá	4	Abril	2023-04-22T00:00:00	2024-11-08T07:00:00	5	Humedad	75
19301	7	Sololá	701	Sololá	1	Sololá	4	Abril	2023-04-22T00:00:00	2024-11-08T07:00:00	6	Velocidad del viento	0
19302	7	Sololá	701	Sololá	1	Sololá	4	Abril	2023-04-22T00:00:00	2024-11-08T07:00:00	7	Dirección del viento	0
19303	7	Sololá	701	Sololá	1	Sololá	4	Abril	2023-04-22T00:00:00	2024-11-08T07:00:00	1	Precipitación	0
19304	7	Sololá	701	Sololá	1	Sololá	4	Abril	2023-04-22T00:00:00	2024-11-08T07:00:00	8	Radiación solar	19
19305	7	Sololá	701	Sololá	1	Sololá	4	Abril	2023-04-22T00:00:00	2024-11-08T08:00:00	2	Temperatura media	13.8
19306	7	Sololá	701	Sololá	1	Sololá	4	Abril	2023-04-22T00:00:00	2024-11-08T08:00:00	4	Temperatura máxima	13.8
19307	7	Sololá	701	Sololá	1	Sololá	4	Abril	2023-04-22T00:00:00	2024-11-08T08:00:00	3	Temperatura mínima	12.6
19308	7	Sololá	701	Sololá	1	Sololá	4	Abril	2023-04-22T00:00:00	2024-11-08T08:00:00	5	Humedad	73
19309	7	Sololá	701	Sololá	1	Sololá	4	Abril	2023-04-22T00:00:00	2024-11-08T08:00:00	6	Velocidad del viento	0
19310	7	Sololá	701	Sololá	1	Sololá	4	Abril	2023-04-22T00:00:00	2024-11-08T08:00:00	7	Dirección del viento	0
19311	7	Sololá	701	Sololá	1	Sololá	4	Abril	2023-04-22T00:00:00	2024-11-08T08:00:00	1	Precipitación	0
19312	7	Sololá	701	Sololá	1	Sololá	4	Abril	2023-04-22T00:00:00	2024-11-08T08:00:00	8	Radiación solar	256
19313	7	Sololá	701	Sololá	1	Sololá	4	Abril	2023-04-22T00:00:00	2024-11-08T09:00:00	2	Temperatura media	17.6
19314	7	Sololá	701	Sololá	1	Sololá	4	Abril	2023-04-22T00:00:00	2024-11-08T09:00:00	4	Temperatura máxima	17.6
19315	7	Sololá	701	Sololá	1	Sololá	4	Abril	2023-04-22T00:00:00	2024-11-08T09:00:00	3	Temperatura mínima	13.7
19316	7	Sololá	701	Sololá	1	Sololá	4	Abril	2023-04-22T00:00:00	2024-11-08T09:00:00	5	Humedad	66
19317	7	Sololá	701	Sololá	1	Sololá	4	Abril	2023-04-22T00:00:00	2024-11-08T09:00:00	6	Velocidad del viento	0
19318	7	Sololá	701	Sololá	1	Sololá	4	Abril	2023-04-22T00:00:00	2024-11-08T09:00:00	7	Dirección del viento	0
19319	7	Sololá	701	Sololá	1	Sololá	4	Abril	2023-04-22T00:00:00	2024-11-08T09:00:00	1	Precipitación	0
19320	7	Sololá	701	Sololá	1	Sololá	4	Abril	2023-04-22T00:00:00	2024-11-08T09:00:00	8	Radiación solar	599
19321	7	Sololá	701	Sololá	1	Sololá	4	Abril	2023-04-22T00:00:00	2024-11-08T10:00:00	2	Temperatura media	21.8
19322	7	Sololá	701	Sololá	1	Sololá	4	Abril	2023-04-22T00:00:00	2024-11-08T10:00:00	4	Temperatura máxima	21.8
19323	7	Sololá	701	Sololá	1	Sololá	4	Abril	2023-04-22T00:00:00	2024-11-08T10:00:00	3	Temperatura mínima	17.7
19324	7	Sololá	701	Sololá	1	Sololá	4	Abril	2023-04-22T00:00:00	2024-11-08T10:00:00	5	Humedad	39
19325	7	Sololá	701	Sololá	1	Sololá	4	Abril	2023-04-22T00:00:00	2024-11-08T10:00:00	6	Velocidad del viento	0
19326	7	Sololá	701	Sololá	1	Sololá	4	Abril	2023-04-22T00:00:00	2024-11-08T10:00:00	7	Dirección del viento	0
19327	7	Sololá	701	Sololá	1	Sololá	4	Abril	2023-04-22T00:00:00	2024-11-08T10:00:00	1	Precipitación	0
19328	7	Sololá	701	Sololá	1	Sololá	4	Abril	2023-04-22T00:00:00	2024-11-08T10:00:00	8	Radiación solar	789
19329	7	Sololá	701	Sololá	1	Sololá	4	Abril	2023-04-22T00:00:00	2024-11-08T11:00:00	2	Temperatura media	24.4
19330	7	Sololá	701	Sololá	1	Sololá	4	Abril	2023-04-22T00:00:00	2024-11-08T11:00:00	4	Temperatura máxima	24.4
19331	7	Sololá	701	Sololá	1	Sololá	4	Abril	2023-04-22T00:00:00	2024-11-08T11:00:00	3	Temperatura mínima	21.8
19332	7	Sololá	701	Sololá	1	Sololá	4	Abril	2023-04-22T00:00:00	2024-11-08T11:00:00	5	Humedad	38
19333	7	Sololá	701	Sololá	1	Sololá	4	Abril	2023-04-22T00:00:00	2024-11-08T11:00:00	6	Velocidad del viento	1.6
19334	7	Sololá	701	Sololá	1	Sololá	4	Abril	2023-04-22T00:00:00	2024-11-08T11:00:00	7	Dirección del viento	1.61
19335	7	Sololá	701	Sololá	1	Sololá	4	Abril	2023-04-22T00:00:00	2024-11-08T11:00:00	1	Precipitación	0
19336	7	Sololá	701	Sololá	1	Sololá	4	Abril	2023-04-22T00:00:00	2024-11-08T11:00:00	8	Radiación solar	903
19337	7	Sololá	701	Sololá	1	Sololá	4	Abril	2023-04-22T00:00:00	2024-11-08T12:00:00	2	Temperatura media	24.4
19338	7	Sololá	701	Sololá	1	Sololá	4	Abril	2023-04-22T00:00:00	2024-11-08T12:00:00	4	Temperatura máxima	25.2
19339	7	Sololá	701	Sololá	1	Sololá	4	Abril	2023-04-22T00:00:00	2024-11-08T12:00:00	3	Temperatura mínima	24.4
19340	7	Sololá	701	Sololá	1	Sololá	4	Abril	2023-04-22T00:00:00	2024-11-08T12:00:00	5	Humedad	52
19341	7	Sololá	701	Sololá	1	Sololá	4	Abril	2023-04-22T00:00:00	2024-11-08T12:00:00	6	Velocidad del viento	1.6
19342	7	Sololá	701	Sololá	1	Sololá	4	Abril	2023-04-22T00:00:00	2024-11-08T12:00:00	7	Dirección del viento	1.61
19343	7	Sololá	701	Sololá	1	Sololá	4	Abril	2023-04-22T00:00:00	2024-11-08T12:00:00	1	Precipitación	0
19344	7	Sololá	701	Sololá	1	Sololá	4	Abril	2023-04-22T00:00:00	2024-11-08T12:00:00	8	Radiación solar	943
19345	7	Sololá	701	Sololá	1	Sololá	4	Abril	2023-04-22T00:00:00	2024-11-08T13:00:00	2	Temperatura media	23.6
19346	7	Sololá	701	Sololá	1	Sololá	4	Abril	2023-04-22T00:00:00	2024-11-08T13:00:00	4	Temperatura máxima	24.4
19347	7	Sololá	701	Sololá	1	Sololá	4	Abril	2023-04-22T00:00:00	2024-11-08T13:00:00	3	Temperatura mínima	23.6
19348	7	Sololá	701	Sololá	1	Sololá	4	Abril	2023-04-22T00:00:00	2024-11-08T13:00:00	5	Humedad	62
19349	7	Sololá	701	Sololá	1	Sololá	4	Abril	2023-04-22T00:00:00	2024-11-08T13:00:00	6	Velocidad del viento	0
19350	7	Sololá	701	Sololá	1	Sololá	4	Abril	2023-04-22T00:00:00	2024-11-08T13:00:00	7	Dirección del viento	0
19351	7	Sololá	701	Sololá	1	Sololá	4	Abril	2023-04-22T00:00:00	2024-11-08T13:00:00	1	Precipitación	0
19352	7	Sololá	701	Sololá	1	Sololá	4	Abril	2023-04-22T00:00:00	2024-11-08T13:00:00	8	Radiación solar	872
19353	7	Sololá	701	Sololá	1	Sololá	4	Abril	2023-04-22T00:00:00	2024-11-08T14:00:00	2	Temperatura media	23.1
19354	7	Sololá	701	Sololá	1	Sololá	4	Abril	2023-04-22T00:00:00	2024-11-08T14:00:00	4	Temperatura máxima	23.7
19355	7	Sololá	701	Sololá	1	Sololá	4	Abril	2023-04-22T00:00:00	2024-11-08T14:00:00	3	Temperatura mínima	22.6
19356	7	Sololá	701	Sololá	1	Sololá	4	Abril	2023-04-22T00:00:00	2024-11-08T14:00:00	5	Humedad	69
19357	7	Sololá	701	Sololá	1	Sololá	4	Abril	2023-04-22T00:00:00	2024-11-08T14:00:00	6	Velocidad del viento	0
19358	7	Sololá	701	Sololá	1	Sololá	4	Abril	2023-04-22T00:00:00	2024-11-08T14:00:00	7	Dirección del viento	0
19359	7	Sololá	701	Sololá	1	Sololá	4	Abril	2023-04-22T00:00:00	2024-11-08T14:00:00	1	Precipitación	0
19360	7	Sololá	701	Sololá	1	Sololá	4	Abril	2023-04-22T00:00:00	2024-11-08T14:00:00	8	Radiación solar	260
19361	7	Sololá	701	Sololá	1	Sololá	4	Abril	2023-04-22T00:00:00	2024-11-08T15:00:00	2	Temperatura media	22.1
19362	7	Sololá	701	Sololá	1	Sololá	4	Abril	2023-04-22T00:00:00	2024-11-08T15:00:00	4	Temperatura máxima	23.2
19363	7	Sololá	701	Sololá	1	Sololá	4	Abril	2023-04-22T00:00:00	2024-11-08T15:00:00	3	Temperatura mínima	22
19364	7	Sololá	701	Sololá	1	Sololá	4	Abril	2023-04-22T00:00:00	2024-11-08T15:00:00	5	Humedad	76
19365	7	Sololá	701	Sololá	1	Sololá	4	Abril	2023-04-22T00:00:00	2024-11-08T15:00:00	6	Velocidad del viento	1.6
19366	7	Sololá	701	Sololá	1	Sololá	4	Abril	2023-04-22T00:00:00	2024-11-08T15:00:00	7	Dirección del viento	1.61
19367	7	Sololá	701	Sololá	1	Sololá	4	Abril	2023-04-22T00:00:00	2024-11-08T15:00:00	1	Precipitación	0
19368	7	Sololá	701	Sololá	1	Sololá	4	Abril	2023-04-22T00:00:00	2024-11-08T15:00:00	8	Radiación solar	232
19369	7	Sololá	701	Sololá	1	Sololá	4	Abril	2023-04-22T00:00:00	2024-11-08T16:00:00	2	Temperatura media	21.8
19370	7	Sololá	701	Sololá	1	Sololá	4	Abril	2023-04-22T00:00:00	2024-11-08T16:00:00	4	Temperatura máxima	22.4
19371	7	Sololá	701	Sololá	1	Sololá	4	Abril	2023-04-22T00:00:00	2024-11-08T16:00:00	3	Temperatura mínima	21.8
19372	7	Sololá	701	Sololá	1	Sololá	4	Abril	2023-04-22T00:00:00	2024-11-08T16:00:00	5	Humedad	76
19373	7	Sololá	701	Sololá	1	Sololá	4	Abril	2023-04-22T00:00:00	2024-11-08T16:00:00	6	Velocidad del viento	0
19374	7	Sololá	701	Sololá	1	Sololá	4	Abril	2023-04-22T00:00:00	2024-11-08T16:00:00	7	Dirección del viento	0
19375	7	Sololá	701	Sololá	1	Sololá	4	Abril	2023-04-22T00:00:00	2024-11-08T16:00:00	1	Precipitación	0
19376	7	Sololá	701	Sololá	1	Sololá	4	Abril	2023-04-22T00:00:00	2024-11-08T16:00:00	8	Radiación solar	137
19377	7	Sololá	701	Sololá	1	Sololá	4	Abril	2023-04-22T00:00:00	2024-11-08T17:00:00	2	Temperatura media	20.4
19378	7	Sololá	701	Sololá	1	Sololá	4	Abril	2023-04-22T00:00:00	2024-11-08T17:00:00	4	Temperatura máxima	21.8
19379	7	Sololá	701	Sololá	1	Sololá	4	Abril	2023-04-22T00:00:00	2024-11-08T17:00:00	3	Temperatura mínima	20.4
19380	7	Sololá	701	Sololá	1	Sololá	4	Abril	2023-04-22T00:00:00	2024-11-08T17:00:00	5	Humedad	81
19381	7	Sololá	701	Sololá	1	Sololá	4	Abril	2023-04-22T00:00:00	2024-11-08T17:00:00	6	Velocidad del viento	0
19382	7	Sololá	701	Sololá	1	Sololá	4	Abril	2023-04-22T00:00:00	2024-11-08T17:00:00	7	Dirección del viento	0
19383	7	Sololá	701	Sololá	1	Sololá	4	Abril	2023-04-22T00:00:00	2024-11-08T17:00:00	1	Precipitación	0
19384	7	Sololá	701	Sololá	1	Sololá	4	Abril	2023-04-22T00:00:00	2024-11-08T17:00:00	8	Radiación solar	43
19385	7	Sololá	701	Sololá	1	Sololá	4	Abril	2023-04-22T00:00:00	2024-11-08T18:00:00	2	Temperatura media	18.6
19386	7	Sololá	701	Sololá	1	Sololá	4	Abril	2023-04-22T00:00:00	2024-11-08T18:00:00	4	Temperatura máxima	20.4
19387	7	Sololá	701	Sololá	1	Sololá	4	Abril	2023-04-22T00:00:00	2024-11-08T18:00:00	3	Temperatura mínima	18.6
19388	7	Sololá	701	Sololá	1	Sololá	4	Abril	2023-04-22T00:00:00	2024-11-08T18:00:00	5	Humedad	87
19389	7	Sololá	701	Sololá	1	Sololá	4	Abril	2023-04-22T00:00:00	2024-11-08T18:00:00	6	Velocidad del viento	0
19390	7	Sololá	701	Sololá	1	Sololá	4	Abril	2023-04-22T00:00:00	2024-11-08T18:00:00	7	Dirección del viento	0
19391	7	Sololá	701	Sololá	1	Sololá	4	Abril	2023-04-22T00:00:00	2024-11-08T18:00:00	1	Precipitación	0
19392	7	Sololá	701	Sololá	1	Sololá	4	Abril	2023-04-22T00:00:00	2024-11-08T18:00:00	8	Radiación solar	22
19393	7	Sololá	701	Sololá	1	Sololá	4	Abril	2023-04-22T00:00:00	2024-11-08T19:00:00	2	Temperatura media	18.3
19394	7	Sololá	701	Sololá	1	Sololá	4	Abril	2023-04-22T00:00:00	2024-11-08T19:00:00	4	Temperatura máxima	18.7
19395	7	Sololá	701	Sololá	1	Sololá	4	Abril	2023-04-22T00:00:00	2024-11-08T19:00:00	3	Temperatura mínima	18.2
19396	7	Sololá	701	Sololá	1	Sololá	4	Abril	2023-04-22T00:00:00	2024-11-08T19:00:00	5	Humedad	89
19397	7	Sololá	701	Sololá	1	Sololá	4	Abril	2023-04-22T00:00:00	2024-11-08T19:00:00	6	Velocidad del viento	0
19398	7	Sololá	701	Sololá	1	Sololá	4	Abril	2023-04-22T00:00:00	2024-11-08T19:00:00	7	Dirección del viento	0
19399	7	Sololá	701	Sololá	1	Sololá	4	Abril	2023-04-22T00:00:00	2024-11-08T19:00:00	1	Precipitación	0
19400	7	Sololá	701	Sololá	1	Sololá	4	Abril	2023-04-22T00:00:00	2024-11-08T19:00:00	8	Radiación solar	0
19401	7	Sololá	701	Sololá	1	Sololá	4	Abril	2023-04-22T00:00:00	2024-11-08T20:00:00	2	Temperatura media	17.8
19402	7	Sololá	701	Sololá	1	Sololá	4	Abril	2023-04-22T00:00:00	2024-11-08T20:00:00	4	Temperatura máxima	18.2
19403	7	Sololá	701	Sololá	1	Sololá	4	Abril	2023-04-22T00:00:00	2024-11-08T20:00:00	3	Temperatura mínima	17.8
19404	7	Sololá	701	Sololá	1	Sololá	4	Abril	2023-04-22T00:00:00	2024-11-08T20:00:00	5	Humedad	90
19405	7	Sololá	701	Sololá	1	Sololá	4	Abril	2023-04-22T00:00:00	2024-11-08T20:00:00	6	Velocidad del viento	0
19406	7	Sololá	701	Sololá	1	Sololá	4	Abril	2023-04-22T00:00:00	2024-11-08T20:00:00	7	Dirección del viento	0
19407	7	Sololá	701	Sololá	1	Sololá	4	Abril	2023-04-22T00:00:00	2024-11-08T20:00:00	1	Precipitación	0
19408	7	Sololá	701	Sololá	1	Sololá	4	Abril	2023-04-22T00:00:00	2024-11-08T20:00:00	8	Radiación solar	0
19409	7	Sololá	701	Sololá	1	Sololá	4	Abril	2023-04-22T00:00:00	2024-11-08T21:00:00	2	Temperatura media	16.9
19410	7	Sololá	701	Sololá	1	Sololá	4	Abril	2023-04-22T00:00:00	2024-11-08T21:00:00	4	Temperatura máxima	17.8
19411	7	Sololá	701	Sololá	1	Sololá	4	Abril	2023-04-22T00:00:00	2024-11-08T21:00:00	3	Temperatura mínima	16.9
19412	7	Sololá	701	Sololá	1	Sololá	4	Abril	2023-04-22T00:00:00	2024-11-08T21:00:00	5	Humedad	91
19413	7	Sololá	701	Sololá	1	Sololá	4	Abril	2023-04-22T00:00:00	2024-11-08T21:00:00	6	Velocidad del viento	0
19414	7	Sololá	701	Sololá	1	Sololá	4	Abril	2023-04-22T00:00:00	2024-11-08T21:00:00	7	Dirección del viento	0
19415	7	Sololá	701	Sololá	1	Sololá	4	Abril	2023-04-22T00:00:00	2024-11-08T21:00:00	1	Precipitación	0
19416	7	Sololá	701	Sololá	1	Sololá	4	Abril	2023-04-22T00:00:00	2024-11-08T21:00:00	8	Radiación solar	0
19417	7	Sololá	701	Sololá	1	Sololá	4	Abril	2023-04-22T00:00:00	2024-11-08T22:00:00	2	Temperatura media	16.1
19418	7	Sololá	701	Sololá	1	Sololá	4	Abril	2023-04-22T00:00:00	2024-11-08T22:00:00	4	Temperatura máxima	16.9
19419	7	Sololá	701	Sololá	1	Sololá	4	Abril	2023-04-22T00:00:00	2024-11-08T22:00:00	3	Temperatura mínima	16.1
19420	7	Sololá	701	Sololá	1	Sololá	4	Abril	2023-04-22T00:00:00	2024-11-08T22:00:00	5	Humedad	89
19421	7	Sololá	701	Sololá	1	Sololá	4	Abril	2023-04-22T00:00:00	2024-11-08T22:00:00	6	Velocidad del viento	0
19422	7	Sololá	701	Sololá	1	Sololá	4	Abril	2023-04-22T00:00:00	2024-11-08T22:00:00	7	Dirección del viento	0
19423	7	Sololá	701	Sololá	1	Sololá	4	Abril	2023-04-22T00:00:00	2024-11-08T22:00:00	1	Precipitación	0
19424	7	Sololá	701	Sololá	1	Sololá	4	Abril	2023-04-22T00:00:00	2024-11-08T22:00:00	8	Radiación solar	0
19425	7	Sololá	701	Sololá	1	Sololá	4	Abril	2023-04-22T00:00:00	2024-11-08T23:00:00	2	Temperatura media	16
19426	7	Sololá	701	Sololá	1	Sololá	4	Abril	2023-04-22T00:00:00	2024-11-08T23:00:00	4	Temperatura máxima	16.1
19427	7	Sololá	701	Sololá	1	Sololá	4	Abril	2023-04-22T00:00:00	2024-11-08T23:00:00	3	Temperatura mínima	15.8
19428	7	Sololá	701	Sololá	1	Sololá	4	Abril	2023-04-22T00:00:00	2024-11-08T23:00:00	5	Humedad	90
19429	7	Sololá	701	Sololá	1	Sololá	4	Abril	2023-04-22T00:00:00	2024-11-08T23:00:00	6	Velocidad del viento	0
19430	7	Sololá	701	Sololá	1	Sololá	4	Abril	2023-04-22T00:00:00	2024-11-08T23:00:00	7	Dirección del viento	0
19431	7	Sololá	701	Sololá	1	Sololá	4	Abril	2023-04-22T00:00:00	2024-11-08T23:00:00	1	Precipitación	0
19432	7	Sololá	701	Sololá	1	Sololá	4	Abril	2023-04-22T00:00:00	2024-11-08T23:00:00	8	Radiación solar	0
19433	7	Sololá	701	Sololá	1	Sololá	4	Abril	2023-04-23T00:00:00	2024-11-08T00:00:00	2	Temperatura media	15.4
19434	7	Sololá	701	Sololá	1	Sololá	4	Abril	2023-04-23T00:00:00	2024-11-08T00:00:00	4	Temperatura máxima	16.1
19435	7	Sololá	701	Sololá	1	Sololá	4	Abril	2023-04-23T00:00:00	2024-11-08T00:00:00	3	Temperatura mínima	15.4
19436	7	Sololá	701	Sololá	1	Sololá	4	Abril	2023-04-23T00:00:00	2024-11-08T00:00:00	5	Humedad	90
19437	7	Sololá	701	Sololá	1	Sololá	4	Abril	2023-04-23T00:00:00	2024-11-08T00:00:00	6	Velocidad del viento	0
19438	7	Sololá	701	Sololá	1	Sololá	4	Abril	2023-04-23T00:00:00	2024-11-08T00:00:00	7	Dirección del viento	0
19439	7	Sololá	701	Sololá	1	Sololá	4	Abril	2023-04-23T00:00:00	2024-11-08T00:00:00	1	Precipitación	0
19440	7	Sololá	701	Sololá	1	Sololá	4	Abril	2023-04-23T00:00:00	2024-11-08T00:00:00	8	Radiación solar	0
19441	7	Sololá	701	Sololá	1	Sololá	4	Abril	2023-04-23T00:00:00	2024-11-08T01:00:00	2	Temperatura media	14.7
19442	7	Sololá	701	Sololá	1	Sololá	4	Abril	2023-04-23T00:00:00	2024-11-08T01:00:00	4	Temperatura máxima	15.4
19443	7	Sololá	701	Sololá	1	Sololá	4	Abril	2023-04-23T00:00:00	2024-11-08T01:00:00	3	Temperatura mínima	14.7
19444	7	Sololá	701	Sololá	1	Sololá	4	Abril	2023-04-23T00:00:00	2024-11-08T01:00:00	5	Humedad	87
19445	7	Sololá	701	Sololá	1	Sololá	4	Abril	2023-04-23T00:00:00	2024-11-08T01:00:00	6	Velocidad del viento	0
19446	7	Sololá	701	Sololá	1	Sololá	4	Abril	2023-04-23T00:00:00	2024-11-08T01:00:00	7	Dirección del viento	0
19447	7	Sololá	701	Sololá	1	Sololá	4	Abril	2023-04-23T00:00:00	2024-11-08T01:00:00	1	Precipitación	0
19448	7	Sololá	701	Sololá	1	Sololá	4	Abril	2023-04-23T00:00:00	2024-11-08T01:00:00	8	Radiación solar	0
19449	7	Sololá	701	Sololá	1	Sololá	4	Abril	2023-04-23T00:00:00	2024-11-08T02:00:00	2	Temperatura media	13.9
19450	7	Sololá	701	Sololá	1	Sololá	4	Abril	2023-04-23T00:00:00	2024-11-08T02:00:00	4	Temperatura máxima	14.7
19451	7	Sololá	701	Sololá	1	Sololá	4	Abril	2023-04-23T00:00:00	2024-11-08T02:00:00	3	Temperatura mínima	13.9
19452	7	Sololá	701	Sololá	1	Sololá	4	Abril	2023-04-23T00:00:00	2024-11-08T02:00:00	5	Humedad	89
19453	7	Sololá	701	Sololá	1	Sololá	4	Abril	2023-04-23T00:00:00	2024-11-08T02:00:00	6	Velocidad del viento	0
19454	7	Sololá	701	Sololá	1	Sololá	4	Abril	2023-04-23T00:00:00	2024-11-08T02:00:00	7	Dirección del viento	0
19455	7	Sololá	701	Sololá	1	Sololá	4	Abril	2023-04-23T00:00:00	2024-11-08T02:00:00	1	Precipitación	0
19456	7	Sololá	701	Sololá	1	Sololá	4	Abril	2023-04-23T00:00:00	2024-11-08T02:00:00	8	Radiación solar	0
19457	7	Sololá	701	Sololá	1	Sololá	4	Abril	2023-04-23T00:00:00	2024-11-08T03:00:00	2	Temperatura media	13.6
19458	7	Sololá	701	Sololá	1	Sololá	4	Abril	2023-04-23T00:00:00	2024-11-08T03:00:00	4	Temperatura máxima	13.9
19459	7	Sololá	701	Sololá	1	Sololá	4	Abril	2023-04-23T00:00:00	2024-11-08T03:00:00	3	Temperatura mínima	13.6
19460	7	Sololá	701	Sololá	1	Sololá	4	Abril	2023-04-23T00:00:00	2024-11-08T03:00:00	5	Humedad	89
19461	7	Sololá	701	Sololá	1	Sololá	4	Abril	2023-04-23T00:00:00	2024-11-08T03:00:00	6	Velocidad del viento	0
19462	7	Sololá	701	Sololá	1	Sololá	4	Abril	2023-04-23T00:00:00	2024-11-08T03:00:00	7	Dirección del viento	0
19463	7	Sololá	701	Sololá	1	Sololá	4	Abril	2023-04-23T00:00:00	2024-11-08T03:00:00	1	Precipitación	0
19464	7	Sololá	701	Sololá	1	Sololá	4	Abril	2023-04-23T00:00:00	2024-11-08T03:00:00	8	Radiación solar	0
19465	7	Sololá	701	Sololá	1	Sololá	4	Abril	2023-04-23T00:00:00	2024-11-08T04:00:00	2	Temperatura media	13.2
19466	7	Sololá	701	Sololá	1	Sololá	4	Abril	2023-04-23T00:00:00	2024-11-08T04:00:00	4	Temperatura máxima	13.6
19467	7	Sololá	701	Sololá	1	Sololá	4	Abril	2023-04-23T00:00:00	2024-11-08T04:00:00	3	Temperatura mínima	13.2
19468	7	Sololá	701	Sololá	1	Sololá	4	Abril	2023-04-23T00:00:00	2024-11-08T04:00:00	5	Humedad	89
19469	7	Sololá	701	Sololá	1	Sololá	4	Abril	2023-04-23T00:00:00	2024-11-08T04:00:00	6	Velocidad del viento	0
19470	7	Sololá	701	Sololá	1	Sololá	4	Abril	2023-04-23T00:00:00	2024-11-08T04:00:00	7	Dirección del viento	0
19471	7	Sololá	701	Sololá	1	Sololá	4	Abril	2023-04-23T00:00:00	2024-11-08T04:00:00	1	Precipitación	0
19472	7	Sololá	701	Sololá	1	Sololá	4	Abril	2023-04-23T00:00:00	2024-11-08T04:00:00	8	Radiación solar	0
19473	7	Sololá	701	Sololá	1	Sololá	4	Abril	2023-04-23T00:00:00	2024-11-08T05:00:00	2	Temperatura media	12.8
19474	7	Sololá	701	Sololá	1	Sololá	4	Abril	2023-04-23T00:00:00	2024-11-08T05:00:00	4	Temperatura máxima	13.2
19475	7	Sololá	701	Sololá	1	Sololá	4	Abril	2023-04-23T00:00:00	2024-11-08T05:00:00	3	Temperatura mínima	12.8
19476	7	Sololá	701	Sololá	1	Sololá	4	Abril	2023-04-23T00:00:00	2024-11-08T05:00:00	5	Humedad	87
19477	7	Sololá	701	Sololá	1	Sololá	4	Abril	2023-04-23T00:00:00	2024-11-08T05:00:00	6	Velocidad del viento	0
19478	7	Sololá	701	Sololá	1	Sololá	4	Abril	2023-04-23T00:00:00	2024-11-08T05:00:00	7	Dirección del viento	0
19479	7	Sololá	701	Sololá	1	Sololá	4	Abril	2023-04-23T00:00:00	2024-11-08T05:00:00	1	Precipitación	0
19480	7	Sololá	701	Sololá	1	Sololá	4	Abril	2023-04-23T00:00:00	2024-11-08T05:00:00	8	Radiación solar	0
19481	7	Sololá	701	Sololá	1	Sololá	4	Abril	2023-04-23T00:00:00	2024-11-08T06:00:00	2	Temperatura media	12.2
19482	7	Sololá	701	Sololá	1	Sololá	4	Abril	2023-04-23T00:00:00	2024-11-08T06:00:00	4	Temperatura máxima	12.8
19483	7	Sololá	701	Sololá	1	Sololá	4	Abril	2023-04-23T00:00:00	2024-11-08T06:00:00	3	Temperatura mínima	12.1
19484	7	Sololá	701	Sololá	1	Sololá	4	Abril	2023-04-23T00:00:00	2024-11-08T06:00:00	5	Humedad	85
19485	7	Sololá	701	Sololá	1	Sololá	4	Abril	2023-04-23T00:00:00	2024-11-08T06:00:00	6	Velocidad del viento	0
19486	7	Sololá	701	Sololá	1	Sololá	4	Abril	2023-04-23T00:00:00	2024-11-08T06:00:00	7	Dirección del viento	0
19487	7	Sololá	701	Sololá	1	Sololá	4	Abril	2023-04-23T00:00:00	2024-11-08T06:00:00	1	Precipitación	0
19488	7	Sololá	701	Sololá	1	Sololá	4	Abril	2023-04-23T00:00:00	2024-11-08T06:00:00	8	Radiación solar	1
19489	7	Sololá	701	Sololá	1	Sololá	4	Abril	2023-04-23T00:00:00	2024-11-08T07:00:00	2	Temperatura media	12.8
19490	7	Sololá	701	Sololá	1	Sololá	4	Abril	2023-04-23T00:00:00	2024-11-08T07:00:00	4	Temperatura máxima	12.8
19491	7	Sololá	701	Sololá	1	Sololá	4	Abril	2023-04-23T00:00:00	2024-11-08T07:00:00	3	Temperatura mínima	12.2
19492	7	Sololá	701	Sololá	1	Sololá	4	Abril	2023-04-23T00:00:00	2024-11-08T07:00:00	5	Humedad	78
19493	7	Sololá	701	Sololá	1	Sololá	4	Abril	2023-04-23T00:00:00	2024-11-08T07:00:00	6	Velocidad del viento	0
19494	7	Sololá	701	Sololá	1	Sololá	4	Abril	2023-04-23T00:00:00	2024-11-08T07:00:00	7	Dirección del viento	0
19495	7	Sololá	701	Sololá	1	Sololá	4	Abril	2023-04-23T00:00:00	2024-11-08T07:00:00	1	Precipitación	0
19496	7	Sololá	701	Sololá	1	Sololá	4	Abril	2023-04-23T00:00:00	2024-11-08T07:00:00	8	Radiación solar	35
19497	7	Sololá	701	Sololá	1	Sololá	4	Abril	2023-04-23T00:00:00	2024-11-08T08:00:00	2	Temperatura media	13.9
19498	7	Sololá	701	Sololá	1	Sololá	4	Abril	2023-04-23T00:00:00	2024-11-08T08:00:00	4	Temperatura máxima	13.9
19499	7	Sololá	701	Sololá	1	Sololá	4	Abril	2023-04-23T00:00:00	2024-11-08T08:00:00	3	Temperatura mínima	12.7
19500	7	Sololá	701	Sololá	1	Sololá	4	Abril	2023-04-23T00:00:00	2024-11-08T08:00:00	5	Humedad	77
19501	7	Sololá	701	Sololá	1	Sololá	4	Abril	2023-04-23T00:00:00	2024-11-08T08:00:00	6	Velocidad del viento	0
19502	7	Sololá	701	Sololá	1	Sololá	4	Abril	2023-04-23T00:00:00	2024-11-08T08:00:00	7	Dirección del viento	0
19503	7	Sololá	701	Sololá	1	Sololá	4	Abril	2023-04-23T00:00:00	2024-11-08T08:00:00	1	Precipitación	0
19504	7	Sololá	701	Sololá	1	Sololá	4	Abril	2023-04-23T00:00:00	2024-11-08T08:00:00	8	Radiación solar	235
19505	7	Sololá	701	Sololá	1	Sololá	4	Abril	2023-04-23T00:00:00	2024-11-08T09:00:00	2	Temperatura media	17.3
19506	7	Sololá	701	Sololá	1	Sololá	4	Abril	2023-04-23T00:00:00	2024-11-08T09:00:00	4	Temperatura máxima	17.3
19507	7	Sololá	701	Sololá	1	Sololá	4	Abril	2023-04-23T00:00:00	2024-11-08T09:00:00	3	Temperatura mínima	13.9
19508	7	Sololá	701	Sololá	1	Sololá	4	Abril	2023-04-23T00:00:00	2024-11-08T09:00:00	5	Humedad	75
19509	7	Sololá	701	Sololá	1	Sololá	4	Abril	2023-04-23T00:00:00	2024-11-08T09:00:00	6	Velocidad del viento	0
19510	7	Sololá	701	Sololá	1	Sololá	4	Abril	2023-04-23T00:00:00	2024-11-08T09:00:00	7	Dirección del viento	0
19511	7	Sololá	701	Sololá	1	Sololá	4	Abril	2023-04-23T00:00:00	2024-11-08T09:00:00	1	Precipitación	0
19512	7	Sololá	701	Sololá	1	Sololá	4	Abril	2023-04-23T00:00:00	2024-11-08T09:00:00	8	Radiación solar	522
19513	7	Sololá	701	Sololá	1	Sololá	4	Abril	2023-04-23T00:00:00	2024-11-08T10:00:00	2	Temperatura media	19.7
19514	7	Sololá	701	Sololá	1	Sololá	4	Abril	2023-04-23T00:00:00	2024-11-08T10:00:00	4	Temperatura máxima	19.8
19515	7	Sololá	701	Sololá	1	Sololá	4	Abril	2023-04-23T00:00:00	2024-11-08T10:00:00	3	Temperatura mínima	17.3
19516	7	Sololá	701	Sololá	1	Sololá	4	Abril	2023-04-23T00:00:00	2024-11-08T10:00:00	5	Humedad	74
19517	7	Sololá	701	Sololá	1	Sololá	4	Abril	2023-04-23T00:00:00	2024-11-08T10:00:00	6	Velocidad del viento	0
19518	7	Sololá	701	Sololá	1	Sololá	4	Abril	2023-04-23T00:00:00	2024-11-08T10:00:00	7	Dirección del viento	0
19519	7	Sololá	701	Sololá	1	Sololá	4	Abril	2023-04-23T00:00:00	2024-11-08T10:00:00	1	Precipitación	0
19520	7	Sololá	701	Sololá	1	Sololá	4	Abril	2023-04-23T00:00:00	2024-11-08T10:00:00	8	Radiación solar	748
19521	7	Sololá	701	Sololá	1	Sololá	4	Abril	2023-04-23T00:00:00	2024-11-08T11:00:00	2	Temperatura media	21.4
19522	7	Sololá	701	Sololá	1	Sololá	4	Abril	2023-04-23T00:00:00	2024-11-08T11:00:00	4	Temperatura máxima	21.4
19523	7	Sololá	701	Sololá	1	Sololá	4	Abril	2023-04-23T00:00:00	2024-11-08T11:00:00	3	Temperatura mínima	19.6
19524	7	Sololá	701	Sololá	1	Sololá	4	Abril	2023-04-23T00:00:00	2024-11-08T11:00:00	5	Humedad	65
19525	7	Sololá	701	Sololá	1	Sololá	4	Abril	2023-04-23T00:00:00	2024-11-08T11:00:00	6	Velocidad del viento	0
19526	7	Sololá	701	Sololá	1	Sololá	4	Abril	2023-04-23T00:00:00	2024-11-08T11:00:00	7	Dirección del viento	0
19527	7	Sololá	701	Sololá	1	Sololá	4	Abril	2023-04-23T00:00:00	2024-11-08T11:00:00	1	Precipitación	0
19528	7	Sololá	701	Sololá	1	Sololá	4	Abril	2023-04-23T00:00:00	2024-11-08T11:00:00	8	Radiación solar	826
19529	7	Sololá	701	Sololá	1	Sololá	4	Abril	2023-04-23T00:00:00	2024-11-08T12:00:00	2	Temperatura media	22.2
19530	7	Sololá	701	Sololá	1	Sololá	4	Abril	2023-04-23T00:00:00	2024-11-08T12:00:00	4	Temperatura máxima	22.2
19531	7	Sololá	701	Sololá	1	Sololá	4	Abril	2023-04-23T00:00:00	2024-11-08T12:00:00	3	Temperatura mínima	21.4
19532	7	Sololá	701	Sololá	1	Sololá	4	Abril	2023-04-23T00:00:00	2024-11-08T12:00:00	5	Humedad	56
19533	7	Sololá	701	Sololá	1	Sololá	4	Abril	2023-04-23T00:00:00	2024-11-08T12:00:00	6	Velocidad del viento	0
19534	7	Sololá	701	Sololá	1	Sololá	4	Abril	2023-04-23T00:00:00	2024-11-08T12:00:00	7	Dirección del viento	0
19535	7	Sololá	701	Sololá	1	Sololá	4	Abril	2023-04-23T00:00:00	2024-11-08T12:00:00	1	Precipitación	0
19536	7	Sololá	701	Sololá	1	Sololá	4	Abril	2023-04-23T00:00:00	2024-11-08T12:00:00	8	Radiación solar	883
19537	7	Sololá	701	Sololá	1	Sololá	4	Abril	2023-04-23T00:00:00	2024-11-08T13:00:00	2	Temperatura media	22.4
19538	7	Sololá	701	Sololá	1	Sololá	4	Abril	2023-04-23T00:00:00	2024-11-08T13:00:00	4	Temperatura máxima	22.7
19539	7	Sololá	701	Sololá	1	Sololá	4	Abril	2023-04-23T00:00:00	2024-11-08T13:00:00	3	Temperatura mínima	22.2
19540	7	Sololá	701	Sololá	1	Sololá	4	Abril	2023-04-23T00:00:00	2024-11-08T13:00:00	5	Humedad	70
19541	7	Sololá	701	Sololá	1	Sololá	4	Abril	2023-04-23T00:00:00	2024-11-08T13:00:00	6	Velocidad del viento	0
19542	7	Sololá	701	Sololá	1	Sololá	4	Abril	2023-04-23T00:00:00	2024-11-08T13:00:00	7	Dirección del viento	0
19543	7	Sololá	701	Sololá	1	Sololá	4	Abril	2023-04-23T00:00:00	2024-11-08T13:00:00	1	Precipitación	0
19544	7	Sololá	701	Sololá	1	Sololá	4	Abril	2023-04-23T00:00:00	2024-11-08T13:00:00	8	Radiación solar	678
19545	7	Sololá	701	Sololá	1	Sololá	4	Abril	2023-04-23T00:00:00	2024-11-08T14:00:00	2	Temperatura media	22.2
19546	7	Sololá	701	Sololá	1	Sololá	4	Abril	2023-04-23T00:00:00	2024-11-08T14:00:00	4	Temperatura máxima	22.4
19547	7	Sololá	701	Sololá	1	Sololá	4	Abril	2023-04-23T00:00:00	2024-11-08T14:00:00	3	Temperatura mínima	22.2
19548	7	Sololá	701	Sololá	1	Sololá	4	Abril	2023-04-23T00:00:00	2024-11-08T14:00:00	5	Humedad	74
19549	7	Sololá	701	Sololá	1	Sololá	4	Abril	2023-04-23T00:00:00	2024-11-08T14:00:00	6	Velocidad del viento	0
19550	7	Sololá	701	Sololá	1	Sololá	4	Abril	2023-04-23T00:00:00	2024-11-08T14:00:00	7	Dirección del viento	0
19551	7	Sololá	701	Sololá	1	Sololá	4	Abril	2023-04-23T00:00:00	2024-11-08T14:00:00	1	Precipitación	0
19552	7	Sololá	701	Sololá	1	Sololá	4	Abril	2023-04-23T00:00:00	2024-11-08T14:00:00	8	Radiación solar	180
19553	7	Sololá	701	Sololá	1	Sololá	4	Abril	2023-04-23T00:00:00	2024-11-08T15:00:00	2	Temperatura media	19.4
19554	7	Sololá	701	Sololá	1	Sololá	4	Abril	2023-04-23T00:00:00	2024-11-08T15:00:00	4	Temperatura máxima	22.2
19555	7	Sololá	701	Sololá	1	Sololá	4	Abril	2023-04-23T00:00:00	2024-11-08T15:00:00	3	Temperatura mínima	19.4
19556	7	Sololá	701	Sololá	1	Sololá	4	Abril	2023-04-23T00:00:00	2024-11-08T15:00:00	5	Humedad	82
19557	7	Sololá	701	Sololá	1	Sololá	4	Abril	2023-04-23T00:00:00	2024-11-08T15:00:00	6	Velocidad del viento	0
19558	7	Sololá	701	Sololá	1	Sololá	4	Abril	2023-04-23T00:00:00	2024-11-08T15:00:00	7	Dirección del viento	0
19559	7	Sololá	701	Sololá	1	Sololá	4	Abril	2023-04-23T00:00:00	2024-11-08T15:00:00	1	Precipitación	0
19560	7	Sololá	701	Sololá	1	Sololá	4	Abril	2023-04-23T00:00:00	2024-11-08T15:00:00	8	Radiación solar	46
19561	7	Sololá	701	Sololá	1	Sololá	4	Abril	2023-04-23T00:00:00	2024-11-08T16:00:00	2	Temperatura media	18
19562	7	Sololá	701	Sololá	1	Sololá	4	Abril	2023-04-23T00:00:00	2024-11-08T16:00:00	4	Temperatura máxima	19.5
19563	7	Sololá	701	Sololá	1	Sololá	4	Abril	2023-04-23T00:00:00	2024-11-08T16:00:00	3	Temperatura mínima	17.9
19564	7	Sololá	701	Sololá	1	Sololá	4	Abril	2023-04-23T00:00:00	2024-11-08T16:00:00	5	Humedad	88
19565	7	Sololá	701	Sololá	1	Sololá	4	Abril	2023-04-23T00:00:00	2024-11-08T16:00:00	6	Velocidad del viento	0
19566	7	Sololá	701	Sololá	1	Sololá	4	Abril	2023-04-23T00:00:00	2024-11-08T16:00:00	7	Dirección del viento	0
19567	7	Sololá	701	Sololá	1	Sololá	4	Abril	2023-04-23T00:00:00	2024-11-08T16:00:00	1	Precipitación	0
19568	7	Sololá	701	Sololá	1	Sololá	4	Abril	2023-04-23T00:00:00	2024-11-08T16:00:00	8	Radiación solar	68
19569	7	Sololá	701	Sololá	1	Sololá	4	Abril	2023-04-23T00:00:00	2024-11-08T17:00:00	2	Temperatura media	17.9
19570	7	Sololá	701	Sololá	1	Sololá	4	Abril	2023-04-23T00:00:00	2024-11-08T17:00:00	4	Temperatura máxima	18.1
19571	7	Sololá	701	Sololá	1	Sololá	4	Abril	2023-04-23T00:00:00	2024-11-08T17:00:00	3	Temperatura mínima	17.7
19572	7	Sololá	701	Sololá	1	Sololá	4	Abril	2023-04-23T00:00:00	2024-11-08T17:00:00	5	Humedad	88
19573	7	Sololá	701	Sololá	1	Sololá	4	Abril	2023-04-23T00:00:00	2024-11-08T17:00:00	6	Velocidad del viento	0
19574	7	Sololá	701	Sololá	1	Sololá	4	Abril	2023-04-23T00:00:00	2024-11-08T17:00:00	7	Dirección del viento	0
19575	7	Sololá	701	Sololá	1	Sololá	4	Abril	2023-04-23T00:00:00	2024-11-08T17:00:00	1	Precipitación	0
19576	7	Sololá	701	Sololá	1	Sololá	4	Abril	2023-04-23T00:00:00	2024-11-08T17:00:00	8	Radiación solar	20
19577	7	Sololá	701	Sololá	1	Sololá	4	Abril	2023-04-23T00:00:00	2024-11-08T18:00:00	2	Temperatura media	16.9
19578	7	Sololá	701	Sololá	1	Sololá	4	Abril	2023-04-23T00:00:00	2024-11-08T18:00:00	4	Temperatura máxima	17.9
19579	7	Sololá	701	Sololá	1	Sololá	4	Abril	2023-04-23T00:00:00	2024-11-08T18:00:00	3	Temperatura mínima	16.8
19580	7	Sololá	701	Sololá	1	Sololá	4	Abril	2023-04-23T00:00:00	2024-11-08T18:00:00	5	Humedad	92
19581	7	Sololá	701	Sololá	1	Sololá	4	Abril	2023-04-23T00:00:00	2024-11-08T18:00:00	6	Velocidad del viento	0
19582	7	Sololá	701	Sololá	1	Sololá	4	Abril	2023-04-23T00:00:00	2024-11-08T18:00:00	7	Dirección del viento	0
19583	7	Sololá	701	Sololá	1	Sololá	4	Abril	2023-04-23T00:00:00	2024-11-08T18:00:00	1	Precipitación	0
19584	7	Sololá	701	Sololá	1	Sololá	4	Abril	2023-04-23T00:00:00	2024-11-08T18:00:00	8	Radiación solar	2
19585	7	Sololá	701	Sololá	1	Sololá	4	Abril	2023-04-23T00:00:00	2024-11-08T19:00:00	2	Temperatura media	16.3
19586	7	Sololá	701	Sololá	1	Sololá	4	Abril	2023-04-23T00:00:00	2024-11-08T19:00:00	4	Temperatura máxima	16.9
19587	7	Sololá	701	Sololá	1	Sololá	4	Abril	2023-04-23T00:00:00	2024-11-08T19:00:00	3	Temperatura mínima	16.2
19588	7	Sololá	701	Sololá	1	Sololá	4	Abril	2023-04-23T00:00:00	2024-11-08T19:00:00	5	Humedad	95
19589	7	Sololá	701	Sololá	1	Sololá	4	Abril	2023-04-23T00:00:00	2024-11-08T19:00:00	6	Velocidad del viento	0
19590	7	Sololá	701	Sololá	1	Sololá	4	Abril	2023-04-23T00:00:00	2024-11-08T19:00:00	7	Dirección del viento	0
19591	7	Sololá	701	Sololá	1	Sololá	4	Abril	2023-04-23T00:00:00	2024-11-08T19:00:00	1	Precipitación	0.6
19592	7	Sololá	701	Sololá	1	Sololá	4	Abril	2023-04-23T00:00:00	2024-11-08T19:00:00	8	Radiación solar	0
19593	7	Sololá	701	Sololá	1	Sololá	4	Abril	2023-04-23T00:00:00	2024-11-08T20:00:00	2	Temperatura media	16.1
19594	7	Sololá	701	Sololá	1	Sololá	4	Abril	2023-04-23T00:00:00	2024-11-08T20:00:00	4	Temperatura máxima	16.3
19595	7	Sololá	701	Sololá	1	Sololá	4	Abril	2023-04-23T00:00:00	2024-11-08T20:00:00	3	Temperatura mínima	15.9
19596	7	Sololá	701	Sololá	1	Sololá	4	Abril	2023-04-23T00:00:00	2024-11-08T20:00:00	5	Humedad	96
19597	7	Sololá	701	Sololá	1	Sololá	4	Abril	2023-04-23T00:00:00	2024-11-08T20:00:00	6	Velocidad del viento	0
19598	7	Sololá	701	Sololá	1	Sololá	4	Abril	2023-04-23T00:00:00	2024-11-08T20:00:00	7	Dirección del viento	0
19599	7	Sololá	701	Sololá	1	Sololá	4	Abril	2023-04-23T00:00:00	2024-11-08T20:00:00	1	Precipitación	0.8
19600	7	Sololá	701	Sololá	1	Sololá	4	Abril	2023-04-23T00:00:00	2024-11-08T20:00:00	8	Radiación solar	0
19601	7	Sololá	701	Sololá	1	Sololá	4	Abril	2023-04-23T00:00:00	2024-11-08T21:00:00	2	Temperatura media	15.8
19602	7	Sololá	701	Sololá	1	Sololá	4	Abril	2023-04-23T00:00:00	2024-11-08T21:00:00	4	Temperatura máxima	16.1
19603	7	Sololá	701	Sololá	1	Sololá	4	Abril	2023-04-23T00:00:00	2024-11-08T21:00:00	3	Temperatura mínima	15.8
19604	7	Sololá	701	Sololá	1	Sololá	4	Abril	2023-04-23T00:00:00	2024-11-08T21:00:00	5	Humedad	96
19605	7	Sololá	701	Sololá	1	Sololá	4	Abril	2023-04-23T00:00:00	2024-11-08T21:00:00	6	Velocidad del viento	0
19606	7	Sololá	701	Sololá	1	Sololá	4	Abril	2023-04-23T00:00:00	2024-11-08T21:00:00	7	Dirección del viento	0
19607	7	Sololá	701	Sololá	1	Sololá	4	Abril	2023-04-23T00:00:00	2024-11-08T21:00:00	1	Precipitación	0.8
19608	7	Sololá	701	Sololá	1	Sololá	4	Abril	2023-04-23T00:00:00	2024-11-08T21:00:00	8	Radiación solar	0
19609	7	Sololá	701	Sololá	1	Sololá	4	Abril	2023-04-23T00:00:00	2024-11-08T22:00:00	2	Temperatura media	15.8
19610	7	Sololá	701	Sololá	1	Sololá	4	Abril	2023-04-23T00:00:00	2024-11-08T22:00:00	4	Temperatura máxima	15.8
19611	7	Sololá	701	Sololá	1	Sololá	4	Abril	2023-04-23T00:00:00	2024-11-08T22:00:00	3	Temperatura mínima	15.5
19612	7	Sololá	701	Sololá	1	Sololá	4	Abril	2023-04-23T00:00:00	2024-11-08T22:00:00	5	Humedad	97
19613	7	Sololá	701	Sololá	1	Sololá	4	Abril	2023-04-23T00:00:00	2024-11-08T22:00:00	6	Velocidad del viento	0
19614	7	Sololá	701	Sololá	1	Sololá	4	Abril	2023-04-23T00:00:00	2024-11-08T22:00:00	7	Dirección del viento	0
19615	7	Sololá	701	Sololá	1	Sololá	4	Abril	2023-04-23T00:00:00	2024-11-08T22:00:00	1	Precipitación	1
19616	7	Sololá	701	Sololá	1	Sololá	4	Abril	2023-04-23T00:00:00	2024-11-08T22:00:00	8	Radiación solar	0
19617	7	Sololá	701	Sololá	1	Sololá	4	Abril	2023-04-23T00:00:00	2024-11-08T23:00:00	2	Temperatura media	15.6
19618	7	Sololá	701	Sololá	1	Sololá	4	Abril	2023-04-23T00:00:00	2024-11-08T23:00:00	4	Temperatura máxima	15.8
19619	7	Sololá	701	Sololá	1	Sololá	4	Abril	2023-04-23T00:00:00	2024-11-08T23:00:00	3	Temperatura mínima	15.6
19620	7	Sololá	701	Sololá	1	Sololá	4	Abril	2023-04-23T00:00:00	2024-11-08T23:00:00	5	Humedad	96
19621	7	Sololá	701	Sololá	1	Sololá	4	Abril	2023-04-23T00:00:00	2024-11-08T23:00:00	6	Velocidad del viento	0
19622	7	Sololá	701	Sololá	1	Sololá	4	Abril	2023-04-23T00:00:00	2024-11-08T23:00:00	7	Dirección del viento	0
19623	7	Sololá	701	Sololá	1	Sololá	4	Abril	2023-04-23T00:00:00	2024-11-08T23:00:00	1	Precipitación	0.4
19624	7	Sololá	701	Sololá	1	Sololá	4	Abril	2023-04-23T00:00:00	2024-11-08T23:00:00	8	Radiación solar	0
19625	7	Sololá	701	Sololá	1	Sololá	4	Abril	2023-04-24T00:00:00	2024-11-08T00:00:00	2	Temperatura media	14.9
19626	7	Sololá	701	Sololá	1	Sololá	4	Abril	2023-04-24T00:00:00	2024-11-08T00:00:00	4	Temperatura máxima	15.6
19627	7	Sololá	701	Sololá	1	Sololá	4	Abril	2023-04-24T00:00:00	2024-11-08T00:00:00	3	Temperatura mínima	14.9
19628	7	Sololá	701	Sololá	1	Sololá	4	Abril	2023-04-24T00:00:00	2024-11-08T00:00:00	5	Humedad	96
19629	7	Sololá	701	Sololá	1	Sololá	4	Abril	2023-04-24T00:00:00	2024-11-08T00:00:00	6	Velocidad del viento	0
19630	7	Sololá	701	Sololá	1	Sololá	4	Abril	2023-04-24T00:00:00	2024-11-08T00:00:00	7	Dirección del viento	0
19631	7	Sololá	701	Sololá	1	Sololá	4	Abril	2023-04-24T00:00:00	2024-11-08T00:00:00	1	Precipitación	0
19632	7	Sololá	701	Sololá	1	Sololá	4	Abril	2023-04-24T00:00:00	2024-11-08T00:00:00	8	Radiación solar	0
19633	7	Sololá	701	Sololá	1	Sololá	4	Abril	2023-04-24T00:00:00	2024-11-08T01:00:00	2	Temperatura media	14.4
19634	7	Sololá	701	Sololá	1	Sololá	4	Abril	2023-04-24T00:00:00	2024-11-08T01:00:00	4	Temperatura máxima	14.9
19635	7	Sololá	701	Sololá	1	Sololá	4	Abril	2023-04-24T00:00:00	2024-11-08T01:00:00	3	Temperatura mínima	14.3
19636	7	Sololá	701	Sololá	1	Sololá	4	Abril	2023-04-24T00:00:00	2024-11-08T01:00:00	5	Humedad	96
19637	7	Sololá	701	Sololá	1	Sololá	4	Abril	2023-04-24T00:00:00	2024-11-08T01:00:00	6	Velocidad del viento	0
19638	7	Sololá	701	Sololá	1	Sololá	4	Abril	2023-04-24T00:00:00	2024-11-08T01:00:00	7	Dirección del viento	0
19639	7	Sololá	701	Sololá	1	Sololá	4	Abril	2023-04-24T00:00:00	2024-11-08T01:00:00	1	Precipitación	0
19640	7	Sololá	701	Sololá	1	Sololá	4	Abril	2023-04-24T00:00:00	2024-11-08T01:00:00	8	Radiación solar	0
19641	7	Sololá	701	Sololá	1	Sololá	4	Abril	2023-04-24T00:00:00	2024-11-08T02:00:00	2	Temperatura media	13.9
19642	7	Sololá	701	Sololá	1	Sololá	4	Abril	2023-04-24T00:00:00	2024-11-08T02:00:00	4	Temperatura máxima	14.4
19643	7	Sololá	701	Sololá	1	Sololá	4	Abril	2023-04-24T00:00:00	2024-11-08T02:00:00	3	Temperatura mínima	13.8
19644	7	Sololá	701	Sololá	1	Sololá	4	Abril	2023-04-24T00:00:00	2024-11-08T02:00:00	5	Humedad	96
19645	7	Sololá	701	Sololá	1	Sololá	4	Abril	2023-04-24T00:00:00	2024-11-08T02:00:00	6	Velocidad del viento	0
19646	7	Sololá	701	Sololá	1	Sololá	4	Abril	2023-04-24T00:00:00	2024-11-08T02:00:00	7	Dirección del viento	0
19647	7	Sololá	701	Sololá	1	Sololá	4	Abril	2023-04-24T00:00:00	2024-11-08T02:00:00	1	Precipitación	0
19648	7	Sololá	701	Sololá	1	Sololá	4	Abril	2023-04-24T00:00:00	2024-11-08T02:00:00	8	Radiación solar	0
19649	7	Sololá	701	Sololá	1	Sololá	4	Abril	2023-04-24T00:00:00	2024-11-08T03:00:00	2	Temperatura media	13.4
19650	7	Sololá	701	Sololá	1	Sololá	4	Abril	2023-04-24T00:00:00	2024-11-08T03:00:00	4	Temperatura máxima	13.9
19651	7	Sololá	701	Sololá	1	Sololá	4	Abril	2023-04-24T00:00:00	2024-11-08T03:00:00	3	Temperatura mínima	13.3
19652	7	Sololá	701	Sololá	1	Sololá	4	Abril	2023-04-24T00:00:00	2024-11-08T03:00:00	5	Humedad	96
19653	7	Sololá	701	Sololá	1	Sololá	4	Abril	2023-04-24T00:00:00	2024-11-08T03:00:00	6	Velocidad del viento	0
19654	7	Sololá	701	Sololá	1	Sololá	4	Abril	2023-04-24T00:00:00	2024-11-08T03:00:00	7	Dirección del viento	0
19655	7	Sololá	701	Sololá	1	Sololá	4	Abril	2023-04-24T00:00:00	2024-11-08T03:00:00	1	Precipitación	0
19656	7	Sololá	701	Sololá	1	Sololá	4	Abril	2023-04-24T00:00:00	2024-11-08T03:00:00	8	Radiación solar	0
19657	7	Sololá	701	Sololá	1	Sololá	4	Abril	2023-04-24T00:00:00	2024-11-08T04:00:00	2	Temperatura media	12.3
19658	7	Sololá	701	Sololá	1	Sololá	4	Abril	2023-04-24T00:00:00	2024-11-08T04:00:00	4	Temperatura máxima	13.4
19659	7	Sololá	701	Sololá	1	Sololá	4	Abril	2023-04-24T00:00:00	2024-11-08T04:00:00	3	Temperatura mínima	12.3
19660	7	Sololá	701	Sololá	1	Sololá	4	Abril	2023-04-24T00:00:00	2024-11-08T04:00:00	5	Humedad	94
19661	7	Sololá	701	Sololá	1	Sololá	4	Abril	2023-04-24T00:00:00	2024-11-08T04:00:00	6	Velocidad del viento	0
19662	7	Sololá	701	Sololá	1	Sololá	4	Abril	2023-04-24T00:00:00	2024-11-08T04:00:00	7	Dirección del viento	0
19663	7	Sololá	701	Sololá	1	Sololá	4	Abril	2023-04-24T00:00:00	2024-11-08T04:00:00	1	Precipitación	0
19664	7	Sololá	701	Sololá	1	Sololá	4	Abril	2023-04-24T00:00:00	2024-11-08T04:00:00	8	Radiación solar	0
19665	7	Sololá	701	Sololá	1	Sololá	4	Abril	2023-04-24T00:00:00	2024-11-08T05:00:00	2	Temperatura media	12.6
19666	7	Sololá	701	Sololá	1	Sololá	4	Abril	2023-04-24T00:00:00	2024-11-08T05:00:00	4	Temperatura máxima	12.8
19667	7	Sololá	701	Sololá	1	Sololá	4	Abril	2023-04-24T00:00:00	2024-11-08T05:00:00	3	Temperatura mínima	12.2
19668	7	Sololá	701	Sololá	1	Sololá	4	Abril	2023-04-24T00:00:00	2024-11-08T05:00:00	5	Humedad	93
19669	7	Sololá	701	Sololá	1	Sololá	4	Abril	2023-04-24T00:00:00	2024-11-08T05:00:00	6	Velocidad del viento	0
19670	7	Sololá	701	Sololá	1	Sololá	4	Abril	2023-04-24T00:00:00	2024-11-08T05:00:00	7	Dirección del viento	0
19671	7	Sololá	701	Sololá	1	Sololá	4	Abril	2023-04-24T00:00:00	2024-11-08T05:00:00	1	Precipitación	0
19672	7	Sololá	701	Sololá	1	Sololá	4	Abril	2023-04-24T00:00:00	2024-11-08T05:00:00	8	Radiación solar	0
19673	7	Sololá	701	Sololá	1	Sololá	4	Abril	2023-04-24T00:00:00	2024-11-08T06:00:00	2	Temperatura media	12.4
19674	7	Sololá	701	Sololá	1	Sololá	4	Abril	2023-04-24T00:00:00	2024-11-08T06:00:00	4	Temperatura máxima	12.6
19675	7	Sololá	701	Sololá	1	Sololá	4	Abril	2023-04-24T00:00:00	2024-11-08T06:00:00	3	Temperatura mínima	12.2
19676	7	Sololá	701	Sololá	1	Sololá	4	Abril	2023-04-24T00:00:00	2024-11-08T06:00:00	5	Humedad	95
19677	7	Sololá	701	Sololá	1	Sololá	4	Abril	2023-04-24T00:00:00	2024-11-08T06:00:00	6	Velocidad del viento	0
19678	7	Sololá	701	Sololá	1	Sololá	4	Abril	2023-04-24T00:00:00	2024-11-08T06:00:00	7	Dirección del viento	0
19679	7	Sololá	701	Sololá	1	Sololá	4	Abril	2023-04-24T00:00:00	2024-11-08T06:00:00	1	Precipitación	0
19680	7	Sololá	701	Sololá	1	Sololá	4	Abril	2023-04-24T00:00:00	2024-11-08T06:00:00	8	Radiación solar	1
19681	7	Sololá	701	Sololá	1	Sololá	4	Abril	2023-04-24T00:00:00	2024-11-08T07:00:00	2	Temperatura media	12.8
19682	7	Sololá	701	Sololá	1	Sololá	4	Abril	2023-04-24T00:00:00	2024-11-08T07:00:00	4	Temperatura máxima	12.9
19683	7	Sololá	701	Sololá	1	Sololá	4	Abril	2023-04-24T00:00:00	2024-11-08T07:00:00	3	Temperatura mínima	12.4
19684	7	Sololá	701	Sololá	1	Sololá	4	Abril	2023-04-24T00:00:00	2024-11-08T07:00:00	5	Humedad	93
19685	7	Sololá	701	Sololá	1	Sololá	4	Abril	2023-04-24T00:00:00	2024-11-08T07:00:00	6	Velocidad del viento	0
19686	7	Sololá	701	Sololá	1	Sololá	4	Abril	2023-04-24T00:00:00	2024-11-08T07:00:00	7	Dirección del viento	0
19687	7	Sololá	701	Sololá	1	Sololá	4	Abril	2023-04-24T00:00:00	2024-11-08T07:00:00	1	Precipitación	0
19688	7	Sololá	701	Sololá	1	Sololá	4	Abril	2023-04-24T00:00:00	2024-11-08T07:00:00	8	Radiación solar	31
19689	7	Sololá	701	Sololá	1	Sololá	4	Abril	2023-04-24T00:00:00	2024-11-08T08:00:00	2	Temperatura media	13.1
19690	7	Sololá	701	Sololá	1	Sololá	4	Abril	2023-04-24T00:00:00	2024-11-08T08:00:00	4	Temperatura máxima	13.1
19691	7	Sololá	701	Sololá	1	Sololá	4	Abril	2023-04-24T00:00:00	2024-11-08T08:00:00	3	Temperatura mínima	12.6
19692	7	Sololá	701	Sololá	1	Sololá	4	Abril	2023-04-24T00:00:00	2024-11-08T08:00:00	5	Humedad	95
19693	7	Sololá	701	Sololá	1	Sololá	4	Abril	2023-04-24T00:00:00	2024-11-08T08:00:00	6	Velocidad del viento	0
19694	7	Sololá	701	Sololá	1	Sololá	4	Abril	2023-04-24T00:00:00	2024-11-08T08:00:00	7	Dirección del viento	0
19695	7	Sololá	701	Sololá	1	Sololá	4	Abril	2023-04-24T00:00:00	2024-11-08T08:00:00	1	Precipitación	0
19696	7	Sololá	701	Sololá	1	Sololá	4	Abril	2023-04-24T00:00:00	2024-11-08T08:00:00	8	Radiación solar	190
19697	7	Sololá	701	Sololá	1	Sololá	4	Abril	2023-04-24T00:00:00	2024-11-08T09:00:00	2	Temperatura media	15.8
19698	7	Sololá	701	Sololá	1	Sololá	4	Abril	2023-04-24T00:00:00	2024-11-08T09:00:00	4	Temperatura máxima	15.8
19699	7	Sololá	701	Sololá	1	Sololá	4	Abril	2023-04-24T00:00:00	2024-11-08T09:00:00	3	Temperatura mínima	13.1
19700	7	Sololá	701	Sololá	1	Sololá	4	Abril	2023-04-24T00:00:00	2024-11-08T09:00:00	5	Humedad	90
19701	7	Sololá	701	Sololá	1	Sololá	4	Abril	2023-04-24T00:00:00	2024-11-08T09:00:00	6	Velocidad del viento	0
19702	7	Sololá	701	Sololá	1	Sololá	4	Abril	2023-04-24T00:00:00	2024-11-08T09:00:00	7	Dirección del viento	0
19703	7	Sololá	701	Sololá	1	Sololá	4	Abril	2023-04-24T00:00:00	2024-11-08T09:00:00	1	Precipitación	0
19704	7	Sololá	701	Sololá	1	Sololá	4	Abril	2023-04-24T00:00:00	2024-11-08T09:00:00	8	Radiación solar	264
19705	7	Sololá	701	Sololá	1	Sololá	4	Abril	2023-04-24T00:00:00	2024-11-08T10:00:00	2	Temperatura media	17.2
19706	7	Sololá	701	Sololá	1	Sololá	4	Abril	2023-04-24T00:00:00	2024-11-08T10:00:00	4	Temperatura máxima	17.2
19707	7	Sololá	701	Sololá	1	Sololá	4	Abril	2023-04-24T00:00:00	2024-11-08T10:00:00	3	Temperatura mínima	15.8
19708	7	Sololá	701	Sololá	1	Sololá	4	Abril	2023-04-24T00:00:00	2024-11-08T10:00:00	5	Humedad	85
19709	7	Sololá	701	Sololá	1	Sololá	4	Abril	2023-04-24T00:00:00	2024-11-08T10:00:00	6	Velocidad del viento	0
19710	7	Sololá	701	Sololá	1	Sololá	4	Abril	2023-04-24T00:00:00	2024-11-08T10:00:00	7	Dirección del viento	0
19711	7	Sololá	701	Sololá	1	Sololá	4	Abril	2023-04-24T00:00:00	2024-11-08T10:00:00	1	Precipitación	0
19712	7	Sololá	701	Sololá	1	Sololá	4	Abril	2023-04-24T00:00:00	2024-11-08T10:00:00	8	Radiación solar	234
19713	7	Sololá	701	Sololá	1	Sololá	4	Abril	2023-04-24T00:00:00	2024-11-08T11:00:00	2	Temperatura media	17.7
19714	7	Sololá	701	Sololá	1	Sololá	4	Abril	2023-04-24T00:00:00	2024-11-08T11:00:00	4	Temperatura máxima	17.7
19715	7	Sololá	701	Sololá	1	Sololá	4	Abril	2023-04-24T00:00:00	2024-11-08T11:00:00	3	Temperatura mínima	17
19716	7	Sololá	701	Sololá	1	Sololá	4	Abril	2023-04-24T00:00:00	2024-11-08T11:00:00	5	Humedad	85
19717	7	Sololá	701	Sololá	1	Sololá	4	Abril	2023-04-24T00:00:00	2024-11-08T11:00:00	6	Velocidad del viento	0
19718	7	Sololá	701	Sololá	1	Sololá	4	Abril	2023-04-24T00:00:00	2024-11-08T11:00:00	7	Dirección del viento	0
19719	7	Sololá	701	Sololá	1	Sololá	4	Abril	2023-04-24T00:00:00	2024-11-08T11:00:00	1	Precipitación	0
19720	7	Sololá	701	Sololá	1	Sololá	4	Abril	2023-04-24T00:00:00	2024-11-08T11:00:00	8	Radiación solar	374
19721	7	Sololá	701	Sololá	1	Sololá	4	Abril	2023-04-24T00:00:00	2024-11-08T12:00:00	2	Temperatura media	19.4
19722	7	Sololá	701	Sololá	1	Sololá	4	Abril	2023-04-24T00:00:00	2024-11-08T12:00:00	4	Temperatura máxima	19.4
19723	7	Sololá	701	Sololá	1	Sololá	4	Abril	2023-04-24T00:00:00	2024-11-08T12:00:00	3	Temperatura mínima	17.7
19724	7	Sololá	701	Sololá	1	Sololá	4	Abril	2023-04-24T00:00:00	2024-11-08T12:00:00	5	Humedad	79
19725	7	Sololá	701	Sololá	1	Sololá	4	Abril	2023-04-24T00:00:00	2024-11-08T12:00:00	6	Velocidad del viento	0
19726	7	Sololá	701	Sololá	1	Sololá	4	Abril	2023-04-24T00:00:00	2024-11-08T12:00:00	7	Dirección del viento	0
19727	7	Sololá	701	Sololá	1	Sololá	4	Abril	2023-04-24T00:00:00	2024-11-08T12:00:00	1	Precipitación	0
19728	7	Sololá	701	Sololá	1	Sololá	4	Abril	2023-04-24T00:00:00	2024-11-08T12:00:00	8	Radiación solar	846
19729	7	Sololá	701	Sololá	1	Sololá	4	Abril	2023-04-24T00:00:00	2024-11-08T13:00:00	2	Temperatura media	20.8
19730	7	Sololá	701	Sololá	1	Sololá	4	Abril	2023-04-24T00:00:00	2024-11-08T13:00:00	4	Temperatura máxima	20.9
19731	7	Sololá	701	Sololá	1	Sololá	4	Abril	2023-04-24T00:00:00	2024-11-08T13:00:00	3	Temperatura mínima	19.4
19732	7	Sololá	701	Sololá	1	Sololá	4	Abril	2023-04-24T00:00:00	2024-11-08T13:00:00	5	Humedad	76
19733	7	Sololá	701	Sololá	1	Sololá	4	Abril	2023-04-24T00:00:00	2024-11-08T13:00:00	6	Velocidad del viento	0
19734	7	Sololá	701	Sololá	1	Sololá	4	Abril	2023-04-24T00:00:00	2024-11-08T13:00:00	7	Dirección del viento	0
19735	7	Sololá	701	Sololá	1	Sololá	4	Abril	2023-04-24T00:00:00	2024-11-08T13:00:00	1	Precipitación	0
19736	7	Sololá	701	Sololá	1	Sololá	4	Abril	2023-04-24T00:00:00	2024-11-08T13:00:00	8	Radiación solar	303
19737	7	Sololá	701	Sololá	1	Sololá	4	Abril	2023-04-24T00:00:00	2024-11-08T14:00:00	2	Temperatura media	20
19738	7	Sololá	701	Sololá	1	Sololá	4	Abril	2023-04-24T00:00:00	2024-11-08T14:00:00	4	Temperatura máxima	20.8
19739	7	Sololá	701	Sololá	1	Sololá	4	Abril	2023-04-24T00:00:00	2024-11-08T14:00:00	3	Temperatura mínima	19.6
19740	7	Sololá	701	Sololá	1	Sololá	4	Abril	2023-04-24T00:00:00	2024-11-08T14:00:00	5	Humedad	80
19741	7	Sololá	701	Sololá	1	Sololá	4	Abril	2023-04-24T00:00:00	2024-11-08T14:00:00	6	Velocidad del viento	0
19742	7	Sololá	701	Sololá	1	Sololá	4	Abril	2023-04-24T00:00:00	2024-11-08T14:00:00	7	Dirección del viento	0
19743	7	Sololá	701	Sololá	1	Sololá	4	Abril	2023-04-24T00:00:00	2024-11-08T14:00:00	1	Precipitación	0
19744	7	Sololá	701	Sololá	1	Sololá	4	Abril	2023-04-24T00:00:00	2024-11-08T14:00:00	8	Radiación solar	189
19745	7	Sololá	701	Sololá	1	Sololá	4	Abril	2023-04-24T00:00:00	2024-11-08T15:00:00	2	Temperatura media	18.7
19746	7	Sololá	701	Sololá	1	Sololá	4	Abril	2023-04-24T00:00:00	2024-11-08T15:00:00	4	Temperatura máxima	19.9
19747	7	Sololá	701	Sololá	1	Sololá	4	Abril	2023-04-24T00:00:00	2024-11-08T15:00:00	3	Temperatura mínima	18.7
19748	7	Sololá	701	Sololá	1	Sololá	4	Abril	2023-04-24T00:00:00	2024-11-08T15:00:00	5	Humedad	85
19749	7	Sololá	701	Sololá	1	Sololá	4	Abril	2023-04-24T00:00:00	2024-11-08T15:00:00	6	Velocidad del viento	0
19750	7	Sololá	701	Sololá	1	Sololá	4	Abril	2023-04-24T00:00:00	2024-11-08T15:00:00	7	Dirección del viento	0
19751	7	Sololá	701	Sololá	1	Sololá	4	Abril	2023-04-24T00:00:00	2024-11-08T15:00:00	1	Precipitación	0
19752	7	Sololá	701	Sololá	1	Sololá	4	Abril	2023-04-24T00:00:00	2024-11-08T15:00:00	8	Radiación solar	68
19753	7	Sololá	701	Sololá	1	Sololá	4	Abril	2023-04-24T00:00:00	2024-11-08T16:00:00	2	Temperatura media	16.5
19754	7	Sololá	701	Sololá	1	Sololá	4	Abril	2023-04-24T00:00:00	2024-11-08T16:00:00	4	Temperatura máxima	18.7
19755	7	Sololá	701	Sololá	1	Sololá	4	Abril	2023-04-24T00:00:00	2024-11-08T16:00:00	3	Temperatura mínima	16.5
19756	7	Sololá	701	Sololá	1	Sololá	4	Abril	2023-04-24T00:00:00	2024-11-08T16:00:00	5	Humedad	92
19757	7	Sololá	701	Sololá	1	Sololá	4	Abril	2023-04-24T00:00:00	2024-11-08T16:00:00	6	Velocidad del viento	0
19758	7	Sololá	701	Sololá	1	Sololá	4	Abril	2023-04-24T00:00:00	2024-11-08T16:00:00	7	Dirección del viento	0
19759	7	Sololá	701	Sololá	1	Sololá	4	Abril	2023-04-24T00:00:00	2024-11-08T16:00:00	1	Precipitación	0
19760	7	Sololá	701	Sololá	1	Sololá	4	Abril	2023-04-24T00:00:00	2024-11-08T16:00:00	8	Radiación solar	6
19761	7	Sololá	701	Sololá	1	Sololá	4	Abril	2023-04-24T00:00:00	2024-11-08T17:00:00	2	Temperatura media	15.2
19762	7	Sololá	701	Sololá	1	Sololá	4	Abril	2023-04-24T00:00:00	2024-11-08T17:00:00	4	Temperatura máxima	16.5
19763	7	Sololá	701	Sololá	1	Sololá	4	Abril	2023-04-24T00:00:00	2024-11-08T17:00:00	3	Temperatura mínima	15.2
19764	7	Sololá	701	Sololá	1	Sololá	4	Abril	2023-04-24T00:00:00	2024-11-08T17:00:00	5	Humedad	92
19765	7	Sololá	701	Sololá	1	Sololá	4	Abril	2023-04-24T00:00:00	2024-11-08T17:00:00	6	Velocidad del viento	0
19766	7	Sololá	701	Sololá	1	Sololá	4	Abril	2023-04-24T00:00:00	2024-11-08T17:00:00	7	Dirección del viento	0
19767	7	Sololá	701	Sololá	1	Sololá	4	Abril	2023-04-24T00:00:00	2024-11-08T17:00:00	1	Precipitación	0
19768	7	Sololá	701	Sololá	1	Sololá	4	Abril	2023-04-24T00:00:00	2024-11-08T17:00:00	8	Radiación solar	14
19769	7	Sololá	701	Sololá	1	Sololá	4	Abril	2023-04-24T00:00:00	2024-11-08T18:00:00	2	Temperatura media	14.6
19770	7	Sololá	701	Sololá	1	Sololá	4	Abril	2023-04-24T00:00:00	2024-11-08T18:00:00	4	Temperatura máxima	15.3
19771	7	Sololá	701	Sololá	1	Sololá	4	Abril	2023-04-24T00:00:00	2024-11-08T18:00:00	3	Temperatura mínima	14.5
19772	7	Sololá	701	Sololá	1	Sololá	4	Abril	2023-04-24T00:00:00	2024-11-08T18:00:00	5	Humedad	95
19773	7	Sololá	701	Sololá	1	Sololá	4	Abril	2023-04-24T00:00:00	2024-11-08T18:00:00	6	Velocidad del viento	0
19774	7	Sololá	701	Sololá	1	Sololá	4	Abril	2023-04-24T00:00:00	2024-11-08T18:00:00	7	Dirección del viento	0
19775	7	Sololá	701	Sololá	1	Sololá	4	Abril	2023-04-24T00:00:00	2024-11-08T18:00:00	1	Precipitación	0.4
19776	7	Sololá	701	Sololá	1	Sololá	4	Abril	2023-04-24T00:00:00	2024-11-08T18:00:00	8	Radiación solar	12
19777	7	Sololá	701	Sololá	1	Sololá	4	Abril	2023-04-24T00:00:00	2024-11-08T19:00:00	2	Temperatura media	13.7
19778	7	Sololá	701	Sololá	1	Sololá	4	Abril	2023-04-24T00:00:00	2024-11-08T19:00:00	4	Temperatura máxima	14.6
19779	7	Sololá	701	Sololá	1	Sololá	4	Abril	2023-04-24T00:00:00	2024-11-08T19:00:00	3	Temperatura mínima	13.7
19780	7	Sololá	701	Sololá	1	Sololá	4	Abril	2023-04-24T00:00:00	2024-11-08T19:00:00	5	Humedad	96
19781	7	Sololá	701	Sololá	1	Sololá	4	Abril	2023-04-24T00:00:00	2024-11-08T19:00:00	6	Velocidad del viento	0
19782	7	Sololá	701	Sololá	1	Sololá	4	Abril	2023-04-24T00:00:00	2024-11-08T19:00:00	7	Dirección del viento	0
19783	7	Sololá	701	Sololá	1	Sololá	4	Abril	2023-04-24T00:00:00	2024-11-08T19:00:00	1	Precipitación	0.6
19784	7	Sololá	701	Sololá	1	Sololá	4	Abril	2023-04-24T00:00:00	2024-11-08T19:00:00	8	Radiación solar	0
19785	7	Sololá	701	Sololá	1	Sololá	4	Abril	2023-04-24T00:00:00	2024-11-08T20:00:00	2	Temperatura media	13.4
19786	7	Sololá	701	Sololá	1	Sololá	4	Abril	2023-04-24T00:00:00	2024-11-08T20:00:00	4	Temperatura máxima	13.7
19787	7	Sololá	701	Sololá	1	Sololá	4	Abril	2023-04-24T00:00:00	2024-11-08T20:00:00	3	Temperatura mínima	13.4
19788	7	Sololá	701	Sololá	1	Sololá	4	Abril	2023-04-24T00:00:00	2024-11-08T20:00:00	5	Humedad	96
19789	7	Sololá	701	Sololá	1	Sololá	4	Abril	2023-04-24T00:00:00	2024-11-08T20:00:00	6	Velocidad del viento	0
19790	7	Sololá	701	Sololá	1	Sololá	4	Abril	2023-04-24T00:00:00	2024-11-08T20:00:00	7	Dirección del viento	0
19791	7	Sololá	701	Sololá	1	Sololá	4	Abril	2023-04-24T00:00:00	2024-11-08T20:00:00	1	Precipitación	0.4
19792	7	Sololá	701	Sololá	1	Sololá	4	Abril	2023-04-24T00:00:00	2024-11-08T20:00:00	8	Radiación solar	0
19793	7	Sololá	701	Sololá	1	Sololá	4	Abril	2023-04-24T00:00:00	2024-11-08T21:00:00	2	Temperatura media	13.7
19794	7	Sololá	701	Sololá	1	Sololá	4	Abril	2023-04-24T00:00:00	2024-11-08T21:00:00	4	Temperatura máxima	13.8
19795	7	Sololá	701	Sololá	1	Sololá	4	Abril	2023-04-24T00:00:00	2024-11-08T21:00:00	3	Temperatura mínima	13.4
19796	7	Sololá	701	Sololá	1	Sololá	4	Abril	2023-04-24T00:00:00	2024-11-08T21:00:00	5	Humedad	97
19797	7	Sololá	701	Sololá	1	Sololá	4	Abril	2023-04-24T00:00:00	2024-11-08T21:00:00	6	Velocidad del viento	0
19798	7	Sololá	701	Sololá	1	Sololá	4	Abril	2023-04-24T00:00:00	2024-11-08T21:00:00	7	Dirección del viento	0
19799	7	Sololá	701	Sololá	1	Sololá	4	Abril	2023-04-24T00:00:00	2024-11-08T21:00:00	1	Precipitación	0.4
19800	7	Sololá	701	Sololá	1	Sololá	4	Abril	2023-04-24T00:00:00	2024-11-08T21:00:00	8	Radiación solar	0
19801	7	Sololá	701	Sololá	1	Sololá	4	Abril	2023-04-24T00:00:00	2024-11-08T22:00:00	2	Temperatura media	13.7
19802	7	Sololá	701	Sololá	1	Sololá	4	Abril	2023-04-24T00:00:00	2024-11-08T22:00:00	4	Temperatura máxima	13.8
19803	7	Sololá	701	Sololá	1	Sololá	4	Abril	2023-04-24T00:00:00	2024-11-08T22:00:00	3	Temperatura mínima	13.7
19804	7	Sololá	701	Sololá	1	Sololá	4	Abril	2023-04-24T00:00:00	2024-11-08T22:00:00	5	Humedad	96
19805	7	Sololá	701	Sololá	1	Sololá	4	Abril	2023-04-24T00:00:00	2024-11-08T22:00:00	6	Velocidad del viento	0
19806	7	Sololá	701	Sololá	1	Sololá	4	Abril	2023-04-24T00:00:00	2024-11-08T22:00:00	7	Dirección del viento	0
19807	7	Sololá	701	Sololá	1	Sololá	4	Abril	2023-04-24T00:00:00	2024-11-08T22:00:00	1	Precipitación	0.4
19808	7	Sololá	701	Sololá	1	Sololá	4	Abril	2023-04-24T00:00:00	2024-11-08T22:00:00	8	Radiación solar	0
19809	7	Sololá	701	Sololá	1	Sololá	4	Abril	2023-04-24T00:00:00	2024-11-08T23:00:00	2	Temperatura media	13.7
19810	7	Sololá	701	Sololá	1	Sololá	4	Abril	2023-04-24T00:00:00	2024-11-08T23:00:00	4	Temperatura máxima	13.8
19811	7	Sololá	701	Sololá	1	Sololá	4	Abril	2023-04-24T00:00:00	2024-11-08T23:00:00	3	Temperatura mínima	13.6
19812	7	Sololá	701	Sololá	1	Sololá	4	Abril	2023-04-24T00:00:00	2024-11-08T23:00:00	5	Humedad	96
19813	7	Sololá	701	Sololá	1	Sololá	4	Abril	2023-04-24T00:00:00	2024-11-08T23:00:00	6	Velocidad del viento	0
19814	7	Sololá	701	Sololá	1	Sololá	4	Abril	2023-04-24T00:00:00	2024-11-08T23:00:00	7	Dirección del viento	0
19815	7	Sololá	701	Sololá	1	Sololá	4	Abril	2023-04-24T00:00:00	2024-11-08T23:00:00	1	Precipitación	0.2
19816	7	Sololá	701	Sololá	1	Sololá	4	Abril	2023-04-24T00:00:00	2024-11-08T23:00:00	8	Radiación solar	0
19817	7	Sololá	701	Sololá	1	Sololá	4	Abril	2023-04-25T00:00:00	2024-11-08T00:00:00	2	Temperatura media	13.3
19818	7	Sololá	701	Sololá	1	Sololá	4	Abril	2023-04-25T00:00:00	2024-11-08T00:00:00	4	Temperatura máxima	13.7
19819	7	Sololá	701	Sololá	1	Sololá	4	Abril	2023-04-25T00:00:00	2024-11-08T00:00:00	3	Temperatura mínima	13.3
19820	7	Sololá	701	Sololá	1	Sololá	4	Abril	2023-04-25T00:00:00	2024-11-08T00:00:00	5	Humedad	96
19821	7	Sololá	701	Sololá	1	Sololá	4	Abril	2023-04-25T00:00:00	2024-11-08T00:00:00	6	Velocidad del viento	0
19822	7	Sololá	701	Sololá	1	Sololá	4	Abril	2023-04-25T00:00:00	2024-11-08T00:00:00	7	Dirección del viento	0
19823	7	Sololá	701	Sololá	1	Sololá	4	Abril	2023-04-25T00:00:00	2024-11-08T00:00:00	1	Precipitación	0
19824	7	Sololá	701	Sololá	1	Sololá	4	Abril	2023-04-25T00:00:00	2024-11-08T00:00:00	8	Radiación solar	0
19825	7	Sololá	701	Sololá	1	Sololá	4	Abril	2023-04-25T00:00:00	2024-11-08T01:00:00	2	Temperatura media	12.8
19826	7	Sololá	701	Sololá	1	Sololá	4	Abril	2023-04-25T00:00:00	2024-11-08T01:00:00	4	Temperatura máxima	13.4
19827	7	Sololá	701	Sololá	1	Sololá	4	Abril	2023-04-25T00:00:00	2024-11-08T01:00:00	3	Temperatura mínima	12.8
19828	7	Sololá	701	Sololá	1	Sololá	4	Abril	2023-04-25T00:00:00	2024-11-08T01:00:00	5	Humedad	95
19829	7	Sololá	701	Sololá	1	Sololá	4	Abril	2023-04-25T00:00:00	2024-11-08T01:00:00	6	Velocidad del viento	0
19830	7	Sololá	701	Sololá	1	Sololá	4	Abril	2023-04-25T00:00:00	2024-11-08T01:00:00	7	Dirección del viento	0
19831	7	Sololá	701	Sololá	1	Sololá	4	Abril	2023-04-25T00:00:00	2024-11-08T01:00:00	1	Precipitación	0.2
19832	7	Sololá	701	Sololá	1	Sololá	4	Abril	2023-04-25T00:00:00	2024-11-08T01:00:00	8	Radiación solar	0
19833	7	Sololá	701	Sololá	1	Sololá	4	Abril	2023-04-25T00:00:00	2024-11-08T02:00:00	2	Temperatura media	12.1
19834	7	Sololá	701	Sololá	1	Sololá	4	Abril	2023-04-25T00:00:00	2024-11-08T02:00:00	4	Temperatura máxima	12.8
19835	7	Sololá	701	Sololá	1	Sololá	4	Abril	2023-04-25T00:00:00	2024-11-08T02:00:00	3	Temperatura mínima	12.1
19836	7	Sololá	701	Sololá	1	Sololá	4	Abril	2023-04-25T00:00:00	2024-11-08T02:00:00	5	Humedad	95
19837	7	Sololá	701	Sololá	1	Sololá	4	Abril	2023-04-25T00:00:00	2024-11-08T02:00:00	6	Velocidad del viento	0
19838	7	Sololá	701	Sololá	1	Sololá	4	Abril	2023-04-25T00:00:00	2024-11-08T02:00:00	7	Dirección del viento	0
19839	7	Sololá	701	Sololá	1	Sololá	4	Abril	2023-04-25T00:00:00	2024-11-08T02:00:00	1	Precipitación	0
19840	7	Sololá	701	Sololá	1	Sololá	4	Abril	2023-04-25T00:00:00	2024-11-08T02:00:00	8	Radiación solar	0
19841	7	Sololá	701	Sololá	1	Sololá	4	Abril	2023-04-25T00:00:00	2024-11-08T03:00:00	2	Temperatura media	11.8
19842	7	Sololá	701	Sololá	1	Sololá	4	Abril	2023-04-25T00:00:00	2024-11-08T03:00:00	4	Temperatura máxima	12.2
19843	7	Sololá	701	Sololá	1	Sololá	4	Abril	2023-04-25T00:00:00	2024-11-08T03:00:00	3	Temperatura mínima	11.7
19844	7	Sololá	701	Sololá	1	Sololá	4	Abril	2023-04-25T00:00:00	2024-11-08T03:00:00	5	Humedad	95
19845	7	Sololá	701	Sololá	1	Sololá	4	Abril	2023-04-25T00:00:00	2024-11-08T03:00:00	6	Velocidad del viento	0
19846	7	Sololá	701	Sololá	1	Sololá	4	Abril	2023-04-25T00:00:00	2024-11-08T03:00:00	7	Dirección del viento	0
19847	7	Sololá	701	Sololá	1	Sololá	4	Abril	2023-04-25T00:00:00	2024-11-08T03:00:00	1	Precipitación	0.2
19848	7	Sololá	701	Sololá	1	Sololá	4	Abril	2023-04-25T00:00:00	2024-11-08T03:00:00	8	Radiación solar	0
19849	7	Sololá	701	Sololá	1	Sololá	4	Abril	2023-04-25T00:00:00	2024-11-08T04:00:00	2	Temperatura media	11.8
19850	7	Sololá	701	Sololá	1	Sololá	4	Abril	2023-04-25T00:00:00	2024-11-08T04:00:00	4	Temperatura máxima	11.8
19851	7	Sololá	701	Sololá	1	Sololá	4	Abril	2023-04-25T00:00:00	2024-11-08T04:00:00	3	Temperatura mínima	11.7
19852	7	Sololá	701	Sololá	1	Sololá	4	Abril	2023-04-25T00:00:00	2024-11-08T04:00:00	5	Humedad	94
19853	7	Sololá	701	Sololá	1	Sololá	4	Abril	2023-04-25T00:00:00	2024-11-08T04:00:00	6	Velocidad del viento	1.6
19854	7	Sololá	701	Sololá	1	Sololá	4	Abril	2023-04-25T00:00:00	2024-11-08T04:00:00	7	Dirección del viento	1.61
19855	7	Sololá	701	Sololá	1	Sololá	4	Abril	2023-04-25T00:00:00	2024-11-08T04:00:00	1	Precipitación	0
19856	7	Sololá	701	Sololá	1	Sololá	4	Abril	2023-04-25T00:00:00	2024-11-08T04:00:00	8	Radiación solar	0
19857	7	Sololá	701	Sololá	1	Sololá	4	Abril	2023-04-25T00:00:00	2024-11-08T05:00:00	2	Temperatura media	11.7
19858	7	Sololá	701	Sololá	1	Sololá	4	Abril	2023-04-25T00:00:00	2024-11-08T05:00:00	4	Temperatura máxima	11.8
19859	7	Sololá	701	Sololá	1	Sololá	4	Abril	2023-04-25T00:00:00	2024-11-08T05:00:00	3	Temperatura mínima	11.6
19860	7	Sololá	701	Sololá	1	Sololá	4	Abril	2023-04-25T00:00:00	2024-11-08T05:00:00	5	Humedad	92
19861	7	Sololá	701	Sololá	1	Sololá	4	Abril	2023-04-25T00:00:00	2024-11-08T05:00:00	6	Velocidad del viento	1.6
19862	7	Sololá	701	Sololá	1	Sololá	4	Abril	2023-04-25T00:00:00	2024-11-08T05:00:00	7	Dirección del viento	1.61
19863	7	Sololá	701	Sololá	1	Sololá	4	Abril	2023-04-25T00:00:00	2024-11-08T05:00:00	1	Precipitación	0
19864	7	Sololá	701	Sololá	1	Sololá	4	Abril	2023-04-25T00:00:00	2024-11-08T05:00:00	8	Radiación solar	0
19865	7	Sololá	701	Sololá	1	Sololá	4	Abril	2023-04-25T00:00:00	2024-11-08T06:00:00	2	Temperatura media	12.1
19866	7	Sololá	701	Sololá	1	Sololá	4	Abril	2023-04-25T00:00:00	2024-11-08T06:00:00	4	Temperatura máxima	12.2
19867	7	Sololá	701	Sololá	1	Sololá	4	Abril	2023-04-25T00:00:00	2024-11-08T06:00:00	3	Temperatura mínima	11.7
19868	7	Sololá	701	Sololá	1	Sololá	4	Abril	2023-04-25T00:00:00	2024-11-08T06:00:00	5	Humedad	90
19869	7	Sololá	701	Sololá	1	Sololá	4	Abril	2023-04-25T00:00:00	2024-11-08T06:00:00	6	Velocidad del viento	1.6
19870	7	Sololá	701	Sololá	1	Sololá	4	Abril	2023-04-25T00:00:00	2024-11-08T06:00:00	7	Dirección del viento	1.61
19871	7	Sololá	701	Sololá	1	Sololá	4	Abril	2023-04-25T00:00:00	2024-11-08T06:00:00	1	Precipitación	0
19872	7	Sololá	701	Sololá	1	Sololá	4	Abril	2023-04-25T00:00:00	2024-11-08T06:00:00	8	Radiación solar	1
19873	7	Sololá	701	Sololá	1	Sololá	4	Abril	2023-04-25T00:00:00	2024-11-08T07:00:00	2	Temperatura media	11.9
19874	7	Sololá	701	Sololá	1	Sololá	4	Abril	2023-04-25T00:00:00	2024-11-08T07:00:00	4	Temperatura máxima	12.3
19875	7	Sololá	701	Sololá	1	Sololá	4	Abril	2023-04-25T00:00:00	2024-11-08T07:00:00	3	Temperatura mínima	11.9
19876	7	Sololá	701	Sololá	1	Sololá	4	Abril	2023-04-25T00:00:00	2024-11-08T07:00:00	5	Humedad	90
19877	7	Sololá	701	Sololá	1	Sololá	4	Abril	2023-04-25T00:00:00	2024-11-08T07:00:00	6	Velocidad del viento	1.6
19878	7	Sololá	701	Sololá	1	Sololá	4	Abril	2023-04-25T00:00:00	2024-11-08T07:00:00	7	Dirección del viento	1.61
19879	7	Sololá	701	Sololá	1	Sololá	4	Abril	2023-04-25T00:00:00	2024-11-08T07:00:00	1	Precipitación	0.2
19880	7	Sololá	701	Sololá	1	Sololá	4	Abril	2023-04-25T00:00:00	2024-11-08T07:00:00	8	Radiación solar	29
19881	7	Sololá	701	Sololá	1	Sololá	4	Abril	2023-04-25T00:00:00	2024-11-08T08:00:00	2	Temperatura media	12.6
19882	7	Sololá	701	Sololá	1	Sololá	4	Abril	2023-04-25T00:00:00	2024-11-08T08:00:00	4	Temperatura máxima	12.6
19883	7	Sololá	701	Sololá	1	Sololá	4	Abril	2023-04-25T00:00:00	2024-11-08T08:00:00	3	Temperatura mínima	11.9
19884	7	Sololá	701	Sololá	1	Sololá	4	Abril	2023-04-25T00:00:00	2024-11-08T08:00:00	5	Humedad	90
19885	7	Sololá	701	Sololá	1	Sololá	4	Abril	2023-04-25T00:00:00	2024-11-08T08:00:00	6	Velocidad del viento	0
19886	7	Sololá	701	Sololá	1	Sololá	4	Abril	2023-04-25T00:00:00	2024-11-08T08:00:00	7	Dirección del viento	0
19887	7	Sololá	701	Sololá	1	Sololá	4	Abril	2023-04-25T00:00:00	2024-11-08T08:00:00	1	Precipitación	0
19888	7	Sololá	701	Sololá	1	Sololá	4	Abril	2023-04-25T00:00:00	2024-11-08T08:00:00	8	Radiación solar	196
19889	7	Sololá	701	Sololá	1	Sololá	4	Abril	2023-04-25T00:00:00	2024-11-08T09:00:00	2	Temperatura media	16.2
19890	7	Sololá	701	Sololá	1	Sololá	4	Abril	2023-04-25T00:00:00	2024-11-08T09:00:00	4	Temperatura máxima	16.2
19891	7	Sololá	701	Sololá	1	Sololá	4	Abril	2023-04-25T00:00:00	2024-11-08T09:00:00	3	Temperatura mínima	12.6
19892	7	Sololá	701	Sololá	1	Sololá	4	Abril	2023-04-25T00:00:00	2024-11-08T09:00:00	5	Humedad	81
19893	7	Sololá	701	Sololá	1	Sololá	4	Abril	2023-04-25T00:00:00	2024-11-08T09:00:00	6	Velocidad del viento	0
19894	7	Sololá	701	Sololá	1	Sololá	4	Abril	2023-04-25T00:00:00	2024-11-08T09:00:00	7	Dirección del viento	0
19895	7	Sololá	701	Sololá	1	Sololá	4	Abril	2023-04-25T00:00:00	2024-11-08T09:00:00	1	Precipitación	0
19896	7	Sololá	701	Sololá	1	Sololá	4	Abril	2023-04-25T00:00:00	2024-11-08T09:00:00	8	Radiación solar	538
19897	7	Sololá	701	Sololá	1	Sololá	4	Abril	2023-04-25T00:00:00	2024-11-08T10:00:00	2	Temperatura media	19.8
19898	7	Sololá	701	Sololá	1	Sololá	4	Abril	2023-04-25T00:00:00	2024-11-08T10:00:00	4	Temperatura máxima	19.8
19899	7	Sololá	701	Sololá	1	Sololá	4	Abril	2023-04-25T00:00:00	2024-11-08T10:00:00	3	Temperatura mínima	16.2
19900	7	Sololá	701	Sololá	1	Sololá	4	Abril	2023-04-25T00:00:00	2024-11-08T10:00:00	5	Humedad	74
19901	7	Sololá	701	Sololá	1	Sololá	4	Abril	2023-04-25T00:00:00	2024-11-08T10:00:00	6	Velocidad del viento	0
19902	7	Sololá	701	Sololá	1	Sololá	4	Abril	2023-04-25T00:00:00	2024-11-08T10:00:00	7	Dirección del viento	0
19903	7	Sololá	701	Sololá	1	Sololá	4	Abril	2023-04-25T00:00:00	2024-11-08T10:00:00	1	Precipitación	0
19904	7	Sololá	701	Sololá	1	Sololá	4	Abril	2023-04-25T00:00:00	2024-11-08T10:00:00	8	Radiación solar	743
19905	7	Sololá	701	Sololá	1	Sololá	4	Abril	2023-04-25T00:00:00	2024-11-08T11:00:00	2	Temperatura media	20.8
19906	7	Sololá	701	Sololá	1	Sololá	4	Abril	2023-04-25T00:00:00	2024-11-08T11:00:00	4	Temperatura máxima	20.9
19907	7	Sololá	701	Sololá	1	Sololá	4	Abril	2023-04-25T00:00:00	2024-11-08T11:00:00	3	Temperatura mínima	19.8
19908	7	Sololá	701	Sololá	1	Sololá	4	Abril	2023-04-25T00:00:00	2024-11-08T11:00:00	5	Humedad	73
19909	7	Sololá	701	Sololá	1	Sololá	4	Abril	2023-04-25T00:00:00	2024-11-08T11:00:00	6	Velocidad del viento	0
19910	7	Sololá	701	Sololá	1	Sololá	4	Abril	2023-04-25T00:00:00	2024-11-08T11:00:00	7	Dirección del viento	0
19911	7	Sololá	701	Sololá	1	Sololá	4	Abril	2023-04-25T00:00:00	2024-11-08T11:00:00	1	Precipitación	0.2
19912	7	Sololá	701	Sololá	1	Sololá	4	Abril	2023-04-25T00:00:00	2024-11-08T11:00:00	8	Radiación solar	876
19913	7	Sololá	701	Sololá	1	Sololá	4	Abril	2023-04-25T00:00:00	2024-11-08T12:00:00	2	Temperatura media	21.6
19914	7	Sololá	701	Sololá	1	Sololá	4	Abril	2023-04-25T00:00:00	2024-11-08T12:00:00	4	Temperatura máxima	21.6
19915	7	Sololá	701	Sololá	1	Sololá	4	Abril	2023-04-25T00:00:00	2024-11-08T12:00:00	3	Temperatura mínima	20.8
19916	7	Sololá	701	Sololá	1	Sololá	4	Abril	2023-04-25T00:00:00	2024-11-08T12:00:00	5	Humedad	68
19917	7	Sololá	701	Sololá	1	Sololá	4	Abril	2023-04-25T00:00:00	2024-11-08T12:00:00	6	Velocidad del viento	0
19918	7	Sololá	701	Sololá	1	Sololá	4	Abril	2023-04-25T00:00:00	2024-11-08T12:00:00	7	Dirección del viento	0
19919	7	Sololá	701	Sololá	1	Sololá	4	Abril	2023-04-25T00:00:00	2024-11-08T12:00:00	1	Precipitación	0
19920	7	Sololá	701	Sololá	1	Sololá	4	Abril	2023-04-25T00:00:00	2024-11-08T12:00:00	8	Radiación solar	888
19921	7	Sololá	701	Sololá	1	Sololá	4	Abril	2023-04-25T00:00:00	2024-11-08T13:00:00	2	Temperatura media	21.6
19922	7	Sololá	701	Sololá	1	Sololá	4	Abril	2023-04-25T00:00:00	2024-11-08T13:00:00	4	Temperatura máxima	21.9
19923	7	Sololá	701	Sololá	1	Sololá	4	Abril	2023-04-25T00:00:00	2024-11-08T13:00:00	3	Temperatura mínima	21.5
19924	7	Sololá	701	Sololá	1	Sololá	4	Abril	2023-04-25T00:00:00	2024-11-08T13:00:00	5	Humedad	72
19925	7	Sololá	701	Sololá	1	Sololá	4	Abril	2023-04-25T00:00:00	2024-11-08T13:00:00	6	Velocidad del viento	0
19926	7	Sololá	701	Sololá	1	Sololá	4	Abril	2023-04-25T00:00:00	2024-11-08T13:00:00	7	Dirección del viento	0
19927	7	Sololá	701	Sololá	1	Sololá	4	Abril	2023-04-25T00:00:00	2024-11-08T13:00:00	1	Precipitación	0
19928	7	Sololá	701	Sololá	1	Sololá	4	Abril	2023-04-25T00:00:00	2024-11-08T13:00:00	8	Radiación solar	419
19929	7	Sololá	701	Sololá	1	Sololá	4	Abril	2023-04-25T00:00:00	2024-11-08T14:00:00	2	Temperatura media	20.7
19930	7	Sololá	701	Sololá	1	Sololá	4	Abril	2023-04-25T00:00:00	2024-11-08T14:00:00	4	Temperatura máxima	21.7
19931	7	Sololá	701	Sololá	1	Sololá	4	Abril	2023-04-25T00:00:00	2024-11-08T14:00:00	3	Temperatura mínima	20.2
19932	7	Sololá	701	Sololá	1	Sololá	4	Abril	2023-04-25T00:00:00	2024-11-08T14:00:00	5	Humedad	80
19933	7	Sololá	701	Sololá	1	Sololá	4	Abril	2023-04-25T00:00:00	2024-11-08T14:00:00	6	Velocidad del viento	0
19934	7	Sololá	701	Sololá	1	Sololá	4	Abril	2023-04-25T00:00:00	2024-11-08T14:00:00	7	Dirección del viento	0
19935	7	Sololá	701	Sololá	1	Sololá	4	Abril	2023-04-25T00:00:00	2024-11-08T14:00:00	1	Precipitación	0
19936	7	Sololá	701	Sololá	1	Sololá	4	Abril	2023-04-25T00:00:00	2024-11-08T14:00:00	8	Radiación solar	281
19937	7	Sololá	701	Sololá	1	Sololá	4	Abril	2023-04-25T00:00:00	2024-11-08T15:00:00	2	Temperatura media	20.5
19938	7	Sololá	701	Sololá	1	Sololá	4	Abril	2023-04-25T00:00:00	2024-11-08T15:00:00	4	Temperatura máxima	21.3
19939	7	Sololá	701	Sololá	1	Sololá	4	Abril	2023-04-25T00:00:00	2024-11-08T15:00:00	3	Temperatura mínima	20.5
19940	7	Sololá	701	Sololá	1	Sololá	4	Abril	2023-04-25T00:00:00	2024-11-08T15:00:00	5	Humedad	81
19941	7	Sololá	701	Sololá	1	Sololá	4	Abril	2023-04-25T00:00:00	2024-11-08T15:00:00	6	Velocidad del viento	0
19942	7	Sololá	701	Sololá	1	Sololá	4	Abril	2023-04-25T00:00:00	2024-11-08T15:00:00	7	Dirección del viento	0
19943	7	Sololá	701	Sololá	1	Sololá	4	Abril	2023-04-25T00:00:00	2024-11-08T15:00:00	1	Precipitación	0
19944	7	Sololá	701	Sololá	1	Sololá	4	Abril	2023-04-25T00:00:00	2024-11-08T15:00:00	8	Radiación solar	232
19945	7	Sololá	701	Sololá	1	Sololá	4	Abril	2023-04-25T00:00:00	2024-11-08T16:00:00	2	Temperatura media	19.8
19946	7	Sololá	701	Sololá	1	Sololá	4	Abril	2023-04-25T00:00:00	2024-11-08T16:00:00	4	Temperatura máxima	20.9
19947	7	Sololá	701	Sololá	1	Sololá	4	Abril	2023-04-25T00:00:00	2024-11-08T16:00:00	3	Temperatura mínima	19.8
19948	7	Sololá	701	Sololá	1	Sololá	4	Abril	2023-04-25T00:00:00	2024-11-08T16:00:00	5	Humedad	82
19949	7	Sololá	701	Sololá	1	Sololá	4	Abril	2023-04-25T00:00:00	2024-11-08T16:00:00	6	Velocidad del viento	0
19950	7	Sololá	701	Sololá	1	Sololá	4	Abril	2023-04-25T00:00:00	2024-11-08T16:00:00	7	Dirección del viento	0
19951	7	Sololá	701	Sololá	1	Sololá	4	Abril	2023-04-25T00:00:00	2024-11-08T16:00:00	1	Precipitación	0
19952	7	Sololá	701	Sololá	1	Sololá	4	Abril	2023-04-25T00:00:00	2024-11-08T16:00:00	8	Radiación solar	106
19953	7	Sololá	701	Sololá	1	Sololá	4	Abril	2023-04-25T00:00:00	2024-11-08T17:00:00	2	Temperatura media	18.7
19954	7	Sololá	701	Sololá	1	Sololá	4	Abril	2023-04-25T00:00:00	2024-11-08T17:00:00	4	Temperatura máxima	19.8
19955	7	Sololá	701	Sololá	1	Sololá	4	Abril	2023-04-25T00:00:00	2024-11-08T17:00:00	3	Temperatura mínima	18.7
19956	7	Sololá	701	Sololá	1	Sololá	4	Abril	2023-04-25T00:00:00	2024-11-08T17:00:00	5	Humedad	86
19957	7	Sololá	701	Sololá	1	Sololá	4	Abril	2023-04-25T00:00:00	2024-11-08T17:00:00	6	Velocidad del viento	0
19958	7	Sololá	701	Sololá	1	Sololá	4	Abril	2023-04-25T00:00:00	2024-11-08T17:00:00	7	Dirección del viento	0
19959	7	Sololá	701	Sololá	1	Sololá	4	Abril	2023-04-25T00:00:00	2024-11-08T17:00:00	1	Precipitación	0.2
19960	7	Sololá	701	Sololá	1	Sololá	4	Abril	2023-04-25T00:00:00	2024-11-08T17:00:00	8	Radiación solar	36
19961	7	Sololá	701	Sololá	1	Sololá	4	Abril	2023-04-25T00:00:00	2024-11-08T18:00:00	2	Temperatura media	17.6
19962	7	Sololá	701	Sololá	1	Sololá	4	Abril	2023-04-25T00:00:00	2024-11-08T18:00:00	4	Temperatura máxima	18.7
19963	7	Sololá	701	Sololá	1	Sololá	4	Abril	2023-04-25T00:00:00	2024-11-08T18:00:00	3	Temperatura mínima	17.5
19964	7	Sololá	701	Sololá	1	Sololá	4	Abril	2023-04-25T00:00:00	2024-11-08T18:00:00	5	Humedad	92
19965	7	Sololá	701	Sololá	1	Sololá	4	Abril	2023-04-25T00:00:00	2024-11-08T18:00:00	6	Velocidad del viento	0
19966	7	Sololá	701	Sololá	1	Sololá	4	Abril	2023-04-25T00:00:00	2024-11-08T18:00:00	7	Dirección del viento	0
19967	7	Sololá	701	Sololá	1	Sololá	4	Abril	2023-04-25T00:00:00	2024-11-08T18:00:00	1	Precipitación	0
19968	7	Sololá	701	Sololá	1	Sololá	4	Abril	2023-04-25T00:00:00	2024-11-08T18:00:00	8	Radiación solar	14
19969	7	Sololá	701	Sololá	1	Sololá	4	Abril	2023-04-25T00:00:00	2024-11-08T19:00:00	2	Temperatura media	17.1
19970	7	Sololá	701	Sololá	1	Sololá	4	Abril	2023-04-25T00:00:00	2024-11-08T19:00:00	4	Temperatura máxima	17.6
19971	7	Sololá	701	Sololá	1	Sololá	4	Abril	2023-04-25T00:00:00	2024-11-08T19:00:00	3	Temperatura mínima	17
19972	7	Sololá	701	Sololá	1	Sololá	4	Abril	2023-04-25T00:00:00	2024-11-08T19:00:00	5	Humedad	94
19973	7	Sololá	701	Sololá	1	Sololá	4	Abril	2023-04-25T00:00:00	2024-11-08T19:00:00	6	Velocidad del viento	0
19974	7	Sololá	701	Sololá	1	Sololá	4	Abril	2023-04-25T00:00:00	2024-11-08T19:00:00	7	Dirección del viento	0
19975	7	Sololá	701	Sololá	1	Sololá	4	Abril	2023-04-25T00:00:00	2024-11-08T19:00:00	1	Precipitación	0
19976	7	Sololá	701	Sololá	1	Sololá	4	Abril	2023-04-25T00:00:00	2024-11-08T19:00:00	8	Radiación solar	0
19977	7	Sololá	701	Sololá	1	Sololá	4	Abril	2023-04-25T00:00:00	2024-11-08T20:00:00	2	Temperatura media	16.7
19978	7	Sololá	701	Sololá	1	Sololá	4	Abril	2023-04-25T00:00:00	2024-11-08T20:00:00	4	Temperatura máxima	17.1
19979	7	Sololá	701	Sololá	1	Sololá	4	Abril	2023-04-25T00:00:00	2024-11-08T20:00:00	3	Temperatura mínima	16.6
19980	7	Sololá	701	Sololá	1	Sololá	4	Abril	2023-04-25T00:00:00	2024-11-08T20:00:00	5	Humedad	94
19981	7	Sololá	701	Sololá	1	Sololá	4	Abril	2023-04-25T00:00:00	2024-11-08T20:00:00	6	Velocidad del viento	0
19982	7	Sololá	701	Sololá	1	Sololá	4	Abril	2023-04-25T00:00:00	2024-11-08T20:00:00	7	Dirección del viento	0
19983	7	Sololá	701	Sololá	1	Sololá	4	Abril	2023-04-25T00:00:00	2024-11-08T20:00:00	1	Precipitación	0
19984	7	Sololá	701	Sololá	1	Sololá	4	Abril	2023-04-25T00:00:00	2024-11-08T20:00:00	8	Radiación solar	0
19985	7	Sololá	701	Sololá	1	Sololá	4	Abril	2023-04-25T00:00:00	2024-11-08T21:00:00	2	Temperatura media	16.3
19986	7	Sololá	701	Sololá	1	Sololá	4	Abril	2023-04-25T00:00:00	2024-11-08T21:00:00	4	Temperatura máxima	16.6
19987	7	Sololá	701	Sololá	1	Sololá	4	Abril	2023-04-25T00:00:00	2024-11-08T21:00:00	3	Temperatura mínima	16.3
19988	7	Sololá	701	Sololá	1	Sololá	4	Abril	2023-04-25T00:00:00	2024-11-08T21:00:00	5	Humedad	94
19989	7	Sololá	701	Sololá	1	Sololá	4	Abril	2023-04-25T00:00:00	2024-11-08T21:00:00	6	Velocidad del viento	0
19990	7	Sololá	701	Sololá	1	Sololá	4	Abril	2023-04-25T00:00:00	2024-11-08T21:00:00	7	Dirección del viento	0
19991	7	Sololá	701	Sololá	1	Sololá	4	Abril	2023-04-25T00:00:00	2024-11-08T21:00:00	1	Precipitación	0
19992	7	Sololá	701	Sololá	1	Sololá	4	Abril	2023-04-25T00:00:00	2024-11-08T21:00:00	8	Radiación solar	0
19993	7	Sololá	701	Sololá	1	Sololá	4	Abril	2023-04-25T00:00:00	2024-11-08T22:00:00	2	Temperatura media	15.4
19994	7	Sololá	701	Sololá	1	Sololá	4	Abril	2023-04-25T00:00:00	2024-11-08T22:00:00	4	Temperatura máxima	16.3
19995	7	Sololá	701	Sololá	1	Sololá	4	Abril	2023-04-25T00:00:00	2024-11-08T22:00:00	3	Temperatura mínima	15.4
19996	7	Sololá	701	Sololá	1	Sololá	4	Abril	2023-04-25T00:00:00	2024-11-08T22:00:00	5	Humedad	93
19997	7	Sololá	701	Sololá	1	Sololá	4	Abril	2023-04-25T00:00:00	2024-11-08T22:00:00	6	Velocidad del viento	0
19998	7	Sololá	701	Sololá	1	Sololá	4	Abril	2023-04-25T00:00:00	2024-11-08T22:00:00	7	Dirección del viento	0
19999	7	Sololá	701	Sololá	1	Sololá	4	Abril	2023-04-25T00:00:00	2024-11-08T22:00:00	1	Precipitación	0
20000	7	Sololá	701	Sololá	1	Sololá	4	Abril	2023-04-25T00:00:00	2024-11-08T22:00:00	8	Radiación solar	0
20001	7	Sololá	701	Sololá	1	Sololá	4	Abril	2023-04-25T00:00:00	2024-11-08T23:00:00	2	Temperatura media	14.7
20002	7	Sololá	701	Sololá	1	Sololá	4	Abril	2023-04-25T00:00:00	2024-11-08T23:00:00	4	Temperatura máxima	15.5
20003	7	Sololá	701	Sololá	1	Sololá	4	Abril	2023-04-25T00:00:00	2024-11-08T23:00:00	3	Temperatura mínima	14.7
20004	7	Sololá	701	Sololá	1	Sololá	4	Abril	2023-04-25T00:00:00	2024-11-08T23:00:00	5	Humedad	93
20005	7	Sololá	701	Sololá	1	Sololá	4	Abril	2023-04-25T00:00:00	2024-11-08T23:00:00	6	Velocidad del viento	0
20006	7	Sololá	701	Sololá	1	Sololá	4	Abril	2023-04-25T00:00:00	2024-11-08T23:00:00	7	Dirección del viento	0
20007	7	Sololá	701	Sololá	1	Sololá	4	Abril	2023-04-25T00:00:00	2024-11-08T23:00:00	1	Precipitación	0
20008	7	Sololá	701	Sololá	1	Sololá	4	Abril	2023-04-25T00:00:00	2024-11-08T23:00:00	8	Radiación solar	0
20009	7	Sololá	701	Sololá	1	Sololá	4	Abril	2023-04-26T00:00:00	2024-11-08T00:00:00	2	Temperatura media	14.7
20010	7	Sololá	701	Sololá	1	Sololá	4	Abril	2023-04-26T00:00:00	2024-11-08T00:00:00	4	Temperatura máxima	14.7
20011	7	Sololá	701	Sololá	1	Sololá	4	Abril	2023-04-26T00:00:00	2024-11-08T00:00:00	3	Temperatura mínima	14.6
20012	7	Sololá	701	Sololá	1	Sololá	4	Abril	2023-04-26T00:00:00	2024-11-08T00:00:00	5	Humedad	93
20013	7	Sololá	701	Sololá	1	Sololá	4	Abril	2023-04-26T00:00:00	2024-11-08T00:00:00	6	Velocidad del viento	0
20014	7	Sololá	701	Sololá	1	Sololá	4	Abril	2023-04-26T00:00:00	2024-11-08T00:00:00	7	Dirección del viento	0
20015	7	Sololá	701	Sololá	1	Sololá	4	Abril	2023-04-26T00:00:00	2024-11-08T00:00:00	1	Precipitación	0
20016	7	Sololá	701	Sololá	1	Sololá	4	Abril	2023-04-26T00:00:00	2024-11-08T00:00:00	8	Radiación solar	0
20017	7	Sololá	701	Sololá	1	Sololá	4	Abril	2023-04-26T00:00:00	2024-11-08T01:00:00	2	Temperatura media	15.2
20018	7	Sololá	701	Sololá	1	Sololá	4	Abril	2023-04-26T00:00:00	2024-11-08T01:00:00	4	Temperatura máxima	15.2
20019	7	Sololá	701	Sololá	1	Sololá	4	Abril	2023-04-26T00:00:00	2024-11-08T01:00:00	3	Temperatura mínima	14.7
20020	7	Sololá	701	Sololá	1	Sololá	4	Abril	2023-04-26T00:00:00	2024-11-08T01:00:00	5	Humedad	92
20021	7	Sololá	701	Sololá	1	Sololá	4	Abril	2023-04-26T00:00:00	2024-11-08T01:00:00	6	Velocidad del viento	0
20022	7	Sololá	701	Sololá	1	Sololá	4	Abril	2023-04-26T00:00:00	2024-11-08T01:00:00	7	Dirección del viento	0
20023	7	Sololá	701	Sololá	1	Sololá	4	Abril	2023-04-26T00:00:00	2024-11-08T01:00:00	1	Precipitación	0
20024	7	Sololá	701	Sololá	1	Sololá	4	Abril	2023-04-26T00:00:00	2024-11-08T01:00:00	8	Radiación solar	0
20025	7	Sololá	701	Sololá	1	Sololá	4	Abril	2023-04-26T00:00:00	2024-11-08T02:00:00	2	Temperatura media	14.9
20026	7	Sololá	701	Sololá	1	Sololá	4	Abril	2023-04-26T00:00:00	2024-11-08T02:00:00	4	Temperatura máxima	15.2
20027	7	Sololá	701	Sololá	1	Sololá	4	Abril	2023-04-26T00:00:00	2024-11-08T02:00:00	3	Temperatura mínima	14.9
20028	7	Sololá	701	Sololá	1	Sololá	4	Abril	2023-04-26T00:00:00	2024-11-08T02:00:00	5	Humedad	91
20029	7	Sololá	701	Sololá	1	Sololá	4	Abril	2023-04-26T00:00:00	2024-11-08T02:00:00	6	Velocidad del viento	0
20030	7	Sololá	701	Sololá	1	Sololá	4	Abril	2023-04-26T00:00:00	2024-11-08T02:00:00	7	Dirección del viento	0
20031	7	Sololá	701	Sololá	1	Sololá	4	Abril	2023-04-26T00:00:00	2024-11-08T02:00:00	1	Precipitación	0
20032	7	Sololá	701	Sololá	1	Sololá	4	Abril	2023-04-26T00:00:00	2024-11-08T02:00:00	8	Radiación solar	0
20033	7	Sololá	701	Sololá	1	Sololá	4	Abril	2023-04-26T00:00:00	2024-11-08T03:00:00	2	Temperatura media	14.8
20034	7	Sololá	701	Sololá	1	Sololá	4	Abril	2023-04-26T00:00:00	2024-11-08T03:00:00	4	Temperatura máxima	14.9
20035	7	Sololá	701	Sololá	1	Sololá	4	Abril	2023-04-26T00:00:00	2024-11-08T03:00:00	3	Temperatura mínima	14.8
20036	7	Sololá	701	Sololá	1	Sololá	4	Abril	2023-04-26T00:00:00	2024-11-08T03:00:00	5	Humedad	91
20037	7	Sololá	701	Sololá	1	Sololá	4	Abril	2023-04-26T00:00:00	2024-11-08T03:00:00	6	Velocidad del viento	0
20038	7	Sololá	701	Sololá	1	Sololá	4	Abril	2023-04-26T00:00:00	2024-11-08T03:00:00	7	Dirección del viento	0
20039	7	Sololá	701	Sololá	1	Sololá	4	Abril	2023-04-26T00:00:00	2024-11-08T03:00:00	1	Precipitación	0
20040	7	Sololá	701	Sololá	1	Sololá	4	Abril	2023-04-26T00:00:00	2024-11-08T03:00:00	8	Radiación solar	0
20041	7	Sololá	701	Sololá	1	Sololá	4	Abril	2023-04-26T00:00:00	2024-11-08T04:00:00	2	Temperatura media	14.7
20042	7	Sololá	701	Sololá	1	Sololá	4	Abril	2023-04-26T00:00:00	2024-11-08T04:00:00	4	Temperatura máxima	14.8
20043	7	Sololá	701	Sololá	1	Sololá	4	Abril	2023-04-26T00:00:00	2024-11-08T04:00:00	3	Temperatura mínima	14.7
20044	7	Sololá	701	Sololá	1	Sololá	4	Abril	2023-04-26T00:00:00	2024-11-08T04:00:00	5	Humedad	91
20045	7	Sololá	701	Sololá	1	Sololá	4	Abril	2023-04-26T00:00:00	2024-11-08T04:00:00	6	Velocidad del viento	0
20046	7	Sololá	701	Sololá	1	Sololá	4	Abril	2023-04-26T00:00:00	2024-11-08T04:00:00	7	Dirección del viento	0
20047	7	Sololá	701	Sololá	1	Sololá	4	Abril	2023-04-26T00:00:00	2024-11-08T04:00:00	1	Precipitación	0
20048	7	Sololá	701	Sololá	1	Sololá	4	Abril	2023-04-26T00:00:00	2024-11-08T04:00:00	8	Radiación solar	0
20049	7	Sololá	701	Sololá	1	Sololá	4	Abril	2023-04-26T00:00:00	2024-11-08T05:00:00	2	Temperatura media	14.6
20050	7	Sololá	701	Sololá	1	Sololá	4	Abril	2023-04-26T00:00:00	2024-11-08T05:00:00	4	Temperatura máxima	14.8
20051	7	Sololá	701	Sololá	1	Sololá	4	Abril	2023-04-26T00:00:00	2024-11-08T05:00:00	3	Temperatura mínima	14.5
20052	7	Sololá	701	Sololá	1	Sololá	4	Abril	2023-04-26T00:00:00	2024-11-08T05:00:00	5	Humedad	92
20053	7	Sololá	701	Sololá	1	Sololá	4	Abril	2023-04-26T00:00:00	2024-11-08T05:00:00	6	Velocidad del viento	0
20054	7	Sololá	701	Sololá	1	Sololá	4	Abril	2023-04-26T00:00:00	2024-11-08T05:00:00	7	Dirección del viento	0
20055	7	Sololá	701	Sololá	1	Sololá	4	Abril	2023-04-26T00:00:00	2024-11-08T05:00:00	1	Precipitación	0.2
20056	7	Sololá	701	Sololá	1	Sololá	4	Abril	2023-04-26T00:00:00	2024-11-08T05:00:00	8	Radiación solar	0
20057	7	Sololá	701	Sololá	1	Sololá	4	Abril	2023-04-26T00:00:00	2024-11-08T06:00:00	2	Temperatura media	14.6
20058	7	Sololá	701	Sololá	1	Sololá	4	Abril	2023-04-26T00:00:00	2024-11-08T06:00:00	4	Temperatura máxima	14.6
20059	7	Sololá	701	Sololá	1	Sololá	4	Abril	2023-04-26T00:00:00	2024-11-08T06:00:00	3	Temperatura mínima	14.5
20060	7	Sololá	701	Sololá	1	Sololá	4	Abril	2023-04-26T00:00:00	2024-11-08T06:00:00	5	Humedad	93
20061	7	Sololá	701	Sololá	1	Sololá	4	Abril	2023-04-26T00:00:00	2024-11-08T06:00:00	6	Velocidad del viento	0
20062	7	Sololá	701	Sololá	1	Sololá	4	Abril	2023-04-26T00:00:00	2024-11-08T06:00:00	7	Dirección del viento	0
20063	7	Sololá	701	Sololá	1	Sololá	4	Abril	2023-04-26T00:00:00	2024-11-08T06:00:00	1	Precipitación	0
20064	7	Sololá	701	Sololá	1	Sololá	4	Abril	2023-04-26T00:00:00	2024-11-08T06:00:00	8	Radiación solar	1
20065	7	Sololá	701	Sololá	1	Sololá	4	Abril	2023-04-26T00:00:00	2024-11-08T07:00:00	2	Temperatura media	14.1
20066	7	Sololá	701	Sololá	1	Sololá	4	Abril	2023-04-26T00:00:00	2024-11-08T07:00:00	4	Temperatura máxima	14.6
20067	7	Sololá	701	Sololá	1	Sololá	4	Abril	2023-04-26T00:00:00	2024-11-08T07:00:00	3	Temperatura mínima	14
20068	7	Sololá	701	Sololá	1	Sololá	4	Abril	2023-04-26T00:00:00	2024-11-08T07:00:00	5	Humedad	93
20069	7	Sololá	701	Sololá	1	Sololá	4	Abril	2023-04-26T00:00:00	2024-11-08T07:00:00	6	Velocidad del viento	0
20070	7	Sololá	701	Sololá	1	Sololá	4	Abril	2023-04-26T00:00:00	2024-11-08T07:00:00	7	Dirección del viento	0
20071	7	Sololá	701	Sololá	1	Sololá	4	Abril	2023-04-26T00:00:00	2024-11-08T07:00:00	1	Precipitación	0
20072	7	Sololá	701	Sololá	1	Sololá	4	Abril	2023-04-26T00:00:00	2024-11-08T07:00:00	8	Radiación solar	40
20073	7	Sololá	701	Sololá	1	Sololá	4	Abril	2023-04-26T00:00:00	2024-11-08T08:00:00	2	Temperatura media	14.3
20074	7	Sololá	701	Sololá	1	Sololá	4	Abril	2023-04-26T00:00:00	2024-11-08T08:00:00	4	Temperatura máxima	14.4
20075	7	Sololá	701	Sololá	1	Sololá	4	Abril	2023-04-26T00:00:00	2024-11-08T08:00:00	3	Temperatura mínima	14.1
20076	7	Sololá	701	Sololá	1	Sololá	4	Abril	2023-04-26T00:00:00	2024-11-08T08:00:00	5	Humedad	94
20077	7	Sololá	701	Sololá	1	Sololá	4	Abril	2023-04-26T00:00:00	2024-11-08T08:00:00	6	Velocidad del viento	0
20078	7	Sololá	701	Sololá	1	Sololá	4	Abril	2023-04-26T00:00:00	2024-11-08T08:00:00	7	Dirección del viento	0
20079	7	Sololá	701	Sololá	1	Sololá	4	Abril	2023-04-26T00:00:00	2024-11-08T08:00:00	1	Precipitación	0
20080	7	Sololá	701	Sololá	1	Sololá	4	Abril	2023-04-26T00:00:00	2024-11-08T08:00:00	8	Radiación solar	193
20081	7	Sololá	701	Sololá	1	Sololá	4	Abril	2023-04-26T00:00:00	2024-11-08T09:00:00	2	Temperatura media	16.9
20082	7	Sololá	701	Sololá	1	Sololá	4	Abril	2023-04-26T00:00:00	2024-11-08T09:00:00	4	Temperatura máxima	16.9
20083	7	Sololá	701	Sololá	1	Sololá	4	Abril	2023-04-26T00:00:00	2024-11-08T09:00:00	3	Temperatura mínima	14.3
20084	7	Sololá	701	Sololá	1	Sololá	4	Abril	2023-04-26T00:00:00	2024-11-08T09:00:00	5	Humedad	87
20085	7	Sololá	701	Sololá	1	Sololá	4	Abril	2023-04-26T00:00:00	2024-11-08T09:00:00	6	Velocidad del viento	0
20086	7	Sololá	701	Sololá	1	Sololá	4	Abril	2023-04-26T00:00:00	2024-11-08T09:00:00	7	Dirección del viento	0
20087	7	Sololá	701	Sololá	1	Sololá	4	Abril	2023-04-26T00:00:00	2024-11-08T09:00:00	1	Precipitación	0
20088	7	Sololá	701	Sololá	1	Sololá	4	Abril	2023-04-26T00:00:00	2024-11-08T09:00:00	8	Radiación solar	514
20089	7	Sololá	701	Sololá	1	Sololá	4	Abril	2023-04-26T00:00:00	2024-11-08T10:00:00	2	Temperatura media	19.7
20090	7	Sololá	701	Sololá	1	Sololá	4	Abril	2023-04-26T00:00:00	2024-11-08T10:00:00	4	Temperatura máxima	19.7
20091	7	Sololá	701	Sololá	1	Sololá	4	Abril	2023-04-26T00:00:00	2024-11-08T10:00:00	3	Temperatura mínima	16.9
20092	7	Sololá	701	Sololá	1	Sololá	4	Abril	2023-04-26T00:00:00	2024-11-08T10:00:00	5	Humedad	77
20093	7	Sololá	701	Sololá	1	Sololá	4	Abril	2023-04-26T00:00:00	2024-11-08T10:00:00	6	Velocidad del viento	0
20094	7	Sololá	701	Sololá	1	Sololá	4	Abril	2023-04-26T00:00:00	2024-11-08T10:00:00	7	Dirección del viento	0
20095	7	Sololá	701	Sololá	1	Sololá	4	Abril	2023-04-26T00:00:00	2024-11-08T10:00:00	1	Precipitación	0
20096	7	Sololá	701	Sololá	1	Sololá	4	Abril	2023-04-26T00:00:00	2024-11-08T10:00:00	8	Radiación solar	711
20097	7	Sololá	701	Sololá	1	Sololá	4	Abril	2023-04-26T00:00:00	2024-11-08T11:00:00	2	Temperatura media	20.7
20098	7	Sololá	701	Sololá	1	Sololá	4	Abril	2023-04-26T00:00:00	2024-11-08T11:00:00	4	Temperatura máxima	20.7
20099	7	Sololá	701	Sololá	1	Sololá	4	Abril	2023-04-26T00:00:00	2024-11-08T11:00:00	3	Temperatura mínima	19.7
20100	7	Sololá	701	Sololá	1	Sololá	4	Abril	2023-04-26T00:00:00	2024-11-08T11:00:00	5	Humedad	71
20101	7	Sololá	701	Sololá	1	Sololá	4	Abril	2023-04-26T00:00:00	2024-11-08T11:00:00	6	Velocidad del viento	0
20102	7	Sololá	701	Sololá	1	Sololá	4	Abril	2023-04-26T00:00:00	2024-11-08T11:00:00	7	Dirección del viento	0
20103	7	Sololá	701	Sololá	1	Sololá	4	Abril	2023-04-26T00:00:00	2024-11-08T11:00:00	1	Precipitación	0
20104	7	Sololá	701	Sololá	1	Sololá	4	Abril	2023-04-26T00:00:00	2024-11-08T11:00:00	8	Radiación solar	862
20105	7	Sololá	701	Sololá	1	Sololá	4	Abril	2023-04-26T00:00:00	2024-11-08T12:00:00	2	Temperatura media	21.7
20106	7	Sololá	701	Sololá	1	Sololá	4	Abril	2023-04-26T00:00:00	2024-11-08T12:00:00	4	Temperatura máxima	21.8
20107	7	Sololá	701	Sololá	1	Sololá	4	Abril	2023-04-26T00:00:00	2024-11-08T12:00:00	3	Temperatura mínima	20.7
20108	7	Sololá	701	Sololá	1	Sololá	4	Abril	2023-04-26T00:00:00	2024-11-08T12:00:00	5	Humedad	69
20109	7	Sololá	701	Sololá	1	Sololá	4	Abril	2023-04-26T00:00:00	2024-11-08T12:00:00	6	Velocidad del viento	0
20110	7	Sololá	701	Sololá	1	Sololá	4	Abril	2023-04-26T00:00:00	2024-11-08T12:00:00	7	Dirección del viento	0
20111	7	Sololá	701	Sololá	1	Sololá	4	Abril	2023-04-26T00:00:00	2024-11-08T12:00:00	1	Precipitación	0
20112	7	Sololá	701	Sololá	1	Sololá	4	Abril	2023-04-26T00:00:00	2024-11-08T12:00:00	8	Radiación solar	894
20113	7	Sololá	701	Sololá	1	Sololá	4	Abril	2023-04-26T00:00:00	2024-11-08T13:00:00	2	Temperatura media	22
20114	7	Sololá	701	Sololá	1	Sololá	4	Abril	2023-04-26T00:00:00	2024-11-08T13:00:00	4	Temperatura máxima	22.3
20115	7	Sololá	701	Sololá	1	Sololá	4	Abril	2023-04-26T00:00:00	2024-11-08T13:00:00	3	Temperatura mínima	21.7
20116	7	Sololá	701	Sololá	1	Sololá	4	Abril	2023-04-26T00:00:00	2024-11-08T13:00:00	5	Humedad	72
20117	7	Sololá	701	Sololá	1	Sololá	4	Abril	2023-04-26T00:00:00	2024-11-08T13:00:00	6	Velocidad del viento	0
20118	7	Sololá	701	Sololá	1	Sololá	4	Abril	2023-04-26T00:00:00	2024-11-08T13:00:00	7	Dirección del viento	0
20119	7	Sololá	701	Sololá	1	Sololá	4	Abril	2023-04-26T00:00:00	2024-11-08T13:00:00	1	Precipitación	0
20120	7	Sololá	701	Sololá	1	Sololá	4	Abril	2023-04-26T00:00:00	2024-11-08T13:00:00	8	Radiación solar	559
20121	7	Sololá	701	Sololá	1	Sololá	4	Abril	2023-04-26T00:00:00	2024-11-08T14:00:00	2	Temperatura media	20.7
20122	7	Sololá	701	Sololá	1	Sololá	4	Abril	2023-04-26T00:00:00	2024-11-08T14:00:00	4	Temperatura máxima	22.3
20123	7	Sololá	701	Sololá	1	Sololá	4	Abril	2023-04-26T00:00:00	2024-11-08T14:00:00	3	Temperatura mínima	20.7
20124	7	Sololá	701	Sololá	1	Sololá	4	Abril	2023-04-26T00:00:00	2024-11-08T14:00:00	5	Humedad	80
20125	7	Sololá	701	Sololá	1	Sololá	4	Abril	2023-04-26T00:00:00	2024-11-08T14:00:00	6	Velocidad del viento	0
20126	7	Sololá	701	Sololá	1	Sololá	4	Abril	2023-04-26T00:00:00	2024-11-08T14:00:00	7	Dirección del viento	0
20127	7	Sololá	701	Sololá	1	Sololá	4	Abril	2023-04-26T00:00:00	2024-11-08T14:00:00	1	Precipitación	0
20128	7	Sololá	701	Sololá	1	Sololá	4	Abril	2023-04-26T00:00:00	2024-11-08T14:00:00	8	Radiación solar	168
20129	7	Sololá	701	Sololá	1	Sololá	4	Abril	2023-04-26T00:00:00	2024-11-08T15:00:00	2	Temperatura media	19
20130	7	Sololá	701	Sololá	1	Sololá	4	Abril	2023-04-26T00:00:00	2024-11-08T15:00:00	4	Temperatura máxima	20.7
20131	7	Sololá	701	Sololá	1	Sololá	4	Abril	2023-04-26T00:00:00	2024-11-08T15:00:00	3	Temperatura mínima	19
20132	7	Sololá	701	Sololá	1	Sololá	4	Abril	2023-04-26T00:00:00	2024-11-08T15:00:00	5	Humedad	84
20133	7	Sololá	701	Sololá	1	Sololá	4	Abril	2023-04-26T00:00:00	2024-11-08T15:00:00	6	Velocidad del viento	0
20134	7	Sololá	701	Sololá	1	Sololá	4	Abril	2023-04-26T00:00:00	2024-11-08T15:00:00	7	Dirección del viento	0
20135	7	Sololá	701	Sololá	1	Sololá	4	Abril	2023-04-26T00:00:00	2024-11-08T15:00:00	1	Precipitación	0
20136	7	Sololá	701	Sololá	1	Sololá	4	Abril	2023-04-26T00:00:00	2024-11-08T15:00:00	8	Radiación solar	52
20137	7	Sololá	701	Sololá	1	Sololá	4	Abril	2023-04-26T00:00:00	2024-11-08T16:00:00	2	Temperatura media	17.4
20138	7	Sololá	701	Sololá	1	Sololá	4	Abril	2023-04-26T00:00:00	2024-11-08T16:00:00	4	Temperatura máxima	19
20139	7	Sololá	701	Sololá	1	Sololá	4	Abril	2023-04-26T00:00:00	2024-11-08T16:00:00	3	Temperatura mínima	17.4
20140	7	Sololá	701	Sololá	1	Sololá	4	Abril	2023-04-26T00:00:00	2024-11-08T16:00:00	5	Humedad	90
20141	7	Sololá	701	Sololá	1	Sololá	4	Abril	2023-04-26T00:00:00	2024-11-08T16:00:00	6	Velocidad del viento	0
20142	7	Sololá	701	Sololá	1	Sololá	4	Abril	2023-04-26T00:00:00	2024-11-08T16:00:00	7	Dirección del viento	0
20143	7	Sololá	701	Sololá	1	Sololá	4	Abril	2023-04-26T00:00:00	2024-11-08T16:00:00	1	Precipitación	0
20144	7	Sololá	701	Sololá	1	Sololá	4	Abril	2023-04-26T00:00:00	2024-11-08T16:00:00	8	Radiación solar	156
20145	7	Sololá	701	Sololá	1	Sololá	4	Abril	2023-04-26T00:00:00	2024-11-08T17:00:00	2	Temperatura media	18.7
20146	7	Sololá	701	Sololá	1	Sololá	4	Abril	2023-04-26T00:00:00	2024-11-08T17:00:00	4	Temperatura máxima	18.7
20147	7	Sololá	701	Sololá	1	Sololá	4	Abril	2023-04-26T00:00:00	2024-11-08T17:00:00	3	Temperatura mínima	17.4
20148	7	Sololá	701	Sololá	1	Sololá	4	Abril	2023-04-26T00:00:00	2024-11-08T17:00:00	5	Humedad	86
20149	7	Sololá	701	Sololá	1	Sololá	4	Abril	2023-04-26T00:00:00	2024-11-08T17:00:00	6	Velocidad del viento	0
20150	7	Sololá	701	Sololá	1	Sololá	4	Abril	2023-04-26T00:00:00	2024-11-08T17:00:00	7	Dirección del viento	0
20151	7	Sololá	701	Sololá	1	Sololá	4	Abril	2023-04-26T00:00:00	2024-11-08T17:00:00	1	Precipitación	0
20152	7	Sololá	701	Sololá	1	Sololá	4	Abril	2023-04-26T00:00:00	2024-11-08T17:00:00	8	Radiación solar	62
20153	7	Sololá	701	Sololá	1	Sololá	4	Abril	2023-04-26T00:00:00	2024-11-08T18:00:00	2	Temperatura media	17.8
20154	7	Sololá	701	Sololá	1	Sololá	4	Abril	2023-04-26T00:00:00	2024-11-08T18:00:00	4	Temperatura máxima	18.8
20155	7	Sololá	701	Sololá	1	Sololá	4	Abril	2023-04-26T00:00:00	2024-11-08T18:00:00	3	Temperatura mínima	17.8
20156	7	Sololá	701	Sololá	1	Sololá	4	Abril	2023-04-26T00:00:00	2024-11-08T18:00:00	5	Humedad	89
20157	7	Sololá	701	Sololá	1	Sololá	4	Abril	2023-04-26T00:00:00	2024-11-08T18:00:00	6	Velocidad del viento	0
20158	7	Sololá	701	Sololá	1	Sololá	4	Abril	2023-04-26T00:00:00	2024-11-08T18:00:00	7	Dirección del viento	0
20159	7	Sololá	701	Sololá	1	Sololá	4	Abril	2023-04-26T00:00:00	2024-11-08T18:00:00	1	Precipitación	0
20160	7	Sololá	701	Sololá	1	Sololá	4	Abril	2023-04-26T00:00:00	2024-11-08T18:00:00	8	Radiación solar	15
20161	7	Sololá	701	Sololá	1	Sololá	4	Abril	2023-04-26T00:00:00	2024-11-08T19:00:00	2	Temperatura media	16.9
20162	7	Sololá	701	Sololá	1	Sololá	4	Abril	2023-04-26T00:00:00	2024-11-08T19:00:00	4	Temperatura máxima	17.9
20163	7	Sololá	701	Sololá	1	Sololá	4	Abril	2023-04-26T00:00:00	2024-11-08T19:00:00	3	Temperatura mínima	16.9
20164	7	Sololá	701	Sololá	1	Sololá	4	Abril	2023-04-26T00:00:00	2024-11-08T19:00:00	5	Humedad	91
20165	7	Sololá	701	Sololá	1	Sololá	4	Abril	2023-04-26T00:00:00	2024-11-08T19:00:00	6	Velocidad del viento	0
20166	7	Sololá	701	Sololá	1	Sololá	4	Abril	2023-04-26T00:00:00	2024-11-08T19:00:00	7	Dirección del viento	0
20167	7	Sololá	701	Sololá	1	Sololá	4	Abril	2023-04-26T00:00:00	2024-11-08T19:00:00	1	Precipitación	0
20168	7	Sololá	701	Sololá	1	Sololá	4	Abril	2023-04-26T00:00:00	2024-11-08T19:00:00	8	Radiación solar	0
20169	7	Sololá	701	Sololá	1	Sololá	4	Abril	2023-04-26T00:00:00	2024-11-08T20:00:00	2	Temperatura media	15.8
20170	7	Sololá	701	Sololá	1	Sololá	4	Abril	2023-04-26T00:00:00	2024-11-08T20:00:00	4	Temperatura máxima	16.9
20171	7	Sololá	701	Sololá	1	Sololá	4	Abril	2023-04-26T00:00:00	2024-11-08T20:00:00	3	Temperatura mínima	15.8
20172	7	Sololá	701	Sololá	1	Sololá	4	Abril	2023-04-26T00:00:00	2024-11-08T20:00:00	5	Humedad	93
20173	7	Sololá	701	Sololá	1	Sololá	4	Abril	2023-04-26T00:00:00	2024-11-08T20:00:00	6	Velocidad del viento	0
20174	7	Sololá	701	Sololá	1	Sololá	4	Abril	2023-04-26T00:00:00	2024-11-08T20:00:00	7	Dirección del viento	0
20175	7	Sololá	701	Sololá	1	Sololá	4	Abril	2023-04-26T00:00:00	2024-11-08T20:00:00	1	Precipitación	0.2
20176	7	Sololá	701	Sololá	1	Sololá	4	Abril	2023-04-26T00:00:00	2024-11-08T20:00:00	8	Radiación solar	0
20177	7	Sololá	701	Sololá	1	Sololá	4	Abril	2023-04-26T00:00:00	2024-11-08T21:00:00	2	Temperatura media	15.1
20178	7	Sololá	701	Sololá	1	Sololá	4	Abril	2023-04-26T00:00:00	2024-11-08T21:00:00	4	Temperatura máxima	15.8
20179	7	Sololá	701	Sololá	1	Sololá	4	Abril	2023-04-26T00:00:00	2024-11-08T21:00:00	3	Temperatura mínima	15.1
20180	7	Sololá	701	Sololá	1	Sololá	4	Abril	2023-04-26T00:00:00	2024-11-08T21:00:00	5	Humedad	93
20181	7	Sololá	701	Sololá	1	Sololá	4	Abril	2023-04-26T00:00:00	2024-11-08T21:00:00	6	Velocidad del viento	0
20182	7	Sololá	701	Sololá	1	Sololá	4	Abril	2023-04-26T00:00:00	2024-11-08T21:00:00	7	Dirección del viento	0
20183	7	Sololá	701	Sololá	1	Sololá	4	Abril	2023-04-26T00:00:00	2024-11-08T21:00:00	1	Precipitación	0
20184	7	Sololá	701	Sololá	1	Sololá	4	Abril	2023-04-26T00:00:00	2024-11-08T21:00:00	8	Radiación solar	0
20185	7	Sololá	701	Sololá	1	Sololá	4	Abril	2023-04-26T00:00:00	2024-11-08T22:00:00	2	Temperatura media	14.6
20186	7	Sololá	701	Sololá	1	Sololá	4	Abril	2023-04-26T00:00:00	2024-11-08T22:00:00	4	Temperatura máxima	15.1
20187	7	Sololá	701	Sololá	1	Sololá	4	Abril	2023-04-26T00:00:00	2024-11-08T22:00:00	3	Temperatura mínima	14.6
20188	7	Sololá	701	Sololá	1	Sololá	4	Abril	2023-04-26T00:00:00	2024-11-08T22:00:00	5	Humedad	91
20189	7	Sololá	701	Sololá	1	Sololá	4	Abril	2023-04-26T00:00:00	2024-11-08T22:00:00	6	Velocidad del viento	0
20190	7	Sololá	701	Sololá	1	Sololá	4	Abril	2023-04-26T00:00:00	2024-11-08T22:00:00	7	Dirección del viento	0
20191	7	Sololá	701	Sololá	1	Sololá	4	Abril	2023-04-26T00:00:00	2024-11-08T22:00:00	1	Precipitación	0
20192	7	Sololá	701	Sololá	1	Sololá	4	Abril	2023-04-26T00:00:00	2024-11-08T22:00:00	8	Radiación solar	0
20193	7	Sololá	701	Sololá	1	Sololá	4	Abril	2023-04-26T00:00:00	2024-11-08T23:00:00	2	Temperatura media	13.9
20194	7	Sololá	701	Sololá	1	Sololá	4	Abril	2023-04-26T00:00:00	2024-11-08T23:00:00	4	Temperatura máxima	14.6
20195	7	Sololá	701	Sololá	1	Sololá	4	Abril	2023-04-26T00:00:00	2024-11-08T23:00:00	3	Temperatura mínima	13.9
20196	7	Sololá	701	Sololá	1	Sololá	4	Abril	2023-04-26T00:00:00	2024-11-08T23:00:00	5	Humedad	90
20197	7	Sololá	701	Sololá	1	Sololá	4	Abril	2023-04-26T00:00:00	2024-11-08T23:00:00	6	Velocidad del viento	0
20198	7	Sololá	701	Sololá	1	Sololá	4	Abril	2023-04-26T00:00:00	2024-11-08T23:00:00	7	Dirección del viento	0
20199	7	Sololá	701	Sololá	1	Sololá	4	Abril	2023-04-26T00:00:00	2024-11-08T23:00:00	1	Precipitación	0
20200	7	Sololá	701	Sololá	1	Sololá	4	Abril	2023-04-26T00:00:00	2024-11-08T23:00:00	8	Radiación solar	0
20201	7	Sololá	701	Sololá	1	Sololá	4	Abril	2023-04-27T00:00:00	2024-11-08T00:00:00	2	Temperatura media	13.9
20202	7	Sololá	701	Sololá	1	Sololá	4	Abril	2023-04-27T00:00:00	2024-11-08T00:00:00	4	Temperatura máxima	14.1
20203	7	Sololá	701	Sololá	1	Sololá	4	Abril	2023-04-27T00:00:00	2024-11-08T00:00:00	3	Temperatura mínima	13.8
20204	7	Sololá	701	Sololá	1	Sololá	4	Abril	2023-04-27T00:00:00	2024-11-08T00:00:00	5	Humedad	89
20205	7	Sololá	701	Sololá	1	Sololá	4	Abril	2023-04-27T00:00:00	2024-11-08T00:00:00	6	Velocidad del viento	0
20206	7	Sololá	701	Sololá	1	Sololá	4	Abril	2023-04-27T00:00:00	2024-11-08T00:00:00	7	Dirección del viento	0
20207	7	Sololá	701	Sololá	1	Sololá	4	Abril	2023-04-27T00:00:00	2024-11-08T00:00:00	1	Precipitación	0
20208	7	Sololá	701	Sololá	1	Sololá	4	Abril	2023-04-27T00:00:00	2024-11-08T00:00:00	8	Radiación solar	0
20209	7	Sololá	701	Sololá	1	Sololá	4	Abril	2023-04-27T00:00:00	2024-11-08T01:00:00	2	Temperatura media	13.7
20210	7	Sololá	701	Sololá	1	Sololá	4	Abril	2023-04-27T00:00:00	2024-11-08T01:00:00	4	Temperatura máxima	14
20211	7	Sololá	701	Sololá	1	Sololá	4	Abril	2023-04-27T00:00:00	2024-11-08T01:00:00	3	Temperatura mínima	13.7
20212	7	Sololá	701	Sololá	1	Sololá	4	Abril	2023-04-27T00:00:00	2024-11-08T01:00:00	5	Humedad	86
20213	7	Sololá	701	Sololá	1	Sololá	4	Abril	2023-04-27T00:00:00	2024-11-08T01:00:00	6	Velocidad del viento	0
20214	7	Sololá	701	Sololá	1	Sololá	4	Abril	2023-04-27T00:00:00	2024-11-08T01:00:00	7	Dirección del viento	0
20215	7	Sololá	701	Sololá	1	Sololá	4	Abril	2023-04-27T00:00:00	2024-11-08T01:00:00	1	Precipitación	0
20216	7	Sololá	701	Sololá	1	Sololá	4	Abril	2023-04-27T00:00:00	2024-11-08T01:00:00	8	Radiación solar	0
20217	7	Sololá	701	Sololá	1	Sololá	4	Abril	2023-04-27T00:00:00	2024-11-08T02:00:00	2	Temperatura media	13.2
20218	7	Sololá	701	Sololá	1	Sololá	4	Abril	2023-04-27T00:00:00	2024-11-08T02:00:00	4	Temperatura máxima	13.8
20219	7	Sololá	701	Sololá	1	Sololá	4	Abril	2023-04-27T00:00:00	2024-11-08T02:00:00	3	Temperatura mínima	13.2
20220	7	Sololá	701	Sololá	1	Sololá	4	Abril	2023-04-27T00:00:00	2024-11-08T02:00:00	5	Humedad	87
20221	7	Sololá	701	Sololá	1	Sololá	4	Abril	2023-04-27T00:00:00	2024-11-08T02:00:00	6	Velocidad del viento	0
20222	7	Sololá	701	Sololá	1	Sololá	4	Abril	2023-04-27T00:00:00	2024-11-08T02:00:00	7	Dirección del viento	0
20223	7	Sololá	701	Sololá	1	Sololá	4	Abril	2023-04-27T00:00:00	2024-11-08T02:00:00	1	Precipitación	0
20224	7	Sololá	701	Sololá	1	Sololá	4	Abril	2023-04-27T00:00:00	2024-11-08T02:00:00	8	Radiación solar	0
20225	7	Sololá	701	Sololá	1	Sololá	4	Abril	2023-04-27T00:00:00	2024-11-08T03:00:00	2	Temperatura media	12.6
20226	7	Sololá	701	Sololá	1	Sololá	4	Abril	2023-04-27T00:00:00	2024-11-08T03:00:00	4	Temperatura máxima	13.2
20227	7	Sololá	701	Sololá	1	Sololá	4	Abril	2023-04-27T00:00:00	2024-11-08T03:00:00	3	Temperatura mínima	12.6
20228	7	Sololá	701	Sololá	1	Sololá	4	Abril	2023-04-27T00:00:00	2024-11-08T03:00:00	5	Humedad	87
20229	7	Sololá	701	Sololá	1	Sololá	4	Abril	2023-04-27T00:00:00	2024-11-08T03:00:00	6	Velocidad del viento	0
20230	7	Sololá	701	Sololá	1	Sololá	4	Abril	2023-04-27T00:00:00	2024-11-08T03:00:00	7	Dirección del viento	0
20231	7	Sololá	701	Sololá	1	Sololá	4	Abril	2023-04-27T00:00:00	2024-11-08T03:00:00	1	Precipitación	0
20232	7	Sololá	701	Sololá	1	Sololá	4	Abril	2023-04-27T00:00:00	2024-11-08T03:00:00	8	Radiación solar	0
20233	7	Sololá	701	Sololá	1	Sololá	4	Abril	2023-04-27T00:00:00	2024-11-08T04:00:00	2	Temperatura media	12.7
20234	7	Sololá	701	Sololá	1	Sololá	4	Abril	2023-04-27T00:00:00	2024-11-08T04:00:00	4	Temperatura máxima	12.7
20235	7	Sololá	701	Sololá	1	Sololá	4	Abril	2023-04-27T00:00:00	2024-11-08T04:00:00	3	Temperatura mínima	12.3
20236	7	Sololá	701	Sololá	1	Sololá	4	Abril	2023-04-27T00:00:00	2024-11-08T04:00:00	5	Humedad	87
20237	7	Sololá	701	Sololá	1	Sololá	4	Abril	2023-04-27T00:00:00	2024-11-08T04:00:00	6	Velocidad del viento	0
20238	7	Sololá	701	Sololá	1	Sololá	4	Abril	2023-04-27T00:00:00	2024-11-08T04:00:00	7	Dirección del viento	0
20239	7	Sololá	701	Sololá	1	Sololá	4	Abril	2023-04-27T00:00:00	2024-11-08T04:00:00	1	Precipitación	0
20240	7	Sololá	701	Sololá	1	Sololá	4	Abril	2023-04-27T00:00:00	2024-11-08T04:00:00	8	Radiación solar	0
20241	7	Sololá	701	Sololá	1	Sololá	4	Abril	2023-04-27T00:00:00	2024-11-08T05:00:00	2	Temperatura media	12.6
20242	7	Sololá	701	Sololá	1	Sololá	4	Abril	2023-04-27T00:00:00	2024-11-08T05:00:00	4	Temperatura máxima	12.8
20243	7	Sololá	701	Sololá	1	Sololá	4	Abril	2023-04-27T00:00:00	2024-11-08T05:00:00	3	Temperatura mínima	12.6
20244	7	Sololá	701	Sololá	1	Sololá	4	Abril	2023-04-27T00:00:00	2024-11-08T05:00:00	5	Humedad	87
20245	7	Sololá	701	Sololá	1	Sololá	4	Abril	2023-04-27T00:00:00	2024-11-08T05:00:00	6	Velocidad del viento	0
20246	7	Sololá	701	Sololá	1	Sololá	4	Abril	2023-04-27T00:00:00	2024-11-08T05:00:00	7	Dirección del viento	0
20247	7	Sololá	701	Sololá	1	Sololá	4	Abril	2023-04-27T00:00:00	2024-11-08T05:00:00	1	Precipitación	0
20248	7	Sololá	701	Sololá	1	Sololá	4	Abril	2023-04-27T00:00:00	2024-11-08T05:00:00	8	Radiación solar	0
20249	7	Sololá	701	Sololá	1	Sololá	4	Abril	2023-04-27T00:00:00	2024-11-08T06:00:00	2	Temperatura media	12.4
20250	7	Sololá	701	Sololá	1	Sololá	4	Abril	2023-04-27T00:00:00	2024-11-08T06:00:00	4	Temperatura máxima	12.6
20251	7	Sololá	701	Sololá	1	Sololá	4	Abril	2023-04-27T00:00:00	2024-11-08T06:00:00	3	Temperatura mínima	12.4
20252	7	Sololá	701	Sololá	1	Sololá	4	Abril	2023-04-27T00:00:00	2024-11-08T06:00:00	5	Humedad	87
20253	7	Sololá	701	Sololá	1	Sololá	4	Abril	2023-04-27T00:00:00	2024-11-08T06:00:00	6	Velocidad del viento	0
20254	7	Sololá	701	Sololá	1	Sololá	4	Abril	2023-04-27T00:00:00	2024-11-08T06:00:00	7	Dirección del viento	0
20255	7	Sololá	701	Sololá	1	Sololá	4	Abril	2023-04-27T00:00:00	2024-11-08T06:00:00	1	Precipitación	0
20256	7	Sololá	701	Sololá	1	Sololá	4	Abril	2023-04-27T00:00:00	2024-11-08T06:00:00	8	Radiación solar	1
20257	7	Sololá	701	Sololá	1	Sololá	4	Abril	2023-04-27T00:00:00	2024-11-08T07:00:00	2	Temperatura media	12.6
20258	7	Sololá	701	Sololá	1	Sololá	4	Abril	2023-04-27T00:00:00	2024-11-08T07:00:00	4	Temperatura máxima	12.7
20259	7	Sololá	701	Sololá	1	Sololá	4	Abril	2023-04-27T00:00:00	2024-11-08T07:00:00	3	Temperatura mínima	12.3
20260	7	Sololá	701	Sololá	1	Sololá	4	Abril	2023-04-27T00:00:00	2024-11-08T07:00:00	5	Humedad	85
20261	7	Sololá	701	Sololá	1	Sololá	4	Abril	2023-04-27T00:00:00	2024-11-08T07:00:00	6	Velocidad del viento	1.6
20262	7	Sololá	701	Sololá	1	Sololá	4	Abril	2023-04-27T00:00:00	2024-11-08T07:00:00	7	Dirección del viento	1.61
20263	7	Sololá	701	Sololá	1	Sololá	4	Abril	2023-04-27T00:00:00	2024-11-08T07:00:00	1	Precipitación	0
20264	7	Sololá	701	Sololá	1	Sololá	4	Abril	2023-04-27T00:00:00	2024-11-08T07:00:00	8	Radiación solar	32
20265	7	Sololá	701	Sololá	1	Sololá	4	Abril	2023-04-27T00:00:00	2024-11-08T08:00:00	2	Temperatura media	13.5
20266	7	Sololá	701	Sololá	1	Sololá	4	Abril	2023-04-27T00:00:00	2024-11-08T08:00:00	4	Temperatura máxima	13.5
20267	7	Sololá	701	Sololá	1	Sololá	4	Abril	2023-04-27T00:00:00	2024-11-08T08:00:00	3	Temperatura mínima	12.6
20268	7	Sololá	701	Sololá	1	Sololá	4	Abril	2023-04-27T00:00:00	2024-11-08T08:00:00	5	Humedad	84
20269	7	Sololá	701	Sololá	1	Sololá	4	Abril	2023-04-27T00:00:00	2024-11-08T08:00:00	6	Velocidad del viento	0
20270	7	Sololá	701	Sololá	1	Sololá	4	Abril	2023-04-27T00:00:00	2024-11-08T08:00:00	7	Dirección del viento	0
20271	7	Sololá	701	Sololá	1	Sololá	4	Abril	2023-04-27T00:00:00	2024-11-08T08:00:00	1	Precipitación	0
20272	7	Sololá	701	Sololá	1	Sololá	4	Abril	2023-04-27T00:00:00	2024-11-08T08:00:00	8	Radiación solar	169
20273	7	Sololá	701	Sololá	1	Sololá	4	Abril	2023-04-27T00:00:00	2024-11-08T09:00:00	2	Temperatura media	16.7
20274	7	Sololá	701	Sololá	1	Sololá	4	Abril	2023-04-27T00:00:00	2024-11-08T09:00:00	4	Temperatura máxima	16.7
20275	7	Sololá	701	Sololá	1	Sololá	4	Abril	2023-04-27T00:00:00	2024-11-08T09:00:00	3	Temperatura mínima	13.4
20276	7	Sololá	701	Sololá	1	Sololá	4	Abril	2023-04-27T00:00:00	2024-11-08T09:00:00	5	Humedad	80
20277	7	Sololá	701	Sololá	1	Sololá	4	Abril	2023-04-27T00:00:00	2024-11-08T09:00:00	6	Velocidad del viento	0
20278	7	Sololá	701	Sololá	1	Sololá	4	Abril	2023-04-27T00:00:00	2024-11-08T09:00:00	7	Dirección del viento	0
20279	7	Sololá	701	Sololá	1	Sololá	4	Abril	2023-04-27T00:00:00	2024-11-08T09:00:00	1	Precipitación	0
20280	7	Sololá	701	Sololá	1	Sololá	4	Abril	2023-04-27T00:00:00	2024-11-08T09:00:00	8	Radiación solar	560
20281	7	Sololá	701	Sololá	1	Sololá	4	Abril	2023-04-27T00:00:00	2024-11-08T10:00:00	2	Temperatura media	19.9
20282	7	Sololá	701	Sololá	1	Sololá	4	Abril	2023-04-27T00:00:00	2024-11-08T10:00:00	4	Temperatura máxima	19.9
20283	7	Sololá	701	Sololá	1	Sololá	4	Abril	2023-04-27T00:00:00	2024-11-08T10:00:00	3	Temperatura mínima	16.7
20284	7	Sololá	701	Sololá	1	Sololá	4	Abril	2023-04-27T00:00:00	2024-11-08T10:00:00	5	Humedad	79
20285	7	Sololá	701	Sololá	1	Sololá	4	Abril	2023-04-27T00:00:00	2024-11-08T10:00:00	6	Velocidad del viento	0
20286	7	Sololá	701	Sololá	1	Sololá	4	Abril	2023-04-27T00:00:00	2024-11-08T10:00:00	7	Dirección del viento	0
20287	7	Sololá	701	Sololá	1	Sololá	4	Abril	2023-04-27T00:00:00	2024-11-08T10:00:00	1	Precipitación	0
20288	7	Sololá	701	Sololá	1	Sololá	4	Abril	2023-04-27T00:00:00	2024-11-08T10:00:00	8	Radiación solar	751
20289	7	Sololá	701	Sololá	1	Sololá	4	Abril	2023-04-27T00:00:00	2024-11-08T11:00:00	2	Temperatura media	20.9
20290	7	Sololá	701	Sololá	1	Sololá	4	Abril	2023-04-27T00:00:00	2024-11-08T11:00:00	4	Temperatura máxima	20.9
20291	7	Sololá	701	Sololá	1	Sololá	4	Abril	2023-04-27T00:00:00	2024-11-08T11:00:00	3	Temperatura mínima	19.9
20292	7	Sololá	701	Sololá	1	Sololá	4	Abril	2023-04-27T00:00:00	2024-11-08T11:00:00	5	Humedad	70
20293	7	Sololá	701	Sololá	1	Sololá	4	Abril	2023-04-27T00:00:00	2024-11-08T11:00:00	6	Velocidad del viento	0
20294	7	Sololá	701	Sololá	1	Sololá	4	Abril	2023-04-27T00:00:00	2024-11-08T11:00:00	7	Dirección del viento	0
20295	7	Sololá	701	Sololá	1	Sololá	4	Abril	2023-04-27T00:00:00	2024-11-08T11:00:00	1	Precipitación	0
20296	7	Sololá	701	Sololá	1	Sololá	4	Abril	2023-04-27T00:00:00	2024-11-08T11:00:00	8	Radiación solar	870
20297	7	Sololá	701	Sololá	1	Sololá	4	Abril	2023-04-27T00:00:00	2024-11-08T12:00:00	2	Temperatura media	21.6
20298	7	Sololá	701	Sololá	1	Sololá	4	Abril	2023-04-27T00:00:00	2024-11-08T12:00:00	4	Temperatura máxima	21.6
20299	7	Sololá	701	Sololá	1	Sololá	4	Abril	2023-04-27T00:00:00	2024-11-08T12:00:00	3	Temperatura mínima	20.8
20300	7	Sololá	701	Sololá	1	Sololá	4	Abril	2023-04-27T00:00:00	2024-11-08T12:00:00	5	Humedad	69
20301	7	Sololá	701	Sololá	1	Sololá	4	Abril	2023-04-27T00:00:00	2024-11-08T12:00:00	6	Velocidad del viento	0
20302	7	Sololá	701	Sololá	1	Sololá	4	Abril	2023-04-27T00:00:00	2024-11-08T12:00:00	7	Dirección del viento	0
20303	7	Sololá	701	Sololá	1	Sololá	4	Abril	2023-04-27T00:00:00	2024-11-08T12:00:00	1	Precipitación	0
20304	7	Sololá	701	Sololá	1	Sololá	4	Abril	2023-04-27T00:00:00	2024-11-08T12:00:00	8	Radiación solar	907
20305	7	Sololá	701	Sololá	1	Sololá	4	Abril	2023-04-27T00:00:00	2024-11-08T13:00:00	2	Temperatura media	21.9
20306	7	Sololá	701	Sololá	1	Sololá	4	Abril	2023-04-27T00:00:00	2024-11-08T13:00:00	4	Temperatura máxima	21.9
20307	7	Sololá	701	Sololá	1	Sololá	4	Abril	2023-04-27T00:00:00	2024-11-08T13:00:00	3	Temperatura mínima	21.6
20308	7	Sololá	701	Sololá	1	Sololá	4	Abril	2023-04-27T00:00:00	2024-11-08T13:00:00	5	Humedad	72
20309	7	Sololá	701	Sololá	1	Sololá	4	Abril	2023-04-27T00:00:00	2024-11-08T13:00:00	6	Velocidad del viento	1.6
20310	7	Sololá	701	Sololá	1	Sololá	4	Abril	2023-04-27T00:00:00	2024-11-08T13:00:00	7	Dirección del viento	1.61
20311	7	Sololá	701	Sololá	1	Sololá	4	Abril	2023-04-27T00:00:00	2024-11-08T13:00:00	1	Precipitación	0
20312	7	Sololá	701	Sololá	1	Sololá	4	Abril	2023-04-27T00:00:00	2024-11-08T13:00:00	8	Radiación solar	360
20313	7	Sololá	701	Sololá	1	Sololá	4	Abril	2023-04-27T00:00:00	2024-11-08T14:00:00	2	Temperatura media	20.3
20314	7	Sololá	701	Sololá	1	Sololá	4	Abril	2023-04-27T00:00:00	2024-11-08T14:00:00	4	Temperatura máxima	21.9
20315	7	Sololá	701	Sololá	1	Sololá	4	Abril	2023-04-27T00:00:00	2024-11-08T14:00:00	3	Temperatura mínima	20.3
20316	7	Sololá	701	Sololá	1	Sololá	4	Abril	2023-04-27T00:00:00	2024-11-08T14:00:00	5	Humedad	80
20317	7	Sololá	701	Sololá	1	Sololá	4	Abril	2023-04-27T00:00:00	2024-11-08T14:00:00	6	Velocidad del viento	1.6
20318	7	Sololá	701	Sololá	1	Sololá	4	Abril	2023-04-27T00:00:00	2024-11-08T14:00:00	7	Dirección del viento	1.61
20319	7	Sololá	701	Sololá	1	Sololá	4	Abril	2023-04-27T00:00:00	2024-11-08T14:00:00	1	Precipitación	0
20320	7	Sololá	701	Sololá	1	Sololá	4	Abril	2023-04-27T00:00:00	2024-11-08T14:00:00	8	Radiación solar	265
20321	7	Sololá	701	Sololá	1	Sololá	4	Abril	2023-04-27T00:00:00	2024-11-08T15:00:00	2	Temperatura media	20.8
20322	7	Sololá	701	Sololá	1	Sololá	4	Abril	2023-04-27T00:00:00	2024-11-08T15:00:00	4	Temperatura máxima	20.8
20323	7	Sololá	701	Sololá	1	Sololá	4	Abril	2023-04-27T00:00:00	2024-11-08T15:00:00	3	Temperatura mínima	20.2
20324	7	Sololá	701	Sololá	1	Sololá	4	Abril	2023-04-27T00:00:00	2024-11-08T15:00:00	5	Humedad	80
20325	7	Sololá	701	Sololá	1	Sololá	4	Abril	2023-04-27T00:00:00	2024-11-08T15:00:00	6	Velocidad del viento	0
20326	7	Sololá	701	Sololá	1	Sololá	4	Abril	2023-04-27T00:00:00	2024-11-08T15:00:00	7	Dirección del viento	0
20327	7	Sololá	701	Sololá	1	Sololá	4	Abril	2023-04-27T00:00:00	2024-11-08T15:00:00	1	Precipitación	0
20328	7	Sololá	701	Sololá	1	Sololá	4	Abril	2023-04-27T00:00:00	2024-11-08T15:00:00	8	Radiación solar	137
20329	7	Sololá	701	Sololá	1	Sololá	4	Abril	2023-04-27T00:00:00	2024-11-08T16:00:00	2	Temperatura media	18.7
20330	7	Sololá	701	Sololá	1	Sololá	4	Abril	2023-04-27T00:00:00	2024-11-08T16:00:00	4	Temperatura máxima	20.8
20331	7	Sololá	701	Sololá	1	Sololá	4	Abril	2023-04-27T00:00:00	2024-11-08T16:00:00	3	Temperatura mínima	18.7
20332	7	Sololá	701	Sololá	1	Sololá	4	Abril	2023-04-27T00:00:00	2024-11-08T16:00:00	5	Humedad	87
20333	7	Sololá	701	Sololá	1	Sololá	4	Abril	2023-04-27T00:00:00	2024-11-08T16:00:00	6	Velocidad del viento	0
20334	7	Sololá	701	Sololá	1	Sololá	4	Abril	2023-04-27T00:00:00	2024-11-08T16:00:00	7	Dirección del viento	0
20335	7	Sololá	701	Sololá	1	Sololá	4	Abril	2023-04-27T00:00:00	2024-11-08T16:00:00	1	Precipitación	0
20336	7	Sololá	701	Sololá	1	Sololá	4	Abril	2023-04-27T00:00:00	2024-11-08T16:00:00	8	Radiación solar	88
20337	7	Sololá	701	Sololá	1	Sololá	4	Abril	2023-04-27T00:00:00	2024-11-08T17:00:00	2	Temperatura media	18.1
20338	7	Sololá	701	Sololá	1	Sololá	4	Abril	2023-04-27T00:00:00	2024-11-08T17:00:00	4	Temperatura máxima	18.7
20339	7	Sololá	701	Sololá	1	Sololá	4	Abril	2023-04-27T00:00:00	2024-11-08T17:00:00	3	Temperatura mínima	18.1
20340	7	Sololá	701	Sololá	1	Sololá	4	Abril	2023-04-27T00:00:00	2024-11-08T17:00:00	5	Humedad	89
20341	7	Sololá	701	Sololá	1	Sololá	4	Abril	2023-04-27T00:00:00	2024-11-08T17:00:00	6	Velocidad del viento	0
20342	7	Sololá	701	Sololá	1	Sololá	4	Abril	2023-04-27T00:00:00	2024-11-08T17:00:00	7	Dirección del viento	0
20343	7	Sololá	701	Sololá	1	Sololá	4	Abril	2023-04-27T00:00:00	2024-11-08T17:00:00	1	Precipitación	0
20344	7	Sololá	701	Sololá	1	Sololá	4	Abril	2023-04-27T00:00:00	2024-11-08T17:00:00	8	Radiación solar	57
20345	7	Sololá	701	Sololá	1	Sololá	4	Abril	2023-04-27T00:00:00	2024-11-08T18:00:00	2	Temperatura media	17.6
20346	7	Sololá	701	Sololá	1	Sololá	4	Abril	2023-04-27T00:00:00	2024-11-08T18:00:00	4	Temperatura máxima	18.7
20347	7	Sololá	701	Sololá	1	Sololá	4	Abril	2023-04-27T00:00:00	2024-11-08T18:00:00	3	Temperatura mínima	17.6
20348	7	Sololá	701	Sololá	1	Sololá	4	Abril	2023-04-27T00:00:00	2024-11-08T18:00:00	5	Humedad	91
20349	7	Sololá	701	Sololá	1	Sololá	4	Abril	2023-04-27T00:00:00	2024-11-08T18:00:00	6	Velocidad del viento	0
20350	7	Sololá	701	Sololá	1	Sololá	4	Abril	2023-04-27T00:00:00	2024-11-08T18:00:00	7	Dirección del viento	0
20351	7	Sololá	701	Sololá	1	Sololá	4	Abril	2023-04-27T00:00:00	2024-11-08T18:00:00	1	Precipitación	0
20352	7	Sololá	701	Sololá	1	Sololá	4	Abril	2023-04-27T00:00:00	2024-11-08T18:00:00	8	Radiación solar	2
20353	7	Sololá	701	Sololá	1	Sololá	4	Abril	2023-04-27T00:00:00	2024-11-08T19:00:00	2	Temperatura media	16.8
20354	7	Sololá	701	Sololá	1	Sololá	4	Abril	2023-04-27T00:00:00	2024-11-08T19:00:00	4	Temperatura máxima	17.7
20355	7	Sololá	701	Sololá	1	Sololá	4	Abril	2023-04-27T00:00:00	2024-11-08T19:00:00	3	Temperatura mínima	16.8
20356	7	Sololá	701	Sololá	1	Sololá	4	Abril	2023-04-27T00:00:00	2024-11-08T19:00:00	5	Humedad	93
20357	7	Sololá	701	Sololá	1	Sololá	4	Abril	2023-04-27T00:00:00	2024-11-08T19:00:00	6	Velocidad del viento	0
20358	7	Sololá	701	Sololá	1	Sololá	4	Abril	2023-04-27T00:00:00	2024-11-08T19:00:00	7	Dirección del viento	0
20359	7	Sololá	701	Sololá	1	Sololá	4	Abril	2023-04-27T00:00:00	2024-11-08T19:00:00	1	Precipitación	0.2
20360	7	Sololá	701	Sololá	1	Sololá	4	Abril	2023-04-27T00:00:00	2024-11-08T19:00:00	8	Radiación solar	0
20361	7	Sololá	701	Sololá	1	Sololá	4	Abril	2023-04-27T00:00:00	2024-11-08T20:00:00	2	Temperatura media	16.4
20362	7	Sololá	701	Sololá	1	Sololá	4	Abril	2023-04-27T00:00:00	2024-11-08T20:00:00	4	Temperatura máxima	16.8
20363	7	Sololá	701	Sololá	1	Sololá	4	Abril	2023-04-27T00:00:00	2024-11-08T20:00:00	3	Temperatura mínima	16.4
20364	7	Sololá	701	Sololá	1	Sololá	4	Abril	2023-04-27T00:00:00	2024-11-08T20:00:00	5	Humedad	94
20365	7	Sololá	701	Sololá	1	Sololá	4	Abril	2023-04-27T00:00:00	2024-11-08T20:00:00	6	Velocidad del viento	0
20366	7	Sololá	701	Sololá	1	Sololá	4	Abril	2023-04-27T00:00:00	2024-11-08T20:00:00	7	Dirección del viento	0
20367	7	Sololá	701	Sololá	1	Sololá	4	Abril	2023-04-27T00:00:00	2024-11-08T20:00:00	1	Precipitación	0
20368	7	Sololá	701	Sololá	1	Sololá	4	Abril	2023-04-27T00:00:00	2024-11-08T20:00:00	8	Radiación solar	0
20369	7	Sololá	701	Sololá	1	Sololá	4	Abril	2023-04-27T00:00:00	2024-11-08T21:00:00	2	Temperatura media	16.2
20370	7	Sololá	701	Sololá	1	Sololá	4	Abril	2023-04-27T00:00:00	2024-11-08T21:00:00	4	Temperatura máxima	16.5
20371	7	Sololá	701	Sololá	1	Sololá	4	Abril	2023-04-27T00:00:00	2024-11-08T21:00:00	3	Temperatura mínima	16.2
20372	7	Sololá	701	Sololá	1	Sololá	4	Abril	2023-04-27T00:00:00	2024-11-08T21:00:00	5	Humedad	95
20373	7	Sololá	701	Sololá	1	Sololá	4	Abril	2023-04-27T00:00:00	2024-11-08T21:00:00	6	Velocidad del viento	0
20374	7	Sololá	701	Sololá	1	Sololá	4	Abril	2023-04-27T00:00:00	2024-11-08T21:00:00	7	Dirección del viento	0
20375	7	Sololá	701	Sololá	1	Sololá	4	Abril	2023-04-27T00:00:00	2024-11-08T21:00:00	1	Precipitación	0
20376	7	Sololá	701	Sololá	1	Sololá	4	Abril	2023-04-27T00:00:00	2024-11-08T21:00:00	8	Radiación solar	0
20377	7	Sololá	701	Sololá	1	Sololá	4	Abril	2023-04-27T00:00:00	2024-11-08T22:00:00	2	Temperatura media	16
20378	7	Sololá	701	Sololá	1	Sololá	4	Abril	2023-04-27T00:00:00	2024-11-08T22:00:00	4	Temperatura máxima	16.2
20379	7	Sololá	701	Sololá	1	Sololá	4	Abril	2023-04-27T00:00:00	2024-11-08T22:00:00	3	Temperatura mínima	15.9
20380	7	Sololá	701	Sololá	1	Sololá	4	Abril	2023-04-27T00:00:00	2024-11-08T22:00:00	5	Humedad	95
20381	7	Sololá	701	Sololá	1	Sololá	4	Abril	2023-04-27T00:00:00	2024-11-08T22:00:00	6	Velocidad del viento	0
20382	7	Sololá	701	Sololá	1	Sololá	4	Abril	2023-04-27T00:00:00	2024-11-08T22:00:00	7	Dirección del viento	0
20383	7	Sololá	701	Sololá	1	Sololá	4	Abril	2023-04-27T00:00:00	2024-11-08T22:00:00	1	Precipitación	0
20384	7	Sololá	701	Sololá	1	Sololá	4	Abril	2023-04-27T00:00:00	2024-11-08T22:00:00	8	Radiación solar	0
20385	7	Sololá	701	Sololá	1	Sololá	4	Abril	2023-04-27T00:00:00	2024-11-08T23:00:00	2	Temperatura media	15.8
20386	7	Sololá	701	Sololá	1	Sololá	4	Abril	2023-04-27T00:00:00	2024-11-08T23:00:00	4	Temperatura máxima	16.1
20387	7	Sololá	701	Sololá	1	Sololá	4	Abril	2023-04-27T00:00:00	2024-11-08T23:00:00	3	Temperatura mínima	15.8
20388	7	Sololá	701	Sololá	1	Sololá	4	Abril	2023-04-27T00:00:00	2024-11-08T23:00:00	5	Humedad	95
20389	7	Sololá	701	Sololá	1	Sololá	4	Abril	2023-04-27T00:00:00	2024-11-08T23:00:00	6	Velocidad del viento	0
20390	7	Sololá	701	Sololá	1	Sololá	4	Abril	2023-04-27T00:00:00	2024-11-08T23:00:00	7	Dirección del viento	0
20391	7	Sololá	701	Sololá	1	Sololá	4	Abril	2023-04-27T00:00:00	2024-11-08T23:00:00	1	Precipitación	0
20392	7	Sololá	701	Sololá	1	Sololá	4	Abril	2023-04-27T00:00:00	2024-11-08T23:00:00	8	Radiación solar	0
20393	7	Sololá	701	Sololá	1	Sololá	4	Abril	2023-04-28T00:00:00	2024-11-08T00:00:00	2	Temperatura media	15.3
20394	7	Sololá	701	Sololá	1	Sololá	4	Abril	2023-04-28T00:00:00	2024-11-08T00:00:00	4	Temperatura máxima	15.8
20395	7	Sololá	701	Sololá	1	Sololá	4	Abril	2023-04-28T00:00:00	2024-11-08T00:00:00	3	Temperatura mínima	15.2
20396	7	Sololá	701	Sololá	1	Sololá	4	Abril	2023-04-28T00:00:00	2024-11-08T00:00:00	5	Humedad	95
20397	7	Sololá	701	Sololá	1	Sololá	4	Abril	2023-04-28T00:00:00	2024-11-08T00:00:00	6	Velocidad del viento	0
20398	7	Sololá	701	Sololá	1	Sololá	4	Abril	2023-04-28T00:00:00	2024-11-08T00:00:00	7	Dirección del viento	0
20399	7	Sololá	701	Sololá	1	Sololá	4	Abril	2023-04-28T00:00:00	2024-11-08T00:00:00	1	Precipitación	0
20400	7	Sololá	701	Sololá	1	Sololá	4	Abril	2023-04-28T00:00:00	2024-11-08T00:00:00	8	Radiación solar	0
20401	7	Sololá	701	Sololá	1	Sololá	4	Abril	2023-04-28T00:00:00	2024-11-08T01:00:00	2	Temperatura media	15.1
20402	7	Sololá	701	Sololá	1	Sololá	4	Abril	2023-04-28T00:00:00	2024-11-08T01:00:00	4	Temperatura máxima	15.3
20403	7	Sololá	701	Sololá	1	Sololá	4	Abril	2023-04-28T00:00:00	2024-11-08T01:00:00	3	Temperatura mínima	14.9
20404	7	Sololá	701	Sololá	1	Sololá	4	Abril	2023-04-28T00:00:00	2024-11-08T01:00:00	5	Humedad	95
20405	7	Sololá	701	Sololá	1	Sololá	4	Abril	2023-04-28T00:00:00	2024-11-08T01:00:00	6	Velocidad del viento	0
20406	7	Sololá	701	Sololá	1	Sololá	4	Abril	2023-04-28T00:00:00	2024-11-08T01:00:00	7	Dirección del viento	0
20407	7	Sololá	701	Sololá	1	Sololá	4	Abril	2023-04-28T00:00:00	2024-11-08T01:00:00	1	Precipitación	0
20408	7	Sololá	701	Sololá	1	Sololá	4	Abril	2023-04-28T00:00:00	2024-11-08T01:00:00	8	Radiación solar	0
20409	7	Sololá	701	Sololá	1	Sololá	4	Abril	2023-04-28T00:00:00	2024-11-08T02:00:00	2	Temperatura media	15.1
20410	7	Sololá	701	Sololá	1	Sololá	4	Abril	2023-04-28T00:00:00	2024-11-08T02:00:00	4	Temperatura máxima	15.2
20411	7	Sololá	701	Sololá	1	Sololá	4	Abril	2023-04-28T00:00:00	2024-11-08T02:00:00	3	Temperatura mínima	14.9
20412	7	Sololá	701	Sololá	1	Sololá	4	Abril	2023-04-28T00:00:00	2024-11-08T02:00:00	5	Humedad	94
20413	7	Sololá	701	Sololá	1	Sololá	4	Abril	2023-04-28T00:00:00	2024-11-08T02:00:00	6	Velocidad del viento	0
20414	7	Sololá	701	Sololá	1	Sololá	4	Abril	2023-04-28T00:00:00	2024-11-08T02:00:00	7	Dirección del viento	0
20415	7	Sololá	701	Sololá	1	Sololá	4	Abril	2023-04-28T00:00:00	2024-11-08T02:00:00	1	Precipitación	0
20416	7	Sololá	701	Sololá	1	Sololá	4	Abril	2023-04-28T00:00:00	2024-11-08T02:00:00	8	Radiación solar	0
20417	7	Sololá	701	Sololá	1	Sololá	4	Abril	2023-04-28T00:00:00	2024-11-08T03:00:00	2	Temperatura media	14.6
20418	7	Sololá	701	Sololá	1	Sololá	4	Abril	2023-04-28T00:00:00	2024-11-08T03:00:00	4	Temperatura máxima	15.2
20419	7	Sololá	701	Sololá	1	Sololá	4	Abril	2023-04-28T00:00:00	2024-11-08T03:00:00	3	Temperatura mínima	14.5
20420	7	Sololá	701	Sololá	1	Sololá	4	Abril	2023-04-28T00:00:00	2024-11-08T03:00:00	5	Humedad	92
20421	7	Sololá	701	Sololá	1	Sololá	4	Abril	2023-04-28T00:00:00	2024-11-08T03:00:00	6	Velocidad del viento	0
20422	7	Sololá	701	Sololá	1	Sololá	4	Abril	2023-04-28T00:00:00	2024-11-08T03:00:00	7	Dirección del viento	0
20423	7	Sololá	701	Sololá	1	Sololá	4	Abril	2023-04-28T00:00:00	2024-11-08T03:00:00	1	Precipitación	0
20424	7	Sololá	701	Sololá	1	Sololá	4	Abril	2023-04-28T00:00:00	2024-11-08T03:00:00	8	Radiación solar	0
20425	7	Sololá	701	Sololá	1	Sololá	4	Abril	2023-04-28T00:00:00	2024-11-08T04:00:00	2	Temperatura media	13.8
20426	7	Sololá	701	Sololá	1	Sololá	4	Abril	2023-04-28T00:00:00	2024-11-08T04:00:00	4	Temperatura máxima	14.6
20427	7	Sololá	701	Sololá	1	Sololá	4	Abril	2023-04-28T00:00:00	2024-11-08T04:00:00	3	Temperatura mínima	13.8
20428	7	Sololá	701	Sololá	1	Sololá	4	Abril	2023-04-28T00:00:00	2024-11-08T04:00:00	5	Humedad	91
20429	7	Sololá	701	Sololá	1	Sololá	4	Abril	2023-04-28T00:00:00	2024-11-08T04:00:00	6	Velocidad del viento	0
20430	7	Sololá	701	Sololá	1	Sololá	4	Abril	2023-04-28T00:00:00	2024-11-08T04:00:00	7	Dirección del viento	0
20431	7	Sololá	701	Sololá	1	Sololá	4	Abril	2023-04-28T00:00:00	2024-11-08T04:00:00	1	Precipitación	0
20432	7	Sololá	701	Sololá	1	Sololá	4	Abril	2023-04-28T00:00:00	2024-11-08T04:00:00	8	Radiación solar	0
20433	7	Sololá	701	Sololá	1	Sololá	4	Abril	2023-04-28T00:00:00	2024-11-08T05:00:00	2	Temperatura media	13.4
20434	7	Sololá	701	Sololá	1	Sololá	4	Abril	2023-04-28T00:00:00	2024-11-08T05:00:00	4	Temperatura máxima	13.8
20435	7	Sololá	701	Sololá	1	Sololá	4	Abril	2023-04-28T00:00:00	2024-11-08T05:00:00	3	Temperatura mínima	13.4
20436	7	Sololá	701	Sololá	1	Sololá	4	Abril	2023-04-28T00:00:00	2024-11-08T05:00:00	5	Humedad	92
20437	7	Sololá	701	Sololá	1	Sololá	4	Abril	2023-04-28T00:00:00	2024-11-08T05:00:00	6	Velocidad del viento	0
20438	7	Sololá	701	Sololá	1	Sololá	4	Abril	2023-04-28T00:00:00	2024-11-08T05:00:00	7	Dirección del viento	0
20439	7	Sololá	701	Sololá	1	Sololá	4	Abril	2023-04-28T00:00:00	2024-11-08T05:00:00	1	Precipitación	0
20440	7	Sololá	701	Sololá	1	Sololá	4	Abril	2023-04-28T00:00:00	2024-11-08T05:00:00	8	Radiación solar	0
20441	7	Sololá	701	Sololá	1	Sololá	4	Abril	2023-04-28T00:00:00	2024-11-08T06:00:00	2	Temperatura media	13.1
20442	7	Sololá	701	Sololá	1	Sololá	4	Abril	2023-04-28T00:00:00	2024-11-08T06:00:00	4	Temperatura máxima	13.5
20443	7	Sololá	701	Sololá	1	Sololá	4	Abril	2023-04-28T00:00:00	2024-11-08T06:00:00	3	Temperatura mínima	13
20444	7	Sololá	701	Sololá	1	Sololá	4	Abril	2023-04-28T00:00:00	2024-11-08T06:00:00	5	Humedad	94
20445	7	Sololá	701	Sololá	1	Sololá	4	Abril	2023-04-28T00:00:00	2024-11-08T06:00:00	6	Velocidad del viento	0
20446	7	Sololá	701	Sololá	1	Sololá	4	Abril	2023-04-28T00:00:00	2024-11-08T06:00:00	7	Dirección del viento	0
20447	7	Sololá	701	Sololá	1	Sololá	4	Abril	2023-04-28T00:00:00	2024-11-08T06:00:00	1	Precipitación	0
20448	7	Sololá	701	Sololá	1	Sololá	4	Abril	2023-04-28T00:00:00	2024-11-08T06:00:00	8	Radiación solar	1
20449	7	Sololá	701	Sololá	1	Sololá	4	Abril	2023-04-28T00:00:00	2024-11-08T07:00:00	2	Temperatura media	13.2
20450	7	Sololá	701	Sololá	1	Sololá	4	Abril	2023-04-28T00:00:00	2024-11-08T07:00:00	4	Temperatura máxima	13.3
20451	7	Sololá	701	Sololá	1	Sololá	4	Abril	2023-04-28T00:00:00	2024-11-08T07:00:00	3	Temperatura mínima	13.1
20452	7	Sololá	701	Sololá	1	Sololá	4	Abril	2023-04-28T00:00:00	2024-11-08T07:00:00	5	Humedad	92
20453	7	Sololá	701	Sololá	1	Sololá	4	Abril	2023-04-28T00:00:00	2024-11-08T07:00:00	6	Velocidad del viento	0
20454	7	Sololá	701	Sololá	1	Sololá	4	Abril	2023-04-28T00:00:00	2024-11-08T07:00:00	7	Dirección del viento	0
20455	7	Sololá	701	Sololá	1	Sololá	4	Abril	2023-04-28T00:00:00	2024-11-08T07:00:00	1	Precipitación	0
20456	7	Sololá	701	Sololá	1	Sololá	4	Abril	2023-04-28T00:00:00	2024-11-08T07:00:00	8	Radiación solar	39
20457	7	Sololá	701	Sololá	1	Sololá	4	Abril	2023-04-28T00:00:00	2024-11-08T08:00:00	2	Temperatura media	13.6
20458	7	Sololá	701	Sololá	1	Sololá	4	Abril	2023-04-28T00:00:00	2024-11-08T08:00:00	4	Temperatura máxima	13.6
20459	7	Sololá	701	Sololá	1	Sololá	4	Abril	2023-04-28T00:00:00	2024-11-08T08:00:00	3	Temperatura mínima	13.1
20460	7	Sololá	701	Sololá	1	Sololá	4	Abril	2023-04-28T00:00:00	2024-11-08T08:00:00	5	Humedad	92
20461	7	Sololá	701	Sololá	1	Sololá	4	Abril	2023-04-28T00:00:00	2024-11-08T08:00:00	6	Velocidad del viento	0
20462	7	Sololá	701	Sololá	1	Sololá	4	Abril	2023-04-28T00:00:00	2024-11-08T08:00:00	7	Dirección del viento	0
20463	7	Sololá	701	Sololá	1	Sololá	4	Abril	2023-04-28T00:00:00	2024-11-08T08:00:00	1	Precipitación	0
20464	7	Sololá	701	Sololá	1	Sololá	4	Abril	2023-04-28T00:00:00	2024-11-08T08:00:00	8	Radiación solar	142
20465	7	Sololá	701	Sololá	1	Sololá	4	Abril	2023-04-28T00:00:00	2024-11-08T09:00:00	2	Temperatura media	16.7
20466	7	Sololá	701	Sololá	1	Sololá	4	Abril	2023-04-28T00:00:00	2024-11-08T09:00:00	4	Temperatura máxima	16.7
20467	7	Sololá	701	Sololá	1	Sololá	4	Abril	2023-04-28T00:00:00	2024-11-08T09:00:00	3	Temperatura mínima	13.6
20468	7	Sololá	701	Sololá	1	Sololá	4	Abril	2023-04-28T00:00:00	2024-11-08T09:00:00	5	Humedad	83
20469	7	Sololá	701	Sololá	1	Sololá	4	Abril	2023-04-28T00:00:00	2024-11-08T09:00:00	6	Velocidad del viento	0
20470	7	Sololá	701	Sololá	1	Sololá	4	Abril	2023-04-28T00:00:00	2024-11-08T09:00:00	7	Dirección del viento	0
20471	7	Sololá	701	Sololá	1	Sololá	4	Abril	2023-04-28T00:00:00	2024-11-08T09:00:00	1	Precipitación	0
20472	7	Sololá	701	Sololá	1	Sololá	4	Abril	2023-04-28T00:00:00	2024-11-08T09:00:00	8	Radiación solar	522
20473	7	Sololá	701	Sololá	1	Sololá	4	Abril	2023-04-28T00:00:00	2024-11-08T10:00:00	2	Temperatura media	19.2
20474	7	Sololá	701	Sololá	1	Sololá	4	Abril	2023-04-28T00:00:00	2024-11-08T10:00:00	4	Temperatura máxima	19.2
20475	7	Sololá	701	Sololá	1	Sololá	4	Abril	2023-04-28T00:00:00	2024-11-08T10:00:00	3	Temperatura mínima	16.7
20476	7	Sololá	701	Sololá	1	Sololá	4	Abril	2023-04-28T00:00:00	2024-11-08T10:00:00	5	Humedad	83
20477	7	Sololá	701	Sololá	1	Sololá	4	Abril	2023-04-28T00:00:00	2024-11-08T10:00:00	6	Velocidad del viento	0
20478	7	Sololá	701	Sololá	1	Sololá	4	Abril	2023-04-28T00:00:00	2024-11-08T10:00:00	7	Dirección del viento	0
20479	7	Sololá	701	Sololá	1	Sololá	4	Abril	2023-04-28T00:00:00	2024-11-08T10:00:00	1	Precipitación	0
20480	7	Sololá	701	Sololá	1	Sololá	4	Abril	2023-04-28T00:00:00	2024-11-08T10:00:00	8	Radiación solar	717
20481	7	Sololá	701	Sololá	1	Sololá	4	Abril	2023-04-28T00:00:00	2024-11-08T11:00:00	2	Temperatura media	21.4
20482	7	Sololá	701	Sololá	1	Sololá	4	Abril	2023-04-28T00:00:00	2024-11-08T11:00:00	4	Temperatura máxima	21.4
20483	7	Sololá	701	Sololá	1	Sololá	4	Abril	2023-04-28T00:00:00	2024-11-08T11:00:00	3	Temperatura mínima	19.2
20484	7	Sololá	701	Sololá	1	Sololá	4	Abril	2023-04-28T00:00:00	2024-11-08T11:00:00	5	Humedad	70
20485	7	Sololá	701	Sololá	1	Sololá	4	Abril	2023-04-28T00:00:00	2024-11-08T11:00:00	6	Velocidad del viento	0
20486	7	Sololá	701	Sololá	1	Sololá	4	Abril	2023-04-28T00:00:00	2024-11-08T11:00:00	7	Dirección del viento	0
20487	7	Sololá	701	Sololá	1	Sololá	4	Abril	2023-04-28T00:00:00	2024-11-08T11:00:00	1	Precipitación	0
20488	7	Sololá	701	Sololá	1	Sololá	4	Abril	2023-04-28T00:00:00	2024-11-08T11:00:00	8	Radiación solar	854
20489	7	Sololá	701	Sololá	1	Sololá	4	Abril	2023-04-28T00:00:00	2024-11-08T12:00:00	2	Temperatura media	22.6
20490	7	Sololá	701	Sololá	1	Sololá	4	Abril	2023-04-28T00:00:00	2024-11-08T12:00:00	4	Temperatura máxima	22.8
20491	7	Sololá	701	Sololá	1	Sololá	4	Abril	2023-04-28T00:00:00	2024-11-08T12:00:00	3	Temperatura mínima	21.4
20492	7	Sololá	701	Sololá	1	Sololá	4	Abril	2023-04-28T00:00:00	2024-11-08T12:00:00	5	Humedad	66
20493	7	Sololá	701	Sololá	1	Sololá	4	Abril	2023-04-28T00:00:00	2024-11-08T12:00:00	6	Velocidad del viento	0
20494	7	Sololá	701	Sololá	1	Sololá	4	Abril	2023-04-28T00:00:00	2024-11-08T12:00:00	7	Dirección del viento	0
20495	7	Sololá	701	Sololá	1	Sololá	4	Abril	2023-04-28T00:00:00	2024-11-08T12:00:00	1	Precipitación	0
20496	7	Sololá	701	Sololá	1	Sololá	4	Abril	2023-04-28T00:00:00	2024-11-08T12:00:00	8	Radiación solar	867
20497	7	Sololá	701	Sololá	1	Sololá	4	Abril	2023-04-28T00:00:00	2024-11-08T13:00:00	2	Temperatura media	21.4
20498	7	Sololá	701	Sololá	1	Sololá	4	Abril	2023-04-28T00:00:00	2024-11-08T13:00:00	4	Temperatura máxima	22.6
20499	7	Sololá	701	Sololá	1	Sololá	4	Abril	2023-04-28T00:00:00	2024-11-08T13:00:00	3	Temperatura mínima	21.4
20500	7	Sololá	701	Sololá	1	Sololá	4	Abril	2023-04-28T00:00:00	2024-11-08T13:00:00	5	Humedad	77
20501	7	Sololá	701	Sololá	1	Sololá	4	Abril	2023-04-28T00:00:00	2024-11-08T13:00:00	6	Velocidad del viento	0
20502	7	Sololá	701	Sololá	1	Sololá	4	Abril	2023-04-28T00:00:00	2024-11-08T13:00:00	7	Dirección del viento	0
20503	7	Sololá	701	Sololá	1	Sololá	4	Abril	2023-04-28T00:00:00	2024-11-08T13:00:00	1	Precipitación	0
20504	7	Sololá	701	Sololá	1	Sololá	4	Abril	2023-04-28T00:00:00	2024-11-08T13:00:00	8	Radiación solar	359
20505	7	Sololá	701	Sololá	1	Sololá	4	Abril	2023-04-28T00:00:00	2024-11-08T14:00:00	2	Temperatura media	21.6
20506	7	Sololá	701	Sololá	1	Sololá	4	Abril	2023-04-28T00:00:00	2024-11-08T14:00:00	4	Temperatura máxima	21.8
20507	7	Sololá	701	Sololá	1	Sololá	4	Abril	2023-04-28T00:00:00	2024-11-08T14:00:00	3	Temperatura mínima	21
20508	7	Sololá	701	Sololá	1	Sololá	4	Abril	2023-04-28T00:00:00	2024-11-08T14:00:00	5	Humedad	79
20509	7	Sololá	701	Sololá	1	Sololá	4	Abril	2023-04-28T00:00:00	2024-11-08T14:00:00	6	Velocidad del viento	0
20510	7	Sololá	701	Sololá	1	Sololá	4	Abril	2023-04-28T00:00:00	2024-11-08T14:00:00	7	Dirección del viento	0
20511	7	Sololá	701	Sololá	1	Sololá	4	Abril	2023-04-28T00:00:00	2024-11-08T14:00:00	1	Precipitación	0
20512	7	Sololá	701	Sololá	1	Sololá	4	Abril	2023-04-28T00:00:00	2024-11-08T14:00:00	8	Radiación solar	207
20513	7	Sololá	701	Sololá	1	Sololá	4	Abril	2023-04-28T00:00:00	2024-11-08T15:00:00	2	Temperatura media	19.4
20514	7	Sololá	701	Sololá	1	Sololá	4	Abril	2023-04-28T00:00:00	2024-11-08T15:00:00	4	Temperatura máxima	21.6
20515	7	Sololá	701	Sololá	1	Sololá	4	Abril	2023-04-28T00:00:00	2024-11-08T15:00:00	3	Temperatura mínima	19.4
20516	7	Sololá	701	Sololá	1	Sololá	4	Abril	2023-04-28T00:00:00	2024-11-08T15:00:00	5	Humedad	83
20517	7	Sololá	701	Sololá	1	Sololá	4	Abril	2023-04-28T00:00:00	2024-11-08T15:00:00	6	Velocidad del viento	0
20518	7	Sololá	701	Sololá	1	Sololá	4	Abril	2023-04-28T00:00:00	2024-11-08T15:00:00	7	Dirección del viento	0
20519	7	Sololá	701	Sololá	1	Sololá	4	Abril	2023-04-28T00:00:00	2024-11-08T15:00:00	1	Precipitación	0
20520	7	Sololá	701	Sololá	1	Sololá	4	Abril	2023-04-28T00:00:00	2024-11-08T15:00:00	8	Radiación solar	193
20521	7	Sololá	701	Sololá	1	Sololá	4	Abril	2023-04-28T00:00:00	2024-11-08T16:00:00	2	Temperatura media	19.5
20522	7	Sololá	701	Sololá	1	Sololá	4	Abril	2023-04-28T00:00:00	2024-11-08T16:00:00	4	Temperatura máxima	20.2
20523	7	Sololá	701	Sololá	1	Sololá	4	Abril	2023-04-28T00:00:00	2024-11-08T16:00:00	3	Temperatura mínima	19.3
20524	7	Sololá	701	Sololá	1	Sololá	4	Abril	2023-04-28T00:00:00	2024-11-08T16:00:00	5	Humedad	86
20525	7	Sololá	701	Sololá	1	Sololá	4	Abril	2023-04-28T00:00:00	2024-11-08T16:00:00	6	Velocidad del viento	0
20526	7	Sololá	701	Sololá	1	Sololá	4	Abril	2023-04-28T00:00:00	2024-11-08T16:00:00	7	Dirección del viento	0
20527	7	Sololá	701	Sololá	1	Sololá	4	Abril	2023-04-28T00:00:00	2024-11-08T16:00:00	1	Precipitación	0
20528	7	Sololá	701	Sololá	1	Sololá	4	Abril	2023-04-28T00:00:00	2024-11-08T16:00:00	8	Radiación solar	23
20529	7	Sololá	701	Sololá	1	Sololá	4	Abril	2023-04-28T00:00:00	2024-11-08T17:00:00	2	Temperatura media	17.2
20530	7	Sololá	701	Sololá	1	Sololá	4	Abril	2023-04-28T00:00:00	2024-11-08T17:00:00	4	Temperatura máxima	19.4
20531	7	Sololá	701	Sololá	1	Sololá	4	Abril	2023-04-28T00:00:00	2024-11-08T17:00:00	3	Temperatura mínima	17.2
20532	7	Sololá	701	Sololá	1	Sololá	4	Abril	2023-04-28T00:00:00	2024-11-08T17:00:00	5	Humedad	94
20533	7	Sololá	701	Sololá	1	Sololá	4	Abril	2023-04-28T00:00:00	2024-11-08T17:00:00	6	Velocidad del viento	0
20534	7	Sololá	701	Sololá	1	Sololá	4	Abril	2023-04-28T00:00:00	2024-11-08T17:00:00	7	Dirección del viento	0
20535	7	Sololá	701	Sololá	1	Sololá	4	Abril	2023-04-28T00:00:00	2024-11-08T17:00:00	1	Precipitación	0
20536	7	Sololá	701	Sololá	1	Sololá	4	Abril	2023-04-28T00:00:00	2024-11-08T17:00:00	8	Radiación solar	14
20537	7	Sololá	701	Sololá	1	Sololá	4	Abril	2023-04-28T00:00:00	2024-11-08T18:00:00	2	Temperatura media	16.4
20538	7	Sololá	701	Sololá	1	Sololá	4	Abril	2023-04-28T00:00:00	2024-11-08T18:00:00	4	Temperatura máxima	17.2
20539	7	Sololá	701	Sololá	1	Sololá	4	Abril	2023-04-28T00:00:00	2024-11-08T18:00:00	3	Temperatura mínima	16.4
20540	7	Sololá	701	Sololá	1	Sololá	4	Abril	2023-04-28T00:00:00	2024-11-08T18:00:00	5	Humedad	95
20541	7	Sololá	701	Sololá	1	Sololá	4	Abril	2023-04-28T00:00:00	2024-11-08T18:00:00	6	Velocidad del viento	0
20542	7	Sololá	701	Sololá	1	Sololá	4	Abril	2023-04-28T00:00:00	2024-11-08T18:00:00	7	Dirección del viento	0
20543	7	Sololá	701	Sololá	1	Sololá	4	Abril	2023-04-28T00:00:00	2024-11-08T18:00:00	1	Precipitación	0
20544	7	Sololá	701	Sololá	1	Sololá	4	Abril	2023-04-28T00:00:00	2024-11-08T18:00:00	8	Radiación solar	22
20545	7	Sololá	701	Sololá	1	Sololá	4	Abril	2023-04-28T00:00:00	2024-11-08T19:00:00	2	Temperatura media	16.2
20546	7	Sololá	701	Sololá	1	Sololá	4	Abril	2023-04-28T00:00:00	2024-11-08T19:00:00	4	Temperatura máxima	16.4
20547	7	Sololá	701	Sololá	1	Sololá	4	Abril	2023-04-28T00:00:00	2024-11-08T19:00:00	3	Temperatura mínima	16.2
20548	7	Sololá	701	Sololá	1	Sololá	4	Abril	2023-04-28T00:00:00	2024-11-08T19:00:00	5	Humedad	96
20549	7	Sololá	701	Sololá	1	Sololá	4	Abril	2023-04-28T00:00:00	2024-11-08T19:00:00	6	Velocidad del viento	0
20550	7	Sololá	701	Sololá	1	Sololá	4	Abril	2023-04-28T00:00:00	2024-11-08T19:00:00	7	Dirección del viento	0
20551	7	Sololá	701	Sololá	1	Sololá	4	Abril	2023-04-28T00:00:00	2024-11-08T19:00:00	1	Precipitación	0
20552	7	Sololá	701	Sololá	1	Sololá	4	Abril	2023-04-28T00:00:00	2024-11-08T19:00:00	8	Radiación solar	0
20553	7	Sololá	701	Sololá	1	Sololá	4	Abril	2023-04-28T00:00:00	2024-11-08T20:00:00	2	Temperatura media	16.1
20554	7	Sololá	701	Sololá	1	Sololá	4	Abril	2023-04-28T00:00:00	2024-11-08T20:00:00	4	Temperatura máxima	16.3
20555	7	Sololá	701	Sololá	1	Sololá	4	Abril	2023-04-28T00:00:00	2024-11-08T20:00:00	3	Temperatura mínima	16.1
20556	7	Sololá	701	Sololá	1	Sololá	4	Abril	2023-04-28T00:00:00	2024-11-08T20:00:00	5	Humedad	96
20557	7	Sololá	701	Sololá	1	Sololá	4	Abril	2023-04-28T00:00:00	2024-11-08T20:00:00	6	Velocidad del viento	0
20558	7	Sololá	701	Sololá	1	Sololá	4	Abril	2023-04-28T00:00:00	2024-11-08T20:00:00	7	Dirección del viento	0
20559	7	Sololá	701	Sololá	1	Sololá	4	Abril	2023-04-28T00:00:00	2024-11-08T20:00:00	1	Precipitación	0
20560	7	Sololá	701	Sololá	1	Sololá	4	Abril	2023-04-28T00:00:00	2024-11-08T20:00:00	8	Radiación solar	0
20561	7	Sololá	701	Sololá	1	Sololá	4	Abril	2023-04-28T00:00:00	2024-11-08T21:00:00	2	Temperatura media	15.8
20562	7	Sololá	701	Sololá	1	Sololá	4	Abril	2023-04-28T00:00:00	2024-11-08T21:00:00	4	Temperatura máxima	16.1
20563	7	Sololá	701	Sololá	1	Sololá	4	Abril	2023-04-28T00:00:00	2024-11-08T21:00:00	3	Temperatura mínima	15.8
20564	7	Sololá	701	Sololá	1	Sololá	4	Abril	2023-04-28T00:00:00	2024-11-08T21:00:00	5	Humedad	97
20565	7	Sololá	701	Sololá	1	Sololá	4	Abril	2023-04-28T00:00:00	2024-11-08T21:00:00	6	Velocidad del viento	0
20566	7	Sololá	701	Sololá	1	Sololá	4	Abril	2023-04-28T00:00:00	2024-11-08T21:00:00	7	Dirección del viento	0
20567	7	Sololá	701	Sololá	1	Sololá	4	Abril	2023-04-28T00:00:00	2024-11-08T21:00:00	1	Precipitación	0
20568	7	Sololá	701	Sololá	1	Sololá	4	Abril	2023-04-28T00:00:00	2024-11-08T21:00:00	8	Radiación solar	0
20569	7	Sololá	701	Sololá	1	Sololá	4	Abril	2023-04-28T00:00:00	2024-11-08T22:00:00	2	Temperatura media	15.8
20570	7	Sololá	701	Sololá	1	Sololá	4	Abril	2023-04-28T00:00:00	2024-11-08T22:00:00	4	Temperatura máxima	15.9
20571	7	Sololá	701	Sololá	1	Sololá	4	Abril	2023-04-28T00:00:00	2024-11-08T22:00:00	3	Temperatura mínima	15.7
20572	7	Sololá	701	Sololá	1	Sololá	4	Abril	2023-04-28T00:00:00	2024-11-08T22:00:00	5	Humedad	97
20573	7	Sololá	701	Sololá	1	Sololá	4	Abril	2023-04-28T00:00:00	2024-11-08T22:00:00	6	Velocidad del viento	0
20574	7	Sololá	701	Sololá	1	Sololá	4	Abril	2023-04-28T00:00:00	2024-11-08T22:00:00	7	Dirección del viento	0
20575	7	Sololá	701	Sololá	1	Sololá	4	Abril	2023-04-28T00:00:00	2024-11-08T22:00:00	1	Precipitación	0.2
20576	7	Sololá	701	Sololá	1	Sololá	4	Abril	2023-04-28T00:00:00	2024-11-08T22:00:00	8	Radiación solar	0
20577	7	Sololá	701	Sololá	1	Sololá	4	Abril	2023-04-28T00:00:00	2024-11-08T23:00:00	2	Temperatura media	15.5
20578	7	Sololá	701	Sololá	1	Sololá	4	Abril	2023-04-28T00:00:00	2024-11-08T23:00:00	4	Temperatura máxima	15.8
20579	7	Sololá	701	Sololá	1	Sololá	4	Abril	2023-04-28T00:00:00	2024-11-08T23:00:00	3	Temperatura mínima	15.5
20580	7	Sololá	701	Sololá	1	Sololá	4	Abril	2023-04-28T00:00:00	2024-11-08T23:00:00	5	Humedad	97
20581	7	Sololá	701	Sololá	1	Sololá	4	Abril	2023-04-28T00:00:00	2024-11-08T23:00:00	6	Velocidad del viento	0
20582	7	Sololá	701	Sololá	1	Sololá	4	Abril	2023-04-28T00:00:00	2024-11-08T23:00:00	7	Dirección del viento	0
20583	7	Sololá	701	Sololá	1	Sololá	4	Abril	2023-04-28T00:00:00	2024-11-08T23:00:00	1	Precipitación	0
20584	7	Sololá	701	Sololá	1	Sololá	4	Abril	2023-04-28T00:00:00	2024-11-08T23:00:00	8	Radiación solar	0
20585	7	Sololá	701	Sololá	1	Sololá	4	Abril	2023-04-29T00:00:00	2024-11-08T00:00:00	2	Temperatura media	15.3
20586	7	Sololá	701	Sololá	1	Sololá	4	Abril	2023-04-29T00:00:00	2024-11-08T00:00:00	4	Temperatura máxima	15.5
20587	7	Sololá	701	Sololá	1	Sololá	4	Abril	2023-04-29T00:00:00	2024-11-08T00:00:00	3	Temperatura mínima	15.3
20588	7	Sololá	701	Sololá	1	Sololá	4	Abril	2023-04-29T00:00:00	2024-11-08T00:00:00	5	Humedad	97
20589	7	Sololá	701	Sololá	1	Sololá	4	Abril	2023-04-29T00:00:00	2024-11-08T00:00:00	6	Velocidad del viento	0
20590	7	Sololá	701	Sololá	1	Sololá	4	Abril	2023-04-29T00:00:00	2024-11-08T00:00:00	7	Dirección del viento	0
20591	7	Sololá	701	Sololá	1	Sololá	4	Abril	2023-04-29T00:00:00	2024-11-08T00:00:00	1	Precipitación	0
20592	7	Sololá	701	Sololá	1	Sololá	4	Abril	2023-04-29T00:00:00	2024-11-08T00:00:00	8	Radiación solar	0
20593	7	Sololá	701	Sololá	1	Sololá	4	Abril	2023-04-29T00:00:00	2024-11-08T01:00:00	2	Temperatura media	13
20594	7	Sololá	701	Sololá	1	Sololá	4	Abril	2023-04-29T00:00:00	2024-11-08T01:00:00	4	Temperatura máxima	15.3
20595	7	Sololá	701	Sololá	1	Sololá	4	Abril	2023-04-29T00:00:00	2024-11-08T01:00:00	3	Temperatura mínima	13
20596	7	Sololá	701	Sololá	1	Sololá	4	Abril	2023-04-29T00:00:00	2024-11-08T01:00:00	5	Humedad	96
20597	7	Sololá	701	Sololá	1	Sololá	4	Abril	2023-04-29T00:00:00	2024-11-08T01:00:00	6	Velocidad del viento	0
20598	7	Sololá	701	Sololá	1	Sololá	4	Abril	2023-04-29T00:00:00	2024-11-08T01:00:00	7	Dirección del viento	0
20599	7	Sololá	701	Sololá	1	Sololá	4	Abril	2023-04-29T00:00:00	2024-11-08T01:00:00	1	Precipitación	0
20600	7	Sololá	701	Sololá	1	Sololá	4	Abril	2023-04-29T00:00:00	2024-11-08T01:00:00	8	Radiación solar	0
20601	7	Sololá	701	Sololá	1	Sololá	4	Abril	2023-04-29T00:00:00	2024-11-08T02:00:00	2	Temperatura media	12.8
20602	7	Sololá	701	Sololá	1	Sololá	4	Abril	2023-04-29T00:00:00	2024-11-08T02:00:00	4	Temperatura máxima	13
20603	7	Sololá	701	Sololá	1	Sololá	4	Abril	2023-04-29T00:00:00	2024-11-08T02:00:00	3	Temperatura mínima	12.7
20604	7	Sololá	701	Sololá	1	Sololá	4	Abril	2023-04-29T00:00:00	2024-11-08T02:00:00	5	Humedad	97
20605	7	Sololá	701	Sololá	1	Sololá	4	Abril	2023-04-29T00:00:00	2024-11-08T02:00:00	6	Velocidad del viento	0
20606	7	Sololá	701	Sololá	1	Sololá	4	Abril	2023-04-29T00:00:00	2024-11-08T02:00:00	7	Dirección del viento	0
20607	7	Sololá	701	Sololá	1	Sololá	4	Abril	2023-04-29T00:00:00	2024-11-08T02:00:00	1	Precipitación	0
20608	7	Sololá	701	Sololá	1	Sololá	4	Abril	2023-04-29T00:00:00	2024-11-08T02:00:00	8	Radiación solar	0
20609	7	Sololá	701	Sololá	1	Sololá	4	Abril	2023-04-29T00:00:00	2024-11-08T03:00:00	2	Temperatura media	12.9
20610	7	Sololá	701	Sololá	1	Sololá	4	Abril	2023-04-29T00:00:00	2024-11-08T03:00:00	4	Temperatura máxima	13
20611	7	Sololá	701	Sololá	1	Sololá	4	Abril	2023-04-29T00:00:00	2024-11-08T03:00:00	3	Temperatura mínima	12.8
20612	7	Sololá	701	Sololá	1	Sololá	4	Abril	2023-04-29T00:00:00	2024-11-08T03:00:00	5	Humedad	96
20613	7	Sololá	701	Sololá	1	Sololá	4	Abril	2023-04-29T00:00:00	2024-11-08T03:00:00	6	Velocidad del viento	0
20614	7	Sololá	701	Sololá	1	Sololá	4	Abril	2023-04-29T00:00:00	2024-11-08T03:00:00	7	Dirección del viento	0
20615	7	Sololá	701	Sololá	1	Sololá	4	Abril	2023-04-29T00:00:00	2024-11-08T03:00:00	1	Precipitación	0
20616	7	Sololá	701	Sololá	1	Sololá	4	Abril	2023-04-29T00:00:00	2024-11-08T03:00:00	8	Radiación solar	0
20617	7	Sololá	701	Sololá	1	Sololá	4	Abril	2023-04-29T00:00:00	2024-11-08T04:00:00	2	Temperatura media	12.4
20618	7	Sololá	701	Sololá	1	Sololá	4	Abril	2023-04-29T00:00:00	2024-11-08T04:00:00	4	Temperatura máxima	13
20619	7	Sololá	701	Sololá	1	Sololá	4	Abril	2023-04-29T00:00:00	2024-11-08T04:00:00	3	Temperatura mínima	12.4
20620	7	Sololá	701	Sololá	1	Sololá	4	Abril	2023-04-29T00:00:00	2024-11-08T04:00:00	5	Humedad	95
20621	7	Sololá	701	Sololá	1	Sololá	4	Abril	2023-04-29T00:00:00	2024-11-08T04:00:00	6	Velocidad del viento	0
20622	7	Sololá	701	Sololá	1	Sololá	4	Abril	2023-04-29T00:00:00	2024-11-08T04:00:00	7	Dirección del viento	0
20623	7	Sololá	701	Sololá	1	Sololá	4	Abril	2023-04-29T00:00:00	2024-11-08T04:00:00	1	Precipitación	0
20624	7	Sololá	701	Sololá	1	Sololá	4	Abril	2023-04-29T00:00:00	2024-11-08T04:00:00	8	Radiación solar	0
20625	7	Sololá	701	Sololá	1	Sololá	4	Abril	2023-04-29T00:00:00	2024-11-08T05:00:00	2	Temperatura media	12.2
20626	7	Sololá	701	Sololá	1	Sololá	4	Abril	2023-04-29T00:00:00	2024-11-08T05:00:00	4	Temperatura máxima	12.4
20627	7	Sololá	701	Sololá	1	Sololá	4	Abril	2023-04-29T00:00:00	2024-11-08T05:00:00	3	Temperatura mínima	12.2
20628	7	Sololá	701	Sololá	1	Sololá	4	Abril	2023-04-29T00:00:00	2024-11-08T05:00:00	5	Humedad	95
20629	7	Sololá	701	Sololá	1	Sololá	4	Abril	2023-04-29T00:00:00	2024-11-08T05:00:00	6	Velocidad del viento	0
20630	7	Sololá	701	Sololá	1	Sololá	4	Abril	2023-04-29T00:00:00	2024-11-08T05:00:00	7	Dirección del viento	0
20631	7	Sololá	701	Sololá	1	Sololá	4	Abril	2023-04-29T00:00:00	2024-11-08T05:00:00	1	Precipitación	0
20632	7	Sololá	701	Sololá	1	Sololá	4	Abril	2023-04-29T00:00:00	2024-11-08T05:00:00	8	Radiación solar	0
20633	7	Sololá	701	Sololá	1	Sololá	4	Abril	2023-04-29T00:00:00	2024-11-08T06:00:00	2	Temperatura media	12.2
20634	7	Sololá	701	Sololá	1	Sololá	4	Abril	2023-04-29T00:00:00	2024-11-08T06:00:00	4	Temperatura máxima	12.2
20635	7	Sololá	701	Sololá	1	Sololá	4	Abril	2023-04-29T00:00:00	2024-11-08T06:00:00	3	Temperatura mínima	12
20636	7	Sololá	701	Sololá	1	Sololá	4	Abril	2023-04-29T00:00:00	2024-11-08T06:00:00	5	Humedad	96
20637	7	Sololá	701	Sololá	1	Sololá	4	Abril	2023-04-29T00:00:00	2024-11-08T06:00:00	6	Velocidad del viento	0
20638	7	Sololá	701	Sololá	1	Sololá	4	Abril	2023-04-29T00:00:00	2024-11-08T06:00:00	7	Dirección del viento	0
20639	7	Sololá	701	Sololá	1	Sololá	4	Abril	2023-04-29T00:00:00	2024-11-08T06:00:00	1	Precipitación	0
20640	7	Sololá	701	Sololá	1	Sololá	4	Abril	2023-04-29T00:00:00	2024-11-08T06:00:00	8	Radiación solar	0
20641	7	Sololá	701	Sololá	1	Sololá	4	Abril	2023-04-29T00:00:00	2024-11-08T07:00:00	2	Temperatura media	12.2
20642	7	Sololá	701	Sololá	1	Sololá	4	Abril	2023-04-29T00:00:00	2024-11-08T07:00:00	4	Temperatura máxima	12.7
20643	7	Sololá	701	Sololá	1	Sololá	4	Abril	2023-04-29T00:00:00	2024-11-08T07:00:00	3	Temperatura mínima	12.2
20644	7	Sololá	701	Sololá	1	Sololá	4	Abril	2023-04-29T00:00:00	2024-11-08T07:00:00	5	Humedad	95
20645	7	Sololá	701	Sololá	1	Sololá	4	Abril	2023-04-29T00:00:00	2024-11-08T07:00:00	6	Velocidad del viento	0
20646	7	Sololá	701	Sololá	1	Sololá	4	Abril	2023-04-29T00:00:00	2024-11-08T07:00:00	7	Dirección del viento	0
20647	7	Sololá	701	Sololá	1	Sololá	4	Abril	2023-04-29T00:00:00	2024-11-08T07:00:00	1	Precipitación	0
20648	7	Sololá	701	Sololá	1	Sololá	4	Abril	2023-04-29T00:00:00	2024-11-08T07:00:00	8	Radiación solar	1
20649	7	Sololá	701	Sololá	1	Sololá	4	Abril	2023-04-29T00:00:00	2024-11-08T08:00:00	2	Temperatura media	12.7
20650	7	Sololá	701	Sololá	1	Sololá	4	Abril	2023-04-29T00:00:00	2024-11-08T08:00:00	4	Temperatura máxima	12.7
20651	7	Sololá	701	Sololá	1	Sololá	4	Abril	2023-04-29T00:00:00	2024-11-08T08:00:00	3	Temperatura mínima	12.2
20652	7	Sololá	701	Sololá	1	Sololá	4	Abril	2023-04-29T00:00:00	2024-11-08T08:00:00	5	Humedad	96
20653	7	Sololá	701	Sololá	1	Sololá	4	Abril	2023-04-29T00:00:00	2024-11-08T08:00:00	6	Velocidad del viento	0
20654	7	Sololá	701	Sololá	1	Sololá	4	Abril	2023-04-29T00:00:00	2024-11-08T08:00:00	7	Dirección del viento	0
20655	7	Sololá	701	Sololá	1	Sololá	4	Abril	2023-04-29T00:00:00	2024-11-08T08:00:00	1	Precipitación	0
20656	7	Sololá	701	Sololá	1	Sololá	4	Abril	2023-04-29T00:00:00	2024-11-08T08:00:00	8	Radiación solar	41
20657	7	Sololá	701	Sololá	1	Sololá	4	Abril	2023-04-29T00:00:00	2024-11-08T09:00:00	2	Temperatura media	14.4
20658	7	Sololá	701	Sololá	1	Sololá	4	Abril	2023-04-29T00:00:00	2024-11-08T09:00:00	4	Temperatura máxima	14.4
20659	7	Sololá	701	Sololá	1	Sololá	4	Abril	2023-04-29T00:00:00	2024-11-08T09:00:00	3	Temperatura mínima	12.7
20660	7	Sololá	701	Sololá	1	Sololá	4	Abril	2023-04-29T00:00:00	2024-11-08T09:00:00	5	Humedad	93
20661	7	Sololá	701	Sololá	1	Sololá	4	Abril	2023-04-29T00:00:00	2024-11-08T09:00:00	6	Velocidad del viento	0
20662	7	Sololá	701	Sololá	1	Sololá	4	Abril	2023-04-29T00:00:00	2024-11-08T09:00:00	7	Dirección del viento	0
20663	7	Sololá	701	Sololá	1	Sololá	4	Abril	2023-04-29T00:00:00	2024-11-08T09:00:00	1	Precipitación	0
20664	7	Sololá	701	Sololá	1	Sololá	4	Abril	2023-04-29T00:00:00	2024-11-08T09:00:00	8	Radiación solar	134
20665	7	Sololá	701	Sololá	1	Sololá	4	Abril	2023-04-29T00:00:00	2024-11-08T10:00:00	2	Temperatura media	18.7
20666	7	Sololá	701	Sololá	1	Sololá	4	Abril	2023-04-29T00:00:00	2024-11-08T10:00:00	4	Temperatura máxima	18.7
20667	7	Sololá	701	Sololá	1	Sololá	4	Abril	2023-04-29T00:00:00	2024-11-08T10:00:00	3	Temperatura mínima	14.4
20668	7	Sololá	701	Sololá	1	Sololá	4	Abril	2023-04-29T00:00:00	2024-11-08T10:00:00	5	Humedad	86
20669	7	Sololá	701	Sololá	1	Sololá	4	Abril	2023-04-29T00:00:00	2024-11-08T10:00:00	6	Velocidad del viento	0
20670	7	Sololá	701	Sololá	1	Sololá	4	Abril	2023-04-29T00:00:00	2024-11-08T10:00:00	7	Dirección del viento	0
20671	7	Sololá	701	Sololá	1	Sololá	4	Abril	2023-04-29T00:00:00	2024-11-08T10:00:00	1	Precipitación	0
20672	7	Sololá	701	Sololá	1	Sololá	4	Abril	2023-04-29T00:00:00	2024-11-08T10:00:00	8	Radiación solar	512
20673	7	Sololá	701	Sololá	1	Sololá	4	Abril	2023-04-29T00:00:00	2024-11-08T11:00:00	2	Temperatura media	19.4
20674	7	Sololá	701	Sololá	1	Sololá	4	Abril	2023-04-29T00:00:00	2024-11-08T11:00:00	4	Temperatura máxima	19.7
20675	7	Sololá	701	Sololá	1	Sololá	4	Abril	2023-04-29T00:00:00	2024-11-08T11:00:00	3	Temperatura mínima	18.6
20676	7	Sololá	701	Sololá	1	Sololá	4	Abril	2023-04-29T00:00:00	2024-11-08T11:00:00	5	Humedad	77
20677	7	Sololá	701	Sololá	1	Sololá	4	Abril	2023-04-29T00:00:00	2024-11-08T11:00:00	6	Velocidad del viento	0
20678	7	Sololá	701	Sololá	1	Sololá	4	Abril	2023-04-29T00:00:00	2024-11-08T11:00:00	7	Dirección del viento	0
20679	7	Sololá	701	Sololá	1	Sololá	4	Abril	2023-04-29T00:00:00	2024-11-08T11:00:00	1	Precipitación	0
20680	7	Sololá	701	Sololá	1	Sololá	4	Abril	2023-04-29T00:00:00	2024-11-08T11:00:00	8	Radiación solar	646
20681	7	Sololá	701	Sololá	1	Sololá	4	Abril	2023-04-29T00:00:00	2024-11-08T12:00:00	2	Temperatura media	20.4
20682	7	Sololá	701	Sololá	1	Sololá	4	Abril	2023-04-29T00:00:00	2024-11-08T12:00:00	4	Temperatura máxima	20.4
20683	7	Sololá	701	Sololá	1	Sololá	4	Abril	2023-04-29T00:00:00	2024-11-08T12:00:00	3	Temperatura mínima	19.3
20684	7	Sololá	701	Sololá	1	Sololá	4	Abril	2023-04-29T00:00:00	2024-11-08T12:00:00	5	Humedad	77
20685	7	Sololá	701	Sololá	1	Sololá	4	Abril	2023-04-29T00:00:00	2024-11-08T12:00:00	6	Velocidad del viento	0
20686	7	Sololá	701	Sololá	1	Sololá	4	Abril	2023-04-29T00:00:00	2024-11-08T12:00:00	7	Dirección del viento	0
20687	7	Sololá	701	Sololá	1	Sololá	4	Abril	2023-04-29T00:00:00	2024-11-08T12:00:00	1	Precipitación	0
20688	7	Sololá	701	Sololá	1	Sololá	4	Abril	2023-04-29T00:00:00	2024-11-08T12:00:00	8	Radiación solar	841
20689	7	Sololá	701	Sololá	1	Sololá	4	Abril	2023-04-29T00:00:00	2024-11-08T13:00:00	2	Temperatura media	20.7
20690	7	Sololá	701	Sololá	1	Sololá	4	Abril	2023-04-29T00:00:00	2024-11-08T13:00:00	4	Temperatura máxima	20.9
20691	7	Sololá	701	Sololá	1	Sololá	4	Abril	2023-04-29T00:00:00	2024-11-08T13:00:00	3	Temperatura mínima	20.4
20692	7	Sololá	701	Sololá	1	Sololá	4	Abril	2023-04-29T00:00:00	2024-11-08T13:00:00	5	Humedad	78
20693	7	Sololá	701	Sololá	1	Sololá	4	Abril	2023-04-29T00:00:00	2024-11-08T13:00:00	6	Velocidad del viento	0
20694	7	Sololá	701	Sololá	1	Sololá	4	Abril	2023-04-29T00:00:00	2024-11-08T13:00:00	7	Dirección del viento	0
20695	7	Sololá	701	Sololá	1	Sololá	4	Abril	2023-04-29T00:00:00	2024-11-08T13:00:00	1	Precipitación	0
20696	7	Sololá	701	Sololá	1	Sololá	4	Abril	2023-04-29T00:00:00	2024-11-08T13:00:00	8	Radiación solar	891
20697	7	Sololá	701	Sololá	1	Sololá	4	Abril	2023-04-29T00:00:00	2024-11-08T14:00:00	2	Temperatura media	21.3
20698	7	Sololá	701	Sololá	1	Sololá	4	Abril	2023-04-29T00:00:00	2024-11-08T14:00:00	4	Temperatura máxima	21.4
20699	7	Sololá	701	Sololá	1	Sololá	4	Abril	2023-04-29T00:00:00	2024-11-08T14:00:00	3	Temperatura mínima	20.7
20700	7	Sololá	701	Sololá	1	Sololá	4	Abril	2023-04-29T00:00:00	2024-11-08T14:00:00	5	Humedad	78
20701	7	Sololá	701	Sololá	1	Sololá	4	Abril	2023-04-29T00:00:00	2024-11-08T14:00:00	6	Velocidad del viento	0
20702	7	Sololá	701	Sololá	1	Sololá	4	Abril	2023-04-29T00:00:00	2024-11-08T14:00:00	7	Dirección del viento	0
20703	7	Sololá	701	Sololá	1	Sololá	4	Abril	2023-04-29T00:00:00	2024-11-08T14:00:00	1	Precipitación	0.2
20704	7	Sololá	701	Sololá	1	Sololá	4	Abril	2023-04-29T00:00:00	2024-11-08T14:00:00	8	Radiación solar	546
20705	7	Sololá	701	Sololá	1	Sololá	4	Abril	2023-04-29T00:00:00	2024-11-08T15:00:00	2	Temperatura media	19.9
20706	7	Sololá	701	Sololá	1	Sololá	4	Abril	2023-04-29T00:00:00	2024-11-08T15:00:00	4	Temperatura máxima	21.4
20707	7	Sololá	701	Sololá	1	Sololá	4	Abril	2023-04-29T00:00:00	2024-11-08T15:00:00	3	Temperatura mínima	19.9
20708	7	Sololá	701	Sololá	1	Sololá	4	Abril	2023-04-29T00:00:00	2024-11-08T15:00:00	5	Humedad	82
20709	7	Sololá	701	Sololá	1	Sololá	4	Abril	2023-04-29T00:00:00	2024-11-08T15:00:00	6	Velocidad del viento	0
20710	7	Sololá	701	Sololá	1	Sololá	4	Abril	2023-04-29T00:00:00	2024-11-08T15:00:00	7	Dirección del viento	0
20711	7	Sololá	701	Sololá	1	Sololá	4	Abril	2023-04-29T00:00:00	2024-11-08T15:00:00	1	Precipitación	0
20712	7	Sololá	701	Sololá	1	Sololá	4	Abril	2023-04-29T00:00:00	2024-11-08T15:00:00	8	Radiación solar	266
20713	7	Sololá	701	Sololá	1	Sololá	4	Abril	2023-04-29T00:00:00	2024-11-08T16:00:00	2	Temperatura media	17.4
20714	7	Sololá	701	Sololá	1	Sololá	4	Abril	2023-04-29T00:00:00	2024-11-08T16:00:00	4	Temperatura máxima	20
20715	7	Sololá	701	Sololá	1	Sololá	4	Abril	2023-04-29T00:00:00	2024-11-08T16:00:00	3	Temperatura mínima	17.4
20716	7	Sololá	701	Sololá	1	Sololá	4	Abril	2023-04-29T00:00:00	2024-11-08T16:00:00	5	Humedad	91
20717	7	Sololá	701	Sololá	1	Sololá	4	Abril	2023-04-29T00:00:00	2024-11-08T16:00:00	6	Velocidad del viento	0
20718	7	Sololá	701	Sololá	1	Sololá	4	Abril	2023-04-29T00:00:00	2024-11-08T16:00:00	7	Dirección del viento	0
20719	7	Sololá	701	Sololá	1	Sololá	4	Abril	2023-04-29T00:00:00	2024-11-08T16:00:00	1	Precipitación	0
20720	7	Sololá	701	Sololá	1	Sololá	4	Abril	2023-04-29T00:00:00	2024-11-08T16:00:00	8	Radiación solar	63
20721	7	Sololá	701	Sololá	1	Sololá	4	Abril	2023-04-29T00:00:00	2024-11-08T17:00:00	2	Temperatura media	17.1
20722	7	Sololá	701	Sololá	1	Sololá	4	Abril	2023-04-29T00:00:00	2024-11-08T17:00:00	4	Temperatura máxima	17.4
20723	7	Sololá	701	Sololá	1	Sololá	4	Abril	2023-04-29T00:00:00	2024-11-08T17:00:00	3	Temperatura mínima	16.9
20724	7	Sololá	701	Sololá	1	Sololá	4	Abril	2023-04-29T00:00:00	2024-11-08T17:00:00	5	Humedad	92
20725	7	Sololá	701	Sololá	1	Sololá	4	Abril	2023-04-29T00:00:00	2024-11-08T17:00:00	6	Velocidad del viento	0
20726	7	Sololá	701	Sololá	1	Sololá	4	Abril	2023-04-29T00:00:00	2024-11-08T17:00:00	7	Dirección del viento	0
20727	7	Sololá	701	Sololá	1	Sololá	4	Abril	2023-04-29T00:00:00	2024-11-08T17:00:00	1	Precipitación	0
20728	7	Sololá	701	Sololá	1	Sololá	4	Abril	2023-04-29T00:00:00	2024-11-08T17:00:00	8	Radiación solar	41
20729	7	Sololá	701	Sololá	1	Sololá	4	Abril	2023-04-29T00:00:00	2024-11-08T18:00:00	2	Temperatura media	16.4
20730	7	Sololá	701	Sololá	1	Sololá	4	Abril	2023-04-29T00:00:00	2024-11-08T18:00:00	4	Temperatura máxima	17.1
20731	7	Sololá	701	Sololá	1	Sololá	4	Abril	2023-04-29T00:00:00	2024-11-08T18:00:00	3	Temperatura mínima	16.4
20732	7	Sololá	701	Sololá	1	Sololá	4	Abril	2023-04-29T00:00:00	2024-11-08T18:00:00	5	Humedad	93
20733	7	Sololá	701	Sololá	1	Sololá	4	Abril	2023-04-29T00:00:00	2024-11-08T18:00:00	6	Velocidad del viento	0
20734	7	Sololá	701	Sololá	1	Sololá	4	Abril	2023-04-29T00:00:00	2024-11-08T18:00:00	7	Dirección del viento	0
20735	7	Sololá	701	Sololá	1	Sololá	4	Abril	2023-04-29T00:00:00	2024-11-08T18:00:00	1	Precipitación	0
20736	7	Sololá	701	Sololá	1	Sololá	4	Abril	2023-04-29T00:00:00	2024-11-08T18:00:00	8	Radiación solar	32
20737	7	Sololá	701	Sololá	1	Sololá	4	Abril	2023-04-29T00:00:00	2024-11-08T19:00:00	2	Temperatura media	16.1
20738	7	Sololá	701	Sololá	1	Sololá	4	Abril	2023-04-29T00:00:00	2024-11-08T19:00:00	4	Temperatura máxima	16.4
20739	7	Sololá	701	Sololá	1	Sololá	4	Abril	2023-04-29T00:00:00	2024-11-08T19:00:00	3	Temperatura mínima	16.1
20740	7	Sololá	701	Sololá	1	Sololá	4	Abril	2023-04-29T00:00:00	2024-11-08T19:00:00	5	Humedad	96
20741	7	Sololá	701	Sololá	1	Sololá	4	Abril	2023-04-29T00:00:00	2024-11-08T19:00:00	6	Velocidad del viento	0
20742	7	Sololá	701	Sololá	1	Sololá	4	Abril	2023-04-29T00:00:00	2024-11-08T19:00:00	7	Dirección del viento	0
20743	7	Sololá	701	Sololá	1	Sololá	4	Abril	2023-04-29T00:00:00	2024-11-08T19:00:00	1	Precipitación	0
20744	7	Sololá	701	Sololá	1	Sololá	4	Abril	2023-04-29T00:00:00	2024-11-08T19:00:00	8	Radiación solar	0
20745	7	Sololá	701	Sololá	1	Sololá	4	Abril	2023-04-29T00:00:00	2024-11-08T20:00:00	2	Temperatura media	15.8
20746	7	Sololá	701	Sololá	1	Sololá	4	Abril	2023-04-29T00:00:00	2024-11-08T20:00:00	4	Temperatura máxima	16.1
20747	7	Sololá	701	Sololá	1	Sololá	4	Abril	2023-04-29T00:00:00	2024-11-08T20:00:00	3	Temperatura mínima	15.8
20748	7	Sololá	701	Sololá	1	Sololá	4	Abril	2023-04-29T00:00:00	2024-11-08T20:00:00	5	Humedad	96
20749	7	Sololá	701	Sololá	1	Sololá	4	Abril	2023-04-29T00:00:00	2024-11-08T20:00:00	6	Velocidad del viento	0
20750	7	Sololá	701	Sololá	1	Sololá	4	Abril	2023-04-29T00:00:00	2024-11-08T20:00:00	7	Dirección del viento	0
20751	7	Sololá	701	Sololá	1	Sololá	4	Abril	2023-04-29T00:00:00	2024-11-08T20:00:00	1	Precipitación	0
20752	7	Sololá	701	Sololá	1	Sololá	4	Abril	2023-04-29T00:00:00	2024-11-08T20:00:00	8	Radiación solar	0
20753	7	Sololá	701	Sololá	1	Sololá	4	Abril	2023-04-29T00:00:00	2024-11-08T21:00:00	2	Temperatura media	15.2
20754	7	Sololá	701	Sololá	1	Sololá	4	Abril	2023-04-29T00:00:00	2024-11-08T21:00:00	4	Temperatura máxima	15.8
20755	7	Sololá	701	Sololá	1	Sololá	4	Abril	2023-04-29T00:00:00	2024-11-08T21:00:00	3	Temperatura mínima	15.2
20756	7	Sololá	701	Sololá	1	Sololá	4	Abril	2023-04-29T00:00:00	2024-11-08T21:00:00	5	Humedad	95
20757	7	Sololá	701	Sololá	1	Sololá	4	Abril	2023-04-29T00:00:00	2024-11-08T21:00:00	6	Velocidad del viento	0
20758	7	Sololá	701	Sololá	1	Sololá	4	Abril	2023-04-29T00:00:00	2024-11-08T21:00:00	7	Dirección del viento	0
20759	7	Sololá	701	Sololá	1	Sololá	4	Abril	2023-04-29T00:00:00	2024-11-08T21:00:00	1	Precipitación	0
20760	7	Sololá	701	Sololá	1	Sololá	4	Abril	2023-04-29T00:00:00	2024-11-08T21:00:00	8	Radiación solar	0
20761	7	Sololá	701	Sololá	1	Sololá	4	Abril	2023-04-29T00:00:00	2024-11-08T22:00:00	2	Temperatura media	14.1
20762	7	Sololá	701	Sololá	1	Sololá	4	Abril	2023-04-29T00:00:00	2024-11-08T22:00:00	4	Temperatura máxima	15.2
20763	7	Sololá	701	Sololá	1	Sololá	4	Abril	2023-04-29T00:00:00	2024-11-08T22:00:00	3	Temperatura mínima	14
20764	7	Sololá	701	Sololá	1	Sololá	4	Abril	2023-04-29T00:00:00	2024-11-08T22:00:00	5	Humedad	94
20765	7	Sololá	701	Sololá	1	Sololá	4	Abril	2023-04-29T00:00:00	2024-11-08T22:00:00	6	Velocidad del viento	0
20766	7	Sololá	701	Sololá	1	Sololá	4	Abril	2023-04-29T00:00:00	2024-11-08T22:00:00	7	Dirección del viento	0
20767	7	Sololá	701	Sololá	1	Sololá	4	Abril	2023-04-29T00:00:00	2024-11-08T22:00:00	1	Precipitación	0
20768	7	Sololá	701	Sololá	1	Sololá	4	Abril	2023-04-29T00:00:00	2024-11-08T22:00:00	8	Radiación solar	0
20769	7	Sololá	701	Sololá	1	Sololá	4	Abril	2023-04-29T00:00:00	2024-11-08T23:00:00	2	Temperatura media	13.7
20770	7	Sololá	701	Sololá	1	Sololá	4	Abril	2023-04-29T00:00:00	2024-11-08T23:00:00	4	Temperatura máxima	14.1
20771	7	Sololá	701	Sololá	1	Sololá	4	Abril	2023-04-29T00:00:00	2024-11-08T23:00:00	3	Temperatura mínima	13.7
20772	7	Sololá	701	Sololá	1	Sololá	4	Abril	2023-04-29T00:00:00	2024-11-08T23:00:00	5	Humedad	92
20773	7	Sololá	701	Sololá	1	Sololá	4	Abril	2023-04-29T00:00:00	2024-11-08T23:00:00	6	Velocidad del viento	0
20774	7	Sololá	701	Sololá	1	Sololá	4	Abril	2023-04-29T00:00:00	2024-11-08T23:00:00	7	Dirección del viento	0
20775	7	Sololá	701	Sololá	1	Sololá	4	Abril	2023-04-29T00:00:00	2024-11-08T23:00:00	1	Precipitación	0
20776	7	Sololá	701	Sololá	1	Sololá	4	Abril	2023-04-29T00:00:00	2024-11-08T23:00:00	8	Radiación solar	0
20777	7	Sololá	701	Sololá	1	Sololá	4	Abril	2023-04-30T00:00:00	2024-11-08T00:00:00	2	Temperatura media	14.2
20778	7	Sololá	701	Sololá	1	Sololá	4	Abril	2023-04-30T00:00:00	2024-11-08T00:00:00	4	Temperatura máxima	14.2
20779	7	Sololá	701	Sololá	1	Sololá	4	Abril	2023-04-30T00:00:00	2024-11-08T00:00:00	3	Temperatura mínima	13.7
20780	7	Sololá	701	Sololá	1	Sololá	4	Abril	2023-04-30T00:00:00	2024-11-08T00:00:00	5	Humedad	90
20781	7	Sololá	701	Sololá	1	Sololá	4	Abril	2023-04-30T00:00:00	2024-11-08T00:00:00	6	Velocidad del viento	0
20782	7	Sololá	701	Sololá	1	Sololá	4	Abril	2023-04-30T00:00:00	2024-11-08T00:00:00	7	Dirección del viento	0
20783	7	Sololá	701	Sololá	1	Sololá	4	Abril	2023-04-30T00:00:00	2024-11-08T00:00:00	1	Precipitación	0
20784	7	Sololá	701	Sololá	1	Sololá	4	Abril	2023-04-30T00:00:00	2024-11-08T00:00:00	8	Radiación solar	0
20785	7	Sololá	701	Sololá	1	Sololá	4	Abril	2023-04-30T00:00:00	2024-11-08T01:00:00	2	Temperatura media	14.3
20786	7	Sololá	701	Sololá	1	Sololá	4	Abril	2023-04-30T00:00:00	2024-11-08T01:00:00	4	Temperatura máxima	14.6
20787	7	Sololá	701	Sololá	1	Sololá	4	Abril	2023-04-30T00:00:00	2024-11-08T01:00:00	3	Temperatura mínima	14.2
20788	7	Sololá	701	Sololá	1	Sololá	4	Abril	2023-04-30T00:00:00	2024-11-08T01:00:00	5	Humedad	91
20789	7	Sololá	701	Sololá	1	Sololá	4	Abril	2023-04-30T00:00:00	2024-11-08T01:00:00	6	Velocidad del viento	0
20790	7	Sololá	701	Sololá	1	Sololá	4	Abril	2023-04-30T00:00:00	2024-11-08T01:00:00	7	Dirección del viento	0
20791	7	Sololá	701	Sololá	1	Sololá	4	Abril	2023-04-30T00:00:00	2024-11-08T01:00:00	1	Precipitación	0
20792	7	Sololá	701	Sololá	1	Sololá	4	Abril	2023-04-30T00:00:00	2024-11-08T01:00:00	8	Radiación solar	0
20793	7	Sololá	701	Sololá	1	Sololá	4	Abril	2023-04-30T00:00:00	2024-11-08T02:00:00	2	Temperatura media	13.7
20794	7	Sololá	701	Sololá	1	Sololá	4	Abril	2023-04-30T00:00:00	2024-11-08T02:00:00	4	Temperatura máxima	14.3
20795	7	Sololá	701	Sololá	1	Sololá	4	Abril	2023-04-30T00:00:00	2024-11-08T02:00:00	3	Temperatura mínima	13.7
20796	7	Sololá	701	Sololá	1	Sololá	4	Abril	2023-04-30T00:00:00	2024-11-08T02:00:00	5	Humedad	91
20797	7	Sololá	701	Sololá	1	Sololá	4	Abril	2023-04-30T00:00:00	2024-11-08T02:00:00	6	Velocidad del viento	0
20798	7	Sololá	701	Sololá	1	Sololá	4	Abril	2023-04-30T00:00:00	2024-11-08T02:00:00	7	Dirección del viento	0
20799	7	Sololá	701	Sololá	1	Sololá	4	Abril	2023-04-30T00:00:00	2024-11-08T02:00:00	1	Precipitación	0
20800	7	Sololá	701	Sololá	1	Sololá	4	Abril	2023-04-30T00:00:00	2024-11-08T02:00:00	8	Radiación solar	0
20801	7	Sololá	701	Sololá	1	Sololá	4	Abril	2023-04-30T00:00:00	2024-11-08T03:00:00	2	Temperatura media	14
20802	7	Sololá	701	Sololá	1	Sololá	4	Abril	2023-04-30T00:00:00	2024-11-08T03:00:00	4	Temperatura máxima	14.1
20803	7	Sololá	701	Sololá	1	Sololá	4	Abril	2023-04-30T00:00:00	2024-11-08T03:00:00	3	Temperatura mínima	13.7
20804	7	Sololá	701	Sololá	1	Sololá	4	Abril	2023-04-30T00:00:00	2024-11-08T03:00:00	5	Humedad	88
20805	7	Sololá	701	Sololá	1	Sololá	4	Abril	2023-04-30T00:00:00	2024-11-08T03:00:00	6	Velocidad del viento	0
20806	7	Sololá	701	Sololá	1	Sololá	4	Abril	2023-04-30T00:00:00	2024-11-08T03:00:00	7	Dirección del viento	0
20807	7	Sololá	701	Sololá	1	Sololá	4	Abril	2023-04-30T00:00:00	2024-11-08T03:00:00	1	Precipitación	0
20808	7	Sololá	701	Sololá	1	Sololá	4	Abril	2023-04-30T00:00:00	2024-11-08T03:00:00	8	Radiación solar	0
20809	7	Sololá	701	Sololá	1	Sololá	4	Abril	2023-04-30T00:00:00	2024-11-08T04:00:00	2	Temperatura media	13.9
20810	7	Sololá	701	Sololá	1	Sololá	4	Abril	2023-04-30T00:00:00	2024-11-08T04:00:00	4	Temperatura máxima	14.1
20811	7	Sololá	701	Sololá	1	Sololá	4	Abril	2023-04-30T00:00:00	2024-11-08T04:00:00	3	Temperatura mínima	13.9
20812	7	Sololá	701	Sololá	1	Sololá	4	Abril	2023-04-30T00:00:00	2024-11-08T04:00:00	5	Humedad	89
20813	7	Sololá	701	Sololá	1	Sololá	4	Abril	2023-04-30T00:00:00	2024-11-08T04:00:00	6	Velocidad del viento	0
20814	7	Sololá	701	Sololá	1	Sololá	4	Abril	2023-04-30T00:00:00	2024-11-08T04:00:00	7	Dirección del viento	0
20815	7	Sololá	701	Sololá	1	Sololá	4	Abril	2023-04-30T00:00:00	2024-11-08T04:00:00	1	Precipitación	0
20816	7	Sololá	701	Sololá	1	Sololá	4	Abril	2023-04-30T00:00:00	2024-11-08T04:00:00	8	Radiación solar	0
20817	7	Sololá	701	Sololá	1	Sololá	4	Abril	2023-04-30T00:00:00	2024-11-08T05:00:00	2	Temperatura media	14.1
20818	7	Sololá	701	Sololá	1	Sololá	4	Abril	2023-04-30T00:00:00	2024-11-08T05:00:00	4	Temperatura máxima	14.1
20819	7	Sololá	701	Sololá	1	Sololá	4	Abril	2023-04-30T00:00:00	2024-11-08T05:00:00	3	Temperatura mínima	13.9
20820	7	Sololá	701	Sololá	1	Sololá	4	Abril	2023-04-30T00:00:00	2024-11-08T05:00:00	5	Humedad	89
20821	7	Sololá	701	Sololá	1	Sololá	4	Abril	2023-04-30T00:00:00	2024-11-08T05:00:00	6	Velocidad del viento	0
20822	7	Sololá	701	Sololá	1	Sololá	4	Abril	2023-04-30T00:00:00	2024-11-08T05:00:00	7	Dirección del viento	0
20823	7	Sololá	701	Sololá	1	Sololá	4	Abril	2023-04-30T00:00:00	2024-11-08T05:00:00	1	Precipitación	0
20824	7	Sololá	701	Sololá	1	Sololá	4	Abril	2023-04-30T00:00:00	2024-11-08T05:00:00	8	Radiación solar	0
20825	7	Sololá	701	Sololá	1	Sololá	4	Abril	2023-04-30T00:00:00	2024-11-08T06:00:00	2	Temperatura media	13.9
20826	7	Sololá	701	Sololá	1	Sololá	4	Abril	2023-04-30T00:00:00	2024-11-08T06:00:00	4	Temperatura máxima	14.1
20827	7	Sololá	701	Sololá	1	Sololá	4	Abril	2023-04-30T00:00:00	2024-11-08T06:00:00	3	Temperatura mínima	13.9
20828	7	Sololá	701	Sololá	1	Sololá	4	Abril	2023-04-30T00:00:00	2024-11-08T06:00:00	5	Humedad	90
20829	7	Sololá	701	Sololá	1	Sololá	4	Abril	2023-04-30T00:00:00	2024-11-08T06:00:00	6	Velocidad del viento	0
20830	7	Sololá	701	Sololá	1	Sololá	4	Abril	2023-04-30T00:00:00	2024-11-08T06:00:00	7	Dirección del viento	0
20831	7	Sololá	701	Sololá	1	Sololá	4	Abril	2023-04-30T00:00:00	2024-11-08T06:00:00	1	Precipitación	0.2
20832	7	Sololá	701	Sololá	1	Sololá	4	Abril	2023-04-30T00:00:00	2024-11-08T06:00:00	8	Radiación solar	0
20833	7	Sololá	701	Sololá	1	Sololá	4	Abril	2023-04-30T00:00:00	2024-11-08T07:00:00	2	Temperatura media	14
20834	7	Sololá	701	Sololá	1	Sololá	4	Abril	2023-04-30T00:00:00	2024-11-08T07:00:00	4	Temperatura máxima	14.1
20835	7	Sololá	701	Sololá	1	Sololá	4	Abril	2023-04-30T00:00:00	2024-11-08T07:00:00	3	Temperatura mínima	13.9
20836	7	Sololá	701	Sololá	1	Sololá	4	Abril	2023-04-30T00:00:00	2024-11-08T07:00:00	5	Humedad	89
20837	7	Sololá	701	Sololá	1	Sololá	4	Abril	2023-04-30T00:00:00	2024-11-08T07:00:00	6	Velocidad del viento	0
20838	7	Sololá	701	Sololá	1	Sololá	4	Abril	2023-04-30T00:00:00	2024-11-08T07:00:00	7	Dirección del viento	0
20839	7	Sololá	701	Sololá	1	Sololá	4	Abril	2023-04-30T00:00:00	2024-11-08T07:00:00	1	Precipitación	0
20840	7	Sololá	701	Sololá	1	Sololá	4	Abril	2023-04-30T00:00:00	2024-11-08T07:00:00	8	Radiación solar	1
20841	7	Sololá	701	Sololá	1	Sololá	4	Abril	2023-04-30T00:00:00	2024-11-08T08:00:00	2	Temperatura media	14.8
20842	7	Sololá	701	Sololá	1	Sololá	4	Abril	2023-04-30T00:00:00	2024-11-08T08:00:00	4	Temperatura máxima	14.8
20843	7	Sololá	701	Sololá	1	Sololá	4	Abril	2023-04-30T00:00:00	2024-11-08T08:00:00	3	Temperatura mínima	14
20844	7	Sololá	701	Sololá	1	Sololá	4	Abril	2023-04-30T00:00:00	2024-11-08T08:00:00	5	Humedad	86
20845	7	Sololá	701	Sololá	1	Sololá	4	Abril	2023-04-30T00:00:00	2024-11-08T08:00:00	6	Velocidad del viento	0
20846	7	Sololá	701	Sololá	1	Sololá	4	Abril	2023-04-30T00:00:00	2024-11-08T08:00:00	7	Dirección del viento	0
20847	7	Sololá	701	Sololá	1	Sololá	4	Abril	2023-04-30T00:00:00	2024-11-08T08:00:00	1	Precipitación	0
20848	7	Sololá	701	Sololá	1	Sololá	4	Abril	2023-04-30T00:00:00	2024-11-08T08:00:00	8	Radiación solar	31
20849	7	Sololá	701	Sololá	1	Sololá	4	Abril	2023-04-30T00:00:00	2024-11-08T09:00:00	2	Temperatura media	16.8
20850	7	Sololá	701	Sololá	1	Sololá	4	Abril	2023-04-30T00:00:00	2024-11-08T09:00:00	4	Temperatura máxima	16.8
20851	7	Sololá	701	Sololá	1	Sololá	4	Abril	2023-04-30T00:00:00	2024-11-08T09:00:00	3	Temperatura mínima	14.8
20852	7	Sololá	701	Sololá	1	Sololá	4	Abril	2023-04-30T00:00:00	2024-11-08T09:00:00	5	Humedad	78
20853	7	Sololá	701	Sololá	1	Sololá	4	Abril	2023-04-30T00:00:00	2024-11-08T09:00:00	6	Velocidad del viento	0
20854	7	Sololá	701	Sololá	1	Sololá	4	Abril	2023-04-30T00:00:00	2024-11-08T09:00:00	7	Dirección del viento	0
20855	7	Sololá	701	Sololá	1	Sololá	4	Abril	2023-04-30T00:00:00	2024-11-08T09:00:00	1	Precipitación	0
20856	7	Sololá	701	Sololá	1	Sololá	4	Abril	2023-04-30T00:00:00	2024-11-08T09:00:00	8	Radiación solar	116
20857	7	Sololá	701	Sololá	1	Sololá	4	Abril	2023-04-30T00:00:00	2024-11-08T10:00:00	2	Temperatura media	21.7
20858	7	Sololá	701	Sololá	1	Sololá	4	Abril	2023-04-30T00:00:00	2024-11-08T10:00:00	4	Temperatura máxima	21.7
20859	7	Sololá	701	Sololá	1	Sololá	4	Abril	2023-04-30T00:00:00	2024-11-08T10:00:00	3	Temperatura mínima	16.8
20860	7	Sololá	701	Sololá	1	Sololá	4	Abril	2023-04-30T00:00:00	2024-11-08T10:00:00	5	Humedad	63
20861	7	Sololá	701	Sololá	1	Sololá	4	Abril	2023-04-30T00:00:00	2024-11-08T10:00:00	6	Velocidad del viento	0
20862	7	Sololá	701	Sololá	1	Sololá	4	Abril	2023-04-30T00:00:00	2024-11-08T10:00:00	7	Dirección del viento	0
20863	7	Sololá	701	Sololá	1	Sololá	4	Abril	2023-04-30T00:00:00	2024-11-08T10:00:00	1	Precipitación	0
20864	7	Sololá	701	Sololá	1	Sololá	4	Abril	2023-04-30T00:00:00	2024-11-08T10:00:00	8	Radiación solar	590
20865	7	Sololá	701	Sololá	1	Sololá	4	Abril	2023-04-30T00:00:00	2024-11-08T11:00:00	2	Temperatura media	21.9
20866	7	Sololá	701	Sololá	1	Sololá	4	Abril	2023-04-30T00:00:00	2024-11-08T11:00:00	4	Temperatura máxima	22.4
20867	7	Sololá	701	Sololá	1	Sololá	4	Abril	2023-04-30T00:00:00	2024-11-08T11:00:00	3	Temperatura mínima	21.6
20868	7	Sololá	701	Sololá	1	Sololá	4	Abril	2023-04-30T00:00:00	2024-11-08T11:00:00	5	Humedad	67
20869	7	Sololá	701	Sololá	1	Sololá	4	Abril	2023-04-30T00:00:00	2024-11-08T11:00:00	6	Velocidad del viento	0
20870	7	Sololá	701	Sololá	1	Sololá	4	Abril	2023-04-30T00:00:00	2024-11-08T11:00:00	7	Dirección del viento	0
20871	7	Sololá	701	Sololá	1	Sololá	4	Abril	2023-04-30T00:00:00	2024-11-08T11:00:00	1	Precipitación	0
20872	7	Sololá	701	Sololá	1	Sololá	4	Abril	2023-04-30T00:00:00	2024-11-08T11:00:00	8	Radiación solar	706
20873	7	Sololá	701	Sololá	1	Sololá	4	Abril	2023-04-30T00:00:00	2024-11-08T12:00:00	2	Temperatura media	23.2
20874	7	Sololá	701	Sololá	1	Sololá	4	Abril	2023-04-30T00:00:00	2024-11-08T12:00:00	4	Temperatura máxima	23.2
20875	7	Sololá	701	Sololá	1	Sololá	4	Abril	2023-04-30T00:00:00	2024-11-08T12:00:00	3	Temperatura mínima	21.9
20876	7	Sololá	701	Sololá	1	Sololá	4	Abril	2023-04-30T00:00:00	2024-11-08T12:00:00	5	Humedad	62
20877	7	Sololá	701	Sololá	1	Sololá	4	Abril	2023-04-30T00:00:00	2024-11-08T12:00:00	6	Velocidad del viento	0
20878	7	Sololá	701	Sololá	1	Sololá	4	Abril	2023-04-30T00:00:00	2024-11-08T12:00:00	7	Dirección del viento	0
20879	7	Sololá	701	Sololá	1	Sololá	4	Abril	2023-04-30T00:00:00	2024-11-08T12:00:00	1	Precipitación	0
20880	7	Sololá	701	Sololá	1	Sololá	4	Abril	2023-04-30T00:00:00	2024-11-08T12:00:00	8	Radiación solar	803
20881	7	Sololá	701	Sololá	1	Sololá	4	Abril	2023-04-30T00:00:00	2024-11-08T13:00:00	2	Temperatura media	23.3
20882	7	Sololá	701	Sololá	1	Sololá	4	Abril	2023-04-30T00:00:00	2024-11-08T13:00:00	4	Temperatura máxima	23.7
20883	7	Sololá	701	Sololá	1	Sololá	4	Abril	2023-04-30T00:00:00	2024-11-08T13:00:00	3	Temperatura mínima	22.9
20884	7	Sololá	701	Sololá	1	Sololá	4	Abril	2023-04-30T00:00:00	2024-11-08T13:00:00	5	Humedad	69
20885	7	Sololá	701	Sololá	1	Sololá	4	Abril	2023-04-30T00:00:00	2024-11-08T13:00:00	6	Velocidad del viento	0
20886	7	Sololá	701	Sololá	1	Sololá	4	Abril	2023-04-30T00:00:00	2024-11-08T13:00:00	7	Dirección del viento	0
20887	7	Sololá	701	Sololá	1	Sololá	4	Abril	2023-04-30T00:00:00	2024-11-08T13:00:00	1	Precipitación	0
20888	7	Sololá	701	Sololá	1	Sololá	4	Abril	2023-04-30T00:00:00	2024-11-08T13:00:00	8	Radiación solar	924
20889	7	Sololá	701	Sololá	1	Sololá	4	Abril	2023-04-30T00:00:00	2024-11-08T14:00:00	2	Temperatura media	22.1
20890	7	Sololá	701	Sololá	1	Sololá	4	Abril	2023-04-30T00:00:00	2024-11-08T14:00:00	4	Temperatura máxima	23.4
20891	7	Sololá	701	Sololá	1	Sololá	4	Abril	2023-04-30T00:00:00	2024-11-08T14:00:00	3	Temperatura mínima	22.1
20892	7	Sololá	701	Sololá	1	Sololá	4	Abril	2023-04-30T00:00:00	2024-11-08T14:00:00	5	Humedad	79
20893	7	Sololá	701	Sololá	1	Sololá	4	Abril	2023-04-30T00:00:00	2024-11-08T14:00:00	6	Velocidad del viento	0
20894	7	Sololá	701	Sololá	1	Sololá	4	Abril	2023-04-30T00:00:00	2024-11-08T14:00:00	7	Dirección del viento	0
20895	7	Sololá	701	Sololá	1	Sololá	4	Abril	2023-04-30T00:00:00	2024-11-08T14:00:00	1	Precipitación	0
20896	7	Sololá	701	Sololá	1	Sololá	4	Abril	2023-04-30T00:00:00	2024-11-08T14:00:00	8	Radiación solar	704
20897	7	Sololá	701	Sololá	1	Sololá	4	Abril	2023-04-30T00:00:00	2024-11-08T15:00:00	2	Temperatura media	20.8
20898	7	Sololá	701	Sololá	1	Sololá	4	Abril	2023-04-30T00:00:00	2024-11-08T15:00:00	4	Temperatura máxima	22.1
20899	7	Sololá	701	Sololá	1	Sololá	4	Abril	2023-04-30T00:00:00	2024-11-08T15:00:00	3	Temperatura mínima	20.7
20900	7	Sololá	701	Sololá	1	Sololá	4	Abril	2023-04-30T00:00:00	2024-11-08T15:00:00	5	Humedad	83
20901	7	Sololá	701	Sololá	1	Sololá	4	Abril	2023-04-30T00:00:00	2024-11-08T15:00:00	6	Velocidad del viento	0
20902	7	Sololá	701	Sololá	1	Sololá	4	Abril	2023-04-30T00:00:00	2024-11-08T15:00:00	7	Dirección del viento	0
20903	7	Sololá	701	Sololá	1	Sololá	4	Abril	2023-04-30T00:00:00	2024-11-08T15:00:00	1	Precipitación	0
20904	7	Sololá	701	Sololá	1	Sololá	4	Abril	2023-04-30T00:00:00	2024-11-08T15:00:00	8	Radiación solar	235
20905	7	Sololá	701	Sololá	1	Sololá	4	Abril	2023-04-30T00:00:00	2024-11-08T16:00:00	2	Temperatura media	20.7
20906	7	Sololá	701	Sololá	1	Sololá	4	Abril	2023-04-30T00:00:00	2024-11-08T16:00:00	4	Temperatura máxima	21.4
20907	7	Sololá	701	Sololá	1	Sololá	4	Abril	2023-04-30T00:00:00	2024-11-08T16:00:00	3	Temperatura mínima	20.7
20908	7	Sololá	701	Sololá	1	Sololá	4	Abril	2023-04-30T00:00:00	2024-11-08T16:00:00	5	Humedad	81
20909	7	Sololá	701	Sololá	1	Sololá	4	Abril	2023-04-30T00:00:00	2024-11-08T16:00:00	6	Velocidad del viento	0
20910	7	Sololá	701	Sololá	1	Sololá	4	Abril	2023-04-30T00:00:00	2024-11-08T16:00:00	7	Dirección del viento	0
20911	7	Sololá	701	Sololá	1	Sololá	4	Abril	2023-04-30T00:00:00	2024-11-08T16:00:00	1	Precipitación	0
20912	7	Sololá	701	Sololá	1	Sololá	4	Abril	2023-04-30T00:00:00	2024-11-08T16:00:00	8	Radiación solar	180
20913	7	Sololá	701	Sololá	1	Sololá	4	Abril	2023-04-30T00:00:00	2024-11-08T17:00:00	2	Temperatura media	19.8
20914	7	Sololá	701	Sololá	1	Sololá	4	Abril	2023-04-30T00:00:00	2024-11-08T17:00:00	4	Temperatura máxima	20.7
20915	7	Sololá	701	Sololá	1	Sololá	4	Abril	2023-04-30T00:00:00	2024-11-08T17:00:00	3	Temperatura mínima	19.8
20916	7	Sololá	701	Sololá	1	Sololá	4	Abril	2023-04-30T00:00:00	2024-11-08T17:00:00	5	Humedad	85
20917	7	Sololá	701	Sololá	1	Sololá	4	Abril	2023-04-30T00:00:00	2024-11-08T17:00:00	6	Velocidad del viento	0
20918	7	Sololá	701	Sololá	1	Sololá	4	Abril	2023-04-30T00:00:00	2024-11-08T17:00:00	7	Dirección del viento	0
20919	7	Sololá	701	Sololá	1	Sololá	4	Abril	2023-04-30T00:00:00	2024-11-08T17:00:00	1	Precipitación	0
20920	7	Sololá	701	Sololá	1	Sololá	4	Abril	2023-04-30T00:00:00	2024-11-08T17:00:00	8	Radiación solar	126
20921	7	Sololá	701	Sololá	1	Sololá	4	Abril	2023-04-30T00:00:00	2024-11-08T18:00:00	2	Temperatura media	18.4
20922	7	Sololá	701	Sololá	1	Sololá	4	Abril	2023-04-30T00:00:00	2024-11-08T18:00:00	4	Temperatura máxima	19.8
20923	7	Sololá	701	Sololá	1	Sololá	4	Abril	2023-04-30T00:00:00	2024-11-08T18:00:00	3	Temperatura mínima	18.4
20924	7	Sololá	701	Sololá	1	Sololá	4	Abril	2023-04-30T00:00:00	2024-11-08T18:00:00	5	Humedad	90
20925	7	Sololá	701	Sololá	1	Sololá	4	Abril	2023-04-30T00:00:00	2024-11-08T18:00:00	6	Velocidad del viento	0
20926	7	Sololá	701	Sololá	1	Sololá	4	Abril	2023-04-30T00:00:00	2024-11-08T18:00:00	7	Dirección del viento	0
20927	7	Sololá	701	Sololá	1	Sololá	4	Abril	2023-04-30T00:00:00	2024-11-08T18:00:00	1	Precipitación	0
20928	7	Sololá	701	Sololá	1	Sololá	4	Abril	2023-04-30T00:00:00	2024-11-08T18:00:00	8	Radiación solar	39
20929	7	Sololá	701	Sololá	1	Sololá	4	Abril	2023-04-30T00:00:00	2024-11-08T19:00:00	2	Temperatura media	17.8
20930	7	Sololá	701	Sololá	1	Sololá	4	Abril	2023-04-30T00:00:00	2024-11-08T19:00:00	4	Temperatura máxima	18.4
20931	7	Sololá	701	Sololá	1	Sololá	4	Abril	2023-04-30T00:00:00	2024-11-08T19:00:00	3	Temperatura mínima	17.8
20932	7	Sololá	701	Sololá	1	Sololá	4	Abril	2023-04-30T00:00:00	2024-11-08T19:00:00	5	Humedad	91
20933	7	Sololá	701	Sololá	1	Sololá	4	Abril	2023-04-30T00:00:00	2024-11-08T19:00:00	6	Velocidad del viento	0
20934	7	Sololá	701	Sololá	1	Sololá	4	Abril	2023-04-30T00:00:00	2024-11-08T19:00:00	7	Dirección del viento	0
20935	7	Sololá	701	Sololá	1	Sololá	4	Abril	2023-04-30T00:00:00	2024-11-08T19:00:00	1	Precipitación	0
20936	7	Sololá	701	Sololá	1	Sololá	4	Abril	2023-04-30T00:00:00	2024-11-08T19:00:00	8	Radiación solar	0
20937	7	Sololá	701	Sololá	1	Sololá	4	Abril	2023-04-30T00:00:00	2024-11-08T20:00:00	2	Temperatura media	16.8
20938	7	Sololá	701	Sololá	1	Sololá	4	Abril	2023-04-30T00:00:00	2024-11-08T20:00:00	4	Temperatura máxima	17.8
20939	7	Sololá	701	Sololá	1	Sololá	4	Abril	2023-04-30T00:00:00	2024-11-08T20:00:00	3	Temperatura mínima	16.8
20940	7	Sololá	701	Sololá	1	Sololá	4	Abril	2023-04-30T00:00:00	2024-11-08T20:00:00	5	Humedad	84
20941	7	Sololá	701	Sololá	1	Sololá	4	Abril	2023-04-30T00:00:00	2024-11-08T20:00:00	6	Velocidad del viento	0
20942	7	Sololá	701	Sololá	1	Sololá	4	Abril	2023-04-30T00:00:00	2024-11-08T20:00:00	7	Dirección del viento	0
20943	7	Sololá	701	Sololá	1	Sololá	4	Abril	2023-04-30T00:00:00	2024-11-08T20:00:00	1	Precipitación	0
20944	7	Sololá	701	Sololá	1	Sololá	4	Abril	2023-04-30T00:00:00	2024-11-08T20:00:00	8	Radiación solar	0
20945	7	Sololá	701	Sololá	1	Sololá	4	Abril	2023-04-30T00:00:00	2024-11-08T21:00:00	2	Temperatura media	16.7
20946	7	Sololá	701	Sololá	1	Sololá	4	Abril	2023-04-30T00:00:00	2024-11-08T21:00:00	4	Temperatura máxima	16.8
20947	7	Sololá	701	Sololá	1	Sololá	4	Abril	2023-04-30T00:00:00	2024-11-08T21:00:00	3	Temperatura mínima	16.7
20948	7	Sololá	701	Sololá	1	Sololá	4	Abril	2023-04-30T00:00:00	2024-11-08T21:00:00	5	Humedad	83
20949	7	Sololá	701	Sololá	1	Sololá	4	Abril	2023-04-30T00:00:00	2024-11-08T21:00:00	6	Velocidad del viento	0
20950	7	Sololá	701	Sololá	1	Sololá	4	Abril	2023-04-30T00:00:00	2024-11-08T21:00:00	7	Dirección del viento	0
20951	7	Sololá	701	Sololá	1	Sololá	4	Abril	2023-04-30T00:00:00	2024-11-08T21:00:00	1	Precipitación	0
20952	7	Sololá	701	Sololá	1	Sololá	4	Abril	2023-04-30T00:00:00	2024-11-08T21:00:00	8	Radiación solar	0
20953	7	Sololá	701	Sololá	1	Sololá	4	Abril	2023-04-30T00:00:00	2024-11-08T22:00:00	2	Temperatura media	16.4
20954	7	Sololá	701	Sololá	1	Sololá	4	Abril	2023-04-30T00:00:00	2024-11-08T22:00:00	4	Temperatura máxima	16.8
20955	7	Sololá	701	Sololá	1	Sololá	4	Abril	2023-04-30T00:00:00	2024-11-08T22:00:00	3	Temperatura mínima	16.4
20956	7	Sololá	701	Sololá	1	Sololá	4	Abril	2023-04-30T00:00:00	2024-11-08T22:00:00	5	Humedad	83
20957	7	Sololá	701	Sololá	1	Sololá	4	Abril	2023-04-30T00:00:00	2024-11-08T22:00:00	6	Velocidad del viento	0
20958	7	Sololá	701	Sololá	1	Sololá	4	Abril	2023-04-30T00:00:00	2024-11-08T22:00:00	7	Dirección del viento	0
20959	7	Sololá	701	Sololá	1	Sololá	4	Abril	2023-04-30T00:00:00	2024-11-08T22:00:00	1	Precipitación	0
20960	7	Sololá	701	Sololá	1	Sololá	4	Abril	2023-04-30T00:00:00	2024-11-08T22:00:00	8	Radiación solar	0
20961	7	Sololá	701	Sololá	1	Sololá	4	Abril	2023-04-30T00:00:00	2024-11-08T23:00:00	2	Temperatura media	15.4
20962	7	Sololá	701	Sololá	1	Sololá	4	Abril	2023-04-30T00:00:00	2024-11-08T23:00:00	4	Temperatura máxima	16.4
20963	7	Sololá	701	Sololá	1	Sololá	4	Abril	2023-04-30T00:00:00	2024-11-08T23:00:00	3	Temperatura mínima	15.4
20964	7	Sololá	701	Sololá	1	Sololá	4	Abril	2023-04-30T00:00:00	2024-11-08T23:00:00	5	Humedad	84
20965	7	Sololá	701	Sololá	1	Sololá	4	Abril	2023-04-30T00:00:00	2024-11-08T23:00:00	6	Velocidad del viento	0
20966	7	Sololá	701	Sololá	1	Sololá	4	Abril	2023-04-30T00:00:00	2024-11-08T23:00:00	7	Dirección del viento	0
20967	7	Sololá	701	Sololá	1	Sololá	4	Abril	2023-04-30T00:00:00	2024-11-08T23:00:00	1	Precipitación	0
20968	7	Sololá	701	Sololá	1	Sololá	4	Abril	2023-04-30T00:00:00	2024-11-08T23:00:00	8	Radiación solar	0
20969	7	Sololá	701	Sololá	1	Sololá	5	Mayo	2023-01-05T00:00:00	2024-11-08T00:00:00	2	Temperatura media	14.7
20970	7	Sololá	701	Sololá	1	Sololá	5	Mayo	2023-01-05T00:00:00	2024-11-08T00:00:00	4	Temperatura máxima	15.4
20971	7	Sololá	701	Sololá	1	Sololá	5	Mayo	2023-01-05T00:00:00	2024-11-08T00:00:00	3	Temperatura mínima	14.7
20972	7	Sololá	701	Sololá	1	Sololá	5	Mayo	2023-01-05T00:00:00	2024-11-08T00:00:00	5	Humedad	86
20973	7	Sololá	701	Sololá	1	Sololá	5	Mayo	2023-01-05T00:00:00	2024-11-08T00:00:00	6	Velocidad del viento	0
20974	7	Sololá	701	Sololá	1	Sololá	5	Mayo	2023-01-05T00:00:00	2024-11-08T00:00:00	7	Dirección del viento	0
20975	7	Sololá	701	Sololá	1	Sololá	5	Mayo	2023-01-05T00:00:00	2024-11-08T00:00:00	1	Precipitación	0
20976	7	Sololá	701	Sololá	1	Sololá	5	Mayo	2023-01-05T00:00:00	2024-11-08T00:00:00	8	Radiación solar	0
20977	7	Sololá	701	Sololá	1	Sololá	5	Mayo	2023-01-05T00:00:00	2024-11-08T01:00:00	2	Temperatura media	14.6
20978	7	Sololá	701	Sololá	1	Sololá	5	Mayo	2023-01-05T00:00:00	2024-11-08T01:00:00	4	Temperatura máxima	14.7
20979	7	Sololá	701	Sololá	1	Sololá	5	Mayo	2023-01-05T00:00:00	2024-11-08T01:00:00	3	Temperatura mínima	14.5
20980	7	Sololá	701	Sololá	1	Sololá	5	Mayo	2023-01-05T00:00:00	2024-11-08T01:00:00	5	Humedad	87
20981	7	Sololá	701	Sololá	1	Sololá	5	Mayo	2023-01-05T00:00:00	2024-11-08T01:00:00	6	Velocidad del viento	0
20982	7	Sololá	701	Sololá	1	Sololá	5	Mayo	2023-01-05T00:00:00	2024-11-08T01:00:00	7	Dirección del viento	0
20983	7	Sololá	701	Sololá	1	Sololá	5	Mayo	2023-01-05T00:00:00	2024-11-08T01:00:00	1	Precipitación	0.2
20984	7	Sololá	701	Sololá	1	Sololá	5	Mayo	2023-01-05T00:00:00	2024-11-08T01:00:00	8	Radiación solar	0
20985	7	Sololá	701	Sololá	1	Sololá	5	Mayo	2023-01-05T00:00:00	2024-11-08T02:00:00	2	Temperatura media	14.2
20986	7	Sololá	701	Sololá	1	Sololá	5	Mayo	2023-01-05T00:00:00	2024-11-08T02:00:00	4	Temperatura máxima	14.6
20987	7	Sololá	701	Sololá	1	Sololá	5	Mayo	2023-01-05T00:00:00	2024-11-08T02:00:00	3	Temperatura mínima	14.2
20988	7	Sololá	701	Sololá	1	Sololá	5	Mayo	2023-01-05T00:00:00	2024-11-08T02:00:00	5	Humedad	87
20989	7	Sololá	701	Sololá	1	Sololá	5	Mayo	2023-01-05T00:00:00	2024-11-08T02:00:00	6	Velocidad del viento	0
20990	7	Sololá	701	Sololá	1	Sololá	5	Mayo	2023-01-05T00:00:00	2024-11-08T02:00:00	7	Dirección del viento	0
20991	7	Sololá	701	Sololá	1	Sololá	5	Mayo	2023-01-05T00:00:00	2024-11-08T02:00:00	1	Precipitación	0
20992	7	Sololá	701	Sololá	1	Sololá	5	Mayo	2023-01-05T00:00:00	2024-11-08T02:00:00	8	Radiación solar	0
20993	7	Sololá	701	Sololá	1	Sololá	5	Mayo	2023-01-05T00:00:00	2024-11-08T03:00:00	2	Temperatura media	13.2
20994	7	Sololá	701	Sololá	1	Sololá	5	Mayo	2023-01-05T00:00:00	2024-11-08T03:00:00	4	Temperatura máxima	14.2
20995	7	Sololá	701	Sololá	1	Sololá	5	Mayo	2023-01-05T00:00:00	2024-11-08T03:00:00	3	Temperatura mínima	13.2
20996	7	Sololá	701	Sololá	1	Sololá	5	Mayo	2023-01-05T00:00:00	2024-11-08T03:00:00	5	Humedad	87
20997	7	Sololá	701	Sololá	1	Sololá	5	Mayo	2023-01-05T00:00:00	2024-11-08T03:00:00	6	Velocidad del viento	0
20998	7	Sololá	701	Sololá	1	Sololá	5	Mayo	2023-01-05T00:00:00	2024-11-08T03:00:00	7	Dirección del viento	0
20999	7	Sololá	701	Sololá	1	Sololá	5	Mayo	2023-01-05T00:00:00	2024-11-08T03:00:00	1	Precipitación	0
21000	7	Sololá	701	Sololá	1	Sololá	5	Mayo	2023-01-05T00:00:00	2024-11-08T03:00:00	8	Radiación solar	0
21001	7	Sololá	701	Sololá	1	Sololá	5	Mayo	2023-01-05T00:00:00	2024-11-08T04:00:00	2	Temperatura media	12.6
21002	7	Sololá	701	Sololá	1	Sololá	5	Mayo	2023-01-05T00:00:00	2024-11-08T04:00:00	4	Temperatura máxima	13.2
21003	7	Sololá	701	Sololá	1	Sololá	5	Mayo	2023-01-05T00:00:00	2024-11-08T04:00:00	3	Temperatura mínima	12.6
21004	7	Sololá	701	Sololá	1	Sololá	5	Mayo	2023-01-05T00:00:00	2024-11-08T04:00:00	5	Humedad	89
21005	7	Sololá	701	Sololá	1	Sololá	5	Mayo	2023-01-05T00:00:00	2024-11-08T04:00:00	6	Velocidad del viento	0
21006	7	Sololá	701	Sololá	1	Sololá	5	Mayo	2023-01-05T00:00:00	2024-11-08T04:00:00	7	Dirección del viento	0
21007	7	Sololá	701	Sololá	1	Sololá	5	Mayo	2023-01-05T00:00:00	2024-11-08T04:00:00	1	Precipitación	0
21008	7	Sololá	701	Sololá	1	Sololá	5	Mayo	2023-01-05T00:00:00	2024-11-08T04:00:00	8	Radiación solar	0
21009	7	Sololá	701	Sololá	1	Sololá	5	Mayo	2023-01-05T00:00:00	2024-11-08T05:00:00	2	Temperatura media	13.1
21010	7	Sololá	701	Sololá	1	Sololá	5	Mayo	2023-01-05T00:00:00	2024-11-08T05:00:00	4	Temperatura máxima	13.1
21011	7	Sololá	701	Sololá	1	Sololá	5	Mayo	2023-01-05T00:00:00	2024-11-08T05:00:00	3	Temperatura mínima	12.5
21012	7	Sololá	701	Sololá	1	Sololá	5	Mayo	2023-01-05T00:00:00	2024-11-08T05:00:00	5	Humedad	83
21013	7	Sololá	701	Sololá	1	Sololá	5	Mayo	2023-01-05T00:00:00	2024-11-08T05:00:00	6	Velocidad del viento	0
21014	7	Sololá	701	Sololá	1	Sololá	5	Mayo	2023-01-05T00:00:00	2024-11-08T05:00:00	7	Dirección del viento	0
21015	7	Sololá	701	Sololá	1	Sololá	5	Mayo	2023-01-05T00:00:00	2024-11-08T05:00:00	1	Precipitación	0
21016	7	Sololá	701	Sololá	1	Sololá	5	Mayo	2023-01-05T00:00:00	2024-11-08T05:00:00	8	Radiación solar	0
21017	7	Sololá	701	Sololá	1	Sololá	5	Mayo	2023-01-05T00:00:00	2024-11-08T06:00:00	2	Temperatura media	13.3
21018	7	Sololá	701	Sololá	1	Sololá	5	Mayo	2023-01-05T00:00:00	2024-11-08T06:00:00	4	Temperatura máxima	13.3
21019	7	Sololá	701	Sololá	1	Sololá	5	Mayo	2023-01-05T00:00:00	2024-11-08T06:00:00	3	Temperatura mínima	13.1
21020	7	Sololá	701	Sololá	1	Sololá	5	Mayo	2023-01-05T00:00:00	2024-11-08T06:00:00	5	Humedad	83
21021	7	Sololá	701	Sololá	1	Sololá	5	Mayo	2023-01-05T00:00:00	2024-11-08T06:00:00	6	Velocidad del viento	0
21022	7	Sololá	701	Sololá	1	Sololá	5	Mayo	2023-01-05T00:00:00	2024-11-08T06:00:00	7	Dirección del viento	0
21023	7	Sololá	701	Sololá	1	Sololá	5	Mayo	2023-01-05T00:00:00	2024-11-08T06:00:00	1	Precipitación	0
21024	7	Sololá	701	Sololá	1	Sololá	5	Mayo	2023-01-05T00:00:00	2024-11-08T06:00:00	8	Radiación solar	0
21025	7	Sololá	701	Sololá	1	Sololá	5	Mayo	2023-01-05T00:00:00	2024-11-08T07:00:00	2	Temperatura media	12.9
21026	7	Sololá	701	Sololá	1	Sololá	5	Mayo	2023-01-05T00:00:00	2024-11-08T07:00:00	4	Temperatura máxima	13.3
21027	7	Sololá	701	Sololá	1	Sololá	5	Mayo	2023-01-05T00:00:00	2024-11-08T07:00:00	3	Temperatura mínima	12.9
21028	7	Sololá	701	Sololá	1	Sololá	5	Mayo	2023-01-05T00:00:00	2024-11-08T07:00:00	5	Humedad	85
21029	7	Sololá	701	Sololá	1	Sololá	5	Mayo	2023-01-05T00:00:00	2024-11-08T07:00:00	6	Velocidad del viento	0
21030	7	Sololá	701	Sololá	1	Sololá	5	Mayo	2023-01-05T00:00:00	2024-11-08T07:00:00	7	Dirección del viento	0
21031	7	Sololá	701	Sololá	1	Sololá	5	Mayo	2023-01-05T00:00:00	2024-11-08T07:00:00	1	Precipitación	0
21032	7	Sololá	701	Sololá	1	Sololá	5	Mayo	2023-01-05T00:00:00	2024-11-08T07:00:00	8	Radiación solar	1
21033	7	Sololá	701	Sololá	1	Sololá	5	Mayo	2023-01-05T00:00:00	2024-11-08T08:00:00	2	Temperatura media	14.2
21034	7	Sololá	701	Sololá	1	Sololá	5	Mayo	2023-01-05T00:00:00	2024-11-08T08:00:00	4	Temperatura máxima	14.2
21035	7	Sololá	701	Sololá	1	Sololá	5	Mayo	2023-01-05T00:00:00	2024-11-08T08:00:00	3	Temperatura mínima	12.9
21036	7	Sololá	701	Sololá	1	Sololá	5	Mayo	2023-01-05T00:00:00	2024-11-08T08:00:00	5	Humedad	84
21037	7	Sololá	701	Sololá	1	Sololá	5	Mayo	2023-01-05T00:00:00	2024-11-08T08:00:00	6	Velocidad del viento	0
21038	7	Sololá	701	Sololá	1	Sololá	5	Mayo	2023-01-05T00:00:00	2024-11-08T08:00:00	7	Dirección del viento	0
21039	7	Sololá	701	Sololá	1	Sololá	5	Mayo	2023-01-05T00:00:00	2024-11-08T08:00:00	1	Precipitación	0
21040	7	Sololá	701	Sololá	1	Sololá	5	Mayo	2023-01-05T00:00:00	2024-11-08T08:00:00	8	Radiación solar	30
21041	7	Sololá	701	Sololá	1	Sololá	5	Mayo	2023-01-05T00:00:00	2024-11-08T09:00:00	2	Temperatura media	16.9
21042	7	Sololá	701	Sololá	1	Sololá	5	Mayo	2023-01-05T00:00:00	2024-11-08T09:00:00	4	Temperatura máxima	16.9
21043	7	Sololá	701	Sololá	1	Sololá	5	Mayo	2023-01-05T00:00:00	2024-11-08T09:00:00	3	Temperatura mínima	14.2
21044	7	Sololá	701	Sololá	1	Sololá	5	Mayo	2023-01-05T00:00:00	2024-11-08T09:00:00	5	Humedad	76
21045	7	Sololá	701	Sololá	1	Sololá	5	Mayo	2023-01-05T00:00:00	2024-11-08T09:00:00	6	Velocidad del viento	0
21046	7	Sololá	701	Sololá	1	Sololá	5	Mayo	2023-01-05T00:00:00	2024-11-08T09:00:00	7	Dirección del viento	0
21047	7	Sololá	701	Sololá	1	Sololá	5	Mayo	2023-01-05T00:00:00	2024-11-08T09:00:00	1	Precipitación	0
21048	7	Sololá	701	Sololá	1	Sololá	5	Mayo	2023-01-05T00:00:00	2024-11-08T09:00:00	8	Radiación solar	123
21049	7	Sololá	701	Sololá	1	Sololá	5	Mayo	2023-01-05T00:00:00	2024-11-08T10:00:00	2	Temperatura media	20.1
21050	7	Sololá	701	Sololá	1	Sololá	5	Mayo	2023-01-05T00:00:00	2024-11-08T10:00:00	4	Temperatura máxima	20.1
21051	7	Sololá	701	Sololá	1	Sololá	5	Mayo	2023-01-05T00:00:00	2024-11-08T10:00:00	3	Temperatura mínima	17
21052	7	Sololá	701	Sololá	1	Sololá	5	Mayo	2023-01-05T00:00:00	2024-11-08T10:00:00	5	Humedad	68
21053	7	Sololá	701	Sololá	1	Sololá	5	Mayo	2023-01-05T00:00:00	2024-11-08T10:00:00	6	Velocidad del viento	0
21054	7	Sololá	701	Sololá	1	Sololá	5	Mayo	2023-01-05T00:00:00	2024-11-08T10:00:00	7	Dirección del viento	0
21055	7	Sololá	701	Sololá	1	Sololá	5	Mayo	2023-01-05T00:00:00	2024-11-08T10:00:00	1	Precipitación	0
21056	7	Sololá	701	Sololá	1	Sololá	5	Mayo	2023-01-05T00:00:00	2024-11-08T10:00:00	8	Radiación solar	555
21057	7	Sololá	701	Sololá	1	Sololá	5	Mayo	2023-01-05T00:00:00	2024-11-08T11:00:00	2	Temperatura media	21.2
21058	7	Sololá	701	Sololá	1	Sololá	5	Mayo	2023-01-05T00:00:00	2024-11-08T11:00:00	4	Temperatura máxima	21.2
21059	7	Sololá	701	Sololá	1	Sololá	5	Mayo	2023-01-05T00:00:00	2024-11-08T11:00:00	3	Temperatura mínima	20.1
21060	7	Sololá	701	Sololá	1	Sololá	5	Mayo	2023-01-05T00:00:00	2024-11-08T11:00:00	5	Humedad	66
21061	7	Sololá	701	Sololá	1	Sololá	5	Mayo	2023-01-05T00:00:00	2024-11-08T11:00:00	6	Velocidad del viento	0
21062	7	Sololá	701	Sololá	1	Sololá	5	Mayo	2023-01-05T00:00:00	2024-11-08T11:00:00	7	Dirección del viento	0
21063	7	Sololá	701	Sololá	1	Sololá	5	Mayo	2023-01-05T00:00:00	2024-11-08T11:00:00	1	Precipitación	0
21064	7	Sololá	701	Sololá	1	Sololá	5	Mayo	2023-01-05T00:00:00	2024-11-08T11:00:00	8	Radiación solar	784
21065	7	Sololá	701	Sololá	1	Sololá	5	Mayo	2023-01-05T00:00:00	2024-11-08T12:00:00	2	Temperatura media	22.1
21066	7	Sololá	701	Sololá	1	Sololá	5	Mayo	2023-01-05T00:00:00	2024-11-08T12:00:00	4	Temperatura máxima	22.1
21067	7	Sololá	701	Sololá	1	Sololá	5	Mayo	2023-01-05T00:00:00	2024-11-08T12:00:00	3	Temperatura mínima	21.2
21068	7	Sololá	701	Sololá	1	Sololá	5	Mayo	2023-01-05T00:00:00	2024-11-08T12:00:00	5	Humedad	64
21069	7	Sololá	701	Sololá	1	Sololá	5	Mayo	2023-01-05T00:00:00	2024-11-08T12:00:00	6	Velocidad del viento	0
21070	7	Sololá	701	Sololá	1	Sololá	5	Mayo	2023-01-05T00:00:00	2024-11-08T12:00:00	7	Dirección del viento	0
21071	7	Sololá	701	Sololá	1	Sololá	5	Mayo	2023-01-05T00:00:00	2024-11-08T12:00:00	1	Precipitación	0
21072	7	Sololá	701	Sololá	1	Sololá	5	Mayo	2023-01-05T00:00:00	2024-11-08T12:00:00	8	Radiación solar	884
21073	7	Sololá	701	Sololá	1	Sololá	5	Mayo	2023-01-05T00:00:00	2024-11-08T13:00:00	2	Temperatura media	22.8
21074	7	Sololá	701	Sololá	1	Sololá	5	Mayo	2023-01-05T00:00:00	2024-11-08T13:00:00	4	Temperatura máxima	22.8
21075	7	Sololá	701	Sololá	1	Sololá	5	Mayo	2023-01-05T00:00:00	2024-11-08T13:00:00	3	Temperatura mínima	22
21076	7	Sololá	701	Sololá	1	Sololá	5	Mayo	2023-01-05T00:00:00	2024-11-08T13:00:00	5	Humedad	67
21077	7	Sololá	701	Sololá	1	Sololá	5	Mayo	2023-01-05T00:00:00	2024-11-08T13:00:00	6	Velocidad del viento	0
21078	7	Sololá	701	Sololá	1	Sololá	5	Mayo	2023-01-05T00:00:00	2024-11-08T13:00:00	7	Dirección del viento	0
21079	7	Sololá	701	Sololá	1	Sololá	5	Mayo	2023-01-05T00:00:00	2024-11-08T13:00:00	1	Precipitación	0
21080	7	Sololá	701	Sololá	1	Sololá	5	Mayo	2023-01-05T00:00:00	2024-11-08T13:00:00	8	Radiación solar	953
21081	7	Sololá	701	Sololá	1	Sololá	5	Mayo	2023-01-05T00:00:00	2024-11-08T14:00:00	2	Temperatura media	22.4
21082	7	Sololá	701	Sololá	1	Sololá	5	Mayo	2023-01-05T00:00:00	2024-11-08T14:00:00	4	Temperatura máxima	22.9
21083	7	Sololá	701	Sololá	1	Sololá	5	Mayo	2023-01-05T00:00:00	2024-11-08T14:00:00	3	Temperatura mínima	22.3
21084	7	Sololá	701	Sololá	1	Sololá	5	Mayo	2023-01-05T00:00:00	2024-11-08T14:00:00	5	Humedad	74
21085	7	Sololá	701	Sololá	1	Sololá	5	Mayo	2023-01-05T00:00:00	2024-11-08T14:00:00	6	Velocidad del viento	0
21086	7	Sololá	701	Sololá	1	Sololá	5	Mayo	2023-01-05T00:00:00	2024-11-08T14:00:00	7	Dirección del viento	0
21087	7	Sololá	701	Sololá	1	Sololá	5	Mayo	2023-01-05T00:00:00	2024-11-08T14:00:00	1	Precipitación	0
21088	7	Sololá	701	Sololá	1	Sololá	5	Mayo	2023-01-05T00:00:00	2024-11-08T14:00:00	8	Radiación solar	610
21089	7	Sololá	701	Sololá	1	Sololá	5	Mayo	2023-01-05T00:00:00	2024-11-08T15:00:00	2	Temperatura media	22
21090	7	Sololá	701	Sololá	1	Sololá	5	Mayo	2023-01-05T00:00:00	2024-11-08T15:00:00	4	Temperatura máxima	22.4
21091	7	Sololá	701	Sololá	1	Sololá	5	Mayo	2023-01-05T00:00:00	2024-11-08T15:00:00	3	Temperatura mínima	21.8
21092	7	Sololá	701	Sololá	1	Sololá	5	Mayo	2023-01-05T00:00:00	2024-11-08T15:00:00	5	Humedad	77
21093	7	Sololá	701	Sololá	1	Sololá	5	Mayo	2023-01-05T00:00:00	2024-11-08T15:00:00	6	Velocidad del viento	1.6
21094	7	Sololá	701	Sololá	1	Sololá	5	Mayo	2023-01-05T00:00:00	2024-11-08T15:00:00	7	Dirección del viento	1.61
21095	7	Sololá	701	Sololá	1	Sololá	5	Mayo	2023-01-05T00:00:00	2024-11-08T15:00:00	1	Precipitación	0
21096	7	Sololá	701	Sololá	1	Sololá	5	Mayo	2023-01-05T00:00:00	2024-11-08T15:00:00	8	Radiación solar	268
21097	7	Sololá	701	Sololá	1	Sololá	5	Mayo	2023-01-05T00:00:00	2024-11-08T16:00:00	2	Temperatura media	19.8
21098	7	Sololá	701	Sololá	1	Sololá	5	Mayo	2023-01-05T00:00:00	2024-11-08T16:00:00	4	Temperatura máxima	22
21099	7	Sololá	701	Sololá	1	Sololá	5	Mayo	2023-01-05T00:00:00	2024-11-08T16:00:00	3	Temperatura mínima	19.8
21100	7	Sololá	701	Sololá	1	Sololá	5	Mayo	2023-01-05T00:00:00	2024-11-08T16:00:00	5	Humedad	84
21101	7	Sololá	701	Sololá	1	Sololá	5	Mayo	2023-01-05T00:00:00	2024-11-08T16:00:00	6	Velocidad del viento	0
21102	7	Sololá	701	Sololá	1	Sololá	5	Mayo	2023-01-05T00:00:00	2024-11-08T16:00:00	7	Dirección del viento	0
21103	7	Sololá	701	Sololá	1	Sololá	5	Mayo	2023-01-05T00:00:00	2024-11-08T16:00:00	1	Precipitación	12
21104	7	Sololá	701	Sololá	1	Sololá	5	Mayo	2023-01-05T00:00:00	2024-11-08T16:00:00	8	Radiación solar	221
21105	7	Sololá	701	Sololá	1	Sololá	5	Mayo	2023-01-05T00:00:00	2024-11-08T17:00:00	2	Temperatura media	18.6
21106	7	Sololá	701	Sololá	1	Sololá	5	Mayo	2023-01-05T00:00:00	2024-11-08T17:00:00	4	Temperatura máxima	19.8
21107	7	Sololá	701	Sololá	1	Sololá	5	Mayo	2023-01-05T00:00:00	2024-11-08T17:00:00	3	Temperatura mínima	18.6
21108	7	Sololá	701	Sololá	1	Sololá	5	Mayo	2023-01-05T00:00:00	2024-11-08T17:00:00	5	Humedad	89
21109	7	Sololá	701	Sololá	1	Sololá	5	Mayo	2023-01-05T00:00:00	2024-11-08T17:00:00	6	Velocidad del viento	0
21110	7	Sololá	701	Sololá	1	Sololá	5	Mayo	2023-01-05T00:00:00	2024-11-08T17:00:00	7	Dirección del viento	0
21111	7	Sololá	701	Sololá	1	Sololá	5	Mayo	2023-01-05T00:00:00	2024-11-08T17:00:00	1	Precipitación	9
21112	7	Sololá	701	Sololá	1	Sololá	5	Mayo	2023-01-05T00:00:00	2024-11-08T17:00:00	8	Radiación solar	131
21113	7	Sololá	701	Sololá	1	Sololá	5	Mayo	2023-01-05T00:00:00	2024-11-08T18:00:00	2	Temperatura media	17.9
21114	7	Sololá	701	Sololá	1	Sololá	5	Mayo	2023-01-05T00:00:00	2024-11-08T18:00:00	4	Temperatura máxima	18.6
21115	7	Sololá	701	Sololá	1	Sololá	5	Mayo	2023-01-05T00:00:00	2024-11-08T18:00:00	3	Temperatura mínima	17.8
21116	7	Sololá	701	Sololá	1	Sololá	5	Mayo	2023-01-05T00:00:00	2024-11-08T18:00:00	5	Humedad	91
21117	7	Sololá	701	Sololá	1	Sololá	5	Mayo	2023-01-05T00:00:00	2024-11-08T18:00:00	6	Velocidad del viento	0
21118	7	Sololá	701	Sololá	1	Sololá	5	Mayo	2023-01-05T00:00:00	2024-11-08T18:00:00	7	Dirección del viento	0
21119	7	Sololá	701	Sololá	1	Sololá	5	Mayo	2023-01-05T00:00:00	2024-11-08T18:00:00	1	Precipitación	0
21120	7	Sololá	701	Sololá	1	Sololá	5	Mayo	2023-01-05T00:00:00	2024-11-08T18:00:00	8	Radiación solar	85
21121	7	Sololá	701	Sololá	1	Sololá	5	Mayo	2023-01-05T00:00:00	2024-11-08T19:00:00	2	Temperatura media	17.5
21122	7	Sololá	701	Sololá	1	Sololá	5	Mayo	2023-01-05T00:00:00	2024-11-08T19:00:00	4	Temperatura máxima	17.9
21123	7	Sololá	701	Sololá	1	Sololá	5	Mayo	2023-01-05T00:00:00	2024-11-08T19:00:00	3	Temperatura mínima	17.4
21124	7	Sololá	701	Sololá	1	Sololá	5	Mayo	2023-01-05T00:00:00	2024-11-08T19:00:00	5	Humedad	94
21125	7	Sololá	701	Sololá	1	Sololá	5	Mayo	2023-01-05T00:00:00	2024-11-08T19:00:00	6	Velocidad del viento	0
21126	7	Sololá	701	Sololá	1	Sololá	5	Mayo	2023-01-05T00:00:00	2024-11-08T19:00:00	7	Dirección del viento	0
21127	7	Sololá	701	Sololá	1	Sololá	5	Mayo	2023-01-05T00:00:00	2024-11-08T19:00:00	1	Precipitación	0
21128	7	Sololá	701	Sololá	1	Sololá	5	Mayo	2023-01-05T00:00:00	2024-11-08T19:00:00	8	Radiación solar	0
21129	7	Sololá	701	Sololá	1	Sololá	5	Mayo	2023-01-05T00:00:00	2024-11-08T20:00:00	2	Temperatura media	16.8
21130	7	Sololá	701	Sololá	1	Sololá	5	Mayo	2023-01-05T00:00:00	2024-11-08T20:00:00	4	Temperatura máxima	17.5
21131	7	Sololá	701	Sololá	1	Sololá	5	Mayo	2023-01-05T00:00:00	2024-11-08T20:00:00	3	Temperatura mínima	16.8
21132	7	Sololá	701	Sololá	1	Sololá	5	Mayo	2023-01-05T00:00:00	2024-11-08T20:00:00	5	Humedad	95
21133	7	Sololá	701	Sololá	1	Sololá	5	Mayo	2023-01-05T00:00:00	2024-11-08T20:00:00	6	Velocidad del viento	0
21134	7	Sololá	701	Sololá	1	Sololá	5	Mayo	2023-01-05T00:00:00	2024-11-08T20:00:00	7	Dirección del viento	0
21135	7	Sololá	701	Sololá	1	Sololá	5	Mayo	2023-01-05T00:00:00	2024-11-08T20:00:00	1	Precipitación	0
21136	7	Sololá	701	Sololá	1	Sololá	5	Mayo	2023-01-05T00:00:00	2024-11-08T20:00:00	8	Radiación solar	0
21137	7	Sololá	701	Sololá	1	Sololá	5	Mayo	2023-01-05T00:00:00	2024-11-08T21:00:00	2	Temperatura media	16.7
21138	7	Sololá	701	Sololá	1	Sololá	5	Mayo	2023-01-05T00:00:00	2024-11-08T21:00:00	4	Temperatura máxima	16.8
21139	7	Sololá	701	Sololá	1	Sololá	5	Mayo	2023-01-05T00:00:00	2024-11-08T21:00:00	3	Temperatura mínima	16.6
21140	7	Sololá	701	Sololá	1	Sololá	5	Mayo	2023-01-05T00:00:00	2024-11-08T21:00:00	5	Humedad	96
21141	7	Sololá	701	Sololá	1	Sololá	5	Mayo	2023-01-05T00:00:00	2024-11-08T21:00:00	6	Velocidad del viento	0
21142	7	Sololá	701	Sololá	1	Sololá	5	Mayo	2023-01-05T00:00:00	2024-11-08T21:00:00	7	Dirección del viento	0
21143	7	Sololá	701	Sololá	1	Sololá	5	Mayo	2023-01-05T00:00:00	2024-11-08T21:00:00	1	Precipitación	0
21144	7	Sololá	701	Sololá	1	Sololá	5	Mayo	2023-01-05T00:00:00	2024-11-08T21:00:00	8	Radiación solar	0
21145	7	Sololá	701	Sololá	1	Sololá	5	Mayo	2023-01-05T00:00:00	2024-11-08T22:00:00	2	Temperatura media	15.9
21146	7	Sololá	701	Sololá	1	Sololá	5	Mayo	2023-01-05T00:00:00	2024-11-08T22:00:00	4	Temperatura máxima	16.8
21147	7	Sololá	701	Sololá	1	Sololá	5	Mayo	2023-01-05T00:00:00	2024-11-08T22:00:00	3	Temperatura mínima	15.9
21148	7	Sololá	701	Sololá	1	Sololá	5	Mayo	2023-01-05T00:00:00	2024-11-08T22:00:00	5	Humedad	91
21149	7	Sololá	701	Sololá	1	Sololá	5	Mayo	2023-01-05T00:00:00	2024-11-08T22:00:00	6	Velocidad del viento	0
21150	7	Sololá	701	Sololá	1	Sololá	5	Mayo	2023-01-05T00:00:00	2024-11-08T22:00:00	7	Dirección del viento	0
21151	7	Sololá	701	Sololá	1	Sololá	5	Mayo	2023-01-05T00:00:00	2024-11-08T22:00:00	1	Precipitación	0.6
21152	7	Sololá	701	Sololá	1	Sololá	5	Mayo	2023-01-05T00:00:00	2024-11-08T22:00:00	8	Radiación solar	0
21153	7	Sololá	701	Sololá	1	Sololá	5	Mayo	2023-01-05T00:00:00	2024-11-08T23:00:00	2	Temperatura media	14.6
21154	7	Sololá	701	Sololá	1	Sololá	5	Mayo	2023-01-05T00:00:00	2024-11-08T23:00:00	4	Temperatura máxima	15.9
21155	7	Sololá	701	Sololá	1	Sololá	5	Mayo	2023-01-05T00:00:00	2024-11-08T23:00:00	3	Temperatura mínima	14.6
21156	7	Sololá	701	Sololá	1	Sololá	5	Mayo	2023-01-05T00:00:00	2024-11-08T23:00:00	5	Humedad	93
21157	7	Sololá	701	Sololá	1	Sololá	5	Mayo	2023-01-05T00:00:00	2024-11-08T23:00:00	6	Velocidad del viento	0
21158	7	Sololá	701	Sololá	1	Sololá	5	Mayo	2023-01-05T00:00:00	2024-11-08T23:00:00	7	Dirección del viento	0
21159	7	Sololá	701	Sololá	1	Sololá	5	Mayo	2023-01-05T00:00:00	2024-11-08T23:00:00	1	Precipitación	0.2
21160	7	Sololá	701	Sololá	1	Sololá	5	Mayo	2023-01-05T00:00:00	2024-11-08T23:00:00	8	Radiación solar	0
21161	7	Sololá	701	Sololá	1	Sololá	5	Mayo	2023-02-05T00:00:00	2024-11-08T00:00:00	2	Temperatura media	13.7
21162	7	Sololá	701	Sololá	1	Sololá	5	Mayo	2023-02-05T00:00:00	2024-11-08T00:00:00	4	Temperatura máxima	14.6
21163	7	Sololá	701	Sololá	1	Sololá	5	Mayo	2023-02-05T00:00:00	2024-11-08T00:00:00	3	Temperatura mínima	13.6
21164	7	Sololá	701	Sololá	1	Sololá	5	Mayo	2023-02-05T00:00:00	2024-11-08T00:00:00	5	Humedad	91
21165	7	Sololá	701	Sololá	1	Sololá	5	Mayo	2023-02-05T00:00:00	2024-11-08T00:00:00	6	Velocidad del viento	0
21166	7	Sololá	701	Sololá	1	Sololá	5	Mayo	2023-02-05T00:00:00	2024-11-08T00:00:00	7	Dirección del viento	0
21167	7	Sololá	701	Sololá	1	Sololá	5	Mayo	2023-02-05T00:00:00	2024-11-08T00:00:00	1	Precipitación	0
21168	7	Sololá	701	Sololá	1	Sololá	5	Mayo	2023-02-05T00:00:00	2024-11-08T00:00:00	8	Radiación solar	0
21169	7	Sololá	701	Sololá	1	Sololá	5	Mayo	2023-02-05T00:00:00	2024-11-08T01:00:00	2	Temperatura media	13.3
21170	7	Sololá	701	Sololá	1	Sololá	5	Mayo	2023-02-05T00:00:00	2024-11-08T01:00:00	4	Temperatura máxima	13.7
21171	7	Sololá	701	Sololá	1	Sololá	5	Mayo	2023-02-05T00:00:00	2024-11-08T01:00:00	3	Temperatura mínima	13.3
21172	7	Sololá	701	Sololá	1	Sololá	5	Mayo	2023-02-05T00:00:00	2024-11-08T01:00:00	5	Humedad	92
21173	7	Sololá	701	Sololá	1	Sololá	5	Mayo	2023-02-05T00:00:00	2024-11-08T01:00:00	6	Velocidad del viento	0
21174	7	Sololá	701	Sololá	1	Sololá	5	Mayo	2023-02-05T00:00:00	2024-11-08T01:00:00	7	Dirección del viento	0
21175	7	Sololá	701	Sololá	1	Sololá	5	Mayo	2023-02-05T00:00:00	2024-11-08T01:00:00	1	Precipitación	0
21176	7	Sololá	701	Sololá	1	Sololá	5	Mayo	2023-02-05T00:00:00	2024-11-08T01:00:00	8	Radiación solar	0
21177	7	Sololá	701	Sololá	1	Sololá	5	Mayo	2023-02-05T00:00:00	2024-11-08T02:00:00	2	Temperatura media	13.7
21178	7	Sololá	701	Sololá	1	Sololá	5	Mayo	2023-02-05T00:00:00	2024-11-08T02:00:00	4	Temperatura máxima	13.7
21179	7	Sololá	701	Sololá	1	Sololá	5	Mayo	2023-02-05T00:00:00	2024-11-08T02:00:00	3	Temperatura mínima	13.3
21180	7	Sololá	701	Sololá	1	Sololá	5	Mayo	2023-02-05T00:00:00	2024-11-08T02:00:00	5	Humedad	92
21181	7	Sololá	701	Sololá	1	Sololá	5	Mayo	2023-02-05T00:00:00	2024-11-08T02:00:00	6	Velocidad del viento	0
21182	7	Sololá	701	Sololá	1	Sololá	5	Mayo	2023-02-05T00:00:00	2024-11-08T02:00:00	7	Dirección del viento	0
21183	7	Sololá	701	Sololá	1	Sololá	5	Mayo	2023-02-05T00:00:00	2024-11-08T02:00:00	1	Precipitación	0
21184	7	Sololá	701	Sololá	1	Sololá	5	Mayo	2023-02-05T00:00:00	2024-11-08T02:00:00	8	Radiación solar	0
21185	7	Sololá	701	Sololá	1	Sololá	5	Mayo	2023-02-05T00:00:00	2024-11-08T03:00:00	2	Temperatura media	13.8
21186	7	Sololá	701	Sololá	1	Sololá	5	Mayo	2023-02-05T00:00:00	2024-11-08T03:00:00	4	Temperatura máxima	14.1
21187	7	Sololá	701	Sololá	1	Sololá	5	Mayo	2023-02-05T00:00:00	2024-11-08T03:00:00	3	Temperatura mínima	13.6
21188	7	Sololá	701	Sololá	1	Sololá	5	Mayo	2023-02-05T00:00:00	2024-11-08T03:00:00	5	Humedad	92
21189	7	Sololá	701	Sololá	1	Sololá	5	Mayo	2023-02-05T00:00:00	2024-11-08T03:00:00	6	Velocidad del viento	0
21190	7	Sololá	701	Sololá	1	Sololá	5	Mayo	2023-02-05T00:00:00	2024-11-08T03:00:00	7	Dirección del viento	0
21191	7	Sololá	701	Sololá	1	Sololá	5	Mayo	2023-02-05T00:00:00	2024-11-08T03:00:00	1	Precipitación	0
21192	7	Sololá	701	Sololá	1	Sololá	5	Mayo	2023-02-05T00:00:00	2024-11-08T03:00:00	8	Radiación solar	0
21193	7	Sololá	701	Sololá	1	Sololá	5	Mayo	2023-02-05T00:00:00	2024-11-08T04:00:00	2	Temperatura media	13.7
21194	7	Sololá	701	Sololá	1	Sololá	5	Mayo	2023-02-05T00:00:00	2024-11-08T04:00:00	4	Temperatura máxima	13.9
21195	7	Sololá	701	Sololá	1	Sololá	5	Mayo	2023-02-05T00:00:00	2024-11-08T04:00:00	3	Temperatura mínima	13.6
21196	7	Sololá	701	Sololá	1	Sololá	5	Mayo	2023-02-05T00:00:00	2024-11-08T04:00:00	5	Humedad	93
21197	7	Sololá	701	Sololá	1	Sololá	5	Mayo	2023-02-05T00:00:00	2024-11-08T04:00:00	6	Velocidad del viento	0
21198	7	Sololá	701	Sololá	1	Sololá	5	Mayo	2023-02-05T00:00:00	2024-11-08T04:00:00	7	Dirección del viento	0
21199	7	Sololá	701	Sololá	1	Sololá	5	Mayo	2023-02-05T00:00:00	2024-11-08T04:00:00	1	Precipitación	0
21200	7	Sololá	701	Sololá	1	Sololá	5	Mayo	2023-02-05T00:00:00	2024-11-08T04:00:00	8	Radiación solar	0
21201	7	Sololá	701	Sololá	1	Sololá	5	Mayo	2023-02-05T00:00:00	2024-11-08T05:00:00	2	Temperatura media	13.9
21202	7	Sololá	701	Sololá	1	Sololá	5	Mayo	2023-02-05T00:00:00	2024-11-08T05:00:00	4	Temperatura máxima	13.9
21203	7	Sololá	701	Sololá	1	Sololá	5	Mayo	2023-02-05T00:00:00	2024-11-08T05:00:00	3	Temperatura mínima	13.7
21204	7	Sololá	701	Sololá	1	Sololá	5	Mayo	2023-02-05T00:00:00	2024-11-08T05:00:00	5	Humedad	91
21205	7	Sololá	701	Sololá	1	Sololá	5	Mayo	2023-02-05T00:00:00	2024-11-08T05:00:00	6	Velocidad del viento	0
21206	7	Sololá	701	Sololá	1	Sololá	5	Mayo	2023-02-05T00:00:00	2024-11-08T05:00:00	7	Dirección del viento	0
21207	7	Sololá	701	Sololá	1	Sololá	5	Mayo	2023-02-05T00:00:00	2024-11-08T05:00:00	1	Precipitación	0
21208	7	Sololá	701	Sololá	1	Sololá	5	Mayo	2023-02-05T00:00:00	2024-11-08T05:00:00	8	Radiación solar	0
21209	7	Sololá	701	Sololá	1	Sololá	5	Mayo	2023-02-05T00:00:00	2024-11-08T06:00:00	2	Temperatura media	13.3
21210	7	Sololá	701	Sololá	1	Sololá	5	Mayo	2023-02-05T00:00:00	2024-11-08T06:00:00	4	Temperatura máxima	13.9
21211	7	Sololá	701	Sololá	1	Sololá	5	Mayo	2023-02-05T00:00:00	2024-11-08T06:00:00	3	Temperatura mínima	13.3
21212	7	Sololá	701	Sololá	1	Sololá	5	Mayo	2023-02-05T00:00:00	2024-11-08T06:00:00	5	Humedad	91
21213	7	Sololá	701	Sololá	1	Sololá	5	Mayo	2023-02-05T00:00:00	2024-11-08T06:00:00	6	Velocidad del viento	0
21214	7	Sololá	701	Sololá	1	Sololá	5	Mayo	2023-02-05T00:00:00	2024-11-08T06:00:00	7	Dirección del viento	0
21215	7	Sololá	701	Sololá	1	Sololá	5	Mayo	2023-02-05T00:00:00	2024-11-08T06:00:00	1	Precipitación	0
21216	7	Sololá	701	Sololá	1	Sololá	5	Mayo	2023-02-05T00:00:00	2024-11-08T06:00:00	8	Radiación solar	0
21217	7	Sololá	701	Sololá	1	Sololá	5	Mayo	2023-02-05T00:00:00	2024-11-08T07:00:00	2	Temperatura media	13.1
21218	7	Sololá	701	Sololá	1	Sololá	5	Mayo	2023-02-05T00:00:00	2024-11-08T07:00:00	4	Temperatura máxima	13.3
21219	7	Sololá	701	Sololá	1	Sololá	5	Mayo	2023-02-05T00:00:00	2024-11-08T07:00:00	3	Temperatura mínima	13
21220	7	Sololá	701	Sololá	1	Sololá	5	Mayo	2023-02-05T00:00:00	2024-11-08T07:00:00	5	Humedad	91
21221	7	Sololá	701	Sololá	1	Sololá	5	Mayo	2023-02-05T00:00:00	2024-11-08T07:00:00	6	Velocidad del viento	0
21222	7	Sololá	701	Sololá	1	Sololá	5	Mayo	2023-02-05T00:00:00	2024-11-08T07:00:00	7	Dirección del viento	0
21223	7	Sololá	701	Sololá	1	Sololá	5	Mayo	2023-02-05T00:00:00	2024-11-08T07:00:00	1	Precipitación	0
21224	7	Sololá	701	Sololá	1	Sololá	5	Mayo	2023-02-05T00:00:00	2024-11-08T07:00:00	8	Radiación solar	2
21225	7	Sololá	701	Sololá	1	Sololá	5	Mayo	2023-02-05T00:00:00	2024-11-08T08:00:00	2	Temperatura media	13.9
21226	7	Sololá	701	Sololá	1	Sololá	5	Mayo	2023-02-05T00:00:00	2024-11-08T08:00:00	4	Temperatura máxima	13.9
21227	7	Sololá	701	Sololá	1	Sololá	5	Mayo	2023-02-05T00:00:00	2024-11-08T08:00:00	3	Temperatura mínima	12.9
21228	7	Sololá	701	Sololá	1	Sololá	5	Mayo	2023-02-05T00:00:00	2024-11-08T08:00:00	5	Humedad	92
21229	7	Sololá	701	Sololá	1	Sololá	5	Mayo	2023-02-05T00:00:00	2024-11-08T08:00:00	6	Velocidad del viento	0
21230	7	Sololá	701	Sololá	1	Sololá	5	Mayo	2023-02-05T00:00:00	2024-11-08T08:00:00	7	Dirección del viento	0
21231	7	Sololá	701	Sololá	1	Sololá	5	Mayo	2023-02-05T00:00:00	2024-11-08T08:00:00	1	Precipitación	0
21232	7	Sololá	701	Sololá	1	Sololá	5	Mayo	2023-02-05T00:00:00	2024-11-08T08:00:00	8	Radiación solar	48
21233	7	Sololá	701	Sololá	1	Sololá	5	Mayo	2023-02-05T00:00:00	2024-11-08T09:00:00	2	Temperatura media	16.6
21234	7	Sololá	701	Sololá	1	Sololá	5	Mayo	2023-02-05T00:00:00	2024-11-08T09:00:00	4	Temperatura máxima	16.6
21235	7	Sololá	701	Sololá	1	Sololá	5	Mayo	2023-02-05T00:00:00	2024-11-08T09:00:00	3	Temperatura mínima	13.8
21236	7	Sololá	701	Sololá	1	Sololá	5	Mayo	2023-02-05T00:00:00	2024-11-08T09:00:00	5	Humedad	83
21237	7	Sololá	701	Sololá	1	Sololá	5	Mayo	2023-02-05T00:00:00	2024-11-08T09:00:00	6	Velocidad del viento	0
21238	7	Sololá	701	Sololá	1	Sololá	5	Mayo	2023-02-05T00:00:00	2024-11-08T09:00:00	7	Dirección del viento	0
21239	7	Sololá	701	Sololá	1	Sololá	5	Mayo	2023-02-05T00:00:00	2024-11-08T09:00:00	1	Precipitación	0
21240	7	Sololá	701	Sololá	1	Sololá	5	Mayo	2023-02-05T00:00:00	2024-11-08T09:00:00	8	Radiación solar	137
21241	7	Sololá	701	Sololá	1	Sololá	5	Mayo	2023-02-05T00:00:00	2024-11-08T10:00:00	2	Temperatura media	17.8
21242	7	Sololá	701	Sololá	1	Sololá	5	Mayo	2023-02-05T00:00:00	2024-11-08T10:00:00	4	Temperatura máxima	17.8
21243	7	Sololá	701	Sololá	1	Sololá	5	Mayo	2023-02-05T00:00:00	2024-11-08T10:00:00	3	Temperatura mínima	16.6
21244	7	Sololá	701	Sololá	1	Sololá	5	Mayo	2023-02-05T00:00:00	2024-11-08T10:00:00	5	Humedad	83
21245	7	Sololá	701	Sololá	1	Sololá	5	Mayo	2023-02-05T00:00:00	2024-11-08T10:00:00	6	Velocidad del viento	0
21246	7	Sololá	701	Sololá	1	Sololá	5	Mayo	2023-02-05T00:00:00	2024-11-08T10:00:00	7	Dirección del viento	0
21247	7	Sololá	701	Sololá	1	Sololá	5	Mayo	2023-02-05T00:00:00	2024-11-08T10:00:00	1	Precipitación	0
21248	7	Sololá	701	Sololá	1	Sololá	5	Mayo	2023-02-05T00:00:00	2024-11-08T10:00:00	8	Radiación solar	173
21249	7	Sololá	701	Sololá	1	Sololá	5	Mayo	2023-02-05T00:00:00	2024-11-08T11:00:00	2	Temperatura media	20.2
21250	7	Sololá	701	Sololá	1	Sololá	5	Mayo	2023-02-05T00:00:00	2024-11-08T11:00:00	4	Temperatura máxima	20.2
21251	7	Sololá	701	Sololá	1	Sololá	5	Mayo	2023-02-05T00:00:00	2024-11-08T11:00:00	3	Temperatura mínima	17.8
21252	7	Sololá	701	Sololá	1	Sololá	5	Mayo	2023-02-05T00:00:00	2024-11-08T11:00:00	5	Humedad	77
21253	7	Sololá	701	Sololá	1	Sololá	5	Mayo	2023-02-05T00:00:00	2024-11-08T11:00:00	6	Velocidad del viento	0
21254	7	Sololá	701	Sololá	1	Sololá	5	Mayo	2023-02-05T00:00:00	2024-11-08T11:00:00	7	Dirección del viento	0
21255	7	Sololá	701	Sololá	1	Sololá	5	Mayo	2023-02-05T00:00:00	2024-11-08T11:00:00	1	Precipitación	0
21256	7	Sololá	701	Sololá	1	Sololá	5	Mayo	2023-02-05T00:00:00	2024-11-08T11:00:00	8	Radiación solar	632
21257	7	Sololá	701	Sololá	1	Sololá	5	Mayo	2023-02-05T00:00:00	2024-11-08T12:00:00	2	Temperatura media	21.1
21258	7	Sololá	701	Sololá	1	Sololá	5	Mayo	2023-02-05T00:00:00	2024-11-08T12:00:00	4	Temperatura máxima	21.3
21259	7	Sololá	701	Sololá	1	Sololá	5	Mayo	2023-02-05T00:00:00	2024-11-08T12:00:00	3	Temperatura mínima	20.2
21260	7	Sololá	701	Sololá	1	Sololá	5	Mayo	2023-02-05T00:00:00	2024-11-08T12:00:00	5	Humedad	76
21261	7	Sololá	701	Sololá	1	Sololá	5	Mayo	2023-02-05T00:00:00	2024-11-08T12:00:00	6	Velocidad del viento	0
21262	7	Sololá	701	Sololá	1	Sololá	5	Mayo	2023-02-05T00:00:00	2024-11-08T12:00:00	7	Dirección del viento	0
21263	7	Sololá	701	Sololá	1	Sololá	5	Mayo	2023-02-05T00:00:00	2024-11-08T12:00:00	1	Precipitación	0
21264	7	Sololá	701	Sololá	1	Sololá	5	Mayo	2023-02-05T00:00:00	2024-11-08T12:00:00	8	Radiación solar	818
21265	7	Sololá	701	Sololá	1	Sololá	5	Mayo	2023-02-05T00:00:00	2024-11-08T13:00:00	2	Temperatura media	19.3
21266	7	Sololá	701	Sololá	1	Sololá	5	Mayo	2023-02-05T00:00:00	2024-11-08T13:00:00	4	Temperatura máxima	21.2
21267	7	Sololá	701	Sololá	1	Sololá	5	Mayo	2023-02-05T00:00:00	2024-11-08T13:00:00	3	Temperatura mínima	19.3
21268	7	Sololá	701	Sololá	1	Sololá	5	Mayo	2023-02-05T00:00:00	2024-11-08T13:00:00	5	Humedad	82
21269	7	Sololá	701	Sololá	1	Sololá	5	Mayo	2023-02-05T00:00:00	2024-11-08T13:00:00	6	Velocidad del viento	0
21270	7	Sololá	701	Sololá	1	Sololá	5	Mayo	2023-02-05T00:00:00	2024-11-08T13:00:00	7	Dirección del viento	0
21271	7	Sololá	701	Sololá	1	Sololá	5	Mayo	2023-02-05T00:00:00	2024-11-08T13:00:00	1	Precipitación	0
21272	7	Sololá	701	Sololá	1	Sololá	5	Mayo	2023-02-05T00:00:00	2024-11-08T13:00:00	8	Radiación solar	248
21273	7	Sololá	701	Sololá	1	Sololá	5	Mayo	2023-02-05T00:00:00	2024-11-08T14:00:00	2	Temperatura media	20.8
21274	7	Sololá	701	Sololá	1	Sololá	5	Mayo	2023-02-05T00:00:00	2024-11-08T14:00:00	4	Temperatura máxima	20.8
21275	7	Sololá	701	Sololá	1	Sololá	5	Mayo	2023-02-05T00:00:00	2024-11-08T14:00:00	3	Temperatura mínima	19.3
21276	7	Sololá	701	Sololá	1	Sololá	5	Mayo	2023-02-05T00:00:00	2024-11-08T14:00:00	5	Humedad	79
21277	7	Sololá	701	Sololá	1	Sololá	5	Mayo	2023-02-05T00:00:00	2024-11-08T14:00:00	6	Velocidad del viento	0
21278	7	Sololá	701	Sololá	1	Sololá	5	Mayo	2023-02-05T00:00:00	2024-11-08T14:00:00	7	Dirección del viento	0
21279	7	Sololá	701	Sololá	1	Sololá	5	Mayo	2023-02-05T00:00:00	2024-11-08T14:00:00	1	Precipitación	0
21280	7	Sololá	701	Sololá	1	Sololá	5	Mayo	2023-02-05T00:00:00	2024-11-08T14:00:00	8	Radiación solar	314
21281	7	Sololá	701	Sololá	1	Sololá	5	Mayo	2023-02-05T00:00:00	2024-11-08T15:00:00	2	Temperatura media	20.8
21282	7	Sololá	701	Sololá	1	Sololá	5	Mayo	2023-02-05T00:00:00	2024-11-08T15:00:00	4	Temperatura máxima	21.6
21283	7	Sololá	701	Sololá	1	Sololá	5	Mayo	2023-02-05T00:00:00	2024-11-08T15:00:00	3	Temperatura mínima	20.8
21284	7	Sololá	701	Sololá	1	Sololá	5	Mayo	2023-02-05T00:00:00	2024-11-08T15:00:00	5	Humedad	80
21285	7	Sololá	701	Sololá	1	Sololá	5	Mayo	2023-02-05T00:00:00	2024-11-08T15:00:00	6	Velocidad del viento	0
21286	7	Sololá	701	Sololá	1	Sololá	5	Mayo	2023-02-05T00:00:00	2024-11-08T15:00:00	7	Dirección del viento	0
21287	7	Sololá	701	Sololá	1	Sololá	5	Mayo	2023-02-05T00:00:00	2024-11-08T15:00:00	1	Precipitación	0
21288	7	Sololá	701	Sololá	1	Sololá	5	Mayo	2023-02-05T00:00:00	2024-11-08T15:00:00	8	Radiación solar	264
21289	7	Sololá	701	Sololá	1	Sololá	5	Mayo	2023-02-05T00:00:00	2024-11-08T16:00:00	2	Temperatura media	18.7
21290	7	Sololá	701	Sololá	1	Sololá	5	Mayo	2023-02-05T00:00:00	2024-11-08T16:00:00	4	Temperatura máxima	20.9
21291	7	Sololá	701	Sololá	1	Sololá	5	Mayo	2023-02-05T00:00:00	2024-11-08T16:00:00	3	Temperatura mínima	18.7
21292	7	Sololá	701	Sololá	1	Sololá	5	Mayo	2023-02-05T00:00:00	2024-11-08T16:00:00	5	Humedad	88
21293	7	Sololá	701	Sololá	1	Sololá	5	Mayo	2023-02-05T00:00:00	2024-11-08T16:00:00	6	Velocidad del viento	0
21294	7	Sololá	701	Sololá	1	Sololá	5	Mayo	2023-02-05T00:00:00	2024-11-08T16:00:00	7	Dirección del viento	0
21295	7	Sololá	701	Sololá	1	Sololá	5	Mayo	2023-02-05T00:00:00	2024-11-08T16:00:00	1	Precipitación	0
21296	7	Sololá	701	Sololá	1	Sololá	5	Mayo	2023-02-05T00:00:00	2024-11-08T16:00:00	8	Radiación solar	144
21297	7	Sololá	701	Sololá	1	Sololá	5	Mayo	2023-02-05T00:00:00	2024-11-08T17:00:00	2	Temperatura media	17.3
21298	7	Sololá	701	Sololá	1	Sololá	5	Mayo	2023-02-05T00:00:00	2024-11-08T17:00:00	4	Temperatura máxima	18.7
21299	7	Sololá	701	Sololá	1	Sololá	5	Mayo	2023-02-05T00:00:00	2024-11-08T17:00:00	3	Temperatura mínima	17.3
21300	7	Sololá	701	Sololá	1	Sololá	5	Mayo	2023-02-05T00:00:00	2024-11-08T17:00:00	5	Humedad	94
21301	7	Sololá	701	Sololá	1	Sololá	5	Mayo	2023-02-05T00:00:00	2024-11-08T17:00:00	6	Velocidad del viento	0
21302	7	Sololá	701	Sololá	1	Sololá	5	Mayo	2023-02-05T00:00:00	2024-11-08T17:00:00	7	Dirección del viento	0
21303	7	Sololá	701	Sololá	1	Sololá	5	Mayo	2023-02-05T00:00:00	2024-11-08T17:00:00	1	Precipitación	0.2
21304	7	Sololá	701	Sololá	1	Sololá	5	Mayo	2023-02-05T00:00:00	2024-11-08T17:00:00	8	Radiación solar	15
21305	7	Sololá	701	Sololá	1	Sololá	5	Mayo	2023-02-05T00:00:00	2024-11-08T18:00:00	2	Temperatura media	15.5
21306	7	Sololá	701	Sololá	1	Sololá	5	Mayo	2023-02-05T00:00:00	2024-11-08T18:00:00	4	Temperatura máxima	17.3
21307	7	Sololá	701	Sololá	1	Sololá	5	Mayo	2023-02-05T00:00:00	2024-11-08T18:00:00	3	Temperatura mínima	15.5
21308	7	Sololá	701	Sololá	1	Sololá	5	Mayo	2023-02-05T00:00:00	2024-11-08T18:00:00	5	Humedad	94
21309	7	Sololá	701	Sololá	1	Sololá	5	Mayo	2023-02-05T00:00:00	2024-11-08T18:00:00	6	Velocidad del viento	0
21310	7	Sololá	701	Sololá	1	Sololá	5	Mayo	2023-02-05T00:00:00	2024-11-08T18:00:00	7	Dirección del viento	0
21311	7	Sololá	701	Sololá	1	Sololá	5	Mayo	2023-02-05T00:00:00	2024-11-08T18:00:00	1	Precipitación	6.8
21312	7	Sololá	701	Sololá	1	Sololá	5	Mayo	2023-02-05T00:00:00	2024-11-08T18:00:00	8	Radiación solar	0
21313	7	Sololá	701	Sololá	1	Sololá	5	Mayo	2023-02-05T00:00:00	2024-11-08T19:00:00	2	Temperatura media	14.8
21314	7	Sololá	701	Sololá	1	Sololá	5	Mayo	2023-02-05T00:00:00	2024-11-08T19:00:00	4	Temperatura máxima	15.4
21315	7	Sololá	701	Sololá	1	Sololá	5	Mayo	2023-02-05T00:00:00	2024-11-08T19:00:00	3	Temperatura mínima	14.8
21316	7	Sololá	701	Sololá	1	Sololá	5	Mayo	2023-02-05T00:00:00	2024-11-08T19:00:00	5	Humedad	96
21317	7	Sololá	701	Sololá	1	Sololá	5	Mayo	2023-02-05T00:00:00	2024-11-08T19:00:00	6	Velocidad del viento	0
21318	7	Sololá	701	Sololá	1	Sololá	5	Mayo	2023-02-05T00:00:00	2024-11-08T19:00:00	7	Dirección del viento	0
21319	7	Sololá	701	Sololá	1	Sololá	5	Mayo	2023-02-05T00:00:00	2024-11-08T19:00:00	1	Precipitación	2.6
21320	7	Sololá	701	Sololá	1	Sololá	5	Mayo	2023-02-05T00:00:00	2024-11-08T19:00:00	8	Radiación solar	0
21321	7	Sololá	701	Sololá	1	Sololá	5	Mayo	2023-02-05T00:00:00	2024-11-08T20:00:00	2	Temperatura media	14.3
21322	7	Sololá	701	Sololá	1	Sololá	5	Mayo	2023-02-05T00:00:00	2024-11-08T20:00:00	4	Temperatura máxima	14.8
21323	7	Sololá	701	Sololá	1	Sololá	5	Mayo	2023-02-05T00:00:00	2024-11-08T20:00:00	3	Temperatura mínima	14.3
21324	7	Sololá	701	Sololá	1	Sololá	5	Mayo	2023-02-05T00:00:00	2024-11-08T20:00:00	5	Humedad	96
21325	7	Sololá	701	Sololá	1	Sololá	5	Mayo	2023-02-05T00:00:00	2024-11-08T20:00:00	6	Velocidad del viento	0
21326	7	Sololá	701	Sololá	1	Sololá	5	Mayo	2023-02-05T00:00:00	2024-11-08T20:00:00	7	Dirección del viento	0
21327	7	Sololá	701	Sololá	1	Sololá	5	Mayo	2023-02-05T00:00:00	2024-11-08T20:00:00	1	Precipitación	3
21328	7	Sololá	701	Sololá	1	Sololá	5	Mayo	2023-02-05T00:00:00	2024-11-08T20:00:00	8	Radiación solar	0
21329	7	Sololá	701	Sololá	1	Sololá	5	Mayo	2023-02-05T00:00:00	2024-11-08T21:00:00	2	Temperatura media	12.8
21330	7	Sololá	701	Sololá	1	Sololá	5	Mayo	2023-02-05T00:00:00	2024-11-08T21:00:00	4	Temperatura máxima	14.4
21331	7	Sololá	701	Sololá	1	Sololá	5	Mayo	2023-02-05T00:00:00	2024-11-08T21:00:00	3	Temperatura mínima	12.8
21332	7	Sololá	701	Sololá	1	Sololá	5	Mayo	2023-02-05T00:00:00	2024-11-08T21:00:00	5	Humedad	94
21333	7	Sololá	701	Sololá	1	Sololá	5	Mayo	2023-02-05T00:00:00	2024-11-08T21:00:00	6	Velocidad del viento	0
21334	7	Sololá	701	Sololá	1	Sololá	5	Mayo	2023-02-05T00:00:00	2024-11-08T21:00:00	7	Dirección del viento	0
21335	7	Sololá	701	Sololá	1	Sololá	5	Mayo	2023-02-05T00:00:00	2024-11-08T21:00:00	1	Precipitación	0
21336	7	Sololá	701	Sololá	1	Sololá	5	Mayo	2023-02-05T00:00:00	2024-11-08T21:00:00	8	Radiación solar	0
21337	7	Sololá	701	Sololá	1	Sololá	5	Mayo	2023-02-05T00:00:00	2024-11-08T22:00:00	2	Temperatura media	12.6
21338	7	Sololá	701	Sololá	1	Sololá	5	Mayo	2023-02-05T00:00:00	2024-11-08T22:00:00	4	Temperatura máxima	12.8
21339	7	Sololá	701	Sololá	1	Sololá	5	Mayo	2023-02-05T00:00:00	2024-11-08T22:00:00	3	Temperatura mínima	12.3
21340	7	Sololá	701	Sololá	1	Sololá	5	Mayo	2023-02-05T00:00:00	2024-11-08T22:00:00	5	Humedad	91
21341	7	Sololá	701	Sololá	1	Sololá	5	Mayo	2023-02-05T00:00:00	2024-11-08T22:00:00	6	Velocidad del viento	0
21342	7	Sololá	701	Sololá	1	Sololá	5	Mayo	2023-02-05T00:00:00	2024-11-08T22:00:00	7	Dirección del viento	0
21343	7	Sololá	701	Sololá	1	Sololá	5	Mayo	2023-02-05T00:00:00	2024-11-08T22:00:00	1	Precipitación	0
21344	7	Sololá	701	Sololá	1	Sololá	5	Mayo	2023-02-05T00:00:00	2024-11-08T22:00:00	8	Radiación solar	0
21345	7	Sololá	701	Sololá	1	Sololá	5	Mayo	2023-02-05T00:00:00	2024-11-08T23:00:00	2	Temperatura media	13.3
21346	7	Sololá	701	Sololá	1	Sololá	5	Mayo	2023-02-05T00:00:00	2024-11-08T23:00:00	4	Temperatura máxima	13.3
21347	7	Sololá	701	Sololá	1	Sololá	5	Mayo	2023-02-05T00:00:00	2024-11-08T23:00:00	3	Temperatura mínima	12.4
21348	7	Sololá	701	Sololá	1	Sololá	5	Mayo	2023-02-05T00:00:00	2024-11-08T23:00:00	5	Humedad	83
21349	7	Sololá	701	Sololá	1	Sololá	5	Mayo	2023-02-05T00:00:00	2024-11-08T23:00:00	6	Velocidad del viento	0
21350	7	Sololá	701	Sololá	1	Sololá	5	Mayo	2023-02-05T00:00:00	2024-11-08T23:00:00	7	Dirección del viento	0
21351	7	Sololá	701	Sololá	1	Sololá	5	Mayo	2023-02-05T00:00:00	2024-11-08T23:00:00	1	Precipitación	0
21352	7	Sololá	701	Sololá	1	Sololá	5	Mayo	2023-02-05T00:00:00	2024-11-08T23:00:00	8	Radiación solar	0
21353	7	Sololá	701	Sololá	1	Sololá	5	Mayo	2023-03-05T00:00:00	2024-11-08T00:00:00	2	Temperatura media	14.2
21354	7	Sololá	701	Sololá	1	Sololá	5	Mayo	2023-03-05T00:00:00	2024-11-08T00:00:00	4	Temperatura máxima	14.2
21355	7	Sololá	701	Sololá	1	Sololá	5	Mayo	2023-03-05T00:00:00	2024-11-08T00:00:00	3	Temperatura mínima	13.3
21356	7	Sololá	701	Sololá	1	Sololá	5	Mayo	2023-03-05T00:00:00	2024-11-08T00:00:00	5	Humedad	75
21357	7	Sololá	701	Sololá	1	Sololá	5	Mayo	2023-03-05T00:00:00	2024-11-08T00:00:00	6	Velocidad del viento	0
21358	7	Sololá	701	Sololá	1	Sololá	5	Mayo	2023-03-05T00:00:00	2024-11-08T00:00:00	7	Dirección del viento	0
21359	7	Sololá	701	Sololá	1	Sololá	5	Mayo	2023-03-05T00:00:00	2024-11-08T00:00:00	1	Precipitación	0
21360	7	Sololá	701	Sololá	1	Sololá	5	Mayo	2023-03-05T00:00:00	2024-11-08T00:00:00	8	Radiación solar	0
21361	7	Sololá	701	Sololá	1	Sololá	5	Mayo	2023-03-05T00:00:00	2024-11-08T01:00:00	2	Temperatura media	15.3
21362	7	Sololá	701	Sololá	1	Sololá	5	Mayo	2023-03-05T00:00:00	2024-11-08T01:00:00	4	Temperatura máxima	15.3
21363	7	Sololá	701	Sololá	1	Sololá	5	Mayo	2023-03-05T00:00:00	2024-11-08T01:00:00	3	Temperatura mínima	14.2
21364	7	Sololá	701	Sololá	1	Sololá	5	Mayo	2023-03-05T00:00:00	2024-11-08T01:00:00	5	Humedad	73
21365	7	Sololá	701	Sololá	1	Sololá	5	Mayo	2023-03-05T00:00:00	2024-11-08T01:00:00	6	Velocidad del viento	0
21366	7	Sololá	701	Sololá	1	Sololá	5	Mayo	2023-03-05T00:00:00	2024-11-08T01:00:00	7	Dirección del viento	0
21367	7	Sololá	701	Sololá	1	Sololá	5	Mayo	2023-03-05T00:00:00	2024-11-08T01:00:00	1	Precipitación	0
21368	7	Sololá	701	Sololá	1	Sololá	5	Mayo	2023-03-05T00:00:00	2024-11-08T01:00:00	8	Radiación solar	0
21369	7	Sololá	701	Sololá	1	Sololá	5	Mayo	2023-03-05T00:00:00	2024-11-08T02:00:00	2	Temperatura media	15.4
21370	7	Sololá	701	Sololá	1	Sololá	5	Mayo	2023-03-05T00:00:00	2024-11-08T02:00:00	4	Temperatura máxima	15.5
21371	7	Sololá	701	Sololá	1	Sololá	5	Mayo	2023-03-05T00:00:00	2024-11-08T02:00:00	3	Temperatura mínima	15.2
21372	7	Sololá	701	Sololá	1	Sololá	5	Mayo	2023-03-05T00:00:00	2024-11-08T02:00:00	5	Humedad	78
21373	7	Sololá	701	Sololá	1	Sololá	5	Mayo	2023-03-05T00:00:00	2024-11-08T02:00:00	6	Velocidad del viento	0
21374	7	Sololá	701	Sololá	1	Sololá	5	Mayo	2023-03-05T00:00:00	2024-11-08T02:00:00	7	Dirección del viento	0
21375	7	Sololá	701	Sololá	1	Sololá	5	Mayo	2023-03-05T00:00:00	2024-11-08T02:00:00	1	Precipitación	0
21376	7	Sololá	701	Sololá	1	Sololá	5	Mayo	2023-03-05T00:00:00	2024-11-08T02:00:00	8	Radiación solar	0
21377	7	Sololá	701	Sololá	1	Sololá	5	Mayo	2023-03-05T00:00:00	2024-11-08T03:00:00	2	Temperatura media	15.7
21378	7	Sololá	701	Sololá	1	Sololá	5	Mayo	2023-03-05T00:00:00	2024-11-08T03:00:00	4	Temperatura máxima	15.9
21379	7	Sololá	701	Sololá	1	Sololá	5	Mayo	2023-03-05T00:00:00	2024-11-08T03:00:00	3	Temperatura mínima	15.4
21380	7	Sololá	701	Sololá	1	Sololá	5	Mayo	2023-03-05T00:00:00	2024-11-08T03:00:00	5	Humedad	72
21381	7	Sololá	701	Sololá	1	Sololá	5	Mayo	2023-03-05T00:00:00	2024-11-08T03:00:00	6	Velocidad del viento	0
21382	7	Sololá	701	Sololá	1	Sololá	5	Mayo	2023-03-05T00:00:00	2024-11-08T03:00:00	7	Dirección del viento	0
21383	7	Sololá	701	Sololá	1	Sololá	5	Mayo	2023-03-05T00:00:00	2024-11-08T03:00:00	1	Precipitación	0
21384	7	Sololá	701	Sololá	1	Sololá	5	Mayo	2023-03-05T00:00:00	2024-11-08T03:00:00	8	Radiación solar	0
21385	7	Sololá	701	Sololá	1	Sololá	5	Mayo	2023-03-05T00:00:00	2024-11-08T04:00:00	2	Temperatura media	14.7
21386	7	Sololá	701	Sololá	1	Sololá	5	Mayo	2023-03-05T00:00:00	2024-11-08T04:00:00	4	Temperatura máxima	15.8
21387	7	Sololá	701	Sololá	1	Sololá	5	Mayo	2023-03-05T00:00:00	2024-11-08T04:00:00	3	Temperatura mínima	14.7
21388	7	Sololá	701	Sololá	1	Sololá	5	Mayo	2023-03-05T00:00:00	2024-11-08T04:00:00	5	Humedad	79
21389	7	Sololá	701	Sololá	1	Sololá	5	Mayo	2023-03-05T00:00:00	2024-11-08T04:00:00	6	Velocidad del viento	0
21390	7	Sololá	701	Sololá	1	Sololá	5	Mayo	2023-03-05T00:00:00	2024-11-08T04:00:00	7	Dirección del viento	0
21391	7	Sololá	701	Sololá	1	Sololá	5	Mayo	2023-03-05T00:00:00	2024-11-08T04:00:00	1	Precipitación	0
21392	7	Sololá	701	Sololá	1	Sololá	5	Mayo	2023-03-05T00:00:00	2024-11-08T04:00:00	8	Radiación solar	0
21393	7	Sololá	701	Sololá	1	Sololá	5	Mayo	2023-03-05T00:00:00	2024-11-08T05:00:00	2	Temperatura media	13.9
21394	7	Sololá	701	Sololá	1	Sololá	5	Mayo	2023-03-05T00:00:00	2024-11-08T05:00:00	4	Temperatura máxima	14.7
21395	7	Sololá	701	Sololá	1	Sololá	5	Mayo	2023-03-05T00:00:00	2024-11-08T05:00:00	3	Temperatura mínima	13.9
21396	7	Sololá	701	Sololá	1	Sololá	5	Mayo	2023-03-05T00:00:00	2024-11-08T05:00:00	5	Humedad	78
21397	7	Sololá	701	Sololá	1	Sololá	5	Mayo	2023-03-05T00:00:00	2024-11-08T05:00:00	6	Velocidad del viento	0
21398	7	Sololá	701	Sololá	1	Sololá	5	Mayo	2023-03-05T00:00:00	2024-11-08T05:00:00	7	Dirección del viento	0
21399	7	Sololá	701	Sololá	1	Sololá	5	Mayo	2023-03-05T00:00:00	2024-11-08T05:00:00	1	Precipitación	0
21400	7	Sololá	701	Sololá	1	Sololá	5	Mayo	2023-03-05T00:00:00	2024-11-08T05:00:00	8	Radiación solar	0
21401	7	Sololá	701	Sololá	1	Sololá	5	Mayo	2023-03-05T00:00:00	2024-11-08T06:00:00	2	Temperatura media	13.7
21402	7	Sololá	701	Sololá	1	Sololá	5	Mayo	2023-03-05T00:00:00	2024-11-08T06:00:00	4	Temperatura máxima	14.1
21403	7	Sololá	701	Sololá	1	Sololá	5	Mayo	2023-03-05T00:00:00	2024-11-08T06:00:00	3	Temperatura mínima	13.7
21404	7	Sololá	701	Sololá	1	Sololá	5	Mayo	2023-03-05T00:00:00	2024-11-08T06:00:00	5	Humedad	78
21405	7	Sololá	701	Sololá	1	Sololá	5	Mayo	2023-03-05T00:00:00	2024-11-08T06:00:00	6	Velocidad del viento	0
21406	7	Sololá	701	Sololá	1	Sololá	5	Mayo	2023-03-05T00:00:00	2024-11-08T06:00:00	7	Dirección del viento	0
21407	7	Sololá	701	Sololá	1	Sololá	5	Mayo	2023-03-05T00:00:00	2024-11-08T06:00:00	1	Precipitación	0
21408	7	Sololá	701	Sololá	1	Sololá	5	Mayo	2023-03-05T00:00:00	2024-11-08T06:00:00	8	Radiación solar	0
21409	7	Sololá	701	Sololá	1	Sololá	5	Mayo	2023-03-05T00:00:00	2024-11-08T07:00:00	2	Temperatura media	12.8
21410	7	Sololá	701	Sololá	1	Sololá	5	Mayo	2023-03-05T00:00:00	2024-11-08T07:00:00	4	Temperatura máxima	13.8
21411	7	Sololá	701	Sololá	1	Sololá	5	Mayo	2023-03-05T00:00:00	2024-11-08T07:00:00	3	Temperatura mínima	12.8
21412	7	Sololá	701	Sololá	1	Sololá	5	Mayo	2023-03-05T00:00:00	2024-11-08T07:00:00	5	Humedad	76
21413	7	Sololá	701	Sololá	1	Sololá	5	Mayo	2023-03-05T00:00:00	2024-11-08T07:00:00	6	Velocidad del viento	0
21414	7	Sololá	701	Sololá	1	Sololá	5	Mayo	2023-03-05T00:00:00	2024-11-08T07:00:00	7	Dirección del viento	0
21415	7	Sololá	701	Sololá	1	Sololá	5	Mayo	2023-03-05T00:00:00	2024-11-08T07:00:00	1	Precipitación	0
21416	7	Sololá	701	Sololá	1	Sololá	5	Mayo	2023-03-05T00:00:00	2024-11-08T07:00:00	8	Radiación solar	1
21417	7	Sololá	701	Sololá	1	Sololá	5	Mayo	2023-03-05T00:00:00	2024-11-08T08:00:00	2	Temperatura media	14.1
21418	7	Sololá	701	Sololá	1	Sololá	5	Mayo	2023-03-05T00:00:00	2024-11-08T08:00:00	4	Temperatura máxima	14.2
21419	7	Sololá	701	Sololá	1	Sololá	5	Mayo	2023-03-05T00:00:00	2024-11-08T08:00:00	3	Temperatura mínima	12.7
21420	7	Sololá	701	Sololá	1	Sololá	5	Mayo	2023-03-05T00:00:00	2024-11-08T08:00:00	5	Humedad	77
21421	7	Sololá	701	Sololá	1	Sololá	5	Mayo	2023-03-05T00:00:00	2024-11-08T08:00:00	6	Velocidad del viento	0
21422	7	Sololá	701	Sololá	1	Sololá	5	Mayo	2023-03-05T00:00:00	2024-11-08T08:00:00	7	Dirección del viento	0
21423	7	Sololá	701	Sololá	1	Sololá	5	Mayo	2023-03-05T00:00:00	2024-11-08T08:00:00	1	Precipitación	0
21424	7	Sololá	701	Sololá	1	Sololá	5	Mayo	2023-03-05T00:00:00	2024-11-08T08:00:00	8	Radiación solar	28
21425	7	Sololá	701	Sololá	1	Sololá	5	Mayo	2023-03-05T00:00:00	2024-11-08T09:00:00	2	Temperatura media	16.4
21426	7	Sololá	701	Sololá	1	Sololá	5	Mayo	2023-03-05T00:00:00	2024-11-08T09:00:00	4	Temperatura máxima	16.4
21427	7	Sololá	701	Sololá	1	Sololá	5	Mayo	2023-03-05T00:00:00	2024-11-08T09:00:00	3	Temperatura mínima	14.1
21428	7	Sololá	701	Sololá	1	Sololá	5	Mayo	2023-03-05T00:00:00	2024-11-08T09:00:00	5	Humedad	73
21429	7	Sololá	701	Sololá	1	Sololá	5	Mayo	2023-03-05T00:00:00	2024-11-08T09:00:00	6	Velocidad del viento	0
21430	7	Sololá	701	Sololá	1	Sololá	5	Mayo	2023-03-05T00:00:00	2024-11-08T09:00:00	7	Dirección del viento	0
21431	7	Sololá	701	Sololá	1	Sololá	5	Mayo	2023-03-05T00:00:00	2024-11-08T09:00:00	1	Precipitación	0
21432	7	Sololá	701	Sololá	1	Sololá	5	Mayo	2023-03-05T00:00:00	2024-11-08T09:00:00	8	Radiación solar	107
21433	7	Sololá	701	Sololá	1	Sololá	5	Mayo	2023-03-05T00:00:00	2024-11-08T10:00:00	2	Temperatura media	20.1
21434	7	Sololá	701	Sololá	1	Sololá	5	Mayo	2023-03-05T00:00:00	2024-11-08T10:00:00	4	Temperatura máxima	20.1
21435	7	Sololá	701	Sololá	1	Sololá	5	Mayo	2023-03-05T00:00:00	2024-11-08T10:00:00	3	Temperatura mínima	16.4
21436	7	Sololá	701	Sololá	1	Sololá	5	Mayo	2023-03-05T00:00:00	2024-11-08T10:00:00	5	Humedad	64
21437	7	Sololá	701	Sololá	1	Sololá	5	Mayo	2023-03-05T00:00:00	2024-11-08T10:00:00	6	Velocidad del viento	0
21438	7	Sololá	701	Sololá	1	Sololá	5	Mayo	2023-03-05T00:00:00	2024-11-08T10:00:00	7	Dirección del viento	0
21439	7	Sololá	701	Sololá	1	Sololá	5	Mayo	2023-03-05T00:00:00	2024-11-08T10:00:00	1	Precipitación	0
21440	7	Sololá	701	Sololá	1	Sololá	5	Mayo	2023-03-05T00:00:00	2024-11-08T10:00:00	8	Radiación solar	575
21441	7	Sololá	701	Sololá	1	Sololá	5	Mayo	2023-03-05T00:00:00	2024-11-08T11:00:00	2	Temperatura media	21.4
21442	7	Sololá	701	Sololá	1	Sololá	5	Mayo	2023-03-05T00:00:00	2024-11-08T11:00:00	4	Temperatura máxima	21.4
21443	7	Sololá	701	Sololá	1	Sololá	5	Mayo	2023-03-05T00:00:00	2024-11-08T11:00:00	3	Temperatura mínima	20.1
21444	7	Sololá	701	Sololá	1	Sololá	5	Mayo	2023-03-05T00:00:00	2024-11-08T11:00:00	5	Humedad	65
21445	7	Sololá	701	Sololá	1	Sololá	5	Mayo	2023-03-05T00:00:00	2024-11-08T11:00:00	6	Velocidad del viento	0
21446	7	Sololá	701	Sololá	1	Sololá	5	Mayo	2023-03-05T00:00:00	2024-11-08T11:00:00	7	Dirección del viento	0
21447	7	Sololá	701	Sololá	1	Sololá	5	Mayo	2023-03-05T00:00:00	2024-11-08T11:00:00	1	Precipitación	0
21448	7	Sololá	701	Sololá	1	Sololá	5	Mayo	2023-03-05T00:00:00	2024-11-08T11:00:00	8	Radiación solar	779
21449	7	Sololá	701	Sololá	1	Sololá	5	Mayo	2023-03-05T00:00:00	2024-11-08T12:00:00	2	Temperatura media	22.3
21450	7	Sololá	701	Sololá	1	Sololá	5	Mayo	2023-03-05T00:00:00	2024-11-08T12:00:00	4	Temperatura máxima	22.3
21451	7	Sololá	701	Sololá	1	Sololá	5	Mayo	2023-03-05T00:00:00	2024-11-08T12:00:00	3	Temperatura mínima	21.3
21452	7	Sololá	701	Sololá	1	Sololá	5	Mayo	2023-03-05T00:00:00	2024-11-08T12:00:00	5	Humedad	55
21453	7	Sololá	701	Sololá	1	Sololá	5	Mayo	2023-03-05T00:00:00	2024-11-08T12:00:00	6	Velocidad del viento	0
21454	7	Sololá	701	Sololá	1	Sololá	5	Mayo	2023-03-05T00:00:00	2024-11-08T12:00:00	7	Dirección del viento	0
21455	7	Sololá	701	Sololá	1	Sololá	5	Mayo	2023-03-05T00:00:00	2024-11-08T12:00:00	1	Precipitación	0
21456	7	Sololá	701	Sololá	1	Sololá	5	Mayo	2023-03-05T00:00:00	2024-11-08T12:00:00	8	Radiación solar	925
21457	7	Sololá	701	Sololá	1	Sololá	5	Mayo	2023-03-05T00:00:00	2024-11-08T13:00:00	2	Temperatura media	21.8
21458	7	Sololá	701	Sololá	1	Sololá	5	Mayo	2023-03-05T00:00:00	2024-11-08T13:00:00	4	Temperatura máxima	22.3
21459	7	Sololá	701	Sololá	1	Sololá	5	Mayo	2023-03-05T00:00:00	2024-11-08T13:00:00	3	Temperatura mínima	21.8
21460	7	Sololá	701	Sololá	1	Sololá	5	Mayo	2023-03-05T00:00:00	2024-11-08T13:00:00	5	Humedad	72
21461	7	Sololá	701	Sololá	1	Sololá	5	Mayo	2023-03-05T00:00:00	2024-11-08T13:00:00	6	Velocidad del viento	0
21462	7	Sololá	701	Sololá	1	Sololá	5	Mayo	2023-03-05T00:00:00	2024-11-08T13:00:00	7	Dirección del viento	0
21463	7	Sololá	701	Sololá	1	Sololá	5	Mayo	2023-03-05T00:00:00	2024-11-08T13:00:00	1	Precipitación	0
21464	7	Sololá	701	Sololá	1	Sololá	5	Mayo	2023-03-05T00:00:00	2024-11-08T13:00:00	8	Radiación solar	939
21465	7	Sololá	701	Sololá	1	Sololá	5	Mayo	2023-03-05T00:00:00	2024-11-08T14:00:00	2	Temperatura media	21.6
21466	7	Sololá	701	Sololá	1	Sololá	5	Mayo	2023-03-05T00:00:00	2024-11-08T14:00:00	4	Temperatura máxima	21.8
21467	7	Sololá	701	Sololá	1	Sololá	5	Mayo	2023-03-05T00:00:00	2024-11-08T14:00:00	3	Temperatura mínima	21.3
21468	7	Sololá	701	Sololá	1	Sololá	5	Mayo	2023-03-05T00:00:00	2024-11-08T14:00:00	5	Humedad	78
21469	7	Sololá	701	Sololá	1	Sololá	5	Mayo	2023-03-05T00:00:00	2024-11-08T14:00:00	6	Velocidad del viento	0
21470	7	Sololá	701	Sololá	1	Sololá	5	Mayo	2023-03-05T00:00:00	2024-11-08T14:00:00	7	Dirección del viento	0
21471	7	Sololá	701	Sololá	1	Sololá	5	Mayo	2023-03-05T00:00:00	2024-11-08T14:00:00	1	Precipitación	0
21472	7	Sololá	701	Sololá	1	Sololá	5	Mayo	2023-03-05T00:00:00	2024-11-08T14:00:00	8	Radiación solar	451
21473	7	Sololá	701	Sololá	1	Sololá	5	Mayo	2023-03-05T00:00:00	2024-11-08T15:00:00	2	Temperatura media	22.3
21474	7	Sololá	701	Sololá	1	Sololá	5	Mayo	2023-03-05T00:00:00	2024-11-08T15:00:00	4	Temperatura máxima	22.3
21475	7	Sololá	701	Sololá	1	Sololá	5	Mayo	2023-03-05T00:00:00	2024-11-08T15:00:00	3	Temperatura mínima	21.6
21476	7	Sololá	701	Sololá	1	Sololá	5	Mayo	2023-03-05T00:00:00	2024-11-08T15:00:00	5	Humedad	78
21477	7	Sololá	701	Sololá	1	Sololá	5	Mayo	2023-03-05T00:00:00	2024-11-08T15:00:00	6	Velocidad del viento	0
21478	7	Sololá	701	Sololá	1	Sololá	5	Mayo	2023-03-05T00:00:00	2024-11-08T15:00:00	7	Dirección del viento	0
21479	7	Sololá	701	Sololá	1	Sololá	5	Mayo	2023-03-05T00:00:00	2024-11-08T15:00:00	1	Precipitación	0
21480	7	Sololá	701	Sololá	1	Sololá	5	Mayo	2023-03-05T00:00:00	2024-11-08T15:00:00	8	Radiación solar	238
21481	7	Sololá	701	Sololá	1	Sololá	5	Mayo	2023-03-05T00:00:00	2024-11-08T16:00:00	2	Temperatura media	21.6
21482	7	Sololá	701	Sololá	1	Sololá	5	Mayo	2023-03-05T00:00:00	2024-11-08T16:00:00	4	Temperatura máxima	22.4
21483	7	Sololá	701	Sololá	1	Sololá	5	Mayo	2023-03-05T00:00:00	2024-11-08T16:00:00	3	Temperatura mínima	21.6
21484	7	Sololá	701	Sololá	1	Sololá	5	Mayo	2023-03-05T00:00:00	2024-11-08T16:00:00	5	Humedad	80
21485	7	Sololá	701	Sololá	1	Sololá	5	Mayo	2023-03-05T00:00:00	2024-11-08T16:00:00	6	Velocidad del viento	0
21486	7	Sololá	701	Sololá	1	Sololá	5	Mayo	2023-03-05T00:00:00	2024-11-08T16:00:00	7	Dirección del viento	0
21487	7	Sololá	701	Sololá	1	Sololá	5	Mayo	2023-03-05T00:00:00	2024-11-08T16:00:00	1	Precipitación	0
21488	7	Sololá	701	Sololá	1	Sololá	5	Mayo	2023-03-05T00:00:00	2024-11-08T16:00:00	8	Radiación solar	171
21489	7	Sololá	701	Sololá	1	Sololá	5	Mayo	2023-03-05T00:00:00	2024-11-08T17:00:00	2	Temperatura media	20.2
21490	7	Sololá	701	Sololá	1	Sololá	5	Mayo	2023-03-05T00:00:00	2024-11-08T17:00:00	4	Temperatura máxima	21.6
21491	7	Sololá	701	Sololá	1	Sololá	5	Mayo	2023-03-05T00:00:00	2024-11-08T17:00:00	3	Temperatura mínima	20.1
21492	7	Sololá	701	Sololá	1	Sololá	5	Mayo	2023-03-05T00:00:00	2024-11-08T17:00:00	5	Humedad	85
21493	7	Sololá	701	Sololá	1	Sololá	5	Mayo	2023-03-05T00:00:00	2024-11-08T17:00:00	6	Velocidad del viento	0
21494	7	Sololá	701	Sololá	1	Sololá	5	Mayo	2023-03-05T00:00:00	2024-11-08T17:00:00	7	Dirección del viento	0
21495	7	Sololá	701	Sololá	1	Sololá	5	Mayo	2023-03-05T00:00:00	2024-11-08T17:00:00	1	Precipitación	0
21496	7	Sololá	701	Sololá	1	Sololá	5	Mayo	2023-03-05T00:00:00	2024-11-08T17:00:00	8	Radiación solar	112
21497	7	Sololá	701	Sololá	1	Sololá	5	Mayo	2023-03-05T00:00:00	2024-11-08T18:00:00	2	Temperatura media	20.3
21498	7	Sololá	701	Sololá	1	Sololá	5	Mayo	2023-03-05T00:00:00	2024-11-08T18:00:00	4	Temperatura máxima	20.3
21499	7	Sololá	701	Sololá	1	Sololá	5	Mayo	2023-03-05T00:00:00	2024-11-08T18:00:00	3	Temperatura mínima	20.1
21500	7	Sololá	701	Sololá	1	Sololá	5	Mayo	2023-03-05T00:00:00	2024-11-08T18:00:00	5	Humedad	74
21501	7	Sololá	701	Sololá	1	Sololá	5	Mayo	2023-03-05T00:00:00	2024-11-08T18:00:00	6	Velocidad del viento	0
21502	7	Sololá	701	Sololá	1	Sololá	5	Mayo	2023-03-05T00:00:00	2024-11-08T18:00:00	7	Dirección del viento	0
21503	7	Sololá	701	Sololá	1	Sololá	5	Mayo	2023-03-05T00:00:00	2024-11-08T18:00:00	1	Precipitación	0
21504	7	Sololá	701	Sololá	1	Sololá	5	Mayo	2023-03-05T00:00:00	2024-11-08T18:00:00	8	Radiación solar	64
21505	7	Sololá	701	Sololá	1	Sololá	5	Mayo	2023-03-05T00:00:00	2024-11-08T19:00:00	2	Temperatura media	20.7
21506	7	Sololá	701	Sololá	1	Sololá	5	Mayo	2023-03-05T00:00:00	2024-11-08T19:00:00	4	Temperatura máxima	21
21507	7	Sololá	701	Sololá	1	Sololá	5	Mayo	2023-03-05T00:00:00	2024-11-08T19:00:00	3	Temperatura mínima	20.3
21508	7	Sololá	701	Sololá	1	Sololá	5	Mayo	2023-03-05T00:00:00	2024-11-08T19:00:00	5	Humedad	65
21509	7	Sololá	701	Sololá	1	Sololá	5	Mayo	2023-03-05T00:00:00	2024-11-08T19:00:00	6	Velocidad del viento	0
21510	7	Sololá	701	Sololá	1	Sololá	5	Mayo	2023-03-05T00:00:00	2024-11-08T19:00:00	7	Dirección del viento	0
21511	7	Sololá	701	Sololá	1	Sololá	5	Mayo	2023-03-05T00:00:00	2024-11-08T19:00:00	1	Precipitación	0
21512	7	Sololá	701	Sololá	1	Sololá	5	Mayo	2023-03-05T00:00:00	2024-11-08T19:00:00	8	Radiación solar	0
21513	7	Sololá	701	Sololá	1	Sololá	5	Mayo	2023-03-05T00:00:00	2024-11-08T20:00:00	2	Temperatura media	18.4
21514	7	Sololá	701	Sololá	1	Sololá	5	Mayo	2023-03-05T00:00:00	2024-11-08T20:00:00	4	Temperatura máxima	20.7
21515	7	Sololá	701	Sololá	1	Sololá	5	Mayo	2023-03-05T00:00:00	2024-11-08T20:00:00	3	Temperatura mínima	18.4
21516	7	Sololá	701	Sololá	1	Sololá	5	Mayo	2023-03-05T00:00:00	2024-11-08T20:00:00	5	Humedad	74
21517	7	Sololá	701	Sololá	1	Sololá	5	Mayo	2023-03-05T00:00:00	2024-11-08T20:00:00	6	Velocidad del viento	0
21518	7	Sololá	701	Sololá	1	Sololá	5	Mayo	2023-03-05T00:00:00	2024-11-08T20:00:00	7	Dirección del viento	0
21519	7	Sololá	701	Sololá	1	Sololá	5	Mayo	2023-03-05T00:00:00	2024-11-08T20:00:00	1	Precipitación	0
21520	7	Sololá	701	Sololá	1	Sololá	5	Mayo	2023-03-05T00:00:00	2024-11-08T20:00:00	8	Radiación solar	0
21521	7	Sololá	701	Sololá	1	Sololá	5	Mayo	2023-03-05T00:00:00	2024-11-08T21:00:00	2	Temperatura media	17.2
21522	7	Sololá	701	Sololá	1	Sololá	5	Mayo	2023-03-05T00:00:00	2024-11-08T21:00:00	4	Temperatura máxima	18.4
21523	7	Sololá	701	Sololá	1	Sololá	5	Mayo	2023-03-05T00:00:00	2024-11-08T21:00:00	3	Temperatura mínima	17.2
21524	7	Sololá	701	Sololá	1	Sololá	5	Mayo	2023-03-05T00:00:00	2024-11-08T21:00:00	5	Humedad	80
21525	7	Sololá	701	Sololá	1	Sololá	5	Mayo	2023-03-05T00:00:00	2024-11-08T21:00:00	6	Velocidad del viento	0
21526	7	Sololá	701	Sololá	1	Sololá	5	Mayo	2023-03-05T00:00:00	2024-11-08T21:00:00	7	Dirección del viento	0
21527	7	Sololá	701	Sololá	1	Sololá	5	Mayo	2023-03-05T00:00:00	2024-11-08T21:00:00	1	Precipitación	0
21528	7	Sololá	701	Sololá	1	Sololá	5	Mayo	2023-03-05T00:00:00	2024-11-08T21:00:00	8	Radiación solar	0
21529	7	Sololá	701	Sololá	1	Sololá	5	Mayo	2023-03-05T00:00:00	2024-11-08T22:00:00	2	Temperatura media	16.6
21530	7	Sololá	701	Sololá	1	Sololá	5	Mayo	2023-03-05T00:00:00	2024-11-08T22:00:00	4	Temperatura máxima	17.2
21531	7	Sololá	701	Sololá	1	Sololá	5	Mayo	2023-03-05T00:00:00	2024-11-08T22:00:00	3	Temperatura mínima	16.6
21532	7	Sololá	701	Sololá	1	Sololá	5	Mayo	2023-03-05T00:00:00	2024-11-08T22:00:00	5	Humedad	84
21533	7	Sololá	701	Sololá	1	Sololá	5	Mayo	2023-03-05T00:00:00	2024-11-08T22:00:00	6	Velocidad del viento	0
21534	7	Sololá	701	Sololá	1	Sololá	5	Mayo	2023-03-05T00:00:00	2024-11-08T22:00:00	7	Dirección del viento	0
21535	7	Sololá	701	Sololá	1	Sololá	5	Mayo	2023-03-05T00:00:00	2024-11-08T22:00:00	1	Precipitación	0
21536	7	Sololá	701	Sololá	1	Sololá	5	Mayo	2023-03-05T00:00:00	2024-11-08T22:00:00	8	Radiación solar	0
21537	7	Sololá	701	Sololá	1	Sololá	5	Mayo	2023-03-05T00:00:00	2024-11-08T23:00:00	2	Temperatura media	15.9
21538	7	Sololá	701	Sololá	1	Sololá	5	Mayo	2023-03-05T00:00:00	2024-11-08T23:00:00	4	Temperatura máxima	16.6
21539	7	Sololá	701	Sololá	1	Sololá	5	Mayo	2023-03-05T00:00:00	2024-11-08T23:00:00	3	Temperatura mínima	15.9
21540	7	Sololá	701	Sololá	1	Sololá	5	Mayo	2023-03-05T00:00:00	2024-11-08T23:00:00	5	Humedad	86
21541	7	Sololá	701	Sololá	1	Sololá	5	Mayo	2023-03-05T00:00:00	2024-11-08T23:00:00	6	Velocidad del viento	0
21542	7	Sololá	701	Sololá	1	Sololá	5	Mayo	2023-03-05T00:00:00	2024-11-08T23:00:00	7	Dirección del viento	0
21543	7	Sololá	701	Sololá	1	Sololá	5	Mayo	2023-03-05T00:00:00	2024-11-08T23:00:00	1	Precipitación	0
21544	7	Sololá	701	Sololá	1	Sololá	5	Mayo	2023-03-05T00:00:00	2024-11-08T23:00:00	8	Radiación solar	0
21545	7	Sololá	701	Sololá	1	Sololá	5	Mayo	2023-04-05T00:00:00	2024-11-08T00:00:00	2	Temperatura media	15.4
21546	7	Sololá	701	Sololá	1	Sololá	5	Mayo	2023-04-05T00:00:00	2024-11-08T00:00:00	4	Temperatura máxima	15.9
21547	7	Sololá	701	Sololá	1	Sololá	5	Mayo	2023-04-05T00:00:00	2024-11-08T00:00:00	3	Temperatura mínima	15.3
21548	7	Sololá	701	Sololá	1	Sololá	5	Mayo	2023-04-05T00:00:00	2024-11-08T00:00:00	5	Humedad	86
21549	7	Sololá	701	Sololá	1	Sololá	5	Mayo	2023-04-05T00:00:00	2024-11-08T00:00:00	6	Velocidad del viento	0
21550	7	Sololá	701	Sololá	1	Sololá	5	Mayo	2023-04-05T00:00:00	2024-11-08T00:00:00	7	Dirección del viento	0
21551	7	Sololá	701	Sololá	1	Sololá	5	Mayo	2023-04-05T00:00:00	2024-11-08T00:00:00	1	Precipitación	0
21552	7	Sololá	701	Sololá	1	Sololá	5	Mayo	2023-04-05T00:00:00	2024-11-08T00:00:00	8	Radiación solar	0
21553	7	Sololá	701	Sololá	1	Sololá	5	Mayo	2023-04-05T00:00:00	2024-11-08T01:00:00	2	Temperatura media	14.9
21554	7	Sololá	701	Sololá	1	Sololá	5	Mayo	2023-04-05T00:00:00	2024-11-08T01:00:00	4	Temperatura máxima	15.4
21555	7	Sololá	701	Sololá	1	Sololá	5	Mayo	2023-04-05T00:00:00	2024-11-08T01:00:00	3	Temperatura mínima	14.8
21556	7	Sololá	701	Sololá	1	Sololá	5	Mayo	2023-04-05T00:00:00	2024-11-08T01:00:00	5	Humedad	89
21557	7	Sololá	701	Sololá	1	Sololá	5	Mayo	2023-04-05T00:00:00	2024-11-08T01:00:00	6	Velocidad del viento	0
21558	7	Sololá	701	Sololá	1	Sololá	5	Mayo	2023-04-05T00:00:00	2024-11-08T01:00:00	7	Dirección del viento	0
21559	7	Sololá	701	Sololá	1	Sololá	5	Mayo	2023-04-05T00:00:00	2024-11-08T01:00:00	1	Precipitación	0
21560	7	Sololá	701	Sololá	1	Sololá	5	Mayo	2023-04-05T00:00:00	2024-11-08T01:00:00	8	Radiación solar	0
21561	7	Sololá	701	Sololá	1	Sololá	5	Mayo	2023-04-05T00:00:00	2024-11-08T02:00:00	2	Temperatura media	15.3
21562	7	Sololá	701	Sololá	1	Sololá	5	Mayo	2023-04-05T00:00:00	2024-11-08T02:00:00	4	Temperatura máxima	15.3
21563	7	Sololá	701	Sololá	1	Sololá	5	Mayo	2023-04-05T00:00:00	2024-11-08T02:00:00	3	Temperatura mínima	14.8
21564	7	Sololá	701	Sololá	1	Sololá	5	Mayo	2023-04-05T00:00:00	2024-11-08T02:00:00	5	Humedad	86
21565	7	Sololá	701	Sololá	1	Sololá	5	Mayo	2023-04-05T00:00:00	2024-11-08T02:00:00	6	Velocidad del viento	0
21566	7	Sololá	701	Sololá	1	Sololá	5	Mayo	2023-04-05T00:00:00	2024-11-08T02:00:00	7	Dirección del viento	0
21567	7	Sololá	701	Sololá	1	Sololá	5	Mayo	2023-04-05T00:00:00	2024-11-08T02:00:00	1	Precipitación	0
21568	7	Sololá	701	Sololá	1	Sololá	5	Mayo	2023-04-05T00:00:00	2024-11-08T02:00:00	8	Radiación solar	0
21569	7	Sololá	701	Sololá	1	Sololá	5	Mayo	2023-04-05T00:00:00	2024-11-08T03:00:00	2	Temperatura media	15.6
21570	7	Sololá	701	Sololá	1	Sololá	5	Mayo	2023-04-05T00:00:00	2024-11-08T03:00:00	4	Temperatura máxima	15.7
21571	7	Sololá	701	Sololá	1	Sololá	5	Mayo	2023-04-05T00:00:00	2024-11-08T03:00:00	3	Temperatura mínima	15.3
21572	7	Sololá	701	Sololá	1	Sololá	5	Mayo	2023-04-05T00:00:00	2024-11-08T03:00:00	5	Humedad	79
21573	7	Sololá	701	Sololá	1	Sololá	5	Mayo	2023-04-05T00:00:00	2024-11-08T03:00:00	6	Velocidad del viento	0
21574	7	Sololá	701	Sololá	1	Sololá	5	Mayo	2023-04-05T00:00:00	2024-11-08T03:00:00	7	Dirección del viento	0
21575	7	Sololá	701	Sololá	1	Sololá	5	Mayo	2023-04-05T00:00:00	2024-11-08T03:00:00	1	Precipitación	0
21576	7	Sololá	701	Sololá	1	Sololá	5	Mayo	2023-04-05T00:00:00	2024-11-08T03:00:00	8	Radiación solar	0
21577	7	Sololá	701	Sololá	1	Sololá	5	Mayo	2023-04-05T00:00:00	2024-11-08T04:00:00	2	Temperatura media	15.4
21578	7	Sololá	701	Sololá	1	Sololá	5	Mayo	2023-04-05T00:00:00	2024-11-08T04:00:00	4	Temperatura máxima	15.7
21579	7	Sololá	701	Sololá	1	Sololá	5	Mayo	2023-04-05T00:00:00	2024-11-08T04:00:00	3	Temperatura mínima	15.4
21580	7	Sololá	701	Sololá	1	Sololá	5	Mayo	2023-04-05T00:00:00	2024-11-08T04:00:00	5	Humedad	78
21581	7	Sololá	701	Sololá	1	Sololá	5	Mayo	2023-04-05T00:00:00	2024-11-08T04:00:00	6	Velocidad del viento	0
21582	7	Sololá	701	Sololá	1	Sololá	5	Mayo	2023-04-05T00:00:00	2024-11-08T04:00:00	7	Dirección del viento	0
21583	7	Sololá	701	Sololá	1	Sololá	5	Mayo	2023-04-05T00:00:00	2024-11-08T04:00:00	1	Precipitación	0
21584	7	Sololá	701	Sololá	1	Sololá	5	Mayo	2023-04-05T00:00:00	2024-11-08T04:00:00	8	Radiación solar	0
21585	7	Sololá	701	Sololá	1	Sololá	5	Mayo	2023-04-05T00:00:00	2024-11-08T05:00:00	2	Temperatura media	14.9
21586	7	Sololá	701	Sololá	1	Sololá	5	Mayo	2023-04-05T00:00:00	2024-11-08T05:00:00	4	Temperatura máxima	15.4
21587	7	Sololá	701	Sololá	1	Sololá	5	Mayo	2023-04-05T00:00:00	2024-11-08T05:00:00	3	Temperatura mínima	14.9
21588	7	Sololá	701	Sololá	1	Sololá	5	Mayo	2023-04-05T00:00:00	2024-11-08T05:00:00	5	Humedad	74
21589	7	Sololá	701	Sololá	1	Sololá	5	Mayo	2023-04-05T00:00:00	2024-11-08T05:00:00	6	Velocidad del viento	0
21590	7	Sololá	701	Sololá	1	Sololá	5	Mayo	2023-04-05T00:00:00	2024-11-08T05:00:00	7	Dirección del viento	0
21591	7	Sololá	701	Sololá	1	Sololá	5	Mayo	2023-04-05T00:00:00	2024-11-08T05:00:00	1	Precipitación	0
21592	7	Sololá	701	Sololá	1	Sololá	5	Mayo	2023-04-05T00:00:00	2024-11-08T05:00:00	8	Radiación solar	0
21593	7	Sololá	701	Sololá	1	Sololá	5	Mayo	2023-04-05T00:00:00	2024-11-08T06:00:00	2	Temperatura media	14.9
21594	7	Sololá	701	Sololá	1	Sololá	5	Mayo	2023-04-05T00:00:00	2024-11-08T06:00:00	4	Temperatura máxima	15
21595	7	Sololá	701	Sololá	1	Sololá	5	Mayo	2023-04-05T00:00:00	2024-11-08T06:00:00	3	Temperatura mínima	14.8
21596	7	Sololá	701	Sololá	1	Sololá	5	Mayo	2023-04-05T00:00:00	2024-11-08T06:00:00	5	Humedad	78
21597	7	Sololá	701	Sololá	1	Sololá	5	Mayo	2023-04-05T00:00:00	2024-11-08T06:00:00	6	Velocidad del viento	0
21598	7	Sololá	701	Sololá	1	Sololá	5	Mayo	2023-04-05T00:00:00	2024-11-08T06:00:00	7	Dirección del viento	0
21599	7	Sololá	701	Sololá	1	Sololá	5	Mayo	2023-04-05T00:00:00	2024-11-08T06:00:00	1	Precipitación	0
21600	7	Sololá	701	Sololá	1	Sololá	5	Mayo	2023-04-05T00:00:00	2024-11-08T06:00:00	8	Radiación solar	0
21601	7	Sololá	701	Sololá	1	Sololá	5	Mayo	2023-04-05T00:00:00	2024-11-08T07:00:00	2	Temperatura media	14.1
21602	7	Sololá	701	Sololá	1	Sololá	5	Mayo	2023-04-05T00:00:00	2024-11-08T07:00:00	4	Temperatura máxima	14.9
21603	7	Sololá	701	Sololá	1	Sololá	5	Mayo	2023-04-05T00:00:00	2024-11-08T07:00:00	3	Temperatura mínima	14.1
21604	7	Sololá	701	Sololá	1	Sololá	5	Mayo	2023-04-05T00:00:00	2024-11-08T07:00:00	5	Humedad	81
21605	7	Sololá	701	Sololá	1	Sololá	5	Mayo	2023-04-05T00:00:00	2024-11-08T07:00:00	6	Velocidad del viento	0
21606	7	Sololá	701	Sololá	1	Sololá	5	Mayo	2023-04-05T00:00:00	2024-11-08T07:00:00	7	Dirección del viento	0
21607	7	Sololá	701	Sololá	1	Sololá	5	Mayo	2023-04-05T00:00:00	2024-11-08T07:00:00	1	Precipitación	0
21608	7	Sololá	701	Sololá	1	Sololá	5	Mayo	2023-04-05T00:00:00	2024-11-08T07:00:00	8	Radiación solar	4
21609	7	Sololá	701	Sololá	1	Sololá	5	Mayo	2023-04-05T00:00:00	2024-11-08T08:00:00	2	Temperatura media	14.8
21610	7	Sololá	701	Sololá	1	Sololá	5	Mayo	2023-04-05T00:00:00	2024-11-08T08:00:00	4	Temperatura máxima	14.8
21611	7	Sololá	701	Sololá	1	Sololá	5	Mayo	2023-04-05T00:00:00	2024-11-08T08:00:00	3	Temperatura mínima	14.1
21612	7	Sololá	701	Sololá	1	Sololá	5	Mayo	2023-04-05T00:00:00	2024-11-08T08:00:00	5	Humedad	80
21613	7	Sololá	701	Sololá	1	Sololá	5	Mayo	2023-04-05T00:00:00	2024-11-08T08:00:00	6	Velocidad del viento	0
21614	7	Sololá	701	Sololá	1	Sololá	5	Mayo	2023-04-05T00:00:00	2024-11-08T08:00:00	7	Dirección del viento	0
21615	7	Sololá	701	Sololá	1	Sololá	5	Mayo	2023-04-05T00:00:00	2024-11-08T08:00:00	1	Precipitación	0
21616	7	Sololá	701	Sololá	1	Sololá	5	Mayo	2023-04-05T00:00:00	2024-11-08T08:00:00	8	Radiación solar	32
21617	7	Sololá	701	Sololá	1	Sololá	5	Mayo	2023-04-05T00:00:00	2024-11-08T09:00:00	2	Temperatura media	17.4
21618	7	Sololá	701	Sololá	1	Sololá	5	Mayo	2023-04-05T00:00:00	2024-11-08T09:00:00	4	Temperatura máxima	17.4
21619	7	Sololá	701	Sololá	1	Sololá	5	Mayo	2023-04-05T00:00:00	2024-11-08T09:00:00	3	Temperatura mínima	14.8
21620	7	Sololá	701	Sololá	1	Sololá	5	Mayo	2023-04-05T00:00:00	2024-11-08T09:00:00	5	Humedad	74
21621	7	Sololá	701	Sololá	1	Sololá	5	Mayo	2023-04-05T00:00:00	2024-11-08T09:00:00	6	Velocidad del viento	0
21622	7	Sololá	701	Sololá	1	Sololá	5	Mayo	2023-04-05T00:00:00	2024-11-08T09:00:00	7	Dirección del viento	0
21623	7	Sololá	701	Sololá	1	Sololá	5	Mayo	2023-04-05T00:00:00	2024-11-08T09:00:00	1	Precipitación	0
21624	7	Sololá	701	Sololá	1	Sololá	5	Mayo	2023-04-05T00:00:00	2024-11-08T09:00:00	8	Radiación solar	107
21625	7	Sololá	701	Sololá	1	Sololá	5	Mayo	2023-04-05T00:00:00	2024-11-08T10:00:00	2	Temperatura media	22.1
21626	7	Sololá	701	Sololá	1	Sololá	5	Mayo	2023-04-05T00:00:00	2024-11-08T10:00:00	4	Temperatura máxima	22.1
21627	7	Sololá	701	Sololá	1	Sololá	5	Mayo	2023-04-05T00:00:00	2024-11-08T10:00:00	3	Temperatura mínima	17.4
21628	7	Sololá	701	Sololá	1	Sololá	5	Mayo	2023-04-05T00:00:00	2024-11-08T10:00:00	5	Humedad	62
21629	7	Sololá	701	Sololá	1	Sololá	5	Mayo	2023-04-05T00:00:00	2024-11-08T10:00:00	6	Velocidad del viento	0
21630	7	Sololá	701	Sololá	1	Sololá	5	Mayo	2023-04-05T00:00:00	2024-11-08T10:00:00	7	Dirección del viento	0
21631	7	Sololá	701	Sololá	1	Sololá	5	Mayo	2023-04-05T00:00:00	2024-11-08T10:00:00	1	Precipitación	0
21632	7	Sololá	701	Sololá	1	Sololá	5	Mayo	2023-04-05T00:00:00	2024-11-08T10:00:00	8	Radiación solar	559
21633	7	Sololá	701	Sololá	1	Sololá	5	Mayo	2023-04-05T00:00:00	2024-11-08T11:00:00	2	Temperatura media	22.8
21634	7	Sololá	701	Sololá	1	Sololá	5	Mayo	2023-04-05T00:00:00	2024-11-08T11:00:00	4	Temperatura máxima	23.7
21635	7	Sololá	701	Sololá	1	Sololá	5	Mayo	2023-04-05T00:00:00	2024-11-08T11:00:00	3	Temperatura mínima	22.1
21636	7	Sololá	701	Sololá	1	Sololá	5	Mayo	2023-04-05T00:00:00	2024-11-08T11:00:00	5	Humedad	63
21637	7	Sololá	701	Sololá	1	Sololá	5	Mayo	2023-04-05T00:00:00	2024-11-08T11:00:00	6	Velocidad del viento	0
21638	7	Sololá	701	Sololá	1	Sololá	5	Mayo	2023-04-05T00:00:00	2024-11-08T11:00:00	7	Dirección del viento	0
21639	7	Sololá	701	Sololá	1	Sololá	5	Mayo	2023-04-05T00:00:00	2024-11-08T11:00:00	1	Precipitación	0
21640	7	Sololá	701	Sololá	1	Sololá	5	Mayo	2023-04-05T00:00:00	2024-11-08T11:00:00	8	Radiación solar	753
21641	7	Sololá	701	Sololá	1	Sololá	5	Mayo	2023-04-05T00:00:00	2024-11-08T12:00:00	2	Temperatura media	21.8
21642	7	Sololá	701	Sololá	1	Sololá	5	Mayo	2023-04-05T00:00:00	2024-11-08T12:00:00	4	Temperatura máxima	22.8
21643	7	Sololá	701	Sololá	1	Sololá	5	Mayo	2023-04-05T00:00:00	2024-11-08T12:00:00	3	Temperatura mínima	21.6
21644	7	Sololá	701	Sololá	1	Sololá	5	Mayo	2023-04-05T00:00:00	2024-11-08T12:00:00	5	Humedad	70
21645	7	Sololá	701	Sololá	1	Sololá	5	Mayo	2023-04-05T00:00:00	2024-11-08T12:00:00	6	Velocidad del viento	0
21646	7	Sololá	701	Sololá	1	Sololá	5	Mayo	2023-04-05T00:00:00	2024-11-08T12:00:00	7	Dirección del viento	0
21647	7	Sololá	701	Sololá	1	Sololá	5	Mayo	2023-04-05T00:00:00	2024-11-08T12:00:00	1	Precipitación	0
21648	7	Sololá	701	Sololá	1	Sololá	5	Mayo	2023-04-05T00:00:00	2024-11-08T12:00:00	8	Radiación solar	322
21649	7	Sololá	701	Sololá	1	Sololá	5	Mayo	2023-04-05T00:00:00	2024-11-08T13:00:00	2	Temperatura media	23.2
21650	7	Sololá	701	Sololá	1	Sololá	5	Mayo	2023-04-05T00:00:00	2024-11-08T13:00:00	4	Temperatura máxima	23.3
21651	7	Sololá	701	Sololá	1	Sololá	5	Mayo	2023-04-05T00:00:00	2024-11-08T13:00:00	3	Temperatura mínima	21.2
21652	7	Sololá	701	Sololá	1	Sololá	5	Mayo	2023-04-05T00:00:00	2024-11-08T13:00:00	5	Humedad	62
21653	7	Sololá	701	Sololá	1	Sololá	5	Mayo	2023-04-05T00:00:00	2024-11-08T13:00:00	6	Velocidad del viento	0
21654	7	Sololá	701	Sololá	1	Sololá	5	Mayo	2023-04-05T00:00:00	2024-11-08T13:00:00	7	Dirección del viento	0
21655	7	Sololá	701	Sololá	1	Sololá	5	Mayo	2023-04-05T00:00:00	2024-11-08T13:00:00	1	Precipitación	0
21656	7	Sololá	701	Sololá	1	Sololá	5	Mayo	2023-04-05T00:00:00	2024-11-08T13:00:00	8	Radiación solar	455
21657	7	Sololá	701	Sololá	1	Sololá	5	Mayo	2023-04-05T00:00:00	2024-11-08T14:00:00	2	Temperatura media	22.6
21658	7	Sololá	701	Sololá	1	Sololá	5	Mayo	2023-04-05T00:00:00	2024-11-08T14:00:00	4	Temperatura máxima	23.6
21659	7	Sololá	701	Sololá	1	Sololá	5	Mayo	2023-04-05T00:00:00	2024-11-08T14:00:00	3	Temperatura mínima	22.6
21660	7	Sololá	701	Sololá	1	Sololá	5	Mayo	2023-04-05T00:00:00	2024-11-08T14:00:00	5	Humedad	71
21661	7	Sololá	701	Sololá	1	Sololá	5	Mayo	2023-04-05T00:00:00	2024-11-08T14:00:00	6	Velocidad del viento	0
21662	7	Sololá	701	Sololá	1	Sololá	5	Mayo	2023-04-05T00:00:00	2024-11-08T14:00:00	7	Dirección del viento	0
21663	7	Sololá	701	Sololá	1	Sololá	5	Mayo	2023-04-05T00:00:00	2024-11-08T14:00:00	1	Precipitación	0
21664	7	Sololá	701	Sololá	1	Sololá	5	Mayo	2023-04-05T00:00:00	2024-11-08T14:00:00	8	Radiación solar	261
21665	7	Sololá	701	Sololá	1	Sololá	5	Mayo	2023-04-05T00:00:00	2024-11-08T15:00:00	2	Temperatura media	24.7
21666	7	Sololá	701	Sololá	1	Sololá	5	Mayo	2023-04-05T00:00:00	2024-11-08T15:00:00	4	Temperatura máxima	24.7
21667	7	Sololá	701	Sololá	1	Sololá	5	Mayo	2023-04-05T00:00:00	2024-11-08T15:00:00	3	Temperatura mínima	22.3
21668	7	Sololá	701	Sololá	1	Sololá	5	Mayo	2023-04-05T00:00:00	2024-11-08T15:00:00	5	Humedad	53
21669	7	Sololá	701	Sololá	1	Sololá	5	Mayo	2023-04-05T00:00:00	2024-11-08T15:00:00	6	Velocidad del viento	0
21670	7	Sololá	701	Sololá	1	Sololá	5	Mayo	2023-04-05T00:00:00	2024-11-08T15:00:00	7	Dirección del viento	0
21671	7	Sololá	701	Sololá	1	Sololá	5	Mayo	2023-04-05T00:00:00	2024-11-08T15:00:00	1	Precipitación	0
21672	7	Sololá	701	Sololá	1	Sololá	5	Mayo	2023-04-05T00:00:00	2024-11-08T15:00:00	8	Radiación solar	157
21673	7	Sololá	701	Sololá	1	Sololá	5	Mayo	2023-04-05T00:00:00	2024-11-08T16:00:00	2	Temperatura media	24.5
21674	7	Sololá	701	Sololá	1	Sololá	5	Mayo	2023-04-05T00:00:00	2024-11-08T16:00:00	4	Temperatura máxima	25.6
21675	7	Sololá	701	Sololá	1	Sololá	5	Mayo	2023-04-05T00:00:00	2024-11-08T16:00:00	3	Temperatura mínima	24.5
21676	7	Sololá	701	Sololá	1	Sololá	5	Mayo	2023-04-05T00:00:00	2024-11-08T16:00:00	5	Humedad	64
21677	7	Sololá	701	Sololá	1	Sololá	5	Mayo	2023-04-05T00:00:00	2024-11-08T16:00:00	6	Velocidad del viento	0
21678	7	Sololá	701	Sololá	1	Sololá	5	Mayo	2023-04-05T00:00:00	2024-11-08T16:00:00	7	Dirección del viento	0
21679	7	Sololá	701	Sololá	1	Sololá	5	Mayo	2023-04-05T00:00:00	2024-11-08T16:00:00	1	Precipitación	0
21680	7	Sololá	701	Sololá	1	Sololá	5	Mayo	2023-04-05T00:00:00	2024-11-08T16:00:00	8	Radiación solar	132
21681	7	Sololá	701	Sololá	1	Sololá	5	Mayo	2023-04-05T00:00:00	2024-11-08T17:00:00	2	Temperatura media	21.3
21682	7	Sololá	701	Sololá	1	Sololá	5	Mayo	2023-04-05T00:00:00	2024-11-08T17:00:00	4	Temperatura máxima	24.5
21683	7	Sololá	701	Sololá	1	Sololá	5	Mayo	2023-04-05T00:00:00	2024-11-08T17:00:00	3	Temperatura mínima	21.3
21684	7	Sololá	701	Sololá	1	Sololá	5	Mayo	2023-04-05T00:00:00	2024-11-08T17:00:00	5	Humedad	81
21685	7	Sololá	701	Sololá	1	Sololá	5	Mayo	2023-04-05T00:00:00	2024-11-08T17:00:00	6	Velocidad del viento	0
21686	7	Sololá	701	Sololá	1	Sololá	5	Mayo	2023-04-05T00:00:00	2024-11-08T17:00:00	7	Dirección del viento	0
21687	7	Sololá	701	Sololá	1	Sololá	5	Mayo	2023-04-05T00:00:00	2024-11-08T17:00:00	1	Precipitación	0
21688	7	Sololá	701	Sololá	1	Sololá	5	Mayo	2023-04-05T00:00:00	2024-11-08T17:00:00	8	Radiación solar	111
21689	7	Sololá	701	Sololá	1	Sololá	5	Mayo	2023-04-05T00:00:00	2024-11-08T18:00:00	2	Temperatura media	19.1
21690	7	Sololá	701	Sololá	1	Sololá	5	Mayo	2023-04-05T00:00:00	2024-11-08T18:00:00	4	Temperatura máxima	21.3
21691	7	Sololá	701	Sololá	1	Sololá	5	Mayo	2023-04-05T00:00:00	2024-11-08T18:00:00	3	Temperatura mínima	19.1
21692	7	Sololá	701	Sololá	1	Sololá	5	Mayo	2023-04-05T00:00:00	2024-11-08T18:00:00	5	Humedad	88
21693	7	Sololá	701	Sololá	1	Sololá	5	Mayo	2023-04-05T00:00:00	2024-11-08T18:00:00	6	Velocidad del viento	0
21694	7	Sololá	701	Sololá	1	Sololá	5	Mayo	2023-04-05T00:00:00	2024-11-08T18:00:00	7	Dirección del viento	0
21695	7	Sololá	701	Sololá	1	Sololá	5	Mayo	2023-04-05T00:00:00	2024-11-08T18:00:00	1	Precipitación	0
21696	7	Sololá	701	Sololá	1	Sololá	5	Mayo	2023-04-05T00:00:00	2024-11-08T18:00:00	8	Radiación solar	46
21697	7	Sololá	701	Sololá	1	Sololá	5	Mayo	2023-04-05T00:00:00	2024-11-08T19:00:00	2	Temperatura media	18.4
21698	7	Sololá	701	Sololá	1	Sololá	5	Mayo	2023-04-05T00:00:00	2024-11-08T19:00:00	4	Temperatura máxima	19.1
21699	7	Sololá	701	Sololá	1	Sololá	5	Mayo	2023-04-05T00:00:00	2024-11-08T19:00:00	3	Temperatura mínima	18.4
21700	7	Sololá	701	Sololá	1	Sololá	5	Mayo	2023-04-05T00:00:00	2024-11-08T19:00:00	5	Humedad	91
21701	7	Sololá	701	Sololá	1	Sololá	5	Mayo	2023-04-05T00:00:00	2024-11-08T19:00:00	6	Velocidad del viento	0
21702	7	Sololá	701	Sololá	1	Sololá	5	Mayo	2023-04-05T00:00:00	2024-11-08T19:00:00	7	Dirección del viento	0
21703	7	Sololá	701	Sololá	1	Sololá	5	Mayo	2023-04-05T00:00:00	2024-11-08T19:00:00	1	Precipitación	0
21704	7	Sololá	701	Sololá	1	Sololá	5	Mayo	2023-04-05T00:00:00	2024-11-08T19:00:00	8	Radiación solar	0
21705	7	Sololá	701	Sololá	1	Sololá	5	Mayo	2023-04-05T00:00:00	2024-11-08T20:00:00	2	Temperatura media	17.7
21706	7	Sololá	701	Sololá	1	Sololá	5	Mayo	2023-04-05T00:00:00	2024-11-08T20:00:00	4	Temperatura máxima	18.5
21707	7	Sololá	701	Sololá	1	Sololá	5	Mayo	2023-04-05T00:00:00	2024-11-08T20:00:00	3	Temperatura mínima	17.6
21708	7	Sololá	701	Sololá	1	Sololá	5	Mayo	2023-04-05T00:00:00	2024-11-08T20:00:00	5	Humedad	93
21709	7	Sololá	701	Sololá	1	Sololá	5	Mayo	2023-04-05T00:00:00	2024-11-08T20:00:00	6	Velocidad del viento	0
21710	7	Sololá	701	Sololá	1	Sololá	5	Mayo	2023-04-05T00:00:00	2024-11-08T20:00:00	7	Dirección del viento	0
21711	7	Sololá	701	Sololá	1	Sololá	5	Mayo	2023-04-05T00:00:00	2024-11-08T20:00:00	1	Precipitación	0
21712	7	Sololá	701	Sololá	1	Sololá	5	Mayo	2023-04-05T00:00:00	2024-11-08T20:00:00	8	Radiación solar	0
21713	7	Sololá	701	Sololá	1	Sololá	5	Mayo	2023-04-05T00:00:00	2024-11-08T21:00:00	2	Temperatura media	17.2
21714	7	Sololá	701	Sololá	1	Sololá	5	Mayo	2023-04-05T00:00:00	2024-11-08T21:00:00	4	Temperatura máxima	17.8
21715	7	Sololá	701	Sololá	1	Sololá	5	Mayo	2023-04-05T00:00:00	2024-11-08T21:00:00	3	Temperatura mínima	17.2
21716	7	Sololá	701	Sololá	1	Sololá	5	Mayo	2023-04-05T00:00:00	2024-11-08T21:00:00	5	Humedad	92
21717	7	Sololá	701	Sololá	1	Sololá	5	Mayo	2023-04-05T00:00:00	2024-11-08T21:00:00	6	Velocidad del viento	0
21718	7	Sololá	701	Sololá	1	Sololá	5	Mayo	2023-04-05T00:00:00	2024-11-08T21:00:00	7	Dirección del viento	0
21719	7	Sololá	701	Sololá	1	Sololá	5	Mayo	2023-04-05T00:00:00	2024-11-08T21:00:00	1	Precipitación	0
21720	7	Sololá	701	Sololá	1	Sololá	5	Mayo	2023-04-05T00:00:00	2024-11-08T21:00:00	8	Radiación solar	0
21721	7	Sololá	701	Sololá	1	Sololá	5	Mayo	2023-04-05T00:00:00	2024-11-08T22:00:00	2	Temperatura media	16.6
21722	7	Sololá	701	Sololá	1	Sololá	5	Mayo	2023-04-05T00:00:00	2024-11-08T22:00:00	4	Temperatura máxima	17.2
21723	7	Sololá	701	Sololá	1	Sololá	5	Mayo	2023-04-05T00:00:00	2024-11-08T22:00:00	3	Temperatura mínima	16.6
21724	7	Sololá	701	Sololá	1	Sololá	5	Mayo	2023-04-05T00:00:00	2024-11-08T22:00:00	5	Humedad	86
21725	7	Sololá	701	Sololá	1	Sololá	5	Mayo	2023-04-05T00:00:00	2024-11-08T22:00:00	6	Velocidad del viento	0
21726	7	Sololá	701	Sololá	1	Sololá	5	Mayo	2023-04-05T00:00:00	2024-11-08T22:00:00	7	Dirección del viento	0
21727	7	Sololá	701	Sololá	1	Sololá	5	Mayo	2023-04-05T00:00:00	2024-11-08T22:00:00	1	Precipitación	0
21728	7	Sololá	701	Sololá	1	Sololá	5	Mayo	2023-04-05T00:00:00	2024-11-08T22:00:00	8	Radiación solar	0
21729	7	Sololá	701	Sololá	1	Sololá	5	Mayo	2023-04-05T00:00:00	2024-11-08T23:00:00	2	Temperatura media	16.4
21730	7	Sololá	701	Sololá	1	Sololá	5	Mayo	2023-04-05T00:00:00	2024-11-08T23:00:00	4	Temperatura máxima	16.6
21731	7	Sololá	701	Sololá	1	Sololá	5	Mayo	2023-04-05T00:00:00	2024-11-08T23:00:00	3	Temperatura mínima	16.4
21732	7	Sololá	701	Sololá	1	Sololá	5	Mayo	2023-04-05T00:00:00	2024-11-08T23:00:00	5	Humedad	84
21733	7	Sololá	701	Sololá	1	Sololá	5	Mayo	2023-04-05T00:00:00	2024-11-08T23:00:00	6	Velocidad del viento	0
21734	7	Sololá	701	Sololá	1	Sololá	5	Mayo	2023-04-05T00:00:00	2024-11-08T23:00:00	7	Dirección del viento	0
21735	7	Sololá	701	Sololá	1	Sololá	5	Mayo	2023-04-05T00:00:00	2024-11-08T23:00:00	1	Precipitación	0
21736	7	Sololá	701	Sololá	1	Sololá	5	Mayo	2023-04-05T00:00:00	2024-11-08T23:00:00	8	Radiación solar	0
21737	7	Sololá	701	Sololá	1	Sololá	5	Mayo	2023-05-05T00:00:00	2024-11-08T00:00:00	2	Temperatura media	16.4
21738	7	Sololá	701	Sololá	1	Sololá	5	Mayo	2023-05-05T00:00:00	2024-11-08T00:00:00	4	Temperatura máxima	16.5
21739	7	Sololá	701	Sololá	1	Sololá	5	Mayo	2023-05-05T00:00:00	2024-11-08T00:00:00	3	Temperatura mínima	16.4
21740	7	Sololá	701	Sololá	1	Sololá	5	Mayo	2023-05-05T00:00:00	2024-11-08T00:00:00	5	Humedad	84
21741	7	Sololá	701	Sololá	1	Sololá	5	Mayo	2023-05-05T00:00:00	2024-11-08T00:00:00	6	Velocidad del viento	0
21742	7	Sololá	701	Sololá	1	Sololá	5	Mayo	2023-05-05T00:00:00	2024-11-08T00:00:00	7	Dirección del viento	0
21743	7	Sololá	701	Sololá	1	Sololá	5	Mayo	2023-05-05T00:00:00	2024-11-08T00:00:00	1	Precipitación	0
21744	7	Sololá	701	Sololá	1	Sololá	5	Mayo	2023-05-05T00:00:00	2024-11-08T00:00:00	8	Radiación solar	0
21745	7	Sololá	701	Sololá	1	Sololá	5	Mayo	2023-05-05T00:00:00	2024-11-08T01:00:00	2	Temperatura media	15.4
21746	7	Sololá	701	Sololá	1	Sololá	5	Mayo	2023-05-05T00:00:00	2024-11-08T01:00:00	4	Temperatura máxima	16.5
21747	7	Sololá	701	Sololá	1	Sololá	5	Mayo	2023-05-05T00:00:00	2024-11-08T01:00:00	3	Temperatura mínima	15.4
21748	7	Sololá	701	Sololá	1	Sololá	5	Mayo	2023-05-05T00:00:00	2024-11-08T01:00:00	5	Humedad	85
21749	7	Sololá	701	Sololá	1	Sololá	5	Mayo	2023-05-05T00:00:00	2024-11-08T01:00:00	6	Velocidad del viento	0
21750	7	Sololá	701	Sololá	1	Sololá	5	Mayo	2023-05-05T00:00:00	2024-11-08T01:00:00	7	Dirección del viento	0
21751	7	Sololá	701	Sololá	1	Sololá	5	Mayo	2023-05-05T00:00:00	2024-11-08T01:00:00	1	Precipitación	0
21752	7	Sololá	701	Sololá	1	Sololá	5	Mayo	2023-05-05T00:00:00	2024-11-08T01:00:00	8	Radiación solar	0
21753	7	Sololá	701	Sololá	1	Sololá	5	Mayo	2023-05-05T00:00:00	2024-11-08T02:00:00	2	Temperatura media	14.9
21754	7	Sololá	701	Sololá	1	Sololá	5	Mayo	2023-05-05T00:00:00	2024-11-08T02:00:00	4	Temperatura máxima	15.4
21755	7	Sololá	701	Sololá	1	Sololá	5	Mayo	2023-05-05T00:00:00	2024-11-08T02:00:00	3	Temperatura mínima	14.9
21756	7	Sololá	701	Sololá	1	Sololá	5	Mayo	2023-05-05T00:00:00	2024-11-08T02:00:00	5	Humedad	84
21757	7	Sololá	701	Sololá	1	Sololá	5	Mayo	2023-05-05T00:00:00	2024-11-08T02:00:00	6	Velocidad del viento	0
21758	7	Sololá	701	Sololá	1	Sololá	5	Mayo	2023-05-05T00:00:00	2024-11-08T02:00:00	7	Dirección del viento	0
21759	7	Sololá	701	Sololá	1	Sololá	5	Mayo	2023-05-05T00:00:00	2024-11-08T02:00:00	1	Precipitación	0
21760	7	Sololá	701	Sololá	1	Sololá	5	Mayo	2023-05-05T00:00:00	2024-11-08T02:00:00	8	Radiación solar	0
21761	7	Sololá	701	Sololá	1	Sololá	5	Mayo	2023-05-05T00:00:00	2024-11-08T03:00:00	2	Temperatura media	15.2
21762	7	Sololá	701	Sololá	1	Sololá	5	Mayo	2023-05-05T00:00:00	2024-11-08T03:00:00	4	Temperatura máxima	15.2
21763	7	Sololá	701	Sololá	1	Sololá	5	Mayo	2023-05-05T00:00:00	2024-11-08T03:00:00	3	Temperatura mínima	14.9
21764	7	Sololá	701	Sololá	1	Sololá	5	Mayo	2023-05-05T00:00:00	2024-11-08T03:00:00	5	Humedad	79
21765	7	Sololá	701	Sololá	1	Sololá	5	Mayo	2023-05-05T00:00:00	2024-11-08T03:00:00	6	Velocidad del viento	0
21766	7	Sololá	701	Sololá	1	Sololá	5	Mayo	2023-05-05T00:00:00	2024-11-08T03:00:00	7	Dirección del viento	0
21767	7	Sololá	701	Sololá	1	Sololá	5	Mayo	2023-05-05T00:00:00	2024-11-08T03:00:00	1	Precipitación	0
21768	7	Sololá	701	Sololá	1	Sololá	5	Mayo	2023-05-05T00:00:00	2024-11-08T03:00:00	8	Radiación solar	0
21769	7	Sololá	701	Sololá	1	Sololá	5	Mayo	2023-05-05T00:00:00	2024-11-08T04:00:00	2	Temperatura media	15.1
21770	7	Sololá	701	Sololá	1	Sololá	5	Mayo	2023-05-05T00:00:00	2024-11-08T04:00:00	4	Temperatura máxima	15.2
21771	7	Sololá	701	Sololá	1	Sololá	5	Mayo	2023-05-05T00:00:00	2024-11-08T04:00:00	3	Temperatura mínima	15.1
21772	7	Sololá	701	Sololá	1	Sololá	5	Mayo	2023-05-05T00:00:00	2024-11-08T04:00:00	5	Humedad	77
21773	7	Sololá	701	Sololá	1	Sololá	5	Mayo	2023-05-05T00:00:00	2024-11-08T04:00:00	6	Velocidad del viento	0
21774	7	Sololá	701	Sololá	1	Sololá	5	Mayo	2023-05-05T00:00:00	2024-11-08T04:00:00	7	Dirección del viento	0
21775	7	Sololá	701	Sololá	1	Sololá	5	Mayo	2023-05-05T00:00:00	2024-11-08T04:00:00	1	Precipitación	0
21776	7	Sololá	701	Sololá	1	Sololá	5	Mayo	2023-05-05T00:00:00	2024-11-08T04:00:00	8	Radiación solar	0
21777	7	Sololá	701	Sololá	1	Sololá	5	Mayo	2023-05-05T00:00:00	2024-11-08T05:00:00	2	Temperatura media	14.7
21778	7	Sololá	701	Sololá	1	Sololá	5	Mayo	2023-05-05T00:00:00	2024-11-08T05:00:00	4	Temperatura máxima	15.1
21779	7	Sololá	701	Sololá	1	Sololá	5	Mayo	2023-05-05T00:00:00	2024-11-08T05:00:00	3	Temperatura mínima	14.3
21780	7	Sololá	701	Sololá	1	Sololá	5	Mayo	2023-05-05T00:00:00	2024-11-08T05:00:00	5	Humedad	73
21781	7	Sololá	701	Sololá	1	Sololá	5	Mayo	2023-05-05T00:00:00	2024-11-08T05:00:00	6	Velocidad del viento	0
21782	7	Sololá	701	Sololá	1	Sololá	5	Mayo	2023-05-05T00:00:00	2024-11-08T05:00:00	7	Dirección del viento	0
21783	7	Sololá	701	Sololá	1	Sololá	5	Mayo	2023-05-05T00:00:00	2024-11-08T05:00:00	1	Precipitación	0
21784	7	Sololá	701	Sololá	1	Sololá	5	Mayo	2023-05-05T00:00:00	2024-11-08T05:00:00	8	Radiación solar	0
21785	7	Sololá	701	Sololá	1	Sololá	5	Mayo	2023-05-05T00:00:00	2024-11-08T06:00:00	2	Temperatura media	14.4
21786	7	Sololá	701	Sololá	1	Sololá	5	Mayo	2023-05-05T00:00:00	2024-11-08T06:00:00	4	Temperatura máxima	14.9
21787	7	Sololá	701	Sololá	1	Sololá	5	Mayo	2023-05-05T00:00:00	2024-11-08T06:00:00	3	Temperatura mínima	14.3
21788	7	Sololá	701	Sololá	1	Sololá	5	Mayo	2023-05-05T00:00:00	2024-11-08T06:00:00	5	Humedad	69
21789	7	Sololá	701	Sololá	1	Sololá	5	Mayo	2023-05-05T00:00:00	2024-11-08T06:00:00	6	Velocidad del viento	0
21790	7	Sololá	701	Sololá	1	Sololá	5	Mayo	2023-05-05T00:00:00	2024-11-08T06:00:00	7	Dirección del viento	0
21791	7	Sololá	701	Sololá	1	Sololá	5	Mayo	2023-05-05T00:00:00	2024-11-08T06:00:00	1	Precipitación	0
21792	7	Sololá	701	Sololá	1	Sololá	5	Mayo	2023-05-05T00:00:00	2024-11-08T06:00:00	8	Radiación solar	0
21793	7	Sololá	701	Sololá	1	Sololá	5	Mayo	2023-05-05T00:00:00	2024-11-08T07:00:00	2	Temperatura media	14.7
21794	7	Sololá	701	Sololá	1	Sololá	5	Mayo	2023-05-05T00:00:00	2024-11-08T07:00:00	4	Temperatura máxima	14.7
21795	7	Sololá	701	Sololá	1	Sololá	5	Mayo	2023-05-05T00:00:00	2024-11-08T07:00:00	3	Temperatura mínima	14.3
21796	7	Sololá	701	Sololá	1	Sololá	5	Mayo	2023-05-05T00:00:00	2024-11-08T07:00:00	5	Humedad	70
21797	7	Sololá	701	Sololá	1	Sololá	5	Mayo	2023-05-05T00:00:00	2024-11-08T07:00:00	6	Velocidad del viento	0
21798	7	Sololá	701	Sololá	1	Sololá	5	Mayo	2023-05-05T00:00:00	2024-11-08T07:00:00	7	Dirección del viento	0
21799	7	Sololá	701	Sololá	1	Sololá	5	Mayo	2023-05-05T00:00:00	2024-11-08T07:00:00	1	Precipitación	0
21800	7	Sololá	701	Sololá	1	Sololá	5	Mayo	2023-05-05T00:00:00	2024-11-08T07:00:00	8	Radiación solar	2
21801	7	Sololá	701	Sololá	1	Sololá	5	Mayo	2023-05-05T00:00:00	2024-11-08T08:00:00	2	Temperatura media	15.2
21802	7	Sololá	701	Sololá	1	Sololá	5	Mayo	2023-05-05T00:00:00	2024-11-08T08:00:00	4	Temperatura máxima	15.2
21803	7	Sololá	701	Sololá	1	Sololá	5	Mayo	2023-05-05T00:00:00	2024-11-08T08:00:00	3	Temperatura mínima	14.6
21804	7	Sololá	701	Sololá	1	Sololá	5	Mayo	2023-05-05T00:00:00	2024-11-08T08:00:00	5	Humedad	70
21805	7	Sololá	701	Sololá	1	Sololá	5	Mayo	2023-05-05T00:00:00	2024-11-08T08:00:00	6	Velocidad del viento	0
21806	7	Sololá	701	Sololá	1	Sololá	5	Mayo	2023-05-05T00:00:00	2024-11-08T08:00:00	7	Dirección del viento	0
21807	7	Sololá	701	Sololá	1	Sololá	5	Mayo	2023-05-05T00:00:00	2024-11-08T08:00:00	1	Precipitación	0
21808	7	Sololá	701	Sololá	1	Sololá	5	Mayo	2023-05-05T00:00:00	2024-11-08T08:00:00	8	Radiación solar	32
21809	7	Sololá	701	Sololá	1	Sololá	5	Mayo	2023-05-05T00:00:00	2024-11-08T09:00:00	2	Temperatura media	18.4
21810	7	Sololá	701	Sololá	1	Sololá	5	Mayo	2023-05-05T00:00:00	2024-11-08T09:00:00	4	Temperatura máxima	18.4
21811	7	Sololá	701	Sololá	1	Sololá	5	Mayo	2023-05-05T00:00:00	2024-11-08T09:00:00	3	Temperatura mínima	15.2
21812	7	Sololá	701	Sololá	1	Sololá	5	Mayo	2023-05-05T00:00:00	2024-11-08T09:00:00	5	Humedad	61
21813	7	Sololá	701	Sololá	1	Sololá	5	Mayo	2023-05-05T00:00:00	2024-11-08T09:00:00	6	Velocidad del viento	0
21814	7	Sololá	701	Sololá	1	Sololá	5	Mayo	2023-05-05T00:00:00	2024-11-08T09:00:00	7	Dirección del viento	0
21815	7	Sololá	701	Sololá	1	Sololá	5	Mayo	2023-05-05T00:00:00	2024-11-08T09:00:00	1	Precipitación	0
21816	7	Sololá	701	Sololá	1	Sololá	5	Mayo	2023-05-05T00:00:00	2024-11-08T09:00:00	8	Radiación solar	111
21817	7	Sololá	701	Sololá	1	Sololá	5	Mayo	2023-05-05T00:00:00	2024-11-08T10:00:00	2	Temperatura media	22.6
21818	7	Sololá	701	Sololá	1	Sololá	5	Mayo	2023-05-05T00:00:00	2024-11-08T10:00:00	4	Temperatura máxima	22.6
21819	7	Sololá	701	Sololá	1	Sololá	5	Mayo	2023-05-05T00:00:00	2024-11-08T10:00:00	3	Temperatura mínima	18.4
21820	7	Sololá	701	Sololá	1	Sololá	5	Mayo	2023-05-05T00:00:00	2024-11-08T10:00:00	5	Humedad	52
21821	7	Sololá	701	Sololá	1	Sololá	5	Mayo	2023-05-05T00:00:00	2024-11-08T10:00:00	6	Velocidad del viento	0
21822	7	Sololá	701	Sololá	1	Sololá	5	Mayo	2023-05-05T00:00:00	2024-11-08T10:00:00	7	Dirección del viento	0
21823	7	Sololá	701	Sololá	1	Sololá	5	Mayo	2023-05-05T00:00:00	2024-11-08T10:00:00	1	Precipitación	0
21824	7	Sololá	701	Sololá	1	Sololá	5	Mayo	2023-05-05T00:00:00	2024-11-08T10:00:00	8	Radiación solar	609
21825	7	Sololá	701	Sololá	1	Sololá	5	Mayo	2023-05-05T00:00:00	2024-11-08T11:00:00	2	Temperatura media	24.6
21826	7	Sololá	701	Sololá	1	Sololá	5	Mayo	2023-05-05T00:00:00	2024-11-08T11:00:00	4	Temperatura máxima	24.6
21827	7	Sololá	701	Sololá	1	Sololá	5	Mayo	2023-05-05T00:00:00	2024-11-08T11:00:00	3	Temperatura mínima	22.6
21828	7	Sololá	701	Sololá	1	Sololá	5	Mayo	2023-05-05T00:00:00	2024-11-08T11:00:00	5	Humedad	42
21829	7	Sololá	701	Sololá	1	Sololá	5	Mayo	2023-05-05T00:00:00	2024-11-08T11:00:00	6	Velocidad del viento	0
21830	7	Sololá	701	Sololá	1	Sololá	5	Mayo	2023-05-05T00:00:00	2024-11-08T11:00:00	7	Dirección del viento	0
21831	7	Sololá	701	Sololá	1	Sololá	5	Mayo	2023-05-05T00:00:00	2024-11-08T11:00:00	1	Precipitación	0
21832	7	Sololá	701	Sololá	1	Sololá	5	Mayo	2023-05-05T00:00:00	2024-11-08T11:00:00	8	Radiación solar	805
21833	7	Sololá	701	Sololá	1	Sololá	5	Mayo	2023-05-05T00:00:00	2024-11-08T12:00:00	2	Temperatura media	25.8
21834	7	Sololá	701	Sololá	1	Sololá	5	Mayo	2023-05-05T00:00:00	2024-11-08T12:00:00	4	Temperatura máxima	25.9
21835	7	Sololá	701	Sololá	1	Sololá	5	Mayo	2023-05-05T00:00:00	2024-11-08T12:00:00	3	Temperatura mínima	24.6
21836	7	Sololá	701	Sololá	1	Sololá	5	Mayo	2023-05-05T00:00:00	2024-11-08T12:00:00	5	Humedad	35
21837	7	Sololá	701	Sololá	1	Sololá	5	Mayo	2023-05-05T00:00:00	2024-11-08T12:00:00	6	Velocidad del viento	0
21838	7	Sololá	701	Sololá	1	Sololá	5	Mayo	2023-05-05T00:00:00	2024-11-08T12:00:00	7	Dirección del viento	0
21839	7	Sololá	701	Sololá	1	Sololá	5	Mayo	2023-05-05T00:00:00	2024-11-08T12:00:00	1	Precipitación	0
21840	7	Sololá	701	Sololá	1	Sololá	5	Mayo	2023-05-05T00:00:00	2024-11-08T12:00:00	8	Radiación solar	940
21841	7	Sololá	701	Sololá	1	Sololá	5	Mayo	2023-05-05T00:00:00	2024-11-08T13:00:00	2	Temperatura media	26.1
21842	7	Sololá	701	Sololá	1	Sololá	5	Mayo	2023-05-05T00:00:00	2024-11-08T13:00:00	4	Temperatura máxima	26.3
21843	7	Sololá	701	Sololá	1	Sololá	5	Mayo	2023-05-05T00:00:00	2024-11-08T13:00:00	3	Temperatura mínima	25.8
21844	7	Sololá	701	Sololá	1	Sololá	5	Mayo	2023-05-05T00:00:00	2024-11-08T13:00:00	5	Humedad	32
21845	7	Sololá	701	Sololá	1	Sololá	5	Mayo	2023-05-05T00:00:00	2024-11-08T13:00:00	6	Velocidad del viento	0
21846	7	Sololá	701	Sololá	1	Sololá	5	Mayo	2023-05-05T00:00:00	2024-11-08T13:00:00	7	Dirección del viento	0
21847	7	Sololá	701	Sololá	1	Sololá	5	Mayo	2023-05-05T00:00:00	2024-11-08T13:00:00	1	Precipitación	0
21848	7	Sololá	701	Sololá	1	Sololá	5	Mayo	2023-05-05T00:00:00	2024-11-08T13:00:00	8	Radiación solar	970
21849	7	Sololá	701	Sololá	1	Sololá	5	Mayo	2023-05-05T00:00:00	2024-11-08T14:00:00	2	Temperatura media	26.3
21850	7	Sololá	701	Sololá	1	Sololá	5	Mayo	2023-05-05T00:00:00	2024-11-08T14:00:00	4	Temperatura máxima	26.9
21851	7	Sololá	701	Sololá	1	Sololá	5	Mayo	2023-05-05T00:00:00	2024-11-08T14:00:00	3	Temperatura mínima	26.1
21852	7	Sololá	701	Sololá	1	Sololá	5	Mayo	2023-05-05T00:00:00	2024-11-08T14:00:00	5	Humedad	29
21853	7	Sololá	701	Sololá	1	Sololá	5	Mayo	2023-05-05T00:00:00	2024-11-08T14:00:00	6	Velocidad del viento	1.6
21854	7	Sololá	701	Sololá	1	Sololá	5	Mayo	2023-05-05T00:00:00	2024-11-08T14:00:00	7	Dirección del viento	1.61
21855	7	Sololá	701	Sololá	1	Sololá	5	Mayo	2023-05-05T00:00:00	2024-11-08T14:00:00	1	Precipitación	0
21856	7	Sololá	701	Sololá	1	Sololá	5	Mayo	2023-05-05T00:00:00	2024-11-08T14:00:00	8	Radiación solar	782
21857	7	Sololá	701	Sololá	1	Sololá	5	Mayo	2023-05-05T00:00:00	2024-11-08T15:00:00	2	Temperatura media	27.1
21858	7	Sololá	701	Sololá	1	Sololá	5	Mayo	2023-05-05T00:00:00	2024-11-08T15:00:00	4	Temperatura máxima	27.1
21859	7	Sololá	701	Sololá	1	Sololá	5	Mayo	2023-05-05T00:00:00	2024-11-08T15:00:00	3	Temperatura mínima	26.2
21860	7	Sololá	701	Sololá	1	Sololá	5	Mayo	2023-05-05T00:00:00	2024-11-08T15:00:00	5	Humedad	30
21861	7	Sololá	701	Sololá	1	Sololá	5	Mayo	2023-05-05T00:00:00	2024-11-08T15:00:00	6	Velocidad del viento	0
21862	7	Sololá	701	Sololá	1	Sololá	5	Mayo	2023-05-05T00:00:00	2024-11-08T15:00:00	7	Dirección del viento	0
21863	7	Sololá	701	Sololá	1	Sololá	5	Mayo	2023-05-05T00:00:00	2024-11-08T15:00:00	1	Precipitación	0
21864	7	Sololá	701	Sololá	1	Sololá	5	Mayo	2023-05-05T00:00:00	2024-11-08T15:00:00	8	Radiación solar	119
21865	7	Sololá	701	Sololá	1	Sololá	5	Mayo	2023-05-05T00:00:00	2024-11-08T16:00:00	2	Temperatura media	23.9
21866	7	Sololá	701	Sololá	1	Sololá	5	Mayo	2023-05-05T00:00:00	2024-11-08T16:00:00	4	Temperatura máxima	27.1
21867	7	Sololá	701	Sololá	1	Sololá	5	Mayo	2023-05-05T00:00:00	2024-11-08T16:00:00	3	Temperatura mínima	23.9
21868	7	Sololá	701	Sololá	1	Sololá	5	Mayo	2023-05-05T00:00:00	2024-11-08T16:00:00	5	Humedad	61
21869	7	Sololá	701	Sololá	1	Sololá	5	Mayo	2023-05-05T00:00:00	2024-11-08T16:00:00	6	Velocidad del viento	0
21870	7	Sololá	701	Sololá	1	Sololá	5	Mayo	2023-05-05T00:00:00	2024-11-08T16:00:00	7	Dirección del viento	0
21871	7	Sololá	701	Sololá	1	Sololá	5	Mayo	2023-05-05T00:00:00	2024-11-08T16:00:00	1	Precipitación	0
21872	7	Sololá	701	Sololá	1	Sololá	5	Mayo	2023-05-05T00:00:00	2024-11-08T16:00:00	8	Radiación solar	71
21873	7	Sololá	701	Sololá	1	Sololá	5	Mayo	2023-05-05T00:00:00	2024-11-08T17:00:00	2	Temperatura media	23.1
21874	7	Sololá	701	Sololá	1	Sololá	5	Mayo	2023-05-05T00:00:00	2024-11-08T17:00:00	4	Temperatura máxima	23.9
21875	7	Sololá	701	Sololá	1	Sololá	5	Mayo	2023-05-05T00:00:00	2024-11-08T17:00:00	3	Temperatura mínima	23.1
21876	7	Sololá	701	Sololá	1	Sololá	5	Mayo	2023-05-05T00:00:00	2024-11-08T17:00:00	5	Humedad	68
21877	7	Sololá	701	Sololá	1	Sololá	5	Mayo	2023-05-05T00:00:00	2024-11-08T17:00:00	6	Velocidad del viento	0
21878	7	Sololá	701	Sololá	1	Sololá	5	Mayo	2023-05-05T00:00:00	2024-11-08T17:00:00	7	Dirección del viento	0
21879	7	Sololá	701	Sololá	1	Sololá	5	Mayo	2023-05-05T00:00:00	2024-11-08T17:00:00	1	Precipitación	0
21880	7	Sololá	701	Sololá	1	Sololá	5	Mayo	2023-05-05T00:00:00	2024-11-08T17:00:00	8	Radiación solar	59
21881	7	Sololá	701	Sololá	1	Sololá	5	Mayo	2023-05-05T00:00:00	2024-11-08T18:00:00	2	Temperatura media	21.8
21882	7	Sololá	701	Sololá	1	Sololá	5	Mayo	2023-05-05T00:00:00	2024-11-08T18:00:00	4	Temperatura máxima	23.1
21883	7	Sololá	701	Sololá	1	Sololá	5	Mayo	2023-05-05T00:00:00	2024-11-08T18:00:00	3	Temperatura mínima	21.8
21884	7	Sololá	701	Sololá	1	Sololá	5	Mayo	2023-05-05T00:00:00	2024-11-08T18:00:00	5	Humedad	76
21885	7	Sololá	701	Sololá	1	Sololá	5	Mayo	2023-05-05T00:00:00	2024-11-08T18:00:00	6	Velocidad del viento	0
21886	7	Sololá	701	Sololá	1	Sololá	5	Mayo	2023-05-05T00:00:00	2024-11-08T18:00:00	7	Dirección del viento	0
21887	7	Sololá	701	Sololá	1	Sololá	5	Mayo	2023-05-05T00:00:00	2024-11-08T18:00:00	1	Precipitación	0
21888	7	Sololá	701	Sololá	1	Sololá	5	Mayo	2023-05-05T00:00:00	2024-11-08T18:00:00	8	Radiación solar	42
21889	7	Sololá	701	Sololá	1	Sololá	5	Mayo	2023-05-05T00:00:00	2024-11-08T19:00:00	2	Temperatura media	20.2
21890	7	Sololá	701	Sololá	1	Sololá	5	Mayo	2023-05-05T00:00:00	2024-11-08T19:00:00	4	Temperatura máxima	21.9
21891	7	Sololá	701	Sololá	1	Sololá	5	Mayo	2023-05-05T00:00:00	2024-11-08T19:00:00	3	Temperatura mínima	20.2
21892	7	Sololá	701	Sololá	1	Sololá	5	Mayo	2023-05-05T00:00:00	2024-11-08T19:00:00	5	Humedad	83
21893	7	Sololá	701	Sololá	1	Sololá	5	Mayo	2023-05-05T00:00:00	2024-11-08T19:00:00	6	Velocidad del viento	0
21894	7	Sololá	701	Sololá	1	Sololá	5	Mayo	2023-05-05T00:00:00	2024-11-08T19:00:00	7	Dirección del viento	0
21895	7	Sololá	701	Sololá	1	Sololá	5	Mayo	2023-05-05T00:00:00	2024-11-08T19:00:00	1	Precipitación	0
21896	7	Sololá	701	Sololá	1	Sololá	5	Mayo	2023-05-05T00:00:00	2024-11-08T19:00:00	8	Radiación solar	0
21897	7	Sololá	701	Sololá	1	Sololá	5	Mayo	2023-05-05T00:00:00	2024-11-08T20:00:00	2	Temperatura media	18.2
21898	7	Sololá	701	Sololá	1	Sololá	5	Mayo	2023-05-05T00:00:00	2024-11-08T20:00:00	4	Temperatura máxima	20.2
21899	7	Sololá	701	Sololá	1	Sololá	5	Mayo	2023-05-05T00:00:00	2024-11-08T20:00:00	3	Temperatura mínima	18.2
21900	7	Sololá	701	Sololá	1	Sololá	5	Mayo	2023-05-05T00:00:00	2024-11-08T20:00:00	5	Humedad	89
21901	7	Sololá	701	Sololá	1	Sololá	5	Mayo	2023-05-05T00:00:00	2024-11-08T20:00:00	6	Velocidad del viento	0
21902	7	Sololá	701	Sololá	1	Sololá	5	Mayo	2023-05-05T00:00:00	2024-11-08T20:00:00	7	Dirección del viento	0
21903	7	Sololá	701	Sololá	1	Sololá	5	Mayo	2023-05-05T00:00:00	2024-11-08T20:00:00	1	Precipitación	0
21904	7	Sololá	701	Sololá	1	Sololá	5	Mayo	2023-05-05T00:00:00	2024-11-08T20:00:00	8	Radiación solar	0
21905	7	Sololá	701	Sololá	1	Sololá	5	Mayo	2023-05-05T00:00:00	2024-11-08T21:00:00	2	Temperatura media	17.7
21906	7	Sololá	701	Sololá	1	Sololá	5	Mayo	2023-05-05T00:00:00	2024-11-08T21:00:00	4	Temperatura máxima	18.3
21907	7	Sololá	701	Sololá	1	Sololá	5	Mayo	2023-05-05T00:00:00	2024-11-08T21:00:00	3	Temperatura mínima	17.4
21908	7	Sololá	701	Sololá	1	Sololá	5	Mayo	2023-05-05T00:00:00	2024-11-08T21:00:00	5	Humedad	79
21909	7	Sololá	701	Sololá	1	Sololá	5	Mayo	2023-05-05T00:00:00	2024-11-08T21:00:00	6	Velocidad del viento	0
21910	7	Sololá	701	Sololá	1	Sololá	5	Mayo	2023-05-05T00:00:00	2024-11-08T21:00:00	7	Dirección del viento	0
21911	7	Sololá	701	Sololá	1	Sololá	5	Mayo	2023-05-05T00:00:00	2024-11-08T21:00:00	1	Precipitación	0
21912	7	Sololá	701	Sololá	1	Sololá	5	Mayo	2023-05-05T00:00:00	2024-11-08T21:00:00	8	Radiación solar	0
21913	7	Sololá	701	Sololá	1	Sololá	5	Mayo	2023-05-05T00:00:00	2024-11-08T22:00:00	2	Temperatura media	17.6
21914	7	Sololá	701	Sololá	1	Sololá	5	Mayo	2023-05-05T00:00:00	2024-11-08T22:00:00	4	Temperatura máxima	17.9
21915	7	Sololá	701	Sololá	1	Sololá	5	Mayo	2023-05-05T00:00:00	2024-11-08T22:00:00	3	Temperatura mínima	17.6
21916	7	Sololá	701	Sololá	1	Sololá	5	Mayo	2023-05-05T00:00:00	2024-11-08T22:00:00	5	Humedad	80
21917	7	Sololá	701	Sololá	1	Sololá	5	Mayo	2023-05-05T00:00:00	2024-11-08T22:00:00	6	Velocidad del viento	0
21918	7	Sololá	701	Sololá	1	Sololá	5	Mayo	2023-05-05T00:00:00	2024-11-08T22:00:00	7	Dirección del viento	0
21919	7	Sololá	701	Sololá	1	Sololá	5	Mayo	2023-05-05T00:00:00	2024-11-08T22:00:00	1	Precipitación	0
21920	7	Sololá	701	Sololá	1	Sololá	5	Mayo	2023-05-05T00:00:00	2024-11-08T22:00:00	8	Radiación solar	0
21921	7	Sololá	701	Sololá	1	Sololá	5	Mayo	2023-05-05T00:00:00	2024-11-08T23:00:00	2	Temperatura media	16.6
21922	7	Sololá	701	Sololá	1	Sololá	5	Mayo	2023-05-05T00:00:00	2024-11-08T23:00:00	4	Temperatura máxima	17.6
21923	7	Sololá	701	Sololá	1	Sololá	5	Mayo	2023-05-05T00:00:00	2024-11-08T23:00:00	3	Temperatura mínima	16.6
21924	7	Sololá	701	Sololá	1	Sololá	5	Mayo	2023-05-05T00:00:00	2024-11-08T23:00:00	5	Humedad	81
21925	7	Sololá	701	Sololá	1	Sololá	5	Mayo	2023-05-05T00:00:00	2024-11-08T23:00:00	6	Velocidad del viento	0
21926	7	Sololá	701	Sololá	1	Sololá	5	Mayo	2023-05-05T00:00:00	2024-11-08T23:00:00	7	Dirección del viento	0
21927	7	Sololá	701	Sololá	1	Sololá	5	Mayo	2023-05-05T00:00:00	2024-11-08T23:00:00	1	Precipitación	0
21928	7	Sololá	701	Sololá	1	Sololá	5	Mayo	2023-05-05T00:00:00	2024-11-08T23:00:00	8	Radiación solar	0
21929	7	Sololá	701	Sololá	1	Sololá	5	Mayo	2023-06-05T00:00:00	2024-11-08T00:00:00	2	Temperatura media	16.4
21930	7	Sololá	701	Sololá	1	Sololá	5	Mayo	2023-06-05T00:00:00	2024-11-08T00:00:00	4	Temperatura máxima	16.6
21931	7	Sololá	701	Sololá	1	Sololá	5	Mayo	2023-06-05T00:00:00	2024-11-08T00:00:00	3	Temperatura mínima	16.4
21932	7	Sololá	701	Sololá	1	Sololá	5	Mayo	2023-06-05T00:00:00	2024-11-08T00:00:00	5	Humedad	81
21933	7	Sololá	701	Sololá	1	Sololá	5	Mayo	2023-06-05T00:00:00	2024-11-08T00:00:00	6	Velocidad del viento	0
21934	7	Sololá	701	Sololá	1	Sololá	5	Mayo	2023-06-05T00:00:00	2024-11-08T00:00:00	7	Dirección del viento	0
21935	7	Sololá	701	Sololá	1	Sololá	5	Mayo	2023-06-05T00:00:00	2024-11-08T00:00:00	1	Precipitación	0
21936	7	Sololá	701	Sololá	1	Sololá	5	Mayo	2023-06-05T00:00:00	2024-11-08T00:00:00	8	Radiación solar	0
21937	7	Sololá	701	Sololá	1	Sololá	5	Mayo	2023-06-05T00:00:00	2024-11-08T01:00:00	2	Temperatura media	17
21938	7	Sololá	701	Sololá	1	Sololá	5	Mayo	2023-06-05T00:00:00	2024-11-08T01:00:00	4	Temperatura máxima	17.5
21939	7	Sololá	701	Sololá	1	Sololá	5	Mayo	2023-06-05T00:00:00	2024-11-08T01:00:00	3	Temperatura mínima	16.4
21940	7	Sololá	701	Sololá	1	Sololá	5	Mayo	2023-06-05T00:00:00	2024-11-08T01:00:00	5	Humedad	75
21941	7	Sololá	701	Sololá	1	Sololá	5	Mayo	2023-06-05T00:00:00	2024-11-08T01:00:00	6	Velocidad del viento	4.8
21942	7	Sololá	701	Sololá	1	Sololá	5	Mayo	2023-06-05T00:00:00	2024-11-08T01:00:00	7	Dirección del viento	4.83
21943	7	Sololá	701	Sololá	1	Sololá	5	Mayo	2023-06-05T00:00:00	2024-11-08T01:00:00	1	Precipitación	0
21944	7	Sololá	701	Sololá	1	Sololá	5	Mayo	2023-06-05T00:00:00	2024-11-08T01:00:00	8	Radiación solar	0
21945	7	Sololá	701	Sololá	1	Sololá	5	Mayo	2023-06-05T00:00:00	2024-11-08T02:00:00	2	Temperatura media	15.2
21946	7	Sololá	701	Sololá	1	Sololá	5	Mayo	2023-06-05T00:00:00	2024-11-08T02:00:00	4	Temperatura máxima	17
21947	7	Sololá	701	Sololá	1	Sololá	5	Mayo	2023-06-05T00:00:00	2024-11-08T02:00:00	3	Temperatura mínima	15.2
21948	7	Sololá	701	Sololá	1	Sololá	5	Mayo	2023-06-05T00:00:00	2024-11-08T02:00:00	5	Humedad	77
21949	7	Sololá	701	Sololá	1	Sololá	5	Mayo	2023-06-05T00:00:00	2024-11-08T02:00:00	6	Velocidad del viento	3.2
21950	7	Sololá	701	Sololá	1	Sololá	5	Mayo	2023-06-05T00:00:00	2024-11-08T02:00:00	7	Dirección del viento	3.22
21951	7	Sololá	701	Sololá	1	Sololá	5	Mayo	2023-06-05T00:00:00	2024-11-08T02:00:00	1	Precipitación	0
21952	7	Sololá	701	Sololá	1	Sololá	5	Mayo	2023-06-05T00:00:00	2024-11-08T02:00:00	8	Radiación solar	0
21953	7	Sololá	701	Sololá	1	Sololá	5	Mayo	2023-06-05T00:00:00	2024-11-08T03:00:00	2	Temperatura media	14.9
21954	7	Sololá	701	Sololá	1	Sololá	5	Mayo	2023-06-05T00:00:00	2024-11-08T03:00:00	4	Temperatura máxima	15.3
21955	7	Sololá	701	Sololá	1	Sololá	5	Mayo	2023-06-05T00:00:00	2024-11-08T03:00:00	3	Temperatura mínima	14.2
21956	7	Sololá	701	Sololá	1	Sololá	5	Mayo	2023-06-05T00:00:00	2024-11-08T03:00:00	5	Humedad	73
21957	7	Sololá	701	Sololá	1	Sololá	5	Mayo	2023-06-05T00:00:00	2024-11-08T03:00:00	6	Velocidad del viento	8
21958	7	Sololá	701	Sololá	1	Sololá	5	Mayo	2023-06-05T00:00:00	2024-11-08T03:00:00	7	Dirección del viento	8.05
21959	7	Sololá	701	Sololá	1	Sololá	5	Mayo	2023-06-05T00:00:00	2024-11-08T03:00:00	1	Precipitación	0
21960	7	Sololá	701	Sololá	1	Sololá	5	Mayo	2023-06-05T00:00:00	2024-11-08T03:00:00	8	Radiación solar	0
21961	7	Sololá	701	Sololá	1	Sololá	5	Mayo	2023-06-05T00:00:00	2024-11-08T04:00:00	2	Temperatura media	12.7
21962	7	Sololá	701	Sololá	1	Sololá	5	Mayo	2023-06-05T00:00:00	2024-11-08T04:00:00	4	Temperatura máxima	14.9
21963	7	Sololá	701	Sololá	1	Sololá	5	Mayo	2023-06-05T00:00:00	2024-11-08T04:00:00	3	Temperatura mínima	12.6
21964	7	Sololá	701	Sololá	1	Sololá	5	Mayo	2023-06-05T00:00:00	2024-11-08T04:00:00	5	Humedad	69
21965	7	Sololá	701	Sololá	1	Sololá	5	Mayo	2023-06-05T00:00:00	2024-11-08T04:00:00	6	Velocidad del viento	11.3
21966	7	Sololá	701	Sololá	1	Sololá	5	Mayo	2023-06-05T00:00:00	2024-11-08T04:00:00	7	Dirección del viento	11.27
21967	7	Sololá	701	Sololá	1	Sololá	5	Mayo	2023-06-05T00:00:00	2024-11-08T04:00:00	1	Precipitación	0
21968	7	Sololá	701	Sololá	1	Sololá	5	Mayo	2023-06-05T00:00:00	2024-11-08T04:00:00	8	Radiación solar	0
21969	7	Sololá	701	Sololá	1	Sololá	5	Mayo	2023-06-05T00:00:00	2024-11-08T05:00:00	2	Temperatura media	12.2
21970	7	Sololá	701	Sololá	1	Sololá	5	Mayo	2023-06-05T00:00:00	2024-11-08T05:00:00	4	Temperatura máxima	12.9
21971	7	Sololá	701	Sololá	1	Sololá	5	Mayo	2023-06-05T00:00:00	2024-11-08T05:00:00	3	Temperatura mínima	12.1
21972	7	Sololá	701	Sololá	1	Sololá	5	Mayo	2023-06-05T00:00:00	2024-11-08T05:00:00	5	Humedad	66
21973	7	Sololá	701	Sololá	1	Sololá	5	Mayo	2023-06-05T00:00:00	2024-11-08T05:00:00	6	Velocidad del viento	8
21974	7	Sololá	701	Sololá	1	Sololá	5	Mayo	2023-06-05T00:00:00	2024-11-08T05:00:00	7	Dirección del viento	8.05
21975	7	Sololá	701	Sololá	1	Sololá	5	Mayo	2023-06-05T00:00:00	2024-11-08T05:00:00	1	Precipitación	0
21976	7	Sololá	701	Sololá	1	Sololá	5	Mayo	2023-06-05T00:00:00	2024-11-08T05:00:00	8	Radiación solar	0
21977	7	Sololá	701	Sololá	1	Sololá	5	Mayo	2023-06-05T00:00:00	2024-11-08T06:00:00	2	Temperatura media	11.8
21978	7	Sololá	701	Sololá	1	Sololá	5	Mayo	2023-06-05T00:00:00	2024-11-08T06:00:00	4	Temperatura máxima	12.6
21979	7	Sololá	701	Sololá	1	Sololá	5	Mayo	2023-06-05T00:00:00	2024-11-08T06:00:00	3	Temperatura mínima	11.5
21980	7	Sololá	701	Sololá	1	Sololá	5	Mayo	2023-06-05T00:00:00	2024-11-08T06:00:00	5	Humedad	63
21981	7	Sololá	701	Sololá	1	Sololá	5	Mayo	2023-06-05T00:00:00	2024-11-08T06:00:00	6	Velocidad del viento	8
21982	7	Sololá	701	Sololá	1	Sololá	5	Mayo	2023-06-05T00:00:00	2024-11-08T06:00:00	7	Dirección del viento	8.05
21983	7	Sololá	701	Sololá	1	Sololá	5	Mayo	2023-06-05T00:00:00	2024-11-08T06:00:00	1	Precipitación	0
21984	7	Sololá	701	Sololá	1	Sololá	5	Mayo	2023-06-05T00:00:00	2024-11-08T06:00:00	8	Radiación solar	2
21985	7	Sololá	701	Sololá	1	Sololá	5	Mayo	2023-06-05T00:00:00	2024-11-08T07:00:00	2	Temperatura media	12.9
21986	7	Sololá	701	Sololá	1	Sololá	5	Mayo	2023-06-05T00:00:00	2024-11-08T07:00:00	4	Temperatura máxima	12.9
21987	7	Sololá	701	Sololá	1	Sololá	5	Mayo	2023-06-05T00:00:00	2024-11-08T07:00:00	3	Temperatura mínima	10.8
21988	7	Sololá	701	Sololá	1	Sololá	5	Mayo	2023-06-05T00:00:00	2024-11-08T07:00:00	5	Humedad	70
21989	7	Sololá	701	Sololá	1	Sololá	5	Mayo	2023-06-05T00:00:00	2024-11-08T07:00:00	6	Velocidad del viento	8
21990	7	Sololá	701	Sololá	1	Sololá	5	Mayo	2023-06-05T00:00:00	2024-11-08T07:00:00	7	Dirección del viento	8.05
21991	7	Sololá	701	Sololá	1	Sololá	5	Mayo	2023-06-05T00:00:00	2024-11-08T07:00:00	1	Precipitación	0
21992	7	Sololá	701	Sololá	1	Sololá	5	Mayo	2023-06-05T00:00:00	2024-11-08T07:00:00	8	Radiación solar	50
21993	7	Sololá	701	Sololá	1	Sololá	5	Mayo	2023-06-05T00:00:00	2024-11-08T08:00:00	2	Temperatura media	17.3
21994	7	Sololá	701	Sololá	1	Sololá	5	Mayo	2023-06-05T00:00:00	2024-11-08T08:00:00	4	Temperatura máxima	17.3
21995	7	Sololá	701	Sololá	1	Sololá	5	Mayo	2023-06-05T00:00:00	2024-11-08T08:00:00	3	Temperatura mínima	12.9
21996	7	Sololá	701	Sololá	1	Sololá	5	Mayo	2023-06-05T00:00:00	2024-11-08T08:00:00	5	Humedad	57
21997	7	Sololá	701	Sololá	1	Sololá	5	Mayo	2023-06-05T00:00:00	2024-11-08T08:00:00	6	Velocidad del viento	9.7
21998	7	Sololá	701	Sololá	1	Sololá	5	Mayo	2023-06-05T00:00:00	2024-11-08T08:00:00	7	Dirección del viento	9.66
21999	7	Sololá	701	Sololá	1	Sololá	5	Mayo	2023-06-05T00:00:00	2024-11-08T08:00:00	1	Precipitación	0
22000	7	Sololá	701	Sololá	1	Sololá	5	Mayo	2023-06-05T00:00:00	2024-11-08T08:00:00	8	Radiación solar	137
22001	7	Sololá	701	Sololá	1	Sololá	5	Mayo	2023-06-05T00:00:00	2024-11-08T09:00:00	2	Temperatura media	19.3
22002	7	Sololá	701	Sololá	1	Sololá	5	Mayo	2023-06-05T00:00:00	2024-11-08T09:00:00	4	Temperatura máxima	19.4
22003	7	Sololá	701	Sololá	1	Sololá	5	Mayo	2023-06-05T00:00:00	2024-11-08T09:00:00	3	Temperatura mínima	17.3
22004	7	Sololá	701	Sololá	1	Sololá	5	Mayo	2023-06-05T00:00:00	2024-11-08T09:00:00	5	Humedad	59
22005	7	Sololá	701	Sololá	1	Sololá	5	Mayo	2023-06-05T00:00:00	2024-11-08T09:00:00	6	Velocidad del viento	6.4
22006	7	Sololá	701	Sololá	1	Sololá	5	Mayo	2023-06-05T00:00:00	2024-11-08T09:00:00	7	Dirección del viento	6.44
22007	7	Sololá	701	Sololá	1	Sololá	5	Mayo	2023-06-05T00:00:00	2024-11-08T09:00:00	1	Precipitación	0
22008	7	Sololá	701	Sololá	1	Sololá	5	Mayo	2023-06-05T00:00:00	2024-11-08T09:00:00	8	Radiación solar	357
22009	7	Sololá	701	Sololá	1	Sololá	5	Mayo	2023-06-05T00:00:00	2024-11-08T10:00:00	2	Temperatura media	20.8
22010	7	Sololá	701	Sololá	1	Sololá	5	Mayo	2023-06-05T00:00:00	2024-11-08T10:00:00	4	Temperatura máxima	20.8
22011	7	Sololá	701	Sololá	1	Sololá	5	Mayo	2023-06-05T00:00:00	2024-11-08T10:00:00	3	Temperatura mínima	19.3
22012	7	Sololá	701	Sololá	1	Sololá	5	Mayo	2023-06-05T00:00:00	2024-11-08T10:00:00	5	Humedad	58
22013	7	Sololá	701	Sololá	1	Sololá	5	Mayo	2023-06-05T00:00:00	2024-11-08T10:00:00	6	Velocidad del viento	8
22014	7	Sololá	701	Sololá	1	Sololá	5	Mayo	2023-06-05T00:00:00	2024-11-08T10:00:00	7	Dirección del viento	8.05
22015	7	Sololá	701	Sololá	1	Sololá	5	Mayo	2023-06-05T00:00:00	2024-11-08T10:00:00	1	Precipitación	0
22016	7	Sololá	701	Sololá	1	Sololá	5	Mayo	2023-06-05T00:00:00	2024-11-08T10:00:00	8	Radiación solar	451
22017	7	Sololá	701	Sololá	1	Sololá	5	Mayo	2023-06-05T00:00:00	2024-11-08T11:00:00	2	Temperatura media	22.2
22018	7	Sololá	701	Sololá	1	Sololá	5	Mayo	2023-06-05T00:00:00	2024-11-08T11:00:00	4	Temperatura máxima	22.2
22019	7	Sololá	701	Sololá	1	Sololá	5	Mayo	2023-06-05T00:00:00	2024-11-08T11:00:00	3	Temperatura mínima	20.8
22020	7	Sololá	701	Sololá	1	Sololá	5	Mayo	2023-06-05T00:00:00	2024-11-08T11:00:00	5	Humedad	52
22021	7	Sololá	701	Sololá	1	Sololá	5	Mayo	2023-06-05T00:00:00	2024-11-08T11:00:00	6	Velocidad del viento	9.7
22022	7	Sololá	701	Sololá	1	Sololá	5	Mayo	2023-06-05T00:00:00	2024-11-08T11:00:00	7	Dirección del viento	9.66
22023	7	Sololá	701	Sololá	1	Sololá	5	Mayo	2023-06-05T00:00:00	2024-11-08T11:00:00	1	Precipitación	0
22024	7	Sololá	701	Sololá	1	Sololá	5	Mayo	2023-06-05T00:00:00	2024-11-08T11:00:00	8	Radiación solar	587
22025	7	Sololá	701	Sololá	1	Sololá	5	Mayo	2023-06-05T00:00:00	2024-11-08T12:00:00	2	Temperatura media	23.8
22026	7	Sololá	701	Sololá	1	Sololá	5	Mayo	2023-06-05T00:00:00	2024-11-08T12:00:00	4	Temperatura máxima	23.8
22027	7	Sololá	701	Sololá	1	Sololá	5	Mayo	2023-06-05T00:00:00	2024-11-08T12:00:00	3	Temperatura mínima	22.1
22028	7	Sololá	701	Sololá	1	Sololá	5	Mayo	2023-06-05T00:00:00	2024-11-08T12:00:00	5	Humedad	47
22029	7	Sololá	701	Sololá	1	Sololá	5	Mayo	2023-06-05T00:00:00	2024-11-08T12:00:00	6	Velocidad del viento	8
22030	7	Sololá	701	Sololá	1	Sololá	5	Mayo	2023-06-05T00:00:00	2024-11-08T12:00:00	7	Dirección del viento	8.05
22031	7	Sololá	701	Sololá	1	Sololá	5	Mayo	2023-06-05T00:00:00	2024-11-08T12:00:00	1	Precipitación	0
22032	7	Sololá	701	Sololá	1	Sololá	5	Mayo	2023-06-05T00:00:00	2024-11-08T12:00:00	8	Radiación solar	716
22033	7	Sololá	701	Sololá	1	Sololá	5	Mayo	2023-06-05T00:00:00	2024-11-08T13:00:00	2	Temperatura media	24.8
22034	7	Sololá	701	Sololá	1	Sololá	5	Mayo	2023-06-05T00:00:00	2024-11-08T13:00:00	4	Temperatura máxima	24.8
22035	7	Sololá	701	Sololá	1	Sololá	5	Mayo	2023-06-05T00:00:00	2024-11-08T13:00:00	3	Temperatura mínima	23.7
22036	7	Sololá	701	Sololá	1	Sololá	5	Mayo	2023-06-05T00:00:00	2024-11-08T13:00:00	5	Humedad	41
22037	7	Sololá	701	Sololá	1	Sololá	5	Mayo	2023-06-05T00:00:00	2024-11-08T13:00:00	6	Velocidad del viento	4.8
22038	7	Sololá	701	Sololá	1	Sololá	5	Mayo	2023-06-05T00:00:00	2024-11-08T13:00:00	7	Dirección del viento	4.83
22039	7	Sololá	701	Sololá	1	Sololá	5	Mayo	2023-06-05T00:00:00	2024-11-08T13:00:00	1	Precipitación	0
22040	7	Sololá	701	Sololá	1	Sololá	5	Mayo	2023-06-05T00:00:00	2024-11-08T13:00:00	8	Radiación solar	450
22041	7	Sololá	701	Sololá	1	Sololá	5	Mayo	2023-06-05T00:00:00	2024-11-08T14:00:00	2	Temperatura media	24.6
22042	7	Sololá	701	Sololá	1	Sololá	5	Mayo	2023-06-05T00:00:00	2024-11-08T14:00:00	4	Temperatura máxima	25.1
22043	7	Sololá	701	Sololá	1	Sololá	5	Mayo	2023-06-05T00:00:00	2024-11-08T14:00:00	3	Temperatura mínima	24.5
22044	7	Sololá	701	Sololá	1	Sololá	5	Mayo	2023-06-05T00:00:00	2024-11-08T14:00:00	5	Humedad	50
22045	7	Sololá	701	Sololá	1	Sololá	5	Mayo	2023-06-05T00:00:00	2024-11-08T14:00:00	6	Velocidad del viento	6.4
22046	7	Sololá	701	Sololá	1	Sololá	5	Mayo	2023-06-05T00:00:00	2024-11-08T14:00:00	7	Dirección del viento	6.44
22047	7	Sololá	701	Sololá	1	Sololá	5	Mayo	2023-06-05T00:00:00	2024-11-08T14:00:00	1	Precipitación	0
22048	7	Sololá	701	Sololá	1	Sololá	5	Mayo	2023-06-05T00:00:00	2024-11-08T14:00:00	8	Radiación solar	331
22049	7	Sololá	701	Sololá	1	Sololá	5	Mayo	2023-06-05T00:00:00	2024-11-08T15:00:00	2	Temperatura media	24.3
22050	7	Sololá	701	Sololá	1	Sololá	5	Mayo	2023-06-05T00:00:00	2024-11-08T15:00:00	4	Temperatura máxima	24.7
22051	7	Sololá	701	Sololá	1	Sololá	5	Mayo	2023-06-05T00:00:00	2024-11-08T15:00:00	3	Temperatura mínima	24.2
22052	7	Sololá	701	Sololá	1	Sololá	5	Mayo	2023-06-05T00:00:00	2024-11-08T15:00:00	5	Humedad	58
22053	7	Sololá	701	Sololá	1	Sololá	5	Mayo	2023-06-05T00:00:00	2024-11-08T15:00:00	6	Velocidad del viento	8
22054	7	Sololá	701	Sololá	1	Sololá	5	Mayo	2023-06-05T00:00:00	2024-11-08T15:00:00	7	Dirección del viento	8.05
22055	7	Sololá	701	Sololá	1	Sololá	5	Mayo	2023-06-05T00:00:00	2024-11-08T15:00:00	1	Precipitación	0
22056	7	Sololá	701	Sololá	1	Sololá	5	Mayo	2023-06-05T00:00:00	2024-11-08T15:00:00	8	Radiación solar	372
22057	7	Sololá	701	Sololá	1	Sololá	5	Mayo	2023-06-05T00:00:00	2024-11-08T16:00:00	2	Temperatura media	23.1
22058	7	Sololá	701	Sololá	1	Sololá	5	Mayo	2023-06-05T00:00:00	2024-11-08T16:00:00	4	Temperatura máxima	24.3
22059	7	Sololá	701	Sololá	1	Sololá	5	Mayo	2023-06-05T00:00:00	2024-11-08T16:00:00	3	Temperatura mínima	23.1
22060	7	Sololá	701	Sololá	1	Sololá	5	Mayo	2023-06-05T00:00:00	2024-11-08T16:00:00	5	Humedad	67
22061	7	Sololá	701	Sololá	1	Sololá	5	Mayo	2023-06-05T00:00:00	2024-11-08T16:00:00	6	Velocidad del viento	8
22062	7	Sololá	701	Sololá	1	Sololá	5	Mayo	2023-06-05T00:00:00	2024-11-08T16:00:00	7	Dirección del viento	8.05
22063	7	Sololá	701	Sololá	1	Sololá	5	Mayo	2023-06-05T00:00:00	2024-11-08T16:00:00	1	Precipitación	0
22064	7	Sololá	701	Sololá	1	Sololá	5	Mayo	2023-06-05T00:00:00	2024-11-08T16:00:00	8	Radiación solar	217
22065	7	Sololá	701	Sololá	1	Sololá	5	Mayo	2023-06-05T00:00:00	2024-11-08T17:00:00	2	Temperatura media	23.2
22066	7	Sololá	701	Sololá	1	Sololá	5	Mayo	2023-06-05T00:00:00	2024-11-08T17:00:00	4	Temperatura máxima	23.3
22067	7	Sololá	701	Sololá	1	Sololá	5	Mayo	2023-06-05T00:00:00	2024-11-08T17:00:00	3	Temperatura mínima	22.6
22068	7	Sololá	701	Sololá	1	Sololá	5	Mayo	2023-06-05T00:00:00	2024-11-08T17:00:00	5	Humedad	68
22069	7	Sololá	701	Sololá	1	Sololá	5	Mayo	2023-06-05T00:00:00	2024-11-08T17:00:00	6	Velocidad del viento	6.4
22070	7	Sololá	701	Sololá	1	Sololá	5	Mayo	2023-06-05T00:00:00	2024-11-08T17:00:00	7	Dirección del viento	6.44
22071	7	Sololá	701	Sololá	1	Sololá	5	Mayo	2023-06-05T00:00:00	2024-11-08T17:00:00	1	Precipitación	0
22072	7	Sololá	701	Sololá	1	Sololá	5	Mayo	2023-06-05T00:00:00	2024-11-08T17:00:00	8	Radiación solar	110
22073	7	Sololá	701	Sololá	1	Sololá	5	Mayo	2023-06-05T00:00:00	2024-11-08T18:00:00	2	Temperatura media	24
22074	7	Sololá	701	Sololá	1	Sololá	5	Mayo	2023-06-05T00:00:00	2024-11-08T18:00:00	4	Temperatura máxima	24.1
22075	7	Sololá	701	Sololá	1	Sololá	5	Mayo	2023-06-05T00:00:00	2024-11-08T18:00:00	3	Temperatura mínima	23.1
22076	7	Sololá	701	Sololá	1	Sololá	5	Mayo	2023-06-05T00:00:00	2024-11-08T18:00:00	5	Humedad	43
22077	7	Sololá	701	Sololá	1	Sololá	5	Mayo	2023-06-05T00:00:00	2024-11-08T18:00:00	6	Velocidad del viento	6.4
22078	7	Sololá	701	Sololá	1	Sololá	5	Mayo	2023-06-05T00:00:00	2024-11-08T18:00:00	7	Dirección del viento	6.44
22079	7	Sololá	701	Sololá	1	Sololá	5	Mayo	2023-06-05T00:00:00	2024-11-08T18:00:00	1	Precipitación	0
22080	7	Sololá	701	Sololá	1	Sololá	5	Mayo	2023-06-05T00:00:00	2024-11-08T18:00:00	8	Radiación solar	45
22081	7	Sololá	701	Sololá	1	Sololá	5	Mayo	2023-06-05T00:00:00	2024-11-08T19:00:00	2	Temperatura media	22.5
22082	7	Sololá	701	Sololá	1	Sololá	5	Mayo	2023-06-05T00:00:00	2024-11-08T19:00:00	4	Temperatura máxima	24.1
22083	7	Sololá	701	Sololá	1	Sololá	5	Mayo	2023-06-05T00:00:00	2024-11-08T19:00:00	3	Temperatura mínima	22.4
22084	7	Sololá	701	Sololá	1	Sololá	5	Mayo	2023-06-05T00:00:00	2024-11-08T19:00:00	5	Humedad	47
22085	7	Sololá	701	Sololá	1	Sololá	5	Mayo	2023-06-05T00:00:00	2024-11-08T19:00:00	6	Velocidad del viento	11.3
22086	7	Sololá	701	Sololá	1	Sololá	5	Mayo	2023-06-05T00:00:00	2024-11-08T19:00:00	7	Dirección del viento	11.27
22087	7	Sololá	701	Sololá	1	Sololá	5	Mayo	2023-06-05T00:00:00	2024-11-08T19:00:00	1	Precipitación	0
22088	7	Sololá	701	Sololá	1	Sololá	5	Mayo	2023-06-05T00:00:00	2024-11-08T19:00:00	8	Radiación solar	0
22089	7	Sololá	701	Sololá	1	Sololá	5	Mayo	2023-06-05T00:00:00	2024-11-08T20:00:00	2	Temperatura media	20.6
22090	7	Sololá	701	Sololá	1	Sololá	5	Mayo	2023-06-05T00:00:00	2024-11-08T20:00:00	4	Temperatura máxima	22.5
22091	7	Sololá	701	Sololá	1	Sololá	5	Mayo	2023-06-05T00:00:00	2024-11-08T20:00:00	3	Temperatura mínima	20.6
22092	7	Sololá	701	Sololá	1	Sololá	5	Mayo	2023-06-05T00:00:00	2024-11-08T20:00:00	5	Humedad	51
22093	7	Sololá	701	Sololá	1	Sololá	5	Mayo	2023-06-05T00:00:00	2024-11-08T20:00:00	6	Velocidad del viento	8
22094	7	Sololá	701	Sololá	1	Sololá	5	Mayo	2023-06-05T00:00:00	2024-11-08T20:00:00	7	Dirección del viento	8.05
22095	7	Sololá	701	Sololá	1	Sololá	5	Mayo	2023-06-05T00:00:00	2024-11-08T20:00:00	1	Precipitación	0
22096	7	Sololá	701	Sololá	1	Sololá	5	Mayo	2023-06-05T00:00:00	2024-11-08T20:00:00	8	Radiación solar	0
22097	7	Sololá	701	Sololá	1	Sololá	5	Mayo	2023-06-05T00:00:00	2024-11-08T21:00:00	2	Temperatura media	19.4
22098	7	Sololá	701	Sololá	1	Sololá	5	Mayo	2023-06-05T00:00:00	2024-11-08T21:00:00	4	Temperatura máxima	20.6
22099	7	Sololá	701	Sololá	1	Sololá	5	Mayo	2023-06-05T00:00:00	2024-11-08T21:00:00	3	Temperatura mínima	19.4
22100	7	Sololá	701	Sololá	1	Sololá	5	Mayo	2023-06-05T00:00:00	2024-11-08T21:00:00	5	Humedad	55
22101	7	Sololá	701	Sololá	1	Sololá	5	Mayo	2023-06-05T00:00:00	2024-11-08T21:00:00	6	Velocidad del viento	6.4
22102	7	Sololá	701	Sololá	1	Sololá	5	Mayo	2023-06-05T00:00:00	2024-11-08T21:00:00	7	Dirección del viento	6.44
22103	7	Sololá	701	Sololá	1	Sololá	5	Mayo	2023-06-05T00:00:00	2024-11-08T21:00:00	1	Precipitación	0
22104	7	Sololá	701	Sololá	1	Sololá	5	Mayo	2023-06-05T00:00:00	2024-11-08T21:00:00	8	Radiación solar	0
22105	7	Sololá	701	Sololá	1	Sololá	5	Mayo	2023-06-05T00:00:00	2024-11-08T22:00:00	2	Temperatura media	18.4
22106	7	Sololá	701	Sololá	1	Sololá	5	Mayo	2023-06-05T00:00:00	2024-11-08T22:00:00	4	Temperatura máxima	19.4
22107	7	Sololá	701	Sololá	1	Sololá	5	Mayo	2023-06-05T00:00:00	2024-11-08T22:00:00	3	Temperatura mínima	18.3
22108	7	Sololá	701	Sololá	1	Sololá	5	Mayo	2023-06-05T00:00:00	2024-11-08T22:00:00	5	Humedad	65
22109	7	Sololá	701	Sololá	1	Sololá	5	Mayo	2023-06-05T00:00:00	2024-11-08T22:00:00	6	Velocidad del viento	11.3
22110	7	Sololá	701	Sololá	1	Sololá	5	Mayo	2023-06-05T00:00:00	2024-11-08T22:00:00	7	Dirección del viento	11.27
22111	7	Sololá	701	Sololá	1	Sololá	5	Mayo	2023-06-05T00:00:00	2024-11-08T22:00:00	1	Precipitación	0
22112	7	Sololá	701	Sololá	1	Sololá	5	Mayo	2023-06-05T00:00:00	2024-11-08T22:00:00	8	Radiación solar	0
22113	7	Sololá	701	Sololá	1	Sololá	5	Mayo	2023-06-05T00:00:00	2024-11-08T23:00:00	2	Temperatura media	18.6
22114	7	Sololá	701	Sololá	1	Sololá	5	Mayo	2023-06-05T00:00:00	2024-11-08T23:00:00	4	Temperatura máxima	18.6
22115	7	Sololá	701	Sololá	1	Sololá	5	Mayo	2023-06-05T00:00:00	2024-11-08T23:00:00	3	Temperatura mínima	18.4
22116	7	Sololá	701	Sololá	1	Sololá	5	Mayo	2023-06-05T00:00:00	2024-11-08T23:00:00	5	Humedad	60
22117	7	Sololá	701	Sololá	1	Sololá	5	Mayo	2023-06-05T00:00:00	2024-11-08T23:00:00	6	Velocidad del viento	11.3
22118	7	Sololá	701	Sololá	1	Sololá	5	Mayo	2023-06-05T00:00:00	2024-11-08T23:00:00	7	Dirección del viento	11.27
22119	7	Sololá	701	Sololá	1	Sololá	5	Mayo	2023-06-05T00:00:00	2024-11-08T23:00:00	1	Precipitación	0
22120	7	Sololá	701	Sololá	1	Sololá	5	Mayo	2023-06-05T00:00:00	2024-11-08T23:00:00	8	Radiación solar	0
22121	7	Sololá	701	Sololá	1	Sololá	5	Mayo	2023-07-05T00:00:00	2024-11-08T00:00:00	2	Temperatura media	16.9
22122	7	Sololá	701	Sololá	1	Sololá	5	Mayo	2023-07-05T00:00:00	2024-11-08T00:00:00	4	Temperatura máxima	18.8
22123	7	Sololá	701	Sololá	1	Sololá	5	Mayo	2023-07-05T00:00:00	2024-11-08T00:00:00	3	Temperatura mínima	16.8
22124	7	Sololá	701	Sololá	1	Sololá	5	Mayo	2023-07-05T00:00:00	2024-11-08T00:00:00	5	Humedad	66
22125	7	Sololá	701	Sololá	1	Sololá	5	Mayo	2023-07-05T00:00:00	2024-11-08T00:00:00	6	Velocidad del viento	6.4
22126	7	Sololá	701	Sololá	1	Sololá	5	Mayo	2023-07-05T00:00:00	2024-11-08T00:00:00	7	Dirección del viento	6.44
22127	7	Sololá	701	Sololá	1	Sololá	5	Mayo	2023-07-05T00:00:00	2024-11-08T00:00:00	1	Precipitación	0
22128	7	Sololá	701	Sololá	1	Sololá	5	Mayo	2023-07-05T00:00:00	2024-11-08T00:00:00	8	Radiación solar	0
22129	7	Sololá	701	Sololá	1	Sololá	5	Mayo	2023-07-05T00:00:00	2024-11-08T01:00:00	2	Temperatura media	17.9
22130	7	Sololá	701	Sololá	1	Sololá	5	Mayo	2023-07-05T00:00:00	2024-11-08T01:00:00	4	Temperatura máxima	18
22131	7	Sololá	701	Sololá	1	Sololá	5	Mayo	2023-07-05T00:00:00	2024-11-08T01:00:00	3	Temperatura mínima	16.9
22132	7	Sololá	701	Sololá	1	Sololá	5	Mayo	2023-07-05T00:00:00	2024-11-08T01:00:00	5	Humedad	53
22133	7	Sololá	701	Sololá	1	Sololá	5	Mayo	2023-07-05T00:00:00	2024-11-08T01:00:00	6	Velocidad del viento	8
22134	7	Sololá	701	Sololá	1	Sololá	5	Mayo	2023-07-05T00:00:00	2024-11-08T01:00:00	7	Dirección del viento	8.05
22135	7	Sololá	701	Sololá	1	Sololá	5	Mayo	2023-07-05T00:00:00	2024-11-08T01:00:00	1	Precipitación	0
22136	7	Sololá	701	Sololá	1	Sololá	5	Mayo	2023-07-05T00:00:00	2024-11-08T01:00:00	8	Radiación solar	0
22137	7	Sololá	701	Sololá	1	Sololá	5	Mayo	2023-07-05T00:00:00	2024-11-08T02:00:00	2	Temperatura media	17.2
22138	7	Sololá	701	Sololá	1	Sololá	5	Mayo	2023-07-05T00:00:00	2024-11-08T02:00:00	4	Temperatura máxima	18.1
22139	7	Sololá	701	Sololá	1	Sololá	5	Mayo	2023-07-05T00:00:00	2024-11-08T02:00:00	3	Temperatura mínima	17.1
22140	7	Sololá	701	Sololá	1	Sololá	5	Mayo	2023-07-05T00:00:00	2024-11-08T02:00:00	5	Humedad	45
22141	7	Sololá	701	Sololá	1	Sololá	5	Mayo	2023-07-05T00:00:00	2024-11-08T02:00:00	6	Velocidad del viento	6.4
22142	7	Sololá	701	Sololá	1	Sololá	5	Mayo	2023-07-05T00:00:00	2024-11-08T02:00:00	7	Dirección del viento	6.44
22143	7	Sololá	701	Sololá	1	Sololá	5	Mayo	2023-07-05T00:00:00	2024-11-08T02:00:00	1	Precipitación	0
22144	7	Sololá	701	Sololá	1	Sololá	5	Mayo	2023-07-05T00:00:00	2024-11-08T02:00:00	8	Radiación solar	0
22145	7	Sololá	701	Sololá	1	Sololá	5	Mayo	2023-07-05T00:00:00	2024-11-08T03:00:00	2	Temperatura media	15.5
22146	7	Sololá	701	Sololá	1	Sololá	5	Mayo	2023-07-05T00:00:00	2024-11-08T03:00:00	4	Temperatura máxima	18.1
22147	7	Sololá	701	Sololá	1	Sololá	5	Mayo	2023-07-05T00:00:00	2024-11-08T03:00:00	3	Temperatura mínima	14.6
22148	7	Sololá	701	Sololá	1	Sololá	5	Mayo	2023-07-05T00:00:00	2024-11-08T03:00:00	5	Humedad	44
22149	7	Sololá	701	Sololá	1	Sololá	5	Mayo	2023-07-05T00:00:00	2024-11-08T03:00:00	6	Velocidad del viento	8
22150	7	Sololá	701	Sololá	1	Sololá	5	Mayo	2023-07-05T00:00:00	2024-11-08T03:00:00	7	Dirección del viento	8.05
22151	7	Sololá	701	Sololá	1	Sololá	5	Mayo	2023-07-05T00:00:00	2024-11-08T03:00:00	1	Precipitación	0
22152	7	Sololá	701	Sololá	1	Sololá	5	Mayo	2023-07-05T00:00:00	2024-11-08T03:00:00	8	Radiación solar	0
22153	7	Sololá	701	Sololá	1	Sololá	5	Mayo	2023-07-05T00:00:00	2024-11-08T04:00:00	2	Temperatura media	15.7
22154	7	Sololá	701	Sololá	1	Sololá	5	Mayo	2023-07-05T00:00:00	2024-11-08T04:00:00	4	Temperatura máxima	16.7
22155	7	Sololá	701	Sololá	1	Sololá	5	Mayo	2023-07-05T00:00:00	2024-11-08T04:00:00	3	Temperatura mínima	15.5
22156	7	Sololá	701	Sololá	1	Sololá	5	Mayo	2023-07-05T00:00:00	2024-11-08T04:00:00	5	Humedad	45
22157	7	Sololá	701	Sololá	1	Sololá	5	Mayo	2023-07-05T00:00:00	2024-11-08T04:00:00	6	Velocidad del viento	6.4
22158	7	Sololá	701	Sololá	1	Sololá	5	Mayo	2023-07-05T00:00:00	2024-11-08T04:00:00	7	Dirección del viento	6.44
22159	7	Sololá	701	Sololá	1	Sololá	5	Mayo	2023-07-05T00:00:00	2024-11-08T04:00:00	1	Precipitación	0
22160	7	Sololá	701	Sololá	1	Sololá	5	Mayo	2023-07-05T00:00:00	2024-11-08T04:00:00	8	Radiación solar	0
22161	7	Sololá	701	Sololá	1	Sololá	5	Mayo	2023-07-05T00:00:00	2024-11-08T05:00:00	2	Temperatura media	15.2
22162	7	Sololá	701	Sololá	1	Sololá	5	Mayo	2023-07-05T00:00:00	2024-11-08T05:00:00	4	Temperatura máxima	15.7
22163	7	Sololá	701	Sololá	1	Sololá	5	Mayo	2023-07-05T00:00:00	2024-11-08T05:00:00	3	Temperatura mínima	15
22164	7	Sololá	701	Sololá	1	Sololá	5	Mayo	2023-07-05T00:00:00	2024-11-08T05:00:00	5	Humedad	46
22165	7	Sololá	701	Sololá	1	Sololá	5	Mayo	2023-07-05T00:00:00	2024-11-08T05:00:00	6	Velocidad del viento	4.8
22166	7	Sololá	701	Sololá	1	Sololá	5	Mayo	2023-07-05T00:00:00	2024-11-08T05:00:00	7	Dirección del viento	4.83
22167	7	Sololá	701	Sololá	1	Sololá	5	Mayo	2023-07-05T00:00:00	2024-11-08T05:00:00	1	Precipitación	0
22168	7	Sololá	701	Sololá	1	Sololá	5	Mayo	2023-07-05T00:00:00	2024-11-08T05:00:00	8	Radiación solar	0
22169	7	Sololá	701	Sololá	1	Sololá	5	Mayo	2023-07-05T00:00:00	2024-11-08T06:00:00	2	Temperatura media	15.1
22170	7	Sololá	701	Sololá	1	Sololá	5	Mayo	2023-07-05T00:00:00	2024-11-08T06:00:00	4	Temperatura máxima	15.2
22171	7	Sololá	701	Sololá	1	Sololá	5	Mayo	2023-07-05T00:00:00	2024-11-08T06:00:00	3	Temperatura mínima	15
22172	7	Sololá	701	Sololá	1	Sololá	5	Mayo	2023-07-05T00:00:00	2024-11-08T06:00:00	5	Humedad	46
22173	7	Sololá	701	Sololá	1	Sololá	5	Mayo	2023-07-05T00:00:00	2024-11-08T06:00:00	6	Velocidad del viento	4.8
22174	7	Sololá	701	Sololá	1	Sololá	5	Mayo	2023-07-05T00:00:00	2024-11-08T06:00:00	7	Dirección del viento	4.83
22175	7	Sololá	701	Sololá	1	Sololá	5	Mayo	2023-07-05T00:00:00	2024-11-08T06:00:00	1	Precipitación	0
22176	7	Sololá	701	Sololá	1	Sololá	5	Mayo	2023-07-05T00:00:00	2024-11-08T06:00:00	8	Radiación solar	3
22177	7	Sololá	701	Sololá	1	Sololá	5	Mayo	2023-07-05T00:00:00	2024-11-08T07:00:00	2	Temperatura media	14.1
22178	7	Sololá	701	Sololá	1	Sololá	5	Mayo	2023-07-05T00:00:00	2024-11-08T07:00:00	4	Temperatura máxima	15.1
22179	7	Sololá	701	Sololá	1	Sololá	5	Mayo	2023-07-05T00:00:00	2024-11-08T07:00:00	3	Temperatura mínima	12.4
22180	7	Sololá	701	Sololá	1	Sololá	5	Mayo	2023-07-05T00:00:00	2024-11-08T07:00:00	5	Humedad	50
22181	7	Sololá	701	Sololá	1	Sololá	5	Mayo	2023-07-05T00:00:00	2024-11-08T07:00:00	6	Velocidad del viento	6.4
22182	7	Sololá	701	Sololá	1	Sololá	5	Mayo	2023-07-05T00:00:00	2024-11-08T07:00:00	7	Dirección del viento	6.44
22183	7	Sololá	701	Sololá	1	Sololá	5	Mayo	2023-07-05T00:00:00	2024-11-08T07:00:00	1	Precipitación	0
22184	7	Sololá	701	Sololá	1	Sololá	5	Mayo	2023-07-05T00:00:00	2024-11-08T07:00:00	8	Radiación solar	32
22185	7	Sololá	701	Sololá	1	Sololá	5	Mayo	2023-07-05T00:00:00	2024-11-08T08:00:00	2	Temperatura media	17.2
22186	7	Sololá	701	Sololá	1	Sololá	5	Mayo	2023-07-05T00:00:00	2024-11-08T08:00:00	4	Temperatura máxima	17.2
22187	7	Sololá	701	Sololá	1	Sololá	5	Mayo	2023-07-05T00:00:00	2024-11-08T08:00:00	3	Temperatura mínima	14.1
22188	7	Sololá	701	Sololá	1	Sololá	5	Mayo	2023-07-05T00:00:00	2024-11-08T08:00:00	5	Humedad	43
22189	7	Sololá	701	Sololá	1	Sololá	5	Mayo	2023-07-05T00:00:00	2024-11-08T08:00:00	6	Velocidad del viento	4.8
22190	7	Sololá	701	Sololá	1	Sololá	5	Mayo	2023-07-05T00:00:00	2024-11-08T08:00:00	7	Dirección del viento	4.83
22191	7	Sololá	701	Sololá	1	Sololá	5	Mayo	2023-07-05T00:00:00	2024-11-08T08:00:00	1	Precipitación	0
22192	7	Sololá	701	Sololá	1	Sololá	5	Mayo	2023-07-05T00:00:00	2024-11-08T08:00:00	8	Radiación solar	125
22193	7	Sololá	701	Sololá	1	Sololá	5	Mayo	2023-07-05T00:00:00	2024-11-08T09:00:00	2	Temperatura media	20.8
22194	7	Sololá	701	Sololá	1	Sololá	5	Mayo	2023-07-05T00:00:00	2024-11-08T09:00:00	4	Temperatura máxima	20.8
22195	7	Sololá	701	Sololá	1	Sololá	5	Mayo	2023-07-05T00:00:00	2024-11-08T09:00:00	3	Temperatura mínima	16.3
22196	7	Sololá	701	Sololá	1	Sololá	5	Mayo	2023-07-05T00:00:00	2024-11-08T09:00:00	5	Humedad	36
22197	7	Sololá	701	Sololá	1	Sololá	5	Mayo	2023-07-05T00:00:00	2024-11-08T09:00:00	6	Velocidad del viento	6.4
22198	7	Sololá	701	Sololá	1	Sololá	5	Mayo	2023-07-05T00:00:00	2024-11-08T09:00:00	7	Dirección del viento	6.44
22199	7	Sololá	701	Sololá	1	Sololá	5	Mayo	2023-07-05T00:00:00	2024-11-08T09:00:00	1	Precipitación	0
22200	7	Sololá	701	Sololá	1	Sololá	5	Mayo	2023-07-05T00:00:00	2024-11-08T09:00:00	8	Radiación solar	546
22201	7	Sololá	701	Sololá	1	Sololá	5	Mayo	2023-07-05T00:00:00	2024-11-08T10:00:00	2	Temperatura media	22.1
22202	7	Sololá	701	Sololá	1	Sololá	5	Mayo	2023-07-05T00:00:00	2024-11-08T10:00:00	4	Temperatura máxima	22.1
22203	7	Sololá	701	Sololá	1	Sololá	5	Mayo	2023-07-05T00:00:00	2024-11-08T10:00:00	3	Temperatura mínima	20.8
22204	7	Sololá	701	Sololá	1	Sololá	5	Mayo	2023-07-05T00:00:00	2024-11-08T10:00:00	5	Humedad	32
22205	7	Sololá	701	Sololá	1	Sololá	5	Mayo	2023-07-05T00:00:00	2024-11-08T10:00:00	6	Velocidad del viento	9.7
22206	7	Sololá	701	Sololá	1	Sololá	5	Mayo	2023-07-05T00:00:00	2024-11-08T10:00:00	7	Dirección del viento	9.66
22207	7	Sololá	701	Sololá	1	Sololá	5	Mayo	2023-07-05T00:00:00	2024-11-08T10:00:00	1	Precipitación	0
22208	7	Sololá	701	Sololá	1	Sololá	5	Mayo	2023-07-05T00:00:00	2024-11-08T10:00:00	8	Radiación solar	721
22209	7	Sololá	701	Sololá	1	Sololá	5	Mayo	2023-07-05T00:00:00	2024-11-08T11:00:00	2	Temperatura media	23.1
22210	7	Sololá	701	Sololá	1	Sololá	5	Mayo	2023-07-05T00:00:00	2024-11-08T11:00:00	4	Temperatura máxima	23.1
22211	7	Sololá	701	Sololá	1	Sololá	5	Mayo	2023-07-05T00:00:00	2024-11-08T11:00:00	3	Temperatura mínima	21.9
22212	7	Sololá	701	Sololá	1	Sololá	5	Mayo	2023-07-05T00:00:00	2024-11-08T11:00:00	5	Humedad	35
22213	7	Sololá	701	Sololá	1	Sololá	5	Mayo	2023-07-05T00:00:00	2024-11-08T11:00:00	6	Velocidad del viento	9.7
22214	7	Sololá	701	Sololá	1	Sololá	5	Mayo	2023-07-05T00:00:00	2024-11-08T11:00:00	7	Dirección del viento	9.66
22215	7	Sololá	701	Sololá	1	Sololá	5	Mayo	2023-07-05T00:00:00	2024-11-08T11:00:00	1	Precipitación	0
22216	7	Sololá	701	Sololá	1	Sololá	5	Mayo	2023-07-05T00:00:00	2024-11-08T11:00:00	8	Radiación solar	895
22217	7	Sololá	701	Sololá	1	Sololá	5	Mayo	2023-07-05T00:00:00	2024-11-08T12:00:00	2	Temperatura media	24.4
22218	7	Sololá	701	Sololá	1	Sololá	5	Mayo	2023-07-05T00:00:00	2024-11-08T12:00:00	4	Temperatura máxima	24.4
22219	7	Sololá	701	Sololá	1	Sololá	5	Mayo	2023-07-05T00:00:00	2024-11-08T12:00:00	3	Temperatura mínima	23.1
22220	7	Sololá	701	Sololá	1	Sololá	5	Mayo	2023-07-05T00:00:00	2024-11-08T12:00:00	5	Humedad	33
22221	7	Sololá	701	Sololá	1	Sololá	5	Mayo	2023-07-05T00:00:00	2024-11-08T12:00:00	6	Velocidad del viento	4.8
22222	7	Sololá	701	Sololá	1	Sololá	5	Mayo	2023-07-05T00:00:00	2024-11-08T12:00:00	7	Dirección del viento	4.83
22223	7	Sololá	701	Sololá	1	Sololá	5	Mayo	2023-07-05T00:00:00	2024-11-08T12:00:00	1	Precipitación	0
22224	7	Sololá	701	Sololá	1	Sololá	5	Mayo	2023-07-05T00:00:00	2024-11-08T12:00:00	8	Radiación solar	1021
22225	7	Sololá	701	Sololá	1	Sololá	5	Mayo	2023-07-05T00:00:00	2024-11-08T13:00:00	2	Temperatura media	24.9
22226	7	Sololá	701	Sololá	1	Sololá	5	Mayo	2023-07-05T00:00:00	2024-11-08T13:00:00	4	Temperatura máxima	25.6
22227	7	Sololá	701	Sololá	1	Sololá	5	Mayo	2023-07-05T00:00:00	2024-11-08T13:00:00	3	Temperatura mínima	24.3
22228	7	Sololá	701	Sololá	1	Sololá	5	Mayo	2023-07-05T00:00:00	2024-11-08T13:00:00	5	Humedad	31
22229	7	Sololá	701	Sololá	1	Sololá	5	Mayo	2023-07-05T00:00:00	2024-11-08T13:00:00	6	Velocidad del viento	8
22230	7	Sololá	701	Sololá	1	Sololá	5	Mayo	2023-07-05T00:00:00	2024-11-08T13:00:00	7	Dirección del viento	8.05
22231	7	Sololá	701	Sololá	1	Sololá	5	Mayo	2023-07-05T00:00:00	2024-11-08T13:00:00	1	Precipitación	0
22232	7	Sololá	701	Sololá	1	Sololá	5	Mayo	2023-07-05T00:00:00	2024-11-08T13:00:00	8	Radiación solar	665
22233	7	Sololá	701	Sololá	1	Sololá	5	Mayo	2023-07-05T00:00:00	2024-11-08T14:00:00	2	Temperatura media	25.7
22234	7	Sololá	701	Sololá	1	Sololá	5	Mayo	2023-07-05T00:00:00	2024-11-08T14:00:00	4	Temperatura máxima	25.8
22235	7	Sololá	701	Sololá	1	Sololá	5	Mayo	2023-07-05T00:00:00	2024-11-08T14:00:00	3	Temperatura mínima	24.9
22236	7	Sololá	701	Sololá	1	Sololá	5	Mayo	2023-07-05T00:00:00	2024-11-08T14:00:00	5	Humedad	30
22237	7	Sololá	701	Sololá	1	Sololá	5	Mayo	2023-07-05T00:00:00	2024-11-08T14:00:00	6	Velocidad del viento	9.7
22238	7	Sololá	701	Sololá	1	Sololá	5	Mayo	2023-07-05T00:00:00	2024-11-08T14:00:00	7	Dirección del viento	9.66
22239	7	Sololá	701	Sololá	1	Sololá	5	Mayo	2023-07-05T00:00:00	2024-11-08T14:00:00	1	Precipitación	0
22240	7	Sololá	701	Sololá	1	Sololá	5	Mayo	2023-07-05T00:00:00	2024-11-08T14:00:00	8	Radiación solar	583
22241	7	Sololá	701	Sololá	1	Sololá	5	Mayo	2023-07-05T00:00:00	2024-11-08T15:00:00	2	Temperatura media	26.5
22242	7	Sololá	701	Sololá	1	Sololá	5	Mayo	2023-07-05T00:00:00	2024-11-08T15:00:00	4	Temperatura máxima	26.5
22243	7	Sololá	701	Sololá	1	Sololá	5	Mayo	2023-07-05T00:00:00	2024-11-08T15:00:00	3	Temperatura mínima	25.6
22244	7	Sololá	701	Sololá	1	Sololá	5	Mayo	2023-07-05T00:00:00	2024-11-08T15:00:00	5	Humedad	26
22245	7	Sololá	701	Sololá	1	Sololá	5	Mayo	2023-07-05T00:00:00	2024-11-08T15:00:00	6	Velocidad del viento	11.3
22246	7	Sololá	701	Sololá	1	Sololá	5	Mayo	2023-07-05T00:00:00	2024-11-08T15:00:00	7	Dirección del viento	11.27
22247	7	Sololá	701	Sololá	1	Sololá	5	Mayo	2023-07-05T00:00:00	2024-11-08T15:00:00	1	Precipitación	0
22248	7	Sololá	701	Sololá	1	Sololá	5	Mayo	2023-07-05T00:00:00	2024-11-08T15:00:00	8	Radiación solar	452
22249	7	Sololá	701	Sololá	1	Sololá	5	Mayo	2023-07-05T00:00:00	2024-11-08T16:00:00	2	Temperatura media	24.6
22250	7	Sololá	701	Sololá	1	Sololá	5	Mayo	2023-07-05T00:00:00	2024-11-08T16:00:00	4	Temperatura máxima	26.5
22251	7	Sololá	701	Sololá	1	Sololá	5	Mayo	2023-07-05T00:00:00	2024-11-08T16:00:00	3	Temperatura mínima	24.4
22252	7	Sololá	701	Sololá	1	Sololá	5	Mayo	2023-07-05T00:00:00	2024-11-08T16:00:00	5	Humedad	53
22253	7	Sololá	701	Sololá	1	Sololá	5	Mayo	2023-07-05T00:00:00	2024-11-08T16:00:00	6	Velocidad del viento	6.4
22254	7	Sololá	701	Sololá	1	Sololá	5	Mayo	2023-07-05T00:00:00	2024-11-08T16:00:00	7	Dirección del viento	6.44
22255	7	Sololá	701	Sololá	1	Sololá	5	Mayo	2023-07-05T00:00:00	2024-11-08T16:00:00	1	Precipitación	0
22256	7	Sololá	701	Sololá	1	Sololá	5	Mayo	2023-07-05T00:00:00	2024-11-08T16:00:00	8	Radiación solar	152
22257	7	Sololá	701	Sololá	1	Sololá	5	Mayo	2023-07-05T00:00:00	2024-11-08T17:00:00	2	Temperatura media	23.8
22258	7	Sololá	701	Sololá	1	Sololá	5	Mayo	2023-07-05T00:00:00	2024-11-08T17:00:00	4	Temperatura máxima	24.7
22259	7	Sololá	701	Sololá	1	Sololá	5	Mayo	2023-07-05T00:00:00	2024-11-08T17:00:00	3	Temperatura mínima	23.7
22260	7	Sololá	701	Sololá	1	Sololá	5	Mayo	2023-07-05T00:00:00	2024-11-08T17:00:00	5	Humedad	60
22261	7	Sololá	701	Sololá	1	Sololá	5	Mayo	2023-07-05T00:00:00	2024-11-08T17:00:00	6	Velocidad del viento	8
22262	7	Sololá	701	Sololá	1	Sololá	5	Mayo	2023-07-05T00:00:00	2024-11-08T17:00:00	7	Dirección del viento	8.05
22263	7	Sololá	701	Sololá	1	Sololá	5	Mayo	2023-07-05T00:00:00	2024-11-08T17:00:00	1	Precipitación	0
22264	7	Sololá	701	Sololá	1	Sololá	5	Mayo	2023-07-05T00:00:00	2024-11-08T17:00:00	8	Radiación solar	102
22265	7	Sololá	701	Sololá	1	Sololá	5	Mayo	2023-07-05T00:00:00	2024-11-08T18:00:00	2	Temperatura media	22.6
22266	7	Sololá	701	Sololá	1	Sololá	5	Mayo	2023-07-05T00:00:00	2024-11-08T18:00:00	4	Temperatura máxima	23.8
22267	7	Sololá	701	Sololá	1	Sololá	5	Mayo	2023-07-05T00:00:00	2024-11-08T18:00:00	3	Temperatura mínima	22.6
22268	7	Sololá	701	Sololá	1	Sololá	5	Mayo	2023-07-05T00:00:00	2024-11-08T18:00:00	5	Humedad	69
22269	7	Sololá	701	Sololá	1	Sololá	5	Mayo	2023-07-05T00:00:00	2024-11-08T18:00:00	6	Velocidad del viento	4.8
22270	7	Sololá	701	Sololá	1	Sololá	5	Mayo	2023-07-05T00:00:00	2024-11-08T18:00:00	7	Dirección del viento	4.83
22271	7	Sololá	701	Sololá	1	Sololá	5	Mayo	2023-07-05T00:00:00	2024-11-08T18:00:00	1	Precipitación	0
22272	7	Sololá	701	Sololá	1	Sololá	5	Mayo	2023-07-05T00:00:00	2024-11-08T18:00:00	8	Radiación solar	38
22273	7	Sololá	701	Sololá	1	Sololá	5	Mayo	2023-07-05T00:00:00	2024-11-08T19:00:00	2	Temperatura media	22.6
22274	7	Sololá	701	Sololá	1	Sololá	5	Mayo	2023-07-05T00:00:00	2024-11-08T19:00:00	4	Temperatura máxima	22.6
22275	7	Sololá	701	Sololá	1	Sololá	5	Mayo	2023-07-05T00:00:00	2024-11-08T19:00:00	3	Temperatura mínima	21.6
22276	7	Sololá	701	Sololá	1	Sololá	5	Mayo	2023-07-05T00:00:00	2024-11-08T19:00:00	5	Humedad	49
22277	7	Sololá	701	Sololá	1	Sololá	5	Mayo	2023-07-05T00:00:00	2024-11-08T19:00:00	6	Velocidad del viento	4.8
22278	7	Sololá	701	Sololá	1	Sololá	5	Mayo	2023-07-05T00:00:00	2024-11-08T19:00:00	7	Dirección del viento	4.83
22279	7	Sololá	701	Sololá	1	Sololá	5	Mayo	2023-07-05T00:00:00	2024-11-08T19:00:00	1	Precipitación	0
22280	7	Sololá	701	Sololá	1	Sololá	5	Mayo	2023-07-05T00:00:00	2024-11-08T19:00:00	8	Radiación solar	0
22281	7	Sololá	701	Sololá	1	Sololá	5	Mayo	2023-07-05T00:00:00	2024-11-08T20:00:00	2	Temperatura media	21.3
22282	7	Sololá	701	Sololá	1	Sololá	5	Mayo	2023-07-05T00:00:00	2024-11-08T20:00:00	4	Temperatura máxima	22.7
22283	7	Sololá	701	Sololá	1	Sololá	5	Mayo	2023-07-05T00:00:00	2024-11-08T20:00:00	3	Temperatura mínima	21.3
22284	7	Sololá	701	Sololá	1	Sololá	5	Mayo	2023-07-05T00:00:00	2024-11-08T20:00:00	5	Humedad	54
22285	7	Sololá	701	Sololá	1	Sololá	5	Mayo	2023-07-05T00:00:00	2024-11-08T20:00:00	6	Velocidad del viento	4.8
22286	7	Sololá	701	Sololá	1	Sololá	5	Mayo	2023-07-05T00:00:00	2024-11-08T20:00:00	7	Dirección del viento	4.83
22287	7	Sololá	701	Sololá	1	Sololá	5	Mayo	2023-07-05T00:00:00	2024-11-08T20:00:00	1	Precipitación	0
22288	7	Sololá	701	Sololá	1	Sololá	5	Mayo	2023-07-05T00:00:00	2024-11-08T20:00:00	8	Radiación solar	0
22289	7	Sololá	701	Sololá	1	Sololá	5	Mayo	2023-07-05T00:00:00	2024-11-08T21:00:00	2	Temperatura media	19.8
22290	7	Sololá	701	Sololá	1	Sololá	5	Mayo	2023-07-05T00:00:00	2024-11-08T21:00:00	4	Temperatura máxima	21.3
22291	7	Sololá	701	Sololá	1	Sololá	5	Mayo	2023-07-05T00:00:00	2024-11-08T21:00:00	3	Temperatura mínima	19.8
22292	7	Sololá	701	Sololá	1	Sololá	5	Mayo	2023-07-05T00:00:00	2024-11-08T21:00:00	5	Humedad	66
22293	7	Sololá	701	Sololá	1	Sololá	5	Mayo	2023-07-05T00:00:00	2024-11-08T21:00:00	6	Velocidad del viento	4.8
22294	7	Sololá	701	Sololá	1	Sololá	5	Mayo	2023-07-05T00:00:00	2024-11-08T21:00:00	7	Dirección del viento	4.83
22295	7	Sololá	701	Sololá	1	Sololá	5	Mayo	2023-07-05T00:00:00	2024-11-08T21:00:00	1	Precipitación	0
22296	7	Sololá	701	Sololá	1	Sololá	5	Mayo	2023-07-05T00:00:00	2024-11-08T21:00:00	8	Radiación solar	0
22297	7	Sololá	701	Sololá	1	Sololá	5	Mayo	2023-07-05T00:00:00	2024-11-08T22:00:00	2	Temperatura media	18.3
22298	7	Sololá	701	Sololá	1	Sololá	5	Mayo	2023-07-05T00:00:00	2024-11-08T22:00:00	4	Temperatura máxima	19.8
22299	7	Sololá	701	Sololá	1	Sololá	5	Mayo	2023-07-05T00:00:00	2024-11-08T22:00:00	3	Temperatura mínima	18.3
22300	7	Sololá	701	Sololá	1	Sololá	5	Mayo	2023-07-05T00:00:00	2024-11-08T22:00:00	5	Humedad	73
22301	7	Sololá	701	Sololá	1	Sololá	5	Mayo	2023-07-05T00:00:00	2024-11-08T22:00:00	6	Velocidad del viento	6.4
22302	7	Sololá	701	Sololá	1	Sololá	5	Mayo	2023-07-05T00:00:00	2024-11-08T22:00:00	7	Dirección del viento	6.44
22303	7	Sololá	701	Sololá	1	Sololá	5	Mayo	2023-07-05T00:00:00	2024-11-08T22:00:00	1	Precipitación	0
22304	7	Sololá	701	Sololá	1	Sololá	5	Mayo	2023-07-05T00:00:00	2024-11-08T22:00:00	8	Radiación solar	0
22305	7	Sololá	701	Sololá	1	Sololá	5	Mayo	2023-07-05T00:00:00	2024-11-08T23:00:00	2	Temperatura media	17.4
22306	7	Sololá	701	Sololá	1	Sololá	5	Mayo	2023-07-05T00:00:00	2024-11-08T23:00:00	4	Temperatura máxima	18.3
22307	7	Sololá	701	Sololá	1	Sololá	5	Mayo	2023-07-05T00:00:00	2024-11-08T23:00:00	3	Temperatura mínima	17.4
22308	7	Sololá	701	Sololá	1	Sololá	5	Mayo	2023-07-05T00:00:00	2024-11-08T23:00:00	5	Humedad	75
22309	7	Sololá	701	Sololá	1	Sololá	5	Mayo	2023-07-05T00:00:00	2024-11-08T23:00:00	6	Velocidad del viento	11.3
22310	7	Sololá	701	Sololá	1	Sololá	5	Mayo	2023-07-05T00:00:00	2024-11-08T23:00:00	7	Dirección del viento	11.27
22311	7	Sololá	701	Sololá	1	Sololá	5	Mayo	2023-07-05T00:00:00	2024-11-08T23:00:00	1	Precipitación	0
22312	7	Sololá	701	Sololá	1	Sololá	5	Mayo	2023-07-05T00:00:00	2024-11-08T23:00:00	8	Radiación solar	0
22313	7	Sololá	701	Sololá	1	Sololá	5	Mayo	2023-08-05T00:00:00	2024-11-08T00:00:00	2	Temperatura media	17.6
22314	7	Sololá	701	Sololá	1	Sololá	5	Mayo	2023-08-05T00:00:00	2024-11-08T00:00:00	4	Temperatura máxima	17.9
22315	7	Sololá	701	Sololá	1	Sololá	5	Mayo	2023-08-05T00:00:00	2024-11-08T00:00:00	3	Temperatura mínima	17.3
22316	7	Sololá	701	Sololá	1	Sololá	5	Mayo	2023-08-05T00:00:00	2024-11-08T00:00:00	5	Humedad	69
22317	7	Sololá	701	Sololá	1	Sololá	5	Mayo	2023-08-05T00:00:00	2024-11-08T00:00:00	6	Velocidad del viento	9.7
22318	7	Sololá	701	Sololá	1	Sololá	5	Mayo	2023-08-05T00:00:00	2024-11-08T00:00:00	7	Dirección del viento	9.66
22319	7	Sololá	701	Sololá	1	Sololá	5	Mayo	2023-08-05T00:00:00	2024-11-08T00:00:00	1	Precipitación	0
22320	7	Sololá	701	Sololá	1	Sololá	5	Mayo	2023-08-05T00:00:00	2024-11-08T00:00:00	8	Radiación solar	0
22321	7	Sololá	701	Sololá	1	Sololá	5	Mayo	2023-08-05T00:00:00	2024-11-08T01:00:00	2	Temperatura media	16.7
22322	7	Sololá	701	Sololá	1	Sololá	5	Mayo	2023-08-05T00:00:00	2024-11-08T01:00:00	4	Temperatura máxima	17.6
22323	7	Sololá	701	Sololá	1	Sololá	5	Mayo	2023-08-05T00:00:00	2024-11-08T01:00:00	3	Temperatura mínima	16.7
22324	7	Sololá	701	Sololá	1	Sololá	5	Mayo	2023-08-05T00:00:00	2024-11-08T01:00:00	5	Humedad	75
22325	7	Sololá	701	Sololá	1	Sololá	5	Mayo	2023-08-05T00:00:00	2024-11-08T01:00:00	6	Velocidad del viento	12.9
22326	7	Sololá	701	Sololá	1	Sololá	5	Mayo	2023-08-05T00:00:00	2024-11-08T01:00:00	7	Dirección del viento	12.87
22327	7	Sololá	701	Sololá	1	Sololá	5	Mayo	2023-08-05T00:00:00	2024-11-08T01:00:00	1	Precipitación	0
22328	7	Sololá	701	Sololá	1	Sololá	5	Mayo	2023-08-05T00:00:00	2024-11-08T01:00:00	8	Radiación solar	0
22329	7	Sololá	701	Sololá	1	Sololá	5	Mayo	2023-08-05T00:00:00	2024-11-08T02:00:00	2	Temperatura media	16.2
22330	7	Sololá	701	Sololá	1	Sololá	5	Mayo	2023-08-05T00:00:00	2024-11-08T02:00:00	4	Temperatura máxima	16.8
22331	7	Sololá	701	Sololá	1	Sololá	5	Mayo	2023-08-05T00:00:00	2024-11-08T02:00:00	3	Temperatura mínima	16.1
22332	7	Sololá	701	Sololá	1	Sololá	5	Mayo	2023-08-05T00:00:00	2024-11-08T02:00:00	5	Humedad	66
22333	7	Sololá	701	Sololá	1	Sololá	5	Mayo	2023-08-05T00:00:00	2024-11-08T02:00:00	6	Velocidad del viento	9.7
22334	7	Sololá	701	Sololá	1	Sololá	5	Mayo	2023-08-05T00:00:00	2024-11-08T02:00:00	7	Dirección del viento	9.66
22335	7	Sololá	701	Sololá	1	Sololá	5	Mayo	2023-08-05T00:00:00	2024-11-08T02:00:00	1	Precipitación	0
22336	7	Sololá	701	Sololá	1	Sololá	5	Mayo	2023-08-05T00:00:00	2024-11-08T02:00:00	8	Radiación solar	0
22337	7	Sololá	701	Sololá	1	Sololá	5	Mayo	2023-08-05T00:00:00	2024-11-08T03:00:00	2	Temperatura media	13.4
22338	7	Sololá	701	Sololá	1	Sololá	5	Mayo	2023-08-05T00:00:00	2024-11-08T03:00:00	4	Temperatura máxima	16.2
22339	7	Sololá	701	Sololá	1	Sololá	5	Mayo	2023-08-05T00:00:00	2024-11-08T03:00:00	3	Temperatura mínima	13.4
22340	7	Sololá	701	Sololá	1	Sololá	5	Mayo	2023-08-05T00:00:00	2024-11-08T03:00:00	5	Humedad	64
22341	7	Sololá	701	Sololá	1	Sololá	5	Mayo	2023-08-05T00:00:00	2024-11-08T03:00:00	6	Velocidad del viento	4.8
22342	7	Sololá	701	Sololá	1	Sololá	5	Mayo	2023-08-05T00:00:00	2024-11-08T03:00:00	7	Dirección del viento	4.83
22343	7	Sololá	701	Sololá	1	Sololá	5	Mayo	2023-08-05T00:00:00	2024-11-08T03:00:00	1	Precipitación	0
22344	7	Sololá	701	Sololá	1	Sololá	5	Mayo	2023-08-05T00:00:00	2024-11-08T03:00:00	8	Radiación solar	0
22345	7	Sololá	701	Sololá	1	Sololá	5	Mayo	2023-08-05T00:00:00	2024-11-08T04:00:00	2	Temperatura media	13.7
22346	7	Sololá	701	Sololá	1	Sololá	5	Mayo	2023-08-05T00:00:00	2024-11-08T04:00:00	4	Temperatura máxima	13.8
22347	7	Sololá	701	Sololá	1	Sololá	5	Mayo	2023-08-05T00:00:00	2024-11-08T04:00:00	3	Temperatura mínima	12.7
22348	7	Sololá	701	Sololá	1	Sololá	5	Mayo	2023-08-05T00:00:00	2024-11-08T04:00:00	5	Humedad	60
22349	7	Sololá	701	Sololá	1	Sololá	5	Mayo	2023-08-05T00:00:00	2024-11-08T04:00:00	6	Velocidad del viento	6.4
22350	7	Sololá	701	Sololá	1	Sololá	5	Mayo	2023-08-05T00:00:00	2024-11-08T04:00:00	7	Dirección del viento	6.44
22351	7	Sololá	701	Sololá	1	Sololá	5	Mayo	2023-08-05T00:00:00	2024-11-08T04:00:00	1	Precipitación	0
22352	7	Sololá	701	Sololá	1	Sololá	5	Mayo	2023-08-05T00:00:00	2024-11-08T04:00:00	8	Radiación solar	0
22353	7	Sololá	701	Sololá	1	Sololá	5	Mayo	2023-08-05T00:00:00	2024-11-08T05:00:00	2	Temperatura media	13.3
22354	7	Sololá	701	Sololá	1	Sololá	5	Mayo	2023-08-05T00:00:00	2024-11-08T05:00:00	4	Temperatura máxima	14.2
22355	7	Sololá	701	Sololá	1	Sololá	5	Mayo	2023-08-05T00:00:00	2024-11-08T05:00:00	3	Temperatura mínima	13.2
22356	7	Sololá	701	Sololá	1	Sololá	5	Mayo	2023-08-05T00:00:00	2024-11-08T05:00:00	5	Humedad	63
22357	7	Sololá	701	Sololá	1	Sololá	5	Mayo	2023-08-05T00:00:00	2024-11-08T05:00:00	6	Velocidad del viento	3.2
22358	7	Sololá	701	Sololá	1	Sololá	5	Mayo	2023-08-05T00:00:00	2024-11-08T05:00:00	7	Dirección del viento	3.22
22359	7	Sololá	701	Sololá	1	Sololá	5	Mayo	2023-08-05T00:00:00	2024-11-08T05:00:00	1	Precipitación	0
22360	7	Sololá	701	Sololá	1	Sololá	5	Mayo	2023-08-05T00:00:00	2024-11-08T05:00:00	8	Radiación solar	0
22361	7	Sololá	701	Sololá	1	Sololá	5	Mayo	2023-08-05T00:00:00	2024-11-08T06:00:00	2	Temperatura media	13.4
22362	7	Sololá	701	Sololá	1	Sololá	5	Mayo	2023-08-05T00:00:00	2024-11-08T06:00:00	4	Temperatura máxima	14
22363	7	Sololá	701	Sololá	1	Sololá	5	Mayo	2023-08-05T00:00:00	2024-11-08T06:00:00	3	Temperatura mínima	13.3
22364	7	Sololá	701	Sololá	1	Sololá	5	Mayo	2023-08-05T00:00:00	2024-11-08T06:00:00	5	Humedad	59
22365	7	Sololá	701	Sololá	1	Sololá	5	Mayo	2023-08-05T00:00:00	2024-11-08T06:00:00	6	Velocidad del viento	3.2
22366	7	Sololá	701	Sololá	1	Sololá	5	Mayo	2023-08-05T00:00:00	2024-11-08T06:00:00	7	Dirección del viento	3.22
22367	7	Sololá	701	Sololá	1	Sololá	5	Mayo	2023-08-05T00:00:00	2024-11-08T06:00:00	1	Precipitación	0
22368	7	Sololá	701	Sololá	1	Sololá	5	Mayo	2023-08-05T00:00:00	2024-11-08T06:00:00	8	Radiación solar	3
22369	7	Sololá	701	Sololá	1	Sololá	5	Mayo	2023-08-05T00:00:00	2024-11-08T07:00:00	2	Temperatura media	12.7
22370	7	Sololá	701	Sololá	1	Sololá	5	Mayo	2023-08-05T00:00:00	2024-11-08T07:00:00	4	Temperatura máxima	13.4
22371	7	Sololá	701	Sololá	1	Sololá	5	Mayo	2023-08-05T00:00:00	2024-11-08T07:00:00	3	Temperatura mínima	12.5
22372	7	Sololá	701	Sololá	1	Sololá	5	Mayo	2023-08-05T00:00:00	2024-11-08T07:00:00	5	Humedad	64
22373	7	Sololá	701	Sololá	1	Sololá	5	Mayo	2023-08-05T00:00:00	2024-11-08T07:00:00	6	Velocidad del viento	1.6
22374	7	Sololá	701	Sololá	1	Sololá	5	Mayo	2023-08-05T00:00:00	2024-11-08T07:00:00	7	Dirección del viento	1.61
22375	7	Sololá	701	Sololá	1	Sololá	5	Mayo	2023-08-05T00:00:00	2024-11-08T07:00:00	1	Precipitación	0
22376	7	Sololá	701	Sololá	1	Sololá	5	Mayo	2023-08-05T00:00:00	2024-11-08T07:00:00	8	Radiación solar	30
22377	7	Sololá	701	Sololá	1	Sololá	5	Mayo	2023-08-05T00:00:00	2024-11-08T08:00:00	2	Temperatura media	14.1
22378	7	Sololá	701	Sololá	1	Sololá	5	Mayo	2023-08-05T00:00:00	2024-11-08T08:00:00	4	Temperatura máxima	14.7
22379	7	Sololá	701	Sololá	1	Sololá	5	Mayo	2023-08-05T00:00:00	2024-11-08T08:00:00	3	Temperatura mínima	12.6
22380	7	Sololá	701	Sololá	1	Sololá	5	Mayo	2023-08-05T00:00:00	2024-11-08T08:00:00	5	Humedad	56
22381	7	Sololá	701	Sololá	1	Sololá	5	Mayo	2023-08-05T00:00:00	2024-11-08T08:00:00	6	Velocidad del viento	4.8
22382	7	Sololá	701	Sololá	1	Sololá	5	Mayo	2023-08-05T00:00:00	2024-11-08T08:00:00	7	Dirección del viento	4.83
22383	7	Sololá	701	Sololá	1	Sololá	5	Mayo	2023-08-05T00:00:00	2024-11-08T08:00:00	1	Precipitación	0
22384	7	Sololá	701	Sololá	1	Sololá	5	Mayo	2023-08-05T00:00:00	2024-11-08T08:00:00	8	Radiación solar	103
22385	7	Sololá	701	Sololá	1	Sololá	5	Mayo	2023-08-05T00:00:00	2024-11-08T09:00:00	2	Temperatura media	20.8
22386	7	Sololá	701	Sololá	1	Sololá	5	Mayo	2023-08-05T00:00:00	2024-11-08T09:00:00	4	Temperatura máxima	20.8
22387	7	Sololá	701	Sololá	1	Sololá	5	Mayo	2023-08-05T00:00:00	2024-11-08T09:00:00	3	Temperatura mínima	14.1
22388	7	Sololá	701	Sololá	1	Sololá	5	Mayo	2023-08-05T00:00:00	2024-11-08T09:00:00	5	Humedad	38
22389	7	Sololá	701	Sololá	1	Sololá	5	Mayo	2023-08-05T00:00:00	2024-11-08T09:00:00	6	Velocidad del viento	4.8
22390	7	Sololá	701	Sololá	1	Sololá	5	Mayo	2023-08-05T00:00:00	2024-11-08T09:00:00	7	Dirección del viento	4.83
22391	7	Sololá	701	Sololá	1	Sololá	5	Mayo	2023-08-05T00:00:00	2024-11-08T09:00:00	1	Precipitación	0
22392	7	Sololá	701	Sololá	1	Sololá	5	Mayo	2023-08-05T00:00:00	2024-11-08T09:00:00	8	Radiación solar	530
22393	7	Sololá	701	Sololá	1	Sololá	5	Mayo	2023-08-05T00:00:00	2024-11-08T10:00:00	2	Temperatura media	22.2
22394	7	Sololá	701	Sololá	1	Sololá	5	Mayo	2023-08-05T00:00:00	2024-11-08T10:00:00	4	Temperatura máxima	22.2
22395	7	Sololá	701	Sololá	1	Sololá	5	Mayo	2023-08-05T00:00:00	2024-11-08T10:00:00	3	Temperatura mínima	20.8
22396	7	Sololá	701	Sololá	1	Sololá	5	Mayo	2023-08-05T00:00:00	2024-11-08T10:00:00	5	Humedad	49
22397	7	Sololá	701	Sololá	1	Sololá	5	Mayo	2023-08-05T00:00:00	2024-11-08T10:00:00	6	Velocidad del viento	8
22398	7	Sololá	701	Sololá	1	Sololá	5	Mayo	2023-08-05T00:00:00	2024-11-08T10:00:00	7	Dirección del viento	8.05
22399	7	Sololá	701	Sololá	1	Sololá	5	Mayo	2023-08-05T00:00:00	2024-11-08T10:00:00	1	Precipitación	0
22400	7	Sololá	701	Sololá	1	Sololá	5	Mayo	2023-08-05T00:00:00	2024-11-08T10:00:00	8	Radiación solar	735
22401	7	Sololá	701	Sololá	1	Sololá	5	Mayo	2023-08-05T00:00:00	2024-11-08T11:00:00	2	Temperatura media	23.2
22402	7	Sololá	701	Sololá	1	Sololá	5	Mayo	2023-08-05T00:00:00	2024-11-08T11:00:00	4	Temperatura máxima	23.2
22403	7	Sololá	701	Sololá	1	Sololá	5	Mayo	2023-08-05T00:00:00	2024-11-08T11:00:00	3	Temperatura mínima	21.6
22404	7	Sololá	701	Sololá	1	Sololá	5	Mayo	2023-08-05T00:00:00	2024-11-08T11:00:00	5	Humedad	41
22405	7	Sololá	701	Sololá	1	Sololá	5	Mayo	2023-08-05T00:00:00	2024-11-08T11:00:00	6	Velocidad del viento	4.8
22406	7	Sololá	701	Sololá	1	Sololá	5	Mayo	2023-08-05T00:00:00	2024-11-08T11:00:00	7	Dirección del viento	4.83
22407	7	Sololá	701	Sololá	1	Sololá	5	Mayo	2023-08-05T00:00:00	2024-11-08T11:00:00	1	Precipitación	0
22408	7	Sololá	701	Sololá	1	Sololá	5	Mayo	2023-08-05T00:00:00	2024-11-08T11:00:00	8	Radiación solar	880
22409	7	Sololá	701	Sololá	1	Sololá	5	Mayo	2023-08-05T00:00:00	2024-11-08T12:00:00	2	Temperatura media	23.8
22410	7	Sololá	701	Sololá	1	Sololá	5	Mayo	2023-08-05T00:00:00	2024-11-08T12:00:00	4	Temperatura máxima	23.8
22411	7	Sololá	701	Sololá	1	Sololá	5	Mayo	2023-08-05T00:00:00	2024-11-08T12:00:00	3	Temperatura mínima	22.9
22412	7	Sololá	701	Sololá	1	Sololá	5	Mayo	2023-08-05T00:00:00	2024-11-08T12:00:00	5	Humedad	41
22413	7	Sololá	701	Sololá	1	Sololá	5	Mayo	2023-08-05T00:00:00	2024-11-08T12:00:00	6	Velocidad del viento	6.4
22414	7	Sololá	701	Sololá	1	Sololá	5	Mayo	2023-08-05T00:00:00	2024-11-08T12:00:00	7	Dirección del viento	6.44
22415	7	Sololá	701	Sololá	1	Sololá	5	Mayo	2023-08-05T00:00:00	2024-11-08T12:00:00	1	Precipitación	0
22416	7	Sololá	701	Sololá	1	Sololá	5	Mayo	2023-08-05T00:00:00	2024-11-08T12:00:00	8	Radiación solar	949
22417	7	Sololá	701	Sololá	1	Sololá	5	Mayo	2023-08-05T00:00:00	2024-11-08T13:00:00	2	Temperatura media	23.9
22418	7	Sololá	701	Sololá	1	Sololá	5	Mayo	2023-08-05T00:00:00	2024-11-08T13:00:00	4	Temperatura máxima	23.9
22419	7	Sololá	701	Sololá	1	Sololá	5	Mayo	2023-08-05T00:00:00	2024-11-08T13:00:00	3	Temperatura mínima	23.4
22420	7	Sololá	701	Sololá	1	Sololá	5	Mayo	2023-08-05T00:00:00	2024-11-08T13:00:00	5	Humedad	48
22421	7	Sololá	701	Sololá	1	Sololá	5	Mayo	2023-08-05T00:00:00	2024-11-08T13:00:00	6	Velocidad del viento	8
22422	7	Sololá	701	Sololá	1	Sololá	5	Mayo	2023-08-05T00:00:00	2024-11-08T13:00:00	7	Dirección del viento	8.05
22423	7	Sololá	701	Sololá	1	Sololá	5	Mayo	2023-08-05T00:00:00	2024-11-08T13:00:00	1	Precipitación	0
22424	7	Sololá	701	Sololá	1	Sololá	5	Mayo	2023-08-05T00:00:00	2024-11-08T13:00:00	8	Radiación solar	432
22425	7	Sololá	701	Sololá	1	Sololá	5	Mayo	2023-08-05T00:00:00	2024-11-08T14:00:00	2	Temperatura media	23.6
22426	7	Sololá	701	Sololá	1	Sololá	5	Mayo	2023-08-05T00:00:00	2024-11-08T14:00:00	4	Temperatura máxima	24.1
22427	7	Sololá	701	Sololá	1	Sololá	5	Mayo	2023-08-05T00:00:00	2024-11-08T14:00:00	3	Temperatura mínima	23.5
22428	7	Sololá	701	Sololá	1	Sololá	5	Mayo	2023-08-05T00:00:00	2024-11-08T14:00:00	5	Humedad	58
22429	7	Sololá	701	Sololá	1	Sololá	5	Mayo	2023-08-05T00:00:00	2024-11-08T14:00:00	6	Velocidad del viento	8
22430	7	Sololá	701	Sololá	1	Sololá	5	Mayo	2023-08-05T00:00:00	2024-11-08T14:00:00	7	Dirección del viento	8.05
22431	7	Sololá	701	Sololá	1	Sololá	5	Mayo	2023-08-05T00:00:00	2024-11-08T14:00:00	1	Precipitación	0
22432	7	Sololá	701	Sololá	1	Sololá	5	Mayo	2023-08-05T00:00:00	2024-11-08T14:00:00	8	Radiación solar	477
22433	7	Sololá	701	Sololá	1	Sololá	5	Mayo	2023-08-05T00:00:00	2024-11-08T15:00:00	2	Temperatura media	23.2
22434	7	Sololá	701	Sololá	1	Sololá	5	Mayo	2023-08-05T00:00:00	2024-11-08T15:00:00	4	Temperatura máxima	24
22435	7	Sololá	701	Sololá	1	Sololá	5	Mayo	2023-08-05T00:00:00	2024-11-08T15:00:00	3	Temperatura mínima	23.2
22436	7	Sololá	701	Sololá	1	Sololá	5	Mayo	2023-08-05T00:00:00	2024-11-08T15:00:00	5	Humedad	63
22437	7	Sololá	701	Sololá	1	Sololá	5	Mayo	2023-08-05T00:00:00	2024-11-08T15:00:00	6	Velocidad del viento	8
22438	7	Sololá	701	Sololá	1	Sololá	5	Mayo	2023-08-05T00:00:00	2024-11-08T15:00:00	7	Dirección del viento	8.05
22439	7	Sololá	701	Sololá	1	Sololá	5	Mayo	2023-08-05T00:00:00	2024-11-08T15:00:00	1	Precipitación	0
22440	7	Sololá	701	Sololá	1	Sololá	5	Mayo	2023-08-05T00:00:00	2024-11-08T15:00:00	8	Radiación solar	295
22441	7	Sololá	701	Sololá	1	Sololá	5	Mayo	2023-08-05T00:00:00	2024-11-08T16:00:00	2	Temperatura media	21.8
22442	7	Sololá	701	Sololá	1	Sololá	5	Mayo	2023-08-05T00:00:00	2024-11-08T16:00:00	4	Temperatura máxima	23.3
22443	7	Sololá	701	Sololá	1	Sololá	5	Mayo	2023-08-05T00:00:00	2024-11-08T16:00:00	3	Temperatura mínima	21.8
22444	7	Sololá	701	Sololá	1	Sololá	5	Mayo	2023-08-05T00:00:00	2024-11-08T16:00:00	5	Humedad	72
22445	7	Sololá	701	Sololá	1	Sololá	5	Mayo	2023-08-05T00:00:00	2024-11-08T16:00:00	6	Velocidad del viento	8
22446	7	Sololá	701	Sololá	1	Sololá	5	Mayo	2023-08-05T00:00:00	2024-11-08T16:00:00	7	Dirección del viento	8.05
22447	7	Sololá	701	Sololá	1	Sololá	5	Mayo	2023-08-05T00:00:00	2024-11-08T16:00:00	1	Precipitación	0
22448	7	Sololá	701	Sololá	1	Sololá	5	Mayo	2023-08-05T00:00:00	2024-11-08T16:00:00	8	Radiación solar	203
22449	7	Sololá	701	Sololá	1	Sololá	5	Mayo	2023-08-05T00:00:00	2024-11-08T17:00:00	2	Temperatura media	21.7
22450	7	Sololá	701	Sololá	1	Sololá	5	Mayo	2023-08-05T00:00:00	2024-11-08T17:00:00	4	Temperatura máxima	22.7
22451	7	Sololá	701	Sololá	1	Sololá	5	Mayo	2023-08-05T00:00:00	2024-11-08T17:00:00	3	Temperatura mínima	21.7
22452	7	Sololá	701	Sololá	1	Sololá	5	Mayo	2023-08-05T00:00:00	2024-11-08T17:00:00	5	Humedad	76
22453	7	Sololá	701	Sololá	1	Sololá	5	Mayo	2023-08-05T00:00:00	2024-11-08T17:00:00	6	Velocidad del viento	6.4
22454	7	Sololá	701	Sololá	1	Sololá	5	Mayo	2023-08-05T00:00:00	2024-11-08T17:00:00	7	Dirección del viento	6.44
22455	7	Sololá	701	Sololá	1	Sololá	5	Mayo	2023-08-05T00:00:00	2024-11-08T17:00:00	1	Precipitación	0
22456	7	Sololá	701	Sololá	1	Sololá	5	Mayo	2023-08-05T00:00:00	2024-11-08T17:00:00	8	Radiación solar	88
22457	7	Sololá	701	Sololá	1	Sololá	5	Mayo	2023-08-05T00:00:00	2024-11-08T18:00:00	2	Temperatura media	19.8
22458	7	Sololá	701	Sololá	1	Sololá	5	Mayo	2023-08-05T00:00:00	2024-11-08T18:00:00	4	Temperatura máxima	21.8
22459	7	Sololá	701	Sololá	1	Sololá	5	Mayo	2023-08-05T00:00:00	2024-11-08T18:00:00	3	Temperatura mínima	19.8
22460	7	Sololá	701	Sololá	1	Sololá	5	Mayo	2023-08-05T00:00:00	2024-11-08T18:00:00	5	Humedad	84
22461	7	Sololá	701	Sololá	1	Sololá	5	Mayo	2023-08-05T00:00:00	2024-11-08T18:00:00	6	Velocidad del viento	6.4
22462	7	Sololá	701	Sololá	1	Sololá	5	Mayo	2023-08-05T00:00:00	2024-11-08T18:00:00	7	Dirección del viento	6.44
22463	7	Sololá	701	Sololá	1	Sololá	5	Mayo	2023-08-05T00:00:00	2024-11-08T18:00:00	1	Precipitación	0
22464	7	Sololá	701	Sololá	1	Sololá	5	Mayo	2023-08-05T00:00:00	2024-11-08T18:00:00	8	Radiación solar	39
22465	7	Sololá	701	Sololá	1	Sololá	5	Mayo	2023-08-05T00:00:00	2024-11-08T19:00:00	2	Temperatura media	19.3
22466	7	Sololá	701	Sololá	1	Sololá	5	Mayo	2023-08-05T00:00:00	2024-11-08T19:00:00	4	Temperatura máxima	19.8
22467	7	Sololá	701	Sololá	1	Sololá	5	Mayo	2023-08-05T00:00:00	2024-11-08T19:00:00	3	Temperatura mínima	19.1
22468	7	Sololá	701	Sololá	1	Sololá	5	Mayo	2023-08-05T00:00:00	2024-11-08T19:00:00	5	Humedad	85
22469	7	Sololá	701	Sololá	1	Sololá	5	Mayo	2023-08-05T00:00:00	2024-11-08T19:00:00	6	Velocidad del viento	4.8
22470	7	Sololá	701	Sololá	1	Sololá	5	Mayo	2023-08-05T00:00:00	2024-11-08T19:00:00	7	Dirección del viento	4.83
22471	7	Sololá	701	Sololá	1	Sololá	5	Mayo	2023-08-05T00:00:00	2024-11-08T19:00:00	1	Precipitación	0
22472	7	Sololá	701	Sololá	1	Sololá	5	Mayo	2023-08-05T00:00:00	2024-11-08T19:00:00	8	Radiación solar	0
22473	7	Sololá	701	Sololá	1	Sololá	5	Mayo	2023-08-05T00:00:00	2024-11-08T20:00:00	2	Temperatura media	18.3
22474	7	Sololá	701	Sololá	1	Sololá	5	Mayo	2023-08-05T00:00:00	2024-11-08T20:00:00	4	Temperatura máxima	19.3
22475	7	Sololá	701	Sololá	1	Sololá	5	Mayo	2023-08-05T00:00:00	2024-11-08T20:00:00	3	Temperatura mínima	18.3
22476	7	Sololá	701	Sololá	1	Sololá	5	Mayo	2023-08-05T00:00:00	2024-11-08T20:00:00	5	Humedad	89
22477	7	Sololá	701	Sololá	1	Sololá	5	Mayo	2023-08-05T00:00:00	2024-11-08T20:00:00	6	Velocidad del viento	1.6
22478	7	Sololá	701	Sololá	1	Sololá	5	Mayo	2023-08-05T00:00:00	2024-11-08T20:00:00	7	Dirección del viento	1.61
22479	7	Sololá	701	Sololá	1	Sololá	5	Mayo	2023-08-05T00:00:00	2024-11-08T20:00:00	1	Precipitación	0
22480	7	Sololá	701	Sololá	1	Sololá	5	Mayo	2023-08-05T00:00:00	2024-11-08T20:00:00	8	Radiación solar	0
22481	7	Sololá	701	Sololá	1	Sololá	5	Mayo	2023-08-05T00:00:00	2024-11-08T21:00:00	2	Temperatura media	19.3
22482	7	Sololá	701	Sololá	1	Sololá	5	Mayo	2023-08-05T00:00:00	2024-11-08T21:00:00	4	Temperatura máxima	19.3
22483	7	Sololá	701	Sololá	1	Sololá	5	Mayo	2023-08-05T00:00:00	2024-11-08T21:00:00	3	Temperatura mínima	18.3
22484	7	Sololá	701	Sololá	1	Sololá	5	Mayo	2023-08-05T00:00:00	2024-11-08T21:00:00	5	Humedad	74
22485	7	Sololá	701	Sololá	1	Sololá	5	Mayo	2023-08-05T00:00:00	2024-11-08T21:00:00	6	Velocidad del viento	3.2
22486	7	Sololá	701	Sololá	1	Sololá	5	Mayo	2023-08-05T00:00:00	2024-11-08T21:00:00	7	Dirección del viento	3.22
22487	7	Sololá	701	Sololá	1	Sololá	5	Mayo	2023-08-05T00:00:00	2024-11-08T21:00:00	1	Precipitación	0
22488	7	Sololá	701	Sololá	1	Sololá	5	Mayo	2023-08-05T00:00:00	2024-11-08T21:00:00	8	Radiación solar	0
22489	7	Sololá	701	Sololá	1	Sololá	5	Mayo	2023-08-05T00:00:00	2024-11-08T22:00:00	2	Temperatura media	18.6
22490	7	Sololá	701	Sololá	1	Sololá	5	Mayo	2023-08-05T00:00:00	2024-11-08T22:00:00	4	Temperatura máxima	19.3
22491	7	Sololá	701	Sololá	1	Sololá	5	Mayo	2023-08-05T00:00:00	2024-11-08T22:00:00	3	Temperatura mínima	18.6
22492	7	Sololá	701	Sololá	1	Sololá	5	Mayo	2023-08-05T00:00:00	2024-11-08T22:00:00	5	Humedad	76
22493	7	Sololá	701	Sololá	1	Sololá	5	Mayo	2023-08-05T00:00:00	2024-11-08T22:00:00	6	Velocidad del viento	3.2
22494	7	Sololá	701	Sololá	1	Sololá	5	Mayo	2023-08-05T00:00:00	2024-11-08T22:00:00	7	Dirección del viento	3.22
22495	7	Sololá	701	Sololá	1	Sololá	5	Mayo	2023-08-05T00:00:00	2024-11-08T22:00:00	1	Precipitación	0
22496	7	Sololá	701	Sololá	1	Sololá	5	Mayo	2023-08-05T00:00:00	2024-11-08T22:00:00	8	Radiación solar	0
22497	7	Sololá	701	Sololá	1	Sololá	5	Mayo	2023-08-05T00:00:00	2024-11-08T23:00:00	2	Temperatura media	18.1
22498	7	Sololá	701	Sololá	1	Sololá	5	Mayo	2023-08-05T00:00:00	2024-11-08T23:00:00	4	Temperatura máxima	18.6
22499	7	Sololá	701	Sololá	1	Sololá	5	Mayo	2023-08-05T00:00:00	2024-11-08T23:00:00	3	Temperatura mínima	18.1
22500	7	Sololá	701	Sololá	1	Sololá	5	Mayo	2023-08-05T00:00:00	2024-11-08T23:00:00	5	Humedad	77
22501	7	Sololá	701	Sololá	1	Sololá	5	Mayo	2023-08-05T00:00:00	2024-11-08T23:00:00	6	Velocidad del viento	1.6
22502	7	Sololá	701	Sololá	1	Sololá	5	Mayo	2023-08-05T00:00:00	2024-11-08T23:00:00	7	Dirección del viento	1.61
22503	7	Sololá	701	Sololá	1	Sololá	5	Mayo	2023-08-05T00:00:00	2024-11-08T23:00:00	1	Precipitación	0
22504	7	Sololá	701	Sololá	1	Sololá	5	Mayo	2023-08-05T00:00:00	2024-11-08T23:00:00	8	Radiación solar	0
22505	7	Sololá	701	Sololá	1	Sololá	5	Mayo	2023-09-05T00:00:00	2024-11-08T00:00:00	2	Temperatura media	17.4
22506	7	Sololá	701	Sololá	1	Sololá	5	Mayo	2023-09-05T00:00:00	2024-11-08T00:00:00	4	Temperatura máxima	18.1
22507	7	Sololá	701	Sololá	1	Sololá	5	Mayo	2023-09-05T00:00:00	2024-11-08T00:00:00	3	Temperatura mínima	17.4
22508	7	Sololá	701	Sololá	1	Sololá	5	Mayo	2023-09-05T00:00:00	2024-11-08T00:00:00	5	Humedad	76
22509	7	Sololá	701	Sololá	1	Sololá	5	Mayo	2023-09-05T00:00:00	2024-11-08T00:00:00	6	Velocidad del viento	3.2
22510	7	Sololá	701	Sololá	1	Sololá	5	Mayo	2023-09-05T00:00:00	2024-11-08T00:00:00	7	Dirección del viento	3.22
22511	7	Sololá	701	Sololá	1	Sololá	5	Mayo	2023-09-05T00:00:00	2024-11-08T00:00:00	1	Precipitación	0
22512	7	Sololá	701	Sololá	1	Sololá	5	Mayo	2023-09-05T00:00:00	2024-11-08T00:00:00	8	Radiación solar	0
22513	7	Sololá	701	Sololá	1	Sololá	5	Mayo	2023-09-05T00:00:00	2024-11-08T01:00:00	2	Temperatura media	17.1
22514	7	Sololá	701	Sololá	1	Sololá	5	Mayo	2023-09-05T00:00:00	2024-11-08T01:00:00	4	Temperatura máxima	17.4
22515	7	Sololá	701	Sololá	1	Sololá	5	Mayo	2023-09-05T00:00:00	2024-11-08T01:00:00	3	Temperatura mínima	17.1
22516	7	Sololá	701	Sololá	1	Sololá	5	Mayo	2023-09-05T00:00:00	2024-11-08T01:00:00	5	Humedad	76
22517	7	Sololá	701	Sololá	1	Sololá	5	Mayo	2023-09-05T00:00:00	2024-11-08T01:00:00	6	Velocidad del viento	9.7
22518	7	Sololá	701	Sololá	1	Sololá	5	Mayo	2023-09-05T00:00:00	2024-11-08T01:00:00	7	Dirección del viento	9.66
22519	7	Sololá	701	Sololá	1	Sololá	5	Mayo	2023-09-05T00:00:00	2024-11-08T01:00:00	1	Precipitación	0
22520	7	Sololá	701	Sololá	1	Sololá	5	Mayo	2023-09-05T00:00:00	2024-11-08T01:00:00	8	Radiación solar	0
22521	7	Sololá	701	Sololá	1	Sololá	5	Mayo	2023-09-05T00:00:00	2024-11-08T02:00:00	2	Temperatura media	15.9
22522	7	Sololá	701	Sololá	1	Sololá	5	Mayo	2023-09-05T00:00:00	2024-11-08T02:00:00	4	Temperatura máxima	17.2
22523	7	Sololá	701	Sololá	1	Sololá	5	Mayo	2023-09-05T00:00:00	2024-11-08T02:00:00	3	Temperatura mínima	15.9
22524	7	Sololá	701	Sololá	1	Sololá	5	Mayo	2023-09-05T00:00:00	2024-11-08T02:00:00	5	Humedad	69
22525	7	Sololá	701	Sololá	1	Sololá	5	Mayo	2023-09-05T00:00:00	2024-11-08T02:00:00	6	Velocidad del viento	12.9
22526	7	Sololá	701	Sololá	1	Sololá	5	Mayo	2023-09-05T00:00:00	2024-11-08T02:00:00	7	Dirección del viento	12.87
22527	7	Sololá	701	Sololá	1	Sololá	5	Mayo	2023-09-05T00:00:00	2024-11-08T02:00:00	1	Precipitación	0
22528	7	Sololá	701	Sololá	1	Sololá	5	Mayo	2023-09-05T00:00:00	2024-11-08T02:00:00	8	Radiación solar	0
22529	7	Sololá	701	Sololá	1	Sololá	5	Mayo	2023-09-05T00:00:00	2024-11-08T03:00:00	2	Temperatura media	14.9
22530	7	Sololá	701	Sololá	1	Sololá	5	Mayo	2023-09-05T00:00:00	2024-11-08T03:00:00	4	Temperatura máxima	16.2
22531	7	Sololá	701	Sololá	1	Sololá	5	Mayo	2023-09-05T00:00:00	2024-11-08T03:00:00	3	Temperatura mínima	14.5
22532	7	Sololá	701	Sololá	1	Sololá	5	Mayo	2023-09-05T00:00:00	2024-11-08T03:00:00	5	Humedad	65
22533	7	Sololá	701	Sololá	1	Sololá	5	Mayo	2023-09-05T00:00:00	2024-11-08T03:00:00	6	Velocidad del viento	6.4
22534	7	Sololá	701	Sololá	1	Sololá	5	Mayo	2023-09-05T00:00:00	2024-11-08T03:00:00	7	Dirección del viento	6.44
22535	7	Sololá	701	Sololá	1	Sololá	5	Mayo	2023-09-05T00:00:00	2024-11-08T03:00:00	1	Precipitación	0
22536	7	Sololá	701	Sololá	1	Sololá	5	Mayo	2023-09-05T00:00:00	2024-11-08T03:00:00	8	Radiación solar	0
22537	7	Sololá	701	Sololá	1	Sololá	5	Mayo	2023-09-05T00:00:00	2024-11-08T04:00:00	2	Temperatura media	14.2
22538	7	Sololá	701	Sololá	1	Sololá	5	Mayo	2023-09-05T00:00:00	2024-11-08T04:00:00	4	Temperatura máxima	14.9
22539	7	Sololá	701	Sololá	1	Sololá	5	Mayo	2023-09-05T00:00:00	2024-11-08T04:00:00	3	Temperatura mínima	13.4
22540	7	Sololá	701	Sololá	1	Sololá	5	Mayo	2023-09-05T00:00:00	2024-11-08T04:00:00	5	Humedad	61
22541	7	Sololá	701	Sololá	1	Sololá	5	Mayo	2023-09-05T00:00:00	2024-11-08T04:00:00	6	Velocidad del viento	4.8
22542	7	Sololá	701	Sololá	1	Sololá	5	Mayo	2023-09-05T00:00:00	2024-11-08T04:00:00	7	Dirección del viento	4.83
22543	7	Sololá	701	Sololá	1	Sololá	5	Mayo	2023-09-05T00:00:00	2024-11-08T04:00:00	1	Precipitación	0
22544	7	Sololá	701	Sololá	1	Sololá	5	Mayo	2023-09-05T00:00:00	2024-11-08T04:00:00	8	Radiación solar	0
22545	7	Sololá	701	Sololá	1	Sololá	5	Mayo	2023-09-05T00:00:00	2024-11-08T05:00:00	2	Temperatura media	13.7
22546	7	Sololá	701	Sololá	1	Sololá	5	Mayo	2023-09-05T00:00:00	2024-11-08T05:00:00	4	Temperatura máxima	14.3
22547	7	Sololá	701	Sololá	1	Sololá	5	Mayo	2023-09-05T00:00:00	2024-11-08T05:00:00	3	Temperatura mínima	13.5
22548	7	Sololá	701	Sololá	1	Sololá	5	Mayo	2023-09-05T00:00:00	2024-11-08T05:00:00	5	Humedad	54
22549	7	Sololá	701	Sololá	1	Sololá	5	Mayo	2023-09-05T00:00:00	2024-11-08T05:00:00	6	Velocidad del viento	3.2
22550	7	Sololá	701	Sololá	1	Sololá	5	Mayo	2023-09-05T00:00:00	2024-11-08T05:00:00	7	Dirección del viento	3.22
22551	7	Sololá	701	Sololá	1	Sololá	5	Mayo	2023-09-05T00:00:00	2024-11-08T05:00:00	1	Precipitación	0
22552	7	Sololá	701	Sololá	1	Sololá	5	Mayo	2023-09-05T00:00:00	2024-11-08T05:00:00	8	Radiación solar	0
22553	7	Sololá	701	Sololá	1	Sololá	5	Mayo	2023-09-05T00:00:00	2024-11-08T06:00:00	2	Temperatura media	14.3
22554	7	Sololá	701	Sololá	1	Sololá	5	Mayo	2023-09-05T00:00:00	2024-11-08T06:00:00	4	Temperatura máxima	14.5
22555	7	Sololá	701	Sololá	1	Sololá	5	Mayo	2023-09-05T00:00:00	2024-11-08T06:00:00	3	Temperatura mínima	13.4
22556	7	Sololá	701	Sololá	1	Sololá	5	Mayo	2023-09-05T00:00:00	2024-11-08T06:00:00	5	Humedad	52
22557	7	Sololá	701	Sololá	1	Sololá	5	Mayo	2023-09-05T00:00:00	2024-11-08T06:00:00	6	Velocidad del viento	3.2
22558	7	Sololá	701	Sololá	1	Sololá	5	Mayo	2023-09-05T00:00:00	2024-11-08T06:00:00	7	Dirección del viento	3.22
22559	7	Sololá	701	Sololá	1	Sololá	5	Mayo	2023-09-05T00:00:00	2024-11-08T06:00:00	1	Precipitación	0
22560	7	Sololá	701	Sololá	1	Sololá	5	Mayo	2023-09-05T00:00:00	2024-11-08T06:00:00	8	Radiación solar	2
22561	7	Sololá	701	Sololá	1	Sololá	5	Mayo	2023-09-05T00:00:00	2024-11-08T07:00:00	2	Temperatura media	13.7
22562	7	Sololá	701	Sololá	1	Sololá	5	Mayo	2023-09-05T00:00:00	2024-11-08T07:00:00	4	Temperatura máxima	14.3
22563	7	Sololá	701	Sololá	1	Sololá	5	Mayo	2023-09-05T00:00:00	2024-11-08T07:00:00	3	Temperatura mínima	13.6
22564	7	Sololá	701	Sololá	1	Sololá	5	Mayo	2023-09-05T00:00:00	2024-11-08T07:00:00	5	Humedad	55
22565	7	Sololá	701	Sololá	1	Sololá	5	Mayo	2023-09-05T00:00:00	2024-11-08T07:00:00	6	Velocidad del viento	3.2
22566	7	Sololá	701	Sololá	1	Sololá	5	Mayo	2023-09-05T00:00:00	2024-11-08T07:00:00	7	Dirección del viento	3.22
22567	7	Sololá	701	Sololá	1	Sololá	5	Mayo	2023-09-05T00:00:00	2024-11-08T07:00:00	1	Precipitación	0
22568	7	Sololá	701	Sololá	1	Sololá	5	Mayo	2023-09-05T00:00:00	2024-11-08T07:00:00	8	Radiación solar	32
22569	7	Sololá	701	Sololá	1	Sololá	5	Mayo	2023-09-05T00:00:00	2024-11-08T08:00:00	2	Temperatura media	16.8
22570	7	Sololá	701	Sololá	1	Sololá	5	Mayo	2023-09-05T00:00:00	2024-11-08T08:00:00	4	Temperatura máxima	16.9
22571	7	Sololá	701	Sololá	1	Sololá	5	Mayo	2023-09-05T00:00:00	2024-11-08T08:00:00	3	Temperatura mínima	13.5
22572	7	Sololá	701	Sololá	1	Sololá	5	Mayo	2023-09-05T00:00:00	2024-11-08T08:00:00	5	Humedad	50
22573	7	Sololá	701	Sololá	1	Sololá	5	Mayo	2023-09-05T00:00:00	2024-11-08T08:00:00	6	Velocidad del viento	8
22574	7	Sololá	701	Sololá	1	Sololá	5	Mayo	2023-09-05T00:00:00	2024-11-08T08:00:00	7	Dirección del viento	8.05
22575	7	Sololá	701	Sololá	1	Sololá	5	Mayo	2023-09-05T00:00:00	2024-11-08T08:00:00	1	Precipitación	0
22576	7	Sololá	701	Sololá	1	Sololá	5	Mayo	2023-09-05T00:00:00	2024-11-08T08:00:00	8	Radiación solar	135
22577	7	Sololá	701	Sololá	1	Sololá	5	Mayo	2023-09-05T00:00:00	2024-11-08T09:00:00	2	Temperatura media	18.9
22578	7	Sololá	701	Sololá	1	Sololá	5	Mayo	2023-09-05T00:00:00	2024-11-08T09:00:00	4	Temperatura máxima	18.9
22579	7	Sololá	701	Sololá	1	Sololá	5	Mayo	2023-09-05T00:00:00	2024-11-08T09:00:00	3	Temperatura mínima	16.8
22580	7	Sololá	701	Sololá	1	Sololá	5	Mayo	2023-09-05T00:00:00	2024-11-08T09:00:00	5	Humedad	55
22581	7	Sololá	701	Sololá	1	Sololá	5	Mayo	2023-09-05T00:00:00	2024-11-08T09:00:00	6	Velocidad del viento	1.6
22582	7	Sololá	701	Sololá	1	Sololá	5	Mayo	2023-09-05T00:00:00	2024-11-08T09:00:00	7	Dirección del viento	1.61
22583	7	Sololá	701	Sololá	1	Sololá	5	Mayo	2023-09-05T00:00:00	2024-11-08T09:00:00	1	Precipitación	0
22584	7	Sololá	701	Sololá	1	Sololá	5	Mayo	2023-09-05T00:00:00	2024-11-08T09:00:00	8	Radiación solar	189
22585	7	Sololá	701	Sololá	1	Sololá	5	Mayo	2023-09-05T00:00:00	2024-11-08T10:00:00	2	Temperatura media	20.8
22586	7	Sololá	701	Sololá	1	Sololá	5	Mayo	2023-09-05T00:00:00	2024-11-08T10:00:00	4	Temperatura máxima	20.9
22587	7	Sololá	701	Sololá	1	Sololá	5	Mayo	2023-09-05T00:00:00	2024-11-08T10:00:00	3	Temperatura mínima	18.9
22588	7	Sololá	701	Sololá	1	Sololá	5	Mayo	2023-09-05T00:00:00	2024-11-08T10:00:00	5	Humedad	55
22589	7	Sololá	701	Sololá	1	Sololá	5	Mayo	2023-09-05T00:00:00	2024-11-08T10:00:00	6	Velocidad del viento	3.2
22590	7	Sololá	701	Sololá	1	Sololá	5	Mayo	2023-09-05T00:00:00	2024-11-08T10:00:00	7	Dirección del viento	3.22
22591	7	Sololá	701	Sololá	1	Sololá	5	Mayo	2023-09-05T00:00:00	2024-11-08T10:00:00	1	Precipitación	0
22592	7	Sololá	701	Sololá	1	Sololá	5	Mayo	2023-09-05T00:00:00	2024-11-08T10:00:00	8	Radiación solar	462
22593	7	Sololá	701	Sololá	1	Sololá	5	Mayo	2023-09-05T00:00:00	2024-11-08T11:00:00	2	Temperatura media	21.4
22594	7	Sololá	701	Sololá	1	Sololá	5	Mayo	2023-09-05T00:00:00	2024-11-08T11:00:00	4	Temperatura máxima	21.4
22595	7	Sololá	701	Sololá	1	Sololá	5	Mayo	2023-09-05T00:00:00	2024-11-08T11:00:00	3	Temperatura mínima	20.8
22596	7	Sololá	701	Sololá	1	Sololá	5	Mayo	2023-09-05T00:00:00	2024-11-08T11:00:00	5	Humedad	59
22597	7	Sololá	701	Sololá	1	Sololá	5	Mayo	2023-09-05T00:00:00	2024-11-08T11:00:00	6	Velocidad del viento	4.8
22598	7	Sololá	701	Sololá	1	Sololá	5	Mayo	2023-09-05T00:00:00	2024-11-08T11:00:00	7	Dirección del viento	4.83
22599	7	Sololá	701	Sololá	1	Sololá	5	Mayo	2023-09-05T00:00:00	2024-11-08T11:00:00	1	Precipitación	0
22600	7	Sololá	701	Sololá	1	Sololá	5	Mayo	2023-09-05T00:00:00	2024-11-08T11:00:00	8	Radiación solar	788
22601	7	Sololá	701	Sololá	1	Sololá	5	Mayo	2023-09-05T00:00:00	2024-11-08T12:00:00	2	Temperatura media	22
22602	7	Sololá	701	Sololá	1	Sololá	5	Mayo	2023-09-05T00:00:00	2024-11-08T12:00:00	4	Temperatura máxima	22.4
22603	7	Sololá	701	Sololá	1	Sololá	5	Mayo	2023-09-05T00:00:00	2024-11-08T12:00:00	3	Temperatura mínima	21.3
22604	7	Sololá	701	Sololá	1	Sololá	5	Mayo	2023-09-05T00:00:00	2024-11-08T12:00:00	5	Humedad	56
22605	7	Sololá	701	Sololá	1	Sololá	5	Mayo	2023-09-05T00:00:00	2024-11-08T12:00:00	6	Velocidad del viento	6.4
22606	7	Sololá	701	Sololá	1	Sololá	5	Mayo	2023-09-05T00:00:00	2024-11-08T12:00:00	7	Dirección del viento	6.44
22607	7	Sololá	701	Sololá	1	Sololá	5	Mayo	2023-09-05T00:00:00	2024-11-08T12:00:00	1	Precipitación	0
22608	7	Sololá	701	Sololá	1	Sololá	5	Mayo	2023-09-05T00:00:00	2024-11-08T12:00:00	8	Radiación solar	631
22609	7	Sololá	701	Sololá	1	Sololá	5	Mayo	2023-09-05T00:00:00	2024-11-08T13:00:00	2	Temperatura media	22.4
22610	7	Sololá	701	Sololá	1	Sololá	5	Mayo	2023-09-05T00:00:00	2024-11-08T13:00:00	4	Temperatura máxima	22.7
22611	7	Sololá	701	Sololá	1	Sololá	5	Mayo	2023-09-05T00:00:00	2024-11-08T13:00:00	3	Temperatura mínima	21.8
22612	7	Sololá	701	Sololá	1	Sololá	5	Mayo	2023-09-05T00:00:00	2024-11-08T13:00:00	5	Humedad	62
22613	7	Sololá	701	Sololá	1	Sololá	5	Mayo	2023-09-05T00:00:00	2024-11-08T13:00:00	6	Velocidad del viento	8
22614	7	Sololá	701	Sololá	1	Sololá	5	Mayo	2023-09-05T00:00:00	2024-11-08T13:00:00	7	Dirección del viento	8.05
22615	7	Sololá	701	Sololá	1	Sololá	5	Mayo	2023-09-05T00:00:00	2024-11-08T13:00:00	1	Precipitación	0
22616	7	Sololá	701	Sololá	1	Sololá	5	Mayo	2023-09-05T00:00:00	2024-11-08T13:00:00	8	Radiación solar	362
22617	7	Sololá	701	Sololá	1	Sololá	5	Mayo	2023-09-05T00:00:00	2024-11-08T14:00:00	2	Temperatura media	21.6
22618	7	Sololá	701	Sololá	1	Sololá	5	Mayo	2023-09-05T00:00:00	2024-11-08T14:00:00	4	Temperatura máxima	22.9
22619	7	Sololá	701	Sololá	1	Sololá	5	Mayo	2023-09-05T00:00:00	2024-11-08T14:00:00	3	Temperatura mínima	21.5
22620	7	Sololá	701	Sololá	1	Sololá	5	Mayo	2023-09-05T00:00:00	2024-11-08T14:00:00	5	Humedad	74
22621	7	Sololá	701	Sololá	1	Sololá	5	Mayo	2023-09-05T00:00:00	2024-11-08T14:00:00	6	Velocidad del viento	9.7
22622	7	Sololá	701	Sololá	1	Sololá	5	Mayo	2023-09-05T00:00:00	2024-11-08T14:00:00	7	Dirección del viento	9.66
22623	7	Sololá	701	Sololá	1	Sololá	5	Mayo	2023-09-05T00:00:00	2024-11-08T14:00:00	1	Precipitación	0
22624	7	Sololá	701	Sololá	1	Sololá	5	Mayo	2023-09-05T00:00:00	2024-11-08T14:00:00	8	Radiación solar	347
22625	7	Sololá	701	Sololá	1	Sololá	5	Mayo	2023-09-05T00:00:00	2024-11-08T15:00:00	2	Temperatura media	21.9
22626	7	Sololá	701	Sololá	1	Sololá	5	Mayo	2023-09-05T00:00:00	2024-11-08T15:00:00	4	Temperatura máxima	21.9
22627	7	Sololá	701	Sololá	1	Sololá	5	Mayo	2023-09-05T00:00:00	2024-11-08T15:00:00	3	Temperatura mínima	21.3
22628	7	Sololá	701	Sololá	1	Sololá	5	Mayo	2023-09-05T00:00:00	2024-11-08T15:00:00	5	Humedad	73
22629	7	Sololá	701	Sololá	1	Sololá	5	Mayo	2023-09-05T00:00:00	2024-11-08T15:00:00	6	Velocidad del viento	8
22630	7	Sololá	701	Sololá	1	Sololá	5	Mayo	2023-09-05T00:00:00	2024-11-08T15:00:00	7	Dirección del viento	8.05
22631	7	Sololá	701	Sololá	1	Sololá	5	Mayo	2023-09-05T00:00:00	2024-11-08T15:00:00	1	Precipitación	0
22632	7	Sololá	701	Sololá	1	Sololá	5	Mayo	2023-09-05T00:00:00	2024-11-08T15:00:00	8	Radiación solar	288
22633	7	Sololá	701	Sololá	1	Sololá	5	Mayo	2023-09-05T00:00:00	2024-11-08T16:00:00	2	Temperatura media	20.9
22634	7	Sololá	701	Sololá	1	Sololá	5	Mayo	2023-09-05T00:00:00	2024-11-08T16:00:00	4	Temperatura máxima	22.6
22635	7	Sololá	701	Sololá	1	Sololá	5	Mayo	2023-09-05T00:00:00	2024-11-08T16:00:00	3	Temperatura mínima	20.9
22636	7	Sololá	701	Sololá	1	Sololá	5	Mayo	2023-09-05T00:00:00	2024-11-08T16:00:00	5	Humedad	79
22637	7	Sololá	701	Sololá	1	Sololá	5	Mayo	2023-09-05T00:00:00	2024-11-08T16:00:00	6	Velocidad del viento	8
22638	7	Sololá	701	Sololá	1	Sololá	5	Mayo	2023-09-05T00:00:00	2024-11-08T16:00:00	7	Dirección del viento	8.05
22639	7	Sololá	701	Sololá	1	Sololá	5	Mayo	2023-09-05T00:00:00	2024-11-08T16:00:00	1	Precipitación	0
22640	7	Sololá	701	Sololá	1	Sololá	5	Mayo	2023-09-05T00:00:00	2024-11-08T16:00:00	8	Radiación solar	178
22641	7	Sololá	701	Sololá	1	Sololá	5	Mayo	2023-09-05T00:00:00	2024-11-08T17:00:00	2	Temperatura media	21.3
22642	7	Sololá	701	Sololá	1	Sololá	5	Mayo	2023-09-05T00:00:00	2024-11-08T17:00:00	4	Temperatura máxima	21.5
22643	7	Sololá	701	Sololá	1	Sololá	5	Mayo	2023-09-05T00:00:00	2024-11-08T17:00:00	3	Temperatura mínima	20.5
22644	7	Sololá	701	Sololá	1	Sololá	5	Mayo	2023-09-05T00:00:00	2024-11-08T17:00:00	5	Humedad	78
22645	7	Sololá	701	Sololá	1	Sololá	5	Mayo	2023-09-05T00:00:00	2024-11-08T17:00:00	6	Velocidad del viento	6.4
22646	7	Sololá	701	Sololá	1	Sololá	5	Mayo	2023-09-05T00:00:00	2024-11-08T17:00:00	7	Dirección del viento	6.44
22647	7	Sololá	701	Sololá	1	Sololá	5	Mayo	2023-09-05T00:00:00	2024-11-08T17:00:00	1	Precipitación	0
22648	7	Sololá	701	Sololá	1	Sololá	5	Mayo	2023-09-05T00:00:00	2024-11-08T17:00:00	8	Radiación solar	91
22649	7	Sololá	701	Sololá	1	Sololá	5	Mayo	2023-09-05T00:00:00	2024-11-08T18:00:00	2	Temperatura media	18.9
22650	7	Sololá	701	Sololá	1	Sololá	5	Mayo	2023-09-05T00:00:00	2024-11-08T18:00:00	4	Temperatura máxima	21.3
22651	7	Sololá	701	Sololá	1	Sololá	5	Mayo	2023-09-05T00:00:00	2024-11-08T18:00:00	3	Temperatura mínima	18.9
22652	7	Sololá	701	Sololá	1	Sololá	5	Mayo	2023-09-05T00:00:00	2024-11-08T18:00:00	5	Humedad	85
22653	7	Sololá	701	Sololá	1	Sololá	5	Mayo	2023-09-05T00:00:00	2024-11-08T18:00:00	6	Velocidad del viento	4.8
22654	7	Sololá	701	Sololá	1	Sololá	5	Mayo	2023-09-05T00:00:00	2024-11-08T18:00:00	7	Dirección del viento	4.83
22655	7	Sololá	701	Sololá	1	Sololá	5	Mayo	2023-09-05T00:00:00	2024-11-08T18:00:00	1	Precipitación	0
22656	7	Sololá	701	Sololá	1	Sololá	5	Mayo	2023-09-05T00:00:00	2024-11-08T18:00:00	8	Radiación solar	42
22657	7	Sololá	701	Sololá	1	Sololá	5	Mayo	2023-09-05T00:00:00	2024-11-08T19:00:00	2	Temperatura media	18.2
22658	7	Sololá	701	Sololá	1	Sololá	5	Mayo	2023-09-05T00:00:00	2024-11-08T19:00:00	4	Temperatura máxima	19.1
22659	7	Sololá	701	Sololá	1	Sololá	5	Mayo	2023-09-05T00:00:00	2024-11-08T19:00:00	3	Temperatura mínima	18.2
22660	7	Sololá	701	Sololá	1	Sololá	5	Mayo	2023-09-05T00:00:00	2024-11-08T19:00:00	5	Humedad	90
22661	7	Sololá	701	Sololá	1	Sololá	5	Mayo	2023-09-05T00:00:00	2024-11-08T19:00:00	6	Velocidad del viento	3.2
22662	7	Sololá	701	Sololá	1	Sololá	5	Mayo	2023-09-05T00:00:00	2024-11-08T19:00:00	7	Dirección del viento	3.22
22663	7	Sololá	701	Sololá	1	Sololá	5	Mayo	2023-09-05T00:00:00	2024-11-08T19:00:00	1	Precipitación	0
22664	7	Sololá	701	Sololá	1	Sololá	5	Mayo	2023-09-05T00:00:00	2024-11-08T19:00:00	8	Radiación solar	0
22665	7	Sololá	701	Sololá	1	Sololá	5	Mayo	2023-09-05T00:00:00	2024-11-08T20:00:00	2	Temperatura media	17.8
22666	7	Sololá	701	Sololá	1	Sololá	5	Mayo	2023-09-05T00:00:00	2024-11-08T20:00:00	4	Temperatura máxima	18.3
22667	7	Sololá	701	Sololá	1	Sololá	5	Mayo	2023-09-05T00:00:00	2024-11-08T20:00:00	3	Temperatura mínima	17.7
22668	7	Sololá	701	Sololá	1	Sololá	5	Mayo	2023-09-05T00:00:00	2024-11-08T20:00:00	5	Humedad	91
22669	7	Sololá	701	Sololá	1	Sololá	5	Mayo	2023-09-05T00:00:00	2024-11-08T20:00:00	6	Velocidad del viento	3.2
22670	7	Sololá	701	Sololá	1	Sololá	5	Mayo	2023-09-05T00:00:00	2024-11-08T20:00:00	7	Dirección del viento	3.22
22671	7	Sololá	701	Sololá	1	Sololá	5	Mayo	2023-09-05T00:00:00	2024-11-08T20:00:00	1	Precipitación	0
22672	7	Sololá	701	Sololá	1	Sololá	5	Mayo	2023-09-05T00:00:00	2024-11-08T20:00:00	8	Radiación solar	0
22673	7	Sololá	701	Sololá	1	Sololá	5	Mayo	2023-09-05T00:00:00	2024-11-08T21:00:00	2	Temperatura media	17.6
22674	7	Sololá	701	Sololá	1	Sololá	5	Mayo	2023-09-05T00:00:00	2024-11-08T21:00:00	4	Temperatura máxima	17.8
22675	7	Sololá	701	Sololá	1	Sololá	5	Mayo	2023-09-05T00:00:00	2024-11-08T21:00:00	3	Temperatura mínima	17.4
22676	7	Sololá	701	Sololá	1	Sololá	5	Mayo	2023-09-05T00:00:00	2024-11-08T21:00:00	5	Humedad	91
22677	7	Sololá	701	Sololá	1	Sololá	5	Mayo	2023-09-05T00:00:00	2024-11-08T21:00:00	6	Velocidad del viento	3.2
22678	7	Sololá	701	Sololá	1	Sololá	5	Mayo	2023-09-05T00:00:00	2024-11-08T21:00:00	7	Dirección del viento	3.22
22679	7	Sololá	701	Sololá	1	Sololá	5	Mayo	2023-09-05T00:00:00	2024-11-08T21:00:00	1	Precipitación	0
22680	7	Sololá	701	Sololá	1	Sololá	5	Mayo	2023-09-05T00:00:00	2024-11-08T21:00:00	8	Radiación solar	0
22681	7	Sololá	701	Sololá	1	Sololá	5	Mayo	2023-09-05T00:00:00	2024-11-08T22:00:00	2	Temperatura media	17.6
22682	7	Sololá	701	Sololá	1	Sololá	5	Mayo	2023-09-05T00:00:00	2024-11-08T22:00:00	4	Temperatura máxima	17.7
22683	7	Sololá	701	Sololá	1	Sololá	5	Mayo	2023-09-05T00:00:00	2024-11-08T22:00:00	3	Temperatura mínima	17.4
22684	7	Sololá	701	Sololá	1	Sololá	5	Mayo	2023-09-05T00:00:00	2024-11-08T22:00:00	5	Humedad	91
22685	7	Sololá	701	Sololá	1	Sololá	5	Mayo	2023-09-05T00:00:00	2024-11-08T22:00:00	6	Velocidad del viento	1.6
22686	7	Sololá	701	Sololá	1	Sololá	5	Mayo	2023-09-05T00:00:00	2024-11-08T22:00:00	7	Dirección del viento	1.61
22687	7	Sololá	701	Sololá	1	Sololá	5	Mayo	2023-09-05T00:00:00	2024-11-08T22:00:00	1	Precipitación	0
22688	7	Sololá	701	Sololá	1	Sololá	5	Mayo	2023-09-05T00:00:00	2024-11-08T22:00:00	8	Radiación solar	0
22689	7	Sololá	701	Sololá	1	Sololá	5	Mayo	2023-09-05T00:00:00	2024-11-08T23:00:00	2	Temperatura media	17.4
22690	7	Sololá	701	Sololá	1	Sololá	5	Mayo	2023-09-05T00:00:00	2024-11-08T23:00:00	4	Temperatura máxima	17.6
22691	7	Sololá	701	Sololá	1	Sololá	5	Mayo	2023-09-05T00:00:00	2024-11-08T23:00:00	3	Temperatura mínima	17.2
22692	7	Sololá	701	Sololá	1	Sololá	5	Mayo	2023-09-05T00:00:00	2024-11-08T23:00:00	5	Humedad	91
22693	7	Sololá	701	Sololá	1	Sololá	5	Mayo	2023-09-05T00:00:00	2024-11-08T23:00:00	6	Velocidad del viento	1.6
22694	7	Sololá	701	Sololá	1	Sololá	5	Mayo	2023-09-05T00:00:00	2024-11-08T23:00:00	7	Dirección del viento	1.61
22695	7	Sololá	701	Sololá	1	Sololá	5	Mayo	2023-09-05T00:00:00	2024-11-08T23:00:00	1	Precipitación	0
22696	7	Sololá	701	Sololá	1	Sololá	5	Mayo	2023-09-05T00:00:00	2024-11-08T23:00:00	8	Radiación solar	0
22697	7	Sololá	701	Sololá	1	Sololá	5	Mayo	2023-10-05T00:00:00	2024-11-08T00:00:00	2	Temperatura media	17.2
22698	7	Sololá	701	Sololá	1	Sololá	5	Mayo	2023-10-05T00:00:00	2024-11-08T00:00:00	4	Temperatura máxima	17.4
22699	7	Sololá	701	Sololá	1	Sololá	5	Mayo	2023-10-05T00:00:00	2024-11-08T00:00:00	3	Temperatura mínima	17.1
22700	7	Sololá	701	Sololá	1	Sololá	5	Mayo	2023-10-05T00:00:00	2024-11-08T00:00:00	5	Humedad	91
22701	7	Sololá	701	Sololá	1	Sololá	5	Mayo	2023-10-05T00:00:00	2024-11-08T00:00:00	6	Velocidad del viento	0
22702	7	Sololá	701	Sololá	1	Sololá	5	Mayo	2023-10-05T00:00:00	2024-11-08T00:00:00	7	Dirección del viento	0
22703	7	Sololá	701	Sololá	1	Sololá	5	Mayo	2023-10-05T00:00:00	2024-11-08T00:00:00	1	Precipitación	0
22704	7	Sololá	701	Sololá	1	Sololá	5	Mayo	2023-10-05T00:00:00	2024-11-08T00:00:00	8	Radiación solar	0
22705	7	Sololá	701	Sololá	1	Sololá	5	Mayo	2023-10-05T00:00:00	2024-11-08T01:00:00	2	Temperatura media	17.1
22706	7	Sololá	701	Sololá	1	Sololá	5	Mayo	2023-10-05T00:00:00	2024-11-08T01:00:00	4	Temperatura máxima	17.2
22707	7	Sololá	701	Sololá	1	Sololá	5	Mayo	2023-10-05T00:00:00	2024-11-08T01:00:00	3	Temperatura mínima	16.9
22708	7	Sololá	701	Sololá	1	Sololá	5	Mayo	2023-10-05T00:00:00	2024-11-08T01:00:00	5	Humedad	92
22709	7	Sololá	701	Sololá	1	Sololá	5	Mayo	2023-10-05T00:00:00	2024-11-08T01:00:00	6	Velocidad del viento	1.6
22710	7	Sololá	701	Sololá	1	Sololá	5	Mayo	2023-10-05T00:00:00	2024-11-08T01:00:00	7	Dirección del viento	1.61
22711	7	Sololá	701	Sololá	1	Sololá	5	Mayo	2023-10-05T00:00:00	2024-11-08T01:00:00	1	Precipitación	0
22712	7	Sololá	701	Sololá	1	Sololá	5	Mayo	2023-10-05T00:00:00	2024-11-08T01:00:00	8	Radiación solar	0
22713	7	Sololá	701	Sololá	1	Sololá	5	Mayo	2023-10-05T00:00:00	2024-11-08T02:00:00	2	Temperatura media	16.9
22714	7	Sololá	701	Sololá	1	Sololá	5	Mayo	2023-10-05T00:00:00	2024-11-08T02:00:00	4	Temperatura máxima	17.1
22715	7	Sololá	701	Sololá	1	Sololá	5	Mayo	2023-10-05T00:00:00	2024-11-08T02:00:00	3	Temperatura mínima	16.8
22716	7	Sololá	701	Sololá	1	Sololá	5	Mayo	2023-10-05T00:00:00	2024-11-08T02:00:00	5	Humedad	93
22717	7	Sololá	701	Sololá	1	Sololá	5	Mayo	2023-10-05T00:00:00	2024-11-08T02:00:00	6	Velocidad del viento	0
22718	7	Sololá	701	Sololá	1	Sololá	5	Mayo	2023-10-05T00:00:00	2024-11-08T02:00:00	7	Dirección del viento	0
22719	7	Sololá	701	Sololá	1	Sololá	5	Mayo	2023-10-05T00:00:00	2024-11-08T02:00:00	1	Precipitación	0
22720	7	Sololá	701	Sololá	1	Sololá	5	Mayo	2023-10-05T00:00:00	2024-11-08T02:00:00	8	Radiación solar	0
22721	7	Sololá	701	Sololá	1	Sololá	5	Mayo	2023-10-05T00:00:00	2024-11-08T03:00:00	2	Temperatura media	16.6
22722	7	Sololá	701	Sololá	1	Sololá	5	Mayo	2023-10-05T00:00:00	2024-11-08T03:00:00	4	Temperatura máxima	16.9
22723	7	Sololá	701	Sololá	1	Sololá	5	Mayo	2023-10-05T00:00:00	2024-11-08T03:00:00	3	Temperatura mínima	16.6
22724	7	Sololá	701	Sololá	1	Sololá	5	Mayo	2023-10-05T00:00:00	2024-11-08T03:00:00	5	Humedad	93
22725	7	Sololá	701	Sololá	1	Sololá	5	Mayo	2023-10-05T00:00:00	2024-11-08T03:00:00	6	Velocidad del viento	0
22726	7	Sololá	701	Sololá	1	Sololá	5	Mayo	2023-10-05T00:00:00	2024-11-08T03:00:00	7	Dirección del viento	0
22727	7	Sololá	701	Sololá	1	Sololá	5	Mayo	2023-10-05T00:00:00	2024-11-08T03:00:00	1	Precipitación	0
22728	7	Sololá	701	Sololá	1	Sololá	5	Mayo	2023-10-05T00:00:00	2024-11-08T03:00:00	8	Radiación solar	0
22729	7	Sololá	701	Sololá	1	Sololá	5	Mayo	2023-10-05T00:00:00	2024-11-08T04:00:00	2	Temperatura media	16
22730	7	Sololá	701	Sololá	1	Sololá	5	Mayo	2023-10-05T00:00:00	2024-11-08T04:00:00	4	Temperatura máxima	16.6
22731	7	Sololá	701	Sololá	1	Sololá	5	Mayo	2023-10-05T00:00:00	2024-11-08T04:00:00	3	Temperatura mínima	16
22732	7	Sololá	701	Sololá	1	Sololá	5	Mayo	2023-10-05T00:00:00	2024-11-08T04:00:00	5	Humedad	91
22733	7	Sololá	701	Sololá	1	Sololá	5	Mayo	2023-10-05T00:00:00	2024-11-08T04:00:00	6	Velocidad del viento	1.6
22734	7	Sololá	701	Sololá	1	Sololá	5	Mayo	2023-10-05T00:00:00	2024-11-08T04:00:00	7	Dirección del viento	1.61
22735	7	Sololá	701	Sololá	1	Sololá	5	Mayo	2023-10-05T00:00:00	2024-11-08T04:00:00	1	Precipitación	0
22736	7	Sololá	701	Sololá	1	Sololá	5	Mayo	2023-10-05T00:00:00	2024-11-08T04:00:00	8	Radiación solar	0
22737	7	Sololá	701	Sololá	1	Sololá	5	Mayo	2023-10-05T00:00:00	2024-11-08T05:00:00	2	Temperatura media	15.4
22738	7	Sololá	701	Sololá	1	Sololá	5	Mayo	2023-10-05T00:00:00	2024-11-08T05:00:00	4	Temperatura máxima	16
22739	7	Sololá	701	Sololá	1	Sololá	5	Mayo	2023-10-05T00:00:00	2024-11-08T05:00:00	3	Temperatura mínima	15.4
22740	7	Sololá	701	Sololá	1	Sololá	5	Mayo	2023-10-05T00:00:00	2024-11-08T05:00:00	5	Humedad	89
22741	7	Sololá	701	Sololá	1	Sololá	5	Mayo	2023-10-05T00:00:00	2024-11-08T05:00:00	6	Velocidad del viento	3.2
22742	7	Sololá	701	Sololá	1	Sololá	5	Mayo	2023-10-05T00:00:00	2024-11-08T05:00:00	7	Dirección del viento	3.22
22743	7	Sololá	701	Sololá	1	Sololá	5	Mayo	2023-10-05T00:00:00	2024-11-08T05:00:00	1	Precipitación	0
22744	7	Sololá	701	Sololá	1	Sololá	5	Mayo	2023-10-05T00:00:00	2024-11-08T05:00:00	8	Radiación solar	0
22745	7	Sololá	701	Sololá	1	Sololá	5	Mayo	2023-10-05T00:00:00	2024-11-08T06:00:00	2	Temperatura media	15.4
22746	7	Sololá	701	Sololá	1	Sololá	5	Mayo	2023-10-05T00:00:00	2024-11-08T06:00:00	4	Temperatura máxima	15.5
22747	7	Sololá	701	Sololá	1	Sololá	5	Mayo	2023-10-05T00:00:00	2024-11-08T06:00:00	3	Temperatura mínima	15.1
22748	7	Sololá	701	Sololá	1	Sololá	5	Mayo	2023-10-05T00:00:00	2024-11-08T06:00:00	5	Humedad	85
22749	7	Sololá	701	Sololá	1	Sololá	5	Mayo	2023-10-05T00:00:00	2024-11-08T06:00:00	6	Velocidad del viento	3.2
22750	7	Sololá	701	Sololá	1	Sololá	5	Mayo	2023-10-05T00:00:00	2024-11-08T06:00:00	7	Dirección del viento	3.22
22751	7	Sololá	701	Sololá	1	Sololá	5	Mayo	2023-10-05T00:00:00	2024-11-08T06:00:00	1	Precipitación	0
22752	7	Sololá	701	Sololá	1	Sololá	5	Mayo	2023-10-05T00:00:00	2024-11-08T06:00:00	8	Radiación solar	2
22753	7	Sololá	701	Sololá	1	Sololá	5	Mayo	2023-10-05T00:00:00	2024-11-08T07:00:00	2	Temperatura media	15
22754	7	Sololá	701	Sololá	1	Sololá	5	Mayo	2023-10-05T00:00:00	2024-11-08T07:00:00	4	Temperatura máxima	15.5
22755	7	Sololá	701	Sololá	1	Sololá	5	Mayo	2023-10-05T00:00:00	2024-11-08T07:00:00	3	Temperatura mínima	14.6
22756	7	Sololá	701	Sololá	1	Sololá	5	Mayo	2023-10-05T00:00:00	2024-11-08T07:00:00	5	Humedad	84
22757	7	Sololá	701	Sololá	1	Sololá	5	Mayo	2023-10-05T00:00:00	2024-11-08T07:00:00	6	Velocidad del viento	3.2
22758	7	Sololá	701	Sololá	1	Sololá	5	Mayo	2023-10-05T00:00:00	2024-11-08T07:00:00	7	Dirección del viento	3.22
22759	7	Sololá	701	Sololá	1	Sololá	5	Mayo	2023-10-05T00:00:00	2024-11-08T07:00:00	1	Precipitación	0
22760	7	Sololá	701	Sololá	1	Sololá	5	Mayo	2023-10-05T00:00:00	2024-11-08T07:00:00	8	Radiación solar	50
22761	7	Sololá	701	Sololá	1	Sololá	5	Mayo	2023-10-05T00:00:00	2024-11-08T08:00:00	2	Temperatura media	15.9
22762	7	Sololá	701	Sololá	1	Sololá	5	Mayo	2023-10-05T00:00:00	2024-11-08T08:00:00	4	Temperatura máxima	16.2
22763	7	Sololá	701	Sololá	1	Sololá	5	Mayo	2023-10-05T00:00:00	2024-11-08T08:00:00	3	Temperatura mínima	15.1
22764	7	Sololá	701	Sololá	1	Sololá	5	Mayo	2023-10-05T00:00:00	2024-11-08T08:00:00	5	Humedad	78
22765	7	Sololá	701	Sololá	1	Sololá	5	Mayo	2023-10-05T00:00:00	2024-11-08T08:00:00	6	Velocidad del viento	4.8
22766	7	Sololá	701	Sololá	1	Sololá	5	Mayo	2023-10-05T00:00:00	2024-11-08T08:00:00	7	Dirección del viento	4.83
22767	7	Sololá	701	Sololá	1	Sololá	5	Mayo	2023-10-05T00:00:00	2024-11-08T08:00:00	1	Precipitación	0
22768	7	Sololá	701	Sololá	1	Sololá	5	Mayo	2023-10-05T00:00:00	2024-11-08T08:00:00	8	Radiación solar	100
22769	7	Sololá	701	Sololá	1	Sololá	5	Mayo	2023-10-05T00:00:00	2024-11-08T09:00:00	2	Temperatura media	18.1
22770	7	Sololá	701	Sololá	1	Sololá	5	Mayo	2023-10-05T00:00:00	2024-11-08T09:00:00	4	Temperatura máxima	18.1
22771	7	Sololá	701	Sololá	1	Sololá	5	Mayo	2023-10-05T00:00:00	2024-11-08T09:00:00	3	Temperatura mínima	15.9
22772	7	Sololá	701	Sololá	1	Sololá	5	Mayo	2023-10-05T00:00:00	2024-11-08T09:00:00	5	Humedad	82
22773	7	Sololá	701	Sololá	1	Sololá	5	Mayo	2023-10-05T00:00:00	2024-11-08T09:00:00	6	Velocidad del viento	1.6
22774	7	Sololá	701	Sololá	1	Sololá	5	Mayo	2023-10-05T00:00:00	2024-11-08T09:00:00	7	Dirección del viento	1.61
22775	7	Sololá	701	Sololá	1	Sololá	5	Mayo	2023-10-05T00:00:00	2024-11-08T09:00:00	1	Precipitación	0
22776	7	Sololá	701	Sololá	1	Sololá	5	Mayo	2023-10-05T00:00:00	2024-11-08T09:00:00	8	Radiación solar	205
22777	7	Sololá	701	Sololá	1	Sololá	5	Mayo	2023-10-05T00:00:00	2024-11-08T10:00:00	2	Temperatura media	20.8
22778	7	Sololá	701	Sololá	1	Sololá	5	Mayo	2023-10-05T00:00:00	2024-11-08T10:00:00	4	Temperatura máxima	20.9
22779	7	Sololá	701	Sololá	1	Sololá	5	Mayo	2023-10-05T00:00:00	2024-11-08T10:00:00	3	Temperatura mínima	18.1
22780	7	Sololá	701	Sololá	1	Sololá	5	Mayo	2023-10-05T00:00:00	2024-11-08T10:00:00	5	Humedad	75
22781	7	Sololá	701	Sololá	1	Sololá	5	Mayo	2023-10-05T00:00:00	2024-11-08T10:00:00	6	Velocidad del viento	3.2
22782	7	Sololá	701	Sololá	1	Sololá	5	Mayo	2023-10-05T00:00:00	2024-11-08T10:00:00	7	Dirección del viento	3.22
22783	7	Sololá	701	Sololá	1	Sololá	5	Mayo	2023-10-05T00:00:00	2024-11-08T10:00:00	1	Precipitación	0
22784	7	Sololá	701	Sololá	1	Sololá	5	Mayo	2023-10-05T00:00:00	2024-11-08T10:00:00	8	Radiación solar	181
22785	7	Sololá	701	Sololá	1	Sololá	5	Mayo	2023-10-05T00:00:00	2024-11-08T11:00:00	2	Temperatura media	21
22786	7	Sololá	701	Sololá	1	Sololá	5	Mayo	2023-10-05T00:00:00	2024-11-08T11:00:00	4	Temperatura máxima	21.1
22787	7	Sololá	701	Sololá	1	Sololá	5	Mayo	2023-10-05T00:00:00	2024-11-08T11:00:00	3	Temperatura mínima	20.5
22788	7	Sololá	701	Sololá	1	Sololá	5	Mayo	2023-10-05T00:00:00	2024-11-08T11:00:00	5	Humedad	72
22789	7	Sololá	701	Sololá	1	Sololá	5	Mayo	2023-10-05T00:00:00	2024-11-08T11:00:00	6	Velocidad del viento	6.4
22790	7	Sololá	701	Sololá	1	Sololá	5	Mayo	2023-10-05T00:00:00	2024-11-08T11:00:00	7	Dirección del viento	6.44
22791	7	Sololá	701	Sololá	1	Sololá	5	Mayo	2023-10-05T00:00:00	2024-11-08T11:00:00	1	Precipitación	0
22792	7	Sololá	701	Sololá	1	Sololá	5	Mayo	2023-10-05T00:00:00	2024-11-08T11:00:00	8	Radiación solar	356
22793	7	Sololá	701	Sololá	1	Sololá	5	Mayo	2023-10-05T00:00:00	2024-11-08T12:00:00	2	Temperatura media	21.9
22794	7	Sololá	701	Sololá	1	Sololá	5	Mayo	2023-10-05T00:00:00	2024-11-08T12:00:00	4	Temperatura máxima	22
22795	7	Sololá	701	Sololá	1	Sololá	5	Mayo	2023-10-05T00:00:00	2024-11-08T12:00:00	3	Temperatura mínima	21
22796	7	Sololá	701	Sololá	1	Sololá	5	Mayo	2023-10-05T00:00:00	2024-11-08T12:00:00	5	Humedad	70
22797	7	Sololá	701	Sololá	1	Sololá	5	Mayo	2023-10-05T00:00:00	2024-11-08T12:00:00	6	Velocidad del viento	6.4
22798	7	Sololá	701	Sololá	1	Sololá	5	Mayo	2023-10-05T00:00:00	2024-11-08T12:00:00	7	Dirección del viento	6.44
22799	7	Sololá	701	Sololá	1	Sololá	5	Mayo	2023-10-05T00:00:00	2024-11-08T12:00:00	1	Precipitación	0
22800	7	Sololá	701	Sololá	1	Sololá	5	Mayo	2023-10-05T00:00:00	2024-11-08T12:00:00	8	Radiación solar	600
22801	7	Sololá	701	Sololá	1	Sololá	5	Mayo	2023-10-05T00:00:00	2024-11-08T13:00:00	2	Temperatura media	20.2
22802	7	Sololá	701	Sololá	1	Sololá	5	Mayo	2023-10-05T00:00:00	2024-11-08T13:00:00	4	Temperatura máxima	21.9
22803	7	Sololá	701	Sololá	1	Sololá	5	Mayo	2023-10-05T00:00:00	2024-11-08T13:00:00	3	Temperatura mínima	20.1
22804	7	Sololá	701	Sololá	1	Sololá	5	Mayo	2023-10-05T00:00:00	2024-11-08T13:00:00	5	Humedad	80
22805	7	Sololá	701	Sololá	1	Sololá	5	Mayo	2023-10-05T00:00:00	2024-11-08T13:00:00	6	Velocidad del viento	8
22806	7	Sololá	701	Sololá	1	Sololá	5	Mayo	2023-10-05T00:00:00	2024-11-08T13:00:00	7	Dirección del viento	8.05
22807	7	Sololá	701	Sololá	1	Sololá	5	Mayo	2023-10-05T00:00:00	2024-11-08T13:00:00	1	Precipitación	0
22808	7	Sololá	701	Sololá	1	Sololá	5	Mayo	2023-10-05T00:00:00	2024-11-08T13:00:00	8	Radiación solar	531
22809	7	Sololá	701	Sololá	1	Sololá	5	Mayo	2023-10-05T00:00:00	2024-11-08T14:00:00	2	Temperatura media	20.4
22810	7	Sololá	701	Sololá	1	Sololá	5	Mayo	2023-10-05T00:00:00	2024-11-08T14:00:00	4	Temperatura máxima	20.7
22811	7	Sololá	701	Sololá	1	Sololá	5	Mayo	2023-10-05T00:00:00	2024-11-08T14:00:00	3	Temperatura mínima	19.7
22812	7	Sololá	701	Sololá	1	Sololá	5	Mayo	2023-10-05T00:00:00	2024-11-08T14:00:00	5	Humedad	79
22813	7	Sololá	701	Sololá	1	Sololá	5	Mayo	2023-10-05T00:00:00	2024-11-08T14:00:00	6	Velocidad del viento	8
22814	7	Sololá	701	Sololá	1	Sololá	5	Mayo	2023-10-05T00:00:00	2024-11-08T14:00:00	7	Dirección del viento	8.05
22815	7	Sololá	701	Sololá	1	Sololá	5	Mayo	2023-10-05T00:00:00	2024-11-08T14:00:00	1	Precipitación	0
22816	7	Sololá	701	Sololá	1	Sololá	5	Mayo	2023-10-05T00:00:00	2024-11-08T14:00:00	8	Radiación solar	794
22817	7	Sololá	701	Sololá	1	Sololá	5	Mayo	2023-10-05T00:00:00	2024-11-08T15:00:00	2	Temperatura media	21.1
22818	7	Sololá	701	Sololá	1	Sololá	5	Mayo	2023-10-05T00:00:00	2024-11-08T15:00:00	4	Temperatura máxima	21.7
22819	7	Sololá	701	Sololá	1	Sololá	5	Mayo	2023-10-05T00:00:00	2024-11-08T15:00:00	3	Temperatura mínima	19.8
22820	7	Sololá	701	Sololá	1	Sololá	5	Mayo	2023-10-05T00:00:00	2024-11-08T15:00:00	5	Humedad	77
22821	7	Sololá	701	Sololá	1	Sololá	5	Mayo	2023-10-05T00:00:00	2024-11-08T15:00:00	6	Velocidad del viento	6.4
22822	7	Sololá	701	Sololá	1	Sololá	5	Mayo	2023-10-05T00:00:00	2024-11-08T15:00:00	7	Dirección del viento	6.44
22823	7	Sololá	701	Sololá	1	Sololá	5	Mayo	2023-10-05T00:00:00	2024-11-08T15:00:00	1	Precipitación	0
22824	7	Sololá	701	Sololá	1	Sololá	5	Mayo	2023-10-05T00:00:00	2024-11-08T15:00:00	8	Radiación solar	458
22825	7	Sololá	701	Sololá	1	Sololá	5	Mayo	2023-10-05T00:00:00	2024-11-08T16:00:00	2	Temperatura media	19.4
22826	7	Sololá	701	Sololá	1	Sololá	5	Mayo	2023-10-05T00:00:00	2024-11-08T16:00:00	4	Temperatura máxima	21
22827	7	Sololá	701	Sololá	1	Sololá	5	Mayo	2023-10-05T00:00:00	2024-11-08T16:00:00	3	Temperatura mínima	19.4
22828	7	Sololá	701	Sololá	1	Sololá	5	Mayo	2023-10-05T00:00:00	2024-11-08T16:00:00	5	Humedad	83
22829	7	Sololá	701	Sololá	1	Sololá	5	Mayo	2023-10-05T00:00:00	2024-11-08T16:00:00	6	Velocidad del viento	4.8
22830	7	Sololá	701	Sololá	1	Sololá	5	Mayo	2023-10-05T00:00:00	2024-11-08T16:00:00	7	Dirección del viento	4.83
22831	7	Sololá	701	Sololá	1	Sololá	5	Mayo	2023-10-05T00:00:00	2024-11-08T16:00:00	1	Precipitación	0
22832	7	Sololá	701	Sololá	1	Sololá	5	Mayo	2023-10-05T00:00:00	2024-11-08T16:00:00	8	Radiación solar	204
22833	7	Sololá	701	Sololá	1	Sololá	5	Mayo	2023-10-05T00:00:00	2024-11-08T17:00:00	2	Temperatura media	18.5
22834	7	Sololá	701	Sololá	1	Sololá	5	Mayo	2023-10-05T00:00:00	2024-11-08T17:00:00	4	Temperatura máxima	19.4
22835	7	Sololá	701	Sololá	1	Sololá	5	Mayo	2023-10-05T00:00:00	2024-11-08T17:00:00	3	Temperatura mínima	18.4
22836	7	Sololá	701	Sololá	1	Sololá	5	Mayo	2023-10-05T00:00:00	2024-11-08T17:00:00	5	Humedad	89
22837	7	Sololá	701	Sololá	1	Sololá	5	Mayo	2023-10-05T00:00:00	2024-11-08T17:00:00	6	Velocidad del viento	3.2
22838	7	Sololá	701	Sololá	1	Sololá	5	Mayo	2023-10-05T00:00:00	2024-11-08T17:00:00	7	Dirección del viento	3.22
22839	7	Sololá	701	Sololá	1	Sololá	5	Mayo	2023-10-05T00:00:00	2024-11-08T17:00:00	1	Precipitación	0
22840	7	Sololá	701	Sololá	1	Sololá	5	Mayo	2023-10-05T00:00:00	2024-11-08T17:00:00	8	Radiación solar	54
22841	7	Sololá	701	Sololá	1	Sololá	5	Mayo	2023-10-05T00:00:00	2024-11-08T18:00:00	2	Temperatura media	17.7
22842	7	Sololá	701	Sololá	1	Sololá	5	Mayo	2023-10-05T00:00:00	2024-11-08T18:00:00	4	Temperatura máxima	18.6
22843	7	Sololá	701	Sololá	1	Sololá	5	Mayo	2023-10-05T00:00:00	2024-11-08T18:00:00	3	Temperatura mínima	17.7
22844	7	Sololá	701	Sololá	1	Sololá	5	Mayo	2023-10-05T00:00:00	2024-11-08T18:00:00	5	Humedad	90
22845	7	Sololá	701	Sololá	1	Sololá	5	Mayo	2023-10-05T00:00:00	2024-11-08T18:00:00	6	Velocidad del viento	3.2
22846	7	Sololá	701	Sololá	1	Sololá	5	Mayo	2023-10-05T00:00:00	2024-11-08T18:00:00	7	Dirección del viento	3.22
22847	7	Sololá	701	Sololá	1	Sololá	5	Mayo	2023-10-05T00:00:00	2024-11-08T18:00:00	1	Precipitación	0
22848	7	Sololá	701	Sololá	1	Sololá	5	Mayo	2023-10-05T00:00:00	2024-11-08T18:00:00	8	Radiación solar	17
22849	7	Sololá	701	Sololá	1	Sololá	5	Mayo	2023-10-05T00:00:00	2024-11-08T19:00:00	2	Temperatura media	17.1
22850	7	Sololá	701	Sololá	1	Sololá	5	Mayo	2023-10-05T00:00:00	2024-11-08T19:00:00	4	Temperatura máxima	17.7
22851	7	Sololá	701	Sololá	1	Sololá	5	Mayo	2023-10-05T00:00:00	2024-11-08T19:00:00	3	Temperatura mínima	17.1
22852	7	Sololá	701	Sololá	1	Sololá	5	Mayo	2023-10-05T00:00:00	2024-11-08T19:00:00	5	Humedad	91
22853	7	Sololá	701	Sololá	1	Sololá	5	Mayo	2023-10-05T00:00:00	2024-11-08T19:00:00	6	Velocidad del viento	3.2
22854	7	Sololá	701	Sololá	1	Sololá	5	Mayo	2023-10-05T00:00:00	2024-11-08T19:00:00	7	Dirección del viento	3.22
22855	7	Sololá	701	Sololá	1	Sololá	5	Mayo	2023-10-05T00:00:00	2024-11-08T19:00:00	1	Precipitación	0.4
22856	7	Sololá	701	Sololá	1	Sololá	5	Mayo	2023-10-05T00:00:00	2024-11-08T19:00:00	8	Radiación solar	0
22857	7	Sololá	701	Sololá	1	Sololá	5	Mayo	2023-10-05T00:00:00	2024-11-08T20:00:00	2	Temperatura media	16.3
22858	7	Sololá	701	Sololá	1	Sololá	5	Mayo	2023-10-05T00:00:00	2024-11-08T20:00:00	4	Temperatura máxima	17.1
22859	7	Sololá	701	Sololá	1	Sololá	5	Mayo	2023-10-05T00:00:00	2024-11-08T20:00:00	3	Temperatura mínima	16.3
22860	7	Sololá	701	Sololá	1	Sololá	5	Mayo	2023-10-05T00:00:00	2024-11-08T20:00:00	5	Humedad	89
22861	7	Sololá	701	Sololá	1	Sololá	5	Mayo	2023-10-05T00:00:00	2024-11-08T20:00:00	6	Velocidad del viento	1.6
22862	7	Sololá	701	Sololá	1	Sololá	5	Mayo	2023-10-05T00:00:00	2024-11-08T20:00:00	7	Dirección del viento	1.61
22863	7	Sololá	701	Sololá	1	Sololá	5	Mayo	2023-10-05T00:00:00	2024-11-08T20:00:00	1	Precipitación	1.8
22864	7	Sololá	701	Sololá	1	Sololá	5	Mayo	2023-10-05T00:00:00	2024-11-08T20:00:00	8	Radiación solar	0
22865	7	Sololá	701	Sololá	1	Sololá	5	Mayo	2023-10-05T00:00:00	2024-11-08T21:00:00	2	Temperatura media	14.7
22866	7	Sololá	701	Sololá	1	Sololá	5	Mayo	2023-10-05T00:00:00	2024-11-08T21:00:00	4	Temperatura máxima	16.4
22867	7	Sololá	701	Sololá	1	Sololá	5	Mayo	2023-10-05T00:00:00	2024-11-08T21:00:00	3	Temperatura mínima	14.2
22868	7	Sololá	701	Sololá	1	Sololá	5	Mayo	2023-10-05T00:00:00	2024-11-08T21:00:00	5	Humedad	78
22869	7	Sololá	701	Sololá	1	Sololá	5	Mayo	2023-10-05T00:00:00	2024-11-08T21:00:00	6	Velocidad del viento	9.7
22870	7	Sololá	701	Sololá	1	Sololá	5	Mayo	2023-10-05T00:00:00	2024-11-08T21:00:00	7	Dirección del viento	9.66
22871	7	Sololá	701	Sololá	1	Sololá	5	Mayo	2023-10-05T00:00:00	2024-11-08T21:00:00	1	Precipitación	5
22872	7	Sololá	701	Sololá	1	Sololá	5	Mayo	2023-10-05T00:00:00	2024-11-08T21:00:00	8	Radiación solar	0
22873	7	Sololá	701	Sololá	1	Sololá	5	Mayo	2023-10-05T00:00:00	2024-11-08T22:00:00	2	Temperatura media	13.8
22874	7	Sololá	701	Sololá	1	Sololá	5	Mayo	2023-10-05T00:00:00	2024-11-08T22:00:00	4	Temperatura máxima	14.9
22875	7	Sololá	701	Sololá	1	Sololá	5	Mayo	2023-10-05T00:00:00	2024-11-08T22:00:00	3	Temperatura mínima	13.2
22876	7	Sololá	701	Sololá	1	Sololá	5	Mayo	2023-10-05T00:00:00	2024-11-08T22:00:00	5	Humedad	87
22877	7	Sololá	701	Sololá	1	Sololá	5	Mayo	2023-10-05T00:00:00	2024-11-08T22:00:00	6	Velocidad del viento	4.8
22878	7	Sololá	701	Sololá	1	Sololá	5	Mayo	2023-10-05T00:00:00	2024-11-08T22:00:00	7	Dirección del viento	4.83
22879	7	Sololá	701	Sololá	1	Sololá	5	Mayo	2023-10-05T00:00:00	2024-11-08T22:00:00	1	Precipitación	1.8
22880	7	Sololá	701	Sololá	1	Sololá	5	Mayo	2023-10-05T00:00:00	2024-11-08T22:00:00	8	Radiación solar	0
22881	7	Sololá	701	Sololá	1	Sololá	5	Mayo	2023-10-05T00:00:00	2024-11-08T23:00:00	2	Temperatura media	13.6
22882	7	Sololá	701	Sololá	1	Sololá	5	Mayo	2023-10-05T00:00:00	2024-11-08T23:00:00	4	Temperatura máxima	14.6
22883	7	Sololá	701	Sololá	1	Sololá	5	Mayo	2023-10-05T00:00:00	2024-11-08T23:00:00	3	Temperatura mínima	13.3
22884	7	Sololá	701	Sololá	1	Sololá	5	Mayo	2023-10-05T00:00:00	2024-11-08T23:00:00	5	Humedad	83
22885	7	Sololá	701	Sololá	1	Sololá	5	Mayo	2023-10-05T00:00:00	2024-11-08T23:00:00	6	Velocidad del viento	9.7
22886	7	Sololá	701	Sololá	1	Sololá	5	Mayo	2023-10-05T00:00:00	2024-11-08T23:00:00	7	Dirección del viento	9.66
22887	7	Sololá	701	Sololá	1	Sololá	5	Mayo	2023-10-05T00:00:00	2024-11-08T23:00:00	1	Precipitación	0.2
22888	7	Sololá	701	Sololá	1	Sololá	5	Mayo	2023-10-05T00:00:00	2024-11-08T23:00:00	8	Radiación solar	0
22889	7	Sololá	701	Sololá	1	Sololá	5	Mayo	2023-11-05T00:00:00	2024-11-08T00:00:00	2	Temperatura media	13.9
22890	7	Sololá	701	Sololá	1	Sololá	5	Mayo	2023-11-05T00:00:00	2024-11-08T00:00:00	4	Temperatura máxima	13.9
22891	7	Sololá	701	Sololá	1	Sololá	5	Mayo	2023-11-05T00:00:00	2024-11-08T00:00:00	3	Temperatura mínima	13.6
22892	7	Sololá	701	Sololá	1	Sololá	5	Mayo	2023-11-05T00:00:00	2024-11-08T00:00:00	5	Humedad	80
22893	7	Sololá	701	Sololá	1	Sololá	5	Mayo	2023-11-05T00:00:00	2024-11-08T00:00:00	6	Velocidad del viento	12.9
22894	7	Sololá	701	Sololá	1	Sololá	5	Mayo	2023-11-05T00:00:00	2024-11-08T00:00:00	7	Dirección del viento	12.87
22895	7	Sololá	701	Sololá	1	Sololá	5	Mayo	2023-11-05T00:00:00	2024-11-08T00:00:00	1	Precipitación	0
22896	7	Sololá	701	Sololá	1	Sololá	5	Mayo	2023-11-05T00:00:00	2024-11-08T00:00:00	8	Radiación solar	0
22897	7	Sololá	701	Sololá	1	Sololá	5	Mayo	2023-11-05T00:00:00	2024-11-08T01:00:00	2	Temperatura media	13.1
22898	7	Sololá	701	Sololá	1	Sololá	5	Mayo	2023-11-05T00:00:00	2024-11-08T01:00:00	4	Temperatura máxima	14.2
22899	7	Sololá	701	Sololá	1	Sololá	5	Mayo	2023-11-05T00:00:00	2024-11-08T01:00:00	3	Temperatura mínima	13.1
22900	7	Sololá	701	Sololá	1	Sololá	5	Mayo	2023-11-05T00:00:00	2024-11-08T01:00:00	5	Humedad	92
22901	7	Sololá	701	Sololá	1	Sololá	5	Mayo	2023-11-05T00:00:00	2024-11-08T01:00:00	6	Velocidad del viento	3.2
22902	7	Sololá	701	Sololá	1	Sololá	5	Mayo	2023-11-05T00:00:00	2024-11-08T01:00:00	7	Dirección del viento	3.22
22903	7	Sololá	701	Sololá	1	Sololá	5	Mayo	2023-11-05T00:00:00	2024-11-08T01:00:00	1	Precipitación	0
22904	7	Sololá	701	Sololá	1	Sololá	5	Mayo	2023-11-05T00:00:00	2024-11-08T01:00:00	8	Radiación solar	0
22905	7	Sololá	701	Sololá	1	Sololá	5	Mayo	2023-11-05T00:00:00	2024-11-08T02:00:00	2	Temperatura media	12.9
22906	7	Sololá	701	Sololá	1	Sololá	5	Mayo	2023-11-05T00:00:00	2024-11-08T02:00:00	4	Temperatura máxima	13.5
22907	7	Sololá	701	Sololá	1	Sololá	5	Mayo	2023-11-05T00:00:00	2024-11-08T02:00:00	3	Temperatura mínima	12.9
22908	7	Sololá	701	Sololá	1	Sololá	5	Mayo	2023-11-05T00:00:00	2024-11-08T02:00:00	5	Humedad	89
22909	7	Sololá	701	Sololá	1	Sololá	5	Mayo	2023-11-05T00:00:00	2024-11-08T02:00:00	6	Velocidad del viento	4.8
22910	7	Sololá	701	Sololá	1	Sololá	5	Mayo	2023-11-05T00:00:00	2024-11-08T02:00:00	7	Dirección del viento	4.83
22911	7	Sololá	701	Sololá	1	Sololá	5	Mayo	2023-11-05T00:00:00	2024-11-08T02:00:00	1	Precipitación	0
22912	7	Sololá	701	Sololá	1	Sololá	5	Mayo	2023-11-05T00:00:00	2024-11-08T02:00:00	8	Radiación solar	0
22913	7	Sololá	701	Sololá	1	Sololá	5	Mayo	2023-11-05T00:00:00	2024-11-08T03:00:00	2	Temperatura media	12.8
22914	7	Sololá	701	Sololá	1	Sololá	5	Mayo	2023-11-05T00:00:00	2024-11-08T03:00:00	4	Temperatura máxima	12.9
22915	7	Sololá	701	Sololá	1	Sololá	5	Mayo	2023-11-05T00:00:00	2024-11-08T03:00:00	3	Temperatura mínima	12.5
22916	7	Sololá	701	Sololá	1	Sololá	5	Mayo	2023-11-05T00:00:00	2024-11-08T03:00:00	5	Humedad	85
22917	7	Sololá	701	Sololá	1	Sololá	5	Mayo	2023-11-05T00:00:00	2024-11-08T03:00:00	6	Velocidad del viento	8
22918	7	Sololá	701	Sololá	1	Sololá	5	Mayo	2023-11-05T00:00:00	2024-11-08T03:00:00	7	Dirección del viento	8.05
22919	7	Sololá	701	Sololá	1	Sololá	5	Mayo	2023-11-05T00:00:00	2024-11-08T03:00:00	1	Precipitación	0
22920	7	Sololá	701	Sololá	1	Sololá	5	Mayo	2023-11-05T00:00:00	2024-11-08T03:00:00	8	Radiación solar	0
22921	7	Sololá	701	Sololá	1	Sololá	5	Mayo	2023-11-05T00:00:00	2024-11-08T04:00:00	2	Temperatura media	12.4
22922	7	Sololá	701	Sololá	1	Sololá	5	Mayo	2023-11-05T00:00:00	2024-11-08T04:00:00	4	Temperatura máxima	12.9
22923	7	Sololá	701	Sololá	1	Sololá	5	Mayo	2023-11-05T00:00:00	2024-11-08T04:00:00	3	Temperatura mínima	12.3
22924	7	Sololá	701	Sololá	1	Sololá	5	Mayo	2023-11-05T00:00:00	2024-11-08T04:00:00	5	Humedad	86
22925	7	Sololá	701	Sololá	1	Sololá	5	Mayo	2023-11-05T00:00:00	2024-11-08T04:00:00	6	Velocidad del viento	8
22926	7	Sololá	701	Sololá	1	Sololá	5	Mayo	2023-11-05T00:00:00	2024-11-08T04:00:00	7	Dirección del viento	8.05
22927	7	Sololá	701	Sololá	1	Sololá	5	Mayo	2023-11-05T00:00:00	2024-11-08T04:00:00	1	Precipitación	0
22928	7	Sololá	701	Sololá	1	Sololá	5	Mayo	2023-11-05T00:00:00	2024-11-08T04:00:00	8	Radiación solar	0
22929	7	Sololá	701	Sololá	1	Sololá	5	Mayo	2023-11-05T00:00:00	2024-11-08T05:00:00	2	Temperatura media	13.5
22930	7	Sololá	701	Sololá	1	Sololá	5	Mayo	2023-11-05T00:00:00	2024-11-08T05:00:00	4	Temperatura máxima	13.6
22931	7	Sololá	701	Sololá	1	Sololá	5	Mayo	2023-11-05T00:00:00	2024-11-08T05:00:00	3	Temperatura mínima	12.1
22932	7	Sololá	701	Sololá	1	Sololá	5	Mayo	2023-11-05T00:00:00	2024-11-08T05:00:00	5	Humedad	77
22933	7	Sololá	701	Sololá	1	Sololá	5	Mayo	2023-11-05T00:00:00	2024-11-08T05:00:00	6	Velocidad del viento	4.8
22934	7	Sololá	701	Sololá	1	Sololá	5	Mayo	2023-11-05T00:00:00	2024-11-08T05:00:00	7	Dirección del viento	4.83
22935	7	Sololá	701	Sololá	1	Sololá	5	Mayo	2023-11-05T00:00:00	2024-11-08T05:00:00	1	Precipitación	0
22936	7	Sololá	701	Sololá	1	Sololá	5	Mayo	2023-11-05T00:00:00	2024-11-08T05:00:00	8	Radiación solar	0
22937	7	Sololá	701	Sololá	1	Sololá	5	Mayo	2023-11-05T00:00:00	2024-11-08T06:00:00	2	Temperatura media	12.3
22938	7	Sololá	701	Sololá	1	Sololá	5	Mayo	2023-11-05T00:00:00	2024-11-08T06:00:00	4	Temperatura máxima	13.6
22939	7	Sololá	701	Sololá	1	Sololá	5	Mayo	2023-11-05T00:00:00	2024-11-08T06:00:00	3	Temperatura mínima	12.2
22940	7	Sololá	701	Sololá	1	Sololá	5	Mayo	2023-11-05T00:00:00	2024-11-08T06:00:00	5	Humedad	82
22941	7	Sololá	701	Sololá	1	Sololá	5	Mayo	2023-11-05T00:00:00	2024-11-08T06:00:00	6	Velocidad del viento	6.4
22942	7	Sololá	701	Sololá	1	Sololá	5	Mayo	2023-11-05T00:00:00	2024-11-08T06:00:00	7	Dirección del viento	6.44
22943	7	Sololá	701	Sololá	1	Sololá	5	Mayo	2023-11-05T00:00:00	2024-11-08T06:00:00	1	Precipitación	0
22944	7	Sololá	701	Sololá	1	Sololá	5	Mayo	2023-11-05T00:00:00	2024-11-08T06:00:00	8	Radiación solar	0
22945	7	Sololá	701	Sololá	1	Sololá	5	Mayo	2023-11-05T00:00:00	2024-11-08T07:00:00	2	Temperatura media	12.2
22946	7	Sololá	701	Sololá	1	Sololá	5	Mayo	2023-11-05T00:00:00	2024-11-08T07:00:00	4	Temperatura máxima	12.3
22947	7	Sololá	701	Sololá	1	Sololá	5	Mayo	2023-11-05T00:00:00	2024-11-08T07:00:00	3	Temperatura mínima	11.9
22948	7	Sololá	701	Sololá	1	Sololá	5	Mayo	2023-11-05T00:00:00	2024-11-08T07:00:00	5	Humedad	84
22949	7	Sololá	701	Sololá	1	Sololá	5	Mayo	2023-11-05T00:00:00	2024-11-08T07:00:00	6	Velocidad del viento	3.2
22950	7	Sololá	701	Sololá	1	Sololá	5	Mayo	2023-11-05T00:00:00	2024-11-08T07:00:00	7	Dirección del viento	3.22
22951	7	Sololá	701	Sololá	1	Sololá	5	Mayo	2023-11-05T00:00:00	2024-11-08T07:00:00	1	Precipitación	0
22952	7	Sololá	701	Sololá	1	Sololá	5	Mayo	2023-11-05T00:00:00	2024-11-08T07:00:00	8	Radiación solar	8
22953	7	Sololá	701	Sololá	1	Sololá	5	Mayo	2023-11-05T00:00:00	2024-11-08T08:00:00	2	Temperatura media	15.4
22954	7	Sololá	701	Sololá	1	Sololá	5	Mayo	2023-11-05T00:00:00	2024-11-08T08:00:00	4	Temperatura máxima	15.4
22955	7	Sololá	701	Sololá	1	Sololá	5	Mayo	2023-11-05T00:00:00	2024-11-08T08:00:00	3	Temperatura mínima	12.2
22956	7	Sololá	701	Sololá	1	Sololá	5	Mayo	2023-11-05T00:00:00	2024-11-08T08:00:00	5	Humedad	77
22957	7	Sololá	701	Sololá	1	Sololá	5	Mayo	2023-11-05T00:00:00	2024-11-08T08:00:00	6	Velocidad del viento	3.2
22958	7	Sololá	701	Sololá	1	Sololá	5	Mayo	2023-11-05T00:00:00	2024-11-08T08:00:00	7	Dirección del viento	3.22
22959	7	Sololá	701	Sololá	1	Sololá	5	Mayo	2023-11-05T00:00:00	2024-11-08T08:00:00	1	Precipitación	0
22960	7	Sololá	701	Sololá	1	Sololá	5	Mayo	2023-11-05T00:00:00	2024-11-08T08:00:00	8	Radiación solar	30
22961	7	Sololá	701	Sololá	1	Sololá	5	Mayo	2023-11-05T00:00:00	2024-11-08T09:00:00	2	Temperatura media	18.5
22962	7	Sololá	701	Sololá	1	Sololá	5	Mayo	2023-11-05T00:00:00	2024-11-08T09:00:00	4	Temperatura máxima	18.5
22963	7	Sololá	701	Sololá	1	Sololá	5	Mayo	2023-11-05T00:00:00	2024-11-08T09:00:00	3	Temperatura mínima	15.4
22964	7	Sololá	701	Sololá	1	Sololá	5	Mayo	2023-11-05T00:00:00	2024-11-08T09:00:00	5	Humedad	66
22965	7	Sololá	701	Sololá	1	Sololá	5	Mayo	2023-11-05T00:00:00	2024-11-08T09:00:00	6	Velocidad del viento	1.6
22966	7	Sololá	701	Sololá	1	Sololá	5	Mayo	2023-11-05T00:00:00	2024-11-08T09:00:00	7	Dirección del viento	1.61
22967	7	Sololá	701	Sololá	1	Sololá	5	Mayo	2023-11-05T00:00:00	2024-11-08T09:00:00	1	Precipitación	0
22968	7	Sololá	701	Sololá	1	Sololá	5	Mayo	2023-11-05T00:00:00	2024-11-08T09:00:00	8	Radiación solar	186
22969	7	Sololá	701	Sololá	1	Sololá	5	Mayo	2023-11-05T00:00:00	2024-11-08T10:00:00	2	Temperatura media	19.4
22970	7	Sololá	701	Sololá	1	Sololá	5	Mayo	2023-11-05T00:00:00	2024-11-08T10:00:00	4	Temperatura máxima	19.8
22971	7	Sololá	701	Sololá	1	Sololá	5	Mayo	2023-11-05T00:00:00	2024-11-08T10:00:00	3	Temperatura mínima	18.5
22972	7	Sololá	701	Sololá	1	Sololá	5	Mayo	2023-11-05T00:00:00	2024-11-08T10:00:00	5	Humedad	69
22973	7	Sololá	701	Sololá	1	Sololá	5	Mayo	2023-11-05T00:00:00	2024-11-08T10:00:00	6	Velocidad del viento	3.2
22974	7	Sololá	701	Sololá	1	Sololá	5	Mayo	2023-11-05T00:00:00	2024-11-08T10:00:00	7	Dirección del viento	3.22
22975	7	Sololá	701	Sololá	1	Sololá	5	Mayo	2023-11-05T00:00:00	2024-11-08T10:00:00	1	Precipitación	0
22976	7	Sololá	701	Sololá	1	Sololá	5	Mayo	2023-11-05T00:00:00	2024-11-08T10:00:00	8	Radiación solar	381
22977	7	Sololá	701	Sololá	1	Sololá	5	Mayo	2023-11-05T00:00:00	2024-11-08T11:00:00	2	Temperatura media	19.6
22978	7	Sololá	701	Sololá	1	Sololá	5	Mayo	2023-11-05T00:00:00	2024-11-08T11:00:00	4	Temperatura máxima	20.3
22979	7	Sololá	701	Sololá	1	Sololá	5	Mayo	2023-11-05T00:00:00	2024-11-08T11:00:00	3	Temperatura mínima	19.4
22980	7	Sololá	701	Sololá	1	Sololá	5	Mayo	2023-11-05T00:00:00	2024-11-08T11:00:00	5	Humedad	73
22981	7	Sololá	701	Sololá	1	Sololá	5	Mayo	2023-11-05T00:00:00	2024-11-08T11:00:00	6	Velocidad del viento	6.4
22982	7	Sololá	701	Sololá	1	Sololá	5	Mayo	2023-11-05T00:00:00	2024-11-08T11:00:00	7	Dirección del viento	6.44
22983	7	Sololá	701	Sololá	1	Sololá	5	Mayo	2023-11-05T00:00:00	2024-11-08T11:00:00	1	Precipitación	0
22984	7	Sololá	701	Sololá	1	Sololá	5	Mayo	2023-11-05T00:00:00	2024-11-08T11:00:00	8	Radiación solar	647
22985	7	Sololá	701	Sololá	1	Sololá	5	Mayo	2023-11-05T00:00:00	2024-11-08T12:00:00	2	Temperatura media	20.2
22986	7	Sololá	701	Sololá	1	Sololá	5	Mayo	2023-11-05T00:00:00	2024-11-08T12:00:00	4	Temperatura máxima	20.3
22987	7	Sololá	701	Sololá	1	Sololá	5	Mayo	2023-11-05T00:00:00	2024-11-08T12:00:00	3	Temperatura mínima	19.6
22988	7	Sololá	701	Sololá	1	Sololá	5	Mayo	2023-11-05T00:00:00	2024-11-08T12:00:00	5	Humedad	73
22989	7	Sololá	701	Sololá	1	Sololá	5	Mayo	2023-11-05T00:00:00	2024-11-08T12:00:00	6	Velocidad del viento	6.4
22990	7	Sololá	701	Sololá	1	Sololá	5	Mayo	2023-11-05T00:00:00	2024-11-08T12:00:00	7	Dirección del viento	6.44
22991	7	Sololá	701	Sololá	1	Sololá	5	Mayo	2023-11-05T00:00:00	2024-11-08T12:00:00	1	Precipitación	0
22992	7	Sololá	701	Sololá	1	Sololá	5	Mayo	2023-11-05T00:00:00	2024-11-08T12:00:00	8	Radiación solar	425
22993	7	Sololá	701	Sololá	1	Sololá	5	Mayo	2023-11-05T00:00:00	2024-11-08T13:00:00	2	Temperatura media	21.2
22994	7	Sololá	701	Sololá	1	Sololá	5	Mayo	2023-11-05T00:00:00	2024-11-08T13:00:00	4	Temperatura máxima	21.3
22995	7	Sololá	701	Sololá	1	Sololá	5	Mayo	2023-11-05T00:00:00	2024-11-08T13:00:00	3	Temperatura mínima	20.1
22996	7	Sololá	701	Sololá	1	Sololá	5	Mayo	2023-11-05T00:00:00	2024-11-08T13:00:00	5	Humedad	71
22997	7	Sololá	701	Sololá	1	Sololá	5	Mayo	2023-11-05T00:00:00	2024-11-08T13:00:00	6	Velocidad del viento	6.4
22998	7	Sololá	701	Sololá	1	Sololá	5	Mayo	2023-11-05T00:00:00	2024-11-08T13:00:00	7	Dirección del viento	6.44
22999	7	Sololá	701	Sololá	1	Sololá	5	Mayo	2023-11-05T00:00:00	2024-11-08T13:00:00	1	Precipitación	0
23000	7	Sololá	701	Sololá	1	Sololá	5	Mayo	2023-11-05T00:00:00	2024-11-08T13:00:00	8	Radiación solar	401
23001	7	Sololá	701	Sololá	1	Sololá	5	Mayo	2023-11-05T00:00:00	2024-11-08T14:00:00	2	Temperatura media	20.7
23002	7	Sololá	701	Sololá	1	Sololá	5	Mayo	2023-11-05T00:00:00	2024-11-08T14:00:00	4	Temperatura máxima	21.3
23003	7	Sololá	701	Sololá	1	Sololá	5	Mayo	2023-11-05T00:00:00	2024-11-08T14:00:00	3	Temperatura mínima	20.6
23004	7	Sololá	701	Sololá	1	Sololá	5	Mayo	2023-11-05T00:00:00	2024-11-08T14:00:00	5	Humedad	73
23005	7	Sololá	701	Sololá	1	Sololá	5	Mayo	2023-11-05T00:00:00	2024-11-08T14:00:00	6	Velocidad del viento	6.4
23006	7	Sololá	701	Sololá	1	Sololá	5	Mayo	2023-11-05T00:00:00	2024-11-08T14:00:00	7	Dirección del viento	6.44
23007	7	Sololá	701	Sololá	1	Sololá	5	Mayo	2023-11-05T00:00:00	2024-11-08T14:00:00	1	Precipitación	0
23008	7	Sololá	701	Sololá	1	Sololá	5	Mayo	2023-11-05T00:00:00	2024-11-08T14:00:00	8	Radiación solar	328
23009	7	Sololá	701	Sololá	1	Sololá	5	Mayo	2023-11-05T00:00:00	2024-11-08T15:00:00	2	Temperatura media	20.3
23010	7	Sololá	701	Sololá	1	Sololá	5	Mayo	2023-11-05T00:00:00	2024-11-08T15:00:00	4	Temperatura máxima	21.2
23011	7	Sololá	701	Sololá	1	Sololá	5	Mayo	2023-11-05T00:00:00	2024-11-08T15:00:00	3	Temperatura mínima	20.2
23012	7	Sololá	701	Sololá	1	Sololá	5	Mayo	2023-11-05T00:00:00	2024-11-08T15:00:00	5	Humedad	75
23013	7	Sololá	701	Sololá	1	Sololá	5	Mayo	2023-11-05T00:00:00	2024-11-08T15:00:00	6	Velocidad del viento	6.4
23014	7	Sololá	701	Sololá	1	Sololá	5	Mayo	2023-11-05T00:00:00	2024-11-08T15:00:00	7	Dirección del viento	6.44
23015	7	Sololá	701	Sololá	1	Sololá	5	Mayo	2023-11-05T00:00:00	2024-11-08T15:00:00	1	Precipitación	0
23016	7	Sololá	701	Sololá	1	Sololá	5	Mayo	2023-11-05T00:00:00	2024-11-08T15:00:00	8	Radiación solar	314
23017	7	Sololá	701	Sololá	1	Sololá	5	Mayo	2023-11-05T00:00:00	2024-11-08T16:00:00	2	Temperatura media	19.3
23018	7	Sololá	701	Sololá	1	Sololá	5	Mayo	2023-11-05T00:00:00	2024-11-08T16:00:00	4	Temperatura máxima	20.3
23019	7	Sololá	701	Sololá	1	Sololá	5	Mayo	2023-11-05T00:00:00	2024-11-08T16:00:00	3	Temperatura mínima	19.3
23020	7	Sololá	701	Sololá	1	Sololá	5	Mayo	2023-11-05T00:00:00	2024-11-08T16:00:00	5	Humedad	82
23021	7	Sololá	701	Sololá	1	Sololá	5	Mayo	2023-11-05T00:00:00	2024-11-08T16:00:00	6	Velocidad del viento	6.4
23022	7	Sololá	701	Sololá	1	Sololá	5	Mayo	2023-11-05T00:00:00	2024-11-08T16:00:00	7	Dirección del viento	6.44
23023	7	Sololá	701	Sololá	1	Sololá	5	Mayo	2023-11-05T00:00:00	2024-11-08T16:00:00	1	Precipitación	0
23024	7	Sololá	701	Sololá	1	Sololá	5	Mayo	2023-11-05T00:00:00	2024-11-08T16:00:00	8	Radiación solar	129
23025	7	Sololá	701	Sololá	1	Sololá	5	Mayo	2023-11-05T00:00:00	2024-11-08T17:00:00	2	Temperatura media	17.9
23026	7	Sololá	701	Sololá	1	Sololá	5	Mayo	2023-11-05T00:00:00	2024-11-08T17:00:00	4	Temperatura máxima	19.3
23027	7	Sololá	701	Sololá	1	Sololá	5	Mayo	2023-11-05T00:00:00	2024-11-08T17:00:00	3	Temperatura mínima	17.8
23028	7	Sololá	701	Sololá	1	Sololá	5	Mayo	2023-11-05T00:00:00	2024-11-08T17:00:00	5	Humedad	89
23029	7	Sololá	701	Sololá	1	Sololá	5	Mayo	2023-11-05T00:00:00	2024-11-08T17:00:00	6	Velocidad del viento	6.4
23030	7	Sololá	701	Sololá	1	Sololá	5	Mayo	2023-11-05T00:00:00	2024-11-08T17:00:00	7	Dirección del viento	6.44
23031	7	Sololá	701	Sololá	1	Sololá	5	Mayo	2023-11-05T00:00:00	2024-11-08T17:00:00	1	Precipitación	0
23032	7	Sololá	701	Sololá	1	Sololá	5	Mayo	2023-11-05T00:00:00	2024-11-08T17:00:00	8	Radiación solar	87
23033	7	Sololá	701	Sololá	1	Sololá	5	Mayo	2023-11-05T00:00:00	2024-11-08T18:00:00	2	Temperatura media	17.5
23034	7	Sololá	701	Sololá	1	Sololá	5	Mayo	2023-11-05T00:00:00	2024-11-08T18:00:00	4	Temperatura máxima	17.9
23035	7	Sololá	701	Sololá	1	Sololá	5	Mayo	2023-11-05T00:00:00	2024-11-08T18:00:00	3	Temperatura mínima	17.4
23036	7	Sololá	701	Sololá	1	Sololá	5	Mayo	2023-11-05T00:00:00	2024-11-08T18:00:00	5	Humedad	87
23037	7	Sololá	701	Sololá	1	Sololá	5	Mayo	2023-11-05T00:00:00	2024-11-08T18:00:00	6	Velocidad del viento	3.2
23038	7	Sololá	701	Sololá	1	Sololá	5	Mayo	2023-11-05T00:00:00	2024-11-08T18:00:00	7	Dirección del viento	3.22
23039	7	Sololá	701	Sololá	1	Sololá	5	Mayo	2023-11-05T00:00:00	2024-11-08T18:00:00	1	Precipitación	0
23040	7	Sololá	701	Sololá	1	Sololá	5	Mayo	2023-11-05T00:00:00	2024-11-08T18:00:00	8	Radiación solar	18
23041	7	Sololá	701	Sololá	1	Sololá	5	Mayo	2023-11-05T00:00:00	2024-11-08T19:00:00	2	Temperatura media	17.7
23042	7	Sololá	701	Sololá	1	Sololá	5	Mayo	2023-11-05T00:00:00	2024-11-08T19:00:00	4	Temperatura máxima	18.3
23043	7	Sololá	701	Sololá	1	Sololá	5	Mayo	2023-11-05T00:00:00	2024-11-08T19:00:00	3	Temperatura mínima	17.5
23044	7	Sololá	701	Sololá	1	Sololá	5	Mayo	2023-11-05T00:00:00	2024-11-08T19:00:00	5	Humedad	85
23045	7	Sololá	701	Sololá	1	Sololá	5	Mayo	2023-11-05T00:00:00	2024-11-08T19:00:00	6	Velocidad del viento	1.6
23046	7	Sololá	701	Sololá	1	Sololá	5	Mayo	2023-11-05T00:00:00	2024-11-08T19:00:00	7	Dirección del viento	1.61
23047	7	Sololá	701	Sololá	1	Sololá	5	Mayo	2023-11-05T00:00:00	2024-11-08T19:00:00	1	Precipitación	0
23048	7	Sololá	701	Sololá	1	Sololá	5	Mayo	2023-11-05T00:00:00	2024-11-08T19:00:00	8	Radiación solar	0
23049	7	Sololá	701	Sololá	1	Sololá	5	Mayo	2023-11-05T00:00:00	2024-11-08T20:00:00	2	Temperatura media	16.5
23050	7	Sololá	701	Sololá	1	Sololá	5	Mayo	2023-11-05T00:00:00	2024-11-08T20:00:00	4	Temperatura máxima	17.7
23051	7	Sololá	701	Sololá	1	Sololá	5	Mayo	2023-11-05T00:00:00	2024-11-08T20:00:00	3	Temperatura mínima	16.5
23052	7	Sololá	701	Sololá	1	Sololá	5	Mayo	2023-11-05T00:00:00	2024-11-08T20:00:00	5	Humedad	91
23053	7	Sololá	701	Sololá	1	Sololá	5	Mayo	2023-11-05T00:00:00	2024-11-08T20:00:00	6	Velocidad del viento	1.6
23054	7	Sololá	701	Sololá	1	Sololá	5	Mayo	2023-11-05T00:00:00	2024-11-08T20:00:00	7	Dirección del viento	1.61
23055	7	Sololá	701	Sololá	1	Sololá	5	Mayo	2023-11-05T00:00:00	2024-11-08T20:00:00	1	Precipitación	0
23056	7	Sololá	701	Sololá	1	Sololá	5	Mayo	2023-11-05T00:00:00	2024-11-08T20:00:00	8	Radiación solar	0
23057	7	Sololá	701	Sololá	1	Sololá	5	Mayo	2023-11-05T00:00:00	2024-11-08T21:00:00	2	Temperatura media	16.9
23058	7	Sololá	701	Sololá	1	Sololá	5	Mayo	2023-11-05T00:00:00	2024-11-08T21:00:00	4	Temperatura máxima	16.9
23059	7	Sololá	701	Sololá	1	Sololá	5	Mayo	2023-11-05T00:00:00	2024-11-08T21:00:00	3	Temperatura mínima	16.5
23060	7	Sololá	701	Sololá	1	Sololá	5	Mayo	2023-11-05T00:00:00	2024-11-08T21:00:00	5	Humedad	91
23061	7	Sololá	701	Sololá	1	Sololá	5	Mayo	2023-11-05T00:00:00	2024-11-08T21:00:00	6	Velocidad del viento	1.6
23062	7	Sololá	701	Sololá	1	Sololá	5	Mayo	2023-11-05T00:00:00	2024-11-08T21:00:00	7	Dirección del viento	1.61
23063	7	Sololá	701	Sololá	1	Sololá	5	Mayo	2023-11-05T00:00:00	2024-11-08T21:00:00	1	Precipitación	0
23064	7	Sololá	701	Sololá	1	Sololá	5	Mayo	2023-11-05T00:00:00	2024-11-08T21:00:00	8	Radiación solar	0
23065	7	Sololá	701	Sololá	1	Sololá	5	Mayo	2023-11-05T00:00:00	2024-11-08T22:00:00	2	Temperatura media	16.2
23066	7	Sololá	701	Sololá	1	Sololá	5	Mayo	2023-11-05T00:00:00	2024-11-08T22:00:00	4	Temperatura máxima	16.9
23067	7	Sololá	701	Sololá	1	Sololá	5	Mayo	2023-11-05T00:00:00	2024-11-08T22:00:00	3	Temperatura mínima	16.2
23068	7	Sololá	701	Sololá	1	Sololá	5	Mayo	2023-11-05T00:00:00	2024-11-08T22:00:00	5	Humedad	87
23069	7	Sololá	701	Sololá	1	Sololá	5	Mayo	2023-11-05T00:00:00	2024-11-08T22:00:00	6	Velocidad del viento	0
23070	7	Sololá	701	Sololá	1	Sololá	5	Mayo	2023-11-05T00:00:00	2024-11-08T22:00:00	7	Dirección del viento	0
23071	7	Sololá	701	Sololá	1	Sololá	5	Mayo	2023-11-05T00:00:00	2024-11-08T22:00:00	1	Precipitación	0
23072	7	Sololá	701	Sololá	1	Sololá	5	Mayo	2023-11-05T00:00:00	2024-11-08T22:00:00	8	Radiación solar	0
23073	7	Sololá	701	Sololá	1	Sololá	5	Mayo	2023-11-05T00:00:00	2024-11-08T23:00:00	2	Temperatura media	15.7
23074	7	Sololá	701	Sololá	1	Sololá	5	Mayo	2023-11-05T00:00:00	2024-11-08T23:00:00	4	Temperatura máxima	16.3
23075	7	Sololá	701	Sololá	1	Sololá	5	Mayo	2023-11-05T00:00:00	2024-11-08T23:00:00	3	Temperatura mínima	15.6
23076	7	Sololá	701	Sololá	1	Sololá	5	Mayo	2023-11-05T00:00:00	2024-11-08T23:00:00	5	Humedad	88
23077	7	Sololá	701	Sololá	1	Sololá	5	Mayo	2023-11-05T00:00:00	2024-11-08T23:00:00	6	Velocidad del viento	3.2
23078	7	Sololá	701	Sololá	1	Sololá	5	Mayo	2023-11-05T00:00:00	2024-11-08T23:00:00	7	Dirección del viento	3.22
23079	7	Sololá	701	Sololá	1	Sololá	5	Mayo	2023-11-05T00:00:00	2024-11-08T23:00:00	1	Precipitación	0
23080	7	Sololá	701	Sololá	1	Sololá	5	Mayo	2023-11-05T00:00:00	2024-11-08T23:00:00	8	Radiación solar	0
23081	7	Sololá	701	Sololá	1	Sololá	5	Mayo	2023-12-05T00:00:00	2024-11-08T00:00:00	2	Temperatura media	15.8
23082	7	Sololá	701	Sololá	1	Sololá	5	Mayo	2023-12-05T00:00:00	2024-11-08T00:00:00	4	Temperatura máxima	16.2
23083	7	Sololá	701	Sololá	1	Sololá	5	Mayo	2023-12-05T00:00:00	2024-11-08T00:00:00	3	Temperatura mínima	15.7
23084	7	Sololá	701	Sololá	1	Sololá	5	Mayo	2023-12-05T00:00:00	2024-11-08T00:00:00	5	Humedad	90
23085	7	Sololá	701	Sololá	1	Sololá	5	Mayo	2023-12-05T00:00:00	2024-11-08T00:00:00	6	Velocidad del viento	0
23086	7	Sololá	701	Sololá	1	Sololá	5	Mayo	2023-12-05T00:00:00	2024-11-08T00:00:00	7	Dirección del viento	0
23087	7	Sololá	701	Sololá	1	Sololá	5	Mayo	2023-12-05T00:00:00	2024-11-08T00:00:00	1	Precipitación	0
23088	7	Sololá	701	Sololá	1	Sololá	5	Mayo	2023-12-05T00:00:00	2024-11-08T00:00:00	8	Radiación solar	0
23089	7	Sololá	701	Sololá	1	Sololá	5	Mayo	2023-12-05T00:00:00	2024-11-08T01:00:00	2	Temperatura media	15.2
23090	7	Sololá	701	Sololá	1	Sololá	5	Mayo	2023-12-05T00:00:00	2024-11-08T01:00:00	4	Temperatura máxima	15.8
23091	7	Sololá	701	Sololá	1	Sololá	5	Mayo	2023-12-05T00:00:00	2024-11-08T01:00:00	3	Temperatura mínima	15.1
23092	7	Sololá	701	Sololá	1	Sololá	5	Mayo	2023-12-05T00:00:00	2024-11-08T01:00:00	5	Humedad	89
23093	7	Sololá	701	Sololá	1	Sololá	5	Mayo	2023-12-05T00:00:00	2024-11-08T01:00:00	6	Velocidad del viento	1.6
23094	7	Sololá	701	Sololá	1	Sololá	5	Mayo	2023-12-05T00:00:00	2024-11-08T01:00:00	7	Dirección del viento	1.61
23095	7	Sololá	701	Sololá	1	Sololá	5	Mayo	2023-12-05T00:00:00	2024-11-08T01:00:00	1	Precipitación	0
23096	7	Sololá	701	Sololá	1	Sololá	5	Mayo	2023-12-05T00:00:00	2024-11-08T01:00:00	8	Radiación solar	0
23097	7	Sololá	701	Sololá	1	Sololá	5	Mayo	2023-12-05T00:00:00	2024-11-08T02:00:00	2	Temperatura media	14.8
23098	7	Sololá	701	Sololá	1	Sololá	5	Mayo	2023-12-05T00:00:00	2024-11-08T02:00:00	4	Temperatura máxima	15.2
23099	7	Sololá	701	Sololá	1	Sololá	5	Mayo	2023-12-05T00:00:00	2024-11-08T02:00:00	3	Temperatura mínima	14.7
23100	7	Sololá	701	Sololá	1	Sololá	5	Mayo	2023-12-05T00:00:00	2024-11-08T02:00:00	5	Humedad	87
23101	7	Sololá	701	Sololá	1	Sololá	5	Mayo	2023-12-05T00:00:00	2024-11-08T02:00:00	6	Velocidad del viento	3.2
23102	7	Sololá	701	Sololá	1	Sololá	5	Mayo	2023-12-05T00:00:00	2024-11-08T02:00:00	7	Dirección del viento	3.22
23103	7	Sololá	701	Sololá	1	Sololá	5	Mayo	2023-12-05T00:00:00	2024-11-08T02:00:00	1	Precipitación	0
23104	7	Sololá	701	Sololá	1	Sololá	5	Mayo	2023-12-05T00:00:00	2024-11-08T02:00:00	8	Radiación solar	0
23105	7	Sololá	701	Sololá	1	Sololá	5	Mayo	2023-12-05T00:00:00	2024-11-08T03:00:00	2	Temperatura media	14.4
23106	7	Sololá	701	Sololá	1	Sololá	5	Mayo	2023-12-05T00:00:00	2024-11-08T03:00:00	4	Temperatura máxima	14.9
23107	7	Sololá	701	Sololá	1	Sololá	5	Mayo	2023-12-05T00:00:00	2024-11-08T03:00:00	3	Temperatura mínima	14
23108	7	Sololá	701	Sololá	1	Sololá	5	Mayo	2023-12-05T00:00:00	2024-11-08T03:00:00	5	Humedad	88
23109	7	Sololá	701	Sololá	1	Sololá	5	Mayo	2023-12-05T00:00:00	2024-11-08T03:00:00	6	Velocidad del viento	3.2
23110	7	Sololá	701	Sololá	1	Sololá	5	Mayo	2023-12-05T00:00:00	2024-11-08T03:00:00	7	Dirección del viento	3.22
23111	7	Sololá	701	Sololá	1	Sololá	5	Mayo	2023-12-05T00:00:00	2024-11-08T03:00:00	1	Precipitación	0
23112	7	Sololá	701	Sololá	1	Sololá	5	Mayo	2023-12-05T00:00:00	2024-11-08T03:00:00	8	Radiación solar	0
23113	7	Sololá	701	Sololá	1	Sololá	5	Mayo	2023-12-05T00:00:00	2024-11-08T04:00:00	2	Temperatura media	14.5
23114	7	Sololá	701	Sololá	1	Sololá	5	Mayo	2023-12-05T00:00:00	2024-11-08T04:00:00	4	Temperatura máxima	14.8
23115	7	Sololá	701	Sololá	1	Sololá	5	Mayo	2023-12-05T00:00:00	2024-11-08T04:00:00	3	Temperatura mínima	14.2
23116	7	Sololá	701	Sololá	1	Sololá	5	Mayo	2023-12-05T00:00:00	2024-11-08T04:00:00	5	Humedad	88
23117	7	Sololá	701	Sololá	1	Sololá	5	Mayo	2023-12-05T00:00:00	2024-11-08T04:00:00	6	Velocidad del viento	3.2
23118	7	Sololá	701	Sololá	1	Sololá	5	Mayo	2023-12-05T00:00:00	2024-11-08T04:00:00	7	Dirección del viento	3.22
23119	7	Sololá	701	Sololá	1	Sololá	5	Mayo	2023-12-05T00:00:00	2024-11-08T04:00:00	1	Precipitación	0
23120	7	Sololá	701	Sololá	1	Sololá	5	Mayo	2023-12-05T00:00:00	2024-11-08T04:00:00	8	Radiación solar	0
23121	7	Sololá	701	Sololá	1	Sololá	5	Mayo	2023-12-05T00:00:00	2024-11-08T05:00:00	2	Temperatura media	13.7
23122	7	Sololá	701	Sololá	1	Sololá	5	Mayo	2023-12-05T00:00:00	2024-11-08T05:00:00	4	Temperatura máxima	14.5
23123	7	Sololá	701	Sololá	1	Sololá	5	Mayo	2023-12-05T00:00:00	2024-11-08T05:00:00	3	Temperatura mínima	13.7
23124	7	Sololá	701	Sololá	1	Sololá	5	Mayo	2023-12-05T00:00:00	2024-11-08T05:00:00	5	Humedad	88
23125	7	Sololá	701	Sololá	1	Sololá	5	Mayo	2023-12-05T00:00:00	2024-11-08T05:00:00	6	Velocidad del viento	4.8
23126	7	Sololá	701	Sololá	1	Sololá	5	Mayo	2023-12-05T00:00:00	2024-11-08T05:00:00	7	Dirección del viento	4.83
23127	7	Sololá	701	Sololá	1	Sololá	5	Mayo	2023-12-05T00:00:00	2024-11-08T05:00:00	1	Precipitación	0
23128	7	Sololá	701	Sololá	1	Sololá	5	Mayo	2023-12-05T00:00:00	2024-11-08T05:00:00	8	Radiación solar	0
23129	7	Sololá	701	Sololá	1	Sololá	5	Mayo	2023-12-05T00:00:00	2024-11-08T06:00:00	2	Temperatura media	13.8
23130	7	Sololá	701	Sololá	1	Sololá	5	Mayo	2023-12-05T00:00:00	2024-11-08T06:00:00	4	Temperatura máxima	14
23131	7	Sololá	701	Sololá	1	Sololá	5	Mayo	2023-12-05T00:00:00	2024-11-08T06:00:00	3	Temperatura mínima	13.6
23132	7	Sololá	701	Sololá	1	Sololá	5	Mayo	2023-12-05T00:00:00	2024-11-08T06:00:00	5	Humedad	84
23133	7	Sololá	701	Sololá	1	Sololá	5	Mayo	2023-12-05T00:00:00	2024-11-08T06:00:00	6	Velocidad del viento	6.4
23134	7	Sololá	701	Sololá	1	Sololá	5	Mayo	2023-12-05T00:00:00	2024-11-08T06:00:00	7	Dirección del viento	6.44
23135	7	Sololá	701	Sololá	1	Sololá	5	Mayo	2023-12-05T00:00:00	2024-11-08T06:00:00	1	Precipitación	0
23136	7	Sololá	701	Sololá	1	Sololá	5	Mayo	2023-12-05T00:00:00	2024-11-08T06:00:00	8	Radiación solar	3
23137	7	Sololá	701	Sololá	1	Sololá	5	Mayo	2023-12-05T00:00:00	2024-11-08T07:00:00	2	Temperatura media	13.6
23138	7	Sololá	701	Sololá	1	Sololá	5	Mayo	2023-12-05T00:00:00	2024-11-08T07:00:00	4	Temperatura máxima	13.8
23139	7	Sololá	701	Sololá	1	Sololá	5	Mayo	2023-12-05T00:00:00	2024-11-08T07:00:00	3	Temperatura mínima	13.4
23140	7	Sololá	701	Sololá	1	Sololá	5	Mayo	2023-12-05T00:00:00	2024-11-08T07:00:00	5	Humedad	85
23141	7	Sololá	701	Sololá	1	Sololá	5	Mayo	2023-12-05T00:00:00	2024-11-08T07:00:00	6	Velocidad del viento	1.6
23142	7	Sololá	701	Sololá	1	Sololá	5	Mayo	2023-12-05T00:00:00	2024-11-08T07:00:00	7	Dirección del viento	1.61
23143	7	Sololá	701	Sololá	1	Sololá	5	Mayo	2023-12-05T00:00:00	2024-11-08T07:00:00	1	Precipitación	0
23144	7	Sololá	701	Sololá	1	Sololá	5	Mayo	2023-12-05T00:00:00	2024-11-08T07:00:00	8	Radiación solar	26
23145	7	Sololá	701	Sololá	1	Sololá	5	Mayo	2023-12-05T00:00:00	2024-11-08T08:00:00	2	Temperatura media	15.7
23146	7	Sololá	701	Sololá	1	Sololá	5	Mayo	2023-12-05T00:00:00	2024-11-08T08:00:00	4	Temperatura máxima	15.7
23147	7	Sololá	701	Sololá	1	Sololá	5	Mayo	2023-12-05T00:00:00	2024-11-08T08:00:00	3	Temperatura mínima	13.6
23148	7	Sololá	701	Sololá	1	Sololá	5	Mayo	2023-12-05T00:00:00	2024-11-08T08:00:00	5	Humedad	80
23149	7	Sololá	701	Sololá	1	Sololá	5	Mayo	2023-12-05T00:00:00	2024-11-08T08:00:00	6	Velocidad del viento	1.6
23150	7	Sololá	701	Sololá	1	Sololá	5	Mayo	2023-12-05T00:00:00	2024-11-08T08:00:00	7	Dirección del viento	1.61
23151	7	Sololá	701	Sololá	1	Sololá	5	Mayo	2023-12-05T00:00:00	2024-11-08T08:00:00	1	Precipitación	0
23152	7	Sololá	701	Sololá	1	Sololá	5	Mayo	2023-12-05T00:00:00	2024-11-08T08:00:00	8	Radiación solar	91
23153	7	Sololá	701	Sololá	1	Sololá	5	Mayo	2023-12-05T00:00:00	2024-11-08T09:00:00	2	Temperatura media	17.2
23154	7	Sololá	701	Sololá	1	Sololá	5	Mayo	2023-12-05T00:00:00	2024-11-08T09:00:00	4	Temperatura máxima	17.2
23155	7	Sololá	701	Sololá	1	Sololá	5	Mayo	2023-12-05T00:00:00	2024-11-08T09:00:00	3	Temperatura mínima	15.6
23156	7	Sololá	701	Sololá	1	Sololá	5	Mayo	2023-12-05T00:00:00	2024-11-08T09:00:00	5	Humedad	85
23157	7	Sololá	701	Sololá	1	Sololá	5	Mayo	2023-12-05T00:00:00	2024-11-08T09:00:00	6	Velocidad del viento	3.2
23158	7	Sololá	701	Sololá	1	Sololá	5	Mayo	2023-12-05T00:00:00	2024-11-08T09:00:00	7	Dirección del viento	3.22
23159	7	Sololá	701	Sololá	1	Sololá	5	Mayo	2023-12-05T00:00:00	2024-11-08T09:00:00	1	Precipitación	0
23160	7	Sololá	701	Sololá	1	Sololá	5	Mayo	2023-12-05T00:00:00	2024-11-08T09:00:00	8	Radiación solar	465
23161	7	Sololá	701	Sololá	1	Sololá	5	Mayo	2023-12-05T00:00:00	2024-11-08T10:00:00	2	Temperatura media	18.9
23162	7	Sololá	701	Sololá	1	Sololá	5	Mayo	2023-12-05T00:00:00	2024-11-08T10:00:00	4	Temperatura máxima	18.9
23163	7	Sololá	701	Sololá	1	Sololá	5	Mayo	2023-12-05T00:00:00	2024-11-08T10:00:00	3	Temperatura mínima	17.1
23164	7	Sololá	701	Sololá	1	Sololá	5	Mayo	2023-12-05T00:00:00	2024-11-08T10:00:00	5	Humedad	73
23165	7	Sololá	701	Sololá	1	Sololá	5	Mayo	2023-12-05T00:00:00	2024-11-08T10:00:00	6	Velocidad del viento	3.2
23166	7	Sololá	701	Sololá	1	Sololá	5	Mayo	2023-12-05T00:00:00	2024-11-08T10:00:00	7	Dirección del viento	3.22
23167	7	Sololá	701	Sololá	1	Sololá	5	Mayo	2023-12-05T00:00:00	2024-11-08T10:00:00	1	Precipitación	0
23168	7	Sololá	701	Sololá	1	Sololá	5	Mayo	2023-12-05T00:00:00	2024-11-08T10:00:00	8	Radiación solar	778
23169	7	Sololá	701	Sololá	1	Sololá	5	Mayo	2023-12-05T00:00:00	2024-11-08T11:00:00	2	Temperatura media	20.6
23170	7	Sololá	701	Sololá	1	Sololá	5	Mayo	2023-12-05T00:00:00	2024-11-08T11:00:00	4	Temperatura máxima	21.1
23171	7	Sololá	701	Sololá	1	Sololá	5	Mayo	2023-12-05T00:00:00	2024-11-08T11:00:00	3	Temperatura mínima	18.9
23172	7	Sololá	701	Sololá	1	Sololá	5	Mayo	2023-12-05T00:00:00	2024-11-08T11:00:00	5	Humedad	69
23173	7	Sololá	701	Sololá	1	Sololá	5	Mayo	2023-12-05T00:00:00	2024-11-08T11:00:00	6	Velocidad del viento	3.2
23174	7	Sololá	701	Sololá	1	Sololá	5	Mayo	2023-12-05T00:00:00	2024-11-08T11:00:00	7	Dirección del viento	3.22
23175	7	Sololá	701	Sololá	1	Sololá	5	Mayo	2023-12-05T00:00:00	2024-11-08T11:00:00	1	Precipitación	0
23176	7	Sololá	701	Sololá	1	Sololá	5	Mayo	2023-12-05T00:00:00	2024-11-08T11:00:00	8	Radiación solar	836
23177	7	Sololá	701	Sololá	1	Sololá	5	Mayo	2023-12-05T00:00:00	2024-11-08T12:00:00	2	Temperatura media	21.8
23178	7	Sololá	701	Sololá	1	Sololá	5	Mayo	2023-12-05T00:00:00	2024-11-08T12:00:00	4	Temperatura máxima	21.9
23179	7	Sololá	701	Sololá	1	Sololá	5	Mayo	2023-12-05T00:00:00	2024-11-08T12:00:00	3	Temperatura mínima	20.6
23180	7	Sololá	701	Sololá	1	Sololá	5	Mayo	2023-12-05T00:00:00	2024-11-08T12:00:00	5	Humedad	65
23181	7	Sololá	701	Sololá	1	Sololá	5	Mayo	2023-12-05T00:00:00	2024-11-08T12:00:00	6	Velocidad del viento	4.8
23182	7	Sololá	701	Sololá	1	Sololá	5	Mayo	2023-12-05T00:00:00	2024-11-08T12:00:00	7	Dirección del viento	4.83
23183	7	Sololá	701	Sololá	1	Sololá	5	Mayo	2023-12-05T00:00:00	2024-11-08T12:00:00	1	Precipitación	0
23184	7	Sololá	701	Sololá	1	Sololá	5	Mayo	2023-12-05T00:00:00	2024-11-08T12:00:00	8	Radiación solar	1008
23185	7	Sololá	701	Sololá	1	Sololá	5	Mayo	2023-12-05T00:00:00	2024-11-08T13:00:00	2	Temperatura media	21.8
23186	7	Sololá	701	Sololá	1	Sololá	5	Mayo	2023-12-05T00:00:00	2024-11-08T13:00:00	4	Temperatura máxima	22.2
23187	7	Sololá	701	Sololá	1	Sololá	5	Mayo	2023-12-05T00:00:00	2024-11-08T13:00:00	3	Temperatura mínima	21.6
23188	7	Sololá	701	Sololá	1	Sololá	5	Mayo	2023-12-05T00:00:00	2024-11-08T13:00:00	5	Humedad	71
23189	7	Sololá	701	Sololá	1	Sololá	5	Mayo	2023-12-05T00:00:00	2024-11-08T13:00:00	6	Velocidad del viento	6.4
23190	7	Sololá	701	Sololá	1	Sololá	5	Mayo	2023-12-05T00:00:00	2024-11-08T13:00:00	7	Dirección del viento	6.44
23191	7	Sololá	701	Sololá	1	Sololá	5	Mayo	2023-12-05T00:00:00	2024-11-08T13:00:00	1	Precipitación	0
23192	7	Sololá	701	Sololá	1	Sololá	5	Mayo	2023-12-05T00:00:00	2024-11-08T13:00:00	8	Radiación solar	914
23193	7	Sololá	701	Sololá	1	Sololá	5	Mayo	2023-12-05T00:00:00	2024-11-08T14:00:00	2	Temperatura media	21.6
23194	7	Sololá	701	Sololá	1	Sololá	5	Mayo	2023-12-05T00:00:00	2024-11-08T14:00:00	4	Temperatura máxima	22.3
23195	7	Sololá	701	Sololá	1	Sololá	5	Mayo	2023-12-05T00:00:00	2024-11-08T14:00:00	3	Temperatura mínima	21.6
23196	7	Sololá	701	Sololá	1	Sololá	5	Mayo	2023-12-05T00:00:00	2024-11-08T14:00:00	5	Humedad	74
23197	7	Sololá	701	Sololá	1	Sololá	5	Mayo	2023-12-05T00:00:00	2024-11-08T14:00:00	6	Velocidad del viento	6.4
23198	7	Sololá	701	Sololá	1	Sololá	5	Mayo	2023-12-05T00:00:00	2024-11-08T14:00:00	7	Dirección del viento	6.44
23199	7	Sololá	701	Sololá	1	Sololá	5	Mayo	2023-12-05T00:00:00	2024-11-08T14:00:00	1	Precipitación	0
23200	7	Sololá	701	Sololá	1	Sololá	5	Mayo	2023-12-05T00:00:00	2024-11-08T14:00:00	8	Radiación solar	949
23201	7	Sololá	701	Sololá	1	Sololá	5	Mayo	2023-12-05T00:00:00	2024-11-08T15:00:00	2	Temperatura media	20.7
23202	7	Sololá	701	Sololá	1	Sololá	5	Mayo	2023-12-05T00:00:00	2024-11-08T15:00:00	4	Temperatura máxima	21.8
23203	7	Sololá	701	Sololá	1	Sololá	5	Mayo	2023-12-05T00:00:00	2024-11-08T15:00:00	3	Temperatura mínima	20.2
23204	7	Sololá	701	Sololá	1	Sololá	5	Mayo	2023-12-05T00:00:00	2024-11-08T15:00:00	5	Humedad	79
23205	7	Sololá	701	Sololá	1	Sololá	5	Mayo	2023-12-05T00:00:00	2024-11-08T15:00:00	6	Velocidad del viento	6.4
23206	7	Sololá	701	Sololá	1	Sololá	5	Mayo	2023-12-05T00:00:00	2024-11-08T15:00:00	7	Dirección del viento	6.44
23207	7	Sololá	701	Sololá	1	Sololá	5	Mayo	2023-12-05T00:00:00	2024-11-08T15:00:00	1	Precipitación	0
23208	7	Sololá	701	Sololá	1	Sololá	5	Mayo	2023-12-05T00:00:00	2024-11-08T15:00:00	8	Radiación solar	369
23209	7	Sololá	701	Sololá	1	Sololá	5	Mayo	2023-12-05T00:00:00	2024-11-08T16:00:00	2	Temperatura media	19.9
23210	7	Sololá	701	Sololá	1	Sololá	5	Mayo	2023-12-05T00:00:00	2024-11-08T16:00:00	4	Temperatura máxima	21.9
23211	7	Sololá	701	Sololá	1	Sololá	5	Mayo	2023-12-05T00:00:00	2024-11-08T16:00:00	3	Temperatura mínima	19.8
23212	7	Sololá	701	Sololá	1	Sololá	5	Mayo	2023-12-05T00:00:00	2024-11-08T16:00:00	5	Humedad	83
23213	7	Sololá	701	Sololá	1	Sololá	5	Mayo	2023-12-05T00:00:00	2024-11-08T16:00:00	6	Velocidad del viento	6.4
23214	7	Sololá	701	Sololá	1	Sololá	5	Mayo	2023-12-05T00:00:00	2024-11-08T16:00:00	7	Dirección del viento	6.44
23215	7	Sololá	701	Sololá	1	Sololá	5	Mayo	2023-12-05T00:00:00	2024-11-08T16:00:00	1	Precipitación	0
23216	7	Sololá	701	Sololá	1	Sololá	5	Mayo	2023-12-05T00:00:00	2024-11-08T16:00:00	8	Radiación solar	221
23217	7	Sololá	701	Sololá	1	Sololá	5	Mayo	2023-12-05T00:00:00	2024-11-08T17:00:00	2	Temperatura media	17.6
23218	7	Sololá	701	Sololá	1	Sololá	5	Mayo	2023-12-05T00:00:00	2024-11-08T17:00:00	4	Temperatura máxima	17.7
23219	7	Sololá	701	Sololá	1	Sololá	5	Mayo	2023-12-05T00:00:00	2024-11-08T17:00:00	3	Temperatura mínima	17.6
23220	7	Sololá	701	Sololá	1	Sololá	5	Mayo	2023-12-05T00:00:00	2024-11-08T17:00:00	5	Humedad	91
23221	7	Sololá	701	Sololá	1	Sololá	5	Mayo	2023-12-05T00:00:00	2024-11-08T17:00:00	6	Velocidad del viento	0
23222	7	Sololá	701	Sololá	1	Sololá	5	Mayo	2023-12-05T00:00:00	2024-11-08T17:00:00	7	Dirección del viento	0
23223	7	Sololá	701	Sololá	1	Sololá	5	Mayo	2023-12-05T00:00:00	2024-11-08T17:00:00	1	Precipitación	0
23224	7	Sololá	701	Sololá	1	Sololá	5	Mayo	2023-12-05T00:00:00	2024-11-08T17:00:00	8	Radiación solar	80
23225	7	Sololá	701	Sololá	1	Sololá	5	Mayo	2023-12-05T00:00:00	2024-11-08T18:00:00	2	Temperatura media	17.6
23226	7	Sololá	701	Sololá	1	Sololá	5	Mayo	2023-12-05T00:00:00	2024-11-08T18:00:00	4	Temperatura máxima	17.7
23227	7	Sololá	701	Sololá	1	Sololá	5	Mayo	2023-12-05T00:00:00	2024-11-08T18:00:00	3	Temperatura mínima	17.6
23228	7	Sololá	701	Sololá	1	Sololá	5	Mayo	2023-12-05T00:00:00	2024-11-08T18:00:00	5	Humedad	91
23229	7	Sololá	701	Sololá	1	Sololá	5	Mayo	2023-12-05T00:00:00	2024-11-08T18:00:00	6	Velocidad del viento	0
23230	7	Sololá	701	Sololá	1	Sololá	5	Mayo	2023-12-05T00:00:00	2024-11-08T18:00:00	7	Dirección del viento	0
23231	7	Sololá	701	Sololá	1	Sololá	5	Mayo	2023-12-05T00:00:00	2024-11-08T18:00:00	1	Precipitación	0
23232	7	Sololá	701	Sololá	1	Sololá	5	Mayo	2023-12-05T00:00:00	2024-11-08T18:00:00	8	Radiación solar	16
23233	7	Sololá	701	Sololá	1	Sololá	5	Mayo	2023-12-05T00:00:00	2024-11-08T19:00:00	2	Temperatura media	17.1
23234	7	Sololá	701	Sololá	1	Sololá	5	Mayo	2023-12-05T00:00:00	2024-11-08T19:00:00	4	Temperatura máxima	17.2
23235	7	Sololá	701	Sololá	1	Sololá	5	Mayo	2023-12-05T00:00:00	2024-11-08T19:00:00	3	Temperatura mínima	17.1
23236	7	Sololá	701	Sololá	1	Sololá	5	Mayo	2023-12-05T00:00:00	2024-11-08T19:00:00	5	Humedad	93
23237	7	Sololá	701	Sololá	1	Sololá	5	Mayo	2023-12-05T00:00:00	2024-11-08T19:00:00	6	Velocidad del viento	3.2
23238	7	Sololá	701	Sololá	1	Sololá	5	Mayo	2023-12-05T00:00:00	2024-11-08T19:00:00	7	Dirección del viento	0.05
23239	7	Sololá	701	Sololá	1	Sololá	5	Mayo	2023-12-05T00:00:00	2024-11-08T19:00:00	1	Precipitación	0
23240	7	Sololá	701	Sololá	1	Sololá	5	Mayo	2023-12-05T00:00:00	2024-11-08T19:00:00	8	Radiación solar	0
23241	7	Sololá	701	Sololá	1	Sololá	5	Mayo	2023-12-05T00:00:00	2024-11-08T20:00:00	2	Temperatura media	17.1
23242	7	Sololá	701	Sololá	1	Sololá	5	Mayo	2023-12-05T00:00:00	2024-11-08T20:00:00	4	Temperatura máxima	17.1
23243	7	Sololá	701	Sololá	1	Sololá	5	Mayo	2023-12-05T00:00:00	2024-11-08T20:00:00	3	Temperatura mínima	16.7
23244	7	Sololá	701	Sololá	1	Sololá	5	Mayo	2023-12-05T00:00:00	2024-11-08T20:00:00	5	Humedad	90
23245	7	Sololá	701	Sololá	1	Sololá	5	Mayo	2023-12-05T00:00:00	2024-11-08T20:00:00	6	Velocidad del viento	1.6
23246	7	Sololá	701	Sololá	1	Sololá	5	Mayo	2023-12-05T00:00:00	2024-11-08T20:00:00	7	Dirección del viento	1.61
23247	7	Sololá	701	Sololá	1	Sololá	5	Mayo	2023-12-05T00:00:00	2024-11-08T20:00:00	1	Precipitación	0
23248	7	Sololá	701	Sololá	1	Sololá	5	Mayo	2023-12-05T00:00:00	2024-11-08T20:00:00	8	Radiación solar	0
23249	7	Sololá	701	Sololá	1	Sololá	5	Mayo	2023-12-05T00:00:00	2024-11-08T21:00:00	2	Temperatura media	17
23250	7	Sololá	701	Sololá	1	Sololá	5	Mayo	2023-12-05T00:00:00	2024-11-08T21:00:00	4	Temperatura máxima	17.3
23251	7	Sololá	701	Sololá	1	Sololá	5	Mayo	2023-12-05T00:00:00	2024-11-08T21:00:00	3	Temperatura mínima	16.9
23252	7	Sololá	701	Sololá	1	Sololá	5	Mayo	2023-12-05T00:00:00	2024-11-08T21:00:00	5	Humedad	89
23253	7	Sololá	701	Sololá	1	Sololá	5	Mayo	2023-12-05T00:00:00	2024-11-08T21:00:00	6	Velocidad del viento	1.6
23254	7	Sololá	701	Sololá	1	Sololá	5	Mayo	2023-12-05T00:00:00	2024-11-08T21:00:00	7	Dirección del viento	1.61
23255	7	Sololá	701	Sololá	1	Sololá	5	Mayo	2023-12-05T00:00:00	2024-11-08T21:00:00	1	Precipitación	0
23256	7	Sololá	701	Sololá	1	Sololá	5	Mayo	2023-12-05T00:00:00	2024-11-08T21:00:00	8	Radiación solar	0
23257	7	Sololá	701	Sololá	1	Sololá	5	Mayo	2023-12-05T00:00:00	2024-11-08T22:00:00	2	Temperatura media	16.4
23258	7	Sololá	701	Sololá	1	Sololá	5	Mayo	2023-12-05T00:00:00	2024-11-08T22:00:00	4	Temperatura máxima	17.1
23259	7	Sololá	701	Sololá	1	Sololá	5	Mayo	2023-12-05T00:00:00	2024-11-08T22:00:00	3	Temperatura mínima	16.4
23260	7	Sololá	701	Sololá	1	Sololá	5	Mayo	2023-12-05T00:00:00	2024-11-08T22:00:00	5	Humedad	91
23261	7	Sololá	701	Sololá	1	Sololá	5	Mayo	2023-12-05T00:00:00	2024-11-08T22:00:00	6	Velocidad del viento	1.6
23262	7	Sololá	701	Sololá	1	Sololá	5	Mayo	2023-12-05T00:00:00	2024-11-08T22:00:00	7	Dirección del viento	1.61
23263	7	Sololá	701	Sololá	1	Sololá	5	Mayo	2023-12-05T00:00:00	2024-11-08T22:00:00	1	Precipitación	0
23264	7	Sololá	701	Sololá	1	Sololá	5	Mayo	2023-12-05T00:00:00	2024-11-08T22:00:00	8	Radiación solar	0
23265	7	Sololá	701	Sololá	1	Sololá	5	Mayo	2023-12-05T00:00:00	2024-11-08T23:00:00	2	Temperatura media	15.6
23266	7	Sololá	701	Sololá	1	Sololá	5	Mayo	2023-12-05T00:00:00	2024-11-08T23:00:00	4	Temperatura máxima	16.4
23267	7	Sololá	701	Sololá	1	Sololá	5	Mayo	2023-12-05T00:00:00	2024-11-08T23:00:00	3	Temperatura mínima	15.5
23268	7	Sololá	701	Sololá	1	Sololá	5	Mayo	2023-12-05T00:00:00	2024-11-08T23:00:00	5	Humedad	88
23269	7	Sololá	701	Sololá	1	Sololá	5	Mayo	2023-12-05T00:00:00	2024-11-08T23:00:00	6	Velocidad del viento	1.6
23270	7	Sololá	701	Sololá	1	Sololá	5	Mayo	2023-12-05T00:00:00	2024-11-08T23:00:00	7	Dirección del viento	1.61
23271	7	Sololá	701	Sololá	1	Sololá	5	Mayo	2023-12-05T00:00:00	2024-11-08T23:00:00	1	Precipitación	0
23272	7	Sololá	701	Sololá	1	Sololá	5	Mayo	2023-12-05T00:00:00	2024-11-08T23:00:00	8	Radiación solar	0
23273	7	Sololá	701	Sololá	1	Sololá	5	Mayo	2023-05-13T00:00:00	2024-11-08T00:00:00	2	Temperatura media	15.8
23274	7	Sololá	701	Sololá	1	Sololá	5	Mayo	2023-05-13T00:00:00	2024-11-08T00:00:00	4	Temperatura máxima	16.1
23275	7	Sololá	701	Sololá	1	Sololá	5	Mayo	2023-05-13T00:00:00	2024-11-08T00:00:00	3	Temperatura mínima	15.6
23276	7	Sololá	701	Sololá	1	Sololá	5	Mayo	2023-05-13T00:00:00	2024-11-08T00:00:00	5	Humedad	87
23277	7	Sololá	701	Sololá	1	Sololá	5	Mayo	2023-05-13T00:00:00	2024-11-08T00:00:00	6	Velocidad del viento	1.6
23278	7	Sololá	701	Sololá	1	Sololá	5	Mayo	2023-05-13T00:00:00	2024-11-08T00:00:00	7	Dirección del viento	1.61
23279	7	Sololá	701	Sololá	1	Sololá	5	Mayo	2023-05-13T00:00:00	2024-11-08T00:00:00	1	Precipitación	0
23280	7	Sololá	701	Sololá	1	Sololá	5	Mayo	2023-05-13T00:00:00	2024-11-08T00:00:00	8	Radiación solar	0
23281	7	Sololá	701	Sololá	1	Sololá	5	Mayo	2023-05-13T00:00:00	2024-11-08T01:00:00	2	Temperatura media	15.2
23282	7	Sololá	701	Sololá	1	Sololá	5	Mayo	2023-05-13T00:00:00	2024-11-08T01:00:00	4	Temperatura máxima	15.9
23283	7	Sololá	701	Sololá	1	Sololá	5	Mayo	2023-05-13T00:00:00	2024-11-08T01:00:00	3	Temperatura mínima	15.2
23284	7	Sololá	701	Sololá	1	Sololá	5	Mayo	2023-05-13T00:00:00	2024-11-08T01:00:00	5	Humedad	91
23285	7	Sololá	701	Sololá	1	Sololá	5	Mayo	2023-05-13T00:00:00	2024-11-08T01:00:00	6	Velocidad del viento	1.6
23286	7	Sololá	701	Sololá	1	Sololá	5	Mayo	2023-05-13T00:00:00	2024-11-08T01:00:00	7	Dirección del viento	1.61
23287	7	Sololá	701	Sololá	1	Sololá	5	Mayo	2023-05-13T00:00:00	2024-11-08T01:00:00	1	Precipitación	1.4
23288	7	Sololá	701	Sololá	1	Sololá	5	Mayo	2023-05-13T00:00:00	2024-11-08T01:00:00	8	Radiación solar	0
23289	7	Sololá	701	Sololá	1	Sololá	5	Mayo	2023-05-13T00:00:00	2024-11-08T02:00:00	2	Temperatura media	14.6
23290	7	Sololá	701	Sololá	1	Sololá	5	Mayo	2023-05-13T00:00:00	2024-11-08T02:00:00	4	Temperatura máxima	15.3
23291	7	Sololá	701	Sololá	1	Sololá	5	Mayo	2023-05-13T00:00:00	2024-11-08T02:00:00	3	Temperatura mínima	14.6
23292	7	Sololá	701	Sololá	1	Sololá	5	Mayo	2023-05-13T00:00:00	2024-11-08T02:00:00	5	Humedad	89
23293	7	Sololá	701	Sololá	1	Sololá	5	Mayo	2023-05-13T00:00:00	2024-11-08T02:00:00	6	Velocidad del viento	3.2
23294	7	Sololá	701	Sololá	1	Sololá	5	Mayo	2023-05-13T00:00:00	2024-11-08T02:00:00	7	Dirección del viento	3.22
23295	7	Sololá	701	Sololá	1	Sololá	5	Mayo	2023-05-13T00:00:00	2024-11-08T02:00:00	1	Precipitación	0.4
23296	7	Sololá	701	Sololá	1	Sololá	5	Mayo	2023-05-13T00:00:00	2024-11-08T02:00:00	8	Radiación solar	0
23297	7	Sololá	701	Sololá	1	Sololá	5	Mayo	2023-05-13T00:00:00	2024-11-08T03:00:00	2	Temperatura media	14.4
23298	7	Sololá	701	Sololá	1	Sololá	5	Mayo	2023-05-13T00:00:00	2024-11-08T03:00:00	4	Temperatura máxima	14.7
23299	7	Sololá	701	Sololá	1	Sololá	5	Mayo	2023-05-13T00:00:00	2024-11-08T03:00:00	3	Temperatura mínima	14.4
23300	7	Sololá	701	Sololá	1	Sololá	5	Mayo	2023-05-13T00:00:00	2024-11-08T03:00:00	5	Humedad	91
23301	7	Sololá	701	Sololá	1	Sololá	5	Mayo	2023-05-13T00:00:00	2024-11-08T03:00:00	6	Velocidad del viento	3.2
23302	7	Sololá	701	Sololá	1	Sololá	5	Mayo	2023-05-13T00:00:00	2024-11-08T03:00:00	7	Dirección del viento	3.22
23303	7	Sololá	701	Sololá	1	Sololá	5	Mayo	2023-05-13T00:00:00	2024-11-08T03:00:00	1	Precipitación	0
23304	7	Sololá	701	Sololá	1	Sololá	5	Mayo	2023-05-13T00:00:00	2024-11-08T03:00:00	8	Radiación solar	0
23305	7	Sololá	701	Sololá	1	Sololá	5	Mayo	2023-05-13T00:00:00	2024-11-08T04:00:00	2	Temperatura media	14.2
23306	7	Sololá	701	Sololá	1	Sololá	5	Mayo	2023-05-13T00:00:00	2024-11-08T04:00:00	4	Temperatura máxima	14.5
23307	7	Sololá	701	Sololá	1	Sololá	5	Mayo	2023-05-13T00:00:00	2024-11-08T04:00:00	3	Temperatura mínima	13.8
23308	7	Sololá	701	Sololá	1	Sololá	5	Mayo	2023-05-13T00:00:00	2024-11-08T04:00:00	5	Humedad	87
23309	7	Sololá	701	Sololá	1	Sololá	5	Mayo	2023-05-13T00:00:00	2024-11-08T04:00:00	6	Velocidad del viento	3.2
23310	7	Sololá	701	Sololá	1	Sololá	5	Mayo	2023-05-13T00:00:00	2024-11-08T04:00:00	7	Dirección del viento	3.22
23311	7	Sololá	701	Sololá	1	Sololá	5	Mayo	2023-05-13T00:00:00	2024-11-08T04:00:00	1	Precipitación	0
23312	7	Sololá	701	Sololá	1	Sololá	5	Mayo	2023-05-13T00:00:00	2024-11-08T04:00:00	8	Radiación solar	0
23313	7	Sololá	701	Sololá	1	Sololá	5	Mayo	2023-05-13T00:00:00	2024-11-08T05:00:00	2	Temperatura media	12.9
23314	7	Sololá	701	Sololá	1	Sololá	5	Mayo	2023-05-13T00:00:00	2024-11-08T05:00:00	4	Temperatura máxima	14.2
23315	7	Sololá	701	Sololá	1	Sololá	5	Mayo	2023-05-13T00:00:00	2024-11-08T05:00:00	3	Temperatura mínima	12.9
23316	7	Sololá	701	Sololá	1	Sololá	5	Mayo	2023-05-13T00:00:00	2024-11-08T05:00:00	5	Humedad	89
23317	7	Sololá	701	Sololá	1	Sololá	5	Mayo	2023-05-13T00:00:00	2024-11-08T05:00:00	6	Velocidad del viento	3.2
23318	7	Sololá	701	Sololá	1	Sololá	5	Mayo	2023-05-13T00:00:00	2024-11-08T05:00:00	7	Dirección del viento	3.22
23319	7	Sololá	701	Sololá	1	Sololá	5	Mayo	2023-05-13T00:00:00	2024-11-08T05:00:00	1	Precipitación	0
23320	7	Sololá	701	Sololá	1	Sololá	5	Mayo	2023-05-13T00:00:00	2024-11-08T05:00:00	8	Radiación solar	0
23321	7	Sololá	701	Sololá	1	Sololá	5	Mayo	2023-05-13T00:00:00	2024-11-08T06:00:00	2	Temperatura media	13.8
23322	7	Sololá	701	Sololá	1	Sololá	5	Mayo	2023-05-13T00:00:00	2024-11-08T06:00:00	4	Temperatura máxima	13.8
23323	7	Sololá	701	Sololá	1	Sololá	5	Mayo	2023-05-13T00:00:00	2024-11-08T06:00:00	3	Temperatura mínima	12.9
23324	7	Sololá	701	Sololá	1	Sololá	5	Mayo	2023-05-13T00:00:00	2024-11-08T06:00:00	5	Humedad	87
23325	7	Sololá	701	Sololá	1	Sololá	5	Mayo	2023-05-13T00:00:00	2024-11-08T06:00:00	6	Velocidad del viento	3.2
23326	7	Sololá	701	Sololá	1	Sololá	5	Mayo	2023-05-13T00:00:00	2024-11-08T06:00:00	7	Dirección del viento	3.22
23327	7	Sololá	701	Sololá	1	Sololá	5	Mayo	2023-05-13T00:00:00	2024-11-08T06:00:00	1	Precipitación	0
23328	7	Sololá	701	Sololá	1	Sololá	5	Mayo	2023-05-13T00:00:00	2024-11-08T06:00:00	8	Radiación solar	4
23329	7	Sololá	701	Sololá	1	Sololá	5	Mayo	2023-05-13T00:00:00	2024-11-08T07:00:00	2	Temperatura media	15.3
23330	7	Sololá	701	Sololá	1	Sololá	5	Mayo	2023-05-13T00:00:00	2024-11-08T07:00:00	4	Temperatura máxima	15.4
23331	7	Sololá	701	Sololá	1	Sololá	5	Mayo	2023-05-13T00:00:00	2024-11-08T07:00:00	3	Temperatura mínima	13.8
23332	7	Sololá	701	Sololá	1	Sololá	5	Mayo	2023-05-13T00:00:00	2024-11-08T07:00:00	5	Humedad	80
23333	7	Sololá	701	Sololá	1	Sololá	5	Mayo	2023-05-13T00:00:00	2024-11-08T07:00:00	6	Velocidad del viento	4.8
23334	7	Sololá	701	Sololá	1	Sololá	5	Mayo	2023-05-13T00:00:00	2024-11-08T07:00:00	7	Dirección del viento	4.83
23335	7	Sololá	701	Sololá	1	Sololá	5	Mayo	2023-05-13T00:00:00	2024-11-08T07:00:00	1	Precipitación	0
23336	7	Sololá	701	Sololá	1	Sololá	5	Mayo	2023-05-13T00:00:00	2024-11-08T07:00:00	8	Radiación solar	20
23337	7	Sololá	701	Sololá	1	Sololá	5	Mayo	2023-05-13T00:00:00	2024-11-08T08:00:00	2	Temperatura media	17.8
23338	7	Sololá	701	Sololá	1	Sololá	5	Mayo	2023-05-13T00:00:00	2024-11-08T08:00:00	4	Temperatura máxima	17.8
23339	7	Sololá	701	Sololá	1	Sololá	5	Mayo	2023-05-13T00:00:00	2024-11-08T08:00:00	3	Temperatura mínima	15.4
23340	7	Sololá	701	Sololá	1	Sololá	5	Mayo	2023-05-13T00:00:00	2024-11-08T08:00:00	5	Humedad	77
23341	7	Sololá	701	Sololá	1	Sololá	5	Mayo	2023-05-13T00:00:00	2024-11-08T08:00:00	6	Velocidad del viento	4.8
23342	7	Sololá	701	Sololá	1	Sololá	5	Mayo	2023-05-13T00:00:00	2024-11-08T08:00:00	7	Dirección del viento	4.83
23343	7	Sololá	701	Sololá	1	Sololá	5	Mayo	2023-05-13T00:00:00	2024-11-08T08:00:00	1	Precipitación	0
23344	7	Sololá	701	Sololá	1	Sololá	5	Mayo	2023-05-13T00:00:00	2024-11-08T08:00:00	8	Radiación solar	73
23345	7	Sololá	701	Sololá	1	Sololá	5	Mayo	2023-05-13T00:00:00	2024-11-08T09:00:00	2	Temperatura media	19.9
23346	7	Sololá	701	Sololá	1	Sololá	5	Mayo	2023-05-13T00:00:00	2024-11-08T09:00:00	4	Temperatura máxima	19.9
23347	7	Sololá	701	Sololá	1	Sololá	5	Mayo	2023-05-13T00:00:00	2024-11-08T09:00:00	3	Temperatura mínima	17.8
23348	7	Sololá	701	Sololá	1	Sololá	5	Mayo	2023-05-13T00:00:00	2024-11-08T09:00:00	5	Humedad	79
23349	7	Sololá	701	Sololá	1	Sololá	5	Mayo	2023-05-13T00:00:00	2024-11-08T09:00:00	6	Velocidad del viento	3.2
23350	7	Sololá	701	Sololá	1	Sololá	5	Mayo	2023-05-13T00:00:00	2024-11-08T09:00:00	7	Dirección del viento	3.22
23351	7	Sololá	701	Sololá	1	Sololá	5	Mayo	2023-05-13T00:00:00	2024-11-08T09:00:00	1	Precipitación	0
23352	7	Sololá	701	Sololá	1	Sololá	5	Mayo	2023-05-13T00:00:00	2024-11-08T09:00:00	8	Radiación solar	553
23353	7	Sololá	701	Sololá	1	Sololá	5	Mayo	2023-05-13T00:00:00	2024-11-08T10:00:00	2	Temperatura media	20.7
23354	7	Sololá	701	Sololá	1	Sololá	5	Mayo	2023-05-13T00:00:00	2024-11-08T10:00:00	4	Temperatura máxima	20.7
23355	7	Sololá	701	Sololá	1	Sololá	5	Mayo	2023-05-13T00:00:00	2024-11-08T10:00:00	3	Temperatura mínima	19.9
23356	7	Sololá	701	Sololá	1	Sololá	5	Mayo	2023-05-13T00:00:00	2024-11-08T10:00:00	5	Humedad	71
23357	7	Sololá	701	Sololá	1	Sololá	5	Mayo	2023-05-13T00:00:00	2024-11-08T10:00:00	6	Velocidad del viento	4.8
23358	7	Sololá	701	Sololá	1	Sololá	5	Mayo	2023-05-13T00:00:00	2024-11-08T10:00:00	7	Dirección del viento	4.83
23359	7	Sololá	701	Sololá	1	Sololá	5	Mayo	2023-05-13T00:00:00	2024-11-08T10:00:00	1	Precipitación	0
23360	7	Sololá	701	Sololá	1	Sololá	5	Mayo	2023-05-13T00:00:00	2024-11-08T10:00:00	8	Radiación solar	670
23361	7	Sololá	701	Sololá	1	Sololá	5	Mayo	2023-05-13T00:00:00	2024-11-08T11:00:00	2	Temperatura media	20.7
23362	7	Sololá	701	Sololá	1	Sololá	5	Mayo	2023-05-13T00:00:00	2024-11-08T11:00:00	4	Temperatura máxima	20.8
23363	7	Sololá	701	Sololá	1	Sololá	5	Mayo	2023-05-13T00:00:00	2024-11-08T11:00:00	3	Temperatura mínima	20.3
23364	7	Sololá	701	Sololá	1	Sololá	5	Mayo	2023-05-13T00:00:00	2024-11-08T11:00:00	5	Humedad	73
23365	7	Sololá	701	Sololá	1	Sololá	5	Mayo	2023-05-13T00:00:00	2024-11-08T11:00:00	6	Velocidad del viento	8
23366	7	Sololá	701	Sololá	1	Sololá	5	Mayo	2023-05-13T00:00:00	2024-11-08T11:00:00	7	Dirección del viento	8.05
23367	7	Sololá	701	Sololá	1	Sololá	5	Mayo	2023-05-13T00:00:00	2024-11-08T11:00:00	1	Precipitación	0
23368	7	Sololá	701	Sololá	1	Sololá	5	Mayo	2023-05-13T00:00:00	2024-11-08T11:00:00	8	Radiación solar	864
23369	7	Sololá	701	Sololá	1	Sololá	5	Mayo	2023-05-13T00:00:00	2024-11-08T12:00:00	2	Temperatura media	20.2
23370	7	Sololá	701	Sololá	1	Sololá	5	Mayo	2023-05-13T00:00:00	2024-11-08T12:00:00	4	Temperatura máxima	21.2
23371	7	Sololá	701	Sololá	1	Sololá	5	Mayo	2023-05-13T00:00:00	2024-11-08T12:00:00	3	Temperatura mínima	20.1
23372	7	Sololá	701	Sololá	1	Sololá	5	Mayo	2023-05-13T00:00:00	2024-11-08T12:00:00	5	Humedad	80
23373	7	Sololá	701	Sololá	1	Sololá	5	Mayo	2023-05-13T00:00:00	2024-11-08T12:00:00	6	Velocidad del viento	6.4
23374	7	Sololá	701	Sololá	1	Sololá	5	Mayo	2023-05-13T00:00:00	2024-11-08T12:00:00	7	Dirección del viento	6.44
23375	7	Sololá	701	Sololá	1	Sololá	5	Mayo	2023-05-13T00:00:00	2024-11-08T12:00:00	1	Precipitación	0
23376	7	Sololá	701	Sololá	1	Sololá	5	Mayo	2023-05-13T00:00:00	2024-11-08T12:00:00	8	Radiación solar	916
23377	7	Sololá	701	Sololá	1	Sololá	5	Mayo	2023-05-13T00:00:00	2024-11-08T13:00:00	2	Temperatura media	19.5
23378	7	Sololá	701	Sololá	1	Sololá	5	Mayo	2023-05-13T00:00:00	2024-11-08T13:00:00	4	Temperatura máxima	21.3
23379	7	Sololá	701	Sololá	1	Sololá	5	Mayo	2023-05-13T00:00:00	2024-11-08T13:00:00	3	Temperatura mínima	19.5
23380	7	Sololá	701	Sololá	1	Sololá	5	Mayo	2023-05-13T00:00:00	2024-11-08T13:00:00	5	Humedad	80
23381	7	Sololá	701	Sololá	1	Sololá	5	Mayo	2023-05-13T00:00:00	2024-11-08T13:00:00	6	Velocidad del viento	8
23382	7	Sololá	701	Sololá	1	Sololá	5	Mayo	2023-05-13T00:00:00	2024-11-08T13:00:00	7	Dirección del viento	8.05
23383	7	Sololá	701	Sololá	1	Sololá	5	Mayo	2023-05-13T00:00:00	2024-11-08T13:00:00	1	Precipitación	0
23384	7	Sololá	701	Sololá	1	Sololá	5	Mayo	2023-05-13T00:00:00	2024-11-08T13:00:00	8	Radiación solar	859
23385	7	Sololá	701	Sololá	1	Sololá	5	Mayo	2023-05-13T00:00:00	2024-11-08T14:00:00	2	Temperatura media	17.9
23386	7	Sololá	701	Sololá	1	Sololá	5	Mayo	2023-05-13T00:00:00	2024-11-08T14:00:00	4	Temperatura máxima	19.4
23387	7	Sololá	701	Sololá	1	Sololá	5	Mayo	2023-05-13T00:00:00	2024-11-08T14:00:00	3	Temperatura mínima	17.8
23388	7	Sololá	701	Sololá	1	Sololá	5	Mayo	2023-05-13T00:00:00	2024-11-08T14:00:00	5	Humedad	88
23389	7	Sololá	701	Sololá	1	Sololá	5	Mayo	2023-05-13T00:00:00	2024-11-08T14:00:00	6	Velocidad del viento	6.4
23390	7	Sololá	701	Sololá	1	Sololá	5	Mayo	2023-05-13T00:00:00	2024-11-08T14:00:00	7	Dirección del viento	6.44
23391	7	Sololá	701	Sololá	1	Sololá	5	Mayo	2023-05-13T00:00:00	2024-11-08T14:00:00	1	Precipitación	0
23392	7	Sololá	701	Sololá	1	Sololá	5	Mayo	2023-05-13T00:00:00	2024-11-08T14:00:00	8	Radiación solar	80
23393	7	Sololá	701	Sololá	1	Sololá	5	Mayo	2023-05-13T00:00:00	2024-11-08T15:00:00	2	Temperatura media	18.2
23394	7	Sololá	701	Sololá	1	Sololá	5	Mayo	2023-05-13T00:00:00	2024-11-08T15:00:00	4	Temperatura máxima	18.2
23395	7	Sololá	701	Sololá	1	Sololá	5	Mayo	2023-05-13T00:00:00	2024-11-08T15:00:00	3	Temperatura mínima	17.8
23396	7	Sololá	701	Sololá	1	Sololá	5	Mayo	2023-05-13T00:00:00	2024-11-08T15:00:00	5	Humedad	86
23397	7	Sololá	701	Sololá	1	Sololá	5	Mayo	2023-05-13T00:00:00	2024-11-08T15:00:00	6	Velocidad del viento	3.2
23398	7	Sololá	701	Sololá	1	Sololá	5	Mayo	2023-05-13T00:00:00	2024-11-08T15:00:00	7	Dirección del viento	3.22
23399	7	Sololá	701	Sololá	1	Sololá	5	Mayo	2023-05-13T00:00:00	2024-11-08T15:00:00	1	Precipitación	0
23400	7	Sololá	701	Sololá	1	Sololá	5	Mayo	2023-05-13T00:00:00	2024-11-08T15:00:00	8	Radiación solar	113
23401	7	Sololá	701	Sololá	1	Sololá	5	Mayo	2023-05-13T00:00:00	2024-11-08T16:00:00	2	Temperatura media	16.8
23402	7	Sololá	701	Sololá	1	Sololá	5	Mayo	2023-05-13T00:00:00	2024-11-08T16:00:00	4	Temperatura máxima	18.2
23403	7	Sololá	701	Sololá	1	Sololá	5	Mayo	2023-05-13T00:00:00	2024-11-08T16:00:00	3	Temperatura mínima	16.8
23404	7	Sololá	701	Sololá	1	Sololá	5	Mayo	2023-05-13T00:00:00	2024-11-08T16:00:00	5	Humedad	91
23405	7	Sololá	701	Sololá	1	Sololá	5	Mayo	2023-05-13T00:00:00	2024-11-08T16:00:00	6	Velocidad del viento	3.2
23406	7	Sololá	701	Sololá	1	Sololá	5	Mayo	2023-05-13T00:00:00	2024-11-08T16:00:00	7	Dirección del viento	3.22
23407	7	Sololá	701	Sololá	1	Sololá	5	Mayo	2023-05-13T00:00:00	2024-11-08T16:00:00	1	Precipitación	0
23408	7	Sololá	701	Sololá	1	Sololá	5	Mayo	2023-05-13T00:00:00	2024-11-08T16:00:00	8	Radiación solar	105
23409	7	Sololá	701	Sololá	1	Sololá	5	Mayo	2023-05-13T00:00:00	2024-11-08T17:00:00	2	Temperatura media	15.2
23410	7	Sololá	701	Sololá	1	Sololá	5	Mayo	2023-05-13T00:00:00	2024-11-08T17:00:00	4	Temperatura máxima	16.8
23411	7	Sololá	701	Sololá	1	Sololá	5	Mayo	2023-05-13T00:00:00	2024-11-08T17:00:00	3	Temperatura mínima	15.1
23412	7	Sololá	701	Sololá	1	Sololá	5	Mayo	2023-05-13T00:00:00	2024-11-08T17:00:00	5	Humedad	91
23413	7	Sololá	701	Sololá	1	Sololá	5	Mayo	2023-05-13T00:00:00	2024-11-08T17:00:00	6	Velocidad del viento	4.8
23414	7	Sololá	701	Sololá	1	Sololá	5	Mayo	2023-05-13T00:00:00	2024-11-08T17:00:00	7	Dirección del viento	4.83
23415	7	Sololá	701	Sololá	1	Sololá	5	Mayo	2023-05-13T00:00:00	2024-11-08T17:00:00	1	Precipitación	6.8
23416	7	Sololá	701	Sololá	1	Sololá	5	Mayo	2023-05-13T00:00:00	2024-11-08T17:00:00	8	Radiación solar	79
23417	7	Sololá	701	Sololá	1	Sololá	5	Mayo	2023-05-13T00:00:00	2024-11-08T18:00:00	2	Temperatura media	15.5
23418	7	Sololá	701	Sololá	1	Sololá	5	Mayo	2023-05-13T00:00:00	2024-11-08T18:00:00	4	Temperatura máxima	15.6
23419	7	Sololá	701	Sololá	1	Sololá	5	Mayo	2023-05-13T00:00:00	2024-11-08T18:00:00	3	Temperatura mínima	15.2
23420	7	Sololá	701	Sololá	1	Sololá	5	Mayo	2023-05-13T00:00:00	2024-11-08T18:00:00	5	Humedad	87
23421	7	Sololá	701	Sololá	1	Sololá	5	Mayo	2023-05-13T00:00:00	2024-11-08T18:00:00	6	Velocidad del viento	6.4
23422	7	Sololá	701	Sololá	1	Sololá	5	Mayo	2023-05-13T00:00:00	2024-11-08T18:00:00	7	Dirección del viento	6.44
23423	7	Sololá	701	Sololá	1	Sololá	5	Mayo	2023-05-13T00:00:00	2024-11-08T18:00:00	1	Precipitación	0
23424	7	Sololá	701	Sololá	1	Sololá	5	Mayo	2023-05-13T00:00:00	2024-11-08T18:00:00	8	Radiación solar	10
23425	7	Sololá	701	Sololá	1	Sololá	5	Mayo	2023-05-13T00:00:00	2024-11-08T19:00:00	2	Temperatura media	15.8
23426	7	Sololá	701	Sololá	1	Sololá	5	Mayo	2023-05-13T00:00:00	2024-11-08T19:00:00	4	Temperatura máxima	15.9
23427	7	Sololá	701	Sololá	1	Sololá	5	Mayo	2023-05-13T00:00:00	2024-11-08T19:00:00	3	Temperatura mínima	15.1
23428	7	Sololá	701	Sololá	1	Sololá	5	Mayo	2023-05-13T00:00:00	2024-11-08T19:00:00	5	Humedad	85
23429	7	Sololá	701	Sololá	1	Sololá	5	Mayo	2023-05-13T00:00:00	2024-11-08T19:00:00	6	Velocidad del viento	9.7
23430	7	Sololá	701	Sololá	1	Sololá	5	Mayo	2023-05-13T00:00:00	2024-11-08T19:00:00	7	Dirección del viento	9.66
23431	7	Sololá	701	Sololá	1	Sololá	5	Mayo	2023-05-13T00:00:00	2024-11-08T19:00:00	1	Precipitación	0.8
23432	7	Sololá	701	Sololá	1	Sololá	5	Mayo	2023-05-13T00:00:00	2024-11-08T19:00:00	8	Radiación solar	0
23433	7	Sololá	701	Sololá	1	Sololá	5	Mayo	2023-05-13T00:00:00	2024-11-08T20:00:00	2	Temperatura media	15.2
23434	7	Sololá	701	Sololá	1	Sololá	5	Mayo	2023-05-13T00:00:00	2024-11-08T20:00:00	4	Temperatura máxima	15.7
23435	7	Sololá	701	Sololá	1	Sololá	5	Mayo	2023-05-13T00:00:00	2024-11-08T20:00:00	3	Temperatura mínima	14.9
23436	7	Sololá	701	Sololá	1	Sololá	5	Mayo	2023-05-13T00:00:00	2024-11-08T20:00:00	5	Humedad	83
23437	7	Sololá	701	Sololá	1	Sololá	5	Mayo	2023-05-13T00:00:00	2024-11-08T20:00:00	6	Velocidad del viento	6.4
23438	7	Sololá	701	Sololá	1	Sololá	5	Mayo	2023-05-13T00:00:00	2024-11-08T20:00:00	7	Dirección del viento	6.44
23439	7	Sololá	701	Sololá	1	Sololá	5	Mayo	2023-05-13T00:00:00	2024-11-08T20:00:00	1	Precipitación	0
23440	7	Sololá	701	Sololá	1	Sololá	5	Mayo	2023-05-13T00:00:00	2024-11-08T20:00:00	8	Radiación solar	0
23441	7	Sololá	701	Sololá	1	Sololá	5	Mayo	2023-05-13T00:00:00	2024-11-08T21:00:00	2	Temperatura media	15.7
23442	7	Sololá	701	Sololá	1	Sololá	5	Mayo	2023-05-13T00:00:00	2024-11-08T21:00:00	4	Temperatura máxima	15.7
23443	7	Sololá	701	Sololá	1	Sololá	5	Mayo	2023-05-13T00:00:00	2024-11-08T21:00:00	3	Temperatura mínima	15.1
23444	7	Sololá	701	Sololá	1	Sololá	5	Mayo	2023-05-13T00:00:00	2024-11-08T21:00:00	5	Humedad	93
23445	7	Sololá	701	Sololá	1	Sololá	5	Mayo	2023-05-13T00:00:00	2024-11-08T21:00:00	6	Velocidad del viento	1.6
23446	7	Sololá	701	Sololá	1	Sololá	5	Mayo	2023-05-13T00:00:00	2024-11-08T21:00:00	7	Dirección del viento	1.61
23447	7	Sololá	701	Sololá	1	Sololá	5	Mayo	2023-05-13T00:00:00	2024-11-08T21:00:00	1	Precipitación	0
23448	7	Sololá	701	Sololá	1	Sololá	5	Mayo	2023-05-13T00:00:00	2024-11-08T21:00:00	8	Radiación solar	0
23449	7	Sololá	701	Sololá	1	Sololá	5	Mayo	2023-05-13T00:00:00	2024-11-08T22:00:00	2	Temperatura media	15.3
23450	7	Sololá	701	Sololá	1	Sololá	5	Mayo	2023-05-13T00:00:00	2024-11-08T22:00:00	4	Temperatura máxima	16
23451	7	Sololá	701	Sololá	1	Sololá	5	Mayo	2023-05-13T00:00:00	2024-11-08T22:00:00	3	Temperatura mínima	15.3
23452	7	Sololá	701	Sololá	1	Sololá	5	Mayo	2023-05-13T00:00:00	2024-11-08T22:00:00	5	Humedad	93
23453	7	Sololá	701	Sololá	1	Sololá	5	Mayo	2023-05-13T00:00:00	2024-11-08T22:00:00	6	Velocidad del viento	1.6
23454	7	Sololá	701	Sololá	1	Sololá	5	Mayo	2023-05-13T00:00:00	2024-11-08T22:00:00	7	Dirección del viento	1.61
23455	7	Sololá	701	Sololá	1	Sololá	5	Mayo	2023-05-13T00:00:00	2024-11-08T22:00:00	1	Precipitación	0
23456	7	Sololá	701	Sololá	1	Sololá	5	Mayo	2023-05-13T00:00:00	2024-11-08T22:00:00	8	Radiación solar	0
23457	7	Sololá	701	Sololá	1	Sololá	5	Mayo	2023-05-13T00:00:00	2024-11-08T23:00:00	2	Temperatura media	13.7
23458	7	Sololá	701	Sololá	1	Sololá	5	Mayo	2023-05-13T00:00:00	2024-11-08T23:00:00	4	Temperatura máxima	15.3
23459	7	Sololá	701	Sololá	1	Sololá	5	Mayo	2023-05-13T00:00:00	2024-11-08T23:00:00	3	Temperatura mínima	13.7
23460	7	Sololá	701	Sololá	1	Sololá	5	Mayo	2023-05-13T00:00:00	2024-11-08T23:00:00	5	Humedad	85
23461	7	Sololá	701	Sololá	1	Sololá	5	Mayo	2023-05-13T00:00:00	2024-11-08T23:00:00	6	Velocidad del viento	6.4
23462	7	Sololá	701	Sololá	1	Sololá	5	Mayo	2023-05-13T00:00:00	2024-11-08T23:00:00	7	Dirección del viento	6.44
23463	7	Sololá	701	Sololá	1	Sololá	5	Mayo	2023-05-13T00:00:00	2024-11-08T23:00:00	1	Precipitación	0
23464	7	Sololá	701	Sololá	1	Sololá	5	Mayo	2023-05-13T00:00:00	2024-11-08T23:00:00	8	Radiación solar	0
23465	7	Sololá	701	Sololá	1	Sololá	5	Mayo	2023-05-14T00:00:00	2024-11-08T00:00:00	2	Temperatura media	14.1
23466	7	Sololá	701	Sololá	1	Sololá	5	Mayo	2023-05-14T00:00:00	2024-11-08T00:00:00	4	Temperatura máxima	14.2
23467	7	Sololá	701	Sololá	1	Sololá	5	Mayo	2023-05-14T00:00:00	2024-11-08T00:00:00	3	Temperatura mínima	13.7
23468	7	Sololá	701	Sololá	1	Sololá	5	Mayo	2023-05-14T00:00:00	2024-11-08T00:00:00	5	Humedad	83
23469	7	Sololá	701	Sololá	1	Sololá	5	Mayo	2023-05-14T00:00:00	2024-11-08T00:00:00	6	Velocidad del viento	6.4
23470	7	Sololá	701	Sololá	1	Sololá	5	Mayo	2023-05-14T00:00:00	2024-11-08T00:00:00	7	Dirección del viento	6.44
23471	7	Sololá	701	Sololá	1	Sololá	5	Mayo	2023-05-14T00:00:00	2024-11-08T00:00:00	1	Precipitación	0
23472	7	Sololá	701	Sololá	1	Sololá	5	Mayo	2023-05-14T00:00:00	2024-11-08T00:00:00	8	Radiación solar	0
23473	7	Sololá	701	Sololá	1	Sololá	5	Mayo	2023-05-14T00:00:00	2024-11-08T01:00:00	2	Temperatura media	13.9
23474	7	Sololá	701	Sololá	1	Sololá	5	Mayo	2023-05-14T00:00:00	2024-11-08T01:00:00	4	Temperatura máxima	14.1
23475	7	Sololá	701	Sololá	1	Sololá	5	Mayo	2023-05-14T00:00:00	2024-11-08T01:00:00	3	Temperatura mínima	13.5
23476	7	Sololá	701	Sololá	1	Sololá	5	Mayo	2023-05-14T00:00:00	2024-11-08T01:00:00	5	Humedad	85
23477	7	Sololá	701	Sololá	1	Sololá	5	Mayo	2023-05-14T00:00:00	2024-11-08T01:00:00	6	Velocidad del viento	3.2
23478	7	Sololá	701	Sololá	1	Sololá	5	Mayo	2023-05-14T00:00:00	2024-11-08T01:00:00	7	Dirección del viento	3.22
23479	7	Sololá	701	Sololá	1	Sololá	5	Mayo	2023-05-14T00:00:00	2024-11-08T01:00:00	1	Precipitación	0
23480	7	Sololá	701	Sololá	1	Sololá	5	Mayo	2023-05-14T00:00:00	2024-11-08T01:00:00	8	Radiación solar	0
23481	7	Sololá	701	Sololá	1	Sololá	5	Mayo	2023-05-14T00:00:00	2024-11-08T02:00:00	2	Temperatura media	14.8
23482	7	Sololá	701	Sololá	1	Sololá	5	Mayo	2023-05-14T00:00:00	2024-11-08T02:00:00	4	Temperatura máxima	15
23483	7	Sololá	701	Sololá	1	Sololá	5	Mayo	2023-05-14T00:00:00	2024-11-08T02:00:00	3	Temperatura mínima	13.9
23484	7	Sololá	701	Sololá	1	Sololá	5	Mayo	2023-05-14T00:00:00	2024-11-08T02:00:00	5	Humedad	82
23485	7	Sololá	701	Sololá	1	Sololá	5	Mayo	2023-05-14T00:00:00	2024-11-08T02:00:00	6	Velocidad del viento	3.2
23486	7	Sololá	701	Sololá	1	Sololá	5	Mayo	2023-05-14T00:00:00	2024-11-08T02:00:00	7	Dirección del viento	3.22
23487	7	Sololá	701	Sololá	1	Sololá	5	Mayo	2023-05-14T00:00:00	2024-11-08T02:00:00	1	Precipitación	0
23488	7	Sololá	701	Sololá	1	Sololá	5	Mayo	2023-05-14T00:00:00	2024-11-08T02:00:00	8	Radiación solar	0
23489	7	Sololá	701	Sololá	1	Sololá	5	Mayo	2023-05-14T00:00:00	2024-11-08T03:00:00	2	Temperatura media	14
23490	7	Sololá	701	Sololá	1	Sololá	5	Mayo	2023-05-14T00:00:00	2024-11-08T03:00:00	4	Temperatura máxima	14.8
23491	7	Sololá	701	Sololá	1	Sololá	5	Mayo	2023-05-14T00:00:00	2024-11-08T03:00:00	3	Temperatura mínima	13.7
23492	7	Sololá	701	Sololá	1	Sololá	5	Mayo	2023-05-14T00:00:00	2024-11-08T03:00:00	5	Humedad	87
23493	7	Sololá	701	Sololá	1	Sololá	5	Mayo	2023-05-14T00:00:00	2024-11-08T03:00:00	6	Velocidad del viento	3.2
23494	7	Sololá	701	Sololá	1	Sololá	5	Mayo	2023-05-14T00:00:00	2024-11-08T03:00:00	7	Dirección del viento	3.22
23495	7	Sololá	701	Sololá	1	Sololá	5	Mayo	2023-05-14T00:00:00	2024-11-08T03:00:00	1	Precipitación	0
23496	7	Sololá	701	Sololá	1	Sololá	5	Mayo	2023-05-14T00:00:00	2024-11-08T03:00:00	8	Radiación solar	0
23497	7	Sololá	701	Sololá	1	Sololá	5	Mayo	2023-05-14T00:00:00	2024-11-08T04:00:00	2	Temperatura media	13.9
23498	7	Sololá	701	Sololá	1	Sololá	5	Mayo	2023-05-14T00:00:00	2024-11-08T04:00:00	4	Temperatura máxima	14.8
23499	7	Sololá	701	Sololá	1	Sololá	5	Mayo	2023-05-14T00:00:00	2024-11-08T04:00:00	3	Temperatura mínima	13.8
23500	7	Sololá	701	Sololá	1	Sololá	5	Mayo	2023-05-14T00:00:00	2024-11-08T04:00:00	5	Humedad	90
23501	7	Sololá	701	Sololá	1	Sololá	5	Mayo	2023-05-14T00:00:00	2024-11-08T04:00:00	6	Velocidad del viento	3.2
23502	7	Sololá	701	Sololá	1	Sololá	5	Mayo	2023-05-14T00:00:00	2024-11-08T04:00:00	7	Dirección del viento	3.22
23503	7	Sololá	701	Sololá	1	Sololá	5	Mayo	2023-05-14T00:00:00	2024-11-08T04:00:00	1	Precipitación	0.8
23504	7	Sololá	701	Sololá	1	Sololá	5	Mayo	2023-05-14T00:00:00	2024-11-08T04:00:00	8	Radiación solar	0
23505	7	Sololá	701	Sololá	1	Sololá	5	Mayo	2023-05-14T00:00:00	2024-11-08T05:00:00	2	Temperatura media	13.6
23506	7	Sololá	701	Sololá	1	Sololá	5	Mayo	2023-05-14T00:00:00	2024-11-08T05:00:00	4	Temperatura máxima	14.8
23507	7	Sololá	701	Sololá	1	Sololá	5	Mayo	2023-05-14T00:00:00	2024-11-08T05:00:00	3	Temperatura mínima	13.6
23508	7	Sololá	701	Sololá	1	Sololá	5	Mayo	2023-05-14T00:00:00	2024-11-08T05:00:00	5	Humedad	85
23509	7	Sololá	701	Sololá	1	Sololá	5	Mayo	2023-05-14T00:00:00	2024-11-08T05:00:00	6	Velocidad del viento	16.1
23510	7	Sololá	701	Sololá	1	Sololá	5	Mayo	2023-05-14T00:00:00	2024-11-08T05:00:00	7	Dirección del viento	16.09
23511	7	Sololá	701	Sololá	1	Sololá	5	Mayo	2023-05-14T00:00:00	2024-11-08T05:00:00	1	Precipitación	0.4
23512	7	Sololá	701	Sololá	1	Sololá	5	Mayo	2023-05-14T00:00:00	2024-11-08T05:00:00	8	Radiación solar	0
23513	7	Sololá	701	Sololá	1	Sololá	5	Mayo	2023-05-14T00:00:00	2024-11-08T06:00:00	2	Temperatura media	14.1
23514	7	Sololá	701	Sololá	1	Sololá	5	Mayo	2023-05-14T00:00:00	2024-11-08T06:00:00	4	Temperatura máxima	14.1
23515	7	Sololá	701	Sololá	1	Sololá	5	Mayo	2023-05-14T00:00:00	2024-11-08T06:00:00	3	Temperatura mínima	13.5
23516	7	Sololá	701	Sololá	1	Sololá	5	Mayo	2023-05-14T00:00:00	2024-11-08T06:00:00	5	Humedad	83
23517	7	Sololá	701	Sololá	1	Sololá	5	Mayo	2023-05-14T00:00:00	2024-11-08T06:00:00	6	Velocidad del viento	9.7
23518	7	Sololá	701	Sololá	1	Sololá	5	Mayo	2023-05-14T00:00:00	2024-11-08T06:00:00	7	Dirección del viento	9.66
23519	7	Sololá	701	Sololá	1	Sololá	5	Mayo	2023-05-14T00:00:00	2024-11-08T06:00:00	1	Precipitación	0.4
23520	7	Sololá	701	Sololá	1	Sololá	5	Mayo	2023-05-14T00:00:00	2024-11-08T06:00:00	8	Radiación solar	3
23521	7	Sololá	701	Sololá	1	Sololá	5	Mayo	2023-05-14T00:00:00	2024-11-08T07:00:00	2	Temperatura media	14.1
23522	7	Sololá	701	Sololá	1	Sololá	5	Mayo	2023-05-14T00:00:00	2024-11-08T07:00:00	4	Temperatura máxima	14.5
23523	7	Sololá	701	Sololá	1	Sololá	5	Mayo	2023-05-14T00:00:00	2024-11-08T07:00:00	3	Temperatura mínima	14
23524	7	Sololá	701	Sololá	1	Sololá	5	Mayo	2023-05-14T00:00:00	2024-11-08T07:00:00	5	Humedad	84
23525	7	Sololá	701	Sololá	1	Sololá	5	Mayo	2023-05-14T00:00:00	2024-11-08T07:00:00	6	Velocidad del viento	3.2
23526	7	Sololá	701	Sololá	1	Sololá	5	Mayo	2023-05-14T00:00:00	2024-11-08T07:00:00	7	Dirección del viento	3.22
23527	7	Sololá	701	Sololá	1	Sololá	5	Mayo	2023-05-14T00:00:00	2024-11-08T07:00:00	1	Precipitación	0
23528	7	Sololá	701	Sololá	1	Sololá	5	Mayo	2023-05-14T00:00:00	2024-11-08T07:00:00	8	Radiación solar	50
23529	7	Sololá	701	Sololá	1	Sololá	5	Mayo	2023-05-14T00:00:00	2024-11-08T08:00:00	2	Temperatura media	15.8
23530	7	Sololá	701	Sololá	1	Sololá	5	Mayo	2023-05-14T00:00:00	2024-11-08T08:00:00	4	Temperatura máxima	15.8
23531	7	Sololá	701	Sololá	1	Sololá	5	Mayo	2023-05-14T00:00:00	2024-11-08T08:00:00	3	Temperatura mínima	14.1
23532	7	Sololá	701	Sololá	1	Sololá	5	Mayo	2023-05-14T00:00:00	2024-11-08T08:00:00	5	Humedad	77
23533	7	Sololá	701	Sololá	1	Sololá	5	Mayo	2023-05-14T00:00:00	2024-11-08T08:00:00	6	Velocidad del viento	4.8
23534	7	Sololá	701	Sololá	1	Sololá	5	Mayo	2023-05-14T00:00:00	2024-11-08T08:00:00	7	Dirección del viento	4.83
23535	7	Sololá	701	Sololá	1	Sololá	5	Mayo	2023-05-14T00:00:00	2024-11-08T08:00:00	1	Precipitación	0
23536	7	Sololá	701	Sololá	1	Sololá	5	Mayo	2023-05-14T00:00:00	2024-11-08T08:00:00	8	Radiación solar	100
23537	7	Sololá	701	Sololá	1	Sololá	5	Mayo	2023-05-14T00:00:00	2024-11-08T09:00:00	2	Temperatura media	20.1
23538	7	Sololá	701	Sololá	1	Sololá	5	Mayo	2023-05-14T00:00:00	2024-11-08T09:00:00	4	Temperatura máxima	20.1
23539	7	Sololá	701	Sololá	1	Sololá	5	Mayo	2023-05-14T00:00:00	2024-11-08T09:00:00	3	Temperatura mínima	15.7
23540	7	Sololá	701	Sololá	1	Sololá	5	Mayo	2023-05-14T00:00:00	2024-11-08T09:00:00	5	Humedad	63
23541	7	Sololá	701	Sololá	1	Sololá	5	Mayo	2023-05-14T00:00:00	2024-11-08T09:00:00	6	Velocidad del viento	4.8
23542	7	Sololá	701	Sololá	1	Sololá	5	Mayo	2023-05-14T00:00:00	2024-11-08T09:00:00	7	Dirección del viento	4.83
23543	7	Sololá	701	Sololá	1	Sololá	5	Mayo	2023-05-14T00:00:00	2024-11-08T09:00:00	1	Precipitación	0
23544	7	Sololá	701	Sololá	1	Sololá	5	Mayo	2023-05-14T00:00:00	2024-11-08T09:00:00	8	Radiación solar	507
23545	7	Sololá	701	Sololá	1	Sololá	5	Mayo	2023-05-14T00:00:00	2024-11-08T10:00:00	2	Temperatura media	17.8
23546	7	Sololá	701	Sololá	1	Sololá	5	Mayo	2023-05-14T00:00:00	2024-11-08T10:00:00	4	Temperatura máxima	20.4
23547	7	Sololá	701	Sololá	1	Sololá	5	Mayo	2023-05-14T00:00:00	2024-11-08T10:00:00	3	Temperatura mínima	17.7
23548	7	Sololá	701	Sololá	1	Sololá	5	Mayo	2023-05-14T00:00:00	2024-11-08T10:00:00	5	Humedad	73
23549	7	Sololá	701	Sololá	1	Sololá	5	Mayo	2023-05-14T00:00:00	2024-11-08T10:00:00	6	Velocidad del viento	4.8
23550	7	Sololá	701	Sololá	1	Sololá	5	Mayo	2023-05-14T00:00:00	2024-11-08T10:00:00	7	Dirección del viento	4.83
23551	7	Sololá	701	Sololá	1	Sololá	5	Mayo	2023-05-14T00:00:00	2024-11-08T10:00:00	1	Precipitación	0
23552	7	Sololá	701	Sololá	1	Sololá	5	Mayo	2023-05-14T00:00:00	2024-11-08T10:00:00	8	Radiación solar	741
23553	7	Sololá	701	Sololá	1	Sololá	5	Mayo	2023-05-14T00:00:00	2024-11-08T11:00:00	2	Temperatura media	20.2
23554	7	Sololá	701	Sololá	1	Sololá	5	Mayo	2023-05-14T00:00:00	2024-11-08T11:00:00	4	Temperatura máxima	20.2
23555	7	Sololá	701	Sololá	1	Sololá	5	Mayo	2023-05-14T00:00:00	2024-11-08T11:00:00	3	Temperatura mínima	17.7
23556	7	Sololá	701	Sololá	1	Sololá	5	Mayo	2023-05-14T00:00:00	2024-11-08T11:00:00	5	Humedad	62
23557	7	Sololá	701	Sololá	1	Sololá	5	Mayo	2023-05-14T00:00:00	2024-11-08T11:00:00	6	Velocidad del viento	3.2
23558	7	Sololá	701	Sololá	1	Sololá	5	Mayo	2023-05-14T00:00:00	2024-11-08T11:00:00	7	Dirección del viento	3.22
23559	7	Sololá	701	Sololá	1	Sololá	5	Mayo	2023-05-14T00:00:00	2024-11-08T11:00:00	1	Precipitación	0
23560	7	Sololá	701	Sololá	1	Sololá	5	Mayo	2023-05-14T00:00:00	2024-11-08T11:00:00	8	Radiación solar	887
23561	7	Sololá	701	Sololá	1	Sololá	5	Mayo	2023-05-14T00:00:00	2024-11-08T12:00:00	2	Temperatura media	20.6
23562	7	Sololá	701	Sololá	1	Sololá	5	Mayo	2023-05-14T00:00:00	2024-11-08T12:00:00	4	Temperatura máxima	20.6
23563	7	Sololá	701	Sololá	1	Sololá	5	Mayo	2023-05-14T00:00:00	2024-11-08T12:00:00	3	Temperatura mínima	19.5
23564	7	Sololá	701	Sololá	1	Sololá	5	Mayo	2023-05-14T00:00:00	2024-11-08T12:00:00	5	Humedad	61
23565	7	Sololá	701	Sololá	1	Sololá	5	Mayo	2023-05-14T00:00:00	2024-11-08T12:00:00	6	Velocidad del viento	4.8
23566	7	Sololá	701	Sololá	1	Sololá	5	Mayo	2023-05-14T00:00:00	2024-11-08T12:00:00	7	Dirección del viento	4.83
23567	7	Sololá	701	Sololá	1	Sololá	5	Mayo	2023-05-14T00:00:00	2024-11-08T12:00:00	1	Precipitación	0
23568	7	Sololá	701	Sololá	1	Sololá	5	Mayo	2023-05-14T00:00:00	2024-11-08T12:00:00	8	Radiación solar	601
23569	7	Sololá	701	Sololá	1	Sololá	5	Mayo	2023-05-14T00:00:00	2024-11-08T13:00:00	2	Temperatura media	21.2
23570	7	Sololá	701	Sololá	1	Sololá	5	Mayo	2023-05-14T00:00:00	2024-11-08T13:00:00	4	Temperatura máxima	21.2
23571	7	Sololá	701	Sololá	1	Sololá	5	Mayo	2023-05-14T00:00:00	2024-11-08T13:00:00	3	Temperatura mínima	20.6
23572	7	Sololá	701	Sololá	1	Sololá	5	Mayo	2023-05-14T00:00:00	2024-11-08T13:00:00	5	Humedad	62
23573	7	Sololá	701	Sololá	1	Sololá	5	Mayo	2023-05-14T00:00:00	2024-11-08T13:00:00	6	Velocidad del viento	4.8
23574	7	Sololá	701	Sololá	1	Sololá	5	Mayo	2023-05-14T00:00:00	2024-11-08T13:00:00	7	Dirección del viento	4.83
23575	7	Sololá	701	Sololá	1	Sololá	5	Mayo	2023-05-14T00:00:00	2024-11-08T13:00:00	1	Precipitación	0
23576	7	Sololá	701	Sololá	1	Sololá	5	Mayo	2023-05-14T00:00:00	2024-11-08T13:00:00	8	Radiación solar	258
23577	7	Sololá	701	Sololá	1	Sololá	5	Mayo	2023-05-14T00:00:00	2024-11-08T14:00:00	2	Temperatura media	20.6
23578	7	Sololá	701	Sololá	1	Sololá	5	Mayo	2023-05-14T00:00:00	2024-11-08T14:00:00	4	Temperatura máxima	21.2
23579	7	Sololá	701	Sololá	1	Sololá	5	Mayo	2023-05-14T00:00:00	2024-11-08T14:00:00	3	Temperatura mínima	20.6
23580	7	Sololá	701	Sololá	1	Sololá	5	Mayo	2023-05-14T00:00:00	2024-11-08T14:00:00	5	Humedad	68
23581	7	Sololá	701	Sololá	1	Sololá	5	Mayo	2023-05-14T00:00:00	2024-11-08T14:00:00	6	Velocidad del viento	4.8
23582	7	Sololá	701	Sololá	1	Sololá	5	Mayo	2023-05-14T00:00:00	2024-11-08T14:00:00	7	Dirección del viento	4.83
23583	7	Sololá	701	Sololá	1	Sololá	5	Mayo	2023-05-14T00:00:00	2024-11-08T14:00:00	1	Precipitación	0
23584	7	Sololá	701	Sololá	1	Sololá	5	Mayo	2023-05-14T00:00:00	2024-11-08T14:00:00	8	Radiación solar	231
23585	7	Sololá	701	Sololá	1	Sololá	5	Mayo	2023-05-14T00:00:00	2024-11-08T15:00:00	2	Temperatura media	21.4
23586	7	Sololá	701	Sololá	1	Sololá	5	Mayo	2023-05-14T00:00:00	2024-11-08T15:00:00	4	Temperatura máxima	21.4
23587	7	Sololá	701	Sololá	1	Sololá	5	Mayo	2023-05-14T00:00:00	2024-11-08T15:00:00	3	Temperatura mínima	20.3
23588	7	Sololá	701	Sololá	1	Sololá	5	Mayo	2023-05-14T00:00:00	2024-11-08T15:00:00	5	Humedad	67
23589	7	Sololá	701	Sololá	1	Sololá	5	Mayo	2023-05-14T00:00:00	2024-11-08T15:00:00	6	Velocidad del viento	6.4
23590	7	Sololá	701	Sololá	1	Sololá	5	Mayo	2023-05-14T00:00:00	2024-11-08T15:00:00	7	Dirección del viento	6.44
23591	7	Sololá	701	Sololá	1	Sololá	5	Mayo	2023-05-14T00:00:00	2024-11-08T15:00:00	1	Precipitación	0
23592	7	Sololá	701	Sololá	1	Sololá	5	Mayo	2023-05-14T00:00:00	2024-11-08T15:00:00	8	Radiación solar	343
23593	7	Sololá	701	Sololá	1	Sololá	5	Mayo	2023-05-14T00:00:00	2024-11-08T16:00:00	2	Temperatura media	21.3
23594	7	Sololá	701	Sololá	1	Sololá	5	Mayo	2023-05-14T00:00:00	2024-11-08T16:00:00	4	Temperatura máxima	21.4
23595	7	Sololá	701	Sololá	1	Sololá	5	Mayo	2023-05-14T00:00:00	2024-11-08T16:00:00	3	Temperatura mínima	20.8
23596	7	Sololá	701	Sololá	1	Sololá	5	Mayo	2023-05-14T00:00:00	2024-11-08T16:00:00	5	Humedad	66
23597	7	Sololá	701	Sololá	1	Sololá	5	Mayo	2023-05-14T00:00:00	2024-11-08T16:00:00	6	Velocidad del viento	3.2
23598	7	Sololá	701	Sololá	1	Sololá	5	Mayo	2023-05-14T00:00:00	2024-11-08T16:00:00	7	Dirección del viento	3.22
23599	7	Sololá	701	Sololá	1	Sololá	5	Mayo	2023-05-14T00:00:00	2024-11-08T16:00:00	1	Precipitación	0
23600	7	Sololá	701	Sololá	1	Sololá	5	Mayo	2023-05-14T00:00:00	2024-11-08T16:00:00	8	Radiación solar	145
23601	7	Sololá	701	Sololá	1	Sololá	5	Mayo	2023-05-14T00:00:00	2024-11-08T17:00:00	2	Temperatura media	20
23602	7	Sololá	701	Sololá	1	Sololá	5	Mayo	2023-05-14T00:00:00	2024-11-08T17:00:00	4	Temperatura máxima	21.4
23603	7	Sololá	701	Sololá	1	Sololá	5	Mayo	2023-05-14T00:00:00	2024-11-08T17:00:00	3	Temperatura mínima	19.9
23604	7	Sololá	701	Sololá	1	Sololá	5	Mayo	2023-05-14T00:00:00	2024-11-08T17:00:00	5	Humedad	74
23605	7	Sololá	701	Sololá	1	Sololá	5	Mayo	2023-05-14T00:00:00	2024-11-08T17:00:00	6	Velocidad del viento	3.2
23606	7	Sololá	701	Sololá	1	Sololá	5	Mayo	2023-05-14T00:00:00	2024-11-08T17:00:00	7	Dirección del viento	3.22
23607	7	Sololá	701	Sololá	1	Sololá	5	Mayo	2023-05-14T00:00:00	2024-11-08T17:00:00	1	Precipitación	0
23608	7	Sololá	701	Sololá	1	Sololá	5	Mayo	2023-05-14T00:00:00	2024-11-08T17:00:00	8	Radiación solar	98
23609	7	Sololá	701	Sololá	1	Sololá	5	Mayo	2023-05-14T00:00:00	2024-11-08T18:00:00	2	Temperatura media	18.8
23610	7	Sololá	701	Sololá	1	Sololá	5	Mayo	2023-05-14T00:00:00	2024-11-08T18:00:00	4	Temperatura máxima	20
23611	7	Sololá	701	Sololá	1	Sololá	5	Mayo	2023-05-14T00:00:00	2024-11-08T18:00:00	3	Temperatura mínima	18.8
23612	7	Sololá	701	Sololá	1	Sololá	5	Mayo	2023-05-14T00:00:00	2024-11-08T18:00:00	5	Humedad	86
23613	7	Sololá	701	Sololá	1	Sololá	5	Mayo	2023-05-14T00:00:00	2024-11-08T18:00:00	6	Velocidad del viento	1.6
23614	7	Sololá	701	Sololá	1	Sololá	5	Mayo	2023-05-14T00:00:00	2024-11-08T18:00:00	7	Dirección del viento	1.61
23615	7	Sololá	701	Sololá	1	Sololá	5	Mayo	2023-05-14T00:00:00	2024-11-08T18:00:00	1	Precipitación	0
23616	7	Sololá	701	Sololá	1	Sololá	5	Mayo	2023-05-14T00:00:00	2024-11-08T18:00:00	8	Radiación solar	28
23617	7	Sololá	701	Sololá	1	Sololá	5	Mayo	2023-05-14T00:00:00	2024-11-08T19:00:00	2	Temperatura media	17.4
23618	7	Sololá	701	Sololá	1	Sololá	5	Mayo	2023-05-14T00:00:00	2024-11-08T19:00:00	4	Temperatura máxima	18.8
23619	7	Sololá	701	Sololá	1	Sololá	5	Mayo	2023-05-14T00:00:00	2024-11-08T19:00:00	3	Temperatura mínima	17.4
23620	7	Sololá	701	Sololá	1	Sololá	5	Mayo	2023-05-14T00:00:00	2024-11-08T19:00:00	5	Humedad	92
23621	7	Sololá	701	Sololá	1	Sololá	5	Mayo	2023-05-14T00:00:00	2024-11-08T19:00:00	6	Velocidad del viento	1.6
23622	7	Sololá	701	Sololá	1	Sololá	5	Mayo	2023-05-14T00:00:00	2024-11-08T19:00:00	7	Dirección del viento	1.61
23623	7	Sololá	701	Sololá	1	Sololá	5	Mayo	2023-05-14T00:00:00	2024-11-08T19:00:00	1	Precipitación	0.2
23624	7	Sololá	701	Sololá	1	Sololá	5	Mayo	2023-05-14T00:00:00	2024-11-08T19:00:00	8	Radiación solar	0
23625	7	Sololá	701	Sololá	1	Sololá	5	Mayo	2023-05-14T00:00:00	2024-11-08T20:00:00	2	Temperatura media	17.2
23626	7	Sololá	701	Sololá	1	Sololá	5	Mayo	2023-05-14T00:00:00	2024-11-08T20:00:00	4	Temperatura máxima	17.4
23627	7	Sololá	701	Sololá	1	Sololá	5	Mayo	2023-05-14T00:00:00	2024-11-08T20:00:00	3	Temperatura mínima	17.1
23628	7	Sololá	701	Sololá	1	Sololá	5	Mayo	2023-05-14T00:00:00	2024-11-08T20:00:00	5	Humedad	86
23629	7	Sololá	701	Sololá	1	Sololá	5	Mayo	2023-05-14T00:00:00	2024-11-08T20:00:00	6	Velocidad del viento	4.8
23630	7	Sololá	701	Sololá	1	Sololá	5	Mayo	2023-05-14T00:00:00	2024-11-08T20:00:00	7	Dirección del viento	4.83
23631	7	Sololá	701	Sololá	1	Sololá	5	Mayo	2023-05-14T00:00:00	2024-11-08T20:00:00	1	Precipitación	0
23632	7	Sololá	701	Sololá	1	Sololá	5	Mayo	2023-05-14T00:00:00	2024-11-08T20:00:00	8	Radiación solar	0
23633	7	Sololá	701	Sololá	1	Sololá	5	Mayo	2023-05-14T00:00:00	2024-11-08T21:00:00	2	Temperatura media	16.3
23634	7	Sololá	701	Sololá	1	Sololá	5	Mayo	2023-05-14T00:00:00	2024-11-08T21:00:00	4	Temperatura máxima	17.2
23635	7	Sololá	701	Sololá	1	Sololá	5	Mayo	2023-05-14T00:00:00	2024-11-08T21:00:00	3	Temperatura mínima	16.3
23636	7	Sololá	701	Sololá	1	Sololá	5	Mayo	2023-05-14T00:00:00	2024-11-08T21:00:00	5	Humedad	86
23637	7	Sololá	701	Sololá	1	Sololá	5	Mayo	2023-05-14T00:00:00	2024-11-08T21:00:00	6	Velocidad del viento	6.4
23638	7	Sololá	701	Sololá	1	Sololá	5	Mayo	2023-05-14T00:00:00	2024-11-08T21:00:00	7	Dirección del viento	6.44
23639	7	Sololá	701	Sololá	1	Sololá	5	Mayo	2023-05-14T00:00:00	2024-11-08T21:00:00	1	Precipitación	0
23640	7	Sololá	701	Sololá	1	Sololá	5	Mayo	2023-05-14T00:00:00	2024-11-08T21:00:00	8	Radiación solar	0
23641	7	Sololá	701	Sololá	1	Sololá	5	Mayo	2023-05-14T00:00:00	2024-11-08T22:00:00	2	Temperatura media	16.7
23642	7	Sololá	701	Sololá	1	Sololá	5	Mayo	2023-05-14T00:00:00	2024-11-08T22:00:00	4	Temperatura máxima	16.9
23643	7	Sololá	701	Sololá	1	Sololá	5	Mayo	2023-05-14T00:00:00	2024-11-08T22:00:00	3	Temperatura mínima	16.1
23644	7	Sololá	701	Sololá	1	Sololá	5	Mayo	2023-05-14T00:00:00	2024-11-08T22:00:00	5	Humedad	82
23645	7	Sololá	701	Sololá	1	Sololá	5	Mayo	2023-05-14T00:00:00	2024-11-08T22:00:00	6	Velocidad del viento	6.4
23646	7	Sololá	701	Sololá	1	Sololá	5	Mayo	2023-05-14T00:00:00	2024-11-08T22:00:00	7	Dirección del viento	6.44
23647	7	Sololá	701	Sololá	1	Sololá	5	Mayo	2023-05-14T00:00:00	2024-11-08T22:00:00	1	Precipitación	0
23648	7	Sololá	701	Sololá	1	Sololá	5	Mayo	2023-05-14T00:00:00	2024-11-08T22:00:00	8	Radiación solar	0
23649	7	Sololá	701	Sololá	1	Sololá	5	Mayo	2023-05-14T00:00:00	2024-11-08T23:00:00	2	Temperatura media	15.9
23650	7	Sololá	701	Sololá	1	Sololá	5	Mayo	2023-05-14T00:00:00	2024-11-08T23:00:00	4	Temperatura máxima	16.7
23651	7	Sololá	701	Sololá	1	Sololá	5	Mayo	2023-05-14T00:00:00	2024-11-08T23:00:00	3	Temperatura mínima	15.6
23652	7	Sololá	701	Sololá	1	Sololá	5	Mayo	2023-05-14T00:00:00	2024-11-08T23:00:00	5	Humedad	79
23653	7	Sololá	701	Sololá	1	Sololá	5	Mayo	2023-05-14T00:00:00	2024-11-08T23:00:00	6	Velocidad del viento	4.8
23654	7	Sololá	701	Sololá	1	Sololá	5	Mayo	2023-05-14T00:00:00	2024-11-08T23:00:00	7	Dirección del viento	4.83
23655	7	Sololá	701	Sololá	1	Sololá	5	Mayo	2023-05-14T00:00:00	2024-11-08T23:00:00	1	Precipitación	0
23656	7	Sololá	701	Sololá	1	Sololá	5	Mayo	2023-05-14T00:00:00	2024-11-08T23:00:00	8	Radiación solar	0
23657	7	Sololá	701	Sololá	1	Sololá	5	Mayo	2023-05-15T00:00:00	2024-11-08T00:00:00	2	Temperatura media	16.2
23658	7	Sololá	701	Sololá	1	Sololá	5	Mayo	2023-05-15T00:00:00	2024-11-08T00:00:00	4	Temperatura máxima	16.3
23659	7	Sololá	701	Sololá	1	Sololá	5	Mayo	2023-05-15T00:00:00	2024-11-08T00:00:00	3	Temperatura mínima	15.3
23660	7	Sololá	701	Sololá	1	Sololá	5	Mayo	2023-05-15T00:00:00	2024-11-08T00:00:00	5	Humedad	79
23661	7	Sololá	701	Sololá	1	Sololá	5	Mayo	2023-05-15T00:00:00	2024-11-08T00:00:00	6	Velocidad del viento	6.4
23662	7	Sololá	701	Sololá	1	Sololá	5	Mayo	2023-05-15T00:00:00	2024-11-08T00:00:00	7	Dirección del viento	6.44
23663	7	Sololá	701	Sololá	1	Sololá	5	Mayo	2023-05-15T00:00:00	2024-11-08T00:00:00	1	Precipitación	0
23664	7	Sololá	701	Sololá	1	Sololá	5	Mayo	2023-05-15T00:00:00	2024-11-08T00:00:00	8	Radiación solar	0
23665	7	Sololá	701	Sololá	1	Sololá	5	Mayo	2023-05-15T00:00:00	2024-11-08T01:00:00	2	Temperatura media	16.1
23666	7	Sololá	701	Sololá	1	Sololá	5	Mayo	2023-05-15T00:00:00	2024-11-08T01:00:00	4	Temperatura máxima	16.2
23667	7	Sololá	701	Sololá	1	Sololá	5	Mayo	2023-05-15T00:00:00	2024-11-08T01:00:00	3	Temperatura mínima	16.1
23668	7	Sololá	701	Sololá	1	Sololá	5	Mayo	2023-05-15T00:00:00	2024-11-08T01:00:00	5	Humedad	81
23669	7	Sololá	701	Sololá	1	Sololá	5	Mayo	2023-05-15T00:00:00	2024-11-08T01:00:00	6	Velocidad del viento	11.3
23670	7	Sololá	701	Sololá	1	Sololá	5	Mayo	2023-05-15T00:00:00	2024-11-08T01:00:00	7	Dirección del viento	11.27
23671	7	Sololá	701	Sololá	1	Sololá	5	Mayo	2023-05-15T00:00:00	2024-11-08T01:00:00	1	Precipitación	0
23672	7	Sololá	701	Sololá	1	Sololá	5	Mayo	2023-05-15T00:00:00	2024-11-08T01:00:00	8	Radiación solar	0
23673	7	Sololá	701	Sololá	1	Sololá	5	Mayo	2023-05-15T00:00:00	2024-11-08T02:00:00	2	Temperatura media	15.5
23674	7	Sololá	701	Sololá	1	Sololá	5	Mayo	2023-05-15T00:00:00	2024-11-08T02:00:00	4	Temperatura máxima	16.2
23675	7	Sololá	701	Sololá	1	Sololá	5	Mayo	2023-05-15T00:00:00	2024-11-08T02:00:00	3	Temperatura mínima	15.5
23676	7	Sololá	701	Sololá	1	Sololá	5	Mayo	2023-05-15T00:00:00	2024-11-08T02:00:00	5	Humedad	81
23677	7	Sololá	701	Sololá	1	Sololá	5	Mayo	2023-05-15T00:00:00	2024-11-08T02:00:00	6	Velocidad del viento	9.7
23678	7	Sololá	701	Sololá	1	Sololá	5	Mayo	2023-05-15T00:00:00	2024-11-08T02:00:00	7	Dirección del viento	9.66
23679	7	Sololá	701	Sololá	1	Sololá	5	Mayo	2023-05-15T00:00:00	2024-11-08T02:00:00	1	Precipitación	0
23680	7	Sololá	701	Sololá	1	Sololá	5	Mayo	2023-05-15T00:00:00	2024-11-08T02:00:00	8	Radiación solar	0
23681	7	Sololá	701	Sololá	1	Sololá	5	Mayo	2023-05-15T00:00:00	2024-11-08T03:00:00	2	Temperatura media	13.7
23682	7	Sololá	701	Sololá	1	Sololá	5	Mayo	2023-05-15T00:00:00	2024-11-08T03:00:00	4	Temperatura máxima	15.5
23683	7	Sololá	701	Sololá	1	Sololá	5	Mayo	2023-05-15T00:00:00	2024-11-08T03:00:00	3	Temperatura mínima	13.7
23684	7	Sololá	701	Sololá	1	Sololá	5	Mayo	2023-05-15T00:00:00	2024-11-08T03:00:00	5	Humedad	85
23685	7	Sololá	701	Sololá	1	Sololá	5	Mayo	2023-05-15T00:00:00	2024-11-08T03:00:00	6	Velocidad del viento	8
23686	7	Sololá	701	Sololá	1	Sololá	5	Mayo	2023-05-15T00:00:00	2024-11-08T03:00:00	7	Dirección del viento	8.05
23687	7	Sololá	701	Sololá	1	Sololá	5	Mayo	2023-05-15T00:00:00	2024-11-08T03:00:00	1	Precipitación	0
23688	7	Sololá	701	Sololá	1	Sololá	5	Mayo	2023-05-15T00:00:00	2024-11-08T03:00:00	8	Radiación solar	0
23689	7	Sololá	701	Sololá	1	Sololá	5	Mayo	2023-05-15T00:00:00	2024-11-08T04:00:00	2	Temperatura media	14.6
23690	7	Sololá	701	Sololá	1	Sololá	5	Mayo	2023-05-15T00:00:00	2024-11-08T04:00:00	4	Temperatura máxima	14.6
23691	7	Sololá	701	Sololá	1	Sololá	5	Mayo	2023-05-15T00:00:00	2024-11-08T04:00:00	3	Temperatura mínima	13.7
23692	7	Sololá	701	Sololá	1	Sololá	5	Mayo	2023-05-15T00:00:00	2024-11-08T04:00:00	5	Humedad	83
23693	7	Sololá	701	Sololá	1	Sololá	5	Mayo	2023-05-15T00:00:00	2024-11-08T04:00:00	6	Velocidad del viento	1.6
23694	7	Sololá	701	Sololá	1	Sololá	5	Mayo	2023-05-15T00:00:00	2024-11-08T04:00:00	7	Dirección del viento	1.61
23695	7	Sololá	701	Sololá	1	Sololá	5	Mayo	2023-05-15T00:00:00	2024-11-08T04:00:00	1	Precipitación	0
23696	7	Sololá	701	Sololá	1	Sololá	5	Mayo	2023-05-15T00:00:00	2024-11-08T04:00:00	8	Radiación solar	0
23697	7	Sololá	701	Sololá	1	Sololá	5	Mayo	2023-05-15T00:00:00	2024-11-08T05:00:00	2	Temperatura media	13.4
23698	7	Sololá	701	Sololá	1	Sololá	5	Mayo	2023-05-15T00:00:00	2024-11-08T05:00:00	4	Temperatura máxima	14.6
23699	7	Sololá	701	Sololá	1	Sololá	5	Mayo	2023-05-15T00:00:00	2024-11-08T05:00:00	3	Temperatura mínima	13.2
23700	7	Sololá	701	Sololá	1	Sololá	5	Mayo	2023-05-15T00:00:00	2024-11-08T05:00:00	5	Humedad	86
23701	7	Sololá	701	Sololá	1	Sololá	5	Mayo	2023-05-15T00:00:00	2024-11-08T05:00:00	6	Velocidad del viento	6.4
23702	7	Sololá	701	Sololá	1	Sololá	5	Mayo	2023-05-15T00:00:00	2024-11-08T05:00:00	7	Dirección del viento	6.44
23703	7	Sololá	701	Sololá	1	Sololá	5	Mayo	2023-05-15T00:00:00	2024-11-08T05:00:00	1	Precipitación	0
23704	7	Sololá	701	Sololá	1	Sololá	5	Mayo	2023-05-15T00:00:00	2024-11-08T05:00:00	8	Radiación solar	0
23705	7	Sololá	701	Sololá	1	Sololá	5	Mayo	2023-05-15T00:00:00	2024-11-08T06:00:00	2	Temperatura media	13.6
23706	7	Sololá	701	Sololá	1	Sololá	5	Mayo	2023-05-15T00:00:00	2024-11-08T06:00:00	4	Temperatura máxima	13.6
23707	7	Sololá	701	Sololá	1	Sololá	5	Mayo	2023-05-15T00:00:00	2024-11-08T06:00:00	3	Temperatura mínima	13.3
23708	7	Sololá	701	Sololá	1	Sololá	5	Mayo	2023-05-15T00:00:00	2024-11-08T06:00:00	5	Humedad	85
23709	7	Sololá	701	Sololá	1	Sololá	5	Mayo	2023-05-15T00:00:00	2024-11-08T06:00:00	6	Velocidad del viento	6.4
23710	7	Sololá	701	Sololá	1	Sololá	5	Mayo	2023-05-15T00:00:00	2024-11-08T06:00:00	7	Dirección del viento	6.44
23711	7	Sololá	701	Sololá	1	Sololá	5	Mayo	2023-05-15T00:00:00	2024-11-08T06:00:00	1	Precipitación	0
23712	7	Sololá	701	Sololá	1	Sololá	5	Mayo	2023-05-15T00:00:00	2024-11-08T06:00:00	8	Radiación solar	4
23713	7	Sololá	701	Sololá	1	Sololá	5	Mayo	2023-05-15T00:00:00	2024-11-08T07:00:00	2	Temperatura media	15.1
23714	7	Sololá	701	Sololá	1	Sololá	5	Mayo	2023-05-15T00:00:00	2024-11-08T07:00:00	4	Temperatura máxima	15.1
23715	7	Sololá	701	Sololá	1	Sololá	5	Mayo	2023-05-15T00:00:00	2024-11-08T07:00:00	3	Temperatura mínima	13.6
23716	7	Sololá	701	Sololá	1	Sololá	5	Mayo	2023-05-15T00:00:00	2024-11-08T07:00:00	5	Humedad	81
23717	7	Sololá	701	Sololá	1	Sololá	5	Mayo	2023-05-15T00:00:00	2024-11-08T07:00:00	6	Velocidad del viento	4.8
23718	7	Sololá	701	Sololá	1	Sololá	5	Mayo	2023-05-15T00:00:00	2024-11-08T07:00:00	7	Dirección del viento	4.83
23719	7	Sololá	701	Sololá	1	Sololá	5	Mayo	2023-05-15T00:00:00	2024-11-08T07:00:00	1	Precipitación	0
23720	7	Sololá	701	Sololá	1	Sololá	5	Mayo	2023-05-15T00:00:00	2024-11-08T07:00:00	8	Radiación solar	51
23721	7	Sololá	701	Sololá	1	Sololá	5	Mayo	2023-05-15T00:00:00	2024-11-08T08:00:00	2	Temperatura media	17.7
23722	7	Sololá	701	Sololá	1	Sololá	5	Mayo	2023-05-15T00:00:00	2024-11-08T08:00:00	4	Temperatura máxima	17.7
23723	7	Sololá	701	Sololá	1	Sololá	5	Mayo	2023-05-15T00:00:00	2024-11-08T08:00:00	3	Temperatura mínima	15.1
23724	7	Sololá	701	Sololá	1	Sololá	5	Mayo	2023-05-15T00:00:00	2024-11-08T08:00:00	5	Humedad	75
23725	7	Sololá	701	Sololá	1	Sololá	5	Mayo	2023-05-15T00:00:00	2024-11-08T08:00:00	6	Velocidad del viento	0
23726	7	Sololá	701	Sololá	1	Sololá	5	Mayo	2023-05-15T00:00:00	2024-11-08T08:00:00	7	Dirección del viento	0
23727	7	Sololá	701	Sololá	1	Sololá	5	Mayo	2023-05-15T00:00:00	2024-11-08T08:00:00	1	Precipitación	0
23728	7	Sololá	701	Sololá	1	Sololá	5	Mayo	2023-05-15T00:00:00	2024-11-08T08:00:00	8	Radiación solar	130
23729	7	Sololá	701	Sololá	1	Sololá	5	Mayo	2023-05-15T00:00:00	2024-11-08T09:00:00	2	Temperatura media	18.9
23730	7	Sololá	701	Sololá	1	Sololá	5	Mayo	2023-05-15T00:00:00	2024-11-08T09:00:00	4	Temperatura máxima	18.9
23731	7	Sololá	701	Sololá	1	Sololá	5	Mayo	2023-05-15T00:00:00	2024-11-08T09:00:00	3	Temperatura mínima	17.7
23732	7	Sololá	701	Sololá	1	Sololá	5	Mayo	2023-05-15T00:00:00	2024-11-08T09:00:00	5	Humedad	75
23733	7	Sololá	701	Sololá	1	Sololá	5	Mayo	2023-05-15T00:00:00	2024-11-08T09:00:00	6	Velocidad del viento	1.6
23734	7	Sololá	701	Sololá	1	Sololá	5	Mayo	2023-05-15T00:00:00	2024-11-08T09:00:00	7	Dirección del viento	1.61
23735	7	Sololá	701	Sololá	1	Sololá	5	Mayo	2023-05-15T00:00:00	2024-11-08T09:00:00	1	Precipitación	0
23736	7	Sololá	701	Sololá	1	Sololá	5	Mayo	2023-05-15T00:00:00	2024-11-08T09:00:00	8	Radiación solar	463
23737	7	Sololá	701	Sololá	1	Sololá	5	Mayo	2023-05-15T00:00:00	2024-11-08T10:00:00	2	Temperatura media	18.9
23738	7	Sololá	701	Sololá	1	Sololá	5	Mayo	2023-05-15T00:00:00	2024-11-08T10:00:00	4	Temperatura máxima	19.6
23739	7	Sololá	701	Sololá	1	Sololá	5	Mayo	2023-05-15T00:00:00	2024-11-08T10:00:00	3	Temperatura mínima	18.9
23740	7	Sololá	701	Sololá	1	Sololá	5	Mayo	2023-05-15T00:00:00	2024-11-08T10:00:00	5	Humedad	74
23741	7	Sololá	701	Sololá	1	Sololá	5	Mayo	2023-05-15T00:00:00	2024-11-08T10:00:00	6	Velocidad del viento	4.8
23742	7	Sololá	701	Sololá	1	Sololá	5	Mayo	2023-05-15T00:00:00	2024-11-08T10:00:00	7	Dirección del viento	4.83
23743	7	Sololá	701	Sololá	1	Sololá	5	Mayo	2023-05-15T00:00:00	2024-11-08T10:00:00	1	Precipitación	0
23744	7	Sololá	701	Sololá	1	Sololá	5	Mayo	2023-05-15T00:00:00	2024-11-08T10:00:00	8	Radiación solar	763
23745	7	Sololá	701	Sololá	1	Sololá	5	Mayo	2023-05-15T00:00:00	2024-11-08T11:00:00	2	Temperatura media	20.3
23746	7	Sololá	701	Sololá	1	Sololá	5	Mayo	2023-05-15T00:00:00	2024-11-08T11:00:00	4	Temperatura máxima	20.7
23747	7	Sololá	701	Sololá	1	Sololá	5	Mayo	2023-05-15T00:00:00	2024-11-08T11:00:00	3	Temperatura mínima	19
23748	7	Sololá	701	Sololá	1	Sololá	5	Mayo	2023-05-15T00:00:00	2024-11-08T11:00:00	5	Humedad	71
23749	7	Sololá	701	Sololá	1	Sololá	5	Mayo	2023-05-15T00:00:00	2024-11-08T11:00:00	6	Velocidad del viento	4.8
23750	7	Sololá	701	Sololá	1	Sololá	5	Mayo	2023-05-15T00:00:00	2024-11-08T11:00:00	7	Dirección del viento	4.83
23751	7	Sololá	701	Sololá	1	Sololá	5	Mayo	2023-05-15T00:00:00	2024-11-08T11:00:00	1	Precipitación	0
23752	7	Sololá	701	Sololá	1	Sololá	5	Mayo	2023-05-15T00:00:00	2024-11-08T11:00:00	8	Radiación solar	651
23753	7	Sololá	701	Sololá	1	Sololá	5	Mayo	2023-05-15T00:00:00	2024-11-08T12:00:00	2	Temperatura media	20.7
23754	7	Sololá	701	Sololá	1	Sololá	5	Mayo	2023-05-15T00:00:00	2024-11-08T12:00:00	4	Temperatura máxima	20.8
23755	7	Sololá	701	Sololá	1	Sololá	5	Mayo	2023-05-15T00:00:00	2024-11-08T12:00:00	3	Temperatura mínima	19.8
23756	7	Sololá	701	Sololá	1	Sololá	5	Mayo	2023-05-15T00:00:00	2024-11-08T12:00:00	5	Humedad	72
23757	7	Sololá	701	Sololá	1	Sololá	5	Mayo	2023-05-15T00:00:00	2024-11-08T12:00:00	6	Velocidad del viento	6.4
23758	7	Sololá	701	Sololá	1	Sololá	5	Mayo	2023-05-15T00:00:00	2024-11-08T12:00:00	7	Dirección del viento	6.44
23759	7	Sololá	701	Sololá	1	Sololá	5	Mayo	2023-05-15T00:00:00	2024-11-08T12:00:00	1	Precipitación	0
23760	7	Sololá	701	Sololá	1	Sololá	5	Mayo	2023-05-15T00:00:00	2024-11-08T12:00:00	8	Radiación solar	995
23761	7	Sololá	701	Sololá	1	Sololá	5	Mayo	2023-05-15T00:00:00	2024-11-08T13:00:00	2	Temperatura media	20.6
23762	7	Sololá	701	Sololá	1	Sololá	5	Mayo	2023-05-15T00:00:00	2024-11-08T13:00:00	4	Temperatura máxima	21.3
23763	7	Sololá	701	Sololá	1	Sololá	5	Mayo	2023-05-15T00:00:00	2024-11-08T13:00:00	3	Temperatura mínima	20.5
23764	7	Sololá	701	Sololá	1	Sololá	5	Mayo	2023-05-15T00:00:00	2024-11-08T13:00:00	5	Humedad	72
23765	7	Sololá	701	Sololá	1	Sololá	5	Mayo	2023-05-15T00:00:00	2024-11-08T13:00:00	6	Velocidad del viento	6.4
23766	7	Sololá	701	Sololá	1	Sololá	5	Mayo	2023-05-15T00:00:00	2024-11-08T13:00:00	7	Dirección del viento	6.44
23767	7	Sololá	701	Sololá	1	Sololá	5	Mayo	2023-05-15T00:00:00	2024-11-08T13:00:00	1	Precipitación	0
23768	7	Sololá	701	Sololá	1	Sololá	5	Mayo	2023-05-15T00:00:00	2024-11-08T13:00:00	8	Radiación solar	627
23769	7	Sololá	701	Sololá	1	Sololá	5	Mayo	2023-05-15T00:00:00	2024-11-08T14:00:00	2	Temperatura media	20.9
23770	7	Sololá	701	Sololá	1	Sololá	5	Mayo	2023-05-15T00:00:00	2024-11-08T14:00:00	4	Temperatura máxima	21.5
23771	7	Sololá	701	Sololá	1	Sololá	5	Mayo	2023-05-15T00:00:00	2024-11-08T14:00:00	3	Temperatura mínima	20.6
23772	7	Sololá	701	Sololá	1	Sololá	5	Mayo	2023-05-15T00:00:00	2024-11-08T14:00:00	5	Humedad	74
23773	7	Sololá	701	Sololá	1	Sololá	5	Mayo	2023-05-15T00:00:00	2024-11-08T14:00:00	6	Velocidad del viento	6.4
23774	7	Sololá	701	Sololá	1	Sololá	5	Mayo	2023-05-15T00:00:00	2024-11-08T14:00:00	7	Dirección del viento	6.44
23775	7	Sololá	701	Sololá	1	Sololá	5	Mayo	2023-05-15T00:00:00	2024-11-08T14:00:00	1	Precipitación	0
23776	7	Sololá	701	Sololá	1	Sololá	5	Mayo	2023-05-15T00:00:00	2024-11-08T14:00:00	8	Radiación solar	369
23777	7	Sololá	701	Sololá	1	Sololá	5	Mayo	2023-05-15T00:00:00	2024-11-08T15:00:00	2	Temperatura media	20.4
23778	7	Sololá	701	Sololá	1	Sololá	5	Mayo	2023-05-15T00:00:00	2024-11-08T15:00:00	4	Temperatura máxima	21
23779	7	Sololá	701	Sololá	1	Sololá	5	Mayo	2023-05-15T00:00:00	2024-11-08T15:00:00	3	Temperatura mínima	20
23780	7	Sololá	701	Sololá	1	Sololá	5	Mayo	2023-05-15T00:00:00	2024-11-08T15:00:00	5	Humedad	79
23781	7	Sololá	701	Sololá	1	Sololá	5	Mayo	2023-05-15T00:00:00	2024-11-08T15:00:00	6	Velocidad del viento	4.8
23782	7	Sololá	701	Sololá	1	Sololá	5	Mayo	2023-05-15T00:00:00	2024-11-08T15:00:00	7	Dirección del viento	4.83
23783	7	Sololá	701	Sololá	1	Sololá	5	Mayo	2023-05-15T00:00:00	2024-11-08T15:00:00	1	Precipitación	0
23784	7	Sololá	701	Sololá	1	Sololá	5	Mayo	2023-05-15T00:00:00	2024-11-08T15:00:00	8	Radiación solar	235
23785	7	Sololá	701	Sololá	1	Sololá	5	Mayo	2023-05-15T00:00:00	2024-11-08T16:00:00	2	Temperatura media	19.2
23786	7	Sololá	701	Sololá	1	Sololá	5	Mayo	2023-05-15T00:00:00	2024-11-08T16:00:00	4	Temperatura máxima	20.4
23787	7	Sololá	701	Sololá	1	Sololá	5	Mayo	2023-05-15T00:00:00	2024-11-08T16:00:00	3	Temperatura mínima	18.7
23788	7	Sololá	701	Sololá	1	Sololá	5	Mayo	2023-05-15T00:00:00	2024-11-08T16:00:00	5	Humedad	83
23789	7	Sololá	701	Sololá	1	Sololá	5	Mayo	2023-05-15T00:00:00	2024-11-08T16:00:00	6	Velocidad del viento	4.8
23790	7	Sololá	701	Sololá	1	Sololá	5	Mayo	2023-05-15T00:00:00	2024-11-08T16:00:00	7	Dirección del viento	4.83
23791	7	Sololá	701	Sololá	1	Sololá	5	Mayo	2023-05-15T00:00:00	2024-11-08T16:00:00	1	Precipitación	0
23792	7	Sololá	701	Sololá	1	Sololá	5	Mayo	2023-05-15T00:00:00	2024-11-08T16:00:00	8	Radiación solar	188
23793	7	Sololá	701	Sololá	1	Sololá	5	Mayo	2023-05-15T00:00:00	2024-11-08T17:00:00	2	Temperatura media	18.3
23794	7	Sololá	701	Sololá	1	Sololá	5	Mayo	2023-05-15T00:00:00	2024-11-08T17:00:00	4	Temperatura máxima	19.2
23795	7	Sololá	701	Sololá	1	Sololá	5	Mayo	2023-05-15T00:00:00	2024-11-08T17:00:00	3	Temperatura mínima	18.1
23796	7	Sololá	701	Sololá	1	Sololá	5	Mayo	2023-05-15T00:00:00	2024-11-08T17:00:00	5	Humedad	86
23797	7	Sololá	701	Sololá	1	Sololá	5	Mayo	2023-05-15T00:00:00	2024-11-08T17:00:00	6	Velocidad del viento	3.2
23798	7	Sololá	701	Sololá	1	Sololá	5	Mayo	2023-05-15T00:00:00	2024-11-08T17:00:00	7	Dirección del viento	3.22
23799	7	Sololá	701	Sololá	1	Sololá	5	Mayo	2023-05-15T00:00:00	2024-11-08T17:00:00	1	Precipitación	0
23800	7	Sololá	701	Sololá	1	Sololá	5	Mayo	2023-05-15T00:00:00	2024-11-08T17:00:00	8	Radiación solar	127
23801	7	Sololá	701	Sololá	1	Sololá	5	Mayo	2023-05-15T00:00:00	2024-11-08T18:00:00	2	Temperatura media	16.8
23802	7	Sololá	701	Sololá	1	Sololá	5	Mayo	2023-05-15T00:00:00	2024-11-08T18:00:00	4	Temperatura máxima	18.3
23803	7	Sololá	701	Sololá	1	Sololá	5	Mayo	2023-05-15T00:00:00	2024-11-08T18:00:00	3	Temperatura mínima	16.7
23804	7	Sololá	701	Sololá	1	Sololá	5	Mayo	2023-05-15T00:00:00	2024-11-08T18:00:00	5	Humedad	89
23805	7	Sololá	701	Sololá	1	Sololá	5	Mayo	2023-05-15T00:00:00	2024-11-08T18:00:00	6	Velocidad del viento	3.2
23806	7	Sololá	701	Sololá	1	Sololá	5	Mayo	2023-05-15T00:00:00	2024-11-08T18:00:00	7	Dirección del viento	3.22
23807	7	Sololá	701	Sololá	1	Sololá	5	Mayo	2023-05-15T00:00:00	2024-11-08T18:00:00	1	Precipitación	2.4
23808	7	Sololá	701	Sololá	1	Sololá	5	Mayo	2023-05-15T00:00:00	2024-11-08T18:00:00	8	Radiación solar	19
23809	7	Sololá	701	Sololá	1	Sololá	5	Mayo	2023-05-15T00:00:00	2024-11-08T19:00:00	2	Temperatura media	16.1
23810	7	Sololá	701	Sololá	1	Sololá	5	Mayo	2023-05-15T00:00:00	2024-11-08T19:00:00	4	Temperatura máxima	16.8
23811	7	Sololá	701	Sololá	1	Sololá	5	Mayo	2023-05-15T00:00:00	2024-11-08T19:00:00	3	Temperatura mínima	15.7
23812	7	Sololá	701	Sololá	1	Sololá	5	Mayo	2023-05-15T00:00:00	2024-11-08T19:00:00	5	Humedad	86
23813	7	Sololá	701	Sololá	1	Sololá	5	Mayo	2023-05-15T00:00:00	2024-11-08T19:00:00	6	Velocidad del viento	9.7
23814	7	Sololá	701	Sololá	1	Sololá	5	Mayo	2023-05-15T00:00:00	2024-11-08T19:00:00	7	Dirección del viento	9.66
23815	7	Sololá	701	Sololá	1	Sololá	5	Mayo	2023-05-15T00:00:00	2024-11-08T19:00:00	1	Precipitación	0.4
23816	7	Sololá	701	Sololá	1	Sololá	5	Mayo	2023-05-15T00:00:00	2024-11-08T19:00:00	8	Radiación solar	0
23817	7	Sololá	701	Sololá	1	Sololá	5	Mayo	2023-05-15T00:00:00	2024-11-08T20:00:00	2	Temperatura media	15.9
23818	7	Sololá	701	Sololá	1	Sololá	5	Mayo	2023-05-15T00:00:00	2024-11-08T20:00:00	4	Temperatura máxima	16.3
23819	7	Sololá	701	Sololá	1	Sololá	5	Mayo	2023-05-15T00:00:00	2024-11-08T20:00:00	3	Temperatura mínima	15.8
23820	7	Sololá	701	Sololá	1	Sololá	5	Mayo	2023-05-15T00:00:00	2024-11-08T20:00:00	5	Humedad	82
23821	7	Sololá	701	Sololá	1	Sololá	5	Mayo	2023-05-15T00:00:00	2024-11-08T20:00:00	6	Velocidad del viento	6.4
23822	7	Sololá	701	Sololá	1	Sololá	5	Mayo	2023-05-15T00:00:00	2024-11-08T20:00:00	7	Dirección del viento	6.44
23823	7	Sololá	701	Sololá	1	Sololá	5	Mayo	2023-05-15T00:00:00	2024-11-08T20:00:00	1	Precipitación	0
23824	7	Sololá	701	Sololá	1	Sololá	5	Mayo	2023-05-15T00:00:00	2024-11-08T20:00:00	8	Radiación solar	0
23825	7	Sololá	701	Sololá	1	Sololá	5	Mayo	2023-05-15T00:00:00	2024-11-08T21:00:00	2	Temperatura media	16.5
23826	7	Sololá	701	Sololá	1	Sololá	5	Mayo	2023-05-15T00:00:00	2024-11-08T21:00:00	4	Temperatura máxima	16.5
23827	7	Sololá	701	Sololá	1	Sololá	5	Mayo	2023-05-15T00:00:00	2024-11-08T21:00:00	3	Temperatura mínima	15
23828	7	Sololá	701	Sololá	1	Sololá	5	Mayo	2023-05-15T00:00:00	2024-11-08T21:00:00	5	Humedad	71
23829	7	Sololá	701	Sololá	1	Sololá	5	Mayo	2023-05-15T00:00:00	2024-11-08T21:00:00	6	Velocidad del viento	8
23830	7	Sololá	701	Sololá	1	Sololá	5	Mayo	2023-05-15T00:00:00	2024-11-08T21:00:00	7	Dirección del viento	8.05
23831	7	Sololá	701	Sololá	1	Sololá	5	Mayo	2023-05-15T00:00:00	2024-11-08T21:00:00	1	Precipitación	0
23832	7	Sololá	701	Sololá	1	Sololá	5	Mayo	2023-05-15T00:00:00	2024-11-08T21:00:00	8	Radiación solar	0
23833	7	Sololá	701	Sololá	1	Sololá	5	Mayo	2023-05-15T00:00:00	2024-11-08T22:00:00	2	Temperatura media	15.3
23834	7	Sololá	701	Sololá	1	Sololá	5	Mayo	2023-05-15T00:00:00	2024-11-08T22:00:00	4	Temperatura máxima	16.5
23835	7	Sololá	701	Sololá	1	Sololá	5	Mayo	2023-05-15T00:00:00	2024-11-08T22:00:00	3	Temperatura mínima	14.9
23836	7	Sololá	701	Sololá	1	Sololá	5	Mayo	2023-05-15T00:00:00	2024-11-08T22:00:00	5	Humedad	77
23837	7	Sololá	701	Sololá	1	Sololá	5	Mayo	2023-05-15T00:00:00	2024-11-08T22:00:00	6	Velocidad del viento	8
23838	7	Sololá	701	Sololá	1	Sololá	5	Mayo	2023-05-15T00:00:00	2024-11-08T22:00:00	7	Dirección del viento	8.05
23839	7	Sololá	701	Sololá	1	Sololá	5	Mayo	2023-05-15T00:00:00	2024-11-08T22:00:00	1	Precipitación	0
23840	7	Sololá	701	Sololá	1	Sololá	5	Mayo	2023-05-15T00:00:00	2024-11-08T22:00:00	8	Radiación solar	0
23841	7	Sololá	701	Sololá	1	Sololá	5	Mayo	2023-05-15T00:00:00	2024-11-08T23:00:00	2	Temperatura media	13
23842	7	Sololá	701	Sololá	1	Sololá	5	Mayo	2023-05-15T00:00:00	2024-11-08T23:00:00	4	Temperatura máxima	15.4
23843	7	Sololá	701	Sololá	1	Sololá	5	Mayo	2023-05-15T00:00:00	2024-11-08T23:00:00	3	Temperatura mínima	13
23844	7	Sololá	701	Sololá	1	Sololá	5	Mayo	2023-05-15T00:00:00	2024-11-08T23:00:00	5	Humedad	83
23845	7	Sololá	701	Sololá	1	Sololá	5	Mayo	2023-05-15T00:00:00	2024-11-08T23:00:00	6	Velocidad del viento	9.7
23846	7	Sololá	701	Sololá	1	Sololá	5	Mayo	2023-05-15T00:00:00	2024-11-08T23:00:00	7	Dirección del viento	9.66
23847	7	Sololá	701	Sololá	1	Sololá	5	Mayo	2023-05-15T00:00:00	2024-11-08T23:00:00	1	Precipitación	0
23848	7	Sololá	701	Sololá	1	Sololá	5	Mayo	2023-05-15T00:00:00	2024-11-08T23:00:00	8	Radiación solar	0
23849	7	Sololá	701	Sololá	1	Sololá	5	Mayo	2023-05-16T00:00:00	2024-11-08T00:00:00	2	Temperatura media	14.6
23850	7	Sololá	701	Sololá	1	Sololá	5	Mayo	2023-05-16T00:00:00	2024-11-08T00:00:00	4	Temperatura máxima	14.6
23851	7	Sololá	701	Sololá	1	Sololá	5	Mayo	2023-05-16T00:00:00	2024-11-08T00:00:00	3	Temperatura mínima	12.7
23852	7	Sololá	701	Sololá	1	Sololá	5	Mayo	2023-05-16T00:00:00	2024-11-08T00:00:00	5	Humedad	72
23853	7	Sololá	701	Sololá	1	Sololá	5	Mayo	2023-05-16T00:00:00	2024-11-08T00:00:00	6	Velocidad del viento	8
23854	7	Sololá	701	Sololá	1	Sololá	5	Mayo	2023-05-16T00:00:00	2024-11-08T00:00:00	7	Dirección del viento	8.05
23855	7	Sololá	701	Sololá	1	Sololá	5	Mayo	2023-05-16T00:00:00	2024-11-08T00:00:00	1	Precipitación	0
23856	7	Sololá	701	Sololá	1	Sololá	5	Mayo	2023-05-16T00:00:00	2024-11-08T00:00:00	8	Radiación solar	0
23857	7	Sololá	701	Sololá	1	Sololá	5	Mayo	2023-05-16T00:00:00	2024-11-08T01:00:00	2	Temperatura media	13
23858	7	Sololá	701	Sololá	1	Sololá	5	Mayo	2023-05-16T00:00:00	2024-11-08T01:00:00	4	Temperatura máxima	15.1
23859	7	Sololá	701	Sololá	1	Sololá	5	Mayo	2023-05-16T00:00:00	2024-11-08T01:00:00	3	Temperatura mínima	13
23860	7	Sololá	701	Sololá	1	Sololá	5	Mayo	2023-05-16T00:00:00	2024-11-08T01:00:00	5	Humedad	79
23861	7	Sololá	701	Sololá	1	Sololá	5	Mayo	2023-05-16T00:00:00	2024-11-08T01:00:00	6	Velocidad del viento	6.4
23862	7	Sololá	701	Sololá	1	Sololá	5	Mayo	2023-05-16T00:00:00	2024-11-08T01:00:00	7	Dirección del viento	6.44
23863	7	Sololá	701	Sololá	1	Sololá	5	Mayo	2023-05-16T00:00:00	2024-11-08T01:00:00	1	Precipitación	0
23864	7	Sololá	701	Sololá	1	Sololá	5	Mayo	2023-05-16T00:00:00	2024-11-08T01:00:00	8	Radiación solar	0
23865	7	Sololá	701	Sololá	1	Sololá	5	Mayo	2023-05-16T00:00:00	2024-11-08T02:00:00	2	Temperatura media	12.9
23866	7	Sololá	701	Sololá	1	Sololá	5	Mayo	2023-05-16T00:00:00	2024-11-08T02:00:00	4	Temperatura máxima	13.4
23867	7	Sololá	701	Sololá	1	Sololá	5	Mayo	2023-05-16T00:00:00	2024-11-08T02:00:00	3	Temperatura mínima	12.4
23868	7	Sololá	701	Sololá	1	Sololá	5	Mayo	2023-05-16T00:00:00	2024-11-08T02:00:00	5	Humedad	79
23869	7	Sololá	701	Sololá	1	Sololá	5	Mayo	2023-05-16T00:00:00	2024-11-08T02:00:00	6	Velocidad del viento	3.2
23870	7	Sololá	701	Sololá	1	Sololá	5	Mayo	2023-05-16T00:00:00	2024-11-08T02:00:00	7	Dirección del viento	3.22
23871	7	Sololá	701	Sololá	1	Sololá	5	Mayo	2023-05-16T00:00:00	2024-11-08T02:00:00	1	Precipitación	0
23872	7	Sololá	701	Sololá	1	Sololá	5	Mayo	2023-05-16T00:00:00	2024-11-08T02:00:00	8	Radiación solar	0
23873	7	Sololá	701	Sololá	1	Sololá	5	Mayo	2023-05-16T00:00:00	2024-11-08T03:00:00	2	Temperatura media	12.2
23874	7	Sololá	701	Sololá	1	Sololá	5	Mayo	2023-05-16T00:00:00	2024-11-08T03:00:00	4	Temperatura máxima	12.9
23875	7	Sololá	701	Sololá	1	Sololá	5	Mayo	2023-05-16T00:00:00	2024-11-08T03:00:00	3	Temperatura mínima	12.2
23876	7	Sololá	701	Sololá	1	Sololá	5	Mayo	2023-05-16T00:00:00	2024-11-08T03:00:00	5	Humedad	82
23877	7	Sololá	701	Sololá	1	Sololá	5	Mayo	2023-05-16T00:00:00	2024-11-08T03:00:00	6	Velocidad del viento	3.2
23878	7	Sololá	701	Sololá	1	Sololá	5	Mayo	2023-05-16T00:00:00	2024-11-08T03:00:00	7	Dirección del viento	3.22
23879	7	Sololá	701	Sololá	1	Sololá	5	Mayo	2023-05-16T00:00:00	2024-11-08T03:00:00	1	Precipitación	0
23880	7	Sololá	701	Sololá	1	Sololá	5	Mayo	2023-05-16T00:00:00	2024-11-08T03:00:00	8	Radiación solar	0
23881	7	Sololá	701	Sololá	1	Sololá	5	Mayo	2023-05-16T00:00:00	2024-11-08T04:00:00	2	Temperatura media	12.6
23882	7	Sololá	701	Sololá	1	Sololá	5	Mayo	2023-05-16T00:00:00	2024-11-08T04:00:00	4	Temperatura máxima	12.7
23883	7	Sololá	701	Sololá	1	Sololá	5	Mayo	2023-05-16T00:00:00	2024-11-08T04:00:00	3	Temperatura mínima	11.6
23884	7	Sololá	701	Sololá	1	Sololá	5	Mayo	2023-05-16T00:00:00	2024-11-08T04:00:00	5	Humedad	81
23885	7	Sololá	701	Sololá	1	Sololá	5	Mayo	2023-05-16T00:00:00	2024-11-08T04:00:00	6	Velocidad del viento	3.2
23886	7	Sololá	701	Sololá	1	Sololá	5	Mayo	2023-05-16T00:00:00	2024-11-08T04:00:00	7	Dirección del viento	3.22
23887	7	Sololá	701	Sololá	1	Sololá	5	Mayo	2023-05-16T00:00:00	2024-11-08T04:00:00	1	Precipitación	0
23888	7	Sololá	701	Sololá	1	Sololá	5	Mayo	2023-05-16T00:00:00	2024-11-08T04:00:00	8	Radiación solar	0
23889	7	Sololá	701	Sololá	1	Sololá	5	Mayo	2023-05-16T00:00:00	2024-11-08T05:00:00	2	Temperatura media	11.8
23890	7	Sololá	701	Sololá	1	Sololá	5	Mayo	2023-05-16T00:00:00	2024-11-08T05:00:00	4	Temperatura máxima	12.6
23891	7	Sololá	701	Sololá	1	Sololá	5	Mayo	2023-05-16T00:00:00	2024-11-08T05:00:00	3	Temperatura mínima	11.3
23892	7	Sololá	701	Sololá	1	Sololá	5	Mayo	2023-05-16T00:00:00	2024-11-08T05:00:00	5	Humedad	84
23893	7	Sololá	701	Sololá	1	Sololá	5	Mayo	2023-05-16T00:00:00	2024-11-08T05:00:00	6	Velocidad del viento	4.8
23894	7	Sololá	701	Sololá	1	Sololá	5	Mayo	2023-05-16T00:00:00	2024-11-08T05:00:00	7	Dirección del viento	4.83
23895	7	Sololá	701	Sololá	1	Sololá	5	Mayo	2023-05-16T00:00:00	2024-11-08T05:00:00	1	Precipitación	0
23896	7	Sololá	701	Sololá	1	Sololá	5	Mayo	2023-05-16T00:00:00	2024-11-08T05:00:00	8	Radiación solar	0
23897	7	Sololá	701	Sololá	1	Sololá	5	Mayo	2023-05-16T00:00:00	2024-11-08T06:00:00	2	Temperatura media	11.9
23898	7	Sololá	701	Sololá	1	Sololá	5	Mayo	2023-05-16T00:00:00	2024-11-08T06:00:00	4	Temperatura máxima	12.1
23899	7	Sololá	701	Sololá	1	Sololá	5	Mayo	2023-05-16T00:00:00	2024-11-08T06:00:00	3	Temperatura mínima	11.8
23900	7	Sololá	701	Sololá	1	Sololá	5	Mayo	2023-05-16T00:00:00	2024-11-08T06:00:00	5	Humedad	82
23901	7	Sololá	701	Sololá	1	Sololá	5	Mayo	2023-05-16T00:00:00	2024-11-08T06:00:00	6	Velocidad del viento	1.6
23902	7	Sololá	701	Sololá	1	Sololá	5	Mayo	2023-05-16T00:00:00	2024-11-08T06:00:00	7	Dirección del viento	1.61
23903	7	Sololá	701	Sololá	1	Sololá	5	Mayo	2023-05-16T00:00:00	2024-11-08T06:00:00	1	Precipitación	0
23904	7	Sololá	701	Sololá	1	Sololá	5	Mayo	2023-05-16T00:00:00	2024-11-08T06:00:00	8	Radiación solar	5
23905	7	Sololá	701	Sololá	1	Sololá	5	Mayo	2023-05-16T00:00:00	2024-11-08T07:00:00	2	Temperatura media	14.9
23906	7	Sololá	701	Sololá	1	Sololá	5	Mayo	2023-05-16T00:00:00	2024-11-08T07:00:00	4	Temperatura máxima	14.9
23907	7	Sololá	701	Sololá	1	Sololá	5	Mayo	2023-05-16T00:00:00	2024-11-08T07:00:00	3	Temperatura mínima	11.9
23908	7	Sololá	701	Sololá	1	Sololá	5	Mayo	2023-05-16T00:00:00	2024-11-08T07:00:00	5	Humedad	76
23909	7	Sololá	701	Sololá	1	Sololá	5	Mayo	2023-05-16T00:00:00	2024-11-08T07:00:00	6	Velocidad del viento	1.6
23910	7	Sololá	701	Sololá	1	Sololá	5	Mayo	2023-05-16T00:00:00	2024-11-08T07:00:00	7	Dirección del viento	1.61
23911	7	Sololá	701	Sololá	1	Sololá	5	Mayo	2023-05-16T00:00:00	2024-11-08T07:00:00	1	Precipitación	0
23912	7	Sololá	701	Sololá	1	Sololá	5	Mayo	2023-05-16T00:00:00	2024-11-08T07:00:00	8	Radiación solar	33
23913	7	Sololá	701	Sololá	1	Sololá	5	Mayo	2023-05-16T00:00:00	2024-11-08T08:00:00	2	Temperatura media	17.9
23914	7	Sololá	701	Sololá	1	Sololá	5	Mayo	2023-05-16T00:00:00	2024-11-08T08:00:00	4	Temperatura máxima	17.9
23915	7	Sololá	701	Sololá	1	Sololá	5	Mayo	2023-05-16T00:00:00	2024-11-08T08:00:00	3	Temperatura mínima	14.9
23916	7	Sololá	701	Sololá	1	Sololá	5	Mayo	2023-05-16T00:00:00	2024-11-08T08:00:00	5	Humedad	66
23917	7	Sololá	701	Sololá	1	Sololá	5	Mayo	2023-05-16T00:00:00	2024-11-08T08:00:00	6	Velocidad del viento	3.2
23918	7	Sololá	701	Sololá	1	Sololá	5	Mayo	2023-05-16T00:00:00	2024-11-08T08:00:00	7	Dirección del viento	3.22
23919	7	Sololá	701	Sololá	1	Sololá	5	Mayo	2023-05-16T00:00:00	2024-11-08T08:00:00	1	Precipitación	0
23920	7	Sololá	701	Sololá	1	Sololá	5	Mayo	2023-05-16T00:00:00	2024-11-08T08:00:00	8	Radiación solar	92
23921	7	Sololá	701	Sololá	1	Sololá	5	Mayo	2023-05-16T00:00:00	2024-11-08T09:00:00	2	Temperatura media	19.6
23922	7	Sololá	701	Sololá	1	Sololá	5	Mayo	2023-05-16T00:00:00	2024-11-08T09:00:00	4	Temperatura máxima	19.8
23923	7	Sololá	701	Sololá	1	Sololá	5	Mayo	2023-05-16T00:00:00	2024-11-08T09:00:00	3	Temperatura mínima	17.9
23924	7	Sololá	701	Sololá	1	Sololá	5	Mayo	2023-05-16T00:00:00	2024-11-08T09:00:00	5	Humedad	69
23925	7	Sololá	701	Sololá	1	Sololá	5	Mayo	2023-05-16T00:00:00	2024-11-08T09:00:00	6	Velocidad del viento	3.2
23926	7	Sololá	701	Sololá	1	Sololá	5	Mayo	2023-05-16T00:00:00	2024-11-08T09:00:00	7	Dirección del viento	3.22
23927	7	Sololá	701	Sololá	1	Sololá	5	Mayo	2023-05-16T00:00:00	2024-11-08T09:00:00	1	Precipitación	0
23928	7	Sololá	701	Sololá	1	Sololá	5	Mayo	2023-05-16T00:00:00	2024-11-08T09:00:00	8	Radiación solar	530
23929	7	Sololá	701	Sololá	1	Sololá	5	Mayo	2023-05-16T00:00:00	2024-11-08T10:00:00	2	Temperatura media	20.3
23930	7	Sololá	701	Sololá	1	Sololá	5	Mayo	2023-05-16T00:00:00	2024-11-08T10:00:00	4	Temperatura máxima	20.5
23931	7	Sololá	701	Sololá	1	Sololá	5	Mayo	2023-05-16T00:00:00	2024-11-08T10:00:00	3	Temperatura mínima	19.4
23932	7	Sololá	701	Sololá	1	Sololá	5	Mayo	2023-05-16T00:00:00	2024-11-08T10:00:00	5	Humedad	65
23933	7	Sololá	701	Sololá	1	Sololá	5	Mayo	2023-05-16T00:00:00	2024-11-08T10:00:00	6	Velocidad del viento	4.8
23934	7	Sololá	701	Sololá	1	Sololá	5	Mayo	2023-05-16T00:00:00	2024-11-08T10:00:00	7	Dirección del viento	4.83
23935	7	Sololá	701	Sololá	1	Sololá	5	Mayo	2023-05-16T00:00:00	2024-11-08T10:00:00	1	Precipitación	0
23936	7	Sololá	701	Sololá	1	Sololá	5	Mayo	2023-05-16T00:00:00	2024-11-08T10:00:00	8	Radiación solar	745
23937	7	Sololá	701	Sololá	1	Sololá	5	Mayo	2023-05-16T00:00:00	2024-11-08T11:00:00	2	Temperatura media	21.3
23938	7	Sololá	701	Sololá	1	Sololá	5	Mayo	2023-05-16T00:00:00	2024-11-08T11:00:00	4	Temperatura máxima	21.3
23939	7	Sololá	701	Sololá	1	Sololá	5	Mayo	2023-05-16T00:00:00	2024-11-08T11:00:00	3	Temperatura mínima	20.1
23940	7	Sololá	701	Sololá	1	Sololá	5	Mayo	2023-05-16T00:00:00	2024-11-08T11:00:00	5	Humedad	61
23941	7	Sololá	701	Sololá	1	Sololá	5	Mayo	2023-05-16T00:00:00	2024-11-08T11:00:00	6	Velocidad del viento	4.8
23942	7	Sololá	701	Sololá	1	Sololá	5	Mayo	2023-05-16T00:00:00	2024-11-08T11:00:00	7	Dirección del viento	4.83
23943	7	Sololá	701	Sololá	1	Sololá	5	Mayo	2023-05-16T00:00:00	2024-11-08T11:00:00	1	Precipitación	0
23944	7	Sololá	701	Sololá	1	Sololá	5	Mayo	2023-05-16T00:00:00	2024-11-08T11:00:00	8	Radiación solar	666
23945	7	Sololá	701	Sololá	1	Sololá	5	Mayo	2023-05-16T00:00:00	2024-11-08T12:00:00	2	Temperatura media	22.2
23946	7	Sololá	701	Sololá	1	Sololá	5	Mayo	2023-05-16T00:00:00	2024-11-08T12:00:00	4	Temperatura máxima	22.2
23947	7	Sololá	701	Sololá	1	Sololá	5	Mayo	2023-05-16T00:00:00	2024-11-08T12:00:00	3	Temperatura mínima	21.2
23948	7	Sololá	701	Sololá	1	Sololá	5	Mayo	2023-05-16T00:00:00	2024-11-08T12:00:00	5	Humedad	58
23949	7	Sololá	701	Sololá	1	Sololá	5	Mayo	2023-05-16T00:00:00	2024-11-08T12:00:00	6	Velocidad del viento	6.4
23950	7	Sololá	701	Sololá	1	Sololá	5	Mayo	2023-05-16T00:00:00	2024-11-08T12:00:00	7	Dirección del viento	6.44
23951	7	Sololá	701	Sololá	1	Sololá	5	Mayo	2023-05-16T00:00:00	2024-11-08T12:00:00	1	Precipitación	0
23952	7	Sololá	701	Sololá	1	Sololá	5	Mayo	2023-05-16T00:00:00	2024-11-08T12:00:00	8	Radiación solar	864
23953	7	Sololá	701	Sololá	1	Sololá	5	Mayo	2023-05-16T00:00:00	2024-11-08T13:00:00	2	Temperatura media	21.4
23954	7	Sololá	701	Sololá	1	Sololá	5	Mayo	2023-05-16T00:00:00	2024-11-08T13:00:00	4	Temperatura máxima	22.5
23955	7	Sololá	701	Sololá	1	Sololá	5	Mayo	2023-05-16T00:00:00	2024-11-08T13:00:00	3	Temperatura mínima	21
23956	7	Sololá	701	Sololá	1	Sololá	5	Mayo	2023-05-16T00:00:00	2024-11-08T13:00:00	5	Humedad	72
23957	7	Sololá	701	Sololá	1	Sololá	5	Mayo	2023-05-16T00:00:00	2024-11-08T13:00:00	6	Velocidad del viento	8
23958	7	Sololá	701	Sololá	1	Sololá	5	Mayo	2023-05-16T00:00:00	2024-11-08T13:00:00	7	Dirección del viento	8.05
23959	7	Sololá	701	Sololá	1	Sololá	5	Mayo	2023-05-16T00:00:00	2024-11-08T13:00:00	1	Precipitación	0
23960	7	Sololá	701	Sololá	1	Sololá	5	Mayo	2023-05-16T00:00:00	2024-11-08T13:00:00	8	Radiación solar	485
23961	7	Sololá	701	Sololá	1	Sololá	5	Mayo	2023-05-16T00:00:00	2024-11-08T14:00:00	2	Temperatura media	20.4
23962	7	Sololá	701	Sololá	1	Sololá	5	Mayo	2023-05-16T00:00:00	2024-11-08T14:00:00	4	Temperatura máxima	21.6
23963	7	Sololá	701	Sololá	1	Sololá	5	Mayo	2023-05-16T00:00:00	2024-11-08T14:00:00	3	Temperatura mínima	20.3
23964	7	Sololá	701	Sololá	1	Sololá	5	Mayo	2023-05-16T00:00:00	2024-11-08T14:00:00	5	Humedad	76
23965	7	Sololá	701	Sololá	1	Sololá	5	Mayo	2023-05-16T00:00:00	2024-11-08T14:00:00	6	Velocidad del viento	6.4
23966	7	Sololá	701	Sololá	1	Sololá	5	Mayo	2023-05-16T00:00:00	2024-11-08T14:00:00	7	Dirección del viento	6.44
23967	7	Sololá	701	Sololá	1	Sololá	5	Mayo	2023-05-16T00:00:00	2024-11-08T14:00:00	1	Precipitación	0
23968	7	Sololá	701	Sololá	1	Sololá	5	Mayo	2023-05-16T00:00:00	2024-11-08T14:00:00	8	Radiación solar	871
23969	7	Sololá	701	Sololá	1	Sololá	5	Mayo	2023-05-16T00:00:00	2024-11-08T15:00:00	2	Temperatura media	19.4
23970	7	Sololá	701	Sololá	1	Sololá	5	Mayo	2023-05-16T00:00:00	2024-11-08T15:00:00	4	Temperatura máxima	20.6
23971	7	Sololá	701	Sololá	1	Sololá	5	Mayo	2023-05-16T00:00:00	2024-11-08T15:00:00	3	Temperatura mínima	19.4
23972	7	Sololá	701	Sololá	1	Sololá	5	Mayo	2023-05-16T00:00:00	2024-11-08T15:00:00	5	Humedad	81
23973	7	Sololá	701	Sololá	1	Sololá	5	Mayo	2023-05-16T00:00:00	2024-11-08T15:00:00	6	Velocidad del viento	6.4
23974	7	Sololá	701	Sololá	1	Sololá	5	Mayo	2023-05-16T00:00:00	2024-11-08T15:00:00	7	Dirección del viento	6.44
23975	7	Sololá	701	Sololá	1	Sololá	5	Mayo	2023-05-16T00:00:00	2024-11-08T15:00:00	1	Precipitación	0
23976	7	Sololá	701	Sololá	1	Sololá	5	Mayo	2023-05-16T00:00:00	2024-11-08T15:00:00	8	Radiación solar	300
23977	7	Sololá	701	Sololá	1	Sololá	5	Mayo	2023-05-16T00:00:00	2024-11-08T16:00:00	2	Temperatura media	17.8
23978	7	Sololá	701	Sololá	1	Sololá	5	Mayo	2023-05-16T00:00:00	2024-11-08T16:00:00	4	Temperatura máxima	19.4
23979	7	Sololá	701	Sololá	1	Sololá	5	Mayo	2023-05-16T00:00:00	2024-11-08T16:00:00	3	Temperatura mínima	17.8
23980	7	Sololá	701	Sololá	1	Sololá	5	Mayo	2023-05-16T00:00:00	2024-11-08T16:00:00	5	Humedad	87
23981	7	Sololá	701	Sololá	1	Sololá	5	Mayo	2023-05-16T00:00:00	2024-11-08T16:00:00	6	Velocidad del viento	6.4
23982	7	Sololá	701	Sololá	1	Sololá	5	Mayo	2023-05-16T00:00:00	2024-11-08T16:00:00	7	Dirección del viento	6.44
23983	7	Sololá	701	Sololá	1	Sololá	5	Mayo	2023-05-16T00:00:00	2024-11-08T16:00:00	1	Precipitación	0
23984	7	Sololá	701	Sololá	1	Sololá	5	Mayo	2023-05-16T00:00:00	2024-11-08T16:00:00	8	Radiación solar	90
23985	7	Sololá	701	Sololá	1	Sololá	5	Mayo	2023-05-16T00:00:00	2024-11-08T17:00:00	2	Temperatura media	17.2
23986	7	Sololá	701	Sololá	1	Sololá	5	Mayo	2023-05-16T00:00:00	2024-11-08T17:00:00	4	Temperatura máxima	17.8
23987	7	Sololá	701	Sololá	1	Sololá	5	Mayo	2023-05-16T00:00:00	2024-11-08T17:00:00	3	Temperatura mínima	17
23988	7	Sololá	701	Sololá	1	Sololá	5	Mayo	2023-05-16T00:00:00	2024-11-08T17:00:00	5	Humedad	90
23989	7	Sololá	701	Sololá	1	Sololá	5	Mayo	2023-05-16T00:00:00	2024-11-08T17:00:00	6	Velocidad del viento	4.8
23990	7	Sololá	701	Sololá	1	Sololá	5	Mayo	2023-05-16T00:00:00	2024-11-08T17:00:00	7	Dirección del viento	4.83
23991	7	Sololá	701	Sololá	1	Sololá	5	Mayo	2023-05-16T00:00:00	2024-11-08T17:00:00	1	Precipitación	0.2
23992	7	Sololá	701	Sololá	1	Sololá	5	Mayo	2023-05-16T00:00:00	2024-11-08T17:00:00	8	Radiación solar	44
23993	7	Sololá	701	Sololá	1	Sololá	5	Mayo	2023-05-16T00:00:00	2024-11-08T18:00:00	2	Temperatura media	17.1
23994	7	Sololá	701	Sololá	1	Sololá	5	Mayo	2023-05-16T00:00:00	2024-11-08T18:00:00	4	Temperatura máxima	17.3
23995	7	Sololá	701	Sololá	1	Sololá	5	Mayo	2023-05-16T00:00:00	2024-11-08T18:00:00	3	Temperatura mínima	16.6
23996	7	Sololá	701	Sololá	1	Sololá	5	Mayo	2023-05-16T00:00:00	2024-11-08T18:00:00	5	Humedad	89
23997	7	Sololá	701	Sololá	1	Sololá	5	Mayo	2023-05-16T00:00:00	2024-11-08T18:00:00	6	Velocidad del viento	1.6
23998	7	Sololá	701	Sololá	1	Sololá	5	Mayo	2023-05-16T00:00:00	2024-11-08T18:00:00	7	Dirección del viento	1.61
23999	7	Sololá	701	Sololá	1	Sololá	5	Mayo	2023-05-16T00:00:00	2024-11-08T18:00:00	1	Precipitación	0
24000	7	Sololá	701	Sololá	1	Sololá	5	Mayo	2023-05-16T00:00:00	2024-11-08T18:00:00	8	Radiación solar	25
24001	7	Sololá	701	Sololá	1	Sololá	5	Mayo	2023-05-16T00:00:00	2024-11-08T19:00:00	2	Temperatura media	15.5
24002	7	Sololá	701	Sololá	1	Sololá	5	Mayo	2023-05-16T00:00:00	2024-11-08T19:00:00	4	Temperatura máxima	17.2
24003	7	Sololá	701	Sololá	1	Sololá	5	Mayo	2023-05-16T00:00:00	2024-11-08T19:00:00	3	Temperatura mínima	15.5
24004	7	Sololá	701	Sololá	1	Sololá	5	Mayo	2023-05-16T00:00:00	2024-11-08T19:00:00	5	Humedad	90
24005	7	Sololá	701	Sololá	1	Sololá	5	Mayo	2023-05-16T00:00:00	2024-11-08T19:00:00	6	Velocidad del viento	3.2
24006	7	Sololá	701	Sololá	1	Sololá	5	Mayo	2023-05-16T00:00:00	2024-11-08T19:00:00	7	Dirección del viento	3.22
24007	7	Sololá	701	Sololá	1	Sololá	5	Mayo	2023-05-16T00:00:00	2024-11-08T19:00:00	1	Precipitación	0
24008	7	Sololá	701	Sololá	1	Sololá	5	Mayo	2023-05-16T00:00:00	2024-11-08T19:00:00	8	Radiación solar	0
24009	7	Sololá	701	Sololá	1	Sololá	5	Mayo	2023-05-16T00:00:00	2024-11-08T20:00:00	2	Temperatura media	15.8
24010	7	Sololá	701	Sololá	1	Sololá	5	Mayo	2023-05-16T00:00:00	2024-11-08T20:00:00	4	Temperatura máxima	15.8
24011	7	Sololá	701	Sololá	1	Sololá	5	Mayo	2023-05-16T00:00:00	2024-11-08T20:00:00	3	Temperatura mínima	15.4
24012	7	Sololá	701	Sololá	1	Sololá	5	Mayo	2023-05-16T00:00:00	2024-11-08T20:00:00	5	Humedad	88
24013	7	Sololá	701	Sololá	1	Sololá	5	Mayo	2023-05-16T00:00:00	2024-11-08T20:00:00	6	Velocidad del viento	1.6
24014	7	Sololá	701	Sololá	1	Sololá	5	Mayo	2023-05-16T00:00:00	2024-11-08T20:00:00	7	Dirección del viento	1.61
24015	7	Sololá	701	Sololá	1	Sololá	5	Mayo	2023-05-16T00:00:00	2024-11-08T20:00:00	1	Precipitación	0
24016	7	Sololá	701	Sololá	1	Sololá	5	Mayo	2023-05-16T00:00:00	2024-11-08T20:00:00	8	Radiación solar	0
24017	7	Sololá	701	Sololá	1	Sololá	5	Mayo	2023-05-16T00:00:00	2024-11-08T21:00:00	2	Temperatura media	15.3
24018	7	Sololá	701	Sololá	1	Sololá	5	Mayo	2023-05-16T00:00:00	2024-11-08T21:00:00	4	Temperatura máxima	15.9
24019	7	Sololá	701	Sololá	1	Sololá	5	Mayo	2023-05-16T00:00:00	2024-11-08T21:00:00	3	Temperatura mínima	15.3
24020	7	Sololá	701	Sololá	1	Sololá	5	Mayo	2023-05-16T00:00:00	2024-11-08T21:00:00	5	Humedad	89
24021	7	Sololá	701	Sololá	1	Sololá	5	Mayo	2023-05-16T00:00:00	2024-11-08T21:00:00	6	Velocidad del viento	1.6
24022	7	Sololá	701	Sololá	1	Sololá	5	Mayo	2023-05-16T00:00:00	2024-11-08T21:00:00	7	Dirección del viento	1.61
24023	7	Sololá	701	Sololá	1	Sololá	5	Mayo	2023-05-16T00:00:00	2024-11-08T21:00:00	1	Precipitación	0
24024	7	Sololá	701	Sololá	1	Sololá	5	Mayo	2023-05-16T00:00:00	2024-11-08T21:00:00	8	Radiación solar	0
24025	7	Sololá	701	Sololá	1	Sololá	5	Mayo	2023-05-16T00:00:00	2024-11-08T22:00:00	2	Temperatura media	15
24026	7	Sololá	701	Sololá	1	Sololá	5	Mayo	2023-05-16T00:00:00	2024-11-08T22:00:00	4	Temperatura máxima	15.3
24027	7	Sololá	701	Sololá	1	Sololá	5	Mayo	2023-05-16T00:00:00	2024-11-08T22:00:00	3	Temperatura mínima	14.9
24028	7	Sololá	701	Sololá	1	Sololá	5	Mayo	2023-05-16T00:00:00	2024-11-08T22:00:00	5	Humedad	90
24029	7	Sololá	701	Sololá	1	Sololá	5	Mayo	2023-05-16T00:00:00	2024-11-08T22:00:00	6	Velocidad del viento	3.2
24030	7	Sololá	701	Sololá	1	Sololá	5	Mayo	2023-05-16T00:00:00	2024-11-08T22:00:00	7	Dirección del viento	3.22
24031	7	Sololá	701	Sololá	1	Sololá	5	Mayo	2023-05-16T00:00:00	2024-11-08T22:00:00	1	Precipitación	0
24032	7	Sololá	701	Sololá	1	Sololá	5	Mayo	2023-05-16T00:00:00	2024-11-08T22:00:00	8	Radiación solar	0
24033	7	Sololá	701	Sololá	1	Sololá	5	Mayo	2023-05-16T00:00:00	2024-11-08T23:00:00	2	Temperatura media	15.4
24034	7	Sololá	701	Sololá	1	Sololá	5	Mayo	2023-05-16T00:00:00	2024-11-08T23:00:00	4	Temperatura máxima	15.7
24035	7	Sololá	701	Sololá	1	Sololá	5	Mayo	2023-05-16T00:00:00	2024-11-08T23:00:00	3	Temperatura mínima	15
24036	7	Sololá	701	Sololá	1	Sololá	5	Mayo	2023-05-16T00:00:00	2024-11-08T23:00:00	5	Humedad	87
24037	7	Sololá	701	Sololá	1	Sololá	5	Mayo	2023-05-16T00:00:00	2024-11-08T23:00:00	6	Velocidad del viento	3.2
24038	7	Sololá	701	Sololá	1	Sololá	5	Mayo	2023-05-16T00:00:00	2024-11-08T23:00:00	7	Dirección del viento	3.22
24039	7	Sololá	701	Sololá	1	Sololá	5	Mayo	2023-05-16T00:00:00	2024-11-08T23:00:00	1	Precipitación	0
24040	7	Sololá	701	Sololá	1	Sololá	5	Mayo	2023-05-16T00:00:00	2024-11-08T23:00:00	8	Radiación solar	0
24041	7	Sololá	701	Sololá	1	Sololá	5	Mayo	2023-05-17T00:00:00	2024-11-08T00:00:00	2	Temperatura media	14.8
24042	7	Sololá	701	Sololá	1	Sololá	5	Mayo	2023-05-17T00:00:00	2024-11-08T00:00:00	4	Temperatura máxima	16.2
24043	7	Sololá	701	Sololá	1	Sololá	5	Mayo	2023-05-17T00:00:00	2024-11-08T00:00:00	3	Temperatura mínima	14.8
24044	7	Sololá	701	Sololá	1	Sololá	5	Mayo	2023-05-17T00:00:00	2024-11-08T00:00:00	5	Humedad	85
24045	7	Sololá	701	Sololá	1	Sololá	5	Mayo	2023-05-17T00:00:00	2024-11-08T00:00:00	6	Velocidad del viento	6.4
24046	7	Sololá	701	Sololá	1	Sololá	5	Mayo	2023-05-17T00:00:00	2024-11-08T00:00:00	7	Dirección del viento	6.44
24047	7	Sololá	701	Sololá	1	Sololá	5	Mayo	2023-05-17T00:00:00	2024-11-08T00:00:00	1	Precipitación	0
24048	7	Sololá	701	Sololá	1	Sololá	5	Mayo	2023-05-17T00:00:00	2024-11-08T00:00:00	8	Radiación solar	0
24049	7	Sololá	701	Sololá	1	Sololá	5	Mayo	2023-05-17T00:00:00	2024-11-08T01:00:00	2	Temperatura media	14.7
24050	7	Sololá	701	Sololá	1	Sololá	5	Mayo	2023-05-17T00:00:00	2024-11-08T01:00:00	4	Temperatura máxima	15.1
24051	7	Sololá	701	Sololá	1	Sololá	5	Mayo	2023-05-17T00:00:00	2024-11-08T01:00:00	3	Temperatura mínima	14.6
24052	7	Sololá	701	Sololá	1	Sololá	5	Mayo	2023-05-17T00:00:00	2024-11-08T01:00:00	5	Humedad	84
24053	7	Sololá	701	Sololá	1	Sololá	5	Mayo	2023-05-17T00:00:00	2024-11-08T01:00:00	6	Velocidad del viento	4.8
24054	7	Sololá	701	Sololá	1	Sololá	5	Mayo	2023-05-17T00:00:00	2024-11-08T01:00:00	7	Dirección del viento	4.83
24055	7	Sololá	701	Sololá	1	Sololá	5	Mayo	2023-05-17T00:00:00	2024-11-08T01:00:00	1	Precipitación	0
24056	7	Sololá	701	Sololá	1	Sololá	5	Mayo	2023-05-17T00:00:00	2024-11-08T01:00:00	8	Radiación solar	0
24057	7	Sololá	701	Sololá	1	Sololá	5	Mayo	2023-05-17T00:00:00	2024-11-08T02:00:00	2	Temperatura media	13.9
24058	7	Sololá	701	Sololá	1	Sololá	5	Mayo	2023-05-17T00:00:00	2024-11-08T02:00:00	4	Temperatura máxima	14.7
24059	7	Sololá	701	Sololá	1	Sololá	5	Mayo	2023-05-17T00:00:00	2024-11-08T02:00:00	3	Temperatura mínima	13.8
24060	7	Sololá	701	Sololá	1	Sololá	5	Mayo	2023-05-17T00:00:00	2024-11-08T02:00:00	5	Humedad	86
24061	7	Sololá	701	Sololá	1	Sololá	5	Mayo	2023-05-17T00:00:00	2024-11-08T02:00:00	6	Velocidad del viento	6.4
24062	7	Sololá	701	Sololá	1	Sololá	5	Mayo	2023-05-17T00:00:00	2024-11-08T02:00:00	7	Dirección del viento	6.44
24063	7	Sololá	701	Sololá	1	Sololá	5	Mayo	2023-05-17T00:00:00	2024-11-08T02:00:00	1	Precipitación	0
24064	7	Sololá	701	Sololá	1	Sololá	5	Mayo	2023-05-17T00:00:00	2024-11-08T02:00:00	8	Radiación solar	0
24065	7	Sololá	701	Sololá	1	Sololá	5	Mayo	2023-05-17T00:00:00	2024-11-08T03:00:00	2	Temperatura media	12.8
24066	7	Sololá	701	Sololá	1	Sololá	5	Mayo	2023-05-17T00:00:00	2024-11-08T03:00:00	4	Temperatura máxima	13.8
24067	7	Sololá	701	Sololá	1	Sololá	5	Mayo	2023-05-17T00:00:00	2024-11-08T03:00:00	3	Temperatura mínima	12.8
24068	7	Sololá	701	Sololá	1	Sololá	5	Mayo	2023-05-17T00:00:00	2024-11-08T03:00:00	5	Humedad	88
24069	7	Sololá	701	Sololá	1	Sololá	5	Mayo	2023-05-17T00:00:00	2024-11-08T03:00:00	6	Velocidad del viento	6.4
24070	7	Sololá	701	Sololá	1	Sololá	5	Mayo	2023-05-17T00:00:00	2024-11-08T03:00:00	7	Dirección del viento	6.44
24071	7	Sololá	701	Sololá	1	Sololá	5	Mayo	2023-05-17T00:00:00	2024-11-08T03:00:00	1	Precipitación	0
24072	7	Sololá	701	Sololá	1	Sololá	5	Mayo	2023-05-17T00:00:00	2024-11-08T03:00:00	8	Radiación solar	0
24073	7	Sololá	701	Sololá	1	Sololá	5	Mayo	2023-05-17T00:00:00	2024-11-08T04:00:00	2	Temperatura media	13.1
24074	7	Sololá	701	Sololá	1	Sololá	5	Mayo	2023-05-17T00:00:00	2024-11-08T04:00:00	4	Temperatura máxima	13.7
24075	7	Sololá	701	Sololá	1	Sololá	5	Mayo	2023-05-17T00:00:00	2024-11-08T04:00:00	3	Temperatura mínima	12.7
24076	7	Sololá	701	Sololá	1	Sololá	5	Mayo	2023-05-17T00:00:00	2024-11-08T04:00:00	5	Humedad	84
24077	7	Sololá	701	Sololá	1	Sololá	5	Mayo	2023-05-17T00:00:00	2024-11-08T04:00:00	6	Velocidad del viento	6.4
24078	7	Sololá	701	Sololá	1	Sololá	5	Mayo	2023-05-17T00:00:00	2024-11-08T04:00:00	7	Dirección del viento	6.44
24079	7	Sololá	701	Sololá	1	Sololá	5	Mayo	2023-05-17T00:00:00	2024-11-08T04:00:00	1	Precipitación	0
24080	7	Sololá	701	Sololá	1	Sololá	5	Mayo	2023-05-17T00:00:00	2024-11-08T04:00:00	8	Radiación solar	0
24081	7	Sololá	701	Sololá	1	Sololá	5	Mayo	2023-05-17T00:00:00	2024-11-08T05:00:00	2	Temperatura media	12.8
24082	7	Sololá	701	Sololá	1	Sololá	5	Mayo	2023-05-17T00:00:00	2024-11-08T05:00:00	4	Temperatura máxima	13.3
24083	7	Sololá	701	Sololá	1	Sololá	5	Mayo	2023-05-17T00:00:00	2024-11-08T05:00:00	3	Temperatura mínima	12.7
24084	7	Sololá	701	Sololá	1	Sololá	5	Mayo	2023-05-17T00:00:00	2024-11-08T05:00:00	5	Humedad	84
24085	7	Sololá	701	Sololá	1	Sololá	5	Mayo	2023-05-17T00:00:00	2024-11-08T05:00:00	6	Velocidad del viento	3.2
24086	7	Sololá	701	Sololá	1	Sololá	5	Mayo	2023-05-17T00:00:00	2024-11-08T05:00:00	7	Dirección del viento	3.22
24087	7	Sololá	701	Sololá	1	Sololá	5	Mayo	2023-05-17T00:00:00	2024-11-08T05:00:00	1	Precipitación	0
24088	7	Sololá	701	Sololá	1	Sololá	5	Mayo	2023-05-17T00:00:00	2024-11-08T05:00:00	8	Radiación solar	0
24089	7	Sololá	701	Sololá	1	Sololá	5	Mayo	2023-05-17T00:00:00	2024-11-08T06:00:00	2	Temperatura media	13.3
24090	7	Sololá	701	Sololá	1	Sololá	5	Mayo	2023-05-17T00:00:00	2024-11-08T06:00:00	4	Temperatura máxima	13.6
24091	7	Sololá	701	Sololá	1	Sololá	5	Mayo	2023-05-17T00:00:00	2024-11-08T06:00:00	3	Temperatura mínima	12.7
24092	7	Sololá	701	Sololá	1	Sololá	5	Mayo	2023-05-17T00:00:00	2024-11-08T06:00:00	5	Humedad	81
24093	7	Sololá	701	Sololá	1	Sololá	5	Mayo	2023-05-17T00:00:00	2024-11-08T06:00:00	6	Velocidad del viento	1.6
24094	7	Sololá	701	Sololá	1	Sololá	5	Mayo	2023-05-17T00:00:00	2024-11-08T06:00:00	7	Dirección del viento	1.61
24095	7	Sololá	701	Sololá	1	Sololá	5	Mayo	2023-05-17T00:00:00	2024-11-08T06:00:00	1	Precipitación	0
24096	7	Sololá	701	Sololá	1	Sololá	5	Mayo	2023-05-17T00:00:00	2024-11-08T06:00:00	8	Radiación solar	3
24097	7	Sololá	701	Sololá	1	Sololá	5	Mayo	2023-05-17T00:00:00	2024-11-08T07:00:00	2	Temperatura media	16.1
24098	7	Sololá	701	Sololá	1	Sololá	5	Mayo	2023-05-17T00:00:00	2024-11-08T07:00:00	4	Temperatura máxima	16.1
24099	7	Sololá	701	Sololá	1	Sololá	5	Mayo	2023-05-17T00:00:00	2024-11-08T07:00:00	3	Temperatura mínima	13.3
24100	7	Sololá	701	Sololá	1	Sololá	5	Mayo	2023-05-17T00:00:00	2024-11-08T07:00:00	5	Humedad	75
24101	7	Sololá	701	Sololá	1	Sololá	5	Mayo	2023-05-17T00:00:00	2024-11-08T07:00:00	6	Velocidad del viento	1.6
24102	7	Sololá	701	Sololá	1	Sololá	5	Mayo	2023-05-17T00:00:00	2024-11-08T07:00:00	7	Dirección del viento	1.61
24103	7	Sololá	701	Sololá	1	Sololá	5	Mayo	2023-05-17T00:00:00	2024-11-08T07:00:00	1	Precipitación	0
24104	7	Sololá	701	Sololá	1	Sololá	5	Mayo	2023-05-17T00:00:00	2024-11-08T07:00:00	8	Radiación solar	22
24105	7	Sololá	701	Sololá	1	Sololá	5	Mayo	2023-05-17T00:00:00	2024-11-08T08:00:00	2	Temperatura media	18.2
24106	7	Sololá	701	Sololá	1	Sololá	5	Mayo	2023-05-17T00:00:00	2024-11-08T08:00:00	4	Temperatura máxima	18.2
24107	7	Sololá	701	Sololá	1	Sololá	5	Mayo	2023-05-17T00:00:00	2024-11-08T08:00:00	3	Temperatura mínima	16.1
24108	7	Sololá	701	Sololá	1	Sololá	5	Mayo	2023-05-17T00:00:00	2024-11-08T08:00:00	5	Humedad	68
24109	7	Sololá	701	Sololá	1	Sololá	5	Mayo	2023-05-17T00:00:00	2024-11-08T08:00:00	6	Velocidad del viento	1.6
24110	7	Sololá	701	Sololá	1	Sololá	5	Mayo	2023-05-17T00:00:00	2024-11-08T08:00:00	7	Dirección del viento	1.61
24111	7	Sololá	701	Sololá	1	Sololá	5	Mayo	2023-05-17T00:00:00	2024-11-08T08:00:00	1	Precipitación	0
24112	7	Sololá	701	Sololá	1	Sololá	5	Mayo	2023-05-17T00:00:00	2024-11-08T08:00:00	8	Radiación solar	66
24113	7	Sololá	701	Sololá	1	Sololá	5	Mayo	2023-05-17T00:00:00	2024-11-08T09:00:00	2	Temperatura media	20.3
24114	7	Sololá	701	Sololá	1	Sololá	5	Mayo	2023-05-17T00:00:00	2024-11-08T09:00:00	4	Temperatura máxima	20.4
24115	7	Sololá	701	Sololá	1	Sololá	5	Mayo	2023-05-17T00:00:00	2024-11-08T09:00:00	3	Temperatura mínima	18.1
24116	7	Sololá	701	Sololá	1	Sololá	5	Mayo	2023-05-17T00:00:00	2024-11-08T09:00:00	5	Humedad	68
24117	7	Sololá	701	Sololá	1	Sololá	5	Mayo	2023-05-17T00:00:00	2024-11-08T09:00:00	6	Velocidad del viento	3.2
24118	7	Sololá	701	Sololá	1	Sololá	5	Mayo	2023-05-17T00:00:00	2024-11-08T09:00:00	7	Dirección del viento	3.22
24119	7	Sololá	701	Sololá	1	Sololá	5	Mayo	2023-05-17T00:00:00	2024-11-08T09:00:00	1	Precipitación	0
24120	7	Sololá	701	Sololá	1	Sololá	5	Mayo	2023-05-17T00:00:00	2024-11-08T09:00:00	8	Radiación solar	518
24121	7	Sololá	701	Sololá	1	Sololá	5	Mayo	2023-05-17T00:00:00	2024-11-08T10:00:00	2	Temperatura media	20.9
24122	7	Sololá	701	Sololá	1	Sololá	5	Mayo	2023-05-17T00:00:00	2024-11-08T10:00:00	4	Temperatura máxima	20.9
24123	7	Sololá	701	Sololá	1	Sololá	5	Mayo	2023-05-17T00:00:00	2024-11-08T10:00:00	3	Temperatura mínima	20
24124	7	Sololá	701	Sololá	1	Sololá	5	Mayo	2023-05-17T00:00:00	2024-11-08T10:00:00	5	Humedad	61
24125	7	Sololá	701	Sololá	1	Sololá	5	Mayo	2023-05-17T00:00:00	2024-11-08T10:00:00	6	Velocidad del viento	4.8
24126	7	Sololá	701	Sololá	1	Sololá	5	Mayo	2023-05-17T00:00:00	2024-11-08T10:00:00	7	Dirección del viento	4.83
24127	7	Sololá	701	Sololá	1	Sololá	5	Mayo	2023-05-17T00:00:00	2024-11-08T10:00:00	1	Precipitación	0
24128	7	Sololá	701	Sololá	1	Sololá	5	Mayo	2023-05-17T00:00:00	2024-11-08T10:00:00	8	Radiación solar	780
24129	7	Sololá	701	Sololá	1	Sololá	5	Mayo	2023-05-17T00:00:00	2024-11-08T11:00:00	2	Temperatura media	21.9
24130	7	Sololá	701	Sololá	1	Sololá	5	Mayo	2023-05-17T00:00:00	2024-11-08T11:00:00	4	Temperatura máxima	22.3
24131	7	Sololá	701	Sololá	1	Sololá	5	Mayo	2023-05-17T00:00:00	2024-11-08T11:00:00	3	Temperatura mínima	20.9
24132	7	Sololá	701	Sololá	1	Sololá	5	Mayo	2023-05-17T00:00:00	2024-11-08T11:00:00	5	Humedad	57
24133	7	Sololá	701	Sololá	1	Sololá	5	Mayo	2023-05-17T00:00:00	2024-11-08T11:00:00	6	Velocidad del viento	4.8
24134	7	Sololá	701	Sololá	1	Sololá	5	Mayo	2023-05-17T00:00:00	2024-11-08T11:00:00	7	Dirección del viento	4.83
24135	7	Sololá	701	Sololá	1	Sololá	5	Mayo	2023-05-17T00:00:00	2024-11-08T11:00:00	1	Precipitación	0
24136	7	Sololá	701	Sololá	1	Sololá	5	Mayo	2023-05-17T00:00:00	2024-11-08T11:00:00	8	Radiación solar	927
24137	7	Sololá	701	Sololá	1	Sololá	5	Mayo	2023-05-17T00:00:00	2024-11-08T12:00:00	2	Temperatura media	22.1
24138	7	Sololá	701	Sololá	1	Sololá	5	Mayo	2023-05-17T00:00:00	2024-11-08T12:00:00	4	Temperatura máxima	22.2
24139	7	Sololá	701	Sololá	1	Sololá	5	Mayo	2023-05-17T00:00:00	2024-11-08T12:00:00	3	Temperatura mínima	21.5
24140	7	Sololá	701	Sololá	1	Sololá	5	Mayo	2023-05-17T00:00:00	2024-11-08T12:00:00	5	Humedad	65
24141	7	Sololá	701	Sololá	1	Sololá	5	Mayo	2023-05-17T00:00:00	2024-11-08T12:00:00	6	Velocidad del viento	6.4
24142	7	Sololá	701	Sololá	1	Sololá	5	Mayo	2023-05-17T00:00:00	2024-11-08T12:00:00	7	Dirección del viento	6.44
24143	7	Sololá	701	Sololá	1	Sololá	5	Mayo	2023-05-17T00:00:00	2024-11-08T12:00:00	1	Precipitación	0
24144	7	Sololá	701	Sololá	1	Sololá	5	Mayo	2023-05-17T00:00:00	2024-11-08T12:00:00	8	Radiación solar	1002
24145	7	Sololá	701	Sololá	1	Sololá	5	Mayo	2023-05-17T00:00:00	2024-11-08T13:00:00	2	Temperatura media	22.6
24146	7	Sololá	701	Sololá	1	Sololá	5	Mayo	2023-05-17T00:00:00	2024-11-08T13:00:00	4	Temperatura máxima	22.6
24147	7	Sololá	701	Sololá	1	Sololá	5	Mayo	2023-05-17T00:00:00	2024-11-08T13:00:00	3	Temperatura mínima	21.8
24148	7	Sololá	701	Sololá	1	Sololá	5	Mayo	2023-05-17T00:00:00	2024-11-08T13:00:00	5	Humedad	65
24149	7	Sololá	701	Sololá	1	Sololá	5	Mayo	2023-05-17T00:00:00	2024-11-08T13:00:00	6	Velocidad del viento	6.4
24150	7	Sololá	701	Sololá	1	Sololá	5	Mayo	2023-05-17T00:00:00	2024-11-08T13:00:00	7	Dirección del viento	6.44
24151	7	Sololá	701	Sololá	1	Sololá	5	Mayo	2023-05-17T00:00:00	2024-11-08T13:00:00	1	Precipitación	0
24152	7	Sololá	701	Sololá	1	Sololá	5	Mayo	2023-05-17T00:00:00	2024-11-08T13:00:00	8	Radiación solar	565
24153	7	Sololá	701	Sololá	1	Sololá	5	Mayo	2023-05-17T00:00:00	2024-11-08T14:00:00	2	Temperatura media	20.5
24154	7	Sololá	701	Sololá	1	Sololá	5	Mayo	2023-05-17T00:00:00	2024-11-08T14:00:00	4	Temperatura máxima	22.8
24155	7	Sololá	701	Sololá	1	Sololá	5	Mayo	2023-05-17T00:00:00	2024-11-08T14:00:00	3	Temperatura mínima	20.4
24156	7	Sololá	701	Sololá	1	Sololá	5	Mayo	2023-05-17T00:00:00	2024-11-08T14:00:00	5	Humedad	80
24157	7	Sololá	701	Sololá	1	Sololá	5	Mayo	2023-05-17T00:00:00	2024-11-08T14:00:00	6	Velocidad del viento	8
24158	7	Sololá	701	Sololá	1	Sololá	5	Mayo	2023-05-17T00:00:00	2024-11-08T14:00:00	7	Dirección del viento	8.05
24159	7	Sololá	701	Sololá	1	Sololá	5	Mayo	2023-05-17T00:00:00	2024-11-08T14:00:00	1	Precipitación	0
24160	7	Sololá	701	Sololá	1	Sololá	5	Mayo	2023-05-17T00:00:00	2024-11-08T14:00:00	8	Radiación solar	904
24161	7	Sololá	701	Sololá	1	Sololá	5	Mayo	2023-05-17T00:00:00	2024-11-08T15:00:00	2	Temperatura media	19
24162	7	Sololá	701	Sololá	1	Sololá	5	Mayo	2023-05-17T00:00:00	2024-11-08T15:00:00	4	Temperatura máxima	21.2
24163	7	Sololá	701	Sololá	1	Sololá	5	Mayo	2023-05-17T00:00:00	2024-11-08T15:00:00	3	Temperatura mínima	19
24164	7	Sololá	701	Sololá	1	Sololá	5	Mayo	2023-05-17T00:00:00	2024-11-08T15:00:00	5	Humedad	86
24165	7	Sololá	701	Sololá	1	Sololá	5	Mayo	2023-05-17T00:00:00	2024-11-08T15:00:00	6	Velocidad del viento	6.4
24166	7	Sololá	701	Sololá	1	Sololá	5	Mayo	2023-05-17T00:00:00	2024-11-08T15:00:00	7	Dirección del viento	6.44
24167	7	Sololá	701	Sololá	1	Sololá	5	Mayo	2023-05-17T00:00:00	2024-11-08T15:00:00	1	Precipitación	0
24168	7	Sololá	701	Sololá	1	Sololá	5	Mayo	2023-05-17T00:00:00	2024-11-08T15:00:00	8	Radiación solar	297
24169	7	Sololá	701	Sololá	1	Sololá	5	Mayo	2023-05-17T00:00:00	2024-11-08T16:00:00	2	Temperatura media	18.6
24170	7	Sololá	701	Sololá	1	Sololá	5	Mayo	2023-05-17T00:00:00	2024-11-08T16:00:00	4	Temperatura máxima	19
24171	7	Sololá	701	Sololá	1	Sololá	5	Mayo	2023-05-17T00:00:00	2024-11-08T16:00:00	3	Temperatura mínima	18.2
24172	7	Sololá	701	Sololá	1	Sololá	5	Mayo	2023-05-17T00:00:00	2024-11-08T16:00:00	5	Humedad	88
24173	7	Sololá	701	Sololá	1	Sololá	5	Mayo	2023-05-17T00:00:00	2024-11-08T16:00:00	6	Velocidad del viento	6.4
24174	7	Sololá	701	Sololá	1	Sololá	5	Mayo	2023-05-17T00:00:00	2024-11-08T16:00:00	7	Dirección del viento	6.44
24175	7	Sololá	701	Sololá	1	Sololá	5	Mayo	2023-05-17T00:00:00	2024-11-08T16:00:00	1	Precipitación	0
24176	7	Sololá	701	Sololá	1	Sololá	5	Mayo	2023-05-17T00:00:00	2024-11-08T16:00:00	8	Radiación solar	153
24177	7	Sololá	701	Sololá	1	Sololá	5	Mayo	2023-05-17T00:00:00	2024-11-08T17:00:00	2	Temperatura media	18.1
24178	7	Sololá	701	Sololá	1	Sololá	5	Mayo	2023-05-17T00:00:00	2024-11-08T17:00:00	4	Temperatura máxima	18.8
24179	7	Sololá	701	Sololá	1	Sololá	5	Mayo	2023-05-17T00:00:00	2024-11-08T17:00:00	3	Temperatura mínima	18
24180	7	Sololá	701	Sololá	1	Sololá	5	Mayo	2023-05-17T00:00:00	2024-11-08T17:00:00	5	Humedad	89
24181	7	Sololá	701	Sololá	1	Sololá	5	Mayo	2023-05-17T00:00:00	2024-11-08T17:00:00	6	Velocidad del viento	3.2
24182	7	Sololá	701	Sololá	1	Sololá	5	Mayo	2023-05-17T00:00:00	2024-11-08T17:00:00	7	Dirección del viento	3.22
24183	7	Sololá	701	Sololá	1	Sololá	5	Mayo	2023-05-17T00:00:00	2024-11-08T17:00:00	1	Precipitación	0
24184	7	Sololá	701	Sololá	1	Sololá	5	Mayo	2023-05-17T00:00:00	2024-11-08T17:00:00	8	Radiación solar	87
24185	7	Sololá	701	Sololá	1	Sololá	5	Mayo	2023-05-17T00:00:00	2024-11-08T18:00:00	2	Temperatura media	17.2
24186	7	Sololá	701	Sololá	1	Sololá	5	Mayo	2023-05-17T00:00:00	2024-11-08T18:00:00	4	Temperatura máxima	18.1
24187	7	Sololá	701	Sololá	1	Sololá	5	Mayo	2023-05-17T00:00:00	2024-11-08T18:00:00	3	Temperatura mínima	17.2
24188	7	Sololá	701	Sololá	1	Sololá	5	Mayo	2023-05-17T00:00:00	2024-11-08T18:00:00	5	Humedad	90
24189	7	Sololá	701	Sololá	1	Sololá	5	Mayo	2023-05-17T00:00:00	2024-11-08T18:00:00	6	Velocidad del viento	3.2
24190	7	Sololá	701	Sololá	1	Sololá	5	Mayo	2023-05-17T00:00:00	2024-11-08T18:00:00	7	Dirección del viento	3.22
24191	7	Sololá	701	Sololá	1	Sololá	5	Mayo	2023-05-17T00:00:00	2024-11-08T18:00:00	1	Precipitación	0
24192	7	Sololá	701	Sololá	1	Sololá	5	Mayo	2023-05-17T00:00:00	2024-11-08T18:00:00	8	Radiación solar	58
24193	7	Sololá	701	Sololá	1	Sololá	5	Mayo	2023-05-17T00:00:00	2024-11-08T19:00:00	2	Temperatura media	16.4
24194	7	Sololá	701	Sololá	1	Sololá	5	Mayo	2023-05-17T00:00:00	2024-11-08T19:00:00	4	Temperatura máxima	17.3
24195	7	Sololá	701	Sololá	1	Sololá	5	Mayo	2023-05-17T00:00:00	2024-11-08T19:00:00	3	Temperatura mínima	16.4
24196	7	Sololá	701	Sololá	1	Sololá	5	Mayo	2023-05-17T00:00:00	2024-11-08T19:00:00	5	Humedad	91
24197	7	Sololá	701	Sololá	1	Sololá	5	Mayo	2023-05-17T00:00:00	2024-11-08T19:00:00	6	Velocidad del viento	3.2
24198	7	Sololá	701	Sololá	1	Sololá	5	Mayo	2023-05-17T00:00:00	2024-11-08T19:00:00	7	Dirección del viento	3.22
24199	7	Sololá	701	Sololá	1	Sololá	5	Mayo	2023-05-17T00:00:00	2024-11-08T19:00:00	1	Precipitación	2.4
24200	7	Sololá	701	Sololá	1	Sololá	5	Mayo	2023-05-17T00:00:00	2024-11-08T19:00:00	8	Radiación solar	0
24201	7	Sololá	701	Sololá	1	Sololá	5	Mayo	2023-05-17T00:00:00	2024-11-08T20:00:00	2	Temperatura media	16.2
24202	7	Sololá	701	Sololá	1	Sololá	5	Mayo	2023-05-17T00:00:00	2024-11-08T20:00:00	4	Temperatura máxima	16.7
24203	7	Sololá	701	Sololá	1	Sololá	5	Mayo	2023-05-17T00:00:00	2024-11-08T20:00:00	3	Temperatura mínima	16.2
24204	7	Sololá	701	Sololá	1	Sololá	5	Mayo	2023-05-17T00:00:00	2024-11-08T20:00:00	5	Humedad	92
24205	7	Sololá	701	Sololá	1	Sololá	5	Mayo	2023-05-17T00:00:00	2024-11-08T20:00:00	6	Velocidad del viento	1.6
24206	7	Sololá	701	Sololá	1	Sololá	5	Mayo	2023-05-17T00:00:00	2024-11-08T20:00:00	7	Dirección del viento	1.61
24207	7	Sololá	701	Sololá	1	Sololá	5	Mayo	2023-05-17T00:00:00	2024-11-08T20:00:00	1	Precipitación	0
24208	7	Sololá	701	Sololá	1	Sololá	5	Mayo	2023-05-17T00:00:00	2024-11-08T20:00:00	8	Radiación solar	0
24209	7	Sololá	701	Sololá	1	Sololá	5	Mayo	2023-05-17T00:00:00	2024-11-08T21:00:00	2	Temperatura media	16.4
24210	7	Sololá	701	Sololá	1	Sololá	5	Mayo	2023-05-17T00:00:00	2024-11-08T21:00:00	4	Temperatura máxima	16.4
24211	7	Sololá	701	Sololá	1	Sololá	5	Mayo	2023-05-17T00:00:00	2024-11-08T21:00:00	3	Temperatura mínima	16
24212	7	Sololá	701	Sololá	1	Sololá	5	Mayo	2023-05-17T00:00:00	2024-11-08T21:00:00	5	Humedad	89
24213	7	Sololá	701	Sololá	1	Sololá	5	Mayo	2023-05-17T00:00:00	2024-11-08T21:00:00	6	Velocidad del viento	1.6
24214	7	Sololá	701	Sololá	1	Sololá	5	Mayo	2023-05-17T00:00:00	2024-11-08T21:00:00	7	Dirección del viento	1.61
24215	7	Sololá	701	Sololá	1	Sololá	5	Mayo	2023-05-17T00:00:00	2024-11-08T21:00:00	1	Precipitación	0
24216	7	Sololá	701	Sololá	1	Sololá	5	Mayo	2023-05-17T00:00:00	2024-11-08T21:00:00	8	Radiación solar	0
24217	7	Sololá	701	Sololá	1	Sololá	5	Mayo	2023-05-17T00:00:00	2024-11-08T22:00:00	2	Temperatura media	15.5
24218	7	Sololá	701	Sololá	1	Sololá	5	Mayo	2023-05-17T00:00:00	2024-11-08T22:00:00	4	Temperatura máxima	16.4
24219	7	Sololá	701	Sololá	1	Sololá	5	Mayo	2023-05-17T00:00:00	2024-11-08T22:00:00	3	Temperatura mínima	15.5
24220	7	Sololá	701	Sololá	1	Sololá	5	Mayo	2023-05-17T00:00:00	2024-11-08T22:00:00	5	Humedad	92
24221	7	Sololá	701	Sololá	1	Sololá	5	Mayo	2023-05-17T00:00:00	2024-11-08T22:00:00	6	Velocidad del viento	1.6
24222	7	Sololá	701	Sololá	1	Sololá	5	Mayo	2023-05-17T00:00:00	2024-11-08T22:00:00	7	Dirección del viento	1.61
24223	7	Sololá	701	Sololá	1	Sololá	5	Mayo	2023-05-17T00:00:00	2024-11-08T22:00:00	1	Precipitación	0
24224	7	Sololá	701	Sololá	1	Sololá	5	Mayo	2023-05-17T00:00:00	2024-11-08T22:00:00	8	Radiación solar	0
24225	7	Sololá	701	Sololá	1	Sololá	5	Mayo	2023-05-17T00:00:00	2024-11-08T23:00:00	2	Temperatura media	15.9
24226	7	Sololá	701	Sololá	1	Sololá	5	Mayo	2023-05-17T00:00:00	2024-11-08T23:00:00	4	Temperatura máxima	15.9
24227	7	Sololá	701	Sololá	1	Sololá	5	Mayo	2023-05-17T00:00:00	2024-11-08T23:00:00	3	Temperatura mínima	15.3
24228	7	Sololá	701	Sololá	1	Sololá	5	Mayo	2023-05-17T00:00:00	2024-11-08T23:00:00	5	Humedad	89
24229	7	Sololá	701	Sololá	1	Sololá	5	Mayo	2023-05-17T00:00:00	2024-11-08T23:00:00	6	Velocidad del viento	1.6
24230	7	Sololá	701	Sololá	1	Sololá	5	Mayo	2023-05-17T00:00:00	2024-11-08T23:00:00	7	Dirección del viento	1.61
24231	7	Sololá	701	Sololá	1	Sololá	5	Mayo	2023-05-17T00:00:00	2024-11-08T23:00:00	1	Precipitación	0
24232	7	Sololá	701	Sololá	1	Sololá	5	Mayo	2023-05-17T00:00:00	2024-11-08T23:00:00	8	Radiación solar	0
24233	7	Sololá	701	Sololá	1	Sololá	5	Mayo	2023-05-18T00:00:00	2024-11-08T00:00:00	2	Temperatura media	14.9
24234	7	Sololá	701	Sololá	1	Sololá	5	Mayo	2023-05-18T00:00:00	2024-11-08T00:00:00	4	Temperatura máxima	15.9
24235	7	Sololá	701	Sololá	1	Sololá	5	Mayo	2023-05-18T00:00:00	2024-11-08T00:00:00	3	Temperatura mínima	14.9
24236	7	Sololá	701	Sololá	1	Sololá	5	Mayo	2023-05-18T00:00:00	2024-11-08T00:00:00	5	Humedad	89
24237	7	Sololá	701	Sololá	1	Sololá	5	Mayo	2023-05-18T00:00:00	2024-11-08T00:00:00	6	Velocidad del viento	3.2
24238	7	Sololá	701	Sololá	1	Sololá	5	Mayo	2023-05-18T00:00:00	2024-11-08T00:00:00	7	Dirección del viento	3.22
24239	7	Sololá	701	Sololá	1	Sololá	5	Mayo	2023-05-18T00:00:00	2024-11-08T00:00:00	1	Precipitación	0
24240	7	Sololá	701	Sololá	1	Sololá	5	Mayo	2023-05-18T00:00:00	2024-11-08T00:00:00	8	Radiación solar	0
24241	7	Sololá	701	Sololá	1	Sololá	5	Mayo	2023-05-18T00:00:00	2024-11-08T01:00:00	2	Temperatura media	14.6
24242	7	Sololá	701	Sololá	1	Sololá	5	Mayo	2023-05-18T00:00:00	2024-11-08T01:00:00	4	Temperatura máxima	15.1
24243	7	Sololá	701	Sololá	1	Sololá	5	Mayo	2023-05-18T00:00:00	2024-11-08T01:00:00	3	Temperatura mínima	14.4
24244	7	Sololá	701	Sololá	1	Sololá	5	Mayo	2023-05-18T00:00:00	2024-11-08T01:00:00	5	Humedad	90
24245	7	Sololá	701	Sololá	1	Sololá	5	Mayo	2023-05-18T00:00:00	2024-11-08T01:00:00	6	Velocidad del viento	3.2
24246	7	Sololá	701	Sololá	1	Sololá	5	Mayo	2023-05-18T00:00:00	2024-11-08T01:00:00	7	Dirección del viento	3.22
24247	7	Sololá	701	Sololá	1	Sololá	5	Mayo	2023-05-18T00:00:00	2024-11-08T01:00:00	1	Precipitación	0
24248	7	Sololá	701	Sololá	1	Sololá	5	Mayo	2023-05-18T00:00:00	2024-11-08T01:00:00	8	Radiación solar	0
24249	7	Sololá	701	Sololá	1	Sololá	5	Mayo	2023-05-18T00:00:00	2024-11-08T02:00:00	2	Temperatura media	13.7
24250	7	Sololá	701	Sololá	1	Sololá	5	Mayo	2023-05-18T00:00:00	2024-11-08T02:00:00	4	Temperatura máxima	14.9
24251	7	Sololá	701	Sololá	1	Sololá	5	Mayo	2023-05-18T00:00:00	2024-11-08T02:00:00	3	Temperatura mínima	13.7
24252	7	Sololá	701	Sololá	1	Sololá	5	Mayo	2023-05-18T00:00:00	2024-11-08T02:00:00	5	Humedad	90
24253	7	Sololá	701	Sololá	1	Sololá	5	Mayo	2023-05-18T00:00:00	2024-11-08T02:00:00	6	Velocidad del viento	4.8
24254	7	Sololá	701	Sololá	1	Sololá	5	Mayo	2023-05-18T00:00:00	2024-11-08T02:00:00	7	Dirección del viento	4.83
24255	7	Sololá	701	Sololá	1	Sololá	5	Mayo	2023-05-18T00:00:00	2024-11-08T02:00:00	1	Precipitación	0
24256	7	Sololá	701	Sololá	1	Sololá	5	Mayo	2023-05-18T00:00:00	2024-11-08T02:00:00	8	Radiación solar	0
24257	7	Sololá	701	Sololá	1	Sololá	5	Mayo	2023-05-18T00:00:00	2024-11-08T03:00:00	2	Temperatura media	13.9
24258	7	Sololá	701	Sololá	1	Sololá	5	Mayo	2023-05-18T00:00:00	2024-11-08T03:00:00	4	Temperatura máxima	14.2
24259	7	Sololá	701	Sololá	1	Sololá	5	Mayo	2023-05-18T00:00:00	2024-11-08T03:00:00	3	Temperatura mínima	13.6
24260	7	Sololá	701	Sololá	1	Sololá	5	Mayo	2023-05-18T00:00:00	2024-11-08T03:00:00	5	Humedad	88
24261	7	Sololá	701	Sololá	1	Sololá	5	Mayo	2023-05-18T00:00:00	2024-11-08T03:00:00	6	Velocidad del viento	6.4
24262	7	Sololá	701	Sololá	1	Sololá	5	Mayo	2023-05-18T00:00:00	2024-11-08T03:00:00	7	Dirección del viento	6.44
24263	7	Sololá	701	Sololá	1	Sololá	5	Mayo	2023-05-18T00:00:00	2024-11-08T03:00:00	1	Precipitación	0
24264	7	Sololá	701	Sololá	1	Sololá	5	Mayo	2023-05-18T00:00:00	2024-11-08T03:00:00	8	Radiación solar	0
24265	7	Sololá	701	Sololá	1	Sololá	5	Mayo	2023-05-18T00:00:00	2024-11-08T04:00:00	2	Temperatura media	15.2
24266	7	Sololá	701	Sololá	1	Sololá	5	Mayo	2023-05-18T00:00:00	2024-11-08T04:00:00	4	Temperatura máxima	15.2
24267	7	Sololá	701	Sololá	1	Sololá	5	Mayo	2023-05-18T00:00:00	2024-11-08T04:00:00	3	Temperatura mínima	13.1
24268	7	Sololá	701	Sololá	1	Sololá	5	Mayo	2023-05-18T00:00:00	2024-11-08T04:00:00	5	Humedad	85
24269	7	Sololá	701	Sololá	1	Sololá	5	Mayo	2023-05-18T00:00:00	2024-11-08T04:00:00	6	Velocidad del viento	6.4
24270	7	Sololá	701	Sololá	1	Sololá	5	Mayo	2023-05-18T00:00:00	2024-11-08T04:00:00	7	Dirección del viento	6.44
24271	7	Sololá	701	Sololá	1	Sololá	5	Mayo	2023-05-18T00:00:00	2024-11-08T04:00:00	1	Precipitación	0
24272	7	Sololá	701	Sololá	1	Sololá	5	Mayo	2023-05-18T00:00:00	2024-11-08T04:00:00	8	Radiación solar	0
24273	7	Sololá	701	Sololá	1	Sololá	5	Mayo	2023-05-18T00:00:00	2024-11-08T05:00:00	2	Temperatura media	13.6
24274	7	Sololá	701	Sololá	1	Sololá	5	Mayo	2023-05-18T00:00:00	2024-11-08T05:00:00	4	Temperatura máxima	15.3
24275	7	Sololá	701	Sololá	1	Sololá	5	Mayo	2023-05-18T00:00:00	2024-11-08T05:00:00	3	Temperatura mínima	13.6
24276	7	Sololá	701	Sololá	1	Sololá	5	Mayo	2023-05-18T00:00:00	2024-11-08T05:00:00	5	Humedad	86
24277	7	Sololá	701	Sololá	1	Sololá	5	Mayo	2023-05-18T00:00:00	2024-11-08T05:00:00	6	Velocidad del viento	4.8
24278	7	Sololá	701	Sololá	1	Sololá	5	Mayo	2023-05-18T00:00:00	2024-11-08T05:00:00	7	Dirección del viento	4.83
24279	7	Sololá	701	Sololá	1	Sololá	5	Mayo	2023-05-18T00:00:00	2024-11-08T05:00:00	1	Precipitación	0
24280	7	Sololá	701	Sololá	1	Sololá	5	Mayo	2023-05-18T00:00:00	2024-11-08T05:00:00	8	Radiación solar	0
24281	7	Sololá	701	Sololá	1	Sololá	5	Mayo	2023-05-18T00:00:00	2024-11-08T06:00:00	2	Temperatura media	12.9
24282	7	Sololá	701	Sololá	1	Sololá	5	Mayo	2023-05-18T00:00:00	2024-11-08T06:00:00	4	Temperatura máxima	13.7
24283	7	Sololá	701	Sololá	1	Sololá	5	Mayo	2023-05-18T00:00:00	2024-11-08T06:00:00	3	Temperatura mínima	12.6
24284	7	Sololá	701	Sololá	1	Sololá	5	Mayo	2023-05-18T00:00:00	2024-11-08T06:00:00	5	Humedad	87
24285	7	Sololá	701	Sololá	1	Sololá	5	Mayo	2023-05-18T00:00:00	2024-11-08T06:00:00	6	Velocidad del viento	9.7
24286	7	Sololá	701	Sololá	1	Sololá	5	Mayo	2023-05-18T00:00:00	2024-11-08T06:00:00	7	Dirección del viento	9.66
24287	7	Sololá	701	Sololá	1	Sololá	5	Mayo	2023-05-18T00:00:00	2024-11-08T06:00:00	1	Precipitación	0
24288	7	Sololá	701	Sololá	1	Sololá	5	Mayo	2023-05-18T00:00:00	2024-11-08T06:00:00	8	Radiación solar	3
24289	7	Sololá	701	Sololá	1	Sololá	5	Mayo	2023-05-18T00:00:00	2024-11-08T07:00:00	2	Temperatura media	14.9
24290	7	Sololá	701	Sololá	1	Sololá	5	Mayo	2023-05-18T00:00:00	2024-11-08T07:00:00	4	Temperatura máxima	15.6
24291	7	Sololá	701	Sololá	1	Sololá	5	Mayo	2023-05-18T00:00:00	2024-11-08T07:00:00	3	Temperatura mínima	12.9
24292	7	Sololá	701	Sololá	1	Sololá	5	Mayo	2023-05-18T00:00:00	2024-11-08T07:00:00	5	Humedad	83
24293	7	Sololá	701	Sololá	1	Sololá	5	Mayo	2023-05-18T00:00:00	2024-11-08T07:00:00	6	Velocidad del viento	4.8
24294	7	Sololá	701	Sololá	1	Sololá	5	Mayo	2023-05-18T00:00:00	2024-11-08T07:00:00	7	Dirección del viento	4.83
24295	7	Sololá	701	Sololá	1	Sololá	5	Mayo	2023-05-18T00:00:00	2024-11-08T07:00:00	1	Precipitación	0
24296	7	Sololá	701	Sololá	1	Sololá	5	Mayo	2023-05-18T00:00:00	2024-11-08T07:00:00	8	Radiación solar	20
24297	7	Sololá	701	Sololá	1	Sololá	5	Mayo	2023-05-18T00:00:00	2024-11-08T08:00:00	2	Temperatura media	17.4
24298	7	Sololá	701	Sololá	1	Sololá	5	Mayo	2023-05-18T00:00:00	2024-11-08T08:00:00	4	Temperatura máxima	17.4
24299	7	Sololá	701	Sololá	1	Sololá	5	Mayo	2023-05-18T00:00:00	2024-11-08T08:00:00	3	Temperatura mínima	14.7
24300	7	Sololá	701	Sololá	1	Sololá	5	Mayo	2023-05-18T00:00:00	2024-11-08T08:00:00	5	Humedad	78
24301	7	Sololá	701	Sololá	1	Sololá	5	Mayo	2023-05-18T00:00:00	2024-11-08T08:00:00	6	Velocidad del viento	4.8
24302	7	Sololá	701	Sololá	1	Sololá	5	Mayo	2023-05-18T00:00:00	2024-11-08T08:00:00	7	Dirección del viento	4.83
24303	7	Sololá	701	Sololá	1	Sololá	5	Mayo	2023-05-18T00:00:00	2024-11-08T08:00:00	1	Precipitación	0
24304	7	Sololá	701	Sololá	1	Sololá	5	Mayo	2023-05-18T00:00:00	2024-11-08T08:00:00	8	Radiación solar	66
24305	7	Sololá	701	Sololá	1	Sololá	5	Mayo	2023-05-18T00:00:00	2024-11-08T09:00:00	2	Temperatura media	19.7
24306	7	Sololá	701	Sololá	1	Sololá	5	Mayo	2023-05-18T00:00:00	2024-11-08T09:00:00	4	Temperatura máxima	19.8
24307	7	Sololá	701	Sololá	1	Sololá	5	Mayo	2023-05-18T00:00:00	2024-11-08T09:00:00	3	Temperatura mínima	17.4
24308	7	Sololá	701	Sololá	1	Sololá	5	Mayo	2023-05-18T00:00:00	2024-11-08T09:00:00	5	Humedad	73
24309	7	Sololá	701	Sololá	1	Sololá	5	Mayo	2023-05-18T00:00:00	2024-11-08T09:00:00	6	Velocidad del viento	1.6
24310	7	Sololá	701	Sololá	1	Sololá	5	Mayo	2023-05-18T00:00:00	2024-11-08T09:00:00	7	Dirección del viento	1.61
24311	7	Sololá	701	Sololá	1	Sololá	5	Mayo	2023-05-18T00:00:00	2024-11-08T09:00:00	1	Precipitación	0
24312	7	Sololá	701	Sololá	1	Sololá	5	Mayo	2023-05-18T00:00:00	2024-11-08T09:00:00	8	Radiación solar	526
24313	7	Sololá	701	Sololá	1	Sololá	5	Mayo	2023-05-18T00:00:00	2024-11-08T10:00:00	2	Temperatura media	21.3
24314	7	Sololá	701	Sololá	1	Sololá	5	Mayo	2023-05-18T00:00:00	2024-11-08T10:00:00	4	Temperatura máxima	21.3
24315	7	Sololá	701	Sololá	1	Sololá	5	Mayo	2023-05-18T00:00:00	2024-11-08T10:00:00	3	Temperatura mínima	19.7
24316	7	Sololá	701	Sololá	1	Sololá	5	Mayo	2023-05-18T00:00:00	2024-11-08T10:00:00	5	Humedad	69
24317	7	Sololá	701	Sololá	1	Sololá	5	Mayo	2023-05-18T00:00:00	2024-11-08T10:00:00	6	Velocidad del viento	4.8
24318	7	Sololá	701	Sololá	1	Sololá	5	Mayo	2023-05-18T00:00:00	2024-11-08T10:00:00	7	Dirección del viento	4.83
24319	7	Sololá	701	Sololá	1	Sololá	5	Mayo	2023-05-18T00:00:00	2024-11-08T10:00:00	1	Precipitación	0
24320	7	Sololá	701	Sololá	1	Sololá	5	Mayo	2023-05-18T00:00:00	2024-11-08T10:00:00	8	Radiación solar	766
24321	7	Sololá	701	Sololá	1	Sololá	5	Mayo	2023-05-18T00:00:00	2024-11-08T11:00:00	2	Temperatura media	21.8
24322	7	Sololá	701	Sololá	1	Sololá	5	Mayo	2023-05-18T00:00:00	2024-11-08T11:00:00	4	Temperatura máxima	22.1
24323	7	Sololá	701	Sololá	1	Sololá	5	Mayo	2023-05-18T00:00:00	2024-11-08T11:00:00	3	Temperatura mínima	21.1
24324	7	Sololá	701	Sololá	1	Sololá	5	Mayo	2023-05-18T00:00:00	2024-11-08T11:00:00	5	Humedad	69
24325	7	Sololá	701	Sololá	1	Sololá	5	Mayo	2023-05-18T00:00:00	2024-11-08T11:00:00	6	Velocidad del viento	6.4
24326	7	Sololá	701	Sololá	1	Sololá	5	Mayo	2023-05-18T00:00:00	2024-11-08T11:00:00	7	Dirección del viento	6.44
24327	7	Sololá	701	Sololá	1	Sololá	5	Mayo	2023-05-18T00:00:00	2024-11-08T11:00:00	1	Precipitación	0
24328	7	Sololá	701	Sololá	1	Sololá	5	Mayo	2023-05-18T00:00:00	2024-11-08T11:00:00	8	Radiación solar	897
24329	7	Sololá	701	Sololá	1	Sololá	5	Mayo	2023-05-18T00:00:00	2024-11-08T12:00:00	2	Temperatura media	22.4
24330	7	Sololá	701	Sololá	1	Sololá	5	Mayo	2023-05-18T00:00:00	2024-11-08T12:00:00	4	Temperatura máxima	22.4
24331	7	Sololá	701	Sololá	1	Sololá	5	Mayo	2023-05-18T00:00:00	2024-11-08T12:00:00	3	Temperatura mínima	21.8
24332	7	Sololá	701	Sololá	1	Sololá	5	Mayo	2023-05-18T00:00:00	2024-11-08T12:00:00	5	Humedad	70
24333	7	Sololá	701	Sololá	1	Sololá	5	Mayo	2023-05-18T00:00:00	2024-11-08T12:00:00	6	Velocidad del viento	6.4
24334	7	Sololá	701	Sololá	1	Sololá	5	Mayo	2023-05-18T00:00:00	2024-11-08T12:00:00	7	Dirección del viento	6.44
24335	7	Sololá	701	Sololá	1	Sololá	5	Mayo	2023-05-18T00:00:00	2024-11-08T12:00:00	1	Precipitación	0
24336	7	Sololá	701	Sololá	1	Sololá	5	Mayo	2023-05-18T00:00:00	2024-11-08T12:00:00	8	Radiación solar	504
24337	7	Sololá	701	Sololá	1	Sololá	5	Mayo	2023-05-18T00:00:00	2024-11-08T13:00:00	2	Temperatura media	22.4
24338	7	Sololá	701	Sololá	1	Sololá	5	Mayo	2023-05-18T00:00:00	2024-11-08T13:00:00	4	Temperatura máxima	22.6
24339	7	Sololá	701	Sololá	1	Sololá	5	Mayo	2023-05-18T00:00:00	2024-11-08T13:00:00	3	Temperatura mínima	21.3
24340	7	Sololá	701	Sololá	1	Sololá	5	Mayo	2023-05-18T00:00:00	2024-11-08T13:00:00	5	Humedad	71
24341	7	Sololá	701	Sololá	1	Sololá	5	Mayo	2023-05-18T00:00:00	2024-11-08T13:00:00	6	Velocidad del viento	6.4
24342	7	Sololá	701	Sololá	1	Sololá	5	Mayo	2023-05-18T00:00:00	2024-11-08T13:00:00	7	Dirección del viento	6.44
24343	7	Sololá	701	Sololá	1	Sololá	5	Mayo	2023-05-18T00:00:00	2024-11-08T13:00:00	1	Precipitación	0
24344	7	Sololá	701	Sololá	1	Sololá	5	Mayo	2023-05-18T00:00:00	2024-11-08T13:00:00	8	Radiación solar	268
24345	7	Sololá	701	Sololá	1	Sololá	5	Mayo	2023-05-18T00:00:00	2024-11-08T14:00:00	2	Temperatura media	22
24346	7	Sololá	701	Sololá	1	Sololá	5	Mayo	2023-05-18T00:00:00	2024-11-08T14:00:00	4	Temperatura máxima	22.7
24347	7	Sololá	701	Sololá	1	Sololá	5	Mayo	2023-05-18T00:00:00	2024-11-08T14:00:00	3	Temperatura mínima	21.7
24348	7	Sololá	701	Sololá	1	Sololá	5	Mayo	2023-05-18T00:00:00	2024-11-08T14:00:00	5	Humedad	75
24349	7	Sololá	701	Sololá	1	Sololá	5	Mayo	2023-05-18T00:00:00	2024-11-08T14:00:00	6	Velocidad del viento	6.4
24350	7	Sololá	701	Sololá	1	Sololá	5	Mayo	2023-05-18T00:00:00	2024-11-08T14:00:00	7	Dirección del viento	6.44
24351	7	Sololá	701	Sololá	1	Sololá	5	Mayo	2023-05-18T00:00:00	2024-11-08T14:00:00	1	Precipitación	0
24352	7	Sololá	701	Sololá	1	Sololá	5	Mayo	2023-05-18T00:00:00	2024-11-08T14:00:00	8	Radiación solar	412
24353	7	Sololá	701	Sololá	1	Sololá	5	Mayo	2023-05-18T00:00:00	2024-11-08T15:00:00	2	Temperatura media	22.1
24354	7	Sololá	701	Sololá	1	Sololá	5	Mayo	2023-05-18T00:00:00	2024-11-08T15:00:00	4	Temperatura máxima	22.4
24355	7	Sololá	701	Sololá	1	Sololá	5	Mayo	2023-05-18T00:00:00	2024-11-08T15:00:00	3	Temperatura mínima	21.9
24356	7	Sololá	701	Sololá	1	Sololá	5	Mayo	2023-05-18T00:00:00	2024-11-08T15:00:00	5	Humedad	76
24357	7	Sololá	701	Sololá	1	Sololá	5	Mayo	2023-05-18T00:00:00	2024-11-08T15:00:00	6	Velocidad del viento	6.4
24358	7	Sololá	701	Sololá	1	Sololá	5	Mayo	2023-05-18T00:00:00	2024-11-08T15:00:00	7	Dirección del viento	6.44
24359	7	Sololá	701	Sololá	1	Sololá	5	Mayo	2023-05-18T00:00:00	2024-11-08T15:00:00	1	Precipitación	0
24360	7	Sololá	701	Sololá	1	Sololá	5	Mayo	2023-05-18T00:00:00	2024-11-08T15:00:00	8	Radiación solar	180
24361	7	Sololá	701	Sololá	1	Sololá	5	Mayo	2023-05-18T00:00:00	2024-11-08T16:00:00	2	Temperatura media	21.1
24362	7	Sololá	701	Sololá	1	Sololá	5	Mayo	2023-05-18T00:00:00	2024-11-08T16:00:00	4	Temperatura máxima	22.1
24363	7	Sololá	701	Sololá	1	Sololá	5	Mayo	2023-05-18T00:00:00	2024-11-08T16:00:00	3	Temperatura mínima	20.9
24364	7	Sololá	701	Sololá	1	Sololá	5	Mayo	2023-05-18T00:00:00	2024-11-08T16:00:00	5	Humedad	81
24365	7	Sololá	701	Sololá	1	Sololá	5	Mayo	2023-05-18T00:00:00	2024-11-08T16:00:00	6	Velocidad del viento	6.4
24366	7	Sololá	701	Sololá	1	Sololá	5	Mayo	2023-05-18T00:00:00	2024-11-08T16:00:00	7	Dirección del viento	6.44
24367	7	Sololá	701	Sololá	1	Sololá	5	Mayo	2023-05-18T00:00:00	2024-11-08T16:00:00	1	Precipitación	0
24368	7	Sololá	701	Sololá	1	Sololá	5	Mayo	2023-05-18T00:00:00	2024-11-08T16:00:00	8	Radiación solar	152
24369	7	Sololá	701	Sololá	1	Sololá	5	Mayo	2023-05-18T00:00:00	2024-11-08T17:00:00	2	Temperatura media	19.7
24370	7	Sololá	701	Sololá	1	Sololá	5	Mayo	2023-05-18T00:00:00	2024-11-08T17:00:00	4	Temperatura máxima	21.1
24371	7	Sololá	701	Sololá	1	Sololá	5	Mayo	2023-05-18T00:00:00	2024-11-08T17:00:00	3	Temperatura mínima	19.7
24372	7	Sololá	701	Sololá	1	Sololá	5	Mayo	2023-05-18T00:00:00	2024-11-08T17:00:00	5	Humedad	87
24373	7	Sololá	701	Sololá	1	Sololá	5	Mayo	2023-05-18T00:00:00	2024-11-08T17:00:00	6	Velocidad del viento	4.8
24374	7	Sololá	701	Sololá	1	Sololá	5	Mayo	2023-05-18T00:00:00	2024-11-08T17:00:00	7	Dirección del viento	4.83
24375	7	Sololá	701	Sololá	1	Sololá	5	Mayo	2023-05-18T00:00:00	2024-11-08T17:00:00	1	Precipitación	0
24376	7	Sololá	701	Sololá	1	Sololá	5	Mayo	2023-05-18T00:00:00	2024-11-08T17:00:00	8	Radiación solar	85
24377	7	Sololá	701	Sololá	1	Sololá	5	Mayo	2023-05-18T00:00:00	2024-11-08T18:00:00	2	Temperatura media	18.9
24378	7	Sololá	701	Sololá	1	Sololá	5	Mayo	2023-05-18T00:00:00	2024-11-08T18:00:00	4	Temperatura máxima	19.7
24379	7	Sololá	701	Sololá	1	Sololá	5	Mayo	2023-05-18T00:00:00	2024-11-08T18:00:00	3	Temperatura mínima	18.9
24380	7	Sololá	701	Sololá	1	Sololá	5	Mayo	2023-05-18T00:00:00	2024-11-08T18:00:00	5	Humedad	90
24381	7	Sololá	701	Sololá	1	Sololá	5	Mayo	2023-05-18T00:00:00	2024-11-08T18:00:00	6	Velocidad del viento	3.2
24382	7	Sololá	701	Sololá	1	Sololá	5	Mayo	2023-05-18T00:00:00	2024-11-08T18:00:00	7	Dirección del viento	3.22
24383	7	Sololá	701	Sololá	1	Sololá	5	Mayo	2023-05-18T00:00:00	2024-11-08T18:00:00	1	Precipitación	0
24384	7	Sololá	701	Sololá	1	Sololá	5	Mayo	2023-05-18T00:00:00	2024-11-08T18:00:00	8	Radiación solar	32
24385	7	Sololá	701	Sololá	1	Sololá	5	Mayo	2023-05-18T00:00:00	2024-11-08T19:00:00	2	Temperatura media	18.7
24386	7	Sololá	701	Sololá	1	Sololá	5	Mayo	2023-05-18T00:00:00	2024-11-08T19:00:00	4	Temperatura máxima	19
24387	7	Sololá	701	Sololá	1	Sololá	5	Mayo	2023-05-18T00:00:00	2024-11-08T19:00:00	3	Temperatura mínima	18.3
24388	7	Sololá	701	Sololá	1	Sololá	5	Mayo	2023-05-18T00:00:00	2024-11-08T19:00:00	5	Humedad	70
24389	7	Sololá	701	Sololá	1	Sololá	5	Mayo	2023-05-18T00:00:00	2024-11-08T19:00:00	6	Velocidad del viento	1.6
24390	7	Sololá	701	Sololá	1	Sololá	5	Mayo	2023-05-18T00:00:00	2024-11-08T19:00:00	7	Dirección del viento	1.61
24391	7	Sololá	701	Sololá	1	Sololá	5	Mayo	2023-05-18T00:00:00	2024-11-08T19:00:00	1	Precipitación	0
24392	7	Sololá	701	Sololá	1	Sololá	5	Mayo	2023-05-18T00:00:00	2024-11-08T19:00:00	8	Radiación solar	0
24393	7	Sololá	701	Sololá	1	Sololá	5	Mayo	2023-05-18T00:00:00	2024-11-08T20:00:00	2	Temperatura media	18.5
24394	7	Sololá	701	Sololá	1	Sololá	5	Mayo	2023-05-18T00:00:00	2024-11-08T20:00:00	4	Temperatura máxima	18.8
24395	7	Sololá	701	Sololá	1	Sololá	5	Mayo	2023-05-18T00:00:00	2024-11-08T20:00:00	3	Temperatura mínima	18.5
24396	7	Sololá	701	Sololá	1	Sololá	5	Mayo	2023-05-18T00:00:00	2024-11-08T20:00:00	5	Humedad	77
24397	7	Sololá	701	Sololá	1	Sololá	5	Mayo	2023-05-18T00:00:00	2024-11-08T20:00:00	6	Velocidad del viento	3.2
24398	7	Sololá	701	Sololá	1	Sololá	5	Mayo	2023-05-18T00:00:00	2024-11-08T20:00:00	7	Dirección del viento	3.22
24399	7	Sololá	701	Sololá	1	Sololá	5	Mayo	2023-05-18T00:00:00	2024-11-08T20:00:00	1	Precipitación	0
24400	7	Sololá	701	Sololá	1	Sololá	5	Mayo	2023-05-18T00:00:00	2024-11-08T20:00:00	8	Radiación solar	0
24401	7	Sololá	701	Sololá	1	Sololá	5	Mayo	2023-05-18T00:00:00	2024-11-08T21:00:00	2	Temperatura media	18.1
24402	7	Sololá	701	Sololá	1	Sololá	5	Mayo	2023-05-18T00:00:00	2024-11-08T21:00:00	4	Temperatura máxima	18.5
24403	7	Sololá	701	Sololá	1	Sololá	5	Mayo	2023-05-18T00:00:00	2024-11-08T21:00:00	3	Temperatura mínima	18
24404	7	Sololá	701	Sololá	1	Sololá	5	Mayo	2023-05-18T00:00:00	2024-11-08T21:00:00	5	Humedad	79
24405	7	Sololá	701	Sololá	1	Sololá	5	Mayo	2023-05-18T00:00:00	2024-11-08T21:00:00	6	Velocidad del viento	3.2
24406	7	Sololá	701	Sololá	1	Sololá	5	Mayo	2023-05-18T00:00:00	2024-11-08T21:00:00	7	Dirección del viento	3.22
24407	7	Sololá	701	Sololá	1	Sololá	5	Mayo	2023-05-18T00:00:00	2024-11-08T21:00:00	1	Precipitación	0
24408	7	Sololá	701	Sololá	1	Sololá	5	Mayo	2023-05-18T00:00:00	2024-11-08T21:00:00	8	Radiación solar	0
24409	7	Sololá	701	Sololá	1	Sololá	5	Mayo	2023-05-18T00:00:00	2024-11-08T22:00:00	2	Temperatura media	17.7
24410	7	Sololá	701	Sololá	1	Sololá	5	Mayo	2023-05-18T00:00:00	2024-11-08T22:00:00	4	Temperatura máxima	18.1
24411	7	Sololá	701	Sololá	1	Sololá	5	Mayo	2023-05-18T00:00:00	2024-11-08T22:00:00	3	Temperatura mínima	17.7
24412	7	Sololá	701	Sololá	1	Sololá	5	Mayo	2023-05-18T00:00:00	2024-11-08T22:00:00	5	Humedad	78
24413	7	Sololá	701	Sololá	1	Sololá	5	Mayo	2023-05-18T00:00:00	2024-11-08T22:00:00	6	Velocidad del viento	1.6
24414	7	Sololá	701	Sololá	1	Sololá	5	Mayo	2023-05-18T00:00:00	2024-11-08T22:00:00	7	Dirección del viento	1.61
24415	7	Sololá	701	Sololá	1	Sololá	5	Mayo	2023-05-18T00:00:00	2024-11-08T22:00:00	1	Precipitación	0
24416	7	Sololá	701	Sololá	1	Sololá	5	Mayo	2023-05-18T00:00:00	2024-11-08T22:00:00	8	Radiación solar	0
24417	7	Sololá	701	Sololá	1	Sololá	5	Mayo	2023-05-18T00:00:00	2024-11-08T23:00:00	2	Temperatura media	17.1
24418	7	Sololá	701	Sololá	1	Sololá	5	Mayo	2023-05-18T00:00:00	2024-11-08T23:00:00	4	Temperatura máxima	17.7
24419	7	Sololá	701	Sololá	1	Sololá	5	Mayo	2023-05-18T00:00:00	2024-11-08T23:00:00	3	Temperatura mínima	17.1
24420	7	Sololá	701	Sololá	1	Sololá	5	Mayo	2023-05-18T00:00:00	2024-11-08T23:00:00	5	Humedad	82
24421	7	Sololá	701	Sololá	1	Sololá	5	Mayo	2023-05-18T00:00:00	2024-11-08T23:00:00	6	Velocidad del viento	1.6
24422	7	Sololá	701	Sololá	1	Sololá	5	Mayo	2023-05-18T00:00:00	2024-11-08T23:00:00	7	Dirección del viento	1.61
24423	7	Sololá	701	Sololá	1	Sololá	5	Mayo	2023-05-18T00:00:00	2024-11-08T23:00:00	1	Precipitación	0
24424	7	Sololá	701	Sololá	1	Sololá	5	Mayo	2023-05-18T00:00:00	2024-11-08T23:00:00	8	Radiación solar	0
24425	7	Sololá	701	Sololá	1	Sololá	5	Mayo	2023-05-19T00:00:00	2024-11-08T00:00:00	2	Temperatura media	16.9
24426	7	Sololá	701	Sololá	1	Sololá	5	Mayo	2023-05-19T00:00:00	2024-11-08T00:00:00	4	Temperatura máxima	17.2
24427	7	Sololá	701	Sololá	1	Sololá	5	Mayo	2023-05-19T00:00:00	2024-11-08T00:00:00	3	Temperatura mínima	16.8
24428	7	Sololá	701	Sololá	1	Sololá	5	Mayo	2023-05-19T00:00:00	2024-11-08T00:00:00	5	Humedad	81
24429	7	Sololá	701	Sololá	1	Sololá	5	Mayo	2023-05-19T00:00:00	2024-11-08T00:00:00	6	Velocidad del viento	1.6
24430	7	Sololá	701	Sololá	1	Sololá	5	Mayo	2023-05-19T00:00:00	2024-11-08T00:00:00	7	Dirección del viento	1.61
24431	7	Sololá	701	Sololá	1	Sololá	5	Mayo	2023-05-19T00:00:00	2024-11-08T00:00:00	1	Precipitación	0
24432	7	Sololá	701	Sololá	1	Sololá	5	Mayo	2023-05-19T00:00:00	2024-11-08T00:00:00	8	Radiación solar	0
24433	7	Sololá	701	Sololá	1	Sololá	5	Mayo	2023-05-19T00:00:00	2024-11-08T01:00:00	2	Temperatura media	17
24434	7	Sololá	701	Sololá	1	Sololá	5	Mayo	2023-05-19T00:00:00	2024-11-08T01:00:00	4	Temperatura máxima	17.3
24435	7	Sololá	701	Sololá	1	Sololá	5	Mayo	2023-05-19T00:00:00	2024-11-08T01:00:00	3	Temperatura mínima	17
24436	7	Sololá	701	Sololá	1	Sololá	5	Mayo	2023-05-19T00:00:00	2024-11-08T01:00:00	5	Humedad	81
24437	7	Sololá	701	Sololá	1	Sololá	5	Mayo	2023-05-19T00:00:00	2024-11-08T01:00:00	6	Velocidad del viento	3.2
24438	7	Sololá	701	Sololá	1	Sololá	5	Mayo	2023-05-19T00:00:00	2024-11-08T01:00:00	7	Dirección del viento	3.22
24439	7	Sololá	701	Sololá	1	Sololá	5	Mayo	2023-05-19T00:00:00	2024-11-08T01:00:00	1	Precipitación	0
24440	7	Sololá	701	Sololá	1	Sololá	5	Mayo	2023-05-19T00:00:00	2024-11-08T01:00:00	8	Radiación solar	0
24441	7	Sololá	701	Sololá	1	Sololá	5	Mayo	2023-05-19T00:00:00	2024-11-08T02:00:00	2	Temperatura media	16.9
24442	7	Sololá	701	Sololá	1	Sololá	5	Mayo	2023-05-19T00:00:00	2024-11-08T02:00:00	4	Temperatura máxima	17.1
24443	7	Sololá	701	Sololá	1	Sololá	5	Mayo	2023-05-19T00:00:00	2024-11-08T02:00:00	3	Temperatura mínima	16.8
24444	7	Sololá	701	Sololá	1	Sololá	5	Mayo	2023-05-19T00:00:00	2024-11-08T02:00:00	5	Humedad	80
24445	7	Sololá	701	Sololá	1	Sololá	5	Mayo	2023-05-19T00:00:00	2024-11-08T02:00:00	6	Velocidad del viento	3.2
24446	7	Sololá	701	Sololá	1	Sololá	5	Mayo	2023-05-19T00:00:00	2024-11-08T02:00:00	7	Dirección del viento	3.22
24447	7	Sololá	701	Sololá	1	Sololá	5	Mayo	2023-05-19T00:00:00	2024-11-08T02:00:00	1	Precipitación	0
24448	7	Sololá	701	Sololá	1	Sololá	5	Mayo	2023-05-19T00:00:00	2024-11-08T02:00:00	8	Radiación solar	0
24449	7	Sololá	701	Sololá	1	Sololá	5	Mayo	2023-05-19T00:00:00	2024-11-08T03:00:00	2	Temperatura media	16.5
24450	7	Sololá	701	Sololá	1	Sololá	5	Mayo	2023-05-19T00:00:00	2024-11-08T03:00:00	4	Temperatura máxima	16.9
24451	7	Sololá	701	Sololá	1	Sololá	5	Mayo	2023-05-19T00:00:00	2024-11-08T03:00:00	3	Temperatura mínima	16.4
24452	7	Sololá	701	Sololá	1	Sololá	5	Mayo	2023-05-19T00:00:00	2024-11-08T03:00:00	5	Humedad	81
24453	7	Sololá	701	Sololá	1	Sololá	5	Mayo	2023-05-19T00:00:00	2024-11-08T03:00:00	6	Velocidad del viento	3.2
24454	7	Sololá	701	Sololá	1	Sololá	5	Mayo	2023-05-19T00:00:00	2024-11-08T03:00:00	7	Dirección del viento	3.22
24455	7	Sololá	701	Sololá	1	Sololá	5	Mayo	2023-05-19T00:00:00	2024-11-08T03:00:00	1	Precipitación	0
24456	7	Sololá	701	Sololá	1	Sololá	5	Mayo	2023-05-19T00:00:00	2024-11-08T03:00:00	8	Radiación solar	0
24457	7	Sololá	701	Sololá	1	Sololá	5	Mayo	2023-05-19T00:00:00	2024-11-08T04:00:00	2	Temperatura media	16.1
24458	7	Sololá	701	Sololá	1	Sololá	5	Mayo	2023-05-19T00:00:00	2024-11-08T04:00:00	4	Temperatura máxima	16.7
24459	7	Sololá	701	Sololá	1	Sololá	5	Mayo	2023-05-19T00:00:00	2024-11-08T04:00:00	3	Temperatura mínima	16.1
24460	7	Sololá	701	Sololá	1	Sololá	5	Mayo	2023-05-19T00:00:00	2024-11-08T04:00:00	5	Humedad	80
24461	7	Sololá	701	Sololá	1	Sololá	5	Mayo	2023-05-19T00:00:00	2024-11-08T04:00:00	6	Velocidad del viento	4.8
24462	7	Sololá	701	Sololá	1	Sololá	5	Mayo	2023-05-19T00:00:00	2024-11-08T04:00:00	7	Dirección del viento	4.83
24463	7	Sololá	701	Sololá	1	Sololá	5	Mayo	2023-05-19T00:00:00	2024-11-08T04:00:00	1	Precipitación	0
24464	7	Sololá	701	Sololá	1	Sololá	5	Mayo	2023-05-19T00:00:00	2024-11-08T04:00:00	8	Radiación solar	0
24465	7	Sololá	701	Sololá	1	Sololá	5	Mayo	2023-05-19T00:00:00	2024-11-08T05:00:00	2	Temperatura media	16.2
24466	7	Sololá	701	Sololá	1	Sololá	5	Mayo	2023-05-19T00:00:00	2024-11-08T05:00:00	4	Temperatura máxima	16.3
24467	7	Sololá	701	Sololá	1	Sololá	5	Mayo	2023-05-19T00:00:00	2024-11-08T05:00:00	3	Temperatura mínima	15.7
24468	7	Sololá	701	Sololá	1	Sololá	5	Mayo	2023-05-19T00:00:00	2024-11-08T05:00:00	5	Humedad	80
24469	7	Sololá	701	Sololá	1	Sololá	5	Mayo	2023-05-19T00:00:00	2024-11-08T05:00:00	6	Velocidad del viento	3.2
24470	7	Sololá	701	Sololá	1	Sololá	5	Mayo	2023-05-19T00:00:00	2024-11-08T05:00:00	7	Dirección del viento	3.22
24471	7	Sololá	701	Sololá	1	Sololá	5	Mayo	2023-05-19T00:00:00	2024-11-08T05:00:00	1	Precipitación	0
24472	7	Sololá	701	Sololá	1	Sololá	5	Mayo	2023-05-19T00:00:00	2024-11-08T05:00:00	8	Radiación solar	0
24473	7	Sololá	701	Sololá	1	Sololá	5	Mayo	2023-05-19T00:00:00	2024-11-08T06:00:00	2	Temperatura media	16.4
24474	7	Sololá	701	Sololá	1	Sololá	5	Mayo	2023-05-19T00:00:00	2024-11-08T06:00:00	4	Temperatura máxima	16.4
24475	7	Sololá	701	Sololá	1	Sololá	5	Mayo	2023-05-19T00:00:00	2024-11-08T06:00:00	3	Temperatura mínima	15.7
24476	7	Sololá	701	Sololá	1	Sololá	5	Mayo	2023-05-19T00:00:00	2024-11-08T06:00:00	5	Humedad	79
24477	7	Sololá	701	Sololá	1	Sololá	5	Mayo	2023-05-19T00:00:00	2024-11-08T06:00:00	6	Velocidad del viento	4.8
24478	7	Sololá	701	Sololá	1	Sololá	5	Mayo	2023-05-19T00:00:00	2024-11-08T06:00:00	7	Dirección del viento	4.83
24479	7	Sololá	701	Sololá	1	Sololá	5	Mayo	2023-05-19T00:00:00	2024-11-08T06:00:00	1	Precipitación	0
24480	7	Sololá	701	Sololá	1	Sololá	5	Mayo	2023-05-19T00:00:00	2024-11-08T06:00:00	8	Radiación solar	6
24481	7	Sololá	701	Sololá	1	Sololá	5	Mayo	2023-05-19T00:00:00	2024-11-08T07:00:00	2	Temperatura media	18.1
24482	7	Sololá	701	Sololá	1	Sololá	5	Mayo	2023-05-19T00:00:00	2024-11-08T07:00:00	4	Temperatura máxima	18.1
24483	7	Sololá	701	Sololá	1	Sololá	5	Mayo	2023-05-19T00:00:00	2024-11-08T07:00:00	3	Temperatura mínima	16.4
24484	7	Sololá	701	Sololá	1	Sololá	5	Mayo	2023-05-19T00:00:00	2024-11-08T07:00:00	5	Humedad	74
24485	7	Sololá	701	Sololá	1	Sololá	5	Mayo	2023-05-19T00:00:00	2024-11-08T07:00:00	6	Velocidad del viento	12.9
24486	7	Sololá	701	Sololá	1	Sololá	5	Mayo	2023-05-19T00:00:00	2024-11-08T07:00:00	7	Dirección del viento	12.87
24487	7	Sololá	701	Sololá	1	Sololá	5	Mayo	2023-05-19T00:00:00	2024-11-08T07:00:00	1	Precipitación	0
24488	7	Sololá	701	Sololá	1	Sololá	5	Mayo	2023-05-19T00:00:00	2024-11-08T07:00:00	8	Radiación solar	51
24489	7	Sololá	701	Sololá	1	Sololá	5	Mayo	2023-05-19T00:00:00	2024-11-08T08:00:00	2	Temperatura media	20.2
24490	7	Sololá	701	Sololá	1	Sololá	5	Mayo	2023-05-19T00:00:00	2024-11-08T08:00:00	4	Temperatura máxima	20.2
24491	7	Sololá	701	Sololá	1	Sololá	5	Mayo	2023-05-19T00:00:00	2024-11-08T08:00:00	3	Temperatura mínima	18.1
24492	7	Sololá	701	Sololá	1	Sololá	5	Mayo	2023-05-19T00:00:00	2024-11-08T08:00:00	5	Humedad	58
24493	7	Sololá	701	Sololá	1	Sololá	5	Mayo	2023-05-19T00:00:00	2024-11-08T08:00:00	6	Velocidad del viento	9.7
24494	7	Sololá	701	Sololá	1	Sololá	5	Mayo	2023-05-19T00:00:00	2024-11-08T08:00:00	7	Dirección del viento	9.66
24495	7	Sololá	701	Sololá	1	Sololá	5	Mayo	2023-05-19T00:00:00	2024-11-08T08:00:00	1	Precipitación	0
24496	7	Sololá	701	Sololá	1	Sololá	5	Mayo	2023-05-19T00:00:00	2024-11-08T08:00:00	8	Radiación solar	124
24497	7	Sololá	701	Sololá	1	Sololá	5	Mayo	2023-05-19T00:00:00	2024-11-08T09:00:00	2	Temperatura media	20.9
24498	7	Sololá	701	Sololá	1	Sololá	5	Mayo	2023-05-19T00:00:00	2024-11-08T09:00:00	4	Temperatura máxima	21.2
24499	7	Sololá	701	Sololá	1	Sololá	5	Mayo	2023-05-19T00:00:00	2024-11-08T09:00:00	3	Temperatura mínima	20.2
24500	7	Sololá	701	Sololá	1	Sololá	5	Mayo	2023-05-19T00:00:00	2024-11-08T09:00:00	5	Humedad	60
24501	7	Sololá	701	Sololá	1	Sololá	5	Mayo	2023-05-19T00:00:00	2024-11-08T09:00:00	6	Velocidad del viento	11.3
24502	7	Sololá	701	Sololá	1	Sololá	5	Mayo	2023-05-19T00:00:00	2024-11-08T09:00:00	7	Dirección del viento	11.27
24503	7	Sololá	701	Sololá	1	Sololá	5	Mayo	2023-05-19T00:00:00	2024-11-08T09:00:00	1	Precipitación	0
24504	7	Sololá	701	Sololá	1	Sololá	5	Mayo	2023-05-19T00:00:00	2024-11-08T09:00:00	8	Radiación solar	469
24505	7	Sololá	701	Sololá	1	Sololá	5	Mayo	2023-05-19T00:00:00	2024-11-08T10:00:00	2	Temperatura media	21.9
24506	7	Sololá	701	Sololá	1	Sololá	5	Mayo	2023-05-19T00:00:00	2024-11-08T10:00:00	4	Temperatura máxima	22.2
24507	7	Sololá	701	Sololá	1	Sololá	5	Mayo	2023-05-19T00:00:00	2024-11-08T10:00:00	3	Temperatura mínima	20.6
24508	7	Sololá	701	Sololá	1	Sololá	5	Mayo	2023-05-19T00:00:00	2024-11-08T10:00:00	5	Humedad	54
24509	7	Sololá	701	Sololá	1	Sololá	5	Mayo	2023-05-19T00:00:00	2024-11-08T10:00:00	6	Velocidad del viento	14.5
24510	7	Sololá	701	Sololá	1	Sololá	5	Mayo	2023-05-19T00:00:00	2024-11-08T10:00:00	7	Dirección del viento	14.48
24511	7	Sololá	701	Sololá	1	Sololá	5	Mayo	2023-05-19T00:00:00	2024-11-08T10:00:00	1	Precipitación	0
24512	7	Sololá	701	Sololá	1	Sololá	5	Mayo	2023-05-19T00:00:00	2024-11-08T10:00:00	8	Radiación solar	731
24513	7	Sololá	701	Sololá	1	Sololá	5	Mayo	2023-05-19T00:00:00	2024-11-08T11:00:00	2	Temperatura media	22.9
24514	7	Sololá	701	Sololá	1	Sololá	5	Mayo	2023-05-19T00:00:00	2024-11-08T11:00:00	4	Temperatura máxima	23.2
24515	7	Sololá	701	Sololá	1	Sololá	5	Mayo	2023-05-19T00:00:00	2024-11-08T11:00:00	3	Temperatura mínima	21.9
24516	7	Sololá	701	Sololá	1	Sololá	5	Mayo	2023-05-19T00:00:00	2024-11-08T11:00:00	5	Humedad	43
24517	7	Sololá	701	Sololá	1	Sololá	5	Mayo	2023-05-19T00:00:00	2024-11-08T11:00:00	6	Velocidad del viento	14.5
24518	7	Sololá	701	Sololá	1	Sololá	5	Mayo	2023-05-19T00:00:00	2024-11-08T11:00:00	7	Dirección del viento	14.48
24519	7	Sololá	701	Sololá	1	Sololá	5	Mayo	2023-05-19T00:00:00	2024-11-08T11:00:00	1	Precipitación	0
24520	7	Sololá	701	Sololá	1	Sololá	5	Mayo	2023-05-19T00:00:00	2024-11-08T11:00:00	8	Radiación solar	862
24521	7	Sololá	701	Sololá	1	Sololá	5	Mayo	2023-05-19T00:00:00	2024-11-08T12:00:00	2	Temperatura media	23.9
24522	7	Sololá	701	Sololá	1	Sololá	5	Mayo	2023-05-19T00:00:00	2024-11-08T12:00:00	4	Temperatura máxima	23.9
24523	7	Sololá	701	Sololá	1	Sololá	5	Mayo	2023-05-19T00:00:00	2024-11-08T12:00:00	3	Temperatura mínima	22.7
24524	7	Sololá	701	Sololá	1	Sololá	5	Mayo	2023-05-19T00:00:00	2024-11-08T12:00:00	5	Humedad	50
24525	7	Sololá	701	Sololá	1	Sololá	5	Mayo	2023-05-19T00:00:00	2024-11-08T12:00:00	6	Velocidad del viento	14.5
24526	7	Sololá	701	Sololá	1	Sololá	5	Mayo	2023-05-19T00:00:00	2024-11-08T12:00:00	7	Dirección del viento	14.48
24527	7	Sololá	701	Sololá	1	Sololá	5	Mayo	2023-05-19T00:00:00	2024-11-08T12:00:00	1	Precipitación	0
24528	7	Sololá	701	Sololá	1	Sololá	5	Mayo	2023-05-19T00:00:00	2024-11-08T12:00:00	8	Radiación solar	919
24529	7	Sololá	701	Sololá	1	Sololá	5	Mayo	2023-05-19T00:00:00	2024-11-08T13:00:00	2	Temperatura media	24.4
24530	7	Sololá	701	Sololá	1	Sololá	5	Mayo	2023-05-19T00:00:00	2024-11-08T13:00:00	4	Temperatura máxima	24.6
24531	7	Sololá	701	Sololá	1	Sololá	5	Mayo	2023-05-19T00:00:00	2024-11-08T13:00:00	3	Temperatura mínima	23.6
24532	7	Sololá	701	Sololá	1	Sololá	5	Mayo	2023-05-19T00:00:00	2024-11-08T13:00:00	5	Humedad	49
24533	7	Sololá	701	Sololá	1	Sololá	5	Mayo	2023-05-19T00:00:00	2024-11-08T13:00:00	6	Velocidad del viento	12.9
24534	7	Sololá	701	Sololá	1	Sololá	5	Mayo	2023-05-19T00:00:00	2024-11-08T13:00:00	7	Dirección del viento	12.87
24535	7	Sololá	701	Sololá	1	Sololá	5	Mayo	2023-05-19T00:00:00	2024-11-08T13:00:00	1	Precipitación	0
24536	7	Sololá	701	Sololá	1	Sololá	5	Mayo	2023-05-19T00:00:00	2024-11-08T13:00:00	8	Radiación solar	773
24537	7	Sololá	701	Sololá	1	Sololá	5	Mayo	2023-05-19T00:00:00	2024-11-08T14:00:00	2	Temperatura media	24.8
24538	7	Sololá	701	Sololá	1	Sololá	5	Mayo	2023-05-19T00:00:00	2024-11-08T14:00:00	4	Temperatura máxima	25.1
24539	7	Sololá	701	Sololá	1	Sololá	5	Mayo	2023-05-19T00:00:00	2024-11-08T14:00:00	3	Temperatura mínima	24
24540	7	Sololá	701	Sololá	1	Sololá	5	Mayo	2023-05-19T00:00:00	2024-11-08T14:00:00	5	Humedad	49
24541	7	Sololá	701	Sololá	1	Sololá	5	Mayo	2023-05-19T00:00:00	2024-11-08T14:00:00	6	Velocidad del viento	11.3
24542	7	Sololá	701	Sololá	1	Sololá	5	Mayo	2023-05-19T00:00:00	2024-11-08T14:00:00	7	Dirección del viento	11.27
24543	7	Sololá	701	Sololá	1	Sololá	5	Mayo	2023-05-19T00:00:00	2024-11-08T14:00:00	1	Precipitación	0
24544	7	Sololá	701	Sololá	1	Sololá	5	Mayo	2023-05-19T00:00:00	2024-11-08T14:00:00	8	Radiación solar	818
24545	7	Sololá	701	Sololá	1	Sololá	5	Mayo	2023-05-19T00:00:00	2024-11-08T15:00:00	2	Temperatura media	24.7
24546	7	Sololá	701	Sololá	1	Sololá	5	Mayo	2023-05-19T00:00:00	2024-11-08T15:00:00	4	Temperatura máxima	25.2
24547	7	Sololá	701	Sololá	1	Sololá	5	Mayo	2023-05-19T00:00:00	2024-11-08T15:00:00	3	Temperatura mínima	23.3
24548	7	Sololá	701	Sololá	1	Sololá	5	Mayo	2023-05-19T00:00:00	2024-11-08T15:00:00	5	Humedad	49
24549	7	Sololá	701	Sololá	1	Sololá	5	Mayo	2023-05-19T00:00:00	2024-11-08T15:00:00	6	Velocidad del viento	11.3
24550	7	Sololá	701	Sololá	1	Sololá	5	Mayo	2023-05-19T00:00:00	2024-11-08T15:00:00	7	Dirección del viento	11.27
24551	7	Sololá	701	Sololá	1	Sololá	5	Mayo	2023-05-19T00:00:00	2024-11-08T15:00:00	1	Precipitación	0
24552	7	Sololá	701	Sololá	1	Sololá	5	Mayo	2023-05-19T00:00:00	2024-11-08T15:00:00	8	Radiación solar	342
24553	7	Sololá	701	Sololá	1	Sololá	5	Mayo	2023-05-19T00:00:00	2024-11-08T16:00:00	2	Temperatura media	23.4
24554	7	Sololá	701	Sololá	1	Sololá	5	Mayo	2023-05-19T00:00:00	2024-11-08T16:00:00	4	Temperatura máxima	24.8
24555	7	Sololá	701	Sololá	1	Sololá	5	Mayo	2023-05-19T00:00:00	2024-11-08T16:00:00	3	Temperatura mínima	23.4
24556	7	Sololá	701	Sololá	1	Sololá	5	Mayo	2023-05-19T00:00:00	2024-11-08T16:00:00	5	Humedad	56
24557	7	Sololá	701	Sololá	1	Sololá	5	Mayo	2023-05-19T00:00:00	2024-11-08T16:00:00	6	Velocidad del viento	12.9
24558	7	Sololá	701	Sololá	1	Sololá	5	Mayo	2023-05-19T00:00:00	2024-11-08T16:00:00	7	Dirección del viento	12.87
24559	7	Sololá	701	Sololá	1	Sololá	5	Mayo	2023-05-19T00:00:00	2024-11-08T16:00:00	1	Precipitación	0
24560	7	Sololá	701	Sololá	1	Sololá	5	Mayo	2023-05-19T00:00:00	2024-11-08T16:00:00	8	Radiación solar	179
24561	7	Sololá	701	Sololá	1	Sololá	5	Mayo	2023-05-19T00:00:00	2024-11-08T17:00:00	2	Temperatura media	21.7
24562	7	Sololá	701	Sololá	1	Sololá	5	Mayo	2023-05-19T00:00:00	2024-11-08T17:00:00	4	Temperatura máxima	23.7
24563	7	Sololá	701	Sololá	1	Sololá	5	Mayo	2023-05-19T00:00:00	2024-11-08T17:00:00	3	Temperatura mínima	21.7
24564	7	Sololá	701	Sololá	1	Sololá	5	Mayo	2023-05-19T00:00:00	2024-11-08T17:00:00	5	Humedad	65
24565	7	Sololá	701	Sololá	1	Sololá	5	Mayo	2023-05-19T00:00:00	2024-11-08T17:00:00	6	Velocidad del viento	9.7
24566	7	Sololá	701	Sololá	1	Sololá	5	Mayo	2023-05-19T00:00:00	2024-11-08T17:00:00	7	Dirección del viento	9.66
24567	7	Sololá	701	Sololá	1	Sololá	5	Mayo	2023-05-19T00:00:00	2024-11-08T17:00:00	1	Precipitación	0
24568	7	Sololá	701	Sololá	1	Sololá	5	Mayo	2023-05-19T00:00:00	2024-11-08T17:00:00	8	Radiación solar	38
24569	7	Sololá	701	Sololá	1	Sololá	5	Mayo	2023-05-19T00:00:00	2024-11-08T18:00:00	2	Temperatura media	20.7
24570	7	Sololá	701	Sololá	1	Sololá	5	Mayo	2023-05-19T00:00:00	2024-11-08T18:00:00	4	Temperatura máxima	21.8
24571	7	Sololá	701	Sololá	1	Sololá	5	Mayo	2023-05-19T00:00:00	2024-11-08T18:00:00	3	Temperatura mínima	20.2
24572	7	Sololá	701	Sololá	1	Sololá	5	Mayo	2023-05-19T00:00:00	2024-11-08T18:00:00	5	Humedad	68
24573	7	Sololá	701	Sololá	1	Sololá	5	Mayo	2023-05-19T00:00:00	2024-11-08T18:00:00	6	Velocidad del viento	4.8
24574	7	Sololá	701	Sololá	1	Sololá	5	Mayo	2023-05-19T00:00:00	2024-11-08T18:00:00	7	Dirección del viento	4.83
24575	7	Sololá	701	Sololá	1	Sololá	5	Mayo	2023-05-19T00:00:00	2024-11-08T18:00:00	1	Precipitación	0
24576	7	Sololá	701	Sololá	1	Sololá	5	Mayo	2023-05-19T00:00:00	2024-11-08T18:00:00	8	Radiación solar	32
24577	7	Sololá	701	Sololá	1	Sololá	5	Mayo	2023-05-19T00:00:00	2024-11-08T19:00:00	2	Temperatura media	19.7
24578	7	Sololá	701	Sololá	1	Sololá	5	Mayo	2023-05-19T00:00:00	2024-11-08T19:00:00	4	Temperatura máxima	20.8
24579	7	Sololá	701	Sololá	1	Sololá	5	Mayo	2023-05-19T00:00:00	2024-11-08T19:00:00	3	Temperatura mínima	19.7
24580	7	Sololá	701	Sololá	1	Sololá	5	Mayo	2023-05-19T00:00:00	2024-11-08T19:00:00	5	Humedad	72
24581	7	Sololá	701	Sololá	1	Sololá	5	Mayo	2023-05-19T00:00:00	2024-11-08T19:00:00	6	Velocidad del viento	8
24582	7	Sololá	701	Sololá	1	Sololá	5	Mayo	2023-05-19T00:00:00	2024-11-08T19:00:00	7	Dirección del viento	8.05
24583	7	Sololá	701	Sololá	1	Sololá	5	Mayo	2023-05-19T00:00:00	2024-11-08T19:00:00	1	Precipitación	0
24584	7	Sololá	701	Sololá	1	Sololá	5	Mayo	2023-05-19T00:00:00	2024-11-08T19:00:00	8	Radiación solar	0
24585	7	Sololá	701	Sololá	1	Sololá	5	Mayo	2023-05-19T00:00:00	2024-11-08T20:00:00	2	Temperatura media	18.7
24586	7	Sololá	701	Sololá	1	Sololá	5	Mayo	2023-05-19T00:00:00	2024-11-08T20:00:00	4	Temperatura máxima	19.7
24587	7	Sololá	701	Sololá	1	Sololá	5	Mayo	2023-05-19T00:00:00	2024-11-08T20:00:00	3	Temperatura mínima	18.7
24588	7	Sololá	701	Sololá	1	Sololá	5	Mayo	2023-05-19T00:00:00	2024-11-08T20:00:00	5	Humedad	74
24589	7	Sololá	701	Sololá	1	Sololá	5	Mayo	2023-05-19T00:00:00	2024-11-08T20:00:00	6	Velocidad del viento	8
24590	7	Sololá	701	Sololá	1	Sololá	5	Mayo	2023-05-19T00:00:00	2024-11-08T20:00:00	7	Dirección del viento	8.05
24591	7	Sololá	701	Sololá	1	Sololá	5	Mayo	2023-05-19T00:00:00	2024-11-08T20:00:00	1	Precipitación	0
24592	7	Sololá	701	Sololá	1	Sololá	5	Mayo	2023-05-19T00:00:00	2024-11-08T20:00:00	8	Radiación solar	0
24593	7	Sololá	701	Sololá	1	Sololá	5	Mayo	2023-05-19T00:00:00	2024-11-08T21:00:00	2	Temperatura media	18
24594	7	Sololá	701	Sololá	1	Sololá	5	Mayo	2023-05-19T00:00:00	2024-11-08T21:00:00	4	Temperatura máxima	18.7
24595	7	Sololá	701	Sololá	1	Sololá	5	Mayo	2023-05-19T00:00:00	2024-11-08T21:00:00	3	Temperatura mínima	18
24596	7	Sololá	701	Sololá	1	Sololá	5	Mayo	2023-05-19T00:00:00	2024-11-08T21:00:00	5	Humedad	75
24597	7	Sololá	701	Sololá	1	Sololá	5	Mayo	2023-05-19T00:00:00	2024-11-08T21:00:00	6	Velocidad del viento	8
24598	7	Sololá	701	Sololá	1	Sololá	5	Mayo	2023-05-19T00:00:00	2024-11-08T21:00:00	7	Dirección del viento	8.05
24599	7	Sololá	701	Sololá	1	Sololá	5	Mayo	2023-05-19T00:00:00	2024-11-08T21:00:00	1	Precipitación	0
24600	7	Sololá	701	Sololá	1	Sololá	5	Mayo	2023-05-19T00:00:00	2024-11-08T21:00:00	8	Radiación solar	0
24601	7	Sololá	701	Sololá	1	Sololá	5	Mayo	2023-05-19T00:00:00	2024-11-08T22:00:00	2	Temperatura media	17.4
24602	7	Sololá	701	Sololá	1	Sololá	5	Mayo	2023-05-19T00:00:00	2024-11-08T22:00:00	4	Temperatura máxima	18
24603	7	Sololá	701	Sololá	1	Sololá	5	Mayo	2023-05-19T00:00:00	2024-11-08T22:00:00	3	Temperatura mínima	17.4
24604	7	Sololá	701	Sololá	1	Sololá	5	Mayo	2023-05-19T00:00:00	2024-11-08T22:00:00	5	Humedad	77
24605	7	Sololá	701	Sololá	1	Sololá	5	Mayo	2023-05-19T00:00:00	2024-11-08T22:00:00	6	Velocidad del viento	6.4
24606	7	Sololá	701	Sololá	1	Sololá	5	Mayo	2023-05-19T00:00:00	2024-11-08T22:00:00	7	Dirección del viento	6.44
24607	7	Sololá	701	Sololá	1	Sololá	5	Mayo	2023-05-19T00:00:00	2024-11-08T22:00:00	1	Precipitación	0
24608	7	Sololá	701	Sololá	1	Sololá	5	Mayo	2023-05-19T00:00:00	2024-11-08T22:00:00	8	Radiación solar	0
24609	7	Sololá	701	Sololá	1	Sololá	5	Mayo	2023-05-19T00:00:00	2024-11-08T23:00:00	2	Temperatura media	16.9
24610	7	Sololá	701	Sololá	1	Sololá	5	Mayo	2023-05-19T00:00:00	2024-11-08T23:00:00	4	Temperatura máxima	17.4
24611	7	Sololá	701	Sololá	1	Sololá	5	Mayo	2023-05-19T00:00:00	2024-11-08T23:00:00	3	Temperatura mínima	16.9
24612	7	Sololá	701	Sololá	1	Sololá	5	Mayo	2023-05-19T00:00:00	2024-11-08T23:00:00	5	Humedad	79
24613	7	Sololá	701	Sololá	1	Sololá	5	Mayo	2023-05-19T00:00:00	2024-11-08T23:00:00	6	Velocidad del viento	3.2
24614	7	Sololá	701	Sololá	1	Sololá	5	Mayo	2023-05-19T00:00:00	2024-11-08T23:00:00	7	Dirección del viento	3.22
24615	7	Sololá	701	Sololá	1	Sololá	5	Mayo	2023-05-19T00:00:00	2024-11-08T23:00:00	1	Precipitación	0
24616	7	Sololá	701	Sololá	1	Sololá	5	Mayo	2023-05-19T00:00:00	2024-11-08T23:00:00	8	Radiación solar	0
24617	7	Sololá	701	Sololá	1	Sololá	5	Mayo	2023-05-20T00:00:00	2024-11-08T00:00:00	2	Temperatura media	16.7
24618	7	Sololá	701	Sololá	1	Sololá	5	Mayo	2023-05-20T00:00:00	2024-11-08T00:00:00	4	Temperatura máxima	17.1
24619	7	Sololá	701	Sololá	1	Sololá	5	Mayo	2023-05-20T00:00:00	2024-11-08T00:00:00	3	Temperatura mínima	16.7
24620	7	Sololá	701	Sololá	1	Sololá	5	Mayo	2023-05-20T00:00:00	2024-11-08T00:00:00	5	Humedad	78
24621	7	Sololá	701	Sololá	1	Sololá	5	Mayo	2023-05-20T00:00:00	2024-11-08T00:00:00	6	Velocidad del viento	4.8
24622	7	Sololá	701	Sololá	1	Sololá	5	Mayo	2023-05-20T00:00:00	2024-11-08T00:00:00	7	Dirección del viento	4.83
24623	7	Sololá	701	Sololá	1	Sololá	5	Mayo	2023-05-20T00:00:00	2024-11-08T00:00:00	1	Precipitación	0
24624	7	Sololá	701	Sololá	1	Sololá	5	Mayo	2023-05-20T00:00:00	2024-11-08T00:00:00	8	Radiación solar	0
24625	7	Sololá	701	Sololá	1	Sololá	5	Mayo	2023-05-20T00:00:00	2024-11-08T01:00:00	2	Temperatura media	16.2
24626	7	Sololá	701	Sololá	1	Sololá	5	Mayo	2023-05-20T00:00:00	2024-11-08T01:00:00	4	Temperatura máxima	16.8
24627	7	Sololá	701	Sololá	1	Sololá	5	Mayo	2023-05-20T00:00:00	2024-11-08T01:00:00	3	Temperatura mínima	16.1
24628	7	Sololá	701	Sololá	1	Sololá	5	Mayo	2023-05-20T00:00:00	2024-11-08T01:00:00	5	Humedad	79
24629	7	Sololá	701	Sololá	1	Sololá	5	Mayo	2023-05-20T00:00:00	2024-11-08T01:00:00	6	Velocidad del viento	3.2
24630	7	Sololá	701	Sololá	1	Sololá	5	Mayo	2023-05-20T00:00:00	2024-11-08T01:00:00	7	Dirección del viento	3.22
24631	7	Sololá	701	Sololá	1	Sololá	5	Mayo	2023-05-20T00:00:00	2024-11-08T01:00:00	1	Precipitación	0
24632	7	Sololá	701	Sololá	1	Sololá	5	Mayo	2023-05-20T00:00:00	2024-11-08T01:00:00	8	Radiación solar	0
24633	7	Sololá	701	Sololá	1	Sololá	5	Mayo	2023-05-20T00:00:00	2024-11-08T02:00:00	2	Temperatura media	16.4
24634	7	Sololá	701	Sololá	1	Sololá	5	Mayo	2023-05-20T00:00:00	2024-11-08T02:00:00	4	Temperatura máxima	16.4
24635	7	Sololá	701	Sololá	1	Sololá	5	Mayo	2023-05-20T00:00:00	2024-11-08T02:00:00	3	Temperatura mínima	15.7
24636	7	Sololá	701	Sololá	1	Sololá	5	Mayo	2023-05-20T00:00:00	2024-11-08T02:00:00	5	Humedad	75
24637	7	Sololá	701	Sololá	1	Sololá	5	Mayo	2023-05-20T00:00:00	2024-11-08T02:00:00	6	Velocidad del viento	4.8
24638	7	Sololá	701	Sololá	1	Sololá	5	Mayo	2023-05-20T00:00:00	2024-11-08T02:00:00	7	Dirección del viento	4.83
24639	7	Sololá	701	Sololá	1	Sololá	5	Mayo	2023-05-20T00:00:00	2024-11-08T02:00:00	1	Precipitación	0
24640	7	Sololá	701	Sololá	1	Sololá	5	Mayo	2023-05-20T00:00:00	2024-11-08T02:00:00	8	Radiación solar	0
24641	7	Sololá	701	Sololá	1	Sololá	5	Mayo	2023-05-20T00:00:00	2024-11-08T03:00:00	2	Temperatura media	16.2
24642	7	Sololá	701	Sololá	1	Sololá	5	Mayo	2023-05-20T00:00:00	2024-11-08T03:00:00	4	Temperatura máxima	16.4
24643	7	Sololá	701	Sololá	1	Sololá	5	Mayo	2023-05-20T00:00:00	2024-11-08T03:00:00	3	Temperatura mínima	16.2
24644	7	Sololá	701	Sololá	1	Sololá	5	Mayo	2023-05-20T00:00:00	2024-11-08T03:00:00	5	Humedad	75
24645	7	Sololá	701	Sololá	1	Sololá	5	Mayo	2023-05-20T00:00:00	2024-11-08T03:00:00	6	Velocidad del viento	8
24646	7	Sololá	701	Sololá	1	Sololá	5	Mayo	2023-05-20T00:00:00	2024-11-08T03:00:00	7	Dirección del viento	8.05
24647	7	Sololá	701	Sololá	1	Sololá	5	Mayo	2023-05-20T00:00:00	2024-11-08T03:00:00	1	Precipitación	0
24648	7	Sololá	701	Sololá	1	Sololá	5	Mayo	2023-05-20T00:00:00	2024-11-08T03:00:00	8	Radiación solar	0
24649	7	Sololá	701	Sololá	1	Sololá	5	Mayo	2023-05-20T00:00:00	2024-11-08T04:00:00	2	Temperatura media	16.9
24650	7	Sololá	701	Sololá	1	Sololá	5	Mayo	2023-05-20T00:00:00	2024-11-08T04:00:00	4	Temperatura máxima	17
24651	7	Sololá	701	Sololá	1	Sololá	5	Mayo	2023-05-20T00:00:00	2024-11-08T04:00:00	3	Temperatura mínima	16.2
24652	7	Sololá	701	Sololá	1	Sololá	5	Mayo	2023-05-20T00:00:00	2024-11-08T04:00:00	5	Humedad	66
24653	7	Sololá	701	Sololá	1	Sololá	5	Mayo	2023-05-20T00:00:00	2024-11-08T04:00:00	6	Velocidad del viento	11.3
24654	7	Sololá	701	Sololá	1	Sololá	5	Mayo	2023-05-20T00:00:00	2024-11-08T04:00:00	7	Dirección del viento	11.27
24655	7	Sololá	701	Sololá	1	Sololá	5	Mayo	2023-05-20T00:00:00	2024-11-08T04:00:00	1	Precipitación	0
24656	7	Sololá	701	Sololá	1	Sololá	5	Mayo	2023-05-20T00:00:00	2024-11-08T04:00:00	8	Radiación solar	0
24657	7	Sololá	701	Sololá	1	Sololá	5	Mayo	2023-05-20T00:00:00	2024-11-08T05:00:00	2	Temperatura media	17.2
24658	7	Sololá	701	Sololá	1	Sololá	5	Mayo	2023-05-20T00:00:00	2024-11-08T05:00:00	4	Temperatura máxima	17.2
24659	7	Sololá	701	Sololá	1	Sololá	5	Mayo	2023-05-20T00:00:00	2024-11-08T05:00:00	3	Temperatura mínima	16.9
24660	7	Sololá	701	Sololá	1	Sololá	5	Mayo	2023-05-20T00:00:00	2024-11-08T05:00:00	5	Humedad	60
24661	7	Sololá	701	Sololá	1	Sololá	5	Mayo	2023-05-20T00:00:00	2024-11-08T05:00:00	6	Velocidad del viento	14.5
24662	7	Sololá	701	Sololá	1	Sololá	5	Mayo	2023-05-20T00:00:00	2024-11-08T05:00:00	7	Dirección del viento	14.48
24663	7	Sololá	701	Sololá	1	Sololá	5	Mayo	2023-05-20T00:00:00	2024-11-08T05:00:00	1	Precipitación	0
24664	7	Sololá	701	Sololá	1	Sololá	5	Mayo	2023-05-20T00:00:00	2024-11-08T05:00:00	8	Radiación solar	0
24665	7	Sololá	701	Sololá	1	Sololá	5	Mayo	2023-05-20T00:00:00	2024-11-08T06:00:00	2	Temperatura media	16.9
24666	7	Sololá	701	Sololá	1	Sololá	5	Mayo	2023-05-20T00:00:00	2024-11-08T06:00:00	4	Temperatura máxima	17.2
24667	7	Sololá	701	Sololá	1	Sololá	5	Mayo	2023-05-20T00:00:00	2024-11-08T06:00:00	3	Temperatura mínima	16.8
24668	7	Sololá	701	Sololá	1	Sololá	5	Mayo	2023-05-20T00:00:00	2024-11-08T06:00:00	5	Humedad	61
24669	7	Sololá	701	Sololá	1	Sololá	5	Mayo	2023-05-20T00:00:00	2024-11-08T06:00:00	6	Velocidad del viento	12.9
24670	7	Sololá	701	Sololá	1	Sololá	5	Mayo	2023-05-20T00:00:00	2024-11-08T06:00:00	7	Dirección del viento	12.87
24671	7	Sololá	701	Sololá	1	Sololá	5	Mayo	2023-05-20T00:00:00	2024-11-08T06:00:00	1	Precipitación	0
24672	7	Sololá	701	Sololá	1	Sololá	5	Mayo	2023-05-20T00:00:00	2024-11-08T06:00:00	8	Radiación solar	5
24673	7	Sololá	701	Sololá	1	Sololá	5	Mayo	2023-05-20T00:00:00	2024-11-08T07:00:00	2	Temperatura media	18.3
24674	7	Sololá	701	Sololá	1	Sololá	5	Mayo	2023-05-20T00:00:00	2024-11-08T07:00:00	4	Temperatura máxima	18.3
24675	7	Sololá	701	Sololá	1	Sololá	5	Mayo	2023-05-20T00:00:00	2024-11-08T07:00:00	3	Temperatura mínima	16.9
24676	7	Sololá	701	Sololá	1	Sololá	5	Mayo	2023-05-20T00:00:00	2024-11-08T07:00:00	5	Humedad	57
24677	7	Sololá	701	Sololá	1	Sololá	5	Mayo	2023-05-20T00:00:00	2024-11-08T07:00:00	6	Velocidad del viento	9.7
24678	7	Sololá	701	Sololá	1	Sololá	5	Mayo	2023-05-20T00:00:00	2024-11-08T07:00:00	7	Dirección del viento	9.66
24679	7	Sololá	701	Sololá	1	Sololá	5	Mayo	2023-05-20T00:00:00	2024-11-08T07:00:00	1	Precipitación	0
24680	7	Sololá	701	Sololá	1	Sololá	5	Mayo	2023-05-20T00:00:00	2024-11-08T07:00:00	8	Radiación solar	61
24681	7	Sololá	701	Sololá	1	Sololá	5	Mayo	2023-05-20T00:00:00	2024-11-08T08:00:00	2	Temperatura media	19.8
24682	7	Sololá	701	Sololá	1	Sololá	5	Mayo	2023-05-20T00:00:00	2024-11-08T08:00:00	4	Temperatura máxima	19.8
24683	7	Sololá	701	Sololá	1	Sololá	5	Mayo	2023-05-20T00:00:00	2024-11-08T08:00:00	3	Temperatura mínima	18.3
24684	7	Sololá	701	Sololá	1	Sololá	5	Mayo	2023-05-20T00:00:00	2024-11-08T08:00:00	5	Humedad	53
24685	7	Sololá	701	Sololá	1	Sololá	5	Mayo	2023-05-20T00:00:00	2024-11-08T08:00:00	6	Velocidad del viento	4.8
24686	7	Sololá	701	Sololá	1	Sololá	5	Mayo	2023-05-20T00:00:00	2024-11-08T08:00:00	7	Dirección del viento	4.83
24687	7	Sololá	701	Sololá	1	Sololá	5	Mayo	2023-05-20T00:00:00	2024-11-08T08:00:00	1	Precipitación	0
24688	7	Sololá	701	Sololá	1	Sololá	5	Mayo	2023-05-20T00:00:00	2024-11-08T08:00:00	8	Radiación solar	147
24689	7	Sololá	701	Sololá	1	Sololá	5	Mayo	2023-05-20T00:00:00	2024-11-08T09:00:00	2	Temperatura media	20.9
24690	7	Sololá	701	Sololá	1	Sololá	5	Mayo	2023-05-20T00:00:00	2024-11-08T09:00:00	4	Temperatura máxima	21.1
24691	7	Sololá	701	Sololá	1	Sololá	5	Mayo	2023-05-20T00:00:00	2024-11-08T09:00:00	3	Temperatura mínima	19.8
24692	7	Sololá	701	Sololá	1	Sololá	5	Mayo	2023-05-20T00:00:00	2024-11-08T09:00:00	5	Humedad	57
24693	7	Sololá	701	Sololá	1	Sololá	5	Mayo	2023-05-20T00:00:00	2024-11-08T09:00:00	6	Velocidad del viento	6.4
24694	7	Sololá	701	Sololá	1	Sololá	5	Mayo	2023-05-20T00:00:00	2024-11-08T09:00:00	7	Dirección del viento	6.44
24695	7	Sololá	701	Sololá	1	Sololá	5	Mayo	2023-05-20T00:00:00	2024-11-08T09:00:00	1	Precipitación	0
24696	7	Sololá	701	Sololá	1	Sololá	5	Mayo	2023-05-20T00:00:00	2024-11-08T09:00:00	8	Radiación solar	422
24697	7	Sololá	701	Sololá	1	Sololá	5	Mayo	2023-05-20T00:00:00	2024-11-08T10:00:00	2	Temperatura media	21
24698	7	Sololá	701	Sololá	1	Sololá	5	Mayo	2023-05-20T00:00:00	2024-11-08T10:00:00	4	Temperatura máxima	21.8
24699	7	Sololá	701	Sololá	1	Sololá	5	Mayo	2023-05-20T00:00:00	2024-11-08T10:00:00	3	Temperatura mínima	20.7
24700	7	Sololá	701	Sololá	1	Sololá	5	Mayo	2023-05-20T00:00:00	2024-11-08T10:00:00	5	Humedad	58
24701	7	Sololá	701	Sololá	1	Sololá	5	Mayo	2023-05-20T00:00:00	2024-11-08T10:00:00	6	Velocidad del viento	12.9
24702	7	Sololá	701	Sololá	1	Sololá	5	Mayo	2023-05-20T00:00:00	2024-11-08T10:00:00	7	Dirección del viento	12.87
24703	7	Sololá	701	Sololá	1	Sololá	5	Mayo	2023-05-20T00:00:00	2024-11-08T10:00:00	1	Precipitación	0
24704	7	Sololá	701	Sololá	1	Sololá	5	Mayo	2023-05-20T00:00:00	2024-11-08T10:00:00	8	Radiación solar	677
24705	7	Sololá	701	Sololá	1	Sololá	5	Mayo	2023-05-20T00:00:00	2024-11-08T11:00:00	2	Temperatura media	22.3
24706	7	Sololá	701	Sololá	1	Sololá	5	Mayo	2023-05-20T00:00:00	2024-11-08T11:00:00	4	Temperatura máxima	22.3
24707	7	Sololá	701	Sololá	1	Sololá	5	Mayo	2023-05-20T00:00:00	2024-11-08T11:00:00	3	Temperatura mínima	20.9
24708	7	Sololá	701	Sololá	1	Sololá	5	Mayo	2023-05-20T00:00:00	2024-11-08T11:00:00	5	Humedad	53
24709	7	Sololá	701	Sololá	1	Sololá	5	Mayo	2023-05-20T00:00:00	2024-11-08T11:00:00	6	Velocidad del viento	16.1
24710	7	Sololá	701	Sololá	1	Sololá	5	Mayo	2023-05-20T00:00:00	2024-11-08T11:00:00	7	Dirección del viento	16.09
24711	7	Sololá	701	Sololá	1	Sololá	5	Mayo	2023-05-20T00:00:00	2024-11-08T11:00:00	1	Precipitación	0
24712	7	Sololá	701	Sololá	1	Sololá	5	Mayo	2023-05-20T00:00:00	2024-11-08T11:00:00	8	Radiación solar	799
24713	7	Sololá	701	Sololá	1	Sololá	5	Mayo	2023-05-20T00:00:00	2024-11-08T12:00:00	2	Temperatura media	23.5
24714	7	Sololá	701	Sololá	1	Sololá	5	Mayo	2023-05-20T00:00:00	2024-11-08T12:00:00	4	Temperatura máxima	23.8
24715	7	Sololá	701	Sololá	1	Sololá	5	Mayo	2023-05-20T00:00:00	2024-11-08T12:00:00	3	Temperatura mínima	22.3
24716	7	Sololá	701	Sololá	1	Sololá	5	Mayo	2023-05-20T00:00:00	2024-11-08T12:00:00	5	Humedad	48
24717	7	Sololá	701	Sololá	1	Sololá	5	Mayo	2023-05-20T00:00:00	2024-11-08T12:00:00	6	Velocidad del viento	11.3
24718	7	Sololá	701	Sololá	1	Sololá	5	Mayo	2023-05-20T00:00:00	2024-11-08T12:00:00	7	Dirección del viento	11.27
24719	7	Sololá	701	Sololá	1	Sololá	5	Mayo	2023-05-20T00:00:00	2024-11-08T12:00:00	1	Precipitación	0
24720	7	Sololá	701	Sololá	1	Sololá	5	Mayo	2023-05-20T00:00:00	2024-11-08T12:00:00	8	Radiación solar	342
24721	7	Sololá	701	Sololá	1	Sololá	5	Mayo	2023-05-20T00:00:00	2024-11-08T13:00:00	2	Temperatura media	23.7
24722	7	Sololá	701	Sololá	1	Sololá	5	Mayo	2023-05-20T00:00:00	2024-11-08T13:00:00	4	Temperatura máxima	24
24723	7	Sololá	701	Sololá	1	Sololá	5	Mayo	2023-05-20T00:00:00	2024-11-08T13:00:00	3	Temperatura mínima	23.2
24724	7	Sololá	701	Sololá	1	Sololá	5	Mayo	2023-05-20T00:00:00	2024-11-08T13:00:00	5	Humedad	46
24725	7	Sololá	701	Sololá	1	Sololá	5	Mayo	2023-05-20T00:00:00	2024-11-08T13:00:00	6	Velocidad del viento	16.1
24726	7	Sololá	701	Sololá	1	Sololá	5	Mayo	2023-05-20T00:00:00	2024-11-08T13:00:00	7	Dirección del viento	16.09
24727	7	Sololá	701	Sololá	1	Sololá	5	Mayo	2023-05-20T00:00:00	2024-11-08T13:00:00	1	Precipitación	0
24728	7	Sololá	701	Sololá	1	Sololá	5	Mayo	2023-05-20T00:00:00	2024-11-08T13:00:00	8	Radiación solar	430
24729	7	Sololá	701	Sololá	1	Sololá	5	Mayo	2023-05-20T00:00:00	2024-11-08T14:00:00	2	Temperatura media	24.2
24730	7	Sololá	701	Sololá	1	Sololá	5	Mayo	2023-05-20T00:00:00	2024-11-08T14:00:00	4	Temperatura máxima	24.8
24731	7	Sololá	701	Sololá	1	Sololá	5	Mayo	2023-05-20T00:00:00	2024-11-08T14:00:00	3	Temperatura mínima	23.5
24732	7	Sololá	701	Sololá	1	Sololá	5	Mayo	2023-05-20T00:00:00	2024-11-08T14:00:00	5	Humedad	42
24733	7	Sololá	701	Sololá	1	Sololá	5	Mayo	2023-05-20T00:00:00	2024-11-08T14:00:00	6	Velocidad del viento	16.1
24734	7	Sololá	701	Sololá	1	Sololá	5	Mayo	2023-05-20T00:00:00	2024-11-08T14:00:00	7	Dirección del viento	16.09
24735	7	Sololá	701	Sololá	1	Sololá	5	Mayo	2023-05-20T00:00:00	2024-11-08T14:00:00	1	Precipitación	0
24736	7	Sololá	701	Sololá	1	Sololá	5	Mayo	2023-05-20T00:00:00	2024-11-08T14:00:00	8	Radiación solar	603
24737	7	Sololá	701	Sololá	1	Sololá	5	Mayo	2023-05-20T00:00:00	2024-11-08T15:00:00	2	Temperatura media	24.1
24738	7	Sololá	701	Sololá	1	Sololá	5	Mayo	2023-05-20T00:00:00	2024-11-08T15:00:00	4	Temperatura máxima	24.9
24739	7	Sololá	701	Sololá	1	Sololá	5	Mayo	2023-05-20T00:00:00	2024-11-08T15:00:00	3	Temperatura mínima	23.7
24740	7	Sololá	701	Sololá	1	Sololá	5	Mayo	2023-05-20T00:00:00	2024-11-08T15:00:00	5	Humedad	45
24741	7	Sololá	701	Sololá	1	Sololá	5	Mayo	2023-05-20T00:00:00	2024-11-08T15:00:00	6	Velocidad del viento	14.5
24742	7	Sololá	701	Sololá	1	Sololá	5	Mayo	2023-05-20T00:00:00	2024-11-08T15:00:00	7	Dirección del viento	14.48
24743	7	Sololá	701	Sololá	1	Sololá	5	Mayo	2023-05-20T00:00:00	2024-11-08T15:00:00	1	Precipitación	0
24744	7	Sololá	701	Sololá	1	Sololá	5	Mayo	2023-05-20T00:00:00	2024-11-08T15:00:00	8	Radiación solar	376
24745	7	Sololá	701	Sololá	1	Sololá	5	Mayo	2023-05-20T00:00:00	2024-11-08T16:00:00	2	Temperatura media	23.4
24746	7	Sololá	701	Sololá	1	Sololá	5	Mayo	2023-05-20T00:00:00	2024-11-08T16:00:00	4	Temperatura máxima	24.4
24747	7	Sololá	701	Sololá	1	Sololá	5	Mayo	2023-05-20T00:00:00	2024-11-08T16:00:00	3	Temperatura mínima	23.4
24748	7	Sololá	701	Sololá	1	Sololá	5	Mayo	2023-05-20T00:00:00	2024-11-08T16:00:00	5	Humedad	45
24749	7	Sololá	701	Sololá	1	Sololá	5	Mayo	2023-05-20T00:00:00	2024-11-08T16:00:00	6	Velocidad del viento	12.9
24750	7	Sololá	701	Sololá	1	Sololá	5	Mayo	2023-05-20T00:00:00	2024-11-08T16:00:00	7	Dirección del viento	12.87
24751	7	Sololá	701	Sololá	1	Sololá	5	Mayo	2023-05-20T00:00:00	2024-11-08T16:00:00	1	Precipitación	0
24752	7	Sololá	701	Sololá	1	Sololá	5	Mayo	2023-05-20T00:00:00	2024-11-08T16:00:00	8	Radiación solar	113
24753	7	Sololá	701	Sololá	1	Sololá	5	Mayo	2023-05-20T00:00:00	2024-11-08T17:00:00	2	Temperatura media	22.5
24754	7	Sololá	701	Sololá	1	Sololá	5	Mayo	2023-05-20T00:00:00	2024-11-08T17:00:00	4	Temperatura máxima	23.4
24755	7	Sololá	701	Sololá	1	Sololá	5	Mayo	2023-05-20T00:00:00	2024-11-08T17:00:00	3	Temperatura mínima	22.5
24756	7	Sololá	701	Sololá	1	Sololá	5	Mayo	2023-05-20T00:00:00	2024-11-08T17:00:00	5	Humedad	50
24757	7	Sololá	701	Sololá	1	Sololá	5	Mayo	2023-05-20T00:00:00	2024-11-08T17:00:00	6	Velocidad del viento	12.9
24758	7	Sololá	701	Sololá	1	Sololá	5	Mayo	2023-05-20T00:00:00	2024-11-08T17:00:00	7	Dirección del viento	12.87
24759	7	Sololá	701	Sololá	1	Sololá	5	Mayo	2023-05-20T00:00:00	2024-11-08T17:00:00	1	Precipitación	0
24760	7	Sololá	701	Sololá	1	Sololá	5	Mayo	2023-05-20T00:00:00	2024-11-08T17:00:00	8	Radiación solar	31
24761	7	Sololá	701	Sololá	1	Sololá	5	Mayo	2023-05-20T00:00:00	2024-11-08T18:00:00	2	Temperatura media	20.8
24762	7	Sololá	701	Sololá	1	Sololá	5	Mayo	2023-05-20T00:00:00	2024-11-08T18:00:00	4	Temperatura máxima	22.6
24763	7	Sololá	701	Sololá	1	Sololá	5	Mayo	2023-05-20T00:00:00	2024-11-08T18:00:00	3	Temperatura mínima	20.8
24764	7	Sololá	701	Sololá	1	Sololá	5	Mayo	2023-05-20T00:00:00	2024-11-08T18:00:00	5	Humedad	57
24765	7	Sololá	701	Sololá	1	Sololá	5	Mayo	2023-05-20T00:00:00	2024-11-08T18:00:00	6	Velocidad del viento	11.3
24766	7	Sololá	701	Sololá	1	Sololá	5	Mayo	2023-05-20T00:00:00	2024-11-08T18:00:00	7	Dirección del viento	11.27
24767	7	Sololá	701	Sololá	1	Sololá	5	Mayo	2023-05-20T00:00:00	2024-11-08T18:00:00	1	Precipitación	0
24768	7	Sololá	701	Sololá	1	Sololá	5	Mayo	2023-05-20T00:00:00	2024-11-08T18:00:00	8	Radiación solar	14
24769	7	Sololá	701	Sololá	1	Sololá	5	Mayo	2023-05-20T00:00:00	2024-11-08T19:00:00	2	Temperatura media	18.9
24770	7	Sololá	701	Sololá	1	Sololá	5	Mayo	2023-05-20T00:00:00	2024-11-08T19:00:00	4	Temperatura máxima	20.8
24771	7	Sololá	701	Sololá	1	Sololá	5	Mayo	2023-05-20T00:00:00	2024-11-08T19:00:00	3	Temperatura mínima	18.9
24772	7	Sololá	701	Sololá	1	Sololá	5	Mayo	2023-05-20T00:00:00	2024-11-08T19:00:00	5	Humedad	68
24773	7	Sololá	701	Sololá	1	Sololá	5	Mayo	2023-05-20T00:00:00	2024-11-08T19:00:00	6	Velocidad del viento	9.7
24774	7	Sololá	701	Sololá	1	Sololá	5	Mayo	2023-05-20T00:00:00	2024-11-08T19:00:00	7	Dirección del viento	9.66
24775	7	Sololá	701	Sololá	1	Sololá	5	Mayo	2023-05-20T00:00:00	2024-11-08T19:00:00	1	Precipitación	0
24776	7	Sololá	701	Sololá	1	Sololá	5	Mayo	2023-05-20T00:00:00	2024-11-08T19:00:00	8	Radiación solar	0
24777	7	Sololá	701	Sololá	1	Sololá	5	Mayo	2023-05-20T00:00:00	2024-11-08T20:00:00	2	Temperatura media	18.1
24778	7	Sololá	701	Sololá	1	Sololá	5	Mayo	2023-05-20T00:00:00	2024-11-08T20:00:00	4	Temperatura máxima	18.9
24779	7	Sololá	701	Sololá	1	Sololá	5	Mayo	2023-05-20T00:00:00	2024-11-08T20:00:00	3	Temperatura mínima	18
24780	7	Sololá	701	Sololá	1	Sololá	5	Mayo	2023-05-20T00:00:00	2024-11-08T20:00:00	5	Humedad	72
24781	7	Sololá	701	Sololá	1	Sololá	5	Mayo	2023-05-20T00:00:00	2024-11-08T20:00:00	6	Velocidad del viento	11.3
24782	7	Sololá	701	Sololá	1	Sololá	5	Mayo	2023-05-20T00:00:00	2024-11-08T20:00:00	7	Dirección del viento	11.27
24783	7	Sololá	701	Sololá	1	Sololá	5	Mayo	2023-05-20T00:00:00	2024-11-08T20:00:00	1	Precipitación	0
24784	7	Sololá	701	Sololá	1	Sololá	5	Mayo	2023-05-20T00:00:00	2024-11-08T20:00:00	8	Radiación solar	0
24785	7	Sololá	701	Sololá	1	Sololá	5	Mayo	2023-05-20T00:00:00	2024-11-08T21:00:00	2	Temperatura media	17.4
24786	7	Sololá	701	Sololá	1	Sololá	5	Mayo	2023-05-20T00:00:00	2024-11-08T21:00:00	4	Temperatura máxima	18.1
24787	7	Sololá	701	Sololá	1	Sololá	5	Mayo	2023-05-20T00:00:00	2024-11-08T21:00:00	3	Temperatura mínima	17.4
24788	7	Sololá	701	Sololá	1	Sololá	5	Mayo	2023-05-20T00:00:00	2024-11-08T21:00:00	5	Humedad	74
24789	7	Sololá	701	Sololá	1	Sololá	5	Mayo	2023-05-20T00:00:00	2024-11-08T21:00:00	6	Velocidad del viento	9.7
24790	7	Sololá	701	Sololá	1	Sololá	5	Mayo	2023-05-20T00:00:00	2024-11-08T21:00:00	7	Dirección del viento	9.66
24791	7	Sololá	701	Sololá	1	Sololá	5	Mayo	2023-05-20T00:00:00	2024-11-08T21:00:00	1	Precipitación	0
24792	7	Sololá	701	Sololá	1	Sololá	5	Mayo	2023-05-20T00:00:00	2024-11-08T21:00:00	8	Radiación solar	0
24793	7	Sololá	701	Sololá	1	Sololá	5	Mayo	2023-05-20T00:00:00	2024-11-08T22:00:00	2	Temperatura media	17
24794	7	Sololá	701	Sololá	1	Sololá	5	Mayo	2023-05-20T00:00:00	2024-11-08T22:00:00	4	Temperatura máxima	17.4
24795	7	Sololá	701	Sololá	1	Sololá	5	Mayo	2023-05-20T00:00:00	2024-11-08T22:00:00	3	Temperatura mínima	17
24796	7	Sololá	701	Sololá	1	Sololá	5	Mayo	2023-05-20T00:00:00	2024-11-08T22:00:00	5	Humedad	70
24797	7	Sololá	701	Sololá	1	Sololá	5	Mayo	2023-05-20T00:00:00	2024-11-08T22:00:00	6	Velocidad del viento	11.3
24798	7	Sololá	701	Sololá	1	Sololá	5	Mayo	2023-05-20T00:00:00	2024-11-08T22:00:00	7	Dirección del viento	11.27
24799	7	Sololá	701	Sololá	1	Sololá	5	Mayo	2023-05-20T00:00:00	2024-11-08T22:00:00	1	Precipitación	0
24800	7	Sololá	701	Sololá	1	Sololá	5	Mayo	2023-05-20T00:00:00	2024-11-08T22:00:00	8	Radiación solar	0
24801	7	Sololá	701	Sololá	1	Sololá	5	Mayo	2023-05-20T00:00:00	2024-11-08T23:00:00	2	Temperatura media	16.5
24802	7	Sololá	701	Sololá	1	Sololá	5	Mayo	2023-05-20T00:00:00	2024-11-08T23:00:00	4	Temperatura máxima	17
24803	7	Sololá	701	Sololá	1	Sololá	5	Mayo	2023-05-20T00:00:00	2024-11-08T23:00:00	3	Temperatura mínima	16.4
24804	7	Sololá	701	Sololá	1	Sololá	5	Mayo	2023-05-20T00:00:00	2024-11-08T23:00:00	5	Humedad	72
24805	7	Sololá	701	Sololá	1	Sololá	5	Mayo	2023-05-20T00:00:00	2024-11-08T23:00:00	6	Velocidad del viento	8
24806	7	Sololá	701	Sololá	1	Sololá	5	Mayo	2023-05-20T00:00:00	2024-11-08T23:00:00	7	Dirección del viento	8.05
24807	7	Sololá	701	Sololá	1	Sololá	5	Mayo	2023-05-20T00:00:00	2024-11-08T23:00:00	1	Precipitación	0
24808	7	Sololá	701	Sololá	1	Sololá	5	Mayo	2023-05-20T00:00:00	2024-11-08T23:00:00	8	Radiación solar	0
24809	7	Sololá	701	Sololá	1	Sololá	5	Mayo	2023-05-21T00:00:00	2024-11-08T00:00:00	2	Temperatura media	16.2
24810	7	Sololá	701	Sololá	1	Sololá	5	Mayo	2023-05-21T00:00:00	2024-11-08T00:00:00	4	Temperatura máxima	16.6
24811	7	Sololá	701	Sololá	1	Sololá	5	Mayo	2023-05-21T00:00:00	2024-11-08T00:00:00	3	Temperatura mínima	16.2
24812	7	Sololá	701	Sololá	1	Sololá	5	Mayo	2023-05-21T00:00:00	2024-11-08T00:00:00	5	Humedad	74
24813	7	Sololá	701	Sololá	1	Sololá	5	Mayo	2023-05-21T00:00:00	2024-11-08T00:00:00	6	Velocidad del viento	8
24814	7	Sololá	701	Sololá	1	Sololá	5	Mayo	2023-05-21T00:00:00	2024-11-08T00:00:00	7	Dirección del viento	8.05
24815	7	Sololá	701	Sololá	1	Sololá	5	Mayo	2023-05-21T00:00:00	2024-11-08T00:00:00	1	Precipitación	0
24816	7	Sololá	701	Sololá	1	Sololá	5	Mayo	2023-05-21T00:00:00	2024-11-08T00:00:00	8	Radiación solar	0
24817	7	Sololá	701	Sololá	1	Sololá	5	Mayo	2023-05-21T00:00:00	2024-11-08T01:00:00	2	Temperatura media	14.6
24818	7	Sololá	701	Sololá	1	Sololá	5	Mayo	2023-05-21T00:00:00	2024-11-08T01:00:00	4	Temperatura máxima	16.2
24819	7	Sololá	701	Sololá	1	Sololá	5	Mayo	2023-05-21T00:00:00	2024-11-08T01:00:00	3	Temperatura mínima	14.5
24820	7	Sololá	701	Sololá	1	Sololá	5	Mayo	2023-05-21T00:00:00	2024-11-08T01:00:00	5	Humedad	78
24821	7	Sololá	701	Sololá	1	Sololá	5	Mayo	2023-05-21T00:00:00	2024-11-08T01:00:00	6	Velocidad del viento	6.4
24822	7	Sololá	701	Sololá	1	Sololá	5	Mayo	2023-05-21T00:00:00	2024-11-08T01:00:00	7	Dirección del viento	6.44
24823	7	Sololá	701	Sololá	1	Sololá	5	Mayo	2023-05-21T00:00:00	2024-11-08T01:00:00	1	Precipitación	0
24824	7	Sololá	701	Sololá	1	Sololá	5	Mayo	2023-05-21T00:00:00	2024-11-08T01:00:00	8	Radiación solar	0
24825	7	Sololá	701	Sololá	1	Sololá	5	Mayo	2023-05-21T00:00:00	2024-11-08T02:00:00	2	Temperatura media	15.8
24826	7	Sololá	701	Sololá	1	Sololá	5	Mayo	2023-05-21T00:00:00	2024-11-08T02:00:00	4	Temperatura máxima	15.9
24827	7	Sololá	701	Sololá	1	Sololá	5	Mayo	2023-05-21T00:00:00	2024-11-08T02:00:00	3	Temperatura mínima	14.6
24828	7	Sololá	701	Sololá	1	Sololá	5	Mayo	2023-05-21T00:00:00	2024-11-08T02:00:00	5	Humedad	74
24829	7	Sololá	701	Sololá	1	Sololá	5	Mayo	2023-05-21T00:00:00	2024-11-08T02:00:00	6	Velocidad del viento	3.2
24830	7	Sololá	701	Sololá	1	Sololá	5	Mayo	2023-05-21T00:00:00	2024-11-08T02:00:00	7	Dirección del viento	3.22
24831	7	Sololá	701	Sololá	1	Sololá	5	Mayo	2023-05-21T00:00:00	2024-11-08T02:00:00	1	Precipitación	0
24832	7	Sololá	701	Sololá	1	Sololá	5	Mayo	2023-05-21T00:00:00	2024-11-08T02:00:00	8	Radiación solar	0
24833	7	Sololá	701	Sololá	1	Sololá	5	Mayo	2023-05-21T00:00:00	2024-11-08T03:00:00	2	Temperatura media	15.1
24834	7	Sololá	701	Sololá	1	Sololá	5	Mayo	2023-05-21T00:00:00	2024-11-08T03:00:00	4	Temperatura máxima	16.9
24835	7	Sololá	701	Sololá	1	Sololá	5	Mayo	2023-05-21T00:00:00	2024-11-08T03:00:00	3	Temperatura mínima	14.9
24836	7	Sololá	701	Sololá	1	Sololá	5	Mayo	2023-05-21T00:00:00	2024-11-08T03:00:00	5	Humedad	76
24837	7	Sololá	701	Sololá	1	Sololá	5	Mayo	2023-05-21T00:00:00	2024-11-08T03:00:00	6	Velocidad del viento	8
24838	7	Sololá	701	Sololá	1	Sololá	5	Mayo	2023-05-21T00:00:00	2024-11-08T03:00:00	7	Dirección del viento	8.05
24839	7	Sololá	701	Sololá	1	Sololá	5	Mayo	2023-05-21T00:00:00	2024-11-08T03:00:00	1	Precipitación	0
24840	7	Sololá	701	Sololá	1	Sololá	5	Mayo	2023-05-21T00:00:00	2024-11-08T03:00:00	8	Radiación solar	0
24841	7	Sololá	701	Sololá	1	Sololá	5	Mayo	2023-05-21T00:00:00	2024-11-08T04:00:00	2	Temperatura media	14.9
24842	7	Sololá	701	Sololá	1	Sololá	5	Mayo	2023-05-21T00:00:00	2024-11-08T04:00:00	4	Temperatura máxima	17
24843	7	Sololá	701	Sololá	1	Sololá	5	Mayo	2023-05-21T00:00:00	2024-11-08T04:00:00	3	Temperatura mínima	14.8
24844	7	Sololá	701	Sololá	1	Sololá	5	Mayo	2023-05-21T00:00:00	2024-11-08T04:00:00	5	Humedad	75
24845	7	Sololá	701	Sololá	1	Sololá	5	Mayo	2023-05-21T00:00:00	2024-11-08T04:00:00	6	Velocidad del viento	6.4
24846	7	Sololá	701	Sololá	1	Sololá	5	Mayo	2023-05-21T00:00:00	2024-11-08T04:00:00	7	Dirección del viento	6.44
24847	7	Sololá	701	Sololá	1	Sololá	5	Mayo	2023-05-21T00:00:00	2024-11-08T04:00:00	1	Precipitación	0
24848	7	Sololá	701	Sololá	1	Sololá	5	Mayo	2023-05-21T00:00:00	2024-11-08T04:00:00	8	Radiación solar	0
24849	7	Sololá	701	Sololá	1	Sololá	5	Mayo	2023-05-21T00:00:00	2024-11-08T05:00:00	2	Temperatura media	15.7
24850	7	Sololá	701	Sololá	1	Sololá	5	Mayo	2023-05-21T00:00:00	2024-11-08T05:00:00	4	Temperatura máxima	15.7
24851	7	Sololá	701	Sololá	1	Sololá	5	Mayo	2023-05-21T00:00:00	2024-11-08T05:00:00	3	Temperatura mínima	14.8
24852	7	Sololá	701	Sololá	1	Sololá	5	Mayo	2023-05-21T00:00:00	2024-11-08T05:00:00	5	Humedad	75
24853	7	Sololá	701	Sololá	1	Sololá	5	Mayo	2023-05-21T00:00:00	2024-11-08T05:00:00	6	Velocidad del viento	3.2
24854	7	Sololá	701	Sololá	1	Sololá	5	Mayo	2023-05-21T00:00:00	2024-11-08T05:00:00	7	Dirección del viento	3.22
24855	7	Sololá	701	Sololá	1	Sololá	5	Mayo	2023-05-21T00:00:00	2024-11-08T05:00:00	1	Precipitación	0
24856	7	Sololá	701	Sololá	1	Sololá	5	Mayo	2023-05-21T00:00:00	2024-11-08T05:00:00	8	Radiación solar	0
24857	7	Sololá	701	Sololá	1	Sololá	5	Mayo	2023-05-21T00:00:00	2024-11-08T06:00:00	2	Temperatura media	16.9
24858	7	Sololá	701	Sololá	1	Sololá	5	Mayo	2023-05-21T00:00:00	2024-11-08T06:00:00	4	Temperatura máxima	16.9
24859	7	Sololá	701	Sololá	1	Sololá	5	Mayo	2023-05-21T00:00:00	2024-11-08T06:00:00	3	Temperatura mínima	15.7
24860	7	Sololá	701	Sololá	1	Sololá	5	Mayo	2023-05-21T00:00:00	2024-11-08T06:00:00	5	Humedad	73
24861	7	Sololá	701	Sololá	1	Sololá	5	Mayo	2023-05-21T00:00:00	2024-11-08T06:00:00	6	Velocidad del viento	11.3
24862	7	Sololá	701	Sololá	1	Sololá	5	Mayo	2023-05-21T00:00:00	2024-11-08T06:00:00	7	Dirección del viento	11.27
24863	7	Sololá	701	Sololá	1	Sololá	5	Mayo	2023-05-21T00:00:00	2024-11-08T06:00:00	1	Precipitación	0
24864	7	Sololá	701	Sololá	1	Sololá	5	Mayo	2023-05-21T00:00:00	2024-11-08T06:00:00	8	Radiación solar	3
24865	7	Sololá	701	Sololá	1	Sololá	5	Mayo	2023-05-21T00:00:00	2024-11-08T07:00:00	2	Temperatura media	16.1
24866	7	Sololá	701	Sololá	1	Sololá	5	Mayo	2023-05-21T00:00:00	2024-11-08T07:00:00	4	Temperatura máxima	16.9
24867	7	Sololá	701	Sololá	1	Sololá	5	Mayo	2023-05-21T00:00:00	2024-11-08T07:00:00	3	Temperatura mínima	16.1
24868	7	Sololá	701	Sololá	1	Sololá	5	Mayo	2023-05-21T00:00:00	2024-11-08T07:00:00	5	Humedad	77
24869	7	Sololá	701	Sololá	1	Sololá	5	Mayo	2023-05-21T00:00:00	2024-11-08T07:00:00	6	Velocidad del viento	16.1
24870	7	Sololá	701	Sololá	1	Sololá	5	Mayo	2023-05-21T00:00:00	2024-11-08T07:00:00	7	Dirección del viento	16.09
24871	7	Sololá	701	Sololá	1	Sololá	5	Mayo	2023-05-21T00:00:00	2024-11-08T07:00:00	1	Precipitación	0
24872	7	Sololá	701	Sololá	1	Sololá	5	Mayo	2023-05-21T00:00:00	2024-11-08T07:00:00	8	Radiación solar	52
24873	7	Sololá	701	Sololá	1	Sololá	5	Mayo	2023-05-21T00:00:00	2024-11-08T08:00:00	2	Temperatura media	17.6
24874	7	Sololá	701	Sololá	1	Sololá	5	Mayo	2023-05-21T00:00:00	2024-11-08T08:00:00	4	Temperatura máxima	17.6
24875	7	Sololá	701	Sololá	1	Sololá	5	Mayo	2023-05-21T00:00:00	2024-11-08T08:00:00	3	Temperatura mínima	16.1
24876	7	Sololá	701	Sololá	1	Sololá	5	Mayo	2023-05-21T00:00:00	2024-11-08T08:00:00	5	Humedad	74
24877	7	Sololá	701	Sololá	1	Sololá	5	Mayo	2023-05-21T00:00:00	2024-11-08T08:00:00	6	Velocidad del viento	11.3
24878	7	Sololá	701	Sololá	1	Sololá	5	Mayo	2023-05-21T00:00:00	2024-11-08T08:00:00	7	Dirección del viento	11.27
24879	7	Sololá	701	Sololá	1	Sololá	5	Mayo	2023-05-21T00:00:00	2024-11-08T08:00:00	1	Precipitación	0
24880	7	Sololá	701	Sololá	1	Sololá	5	Mayo	2023-05-21T00:00:00	2024-11-08T08:00:00	8	Radiación solar	106
24881	7	Sololá	701	Sololá	1	Sololá	5	Mayo	2023-05-21T00:00:00	2024-11-08T09:00:00	2	Temperatura media	18.3
24882	7	Sololá	701	Sololá	1	Sololá	5	Mayo	2023-05-21T00:00:00	2024-11-08T09:00:00	4	Temperatura máxima	18.7
24883	7	Sololá	701	Sololá	1	Sololá	5	Mayo	2023-05-21T00:00:00	2024-11-08T09:00:00	3	Temperatura mínima	17.6
24884	7	Sololá	701	Sololá	1	Sololá	5	Mayo	2023-05-21T00:00:00	2024-11-08T09:00:00	5	Humedad	72
24885	7	Sololá	701	Sololá	1	Sololá	5	Mayo	2023-05-21T00:00:00	2024-11-08T09:00:00	6	Velocidad del viento	9.7
24886	7	Sololá	701	Sololá	1	Sololá	5	Mayo	2023-05-21T00:00:00	2024-11-08T09:00:00	7	Dirección del viento	9.66
24887	7	Sololá	701	Sololá	1	Sololá	5	Mayo	2023-05-21T00:00:00	2024-11-08T09:00:00	1	Precipitación	0
24888	7	Sololá	701	Sololá	1	Sololá	5	Mayo	2023-05-21T00:00:00	2024-11-08T09:00:00	8	Radiación solar	449
24889	7	Sololá	701	Sololá	1	Sololá	5	Mayo	2023-05-21T00:00:00	2024-11-08T10:00:00	2	Temperatura media	19.8
24890	7	Sololá	701	Sololá	1	Sololá	5	Mayo	2023-05-21T00:00:00	2024-11-08T10:00:00	4	Temperatura máxima	19.8
24891	7	Sololá	701	Sololá	1	Sololá	5	Mayo	2023-05-21T00:00:00	2024-11-08T10:00:00	3	Temperatura mínima	18.3
24892	7	Sololá	701	Sololá	1	Sololá	5	Mayo	2023-05-21T00:00:00	2024-11-08T10:00:00	5	Humedad	65
24893	7	Sololá	701	Sololá	1	Sololá	5	Mayo	2023-05-21T00:00:00	2024-11-08T10:00:00	6	Velocidad del viento	6.4
24894	7	Sololá	701	Sololá	1	Sololá	5	Mayo	2023-05-21T00:00:00	2024-11-08T10:00:00	7	Dirección del viento	6.44
24895	7	Sololá	701	Sololá	1	Sololá	5	Mayo	2023-05-21T00:00:00	2024-11-08T10:00:00	1	Precipitación	0
24896	7	Sololá	701	Sololá	1	Sololá	5	Mayo	2023-05-21T00:00:00	2024-11-08T10:00:00	8	Radiación solar	726
24897	7	Sololá	701	Sololá	1	Sololá	5	Mayo	2023-05-21T00:00:00	2024-11-08T11:00:00	2	Temperatura media	20.8
24898	7	Sololá	701	Sololá	1	Sololá	5	Mayo	2023-05-21T00:00:00	2024-11-08T11:00:00	4	Temperatura máxima	21.1
24899	7	Sololá	701	Sololá	1	Sololá	5	Mayo	2023-05-21T00:00:00	2024-11-08T11:00:00	3	Temperatura mínima	19.7
24900	7	Sololá	701	Sololá	1	Sololá	5	Mayo	2023-05-21T00:00:00	2024-11-08T11:00:00	5	Humedad	66
24901	7	Sololá	701	Sololá	1	Sololá	5	Mayo	2023-05-21T00:00:00	2024-11-08T11:00:00	6	Velocidad del viento	4.8
24902	7	Sololá	701	Sololá	1	Sololá	5	Mayo	2023-05-21T00:00:00	2024-11-08T11:00:00	7	Dirección del viento	4.83
24903	7	Sololá	701	Sololá	1	Sololá	5	Mayo	2023-05-21T00:00:00	2024-11-08T11:00:00	1	Precipitación	0
24904	7	Sololá	701	Sololá	1	Sololá	5	Mayo	2023-05-21T00:00:00	2024-11-08T11:00:00	8	Radiación solar	559
24905	7	Sololá	701	Sololá	1	Sololá	5	Mayo	2023-05-21T00:00:00	2024-11-08T12:00:00	2	Temperatura media	21.7
24906	7	Sololá	701	Sololá	1	Sololá	5	Mayo	2023-05-21T00:00:00	2024-11-08T12:00:00	4	Temperatura máxima	22.4
24907	7	Sololá	701	Sololá	1	Sololá	5	Mayo	2023-05-21T00:00:00	2024-11-08T12:00:00	3	Temperatura mínima	20.8
24908	7	Sololá	701	Sololá	1	Sololá	5	Mayo	2023-05-21T00:00:00	2024-11-08T12:00:00	5	Humedad	63
24909	7	Sololá	701	Sololá	1	Sololá	5	Mayo	2023-05-21T00:00:00	2024-11-08T12:00:00	6	Velocidad del viento	6.4
24910	7	Sololá	701	Sololá	1	Sololá	5	Mayo	2023-05-21T00:00:00	2024-11-08T12:00:00	7	Dirección del viento	6.44
24911	7	Sololá	701	Sololá	1	Sololá	5	Mayo	2023-05-21T00:00:00	2024-11-08T12:00:00	1	Precipitación	0
24912	7	Sololá	701	Sololá	1	Sololá	5	Mayo	2023-05-21T00:00:00	2024-11-08T12:00:00	8	Radiación solar	911
24913	7	Sololá	701	Sololá	1	Sololá	5	Mayo	2023-05-21T00:00:00	2024-11-08T13:00:00	2	Temperatura media	20.4
24914	7	Sololá	701	Sololá	1	Sololá	5	Mayo	2023-05-21T00:00:00	2024-11-08T13:00:00	4	Temperatura máxima	21.7
24915	7	Sololá	701	Sololá	1	Sololá	5	Mayo	2023-05-21T00:00:00	2024-11-08T13:00:00	3	Temperatura mínima	20.3
24916	7	Sololá	701	Sololá	1	Sololá	5	Mayo	2023-05-21T00:00:00	2024-11-08T13:00:00	5	Humedad	69
24917	7	Sololá	701	Sololá	1	Sololá	5	Mayo	2023-05-21T00:00:00	2024-11-08T13:00:00	6	Velocidad del viento	4.8
24918	7	Sololá	701	Sololá	1	Sololá	5	Mayo	2023-05-21T00:00:00	2024-11-08T13:00:00	7	Dirección del viento	4.83
24919	7	Sololá	701	Sololá	1	Sololá	5	Mayo	2023-05-21T00:00:00	2024-11-08T13:00:00	1	Precipitación	0
24920	7	Sololá	701	Sololá	1	Sololá	5	Mayo	2023-05-21T00:00:00	2024-11-08T13:00:00	8	Radiación solar	670
24921	7	Sololá	701	Sololá	1	Sololá	5	Mayo	2023-05-21T00:00:00	2024-11-08T14:00:00	2	Temperatura media	19.5
24922	7	Sololá	701	Sololá	1	Sololá	5	Mayo	2023-05-21T00:00:00	2024-11-08T14:00:00	4	Temperatura máxima	20.4
24923	7	Sololá	701	Sololá	1	Sololá	5	Mayo	2023-05-21T00:00:00	2024-11-08T14:00:00	3	Temperatura mínima	19.4
24924	7	Sololá	701	Sololá	1	Sololá	5	Mayo	2023-05-21T00:00:00	2024-11-08T14:00:00	5	Humedad	72
24925	7	Sololá	701	Sololá	1	Sololá	5	Mayo	2023-05-21T00:00:00	2024-11-08T14:00:00	6	Velocidad del viento	3.2
24926	7	Sololá	701	Sololá	1	Sololá	5	Mayo	2023-05-21T00:00:00	2024-11-08T14:00:00	7	Dirección del viento	3.22
24927	7	Sololá	701	Sololá	1	Sololá	5	Mayo	2023-05-21T00:00:00	2024-11-08T14:00:00	1	Precipitación	0
24928	7	Sololá	701	Sololá	1	Sololá	5	Mayo	2023-05-21T00:00:00	2024-11-08T14:00:00	8	Radiación solar	516
24929	7	Sololá	701	Sololá	1	Sololá	5	Mayo	2023-05-21T00:00:00	2024-11-08T15:00:00	2	Temperatura media	20.4
24930	7	Sololá	701	Sololá	1	Sololá	5	Mayo	2023-05-21T00:00:00	2024-11-08T15:00:00	4	Temperatura máxima	20.8
24931	7	Sololá	701	Sololá	1	Sololá	5	Mayo	2023-05-21T00:00:00	2024-11-08T15:00:00	3	Temperatura mínima	19.4
24932	7	Sololá	701	Sololá	1	Sololá	5	Mayo	2023-05-21T00:00:00	2024-11-08T15:00:00	5	Humedad	73
24933	7	Sololá	701	Sololá	1	Sololá	5	Mayo	2023-05-21T00:00:00	2024-11-08T15:00:00	6	Velocidad del viento	3.2
24934	7	Sololá	701	Sololá	1	Sololá	5	Mayo	2023-05-21T00:00:00	2024-11-08T15:00:00	7	Dirección del viento	3.22
24935	7	Sololá	701	Sololá	1	Sololá	5	Mayo	2023-05-21T00:00:00	2024-11-08T15:00:00	1	Precipitación	0
24936	7	Sololá	701	Sololá	1	Sololá	5	Mayo	2023-05-21T00:00:00	2024-11-08T15:00:00	8	Radiación solar	229
24937	7	Sololá	701	Sololá	1	Sololá	5	Mayo	2023-05-21T00:00:00	2024-11-08T16:00:00	2	Temperatura media	20.1
24938	7	Sololá	701	Sololá	1	Sololá	5	Mayo	2023-05-21T00:00:00	2024-11-08T16:00:00	4	Temperatura máxima	20.5
24939	7	Sololá	701	Sololá	1	Sololá	5	Mayo	2023-05-21T00:00:00	2024-11-08T16:00:00	3	Temperatura mínima	19.7
24940	7	Sololá	701	Sololá	1	Sololá	5	Mayo	2023-05-21T00:00:00	2024-11-08T16:00:00	5	Humedad	75
24941	7	Sololá	701	Sololá	1	Sololá	5	Mayo	2023-05-21T00:00:00	2024-11-08T16:00:00	6	Velocidad del viento	3.2
24942	7	Sololá	701	Sololá	1	Sololá	5	Mayo	2023-05-21T00:00:00	2024-11-08T16:00:00	7	Dirección del viento	3.22
24943	7	Sololá	701	Sololá	1	Sololá	5	Mayo	2023-05-21T00:00:00	2024-11-08T16:00:00	1	Precipitación	0
24944	7	Sololá	701	Sololá	1	Sololá	5	Mayo	2023-05-21T00:00:00	2024-11-08T16:00:00	8	Radiación solar	39
24945	7	Sololá	701	Sololá	1	Sololá	5	Mayo	2023-05-21T00:00:00	2024-11-08T17:00:00	2	Temperatura media	19.3
24946	7	Sololá	701	Sololá	1	Sololá	5	Mayo	2023-05-21T00:00:00	2024-11-08T17:00:00	4	Temperatura máxima	20.1
24947	7	Sololá	701	Sololá	1	Sololá	5	Mayo	2023-05-21T00:00:00	2024-11-08T17:00:00	3	Temperatura mínima	19.2
24948	7	Sololá	701	Sololá	1	Sololá	5	Mayo	2023-05-21T00:00:00	2024-11-08T17:00:00	5	Humedad	78
24949	7	Sololá	701	Sololá	1	Sololá	5	Mayo	2023-05-21T00:00:00	2024-11-08T17:00:00	6	Velocidad del viento	3.2
24950	7	Sololá	701	Sololá	1	Sololá	5	Mayo	2023-05-21T00:00:00	2024-11-08T17:00:00	7	Dirección del viento	3.22
24951	7	Sololá	701	Sololá	1	Sololá	5	Mayo	2023-05-21T00:00:00	2024-11-08T17:00:00	1	Precipitación	0
24952	7	Sololá	701	Sololá	1	Sololá	5	Mayo	2023-05-21T00:00:00	2024-11-08T17:00:00	8	Radiación solar	18
24953	7	Sololá	701	Sololá	1	Sololá	5	Mayo	2023-05-21T00:00:00	2024-11-08T18:00:00	2	Temperatura media	18.1
24954	7	Sololá	701	Sololá	1	Sololá	5	Mayo	2023-05-21T00:00:00	2024-11-08T18:00:00	4	Temperatura máxima	19.3
24955	7	Sololá	701	Sololá	1	Sololá	5	Mayo	2023-05-21T00:00:00	2024-11-08T18:00:00	3	Temperatura mínima	18.1
24956	7	Sololá	701	Sololá	1	Sololá	5	Mayo	2023-05-21T00:00:00	2024-11-08T18:00:00	5	Humedad	88
24957	7	Sololá	701	Sololá	1	Sololá	5	Mayo	2023-05-21T00:00:00	2024-11-08T18:00:00	6	Velocidad del viento	3.2
24958	7	Sololá	701	Sololá	1	Sololá	5	Mayo	2023-05-21T00:00:00	2024-11-08T18:00:00	7	Dirección del viento	3.22
24959	7	Sololá	701	Sololá	1	Sololá	5	Mayo	2023-05-21T00:00:00	2024-11-08T18:00:00	1	Precipitación	0
24960	7	Sololá	701	Sololá	1	Sololá	5	Mayo	2023-05-21T00:00:00	2024-11-08T18:00:00	8	Radiación solar	11
24961	7	Sololá	701	Sololá	1	Sololá	5	Mayo	2023-05-21T00:00:00	2024-11-08T19:00:00	2	Temperatura media	17.4
24962	7	Sololá	701	Sololá	1	Sololá	5	Mayo	2023-05-21T00:00:00	2024-11-08T19:00:00	4	Temperatura máxima	18.1
24963	7	Sololá	701	Sololá	1	Sololá	5	Mayo	2023-05-21T00:00:00	2024-11-08T19:00:00	3	Temperatura mínima	17.3
24964	7	Sololá	701	Sololá	1	Sololá	5	Mayo	2023-05-21T00:00:00	2024-11-08T19:00:00	5	Humedad	90
24965	7	Sololá	701	Sololá	1	Sololá	5	Mayo	2023-05-21T00:00:00	2024-11-08T19:00:00	6	Velocidad del viento	0
24966	7	Sololá	701	Sololá	1	Sololá	5	Mayo	2023-05-21T00:00:00	2024-11-08T19:00:00	7	Dirección del viento	0
24967	7	Sololá	701	Sololá	1	Sololá	5	Mayo	2023-05-21T00:00:00	2024-11-08T19:00:00	1	Precipitación	0
24968	7	Sololá	701	Sololá	1	Sololá	5	Mayo	2023-05-21T00:00:00	2024-11-08T19:00:00	8	Radiación solar	0
24969	7	Sololá	701	Sololá	1	Sololá	5	Mayo	2023-05-21T00:00:00	2024-11-08T20:00:00	2	Temperatura media	18
24970	7	Sololá	701	Sololá	1	Sololá	5	Mayo	2023-05-21T00:00:00	2024-11-08T20:00:00	4	Temperatura máxima	18.1
24971	7	Sololá	701	Sololá	1	Sololá	5	Mayo	2023-05-21T00:00:00	2024-11-08T20:00:00	3	Temperatura mínima	17.1
24972	7	Sololá	701	Sololá	1	Sololá	5	Mayo	2023-05-21T00:00:00	2024-11-08T20:00:00	5	Humedad	78
24973	7	Sololá	701	Sololá	1	Sololá	5	Mayo	2023-05-21T00:00:00	2024-11-08T20:00:00	6	Velocidad del viento	4.8
24974	7	Sololá	701	Sololá	1	Sololá	5	Mayo	2023-05-21T00:00:00	2024-11-08T20:00:00	7	Dirección del viento	4.83
24975	7	Sololá	701	Sololá	1	Sololá	5	Mayo	2023-05-21T00:00:00	2024-11-08T20:00:00	1	Precipitación	0
24976	7	Sololá	701	Sololá	1	Sololá	5	Mayo	2023-05-21T00:00:00	2024-11-08T20:00:00	8	Radiación solar	0
24977	7	Sololá	701	Sololá	1	Sololá	5	Mayo	2023-05-21T00:00:00	2024-11-08T21:00:00	2	Temperatura media	17.4
24978	7	Sololá	701	Sololá	1	Sololá	5	Mayo	2023-05-21T00:00:00	2024-11-08T21:00:00	4	Temperatura máxima	18.1
24979	7	Sololá	701	Sololá	1	Sololá	5	Mayo	2023-05-21T00:00:00	2024-11-08T21:00:00	3	Temperatura mínima	17.4
24980	7	Sololá	701	Sololá	1	Sololá	5	Mayo	2023-05-21T00:00:00	2024-11-08T21:00:00	5	Humedad	80
24981	7	Sololá	701	Sololá	1	Sololá	5	Mayo	2023-05-21T00:00:00	2024-11-08T21:00:00	6	Velocidad del viento	12.9
24982	7	Sololá	701	Sololá	1	Sololá	5	Mayo	2023-05-21T00:00:00	2024-11-08T21:00:00	7	Dirección del viento	12.87
24983	7	Sololá	701	Sololá	1	Sololá	5	Mayo	2023-05-21T00:00:00	2024-11-08T21:00:00	1	Precipitación	0
24984	7	Sololá	701	Sololá	1	Sololá	5	Mayo	2023-05-21T00:00:00	2024-11-08T21:00:00	8	Radiación solar	0
24985	7	Sololá	701	Sololá	1	Sololá	5	Mayo	2023-05-21T00:00:00	2024-11-08T22:00:00	2	Temperatura media	17.3
24986	7	Sololá	701	Sololá	1	Sololá	5	Mayo	2023-05-21T00:00:00	2024-11-08T22:00:00	4	Temperatura máxima	17.5
24987	7	Sololá	701	Sololá	1	Sololá	5	Mayo	2023-05-21T00:00:00	2024-11-08T22:00:00	3	Temperatura mínima	17.1
24988	7	Sololá	701	Sololá	1	Sololá	5	Mayo	2023-05-21T00:00:00	2024-11-08T22:00:00	5	Humedad	77
24989	7	Sololá	701	Sololá	1	Sololá	5	Mayo	2023-05-21T00:00:00	2024-11-08T22:00:00	6	Velocidad del viento	4.8
24990	7	Sololá	701	Sololá	1	Sololá	5	Mayo	2023-05-21T00:00:00	2024-11-08T22:00:00	7	Dirección del viento	4.83
24991	7	Sololá	701	Sololá	1	Sololá	5	Mayo	2023-05-21T00:00:00	2024-11-08T22:00:00	1	Precipitación	0
24992	7	Sololá	701	Sololá	1	Sololá	5	Mayo	2023-05-21T00:00:00	2024-11-08T22:00:00	8	Radiación solar	0
24993	7	Sololá	701	Sololá	1	Sololá	5	Mayo	2023-05-21T00:00:00	2024-11-08T23:00:00	2	Temperatura media	16.7
24994	7	Sololá	701	Sololá	1	Sololá	5	Mayo	2023-05-21T00:00:00	2024-11-08T23:00:00	4	Temperatura máxima	17.3
24995	7	Sololá	701	Sololá	1	Sololá	5	Mayo	2023-05-21T00:00:00	2024-11-08T23:00:00	3	Temperatura mínima	16.7
24996	7	Sololá	701	Sololá	1	Sololá	5	Mayo	2023-05-21T00:00:00	2024-11-08T23:00:00	5	Humedad	79
24997	7	Sololá	701	Sololá	1	Sololá	5	Mayo	2023-05-21T00:00:00	2024-11-08T23:00:00	6	Velocidad del viento	3.2
24998	7	Sololá	701	Sololá	1	Sololá	5	Mayo	2023-05-21T00:00:00	2024-11-08T23:00:00	7	Dirección del viento	3.22
24999	7	Sololá	701	Sololá	1	Sololá	5	Mayo	2023-05-21T00:00:00	2024-11-08T23:00:00	1	Precipitación	0
25000	7	Sololá	701	Sololá	1	Sololá	5	Mayo	2023-05-21T00:00:00	2024-11-08T23:00:00	8	Radiación solar	0
25001	7	Sololá	701	Sololá	1	Sololá	5	Mayo	2023-05-22T00:00:00	2024-11-08T00:00:00	2	Temperatura media	16.6
25002	7	Sololá	701	Sololá	1	Sololá	5	Mayo	2023-05-22T00:00:00	2024-11-08T00:00:00	4	Temperatura máxima	16.8
25003	7	Sololá	701	Sololá	1	Sololá	5	Mayo	2023-05-22T00:00:00	2024-11-08T00:00:00	3	Temperatura mínima	16.6
25004	7	Sololá	701	Sololá	1	Sololá	5	Mayo	2023-05-22T00:00:00	2024-11-08T00:00:00	5	Humedad	79
25005	7	Sololá	701	Sololá	1	Sololá	5	Mayo	2023-05-22T00:00:00	2024-11-08T00:00:00	6	Velocidad del viento	6.4
25006	7	Sololá	701	Sololá	1	Sololá	5	Mayo	2023-05-22T00:00:00	2024-11-08T00:00:00	7	Dirección del viento	6.44
25007	7	Sololá	701	Sololá	1	Sololá	5	Mayo	2023-05-22T00:00:00	2024-11-08T00:00:00	1	Precipitación	0
25008	7	Sololá	701	Sololá	1	Sololá	5	Mayo	2023-05-22T00:00:00	2024-11-08T00:00:00	8	Radiación solar	0
25009	7	Sololá	701	Sololá	1	Sololá	5	Mayo	2023-05-22T00:00:00	2024-11-08T01:00:00	2	Temperatura media	16.2
25010	7	Sololá	701	Sololá	1	Sololá	5	Mayo	2023-05-22T00:00:00	2024-11-08T01:00:00	4	Temperatura máxima	16.8
25011	7	Sololá	701	Sololá	1	Sololá	5	Mayo	2023-05-22T00:00:00	2024-11-08T01:00:00	3	Temperatura mínima	16.2
25012	7	Sololá	701	Sololá	1	Sololá	5	Mayo	2023-05-22T00:00:00	2024-11-08T01:00:00	5	Humedad	80
25013	7	Sololá	701	Sololá	1	Sololá	5	Mayo	2023-05-22T00:00:00	2024-11-08T01:00:00	6	Velocidad del viento	6.4
25014	7	Sololá	701	Sololá	1	Sololá	5	Mayo	2023-05-22T00:00:00	2024-11-08T01:00:00	7	Dirección del viento	6.44
25015	7	Sololá	701	Sololá	1	Sololá	5	Mayo	2023-05-22T00:00:00	2024-11-08T01:00:00	1	Precipitación	0
25016	7	Sololá	701	Sololá	1	Sololá	5	Mayo	2023-05-22T00:00:00	2024-11-08T01:00:00	8	Radiación solar	0
25017	7	Sololá	701	Sololá	1	Sololá	5	Mayo	2023-05-22T00:00:00	2024-11-08T02:00:00	2	Temperatura media	14.8
25018	7	Sololá	701	Sololá	1	Sololá	5	Mayo	2023-05-22T00:00:00	2024-11-08T02:00:00	4	Temperatura máxima	16.2
25019	7	Sololá	701	Sololá	1	Sololá	5	Mayo	2023-05-22T00:00:00	2024-11-08T02:00:00	3	Temperatura mínima	14.7
25020	7	Sololá	701	Sololá	1	Sololá	5	Mayo	2023-05-22T00:00:00	2024-11-08T02:00:00	5	Humedad	83
25021	7	Sololá	701	Sololá	1	Sololá	5	Mayo	2023-05-22T00:00:00	2024-11-08T02:00:00	6	Velocidad del viento	4.8
25022	7	Sololá	701	Sololá	1	Sololá	5	Mayo	2023-05-22T00:00:00	2024-11-08T02:00:00	7	Dirección del viento	4.83
25023	7	Sololá	701	Sololá	1	Sololá	5	Mayo	2023-05-22T00:00:00	2024-11-08T02:00:00	1	Precipitación	0
25024	7	Sololá	701	Sololá	1	Sololá	5	Mayo	2023-05-22T00:00:00	2024-11-08T02:00:00	8	Radiación solar	0
25025	7	Sololá	701	Sololá	1	Sololá	5	Mayo	2023-05-22T00:00:00	2024-11-08T03:00:00	2	Temperatura media	15.4
25026	7	Sololá	701	Sololá	1	Sololá	5	Mayo	2023-05-22T00:00:00	2024-11-08T03:00:00	4	Temperatura máxima	15.7
25027	7	Sololá	701	Sololá	1	Sololá	5	Mayo	2023-05-22T00:00:00	2024-11-08T03:00:00	3	Temperatura mínima	14.8
25028	7	Sololá	701	Sololá	1	Sololá	5	Mayo	2023-05-22T00:00:00	2024-11-08T03:00:00	5	Humedad	83
25029	7	Sololá	701	Sololá	1	Sololá	5	Mayo	2023-05-22T00:00:00	2024-11-08T03:00:00	6	Velocidad del viento	1.6
25030	7	Sololá	701	Sololá	1	Sololá	5	Mayo	2023-05-22T00:00:00	2024-11-08T03:00:00	7	Dirección del viento	1.61
25031	7	Sololá	701	Sololá	1	Sololá	5	Mayo	2023-05-22T00:00:00	2024-11-08T03:00:00	1	Precipitación	0
25032	7	Sololá	701	Sololá	1	Sololá	5	Mayo	2023-05-22T00:00:00	2024-11-08T03:00:00	8	Radiación solar	0
25033	7	Sololá	701	Sololá	1	Sololá	5	Mayo	2023-05-22T00:00:00	2024-11-08T04:00:00	2	Temperatura media	15.1
25034	7	Sololá	701	Sololá	1	Sololá	5	Mayo	2023-05-22T00:00:00	2024-11-08T04:00:00	4	Temperatura máxima	15.4
25035	7	Sololá	701	Sololá	1	Sololá	5	Mayo	2023-05-22T00:00:00	2024-11-08T04:00:00	3	Temperatura mínima	15
25036	7	Sololá	701	Sololá	1	Sololá	5	Mayo	2023-05-22T00:00:00	2024-11-08T04:00:00	5	Humedad	84
25037	7	Sololá	701	Sololá	1	Sololá	5	Mayo	2023-05-22T00:00:00	2024-11-08T04:00:00	6	Velocidad del viento	1.6
25038	7	Sololá	701	Sololá	1	Sololá	5	Mayo	2023-05-22T00:00:00	2024-11-08T04:00:00	7	Dirección del viento	1.61
25039	7	Sololá	701	Sololá	1	Sololá	5	Mayo	2023-05-22T00:00:00	2024-11-08T04:00:00	1	Precipitación	0
25040	7	Sololá	701	Sololá	1	Sololá	5	Mayo	2023-05-22T00:00:00	2024-11-08T04:00:00	8	Radiación solar	0
25041	7	Sololá	701	Sololá	1	Sololá	5	Mayo	2023-05-22T00:00:00	2024-11-08T05:00:00	2	Temperatura media	15.3
25042	7	Sololá	701	Sololá	1	Sololá	5	Mayo	2023-05-22T00:00:00	2024-11-08T05:00:00	4	Temperatura máxima	15.3
25043	7	Sololá	701	Sololá	1	Sololá	5	Mayo	2023-05-22T00:00:00	2024-11-08T05:00:00	3	Temperatura mínima	15
25044	7	Sololá	701	Sololá	1	Sololá	5	Mayo	2023-05-22T00:00:00	2024-11-08T05:00:00	5	Humedad	87
25045	7	Sololá	701	Sololá	1	Sololá	5	Mayo	2023-05-22T00:00:00	2024-11-08T05:00:00	6	Velocidad del viento	0
25046	7	Sololá	701	Sololá	1	Sololá	5	Mayo	2023-05-22T00:00:00	2024-11-08T05:00:00	7	Dirección del viento	0
25047	7	Sololá	701	Sololá	1	Sololá	5	Mayo	2023-05-22T00:00:00	2024-11-08T05:00:00	1	Precipitación	0
25048	7	Sololá	701	Sololá	1	Sololá	5	Mayo	2023-05-22T00:00:00	2024-11-08T05:00:00	8	Radiación solar	0
25049	7	Sololá	701	Sololá	1	Sololá	5	Mayo	2023-05-22T00:00:00	2024-11-08T06:00:00	2	Temperatura media	15.3
25050	7	Sololá	701	Sololá	1	Sololá	5	Mayo	2023-05-22T00:00:00	2024-11-08T06:00:00	4	Temperatura máxima	15.3
25051	7	Sololá	701	Sololá	1	Sololá	5	Mayo	2023-05-22T00:00:00	2024-11-08T06:00:00	3	Temperatura mínima	14.9
25052	7	Sololá	701	Sololá	1	Sololá	5	Mayo	2023-05-22T00:00:00	2024-11-08T06:00:00	5	Humedad	87
25053	7	Sololá	701	Sololá	1	Sololá	5	Mayo	2023-05-22T00:00:00	2024-11-08T06:00:00	6	Velocidad del viento	0
25054	7	Sololá	701	Sololá	1	Sololá	5	Mayo	2023-05-22T00:00:00	2024-11-08T06:00:00	7	Dirección del viento	0
25055	7	Sololá	701	Sololá	1	Sololá	5	Mayo	2023-05-22T00:00:00	2024-11-08T06:00:00	1	Precipitación	0
25056	7	Sololá	701	Sololá	1	Sololá	5	Mayo	2023-05-22T00:00:00	2024-11-08T06:00:00	8	Radiación solar	1
25057	7	Sololá	701	Sololá	1	Sololá	5	Mayo	2023-05-22T00:00:00	2024-11-08T07:00:00	2	Temperatura media	15.9
25058	7	Sololá	701	Sololá	1	Sololá	5	Mayo	2023-05-22T00:00:00	2024-11-08T07:00:00	4	Temperatura máxima	16
25059	7	Sololá	701	Sololá	1	Sololá	5	Mayo	2023-05-22T00:00:00	2024-11-08T07:00:00	3	Temperatura mínima	15.3
25060	7	Sololá	701	Sololá	1	Sololá	5	Mayo	2023-05-22T00:00:00	2024-11-08T07:00:00	5	Humedad	85
25061	7	Sololá	701	Sololá	1	Sololá	5	Mayo	2023-05-22T00:00:00	2024-11-08T07:00:00	6	Velocidad del viento	0
25062	7	Sololá	701	Sololá	1	Sololá	5	Mayo	2023-05-22T00:00:00	2024-11-08T07:00:00	7	Dirección del viento	0
25063	7	Sololá	701	Sololá	1	Sololá	5	Mayo	2023-05-22T00:00:00	2024-11-08T07:00:00	1	Precipitación	0
25064	7	Sololá	701	Sololá	1	Sololá	5	Mayo	2023-05-22T00:00:00	2024-11-08T07:00:00	8	Radiación solar	24
25065	7	Sololá	701	Sololá	1	Sololá	5	Mayo	2023-05-22T00:00:00	2024-11-08T08:00:00	2	Temperatura media	17.1
25066	7	Sololá	701	Sololá	1	Sololá	5	Mayo	2023-05-22T00:00:00	2024-11-08T08:00:00	4	Temperatura máxima	17.1
25067	7	Sololá	701	Sololá	1	Sololá	5	Mayo	2023-05-22T00:00:00	2024-11-08T08:00:00	3	Temperatura mínima	15.8
25068	7	Sololá	701	Sololá	1	Sololá	5	Mayo	2023-05-22T00:00:00	2024-11-08T08:00:00	5	Humedad	80
25069	7	Sololá	701	Sololá	1	Sololá	5	Mayo	2023-05-22T00:00:00	2024-11-08T08:00:00	6	Velocidad del viento	1.6
25070	7	Sololá	701	Sololá	1	Sololá	5	Mayo	2023-05-22T00:00:00	2024-11-08T08:00:00	7	Dirección del viento	1.61
25071	7	Sololá	701	Sololá	1	Sololá	5	Mayo	2023-05-22T00:00:00	2024-11-08T08:00:00	1	Precipitación	0
25072	7	Sololá	701	Sololá	1	Sololá	5	Mayo	2023-05-22T00:00:00	2024-11-08T08:00:00	8	Radiación solar	125
25073	7	Sololá	701	Sololá	1	Sololá	5	Mayo	2023-05-22T00:00:00	2024-11-08T09:00:00	2	Temperatura media	18.9
25074	7	Sololá	701	Sololá	1	Sololá	5	Mayo	2023-05-22T00:00:00	2024-11-08T09:00:00	4	Temperatura máxima	18.9
25075	7	Sololá	701	Sololá	1	Sololá	5	Mayo	2023-05-22T00:00:00	2024-11-08T09:00:00	3	Temperatura mínima	17
25076	7	Sololá	701	Sololá	1	Sololá	5	Mayo	2023-05-22T00:00:00	2024-11-08T09:00:00	5	Humedad	79
25077	7	Sololá	701	Sololá	1	Sololá	5	Mayo	2023-05-22T00:00:00	2024-11-08T09:00:00	6	Velocidad del viento	1.6
25078	7	Sololá	701	Sololá	1	Sololá	5	Mayo	2023-05-22T00:00:00	2024-11-08T09:00:00	7	Dirección del viento	1.61
25079	7	Sololá	701	Sololá	1	Sololá	5	Mayo	2023-05-22T00:00:00	2024-11-08T09:00:00	1	Precipitación	0
25080	7	Sololá	701	Sololá	1	Sololá	5	Mayo	2023-05-22T00:00:00	2024-11-08T09:00:00	8	Radiación solar	441
25081	7	Sololá	701	Sololá	1	Sololá	5	Mayo	2023-05-22T00:00:00	2024-11-08T10:00:00	2	Temperatura media	19.7
25082	7	Sololá	701	Sololá	1	Sololá	5	Mayo	2023-05-22T00:00:00	2024-11-08T10:00:00	4	Temperatura máxima	20.1
25083	7	Sololá	701	Sololá	1	Sololá	5	Mayo	2023-05-22T00:00:00	2024-11-08T10:00:00	3	Temperatura mínima	18.9
25084	7	Sololá	701	Sololá	1	Sololá	5	Mayo	2023-05-22T00:00:00	2024-11-08T10:00:00	5	Humedad	78
25085	7	Sololá	701	Sololá	1	Sololá	5	Mayo	2023-05-22T00:00:00	2024-11-08T10:00:00	6	Velocidad del viento	3.2
25086	7	Sololá	701	Sololá	1	Sololá	5	Mayo	2023-05-22T00:00:00	2024-11-08T10:00:00	7	Dirección del viento	3.22
25087	7	Sololá	701	Sololá	1	Sololá	5	Mayo	2023-05-22T00:00:00	2024-11-08T10:00:00	1	Precipitación	0
25088	7	Sololá	701	Sololá	1	Sololá	5	Mayo	2023-05-22T00:00:00	2024-11-08T10:00:00	8	Radiación solar	725
25089	7	Sololá	701	Sololá	1	Sololá	5	Mayo	2023-05-22T00:00:00	2024-11-08T11:00:00	2	Temperatura media	20.7
25090	7	Sololá	701	Sololá	1	Sololá	5	Mayo	2023-05-22T00:00:00	2024-11-08T11:00:00	4	Temperatura máxima	21.1
25091	7	Sololá	701	Sololá	1	Sololá	5	Mayo	2023-05-22T00:00:00	2024-11-08T11:00:00	3	Temperatura mínima	19.6
25092	7	Sololá	701	Sololá	1	Sololá	5	Mayo	2023-05-22T00:00:00	2024-11-08T11:00:00	5	Humedad	73
25093	7	Sololá	701	Sololá	1	Sololá	5	Mayo	2023-05-22T00:00:00	2024-11-08T11:00:00	6	Velocidad del viento	6.4
25094	7	Sololá	701	Sololá	1	Sololá	5	Mayo	2023-05-22T00:00:00	2024-11-08T11:00:00	7	Dirección del viento	6.44
25095	7	Sololá	701	Sololá	1	Sololá	5	Mayo	2023-05-22T00:00:00	2024-11-08T11:00:00	1	Precipitación	0
25096	7	Sololá	701	Sololá	1	Sololá	5	Mayo	2023-05-22T00:00:00	2024-11-08T11:00:00	8	Radiación solar	866
25097	7	Sololá	701	Sololá	1	Sololá	5	Mayo	2023-05-22T00:00:00	2024-11-08T12:00:00	2	Temperatura media	19.3
25098	7	Sololá	701	Sololá	1	Sololá	5	Mayo	2023-05-22T00:00:00	2024-11-08T12:00:00	4	Temperatura máxima	21.3
25099	7	Sololá	701	Sololá	1	Sololá	5	Mayo	2023-05-22T00:00:00	2024-11-08T12:00:00	3	Temperatura mínima	19.3
25100	7	Sololá	701	Sololá	1	Sololá	5	Mayo	2023-05-22T00:00:00	2024-11-08T12:00:00	5	Humedad	84
25101	7	Sololá	701	Sololá	1	Sololá	5	Mayo	2023-05-22T00:00:00	2024-11-08T12:00:00	6	Velocidad del viento	6.4
25102	7	Sololá	701	Sololá	1	Sololá	5	Mayo	2023-05-22T00:00:00	2024-11-08T12:00:00	7	Dirección del viento	6.44
25103	7	Sololá	701	Sololá	1	Sololá	5	Mayo	2023-05-22T00:00:00	2024-11-08T12:00:00	1	Precipitación	0
25104	7	Sololá	701	Sololá	1	Sololá	5	Mayo	2023-05-22T00:00:00	2024-11-08T12:00:00	8	Radiación solar	915
25105	7	Sololá	701	Sololá	1	Sololá	5	Mayo	2023-05-22T00:00:00	2024-11-08T13:00:00	2	Temperatura media	19.3
25106	7	Sololá	701	Sololá	1	Sololá	5	Mayo	2023-05-22T00:00:00	2024-11-08T13:00:00	4	Temperatura máxima	19.3
25107	7	Sololá	701	Sololá	1	Sololá	5	Mayo	2023-05-22T00:00:00	2024-11-08T13:00:00	3	Temperatura mínima	18.6
25108	7	Sololá	701	Sololá	1	Sololá	5	Mayo	2023-05-22T00:00:00	2024-11-08T13:00:00	5	Humedad	84
25109	7	Sololá	701	Sololá	1	Sololá	5	Mayo	2023-05-22T00:00:00	2024-11-08T13:00:00	6	Velocidad del viento	4.8
25110	7	Sololá	701	Sololá	1	Sololá	5	Mayo	2023-05-22T00:00:00	2024-11-08T13:00:00	7	Dirección del viento	4.83
25111	7	Sololá	701	Sololá	1	Sololá	5	Mayo	2023-05-22T00:00:00	2024-11-08T13:00:00	1	Precipitación	0
25112	7	Sololá	701	Sololá	1	Sololá	5	Mayo	2023-05-22T00:00:00	2024-11-08T13:00:00	8	Radiación solar	636
25113	7	Sololá	701	Sololá	1	Sololá	5	Mayo	2023-05-22T00:00:00	2024-11-08T14:00:00	2	Temperatura media	19.8
25114	7	Sololá	701	Sololá	1	Sololá	5	Mayo	2023-05-22T00:00:00	2024-11-08T14:00:00	4	Temperatura máxima	20.2
25115	7	Sololá	701	Sololá	1	Sololá	5	Mayo	2023-05-22T00:00:00	2024-11-08T14:00:00	3	Temperatura mínima	19.3
25116	7	Sololá	701	Sololá	1	Sololá	5	Mayo	2023-05-22T00:00:00	2024-11-08T14:00:00	5	Humedad	82
25117	7	Sololá	701	Sololá	1	Sololá	5	Mayo	2023-05-22T00:00:00	2024-11-08T14:00:00	6	Velocidad del viento	6.4
25118	7	Sololá	701	Sololá	1	Sololá	5	Mayo	2023-05-22T00:00:00	2024-11-08T14:00:00	7	Dirección del viento	6.44
25119	7	Sololá	701	Sololá	1	Sololá	5	Mayo	2023-05-22T00:00:00	2024-11-08T14:00:00	1	Precipitación	0
25120	7	Sololá	701	Sololá	1	Sololá	5	Mayo	2023-05-22T00:00:00	2024-11-08T14:00:00	8	Radiación solar	742
25121	7	Sololá	701	Sololá	1	Sololá	5	Mayo	2023-05-22T00:00:00	2024-11-08T15:00:00	2	Temperatura media	19.4
25122	7	Sololá	701	Sololá	1	Sololá	5	Mayo	2023-05-22T00:00:00	2024-11-08T15:00:00	4	Temperatura máxima	19.7
25123	7	Sololá	701	Sololá	1	Sololá	5	Mayo	2023-05-22T00:00:00	2024-11-08T15:00:00	3	Temperatura mínima	19.3
25124	7	Sololá	701	Sololá	1	Sololá	5	Mayo	2023-05-22T00:00:00	2024-11-08T15:00:00	5	Humedad	82
25125	7	Sololá	701	Sololá	1	Sololá	5	Mayo	2023-05-22T00:00:00	2024-11-08T15:00:00	6	Velocidad del viento	4.8
25126	7	Sololá	701	Sololá	1	Sololá	5	Mayo	2023-05-22T00:00:00	2024-11-08T15:00:00	7	Dirección del viento	4.83
25127	7	Sololá	701	Sololá	1	Sololá	5	Mayo	2023-05-22T00:00:00	2024-11-08T15:00:00	1	Precipitación	0
25128	7	Sololá	701	Sololá	1	Sololá	5	Mayo	2023-05-22T00:00:00	2024-11-08T15:00:00	8	Radiación solar	314
25129	7	Sololá	701	Sololá	1	Sololá	5	Mayo	2023-05-22T00:00:00	2024-11-08T16:00:00	2	Temperatura media	19.7
25130	7	Sololá	701	Sololá	1	Sololá	5	Mayo	2023-05-22T00:00:00	2024-11-08T16:00:00	4	Temperatura máxima	19.7
25131	7	Sololá	701	Sololá	1	Sololá	5	Mayo	2023-05-22T00:00:00	2024-11-08T16:00:00	3	Temperatura mínima	19.3
25132	7	Sololá	701	Sololá	1	Sololá	5	Mayo	2023-05-22T00:00:00	2024-11-08T16:00:00	5	Humedad	81
25133	7	Sololá	701	Sololá	1	Sololá	5	Mayo	2023-05-22T00:00:00	2024-11-08T16:00:00	6	Velocidad del viento	3.2
25134	7	Sololá	701	Sololá	1	Sololá	5	Mayo	2023-05-22T00:00:00	2024-11-08T16:00:00	7	Dirección del viento	3.22
25135	7	Sololá	701	Sololá	1	Sololá	5	Mayo	2023-05-22T00:00:00	2024-11-08T16:00:00	1	Precipitación	0
25136	7	Sololá	701	Sololá	1	Sololá	5	Mayo	2023-05-22T00:00:00	2024-11-08T16:00:00	8	Radiación solar	196
25137	7	Sololá	701	Sololá	1	Sololá	5	Mayo	2023-05-22T00:00:00	2024-11-08T17:00:00	2	Temperatura media	19.1
25138	7	Sololá	701	Sololá	1	Sololá	5	Mayo	2023-05-22T00:00:00	2024-11-08T17:00:00	4	Temperatura máxima	20.1
25139	7	Sololá	701	Sololá	1	Sololá	5	Mayo	2023-05-22T00:00:00	2024-11-08T17:00:00	3	Temperatura mínima	19
25140	7	Sololá	701	Sololá	1	Sololá	5	Mayo	2023-05-22T00:00:00	2024-11-08T17:00:00	5	Humedad	82
25141	7	Sololá	701	Sololá	1	Sololá	5	Mayo	2023-05-22T00:00:00	2024-11-08T17:00:00	6	Velocidad del viento	3.2
25142	7	Sololá	701	Sololá	1	Sololá	5	Mayo	2023-05-22T00:00:00	2024-11-08T17:00:00	7	Dirección del viento	3.22
25143	7	Sololá	701	Sololá	1	Sololá	5	Mayo	2023-05-22T00:00:00	2024-11-08T17:00:00	1	Precipitación	0
25144	7	Sololá	701	Sololá	1	Sololá	5	Mayo	2023-05-22T00:00:00	2024-11-08T17:00:00	8	Radiación solar	87
25145	7	Sololá	701	Sololá	1	Sololá	5	Mayo	2023-05-22T00:00:00	2024-11-08T18:00:00	2	Temperatura media	19.1
25146	7	Sololá	701	Sololá	1	Sololá	5	Mayo	2023-05-22T00:00:00	2024-11-08T18:00:00	4	Temperatura máxima	19.4
25147	7	Sololá	701	Sololá	1	Sololá	5	Mayo	2023-05-22T00:00:00	2024-11-08T18:00:00	3	Temperatura mínima	18.8
25148	7	Sololá	701	Sololá	1	Sololá	5	Mayo	2023-05-22T00:00:00	2024-11-08T18:00:00	5	Humedad	82
25149	7	Sololá	701	Sololá	1	Sololá	5	Mayo	2023-05-22T00:00:00	2024-11-08T18:00:00	6	Velocidad del viento	0
25150	7	Sololá	701	Sololá	1	Sololá	5	Mayo	2023-05-22T00:00:00	2024-11-08T18:00:00	7	Dirección del viento	0
25151	7	Sololá	701	Sololá	1	Sololá	5	Mayo	2023-05-22T00:00:00	2024-11-08T18:00:00	1	Precipitación	0
25152	7	Sololá	701	Sololá	1	Sololá	5	Mayo	2023-05-22T00:00:00	2024-11-08T18:00:00	8	Radiación solar	7
25153	7	Sololá	701	Sololá	1	Sololá	5	Mayo	2023-05-22T00:00:00	2024-11-08T19:00:00	2	Temperatura media	18.5
25154	7	Sololá	701	Sololá	1	Sololá	5	Mayo	2023-05-22T00:00:00	2024-11-08T19:00:00	4	Temperatura máxima	19.1
25155	7	Sololá	701	Sololá	1	Sololá	5	Mayo	2023-05-22T00:00:00	2024-11-08T19:00:00	3	Temperatura mínima	18.5
25156	7	Sololá	701	Sololá	1	Sololá	5	Mayo	2023-05-22T00:00:00	2024-11-08T19:00:00	5	Humedad	77
25157	7	Sololá	701	Sololá	1	Sololá	5	Mayo	2023-05-22T00:00:00	2024-11-08T19:00:00	6	Velocidad del viento	4.8
25158	7	Sololá	701	Sololá	1	Sololá	5	Mayo	2023-05-22T00:00:00	2024-11-08T19:00:00	7	Dirección del viento	4.83
25159	7	Sololá	701	Sololá	1	Sololá	5	Mayo	2023-05-22T00:00:00	2024-11-08T19:00:00	1	Precipitación	0
25160	7	Sololá	701	Sololá	1	Sololá	5	Mayo	2023-05-22T00:00:00	2024-11-08T19:00:00	8	Radiación solar	0
25161	7	Sololá	701	Sololá	1	Sololá	5	Mayo	2023-05-22T00:00:00	2024-11-08T20:00:00	2	Temperatura media	17.9
25162	7	Sololá	701	Sololá	1	Sololá	5	Mayo	2023-05-22T00:00:00	2024-11-08T20:00:00	4	Temperatura máxima	18.5
25163	7	Sololá	701	Sololá	1	Sololá	5	Mayo	2023-05-22T00:00:00	2024-11-08T20:00:00	3	Temperatura mínima	17.9
25164	7	Sololá	701	Sololá	1	Sololá	5	Mayo	2023-05-22T00:00:00	2024-11-08T20:00:00	5	Humedad	86
25165	7	Sololá	701	Sololá	1	Sololá	5	Mayo	2023-05-22T00:00:00	2024-11-08T20:00:00	6	Velocidad del viento	3.2
25166	7	Sololá	701	Sololá	1	Sololá	5	Mayo	2023-05-22T00:00:00	2024-11-08T20:00:00	7	Dirección del viento	3.22
25167	7	Sololá	701	Sololá	1	Sololá	5	Mayo	2023-05-22T00:00:00	2024-11-08T20:00:00	1	Precipitación	0
25168	7	Sololá	701	Sololá	1	Sololá	5	Mayo	2023-05-22T00:00:00	2024-11-08T20:00:00	8	Radiación solar	0
25169	7	Sololá	701	Sololá	1	Sololá	5	Mayo	2023-05-22T00:00:00	2024-11-08T21:00:00	2	Temperatura media	17.5
25170	7	Sololá	701	Sololá	1	Sololá	5	Mayo	2023-05-22T00:00:00	2024-11-08T21:00:00	4	Temperatura máxima	18
25171	7	Sololá	701	Sololá	1	Sololá	5	Mayo	2023-05-22T00:00:00	2024-11-08T21:00:00	3	Temperatura mínima	17.5
25172	7	Sololá	701	Sololá	1	Sololá	5	Mayo	2023-05-22T00:00:00	2024-11-08T21:00:00	5	Humedad	88
25173	7	Sololá	701	Sololá	1	Sololá	5	Mayo	2023-05-22T00:00:00	2024-11-08T21:00:00	6	Velocidad del viento	3.2
25174	7	Sololá	701	Sololá	1	Sololá	5	Mayo	2023-05-22T00:00:00	2024-11-08T21:00:00	7	Dirección del viento	3.22
25175	7	Sololá	701	Sololá	1	Sololá	5	Mayo	2023-05-22T00:00:00	2024-11-08T21:00:00	1	Precipitación	0
25176	7	Sololá	701	Sololá	1	Sololá	5	Mayo	2023-05-22T00:00:00	2024-11-08T21:00:00	8	Radiación solar	0
25177	7	Sololá	701	Sololá	1	Sololá	5	Mayo	2023-05-22T00:00:00	2024-11-08T22:00:00	2	Temperatura media	17.3
25178	7	Sololá	701	Sololá	1	Sololá	5	Mayo	2023-05-22T00:00:00	2024-11-08T22:00:00	4	Temperatura máxima	17.5
25179	7	Sololá	701	Sololá	1	Sololá	5	Mayo	2023-05-22T00:00:00	2024-11-08T22:00:00	3	Temperatura mínima	17
25180	7	Sololá	701	Sololá	1	Sololá	5	Mayo	2023-05-22T00:00:00	2024-11-08T22:00:00	5	Humedad	80
25181	7	Sololá	701	Sololá	1	Sololá	5	Mayo	2023-05-22T00:00:00	2024-11-08T22:00:00	6	Velocidad del viento	3.2
25182	7	Sololá	701	Sololá	1	Sololá	5	Mayo	2023-05-22T00:00:00	2024-11-08T22:00:00	7	Dirección del viento	3.22
25183	7	Sololá	701	Sololá	1	Sololá	5	Mayo	2023-05-22T00:00:00	2024-11-08T22:00:00	1	Precipitación	0
25184	7	Sololá	701	Sololá	1	Sololá	5	Mayo	2023-05-22T00:00:00	2024-11-08T22:00:00	8	Radiación solar	0
25185	7	Sololá	701	Sololá	1	Sololá	5	Mayo	2023-05-22T00:00:00	2024-11-08T23:00:00	2	Temperatura media	17.2
25186	7	Sololá	701	Sololá	1	Sololá	5	Mayo	2023-05-22T00:00:00	2024-11-08T23:00:00	4	Temperatura máxima	17.3
25187	7	Sololá	701	Sololá	1	Sololá	5	Mayo	2023-05-22T00:00:00	2024-11-08T23:00:00	3	Temperatura mínima	17.2
25188	7	Sololá	701	Sololá	1	Sololá	5	Mayo	2023-05-22T00:00:00	2024-11-08T23:00:00	5	Humedad	78
25189	7	Sololá	701	Sololá	1	Sololá	5	Mayo	2023-05-22T00:00:00	2024-11-08T23:00:00	6	Velocidad del viento	1.6
25190	7	Sololá	701	Sololá	1	Sololá	5	Mayo	2023-05-22T00:00:00	2024-11-08T23:00:00	7	Dirección del viento	1.61
25191	7	Sololá	701	Sololá	1	Sololá	5	Mayo	2023-05-22T00:00:00	2024-11-08T23:00:00	1	Precipitación	0
25192	7	Sololá	701	Sololá	1	Sololá	5	Mayo	2023-05-22T00:00:00	2024-11-08T23:00:00	8	Radiación solar	0
25193	7	Sololá	701	Sololá	1	Sololá	5	Mayo	2023-05-23T00:00:00	2024-11-08T00:00:00	2	Temperatura media	16.8
25194	7	Sololá	701	Sololá	1	Sololá	5	Mayo	2023-05-23T00:00:00	2024-11-08T00:00:00	4	Temperatura máxima	17.2
25195	7	Sololá	701	Sololá	1	Sololá	5	Mayo	2023-05-23T00:00:00	2024-11-08T00:00:00	3	Temperatura mínima	16.8
25196	7	Sololá	701	Sololá	1	Sololá	5	Mayo	2023-05-23T00:00:00	2024-11-08T00:00:00	5	Humedad	80
25197	7	Sololá	701	Sololá	1	Sololá	5	Mayo	2023-05-23T00:00:00	2024-11-08T00:00:00	6	Velocidad del viento	1.6
25198	7	Sololá	701	Sololá	1	Sololá	5	Mayo	2023-05-23T00:00:00	2024-11-08T00:00:00	7	Dirección del viento	1.61
25199	7	Sololá	701	Sololá	1	Sololá	5	Mayo	2023-05-23T00:00:00	2024-11-08T00:00:00	1	Precipitación	0
25200	7	Sololá	701	Sololá	1	Sololá	5	Mayo	2023-05-23T00:00:00	2024-11-08T00:00:00	8	Radiación solar	0
25201	7	Sololá	701	Sololá	1	Sololá	5	Mayo	2023-05-23T00:00:00	2024-11-08T01:00:00	2	Temperatura media	16.2
25202	7	Sololá	701	Sololá	1	Sololá	5	Mayo	2023-05-23T00:00:00	2024-11-08T01:00:00	4	Temperatura máxima	16.8
25203	7	Sololá	701	Sololá	1	Sololá	5	Mayo	2023-05-23T00:00:00	2024-11-08T01:00:00	3	Temperatura mínima	16.2
25204	7	Sololá	701	Sololá	1	Sololá	5	Mayo	2023-05-23T00:00:00	2024-11-08T01:00:00	5	Humedad	82
25205	7	Sololá	701	Sololá	1	Sololá	5	Mayo	2023-05-23T00:00:00	2024-11-08T01:00:00	6	Velocidad del viento	1.6
25206	7	Sololá	701	Sololá	1	Sololá	5	Mayo	2023-05-23T00:00:00	2024-11-08T01:00:00	7	Dirección del viento	1.61
25207	7	Sololá	701	Sololá	1	Sololá	5	Mayo	2023-05-23T00:00:00	2024-11-08T01:00:00	1	Precipitación	0
25208	7	Sololá	701	Sololá	1	Sololá	5	Mayo	2023-05-23T00:00:00	2024-11-08T01:00:00	8	Radiación solar	0
25209	7	Sololá	701	Sololá	1	Sololá	5	Mayo	2023-05-23T00:00:00	2024-11-08T02:00:00	2	Temperatura media	15.5
25210	7	Sololá	701	Sololá	1	Sololá	5	Mayo	2023-05-23T00:00:00	2024-11-08T02:00:00	4	Temperatura máxima	16.2
25211	7	Sololá	701	Sololá	1	Sololá	5	Mayo	2023-05-23T00:00:00	2024-11-08T02:00:00	3	Temperatura mínima	15.4
25212	7	Sololá	701	Sololá	1	Sololá	5	Mayo	2023-05-23T00:00:00	2024-11-08T02:00:00	5	Humedad	83
25213	7	Sololá	701	Sololá	1	Sololá	5	Mayo	2023-05-23T00:00:00	2024-11-08T02:00:00	6	Velocidad del viento	1.6
25214	7	Sololá	701	Sololá	1	Sololá	5	Mayo	2023-05-23T00:00:00	2024-11-08T02:00:00	7	Dirección del viento	1.61
25215	7	Sololá	701	Sololá	1	Sololá	5	Mayo	2023-05-23T00:00:00	2024-11-08T02:00:00	1	Precipitación	0
25216	7	Sololá	701	Sololá	1	Sololá	5	Mayo	2023-05-23T00:00:00	2024-11-08T02:00:00	8	Radiación solar	0
25217	7	Sololá	701	Sololá	1	Sololá	5	Mayo	2023-05-23T00:00:00	2024-11-08T03:00:00	2	Temperatura media	15.3
25218	7	Sololá	701	Sololá	1	Sololá	5	Mayo	2023-05-23T00:00:00	2024-11-08T03:00:00	4	Temperatura máxima	15.5
25219	7	Sololá	701	Sololá	1	Sololá	5	Mayo	2023-05-23T00:00:00	2024-11-08T03:00:00	3	Temperatura mínima	15.2
25220	7	Sololá	701	Sololá	1	Sololá	5	Mayo	2023-05-23T00:00:00	2024-11-08T03:00:00	5	Humedad	83
25221	7	Sololá	701	Sololá	1	Sololá	5	Mayo	2023-05-23T00:00:00	2024-11-08T03:00:00	6	Velocidad del viento	1.6
25222	7	Sololá	701	Sololá	1	Sololá	5	Mayo	2023-05-23T00:00:00	2024-11-08T03:00:00	7	Dirección del viento	1.61
25223	7	Sololá	701	Sololá	1	Sololá	5	Mayo	2023-05-23T00:00:00	2024-11-08T03:00:00	1	Precipitación	0
25224	7	Sololá	701	Sololá	1	Sololá	5	Mayo	2023-05-23T00:00:00	2024-11-08T03:00:00	8	Radiación solar	0
25225	7	Sololá	701	Sololá	1	Sololá	5	Mayo	2023-05-23T00:00:00	2024-11-08T04:00:00	2	Temperatura media	14.4
25226	7	Sololá	701	Sololá	1	Sololá	5	Mayo	2023-05-23T00:00:00	2024-11-08T04:00:00	4	Temperatura máxima	15.4
25227	7	Sololá	701	Sololá	1	Sololá	5	Mayo	2023-05-23T00:00:00	2024-11-08T04:00:00	3	Temperatura mínima	14.2
25228	7	Sololá	701	Sololá	1	Sololá	5	Mayo	2023-05-23T00:00:00	2024-11-08T04:00:00	5	Humedad	86
25229	7	Sololá	701	Sololá	1	Sololá	5	Mayo	2023-05-23T00:00:00	2024-11-08T04:00:00	6	Velocidad del viento	0
25230	7	Sololá	701	Sololá	1	Sololá	5	Mayo	2023-05-23T00:00:00	2024-11-08T04:00:00	7	Dirección del viento	0
25231	7	Sololá	701	Sololá	1	Sololá	5	Mayo	2023-05-23T00:00:00	2024-11-08T04:00:00	1	Precipitación	0
25232	7	Sololá	701	Sololá	1	Sololá	5	Mayo	2023-05-23T00:00:00	2024-11-08T04:00:00	8	Radiación solar	0
25233	7	Sololá	701	Sololá	1	Sololá	5	Mayo	2023-05-23T00:00:00	2024-11-08T05:00:00	2	Temperatura media	14.1
25234	7	Sololá	701	Sololá	1	Sololá	5	Mayo	2023-05-23T00:00:00	2024-11-08T05:00:00	4	Temperatura máxima	14.4
25235	7	Sololá	701	Sololá	1	Sololá	5	Mayo	2023-05-23T00:00:00	2024-11-08T05:00:00	3	Temperatura mínima	13.9
25236	7	Sololá	701	Sololá	1	Sololá	5	Mayo	2023-05-23T00:00:00	2024-11-08T05:00:00	5	Humedad	86
25237	7	Sololá	701	Sololá	1	Sololá	5	Mayo	2023-05-23T00:00:00	2024-11-08T05:00:00	6	Velocidad del viento	1.6
25238	7	Sololá	701	Sololá	1	Sololá	5	Mayo	2023-05-23T00:00:00	2024-11-08T05:00:00	7	Dirección del viento	1.61
25239	7	Sololá	701	Sololá	1	Sololá	5	Mayo	2023-05-23T00:00:00	2024-11-08T05:00:00	1	Precipitación	0
25240	7	Sololá	701	Sololá	1	Sololá	5	Mayo	2023-05-23T00:00:00	2024-11-08T05:00:00	8	Radiación solar	0
25241	7	Sololá	701	Sololá	1	Sololá	5	Mayo	2023-05-23T00:00:00	2024-11-08T06:00:00	2	Temperatura media	13.7
25242	7	Sololá	701	Sololá	1	Sololá	5	Mayo	2023-05-23T00:00:00	2024-11-08T06:00:00	4	Temperatura máxima	14.7
25243	7	Sololá	701	Sololá	1	Sololá	5	Mayo	2023-05-23T00:00:00	2024-11-08T06:00:00	3	Temperatura mínima	13.6
25244	7	Sololá	701	Sololá	1	Sololá	5	Mayo	2023-05-23T00:00:00	2024-11-08T06:00:00	5	Humedad	86
25245	7	Sololá	701	Sololá	1	Sololá	5	Mayo	2023-05-23T00:00:00	2024-11-08T06:00:00	6	Velocidad del viento	6.4
25246	7	Sololá	701	Sololá	1	Sololá	5	Mayo	2023-05-23T00:00:00	2024-11-08T06:00:00	7	Dirección del viento	6.44
25247	7	Sololá	701	Sololá	1	Sololá	5	Mayo	2023-05-23T00:00:00	2024-11-08T06:00:00	1	Precipitación	0
25248	7	Sololá	701	Sololá	1	Sololá	5	Mayo	2023-05-23T00:00:00	2024-11-08T06:00:00	8	Radiación solar	3
25249	7	Sololá	701	Sololá	1	Sololá	5	Mayo	2023-05-23T00:00:00	2024-11-08T07:00:00	2	Temperatura media	15
25250	7	Sololá	701	Sololá	1	Sololá	5	Mayo	2023-05-23T00:00:00	2024-11-08T07:00:00	4	Temperatura máxima	15.1
25251	7	Sololá	701	Sololá	1	Sololá	5	Mayo	2023-05-23T00:00:00	2024-11-08T07:00:00	3	Temperatura mínima	13.6
25252	7	Sololá	701	Sololá	1	Sololá	5	Mayo	2023-05-23T00:00:00	2024-11-08T07:00:00	5	Humedad	82
25253	7	Sololá	701	Sololá	1	Sololá	5	Mayo	2023-05-23T00:00:00	2024-11-08T07:00:00	6	Velocidad del viento	6.4
25254	7	Sololá	701	Sololá	1	Sololá	5	Mayo	2023-05-23T00:00:00	2024-11-08T07:00:00	7	Dirección del viento	6.44
25255	7	Sololá	701	Sololá	1	Sololá	5	Mayo	2023-05-23T00:00:00	2024-11-08T07:00:00	1	Precipitación	0
25256	7	Sololá	701	Sololá	1	Sololá	5	Mayo	2023-05-23T00:00:00	2024-11-08T07:00:00	8	Radiación solar	37
25257	7	Sololá	701	Sololá	1	Sololá	5	Mayo	2023-05-23T00:00:00	2024-11-08T08:00:00	2	Temperatura media	19.8
25258	7	Sololá	701	Sololá	1	Sololá	5	Mayo	2023-05-23T00:00:00	2024-11-08T08:00:00	4	Temperatura máxima	19.9
25259	7	Sololá	701	Sololá	1	Sololá	5	Mayo	2023-05-23T00:00:00	2024-11-08T08:00:00	3	Temperatura mínima	15
25260	7	Sololá	701	Sololá	1	Sololá	5	Mayo	2023-05-23T00:00:00	2024-11-08T08:00:00	5	Humedad	63
25261	7	Sololá	701	Sololá	1	Sololá	5	Mayo	2023-05-23T00:00:00	2024-11-08T08:00:00	6	Velocidad del viento	4.8
25262	7	Sololá	701	Sololá	1	Sololá	5	Mayo	2023-05-23T00:00:00	2024-11-08T08:00:00	7	Dirección del viento	4.83
25263	7	Sololá	701	Sololá	1	Sololá	5	Mayo	2023-05-23T00:00:00	2024-11-08T08:00:00	1	Precipitación	0
25264	7	Sololá	701	Sololá	1	Sololá	5	Mayo	2023-05-23T00:00:00	2024-11-08T08:00:00	8	Radiación solar	117
25265	7	Sololá	701	Sololá	1	Sololá	5	Mayo	2023-05-23T00:00:00	2024-11-08T09:00:00	2	Temperatura media	20.8
25266	7	Sololá	701	Sololá	1	Sololá	5	Mayo	2023-05-23T00:00:00	2024-11-08T09:00:00	4	Temperatura máxima	20.8
25267	7	Sololá	701	Sololá	1	Sololá	5	Mayo	2023-05-23T00:00:00	2024-11-08T09:00:00	3	Temperatura mínima	19.8
25268	7	Sololá	701	Sololá	1	Sololá	5	Mayo	2023-05-23T00:00:00	2024-11-08T09:00:00	5	Humedad	74
25269	7	Sololá	701	Sololá	1	Sololá	5	Mayo	2023-05-23T00:00:00	2024-11-08T09:00:00	6	Velocidad del viento	3.2
25270	7	Sololá	701	Sololá	1	Sololá	5	Mayo	2023-05-23T00:00:00	2024-11-08T09:00:00	7	Dirección del viento	3.22
25271	7	Sololá	701	Sololá	1	Sololá	5	Mayo	2023-05-23T00:00:00	2024-11-08T09:00:00	1	Precipitación	0
25272	7	Sololá	701	Sololá	1	Sololá	5	Mayo	2023-05-23T00:00:00	2024-11-08T09:00:00	8	Radiación solar	422
25273	7	Sololá	701	Sololá	1	Sololá	5	Mayo	2023-05-23T00:00:00	2024-11-08T10:00:00	2	Temperatura media	21.4
25274	7	Sololá	701	Sololá	1	Sololá	5	Mayo	2023-05-23T00:00:00	2024-11-08T10:00:00	4	Temperatura máxima	21.4
25275	7	Sololá	701	Sololá	1	Sololá	5	Mayo	2023-05-23T00:00:00	2024-11-08T10:00:00	3	Temperatura mínima	20.4
25276	7	Sololá	701	Sololá	1	Sololá	5	Mayo	2023-05-23T00:00:00	2024-11-08T10:00:00	5	Humedad	67
25277	7	Sololá	701	Sololá	1	Sololá	5	Mayo	2023-05-23T00:00:00	2024-11-08T10:00:00	6	Velocidad del viento	4.8
25278	7	Sololá	701	Sololá	1	Sololá	5	Mayo	2023-05-23T00:00:00	2024-11-08T10:00:00	7	Dirección del viento	4.83
25279	7	Sololá	701	Sololá	1	Sololá	5	Mayo	2023-05-23T00:00:00	2024-11-08T10:00:00	1	Precipitación	0
25280	7	Sololá	701	Sololá	1	Sololá	5	Mayo	2023-05-23T00:00:00	2024-11-08T10:00:00	8	Radiación solar	472
25281	7	Sololá	701	Sololá	1	Sololá	5	Mayo	2023-05-23T00:00:00	2024-11-08T11:00:00	2	Temperatura media	22.2
25282	7	Sololá	701	Sololá	1	Sololá	5	Mayo	2023-05-23T00:00:00	2024-11-08T11:00:00	4	Temperatura máxima	22.5
25283	7	Sololá	701	Sololá	1	Sololá	5	Mayo	2023-05-23T00:00:00	2024-11-08T11:00:00	3	Temperatura mínima	21.4
25284	7	Sololá	701	Sololá	1	Sololá	5	Mayo	2023-05-23T00:00:00	2024-11-08T11:00:00	5	Humedad	66
25285	7	Sololá	701	Sololá	1	Sololá	5	Mayo	2023-05-23T00:00:00	2024-11-08T11:00:00	6	Velocidad del viento	6.4
25286	7	Sololá	701	Sololá	1	Sololá	5	Mayo	2023-05-23T00:00:00	2024-11-08T11:00:00	7	Dirección del viento	6.44
25287	7	Sololá	701	Sololá	1	Sololá	5	Mayo	2023-05-23T00:00:00	2024-11-08T11:00:00	1	Precipitación	0
25288	7	Sololá	701	Sololá	1	Sololá	5	Mayo	2023-05-23T00:00:00	2024-11-08T11:00:00	8	Radiación solar	720
25289	7	Sololá	701	Sololá	1	Sololá	5	Mayo	2023-05-23T00:00:00	2024-11-08T12:00:00	2	Temperatura media	21.1
25290	7	Sololá	701	Sololá	1	Sololá	5	Mayo	2023-05-23T00:00:00	2024-11-08T12:00:00	4	Temperatura máxima	22.2
25291	7	Sololá	701	Sololá	1	Sololá	5	Mayo	2023-05-23T00:00:00	2024-11-08T12:00:00	3	Temperatura mínima	20.9
25292	7	Sololá	701	Sololá	1	Sololá	5	Mayo	2023-05-23T00:00:00	2024-11-08T12:00:00	5	Humedad	76
25293	7	Sololá	701	Sololá	1	Sololá	5	Mayo	2023-05-23T00:00:00	2024-11-08T12:00:00	6	Velocidad del viento	6.4
25294	7	Sololá	701	Sololá	1	Sololá	5	Mayo	2023-05-23T00:00:00	2024-11-08T12:00:00	7	Dirección del viento	6.44
25295	7	Sololá	701	Sololá	1	Sololá	5	Mayo	2023-05-23T00:00:00	2024-11-08T12:00:00	1	Precipitación	0
25296	7	Sololá	701	Sololá	1	Sololá	5	Mayo	2023-05-23T00:00:00	2024-11-08T12:00:00	8	Radiación solar	496
25297	7	Sololá	701	Sololá	1	Sololá	5	Mayo	2023-05-23T00:00:00	2024-11-08T13:00:00	2	Temperatura media	20.6
25298	7	Sololá	701	Sololá	1	Sololá	5	Mayo	2023-05-23T00:00:00	2024-11-08T13:00:00	4	Temperatura máxima	21.4
25299	7	Sololá	701	Sololá	1	Sololá	5	Mayo	2023-05-23T00:00:00	2024-11-08T13:00:00	3	Temperatura mínima	20.6
25300	7	Sololá	701	Sololá	1	Sololá	5	Mayo	2023-05-23T00:00:00	2024-11-08T13:00:00	5	Humedad	77
25301	7	Sololá	701	Sololá	1	Sololá	5	Mayo	2023-05-23T00:00:00	2024-11-08T13:00:00	6	Velocidad del viento	6.4
25302	7	Sololá	701	Sololá	1	Sololá	5	Mayo	2023-05-23T00:00:00	2024-11-08T13:00:00	7	Dirección del viento	6.44
25303	7	Sololá	701	Sololá	1	Sololá	5	Mayo	2023-05-23T00:00:00	2024-11-08T13:00:00	1	Precipitación	0
25304	7	Sololá	701	Sololá	1	Sololá	5	Mayo	2023-05-23T00:00:00	2024-11-08T13:00:00	8	Radiación solar	574
25305	7	Sololá	701	Sololá	1	Sololá	5	Mayo	2023-05-23T00:00:00	2024-11-08T14:00:00	2	Temperatura media	20.5
25306	7	Sololá	701	Sololá	1	Sololá	5	Mayo	2023-05-23T00:00:00	2024-11-08T14:00:00	4	Temperatura máxima	20.6
25307	7	Sololá	701	Sololá	1	Sololá	5	Mayo	2023-05-23T00:00:00	2024-11-08T14:00:00	3	Temperatura mínima	19.9
25308	7	Sololá	701	Sololá	1	Sololá	5	Mayo	2023-05-23T00:00:00	2024-11-08T14:00:00	5	Humedad	80
25309	7	Sololá	701	Sololá	1	Sololá	5	Mayo	2023-05-23T00:00:00	2024-11-08T14:00:00	6	Velocidad del viento	6.4
25310	7	Sololá	701	Sololá	1	Sololá	5	Mayo	2023-05-23T00:00:00	2024-11-08T14:00:00	7	Dirección del viento	6.44
25311	7	Sololá	701	Sololá	1	Sololá	5	Mayo	2023-05-23T00:00:00	2024-11-08T14:00:00	1	Precipitación	0
25312	7	Sololá	701	Sololá	1	Sololá	5	Mayo	2023-05-23T00:00:00	2024-11-08T14:00:00	8	Radiación solar	557
25313	7	Sololá	701	Sololá	1	Sololá	5	Mayo	2023-05-23T00:00:00	2024-11-08T15:00:00	2	Temperatura media	20
25314	7	Sololá	701	Sololá	1	Sololá	5	Mayo	2023-05-23T00:00:00	2024-11-08T15:00:00	4	Temperatura máxima	20.9
25315	7	Sololá	701	Sololá	1	Sololá	5	Mayo	2023-05-23T00:00:00	2024-11-08T15:00:00	3	Temperatura mínima	19.9
25316	7	Sololá	701	Sololá	1	Sololá	5	Mayo	2023-05-23T00:00:00	2024-11-08T15:00:00	5	Humedad	80
25317	7	Sololá	701	Sololá	1	Sololá	5	Mayo	2023-05-23T00:00:00	2024-11-08T15:00:00	6	Velocidad del viento	4.8
25318	7	Sololá	701	Sololá	1	Sololá	5	Mayo	2023-05-23T00:00:00	2024-11-08T15:00:00	7	Dirección del viento	4.83
25319	7	Sololá	701	Sololá	1	Sololá	5	Mayo	2023-05-23T00:00:00	2024-11-08T15:00:00	1	Precipitación	0
25320	7	Sololá	701	Sololá	1	Sololá	5	Mayo	2023-05-23T00:00:00	2024-11-08T15:00:00	8	Radiación solar	82
25321	7	Sololá	701	Sololá	1	Sololá	5	Mayo	2023-05-23T00:00:00	2024-11-08T16:00:00	2	Temperatura media	20
25322	7	Sololá	701	Sololá	1	Sololá	5	Mayo	2023-05-23T00:00:00	2024-11-08T16:00:00	4	Temperatura máxima	20.4
25323	7	Sololá	701	Sololá	1	Sololá	5	Mayo	2023-05-23T00:00:00	2024-11-08T16:00:00	3	Temperatura mínima	19.8
25324	7	Sololá	701	Sololá	1	Sololá	5	Mayo	2023-05-23T00:00:00	2024-11-08T16:00:00	5	Humedad	80
25325	7	Sololá	701	Sololá	1	Sololá	5	Mayo	2023-05-23T00:00:00	2024-11-08T16:00:00	6	Velocidad del viento	4.8
25326	7	Sololá	701	Sololá	1	Sololá	5	Mayo	2023-05-23T00:00:00	2024-11-08T16:00:00	7	Dirección del viento	4.83
25327	7	Sololá	701	Sololá	1	Sololá	5	Mayo	2023-05-23T00:00:00	2024-11-08T16:00:00	1	Precipitación	0
25328	7	Sololá	701	Sololá	1	Sololá	5	Mayo	2023-05-23T00:00:00	2024-11-08T16:00:00	8	Radiación solar	22
25329	7	Sololá	701	Sololá	1	Sololá	5	Mayo	2023-05-23T00:00:00	2024-11-08T17:00:00	2	Temperatura media	19.4
25330	7	Sololá	701	Sololá	1	Sololá	5	Mayo	2023-05-23T00:00:00	2024-11-08T17:00:00	4	Temperatura máxima	20.5
25331	7	Sololá	701	Sololá	1	Sololá	5	Mayo	2023-05-23T00:00:00	2024-11-08T17:00:00	3	Temperatura mínima	19.4
25332	7	Sololá	701	Sololá	1	Sololá	5	Mayo	2023-05-23T00:00:00	2024-11-08T17:00:00	5	Humedad	84
25333	7	Sololá	701	Sololá	1	Sololá	5	Mayo	2023-05-23T00:00:00	2024-11-08T17:00:00	6	Velocidad del viento	3.2
25334	7	Sololá	701	Sololá	1	Sololá	5	Mayo	2023-05-23T00:00:00	2024-11-08T17:00:00	7	Dirección del viento	3.22
25335	7	Sololá	701	Sololá	1	Sololá	5	Mayo	2023-05-23T00:00:00	2024-11-08T17:00:00	1	Precipitación	0
25336	7	Sololá	701	Sololá	1	Sololá	5	Mayo	2023-05-23T00:00:00	2024-11-08T17:00:00	8	Radiación solar	36
25337	7	Sololá	701	Sololá	1	Sololá	5	Mayo	2023-05-23T00:00:00	2024-11-08T18:00:00	2	Temperatura media	18.5
25338	7	Sololá	701	Sololá	1	Sololá	5	Mayo	2023-05-23T00:00:00	2024-11-08T18:00:00	4	Temperatura máxima	19.4
25339	7	Sololá	701	Sololá	1	Sololá	5	Mayo	2023-05-23T00:00:00	2024-11-08T18:00:00	3	Temperatura mínima	18.5
25340	7	Sololá	701	Sololá	1	Sololá	5	Mayo	2023-05-23T00:00:00	2024-11-08T18:00:00	5	Humedad	87
25341	7	Sololá	701	Sololá	1	Sololá	5	Mayo	2023-05-23T00:00:00	2024-11-08T18:00:00	6	Velocidad del viento	3.2
25342	7	Sololá	701	Sololá	1	Sololá	5	Mayo	2023-05-23T00:00:00	2024-11-08T18:00:00	7	Dirección del viento	3.22
25343	7	Sololá	701	Sololá	1	Sololá	5	Mayo	2023-05-23T00:00:00	2024-11-08T18:00:00	1	Precipitación	0
25344	7	Sololá	701	Sololá	1	Sololá	5	Mayo	2023-05-23T00:00:00	2024-11-08T18:00:00	8	Radiación solar	5
25345	7	Sololá	701	Sololá	1	Sololá	5	Mayo	2023-05-23T00:00:00	2024-11-08T19:00:00	2	Temperatura media	17.5
25346	7	Sololá	701	Sololá	1	Sololá	5	Mayo	2023-05-23T00:00:00	2024-11-08T19:00:00	4	Temperatura máxima	18.6
25347	7	Sololá	701	Sololá	1	Sololá	5	Mayo	2023-05-23T00:00:00	2024-11-08T19:00:00	3	Temperatura mínima	17.5
25348	7	Sololá	701	Sololá	1	Sololá	5	Mayo	2023-05-23T00:00:00	2024-11-08T19:00:00	5	Humedad	91
25349	7	Sololá	701	Sololá	1	Sololá	5	Mayo	2023-05-23T00:00:00	2024-11-08T19:00:00	6	Velocidad del viento	1.6
25350	7	Sololá	701	Sololá	1	Sololá	5	Mayo	2023-05-23T00:00:00	2024-11-08T19:00:00	7	Dirección del viento	1.61
25351	7	Sololá	701	Sololá	1	Sololá	5	Mayo	2023-05-23T00:00:00	2024-11-08T19:00:00	1	Precipitación	0
25352	7	Sololá	701	Sololá	1	Sololá	5	Mayo	2023-05-23T00:00:00	2024-11-08T19:00:00	8	Radiación solar	0
25353	7	Sololá	701	Sololá	1	Sololá	5	Mayo	2023-05-23T00:00:00	2024-11-08T20:00:00	2	Temperatura media	18.4
25354	7	Sololá	701	Sololá	1	Sololá	5	Mayo	2023-05-23T00:00:00	2024-11-08T20:00:00	4	Temperatura máxima	18.4
25355	7	Sololá	701	Sololá	1	Sololá	5	Mayo	2023-05-23T00:00:00	2024-11-08T20:00:00	3	Temperatura mínima	17.3
25356	7	Sololá	701	Sololá	1	Sololá	5	Mayo	2023-05-23T00:00:00	2024-11-08T20:00:00	5	Humedad	80
25357	7	Sololá	701	Sololá	1	Sololá	5	Mayo	2023-05-23T00:00:00	2024-11-08T20:00:00	6	Velocidad del viento	3.2
25358	7	Sololá	701	Sololá	1	Sololá	5	Mayo	2023-05-23T00:00:00	2024-11-08T20:00:00	7	Dirección del viento	3.22
25359	7	Sololá	701	Sololá	1	Sololá	5	Mayo	2023-05-23T00:00:00	2024-11-08T20:00:00	1	Precipitación	0
25360	7	Sololá	701	Sololá	1	Sololá	5	Mayo	2023-05-23T00:00:00	2024-11-08T20:00:00	8	Radiación solar	0
25361	7	Sololá	701	Sololá	1	Sololá	5	Mayo	2023-05-23T00:00:00	2024-11-08T21:00:00	2	Temperatura media	17.9
25362	7	Sololá	701	Sololá	1	Sololá	5	Mayo	2023-05-23T00:00:00	2024-11-08T21:00:00	4	Temperatura máxima	18.4
25363	7	Sololá	701	Sololá	1	Sololá	5	Mayo	2023-05-23T00:00:00	2024-11-08T21:00:00	3	Temperatura mínima	17.9
25364	7	Sololá	701	Sololá	1	Sololá	5	Mayo	2023-05-23T00:00:00	2024-11-08T21:00:00	5	Humedad	77
25365	7	Sololá	701	Sololá	1	Sololá	5	Mayo	2023-05-23T00:00:00	2024-11-08T21:00:00	6	Velocidad del viento	3.2
25366	7	Sololá	701	Sololá	1	Sololá	5	Mayo	2023-05-23T00:00:00	2024-11-08T21:00:00	7	Dirección del viento	3.22
25367	7	Sololá	701	Sololá	1	Sololá	5	Mayo	2023-05-23T00:00:00	2024-11-08T21:00:00	1	Precipitación	0
25368	7	Sololá	701	Sololá	1	Sololá	5	Mayo	2023-05-23T00:00:00	2024-11-08T21:00:00	8	Radiación solar	0
25369	7	Sololá	701	Sololá	1	Sololá	5	Mayo	2023-05-23T00:00:00	2024-11-08T22:00:00	2	Temperatura media	16.9
25370	7	Sololá	701	Sololá	1	Sololá	5	Mayo	2023-05-23T00:00:00	2024-11-08T22:00:00	4	Temperatura máxima	17.9
25371	7	Sololá	701	Sololá	1	Sololá	5	Mayo	2023-05-23T00:00:00	2024-11-08T22:00:00	3	Temperatura mínima	16.9
25372	7	Sololá	701	Sololá	1	Sololá	5	Mayo	2023-05-23T00:00:00	2024-11-08T22:00:00	5	Humedad	80
25373	7	Sololá	701	Sololá	1	Sololá	5	Mayo	2023-05-23T00:00:00	2024-11-08T22:00:00	6	Velocidad del viento	3.2
25374	7	Sololá	701	Sololá	1	Sololá	5	Mayo	2023-05-23T00:00:00	2024-11-08T22:00:00	7	Dirección del viento	3.22
25375	7	Sololá	701	Sololá	1	Sololá	5	Mayo	2023-05-23T00:00:00	2024-11-08T22:00:00	1	Precipitación	0
25376	7	Sololá	701	Sololá	1	Sololá	5	Mayo	2023-05-23T00:00:00	2024-11-08T22:00:00	8	Radiación solar	0
25377	7	Sololá	701	Sololá	1	Sololá	5	Mayo	2023-05-23T00:00:00	2024-11-08T23:00:00	2	Temperatura media	16.7
25378	7	Sololá	701	Sololá	1	Sololá	5	Mayo	2023-05-23T00:00:00	2024-11-08T23:00:00	4	Temperatura máxima	16.9
25379	7	Sololá	701	Sololá	1	Sololá	5	Mayo	2023-05-23T00:00:00	2024-11-08T23:00:00	3	Temperatura mínima	16.4
25380	7	Sololá	701	Sololá	1	Sololá	5	Mayo	2023-05-23T00:00:00	2024-11-08T23:00:00	5	Humedad	79
25381	7	Sololá	701	Sololá	1	Sololá	5	Mayo	2023-05-23T00:00:00	2024-11-08T23:00:00	6	Velocidad del viento	4.8
25382	7	Sololá	701	Sololá	1	Sololá	5	Mayo	2023-05-23T00:00:00	2024-11-08T23:00:00	7	Dirección del viento	4.83
25383	7	Sololá	701	Sololá	1	Sololá	5	Mayo	2023-05-23T00:00:00	2024-11-08T23:00:00	1	Precipitación	0
25384	7	Sololá	701	Sololá	1	Sololá	5	Mayo	2023-05-23T00:00:00	2024-11-08T23:00:00	8	Radiación solar	0
25385	7	Sololá	701	Sololá	1	Sololá	5	Mayo	2023-05-24T00:00:00	2024-11-08T00:00:00	2	Temperatura media	16.1
25386	7	Sololá	701	Sololá	1	Sololá	5	Mayo	2023-05-24T00:00:00	2024-11-08T00:00:00	4	Temperatura máxima	16.8
25387	7	Sololá	701	Sololá	1	Sololá	5	Mayo	2023-05-24T00:00:00	2024-11-08T00:00:00	3	Temperatura mínima	16.1
25388	7	Sololá	701	Sololá	1	Sololá	5	Mayo	2023-05-24T00:00:00	2024-11-08T00:00:00	5	Humedad	80
25389	7	Sololá	701	Sololá	1	Sololá	5	Mayo	2023-05-24T00:00:00	2024-11-08T00:00:00	6	Velocidad del viento	4.8
25390	7	Sololá	701	Sololá	1	Sololá	5	Mayo	2023-05-24T00:00:00	2024-11-08T00:00:00	7	Dirección del viento	4.83
25391	7	Sololá	701	Sololá	1	Sololá	5	Mayo	2023-05-24T00:00:00	2024-11-08T00:00:00	1	Precipitación	0
25392	7	Sololá	701	Sololá	1	Sololá	5	Mayo	2023-05-24T00:00:00	2024-11-08T00:00:00	8	Radiación solar	0
25393	7	Sololá	701	Sololá	1	Sololá	5	Mayo	2023-05-24T00:00:00	2024-11-08T01:00:00	2	Temperatura media	15.2
25394	7	Sololá	701	Sololá	1	Sololá	5	Mayo	2023-05-24T00:00:00	2024-11-08T01:00:00	4	Temperatura máxima	16.1
25395	7	Sololá	701	Sololá	1	Sololá	5	Mayo	2023-05-24T00:00:00	2024-11-08T01:00:00	3	Temperatura mínima	15.1
25396	7	Sololá	701	Sololá	1	Sololá	5	Mayo	2023-05-24T00:00:00	2024-11-08T01:00:00	5	Humedad	83
25397	7	Sololá	701	Sololá	1	Sololá	5	Mayo	2023-05-24T00:00:00	2024-11-08T01:00:00	6	Velocidad del viento	1.6
25398	7	Sololá	701	Sololá	1	Sololá	5	Mayo	2023-05-24T00:00:00	2024-11-08T01:00:00	7	Dirección del viento	1.61
25399	7	Sololá	701	Sololá	1	Sololá	5	Mayo	2023-05-24T00:00:00	2024-11-08T01:00:00	1	Precipitación	0
25400	7	Sololá	701	Sololá	1	Sololá	5	Mayo	2023-05-24T00:00:00	2024-11-08T01:00:00	8	Radiación solar	0
25401	7	Sololá	701	Sololá	1	Sololá	5	Mayo	2023-05-24T00:00:00	2024-11-08T02:00:00	2	Temperatura media	14.3
25402	7	Sololá	701	Sololá	1	Sololá	5	Mayo	2023-05-24T00:00:00	2024-11-08T02:00:00	4	Temperatura máxima	15.6
25403	7	Sololá	701	Sololá	1	Sololá	5	Mayo	2023-05-24T00:00:00	2024-11-08T02:00:00	3	Temperatura mínima	13.8
25404	7	Sololá	701	Sololá	1	Sololá	5	Mayo	2023-05-24T00:00:00	2024-11-08T02:00:00	5	Humedad	85
25405	7	Sololá	701	Sololá	1	Sololá	5	Mayo	2023-05-24T00:00:00	2024-11-08T02:00:00	6	Velocidad del viento	6.4
25406	7	Sololá	701	Sololá	1	Sololá	5	Mayo	2023-05-24T00:00:00	2024-11-08T02:00:00	7	Dirección del viento	6.44
25407	7	Sololá	701	Sololá	1	Sololá	5	Mayo	2023-05-24T00:00:00	2024-11-08T02:00:00	1	Precipitación	0
25408	7	Sololá	701	Sololá	1	Sololá	5	Mayo	2023-05-24T00:00:00	2024-11-08T02:00:00	8	Radiación solar	0
25409	7	Sololá	701	Sololá	1	Sololá	5	Mayo	2023-05-24T00:00:00	2024-11-08T03:00:00	2	Temperatura media	14.3
25410	7	Sololá	701	Sololá	1	Sololá	5	Mayo	2023-05-24T00:00:00	2024-11-08T03:00:00	4	Temperatura máxima	14.9
25411	7	Sololá	701	Sololá	1	Sololá	5	Mayo	2023-05-24T00:00:00	2024-11-08T03:00:00	3	Temperatura mínima	13.6
25412	7	Sololá	701	Sololá	1	Sololá	5	Mayo	2023-05-24T00:00:00	2024-11-08T03:00:00	5	Humedad	83
25413	7	Sololá	701	Sololá	1	Sololá	5	Mayo	2023-05-24T00:00:00	2024-11-08T03:00:00	6	Velocidad del viento	4.8
25414	7	Sololá	701	Sololá	1	Sololá	5	Mayo	2023-05-24T00:00:00	2024-11-08T03:00:00	7	Dirección del viento	4.83
25415	7	Sololá	701	Sololá	1	Sololá	5	Mayo	2023-05-24T00:00:00	2024-11-08T03:00:00	1	Precipitación	0
25416	7	Sololá	701	Sololá	1	Sololá	5	Mayo	2023-05-24T00:00:00	2024-11-08T03:00:00	8	Radiación solar	0
25417	7	Sololá	701	Sololá	1	Sololá	5	Mayo	2023-05-24T00:00:00	2024-11-08T04:00:00	2	Temperatura media	12.8
25418	7	Sololá	701	Sololá	1	Sololá	5	Mayo	2023-05-24T00:00:00	2024-11-08T04:00:00	4	Temperatura máxima	14.3
25419	7	Sololá	701	Sololá	1	Sololá	5	Mayo	2023-05-24T00:00:00	2024-11-08T04:00:00	3	Temperatura mínima	12.8
25420	7	Sololá	701	Sololá	1	Sololá	5	Mayo	2023-05-24T00:00:00	2024-11-08T04:00:00	5	Humedad	87
25421	7	Sololá	701	Sololá	1	Sololá	5	Mayo	2023-05-24T00:00:00	2024-11-08T04:00:00	6	Velocidad del viento	3.2
25422	7	Sololá	701	Sololá	1	Sololá	5	Mayo	2023-05-24T00:00:00	2024-11-08T04:00:00	7	Dirección del viento	3.22
25423	7	Sololá	701	Sololá	1	Sololá	5	Mayo	2023-05-24T00:00:00	2024-11-08T04:00:00	1	Precipitación	0
25424	7	Sololá	701	Sololá	1	Sololá	5	Mayo	2023-05-24T00:00:00	2024-11-08T04:00:00	8	Radiación solar	0
25425	7	Sololá	701	Sololá	1	Sololá	5	Mayo	2023-05-24T00:00:00	2024-11-08T05:00:00	2	Temperatura media	12.9
25426	7	Sololá	701	Sololá	1	Sololá	5	Mayo	2023-05-24T00:00:00	2024-11-08T05:00:00	4	Temperatura máxima	14.4
25427	7	Sololá	701	Sololá	1	Sololá	5	Mayo	2023-05-24T00:00:00	2024-11-08T05:00:00	3	Temperatura mínima	12.8
25428	7	Sololá	701	Sololá	1	Sololá	5	Mayo	2023-05-24T00:00:00	2024-11-08T05:00:00	5	Humedad	84
25429	7	Sololá	701	Sololá	1	Sololá	5	Mayo	2023-05-24T00:00:00	2024-11-08T05:00:00	6	Velocidad del viento	6.4
25430	7	Sololá	701	Sololá	1	Sololá	5	Mayo	2023-05-24T00:00:00	2024-11-08T05:00:00	7	Dirección del viento	6.44
25431	7	Sololá	701	Sololá	1	Sololá	5	Mayo	2023-05-24T00:00:00	2024-11-08T05:00:00	1	Precipitación	0
25432	7	Sololá	701	Sololá	1	Sololá	5	Mayo	2023-05-24T00:00:00	2024-11-08T05:00:00	8	Radiación solar	0
25433	7	Sololá	701	Sololá	1	Sololá	5	Mayo	2023-05-24T00:00:00	2024-11-08T06:00:00	2	Temperatura media	13.1
25434	7	Sololá	701	Sololá	1	Sololá	5	Mayo	2023-05-24T00:00:00	2024-11-08T06:00:00	4	Temperatura máxima	13.4
25435	7	Sololá	701	Sololá	1	Sololá	5	Mayo	2023-05-24T00:00:00	2024-11-08T06:00:00	3	Temperatura mínima	12.8
25436	7	Sololá	701	Sololá	1	Sololá	5	Mayo	2023-05-24T00:00:00	2024-11-08T06:00:00	5	Humedad	83
25437	7	Sololá	701	Sololá	1	Sololá	5	Mayo	2023-05-24T00:00:00	2024-11-08T06:00:00	6	Velocidad del viento	6.4
25438	7	Sololá	701	Sololá	1	Sololá	5	Mayo	2023-05-24T00:00:00	2024-11-08T06:00:00	7	Dirección del viento	6.44
25439	7	Sololá	701	Sololá	1	Sololá	5	Mayo	2023-05-24T00:00:00	2024-11-08T06:00:00	1	Precipitación	0
25440	7	Sololá	701	Sololá	1	Sololá	5	Mayo	2023-05-24T00:00:00	2024-11-08T06:00:00	8	Radiación solar	3
25441	7	Sololá	701	Sololá	1	Sololá	5	Mayo	2023-05-24T00:00:00	2024-11-08T07:00:00	2	Temperatura media	14.9
25442	7	Sololá	701	Sololá	1	Sololá	5	Mayo	2023-05-24T00:00:00	2024-11-08T07:00:00	4	Temperatura máxima	14.9
25443	7	Sololá	701	Sololá	1	Sololá	5	Mayo	2023-05-24T00:00:00	2024-11-08T07:00:00	3	Temperatura mínima	12.9
25444	7	Sololá	701	Sololá	1	Sololá	5	Mayo	2023-05-24T00:00:00	2024-11-08T07:00:00	5	Humedad	79
25445	7	Sololá	701	Sololá	1	Sololá	5	Mayo	2023-05-24T00:00:00	2024-11-08T07:00:00	6	Velocidad del viento	4.8
25446	7	Sololá	701	Sololá	1	Sololá	5	Mayo	2023-05-24T00:00:00	2024-11-08T07:00:00	7	Dirección del viento	4.83
25447	7	Sololá	701	Sololá	1	Sololá	5	Mayo	2023-05-24T00:00:00	2024-11-08T07:00:00	1	Precipitación	0
25448	7	Sololá	701	Sololá	1	Sololá	5	Mayo	2023-05-24T00:00:00	2024-11-08T07:00:00	8	Radiación solar	49
25449	7	Sololá	701	Sololá	1	Sololá	5	Mayo	2023-05-24T00:00:00	2024-11-08T08:00:00	2	Temperatura media	18.1
25450	7	Sololá	701	Sololá	1	Sololá	5	Mayo	2023-05-24T00:00:00	2024-11-08T08:00:00	4	Temperatura máxima	18.1
25451	7	Sololá	701	Sololá	1	Sololá	5	Mayo	2023-05-24T00:00:00	2024-11-08T08:00:00	3	Temperatura mínima	14.8
25452	7	Sololá	701	Sololá	1	Sololá	5	Mayo	2023-05-24T00:00:00	2024-11-08T08:00:00	5	Humedad	66
25453	7	Sololá	701	Sololá	1	Sololá	5	Mayo	2023-05-24T00:00:00	2024-11-08T08:00:00	6	Velocidad del viento	3.2
25454	7	Sololá	701	Sololá	1	Sololá	5	Mayo	2023-05-24T00:00:00	2024-11-08T08:00:00	7	Dirección del viento	3.22
25455	7	Sololá	701	Sololá	1	Sololá	5	Mayo	2023-05-24T00:00:00	2024-11-08T08:00:00	1	Precipitación	0
25456	7	Sololá	701	Sololá	1	Sololá	5	Mayo	2023-05-24T00:00:00	2024-11-08T08:00:00	8	Radiación solar	94
25457	7	Sololá	701	Sololá	1	Sololá	5	Mayo	2023-05-24T00:00:00	2024-11-08T09:00:00	2	Temperatura media	20.2
25458	7	Sololá	701	Sololá	1	Sololá	5	Mayo	2023-05-24T00:00:00	2024-11-08T09:00:00	4	Temperatura máxima	20.3
25459	7	Sololá	701	Sololá	1	Sololá	5	Mayo	2023-05-24T00:00:00	2024-11-08T09:00:00	3	Temperatura mínima	18.1
25460	7	Sololá	701	Sololá	1	Sololá	5	Mayo	2023-05-24T00:00:00	2024-11-08T09:00:00	5	Humedad	73
25461	7	Sololá	701	Sololá	1	Sololá	5	Mayo	2023-05-24T00:00:00	2024-11-08T09:00:00	6	Velocidad del viento	3.2
25462	7	Sololá	701	Sololá	1	Sololá	5	Mayo	2023-05-24T00:00:00	2024-11-08T09:00:00	7	Dirección del viento	3.22
25463	7	Sololá	701	Sololá	1	Sololá	5	Mayo	2023-05-24T00:00:00	2024-11-08T09:00:00	1	Precipitación	0
25464	7	Sololá	701	Sololá	1	Sololá	5	Mayo	2023-05-24T00:00:00	2024-11-08T09:00:00	8	Radiación solar	451
25465	7	Sololá	701	Sololá	1	Sololá	5	Mayo	2023-05-24T00:00:00	2024-11-08T10:00:00	2	Temperatura media	21.4
25466	7	Sololá	701	Sololá	1	Sololá	5	Mayo	2023-05-24T00:00:00	2024-11-08T10:00:00	4	Temperatura máxima	21.4
25467	7	Sololá	701	Sololá	1	Sololá	5	Mayo	2023-05-24T00:00:00	2024-11-08T10:00:00	3	Temperatura mínima	20.1
25468	7	Sololá	701	Sololá	1	Sololá	5	Mayo	2023-05-24T00:00:00	2024-11-08T10:00:00	5	Humedad	55
25469	7	Sololá	701	Sololá	1	Sololá	5	Mayo	2023-05-24T00:00:00	2024-11-08T10:00:00	6	Velocidad del viento	3.2
25470	7	Sololá	701	Sololá	1	Sololá	5	Mayo	2023-05-24T00:00:00	2024-11-08T10:00:00	7	Dirección del viento	3.22
25471	7	Sololá	701	Sololá	1	Sololá	5	Mayo	2023-05-24T00:00:00	2024-11-08T10:00:00	1	Precipitación	0
25472	7	Sololá	701	Sololá	1	Sololá	5	Mayo	2023-05-24T00:00:00	2024-11-08T10:00:00	8	Radiación solar	657
25473	7	Sololá	701	Sololá	1	Sololá	5	Mayo	2023-05-24T00:00:00	2024-11-08T11:00:00	2	Temperatura media	21.7
25474	7	Sololá	701	Sololá	1	Sololá	5	Mayo	2023-05-24T00:00:00	2024-11-08T11:00:00	4	Temperatura máxima	21.8
25475	7	Sololá	701	Sololá	1	Sololá	5	Mayo	2023-05-24T00:00:00	2024-11-08T11:00:00	3	Temperatura mínima	21.3
25476	7	Sololá	701	Sololá	1	Sololá	5	Mayo	2023-05-24T00:00:00	2024-11-08T11:00:00	5	Humedad	53
25477	7	Sololá	701	Sololá	1	Sololá	5	Mayo	2023-05-24T00:00:00	2024-11-08T11:00:00	6	Velocidad del viento	6.4
25478	7	Sololá	701	Sololá	1	Sololá	5	Mayo	2023-05-24T00:00:00	2024-11-08T11:00:00	7	Dirección del viento	6.44
25479	7	Sololá	701	Sololá	1	Sololá	5	Mayo	2023-05-24T00:00:00	2024-11-08T11:00:00	1	Precipitación	0
25480	7	Sololá	701	Sololá	1	Sololá	5	Mayo	2023-05-24T00:00:00	2024-11-08T11:00:00	8	Radiación solar	854
25481	7	Sololá	701	Sololá	1	Sololá	5	Mayo	2023-05-24T00:00:00	2024-11-08T12:00:00	2	Temperatura media	22.4
25482	7	Sololá	701	Sololá	1	Sololá	5	Mayo	2023-05-24T00:00:00	2024-11-08T12:00:00	4	Temperatura máxima	22.5
25483	7	Sololá	701	Sololá	1	Sololá	5	Mayo	2023-05-24T00:00:00	2024-11-08T12:00:00	3	Temperatura mínima	21.7
25484	7	Sololá	701	Sololá	1	Sololá	5	Mayo	2023-05-24T00:00:00	2024-11-08T12:00:00	5	Humedad	63
25485	7	Sololá	701	Sololá	1	Sololá	5	Mayo	2023-05-24T00:00:00	2024-11-08T12:00:00	6	Velocidad del viento	6.4
25486	7	Sololá	701	Sololá	1	Sololá	5	Mayo	2023-05-24T00:00:00	2024-11-08T12:00:00	7	Dirección del viento	6.44
25487	7	Sololá	701	Sololá	1	Sololá	5	Mayo	2023-05-24T00:00:00	2024-11-08T12:00:00	1	Precipitación	0
25488	7	Sololá	701	Sololá	1	Sololá	5	Mayo	2023-05-24T00:00:00	2024-11-08T12:00:00	8	Radiación solar	894
25489	7	Sololá	701	Sololá	1	Sololá	5	Mayo	2023-05-24T00:00:00	2024-11-08T13:00:00	2	Temperatura media	22.6
25490	7	Sololá	701	Sololá	1	Sololá	5	Mayo	2023-05-24T00:00:00	2024-11-08T13:00:00	4	Temperatura máxima	22.7
25491	7	Sololá	701	Sololá	1	Sololá	5	Mayo	2023-05-24T00:00:00	2024-11-08T13:00:00	3	Temperatura mínima	21.8
25492	7	Sololá	701	Sololá	1	Sololá	5	Mayo	2023-05-24T00:00:00	2024-11-08T13:00:00	5	Humedad	66
25493	7	Sololá	701	Sololá	1	Sololá	5	Mayo	2023-05-24T00:00:00	2024-11-08T13:00:00	6	Velocidad del viento	6.4
25494	7	Sololá	701	Sololá	1	Sololá	5	Mayo	2023-05-24T00:00:00	2024-11-08T13:00:00	7	Dirección del viento	6.44
25495	7	Sololá	701	Sololá	1	Sololá	5	Mayo	2023-05-24T00:00:00	2024-11-08T13:00:00	1	Precipitación	0
25496	7	Sololá	701	Sololá	1	Sololá	5	Mayo	2023-05-24T00:00:00	2024-11-08T13:00:00	8	Radiación solar	437
25497	7	Sololá	701	Sololá	1	Sololá	5	Mayo	2023-05-24T00:00:00	2024-11-08T14:00:00	2	Temperatura media	22.6
25498	7	Sololá	701	Sololá	1	Sololá	5	Mayo	2023-05-24T00:00:00	2024-11-08T14:00:00	4	Temperatura máxima	22.8
25499	7	Sololá	701	Sololá	1	Sololá	5	Mayo	2023-05-24T00:00:00	2024-11-08T14:00:00	3	Temperatura mínima	22.1
25500	7	Sololá	701	Sololá	1	Sololá	5	Mayo	2023-05-24T00:00:00	2024-11-08T14:00:00	5	Humedad	66
25501	7	Sololá	701	Sololá	1	Sololá	5	Mayo	2023-05-24T00:00:00	2024-11-08T14:00:00	6	Velocidad del viento	6.4
25502	7	Sololá	701	Sololá	1	Sololá	5	Mayo	2023-05-24T00:00:00	2024-11-08T14:00:00	7	Dirección del viento	6.44
25503	7	Sololá	701	Sololá	1	Sololá	5	Mayo	2023-05-24T00:00:00	2024-11-08T14:00:00	1	Precipitación	0
25504	7	Sololá	701	Sololá	1	Sololá	5	Mayo	2023-05-24T00:00:00	2024-11-08T14:00:00	8	Radiación solar	212
25505	7	Sololá	701	Sololá	1	Sololá	5	Mayo	2023-05-24T00:00:00	2024-11-08T15:00:00	2	Temperatura media	21.8
25506	7	Sololá	701	Sololá	1	Sololá	5	Mayo	2023-05-24T00:00:00	2024-11-08T15:00:00	4	Temperatura máxima	22.6
25507	7	Sololá	701	Sololá	1	Sololá	5	Mayo	2023-05-24T00:00:00	2024-11-08T15:00:00	3	Temperatura mínima	21.6
25508	7	Sololá	701	Sololá	1	Sololá	5	Mayo	2023-05-24T00:00:00	2024-11-08T15:00:00	5	Humedad	74
25509	7	Sololá	701	Sololá	1	Sololá	5	Mayo	2023-05-24T00:00:00	2024-11-08T15:00:00	6	Velocidad del viento	6.4
25510	7	Sololá	701	Sololá	1	Sololá	5	Mayo	2023-05-24T00:00:00	2024-11-08T15:00:00	7	Dirección del viento	6.44
25511	7	Sololá	701	Sololá	1	Sololá	5	Mayo	2023-05-24T00:00:00	2024-11-08T15:00:00	1	Precipitación	0
25512	7	Sololá	701	Sololá	1	Sololá	5	Mayo	2023-05-24T00:00:00	2024-11-08T15:00:00	8	Radiación solar	210
25513	7	Sololá	701	Sololá	1	Sololá	5	Mayo	2023-05-24T00:00:00	2024-11-08T16:00:00	2	Temperatura media	20.8
25514	7	Sololá	701	Sololá	1	Sololá	5	Mayo	2023-05-24T00:00:00	2024-11-08T16:00:00	4	Temperatura máxima	21.9
25515	7	Sololá	701	Sololá	1	Sololá	5	Mayo	2023-05-24T00:00:00	2024-11-08T16:00:00	3	Temperatura mínima	20.8
25516	7	Sololá	701	Sololá	1	Sololá	5	Mayo	2023-05-24T00:00:00	2024-11-08T16:00:00	5	Humedad	77
25517	7	Sololá	701	Sololá	1	Sololá	5	Mayo	2023-05-24T00:00:00	2024-11-08T16:00:00	6	Velocidad del viento	4.8
25518	7	Sololá	701	Sololá	1	Sololá	5	Mayo	2023-05-24T00:00:00	2024-11-08T16:00:00	7	Dirección del viento	4.83
25519	7	Sololá	701	Sololá	1	Sololá	5	Mayo	2023-05-24T00:00:00	2024-11-08T16:00:00	1	Precipitación	0
25520	7	Sololá	701	Sololá	1	Sololá	5	Mayo	2023-05-24T00:00:00	2024-11-08T16:00:00	8	Radiación solar	83
25521	7	Sololá	701	Sololá	1	Sololá	5	Mayo	2023-05-24T00:00:00	2024-11-08T17:00:00	2	Temperatura media	20.1
25522	7	Sololá	701	Sololá	1	Sololá	5	Mayo	2023-05-24T00:00:00	2024-11-08T17:00:00	4	Temperatura máxima	20.8
25523	7	Sololá	701	Sololá	1	Sololá	5	Mayo	2023-05-24T00:00:00	2024-11-08T17:00:00	3	Temperatura mínima	20.1
25524	7	Sololá	701	Sololá	1	Sololá	5	Mayo	2023-05-24T00:00:00	2024-11-08T17:00:00	5	Humedad	83
25525	7	Sololá	701	Sololá	1	Sololá	5	Mayo	2023-05-24T00:00:00	2024-11-08T17:00:00	6	Velocidad del viento	3.2
25526	7	Sololá	701	Sololá	1	Sololá	5	Mayo	2023-05-24T00:00:00	2024-11-08T17:00:00	7	Dirección del viento	3.22
25527	7	Sololá	701	Sololá	1	Sololá	5	Mayo	2023-05-24T00:00:00	2024-11-08T17:00:00	1	Precipitación	0
25528	7	Sololá	701	Sololá	1	Sololá	5	Mayo	2023-05-24T00:00:00	2024-11-08T17:00:00	8	Radiación solar	60
25529	7	Sololá	701	Sololá	1	Sololá	5	Mayo	2023-05-24T00:00:00	2024-11-08T18:00:00	2	Temperatura media	19.2
25530	7	Sololá	701	Sololá	1	Sololá	5	Mayo	2023-05-24T00:00:00	2024-11-08T18:00:00	4	Temperatura máxima	20.1
25531	7	Sololá	701	Sololá	1	Sololá	5	Mayo	2023-05-24T00:00:00	2024-11-08T18:00:00	3	Temperatura mínima	19.2
25532	7	Sololá	701	Sololá	1	Sololá	5	Mayo	2023-05-24T00:00:00	2024-11-08T18:00:00	5	Humedad	88
25533	7	Sololá	701	Sololá	1	Sololá	5	Mayo	2023-05-24T00:00:00	2024-11-08T18:00:00	6	Velocidad del viento	3.2
25534	7	Sololá	701	Sololá	1	Sololá	5	Mayo	2023-05-24T00:00:00	2024-11-08T18:00:00	7	Dirección del viento	3.22
25535	7	Sololá	701	Sololá	1	Sololá	5	Mayo	2023-05-24T00:00:00	2024-11-08T18:00:00	1	Precipitación	0
25536	7	Sololá	701	Sololá	1	Sololá	5	Mayo	2023-05-24T00:00:00	2024-11-08T18:00:00	8	Radiación solar	38
25537	7	Sololá	701	Sololá	1	Sololá	5	Mayo	2023-05-24T00:00:00	2024-11-08T19:00:00	2	Temperatura media	18.2
25538	7	Sololá	701	Sololá	1	Sololá	5	Mayo	2023-05-24T00:00:00	2024-11-08T19:00:00	4	Temperatura máxima	19.2
25539	7	Sololá	701	Sololá	1	Sololá	5	Mayo	2023-05-24T00:00:00	2024-11-08T19:00:00	3	Temperatura mínima	18.2
25540	7	Sololá	701	Sololá	1	Sololá	5	Mayo	2023-05-24T00:00:00	2024-11-08T19:00:00	5	Humedad	91
25541	7	Sololá	701	Sololá	1	Sololá	5	Mayo	2023-05-24T00:00:00	2024-11-08T19:00:00	6	Velocidad del viento	1.6
25542	7	Sololá	701	Sololá	1	Sololá	5	Mayo	2023-05-24T00:00:00	2024-11-08T19:00:00	7	Dirección del viento	1.61
25543	7	Sololá	701	Sololá	1	Sololá	5	Mayo	2023-05-24T00:00:00	2024-11-08T19:00:00	1	Precipitación	0
25544	7	Sololá	701	Sololá	1	Sololá	5	Mayo	2023-05-24T00:00:00	2024-11-08T19:00:00	8	Radiación solar	0
25545	7	Sololá	701	Sololá	1	Sololá	5	Mayo	2023-05-24T00:00:00	2024-11-08T20:00:00	2	Temperatura media	18
25546	7	Sololá	701	Sololá	1	Sololá	5	Mayo	2023-05-24T00:00:00	2024-11-08T20:00:00	4	Temperatura máxima	18.6
25547	7	Sololá	701	Sololá	1	Sololá	5	Mayo	2023-05-24T00:00:00	2024-11-08T20:00:00	3	Temperatura mínima	18
25548	7	Sololá	701	Sololá	1	Sololá	5	Mayo	2023-05-24T00:00:00	2024-11-08T20:00:00	5	Humedad	91
25549	7	Sololá	701	Sololá	1	Sololá	5	Mayo	2023-05-24T00:00:00	2024-11-08T20:00:00	6	Velocidad del viento	0
25550	7	Sololá	701	Sololá	1	Sololá	5	Mayo	2023-05-24T00:00:00	2024-11-08T20:00:00	7	Dirección del viento	0
25551	7	Sololá	701	Sololá	1	Sololá	5	Mayo	2023-05-24T00:00:00	2024-11-08T20:00:00	1	Precipitación	0
25552	7	Sololá	701	Sololá	1	Sololá	5	Mayo	2023-05-24T00:00:00	2024-11-08T20:00:00	8	Radiación solar	0
25553	7	Sololá	701	Sololá	1	Sololá	5	Mayo	2023-05-24T00:00:00	2024-11-08T21:00:00	2	Temperatura media	18.2
25554	7	Sololá	701	Sololá	1	Sololá	5	Mayo	2023-05-24T00:00:00	2024-11-08T21:00:00	4	Temperatura máxima	18.3
25555	7	Sololá	701	Sololá	1	Sololá	5	Mayo	2023-05-24T00:00:00	2024-11-08T21:00:00	3	Temperatura mínima	17.9
25556	7	Sololá	701	Sololá	1	Sololá	5	Mayo	2023-05-24T00:00:00	2024-11-08T21:00:00	5	Humedad	90
25557	7	Sololá	701	Sololá	1	Sololá	5	Mayo	2023-05-24T00:00:00	2024-11-08T21:00:00	6	Velocidad del viento	0
25558	7	Sololá	701	Sololá	1	Sololá	5	Mayo	2023-05-24T00:00:00	2024-11-08T21:00:00	7	Dirección del viento	0
25559	7	Sololá	701	Sololá	1	Sololá	5	Mayo	2023-05-24T00:00:00	2024-11-08T21:00:00	1	Precipitación	0
25560	7	Sololá	701	Sololá	1	Sololá	5	Mayo	2023-05-24T00:00:00	2024-11-08T21:00:00	8	Radiación solar	0
25561	7	Sololá	701	Sololá	1	Sololá	5	Mayo	2023-05-24T00:00:00	2024-11-08T22:00:00	2	Temperatura media	17.9
25562	7	Sololá	701	Sololá	1	Sololá	5	Mayo	2023-05-24T00:00:00	2024-11-08T22:00:00	4	Temperatura máxima	18.3
25563	7	Sololá	701	Sololá	1	Sololá	5	Mayo	2023-05-24T00:00:00	2024-11-08T22:00:00	3	Temperatura mínima	17.9
25564	7	Sololá	701	Sololá	1	Sololá	5	Mayo	2023-05-24T00:00:00	2024-11-08T22:00:00	5	Humedad	92
25565	7	Sololá	701	Sololá	1	Sololá	5	Mayo	2023-05-24T00:00:00	2024-11-08T22:00:00	6	Velocidad del viento	0
25566	7	Sololá	701	Sololá	1	Sololá	5	Mayo	2023-05-24T00:00:00	2024-11-08T22:00:00	7	Dirección del viento	0
25567	7	Sololá	701	Sololá	1	Sololá	5	Mayo	2023-05-24T00:00:00	2024-11-08T22:00:00	1	Precipitación	0
25568	7	Sololá	701	Sololá	1	Sololá	5	Mayo	2023-05-24T00:00:00	2024-11-08T22:00:00	8	Radiación solar	0
25569	7	Sololá	701	Sololá	1	Sololá	5	Mayo	2023-05-24T00:00:00	2024-11-08T23:00:00	2	Temperatura media	17.2
25570	7	Sololá	701	Sololá	1	Sololá	5	Mayo	2023-05-24T00:00:00	2024-11-08T23:00:00	4	Temperatura máxima	17.9
25571	7	Sololá	701	Sololá	1	Sololá	5	Mayo	2023-05-24T00:00:00	2024-11-08T23:00:00	3	Temperatura mínima	17.2
25572	7	Sololá	701	Sololá	1	Sololá	5	Mayo	2023-05-24T00:00:00	2024-11-08T23:00:00	5	Humedad	90
25573	7	Sololá	701	Sololá	1	Sololá	5	Mayo	2023-05-24T00:00:00	2024-11-08T23:00:00	6	Velocidad del viento	0
25574	7	Sololá	701	Sololá	1	Sololá	5	Mayo	2023-05-24T00:00:00	2024-11-08T23:00:00	7	Dirección del viento	0
25575	7	Sololá	701	Sololá	1	Sololá	5	Mayo	2023-05-24T00:00:00	2024-11-08T23:00:00	1	Precipitación	0
25576	7	Sololá	701	Sololá	1	Sololá	5	Mayo	2023-05-24T00:00:00	2024-11-08T23:00:00	8	Radiación solar	0
25577	7	Sololá	701	Sololá	1	Sololá	5	Mayo	2023-05-25T00:00:00	2024-11-08T00:00:00	2	Temperatura media	17
25578	7	Sololá	701	Sololá	1	Sololá	5	Mayo	2023-05-25T00:00:00	2024-11-08T00:00:00	4	Temperatura máxima	17.2
25579	7	Sololá	701	Sololá	1	Sololá	5	Mayo	2023-05-25T00:00:00	2024-11-08T00:00:00	3	Temperatura mínima	16.8
25580	7	Sololá	701	Sololá	1	Sololá	5	Mayo	2023-05-25T00:00:00	2024-11-08T00:00:00	5	Humedad	83
25581	7	Sololá	701	Sololá	1	Sololá	5	Mayo	2023-05-25T00:00:00	2024-11-08T00:00:00	6	Velocidad del viento	1.6
25582	7	Sololá	701	Sololá	1	Sololá	5	Mayo	2023-05-25T00:00:00	2024-11-08T00:00:00	7	Dirección del viento	1.61
25583	7	Sololá	701	Sololá	1	Sololá	5	Mayo	2023-05-25T00:00:00	2024-11-08T00:00:00	1	Precipitación	0
25584	7	Sololá	701	Sololá	1	Sololá	5	Mayo	2023-05-25T00:00:00	2024-11-08T00:00:00	8	Radiación solar	0
25585	7	Sololá	701	Sololá	1	Sololá	5	Mayo	2023-05-25T00:00:00	2024-11-08T01:00:00	2	Temperatura media	16.7
25586	7	Sololá	701	Sololá	1	Sololá	5	Mayo	2023-05-25T00:00:00	2024-11-08T01:00:00	4	Temperatura máxima	17.1
25587	7	Sololá	701	Sololá	1	Sololá	5	Mayo	2023-05-25T00:00:00	2024-11-08T01:00:00	3	Temperatura mínima	16.7
25588	7	Sololá	701	Sololá	1	Sololá	5	Mayo	2023-05-25T00:00:00	2024-11-08T01:00:00	5	Humedad	83
25589	7	Sololá	701	Sololá	1	Sololá	5	Mayo	2023-05-25T00:00:00	2024-11-08T01:00:00	6	Velocidad del viento	1.6
25590	7	Sololá	701	Sololá	1	Sololá	5	Mayo	2023-05-25T00:00:00	2024-11-08T01:00:00	7	Dirección del viento	1.61
25591	7	Sololá	701	Sololá	1	Sololá	5	Mayo	2023-05-25T00:00:00	2024-11-08T01:00:00	1	Precipitación	0
25592	7	Sololá	701	Sololá	1	Sololá	5	Mayo	2023-05-25T00:00:00	2024-11-08T01:00:00	8	Radiación solar	0
25593	7	Sololá	701	Sololá	1	Sololá	5	Mayo	2023-05-25T00:00:00	2024-11-08T02:00:00	2	Temperatura media	15.7
25594	7	Sololá	701	Sololá	1	Sololá	5	Mayo	2023-05-25T00:00:00	2024-11-08T02:00:00	4	Temperatura máxima	16.7
25595	7	Sololá	701	Sololá	1	Sololá	5	Mayo	2023-05-25T00:00:00	2024-11-08T02:00:00	3	Temperatura mínima	15.7
25596	7	Sololá	701	Sololá	1	Sololá	5	Mayo	2023-05-25T00:00:00	2024-11-08T02:00:00	5	Humedad	85
25597	7	Sololá	701	Sololá	1	Sololá	5	Mayo	2023-05-25T00:00:00	2024-11-08T02:00:00	6	Velocidad del viento	1.6
25598	7	Sololá	701	Sololá	1	Sololá	5	Mayo	2023-05-25T00:00:00	2024-11-08T02:00:00	7	Dirección del viento	1.61
25599	7	Sololá	701	Sololá	1	Sololá	5	Mayo	2023-05-25T00:00:00	2024-11-08T02:00:00	1	Precipitación	0
25600	7	Sololá	701	Sololá	1	Sololá	5	Mayo	2023-05-25T00:00:00	2024-11-08T02:00:00	8	Radiación solar	0
25601	7	Sololá	701	Sololá	1	Sololá	5	Mayo	2023-05-25T00:00:00	2024-11-08T03:00:00	2	Temperatura media	15.3
25602	7	Sololá	701	Sololá	1	Sololá	5	Mayo	2023-05-25T00:00:00	2024-11-08T03:00:00	4	Temperatura máxima	15.9
25603	7	Sololá	701	Sololá	1	Sololá	5	Mayo	2023-05-25T00:00:00	2024-11-08T03:00:00	3	Temperatura mínima	15.3
25604	7	Sololá	701	Sololá	1	Sololá	5	Mayo	2023-05-25T00:00:00	2024-11-08T03:00:00	5	Humedad	82
25605	7	Sololá	701	Sololá	1	Sololá	5	Mayo	2023-05-25T00:00:00	2024-11-08T03:00:00	6	Velocidad del viento	3.2
25606	7	Sololá	701	Sololá	1	Sololá	5	Mayo	2023-05-25T00:00:00	2024-11-08T03:00:00	7	Dirección del viento	3.22
25607	7	Sololá	701	Sololá	1	Sololá	5	Mayo	2023-05-25T00:00:00	2024-11-08T03:00:00	1	Precipitación	0
25608	7	Sololá	701	Sololá	1	Sololá	5	Mayo	2023-05-25T00:00:00	2024-11-08T03:00:00	8	Radiación solar	0
25609	7	Sololá	701	Sololá	1	Sololá	5	Mayo	2023-05-25T00:00:00	2024-11-08T04:00:00	2	Temperatura media	14.3
25610	7	Sololá	701	Sololá	1	Sololá	5	Mayo	2023-05-25T00:00:00	2024-11-08T04:00:00	4	Temperatura máxima	15.6
25611	7	Sololá	701	Sololá	1	Sololá	5	Mayo	2023-05-25T00:00:00	2024-11-08T04:00:00	3	Temperatura mínima	14.3
25612	7	Sololá	701	Sololá	1	Sololá	5	Mayo	2023-05-25T00:00:00	2024-11-08T04:00:00	5	Humedad	82
25613	7	Sololá	701	Sololá	1	Sololá	5	Mayo	2023-05-25T00:00:00	2024-11-08T04:00:00	6	Velocidad del viento	3.2
25614	7	Sololá	701	Sololá	1	Sololá	5	Mayo	2023-05-25T00:00:00	2024-11-08T04:00:00	7	Dirección del viento	3.22
25615	7	Sololá	701	Sololá	1	Sololá	5	Mayo	2023-05-25T00:00:00	2024-11-08T04:00:00	1	Precipitación	0
25616	7	Sololá	701	Sololá	1	Sololá	5	Mayo	2023-05-25T00:00:00	2024-11-08T04:00:00	8	Radiación solar	0
25617	7	Sololá	701	Sololá	1	Sololá	5	Mayo	2023-05-25T00:00:00	2024-11-08T05:00:00	2	Temperatura media	13.6
25618	7	Sololá	701	Sololá	1	Sololá	5	Mayo	2023-05-25T00:00:00	2024-11-08T05:00:00	4	Temperatura máxima	14.3
25619	7	Sololá	701	Sololá	1	Sololá	5	Mayo	2023-05-25T00:00:00	2024-11-08T05:00:00	3	Temperatura mínima	13.6
25620	7	Sololá	701	Sololá	1	Sololá	5	Mayo	2023-05-25T00:00:00	2024-11-08T05:00:00	5	Humedad	79
25621	7	Sololá	701	Sololá	1	Sololá	5	Mayo	2023-05-25T00:00:00	2024-11-08T05:00:00	6	Velocidad del viento	1.6
25622	7	Sololá	701	Sololá	1	Sololá	5	Mayo	2023-05-25T00:00:00	2024-11-08T05:00:00	7	Dirección del viento	1.61
25623	7	Sololá	701	Sololá	1	Sololá	5	Mayo	2023-05-25T00:00:00	2024-11-08T05:00:00	1	Precipitación	0
25624	7	Sololá	701	Sololá	1	Sololá	5	Mayo	2023-05-25T00:00:00	2024-11-08T05:00:00	8	Radiación solar	0
25625	7	Sololá	701	Sololá	1	Sololá	5	Mayo	2023-05-25T00:00:00	2024-11-08T06:00:00	2	Temperatura media	13.8
25626	7	Sololá	701	Sololá	1	Sololá	5	Mayo	2023-05-25T00:00:00	2024-11-08T06:00:00	4	Temperatura máxima	13.8
25627	7	Sololá	701	Sololá	1	Sololá	5	Mayo	2023-05-25T00:00:00	2024-11-08T06:00:00	3	Temperatura mínima	13.4
25628	7	Sololá	701	Sololá	1	Sololá	5	Mayo	2023-05-25T00:00:00	2024-11-08T06:00:00	5	Humedad	79
25629	7	Sololá	701	Sololá	1	Sololá	5	Mayo	2023-05-25T00:00:00	2024-11-08T06:00:00	6	Velocidad del viento	0
25630	7	Sololá	701	Sololá	1	Sololá	5	Mayo	2023-05-25T00:00:00	2024-11-08T06:00:00	7	Dirección del viento	0
25631	7	Sololá	701	Sololá	1	Sololá	5	Mayo	2023-05-25T00:00:00	2024-11-08T06:00:00	1	Precipitación	0
25632	7	Sololá	701	Sololá	1	Sololá	5	Mayo	2023-05-25T00:00:00	2024-11-08T06:00:00	8	Radiación solar	4
25633	7	Sololá	701	Sololá	1	Sololá	5	Mayo	2023-05-25T00:00:00	2024-11-08T07:00:00	2	Temperatura media	15.4
25634	7	Sololá	701	Sololá	1	Sololá	5	Mayo	2023-05-25T00:00:00	2024-11-08T07:00:00	4	Temperatura máxima	15.5
25635	7	Sololá	701	Sololá	1	Sololá	5	Mayo	2023-05-25T00:00:00	2024-11-08T07:00:00	3	Temperatura mínima	13.8
25636	7	Sololá	701	Sololá	1	Sololá	5	Mayo	2023-05-25T00:00:00	2024-11-08T07:00:00	5	Humedad	73
25637	7	Sololá	701	Sololá	1	Sololá	5	Mayo	2023-05-25T00:00:00	2024-11-08T07:00:00	6	Velocidad del viento	1.6
25638	7	Sololá	701	Sololá	1	Sololá	5	Mayo	2023-05-25T00:00:00	2024-11-08T07:00:00	7	Dirección del viento	1.61
25639	7	Sololá	701	Sololá	1	Sololá	5	Mayo	2023-05-25T00:00:00	2024-11-08T07:00:00	1	Precipitación	0
25640	7	Sololá	701	Sololá	1	Sololá	5	Mayo	2023-05-25T00:00:00	2024-11-08T07:00:00	8	Radiación solar	56
25641	7	Sololá	701	Sololá	1	Sololá	5	Mayo	2023-05-25T00:00:00	2024-11-08T08:00:00	2	Temperatura media	18.2
25642	7	Sololá	701	Sololá	1	Sololá	5	Mayo	2023-05-25T00:00:00	2024-11-08T08:00:00	4	Temperatura máxima	18.2
25643	7	Sololá	701	Sololá	1	Sololá	5	Mayo	2023-05-25T00:00:00	2024-11-08T08:00:00	3	Temperatura mínima	15.4
25644	7	Sololá	701	Sololá	1	Sololá	5	Mayo	2023-05-25T00:00:00	2024-11-08T08:00:00	5	Humedad	65
25645	7	Sololá	701	Sololá	1	Sololá	5	Mayo	2023-05-25T00:00:00	2024-11-08T08:00:00	6	Velocidad del viento	3.2
25646	7	Sololá	701	Sololá	1	Sololá	5	Mayo	2023-05-25T00:00:00	2024-11-08T08:00:00	7	Dirección del viento	3.22
25647	7	Sololá	701	Sololá	1	Sololá	5	Mayo	2023-05-25T00:00:00	2024-11-08T08:00:00	1	Precipitación	0
25648	7	Sololá	701	Sololá	1	Sololá	5	Mayo	2023-05-25T00:00:00	2024-11-08T08:00:00	8	Radiación solar	167
25649	7	Sololá	701	Sololá	1	Sololá	5	Mayo	2023-05-25T00:00:00	2024-11-08T09:00:00	2	Temperatura media	20.8
25650	7	Sololá	701	Sololá	1	Sololá	5	Mayo	2023-05-25T00:00:00	2024-11-08T09:00:00	4	Temperatura máxima	20.8
25651	7	Sololá	701	Sololá	1	Sololá	5	Mayo	2023-05-25T00:00:00	2024-11-08T09:00:00	3	Temperatura mínima	18.2
25652	7	Sololá	701	Sololá	1	Sololá	5	Mayo	2023-05-25T00:00:00	2024-11-08T09:00:00	5	Humedad	71
25653	7	Sololá	701	Sololá	1	Sololá	5	Mayo	2023-05-25T00:00:00	2024-11-08T09:00:00	6	Velocidad del viento	3.2
25654	7	Sololá	701	Sololá	1	Sololá	5	Mayo	2023-05-25T00:00:00	2024-11-08T09:00:00	7	Dirección del viento	3.22
25655	7	Sololá	701	Sololá	1	Sololá	5	Mayo	2023-05-25T00:00:00	2024-11-08T09:00:00	1	Precipitación	0
25656	7	Sololá	701	Sololá	1	Sololá	5	Mayo	2023-05-25T00:00:00	2024-11-08T09:00:00	8	Radiación solar	324
25657	7	Sololá	701	Sololá	1	Sololá	5	Mayo	2023-05-25T00:00:00	2024-11-08T10:00:00	2	Temperatura media	21.8
25658	7	Sololá	701	Sololá	1	Sololá	5	Mayo	2023-05-25T00:00:00	2024-11-08T10:00:00	4	Temperatura máxima	21.8
25659	7	Sololá	701	Sololá	1	Sololá	5	Mayo	2023-05-25T00:00:00	2024-11-08T10:00:00	3	Temperatura mínima	20.4
25660	7	Sololá	701	Sololá	1	Sololá	5	Mayo	2023-05-25T00:00:00	2024-11-08T10:00:00	5	Humedad	55
25661	7	Sololá	701	Sololá	1	Sololá	5	Mayo	2023-05-25T00:00:00	2024-11-08T10:00:00	6	Velocidad del viento	4.8
25662	7	Sololá	701	Sololá	1	Sololá	5	Mayo	2023-05-25T00:00:00	2024-11-08T10:00:00	7	Dirección del viento	4.83
25663	7	Sololá	701	Sololá	1	Sololá	5	Mayo	2023-05-25T00:00:00	2024-11-08T10:00:00	1	Precipitación	0
25664	7	Sololá	701	Sololá	1	Sololá	5	Mayo	2023-05-25T00:00:00	2024-11-08T10:00:00	8	Radiación solar	690
25665	7	Sololá	701	Sololá	1	Sololá	5	Mayo	2023-05-25T00:00:00	2024-11-08T11:00:00	2	Temperatura media	22.5
25666	7	Sololá	701	Sololá	1	Sololá	5	Mayo	2023-05-25T00:00:00	2024-11-08T11:00:00	4	Temperatura máxima	22.6
25667	7	Sololá	701	Sololá	1	Sololá	5	Mayo	2023-05-25T00:00:00	2024-11-08T11:00:00	3	Temperatura mínima	21.7
25668	7	Sololá	701	Sololá	1	Sololá	5	Mayo	2023-05-25T00:00:00	2024-11-08T11:00:00	5	Humedad	55
25669	7	Sololá	701	Sololá	1	Sololá	5	Mayo	2023-05-25T00:00:00	2024-11-08T11:00:00	6	Velocidad del viento	6.4
25670	7	Sololá	701	Sololá	1	Sololá	5	Mayo	2023-05-25T00:00:00	2024-11-08T11:00:00	7	Dirección del viento	6.44
25671	7	Sololá	701	Sololá	1	Sololá	5	Mayo	2023-05-25T00:00:00	2024-11-08T11:00:00	1	Precipitación	0
25672	7	Sololá	701	Sololá	1	Sololá	5	Mayo	2023-05-25T00:00:00	2024-11-08T11:00:00	8	Radiación solar	731
25673	7	Sololá	701	Sololá	1	Sololá	5	Mayo	2023-05-25T00:00:00	2024-11-08T12:00:00	2	Temperatura media	22.4
25674	7	Sololá	701	Sololá	1	Sololá	5	Mayo	2023-05-25T00:00:00	2024-11-08T12:00:00	4	Temperatura máxima	23.1
25675	7	Sololá	701	Sololá	1	Sololá	5	Mayo	2023-05-25T00:00:00	2024-11-08T12:00:00	3	Temperatura mínima	22.4
25676	7	Sololá	701	Sololá	1	Sololá	5	Mayo	2023-05-25T00:00:00	2024-11-08T12:00:00	5	Humedad	68
25677	7	Sololá	701	Sololá	1	Sololá	5	Mayo	2023-05-25T00:00:00	2024-11-08T12:00:00	6	Velocidad del viento	6.4
25678	7	Sololá	701	Sololá	1	Sololá	5	Mayo	2023-05-25T00:00:00	2024-11-08T12:00:00	7	Dirección del viento	6.44
25679	7	Sololá	701	Sololá	1	Sololá	5	Mayo	2023-05-25T00:00:00	2024-11-08T12:00:00	1	Precipitación	0
25680	7	Sololá	701	Sololá	1	Sololá	5	Mayo	2023-05-25T00:00:00	2024-11-08T12:00:00	8	Radiación solar	335
25681	7	Sololá	701	Sololá	1	Sololá	5	Mayo	2023-05-25T00:00:00	2024-11-08T13:00:00	2	Temperatura media	22.2
25682	7	Sololá	701	Sololá	1	Sololá	5	Mayo	2023-05-25T00:00:00	2024-11-08T13:00:00	4	Temperatura máxima	22.4
25683	7	Sololá	701	Sololá	1	Sololá	5	Mayo	2023-05-25T00:00:00	2024-11-08T13:00:00	3	Temperatura mínima	21.8
25684	7	Sololá	701	Sololá	1	Sololá	5	Mayo	2023-05-25T00:00:00	2024-11-08T13:00:00	5	Humedad	71
25685	7	Sololá	701	Sololá	1	Sololá	5	Mayo	2023-05-25T00:00:00	2024-11-08T13:00:00	6	Velocidad del viento	8
25686	7	Sololá	701	Sololá	1	Sololá	5	Mayo	2023-05-25T00:00:00	2024-11-08T13:00:00	7	Dirección del viento	8.05
25687	7	Sololá	701	Sololá	1	Sololá	5	Mayo	2023-05-25T00:00:00	2024-11-08T13:00:00	1	Precipitación	0
25688	7	Sololá	701	Sololá	1	Sololá	5	Mayo	2023-05-25T00:00:00	2024-11-08T13:00:00	8	Radiación solar	478
25689	7	Sololá	701	Sololá	1	Sololá	5	Mayo	2023-05-25T00:00:00	2024-11-08T14:00:00	2	Temperatura media	21.4
25690	7	Sololá	701	Sololá	1	Sololá	5	Mayo	2023-05-25T00:00:00	2024-11-08T14:00:00	4	Temperatura máxima	22.6
25691	7	Sololá	701	Sololá	1	Sololá	5	Mayo	2023-05-25T00:00:00	2024-11-08T14:00:00	3	Temperatura mínima	21.3
25692	7	Sololá	701	Sololá	1	Sololá	5	Mayo	2023-05-25T00:00:00	2024-11-08T14:00:00	5	Humedad	74
25693	7	Sololá	701	Sololá	1	Sololá	5	Mayo	2023-05-25T00:00:00	2024-11-08T14:00:00	6	Velocidad del viento	8
25694	7	Sololá	701	Sololá	1	Sololá	5	Mayo	2023-05-25T00:00:00	2024-11-08T14:00:00	7	Dirección del viento	8.05
25695	7	Sololá	701	Sololá	1	Sololá	5	Mayo	2023-05-25T00:00:00	2024-11-08T14:00:00	1	Precipitación	0
25696	7	Sololá	701	Sololá	1	Sololá	5	Mayo	2023-05-25T00:00:00	2024-11-08T14:00:00	8	Radiación solar	313
25697	7	Sololá	701	Sololá	1	Sololá	5	Mayo	2023-05-25T00:00:00	2024-11-08T15:00:00	2	Temperatura media	20.1
25698	7	Sololá	701	Sololá	1	Sololá	5	Mayo	2023-05-25T00:00:00	2024-11-08T15:00:00	4	Temperatura máxima	22
25699	7	Sololá	701	Sololá	1	Sololá	5	Mayo	2023-05-25T00:00:00	2024-11-08T15:00:00	3	Temperatura mínima	20.1
25700	7	Sololá	701	Sololá	1	Sololá	5	Mayo	2023-05-25T00:00:00	2024-11-08T15:00:00	5	Humedad	79
25701	7	Sololá	701	Sololá	1	Sololá	5	Mayo	2023-05-25T00:00:00	2024-11-08T15:00:00	6	Velocidad del viento	4.8
25702	7	Sololá	701	Sololá	1	Sololá	5	Mayo	2023-05-25T00:00:00	2024-11-08T15:00:00	7	Dirección del viento	4.83
25703	7	Sololá	701	Sololá	1	Sololá	5	Mayo	2023-05-25T00:00:00	2024-11-08T15:00:00	1	Precipitación	0
25704	7	Sololá	701	Sololá	1	Sololá	5	Mayo	2023-05-25T00:00:00	2024-11-08T15:00:00	8	Radiación solar	95
25705	7	Sololá	701	Sololá	1	Sololá	5	Mayo	2023-05-25T00:00:00	2024-11-08T16:00:00	2	Temperatura media	19.4
25706	7	Sololá	701	Sololá	1	Sololá	5	Mayo	2023-05-25T00:00:00	2024-11-08T16:00:00	4	Temperatura máxima	20.2
25707	7	Sololá	701	Sololá	1	Sololá	5	Mayo	2023-05-25T00:00:00	2024-11-08T16:00:00	3	Temperatura mínima	19.4
25708	7	Sololá	701	Sololá	1	Sololá	5	Mayo	2023-05-25T00:00:00	2024-11-08T16:00:00	5	Humedad	84
25709	7	Sololá	701	Sololá	1	Sololá	5	Mayo	2023-05-25T00:00:00	2024-11-08T16:00:00	6	Velocidad del viento	3.2
25710	7	Sololá	701	Sololá	1	Sololá	5	Mayo	2023-05-25T00:00:00	2024-11-08T16:00:00	7	Dirección del viento	3.22
25711	7	Sololá	701	Sololá	1	Sololá	5	Mayo	2023-05-25T00:00:00	2024-11-08T16:00:00	1	Precipitación	0
25712	7	Sololá	701	Sololá	1	Sololá	5	Mayo	2023-05-25T00:00:00	2024-11-08T16:00:00	8	Radiación solar	14
25713	7	Sololá	701	Sololá	1	Sololá	5	Mayo	2023-05-25T00:00:00	2024-11-08T17:00:00	2	Temperatura media	17.4
25714	7	Sololá	701	Sololá	1	Sololá	5	Mayo	2023-05-25T00:00:00	2024-11-08T17:00:00	4	Temperatura máxima	19.4
25715	7	Sololá	701	Sololá	1	Sololá	5	Mayo	2023-05-25T00:00:00	2024-11-08T17:00:00	3	Temperatura mínima	17.4
25716	7	Sololá	701	Sololá	1	Sololá	5	Mayo	2023-05-25T00:00:00	2024-11-08T17:00:00	5	Humedad	92
25717	7	Sololá	701	Sololá	1	Sololá	5	Mayo	2023-05-25T00:00:00	2024-11-08T17:00:00	6	Velocidad del viento	6.4
25718	7	Sololá	701	Sololá	1	Sololá	5	Mayo	2023-05-25T00:00:00	2024-11-08T17:00:00	7	Dirección del viento	6.44
25719	7	Sololá	701	Sololá	1	Sololá	5	Mayo	2023-05-25T00:00:00	2024-11-08T17:00:00	1	Precipitación	3
25720	7	Sololá	701	Sololá	1	Sololá	5	Mayo	2023-05-25T00:00:00	2024-11-08T17:00:00	8	Radiación solar	4
25721	7	Sololá	701	Sololá	1	Sololá	5	Mayo	2023-05-25T00:00:00	2024-11-08T18:00:00	2	Temperatura media	15.7
25722	7	Sololá	701	Sololá	1	Sololá	5	Mayo	2023-05-25T00:00:00	2024-11-08T18:00:00	4	Temperatura máxima	17.5
25723	7	Sololá	701	Sololá	1	Sololá	5	Mayo	2023-05-25T00:00:00	2024-11-08T18:00:00	3	Temperatura mínima	15.5
25724	7	Sololá	701	Sololá	1	Sololá	5	Mayo	2023-05-25T00:00:00	2024-11-08T18:00:00	5	Humedad	94
25725	7	Sololá	701	Sololá	1	Sololá	5	Mayo	2023-05-25T00:00:00	2024-11-08T18:00:00	6	Velocidad del viento	4.8
25726	7	Sololá	701	Sololá	1	Sololá	5	Mayo	2023-05-25T00:00:00	2024-11-08T18:00:00	7	Dirección del viento	4.83
25727	7	Sololá	701	Sololá	1	Sololá	5	Mayo	2023-05-25T00:00:00	2024-11-08T18:00:00	1	Precipitación	30.4
25728	7	Sololá	701	Sololá	1	Sololá	5	Mayo	2023-05-25T00:00:00	2024-11-08T18:00:00	8	Radiación solar	5
25729	7	Sololá	701	Sololá	1	Sololá	5	Mayo	2023-05-25T00:00:00	2024-11-08T19:00:00	2	Temperatura media	16.6
25730	7	Sololá	701	Sololá	1	Sololá	5	Mayo	2023-05-25T00:00:00	2024-11-08T19:00:00	4	Temperatura máxima	16.6
25731	7	Sololá	701	Sololá	1	Sololá	5	Mayo	2023-05-25T00:00:00	2024-11-08T19:00:00	3	Temperatura mínima	15.7
25732	7	Sololá	701	Sololá	1	Sololá	5	Mayo	2023-05-25T00:00:00	2024-11-08T19:00:00	5	Humedad	93
25733	7	Sololá	701	Sololá	1	Sololá	5	Mayo	2023-05-25T00:00:00	2024-11-08T19:00:00	6	Velocidad del viento	1.6
25734	7	Sololá	701	Sololá	1	Sololá	5	Mayo	2023-05-25T00:00:00	2024-11-08T19:00:00	7	Dirección del viento	1.61
25735	7	Sololá	701	Sololá	1	Sololá	5	Mayo	2023-05-25T00:00:00	2024-11-08T19:00:00	1	Precipitación	0
25736	7	Sololá	701	Sololá	1	Sololá	5	Mayo	2023-05-25T00:00:00	2024-11-08T19:00:00	8	Radiación solar	0
25737	7	Sololá	701	Sololá	1	Sololá	5	Mayo	2023-05-25T00:00:00	2024-11-08T20:00:00	2	Temperatura media	16
25738	7	Sololá	701	Sololá	1	Sololá	5	Mayo	2023-05-25T00:00:00	2024-11-08T20:00:00	4	Temperatura máxima	16.6
25739	7	Sololá	701	Sololá	1	Sololá	5	Mayo	2023-05-25T00:00:00	2024-11-08T20:00:00	3	Temperatura mínima	15.9
25740	7	Sololá	701	Sololá	1	Sololá	5	Mayo	2023-05-25T00:00:00	2024-11-08T20:00:00	5	Humedad	94
25741	7	Sololá	701	Sololá	1	Sololá	5	Mayo	2023-05-25T00:00:00	2024-11-08T20:00:00	6	Velocidad del viento	1.6
25742	7	Sololá	701	Sololá	1	Sololá	5	Mayo	2023-05-25T00:00:00	2024-11-08T20:00:00	7	Dirección del viento	1.61
25743	7	Sololá	701	Sololá	1	Sololá	5	Mayo	2023-05-25T00:00:00	2024-11-08T20:00:00	1	Precipitación	0
25744	7	Sololá	701	Sololá	1	Sololá	5	Mayo	2023-05-25T00:00:00	2024-11-08T20:00:00	8	Radiación solar	0
25745	7	Sololá	701	Sololá	1	Sololá	5	Mayo	2023-05-25T00:00:00	2024-11-08T21:00:00	2	Temperatura media	16.1
25746	7	Sololá	701	Sololá	1	Sololá	5	Mayo	2023-05-25T00:00:00	2024-11-08T21:00:00	4	Temperatura máxima	16.2
25747	7	Sololá	701	Sololá	1	Sololá	5	Mayo	2023-05-25T00:00:00	2024-11-08T21:00:00	3	Temperatura mínima	16
25748	7	Sololá	701	Sololá	1	Sololá	5	Mayo	2023-05-25T00:00:00	2024-11-08T21:00:00	5	Humedad	94
25749	7	Sololá	701	Sololá	1	Sololá	5	Mayo	2023-05-25T00:00:00	2024-11-08T21:00:00	6	Velocidad del viento	1.6
25750	7	Sololá	701	Sololá	1	Sololá	5	Mayo	2023-05-25T00:00:00	2024-11-08T21:00:00	7	Dirección del viento	1.61
25751	7	Sololá	701	Sololá	1	Sololá	5	Mayo	2023-05-25T00:00:00	2024-11-08T21:00:00	1	Precipitación	0
25752	7	Sololá	701	Sololá	1	Sololá	5	Mayo	2023-05-25T00:00:00	2024-11-08T21:00:00	8	Radiación solar	0
25753	7	Sololá	701	Sololá	1	Sololá	5	Mayo	2023-05-25T00:00:00	2024-11-08T22:00:00	2	Temperatura media	15.9
25754	7	Sololá	701	Sololá	1	Sololá	5	Mayo	2023-05-25T00:00:00	2024-11-08T22:00:00	4	Temperatura máxima	16.1
25755	7	Sololá	701	Sololá	1	Sololá	5	Mayo	2023-05-25T00:00:00	2024-11-08T22:00:00	3	Temperatura mínima	15.9
25756	7	Sololá	701	Sololá	1	Sololá	5	Mayo	2023-05-25T00:00:00	2024-11-08T22:00:00	5	Humedad	94
25757	7	Sololá	701	Sololá	1	Sololá	5	Mayo	2023-05-25T00:00:00	2024-11-08T22:00:00	6	Velocidad del viento	0
25758	7	Sololá	701	Sololá	1	Sololá	5	Mayo	2023-05-25T00:00:00	2024-11-08T22:00:00	7	Dirección del viento	0
25759	7	Sololá	701	Sololá	1	Sololá	5	Mayo	2023-05-25T00:00:00	2024-11-08T22:00:00	1	Precipitación	0
25760	7	Sololá	701	Sololá	1	Sololá	5	Mayo	2023-05-25T00:00:00	2024-11-08T22:00:00	8	Radiación solar	0
25761	7	Sololá	701	Sololá	1	Sololá	5	Mayo	2023-05-25T00:00:00	2024-11-08T23:00:00	2	Temperatura media	15.2
25762	7	Sololá	701	Sololá	1	Sololá	5	Mayo	2023-05-25T00:00:00	2024-11-08T23:00:00	4	Temperatura máxima	15.9
25763	7	Sololá	701	Sololá	1	Sololá	5	Mayo	2023-05-25T00:00:00	2024-11-08T23:00:00	3	Temperatura mínima	15.2
25764	7	Sololá	701	Sololá	1	Sololá	5	Mayo	2023-05-25T00:00:00	2024-11-08T23:00:00	5	Humedad	93
25765	7	Sololá	701	Sololá	1	Sololá	5	Mayo	2023-05-25T00:00:00	2024-11-08T23:00:00	6	Velocidad del viento	0
25766	7	Sololá	701	Sololá	1	Sololá	5	Mayo	2023-05-25T00:00:00	2024-11-08T23:00:00	7	Dirección del viento	0
25767	7	Sololá	701	Sololá	1	Sololá	5	Mayo	2023-05-25T00:00:00	2024-11-08T23:00:00	1	Precipitación	0
25768	7	Sololá	701	Sololá	1	Sololá	5	Mayo	2023-05-25T00:00:00	2024-11-08T23:00:00	8	Radiación solar	0
25769	7	Sololá	701	Sololá	1	Sololá	5	Mayo	2023-05-26T00:00:00	2024-11-08T00:00:00	2	Temperatura media	15.1
25770	7	Sololá	701	Sololá	1	Sololá	5	Mayo	2023-05-26T00:00:00	2024-11-08T00:00:00	4	Temperatura máxima	15.3
25771	7	Sololá	701	Sololá	1	Sololá	5	Mayo	2023-05-26T00:00:00	2024-11-08T00:00:00	3	Temperatura mínima	14.7
25772	7	Sololá	701	Sololá	1	Sololá	5	Mayo	2023-05-26T00:00:00	2024-11-08T00:00:00	5	Humedad	88
25773	7	Sololá	701	Sololá	1	Sololá	5	Mayo	2023-05-26T00:00:00	2024-11-08T00:00:00	6	Velocidad del viento	3.2
25774	7	Sololá	701	Sololá	1	Sololá	5	Mayo	2023-05-26T00:00:00	2024-11-08T00:00:00	7	Dirección del viento	3.22
25775	7	Sololá	701	Sololá	1	Sololá	5	Mayo	2023-05-26T00:00:00	2024-11-08T00:00:00	1	Precipitación	0
25776	7	Sololá	701	Sololá	1	Sololá	5	Mayo	2023-05-26T00:00:00	2024-11-08T00:00:00	8	Radiación solar	0
25777	7	Sololá	701	Sololá	1	Sololá	5	Mayo	2023-05-26T00:00:00	2024-11-08T01:00:00	2	Temperatura media	14.7
25778	7	Sololá	701	Sololá	1	Sololá	5	Mayo	2023-05-26T00:00:00	2024-11-08T01:00:00	4	Temperatura máxima	15.1
25779	7	Sololá	701	Sololá	1	Sololá	5	Mayo	2023-05-26T00:00:00	2024-11-08T01:00:00	3	Temperatura mínima	14.7
25780	7	Sololá	701	Sololá	1	Sololá	5	Mayo	2023-05-26T00:00:00	2024-11-08T01:00:00	5	Humedad	87
25781	7	Sololá	701	Sololá	1	Sololá	5	Mayo	2023-05-26T00:00:00	2024-11-08T01:00:00	6	Velocidad del viento	8
25782	7	Sololá	701	Sololá	1	Sololá	5	Mayo	2023-05-26T00:00:00	2024-11-08T01:00:00	7	Dirección del viento	8.05
25783	7	Sololá	701	Sololá	1	Sololá	5	Mayo	2023-05-26T00:00:00	2024-11-08T01:00:00	1	Precipitación	0
25784	7	Sololá	701	Sololá	1	Sololá	5	Mayo	2023-05-26T00:00:00	2024-11-08T01:00:00	8	Radiación solar	0
25785	7	Sololá	701	Sololá	1	Sololá	5	Mayo	2023-05-26T00:00:00	2024-11-08T02:00:00	2	Temperatura media	14.2
25786	7	Sololá	701	Sololá	1	Sololá	5	Mayo	2023-05-26T00:00:00	2024-11-08T02:00:00	4	Temperatura máxima	14.9
25787	7	Sololá	701	Sololá	1	Sololá	5	Mayo	2023-05-26T00:00:00	2024-11-08T02:00:00	3	Temperatura mínima	14.1
25788	7	Sololá	701	Sololá	1	Sololá	5	Mayo	2023-05-26T00:00:00	2024-11-08T02:00:00	5	Humedad	89
25789	7	Sololá	701	Sololá	1	Sololá	5	Mayo	2023-05-26T00:00:00	2024-11-08T02:00:00	6	Velocidad del viento	3.2
25790	7	Sololá	701	Sololá	1	Sololá	5	Mayo	2023-05-26T00:00:00	2024-11-08T02:00:00	7	Dirección del viento	3.22
25791	7	Sololá	701	Sololá	1	Sololá	5	Mayo	2023-05-26T00:00:00	2024-11-08T02:00:00	1	Precipitación	0
25792	7	Sololá	701	Sololá	1	Sololá	5	Mayo	2023-05-26T00:00:00	2024-11-08T02:00:00	8	Radiación solar	0
25793	7	Sololá	701	Sololá	1	Sololá	5	Mayo	2023-05-26T00:00:00	2024-11-08T03:00:00	2	Temperatura media	13.4
25794	7	Sololá	701	Sololá	1	Sololá	5	Mayo	2023-05-26T00:00:00	2024-11-08T03:00:00	4	Temperatura máxima	14.2
25795	7	Sololá	701	Sololá	1	Sololá	5	Mayo	2023-05-26T00:00:00	2024-11-08T03:00:00	3	Temperatura mínima	13.4
25796	7	Sololá	701	Sololá	1	Sololá	5	Mayo	2023-05-26T00:00:00	2024-11-08T03:00:00	5	Humedad	89
25797	7	Sololá	701	Sololá	1	Sololá	5	Mayo	2023-05-26T00:00:00	2024-11-08T03:00:00	6	Velocidad del viento	1.6
25798	7	Sololá	701	Sololá	1	Sololá	5	Mayo	2023-05-26T00:00:00	2024-11-08T03:00:00	7	Dirección del viento	1.61
25799	7	Sololá	701	Sololá	1	Sololá	5	Mayo	2023-05-26T00:00:00	2024-11-08T03:00:00	1	Precipitación	0
25800	7	Sololá	701	Sololá	1	Sololá	5	Mayo	2023-05-26T00:00:00	2024-11-08T03:00:00	8	Radiación solar	0
25801	7	Sololá	701	Sololá	1	Sololá	5	Mayo	2023-05-26T00:00:00	2024-11-08T04:00:00	2	Temperatura media	13.1
25802	7	Sololá	701	Sololá	1	Sololá	5	Mayo	2023-05-26T00:00:00	2024-11-08T04:00:00	4	Temperatura máxima	13.4
25803	7	Sololá	701	Sololá	1	Sololá	5	Mayo	2023-05-26T00:00:00	2024-11-08T04:00:00	3	Temperatura mínima	12.8
25804	7	Sololá	701	Sololá	1	Sololá	5	Mayo	2023-05-26T00:00:00	2024-11-08T04:00:00	5	Humedad	89
25805	7	Sololá	701	Sololá	1	Sololá	5	Mayo	2023-05-26T00:00:00	2024-11-08T04:00:00	6	Velocidad del viento	4.8
25806	7	Sololá	701	Sololá	1	Sololá	5	Mayo	2023-05-26T00:00:00	2024-11-08T04:00:00	7	Dirección del viento	4.83
25807	7	Sololá	701	Sololá	1	Sololá	5	Mayo	2023-05-26T00:00:00	2024-11-08T04:00:00	1	Precipitación	0
25808	7	Sololá	701	Sololá	1	Sololá	5	Mayo	2023-05-26T00:00:00	2024-11-08T04:00:00	8	Radiación solar	0
25809	7	Sololá	701	Sololá	1	Sololá	5	Mayo	2023-05-26T00:00:00	2024-11-08T05:00:00	2	Temperatura media	12.8
25810	7	Sololá	701	Sololá	1	Sololá	5	Mayo	2023-05-26T00:00:00	2024-11-08T05:00:00	4	Temperatura máxima	13.3
25811	7	Sololá	701	Sololá	1	Sololá	5	Mayo	2023-05-26T00:00:00	2024-11-08T05:00:00	3	Temperatura mínima	12.7
25812	7	Sololá	701	Sololá	1	Sololá	5	Mayo	2023-05-26T00:00:00	2024-11-08T05:00:00	5	Humedad	89
25813	7	Sololá	701	Sololá	1	Sololá	5	Mayo	2023-05-26T00:00:00	2024-11-08T05:00:00	6	Velocidad del viento	1.6
25814	7	Sololá	701	Sololá	1	Sololá	5	Mayo	2023-05-26T00:00:00	2024-11-08T05:00:00	7	Dirección del viento	1.61
25815	7	Sololá	701	Sololá	1	Sololá	5	Mayo	2023-05-26T00:00:00	2024-11-08T05:00:00	1	Precipitación	0
25816	7	Sololá	701	Sololá	1	Sololá	5	Mayo	2023-05-26T00:00:00	2024-11-08T05:00:00	8	Radiación solar	0
25817	7	Sololá	701	Sololá	1	Sololá	5	Mayo	2023-05-26T00:00:00	2024-11-08T06:00:00	2	Temperatura media	13.3
25818	7	Sololá	701	Sololá	1	Sololá	5	Mayo	2023-05-26T00:00:00	2024-11-08T06:00:00	4	Temperatura máxima	13.3
25819	7	Sololá	701	Sololá	1	Sololá	5	Mayo	2023-05-26T00:00:00	2024-11-08T06:00:00	3	Temperatura mínima	12.8
25820	7	Sololá	701	Sololá	1	Sololá	5	Mayo	2023-05-26T00:00:00	2024-11-08T06:00:00	5	Humedad	88
25821	7	Sololá	701	Sololá	1	Sololá	5	Mayo	2023-05-26T00:00:00	2024-11-08T06:00:00	6	Velocidad del viento	3.2
25822	7	Sololá	701	Sololá	1	Sololá	5	Mayo	2023-05-26T00:00:00	2024-11-08T06:00:00	7	Dirección del viento	3.22
25823	7	Sololá	701	Sololá	1	Sololá	5	Mayo	2023-05-26T00:00:00	2024-11-08T06:00:00	1	Precipitación	0
25824	7	Sololá	701	Sololá	1	Sololá	5	Mayo	2023-05-26T00:00:00	2024-11-08T06:00:00	8	Radiación solar	0
25825	7	Sololá	701	Sololá	1	Sololá	5	Mayo	2023-05-26T00:00:00	2024-11-08T07:00:00	2	Temperatura media	13.7
25826	7	Sololá	701	Sololá	1	Sololá	5	Mayo	2023-05-26T00:00:00	2024-11-08T07:00:00	4	Temperatura máxima	14.3
25827	7	Sololá	701	Sololá	1	Sololá	5	Mayo	2023-05-26T00:00:00	2024-11-08T07:00:00	3	Temperatura mínima	13.3
25828	7	Sololá	701	Sololá	1	Sololá	5	Mayo	2023-05-26T00:00:00	2024-11-08T07:00:00	5	Humedad	86
25829	7	Sololá	701	Sololá	1	Sololá	5	Mayo	2023-05-26T00:00:00	2024-11-08T07:00:00	6	Velocidad del viento	4.8
25830	7	Sololá	701	Sololá	1	Sololá	5	Mayo	2023-05-26T00:00:00	2024-11-08T07:00:00	7	Dirección del viento	4.83
25831	7	Sololá	701	Sololá	1	Sololá	5	Mayo	2023-05-26T00:00:00	2024-11-08T07:00:00	1	Precipitación	0
25832	7	Sololá	701	Sololá	1	Sololá	5	Mayo	2023-05-26T00:00:00	2024-11-08T07:00:00	8	Radiación solar	26
25833	7	Sololá	701	Sololá	1	Sololá	5	Mayo	2023-05-26T00:00:00	2024-11-08T08:00:00	2	Temperatura media	15.7
25834	7	Sololá	701	Sololá	1	Sololá	5	Mayo	2023-05-26T00:00:00	2024-11-08T08:00:00	4	Temperatura máxima	15.7
25835	7	Sololá	701	Sololá	1	Sololá	5	Mayo	2023-05-26T00:00:00	2024-11-08T08:00:00	3	Temperatura mínima	13.7
25836	7	Sololá	701	Sololá	1	Sololá	5	Mayo	2023-05-26T00:00:00	2024-11-08T08:00:00	5	Humedad	81
25837	7	Sololá	701	Sololá	1	Sololá	5	Mayo	2023-05-26T00:00:00	2024-11-08T08:00:00	6	Velocidad del viento	1.6
25838	7	Sololá	701	Sololá	1	Sololá	5	Mayo	2023-05-26T00:00:00	2024-11-08T08:00:00	7	Dirección del viento	1.61
25839	7	Sololá	701	Sololá	1	Sololá	5	Mayo	2023-05-26T00:00:00	2024-11-08T08:00:00	1	Precipitación	0
25840	7	Sololá	701	Sololá	1	Sololá	5	Mayo	2023-05-26T00:00:00	2024-11-08T08:00:00	8	Radiación solar	155
25841	7	Sololá	701	Sololá	1	Sololá	5	Mayo	2023-05-26T00:00:00	2024-11-08T09:00:00	2	Temperatura media	18
25842	7	Sololá	701	Sololá	1	Sololá	5	Mayo	2023-05-26T00:00:00	2024-11-08T09:00:00	4	Temperatura máxima	18.1
25843	7	Sololá	701	Sololá	1	Sololá	5	Mayo	2023-05-26T00:00:00	2024-11-08T09:00:00	3	Temperatura mínima	15.7
25844	7	Sololá	701	Sololá	1	Sololá	5	Mayo	2023-05-26T00:00:00	2024-11-08T09:00:00	5	Humedad	77
25845	7	Sololá	701	Sololá	1	Sololá	5	Mayo	2023-05-26T00:00:00	2024-11-08T09:00:00	6	Velocidad del viento	1.6
25846	7	Sololá	701	Sololá	1	Sololá	5	Mayo	2023-05-26T00:00:00	2024-11-08T09:00:00	7	Dirección del viento	1.61
25847	7	Sololá	701	Sololá	1	Sololá	5	Mayo	2023-05-26T00:00:00	2024-11-08T09:00:00	1	Precipitación	0
25848	7	Sololá	701	Sololá	1	Sololá	5	Mayo	2023-05-26T00:00:00	2024-11-08T09:00:00	8	Radiación solar	148
25849	7	Sololá	701	Sololá	1	Sololá	5	Mayo	2023-05-26T00:00:00	2024-11-08T10:00:00	2	Temperatura media	19.3
25850	7	Sololá	701	Sololá	1	Sololá	5	Mayo	2023-05-26T00:00:00	2024-11-08T10:00:00	4	Temperatura máxima	19.3
25851	7	Sololá	701	Sololá	1	Sololá	5	Mayo	2023-05-26T00:00:00	2024-11-08T10:00:00	3	Temperatura mínima	18
25852	7	Sololá	701	Sololá	1	Sololá	5	Mayo	2023-05-26T00:00:00	2024-11-08T10:00:00	5	Humedad	75
25853	7	Sololá	701	Sololá	1	Sololá	5	Mayo	2023-05-26T00:00:00	2024-11-08T10:00:00	6	Velocidad del viento	1.6
25854	7	Sololá	701	Sololá	1	Sololá	5	Mayo	2023-05-26T00:00:00	2024-11-08T10:00:00	7	Dirección del viento	1.61
25855	7	Sololá	701	Sololá	1	Sololá	5	Mayo	2023-05-26T00:00:00	2024-11-08T10:00:00	1	Precipitación	0
25856	7	Sololá	701	Sololá	1	Sololá	5	Mayo	2023-05-26T00:00:00	2024-11-08T10:00:00	8	Radiación solar	628
25857	7	Sololá	701	Sololá	1	Sololá	5	Mayo	2023-05-26T00:00:00	2024-11-08T11:00:00	2	Temperatura media	19.6
25858	7	Sololá	701	Sololá	1	Sololá	5	Mayo	2023-05-26T00:00:00	2024-11-08T11:00:00	4	Temperatura máxima	20
25859	7	Sololá	701	Sololá	1	Sololá	5	Mayo	2023-05-26T00:00:00	2024-11-08T11:00:00	3	Temperatura mínima	19.3
25860	7	Sololá	701	Sololá	1	Sololá	5	Mayo	2023-05-26T00:00:00	2024-11-08T11:00:00	5	Humedad	72
25861	7	Sololá	701	Sololá	1	Sololá	5	Mayo	2023-05-26T00:00:00	2024-11-08T11:00:00	6	Velocidad del viento	3.2
25862	7	Sololá	701	Sololá	1	Sololá	5	Mayo	2023-05-26T00:00:00	2024-11-08T11:00:00	7	Dirección del viento	3.22
25863	7	Sololá	701	Sololá	1	Sololá	5	Mayo	2023-05-26T00:00:00	2024-11-08T11:00:00	1	Precipitación	0
25864	7	Sololá	701	Sololá	1	Sololá	5	Mayo	2023-05-26T00:00:00	2024-11-08T11:00:00	8	Radiación solar	846
25865	7	Sololá	701	Sololá	1	Sololá	5	Mayo	2023-05-26T00:00:00	2024-11-08T12:00:00	2	Temperatura media	20.9
25866	7	Sololá	701	Sololá	1	Sololá	5	Mayo	2023-05-26T00:00:00	2024-11-08T12:00:00	4	Temperatura máxima	21.1
25867	7	Sololá	701	Sololá	1	Sololá	5	Mayo	2023-05-26T00:00:00	2024-11-08T12:00:00	3	Temperatura mínima	19.6
25868	7	Sololá	701	Sololá	1	Sololá	5	Mayo	2023-05-26T00:00:00	2024-11-08T12:00:00	5	Humedad	71
25869	7	Sololá	701	Sololá	1	Sololá	5	Mayo	2023-05-26T00:00:00	2024-11-08T12:00:00	6	Velocidad del viento	4.8
25870	7	Sololá	701	Sololá	1	Sololá	5	Mayo	2023-05-26T00:00:00	2024-11-08T12:00:00	7	Dirección del viento	4.83
25871	7	Sololá	701	Sololá	1	Sololá	5	Mayo	2023-05-26T00:00:00	2024-11-08T12:00:00	1	Precipitación	0
25872	7	Sololá	701	Sololá	1	Sololá	5	Mayo	2023-05-26T00:00:00	2024-11-08T12:00:00	8	Radiación solar	946
25873	7	Sololá	701	Sololá	1	Sololá	5	Mayo	2023-05-26T00:00:00	2024-11-08T13:00:00	2	Temperatura media	20.8
25874	7	Sololá	701	Sololá	1	Sololá	5	Mayo	2023-05-26T00:00:00	2024-11-08T13:00:00	4	Temperatura máxima	21.1
25875	7	Sololá	701	Sololá	1	Sololá	5	Mayo	2023-05-26T00:00:00	2024-11-08T13:00:00	3	Temperatura mínima	20.5
25876	7	Sololá	701	Sololá	1	Sololá	5	Mayo	2023-05-26T00:00:00	2024-11-08T13:00:00	5	Humedad	73
25877	7	Sololá	701	Sololá	1	Sololá	5	Mayo	2023-05-26T00:00:00	2024-11-08T13:00:00	6	Velocidad del viento	4.8
25878	7	Sololá	701	Sololá	1	Sololá	5	Mayo	2023-05-26T00:00:00	2024-11-08T13:00:00	7	Dirección del viento	4.83
25879	7	Sololá	701	Sololá	1	Sololá	5	Mayo	2023-05-26T00:00:00	2024-11-08T13:00:00	1	Precipitación	0
25880	7	Sololá	701	Sololá	1	Sololá	5	Mayo	2023-05-26T00:00:00	2024-11-08T13:00:00	8	Radiación solar	318
25881	7	Sololá	701	Sololá	1	Sololá	5	Mayo	2023-05-26T00:00:00	2024-11-08T14:00:00	2	Temperatura media	21.1
25882	7	Sololá	701	Sololá	1	Sololá	5	Mayo	2023-05-26T00:00:00	2024-11-08T14:00:00	4	Temperatura máxima	21.1
25883	7	Sololá	701	Sololá	1	Sololá	5	Mayo	2023-05-26T00:00:00	2024-11-08T14:00:00	3	Temperatura mínima	20.6
25884	7	Sololá	701	Sololá	1	Sololá	5	Mayo	2023-05-26T00:00:00	2024-11-08T14:00:00	5	Humedad	75
25885	7	Sololá	701	Sololá	1	Sololá	5	Mayo	2023-05-26T00:00:00	2024-11-08T14:00:00	6	Velocidad del viento	6.4
25886	7	Sololá	701	Sololá	1	Sololá	5	Mayo	2023-05-26T00:00:00	2024-11-08T14:00:00	7	Dirección del viento	6.44
25887	7	Sololá	701	Sololá	1	Sololá	5	Mayo	2023-05-26T00:00:00	2024-11-08T14:00:00	1	Precipitación	0
25888	7	Sololá	701	Sololá	1	Sololá	5	Mayo	2023-05-26T00:00:00	2024-11-08T14:00:00	8	Radiación solar	297
25889	7	Sololá	701	Sololá	1	Sololá	5	Mayo	2023-05-26T00:00:00	2024-11-08T15:00:00	2	Temperatura media	21.5
25890	7	Sololá	701	Sololá	1	Sololá	5	Mayo	2023-05-26T00:00:00	2024-11-08T15:00:00	4	Temperatura máxima	21.5
25891	7	Sololá	701	Sololá	1	Sololá	5	Mayo	2023-05-26T00:00:00	2024-11-08T15:00:00	3	Temperatura mínima	20.5
25892	7	Sololá	701	Sololá	1	Sololá	5	Mayo	2023-05-26T00:00:00	2024-11-08T15:00:00	5	Humedad	65
25893	7	Sololá	701	Sololá	1	Sololá	5	Mayo	2023-05-26T00:00:00	2024-11-08T15:00:00	6	Velocidad del viento	4.8
25894	7	Sololá	701	Sololá	1	Sololá	5	Mayo	2023-05-26T00:00:00	2024-11-08T15:00:00	7	Dirección del viento	4.83
25895	7	Sololá	701	Sololá	1	Sololá	5	Mayo	2023-05-26T00:00:00	2024-11-08T15:00:00	1	Precipitación	0
25896	7	Sololá	701	Sololá	1	Sololá	5	Mayo	2023-05-26T00:00:00	2024-11-08T15:00:00	8	Radiación solar	121
25897	7	Sololá	701	Sololá	1	Sololá	5	Mayo	2023-05-26T00:00:00	2024-11-08T16:00:00	2	Temperatura media	19.7
25898	7	Sololá	701	Sololá	1	Sololá	5	Mayo	2023-05-26T00:00:00	2024-11-08T16:00:00	4	Temperatura máxima	21.8
25899	7	Sololá	701	Sololá	1	Sololá	5	Mayo	2023-05-26T00:00:00	2024-11-08T16:00:00	3	Temperatura mínima	19.7
25900	7	Sololá	701	Sololá	1	Sololá	5	Mayo	2023-05-26T00:00:00	2024-11-08T16:00:00	5	Humedad	79
25901	7	Sololá	701	Sololá	1	Sololá	5	Mayo	2023-05-26T00:00:00	2024-11-08T16:00:00	6	Velocidad del viento	6.4
25902	7	Sololá	701	Sololá	1	Sololá	5	Mayo	2023-05-26T00:00:00	2024-11-08T16:00:00	7	Dirección del viento	6.44
25903	7	Sololá	701	Sololá	1	Sololá	5	Mayo	2023-05-26T00:00:00	2024-11-08T16:00:00	1	Precipitación	0
25904	7	Sololá	701	Sololá	1	Sololá	5	Mayo	2023-05-26T00:00:00	2024-11-08T16:00:00	8	Radiación solar	82
25905	7	Sololá	701	Sololá	1	Sololá	5	Mayo	2023-05-26T00:00:00	2024-11-08T17:00:00	2	Temperatura media	18.8
25906	7	Sololá	701	Sololá	1	Sololá	5	Mayo	2023-05-26T00:00:00	2024-11-08T17:00:00	4	Temperatura máxima	19.7
25907	7	Sololá	701	Sololá	1	Sololá	5	Mayo	2023-05-26T00:00:00	2024-11-08T17:00:00	3	Temperatura mínima	18.7
25908	7	Sololá	701	Sololá	1	Sololá	5	Mayo	2023-05-26T00:00:00	2024-11-08T17:00:00	5	Humedad	85
25909	7	Sololá	701	Sololá	1	Sololá	5	Mayo	2023-05-26T00:00:00	2024-11-08T17:00:00	6	Velocidad del viento	3.2
25910	7	Sololá	701	Sololá	1	Sololá	5	Mayo	2023-05-26T00:00:00	2024-11-08T17:00:00	7	Dirección del viento	3.22
25911	7	Sololá	701	Sololá	1	Sololá	5	Mayo	2023-05-26T00:00:00	2024-11-08T17:00:00	1	Precipitación	0
25912	7	Sololá	701	Sololá	1	Sololá	5	Mayo	2023-05-26T00:00:00	2024-11-08T17:00:00	8	Radiación solar	8
25913	7	Sololá	701	Sololá	1	Sololá	5	Mayo	2023-05-26T00:00:00	2024-11-08T18:00:00	2	Temperatura media	18.4
25914	7	Sololá	701	Sololá	1	Sololá	5	Mayo	2023-05-26T00:00:00	2024-11-08T18:00:00	4	Temperatura máxima	18.8
25915	7	Sololá	701	Sololá	1	Sololá	5	Mayo	2023-05-26T00:00:00	2024-11-08T18:00:00	3	Temperatura mínima	18.4
25916	7	Sololá	701	Sololá	1	Sololá	5	Mayo	2023-05-26T00:00:00	2024-11-08T18:00:00	5	Humedad	87
25917	7	Sololá	701	Sololá	1	Sololá	5	Mayo	2023-05-26T00:00:00	2024-11-08T18:00:00	6	Velocidad del viento	1.6
25918	7	Sololá	701	Sololá	1	Sololá	5	Mayo	2023-05-26T00:00:00	2024-11-08T18:00:00	7	Dirección del viento	1.61
25919	7	Sololá	701	Sololá	1	Sololá	5	Mayo	2023-05-26T00:00:00	2024-11-08T18:00:00	1	Precipitación	0
25920	7	Sololá	701	Sololá	1	Sololá	5	Mayo	2023-05-26T00:00:00	2024-11-08T18:00:00	8	Radiación solar	3
25921	7	Sololá	701	Sololá	1	Sololá	5	Mayo	2023-05-26T00:00:00	2024-11-08T19:00:00	2	Temperatura media	17.8
25922	7	Sololá	701	Sololá	1	Sololá	5	Mayo	2023-05-26T00:00:00	2024-11-08T19:00:00	4	Temperatura máxima	18.4
25923	7	Sololá	701	Sololá	1	Sololá	5	Mayo	2023-05-26T00:00:00	2024-11-08T19:00:00	3	Temperatura mínima	17.8
25924	7	Sololá	701	Sololá	1	Sololá	5	Mayo	2023-05-26T00:00:00	2024-11-08T19:00:00	5	Humedad	89
25925	7	Sololá	701	Sololá	1	Sololá	5	Mayo	2023-05-26T00:00:00	2024-11-08T19:00:00	6	Velocidad del viento	1.6
25926	7	Sololá	701	Sololá	1	Sololá	5	Mayo	2023-05-26T00:00:00	2024-11-08T19:00:00	7	Dirección del viento	1.61
25927	7	Sololá	701	Sololá	1	Sololá	5	Mayo	2023-05-26T00:00:00	2024-11-08T19:00:00	1	Precipitación	0
25928	7	Sololá	701	Sololá	1	Sololá	5	Mayo	2023-05-26T00:00:00	2024-11-08T19:00:00	8	Radiación solar	0
25929	7	Sololá	701	Sololá	1	Sololá	5	Mayo	2023-05-26T00:00:00	2024-11-08T20:00:00	2	Temperatura media	17.1
25930	7	Sololá	701	Sololá	1	Sololá	5	Mayo	2023-05-26T00:00:00	2024-11-08T20:00:00	4	Temperatura máxima	17.9
25931	7	Sololá	701	Sololá	1	Sololá	5	Mayo	2023-05-26T00:00:00	2024-11-08T20:00:00	3	Temperatura mínima	17.1
25932	7	Sololá	701	Sololá	1	Sololá	5	Mayo	2023-05-26T00:00:00	2024-11-08T20:00:00	5	Humedad	92
25933	7	Sololá	701	Sololá	1	Sololá	5	Mayo	2023-05-26T00:00:00	2024-11-08T20:00:00	6	Velocidad del viento	0
25934	7	Sololá	701	Sololá	1	Sololá	5	Mayo	2023-05-26T00:00:00	2024-11-08T20:00:00	7	Dirección del viento	0
25935	7	Sololá	701	Sololá	1	Sololá	5	Mayo	2023-05-26T00:00:00	2024-11-08T20:00:00	1	Precipitación	0
25936	7	Sololá	701	Sololá	1	Sololá	5	Mayo	2023-05-26T00:00:00	2024-11-08T20:00:00	8	Radiación solar	0
25937	7	Sololá	701	Sololá	1	Sololá	5	Mayo	2023-05-26T00:00:00	2024-11-08T21:00:00	2	Temperatura media	17.2
25938	7	Sololá	701	Sololá	1	Sololá	5	Mayo	2023-05-26T00:00:00	2024-11-08T21:00:00	4	Temperatura máxima	17.3
25939	7	Sololá	701	Sololá	1	Sololá	5	Mayo	2023-05-26T00:00:00	2024-11-08T21:00:00	3	Temperatura mínima	16.6
25940	7	Sololá	701	Sololá	1	Sololá	5	Mayo	2023-05-26T00:00:00	2024-11-08T21:00:00	5	Humedad	77
25941	7	Sololá	701	Sololá	1	Sololá	5	Mayo	2023-05-26T00:00:00	2024-11-08T21:00:00	6	Velocidad del viento	1.6
25942	7	Sololá	701	Sololá	1	Sololá	5	Mayo	2023-05-26T00:00:00	2024-11-08T21:00:00	7	Dirección del viento	1.61
25943	7	Sololá	701	Sololá	1	Sololá	5	Mayo	2023-05-26T00:00:00	2024-11-08T21:00:00	1	Precipitación	0
25944	7	Sololá	701	Sololá	1	Sololá	5	Mayo	2023-05-26T00:00:00	2024-11-08T21:00:00	8	Radiación solar	0
25945	7	Sololá	701	Sololá	1	Sololá	5	Mayo	2023-05-26T00:00:00	2024-11-08T22:00:00	2	Temperatura media	16.3
25946	7	Sololá	701	Sololá	1	Sololá	5	Mayo	2023-05-26T00:00:00	2024-11-08T22:00:00	4	Temperatura máxima	17.4
25947	7	Sololá	701	Sololá	1	Sololá	5	Mayo	2023-05-26T00:00:00	2024-11-08T22:00:00	3	Temperatura mínima	16.3
25948	7	Sololá	701	Sololá	1	Sololá	5	Mayo	2023-05-26T00:00:00	2024-11-08T22:00:00	5	Humedad	78
25949	7	Sololá	701	Sololá	1	Sololá	5	Mayo	2023-05-26T00:00:00	2024-11-08T22:00:00	6	Velocidad del viento	3.2
25950	7	Sololá	701	Sololá	1	Sololá	5	Mayo	2023-05-26T00:00:00	2024-11-08T22:00:00	7	Dirección del viento	3.22
25951	7	Sololá	701	Sololá	1	Sololá	5	Mayo	2023-05-26T00:00:00	2024-11-08T22:00:00	1	Precipitación	0
25952	7	Sololá	701	Sololá	1	Sololá	5	Mayo	2023-05-26T00:00:00	2024-11-08T22:00:00	8	Radiación solar	0
25953	7	Sololá	701	Sololá	1	Sololá	5	Mayo	2023-05-26T00:00:00	2024-11-08T23:00:00	2	Temperatura media	15.9
25954	7	Sololá	701	Sololá	1	Sololá	5	Mayo	2023-05-26T00:00:00	2024-11-08T23:00:00	4	Temperatura máxima	16.3
25955	7	Sololá	701	Sololá	1	Sololá	5	Mayo	2023-05-26T00:00:00	2024-11-08T23:00:00	3	Temperatura mínima	15.8
25956	7	Sololá	701	Sololá	1	Sololá	5	Mayo	2023-05-26T00:00:00	2024-11-08T23:00:00	5	Humedad	82
25957	7	Sololá	701	Sololá	1	Sololá	5	Mayo	2023-05-26T00:00:00	2024-11-08T23:00:00	6	Velocidad del viento	1.6
25958	7	Sololá	701	Sololá	1	Sololá	5	Mayo	2023-05-26T00:00:00	2024-11-08T23:00:00	7	Dirección del viento	1.61
25959	7	Sololá	701	Sololá	1	Sololá	5	Mayo	2023-05-26T00:00:00	2024-11-08T23:00:00	1	Precipitación	0
25960	7	Sololá	701	Sololá	1	Sololá	5	Mayo	2023-05-26T00:00:00	2024-11-08T23:00:00	8	Radiación solar	0
25961	7	Sololá	701	Sololá	1	Sololá	5	Mayo	2023-05-27T00:00:00	2024-11-08T00:00:00	2	Temperatura media	15.3
25962	7	Sololá	701	Sololá	1	Sololá	5	Mayo	2023-05-27T00:00:00	2024-11-08T00:00:00	4	Temperatura máxima	16
25963	7	Sololá	701	Sololá	1	Sololá	5	Mayo	2023-05-27T00:00:00	2024-11-08T00:00:00	3	Temperatura mínima	15.3
25964	7	Sololá	701	Sololá	1	Sololá	5	Mayo	2023-05-27T00:00:00	2024-11-08T00:00:00	5	Humedad	80
25965	7	Sololá	701	Sololá	1	Sololá	5	Mayo	2023-05-27T00:00:00	2024-11-08T00:00:00	6	Velocidad del viento	1.6
25966	7	Sololá	701	Sololá	1	Sololá	5	Mayo	2023-05-27T00:00:00	2024-11-08T00:00:00	7	Dirección del viento	1.61
25967	7	Sololá	701	Sololá	1	Sololá	5	Mayo	2023-05-27T00:00:00	2024-11-08T00:00:00	1	Precipitación	0
25968	7	Sololá	701	Sololá	1	Sololá	5	Mayo	2023-05-27T00:00:00	2024-11-08T00:00:00	8	Radiación solar	0
25969	7	Sololá	701	Sololá	1	Sololá	5	Mayo	2023-05-27T00:00:00	2024-11-08T01:00:00	2	Temperatura media	14.1
25970	7	Sololá	701	Sololá	1	Sololá	5	Mayo	2023-05-27T00:00:00	2024-11-08T01:00:00	4	Temperatura máxima	15.4
25971	7	Sololá	701	Sololá	1	Sololá	5	Mayo	2023-05-27T00:00:00	2024-11-08T01:00:00	3	Temperatura mínima	13.9
25972	7	Sololá	701	Sololá	1	Sololá	5	Mayo	2023-05-27T00:00:00	2024-11-08T01:00:00	5	Humedad	76
25973	7	Sololá	701	Sololá	1	Sololá	5	Mayo	2023-05-27T00:00:00	2024-11-08T01:00:00	6	Velocidad del viento	6.4
25974	7	Sololá	701	Sololá	1	Sololá	5	Mayo	2023-05-27T00:00:00	2024-11-08T01:00:00	7	Dirección del viento	6.44
25975	7	Sololá	701	Sololá	1	Sololá	5	Mayo	2023-05-27T00:00:00	2024-11-08T01:00:00	1	Precipitación	0
25976	7	Sololá	701	Sololá	1	Sololá	5	Mayo	2023-05-27T00:00:00	2024-11-08T01:00:00	8	Radiación solar	0
25977	7	Sololá	701	Sololá	1	Sololá	5	Mayo	2023-05-27T00:00:00	2024-11-08T02:00:00	2	Temperatura media	13.3
25978	7	Sololá	701	Sololá	1	Sololá	5	Mayo	2023-05-27T00:00:00	2024-11-08T02:00:00	4	Temperatura máxima	14.3
25979	7	Sololá	701	Sololá	1	Sololá	5	Mayo	2023-05-27T00:00:00	2024-11-08T02:00:00	3	Temperatura mínima	13.2
25980	7	Sololá	701	Sololá	1	Sololá	5	Mayo	2023-05-27T00:00:00	2024-11-08T02:00:00	5	Humedad	80
25981	7	Sololá	701	Sololá	1	Sololá	5	Mayo	2023-05-27T00:00:00	2024-11-08T02:00:00	6	Velocidad del viento	4.8
25982	7	Sololá	701	Sololá	1	Sololá	5	Mayo	2023-05-27T00:00:00	2024-11-08T02:00:00	7	Dirección del viento	4.83
25983	7	Sololá	701	Sololá	1	Sololá	5	Mayo	2023-05-27T00:00:00	2024-11-08T02:00:00	1	Precipitación	0
25984	7	Sololá	701	Sololá	1	Sololá	5	Mayo	2023-05-27T00:00:00	2024-11-08T02:00:00	8	Radiación solar	0
25985	7	Sololá	701	Sololá	1	Sololá	5	Mayo	2023-05-27T00:00:00	2024-11-08T03:00:00	2	Temperatura media	13.1
25986	7	Sololá	701	Sololá	1	Sololá	5	Mayo	2023-05-27T00:00:00	2024-11-08T03:00:00	4	Temperatura máxima	14.3
25987	7	Sololá	701	Sololá	1	Sololá	5	Mayo	2023-05-27T00:00:00	2024-11-08T03:00:00	3	Temperatura mínima	12.9
25988	7	Sololá	701	Sololá	1	Sololá	5	Mayo	2023-05-27T00:00:00	2024-11-08T03:00:00	5	Humedad	79
25989	7	Sololá	701	Sololá	1	Sololá	5	Mayo	2023-05-27T00:00:00	2024-11-08T03:00:00	6	Velocidad del viento	6.4
25990	7	Sololá	701	Sololá	1	Sololá	5	Mayo	2023-05-27T00:00:00	2024-11-08T03:00:00	7	Dirección del viento	6.44
25991	7	Sololá	701	Sololá	1	Sololá	5	Mayo	2023-05-27T00:00:00	2024-11-08T03:00:00	1	Precipitación	0
25992	7	Sololá	701	Sololá	1	Sololá	5	Mayo	2023-05-27T00:00:00	2024-11-08T03:00:00	8	Radiación solar	0
25993	7	Sololá	701	Sololá	1	Sololá	5	Mayo	2023-05-27T00:00:00	2024-11-08T04:00:00	2	Temperatura media	12.9
25994	7	Sololá	701	Sololá	1	Sololá	5	Mayo	2023-05-27T00:00:00	2024-11-08T04:00:00	4	Temperatura máxima	15.1
25995	7	Sololá	701	Sololá	1	Sololá	5	Mayo	2023-05-27T00:00:00	2024-11-08T04:00:00	3	Temperatura mínima	12.6
25996	7	Sololá	701	Sololá	1	Sololá	5	Mayo	2023-05-27T00:00:00	2024-11-08T04:00:00	5	Humedad	76
25997	7	Sololá	701	Sololá	1	Sololá	5	Mayo	2023-05-27T00:00:00	2024-11-08T04:00:00	6	Velocidad del viento	8
25998	7	Sololá	701	Sololá	1	Sololá	5	Mayo	2023-05-27T00:00:00	2024-11-08T04:00:00	7	Dirección del viento	8.05
25999	7	Sololá	701	Sololá	1	Sololá	5	Mayo	2023-05-27T00:00:00	2024-11-08T04:00:00	1	Precipitación	0
26000	7	Sololá	701	Sololá	1	Sololá	5	Mayo	2023-05-27T00:00:00	2024-11-08T04:00:00	8	Radiación solar	0
26001	7	Sololá	701	Sololá	1	Sololá	5	Mayo	2023-05-27T00:00:00	2024-11-08T05:00:00	2	Temperatura media	13.4
26002	7	Sololá	701	Sololá	1	Sololá	5	Mayo	2023-05-27T00:00:00	2024-11-08T05:00:00	4	Temperatura máxima	13.6
26003	7	Sololá	701	Sololá	1	Sololá	5	Mayo	2023-05-27T00:00:00	2024-11-08T05:00:00	3	Temperatura mínima	12.9
26004	7	Sololá	701	Sololá	1	Sololá	5	Mayo	2023-05-27T00:00:00	2024-11-08T05:00:00	5	Humedad	80
26005	7	Sololá	701	Sololá	1	Sololá	5	Mayo	2023-05-27T00:00:00	2024-11-08T05:00:00	6	Velocidad del viento	1.6
26006	7	Sololá	701	Sololá	1	Sololá	5	Mayo	2023-05-27T00:00:00	2024-11-08T05:00:00	7	Dirección del viento	1.61
26007	7	Sololá	701	Sololá	1	Sololá	5	Mayo	2023-05-27T00:00:00	2024-11-08T05:00:00	1	Precipitación	0
26008	7	Sololá	701	Sololá	1	Sololá	5	Mayo	2023-05-27T00:00:00	2024-11-08T05:00:00	8	Radiación solar	0
26009	7	Sololá	701	Sololá	1	Sololá	5	Mayo	2023-05-27T00:00:00	2024-11-08T06:00:00	2	Temperatura media	13.6
26010	7	Sololá	701	Sololá	1	Sololá	5	Mayo	2023-05-27T00:00:00	2024-11-08T06:00:00	4	Temperatura máxima	13.7
26011	7	Sololá	701	Sololá	1	Sololá	5	Mayo	2023-05-27T00:00:00	2024-11-08T06:00:00	3	Temperatura mínima	12.7
26012	7	Sololá	701	Sololá	1	Sololá	5	Mayo	2023-05-27T00:00:00	2024-11-08T06:00:00	5	Humedad	80
26013	7	Sololá	701	Sololá	1	Sololá	5	Mayo	2023-05-27T00:00:00	2024-11-08T06:00:00	6	Velocidad del viento	3.2
26014	7	Sololá	701	Sololá	1	Sololá	5	Mayo	2023-05-27T00:00:00	2024-11-08T06:00:00	7	Dirección del viento	3.22
26015	7	Sololá	701	Sololá	1	Sololá	5	Mayo	2023-05-27T00:00:00	2024-11-08T06:00:00	1	Precipitación	0
26016	7	Sololá	701	Sololá	1	Sololá	5	Mayo	2023-05-27T00:00:00	2024-11-08T06:00:00	8	Radiación solar	3
26017	7	Sololá	701	Sololá	1	Sololá	5	Mayo	2023-05-27T00:00:00	2024-11-08T07:00:00	2	Temperatura media	14.1
26018	7	Sololá	701	Sololá	1	Sololá	5	Mayo	2023-05-27T00:00:00	2024-11-08T07:00:00	4	Temperatura máxima	14.1
26019	7	Sololá	701	Sololá	1	Sololá	5	Mayo	2023-05-27T00:00:00	2024-11-08T07:00:00	3	Temperatura mínima	12.6
26020	7	Sololá	701	Sololá	1	Sololá	5	Mayo	2023-05-27T00:00:00	2024-11-08T07:00:00	5	Humedad	77
26021	7	Sololá	701	Sololá	1	Sololá	5	Mayo	2023-05-27T00:00:00	2024-11-08T07:00:00	6	Velocidad del viento	4.8
26022	7	Sololá	701	Sololá	1	Sololá	5	Mayo	2023-05-27T00:00:00	2024-11-08T07:00:00	7	Dirección del viento	4.83
26023	7	Sololá	701	Sololá	1	Sololá	5	Mayo	2023-05-27T00:00:00	2024-11-08T07:00:00	1	Precipitación	0
26024	7	Sololá	701	Sololá	1	Sololá	5	Mayo	2023-05-27T00:00:00	2024-11-08T07:00:00	8	Radiación solar	44
26025	7	Sololá	701	Sololá	1	Sololá	5	Mayo	2023-05-27T00:00:00	2024-11-08T08:00:00	2	Temperatura media	16.4
26026	7	Sololá	701	Sololá	1	Sololá	5	Mayo	2023-05-27T00:00:00	2024-11-08T08:00:00	4	Temperatura máxima	16.4
26027	7	Sololá	701	Sololá	1	Sololá	5	Mayo	2023-05-27T00:00:00	2024-11-08T08:00:00	3	Temperatura mínima	14
26028	7	Sololá	701	Sololá	1	Sololá	5	Mayo	2023-05-27T00:00:00	2024-11-08T08:00:00	5	Humedad	70
26029	7	Sololá	701	Sololá	1	Sololá	5	Mayo	2023-05-27T00:00:00	2024-11-08T08:00:00	6	Velocidad del viento	6.4
26030	7	Sololá	701	Sololá	1	Sololá	5	Mayo	2023-05-27T00:00:00	2024-11-08T08:00:00	7	Dirección del viento	6.44
26031	7	Sololá	701	Sololá	1	Sololá	5	Mayo	2023-05-27T00:00:00	2024-11-08T08:00:00	1	Precipitación	0
26032	7	Sololá	701	Sololá	1	Sololá	5	Mayo	2023-05-27T00:00:00	2024-11-08T08:00:00	8	Radiación solar	131
26033	7	Sololá	701	Sololá	1	Sololá	5	Mayo	2023-05-27T00:00:00	2024-11-08T09:00:00	2	Temperatura media	17.2
26034	7	Sololá	701	Sololá	1	Sololá	5	Mayo	2023-05-27T00:00:00	2024-11-08T09:00:00	4	Temperatura máxima	17.3
26035	7	Sololá	701	Sololá	1	Sololá	5	Mayo	2023-05-27T00:00:00	2024-11-08T09:00:00	3	Temperatura mínima	16.4
26036	7	Sololá	701	Sololá	1	Sololá	5	Mayo	2023-05-27T00:00:00	2024-11-08T09:00:00	5	Humedad	71
26037	7	Sololá	701	Sololá	1	Sololá	5	Mayo	2023-05-27T00:00:00	2024-11-08T09:00:00	6	Velocidad del viento	0
26038	7	Sololá	701	Sololá	1	Sololá	5	Mayo	2023-05-27T00:00:00	2024-11-08T09:00:00	7	Dirección del viento	0
26039	7	Sololá	701	Sololá	1	Sololá	5	Mayo	2023-05-27T00:00:00	2024-11-08T09:00:00	1	Precipitación	0
26040	7	Sololá	701	Sololá	1	Sololá	5	Mayo	2023-05-27T00:00:00	2024-11-08T09:00:00	8	Radiación solar	392
26041	7	Sololá	701	Sololá	1	Sololá	5	Mayo	2023-05-27T00:00:00	2024-11-08T10:00:00	2	Temperatura media	18.3
26042	7	Sololá	701	Sololá	1	Sololá	5	Mayo	2023-05-27T00:00:00	2024-11-08T10:00:00	4	Temperatura máxima	18.3
26043	7	Sololá	701	Sololá	1	Sololá	5	Mayo	2023-05-27T00:00:00	2024-11-08T10:00:00	3	Temperatura mínima	17.2
26044	7	Sololá	701	Sololá	1	Sololá	5	Mayo	2023-05-27T00:00:00	2024-11-08T10:00:00	5	Humedad	71
26045	7	Sololá	701	Sololá	1	Sololá	5	Mayo	2023-05-27T00:00:00	2024-11-08T10:00:00	6	Velocidad del viento	1.6
26046	7	Sololá	701	Sololá	1	Sololá	5	Mayo	2023-05-27T00:00:00	2024-11-08T10:00:00	7	Dirección del viento	1.61
26047	7	Sololá	701	Sololá	1	Sololá	5	Mayo	2023-05-27T00:00:00	2024-11-08T10:00:00	1	Precipitación	0
26048	7	Sololá	701	Sololá	1	Sololá	5	Mayo	2023-05-27T00:00:00	2024-11-08T10:00:00	8	Radiación solar	577
26049	7	Sololá	701	Sololá	1	Sololá	5	Mayo	2023-05-27T00:00:00	2024-11-08T11:00:00	2	Temperatura media	19.7
26050	7	Sololá	701	Sololá	1	Sololá	5	Mayo	2023-05-27T00:00:00	2024-11-08T11:00:00	4	Temperatura máxima	19.7
26051	7	Sololá	701	Sololá	1	Sololá	5	Mayo	2023-05-27T00:00:00	2024-11-08T11:00:00	3	Temperatura mínima	18.2
26052	7	Sololá	701	Sololá	1	Sololá	5	Mayo	2023-05-27T00:00:00	2024-11-08T11:00:00	5	Humedad	60
26053	7	Sololá	701	Sololá	1	Sololá	5	Mayo	2023-05-27T00:00:00	2024-11-08T11:00:00	6	Velocidad del viento	3.2
26054	7	Sololá	701	Sololá	1	Sololá	5	Mayo	2023-05-27T00:00:00	2024-11-08T11:00:00	7	Dirección del viento	3.22
26055	7	Sololá	701	Sololá	1	Sololá	5	Mayo	2023-05-27T00:00:00	2024-11-08T11:00:00	1	Precipitación	0
26056	7	Sololá	701	Sololá	1	Sololá	5	Mayo	2023-05-27T00:00:00	2024-11-08T11:00:00	8	Radiación solar	811
26057	7	Sololá	701	Sololá	1	Sololá	5	Mayo	2023-05-27T00:00:00	2024-11-08T12:00:00	2	Temperatura media	20.8
26058	7	Sololá	701	Sololá	1	Sololá	5	Mayo	2023-05-27T00:00:00	2024-11-08T12:00:00	4	Temperatura máxima	21
26059	7	Sololá	701	Sololá	1	Sololá	5	Mayo	2023-05-27T00:00:00	2024-11-08T12:00:00	3	Temperatura mínima	19.8
26060	7	Sololá	701	Sololá	1	Sololá	5	Mayo	2023-05-27T00:00:00	2024-11-08T12:00:00	5	Humedad	61
26061	7	Sololá	701	Sololá	1	Sololá	5	Mayo	2023-05-27T00:00:00	2024-11-08T12:00:00	6	Velocidad del viento	6.4
26062	7	Sololá	701	Sololá	1	Sololá	5	Mayo	2023-05-27T00:00:00	2024-11-08T12:00:00	7	Dirección del viento	6.44
26063	7	Sololá	701	Sololá	1	Sololá	5	Mayo	2023-05-27T00:00:00	2024-11-08T12:00:00	1	Precipitación	0
26064	7	Sololá	701	Sololá	1	Sololá	5	Mayo	2023-05-27T00:00:00	2024-11-08T12:00:00	8	Radiación solar	946
26065	7	Sololá	701	Sololá	1	Sololá	5	Mayo	2023-05-27T00:00:00	2024-11-08T13:00:00	2	Temperatura media	20.7
26066	7	Sololá	701	Sololá	1	Sololá	5	Mayo	2023-05-27T00:00:00	2024-11-08T13:00:00	4	Temperatura máxima	21.6
26067	7	Sololá	701	Sololá	1	Sololá	5	Mayo	2023-05-27T00:00:00	2024-11-08T13:00:00	3	Temperatura mínima	20.7
26068	7	Sololá	701	Sololá	1	Sololá	5	Mayo	2023-05-27T00:00:00	2024-11-08T13:00:00	5	Humedad	68
26069	7	Sololá	701	Sololá	1	Sololá	5	Mayo	2023-05-27T00:00:00	2024-11-08T13:00:00	6	Velocidad del viento	6.4
26070	7	Sololá	701	Sololá	1	Sololá	5	Mayo	2023-05-27T00:00:00	2024-11-08T13:00:00	7	Dirección del viento	6.44
26071	7	Sololá	701	Sololá	1	Sololá	5	Mayo	2023-05-27T00:00:00	2024-11-08T13:00:00	1	Precipitación	0
26072	7	Sololá	701	Sololá	1	Sololá	5	Mayo	2023-05-27T00:00:00	2024-11-08T13:00:00	8	Radiación solar	117
26073	7	Sololá	701	Sololá	1	Sololá	5	Mayo	2023-05-27T00:00:00	2024-11-08T14:00:00	2	Temperatura media	20.2
26074	7	Sololá	701	Sololá	1	Sololá	5	Mayo	2023-05-27T00:00:00	2024-11-08T14:00:00	4	Temperatura máxima	20.7
26075	7	Sololá	701	Sololá	1	Sololá	5	Mayo	2023-05-27T00:00:00	2024-11-08T14:00:00	3	Temperatura mínima	19.8
26076	7	Sololá	701	Sololá	1	Sololá	5	Mayo	2023-05-27T00:00:00	2024-11-08T14:00:00	5	Humedad	70
26077	7	Sololá	701	Sololá	1	Sololá	5	Mayo	2023-05-27T00:00:00	2024-11-08T14:00:00	6	Velocidad del viento	4.8
26078	7	Sololá	701	Sololá	1	Sololá	5	Mayo	2023-05-27T00:00:00	2024-11-08T14:00:00	7	Dirección del viento	4.83
26079	7	Sololá	701	Sololá	1	Sololá	5	Mayo	2023-05-27T00:00:00	2024-11-08T14:00:00	1	Precipitación	0
26080	7	Sololá	701	Sololá	1	Sololá	5	Mayo	2023-05-27T00:00:00	2024-11-08T14:00:00	8	Radiación solar	109
26081	7	Sololá	701	Sololá	1	Sololá	5	Mayo	2023-05-27T00:00:00	2024-11-08T15:00:00	2	Temperatura media	20.3
26082	7	Sololá	701	Sololá	1	Sololá	5	Mayo	2023-05-27T00:00:00	2024-11-08T15:00:00	4	Temperatura máxima	20.6
26083	7	Sololá	701	Sololá	1	Sololá	5	Mayo	2023-05-27T00:00:00	2024-11-08T15:00:00	3	Temperatura mínima	20.1
26084	7	Sololá	701	Sololá	1	Sololá	5	Mayo	2023-05-27T00:00:00	2024-11-08T15:00:00	5	Humedad	73
26085	7	Sololá	701	Sololá	1	Sololá	5	Mayo	2023-05-27T00:00:00	2024-11-08T15:00:00	6	Velocidad del viento	4.8
26086	7	Sololá	701	Sololá	1	Sololá	5	Mayo	2023-05-27T00:00:00	2024-11-08T15:00:00	7	Dirección del viento	4.83
26087	7	Sololá	701	Sololá	1	Sololá	5	Mayo	2023-05-27T00:00:00	2024-11-08T15:00:00	1	Precipitación	0
26088	7	Sololá	701	Sololá	1	Sololá	5	Mayo	2023-05-27T00:00:00	2024-11-08T15:00:00	8	Radiación solar	64
26089	7	Sololá	701	Sololá	1	Sololá	5	Mayo	2023-05-27T00:00:00	2024-11-08T16:00:00	2	Temperatura media	19.9
26090	7	Sololá	701	Sololá	1	Sololá	5	Mayo	2023-05-27T00:00:00	2024-11-08T16:00:00	4	Temperatura máxima	20.7
26091	7	Sololá	701	Sololá	1	Sololá	5	Mayo	2023-05-27T00:00:00	2024-11-08T16:00:00	3	Temperatura mínima	19.9
26092	7	Sololá	701	Sololá	1	Sololá	5	Mayo	2023-05-27T00:00:00	2024-11-08T16:00:00	5	Humedad	78
26093	7	Sololá	701	Sololá	1	Sololá	5	Mayo	2023-05-27T00:00:00	2024-11-08T16:00:00	6	Velocidad del viento	4.8
26094	7	Sololá	701	Sololá	1	Sololá	5	Mayo	2023-05-27T00:00:00	2024-11-08T16:00:00	7	Dirección del viento	4.83
26095	7	Sololá	701	Sololá	1	Sololá	5	Mayo	2023-05-27T00:00:00	2024-11-08T16:00:00	1	Precipitación	0
26096	7	Sololá	701	Sololá	1	Sololá	5	Mayo	2023-05-27T00:00:00	2024-11-08T16:00:00	8	Radiación solar	24
26097	7	Sololá	701	Sololá	1	Sololá	5	Mayo	2023-05-27T00:00:00	2024-11-08T17:00:00	2	Temperatura media	18.6
26098	7	Sololá	701	Sololá	1	Sololá	5	Mayo	2023-05-27T00:00:00	2024-11-08T17:00:00	4	Temperatura máxima	20
26099	7	Sololá	701	Sololá	1	Sololá	5	Mayo	2023-05-27T00:00:00	2024-11-08T17:00:00	3	Temperatura mínima	18.6
26100	7	Sololá	701	Sololá	1	Sololá	5	Mayo	2023-05-27T00:00:00	2024-11-08T17:00:00	5	Humedad	86
26101	7	Sololá	701	Sololá	1	Sololá	5	Mayo	2023-05-27T00:00:00	2024-11-08T17:00:00	6	Velocidad del viento	4.8
26102	7	Sololá	701	Sololá	1	Sololá	5	Mayo	2023-05-27T00:00:00	2024-11-08T17:00:00	7	Dirección del viento	4.83
26103	7	Sololá	701	Sololá	1	Sololá	5	Mayo	2023-05-27T00:00:00	2024-11-08T17:00:00	1	Precipitación	0
26104	7	Sololá	701	Sololá	1	Sololá	5	Mayo	2023-05-27T00:00:00	2024-11-08T17:00:00	8	Radiación solar	20
26105	7	Sololá	701	Sololá	1	Sololá	5	Mayo	2023-05-27T00:00:00	2024-11-08T18:00:00	2	Temperatura media	18.1
26106	7	Sololá	701	Sololá	1	Sololá	5	Mayo	2023-05-27T00:00:00	2024-11-08T18:00:00	4	Temperatura máxima	18.9
26107	7	Sololá	701	Sololá	1	Sololá	5	Mayo	2023-05-27T00:00:00	2024-11-08T18:00:00	3	Temperatura mínima	18.1
26108	7	Sololá	701	Sololá	1	Sololá	5	Mayo	2023-05-27T00:00:00	2024-11-08T18:00:00	5	Humedad	88
26109	7	Sololá	701	Sololá	1	Sololá	5	Mayo	2023-05-27T00:00:00	2024-11-08T18:00:00	6	Velocidad del viento	3.2
26110	7	Sololá	701	Sololá	1	Sololá	5	Mayo	2023-05-27T00:00:00	2024-11-08T18:00:00	7	Dirección del viento	3.22
26111	7	Sololá	701	Sololá	1	Sololá	5	Mayo	2023-05-27T00:00:00	2024-11-08T18:00:00	1	Precipitación	0
26112	7	Sololá	701	Sololá	1	Sololá	5	Mayo	2023-05-27T00:00:00	2024-11-08T18:00:00	8	Radiación solar	12
26113	7	Sololá	701	Sololá	1	Sololá	5	Mayo	2023-05-27T00:00:00	2024-11-08T19:00:00	2	Temperatura media	17.2
26114	7	Sololá	701	Sololá	1	Sololá	5	Mayo	2023-05-27T00:00:00	2024-11-08T19:00:00	4	Temperatura máxima	18.1
26115	7	Sololá	701	Sololá	1	Sololá	5	Mayo	2023-05-27T00:00:00	2024-11-08T19:00:00	3	Temperatura mínima	17.2
26116	7	Sololá	701	Sololá	1	Sololá	5	Mayo	2023-05-27T00:00:00	2024-11-08T19:00:00	5	Humedad	92
26117	7	Sololá	701	Sololá	1	Sololá	5	Mayo	2023-05-27T00:00:00	2024-11-08T19:00:00	6	Velocidad del viento	1.6
26118	7	Sololá	701	Sololá	1	Sololá	5	Mayo	2023-05-27T00:00:00	2024-11-08T19:00:00	7	Dirección del viento	1.61
26119	7	Sololá	701	Sololá	1	Sololá	5	Mayo	2023-05-27T00:00:00	2024-11-08T19:00:00	1	Precipitación	0.4
26120	7	Sololá	701	Sololá	1	Sololá	5	Mayo	2023-05-27T00:00:00	2024-11-08T19:00:00	8	Radiación solar	0
26121	7	Sololá	701	Sololá	1	Sololá	5	Mayo	2023-05-27T00:00:00	2024-11-08T20:00:00	2	Temperatura media	15.8
26122	7	Sololá	701	Sololá	1	Sololá	5	Mayo	2023-05-27T00:00:00	2024-11-08T20:00:00	4	Temperatura máxima	17.2
26123	7	Sololá	701	Sololá	1	Sololá	5	Mayo	2023-05-27T00:00:00	2024-11-08T20:00:00	3	Temperatura mínima	15.8
26124	7	Sololá	701	Sololá	1	Sololá	5	Mayo	2023-05-27T00:00:00	2024-11-08T20:00:00	5	Humedad	94
26125	7	Sololá	701	Sololá	1	Sololá	5	Mayo	2023-05-27T00:00:00	2024-11-08T20:00:00	6	Velocidad del viento	3.2
26126	7	Sololá	701	Sololá	1	Sololá	5	Mayo	2023-05-27T00:00:00	2024-11-08T20:00:00	7	Dirección del viento	3.22
26127	7	Sololá	701	Sololá	1	Sololá	5	Mayo	2023-05-27T00:00:00	2024-11-08T20:00:00	1	Precipitación	7.2
26128	7	Sololá	701	Sololá	1	Sololá	5	Mayo	2023-05-27T00:00:00	2024-11-08T20:00:00	8	Radiación solar	0
26129	7	Sololá	701	Sololá	1	Sololá	5	Mayo	2023-05-27T00:00:00	2024-11-08T21:00:00	2	Temperatura media	15.8
26130	7	Sololá	701	Sololá	1	Sololá	5	Mayo	2023-05-27T00:00:00	2024-11-08T21:00:00	4	Temperatura máxima	16.1
26131	7	Sololá	701	Sololá	1	Sololá	5	Mayo	2023-05-27T00:00:00	2024-11-08T21:00:00	3	Temperatura mínima	15.5
26132	7	Sololá	701	Sololá	1	Sololá	5	Mayo	2023-05-27T00:00:00	2024-11-08T21:00:00	5	Humedad	95
26133	7	Sololá	701	Sololá	1	Sololá	5	Mayo	2023-05-27T00:00:00	2024-11-08T21:00:00	6	Velocidad del viento	1.6
26134	7	Sololá	701	Sololá	1	Sololá	5	Mayo	2023-05-27T00:00:00	2024-11-08T21:00:00	7	Dirección del viento	1.61
26135	7	Sololá	701	Sololá	1	Sololá	5	Mayo	2023-05-27T00:00:00	2024-11-08T21:00:00	1	Precipitación	13.4
26136	7	Sololá	701	Sololá	1	Sololá	5	Mayo	2023-05-27T00:00:00	2024-11-08T21:00:00	8	Radiación solar	0
26137	7	Sololá	701	Sololá	1	Sololá	5	Mayo	2023-05-27T00:00:00	2024-11-08T22:00:00	2	Temperatura media	16.1
26138	7	Sololá	701	Sololá	1	Sololá	5	Mayo	2023-05-27T00:00:00	2024-11-08T22:00:00	4	Temperatura máxima	16.1
26139	7	Sololá	701	Sololá	1	Sololá	5	Mayo	2023-05-27T00:00:00	2024-11-08T22:00:00	3	Temperatura mínima	15.8
26140	7	Sololá	701	Sololá	1	Sololá	5	Mayo	2023-05-27T00:00:00	2024-11-08T22:00:00	5	Humedad	95
26141	7	Sololá	701	Sololá	1	Sololá	5	Mayo	2023-05-27T00:00:00	2024-11-08T22:00:00	6	Velocidad del viento	0
26142	7	Sololá	701	Sololá	1	Sololá	5	Mayo	2023-05-27T00:00:00	2024-11-08T22:00:00	7	Dirección del viento	0
26143	7	Sololá	701	Sololá	1	Sololá	5	Mayo	2023-05-27T00:00:00	2024-11-08T22:00:00	1	Precipitación	1.2
26144	7	Sololá	701	Sololá	1	Sololá	5	Mayo	2023-05-27T00:00:00	2024-11-08T22:00:00	8	Radiación solar	0
26145	7	Sololá	701	Sololá	1	Sololá	5	Mayo	2023-05-27T00:00:00	2024-11-08T23:00:00	2	Temperatura media	15
26146	7	Sololá	701	Sololá	1	Sololá	5	Mayo	2023-05-27T00:00:00	2024-11-08T23:00:00	4	Temperatura máxima	16.1
26147	7	Sololá	701	Sololá	1	Sololá	5	Mayo	2023-05-27T00:00:00	2024-11-08T23:00:00	3	Temperatura mínima	15
26148	7	Sololá	701	Sololá	1	Sololá	5	Mayo	2023-05-27T00:00:00	2024-11-08T23:00:00	5	Humedad	94
26149	7	Sololá	701	Sololá	1	Sololá	5	Mayo	2023-05-27T00:00:00	2024-11-08T23:00:00	6	Velocidad del viento	0
26150	7	Sololá	701	Sololá	1	Sololá	5	Mayo	2023-05-27T00:00:00	2024-11-08T23:00:00	7	Dirección del viento	0
26151	7	Sololá	701	Sololá	1	Sololá	5	Mayo	2023-05-27T00:00:00	2024-11-08T23:00:00	1	Precipitación	3.8
26152	7	Sololá	701	Sololá	1	Sololá	5	Mayo	2023-05-27T00:00:00	2024-11-08T23:00:00	8	Radiación solar	0
26153	7	Sololá	701	Sololá	1	Sololá	5	Mayo	2023-05-28T00:00:00	2024-11-08T00:00:00	2	Temperatura media	14.7
26154	7	Sololá	701	Sololá	1	Sololá	5	Mayo	2023-05-28T00:00:00	2024-11-08T00:00:00	4	Temperatura máxima	15
26155	7	Sololá	701	Sololá	1	Sololá	5	Mayo	2023-05-28T00:00:00	2024-11-08T00:00:00	3	Temperatura mínima	14.4
26156	7	Sololá	701	Sololá	1	Sololá	5	Mayo	2023-05-28T00:00:00	2024-11-08T00:00:00	5	Humedad	90
26157	7	Sololá	701	Sololá	1	Sololá	5	Mayo	2023-05-28T00:00:00	2024-11-08T00:00:00	6	Velocidad del viento	6.4
26158	7	Sololá	701	Sololá	1	Sololá	5	Mayo	2023-05-28T00:00:00	2024-11-08T00:00:00	7	Dirección del viento	6.44
26159	7	Sololá	701	Sololá	1	Sololá	5	Mayo	2023-05-28T00:00:00	2024-11-08T00:00:00	1	Precipitación	5.8
26160	7	Sololá	701	Sololá	1	Sololá	5	Mayo	2023-05-28T00:00:00	2024-11-08T00:00:00	8	Radiación solar	0
26161	7	Sololá	701	Sololá	1	Sololá	5	Mayo	2023-05-28T00:00:00	2024-11-08T01:00:00	2	Temperatura media	14.6
26162	7	Sololá	701	Sololá	1	Sololá	5	Mayo	2023-05-28T00:00:00	2024-11-08T01:00:00	4	Temperatura máxima	14.8
26163	7	Sololá	701	Sololá	1	Sololá	5	Mayo	2023-05-28T00:00:00	2024-11-08T01:00:00	3	Temperatura mínima	14.3
26164	7	Sololá	701	Sololá	1	Sololá	5	Mayo	2023-05-28T00:00:00	2024-11-08T01:00:00	5	Humedad	90
26165	7	Sololá	701	Sololá	1	Sololá	5	Mayo	2023-05-28T00:00:00	2024-11-08T01:00:00	6	Velocidad del viento	3.2
26166	7	Sololá	701	Sololá	1	Sololá	5	Mayo	2023-05-28T00:00:00	2024-11-08T01:00:00	7	Dirección del viento	3.22
26167	7	Sololá	701	Sololá	1	Sololá	5	Mayo	2023-05-28T00:00:00	2024-11-08T01:00:00	1	Precipitación	0
26168	7	Sololá	701	Sololá	1	Sololá	5	Mayo	2023-05-28T00:00:00	2024-11-08T01:00:00	8	Radiación solar	0
26169	7	Sololá	701	Sololá	1	Sololá	5	Mayo	2023-05-28T00:00:00	2024-11-08T02:00:00	2	Temperatura media	14.6
26170	7	Sololá	701	Sololá	1	Sololá	5	Mayo	2023-05-28T00:00:00	2024-11-08T02:00:00	4	Temperatura máxima	14.7
26171	7	Sololá	701	Sololá	1	Sololá	5	Mayo	2023-05-28T00:00:00	2024-11-08T02:00:00	3	Temperatura mínima	14.3
26172	7	Sololá	701	Sololá	1	Sololá	5	Mayo	2023-05-28T00:00:00	2024-11-08T02:00:00	5	Humedad	88
26173	7	Sololá	701	Sololá	1	Sololá	5	Mayo	2023-05-28T00:00:00	2024-11-08T02:00:00	6	Velocidad del viento	6.4
26174	7	Sololá	701	Sololá	1	Sololá	5	Mayo	2023-05-28T00:00:00	2024-11-08T02:00:00	7	Dirección del viento	6.44
26175	7	Sololá	701	Sololá	1	Sololá	5	Mayo	2023-05-28T00:00:00	2024-11-08T02:00:00	1	Precipitación	0
26176	7	Sololá	701	Sololá	1	Sololá	5	Mayo	2023-05-28T00:00:00	2024-11-08T02:00:00	8	Radiación solar	0
26177	7	Sololá	701	Sololá	1	Sololá	5	Mayo	2023-05-28T00:00:00	2024-11-08T03:00:00	2	Temperatura media	14.4
26178	7	Sololá	701	Sololá	1	Sololá	5	Mayo	2023-05-28T00:00:00	2024-11-08T03:00:00	4	Temperatura máxima	14.7
26179	7	Sololá	701	Sololá	1	Sololá	5	Mayo	2023-05-28T00:00:00	2024-11-08T03:00:00	3	Temperatura mínima	14.4
26180	7	Sololá	701	Sololá	1	Sololá	5	Mayo	2023-05-28T00:00:00	2024-11-08T03:00:00	5	Humedad	91
26181	7	Sololá	701	Sololá	1	Sololá	5	Mayo	2023-05-28T00:00:00	2024-11-08T03:00:00	6	Velocidad del viento	4.8
26182	7	Sololá	701	Sololá	1	Sololá	5	Mayo	2023-05-28T00:00:00	2024-11-08T03:00:00	7	Dirección del viento	4.83
26183	7	Sololá	701	Sololá	1	Sololá	5	Mayo	2023-05-28T00:00:00	2024-11-08T03:00:00	1	Precipitación	0.2
26184	7	Sololá	701	Sololá	1	Sololá	5	Mayo	2023-05-28T00:00:00	2024-11-08T03:00:00	8	Radiación solar	0
26185	7	Sololá	701	Sololá	1	Sololá	5	Mayo	2023-05-28T00:00:00	2024-11-08T04:00:00	2	Temperatura media	14.2
26186	7	Sololá	701	Sololá	1	Sololá	5	Mayo	2023-05-28T00:00:00	2024-11-08T04:00:00	4	Temperatura máxima	14.4
26187	7	Sololá	701	Sololá	1	Sololá	5	Mayo	2023-05-28T00:00:00	2024-11-08T04:00:00	3	Temperatura mínima	14.2
26188	7	Sololá	701	Sololá	1	Sololá	5	Mayo	2023-05-28T00:00:00	2024-11-08T04:00:00	5	Humedad	92
26189	7	Sololá	701	Sololá	1	Sololá	5	Mayo	2023-05-28T00:00:00	2024-11-08T04:00:00	6	Velocidad del viento	4.8
26190	7	Sololá	701	Sololá	1	Sololá	5	Mayo	2023-05-28T00:00:00	2024-11-08T04:00:00	7	Dirección del viento	4.83
26191	7	Sololá	701	Sololá	1	Sololá	5	Mayo	2023-05-28T00:00:00	2024-11-08T04:00:00	1	Precipitación	0.2
26192	7	Sololá	701	Sololá	1	Sololá	5	Mayo	2023-05-28T00:00:00	2024-11-08T04:00:00	8	Radiación solar	0
26193	7	Sololá	701	Sololá	1	Sololá	5	Mayo	2023-05-28T00:00:00	2024-11-08T05:00:00	2	Temperatura media	14.4
26194	7	Sololá	701	Sololá	1	Sololá	5	Mayo	2023-05-28T00:00:00	2024-11-08T05:00:00	4	Temperatura máxima	14.4
26195	7	Sololá	701	Sololá	1	Sololá	5	Mayo	2023-05-28T00:00:00	2024-11-08T05:00:00	3	Temperatura mínima	14.2
26196	7	Sololá	701	Sololá	1	Sololá	5	Mayo	2023-05-28T00:00:00	2024-11-08T05:00:00	5	Humedad	92
26197	7	Sololá	701	Sololá	1	Sololá	5	Mayo	2023-05-28T00:00:00	2024-11-08T05:00:00	6	Velocidad del viento	1.6
26198	7	Sololá	701	Sololá	1	Sololá	5	Mayo	2023-05-28T00:00:00	2024-11-08T05:00:00	7	Dirección del viento	1.61
26199	7	Sololá	701	Sololá	1	Sololá	5	Mayo	2023-05-28T00:00:00	2024-11-08T05:00:00	1	Precipitación	0
26200	7	Sololá	701	Sololá	1	Sololá	5	Mayo	2023-05-28T00:00:00	2024-11-08T05:00:00	8	Radiación solar	0
26201	7	Sololá	701	Sololá	1	Sololá	5	Mayo	2023-05-28T00:00:00	2024-11-08T06:00:00	2	Temperatura media	14.6
26202	7	Sololá	701	Sololá	1	Sololá	5	Mayo	2023-05-28T00:00:00	2024-11-08T06:00:00	4	Temperatura máxima	14.7
26203	7	Sololá	701	Sololá	1	Sololá	5	Mayo	2023-05-28T00:00:00	2024-11-08T06:00:00	3	Temperatura mínima	14.4
26204	7	Sololá	701	Sololá	1	Sololá	5	Mayo	2023-05-28T00:00:00	2024-11-08T06:00:00	5	Humedad	92
26205	7	Sololá	701	Sololá	1	Sololá	5	Mayo	2023-05-28T00:00:00	2024-11-08T06:00:00	6	Velocidad del viento	0
26206	7	Sololá	701	Sololá	1	Sololá	5	Mayo	2023-05-28T00:00:00	2024-11-08T06:00:00	7	Dirección del viento	0
26207	7	Sololá	701	Sololá	1	Sololá	5	Mayo	2023-05-28T00:00:00	2024-11-08T06:00:00	1	Precipitación	0
26208	7	Sololá	701	Sololá	1	Sololá	5	Mayo	2023-05-28T00:00:00	2024-11-08T06:00:00	8	Radiación solar	5
26209	7	Sololá	701	Sololá	1	Sololá	5	Mayo	2023-05-28T00:00:00	2024-11-08T07:00:00	2	Temperatura media	15.2
26210	7	Sololá	701	Sololá	1	Sololá	5	Mayo	2023-05-28T00:00:00	2024-11-08T07:00:00	4	Temperatura máxima	15.2
26211	7	Sololá	701	Sololá	1	Sololá	5	Mayo	2023-05-28T00:00:00	2024-11-08T07:00:00	3	Temperatura mínima	14.6
26212	7	Sololá	701	Sololá	1	Sololá	5	Mayo	2023-05-28T00:00:00	2024-11-08T07:00:00	5	Humedad	89
26213	7	Sololá	701	Sololá	1	Sololá	5	Mayo	2023-05-28T00:00:00	2024-11-08T07:00:00	6	Velocidad del viento	3.2
26214	7	Sololá	701	Sololá	1	Sololá	5	Mayo	2023-05-28T00:00:00	2024-11-08T07:00:00	7	Dirección del viento	3.22
26215	7	Sololá	701	Sololá	1	Sololá	5	Mayo	2023-05-28T00:00:00	2024-11-08T07:00:00	1	Precipitación	0
26216	7	Sololá	701	Sololá	1	Sololá	5	Mayo	2023-05-28T00:00:00	2024-11-08T07:00:00	8	Radiación solar	42
26217	7	Sololá	701	Sololá	1	Sololá	5	Mayo	2023-05-28T00:00:00	2024-11-08T08:00:00	2	Temperatura media	17
26218	7	Sololá	701	Sololá	1	Sololá	5	Mayo	2023-05-28T00:00:00	2024-11-08T08:00:00	4	Temperatura máxima	17
26219	7	Sololá	701	Sololá	1	Sololá	5	Mayo	2023-05-28T00:00:00	2024-11-08T08:00:00	3	Temperatura mínima	15.2
26220	7	Sololá	701	Sololá	1	Sololá	5	Mayo	2023-05-28T00:00:00	2024-11-08T08:00:00	5	Humedad	85
26221	7	Sololá	701	Sololá	1	Sololá	5	Mayo	2023-05-28T00:00:00	2024-11-08T08:00:00	6	Velocidad del viento	1.6
26222	7	Sololá	701	Sololá	1	Sololá	5	Mayo	2023-05-28T00:00:00	2024-11-08T08:00:00	7	Dirección del viento	1.61
26223	7	Sololá	701	Sololá	1	Sololá	5	Mayo	2023-05-28T00:00:00	2024-11-08T08:00:00	1	Precipitación	0
26224	7	Sololá	701	Sololá	1	Sololá	5	Mayo	2023-05-28T00:00:00	2024-11-08T08:00:00	8	Radiación solar	110
26225	7	Sololá	701	Sololá	1	Sololá	5	Mayo	2023-05-28T00:00:00	2024-11-08T09:00:00	2	Temperatura media	17.9
26226	7	Sololá	701	Sololá	1	Sololá	5	Mayo	2023-05-28T00:00:00	2024-11-08T09:00:00	4	Temperatura máxima	18.3
26227	7	Sololá	701	Sololá	1	Sololá	5	Mayo	2023-05-28T00:00:00	2024-11-08T09:00:00	3	Temperatura mínima	16.9
26228	7	Sololá	701	Sololá	1	Sololá	5	Mayo	2023-05-28T00:00:00	2024-11-08T09:00:00	5	Humedad	83
26229	7	Sololá	701	Sololá	1	Sololá	5	Mayo	2023-05-28T00:00:00	2024-11-08T09:00:00	6	Velocidad del viento	3.2
26230	7	Sololá	701	Sololá	1	Sololá	5	Mayo	2023-05-28T00:00:00	2024-11-08T09:00:00	7	Dirección del viento	3.22
26231	7	Sololá	701	Sololá	1	Sololá	5	Mayo	2023-05-28T00:00:00	2024-11-08T09:00:00	1	Precipitación	0
26232	7	Sololá	701	Sololá	1	Sololá	5	Mayo	2023-05-28T00:00:00	2024-11-08T09:00:00	8	Radiación solar	412
26233	7	Sololá	701	Sololá	1	Sololá	5	Mayo	2023-05-28T00:00:00	2024-11-08T10:00:00	2	Temperatura media	18.2
26234	7	Sololá	701	Sololá	1	Sololá	5	Mayo	2023-05-28T00:00:00	2024-11-08T10:00:00	4	Temperatura máxima	18.3
26235	7	Sololá	701	Sololá	1	Sololá	5	Mayo	2023-05-28T00:00:00	2024-11-08T10:00:00	3	Temperatura mínima	17.6
26236	7	Sololá	701	Sololá	1	Sololá	5	Mayo	2023-05-28T00:00:00	2024-11-08T10:00:00	5	Humedad	83
26237	7	Sololá	701	Sololá	1	Sololá	5	Mayo	2023-05-28T00:00:00	2024-11-08T10:00:00	6	Velocidad del viento	3.2
26238	7	Sololá	701	Sololá	1	Sololá	5	Mayo	2023-05-28T00:00:00	2024-11-08T10:00:00	7	Dirección del viento	3.22
26239	7	Sololá	701	Sololá	1	Sololá	5	Mayo	2023-05-28T00:00:00	2024-11-08T10:00:00	1	Precipitación	0
26240	7	Sololá	701	Sololá	1	Sololá	5	Mayo	2023-05-28T00:00:00	2024-11-08T10:00:00	8	Radiación solar	411
26241	7	Sololá	701	Sololá	1	Sololá	5	Mayo	2023-05-28T00:00:00	2024-11-08T11:00:00	2	Temperatura media	19.9
26242	7	Sololá	701	Sololá	1	Sololá	5	Mayo	2023-05-28T00:00:00	2024-11-08T11:00:00	4	Temperatura máxima	20
26243	7	Sololá	701	Sololá	1	Sololá	5	Mayo	2023-05-28T00:00:00	2024-11-08T11:00:00	3	Temperatura mínima	18.1
26244	7	Sololá	701	Sololá	1	Sololá	5	Mayo	2023-05-28T00:00:00	2024-11-08T11:00:00	5	Humedad	76
26245	7	Sololá	701	Sololá	1	Sololá	5	Mayo	2023-05-28T00:00:00	2024-11-08T11:00:00	6	Velocidad del viento	3.2
26246	7	Sololá	701	Sololá	1	Sololá	5	Mayo	2023-05-28T00:00:00	2024-11-08T11:00:00	7	Dirección del viento	3.22
26247	7	Sololá	701	Sololá	1	Sololá	5	Mayo	2023-05-28T00:00:00	2024-11-08T11:00:00	1	Precipitación	0
26248	7	Sololá	701	Sololá	1	Sololá	5	Mayo	2023-05-28T00:00:00	2024-11-08T11:00:00	8	Radiación solar	176
26249	7	Sololá	701	Sololá	1	Sololá	5	Mayo	2023-05-28T00:00:00	2024-11-08T12:00:00	2	Temperatura media	20.4
26250	7	Sololá	701	Sololá	1	Sololá	5	Mayo	2023-05-28T00:00:00	2024-11-08T12:00:00	4	Temperatura máxima	20.7
26251	7	Sololá	701	Sololá	1	Sololá	5	Mayo	2023-05-28T00:00:00	2024-11-08T12:00:00	3	Temperatura mínima	19.8
26252	7	Sololá	701	Sololá	1	Sololá	5	Mayo	2023-05-28T00:00:00	2024-11-08T12:00:00	5	Humedad	77
26253	7	Sololá	701	Sololá	1	Sololá	5	Mayo	2023-05-28T00:00:00	2024-11-08T12:00:00	6	Velocidad del viento	6.4
26254	7	Sololá	701	Sololá	1	Sololá	5	Mayo	2023-05-28T00:00:00	2024-11-08T12:00:00	7	Dirección del viento	6.44
26255	7	Sololá	701	Sololá	1	Sololá	5	Mayo	2023-05-28T00:00:00	2024-11-08T12:00:00	1	Precipitación	0
26256	7	Sololá	701	Sololá	1	Sololá	5	Mayo	2023-05-28T00:00:00	2024-11-08T12:00:00	8	Radiación solar	195
26257	7	Sololá	701	Sololá	1	Sololá	5	Mayo	2023-05-28T00:00:00	2024-11-08T13:00:00	2	Temperatura media	20.1
26258	7	Sololá	701	Sololá	1	Sololá	5	Mayo	2023-05-28T00:00:00	2024-11-08T13:00:00	4	Temperatura máxima	20.4
26259	7	Sololá	701	Sololá	1	Sololá	5	Mayo	2023-05-28T00:00:00	2024-11-08T13:00:00	3	Temperatura mínima	19.2
26260	7	Sololá	701	Sololá	1	Sololá	5	Mayo	2023-05-28T00:00:00	2024-11-08T13:00:00	5	Humedad	81
26261	7	Sololá	701	Sololá	1	Sololá	5	Mayo	2023-05-28T00:00:00	2024-11-08T13:00:00	6	Velocidad del viento	6.4
26262	7	Sololá	701	Sololá	1	Sololá	5	Mayo	2023-05-28T00:00:00	2024-11-08T13:00:00	7	Dirección del viento	6.44
26263	7	Sololá	701	Sololá	1	Sololá	5	Mayo	2023-05-28T00:00:00	2024-11-08T13:00:00	1	Precipitación	0
26264	7	Sololá	701	Sololá	1	Sololá	5	Mayo	2023-05-28T00:00:00	2024-11-08T13:00:00	8	Radiación solar	314
26265	7	Sololá	701	Sololá	1	Sololá	5	Mayo	2023-05-28T00:00:00	2024-11-08T14:00:00	2	Temperatura media	18.6
26266	7	Sololá	701	Sololá	1	Sololá	5	Mayo	2023-05-28T00:00:00	2024-11-08T14:00:00	4	Temperatura máxima	20.1
26267	7	Sololá	701	Sololá	1	Sololá	5	Mayo	2023-05-28T00:00:00	2024-11-08T14:00:00	3	Temperatura mínima	18.5
26268	7	Sololá	701	Sololá	1	Sololá	5	Mayo	2023-05-28T00:00:00	2024-11-08T14:00:00	5	Humedad	85
26269	7	Sololá	701	Sololá	1	Sololá	5	Mayo	2023-05-28T00:00:00	2024-11-08T14:00:00	6	Velocidad del viento	6.4
26270	7	Sololá	701	Sololá	1	Sololá	5	Mayo	2023-05-28T00:00:00	2024-11-08T14:00:00	7	Dirección del viento	6.44
26271	7	Sololá	701	Sololá	1	Sololá	5	Mayo	2023-05-28T00:00:00	2024-11-08T14:00:00	1	Precipitación	0
26272	7	Sololá	701	Sololá	1	Sololá	5	Mayo	2023-05-28T00:00:00	2024-11-08T14:00:00	8	Radiación solar	250
26273	7	Sololá	701	Sololá	1	Sololá	5	Mayo	2023-05-28T00:00:00	2024-11-08T15:00:00	2	Temperatura media	18.4
26274	7	Sololá	701	Sololá	1	Sololá	5	Mayo	2023-05-28T00:00:00	2024-11-08T15:00:00	4	Temperatura máxima	19.1
26275	7	Sololá	701	Sololá	1	Sololá	5	Mayo	2023-05-28T00:00:00	2024-11-08T15:00:00	3	Temperatura mínima	18.4
26276	7	Sololá	701	Sololá	1	Sololá	5	Mayo	2023-05-28T00:00:00	2024-11-08T15:00:00	5	Humedad	85
26277	7	Sololá	701	Sololá	1	Sololá	5	Mayo	2023-05-28T00:00:00	2024-11-08T15:00:00	6	Velocidad del viento	4.8
26278	7	Sololá	701	Sololá	1	Sololá	5	Mayo	2023-05-28T00:00:00	2024-11-08T15:00:00	7	Dirección del viento	4.83
26279	7	Sololá	701	Sololá	1	Sololá	5	Mayo	2023-05-28T00:00:00	2024-11-08T15:00:00	1	Precipitación	0
26280	7	Sololá	701	Sololá	1	Sololá	5	Mayo	2023-05-28T00:00:00	2024-11-08T15:00:00	8	Radiación solar	264
26281	7	Sololá	701	Sololá	1	Sololá	5	Mayo	2023-05-28T00:00:00	2024-11-08T16:00:00	2	Temperatura media	17.3
26282	7	Sololá	701	Sololá	1	Sololá	5	Mayo	2023-05-28T00:00:00	2024-11-08T16:00:00	4	Temperatura máxima	18.4
26283	7	Sololá	701	Sololá	1	Sololá	5	Mayo	2023-05-28T00:00:00	2024-11-08T16:00:00	3	Temperatura mínima	17.3
26284	7	Sololá	701	Sololá	1	Sololá	5	Mayo	2023-05-28T00:00:00	2024-11-08T16:00:00	5	Humedad	91
26285	7	Sololá	701	Sololá	1	Sololá	5	Mayo	2023-05-28T00:00:00	2024-11-08T16:00:00	6	Velocidad del viento	4.8
26286	7	Sololá	701	Sololá	1	Sololá	5	Mayo	2023-05-28T00:00:00	2024-11-08T16:00:00	7	Dirección del viento	4.83
26287	7	Sololá	701	Sololá	1	Sololá	5	Mayo	2023-05-28T00:00:00	2024-11-08T16:00:00	1	Precipitación	0
26288	7	Sololá	701	Sololá	1	Sololá	5	Mayo	2023-05-28T00:00:00	2024-11-08T16:00:00	8	Radiación solar	165
26289	7	Sololá	701	Sololá	1	Sololá	5	Mayo	2023-05-28T00:00:00	2024-11-08T17:00:00	2	Temperatura media	17.5
26290	7	Sololá	701	Sololá	1	Sololá	5	Mayo	2023-05-28T00:00:00	2024-11-08T17:00:00	4	Temperatura máxima	17.6
26291	7	Sololá	701	Sololá	1	Sololá	5	Mayo	2023-05-28T00:00:00	2024-11-08T17:00:00	3	Temperatura mínima	17.1
26292	7	Sololá	701	Sololá	1	Sololá	5	Mayo	2023-05-28T00:00:00	2024-11-08T17:00:00	5	Humedad	89
26293	7	Sololá	701	Sololá	1	Sololá	5	Mayo	2023-05-28T00:00:00	2024-11-08T17:00:00	6	Velocidad del viento	3.2
26294	7	Sololá	701	Sololá	1	Sololá	5	Mayo	2023-05-28T00:00:00	2024-11-08T17:00:00	7	Dirección del viento	3.22
26295	7	Sololá	701	Sololá	1	Sololá	5	Mayo	2023-05-28T00:00:00	2024-11-08T17:00:00	1	Precipitación	0
26296	7	Sololá	701	Sololá	1	Sololá	5	Mayo	2023-05-28T00:00:00	2024-11-08T17:00:00	8	Radiación solar	85
26297	7	Sololá	701	Sololá	1	Sololá	5	Mayo	2023-05-28T00:00:00	2024-11-08T18:00:00	2	Temperatura media	16.3
26298	7	Sololá	701	Sololá	1	Sololá	5	Mayo	2023-05-28T00:00:00	2024-11-08T18:00:00	4	Temperatura máxima	17.5
26299	7	Sololá	701	Sololá	1	Sololá	5	Mayo	2023-05-28T00:00:00	2024-11-08T18:00:00	3	Temperatura mínima	16.3
26300	7	Sololá	701	Sololá	1	Sololá	5	Mayo	2023-05-28T00:00:00	2024-11-08T18:00:00	5	Humedad	93
26301	7	Sololá	701	Sololá	1	Sololá	5	Mayo	2023-05-28T00:00:00	2024-11-08T18:00:00	6	Velocidad del viento	3.2
26302	7	Sololá	701	Sololá	1	Sololá	5	Mayo	2023-05-28T00:00:00	2024-11-08T18:00:00	7	Dirección del viento	3.22
26303	7	Sololá	701	Sololá	1	Sololá	5	Mayo	2023-05-28T00:00:00	2024-11-08T18:00:00	1	Precipitación	2.2
26304	7	Sololá	701	Sololá	1	Sololá	5	Mayo	2023-05-28T00:00:00	2024-11-08T18:00:00	8	Radiación solar	10
26305	7	Sololá	701	Sololá	1	Sololá	5	Mayo	2023-05-28T00:00:00	2024-11-08T19:00:00	2	Temperatura media	16.1
26306	7	Sololá	701	Sololá	1	Sololá	5	Mayo	2023-05-28T00:00:00	2024-11-08T19:00:00	4	Temperatura máxima	16.6
26307	7	Sololá	701	Sololá	1	Sololá	5	Mayo	2023-05-28T00:00:00	2024-11-08T19:00:00	3	Temperatura mínima	16
26308	7	Sololá	701	Sololá	1	Sololá	5	Mayo	2023-05-28T00:00:00	2024-11-08T19:00:00	5	Humedad	94
26309	7	Sololá	701	Sololá	1	Sololá	5	Mayo	2023-05-28T00:00:00	2024-11-08T19:00:00	6	Velocidad del viento	1.6
26310	7	Sololá	701	Sololá	1	Sololá	5	Mayo	2023-05-28T00:00:00	2024-11-08T19:00:00	7	Dirección del viento	1.61
26311	7	Sololá	701	Sololá	1	Sololá	5	Mayo	2023-05-28T00:00:00	2024-11-08T19:00:00	1	Precipitación	1.8
26312	7	Sololá	701	Sololá	1	Sololá	5	Mayo	2023-05-28T00:00:00	2024-11-08T19:00:00	8	Radiación solar	0
26313	7	Sololá	701	Sololá	1	Sololá	5	Mayo	2023-05-28T00:00:00	2024-11-08T20:00:00	2	Temperatura media	16.1
26314	7	Sololá	701	Sololá	1	Sololá	5	Mayo	2023-05-28T00:00:00	2024-11-08T20:00:00	4	Temperatura máxima	16.3
26315	7	Sololá	701	Sololá	1	Sololá	5	Mayo	2023-05-28T00:00:00	2024-11-08T20:00:00	3	Temperatura mínima	15.9
26316	7	Sololá	701	Sololá	1	Sololá	5	Mayo	2023-05-28T00:00:00	2024-11-08T20:00:00	5	Humedad	93
26317	7	Sololá	701	Sololá	1	Sololá	5	Mayo	2023-05-28T00:00:00	2024-11-08T20:00:00	6	Velocidad del viento	1.6
26318	7	Sololá	701	Sololá	1	Sololá	5	Mayo	2023-05-28T00:00:00	2024-11-08T20:00:00	7	Dirección del viento	1.61
26319	7	Sololá	701	Sololá	1	Sololá	5	Mayo	2023-05-28T00:00:00	2024-11-08T20:00:00	1	Precipitación	0.4
26320	7	Sololá	701	Sololá	1	Sololá	5	Mayo	2023-05-28T00:00:00	2024-11-08T20:00:00	8	Radiación solar	0
26321	7	Sololá	701	Sololá	1	Sololá	5	Mayo	2023-05-28T00:00:00	2024-11-08T21:00:00	2	Temperatura media	16.4
26322	7	Sololá	701	Sololá	1	Sololá	5	Mayo	2023-05-28T00:00:00	2024-11-08T21:00:00	4	Temperatura máxima	16.4
26323	7	Sololá	701	Sololá	1	Sololá	5	Mayo	2023-05-28T00:00:00	2024-11-08T21:00:00	3	Temperatura mínima	16.1
26324	7	Sololá	701	Sololá	1	Sololá	5	Mayo	2023-05-28T00:00:00	2024-11-08T21:00:00	5	Humedad	92
26325	7	Sololá	701	Sololá	1	Sololá	5	Mayo	2023-05-28T00:00:00	2024-11-08T21:00:00	6	Velocidad del viento	1.6
26326	7	Sololá	701	Sololá	1	Sololá	5	Mayo	2023-05-28T00:00:00	2024-11-08T21:00:00	7	Dirección del viento	1.61
26327	7	Sololá	701	Sololá	1	Sololá	5	Mayo	2023-05-28T00:00:00	2024-11-08T21:00:00	1	Precipitación	0
26328	7	Sololá	701	Sololá	1	Sololá	5	Mayo	2023-05-28T00:00:00	2024-11-08T21:00:00	8	Radiación solar	0
26329	7	Sololá	701	Sololá	1	Sololá	5	Mayo	2023-05-28T00:00:00	2024-11-08T22:00:00	2	Temperatura media	16.1
26330	7	Sololá	701	Sololá	1	Sololá	5	Mayo	2023-05-28T00:00:00	2024-11-08T22:00:00	4	Temperatura máxima	16.5
26331	7	Sololá	701	Sololá	1	Sololá	5	Mayo	2023-05-28T00:00:00	2024-11-08T22:00:00	3	Temperatura mínima	16
26332	7	Sololá	701	Sololá	1	Sololá	5	Mayo	2023-05-28T00:00:00	2024-11-08T22:00:00	5	Humedad	92
26333	7	Sololá	701	Sololá	1	Sololá	5	Mayo	2023-05-28T00:00:00	2024-11-08T22:00:00	6	Velocidad del viento	1.6
26334	7	Sololá	701	Sololá	1	Sololá	5	Mayo	2023-05-28T00:00:00	2024-11-08T22:00:00	7	Dirección del viento	1.61
26335	7	Sololá	701	Sololá	1	Sololá	5	Mayo	2023-05-28T00:00:00	2024-11-08T22:00:00	1	Precipitación	0
26336	7	Sololá	701	Sololá	1	Sololá	5	Mayo	2023-05-28T00:00:00	2024-11-08T22:00:00	8	Radiación solar	0
26337	7	Sololá	701	Sololá	1	Sololá	5	Mayo	2023-05-28T00:00:00	2024-11-08T23:00:00	2	Temperatura media	15.9
26338	7	Sololá	701	Sololá	1	Sololá	5	Mayo	2023-05-28T00:00:00	2024-11-08T23:00:00	4	Temperatura máxima	16.2
26339	7	Sololá	701	Sololá	1	Sololá	5	Mayo	2023-05-28T00:00:00	2024-11-08T23:00:00	3	Temperatura mínima	15.9
26340	7	Sololá	701	Sololá	1	Sololá	5	Mayo	2023-05-28T00:00:00	2024-11-08T23:00:00	5	Humedad	95
26341	7	Sololá	701	Sololá	1	Sololá	5	Mayo	2023-05-28T00:00:00	2024-11-08T23:00:00	6	Velocidad del viento	1.6
26342	7	Sololá	701	Sololá	1	Sololá	5	Mayo	2023-05-28T00:00:00	2024-11-08T23:00:00	7	Dirección del viento	1.61
26343	7	Sololá	701	Sololá	1	Sololá	5	Mayo	2023-05-28T00:00:00	2024-11-08T23:00:00	1	Precipitación	6.6
26344	7	Sololá	701	Sololá	1	Sololá	5	Mayo	2023-05-28T00:00:00	2024-11-08T23:00:00	8	Radiación solar	0
26345	7	Sololá	701	Sololá	1	Sololá	5	Mayo	2023-05-29T00:00:00	2024-11-08T00:00:00	2	Temperatura media	15.4
26346	7	Sololá	701	Sololá	1	Sololá	5	Mayo	2023-05-29T00:00:00	2024-11-08T00:00:00	4	Temperatura máxima	15.9
26347	7	Sololá	701	Sololá	1	Sololá	5	Mayo	2023-05-29T00:00:00	2024-11-08T00:00:00	3	Temperatura mínima	15.3
26348	7	Sololá	701	Sololá	1	Sololá	5	Mayo	2023-05-29T00:00:00	2024-11-08T00:00:00	5	Humedad	96
26349	7	Sololá	701	Sololá	1	Sololá	5	Mayo	2023-05-29T00:00:00	2024-11-08T00:00:00	6	Velocidad del viento	1.6
26350	7	Sololá	701	Sololá	1	Sololá	5	Mayo	2023-05-29T00:00:00	2024-11-08T00:00:00	7	Dirección del viento	1.61
26351	7	Sololá	701	Sololá	1	Sololá	5	Mayo	2023-05-29T00:00:00	2024-11-08T00:00:00	1	Precipitación	11.4
26352	7	Sololá	701	Sololá	1	Sololá	5	Mayo	2023-05-29T00:00:00	2024-11-08T00:00:00	8	Radiación solar	0
26353	7	Sololá	701	Sololá	1	Sololá	5	Mayo	2023-05-29T00:00:00	2024-11-08T01:00:00	2	Temperatura media	14.9
26354	7	Sololá	701	Sololá	1	Sololá	5	Mayo	2023-05-29T00:00:00	2024-11-08T01:00:00	4	Temperatura máxima	15.4
26355	7	Sololá	701	Sololá	1	Sololá	5	Mayo	2023-05-29T00:00:00	2024-11-08T01:00:00	3	Temperatura mínima	14.9
26356	7	Sololá	701	Sololá	1	Sololá	5	Mayo	2023-05-29T00:00:00	2024-11-08T01:00:00	5	Humedad	95
26357	7	Sololá	701	Sololá	1	Sololá	5	Mayo	2023-05-29T00:00:00	2024-11-08T01:00:00	6	Velocidad del viento	3.2
26358	7	Sololá	701	Sololá	1	Sololá	5	Mayo	2023-05-29T00:00:00	2024-11-08T01:00:00	7	Dirección del viento	3.22
26359	7	Sololá	701	Sololá	1	Sololá	5	Mayo	2023-05-29T00:00:00	2024-11-08T01:00:00	1	Precipitación	6
26360	7	Sololá	701	Sololá	1	Sololá	5	Mayo	2023-05-29T00:00:00	2024-11-08T01:00:00	8	Radiación solar	0
26361	7	Sololá	701	Sololá	1	Sololá	5	Mayo	2023-05-29T00:00:00	2024-11-08T02:00:00	2	Temperatura media	14.4
26362	7	Sololá	701	Sololá	1	Sololá	5	Mayo	2023-05-29T00:00:00	2024-11-08T02:00:00	4	Temperatura máxima	15.1
26363	7	Sololá	701	Sololá	1	Sololá	5	Mayo	2023-05-29T00:00:00	2024-11-08T02:00:00	3	Temperatura mínima	14.3
26364	7	Sololá	701	Sololá	1	Sololá	5	Mayo	2023-05-29T00:00:00	2024-11-08T02:00:00	5	Humedad	95
26365	7	Sololá	701	Sololá	1	Sololá	5	Mayo	2023-05-29T00:00:00	2024-11-08T02:00:00	6	Velocidad del viento	1.6
26366	7	Sololá	701	Sololá	1	Sololá	5	Mayo	2023-05-29T00:00:00	2024-11-08T02:00:00	7	Dirección del viento	1.61
26367	7	Sololá	701	Sololá	1	Sololá	5	Mayo	2023-05-29T00:00:00	2024-11-08T02:00:00	1	Precipitación	2
26368	7	Sololá	701	Sololá	1	Sololá	5	Mayo	2023-05-29T00:00:00	2024-11-08T02:00:00	8	Radiación solar	0
26369	7	Sololá	701	Sololá	1	Sololá	5	Mayo	2023-05-29T00:00:00	2024-11-08T03:00:00	2	Temperatura media	14.6
26370	7	Sololá	701	Sololá	1	Sololá	5	Mayo	2023-05-29T00:00:00	2024-11-08T03:00:00	4	Temperatura máxima	14.6
26371	7	Sololá	701	Sololá	1	Sololá	5	Mayo	2023-05-29T00:00:00	2024-11-08T03:00:00	3	Temperatura mínima	14.3
26372	7	Sololá	701	Sololá	1	Sololá	5	Mayo	2023-05-29T00:00:00	2024-11-08T03:00:00	5	Humedad	96
26373	7	Sololá	701	Sololá	1	Sololá	5	Mayo	2023-05-29T00:00:00	2024-11-08T03:00:00	6	Velocidad del viento	1.6
26374	7	Sololá	701	Sololá	1	Sololá	5	Mayo	2023-05-29T00:00:00	2024-11-08T03:00:00	7	Dirección del viento	1.61
26375	7	Sololá	701	Sololá	1	Sololá	5	Mayo	2023-05-29T00:00:00	2024-11-08T03:00:00	1	Precipitación	1
26376	7	Sololá	701	Sololá	1	Sololá	5	Mayo	2023-05-29T00:00:00	2024-11-08T03:00:00	8	Radiación solar	0
26377	7	Sololá	701	Sololá	1	Sololá	5	Mayo	2023-05-29T00:00:00	2024-11-08T04:00:00	2	Temperatura media	14.5
26378	7	Sololá	701	Sololá	1	Sololá	5	Mayo	2023-05-29T00:00:00	2024-11-08T04:00:00	4	Temperatura máxima	14.6
26379	7	Sololá	701	Sololá	1	Sololá	5	Mayo	2023-05-29T00:00:00	2024-11-08T04:00:00	3	Temperatura mínima	14.3
26380	7	Sololá	701	Sololá	1	Sololá	5	Mayo	2023-05-29T00:00:00	2024-11-08T04:00:00	5	Humedad	96
26381	7	Sololá	701	Sololá	1	Sololá	5	Mayo	2023-05-29T00:00:00	2024-11-08T04:00:00	6	Velocidad del viento	0
26382	7	Sololá	701	Sololá	1	Sololá	5	Mayo	2023-05-29T00:00:00	2024-11-08T04:00:00	7	Dirección del viento	0
26383	7	Sololá	701	Sololá	1	Sololá	5	Mayo	2023-05-29T00:00:00	2024-11-08T04:00:00	1	Precipitación	1
26384	7	Sololá	701	Sololá	1	Sololá	5	Mayo	2023-05-29T00:00:00	2024-11-08T04:00:00	8	Radiación solar	0
26385	7	Sololá	701	Sololá	1	Sololá	5	Mayo	2023-05-29T00:00:00	2024-11-08T05:00:00	2	Temperatura media	14.3
26386	7	Sololá	701	Sololá	1	Sololá	5	Mayo	2023-05-29T00:00:00	2024-11-08T05:00:00	4	Temperatura máxima	14.6
26387	7	Sololá	701	Sololá	1	Sololá	5	Mayo	2023-05-29T00:00:00	2024-11-08T05:00:00	3	Temperatura mínima	14.2
26388	7	Sololá	701	Sololá	1	Sololá	5	Mayo	2023-05-29T00:00:00	2024-11-08T05:00:00	5	Humedad	94
26389	7	Sololá	701	Sololá	1	Sololá	5	Mayo	2023-05-29T00:00:00	2024-11-08T05:00:00	6	Velocidad del viento	0
26390	7	Sololá	701	Sololá	1	Sololá	5	Mayo	2023-05-29T00:00:00	2024-11-08T05:00:00	7	Dirección del viento	0
26391	7	Sololá	701	Sololá	1	Sololá	5	Mayo	2023-05-29T00:00:00	2024-11-08T05:00:00	1	Precipitación	0.2
26392	7	Sololá	701	Sololá	1	Sololá	5	Mayo	2023-05-29T00:00:00	2024-11-08T05:00:00	8	Radiación solar	0
26393	7	Sololá	701	Sololá	1	Sololá	5	Mayo	2023-05-29T00:00:00	2024-11-08T06:00:00	2	Temperatura media	14.3
26394	7	Sololá	701	Sololá	1	Sololá	5	Mayo	2023-05-29T00:00:00	2024-11-08T06:00:00	4	Temperatura máxima	14.6
26395	7	Sololá	701	Sololá	1	Sololá	5	Mayo	2023-05-29T00:00:00	2024-11-08T06:00:00	3	Temperatura mínima	14.3
26396	7	Sololá	701	Sololá	1	Sololá	5	Mayo	2023-05-29T00:00:00	2024-11-08T06:00:00	5	Humedad	94
26397	7	Sololá	701	Sololá	1	Sololá	5	Mayo	2023-05-29T00:00:00	2024-11-08T06:00:00	6	Velocidad del viento	0
26398	7	Sololá	701	Sololá	1	Sololá	5	Mayo	2023-05-29T00:00:00	2024-11-08T06:00:00	7	Dirección del viento	0
26399	7	Sololá	701	Sololá	1	Sololá	5	Mayo	2023-05-29T00:00:00	2024-11-08T06:00:00	1	Precipitación	0
26400	7	Sololá	701	Sololá	1	Sololá	5	Mayo	2023-05-29T00:00:00	2024-11-08T06:00:00	8	Radiación solar	0
26401	7	Sololá	701	Sololá	1	Sololá	5	Mayo	2023-05-29T00:00:00	2024-11-08T07:00:00	2	Temperatura media	14.7
26402	7	Sololá	701	Sololá	1	Sololá	5	Mayo	2023-05-29T00:00:00	2024-11-08T07:00:00	4	Temperatura máxima	14.7
26403	7	Sololá	701	Sololá	1	Sololá	5	Mayo	2023-05-29T00:00:00	2024-11-08T07:00:00	3	Temperatura mínima	14.3
26404	7	Sololá	701	Sololá	1	Sololá	5	Mayo	2023-05-29T00:00:00	2024-11-08T07:00:00	5	Humedad	93
26405	7	Sololá	701	Sololá	1	Sololá	5	Mayo	2023-05-29T00:00:00	2024-11-08T07:00:00	6	Velocidad del viento	1.6
26406	7	Sololá	701	Sololá	1	Sololá	5	Mayo	2023-05-29T00:00:00	2024-11-08T07:00:00	7	Dirección del viento	1.61
26407	7	Sololá	701	Sololá	1	Sololá	5	Mayo	2023-05-29T00:00:00	2024-11-08T07:00:00	1	Precipitación	0
26408	7	Sololá	701	Sololá	1	Sololá	5	Mayo	2023-05-29T00:00:00	2024-11-08T07:00:00	8	Radiación solar	39
26409	7	Sololá	701	Sololá	1	Sololá	5	Mayo	2023-05-29T00:00:00	2024-11-08T08:00:00	2	Temperatura media	15.3
26410	7	Sololá	701	Sololá	1	Sololá	5	Mayo	2023-05-29T00:00:00	2024-11-08T08:00:00	4	Temperatura máxima	15.3
26411	7	Sololá	701	Sololá	1	Sololá	5	Mayo	2023-05-29T00:00:00	2024-11-08T08:00:00	3	Temperatura mínima	14.7
26412	7	Sololá	701	Sololá	1	Sololá	5	Mayo	2023-05-29T00:00:00	2024-11-08T08:00:00	5	Humedad	91
26413	7	Sololá	701	Sololá	1	Sololá	5	Mayo	2023-05-29T00:00:00	2024-11-08T08:00:00	6	Velocidad del viento	0
26414	7	Sololá	701	Sololá	1	Sololá	5	Mayo	2023-05-29T00:00:00	2024-11-08T08:00:00	7	Dirección del viento	0
26415	7	Sololá	701	Sololá	1	Sololá	5	Mayo	2023-05-29T00:00:00	2024-11-08T08:00:00	1	Precipitación	0
26416	7	Sololá	701	Sololá	1	Sololá	5	Mayo	2023-05-29T00:00:00	2024-11-08T08:00:00	8	Radiación solar	66
26417	7	Sololá	701	Sololá	1	Sololá	5	Mayo	2023-05-29T00:00:00	2024-11-08T09:00:00	2	Temperatura media	15.2
26418	7	Sololá	701	Sololá	1	Sololá	5	Mayo	2023-05-29T00:00:00	2024-11-08T09:00:00	4	Temperatura máxima	15.3
26419	7	Sololá	701	Sololá	1	Sololá	5	Mayo	2023-05-29T00:00:00	2024-11-08T09:00:00	3	Temperatura mínima	15.1
26420	7	Sololá	701	Sololá	1	Sololá	5	Mayo	2023-05-29T00:00:00	2024-11-08T09:00:00	5	Humedad	92
26421	7	Sololá	701	Sololá	1	Sololá	5	Mayo	2023-05-29T00:00:00	2024-11-08T09:00:00	6	Velocidad del viento	0
26422	7	Sololá	701	Sololá	1	Sololá	5	Mayo	2023-05-29T00:00:00	2024-11-08T09:00:00	7	Dirección del viento	0
26423	7	Sololá	701	Sololá	1	Sololá	5	Mayo	2023-05-29T00:00:00	2024-11-08T09:00:00	1	Precipitación	0.2
26424	7	Sololá	701	Sololá	1	Sololá	5	Mayo	2023-05-29T00:00:00	2024-11-08T09:00:00	8	Radiación solar	113
26425	7	Sololá	701	Sololá	1	Sololá	5	Mayo	2023-05-29T00:00:00	2024-11-08T10:00:00	2	Temperatura media	16.8
26426	7	Sololá	701	Sololá	1	Sololá	5	Mayo	2023-05-29T00:00:00	2024-11-08T10:00:00	4	Temperatura máxima	16.8
26427	7	Sololá	701	Sololá	1	Sololá	5	Mayo	2023-05-29T00:00:00	2024-11-08T10:00:00	3	Temperatura mínima	15.1
26428	7	Sololá	701	Sololá	1	Sololá	5	Mayo	2023-05-29T00:00:00	2024-11-08T10:00:00	5	Humedad	89
26429	7	Sololá	701	Sololá	1	Sololá	5	Mayo	2023-05-29T00:00:00	2024-11-08T10:00:00	6	Velocidad del viento	3.2
26430	7	Sololá	701	Sololá	1	Sololá	5	Mayo	2023-05-29T00:00:00	2024-11-08T10:00:00	7	Dirección del viento	3.22
26431	7	Sololá	701	Sololá	1	Sololá	5	Mayo	2023-05-29T00:00:00	2024-11-08T10:00:00	1	Precipitación	0
26432	7	Sololá	701	Sololá	1	Sololá	5	Mayo	2023-05-29T00:00:00	2024-11-08T10:00:00	8	Radiación solar	207
26433	7	Sololá	701	Sololá	1	Sololá	5	Mayo	2023-05-29T00:00:00	2024-11-08T11:00:00	2	Temperatura media	19.5
26434	7	Sololá	701	Sololá	1	Sololá	5	Mayo	2023-05-29T00:00:00	2024-11-08T11:00:00	4	Temperatura máxima	19.5
26435	7	Sololá	701	Sololá	1	Sololá	5	Mayo	2023-05-29T00:00:00	2024-11-08T11:00:00	3	Temperatura mínima	16.8
26436	7	Sololá	701	Sololá	1	Sololá	5	Mayo	2023-05-29T00:00:00	2024-11-08T11:00:00	5	Humedad	82
26437	7	Sololá	701	Sololá	1	Sololá	5	Mayo	2023-05-29T00:00:00	2024-11-08T11:00:00	6	Velocidad del viento	3.2
26438	7	Sololá	701	Sololá	1	Sololá	5	Mayo	2023-05-29T00:00:00	2024-11-08T11:00:00	7	Dirección del viento	3.22
26439	7	Sololá	701	Sololá	1	Sololá	5	Mayo	2023-05-29T00:00:00	2024-11-08T11:00:00	1	Precipitación	0
26440	7	Sololá	701	Sololá	1	Sololá	5	Mayo	2023-05-29T00:00:00	2024-11-08T11:00:00	8	Radiación solar	386
26441	7	Sololá	701	Sololá	1	Sololá	5	Mayo	2023-05-29T00:00:00	2024-11-08T12:00:00	2	Temperatura media	20.8
26442	7	Sololá	701	Sololá	1	Sololá	5	Mayo	2023-05-29T00:00:00	2024-11-08T12:00:00	4	Temperatura máxima	20.8
26443	7	Sololá	701	Sololá	1	Sololá	5	Mayo	2023-05-29T00:00:00	2024-11-08T12:00:00	3	Temperatura mínima	19.6
26444	7	Sololá	701	Sololá	1	Sololá	5	Mayo	2023-05-29T00:00:00	2024-11-08T12:00:00	5	Humedad	70
26445	7	Sololá	701	Sololá	1	Sololá	5	Mayo	2023-05-29T00:00:00	2024-11-08T12:00:00	6	Velocidad del viento	4.8
26446	7	Sololá	701	Sololá	1	Sololá	5	Mayo	2023-05-29T00:00:00	2024-11-08T12:00:00	7	Dirección del viento	4.83
26447	7	Sololá	701	Sololá	1	Sololá	5	Mayo	2023-05-29T00:00:00	2024-11-08T12:00:00	1	Precipitación	0
26448	7	Sololá	701	Sololá	1	Sololá	5	Mayo	2023-05-29T00:00:00	2024-11-08T12:00:00	8	Radiación solar	335
26449	7	Sololá	701	Sololá	1	Sololá	5	Mayo	2023-05-29T00:00:00	2024-11-08T13:00:00	2	Temperatura media	20.8
26450	7	Sololá	701	Sololá	1	Sololá	5	Mayo	2023-05-29T00:00:00	2024-11-08T13:00:00	4	Temperatura máxima	21.3
26451	7	Sololá	701	Sololá	1	Sololá	5	Mayo	2023-05-29T00:00:00	2024-11-08T13:00:00	3	Temperatura mínima	20.7
26452	7	Sololá	701	Sololá	1	Sololá	5	Mayo	2023-05-29T00:00:00	2024-11-08T13:00:00	5	Humedad	67
26453	7	Sololá	701	Sololá	1	Sololá	5	Mayo	2023-05-29T00:00:00	2024-11-08T13:00:00	6	Velocidad del viento	4.8
26454	7	Sololá	701	Sololá	1	Sololá	5	Mayo	2023-05-29T00:00:00	2024-11-08T13:00:00	7	Dirección del viento	4.83
26455	7	Sololá	701	Sololá	1	Sololá	5	Mayo	2023-05-29T00:00:00	2024-11-08T13:00:00	1	Precipitación	0
26456	7	Sololá	701	Sololá	1	Sololá	5	Mayo	2023-05-29T00:00:00	2024-11-08T13:00:00	8	Radiación solar	438
26457	7	Sololá	701	Sololá	1	Sololá	5	Mayo	2023-05-29T00:00:00	2024-11-08T14:00:00	2	Temperatura media	21.3
26458	7	Sololá	701	Sololá	1	Sololá	5	Mayo	2023-05-29T00:00:00	2024-11-08T14:00:00	4	Temperatura máxima	21.8
26459	7	Sololá	701	Sololá	1	Sololá	5	Mayo	2023-05-29T00:00:00	2024-11-08T14:00:00	3	Temperatura mínima	20.8
26460	7	Sololá	701	Sololá	1	Sololá	5	Mayo	2023-05-29T00:00:00	2024-11-08T14:00:00	5	Humedad	72
26461	7	Sololá	701	Sololá	1	Sololá	5	Mayo	2023-05-29T00:00:00	2024-11-08T14:00:00	6	Velocidad del viento	4.8
26462	7	Sololá	701	Sololá	1	Sololá	5	Mayo	2023-05-29T00:00:00	2024-11-08T14:00:00	7	Dirección del viento	4.83
26463	7	Sololá	701	Sololá	1	Sololá	5	Mayo	2023-05-29T00:00:00	2024-11-08T14:00:00	1	Precipitación	0
26464	7	Sololá	701	Sololá	1	Sololá	5	Mayo	2023-05-29T00:00:00	2024-11-08T14:00:00	8	Radiación solar	443
26465	7	Sololá	701	Sololá	1	Sololá	5	Mayo	2023-05-29T00:00:00	2024-11-08T15:00:00	2	Temperatura media	20.2
26466	7	Sololá	701	Sololá	1	Sololá	5	Mayo	2023-05-29T00:00:00	2024-11-08T15:00:00	4	Temperatura máxima	21.4
26467	7	Sololá	701	Sololá	1	Sololá	5	Mayo	2023-05-29T00:00:00	2024-11-08T15:00:00	3	Temperatura mínima	20.2
26468	7	Sololá	701	Sololá	1	Sololá	5	Mayo	2023-05-29T00:00:00	2024-11-08T15:00:00	5	Humedad	82
26469	7	Sololá	701	Sololá	1	Sololá	5	Mayo	2023-05-29T00:00:00	2024-11-08T15:00:00	6	Velocidad del viento	4.8
26470	7	Sololá	701	Sololá	1	Sololá	5	Mayo	2023-05-29T00:00:00	2024-11-08T15:00:00	7	Dirección del viento	4.83
26471	7	Sololá	701	Sololá	1	Sololá	5	Mayo	2023-05-29T00:00:00	2024-11-08T15:00:00	1	Precipitación	0
26472	7	Sololá	701	Sololá	1	Sololá	5	Mayo	2023-05-29T00:00:00	2024-11-08T15:00:00	8	Radiación solar	300
26473	7	Sololá	701	Sololá	1	Sololá	5	Mayo	2023-05-29T00:00:00	2024-11-08T16:00:00	2	Temperatura media	18.6
26474	7	Sololá	701	Sololá	1	Sololá	5	Mayo	2023-05-29T00:00:00	2024-11-08T16:00:00	4	Temperatura máxima	20.2
26475	7	Sololá	701	Sololá	1	Sololá	5	Mayo	2023-05-29T00:00:00	2024-11-08T16:00:00	3	Temperatura mínima	18.6
26476	7	Sololá	701	Sololá	1	Sololá	5	Mayo	2023-05-29T00:00:00	2024-11-08T16:00:00	5	Humedad	90
26477	7	Sololá	701	Sololá	1	Sololá	5	Mayo	2023-05-29T00:00:00	2024-11-08T16:00:00	6	Velocidad del viento	4.8
26478	7	Sololá	701	Sololá	1	Sololá	5	Mayo	2023-05-29T00:00:00	2024-11-08T16:00:00	7	Dirección del viento	4.83
26479	7	Sololá	701	Sololá	1	Sololá	5	Mayo	2023-05-29T00:00:00	2024-11-08T16:00:00	1	Precipitación	0.4
26480	7	Sololá	701	Sololá	1	Sololá	5	Mayo	2023-05-29T00:00:00	2024-11-08T16:00:00	8	Radiación solar	103
26481	7	Sololá	701	Sololá	1	Sololá	5	Mayo	2023-05-29T00:00:00	2024-11-08T17:00:00	2	Temperatura media	14.6
26482	7	Sololá	701	Sololá	1	Sololá	5	Mayo	2023-05-29T00:00:00	2024-11-08T17:00:00	4	Temperatura máxima	18.6
26483	7	Sololá	701	Sololá	1	Sololá	5	Mayo	2023-05-29T00:00:00	2024-11-08T17:00:00	3	Temperatura mínima	14.4
26484	7	Sololá	701	Sololá	1	Sololá	5	Mayo	2023-05-29T00:00:00	2024-11-08T17:00:00	5	Humedad	86
26485	7	Sololá	701	Sololá	1	Sololá	5	Mayo	2023-05-29T00:00:00	2024-11-08T17:00:00	6	Velocidad del viento	12.9
26486	7	Sololá	701	Sololá	1	Sololá	5	Mayo	2023-05-29T00:00:00	2024-11-08T17:00:00	7	Dirección del viento	12.87
26487	7	Sololá	701	Sololá	1	Sololá	5	Mayo	2023-05-29T00:00:00	2024-11-08T17:00:00	1	Precipitación	15.4
26488	7	Sololá	701	Sololá	1	Sololá	5	Mayo	2023-05-29T00:00:00	2024-11-08T17:00:00	8	Radiación solar	45
26489	7	Sololá	701	Sololá	1	Sololá	5	Mayo	2023-05-29T00:00:00	2024-11-08T18:00:00	2	Temperatura media	15.2
26490	7	Sololá	701	Sololá	1	Sololá	5	Mayo	2023-05-29T00:00:00	2024-11-08T18:00:00	4	Temperatura máxima	15.4
26491	7	Sololá	701	Sololá	1	Sololá	5	Mayo	2023-05-29T00:00:00	2024-11-08T18:00:00	3	Temperatura mínima	14.6
26492	7	Sololá	701	Sololá	1	Sololá	5	Mayo	2023-05-29T00:00:00	2024-11-08T18:00:00	5	Humedad	88
26493	7	Sololá	701	Sololá	1	Sololá	5	Mayo	2023-05-29T00:00:00	2024-11-08T18:00:00	6	Velocidad del viento	9.7
26494	7	Sololá	701	Sololá	1	Sololá	5	Mayo	2023-05-29T00:00:00	2024-11-08T18:00:00	7	Dirección del viento	9.66
26495	7	Sololá	701	Sololá	1	Sololá	5	Mayo	2023-05-29T00:00:00	2024-11-08T18:00:00	1	Precipitación	0.6
26496	7	Sololá	701	Sololá	1	Sololá	5	Mayo	2023-05-29T00:00:00	2024-11-08T18:00:00	8	Radiación solar	52
26497	7	Sololá	701	Sololá	1	Sololá	5	Mayo	2023-05-29T00:00:00	2024-11-08T19:00:00	2	Temperatura media	15.3
26498	7	Sololá	701	Sololá	1	Sololá	5	Mayo	2023-05-29T00:00:00	2024-11-08T19:00:00	4	Temperatura máxima	15.6
26499	7	Sololá	701	Sololá	1	Sololá	5	Mayo	2023-05-29T00:00:00	2024-11-08T19:00:00	3	Temperatura mínima	15.2
26500	7	Sololá	701	Sololá	1	Sololá	5	Mayo	2023-05-29T00:00:00	2024-11-08T19:00:00	5	Humedad	89
26501	7	Sololá	701	Sololá	1	Sololá	5	Mayo	2023-05-29T00:00:00	2024-11-08T19:00:00	6	Velocidad del viento	8
26502	7	Sololá	701	Sololá	1	Sololá	5	Mayo	2023-05-29T00:00:00	2024-11-08T19:00:00	7	Dirección del viento	8.05
26503	7	Sololá	701	Sololá	1	Sololá	5	Mayo	2023-05-29T00:00:00	2024-11-08T19:00:00	1	Precipitación	0
26504	7	Sololá	701	Sololá	1	Sololá	5	Mayo	2023-05-29T00:00:00	2024-11-08T19:00:00	8	Radiación solar	0
26505	7	Sololá	701	Sololá	1	Sololá	5	Mayo	2023-05-29T00:00:00	2024-11-08T20:00:00	2	Temperatura media	16.6
26506	7	Sololá	701	Sololá	1	Sololá	5	Mayo	2023-05-29T00:00:00	2024-11-08T20:00:00	4	Temperatura máxima	16.6
26507	7	Sololá	701	Sololá	1	Sololá	5	Mayo	2023-05-29T00:00:00	2024-11-08T20:00:00	3	Temperatura mínima	15.1
26508	7	Sololá	701	Sololá	1	Sololá	5	Mayo	2023-05-29T00:00:00	2024-11-08T20:00:00	5	Humedad	80
26509	7	Sololá	701	Sololá	1	Sololá	5	Mayo	2023-05-29T00:00:00	2024-11-08T20:00:00	6	Velocidad del viento	8
26510	7	Sololá	701	Sololá	1	Sololá	5	Mayo	2023-05-29T00:00:00	2024-11-08T20:00:00	7	Dirección del viento	8.05
26511	7	Sololá	701	Sololá	1	Sololá	5	Mayo	2023-05-29T00:00:00	2024-11-08T20:00:00	1	Precipitación	0
26512	7	Sololá	701	Sololá	1	Sololá	5	Mayo	2023-05-29T00:00:00	2024-11-08T20:00:00	8	Radiación solar	0
26513	7	Sololá	701	Sololá	1	Sololá	5	Mayo	2023-05-29T00:00:00	2024-11-08T21:00:00	2	Temperatura media	14.8
26514	7	Sololá	701	Sololá	1	Sololá	5	Mayo	2023-05-29T00:00:00	2024-11-08T21:00:00	4	Temperatura máxima	16.6
26515	7	Sololá	701	Sololá	1	Sololá	5	Mayo	2023-05-29T00:00:00	2024-11-08T21:00:00	3	Temperatura mínima	14.7
26516	7	Sololá	701	Sololá	1	Sololá	5	Mayo	2023-05-29T00:00:00	2024-11-08T21:00:00	5	Humedad	88
26517	7	Sololá	701	Sololá	1	Sololá	5	Mayo	2023-05-29T00:00:00	2024-11-08T21:00:00	6	Velocidad del viento	4.8
26518	7	Sololá	701	Sololá	1	Sololá	5	Mayo	2023-05-29T00:00:00	2024-11-08T21:00:00	7	Dirección del viento	4.83
26519	7	Sololá	701	Sololá	1	Sololá	5	Mayo	2023-05-29T00:00:00	2024-11-08T21:00:00	1	Precipitación	0
26520	7	Sololá	701	Sololá	1	Sololá	5	Mayo	2023-05-29T00:00:00	2024-11-08T21:00:00	8	Radiación solar	0
26521	7	Sololá	701	Sololá	1	Sololá	5	Mayo	2023-05-29T00:00:00	2024-11-08T22:00:00	2	Temperatura media	14.2
26522	7	Sololá	701	Sololá	1	Sololá	5	Mayo	2023-05-29T00:00:00	2024-11-08T22:00:00	4	Temperatura máxima	15.5
26523	7	Sololá	701	Sololá	1	Sololá	5	Mayo	2023-05-29T00:00:00	2024-11-08T22:00:00	3	Temperatura mínima	14.2
26524	7	Sololá	701	Sololá	1	Sololá	5	Mayo	2023-05-29T00:00:00	2024-11-08T22:00:00	5	Humedad	89
26525	7	Sololá	701	Sololá	1	Sololá	5	Mayo	2023-05-29T00:00:00	2024-11-08T22:00:00	6	Velocidad del viento	4.8
26526	7	Sololá	701	Sololá	1	Sololá	5	Mayo	2023-05-29T00:00:00	2024-11-08T22:00:00	7	Dirección del viento	4.83
26527	7	Sololá	701	Sololá	1	Sololá	5	Mayo	2023-05-29T00:00:00	2024-11-08T22:00:00	1	Precipitación	0
26528	7	Sololá	701	Sololá	1	Sololá	5	Mayo	2023-05-29T00:00:00	2024-11-08T22:00:00	8	Radiación solar	0
26529	7	Sololá	701	Sololá	1	Sololá	5	Mayo	2023-05-29T00:00:00	2024-11-08T23:00:00	2	Temperatura media	14.1
26530	7	Sololá	701	Sololá	1	Sololá	5	Mayo	2023-05-29T00:00:00	2024-11-08T23:00:00	4	Temperatura máxima	14.3
26531	7	Sololá	701	Sololá	1	Sololá	5	Mayo	2023-05-29T00:00:00	2024-11-08T23:00:00	3	Temperatura mínima	13.9
26532	7	Sololá	701	Sololá	1	Sololá	5	Mayo	2023-05-29T00:00:00	2024-11-08T23:00:00	5	Humedad	87
26533	7	Sololá	701	Sololá	1	Sololá	5	Mayo	2023-05-29T00:00:00	2024-11-08T23:00:00	6	Velocidad del viento	3.2
26534	7	Sololá	701	Sololá	1	Sololá	5	Mayo	2023-05-29T00:00:00	2024-11-08T23:00:00	7	Dirección del viento	3.22
26535	7	Sololá	701	Sololá	1	Sololá	5	Mayo	2023-05-29T00:00:00	2024-11-08T23:00:00	1	Precipitación	0
26536	7	Sololá	701	Sololá	1	Sololá	5	Mayo	2023-05-29T00:00:00	2024-11-08T23:00:00	8	Radiación solar	0
26537	7	Sololá	701	Sololá	1	Sololá	5	Mayo	2023-05-30T00:00:00	2024-11-08T00:00:00	2	Temperatura media	14.2
26538	7	Sololá	701	Sololá	1	Sololá	5	Mayo	2023-05-30T00:00:00	2024-11-08T00:00:00	4	Temperatura máxima	14.4
26539	7	Sololá	701	Sololá	1	Sololá	5	Mayo	2023-05-30T00:00:00	2024-11-08T00:00:00	3	Temperatura mínima	14.1
26540	7	Sololá	701	Sololá	1	Sololá	5	Mayo	2023-05-30T00:00:00	2024-11-08T00:00:00	5	Humedad	87
26541	7	Sololá	701	Sololá	1	Sololá	5	Mayo	2023-05-30T00:00:00	2024-11-08T00:00:00	6	Velocidad del viento	3.2
26542	7	Sololá	701	Sololá	1	Sololá	5	Mayo	2023-05-30T00:00:00	2024-11-08T00:00:00	7	Dirección del viento	3.22
26543	7	Sololá	701	Sololá	1	Sololá	5	Mayo	2023-05-30T00:00:00	2024-11-08T00:00:00	1	Precipitación	0
26544	7	Sololá	701	Sololá	1	Sololá	5	Mayo	2023-05-30T00:00:00	2024-11-08T00:00:00	8	Radiación solar	0
26545	7	Sololá	701	Sololá	1	Sololá	5	Mayo	2023-05-30T00:00:00	2024-11-08T01:00:00	2	Temperatura media	13.8
26546	7	Sololá	701	Sololá	1	Sololá	5	Mayo	2023-05-30T00:00:00	2024-11-08T01:00:00	4	Temperatura máxima	14.6
26547	7	Sololá	701	Sololá	1	Sololá	5	Mayo	2023-05-30T00:00:00	2024-11-08T01:00:00	3	Temperatura mínima	13.7
26548	7	Sololá	701	Sololá	1	Sololá	5	Mayo	2023-05-30T00:00:00	2024-11-08T01:00:00	5	Humedad	88
26549	7	Sololá	701	Sololá	1	Sololá	5	Mayo	2023-05-30T00:00:00	2024-11-08T01:00:00	6	Velocidad del viento	3.2
26550	7	Sololá	701	Sololá	1	Sololá	5	Mayo	2023-05-30T00:00:00	2024-11-08T01:00:00	7	Dirección del viento	3.22
26551	7	Sololá	701	Sololá	1	Sololá	5	Mayo	2023-05-30T00:00:00	2024-11-08T01:00:00	1	Precipitación	0
26552	7	Sololá	701	Sololá	1	Sololá	5	Mayo	2023-05-30T00:00:00	2024-11-08T01:00:00	8	Radiación solar	0
26553	7	Sololá	701	Sololá	1	Sololá	5	Mayo	2023-05-30T00:00:00	2024-11-08T02:00:00	2	Temperatura media	14.1
26554	7	Sololá	701	Sololá	1	Sololá	5	Mayo	2023-05-30T00:00:00	2024-11-08T02:00:00	4	Temperatura máxima	14.1
26555	7	Sololá	701	Sololá	1	Sololá	5	Mayo	2023-05-30T00:00:00	2024-11-08T02:00:00	3	Temperatura mínima	13.7
26556	7	Sololá	701	Sololá	1	Sololá	5	Mayo	2023-05-30T00:00:00	2024-11-08T02:00:00	5	Humedad	87
26557	7	Sololá	701	Sololá	1	Sololá	5	Mayo	2023-05-30T00:00:00	2024-11-08T02:00:00	6	Velocidad del viento	4.8
26558	7	Sololá	701	Sololá	1	Sololá	5	Mayo	2023-05-30T00:00:00	2024-11-08T02:00:00	7	Dirección del viento	4.83
26559	7	Sololá	701	Sololá	1	Sololá	5	Mayo	2023-05-30T00:00:00	2024-11-08T02:00:00	1	Precipitación	0
26560	7	Sololá	701	Sololá	1	Sololá	5	Mayo	2023-05-30T00:00:00	2024-11-08T02:00:00	8	Radiación solar	0
26561	7	Sololá	701	Sololá	1	Sololá	5	Mayo	2023-05-30T00:00:00	2024-11-08T03:00:00	2	Temperatura media	14.5
26562	7	Sololá	701	Sololá	1	Sololá	5	Mayo	2023-05-30T00:00:00	2024-11-08T03:00:00	4	Temperatura máxima	15.3
26563	7	Sololá	701	Sololá	1	Sololá	5	Mayo	2023-05-30T00:00:00	2024-11-08T03:00:00	3	Temperatura mínima	13.9
26564	7	Sololá	701	Sololá	1	Sololá	5	Mayo	2023-05-30T00:00:00	2024-11-08T03:00:00	5	Humedad	86
26565	7	Sololá	701	Sololá	1	Sololá	5	Mayo	2023-05-30T00:00:00	2024-11-08T03:00:00	6	Velocidad del viento	3.2
26566	7	Sololá	701	Sololá	1	Sololá	5	Mayo	2023-05-30T00:00:00	2024-11-08T03:00:00	7	Dirección del viento	3.22
26567	7	Sololá	701	Sololá	1	Sololá	5	Mayo	2023-05-30T00:00:00	2024-11-08T03:00:00	1	Precipitación	0
26568	7	Sololá	701	Sololá	1	Sololá	5	Mayo	2023-05-30T00:00:00	2024-11-08T03:00:00	8	Radiación solar	0
26569	7	Sololá	701	Sololá	1	Sololá	5	Mayo	2023-05-30T00:00:00	2024-11-08T04:00:00	2	Temperatura media	14.1
26570	7	Sololá	701	Sololá	1	Sololá	5	Mayo	2023-05-30T00:00:00	2024-11-08T04:00:00	4	Temperatura máxima	14.5
26571	7	Sololá	701	Sololá	1	Sololá	5	Mayo	2023-05-30T00:00:00	2024-11-08T04:00:00	3	Temperatura mínima	14.1
26572	7	Sololá	701	Sololá	1	Sololá	5	Mayo	2023-05-30T00:00:00	2024-11-08T04:00:00	5	Humedad	87
26573	7	Sololá	701	Sololá	1	Sololá	5	Mayo	2023-05-30T00:00:00	2024-11-08T04:00:00	6	Velocidad del viento	3.2
26574	7	Sololá	701	Sololá	1	Sololá	5	Mayo	2023-05-30T00:00:00	2024-11-08T04:00:00	7	Dirección del viento	3.22
26575	7	Sololá	701	Sololá	1	Sololá	5	Mayo	2023-05-30T00:00:00	2024-11-08T04:00:00	1	Precipitación	0
26576	7	Sololá	701	Sololá	1	Sololá	5	Mayo	2023-05-30T00:00:00	2024-11-08T04:00:00	8	Radiación solar	0
26577	7	Sololá	701	Sololá	1	Sololá	5	Mayo	2023-05-30T00:00:00	2024-11-08T05:00:00	2	Temperatura media	13.8
26578	7	Sololá	701	Sololá	1	Sololá	5	Mayo	2023-05-30T00:00:00	2024-11-08T05:00:00	4	Temperatura máxima	14.2
26579	7	Sololá	701	Sololá	1	Sololá	5	Mayo	2023-05-30T00:00:00	2024-11-08T05:00:00	3	Temperatura mínima	13.8
26580	7	Sololá	701	Sololá	1	Sololá	5	Mayo	2023-05-30T00:00:00	2024-11-08T05:00:00	5	Humedad	87
26581	7	Sololá	701	Sololá	1	Sololá	5	Mayo	2023-05-30T00:00:00	2024-11-08T05:00:00	6	Velocidad del viento	3.2
26582	7	Sololá	701	Sololá	1	Sololá	5	Mayo	2023-05-30T00:00:00	2024-11-08T05:00:00	7	Dirección del viento	3.22
26583	7	Sololá	701	Sololá	1	Sololá	5	Mayo	2023-05-30T00:00:00	2024-11-08T05:00:00	1	Precipitación	0
26584	7	Sololá	701	Sololá	1	Sololá	5	Mayo	2023-05-30T00:00:00	2024-11-08T05:00:00	8	Radiación solar	0
26585	7	Sololá	701	Sololá	1	Sololá	5	Mayo	2023-05-30T00:00:00	2024-11-08T06:00:00	2	Temperatura media	13.9
26586	7	Sololá	701	Sololá	1	Sololá	5	Mayo	2023-05-30T00:00:00	2024-11-08T06:00:00	4	Temperatura máxima	14.3
26587	7	Sololá	701	Sololá	1	Sololá	5	Mayo	2023-05-30T00:00:00	2024-11-08T06:00:00	3	Temperatura mínima	13.8
26588	7	Sololá	701	Sololá	1	Sololá	5	Mayo	2023-05-30T00:00:00	2024-11-08T06:00:00	5	Humedad	87
26589	7	Sololá	701	Sololá	1	Sololá	5	Mayo	2023-05-30T00:00:00	2024-11-08T06:00:00	6	Velocidad del viento	3.2
26590	7	Sololá	701	Sololá	1	Sololá	5	Mayo	2023-05-30T00:00:00	2024-11-08T06:00:00	7	Dirección del viento	3.22
26591	7	Sololá	701	Sololá	1	Sololá	5	Mayo	2023-05-30T00:00:00	2024-11-08T06:00:00	1	Precipitación	0
26592	7	Sololá	701	Sololá	1	Sololá	5	Mayo	2023-05-30T00:00:00	2024-11-08T06:00:00	8	Radiación solar	9
26593	7	Sololá	701	Sololá	1	Sololá	5	Mayo	2023-05-30T00:00:00	2024-11-08T07:00:00	2	Temperatura media	15.8
26594	7	Sololá	701	Sololá	1	Sololá	5	Mayo	2023-05-30T00:00:00	2024-11-08T07:00:00	4	Temperatura máxima	15.8
26595	7	Sololá	701	Sololá	1	Sololá	5	Mayo	2023-05-30T00:00:00	2024-11-08T07:00:00	3	Temperatura mínima	13.8
26596	7	Sololá	701	Sololá	1	Sololá	5	Mayo	2023-05-30T00:00:00	2024-11-08T07:00:00	5	Humedad	80
26597	7	Sololá	701	Sololá	1	Sololá	5	Mayo	2023-05-30T00:00:00	2024-11-08T07:00:00	6	Velocidad del viento	3.2
26598	7	Sololá	701	Sololá	1	Sololá	5	Mayo	2023-05-30T00:00:00	2024-11-08T07:00:00	7	Dirección del viento	3.22
26599	7	Sololá	701	Sololá	1	Sololá	5	Mayo	2023-05-30T00:00:00	2024-11-08T07:00:00	1	Precipitación	0
26600	7	Sololá	701	Sololá	1	Sololá	5	Mayo	2023-05-30T00:00:00	2024-11-08T07:00:00	8	Radiación solar	54
26601	7	Sololá	701	Sololá	1	Sololá	5	Mayo	2023-05-30T00:00:00	2024-11-08T08:00:00	2	Temperatura media	17.2
26602	7	Sololá	701	Sololá	1	Sololá	5	Mayo	2023-05-30T00:00:00	2024-11-08T08:00:00	4	Temperatura máxima	17.2
26603	7	Sololá	701	Sololá	1	Sololá	5	Mayo	2023-05-30T00:00:00	2024-11-08T08:00:00	3	Temperatura mínima	15.8
26604	7	Sololá	701	Sololá	1	Sololá	5	Mayo	2023-05-30T00:00:00	2024-11-08T08:00:00	5	Humedad	77
26605	7	Sololá	701	Sololá	1	Sololá	5	Mayo	2023-05-30T00:00:00	2024-11-08T08:00:00	6	Velocidad del viento	1.6
26606	7	Sololá	701	Sololá	1	Sololá	5	Mayo	2023-05-30T00:00:00	2024-11-08T08:00:00	7	Dirección del viento	1.61
26607	7	Sololá	701	Sololá	1	Sololá	5	Mayo	2023-05-30T00:00:00	2024-11-08T08:00:00	1	Precipitación	0
26608	7	Sololá	701	Sololá	1	Sololá	5	Mayo	2023-05-30T00:00:00	2024-11-08T08:00:00	8	Radiación solar	143
26609	7	Sololá	701	Sololá	1	Sololá	5	Mayo	2023-05-30T00:00:00	2024-11-08T09:00:00	2	Temperatura media	19.3
26610	7	Sololá	701	Sololá	1	Sololá	5	Mayo	2023-05-30T00:00:00	2024-11-08T09:00:00	4	Temperatura máxima	19.3
26611	7	Sololá	701	Sololá	1	Sololá	5	Mayo	2023-05-30T00:00:00	2024-11-08T09:00:00	3	Temperatura mínima	17.2
26612	7	Sololá	701	Sololá	1	Sololá	5	Mayo	2023-05-30T00:00:00	2024-11-08T09:00:00	5	Humedad	75
26613	7	Sololá	701	Sololá	1	Sololá	5	Mayo	2023-05-30T00:00:00	2024-11-08T09:00:00	6	Velocidad del viento	3.2
26614	7	Sololá	701	Sololá	1	Sololá	5	Mayo	2023-05-30T00:00:00	2024-11-08T09:00:00	7	Dirección del viento	3.22
26615	7	Sololá	701	Sololá	1	Sololá	5	Mayo	2023-05-30T00:00:00	2024-11-08T09:00:00	1	Precipitación	0
26616	7	Sololá	701	Sololá	1	Sololá	5	Mayo	2023-05-30T00:00:00	2024-11-08T09:00:00	8	Radiación solar	192
26617	7	Sololá	701	Sololá	1	Sololá	5	Mayo	2023-05-30T00:00:00	2024-11-08T10:00:00	2	Temperatura media	19.9
26618	7	Sololá	701	Sololá	1	Sololá	5	Mayo	2023-05-30T00:00:00	2024-11-08T10:00:00	4	Temperatura máxima	20.1
26619	7	Sololá	701	Sololá	1	Sololá	5	Mayo	2023-05-30T00:00:00	2024-11-08T10:00:00	3	Temperatura mínima	19.3
26620	7	Sololá	701	Sololá	1	Sololá	5	Mayo	2023-05-30T00:00:00	2024-11-08T10:00:00	5	Humedad	72
26621	7	Sololá	701	Sololá	1	Sololá	5	Mayo	2023-05-30T00:00:00	2024-11-08T10:00:00	6	Velocidad del viento	3.2
26622	7	Sololá	701	Sololá	1	Sololá	5	Mayo	2023-05-30T00:00:00	2024-11-08T10:00:00	7	Dirección del viento	3.22
26623	7	Sololá	701	Sololá	1	Sololá	5	Mayo	2023-05-30T00:00:00	2024-11-08T10:00:00	1	Precipitación	0
26624	7	Sololá	701	Sololá	1	Sololá	5	Mayo	2023-05-30T00:00:00	2024-11-08T10:00:00	8	Radiación solar	735
26625	7	Sololá	701	Sololá	1	Sololá	5	Mayo	2023-05-30T00:00:00	2024-11-08T11:00:00	2	Temperatura media	20.1
26626	7	Sololá	701	Sololá	1	Sololá	5	Mayo	2023-05-30T00:00:00	2024-11-08T11:00:00	4	Temperatura máxima	20.4
26627	7	Sololá	701	Sololá	1	Sololá	5	Mayo	2023-05-30T00:00:00	2024-11-08T11:00:00	3	Temperatura mínima	19.8
26628	7	Sololá	701	Sololá	1	Sololá	5	Mayo	2023-05-30T00:00:00	2024-11-08T11:00:00	5	Humedad	76
26629	7	Sololá	701	Sololá	1	Sololá	5	Mayo	2023-05-30T00:00:00	2024-11-08T11:00:00	6	Velocidad del viento	4.8
26630	7	Sololá	701	Sololá	1	Sololá	5	Mayo	2023-05-30T00:00:00	2024-11-08T11:00:00	7	Dirección del viento	4.83
26631	7	Sololá	701	Sololá	1	Sololá	5	Mayo	2023-05-30T00:00:00	2024-11-08T11:00:00	1	Precipitación	0
26632	7	Sololá	701	Sololá	1	Sololá	5	Mayo	2023-05-30T00:00:00	2024-11-08T11:00:00	8	Radiación solar	721
26633	7	Sololá	701	Sololá	1	Sololá	5	Mayo	2023-05-30T00:00:00	2024-11-08T12:00:00	2	Temperatura media	20.1
26634	7	Sololá	701	Sololá	1	Sololá	5	Mayo	2023-05-30T00:00:00	2024-11-08T12:00:00	4	Temperatura máxima	20.9
26635	7	Sololá	701	Sololá	1	Sololá	5	Mayo	2023-05-30T00:00:00	2024-11-08T12:00:00	3	Temperatura mínima	19.9
26636	7	Sololá	701	Sololá	1	Sololá	5	Mayo	2023-05-30T00:00:00	2024-11-08T12:00:00	5	Humedad	78
26637	7	Sololá	701	Sololá	1	Sololá	5	Mayo	2023-05-30T00:00:00	2024-11-08T12:00:00	6	Velocidad del viento	6.4
26638	7	Sololá	701	Sololá	1	Sololá	5	Mayo	2023-05-30T00:00:00	2024-11-08T12:00:00	7	Dirección del viento	6.44
26639	7	Sololá	701	Sololá	1	Sololá	5	Mayo	2023-05-30T00:00:00	2024-11-08T12:00:00	1	Precipitación	0
26640	7	Sololá	701	Sololá	1	Sololá	5	Mayo	2023-05-30T00:00:00	2024-11-08T12:00:00	8	Radiación solar	357
26641	7	Sololá	701	Sololá	1	Sololá	5	Mayo	2023-05-30T00:00:00	2024-11-08T13:00:00	2	Temperatura media	18.6
26642	7	Sololá	701	Sololá	1	Sololá	5	Mayo	2023-05-30T00:00:00	2024-11-08T13:00:00	4	Temperatura máxima	20
26643	7	Sololá	701	Sololá	1	Sololá	5	Mayo	2023-05-30T00:00:00	2024-11-08T13:00:00	3	Temperatura mínima	18.6
26644	7	Sololá	701	Sololá	1	Sololá	5	Mayo	2023-05-30T00:00:00	2024-11-08T13:00:00	5	Humedad	86
26645	7	Sololá	701	Sololá	1	Sololá	5	Mayo	2023-05-30T00:00:00	2024-11-08T13:00:00	6	Velocidad del viento	4.8
26646	7	Sololá	701	Sololá	1	Sololá	5	Mayo	2023-05-30T00:00:00	2024-11-08T13:00:00	7	Dirección del viento	4.83
26647	7	Sololá	701	Sololá	1	Sololá	5	Mayo	2023-05-30T00:00:00	2024-11-08T13:00:00	1	Precipitación	0
26648	7	Sololá	701	Sololá	1	Sololá	5	Mayo	2023-05-30T00:00:00	2024-11-08T13:00:00	8	Radiación solar	189
26649	7	Sololá	701	Sololá	1	Sololá	5	Mayo	2023-05-30T00:00:00	2024-11-08T14:00:00	2	Temperatura media	17.7
26650	7	Sololá	701	Sololá	1	Sololá	5	Mayo	2023-05-30T00:00:00	2024-11-08T14:00:00	4	Temperatura máxima	18.6
26651	7	Sololá	701	Sololá	1	Sololá	5	Mayo	2023-05-30T00:00:00	2024-11-08T14:00:00	3	Temperatura mínima	17.5
26652	7	Sololá	701	Sololá	1	Sololá	5	Mayo	2023-05-30T00:00:00	2024-11-08T14:00:00	5	Humedad	91
26653	7	Sololá	701	Sololá	1	Sololá	5	Mayo	2023-05-30T00:00:00	2024-11-08T14:00:00	6	Velocidad del viento	3.2
26654	7	Sololá	701	Sololá	1	Sololá	5	Mayo	2023-05-30T00:00:00	2024-11-08T14:00:00	7	Dirección del viento	3.22
26655	7	Sololá	701	Sololá	1	Sololá	5	Mayo	2023-05-30T00:00:00	2024-11-08T14:00:00	1	Precipitación	0.4
26656	7	Sololá	701	Sololá	1	Sololá	5	Mayo	2023-05-30T00:00:00	2024-11-08T14:00:00	8	Radiación solar	169
26657	7	Sololá	701	Sololá	1	Sololá	5	Mayo	2023-05-30T00:00:00	2024-11-08T15:00:00	2	Temperatura media	15.6
26658	7	Sololá	701	Sololá	1	Sololá	5	Mayo	2023-05-30T00:00:00	2024-11-08T15:00:00	4	Temperatura máxima	17.7
26659	7	Sololá	701	Sololá	1	Sololá	5	Mayo	2023-05-30T00:00:00	2024-11-08T15:00:00	3	Temperatura mínima	15.6
26660	7	Sololá	701	Sololá	1	Sololá	5	Mayo	2023-05-30T00:00:00	2024-11-08T15:00:00	5	Humedad	94
26661	7	Sololá	701	Sololá	1	Sololá	5	Mayo	2023-05-30T00:00:00	2024-11-08T15:00:00	6	Velocidad del viento	4.8
26662	7	Sololá	701	Sololá	1	Sololá	5	Mayo	2023-05-30T00:00:00	2024-11-08T15:00:00	7	Dirección del viento	4.83
26663	7	Sololá	701	Sololá	1	Sololá	5	Mayo	2023-05-30T00:00:00	2024-11-08T15:00:00	1	Precipitación	0.6
26664	7	Sololá	701	Sololá	1	Sololá	5	Mayo	2023-05-30T00:00:00	2024-11-08T15:00:00	8	Radiación solar	40
26665	7	Sololá	701	Sololá	1	Sololá	5	Mayo	2023-05-30T00:00:00	2024-11-08T16:00:00	2	Temperatura media	16.2
26666	7	Sololá	701	Sololá	1	Sololá	5	Mayo	2023-05-30T00:00:00	2024-11-08T16:00:00	4	Temperatura máxima	16.4
26667	7	Sololá	701	Sololá	1	Sololá	5	Mayo	2023-05-30T00:00:00	2024-11-08T16:00:00	3	Temperatura mínima	15.6
26668	7	Sololá	701	Sololá	1	Sololá	5	Mayo	2023-05-30T00:00:00	2024-11-08T16:00:00	5	Humedad	93
26669	7	Sololá	701	Sololá	1	Sololá	5	Mayo	2023-05-30T00:00:00	2024-11-08T16:00:00	6	Velocidad del viento	1.6
26670	7	Sololá	701	Sololá	1	Sololá	5	Mayo	2023-05-30T00:00:00	2024-11-08T16:00:00	7	Dirección del viento	1.61
26671	7	Sololá	701	Sololá	1	Sololá	5	Mayo	2023-05-30T00:00:00	2024-11-08T16:00:00	1	Precipitación	0
26672	7	Sololá	701	Sololá	1	Sololá	5	Mayo	2023-05-30T00:00:00	2024-11-08T16:00:00	8	Radiación solar	16
26673	7	Sololá	701	Sololá	1	Sololá	5	Mayo	2023-05-30T00:00:00	2024-11-08T17:00:00	2	Temperatura media	16
26674	7	Sololá	701	Sololá	1	Sololá	5	Mayo	2023-05-30T00:00:00	2024-11-08T17:00:00	4	Temperatura máxima	16.2
26675	7	Sololá	701	Sololá	1	Sololá	5	Mayo	2023-05-30T00:00:00	2024-11-08T17:00:00	3	Temperatura mínima	15.6
26676	7	Sololá	701	Sololá	1	Sololá	5	Mayo	2023-05-30T00:00:00	2024-11-08T17:00:00	5	Humedad	91
26677	7	Sololá	701	Sololá	1	Sololá	5	Mayo	2023-05-30T00:00:00	2024-11-08T17:00:00	6	Velocidad del viento	3.2
26678	7	Sololá	701	Sololá	1	Sololá	5	Mayo	2023-05-30T00:00:00	2024-11-08T17:00:00	7	Dirección del viento	3.22
26679	7	Sololá	701	Sololá	1	Sololá	5	Mayo	2023-05-30T00:00:00	2024-11-08T17:00:00	1	Precipitación	0
26680	7	Sololá	701	Sololá	1	Sololá	5	Mayo	2023-05-30T00:00:00	2024-11-08T17:00:00	8	Radiación solar	17
26681	7	Sololá	701	Sololá	1	Sololá	5	Mayo	2023-05-30T00:00:00	2024-11-08T18:00:00	2	Temperatura media	15.8
26682	7	Sololá	701	Sololá	1	Sololá	5	Mayo	2023-05-30T00:00:00	2024-11-08T18:00:00	4	Temperatura máxima	16.2
26683	7	Sololá	701	Sololá	1	Sololá	5	Mayo	2023-05-30T00:00:00	2024-11-08T18:00:00	3	Temperatura mínima	15.4
26684	7	Sololá	701	Sololá	1	Sololá	5	Mayo	2023-05-30T00:00:00	2024-11-08T18:00:00	5	Humedad	83
26685	7	Sololá	701	Sololá	1	Sololá	5	Mayo	2023-05-30T00:00:00	2024-11-08T18:00:00	6	Velocidad del viento	12.9
26686	7	Sololá	701	Sololá	1	Sololá	5	Mayo	2023-05-30T00:00:00	2024-11-08T18:00:00	7	Dirección del viento	12.87
26687	7	Sololá	701	Sololá	1	Sololá	5	Mayo	2023-05-30T00:00:00	2024-11-08T18:00:00	1	Precipitación	1
26688	7	Sololá	701	Sololá	1	Sololá	5	Mayo	2023-05-30T00:00:00	2024-11-08T18:00:00	8	Radiación solar	8
26689	7	Sololá	701	Sololá	1	Sololá	5	Mayo	2023-05-30T00:00:00	2024-11-08T19:00:00	2	Temperatura media	16.1
26690	7	Sololá	701	Sololá	1	Sololá	5	Mayo	2023-05-30T00:00:00	2024-11-08T19:00:00	4	Temperatura máxima	16.2
26691	7	Sololá	701	Sololá	1	Sololá	5	Mayo	2023-05-30T00:00:00	2024-11-08T19:00:00	3	Temperatura mínima	15.1
26692	7	Sololá	701	Sololá	1	Sololá	5	Mayo	2023-05-30T00:00:00	2024-11-08T19:00:00	5	Humedad	80
26693	7	Sololá	701	Sololá	1	Sololá	5	Mayo	2023-05-30T00:00:00	2024-11-08T19:00:00	6	Velocidad del viento	11.3
26694	7	Sololá	701	Sololá	1	Sololá	5	Mayo	2023-05-30T00:00:00	2024-11-08T19:00:00	7	Dirección del viento	11.27
26695	7	Sololá	701	Sololá	1	Sololá	5	Mayo	2023-05-30T00:00:00	2024-11-08T19:00:00	1	Precipitación	0
26696	7	Sololá	701	Sololá	1	Sololá	5	Mayo	2023-05-30T00:00:00	2024-11-08T19:00:00	8	Radiación solar	0
26697	7	Sololá	701	Sololá	1	Sololá	5	Mayo	2023-05-30T00:00:00	2024-11-08T20:00:00	2	Temperatura media	14.6
26698	7	Sololá	701	Sololá	1	Sololá	5	Mayo	2023-05-30T00:00:00	2024-11-08T20:00:00	4	Temperatura máxima	16.1
26699	7	Sololá	701	Sololá	1	Sololá	5	Mayo	2023-05-30T00:00:00	2024-11-08T20:00:00	3	Temperatura mínima	14.4
26700	7	Sololá	701	Sololá	1	Sololá	5	Mayo	2023-05-30T00:00:00	2024-11-08T20:00:00	5	Humedad	85
26701	7	Sololá	701	Sololá	1	Sololá	5	Mayo	2023-05-30T00:00:00	2024-11-08T20:00:00	6	Velocidad del viento	9.7
26702	7	Sololá	701	Sololá	1	Sololá	5	Mayo	2023-05-30T00:00:00	2024-11-08T20:00:00	7	Dirección del viento	9.66
26703	7	Sololá	701	Sololá	1	Sololá	5	Mayo	2023-05-30T00:00:00	2024-11-08T20:00:00	1	Precipitación	0
26704	7	Sololá	701	Sololá	1	Sololá	5	Mayo	2023-05-30T00:00:00	2024-11-08T20:00:00	8	Radiación solar	0
26705	7	Sololá	701	Sololá	1	Sololá	5	Mayo	2023-05-30T00:00:00	2024-11-08T21:00:00	2	Temperatura media	14.3
26706	7	Sololá	701	Sololá	1	Sololá	5	Mayo	2023-05-30T00:00:00	2024-11-08T21:00:00	4	Temperatura máxima	14.6
26707	7	Sololá	701	Sololá	1	Sololá	5	Mayo	2023-05-30T00:00:00	2024-11-08T21:00:00	3	Temperatura mínima	14.3
26708	7	Sololá	701	Sololá	1	Sololá	5	Mayo	2023-05-30T00:00:00	2024-11-08T21:00:00	5	Humedad	83
26709	7	Sololá	701	Sololá	1	Sololá	5	Mayo	2023-05-30T00:00:00	2024-11-08T21:00:00	6	Velocidad del viento	9.7
26710	7	Sololá	701	Sololá	1	Sololá	5	Mayo	2023-05-30T00:00:00	2024-11-08T21:00:00	7	Dirección del viento	9.66
26711	7	Sololá	701	Sololá	1	Sololá	5	Mayo	2023-05-30T00:00:00	2024-11-08T21:00:00	1	Precipitación	0
26712	7	Sololá	701	Sololá	1	Sololá	5	Mayo	2023-05-30T00:00:00	2024-11-08T21:00:00	8	Radiación solar	0
26713	7	Sololá	701	Sololá	1	Sololá	5	Mayo	2023-05-30T00:00:00	2024-11-08T22:00:00	2	Temperatura media	14.7
26714	7	Sololá	701	Sololá	1	Sololá	5	Mayo	2023-05-30T00:00:00	2024-11-08T22:00:00	4	Temperatura máxima	15
26715	7	Sololá	701	Sololá	1	Sololá	5	Mayo	2023-05-30T00:00:00	2024-11-08T22:00:00	3	Temperatura mínima	14.3
26716	7	Sololá	701	Sololá	1	Sololá	5	Mayo	2023-05-30T00:00:00	2024-11-08T22:00:00	5	Humedad	85
26717	7	Sololá	701	Sololá	1	Sololá	5	Mayo	2023-05-30T00:00:00	2024-11-08T22:00:00	6	Velocidad del viento	3.2
26718	7	Sololá	701	Sololá	1	Sololá	5	Mayo	2023-05-30T00:00:00	2024-11-08T22:00:00	7	Dirección del viento	3.22
26719	7	Sololá	701	Sololá	1	Sololá	5	Mayo	2023-05-30T00:00:00	2024-11-08T22:00:00	1	Precipitación	0
26720	7	Sololá	701	Sololá	1	Sololá	5	Mayo	2023-05-30T00:00:00	2024-11-08T22:00:00	8	Radiación solar	0
26721	7	Sololá	701	Sololá	1	Sololá	5	Mayo	2023-05-30T00:00:00	2024-11-08T23:00:00	2	Temperatura media	14.7
26722	7	Sololá	701	Sololá	1	Sololá	5	Mayo	2023-05-30T00:00:00	2024-11-08T23:00:00	4	Temperatura máxima	15.4
26723	7	Sololá	701	Sololá	1	Sololá	5	Mayo	2023-05-30T00:00:00	2024-11-08T23:00:00	3	Temperatura mínima	14.6
26724	7	Sololá	701	Sololá	1	Sololá	5	Mayo	2023-05-30T00:00:00	2024-11-08T23:00:00	5	Humedad	81
26725	7	Sololá	701	Sololá	1	Sololá	5	Mayo	2023-05-30T00:00:00	2024-11-08T23:00:00	6	Velocidad del viento	3.2
26726	7	Sololá	701	Sololá	1	Sololá	5	Mayo	2023-05-30T00:00:00	2024-11-08T23:00:00	7	Dirección del viento	3.22
26727	7	Sololá	701	Sololá	1	Sololá	5	Mayo	2023-05-30T00:00:00	2024-11-08T23:00:00	1	Precipitación	0
26728	7	Sololá	701	Sololá	1	Sololá	5	Mayo	2023-05-30T00:00:00	2024-11-08T23:00:00	8	Radiación solar	0
26729	7	Sololá	701	Sololá	1	Sololá	5	Mayo	2023-05-31T00:00:00	2024-11-08T00:00:00	2	Temperatura media	14.3
26730	7	Sololá	701	Sololá	1	Sololá	5	Mayo	2023-05-31T00:00:00	2024-11-08T00:00:00	4	Temperatura máxima	15.7
26731	7	Sololá	701	Sololá	1	Sololá	5	Mayo	2023-05-31T00:00:00	2024-11-08T00:00:00	3	Temperatura mínima	14.2
26732	7	Sololá	701	Sololá	1	Sololá	5	Mayo	2023-05-31T00:00:00	2024-11-08T00:00:00	5	Humedad	84
26733	7	Sololá	701	Sololá	1	Sololá	5	Mayo	2023-05-31T00:00:00	2024-11-08T00:00:00	6	Velocidad del viento	4.8
26734	7	Sololá	701	Sololá	1	Sololá	5	Mayo	2023-05-31T00:00:00	2024-11-08T00:00:00	7	Dirección del viento	4.83
26735	7	Sololá	701	Sololá	1	Sololá	5	Mayo	2023-05-31T00:00:00	2024-11-08T00:00:00	1	Precipitación	0
26736	7	Sololá	701	Sololá	1	Sololá	5	Mayo	2023-05-31T00:00:00	2024-11-08T00:00:00	8	Radiación solar	0
26737	7	Sololá	701	Sololá	1	Sololá	5	Mayo	2023-05-31T00:00:00	2024-11-08T01:00:00	2	Temperatura media	14.2
26738	7	Sololá	701	Sololá	1	Sololá	5	Mayo	2023-05-31T00:00:00	2024-11-08T01:00:00	4	Temperatura máxima	14.6
26739	7	Sololá	701	Sololá	1	Sololá	5	Mayo	2023-05-31T00:00:00	2024-11-08T01:00:00	3	Temperatura mínima	14.1
26740	7	Sololá	701	Sololá	1	Sololá	5	Mayo	2023-05-31T00:00:00	2024-11-08T01:00:00	5	Humedad	85
26741	7	Sololá	701	Sololá	1	Sololá	5	Mayo	2023-05-31T00:00:00	2024-11-08T01:00:00	6	Velocidad del viento	1.6
26742	7	Sololá	701	Sololá	1	Sololá	5	Mayo	2023-05-31T00:00:00	2024-11-08T01:00:00	7	Dirección del viento	1.61
26743	7	Sololá	701	Sololá	1	Sololá	5	Mayo	2023-05-31T00:00:00	2024-11-08T01:00:00	1	Precipitación	0
26744	7	Sololá	701	Sololá	1	Sololá	5	Mayo	2023-05-31T00:00:00	2024-11-08T01:00:00	8	Radiación solar	0
26745	7	Sololá	701	Sololá	1	Sololá	5	Mayo	2023-05-31T00:00:00	2024-11-08T02:00:00	2	Temperatura media	14.7
26746	7	Sololá	701	Sololá	1	Sololá	5	Mayo	2023-05-31T00:00:00	2024-11-08T02:00:00	4	Temperatura máxima	14.7
26747	7	Sololá	701	Sololá	1	Sololá	5	Mayo	2023-05-31T00:00:00	2024-11-08T02:00:00	3	Temperatura mínima	14.1
26748	7	Sololá	701	Sololá	1	Sololá	5	Mayo	2023-05-31T00:00:00	2024-11-08T02:00:00	5	Humedad	82
26749	7	Sololá	701	Sololá	1	Sololá	5	Mayo	2023-05-31T00:00:00	2024-11-08T02:00:00	6	Velocidad del viento	1.6
26750	7	Sololá	701	Sololá	1	Sololá	5	Mayo	2023-05-31T00:00:00	2024-11-08T02:00:00	7	Dirección del viento	1.61
26751	7	Sololá	701	Sololá	1	Sololá	5	Mayo	2023-05-31T00:00:00	2024-11-08T02:00:00	1	Precipitación	0
26752	7	Sololá	701	Sololá	1	Sololá	5	Mayo	2023-05-31T00:00:00	2024-11-08T02:00:00	8	Radiación solar	0
26753	7	Sololá	701	Sololá	1	Sololá	5	Mayo	2023-05-31T00:00:00	2024-11-08T03:00:00	2	Temperatura media	14.1
26754	7	Sololá	701	Sololá	1	Sololá	5	Mayo	2023-05-31T00:00:00	2024-11-08T03:00:00	4	Temperatura máxima	14.7
26755	7	Sololá	701	Sololá	1	Sololá	5	Mayo	2023-05-31T00:00:00	2024-11-08T03:00:00	3	Temperatura mínima	14.1
26756	7	Sololá	701	Sololá	1	Sololá	5	Mayo	2023-05-31T00:00:00	2024-11-08T03:00:00	5	Humedad	85
26757	7	Sololá	701	Sololá	1	Sololá	5	Mayo	2023-05-31T00:00:00	2024-11-08T03:00:00	6	Velocidad del viento	1.6
26758	7	Sololá	701	Sololá	1	Sololá	5	Mayo	2023-05-31T00:00:00	2024-11-08T03:00:00	7	Dirección del viento	1.61
26759	7	Sololá	701	Sololá	1	Sololá	5	Mayo	2023-05-31T00:00:00	2024-11-08T03:00:00	1	Precipitación	0
26760	7	Sololá	701	Sololá	1	Sololá	5	Mayo	2023-05-31T00:00:00	2024-11-08T03:00:00	8	Radiación solar	0
26761	7	Sololá	701	Sololá	1	Sololá	5	Mayo	2023-05-31T00:00:00	2024-11-08T04:00:00	2	Temperatura media	13.7
26762	7	Sololá	701	Sololá	1	Sololá	5	Mayo	2023-05-31T00:00:00	2024-11-08T04:00:00	4	Temperatura máxima	14.2
26763	7	Sololá	701	Sololá	1	Sololá	5	Mayo	2023-05-31T00:00:00	2024-11-08T04:00:00	3	Temperatura mínima	13.6
26764	7	Sololá	701	Sololá	1	Sololá	5	Mayo	2023-05-31T00:00:00	2024-11-08T04:00:00	5	Humedad	86
26765	7	Sololá	701	Sololá	1	Sololá	5	Mayo	2023-05-31T00:00:00	2024-11-08T04:00:00	6	Velocidad del viento	3.2
26766	7	Sololá	701	Sololá	1	Sololá	5	Mayo	2023-05-31T00:00:00	2024-11-08T04:00:00	7	Dirección del viento	3.22
26767	7	Sololá	701	Sololá	1	Sololá	5	Mayo	2023-05-31T00:00:00	2024-11-08T04:00:00	1	Precipitación	0
26768	7	Sololá	701	Sololá	1	Sololá	5	Mayo	2023-05-31T00:00:00	2024-11-08T04:00:00	8	Radiación solar	0
26769	7	Sololá	701	Sololá	1	Sololá	5	Mayo	2023-05-31T00:00:00	2024-11-08T05:00:00	2	Temperatura media	12.8
26770	7	Sololá	701	Sololá	1	Sololá	5	Mayo	2023-05-31T00:00:00	2024-11-08T05:00:00	4	Temperatura máxima	13.7
26771	7	Sololá	701	Sololá	1	Sololá	5	Mayo	2023-05-31T00:00:00	2024-11-08T05:00:00	3	Temperatura mínima	12.7
26772	7	Sololá	701	Sololá	1	Sololá	5	Mayo	2023-05-31T00:00:00	2024-11-08T05:00:00	5	Humedad	87
26773	7	Sololá	701	Sololá	1	Sololá	5	Mayo	2023-05-31T00:00:00	2024-11-08T05:00:00	6	Velocidad del viento	3.2
26774	7	Sololá	701	Sololá	1	Sololá	5	Mayo	2023-05-31T00:00:00	2024-11-08T05:00:00	7	Dirección del viento	3.22
26775	7	Sololá	701	Sololá	1	Sololá	5	Mayo	2023-05-31T00:00:00	2024-11-08T05:00:00	1	Precipitación	0
26776	7	Sololá	701	Sololá	1	Sololá	5	Mayo	2023-05-31T00:00:00	2024-11-08T05:00:00	8	Radiación solar	0
26777	7	Sololá	701	Sololá	1	Sololá	5	Mayo	2023-05-31T00:00:00	2024-11-08T06:00:00	2	Temperatura media	12.5
26778	7	Sololá	701	Sololá	1	Sololá	5	Mayo	2023-05-31T00:00:00	2024-11-08T06:00:00	4	Temperatura máxima	12.9
26779	7	Sololá	701	Sololá	1	Sololá	5	Mayo	2023-05-31T00:00:00	2024-11-08T06:00:00	3	Temperatura mínima	12.3
26780	7	Sololá	701	Sololá	1	Sololá	5	Mayo	2023-05-31T00:00:00	2024-11-08T06:00:00	5	Humedad	89
26781	7	Sololá	701	Sololá	1	Sololá	5	Mayo	2023-05-31T00:00:00	2024-11-08T06:00:00	6	Velocidad del viento	4.8
26782	7	Sololá	701	Sololá	1	Sololá	5	Mayo	2023-05-31T00:00:00	2024-11-08T06:00:00	7	Dirección del viento	4.83
26783	7	Sololá	701	Sololá	1	Sololá	5	Mayo	2023-05-31T00:00:00	2024-11-08T06:00:00	1	Precipitación	0
26784	7	Sololá	701	Sololá	1	Sololá	5	Mayo	2023-05-31T00:00:00	2024-11-08T06:00:00	8	Radiación solar	4
26785	7	Sololá	701	Sololá	1	Sololá	5	Mayo	2023-05-31T00:00:00	2024-11-08T07:00:00	2	Temperatura media	15
26786	7	Sololá	701	Sololá	1	Sololá	5	Mayo	2023-05-31T00:00:00	2024-11-08T07:00:00	4	Temperatura máxima	15
26787	7	Sololá	701	Sololá	1	Sololá	5	Mayo	2023-05-31T00:00:00	2024-11-08T07:00:00	3	Temperatura mínima	12.5
26788	7	Sololá	701	Sololá	1	Sololá	5	Mayo	2023-05-31T00:00:00	2024-11-08T07:00:00	5	Humedad	79
26789	7	Sololá	701	Sololá	1	Sololá	5	Mayo	2023-05-31T00:00:00	2024-11-08T07:00:00	6	Velocidad del viento	4.8
26790	7	Sololá	701	Sololá	1	Sololá	5	Mayo	2023-05-31T00:00:00	2024-11-08T07:00:00	7	Dirección del viento	4.83
26791	7	Sololá	701	Sololá	1	Sololá	5	Mayo	2023-05-31T00:00:00	2024-11-08T07:00:00	1	Precipitación	0
26792	7	Sololá	701	Sololá	1	Sololá	5	Mayo	2023-05-31T00:00:00	2024-11-08T07:00:00	8	Radiación solar	55
26793	7	Sololá	701	Sololá	1	Sololá	5	Mayo	2023-05-31T00:00:00	2024-11-08T08:00:00	2	Temperatura media	17.6
26794	7	Sololá	701	Sololá	1	Sololá	5	Mayo	2023-05-31T00:00:00	2024-11-08T08:00:00	4	Temperatura máxima	17.7
26795	7	Sololá	701	Sololá	1	Sololá	5	Mayo	2023-05-31T00:00:00	2024-11-08T08:00:00	3	Temperatura mínima	15
26796	7	Sololá	701	Sololá	1	Sololá	5	Mayo	2023-05-31T00:00:00	2024-11-08T08:00:00	5	Humedad	78
26797	7	Sololá	701	Sololá	1	Sololá	5	Mayo	2023-05-31T00:00:00	2024-11-08T08:00:00	6	Velocidad del viento	0
26798	7	Sololá	701	Sololá	1	Sololá	5	Mayo	2023-05-31T00:00:00	2024-11-08T08:00:00	7	Dirección del viento	0
26799	7	Sololá	701	Sololá	1	Sololá	5	Mayo	2023-05-31T00:00:00	2024-11-08T08:00:00	1	Precipitación	0
26800	7	Sololá	701	Sololá	1	Sololá	5	Mayo	2023-05-31T00:00:00	2024-11-08T08:00:00	8	Radiación solar	126
26801	7	Sololá	701	Sololá	1	Sololá	5	Mayo	2023-05-31T00:00:00	2024-11-08T09:00:00	2	Temperatura media	18.5
26802	7	Sololá	701	Sololá	1	Sololá	5	Mayo	2023-05-31T00:00:00	2024-11-08T09:00:00	4	Temperatura máxima	18.8
26803	7	Sololá	701	Sololá	1	Sololá	5	Mayo	2023-05-31T00:00:00	2024-11-08T09:00:00	3	Temperatura mínima	17.4
26804	7	Sololá	701	Sololá	1	Sololá	5	Mayo	2023-05-31T00:00:00	2024-11-08T09:00:00	5	Humedad	83
26805	7	Sololá	701	Sololá	1	Sololá	5	Mayo	2023-05-31T00:00:00	2024-11-08T09:00:00	6	Velocidad del viento	1.6
26806	7	Sololá	701	Sololá	1	Sololá	5	Mayo	2023-05-31T00:00:00	2024-11-08T09:00:00	7	Dirección del viento	1.61
26807	7	Sololá	701	Sololá	1	Sololá	5	Mayo	2023-05-31T00:00:00	2024-11-08T09:00:00	1	Precipitación	0
26808	7	Sololá	701	Sololá	1	Sololá	5	Mayo	2023-05-31T00:00:00	2024-11-08T09:00:00	8	Radiación solar	391
26809	7	Sololá	701	Sololá	1	Sololá	5	Mayo	2023-05-31T00:00:00	2024-11-08T10:00:00	2	Temperatura media	18.9
26810	7	Sololá	701	Sololá	1	Sololá	5	Mayo	2023-05-31T00:00:00	2024-11-08T10:00:00	4	Temperatura máxima	19.5
26811	7	Sololá	701	Sololá	1	Sololá	5	Mayo	2023-05-31T00:00:00	2024-11-08T10:00:00	3	Temperatura mínima	18.4
26812	7	Sololá	701	Sololá	1	Sololá	5	Mayo	2023-05-31T00:00:00	2024-11-08T10:00:00	5	Humedad	80
26813	7	Sololá	701	Sololá	1	Sololá	5	Mayo	2023-05-31T00:00:00	2024-11-08T10:00:00	6	Velocidad del viento	4.8
26814	7	Sololá	701	Sololá	1	Sololá	5	Mayo	2023-05-31T00:00:00	2024-11-08T10:00:00	7	Dirección del viento	4.83
26815	7	Sololá	701	Sololá	1	Sololá	5	Mayo	2023-05-31T00:00:00	2024-11-08T10:00:00	1	Precipitación	0
26816	7	Sololá	701	Sololá	1	Sololá	5	Mayo	2023-05-31T00:00:00	2024-11-08T10:00:00	8	Radiación solar	456
26817	7	Sololá	701	Sololá	1	Sololá	5	Mayo	2023-05-31T00:00:00	2024-11-08T11:00:00	2	Temperatura media	18.9
26818	7	Sololá	701	Sololá	1	Sololá	5	Mayo	2023-05-31T00:00:00	2024-11-08T11:00:00	4	Temperatura máxima	19.7
26819	7	Sololá	701	Sololá	1	Sololá	5	Mayo	2023-05-31T00:00:00	2024-11-08T11:00:00	3	Temperatura mínima	18.8
26820	7	Sololá	701	Sololá	1	Sololá	5	Mayo	2023-05-31T00:00:00	2024-11-08T11:00:00	5	Humedad	82
26821	7	Sololá	701	Sololá	1	Sololá	5	Mayo	2023-05-31T00:00:00	2024-11-08T11:00:00	6	Velocidad del viento	6.4
26822	7	Sololá	701	Sololá	1	Sololá	5	Mayo	2023-05-31T00:00:00	2024-11-08T11:00:00	7	Dirección del viento	6.44
26823	7	Sololá	701	Sololá	1	Sololá	5	Mayo	2023-05-31T00:00:00	2024-11-08T11:00:00	1	Precipitación	0
26824	7	Sololá	701	Sololá	1	Sololá	5	Mayo	2023-05-31T00:00:00	2024-11-08T11:00:00	8	Radiación solar	631
26825	7	Sololá	701	Sololá	1	Sololá	5	Mayo	2023-05-31T00:00:00	2024-11-08T12:00:00	2	Temperatura media	19.7
26826	7	Sololá	701	Sololá	1	Sololá	5	Mayo	2023-05-31T00:00:00	2024-11-08T12:00:00	4	Temperatura máxima	19.7
26827	7	Sololá	701	Sololá	1	Sololá	5	Mayo	2023-05-31T00:00:00	2024-11-08T12:00:00	3	Temperatura mínima	18.9
26828	7	Sololá	701	Sololá	1	Sololá	5	Mayo	2023-05-31T00:00:00	2024-11-08T12:00:00	5	Humedad	79
26829	7	Sololá	701	Sololá	1	Sololá	5	Mayo	2023-05-31T00:00:00	2024-11-08T12:00:00	6	Velocidad del viento	4.8
26830	7	Sololá	701	Sololá	1	Sololá	5	Mayo	2023-05-31T00:00:00	2024-11-08T12:00:00	7	Dirección del viento	4.83
26831	7	Sololá	701	Sololá	1	Sololá	5	Mayo	2023-05-31T00:00:00	2024-11-08T12:00:00	1	Precipitación	0
26832	7	Sololá	701	Sololá	1	Sololá	5	Mayo	2023-05-31T00:00:00	2024-11-08T12:00:00	8	Radiación solar	80
26833	7	Sololá	701	Sololá	1	Sololá	5	Mayo	2023-05-31T00:00:00	2024-11-08T13:00:00	2	Temperatura media	19.9
26834	7	Sololá	701	Sololá	1	Sololá	5	Mayo	2023-05-31T00:00:00	2024-11-08T13:00:00	4	Temperatura máxima	20.3
26835	7	Sololá	701	Sololá	1	Sololá	5	Mayo	2023-05-31T00:00:00	2024-11-08T13:00:00	3	Temperatura mínima	19.3
26836	7	Sololá	701	Sololá	1	Sololá	5	Mayo	2023-05-31T00:00:00	2024-11-08T13:00:00	5	Humedad	80
26837	7	Sololá	701	Sololá	1	Sololá	5	Mayo	2023-05-31T00:00:00	2024-11-08T13:00:00	6	Velocidad del viento	6.4
26838	7	Sololá	701	Sololá	1	Sololá	5	Mayo	2023-05-31T00:00:00	2024-11-08T13:00:00	7	Dirección del viento	6.44
26839	7	Sololá	701	Sololá	1	Sololá	5	Mayo	2023-05-31T00:00:00	2024-11-08T13:00:00	1	Precipitación	0
26840	7	Sololá	701	Sololá	1	Sololá	5	Mayo	2023-05-31T00:00:00	2024-11-08T13:00:00	8	Radiación solar	12
26841	7	Sololá	701	Sololá	1	Sololá	5	Mayo	2023-05-31T00:00:00	2024-11-08T14:00:00	2	Temperatura media	19.6
26842	7	Sololá	701	Sololá	1	Sololá	5	Mayo	2023-05-31T00:00:00	2024-11-08T14:00:00	4	Temperatura máxima	20.3
26843	7	Sololá	701	Sololá	1	Sololá	5	Mayo	2023-05-31T00:00:00	2024-11-08T14:00:00	3	Temperatura mínima	19.6
26844	7	Sololá	701	Sololá	1	Sololá	5	Mayo	2023-05-31T00:00:00	2024-11-08T14:00:00	5	Humedad	81
26845	7	Sololá	701	Sololá	1	Sololá	5	Mayo	2023-05-31T00:00:00	2024-11-08T14:00:00	6	Velocidad del viento	6.4
26846	7	Sololá	701	Sololá	1	Sololá	5	Mayo	2023-05-31T00:00:00	2024-11-08T14:00:00	7	Dirección del viento	6.44
26847	7	Sololá	701	Sololá	1	Sololá	5	Mayo	2023-05-31T00:00:00	2024-11-08T14:00:00	1	Precipitación	0
26848	7	Sololá	701	Sololá	1	Sololá	5	Mayo	2023-05-31T00:00:00	2024-11-08T14:00:00	8	Radiación solar	25
26849	7	Sololá	701	Sololá	1	Sololá	5	Mayo	2023-05-31T00:00:00	2024-11-08T15:00:00	2	Temperatura media	19.4
26850	7	Sololá	701	Sololá	1	Sololá	5	Mayo	2023-05-31T00:00:00	2024-11-08T15:00:00	4	Temperatura máxima	19.9
26851	7	Sololá	701	Sololá	1	Sololá	5	Mayo	2023-05-31T00:00:00	2024-11-08T15:00:00	3	Temperatura mínima	19.3
26852	7	Sololá	701	Sololá	1	Sololá	5	Mayo	2023-05-31T00:00:00	2024-11-08T15:00:00	5	Humedad	82
26853	7	Sololá	701	Sololá	1	Sololá	5	Mayo	2023-05-31T00:00:00	2024-11-08T15:00:00	6	Velocidad del viento	4.8
26854	7	Sololá	701	Sololá	1	Sololá	5	Mayo	2023-05-31T00:00:00	2024-11-08T15:00:00	7	Dirección del viento	4.83
26855	7	Sololá	701	Sololá	1	Sololá	5	Mayo	2023-05-31T00:00:00	2024-11-08T15:00:00	1	Precipitación	0
26856	7	Sololá	701	Sololá	1	Sololá	5	Mayo	2023-05-31T00:00:00	2024-11-08T15:00:00	8	Radiación solar	135
26857	7	Sololá	701	Sololá	1	Sololá	5	Mayo	2023-05-31T00:00:00	2024-11-08T16:00:00	2	Temperatura media	17.8
26858	7	Sololá	701	Sololá	1	Sololá	5	Mayo	2023-05-31T00:00:00	2024-11-08T16:00:00	4	Temperatura máxima	19.4
26859	7	Sololá	701	Sololá	1	Sololá	5	Mayo	2023-05-31T00:00:00	2024-11-08T16:00:00	3	Temperatura mínima	17.8
26860	7	Sololá	701	Sololá	1	Sololá	5	Mayo	2023-05-31T00:00:00	2024-11-08T16:00:00	5	Humedad	90
26861	7	Sololá	701	Sololá	1	Sololá	5	Mayo	2023-05-31T00:00:00	2024-11-08T16:00:00	6	Velocidad del viento	4.8
26862	7	Sololá	701	Sololá	1	Sololá	5	Mayo	2023-05-31T00:00:00	2024-11-08T16:00:00	7	Dirección del viento	4.83
26863	7	Sololá	701	Sololá	1	Sololá	5	Mayo	2023-05-31T00:00:00	2024-11-08T16:00:00	1	Precipitación	0
26864	7	Sololá	701	Sololá	1	Sololá	5	Mayo	2023-05-31T00:00:00	2024-11-08T16:00:00	8	Radiación solar	116
26865	7	Sololá	701	Sololá	1	Sololá	5	Mayo	2023-05-31T00:00:00	2024-11-08T17:00:00	2	Temperatura media	16.8
26866	7	Sololá	701	Sololá	1	Sololá	5	Mayo	2023-05-31T00:00:00	2024-11-08T17:00:00	4	Temperatura máxima	17.8
26867	7	Sololá	701	Sololá	1	Sololá	5	Mayo	2023-05-31T00:00:00	2024-11-08T17:00:00	3	Temperatura mínima	16.8
26868	7	Sololá	701	Sololá	1	Sololá	5	Mayo	2023-05-31T00:00:00	2024-11-08T17:00:00	5	Humedad	93
26869	7	Sololá	701	Sololá	1	Sololá	5	Mayo	2023-05-31T00:00:00	2024-11-08T17:00:00	6	Velocidad del viento	3.2
26870	7	Sololá	701	Sololá	1	Sololá	5	Mayo	2023-05-31T00:00:00	2024-11-08T17:00:00	7	Dirección del viento	3.22
26871	7	Sololá	701	Sololá	1	Sololá	5	Mayo	2023-05-31T00:00:00	2024-11-08T17:00:00	1	Precipitación	0
26872	7	Sololá	701	Sololá	1	Sololá	5	Mayo	2023-05-31T00:00:00	2024-11-08T17:00:00	8	Radiación solar	55
26873	7	Sololá	701	Sololá	1	Sololá	5	Mayo	2023-05-31T00:00:00	2024-11-08T18:00:00	2	Temperatura media	16.9
26874	7	Sololá	701	Sololá	1	Sololá	5	Mayo	2023-05-31T00:00:00	2024-11-08T18:00:00	4	Temperatura máxima	17.1
26875	7	Sololá	701	Sololá	1	Sololá	5	Mayo	2023-05-31T00:00:00	2024-11-08T18:00:00	3	Temperatura mínima	16.7
26876	7	Sololá	701	Sololá	1	Sololá	5	Mayo	2023-05-31T00:00:00	2024-11-08T18:00:00	5	Humedad	94
26877	7	Sololá	701	Sololá	1	Sololá	5	Mayo	2023-05-31T00:00:00	2024-11-08T18:00:00	6	Velocidad del viento	3.2
26878	7	Sololá	701	Sololá	1	Sololá	5	Mayo	2023-05-31T00:00:00	2024-11-08T18:00:00	7	Dirección del viento	3.22
26879	7	Sololá	701	Sololá	1	Sololá	5	Mayo	2023-05-31T00:00:00	2024-11-08T18:00:00	1	Precipitación	1.6
26880	7	Sololá	701	Sololá	1	Sololá	5	Mayo	2023-05-31T00:00:00	2024-11-08T18:00:00	8	Radiación solar	18
26881	7	Sololá	701	Sololá	1	Sololá	5	Mayo	2023-05-31T00:00:00	2024-11-08T19:00:00	2	Temperatura media	16.4
26882	7	Sololá	701	Sololá	1	Sololá	5	Mayo	2023-05-31T00:00:00	2024-11-08T19:00:00	4	Temperatura máxima	17.1
26883	7	Sololá	701	Sololá	1	Sololá	5	Mayo	2023-05-31T00:00:00	2024-11-08T19:00:00	3	Temperatura mínima	16.4
26884	7	Sololá	701	Sololá	1	Sololá	5	Mayo	2023-05-31T00:00:00	2024-11-08T19:00:00	5	Humedad	95
26885	7	Sololá	701	Sololá	1	Sololá	5	Mayo	2023-05-31T00:00:00	2024-11-08T19:00:00	6	Velocidad del viento	1.6
26886	7	Sololá	701	Sololá	1	Sololá	5	Mayo	2023-05-31T00:00:00	2024-11-08T19:00:00	7	Dirección del viento	1.61
26887	7	Sololá	701	Sololá	1	Sololá	5	Mayo	2023-05-31T00:00:00	2024-11-08T19:00:00	1	Precipitación	0
26888	7	Sololá	701	Sololá	1	Sololá	5	Mayo	2023-05-31T00:00:00	2024-11-08T19:00:00	8	Radiación solar	0
26889	7	Sololá	701	Sololá	1	Sololá	5	Mayo	2023-05-31T00:00:00	2024-11-08T20:00:00	2	Temperatura media	16.1
26890	7	Sololá	701	Sololá	1	Sololá	5	Mayo	2023-05-31T00:00:00	2024-11-08T20:00:00	4	Temperatura máxima	16.7
26891	7	Sololá	701	Sololá	1	Sololá	5	Mayo	2023-05-31T00:00:00	2024-11-08T20:00:00	3	Temperatura mínima	16.1
26892	7	Sololá	701	Sololá	1	Sololá	5	Mayo	2023-05-31T00:00:00	2024-11-08T20:00:00	5	Humedad	94
26893	7	Sololá	701	Sololá	1	Sololá	5	Mayo	2023-05-31T00:00:00	2024-11-08T20:00:00	6	Velocidad del viento	1.6
26894	7	Sololá	701	Sololá	1	Sololá	5	Mayo	2023-05-31T00:00:00	2024-11-08T20:00:00	7	Dirección del viento	1.61
26895	7	Sololá	701	Sololá	1	Sololá	5	Mayo	2023-05-31T00:00:00	2024-11-08T20:00:00	1	Precipitación	0
26896	7	Sololá	701	Sololá	1	Sololá	5	Mayo	2023-05-31T00:00:00	2024-11-08T20:00:00	8	Radiación solar	0
26897	7	Sololá	701	Sololá	1	Sololá	5	Mayo	2023-05-31T00:00:00	2024-11-08T21:00:00	2	Temperatura media	16.1
26898	7	Sololá	701	Sololá	1	Sololá	5	Mayo	2023-05-31T00:00:00	2024-11-08T21:00:00	4	Temperatura máxima	16.1
26899	7	Sololá	701	Sololá	1	Sololá	5	Mayo	2023-05-31T00:00:00	2024-11-08T21:00:00	3	Temperatura mínima	15.8
26900	7	Sololá	701	Sololá	1	Sololá	5	Mayo	2023-05-31T00:00:00	2024-11-08T21:00:00	5	Humedad	91
26901	7	Sololá	701	Sololá	1	Sololá	5	Mayo	2023-05-31T00:00:00	2024-11-08T21:00:00	6	Velocidad del viento	4.8
26902	7	Sololá	701	Sololá	1	Sololá	5	Mayo	2023-05-31T00:00:00	2024-11-08T21:00:00	7	Dirección del viento	4.83
26903	7	Sololá	701	Sololá	1	Sololá	5	Mayo	2023-05-31T00:00:00	2024-11-08T21:00:00	1	Precipitación	0
26904	7	Sololá	701	Sololá	1	Sololá	5	Mayo	2023-05-31T00:00:00	2024-11-08T21:00:00	8	Radiación solar	0
26905	7	Sololá	701	Sololá	1	Sololá	5	Mayo	2023-05-31T00:00:00	2024-11-08T22:00:00	2	Temperatura media	15.8
26906	7	Sololá	701	Sololá	1	Sololá	5	Mayo	2023-05-31T00:00:00	2024-11-08T22:00:00	4	Temperatura máxima	16.1
26907	7	Sololá	701	Sololá	1	Sololá	5	Mayo	2023-05-31T00:00:00	2024-11-08T22:00:00	3	Temperatura mínima	15.8
26908	7	Sololá	701	Sololá	1	Sololá	5	Mayo	2023-05-31T00:00:00	2024-11-08T22:00:00	5	Humedad	92
26909	7	Sololá	701	Sololá	1	Sololá	5	Mayo	2023-05-31T00:00:00	2024-11-08T22:00:00	6	Velocidad del viento	1.6
26910	7	Sololá	701	Sololá	1	Sololá	5	Mayo	2023-05-31T00:00:00	2024-11-08T22:00:00	7	Dirección del viento	1.61
26911	7	Sololá	701	Sololá	1	Sololá	5	Mayo	2023-05-31T00:00:00	2024-11-08T22:00:00	1	Precipitación	0.2
26912	7	Sololá	701	Sololá	1	Sololá	5	Mayo	2023-05-31T00:00:00	2024-11-08T22:00:00	8	Radiación solar	0
26913	7	Sololá	701	Sololá	1	Sololá	5	Mayo	2023-05-31T00:00:00	2024-11-08T23:00:00	2	Temperatura media	15.8
26914	7	Sololá	701	Sololá	1	Sololá	5	Mayo	2023-05-31T00:00:00	2024-11-08T23:00:00	4	Temperatura máxima	15.9
26915	7	Sololá	701	Sololá	1	Sololá	5	Mayo	2023-05-31T00:00:00	2024-11-08T23:00:00	3	Temperatura mínima	15.7
26916	7	Sololá	701	Sololá	1	Sololá	5	Mayo	2023-05-31T00:00:00	2024-11-08T23:00:00	5	Humedad	91
26917	7	Sololá	701	Sololá	1	Sololá	5	Mayo	2023-05-31T00:00:00	2024-11-08T23:00:00	6	Velocidad del viento	0
26918	7	Sololá	701	Sololá	1	Sololá	5	Mayo	2023-05-31T00:00:00	2024-11-08T23:00:00	7	Dirección del viento	0
26919	7	Sololá	701	Sololá	1	Sololá	5	Mayo	2023-05-31T00:00:00	2024-11-08T23:00:00	1	Precipitación	0
26920	7	Sololá	701	Sololá	1	Sololá	5	Mayo	2023-05-31T00:00:00	2024-11-08T23:00:00	8	Radiación solar	0
26921	7	Sololá	701	Sololá	1	Sololá	6	Junio	2023-01-06T00:00:00	2024-11-08T00:00:00	2	Temperatura media	15.7
26922	7	Sololá	701	Sololá	1	Sololá	6	Junio	2023-01-06T00:00:00	2024-11-08T00:00:00	4	Temperatura máxima	15.9
26923	7	Sololá	701	Sololá	1	Sololá	6	Junio	2023-01-06T00:00:00	2024-11-08T00:00:00	3	Temperatura mínima	15.6
26924	7	Sololá	701	Sololá	1	Sololá	6	Junio	2023-01-06T00:00:00	2024-11-08T00:00:00	5	Humedad	92
26925	7	Sololá	701	Sololá	1	Sololá	6	Junio	2023-01-06T00:00:00	2024-11-08T00:00:00	6	Velocidad del viento	0
26926	7	Sololá	701	Sololá	1	Sololá	6	Junio	2023-01-06T00:00:00	2024-11-08T00:00:00	7	Dirección del viento	0
26927	7	Sololá	701	Sololá	1	Sololá	6	Junio	2023-01-06T00:00:00	2024-11-08T00:00:00	1	Precipitación	0
26928	7	Sololá	701	Sololá	1	Sololá	6	Junio	2023-01-06T00:00:00	2024-11-08T00:00:00	8	Radiación solar	0
26929	7	Sololá	701	Sololá	1	Sololá	6	Junio	2023-01-06T00:00:00	2024-11-08T01:00:00	2	Temperatura media	15.1
26930	7	Sololá	701	Sololá	1	Sololá	6	Junio	2023-01-06T00:00:00	2024-11-08T01:00:00	4	Temperatura máxima	15.7
26931	7	Sololá	701	Sololá	1	Sololá	6	Junio	2023-01-06T00:00:00	2024-11-08T01:00:00	3	Temperatura mínima	15.1
26932	7	Sololá	701	Sololá	1	Sololá	6	Junio	2023-01-06T00:00:00	2024-11-08T01:00:00	5	Humedad	93
26933	7	Sololá	701	Sololá	1	Sololá	6	Junio	2023-01-06T00:00:00	2024-11-08T01:00:00	6	Velocidad del viento	0
26934	7	Sololá	701	Sololá	1	Sololá	6	Junio	2023-01-06T00:00:00	2024-11-08T01:00:00	7	Dirección del viento	0
26935	7	Sololá	701	Sololá	1	Sololá	6	Junio	2023-01-06T00:00:00	2024-11-08T01:00:00	1	Precipitación	0
26936	7	Sololá	701	Sololá	1	Sololá	6	Junio	2023-01-06T00:00:00	2024-11-08T01:00:00	8	Radiación solar	0
26937	7	Sololá	701	Sololá	1	Sololá	6	Junio	2023-01-06T00:00:00	2024-11-08T02:00:00	2	Temperatura media	14.8
26938	7	Sololá	701	Sololá	1	Sololá	6	Junio	2023-01-06T00:00:00	2024-11-08T02:00:00	4	Temperatura máxima	15.2
26939	7	Sololá	701	Sololá	1	Sololá	6	Junio	2023-01-06T00:00:00	2024-11-08T02:00:00	3	Temperatura mínima	14.7
26940	7	Sololá	701	Sololá	1	Sololá	6	Junio	2023-01-06T00:00:00	2024-11-08T02:00:00	5	Humedad	92
26941	7	Sololá	701	Sololá	1	Sololá	6	Junio	2023-01-06T00:00:00	2024-11-08T02:00:00	6	Velocidad del viento	1.6
26942	7	Sololá	701	Sololá	1	Sololá	6	Junio	2023-01-06T00:00:00	2024-11-08T02:00:00	7	Dirección del viento	1.61
26943	7	Sololá	701	Sololá	1	Sololá	6	Junio	2023-01-06T00:00:00	2024-11-08T02:00:00	1	Precipitación	0
26944	7	Sololá	701	Sololá	1	Sololá	6	Junio	2023-01-06T00:00:00	2024-11-08T02:00:00	8	Radiación solar	0
26945	7	Sololá	701	Sololá	1	Sololá	6	Junio	2023-01-06T00:00:00	2024-11-08T03:00:00	2	Temperatura media	14.3
26946	7	Sololá	701	Sololá	1	Sololá	6	Junio	2023-01-06T00:00:00	2024-11-08T03:00:00	4	Temperatura máxima	14.8
26947	7	Sololá	701	Sololá	1	Sololá	6	Junio	2023-01-06T00:00:00	2024-11-08T03:00:00	3	Temperatura mínima	14.3
26948	7	Sololá	701	Sololá	1	Sololá	6	Junio	2023-01-06T00:00:00	2024-11-08T03:00:00	5	Humedad	92
26949	7	Sololá	701	Sololá	1	Sololá	6	Junio	2023-01-06T00:00:00	2024-11-08T03:00:00	6	Velocidad del viento	1.6
26950	7	Sololá	701	Sololá	1	Sololá	6	Junio	2023-01-06T00:00:00	2024-11-08T03:00:00	7	Dirección del viento	1.61
26951	7	Sololá	701	Sololá	1	Sololá	6	Junio	2023-01-06T00:00:00	2024-11-08T03:00:00	1	Precipitación	0
26952	7	Sololá	701	Sololá	1	Sololá	6	Junio	2023-01-06T00:00:00	2024-11-08T03:00:00	8	Radiación solar	0
26953	7	Sololá	701	Sololá	1	Sololá	6	Junio	2023-01-06T00:00:00	2024-11-08T04:00:00	2	Temperatura media	14.3
26954	7	Sololá	701	Sololá	1	Sololá	6	Junio	2023-01-06T00:00:00	2024-11-08T04:00:00	4	Temperatura máxima	14.5
26955	7	Sololá	701	Sololá	1	Sololá	6	Junio	2023-01-06T00:00:00	2024-11-08T04:00:00	3	Temperatura mínima	14.1
26956	7	Sololá	701	Sololá	1	Sololá	6	Junio	2023-01-06T00:00:00	2024-11-08T04:00:00	5	Humedad	88
26957	7	Sololá	701	Sololá	1	Sololá	6	Junio	2023-01-06T00:00:00	2024-11-08T04:00:00	6	Velocidad del viento	1.6
26958	7	Sololá	701	Sololá	1	Sololá	6	Junio	2023-01-06T00:00:00	2024-11-08T04:00:00	7	Dirección del viento	1.61
26959	7	Sololá	701	Sololá	1	Sololá	6	Junio	2023-01-06T00:00:00	2024-11-08T04:00:00	1	Precipitación	0
26960	7	Sololá	701	Sololá	1	Sololá	6	Junio	2023-01-06T00:00:00	2024-11-08T04:00:00	8	Radiación solar	0
26961	7	Sololá	701	Sololá	1	Sololá	6	Junio	2023-01-06T00:00:00	2024-11-08T05:00:00	2	Temperatura media	13.7
26962	7	Sololá	701	Sololá	1	Sololá	6	Junio	2023-01-06T00:00:00	2024-11-08T05:00:00	4	Temperatura máxima	14.3
26963	7	Sololá	701	Sololá	1	Sololá	6	Junio	2023-01-06T00:00:00	2024-11-08T05:00:00	3	Temperatura mínima	13.4
26964	7	Sololá	701	Sololá	1	Sololá	6	Junio	2023-01-06T00:00:00	2024-11-08T05:00:00	5	Humedad	88
26965	7	Sololá	701	Sololá	1	Sololá	6	Junio	2023-01-06T00:00:00	2024-11-08T05:00:00	6	Velocidad del viento	4.8
26966	7	Sololá	701	Sololá	1	Sololá	6	Junio	2023-01-06T00:00:00	2024-11-08T05:00:00	7	Dirección del viento	4.83
26967	7	Sololá	701	Sololá	1	Sololá	6	Junio	2023-01-06T00:00:00	2024-11-08T05:00:00	1	Precipitación	0
26968	7	Sololá	701	Sololá	1	Sololá	6	Junio	2023-01-06T00:00:00	2024-11-08T05:00:00	8	Radiación solar	0
26969	7	Sololá	701	Sololá	1	Sololá	6	Junio	2023-01-06T00:00:00	2024-11-08T06:00:00	2	Temperatura media	13.8
26970	7	Sololá	701	Sololá	1	Sololá	6	Junio	2023-01-06T00:00:00	2024-11-08T06:00:00	4	Temperatura máxima	14.1
26971	7	Sololá	701	Sololá	1	Sololá	6	Junio	2023-01-06T00:00:00	2024-11-08T06:00:00	3	Temperatura mínima	13.7
26972	7	Sololá	701	Sololá	1	Sololá	6	Junio	2023-01-06T00:00:00	2024-11-08T06:00:00	5	Humedad	90
26973	7	Sololá	701	Sololá	1	Sololá	6	Junio	2023-01-06T00:00:00	2024-11-08T06:00:00	6	Velocidad del viento	1.6
26974	7	Sololá	701	Sololá	1	Sololá	6	Junio	2023-01-06T00:00:00	2024-11-08T06:00:00	7	Dirección del viento	1.61
26975	7	Sololá	701	Sololá	1	Sololá	6	Junio	2023-01-06T00:00:00	2024-11-08T06:00:00	1	Precipitación	0
26976	7	Sololá	701	Sololá	1	Sololá	6	Junio	2023-01-06T00:00:00	2024-11-08T06:00:00	8	Radiación solar	2
26977	7	Sololá	701	Sololá	1	Sololá	6	Junio	2023-01-06T00:00:00	2024-11-08T07:00:00	2	Temperatura media	15.1
26978	7	Sololá	701	Sololá	1	Sololá	6	Junio	2023-01-06T00:00:00	2024-11-08T07:00:00	4	Temperatura máxima	15.1
26979	7	Sololá	701	Sololá	1	Sololá	6	Junio	2023-01-06T00:00:00	2024-11-08T07:00:00	3	Temperatura mínima	13.8
26980	7	Sololá	701	Sololá	1	Sololá	6	Junio	2023-01-06T00:00:00	2024-11-08T07:00:00	5	Humedad	84
26981	7	Sololá	701	Sololá	1	Sololá	6	Junio	2023-01-06T00:00:00	2024-11-08T07:00:00	6	Velocidad del viento	1.6
26982	7	Sololá	701	Sololá	1	Sololá	6	Junio	2023-01-06T00:00:00	2024-11-08T07:00:00	7	Dirección del viento	1.61
26983	7	Sololá	701	Sololá	1	Sololá	6	Junio	2023-01-06T00:00:00	2024-11-08T07:00:00	1	Precipitación	0
26984	7	Sololá	701	Sololá	1	Sololá	6	Junio	2023-01-06T00:00:00	2024-11-08T07:00:00	8	Radiación solar	57
26985	7	Sololá	701	Sololá	1	Sololá	6	Junio	2023-01-06T00:00:00	2024-11-08T08:00:00	2	Temperatura media	18.1
26986	7	Sololá	701	Sololá	1	Sololá	6	Junio	2023-01-06T00:00:00	2024-11-08T08:00:00	4	Temperatura máxima	18.1
26987	7	Sololá	701	Sololá	1	Sololá	6	Junio	2023-01-06T00:00:00	2024-11-08T08:00:00	3	Temperatura mínima	15.1
26988	7	Sololá	701	Sololá	1	Sololá	6	Junio	2023-01-06T00:00:00	2024-11-08T08:00:00	5	Humedad	79
26989	7	Sololá	701	Sololá	1	Sololá	6	Junio	2023-01-06T00:00:00	2024-11-08T08:00:00	6	Velocidad del viento	3.2
26990	7	Sololá	701	Sololá	1	Sololá	6	Junio	2023-01-06T00:00:00	2024-11-08T08:00:00	7	Dirección del viento	3.22
26991	7	Sololá	701	Sololá	1	Sololá	6	Junio	2023-01-06T00:00:00	2024-11-08T08:00:00	1	Precipitación	0
26992	7	Sololá	701	Sololá	1	Sololá	6	Junio	2023-01-06T00:00:00	2024-11-08T08:00:00	8	Radiación solar	119
26993	7	Sololá	701	Sololá	1	Sololá	6	Junio	2023-01-06T00:00:00	2024-11-08T09:00:00	2	Temperatura media	19.9
26994	7	Sololá	701	Sololá	1	Sololá	6	Junio	2023-01-06T00:00:00	2024-11-08T09:00:00	4	Temperatura máxima	20.1
26995	7	Sololá	701	Sololá	1	Sololá	6	Junio	2023-01-06T00:00:00	2024-11-08T09:00:00	3	Temperatura mínima	17.9
26996	7	Sololá	701	Sololá	1	Sololá	6	Junio	2023-01-06T00:00:00	2024-11-08T09:00:00	5	Humedad	75
26997	7	Sololá	701	Sololá	1	Sololá	6	Junio	2023-01-06T00:00:00	2024-11-08T09:00:00	6	Velocidad del viento	3.2
26998	7	Sololá	701	Sololá	1	Sololá	6	Junio	2023-01-06T00:00:00	2024-11-08T09:00:00	7	Dirección del viento	3.22
26999	7	Sololá	701	Sololá	1	Sololá	6	Junio	2023-01-06T00:00:00	2024-11-08T09:00:00	1	Precipitación	0
27000	7	Sololá	701	Sololá	1	Sololá	6	Junio	2023-01-06T00:00:00	2024-11-08T09:00:00	8	Radiación solar	376
27001	7	Sololá	701	Sololá	1	Sololá	6	Junio	2023-01-06T00:00:00	2024-11-08T10:00:00	2	Temperatura media	20.4
27002	7	Sololá	701	Sololá	1	Sololá	6	Junio	2023-01-06T00:00:00	2024-11-08T10:00:00	4	Temperatura máxima	20.4
27003	7	Sololá	701	Sololá	1	Sololá	6	Junio	2023-01-06T00:00:00	2024-11-08T10:00:00	3	Temperatura mínima	19.8
27004	7	Sololá	701	Sololá	1	Sololá	6	Junio	2023-01-06T00:00:00	2024-11-08T10:00:00	5	Humedad	74
27005	7	Sololá	701	Sololá	1	Sololá	6	Junio	2023-01-06T00:00:00	2024-11-08T10:00:00	6	Velocidad del viento	3.2
27006	7	Sololá	701	Sololá	1	Sololá	6	Junio	2023-01-06T00:00:00	2024-11-08T10:00:00	7	Dirección del viento	3.22
27007	7	Sololá	701	Sololá	1	Sololá	6	Junio	2023-01-06T00:00:00	2024-11-08T10:00:00	1	Precipitación	0
27008	7	Sololá	701	Sololá	1	Sololá	6	Junio	2023-01-06T00:00:00	2024-11-08T10:00:00	8	Radiación solar	571
27009	7	Sololá	701	Sololá	1	Sololá	6	Junio	2023-01-06T00:00:00	2024-11-08T11:00:00	2	Temperatura media	20.6
27010	7	Sololá	701	Sololá	1	Sololá	6	Junio	2023-01-06T00:00:00	2024-11-08T11:00:00	4	Temperatura máxima	21.3
27011	7	Sololá	701	Sololá	1	Sololá	6	Junio	2023-01-06T00:00:00	2024-11-08T11:00:00	3	Temperatura mínima	20.4
27012	7	Sololá	701	Sololá	1	Sololá	6	Junio	2023-01-06T00:00:00	2024-11-08T11:00:00	5	Humedad	74
27013	7	Sololá	701	Sololá	1	Sololá	6	Junio	2023-01-06T00:00:00	2024-11-08T11:00:00	6	Velocidad del viento	6.4
27014	7	Sololá	701	Sololá	1	Sololá	6	Junio	2023-01-06T00:00:00	2024-11-08T11:00:00	7	Dirección del viento	6.44
27015	7	Sololá	701	Sololá	1	Sololá	6	Junio	2023-01-06T00:00:00	2024-11-08T11:00:00	1	Precipitación	0
27016	7	Sololá	701	Sololá	1	Sololá	6	Junio	2023-01-06T00:00:00	2024-11-08T11:00:00	8	Radiación solar	487
27017	7	Sololá	701	Sololá	1	Sololá	6	Junio	2023-01-06T00:00:00	2024-11-08T12:00:00	2	Temperatura media	20.2
27018	7	Sololá	701	Sololá	1	Sololá	6	Junio	2023-01-06T00:00:00	2024-11-08T12:00:00	4	Temperatura máxima	21.1
27019	7	Sololá	701	Sololá	1	Sololá	6	Junio	2023-01-06T00:00:00	2024-11-08T12:00:00	3	Temperatura mínima	20.2
27020	7	Sololá	701	Sololá	1	Sololá	6	Junio	2023-01-06T00:00:00	2024-11-08T12:00:00	5	Humedad	80
27021	7	Sololá	701	Sololá	1	Sololá	6	Junio	2023-01-06T00:00:00	2024-11-08T12:00:00	6	Velocidad del viento	4.8
27022	7	Sololá	701	Sololá	1	Sololá	6	Junio	2023-01-06T00:00:00	2024-11-08T12:00:00	7	Dirección del viento	4.83
27023	7	Sololá	701	Sololá	1	Sololá	6	Junio	2023-01-06T00:00:00	2024-11-08T12:00:00	1	Precipitación	0
27024	7	Sololá	701	Sololá	1	Sololá	6	Junio	2023-01-06T00:00:00	2024-11-08T12:00:00	8	Radiación solar	368
27025	7	Sololá	701	Sololá	1	Sololá	6	Junio	2023-01-06T00:00:00	2024-11-08T13:00:00	2	Temperatura media	20.2
27026	7	Sololá	701	Sololá	1	Sololá	6	Junio	2023-01-06T00:00:00	2024-11-08T13:00:00	4	Temperatura máxima	20.8
27027	7	Sololá	701	Sololá	1	Sololá	6	Junio	2023-01-06T00:00:00	2024-11-08T13:00:00	3	Temperatura mínima	19.8
27028	7	Sololá	701	Sololá	1	Sololá	6	Junio	2023-01-06T00:00:00	2024-11-08T13:00:00	5	Humedad	81
27029	7	Sololá	701	Sololá	1	Sololá	6	Junio	2023-01-06T00:00:00	2024-11-08T13:00:00	6	Velocidad del viento	6.4
27030	7	Sololá	701	Sololá	1	Sololá	6	Junio	2023-01-06T00:00:00	2024-11-08T13:00:00	7	Dirección del viento	6.44
27031	7	Sololá	701	Sololá	1	Sololá	6	Junio	2023-01-06T00:00:00	2024-11-08T13:00:00	1	Precipitación	0
27032	7	Sololá	701	Sololá	1	Sololá	6	Junio	2023-01-06T00:00:00	2024-11-08T13:00:00	8	Radiación solar	256
27033	7	Sololá	701	Sololá	1	Sololá	6	Junio	2023-01-06T00:00:00	2024-11-08T14:00:00	2	Temperatura media	19.9
27034	7	Sololá	701	Sololá	1	Sololá	6	Junio	2023-01-06T00:00:00	2024-11-08T14:00:00	4	Temperatura máxima	21.1
27035	7	Sololá	701	Sololá	1	Sololá	6	Junio	2023-01-06T00:00:00	2024-11-08T14:00:00	3	Temperatura mínima	19.9
27036	7	Sololá	701	Sololá	1	Sololá	6	Junio	2023-01-06T00:00:00	2024-11-08T14:00:00	5	Humedad	84
27037	7	Sololá	701	Sololá	1	Sololá	6	Junio	2023-01-06T00:00:00	2024-11-08T14:00:00	6	Velocidad del viento	6.4
27038	7	Sololá	701	Sololá	1	Sololá	6	Junio	2023-01-06T00:00:00	2024-11-08T14:00:00	7	Dirección del viento	6.44
27039	7	Sololá	701	Sololá	1	Sololá	6	Junio	2023-01-06T00:00:00	2024-11-08T14:00:00	1	Precipitación	0
27040	7	Sololá	701	Sololá	1	Sololá	6	Junio	2023-01-06T00:00:00	2024-11-08T14:00:00	8	Radiación solar	255
27041	7	Sololá	701	Sololá	1	Sololá	6	Junio	2023-01-06T00:00:00	2024-11-08T15:00:00	2	Temperatura media	20.3
27042	7	Sololá	701	Sololá	1	Sololá	6	Junio	2023-01-06T00:00:00	2024-11-08T15:00:00	4	Temperatura máxima	20.6
27043	7	Sololá	701	Sololá	1	Sololá	6	Junio	2023-01-06T00:00:00	2024-11-08T15:00:00	3	Temperatura mínima	19.3
27044	7	Sololá	701	Sololá	1	Sololá	6	Junio	2023-01-06T00:00:00	2024-11-08T15:00:00	5	Humedad	81
27045	7	Sololá	701	Sololá	1	Sololá	6	Junio	2023-01-06T00:00:00	2024-11-08T15:00:00	6	Velocidad del viento	4.8
27046	7	Sololá	701	Sololá	1	Sololá	6	Junio	2023-01-06T00:00:00	2024-11-08T15:00:00	7	Dirección del viento	4.83
27047	7	Sololá	701	Sololá	1	Sololá	6	Junio	2023-01-06T00:00:00	2024-11-08T15:00:00	1	Precipitación	0
27048	7	Sololá	701	Sololá	1	Sololá	6	Junio	2023-01-06T00:00:00	2024-11-08T15:00:00	8	Radiación solar	206
27049	7	Sololá	701	Sololá	1	Sololá	6	Junio	2023-01-06T00:00:00	2024-11-08T16:00:00	2	Temperatura media	19.6
27050	7	Sololá	701	Sololá	1	Sololá	6	Junio	2023-01-06T00:00:00	2024-11-08T16:00:00	4	Temperatura máxima	20.5
27051	7	Sololá	701	Sololá	1	Sololá	6	Junio	2023-01-06T00:00:00	2024-11-08T16:00:00	3	Temperatura mínima	19.6
27052	7	Sololá	701	Sololá	1	Sololá	6	Junio	2023-01-06T00:00:00	2024-11-08T16:00:00	5	Humedad	84
27053	7	Sololá	701	Sololá	1	Sololá	6	Junio	2023-01-06T00:00:00	2024-11-08T16:00:00	6	Velocidad del viento	4.8
27054	7	Sololá	701	Sololá	1	Sololá	6	Junio	2023-01-06T00:00:00	2024-11-08T16:00:00	7	Dirección del viento	4.83
27055	7	Sololá	701	Sololá	1	Sololá	6	Junio	2023-01-06T00:00:00	2024-11-08T16:00:00	1	Precipitación	0
27056	7	Sololá	701	Sololá	1	Sololá	6	Junio	2023-01-06T00:00:00	2024-11-08T16:00:00	8	Radiación solar	179
27057	7	Sololá	701	Sololá	1	Sololá	6	Junio	2023-01-06T00:00:00	2024-11-08T17:00:00	2	Temperatura media	19.2
27058	7	Sololá	701	Sololá	1	Sololá	6	Junio	2023-01-06T00:00:00	2024-11-08T17:00:00	4	Temperatura máxima	19.6
27059	7	Sololá	701	Sololá	1	Sololá	6	Junio	2023-01-06T00:00:00	2024-11-08T17:00:00	3	Temperatura mínima	19
27060	7	Sololá	701	Sololá	1	Sololá	6	Junio	2023-01-06T00:00:00	2024-11-08T17:00:00	5	Humedad	86
27061	7	Sololá	701	Sololá	1	Sololá	6	Junio	2023-01-06T00:00:00	2024-11-08T17:00:00	6	Velocidad del viento	3.2
27062	7	Sololá	701	Sololá	1	Sololá	6	Junio	2023-01-06T00:00:00	2024-11-08T17:00:00	7	Dirección del viento	3.22
27063	7	Sololá	701	Sololá	1	Sololá	6	Junio	2023-01-06T00:00:00	2024-11-08T17:00:00	1	Precipitación	0
27064	7	Sololá	701	Sololá	1	Sololá	6	Junio	2023-01-06T00:00:00	2024-11-08T17:00:00	8	Radiación solar	74
27065	7	Sololá	701	Sololá	1	Sololá	6	Junio	2023-01-06T00:00:00	2024-11-08T18:00:00	2	Temperatura media	18.8
27066	7	Sololá	701	Sololá	1	Sololá	6	Junio	2023-01-06T00:00:00	2024-11-08T18:00:00	4	Temperatura máxima	19.2
27067	7	Sololá	701	Sololá	1	Sololá	6	Junio	2023-01-06T00:00:00	2024-11-08T18:00:00	3	Temperatura mínima	18.7
27068	7	Sololá	701	Sololá	1	Sololá	6	Junio	2023-01-06T00:00:00	2024-11-08T18:00:00	5	Humedad	89
27069	7	Sololá	701	Sololá	1	Sololá	6	Junio	2023-01-06T00:00:00	2024-11-08T18:00:00	6	Velocidad del viento	1.6
27070	7	Sololá	701	Sololá	1	Sololá	6	Junio	2023-01-06T00:00:00	2024-11-08T18:00:00	7	Dirección del viento	1.61
27071	7	Sololá	701	Sololá	1	Sololá	6	Junio	2023-01-06T00:00:00	2024-11-08T18:00:00	1	Precipitación	0
27072	7	Sololá	701	Sololá	1	Sololá	6	Junio	2023-01-06T00:00:00	2024-11-08T18:00:00	8	Radiación solar	48
27073	7	Sololá	701	Sololá	1	Sololá	6	Junio	2023-01-06T00:00:00	2024-11-08T19:00:00	2	Temperatura media	18.1
27074	7	Sololá	701	Sololá	1	Sololá	6	Junio	2023-01-06T00:00:00	2024-11-08T19:00:00	4	Temperatura máxima	18.8
27075	7	Sololá	701	Sololá	1	Sololá	6	Junio	2023-01-06T00:00:00	2024-11-08T19:00:00	3	Temperatura mínima	18.1
27076	7	Sololá	701	Sololá	1	Sololá	6	Junio	2023-01-06T00:00:00	2024-11-08T19:00:00	5	Humedad	91
27077	7	Sololá	701	Sololá	1	Sololá	6	Junio	2023-01-06T00:00:00	2024-11-08T19:00:00	6	Velocidad del viento	1.6
27078	7	Sololá	701	Sololá	1	Sololá	6	Junio	2023-01-06T00:00:00	2024-11-08T19:00:00	7	Dirección del viento	1.61
27079	7	Sololá	701	Sololá	1	Sololá	6	Junio	2023-01-06T00:00:00	2024-11-08T19:00:00	1	Precipitación	0
27080	7	Sololá	701	Sololá	1	Sololá	6	Junio	2023-01-06T00:00:00	2024-11-08T19:00:00	8	Radiación solar	0
27081	7	Sololá	701	Sololá	1	Sololá	6	Junio	2023-01-06T00:00:00	2024-11-08T20:00:00	2	Temperatura media	17.6
27082	7	Sololá	701	Sololá	1	Sololá	6	Junio	2023-01-06T00:00:00	2024-11-08T20:00:00	4	Temperatura máxima	18.1
27083	7	Sololá	701	Sololá	1	Sololá	6	Junio	2023-01-06T00:00:00	2024-11-08T20:00:00	3	Temperatura mínima	17.4
27084	7	Sololá	701	Sololá	1	Sololá	6	Junio	2023-01-06T00:00:00	2024-11-08T20:00:00	5	Humedad	92
27085	7	Sololá	701	Sololá	1	Sololá	6	Junio	2023-01-06T00:00:00	2024-11-08T20:00:00	6	Velocidad del viento	1.6
27086	7	Sololá	701	Sololá	1	Sololá	6	Junio	2023-01-06T00:00:00	2024-11-08T20:00:00	7	Dirección del viento	1.61
27087	7	Sololá	701	Sololá	1	Sololá	6	Junio	2023-01-06T00:00:00	2024-11-08T20:00:00	1	Precipitación	0
27088	7	Sololá	701	Sololá	1	Sololá	6	Junio	2023-01-06T00:00:00	2024-11-08T20:00:00	8	Radiación solar	0
27089	7	Sololá	701	Sololá	1	Sololá	6	Junio	2023-01-06T00:00:00	2024-11-08T21:00:00	2	Temperatura media	17.3
27090	7	Sololá	701	Sololá	1	Sololá	6	Junio	2023-01-06T00:00:00	2024-11-08T21:00:00	4	Temperatura máxima	17.6
27091	7	Sololá	701	Sololá	1	Sololá	6	Junio	2023-01-06T00:00:00	2024-11-08T21:00:00	3	Temperatura mínima	17.3
27092	7	Sololá	701	Sololá	1	Sololá	6	Junio	2023-01-06T00:00:00	2024-11-08T21:00:00	5	Humedad	93
27093	7	Sololá	701	Sololá	1	Sololá	6	Junio	2023-01-06T00:00:00	2024-11-08T21:00:00	6	Velocidad del viento	0
27094	7	Sololá	701	Sololá	1	Sololá	6	Junio	2023-01-06T00:00:00	2024-11-08T21:00:00	7	Dirección del viento	0
27095	7	Sololá	701	Sololá	1	Sololá	6	Junio	2023-01-06T00:00:00	2024-11-08T21:00:00	1	Precipitación	0
27096	7	Sololá	701	Sololá	1	Sololá	6	Junio	2023-01-06T00:00:00	2024-11-08T21:00:00	8	Radiación solar	0
27097	7	Sololá	701	Sololá	1	Sololá	6	Junio	2023-01-06T00:00:00	2024-11-08T22:00:00	2	Temperatura media	16.8
27098	7	Sololá	701	Sololá	1	Sololá	6	Junio	2023-01-06T00:00:00	2024-11-08T22:00:00	4	Temperatura máxima	17.3
27099	7	Sololá	701	Sololá	1	Sololá	6	Junio	2023-01-06T00:00:00	2024-11-08T22:00:00	3	Temperatura mínima	16.8
27100	7	Sololá	701	Sololá	1	Sololá	6	Junio	2023-01-06T00:00:00	2024-11-08T22:00:00	5	Humedad	92
27101	7	Sololá	701	Sololá	1	Sololá	6	Junio	2023-01-06T00:00:00	2024-11-08T22:00:00	6	Velocidad del viento	0
27102	7	Sololá	701	Sololá	1	Sololá	6	Junio	2023-01-06T00:00:00	2024-11-08T22:00:00	7	Dirección del viento	0
27103	7	Sololá	701	Sololá	1	Sololá	6	Junio	2023-01-06T00:00:00	2024-11-08T22:00:00	1	Precipitación	0
27104	7	Sololá	701	Sololá	1	Sololá	6	Junio	2023-01-06T00:00:00	2024-11-08T22:00:00	8	Radiación solar	0
27105	7	Sololá	701	Sololá	1	Sololá	6	Junio	2023-01-06T00:00:00	2024-11-08T23:00:00	2	Temperatura media	16.4
27106	7	Sololá	701	Sololá	1	Sololá	6	Junio	2023-01-06T00:00:00	2024-11-08T23:00:00	4	Temperatura máxima	16.9
27107	7	Sololá	701	Sololá	1	Sololá	6	Junio	2023-01-06T00:00:00	2024-11-08T23:00:00	3	Temperatura mínima	16.4
27108	7	Sololá	701	Sololá	1	Sololá	6	Junio	2023-01-06T00:00:00	2024-11-08T23:00:00	5	Humedad	94
27109	7	Sololá	701	Sololá	1	Sololá	6	Junio	2023-01-06T00:00:00	2024-11-08T23:00:00	6	Velocidad del viento	1.6
27110	7	Sololá	701	Sololá	1	Sololá	6	Junio	2023-01-06T00:00:00	2024-11-08T23:00:00	7	Dirección del viento	1.61
27111	7	Sololá	701	Sololá	1	Sololá	6	Junio	2023-01-06T00:00:00	2024-11-08T23:00:00	1	Precipitación	0
27112	7	Sololá	701	Sololá	1	Sololá	6	Junio	2023-01-06T00:00:00	2024-11-08T23:00:00	8	Radiación solar	0
27113	7	Sololá	701	Sololá	1	Sololá	6	Junio	2023-02-06T00:00:00	2024-11-08T00:00:00	2	Temperatura media	15.5
27114	7	Sololá	701	Sololá	1	Sololá	6	Junio	2023-02-06T00:00:00	2024-11-08T00:00:00	4	Temperatura máxima	16.4
27115	7	Sololá	701	Sololá	1	Sololá	6	Junio	2023-02-06T00:00:00	2024-11-08T00:00:00	3	Temperatura mínima	15.5
27116	7	Sololá	701	Sololá	1	Sololá	6	Junio	2023-02-06T00:00:00	2024-11-08T00:00:00	5	Humedad	89
27117	7	Sololá	701	Sololá	1	Sololá	6	Junio	2023-02-06T00:00:00	2024-11-08T00:00:00	6	Velocidad del viento	1.6
27118	7	Sololá	701	Sololá	1	Sololá	6	Junio	2023-02-06T00:00:00	2024-11-08T00:00:00	7	Dirección del viento	1.61
27119	7	Sololá	701	Sololá	1	Sololá	6	Junio	2023-02-06T00:00:00	2024-11-08T00:00:00	1	Precipitación	0
27120	7	Sololá	701	Sololá	1	Sololá	6	Junio	2023-02-06T00:00:00	2024-11-08T00:00:00	8	Radiación solar	0
27121	7	Sololá	701	Sololá	1	Sololá	6	Junio	2023-02-06T00:00:00	2024-11-08T01:00:00	2	Temperatura media	15.6
27122	7	Sololá	701	Sololá	1	Sololá	6	Junio	2023-02-06T00:00:00	2024-11-08T01:00:00	4	Temperatura máxima	15.8
27123	7	Sololá	701	Sololá	1	Sololá	6	Junio	2023-02-06T00:00:00	2024-11-08T01:00:00	3	Temperatura mínima	15.4
27124	7	Sololá	701	Sololá	1	Sololá	6	Junio	2023-02-06T00:00:00	2024-11-08T01:00:00	5	Humedad	88
27125	7	Sololá	701	Sololá	1	Sololá	6	Junio	2023-02-06T00:00:00	2024-11-08T01:00:00	6	Velocidad del viento	1.6
27126	7	Sololá	701	Sololá	1	Sololá	6	Junio	2023-02-06T00:00:00	2024-11-08T01:00:00	7	Dirección del viento	1.61
27127	7	Sololá	701	Sololá	1	Sololá	6	Junio	2023-02-06T00:00:00	2024-11-08T01:00:00	1	Precipitación	0
27128	7	Sololá	701	Sololá	1	Sololá	6	Junio	2023-02-06T00:00:00	2024-11-08T01:00:00	8	Radiación solar	0
27129	7	Sololá	701	Sololá	1	Sololá	6	Junio	2023-02-06T00:00:00	2024-11-08T02:00:00	2	Temperatura media	15.2
27130	7	Sololá	701	Sololá	1	Sololá	6	Junio	2023-02-06T00:00:00	2024-11-08T02:00:00	4	Temperatura máxima	15.6
27131	7	Sololá	701	Sololá	1	Sololá	6	Junio	2023-02-06T00:00:00	2024-11-08T02:00:00	3	Temperatura mínima	15
27132	7	Sololá	701	Sololá	1	Sololá	6	Junio	2023-02-06T00:00:00	2024-11-08T02:00:00	5	Humedad	85
27133	7	Sololá	701	Sololá	1	Sololá	6	Junio	2023-02-06T00:00:00	2024-11-08T02:00:00	6	Velocidad del viento	4.8
27134	7	Sololá	701	Sololá	1	Sololá	6	Junio	2023-02-06T00:00:00	2024-11-08T02:00:00	7	Dirección del viento	4.83
27135	7	Sololá	701	Sololá	1	Sololá	6	Junio	2023-02-06T00:00:00	2024-11-08T02:00:00	1	Precipitación	0
27136	7	Sololá	701	Sololá	1	Sololá	6	Junio	2023-02-06T00:00:00	2024-11-08T02:00:00	8	Radiación solar	0
27137	7	Sololá	701	Sololá	1	Sololá	6	Junio	2023-02-06T00:00:00	2024-11-08T03:00:00	2	Temperatura media	14.3
27138	7	Sololá	701	Sololá	1	Sololá	6	Junio	2023-02-06T00:00:00	2024-11-08T03:00:00	4	Temperatura máxima	15.3
27139	7	Sololá	701	Sololá	1	Sololá	6	Junio	2023-02-06T00:00:00	2024-11-08T03:00:00	3	Temperatura mínima	14.3
27140	7	Sololá	701	Sololá	1	Sololá	6	Junio	2023-02-06T00:00:00	2024-11-08T03:00:00	5	Humedad	85
27141	7	Sololá	701	Sololá	1	Sololá	6	Junio	2023-02-06T00:00:00	2024-11-08T03:00:00	6	Velocidad del viento	6.4
27142	7	Sololá	701	Sololá	1	Sololá	6	Junio	2023-02-06T00:00:00	2024-11-08T03:00:00	7	Dirección del viento	6.44
27143	7	Sololá	701	Sololá	1	Sololá	6	Junio	2023-02-06T00:00:00	2024-11-08T03:00:00	1	Precipitación	0
27144	7	Sololá	701	Sololá	1	Sololá	6	Junio	2023-02-06T00:00:00	2024-11-08T03:00:00	8	Radiación solar	0
27145	7	Sololá	701	Sololá	1	Sololá	6	Junio	2023-02-06T00:00:00	2024-11-08T04:00:00	2	Temperatura media	13.9
27146	7	Sololá	701	Sololá	1	Sololá	6	Junio	2023-02-06T00:00:00	2024-11-08T04:00:00	4	Temperatura máxima	14.3
27147	7	Sololá	701	Sololá	1	Sololá	6	Junio	2023-02-06T00:00:00	2024-11-08T04:00:00	3	Temperatura mínima	13.7
27148	7	Sololá	701	Sololá	1	Sololá	6	Junio	2023-02-06T00:00:00	2024-11-08T04:00:00	5	Humedad	88
27149	7	Sololá	701	Sololá	1	Sololá	6	Junio	2023-02-06T00:00:00	2024-11-08T04:00:00	6	Velocidad del viento	3.2
27150	7	Sololá	701	Sololá	1	Sololá	6	Junio	2023-02-06T00:00:00	2024-11-08T04:00:00	7	Dirección del viento	3.22
27151	7	Sololá	701	Sololá	1	Sololá	6	Junio	2023-02-06T00:00:00	2024-11-08T04:00:00	1	Precipitación	0
27152	7	Sololá	701	Sololá	1	Sololá	6	Junio	2023-02-06T00:00:00	2024-11-08T04:00:00	8	Radiación solar	0
27153	7	Sololá	701	Sololá	1	Sololá	6	Junio	2023-02-06T00:00:00	2024-11-08T05:00:00	2	Temperatura media	13.8
27154	7	Sololá	701	Sololá	1	Sololá	6	Junio	2023-02-06T00:00:00	2024-11-08T05:00:00	4	Temperatura máxima	14.1
27155	7	Sololá	701	Sololá	1	Sololá	6	Junio	2023-02-06T00:00:00	2024-11-08T05:00:00	3	Temperatura mínima	13.8
27156	7	Sololá	701	Sololá	1	Sololá	6	Junio	2023-02-06T00:00:00	2024-11-08T05:00:00	5	Humedad	87
27157	7	Sololá	701	Sololá	1	Sololá	6	Junio	2023-02-06T00:00:00	2024-11-08T05:00:00	6	Velocidad del viento	1.6
27158	7	Sololá	701	Sololá	1	Sololá	6	Junio	2023-02-06T00:00:00	2024-11-08T05:00:00	7	Dirección del viento	1.61
27159	7	Sololá	701	Sololá	1	Sololá	6	Junio	2023-02-06T00:00:00	2024-11-08T05:00:00	1	Precipitación	0
27160	7	Sololá	701	Sololá	1	Sololá	6	Junio	2023-02-06T00:00:00	2024-11-08T05:00:00	8	Radiación solar	0
27161	7	Sololá	701	Sololá	1	Sololá	6	Junio	2023-02-06T00:00:00	2024-11-08T06:00:00	2	Temperatura media	13.3
27162	7	Sololá	701	Sololá	1	Sololá	6	Junio	2023-02-06T00:00:00	2024-11-08T06:00:00	4	Temperatura máxima	13.8
27163	7	Sololá	701	Sololá	1	Sololá	6	Junio	2023-02-06T00:00:00	2024-11-08T06:00:00	3	Temperatura mínima	13.3
27164	7	Sololá	701	Sololá	1	Sololá	6	Junio	2023-02-06T00:00:00	2024-11-08T06:00:00	5	Humedad	87
27165	7	Sololá	701	Sololá	1	Sololá	6	Junio	2023-02-06T00:00:00	2024-11-08T06:00:00	6	Velocidad del viento	3.2
27166	7	Sololá	701	Sololá	1	Sololá	6	Junio	2023-02-06T00:00:00	2024-11-08T06:00:00	7	Dirección del viento	3.22
27167	7	Sololá	701	Sololá	1	Sololá	6	Junio	2023-02-06T00:00:00	2024-11-08T06:00:00	1	Precipitación	0
27168	7	Sololá	701	Sololá	1	Sololá	6	Junio	2023-02-06T00:00:00	2024-11-08T06:00:00	8	Radiación solar	0
27169	7	Sololá	701	Sololá	1	Sololá	6	Junio	2023-02-06T00:00:00	2024-11-08T07:00:00	2	Temperatura media	15.6
27170	7	Sololá	701	Sololá	1	Sololá	6	Junio	2023-02-06T00:00:00	2024-11-08T07:00:00	4	Temperatura máxima	15.6
27171	7	Sololá	701	Sololá	1	Sololá	6	Junio	2023-02-06T00:00:00	2024-11-08T07:00:00	3	Temperatura mínima	13.3
27172	7	Sololá	701	Sololá	1	Sololá	6	Junio	2023-02-06T00:00:00	2024-11-08T07:00:00	5	Humedad	79
27173	7	Sololá	701	Sololá	1	Sololá	6	Junio	2023-02-06T00:00:00	2024-11-08T07:00:00	6	Velocidad del viento	3.2
27174	7	Sololá	701	Sololá	1	Sololá	6	Junio	2023-02-06T00:00:00	2024-11-08T07:00:00	7	Dirección del viento	3.22
27175	7	Sololá	701	Sololá	1	Sololá	6	Junio	2023-02-06T00:00:00	2024-11-08T07:00:00	1	Precipitación	0
27176	7	Sololá	701	Sololá	1	Sololá	6	Junio	2023-02-06T00:00:00	2024-11-08T07:00:00	8	Radiación solar	19
27177	7	Sololá	701	Sololá	1	Sololá	6	Junio	2023-02-06T00:00:00	2024-11-08T08:00:00	2	Temperatura media	18.7
27178	7	Sololá	701	Sololá	1	Sololá	6	Junio	2023-02-06T00:00:00	2024-11-08T08:00:00	4	Temperatura máxima	18.7
27179	7	Sololá	701	Sololá	1	Sololá	6	Junio	2023-02-06T00:00:00	2024-11-08T08:00:00	3	Temperatura mínima	15.6
27180	7	Sololá	701	Sololá	1	Sololá	6	Junio	2023-02-06T00:00:00	2024-11-08T08:00:00	5	Humedad	71
27181	7	Sololá	701	Sololá	1	Sololá	6	Junio	2023-02-06T00:00:00	2024-11-08T08:00:00	6	Velocidad del viento	1.6
27182	7	Sololá	701	Sololá	1	Sololá	6	Junio	2023-02-06T00:00:00	2024-11-08T08:00:00	7	Dirección del viento	1.61
27183	7	Sololá	701	Sololá	1	Sololá	6	Junio	2023-02-06T00:00:00	2024-11-08T08:00:00	1	Precipitación	0
27184	7	Sololá	701	Sololá	1	Sololá	6	Junio	2023-02-06T00:00:00	2024-11-08T08:00:00	8	Radiación solar	61
27185	7	Sololá	701	Sololá	1	Sololá	6	Junio	2023-02-06T00:00:00	2024-11-08T09:00:00	2	Temperatura media	20.3
27186	7	Sololá	701	Sololá	1	Sololá	6	Junio	2023-02-06T00:00:00	2024-11-08T09:00:00	4	Temperatura máxima	20.3
27187	7	Sololá	701	Sololá	1	Sololá	6	Junio	2023-02-06T00:00:00	2024-11-08T09:00:00	3	Temperatura mínima	18.7
27188	7	Sololá	701	Sololá	1	Sololá	6	Junio	2023-02-06T00:00:00	2024-11-08T09:00:00	5	Humedad	74
27189	7	Sololá	701	Sololá	1	Sololá	6	Junio	2023-02-06T00:00:00	2024-11-08T09:00:00	6	Velocidad del viento	3.2
27190	7	Sololá	701	Sololá	1	Sololá	6	Junio	2023-02-06T00:00:00	2024-11-08T09:00:00	7	Dirección del viento	3.22
27191	7	Sololá	701	Sololá	1	Sololá	6	Junio	2023-02-06T00:00:00	2024-11-08T09:00:00	1	Precipitación	0
27192	7	Sololá	701	Sololá	1	Sololá	6	Junio	2023-02-06T00:00:00	2024-11-08T09:00:00	8	Radiación solar	121
27193	7	Sololá	701	Sololá	1	Sololá	6	Junio	2023-02-06T00:00:00	2024-11-08T10:00:00	2	Temperatura media	20.8
27194	7	Sololá	701	Sololá	1	Sololá	6	Junio	2023-02-06T00:00:00	2024-11-08T10:00:00	4	Temperatura máxima	21.1
27195	7	Sololá	701	Sololá	1	Sololá	6	Junio	2023-02-06T00:00:00	2024-11-08T10:00:00	3	Temperatura mínima	20.3
27196	7	Sololá	701	Sololá	1	Sololá	6	Junio	2023-02-06T00:00:00	2024-11-08T10:00:00	5	Humedad	69
27197	7	Sololá	701	Sololá	1	Sololá	6	Junio	2023-02-06T00:00:00	2024-11-08T10:00:00	6	Velocidad del viento	4.8
27198	7	Sololá	701	Sololá	1	Sololá	6	Junio	2023-02-06T00:00:00	2024-11-08T10:00:00	7	Dirección del viento	4.83
27199	7	Sololá	701	Sololá	1	Sololá	6	Junio	2023-02-06T00:00:00	2024-11-08T10:00:00	1	Precipitación	0
27200	7	Sololá	701	Sololá	1	Sololá	6	Junio	2023-02-06T00:00:00	2024-11-08T10:00:00	8	Radiación solar	236
27201	7	Sololá	701	Sololá	1	Sololá	6	Junio	2023-02-06T00:00:00	2024-11-08T11:00:00	2	Temperatura media	20.8
27202	7	Sololá	701	Sololá	1	Sololá	6	Junio	2023-02-06T00:00:00	2024-11-08T11:00:00	4	Temperatura máxima	21.4
27203	7	Sololá	701	Sololá	1	Sololá	6	Junio	2023-02-06T00:00:00	2024-11-08T11:00:00	3	Temperatura mínima	20.7
27204	7	Sololá	701	Sololá	1	Sololá	6	Junio	2023-02-06T00:00:00	2024-11-08T11:00:00	5	Humedad	78
27205	7	Sololá	701	Sololá	1	Sololá	6	Junio	2023-02-06T00:00:00	2024-11-08T11:00:00	6	Velocidad del viento	6.4
27206	7	Sololá	701	Sololá	1	Sololá	6	Junio	2023-02-06T00:00:00	2024-11-08T11:00:00	7	Dirección del viento	6.44
27207	7	Sololá	701	Sololá	1	Sololá	6	Junio	2023-02-06T00:00:00	2024-11-08T11:00:00	1	Precipitación	0
27208	7	Sololá	701	Sololá	1	Sololá	6	Junio	2023-02-06T00:00:00	2024-11-08T11:00:00	8	Radiación solar	136
27209	7	Sololá	701	Sololá	1	Sololá	6	Junio	2023-02-06T00:00:00	2024-11-08T12:00:00	2	Temperatura media	21.2
27210	7	Sololá	701	Sololá	1	Sololá	6	Junio	2023-02-06T00:00:00	2024-11-08T12:00:00	4	Temperatura máxima	21.2
27211	7	Sololá	701	Sololá	1	Sololá	6	Junio	2023-02-06T00:00:00	2024-11-08T12:00:00	3	Temperatura mínima	20.8
27212	7	Sololá	701	Sololá	1	Sololá	6	Junio	2023-02-06T00:00:00	2024-11-08T12:00:00	5	Humedad	78
27213	7	Sololá	701	Sololá	1	Sololá	6	Junio	2023-02-06T00:00:00	2024-11-08T12:00:00	6	Velocidad del viento	6.4
27214	7	Sololá	701	Sololá	1	Sololá	6	Junio	2023-02-06T00:00:00	2024-11-08T12:00:00	7	Dirección del viento	6.44
27215	7	Sololá	701	Sololá	1	Sololá	6	Junio	2023-02-06T00:00:00	2024-11-08T12:00:00	1	Precipitación	0
27216	7	Sololá	701	Sololá	1	Sololá	6	Junio	2023-02-06T00:00:00	2024-11-08T12:00:00	8	Radiación solar	162
27217	7	Sololá	701	Sololá	1	Sololá	6	Junio	2023-02-06T00:00:00	2024-11-08T13:00:00	2	Temperatura media	21.4
27218	7	Sololá	701	Sololá	1	Sololá	6	Junio	2023-02-06T00:00:00	2024-11-08T13:00:00	4	Temperatura máxima	22
27219	7	Sololá	701	Sololá	1	Sololá	6	Junio	2023-02-06T00:00:00	2024-11-08T13:00:00	3	Temperatura mínima	21.2
27220	7	Sololá	701	Sololá	1	Sololá	6	Junio	2023-02-06T00:00:00	2024-11-08T13:00:00	5	Humedad	79
27221	7	Sololá	701	Sololá	1	Sololá	6	Junio	2023-02-06T00:00:00	2024-11-08T13:00:00	6	Velocidad del viento	6.4
27222	7	Sololá	701	Sololá	1	Sololá	6	Junio	2023-02-06T00:00:00	2024-11-08T13:00:00	7	Dirección del viento	6.44
27223	7	Sololá	701	Sololá	1	Sololá	6	Junio	2023-02-06T00:00:00	2024-11-08T13:00:00	1	Precipitación	0
27224	7	Sololá	701	Sololá	1	Sololá	6	Junio	2023-02-06T00:00:00	2024-11-08T13:00:00	8	Radiación solar	102
27225	7	Sololá	701	Sololá	1	Sololá	6	Junio	2023-02-06T00:00:00	2024-11-08T14:00:00	2	Temperatura media	21.1
27226	7	Sololá	701	Sololá	1	Sololá	6	Junio	2023-02-06T00:00:00	2024-11-08T14:00:00	4	Temperatura máxima	21.4
27227	7	Sololá	701	Sololá	1	Sololá	6	Junio	2023-02-06T00:00:00	2024-11-08T14:00:00	3	Temperatura mínima	20.6
27228	7	Sololá	701	Sololá	1	Sololá	6	Junio	2023-02-06T00:00:00	2024-11-08T14:00:00	5	Humedad	80
27229	7	Sololá	701	Sololá	1	Sololá	6	Junio	2023-02-06T00:00:00	2024-11-08T14:00:00	6	Velocidad del viento	6.4
27230	7	Sololá	701	Sololá	1	Sololá	6	Junio	2023-02-06T00:00:00	2024-11-08T14:00:00	7	Dirección del viento	6.44
27231	7	Sololá	701	Sololá	1	Sololá	6	Junio	2023-02-06T00:00:00	2024-11-08T14:00:00	1	Precipitación	0
27232	7	Sololá	701	Sololá	1	Sololá	6	Junio	2023-02-06T00:00:00	2024-11-08T14:00:00	8	Radiación solar	112
27233	7	Sololá	701	Sololá	1	Sololá	6	Junio	2023-02-06T00:00:00	2024-11-08T15:00:00	2	Temperatura media	20.8
27234	7	Sololá	701	Sololá	1	Sololá	6	Junio	2023-02-06T00:00:00	2024-11-08T15:00:00	4	Temperatura máxima	21.6
27235	7	Sololá	701	Sololá	1	Sololá	6	Junio	2023-02-06T00:00:00	2024-11-08T15:00:00	3	Temperatura mínima	20.8
27236	7	Sololá	701	Sololá	1	Sololá	6	Junio	2023-02-06T00:00:00	2024-11-08T15:00:00	5	Humedad	80
27237	7	Sololá	701	Sololá	1	Sololá	6	Junio	2023-02-06T00:00:00	2024-11-08T15:00:00	6	Velocidad del viento	4.8
27238	7	Sololá	701	Sololá	1	Sololá	6	Junio	2023-02-06T00:00:00	2024-11-08T15:00:00	7	Dirección del viento	4.83
27239	7	Sololá	701	Sololá	1	Sololá	6	Junio	2023-02-06T00:00:00	2024-11-08T15:00:00	1	Precipitación	0
27240	7	Sololá	701	Sololá	1	Sololá	6	Junio	2023-02-06T00:00:00	2024-11-08T15:00:00	8	Radiación solar	195
27241	7	Sololá	701	Sololá	1	Sololá	6	Junio	2023-02-06T00:00:00	2024-11-08T16:00:00	2	Temperatura media	19.5
27242	7	Sololá	701	Sololá	1	Sololá	6	Junio	2023-02-06T00:00:00	2024-11-08T16:00:00	4	Temperatura máxima	21.1
27243	7	Sololá	701	Sololá	1	Sololá	6	Junio	2023-02-06T00:00:00	2024-11-08T16:00:00	3	Temperatura mínima	19.5
27244	7	Sololá	701	Sololá	1	Sololá	6	Junio	2023-02-06T00:00:00	2024-11-08T16:00:00	5	Humedad	85
27245	7	Sololá	701	Sololá	1	Sololá	6	Junio	2023-02-06T00:00:00	2024-11-08T16:00:00	6	Velocidad del viento	4.8
27246	7	Sololá	701	Sololá	1	Sololá	6	Junio	2023-02-06T00:00:00	2024-11-08T16:00:00	7	Dirección del viento	4.83
27247	7	Sololá	701	Sololá	1	Sololá	6	Junio	2023-02-06T00:00:00	2024-11-08T16:00:00	1	Precipitación	0
27248	7	Sololá	701	Sololá	1	Sololá	6	Junio	2023-02-06T00:00:00	2024-11-08T16:00:00	8	Radiación solar	183
27249	7	Sololá	701	Sololá	1	Sololá	6	Junio	2023-02-06T00:00:00	2024-11-08T17:00:00	2	Temperatura media	19.3
27250	7	Sololá	701	Sololá	1	Sololá	6	Junio	2023-02-06T00:00:00	2024-11-08T17:00:00	4	Temperatura máxima	19.7
27251	7	Sololá	701	Sololá	1	Sololá	6	Junio	2023-02-06T00:00:00	2024-11-08T17:00:00	3	Temperatura mínima	18.9
27252	7	Sololá	701	Sololá	1	Sololá	6	Junio	2023-02-06T00:00:00	2024-11-08T17:00:00	5	Humedad	88
27253	7	Sololá	701	Sololá	1	Sololá	6	Junio	2023-02-06T00:00:00	2024-11-08T17:00:00	6	Velocidad del viento	3.2
27254	7	Sololá	701	Sololá	1	Sololá	6	Junio	2023-02-06T00:00:00	2024-11-08T17:00:00	7	Dirección del viento	3.22
27255	7	Sololá	701	Sololá	1	Sololá	6	Junio	2023-02-06T00:00:00	2024-11-08T17:00:00	1	Precipitación	0
27256	7	Sololá	701	Sololá	1	Sololá	6	Junio	2023-02-06T00:00:00	2024-11-08T17:00:00	8	Radiación solar	114
27257	7	Sololá	701	Sololá	1	Sololá	6	Junio	2023-02-06T00:00:00	2024-11-08T18:00:00	2	Temperatura media	18.4
27258	7	Sololá	701	Sololá	1	Sololá	6	Junio	2023-02-06T00:00:00	2024-11-08T18:00:00	4	Temperatura máxima	19.3
27259	7	Sololá	701	Sololá	1	Sololá	6	Junio	2023-02-06T00:00:00	2024-11-08T18:00:00	3	Temperatura mínima	18.4
27260	7	Sololá	701	Sololá	1	Sololá	6	Junio	2023-02-06T00:00:00	2024-11-08T18:00:00	5	Humedad	90
27261	7	Sololá	701	Sololá	1	Sololá	6	Junio	2023-02-06T00:00:00	2024-11-08T18:00:00	6	Velocidad del viento	1.6
27262	7	Sololá	701	Sololá	1	Sololá	6	Junio	2023-02-06T00:00:00	2024-11-08T18:00:00	7	Dirección del viento	1.61
27263	7	Sololá	701	Sololá	1	Sololá	6	Junio	2023-02-06T00:00:00	2024-11-08T18:00:00	1	Precipitación	0
27264	7	Sololá	701	Sololá	1	Sololá	6	Junio	2023-02-06T00:00:00	2024-11-08T18:00:00	8	Radiación solar	39
27265	7	Sololá	701	Sololá	1	Sololá	6	Junio	2023-02-06T00:00:00	2024-11-08T19:00:00	2	Temperatura media	18
27266	7	Sololá	701	Sololá	1	Sololá	6	Junio	2023-02-06T00:00:00	2024-11-08T19:00:00	4	Temperatura máxima	18.4
27267	7	Sololá	701	Sololá	1	Sololá	6	Junio	2023-02-06T00:00:00	2024-11-08T19:00:00	3	Temperatura mínima	17.9
27268	7	Sololá	701	Sololá	1	Sololá	6	Junio	2023-02-06T00:00:00	2024-11-08T19:00:00	5	Humedad	91
27269	7	Sololá	701	Sololá	1	Sololá	6	Junio	2023-02-06T00:00:00	2024-11-08T19:00:00	6	Velocidad del viento	0
27270	7	Sololá	701	Sololá	1	Sololá	6	Junio	2023-02-06T00:00:00	2024-11-08T19:00:00	7	Dirección del viento	0
27271	7	Sololá	701	Sololá	1	Sololá	6	Junio	2023-02-06T00:00:00	2024-11-08T19:00:00	1	Precipitación	0
27272	7	Sololá	701	Sololá	1	Sololá	6	Junio	2023-02-06T00:00:00	2024-11-08T19:00:00	8	Radiación solar	0
27273	7	Sololá	701	Sololá	1	Sololá	6	Junio	2023-02-06T00:00:00	2024-11-08T20:00:00	2	Temperatura media	18.1
27274	7	Sololá	701	Sololá	1	Sololá	6	Junio	2023-02-06T00:00:00	2024-11-08T20:00:00	4	Temperatura máxima	18.3
27275	7	Sololá	701	Sololá	1	Sololá	6	Junio	2023-02-06T00:00:00	2024-11-08T20:00:00	3	Temperatura mínima	17.8
27276	7	Sololá	701	Sololá	1	Sololá	6	Junio	2023-02-06T00:00:00	2024-11-08T20:00:00	5	Humedad	90
27277	7	Sololá	701	Sololá	1	Sololá	6	Junio	2023-02-06T00:00:00	2024-11-08T20:00:00	6	Velocidad del viento	1.6
27278	7	Sololá	701	Sololá	1	Sololá	6	Junio	2023-02-06T00:00:00	2024-11-08T20:00:00	7	Dirección del viento	1.61
27279	7	Sololá	701	Sololá	1	Sololá	6	Junio	2023-02-06T00:00:00	2024-11-08T20:00:00	1	Precipitación	0
27280	7	Sololá	701	Sololá	1	Sololá	6	Junio	2023-02-06T00:00:00	2024-11-08T20:00:00	8	Radiación solar	0
27281	7	Sololá	701	Sololá	1	Sololá	6	Junio	2023-02-06T00:00:00	2024-11-08T21:00:00	2	Temperatura media	17.4
27282	7	Sololá	701	Sololá	1	Sololá	6	Junio	2023-02-06T00:00:00	2024-11-08T21:00:00	4	Temperatura máxima	18.1
27283	7	Sololá	701	Sololá	1	Sololá	6	Junio	2023-02-06T00:00:00	2024-11-08T21:00:00	3	Temperatura mínima	17.3
27284	7	Sololá	701	Sololá	1	Sololá	6	Junio	2023-02-06T00:00:00	2024-11-08T21:00:00	5	Humedad	91
27285	7	Sololá	701	Sololá	1	Sololá	6	Junio	2023-02-06T00:00:00	2024-11-08T21:00:00	6	Velocidad del viento	1.6
27286	7	Sololá	701	Sololá	1	Sololá	6	Junio	2023-02-06T00:00:00	2024-11-08T21:00:00	7	Dirección del viento	1.61
27287	7	Sololá	701	Sololá	1	Sololá	6	Junio	2023-02-06T00:00:00	2024-11-08T21:00:00	1	Precipitación	0
27288	7	Sololá	701	Sololá	1	Sololá	6	Junio	2023-02-06T00:00:00	2024-11-08T21:00:00	8	Radiación solar	0
27289	7	Sololá	701	Sololá	1	Sololá	6	Junio	2023-02-06T00:00:00	2024-11-08T22:00:00	2	Temperatura media	16.9
27290	7	Sololá	701	Sololá	1	Sololá	6	Junio	2023-02-06T00:00:00	2024-11-08T22:00:00	4	Temperatura máxima	17.6
27291	7	Sololá	701	Sololá	1	Sololá	6	Junio	2023-02-06T00:00:00	2024-11-08T22:00:00	3	Temperatura mínima	16.9
27292	7	Sololá	701	Sololá	1	Sololá	6	Junio	2023-02-06T00:00:00	2024-11-08T22:00:00	5	Humedad	90
27293	7	Sololá	701	Sololá	1	Sololá	6	Junio	2023-02-06T00:00:00	2024-11-08T22:00:00	6	Velocidad del viento	1.6
27294	7	Sololá	701	Sololá	1	Sololá	6	Junio	2023-02-06T00:00:00	2024-11-08T22:00:00	7	Dirección del viento	1.61
27295	7	Sololá	701	Sololá	1	Sololá	6	Junio	2023-02-06T00:00:00	2024-11-08T22:00:00	1	Precipitación	0
27296	7	Sololá	701	Sololá	1	Sololá	6	Junio	2023-02-06T00:00:00	2024-11-08T22:00:00	8	Radiación solar	0
27297	7	Sololá	701	Sololá	1	Sololá	6	Junio	2023-02-06T00:00:00	2024-11-08T23:00:00	2	Temperatura media	17.3
27298	7	Sololá	701	Sololá	1	Sololá	6	Junio	2023-02-06T00:00:00	2024-11-08T23:00:00	4	Temperatura máxima	17.4
27299	7	Sololá	701	Sololá	1	Sololá	6	Junio	2023-02-06T00:00:00	2024-11-08T23:00:00	3	Temperatura mínima	16.7
27300	7	Sololá	701	Sololá	1	Sololá	6	Junio	2023-02-06T00:00:00	2024-11-08T23:00:00	5	Humedad	88
27301	7	Sololá	701	Sololá	1	Sololá	6	Junio	2023-02-06T00:00:00	2024-11-08T23:00:00	6	Velocidad del viento	1.6
27302	7	Sololá	701	Sololá	1	Sololá	6	Junio	2023-02-06T00:00:00	2024-11-08T23:00:00	7	Dirección del viento	1.61
27303	7	Sololá	701	Sololá	1	Sololá	6	Junio	2023-02-06T00:00:00	2024-11-08T23:00:00	1	Precipitación	0
27304	7	Sololá	701	Sololá	1	Sololá	6	Junio	2023-02-06T00:00:00	2024-11-08T23:00:00	8	Radiación solar	0
27305	7	Sololá	701	Sololá	1	Sololá	6	Junio	2023-03-06T00:00:00	2024-11-08T00:00:00	2	Temperatura media	16.8
27306	7	Sololá	701	Sololá	1	Sololá	6	Junio	2023-03-06T00:00:00	2024-11-08T00:00:00	4	Temperatura máxima	17.3
27307	7	Sololá	701	Sololá	1	Sololá	6	Junio	2023-03-06T00:00:00	2024-11-08T00:00:00	3	Temperatura mínima	16.8
27308	7	Sololá	701	Sololá	1	Sololá	6	Junio	2023-03-06T00:00:00	2024-11-08T00:00:00	5	Humedad	89
27309	7	Sololá	701	Sololá	1	Sololá	6	Junio	2023-03-06T00:00:00	2024-11-08T00:00:00	6	Velocidad del viento	0
27310	7	Sololá	701	Sololá	1	Sololá	6	Junio	2023-03-06T00:00:00	2024-11-08T00:00:00	7	Dirección del viento	0
27311	7	Sololá	701	Sololá	1	Sololá	6	Junio	2023-03-06T00:00:00	2024-11-08T00:00:00	1	Precipitación	0
27312	7	Sololá	701	Sololá	1	Sololá	6	Junio	2023-03-06T00:00:00	2024-11-08T00:00:00	8	Radiación solar	0
27313	7	Sololá	701	Sololá	1	Sololá	6	Junio	2023-03-06T00:00:00	2024-11-08T01:00:00	2	Temperatura media	16.3
27314	7	Sololá	701	Sololá	1	Sololá	6	Junio	2023-03-06T00:00:00	2024-11-08T01:00:00	4	Temperatura máxima	16.9
27315	7	Sololá	701	Sololá	1	Sololá	6	Junio	2023-03-06T00:00:00	2024-11-08T01:00:00	3	Temperatura mínima	16.3
27316	7	Sololá	701	Sololá	1	Sololá	6	Junio	2023-03-06T00:00:00	2024-11-08T01:00:00	5	Humedad	89
27317	7	Sololá	701	Sololá	1	Sololá	6	Junio	2023-03-06T00:00:00	2024-11-08T01:00:00	6	Velocidad del viento	1.6
27318	7	Sololá	701	Sololá	1	Sololá	6	Junio	2023-03-06T00:00:00	2024-11-08T01:00:00	7	Dirección del viento	1.61
27319	7	Sololá	701	Sololá	1	Sololá	6	Junio	2023-03-06T00:00:00	2024-11-08T01:00:00	1	Precipitación	0
27320	7	Sololá	701	Sololá	1	Sololá	6	Junio	2023-03-06T00:00:00	2024-11-08T01:00:00	8	Radiación solar	0
27321	7	Sololá	701	Sololá	1	Sololá	6	Junio	2023-03-06T00:00:00	2024-11-08T02:00:00	2	Temperatura media	16.3
27322	7	Sololá	701	Sololá	1	Sololá	6	Junio	2023-03-06T00:00:00	2024-11-08T02:00:00	4	Temperatura máxima	16.3
27323	7	Sololá	701	Sololá	1	Sololá	6	Junio	2023-03-06T00:00:00	2024-11-08T02:00:00	3	Temperatura mínima	15.7
27324	7	Sololá	701	Sololá	1	Sololá	6	Junio	2023-03-06T00:00:00	2024-11-08T02:00:00	5	Humedad	87
27325	7	Sololá	701	Sololá	1	Sololá	6	Junio	2023-03-06T00:00:00	2024-11-08T02:00:00	6	Velocidad del viento	1.6
27326	7	Sololá	701	Sololá	1	Sololá	6	Junio	2023-03-06T00:00:00	2024-11-08T02:00:00	7	Dirección del viento	1.61
27327	7	Sololá	701	Sololá	1	Sololá	6	Junio	2023-03-06T00:00:00	2024-11-08T02:00:00	1	Precipitación	0
27328	7	Sololá	701	Sololá	1	Sololá	6	Junio	2023-03-06T00:00:00	2024-11-08T02:00:00	8	Radiación solar	0
27329	7	Sololá	701	Sololá	1	Sololá	6	Junio	2023-03-06T00:00:00	2024-11-08T03:00:00	2	Temperatura media	15.2
27330	7	Sololá	701	Sololá	1	Sololá	6	Junio	2023-03-06T00:00:00	2024-11-08T03:00:00	4	Temperatura máxima	16.3
27331	7	Sololá	701	Sololá	1	Sololá	6	Junio	2023-03-06T00:00:00	2024-11-08T03:00:00	3	Temperatura mínima	15.1
27332	7	Sololá	701	Sololá	1	Sololá	6	Junio	2023-03-06T00:00:00	2024-11-08T03:00:00	5	Humedad	89
27333	7	Sololá	701	Sololá	1	Sololá	6	Junio	2023-03-06T00:00:00	2024-11-08T03:00:00	6	Velocidad del viento	1.6
27334	7	Sololá	701	Sololá	1	Sololá	6	Junio	2023-03-06T00:00:00	2024-11-08T03:00:00	7	Dirección del viento	1.61
27335	7	Sololá	701	Sololá	1	Sololá	6	Junio	2023-03-06T00:00:00	2024-11-08T03:00:00	1	Precipitación	0
27336	7	Sololá	701	Sololá	1	Sololá	6	Junio	2023-03-06T00:00:00	2024-11-08T03:00:00	8	Radiación solar	0
27337	7	Sololá	701	Sololá	1	Sololá	6	Junio	2023-03-06T00:00:00	2024-11-08T04:00:00	2	Temperatura media	15.1
27338	7	Sololá	701	Sololá	1	Sololá	6	Junio	2023-03-06T00:00:00	2024-11-08T04:00:00	4	Temperatura máxima	15.3
27339	7	Sololá	701	Sololá	1	Sololá	6	Junio	2023-03-06T00:00:00	2024-11-08T04:00:00	3	Temperatura mínima	14.8
27340	7	Sololá	701	Sololá	1	Sololá	6	Junio	2023-03-06T00:00:00	2024-11-08T04:00:00	5	Humedad	89
27341	7	Sololá	701	Sololá	1	Sololá	6	Junio	2023-03-06T00:00:00	2024-11-08T04:00:00	6	Velocidad del viento	3.2
27342	7	Sololá	701	Sololá	1	Sololá	6	Junio	2023-03-06T00:00:00	2024-11-08T04:00:00	7	Dirección del viento	3.22
27343	7	Sololá	701	Sololá	1	Sololá	6	Junio	2023-03-06T00:00:00	2024-11-08T04:00:00	1	Precipitación	0
27344	7	Sololá	701	Sololá	1	Sololá	6	Junio	2023-03-06T00:00:00	2024-11-08T04:00:00	8	Radiación solar	0
27345	7	Sololá	701	Sololá	1	Sololá	6	Junio	2023-03-06T00:00:00	2024-11-08T05:00:00	2	Temperatura media	14.6
27346	7	Sololá	701	Sololá	1	Sololá	6	Junio	2023-03-06T00:00:00	2024-11-08T05:00:00	4	Temperatura máxima	15.3
27347	7	Sololá	701	Sololá	1	Sololá	6	Junio	2023-03-06T00:00:00	2024-11-08T05:00:00	3	Temperatura mínima	14.5
27348	7	Sololá	701	Sololá	1	Sololá	6	Junio	2023-03-06T00:00:00	2024-11-08T05:00:00	5	Humedad	90
27349	7	Sololá	701	Sololá	1	Sololá	6	Junio	2023-03-06T00:00:00	2024-11-08T05:00:00	6	Velocidad del viento	3.2
27350	7	Sololá	701	Sololá	1	Sololá	6	Junio	2023-03-06T00:00:00	2024-11-08T05:00:00	7	Dirección del viento	3.22
27351	7	Sololá	701	Sololá	1	Sololá	6	Junio	2023-03-06T00:00:00	2024-11-08T05:00:00	1	Precipitación	0
27352	7	Sololá	701	Sololá	1	Sololá	6	Junio	2023-03-06T00:00:00	2024-11-08T05:00:00	8	Radiación solar	0
27353	7	Sololá	701	Sololá	1	Sololá	6	Junio	2023-03-06T00:00:00	2024-11-08T06:00:00	2	Temperatura media	15.2
27354	7	Sololá	701	Sololá	1	Sololá	6	Junio	2023-03-06T00:00:00	2024-11-08T06:00:00	4	Temperatura máxima	15.2
27355	7	Sololá	701	Sololá	1	Sololá	6	Junio	2023-03-06T00:00:00	2024-11-08T06:00:00	3	Temperatura mínima	14.6
27356	7	Sololá	701	Sololá	1	Sololá	6	Junio	2023-03-06T00:00:00	2024-11-08T06:00:00	5	Humedad	87
27357	7	Sololá	701	Sololá	1	Sololá	6	Junio	2023-03-06T00:00:00	2024-11-08T06:00:00	6	Velocidad del viento	3.2
27358	7	Sololá	701	Sololá	1	Sololá	6	Junio	2023-03-06T00:00:00	2024-11-08T06:00:00	7	Dirección del viento	3.22
27359	7	Sololá	701	Sololá	1	Sololá	6	Junio	2023-03-06T00:00:00	2024-11-08T06:00:00	1	Precipitación	0
27360	7	Sololá	701	Sololá	1	Sololá	6	Junio	2023-03-06T00:00:00	2024-11-08T06:00:00	8	Radiación solar	3
27361	7	Sololá	701	Sololá	1	Sololá	6	Junio	2023-03-06T00:00:00	2024-11-08T07:00:00	2	Temperatura media	16.4
27362	7	Sololá	701	Sololá	1	Sololá	6	Junio	2023-03-06T00:00:00	2024-11-08T07:00:00	4	Temperatura máxima	16.5
27363	7	Sololá	701	Sololá	1	Sololá	6	Junio	2023-03-06T00:00:00	2024-11-08T07:00:00	3	Temperatura mínima	14.6
27364	7	Sololá	701	Sololá	1	Sololá	6	Junio	2023-03-06T00:00:00	2024-11-08T07:00:00	5	Humedad	84
27365	7	Sololá	701	Sololá	1	Sololá	6	Junio	2023-03-06T00:00:00	2024-11-08T07:00:00	6	Velocidad del viento	1.6
27366	7	Sololá	701	Sololá	1	Sololá	6	Junio	2023-03-06T00:00:00	2024-11-08T07:00:00	7	Dirección del viento	1.61
27367	7	Sololá	701	Sololá	1	Sololá	6	Junio	2023-03-06T00:00:00	2024-11-08T07:00:00	1	Precipitación	0
27368	7	Sololá	701	Sololá	1	Sololá	6	Junio	2023-03-06T00:00:00	2024-11-08T07:00:00	8	Radiación solar	28
27369	7	Sololá	701	Sololá	1	Sololá	6	Junio	2023-03-06T00:00:00	2024-11-08T08:00:00	2	Temperatura media	19.2
27370	7	Sololá	701	Sololá	1	Sololá	6	Junio	2023-03-06T00:00:00	2024-11-08T08:00:00	4	Temperatura máxima	19.4
27371	7	Sololá	701	Sololá	1	Sololá	6	Junio	2023-03-06T00:00:00	2024-11-08T08:00:00	3	Temperatura mínima	16.4
27372	7	Sololá	701	Sololá	1	Sololá	6	Junio	2023-03-06T00:00:00	2024-11-08T08:00:00	5	Humedad	78
27373	7	Sololá	701	Sololá	1	Sololá	6	Junio	2023-03-06T00:00:00	2024-11-08T08:00:00	6	Velocidad del viento	1.6
27374	7	Sololá	701	Sololá	1	Sololá	6	Junio	2023-03-06T00:00:00	2024-11-08T08:00:00	7	Dirección del viento	1.61
27375	7	Sololá	701	Sololá	1	Sololá	6	Junio	2023-03-06T00:00:00	2024-11-08T08:00:00	1	Precipitación	0
27376	7	Sololá	701	Sololá	1	Sololá	6	Junio	2023-03-06T00:00:00	2024-11-08T08:00:00	8	Radiación solar	86
27377	7	Sololá	701	Sololá	1	Sololá	6	Junio	2023-03-06T00:00:00	2024-11-08T09:00:00	2	Temperatura media	20.2
27378	7	Sololá	701	Sololá	1	Sololá	6	Junio	2023-03-06T00:00:00	2024-11-08T09:00:00	4	Temperatura máxima	20.6
27379	7	Sololá	701	Sololá	1	Sololá	6	Junio	2023-03-06T00:00:00	2024-11-08T09:00:00	3	Temperatura mínima	19.1
27380	7	Sololá	701	Sololá	1	Sololá	6	Junio	2023-03-06T00:00:00	2024-11-08T09:00:00	5	Humedad	79
27381	7	Sololá	701	Sololá	1	Sololá	6	Junio	2023-03-06T00:00:00	2024-11-08T09:00:00	6	Velocidad del viento	3.2
27382	7	Sololá	701	Sololá	1	Sololá	6	Junio	2023-03-06T00:00:00	2024-11-08T09:00:00	7	Dirección del viento	3.22
27383	7	Sololá	701	Sololá	1	Sololá	6	Junio	2023-03-06T00:00:00	2024-11-08T09:00:00	1	Precipitación	0
27384	7	Sololá	701	Sololá	1	Sololá	6	Junio	2023-03-06T00:00:00	2024-11-08T09:00:00	8	Radiación solar	248
27385	7	Sololá	701	Sololá	1	Sololá	6	Junio	2023-03-06T00:00:00	2024-11-08T10:00:00	2	Temperatura media	21.5
27386	7	Sololá	701	Sololá	1	Sololá	6	Junio	2023-03-06T00:00:00	2024-11-08T10:00:00	4	Temperatura máxima	21.6
27387	7	Sololá	701	Sololá	1	Sololá	6	Junio	2023-03-06T00:00:00	2024-11-08T10:00:00	3	Temperatura mínima	19.9
27388	7	Sololá	701	Sololá	1	Sololá	6	Junio	2023-03-06T00:00:00	2024-11-08T10:00:00	5	Humedad	76
27389	7	Sololá	701	Sololá	1	Sololá	6	Junio	2023-03-06T00:00:00	2024-11-08T10:00:00	6	Velocidad del viento	3.2
27390	7	Sololá	701	Sololá	1	Sololá	6	Junio	2023-03-06T00:00:00	2024-11-08T10:00:00	7	Dirección del viento	3.22
27391	7	Sololá	701	Sololá	1	Sololá	6	Junio	2023-03-06T00:00:00	2024-11-08T10:00:00	1	Precipitación	0
27392	7	Sololá	701	Sololá	1	Sololá	6	Junio	2023-03-06T00:00:00	2024-11-08T10:00:00	8	Radiación solar	211
27393	7	Sololá	701	Sololá	1	Sololá	6	Junio	2023-03-06T00:00:00	2024-11-08T11:00:00	2	Temperatura media	21.8
27394	7	Sololá	701	Sololá	1	Sololá	6	Junio	2023-03-06T00:00:00	2024-11-08T11:00:00	4	Temperatura máxima	22.1
27395	7	Sololá	701	Sololá	1	Sololá	6	Junio	2023-03-06T00:00:00	2024-11-08T11:00:00	3	Temperatura mínima	21.3
27396	7	Sololá	701	Sololá	1	Sololá	6	Junio	2023-03-06T00:00:00	2024-11-08T11:00:00	5	Humedad	73
27397	7	Sololá	701	Sololá	1	Sololá	6	Junio	2023-03-06T00:00:00	2024-11-08T11:00:00	6	Velocidad del viento	6.4
27398	7	Sololá	701	Sololá	1	Sololá	6	Junio	2023-03-06T00:00:00	2024-11-08T11:00:00	7	Dirección del viento	6.44
27399	7	Sololá	701	Sololá	1	Sololá	6	Junio	2023-03-06T00:00:00	2024-11-08T11:00:00	1	Precipitación	0
27400	7	Sololá	701	Sololá	1	Sololá	6	Junio	2023-03-06T00:00:00	2024-11-08T11:00:00	8	Radiación solar	147
27401	7	Sololá	701	Sololá	1	Sololá	6	Junio	2023-03-06T00:00:00	2024-11-08T12:00:00	2	Temperatura media	21.8
27402	7	Sololá	701	Sololá	1	Sololá	6	Junio	2023-03-06T00:00:00	2024-11-08T12:00:00	4	Temperatura máxima	22.5
27403	7	Sololá	701	Sololá	1	Sololá	6	Junio	2023-03-06T00:00:00	2024-11-08T12:00:00	3	Temperatura mínima	21.7
27404	7	Sololá	701	Sololá	1	Sololá	6	Junio	2023-03-06T00:00:00	2024-11-08T12:00:00	5	Humedad	80
27405	7	Sololá	701	Sololá	1	Sololá	6	Junio	2023-03-06T00:00:00	2024-11-08T12:00:00	6	Velocidad del viento	6.4
27406	7	Sololá	701	Sololá	1	Sololá	6	Junio	2023-03-06T00:00:00	2024-11-08T12:00:00	7	Dirección del viento	6.44
27407	7	Sololá	701	Sololá	1	Sololá	6	Junio	2023-03-06T00:00:00	2024-11-08T12:00:00	1	Precipitación	0
27408	7	Sololá	701	Sololá	1	Sololá	6	Junio	2023-03-06T00:00:00	2024-11-08T12:00:00	8	Radiación solar	122
27409	7	Sololá	701	Sololá	1	Sololá	6	Junio	2023-03-06T00:00:00	2024-11-08T13:00:00	2	Temperatura media	20.9
27410	7	Sololá	701	Sololá	1	Sololá	6	Junio	2023-03-06T00:00:00	2024-11-08T13:00:00	4	Temperatura máxima	21.8
27411	7	Sololá	701	Sololá	1	Sololá	6	Junio	2023-03-06T00:00:00	2024-11-08T13:00:00	3	Temperatura mínima	19.8
27412	7	Sololá	701	Sololá	1	Sololá	6	Junio	2023-03-06T00:00:00	2024-11-08T13:00:00	5	Humedad	83
27413	7	Sololá	701	Sololá	1	Sololá	6	Junio	2023-03-06T00:00:00	2024-11-08T13:00:00	6	Velocidad del viento	6.4
27414	7	Sololá	701	Sololá	1	Sololá	6	Junio	2023-03-06T00:00:00	2024-11-08T13:00:00	7	Dirección del viento	6.44
27415	7	Sololá	701	Sololá	1	Sololá	6	Junio	2023-03-06T00:00:00	2024-11-08T13:00:00	1	Precipitación	0
27416	7	Sololá	701	Sololá	1	Sololá	6	Junio	2023-03-06T00:00:00	2024-11-08T13:00:00	8	Radiación solar	237
27417	7	Sololá	701	Sololá	1	Sololá	6	Junio	2023-03-06T00:00:00	2024-11-08T14:00:00	2	Temperatura media	20
27418	7	Sololá	701	Sololá	1	Sololá	6	Junio	2023-03-06T00:00:00	2024-11-08T14:00:00	4	Temperatura máxima	21.2
27419	7	Sololá	701	Sololá	1	Sololá	6	Junio	2023-03-06T00:00:00	2024-11-08T14:00:00	3	Temperatura mínima	19.9
27420	7	Sololá	701	Sololá	1	Sololá	6	Junio	2023-03-06T00:00:00	2024-11-08T14:00:00	5	Humedad	88
27421	7	Sololá	701	Sololá	1	Sololá	6	Junio	2023-03-06T00:00:00	2024-11-08T14:00:00	6	Velocidad del viento	6.4
27422	7	Sololá	701	Sololá	1	Sololá	6	Junio	2023-03-06T00:00:00	2024-11-08T14:00:00	7	Dirección del viento	6.44
27423	7	Sololá	701	Sololá	1	Sololá	6	Junio	2023-03-06T00:00:00	2024-11-08T14:00:00	1	Precipitación	0
27424	7	Sololá	701	Sololá	1	Sololá	6	Junio	2023-03-06T00:00:00	2024-11-08T14:00:00	8	Radiación solar	390
27425	7	Sololá	701	Sololá	1	Sololá	6	Junio	2023-03-06T00:00:00	2024-11-08T15:00:00	2	Temperatura media	20.4
27426	7	Sololá	701	Sololá	1	Sololá	6	Junio	2023-03-06T00:00:00	2024-11-08T15:00:00	4	Temperatura máxima	21.4
27427	7	Sololá	701	Sololá	1	Sololá	6	Junio	2023-03-06T00:00:00	2024-11-08T15:00:00	3	Temperatura mínima	19.9
27428	7	Sololá	701	Sololá	1	Sololá	6	Junio	2023-03-06T00:00:00	2024-11-08T15:00:00	5	Humedad	86
27429	7	Sololá	701	Sololá	1	Sololá	6	Junio	2023-03-06T00:00:00	2024-11-08T15:00:00	6	Velocidad del viento	4.8
27430	7	Sololá	701	Sololá	1	Sololá	6	Junio	2023-03-06T00:00:00	2024-11-08T15:00:00	7	Dirección del viento	4.83
27431	7	Sololá	701	Sololá	1	Sololá	6	Junio	2023-03-06T00:00:00	2024-11-08T15:00:00	1	Precipitación	0
27432	7	Sololá	701	Sololá	1	Sololá	6	Junio	2023-03-06T00:00:00	2024-11-08T15:00:00	8	Radiación solar	336
27433	7	Sololá	701	Sololá	1	Sololá	6	Junio	2023-03-06T00:00:00	2024-11-08T16:00:00	2	Temperatura media	18.9
27434	7	Sololá	701	Sololá	1	Sololá	6	Junio	2023-03-06T00:00:00	2024-11-08T16:00:00	4	Temperatura máxima	20.5
27435	7	Sololá	701	Sololá	1	Sololá	6	Junio	2023-03-06T00:00:00	2024-11-08T16:00:00	3	Temperatura mínima	18.8
27436	7	Sololá	701	Sololá	1	Sololá	6	Junio	2023-03-06T00:00:00	2024-11-08T16:00:00	5	Humedad	91
27437	7	Sololá	701	Sololá	1	Sololá	6	Junio	2023-03-06T00:00:00	2024-11-08T16:00:00	6	Velocidad del viento	4.8
27438	7	Sololá	701	Sololá	1	Sololá	6	Junio	2023-03-06T00:00:00	2024-11-08T16:00:00	7	Dirección del viento	4.83
27439	7	Sololá	701	Sololá	1	Sololá	6	Junio	2023-03-06T00:00:00	2024-11-08T16:00:00	1	Precipitación	0
27440	7	Sololá	701	Sololá	1	Sololá	6	Junio	2023-03-06T00:00:00	2024-11-08T16:00:00	8	Radiación solar	196
27441	7	Sololá	701	Sololá	1	Sololá	6	Junio	2023-03-06T00:00:00	2024-11-08T17:00:00	2	Temperatura media	18.6
27442	7	Sololá	701	Sololá	1	Sololá	6	Junio	2023-03-06T00:00:00	2024-11-08T17:00:00	4	Temperatura máxima	19.3
27443	7	Sololá	701	Sololá	1	Sololá	6	Junio	2023-03-06T00:00:00	2024-11-08T17:00:00	3	Temperatura mínima	18.6
27444	7	Sololá	701	Sololá	1	Sololá	6	Junio	2023-03-06T00:00:00	2024-11-08T17:00:00	5	Humedad	92
27445	7	Sololá	701	Sololá	1	Sololá	6	Junio	2023-03-06T00:00:00	2024-11-08T17:00:00	6	Velocidad del viento	3.2
27446	7	Sololá	701	Sololá	1	Sololá	6	Junio	2023-03-06T00:00:00	2024-11-08T17:00:00	7	Dirección del viento	3.22
27447	7	Sololá	701	Sololá	1	Sololá	6	Junio	2023-03-06T00:00:00	2024-11-08T17:00:00	1	Precipitación	0
27448	7	Sololá	701	Sololá	1	Sololá	6	Junio	2023-03-06T00:00:00	2024-11-08T17:00:00	8	Radiación solar	69
27449	7	Sololá	701	Sololá	1	Sololá	6	Junio	2023-03-06T00:00:00	2024-11-08T18:00:00	2	Temperatura media	18.8
27450	7	Sololá	701	Sololá	1	Sololá	6	Junio	2023-03-06T00:00:00	2024-11-08T18:00:00	4	Temperatura máxima	18.9
27451	7	Sololá	701	Sololá	1	Sololá	6	Junio	2023-03-06T00:00:00	2024-11-08T18:00:00	3	Temperatura mínima	18.6
27452	7	Sololá	701	Sololá	1	Sololá	6	Junio	2023-03-06T00:00:00	2024-11-08T18:00:00	5	Humedad	93
27453	7	Sololá	701	Sololá	1	Sololá	6	Junio	2023-03-06T00:00:00	2024-11-08T18:00:00	6	Velocidad del viento	3.2
27454	7	Sololá	701	Sololá	1	Sololá	6	Junio	2023-03-06T00:00:00	2024-11-08T18:00:00	7	Dirección del viento	3.22
27455	7	Sololá	701	Sololá	1	Sololá	6	Junio	2023-03-06T00:00:00	2024-11-08T18:00:00	1	Precipitación	0
27456	7	Sololá	701	Sololá	1	Sololá	6	Junio	2023-03-06T00:00:00	2024-11-08T18:00:00	8	Radiación solar	6
27457	7	Sololá	701	Sololá	1	Sololá	6	Junio	2023-03-06T00:00:00	2024-11-08T19:00:00	2	Temperatura media	18.3
27458	7	Sololá	701	Sololá	1	Sololá	6	Junio	2023-03-06T00:00:00	2024-11-08T19:00:00	4	Temperatura máxima	18.8
27459	7	Sololá	701	Sololá	1	Sololá	6	Junio	2023-03-06T00:00:00	2024-11-08T19:00:00	3	Temperatura mínima	18.2
27460	7	Sololá	701	Sololá	1	Sololá	6	Junio	2023-03-06T00:00:00	2024-11-08T19:00:00	5	Humedad	94
27461	7	Sololá	701	Sololá	1	Sololá	6	Junio	2023-03-06T00:00:00	2024-11-08T19:00:00	6	Velocidad del viento	1.6
27462	7	Sololá	701	Sololá	1	Sololá	6	Junio	2023-03-06T00:00:00	2024-11-08T19:00:00	7	Dirección del viento	1.61
27463	7	Sololá	701	Sololá	1	Sololá	6	Junio	2023-03-06T00:00:00	2024-11-08T19:00:00	1	Precipitación	0
27464	7	Sololá	701	Sololá	1	Sololá	6	Junio	2023-03-06T00:00:00	2024-11-08T19:00:00	8	Radiación solar	0
27465	7	Sololá	701	Sololá	1	Sololá	6	Junio	2023-03-06T00:00:00	2024-11-08T20:00:00	2	Temperatura media	18.1
27466	7	Sololá	701	Sololá	1	Sololá	6	Junio	2023-03-06T00:00:00	2024-11-08T20:00:00	4	Temperatura máxima	18.4
27467	7	Sololá	701	Sololá	1	Sololá	6	Junio	2023-03-06T00:00:00	2024-11-08T20:00:00	3	Temperatura mínima	17.8
27468	7	Sololá	701	Sololá	1	Sololá	6	Junio	2023-03-06T00:00:00	2024-11-08T20:00:00	5	Humedad	95
27469	7	Sololá	701	Sololá	1	Sololá	6	Junio	2023-03-06T00:00:00	2024-11-08T20:00:00	6	Velocidad del viento	1.6
27470	7	Sololá	701	Sololá	1	Sololá	6	Junio	2023-03-06T00:00:00	2024-11-08T20:00:00	7	Dirección del viento	1.61
27471	7	Sololá	701	Sololá	1	Sololá	6	Junio	2023-03-06T00:00:00	2024-11-08T20:00:00	1	Precipitación	0
27472	7	Sololá	701	Sololá	1	Sololá	6	Junio	2023-03-06T00:00:00	2024-11-08T20:00:00	8	Radiación solar	0
27473	7	Sololá	701	Sololá	1	Sololá	6	Junio	2023-03-06T00:00:00	2024-11-08T21:00:00	2	Temperatura media	17.6
27474	7	Sololá	701	Sololá	1	Sololá	6	Junio	2023-03-06T00:00:00	2024-11-08T21:00:00	4	Temperatura máxima	18.1
27475	7	Sololá	701	Sololá	1	Sololá	6	Junio	2023-03-06T00:00:00	2024-11-08T21:00:00	3	Temperatura mínima	17.6
27476	7	Sololá	701	Sololá	1	Sololá	6	Junio	2023-03-06T00:00:00	2024-11-08T21:00:00	5	Humedad	95
27477	7	Sololá	701	Sololá	1	Sololá	6	Junio	2023-03-06T00:00:00	2024-11-08T21:00:00	6	Velocidad del viento	1.6
27478	7	Sololá	701	Sololá	1	Sololá	6	Junio	2023-03-06T00:00:00	2024-11-08T21:00:00	7	Dirección del viento	1.61
27479	7	Sololá	701	Sololá	1	Sololá	6	Junio	2023-03-06T00:00:00	2024-11-08T21:00:00	1	Precipitación	0
27480	7	Sololá	701	Sololá	1	Sololá	6	Junio	2023-03-06T00:00:00	2024-11-08T21:00:00	8	Radiación solar	0
27481	7	Sololá	701	Sololá	1	Sololá	6	Junio	2023-03-06T00:00:00	2024-11-08T22:00:00	2	Temperatura media	17.1
27482	7	Sololá	701	Sololá	1	Sololá	6	Junio	2023-03-06T00:00:00	2024-11-08T22:00:00	4	Temperatura máxima	17.6
27483	7	Sololá	701	Sololá	1	Sololá	6	Junio	2023-03-06T00:00:00	2024-11-08T22:00:00	3	Temperatura mínima	17
27484	7	Sololá	701	Sololá	1	Sololá	6	Junio	2023-03-06T00:00:00	2024-11-08T22:00:00	5	Humedad	95
27485	7	Sololá	701	Sololá	1	Sololá	6	Junio	2023-03-06T00:00:00	2024-11-08T22:00:00	6	Velocidad del viento	3.2
27486	7	Sololá	701	Sololá	1	Sololá	6	Junio	2023-03-06T00:00:00	2024-11-08T22:00:00	7	Dirección del viento	3.22
27487	7	Sololá	701	Sololá	1	Sololá	6	Junio	2023-03-06T00:00:00	2024-11-08T22:00:00	1	Precipitación	0
27488	7	Sololá	701	Sololá	1	Sololá	6	Junio	2023-03-06T00:00:00	2024-11-08T22:00:00	8	Radiación solar	0
27489	7	Sololá	701	Sololá	1	Sololá	6	Junio	2023-03-06T00:00:00	2024-11-08T23:00:00	2	Temperatura media	17.2
27490	7	Sololá	701	Sololá	1	Sololá	6	Junio	2023-03-06T00:00:00	2024-11-08T23:00:00	4	Temperatura máxima	17.2
27491	7	Sololá	701	Sololá	1	Sololá	6	Junio	2023-03-06T00:00:00	2024-11-08T23:00:00	3	Temperatura mínima	16.9
27492	7	Sololá	701	Sololá	1	Sololá	6	Junio	2023-03-06T00:00:00	2024-11-08T23:00:00	5	Humedad	93
27493	7	Sololá	701	Sololá	1	Sololá	6	Junio	2023-03-06T00:00:00	2024-11-08T23:00:00	6	Velocidad del viento	1.6
27494	7	Sololá	701	Sololá	1	Sololá	6	Junio	2023-03-06T00:00:00	2024-11-08T23:00:00	7	Dirección del viento	1.61
27495	7	Sololá	701	Sololá	1	Sololá	6	Junio	2023-03-06T00:00:00	2024-11-08T23:00:00	1	Precipitación	0
27496	7	Sololá	701	Sololá	1	Sololá	6	Junio	2023-03-06T00:00:00	2024-11-08T23:00:00	8	Radiación solar	0
27497	7	Sololá	701	Sololá	1	Sololá	6	Junio	2023-04-06T00:00:00	2024-11-08T00:00:00	2	Temperatura media	17
27498	7	Sololá	701	Sololá	1	Sololá	6	Junio	2023-04-06T00:00:00	2024-11-08T00:00:00	4	Temperatura máxima	17.2
27499	7	Sololá	701	Sololá	1	Sololá	6	Junio	2023-04-06T00:00:00	2024-11-08T00:00:00	3	Temperatura mínima	17
27500	7	Sololá	701	Sololá	1	Sololá	6	Junio	2023-04-06T00:00:00	2024-11-08T00:00:00	5	Humedad	93
27501	7	Sololá	701	Sololá	1	Sololá	6	Junio	2023-04-06T00:00:00	2024-11-08T00:00:00	6	Velocidad del viento	1.6
27502	7	Sololá	701	Sololá	1	Sololá	6	Junio	2023-04-06T00:00:00	2024-11-08T00:00:00	7	Dirección del viento	1.61
27503	7	Sololá	701	Sololá	1	Sololá	6	Junio	2023-04-06T00:00:00	2024-11-08T00:00:00	1	Precipitación	0
27504	7	Sololá	701	Sololá	1	Sololá	6	Junio	2023-04-06T00:00:00	2024-11-08T00:00:00	8	Radiación solar	0
27505	7	Sololá	701	Sololá	1	Sololá	6	Junio	2023-04-06T00:00:00	2024-11-08T01:00:00	2	Temperatura media	16.8
27506	7	Sololá	701	Sololá	1	Sololá	6	Junio	2023-04-06T00:00:00	2024-11-08T01:00:00	4	Temperatura máxima	17.1
27507	7	Sololá	701	Sololá	1	Sololá	6	Junio	2023-04-06T00:00:00	2024-11-08T01:00:00	3	Temperatura mínima	16.7
27508	7	Sololá	701	Sololá	1	Sololá	6	Junio	2023-04-06T00:00:00	2024-11-08T01:00:00	5	Humedad	93
27509	7	Sololá	701	Sololá	1	Sololá	6	Junio	2023-04-06T00:00:00	2024-11-08T01:00:00	6	Velocidad del viento	3.2
27510	7	Sololá	701	Sololá	1	Sololá	6	Junio	2023-04-06T00:00:00	2024-11-08T01:00:00	7	Dirección del viento	3.22
27511	7	Sololá	701	Sololá	1	Sololá	6	Junio	2023-04-06T00:00:00	2024-11-08T01:00:00	1	Precipitación	0
27512	7	Sololá	701	Sololá	1	Sololá	6	Junio	2023-04-06T00:00:00	2024-11-08T01:00:00	8	Radiación solar	0
27513	7	Sololá	701	Sololá	1	Sololá	6	Junio	2023-04-06T00:00:00	2024-11-08T02:00:00	2	Temperatura media	16.8
27514	7	Sololá	701	Sololá	1	Sololá	6	Junio	2023-04-06T00:00:00	2024-11-08T02:00:00	4	Temperatura máxima	17
27515	7	Sololá	701	Sololá	1	Sololá	6	Junio	2023-04-06T00:00:00	2024-11-08T02:00:00	3	Temperatura mínima	16.8
27516	7	Sololá	701	Sololá	1	Sololá	6	Junio	2023-04-06T00:00:00	2024-11-08T02:00:00	5	Humedad	93
27517	7	Sololá	701	Sololá	1	Sololá	6	Junio	2023-04-06T00:00:00	2024-11-08T02:00:00	6	Velocidad del viento	1.6
27518	7	Sololá	701	Sololá	1	Sololá	6	Junio	2023-04-06T00:00:00	2024-11-08T02:00:00	7	Dirección del viento	1.61
27519	7	Sololá	701	Sololá	1	Sololá	6	Junio	2023-04-06T00:00:00	2024-11-08T02:00:00	1	Precipitación	0
27520	7	Sololá	701	Sololá	1	Sololá	6	Junio	2023-04-06T00:00:00	2024-11-08T02:00:00	8	Radiación solar	0
27521	7	Sololá	701	Sololá	1	Sololá	6	Junio	2023-04-06T00:00:00	2024-11-08T03:00:00	2	Temperatura media	16.4
27522	7	Sololá	701	Sololá	1	Sololá	6	Junio	2023-04-06T00:00:00	2024-11-08T03:00:00	4	Temperatura máxima	16.8
27523	7	Sololá	701	Sololá	1	Sololá	6	Junio	2023-04-06T00:00:00	2024-11-08T03:00:00	3	Temperatura mínima	16.4
27524	7	Sololá	701	Sololá	1	Sololá	6	Junio	2023-04-06T00:00:00	2024-11-08T03:00:00	5	Humedad	93
27525	7	Sololá	701	Sololá	1	Sololá	6	Junio	2023-04-06T00:00:00	2024-11-08T03:00:00	6	Velocidad del viento	0
27526	7	Sololá	701	Sololá	1	Sololá	6	Junio	2023-04-06T00:00:00	2024-11-08T03:00:00	7	Dirección del viento	0
27527	7	Sololá	701	Sololá	1	Sololá	6	Junio	2023-04-06T00:00:00	2024-11-08T03:00:00	1	Precipitación	0
27528	7	Sololá	701	Sololá	1	Sololá	6	Junio	2023-04-06T00:00:00	2024-11-08T03:00:00	8	Radiación solar	0
27529	7	Sololá	701	Sololá	1	Sololá	6	Junio	2023-04-06T00:00:00	2024-11-08T04:00:00	2	Temperatura media	16.5
27530	7	Sololá	701	Sololá	1	Sololá	6	Junio	2023-04-06T00:00:00	2024-11-08T04:00:00	4	Temperatura máxima	16.6
27531	7	Sololá	701	Sololá	1	Sololá	6	Junio	2023-04-06T00:00:00	2024-11-08T04:00:00	3	Temperatura mínima	16.3
27532	7	Sololá	701	Sololá	1	Sololá	6	Junio	2023-04-06T00:00:00	2024-11-08T04:00:00	5	Humedad	91
27533	7	Sololá	701	Sololá	1	Sololá	6	Junio	2023-04-06T00:00:00	2024-11-08T04:00:00	6	Velocidad del viento	0
27534	7	Sololá	701	Sololá	1	Sololá	6	Junio	2023-04-06T00:00:00	2024-11-08T04:00:00	7	Dirección del viento	0
27535	7	Sololá	701	Sololá	1	Sololá	6	Junio	2023-04-06T00:00:00	2024-11-08T04:00:00	1	Precipitación	0
27536	7	Sololá	701	Sololá	1	Sololá	6	Junio	2023-04-06T00:00:00	2024-11-08T04:00:00	8	Radiación solar	0
27537	7	Sololá	701	Sololá	1	Sololá	6	Junio	2023-04-06T00:00:00	2024-11-08T05:00:00	2	Temperatura media	15.9
27538	7	Sololá	701	Sololá	1	Sololá	6	Junio	2023-04-06T00:00:00	2024-11-08T05:00:00	4	Temperatura máxima	16.5
27539	7	Sololá	701	Sololá	1	Sololá	6	Junio	2023-04-06T00:00:00	2024-11-08T05:00:00	3	Temperatura mínima	15.9
27540	7	Sololá	701	Sololá	1	Sololá	6	Junio	2023-04-06T00:00:00	2024-11-08T05:00:00	5	Humedad	91
27541	7	Sololá	701	Sololá	1	Sololá	6	Junio	2023-04-06T00:00:00	2024-11-08T05:00:00	6	Velocidad del viento	0
27542	7	Sololá	701	Sololá	1	Sololá	6	Junio	2023-04-06T00:00:00	2024-11-08T05:00:00	7	Dirección del viento	0
27543	7	Sololá	701	Sololá	1	Sololá	6	Junio	2023-04-06T00:00:00	2024-11-08T05:00:00	1	Precipitación	0
27544	7	Sololá	701	Sololá	1	Sololá	6	Junio	2023-04-06T00:00:00	2024-11-08T05:00:00	8	Radiación solar	0
27545	7	Sololá	701	Sololá	1	Sololá	6	Junio	2023-04-06T00:00:00	2024-11-08T06:00:00	2	Temperatura media	15.4
27546	7	Sololá	701	Sololá	1	Sololá	6	Junio	2023-04-06T00:00:00	2024-11-08T06:00:00	4	Temperatura máxima	15.9
27547	7	Sololá	701	Sololá	1	Sololá	6	Junio	2023-04-06T00:00:00	2024-11-08T06:00:00	3	Temperatura mínima	15.3
27548	7	Sololá	701	Sololá	1	Sololá	6	Junio	2023-04-06T00:00:00	2024-11-08T06:00:00	5	Humedad	91
27549	7	Sololá	701	Sololá	1	Sololá	6	Junio	2023-04-06T00:00:00	2024-11-08T06:00:00	6	Velocidad del viento	1.6
27550	7	Sololá	701	Sololá	1	Sololá	6	Junio	2023-04-06T00:00:00	2024-11-08T06:00:00	7	Dirección del viento	1.61
27551	7	Sololá	701	Sololá	1	Sololá	6	Junio	2023-04-06T00:00:00	2024-11-08T06:00:00	1	Precipitación	0
27552	7	Sololá	701	Sololá	1	Sololá	6	Junio	2023-04-06T00:00:00	2024-11-08T06:00:00	8	Radiación solar	4
27553	7	Sololá	701	Sololá	1	Sololá	6	Junio	2023-04-06T00:00:00	2024-11-08T07:00:00	2	Temperatura media	15.9
27554	7	Sololá	701	Sololá	1	Sololá	6	Junio	2023-04-06T00:00:00	2024-11-08T07:00:00	4	Temperatura máxima	15.9
27555	7	Sololá	701	Sololá	1	Sololá	6	Junio	2023-04-06T00:00:00	2024-11-08T07:00:00	3	Temperatura mínima	15.2
27556	7	Sololá	701	Sololá	1	Sololá	6	Junio	2023-04-06T00:00:00	2024-11-08T07:00:00	5	Humedad	88
27557	7	Sololá	701	Sololá	1	Sololá	6	Junio	2023-04-06T00:00:00	2024-11-08T07:00:00	6	Velocidad del viento	4.8
27558	7	Sololá	701	Sololá	1	Sololá	6	Junio	2023-04-06T00:00:00	2024-11-08T07:00:00	7	Dirección del viento	4.83
27559	7	Sololá	701	Sololá	1	Sololá	6	Junio	2023-04-06T00:00:00	2024-11-08T07:00:00	1	Precipitación	0
27560	7	Sololá	701	Sololá	1	Sololá	6	Junio	2023-04-06T00:00:00	2024-11-08T07:00:00	8	Radiación solar	51
27561	7	Sololá	701	Sololá	1	Sololá	6	Junio	2023-04-06T00:00:00	2024-11-08T08:00:00	2	Temperatura media	18.5
27562	7	Sololá	701	Sololá	1	Sololá	6	Junio	2023-04-06T00:00:00	2024-11-08T08:00:00	4	Temperatura máxima	18.5
27563	7	Sololá	701	Sololá	1	Sololá	6	Junio	2023-04-06T00:00:00	2024-11-08T08:00:00	3	Temperatura mínima	15.9
27564	7	Sololá	701	Sololá	1	Sololá	6	Junio	2023-04-06T00:00:00	2024-11-08T08:00:00	5	Humedad	82
27565	7	Sololá	701	Sololá	1	Sololá	6	Junio	2023-04-06T00:00:00	2024-11-08T08:00:00	6	Velocidad del viento	1.6
27566	7	Sololá	701	Sololá	1	Sololá	6	Junio	2023-04-06T00:00:00	2024-11-08T08:00:00	7	Dirección del viento	1.61
27567	7	Sololá	701	Sololá	1	Sololá	6	Junio	2023-04-06T00:00:00	2024-11-08T08:00:00	1	Precipitación	0
27568	7	Sololá	701	Sololá	1	Sololá	6	Junio	2023-04-06T00:00:00	2024-11-08T08:00:00	8	Radiación solar	135
27569	7	Sololá	701	Sololá	1	Sololá	6	Junio	2023-04-06T00:00:00	2024-11-08T09:00:00	2	Temperatura media	20.7
27570	7	Sololá	701	Sololá	1	Sololá	6	Junio	2023-04-06T00:00:00	2024-11-08T09:00:00	4	Temperatura máxima	21.1
27571	7	Sololá	701	Sololá	1	Sololá	6	Junio	2023-04-06T00:00:00	2024-11-08T09:00:00	3	Temperatura mínima	18.5
27572	7	Sololá	701	Sololá	1	Sololá	6	Junio	2023-04-06T00:00:00	2024-11-08T09:00:00	5	Humedad	81
27573	7	Sololá	701	Sololá	1	Sololá	6	Junio	2023-04-06T00:00:00	2024-11-08T09:00:00	6	Velocidad del viento	3.2
27574	7	Sololá	701	Sololá	1	Sololá	6	Junio	2023-04-06T00:00:00	2024-11-08T09:00:00	7	Dirección del viento	3.22
27575	7	Sololá	701	Sololá	1	Sololá	6	Junio	2023-04-06T00:00:00	2024-11-08T09:00:00	1	Precipitación	0
27576	7	Sololá	701	Sololá	1	Sololá	6	Junio	2023-04-06T00:00:00	2024-11-08T09:00:00	8	Radiación solar	140
27577	7	Sololá	701	Sololá	1	Sololá	6	Junio	2023-04-06T00:00:00	2024-11-08T10:00:00	2	Temperatura media	22.3
27578	7	Sololá	701	Sololá	1	Sololá	6	Junio	2023-04-06T00:00:00	2024-11-08T10:00:00	4	Temperatura máxima	22.3
27579	7	Sololá	701	Sololá	1	Sololá	6	Junio	2023-04-06T00:00:00	2024-11-08T10:00:00	3	Temperatura mínima	20.6
27580	7	Sololá	701	Sololá	1	Sololá	6	Junio	2023-04-06T00:00:00	2024-11-08T10:00:00	5	Humedad	73
27581	7	Sololá	701	Sololá	1	Sololá	6	Junio	2023-04-06T00:00:00	2024-11-08T10:00:00	6	Velocidad del viento	4.8
27582	7	Sololá	701	Sololá	1	Sololá	6	Junio	2023-04-06T00:00:00	2024-11-08T10:00:00	7	Dirección del viento	4.83
27583	7	Sololá	701	Sololá	1	Sololá	6	Junio	2023-04-06T00:00:00	2024-11-08T10:00:00	1	Precipitación	0
27584	7	Sololá	701	Sololá	1	Sololá	6	Junio	2023-04-06T00:00:00	2024-11-08T10:00:00	8	Radiación solar	255
27585	7	Sololá	701	Sololá	1	Sololá	6	Junio	2023-04-06T00:00:00	2024-11-08T11:00:00	2	Temperatura media	23.3
27586	7	Sololá	701	Sololá	1	Sololá	6	Junio	2023-04-06T00:00:00	2024-11-08T11:00:00	4	Temperatura máxima	23.3
27587	7	Sololá	701	Sololá	1	Sololá	6	Junio	2023-04-06T00:00:00	2024-11-08T11:00:00	3	Temperatura mínima	22.3
27588	7	Sololá	701	Sololá	1	Sololá	6	Junio	2023-04-06T00:00:00	2024-11-08T11:00:00	5	Humedad	67
27589	7	Sololá	701	Sololá	1	Sololá	6	Junio	2023-04-06T00:00:00	2024-11-08T11:00:00	6	Velocidad del viento	4.8
27590	7	Sololá	701	Sololá	1	Sololá	6	Junio	2023-04-06T00:00:00	2024-11-08T11:00:00	7	Dirección del viento	4.83
27591	7	Sololá	701	Sololá	1	Sololá	6	Junio	2023-04-06T00:00:00	2024-11-08T11:00:00	1	Precipitación	0
27592	7	Sololá	701	Sololá	1	Sololá	6	Junio	2023-04-06T00:00:00	2024-11-08T11:00:00	8	Radiación solar	648
27593	7	Sololá	701	Sololá	1	Sololá	6	Junio	2023-04-06T00:00:00	2024-11-08T12:00:00	2	Temperatura media	22.6
27594	7	Sololá	701	Sololá	1	Sololá	6	Junio	2023-04-06T00:00:00	2024-11-08T12:00:00	4	Temperatura máxima	23.5
27595	7	Sololá	701	Sololá	1	Sololá	6	Junio	2023-04-06T00:00:00	2024-11-08T12:00:00	3	Temperatura mínima	22.6
27596	7	Sololá	701	Sololá	1	Sololá	6	Junio	2023-04-06T00:00:00	2024-11-08T12:00:00	5	Humedad	76
27597	7	Sololá	701	Sololá	1	Sololá	6	Junio	2023-04-06T00:00:00	2024-11-08T12:00:00	6	Velocidad del viento	8
27598	7	Sololá	701	Sololá	1	Sololá	6	Junio	2023-04-06T00:00:00	2024-11-08T12:00:00	7	Dirección del viento	8.05
27599	7	Sololá	701	Sololá	1	Sololá	6	Junio	2023-04-06T00:00:00	2024-11-08T12:00:00	1	Precipitación	0
27600	7	Sololá	701	Sololá	1	Sololá	6	Junio	2023-04-06T00:00:00	2024-11-08T12:00:00	8	Radiación solar	311
27601	7	Sololá	701	Sololá	1	Sololá	6	Junio	2023-04-06T00:00:00	2024-11-08T13:00:00	2	Temperatura media	21.4
27602	7	Sololá	701	Sololá	1	Sololá	6	Junio	2023-04-06T00:00:00	2024-11-08T13:00:00	4	Temperatura máxima	22.8
27603	7	Sololá	701	Sololá	1	Sololá	6	Junio	2023-04-06T00:00:00	2024-11-08T13:00:00	3	Temperatura mínima	21.4
27604	7	Sololá	701	Sololá	1	Sololá	6	Junio	2023-04-06T00:00:00	2024-11-08T13:00:00	5	Humedad	81
27605	7	Sololá	701	Sololá	1	Sololá	6	Junio	2023-04-06T00:00:00	2024-11-08T13:00:00	6	Velocidad del viento	8
27606	7	Sololá	701	Sololá	1	Sololá	6	Junio	2023-04-06T00:00:00	2024-11-08T13:00:00	7	Dirección del viento	8.05
27607	7	Sololá	701	Sololá	1	Sololá	6	Junio	2023-04-06T00:00:00	2024-11-08T13:00:00	1	Precipitación	0
27608	7	Sololá	701	Sololá	1	Sololá	6	Junio	2023-04-06T00:00:00	2024-11-08T13:00:00	8	Radiación solar	74
27609	7	Sololá	701	Sololá	1	Sololá	6	Junio	2023-04-06T00:00:00	2024-11-08T14:00:00	2	Temperatura media	20.1
27610	7	Sololá	701	Sololá	1	Sololá	6	Junio	2023-04-06T00:00:00	2024-11-08T14:00:00	4	Temperatura máxima	21.5
27611	7	Sololá	701	Sololá	1	Sololá	6	Junio	2023-04-06T00:00:00	2024-11-08T14:00:00	3	Temperatura mínima	19.8
27612	7	Sololá	701	Sololá	1	Sololá	6	Junio	2023-04-06T00:00:00	2024-11-08T14:00:00	5	Humedad	87
27613	7	Sololá	701	Sololá	1	Sololá	6	Junio	2023-04-06T00:00:00	2024-11-08T14:00:00	6	Velocidad del viento	6.4
27614	7	Sololá	701	Sololá	1	Sololá	6	Junio	2023-04-06T00:00:00	2024-11-08T14:00:00	7	Dirección del viento	6.44
27615	7	Sololá	701	Sololá	1	Sololá	6	Junio	2023-04-06T00:00:00	2024-11-08T14:00:00	1	Precipitación	0
27616	7	Sololá	701	Sololá	1	Sololá	6	Junio	2023-04-06T00:00:00	2024-11-08T14:00:00	8	Radiación solar	77
27617	7	Sololá	701	Sololá	1	Sololá	6	Junio	2023-04-06T00:00:00	2024-11-08T15:00:00	2	Temperatura media	19
27618	7	Sololá	701	Sololá	1	Sololá	6	Junio	2023-04-06T00:00:00	2024-11-08T15:00:00	4	Temperatura máxima	20.1
27619	7	Sololá	701	Sololá	1	Sololá	6	Junio	2023-04-06T00:00:00	2024-11-08T15:00:00	3	Temperatura mínima	19
27620	7	Sololá	701	Sololá	1	Sololá	6	Junio	2023-04-06T00:00:00	2024-11-08T15:00:00	5	Humedad	89
27621	7	Sololá	701	Sololá	1	Sololá	6	Junio	2023-04-06T00:00:00	2024-11-08T15:00:00	6	Velocidad del viento	4.8
27622	7	Sololá	701	Sololá	1	Sololá	6	Junio	2023-04-06T00:00:00	2024-11-08T15:00:00	7	Dirección del viento	4.83
27623	7	Sololá	701	Sololá	1	Sololá	6	Junio	2023-04-06T00:00:00	2024-11-08T15:00:00	1	Precipitación	0
27624	7	Sololá	701	Sololá	1	Sololá	6	Junio	2023-04-06T00:00:00	2024-11-08T15:00:00	8	Radiación solar	55
27625	7	Sololá	701	Sololá	1	Sololá	6	Junio	2023-04-06T00:00:00	2024-11-08T16:00:00	2	Temperatura media	18.6
27626	7	Sololá	701	Sololá	1	Sololá	6	Junio	2023-04-06T00:00:00	2024-11-08T16:00:00	4	Temperatura máxima	19.1
27627	7	Sololá	701	Sololá	1	Sololá	6	Junio	2023-04-06T00:00:00	2024-11-08T16:00:00	3	Temperatura mínima	18.4
27628	7	Sololá	701	Sololá	1	Sololá	6	Junio	2023-04-06T00:00:00	2024-11-08T16:00:00	5	Humedad	91
27629	7	Sololá	701	Sololá	1	Sololá	6	Junio	2023-04-06T00:00:00	2024-11-08T16:00:00	6	Velocidad del viento	3.2
27630	7	Sololá	701	Sololá	1	Sololá	6	Junio	2023-04-06T00:00:00	2024-11-08T16:00:00	7	Dirección del viento	3.22
27631	7	Sololá	701	Sololá	1	Sololá	6	Junio	2023-04-06T00:00:00	2024-11-08T16:00:00	1	Precipitación	0
27632	7	Sololá	701	Sololá	1	Sololá	6	Junio	2023-04-06T00:00:00	2024-11-08T16:00:00	8	Radiación solar	80
27633	7	Sololá	701	Sololá	1	Sololá	6	Junio	2023-04-06T00:00:00	2024-11-08T17:00:00	2	Temperatura media	17.8
27634	7	Sololá	701	Sololá	1	Sololá	6	Junio	2023-04-06T00:00:00	2024-11-08T17:00:00	4	Temperatura máxima	18.6
27635	7	Sololá	701	Sololá	1	Sololá	6	Junio	2023-04-06T00:00:00	2024-11-08T17:00:00	3	Temperatura mínima	17.7
27636	7	Sololá	701	Sololá	1	Sololá	6	Junio	2023-04-06T00:00:00	2024-11-08T17:00:00	5	Humedad	91
27637	7	Sololá	701	Sololá	1	Sololá	6	Junio	2023-04-06T00:00:00	2024-11-08T17:00:00	6	Velocidad del viento	3.2
27638	7	Sololá	701	Sololá	1	Sololá	6	Junio	2023-04-06T00:00:00	2024-11-08T17:00:00	7	Dirección del viento	3.22
27639	7	Sololá	701	Sololá	1	Sololá	6	Junio	2023-04-06T00:00:00	2024-11-08T17:00:00	1	Precipitación	0
27640	7	Sololá	701	Sololá	1	Sololá	6	Junio	2023-04-06T00:00:00	2024-11-08T17:00:00	8	Radiación solar	103
27641	7	Sololá	701	Sololá	1	Sololá	6	Junio	2023-04-06T00:00:00	2024-11-08T18:00:00	2	Temperatura media	18
27642	7	Sololá	701	Sololá	1	Sololá	6	Junio	2023-04-06T00:00:00	2024-11-08T18:00:00	4	Temperatura máxima	18.1
27643	7	Sololá	701	Sololá	1	Sololá	6	Junio	2023-04-06T00:00:00	2024-11-08T18:00:00	3	Temperatura mínima	17.7
27644	7	Sololá	701	Sololá	1	Sololá	6	Junio	2023-04-06T00:00:00	2024-11-08T18:00:00	5	Humedad	87
27645	7	Sololá	701	Sololá	1	Sololá	6	Junio	2023-04-06T00:00:00	2024-11-08T18:00:00	6	Velocidad del viento	4.8
27646	7	Sololá	701	Sololá	1	Sololá	6	Junio	2023-04-06T00:00:00	2024-11-08T18:00:00	7	Dirección del viento	4.83
27647	7	Sololá	701	Sololá	1	Sololá	6	Junio	2023-04-06T00:00:00	2024-11-08T18:00:00	1	Precipitación	0
27648	7	Sololá	701	Sololá	1	Sololá	6	Junio	2023-04-06T00:00:00	2024-11-08T18:00:00	8	Radiación solar	4
27649	7	Sololá	701	Sololá	1	Sololá	6	Junio	2023-04-06T00:00:00	2024-11-08T19:00:00	2	Temperatura media	18.5
27650	7	Sololá	701	Sololá	1	Sololá	6	Junio	2023-04-06T00:00:00	2024-11-08T19:00:00	4	Temperatura máxima	20.3
27651	7	Sololá	701	Sololá	1	Sololá	6	Junio	2023-04-06T00:00:00	2024-11-08T19:00:00	3	Temperatura mínima	18.1
27652	7	Sololá	701	Sololá	1	Sololá	6	Junio	2023-04-06T00:00:00	2024-11-08T19:00:00	5	Humedad	87
27653	7	Sololá	701	Sololá	1	Sololá	6	Junio	2023-04-06T00:00:00	2024-11-08T19:00:00	6	Velocidad del viento	12.9
27654	7	Sololá	701	Sololá	1	Sololá	6	Junio	2023-04-06T00:00:00	2024-11-08T19:00:00	7	Dirección del viento	12.87
27655	7	Sololá	701	Sololá	1	Sololá	6	Junio	2023-04-06T00:00:00	2024-11-08T19:00:00	1	Precipitación	0
27656	7	Sololá	701	Sololá	1	Sololá	6	Junio	2023-04-06T00:00:00	2024-11-08T19:00:00	8	Radiación solar	0
27657	7	Sololá	701	Sololá	1	Sololá	6	Junio	2023-04-06T00:00:00	2024-11-08T20:00:00	2	Temperatura media	16.9
27658	7	Sololá	701	Sololá	1	Sololá	6	Junio	2023-04-06T00:00:00	2024-11-08T20:00:00	4	Temperatura máxima	18.4
27659	7	Sololá	701	Sololá	1	Sololá	6	Junio	2023-04-06T00:00:00	2024-11-08T20:00:00	3	Temperatura mínima	16.9
27660	7	Sololá	701	Sololá	1	Sololá	6	Junio	2023-04-06T00:00:00	2024-11-08T20:00:00	5	Humedad	93
27661	7	Sololá	701	Sololá	1	Sololá	6	Junio	2023-04-06T00:00:00	2024-11-08T20:00:00	6	Velocidad del viento	3.2
27662	7	Sololá	701	Sololá	1	Sololá	6	Junio	2023-04-06T00:00:00	2024-11-08T20:00:00	7	Dirección del viento	3.22
27663	7	Sololá	701	Sololá	1	Sololá	6	Junio	2023-04-06T00:00:00	2024-11-08T20:00:00	1	Precipitación	0
27664	7	Sololá	701	Sololá	1	Sololá	6	Junio	2023-04-06T00:00:00	2024-11-08T20:00:00	8	Radiación solar	0
27665	7	Sololá	701	Sololá	1	Sololá	6	Junio	2023-04-06T00:00:00	2024-11-08T21:00:00	2	Temperatura media	16.9
27666	7	Sololá	701	Sololá	1	Sololá	6	Junio	2023-04-06T00:00:00	2024-11-08T21:00:00	4	Temperatura máxima	17.3
27667	7	Sololá	701	Sololá	1	Sololá	6	Junio	2023-04-06T00:00:00	2024-11-08T21:00:00	3	Temperatura mínima	16.9
27668	7	Sololá	701	Sololá	1	Sololá	6	Junio	2023-04-06T00:00:00	2024-11-08T21:00:00	5	Humedad	92
27669	7	Sololá	701	Sololá	1	Sololá	6	Junio	2023-04-06T00:00:00	2024-11-08T21:00:00	6	Velocidad del viento	1.6
27670	7	Sololá	701	Sololá	1	Sololá	6	Junio	2023-04-06T00:00:00	2024-11-08T21:00:00	7	Dirección del viento	1.61
27671	7	Sololá	701	Sololá	1	Sololá	6	Junio	2023-04-06T00:00:00	2024-11-08T21:00:00	1	Precipitación	0
27672	7	Sololá	701	Sololá	1	Sololá	6	Junio	2023-04-06T00:00:00	2024-11-08T21:00:00	8	Radiación solar	0
27673	7	Sololá	701	Sololá	1	Sololá	6	Junio	2023-04-06T00:00:00	2024-11-08T22:00:00	2	Temperatura media	16.4
27674	7	Sololá	701	Sololá	1	Sololá	6	Junio	2023-04-06T00:00:00	2024-11-08T22:00:00	4	Temperatura máxima	16.9
27675	7	Sololá	701	Sololá	1	Sololá	6	Junio	2023-04-06T00:00:00	2024-11-08T22:00:00	3	Temperatura mínima	16.2
27676	7	Sololá	701	Sololá	1	Sololá	6	Junio	2023-04-06T00:00:00	2024-11-08T22:00:00	5	Humedad	87
27677	7	Sololá	701	Sololá	1	Sololá	6	Junio	2023-04-06T00:00:00	2024-11-08T22:00:00	6	Velocidad del viento	3.2
27678	7	Sololá	701	Sololá	1	Sololá	6	Junio	2023-04-06T00:00:00	2024-11-08T22:00:00	7	Dirección del viento	3.22
27679	7	Sololá	701	Sololá	1	Sololá	6	Junio	2023-04-06T00:00:00	2024-11-08T22:00:00	1	Precipitación	0
27680	7	Sololá	701	Sololá	1	Sololá	6	Junio	2023-04-06T00:00:00	2024-11-08T22:00:00	8	Radiación solar	0
27681	7	Sololá	701	Sololá	1	Sololá	6	Junio	2023-04-06T00:00:00	2024-11-08T23:00:00	2	Temperatura media	15.6
27682	7	Sololá	701	Sololá	1	Sololá	6	Junio	2023-04-06T00:00:00	2024-11-08T23:00:00	4	Temperatura máxima	16.4
27683	7	Sololá	701	Sololá	1	Sololá	6	Junio	2023-04-06T00:00:00	2024-11-08T23:00:00	3	Temperatura mínima	15.4
27684	7	Sololá	701	Sololá	1	Sololá	6	Junio	2023-04-06T00:00:00	2024-11-08T23:00:00	5	Humedad	83
27685	7	Sololá	701	Sololá	1	Sololá	6	Junio	2023-04-06T00:00:00	2024-11-08T23:00:00	6	Velocidad del viento	4.8
27686	7	Sololá	701	Sololá	1	Sololá	6	Junio	2023-04-06T00:00:00	2024-11-08T23:00:00	7	Dirección del viento	4.83
27687	7	Sololá	701	Sololá	1	Sololá	6	Junio	2023-04-06T00:00:00	2024-11-08T23:00:00	1	Precipitación	0
27688	7	Sololá	701	Sololá	1	Sololá	6	Junio	2023-04-06T00:00:00	2024-11-08T23:00:00	8	Radiación solar	0
27689	7	Sololá	701	Sololá	1	Sololá	6	Junio	2023-05-06T00:00:00	2024-11-08T00:00:00	2	Temperatura media	15.9
27690	7	Sololá	701	Sololá	1	Sololá	6	Junio	2023-05-06T00:00:00	2024-11-08T00:00:00	4	Temperatura máxima	16
27691	7	Sololá	701	Sololá	1	Sololá	6	Junio	2023-05-06T00:00:00	2024-11-08T00:00:00	3	Temperatura mínima	15.1
27692	7	Sololá	701	Sololá	1	Sololá	6	Junio	2023-05-06T00:00:00	2024-11-08T00:00:00	5	Humedad	76
27693	7	Sololá	701	Sololá	1	Sololá	6	Junio	2023-05-06T00:00:00	2024-11-08T00:00:00	6	Velocidad del viento	4.8
27694	7	Sololá	701	Sololá	1	Sololá	6	Junio	2023-05-06T00:00:00	2024-11-08T00:00:00	7	Dirección del viento	4.83
27695	7	Sololá	701	Sololá	1	Sololá	6	Junio	2023-05-06T00:00:00	2024-11-08T00:00:00	1	Precipitación	0
27696	7	Sololá	701	Sololá	1	Sololá	6	Junio	2023-05-06T00:00:00	2024-11-08T00:00:00	8	Radiación solar	0
27697	7	Sololá	701	Sololá	1	Sololá	6	Junio	2023-05-06T00:00:00	2024-11-08T01:00:00	2	Temperatura media	15
27698	7	Sololá	701	Sololá	1	Sololá	6	Junio	2023-05-06T00:00:00	2024-11-08T01:00:00	4	Temperatura máxima	15.9
27699	7	Sololá	701	Sololá	1	Sololá	6	Junio	2023-05-06T00:00:00	2024-11-08T01:00:00	3	Temperatura mínima	14.9
27700	7	Sololá	701	Sololá	1	Sololá	6	Junio	2023-05-06T00:00:00	2024-11-08T01:00:00	5	Humedad	80
27701	7	Sololá	701	Sololá	1	Sololá	6	Junio	2023-05-06T00:00:00	2024-11-08T01:00:00	6	Velocidad del viento	3.2
27702	7	Sololá	701	Sololá	1	Sololá	6	Junio	2023-05-06T00:00:00	2024-11-08T01:00:00	7	Dirección del viento	3.22
27703	7	Sololá	701	Sololá	1	Sololá	6	Junio	2023-05-06T00:00:00	2024-11-08T01:00:00	1	Precipitación	0
27704	7	Sololá	701	Sololá	1	Sololá	6	Junio	2023-05-06T00:00:00	2024-11-08T01:00:00	8	Radiación solar	0
27705	7	Sololá	701	Sololá	1	Sololá	6	Junio	2023-05-06T00:00:00	2024-11-08T02:00:00	2	Temperatura media	14.7
27706	7	Sololá	701	Sololá	1	Sololá	6	Junio	2023-05-06T00:00:00	2024-11-08T02:00:00	4	Temperatura máxima	15.2
27707	7	Sololá	701	Sololá	1	Sololá	6	Junio	2023-05-06T00:00:00	2024-11-08T02:00:00	3	Temperatura mínima	14.7
27708	7	Sololá	701	Sololá	1	Sololá	6	Junio	2023-05-06T00:00:00	2024-11-08T02:00:00	5	Humedad	79
27709	7	Sololá	701	Sololá	1	Sololá	6	Junio	2023-05-06T00:00:00	2024-11-08T02:00:00	6	Velocidad del viento	3.2
27710	7	Sololá	701	Sololá	1	Sololá	6	Junio	2023-05-06T00:00:00	2024-11-08T02:00:00	7	Dirección del viento	3.22
27711	7	Sololá	701	Sololá	1	Sololá	6	Junio	2023-05-06T00:00:00	2024-11-08T02:00:00	1	Precipitación	0
27712	7	Sololá	701	Sololá	1	Sololá	6	Junio	2023-05-06T00:00:00	2024-11-08T02:00:00	8	Radiación solar	0
27713	7	Sololá	701	Sololá	1	Sololá	6	Junio	2023-05-06T00:00:00	2024-11-08T03:00:00	2	Temperatura media	13.9
27714	7	Sololá	701	Sololá	1	Sololá	6	Junio	2023-05-06T00:00:00	2024-11-08T03:00:00	4	Temperatura máxima	14.7
27715	7	Sololá	701	Sololá	1	Sololá	6	Junio	2023-05-06T00:00:00	2024-11-08T03:00:00	3	Temperatura mínima	13.9
27716	7	Sololá	701	Sololá	1	Sololá	6	Junio	2023-05-06T00:00:00	2024-11-08T03:00:00	5	Humedad	77
27717	7	Sololá	701	Sololá	1	Sololá	6	Junio	2023-05-06T00:00:00	2024-11-08T03:00:00	6	Velocidad del viento	1.6
27718	7	Sololá	701	Sololá	1	Sololá	6	Junio	2023-05-06T00:00:00	2024-11-08T03:00:00	7	Dirección del viento	1.61
27719	7	Sololá	701	Sololá	1	Sololá	6	Junio	2023-05-06T00:00:00	2024-11-08T03:00:00	1	Precipitación	0
27720	7	Sololá	701	Sololá	1	Sololá	6	Junio	2023-05-06T00:00:00	2024-11-08T03:00:00	8	Radiación solar	0
27721	7	Sololá	701	Sololá	1	Sololá	6	Junio	2023-05-06T00:00:00	2024-11-08T04:00:00	2	Temperatura media	13.3
27722	7	Sololá	701	Sololá	1	Sololá	6	Junio	2023-05-06T00:00:00	2024-11-08T04:00:00	4	Temperatura máxima	13.9
27723	7	Sololá	701	Sololá	1	Sololá	6	Junio	2023-05-06T00:00:00	2024-11-08T04:00:00	3	Temperatura mínima	13.3
27724	7	Sololá	701	Sololá	1	Sololá	6	Junio	2023-05-06T00:00:00	2024-11-08T04:00:00	5	Humedad	79
27725	7	Sololá	701	Sololá	1	Sololá	6	Junio	2023-05-06T00:00:00	2024-11-08T04:00:00	6	Velocidad del viento	1.6
27726	7	Sololá	701	Sololá	1	Sololá	6	Junio	2023-05-06T00:00:00	2024-11-08T04:00:00	7	Dirección del viento	1.61
27727	7	Sololá	701	Sololá	1	Sololá	6	Junio	2023-05-06T00:00:00	2024-11-08T04:00:00	1	Precipitación	0
27728	7	Sololá	701	Sololá	1	Sololá	6	Junio	2023-05-06T00:00:00	2024-11-08T04:00:00	8	Radiación solar	0
27729	7	Sololá	701	Sololá	1	Sololá	6	Junio	2023-05-06T00:00:00	2024-11-08T05:00:00	2	Temperatura media	13.2
27730	7	Sololá	701	Sololá	1	Sololá	6	Junio	2023-05-06T00:00:00	2024-11-08T05:00:00	4	Temperatura máxima	13.5
27731	7	Sololá	701	Sololá	1	Sololá	6	Junio	2023-05-06T00:00:00	2024-11-08T05:00:00	3	Temperatura mínima	13.1
27732	7	Sololá	701	Sololá	1	Sololá	6	Junio	2023-05-06T00:00:00	2024-11-08T05:00:00	5	Humedad	79
27733	7	Sololá	701	Sololá	1	Sololá	6	Junio	2023-05-06T00:00:00	2024-11-08T05:00:00	6	Velocidad del viento	1.6
27734	7	Sololá	701	Sololá	1	Sololá	6	Junio	2023-05-06T00:00:00	2024-11-08T05:00:00	7	Dirección del viento	1.61
27735	7	Sololá	701	Sololá	1	Sololá	6	Junio	2023-05-06T00:00:00	2024-11-08T05:00:00	1	Precipitación	0
27736	7	Sololá	701	Sololá	1	Sololá	6	Junio	2023-05-06T00:00:00	2024-11-08T05:00:00	8	Radiación solar	0
27737	7	Sololá	701	Sololá	1	Sololá	6	Junio	2023-05-06T00:00:00	2024-11-08T06:00:00	2	Temperatura media	12.9
27738	7	Sololá	701	Sololá	1	Sololá	6	Junio	2023-05-06T00:00:00	2024-11-08T06:00:00	4	Temperatura máxima	13.7
27739	7	Sololá	701	Sololá	1	Sololá	6	Junio	2023-05-06T00:00:00	2024-11-08T06:00:00	3	Temperatura mínima	12.9
27740	7	Sololá	701	Sololá	1	Sololá	6	Junio	2023-05-06T00:00:00	2024-11-08T06:00:00	5	Humedad	80
27741	7	Sololá	701	Sololá	1	Sololá	6	Junio	2023-05-06T00:00:00	2024-11-08T06:00:00	6	Velocidad del viento	4.8
27742	7	Sololá	701	Sololá	1	Sololá	6	Junio	2023-05-06T00:00:00	2024-11-08T06:00:00	7	Dirección del viento	4.83
27743	7	Sololá	701	Sololá	1	Sololá	6	Junio	2023-05-06T00:00:00	2024-11-08T06:00:00	1	Precipitación	0
27744	7	Sololá	701	Sololá	1	Sololá	6	Junio	2023-05-06T00:00:00	2024-11-08T06:00:00	8	Radiación solar	5
27745	7	Sololá	701	Sololá	1	Sololá	6	Junio	2023-05-06T00:00:00	2024-11-08T07:00:00	2	Temperatura media	14.9
27746	7	Sololá	701	Sololá	1	Sololá	6	Junio	2023-05-06T00:00:00	2024-11-08T07:00:00	4	Temperatura máxima	14.9
27747	7	Sololá	701	Sololá	1	Sololá	6	Junio	2023-05-06T00:00:00	2024-11-08T07:00:00	3	Temperatura mínima	12.9
27748	7	Sololá	701	Sololá	1	Sololá	6	Junio	2023-05-06T00:00:00	2024-11-08T07:00:00	5	Humedad	76
27749	7	Sololá	701	Sololá	1	Sololá	6	Junio	2023-05-06T00:00:00	2024-11-08T07:00:00	6	Velocidad del viento	3.2
27750	7	Sololá	701	Sololá	1	Sololá	6	Junio	2023-05-06T00:00:00	2024-11-08T07:00:00	7	Dirección del viento	3.22
27751	7	Sololá	701	Sololá	1	Sololá	6	Junio	2023-05-06T00:00:00	2024-11-08T07:00:00	1	Precipitación	0
27752	7	Sololá	701	Sololá	1	Sololá	6	Junio	2023-05-06T00:00:00	2024-11-08T07:00:00	8	Radiación solar	52
27753	7	Sololá	701	Sololá	1	Sololá	6	Junio	2023-05-06T00:00:00	2024-11-08T08:00:00	2	Temperatura media	18.4
27754	7	Sololá	701	Sololá	1	Sololá	6	Junio	2023-05-06T00:00:00	2024-11-08T08:00:00	4	Temperatura máxima	18.4
27755	7	Sololá	701	Sololá	1	Sololá	6	Junio	2023-05-06T00:00:00	2024-11-08T08:00:00	3	Temperatura mínima	14.9
27756	7	Sololá	701	Sololá	1	Sololá	6	Junio	2023-05-06T00:00:00	2024-11-08T08:00:00	5	Humedad	65
27757	7	Sololá	701	Sololá	1	Sololá	6	Junio	2023-05-06T00:00:00	2024-11-08T08:00:00	6	Velocidad del viento	1.6
27758	7	Sololá	701	Sololá	1	Sololá	6	Junio	2023-05-06T00:00:00	2024-11-08T08:00:00	7	Dirección del viento	1.61
27759	7	Sololá	701	Sololá	1	Sololá	6	Junio	2023-05-06T00:00:00	2024-11-08T08:00:00	1	Precipitación	0
27760	7	Sololá	701	Sololá	1	Sololá	6	Junio	2023-05-06T00:00:00	2024-11-08T08:00:00	8	Radiación solar	103
27761	7	Sololá	701	Sololá	1	Sololá	6	Junio	2023-05-06T00:00:00	2024-11-08T09:00:00	2	Temperatura media	19.8
27762	7	Sololá	701	Sololá	1	Sololá	6	Junio	2023-05-06T00:00:00	2024-11-08T09:00:00	4	Temperatura máxima	20
27763	7	Sololá	701	Sololá	1	Sololá	6	Junio	2023-05-06T00:00:00	2024-11-08T09:00:00	3	Temperatura mínima	18.4
27764	7	Sololá	701	Sololá	1	Sololá	6	Junio	2023-05-06T00:00:00	2024-11-08T09:00:00	5	Humedad	67
27765	7	Sololá	701	Sololá	1	Sololá	6	Junio	2023-05-06T00:00:00	2024-11-08T09:00:00	6	Velocidad del viento	3.2
27766	7	Sololá	701	Sololá	1	Sololá	6	Junio	2023-05-06T00:00:00	2024-11-08T09:00:00	7	Dirección del viento	3.22
27767	7	Sololá	701	Sololá	1	Sololá	6	Junio	2023-05-06T00:00:00	2024-11-08T09:00:00	1	Precipitación	0
27768	7	Sololá	701	Sololá	1	Sololá	6	Junio	2023-05-06T00:00:00	2024-11-08T09:00:00	8	Radiación solar	460
27769	7	Sololá	701	Sololá	1	Sololá	6	Junio	2023-05-06T00:00:00	2024-11-08T10:00:00	2	Temperatura media	19.8
27770	7	Sololá	701	Sololá	1	Sololá	6	Junio	2023-05-06T00:00:00	2024-11-08T10:00:00	4	Temperatura máxima	20.1
27771	7	Sololá	701	Sololá	1	Sololá	6	Junio	2023-05-06T00:00:00	2024-11-08T10:00:00	3	Temperatura mínima	19.4
27772	7	Sololá	701	Sololá	1	Sololá	6	Junio	2023-05-06T00:00:00	2024-11-08T10:00:00	5	Humedad	73
27773	7	Sololá	701	Sololá	1	Sololá	6	Junio	2023-05-06T00:00:00	2024-11-08T10:00:00	6	Velocidad del viento	4.8
27774	7	Sololá	701	Sololá	1	Sololá	6	Junio	2023-05-06T00:00:00	2024-11-08T10:00:00	7	Dirección del viento	4.83
27775	7	Sololá	701	Sololá	1	Sololá	6	Junio	2023-05-06T00:00:00	2024-11-08T10:00:00	1	Precipitación	0
27776	7	Sololá	701	Sololá	1	Sololá	6	Junio	2023-05-06T00:00:00	2024-11-08T10:00:00	8	Radiación solar	400
27777	7	Sololá	701	Sololá	1	Sololá	6	Junio	2023-05-06T00:00:00	2024-11-08T11:00:00	2	Temperatura media	19.4
27778	7	Sololá	701	Sololá	1	Sololá	6	Junio	2023-05-06T00:00:00	2024-11-08T11:00:00	4	Temperatura máxima	20.4
27779	7	Sololá	701	Sololá	1	Sololá	6	Junio	2023-05-06T00:00:00	2024-11-08T11:00:00	3	Temperatura mínima	19.3
27780	7	Sololá	701	Sololá	1	Sololá	6	Junio	2023-05-06T00:00:00	2024-11-08T11:00:00	5	Humedad	69
27781	7	Sololá	701	Sololá	1	Sololá	6	Junio	2023-05-06T00:00:00	2024-11-08T11:00:00	6	Velocidad del viento	4.8
27782	7	Sololá	701	Sololá	1	Sololá	6	Junio	2023-05-06T00:00:00	2024-11-08T11:00:00	7	Dirección del viento	4.83
27783	7	Sololá	701	Sololá	1	Sololá	6	Junio	2023-05-06T00:00:00	2024-11-08T11:00:00	1	Precipitación	0
27784	7	Sololá	701	Sololá	1	Sololá	6	Junio	2023-05-06T00:00:00	2024-11-08T11:00:00	8	Radiación solar	868
27785	7	Sololá	701	Sololá	1	Sololá	6	Junio	2023-05-06T00:00:00	2024-11-08T12:00:00	2	Temperatura media	20.3
27786	7	Sololá	701	Sololá	1	Sololá	6	Junio	2023-05-06T00:00:00	2024-11-08T12:00:00	4	Temperatura máxima	20.3
27787	7	Sololá	701	Sololá	1	Sololá	6	Junio	2023-05-06T00:00:00	2024-11-08T12:00:00	3	Temperatura mínima	19.1
27788	7	Sololá	701	Sololá	1	Sololá	6	Junio	2023-05-06T00:00:00	2024-11-08T12:00:00	5	Humedad	72
27789	7	Sololá	701	Sololá	1	Sololá	6	Junio	2023-05-06T00:00:00	2024-11-08T12:00:00	6	Velocidad del viento	4.8
27790	7	Sololá	701	Sololá	1	Sololá	6	Junio	2023-05-06T00:00:00	2024-11-08T12:00:00	7	Dirección del viento	4.83
27791	7	Sololá	701	Sololá	1	Sololá	6	Junio	2023-05-06T00:00:00	2024-11-08T12:00:00	1	Precipitación	0
27792	7	Sololá	701	Sololá	1	Sololá	6	Junio	2023-05-06T00:00:00	2024-11-08T12:00:00	8	Radiación solar	483
27793	7	Sololá	701	Sololá	1	Sololá	6	Junio	2023-05-06T00:00:00	2024-11-08T13:00:00	2	Temperatura media	20.9
27794	7	Sololá	701	Sololá	1	Sololá	6	Junio	2023-05-06T00:00:00	2024-11-08T13:00:00	4	Temperatura máxima	21
27795	7	Sololá	701	Sololá	1	Sololá	6	Junio	2023-05-06T00:00:00	2024-11-08T13:00:00	3	Temperatura mínima	19.9
27796	7	Sololá	701	Sololá	1	Sololá	6	Junio	2023-05-06T00:00:00	2024-11-08T13:00:00	5	Humedad	71
27797	7	Sololá	701	Sololá	1	Sololá	6	Junio	2023-05-06T00:00:00	2024-11-08T13:00:00	6	Velocidad del viento	4.8
27798	7	Sololá	701	Sololá	1	Sololá	6	Junio	2023-05-06T00:00:00	2024-11-08T13:00:00	7	Dirección del viento	4.83
27799	7	Sololá	701	Sololá	1	Sololá	6	Junio	2023-05-06T00:00:00	2024-11-08T13:00:00	1	Precipitación	0
27800	7	Sololá	701	Sololá	1	Sololá	6	Junio	2023-05-06T00:00:00	2024-11-08T13:00:00	8	Radiación solar	233
27801	7	Sololá	701	Sololá	1	Sololá	6	Junio	2023-05-06T00:00:00	2024-11-08T14:00:00	2	Temperatura media	21.2
27802	7	Sololá	701	Sololá	1	Sololá	6	Junio	2023-05-06T00:00:00	2024-11-08T14:00:00	4	Temperatura máxima	21.2
27803	7	Sololá	701	Sololá	1	Sololá	6	Junio	2023-05-06T00:00:00	2024-11-08T14:00:00	3	Temperatura mínima	20.8
27804	7	Sololá	701	Sololá	1	Sololá	6	Junio	2023-05-06T00:00:00	2024-11-08T14:00:00	5	Humedad	65
27805	7	Sololá	701	Sololá	1	Sololá	6	Junio	2023-05-06T00:00:00	2024-11-08T14:00:00	6	Velocidad del viento	6.4
27806	7	Sololá	701	Sololá	1	Sololá	6	Junio	2023-05-06T00:00:00	2024-11-08T14:00:00	7	Dirección del viento	6.44
27807	7	Sololá	701	Sololá	1	Sololá	6	Junio	2023-05-06T00:00:00	2024-11-08T14:00:00	1	Precipitación	0
27808	7	Sololá	701	Sololá	1	Sololá	6	Junio	2023-05-06T00:00:00	2024-11-08T14:00:00	8	Radiación solar	124
27809	7	Sololá	701	Sololá	1	Sololá	6	Junio	2023-05-06T00:00:00	2024-11-08T15:00:00	2	Temperatura media	20.8
27810	7	Sololá	701	Sololá	1	Sololá	6	Junio	2023-05-06T00:00:00	2024-11-08T15:00:00	4	Temperatura máxima	21.6
27811	7	Sololá	701	Sololá	1	Sololá	6	Junio	2023-05-06T00:00:00	2024-11-08T15:00:00	3	Temperatura mínima	20.8
27812	7	Sololá	701	Sololá	1	Sololá	6	Junio	2023-05-06T00:00:00	2024-11-08T15:00:00	5	Humedad	73
27813	7	Sololá	701	Sololá	1	Sololá	6	Junio	2023-05-06T00:00:00	2024-11-08T15:00:00	6	Velocidad del viento	4.8
27814	7	Sololá	701	Sololá	1	Sololá	6	Junio	2023-05-06T00:00:00	2024-11-08T15:00:00	7	Dirección del viento	4.83
27815	7	Sololá	701	Sololá	1	Sololá	6	Junio	2023-05-06T00:00:00	2024-11-08T15:00:00	1	Precipitación	0
27816	7	Sololá	701	Sololá	1	Sololá	6	Junio	2023-05-06T00:00:00	2024-11-08T15:00:00	8	Radiación solar	88
27817	7	Sololá	701	Sololá	1	Sololá	6	Junio	2023-05-06T00:00:00	2024-11-08T16:00:00	2	Temperatura media	19.3
27818	7	Sololá	701	Sololá	1	Sololá	6	Junio	2023-05-06T00:00:00	2024-11-08T16:00:00	4	Temperatura máxima	20.9
27819	7	Sololá	701	Sololá	1	Sololá	6	Junio	2023-05-06T00:00:00	2024-11-08T16:00:00	3	Temperatura mínima	19.3
27820	7	Sololá	701	Sololá	1	Sololá	6	Junio	2023-05-06T00:00:00	2024-11-08T16:00:00	5	Humedad	82
27821	7	Sololá	701	Sololá	1	Sololá	6	Junio	2023-05-06T00:00:00	2024-11-08T16:00:00	6	Velocidad del viento	4.8
27822	7	Sololá	701	Sololá	1	Sololá	6	Junio	2023-05-06T00:00:00	2024-11-08T16:00:00	7	Dirección del viento	4.83
27823	7	Sololá	701	Sololá	1	Sololá	6	Junio	2023-05-06T00:00:00	2024-11-08T16:00:00	1	Precipitación	0
27824	7	Sololá	701	Sololá	1	Sololá	6	Junio	2023-05-06T00:00:00	2024-11-08T16:00:00	8	Radiación solar	118
27825	7	Sololá	701	Sololá	1	Sololá	6	Junio	2023-05-06T00:00:00	2024-11-08T17:00:00	2	Temperatura media	18.2
27826	7	Sololá	701	Sololá	1	Sololá	6	Junio	2023-05-06T00:00:00	2024-11-08T17:00:00	4	Temperatura máxima	19.5
27827	7	Sololá	701	Sololá	1	Sololá	6	Junio	2023-05-06T00:00:00	2024-11-08T17:00:00	3	Temperatura mínima	17.7
27828	7	Sololá	701	Sololá	1	Sololá	6	Junio	2023-05-06T00:00:00	2024-11-08T17:00:00	5	Humedad	86
27829	7	Sololá	701	Sololá	1	Sololá	6	Junio	2023-05-06T00:00:00	2024-11-08T17:00:00	6	Velocidad del viento	3.2
27830	7	Sololá	701	Sololá	1	Sololá	6	Junio	2023-05-06T00:00:00	2024-11-08T17:00:00	7	Dirección del viento	3.22
27831	7	Sololá	701	Sololá	1	Sololá	6	Junio	2023-05-06T00:00:00	2024-11-08T17:00:00	1	Precipitación	0
27832	7	Sololá	701	Sololá	1	Sololá	6	Junio	2023-05-06T00:00:00	2024-11-08T17:00:00	8	Radiación solar	90
27833	7	Sololá	701	Sololá	1	Sololá	6	Junio	2023-05-06T00:00:00	2024-11-08T18:00:00	2	Temperatura media	17.8
27834	7	Sololá	701	Sololá	1	Sololá	6	Junio	2023-05-06T00:00:00	2024-11-08T18:00:00	4	Temperatura máxima	18.3
27835	7	Sololá	701	Sololá	1	Sololá	6	Junio	2023-05-06T00:00:00	2024-11-08T18:00:00	3	Temperatura mínima	17.4
27836	7	Sololá	701	Sololá	1	Sololá	6	Junio	2023-05-06T00:00:00	2024-11-08T18:00:00	5	Humedad	88
27837	7	Sololá	701	Sololá	1	Sololá	6	Junio	2023-05-06T00:00:00	2024-11-08T18:00:00	6	Velocidad del viento	1.6
27838	7	Sololá	701	Sololá	1	Sololá	6	Junio	2023-05-06T00:00:00	2024-11-08T18:00:00	7	Dirección del viento	1.61
27839	7	Sololá	701	Sololá	1	Sololá	6	Junio	2023-05-06T00:00:00	2024-11-08T18:00:00	1	Precipitación	0
27840	7	Sololá	701	Sololá	1	Sololá	6	Junio	2023-05-06T00:00:00	2024-11-08T18:00:00	8	Radiación solar	29
27841	7	Sololá	701	Sololá	1	Sololá	6	Junio	2023-05-06T00:00:00	2024-11-08T19:00:00	2	Temperatura media	17.5
27842	7	Sololá	701	Sololá	1	Sololá	6	Junio	2023-05-06T00:00:00	2024-11-08T19:00:00	4	Temperatura máxima	18.3
27843	7	Sololá	701	Sololá	1	Sololá	6	Junio	2023-05-06T00:00:00	2024-11-08T19:00:00	3	Temperatura mínima	17.5
27844	7	Sololá	701	Sololá	1	Sololá	6	Junio	2023-05-06T00:00:00	2024-11-08T19:00:00	5	Humedad	89
27845	7	Sololá	701	Sololá	1	Sololá	6	Junio	2023-05-06T00:00:00	2024-11-08T19:00:00	6	Velocidad del viento	0
27846	7	Sololá	701	Sololá	1	Sololá	6	Junio	2023-05-06T00:00:00	2024-11-08T19:00:00	7	Dirección del viento	0
27847	7	Sololá	701	Sololá	1	Sololá	6	Junio	2023-05-06T00:00:00	2024-11-08T19:00:00	1	Precipitación	0
27848	7	Sololá	701	Sololá	1	Sololá	6	Junio	2023-05-06T00:00:00	2024-11-08T19:00:00	8	Radiación solar	0
27849	7	Sololá	701	Sololá	1	Sololá	6	Junio	2023-05-06T00:00:00	2024-11-08T20:00:00	2	Temperatura media	17.5
27850	7	Sololá	701	Sololá	1	Sololá	6	Junio	2023-05-06T00:00:00	2024-11-08T20:00:00	4	Temperatura máxima	17.5
27851	7	Sololá	701	Sololá	1	Sololá	6	Junio	2023-05-06T00:00:00	2024-11-08T20:00:00	3	Temperatura mínima	17.2
27852	7	Sololá	701	Sololá	1	Sololá	6	Junio	2023-05-06T00:00:00	2024-11-08T20:00:00	5	Humedad	92
27853	7	Sololá	701	Sololá	1	Sololá	6	Junio	2023-05-06T00:00:00	2024-11-08T20:00:00	6	Velocidad del viento	1.6
27854	7	Sololá	701	Sololá	1	Sololá	6	Junio	2023-05-06T00:00:00	2024-11-08T20:00:00	7	Dirección del viento	1.61
27855	7	Sololá	701	Sololá	1	Sololá	6	Junio	2023-05-06T00:00:00	2024-11-08T20:00:00	1	Precipitación	0
27856	7	Sololá	701	Sololá	1	Sololá	6	Junio	2023-05-06T00:00:00	2024-11-08T20:00:00	8	Radiación solar	0
27857	7	Sololá	701	Sololá	1	Sololá	6	Junio	2023-05-06T00:00:00	2024-11-08T21:00:00	2	Temperatura media	16.9
27858	7	Sololá	701	Sololá	1	Sololá	6	Junio	2023-05-06T00:00:00	2024-11-08T21:00:00	4	Temperatura máxima	17.6
27859	7	Sololá	701	Sololá	1	Sololá	6	Junio	2023-05-06T00:00:00	2024-11-08T21:00:00	3	Temperatura mínima	16.9
27860	7	Sololá	701	Sololá	1	Sololá	6	Junio	2023-05-06T00:00:00	2024-11-08T21:00:00	5	Humedad	92
27861	7	Sololá	701	Sololá	1	Sololá	6	Junio	2023-05-06T00:00:00	2024-11-08T21:00:00	6	Velocidad del viento	0
27862	7	Sololá	701	Sololá	1	Sololá	6	Junio	2023-05-06T00:00:00	2024-11-08T21:00:00	7	Dirección del viento	0
27863	7	Sololá	701	Sololá	1	Sololá	6	Junio	2023-05-06T00:00:00	2024-11-08T21:00:00	1	Precipitación	0
27864	7	Sololá	701	Sololá	1	Sololá	6	Junio	2023-05-06T00:00:00	2024-11-08T21:00:00	8	Radiación solar	0
27865	7	Sololá	701	Sololá	1	Sololá	6	Junio	2023-05-06T00:00:00	2024-11-08T22:00:00	2	Temperatura media	16.9
27866	7	Sololá	701	Sololá	1	Sololá	6	Junio	2023-05-06T00:00:00	2024-11-08T22:00:00	4	Temperatura máxima	17.3
27867	7	Sololá	701	Sololá	1	Sololá	6	Junio	2023-05-06T00:00:00	2024-11-08T22:00:00	3	Temperatura mínima	16.9
27868	7	Sololá	701	Sololá	1	Sololá	6	Junio	2023-05-06T00:00:00	2024-11-08T22:00:00	5	Humedad	93
27869	7	Sololá	701	Sololá	1	Sololá	6	Junio	2023-05-06T00:00:00	2024-11-08T22:00:00	6	Velocidad del viento	0
27870	7	Sololá	701	Sololá	1	Sololá	6	Junio	2023-05-06T00:00:00	2024-11-08T22:00:00	7	Dirección del viento	0
27871	7	Sololá	701	Sololá	1	Sololá	6	Junio	2023-05-06T00:00:00	2024-11-08T22:00:00	1	Precipitación	0
27872	7	Sololá	701	Sololá	1	Sololá	6	Junio	2023-05-06T00:00:00	2024-11-08T22:00:00	8	Radiación solar	0
27873	7	Sololá	701	Sololá	1	Sololá	6	Junio	2023-05-06T00:00:00	2024-11-08T23:00:00	2	Temperatura media	16.9
27874	7	Sololá	701	Sololá	1	Sololá	6	Junio	2023-05-06T00:00:00	2024-11-08T23:00:00	4	Temperatura máxima	17
27875	7	Sololá	701	Sololá	1	Sololá	6	Junio	2023-05-06T00:00:00	2024-11-08T23:00:00	3	Temperatura mínima	16.8
27876	7	Sololá	701	Sololá	1	Sololá	6	Junio	2023-05-06T00:00:00	2024-11-08T23:00:00	5	Humedad	91
27877	7	Sololá	701	Sololá	1	Sololá	6	Junio	2023-05-06T00:00:00	2024-11-08T23:00:00	6	Velocidad del viento	0
27878	7	Sololá	701	Sololá	1	Sololá	6	Junio	2023-05-06T00:00:00	2024-11-08T23:00:00	7	Dirección del viento	0
27879	7	Sololá	701	Sololá	1	Sololá	6	Junio	2023-05-06T00:00:00	2024-11-08T23:00:00	1	Precipitación	0
27880	7	Sololá	701	Sololá	1	Sololá	6	Junio	2023-05-06T00:00:00	2024-11-08T23:00:00	8	Radiación solar	0
27881	7	Sololá	701	Sololá	1	Sololá	6	Junio	2023-06-06T00:00:00	2024-11-08T00:00:00	2	Temperatura media	16.2
27882	7	Sololá	701	Sololá	1	Sololá	6	Junio	2023-06-06T00:00:00	2024-11-08T00:00:00	4	Temperatura máxima	17.1
27883	7	Sololá	701	Sololá	1	Sololá	6	Junio	2023-06-06T00:00:00	2024-11-08T00:00:00	3	Temperatura mínima	16.2
27884	7	Sololá	701	Sololá	1	Sololá	6	Junio	2023-06-06T00:00:00	2024-11-08T00:00:00	5	Humedad	90
27885	7	Sololá	701	Sololá	1	Sololá	6	Junio	2023-06-06T00:00:00	2024-11-08T00:00:00	6	Velocidad del viento	3.2
27886	7	Sololá	701	Sololá	1	Sololá	6	Junio	2023-06-06T00:00:00	2024-11-08T00:00:00	7	Dirección del viento	3.22
27887	7	Sololá	701	Sololá	1	Sololá	6	Junio	2023-06-06T00:00:00	2024-11-08T00:00:00	1	Precipitación	0
27888	7	Sololá	701	Sololá	1	Sololá	6	Junio	2023-06-06T00:00:00	2024-11-08T00:00:00	8	Radiación solar	0
27889	7	Sololá	701	Sololá	1	Sololá	6	Junio	2023-06-06T00:00:00	2024-11-08T01:00:00	2	Temperatura media	15.7
27890	7	Sololá	701	Sololá	1	Sololá	6	Junio	2023-06-06T00:00:00	2024-11-08T01:00:00	4	Temperatura máxima	16.5
27891	7	Sololá	701	Sololá	1	Sololá	6	Junio	2023-06-06T00:00:00	2024-11-08T01:00:00	3	Temperatura mínima	15.7
27892	7	Sololá	701	Sololá	1	Sololá	6	Junio	2023-06-06T00:00:00	2024-11-08T01:00:00	5	Humedad	89
27893	7	Sololá	701	Sololá	1	Sololá	6	Junio	2023-06-06T00:00:00	2024-11-08T01:00:00	6	Velocidad del viento	3.2
27894	7	Sololá	701	Sololá	1	Sololá	6	Junio	2023-06-06T00:00:00	2024-11-08T01:00:00	7	Dirección del viento	3.22
27895	7	Sololá	701	Sololá	1	Sololá	6	Junio	2023-06-06T00:00:00	2024-11-08T01:00:00	1	Precipitación	0
27896	7	Sololá	701	Sololá	1	Sololá	6	Junio	2023-06-06T00:00:00	2024-11-08T01:00:00	8	Radiación solar	0
27897	7	Sololá	701	Sololá	1	Sololá	6	Junio	2023-06-06T00:00:00	2024-11-08T02:00:00	2	Temperatura media	14.9
27898	7	Sololá	701	Sololá	1	Sololá	6	Junio	2023-06-06T00:00:00	2024-11-08T02:00:00	4	Temperatura máxima	16
27899	7	Sololá	701	Sololá	1	Sololá	6	Junio	2023-06-06T00:00:00	2024-11-08T02:00:00	3	Temperatura mínima	14.9
27900	7	Sololá	701	Sololá	1	Sololá	6	Junio	2023-06-06T00:00:00	2024-11-08T02:00:00	5	Humedad	86
27901	7	Sololá	701	Sololá	1	Sololá	6	Junio	2023-06-06T00:00:00	2024-11-08T02:00:00	6	Velocidad del viento	3.2
27902	7	Sololá	701	Sololá	1	Sololá	6	Junio	2023-06-06T00:00:00	2024-11-08T02:00:00	7	Dirección del viento	3.22
27903	7	Sololá	701	Sololá	1	Sololá	6	Junio	2023-06-06T00:00:00	2024-11-08T02:00:00	1	Precipitación	0
27904	7	Sololá	701	Sololá	1	Sololá	6	Junio	2023-06-06T00:00:00	2024-11-08T02:00:00	8	Radiación solar	0
27905	7	Sololá	701	Sololá	1	Sololá	6	Junio	2023-06-06T00:00:00	2024-11-08T03:00:00	2	Temperatura media	15.3
27906	7	Sololá	701	Sololá	1	Sololá	6	Junio	2023-06-06T00:00:00	2024-11-08T03:00:00	4	Temperatura máxima	15.6
27907	7	Sololá	701	Sololá	1	Sololá	6	Junio	2023-06-06T00:00:00	2024-11-08T03:00:00	3	Temperatura mínima	14.9
27908	7	Sololá	701	Sololá	1	Sololá	6	Junio	2023-06-06T00:00:00	2024-11-08T03:00:00	5	Humedad	82
27909	7	Sololá	701	Sololá	1	Sololá	6	Junio	2023-06-06T00:00:00	2024-11-08T03:00:00	6	Velocidad del viento	1.6
27910	7	Sololá	701	Sololá	1	Sololá	6	Junio	2023-06-06T00:00:00	2024-11-08T03:00:00	7	Dirección del viento	1.61
27911	7	Sololá	701	Sololá	1	Sololá	6	Junio	2023-06-06T00:00:00	2024-11-08T03:00:00	1	Precipitación	0
27912	7	Sololá	701	Sololá	1	Sololá	6	Junio	2023-06-06T00:00:00	2024-11-08T03:00:00	8	Radiación solar	0
27913	7	Sololá	701	Sololá	1	Sololá	6	Junio	2023-06-06T00:00:00	2024-11-08T04:00:00	2	Temperatura media	15
27914	7	Sololá	701	Sololá	1	Sololá	6	Junio	2023-06-06T00:00:00	2024-11-08T04:00:00	4	Temperatura máxima	15.6
27915	7	Sololá	701	Sololá	1	Sololá	6	Junio	2023-06-06T00:00:00	2024-11-08T04:00:00	3	Temperatura mínima	14.9
27916	7	Sololá	701	Sololá	1	Sololá	6	Junio	2023-06-06T00:00:00	2024-11-08T04:00:00	5	Humedad	81
27917	7	Sololá	701	Sololá	1	Sololá	6	Junio	2023-06-06T00:00:00	2024-11-08T04:00:00	6	Velocidad del viento	1.6
27918	7	Sololá	701	Sololá	1	Sololá	6	Junio	2023-06-06T00:00:00	2024-11-08T04:00:00	7	Dirección del viento	1.61
27919	7	Sololá	701	Sololá	1	Sololá	6	Junio	2023-06-06T00:00:00	2024-11-08T04:00:00	1	Precipitación	0
27920	7	Sololá	701	Sololá	1	Sololá	6	Junio	2023-06-06T00:00:00	2024-11-08T04:00:00	8	Radiación solar	0
27921	7	Sololá	701	Sololá	1	Sololá	6	Junio	2023-06-06T00:00:00	2024-11-08T05:00:00	2	Temperatura media	14.3
27922	7	Sololá	701	Sololá	1	Sololá	6	Junio	2023-06-06T00:00:00	2024-11-08T05:00:00	4	Temperatura máxima	15.1
27923	7	Sololá	701	Sololá	1	Sololá	6	Junio	2023-06-06T00:00:00	2024-11-08T05:00:00	3	Temperatura mínima	14.1
27924	7	Sololá	701	Sololá	1	Sololá	6	Junio	2023-06-06T00:00:00	2024-11-08T05:00:00	5	Humedad	82
27925	7	Sololá	701	Sololá	1	Sololá	6	Junio	2023-06-06T00:00:00	2024-11-08T05:00:00	6	Velocidad del viento	1.6
27926	7	Sololá	701	Sololá	1	Sololá	6	Junio	2023-06-06T00:00:00	2024-11-08T05:00:00	7	Dirección del viento	1.61
27927	7	Sololá	701	Sololá	1	Sololá	6	Junio	2023-06-06T00:00:00	2024-11-08T05:00:00	1	Precipitación	0
27928	7	Sololá	701	Sololá	1	Sololá	6	Junio	2023-06-06T00:00:00	2024-11-08T05:00:00	8	Radiación solar	0
27929	7	Sololá	701	Sololá	1	Sololá	6	Junio	2023-06-06T00:00:00	2024-11-08T06:00:00	2	Temperatura media	14.3
27930	7	Sololá	701	Sololá	1	Sololá	6	Junio	2023-06-06T00:00:00	2024-11-08T06:00:00	4	Temperatura máxima	14.4
27931	7	Sololá	701	Sololá	1	Sololá	6	Junio	2023-06-06T00:00:00	2024-11-08T06:00:00	3	Temperatura mínima	14.2
27932	7	Sololá	701	Sololá	1	Sololá	6	Junio	2023-06-06T00:00:00	2024-11-08T06:00:00	5	Humedad	82
27933	7	Sololá	701	Sololá	1	Sololá	6	Junio	2023-06-06T00:00:00	2024-11-08T06:00:00	6	Velocidad del viento	1.6
27934	7	Sololá	701	Sololá	1	Sololá	6	Junio	2023-06-06T00:00:00	2024-11-08T06:00:00	7	Dirección del viento	1.61
27935	7	Sololá	701	Sololá	1	Sololá	6	Junio	2023-06-06T00:00:00	2024-11-08T06:00:00	1	Precipitación	0
27936	7	Sololá	701	Sololá	1	Sololá	6	Junio	2023-06-06T00:00:00	2024-11-08T06:00:00	8	Radiación solar	6
27937	7	Sololá	701	Sololá	1	Sololá	6	Junio	2023-06-06T00:00:00	2024-11-08T07:00:00	2	Temperatura media	15.2
27938	7	Sololá	701	Sololá	1	Sololá	6	Junio	2023-06-06T00:00:00	2024-11-08T07:00:00	4	Temperatura máxima	15.2
27939	7	Sololá	701	Sololá	1	Sololá	6	Junio	2023-06-06T00:00:00	2024-11-08T07:00:00	3	Temperatura mínima	13.7
27940	7	Sololá	701	Sololá	1	Sololá	6	Junio	2023-06-06T00:00:00	2024-11-08T07:00:00	5	Humedad	81
27941	7	Sololá	701	Sololá	1	Sololá	6	Junio	2023-06-06T00:00:00	2024-11-08T07:00:00	6	Velocidad del viento	3.2
27942	7	Sololá	701	Sololá	1	Sololá	6	Junio	2023-06-06T00:00:00	2024-11-08T07:00:00	7	Dirección del viento	3.22
27943	7	Sololá	701	Sololá	1	Sololá	6	Junio	2023-06-06T00:00:00	2024-11-08T07:00:00	1	Precipitación	0
27944	7	Sololá	701	Sololá	1	Sololá	6	Junio	2023-06-06T00:00:00	2024-11-08T07:00:00	8	Radiación solar	75
27945	7	Sololá	701	Sololá	1	Sololá	6	Junio	2023-06-06T00:00:00	2024-11-08T08:00:00	2	Temperatura media	17.6
27946	7	Sololá	701	Sololá	1	Sololá	6	Junio	2023-06-06T00:00:00	2024-11-08T08:00:00	4	Temperatura máxima	17.6
27947	7	Sololá	701	Sololá	1	Sololá	6	Junio	2023-06-06T00:00:00	2024-11-08T08:00:00	3	Temperatura mínima	15.2
27948	7	Sololá	701	Sololá	1	Sololá	6	Junio	2023-06-06T00:00:00	2024-11-08T08:00:00	5	Humedad	72
27949	7	Sololá	701	Sololá	1	Sololá	6	Junio	2023-06-06T00:00:00	2024-11-08T08:00:00	6	Velocidad del viento	3.2
27950	7	Sololá	701	Sololá	1	Sololá	6	Junio	2023-06-06T00:00:00	2024-11-08T08:00:00	7	Dirección del viento	3.22
27951	7	Sololá	701	Sololá	1	Sololá	6	Junio	2023-06-06T00:00:00	2024-11-08T08:00:00	1	Precipitación	0
27952	7	Sololá	701	Sololá	1	Sololá	6	Junio	2023-06-06T00:00:00	2024-11-08T08:00:00	8	Radiación solar	152
27953	7	Sololá	701	Sololá	1	Sololá	6	Junio	2023-06-06T00:00:00	2024-11-08T09:00:00	2	Temperatura media	20.1
27954	7	Sololá	701	Sololá	1	Sololá	6	Junio	2023-06-06T00:00:00	2024-11-08T09:00:00	4	Temperatura máxima	20.1
27955	7	Sololá	701	Sololá	1	Sololá	6	Junio	2023-06-06T00:00:00	2024-11-08T09:00:00	3	Temperatura mínima	17.6
27956	7	Sololá	701	Sololá	1	Sololá	6	Junio	2023-06-06T00:00:00	2024-11-08T09:00:00	5	Humedad	71
27957	7	Sololá	701	Sololá	1	Sololá	6	Junio	2023-06-06T00:00:00	2024-11-08T09:00:00	6	Velocidad del viento	3.2
27958	7	Sololá	701	Sololá	1	Sololá	6	Junio	2023-06-06T00:00:00	2024-11-08T09:00:00	7	Dirección del viento	3.22
27959	7	Sololá	701	Sololá	1	Sololá	6	Junio	2023-06-06T00:00:00	2024-11-08T09:00:00	1	Precipitación	0
27960	7	Sololá	701	Sololá	1	Sololá	6	Junio	2023-06-06T00:00:00	2024-11-08T09:00:00	8	Radiación solar	206
27961	7	Sololá	701	Sololá	1	Sololá	6	Junio	2023-06-06T00:00:00	2024-11-08T10:00:00	2	Temperatura media	20.5
27962	7	Sololá	701	Sololá	1	Sololá	6	Junio	2023-06-06T00:00:00	2024-11-08T10:00:00	4	Temperatura máxima	20.5
27963	7	Sololá	701	Sololá	1	Sololá	6	Junio	2023-06-06T00:00:00	2024-11-08T10:00:00	3	Temperatura mínima	19.6
27964	7	Sololá	701	Sololá	1	Sololá	6	Junio	2023-06-06T00:00:00	2024-11-08T10:00:00	5	Humedad	63
27965	7	Sololá	701	Sololá	1	Sololá	6	Junio	2023-06-06T00:00:00	2024-11-08T10:00:00	6	Velocidad del viento	3.2
27966	7	Sololá	701	Sololá	1	Sololá	6	Junio	2023-06-06T00:00:00	2024-11-08T10:00:00	7	Dirección del viento	3.22
27967	7	Sololá	701	Sololá	1	Sololá	6	Junio	2023-06-06T00:00:00	2024-11-08T10:00:00	1	Precipitación	0
27968	7	Sololá	701	Sololá	1	Sololá	6	Junio	2023-06-06T00:00:00	2024-11-08T10:00:00	8	Radiación solar	239
27969	7	Sololá	701	Sololá	1	Sololá	6	Junio	2023-06-06T00:00:00	2024-11-08T11:00:00	2	Temperatura media	20.8
27970	7	Sololá	701	Sololá	1	Sololá	6	Junio	2023-06-06T00:00:00	2024-11-08T11:00:00	4	Temperatura máxima	20.8
27971	7	Sololá	701	Sololá	1	Sololá	6	Junio	2023-06-06T00:00:00	2024-11-08T11:00:00	3	Temperatura mínima	20.3
27972	7	Sololá	701	Sololá	1	Sololá	6	Junio	2023-06-06T00:00:00	2024-11-08T11:00:00	5	Humedad	64
27973	7	Sololá	701	Sololá	1	Sololá	6	Junio	2023-06-06T00:00:00	2024-11-08T11:00:00	6	Velocidad del viento	4.8
27974	7	Sololá	701	Sololá	1	Sololá	6	Junio	2023-06-06T00:00:00	2024-11-08T11:00:00	7	Dirección del viento	4.83
27975	7	Sololá	701	Sololá	1	Sololá	6	Junio	2023-06-06T00:00:00	2024-11-08T11:00:00	1	Precipitación	0
27976	7	Sololá	701	Sololá	1	Sololá	6	Junio	2023-06-06T00:00:00	2024-11-08T11:00:00	8	Radiación solar	217
27977	7	Sololá	701	Sololá	1	Sololá	6	Junio	2023-06-06T00:00:00	2024-11-08T12:00:00	2	Temperatura media	19.8
27978	7	Sololá	701	Sololá	1	Sololá	6	Junio	2023-06-06T00:00:00	2024-11-08T12:00:00	4	Temperatura máxima	21.3
27979	7	Sololá	701	Sololá	1	Sololá	6	Junio	2023-06-06T00:00:00	2024-11-08T12:00:00	3	Temperatura mínima	19.8
27980	7	Sololá	701	Sololá	1	Sololá	6	Junio	2023-06-06T00:00:00	2024-11-08T12:00:00	5	Humedad	70
27981	7	Sololá	701	Sololá	1	Sololá	6	Junio	2023-06-06T00:00:00	2024-11-08T12:00:00	6	Velocidad del viento	4.8
27982	7	Sololá	701	Sololá	1	Sololá	6	Junio	2023-06-06T00:00:00	2024-11-08T12:00:00	7	Dirección del viento	4.83
27983	7	Sololá	701	Sololá	1	Sololá	6	Junio	2023-06-06T00:00:00	2024-11-08T12:00:00	1	Precipitación	0
27984	7	Sololá	701	Sololá	1	Sololá	6	Junio	2023-06-06T00:00:00	2024-11-08T12:00:00	8	Radiación solar	185
27985	7	Sololá	701	Sololá	1	Sololá	6	Junio	2023-06-06T00:00:00	2024-11-08T13:00:00	2	Temperatura media	18.6
27986	7	Sololá	701	Sololá	1	Sololá	6	Junio	2023-06-06T00:00:00	2024-11-08T13:00:00	4	Temperatura máxima	19.9
27987	7	Sololá	701	Sololá	1	Sololá	6	Junio	2023-06-06T00:00:00	2024-11-08T13:00:00	3	Temperatura mínima	18.5
27988	7	Sololá	701	Sololá	1	Sololá	6	Junio	2023-06-06T00:00:00	2024-11-08T13:00:00	5	Humedad	79
27989	7	Sololá	701	Sololá	1	Sololá	6	Junio	2023-06-06T00:00:00	2024-11-08T13:00:00	6	Velocidad del viento	3.2
27990	7	Sololá	701	Sololá	1	Sololá	6	Junio	2023-06-06T00:00:00	2024-11-08T13:00:00	7	Dirección del viento	3.22
27991	7	Sololá	701	Sololá	1	Sololá	6	Junio	2023-06-06T00:00:00	2024-11-08T13:00:00	1	Precipitación	0
27992	7	Sololá	701	Sololá	1	Sololá	6	Junio	2023-06-06T00:00:00	2024-11-08T13:00:00	8	Radiación solar	79
27993	7	Sololá	701	Sololá	1	Sololá	6	Junio	2023-06-06T00:00:00	2024-11-08T14:00:00	2	Temperatura media	18.4
27994	7	Sololá	701	Sololá	1	Sololá	6	Junio	2023-06-06T00:00:00	2024-11-08T14:00:00	4	Temperatura máxima	18.6
27995	7	Sololá	701	Sololá	1	Sololá	6	Junio	2023-06-06T00:00:00	2024-11-08T14:00:00	3	Temperatura mínima	18.1
27996	7	Sololá	701	Sololá	1	Sololá	6	Junio	2023-06-06T00:00:00	2024-11-08T14:00:00	5	Humedad	75
27997	7	Sololá	701	Sololá	1	Sololá	6	Junio	2023-06-06T00:00:00	2024-11-08T14:00:00	6	Velocidad del viento	3.2
27998	7	Sololá	701	Sololá	1	Sololá	6	Junio	2023-06-06T00:00:00	2024-11-08T14:00:00	7	Dirección del viento	3.22
27999	7	Sololá	701	Sololá	1	Sololá	6	Junio	2023-06-06T00:00:00	2024-11-08T14:00:00	1	Precipitación	0
28000	7	Sololá	701	Sololá	1	Sololá	6	Junio	2023-06-06T00:00:00	2024-11-08T14:00:00	8	Radiación solar	55
28001	7	Sololá	701	Sololá	1	Sololá	6	Junio	2023-06-06T00:00:00	2024-11-08T15:00:00	2	Temperatura media	18.3
28002	7	Sololá	701	Sololá	1	Sololá	6	Junio	2023-06-06T00:00:00	2024-11-08T15:00:00	4	Temperatura máxima	18.8
28003	7	Sololá	701	Sololá	1	Sololá	6	Junio	2023-06-06T00:00:00	2024-11-08T15:00:00	3	Temperatura mínima	18.2
28004	7	Sololá	701	Sololá	1	Sololá	6	Junio	2023-06-06T00:00:00	2024-11-08T15:00:00	5	Humedad	76
28005	7	Sololá	701	Sololá	1	Sololá	6	Junio	2023-06-06T00:00:00	2024-11-08T15:00:00	6	Velocidad del viento	1.6
28006	7	Sololá	701	Sololá	1	Sololá	6	Junio	2023-06-06T00:00:00	2024-11-08T15:00:00	7	Dirección del viento	1.61
28007	7	Sololá	701	Sololá	1	Sololá	6	Junio	2023-06-06T00:00:00	2024-11-08T15:00:00	1	Precipitación	0
28008	7	Sololá	701	Sololá	1	Sololá	6	Junio	2023-06-06T00:00:00	2024-11-08T15:00:00	8	Radiación solar	80
28009	7	Sololá	701	Sololá	1	Sololá	6	Junio	2023-06-06T00:00:00	2024-11-08T16:00:00	2	Temperatura media	18.1
28010	7	Sololá	701	Sololá	1	Sololá	6	Junio	2023-06-06T00:00:00	2024-11-08T16:00:00	4	Temperatura máxima	18.8
28011	7	Sololá	701	Sololá	1	Sololá	6	Junio	2023-06-06T00:00:00	2024-11-08T16:00:00	3	Temperatura mínima	18.1
28012	7	Sololá	701	Sololá	1	Sololá	6	Junio	2023-06-06T00:00:00	2024-11-08T16:00:00	5	Humedad	86
28013	7	Sololá	701	Sololá	1	Sololá	6	Junio	2023-06-06T00:00:00	2024-11-08T16:00:00	6	Velocidad del viento	1.6
28014	7	Sololá	701	Sololá	1	Sololá	6	Junio	2023-06-06T00:00:00	2024-11-08T16:00:00	7	Dirección del viento	1.61
28015	7	Sololá	701	Sololá	1	Sololá	6	Junio	2023-06-06T00:00:00	2024-11-08T16:00:00	1	Precipitación	0
28016	7	Sololá	701	Sololá	1	Sololá	6	Junio	2023-06-06T00:00:00	2024-11-08T16:00:00	8	Radiación solar	31
28017	7	Sololá	701	Sololá	1	Sololá	6	Junio	2023-06-06T00:00:00	2024-11-08T17:00:00	2	Temperatura media	18.4
28018	7	Sololá	701	Sololá	1	Sololá	6	Junio	2023-06-06T00:00:00	2024-11-08T17:00:00	4	Temperatura máxima	18.6
28019	7	Sololá	701	Sololá	1	Sololá	6	Junio	2023-06-06T00:00:00	2024-11-08T17:00:00	3	Temperatura mínima	18.1
28020	7	Sololá	701	Sololá	1	Sololá	6	Junio	2023-06-06T00:00:00	2024-11-08T17:00:00	5	Humedad	86
28021	7	Sololá	701	Sololá	1	Sololá	6	Junio	2023-06-06T00:00:00	2024-11-08T17:00:00	6	Velocidad del viento	1.6
28022	7	Sololá	701	Sololá	1	Sololá	6	Junio	2023-06-06T00:00:00	2024-11-08T17:00:00	7	Dirección del viento	1.61
28023	7	Sololá	701	Sololá	1	Sololá	6	Junio	2023-06-06T00:00:00	2024-11-08T17:00:00	1	Precipitación	0
28024	7	Sololá	701	Sololá	1	Sololá	6	Junio	2023-06-06T00:00:00	2024-11-08T17:00:00	8	Radiación solar	42
28025	7	Sololá	701	Sololá	1	Sololá	6	Junio	2023-06-06T00:00:00	2024-11-08T18:00:00	2	Temperatura media	18.1
28026	7	Sololá	701	Sololá	1	Sololá	6	Junio	2023-06-06T00:00:00	2024-11-08T18:00:00	4	Temperatura máxima	18.7
28027	7	Sololá	701	Sololá	1	Sololá	6	Junio	2023-06-06T00:00:00	2024-11-08T18:00:00	3	Temperatura mínima	18.1
28028	7	Sololá	701	Sololá	1	Sololá	6	Junio	2023-06-06T00:00:00	2024-11-08T18:00:00	5	Humedad	75
28029	7	Sololá	701	Sololá	1	Sololá	6	Junio	2023-06-06T00:00:00	2024-11-08T18:00:00	6	Velocidad del viento	3.2
28030	7	Sololá	701	Sololá	1	Sololá	6	Junio	2023-06-06T00:00:00	2024-11-08T18:00:00	7	Dirección del viento	3.22
28031	7	Sololá	701	Sololá	1	Sololá	6	Junio	2023-06-06T00:00:00	2024-11-08T18:00:00	1	Precipitación	0
28032	7	Sololá	701	Sololá	1	Sololá	6	Junio	2023-06-06T00:00:00	2024-11-08T18:00:00	8	Radiación solar	19
28033	7	Sololá	701	Sololá	1	Sololá	6	Junio	2023-06-06T00:00:00	2024-11-08T19:00:00	2	Temperatura media	16.8
28034	7	Sololá	701	Sololá	1	Sololá	6	Junio	2023-06-06T00:00:00	2024-11-08T19:00:00	4	Temperatura máxima	18.1
28035	7	Sololá	701	Sololá	1	Sololá	6	Junio	2023-06-06T00:00:00	2024-11-08T19:00:00	3	Temperatura mínima	16.8
28036	7	Sololá	701	Sololá	1	Sololá	6	Junio	2023-06-06T00:00:00	2024-11-08T19:00:00	5	Humedad	72
28037	7	Sololá	701	Sololá	1	Sololá	6	Junio	2023-06-06T00:00:00	2024-11-08T19:00:00	6	Velocidad del viento	11.3
28038	7	Sololá	701	Sololá	1	Sololá	6	Junio	2023-06-06T00:00:00	2024-11-08T19:00:00	7	Dirección del viento	11.27
28039	7	Sololá	701	Sololá	1	Sololá	6	Junio	2023-06-06T00:00:00	2024-11-08T19:00:00	1	Precipitación	0
28040	7	Sololá	701	Sololá	1	Sololá	6	Junio	2023-06-06T00:00:00	2024-11-08T19:00:00	8	Radiación solar	0
28041	7	Sololá	701	Sololá	1	Sololá	6	Junio	2023-06-06T00:00:00	2024-11-08T20:00:00	2	Temperatura media	16.7
28042	7	Sololá	701	Sololá	1	Sololá	6	Junio	2023-06-06T00:00:00	2024-11-08T20:00:00	4	Temperatura máxima	16.9
28043	7	Sololá	701	Sololá	1	Sololá	6	Junio	2023-06-06T00:00:00	2024-11-08T20:00:00	3	Temperatura mínima	16.6
28044	7	Sololá	701	Sololá	1	Sololá	6	Junio	2023-06-06T00:00:00	2024-11-08T20:00:00	5	Humedad	75
28045	7	Sololá	701	Sololá	1	Sololá	6	Junio	2023-06-06T00:00:00	2024-11-08T20:00:00	6	Velocidad del viento	9.7
28046	7	Sololá	701	Sololá	1	Sololá	6	Junio	2023-06-06T00:00:00	2024-11-08T20:00:00	7	Dirección del viento	9.66
28047	7	Sololá	701	Sololá	1	Sololá	6	Junio	2023-06-06T00:00:00	2024-11-08T20:00:00	1	Precipitación	0
28048	7	Sololá	701	Sololá	1	Sololá	6	Junio	2023-06-06T00:00:00	2024-11-08T20:00:00	8	Radiación solar	0
28049	7	Sololá	701	Sololá	1	Sololá	6	Junio	2023-06-06T00:00:00	2024-11-08T21:00:00	2	Temperatura media	16.6
28050	7	Sololá	701	Sololá	1	Sololá	6	Junio	2023-06-06T00:00:00	2024-11-08T21:00:00	4	Temperatura máxima	16.9
28051	7	Sololá	701	Sololá	1	Sololá	6	Junio	2023-06-06T00:00:00	2024-11-08T21:00:00	3	Temperatura mínima	16.6
28052	7	Sololá	701	Sololá	1	Sololá	6	Junio	2023-06-06T00:00:00	2024-11-08T21:00:00	5	Humedad	76
28053	7	Sololá	701	Sololá	1	Sololá	6	Junio	2023-06-06T00:00:00	2024-11-08T21:00:00	6	Velocidad del viento	6.4
28054	7	Sololá	701	Sololá	1	Sololá	6	Junio	2023-06-06T00:00:00	2024-11-08T21:00:00	7	Dirección del viento	6.44
28055	7	Sololá	701	Sololá	1	Sololá	6	Junio	2023-06-06T00:00:00	2024-11-08T21:00:00	1	Precipitación	0
28056	7	Sololá	701	Sololá	1	Sololá	6	Junio	2023-06-06T00:00:00	2024-11-08T21:00:00	8	Radiación solar	0
28057	7	Sololá	701	Sololá	1	Sololá	6	Junio	2023-06-06T00:00:00	2024-11-08T22:00:00	2	Temperatura media	15.8
28058	7	Sololá	701	Sololá	1	Sololá	6	Junio	2023-06-06T00:00:00	2024-11-08T22:00:00	4	Temperatura máxima	16.7
28059	7	Sololá	701	Sololá	1	Sololá	6	Junio	2023-06-06T00:00:00	2024-11-08T22:00:00	3	Temperatura mínima	15.8
28060	7	Sololá	701	Sololá	1	Sololá	6	Junio	2023-06-06T00:00:00	2024-11-08T22:00:00	5	Humedad	80
28061	7	Sololá	701	Sololá	1	Sololá	6	Junio	2023-06-06T00:00:00	2024-11-08T22:00:00	6	Velocidad del viento	3.2
28062	7	Sololá	701	Sololá	1	Sololá	6	Junio	2023-06-06T00:00:00	2024-11-08T22:00:00	7	Dirección del viento	3.22
28063	7	Sololá	701	Sololá	1	Sololá	6	Junio	2023-06-06T00:00:00	2024-11-08T22:00:00	1	Precipitación	0
28064	7	Sololá	701	Sololá	1	Sololá	6	Junio	2023-06-06T00:00:00	2024-11-08T22:00:00	8	Radiación solar	0
28065	7	Sololá	701	Sololá	1	Sololá	6	Junio	2023-06-06T00:00:00	2024-11-08T23:00:00	2	Temperatura media	15.7
28066	7	Sololá	701	Sololá	1	Sololá	6	Junio	2023-06-06T00:00:00	2024-11-08T23:00:00	4	Temperatura máxima	16.1
28067	7	Sololá	701	Sololá	1	Sololá	6	Junio	2023-06-06T00:00:00	2024-11-08T23:00:00	3	Temperatura mínima	15.7
28068	7	Sololá	701	Sololá	1	Sololá	6	Junio	2023-06-06T00:00:00	2024-11-08T23:00:00	5	Humedad	82
28069	7	Sololá	701	Sololá	1	Sololá	6	Junio	2023-06-06T00:00:00	2024-11-08T23:00:00	6	Velocidad del viento	0
28070	7	Sololá	701	Sololá	1	Sololá	6	Junio	2023-06-06T00:00:00	2024-11-08T23:00:00	7	Dirección del viento	0
28071	7	Sololá	701	Sololá	1	Sololá	6	Junio	2023-06-06T00:00:00	2024-11-08T23:00:00	1	Precipitación	0
28072	7	Sololá	701	Sololá	1	Sololá	6	Junio	2023-06-06T00:00:00	2024-11-08T23:00:00	8	Radiación solar	0
28073	7	Sololá	701	Sololá	1	Sololá	6	Junio	2023-07-06T00:00:00	2024-11-08T00:00:00	2	Temperatura media	15.2
28074	7	Sololá	701	Sololá	1	Sololá	6	Junio	2023-07-06T00:00:00	2024-11-08T00:00:00	4	Temperatura máxima	15.7
28075	7	Sololá	701	Sololá	1	Sololá	6	Junio	2023-07-06T00:00:00	2024-11-08T00:00:00	3	Temperatura mínima	14.8
28076	7	Sololá	701	Sololá	1	Sololá	6	Junio	2023-07-06T00:00:00	2024-11-08T00:00:00	5	Humedad	82
28077	7	Sololá	701	Sololá	1	Sololá	6	Junio	2023-07-06T00:00:00	2024-11-08T00:00:00	6	Velocidad del viento	4.8
28078	7	Sololá	701	Sololá	1	Sololá	6	Junio	2023-07-06T00:00:00	2024-11-08T00:00:00	7	Dirección del viento	4.83
28079	7	Sololá	701	Sololá	1	Sololá	6	Junio	2023-07-06T00:00:00	2024-11-08T00:00:00	1	Precipitación	0
28080	7	Sololá	701	Sololá	1	Sololá	6	Junio	2023-07-06T00:00:00	2024-11-08T00:00:00	8	Radiación solar	0
28081	7	Sololá	701	Sololá	1	Sololá	6	Junio	2023-07-06T00:00:00	2024-11-08T01:00:00	2	Temperatura media	15.2
28082	7	Sololá	701	Sololá	1	Sololá	6	Junio	2023-07-06T00:00:00	2024-11-08T01:00:00	4	Temperatura máxima	15.6
28083	7	Sololá	701	Sololá	1	Sololá	6	Junio	2023-07-06T00:00:00	2024-11-08T01:00:00	3	Temperatura mínima	15.2
28084	7	Sololá	701	Sololá	1	Sololá	6	Junio	2023-07-06T00:00:00	2024-11-08T01:00:00	5	Humedad	83
28085	7	Sololá	701	Sololá	1	Sololá	6	Junio	2023-07-06T00:00:00	2024-11-08T01:00:00	6	Velocidad del viento	1.6
28086	7	Sololá	701	Sololá	1	Sololá	6	Junio	2023-07-06T00:00:00	2024-11-08T01:00:00	7	Dirección del viento	1.61
28087	7	Sololá	701	Sololá	1	Sololá	6	Junio	2023-07-06T00:00:00	2024-11-08T01:00:00	1	Precipitación	0
28088	7	Sololá	701	Sololá	1	Sololá	6	Junio	2023-07-06T00:00:00	2024-11-08T01:00:00	8	Radiación solar	0
28089	7	Sololá	701	Sololá	1	Sololá	6	Junio	2023-07-06T00:00:00	2024-11-08T02:00:00	2	Temperatura media	14.8
28090	7	Sololá	701	Sololá	1	Sololá	6	Junio	2023-07-06T00:00:00	2024-11-08T02:00:00	4	Temperatura máxima	15.4
28091	7	Sololá	701	Sololá	1	Sololá	6	Junio	2023-07-06T00:00:00	2024-11-08T02:00:00	3	Temperatura mínima	14.8
28092	7	Sololá	701	Sololá	1	Sololá	6	Junio	2023-07-06T00:00:00	2024-11-08T02:00:00	5	Humedad	83
28093	7	Sololá	701	Sololá	1	Sololá	6	Junio	2023-07-06T00:00:00	2024-11-08T02:00:00	6	Velocidad del viento	1.6
28094	7	Sololá	701	Sololá	1	Sololá	6	Junio	2023-07-06T00:00:00	2024-11-08T02:00:00	7	Dirección del viento	1.61
28095	7	Sololá	701	Sololá	1	Sololá	6	Junio	2023-07-06T00:00:00	2024-11-08T02:00:00	1	Precipitación	0
28096	7	Sololá	701	Sololá	1	Sololá	6	Junio	2023-07-06T00:00:00	2024-11-08T02:00:00	8	Radiación solar	0
28097	7	Sololá	701	Sololá	1	Sololá	6	Junio	2023-07-06T00:00:00	2024-11-08T03:00:00	2	Temperatura media	13.9
28098	7	Sololá	701	Sololá	1	Sololá	6	Junio	2023-07-06T00:00:00	2024-11-08T03:00:00	4	Temperatura máxima	14.8
28099	7	Sololá	701	Sololá	1	Sololá	6	Junio	2023-07-06T00:00:00	2024-11-08T03:00:00	3	Temperatura mínima	13.9
28100	7	Sololá	701	Sololá	1	Sololá	6	Junio	2023-07-06T00:00:00	2024-11-08T03:00:00	5	Humedad	86
28101	7	Sololá	701	Sololá	1	Sololá	6	Junio	2023-07-06T00:00:00	2024-11-08T03:00:00	6	Velocidad del viento	1.6
28102	7	Sololá	701	Sololá	1	Sololá	6	Junio	2023-07-06T00:00:00	2024-11-08T03:00:00	7	Dirección del viento	1.61
28103	7	Sololá	701	Sololá	1	Sololá	6	Junio	2023-07-06T00:00:00	2024-11-08T03:00:00	1	Precipitación	0
28104	7	Sololá	701	Sololá	1	Sololá	6	Junio	2023-07-06T00:00:00	2024-11-08T03:00:00	8	Radiación solar	0
28105	7	Sololá	701	Sololá	1	Sololá	6	Junio	2023-07-06T00:00:00	2024-11-08T04:00:00	2	Temperatura media	13.9
28106	7	Sololá	701	Sololá	1	Sololá	6	Junio	2023-07-06T00:00:00	2024-11-08T04:00:00	4	Temperatura máxima	14.6
28107	7	Sololá	701	Sololá	1	Sololá	6	Junio	2023-07-06T00:00:00	2024-11-08T04:00:00	3	Temperatura mínima	13.7
28108	7	Sololá	701	Sololá	1	Sololá	6	Junio	2023-07-06T00:00:00	2024-11-08T04:00:00	5	Humedad	84
28109	7	Sololá	701	Sololá	1	Sololá	6	Junio	2023-07-06T00:00:00	2024-11-08T04:00:00	6	Velocidad del viento	3.2
28110	7	Sololá	701	Sololá	1	Sololá	6	Junio	2023-07-06T00:00:00	2024-11-08T04:00:00	7	Dirección del viento	3.22
28111	7	Sololá	701	Sololá	1	Sololá	6	Junio	2023-07-06T00:00:00	2024-11-08T04:00:00	1	Precipitación	0
28112	7	Sololá	701	Sololá	1	Sololá	6	Junio	2023-07-06T00:00:00	2024-11-08T04:00:00	8	Radiación solar	0
28113	7	Sololá	701	Sololá	1	Sololá	6	Junio	2023-07-06T00:00:00	2024-11-08T05:00:00	2	Temperatura media	12.9
28114	7	Sololá	701	Sololá	1	Sololá	6	Junio	2023-07-06T00:00:00	2024-11-08T05:00:00	4	Temperatura máxima	14.4
28115	7	Sololá	701	Sololá	1	Sololá	6	Junio	2023-07-06T00:00:00	2024-11-08T05:00:00	3	Temperatura mínima	12.9
28116	7	Sololá	701	Sololá	1	Sololá	6	Junio	2023-07-06T00:00:00	2024-11-08T05:00:00	5	Humedad	87
28117	7	Sololá	701	Sololá	1	Sololá	6	Junio	2023-07-06T00:00:00	2024-11-08T05:00:00	6	Velocidad del viento	3.2
28118	7	Sololá	701	Sololá	1	Sololá	6	Junio	2023-07-06T00:00:00	2024-11-08T05:00:00	7	Dirección del viento	3.22
28119	7	Sololá	701	Sololá	1	Sololá	6	Junio	2023-07-06T00:00:00	2024-11-08T05:00:00	1	Precipitación	0
28120	7	Sololá	701	Sololá	1	Sololá	6	Junio	2023-07-06T00:00:00	2024-11-08T05:00:00	8	Radiación solar	0
28121	7	Sololá	701	Sololá	1	Sololá	6	Junio	2023-07-06T00:00:00	2024-11-08T06:00:00	2	Temperatura media	13.3
28122	7	Sololá	701	Sololá	1	Sololá	6	Junio	2023-07-06T00:00:00	2024-11-08T06:00:00	4	Temperatura máxima	13.3
28123	7	Sololá	701	Sololá	1	Sololá	6	Junio	2023-07-06T00:00:00	2024-11-08T06:00:00	3	Temperatura mínima	12.7
28124	7	Sololá	701	Sololá	1	Sololá	6	Junio	2023-07-06T00:00:00	2024-11-08T06:00:00	5	Humedad	85
28125	7	Sololá	701	Sololá	1	Sololá	6	Junio	2023-07-06T00:00:00	2024-11-08T06:00:00	6	Velocidad del viento	6.4
28126	7	Sololá	701	Sololá	1	Sololá	6	Junio	2023-07-06T00:00:00	2024-11-08T06:00:00	7	Dirección del viento	6.44
28127	7	Sololá	701	Sololá	1	Sololá	6	Junio	2023-07-06T00:00:00	2024-11-08T06:00:00	1	Precipitación	0
28128	7	Sololá	701	Sololá	1	Sololá	6	Junio	2023-07-06T00:00:00	2024-11-08T06:00:00	8	Radiación solar	3
28129	7	Sololá	701	Sololá	1	Sololá	6	Junio	2023-07-06T00:00:00	2024-11-08T07:00:00	2	Temperatura media	16.1
28130	7	Sololá	701	Sololá	1	Sololá	6	Junio	2023-07-06T00:00:00	2024-11-08T07:00:00	4	Temperatura máxima	16.1
28131	7	Sololá	701	Sololá	1	Sololá	6	Junio	2023-07-06T00:00:00	2024-11-08T07:00:00	3	Temperatura mínima	13.3
28132	7	Sololá	701	Sololá	1	Sololá	6	Junio	2023-07-06T00:00:00	2024-11-08T07:00:00	5	Humedad	79
28133	7	Sololá	701	Sololá	1	Sololá	6	Junio	2023-07-06T00:00:00	2024-11-08T07:00:00	6	Velocidad del viento	1.6
28134	7	Sololá	701	Sololá	1	Sololá	6	Junio	2023-07-06T00:00:00	2024-11-08T07:00:00	7	Dirección del viento	1.61
28135	7	Sololá	701	Sololá	1	Sololá	6	Junio	2023-07-06T00:00:00	2024-11-08T07:00:00	1	Precipitación	0
28136	7	Sololá	701	Sololá	1	Sololá	6	Junio	2023-07-06T00:00:00	2024-11-08T07:00:00	8	Radiación solar	55
28137	7	Sololá	701	Sololá	1	Sololá	6	Junio	2023-07-06T00:00:00	2024-11-08T08:00:00	2	Temperatura media	17.3
28138	7	Sololá	701	Sololá	1	Sololá	6	Junio	2023-07-06T00:00:00	2024-11-08T08:00:00	4	Temperatura máxima	17.3
28139	7	Sololá	701	Sololá	1	Sololá	6	Junio	2023-07-06T00:00:00	2024-11-08T08:00:00	3	Temperatura mínima	16.1
28140	7	Sololá	701	Sololá	1	Sololá	6	Junio	2023-07-06T00:00:00	2024-11-08T08:00:00	5	Humedad	83
28141	7	Sololá	701	Sololá	1	Sololá	6	Junio	2023-07-06T00:00:00	2024-11-08T08:00:00	6	Velocidad del viento	1.6
28142	7	Sololá	701	Sololá	1	Sololá	6	Junio	2023-07-06T00:00:00	2024-11-08T08:00:00	7	Dirección del viento	1.61
28143	7	Sololá	701	Sololá	1	Sololá	6	Junio	2023-07-06T00:00:00	2024-11-08T08:00:00	1	Precipitación	0
28144	7	Sololá	701	Sololá	1	Sololá	6	Junio	2023-07-06T00:00:00	2024-11-08T08:00:00	8	Radiación solar	145
28145	7	Sololá	701	Sololá	1	Sololá	6	Junio	2023-07-06T00:00:00	2024-11-08T09:00:00	2	Temperatura media	17.9
28146	7	Sololá	701	Sololá	1	Sololá	6	Junio	2023-07-06T00:00:00	2024-11-08T09:00:00	4	Temperatura máxima	18.3
28147	7	Sololá	701	Sololá	1	Sololá	6	Junio	2023-07-06T00:00:00	2024-11-08T09:00:00	3	Temperatura mínima	17.2
28148	7	Sololá	701	Sololá	1	Sololá	6	Junio	2023-07-06T00:00:00	2024-11-08T09:00:00	5	Humedad	82
28149	7	Sololá	701	Sololá	1	Sololá	6	Junio	2023-07-06T00:00:00	2024-11-08T09:00:00	6	Velocidad del viento	1.6
28150	7	Sololá	701	Sololá	1	Sololá	6	Junio	2023-07-06T00:00:00	2024-11-08T09:00:00	7	Dirección del viento	1.61
28151	7	Sololá	701	Sololá	1	Sololá	6	Junio	2023-07-06T00:00:00	2024-11-08T09:00:00	1	Precipitación	0
28152	7	Sololá	701	Sololá	1	Sololá	6	Junio	2023-07-06T00:00:00	2024-11-08T09:00:00	8	Radiación solar	330
28153	7	Sololá	701	Sololá	1	Sololá	6	Junio	2023-07-06T00:00:00	2024-11-08T10:00:00	2	Temperatura media	19.4
28154	7	Sololá	701	Sololá	1	Sololá	6	Junio	2023-07-06T00:00:00	2024-11-08T10:00:00	4	Temperatura máxima	19.7
28155	7	Sololá	701	Sololá	1	Sololá	6	Junio	2023-07-06T00:00:00	2024-11-08T10:00:00	3	Temperatura mínima	17.9
28156	7	Sololá	701	Sololá	1	Sololá	6	Junio	2023-07-06T00:00:00	2024-11-08T10:00:00	5	Humedad	80
28157	7	Sololá	701	Sololá	1	Sololá	6	Junio	2023-07-06T00:00:00	2024-11-08T10:00:00	6	Velocidad del viento	3.2
28158	7	Sololá	701	Sololá	1	Sololá	6	Junio	2023-07-06T00:00:00	2024-11-08T10:00:00	7	Dirección del viento	3.22
28159	7	Sololá	701	Sololá	1	Sololá	6	Junio	2023-07-06T00:00:00	2024-11-08T10:00:00	1	Precipitación	0
28160	7	Sololá	701	Sololá	1	Sololá	6	Junio	2023-07-06T00:00:00	2024-11-08T10:00:00	8	Radiación solar	294
28161	7	Sololá	701	Sololá	1	Sololá	6	Junio	2023-07-06T00:00:00	2024-11-08T11:00:00	2	Temperatura media	20.8
28162	7	Sololá	701	Sololá	1	Sololá	6	Junio	2023-07-06T00:00:00	2024-11-08T11:00:00	4	Temperatura máxima	21.1
28163	7	Sololá	701	Sololá	1	Sololá	6	Junio	2023-07-06T00:00:00	2024-11-08T11:00:00	3	Temperatura mínima	19.4
28164	7	Sololá	701	Sololá	1	Sololá	6	Junio	2023-07-06T00:00:00	2024-11-08T11:00:00	5	Humedad	70
28165	7	Sololá	701	Sololá	1	Sololá	6	Junio	2023-07-06T00:00:00	2024-11-08T11:00:00	6	Velocidad del viento	6.4
28166	7	Sololá	701	Sololá	1	Sololá	6	Junio	2023-07-06T00:00:00	2024-11-08T11:00:00	7	Dirección del viento	6.44
28167	7	Sololá	701	Sololá	1	Sololá	6	Junio	2023-07-06T00:00:00	2024-11-08T11:00:00	1	Precipitación	0
28168	7	Sololá	701	Sololá	1	Sololá	6	Junio	2023-07-06T00:00:00	2024-11-08T11:00:00	8	Radiación solar	368
28169	7	Sololá	701	Sololá	1	Sololá	6	Junio	2023-07-06T00:00:00	2024-11-08T12:00:00	2	Temperatura media	21
28170	7	Sololá	701	Sololá	1	Sololá	6	Junio	2023-07-06T00:00:00	2024-11-08T12:00:00	4	Temperatura máxima	21.4
28171	7	Sololá	701	Sololá	1	Sololá	6	Junio	2023-07-06T00:00:00	2024-11-08T12:00:00	3	Temperatura mínima	20.7
28172	7	Sololá	701	Sololá	1	Sololá	6	Junio	2023-07-06T00:00:00	2024-11-08T12:00:00	5	Humedad	77
28173	7	Sololá	701	Sololá	1	Sololá	6	Junio	2023-07-06T00:00:00	2024-11-08T12:00:00	6	Velocidad del viento	6.4
28174	7	Sololá	701	Sololá	1	Sololá	6	Junio	2023-07-06T00:00:00	2024-11-08T12:00:00	7	Dirección del viento	6.44
28175	7	Sololá	701	Sololá	1	Sololá	6	Junio	2023-07-06T00:00:00	2024-11-08T12:00:00	1	Precipitación	0
28176	7	Sololá	701	Sololá	1	Sololá	6	Junio	2023-07-06T00:00:00	2024-11-08T12:00:00	8	Radiación solar	131
28177	7	Sololá	701	Sololá	1	Sololá	6	Junio	2023-07-06T00:00:00	2024-11-08T13:00:00	2	Temperatura media	19.5
28178	7	Sololá	701	Sololá	1	Sololá	6	Junio	2023-07-06T00:00:00	2024-11-08T13:00:00	4	Temperatura máxima	21.1
28179	7	Sololá	701	Sololá	1	Sololá	6	Junio	2023-07-06T00:00:00	2024-11-08T13:00:00	3	Temperatura mínima	19
28180	7	Sololá	701	Sololá	1	Sololá	6	Junio	2023-07-06T00:00:00	2024-11-08T13:00:00	5	Humedad	80
28181	7	Sololá	701	Sololá	1	Sololá	6	Junio	2023-07-06T00:00:00	2024-11-08T13:00:00	6	Velocidad del viento	6.4
28182	7	Sololá	701	Sololá	1	Sololá	6	Junio	2023-07-06T00:00:00	2024-11-08T13:00:00	7	Dirección del viento	6.44
28183	7	Sololá	701	Sololá	1	Sololá	6	Junio	2023-07-06T00:00:00	2024-11-08T13:00:00	1	Precipitación	0
28184	7	Sololá	701	Sololá	1	Sololá	6	Junio	2023-07-06T00:00:00	2024-11-08T13:00:00	8	Radiación solar	184
28185	7	Sololá	701	Sololá	1	Sololá	6	Junio	2023-07-06T00:00:00	2024-11-08T14:00:00	2	Temperatura media	18.1
28186	7	Sololá	701	Sololá	1	Sololá	6	Junio	2023-07-06T00:00:00	2024-11-08T14:00:00	4	Temperatura máxima	21.1
28187	7	Sololá	701	Sololá	1	Sololá	6	Junio	2023-07-06T00:00:00	2024-11-08T14:00:00	3	Temperatura mínima	17.7
28188	7	Sololá	701	Sololá	1	Sololá	6	Junio	2023-07-06T00:00:00	2024-11-08T14:00:00	5	Humedad	89
28189	7	Sololá	701	Sololá	1	Sololá	6	Junio	2023-07-06T00:00:00	2024-11-08T14:00:00	6	Velocidad del viento	3.2
28190	7	Sololá	701	Sololá	1	Sololá	6	Junio	2023-07-06T00:00:00	2024-11-08T14:00:00	7	Dirección del viento	3.22
28191	7	Sololá	701	Sololá	1	Sololá	6	Junio	2023-07-06T00:00:00	2024-11-08T14:00:00	1	Precipitación	0
28192	7	Sololá	701	Sololá	1	Sololá	6	Junio	2023-07-06T00:00:00	2024-11-08T14:00:00	8	Radiación solar	168
28193	7	Sololá	701	Sololá	1	Sololá	6	Junio	2023-07-06T00:00:00	2024-11-08T15:00:00	2	Temperatura media	18
28194	7	Sololá	701	Sololá	1	Sololá	6	Junio	2023-07-06T00:00:00	2024-11-08T15:00:00	4	Temperatura máxima	18.7
28195	7	Sololá	701	Sololá	1	Sololá	6	Junio	2023-07-06T00:00:00	2024-11-08T15:00:00	3	Temperatura mínima	17.8
28196	7	Sololá	701	Sololá	1	Sololá	6	Junio	2023-07-06T00:00:00	2024-11-08T15:00:00	5	Humedad	93
28197	7	Sololá	701	Sololá	1	Sololá	6	Junio	2023-07-06T00:00:00	2024-11-08T15:00:00	6	Velocidad del viento	3.2
28198	7	Sololá	701	Sololá	1	Sololá	6	Junio	2023-07-06T00:00:00	2024-11-08T15:00:00	7	Dirección del viento	3.22
28199	7	Sololá	701	Sololá	1	Sololá	6	Junio	2023-07-06T00:00:00	2024-11-08T15:00:00	1	Precipitación	0
28200	7	Sololá	701	Sololá	1	Sololá	6	Junio	2023-07-06T00:00:00	2024-11-08T15:00:00	8	Radiación solar	45
28201	7	Sololá	701	Sololá	1	Sololá	6	Junio	2023-07-06T00:00:00	2024-11-08T16:00:00	2	Temperatura media	17.8
28202	7	Sololá	701	Sololá	1	Sololá	6	Junio	2023-07-06T00:00:00	2024-11-08T16:00:00	4	Temperatura máxima	18.2
28203	7	Sololá	701	Sololá	1	Sololá	6	Junio	2023-07-06T00:00:00	2024-11-08T16:00:00	3	Temperatura mínima	17.4
28204	7	Sololá	701	Sololá	1	Sololá	6	Junio	2023-07-06T00:00:00	2024-11-08T16:00:00	5	Humedad	92
28205	7	Sololá	701	Sololá	1	Sololá	6	Junio	2023-07-06T00:00:00	2024-11-08T16:00:00	6	Velocidad del viento	1.6
28206	7	Sololá	701	Sololá	1	Sololá	6	Junio	2023-07-06T00:00:00	2024-11-08T16:00:00	7	Dirección del viento	1.61
28207	7	Sololá	701	Sololá	1	Sololá	6	Junio	2023-07-06T00:00:00	2024-11-08T16:00:00	1	Precipitación	0
28208	7	Sololá	701	Sololá	1	Sololá	6	Junio	2023-07-06T00:00:00	2024-11-08T16:00:00	8	Radiación solar	82
28209	7	Sololá	701	Sololá	1	Sololá	6	Junio	2023-07-06T00:00:00	2024-11-08T17:00:00	2	Temperatura media	17.9
28210	7	Sololá	701	Sololá	1	Sololá	6	Junio	2023-07-06T00:00:00	2024-11-08T17:00:00	4	Temperatura máxima	18.2
28211	7	Sololá	701	Sololá	1	Sololá	6	Junio	2023-07-06T00:00:00	2024-11-08T17:00:00	3	Temperatura mínima	17.7
28212	7	Sololá	701	Sololá	1	Sololá	6	Junio	2023-07-06T00:00:00	2024-11-08T17:00:00	5	Humedad	90
28213	7	Sololá	701	Sololá	1	Sololá	6	Junio	2023-07-06T00:00:00	2024-11-08T17:00:00	6	Velocidad del viento	1.6
28214	7	Sololá	701	Sololá	1	Sololá	6	Junio	2023-07-06T00:00:00	2024-11-08T17:00:00	7	Dirección del viento	1.61
28215	7	Sololá	701	Sololá	1	Sololá	6	Junio	2023-07-06T00:00:00	2024-11-08T17:00:00	1	Precipitación	0
28216	7	Sololá	701	Sololá	1	Sololá	6	Junio	2023-07-06T00:00:00	2024-11-08T17:00:00	8	Radiación solar	99
28217	7	Sololá	701	Sololá	1	Sololá	6	Junio	2023-07-06T00:00:00	2024-11-08T18:00:00	2	Temperatura media	17.4
28218	7	Sololá	701	Sololá	1	Sololá	6	Junio	2023-07-06T00:00:00	2024-11-08T18:00:00	4	Temperatura máxima	17.9
28219	7	Sololá	701	Sololá	1	Sololá	6	Junio	2023-07-06T00:00:00	2024-11-08T18:00:00	3	Temperatura mínima	17.4
28220	7	Sololá	701	Sololá	1	Sololá	6	Junio	2023-07-06T00:00:00	2024-11-08T18:00:00	5	Humedad	91
28221	7	Sololá	701	Sololá	1	Sololá	6	Junio	2023-07-06T00:00:00	2024-11-08T18:00:00	6	Velocidad del viento	1.6
28222	7	Sololá	701	Sololá	1	Sololá	6	Junio	2023-07-06T00:00:00	2024-11-08T18:00:00	7	Dirección del viento	1.61
28223	7	Sololá	701	Sololá	1	Sololá	6	Junio	2023-07-06T00:00:00	2024-11-08T18:00:00	1	Precipitación	0
28224	7	Sololá	701	Sololá	1	Sololá	6	Junio	2023-07-06T00:00:00	2024-11-08T18:00:00	8	Radiación solar	29
28225	7	Sololá	701	Sololá	1	Sololá	6	Junio	2023-07-06T00:00:00	2024-11-08T19:00:00	2	Temperatura media	16.9
28226	7	Sololá	701	Sololá	1	Sololá	6	Junio	2023-07-06T00:00:00	2024-11-08T19:00:00	4	Temperatura máxima	17.7
28227	7	Sololá	701	Sololá	1	Sololá	6	Junio	2023-07-06T00:00:00	2024-11-08T19:00:00	3	Temperatura mínima	16.9
28228	7	Sololá	701	Sololá	1	Sololá	6	Junio	2023-07-06T00:00:00	2024-11-08T19:00:00	5	Humedad	93
28229	7	Sololá	701	Sololá	1	Sololá	6	Junio	2023-07-06T00:00:00	2024-11-08T19:00:00	6	Velocidad del viento	1.6
28230	7	Sololá	701	Sololá	1	Sololá	6	Junio	2023-07-06T00:00:00	2024-11-08T19:00:00	7	Dirección del viento	1.61
28231	7	Sololá	701	Sololá	1	Sololá	6	Junio	2023-07-06T00:00:00	2024-11-08T19:00:00	1	Precipitación	0
28232	7	Sololá	701	Sololá	1	Sololá	6	Junio	2023-07-06T00:00:00	2024-11-08T19:00:00	8	Radiación solar	0
28233	7	Sololá	701	Sololá	1	Sololá	6	Junio	2023-07-06T00:00:00	2024-11-08T20:00:00	2	Temperatura media	17.1
28234	7	Sololá	701	Sololá	1	Sololá	6	Junio	2023-07-06T00:00:00	2024-11-08T20:00:00	4	Temperatura máxima	17.2
28235	7	Sololá	701	Sololá	1	Sololá	6	Junio	2023-07-06T00:00:00	2024-11-08T20:00:00	3	Temperatura mínima	16.8
28236	7	Sololá	701	Sololá	1	Sololá	6	Junio	2023-07-06T00:00:00	2024-11-08T20:00:00	5	Humedad	93
28237	7	Sololá	701	Sololá	1	Sololá	6	Junio	2023-07-06T00:00:00	2024-11-08T20:00:00	6	Velocidad del viento	0
28238	7	Sololá	701	Sololá	1	Sololá	6	Junio	2023-07-06T00:00:00	2024-11-08T20:00:00	7	Dirección del viento	0
28239	7	Sololá	701	Sololá	1	Sololá	6	Junio	2023-07-06T00:00:00	2024-11-08T20:00:00	1	Precipitación	0
28240	7	Sololá	701	Sololá	1	Sololá	6	Junio	2023-07-06T00:00:00	2024-11-08T20:00:00	8	Radiación solar	0
28241	7	Sololá	701	Sololá	1	Sololá	6	Junio	2023-07-06T00:00:00	2024-11-08T21:00:00	2	Temperatura media	16.7
28242	7	Sololá	701	Sololá	1	Sololá	6	Junio	2023-07-06T00:00:00	2024-11-08T21:00:00	4	Temperatura máxima	17.1
28243	7	Sololá	701	Sololá	1	Sololá	6	Junio	2023-07-06T00:00:00	2024-11-08T21:00:00	3	Temperatura mínima	16.7
28244	7	Sololá	701	Sololá	1	Sololá	6	Junio	2023-07-06T00:00:00	2024-11-08T21:00:00	5	Humedad	94
28245	7	Sololá	701	Sololá	1	Sololá	6	Junio	2023-07-06T00:00:00	2024-11-08T21:00:00	6	Velocidad del viento	0
28246	7	Sololá	701	Sololá	1	Sololá	6	Junio	2023-07-06T00:00:00	2024-11-08T21:00:00	7	Dirección del viento	0
28247	7	Sololá	701	Sololá	1	Sololá	6	Junio	2023-07-06T00:00:00	2024-11-08T21:00:00	1	Precipitación	0
28248	7	Sololá	701	Sololá	1	Sololá	6	Junio	2023-07-06T00:00:00	2024-11-08T21:00:00	8	Radiación solar	0
28249	7	Sololá	701	Sololá	1	Sololá	6	Junio	2023-07-06T00:00:00	2024-11-08T22:00:00	2	Temperatura media	16.6
28250	7	Sololá	701	Sololá	1	Sololá	6	Junio	2023-07-06T00:00:00	2024-11-08T22:00:00	4	Temperatura máxima	16.8
28251	7	Sololá	701	Sololá	1	Sololá	6	Junio	2023-07-06T00:00:00	2024-11-08T22:00:00	3	Temperatura mínima	16.6
28252	7	Sololá	701	Sololá	1	Sololá	6	Junio	2023-07-06T00:00:00	2024-11-08T22:00:00	5	Humedad	95
28253	7	Sololá	701	Sololá	1	Sololá	6	Junio	2023-07-06T00:00:00	2024-11-08T22:00:00	6	Velocidad del viento	0
28254	7	Sololá	701	Sololá	1	Sololá	6	Junio	2023-07-06T00:00:00	2024-11-08T22:00:00	7	Dirección del viento	0
28255	7	Sololá	701	Sololá	1	Sololá	6	Junio	2023-07-06T00:00:00	2024-11-08T22:00:00	1	Precipitación	0
28256	7	Sololá	701	Sololá	1	Sololá	6	Junio	2023-07-06T00:00:00	2024-11-08T22:00:00	8	Radiación solar	0
28257	7	Sololá	701	Sololá	1	Sololá	6	Junio	2023-07-06T00:00:00	2024-11-08T23:00:00	2	Temperatura media	16.2
28258	7	Sololá	701	Sololá	1	Sololá	6	Junio	2023-07-06T00:00:00	2024-11-08T23:00:00	4	Temperatura máxima	16.6
28259	7	Sololá	701	Sololá	1	Sololá	6	Junio	2023-07-06T00:00:00	2024-11-08T23:00:00	3	Temperatura mínima	16.2
28260	7	Sololá	701	Sololá	1	Sololá	6	Junio	2023-07-06T00:00:00	2024-11-08T23:00:00	5	Humedad	95
28261	7	Sololá	701	Sololá	1	Sololá	6	Junio	2023-07-06T00:00:00	2024-11-08T23:00:00	6	Velocidad del viento	1.6
28262	7	Sololá	701	Sololá	1	Sololá	6	Junio	2023-07-06T00:00:00	2024-11-08T23:00:00	7	Dirección del viento	1.61
28263	7	Sololá	701	Sololá	1	Sololá	6	Junio	2023-07-06T00:00:00	2024-11-08T23:00:00	1	Precipitación	0
28264	7	Sololá	701	Sololá	1	Sololá	6	Junio	2023-07-06T00:00:00	2024-11-08T23:00:00	8	Radiación solar	0
28265	7	Sololá	701	Sololá	1	Sololá	6	Junio	2023-08-06T00:00:00	2024-11-08T00:00:00	2	Temperatura media	15.9
28266	7	Sololá	701	Sololá	1	Sololá	6	Junio	2023-08-06T00:00:00	2024-11-08T00:00:00	4	Temperatura máxima	16.2
28267	7	Sololá	701	Sololá	1	Sololá	6	Junio	2023-08-06T00:00:00	2024-11-08T00:00:00	3	Temperatura mínima	15.9
28268	7	Sololá	701	Sololá	1	Sololá	6	Junio	2023-08-06T00:00:00	2024-11-08T00:00:00	5	Humedad	96
28269	7	Sololá	701	Sololá	1	Sololá	6	Junio	2023-08-06T00:00:00	2024-11-08T00:00:00	6	Velocidad del viento	1.6
28270	7	Sololá	701	Sololá	1	Sololá	6	Junio	2023-08-06T00:00:00	2024-11-08T00:00:00	7	Dirección del viento	1.61
28271	7	Sololá	701	Sololá	1	Sololá	6	Junio	2023-08-06T00:00:00	2024-11-08T00:00:00	1	Precipitación	0
28272	7	Sololá	701	Sololá	1	Sololá	6	Junio	2023-08-06T00:00:00	2024-11-08T00:00:00	8	Radiación solar	0
28273	7	Sololá	701	Sololá	1	Sololá	6	Junio	2023-08-06T00:00:00	2024-11-08T01:00:00	2	Temperatura media	15.9
28274	7	Sololá	701	Sololá	1	Sololá	6	Junio	2023-08-06T00:00:00	2024-11-08T01:00:00	4	Temperatura máxima	15.9
28275	7	Sololá	701	Sololá	1	Sololá	6	Junio	2023-08-06T00:00:00	2024-11-08T01:00:00	3	Temperatura mínima	15.7
28276	7	Sololá	701	Sololá	1	Sololá	6	Junio	2023-08-06T00:00:00	2024-11-08T01:00:00	5	Humedad	96
28277	7	Sololá	701	Sololá	1	Sololá	6	Junio	2023-08-06T00:00:00	2024-11-08T01:00:00	6	Velocidad del viento	0
28278	7	Sololá	701	Sololá	1	Sololá	6	Junio	2023-08-06T00:00:00	2024-11-08T01:00:00	7	Dirección del viento	0
28279	7	Sololá	701	Sololá	1	Sololá	6	Junio	2023-08-06T00:00:00	2024-11-08T01:00:00	1	Precipitación	0
28280	7	Sololá	701	Sololá	1	Sololá	6	Junio	2023-08-06T00:00:00	2024-11-08T01:00:00	8	Radiación solar	0
28281	7	Sololá	701	Sololá	1	Sololá	6	Junio	2023-08-06T00:00:00	2024-11-08T02:00:00	2	Temperatura media	15.1
28282	7	Sololá	701	Sololá	1	Sololá	6	Junio	2023-08-06T00:00:00	2024-11-08T02:00:00	4	Temperatura máxima	15.9
28283	7	Sololá	701	Sololá	1	Sololá	6	Junio	2023-08-06T00:00:00	2024-11-08T02:00:00	3	Temperatura mínima	15
28284	7	Sololá	701	Sololá	1	Sololá	6	Junio	2023-08-06T00:00:00	2024-11-08T02:00:00	5	Humedad	95
28285	7	Sololá	701	Sololá	1	Sololá	6	Junio	2023-08-06T00:00:00	2024-11-08T02:00:00	6	Velocidad del viento	0
28286	7	Sololá	701	Sololá	1	Sololá	6	Junio	2023-08-06T00:00:00	2024-11-08T02:00:00	7	Dirección del viento	0
28287	7	Sololá	701	Sololá	1	Sololá	6	Junio	2023-08-06T00:00:00	2024-11-08T02:00:00	1	Precipitación	0
28288	7	Sololá	701	Sololá	1	Sololá	6	Junio	2023-08-06T00:00:00	2024-11-08T02:00:00	8	Radiación solar	0
28289	7	Sololá	701	Sololá	1	Sololá	6	Junio	2023-08-06T00:00:00	2024-11-08T03:00:00	2	Temperatura media	14.7
28290	7	Sololá	701	Sololá	1	Sololá	6	Junio	2023-08-06T00:00:00	2024-11-08T03:00:00	4	Temperatura máxima	15.2
28291	7	Sololá	701	Sololá	1	Sololá	6	Junio	2023-08-06T00:00:00	2024-11-08T03:00:00	3	Temperatura mínima	14.7
28292	7	Sololá	701	Sololá	1	Sololá	6	Junio	2023-08-06T00:00:00	2024-11-08T03:00:00	5	Humedad	92
28293	7	Sololá	701	Sololá	1	Sololá	6	Junio	2023-08-06T00:00:00	2024-11-08T03:00:00	6	Velocidad del viento	0
28294	7	Sololá	701	Sololá	1	Sololá	6	Junio	2023-08-06T00:00:00	2024-11-08T03:00:00	7	Dirección del viento	0
28295	7	Sololá	701	Sololá	1	Sololá	6	Junio	2023-08-06T00:00:00	2024-11-08T03:00:00	1	Precipitación	0
28296	7	Sololá	701	Sololá	1	Sololá	6	Junio	2023-08-06T00:00:00	2024-11-08T03:00:00	8	Radiación solar	0
28297	7	Sololá	701	Sololá	1	Sololá	6	Junio	2023-08-06T00:00:00	2024-11-08T04:00:00	2	Temperatura media	13.9
28298	7	Sololá	701	Sololá	1	Sololá	6	Junio	2023-08-06T00:00:00	2024-11-08T04:00:00	4	Temperatura máxima	14.7
28299	7	Sololá	701	Sololá	1	Sololá	6	Junio	2023-08-06T00:00:00	2024-11-08T04:00:00	3	Temperatura mínima	13.9
28300	7	Sololá	701	Sololá	1	Sololá	6	Junio	2023-08-06T00:00:00	2024-11-08T04:00:00	5	Humedad	91
28301	7	Sololá	701	Sololá	1	Sololá	6	Junio	2023-08-06T00:00:00	2024-11-08T04:00:00	6	Velocidad del viento	1.6
28302	7	Sololá	701	Sololá	1	Sololá	6	Junio	2023-08-06T00:00:00	2024-11-08T04:00:00	7	Dirección del viento	1.61
28303	7	Sololá	701	Sololá	1	Sololá	6	Junio	2023-08-06T00:00:00	2024-11-08T04:00:00	1	Precipitación	0
28304	7	Sololá	701	Sololá	1	Sololá	6	Junio	2023-08-06T00:00:00	2024-11-08T04:00:00	8	Radiación solar	0
28305	7	Sololá	701	Sololá	1	Sololá	6	Junio	2023-08-06T00:00:00	2024-11-08T05:00:00	2	Temperatura media	13.4
28306	7	Sololá	701	Sololá	1	Sololá	6	Junio	2023-08-06T00:00:00	2024-11-08T05:00:00	4	Temperatura máxima	14
28307	7	Sololá	701	Sololá	1	Sololá	6	Junio	2023-08-06T00:00:00	2024-11-08T05:00:00	3	Temperatura mínima	13.4
28308	7	Sololá	701	Sololá	1	Sololá	6	Junio	2023-08-06T00:00:00	2024-11-08T05:00:00	5	Humedad	91
28309	7	Sololá	701	Sololá	1	Sololá	6	Junio	2023-08-06T00:00:00	2024-11-08T05:00:00	6	Velocidad del viento	1.6
28310	7	Sololá	701	Sololá	1	Sololá	6	Junio	2023-08-06T00:00:00	2024-11-08T05:00:00	7	Dirección del viento	1.61
28311	7	Sololá	701	Sololá	1	Sololá	6	Junio	2023-08-06T00:00:00	2024-11-08T05:00:00	1	Precipitación	0
28312	7	Sololá	701	Sololá	1	Sololá	6	Junio	2023-08-06T00:00:00	2024-11-08T05:00:00	8	Radiación solar	0
28313	7	Sololá	701	Sololá	1	Sololá	6	Junio	2023-08-06T00:00:00	2024-11-08T06:00:00	2	Temperatura media	13.4
28314	7	Sololá	701	Sololá	1	Sololá	6	Junio	2023-08-06T00:00:00	2024-11-08T06:00:00	4	Temperatura máxima	13.5
28315	7	Sololá	701	Sololá	1	Sololá	6	Junio	2023-08-06T00:00:00	2024-11-08T06:00:00	3	Temperatura mínima	13
28316	7	Sololá	701	Sololá	1	Sololá	6	Junio	2023-08-06T00:00:00	2024-11-08T06:00:00	5	Humedad	89
28317	7	Sololá	701	Sololá	1	Sololá	6	Junio	2023-08-06T00:00:00	2024-11-08T06:00:00	6	Velocidad del viento	4.8
28318	7	Sololá	701	Sololá	1	Sololá	6	Junio	2023-08-06T00:00:00	2024-11-08T06:00:00	7	Dirección del viento	4.83
28319	7	Sololá	701	Sololá	1	Sololá	6	Junio	2023-08-06T00:00:00	2024-11-08T06:00:00	1	Precipitación	0
28320	7	Sololá	701	Sololá	1	Sololá	6	Junio	2023-08-06T00:00:00	2024-11-08T06:00:00	8	Radiación solar	4
28321	7	Sololá	701	Sololá	1	Sololá	6	Junio	2023-08-06T00:00:00	2024-11-08T07:00:00	2	Temperatura media	15.4
28322	7	Sololá	701	Sololá	1	Sololá	6	Junio	2023-08-06T00:00:00	2024-11-08T07:00:00	4	Temperatura máxima	15.6
28323	7	Sololá	701	Sololá	1	Sololá	6	Junio	2023-08-06T00:00:00	2024-11-08T07:00:00	3	Temperatura mínima	13.4
28324	7	Sololá	701	Sololá	1	Sololá	6	Junio	2023-08-06T00:00:00	2024-11-08T07:00:00	5	Humedad	83
28325	7	Sololá	701	Sololá	1	Sololá	6	Junio	2023-08-06T00:00:00	2024-11-08T07:00:00	6	Velocidad del viento	1.6
28326	7	Sololá	701	Sololá	1	Sololá	6	Junio	2023-08-06T00:00:00	2024-11-08T07:00:00	7	Dirección del viento	1.61
28327	7	Sololá	701	Sololá	1	Sololá	6	Junio	2023-08-06T00:00:00	2024-11-08T07:00:00	1	Precipitación	0
28328	7	Sololá	701	Sololá	1	Sololá	6	Junio	2023-08-06T00:00:00	2024-11-08T07:00:00	8	Radiación solar	65
28329	7	Sololá	701	Sololá	1	Sololá	6	Junio	2023-08-06T00:00:00	2024-11-08T08:00:00	2	Temperatura media	17.8
28330	7	Sololá	701	Sololá	1	Sololá	6	Junio	2023-08-06T00:00:00	2024-11-08T08:00:00	4	Temperatura máxima	17.8
28331	7	Sololá	701	Sololá	1	Sololá	6	Junio	2023-08-06T00:00:00	2024-11-08T08:00:00	3	Temperatura mínima	15.3
28332	7	Sololá	701	Sololá	1	Sololá	6	Junio	2023-08-06T00:00:00	2024-11-08T08:00:00	5	Humedad	79
28333	7	Sololá	701	Sololá	1	Sololá	6	Junio	2023-08-06T00:00:00	2024-11-08T08:00:00	6	Velocidad del viento	3.2
28334	7	Sololá	701	Sololá	1	Sololá	6	Junio	2023-08-06T00:00:00	2024-11-08T08:00:00	7	Dirección del viento	3.22
28335	7	Sololá	701	Sololá	1	Sololá	6	Junio	2023-08-06T00:00:00	2024-11-08T08:00:00	1	Precipitación	0
28336	7	Sololá	701	Sololá	1	Sololá	6	Junio	2023-08-06T00:00:00	2024-11-08T08:00:00	8	Radiación solar	157
28337	7	Sololá	701	Sololá	1	Sololá	6	Junio	2023-08-06T00:00:00	2024-11-08T09:00:00	2	Temperatura media	19.4
28338	7	Sololá	701	Sololá	1	Sololá	6	Junio	2023-08-06T00:00:00	2024-11-08T09:00:00	4	Temperatura máxima	19.4
28339	7	Sololá	701	Sololá	1	Sololá	6	Junio	2023-08-06T00:00:00	2024-11-08T09:00:00	3	Temperatura mínima	17.8
28340	7	Sololá	701	Sololá	1	Sololá	6	Junio	2023-08-06T00:00:00	2024-11-08T09:00:00	5	Humedad	79
28341	7	Sololá	701	Sololá	1	Sololá	6	Junio	2023-08-06T00:00:00	2024-11-08T09:00:00	6	Velocidad del viento	1.6
28342	7	Sololá	701	Sololá	1	Sololá	6	Junio	2023-08-06T00:00:00	2024-11-08T09:00:00	7	Dirección del viento	1.61
28343	7	Sololá	701	Sololá	1	Sololá	6	Junio	2023-08-06T00:00:00	2024-11-08T09:00:00	1	Precipitación	0
28344	7	Sololá	701	Sololá	1	Sololá	6	Junio	2023-08-06T00:00:00	2024-11-08T09:00:00	8	Radiación solar	343
28345	7	Sololá	701	Sololá	1	Sololá	6	Junio	2023-08-06T00:00:00	2024-11-08T10:00:00	2	Temperatura media	21.1
28346	7	Sololá	701	Sololá	1	Sololá	6	Junio	2023-08-06T00:00:00	2024-11-08T10:00:00	4	Temperatura máxima	21.2
28347	7	Sololá	701	Sololá	1	Sololá	6	Junio	2023-08-06T00:00:00	2024-11-08T10:00:00	3	Temperatura mínima	19.4
28348	7	Sololá	701	Sololá	1	Sololá	6	Junio	2023-08-06T00:00:00	2024-11-08T10:00:00	5	Humedad	75
28349	7	Sololá	701	Sololá	1	Sololá	6	Junio	2023-08-06T00:00:00	2024-11-08T10:00:00	6	Velocidad del viento	3.2
28350	7	Sololá	701	Sololá	1	Sololá	6	Junio	2023-08-06T00:00:00	2024-11-08T10:00:00	7	Dirección del viento	3.22
28351	7	Sololá	701	Sololá	1	Sololá	6	Junio	2023-08-06T00:00:00	2024-11-08T10:00:00	1	Precipitación	0
28352	7	Sololá	701	Sololá	1	Sololá	6	Junio	2023-08-06T00:00:00	2024-11-08T10:00:00	8	Radiación solar	411
28353	7	Sololá	701	Sololá	1	Sololá	6	Junio	2023-08-06T00:00:00	2024-11-08T11:00:00	2	Temperatura media	21.9
28354	7	Sololá	701	Sololá	1	Sololá	6	Junio	2023-08-06T00:00:00	2024-11-08T11:00:00	4	Temperatura máxima	22.2
28355	7	Sololá	701	Sololá	1	Sololá	6	Junio	2023-08-06T00:00:00	2024-11-08T11:00:00	3	Temperatura mínima	21.1
28356	7	Sololá	701	Sololá	1	Sololá	6	Junio	2023-08-06T00:00:00	2024-11-08T11:00:00	5	Humedad	66
28357	7	Sololá	701	Sololá	1	Sololá	6	Junio	2023-08-06T00:00:00	2024-11-08T11:00:00	6	Velocidad del viento	4.8
28358	7	Sololá	701	Sololá	1	Sololá	6	Junio	2023-08-06T00:00:00	2024-11-08T11:00:00	7	Dirección del viento	4.83
28359	7	Sololá	701	Sololá	1	Sololá	6	Junio	2023-08-06T00:00:00	2024-11-08T11:00:00	1	Precipitación	0
28360	7	Sololá	701	Sololá	1	Sololá	6	Junio	2023-08-06T00:00:00	2024-11-08T11:00:00	8	Radiación solar	403
28361	7	Sololá	701	Sololá	1	Sololá	6	Junio	2023-08-06T00:00:00	2024-11-08T12:00:00	2	Temperatura media	22.2
28362	7	Sololá	701	Sololá	1	Sololá	6	Junio	2023-08-06T00:00:00	2024-11-08T12:00:00	4	Temperatura máxima	22.2
28363	7	Sololá	701	Sololá	1	Sololá	6	Junio	2023-08-06T00:00:00	2024-11-08T12:00:00	3	Temperatura mínima	21.5
28364	7	Sololá	701	Sololá	1	Sololá	6	Junio	2023-08-06T00:00:00	2024-11-08T12:00:00	5	Humedad	70
28365	7	Sololá	701	Sololá	1	Sololá	6	Junio	2023-08-06T00:00:00	2024-11-08T12:00:00	6	Velocidad del viento	4.8
28366	7	Sololá	701	Sololá	1	Sololá	6	Junio	2023-08-06T00:00:00	2024-11-08T12:00:00	7	Dirección del viento	4.83
28367	7	Sololá	701	Sololá	1	Sololá	6	Junio	2023-08-06T00:00:00	2024-11-08T12:00:00	1	Precipitación	0
28368	7	Sololá	701	Sololá	1	Sololá	6	Junio	2023-08-06T00:00:00	2024-11-08T12:00:00	8	Radiación solar	140
28369	7	Sololá	701	Sololá	1	Sololá	6	Junio	2023-08-06T00:00:00	2024-11-08T13:00:00	2	Temperatura media	21.1
28370	7	Sololá	701	Sololá	1	Sololá	6	Junio	2023-08-06T00:00:00	2024-11-08T13:00:00	4	Temperatura máxima	22.2
28371	7	Sololá	701	Sololá	1	Sololá	6	Junio	2023-08-06T00:00:00	2024-11-08T13:00:00	3	Temperatura mínima	20.9
28372	7	Sololá	701	Sololá	1	Sololá	6	Junio	2023-08-06T00:00:00	2024-11-08T13:00:00	5	Humedad	81
28373	7	Sololá	701	Sololá	1	Sololá	6	Junio	2023-08-06T00:00:00	2024-11-08T13:00:00	6	Velocidad del viento	6.4
28374	7	Sololá	701	Sololá	1	Sololá	6	Junio	2023-08-06T00:00:00	2024-11-08T13:00:00	7	Dirección del viento	6.44
28375	7	Sololá	701	Sololá	1	Sololá	6	Junio	2023-08-06T00:00:00	2024-11-08T13:00:00	1	Precipitación	0
28376	7	Sololá	701	Sololá	1	Sololá	6	Junio	2023-08-06T00:00:00	2024-11-08T13:00:00	8	Radiación solar	157
28377	7	Sololá	701	Sololá	1	Sololá	6	Junio	2023-08-06T00:00:00	2024-11-08T14:00:00	2	Temperatura media	20.9
28378	7	Sololá	701	Sololá	1	Sololá	6	Junio	2023-08-06T00:00:00	2024-11-08T14:00:00	4	Temperatura máxima	21.2
28379	7	Sololá	701	Sololá	1	Sololá	6	Junio	2023-08-06T00:00:00	2024-11-08T14:00:00	3	Temperatura mínima	20.7
28380	7	Sololá	701	Sololá	1	Sololá	6	Junio	2023-08-06T00:00:00	2024-11-08T14:00:00	5	Humedad	80
28381	7	Sololá	701	Sololá	1	Sololá	6	Junio	2023-08-06T00:00:00	2024-11-08T14:00:00	6	Velocidad del viento	6.4
28382	7	Sololá	701	Sololá	1	Sololá	6	Junio	2023-08-06T00:00:00	2024-11-08T14:00:00	7	Dirección del viento	6.44
28383	7	Sololá	701	Sololá	1	Sololá	6	Junio	2023-08-06T00:00:00	2024-11-08T14:00:00	1	Precipitación	0
28384	7	Sololá	701	Sololá	1	Sololá	6	Junio	2023-08-06T00:00:00	2024-11-08T14:00:00	8	Radiación solar	199
28385	7	Sololá	701	Sololá	1	Sololá	6	Junio	2023-08-06T00:00:00	2024-11-08T15:00:00	2	Temperatura media	19.1
28386	7	Sololá	701	Sololá	1	Sololá	6	Junio	2023-08-06T00:00:00	2024-11-08T15:00:00	4	Temperatura máxima	20.9
28387	7	Sololá	701	Sololá	1	Sololá	6	Junio	2023-08-06T00:00:00	2024-11-08T15:00:00	3	Temperatura mínima	19.1
28388	7	Sololá	701	Sololá	1	Sololá	6	Junio	2023-08-06T00:00:00	2024-11-08T15:00:00	5	Humedad	88
28389	7	Sololá	701	Sololá	1	Sololá	6	Junio	2023-08-06T00:00:00	2024-11-08T15:00:00	6	Velocidad del viento	6.4
28390	7	Sololá	701	Sololá	1	Sololá	6	Junio	2023-08-06T00:00:00	2024-11-08T15:00:00	7	Dirección del viento	6.44
28391	7	Sololá	701	Sololá	1	Sololá	6	Junio	2023-08-06T00:00:00	2024-11-08T15:00:00	1	Precipitación	0
28392	7	Sololá	701	Sololá	1	Sololá	6	Junio	2023-08-06T00:00:00	2024-11-08T15:00:00	8	Radiación solar	176
28393	7	Sololá	701	Sololá	1	Sololá	6	Junio	2023-08-06T00:00:00	2024-11-08T16:00:00	2	Temperatura media	18.2
28394	7	Sololá	701	Sololá	1	Sololá	6	Junio	2023-08-06T00:00:00	2024-11-08T16:00:00	4	Temperatura máxima	19.2
28395	7	Sololá	701	Sololá	1	Sololá	6	Junio	2023-08-06T00:00:00	2024-11-08T16:00:00	3	Temperatura mínima	18.1
28396	7	Sololá	701	Sololá	1	Sololá	6	Junio	2023-08-06T00:00:00	2024-11-08T16:00:00	5	Humedad	93
28397	7	Sololá	701	Sololá	1	Sololá	6	Junio	2023-08-06T00:00:00	2024-11-08T16:00:00	6	Velocidad del viento	4.8
28398	7	Sololá	701	Sololá	1	Sololá	6	Junio	2023-08-06T00:00:00	2024-11-08T16:00:00	7	Dirección del viento	4.83
28399	7	Sololá	701	Sololá	1	Sololá	6	Junio	2023-08-06T00:00:00	2024-11-08T16:00:00	1	Precipitación	0
28400	7	Sololá	701	Sololá	1	Sololá	6	Junio	2023-08-06T00:00:00	2024-11-08T16:00:00	8	Radiación solar	207
28401	7	Sololá	701	Sololá	1	Sololá	6	Junio	2023-08-06T00:00:00	2024-11-08T17:00:00	2	Temperatura media	18.8
28402	7	Sololá	701	Sololá	1	Sololá	6	Junio	2023-08-06T00:00:00	2024-11-08T17:00:00	4	Temperatura máxima	19.1
28403	7	Sololá	701	Sololá	1	Sololá	6	Junio	2023-08-06T00:00:00	2024-11-08T17:00:00	3	Temperatura mínima	18.2
28404	7	Sololá	701	Sololá	1	Sololá	6	Junio	2023-08-06T00:00:00	2024-11-08T17:00:00	5	Humedad	90
28405	7	Sololá	701	Sololá	1	Sololá	6	Junio	2023-08-06T00:00:00	2024-11-08T17:00:00	6	Velocidad del viento	1.6
28406	7	Sololá	701	Sololá	1	Sololá	6	Junio	2023-08-06T00:00:00	2024-11-08T17:00:00	7	Dirección del viento	1.61
28407	7	Sololá	701	Sololá	1	Sololá	6	Junio	2023-08-06T00:00:00	2024-11-08T17:00:00	1	Precipitación	0
28408	7	Sololá	701	Sololá	1	Sololá	6	Junio	2023-08-06T00:00:00	2024-11-08T17:00:00	8	Radiación solar	98
28409	7	Sololá	701	Sololá	1	Sololá	6	Junio	2023-08-06T00:00:00	2024-11-08T18:00:00	2	Temperatura media	18.4
28410	7	Sololá	701	Sololá	1	Sololá	6	Junio	2023-08-06T00:00:00	2024-11-08T18:00:00	4	Temperatura máxima	18.9
28411	7	Sololá	701	Sololá	1	Sololá	6	Junio	2023-08-06T00:00:00	2024-11-08T18:00:00	3	Temperatura mínima	18.3
28412	7	Sololá	701	Sololá	1	Sololá	6	Junio	2023-08-06T00:00:00	2024-11-08T18:00:00	5	Humedad	92
28413	7	Sololá	701	Sololá	1	Sololá	6	Junio	2023-08-06T00:00:00	2024-11-08T18:00:00	6	Velocidad del viento	1.6
28414	7	Sololá	701	Sololá	1	Sololá	6	Junio	2023-08-06T00:00:00	2024-11-08T18:00:00	7	Dirección del viento	1.61
28415	7	Sololá	701	Sololá	1	Sololá	6	Junio	2023-08-06T00:00:00	2024-11-08T18:00:00	1	Precipitación	0
28416	7	Sololá	701	Sololá	1	Sololá	6	Junio	2023-08-06T00:00:00	2024-11-08T18:00:00	8	Radiación solar	41
28417	7	Sololá	701	Sololá	1	Sololá	6	Junio	2023-08-06T00:00:00	2024-11-08T19:00:00	2	Temperatura media	17.8
28418	7	Sololá	701	Sololá	1	Sololá	6	Junio	2023-08-06T00:00:00	2024-11-08T19:00:00	4	Temperatura máxima	18.4
28419	7	Sololá	701	Sololá	1	Sololá	6	Junio	2023-08-06T00:00:00	2024-11-08T19:00:00	3	Temperatura mínima	17.8
28420	7	Sololá	701	Sololá	1	Sololá	6	Junio	2023-08-06T00:00:00	2024-11-08T19:00:00	5	Humedad	92
28421	7	Sololá	701	Sololá	1	Sololá	6	Junio	2023-08-06T00:00:00	2024-11-08T19:00:00	6	Velocidad del viento	1.6
28422	7	Sololá	701	Sololá	1	Sololá	6	Junio	2023-08-06T00:00:00	2024-11-08T19:00:00	7	Dirección del viento	1.61
28423	7	Sololá	701	Sololá	1	Sololá	6	Junio	2023-08-06T00:00:00	2024-11-08T19:00:00	1	Precipitación	0
28424	7	Sololá	701	Sololá	1	Sololá	6	Junio	2023-08-06T00:00:00	2024-11-08T19:00:00	8	Radiación solar	0
28425	7	Sololá	701	Sololá	1	Sololá	6	Junio	2023-08-06T00:00:00	2024-11-08T20:00:00	2	Temperatura media	17.4
28426	7	Sololá	701	Sololá	1	Sololá	6	Junio	2023-08-06T00:00:00	2024-11-08T20:00:00	4	Temperatura máxima	17.8
28427	7	Sololá	701	Sololá	1	Sololá	6	Junio	2023-08-06T00:00:00	2024-11-08T20:00:00	3	Temperatura mínima	17.4
28428	7	Sololá	701	Sololá	1	Sololá	6	Junio	2023-08-06T00:00:00	2024-11-08T20:00:00	5	Humedad	92
28429	7	Sololá	701	Sololá	1	Sololá	6	Junio	2023-08-06T00:00:00	2024-11-08T20:00:00	6	Velocidad del viento	1.6
28430	7	Sololá	701	Sololá	1	Sololá	6	Junio	2023-08-06T00:00:00	2024-11-08T20:00:00	7	Dirección del viento	1.61
28431	7	Sololá	701	Sololá	1	Sololá	6	Junio	2023-08-06T00:00:00	2024-11-08T20:00:00	1	Precipitación	0
28432	7	Sololá	701	Sololá	1	Sololá	6	Junio	2023-08-06T00:00:00	2024-11-08T20:00:00	8	Radiación solar	0
28433	7	Sololá	701	Sololá	1	Sololá	6	Junio	2023-08-06T00:00:00	2024-11-08T21:00:00	2	Temperatura media	17.3
28434	7	Sololá	701	Sololá	1	Sololá	6	Junio	2023-08-06T00:00:00	2024-11-08T21:00:00	4	Temperatura máxima	17.5
28435	7	Sololá	701	Sololá	1	Sololá	6	Junio	2023-08-06T00:00:00	2024-11-08T21:00:00	3	Temperatura mínima	17.1
28436	7	Sololá	701	Sololá	1	Sololá	6	Junio	2023-08-06T00:00:00	2024-11-08T21:00:00	5	Humedad	94
28437	7	Sololá	701	Sololá	1	Sololá	6	Junio	2023-08-06T00:00:00	2024-11-08T21:00:00	6	Velocidad del viento	0
28438	7	Sololá	701	Sololá	1	Sololá	6	Junio	2023-08-06T00:00:00	2024-11-08T21:00:00	7	Dirección del viento	0
28439	7	Sololá	701	Sololá	1	Sololá	6	Junio	2023-08-06T00:00:00	2024-11-08T21:00:00	1	Precipitación	0
28440	7	Sololá	701	Sololá	1	Sololá	6	Junio	2023-08-06T00:00:00	2024-11-08T21:00:00	8	Radiación solar	0
28441	7	Sololá	701	Sololá	1	Sololá	6	Junio	2023-08-06T00:00:00	2024-11-08T22:00:00	2	Temperatura media	17.2
28442	7	Sololá	701	Sololá	1	Sololá	6	Junio	2023-08-06T00:00:00	2024-11-08T22:00:00	4	Temperatura máxima	17.5
28443	7	Sololá	701	Sololá	1	Sololá	6	Junio	2023-08-06T00:00:00	2024-11-08T22:00:00	3	Temperatura mínima	17.2
28444	7	Sololá	701	Sololá	1	Sololá	6	Junio	2023-08-06T00:00:00	2024-11-08T22:00:00	5	Humedad	93
28445	7	Sololá	701	Sololá	1	Sololá	6	Junio	2023-08-06T00:00:00	2024-11-08T22:00:00	6	Velocidad del viento	0
28446	7	Sololá	701	Sololá	1	Sololá	6	Junio	2023-08-06T00:00:00	2024-11-08T22:00:00	7	Dirección del viento	0
28447	7	Sololá	701	Sololá	1	Sololá	6	Junio	2023-08-06T00:00:00	2024-11-08T22:00:00	1	Precipitación	0
28448	7	Sololá	701	Sololá	1	Sololá	6	Junio	2023-08-06T00:00:00	2024-11-08T22:00:00	8	Radiación solar	0
28449	7	Sololá	701	Sololá	1	Sololá	6	Junio	2023-08-06T00:00:00	2024-11-08T23:00:00	2	Temperatura media	16.7
28450	7	Sololá	701	Sololá	1	Sololá	6	Junio	2023-08-06T00:00:00	2024-11-08T23:00:00	4	Temperatura máxima	17.2
28451	7	Sololá	701	Sololá	1	Sololá	6	Junio	2023-08-06T00:00:00	2024-11-08T23:00:00	3	Temperatura mínima	16.7
28452	7	Sololá	701	Sololá	1	Sololá	6	Junio	2023-08-06T00:00:00	2024-11-08T23:00:00	5	Humedad	88
28453	7	Sololá	701	Sololá	1	Sololá	6	Junio	2023-08-06T00:00:00	2024-11-08T23:00:00	6	Velocidad del viento	0
28454	7	Sololá	701	Sololá	1	Sololá	6	Junio	2023-08-06T00:00:00	2024-11-08T23:00:00	7	Dirección del viento	0
28455	7	Sololá	701	Sololá	1	Sololá	6	Junio	2023-08-06T00:00:00	2024-11-08T23:00:00	1	Precipitación	0
28456	7	Sololá	701	Sololá	1	Sololá	6	Junio	2023-08-06T00:00:00	2024-11-08T23:00:00	8	Radiación solar	0
28457	7	Sololá	701	Sololá	1	Sololá	6	Junio	2023-09-06T00:00:00	2024-11-08T00:00:00	2	Temperatura media	16.8
28458	7	Sololá	701	Sololá	1	Sololá	6	Junio	2023-09-06T00:00:00	2024-11-08T00:00:00	4	Temperatura máxima	16.9
28459	7	Sololá	701	Sololá	1	Sololá	6	Junio	2023-09-06T00:00:00	2024-11-08T00:00:00	3	Temperatura mínima	16.6
28460	7	Sololá	701	Sololá	1	Sololá	6	Junio	2023-09-06T00:00:00	2024-11-08T00:00:00	5	Humedad	86
28461	7	Sololá	701	Sololá	1	Sololá	6	Junio	2023-09-06T00:00:00	2024-11-08T00:00:00	6	Velocidad del viento	1.6
28462	7	Sololá	701	Sololá	1	Sololá	6	Junio	2023-09-06T00:00:00	2024-11-08T00:00:00	7	Dirección del viento	1.61
28463	7	Sololá	701	Sololá	1	Sololá	6	Junio	2023-09-06T00:00:00	2024-11-08T00:00:00	1	Precipitación	0
28464	7	Sololá	701	Sololá	1	Sololá	6	Junio	2023-09-06T00:00:00	2024-11-08T00:00:00	8	Radiación solar	0
28465	7	Sololá	701	Sololá	1	Sololá	6	Junio	2023-09-06T00:00:00	2024-11-08T01:00:00	2	Temperatura media	16.8
28466	7	Sololá	701	Sololá	1	Sololá	6	Junio	2023-09-06T00:00:00	2024-11-08T01:00:00	4	Temperatura máxima	17.5
28467	7	Sololá	701	Sololá	1	Sololá	6	Junio	2023-09-06T00:00:00	2024-11-08T01:00:00	3	Temperatura mínima	16.8
28468	7	Sololá	701	Sololá	1	Sololá	6	Junio	2023-09-06T00:00:00	2024-11-08T01:00:00	5	Humedad	85
28469	7	Sololá	701	Sololá	1	Sololá	6	Junio	2023-09-06T00:00:00	2024-11-08T01:00:00	6	Velocidad del viento	3.2
28470	7	Sololá	701	Sololá	1	Sololá	6	Junio	2023-09-06T00:00:00	2024-11-08T01:00:00	7	Dirección del viento	3.22
28471	7	Sololá	701	Sololá	1	Sololá	6	Junio	2023-09-06T00:00:00	2024-11-08T01:00:00	1	Precipitación	0
28472	7	Sololá	701	Sololá	1	Sololá	6	Junio	2023-09-06T00:00:00	2024-11-08T01:00:00	8	Radiación solar	0
28473	7	Sololá	701	Sololá	1	Sololá	6	Junio	2023-09-06T00:00:00	2024-11-08T02:00:00	2	Temperatura media	16.5
28474	7	Sololá	701	Sololá	1	Sololá	6	Junio	2023-09-06T00:00:00	2024-11-08T02:00:00	4	Temperatura máxima	16.8
28475	7	Sololá	701	Sololá	1	Sololá	6	Junio	2023-09-06T00:00:00	2024-11-08T02:00:00	3	Temperatura mínima	16.3
28476	7	Sololá	701	Sololá	1	Sololá	6	Junio	2023-09-06T00:00:00	2024-11-08T02:00:00	5	Humedad	85
28477	7	Sololá	701	Sololá	1	Sololá	6	Junio	2023-09-06T00:00:00	2024-11-08T02:00:00	6	Velocidad del viento	1.6
28478	7	Sololá	701	Sololá	1	Sololá	6	Junio	2023-09-06T00:00:00	2024-11-08T02:00:00	7	Dirección del viento	1.61
28479	7	Sololá	701	Sololá	1	Sololá	6	Junio	2023-09-06T00:00:00	2024-11-08T02:00:00	1	Precipitación	0
28480	7	Sololá	701	Sololá	1	Sololá	6	Junio	2023-09-06T00:00:00	2024-11-08T02:00:00	8	Radiación solar	0
28481	7	Sololá	701	Sololá	1	Sololá	6	Junio	2023-09-06T00:00:00	2024-11-08T03:00:00	2	Temperatura media	16.5
28482	7	Sololá	701	Sololá	1	Sololá	6	Junio	2023-09-06T00:00:00	2024-11-08T03:00:00	4	Temperatura máxima	16.6
28483	7	Sololá	701	Sololá	1	Sololá	6	Junio	2023-09-06T00:00:00	2024-11-08T03:00:00	3	Temperatura mínima	16.2
28484	7	Sololá	701	Sololá	1	Sololá	6	Junio	2023-09-06T00:00:00	2024-11-08T03:00:00	5	Humedad	83
28485	7	Sololá	701	Sololá	1	Sololá	6	Junio	2023-09-06T00:00:00	2024-11-08T03:00:00	6	Velocidad del viento	4.8
28486	7	Sololá	701	Sololá	1	Sololá	6	Junio	2023-09-06T00:00:00	2024-11-08T03:00:00	7	Dirección del viento	4.83
28487	7	Sololá	701	Sololá	1	Sololá	6	Junio	2023-09-06T00:00:00	2024-11-08T03:00:00	1	Precipitación	0
28488	7	Sololá	701	Sololá	1	Sololá	6	Junio	2023-09-06T00:00:00	2024-11-08T03:00:00	8	Radiación solar	0
28489	7	Sololá	701	Sololá	1	Sololá	6	Junio	2023-09-06T00:00:00	2024-11-08T04:00:00	2	Temperatura media	15
28490	7	Sololá	701	Sololá	1	Sololá	6	Junio	2023-09-06T00:00:00	2024-11-08T04:00:00	4	Temperatura máxima	16.7
28491	7	Sololá	701	Sololá	1	Sololá	6	Junio	2023-09-06T00:00:00	2024-11-08T04:00:00	3	Temperatura mínima	14.9
28492	7	Sololá	701	Sololá	1	Sololá	6	Junio	2023-09-06T00:00:00	2024-11-08T04:00:00	5	Humedad	86
28493	7	Sololá	701	Sololá	1	Sololá	6	Junio	2023-09-06T00:00:00	2024-11-08T04:00:00	6	Velocidad del viento	3.2
28494	7	Sololá	701	Sololá	1	Sololá	6	Junio	2023-09-06T00:00:00	2024-11-08T04:00:00	7	Dirección del viento	3.22
28495	7	Sololá	701	Sololá	1	Sololá	6	Junio	2023-09-06T00:00:00	2024-11-08T04:00:00	1	Precipitación	0
28496	7	Sololá	701	Sololá	1	Sololá	6	Junio	2023-09-06T00:00:00	2024-11-08T04:00:00	8	Radiación solar	0
28497	7	Sololá	701	Sololá	1	Sololá	6	Junio	2023-09-06T00:00:00	2024-11-08T05:00:00	2	Temperatura media	14.7
28498	7	Sololá	701	Sololá	1	Sololá	6	Junio	2023-09-06T00:00:00	2024-11-08T05:00:00	4	Temperatura máxima	15
28499	7	Sololá	701	Sololá	1	Sololá	6	Junio	2023-09-06T00:00:00	2024-11-08T05:00:00	3	Temperatura mínima	13.9
28500	7	Sololá	701	Sololá	1	Sololá	6	Junio	2023-09-06T00:00:00	2024-11-08T05:00:00	5	Humedad	82
28501	7	Sololá	701	Sololá	1	Sololá	6	Junio	2023-09-06T00:00:00	2024-11-08T05:00:00	6	Velocidad del viento	3.2
28502	7	Sololá	701	Sololá	1	Sololá	6	Junio	2023-09-06T00:00:00	2024-11-08T05:00:00	7	Dirección del viento	3.22
28503	7	Sololá	701	Sololá	1	Sololá	6	Junio	2023-09-06T00:00:00	2024-11-08T05:00:00	1	Precipitación	0
28504	7	Sololá	701	Sololá	1	Sololá	6	Junio	2023-09-06T00:00:00	2024-11-08T05:00:00	8	Radiación solar	0
28505	7	Sololá	701	Sololá	1	Sololá	6	Junio	2023-09-06T00:00:00	2024-11-08T06:00:00	2	Temperatura media	13.6
28506	7	Sololá	701	Sololá	1	Sololá	6	Junio	2023-09-06T00:00:00	2024-11-08T06:00:00	4	Temperatura máxima	14.8
28507	7	Sololá	701	Sololá	1	Sololá	6	Junio	2023-09-06T00:00:00	2024-11-08T06:00:00	3	Temperatura mínima	13.4
28508	7	Sololá	701	Sololá	1	Sololá	6	Junio	2023-09-06T00:00:00	2024-11-08T06:00:00	5	Humedad	85
28509	7	Sololá	701	Sololá	1	Sololá	6	Junio	2023-09-06T00:00:00	2024-11-08T06:00:00	6	Velocidad del viento	6.4
28510	7	Sololá	701	Sololá	1	Sololá	6	Junio	2023-09-06T00:00:00	2024-11-08T06:00:00	7	Dirección del viento	6.44
28511	7	Sololá	701	Sololá	1	Sololá	6	Junio	2023-09-06T00:00:00	2024-11-08T06:00:00	1	Precipitación	0
28512	7	Sololá	701	Sololá	1	Sololá	6	Junio	2023-09-06T00:00:00	2024-11-08T06:00:00	8	Radiación solar	4
28513	7	Sololá	701	Sololá	1	Sololá	6	Junio	2023-09-06T00:00:00	2024-11-08T07:00:00	2	Temperatura media	16.5
28514	7	Sololá	701	Sololá	1	Sololá	6	Junio	2023-09-06T00:00:00	2024-11-08T07:00:00	4	Temperatura máxima	16.9
28515	7	Sololá	701	Sololá	1	Sololá	6	Junio	2023-09-06T00:00:00	2024-11-08T07:00:00	3	Temperatura mínima	13.6
28516	7	Sololá	701	Sololá	1	Sololá	6	Junio	2023-09-06T00:00:00	2024-11-08T07:00:00	5	Humedad	77
28517	7	Sololá	701	Sololá	1	Sololá	6	Junio	2023-09-06T00:00:00	2024-11-08T07:00:00	6	Velocidad del viento	4.8
28518	7	Sololá	701	Sololá	1	Sololá	6	Junio	2023-09-06T00:00:00	2024-11-08T07:00:00	7	Dirección del viento	4.83
28519	7	Sololá	701	Sololá	1	Sololá	6	Junio	2023-09-06T00:00:00	2024-11-08T07:00:00	1	Precipitación	0
28520	7	Sololá	701	Sololá	1	Sololá	6	Junio	2023-09-06T00:00:00	2024-11-08T07:00:00	8	Radiación solar	51
28521	7	Sololá	701	Sololá	1	Sololá	6	Junio	2023-09-06T00:00:00	2024-11-08T08:00:00	2	Temperatura media	18.7
28522	7	Sololá	701	Sololá	1	Sololá	6	Junio	2023-09-06T00:00:00	2024-11-08T08:00:00	4	Temperatura máxima	18.7
28523	7	Sololá	701	Sololá	1	Sololá	6	Junio	2023-09-06T00:00:00	2024-11-08T08:00:00	3	Temperatura mínima	16.5
28524	7	Sololá	701	Sololá	1	Sololá	6	Junio	2023-09-06T00:00:00	2024-11-08T08:00:00	5	Humedad	68
28525	7	Sololá	701	Sololá	1	Sololá	6	Junio	2023-09-06T00:00:00	2024-11-08T08:00:00	6	Velocidad del viento	3.2
28526	7	Sololá	701	Sololá	1	Sololá	6	Junio	2023-09-06T00:00:00	2024-11-08T08:00:00	7	Dirección del viento	3.22
28527	7	Sololá	701	Sololá	1	Sololá	6	Junio	2023-09-06T00:00:00	2024-11-08T08:00:00	1	Precipitación	0
28528	7	Sololá	701	Sololá	1	Sololá	6	Junio	2023-09-06T00:00:00	2024-11-08T08:00:00	8	Radiación solar	125
28529	7	Sololá	701	Sololá	1	Sololá	6	Junio	2023-09-06T00:00:00	2024-11-08T09:00:00	2	Temperatura media	21.1
28530	7	Sololá	701	Sololá	1	Sololá	6	Junio	2023-09-06T00:00:00	2024-11-08T09:00:00	4	Temperatura máxima	21.1
28531	7	Sololá	701	Sololá	1	Sololá	6	Junio	2023-09-06T00:00:00	2024-11-08T09:00:00	3	Temperatura mínima	18.7
28532	7	Sololá	701	Sololá	1	Sololá	6	Junio	2023-09-06T00:00:00	2024-11-08T09:00:00	5	Humedad	74
28533	7	Sololá	701	Sololá	1	Sololá	6	Junio	2023-09-06T00:00:00	2024-11-08T09:00:00	6	Velocidad del viento	1.6
28534	7	Sololá	701	Sololá	1	Sololá	6	Junio	2023-09-06T00:00:00	2024-11-08T09:00:00	7	Dirección del viento	1.61
28535	7	Sololá	701	Sololá	1	Sololá	6	Junio	2023-09-06T00:00:00	2024-11-08T09:00:00	1	Precipitación	0
28536	7	Sololá	701	Sololá	1	Sololá	6	Junio	2023-09-06T00:00:00	2024-11-08T09:00:00	8	Radiación solar	388
28537	7	Sololá	701	Sololá	1	Sololá	6	Junio	2023-09-06T00:00:00	2024-11-08T10:00:00	2	Temperatura media	22.2
28538	7	Sololá	701	Sololá	1	Sololá	6	Junio	2023-09-06T00:00:00	2024-11-08T10:00:00	4	Temperatura máxima	22.2
28539	7	Sololá	701	Sololá	1	Sololá	6	Junio	2023-09-06T00:00:00	2024-11-08T10:00:00	3	Temperatura mínima	21
28540	7	Sololá	701	Sololá	1	Sololá	6	Junio	2023-09-06T00:00:00	2024-11-08T10:00:00	5	Humedad	70
28541	7	Sololá	701	Sololá	1	Sololá	6	Junio	2023-09-06T00:00:00	2024-11-08T10:00:00	6	Velocidad del viento	4.8
28542	7	Sololá	701	Sololá	1	Sololá	6	Junio	2023-09-06T00:00:00	2024-11-08T10:00:00	7	Dirección del viento	4.83
28543	7	Sololá	701	Sololá	1	Sololá	6	Junio	2023-09-06T00:00:00	2024-11-08T10:00:00	1	Precipitación	0
28544	7	Sololá	701	Sololá	1	Sololá	6	Junio	2023-09-06T00:00:00	2024-11-08T10:00:00	8	Radiación solar	725
28545	7	Sololá	701	Sololá	1	Sololá	6	Junio	2023-09-06T00:00:00	2024-11-08T11:00:00	2	Temperatura media	22.9
28546	7	Sololá	701	Sololá	1	Sololá	6	Junio	2023-09-06T00:00:00	2024-11-08T11:00:00	4	Temperatura máxima	22.9
28547	7	Sololá	701	Sololá	1	Sololá	6	Junio	2023-09-06T00:00:00	2024-11-08T11:00:00	3	Temperatura mínima	22.1
28548	7	Sololá	701	Sololá	1	Sololá	6	Junio	2023-09-06T00:00:00	2024-11-08T11:00:00	5	Humedad	70
28549	7	Sololá	701	Sololá	1	Sololá	6	Junio	2023-09-06T00:00:00	2024-11-08T11:00:00	6	Velocidad del viento	4.8
28550	7	Sololá	701	Sololá	1	Sololá	6	Junio	2023-09-06T00:00:00	2024-11-08T11:00:00	7	Dirección del viento	4.83
28551	7	Sololá	701	Sololá	1	Sololá	6	Junio	2023-09-06T00:00:00	2024-11-08T11:00:00	1	Precipitación	0
28552	7	Sololá	701	Sololá	1	Sololá	6	Junio	2023-09-06T00:00:00	2024-11-08T11:00:00	8	Radiación solar	873
28553	7	Sololá	701	Sololá	1	Sololá	6	Junio	2023-09-06T00:00:00	2024-11-08T12:00:00	2	Temperatura media	21.6
28554	7	Sololá	701	Sololá	1	Sololá	6	Junio	2023-09-06T00:00:00	2024-11-08T12:00:00	4	Temperatura máxima	22.9
28555	7	Sololá	701	Sololá	1	Sololá	6	Junio	2023-09-06T00:00:00	2024-11-08T12:00:00	3	Temperatura mínima	21.4
28556	7	Sololá	701	Sololá	1	Sololá	6	Junio	2023-09-06T00:00:00	2024-11-08T12:00:00	5	Humedad	79
28557	7	Sololá	701	Sololá	1	Sololá	6	Junio	2023-09-06T00:00:00	2024-11-08T12:00:00	6	Velocidad del viento	6.4
28558	7	Sololá	701	Sololá	1	Sololá	6	Junio	2023-09-06T00:00:00	2024-11-08T12:00:00	7	Dirección del viento	6.44
28559	7	Sololá	701	Sololá	1	Sololá	6	Junio	2023-09-06T00:00:00	2024-11-08T12:00:00	1	Precipitación	0
28560	7	Sololá	701	Sololá	1	Sololá	6	Junio	2023-09-06T00:00:00	2024-11-08T12:00:00	8	Radiación solar	882
28561	7	Sololá	701	Sololá	1	Sololá	6	Junio	2023-09-06T00:00:00	2024-11-08T13:00:00	2	Temperatura media	21.9
28562	7	Sololá	701	Sololá	1	Sololá	6	Junio	2023-09-06T00:00:00	2024-11-08T13:00:00	4	Temperatura máxima	22.1
28563	7	Sololá	701	Sololá	1	Sololá	6	Junio	2023-09-06T00:00:00	2024-11-08T13:00:00	3	Temperatura mínima	21
28564	7	Sololá	701	Sololá	1	Sololá	6	Junio	2023-09-06T00:00:00	2024-11-08T13:00:00	5	Humedad	79
28565	7	Sololá	701	Sololá	1	Sololá	6	Junio	2023-09-06T00:00:00	2024-11-08T13:00:00	6	Velocidad del viento	6.4
28566	7	Sololá	701	Sololá	1	Sololá	6	Junio	2023-09-06T00:00:00	2024-11-08T13:00:00	7	Dirección del viento	6.44
28567	7	Sololá	701	Sololá	1	Sololá	6	Junio	2023-09-06T00:00:00	2024-11-08T13:00:00	1	Precipitación	0
28568	7	Sololá	701	Sololá	1	Sololá	6	Junio	2023-09-06T00:00:00	2024-11-08T13:00:00	8	Radiación solar	263
28569	7	Sololá	701	Sololá	1	Sololá	6	Junio	2023-09-06T00:00:00	2024-11-08T14:00:00	2	Temperatura media	21.1
28570	7	Sololá	701	Sololá	1	Sololá	6	Junio	2023-09-06T00:00:00	2024-11-08T14:00:00	4	Temperatura máxima	22.2
28571	7	Sololá	701	Sololá	1	Sololá	6	Junio	2023-09-06T00:00:00	2024-11-08T14:00:00	3	Temperatura mínima	21
28572	7	Sololá	701	Sololá	1	Sololá	6	Junio	2023-09-06T00:00:00	2024-11-08T14:00:00	5	Humedad	84
28573	7	Sololá	701	Sololá	1	Sololá	6	Junio	2023-09-06T00:00:00	2024-11-08T14:00:00	6	Velocidad del viento	4.8
28574	7	Sololá	701	Sololá	1	Sololá	6	Junio	2023-09-06T00:00:00	2024-11-08T14:00:00	7	Dirección del viento	4.83
28575	7	Sololá	701	Sololá	1	Sololá	6	Junio	2023-09-06T00:00:00	2024-11-08T14:00:00	1	Precipitación	0
28576	7	Sololá	701	Sololá	1	Sololá	6	Junio	2023-09-06T00:00:00	2024-11-08T14:00:00	8	Radiación solar	157
28577	7	Sololá	701	Sololá	1	Sololá	6	Junio	2023-09-06T00:00:00	2024-11-08T15:00:00	2	Temperatura media	20.2
28578	7	Sololá	701	Sololá	1	Sololá	6	Junio	2023-09-06T00:00:00	2024-11-08T15:00:00	4	Temperatura máxima	21.6
28579	7	Sololá	701	Sololá	1	Sololá	6	Junio	2023-09-06T00:00:00	2024-11-08T15:00:00	3	Temperatura mínima	20.2
28580	7	Sololá	701	Sololá	1	Sololá	6	Junio	2023-09-06T00:00:00	2024-11-08T15:00:00	5	Humedad	86
28581	7	Sololá	701	Sololá	1	Sololá	6	Junio	2023-09-06T00:00:00	2024-11-08T15:00:00	6	Velocidad del viento	4.8
28582	7	Sololá	701	Sololá	1	Sololá	6	Junio	2023-09-06T00:00:00	2024-11-08T15:00:00	7	Dirección del viento	4.83
28583	7	Sololá	701	Sololá	1	Sololá	6	Junio	2023-09-06T00:00:00	2024-11-08T15:00:00	1	Precipitación	0
28584	7	Sololá	701	Sololá	1	Sololá	6	Junio	2023-09-06T00:00:00	2024-11-08T15:00:00	8	Radiación solar	43
28585	7	Sololá	701	Sololá	1	Sololá	6	Junio	2023-09-06T00:00:00	2024-11-08T16:00:00	2	Temperatura media	20.9
28586	7	Sololá	701	Sololá	1	Sololá	6	Junio	2023-09-06T00:00:00	2024-11-08T16:00:00	4	Temperatura máxima	21.3
28587	7	Sololá	701	Sololá	1	Sololá	6	Junio	2023-09-06T00:00:00	2024-11-08T16:00:00	3	Temperatura mínima	20.1
28588	7	Sololá	701	Sololá	1	Sololá	6	Junio	2023-09-06T00:00:00	2024-11-08T16:00:00	5	Humedad	84
28589	7	Sololá	701	Sololá	1	Sololá	6	Junio	2023-09-06T00:00:00	2024-11-08T16:00:00	6	Velocidad del viento	4.8
28590	7	Sololá	701	Sololá	1	Sololá	6	Junio	2023-09-06T00:00:00	2024-11-08T16:00:00	7	Dirección del viento	4.83
28591	7	Sololá	701	Sololá	1	Sololá	6	Junio	2023-09-06T00:00:00	2024-11-08T16:00:00	1	Precipitación	0
28592	7	Sololá	701	Sololá	1	Sololá	6	Junio	2023-09-06T00:00:00	2024-11-08T16:00:00	8	Radiación solar	53
28593	7	Sololá	701	Sololá	1	Sololá	6	Junio	2023-09-06T00:00:00	2024-11-08T17:00:00	2	Temperatura media	20.5
28594	7	Sololá	701	Sololá	1	Sololá	6	Junio	2023-09-06T00:00:00	2024-11-08T17:00:00	4	Temperatura máxima	20.9
28595	7	Sololá	701	Sololá	1	Sololá	6	Junio	2023-09-06T00:00:00	2024-11-08T17:00:00	3	Temperatura mínima	19.8
28596	7	Sololá	701	Sololá	1	Sololá	6	Junio	2023-09-06T00:00:00	2024-11-08T17:00:00	5	Humedad	86
28597	7	Sololá	701	Sololá	1	Sololá	6	Junio	2023-09-06T00:00:00	2024-11-08T17:00:00	6	Velocidad del viento	3.2
28598	7	Sololá	701	Sololá	1	Sololá	6	Junio	2023-09-06T00:00:00	2024-11-08T17:00:00	7	Dirección del viento	3.22
28599	7	Sololá	701	Sololá	1	Sololá	6	Junio	2023-09-06T00:00:00	2024-11-08T17:00:00	1	Precipitación	0
28600	7	Sololá	701	Sololá	1	Sololá	6	Junio	2023-09-06T00:00:00	2024-11-08T17:00:00	8	Radiación solar	48
28601	7	Sololá	701	Sololá	1	Sololá	6	Junio	2023-09-06T00:00:00	2024-11-08T18:00:00	2	Temperatura media	19.4
28602	7	Sololá	701	Sololá	1	Sololá	6	Junio	2023-09-06T00:00:00	2024-11-08T18:00:00	4	Temperatura máxima	20.4
28603	7	Sololá	701	Sololá	1	Sololá	6	Junio	2023-09-06T00:00:00	2024-11-08T18:00:00	3	Temperatura mínima	19.1
28604	7	Sololá	701	Sololá	1	Sololá	6	Junio	2023-09-06T00:00:00	2024-11-08T18:00:00	5	Humedad	89
28605	7	Sololá	701	Sololá	1	Sololá	6	Junio	2023-09-06T00:00:00	2024-11-08T18:00:00	6	Velocidad del viento	3.2
28606	7	Sololá	701	Sololá	1	Sololá	6	Junio	2023-09-06T00:00:00	2024-11-08T18:00:00	7	Dirección del viento	3.22
28607	7	Sololá	701	Sololá	1	Sololá	6	Junio	2023-09-06T00:00:00	2024-11-08T18:00:00	1	Precipitación	0
28608	7	Sololá	701	Sololá	1	Sololá	6	Junio	2023-09-06T00:00:00	2024-11-08T18:00:00	8	Radiación solar	40
28609	7	Sololá	701	Sololá	1	Sololá	6	Junio	2023-09-06T00:00:00	2024-11-08T19:00:00	2	Temperatura media	18.2
28610	7	Sololá	701	Sololá	1	Sololá	6	Junio	2023-09-06T00:00:00	2024-11-08T19:00:00	4	Temperatura máxima	19.4
28611	7	Sololá	701	Sololá	1	Sololá	6	Junio	2023-09-06T00:00:00	2024-11-08T19:00:00	3	Temperatura mínima	18.2
28612	7	Sololá	701	Sololá	1	Sololá	6	Junio	2023-09-06T00:00:00	2024-11-08T19:00:00	5	Humedad	93
28613	7	Sololá	701	Sololá	1	Sololá	6	Junio	2023-09-06T00:00:00	2024-11-08T19:00:00	6	Velocidad del viento	1.6
28614	7	Sololá	701	Sololá	1	Sololá	6	Junio	2023-09-06T00:00:00	2024-11-08T19:00:00	7	Dirección del viento	1.61
28615	7	Sololá	701	Sololá	1	Sololá	6	Junio	2023-09-06T00:00:00	2024-11-08T19:00:00	1	Precipitación	0
28616	7	Sololá	701	Sololá	1	Sololá	6	Junio	2023-09-06T00:00:00	2024-11-08T19:00:00	8	Radiación solar	0
28617	7	Sololá	701	Sololá	1	Sololá	6	Junio	2023-09-06T00:00:00	2024-11-08T20:00:00	2	Temperatura media	18.2
28618	7	Sololá	701	Sololá	1	Sololá	6	Junio	2023-09-06T00:00:00	2024-11-08T20:00:00	4	Temperatura máxima	18.4
28619	7	Sololá	701	Sololá	1	Sololá	6	Junio	2023-09-06T00:00:00	2024-11-08T20:00:00	3	Temperatura mínima	18.1
28620	7	Sololá	701	Sololá	1	Sololá	6	Junio	2023-09-06T00:00:00	2024-11-08T20:00:00	5	Humedad	92
28621	7	Sololá	701	Sololá	1	Sololá	6	Junio	2023-09-06T00:00:00	2024-11-08T20:00:00	6	Velocidad del viento	0
28622	7	Sololá	701	Sololá	1	Sololá	6	Junio	2023-09-06T00:00:00	2024-11-08T20:00:00	7	Dirección del viento	0
28623	7	Sololá	701	Sololá	1	Sololá	6	Junio	2023-09-06T00:00:00	2024-11-08T20:00:00	1	Precipitación	0
28624	7	Sololá	701	Sololá	1	Sololá	6	Junio	2023-09-06T00:00:00	2024-11-08T20:00:00	8	Radiación solar	0
28625	7	Sololá	701	Sololá	1	Sololá	6	Junio	2023-09-06T00:00:00	2024-11-08T21:00:00	2	Temperatura media	17.3
28626	7	Sololá	701	Sololá	1	Sololá	6	Junio	2023-09-06T00:00:00	2024-11-08T21:00:00	4	Temperatura máxima	18.2
28627	7	Sololá	701	Sololá	1	Sololá	6	Junio	2023-09-06T00:00:00	2024-11-08T21:00:00	3	Temperatura mínima	17.3
28628	7	Sololá	701	Sololá	1	Sololá	6	Junio	2023-09-06T00:00:00	2024-11-08T21:00:00	5	Humedad	96
28629	7	Sololá	701	Sololá	1	Sololá	6	Junio	2023-09-06T00:00:00	2024-11-08T21:00:00	6	Velocidad del viento	1.6
28630	7	Sololá	701	Sololá	1	Sololá	6	Junio	2023-09-06T00:00:00	2024-11-08T21:00:00	7	Dirección del viento	1.61
28631	7	Sololá	701	Sololá	1	Sololá	6	Junio	2023-09-06T00:00:00	2024-11-08T21:00:00	1	Precipitación	0
28632	7	Sololá	701	Sololá	1	Sololá	6	Junio	2023-09-06T00:00:00	2024-11-08T21:00:00	8	Radiación solar	0
28633	7	Sololá	701	Sololá	1	Sololá	6	Junio	2023-09-06T00:00:00	2024-11-08T22:00:00	2	Temperatura media	17.2
28634	7	Sololá	701	Sololá	1	Sololá	6	Junio	2023-09-06T00:00:00	2024-11-08T22:00:00	4	Temperatura máxima	17.3
28635	7	Sololá	701	Sololá	1	Sololá	6	Junio	2023-09-06T00:00:00	2024-11-08T22:00:00	3	Temperatura mínima	16.9
28636	7	Sololá	701	Sololá	1	Sololá	6	Junio	2023-09-06T00:00:00	2024-11-08T22:00:00	5	Humedad	96
28637	7	Sololá	701	Sololá	1	Sololá	6	Junio	2023-09-06T00:00:00	2024-11-08T22:00:00	6	Velocidad del viento	1.6
28638	7	Sololá	701	Sololá	1	Sololá	6	Junio	2023-09-06T00:00:00	2024-11-08T22:00:00	7	Dirección del viento	1.61
28639	7	Sololá	701	Sololá	1	Sololá	6	Junio	2023-09-06T00:00:00	2024-11-08T22:00:00	1	Precipitación	0
28640	7	Sololá	701	Sololá	1	Sololá	6	Junio	2023-09-06T00:00:00	2024-11-08T22:00:00	8	Radiación solar	0
28641	7	Sololá	701	Sololá	1	Sololá	6	Junio	2023-09-06T00:00:00	2024-11-08T23:00:00	2	Temperatura media	17.1
28642	7	Sololá	701	Sololá	1	Sololá	6	Junio	2023-09-06T00:00:00	2024-11-08T23:00:00	4	Temperatura máxima	17.3
28643	7	Sololá	701	Sololá	1	Sololá	6	Junio	2023-09-06T00:00:00	2024-11-08T23:00:00	3	Temperatura mínima	17
28644	7	Sololá	701	Sololá	1	Sololá	6	Junio	2023-09-06T00:00:00	2024-11-08T23:00:00	5	Humedad	95
28645	7	Sololá	701	Sololá	1	Sololá	6	Junio	2023-09-06T00:00:00	2024-11-08T23:00:00	6	Velocidad del viento	0
28646	7	Sololá	701	Sololá	1	Sololá	6	Junio	2023-09-06T00:00:00	2024-11-08T23:00:00	7	Dirección del viento	0
28647	7	Sololá	701	Sololá	1	Sololá	6	Junio	2023-09-06T00:00:00	2024-11-08T23:00:00	1	Precipitación	0
28648	7	Sololá	701	Sololá	1	Sololá	6	Junio	2023-09-06T00:00:00	2024-11-08T23:00:00	8	Radiación solar	0
28649	7	Sololá	701	Sololá	1	Sololá	6	Junio	2023-10-06T00:00:00	2024-11-08T00:00:00	2	Temperatura media	16.7
28650	7	Sololá	701	Sololá	1	Sololá	6	Junio	2023-10-06T00:00:00	2024-11-08T00:00:00	4	Temperatura máxima	17.2
28651	7	Sololá	701	Sololá	1	Sololá	6	Junio	2023-10-06T00:00:00	2024-11-08T00:00:00	3	Temperatura mínima	16.7
28652	7	Sololá	701	Sololá	1	Sololá	6	Junio	2023-10-06T00:00:00	2024-11-08T00:00:00	5	Humedad	94
28653	7	Sololá	701	Sololá	1	Sololá	6	Junio	2023-10-06T00:00:00	2024-11-08T00:00:00	6	Velocidad del viento	1.6
28654	7	Sololá	701	Sololá	1	Sololá	6	Junio	2023-10-06T00:00:00	2024-11-08T00:00:00	7	Dirección del viento	1.61
28655	7	Sololá	701	Sololá	1	Sololá	6	Junio	2023-10-06T00:00:00	2024-11-08T00:00:00	1	Precipitación	0
28656	7	Sololá	701	Sololá	1	Sololá	6	Junio	2023-10-06T00:00:00	2024-11-08T00:00:00	8	Radiación solar	0
28657	7	Sololá	701	Sololá	1	Sololá	6	Junio	2023-10-06T00:00:00	2024-11-08T01:00:00	2	Temperatura media	16.5
28658	7	Sololá	701	Sololá	1	Sololá	6	Junio	2023-10-06T00:00:00	2024-11-08T01:00:00	4	Temperatura máxima	16.9
28659	7	Sololá	701	Sololá	1	Sololá	6	Junio	2023-10-06T00:00:00	2024-11-08T01:00:00	3	Temperatura mínima	16.5
28660	7	Sololá	701	Sololá	1	Sololá	6	Junio	2023-10-06T00:00:00	2024-11-08T01:00:00	5	Humedad	93
28661	7	Sololá	701	Sololá	1	Sololá	6	Junio	2023-10-06T00:00:00	2024-11-08T01:00:00	6	Velocidad del viento	1.6
28662	7	Sololá	701	Sololá	1	Sololá	6	Junio	2023-10-06T00:00:00	2024-11-08T01:00:00	7	Dirección del viento	1.61
28663	7	Sololá	701	Sololá	1	Sololá	6	Junio	2023-10-06T00:00:00	2024-11-08T01:00:00	1	Precipitación	0
28664	7	Sololá	701	Sololá	1	Sololá	6	Junio	2023-10-06T00:00:00	2024-11-08T01:00:00	8	Radiación solar	0
28665	7	Sololá	701	Sololá	1	Sololá	6	Junio	2023-10-06T00:00:00	2024-11-08T02:00:00	2	Temperatura media	16.4
28666	7	Sololá	701	Sololá	1	Sololá	6	Junio	2023-10-06T00:00:00	2024-11-08T02:00:00	4	Temperatura máxima	17.3
28667	7	Sololá	701	Sololá	1	Sololá	6	Junio	2023-10-06T00:00:00	2024-11-08T02:00:00	3	Temperatura mínima	16.2
28668	7	Sololá	701	Sololá	1	Sololá	6	Junio	2023-10-06T00:00:00	2024-11-08T02:00:00	5	Humedad	88
28669	7	Sololá	701	Sololá	1	Sololá	6	Junio	2023-10-06T00:00:00	2024-11-08T02:00:00	6	Velocidad del viento	3.2
28670	7	Sololá	701	Sololá	1	Sololá	6	Junio	2023-10-06T00:00:00	2024-11-08T02:00:00	7	Dirección del viento	3.22
28671	7	Sololá	701	Sololá	1	Sololá	6	Junio	2023-10-06T00:00:00	2024-11-08T02:00:00	1	Precipitación	0
28672	7	Sololá	701	Sololá	1	Sololá	6	Junio	2023-10-06T00:00:00	2024-11-08T02:00:00	8	Radiación solar	0
28673	7	Sololá	701	Sololá	1	Sololá	6	Junio	2023-10-06T00:00:00	2024-11-08T03:00:00	2	Temperatura media	15.8
28674	7	Sololá	701	Sololá	1	Sololá	6	Junio	2023-10-06T00:00:00	2024-11-08T03:00:00	4	Temperatura máxima	16.9
28675	7	Sololá	701	Sololá	1	Sololá	6	Junio	2023-10-06T00:00:00	2024-11-08T03:00:00	3	Temperatura mínima	15.8
28676	7	Sololá	701	Sololá	1	Sololá	6	Junio	2023-10-06T00:00:00	2024-11-08T03:00:00	5	Humedad	88
28677	7	Sololá	701	Sololá	1	Sololá	6	Junio	2023-10-06T00:00:00	2024-11-08T03:00:00	6	Velocidad del viento	1.6
28678	7	Sololá	701	Sololá	1	Sololá	6	Junio	2023-10-06T00:00:00	2024-11-08T03:00:00	7	Dirección del viento	1.61
28679	7	Sololá	701	Sololá	1	Sololá	6	Junio	2023-10-06T00:00:00	2024-11-08T03:00:00	1	Precipitación	0
28680	7	Sololá	701	Sololá	1	Sololá	6	Junio	2023-10-06T00:00:00	2024-11-08T03:00:00	8	Radiación solar	0
28681	7	Sololá	701	Sololá	1	Sololá	6	Junio	2023-10-06T00:00:00	2024-11-08T04:00:00	2	Temperatura media	14.9
28682	7	Sololá	701	Sololá	1	Sololá	6	Junio	2023-10-06T00:00:00	2024-11-08T04:00:00	4	Temperatura máxima	15.8
28683	7	Sololá	701	Sololá	1	Sololá	6	Junio	2023-10-06T00:00:00	2024-11-08T04:00:00	3	Temperatura mínima	14.6
28684	7	Sololá	701	Sololá	1	Sololá	6	Junio	2023-10-06T00:00:00	2024-11-08T04:00:00	5	Humedad	88
28685	7	Sololá	701	Sololá	1	Sololá	6	Junio	2023-10-06T00:00:00	2024-11-08T04:00:00	6	Velocidad del viento	3.2
28686	7	Sololá	701	Sololá	1	Sololá	6	Junio	2023-10-06T00:00:00	2024-11-08T04:00:00	7	Dirección del viento	3.22
28687	7	Sololá	701	Sololá	1	Sololá	6	Junio	2023-10-06T00:00:00	2024-11-08T04:00:00	1	Precipitación	0
28688	7	Sololá	701	Sololá	1	Sololá	6	Junio	2023-10-06T00:00:00	2024-11-08T04:00:00	8	Radiación solar	0
28689	7	Sololá	701	Sololá	1	Sololá	6	Junio	2023-10-06T00:00:00	2024-11-08T05:00:00	2	Temperatura media	15.4
28690	7	Sololá	701	Sololá	1	Sololá	6	Junio	2023-10-06T00:00:00	2024-11-08T05:00:00	4	Temperatura máxima	15.4
28691	7	Sololá	701	Sololá	1	Sololá	6	Junio	2023-10-06T00:00:00	2024-11-08T05:00:00	3	Temperatura mínima	14.5
28692	7	Sololá	701	Sololá	1	Sololá	6	Junio	2023-10-06T00:00:00	2024-11-08T05:00:00	5	Humedad	84
28693	7	Sololá	701	Sololá	1	Sololá	6	Junio	2023-10-06T00:00:00	2024-11-08T05:00:00	6	Velocidad del viento	4.8
28694	7	Sololá	701	Sololá	1	Sololá	6	Junio	2023-10-06T00:00:00	2024-11-08T05:00:00	7	Dirección del viento	4.83
28695	7	Sololá	701	Sololá	1	Sololá	6	Junio	2023-10-06T00:00:00	2024-11-08T05:00:00	1	Precipitación	0
28696	7	Sololá	701	Sololá	1	Sololá	6	Junio	2023-10-06T00:00:00	2024-11-08T05:00:00	8	Radiación solar	0
28697	7	Sololá	701	Sololá	1	Sololá	6	Junio	2023-10-06T00:00:00	2024-11-08T06:00:00	2	Temperatura media	13.8
28698	7	Sololá	701	Sololá	1	Sololá	6	Junio	2023-10-06T00:00:00	2024-11-08T06:00:00	4	Temperatura máxima	15.6
28699	7	Sololá	701	Sololá	1	Sololá	6	Junio	2023-10-06T00:00:00	2024-11-08T06:00:00	3	Temperatura mínima	13.4
28700	7	Sololá	701	Sololá	1	Sololá	6	Junio	2023-10-06T00:00:00	2024-11-08T06:00:00	5	Humedad	87
28701	7	Sololá	701	Sololá	1	Sololá	6	Junio	2023-10-06T00:00:00	2024-11-08T06:00:00	6	Velocidad del viento	4.8
28702	7	Sololá	701	Sololá	1	Sololá	6	Junio	2023-10-06T00:00:00	2024-11-08T06:00:00	7	Dirección del viento	4.83
28703	7	Sololá	701	Sololá	1	Sololá	6	Junio	2023-10-06T00:00:00	2024-11-08T06:00:00	1	Precipitación	0
28704	7	Sololá	701	Sololá	1	Sololá	6	Junio	2023-10-06T00:00:00	2024-11-08T06:00:00	8	Radiación solar	2
28705	7	Sololá	701	Sololá	1	Sololá	6	Junio	2023-10-06T00:00:00	2024-11-08T07:00:00	2	Temperatura media	15.4
28706	7	Sololá	701	Sololá	1	Sololá	6	Junio	2023-10-06T00:00:00	2024-11-08T07:00:00	4	Temperatura máxima	15.4
28707	7	Sololá	701	Sololá	1	Sololá	6	Junio	2023-10-06T00:00:00	2024-11-08T07:00:00	3	Temperatura mínima	13.7
28708	7	Sololá	701	Sololá	1	Sololá	6	Junio	2023-10-06T00:00:00	2024-11-08T07:00:00	5	Humedad	81
28709	7	Sololá	701	Sololá	1	Sololá	6	Junio	2023-10-06T00:00:00	2024-11-08T07:00:00	6	Velocidad del viento	8
28710	7	Sololá	701	Sololá	1	Sololá	6	Junio	2023-10-06T00:00:00	2024-11-08T07:00:00	7	Dirección del viento	8.05
28711	7	Sololá	701	Sololá	1	Sololá	6	Junio	2023-10-06T00:00:00	2024-11-08T07:00:00	1	Precipitación	0
28712	7	Sololá	701	Sololá	1	Sololá	6	Junio	2023-10-06T00:00:00	2024-11-08T07:00:00	8	Radiación solar	56
28713	7	Sololá	701	Sololá	1	Sololá	6	Junio	2023-10-06T00:00:00	2024-11-08T08:00:00	2	Temperatura media	20.1
28714	7	Sololá	701	Sololá	1	Sololá	6	Junio	2023-10-06T00:00:00	2024-11-08T08:00:00	4	Temperatura máxima	20.1
28715	7	Sololá	701	Sololá	1	Sololá	6	Junio	2023-10-06T00:00:00	2024-11-08T08:00:00	3	Temperatura mínima	15.4
28716	7	Sololá	701	Sololá	1	Sololá	6	Junio	2023-10-06T00:00:00	2024-11-08T08:00:00	5	Humedad	64
28717	7	Sololá	701	Sololá	1	Sololá	6	Junio	2023-10-06T00:00:00	2024-11-08T08:00:00	6	Velocidad del viento	4.8
28718	7	Sololá	701	Sololá	1	Sololá	6	Junio	2023-10-06T00:00:00	2024-11-08T08:00:00	7	Dirección del viento	4.83
28719	7	Sololá	701	Sololá	1	Sololá	6	Junio	2023-10-06T00:00:00	2024-11-08T08:00:00	1	Precipitación	0
28720	7	Sololá	701	Sololá	1	Sololá	6	Junio	2023-10-06T00:00:00	2024-11-08T08:00:00	8	Radiación solar	149
28721	7	Sololá	701	Sololá	1	Sololá	6	Junio	2023-10-06T00:00:00	2024-11-08T09:00:00	2	Temperatura media	20.3
28722	7	Sololá	701	Sololá	1	Sololá	6	Junio	2023-10-06T00:00:00	2024-11-08T09:00:00	4	Temperatura máxima	20.6
28723	7	Sololá	701	Sololá	1	Sololá	6	Junio	2023-10-06T00:00:00	2024-11-08T09:00:00	3	Temperatura mínima	20
28724	7	Sololá	701	Sololá	1	Sololá	6	Junio	2023-10-06T00:00:00	2024-11-08T09:00:00	5	Humedad	78
28725	7	Sololá	701	Sololá	1	Sololá	6	Junio	2023-10-06T00:00:00	2024-11-08T09:00:00	6	Velocidad del viento	1.6
28726	7	Sololá	701	Sololá	1	Sololá	6	Junio	2023-10-06T00:00:00	2024-11-08T09:00:00	7	Dirección del viento	1.61
28727	7	Sololá	701	Sololá	1	Sololá	6	Junio	2023-10-06T00:00:00	2024-11-08T09:00:00	1	Precipitación	0
28728	7	Sololá	701	Sololá	1	Sololá	6	Junio	2023-10-06T00:00:00	2024-11-08T09:00:00	8	Radiación solar	214
28729	7	Sololá	701	Sololá	1	Sololá	6	Junio	2023-10-06T00:00:00	2024-11-08T10:00:00	2	Temperatura media	22.1
28730	7	Sololá	701	Sololá	1	Sololá	6	Junio	2023-10-06T00:00:00	2024-11-08T10:00:00	4	Temperatura máxima	22.4
28731	7	Sololá	701	Sololá	1	Sololá	6	Junio	2023-10-06T00:00:00	2024-11-08T10:00:00	3	Temperatura mínima	20.3
28732	7	Sololá	701	Sololá	1	Sololá	6	Junio	2023-10-06T00:00:00	2024-11-08T10:00:00	5	Humedad	68
28733	7	Sololá	701	Sololá	1	Sololá	6	Junio	2023-10-06T00:00:00	2024-11-08T10:00:00	6	Velocidad del viento	3.2
28734	7	Sololá	701	Sololá	1	Sololá	6	Junio	2023-10-06T00:00:00	2024-11-08T10:00:00	7	Dirección del viento	3.22
28735	7	Sololá	701	Sololá	1	Sololá	6	Junio	2023-10-06T00:00:00	2024-11-08T10:00:00	1	Precipitación	0
28736	7	Sololá	701	Sololá	1	Sololá	6	Junio	2023-10-06T00:00:00	2024-11-08T10:00:00	8	Radiación solar	225
28737	7	Sololá	701	Sololá	1	Sololá	6	Junio	2023-10-06T00:00:00	2024-11-08T11:00:00	2	Temperatura media	20.4
28738	7	Sololá	701	Sololá	1	Sololá	6	Junio	2023-10-06T00:00:00	2024-11-08T11:00:00	4	Temperatura máxima	22.1
28739	7	Sololá	701	Sololá	1	Sololá	6	Junio	2023-10-06T00:00:00	2024-11-08T11:00:00	3	Temperatura mínima	20.4
28740	7	Sololá	701	Sololá	1	Sololá	6	Junio	2023-10-06T00:00:00	2024-11-08T11:00:00	5	Humedad	81
28741	7	Sololá	701	Sololá	1	Sololá	6	Junio	2023-10-06T00:00:00	2024-11-08T11:00:00	6	Velocidad del viento	6.4
28742	7	Sololá	701	Sololá	1	Sololá	6	Junio	2023-10-06T00:00:00	2024-11-08T11:00:00	7	Dirección del viento	6.44
28743	7	Sololá	701	Sololá	1	Sololá	6	Junio	2023-10-06T00:00:00	2024-11-08T11:00:00	1	Precipitación	0
28744	7	Sololá	701	Sololá	1	Sololá	6	Junio	2023-10-06T00:00:00	2024-11-08T11:00:00	8	Radiación solar	318
28745	7	Sololá	701	Sololá	1	Sololá	6	Junio	2023-10-06T00:00:00	2024-11-08T12:00:00	2	Temperatura media	20.1
28746	7	Sololá	701	Sololá	1	Sololá	6	Junio	2023-10-06T00:00:00	2024-11-08T12:00:00	4	Temperatura máxima	21
28747	7	Sololá	701	Sololá	1	Sololá	6	Junio	2023-10-06T00:00:00	2024-11-08T12:00:00	3	Temperatura mínima	20
28748	7	Sololá	701	Sololá	1	Sololá	6	Junio	2023-10-06T00:00:00	2024-11-08T12:00:00	5	Humedad	82
28749	7	Sololá	701	Sololá	1	Sololá	6	Junio	2023-10-06T00:00:00	2024-11-08T12:00:00	6	Velocidad del viento	4.8
28750	7	Sololá	701	Sololá	1	Sololá	6	Junio	2023-10-06T00:00:00	2024-11-08T12:00:00	7	Dirección del viento	4.83
28751	7	Sololá	701	Sololá	1	Sololá	6	Junio	2023-10-06T00:00:00	2024-11-08T12:00:00	1	Precipitación	0
28752	7	Sololá	701	Sololá	1	Sololá	6	Junio	2023-10-06T00:00:00	2024-11-08T12:00:00	8	Radiación solar	399
28753	7	Sololá	701	Sololá	1	Sololá	6	Junio	2023-10-06T00:00:00	2024-11-08T13:00:00	2	Temperatura media	19.7
28754	7	Sololá	701	Sololá	1	Sololá	6	Junio	2023-10-06T00:00:00	2024-11-08T13:00:00	4	Temperatura máxima	20.6
28755	7	Sololá	701	Sololá	1	Sololá	6	Junio	2023-10-06T00:00:00	2024-11-08T13:00:00	3	Temperatura mínima	19.6
28756	7	Sololá	701	Sololá	1	Sololá	6	Junio	2023-10-06T00:00:00	2024-11-08T13:00:00	5	Humedad	86
28757	7	Sololá	701	Sololá	1	Sololá	6	Junio	2023-10-06T00:00:00	2024-11-08T13:00:00	6	Velocidad del viento	4.8
28758	7	Sololá	701	Sololá	1	Sololá	6	Junio	2023-10-06T00:00:00	2024-11-08T13:00:00	7	Dirección del viento	4.83
28759	7	Sololá	701	Sololá	1	Sololá	6	Junio	2023-10-06T00:00:00	2024-11-08T13:00:00	1	Precipitación	0
28760	7	Sololá	701	Sololá	1	Sololá	6	Junio	2023-10-06T00:00:00	2024-11-08T13:00:00	8	Radiación solar	343
28761	7	Sololá	701	Sololá	1	Sololá	6	Junio	2023-10-06T00:00:00	2024-11-08T14:00:00	2	Temperatura media	21
28762	7	Sololá	701	Sololá	1	Sololá	6	Junio	2023-10-06T00:00:00	2024-11-08T14:00:00	4	Temperatura máxima	21.8
28763	7	Sololá	701	Sololá	1	Sololá	6	Junio	2023-10-06T00:00:00	2024-11-08T14:00:00	3	Temperatura mínima	19.7
28764	7	Sololá	701	Sololá	1	Sololá	6	Junio	2023-10-06T00:00:00	2024-11-08T14:00:00	5	Humedad	81
28765	7	Sololá	701	Sololá	1	Sololá	6	Junio	2023-10-06T00:00:00	2024-11-08T14:00:00	6	Velocidad del viento	4.8
28766	7	Sololá	701	Sololá	1	Sololá	6	Junio	2023-10-06T00:00:00	2024-11-08T14:00:00	7	Dirección del viento	4.83
28767	7	Sololá	701	Sololá	1	Sololá	6	Junio	2023-10-06T00:00:00	2024-11-08T14:00:00	1	Precipitación	0
28768	7	Sololá	701	Sololá	1	Sololá	6	Junio	2023-10-06T00:00:00	2024-11-08T14:00:00	8	Radiación solar	407
28769	7	Sololá	701	Sololá	1	Sololá	6	Junio	2023-10-06T00:00:00	2024-11-08T15:00:00	2	Temperatura media	19.4
28770	7	Sololá	701	Sololá	1	Sololá	6	Junio	2023-10-06T00:00:00	2024-11-08T15:00:00	4	Temperatura máxima	21.1
28771	7	Sololá	701	Sololá	1	Sololá	6	Junio	2023-10-06T00:00:00	2024-11-08T15:00:00	3	Temperatura mínima	19.3
28772	7	Sololá	701	Sololá	1	Sololá	6	Junio	2023-10-06T00:00:00	2024-11-08T15:00:00	5	Humedad	86
28773	7	Sololá	701	Sololá	1	Sololá	6	Junio	2023-10-06T00:00:00	2024-11-08T15:00:00	6	Velocidad del viento	4.8
28774	7	Sololá	701	Sololá	1	Sololá	6	Junio	2023-10-06T00:00:00	2024-11-08T15:00:00	7	Dirección del viento	4.83
28775	7	Sololá	701	Sololá	1	Sololá	6	Junio	2023-10-06T00:00:00	2024-11-08T15:00:00	1	Precipitación	0
28776	7	Sololá	701	Sololá	1	Sololá	6	Junio	2023-10-06T00:00:00	2024-11-08T15:00:00	8	Radiación solar	213
28777	7	Sololá	701	Sololá	1	Sololá	6	Junio	2023-10-06T00:00:00	2024-11-08T16:00:00	2	Temperatura media	17.2
28778	7	Sololá	701	Sololá	1	Sololá	6	Junio	2023-10-06T00:00:00	2024-11-08T16:00:00	4	Temperatura máxima	19.4
28779	7	Sololá	701	Sololá	1	Sololá	6	Junio	2023-10-06T00:00:00	2024-11-08T16:00:00	3	Temperatura mínima	17.2
28780	7	Sololá	701	Sololá	1	Sololá	6	Junio	2023-10-06T00:00:00	2024-11-08T16:00:00	5	Humedad	90
28781	7	Sololá	701	Sololá	1	Sololá	6	Junio	2023-10-06T00:00:00	2024-11-08T16:00:00	6	Velocidad del viento	4.8
28782	7	Sololá	701	Sololá	1	Sololá	6	Junio	2023-10-06T00:00:00	2024-11-08T16:00:00	7	Dirección del viento	4.83
28783	7	Sololá	701	Sololá	1	Sololá	6	Junio	2023-10-06T00:00:00	2024-11-08T16:00:00	1	Precipitación	0
28784	7	Sololá	701	Sololá	1	Sololá	6	Junio	2023-10-06T00:00:00	2024-11-08T16:00:00	8	Radiación solar	110
28785	7	Sololá	701	Sololá	1	Sololá	6	Junio	2023-10-06T00:00:00	2024-11-08T17:00:00	2	Temperatura media	17.3
28786	7	Sololá	701	Sololá	1	Sololá	6	Junio	2023-10-06T00:00:00	2024-11-08T17:00:00	4	Temperatura máxima	17.3
28787	7	Sololá	701	Sololá	1	Sololá	6	Junio	2023-10-06T00:00:00	2024-11-08T17:00:00	3	Temperatura mínima	16.9
28788	7	Sololá	701	Sololá	1	Sololá	6	Junio	2023-10-06T00:00:00	2024-11-08T17:00:00	5	Humedad	90
28789	7	Sololá	701	Sololá	1	Sololá	6	Junio	2023-10-06T00:00:00	2024-11-08T17:00:00	6	Velocidad del viento	3.2
28790	7	Sololá	701	Sololá	1	Sololá	6	Junio	2023-10-06T00:00:00	2024-11-08T17:00:00	7	Dirección del viento	3.22
28791	7	Sololá	701	Sololá	1	Sololá	6	Junio	2023-10-06T00:00:00	2024-11-08T17:00:00	1	Precipitación	0
28792	7	Sololá	701	Sololá	1	Sololá	6	Junio	2023-10-06T00:00:00	2024-11-08T17:00:00	8	Radiación solar	140
28793	7	Sololá	701	Sololá	1	Sololá	6	Junio	2023-10-06T00:00:00	2024-11-08T18:00:00	2	Temperatura media	17.3
28794	7	Sololá	701	Sololá	1	Sololá	6	Junio	2023-10-06T00:00:00	2024-11-08T18:00:00	4	Temperatura máxima	17.8
28795	7	Sololá	701	Sololá	1	Sololá	6	Junio	2023-10-06T00:00:00	2024-11-08T18:00:00	3	Temperatura mínima	17.3
28796	7	Sololá	701	Sololá	1	Sololá	6	Junio	2023-10-06T00:00:00	2024-11-08T18:00:00	5	Humedad	89
28797	7	Sololá	701	Sololá	1	Sololá	6	Junio	2023-10-06T00:00:00	2024-11-08T18:00:00	6	Velocidad del viento	1.6
28798	7	Sololá	701	Sololá	1	Sololá	6	Junio	2023-10-06T00:00:00	2024-11-08T18:00:00	7	Dirección del viento	1.61
28799	7	Sololá	701	Sololá	1	Sololá	6	Junio	2023-10-06T00:00:00	2024-11-08T18:00:00	1	Precipitación	0
28800	7	Sololá	701	Sololá	1	Sololá	6	Junio	2023-10-06T00:00:00	2024-11-08T18:00:00	8	Radiación solar	26
28801	7	Sololá	701	Sololá	1	Sololá	6	Junio	2023-10-06T00:00:00	2024-11-08T19:00:00	2	Temperatura media	17.3
28802	7	Sololá	701	Sololá	1	Sololá	6	Junio	2023-10-06T00:00:00	2024-11-08T19:00:00	4	Temperatura máxima	17.8
28803	7	Sololá	701	Sololá	1	Sololá	6	Junio	2023-10-06T00:00:00	2024-11-08T19:00:00	3	Temperatura mínima	17.2
28804	7	Sololá	701	Sololá	1	Sololá	6	Junio	2023-10-06T00:00:00	2024-11-08T19:00:00	5	Humedad	89
28805	7	Sololá	701	Sololá	1	Sololá	6	Junio	2023-10-06T00:00:00	2024-11-08T19:00:00	6	Velocidad del viento	3.2
28806	7	Sololá	701	Sololá	1	Sololá	6	Junio	2023-10-06T00:00:00	2024-11-08T19:00:00	7	Dirección del viento	3.22
28807	7	Sololá	701	Sololá	1	Sololá	6	Junio	2023-10-06T00:00:00	2024-11-08T19:00:00	1	Precipitación	0
28808	7	Sololá	701	Sololá	1	Sololá	6	Junio	2023-10-06T00:00:00	2024-11-08T19:00:00	8	Radiación solar	0
28809	7	Sololá	701	Sololá	1	Sololá	6	Junio	2023-10-06T00:00:00	2024-11-08T20:00:00	2	Temperatura media	18.1
28810	7	Sololá	701	Sololá	1	Sololá	6	Junio	2023-10-06T00:00:00	2024-11-08T20:00:00	4	Temperatura máxima	18.2
28811	7	Sololá	701	Sololá	1	Sololá	6	Junio	2023-10-06T00:00:00	2024-11-08T20:00:00	3	Temperatura mínima	17.3
28812	7	Sololá	701	Sololá	1	Sololá	6	Junio	2023-10-06T00:00:00	2024-11-08T20:00:00	5	Humedad	82
28813	7	Sololá	701	Sololá	1	Sololá	6	Junio	2023-10-06T00:00:00	2024-11-08T20:00:00	6	Velocidad del viento	3.2
28814	7	Sololá	701	Sololá	1	Sololá	6	Junio	2023-10-06T00:00:00	2024-11-08T20:00:00	7	Dirección del viento	3.22
28815	7	Sololá	701	Sololá	1	Sololá	6	Junio	2023-10-06T00:00:00	2024-11-08T20:00:00	1	Precipitación	0
28816	7	Sololá	701	Sololá	1	Sololá	6	Junio	2023-10-06T00:00:00	2024-11-08T20:00:00	8	Radiación solar	0
28817	7	Sololá	701	Sololá	1	Sololá	6	Junio	2023-10-06T00:00:00	2024-11-08T21:00:00	2	Temperatura media	17.4
28818	7	Sololá	701	Sololá	1	Sololá	6	Junio	2023-10-06T00:00:00	2024-11-08T21:00:00	4	Temperatura máxima	18.1
28819	7	Sololá	701	Sololá	1	Sololá	6	Junio	2023-10-06T00:00:00	2024-11-08T21:00:00	3	Temperatura mínima	17.4
28820	7	Sololá	701	Sololá	1	Sololá	6	Junio	2023-10-06T00:00:00	2024-11-08T21:00:00	5	Humedad	84
28821	7	Sololá	701	Sololá	1	Sololá	6	Junio	2023-10-06T00:00:00	2024-11-08T21:00:00	6	Velocidad del viento	3.2
28822	7	Sololá	701	Sololá	1	Sololá	6	Junio	2023-10-06T00:00:00	2024-11-08T21:00:00	7	Dirección del viento	3.22
28823	7	Sololá	701	Sololá	1	Sololá	6	Junio	2023-10-06T00:00:00	2024-11-08T21:00:00	1	Precipitación	0
28824	7	Sololá	701	Sololá	1	Sololá	6	Junio	2023-10-06T00:00:00	2024-11-08T21:00:00	8	Radiación solar	0
28825	7	Sololá	701	Sololá	1	Sololá	6	Junio	2023-10-06T00:00:00	2024-11-08T22:00:00	2	Temperatura media	17
28826	7	Sololá	701	Sololá	1	Sololá	6	Junio	2023-10-06T00:00:00	2024-11-08T22:00:00	4	Temperatura máxima	17.4
28827	7	Sololá	701	Sololá	1	Sololá	6	Junio	2023-10-06T00:00:00	2024-11-08T22:00:00	3	Temperatura mínima	17
28828	7	Sololá	701	Sololá	1	Sololá	6	Junio	2023-10-06T00:00:00	2024-11-08T22:00:00	5	Humedad	84
28829	7	Sololá	701	Sololá	1	Sololá	6	Junio	2023-10-06T00:00:00	2024-11-08T22:00:00	6	Velocidad del viento	3.2
28830	7	Sololá	701	Sololá	1	Sololá	6	Junio	2023-10-06T00:00:00	2024-11-08T22:00:00	7	Dirección del viento	3.22
28831	7	Sololá	701	Sololá	1	Sololá	6	Junio	2023-10-06T00:00:00	2024-11-08T22:00:00	1	Precipitación	0
28832	7	Sololá	701	Sololá	1	Sololá	6	Junio	2023-10-06T00:00:00	2024-11-08T22:00:00	8	Radiación solar	0
28833	7	Sololá	701	Sololá	1	Sololá	6	Junio	2023-10-06T00:00:00	2024-11-08T23:00:00	2	Temperatura media	17.1
28834	7	Sololá	701	Sololá	1	Sololá	6	Junio	2023-10-06T00:00:00	2024-11-08T23:00:00	4	Temperatura máxima	17.1
28835	7	Sololá	701	Sololá	1	Sololá	6	Junio	2023-10-06T00:00:00	2024-11-08T23:00:00	3	Temperatura mínima	16.7
28836	7	Sololá	701	Sololá	1	Sololá	6	Junio	2023-10-06T00:00:00	2024-11-08T23:00:00	5	Humedad	84
28837	7	Sololá	701	Sololá	1	Sololá	6	Junio	2023-10-06T00:00:00	2024-11-08T23:00:00	6	Velocidad del viento	3.2
28838	7	Sololá	701	Sololá	1	Sololá	6	Junio	2023-10-06T00:00:00	2024-11-08T23:00:00	7	Dirección del viento	3.22
28839	7	Sololá	701	Sololá	1	Sololá	6	Junio	2023-10-06T00:00:00	2024-11-08T23:00:00	1	Precipitación	0
28840	7	Sololá	701	Sololá	1	Sololá	6	Junio	2023-10-06T00:00:00	2024-11-08T23:00:00	8	Radiación solar	0
28841	7	Sololá	701	Sololá	1	Sololá	6	Junio	2023-11-06T00:00:00	2024-11-08T00:00:00	2	Temperatura media	17
28842	7	Sololá	701	Sololá	1	Sololá	6	Junio	2023-11-06T00:00:00	2024-11-08T00:00:00	4	Temperatura máxima	17.3
28843	7	Sololá	701	Sololá	1	Sololá	6	Junio	2023-11-06T00:00:00	2024-11-08T00:00:00	3	Temperatura mínima	16.6
28844	7	Sololá	701	Sololá	1	Sololá	6	Junio	2023-11-06T00:00:00	2024-11-08T00:00:00	5	Humedad	85
28845	7	Sololá	701	Sololá	1	Sololá	6	Junio	2023-11-06T00:00:00	2024-11-08T00:00:00	6	Velocidad del viento	1.6
28846	7	Sololá	701	Sololá	1	Sololá	6	Junio	2023-11-06T00:00:00	2024-11-08T00:00:00	7	Dirección del viento	1.61
28847	7	Sololá	701	Sololá	1	Sololá	6	Junio	2023-11-06T00:00:00	2024-11-08T00:00:00	1	Precipitación	0
28848	7	Sololá	701	Sololá	1	Sololá	6	Junio	2023-11-06T00:00:00	2024-11-08T00:00:00	8	Radiación solar	0
28849	7	Sololá	701	Sololá	1	Sololá	6	Junio	2023-11-06T00:00:00	2024-11-08T01:00:00	2	Temperatura media	16.4
28850	7	Sololá	701	Sololá	1	Sololá	6	Junio	2023-11-06T00:00:00	2024-11-08T01:00:00	4	Temperatura máxima	17.2
28851	7	Sololá	701	Sololá	1	Sololá	6	Junio	2023-11-06T00:00:00	2024-11-08T01:00:00	3	Temperatura mínima	16.4
28852	7	Sololá	701	Sololá	1	Sololá	6	Junio	2023-11-06T00:00:00	2024-11-08T01:00:00	5	Humedad	84
28853	7	Sololá	701	Sololá	1	Sololá	6	Junio	2023-11-06T00:00:00	2024-11-08T01:00:00	6	Velocidad del viento	4.8
28854	7	Sololá	701	Sololá	1	Sololá	6	Junio	2023-11-06T00:00:00	2024-11-08T01:00:00	7	Dirección del viento	4.83
28855	7	Sololá	701	Sololá	1	Sololá	6	Junio	2023-11-06T00:00:00	2024-11-08T01:00:00	1	Precipitación	0
28856	7	Sololá	701	Sololá	1	Sololá	6	Junio	2023-11-06T00:00:00	2024-11-08T01:00:00	8	Radiación solar	0
28857	7	Sololá	701	Sololá	1	Sololá	6	Junio	2023-11-06T00:00:00	2024-11-08T02:00:00	2	Temperatura media	15.2
28858	7	Sololá	701	Sololá	1	Sololá	6	Junio	2023-11-06T00:00:00	2024-11-08T02:00:00	4	Temperatura máxima	16.4
28859	7	Sololá	701	Sololá	1	Sololá	6	Junio	2023-11-06T00:00:00	2024-11-08T02:00:00	3	Temperatura mínima	15.2
28860	7	Sololá	701	Sololá	1	Sololá	6	Junio	2023-11-06T00:00:00	2024-11-08T02:00:00	5	Humedad	88
28861	7	Sololá	701	Sololá	1	Sololá	6	Junio	2023-11-06T00:00:00	2024-11-08T02:00:00	6	Velocidad del viento	0
28862	7	Sololá	701	Sololá	1	Sololá	6	Junio	2023-11-06T00:00:00	2024-11-08T02:00:00	7	Dirección del viento	0
28863	7	Sololá	701	Sololá	1	Sololá	6	Junio	2023-11-06T00:00:00	2024-11-08T02:00:00	1	Precipitación	0
28864	7	Sololá	701	Sololá	1	Sololá	6	Junio	2023-11-06T00:00:00	2024-11-08T02:00:00	8	Radiación solar	0
28865	7	Sololá	701	Sololá	1	Sololá	6	Junio	2023-11-06T00:00:00	2024-11-08T03:00:00	2	Temperatura media	14.9
28866	7	Sololá	701	Sololá	1	Sololá	6	Junio	2023-11-06T00:00:00	2024-11-08T03:00:00	4	Temperatura máxima	15.7
28867	7	Sololá	701	Sololá	1	Sololá	6	Junio	2023-11-06T00:00:00	2024-11-08T03:00:00	3	Temperatura mínima	14.9
28868	7	Sololá	701	Sololá	1	Sololá	6	Junio	2023-11-06T00:00:00	2024-11-08T03:00:00	5	Humedad	78
28869	7	Sololá	701	Sololá	1	Sololá	6	Junio	2023-11-06T00:00:00	2024-11-08T03:00:00	6	Velocidad del viento	3.2
28870	7	Sololá	701	Sololá	1	Sololá	6	Junio	2023-11-06T00:00:00	2024-11-08T03:00:00	7	Dirección del viento	3.22
28871	7	Sololá	701	Sololá	1	Sololá	6	Junio	2023-11-06T00:00:00	2024-11-08T03:00:00	1	Precipitación	0
28872	7	Sololá	701	Sololá	1	Sololá	6	Junio	2023-11-06T00:00:00	2024-11-08T03:00:00	8	Radiación solar	0
28873	7	Sololá	701	Sololá	1	Sololá	6	Junio	2023-11-06T00:00:00	2024-11-08T04:00:00	2	Temperatura media	13.7
28874	7	Sololá	701	Sololá	1	Sololá	6	Junio	2023-11-06T00:00:00	2024-11-08T04:00:00	4	Temperatura máxima	14.9
28875	7	Sololá	701	Sololá	1	Sololá	6	Junio	2023-11-06T00:00:00	2024-11-08T04:00:00	3	Temperatura mínima	13.7
28876	7	Sololá	701	Sololá	1	Sololá	6	Junio	2023-11-06T00:00:00	2024-11-08T04:00:00	5	Humedad	79
28877	7	Sololá	701	Sololá	1	Sololá	6	Junio	2023-11-06T00:00:00	2024-11-08T04:00:00	6	Velocidad del viento	3.2
28878	7	Sololá	701	Sololá	1	Sololá	6	Junio	2023-11-06T00:00:00	2024-11-08T04:00:00	7	Dirección del viento	3.22
28879	7	Sololá	701	Sololá	1	Sololá	6	Junio	2023-11-06T00:00:00	2024-11-08T04:00:00	1	Precipitación	0
28880	7	Sololá	701	Sololá	1	Sololá	6	Junio	2023-11-06T00:00:00	2024-11-08T04:00:00	8	Radiación solar	0
28881	7	Sololá	701	Sololá	1	Sololá	6	Junio	2023-11-06T00:00:00	2024-11-08T05:00:00	2	Temperatura media	13.3
28882	7	Sololá	701	Sololá	1	Sololá	6	Junio	2023-11-06T00:00:00	2024-11-08T05:00:00	4	Temperatura máxima	13.9
28883	7	Sololá	701	Sololá	1	Sololá	6	Junio	2023-11-06T00:00:00	2024-11-08T05:00:00	3	Temperatura mínima	13.3
28884	7	Sololá	701	Sololá	1	Sololá	6	Junio	2023-11-06T00:00:00	2024-11-08T05:00:00	5	Humedad	80
28885	7	Sololá	701	Sololá	1	Sololá	6	Junio	2023-11-06T00:00:00	2024-11-08T05:00:00	6	Velocidad del viento	1.6
28886	7	Sololá	701	Sololá	1	Sololá	6	Junio	2023-11-06T00:00:00	2024-11-08T05:00:00	7	Dirección del viento	1.61
28887	7	Sololá	701	Sololá	1	Sololá	6	Junio	2023-11-06T00:00:00	2024-11-08T05:00:00	1	Precipitación	0
28888	7	Sololá	701	Sololá	1	Sololá	6	Junio	2023-11-06T00:00:00	2024-11-08T05:00:00	8	Radiación solar	0
28889	7	Sololá	701	Sololá	1	Sololá	6	Junio	2023-11-06T00:00:00	2024-11-08T06:00:00	2	Temperatura media	12.7
28890	7	Sololá	701	Sololá	1	Sololá	6	Junio	2023-11-06T00:00:00	2024-11-08T06:00:00	4	Temperatura máxima	13.3
28891	7	Sololá	701	Sololá	1	Sololá	6	Junio	2023-11-06T00:00:00	2024-11-08T06:00:00	3	Temperatura mínima	12.4
28892	7	Sololá	701	Sololá	1	Sololá	6	Junio	2023-11-06T00:00:00	2024-11-08T06:00:00	5	Humedad	74
28893	7	Sololá	701	Sololá	1	Sololá	6	Junio	2023-11-06T00:00:00	2024-11-08T06:00:00	6	Velocidad del viento	6.4
28894	7	Sololá	701	Sololá	1	Sololá	6	Junio	2023-11-06T00:00:00	2024-11-08T06:00:00	7	Dirección del viento	6.44
28895	7	Sololá	701	Sololá	1	Sololá	6	Junio	2023-11-06T00:00:00	2024-11-08T06:00:00	1	Precipitación	0
28896	7	Sololá	701	Sololá	1	Sololá	6	Junio	2023-11-06T00:00:00	2024-11-08T06:00:00	8	Radiación solar	4
28897	7	Sololá	701	Sololá	1	Sololá	6	Junio	2023-11-06T00:00:00	2024-11-08T07:00:00	2	Temperatura media	16.1
28898	7	Sololá	701	Sololá	1	Sololá	6	Junio	2023-11-06T00:00:00	2024-11-08T07:00:00	4	Temperatura máxima	16.1
28899	7	Sololá	701	Sololá	1	Sololá	6	Junio	2023-11-06T00:00:00	2024-11-08T07:00:00	3	Temperatura mínima	12.7
28900	7	Sololá	701	Sololá	1	Sololá	6	Junio	2023-11-06T00:00:00	2024-11-08T07:00:00	5	Humedad	66
28901	7	Sololá	701	Sololá	1	Sololá	6	Junio	2023-11-06T00:00:00	2024-11-08T07:00:00	6	Velocidad del viento	3.2
28902	7	Sololá	701	Sololá	1	Sololá	6	Junio	2023-11-06T00:00:00	2024-11-08T07:00:00	7	Dirección del viento	3.22
28903	7	Sololá	701	Sololá	1	Sololá	6	Junio	2023-11-06T00:00:00	2024-11-08T07:00:00	1	Precipitación	0
28904	7	Sololá	701	Sololá	1	Sololá	6	Junio	2023-11-06T00:00:00	2024-11-08T07:00:00	8	Radiación solar	34
28905	7	Sololá	701	Sololá	1	Sololá	6	Junio	2023-11-06T00:00:00	2024-11-08T08:00:00	2	Temperatura media	19.1
28906	7	Sololá	701	Sololá	1	Sololá	6	Junio	2023-11-06T00:00:00	2024-11-08T08:00:00	4	Temperatura máxima	19.1
28907	7	Sololá	701	Sololá	1	Sololá	6	Junio	2023-11-06T00:00:00	2024-11-08T08:00:00	3	Temperatura mínima	16.1
28908	7	Sololá	701	Sololá	1	Sololá	6	Junio	2023-11-06T00:00:00	2024-11-08T08:00:00	5	Humedad	63
28909	7	Sololá	701	Sololá	1	Sololá	6	Junio	2023-11-06T00:00:00	2024-11-08T08:00:00	6	Velocidad del viento	4.8
28910	7	Sololá	701	Sololá	1	Sololá	6	Junio	2023-11-06T00:00:00	2024-11-08T08:00:00	7	Dirección del viento	4.83
28911	7	Sololá	701	Sololá	1	Sololá	6	Junio	2023-11-06T00:00:00	2024-11-08T08:00:00	1	Precipitación	0
28912	7	Sololá	701	Sololá	1	Sololá	6	Junio	2023-11-06T00:00:00	2024-11-08T08:00:00	8	Radiación solar	113
28913	7	Sololá	701	Sololá	1	Sololá	6	Junio	2023-11-06T00:00:00	2024-11-08T09:00:00	2	Temperatura media	20.9
28914	7	Sololá	701	Sololá	1	Sololá	6	Junio	2023-11-06T00:00:00	2024-11-08T09:00:00	4	Temperatura máxima	20.9
28915	7	Sololá	701	Sololá	1	Sololá	6	Junio	2023-11-06T00:00:00	2024-11-08T09:00:00	3	Temperatura mínima	19.1
28916	7	Sololá	701	Sololá	1	Sololá	6	Junio	2023-11-06T00:00:00	2024-11-08T09:00:00	5	Humedad	61
28917	7	Sololá	701	Sololá	1	Sololá	6	Junio	2023-11-06T00:00:00	2024-11-08T09:00:00	6	Velocidad del viento	1.6
28918	7	Sololá	701	Sololá	1	Sololá	6	Junio	2023-11-06T00:00:00	2024-11-08T09:00:00	7	Dirección del viento	1.61
28919	7	Sololá	701	Sololá	1	Sololá	6	Junio	2023-11-06T00:00:00	2024-11-08T09:00:00	1	Precipitación	0
28920	7	Sololá	701	Sololá	1	Sololá	6	Junio	2023-11-06T00:00:00	2024-11-08T09:00:00	8	Radiación solar	467
28921	7	Sololá	701	Sololá	1	Sololá	6	Junio	2023-11-06T00:00:00	2024-11-08T10:00:00	2	Temperatura media	21.9
28922	7	Sololá	701	Sololá	1	Sololá	6	Junio	2023-11-06T00:00:00	2024-11-08T10:00:00	4	Temperatura máxima	21.9
28923	7	Sololá	701	Sololá	1	Sololá	6	Junio	2023-11-06T00:00:00	2024-11-08T10:00:00	3	Temperatura mínima	20.4
28924	7	Sololá	701	Sololá	1	Sololá	6	Junio	2023-11-06T00:00:00	2024-11-08T10:00:00	5	Humedad	58
28925	7	Sololá	701	Sololá	1	Sololá	6	Junio	2023-11-06T00:00:00	2024-11-08T10:00:00	6	Velocidad del viento	3.2
28926	7	Sololá	701	Sololá	1	Sololá	6	Junio	2023-11-06T00:00:00	2024-11-08T10:00:00	7	Dirección del viento	3.22
28927	7	Sololá	701	Sololá	1	Sololá	6	Junio	2023-11-06T00:00:00	2024-11-08T10:00:00	1	Precipitación	0
28928	7	Sololá	701	Sololá	1	Sololá	6	Junio	2023-11-06T00:00:00	2024-11-08T10:00:00	8	Radiación solar	309
28929	7	Sololá	701	Sololá	1	Sololá	6	Junio	2023-11-06T00:00:00	2024-11-08T11:00:00	2	Temperatura media	22.4
28930	7	Sololá	701	Sololá	1	Sololá	6	Junio	2023-11-06T00:00:00	2024-11-08T11:00:00	4	Temperatura máxima	22.4
28931	7	Sololá	701	Sololá	1	Sololá	6	Junio	2023-11-06T00:00:00	2024-11-08T11:00:00	3	Temperatura mínima	21.9
28932	7	Sololá	701	Sololá	1	Sololá	6	Junio	2023-11-06T00:00:00	2024-11-08T11:00:00	5	Humedad	62
28933	7	Sololá	701	Sololá	1	Sololá	6	Junio	2023-11-06T00:00:00	2024-11-08T11:00:00	6	Velocidad del viento	4.8
28934	7	Sololá	701	Sololá	1	Sololá	6	Junio	2023-11-06T00:00:00	2024-11-08T11:00:00	7	Dirección del viento	4.83
28935	7	Sololá	701	Sololá	1	Sololá	6	Junio	2023-11-06T00:00:00	2024-11-08T11:00:00	1	Precipitación	0
28936	7	Sololá	701	Sololá	1	Sololá	6	Junio	2023-11-06T00:00:00	2024-11-08T11:00:00	8	Radiación solar	521
28937	7	Sololá	701	Sololá	1	Sololá	6	Junio	2023-11-06T00:00:00	2024-11-08T12:00:00	2	Temperatura media	21.8
28938	7	Sololá	701	Sololá	1	Sololá	6	Junio	2023-11-06T00:00:00	2024-11-08T12:00:00	4	Temperatura máxima	22.6
28939	7	Sololá	701	Sololá	1	Sololá	6	Junio	2023-11-06T00:00:00	2024-11-08T12:00:00	3	Temperatura mínima	21.6
28940	7	Sololá	701	Sololá	1	Sololá	6	Junio	2023-11-06T00:00:00	2024-11-08T12:00:00	5	Humedad	74
28941	7	Sololá	701	Sololá	1	Sololá	6	Junio	2023-11-06T00:00:00	2024-11-08T12:00:00	6	Velocidad del viento	6.4
28942	7	Sololá	701	Sololá	1	Sololá	6	Junio	2023-11-06T00:00:00	2024-11-08T12:00:00	7	Dirección del viento	6.44
28943	7	Sololá	701	Sololá	1	Sololá	6	Junio	2023-11-06T00:00:00	2024-11-08T12:00:00	1	Precipitación	0
28944	7	Sololá	701	Sololá	1	Sololá	6	Junio	2023-11-06T00:00:00	2024-11-08T12:00:00	8	Radiación solar	906
28945	7	Sololá	701	Sololá	1	Sololá	6	Junio	2023-11-06T00:00:00	2024-11-08T13:00:00	2	Temperatura media	22.6
28946	7	Sololá	701	Sololá	1	Sololá	6	Junio	2023-11-06T00:00:00	2024-11-08T13:00:00	4	Temperatura máxima	22.7
28947	7	Sololá	701	Sololá	1	Sololá	6	Junio	2023-11-06T00:00:00	2024-11-08T13:00:00	3	Temperatura mínima	21.6
28948	7	Sololá	701	Sololá	1	Sololá	6	Junio	2023-11-06T00:00:00	2024-11-08T13:00:00	5	Humedad	75
28949	7	Sololá	701	Sololá	1	Sololá	6	Junio	2023-11-06T00:00:00	2024-11-08T13:00:00	6	Velocidad del viento	6.4
28950	7	Sololá	701	Sololá	1	Sololá	6	Junio	2023-11-06T00:00:00	2024-11-08T13:00:00	7	Dirección del viento	6.44
28951	7	Sololá	701	Sololá	1	Sololá	6	Junio	2023-11-06T00:00:00	2024-11-08T13:00:00	1	Precipitación	0
28952	7	Sololá	701	Sololá	1	Sololá	6	Junio	2023-11-06T00:00:00	2024-11-08T13:00:00	8	Radiación solar	313
28953	7	Sololá	701	Sololá	1	Sololá	6	Junio	2023-11-06T00:00:00	2024-11-08T14:00:00	2	Temperatura media	21.9
28954	7	Sololá	701	Sololá	1	Sololá	6	Junio	2023-11-06T00:00:00	2024-11-08T14:00:00	4	Temperatura máxima	22.7
28955	7	Sololá	701	Sololá	1	Sololá	6	Junio	2023-11-06T00:00:00	2024-11-08T14:00:00	3	Temperatura mínima	21.6
28956	7	Sololá	701	Sololá	1	Sololá	6	Junio	2023-11-06T00:00:00	2024-11-08T14:00:00	5	Humedad	75
28957	7	Sololá	701	Sololá	1	Sololá	6	Junio	2023-11-06T00:00:00	2024-11-08T14:00:00	6	Velocidad del viento	4.8
28958	7	Sololá	701	Sololá	1	Sololá	6	Junio	2023-11-06T00:00:00	2024-11-08T14:00:00	7	Dirección del viento	4.83
28959	7	Sololá	701	Sololá	1	Sololá	6	Junio	2023-11-06T00:00:00	2024-11-08T14:00:00	1	Precipitación	0
28960	7	Sololá	701	Sololá	1	Sololá	6	Junio	2023-11-06T00:00:00	2024-11-08T14:00:00	8	Radiación solar	503
28961	7	Sololá	701	Sololá	1	Sololá	6	Junio	2023-11-06T00:00:00	2024-11-08T15:00:00	2	Temperatura media	21.9
28962	7	Sololá	701	Sololá	1	Sololá	6	Junio	2023-11-06T00:00:00	2024-11-08T15:00:00	4	Temperatura máxima	22.6
28963	7	Sololá	701	Sololá	1	Sololá	6	Junio	2023-11-06T00:00:00	2024-11-08T15:00:00	3	Temperatura mínima	21.8
28964	7	Sololá	701	Sololá	1	Sololá	6	Junio	2023-11-06T00:00:00	2024-11-08T15:00:00	5	Humedad	78
28965	7	Sololá	701	Sololá	1	Sololá	6	Junio	2023-11-06T00:00:00	2024-11-08T15:00:00	6	Velocidad del viento	4.8
28966	7	Sololá	701	Sololá	1	Sololá	6	Junio	2023-11-06T00:00:00	2024-11-08T15:00:00	7	Dirección del viento	4.83
28967	7	Sololá	701	Sololá	1	Sololá	6	Junio	2023-11-06T00:00:00	2024-11-08T15:00:00	1	Precipitación	0
28968	7	Sololá	701	Sololá	1	Sololá	6	Junio	2023-11-06T00:00:00	2024-11-08T15:00:00	8	Radiación solar	156
28969	7	Sololá	701	Sololá	1	Sololá	6	Junio	2023-11-06T00:00:00	2024-11-08T16:00:00	2	Temperatura media	21.2
28970	7	Sololá	701	Sololá	1	Sololá	6	Junio	2023-11-06T00:00:00	2024-11-08T16:00:00	4	Temperatura máxima	22.2
28971	7	Sololá	701	Sololá	1	Sololá	6	Junio	2023-11-06T00:00:00	2024-11-08T16:00:00	3	Temperatura mínima	20.9
28972	7	Sololá	701	Sololá	1	Sololá	6	Junio	2023-11-06T00:00:00	2024-11-08T16:00:00	5	Humedad	83
28973	7	Sololá	701	Sololá	1	Sololá	6	Junio	2023-11-06T00:00:00	2024-11-08T16:00:00	6	Velocidad del viento	4.8
28974	7	Sololá	701	Sololá	1	Sololá	6	Junio	2023-11-06T00:00:00	2024-11-08T16:00:00	7	Dirección del viento	4.83
28975	7	Sololá	701	Sololá	1	Sololá	6	Junio	2023-11-06T00:00:00	2024-11-08T16:00:00	1	Precipitación	0
28976	7	Sololá	701	Sololá	1	Sololá	6	Junio	2023-11-06T00:00:00	2024-11-08T16:00:00	8	Radiación solar	92
28977	7	Sololá	701	Sololá	1	Sololá	6	Junio	2023-11-06T00:00:00	2024-11-08T17:00:00	2	Temperatura media	20.1
28978	7	Sololá	701	Sololá	1	Sololá	6	Junio	2023-11-06T00:00:00	2024-11-08T17:00:00	4	Temperatura máxima	21.3
28979	7	Sololá	701	Sololá	1	Sololá	6	Junio	2023-11-06T00:00:00	2024-11-08T17:00:00	3	Temperatura mínima	20.1
28980	7	Sololá	701	Sololá	1	Sololá	6	Junio	2023-11-06T00:00:00	2024-11-08T17:00:00	5	Humedad	88
28981	7	Sololá	701	Sololá	1	Sololá	6	Junio	2023-11-06T00:00:00	2024-11-08T17:00:00	6	Velocidad del viento	3.2
28982	7	Sololá	701	Sololá	1	Sololá	6	Junio	2023-11-06T00:00:00	2024-11-08T17:00:00	7	Dirección del viento	3.22
28983	7	Sololá	701	Sololá	1	Sololá	6	Junio	2023-11-06T00:00:00	2024-11-08T17:00:00	1	Precipitación	0
28984	7	Sololá	701	Sololá	1	Sololá	6	Junio	2023-11-06T00:00:00	2024-11-08T17:00:00	8	Radiación solar	62
28985	7	Sololá	701	Sololá	1	Sololá	6	Junio	2023-11-06T00:00:00	2024-11-08T18:00:00	2	Temperatura media	19.6
28986	7	Sololá	701	Sololá	1	Sololá	6	Junio	2023-11-06T00:00:00	2024-11-08T18:00:00	4	Temperatura máxima	20.1
28987	7	Sololá	701	Sololá	1	Sololá	6	Junio	2023-11-06T00:00:00	2024-11-08T18:00:00	3	Temperatura mínima	19.6
28988	7	Sololá	701	Sololá	1	Sololá	6	Junio	2023-11-06T00:00:00	2024-11-08T18:00:00	5	Humedad	90
28989	7	Sololá	701	Sololá	1	Sololá	6	Junio	2023-11-06T00:00:00	2024-11-08T18:00:00	6	Velocidad del viento	3.2
28990	7	Sololá	701	Sololá	1	Sololá	6	Junio	2023-11-06T00:00:00	2024-11-08T18:00:00	7	Dirección del viento	3.22
28991	7	Sololá	701	Sololá	1	Sololá	6	Junio	2023-11-06T00:00:00	2024-11-08T18:00:00	1	Precipitación	0
28992	7	Sololá	701	Sololá	1	Sololá	6	Junio	2023-11-06T00:00:00	2024-11-08T18:00:00	8	Radiación solar	14
28993	7	Sololá	701	Sololá	1	Sololá	6	Junio	2023-11-06T00:00:00	2024-11-08T19:00:00	2	Temperatura media	18.9
28994	7	Sololá	701	Sololá	1	Sololá	6	Junio	2023-11-06T00:00:00	2024-11-08T19:00:00	4	Temperatura máxima	19.6
28995	7	Sololá	701	Sololá	1	Sololá	6	Junio	2023-11-06T00:00:00	2024-11-08T19:00:00	3	Temperatura mínima	18.9
28996	7	Sololá	701	Sololá	1	Sololá	6	Junio	2023-11-06T00:00:00	2024-11-08T19:00:00	5	Humedad	91
28997	7	Sololá	701	Sololá	1	Sololá	6	Junio	2023-11-06T00:00:00	2024-11-08T19:00:00	6	Velocidad del viento	1.6
28998	7	Sololá	701	Sololá	1	Sololá	6	Junio	2023-11-06T00:00:00	2024-11-08T19:00:00	7	Dirección del viento	1.61
28999	7	Sololá	701	Sololá	1	Sololá	6	Junio	2023-11-06T00:00:00	2024-11-08T19:00:00	1	Precipitación	0
29000	7	Sololá	701	Sololá	1	Sololá	6	Junio	2023-11-06T00:00:00	2024-11-08T19:00:00	8	Radiación solar	0
29001	7	Sololá	701	Sololá	1	Sololá	6	Junio	2023-11-06T00:00:00	2024-11-08T20:00:00	2	Temperatura media	18.2
29002	7	Sololá	701	Sololá	1	Sololá	6	Junio	2023-11-06T00:00:00	2024-11-08T20:00:00	4	Temperatura máxima	19.1
29003	7	Sololá	701	Sololá	1	Sololá	6	Junio	2023-11-06T00:00:00	2024-11-08T20:00:00	3	Temperatura mínima	18.2
29004	7	Sololá	701	Sololá	1	Sololá	6	Junio	2023-11-06T00:00:00	2024-11-08T20:00:00	5	Humedad	94
29005	7	Sololá	701	Sololá	1	Sololá	6	Junio	2023-11-06T00:00:00	2024-11-08T20:00:00	6	Velocidad del viento	0
29006	7	Sololá	701	Sololá	1	Sololá	6	Junio	2023-11-06T00:00:00	2024-11-08T20:00:00	7	Dirección del viento	0
29007	7	Sololá	701	Sololá	1	Sololá	6	Junio	2023-11-06T00:00:00	2024-11-08T20:00:00	1	Precipitación	0
29008	7	Sololá	701	Sololá	1	Sololá	6	Junio	2023-11-06T00:00:00	2024-11-08T20:00:00	8	Radiación solar	0
29009	7	Sololá	701	Sololá	1	Sololá	6	Junio	2023-11-06T00:00:00	2024-11-08T21:00:00	2	Temperatura media	17.8
29010	7	Sololá	701	Sololá	1	Sololá	6	Junio	2023-11-06T00:00:00	2024-11-08T21:00:00	4	Temperatura máxima	18.3
29011	7	Sololá	701	Sololá	1	Sololá	6	Junio	2023-11-06T00:00:00	2024-11-08T21:00:00	3	Temperatura mínima	17.8
29012	7	Sololá	701	Sololá	1	Sololá	6	Junio	2023-11-06T00:00:00	2024-11-08T21:00:00	5	Humedad	92
29013	7	Sololá	701	Sololá	1	Sololá	6	Junio	2023-11-06T00:00:00	2024-11-08T21:00:00	6	Velocidad del viento	0
29014	7	Sololá	701	Sololá	1	Sololá	6	Junio	2023-11-06T00:00:00	2024-11-08T21:00:00	7	Dirección del viento	0
29015	7	Sololá	701	Sololá	1	Sololá	6	Junio	2023-11-06T00:00:00	2024-11-08T21:00:00	1	Precipitación	0
29016	7	Sololá	701	Sololá	1	Sololá	6	Junio	2023-11-06T00:00:00	2024-11-08T21:00:00	8	Radiación solar	0
29017	7	Sololá	701	Sololá	1	Sololá	6	Junio	2023-11-06T00:00:00	2024-11-08T22:00:00	2	Temperatura media	17.4
29018	7	Sololá	701	Sololá	1	Sololá	6	Junio	2023-11-06T00:00:00	2024-11-08T22:00:00	4	Temperatura máxima	18
29019	7	Sololá	701	Sololá	1	Sololá	6	Junio	2023-11-06T00:00:00	2024-11-08T22:00:00	3	Temperatura mínima	17.4
29020	7	Sololá	701	Sololá	1	Sololá	6	Junio	2023-11-06T00:00:00	2024-11-08T22:00:00	5	Humedad	83
29021	7	Sololá	701	Sololá	1	Sololá	6	Junio	2023-11-06T00:00:00	2024-11-08T22:00:00	6	Velocidad del viento	1.6
29022	7	Sololá	701	Sololá	1	Sololá	6	Junio	2023-11-06T00:00:00	2024-11-08T22:00:00	7	Dirección del viento	1.61
29023	7	Sololá	701	Sololá	1	Sololá	6	Junio	2023-11-06T00:00:00	2024-11-08T22:00:00	1	Precipitación	0
29024	7	Sololá	701	Sololá	1	Sololá	6	Junio	2023-11-06T00:00:00	2024-11-08T22:00:00	8	Radiación solar	0
29025	7	Sololá	701	Sololá	1	Sololá	6	Junio	2023-11-06T00:00:00	2024-11-08T23:00:00	2	Temperatura media	17.3
29026	7	Sololá	701	Sololá	1	Sololá	6	Junio	2023-11-06T00:00:00	2024-11-08T23:00:00	4	Temperatura máxima	17.4
29027	7	Sololá	701	Sololá	1	Sololá	6	Junio	2023-11-06T00:00:00	2024-11-08T23:00:00	3	Temperatura mínima	16.3
29028	7	Sololá	701	Sololá	1	Sololá	6	Junio	2023-11-06T00:00:00	2024-11-08T23:00:00	5	Humedad	81
29029	7	Sololá	701	Sololá	1	Sololá	6	Junio	2023-11-06T00:00:00	2024-11-08T23:00:00	6	Velocidad del viento	4.8
29030	7	Sololá	701	Sololá	1	Sololá	6	Junio	2023-11-06T00:00:00	2024-11-08T23:00:00	7	Dirección del viento	4.83
29031	7	Sololá	701	Sololá	1	Sololá	6	Junio	2023-11-06T00:00:00	2024-11-08T23:00:00	1	Precipitación	0
29032	7	Sololá	701	Sololá	1	Sololá	6	Junio	2023-11-06T00:00:00	2024-11-08T23:00:00	8	Radiación solar	0
29033	7	Sololá	701	Sololá	1	Sololá	6	Junio	2023-12-06T00:00:00	2024-11-08T00:00:00	2	Temperatura media	17.2
29034	7	Sololá	701	Sololá	1	Sololá	6	Junio	2023-12-06T00:00:00	2024-11-08T00:00:00	4	Temperatura máxima	17.8
29035	7	Sololá	701	Sololá	1	Sololá	6	Junio	2023-12-06T00:00:00	2024-11-08T00:00:00	3	Temperatura mínima	17.2
29036	7	Sololá	701	Sololá	1	Sololá	6	Junio	2023-12-06T00:00:00	2024-11-08T00:00:00	5	Humedad	81
29037	7	Sololá	701	Sololá	1	Sololá	6	Junio	2023-12-06T00:00:00	2024-11-08T00:00:00	6	Velocidad del viento	3.2
29038	7	Sololá	701	Sololá	1	Sololá	6	Junio	2023-12-06T00:00:00	2024-11-08T00:00:00	7	Dirección del viento	3.22
29039	7	Sololá	701	Sololá	1	Sololá	6	Junio	2023-12-06T00:00:00	2024-11-08T00:00:00	1	Precipitación	0
29040	7	Sololá	701	Sololá	1	Sololá	6	Junio	2023-12-06T00:00:00	2024-11-08T00:00:00	8	Radiación solar	0
29041	7	Sololá	701	Sololá	1	Sololá	6	Junio	2023-12-06T00:00:00	2024-11-08T01:00:00	2	Temperatura media	16.8
29042	7	Sololá	701	Sololá	1	Sololá	6	Junio	2023-12-06T00:00:00	2024-11-08T01:00:00	4	Temperatura máxima	17.2
29043	7	Sololá	701	Sololá	1	Sololá	6	Junio	2023-12-06T00:00:00	2024-11-08T01:00:00	3	Temperatura mínima	16.8
29044	7	Sololá	701	Sololá	1	Sololá	6	Junio	2023-12-06T00:00:00	2024-11-08T01:00:00	5	Humedad	83
29045	7	Sololá	701	Sololá	1	Sololá	6	Junio	2023-12-06T00:00:00	2024-11-08T01:00:00	6	Velocidad del viento	0
29046	7	Sololá	701	Sololá	1	Sololá	6	Junio	2023-12-06T00:00:00	2024-11-08T01:00:00	7	Dirección del viento	0
29047	7	Sololá	701	Sololá	1	Sololá	6	Junio	2023-12-06T00:00:00	2024-11-08T01:00:00	1	Precipitación	0
29048	7	Sololá	701	Sololá	1	Sololá	6	Junio	2023-12-06T00:00:00	2024-11-08T01:00:00	8	Radiación solar	0
29049	7	Sololá	701	Sololá	1	Sololá	6	Junio	2023-12-06T00:00:00	2024-11-08T02:00:00	2	Temperatura media	16
29050	7	Sololá	701	Sololá	1	Sololá	6	Junio	2023-12-06T00:00:00	2024-11-08T02:00:00	4	Temperatura máxima	16.8
29051	7	Sololá	701	Sololá	1	Sololá	6	Junio	2023-12-06T00:00:00	2024-11-08T02:00:00	3	Temperatura mínima	15.9
29052	7	Sololá	701	Sololá	1	Sololá	6	Junio	2023-12-06T00:00:00	2024-11-08T02:00:00	5	Humedad	84
29053	7	Sololá	701	Sololá	1	Sololá	6	Junio	2023-12-06T00:00:00	2024-11-08T02:00:00	6	Velocidad del viento	1.6
29054	7	Sololá	701	Sololá	1	Sololá	6	Junio	2023-12-06T00:00:00	2024-11-08T02:00:00	7	Dirección del viento	1.61
29055	7	Sololá	701	Sololá	1	Sololá	6	Junio	2023-12-06T00:00:00	2024-11-08T02:00:00	1	Precipitación	0
29056	7	Sololá	701	Sololá	1	Sololá	6	Junio	2023-12-06T00:00:00	2024-11-08T02:00:00	8	Radiación solar	0
29057	7	Sololá	701	Sololá	1	Sololá	6	Junio	2023-12-06T00:00:00	2024-11-08T03:00:00	2	Temperatura media	15.4
29058	7	Sololá	701	Sololá	1	Sololá	6	Junio	2023-12-06T00:00:00	2024-11-08T03:00:00	4	Temperatura máxima	16.2
29059	7	Sololá	701	Sololá	1	Sololá	6	Junio	2023-12-06T00:00:00	2024-11-08T03:00:00	3	Temperatura mínima	15.2
29060	7	Sololá	701	Sololá	1	Sololá	6	Junio	2023-12-06T00:00:00	2024-11-08T03:00:00	5	Humedad	84
29061	7	Sololá	701	Sololá	1	Sololá	6	Junio	2023-12-06T00:00:00	2024-11-08T03:00:00	6	Velocidad del viento	3.2
29062	7	Sololá	701	Sololá	1	Sololá	6	Junio	2023-12-06T00:00:00	2024-11-08T03:00:00	7	Dirección del viento	3.22
29063	7	Sololá	701	Sololá	1	Sololá	6	Junio	2023-12-06T00:00:00	2024-11-08T03:00:00	1	Precipitación	0
29064	7	Sololá	701	Sololá	1	Sololá	6	Junio	2023-12-06T00:00:00	2024-11-08T03:00:00	8	Radiación solar	0
29065	7	Sololá	701	Sololá	1	Sololá	6	Junio	2023-12-06T00:00:00	2024-11-08T04:00:00	2	Temperatura media	15.7
29066	7	Sololá	701	Sololá	1	Sololá	6	Junio	2023-12-06T00:00:00	2024-11-08T04:00:00	4	Temperatura máxima	16.3
29067	7	Sololá	701	Sololá	1	Sololá	6	Junio	2023-12-06T00:00:00	2024-11-08T04:00:00	3	Temperatura mínima	15.4
29068	7	Sololá	701	Sololá	1	Sololá	6	Junio	2023-12-06T00:00:00	2024-11-08T04:00:00	5	Humedad	82
29069	7	Sololá	701	Sololá	1	Sololá	6	Junio	2023-12-06T00:00:00	2024-11-08T04:00:00	6	Velocidad del viento	3.2
29070	7	Sololá	701	Sololá	1	Sololá	6	Junio	2023-12-06T00:00:00	2024-11-08T04:00:00	7	Dirección del viento	3.22
29071	7	Sololá	701	Sololá	1	Sololá	6	Junio	2023-12-06T00:00:00	2024-11-08T04:00:00	1	Precipitación	0
29072	7	Sololá	701	Sololá	1	Sololá	6	Junio	2023-12-06T00:00:00	2024-11-08T04:00:00	8	Radiación solar	0
29073	7	Sololá	701	Sololá	1	Sololá	6	Junio	2023-12-06T00:00:00	2024-11-08T05:00:00	2	Temperatura media	14.7
29074	7	Sololá	701	Sololá	1	Sololá	6	Junio	2023-12-06T00:00:00	2024-11-08T05:00:00	4	Temperatura máxima	15.9
29075	7	Sololá	701	Sololá	1	Sololá	6	Junio	2023-12-06T00:00:00	2024-11-08T05:00:00	3	Temperatura mínima	14.7
29076	7	Sololá	701	Sololá	1	Sololá	6	Junio	2023-12-06T00:00:00	2024-11-08T05:00:00	5	Humedad	84
29077	7	Sololá	701	Sololá	1	Sololá	6	Junio	2023-12-06T00:00:00	2024-11-08T05:00:00	6	Velocidad del viento	3.2
29078	7	Sololá	701	Sololá	1	Sololá	6	Junio	2023-12-06T00:00:00	2024-11-08T05:00:00	7	Dirección del viento	3.22
29079	7	Sololá	701	Sololá	1	Sololá	6	Junio	2023-12-06T00:00:00	2024-11-08T05:00:00	1	Precipitación	0
29080	7	Sololá	701	Sololá	1	Sololá	6	Junio	2023-12-06T00:00:00	2024-11-08T05:00:00	8	Radiación solar	0
29081	7	Sololá	701	Sololá	1	Sololá	6	Junio	2023-12-06T00:00:00	2024-11-08T06:00:00	2	Temperatura media	14.7
29082	7	Sololá	701	Sololá	1	Sololá	6	Junio	2023-12-06T00:00:00	2024-11-08T06:00:00	4	Temperatura máxima	15.5
29083	7	Sololá	701	Sololá	1	Sololá	6	Junio	2023-12-06T00:00:00	2024-11-08T06:00:00	3	Temperatura mínima	13.9
29084	7	Sololá	701	Sololá	1	Sololá	6	Junio	2023-12-06T00:00:00	2024-11-08T06:00:00	5	Humedad	81
29085	7	Sololá	701	Sololá	1	Sololá	6	Junio	2023-12-06T00:00:00	2024-11-08T06:00:00	6	Velocidad del viento	3.2
29086	7	Sololá	701	Sololá	1	Sololá	6	Junio	2023-12-06T00:00:00	2024-11-08T06:00:00	7	Dirección del viento	3.22
29087	7	Sololá	701	Sololá	1	Sololá	6	Junio	2023-12-06T00:00:00	2024-11-08T06:00:00	1	Precipitación	0
29088	7	Sololá	701	Sololá	1	Sololá	6	Junio	2023-12-06T00:00:00	2024-11-08T06:00:00	8	Radiación solar	9
29089	7	Sololá	701	Sololá	1	Sololá	6	Junio	2023-12-06T00:00:00	2024-11-08T07:00:00	2	Temperatura media	19
29090	7	Sololá	701	Sololá	1	Sololá	6	Junio	2023-12-06T00:00:00	2024-11-08T07:00:00	4	Temperatura máxima	19
29091	7	Sololá	701	Sololá	1	Sololá	6	Junio	2023-12-06T00:00:00	2024-11-08T07:00:00	3	Temperatura mínima	14.4
29092	7	Sololá	701	Sololá	1	Sololá	6	Junio	2023-12-06T00:00:00	2024-11-08T07:00:00	5	Humedad	69
29093	7	Sololá	701	Sololá	1	Sololá	6	Junio	2023-12-06T00:00:00	2024-11-08T07:00:00	6	Velocidad del viento	6.4
29094	7	Sololá	701	Sololá	1	Sololá	6	Junio	2023-12-06T00:00:00	2024-11-08T07:00:00	7	Dirección del viento	6.44
29095	7	Sololá	701	Sololá	1	Sololá	6	Junio	2023-12-06T00:00:00	2024-11-08T07:00:00	1	Precipitación	0
29096	7	Sololá	701	Sololá	1	Sololá	6	Junio	2023-12-06T00:00:00	2024-11-08T07:00:00	8	Radiación solar	45
29097	7	Sololá	701	Sololá	1	Sololá	6	Junio	2023-12-06T00:00:00	2024-11-08T08:00:00	2	Temperatura media	20.7
29098	7	Sololá	701	Sololá	1	Sololá	6	Junio	2023-12-06T00:00:00	2024-11-08T08:00:00	4	Temperatura máxima	20.8
29099	7	Sololá	701	Sololá	1	Sololá	6	Junio	2023-12-06T00:00:00	2024-11-08T08:00:00	3	Temperatura mínima	19
29100	7	Sololá	701	Sololá	1	Sololá	6	Junio	2023-12-06T00:00:00	2024-11-08T08:00:00	5	Humedad	62
29101	7	Sololá	701	Sololá	1	Sololá	6	Junio	2023-12-06T00:00:00	2024-11-08T08:00:00	6	Velocidad del viento	9.7
29102	7	Sololá	701	Sololá	1	Sololá	6	Junio	2023-12-06T00:00:00	2024-11-08T08:00:00	7	Dirección del viento	9.66
29103	7	Sololá	701	Sololá	1	Sololá	6	Junio	2023-12-06T00:00:00	2024-11-08T08:00:00	1	Precipitación	0
29104	7	Sololá	701	Sololá	1	Sololá	6	Junio	2023-12-06T00:00:00	2024-11-08T08:00:00	8	Radiación solar	64
29105	7	Sololá	701	Sololá	1	Sololá	6	Junio	2023-12-06T00:00:00	2024-11-08T09:00:00	2	Temperatura media	21.7
29106	7	Sololá	701	Sololá	1	Sololá	6	Junio	2023-12-06T00:00:00	2024-11-08T09:00:00	4	Temperatura máxima	21.8
29107	7	Sololá	701	Sololá	1	Sololá	6	Junio	2023-12-06T00:00:00	2024-11-08T09:00:00	3	Temperatura mínima	20.7
29108	7	Sololá	701	Sololá	1	Sololá	6	Junio	2023-12-06T00:00:00	2024-11-08T09:00:00	5	Humedad	59
29109	7	Sololá	701	Sololá	1	Sololá	6	Junio	2023-12-06T00:00:00	2024-11-08T09:00:00	6	Velocidad del viento	11.3
29110	7	Sololá	701	Sololá	1	Sololá	6	Junio	2023-12-06T00:00:00	2024-11-08T09:00:00	7	Dirección del viento	11.27
29111	7	Sololá	701	Sololá	1	Sololá	6	Junio	2023-12-06T00:00:00	2024-11-08T09:00:00	1	Precipitación	0
29112	7	Sololá	701	Sololá	1	Sololá	6	Junio	2023-12-06T00:00:00	2024-11-08T09:00:00	8	Radiación solar	441
29113	7	Sololá	701	Sololá	1	Sololá	6	Junio	2023-12-06T00:00:00	2024-11-08T10:00:00	2	Temperatura media	23.2
29114	7	Sololá	701	Sololá	1	Sololá	6	Junio	2023-12-06T00:00:00	2024-11-08T10:00:00	4	Temperatura máxima	23.2
29115	7	Sololá	701	Sololá	1	Sololá	6	Junio	2023-12-06T00:00:00	2024-11-08T10:00:00	3	Temperatura mínima	21.7
29116	7	Sololá	701	Sololá	1	Sololá	6	Junio	2023-12-06T00:00:00	2024-11-08T10:00:00	5	Humedad	55
29117	7	Sololá	701	Sololá	1	Sololá	6	Junio	2023-12-06T00:00:00	2024-11-08T10:00:00	6	Velocidad del viento	11.3
29118	7	Sololá	701	Sololá	1	Sololá	6	Junio	2023-12-06T00:00:00	2024-11-08T10:00:00	7	Dirección del viento	11.27
29119	7	Sololá	701	Sololá	1	Sololá	6	Junio	2023-12-06T00:00:00	2024-11-08T10:00:00	1	Precipitación	0
29120	7	Sololá	701	Sololá	1	Sololá	6	Junio	2023-12-06T00:00:00	2024-11-08T10:00:00	8	Radiación solar	315
29121	7	Sololá	701	Sololá	1	Sololá	6	Junio	2023-12-06T00:00:00	2024-11-08T11:00:00	2	Temperatura media	24.3
29122	7	Sololá	701	Sololá	1	Sololá	6	Junio	2023-12-06T00:00:00	2024-11-08T11:00:00	4	Temperatura máxima	24.3
29123	7	Sololá	701	Sololá	1	Sololá	6	Junio	2023-12-06T00:00:00	2024-11-08T11:00:00	3	Temperatura mínima	23
29124	7	Sololá	701	Sololá	1	Sololá	6	Junio	2023-12-06T00:00:00	2024-11-08T11:00:00	5	Humedad	52
29125	7	Sololá	701	Sololá	1	Sololá	6	Junio	2023-12-06T00:00:00	2024-11-08T11:00:00	6	Velocidad del viento	11.3
29126	7	Sololá	701	Sololá	1	Sololá	6	Junio	2023-12-06T00:00:00	2024-11-08T11:00:00	7	Dirección del viento	11.27
29127	7	Sololá	701	Sololá	1	Sololá	6	Junio	2023-12-06T00:00:00	2024-11-08T11:00:00	1	Precipitación	0
29128	7	Sololá	701	Sololá	1	Sololá	6	Junio	2023-12-06T00:00:00	2024-11-08T11:00:00	8	Radiación solar	434
29129	7	Sololá	701	Sololá	1	Sololá	6	Junio	2023-12-06T00:00:00	2024-11-08T12:00:00	2	Temperatura media	24.4
29130	7	Sololá	701	Sololá	1	Sololá	6	Junio	2023-12-06T00:00:00	2024-11-08T12:00:00	4	Temperatura máxima	25.1
29131	7	Sololá	701	Sololá	1	Sololá	6	Junio	2023-12-06T00:00:00	2024-11-08T12:00:00	3	Temperatura mínima	24.3
29132	7	Sololá	701	Sololá	1	Sololá	6	Junio	2023-12-06T00:00:00	2024-11-08T12:00:00	5	Humedad	66
29133	7	Sololá	701	Sololá	1	Sololá	6	Junio	2023-12-06T00:00:00	2024-11-08T12:00:00	6	Velocidad del viento	6.4
29134	7	Sololá	701	Sololá	1	Sololá	6	Junio	2023-12-06T00:00:00	2024-11-08T12:00:00	7	Dirección del viento	6.44
29135	7	Sololá	701	Sololá	1	Sololá	6	Junio	2023-12-06T00:00:00	2024-11-08T12:00:00	1	Precipitación	0
29136	7	Sololá	701	Sololá	1	Sololá	6	Junio	2023-12-06T00:00:00	2024-11-08T12:00:00	8	Radiación solar	457
29137	7	Sololá	701	Sololá	1	Sololá	6	Junio	2023-12-06T00:00:00	2024-11-08T13:00:00	2	Temperatura media	22.5
29138	7	Sololá	701	Sololá	1	Sololá	6	Junio	2023-12-06T00:00:00	2024-11-08T13:00:00	4	Temperatura máxima	24.5
29139	7	Sololá	701	Sololá	1	Sololá	6	Junio	2023-12-06T00:00:00	2024-11-08T13:00:00	3	Temperatura mínima	22.5
29140	7	Sololá	701	Sololá	1	Sololá	6	Junio	2023-12-06T00:00:00	2024-11-08T13:00:00	5	Humedad	76
29141	7	Sololá	701	Sololá	1	Sololá	6	Junio	2023-12-06T00:00:00	2024-11-08T13:00:00	6	Velocidad del viento	6.4
29142	7	Sololá	701	Sololá	1	Sololá	6	Junio	2023-12-06T00:00:00	2024-11-08T13:00:00	7	Dirección del viento	6.44
29143	7	Sololá	701	Sololá	1	Sololá	6	Junio	2023-12-06T00:00:00	2024-11-08T13:00:00	1	Precipitación	0
29144	7	Sololá	701	Sololá	1	Sololá	6	Junio	2023-12-06T00:00:00	2024-11-08T13:00:00	8	Radiación solar	227
29145	7	Sololá	701	Sololá	1	Sololá	6	Junio	2023-12-06T00:00:00	2024-11-08T14:00:00	2	Temperatura media	23.1
29146	7	Sololá	701	Sololá	1	Sololá	6	Junio	2023-12-06T00:00:00	2024-11-08T14:00:00	4	Temperatura máxima	23.4
29147	7	Sololá	701	Sololá	1	Sololá	6	Junio	2023-12-06T00:00:00	2024-11-08T14:00:00	3	Temperatura mínima	22.3
29148	7	Sololá	701	Sololá	1	Sololá	6	Junio	2023-12-06T00:00:00	2024-11-08T14:00:00	5	Humedad	77
29149	7	Sololá	701	Sololá	1	Sololá	6	Junio	2023-12-06T00:00:00	2024-11-08T14:00:00	6	Velocidad del viento	6.4
29150	7	Sololá	701	Sololá	1	Sololá	6	Junio	2023-12-06T00:00:00	2024-11-08T14:00:00	7	Dirección del viento	6.44
29151	7	Sololá	701	Sololá	1	Sololá	6	Junio	2023-12-06T00:00:00	2024-11-08T14:00:00	1	Precipitación	0
29152	7	Sololá	701	Sololá	1	Sololá	6	Junio	2023-12-06T00:00:00	2024-11-08T14:00:00	8	Radiación solar	203
29153	7	Sololá	701	Sololá	1	Sololá	6	Junio	2023-12-06T00:00:00	2024-11-08T15:00:00	2	Temperatura media	22
29154	7	Sololá	701	Sololá	1	Sololá	6	Junio	2023-12-06T00:00:00	2024-11-08T15:00:00	4	Temperatura máxima	23.3
29155	7	Sololá	701	Sololá	1	Sololá	6	Junio	2023-12-06T00:00:00	2024-11-08T15:00:00	3	Temperatura mínima	21.9
29156	7	Sololá	701	Sololá	1	Sololá	6	Junio	2023-12-06T00:00:00	2024-11-08T15:00:00	5	Humedad	82
29157	7	Sololá	701	Sololá	1	Sololá	6	Junio	2023-12-06T00:00:00	2024-11-08T15:00:00	6	Velocidad del viento	8
29158	7	Sololá	701	Sololá	1	Sololá	6	Junio	2023-12-06T00:00:00	2024-11-08T15:00:00	7	Dirección del viento	8.05
29159	7	Sololá	701	Sololá	1	Sololá	6	Junio	2023-12-06T00:00:00	2024-11-08T15:00:00	1	Precipitación	0
29160	7	Sololá	701	Sololá	1	Sololá	6	Junio	2023-12-06T00:00:00	2024-11-08T15:00:00	8	Radiación solar	203
29161	7	Sololá	701	Sololá	1	Sololá	6	Junio	2023-12-06T00:00:00	2024-11-08T16:00:00	2	Temperatura media	21.3
29162	7	Sololá	701	Sololá	1	Sololá	6	Junio	2023-12-06T00:00:00	2024-11-08T16:00:00	4	Temperatura máxima	22.6
29163	7	Sololá	701	Sololá	1	Sololá	6	Junio	2023-12-06T00:00:00	2024-11-08T16:00:00	3	Temperatura mínima	21.2
29164	7	Sololá	701	Sololá	1	Sololá	6	Junio	2023-12-06T00:00:00	2024-11-08T16:00:00	5	Humedad	85
29165	7	Sololá	701	Sololá	1	Sololá	6	Junio	2023-12-06T00:00:00	2024-11-08T16:00:00	6	Velocidad del viento	4.8
29166	7	Sololá	701	Sololá	1	Sololá	6	Junio	2023-12-06T00:00:00	2024-11-08T16:00:00	7	Dirección del viento	4.83
29167	7	Sololá	701	Sololá	1	Sololá	6	Junio	2023-12-06T00:00:00	2024-11-08T16:00:00	1	Precipitación	0
29168	7	Sololá	701	Sololá	1	Sololá	6	Junio	2023-12-06T00:00:00	2024-11-08T16:00:00	8	Radiación solar	108
29169	7	Sololá	701	Sololá	1	Sololá	6	Junio	2023-12-06T00:00:00	2024-11-08T17:00:00	2	Temperatura media	20.4
29170	7	Sololá	701	Sololá	1	Sololá	6	Junio	2023-12-06T00:00:00	2024-11-08T17:00:00	4	Temperatura máxima	21.4
29171	7	Sololá	701	Sololá	1	Sololá	6	Junio	2023-12-06T00:00:00	2024-11-08T17:00:00	3	Temperatura mínima	19.6
29172	7	Sololá	701	Sololá	1	Sololá	6	Junio	2023-12-06T00:00:00	2024-11-08T17:00:00	5	Humedad	88
29173	7	Sololá	701	Sololá	1	Sololá	6	Junio	2023-12-06T00:00:00	2024-11-08T17:00:00	6	Velocidad del viento	4.8
29174	7	Sololá	701	Sololá	1	Sololá	6	Junio	2023-12-06T00:00:00	2024-11-08T17:00:00	7	Dirección del viento	4.83
29175	7	Sololá	701	Sololá	1	Sololá	6	Junio	2023-12-06T00:00:00	2024-11-08T17:00:00	1	Precipitación	0
29176	7	Sololá	701	Sololá	1	Sololá	6	Junio	2023-12-06T00:00:00	2024-11-08T17:00:00	8	Radiación solar	23
29177	7	Sololá	701	Sololá	1	Sololá	6	Junio	2023-12-06T00:00:00	2024-11-08T18:00:00	2	Temperatura media	18.8
29178	7	Sololá	701	Sololá	1	Sololá	6	Junio	2023-12-06T00:00:00	2024-11-08T18:00:00	4	Temperatura máxima	20.4
29179	7	Sololá	701	Sololá	1	Sololá	6	Junio	2023-12-06T00:00:00	2024-11-08T18:00:00	3	Temperatura mínima	18.8
29180	7	Sololá	701	Sololá	1	Sololá	6	Junio	2023-12-06T00:00:00	2024-11-08T18:00:00	5	Humedad	93
29181	7	Sololá	701	Sololá	1	Sololá	6	Junio	2023-12-06T00:00:00	2024-11-08T18:00:00	6	Velocidad del viento	3.2
29182	7	Sololá	701	Sololá	1	Sololá	6	Junio	2023-12-06T00:00:00	2024-11-08T18:00:00	7	Dirección del viento	3.22
29183	7	Sololá	701	Sololá	1	Sololá	6	Junio	2023-12-06T00:00:00	2024-11-08T18:00:00	1	Precipitación	0
29184	7	Sololá	701	Sololá	1	Sololá	6	Junio	2023-12-06T00:00:00	2024-11-08T18:00:00	8	Radiación solar	2
29185	7	Sololá	701	Sololá	1	Sololá	6	Junio	2023-12-06T00:00:00	2024-11-08T19:00:00	2	Temperatura media	18.9
29186	7	Sololá	701	Sololá	1	Sololá	6	Junio	2023-12-06T00:00:00	2024-11-08T19:00:00	4	Temperatura máxima	19
29187	7	Sololá	701	Sololá	1	Sololá	6	Junio	2023-12-06T00:00:00	2024-11-08T19:00:00	3	Temperatura mínima	18.7
29188	7	Sololá	701	Sololá	1	Sololá	6	Junio	2023-12-06T00:00:00	2024-11-08T19:00:00	5	Humedad	93
29189	7	Sololá	701	Sololá	1	Sololá	6	Junio	2023-12-06T00:00:00	2024-11-08T19:00:00	6	Velocidad del viento	1.6
29190	7	Sololá	701	Sololá	1	Sololá	6	Junio	2023-12-06T00:00:00	2024-11-08T19:00:00	7	Dirección del viento	1.61
29191	7	Sololá	701	Sololá	1	Sololá	6	Junio	2023-12-06T00:00:00	2024-11-08T19:00:00	1	Precipitación	0
29192	7	Sololá	701	Sololá	1	Sololá	6	Junio	2023-12-06T00:00:00	2024-11-08T19:00:00	8	Radiación solar	0
29193	7	Sololá	701	Sololá	1	Sololá	6	Junio	2023-12-06T00:00:00	2024-11-08T20:00:00	2	Temperatura media	18.2
29194	7	Sololá	701	Sololá	1	Sololá	6	Junio	2023-12-06T00:00:00	2024-11-08T20:00:00	4	Temperatura máxima	18.9
29195	7	Sololá	701	Sololá	1	Sololá	6	Junio	2023-12-06T00:00:00	2024-11-08T20:00:00	3	Temperatura mínima	18.1
29196	7	Sololá	701	Sololá	1	Sololá	6	Junio	2023-12-06T00:00:00	2024-11-08T20:00:00	5	Humedad	95
29197	7	Sololá	701	Sololá	1	Sololá	6	Junio	2023-12-06T00:00:00	2024-11-08T20:00:00	6	Velocidad del viento	0
29198	7	Sololá	701	Sololá	1	Sololá	6	Junio	2023-12-06T00:00:00	2024-11-08T20:00:00	7	Dirección del viento	0
29199	7	Sololá	701	Sololá	1	Sololá	6	Junio	2023-12-06T00:00:00	2024-11-08T20:00:00	1	Precipitación	0
29200	7	Sololá	701	Sololá	1	Sololá	6	Junio	2023-12-06T00:00:00	2024-11-08T20:00:00	8	Radiación solar	0
29201	7	Sololá	701	Sololá	1	Sololá	6	Junio	2023-12-06T00:00:00	2024-11-08T21:00:00	2	Temperatura media	17.8
29202	7	Sololá	701	Sololá	1	Sololá	6	Junio	2023-12-06T00:00:00	2024-11-08T21:00:00	4	Temperatura máxima	18.2
29203	7	Sololá	701	Sololá	1	Sololá	6	Junio	2023-12-06T00:00:00	2024-11-08T21:00:00	3	Temperatura mínima	17.7
29204	7	Sololá	701	Sololá	1	Sololá	6	Junio	2023-12-06T00:00:00	2024-11-08T21:00:00	5	Humedad	95
29205	7	Sololá	701	Sololá	1	Sololá	6	Junio	2023-12-06T00:00:00	2024-11-08T21:00:00	6	Velocidad del viento	0
29206	7	Sololá	701	Sololá	1	Sololá	6	Junio	2023-12-06T00:00:00	2024-11-08T21:00:00	7	Dirección del viento	0
29207	7	Sololá	701	Sololá	1	Sololá	6	Junio	2023-12-06T00:00:00	2024-11-08T21:00:00	1	Precipitación	0
29208	7	Sololá	701	Sololá	1	Sololá	6	Junio	2023-12-06T00:00:00	2024-11-08T21:00:00	8	Radiación solar	0
29209	7	Sololá	701	Sololá	1	Sololá	6	Junio	2023-12-06T00:00:00	2024-11-08T22:00:00	2	Temperatura media	17.7
29210	7	Sololá	701	Sololá	1	Sololá	6	Junio	2023-12-06T00:00:00	2024-11-08T22:00:00	4	Temperatura máxima	17.8
29211	7	Sololá	701	Sololá	1	Sololá	6	Junio	2023-12-06T00:00:00	2024-11-08T22:00:00	3	Temperatura mínima	17.4
29212	7	Sololá	701	Sololá	1	Sololá	6	Junio	2023-12-06T00:00:00	2024-11-08T22:00:00	5	Humedad	85
29213	7	Sololá	701	Sololá	1	Sololá	6	Junio	2023-12-06T00:00:00	2024-11-08T22:00:00	6	Velocidad del viento	1.6
29214	7	Sololá	701	Sololá	1	Sololá	6	Junio	2023-12-06T00:00:00	2024-11-08T22:00:00	7	Dirección del viento	1.61
29215	7	Sololá	701	Sololá	1	Sololá	6	Junio	2023-12-06T00:00:00	2024-11-08T22:00:00	1	Precipitación	0
29216	7	Sololá	701	Sololá	1	Sololá	6	Junio	2023-12-06T00:00:00	2024-11-08T22:00:00	8	Radiación solar	0
29217	7	Sololá	701	Sololá	1	Sololá	6	Junio	2023-12-06T00:00:00	2024-11-08T23:00:00	2	Temperatura media	18.3
29218	7	Sololá	701	Sololá	1	Sololá	6	Junio	2023-12-06T00:00:00	2024-11-08T23:00:00	4	Temperatura máxima	18.6
29219	7	Sololá	701	Sololá	1	Sololá	6	Junio	2023-12-06T00:00:00	2024-11-08T23:00:00	3	Temperatura mínima	17.7
29220	7	Sololá	701	Sololá	1	Sololá	6	Junio	2023-12-06T00:00:00	2024-11-08T23:00:00	5	Humedad	80
29221	7	Sololá	701	Sololá	1	Sololá	6	Junio	2023-12-06T00:00:00	2024-11-08T23:00:00	6	Velocidad del viento	6.4
29222	7	Sololá	701	Sololá	1	Sololá	6	Junio	2023-12-06T00:00:00	2024-11-08T23:00:00	7	Dirección del viento	6.44
29223	7	Sololá	701	Sololá	1	Sololá	6	Junio	2023-12-06T00:00:00	2024-11-08T23:00:00	1	Precipitación	0
29224	7	Sololá	701	Sololá	1	Sololá	6	Junio	2023-12-06T00:00:00	2024-11-08T23:00:00	8	Radiación solar	0
29225	7	Sololá	701	Sololá	1	Sololá	6	Junio	2023-06-13T00:00:00	2024-11-08T00:00:00	2	Temperatura media	17.5
29226	7	Sololá	701	Sololá	1	Sololá	6	Junio	2023-06-13T00:00:00	2024-11-08T00:00:00	4	Temperatura máxima	18.3
29227	7	Sololá	701	Sololá	1	Sololá	6	Junio	2023-06-13T00:00:00	2024-11-08T00:00:00	3	Temperatura mínima	17.5
29228	7	Sololá	701	Sololá	1	Sololá	6	Junio	2023-06-13T00:00:00	2024-11-08T00:00:00	5	Humedad	83
29229	7	Sololá	701	Sololá	1	Sololá	6	Junio	2023-06-13T00:00:00	2024-11-08T00:00:00	6	Velocidad del viento	1.6
29230	7	Sololá	701	Sololá	1	Sololá	6	Junio	2023-06-13T00:00:00	2024-11-08T00:00:00	7	Dirección del viento	1.61
29231	7	Sololá	701	Sololá	1	Sololá	6	Junio	2023-06-13T00:00:00	2024-11-08T00:00:00	1	Precipitación	0
29232	7	Sololá	701	Sololá	1	Sololá	6	Junio	2023-06-13T00:00:00	2024-11-08T00:00:00	8	Radiación solar	0
29233	7	Sololá	701	Sololá	1	Sololá	6	Junio	2023-06-13T00:00:00	2024-11-08T01:00:00	2	Temperatura media	17.1
29234	7	Sololá	701	Sololá	1	Sololá	6	Junio	2023-06-13T00:00:00	2024-11-08T01:00:00	4	Temperatura máxima	17.6
29235	7	Sololá	701	Sololá	1	Sololá	6	Junio	2023-06-13T00:00:00	2024-11-08T01:00:00	3	Temperatura mínima	16.9
29236	7	Sololá	701	Sololá	1	Sololá	6	Junio	2023-06-13T00:00:00	2024-11-08T01:00:00	5	Humedad	83
29237	7	Sololá	701	Sololá	1	Sololá	6	Junio	2023-06-13T00:00:00	2024-11-08T01:00:00	6	Velocidad del viento	0
29238	7	Sololá	701	Sololá	1	Sololá	6	Junio	2023-06-13T00:00:00	2024-11-08T01:00:00	7	Dirección del viento	0
29239	7	Sololá	701	Sololá	1	Sololá	6	Junio	2023-06-13T00:00:00	2024-11-08T01:00:00	1	Precipitación	0
29240	7	Sololá	701	Sololá	1	Sololá	6	Junio	2023-06-13T00:00:00	2024-11-08T01:00:00	8	Radiación solar	0
29241	7	Sololá	701	Sololá	1	Sololá	6	Junio	2023-06-13T00:00:00	2024-11-08T02:00:00	2	Temperatura media	16.9
29242	7	Sololá	701	Sololá	1	Sololá	6	Junio	2023-06-13T00:00:00	2024-11-08T02:00:00	4	Temperatura máxima	17.2
29243	7	Sololá	701	Sololá	1	Sololá	6	Junio	2023-06-13T00:00:00	2024-11-08T02:00:00	3	Temperatura mínima	16.9
29244	7	Sololá	701	Sololá	1	Sololá	6	Junio	2023-06-13T00:00:00	2024-11-08T02:00:00	5	Humedad	82
29245	7	Sololá	701	Sololá	1	Sololá	6	Junio	2023-06-13T00:00:00	2024-11-08T02:00:00	6	Velocidad del viento	1.6
29246	7	Sololá	701	Sololá	1	Sololá	6	Junio	2023-06-13T00:00:00	2024-11-08T02:00:00	7	Dirección del viento	1.61
29247	7	Sololá	701	Sololá	1	Sololá	6	Junio	2023-06-13T00:00:00	2024-11-08T02:00:00	1	Precipitación	0
29248	7	Sololá	701	Sololá	1	Sololá	6	Junio	2023-06-13T00:00:00	2024-11-08T02:00:00	8	Radiación solar	0
29249	7	Sololá	701	Sololá	1	Sololá	6	Junio	2023-06-13T00:00:00	2024-11-08T03:00:00	2	Temperatura media	17.7
29250	7	Sololá	701	Sololá	1	Sololá	6	Junio	2023-06-13T00:00:00	2024-11-08T03:00:00	4	Temperatura máxima	17.7
29251	7	Sololá	701	Sololá	1	Sololá	6	Junio	2023-06-13T00:00:00	2024-11-08T03:00:00	3	Temperatura mínima	16.8
29252	7	Sololá	701	Sololá	1	Sololá	6	Junio	2023-06-13T00:00:00	2024-11-08T03:00:00	5	Humedad	75
29253	7	Sololá	701	Sololá	1	Sololá	6	Junio	2023-06-13T00:00:00	2024-11-08T03:00:00	6	Velocidad del viento	9.7
29254	7	Sololá	701	Sololá	1	Sololá	6	Junio	2023-06-13T00:00:00	2024-11-08T03:00:00	7	Dirección del viento	9.66
29255	7	Sololá	701	Sololá	1	Sololá	6	Junio	2023-06-13T00:00:00	2024-11-08T03:00:00	1	Precipitación	0
29256	7	Sololá	701	Sololá	1	Sololá	6	Junio	2023-06-13T00:00:00	2024-11-08T03:00:00	8	Radiación solar	0
29257	7	Sololá	701	Sololá	1	Sololá	6	Junio	2023-06-13T00:00:00	2024-11-08T04:00:00	2	Temperatura media	16.6
29258	7	Sololá	701	Sololá	1	Sololá	6	Junio	2023-06-13T00:00:00	2024-11-08T04:00:00	4	Temperatura máxima	17.7
29259	7	Sololá	701	Sololá	1	Sololá	6	Junio	2023-06-13T00:00:00	2024-11-08T04:00:00	3	Temperatura mínima	15.8
29260	7	Sololá	701	Sololá	1	Sololá	6	Junio	2023-06-13T00:00:00	2024-11-08T04:00:00	5	Humedad	71
29261	7	Sololá	701	Sololá	1	Sololá	6	Junio	2023-06-13T00:00:00	2024-11-08T04:00:00	6	Velocidad del viento	3.2
29262	7	Sololá	701	Sololá	1	Sololá	6	Junio	2023-06-13T00:00:00	2024-11-08T04:00:00	7	Dirección del viento	3.22
29263	7	Sololá	701	Sololá	1	Sololá	6	Junio	2023-06-13T00:00:00	2024-11-08T04:00:00	1	Precipitación	0
29264	7	Sololá	701	Sololá	1	Sololá	6	Junio	2023-06-13T00:00:00	2024-11-08T04:00:00	8	Radiación solar	0
29265	7	Sololá	701	Sololá	1	Sololá	6	Junio	2023-06-13T00:00:00	2024-11-08T05:00:00	2	Temperatura media	17.7
29266	7	Sololá	701	Sololá	1	Sololá	6	Junio	2023-06-13T00:00:00	2024-11-08T05:00:00	4	Temperatura máxima	17.9
29267	7	Sololá	701	Sololá	1	Sololá	6	Junio	2023-06-13T00:00:00	2024-11-08T05:00:00	3	Temperatura mínima	16.6
29268	7	Sololá	701	Sololá	1	Sololá	6	Junio	2023-06-13T00:00:00	2024-11-08T05:00:00	5	Humedad	70
29269	7	Sololá	701	Sololá	1	Sololá	6	Junio	2023-06-13T00:00:00	2024-11-08T05:00:00	6	Velocidad del viento	12.9
29270	7	Sololá	701	Sololá	1	Sololá	6	Junio	2023-06-13T00:00:00	2024-11-08T05:00:00	7	Dirección del viento	12.87
29271	7	Sololá	701	Sololá	1	Sololá	6	Junio	2023-06-13T00:00:00	2024-11-08T05:00:00	1	Precipitación	0
29272	7	Sololá	701	Sololá	1	Sololá	6	Junio	2023-06-13T00:00:00	2024-11-08T05:00:00	8	Radiación solar	0
29273	7	Sololá	701	Sololá	1	Sololá	6	Junio	2023-06-13T00:00:00	2024-11-08T06:00:00	2	Temperatura media	17
29274	7	Sololá	701	Sololá	1	Sololá	6	Junio	2023-06-13T00:00:00	2024-11-08T06:00:00	4	Temperatura máxima	17.7
29275	7	Sololá	701	Sololá	1	Sololá	6	Junio	2023-06-13T00:00:00	2024-11-08T06:00:00	3	Temperatura mínima	16.9
29276	7	Sololá	701	Sololá	1	Sololá	6	Junio	2023-06-13T00:00:00	2024-11-08T06:00:00	5	Humedad	79
29277	7	Sololá	701	Sololá	1	Sololá	6	Junio	2023-06-13T00:00:00	2024-11-08T06:00:00	6	Velocidad del viento	4.8
29278	7	Sololá	701	Sololá	1	Sololá	6	Junio	2023-06-13T00:00:00	2024-11-08T06:00:00	7	Dirección del viento	4.83
29279	7	Sololá	701	Sololá	1	Sololá	6	Junio	2023-06-13T00:00:00	2024-11-08T06:00:00	1	Precipitación	0
29280	7	Sololá	701	Sololá	1	Sololá	6	Junio	2023-06-13T00:00:00	2024-11-08T06:00:00	8	Radiación solar	3
29281	7	Sololá	701	Sololá	1	Sololá	6	Junio	2023-06-13T00:00:00	2024-11-08T07:00:00	2	Temperatura media	17.8
29282	7	Sololá	701	Sololá	1	Sololá	6	Junio	2023-06-13T00:00:00	2024-11-08T07:00:00	4	Temperatura máxima	17.9
29283	7	Sololá	701	Sololá	1	Sololá	6	Junio	2023-06-13T00:00:00	2024-11-08T07:00:00	3	Temperatura mínima	16.6
29284	7	Sololá	701	Sololá	1	Sololá	6	Junio	2023-06-13T00:00:00	2024-11-08T07:00:00	5	Humedad	76
29285	7	Sololá	701	Sololá	1	Sololá	6	Junio	2023-06-13T00:00:00	2024-11-08T07:00:00	6	Velocidad del viento	3.2
29286	7	Sololá	701	Sololá	1	Sololá	6	Junio	2023-06-13T00:00:00	2024-11-08T07:00:00	7	Dirección del viento	3.22
29287	7	Sololá	701	Sololá	1	Sololá	6	Junio	2023-06-13T00:00:00	2024-11-08T07:00:00	1	Precipitación	0
29288	7	Sololá	701	Sololá	1	Sololá	6	Junio	2023-06-13T00:00:00	2024-11-08T07:00:00	8	Radiación solar	42
29289	7	Sololá	701	Sololá	1	Sololá	6	Junio	2023-06-13T00:00:00	2024-11-08T08:00:00	2	Temperatura media	19.7
29290	7	Sololá	701	Sololá	1	Sololá	6	Junio	2023-06-13T00:00:00	2024-11-08T08:00:00	4	Temperatura máxima	19.9
29291	7	Sololá	701	Sololá	1	Sololá	6	Junio	2023-06-13T00:00:00	2024-11-08T08:00:00	3	Temperatura mínima	17.9
29292	7	Sololá	701	Sololá	1	Sololá	6	Junio	2023-06-13T00:00:00	2024-11-08T08:00:00	5	Humedad	76
29293	7	Sololá	701	Sololá	1	Sololá	6	Junio	2023-06-13T00:00:00	2024-11-08T08:00:00	6	Velocidad del viento	8
29294	7	Sololá	701	Sololá	1	Sololá	6	Junio	2023-06-13T00:00:00	2024-11-08T08:00:00	7	Dirección del viento	8.05
29295	7	Sololá	701	Sololá	1	Sololá	6	Junio	2023-06-13T00:00:00	2024-11-08T08:00:00	1	Precipitación	0
29296	7	Sololá	701	Sololá	1	Sololá	6	Junio	2023-06-13T00:00:00	2024-11-08T08:00:00	8	Radiación solar	153
29297	7	Sololá	701	Sololá	1	Sololá	6	Junio	2023-06-13T00:00:00	2024-11-08T09:00:00	2	Temperatura media	21.8
29298	7	Sololá	701	Sololá	1	Sololá	6	Junio	2023-06-13T00:00:00	2024-11-08T09:00:00	4	Temperatura máxima	22
29299	7	Sololá	701	Sololá	1	Sololá	6	Junio	2023-06-13T00:00:00	2024-11-08T09:00:00	3	Temperatura mínima	19.4
29300	7	Sololá	701	Sololá	1	Sololá	6	Junio	2023-06-13T00:00:00	2024-11-08T09:00:00	5	Humedad	61
29301	7	Sololá	701	Sololá	1	Sololá	6	Junio	2023-06-13T00:00:00	2024-11-08T09:00:00	6	Velocidad del viento	6.4
29302	7	Sololá	701	Sololá	1	Sololá	6	Junio	2023-06-13T00:00:00	2024-11-08T09:00:00	7	Dirección del viento	6.44
29303	7	Sololá	701	Sololá	1	Sololá	6	Junio	2023-06-13T00:00:00	2024-11-08T09:00:00	1	Precipitación	0
29304	7	Sololá	701	Sololá	1	Sololá	6	Junio	2023-06-13T00:00:00	2024-11-08T09:00:00	8	Radiación solar	241
29305	7	Sololá	701	Sololá	1	Sololá	6	Junio	2023-06-13T00:00:00	2024-11-08T10:00:00	2	Temperatura media	22.1
29306	7	Sololá	701	Sololá	1	Sololá	6	Junio	2023-06-13T00:00:00	2024-11-08T10:00:00	4	Temperatura máxima	22.8
29307	7	Sololá	701	Sololá	1	Sololá	6	Junio	2023-06-13T00:00:00	2024-11-08T10:00:00	3	Temperatura mínima	21.4
29308	7	Sololá	701	Sololá	1	Sololá	6	Junio	2023-06-13T00:00:00	2024-11-08T10:00:00	5	Humedad	57
29309	7	Sololá	701	Sololá	1	Sololá	6	Junio	2023-06-13T00:00:00	2024-11-08T10:00:00	6	Velocidad del viento	11.3
29310	7	Sololá	701	Sololá	1	Sololá	6	Junio	2023-06-13T00:00:00	2024-11-08T10:00:00	7	Dirección del viento	11.27
29311	7	Sololá	701	Sololá	1	Sololá	6	Junio	2023-06-13T00:00:00	2024-11-08T10:00:00	1	Precipitación	0
29312	7	Sololá	701	Sololá	1	Sololá	6	Junio	2023-06-13T00:00:00	2024-11-08T10:00:00	8	Radiación solar	531
29313	7	Sololá	701	Sololá	1	Sololá	6	Junio	2023-06-13T00:00:00	2024-11-08T11:00:00	2	Temperatura media	23.3
29314	7	Sololá	701	Sololá	1	Sololá	6	Junio	2023-06-13T00:00:00	2024-11-08T11:00:00	4	Temperatura máxima	23.3
29315	7	Sololá	701	Sololá	1	Sololá	6	Junio	2023-06-13T00:00:00	2024-11-08T11:00:00	3	Temperatura mínima	22.1
29316	7	Sololá	701	Sololá	1	Sololá	6	Junio	2023-06-13T00:00:00	2024-11-08T11:00:00	5	Humedad	63
29317	7	Sololá	701	Sololá	1	Sololá	6	Junio	2023-06-13T00:00:00	2024-11-08T11:00:00	6	Velocidad del viento	6.4
29318	7	Sololá	701	Sololá	1	Sololá	6	Junio	2023-06-13T00:00:00	2024-11-08T11:00:00	7	Dirección del viento	6.44
29319	7	Sololá	701	Sololá	1	Sololá	6	Junio	2023-06-13T00:00:00	2024-11-08T11:00:00	1	Precipitación	0
29320	7	Sololá	701	Sololá	1	Sololá	6	Junio	2023-06-13T00:00:00	2024-11-08T11:00:00	8	Radiación solar	171
29321	7	Sololá	701	Sololá	1	Sololá	6	Junio	2023-06-13T00:00:00	2024-11-08T12:00:00	2	Temperatura media	25.3
29322	7	Sololá	701	Sololá	1	Sololá	6	Junio	2023-06-13T00:00:00	2024-11-08T12:00:00	4	Temperatura máxima	25.3
29323	7	Sololá	701	Sololá	1	Sololá	6	Junio	2023-06-13T00:00:00	2024-11-08T12:00:00	3	Temperatura mínima	23.3
29324	7	Sololá	701	Sololá	1	Sololá	6	Junio	2023-06-13T00:00:00	2024-11-08T12:00:00	5	Humedad	56
29325	7	Sololá	701	Sololá	1	Sololá	6	Junio	2023-06-13T00:00:00	2024-11-08T12:00:00	6	Velocidad del viento	6.4
29326	7	Sololá	701	Sololá	1	Sololá	6	Junio	2023-06-13T00:00:00	2024-11-08T12:00:00	7	Dirección del viento	6.44
29327	7	Sololá	701	Sololá	1	Sololá	6	Junio	2023-06-13T00:00:00	2024-11-08T12:00:00	1	Precipitación	0
29328	7	Sololá	701	Sololá	1	Sololá	6	Junio	2023-06-13T00:00:00	2024-11-08T12:00:00	8	Radiación solar	308
29329	7	Sololá	701	Sololá	1	Sololá	6	Junio	2023-06-13T00:00:00	2024-11-08T13:00:00	2	Temperatura media	23.8
29330	7	Sololá	701	Sololá	1	Sololá	6	Junio	2023-06-13T00:00:00	2024-11-08T13:00:00	4	Temperatura máxima	25.3
29331	7	Sololá	701	Sololá	1	Sololá	6	Junio	2023-06-13T00:00:00	2024-11-08T13:00:00	3	Temperatura mínima	23.4
29332	7	Sololá	701	Sololá	1	Sololá	6	Junio	2023-06-13T00:00:00	2024-11-08T13:00:00	5	Humedad	70
29333	7	Sololá	701	Sololá	1	Sololá	6	Junio	2023-06-13T00:00:00	2024-11-08T13:00:00	6	Velocidad del viento	6.4
29334	7	Sololá	701	Sololá	1	Sololá	6	Junio	2023-06-13T00:00:00	2024-11-08T13:00:00	7	Dirección del viento	6.44
29335	7	Sololá	701	Sololá	1	Sololá	6	Junio	2023-06-13T00:00:00	2024-11-08T13:00:00	1	Precipitación	0
29336	7	Sololá	701	Sololá	1	Sololá	6	Junio	2023-06-13T00:00:00	2024-11-08T13:00:00	8	Radiación solar	252
29337	7	Sololá	701	Sololá	1	Sololá	6	Junio	2023-06-13T00:00:00	2024-11-08T14:00:00	2	Temperatura media	23.5
29338	7	Sololá	701	Sololá	1	Sololá	6	Junio	2023-06-13T00:00:00	2024-11-08T14:00:00	4	Temperatura máxima	24
29339	7	Sololá	701	Sololá	1	Sololá	6	Junio	2023-06-13T00:00:00	2024-11-08T14:00:00	3	Temperatura mínima	23.3
29340	7	Sololá	701	Sololá	1	Sololá	6	Junio	2023-06-13T00:00:00	2024-11-08T14:00:00	5	Humedad	74
29341	7	Sololá	701	Sololá	1	Sololá	6	Junio	2023-06-13T00:00:00	2024-11-08T14:00:00	6	Velocidad del viento	6.4
29342	7	Sololá	701	Sololá	1	Sololá	6	Junio	2023-06-13T00:00:00	2024-11-08T14:00:00	7	Dirección del viento	6.44
29343	7	Sololá	701	Sololá	1	Sololá	6	Junio	2023-06-13T00:00:00	2024-11-08T14:00:00	1	Precipitación	0
29344	7	Sololá	701	Sololá	1	Sololá	6	Junio	2023-06-13T00:00:00	2024-11-08T14:00:00	8	Radiación solar	278
29345	7	Sololá	701	Sololá	1	Sololá	6	Junio	2023-06-13T00:00:00	2024-11-08T15:00:00	2	Temperatura media	22.1
29346	7	Sololá	701	Sololá	1	Sololá	6	Junio	2023-06-13T00:00:00	2024-11-08T15:00:00	4	Temperatura máxima	23.5
29347	7	Sololá	701	Sololá	1	Sololá	6	Junio	2023-06-13T00:00:00	2024-11-08T15:00:00	3	Temperatura mínima	21.9
29348	7	Sololá	701	Sololá	1	Sololá	6	Junio	2023-06-13T00:00:00	2024-11-08T15:00:00	5	Humedad	79
29349	7	Sololá	701	Sololá	1	Sololá	6	Junio	2023-06-13T00:00:00	2024-11-08T15:00:00	6	Velocidad del viento	6.4
29350	7	Sololá	701	Sololá	1	Sololá	6	Junio	2023-06-13T00:00:00	2024-11-08T15:00:00	7	Dirección del viento	6.44
29351	7	Sololá	701	Sololá	1	Sololá	6	Junio	2023-06-13T00:00:00	2024-11-08T15:00:00	1	Precipitación	0
29352	7	Sololá	701	Sololá	1	Sololá	6	Junio	2023-06-13T00:00:00	2024-11-08T15:00:00	8	Radiación solar	247
29353	7	Sololá	701	Sololá	1	Sololá	6	Junio	2023-06-13T00:00:00	2024-11-08T16:00:00	2	Temperatura media	21.3
29354	7	Sololá	701	Sololá	1	Sololá	6	Junio	2023-06-13T00:00:00	2024-11-08T16:00:00	4	Temperatura máxima	22.4
29355	7	Sololá	701	Sololá	1	Sololá	6	Junio	2023-06-13T00:00:00	2024-11-08T16:00:00	3	Temperatura mínima	21.3
29356	7	Sololá	701	Sololá	1	Sololá	6	Junio	2023-06-13T00:00:00	2024-11-08T16:00:00	5	Humedad	82
29357	7	Sololá	701	Sololá	1	Sololá	6	Junio	2023-06-13T00:00:00	2024-11-08T16:00:00	6	Velocidad del viento	4.8
29358	7	Sololá	701	Sololá	1	Sololá	6	Junio	2023-06-13T00:00:00	2024-11-08T16:00:00	7	Dirección del viento	4.83
29359	7	Sololá	701	Sololá	1	Sololá	6	Junio	2023-06-13T00:00:00	2024-11-08T16:00:00	1	Precipitación	0
29360	7	Sololá	701	Sololá	1	Sololá	6	Junio	2023-06-13T00:00:00	2024-11-08T16:00:00	8	Radiación solar	136
29361	7	Sololá	701	Sololá	1	Sololá	6	Junio	2023-06-13T00:00:00	2024-11-08T17:00:00	2	Temperatura media	20.3
29362	7	Sololá	701	Sololá	1	Sololá	6	Junio	2023-06-13T00:00:00	2024-11-08T17:00:00	4	Temperatura máxima	21.3
29363	7	Sololá	701	Sololá	1	Sololá	6	Junio	2023-06-13T00:00:00	2024-11-08T17:00:00	3	Temperatura mínima	20.3
29364	7	Sololá	701	Sololá	1	Sololá	6	Junio	2023-06-13T00:00:00	2024-11-08T17:00:00	5	Humedad	87
29365	7	Sololá	701	Sololá	1	Sololá	6	Junio	2023-06-13T00:00:00	2024-11-08T17:00:00	6	Velocidad del viento	4.8
29366	7	Sololá	701	Sololá	1	Sololá	6	Junio	2023-06-13T00:00:00	2024-11-08T17:00:00	7	Dirección del viento	4.83
29367	7	Sololá	701	Sololá	1	Sololá	6	Junio	2023-06-13T00:00:00	2024-11-08T17:00:00	1	Precipitación	0
29368	7	Sololá	701	Sololá	1	Sololá	6	Junio	2023-06-13T00:00:00	2024-11-08T17:00:00	8	Radiación solar	102
29369	7	Sololá	701	Sololá	1	Sololá	6	Junio	2023-06-13T00:00:00	2024-11-08T18:00:00	2	Temperatura media	19.5
29370	7	Sololá	701	Sololá	1	Sololá	6	Junio	2023-06-13T00:00:00	2024-11-08T18:00:00	4	Temperatura máxima	20.3
29371	7	Sololá	701	Sololá	1	Sololá	6	Junio	2023-06-13T00:00:00	2024-11-08T18:00:00	3	Temperatura mínima	19.4
29372	7	Sololá	701	Sololá	1	Sololá	6	Junio	2023-06-13T00:00:00	2024-11-08T18:00:00	5	Humedad	88
29373	7	Sololá	701	Sololá	1	Sololá	6	Junio	2023-06-13T00:00:00	2024-11-08T18:00:00	6	Velocidad del viento	3.2
29374	7	Sololá	701	Sololá	1	Sololá	6	Junio	2023-06-13T00:00:00	2024-11-08T18:00:00	7	Dirección del viento	3.22
29375	7	Sololá	701	Sololá	1	Sololá	6	Junio	2023-06-13T00:00:00	2024-11-08T18:00:00	1	Precipitación	0
29376	7	Sololá	701	Sololá	1	Sololá	6	Junio	2023-06-13T00:00:00	2024-11-08T18:00:00	8	Radiación solar	38
29377	7	Sololá	701	Sololá	1	Sololá	6	Junio	2023-06-13T00:00:00	2024-11-08T19:00:00	2	Temperatura media	18.6
29378	7	Sololá	701	Sololá	1	Sololá	6	Junio	2023-06-13T00:00:00	2024-11-08T19:00:00	4	Temperatura máxima	19.6
29379	7	Sololá	701	Sololá	1	Sololá	6	Junio	2023-06-13T00:00:00	2024-11-08T19:00:00	3	Temperatura mínima	18.6
29380	7	Sololá	701	Sololá	1	Sololá	6	Junio	2023-06-13T00:00:00	2024-11-08T19:00:00	5	Humedad	92
29381	7	Sololá	701	Sololá	1	Sololá	6	Junio	2023-06-13T00:00:00	2024-11-08T19:00:00	6	Velocidad del viento	0
29382	7	Sololá	701	Sololá	1	Sololá	6	Junio	2023-06-13T00:00:00	2024-11-08T19:00:00	7	Dirección del viento	0
29383	7	Sololá	701	Sololá	1	Sololá	6	Junio	2023-06-13T00:00:00	2024-11-08T19:00:00	1	Precipitación	0
29384	7	Sololá	701	Sololá	1	Sololá	6	Junio	2023-06-13T00:00:00	2024-11-08T19:00:00	8	Radiación solar	0
29385	7	Sololá	701	Sololá	1	Sololá	6	Junio	2023-06-13T00:00:00	2024-11-08T20:00:00	2	Temperatura media	18
29386	7	Sololá	701	Sololá	1	Sololá	6	Junio	2023-06-13T00:00:00	2024-11-08T20:00:00	4	Temperatura máxima	18.8
29387	7	Sololá	701	Sololá	1	Sololá	6	Junio	2023-06-13T00:00:00	2024-11-08T20:00:00	3	Temperatura mínima	18
29388	7	Sololá	701	Sololá	1	Sololá	6	Junio	2023-06-13T00:00:00	2024-11-08T20:00:00	5	Humedad	93
29389	7	Sololá	701	Sololá	1	Sololá	6	Junio	2023-06-13T00:00:00	2024-11-08T20:00:00	6	Velocidad del viento	0
29390	7	Sololá	701	Sololá	1	Sololá	6	Junio	2023-06-13T00:00:00	2024-11-08T20:00:00	7	Dirección del viento	0
29391	7	Sololá	701	Sololá	1	Sololá	6	Junio	2023-06-13T00:00:00	2024-11-08T20:00:00	1	Precipitación	0
29392	7	Sololá	701	Sololá	1	Sololá	6	Junio	2023-06-13T00:00:00	2024-11-08T20:00:00	8	Radiación solar	0
29393	7	Sololá	701	Sololá	1	Sololá	6	Junio	2023-06-13T00:00:00	2024-11-08T21:00:00	2	Temperatura media	18.7
29394	7	Sololá	701	Sololá	1	Sololá	6	Junio	2023-06-13T00:00:00	2024-11-08T21:00:00	4	Temperatura máxima	18.7
29395	7	Sololá	701	Sololá	1	Sololá	6	Junio	2023-06-13T00:00:00	2024-11-08T21:00:00	3	Temperatura mínima	17.8
29396	7	Sololá	701	Sololá	1	Sololá	6	Junio	2023-06-13T00:00:00	2024-11-08T21:00:00	5	Humedad	78
29397	7	Sololá	701	Sololá	1	Sololá	6	Junio	2023-06-13T00:00:00	2024-11-08T21:00:00	6	Velocidad del viento	3.2
29398	7	Sololá	701	Sololá	1	Sololá	6	Junio	2023-06-13T00:00:00	2024-11-08T21:00:00	7	Dirección del viento	3.22
29399	7	Sololá	701	Sololá	1	Sololá	6	Junio	2023-06-13T00:00:00	2024-11-08T21:00:00	1	Precipitación	0
29400	7	Sololá	701	Sololá	1	Sololá	6	Junio	2023-06-13T00:00:00	2024-11-08T21:00:00	8	Radiación solar	0
29401	7	Sololá	701	Sololá	1	Sololá	6	Junio	2023-06-13T00:00:00	2024-11-08T22:00:00	2	Temperatura media	18.8
29402	7	Sololá	701	Sololá	1	Sololá	6	Junio	2023-06-13T00:00:00	2024-11-08T22:00:00	4	Temperatura máxima	19.1
29403	7	Sololá	701	Sololá	1	Sololá	6	Junio	2023-06-13T00:00:00	2024-11-08T22:00:00	3	Temperatura mínima	18.6
29404	7	Sololá	701	Sololá	1	Sololá	6	Junio	2023-06-13T00:00:00	2024-11-08T22:00:00	5	Humedad	80
29405	7	Sololá	701	Sololá	1	Sololá	6	Junio	2023-06-13T00:00:00	2024-11-08T22:00:00	6	Velocidad del viento	1.6
29406	7	Sololá	701	Sololá	1	Sololá	6	Junio	2023-06-13T00:00:00	2024-11-08T22:00:00	7	Dirección del viento	1.61
29407	7	Sololá	701	Sololá	1	Sololá	6	Junio	2023-06-13T00:00:00	2024-11-08T22:00:00	1	Precipitación	0
29408	7	Sololá	701	Sololá	1	Sololá	6	Junio	2023-06-13T00:00:00	2024-11-08T22:00:00	8	Radiación solar	0
29409	7	Sololá	701	Sololá	1	Sololá	6	Junio	2023-06-13T00:00:00	2024-11-08T23:00:00	2	Temperatura media	18.4
29410	7	Sololá	701	Sololá	1	Sololá	6	Junio	2023-06-13T00:00:00	2024-11-08T23:00:00	4	Temperatura máxima	18.8
29411	7	Sololá	701	Sololá	1	Sololá	6	Junio	2023-06-13T00:00:00	2024-11-08T23:00:00	3	Temperatura mínima	18.3
29412	7	Sololá	701	Sololá	1	Sololá	6	Junio	2023-06-13T00:00:00	2024-11-08T23:00:00	5	Humedad	80
29413	7	Sololá	701	Sololá	1	Sololá	6	Junio	2023-06-13T00:00:00	2024-11-08T23:00:00	6	Velocidad del viento	1.6
29414	7	Sololá	701	Sololá	1	Sololá	6	Junio	2023-06-13T00:00:00	2024-11-08T23:00:00	7	Dirección del viento	1.61
29415	7	Sololá	701	Sololá	1	Sololá	6	Junio	2023-06-13T00:00:00	2024-11-08T23:00:00	1	Precipitación	0
29416	7	Sololá	701	Sololá	1	Sololá	6	Junio	2023-06-13T00:00:00	2024-11-08T23:00:00	8	Radiación solar	0
29417	7	Sololá	701	Sololá	1	Sololá	6	Junio	2023-06-14T00:00:00	2024-11-08T00:00:00	2	Temperatura media	17.8
29418	7	Sololá	701	Sololá	1	Sololá	6	Junio	2023-06-14T00:00:00	2024-11-08T00:00:00	4	Temperatura máxima	18.4
29419	7	Sololá	701	Sololá	1	Sololá	6	Junio	2023-06-14T00:00:00	2024-11-08T00:00:00	3	Temperatura mínima	17.8
29420	7	Sololá	701	Sololá	1	Sololá	6	Junio	2023-06-14T00:00:00	2024-11-08T00:00:00	5	Humedad	82
29421	7	Sololá	701	Sololá	1	Sololá	6	Junio	2023-06-14T00:00:00	2024-11-08T00:00:00	6	Velocidad del viento	4.8
29422	7	Sololá	701	Sololá	1	Sololá	6	Junio	2023-06-14T00:00:00	2024-11-08T00:00:00	7	Dirección del viento	4.83
29423	7	Sololá	701	Sololá	1	Sololá	6	Junio	2023-06-14T00:00:00	2024-11-08T00:00:00	1	Precipitación	0
29424	7	Sololá	701	Sololá	1	Sololá	6	Junio	2023-06-14T00:00:00	2024-11-08T00:00:00	8	Radiación solar	0
29425	7	Sololá	701	Sololá	1	Sololá	6	Junio	2023-06-14T00:00:00	2024-11-08T01:00:00	2	Temperatura media	17.6
29426	7	Sololá	701	Sololá	1	Sololá	6	Junio	2023-06-14T00:00:00	2024-11-08T01:00:00	4	Temperatura máxima	17.8
29427	7	Sololá	701	Sololá	1	Sololá	6	Junio	2023-06-14T00:00:00	2024-11-08T01:00:00	3	Temperatura mínima	17.6
29428	7	Sololá	701	Sololá	1	Sololá	6	Junio	2023-06-14T00:00:00	2024-11-08T01:00:00	5	Humedad	81
29429	7	Sololá	701	Sololá	1	Sololá	6	Junio	2023-06-14T00:00:00	2024-11-08T01:00:00	6	Velocidad del viento	8
29430	7	Sololá	701	Sololá	1	Sololá	6	Junio	2023-06-14T00:00:00	2024-11-08T01:00:00	7	Dirección del viento	8.05
29431	7	Sololá	701	Sololá	1	Sololá	6	Junio	2023-06-14T00:00:00	2024-11-08T01:00:00	1	Precipitación	0
29432	7	Sololá	701	Sololá	1	Sololá	6	Junio	2023-06-14T00:00:00	2024-11-08T01:00:00	8	Radiación solar	0
29433	7	Sololá	701	Sololá	1	Sololá	6	Junio	2023-06-14T00:00:00	2024-11-08T02:00:00	2	Temperatura media	17.2
29434	7	Sololá	701	Sololá	1	Sololá	6	Junio	2023-06-14T00:00:00	2024-11-08T02:00:00	4	Temperatura máxima	17.6
29435	7	Sololá	701	Sololá	1	Sololá	6	Junio	2023-06-14T00:00:00	2024-11-08T02:00:00	3	Temperatura mínima	17.2
29436	7	Sololá	701	Sololá	1	Sololá	6	Junio	2023-06-14T00:00:00	2024-11-08T02:00:00	5	Humedad	82
29437	7	Sololá	701	Sololá	1	Sololá	6	Junio	2023-06-14T00:00:00	2024-11-08T02:00:00	6	Velocidad del viento	4.8
29438	7	Sololá	701	Sololá	1	Sololá	6	Junio	2023-06-14T00:00:00	2024-11-08T02:00:00	7	Dirección del viento	4.83
29439	7	Sololá	701	Sololá	1	Sololá	6	Junio	2023-06-14T00:00:00	2024-11-08T02:00:00	1	Precipitación	0
29440	7	Sololá	701	Sololá	1	Sololá	6	Junio	2023-06-14T00:00:00	2024-11-08T02:00:00	8	Radiación solar	0
29441	7	Sololá	701	Sololá	1	Sololá	6	Junio	2023-06-14T00:00:00	2024-11-08T03:00:00	2	Temperatura media	17.1
29442	7	Sololá	701	Sololá	1	Sololá	6	Junio	2023-06-14T00:00:00	2024-11-08T03:00:00	4	Temperatura máxima	17.2
29443	7	Sololá	701	Sololá	1	Sololá	6	Junio	2023-06-14T00:00:00	2024-11-08T03:00:00	3	Temperatura mínima	16.2
29444	7	Sololá	701	Sololá	1	Sololá	6	Junio	2023-06-14T00:00:00	2024-11-08T03:00:00	5	Humedad	77
29445	7	Sololá	701	Sololá	1	Sololá	6	Junio	2023-06-14T00:00:00	2024-11-08T03:00:00	6	Velocidad del viento	3.2
29446	7	Sololá	701	Sololá	1	Sololá	6	Junio	2023-06-14T00:00:00	2024-11-08T03:00:00	7	Dirección del viento	3.22
29447	7	Sololá	701	Sololá	1	Sololá	6	Junio	2023-06-14T00:00:00	2024-11-08T03:00:00	1	Precipitación	0
29448	7	Sololá	701	Sololá	1	Sololá	6	Junio	2023-06-14T00:00:00	2024-11-08T03:00:00	8	Radiación solar	0
29449	7	Sololá	701	Sololá	1	Sololá	6	Junio	2023-06-14T00:00:00	2024-11-08T04:00:00	2	Temperatura media	16.3
29450	7	Sololá	701	Sololá	1	Sololá	6	Junio	2023-06-14T00:00:00	2024-11-08T04:00:00	4	Temperatura máxima	17.4
29451	7	Sololá	701	Sololá	1	Sololá	6	Junio	2023-06-14T00:00:00	2024-11-08T04:00:00	3	Temperatura mínima	16.3
29452	7	Sololá	701	Sololá	1	Sololá	6	Junio	2023-06-14T00:00:00	2024-11-08T04:00:00	5	Humedad	78
29453	7	Sololá	701	Sololá	1	Sololá	6	Junio	2023-06-14T00:00:00	2024-11-08T04:00:00	6	Velocidad del viento	4.8
29454	7	Sololá	701	Sololá	1	Sololá	6	Junio	2023-06-14T00:00:00	2024-11-08T04:00:00	7	Dirección del viento	4.83
29455	7	Sololá	701	Sololá	1	Sololá	6	Junio	2023-06-14T00:00:00	2024-11-08T04:00:00	1	Precipitación	0
29456	7	Sololá	701	Sololá	1	Sololá	6	Junio	2023-06-14T00:00:00	2024-11-08T04:00:00	8	Radiación solar	0
29457	7	Sololá	701	Sololá	1	Sololá	6	Junio	2023-06-14T00:00:00	2024-11-08T05:00:00	2	Temperatura media	14.8
29458	7	Sololá	701	Sololá	1	Sololá	6	Junio	2023-06-14T00:00:00	2024-11-08T05:00:00	4	Temperatura máxima	16.3
29459	7	Sololá	701	Sololá	1	Sololá	6	Junio	2023-06-14T00:00:00	2024-11-08T05:00:00	3	Temperatura mínima	14.8
29460	7	Sololá	701	Sololá	1	Sololá	6	Junio	2023-06-14T00:00:00	2024-11-08T05:00:00	5	Humedad	82
29461	7	Sololá	701	Sololá	1	Sololá	6	Junio	2023-06-14T00:00:00	2024-11-08T05:00:00	6	Velocidad del viento	1.6
29462	7	Sololá	701	Sololá	1	Sololá	6	Junio	2023-06-14T00:00:00	2024-11-08T05:00:00	7	Dirección del viento	1.61
29463	7	Sololá	701	Sololá	1	Sololá	6	Junio	2023-06-14T00:00:00	2024-11-08T05:00:00	1	Precipitación	0
29464	7	Sololá	701	Sololá	1	Sololá	6	Junio	2023-06-14T00:00:00	2024-11-08T05:00:00	8	Radiación solar	0
29465	7	Sololá	701	Sololá	1	Sololá	6	Junio	2023-06-14T00:00:00	2024-11-08T06:00:00	2	Temperatura media	15.8
29466	7	Sololá	701	Sololá	1	Sololá	6	Junio	2023-06-14T00:00:00	2024-11-08T06:00:00	4	Temperatura máxima	15.8
29467	7	Sololá	701	Sololá	1	Sololá	6	Junio	2023-06-14T00:00:00	2024-11-08T06:00:00	3	Temperatura mínima	14.8
29468	7	Sololá	701	Sololá	1	Sololá	6	Junio	2023-06-14T00:00:00	2024-11-08T06:00:00	5	Humedad	78
29469	7	Sololá	701	Sololá	1	Sololá	6	Junio	2023-06-14T00:00:00	2024-11-08T06:00:00	6	Velocidad del viento	3.2
29470	7	Sololá	701	Sololá	1	Sololá	6	Junio	2023-06-14T00:00:00	2024-11-08T06:00:00	7	Dirección del viento	3.22
29471	7	Sololá	701	Sololá	1	Sololá	6	Junio	2023-06-14T00:00:00	2024-11-08T06:00:00	1	Precipitación	0
29472	7	Sololá	701	Sololá	1	Sololá	6	Junio	2023-06-14T00:00:00	2024-11-08T06:00:00	8	Radiación solar	2
29473	7	Sololá	701	Sololá	1	Sololá	6	Junio	2023-06-14T00:00:00	2024-11-08T07:00:00	2	Temperatura media	16.5
29474	7	Sololá	701	Sololá	1	Sololá	6	Junio	2023-06-14T00:00:00	2024-11-08T07:00:00	4	Temperatura máxima	16.9
29475	7	Sololá	701	Sololá	1	Sololá	6	Junio	2023-06-14T00:00:00	2024-11-08T07:00:00	3	Temperatura mínima	15.6
29476	7	Sololá	701	Sololá	1	Sololá	6	Junio	2023-06-14T00:00:00	2024-11-08T07:00:00	5	Humedad	74
29477	7	Sololá	701	Sololá	1	Sololá	6	Junio	2023-06-14T00:00:00	2024-11-08T07:00:00	6	Velocidad del viento	3.2
29478	7	Sololá	701	Sololá	1	Sololá	6	Junio	2023-06-14T00:00:00	2024-11-08T07:00:00	7	Dirección del viento	3.22
29479	7	Sololá	701	Sololá	1	Sololá	6	Junio	2023-06-14T00:00:00	2024-11-08T07:00:00	1	Precipitación	0
29480	7	Sololá	701	Sololá	1	Sololá	6	Junio	2023-06-14T00:00:00	2024-11-08T07:00:00	8	Radiación solar	30
29481	7	Sololá	701	Sololá	1	Sololá	6	Junio	2023-06-14T00:00:00	2024-11-08T08:00:00	2	Temperatura media	21.1
29482	7	Sololá	701	Sololá	1	Sololá	6	Junio	2023-06-14T00:00:00	2024-11-08T08:00:00	4	Temperatura máxima	21.1
29483	7	Sololá	701	Sololá	1	Sololá	6	Junio	2023-06-14T00:00:00	2024-11-08T08:00:00	3	Temperatura mínima	16.4
29484	7	Sololá	701	Sololá	1	Sololá	6	Junio	2023-06-14T00:00:00	2024-11-08T08:00:00	5	Humedad	62
29485	7	Sololá	701	Sololá	1	Sololá	6	Junio	2023-06-14T00:00:00	2024-11-08T08:00:00	6	Velocidad del viento	4.8
29486	7	Sololá	701	Sololá	1	Sololá	6	Junio	2023-06-14T00:00:00	2024-11-08T08:00:00	7	Dirección del viento	4.83
29487	7	Sololá	701	Sololá	1	Sololá	6	Junio	2023-06-14T00:00:00	2024-11-08T08:00:00	1	Precipitación	0
29488	7	Sololá	701	Sololá	1	Sololá	6	Junio	2023-06-14T00:00:00	2024-11-08T08:00:00	8	Radiación solar	113
29489	7	Sololá	701	Sololá	1	Sololá	6	Junio	2023-06-14T00:00:00	2024-11-08T09:00:00	2	Temperatura media	21.8
29490	7	Sololá	701	Sololá	1	Sololá	6	Junio	2023-06-14T00:00:00	2024-11-08T09:00:00	4	Temperatura máxima	21.8
29491	7	Sololá	701	Sololá	1	Sololá	6	Junio	2023-06-14T00:00:00	2024-11-08T09:00:00	3	Temperatura mínima	20.8
29492	7	Sololá	701	Sololá	1	Sololá	6	Junio	2023-06-14T00:00:00	2024-11-08T09:00:00	5	Humedad	60
29493	7	Sololá	701	Sololá	1	Sololá	6	Junio	2023-06-14T00:00:00	2024-11-08T09:00:00	6	Velocidad del viento	9.7
29494	7	Sololá	701	Sololá	1	Sololá	6	Junio	2023-06-14T00:00:00	2024-11-08T09:00:00	7	Dirección del viento	9.66
29495	7	Sololá	701	Sololá	1	Sololá	6	Junio	2023-06-14T00:00:00	2024-11-08T09:00:00	1	Precipitación	0
29496	7	Sololá	701	Sololá	1	Sololá	6	Junio	2023-06-14T00:00:00	2024-11-08T09:00:00	8	Radiación solar	150
29497	7	Sololá	701	Sololá	1	Sololá	6	Junio	2023-06-14T00:00:00	2024-11-08T10:00:00	2	Temperatura media	22.1
29498	7	Sololá	701	Sololá	1	Sololá	6	Junio	2023-06-14T00:00:00	2024-11-08T10:00:00	4	Temperatura máxima	22.7
29499	7	Sololá	701	Sololá	1	Sololá	6	Junio	2023-06-14T00:00:00	2024-11-08T10:00:00	3	Temperatura mínima	21.7
29500	7	Sololá	701	Sololá	1	Sololá	6	Junio	2023-06-14T00:00:00	2024-11-08T10:00:00	5	Humedad	65
29501	7	Sololá	701	Sololá	1	Sololá	6	Junio	2023-06-14T00:00:00	2024-11-08T10:00:00	6	Velocidad del viento	6.4
29502	7	Sololá	701	Sololá	1	Sololá	6	Junio	2023-06-14T00:00:00	2024-11-08T10:00:00	7	Dirección del viento	6.44
29503	7	Sololá	701	Sololá	1	Sololá	6	Junio	2023-06-14T00:00:00	2024-11-08T10:00:00	1	Precipitación	0
29504	7	Sololá	701	Sololá	1	Sololá	6	Junio	2023-06-14T00:00:00	2024-11-08T10:00:00	8	Radiación solar	226
29505	7	Sololá	701	Sololá	1	Sololá	6	Junio	2023-06-14T00:00:00	2024-11-08T11:00:00	2	Temperatura media	20.9
29506	7	Sololá	701	Sololá	1	Sololá	6	Junio	2023-06-14T00:00:00	2024-11-08T11:00:00	4	Temperatura máxima	22.8
29507	7	Sololá	701	Sololá	1	Sololá	6	Junio	2023-06-14T00:00:00	2024-11-08T11:00:00	3	Temperatura mínima	20.9
29508	7	Sololá	701	Sololá	1	Sololá	6	Junio	2023-06-14T00:00:00	2024-11-08T11:00:00	5	Humedad	79
29509	7	Sololá	701	Sololá	1	Sololá	6	Junio	2023-06-14T00:00:00	2024-11-08T11:00:00	6	Velocidad del viento	4.8
29510	7	Sololá	701	Sololá	1	Sololá	6	Junio	2023-06-14T00:00:00	2024-11-08T11:00:00	7	Dirección del viento	4.83
29511	7	Sololá	701	Sololá	1	Sololá	6	Junio	2023-06-14T00:00:00	2024-11-08T11:00:00	1	Precipitación	0
29512	7	Sololá	701	Sololá	1	Sololá	6	Junio	2023-06-14T00:00:00	2024-11-08T11:00:00	8	Radiación solar	298
29513	7	Sololá	701	Sololá	1	Sololá	6	Junio	2023-06-14T00:00:00	2024-11-08T12:00:00	2	Temperatura media	21.8
29514	7	Sololá	701	Sololá	1	Sololá	6	Junio	2023-06-14T00:00:00	2024-11-08T12:00:00	4	Temperatura máxima	22.5
29515	7	Sololá	701	Sololá	1	Sololá	6	Junio	2023-06-14T00:00:00	2024-11-08T12:00:00	3	Temperatura mínima	20.9
29516	7	Sololá	701	Sololá	1	Sololá	6	Junio	2023-06-14T00:00:00	2024-11-08T12:00:00	5	Humedad	74
29517	7	Sololá	701	Sololá	1	Sololá	6	Junio	2023-06-14T00:00:00	2024-11-08T12:00:00	6	Velocidad del viento	4.8
29518	7	Sololá	701	Sololá	1	Sololá	6	Junio	2023-06-14T00:00:00	2024-11-08T12:00:00	7	Dirección del viento	4.83
29519	7	Sololá	701	Sololá	1	Sololá	6	Junio	2023-06-14T00:00:00	2024-11-08T12:00:00	1	Precipitación	0
29520	7	Sololá	701	Sololá	1	Sololá	6	Junio	2023-06-14T00:00:00	2024-11-08T12:00:00	8	Radiación solar	262
29521	7	Sololá	701	Sololá	1	Sololá	6	Junio	2023-06-14T00:00:00	2024-11-08T13:00:00	2	Temperatura media	22.8
29522	7	Sololá	701	Sololá	1	Sololá	6	Junio	2023-06-14T00:00:00	2024-11-08T13:00:00	4	Temperatura máxima	23
29523	7	Sololá	701	Sololá	1	Sololá	6	Junio	2023-06-14T00:00:00	2024-11-08T13:00:00	3	Temperatura mínima	21.8
29524	7	Sololá	701	Sololá	1	Sololá	6	Junio	2023-06-14T00:00:00	2024-11-08T13:00:00	5	Humedad	76
29525	7	Sololá	701	Sololá	1	Sololá	6	Junio	2023-06-14T00:00:00	2024-11-08T13:00:00	6	Velocidad del viento	4.8
29526	7	Sololá	701	Sololá	1	Sololá	6	Junio	2023-06-14T00:00:00	2024-11-08T13:00:00	7	Dirección del viento	4.83
29527	7	Sololá	701	Sololá	1	Sololá	6	Junio	2023-06-14T00:00:00	2024-11-08T13:00:00	1	Precipitación	0
29528	7	Sololá	701	Sololá	1	Sololá	6	Junio	2023-06-14T00:00:00	2024-11-08T13:00:00	8	Radiación solar	128
29529	7	Sololá	701	Sololá	1	Sololá	6	Junio	2023-06-14T00:00:00	2024-11-08T14:00:00	2	Temperatura media	22.5
29530	7	Sololá	701	Sololá	1	Sololá	6	Junio	2023-06-14T00:00:00	2024-11-08T14:00:00	4	Temperatura máxima	23
29531	7	Sololá	701	Sololá	1	Sololá	6	Junio	2023-06-14T00:00:00	2024-11-08T14:00:00	3	Temperatura mínima	22.3
29532	7	Sololá	701	Sololá	1	Sololá	6	Junio	2023-06-14T00:00:00	2024-11-08T14:00:00	5	Humedad	76
29533	7	Sololá	701	Sololá	1	Sololá	6	Junio	2023-06-14T00:00:00	2024-11-08T14:00:00	6	Velocidad del viento	6.4
29534	7	Sololá	701	Sololá	1	Sololá	6	Junio	2023-06-14T00:00:00	2024-11-08T14:00:00	7	Dirección del viento	6.44
29535	7	Sololá	701	Sololá	1	Sololá	6	Junio	2023-06-14T00:00:00	2024-11-08T14:00:00	1	Precipitación	0
29536	7	Sololá	701	Sololá	1	Sololá	6	Junio	2023-06-14T00:00:00	2024-11-08T14:00:00	8	Radiación solar	141
29537	7	Sololá	701	Sololá	1	Sololá	6	Junio	2023-06-14T00:00:00	2024-11-08T15:00:00	2	Temperatura media	21.2
29538	7	Sololá	701	Sololá	1	Sololá	6	Junio	2023-06-14T00:00:00	2024-11-08T15:00:00	4	Temperatura máxima	22.8
29539	7	Sololá	701	Sololá	1	Sololá	6	Junio	2023-06-14T00:00:00	2024-11-08T15:00:00	3	Temperatura mínima	21.2
29540	7	Sololá	701	Sololá	1	Sololá	6	Junio	2023-06-14T00:00:00	2024-11-08T15:00:00	5	Humedad	83
29541	7	Sololá	701	Sololá	1	Sololá	6	Junio	2023-06-14T00:00:00	2024-11-08T15:00:00	6	Velocidad del viento	6.4
29542	7	Sololá	701	Sololá	1	Sololá	6	Junio	2023-06-14T00:00:00	2024-11-08T15:00:00	7	Dirección del viento	6.44
29543	7	Sololá	701	Sololá	1	Sololá	6	Junio	2023-06-14T00:00:00	2024-11-08T15:00:00	1	Precipitación	0
29544	7	Sololá	701	Sololá	1	Sololá	6	Junio	2023-06-14T00:00:00	2024-11-08T15:00:00	8	Radiación solar	80
29545	7	Sololá	701	Sololá	1	Sololá	6	Junio	2023-06-14T00:00:00	2024-11-08T16:00:00	2	Temperatura media	19.2
29546	7	Sololá	701	Sololá	1	Sololá	6	Junio	2023-06-14T00:00:00	2024-11-08T16:00:00	4	Temperatura máxima	21.3
29547	7	Sololá	701	Sololá	1	Sololá	6	Junio	2023-06-14T00:00:00	2024-11-08T16:00:00	3	Temperatura mínima	19.2
29548	7	Sololá	701	Sololá	1	Sololá	6	Junio	2023-06-14T00:00:00	2024-11-08T16:00:00	5	Humedad	90
29549	7	Sololá	701	Sololá	1	Sololá	6	Junio	2023-06-14T00:00:00	2024-11-08T16:00:00	6	Velocidad del viento	8
29550	7	Sololá	701	Sololá	1	Sololá	6	Junio	2023-06-14T00:00:00	2024-11-08T16:00:00	7	Dirección del viento	8.05
29551	7	Sololá	701	Sololá	1	Sololá	6	Junio	2023-06-14T00:00:00	2024-11-08T16:00:00	1	Precipitación	0
29552	7	Sololá	701	Sololá	1	Sololá	6	Junio	2023-06-14T00:00:00	2024-11-08T16:00:00	8	Radiación solar	97
29553	7	Sololá	701	Sololá	1	Sololá	6	Junio	2023-06-14T00:00:00	2024-11-08T17:00:00	2	Temperatura media	19.1
29554	7	Sololá	701	Sololá	1	Sololá	6	Junio	2023-06-14T00:00:00	2024-11-08T17:00:00	4	Temperatura máxima	19.2
29555	7	Sololá	701	Sololá	1	Sololá	6	Junio	2023-06-14T00:00:00	2024-11-08T17:00:00	3	Temperatura mínima	18.4
29556	7	Sololá	701	Sololá	1	Sololá	6	Junio	2023-06-14T00:00:00	2024-11-08T17:00:00	5	Humedad	90
29557	7	Sololá	701	Sololá	1	Sololá	6	Junio	2023-06-14T00:00:00	2024-11-08T17:00:00	6	Velocidad del viento	3.2
29558	7	Sololá	701	Sololá	1	Sololá	6	Junio	2023-06-14T00:00:00	2024-11-08T17:00:00	7	Dirección del viento	3.22
29559	7	Sololá	701	Sololá	1	Sololá	6	Junio	2023-06-14T00:00:00	2024-11-08T17:00:00	1	Precipitación	0
29560	7	Sololá	701	Sololá	1	Sololá	6	Junio	2023-06-14T00:00:00	2024-11-08T17:00:00	8	Radiación solar	102
29561	7	Sololá	701	Sololá	1	Sololá	6	Junio	2023-06-14T00:00:00	2024-11-08T18:00:00	2	Temperatura media	18.6
29562	7	Sololá	701	Sololá	1	Sololá	6	Junio	2023-06-14T00:00:00	2024-11-08T18:00:00	4	Temperatura máxima	19.1
29563	7	Sololá	701	Sololá	1	Sololá	6	Junio	2023-06-14T00:00:00	2024-11-08T18:00:00	3	Temperatura mínima	18.6
29564	7	Sololá	701	Sololá	1	Sololá	6	Junio	2023-06-14T00:00:00	2024-11-08T18:00:00	5	Humedad	90
29565	7	Sololá	701	Sololá	1	Sololá	6	Junio	2023-06-14T00:00:00	2024-11-08T18:00:00	6	Velocidad del viento	1.6
29566	7	Sololá	701	Sololá	1	Sololá	6	Junio	2023-06-14T00:00:00	2024-11-08T18:00:00	7	Dirección del viento	1.61
29567	7	Sololá	701	Sololá	1	Sololá	6	Junio	2023-06-14T00:00:00	2024-11-08T18:00:00	1	Precipitación	0
29568	7	Sololá	701	Sololá	1	Sololá	6	Junio	2023-06-14T00:00:00	2024-11-08T18:00:00	8	Radiación solar	34
29569	7	Sololá	701	Sololá	1	Sololá	6	Junio	2023-06-14T00:00:00	2024-11-08T19:00:00	2	Temperatura media	17.8
29570	7	Sololá	701	Sololá	1	Sololá	6	Junio	2023-06-14T00:00:00	2024-11-08T19:00:00	4	Temperatura máxima	18.6
29571	7	Sololá	701	Sololá	1	Sololá	6	Junio	2023-06-14T00:00:00	2024-11-08T19:00:00	3	Temperatura mínima	17.8
29572	7	Sololá	701	Sololá	1	Sololá	6	Junio	2023-06-14T00:00:00	2024-11-08T19:00:00	5	Humedad	92
29573	7	Sololá	701	Sololá	1	Sololá	6	Junio	2023-06-14T00:00:00	2024-11-08T19:00:00	6	Velocidad del viento	0
29574	7	Sololá	701	Sololá	1	Sololá	6	Junio	2023-06-14T00:00:00	2024-11-08T19:00:00	7	Dirección del viento	0
29575	7	Sololá	701	Sololá	1	Sololá	6	Junio	2023-06-14T00:00:00	2024-11-08T19:00:00	1	Precipitación	0
29576	7	Sololá	701	Sololá	1	Sololá	6	Junio	2023-06-14T00:00:00	2024-11-08T19:00:00	8	Radiación solar	0
29577	7	Sololá	701	Sololá	1	Sololá	6	Junio	2023-06-14T00:00:00	2024-11-08T20:00:00	2	Temperatura media	17.6
29578	7	Sololá	701	Sololá	1	Sololá	6	Junio	2023-06-14T00:00:00	2024-11-08T20:00:00	4	Temperatura máxima	17.8
29579	7	Sololá	701	Sololá	1	Sololá	6	Junio	2023-06-14T00:00:00	2024-11-08T20:00:00	3	Temperatura mínima	16.7
29580	7	Sololá	701	Sololá	1	Sololá	6	Junio	2023-06-14T00:00:00	2024-11-08T20:00:00	5	Humedad	77
29581	7	Sololá	701	Sololá	1	Sololá	6	Junio	2023-06-14T00:00:00	2024-11-08T20:00:00	6	Velocidad del viento	3.2
29582	7	Sololá	701	Sololá	1	Sololá	6	Junio	2023-06-14T00:00:00	2024-11-08T20:00:00	7	Dirección del viento	3.22
29583	7	Sololá	701	Sololá	1	Sololá	6	Junio	2023-06-14T00:00:00	2024-11-08T20:00:00	1	Precipitación	0
29584	7	Sololá	701	Sololá	1	Sololá	6	Junio	2023-06-14T00:00:00	2024-11-08T20:00:00	8	Radiación solar	0
29585	7	Sololá	701	Sololá	1	Sololá	6	Junio	2023-06-14T00:00:00	2024-11-08T21:00:00	2	Temperatura media	17.9
29586	7	Sololá	701	Sololá	1	Sololá	6	Junio	2023-06-14T00:00:00	2024-11-08T21:00:00	4	Temperatura máxima	18.6
29587	7	Sololá	701	Sololá	1	Sololá	6	Junio	2023-06-14T00:00:00	2024-11-08T21:00:00	3	Temperatura mínima	17.6
29588	7	Sololá	701	Sololá	1	Sololá	6	Junio	2023-06-14T00:00:00	2024-11-08T21:00:00	5	Humedad	75
29589	7	Sololá	701	Sololá	1	Sololá	6	Junio	2023-06-14T00:00:00	2024-11-08T21:00:00	6	Velocidad del viento	1.6
29590	7	Sololá	701	Sololá	1	Sololá	6	Junio	2023-06-14T00:00:00	2024-11-08T21:00:00	7	Dirección del viento	1.61
29591	7	Sololá	701	Sololá	1	Sololá	6	Junio	2023-06-14T00:00:00	2024-11-08T21:00:00	1	Precipitación	0
29592	7	Sololá	701	Sololá	1	Sololá	6	Junio	2023-06-14T00:00:00	2024-11-08T21:00:00	8	Radiación solar	0
29593	7	Sololá	701	Sololá	1	Sololá	6	Junio	2023-06-14T00:00:00	2024-11-08T22:00:00	2	Temperatura media	17.4
29594	7	Sololá	701	Sololá	1	Sololá	6	Junio	2023-06-14T00:00:00	2024-11-08T22:00:00	4	Temperatura máxima	18
29595	7	Sololá	701	Sololá	1	Sololá	6	Junio	2023-06-14T00:00:00	2024-11-08T22:00:00	3	Temperatura mínima	17.4
29596	7	Sololá	701	Sololá	1	Sololá	6	Junio	2023-06-14T00:00:00	2024-11-08T22:00:00	5	Humedad	86
29597	7	Sololá	701	Sololá	1	Sololá	6	Junio	2023-06-14T00:00:00	2024-11-08T22:00:00	6	Velocidad del viento	3.2
29598	7	Sololá	701	Sololá	1	Sololá	6	Junio	2023-06-14T00:00:00	2024-11-08T22:00:00	7	Dirección del viento	3.22
29599	7	Sololá	701	Sololá	1	Sololá	6	Junio	2023-06-14T00:00:00	2024-11-08T22:00:00	1	Precipitación	0
29600	7	Sololá	701	Sololá	1	Sololá	6	Junio	2023-06-14T00:00:00	2024-11-08T22:00:00	8	Radiación solar	0
29601	7	Sololá	701	Sololá	1	Sololá	6	Junio	2023-06-14T00:00:00	2024-11-08T23:00:00	2	Temperatura media	16.8
29602	7	Sololá	701	Sololá	1	Sololá	6	Junio	2023-06-14T00:00:00	2024-11-08T23:00:00	4	Temperatura máxima	17.5
29603	7	Sololá	701	Sololá	1	Sololá	6	Junio	2023-06-14T00:00:00	2024-11-08T23:00:00	3	Temperatura mínima	16.7
29604	7	Sololá	701	Sololá	1	Sololá	6	Junio	2023-06-14T00:00:00	2024-11-08T23:00:00	5	Humedad	83
29605	7	Sololá	701	Sololá	1	Sololá	6	Junio	2023-06-14T00:00:00	2024-11-08T23:00:00	6	Velocidad del viento	0
29606	7	Sololá	701	Sololá	1	Sololá	6	Junio	2023-06-14T00:00:00	2024-11-08T23:00:00	7	Dirección del viento	0
29607	7	Sololá	701	Sololá	1	Sololá	6	Junio	2023-06-14T00:00:00	2024-11-08T23:00:00	1	Precipitación	0
29608	7	Sololá	701	Sololá	1	Sololá	6	Junio	2023-06-14T00:00:00	2024-11-08T23:00:00	8	Radiación solar	0
29609	7	Sololá	701	Sololá	1	Sololá	6	Junio	2023-06-15T00:00:00	2024-11-08T00:00:00	2	Temperatura media	16.3
29610	7	Sololá	701	Sololá	1	Sololá	6	Junio	2023-06-15T00:00:00	2024-11-08T00:00:00	4	Temperatura máxima	16.8
29611	7	Sololá	701	Sololá	1	Sololá	6	Junio	2023-06-15T00:00:00	2024-11-08T00:00:00	3	Temperatura mínima	16.3
29612	7	Sololá	701	Sololá	1	Sololá	6	Junio	2023-06-15T00:00:00	2024-11-08T00:00:00	5	Humedad	84
29613	7	Sololá	701	Sololá	1	Sololá	6	Junio	2023-06-15T00:00:00	2024-11-08T00:00:00	6	Velocidad del viento	1.6
29614	7	Sololá	701	Sololá	1	Sololá	6	Junio	2023-06-15T00:00:00	2024-11-08T00:00:00	7	Dirección del viento	1.61
29615	7	Sololá	701	Sololá	1	Sololá	6	Junio	2023-06-15T00:00:00	2024-11-08T00:00:00	1	Precipitación	0
29616	7	Sololá	701	Sololá	1	Sololá	6	Junio	2023-06-15T00:00:00	2024-11-08T00:00:00	8	Radiación solar	0
29617	7	Sololá	701	Sololá	1	Sololá	6	Junio	2023-06-15T00:00:00	2024-11-08T01:00:00	2	Temperatura media	15.6
29618	7	Sololá	701	Sololá	1	Sololá	6	Junio	2023-06-15T00:00:00	2024-11-08T01:00:00	4	Temperatura máxima	16.4
29619	7	Sololá	701	Sololá	1	Sololá	6	Junio	2023-06-15T00:00:00	2024-11-08T01:00:00	3	Temperatura mínima	15.4
29620	7	Sololá	701	Sololá	1	Sololá	6	Junio	2023-06-15T00:00:00	2024-11-08T01:00:00	5	Humedad	86
29621	7	Sololá	701	Sololá	1	Sololá	6	Junio	2023-06-15T00:00:00	2024-11-08T01:00:00	6	Velocidad del viento	1.6
29622	7	Sololá	701	Sololá	1	Sololá	6	Junio	2023-06-15T00:00:00	2024-11-08T01:00:00	7	Dirección del viento	1.61
29623	7	Sololá	701	Sololá	1	Sololá	6	Junio	2023-06-15T00:00:00	2024-11-08T01:00:00	1	Precipitación	0
29624	7	Sololá	701	Sololá	1	Sololá	6	Junio	2023-06-15T00:00:00	2024-11-08T01:00:00	8	Radiación solar	0
29625	7	Sololá	701	Sololá	1	Sololá	6	Junio	2023-06-15T00:00:00	2024-11-08T02:00:00	2	Temperatura media	15.6
29626	7	Sololá	701	Sololá	1	Sololá	6	Junio	2023-06-15T00:00:00	2024-11-08T02:00:00	4	Temperatura máxima	16.2
29627	7	Sololá	701	Sololá	1	Sololá	6	Junio	2023-06-15T00:00:00	2024-11-08T02:00:00	3	Temperatura mínima	15.5
29628	7	Sololá	701	Sololá	1	Sololá	6	Junio	2023-06-15T00:00:00	2024-11-08T02:00:00	5	Humedad	86
29629	7	Sololá	701	Sololá	1	Sololá	6	Junio	2023-06-15T00:00:00	2024-11-08T02:00:00	6	Velocidad del viento	0
29630	7	Sololá	701	Sololá	1	Sololá	6	Junio	2023-06-15T00:00:00	2024-11-08T02:00:00	7	Dirección del viento	0
29631	7	Sololá	701	Sololá	1	Sololá	6	Junio	2023-06-15T00:00:00	2024-11-08T02:00:00	1	Precipitación	0
29632	7	Sololá	701	Sololá	1	Sololá	6	Junio	2023-06-15T00:00:00	2024-11-08T02:00:00	8	Radiación solar	0
29633	7	Sololá	701	Sololá	1	Sololá	6	Junio	2023-06-15T00:00:00	2024-11-08T03:00:00	2	Temperatura media	14.8
29634	7	Sololá	701	Sololá	1	Sololá	6	Junio	2023-06-15T00:00:00	2024-11-08T03:00:00	4	Temperatura máxima	15.6
29635	7	Sololá	701	Sololá	1	Sololá	6	Junio	2023-06-15T00:00:00	2024-11-08T03:00:00	3	Temperatura mínima	14.7
29636	7	Sololá	701	Sololá	1	Sololá	6	Junio	2023-06-15T00:00:00	2024-11-08T03:00:00	5	Humedad	88
29637	7	Sololá	701	Sololá	1	Sololá	6	Junio	2023-06-15T00:00:00	2024-11-08T03:00:00	6	Velocidad del viento	1.6
29638	7	Sololá	701	Sololá	1	Sololá	6	Junio	2023-06-15T00:00:00	2024-11-08T03:00:00	7	Dirección del viento	1.61
29639	7	Sololá	701	Sololá	1	Sololá	6	Junio	2023-06-15T00:00:00	2024-11-08T03:00:00	1	Precipitación	0
29640	7	Sololá	701	Sololá	1	Sololá	6	Junio	2023-06-15T00:00:00	2024-11-08T03:00:00	8	Radiación solar	0
29641	7	Sololá	701	Sololá	1	Sololá	6	Junio	2023-06-15T00:00:00	2024-11-08T04:00:00	2	Temperatura media	15
29642	7	Sololá	701	Sololá	1	Sololá	6	Junio	2023-06-15T00:00:00	2024-11-08T04:00:00	4	Temperatura máxima	15
29643	7	Sololá	701	Sololá	1	Sololá	6	Junio	2023-06-15T00:00:00	2024-11-08T04:00:00	3	Temperatura mínima	14.4
29644	7	Sololá	701	Sololá	1	Sololá	6	Junio	2023-06-15T00:00:00	2024-11-08T04:00:00	5	Humedad	85
29645	7	Sololá	701	Sololá	1	Sololá	6	Junio	2023-06-15T00:00:00	2024-11-08T04:00:00	6	Velocidad del viento	1.6
29646	7	Sololá	701	Sololá	1	Sololá	6	Junio	2023-06-15T00:00:00	2024-11-08T04:00:00	7	Dirección del viento	1.61
29647	7	Sololá	701	Sololá	1	Sololá	6	Junio	2023-06-15T00:00:00	2024-11-08T04:00:00	1	Precipitación	0
29648	7	Sololá	701	Sololá	1	Sololá	6	Junio	2023-06-15T00:00:00	2024-11-08T04:00:00	8	Radiación solar	0
29649	7	Sololá	701	Sololá	1	Sololá	6	Junio	2023-06-15T00:00:00	2024-11-08T05:00:00	2	Temperatura media	13.8
29650	7	Sololá	701	Sololá	1	Sololá	6	Junio	2023-06-15T00:00:00	2024-11-08T05:00:00	4	Temperatura máxima	15
29651	7	Sololá	701	Sololá	1	Sololá	6	Junio	2023-06-15T00:00:00	2024-11-08T05:00:00	3	Temperatura mínima	13.6
29652	7	Sololá	701	Sololá	1	Sololá	6	Junio	2023-06-15T00:00:00	2024-11-08T05:00:00	5	Humedad	88
29653	7	Sololá	701	Sololá	1	Sololá	6	Junio	2023-06-15T00:00:00	2024-11-08T05:00:00	6	Velocidad del viento	1.6
29654	7	Sololá	701	Sololá	1	Sololá	6	Junio	2023-06-15T00:00:00	2024-11-08T05:00:00	7	Dirección del viento	1.61
29655	7	Sololá	701	Sololá	1	Sololá	6	Junio	2023-06-15T00:00:00	2024-11-08T05:00:00	1	Precipitación	0
29656	7	Sololá	701	Sololá	1	Sololá	6	Junio	2023-06-15T00:00:00	2024-11-08T05:00:00	8	Radiación solar	0
29657	7	Sololá	701	Sololá	1	Sololá	6	Junio	2023-06-15T00:00:00	2024-11-08T06:00:00	2	Temperatura media	14
29658	7	Sololá	701	Sololá	1	Sololá	6	Junio	2023-06-15T00:00:00	2024-11-08T06:00:00	4	Temperatura máxima	14.5
29659	7	Sololá	701	Sololá	1	Sololá	6	Junio	2023-06-15T00:00:00	2024-11-08T06:00:00	3	Temperatura mínima	13.8
29660	7	Sololá	701	Sololá	1	Sololá	6	Junio	2023-06-15T00:00:00	2024-11-08T06:00:00	5	Humedad	86
29661	7	Sololá	701	Sololá	1	Sololá	6	Junio	2023-06-15T00:00:00	2024-11-08T06:00:00	6	Velocidad del viento	1.6
29662	7	Sololá	701	Sololá	1	Sololá	6	Junio	2023-06-15T00:00:00	2024-11-08T06:00:00	7	Dirección del viento	1.61
29663	7	Sololá	701	Sololá	1	Sololá	6	Junio	2023-06-15T00:00:00	2024-11-08T06:00:00	1	Precipitación	0
29664	7	Sololá	701	Sololá	1	Sololá	6	Junio	2023-06-15T00:00:00	2024-11-08T06:00:00	8	Radiación solar	2
29665	7	Sololá	701	Sololá	1	Sololá	6	Junio	2023-06-15T00:00:00	2024-11-08T07:00:00	2	Temperatura media	16.9
29666	7	Sololá	701	Sololá	1	Sololá	6	Junio	2023-06-15T00:00:00	2024-11-08T07:00:00	4	Temperatura máxima	16.9
29667	7	Sololá	701	Sololá	1	Sololá	6	Junio	2023-06-15T00:00:00	2024-11-08T07:00:00	3	Temperatura mínima	13.6
29668	7	Sololá	701	Sololá	1	Sololá	6	Junio	2023-06-15T00:00:00	2024-11-08T07:00:00	5	Humedad	83
29669	7	Sololá	701	Sololá	1	Sololá	6	Junio	2023-06-15T00:00:00	2024-11-08T07:00:00	6	Velocidad del viento	1.6
29670	7	Sololá	701	Sololá	1	Sololá	6	Junio	2023-06-15T00:00:00	2024-11-08T07:00:00	7	Dirección del viento	1.61
29671	7	Sololá	701	Sololá	1	Sololá	6	Junio	2023-06-15T00:00:00	2024-11-08T07:00:00	1	Precipitación	0
29672	7	Sololá	701	Sololá	1	Sololá	6	Junio	2023-06-15T00:00:00	2024-11-08T07:00:00	8	Radiación solar	38
29673	7	Sololá	701	Sololá	1	Sololá	6	Junio	2023-06-15T00:00:00	2024-11-08T08:00:00	2	Temperatura media	18.4
29674	7	Sololá	701	Sololá	1	Sololá	6	Junio	2023-06-15T00:00:00	2024-11-08T08:00:00	4	Temperatura máxima	18.4
29675	7	Sololá	701	Sololá	1	Sololá	6	Junio	2023-06-15T00:00:00	2024-11-08T08:00:00	3	Temperatura mínima	16.9
29676	7	Sololá	701	Sololá	1	Sololá	6	Junio	2023-06-15T00:00:00	2024-11-08T08:00:00	5	Humedad	80
29677	7	Sololá	701	Sololá	1	Sololá	6	Junio	2023-06-15T00:00:00	2024-11-08T08:00:00	6	Velocidad del viento	0
29678	7	Sololá	701	Sololá	1	Sololá	6	Junio	2023-06-15T00:00:00	2024-11-08T08:00:00	7	Dirección del viento	0
29679	7	Sololá	701	Sololá	1	Sololá	6	Junio	2023-06-15T00:00:00	2024-11-08T08:00:00	1	Precipitación	0
29680	7	Sololá	701	Sololá	1	Sololá	6	Junio	2023-06-15T00:00:00	2024-11-08T08:00:00	8	Radiación solar	94
29681	7	Sololá	701	Sololá	1	Sololá	6	Junio	2023-06-15T00:00:00	2024-11-08T09:00:00	2	Temperatura media	20.2
29682	7	Sololá	701	Sololá	1	Sololá	6	Junio	2023-06-15T00:00:00	2024-11-08T09:00:00	4	Temperatura máxima	20.2
29683	7	Sololá	701	Sololá	1	Sololá	6	Junio	2023-06-15T00:00:00	2024-11-08T09:00:00	3	Temperatura mínima	18.4
29684	7	Sololá	701	Sololá	1	Sololá	6	Junio	2023-06-15T00:00:00	2024-11-08T09:00:00	5	Humedad	79
29685	7	Sololá	701	Sololá	1	Sololá	6	Junio	2023-06-15T00:00:00	2024-11-08T09:00:00	6	Velocidad del viento	3.2
29686	7	Sololá	701	Sololá	1	Sololá	6	Junio	2023-06-15T00:00:00	2024-11-08T09:00:00	7	Dirección del viento	3.22
29687	7	Sololá	701	Sololá	1	Sololá	6	Junio	2023-06-15T00:00:00	2024-11-08T09:00:00	1	Precipitación	0
29688	7	Sololá	701	Sololá	1	Sololá	6	Junio	2023-06-15T00:00:00	2024-11-08T09:00:00	8	Radiación solar	222
29689	7	Sololá	701	Sololá	1	Sololá	6	Junio	2023-06-15T00:00:00	2024-11-08T10:00:00	2	Temperatura media	21.8
29690	7	Sololá	701	Sololá	1	Sololá	6	Junio	2023-06-15T00:00:00	2024-11-08T10:00:00	4	Temperatura máxima	21.8
29691	7	Sololá	701	Sololá	1	Sololá	6	Junio	2023-06-15T00:00:00	2024-11-08T10:00:00	3	Temperatura mínima	20.2
29692	7	Sololá	701	Sololá	1	Sololá	6	Junio	2023-06-15T00:00:00	2024-11-08T10:00:00	5	Humedad	69
29693	7	Sololá	701	Sololá	1	Sololá	6	Junio	2023-06-15T00:00:00	2024-11-08T10:00:00	6	Velocidad del viento	3.2
29694	7	Sololá	701	Sololá	1	Sololá	6	Junio	2023-06-15T00:00:00	2024-11-08T10:00:00	7	Dirección del viento	3.22
29695	7	Sololá	701	Sololá	1	Sololá	6	Junio	2023-06-15T00:00:00	2024-11-08T10:00:00	1	Precipitación	0
29696	7	Sololá	701	Sololá	1	Sololá	6	Junio	2023-06-15T00:00:00	2024-11-08T10:00:00	8	Radiación solar	327
29697	7	Sololá	701	Sololá	1	Sololá	6	Junio	2023-06-15T00:00:00	2024-11-08T11:00:00	2	Temperatura media	20.8
29698	7	Sololá	701	Sololá	1	Sololá	6	Junio	2023-06-15T00:00:00	2024-11-08T11:00:00	4	Temperatura máxima	22.4
29699	7	Sololá	701	Sololá	1	Sololá	6	Junio	2023-06-15T00:00:00	2024-11-08T11:00:00	3	Temperatura mínima	20.8
29700	7	Sololá	701	Sololá	1	Sololá	6	Junio	2023-06-15T00:00:00	2024-11-08T11:00:00	5	Humedad	80
29701	7	Sololá	701	Sololá	1	Sololá	6	Junio	2023-06-15T00:00:00	2024-11-08T11:00:00	6	Velocidad del viento	4.8
29702	7	Sololá	701	Sololá	1	Sololá	6	Junio	2023-06-15T00:00:00	2024-11-08T11:00:00	7	Dirección del viento	4.83
29703	7	Sololá	701	Sololá	1	Sololá	6	Junio	2023-06-15T00:00:00	2024-11-08T11:00:00	1	Precipitación	0
29704	7	Sololá	701	Sololá	1	Sololá	6	Junio	2023-06-15T00:00:00	2024-11-08T11:00:00	8	Radiación solar	429
29705	7	Sololá	701	Sololá	1	Sololá	6	Junio	2023-06-15T00:00:00	2024-11-08T12:00:00	2	Temperatura media	21.3
29706	7	Sololá	701	Sololá	1	Sololá	6	Junio	2023-06-15T00:00:00	2024-11-08T12:00:00	4	Temperatura máxima	21.4
29707	7	Sololá	701	Sololá	1	Sololá	6	Junio	2023-06-15T00:00:00	2024-11-08T12:00:00	3	Temperatura mínima	20.2
29708	7	Sololá	701	Sololá	1	Sololá	6	Junio	2023-06-15T00:00:00	2024-11-08T12:00:00	5	Humedad	78
29709	7	Sololá	701	Sololá	1	Sololá	6	Junio	2023-06-15T00:00:00	2024-11-08T12:00:00	6	Velocidad del viento	3.2
29710	7	Sololá	701	Sololá	1	Sololá	6	Junio	2023-06-15T00:00:00	2024-11-08T12:00:00	7	Dirección del viento	3.22
29711	7	Sololá	701	Sololá	1	Sololá	6	Junio	2023-06-15T00:00:00	2024-11-08T12:00:00	1	Precipitación	0
29712	7	Sololá	701	Sololá	1	Sololá	6	Junio	2023-06-15T00:00:00	2024-11-08T12:00:00	8	Radiación solar	523
29713	7	Sololá	701	Sololá	1	Sololá	6	Junio	2023-06-15T00:00:00	2024-11-08T13:00:00	2	Temperatura media	21.5
29714	7	Sololá	701	Sololá	1	Sololá	6	Junio	2023-06-15T00:00:00	2024-11-08T13:00:00	4	Temperatura máxima	21.7
29715	7	Sololá	701	Sololá	1	Sololá	6	Junio	2023-06-15T00:00:00	2024-11-08T13:00:00	3	Temperatura mínima	21.2
29716	7	Sololá	701	Sololá	1	Sololá	6	Junio	2023-06-15T00:00:00	2024-11-08T13:00:00	5	Humedad	80
29717	7	Sololá	701	Sololá	1	Sololá	6	Junio	2023-06-15T00:00:00	2024-11-08T13:00:00	6	Velocidad del viento	3.2
29718	7	Sololá	701	Sololá	1	Sololá	6	Junio	2023-06-15T00:00:00	2024-11-08T13:00:00	7	Dirección del viento	3.22
29719	7	Sololá	701	Sololá	1	Sololá	6	Junio	2023-06-15T00:00:00	2024-11-08T13:00:00	1	Precipitación	0
29720	7	Sololá	701	Sololá	1	Sololá	6	Junio	2023-06-15T00:00:00	2024-11-08T13:00:00	8	Radiación solar	443
29721	7	Sololá	701	Sololá	1	Sololá	6	Junio	2023-06-15T00:00:00	2024-11-08T14:00:00	2	Temperatura media	20.2
29722	7	Sololá	701	Sololá	1	Sololá	6	Junio	2023-06-15T00:00:00	2024-11-08T14:00:00	4	Temperatura máxima	21.5
29723	7	Sololá	701	Sololá	1	Sololá	6	Junio	2023-06-15T00:00:00	2024-11-08T14:00:00	3	Temperatura mínima	20.1
29724	7	Sololá	701	Sololá	1	Sololá	6	Junio	2023-06-15T00:00:00	2024-11-08T14:00:00	5	Humedad	84
29725	7	Sololá	701	Sololá	1	Sololá	6	Junio	2023-06-15T00:00:00	2024-11-08T14:00:00	6	Velocidad del viento	4.8
29726	7	Sololá	701	Sololá	1	Sololá	6	Junio	2023-06-15T00:00:00	2024-11-08T14:00:00	7	Dirección del viento	4.83
29727	7	Sololá	701	Sololá	1	Sololá	6	Junio	2023-06-15T00:00:00	2024-11-08T14:00:00	1	Precipitación	0
29728	7	Sololá	701	Sololá	1	Sololá	6	Junio	2023-06-15T00:00:00	2024-11-08T14:00:00	8	Radiación solar	371
29729	7	Sololá	701	Sololá	1	Sololá	6	Junio	2023-06-15T00:00:00	2024-11-08T15:00:00	2	Temperatura media	20.7
29730	7	Sololá	701	Sololá	1	Sololá	6	Junio	2023-06-15T00:00:00	2024-11-08T15:00:00	4	Temperatura máxima	21.9
29731	7	Sololá	701	Sololá	1	Sololá	6	Junio	2023-06-15T00:00:00	2024-11-08T15:00:00	3	Temperatura mínima	20.2
29732	7	Sololá	701	Sololá	1	Sololá	6	Junio	2023-06-15T00:00:00	2024-11-08T15:00:00	5	Humedad	83
29733	7	Sololá	701	Sololá	1	Sololá	6	Junio	2023-06-15T00:00:00	2024-11-08T15:00:00	6	Velocidad del viento	4.8
29734	7	Sololá	701	Sololá	1	Sololá	6	Junio	2023-06-15T00:00:00	2024-11-08T15:00:00	7	Dirección del viento	4.83
29735	7	Sololá	701	Sololá	1	Sololá	6	Junio	2023-06-15T00:00:00	2024-11-08T15:00:00	1	Precipitación	0
29736	7	Sololá	701	Sololá	1	Sololá	6	Junio	2023-06-15T00:00:00	2024-11-08T15:00:00	8	Radiación solar	420
29737	7	Sololá	701	Sololá	1	Sololá	6	Junio	2023-06-15T00:00:00	2024-11-08T16:00:00	2	Temperatura media	20.1
29738	7	Sololá	701	Sololá	1	Sololá	6	Junio	2023-06-15T00:00:00	2024-11-08T16:00:00	4	Temperatura máxima	21.2
29739	7	Sololá	701	Sololá	1	Sololá	6	Junio	2023-06-15T00:00:00	2024-11-08T16:00:00	3	Temperatura mínima	20.1
29740	7	Sololá	701	Sololá	1	Sololá	6	Junio	2023-06-15T00:00:00	2024-11-08T16:00:00	5	Humedad	88
29741	7	Sololá	701	Sololá	1	Sololá	6	Junio	2023-06-15T00:00:00	2024-11-08T16:00:00	6	Velocidad del viento	4.8
29742	7	Sololá	701	Sololá	1	Sololá	6	Junio	2023-06-15T00:00:00	2024-11-08T16:00:00	7	Dirección del viento	4.83
29743	7	Sololá	701	Sololá	1	Sololá	6	Junio	2023-06-15T00:00:00	2024-11-08T16:00:00	1	Precipitación	0
29744	7	Sololá	701	Sololá	1	Sololá	6	Junio	2023-06-15T00:00:00	2024-11-08T16:00:00	8	Radiación solar	224
29745	7	Sololá	701	Sololá	1	Sololá	6	Junio	2023-06-15T00:00:00	2024-11-08T17:00:00	2	Temperatura media	19.7
29746	7	Sololá	701	Sololá	1	Sololá	6	Junio	2023-06-15T00:00:00	2024-11-08T17:00:00	4	Temperatura máxima	20.2
29747	7	Sololá	701	Sololá	1	Sololá	6	Junio	2023-06-15T00:00:00	2024-11-08T17:00:00	3	Temperatura mínima	19.3
29748	7	Sololá	701	Sololá	1	Sololá	6	Junio	2023-06-15T00:00:00	2024-11-08T17:00:00	5	Humedad	88
29749	7	Sololá	701	Sololá	1	Sololá	6	Junio	2023-06-15T00:00:00	2024-11-08T17:00:00	6	Velocidad del viento	3.2
29750	7	Sololá	701	Sololá	1	Sololá	6	Junio	2023-06-15T00:00:00	2024-11-08T17:00:00	7	Dirección del viento	3.22
29751	7	Sololá	701	Sololá	1	Sololá	6	Junio	2023-06-15T00:00:00	2024-11-08T17:00:00	1	Precipitación	0
29752	7	Sololá	701	Sololá	1	Sololá	6	Junio	2023-06-15T00:00:00	2024-11-08T17:00:00	8	Radiación solar	145
29753	7	Sololá	701	Sololá	1	Sololá	6	Junio	2023-06-15T00:00:00	2024-11-08T18:00:00	2	Temperatura media	18.7
29754	7	Sololá	701	Sololá	1	Sololá	6	Junio	2023-06-15T00:00:00	2024-11-08T18:00:00	4	Temperatura máxima	19.8
29755	7	Sololá	701	Sololá	1	Sololá	6	Junio	2023-06-15T00:00:00	2024-11-08T18:00:00	3	Temperatura mínima	18.6
29756	7	Sololá	701	Sololá	1	Sololá	6	Junio	2023-06-15T00:00:00	2024-11-08T18:00:00	5	Humedad	92
29757	7	Sololá	701	Sololá	1	Sololá	6	Junio	2023-06-15T00:00:00	2024-11-08T18:00:00	6	Velocidad del viento	3.2
29758	7	Sololá	701	Sololá	1	Sololá	6	Junio	2023-06-15T00:00:00	2024-11-08T18:00:00	7	Dirección del viento	3.22
29759	7	Sololá	701	Sololá	1	Sololá	6	Junio	2023-06-15T00:00:00	2024-11-08T18:00:00	1	Precipitación	0
29760	7	Sololá	701	Sololá	1	Sololá	6	Junio	2023-06-15T00:00:00	2024-11-08T18:00:00	8	Radiación solar	62
29761	7	Sololá	701	Sololá	1	Sololá	6	Junio	2023-06-15T00:00:00	2024-11-08T19:00:00	2	Temperatura media	18.4
29762	7	Sololá	701	Sololá	1	Sololá	6	Junio	2023-06-15T00:00:00	2024-11-08T19:00:00	4	Temperatura máxima	18.7
29763	7	Sololá	701	Sololá	1	Sololá	6	Junio	2023-06-15T00:00:00	2024-11-08T19:00:00	3	Temperatura mínima	18.1
29764	7	Sololá	701	Sololá	1	Sololá	6	Junio	2023-06-15T00:00:00	2024-11-08T19:00:00	5	Humedad	93
29765	7	Sololá	701	Sololá	1	Sololá	6	Junio	2023-06-15T00:00:00	2024-11-08T19:00:00	6	Velocidad del viento	1.6
29766	7	Sololá	701	Sololá	1	Sololá	6	Junio	2023-06-15T00:00:00	2024-11-08T19:00:00	7	Dirección del viento	1.61
29767	7	Sololá	701	Sololá	1	Sololá	6	Junio	2023-06-15T00:00:00	2024-11-08T19:00:00	1	Precipitación	0
29768	7	Sololá	701	Sololá	1	Sololá	6	Junio	2023-06-15T00:00:00	2024-11-08T19:00:00	8	Radiación solar	0
29769	7	Sololá	701	Sololá	1	Sololá	6	Junio	2023-06-15T00:00:00	2024-11-08T20:00:00	2	Temperatura media	17.5
29770	7	Sololá	701	Sololá	1	Sololá	6	Junio	2023-06-15T00:00:00	2024-11-08T20:00:00	4	Temperatura máxima	18.4
29771	7	Sololá	701	Sololá	1	Sololá	6	Junio	2023-06-15T00:00:00	2024-11-08T20:00:00	3	Temperatura mínima	17.5
29772	7	Sololá	701	Sololá	1	Sololá	6	Junio	2023-06-15T00:00:00	2024-11-08T20:00:00	5	Humedad	96
29773	7	Sololá	701	Sololá	1	Sololá	6	Junio	2023-06-15T00:00:00	2024-11-08T20:00:00	6	Velocidad del viento	3.2
29774	7	Sololá	701	Sololá	1	Sololá	6	Junio	2023-06-15T00:00:00	2024-11-08T20:00:00	7	Dirección del viento	3.22
29775	7	Sololá	701	Sololá	1	Sololá	6	Junio	2023-06-15T00:00:00	2024-11-08T20:00:00	1	Precipitación	2.4
29776	7	Sololá	701	Sololá	1	Sololá	6	Junio	2023-06-15T00:00:00	2024-11-08T20:00:00	8	Radiación solar	0
29777	7	Sololá	701	Sololá	1	Sololá	6	Junio	2023-06-15T00:00:00	2024-11-08T21:00:00	2	Temperatura media	16.7
29778	7	Sololá	701	Sololá	1	Sololá	6	Junio	2023-06-15T00:00:00	2024-11-08T21:00:00	4	Temperatura máxima	17.6
29779	7	Sololá	701	Sololá	1	Sololá	6	Junio	2023-06-15T00:00:00	2024-11-08T21:00:00	3	Temperatura mínima	16.7
29780	7	Sololá	701	Sololá	1	Sololá	6	Junio	2023-06-15T00:00:00	2024-11-08T21:00:00	5	Humedad	97
29781	7	Sololá	701	Sololá	1	Sololá	6	Junio	2023-06-15T00:00:00	2024-11-08T21:00:00	6	Velocidad del viento	4.8
29782	7	Sololá	701	Sololá	1	Sololá	6	Junio	2023-06-15T00:00:00	2024-11-08T21:00:00	7	Dirección del viento	4.83
29783	7	Sololá	701	Sololá	1	Sololá	6	Junio	2023-06-15T00:00:00	2024-11-08T21:00:00	1	Precipitación	5.2
29784	7	Sololá	701	Sololá	1	Sololá	6	Junio	2023-06-15T00:00:00	2024-11-08T21:00:00	8	Radiación solar	0
29785	7	Sololá	701	Sololá	1	Sololá	6	Junio	2023-06-15T00:00:00	2024-11-08T22:00:00	2	Temperatura media	16.4
29786	7	Sololá	701	Sololá	1	Sololá	6	Junio	2023-06-15T00:00:00	2024-11-08T22:00:00	4	Temperatura máxima	16.7
29787	7	Sololá	701	Sololá	1	Sololá	6	Junio	2023-06-15T00:00:00	2024-11-08T22:00:00	3	Temperatura mínima	16.3
29788	7	Sololá	701	Sololá	1	Sololá	6	Junio	2023-06-15T00:00:00	2024-11-08T22:00:00	5	Humedad	96
29789	7	Sololá	701	Sololá	1	Sololá	6	Junio	2023-06-15T00:00:00	2024-11-08T22:00:00	6	Velocidad del viento	0
29790	7	Sololá	701	Sololá	1	Sololá	6	Junio	2023-06-15T00:00:00	2024-11-08T22:00:00	7	Dirección del viento	0
29791	7	Sololá	701	Sololá	1	Sololá	6	Junio	2023-06-15T00:00:00	2024-11-08T22:00:00	1	Precipitación	2.4
29792	7	Sololá	701	Sololá	1	Sololá	6	Junio	2023-06-15T00:00:00	2024-11-08T22:00:00	8	Radiación solar	0
29793	7	Sololá	701	Sololá	1	Sololá	6	Junio	2023-06-15T00:00:00	2024-11-08T23:00:00	2	Temperatura media	16.1
29794	7	Sololá	701	Sololá	1	Sololá	6	Junio	2023-06-15T00:00:00	2024-11-08T23:00:00	4	Temperatura máxima	16.4
29795	7	Sololá	701	Sololá	1	Sololá	6	Junio	2023-06-15T00:00:00	2024-11-08T23:00:00	3	Temperatura mínima	16.1
29796	7	Sololá	701	Sololá	1	Sololá	6	Junio	2023-06-15T00:00:00	2024-11-08T23:00:00	5	Humedad	94
29797	7	Sololá	701	Sololá	1	Sololá	6	Junio	2023-06-15T00:00:00	2024-11-08T23:00:00	6	Velocidad del viento	6.4
29798	7	Sololá	701	Sololá	1	Sololá	6	Junio	2023-06-15T00:00:00	2024-11-08T23:00:00	7	Dirección del viento	6.44
29799	7	Sololá	701	Sololá	1	Sololá	6	Junio	2023-06-15T00:00:00	2024-11-08T23:00:00	1	Precipitación	0.4
29800	7	Sololá	701	Sololá	1	Sololá	6	Junio	2023-06-15T00:00:00	2024-11-08T23:00:00	8	Radiación solar	0
29801	7	Sololá	701	Sololá	1	Sololá	6	Junio	2023-06-16T00:00:00	2024-11-08T00:00:00	2	Temperatura media	15.9
29802	7	Sololá	701	Sololá	1	Sololá	6	Junio	2023-06-16T00:00:00	2024-11-08T00:00:00	4	Temperatura máxima	16.3
29803	7	Sololá	701	Sololá	1	Sololá	6	Junio	2023-06-16T00:00:00	2024-11-08T00:00:00	3	Temperatura mínima	15.9
29804	7	Sololá	701	Sololá	1	Sololá	6	Junio	2023-06-16T00:00:00	2024-11-08T00:00:00	5	Humedad	95
29805	7	Sololá	701	Sololá	1	Sololá	6	Junio	2023-06-16T00:00:00	2024-11-08T00:00:00	6	Velocidad del viento	4.8
29806	7	Sololá	701	Sololá	1	Sololá	6	Junio	2023-06-16T00:00:00	2024-11-08T00:00:00	7	Dirección del viento	4.83
29807	7	Sololá	701	Sololá	1	Sololá	6	Junio	2023-06-16T00:00:00	2024-11-08T00:00:00	1	Precipitación	0
29808	7	Sololá	701	Sololá	1	Sololá	6	Junio	2023-06-16T00:00:00	2024-11-08T00:00:00	8	Radiación solar	0
29809	7	Sololá	701	Sololá	1	Sololá	6	Junio	2023-06-16T00:00:00	2024-11-08T01:00:00	2	Temperatura media	15.8
29810	7	Sololá	701	Sololá	1	Sololá	6	Junio	2023-06-16T00:00:00	2024-11-08T01:00:00	4	Temperatura máxima	16.2
29811	7	Sololá	701	Sololá	1	Sololá	6	Junio	2023-06-16T00:00:00	2024-11-08T01:00:00	3	Temperatura mínima	15.8
29812	7	Sololá	701	Sololá	1	Sololá	6	Junio	2023-06-16T00:00:00	2024-11-08T01:00:00	5	Humedad	95
29813	7	Sololá	701	Sololá	1	Sololá	6	Junio	2023-06-16T00:00:00	2024-11-08T01:00:00	6	Velocidad del viento	0
29814	7	Sololá	701	Sololá	1	Sololá	6	Junio	2023-06-16T00:00:00	2024-11-08T01:00:00	7	Dirección del viento	0
29815	7	Sololá	701	Sololá	1	Sololá	6	Junio	2023-06-16T00:00:00	2024-11-08T01:00:00	1	Precipitación	0
29816	7	Sololá	701	Sololá	1	Sololá	6	Junio	2023-06-16T00:00:00	2024-11-08T01:00:00	8	Radiación solar	0
29817	7	Sololá	701	Sololá	1	Sololá	6	Junio	2023-06-16T00:00:00	2024-11-08T02:00:00	2	Temperatura media	16.2
29818	7	Sololá	701	Sololá	1	Sololá	6	Junio	2023-06-16T00:00:00	2024-11-08T02:00:00	4	Temperatura máxima	16.2
29819	7	Sololá	701	Sololá	1	Sololá	6	Junio	2023-06-16T00:00:00	2024-11-08T02:00:00	3	Temperatura mínima	15.8
29820	7	Sololá	701	Sololá	1	Sololá	6	Junio	2023-06-16T00:00:00	2024-11-08T02:00:00	5	Humedad	95
29821	7	Sololá	701	Sololá	1	Sololá	6	Junio	2023-06-16T00:00:00	2024-11-08T02:00:00	6	Velocidad del viento	0
29822	7	Sololá	701	Sololá	1	Sololá	6	Junio	2023-06-16T00:00:00	2024-11-08T02:00:00	7	Dirección del viento	0
29823	7	Sololá	701	Sololá	1	Sololá	6	Junio	2023-06-16T00:00:00	2024-11-08T02:00:00	1	Precipitación	0
29824	7	Sololá	701	Sololá	1	Sololá	6	Junio	2023-06-16T00:00:00	2024-11-08T02:00:00	8	Radiación solar	0
29825	7	Sololá	701	Sololá	1	Sololá	6	Junio	2023-06-16T00:00:00	2024-11-08T03:00:00	2	Temperatura media	15.4
29826	7	Sololá	701	Sololá	1	Sololá	6	Junio	2023-06-16T00:00:00	2024-11-08T03:00:00	4	Temperatura máxima	16.2
29827	7	Sololá	701	Sololá	1	Sololá	6	Junio	2023-06-16T00:00:00	2024-11-08T03:00:00	3	Temperatura mínima	15.4
29828	7	Sololá	701	Sololá	1	Sololá	6	Junio	2023-06-16T00:00:00	2024-11-08T03:00:00	5	Humedad	94
29829	7	Sololá	701	Sololá	1	Sololá	6	Junio	2023-06-16T00:00:00	2024-11-08T03:00:00	6	Velocidad del viento	0
29830	7	Sololá	701	Sololá	1	Sololá	6	Junio	2023-06-16T00:00:00	2024-11-08T03:00:00	7	Dirección del viento	0
29831	7	Sololá	701	Sololá	1	Sololá	6	Junio	2023-06-16T00:00:00	2024-11-08T03:00:00	1	Precipitación	0
29832	7	Sololá	701	Sololá	1	Sololá	6	Junio	2023-06-16T00:00:00	2024-11-08T03:00:00	8	Radiación solar	0
29833	7	Sololá	701	Sololá	1	Sololá	6	Junio	2023-06-16T00:00:00	2024-11-08T04:00:00	2	Temperatura media	14.9
29834	7	Sololá	701	Sololá	1	Sololá	6	Junio	2023-06-16T00:00:00	2024-11-08T04:00:00	4	Temperatura máxima	15.4
29835	7	Sololá	701	Sololá	1	Sololá	6	Junio	2023-06-16T00:00:00	2024-11-08T04:00:00	3	Temperatura mínima	14.9
29836	7	Sololá	701	Sololá	1	Sololá	6	Junio	2023-06-16T00:00:00	2024-11-08T04:00:00	5	Humedad	93
29837	7	Sololá	701	Sololá	1	Sololá	6	Junio	2023-06-16T00:00:00	2024-11-08T04:00:00	6	Velocidad del viento	1.6
29838	7	Sololá	701	Sololá	1	Sololá	6	Junio	2023-06-16T00:00:00	2024-11-08T04:00:00	7	Dirección del viento	1.61
29839	7	Sololá	701	Sololá	1	Sololá	6	Junio	2023-06-16T00:00:00	2024-11-08T04:00:00	1	Precipitación	0
29840	7	Sololá	701	Sololá	1	Sololá	6	Junio	2023-06-16T00:00:00	2024-11-08T04:00:00	8	Radiación solar	0
29841	7	Sololá	701	Sololá	1	Sololá	6	Junio	2023-06-16T00:00:00	2024-11-08T05:00:00	2	Temperatura media	14.9
29842	7	Sololá	701	Sololá	1	Sololá	6	Junio	2023-06-16T00:00:00	2024-11-08T05:00:00	4	Temperatura máxima	14.9
29843	7	Sololá	701	Sololá	1	Sololá	6	Junio	2023-06-16T00:00:00	2024-11-08T05:00:00	3	Temperatura mínima	14.7
29844	7	Sololá	701	Sololá	1	Sololá	6	Junio	2023-06-16T00:00:00	2024-11-08T05:00:00	5	Humedad	95
29845	7	Sololá	701	Sololá	1	Sololá	6	Junio	2023-06-16T00:00:00	2024-11-08T05:00:00	6	Velocidad del viento	0
29846	7	Sololá	701	Sololá	1	Sololá	6	Junio	2023-06-16T00:00:00	2024-11-08T05:00:00	7	Dirección del viento	0
29847	7	Sololá	701	Sololá	1	Sololá	6	Junio	2023-06-16T00:00:00	2024-11-08T05:00:00	1	Precipitación	0
29848	7	Sololá	701	Sololá	1	Sololá	6	Junio	2023-06-16T00:00:00	2024-11-08T05:00:00	8	Radiación solar	0
29849	7	Sololá	701	Sololá	1	Sololá	6	Junio	2023-06-16T00:00:00	2024-11-08T06:00:00	2	Temperatura media	14.7
29850	7	Sololá	701	Sololá	1	Sololá	6	Junio	2023-06-16T00:00:00	2024-11-08T06:00:00	4	Temperatura máxima	14.9
29851	7	Sololá	701	Sololá	1	Sololá	6	Junio	2023-06-16T00:00:00	2024-11-08T06:00:00	3	Temperatura mínima	14.6
29852	7	Sololá	701	Sololá	1	Sololá	6	Junio	2023-06-16T00:00:00	2024-11-08T06:00:00	5	Humedad	94
29853	7	Sololá	701	Sololá	1	Sololá	6	Junio	2023-06-16T00:00:00	2024-11-08T06:00:00	6	Velocidad del viento	0
29854	7	Sololá	701	Sololá	1	Sololá	6	Junio	2023-06-16T00:00:00	2024-11-08T06:00:00	7	Dirección del viento	0
29855	7	Sololá	701	Sololá	1	Sololá	6	Junio	2023-06-16T00:00:00	2024-11-08T06:00:00	1	Precipitación	0
29856	7	Sololá	701	Sololá	1	Sololá	6	Junio	2023-06-16T00:00:00	2024-11-08T06:00:00	8	Radiación solar	5
29857	7	Sololá	701	Sololá	1	Sololá	6	Junio	2023-06-16T00:00:00	2024-11-08T07:00:00	2	Temperatura media	16.2
29858	7	Sololá	701	Sololá	1	Sololá	6	Junio	2023-06-16T00:00:00	2024-11-08T07:00:00	4	Temperatura máxima	16.3
29859	7	Sololá	701	Sololá	1	Sololá	6	Junio	2023-06-16T00:00:00	2024-11-08T07:00:00	3	Temperatura mínima	14.7
29860	7	Sololá	701	Sololá	1	Sololá	6	Junio	2023-06-16T00:00:00	2024-11-08T07:00:00	5	Humedad	86
29861	7	Sololá	701	Sololá	1	Sololá	6	Junio	2023-06-16T00:00:00	2024-11-08T07:00:00	6	Velocidad del viento	1.6
29862	7	Sololá	701	Sololá	1	Sololá	6	Junio	2023-06-16T00:00:00	2024-11-08T07:00:00	7	Dirección del viento	1.61
29863	7	Sololá	701	Sololá	1	Sololá	6	Junio	2023-06-16T00:00:00	2024-11-08T07:00:00	1	Precipitación	0
29864	7	Sololá	701	Sololá	1	Sololá	6	Junio	2023-06-16T00:00:00	2024-11-08T07:00:00	8	Radiación solar	60
29865	7	Sololá	701	Sololá	1	Sololá	6	Junio	2023-06-16T00:00:00	2024-11-08T08:00:00	2	Temperatura media	17.9
29866	7	Sololá	701	Sololá	1	Sololá	6	Junio	2023-06-16T00:00:00	2024-11-08T08:00:00	4	Temperatura máxima	17.9
29867	7	Sololá	701	Sololá	1	Sololá	6	Junio	2023-06-16T00:00:00	2024-11-08T08:00:00	3	Temperatura mínima	14.8
29868	7	Sololá	701	Sololá	1	Sololá	6	Junio	2023-06-16T00:00:00	2024-11-08T08:00:00	5	Humedad	78
29869	7	Sololá	701	Sololá	1	Sololá	6	Junio	2023-06-16T00:00:00	2024-11-08T08:00:00	6	Velocidad del viento	0
29870	7	Sololá	701	Sololá	1	Sololá	6	Junio	2023-06-16T00:00:00	2024-11-08T08:00:00	7	Dirección del viento	0
29871	7	Sololá	701	Sololá	1	Sololá	6	Junio	2023-06-16T00:00:00	2024-11-08T08:00:00	1	Precipitación	0
29872	7	Sololá	701	Sololá	1	Sololá	6	Junio	2023-06-16T00:00:00	2024-11-08T08:00:00	8	Radiación solar	120
29873	7	Sololá	701	Sololá	1	Sololá	6	Junio	2023-06-16T00:00:00	2024-11-08T09:00:00	2	Temperatura media	21.4
29874	7	Sololá	701	Sololá	1	Sololá	6	Junio	2023-06-16T00:00:00	2024-11-08T09:00:00	4	Temperatura máxima	21.4
29875	7	Sololá	701	Sololá	1	Sololá	6	Junio	2023-06-16T00:00:00	2024-11-08T09:00:00	3	Temperatura mínima	17.9
29876	7	Sololá	701	Sololá	1	Sololá	6	Junio	2023-06-16T00:00:00	2024-11-08T09:00:00	5	Humedad	69
29877	7	Sololá	701	Sololá	1	Sololá	6	Junio	2023-06-16T00:00:00	2024-11-08T09:00:00	6	Velocidad del viento	0
29878	7	Sololá	701	Sololá	1	Sololá	6	Junio	2023-06-16T00:00:00	2024-11-08T09:00:00	7	Dirección del viento	0
29879	7	Sololá	701	Sololá	1	Sololá	6	Junio	2023-06-16T00:00:00	2024-11-08T09:00:00	1	Precipitación	0
29880	7	Sololá	701	Sololá	1	Sololá	6	Junio	2023-06-16T00:00:00	2024-11-08T09:00:00	8	Radiación solar	169
29881	7	Sololá	701	Sololá	1	Sololá	6	Junio	2023-06-16T00:00:00	2024-11-08T10:00:00	2	Temperatura media	20.9
29882	7	Sololá	701	Sololá	1	Sololá	6	Junio	2023-06-16T00:00:00	2024-11-08T10:00:00	4	Temperatura máxima	22.3
29883	7	Sololá	701	Sololá	1	Sololá	6	Junio	2023-06-16T00:00:00	2024-11-08T10:00:00	3	Temperatura mínima	20.8
29884	7	Sololá	701	Sololá	1	Sololá	6	Junio	2023-06-16T00:00:00	2024-11-08T10:00:00	5	Humedad	69
29885	7	Sololá	701	Sololá	1	Sololá	6	Junio	2023-06-16T00:00:00	2024-11-08T10:00:00	6	Velocidad del viento	0
29886	7	Sololá	701	Sololá	1	Sololá	6	Junio	2023-06-16T00:00:00	2024-11-08T10:00:00	7	Dirección del viento	0
29887	7	Sololá	701	Sololá	1	Sololá	6	Junio	2023-06-16T00:00:00	2024-11-08T10:00:00	1	Precipitación	0
29888	7	Sololá	701	Sololá	1	Sololá	6	Junio	2023-06-16T00:00:00	2024-11-08T10:00:00	8	Radiación solar	236
29889	7	Sololá	701	Sololá	1	Sololá	6	Junio	2023-06-16T00:00:00	2024-11-08T11:00:00	2	Temperatura media	19.9
29890	7	Sololá	701	Sololá	1	Sololá	6	Junio	2023-06-16T00:00:00	2024-11-08T11:00:00	4	Temperatura máxima	21.5
29891	7	Sololá	701	Sololá	1	Sololá	6	Junio	2023-06-16T00:00:00	2024-11-08T11:00:00	3	Temperatura mínima	19.9
29892	7	Sololá	701	Sololá	1	Sololá	6	Junio	2023-06-16T00:00:00	2024-11-08T11:00:00	5	Humedad	74
29893	7	Sololá	701	Sololá	1	Sololá	6	Junio	2023-06-16T00:00:00	2024-11-08T11:00:00	6	Velocidad del viento	0
29894	7	Sololá	701	Sololá	1	Sololá	6	Junio	2023-06-16T00:00:00	2024-11-08T11:00:00	7	Dirección del viento	0
29895	7	Sololá	701	Sololá	1	Sololá	6	Junio	2023-06-16T00:00:00	2024-11-08T11:00:00	1	Precipitación	0
29896	7	Sololá	701	Sololá	1	Sololá	6	Junio	2023-06-16T00:00:00	2024-11-08T11:00:00	8	Radiación solar	343
29897	7	Sololá	701	Sololá	1	Sololá	6	Junio	2023-06-16T00:00:00	2024-11-08T12:00:00	2	Temperatura media	19.7
29898	7	Sololá	701	Sololá	1	Sololá	6	Junio	2023-06-16T00:00:00	2024-11-08T12:00:00	4	Temperatura máxima	20.4
29899	7	Sololá	701	Sololá	1	Sololá	6	Junio	2023-06-16T00:00:00	2024-11-08T12:00:00	3	Temperatura mínima	18.9
29900	7	Sololá	701	Sololá	1	Sololá	6	Junio	2023-06-16T00:00:00	2024-11-08T12:00:00	5	Humedad	81
29901	7	Sololá	701	Sololá	1	Sololá	6	Junio	2023-06-16T00:00:00	2024-11-08T12:00:00	6	Velocidad del viento	0
29902	7	Sololá	701	Sololá	1	Sololá	6	Junio	2023-06-16T00:00:00	2024-11-08T12:00:00	7	Dirección del viento	0
29903	7	Sololá	701	Sololá	1	Sololá	6	Junio	2023-06-16T00:00:00	2024-11-08T12:00:00	1	Precipitación	0
29904	7	Sololá	701	Sololá	1	Sololá	6	Junio	2023-06-16T00:00:00	2024-11-08T12:00:00	8	Radiación solar	403
29905	7	Sololá	701	Sololá	1	Sololá	6	Junio	2023-06-16T00:00:00	2024-11-08T13:00:00	2	Temperatura media	18.4
29906	7	Sololá	701	Sololá	1	Sololá	6	Junio	2023-06-16T00:00:00	2024-11-08T13:00:00	4	Temperatura máxima	20.5
29907	7	Sololá	701	Sololá	1	Sololá	6	Junio	2023-06-16T00:00:00	2024-11-08T13:00:00	3	Temperatura mínima	18.4
29908	7	Sololá	701	Sololá	1	Sololá	6	Junio	2023-06-16T00:00:00	2024-11-08T13:00:00	5	Humedad	88
29909	7	Sololá	701	Sololá	1	Sololá	6	Junio	2023-06-16T00:00:00	2024-11-08T13:00:00	6	Velocidad del viento	0
29910	7	Sololá	701	Sololá	1	Sololá	6	Junio	2023-06-16T00:00:00	2024-11-08T13:00:00	7	Dirección del viento	0
29911	7	Sololá	701	Sololá	1	Sololá	6	Junio	2023-06-16T00:00:00	2024-11-08T13:00:00	1	Precipitación	0
29912	7	Sololá	701	Sololá	1	Sololá	6	Junio	2023-06-16T00:00:00	2024-11-08T13:00:00	8	Radiación solar	337
29913	7	Sololá	701	Sololá	1	Sololá	6	Junio	2023-06-16T00:00:00	2024-11-08T14:00:00	2	Temperatura media	19.1
29914	7	Sololá	701	Sololá	1	Sololá	6	Junio	2023-06-16T00:00:00	2024-11-08T14:00:00	4	Temperatura máxima	19.4
29915	7	Sololá	701	Sololá	1	Sololá	6	Junio	2023-06-16T00:00:00	2024-11-08T14:00:00	3	Temperatura mínima	18.2
29916	7	Sololá	701	Sololá	1	Sololá	6	Junio	2023-06-16T00:00:00	2024-11-08T14:00:00	5	Humedad	87
29917	7	Sololá	701	Sololá	1	Sololá	6	Junio	2023-06-16T00:00:00	2024-11-08T14:00:00	6	Velocidad del viento	0
29918	7	Sololá	701	Sololá	1	Sololá	6	Junio	2023-06-16T00:00:00	2024-11-08T14:00:00	7	Dirección del viento	0
29919	7	Sololá	701	Sololá	1	Sololá	6	Junio	2023-06-16T00:00:00	2024-11-08T14:00:00	1	Precipitación	0
29920	7	Sololá	701	Sololá	1	Sololá	6	Junio	2023-06-16T00:00:00	2024-11-08T14:00:00	8	Radiación solar	306
29921	7	Sololá	701	Sololá	1	Sololá	6	Junio	2023-06-16T00:00:00	2024-11-08T15:00:00	2	Temperatura media	16.8
29922	7	Sololá	701	Sololá	1	Sololá	6	Junio	2023-06-16T00:00:00	2024-11-08T15:00:00	4	Temperatura máxima	19.1
29923	7	Sololá	701	Sololá	1	Sololá	6	Junio	2023-06-16T00:00:00	2024-11-08T15:00:00	3	Temperatura mínima	16.8
29924	7	Sololá	701	Sololá	1	Sololá	6	Junio	2023-06-16T00:00:00	2024-11-08T15:00:00	5	Humedad	93
29925	7	Sololá	701	Sololá	1	Sololá	6	Junio	2023-06-16T00:00:00	2024-11-08T15:00:00	6	Velocidad del viento	0
29926	7	Sololá	701	Sololá	1	Sololá	6	Junio	2023-06-16T00:00:00	2024-11-08T15:00:00	7	Dirección del viento	0
29927	7	Sololá	701	Sololá	1	Sololá	6	Junio	2023-06-16T00:00:00	2024-11-08T15:00:00	1	Precipitación	0
29928	7	Sololá	701	Sololá	1	Sololá	6	Junio	2023-06-16T00:00:00	2024-11-08T15:00:00	8	Radiación solar	281
29929	7	Sololá	701	Sololá	1	Sololá	6	Junio	2023-06-16T00:00:00	2024-11-08T16:00:00	2	Temperatura media	15.8
29930	7	Sololá	701	Sololá	1	Sololá	6	Junio	2023-06-16T00:00:00	2024-11-08T16:00:00	4	Temperatura máxima	16.8
29931	7	Sololá	701	Sololá	1	Sololá	6	Junio	2023-06-16T00:00:00	2024-11-08T16:00:00	3	Temperatura mínima	15.8
29932	7	Sololá	701	Sololá	1	Sololá	6	Junio	2023-06-16T00:00:00	2024-11-08T16:00:00	5	Humedad	96
29933	7	Sololá	701	Sololá	1	Sololá	6	Junio	2023-06-16T00:00:00	2024-11-08T16:00:00	6	Velocidad del viento	0
29934	7	Sololá	701	Sololá	1	Sololá	6	Junio	2023-06-16T00:00:00	2024-11-08T16:00:00	7	Dirección del viento	0
29935	7	Sololá	701	Sololá	1	Sololá	6	Junio	2023-06-16T00:00:00	2024-11-08T16:00:00	1	Precipitación	12.4
29936	7	Sololá	701	Sololá	1	Sololá	6	Junio	2023-06-16T00:00:00	2024-11-08T16:00:00	8	Radiación solar	228
29937	7	Sololá	701	Sololá	1	Sololá	6	Junio	2023-06-16T00:00:00	2024-11-08T17:00:00	2	Temperatura media	15.4
29938	7	Sololá	701	Sololá	1	Sololá	6	Junio	2023-06-16T00:00:00	2024-11-08T17:00:00	4	Temperatura máxima	15.8
29939	7	Sololá	701	Sololá	1	Sololá	6	Junio	2023-06-16T00:00:00	2024-11-08T17:00:00	3	Temperatura mínima	15.4
29940	7	Sololá	701	Sololá	1	Sololá	6	Junio	2023-06-16T00:00:00	2024-11-08T17:00:00	5	Humedad	95
29941	7	Sololá	701	Sololá	1	Sololá	6	Junio	2023-06-16T00:00:00	2024-11-08T17:00:00	6	Velocidad del viento	0
29942	7	Sololá	701	Sololá	1	Sololá	6	Junio	2023-06-16T00:00:00	2024-11-08T17:00:00	7	Dirección del viento	0
29943	7	Sololá	701	Sololá	1	Sololá	6	Junio	2023-06-16T00:00:00	2024-11-08T17:00:00	1	Precipitación	5.4
29944	7	Sololá	701	Sololá	1	Sololá	6	Junio	2023-06-16T00:00:00	2024-11-08T17:00:00	8	Radiación solar	154
29945	7	Sololá	701	Sololá	1	Sololá	6	Junio	2023-06-16T00:00:00	2024-11-08T18:00:00	2	Temperatura media	14.6
29946	7	Sololá	701	Sololá	1	Sololá	6	Junio	2023-06-16T00:00:00	2024-11-08T18:00:00	4	Temperatura máxima	15.4
29947	7	Sololá	701	Sololá	1	Sololá	6	Junio	2023-06-16T00:00:00	2024-11-08T18:00:00	3	Temperatura mínima	14.6
29948	7	Sololá	701	Sololá	1	Sololá	6	Junio	2023-06-16T00:00:00	2024-11-08T18:00:00	5	Humedad	93
29949	7	Sololá	701	Sololá	1	Sololá	6	Junio	2023-06-16T00:00:00	2024-11-08T18:00:00	6	Velocidad del viento	0
29950	7	Sololá	701	Sololá	1	Sololá	6	Junio	2023-06-16T00:00:00	2024-11-08T18:00:00	7	Dirección del viento	0
29951	7	Sololá	701	Sololá	1	Sololá	6	Junio	2023-06-16T00:00:00	2024-11-08T18:00:00	1	Precipitación	0
29952	7	Sololá	701	Sololá	1	Sololá	6	Junio	2023-06-16T00:00:00	2024-11-08T18:00:00	8	Radiación solar	62
29953	7	Sololá	701	Sololá	1	Sololá	6	Junio	2023-06-16T00:00:00	2024-11-08T19:00:00	2	Temperatura media	14.3
29954	7	Sololá	701	Sololá	1	Sololá	6	Junio	2023-06-16T00:00:00	2024-11-08T19:00:00	4	Temperatura máxima	14.6
29955	7	Sololá	701	Sololá	1	Sololá	6	Junio	2023-06-16T00:00:00	2024-11-08T19:00:00	3	Temperatura mínima	14.2
29956	7	Sololá	701	Sololá	1	Sololá	6	Junio	2023-06-16T00:00:00	2024-11-08T19:00:00	5	Humedad	95
29957	7	Sololá	701	Sololá	1	Sololá	6	Junio	2023-06-16T00:00:00	2024-11-08T19:00:00	6	Velocidad del viento	0
29958	7	Sololá	701	Sololá	1	Sololá	6	Junio	2023-06-16T00:00:00	2024-11-08T19:00:00	7	Dirección del viento	0
29959	7	Sololá	701	Sololá	1	Sololá	6	Junio	2023-06-16T00:00:00	2024-11-08T19:00:00	1	Precipitación	0.2
29960	7	Sololá	701	Sololá	1	Sololá	6	Junio	2023-06-16T00:00:00	2024-11-08T19:00:00	8	Radiación solar	0
29961	7	Sololá	701	Sololá	1	Sololá	6	Junio	2023-06-16T00:00:00	2024-11-08T20:00:00	2	Temperatura media	14.2
29962	7	Sololá	701	Sololá	1	Sololá	6	Junio	2023-06-16T00:00:00	2024-11-08T20:00:00	4	Temperatura máxima	14.4
29963	7	Sololá	701	Sololá	1	Sololá	6	Junio	2023-06-16T00:00:00	2024-11-08T20:00:00	3	Temperatura mínima	14.2
29964	7	Sololá	701	Sololá	1	Sololá	6	Junio	2023-06-16T00:00:00	2024-11-08T20:00:00	5	Humedad	95
29965	7	Sololá	701	Sololá	1	Sololá	6	Junio	2023-06-16T00:00:00	2024-11-08T20:00:00	6	Velocidad del viento	0
29966	7	Sololá	701	Sololá	1	Sololá	6	Junio	2023-06-16T00:00:00	2024-11-08T20:00:00	7	Dirección del viento	0
29967	7	Sololá	701	Sololá	1	Sololá	6	Junio	2023-06-16T00:00:00	2024-11-08T20:00:00	1	Precipitación	1
29968	7	Sololá	701	Sololá	1	Sololá	6	Junio	2023-06-16T00:00:00	2024-11-08T20:00:00	8	Radiación solar	0
29969	7	Sololá	701	Sololá	1	Sololá	6	Junio	2023-06-16T00:00:00	2024-11-08T21:00:00	2	Temperatura media	14.6
29970	7	Sololá	701	Sololá	1	Sololá	6	Junio	2023-06-16T00:00:00	2024-11-08T21:00:00	4	Temperatura máxima	14.7
29971	7	Sololá	701	Sololá	1	Sololá	6	Junio	2023-06-16T00:00:00	2024-11-08T21:00:00	3	Temperatura mínima	14.2
29972	7	Sololá	701	Sololá	1	Sololá	6	Junio	2023-06-16T00:00:00	2024-11-08T21:00:00	5	Humedad	97
29973	7	Sololá	701	Sololá	1	Sololá	6	Junio	2023-06-16T00:00:00	2024-11-08T21:00:00	6	Velocidad del viento	0
29974	7	Sololá	701	Sololá	1	Sololá	6	Junio	2023-06-16T00:00:00	2024-11-08T21:00:00	7	Dirección del viento	0
29975	7	Sololá	701	Sololá	1	Sololá	6	Junio	2023-06-16T00:00:00	2024-11-08T21:00:00	1	Precipitación	0.8
29976	7	Sololá	701	Sololá	1	Sololá	6	Junio	2023-06-16T00:00:00	2024-11-08T21:00:00	8	Radiación solar	0
29977	7	Sololá	701	Sololá	1	Sololá	6	Junio	2023-06-16T00:00:00	2024-11-08T22:00:00	2	Temperatura media	14.7
29978	7	Sololá	701	Sololá	1	Sololá	6	Junio	2023-06-16T00:00:00	2024-11-08T22:00:00	4	Temperatura máxima	14.8
29979	7	Sololá	701	Sololá	1	Sololá	6	Junio	2023-06-16T00:00:00	2024-11-08T22:00:00	3	Temperatura mínima	14.7
29980	7	Sololá	701	Sololá	1	Sololá	6	Junio	2023-06-16T00:00:00	2024-11-08T22:00:00	5	Humedad	97
29981	7	Sololá	701	Sololá	1	Sololá	6	Junio	2023-06-16T00:00:00	2024-11-08T22:00:00	6	Velocidad del viento	0
29982	7	Sololá	701	Sololá	1	Sololá	6	Junio	2023-06-16T00:00:00	2024-11-08T22:00:00	7	Dirección del viento	0
29983	7	Sololá	701	Sololá	1	Sololá	6	Junio	2023-06-16T00:00:00	2024-11-08T22:00:00	1	Precipitación	0
29984	7	Sololá	701	Sololá	1	Sololá	6	Junio	2023-06-16T00:00:00	2024-11-08T22:00:00	8	Radiación solar	0
29985	7	Sololá	701	Sololá	1	Sololá	6	Junio	2023-06-16T00:00:00	2024-11-08T23:00:00	2	Temperatura media	14.4
29986	7	Sololá	701	Sololá	1	Sololá	6	Junio	2023-06-16T00:00:00	2024-11-08T23:00:00	4	Temperatura máxima	14.7
29987	7	Sololá	701	Sololá	1	Sololá	6	Junio	2023-06-16T00:00:00	2024-11-08T23:00:00	3	Temperatura mínima	14.4
29988	7	Sololá	701	Sololá	1	Sololá	6	Junio	2023-06-16T00:00:00	2024-11-08T23:00:00	5	Humedad	96
29989	7	Sololá	701	Sololá	1	Sololá	6	Junio	2023-06-16T00:00:00	2024-11-08T23:00:00	6	Velocidad del viento	0
29990	7	Sololá	701	Sololá	1	Sololá	6	Junio	2023-06-16T00:00:00	2024-11-08T23:00:00	7	Dirección del viento	0
29991	7	Sololá	701	Sololá	1	Sololá	6	Junio	2023-06-16T00:00:00	2024-11-08T23:00:00	1	Precipitación	1.4
29992	7	Sololá	701	Sololá	1	Sololá	6	Junio	2023-06-16T00:00:00	2024-11-08T23:00:00	8	Radiación solar	0
29993	7	Sololá	701	Sololá	1	Sololá	6	Junio	2023-06-17T00:00:00	2024-11-08T00:00:00	2	Temperatura media	13.9
29994	7	Sololá	701	Sololá	1	Sololá	6	Junio	2023-06-17T00:00:00	2024-11-08T00:00:00	4	Temperatura máxima	14.4
29995	7	Sololá	701	Sololá	1	Sololá	6	Junio	2023-06-17T00:00:00	2024-11-08T00:00:00	3	Temperatura mínima	13.9
29996	7	Sololá	701	Sololá	1	Sololá	6	Junio	2023-06-17T00:00:00	2024-11-08T00:00:00	5	Humedad	96
29997	7	Sololá	701	Sololá	1	Sololá	6	Junio	2023-06-17T00:00:00	2024-11-08T00:00:00	6	Velocidad del viento	0
29998	7	Sololá	701	Sololá	1	Sololá	6	Junio	2023-06-17T00:00:00	2024-11-08T00:00:00	7	Dirección del viento	0
29999	7	Sololá	701	Sololá	1	Sololá	6	Junio	2023-06-17T00:00:00	2024-11-08T00:00:00	1	Precipitación	1
30000	7	Sololá	701	Sololá	1	Sololá	6	Junio	2023-06-17T00:00:00	2024-11-08T00:00:00	8	Radiación solar	0
30001	7	Sololá	701	Sololá	1	Sololá	6	Junio	2023-06-17T00:00:00	2024-11-08T01:00:00	2	Temperatura media	13.8
30002	7	Sololá	701	Sololá	1	Sololá	6	Junio	2023-06-17T00:00:00	2024-11-08T01:00:00	4	Temperatura máxima	13.9
30003	7	Sololá	701	Sololá	1	Sololá	6	Junio	2023-06-17T00:00:00	2024-11-08T01:00:00	3	Temperatura mínima	13.7
30004	7	Sololá	701	Sololá	1	Sololá	6	Junio	2023-06-17T00:00:00	2024-11-08T01:00:00	5	Humedad	96
30005	7	Sololá	701	Sololá	1	Sololá	6	Junio	2023-06-17T00:00:00	2024-11-08T01:00:00	6	Velocidad del viento	0
30006	7	Sololá	701	Sololá	1	Sololá	6	Junio	2023-06-17T00:00:00	2024-11-08T01:00:00	7	Dirección del viento	0
30007	7	Sololá	701	Sololá	1	Sololá	6	Junio	2023-06-17T00:00:00	2024-11-08T01:00:00	1	Precipitación	0
30008	7	Sololá	701	Sololá	1	Sololá	6	Junio	2023-06-17T00:00:00	2024-11-08T01:00:00	8	Radiación solar	0
30009	7	Sololá	701	Sololá	1	Sololá	6	Junio	2023-06-17T00:00:00	2024-11-08T02:00:00	2	Temperatura media	13.8
30010	7	Sololá	701	Sololá	1	Sololá	6	Junio	2023-06-17T00:00:00	2024-11-08T02:00:00	4	Temperatura máxima	13.9
30011	7	Sololá	701	Sololá	1	Sololá	6	Junio	2023-06-17T00:00:00	2024-11-08T02:00:00	3	Temperatura mínima	13.7
30012	7	Sololá	701	Sololá	1	Sololá	6	Junio	2023-06-17T00:00:00	2024-11-08T02:00:00	5	Humedad	97
30013	7	Sololá	701	Sololá	1	Sololá	6	Junio	2023-06-17T00:00:00	2024-11-08T02:00:00	6	Velocidad del viento	0
30014	7	Sololá	701	Sololá	1	Sololá	6	Junio	2023-06-17T00:00:00	2024-11-08T02:00:00	7	Dirección del viento	0
30015	7	Sololá	701	Sololá	1	Sololá	6	Junio	2023-06-17T00:00:00	2024-11-08T02:00:00	1	Precipitación	0.2
30016	7	Sololá	701	Sololá	1	Sololá	6	Junio	2023-06-17T00:00:00	2024-11-08T02:00:00	8	Radiación solar	0
30017	7	Sololá	701	Sololá	1	Sololá	6	Junio	2023-06-17T00:00:00	2024-11-08T03:00:00	2	Temperatura media	13.6
30018	7	Sololá	701	Sololá	1	Sololá	6	Junio	2023-06-17T00:00:00	2024-11-08T03:00:00	4	Temperatura máxima	13.9
30019	7	Sololá	701	Sololá	1	Sololá	6	Junio	2023-06-17T00:00:00	2024-11-08T03:00:00	3	Temperatura mínima	13.6
30020	7	Sololá	701	Sololá	1	Sololá	6	Junio	2023-06-17T00:00:00	2024-11-08T03:00:00	5	Humedad	94
30021	7	Sololá	701	Sololá	1	Sololá	6	Junio	2023-06-17T00:00:00	2024-11-08T03:00:00	6	Velocidad del viento	0
30022	7	Sololá	701	Sololá	1	Sololá	6	Junio	2023-06-17T00:00:00	2024-11-08T03:00:00	7	Dirección del viento	0
30023	7	Sololá	701	Sololá	1	Sololá	6	Junio	2023-06-17T00:00:00	2024-11-08T03:00:00	1	Precipitación	3.8
30024	7	Sololá	701	Sololá	1	Sololá	6	Junio	2023-06-17T00:00:00	2024-11-08T03:00:00	8	Radiación solar	0
30025	7	Sololá	701	Sololá	1	Sololá	6	Junio	2023-06-17T00:00:00	2024-11-08T04:00:00	2	Temperatura media	12.6
30026	7	Sololá	701	Sololá	1	Sololá	6	Junio	2023-06-17T00:00:00	2024-11-08T04:00:00	4	Temperatura máxima	13.6
30027	7	Sololá	701	Sololá	1	Sololá	6	Junio	2023-06-17T00:00:00	2024-11-08T04:00:00	3	Temperatura mínima	12.6
30028	7	Sololá	701	Sololá	1	Sololá	6	Junio	2023-06-17T00:00:00	2024-11-08T04:00:00	5	Humedad	95
30029	7	Sololá	701	Sololá	1	Sololá	6	Junio	2023-06-17T00:00:00	2024-11-08T04:00:00	6	Velocidad del viento	0
30030	7	Sololá	701	Sololá	1	Sololá	6	Junio	2023-06-17T00:00:00	2024-11-08T04:00:00	7	Dirección del viento	0
30031	7	Sololá	701	Sololá	1	Sololá	6	Junio	2023-06-17T00:00:00	2024-11-08T04:00:00	1	Precipitación	0
30032	7	Sololá	701	Sololá	1	Sololá	6	Junio	2023-06-17T00:00:00	2024-11-08T04:00:00	8	Radiación solar	0
30033	7	Sololá	701	Sololá	1	Sololá	6	Junio	2023-06-17T00:00:00	2024-11-08T05:00:00	2	Temperatura media	12.7
30034	7	Sololá	701	Sololá	1	Sololá	6	Junio	2023-06-17T00:00:00	2024-11-08T05:00:00	4	Temperatura máxima	12.7
30035	7	Sololá	701	Sololá	1	Sololá	6	Junio	2023-06-17T00:00:00	2024-11-08T05:00:00	3	Temperatura mínima	12.6
30036	7	Sololá	701	Sololá	1	Sololá	6	Junio	2023-06-17T00:00:00	2024-11-08T05:00:00	5	Humedad	94
30037	7	Sololá	701	Sololá	1	Sololá	6	Junio	2023-06-17T00:00:00	2024-11-08T05:00:00	6	Velocidad del viento	0
30038	7	Sololá	701	Sololá	1	Sololá	6	Junio	2023-06-17T00:00:00	2024-11-08T05:00:00	7	Dirección del viento	0
30039	7	Sololá	701	Sololá	1	Sololá	6	Junio	2023-06-17T00:00:00	2024-11-08T05:00:00	1	Precipitación	0
30040	7	Sololá	701	Sololá	1	Sololá	6	Junio	2023-06-17T00:00:00	2024-11-08T05:00:00	8	Radiación solar	0
30041	7	Sololá	701	Sololá	1	Sololá	6	Junio	2023-06-17T00:00:00	2024-11-08T06:00:00	2	Temperatura media	12.7
30042	7	Sololá	701	Sololá	1	Sololá	6	Junio	2023-06-17T00:00:00	2024-11-08T06:00:00	4	Temperatura máxima	12.8
30043	7	Sololá	701	Sololá	1	Sololá	6	Junio	2023-06-17T00:00:00	2024-11-08T06:00:00	3	Temperatura mínima	12.7
30044	7	Sololá	701	Sololá	1	Sololá	6	Junio	2023-06-17T00:00:00	2024-11-08T06:00:00	5	Humedad	96
30045	7	Sololá	701	Sololá	1	Sololá	6	Junio	2023-06-17T00:00:00	2024-11-08T06:00:00	6	Velocidad del viento	0
30046	7	Sololá	701	Sololá	1	Sololá	6	Junio	2023-06-17T00:00:00	2024-11-08T06:00:00	7	Dirección del viento	0
30047	7	Sololá	701	Sololá	1	Sololá	6	Junio	2023-06-17T00:00:00	2024-11-08T06:00:00	1	Precipitación	0.4
30048	7	Sololá	701	Sololá	1	Sololá	6	Junio	2023-06-17T00:00:00	2024-11-08T06:00:00	8	Radiación solar	6
30049	7	Sololá	701	Sololá	1	Sololá	6	Junio	2023-06-17T00:00:00	2024-11-08T07:00:00	2	Temperatura media	12.8
30050	7	Sololá	701	Sololá	1	Sololá	6	Junio	2023-06-17T00:00:00	2024-11-08T07:00:00	4	Temperatura máxima	12.8
30051	7	Sololá	701	Sololá	1	Sololá	6	Junio	2023-06-17T00:00:00	2024-11-08T07:00:00	3	Temperatura mínima	12.6
30052	7	Sololá	701	Sololá	1	Sololá	6	Junio	2023-06-17T00:00:00	2024-11-08T07:00:00	5	Humedad	97
30053	7	Sololá	701	Sololá	1	Sololá	6	Junio	2023-06-17T00:00:00	2024-11-08T07:00:00	6	Velocidad del viento	0
30054	7	Sololá	701	Sololá	1	Sololá	6	Junio	2023-06-17T00:00:00	2024-11-08T07:00:00	7	Dirección del viento	0
30055	7	Sololá	701	Sololá	1	Sololá	6	Junio	2023-06-17T00:00:00	2024-11-08T07:00:00	1	Precipitación	0.4
30056	7	Sololá	701	Sololá	1	Sololá	6	Junio	2023-06-17T00:00:00	2024-11-08T07:00:00	8	Radiación solar	43
30057	7	Sololá	701	Sololá	1	Sololá	6	Junio	2023-06-17T00:00:00	2024-11-08T08:00:00	2	Temperatura media	14.2
30058	7	Sololá	701	Sololá	1	Sololá	6	Junio	2023-06-17T00:00:00	2024-11-08T08:00:00	4	Temperatura máxima	14.2
30059	7	Sololá	701	Sololá	1	Sololá	6	Junio	2023-06-17T00:00:00	2024-11-08T08:00:00	3	Temperatura mínima	12.8
30060	7	Sololá	701	Sololá	1	Sololá	6	Junio	2023-06-17T00:00:00	2024-11-08T08:00:00	5	Humedad	97
30061	7	Sololá	701	Sololá	1	Sololá	6	Junio	2023-06-17T00:00:00	2024-11-08T08:00:00	6	Velocidad del viento	0
30062	7	Sololá	701	Sololá	1	Sololá	6	Junio	2023-06-17T00:00:00	2024-11-08T08:00:00	7	Dirección del viento	0
30063	7	Sololá	701	Sololá	1	Sololá	6	Junio	2023-06-17T00:00:00	2024-11-08T08:00:00	1	Precipitación	0
30064	7	Sololá	701	Sololá	1	Sololá	6	Junio	2023-06-17T00:00:00	2024-11-08T08:00:00	8	Radiación solar	95
30065	7	Sololá	701	Sololá	1	Sololá	6	Junio	2023-06-17T00:00:00	2024-11-08T09:00:00	2	Temperatura media	15.8
30066	7	Sololá	701	Sololá	1	Sololá	6	Junio	2023-06-17T00:00:00	2024-11-08T09:00:00	4	Temperatura máxima	15.8
30067	7	Sololá	701	Sololá	1	Sololá	6	Junio	2023-06-17T00:00:00	2024-11-08T09:00:00	3	Temperatura mínima	14.2
30068	7	Sololá	701	Sololá	1	Sololá	6	Junio	2023-06-17T00:00:00	2024-11-08T09:00:00	5	Humedad	92
30069	7	Sololá	701	Sololá	1	Sololá	6	Junio	2023-06-17T00:00:00	2024-11-08T09:00:00	6	Velocidad del viento	0
30070	7	Sololá	701	Sololá	1	Sololá	6	Junio	2023-06-17T00:00:00	2024-11-08T09:00:00	7	Dirección del viento	0
30071	7	Sololá	701	Sololá	1	Sololá	6	Junio	2023-06-17T00:00:00	2024-11-08T09:00:00	1	Precipitación	0
30072	7	Sololá	701	Sololá	1	Sololá	6	Junio	2023-06-17T00:00:00	2024-11-08T09:00:00	8	Radiación solar	189
30073	7	Sololá	701	Sololá	1	Sololá	6	Junio	2023-06-17T00:00:00	2024-11-08T10:00:00	2	Temperatura media	18.7
30074	7	Sololá	701	Sololá	1	Sololá	6	Junio	2023-06-17T00:00:00	2024-11-08T10:00:00	4	Temperatura máxima	18.7
30075	7	Sololá	701	Sololá	1	Sololá	6	Junio	2023-06-17T00:00:00	2024-11-08T10:00:00	3	Temperatura mínima	15.8
30076	7	Sololá	701	Sololá	1	Sololá	6	Junio	2023-06-17T00:00:00	2024-11-08T10:00:00	5	Humedad	81
30077	7	Sololá	701	Sololá	1	Sololá	6	Junio	2023-06-17T00:00:00	2024-11-08T10:00:00	6	Velocidad del viento	0
30078	7	Sololá	701	Sololá	1	Sololá	6	Junio	2023-06-17T00:00:00	2024-11-08T10:00:00	7	Dirección del viento	0
30079	7	Sololá	701	Sololá	1	Sololá	6	Junio	2023-06-17T00:00:00	2024-11-08T10:00:00	1	Precipitación	0
30080	7	Sololá	701	Sololá	1	Sololá	6	Junio	2023-06-17T00:00:00	2024-11-08T10:00:00	8	Radiación solar	446
30081	7	Sololá	701	Sololá	1	Sololá	6	Junio	2023-06-17T00:00:00	2024-11-08T11:00:00	2	Temperatura media	18.8
30082	7	Sololá	701	Sololá	1	Sololá	6	Junio	2023-06-17T00:00:00	2024-11-08T11:00:00	4	Temperatura máxima	19
30083	7	Sololá	701	Sololá	1	Sololá	6	Junio	2023-06-17T00:00:00	2024-11-08T11:00:00	3	Temperatura mínima	18.4
30084	7	Sololá	701	Sololá	1	Sololá	6	Junio	2023-06-17T00:00:00	2024-11-08T11:00:00	5	Humedad	83
30085	7	Sololá	701	Sololá	1	Sololá	6	Junio	2023-06-17T00:00:00	2024-11-08T11:00:00	6	Velocidad del viento	0
30086	7	Sololá	701	Sololá	1	Sololá	6	Junio	2023-06-17T00:00:00	2024-11-08T11:00:00	7	Dirección del viento	0
30087	7	Sololá	701	Sololá	1	Sololá	6	Junio	2023-06-17T00:00:00	2024-11-08T11:00:00	1	Precipitación	0
30088	7	Sololá	701	Sololá	1	Sololá	6	Junio	2023-06-17T00:00:00	2024-11-08T11:00:00	8	Radiación solar	493
30089	7	Sololá	701	Sololá	1	Sololá	6	Junio	2023-06-17T00:00:00	2024-11-08T12:00:00	2	Temperatura media	20.1
30090	7	Sololá	701	Sololá	1	Sololá	6	Junio	2023-06-17T00:00:00	2024-11-08T12:00:00	4	Temperatura máxima	20.1
30091	7	Sololá	701	Sololá	1	Sololá	6	Junio	2023-06-17T00:00:00	2024-11-08T12:00:00	3	Temperatura mínima	18.8
30092	7	Sololá	701	Sololá	1	Sololá	6	Junio	2023-06-17T00:00:00	2024-11-08T12:00:00	5	Humedad	74
30093	7	Sololá	701	Sololá	1	Sololá	6	Junio	2023-06-17T00:00:00	2024-11-08T12:00:00	6	Velocidad del viento	0
30094	7	Sololá	701	Sololá	1	Sololá	6	Junio	2023-06-17T00:00:00	2024-11-08T12:00:00	7	Dirección del viento	0
30095	7	Sololá	701	Sololá	1	Sololá	6	Junio	2023-06-17T00:00:00	2024-11-08T12:00:00	1	Precipitación	0
30096	7	Sololá	701	Sololá	1	Sololá	6	Junio	2023-06-17T00:00:00	2024-11-08T12:00:00	8	Radiación solar	551
30097	7	Sololá	701	Sololá	1	Sololá	6	Junio	2023-06-17T00:00:00	2024-11-08T13:00:00	2	Temperatura media	20.9
30098	7	Sololá	701	Sololá	1	Sololá	6	Junio	2023-06-17T00:00:00	2024-11-08T13:00:00	4	Temperatura máxima	20.9
30099	7	Sololá	701	Sololá	1	Sololá	6	Junio	2023-06-17T00:00:00	2024-11-08T13:00:00	3	Temperatura mínima	19.8
30100	7	Sololá	701	Sololá	1	Sololá	6	Junio	2023-06-17T00:00:00	2024-11-08T13:00:00	5	Humedad	74
30101	7	Sololá	701	Sololá	1	Sololá	6	Junio	2023-06-17T00:00:00	2024-11-08T13:00:00	6	Velocidad del viento	0
30102	7	Sololá	701	Sololá	1	Sololá	6	Junio	2023-06-17T00:00:00	2024-11-08T13:00:00	7	Dirección del viento	0
30103	7	Sololá	701	Sololá	1	Sololá	6	Junio	2023-06-17T00:00:00	2024-11-08T13:00:00	1	Precipitación	0
30104	7	Sololá	701	Sololá	1	Sololá	6	Junio	2023-06-17T00:00:00	2024-11-08T13:00:00	8	Radiación solar	344
30105	7	Sololá	701	Sololá	1	Sololá	6	Junio	2023-06-17T00:00:00	2024-11-08T14:00:00	2	Temperatura media	20.5
30106	7	Sololá	701	Sololá	1	Sololá	6	Junio	2023-06-17T00:00:00	2024-11-08T14:00:00	4	Temperatura máxima	21.1
30107	7	Sololá	701	Sololá	1	Sololá	6	Junio	2023-06-17T00:00:00	2024-11-08T14:00:00	3	Temperatura mínima	20.4
30108	7	Sololá	701	Sololá	1	Sololá	6	Junio	2023-06-17T00:00:00	2024-11-08T14:00:00	5	Humedad	74
30109	7	Sololá	701	Sololá	1	Sololá	6	Junio	2023-06-17T00:00:00	2024-11-08T14:00:00	6	Velocidad del viento	1.6
30110	7	Sololá	701	Sololá	1	Sololá	6	Junio	2023-06-17T00:00:00	2024-11-08T14:00:00	7	Dirección del viento	1.61
30111	7	Sololá	701	Sololá	1	Sololá	6	Junio	2023-06-17T00:00:00	2024-11-08T14:00:00	1	Precipitación	0
30112	7	Sololá	701	Sololá	1	Sololá	6	Junio	2023-06-17T00:00:00	2024-11-08T14:00:00	8	Radiación solar	211
30113	7	Sololá	701	Sololá	1	Sololá	6	Junio	2023-06-17T00:00:00	2024-11-08T15:00:00	2	Temperatura media	16.6
30114	7	Sololá	701	Sololá	1	Sololá	6	Junio	2023-06-17T00:00:00	2024-11-08T15:00:00	4	Temperatura máxima	20.6
30115	7	Sololá	701	Sololá	1	Sololá	6	Junio	2023-06-17T00:00:00	2024-11-08T15:00:00	3	Temperatura mínima	16.6
30116	7	Sololá	701	Sololá	1	Sololá	6	Junio	2023-06-17T00:00:00	2024-11-08T15:00:00	5	Humedad	89
30117	7	Sololá	701	Sololá	1	Sololá	6	Junio	2023-06-17T00:00:00	2024-11-08T15:00:00	6	Velocidad del viento	0
30118	7	Sololá	701	Sololá	1	Sololá	6	Junio	2023-06-17T00:00:00	2024-11-08T15:00:00	7	Dirección del viento	0
30119	7	Sololá	701	Sololá	1	Sololá	6	Junio	2023-06-17T00:00:00	2024-11-08T15:00:00	1	Precipitación	0
30120	7	Sololá	701	Sololá	1	Sololá	6	Junio	2023-06-17T00:00:00	2024-11-08T15:00:00	8	Radiación solar	301
30121	7	Sololá	701	Sololá	1	Sololá	6	Junio	2023-06-17T00:00:00	2024-11-08T16:00:00	2	Temperatura media	15.2
30122	7	Sololá	701	Sololá	1	Sololá	6	Junio	2023-06-17T00:00:00	2024-11-08T16:00:00	4	Temperatura máxima	16.6
30123	7	Sololá	701	Sololá	1	Sololá	6	Junio	2023-06-17T00:00:00	2024-11-08T16:00:00	3	Temperatura mínima	15.2
30124	7	Sololá	701	Sololá	1	Sololá	6	Junio	2023-06-17T00:00:00	2024-11-08T16:00:00	5	Humedad	95
30125	7	Sololá	701	Sololá	1	Sololá	6	Junio	2023-06-17T00:00:00	2024-11-08T16:00:00	6	Velocidad del viento	0
30126	7	Sololá	701	Sololá	1	Sololá	6	Junio	2023-06-17T00:00:00	2024-11-08T16:00:00	7	Dirección del viento	0
30127	7	Sololá	701	Sololá	1	Sololá	6	Junio	2023-06-17T00:00:00	2024-11-08T16:00:00	1	Precipitación	0.6
30128	7	Sololá	701	Sololá	1	Sololá	6	Junio	2023-06-17T00:00:00	2024-11-08T16:00:00	8	Radiación solar	203
30129	7	Sololá	701	Sololá	1	Sololá	6	Junio	2023-06-17T00:00:00	2024-11-08T17:00:00	2	Temperatura media	14.8
30130	7	Sololá	701	Sololá	1	Sololá	6	Junio	2023-06-17T00:00:00	2024-11-08T17:00:00	4	Temperatura máxima	15.2
30131	7	Sololá	701	Sololá	1	Sololá	6	Junio	2023-06-17T00:00:00	2024-11-08T17:00:00	3	Temperatura mínima	14.8
30132	7	Sololá	701	Sololá	1	Sololá	6	Junio	2023-06-17T00:00:00	2024-11-08T17:00:00	5	Humedad	96
30133	7	Sololá	701	Sololá	1	Sololá	6	Junio	2023-06-17T00:00:00	2024-11-08T17:00:00	6	Velocidad del viento	0
30134	7	Sololá	701	Sololá	1	Sololá	6	Junio	2023-06-17T00:00:00	2024-11-08T17:00:00	7	Dirección del viento	0
30135	7	Sololá	701	Sololá	1	Sololá	6	Junio	2023-06-17T00:00:00	2024-11-08T17:00:00	1	Precipitación	1.6
30136	7	Sololá	701	Sololá	1	Sololá	6	Junio	2023-06-17T00:00:00	2024-11-08T17:00:00	8	Radiación solar	92
30137	7	Sololá	701	Sololá	1	Sololá	6	Junio	2023-06-17T00:00:00	2024-11-08T18:00:00	2	Temperatura media	14.8
30138	7	Sololá	701	Sololá	1	Sololá	6	Junio	2023-06-17T00:00:00	2024-11-08T18:00:00	4	Temperatura máxima	15
30139	7	Sololá	701	Sololá	1	Sololá	6	Junio	2023-06-17T00:00:00	2024-11-08T18:00:00	3	Temperatura mínima	14.8
30140	7	Sololá	701	Sololá	1	Sololá	6	Junio	2023-06-17T00:00:00	2024-11-08T18:00:00	5	Humedad	95
30141	7	Sololá	701	Sololá	1	Sololá	6	Junio	2023-06-17T00:00:00	2024-11-08T18:00:00	6	Velocidad del viento	0
30142	7	Sololá	701	Sololá	1	Sololá	6	Junio	2023-06-17T00:00:00	2024-11-08T18:00:00	7	Dirección del viento	0
30143	7	Sololá	701	Sololá	1	Sololá	6	Junio	2023-06-17T00:00:00	2024-11-08T18:00:00	1	Precipitación	0
30144	7	Sololá	701	Sololá	1	Sololá	6	Junio	2023-06-17T00:00:00	2024-11-08T18:00:00	8	Radiación solar	26
30145	7	Sololá	701	Sololá	1	Sololá	6	Junio	2023-06-17T00:00:00	2024-11-08T19:00:00	2	Temperatura media	14.6
30146	7	Sololá	701	Sololá	1	Sololá	6	Junio	2023-06-17T00:00:00	2024-11-08T19:00:00	4	Temperatura máxima	14.8
30147	7	Sololá	701	Sololá	1	Sololá	6	Junio	2023-06-17T00:00:00	2024-11-08T19:00:00	3	Temperatura mínima	14.6
30148	7	Sololá	701	Sololá	1	Sololá	6	Junio	2023-06-17T00:00:00	2024-11-08T19:00:00	5	Humedad	95
30149	7	Sololá	701	Sololá	1	Sololá	6	Junio	2023-06-17T00:00:00	2024-11-08T19:00:00	6	Velocidad del viento	0
30150	7	Sololá	701	Sololá	1	Sololá	6	Junio	2023-06-17T00:00:00	2024-11-08T19:00:00	7	Dirección del viento	0
30151	7	Sololá	701	Sololá	1	Sololá	6	Junio	2023-06-17T00:00:00	2024-11-08T19:00:00	1	Precipitación	0
30152	7	Sololá	701	Sololá	1	Sololá	6	Junio	2023-06-17T00:00:00	2024-11-08T19:00:00	8	Radiación solar	0
30153	7	Sololá	701	Sololá	1	Sololá	6	Junio	2023-06-17T00:00:00	2024-11-08T20:00:00	2	Temperatura media	14.2
30154	7	Sololá	701	Sololá	1	Sololá	6	Junio	2023-06-17T00:00:00	2024-11-08T20:00:00	4	Temperatura máxima	14.6
30155	7	Sololá	701	Sololá	1	Sololá	6	Junio	2023-06-17T00:00:00	2024-11-08T20:00:00	3	Temperatura mínima	14.2
30156	7	Sololá	701	Sololá	1	Sololá	6	Junio	2023-06-17T00:00:00	2024-11-08T20:00:00	5	Humedad	94
30157	7	Sololá	701	Sololá	1	Sololá	6	Junio	2023-06-17T00:00:00	2024-11-08T20:00:00	6	Velocidad del viento	0
30158	7	Sololá	701	Sololá	1	Sololá	6	Junio	2023-06-17T00:00:00	2024-11-08T20:00:00	7	Dirección del viento	0
30159	7	Sololá	701	Sololá	1	Sololá	6	Junio	2023-06-17T00:00:00	2024-11-08T20:00:00	1	Precipitación	0
30160	7	Sololá	701	Sololá	1	Sololá	6	Junio	2023-06-17T00:00:00	2024-11-08T20:00:00	8	Radiación solar	0
30161	7	Sololá	701	Sololá	1	Sololá	6	Junio	2023-06-17T00:00:00	2024-11-08T21:00:00	2	Temperatura media	14.1
30162	7	Sololá	701	Sololá	1	Sololá	6	Junio	2023-06-17T00:00:00	2024-11-08T21:00:00	4	Temperatura máxima	14.2
30163	7	Sololá	701	Sololá	1	Sololá	6	Junio	2023-06-17T00:00:00	2024-11-08T21:00:00	3	Temperatura mínima	14
30164	7	Sololá	701	Sololá	1	Sololá	6	Junio	2023-06-17T00:00:00	2024-11-08T21:00:00	5	Humedad	94
30165	7	Sololá	701	Sololá	1	Sololá	6	Junio	2023-06-17T00:00:00	2024-11-08T21:00:00	6	Velocidad del viento	0
30166	7	Sololá	701	Sololá	1	Sololá	6	Junio	2023-06-17T00:00:00	2024-11-08T21:00:00	7	Dirección del viento	0
30167	7	Sololá	701	Sololá	1	Sololá	6	Junio	2023-06-17T00:00:00	2024-11-08T21:00:00	1	Precipitación	0
30168	7	Sololá	701	Sololá	1	Sololá	6	Junio	2023-06-17T00:00:00	2024-11-08T21:00:00	8	Radiación solar	0
30169	7	Sololá	701	Sololá	1	Sololá	6	Junio	2023-06-17T00:00:00	2024-11-08T22:00:00	2	Temperatura media	14.3
30170	7	Sololá	701	Sololá	1	Sololá	6	Junio	2023-06-17T00:00:00	2024-11-08T22:00:00	4	Temperatura máxima	14.4
30171	7	Sololá	701	Sololá	1	Sololá	6	Junio	2023-06-17T00:00:00	2024-11-08T22:00:00	3	Temperatura mínima	14
30172	7	Sololá	701	Sololá	1	Sololá	6	Junio	2023-06-17T00:00:00	2024-11-08T22:00:00	5	Humedad	94
30173	7	Sololá	701	Sololá	1	Sololá	6	Junio	2023-06-17T00:00:00	2024-11-08T22:00:00	6	Velocidad del viento	0
30174	7	Sololá	701	Sololá	1	Sololá	6	Junio	2023-06-17T00:00:00	2024-11-08T22:00:00	7	Dirección del viento	0
30175	7	Sololá	701	Sololá	1	Sololá	6	Junio	2023-06-17T00:00:00	2024-11-08T22:00:00	1	Precipitación	4.2
30176	7	Sololá	701	Sololá	1	Sololá	6	Junio	2023-06-17T00:00:00	2024-11-08T22:00:00	8	Radiación solar	0
30177	7	Sololá	701	Sololá	1	Sololá	6	Junio	2023-06-17T00:00:00	2024-11-08T23:00:00	2	Temperatura media	14.4
30178	7	Sololá	701	Sololá	1	Sololá	6	Junio	2023-06-17T00:00:00	2024-11-08T23:00:00	4	Temperatura máxima	14.4
30179	7	Sololá	701	Sololá	1	Sololá	6	Junio	2023-06-17T00:00:00	2024-11-08T23:00:00	3	Temperatura mínima	14.2
30180	7	Sololá	701	Sololá	1	Sololá	6	Junio	2023-06-17T00:00:00	2024-11-08T23:00:00	5	Humedad	97
30181	7	Sololá	701	Sololá	1	Sololá	6	Junio	2023-06-17T00:00:00	2024-11-08T23:00:00	6	Velocidad del viento	0
30182	7	Sololá	701	Sololá	1	Sololá	6	Junio	2023-06-17T00:00:00	2024-11-08T23:00:00	7	Dirección del viento	0
30183	7	Sololá	701	Sololá	1	Sololá	6	Junio	2023-06-17T00:00:00	2024-11-08T23:00:00	1	Precipitación	0.4
30184	7	Sololá	701	Sololá	1	Sololá	6	Junio	2023-06-17T00:00:00	2024-11-08T23:00:00	8	Radiación solar	0
30185	7	Sololá	701	Sololá	1	Sololá	6	Junio	2023-06-18T00:00:00	2024-11-08T00:00:00	2	Temperatura media	14.2
30186	7	Sololá	701	Sololá	1	Sololá	6	Junio	2023-06-18T00:00:00	2024-11-08T00:00:00	4	Temperatura máxima	14.4
30187	7	Sololá	701	Sololá	1	Sololá	6	Junio	2023-06-18T00:00:00	2024-11-08T00:00:00	3	Temperatura mínima	14.1
30188	7	Sololá	701	Sololá	1	Sololá	6	Junio	2023-06-18T00:00:00	2024-11-08T00:00:00	5	Humedad	96
30189	7	Sololá	701	Sololá	1	Sololá	6	Junio	2023-06-18T00:00:00	2024-11-08T00:00:00	6	Velocidad del viento	0
30190	7	Sololá	701	Sololá	1	Sololá	6	Junio	2023-06-18T00:00:00	2024-11-08T00:00:00	7	Dirección del viento	0
30191	7	Sololá	701	Sololá	1	Sololá	6	Junio	2023-06-18T00:00:00	2024-11-08T00:00:00	1	Precipitación	0
30192	7	Sololá	701	Sololá	1	Sololá	6	Junio	2023-06-18T00:00:00	2024-11-08T00:00:00	8	Radiación solar	0
30193	7	Sololá	701	Sololá	1	Sololá	6	Junio	2023-06-18T00:00:00	2024-11-08T01:00:00	2	Temperatura media	13.8
30194	7	Sololá	701	Sololá	1	Sololá	6	Junio	2023-06-18T00:00:00	2024-11-08T01:00:00	4	Temperatura máxima	14.2
30195	7	Sololá	701	Sololá	1	Sololá	6	Junio	2023-06-18T00:00:00	2024-11-08T01:00:00	3	Temperatura mínima	13.8
30196	7	Sololá	701	Sololá	1	Sololá	6	Junio	2023-06-18T00:00:00	2024-11-08T01:00:00	5	Humedad	96
30197	7	Sololá	701	Sololá	1	Sololá	6	Junio	2023-06-18T00:00:00	2024-11-08T01:00:00	6	Velocidad del viento	0
30198	7	Sololá	701	Sololá	1	Sololá	6	Junio	2023-06-18T00:00:00	2024-11-08T01:00:00	7	Dirección del viento	0
30199	7	Sololá	701	Sololá	1	Sololá	6	Junio	2023-06-18T00:00:00	2024-11-08T01:00:00	1	Precipitación	0
30200	7	Sololá	701	Sololá	1	Sololá	6	Junio	2023-06-18T00:00:00	2024-11-08T01:00:00	8	Radiación solar	0
30201	7	Sololá	701	Sololá	1	Sololá	6	Junio	2023-06-18T00:00:00	2024-11-08T02:00:00	2	Temperatura media	13.5
30202	7	Sololá	701	Sololá	1	Sololá	6	Junio	2023-06-18T00:00:00	2024-11-08T02:00:00	4	Temperatura máxima	13.8
30203	7	Sololá	701	Sololá	1	Sololá	6	Junio	2023-06-18T00:00:00	2024-11-08T02:00:00	3	Temperatura mínima	13.5
30204	7	Sololá	701	Sololá	1	Sololá	6	Junio	2023-06-18T00:00:00	2024-11-08T02:00:00	5	Humedad	95
30205	7	Sololá	701	Sololá	1	Sololá	6	Junio	2023-06-18T00:00:00	2024-11-08T02:00:00	6	Velocidad del viento	0
30206	7	Sololá	701	Sololá	1	Sololá	6	Junio	2023-06-18T00:00:00	2024-11-08T02:00:00	7	Dirección del viento	0
30207	7	Sololá	701	Sololá	1	Sololá	6	Junio	2023-06-18T00:00:00	2024-11-08T02:00:00	1	Precipitación	0
30208	7	Sololá	701	Sololá	1	Sololá	6	Junio	2023-06-18T00:00:00	2024-11-08T02:00:00	8	Radiación solar	0
30209	7	Sololá	701	Sololá	1	Sololá	6	Junio	2023-06-18T00:00:00	2024-11-08T03:00:00	2	Temperatura media	12.8
30210	7	Sololá	701	Sololá	1	Sololá	6	Junio	2023-06-18T00:00:00	2024-11-08T03:00:00	4	Temperatura máxima	13.5
30211	7	Sololá	701	Sololá	1	Sololá	6	Junio	2023-06-18T00:00:00	2024-11-08T03:00:00	3	Temperatura mínima	12.8
30212	7	Sololá	701	Sololá	1	Sololá	6	Junio	2023-06-18T00:00:00	2024-11-08T03:00:00	5	Humedad	94
30213	7	Sololá	701	Sololá	1	Sololá	6	Junio	2023-06-18T00:00:00	2024-11-08T03:00:00	6	Velocidad del viento	0
30214	7	Sololá	701	Sololá	1	Sololá	6	Junio	2023-06-18T00:00:00	2024-11-08T03:00:00	7	Dirección del viento	0
30215	7	Sololá	701	Sololá	1	Sololá	6	Junio	2023-06-18T00:00:00	2024-11-08T03:00:00	1	Precipitación	0
30216	7	Sololá	701	Sololá	1	Sololá	6	Junio	2023-06-18T00:00:00	2024-11-08T03:00:00	8	Radiación solar	0
30217	7	Sololá	701	Sololá	1	Sololá	6	Junio	2023-06-18T00:00:00	2024-11-08T04:00:00	2	Temperatura media	12.9
30218	7	Sololá	701	Sololá	1	Sololá	6	Junio	2023-06-18T00:00:00	2024-11-08T04:00:00	4	Temperatura máxima	13
30219	7	Sololá	701	Sololá	1	Sololá	6	Junio	2023-06-18T00:00:00	2024-11-08T04:00:00	3	Temperatura mínima	12.8
30220	7	Sololá	701	Sololá	1	Sololá	6	Junio	2023-06-18T00:00:00	2024-11-08T04:00:00	5	Humedad	96
30221	7	Sololá	701	Sololá	1	Sololá	6	Junio	2023-06-18T00:00:00	2024-11-08T04:00:00	6	Velocidad del viento	0
30222	7	Sololá	701	Sololá	1	Sololá	6	Junio	2023-06-18T00:00:00	2024-11-08T04:00:00	7	Dirección del viento	0
30223	7	Sololá	701	Sololá	1	Sololá	6	Junio	2023-06-18T00:00:00	2024-11-08T04:00:00	1	Precipitación	0
30224	7	Sololá	701	Sololá	1	Sololá	6	Junio	2023-06-18T00:00:00	2024-11-08T04:00:00	8	Radiación solar	0
30225	7	Sololá	701	Sololá	1	Sololá	6	Junio	2023-06-18T00:00:00	2024-11-08T05:00:00	2	Temperatura media	12.7
30226	7	Sololá	701	Sololá	1	Sololá	6	Junio	2023-06-18T00:00:00	2024-11-08T05:00:00	4	Temperatura máxima	13.1
30227	7	Sololá	701	Sololá	1	Sololá	6	Junio	2023-06-18T00:00:00	2024-11-08T05:00:00	3	Temperatura mínima	12.6
30228	7	Sololá	701	Sololá	1	Sololá	6	Junio	2023-06-18T00:00:00	2024-11-08T05:00:00	5	Humedad	94
30229	7	Sololá	701	Sololá	1	Sololá	6	Junio	2023-06-18T00:00:00	2024-11-08T05:00:00	6	Velocidad del viento	0
30230	7	Sololá	701	Sololá	1	Sololá	6	Junio	2023-06-18T00:00:00	2024-11-08T05:00:00	7	Dirección del viento	0
30231	7	Sololá	701	Sololá	1	Sololá	6	Junio	2023-06-18T00:00:00	2024-11-08T05:00:00	1	Precipitación	0
30232	7	Sololá	701	Sololá	1	Sololá	6	Junio	2023-06-18T00:00:00	2024-11-08T05:00:00	8	Radiación solar	0
30233	7	Sololá	701	Sololá	1	Sololá	6	Junio	2023-06-18T00:00:00	2024-11-08T06:00:00	2	Temperatura media	12.1
30234	7	Sololá	701	Sololá	1	Sololá	6	Junio	2023-06-18T00:00:00	2024-11-08T06:00:00	4	Temperatura máxima	12.7
30235	7	Sololá	701	Sololá	1	Sololá	6	Junio	2023-06-18T00:00:00	2024-11-08T06:00:00	3	Temperatura mínima	12.1
30236	7	Sololá	701	Sololá	1	Sololá	6	Junio	2023-06-18T00:00:00	2024-11-08T06:00:00	5	Humedad	95
30237	7	Sololá	701	Sololá	1	Sololá	6	Junio	2023-06-18T00:00:00	2024-11-08T06:00:00	6	Velocidad del viento	0
30238	7	Sololá	701	Sololá	1	Sololá	6	Junio	2023-06-18T00:00:00	2024-11-08T06:00:00	7	Dirección del viento	0
30239	7	Sololá	701	Sololá	1	Sololá	6	Junio	2023-06-18T00:00:00	2024-11-08T06:00:00	1	Precipitación	0.2
30240	7	Sololá	701	Sololá	1	Sololá	6	Junio	2023-06-18T00:00:00	2024-11-08T06:00:00	8	Radiación solar	2
30241	7	Sololá	701	Sololá	1	Sololá	6	Junio	2023-06-18T00:00:00	2024-11-08T07:00:00	2	Temperatura media	12.7
30242	7	Sololá	701	Sololá	1	Sololá	6	Junio	2023-06-18T00:00:00	2024-11-08T07:00:00	4	Temperatura máxima	12.7
30243	7	Sololá	701	Sololá	1	Sololá	6	Junio	2023-06-18T00:00:00	2024-11-08T07:00:00	3	Temperatura mínima	11.9
30244	7	Sololá	701	Sololá	1	Sololá	6	Junio	2023-06-18T00:00:00	2024-11-08T07:00:00	5	Humedad	95
30245	7	Sololá	701	Sololá	1	Sololá	6	Junio	2023-06-18T00:00:00	2024-11-08T07:00:00	6	Velocidad del viento	0
30246	7	Sololá	701	Sololá	1	Sololá	6	Junio	2023-06-18T00:00:00	2024-11-08T07:00:00	7	Dirección del viento	0
30247	7	Sololá	701	Sololá	1	Sololá	6	Junio	2023-06-18T00:00:00	2024-11-08T07:00:00	1	Precipitación	0
30248	7	Sololá	701	Sololá	1	Sololá	6	Junio	2023-06-18T00:00:00	2024-11-08T07:00:00	8	Radiación solar	25
30249	7	Sololá	701	Sololá	1	Sololá	6	Junio	2023-06-18T00:00:00	2024-11-08T08:00:00	2	Temperatura media	14.6
30250	7	Sololá	701	Sololá	1	Sololá	6	Junio	2023-06-18T00:00:00	2024-11-08T08:00:00	4	Temperatura máxima	14.6
30251	7	Sololá	701	Sololá	1	Sololá	6	Junio	2023-06-18T00:00:00	2024-11-08T08:00:00	3	Temperatura mínima	12.7
30252	7	Sololá	701	Sololá	1	Sololá	6	Junio	2023-06-18T00:00:00	2024-11-08T08:00:00	5	Humedad	86
30253	7	Sololá	701	Sololá	1	Sololá	6	Junio	2023-06-18T00:00:00	2024-11-08T08:00:00	6	Velocidad del viento	0
30254	7	Sololá	701	Sololá	1	Sololá	6	Junio	2023-06-18T00:00:00	2024-11-08T08:00:00	7	Dirección del viento	0
30255	7	Sololá	701	Sololá	1	Sololá	6	Junio	2023-06-18T00:00:00	2024-11-08T08:00:00	1	Precipitación	0
30256	7	Sololá	701	Sololá	1	Sololá	6	Junio	2023-06-18T00:00:00	2024-11-08T08:00:00	8	Radiación solar	75
30257	7	Sololá	701	Sololá	1	Sololá	6	Junio	2023-06-18T00:00:00	2024-11-08T09:00:00	2	Temperatura media	17.9
30258	7	Sololá	701	Sololá	1	Sololá	6	Junio	2023-06-18T00:00:00	2024-11-08T09:00:00	4	Temperatura máxima	18
30259	7	Sololá	701	Sololá	1	Sololá	6	Junio	2023-06-18T00:00:00	2024-11-08T09:00:00	3	Temperatura mínima	14.6
30260	7	Sololá	701	Sololá	1	Sololá	6	Junio	2023-06-18T00:00:00	2024-11-08T09:00:00	5	Humedad	77
30261	7	Sololá	701	Sololá	1	Sololá	6	Junio	2023-06-18T00:00:00	2024-11-08T09:00:00	6	Velocidad del viento	0
30262	7	Sololá	701	Sololá	1	Sololá	6	Junio	2023-06-18T00:00:00	2024-11-08T09:00:00	7	Dirección del viento	0
30263	7	Sololá	701	Sololá	1	Sololá	6	Junio	2023-06-18T00:00:00	2024-11-08T09:00:00	1	Precipitación	0
30264	7	Sololá	701	Sololá	1	Sololá	6	Junio	2023-06-18T00:00:00	2024-11-08T09:00:00	8	Radiación solar	166
30265	7	Sololá	701	Sololá	1	Sololá	6	Junio	2023-06-18T00:00:00	2024-11-08T10:00:00	2	Temperatura media	19.4
30266	7	Sololá	701	Sololá	1	Sololá	6	Junio	2023-06-18T00:00:00	2024-11-08T10:00:00	4	Temperatura máxima	19.4
30267	7	Sololá	701	Sololá	1	Sololá	6	Junio	2023-06-18T00:00:00	2024-11-08T10:00:00	3	Temperatura mínima	18
30268	7	Sololá	701	Sololá	1	Sololá	6	Junio	2023-06-18T00:00:00	2024-11-08T10:00:00	5	Humedad	74
30269	7	Sololá	701	Sololá	1	Sololá	6	Junio	2023-06-18T00:00:00	2024-11-08T10:00:00	6	Velocidad del viento	0
30270	7	Sololá	701	Sololá	1	Sololá	6	Junio	2023-06-18T00:00:00	2024-11-08T10:00:00	7	Dirección del viento	0
30271	7	Sololá	701	Sololá	1	Sololá	6	Junio	2023-06-18T00:00:00	2024-11-08T10:00:00	1	Precipitación	0
30272	7	Sololá	701	Sololá	1	Sololá	6	Junio	2023-06-18T00:00:00	2024-11-08T10:00:00	8	Radiación solar	317
30273	7	Sololá	701	Sololá	1	Sololá	6	Junio	2023-06-18T00:00:00	2024-11-08T11:00:00	2	Temperatura media	20.7
30274	7	Sololá	701	Sololá	1	Sololá	6	Junio	2023-06-18T00:00:00	2024-11-08T11:00:00	4	Temperatura máxima	20.7
30275	7	Sololá	701	Sololá	1	Sololá	6	Junio	2023-06-18T00:00:00	2024-11-08T11:00:00	3	Temperatura mínima	19.3
30276	7	Sololá	701	Sololá	1	Sololá	6	Junio	2023-06-18T00:00:00	2024-11-08T11:00:00	5	Humedad	66
30277	7	Sololá	701	Sololá	1	Sololá	6	Junio	2023-06-18T00:00:00	2024-11-08T11:00:00	6	Velocidad del viento	0
30278	7	Sololá	701	Sololá	1	Sololá	6	Junio	2023-06-18T00:00:00	2024-11-08T11:00:00	7	Dirección del viento	0
30279	7	Sololá	701	Sololá	1	Sololá	6	Junio	2023-06-18T00:00:00	2024-11-08T11:00:00	1	Precipitación	0
30280	7	Sololá	701	Sololá	1	Sololá	6	Junio	2023-06-18T00:00:00	2024-11-08T11:00:00	8	Radiación solar	204
30281	7	Sololá	701	Sololá	1	Sololá	6	Junio	2023-06-18T00:00:00	2024-11-08T12:00:00	2	Temperatura media	20.3
30282	7	Sololá	701	Sololá	1	Sololá	6	Junio	2023-06-18T00:00:00	2024-11-08T12:00:00	4	Temperatura máxima	20.9
30283	7	Sololá	701	Sololá	1	Sololá	6	Junio	2023-06-18T00:00:00	2024-11-08T12:00:00	3	Temperatura mínima	20.3
30284	7	Sololá	701	Sololá	1	Sololá	6	Junio	2023-06-18T00:00:00	2024-11-08T12:00:00	5	Humedad	73
30285	7	Sololá	701	Sololá	1	Sololá	6	Junio	2023-06-18T00:00:00	2024-11-08T12:00:00	6	Velocidad del viento	1.6
30286	7	Sololá	701	Sololá	1	Sololá	6	Junio	2023-06-18T00:00:00	2024-11-08T12:00:00	7	Dirección del viento	1.61
30287	7	Sololá	701	Sololá	1	Sololá	6	Junio	2023-06-18T00:00:00	2024-11-08T12:00:00	1	Precipitación	0
30288	7	Sololá	701	Sololá	1	Sololá	6	Junio	2023-06-18T00:00:00	2024-11-08T12:00:00	8	Radiación solar	175
30289	7	Sololá	701	Sololá	1	Sololá	6	Junio	2023-06-18T00:00:00	2024-11-08T13:00:00	2	Temperatura media	17.8
30290	7	Sololá	701	Sololá	1	Sololá	6	Junio	2023-06-18T00:00:00	2024-11-08T13:00:00	4	Temperatura máxima	20.3
30291	7	Sololá	701	Sololá	1	Sololá	6	Junio	2023-06-18T00:00:00	2024-11-08T13:00:00	3	Temperatura mínima	17.8
30292	7	Sololá	701	Sololá	1	Sololá	6	Junio	2023-06-18T00:00:00	2024-11-08T13:00:00	5	Humedad	86
30293	7	Sololá	701	Sololá	1	Sololá	6	Junio	2023-06-18T00:00:00	2024-11-08T13:00:00	6	Velocidad del viento	1.6
30294	7	Sololá	701	Sololá	1	Sololá	6	Junio	2023-06-18T00:00:00	2024-11-08T13:00:00	7	Dirección del viento	1.61
30295	7	Sololá	701	Sololá	1	Sololá	6	Junio	2023-06-18T00:00:00	2024-11-08T13:00:00	1	Precipitación	0
30296	7	Sololá	701	Sololá	1	Sololá	6	Junio	2023-06-18T00:00:00	2024-11-08T13:00:00	8	Radiación solar	164
30297	7	Sololá	701	Sololá	1	Sololá	6	Junio	2023-06-18T00:00:00	2024-11-08T14:00:00	2	Temperatura media	18.7
30298	7	Sololá	701	Sololá	1	Sololá	6	Junio	2023-06-18T00:00:00	2024-11-08T14:00:00	4	Temperatura máxima	19.8
30299	7	Sololá	701	Sololá	1	Sololá	6	Junio	2023-06-18T00:00:00	2024-11-08T14:00:00	3	Temperatura mínima	18.4
30300	7	Sololá	701	Sololá	1	Sololá	6	Junio	2023-06-18T00:00:00	2024-11-08T14:00:00	5	Humedad	89
30301	7	Sololá	701	Sololá	1	Sololá	6	Junio	2023-06-18T00:00:00	2024-11-08T14:00:00	6	Velocidad del viento	0
30302	7	Sololá	701	Sololá	1	Sololá	6	Junio	2023-06-18T00:00:00	2024-11-08T14:00:00	7	Dirección del viento	0
30303	7	Sololá	701	Sololá	1	Sololá	6	Junio	2023-06-18T00:00:00	2024-11-08T14:00:00	1	Precipitación	0
30304	7	Sololá	701	Sololá	1	Sololá	6	Junio	2023-06-18T00:00:00	2024-11-08T14:00:00	8	Radiación solar	118
30305	7	Sololá	701	Sololá	1	Sololá	6	Junio	2023-06-18T00:00:00	2024-11-08T15:00:00	2	Temperatura media	17.4
30306	7	Sololá	701	Sololá	1	Sololá	6	Junio	2023-06-18T00:00:00	2024-11-08T15:00:00	4	Temperatura máxima	19.5
30307	7	Sololá	701	Sololá	1	Sololá	6	Junio	2023-06-18T00:00:00	2024-11-08T15:00:00	3	Temperatura mínima	17.4
30308	7	Sololá	701	Sololá	1	Sololá	6	Junio	2023-06-18T00:00:00	2024-11-08T15:00:00	5	Humedad	94
30309	7	Sololá	701	Sololá	1	Sololá	6	Junio	2023-06-18T00:00:00	2024-11-08T15:00:00	6	Velocidad del viento	0
30310	7	Sololá	701	Sololá	1	Sololá	6	Junio	2023-06-18T00:00:00	2024-11-08T15:00:00	7	Dirección del viento	0
30311	7	Sololá	701	Sololá	1	Sololá	6	Junio	2023-06-18T00:00:00	2024-11-08T15:00:00	1	Precipitación	8.6
30312	7	Sololá	701	Sololá	1	Sololá	6	Junio	2023-06-18T00:00:00	2024-11-08T15:00:00	8	Radiación solar	120
30313	7	Sololá	701	Sololá	1	Sololá	6	Junio	2023-06-18T00:00:00	2024-11-08T16:00:00	2	Temperatura media	16.5
30314	7	Sololá	701	Sololá	1	Sololá	6	Junio	2023-06-18T00:00:00	2024-11-08T16:00:00	4	Temperatura máxima	17.5
30315	7	Sololá	701	Sololá	1	Sololá	6	Junio	2023-06-18T00:00:00	2024-11-08T16:00:00	3	Temperatura mínima	16.5
30316	7	Sololá	701	Sololá	1	Sololá	6	Junio	2023-06-18T00:00:00	2024-11-08T16:00:00	5	Humedad	94
30317	7	Sololá	701	Sololá	1	Sololá	6	Junio	2023-06-18T00:00:00	2024-11-08T16:00:00	6	Velocidad del viento	0
30318	7	Sololá	701	Sololá	1	Sololá	6	Junio	2023-06-18T00:00:00	2024-11-08T16:00:00	7	Dirección del viento	0
30319	7	Sololá	701	Sololá	1	Sololá	6	Junio	2023-06-18T00:00:00	2024-11-08T16:00:00	1	Precipitación	4.2
30320	7	Sololá	701	Sololá	1	Sololá	6	Junio	2023-06-18T00:00:00	2024-11-08T16:00:00	8	Radiación solar	197
30321	7	Sololá	701	Sololá	1	Sololá	6	Junio	2023-06-18T00:00:00	2024-11-08T17:00:00	2	Temperatura media	15.4
30322	7	Sololá	701	Sololá	1	Sololá	6	Junio	2023-06-18T00:00:00	2024-11-08T17:00:00	4	Temperatura máxima	16.5
30323	7	Sololá	701	Sololá	1	Sololá	6	Junio	2023-06-18T00:00:00	2024-11-08T17:00:00	3	Temperatura mínima	15.3
30324	7	Sololá	701	Sololá	1	Sololá	6	Junio	2023-06-18T00:00:00	2024-11-08T17:00:00	5	Humedad	96
30325	7	Sololá	701	Sololá	1	Sololá	6	Junio	2023-06-18T00:00:00	2024-11-08T17:00:00	6	Velocidad del viento	0
30326	7	Sololá	701	Sololá	1	Sololá	6	Junio	2023-06-18T00:00:00	2024-11-08T17:00:00	7	Dirección del viento	0
30327	7	Sololá	701	Sololá	1	Sololá	6	Junio	2023-06-18T00:00:00	2024-11-08T17:00:00	1	Precipitación	0.6
30328	7	Sololá	701	Sololá	1	Sololá	6	Junio	2023-06-18T00:00:00	2024-11-08T17:00:00	8	Radiación solar	98
30329	7	Sololá	701	Sololá	1	Sololá	6	Junio	2023-06-18T00:00:00	2024-11-08T18:00:00	2	Temperatura media	16.9
30330	7	Sololá	701	Sololá	1	Sololá	6	Junio	2023-06-18T00:00:00	2024-11-08T18:00:00	4	Temperatura máxima	17.2
30331	7	Sololá	701	Sololá	1	Sololá	6	Junio	2023-06-18T00:00:00	2024-11-08T18:00:00	3	Temperatura mínima	16.5
30332	7	Sololá	701	Sololá	1	Sololá	6	Junio	2023-06-18T00:00:00	2024-11-08T18:00:00	5	Humedad	98
30333	7	Sololá	701	Sololá	1	Sololá	6	Junio	2023-06-18T00:00:00	2024-11-08T18:00:00	6	Velocidad del viento	0
30334	7	Sololá	701	Sololá	1	Sololá	6	Junio	2023-06-18T00:00:00	2024-11-08T18:00:00	7	Dirección del viento	0
30335	7	Sololá	701	Sololá	1	Sololá	6	Junio	2023-06-18T00:00:00	2024-11-08T18:00:00	1	Precipitación	0
30336	7	Sololá	701	Sololá	1	Sololá	6	Junio	2023-06-18T00:00:00	2024-11-08T18:00:00	8	Radiación solar	47
30337	7	Sololá	701	Sololá	1	Sololá	6	Junio	2023-06-18T00:00:00	2024-11-08T19:00:00	2	Temperatura media	17.9
30338	7	Sololá	701	Sololá	1	Sololá	6	Junio	2023-06-18T00:00:00	2024-11-08T19:00:00	4	Temperatura máxima	18
30339	7	Sololá	701	Sololá	1	Sololá	6	Junio	2023-06-18T00:00:00	2024-11-08T19:00:00	3	Temperatura mínima	17.9
30340	7	Sololá	701	Sololá	1	Sololá	6	Junio	2023-06-18T00:00:00	2024-11-08T19:00:00	5	Humedad	82
30341	7	Sololá	701	Sololá	1	Sololá	6	Junio	2023-06-18T00:00:00	2024-11-08T19:00:00	6	Velocidad del viento	0
30342	7	Sololá	701	Sololá	1	Sololá	6	Junio	2023-06-18T00:00:00	2024-11-08T19:00:00	7	Dirección del viento	0
30343	7	Sololá	701	Sololá	1	Sololá	6	Junio	2023-06-18T00:00:00	2024-11-08T19:00:00	1	Precipitación	0
30344	7	Sololá	701	Sololá	1	Sololá	6	Junio	2023-06-18T00:00:00	2024-11-08T19:00:00	8	Radiación solar	0
30345	7	Sololá	701	Sololá	1	Sololá	6	Junio	2023-06-18T00:00:00	2024-11-08T20:00:00	2	Temperatura media	17.4
30346	7	Sololá	701	Sololá	1	Sololá	6	Junio	2023-06-18T00:00:00	2024-11-08T20:00:00	4	Temperatura máxima	17.4
30347	7	Sololá	701	Sololá	1	Sololá	6	Junio	2023-06-18T00:00:00	2024-11-08T20:00:00	3	Temperatura mínima	17.4
30348	7	Sololá	701	Sololá	1	Sololá	6	Junio	2023-06-18T00:00:00	2024-11-08T20:00:00	5	Humedad	84
30349	7	Sololá	701	Sololá	1	Sololá	6	Junio	2023-06-18T00:00:00	2024-11-08T20:00:00	6	Velocidad del viento	0
30350	7	Sololá	701	Sololá	1	Sololá	6	Junio	2023-06-18T00:00:00	2024-11-08T20:00:00	7	Dirección del viento	0
30351	7	Sololá	701	Sololá	1	Sololá	6	Junio	2023-06-18T00:00:00	2024-11-08T20:00:00	1	Precipitación	0
30352	7	Sololá	701	Sololá	1	Sololá	6	Junio	2023-06-18T00:00:00	2024-11-08T20:00:00	8	Radiación solar	0
30353	7	Sololá	701	Sololá	1	Sololá	6	Junio	2023-06-18T00:00:00	2024-11-08T21:00:00	2	Temperatura media	16.6
30354	7	Sololá	701	Sololá	1	Sololá	6	Junio	2023-06-18T00:00:00	2024-11-08T21:00:00	4	Temperatura máxima	17.1
30355	7	Sololá	701	Sololá	1	Sololá	6	Junio	2023-06-18T00:00:00	2024-11-08T21:00:00	3	Temperatura mínima	16.6
30356	7	Sololá	701	Sololá	1	Sololá	6	Junio	2023-06-18T00:00:00	2024-11-08T21:00:00	5	Humedad	83
30357	7	Sololá	701	Sololá	1	Sololá	6	Junio	2023-06-18T00:00:00	2024-11-08T21:00:00	6	Velocidad del viento	0
30358	7	Sololá	701	Sololá	1	Sololá	6	Junio	2023-06-18T00:00:00	2024-11-08T21:00:00	7	Dirección del viento	0
30359	7	Sololá	701	Sololá	1	Sololá	6	Junio	2023-06-18T00:00:00	2024-11-08T21:00:00	1	Precipitación	0
30360	7	Sololá	701	Sololá	1	Sololá	6	Junio	2023-06-18T00:00:00	2024-11-08T21:00:00	8	Radiación solar	0
30361	7	Sololá	701	Sololá	1	Sololá	6	Junio	2023-06-18T00:00:00	2024-11-08T22:00:00	2	Temperatura media	16.2
30362	7	Sololá	701	Sololá	1	Sololá	6	Junio	2023-06-18T00:00:00	2024-11-08T22:00:00	4	Temperatura máxima	16.7
30363	7	Sololá	701	Sololá	1	Sololá	6	Junio	2023-06-18T00:00:00	2024-11-08T22:00:00	3	Temperatura mínima	16.2
30364	7	Sololá	701	Sololá	1	Sololá	6	Junio	2023-06-18T00:00:00	2024-11-08T22:00:00	5	Humedad	83
30365	7	Sololá	701	Sololá	1	Sololá	6	Junio	2023-06-18T00:00:00	2024-11-08T22:00:00	6	Velocidad del viento	0
30366	7	Sololá	701	Sololá	1	Sololá	6	Junio	2023-06-18T00:00:00	2024-11-08T22:00:00	7	Dirección del viento	0
30367	7	Sololá	701	Sololá	1	Sololá	6	Junio	2023-06-18T00:00:00	2024-11-08T22:00:00	1	Precipitación	0
30368	7	Sololá	701	Sololá	1	Sololá	6	Junio	2023-06-18T00:00:00	2024-11-08T22:00:00	8	Radiación solar	0
30369	7	Sololá	701	Sololá	1	Sololá	6	Junio	2023-06-18T00:00:00	2024-11-08T23:00:00	2	Temperatura media	16.3
30370	7	Sololá	701	Sololá	1	Sololá	6	Junio	2023-06-18T00:00:00	2024-11-08T23:00:00	4	Temperatura máxima	16.4
30371	7	Sololá	701	Sololá	1	Sololá	6	Junio	2023-06-18T00:00:00	2024-11-08T23:00:00	3	Temperatura mínima	16.1
30372	7	Sololá	701	Sololá	1	Sololá	6	Junio	2023-06-18T00:00:00	2024-11-08T23:00:00	5	Humedad	82
30373	7	Sololá	701	Sololá	1	Sololá	6	Junio	2023-06-18T00:00:00	2024-11-08T23:00:00	6	Velocidad del viento	0
30374	7	Sololá	701	Sololá	1	Sololá	6	Junio	2023-06-18T00:00:00	2024-11-08T23:00:00	7	Dirección del viento	0
30375	7	Sololá	701	Sololá	1	Sololá	6	Junio	2023-06-18T00:00:00	2024-11-08T23:00:00	1	Precipitación	0
30376	7	Sololá	701	Sololá	1	Sololá	6	Junio	2023-06-18T00:00:00	2024-11-08T23:00:00	8	Radiación solar	0
30377	7	Sololá	701	Sololá	1	Sololá	6	Junio	2023-06-19T00:00:00	2024-11-08T00:00:00	2	Temperatura media	16.2
30378	7	Sololá	701	Sololá	1	Sololá	6	Junio	2023-06-19T00:00:00	2024-11-08T00:00:00	4	Temperatura máxima	16.3
30379	7	Sololá	701	Sololá	1	Sololá	6	Junio	2023-06-19T00:00:00	2024-11-08T00:00:00	3	Temperatura mínima	16.2
30380	7	Sololá	701	Sololá	1	Sololá	6	Junio	2023-06-19T00:00:00	2024-11-08T00:00:00	5	Humedad	83
30381	7	Sololá	701	Sololá	1	Sololá	6	Junio	2023-06-19T00:00:00	2024-11-08T00:00:00	6	Velocidad del viento	0
30382	7	Sololá	701	Sololá	1	Sololá	6	Junio	2023-06-19T00:00:00	2024-11-08T00:00:00	7	Dirección del viento	0
30383	7	Sololá	701	Sololá	1	Sololá	6	Junio	2023-06-19T00:00:00	2024-11-08T00:00:00	1	Precipitación	0
30384	7	Sololá	701	Sololá	1	Sololá	6	Junio	2023-06-19T00:00:00	2024-11-08T00:00:00	8	Radiación solar	0
30385	7	Sololá	701	Sololá	1	Sololá	6	Junio	2023-06-19T00:00:00	2024-11-08T01:00:00	2	Temperatura media	16.1
30386	7	Sololá	701	Sololá	1	Sololá	6	Junio	2023-06-19T00:00:00	2024-11-08T01:00:00	4	Temperatura máxima	16.2
30387	7	Sololá	701	Sololá	1	Sololá	6	Junio	2023-06-19T00:00:00	2024-11-08T01:00:00	3	Temperatura mínima	16.1
30388	7	Sololá	701	Sololá	1	Sololá	6	Junio	2023-06-19T00:00:00	2024-11-08T01:00:00	5	Humedad	82
30389	7	Sololá	701	Sololá	1	Sololá	6	Junio	2023-06-19T00:00:00	2024-11-08T01:00:00	6	Velocidad del viento	0
30390	7	Sololá	701	Sololá	1	Sololá	6	Junio	2023-06-19T00:00:00	2024-11-08T01:00:00	7	Dirección del viento	0
30391	7	Sololá	701	Sololá	1	Sololá	6	Junio	2023-06-19T00:00:00	2024-11-08T01:00:00	1	Precipitación	0
30392	7	Sololá	701	Sololá	1	Sololá	6	Junio	2023-06-19T00:00:00	2024-11-08T01:00:00	8	Radiación solar	0
30393	7	Sololá	701	Sololá	1	Sololá	6	Junio	2023-06-19T00:00:00	2024-11-08T02:00:00	2	Temperatura media	15.9
30394	7	Sololá	701	Sololá	1	Sololá	6	Junio	2023-06-19T00:00:00	2024-11-08T02:00:00	4	Temperatura máxima	16.1
30395	7	Sololá	701	Sololá	1	Sololá	6	Junio	2023-06-19T00:00:00	2024-11-08T02:00:00	3	Temperatura mínima	15.9
30396	7	Sololá	701	Sololá	1	Sololá	6	Junio	2023-06-19T00:00:00	2024-11-08T02:00:00	5	Humedad	81
30397	7	Sololá	701	Sololá	1	Sololá	6	Junio	2023-06-19T00:00:00	2024-11-08T02:00:00	6	Velocidad del viento	0
30398	7	Sololá	701	Sololá	1	Sololá	6	Junio	2023-06-19T00:00:00	2024-11-08T02:00:00	7	Dirección del viento	0
30399	7	Sololá	701	Sololá	1	Sololá	6	Junio	2023-06-19T00:00:00	2024-11-08T02:00:00	1	Precipitación	0
30400	7	Sololá	701	Sololá	1	Sololá	6	Junio	2023-06-19T00:00:00	2024-11-08T02:00:00	8	Radiación solar	0
30401	7	Sololá	701	Sololá	1	Sololá	6	Junio	2023-06-19T00:00:00	2024-11-08T03:00:00	2	Temperatura media	15.9
30402	7	Sololá	701	Sololá	1	Sololá	6	Junio	2023-06-19T00:00:00	2024-11-08T03:00:00	4	Temperatura máxima	16.1
30403	7	Sololá	701	Sololá	1	Sololá	6	Junio	2023-06-19T00:00:00	2024-11-08T03:00:00	3	Temperatura mínima	15.8
30404	7	Sololá	701	Sololá	1	Sololá	6	Junio	2023-06-19T00:00:00	2024-11-08T03:00:00	5	Humedad	80
30405	7	Sololá	701	Sololá	1	Sololá	6	Junio	2023-06-19T00:00:00	2024-11-08T03:00:00	6	Velocidad del viento	0
30406	7	Sololá	701	Sololá	1	Sololá	6	Junio	2023-06-19T00:00:00	2024-11-08T03:00:00	7	Dirección del viento	0
30407	7	Sololá	701	Sololá	1	Sololá	6	Junio	2023-06-19T00:00:00	2024-11-08T03:00:00	1	Precipitación	0
30408	7	Sololá	701	Sololá	1	Sololá	6	Junio	2023-06-19T00:00:00	2024-11-08T03:00:00	8	Radiación solar	0
30409	7	Sololá	701	Sololá	1	Sololá	6	Junio	2023-06-19T00:00:00	2024-11-08T04:00:00	2	Temperatura media	15.5
30410	7	Sololá	701	Sololá	1	Sololá	6	Junio	2023-06-19T00:00:00	2024-11-08T04:00:00	4	Temperatura máxima	16
30411	7	Sololá	701	Sololá	1	Sololá	6	Junio	2023-06-19T00:00:00	2024-11-08T04:00:00	3	Temperatura mínima	15.5
30412	7	Sololá	701	Sololá	1	Sololá	6	Junio	2023-06-19T00:00:00	2024-11-08T04:00:00	5	Humedad	81
30413	7	Sololá	701	Sololá	1	Sololá	6	Junio	2023-06-19T00:00:00	2024-11-08T04:00:00	6	Velocidad del viento	0
30414	7	Sololá	701	Sololá	1	Sololá	6	Junio	2023-06-19T00:00:00	2024-11-08T04:00:00	7	Dirección del viento	0
30415	7	Sololá	701	Sololá	1	Sololá	6	Junio	2023-06-19T00:00:00	2024-11-08T04:00:00	1	Precipitación	0
30416	7	Sololá	701	Sololá	1	Sololá	6	Junio	2023-06-19T00:00:00	2024-11-08T04:00:00	8	Radiación solar	0
30417	7	Sololá	701	Sololá	1	Sololá	6	Junio	2023-06-19T00:00:00	2024-11-08T05:00:00	2	Temperatura media	15.1
30418	7	Sololá	701	Sololá	1	Sololá	6	Junio	2023-06-19T00:00:00	2024-11-08T05:00:00	4	Temperatura máxima	15.5
30419	7	Sololá	701	Sololá	1	Sololá	6	Junio	2023-06-19T00:00:00	2024-11-08T05:00:00	3	Temperatura mínima	15.1
30420	7	Sololá	701	Sololá	1	Sololá	6	Junio	2023-06-19T00:00:00	2024-11-08T05:00:00	5	Humedad	84
30421	7	Sololá	701	Sololá	1	Sololá	6	Junio	2023-06-19T00:00:00	2024-11-08T05:00:00	6	Velocidad del viento	0
30422	7	Sololá	701	Sololá	1	Sololá	6	Junio	2023-06-19T00:00:00	2024-11-08T05:00:00	7	Dirección del viento	0
30423	7	Sololá	701	Sololá	1	Sololá	6	Junio	2023-06-19T00:00:00	2024-11-08T05:00:00	1	Precipitación	0
30424	7	Sololá	701	Sololá	1	Sololá	6	Junio	2023-06-19T00:00:00	2024-11-08T05:00:00	8	Radiación solar	0
30425	7	Sololá	701	Sololá	1	Sololá	6	Junio	2023-06-19T00:00:00	2024-11-08T06:00:00	2	Temperatura media	14.8
30426	7	Sololá	701	Sololá	1	Sololá	6	Junio	2023-06-19T00:00:00	2024-11-08T06:00:00	4	Temperatura máxima	15.2
30427	7	Sololá	701	Sololá	1	Sololá	6	Junio	2023-06-19T00:00:00	2024-11-08T06:00:00	3	Temperatura mínima	14.7
30428	7	Sololá	701	Sololá	1	Sololá	6	Junio	2023-06-19T00:00:00	2024-11-08T06:00:00	5	Humedad	88
30429	7	Sololá	701	Sololá	1	Sololá	6	Junio	2023-06-19T00:00:00	2024-11-08T06:00:00	6	Velocidad del viento	0
30430	7	Sololá	701	Sololá	1	Sololá	6	Junio	2023-06-19T00:00:00	2024-11-08T06:00:00	7	Dirección del viento	0
30431	7	Sololá	701	Sololá	1	Sololá	6	Junio	2023-06-19T00:00:00	2024-11-08T06:00:00	1	Precipitación	0
30432	7	Sololá	701	Sololá	1	Sololá	6	Junio	2023-06-19T00:00:00	2024-11-08T06:00:00	8	Radiación solar	5
30433	7	Sololá	701	Sololá	1	Sololá	6	Junio	2023-06-19T00:00:00	2024-11-08T07:00:00	2	Temperatura media	15.8
30434	7	Sololá	701	Sololá	1	Sololá	6	Junio	2023-06-19T00:00:00	2024-11-08T07:00:00	4	Temperatura máxima	15.9
30435	7	Sololá	701	Sololá	1	Sololá	6	Junio	2023-06-19T00:00:00	2024-11-08T07:00:00	3	Temperatura mínima	14.8
30436	7	Sololá	701	Sololá	1	Sololá	6	Junio	2023-06-19T00:00:00	2024-11-08T07:00:00	5	Humedad	85
30437	7	Sololá	701	Sololá	1	Sololá	6	Junio	2023-06-19T00:00:00	2024-11-08T07:00:00	6	Velocidad del viento	0
30438	7	Sololá	701	Sololá	1	Sololá	6	Junio	2023-06-19T00:00:00	2024-11-08T07:00:00	7	Dirección del viento	0
30439	7	Sololá	701	Sololá	1	Sololá	6	Junio	2023-06-19T00:00:00	2024-11-08T07:00:00	1	Precipitación	0
30440	7	Sololá	701	Sololá	1	Sololá	6	Junio	2023-06-19T00:00:00	2024-11-08T07:00:00	8	Radiación solar	41
30441	7	Sololá	701	Sololá	1	Sololá	6	Junio	2023-06-19T00:00:00	2024-11-08T08:00:00	2	Temperatura media	17.8
30442	7	Sololá	701	Sololá	1	Sololá	6	Junio	2023-06-19T00:00:00	2024-11-08T08:00:00	4	Temperatura máxima	17.8
30443	7	Sololá	701	Sololá	1	Sololá	6	Junio	2023-06-19T00:00:00	2024-11-08T08:00:00	3	Temperatura mínima	15.8
30444	7	Sololá	701	Sololá	1	Sololá	6	Junio	2023-06-19T00:00:00	2024-11-08T08:00:00	5	Humedad	77
30445	7	Sololá	701	Sololá	1	Sololá	6	Junio	2023-06-19T00:00:00	2024-11-08T08:00:00	6	Velocidad del viento	0
30446	7	Sololá	701	Sololá	1	Sololá	6	Junio	2023-06-19T00:00:00	2024-11-08T08:00:00	7	Dirección del viento	0
30447	7	Sololá	701	Sololá	1	Sololá	6	Junio	2023-06-19T00:00:00	2024-11-08T08:00:00	1	Precipitación	0
30448	7	Sololá	701	Sololá	1	Sololá	6	Junio	2023-06-19T00:00:00	2024-11-08T08:00:00	8	Radiación solar	74
30449	7	Sololá	701	Sololá	1	Sololá	6	Junio	2023-06-19T00:00:00	2024-11-08T09:00:00	2	Temperatura media	21.2
30450	7	Sololá	701	Sololá	1	Sololá	6	Junio	2023-06-19T00:00:00	2024-11-08T09:00:00	4	Temperatura máxima	21.2
30451	7	Sololá	701	Sololá	1	Sololá	6	Junio	2023-06-19T00:00:00	2024-11-08T09:00:00	3	Temperatura mínima	17.8
30452	7	Sololá	701	Sololá	1	Sololá	6	Junio	2023-06-19T00:00:00	2024-11-08T09:00:00	5	Humedad	67
30453	7	Sololá	701	Sololá	1	Sololá	6	Junio	2023-06-19T00:00:00	2024-11-08T09:00:00	6	Velocidad del viento	0
30454	7	Sololá	701	Sololá	1	Sololá	6	Junio	2023-06-19T00:00:00	2024-11-08T09:00:00	7	Dirección del viento	0
30455	7	Sololá	701	Sololá	1	Sololá	6	Junio	2023-06-19T00:00:00	2024-11-08T09:00:00	1	Precipitación	0
30456	7	Sololá	701	Sololá	1	Sololá	6	Junio	2023-06-19T00:00:00	2024-11-08T09:00:00	8	Radiación solar	465
30457	7	Sololá	701	Sololá	1	Sololá	6	Junio	2023-06-19T00:00:00	2024-11-08T10:00:00	2	Temperatura media	22.6
30458	7	Sololá	701	Sololá	1	Sololá	6	Junio	2023-06-19T00:00:00	2024-11-08T10:00:00	4	Temperatura máxima	22.6
30459	7	Sololá	701	Sololá	1	Sololá	6	Junio	2023-06-19T00:00:00	2024-11-08T10:00:00	3	Temperatura mínima	21.2
30460	7	Sololá	701	Sololá	1	Sololá	6	Junio	2023-06-19T00:00:00	2024-11-08T10:00:00	5	Humedad	63
30461	7	Sololá	701	Sololá	1	Sololá	6	Junio	2023-06-19T00:00:00	2024-11-08T10:00:00	6	Velocidad del viento	0
30462	7	Sololá	701	Sololá	1	Sololá	6	Junio	2023-06-19T00:00:00	2024-11-08T10:00:00	7	Dirección del viento	0
30463	7	Sololá	701	Sololá	1	Sololá	6	Junio	2023-06-19T00:00:00	2024-11-08T10:00:00	1	Precipitación	0
30464	7	Sololá	701	Sololá	1	Sololá	6	Junio	2023-06-19T00:00:00	2024-11-08T10:00:00	8	Radiación solar	726
30465	7	Sololá	701	Sololá	1	Sololá	6	Junio	2023-06-19T00:00:00	2024-11-08T11:00:00	2	Temperatura media	22.2
30466	7	Sololá	701	Sololá	1	Sololá	6	Junio	2023-06-19T00:00:00	2024-11-08T11:00:00	4	Temperatura máxima	23.2
30467	7	Sololá	701	Sololá	1	Sololá	6	Junio	2023-06-19T00:00:00	2024-11-08T11:00:00	3	Temperatura mínima	21.9
30468	7	Sololá	701	Sololá	1	Sololá	6	Junio	2023-06-19T00:00:00	2024-11-08T11:00:00	5	Humedad	75
30469	7	Sololá	701	Sololá	1	Sololá	6	Junio	2023-06-19T00:00:00	2024-11-08T11:00:00	6	Velocidad del viento	0
30470	7	Sololá	701	Sololá	1	Sololá	6	Junio	2023-06-19T00:00:00	2024-11-08T11:00:00	7	Dirección del viento	0
30471	7	Sololá	701	Sololá	1	Sololá	6	Junio	2023-06-19T00:00:00	2024-11-08T11:00:00	1	Precipitación	0
30472	7	Sololá	701	Sololá	1	Sololá	6	Junio	2023-06-19T00:00:00	2024-11-08T11:00:00	8	Radiación solar	741
30473	7	Sololá	701	Sololá	1	Sololá	6	Junio	2023-06-19T00:00:00	2024-11-08T12:00:00	2	Temperatura media	20.8
30474	7	Sololá	701	Sololá	1	Sololá	6	Junio	2023-06-19T00:00:00	2024-11-08T12:00:00	4	Temperatura máxima	22.3
30475	7	Sololá	701	Sololá	1	Sololá	6	Junio	2023-06-19T00:00:00	2024-11-08T12:00:00	3	Temperatura mínima	20.8
30476	7	Sololá	701	Sololá	1	Sololá	6	Junio	2023-06-19T00:00:00	2024-11-08T12:00:00	5	Humedad	82
30477	7	Sololá	701	Sololá	1	Sololá	6	Junio	2023-06-19T00:00:00	2024-11-08T12:00:00	6	Velocidad del viento	0
30478	7	Sololá	701	Sololá	1	Sololá	6	Junio	2023-06-19T00:00:00	2024-11-08T12:00:00	7	Dirección del viento	0
30479	7	Sololá	701	Sololá	1	Sololá	6	Junio	2023-06-19T00:00:00	2024-11-08T12:00:00	1	Precipitación	0
30480	7	Sololá	701	Sololá	1	Sololá	6	Junio	2023-06-19T00:00:00	2024-11-08T12:00:00	8	Radiación solar	211
30481	7	Sololá	701	Sololá	1	Sololá	6	Junio	2023-06-19T00:00:00	2024-11-08T13:00:00	2	Temperatura media	19.2
30482	7	Sololá	701	Sololá	1	Sololá	6	Junio	2023-06-19T00:00:00	2024-11-08T13:00:00	4	Temperatura máxima	20.8
30483	7	Sololá	701	Sololá	1	Sololá	6	Junio	2023-06-19T00:00:00	2024-11-08T13:00:00	3	Temperatura mínima	18.9
30484	7	Sololá	701	Sololá	1	Sololá	6	Junio	2023-06-19T00:00:00	2024-11-08T13:00:00	5	Humedad	86
30485	7	Sololá	701	Sololá	1	Sololá	6	Junio	2023-06-19T00:00:00	2024-11-08T13:00:00	6	Velocidad del viento	0
30486	7	Sololá	701	Sololá	1	Sololá	6	Junio	2023-06-19T00:00:00	2024-11-08T13:00:00	7	Dirección del viento	0
30487	7	Sololá	701	Sololá	1	Sololá	6	Junio	2023-06-19T00:00:00	2024-11-08T13:00:00	1	Precipitación	0
30488	7	Sololá	701	Sololá	1	Sololá	6	Junio	2023-06-19T00:00:00	2024-11-08T13:00:00	8	Radiación solar	83
30489	7	Sololá	701	Sololá	1	Sololá	6	Junio	2023-06-19T00:00:00	2024-11-08T14:00:00	2	Temperatura media	19.6
30490	7	Sololá	701	Sololá	1	Sololá	6	Junio	2023-06-19T00:00:00	2024-11-08T14:00:00	4	Temperatura máxima	20.3
30491	7	Sololá	701	Sololá	1	Sololá	6	Junio	2023-06-19T00:00:00	2024-11-08T14:00:00	3	Temperatura mínima	19.2
30492	7	Sololá	701	Sololá	1	Sololá	6	Junio	2023-06-19T00:00:00	2024-11-08T14:00:00	5	Humedad	87
30493	7	Sololá	701	Sololá	1	Sololá	6	Junio	2023-06-19T00:00:00	2024-11-08T14:00:00	6	Velocidad del viento	0
30494	7	Sololá	701	Sololá	1	Sololá	6	Junio	2023-06-19T00:00:00	2024-11-08T14:00:00	7	Dirección del viento	0
30495	7	Sololá	701	Sololá	1	Sololá	6	Junio	2023-06-19T00:00:00	2024-11-08T14:00:00	1	Precipitación	0
30496	7	Sololá	701	Sololá	1	Sololá	6	Junio	2023-06-19T00:00:00	2024-11-08T14:00:00	8	Radiación solar	152
30497	7	Sololá	701	Sololá	1	Sololá	6	Junio	2023-06-19T00:00:00	2024-11-08T15:00:00	2	Temperatura media	21.1
30498	7	Sololá	701	Sololá	1	Sololá	6	Junio	2023-06-19T00:00:00	2024-11-08T15:00:00	4	Temperatura máxima	21.1
30499	7	Sololá	701	Sololá	1	Sololá	6	Junio	2023-06-19T00:00:00	2024-11-08T15:00:00	3	Temperatura mínima	19.3
30500	7	Sololá	701	Sololá	1	Sololá	6	Junio	2023-06-19T00:00:00	2024-11-08T15:00:00	5	Humedad	82
30501	7	Sololá	701	Sololá	1	Sololá	6	Junio	2023-06-19T00:00:00	2024-11-08T15:00:00	6	Velocidad del viento	0
30502	7	Sololá	701	Sololá	1	Sololá	6	Junio	2023-06-19T00:00:00	2024-11-08T15:00:00	7	Dirección del viento	0
30503	7	Sololá	701	Sololá	1	Sololá	6	Junio	2023-06-19T00:00:00	2024-11-08T15:00:00	1	Precipitación	0
30504	7	Sololá	701	Sololá	1	Sololá	6	Junio	2023-06-19T00:00:00	2024-11-08T15:00:00	8	Radiación solar	162
30505	7	Sololá	701	Sololá	1	Sololá	6	Junio	2023-06-19T00:00:00	2024-11-08T16:00:00	2	Temperatura media	20.6
30506	7	Sololá	701	Sololá	1	Sololá	6	Junio	2023-06-19T00:00:00	2024-11-08T16:00:00	4	Temperatura máxima	21.5
30507	7	Sololá	701	Sololá	1	Sololá	6	Junio	2023-06-19T00:00:00	2024-11-08T16:00:00	3	Temperatura mínima	20.6
30508	7	Sololá	701	Sololá	1	Sololá	6	Junio	2023-06-19T00:00:00	2024-11-08T16:00:00	5	Humedad	84
30509	7	Sololá	701	Sololá	1	Sololá	6	Junio	2023-06-19T00:00:00	2024-11-08T16:00:00	6	Velocidad del viento	0
30510	7	Sololá	701	Sololá	1	Sololá	6	Junio	2023-06-19T00:00:00	2024-11-08T16:00:00	7	Dirección del viento	0
30511	7	Sololá	701	Sololá	1	Sololá	6	Junio	2023-06-19T00:00:00	2024-11-08T16:00:00	1	Precipitación	0
30512	7	Sololá	701	Sololá	1	Sololá	6	Junio	2023-06-19T00:00:00	2024-11-08T16:00:00	8	Radiación solar	132
30513	7	Sololá	701	Sololá	1	Sololá	6	Junio	2023-06-19T00:00:00	2024-11-08T17:00:00	2	Temperatura media	19
30514	7	Sololá	701	Sololá	1	Sololá	6	Junio	2023-06-19T00:00:00	2024-11-08T17:00:00	4	Temperatura máxima	20.6
30515	7	Sololá	701	Sololá	1	Sololá	6	Junio	2023-06-19T00:00:00	2024-11-08T17:00:00	3	Temperatura mínima	19
30516	7	Sololá	701	Sololá	1	Sololá	6	Junio	2023-06-19T00:00:00	2024-11-08T17:00:00	5	Humedad	89
30517	7	Sololá	701	Sololá	1	Sololá	6	Junio	2023-06-19T00:00:00	2024-11-08T17:00:00	6	Velocidad del viento	0
30518	7	Sololá	701	Sololá	1	Sololá	6	Junio	2023-06-19T00:00:00	2024-11-08T17:00:00	7	Dirección del viento	0
30519	7	Sololá	701	Sololá	1	Sololá	6	Junio	2023-06-19T00:00:00	2024-11-08T17:00:00	1	Precipitación	0
30520	7	Sololá	701	Sololá	1	Sololá	6	Junio	2023-06-19T00:00:00	2024-11-08T17:00:00	8	Radiación solar	57
30521	7	Sololá	701	Sololá	1	Sololá	6	Junio	2023-06-19T00:00:00	2024-11-08T18:00:00	2	Temperatura media	17.8
30522	7	Sololá	701	Sololá	1	Sololá	6	Junio	2023-06-19T00:00:00	2024-11-08T18:00:00	4	Temperatura máxima	18.9
30523	7	Sololá	701	Sololá	1	Sololá	6	Junio	2023-06-19T00:00:00	2024-11-08T18:00:00	3	Temperatura mínima	17.7
30524	7	Sololá	701	Sololá	1	Sololá	6	Junio	2023-06-19T00:00:00	2024-11-08T18:00:00	5	Humedad	92
30525	7	Sololá	701	Sololá	1	Sololá	6	Junio	2023-06-19T00:00:00	2024-11-08T18:00:00	6	Velocidad del viento	0
30526	7	Sololá	701	Sololá	1	Sololá	6	Junio	2023-06-19T00:00:00	2024-11-08T18:00:00	7	Dirección del viento	0
30527	7	Sololá	701	Sololá	1	Sololá	6	Junio	2023-06-19T00:00:00	2024-11-08T18:00:00	1	Precipitación	0
30528	7	Sololá	701	Sololá	1	Sololá	6	Junio	2023-06-19T00:00:00	2024-11-08T18:00:00	8	Radiación solar	28
30529	7	Sololá	701	Sololá	1	Sololá	6	Junio	2023-06-19T00:00:00	2024-11-08T19:00:00	2	Temperatura media	17.5
30530	7	Sololá	701	Sololá	1	Sololá	6	Junio	2023-06-19T00:00:00	2024-11-08T19:00:00	4	Temperatura máxima	17.8
30531	7	Sololá	701	Sololá	1	Sololá	6	Junio	2023-06-19T00:00:00	2024-11-08T19:00:00	3	Temperatura mínima	17.5
30532	7	Sololá	701	Sololá	1	Sololá	6	Junio	2023-06-19T00:00:00	2024-11-08T19:00:00	5	Humedad	93
30533	7	Sololá	701	Sololá	1	Sololá	6	Junio	2023-06-19T00:00:00	2024-11-08T19:00:00	6	Velocidad del viento	0
30534	7	Sololá	701	Sololá	1	Sololá	6	Junio	2023-06-19T00:00:00	2024-11-08T19:00:00	7	Dirección del viento	0
30535	7	Sololá	701	Sololá	1	Sololá	6	Junio	2023-06-19T00:00:00	2024-11-08T19:00:00	1	Precipitación	0
30536	7	Sololá	701	Sololá	1	Sololá	6	Junio	2023-06-19T00:00:00	2024-11-08T19:00:00	8	Radiación solar	0
30537	7	Sololá	701	Sololá	1	Sololá	6	Junio	2023-06-19T00:00:00	2024-11-08T20:00:00	2	Temperatura media	17.2
30538	7	Sololá	701	Sololá	1	Sololá	6	Junio	2023-06-19T00:00:00	2024-11-08T20:00:00	4	Temperatura máxima	17.5
30539	7	Sololá	701	Sololá	1	Sololá	6	Junio	2023-06-19T00:00:00	2024-11-08T20:00:00	3	Temperatura mínima	17.2
30540	7	Sololá	701	Sololá	1	Sololá	6	Junio	2023-06-19T00:00:00	2024-11-08T20:00:00	5	Humedad	94
30541	7	Sololá	701	Sololá	1	Sololá	6	Junio	2023-06-19T00:00:00	2024-11-08T20:00:00	6	Velocidad del viento	0
30542	7	Sololá	701	Sololá	1	Sololá	6	Junio	2023-06-19T00:00:00	2024-11-08T20:00:00	7	Dirección del viento	0
30543	7	Sololá	701	Sololá	1	Sololá	6	Junio	2023-06-19T00:00:00	2024-11-08T20:00:00	1	Precipitación	0
30544	7	Sololá	701	Sololá	1	Sololá	6	Junio	2023-06-19T00:00:00	2024-11-08T20:00:00	8	Radiación solar	0
30545	7	Sololá	701	Sololá	1	Sololá	6	Junio	2023-06-19T00:00:00	2024-11-08T21:00:00	2	Temperatura media	16.6
30546	7	Sololá	701	Sololá	1	Sololá	6	Junio	2023-06-19T00:00:00	2024-11-08T21:00:00	4	Temperatura máxima	17.3
30547	7	Sololá	701	Sololá	1	Sololá	6	Junio	2023-06-19T00:00:00	2024-11-08T21:00:00	3	Temperatura mínima	16.6
30548	7	Sololá	701	Sololá	1	Sololá	6	Junio	2023-06-19T00:00:00	2024-11-08T21:00:00	5	Humedad	91
30549	7	Sololá	701	Sololá	1	Sololá	6	Junio	2023-06-19T00:00:00	2024-11-08T21:00:00	6	Velocidad del viento	0
30550	7	Sololá	701	Sololá	1	Sololá	6	Junio	2023-06-19T00:00:00	2024-11-08T21:00:00	7	Dirección del viento	0
30551	7	Sololá	701	Sololá	1	Sololá	6	Junio	2023-06-19T00:00:00	2024-11-08T21:00:00	1	Precipitación	0
30552	7	Sololá	701	Sololá	1	Sololá	6	Junio	2023-06-19T00:00:00	2024-11-08T21:00:00	8	Radiación solar	0
30553	7	Sololá	701	Sololá	1	Sololá	6	Junio	2023-06-19T00:00:00	2024-11-08T22:00:00	2	Temperatura media	16.4
30554	7	Sololá	701	Sololá	1	Sololá	6	Junio	2023-06-19T00:00:00	2024-11-08T22:00:00	4	Temperatura máxima	16.7
30555	7	Sololá	701	Sololá	1	Sololá	6	Junio	2023-06-19T00:00:00	2024-11-08T22:00:00	3	Temperatura mínima	16.3
30556	7	Sololá	701	Sololá	1	Sololá	6	Junio	2023-06-19T00:00:00	2024-11-08T22:00:00	5	Humedad	93
30557	7	Sololá	701	Sololá	1	Sololá	6	Junio	2023-06-19T00:00:00	2024-11-08T22:00:00	6	Velocidad del viento	0
30558	7	Sololá	701	Sololá	1	Sololá	6	Junio	2023-06-19T00:00:00	2024-11-08T22:00:00	7	Dirección del viento	0
30559	7	Sololá	701	Sololá	1	Sololá	6	Junio	2023-06-19T00:00:00	2024-11-08T22:00:00	1	Precipitación	0
30560	7	Sololá	701	Sololá	1	Sololá	6	Junio	2023-06-19T00:00:00	2024-11-08T22:00:00	8	Radiación solar	0
30561	7	Sololá	701	Sololá	1	Sololá	6	Junio	2023-06-19T00:00:00	2024-11-08T23:00:00	2	Temperatura media	16.7
30562	7	Sololá	701	Sololá	1	Sololá	6	Junio	2023-06-19T00:00:00	2024-11-08T23:00:00	4	Temperatura máxima	16.7
30563	7	Sololá	701	Sololá	1	Sololá	6	Junio	2023-06-19T00:00:00	2024-11-08T23:00:00	3	Temperatura mínima	16.3
30564	7	Sololá	701	Sololá	1	Sololá	6	Junio	2023-06-19T00:00:00	2024-11-08T23:00:00	5	Humedad	94
30565	7	Sololá	701	Sololá	1	Sololá	6	Junio	2023-06-19T00:00:00	2024-11-08T23:00:00	6	Velocidad del viento	0
30566	7	Sololá	701	Sololá	1	Sololá	6	Junio	2023-06-19T00:00:00	2024-11-08T23:00:00	7	Dirección del viento	0
30567	7	Sololá	701	Sololá	1	Sololá	6	Junio	2023-06-19T00:00:00	2024-11-08T23:00:00	1	Precipitación	0
30568	7	Sololá	701	Sololá	1	Sololá	6	Junio	2023-06-19T00:00:00	2024-11-08T23:00:00	8	Radiación solar	0
30569	7	Sololá	701	Sololá	1	Sololá	6	Junio	2023-06-20T00:00:00	2024-11-08T00:00:00	2	Temperatura media	16.6
30570	7	Sololá	701	Sololá	1	Sololá	6	Junio	2023-06-20T00:00:00	2024-11-08T00:00:00	4	Temperatura máxima	16.7
30571	7	Sololá	701	Sololá	1	Sololá	6	Junio	2023-06-20T00:00:00	2024-11-08T00:00:00	3	Temperatura mínima	16.6
30572	7	Sololá	701	Sololá	1	Sololá	6	Junio	2023-06-20T00:00:00	2024-11-08T00:00:00	5	Humedad	95
30573	7	Sololá	701	Sololá	1	Sololá	6	Junio	2023-06-20T00:00:00	2024-11-08T00:00:00	6	Velocidad del viento	0
30574	7	Sololá	701	Sololá	1	Sololá	6	Junio	2023-06-20T00:00:00	2024-11-08T00:00:00	7	Dirección del viento	0
30575	7	Sololá	701	Sololá	1	Sololá	6	Junio	2023-06-20T00:00:00	2024-11-08T00:00:00	1	Precipitación	0
30576	7	Sololá	701	Sololá	1	Sololá	6	Junio	2023-06-20T00:00:00	2024-11-08T00:00:00	8	Radiación solar	0
30577	7	Sololá	701	Sololá	1	Sololá	6	Junio	2023-06-20T00:00:00	2024-11-08T01:00:00	2	Temperatura media	16.2
30578	7	Sololá	701	Sololá	1	Sololá	6	Junio	2023-06-20T00:00:00	2024-11-08T01:00:00	4	Temperatura máxima	16.7
30579	7	Sololá	701	Sololá	1	Sololá	6	Junio	2023-06-20T00:00:00	2024-11-08T01:00:00	3	Temperatura mínima	16.2
30580	7	Sololá	701	Sololá	1	Sololá	6	Junio	2023-06-20T00:00:00	2024-11-08T01:00:00	5	Humedad	95
30581	7	Sololá	701	Sololá	1	Sololá	6	Junio	2023-06-20T00:00:00	2024-11-08T01:00:00	6	Velocidad del viento	0
30582	7	Sololá	701	Sololá	1	Sololá	6	Junio	2023-06-20T00:00:00	2024-11-08T01:00:00	7	Dirección del viento	0
30583	7	Sololá	701	Sololá	1	Sololá	6	Junio	2023-06-20T00:00:00	2024-11-08T01:00:00	1	Precipitación	0
30584	7	Sololá	701	Sololá	1	Sololá	6	Junio	2023-06-20T00:00:00	2024-11-08T01:00:00	8	Radiación solar	0
30585	7	Sololá	701	Sololá	1	Sololá	6	Junio	2023-06-20T00:00:00	2024-11-08T02:00:00	2	Temperatura media	15.9
30586	7	Sololá	701	Sololá	1	Sololá	6	Junio	2023-06-20T00:00:00	2024-11-08T02:00:00	4	Temperatura máxima	16.2
30587	7	Sololá	701	Sololá	1	Sololá	6	Junio	2023-06-20T00:00:00	2024-11-08T02:00:00	3	Temperatura mínima	15.9
30588	7	Sololá	701	Sololá	1	Sololá	6	Junio	2023-06-20T00:00:00	2024-11-08T02:00:00	5	Humedad	96
30589	7	Sololá	701	Sololá	1	Sololá	6	Junio	2023-06-20T00:00:00	2024-11-08T02:00:00	6	Velocidad del viento	0
30590	7	Sololá	701	Sololá	1	Sololá	6	Junio	2023-06-20T00:00:00	2024-11-08T02:00:00	7	Dirección del viento	0
30591	7	Sololá	701	Sololá	1	Sololá	6	Junio	2023-06-20T00:00:00	2024-11-08T02:00:00	1	Precipitación	0
30592	7	Sololá	701	Sololá	1	Sololá	6	Junio	2023-06-20T00:00:00	2024-11-08T02:00:00	8	Radiación solar	0
30593	7	Sololá	701	Sololá	1	Sololá	6	Junio	2023-06-20T00:00:00	2024-11-08T03:00:00	2	Temperatura media	15.9
30594	7	Sololá	701	Sololá	1	Sololá	6	Junio	2023-06-20T00:00:00	2024-11-08T03:00:00	4	Temperatura máxima	16
30595	7	Sololá	701	Sololá	1	Sololá	6	Junio	2023-06-20T00:00:00	2024-11-08T03:00:00	3	Temperatura mínima	15.9
30596	7	Sololá	701	Sololá	1	Sololá	6	Junio	2023-06-20T00:00:00	2024-11-08T03:00:00	5	Humedad	96
30597	7	Sololá	701	Sololá	1	Sololá	6	Junio	2023-06-20T00:00:00	2024-11-08T03:00:00	6	Velocidad del viento	0
30598	7	Sololá	701	Sololá	1	Sololá	6	Junio	2023-06-20T00:00:00	2024-11-08T03:00:00	7	Dirección del viento	0
30599	7	Sololá	701	Sololá	1	Sololá	6	Junio	2023-06-20T00:00:00	2024-11-08T03:00:00	1	Precipitación	0
30600	7	Sololá	701	Sololá	1	Sololá	6	Junio	2023-06-20T00:00:00	2024-11-08T03:00:00	8	Radiación solar	0
30601	7	Sololá	701	Sololá	1	Sololá	6	Junio	2023-06-20T00:00:00	2024-11-08T04:00:00	2	Temperatura media	15.8
30602	7	Sololá	701	Sololá	1	Sololá	6	Junio	2023-06-20T00:00:00	2024-11-08T04:00:00	4	Temperatura máxima	15.9
30603	7	Sololá	701	Sololá	1	Sololá	6	Junio	2023-06-20T00:00:00	2024-11-08T04:00:00	3	Temperatura mínima	15.8
30604	7	Sololá	701	Sololá	1	Sololá	6	Junio	2023-06-20T00:00:00	2024-11-08T04:00:00	5	Humedad	96
30605	7	Sololá	701	Sololá	1	Sololá	6	Junio	2023-06-20T00:00:00	2024-11-08T04:00:00	6	Velocidad del viento	0
30606	7	Sololá	701	Sololá	1	Sololá	6	Junio	2023-06-20T00:00:00	2024-11-08T04:00:00	7	Dirección del viento	0
30607	7	Sololá	701	Sololá	1	Sololá	6	Junio	2023-06-20T00:00:00	2024-11-08T04:00:00	1	Precipitación	0
30608	7	Sololá	701	Sololá	1	Sololá	6	Junio	2023-06-20T00:00:00	2024-11-08T04:00:00	8	Radiación solar	0
30609	7	Sololá	701	Sololá	1	Sololá	6	Junio	2023-06-20T00:00:00	2024-11-08T05:00:00	2	Temperatura media	15.7
30610	7	Sololá	701	Sololá	1	Sololá	6	Junio	2023-06-20T00:00:00	2024-11-08T05:00:00	4	Temperatura máxima	15.9
30611	7	Sololá	701	Sololá	1	Sololá	6	Junio	2023-06-20T00:00:00	2024-11-08T05:00:00	3	Temperatura mínima	15.7
30612	7	Sololá	701	Sololá	1	Sololá	6	Junio	2023-06-20T00:00:00	2024-11-08T05:00:00	5	Humedad	96
30613	7	Sololá	701	Sololá	1	Sololá	6	Junio	2023-06-20T00:00:00	2024-11-08T05:00:00	6	Velocidad del viento	0
30614	7	Sololá	701	Sololá	1	Sololá	6	Junio	2023-06-20T00:00:00	2024-11-08T05:00:00	7	Dirección del viento	0
30615	7	Sololá	701	Sololá	1	Sololá	6	Junio	2023-06-20T00:00:00	2024-11-08T05:00:00	1	Precipitación	0
30616	7	Sololá	701	Sololá	1	Sololá	6	Junio	2023-06-20T00:00:00	2024-11-08T05:00:00	8	Radiación solar	0
30617	7	Sololá	701	Sololá	1	Sololá	6	Junio	2023-06-20T00:00:00	2024-11-08T06:00:00	2	Temperatura media	15.6
30618	7	Sololá	701	Sololá	1	Sololá	6	Junio	2023-06-20T00:00:00	2024-11-08T06:00:00	4	Temperatura máxima	15.8
30619	7	Sololá	701	Sololá	1	Sololá	6	Junio	2023-06-20T00:00:00	2024-11-08T06:00:00	3	Temperatura mínima	15.6
30620	7	Sololá	701	Sololá	1	Sololá	6	Junio	2023-06-20T00:00:00	2024-11-08T06:00:00	5	Humedad	96
30621	7	Sololá	701	Sololá	1	Sololá	6	Junio	2023-06-20T00:00:00	2024-11-08T06:00:00	6	Velocidad del viento	0
30622	7	Sololá	701	Sololá	1	Sololá	6	Junio	2023-06-20T00:00:00	2024-11-08T06:00:00	7	Dirección del viento	0
30623	7	Sololá	701	Sololá	1	Sololá	6	Junio	2023-06-20T00:00:00	2024-11-08T06:00:00	1	Precipitación	0
30624	7	Sololá	701	Sololá	1	Sololá	6	Junio	2023-06-20T00:00:00	2024-11-08T06:00:00	8	Radiación solar	0
30625	7	Sololá	701	Sololá	1	Sololá	6	Junio	2023-06-20T00:00:00	2024-11-08T07:00:00	2	Temperatura media	15.9
30626	7	Sololá	701	Sololá	1	Sololá	6	Junio	2023-06-20T00:00:00	2024-11-08T07:00:00	4	Temperatura máxima	15.9
30627	7	Sololá	701	Sololá	1	Sololá	6	Junio	2023-06-20T00:00:00	2024-11-08T07:00:00	3	Temperatura mínima	15.5
30628	7	Sololá	701	Sololá	1	Sololá	6	Junio	2023-06-20T00:00:00	2024-11-08T07:00:00	5	Humedad	96
30629	7	Sololá	701	Sololá	1	Sololá	6	Junio	2023-06-20T00:00:00	2024-11-08T07:00:00	6	Velocidad del viento	0
30630	7	Sololá	701	Sololá	1	Sololá	6	Junio	2023-06-20T00:00:00	2024-11-08T07:00:00	7	Dirección del viento	0
30631	7	Sololá	701	Sololá	1	Sololá	6	Junio	2023-06-20T00:00:00	2024-11-08T07:00:00	1	Precipitación	0
30632	7	Sololá	701	Sololá	1	Sololá	6	Junio	2023-06-20T00:00:00	2024-11-08T07:00:00	8	Radiación solar	19
30633	7	Sololá	701	Sololá	1	Sololá	6	Junio	2023-06-20T00:00:00	2024-11-08T08:00:00	2	Temperatura media	17
30634	7	Sololá	701	Sololá	1	Sololá	6	Junio	2023-06-20T00:00:00	2024-11-08T08:00:00	4	Temperatura máxima	17
30635	7	Sololá	701	Sololá	1	Sololá	6	Junio	2023-06-20T00:00:00	2024-11-08T08:00:00	3	Temperatura mínima	15.9
30636	7	Sololá	701	Sololá	1	Sololá	6	Junio	2023-06-20T00:00:00	2024-11-08T08:00:00	5	Humedad	93
30637	7	Sololá	701	Sololá	1	Sololá	6	Junio	2023-06-20T00:00:00	2024-11-08T08:00:00	6	Velocidad del viento	0
30638	7	Sololá	701	Sololá	1	Sololá	6	Junio	2023-06-20T00:00:00	2024-11-08T08:00:00	7	Dirección del viento	0
30639	7	Sololá	701	Sololá	1	Sololá	6	Junio	2023-06-20T00:00:00	2024-11-08T08:00:00	1	Precipitación	0
30640	7	Sololá	701	Sololá	1	Sololá	6	Junio	2023-06-20T00:00:00	2024-11-08T08:00:00	8	Radiación solar	83
30641	7	Sololá	701	Sololá	1	Sololá	6	Junio	2023-06-20T00:00:00	2024-11-08T09:00:00	2	Temperatura media	18.3
30642	7	Sololá	701	Sololá	1	Sololá	6	Junio	2023-06-20T00:00:00	2024-11-08T09:00:00	4	Temperatura máxima	18.3
30643	7	Sololá	701	Sololá	1	Sololá	6	Junio	2023-06-20T00:00:00	2024-11-08T09:00:00	3	Temperatura mínima	16.9
30644	7	Sololá	701	Sololá	1	Sololá	6	Junio	2023-06-20T00:00:00	2024-11-08T09:00:00	5	Humedad	91
30645	7	Sololá	701	Sololá	1	Sololá	6	Junio	2023-06-20T00:00:00	2024-11-08T09:00:00	6	Velocidad del viento	0
30646	7	Sololá	701	Sololá	1	Sololá	6	Junio	2023-06-20T00:00:00	2024-11-08T09:00:00	7	Dirección del viento	0
30647	7	Sololá	701	Sololá	1	Sololá	6	Junio	2023-06-20T00:00:00	2024-11-08T09:00:00	1	Precipitación	0
30648	7	Sololá	701	Sololá	1	Sololá	6	Junio	2023-06-20T00:00:00	2024-11-08T09:00:00	8	Radiación solar	157
30649	7	Sololá	701	Sololá	1	Sololá	6	Junio	2023-06-20T00:00:00	2024-11-08T10:00:00	2	Temperatura media	19.2
30650	7	Sololá	701	Sololá	1	Sololá	6	Junio	2023-06-20T00:00:00	2024-11-08T10:00:00	4	Temperatura máxima	19.2
30651	7	Sololá	701	Sololá	1	Sololá	6	Junio	2023-06-20T00:00:00	2024-11-08T10:00:00	3	Temperatura mínima	18.2
30652	7	Sololá	701	Sololá	1	Sololá	6	Junio	2023-06-20T00:00:00	2024-11-08T10:00:00	5	Humedad	87
30653	7	Sololá	701	Sololá	1	Sololá	6	Junio	2023-06-20T00:00:00	2024-11-08T10:00:00	6	Velocidad del viento	0
30654	7	Sololá	701	Sololá	1	Sololá	6	Junio	2023-06-20T00:00:00	2024-11-08T10:00:00	7	Dirección del viento	0
30655	7	Sololá	701	Sololá	1	Sololá	6	Junio	2023-06-20T00:00:00	2024-11-08T10:00:00	1	Precipitación	0
30656	7	Sololá	701	Sololá	1	Sololá	6	Junio	2023-06-20T00:00:00	2024-11-08T10:00:00	8	Radiación solar	161
30657	7	Sololá	701	Sololá	1	Sololá	6	Junio	2023-06-20T00:00:00	2024-11-08T11:00:00	2	Temperatura media	19.2
30658	7	Sololá	701	Sololá	1	Sololá	6	Junio	2023-06-20T00:00:00	2024-11-08T11:00:00	4	Temperatura máxima	19.2
30659	7	Sololá	701	Sololá	1	Sololá	6	Junio	2023-06-20T00:00:00	2024-11-08T11:00:00	3	Temperatura mínima	18.8
30660	7	Sololá	701	Sololá	1	Sololá	6	Junio	2023-06-20T00:00:00	2024-11-08T11:00:00	5	Humedad	87
30661	7	Sololá	701	Sololá	1	Sololá	6	Junio	2023-06-20T00:00:00	2024-11-08T11:00:00	6	Velocidad del viento	0
30662	7	Sololá	701	Sololá	1	Sololá	6	Junio	2023-06-20T00:00:00	2024-11-08T11:00:00	7	Dirección del viento	0
30663	7	Sololá	701	Sololá	1	Sololá	6	Junio	2023-06-20T00:00:00	2024-11-08T11:00:00	1	Precipitación	0
30664	7	Sololá	701	Sololá	1	Sololá	6	Junio	2023-06-20T00:00:00	2024-11-08T11:00:00	8	Radiación solar	162
30665	7	Sololá	701	Sololá	1	Sololá	6	Junio	2023-06-20T00:00:00	2024-11-08T12:00:00	2	Temperatura media	19.4
30666	7	Sololá	701	Sololá	1	Sololá	6	Junio	2023-06-20T00:00:00	2024-11-08T12:00:00	4	Temperatura máxima	19.8
30667	7	Sololá	701	Sololá	1	Sololá	6	Junio	2023-06-20T00:00:00	2024-11-08T12:00:00	3	Temperatura mínima	19.2
30668	7	Sololá	701	Sololá	1	Sololá	6	Junio	2023-06-20T00:00:00	2024-11-08T12:00:00	5	Humedad	86
30669	7	Sololá	701	Sololá	1	Sololá	6	Junio	2023-06-20T00:00:00	2024-11-08T12:00:00	6	Velocidad del viento	0
30670	7	Sololá	701	Sololá	1	Sololá	6	Junio	2023-06-20T00:00:00	2024-11-08T12:00:00	7	Dirección del viento	0
30671	7	Sololá	701	Sololá	1	Sololá	6	Junio	2023-06-20T00:00:00	2024-11-08T12:00:00	1	Precipitación	0
30672	7	Sololá	701	Sololá	1	Sololá	6	Junio	2023-06-20T00:00:00	2024-11-08T12:00:00	8	Radiación solar	188
30673	7	Sololá	701	Sololá	1	Sololá	6	Junio	2023-06-20T00:00:00	2024-11-08T13:00:00	2	Temperatura media	18.9
30674	7	Sololá	701	Sololá	1	Sololá	6	Junio	2023-06-20T00:00:00	2024-11-08T13:00:00	4	Temperatura máxima	19.4
30675	7	Sololá	701	Sololá	1	Sololá	6	Junio	2023-06-20T00:00:00	2024-11-08T13:00:00	3	Temperatura mínima	18.8
30676	7	Sololá	701	Sololá	1	Sololá	6	Junio	2023-06-20T00:00:00	2024-11-08T13:00:00	5	Humedad	91
30677	7	Sololá	701	Sololá	1	Sololá	6	Junio	2023-06-20T00:00:00	2024-11-08T13:00:00	6	Velocidad del viento	0
30678	7	Sololá	701	Sololá	1	Sololá	6	Junio	2023-06-20T00:00:00	2024-11-08T13:00:00	7	Dirección del viento	0
30679	7	Sololá	701	Sololá	1	Sololá	6	Junio	2023-06-20T00:00:00	2024-11-08T13:00:00	1	Precipitación	0
30680	7	Sololá	701	Sololá	1	Sololá	6	Junio	2023-06-20T00:00:00	2024-11-08T13:00:00	8	Radiación solar	110
30681	7	Sololá	701	Sololá	1	Sololá	6	Junio	2023-06-20T00:00:00	2024-11-08T14:00:00	2	Temperatura media	19.2
30682	7	Sololá	701	Sololá	1	Sololá	6	Junio	2023-06-20T00:00:00	2024-11-08T14:00:00	4	Temperatura máxima	19.2
30683	7	Sololá	701	Sololá	1	Sololá	6	Junio	2023-06-20T00:00:00	2024-11-08T14:00:00	3	Temperatura mínima	18.8
30684	7	Sololá	701	Sololá	1	Sololá	6	Junio	2023-06-20T00:00:00	2024-11-08T14:00:00	5	Humedad	92
30685	7	Sololá	701	Sololá	1	Sololá	6	Junio	2023-06-20T00:00:00	2024-11-08T14:00:00	6	Velocidad del viento	0
30686	7	Sololá	701	Sololá	1	Sololá	6	Junio	2023-06-20T00:00:00	2024-11-08T14:00:00	7	Dirección del viento	0
30687	7	Sololá	701	Sololá	1	Sololá	6	Junio	2023-06-20T00:00:00	2024-11-08T14:00:00	1	Precipitación	0
30688	7	Sololá	701	Sololá	1	Sololá	6	Junio	2023-06-20T00:00:00	2024-11-08T14:00:00	8	Radiación solar	172
30689	7	Sololá	701	Sololá	1	Sololá	6	Junio	2023-06-20T00:00:00	2024-11-08T15:00:00	2	Temperatura media	19.1
30690	7	Sololá	701	Sololá	1	Sololá	6	Junio	2023-06-20T00:00:00	2024-11-08T15:00:00	4	Temperatura máxima	19.7
30691	7	Sololá	701	Sololá	1	Sololá	6	Junio	2023-06-20T00:00:00	2024-11-08T15:00:00	3	Temperatura mínima	19.1
30692	7	Sololá	701	Sololá	1	Sololá	6	Junio	2023-06-20T00:00:00	2024-11-08T15:00:00	5	Humedad	90
30693	7	Sololá	701	Sololá	1	Sololá	6	Junio	2023-06-20T00:00:00	2024-11-08T15:00:00	6	Velocidad del viento	0
30694	7	Sololá	701	Sololá	1	Sololá	6	Junio	2023-06-20T00:00:00	2024-11-08T15:00:00	7	Dirección del viento	0
30695	7	Sololá	701	Sololá	1	Sololá	6	Junio	2023-06-20T00:00:00	2024-11-08T15:00:00	1	Precipitación	0
30696	7	Sololá	701	Sololá	1	Sololá	6	Junio	2023-06-20T00:00:00	2024-11-08T15:00:00	8	Radiación solar	139
30697	7	Sololá	701	Sololá	1	Sololá	6	Junio	2023-06-20T00:00:00	2024-11-08T16:00:00	2	Temperatura media	18.3
30698	7	Sololá	701	Sololá	1	Sololá	6	Junio	2023-06-20T00:00:00	2024-11-08T16:00:00	4	Temperatura máxima	19.2
30699	7	Sololá	701	Sololá	1	Sololá	6	Junio	2023-06-20T00:00:00	2024-11-08T16:00:00	3	Temperatura mínima	18.3
30700	7	Sololá	701	Sololá	1	Sololá	6	Junio	2023-06-20T00:00:00	2024-11-08T16:00:00	5	Humedad	92
30701	7	Sololá	701	Sololá	1	Sololá	6	Junio	2023-06-20T00:00:00	2024-11-08T16:00:00	6	Velocidad del viento	0
30702	7	Sololá	701	Sololá	1	Sololá	6	Junio	2023-06-20T00:00:00	2024-11-08T16:00:00	7	Dirección del viento	0
30703	7	Sololá	701	Sololá	1	Sololá	6	Junio	2023-06-20T00:00:00	2024-11-08T16:00:00	1	Precipitación	0
30704	7	Sololá	701	Sololá	1	Sololá	6	Junio	2023-06-20T00:00:00	2024-11-08T16:00:00	8	Radiación solar	54
30705	7	Sololá	701	Sololá	1	Sololá	6	Junio	2023-06-20T00:00:00	2024-11-08T17:00:00	2	Temperatura media	17.6
30706	7	Sololá	701	Sololá	1	Sololá	6	Junio	2023-06-20T00:00:00	2024-11-08T17:00:00	4	Temperatura máxima	18.3
30707	7	Sololá	701	Sololá	1	Sololá	6	Junio	2023-06-20T00:00:00	2024-11-08T17:00:00	3	Temperatura mínima	17.6
30708	7	Sololá	701	Sololá	1	Sololá	6	Junio	2023-06-20T00:00:00	2024-11-08T17:00:00	5	Humedad	93
30709	7	Sololá	701	Sololá	1	Sololá	6	Junio	2023-06-20T00:00:00	2024-11-08T17:00:00	6	Velocidad del viento	0
30710	7	Sololá	701	Sololá	1	Sololá	6	Junio	2023-06-20T00:00:00	2024-11-08T17:00:00	7	Dirección del viento	0
30711	7	Sololá	701	Sololá	1	Sololá	6	Junio	2023-06-20T00:00:00	2024-11-08T17:00:00	1	Precipitación	0
30712	7	Sololá	701	Sololá	1	Sololá	6	Junio	2023-06-20T00:00:00	2024-11-08T17:00:00	8	Radiación solar	25
30713	7	Sololá	701	Sololá	1	Sololá	6	Junio	2023-06-20T00:00:00	2024-11-08T18:00:00	2	Temperatura media	15.5
30714	7	Sololá	701	Sololá	1	Sololá	6	Junio	2023-06-20T00:00:00	2024-11-08T18:00:00	4	Temperatura máxima	17.6
30715	7	Sololá	701	Sololá	1	Sololá	6	Junio	2023-06-20T00:00:00	2024-11-08T18:00:00	3	Temperatura mínima	15.5
30716	7	Sololá	701	Sololá	1	Sololá	6	Junio	2023-06-20T00:00:00	2024-11-08T18:00:00	5	Humedad	95
30717	7	Sololá	701	Sololá	1	Sololá	6	Junio	2023-06-20T00:00:00	2024-11-08T18:00:00	6	Velocidad del viento	0
30718	7	Sololá	701	Sololá	1	Sololá	6	Junio	2023-06-20T00:00:00	2024-11-08T18:00:00	7	Dirección del viento	0
30719	7	Sololá	701	Sololá	1	Sololá	6	Junio	2023-06-20T00:00:00	2024-11-08T18:00:00	1	Precipitación	3.4
30720	7	Sololá	701	Sololá	1	Sololá	6	Junio	2023-06-20T00:00:00	2024-11-08T18:00:00	8	Radiación solar	1
30721	7	Sololá	701	Sololá	1	Sololá	6	Junio	2023-06-20T00:00:00	2024-11-08T19:00:00	2	Temperatura media	14.7
30722	7	Sololá	701	Sololá	1	Sololá	6	Junio	2023-06-20T00:00:00	2024-11-08T19:00:00	4	Temperatura máxima	15.5
30723	7	Sololá	701	Sololá	1	Sololá	6	Junio	2023-06-20T00:00:00	2024-11-08T19:00:00	3	Temperatura mínima	14.7
30724	7	Sololá	701	Sololá	1	Sololá	6	Junio	2023-06-20T00:00:00	2024-11-08T19:00:00	5	Humedad	96
30725	7	Sololá	701	Sololá	1	Sololá	6	Junio	2023-06-20T00:00:00	2024-11-08T19:00:00	6	Velocidad del viento	0
30726	7	Sololá	701	Sololá	1	Sololá	6	Junio	2023-06-20T00:00:00	2024-11-08T19:00:00	7	Dirección del viento	0
30727	7	Sololá	701	Sololá	1	Sololá	6	Junio	2023-06-20T00:00:00	2024-11-08T19:00:00	1	Precipitación	4.2
30728	7	Sololá	701	Sololá	1	Sololá	6	Junio	2023-06-20T00:00:00	2024-11-08T19:00:00	8	Radiación solar	0
30729	7	Sololá	701	Sololá	1	Sololá	6	Junio	2023-06-20T00:00:00	2024-11-08T20:00:00	2	Temperatura media	14.7
30730	7	Sololá	701	Sololá	1	Sololá	6	Junio	2023-06-20T00:00:00	2024-11-08T20:00:00	4	Temperatura máxima	14.8
30731	7	Sololá	701	Sololá	1	Sololá	6	Junio	2023-06-20T00:00:00	2024-11-08T20:00:00	3	Temperatura mínima	14.7
30732	7	Sololá	701	Sololá	1	Sololá	6	Junio	2023-06-20T00:00:00	2024-11-08T20:00:00	5	Humedad	97
30733	7	Sololá	701	Sololá	1	Sololá	6	Junio	2023-06-20T00:00:00	2024-11-08T20:00:00	6	Velocidad del viento	0
30734	7	Sololá	701	Sololá	1	Sololá	6	Junio	2023-06-20T00:00:00	2024-11-08T20:00:00	7	Dirección del viento	0
30735	7	Sololá	701	Sololá	1	Sololá	6	Junio	2023-06-20T00:00:00	2024-11-08T20:00:00	1	Precipitación	1.4
30736	7	Sololá	701	Sololá	1	Sololá	6	Junio	2023-06-20T00:00:00	2024-11-08T20:00:00	8	Radiación solar	0
30737	7	Sololá	701	Sololá	1	Sololá	6	Junio	2023-06-20T00:00:00	2024-11-08T21:00:00	2	Temperatura media	14.6
30738	7	Sololá	701	Sololá	1	Sololá	6	Junio	2023-06-20T00:00:00	2024-11-08T21:00:00	4	Temperatura máxima	14.7
30739	7	Sololá	701	Sololá	1	Sololá	6	Junio	2023-06-20T00:00:00	2024-11-08T21:00:00	3	Temperatura mínima	14.5
30740	7	Sololá	701	Sololá	1	Sololá	6	Junio	2023-06-20T00:00:00	2024-11-08T21:00:00	5	Humedad	97
30741	7	Sololá	701	Sololá	1	Sololá	6	Junio	2023-06-20T00:00:00	2024-11-08T21:00:00	6	Velocidad del viento	0
30742	7	Sololá	701	Sololá	1	Sololá	6	Junio	2023-06-20T00:00:00	2024-11-08T21:00:00	7	Dirección del viento	0
30743	7	Sololá	701	Sololá	1	Sololá	6	Junio	2023-06-20T00:00:00	2024-11-08T21:00:00	1	Precipitación	1
30744	7	Sololá	701	Sololá	1	Sololá	6	Junio	2023-06-20T00:00:00	2024-11-08T21:00:00	8	Radiación solar	0
30745	7	Sololá	701	Sololá	1	Sololá	6	Junio	2023-06-20T00:00:00	2024-11-08T22:00:00	2	Temperatura media	14.4
30746	7	Sololá	701	Sololá	1	Sololá	6	Junio	2023-06-20T00:00:00	2024-11-08T22:00:00	4	Temperatura máxima	14.7
30747	7	Sololá	701	Sololá	1	Sololá	6	Junio	2023-06-20T00:00:00	2024-11-08T22:00:00	3	Temperatura mínima	14.4
30748	7	Sololá	701	Sololá	1	Sololá	6	Junio	2023-06-20T00:00:00	2024-11-08T22:00:00	5	Humedad	97
30749	7	Sololá	701	Sololá	1	Sololá	6	Junio	2023-06-20T00:00:00	2024-11-08T22:00:00	6	Velocidad del viento	0
30750	7	Sololá	701	Sololá	1	Sololá	6	Junio	2023-06-20T00:00:00	2024-11-08T22:00:00	7	Dirección del viento	0
30751	7	Sololá	701	Sololá	1	Sololá	6	Junio	2023-06-20T00:00:00	2024-11-08T22:00:00	1	Precipitación	0.4
30752	7	Sololá	701	Sololá	1	Sololá	6	Junio	2023-06-20T00:00:00	2024-11-08T22:00:00	8	Radiación solar	0
30753	7	Sololá	701	Sololá	1	Sololá	6	Junio	2023-06-20T00:00:00	2024-11-08T23:00:00	2	Temperatura media	14.3
30754	7	Sololá	701	Sololá	1	Sololá	6	Junio	2023-06-20T00:00:00	2024-11-08T23:00:00	4	Temperatura máxima	14.4
30755	7	Sololá	701	Sololá	1	Sololá	6	Junio	2023-06-20T00:00:00	2024-11-08T23:00:00	3	Temperatura mínima	14.3
30756	7	Sololá	701	Sololá	1	Sololá	6	Junio	2023-06-20T00:00:00	2024-11-08T23:00:00	5	Humedad	97
30757	7	Sololá	701	Sololá	1	Sololá	6	Junio	2023-06-20T00:00:00	2024-11-08T23:00:00	6	Velocidad del viento	0
30758	7	Sololá	701	Sololá	1	Sololá	6	Junio	2023-06-20T00:00:00	2024-11-08T23:00:00	7	Dirección del viento	0
30759	7	Sololá	701	Sololá	1	Sololá	6	Junio	2023-06-20T00:00:00	2024-11-08T23:00:00	1	Precipitación	1.8
30760	7	Sololá	701	Sololá	1	Sololá	6	Junio	2023-06-20T00:00:00	2024-11-08T23:00:00	8	Radiación solar	0
30761	7	Sololá	701	Sololá	1	Sololá	6	Junio	2023-06-21T00:00:00	2024-11-08T00:00:00	2	Temperatura media	14.3
30762	7	Sololá	701	Sololá	1	Sololá	6	Junio	2023-06-21T00:00:00	2024-11-08T00:00:00	4	Temperatura máxima	14.3
30763	7	Sololá	701	Sololá	1	Sololá	6	Junio	2023-06-21T00:00:00	2024-11-08T00:00:00	3	Temperatura mínima	14.3
30764	7	Sololá	701	Sololá	1	Sololá	6	Junio	2023-06-21T00:00:00	2024-11-08T00:00:00	5	Humedad	97
30765	7	Sololá	701	Sololá	1	Sololá	6	Junio	2023-06-21T00:00:00	2024-11-08T00:00:00	6	Velocidad del viento	0
30766	7	Sololá	701	Sololá	1	Sololá	6	Junio	2023-06-21T00:00:00	2024-11-08T00:00:00	7	Dirección del viento	0
30767	7	Sololá	701	Sololá	1	Sololá	6	Junio	2023-06-21T00:00:00	2024-11-08T00:00:00	1	Precipitación	0
30768	7	Sololá	701	Sololá	1	Sololá	6	Junio	2023-06-21T00:00:00	2024-11-08T00:00:00	8	Radiación solar	0
30769	7	Sololá	701	Sololá	1	Sololá	6	Junio	2023-06-21T00:00:00	2024-11-08T01:00:00	2	Temperatura media	14.3
30770	7	Sololá	701	Sololá	1	Sololá	6	Junio	2023-06-21T00:00:00	2024-11-08T01:00:00	4	Temperatura máxima	14.3
30771	7	Sololá	701	Sololá	1	Sololá	6	Junio	2023-06-21T00:00:00	2024-11-08T01:00:00	3	Temperatura mínima	14.3
30772	7	Sololá	701	Sololá	1	Sololá	6	Junio	2023-06-21T00:00:00	2024-11-08T01:00:00	5	Humedad	97
30773	7	Sololá	701	Sololá	1	Sololá	6	Junio	2023-06-21T00:00:00	2024-11-08T01:00:00	6	Velocidad del viento	0
30774	7	Sololá	701	Sololá	1	Sololá	6	Junio	2023-06-21T00:00:00	2024-11-08T01:00:00	7	Dirección del viento	0
30775	7	Sololá	701	Sololá	1	Sololá	6	Junio	2023-06-21T00:00:00	2024-11-08T01:00:00	1	Precipitación	0
30776	7	Sololá	701	Sololá	1	Sololá	6	Junio	2023-06-21T00:00:00	2024-11-08T01:00:00	8	Radiación solar	0
30777	7	Sololá	701	Sololá	1	Sololá	6	Junio	2023-06-21T00:00:00	2024-11-08T02:00:00	2	Temperatura media	14.2
30778	7	Sololá	701	Sololá	1	Sololá	6	Junio	2023-06-21T00:00:00	2024-11-08T02:00:00	4	Temperatura máxima	14.3
30779	7	Sololá	701	Sololá	1	Sololá	6	Junio	2023-06-21T00:00:00	2024-11-08T02:00:00	3	Temperatura mínima	14.2
30780	7	Sololá	701	Sololá	1	Sololá	6	Junio	2023-06-21T00:00:00	2024-11-08T02:00:00	5	Humedad	98
30781	7	Sololá	701	Sololá	1	Sololá	6	Junio	2023-06-21T00:00:00	2024-11-08T02:00:00	6	Velocidad del viento	0
30782	7	Sololá	701	Sololá	1	Sololá	6	Junio	2023-06-21T00:00:00	2024-11-08T02:00:00	7	Dirección del viento	0
30783	7	Sololá	701	Sololá	1	Sololá	6	Junio	2023-06-21T00:00:00	2024-11-08T02:00:00	1	Precipitación	0.2
30784	7	Sololá	701	Sololá	1	Sololá	6	Junio	2023-06-21T00:00:00	2024-11-08T02:00:00	8	Radiación solar	0
30785	7	Sololá	701	Sololá	1	Sololá	6	Junio	2023-06-21T00:00:00	2024-11-08T03:00:00	2	Temperatura media	14.1
30786	7	Sololá	701	Sololá	1	Sololá	6	Junio	2023-06-21T00:00:00	2024-11-08T03:00:00	4	Temperatura máxima	14.3
30787	7	Sololá	701	Sololá	1	Sololá	6	Junio	2023-06-21T00:00:00	2024-11-08T03:00:00	3	Temperatura mínima	14.1
30788	7	Sololá	701	Sololá	1	Sololá	6	Junio	2023-06-21T00:00:00	2024-11-08T03:00:00	5	Humedad	97
30789	7	Sololá	701	Sololá	1	Sololá	6	Junio	2023-06-21T00:00:00	2024-11-08T03:00:00	6	Velocidad del viento	0
30790	7	Sololá	701	Sololá	1	Sololá	6	Junio	2023-06-21T00:00:00	2024-11-08T03:00:00	7	Dirección del viento	0
30791	7	Sololá	701	Sololá	1	Sololá	6	Junio	2023-06-21T00:00:00	2024-11-08T03:00:00	1	Precipitación	0
30792	7	Sololá	701	Sololá	1	Sololá	6	Junio	2023-06-21T00:00:00	2024-11-08T03:00:00	8	Radiación solar	0
30793	7	Sololá	701	Sololá	1	Sololá	6	Junio	2023-06-21T00:00:00	2024-11-08T04:00:00	2	Temperatura media	13.7
30794	7	Sololá	701	Sololá	1	Sololá	6	Junio	2023-06-21T00:00:00	2024-11-08T04:00:00	4	Temperatura máxima	14.1
30795	7	Sololá	701	Sololá	1	Sololá	6	Junio	2023-06-21T00:00:00	2024-11-08T04:00:00	3	Temperatura mínima	13.7
30796	7	Sololá	701	Sololá	1	Sololá	6	Junio	2023-06-21T00:00:00	2024-11-08T04:00:00	5	Humedad	97
30797	7	Sololá	701	Sololá	1	Sololá	6	Junio	2023-06-21T00:00:00	2024-11-08T04:00:00	6	Velocidad del viento	0
30798	7	Sololá	701	Sololá	1	Sololá	6	Junio	2023-06-21T00:00:00	2024-11-08T04:00:00	7	Dirección del viento	0
30799	7	Sololá	701	Sololá	1	Sololá	6	Junio	2023-06-21T00:00:00	2024-11-08T04:00:00	1	Precipitación	0
30800	7	Sololá	701	Sololá	1	Sololá	6	Junio	2023-06-21T00:00:00	2024-11-08T04:00:00	8	Radiación solar	0
30801	7	Sololá	701	Sololá	1	Sololá	6	Junio	2023-06-21T00:00:00	2024-11-08T05:00:00	2	Temperatura media	13.6
30802	7	Sololá	701	Sololá	1	Sololá	6	Junio	2023-06-21T00:00:00	2024-11-08T05:00:00	4	Temperatura máxima	13.8
30803	7	Sololá	701	Sololá	1	Sololá	6	Junio	2023-06-21T00:00:00	2024-11-08T05:00:00	3	Temperatura mínima	13.6
30804	7	Sololá	701	Sololá	1	Sololá	6	Junio	2023-06-21T00:00:00	2024-11-08T05:00:00	5	Humedad	97
30805	7	Sololá	701	Sololá	1	Sololá	6	Junio	2023-06-21T00:00:00	2024-11-08T05:00:00	6	Velocidad del viento	0
30806	7	Sololá	701	Sololá	1	Sololá	6	Junio	2023-06-21T00:00:00	2024-11-08T05:00:00	7	Dirección del viento	0
30807	7	Sololá	701	Sololá	1	Sololá	6	Junio	2023-06-21T00:00:00	2024-11-08T05:00:00	1	Precipitación	0
30808	7	Sololá	701	Sololá	1	Sololá	6	Junio	2023-06-21T00:00:00	2024-11-08T05:00:00	8	Radiación solar	0
30809	7	Sololá	701	Sololá	1	Sololá	6	Junio	2023-06-21T00:00:00	2024-11-08T06:00:00	2	Temperatura media	13.3
30810	7	Sololá	701	Sololá	1	Sololá	6	Junio	2023-06-21T00:00:00	2024-11-08T06:00:00	4	Temperatura máxima	13.6
30811	7	Sololá	701	Sololá	1	Sololá	6	Junio	2023-06-21T00:00:00	2024-11-08T06:00:00	3	Temperatura mínima	13.3
30812	7	Sololá	701	Sololá	1	Sololá	6	Junio	2023-06-21T00:00:00	2024-11-08T06:00:00	5	Humedad	97
30813	7	Sololá	701	Sololá	1	Sololá	6	Junio	2023-06-21T00:00:00	2024-11-08T06:00:00	6	Velocidad del viento	0
30814	7	Sololá	701	Sololá	1	Sololá	6	Junio	2023-06-21T00:00:00	2024-11-08T06:00:00	7	Dirección del viento	0
30815	7	Sololá	701	Sololá	1	Sololá	6	Junio	2023-06-21T00:00:00	2024-11-08T06:00:00	1	Precipitación	0
30816	7	Sololá	701	Sololá	1	Sololá	6	Junio	2023-06-21T00:00:00	2024-11-08T06:00:00	8	Radiación solar	2
30817	7	Sololá	701	Sololá	1	Sololá	6	Junio	2023-06-21T00:00:00	2024-11-08T07:00:00	2	Temperatura media	13.8
30818	7	Sololá	701	Sololá	1	Sololá	6	Junio	2023-06-21T00:00:00	2024-11-08T07:00:00	4	Temperatura máxima	13.8
30819	7	Sololá	701	Sololá	1	Sololá	6	Junio	2023-06-21T00:00:00	2024-11-08T07:00:00	3	Temperatura mínima	13.3
30820	7	Sololá	701	Sololá	1	Sololá	6	Junio	2023-06-21T00:00:00	2024-11-08T07:00:00	5	Humedad	98
30821	7	Sololá	701	Sololá	1	Sololá	6	Junio	2023-06-21T00:00:00	2024-11-08T07:00:00	6	Velocidad del viento	0
30822	7	Sololá	701	Sololá	1	Sololá	6	Junio	2023-06-21T00:00:00	2024-11-08T07:00:00	7	Dirección del viento	0
30823	7	Sololá	701	Sololá	1	Sololá	6	Junio	2023-06-21T00:00:00	2024-11-08T07:00:00	1	Precipitación	0
30824	7	Sololá	701	Sololá	1	Sololá	6	Junio	2023-06-21T00:00:00	2024-11-08T07:00:00	8	Radiación solar	38
30825	7	Sololá	701	Sololá	1	Sololá	6	Junio	2023-06-21T00:00:00	2024-11-08T08:00:00	2	Temperatura media	14.8
30826	7	Sololá	701	Sololá	1	Sololá	6	Junio	2023-06-21T00:00:00	2024-11-08T08:00:00	4	Temperatura máxima	14.8
30827	7	Sololá	701	Sololá	1	Sololá	6	Junio	2023-06-21T00:00:00	2024-11-08T08:00:00	3	Temperatura mínima	13.8
30828	7	Sololá	701	Sololá	1	Sololá	6	Junio	2023-06-21T00:00:00	2024-11-08T08:00:00	5	Humedad	97
30829	7	Sololá	701	Sololá	1	Sololá	6	Junio	2023-06-21T00:00:00	2024-11-08T08:00:00	6	Velocidad del viento	0
30830	7	Sololá	701	Sololá	1	Sololá	6	Junio	2023-06-21T00:00:00	2024-11-08T08:00:00	7	Dirección del viento	0
30831	7	Sololá	701	Sololá	1	Sololá	6	Junio	2023-06-21T00:00:00	2024-11-08T08:00:00	1	Precipitación	0
30832	7	Sololá	701	Sololá	1	Sololá	6	Junio	2023-06-21T00:00:00	2024-11-08T08:00:00	8	Radiación solar	98
30833	7	Sololá	701	Sololá	1	Sololá	6	Junio	2023-06-21T00:00:00	2024-11-08T09:00:00	2	Temperatura media	16.1
30834	7	Sololá	701	Sololá	1	Sololá	6	Junio	2023-06-21T00:00:00	2024-11-08T09:00:00	4	Temperatura máxima	16.1
30835	7	Sololá	701	Sololá	1	Sololá	6	Junio	2023-06-21T00:00:00	2024-11-08T09:00:00	3	Temperatura mínima	14.8
30836	7	Sololá	701	Sololá	1	Sololá	6	Junio	2023-06-21T00:00:00	2024-11-08T09:00:00	5	Humedad	97
30837	7	Sololá	701	Sololá	1	Sololá	6	Junio	2023-06-21T00:00:00	2024-11-08T09:00:00	6	Velocidad del viento	0
30838	7	Sololá	701	Sololá	1	Sololá	6	Junio	2023-06-21T00:00:00	2024-11-08T09:00:00	7	Dirección del viento	0
30839	7	Sololá	701	Sololá	1	Sololá	6	Junio	2023-06-21T00:00:00	2024-11-08T09:00:00	1	Precipitación	0
30840	7	Sololá	701	Sololá	1	Sololá	6	Junio	2023-06-21T00:00:00	2024-11-08T09:00:00	8	Radiación solar	223
30841	7	Sololá	701	Sololá	1	Sololá	6	Junio	2023-06-21T00:00:00	2024-11-08T10:00:00	2	Temperatura media	17.3
30842	7	Sololá	701	Sololá	1	Sololá	6	Junio	2023-06-21T00:00:00	2024-11-08T10:00:00	4	Temperatura máxima	17.3
30843	7	Sololá	701	Sololá	1	Sololá	6	Junio	2023-06-21T00:00:00	2024-11-08T10:00:00	3	Temperatura mínima	16
30844	7	Sololá	701	Sololá	1	Sololá	6	Junio	2023-06-21T00:00:00	2024-11-08T10:00:00	5	Humedad	93
30845	7	Sololá	701	Sololá	1	Sololá	6	Junio	2023-06-21T00:00:00	2024-11-08T10:00:00	6	Velocidad del viento	0
30846	7	Sololá	701	Sololá	1	Sololá	6	Junio	2023-06-21T00:00:00	2024-11-08T10:00:00	7	Dirección del viento	0
30847	7	Sololá	701	Sololá	1	Sololá	6	Junio	2023-06-21T00:00:00	2024-11-08T10:00:00	1	Precipitación	0
30848	7	Sololá	701	Sololá	1	Sololá	6	Junio	2023-06-21T00:00:00	2024-11-08T10:00:00	8	Radiación solar	230
30849	7	Sololá	701	Sololá	1	Sololá	6	Junio	2023-06-21T00:00:00	2024-11-08T11:00:00	2	Temperatura media	18.6
30850	7	Sololá	701	Sololá	1	Sololá	6	Junio	2023-06-21T00:00:00	2024-11-08T11:00:00	4	Temperatura máxima	18.6
30851	7	Sololá	701	Sololá	1	Sololá	6	Junio	2023-06-21T00:00:00	2024-11-08T11:00:00	3	Temperatura mínima	17.2
30852	7	Sololá	701	Sololá	1	Sololá	6	Junio	2023-06-21T00:00:00	2024-11-08T11:00:00	5	Humedad	88
30853	7	Sololá	701	Sololá	1	Sololá	6	Junio	2023-06-21T00:00:00	2024-11-08T11:00:00	6	Velocidad del viento	0
30854	7	Sololá	701	Sololá	1	Sololá	6	Junio	2023-06-21T00:00:00	2024-11-08T11:00:00	7	Dirección del viento	0
30855	7	Sololá	701	Sololá	1	Sololá	6	Junio	2023-06-21T00:00:00	2024-11-08T11:00:00	1	Precipitación	0
30856	7	Sololá	701	Sololá	1	Sololá	6	Junio	2023-06-21T00:00:00	2024-11-08T11:00:00	8	Radiación solar	385
30857	7	Sololá	701	Sololá	1	Sololá	6	Junio	2023-06-21T00:00:00	2024-11-08T12:00:00	2	Temperatura media	19.9
30858	7	Sololá	701	Sololá	1	Sololá	6	Junio	2023-06-21T00:00:00	2024-11-08T12:00:00	4	Temperatura máxima	19.9
30859	7	Sololá	701	Sololá	1	Sololá	6	Junio	2023-06-21T00:00:00	2024-11-08T12:00:00	3	Temperatura mínima	18.5
30860	7	Sololá	701	Sololá	1	Sololá	6	Junio	2023-06-21T00:00:00	2024-11-08T12:00:00	5	Humedad	84
30861	7	Sololá	701	Sololá	1	Sololá	6	Junio	2023-06-21T00:00:00	2024-11-08T12:00:00	6	Velocidad del viento	0
30862	7	Sololá	701	Sololá	1	Sololá	6	Junio	2023-06-21T00:00:00	2024-11-08T12:00:00	7	Dirección del viento	0
30863	7	Sololá	701	Sololá	1	Sololá	6	Junio	2023-06-21T00:00:00	2024-11-08T12:00:00	1	Precipitación	0
30864	7	Sololá	701	Sololá	1	Sololá	6	Junio	2023-06-21T00:00:00	2024-11-08T12:00:00	8	Radiación solar	555
30865	7	Sololá	701	Sololá	1	Sololá	6	Junio	2023-06-21T00:00:00	2024-11-08T13:00:00	2	Temperatura media	20.2
30866	7	Sololá	701	Sololá	1	Sololá	6	Junio	2023-06-21T00:00:00	2024-11-08T13:00:00	4	Temperatura máxima	20.4
30867	7	Sololá	701	Sololá	1	Sololá	6	Junio	2023-06-21T00:00:00	2024-11-08T13:00:00	3	Temperatura mínima	19.9
30868	7	Sololá	701	Sololá	1	Sololá	6	Junio	2023-06-21T00:00:00	2024-11-08T13:00:00	5	Humedad	79
30869	7	Sololá	701	Sololá	1	Sololá	6	Junio	2023-06-21T00:00:00	2024-11-08T13:00:00	6	Velocidad del viento	0
30870	7	Sololá	701	Sololá	1	Sololá	6	Junio	2023-06-21T00:00:00	2024-11-08T13:00:00	7	Dirección del viento	0
30871	7	Sololá	701	Sololá	1	Sololá	6	Junio	2023-06-21T00:00:00	2024-11-08T13:00:00	1	Precipitación	0
30872	7	Sololá	701	Sololá	1	Sololá	6	Junio	2023-06-21T00:00:00	2024-11-08T13:00:00	8	Radiación solar	281
30873	7	Sololá	701	Sololá	1	Sololá	6	Junio	2023-06-21T00:00:00	2024-11-08T14:00:00	2	Temperatura media	20.1
30874	7	Sololá	701	Sololá	1	Sololá	6	Junio	2023-06-21T00:00:00	2024-11-08T14:00:00	4	Temperatura máxima	20.5
30875	7	Sololá	701	Sololá	1	Sololá	6	Junio	2023-06-21T00:00:00	2024-11-08T14:00:00	3	Temperatura mínima	19.7
30876	7	Sololá	701	Sololá	1	Sololá	6	Junio	2023-06-21T00:00:00	2024-11-08T14:00:00	5	Humedad	81
30877	7	Sololá	701	Sololá	1	Sololá	6	Junio	2023-06-21T00:00:00	2024-11-08T14:00:00	6	Velocidad del viento	0
30878	7	Sololá	701	Sololá	1	Sololá	6	Junio	2023-06-21T00:00:00	2024-11-08T14:00:00	7	Dirección del viento	0
30879	7	Sololá	701	Sololá	1	Sololá	6	Junio	2023-06-21T00:00:00	2024-11-08T14:00:00	1	Precipitación	0
30880	7	Sololá	701	Sololá	1	Sololá	6	Junio	2023-06-21T00:00:00	2024-11-08T14:00:00	8	Radiación solar	178
30881	7	Sololá	701	Sololá	1	Sololá	6	Junio	2023-06-21T00:00:00	2024-11-08T15:00:00	2	Temperatura media	18.8
30882	7	Sololá	701	Sololá	1	Sololá	6	Junio	2023-06-21T00:00:00	2024-11-08T15:00:00	4	Temperatura máxima	20.2
30883	7	Sololá	701	Sololá	1	Sololá	6	Junio	2023-06-21T00:00:00	2024-11-08T15:00:00	3	Temperatura mínima	18.8
30884	7	Sololá	701	Sololá	1	Sololá	6	Junio	2023-06-21T00:00:00	2024-11-08T15:00:00	5	Humedad	90
30885	7	Sololá	701	Sololá	1	Sololá	6	Junio	2023-06-21T00:00:00	2024-11-08T15:00:00	6	Velocidad del viento	0
30886	7	Sololá	701	Sololá	1	Sololá	6	Junio	2023-06-21T00:00:00	2024-11-08T15:00:00	7	Dirección del viento	0
30887	7	Sololá	701	Sololá	1	Sololá	6	Junio	2023-06-21T00:00:00	2024-11-08T15:00:00	1	Precipitación	0
30888	7	Sololá	701	Sololá	1	Sololá	6	Junio	2023-06-21T00:00:00	2024-11-08T15:00:00	8	Radiación solar	125
30889	7	Sololá	701	Sololá	1	Sololá	6	Junio	2023-06-21T00:00:00	2024-11-08T16:00:00	2	Temperatura media	17.3
30890	7	Sololá	701	Sololá	1	Sololá	6	Junio	2023-06-21T00:00:00	2024-11-08T16:00:00	4	Temperatura máxima	18.8
30891	7	Sololá	701	Sololá	1	Sololá	6	Junio	2023-06-21T00:00:00	2024-11-08T16:00:00	3	Temperatura mínima	17.3
30892	7	Sololá	701	Sololá	1	Sololá	6	Junio	2023-06-21T00:00:00	2024-11-08T16:00:00	5	Humedad	92
30893	7	Sololá	701	Sololá	1	Sololá	6	Junio	2023-06-21T00:00:00	2024-11-08T16:00:00	6	Velocidad del viento	0
30894	7	Sololá	701	Sololá	1	Sololá	6	Junio	2023-06-21T00:00:00	2024-11-08T16:00:00	7	Dirección del viento	0
30895	7	Sololá	701	Sololá	1	Sololá	6	Junio	2023-06-21T00:00:00	2024-11-08T16:00:00	1	Precipitación	0
30896	7	Sololá	701	Sololá	1	Sololá	6	Junio	2023-06-21T00:00:00	2024-11-08T16:00:00	8	Radiación solar	42
30897	7	Sololá	701	Sololá	1	Sololá	6	Junio	2023-06-21T00:00:00	2024-11-08T17:00:00	2	Temperatura media	15.4
30898	7	Sololá	701	Sololá	1	Sololá	6	Junio	2023-06-21T00:00:00	2024-11-08T17:00:00	4	Temperatura máxima	17.3
30899	7	Sololá	701	Sololá	1	Sololá	6	Junio	2023-06-21T00:00:00	2024-11-08T17:00:00	3	Temperatura mínima	15.4
30900	7	Sololá	701	Sololá	1	Sololá	6	Junio	2023-06-21T00:00:00	2024-11-08T17:00:00	5	Humedad	93
30901	7	Sololá	701	Sololá	1	Sololá	6	Junio	2023-06-21T00:00:00	2024-11-08T17:00:00	6	Velocidad del viento	0
30902	7	Sololá	701	Sololá	1	Sololá	6	Junio	2023-06-21T00:00:00	2024-11-08T17:00:00	7	Dirección del viento	0
30903	7	Sololá	701	Sololá	1	Sololá	6	Junio	2023-06-21T00:00:00	2024-11-08T17:00:00	1	Precipitación	2.6
30904	7	Sololá	701	Sololá	1	Sololá	6	Junio	2023-06-21T00:00:00	2024-11-08T17:00:00	8	Radiación solar	19
30905	7	Sololá	701	Sololá	1	Sololá	6	Junio	2023-06-21T00:00:00	2024-11-08T18:00:00	2	Temperatura media	15.2
30906	7	Sololá	701	Sololá	1	Sololá	6	Junio	2023-06-21T00:00:00	2024-11-08T18:00:00	4	Temperatura máxima	15.4
30907	7	Sololá	701	Sololá	1	Sololá	6	Junio	2023-06-21T00:00:00	2024-11-08T18:00:00	3	Temperatura mínima	15.2
30908	7	Sololá	701	Sololá	1	Sololá	6	Junio	2023-06-21T00:00:00	2024-11-08T18:00:00	5	Humedad	95
30909	7	Sololá	701	Sololá	1	Sololá	6	Junio	2023-06-21T00:00:00	2024-11-08T18:00:00	6	Velocidad del viento	0
30910	7	Sololá	701	Sololá	1	Sololá	6	Junio	2023-06-21T00:00:00	2024-11-08T18:00:00	7	Dirección del viento	0
30911	7	Sololá	701	Sololá	1	Sololá	6	Junio	2023-06-21T00:00:00	2024-11-08T18:00:00	1	Precipitación	0
30912	7	Sololá	701	Sololá	1	Sololá	6	Junio	2023-06-21T00:00:00	2024-11-08T18:00:00	8	Radiación solar	18
30913	7	Sololá	701	Sololá	1	Sololá	6	Junio	2023-06-21T00:00:00	2024-11-08T19:00:00	2	Temperatura media	14.7
30914	7	Sololá	701	Sololá	1	Sololá	6	Junio	2023-06-21T00:00:00	2024-11-08T19:00:00	4	Temperatura máxima	15.2
30915	7	Sololá	701	Sololá	1	Sololá	6	Junio	2023-06-21T00:00:00	2024-11-08T19:00:00	3	Temperatura mínima	14.7
30916	7	Sololá	701	Sololá	1	Sololá	6	Junio	2023-06-21T00:00:00	2024-11-08T19:00:00	5	Humedad	96
30917	7	Sololá	701	Sololá	1	Sololá	6	Junio	2023-06-21T00:00:00	2024-11-08T19:00:00	6	Velocidad del viento	0
30918	7	Sololá	701	Sololá	1	Sololá	6	Junio	2023-06-21T00:00:00	2024-11-08T19:00:00	7	Dirección del viento	0
30919	7	Sololá	701	Sololá	1	Sololá	6	Junio	2023-06-21T00:00:00	2024-11-08T19:00:00	1	Precipitación	0.2
30920	7	Sololá	701	Sololá	1	Sololá	6	Junio	2023-06-21T00:00:00	2024-11-08T19:00:00	8	Radiación solar	0
30921	7	Sololá	701	Sololá	1	Sololá	6	Junio	2023-06-21T00:00:00	2024-11-08T20:00:00	2	Temperatura media	14.6
30922	7	Sololá	701	Sololá	1	Sololá	6	Junio	2023-06-21T00:00:00	2024-11-08T20:00:00	4	Temperatura máxima	14.8
30923	7	Sololá	701	Sololá	1	Sololá	6	Junio	2023-06-21T00:00:00	2024-11-08T20:00:00	3	Temperatura mínima	14.6
30924	7	Sololá	701	Sololá	1	Sololá	6	Junio	2023-06-21T00:00:00	2024-11-08T20:00:00	5	Humedad	96
30925	7	Sololá	701	Sololá	1	Sololá	6	Junio	2023-06-21T00:00:00	2024-11-08T20:00:00	6	Velocidad del viento	0
30926	7	Sololá	701	Sololá	1	Sololá	6	Junio	2023-06-21T00:00:00	2024-11-08T20:00:00	7	Dirección del viento	0
30927	7	Sololá	701	Sololá	1	Sololá	6	Junio	2023-06-21T00:00:00	2024-11-08T20:00:00	1	Precipitación	0
30928	7	Sololá	701	Sololá	1	Sololá	6	Junio	2023-06-21T00:00:00	2024-11-08T20:00:00	8	Radiación solar	0
30929	7	Sololá	701	Sololá	1	Sololá	6	Junio	2023-06-21T00:00:00	2024-11-08T21:00:00	2	Temperatura media	14.7
30930	7	Sololá	701	Sololá	1	Sololá	6	Junio	2023-06-21T00:00:00	2024-11-08T21:00:00	4	Temperatura máxima	14.8
30931	7	Sololá	701	Sololá	1	Sololá	6	Junio	2023-06-21T00:00:00	2024-11-08T21:00:00	3	Temperatura mínima	14.6
30932	7	Sololá	701	Sololá	1	Sololá	6	Junio	2023-06-21T00:00:00	2024-11-08T21:00:00	5	Humedad	96
30933	7	Sololá	701	Sololá	1	Sololá	6	Junio	2023-06-21T00:00:00	2024-11-08T21:00:00	6	Velocidad del viento	0
30934	7	Sololá	701	Sololá	1	Sololá	6	Junio	2023-06-21T00:00:00	2024-11-08T21:00:00	7	Dirección del viento	0
30935	7	Sololá	701	Sololá	1	Sololá	6	Junio	2023-06-21T00:00:00	2024-11-08T21:00:00	1	Precipitación	0
30936	7	Sololá	701	Sololá	1	Sololá	6	Junio	2023-06-21T00:00:00	2024-11-08T21:00:00	8	Radiación solar	0
30937	7	Sololá	701	Sololá	1	Sololá	6	Junio	2023-06-21T00:00:00	2024-11-08T22:00:00	2	Temperatura media	14.5
30938	7	Sololá	701	Sololá	1	Sololá	6	Junio	2023-06-21T00:00:00	2024-11-08T22:00:00	4	Temperatura máxima	14.7
30939	7	Sololá	701	Sololá	1	Sololá	6	Junio	2023-06-21T00:00:00	2024-11-08T22:00:00	3	Temperatura mínima	14.4
30940	7	Sololá	701	Sololá	1	Sololá	6	Junio	2023-06-21T00:00:00	2024-11-08T22:00:00	5	Humedad	96
30941	7	Sololá	701	Sololá	1	Sololá	6	Junio	2023-06-21T00:00:00	2024-11-08T22:00:00	6	Velocidad del viento	0
30942	7	Sololá	701	Sololá	1	Sololá	6	Junio	2023-06-21T00:00:00	2024-11-08T22:00:00	7	Dirección del viento	0
30943	7	Sololá	701	Sololá	1	Sololá	6	Junio	2023-06-21T00:00:00	2024-11-08T22:00:00	1	Precipitación	0
30944	7	Sololá	701	Sololá	1	Sololá	6	Junio	2023-06-21T00:00:00	2024-11-08T22:00:00	8	Radiación solar	0
30945	7	Sololá	701	Sololá	1	Sololá	6	Junio	2023-06-21T00:00:00	2024-11-08T23:00:00	2	Temperatura media	14.3
30946	7	Sololá	701	Sololá	1	Sololá	6	Junio	2023-06-21T00:00:00	2024-11-08T23:00:00	4	Temperatura máxima	14.5
30947	7	Sololá	701	Sololá	1	Sololá	6	Junio	2023-06-21T00:00:00	2024-11-08T23:00:00	3	Temperatura mínima	14.3
30948	7	Sololá	701	Sololá	1	Sololá	6	Junio	2023-06-21T00:00:00	2024-11-08T23:00:00	5	Humedad	96
30949	7	Sololá	701	Sololá	1	Sololá	6	Junio	2023-06-21T00:00:00	2024-11-08T23:00:00	6	Velocidad del viento	0
30950	7	Sololá	701	Sololá	1	Sololá	6	Junio	2023-06-21T00:00:00	2024-11-08T23:00:00	7	Dirección del viento	0
30951	7	Sololá	701	Sololá	1	Sololá	6	Junio	2023-06-21T00:00:00	2024-11-08T23:00:00	1	Precipitación	0
30952	7	Sololá	701	Sololá	1	Sololá	6	Junio	2023-06-21T00:00:00	2024-11-08T23:00:00	8	Radiación solar	0
30953	7	Sololá	701	Sololá	1	Sololá	6	Junio	2023-06-22T00:00:00	2024-11-08T00:00:00	2	Temperatura media	14.5
30954	7	Sololá	701	Sololá	1	Sololá	6	Junio	2023-06-22T00:00:00	2024-11-08T00:00:00	4	Temperatura máxima	14.5
30955	7	Sololá	701	Sololá	1	Sololá	6	Junio	2023-06-22T00:00:00	2024-11-08T00:00:00	3	Temperatura mínima	14.3
30956	7	Sololá	701	Sololá	1	Sololá	6	Junio	2023-06-22T00:00:00	2024-11-08T00:00:00	5	Humedad	96
30957	7	Sololá	701	Sololá	1	Sololá	6	Junio	2023-06-22T00:00:00	2024-11-08T00:00:00	6	Velocidad del viento	0
30958	7	Sololá	701	Sololá	1	Sololá	6	Junio	2023-06-22T00:00:00	2024-11-08T00:00:00	7	Dirección del viento	0
30959	7	Sololá	701	Sololá	1	Sololá	6	Junio	2023-06-22T00:00:00	2024-11-08T00:00:00	1	Precipitación	0
30960	7	Sololá	701	Sololá	1	Sololá	6	Junio	2023-06-22T00:00:00	2024-11-08T00:00:00	8	Radiación solar	0
30961	7	Sololá	701	Sololá	1	Sololá	6	Junio	2023-06-22T00:00:00	2024-11-08T01:00:00	2	Temperatura media	13.4
30962	7	Sololá	701	Sololá	1	Sololá	6	Junio	2023-06-22T00:00:00	2024-11-08T01:00:00	4	Temperatura máxima	14.6
30963	7	Sololá	701	Sololá	1	Sololá	6	Junio	2023-06-22T00:00:00	2024-11-08T01:00:00	3	Temperatura mínima	13.4
30964	7	Sololá	701	Sololá	1	Sololá	6	Junio	2023-06-22T00:00:00	2024-11-08T01:00:00	5	Humedad	95
30965	7	Sololá	701	Sololá	1	Sololá	6	Junio	2023-06-22T00:00:00	2024-11-08T01:00:00	6	Velocidad del viento	0
30966	7	Sololá	701	Sololá	1	Sololá	6	Junio	2023-06-22T00:00:00	2024-11-08T01:00:00	7	Dirección del viento	0
30967	7	Sololá	701	Sololá	1	Sololá	6	Junio	2023-06-22T00:00:00	2024-11-08T01:00:00	1	Precipitación	1.2
30968	7	Sololá	701	Sololá	1	Sololá	6	Junio	2023-06-22T00:00:00	2024-11-08T01:00:00	8	Radiación solar	0
30969	7	Sololá	701	Sololá	1	Sololá	6	Junio	2023-06-22T00:00:00	2024-11-08T02:00:00	2	Temperatura media	13.1
30970	7	Sololá	701	Sololá	1	Sololá	6	Junio	2023-06-22T00:00:00	2024-11-08T02:00:00	4	Temperatura máxima	13.4
30971	7	Sololá	701	Sololá	1	Sololá	6	Junio	2023-06-22T00:00:00	2024-11-08T02:00:00	3	Temperatura mínima	13.1
30972	7	Sololá	701	Sololá	1	Sololá	6	Junio	2023-06-22T00:00:00	2024-11-08T02:00:00	5	Humedad	96
30973	7	Sololá	701	Sololá	1	Sololá	6	Junio	2023-06-22T00:00:00	2024-11-08T02:00:00	6	Velocidad del viento	0
30974	7	Sololá	701	Sololá	1	Sololá	6	Junio	2023-06-22T00:00:00	2024-11-08T02:00:00	7	Dirección del viento	0
30975	7	Sololá	701	Sololá	1	Sololá	6	Junio	2023-06-22T00:00:00	2024-11-08T02:00:00	1	Precipitación	0.2
30976	7	Sololá	701	Sololá	1	Sololá	6	Junio	2023-06-22T00:00:00	2024-11-08T02:00:00	8	Radiación solar	0
30977	7	Sololá	701	Sololá	1	Sololá	6	Junio	2023-06-22T00:00:00	2024-11-08T03:00:00	2	Temperatura media	12.9
30978	7	Sololá	701	Sololá	1	Sololá	6	Junio	2023-06-22T00:00:00	2024-11-08T03:00:00	4	Temperatura máxima	13.1
30979	7	Sololá	701	Sololá	1	Sololá	6	Junio	2023-06-22T00:00:00	2024-11-08T03:00:00	3	Temperatura mínima	12.9
30980	7	Sololá	701	Sololá	1	Sololá	6	Junio	2023-06-22T00:00:00	2024-11-08T03:00:00	5	Humedad	96
30981	7	Sololá	701	Sololá	1	Sololá	6	Junio	2023-06-22T00:00:00	2024-11-08T03:00:00	6	Velocidad del viento	0
30982	7	Sololá	701	Sololá	1	Sololá	6	Junio	2023-06-22T00:00:00	2024-11-08T03:00:00	7	Dirección del viento	0
30983	7	Sololá	701	Sololá	1	Sololá	6	Junio	2023-06-22T00:00:00	2024-11-08T03:00:00	1	Precipitación	0
30984	7	Sololá	701	Sololá	1	Sololá	6	Junio	2023-06-22T00:00:00	2024-11-08T03:00:00	8	Radiación solar	0
30985	7	Sololá	701	Sololá	1	Sololá	6	Junio	2023-06-22T00:00:00	2024-11-08T04:00:00	2	Temperatura media	12.9
30986	7	Sololá	701	Sololá	1	Sololá	6	Junio	2023-06-22T00:00:00	2024-11-08T04:00:00	4	Temperatura máxima	13
30987	7	Sololá	701	Sololá	1	Sololá	6	Junio	2023-06-22T00:00:00	2024-11-08T04:00:00	3	Temperatura mínima	12.8
30988	7	Sololá	701	Sololá	1	Sololá	6	Junio	2023-06-22T00:00:00	2024-11-08T04:00:00	5	Humedad	97
30989	7	Sololá	701	Sololá	1	Sololá	6	Junio	2023-06-22T00:00:00	2024-11-08T04:00:00	6	Velocidad del viento	0
30990	7	Sololá	701	Sololá	1	Sololá	6	Junio	2023-06-22T00:00:00	2024-11-08T04:00:00	7	Dirección del viento	0
30991	7	Sololá	701	Sololá	1	Sololá	6	Junio	2023-06-22T00:00:00	2024-11-08T04:00:00	1	Precipitación	0
30992	7	Sololá	701	Sololá	1	Sololá	6	Junio	2023-06-22T00:00:00	2024-11-08T04:00:00	8	Radiación solar	0
30993	7	Sololá	701	Sololá	1	Sololá	6	Junio	2023-06-22T00:00:00	2024-11-08T05:00:00	2	Temperatura media	13.1
30994	7	Sololá	701	Sololá	1	Sololá	6	Junio	2023-06-22T00:00:00	2024-11-08T05:00:00	4	Temperatura máxima	13.1
30995	7	Sololá	701	Sololá	1	Sololá	6	Junio	2023-06-22T00:00:00	2024-11-08T05:00:00	3	Temperatura mínima	12.9
30996	7	Sololá	701	Sololá	1	Sololá	6	Junio	2023-06-22T00:00:00	2024-11-08T05:00:00	5	Humedad	97
30997	7	Sololá	701	Sololá	1	Sololá	6	Junio	2023-06-22T00:00:00	2024-11-08T05:00:00	6	Velocidad del viento	0
30998	7	Sololá	701	Sololá	1	Sololá	6	Junio	2023-06-22T00:00:00	2024-11-08T05:00:00	7	Dirección del viento	0
30999	7	Sololá	701	Sololá	1	Sololá	6	Junio	2023-06-22T00:00:00	2024-11-08T05:00:00	1	Precipitación	0
31000	7	Sololá	701	Sololá	1	Sololá	6	Junio	2023-06-22T00:00:00	2024-11-08T05:00:00	8	Radiación solar	0
31001	7	Sololá	701	Sololá	1	Sololá	6	Junio	2023-06-22T00:00:00	2024-11-08T06:00:00	2	Temperatura media	13.3
31002	7	Sololá	701	Sololá	1	Sololá	6	Junio	2023-06-22T00:00:00	2024-11-08T06:00:00	4	Temperatura máxima	13.3
31003	7	Sololá	701	Sololá	1	Sololá	6	Junio	2023-06-22T00:00:00	2024-11-08T06:00:00	3	Temperatura mínima	13.1
31004	7	Sololá	701	Sololá	1	Sololá	6	Junio	2023-06-22T00:00:00	2024-11-08T06:00:00	5	Humedad	96
31005	7	Sololá	701	Sololá	1	Sololá	6	Junio	2023-06-22T00:00:00	2024-11-08T06:00:00	6	Velocidad del viento	0
31006	7	Sololá	701	Sololá	1	Sololá	6	Junio	2023-06-22T00:00:00	2024-11-08T06:00:00	7	Dirección del viento	0
31007	7	Sololá	701	Sololá	1	Sololá	6	Junio	2023-06-22T00:00:00	2024-11-08T06:00:00	1	Precipitación	0
31008	7	Sololá	701	Sololá	1	Sololá	6	Junio	2023-06-22T00:00:00	2024-11-08T06:00:00	8	Radiación solar	1
31009	7	Sololá	701	Sololá	1	Sololá	6	Junio	2023-06-22T00:00:00	2024-11-08T07:00:00	2	Temperatura media	13.9
31010	7	Sololá	701	Sololá	1	Sololá	6	Junio	2023-06-22T00:00:00	2024-11-08T07:00:00	4	Temperatura máxima	13.9
31011	7	Sololá	701	Sololá	1	Sololá	6	Junio	2023-06-22T00:00:00	2024-11-08T07:00:00	3	Temperatura mínima	13.2
31012	7	Sololá	701	Sololá	1	Sololá	6	Junio	2023-06-22T00:00:00	2024-11-08T07:00:00	5	Humedad	96
31013	7	Sololá	701	Sololá	1	Sololá	6	Junio	2023-06-22T00:00:00	2024-11-08T07:00:00	6	Velocidad del viento	0
31014	7	Sololá	701	Sololá	1	Sololá	6	Junio	2023-06-22T00:00:00	2024-11-08T07:00:00	7	Dirección del viento	0
31015	7	Sololá	701	Sololá	1	Sololá	6	Junio	2023-06-22T00:00:00	2024-11-08T07:00:00	1	Precipitación	0
31016	7	Sololá	701	Sololá	1	Sololá	6	Junio	2023-06-22T00:00:00	2024-11-08T07:00:00	8	Radiación solar	31
31017	7	Sololá	701	Sololá	1	Sololá	6	Junio	2023-06-22T00:00:00	2024-11-08T08:00:00	2	Temperatura media	14.8
31018	7	Sololá	701	Sololá	1	Sololá	6	Junio	2023-06-22T00:00:00	2024-11-08T08:00:00	4	Temperatura máxima	14.8
31019	7	Sololá	701	Sololá	1	Sololá	6	Junio	2023-06-22T00:00:00	2024-11-08T08:00:00	3	Temperatura mínima	13.9
31020	7	Sololá	701	Sololá	1	Sololá	6	Junio	2023-06-22T00:00:00	2024-11-08T08:00:00	5	Humedad	96
31021	7	Sololá	701	Sololá	1	Sololá	6	Junio	2023-06-22T00:00:00	2024-11-08T08:00:00	6	Velocidad del viento	0
31022	7	Sololá	701	Sololá	1	Sololá	6	Junio	2023-06-22T00:00:00	2024-11-08T08:00:00	7	Dirección del viento	0
31023	7	Sololá	701	Sololá	1	Sololá	6	Junio	2023-06-22T00:00:00	2024-11-08T08:00:00	1	Precipitación	0
31024	7	Sololá	701	Sololá	1	Sololá	6	Junio	2023-06-22T00:00:00	2024-11-08T08:00:00	8	Radiación solar	108
31025	7	Sololá	701	Sololá	1	Sololá	6	Junio	2023-06-22T00:00:00	2024-11-08T09:00:00	2	Temperatura media	17.6
31026	7	Sololá	701	Sololá	1	Sololá	6	Junio	2023-06-22T00:00:00	2024-11-08T09:00:00	4	Temperatura máxima	17.6
31027	7	Sololá	701	Sololá	1	Sololá	6	Junio	2023-06-22T00:00:00	2024-11-08T09:00:00	3	Temperatura mínima	14.8
31028	7	Sololá	701	Sololá	1	Sololá	6	Junio	2023-06-22T00:00:00	2024-11-08T09:00:00	5	Humedad	88
31029	7	Sololá	701	Sololá	1	Sololá	6	Junio	2023-06-22T00:00:00	2024-11-08T09:00:00	6	Velocidad del viento	0
31030	7	Sololá	701	Sololá	1	Sololá	6	Junio	2023-06-22T00:00:00	2024-11-08T09:00:00	7	Dirección del viento	0
31031	7	Sololá	701	Sololá	1	Sololá	6	Junio	2023-06-22T00:00:00	2024-11-08T09:00:00	1	Precipitación	0
31032	7	Sololá	701	Sololá	1	Sololá	6	Junio	2023-06-22T00:00:00	2024-11-08T09:00:00	8	Radiación solar	365
31033	7	Sololá	701	Sololá	1	Sololá	6	Junio	2023-06-22T00:00:00	2024-11-08T10:00:00	2	Temperatura media	20.1
31034	7	Sololá	701	Sololá	1	Sololá	6	Junio	2023-06-22T00:00:00	2024-11-08T10:00:00	4	Temperatura máxima	20.2
31035	7	Sololá	701	Sololá	1	Sololá	6	Junio	2023-06-22T00:00:00	2024-11-08T10:00:00	3	Temperatura mínima	17.5
31036	7	Sololá	701	Sololá	1	Sololá	6	Junio	2023-06-22T00:00:00	2024-11-08T10:00:00	5	Humedad	79
31037	7	Sololá	701	Sololá	1	Sololá	6	Junio	2023-06-22T00:00:00	2024-11-08T10:00:00	6	Velocidad del viento	0
31038	7	Sololá	701	Sololá	1	Sololá	6	Junio	2023-06-22T00:00:00	2024-11-08T10:00:00	7	Dirección del viento	0
31039	7	Sololá	701	Sololá	1	Sololá	6	Junio	2023-06-22T00:00:00	2024-11-08T10:00:00	1	Precipitación	0
31040	7	Sololá	701	Sololá	1	Sololá	6	Junio	2023-06-22T00:00:00	2024-11-08T10:00:00	8	Radiación solar	755
31041	7	Sololá	701	Sololá	1	Sololá	6	Junio	2023-06-22T00:00:00	2024-11-08T11:00:00	2	Temperatura media	19
31042	7	Sololá	701	Sololá	1	Sololá	6	Junio	2023-06-22T00:00:00	2024-11-08T11:00:00	4	Temperatura máxima	20.2
31043	7	Sololá	701	Sololá	1	Sololá	6	Junio	2023-06-22T00:00:00	2024-11-08T11:00:00	3	Temperatura mínima	19
31044	7	Sololá	701	Sololá	1	Sololá	6	Junio	2023-06-22T00:00:00	2024-11-08T11:00:00	5	Humedad	84
31045	7	Sololá	701	Sololá	1	Sololá	6	Junio	2023-06-22T00:00:00	2024-11-08T11:00:00	6	Velocidad del viento	0
31046	7	Sololá	701	Sololá	1	Sololá	6	Junio	2023-06-22T00:00:00	2024-11-08T11:00:00	7	Dirección del viento	0
31047	7	Sololá	701	Sololá	1	Sololá	6	Junio	2023-06-22T00:00:00	2024-11-08T11:00:00	1	Precipitación	0
31048	7	Sololá	701	Sololá	1	Sololá	6	Junio	2023-06-22T00:00:00	2024-11-08T11:00:00	8	Radiación solar	330
31049	7	Sololá	701	Sololá	1	Sololá	6	Junio	2023-06-22T00:00:00	2024-11-08T12:00:00	2	Temperatura media	17.8
31050	7	Sololá	701	Sololá	1	Sololá	6	Junio	2023-06-22T00:00:00	2024-11-08T12:00:00	4	Temperatura máxima	18.9
31051	7	Sololá	701	Sololá	1	Sololá	6	Junio	2023-06-22T00:00:00	2024-11-08T12:00:00	3	Temperatura mínima	17.6
31052	7	Sololá	701	Sololá	1	Sololá	6	Junio	2023-06-22T00:00:00	2024-11-08T12:00:00	5	Humedad	88
31053	7	Sololá	701	Sololá	1	Sololá	6	Junio	2023-06-22T00:00:00	2024-11-08T12:00:00	6	Velocidad del viento	0
31054	7	Sololá	701	Sololá	1	Sololá	6	Junio	2023-06-22T00:00:00	2024-11-08T12:00:00	7	Dirección del viento	0
31055	7	Sololá	701	Sololá	1	Sololá	6	Junio	2023-06-22T00:00:00	2024-11-08T12:00:00	1	Precipitación	0
31056	7	Sololá	701	Sololá	1	Sololá	6	Junio	2023-06-22T00:00:00	2024-11-08T12:00:00	8	Radiación solar	118
31057	7	Sololá	701	Sololá	1	Sololá	6	Junio	2023-06-22T00:00:00	2024-11-08T13:00:00	2	Temperatura media	16.9
31058	7	Sololá	701	Sololá	1	Sololá	6	Junio	2023-06-22T00:00:00	2024-11-08T13:00:00	4	Temperatura máxima	17.9
31059	7	Sololá	701	Sololá	1	Sololá	6	Junio	2023-06-22T00:00:00	2024-11-08T13:00:00	3	Temperatura mínima	16.9
31060	7	Sololá	701	Sololá	1	Sololá	6	Junio	2023-06-22T00:00:00	2024-11-08T13:00:00	5	Humedad	94
31061	7	Sololá	701	Sololá	1	Sololá	6	Junio	2023-06-22T00:00:00	2024-11-08T13:00:00	6	Velocidad del viento	0
31062	7	Sololá	701	Sololá	1	Sololá	6	Junio	2023-06-22T00:00:00	2024-11-08T13:00:00	7	Dirección del viento	0
31063	7	Sololá	701	Sololá	1	Sololá	6	Junio	2023-06-22T00:00:00	2024-11-08T13:00:00	1	Precipitación	0
31064	7	Sololá	701	Sololá	1	Sololá	6	Junio	2023-06-22T00:00:00	2024-11-08T13:00:00	8	Radiación solar	56
31065	7	Sololá	701	Sololá	1	Sololá	6	Junio	2023-06-22T00:00:00	2024-11-08T14:00:00	2	Temperatura media	17.1
31066	7	Sololá	701	Sololá	1	Sololá	6	Junio	2023-06-22T00:00:00	2024-11-08T14:00:00	4	Temperatura máxima	17.3
31067	7	Sololá	701	Sololá	1	Sololá	6	Junio	2023-06-22T00:00:00	2024-11-08T14:00:00	3	Temperatura mínima	16.9
31068	7	Sololá	701	Sololá	1	Sololá	6	Junio	2023-06-22T00:00:00	2024-11-08T14:00:00	5	Humedad	93
31069	7	Sololá	701	Sololá	1	Sololá	6	Junio	2023-06-22T00:00:00	2024-11-08T14:00:00	6	Velocidad del viento	0
31070	7	Sololá	701	Sololá	1	Sololá	6	Junio	2023-06-22T00:00:00	2024-11-08T14:00:00	7	Dirección del viento	0
31071	7	Sololá	701	Sololá	1	Sololá	6	Junio	2023-06-22T00:00:00	2024-11-08T14:00:00	1	Precipitación	0
31072	7	Sololá	701	Sololá	1	Sololá	6	Junio	2023-06-22T00:00:00	2024-11-08T14:00:00	8	Radiación solar	93
31073	7	Sololá	701	Sololá	1	Sololá	6	Junio	2023-06-22T00:00:00	2024-11-08T15:00:00	2	Temperatura media	17.2
31074	7	Sololá	701	Sololá	1	Sololá	6	Junio	2023-06-22T00:00:00	2024-11-08T15:00:00	4	Temperatura máxima	17.2
31075	7	Sololá	701	Sololá	1	Sololá	6	Junio	2023-06-22T00:00:00	2024-11-08T15:00:00	3	Temperatura mínima	16.9
31076	7	Sololá	701	Sololá	1	Sololá	6	Junio	2023-06-22T00:00:00	2024-11-08T15:00:00	5	Humedad	95
31077	7	Sololá	701	Sololá	1	Sololá	6	Junio	2023-06-22T00:00:00	2024-11-08T15:00:00	6	Velocidad del viento	0
31078	7	Sololá	701	Sololá	1	Sololá	6	Junio	2023-06-22T00:00:00	2024-11-08T15:00:00	7	Dirección del viento	0
31079	7	Sololá	701	Sololá	1	Sololá	6	Junio	2023-06-22T00:00:00	2024-11-08T15:00:00	1	Precipitación	0
31080	7	Sololá	701	Sololá	1	Sololá	6	Junio	2023-06-22T00:00:00	2024-11-08T15:00:00	8	Radiación solar	87
31081	7	Sololá	701	Sololá	1	Sololá	6	Junio	2023-06-22T00:00:00	2024-11-08T16:00:00	2	Temperatura media	17.3
31082	7	Sololá	701	Sololá	1	Sololá	6	Junio	2023-06-22T00:00:00	2024-11-08T16:00:00	4	Temperatura máxima	17.7
31083	7	Sololá	701	Sololá	1	Sololá	6	Junio	2023-06-22T00:00:00	2024-11-08T16:00:00	3	Temperatura mínima	17.2
31084	7	Sololá	701	Sololá	1	Sololá	6	Junio	2023-06-22T00:00:00	2024-11-08T16:00:00	5	Humedad	93
31085	7	Sololá	701	Sololá	1	Sololá	6	Junio	2023-06-22T00:00:00	2024-11-08T16:00:00	6	Velocidad del viento	0
31086	7	Sololá	701	Sololá	1	Sololá	6	Junio	2023-06-22T00:00:00	2024-11-08T16:00:00	7	Dirección del viento	0
31087	7	Sololá	701	Sololá	1	Sololá	6	Junio	2023-06-22T00:00:00	2024-11-08T16:00:00	1	Precipitación	0
31088	7	Sololá	701	Sololá	1	Sololá	6	Junio	2023-06-22T00:00:00	2024-11-08T16:00:00	8	Radiación solar	97
31089	7	Sololá	701	Sololá	1	Sololá	6	Junio	2023-06-22T00:00:00	2024-11-08T17:00:00	2	Temperatura media	16.3
31090	7	Sololá	701	Sololá	1	Sololá	6	Junio	2023-06-22T00:00:00	2024-11-08T17:00:00	4	Temperatura máxima	17.3
31091	7	Sololá	701	Sololá	1	Sololá	6	Junio	2023-06-22T00:00:00	2024-11-08T17:00:00	3	Temperatura mínima	16.3
31092	7	Sololá	701	Sololá	1	Sololá	6	Junio	2023-06-22T00:00:00	2024-11-08T17:00:00	5	Humedad	93
31093	7	Sololá	701	Sololá	1	Sololá	6	Junio	2023-06-22T00:00:00	2024-11-08T17:00:00	6	Velocidad del viento	0
31094	7	Sololá	701	Sololá	1	Sololá	6	Junio	2023-06-22T00:00:00	2024-11-08T17:00:00	7	Dirección del viento	0
31095	7	Sololá	701	Sololá	1	Sololá	6	Junio	2023-06-22T00:00:00	2024-11-08T17:00:00	1	Precipitación	4.6
31096	7	Sololá	701	Sololá	1	Sololá	6	Junio	2023-06-22T00:00:00	2024-11-08T17:00:00	8	Radiación solar	32
31097	7	Sololá	701	Sololá	1	Sololá	6	Junio	2023-06-22T00:00:00	2024-11-08T18:00:00	2	Temperatura media	15.3
31098	7	Sololá	701	Sololá	1	Sololá	6	Junio	2023-06-22T00:00:00	2024-11-08T18:00:00	4	Temperatura máxima	16.3
31099	7	Sololá	701	Sololá	1	Sololá	6	Junio	2023-06-22T00:00:00	2024-11-08T18:00:00	3	Temperatura mínima	15.3
31100	7	Sololá	701	Sololá	1	Sololá	6	Junio	2023-06-22T00:00:00	2024-11-08T18:00:00	5	Humedad	97
31101	7	Sololá	701	Sololá	1	Sololá	6	Junio	2023-06-22T00:00:00	2024-11-08T18:00:00	6	Velocidad del viento	0
31102	7	Sololá	701	Sololá	1	Sololá	6	Junio	2023-06-22T00:00:00	2024-11-08T18:00:00	7	Dirección del viento	0
31103	7	Sololá	701	Sololá	1	Sololá	6	Junio	2023-06-22T00:00:00	2024-11-08T18:00:00	1	Precipitación	13.8
31104	7	Sololá	701	Sololá	1	Sololá	6	Junio	2023-06-22T00:00:00	2024-11-08T18:00:00	8	Radiación solar	0
31105	7	Sololá	701	Sololá	1	Sololá	6	Junio	2023-06-22T00:00:00	2024-11-08T19:00:00	2	Temperatura media	15
31106	7	Sololá	701	Sololá	1	Sololá	6	Junio	2023-06-22T00:00:00	2024-11-08T19:00:00	4	Temperatura máxima	15.4
31107	7	Sololá	701	Sololá	1	Sololá	6	Junio	2023-06-22T00:00:00	2024-11-08T19:00:00	3	Temperatura mínima	14.9
31108	7	Sololá	701	Sololá	1	Sololá	6	Junio	2023-06-22T00:00:00	2024-11-08T19:00:00	5	Humedad	97
31109	7	Sololá	701	Sololá	1	Sololá	6	Junio	2023-06-22T00:00:00	2024-11-08T19:00:00	6	Velocidad del viento	0
31110	7	Sololá	701	Sololá	1	Sololá	6	Junio	2023-06-22T00:00:00	2024-11-08T19:00:00	7	Dirección del viento	0
31111	7	Sololá	701	Sololá	1	Sololá	6	Junio	2023-06-22T00:00:00	2024-11-08T19:00:00	1	Precipitación	1
31112	7	Sololá	701	Sololá	1	Sololá	6	Junio	2023-06-22T00:00:00	2024-11-08T19:00:00	8	Radiación solar	0
31113	7	Sololá	701	Sololá	1	Sololá	6	Junio	2023-06-22T00:00:00	2024-11-08T20:00:00	2	Temperatura media	14.9
31114	7	Sololá	701	Sololá	1	Sololá	6	Junio	2023-06-22T00:00:00	2024-11-08T20:00:00	4	Temperatura máxima	15
31115	7	Sololá	701	Sololá	1	Sololá	6	Junio	2023-06-22T00:00:00	2024-11-08T20:00:00	3	Temperatura mínima	14.9
31116	7	Sololá	701	Sololá	1	Sololá	6	Junio	2023-06-22T00:00:00	2024-11-08T20:00:00	5	Humedad	97
31117	7	Sololá	701	Sololá	1	Sololá	6	Junio	2023-06-22T00:00:00	2024-11-08T20:00:00	6	Velocidad del viento	0
31118	7	Sololá	701	Sololá	1	Sololá	6	Junio	2023-06-22T00:00:00	2024-11-08T20:00:00	7	Dirección del viento	0
31119	7	Sololá	701	Sololá	1	Sololá	6	Junio	2023-06-22T00:00:00	2024-11-08T20:00:00	1	Precipitación	1
31120	7	Sololá	701	Sololá	1	Sololá	6	Junio	2023-06-22T00:00:00	2024-11-08T20:00:00	8	Radiación solar	0
31121	7	Sololá	701	Sololá	1	Sololá	6	Junio	2023-06-22T00:00:00	2024-11-08T21:00:00	2	Temperatura media	14.7
31122	7	Sololá	701	Sololá	1	Sololá	6	Junio	2023-06-22T00:00:00	2024-11-08T21:00:00	4	Temperatura máxima	15
31123	7	Sololá	701	Sololá	1	Sololá	6	Junio	2023-06-22T00:00:00	2024-11-08T21:00:00	3	Temperatura mínima	14.7
31124	7	Sololá	701	Sololá	1	Sololá	6	Junio	2023-06-22T00:00:00	2024-11-08T21:00:00	5	Humedad	97
31125	7	Sololá	701	Sololá	1	Sololá	6	Junio	2023-06-22T00:00:00	2024-11-08T21:00:00	6	Velocidad del viento	0
31126	7	Sololá	701	Sololá	1	Sololá	6	Junio	2023-06-22T00:00:00	2024-11-08T21:00:00	7	Dirección del viento	0
31127	7	Sololá	701	Sololá	1	Sololá	6	Junio	2023-06-22T00:00:00	2024-11-08T21:00:00	1	Precipitación	0.8
31128	7	Sololá	701	Sololá	1	Sololá	6	Junio	2023-06-22T00:00:00	2024-11-08T21:00:00	8	Radiación solar	0
31129	7	Sololá	701	Sololá	1	Sololá	6	Junio	2023-06-22T00:00:00	2024-11-08T22:00:00	2	Temperatura media	14.6
31130	7	Sololá	701	Sololá	1	Sololá	6	Junio	2023-06-22T00:00:00	2024-11-08T22:00:00	4	Temperatura máxima	14.8
31131	7	Sololá	701	Sololá	1	Sololá	6	Junio	2023-06-22T00:00:00	2024-11-08T22:00:00	3	Temperatura mínima	14.6
31132	7	Sololá	701	Sololá	1	Sololá	6	Junio	2023-06-22T00:00:00	2024-11-08T22:00:00	5	Humedad	97
31133	7	Sololá	701	Sololá	1	Sololá	6	Junio	2023-06-22T00:00:00	2024-11-08T22:00:00	6	Velocidad del viento	0
31134	7	Sololá	701	Sololá	1	Sololá	6	Junio	2023-06-22T00:00:00	2024-11-08T22:00:00	7	Dirección del viento	0
31135	7	Sololá	701	Sololá	1	Sololá	6	Junio	2023-06-22T00:00:00	2024-11-08T22:00:00	1	Precipitación	0
31136	7	Sololá	701	Sololá	1	Sololá	6	Junio	2023-06-22T00:00:00	2024-11-08T22:00:00	8	Radiación solar	0
31137	7	Sololá	701	Sololá	1	Sololá	6	Junio	2023-06-22T00:00:00	2024-11-08T23:00:00	2	Temperatura media	14.7
31138	7	Sololá	701	Sololá	1	Sololá	6	Junio	2023-06-22T00:00:00	2024-11-08T23:00:00	4	Temperatura máxima	14.8
31139	7	Sololá	701	Sololá	1	Sololá	6	Junio	2023-06-22T00:00:00	2024-11-08T23:00:00	3	Temperatura mínima	14.6
31140	7	Sololá	701	Sololá	1	Sololá	6	Junio	2023-06-22T00:00:00	2024-11-08T23:00:00	5	Humedad	98
31141	7	Sololá	701	Sololá	1	Sololá	6	Junio	2023-06-22T00:00:00	2024-11-08T23:00:00	6	Velocidad del viento	0
31142	7	Sololá	701	Sololá	1	Sololá	6	Junio	2023-06-22T00:00:00	2024-11-08T23:00:00	7	Dirección del viento	0
31143	7	Sololá	701	Sololá	1	Sololá	6	Junio	2023-06-22T00:00:00	2024-11-08T23:00:00	1	Precipitación	5.2
31144	7	Sololá	701	Sololá	1	Sololá	6	Junio	2023-06-22T00:00:00	2024-11-08T23:00:00	8	Radiación solar	0
31145	7	Sololá	701	Sololá	1	Sololá	6	Junio	2023-06-23T00:00:00	2024-11-08T00:00:00	2	Temperatura media	14.6
31146	7	Sololá	701	Sololá	1	Sololá	6	Junio	2023-06-23T00:00:00	2024-11-08T00:00:00	4	Temperatura máxima	14.7
31147	7	Sololá	701	Sololá	1	Sololá	6	Junio	2023-06-23T00:00:00	2024-11-08T00:00:00	3	Temperatura mínima	14.6
31148	7	Sololá	701	Sololá	1	Sololá	6	Junio	2023-06-23T00:00:00	2024-11-08T00:00:00	5	Humedad	98
31149	7	Sololá	701	Sololá	1	Sololá	6	Junio	2023-06-23T00:00:00	2024-11-08T00:00:00	6	Velocidad del viento	0
31150	7	Sololá	701	Sololá	1	Sololá	6	Junio	2023-06-23T00:00:00	2024-11-08T00:00:00	7	Dirección del viento	0
31151	7	Sololá	701	Sololá	1	Sololá	6	Junio	2023-06-23T00:00:00	2024-11-08T00:00:00	1	Precipitación	0.2
31152	7	Sololá	701	Sololá	1	Sololá	6	Junio	2023-06-23T00:00:00	2024-11-08T00:00:00	8	Radiación solar	0
31153	7	Sololá	701	Sololá	1	Sololá	6	Junio	2023-06-23T00:00:00	2024-11-08T01:00:00	2	Temperatura media	14
31154	7	Sololá	701	Sololá	1	Sololá	6	Junio	2023-06-23T00:00:00	2024-11-08T01:00:00	4	Temperatura máxima	14.6
31155	7	Sololá	701	Sololá	1	Sololá	6	Junio	2023-06-23T00:00:00	2024-11-08T01:00:00	3	Temperatura mínima	14
31156	7	Sololá	701	Sololá	1	Sololá	6	Junio	2023-06-23T00:00:00	2024-11-08T01:00:00	5	Humedad	97
31157	7	Sololá	701	Sololá	1	Sololá	6	Junio	2023-06-23T00:00:00	2024-11-08T01:00:00	6	Velocidad del viento	0
31158	7	Sololá	701	Sololá	1	Sololá	6	Junio	2023-06-23T00:00:00	2024-11-08T01:00:00	7	Dirección del viento	0
31159	7	Sololá	701	Sololá	1	Sololá	6	Junio	2023-06-23T00:00:00	2024-11-08T01:00:00	1	Precipitación	0
31160	7	Sololá	701	Sololá	1	Sololá	6	Junio	2023-06-23T00:00:00	2024-11-08T01:00:00	8	Radiación solar	0
31161	7	Sololá	701	Sololá	1	Sololá	6	Junio	2023-06-23T00:00:00	2024-11-08T02:00:00	2	Temperatura media	13.7
31162	7	Sololá	701	Sololá	1	Sololá	6	Junio	2023-06-23T00:00:00	2024-11-08T02:00:00	4	Temperatura máxima	14.1
31163	7	Sololá	701	Sololá	1	Sololá	6	Junio	2023-06-23T00:00:00	2024-11-08T02:00:00	3	Temperatura mínima	13.7
31164	7	Sololá	701	Sololá	1	Sololá	6	Junio	2023-06-23T00:00:00	2024-11-08T02:00:00	5	Humedad	98
31165	7	Sololá	701	Sololá	1	Sololá	6	Junio	2023-06-23T00:00:00	2024-11-08T02:00:00	6	Velocidad del viento	0
31166	7	Sololá	701	Sololá	1	Sololá	6	Junio	2023-06-23T00:00:00	2024-11-08T02:00:00	7	Dirección del viento	0
31167	7	Sololá	701	Sololá	1	Sololá	6	Junio	2023-06-23T00:00:00	2024-11-08T02:00:00	1	Precipitación	0
31168	7	Sololá	701	Sololá	1	Sololá	6	Junio	2023-06-23T00:00:00	2024-11-08T02:00:00	8	Radiación solar	0
31169	7	Sololá	701	Sololá	1	Sololá	6	Junio	2023-06-23T00:00:00	2024-11-08T03:00:00	2	Temperatura media	13.9
31170	7	Sololá	701	Sololá	1	Sololá	6	Junio	2023-06-23T00:00:00	2024-11-08T03:00:00	4	Temperatura máxima	13.9
31171	7	Sololá	701	Sololá	1	Sololá	6	Junio	2023-06-23T00:00:00	2024-11-08T03:00:00	3	Temperatura mínima	13.7
31172	7	Sololá	701	Sololá	1	Sololá	6	Junio	2023-06-23T00:00:00	2024-11-08T03:00:00	5	Humedad	98
31173	7	Sololá	701	Sololá	1	Sololá	6	Junio	2023-06-23T00:00:00	2024-11-08T03:00:00	6	Velocidad del viento	0
31174	7	Sololá	701	Sololá	1	Sololá	6	Junio	2023-06-23T00:00:00	2024-11-08T03:00:00	7	Dirección del viento	0
31175	7	Sololá	701	Sololá	1	Sololá	6	Junio	2023-06-23T00:00:00	2024-11-08T03:00:00	1	Precipitación	0
31176	7	Sololá	701	Sololá	1	Sololá	6	Junio	2023-06-23T00:00:00	2024-11-08T03:00:00	8	Radiación solar	0
31177	7	Sololá	701	Sololá	1	Sololá	6	Junio	2023-06-23T00:00:00	2024-11-08T04:00:00	2	Temperatura media	13.7
31178	7	Sololá	701	Sololá	1	Sololá	6	Junio	2023-06-23T00:00:00	2024-11-08T04:00:00	4	Temperatura máxima	13.9
31179	7	Sololá	701	Sololá	1	Sololá	6	Junio	2023-06-23T00:00:00	2024-11-08T04:00:00	3	Temperatura mínima	13.7
31180	7	Sololá	701	Sololá	1	Sololá	6	Junio	2023-06-23T00:00:00	2024-11-08T04:00:00	5	Humedad	98
31181	7	Sololá	701	Sololá	1	Sololá	6	Junio	2023-06-23T00:00:00	2024-11-08T04:00:00	6	Velocidad del viento	0
31182	7	Sololá	701	Sololá	1	Sololá	6	Junio	2023-06-23T00:00:00	2024-11-08T04:00:00	7	Dirección del viento	0
31183	7	Sololá	701	Sololá	1	Sololá	6	Junio	2023-06-23T00:00:00	2024-11-08T04:00:00	1	Precipitación	0
31184	7	Sololá	701	Sololá	1	Sololá	6	Junio	2023-06-23T00:00:00	2024-11-08T04:00:00	8	Radiación solar	0
31185	7	Sololá	701	Sololá	1	Sololá	6	Junio	2023-06-23T00:00:00	2024-11-08T05:00:00	2	Temperatura media	13.1
31186	7	Sololá	701	Sololá	1	Sololá	6	Junio	2023-06-23T00:00:00	2024-11-08T05:00:00	4	Temperatura máxima	13.8
31187	7	Sololá	701	Sololá	1	Sololá	6	Junio	2023-06-23T00:00:00	2024-11-08T05:00:00	3	Temperatura mínima	13.1
31188	7	Sololá	701	Sololá	1	Sololá	6	Junio	2023-06-23T00:00:00	2024-11-08T05:00:00	5	Humedad	97
31189	7	Sololá	701	Sololá	1	Sololá	6	Junio	2023-06-23T00:00:00	2024-11-08T05:00:00	6	Velocidad del viento	0
31190	7	Sololá	701	Sololá	1	Sololá	6	Junio	2023-06-23T00:00:00	2024-11-08T05:00:00	7	Dirección del viento	0
31191	7	Sololá	701	Sololá	1	Sololá	6	Junio	2023-06-23T00:00:00	2024-11-08T05:00:00	1	Precipitación	0
31192	7	Sololá	701	Sololá	1	Sololá	6	Junio	2023-06-23T00:00:00	2024-11-08T05:00:00	8	Radiación solar	0
31193	7	Sololá	701	Sololá	1	Sololá	6	Junio	2023-06-23T00:00:00	2024-11-08T06:00:00	2	Temperatura media	12.8
31194	7	Sololá	701	Sololá	1	Sololá	6	Junio	2023-06-23T00:00:00	2024-11-08T06:00:00	4	Temperatura máxima	13.1
31195	7	Sololá	701	Sololá	1	Sololá	6	Junio	2023-06-23T00:00:00	2024-11-08T06:00:00	3	Temperatura mínima	12.7
31196	7	Sololá	701	Sololá	1	Sololá	6	Junio	2023-06-23T00:00:00	2024-11-08T06:00:00	5	Humedad	97
31197	7	Sololá	701	Sololá	1	Sololá	6	Junio	2023-06-23T00:00:00	2024-11-08T06:00:00	6	Velocidad del viento	0
31198	7	Sololá	701	Sololá	1	Sololá	6	Junio	2023-06-23T00:00:00	2024-11-08T06:00:00	7	Dirección del viento	0
31199	7	Sololá	701	Sololá	1	Sololá	6	Junio	2023-06-23T00:00:00	2024-11-08T06:00:00	1	Precipitación	0
31200	7	Sololá	701	Sololá	1	Sololá	6	Junio	2023-06-23T00:00:00	2024-11-08T06:00:00	8	Radiación solar	1
31201	7	Sololá	701	Sololá	1	Sololá	6	Junio	2023-06-23T00:00:00	2024-11-08T07:00:00	2	Temperatura media	12.9
31202	7	Sololá	701	Sololá	1	Sololá	6	Junio	2023-06-23T00:00:00	2024-11-08T07:00:00	4	Temperatura máxima	12.9
31203	7	Sololá	701	Sololá	1	Sololá	6	Junio	2023-06-23T00:00:00	2024-11-08T07:00:00	3	Temperatura mínima	12.7
31204	7	Sololá	701	Sololá	1	Sololá	6	Junio	2023-06-23T00:00:00	2024-11-08T07:00:00	5	Humedad	98
31205	7	Sololá	701	Sololá	1	Sololá	6	Junio	2023-06-23T00:00:00	2024-11-08T07:00:00	6	Velocidad del viento	0
31206	7	Sololá	701	Sololá	1	Sololá	6	Junio	2023-06-23T00:00:00	2024-11-08T07:00:00	7	Dirección del viento	0
31207	7	Sololá	701	Sololá	1	Sololá	6	Junio	2023-06-23T00:00:00	2024-11-08T07:00:00	1	Precipitación	0
31208	7	Sololá	701	Sololá	1	Sololá	6	Junio	2023-06-23T00:00:00	2024-11-08T07:00:00	8	Radiación solar	14
31209	7	Sololá	701	Sololá	1	Sololá	6	Junio	2023-06-23T00:00:00	2024-11-08T08:00:00	2	Temperatura media	14.6
31210	7	Sololá	701	Sololá	1	Sololá	6	Junio	2023-06-23T00:00:00	2024-11-08T08:00:00	4	Temperatura máxima	14.7
31211	7	Sololá	701	Sololá	1	Sololá	6	Junio	2023-06-23T00:00:00	2024-11-08T08:00:00	3	Temperatura mínima	12.9
31212	7	Sololá	701	Sololá	1	Sololá	6	Junio	2023-06-23T00:00:00	2024-11-08T08:00:00	5	Humedad	98
31213	7	Sololá	701	Sololá	1	Sololá	6	Junio	2023-06-23T00:00:00	2024-11-08T08:00:00	6	Velocidad del viento	0
31214	7	Sololá	701	Sololá	1	Sololá	6	Junio	2023-06-23T00:00:00	2024-11-08T08:00:00	7	Dirección del viento	0
31215	7	Sololá	701	Sololá	1	Sololá	6	Junio	2023-06-23T00:00:00	2024-11-08T08:00:00	1	Precipitación	0
31216	7	Sololá	701	Sololá	1	Sololá	6	Junio	2023-06-23T00:00:00	2024-11-08T08:00:00	8	Radiación solar	49
31217	7	Sololá	701	Sololá	1	Sololá	6	Junio	2023-06-23T00:00:00	2024-11-08T09:00:00	2	Temperatura media	16.8
31218	7	Sololá	701	Sololá	1	Sololá	6	Junio	2023-06-23T00:00:00	2024-11-08T09:00:00	4	Temperatura máxima	16.8
31219	7	Sololá	701	Sololá	1	Sololá	6	Junio	2023-06-23T00:00:00	2024-11-08T09:00:00	3	Temperatura mínima	14.6
31220	7	Sololá	701	Sololá	1	Sololá	6	Junio	2023-06-23T00:00:00	2024-11-08T09:00:00	5	Humedad	96
31221	7	Sololá	701	Sololá	1	Sololá	6	Junio	2023-06-23T00:00:00	2024-11-08T09:00:00	6	Velocidad del viento	0
31222	7	Sololá	701	Sololá	1	Sololá	6	Junio	2023-06-23T00:00:00	2024-11-08T09:00:00	7	Dirección del viento	0
31223	7	Sololá	701	Sololá	1	Sololá	6	Junio	2023-06-23T00:00:00	2024-11-08T09:00:00	1	Precipitación	0
31224	7	Sololá	701	Sololá	1	Sololá	6	Junio	2023-06-23T00:00:00	2024-11-08T09:00:00	8	Radiación solar	370
31225	7	Sololá	701	Sololá	1	Sololá	6	Junio	2023-06-23T00:00:00	2024-11-08T10:00:00	2	Temperatura media	19.6
31226	7	Sololá	701	Sololá	1	Sololá	6	Junio	2023-06-23T00:00:00	2024-11-08T10:00:00	4	Temperatura máxima	19.6
31227	7	Sololá	701	Sololá	1	Sololá	6	Junio	2023-06-23T00:00:00	2024-11-08T10:00:00	3	Temperatura mínima	16.8
31228	7	Sololá	701	Sololá	1	Sololá	6	Junio	2023-06-23T00:00:00	2024-11-08T10:00:00	5	Humedad	84
31229	7	Sololá	701	Sololá	1	Sololá	6	Junio	2023-06-23T00:00:00	2024-11-08T10:00:00	6	Velocidad del viento	0
31230	7	Sololá	701	Sololá	1	Sololá	6	Junio	2023-06-23T00:00:00	2024-11-08T10:00:00	7	Dirección del viento	0
31231	7	Sololá	701	Sololá	1	Sololá	6	Junio	2023-06-23T00:00:00	2024-11-08T10:00:00	1	Precipitación	0
31232	7	Sololá	701	Sololá	1	Sololá	6	Junio	2023-06-23T00:00:00	2024-11-08T10:00:00	8	Radiación solar	740
31233	7	Sololá	701	Sololá	1	Sololá	6	Junio	2023-06-23T00:00:00	2024-11-08T11:00:00	2	Temperatura media	20.6
31234	7	Sololá	701	Sololá	1	Sololá	6	Junio	2023-06-23T00:00:00	2024-11-08T11:00:00	4	Temperatura máxima	20.9
31235	7	Sololá	701	Sololá	1	Sololá	6	Junio	2023-06-23T00:00:00	2024-11-08T11:00:00	3	Temperatura mínima	19.6
31236	7	Sololá	701	Sololá	1	Sololá	6	Junio	2023-06-23T00:00:00	2024-11-08T11:00:00	5	Humedad	78
31237	7	Sololá	701	Sololá	1	Sololá	6	Junio	2023-06-23T00:00:00	2024-11-08T11:00:00	6	Velocidad del viento	0
31238	7	Sololá	701	Sololá	1	Sololá	6	Junio	2023-06-23T00:00:00	2024-11-08T11:00:00	7	Dirección del viento	0
31239	7	Sololá	701	Sololá	1	Sololá	6	Junio	2023-06-23T00:00:00	2024-11-08T11:00:00	1	Precipitación	0
31240	7	Sololá	701	Sololá	1	Sololá	6	Junio	2023-06-23T00:00:00	2024-11-08T11:00:00	8	Radiación solar	777
31241	7	Sololá	701	Sololá	1	Sololá	6	Junio	2023-06-23T00:00:00	2024-11-08T12:00:00	2	Temperatura media	20.6
31242	7	Sololá	701	Sololá	1	Sololá	6	Junio	2023-06-23T00:00:00	2024-11-08T12:00:00	4	Temperatura máxima	20.8
31243	7	Sololá	701	Sololá	1	Sololá	6	Junio	2023-06-23T00:00:00	2024-11-08T12:00:00	3	Temperatura mínima	20.3
31244	7	Sololá	701	Sololá	1	Sololá	6	Junio	2023-06-23T00:00:00	2024-11-08T12:00:00	5	Humedad	81
31245	7	Sololá	701	Sololá	1	Sololá	6	Junio	2023-06-23T00:00:00	2024-11-08T12:00:00	6	Velocidad del viento	0
31246	7	Sololá	701	Sololá	1	Sololá	6	Junio	2023-06-23T00:00:00	2024-11-08T12:00:00	7	Dirección del viento	0
31247	7	Sololá	701	Sololá	1	Sololá	6	Junio	2023-06-23T00:00:00	2024-11-08T12:00:00	1	Precipitación	0
31248	7	Sololá	701	Sololá	1	Sololá	6	Junio	2023-06-23T00:00:00	2024-11-08T12:00:00	8	Radiación solar	765
31249	7	Sololá	701	Sololá	1	Sololá	6	Junio	2023-06-23T00:00:00	2024-11-08T13:00:00	2	Temperatura media	19.2
31250	7	Sololá	701	Sololá	1	Sololá	6	Junio	2023-06-23T00:00:00	2024-11-08T13:00:00	4	Temperatura máxima	20.6
31251	7	Sololá	701	Sololá	1	Sololá	6	Junio	2023-06-23T00:00:00	2024-11-08T13:00:00	3	Temperatura mínima	19.1
31252	7	Sololá	701	Sololá	1	Sololá	6	Junio	2023-06-23T00:00:00	2024-11-08T13:00:00	5	Humedad	85
31253	7	Sololá	701	Sololá	1	Sololá	6	Junio	2023-06-23T00:00:00	2024-11-08T13:00:00	6	Velocidad del viento	0
31254	7	Sololá	701	Sololá	1	Sololá	6	Junio	2023-06-23T00:00:00	2024-11-08T13:00:00	7	Dirección del viento	0
31255	7	Sololá	701	Sololá	1	Sololá	6	Junio	2023-06-23T00:00:00	2024-11-08T13:00:00	1	Precipitación	0
31256	7	Sololá	701	Sololá	1	Sololá	6	Junio	2023-06-23T00:00:00	2024-11-08T13:00:00	8	Radiación solar	195
31257	7	Sololá	701	Sololá	1	Sololá	6	Junio	2023-06-23T00:00:00	2024-11-08T14:00:00	2	Temperatura media	18.5
31258	7	Sololá	701	Sololá	1	Sololá	6	Junio	2023-06-23T00:00:00	2024-11-08T14:00:00	4	Temperatura máxima	19.1
31259	7	Sololá	701	Sololá	1	Sololá	6	Junio	2023-06-23T00:00:00	2024-11-08T14:00:00	3	Temperatura mínima	18.5
31260	7	Sololá	701	Sololá	1	Sololá	6	Junio	2023-06-23T00:00:00	2024-11-08T14:00:00	5	Humedad	87
31261	7	Sololá	701	Sololá	1	Sololá	6	Junio	2023-06-23T00:00:00	2024-11-08T14:00:00	6	Velocidad del viento	0
31262	7	Sololá	701	Sololá	1	Sololá	6	Junio	2023-06-23T00:00:00	2024-11-08T14:00:00	7	Dirección del viento	0
31263	7	Sololá	701	Sololá	1	Sololá	6	Junio	2023-06-23T00:00:00	2024-11-08T14:00:00	1	Precipitación	0
31264	7	Sololá	701	Sololá	1	Sololá	6	Junio	2023-06-23T00:00:00	2024-11-08T14:00:00	8	Radiación solar	106
31265	7	Sololá	701	Sololá	1	Sololá	6	Junio	2023-06-23T00:00:00	2024-11-08T15:00:00	2	Temperatura media	16.7
31266	7	Sololá	701	Sololá	1	Sololá	6	Junio	2023-06-23T00:00:00	2024-11-08T15:00:00	4	Temperatura máxima	18.5
31267	7	Sololá	701	Sololá	1	Sololá	6	Junio	2023-06-23T00:00:00	2024-11-08T15:00:00	3	Temperatura mínima	16.7
31268	7	Sololá	701	Sololá	1	Sololá	6	Junio	2023-06-23T00:00:00	2024-11-08T15:00:00	5	Humedad	93
31269	7	Sololá	701	Sololá	1	Sololá	6	Junio	2023-06-23T00:00:00	2024-11-08T15:00:00	6	Velocidad del viento	0
31270	7	Sololá	701	Sololá	1	Sololá	6	Junio	2023-06-23T00:00:00	2024-11-08T15:00:00	7	Dirección del viento	0
31271	7	Sololá	701	Sololá	1	Sololá	6	Junio	2023-06-23T00:00:00	2024-11-08T15:00:00	1	Precipitación	0.2
31272	7	Sololá	701	Sololá	1	Sololá	6	Junio	2023-06-23T00:00:00	2024-11-08T15:00:00	8	Radiación solar	40
31273	7	Sololá	701	Sololá	1	Sololá	6	Junio	2023-06-23T00:00:00	2024-11-08T16:00:00	2	Temperatura media	16
31274	7	Sololá	701	Sololá	1	Sololá	6	Junio	2023-06-23T00:00:00	2024-11-08T16:00:00	4	Temperatura máxima	16.7
31275	7	Sololá	701	Sololá	1	Sololá	6	Junio	2023-06-23T00:00:00	2024-11-08T16:00:00	3	Temperatura mínima	15.9
31276	7	Sololá	701	Sololá	1	Sololá	6	Junio	2023-06-23T00:00:00	2024-11-08T16:00:00	5	Humedad	95
31277	7	Sololá	701	Sololá	1	Sololá	6	Junio	2023-06-23T00:00:00	2024-11-08T16:00:00	6	Velocidad del viento	0
31278	7	Sololá	701	Sololá	1	Sololá	6	Junio	2023-06-23T00:00:00	2024-11-08T16:00:00	7	Dirección del viento	0
31279	7	Sololá	701	Sololá	1	Sololá	6	Junio	2023-06-23T00:00:00	2024-11-08T16:00:00	1	Precipitación	1.6
31280	7	Sololá	701	Sololá	1	Sololá	6	Junio	2023-06-23T00:00:00	2024-11-08T16:00:00	8	Radiación solar	26
31281	7	Sololá	701	Sololá	1	Sololá	6	Junio	2023-06-23T00:00:00	2024-11-08T17:00:00	2	Temperatura media	15
31282	7	Sololá	701	Sololá	1	Sololá	6	Junio	2023-06-23T00:00:00	2024-11-08T17:00:00	4	Temperatura máxima	16
31283	7	Sololá	701	Sololá	1	Sololá	6	Junio	2023-06-23T00:00:00	2024-11-08T17:00:00	3	Temperatura mínima	15
31284	7	Sololá	701	Sololá	1	Sololá	6	Junio	2023-06-23T00:00:00	2024-11-08T17:00:00	5	Humedad	96
31285	7	Sololá	701	Sololá	1	Sololá	6	Junio	2023-06-23T00:00:00	2024-11-08T17:00:00	6	Velocidad del viento	0
31286	7	Sololá	701	Sololá	1	Sololá	6	Junio	2023-06-23T00:00:00	2024-11-08T17:00:00	7	Dirección del viento	0
31287	7	Sololá	701	Sololá	1	Sololá	6	Junio	2023-06-23T00:00:00	2024-11-08T17:00:00	1	Precipitación	4.6
31288	7	Sololá	701	Sololá	1	Sololá	6	Junio	2023-06-23T00:00:00	2024-11-08T17:00:00	8	Radiación solar	0
31289	7	Sololá	701	Sololá	1	Sololá	6	Junio	2023-06-23T00:00:00	2024-11-08T18:00:00	2	Temperatura media	14.3
31290	7	Sololá	701	Sololá	1	Sololá	6	Junio	2023-06-23T00:00:00	2024-11-08T18:00:00	4	Temperatura máxima	15
31291	7	Sololá	701	Sololá	1	Sololá	6	Junio	2023-06-23T00:00:00	2024-11-08T18:00:00	3	Temperatura mínima	14.3
31292	7	Sololá	701	Sololá	1	Sololá	6	Junio	2023-06-23T00:00:00	2024-11-08T18:00:00	5	Humedad	97
31293	7	Sololá	701	Sololá	1	Sololá	6	Junio	2023-06-23T00:00:00	2024-11-08T18:00:00	6	Velocidad del viento	0
31294	7	Sololá	701	Sololá	1	Sololá	6	Junio	2023-06-23T00:00:00	2024-11-08T18:00:00	7	Dirección del viento	0
31295	7	Sololá	701	Sololá	1	Sololá	6	Junio	2023-06-23T00:00:00	2024-11-08T18:00:00	1	Precipitación	2
31296	7	Sololá	701	Sololá	1	Sololá	6	Junio	2023-06-23T00:00:00	2024-11-08T18:00:00	8	Radiación solar	0
31297	7	Sololá	701	Sololá	1	Sololá	6	Junio	2023-06-23T00:00:00	2024-11-08T19:00:00	2	Temperatura media	14.2
31298	7	Sololá	701	Sololá	1	Sololá	6	Junio	2023-06-23T00:00:00	2024-11-08T19:00:00	4	Temperatura máxima	14.3
31299	7	Sololá	701	Sololá	1	Sololá	6	Junio	2023-06-23T00:00:00	2024-11-08T19:00:00	3	Temperatura mínima	14.2
31300	7	Sololá	701	Sololá	1	Sololá	6	Junio	2023-06-23T00:00:00	2024-11-08T19:00:00	5	Humedad	97
31301	7	Sololá	701	Sololá	1	Sololá	6	Junio	2023-06-23T00:00:00	2024-11-08T19:00:00	6	Velocidad del viento	0
31302	7	Sololá	701	Sololá	1	Sololá	6	Junio	2023-06-23T00:00:00	2024-11-08T19:00:00	7	Dirección del viento	0
31303	7	Sololá	701	Sololá	1	Sololá	6	Junio	2023-06-23T00:00:00	2024-11-08T19:00:00	1	Precipitación	0.4
31304	7	Sololá	701	Sololá	1	Sololá	6	Junio	2023-06-23T00:00:00	2024-11-08T19:00:00	8	Radiación solar	0
31305	7	Sololá	701	Sololá	1	Sololá	6	Junio	2023-06-23T00:00:00	2024-11-08T20:00:00	2	Temperatura media	13.7
31306	7	Sololá	701	Sololá	1	Sololá	6	Junio	2023-06-23T00:00:00	2024-11-08T20:00:00	4	Temperatura máxima	14.2
31307	7	Sololá	701	Sololá	1	Sololá	6	Junio	2023-06-23T00:00:00	2024-11-08T20:00:00	3	Temperatura mínima	13.7
31308	7	Sololá	701	Sololá	1	Sololá	6	Junio	2023-06-23T00:00:00	2024-11-08T20:00:00	5	Humedad	97
31309	7	Sololá	701	Sololá	1	Sololá	6	Junio	2023-06-23T00:00:00	2024-11-08T20:00:00	6	Velocidad del viento	0
31310	7	Sololá	701	Sololá	1	Sololá	6	Junio	2023-06-23T00:00:00	2024-11-08T20:00:00	7	Dirección del viento	0
31311	7	Sololá	701	Sololá	1	Sololá	6	Junio	2023-06-23T00:00:00	2024-11-08T20:00:00	1	Precipitación	0
31312	7	Sololá	701	Sololá	1	Sololá	6	Junio	2023-06-23T00:00:00	2024-11-08T20:00:00	8	Radiación solar	0
31313	7	Sololá	701	Sololá	1	Sololá	6	Junio	2023-06-23T00:00:00	2024-11-08T21:00:00	2	Temperatura media	13.3
31314	7	Sololá	701	Sololá	1	Sololá	6	Junio	2023-06-23T00:00:00	2024-11-08T21:00:00	4	Temperatura máxima	13.8
31315	7	Sololá	701	Sololá	1	Sololá	6	Junio	2023-06-23T00:00:00	2024-11-08T21:00:00	3	Temperatura mínima	13.3
31316	7	Sololá	701	Sololá	1	Sololá	6	Junio	2023-06-23T00:00:00	2024-11-08T21:00:00	5	Humedad	96
31317	7	Sololá	701	Sololá	1	Sololá	6	Junio	2023-06-23T00:00:00	2024-11-08T21:00:00	6	Velocidad del viento	0
31318	7	Sololá	701	Sololá	1	Sololá	6	Junio	2023-06-23T00:00:00	2024-11-08T21:00:00	7	Dirección del viento	0
31319	7	Sololá	701	Sololá	1	Sololá	6	Junio	2023-06-23T00:00:00	2024-11-08T21:00:00	1	Precipitación	0
31320	7	Sololá	701	Sololá	1	Sololá	6	Junio	2023-06-23T00:00:00	2024-11-08T21:00:00	8	Radiación solar	0
31321	7	Sololá	701	Sololá	1	Sololá	6	Junio	2023-06-23T00:00:00	2024-11-08T22:00:00	2	Temperatura media	13.5
31322	7	Sololá	701	Sololá	1	Sololá	6	Junio	2023-06-23T00:00:00	2024-11-08T22:00:00	4	Temperatura máxima	13.6
31323	7	Sololá	701	Sololá	1	Sololá	6	Junio	2023-06-23T00:00:00	2024-11-08T22:00:00	3	Temperatura mínima	13.2
31324	7	Sololá	701	Sololá	1	Sololá	6	Junio	2023-06-23T00:00:00	2024-11-08T22:00:00	5	Humedad	97
31325	7	Sololá	701	Sololá	1	Sololá	6	Junio	2023-06-23T00:00:00	2024-11-08T22:00:00	6	Velocidad del viento	0
31326	7	Sololá	701	Sololá	1	Sololá	6	Junio	2023-06-23T00:00:00	2024-11-08T22:00:00	7	Dirección del viento	0
31327	7	Sololá	701	Sololá	1	Sololá	6	Junio	2023-06-23T00:00:00	2024-11-08T22:00:00	1	Precipitación	0
31328	7	Sololá	701	Sololá	1	Sololá	6	Junio	2023-06-23T00:00:00	2024-11-08T22:00:00	8	Radiación solar	0
31329	7	Sololá	701	Sololá	1	Sololá	6	Junio	2023-06-23T00:00:00	2024-11-08T23:00:00	2	Temperatura media	13.4
31330	7	Sololá	701	Sololá	1	Sololá	6	Junio	2023-06-23T00:00:00	2024-11-08T23:00:00	4	Temperatura máxima	13.7
31331	7	Sololá	701	Sololá	1	Sololá	6	Junio	2023-06-23T00:00:00	2024-11-08T23:00:00	3	Temperatura mínima	13.4
31332	7	Sololá	701	Sololá	1	Sololá	6	Junio	2023-06-23T00:00:00	2024-11-08T23:00:00	5	Humedad	97
31333	7	Sololá	701	Sololá	1	Sololá	6	Junio	2023-06-23T00:00:00	2024-11-08T23:00:00	6	Velocidad del viento	0
31334	7	Sololá	701	Sololá	1	Sololá	6	Junio	2023-06-23T00:00:00	2024-11-08T23:00:00	7	Dirección del viento	0
31335	7	Sololá	701	Sololá	1	Sololá	6	Junio	2023-06-23T00:00:00	2024-11-08T23:00:00	1	Precipitación	0
31336	7	Sololá	701	Sololá	1	Sololá	6	Junio	2023-06-23T00:00:00	2024-11-08T23:00:00	8	Radiación solar	0
31337	7	Sololá	701	Sololá	1	Sololá	6	Junio	2023-06-24T00:00:00	2024-11-08T00:00:00	2	Temperatura media	13.8
31338	7	Sololá	701	Sololá	1	Sololá	6	Junio	2023-06-24T00:00:00	2024-11-08T00:00:00	4	Temperatura máxima	13.8
31339	7	Sololá	701	Sololá	1	Sololá	6	Junio	2023-06-24T00:00:00	2024-11-08T00:00:00	3	Temperatura mínima	13.4
31340	7	Sololá	701	Sololá	1	Sololá	6	Junio	2023-06-24T00:00:00	2024-11-08T00:00:00	5	Humedad	97
31341	7	Sololá	701	Sololá	1	Sololá	6	Junio	2023-06-24T00:00:00	2024-11-08T00:00:00	6	Velocidad del viento	0
31342	7	Sololá	701	Sololá	1	Sololá	6	Junio	2023-06-24T00:00:00	2024-11-08T00:00:00	7	Dirección del viento	0
31343	7	Sololá	701	Sololá	1	Sololá	6	Junio	2023-06-24T00:00:00	2024-11-08T00:00:00	1	Precipitación	0
31344	7	Sololá	701	Sololá	1	Sololá	6	Junio	2023-06-24T00:00:00	2024-11-08T00:00:00	8	Radiación solar	0
31345	7	Sololá	701	Sololá	1	Sololá	6	Junio	2023-06-24T00:00:00	2024-11-08T01:00:00	2	Temperatura media	13.6
31346	7	Sololá	701	Sololá	1	Sololá	6	Junio	2023-06-24T00:00:00	2024-11-08T01:00:00	4	Temperatura máxima	13.9
31347	7	Sololá	701	Sololá	1	Sololá	6	Junio	2023-06-24T00:00:00	2024-11-08T01:00:00	3	Temperatura mínima	13.6
31348	7	Sololá	701	Sololá	1	Sololá	6	Junio	2023-06-24T00:00:00	2024-11-08T01:00:00	5	Humedad	97
31349	7	Sololá	701	Sololá	1	Sololá	6	Junio	2023-06-24T00:00:00	2024-11-08T01:00:00	6	Velocidad del viento	0
31350	7	Sololá	701	Sololá	1	Sololá	6	Junio	2023-06-24T00:00:00	2024-11-08T01:00:00	7	Dirección del viento	0
31351	7	Sololá	701	Sololá	1	Sololá	6	Junio	2023-06-24T00:00:00	2024-11-08T01:00:00	1	Precipitación	0
31352	7	Sololá	701	Sololá	1	Sololá	6	Junio	2023-06-24T00:00:00	2024-11-08T01:00:00	8	Radiación solar	0
31353	7	Sololá	701	Sololá	1	Sololá	6	Junio	2023-06-24T00:00:00	2024-11-08T02:00:00	2	Temperatura media	13.3
31354	7	Sololá	701	Sololá	1	Sololá	6	Junio	2023-06-24T00:00:00	2024-11-08T02:00:00	4	Temperatura máxima	13.7
31355	7	Sololá	701	Sololá	1	Sololá	6	Junio	2023-06-24T00:00:00	2024-11-08T02:00:00	3	Temperatura mínima	13.3
31356	7	Sololá	701	Sololá	1	Sololá	6	Junio	2023-06-24T00:00:00	2024-11-08T02:00:00	5	Humedad	96
31357	7	Sololá	701	Sololá	1	Sololá	6	Junio	2023-06-24T00:00:00	2024-11-08T02:00:00	6	Velocidad del viento	0
31358	7	Sololá	701	Sololá	1	Sololá	6	Junio	2023-06-24T00:00:00	2024-11-08T02:00:00	7	Dirección del viento	0
31359	7	Sololá	701	Sololá	1	Sololá	6	Junio	2023-06-24T00:00:00	2024-11-08T02:00:00	1	Precipitación	0
31360	7	Sololá	701	Sololá	1	Sololá	6	Junio	2023-06-24T00:00:00	2024-11-08T02:00:00	8	Radiación solar	0
31361	7	Sololá	701	Sololá	1	Sololá	6	Junio	2023-06-24T00:00:00	2024-11-08T03:00:00	2	Temperatura media	13.1
31362	7	Sololá	701	Sololá	1	Sololá	6	Junio	2023-06-24T00:00:00	2024-11-08T03:00:00	4	Temperatura máxima	13.3
31363	7	Sololá	701	Sololá	1	Sololá	6	Junio	2023-06-24T00:00:00	2024-11-08T03:00:00	3	Temperatura mínima	13
31364	7	Sololá	701	Sololá	1	Sololá	6	Junio	2023-06-24T00:00:00	2024-11-08T03:00:00	5	Humedad	97
31365	7	Sololá	701	Sololá	1	Sololá	6	Junio	2023-06-24T00:00:00	2024-11-08T03:00:00	6	Velocidad del viento	0
31366	7	Sololá	701	Sololá	1	Sololá	6	Junio	2023-06-24T00:00:00	2024-11-08T03:00:00	7	Dirección del viento	0
31367	7	Sololá	701	Sololá	1	Sololá	6	Junio	2023-06-24T00:00:00	2024-11-08T03:00:00	1	Precipitación	0
31368	7	Sololá	701	Sololá	1	Sololá	6	Junio	2023-06-24T00:00:00	2024-11-08T03:00:00	8	Radiación solar	0
31369	7	Sololá	701	Sololá	1	Sololá	6	Junio	2023-06-24T00:00:00	2024-11-08T04:00:00	2	Temperatura media	13.3
31370	7	Sololá	701	Sololá	1	Sololá	6	Junio	2023-06-24T00:00:00	2024-11-08T04:00:00	4	Temperatura máxima	13.4
31371	7	Sololá	701	Sololá	1	Sololá	6	Junio	2023-06-24T00:00:00	2024-11-08T04:00:00	3	Temperatura mínima	13.1
31372	7	Sololá	701	Sololá	1	Sololá	6	Junio	2023-06-24T00:00:00	2024-11-08T04:00:00	5	Humedad	96
31373	7	Sololá	701	Sololá	1	Sololá	6	Junio	2023-06-24T00:00:00	2024-11-08T04:00:00	6	Velocidad del viento	0
31374	7	Sololá	701	Sololá	1	Sololá	6	Junio	2023-06-24T00:00:00	2024-11-08T04:00:00	7	Dirección del viento	0
31375	7	Sololá	701	Sololá	1	Sololá	6	Junio	2023-06-24T00:00:00	2024-11-08T04:00:00	1	Precipitación	0
31376	7	Sololá	701	Sololá	1	Sololá	6	Junio	2023-06-24T00:00:00	2024-11-08T04:00:00	8	Radiación solar	0
31377	7	Sololá	701	Sololá	1	Sololá	6	Junio	2023-06-24T00:00:00	2024-11-08T05:00:00	2	Temperatura media	12.9
31378	7	Sololá	701	Sololá	1	Sololá	6	Junio	2023-06-24T00:00:00	2024-11-08T05:00:00	4	Temperatura máxima	13.4
31379	7	Sololá	701	Sololá	1	Sololá	6	Junio	2023-06-24T00:00:00	2024-11-08T05:00:00	3	Temperatura mínima	12.9
31380	7	Sololá	701	Sololá	1	Sololá	6	Junio	2023-06-24T00:00:00	2024-11-08T05:00:00	5	Humedad	96
31381	7	Sololá	701	Sololá	1	Sololá	6	Junio	2023-06-24T00:00:00	2024-11-08T05:00:00	6	Velocidad del viento	0
31382	7	Sololá	701	Sololá	1	Sololá	6	Junio	2023-06-24T00:00:00	2024-11-08T05:00:00	7	Dirección del viento	0
31383	7	Sololá	701	Sololá	1	Sololá	6	Junio	2023-06-24T00:00:00	2024-11-08T05:00:00	1	Precipitación	0
31384	7	Sololá	701	Sololá	1	Sololá	6	Junio	2023-06-24T00:00:00	2024-11-08T05:00:00	8	Radiación solar	0
31385	7	Sololá	701	Sololá	1	Sololá	6	Junio	2023-06-24T00:00:00	2024-11-08T06:00:00	2	Temperatura media	12.7
31386	7	Sololá	701	Sololá	1	Sololá	6	Junio	2023-06-24T00:00:00	2024-11-08T06:00:00	4	Temperatura máxima	12.9
31387	7	Sololá	701	Sololá	1	Sololá	6	Junio	2023-06-24T00:00:00	2024-11-08T06:00:00	3	Temperatura mínima	12.6
31388	7	Sololá	701	Sololá	1	Sololá	6	Junio	2023-06-24T00:00:00	2024-11-08T06:00:00	5	Humedad	95
31389	7	Sololá	701	Sololá	1	Sololá	6	Junio	2023-06-24T00:00:00	2024-11-08T06:00:00	6	Velocidad del viento	0
31390	7	Sololá	701	Sololá	1	Sololá	6	Junio	2023-06-24T00:00:00	2024-11-08T06:00:00	7	Dirección del viento	0
31391	7	Sololá	701	Sololá	1	Sololá	6	Junio	2023-06-24T00:00:00	2024-11-08T06:00:00	1	Precipitación	0
31392	7	Sololá	701	Sololá	1	Sololá	6	Junio	2023-06-24T00:00:00	2024-11-08T06:00:00	8	Radiación solar	3
31393	7	Sololá	701	Sololá	1	Sololá	6	Junio	2023-06-24T00:00:00	2024-11-08T07:00:00	2	Temperatura media	12.9
31394	7	Sololá	701	Sololá	1	Sololá	6	Junio	2023-06-24T00:00:00	2024-11-08T07:00:00	4	Temperatura máxima	12.9
31395	7	Sololá	701	Sololá	1	Sololá	6	Junio	2023-06-24T00:00:00	2024-11-08T07:00:00	3	Temperatura mínima	12.7
31396	7	Sololá	701	Sololá	1	Sololá	6	Junio	2023-06-24T00:00:00	2024-11-08T07:00:00	5	Humedad	96
31397	7	Sololá	701	Sololá	1	Sololá	6	Junio	2023-06-24T00:00:00	2024-11-08T07:00:00	6	Velocidad del viento	0
31398	7	Sololá	701	Sololá	1	Sololá	6	Junio	2023-06-24T00:00:00	2024-11-08T07:00:00	7	Dirección del viento	0
31399	7	Sololá	701	Sololá	1	Sololá	6	Junio	2023-06-24T00:00:00	2024-11-08T07:00:00	1	Precipitación	0
31400	7	Sololá	701	Sololá	1	Sololá	6	Junio	2023-06-24T00:00:00	2024-11-08T07:00:00	8	Radiación solar	32
31401	7	Sololá	701	Sololá	1	Sololá	6	Junio	2023-06-24T00:00:00	2024-11-08T08:00:00	2	Temperatura media	14.7
31402	7	Sololá	701	Sololá	1	Sololá	6	Junio	2023-06-24T00:00:00	2024-11-08T08:00:00	4	Temperatura máxima	14.7
31403	7	Sololá	701	Sololá	1	Sololá	6	Junio	2023-06-24T00:00:00	2024-11-08T08:00:00	3	Temperatura mínima	12.9
31404	7	Sololá	701	Sololá	1	Sololá	6	Junio	2023-06-24T00:00:00	2024-11-08T08:00:00	5	Humedad	96
31405	7	Sololá	701	Sololá	1	Sololá	6	Junio	2023-06-24T00:00:00	2024-11-08T08:00:00	6	Velocidad del viento	0
31406	7	Sololá	701	Sololá	1	Sololá	6	Junio	2023-06-24T00:00:00	2024-11-08T08:00:00	7	Dirección del viento	0
31407	7	Sololá	701	Sololá	1	Sololá	6	Junio	2023-06-24T00:00:00	2024-11-08T08:00:00	1	Precipitación	0
31408	7	Sololá	701	Sololá	1	Sololá	6	Junio	2023-06-24T00:00:00	2024-11-08T08:00:00	8	Radiación solar	90
31409	7	Sololá	701	Sololá	1	Sololá	6	Junio	2023-06-24T00:00:00	2024-11-08T09:00:00	2	Temperatura media	18.6
31410	7	Sololá	701	Sololá	1	Sololá	6	Junio	2023-06-24T00:00:00	2024-11-08T09:00:00	4	Temperatura máxima	18.6
31411	7	Sololá	701	Sololá	1	Sololá	6	Junio	2023-06-24T00:00:00	2024-11-08T09:00:00	3	Temperatura mínima	14.7
31412	7	Sololá	701	Sololá	1	Sololá	6	Junio	2023-06-24T00:00:00	2024-11-08T09:00:00	5	Humedad	83
31413	7	Sololá	701	Sololá	1	Sololá	6	Junio	2023-06-24T00:00:00	2024-11-08T09:00:00	6	Velocidad del viento	0
31414	7	Sololá	701	Sololá	1	Sololá	6	Junio	2023-06-24T00:00:00	2024-11-08T09:00:00	7	Dirección del viento	0
31415	7	Sololá	701	Sololá	1	Sololá	6	Junio	2023-06-24T00:00:00	2024-11-08T09:00:00	1	Precipitación	0
31416	7	Sololá	701	Sololá	1	Sololá	6	Junio	2023-06-24T00:00:00	2024-11-08T09:00:00	8	Radiación solar	383
31417	7	Sololá	701	Sololá	1	Sololá	6	Junio	2023-06-24T00:00:00	2024-11-08T10:00:00	2	Temperatura media	19.8
31418	7	Sololá	701	Sololá	1	Sololá	6	Junio	2023-06-24T00:00:00	2024-11-08T10:00:00	4	Temperatura máxima	19.8
31419	7	Sololá	701	Sololá	1	Sololá	6	Junio	2023-06-24T00:00:00	2024-11-08T10:00:00	3	Temperatura mínima	18.6
31420	7	Sololá	701	Sololá	1	Sololá	6	Junio	2023-06-24T00:00:00	2024-11-08T10:00:00	5	Humedad	80
31421	7	Sololá	701	Sololá	1	Sololá	6	Junio	2023-06-24T00:00:00	2024-11-08T10:00:00	6	Velocidad del viento	0
31422	7	Sololá	701	Sololá	1	Sololá	6	Junio	2023-06-24T00:00:00	2024-11-08T10:00:00	7	Dirección del viento	0
31423	7	Sololá	701	Sololá	1	Sololá	6	Junio	2023-06-24T00:00:00	2024-11-08T10:00:00	1	Precipitación	0
31424	7	Sololá	701	Sololá	1	Sololá	6	Junio	2023-06-24T00:00:00	2024-11-08T10:00:00	8	Radiación solar	579
31425	7	Sololá	701	Sololá	1	Sololá	6	Junio	2023-06-24T00:00:00	2024-11-08T11:00:00	2	Temperatura media	18.8
31426	7	Sololá	701	Sololá	1	Sololá	6	Junio	2023-06-24T00:00:00	2024-11-08T11:00:00	4	Temperatura máxima	19.8
31427	7	Sololá	701	Sololá	1	Sololá	6	Junio	2023-06-24T00:00:00	2024-11-08T11:00:00	3	Temperatura mínima	18.7
31428	7	Sololá	701	Sololá	1	Sololá	6	Junio	2023-06-24T00:00:00	2024-11-08T11:00:00	5	Humedad	86
31429	7	Sololá	701	Sololá	1	Sololá	6	Junio	2023-06-24T00:00:00	2024-11-08T11:00:00	6	Velocidad del viento	0
31430	7	Sololá	701	Sololá	1	Sololá	6	Junio	2023-06-24T00:00:00	2024-11-08T11:00:00	7	Dirección del viento	0
31431	7	Sololá	701	Sololá	1	Sololá	6	Junio	2023-06-24T00:00:00	2024-11-08T11:00:00	1	Precipitación	0
31432	7	Sololá	701	Sololá	1	Sololá	6	Junio	2023-06-24T00:00:00	2024-11-08T11:00:00	8	Radiación solar	219
31433	7	Sololá	701	Sololá	1	Sololá	6	Junio	2023-06-24T00:00:00	2024-11-08T12:00:00	2	Temperatura media	19.4
31434	7	Sololá	701	Sololá	1	Sololá	6	Junio	2023-06-24T00:00:00	2024-11-08T12:00:00	4	Temperatura máxima	19.8
31435	7	Sololá	701	Sololá	1	Sololá	6	Junio	2023-06-24T00:00:00	2024-11-08T12:00:00	3	Temperatura mínima	18.8
31436	7	Sololá	701	Sololá	1	Sololá	6	Junio	2023-06-24T00:00:00	2024-11-08T12:00:00	5	Humedad	81
31437	7	Sololá	701	Sololá	1	Sololá	6	Junio	2023-06-24T00:00:00	2024-11-08T12:00:00	6	Velocidad del viento	0
31438	7	Sololá	701	Sololá	1	Sololá	6	Junio	2023-06-24T00:00:00	2024-11-08T12:00:00	7	Dirección del viento	0
31439	7	Sololá	701	Sololá	1	Sololá	6	Junio	2023-06-24T00:00:00	2024-11-08T12:00:00	1	Precipitación	0
31440	7	Sololá	701	Sololá	1	Sololá	6	Junio	2023-06-24T00:00:00	2024-11-08T12:00:00	8	Radiación solar	282
31441	7	Sololá	701	Sololá	1	Sololá	6	Junio	2023-06-24T00:00:00	2024-11-08T13:00:00	2	Temperatura media	20.7
31442	7	Sololá	701	Sololá	1	Sololá	6	Junio	2023-06-24T00:00:00	2024-11-08T13:00:00	4	Temperatura máxima	20.9
31443	7	Sololá	701	Sololá	1	Sololá	6	Junio	2023-06-24T00:00:00	2024-11-08T13:00:00	3	Temperatura mínima	19.4
31444	7	Sololá	701	Sololá	1	Sololá	6	Junio	2023-06-24T00:00:00	2024-11-08T13:00:00	5	Humedad	81
31445	7	Sololá	701	Sololá	1	Sololá	6	Junio	2023-06-24T00:00:00	2024-11-08T13:00:00	6	Velocidad del viento	0
31446	7	Sololá	701	Sololá	1	Sololá	6	Junio	2023-06-24T00:00:00	2024-11-08T13:00:00	7	Dirección del viento	0
31447	7	Sololá	701	Sololá	1	Sololá	6	Junio	2023-06-24T00:00:00	2024-11-08T13:00:00	1	Precipitación	0
31448	7	Sololá	701	Sololá	1	Sololá	6	Junio	2023-06-24T00:00:00	2024-11-08T13:00:00	8	Radiación solar	200
31449	7	Sololá	701	Sololá	1	Sololá	6	Junio	2023-06-24T00:00:00	2024-11-08T14:00:00	2	Temperatura media	19.7
31450	7	Sololá	701	Sololá	1	Sololá	6	Junio	2023-06-24T00:00:00	2024-11-08T14:00:00	4	Temperatura máxima	20.7
31451	7	Sololá	701	Sololá	1	Sololá	6	Junio	2023-06-24T00:00:00	2024-11-08T14:00:00	3	Temperatura mínima	19.7
31452	7	Sololá	701	Sololá	1	Sololá	6	Junio	2023-06-24T00:00:00	2024-11-08T14:00:00	5	Humedad	83
31453	7	Sololá	701	Sololá	1	Sololá	6	Junio	2023-06-24T00:00:00	2024-11-08T14:00:00	6	Velocidad del viento	0
31454	7	Sololá	701	Sololá	1	Sololá	6	Junio	2023-06-24T00:00:00	2024-11-08T14:00:00	7	Dirección del viento	0
31455	7	Sololá	701	Sololá	1	Sololá	6	Junio	2023-06-24T00:00:00	2024-11-08T14:00:00	1	Precipitación	0
31456	7	Sololá	701	Sololá	1	Sololá	6	Junio	2023-06-24T00:00:00	2024-11-08T14:00:00	8	Radiación solar	117
31457	7	Sololá	701	Sololá	1	Sololá	6	Junio	2023-06-24T00:00:00	2024-11-08T15:00:00	2	Temperatura media	18.5
31458	7	Sololá	701	Sololá	1	Sololá	6	Junio	2023-06-24T00:00:00	2024-11-08T15:00:00	4	Temperatura máxima	19.7
31459	7	Sololá	701	Sololá	1	Sololá	6	Junio	2023-06-24T00:00:00	2024-11-08T15:00:00	3	Temperatura mínima	18.5
31460	7	Sololá	701	Sololá	1	Sololá	6	Junio	2023-06-24T00:00:00	2024-11-08T15:00:00	5	Humedad	90
31461	7	Sololá	701	Sololá	1	Sololá	6	Junio	2023-06-24T00:00:00	2024-11-08T15:00:00	6	Velocidad del viento	0
31462	7	Sololá	701	Sololá	1	Sololá	6	Junio	2023-06-24T00:00:00	2024-11-08T15:00:00	7	Dirección del viento	0
31463	7	Sololá	701	Sololá	1	Sololá	6	Junio	2023-06-24T00:00:00	2024-11-08T15:00:00	1	Precipitación	0
31464	7	Sololá	701	Sololá	1	Sololá	6	Junio	2023-06-24T00:00:00	2024-11-08T15:00:00	8	Radiación solar	61
31465	7	Sololá	701	Sololá	1	Sololá	6	Junio	2023-06-24T00:00:00	2024-11-08T16:00:00	2	Temperatura media	18.6
31466	7	Sololá	701	Sololá	1	Sololá	6	Junio	2023-06-24T00:00:00	2024-11-08T16:00:00	4	Temperatura máxima	18.6
31467	7	Sololá	701	Sololá	1	Sololá	6	Junio	2023-06-24T00:00:00	2024-11-08T16:00:00	3	Temperatura mínima	18.4
31468	7	Sololá	701	Sololá	1	Sololá	6	Junio	2023-06-24T00:00:00	2024-11-08T16:00:00	5	Humedad	91
31469	7	Sololá	701	Sololá	1	Sololá	6	Junio	2023-06-24T00:00:00	2024-11-08T16:00:00	6	Velocidad del viento	0
31470	7	Sololá	701	Sololá	1	Sololá	6	Junio	2023-06-24T00:00:00	2024-11-08T16:00:00	7	Dirección del viento	0
31471	7	Sololá	701	Sololá	1	Sololá	6	Junio	2023-06-24T00:00:00	2024-11-08T16:00:00	1	Precipitación	0
31472	7	Sololá	701	Sololá	1	Sololá	6	Junio	2023-06-24T00:00:00	2024-11-08T16:00:00	8	Radiación solar	61
31473	7	Sololá	701	Sololá	1	Sololá	6	Junio	2023-06-24T00:00:00	2024-11-08T17:00:00	2	Temperatura media	16
31474	7	Sololá	701	Sololá	1	Sololá	6	Junio	2023-06-24T00:00:00	2024-11-08T17:00:00	4	Temperatura máxima	18.6
31475	7	Sololá	701	Sololá	1	Sololá	6	Junio	2023-06-24T00:00:00	2024-11-08T17:00:00	3	Temperatura mínima	16
31476	7	Sololá	701	Sololá	1	Sololá	6	Junio	2023-06-24T00:00:00	2024-11-08T17:00:00	5	Humedad	96
31477	7	Sololá	701	Sololá	1	Sololá	6	Junio	2023-06-24T00:00:00	2024-11-08T17:00:00	6	Velocidad del viento	0
31478	7	Sololá	701	Sololá	1	Sololá	6	Junio	2023-06-24T00:00:00	2024-11-08T17:00:00	7	Dirección del viento	0
31479	7	Sololá	701	Sololá	1	Sololá	6	Junio	2023-06-24T00:00:00	2024-11-08T17:00:00	1	Precipitación	14.8
31480	7	Sololá	701	Sololá	1	Sololá	6	Junio	2023-06-24T00:00:00	2024-11-08T17:00:00	8	Radiación solar	14
31481	7	Sololá	701	Sololá	1	Sololá	6	Junio	2023-06-24T00:00:00	2024-11-08T18:00:00	2	Temperatura media	15.9
31482	7	Sololá	701	Sololá	1	Sololá	6	Junio	2023-06-24T00:00:00	2024-11-08T18:00:00	4	Temperatura máxima	16.1
31483	7	Sololá	701	Sololá	1	Sololá	6	Junio	2023-06-24T00:00:00	2024-11-08T18:00:00	3	Temperatura mínima	15.7
31484	7	Sololá	701	Sololá	1	Sololá	6	Junio	2023-06-24T00:00:00	2024-11-08T18:00:00	5	Humedad	97
31485	7	Sololá	701	Sololá	1	Sololá	6	Junio	2023-06-24T00:00:00	2024-11-08T18:00:00	6	Velocidad del viento	0
31486	7	Sololá	701	Sololá	1	Sololá	6	Junio	2023-06-24T00:00:00	2024-11-08T18:00:00	7	Dirección del viento	0
31487	7	Sololá	701	Sololá	1	Sololá	6	Junio	2023-06-24T00:00:00	2024-11-08T18:00:00	1	Precipitación	5.4
31488	7	Sololá	701	Sololá	1	Sololá	6	Junio	2023-06-24T00:00:00	2024-11-08T18:00:00	8	Radiación solar	4
31489	7	Sololá	701	Sololá	1	Sololá	6	Junio	2023-06-24T00:00:00	2024-11-08T19:00:00	2	Temperatura media	15.5
31490	7	Sololá	701	Sololá	1	Sololá	6	Junio	2023-06-24T00:00:00	2024-11-08T19:00:00	4	Temperatura máxima	16.1
31491	7	Sololá	701	Sololá	1	Sololá	6	Junio	2023-06-24T00:00:00	2024-11-08T19:00:00	3	Temperatura mínima	15.5
31492	7	Sololá	701	Sololá	1	Sololá	6	Junio	2023-06-24T00:00:00	2024-11-08T19:00:00	5	Humedad	97
31493	7	Sololá	701	Sololá	1	Sololá	6	Junio	2023-06-24T00:00:00	2024-11-08T19:00:00	6	Velocidad del viento	0
31494	7	Sololá	701	Sololá	1	Sololá	6	Junio	2023-06-24T00:00:00	2024-11-08T19:00:00	7	Dirección del viento	0
31495	7	Sololá	701	Sololá	1	Sololá	6	Junio	2023-06-24T00:00:00	2024-11-08T19:00:00	1	Precipitación	0
31496	7	Sololá	701	Sololá	1	Sololá	6	Junio	2023-06-24T00:00:00	2024-11-08T19:00:00	8	Radiación solar	0
31497	7	Sololá	701	Sololá	1	Sololá	6	Junio	2023-06-24T00:00:00	2024-11-08T20:00:00	2	Temperatura media	15.3
31498	7	Sololá	701	Sololá	1	Sololá	6	Junio	2023-06-24T00:00:00	2024-11-08T20:00:00	4	Temperatura máxima	15.6
31499	7	Sololá	701	Sololá	1	Sololá	6	Junio	2023-06-24T00:00:00	2024-11-08T20:00:00	3	Temperatura mínima	15.3
31500	7	Sololá	701	Sololá	1	Sololá	6	Junio	2023-06-24T00:00:00	2024-11-08T20:00:00	5	Humedad	97
31501	7	Sololá	701	Sololá	1	Sololá	6	Junio	2023-06-24T00:00:00	2024-11-08T20:00:00	6	Velocidad del viento	0
31502	7	Sololá	701	Sololá	1	Sololá	6	Junio	2023-06-24T00:00:00	2024-11-08T20:00:00	7	Dirección del viento	0
31503	7	Sololá	701	Sololá	1	Sololá	6	Junio	2023-06-24T00:00:00	2024-11-08T20:00:00	1	Precipitación	0
31504	7	Sololá	701	Sololá	1	Sololá	6	Junio	2023-06-24T00:00:00	2024-11-08T20:00:00	8	Radiación solar	0
31505	7	Sololá	701	Sololá	1	Sololá	6	Junio	2023-06-24T00:00:00	2024-11-08T21:00:00	2	Temperatura media	15.3
31506	7	Sololá	701	Sololá	1	Sololá	6	Junio	2023-06-24T00:00:00	2024-11-08T21:00:00	4	Temperatura máxima	15.4
31507	7	Sololá	701	Sololá	1	Sololá	6	Junio	2023-06-24T00:00:00	2024-11-08T21:00:00	3	Temperatura mínima	15.3
31508	7	Sololá	701	Sololá	1	Sololá	6	Junio	2023-06-24T00:00:00	2024-11-08T21:00:00	5	Humedad	97
31509	7	Sololá	701	Sololá	1	Sololá	6	Junio	2023-06-24T00:00:00	2024-11-08T21:00:00	6	Velocidad del viento	0
31510	7	Sololá	701	Sololá	1	Sololá	6	Junio	2023-06-24T00:00:00	2024-11-08T21:00:00	7	Dirección del viento	0
31511	7	Sololá	701	Sololá	1	Sololá	6	Junio	2023-06-24T00:00:00	2024-11-08T21:00:00	1	Precipitación	0
31512	7	Sololá	701	Sololá	1	Sololá	6	Junio	2023-06-24T00:00:00	2024-11-08T21:00:00	8	Radiación solar	0
31513	7	Sololá	701	Sololá	1	Sololá	6	Junio	2023-06-24T00:00:00	2024-11-08T22:00:00	2	Temperatura media	15.1
31514	7	Sololá	701	Sololá	1	Sololá	6	Junio	2023-06-24T00:00:00	2024-11-08T22:00:00	4	Temperatura máxima	15.3
31515	7	Sololá	701	Sololá	1	Sololá	6	Junio	2023-06-24T00:00:00	2024-11-08T22:00:00	3	Temperatura mínima	15.1
31516	7	Sololá	701	Sololá	1	Sololá	6	Junio	2023-06-24T00:00:00	2024-11-08T22:00:00	5	Humedad	97
31517	7	Sololá	701	Sololá	1	Sololá	6	Junio	2023-06-24T00:00:00	2024-11-08T22:00:00	6	Velocidad del viento	0
31518	7	Sololá	701	Sololá	1	Sololá	6	Junio	2023-06-24T00:00:00	2024-11-08T22:00:00	7	Dirección del viento	0
31519	7	Sololá	701	Sololá	1	Sololá	6	Junio	2023-06-24T00:00:00	2024-11-08T22:00:00	1	Precipitación	0
31520	7	Sololá	701	Sololá	1	Sololá	6	Junio	2023-06-24T00:00:00	2024-11-08T22:00:00	8	Radiación solar	0
31521	7	Sololá	701	Sololá	1	Sololá	6	Junio	2023-06-24T00:00:00	2024-11-08T23:00:00	2	Temperatura media	14.7
31522	7	Sololá	701	Sololá	1	Sololá	6	Junio	2023-06-24T00:00:00	2024-11-08T23:00:00	4	Temperatura máxima	15.1
31523	7	Sololá	701	Sololá	1	Sololá	6	Junio	2023-06-24T00:00:00	2024-11-08T23:00:00	3	Temperatura mínima	14.7
31524	7	Sololá	701	Sololá	1	Sololá	6	Junio	2023-06-24T00:00:00	2024-11-08T23:00:00	5	Humedad	97
31525	7	Sololá	701	Sololá	1	Sololá	6	Junio	2023-06-24T00:00:00	2024-11-08T23:00:00	6	Velocidad del viento	0
31526	7	Sololá	701	Sololá	1	Sololá	6	Junio	2023-06-24T00:00:00	2024-11-08T23:00:00	7	Dirección del viento	0
31527	7	Sololá	701	Sololá	1	Sololá	6	Junio	2023-06-24T00:00:00	2024-11-08T23:00:00	1	Precipitación	0
31528	7	Sololá	701	Sololá	1	Sololá	6	Junio	2023-06-24T00:00:00	2024-11-08T23:00:00	8	Radiación solar	0
31529	7	Sololá	701	Sololá	1	Sololá	6	Junio	2023-06-25T00:00:00	2024-11-08T00:00:00	2	Temperatura media	14.5
31530	7	Sololá	701	Sololá	1	Sololá	6	Junio	2023-06-25T00:00:00	2024-11-08T00:00:00	4	Temperatura máxima	14.7
31531	7	Sololá	701	Sololá	1	Sololá	6	Junio	2023-06-25T00:00:00	2024-11-08T00:00:00	3	Temperatura mínima	14.4
31532	7	Sololá	701	Sololá	1	Sololá	6	Junio	2023-06-25T00:00:00	2024-11-08T00:00:00	5	Humedad	97
31533	7	Sololá	701	Sololá	1	Sololá	6	Junio	2023-06-25T00:00:00	2024-11-08T00:00:00	6	Velocidad del viento	0
31534	7	Sololá	701	Sololá	1	Sololá	6	Junio	2023-06-25T00:00:00	2024-11-08T00:00:00	7	Dirección del viento	0
31535	7	Sololá	701	Sololá	1	Sololá	6	Junio	2023-06-25T00:00:00	2024-11-08T00:00:00	1	Precipitación	0
31536	7	Sololá	701	Sololá	1	Sololá	6	Junio	2023-06-25T00:00:00	2024-11-08T00:00:00	8	Radiación solar	0
31537	7	Sololá	701	Sololá	1	Sololá	6	Junio	2023-06-25T00:00:00	2024-11-08T01:00:00	2	Temperatura media	14.7
31538	7	Sololá	701	Sololá	1	Sololá	6	Junio	2023-06-25T00:00:00	2024-11-08T01:00:00	4	Temperatura máxima	14.8
31539	7	Sololá	701	Sololá	1	Sololá	6	Junio	2023-06-25T00:00:00	2024-11-08T01:00:00	3	Temperatura mínima	14.5
31540	7	Sololá	701	Sololá	1	Sololá	6	Junio	2023-06-25T00:00:00	2024-11-08T01:00:00	5	Humedad	98
31541	7	Sololá	701	Sololá	1	Sololá	6	Junio	2023-06-25T00:00:00	2024-11-08T01:00:00	6	Velocidad del viento	0
31542	7	Sololá	701	Sololá	1	Sololá	6	Junio	2023-06-25T00:00:00	2024-11-08T01:00:00	7	Dirección del viento	0
31543	7	Sololá	701	Sololá	1	Sololá	6	Junio	2023-06-25T00:00:00	2024-11-08T01:00:00	1	Precipitación	0
31544	7	Sololá	701	Sololá	1	Sololá	6	Junio	2023-06-25T00:00:00	2024-11-08T01:00:00	8	Radiación solar	0
31545	7	Sololá	701	Sololá	1	Sololá	6	Junio	2023-06-25T00:00:00	2024-11-08T02:00:00	2	Temperatura media	14.3
31546	7	Sololá	701	Sololá	1	Sololá	6	Junio	2023-06-25T00:00:00	2024-11-08T02:00:00	4	Temperatura máxima	14.8
31547	7	Sololá	701	Sololá	1	Sololá	6	Junio	2023-06-25T00:00:00	2024-11-08T02:00:00	3	Temperatura mínima	14.3
31548	7	Sololá	701	Sololá	1	Sololá	6	Junio	2023-06-25T00:00:00	2024-11-08T02:00:00	5	Humedad	97
31549	7	Sololá	701	Sololá	1	Sololá	6	Junio	2023-06-25T00:00:00	2024-11-08T02:00:00	6	Velocidad del viento	0
31550	7	Sololá	701	Sololá	1	Sololá	6	Junio	2023-06-25T00:00:00	2024-11-08T02:00:00	7	Dirección del viento	0
31551	7	Sololá	701	Sololá	1	Sololá	6	Junio	2023-06-25T00:00:00	2024-11-08T02:00:00	1	Precipitación	2.6
31552	7	Sololá	701	Sololá	1	Sololá	6	Junio	2023-06-25T00:00:00	2024-11-08T02:00:00	8	Radiación solar	0
31553	7	Sololá	701	Sololá	1	Sololá	6	Junio	2023-06-25T00:00:00	2024-11-08T03:00:00	2	Temperatura media	13.6
31554	7	Sololá	701	Sololá	1	Sololá	6	Junio	2023-06-25T00:00:00	2024-11-08T03:00:00	4	Temperatura máxima	14.3
31555	7	Sololá	701	Sololá	1	Sololá	6	Junio	2023-06-25T00:00:00	2024-11-08T03:00:00	3	Temperatura mínima	13.6
31556	7	Sololá	701	Sololá	1	Sololá	6	Junio	2023-06-25T00:00:00	2024-11-08T03:00:00	5	Humedad	97
31557	7	Sololá	701	Sololá	1	Sololá	6	Junio	2023-06-25T00:00:00	2024-11-08T03:00:00	6	Velocidad del viento	0
31558	7	Sololá	701	Sololá	1	Sololá	6	Junio	2023-06-25T00:00:00	2024-11-08T03:00:00	7	Dirección del viento	0
31559	7	Sololá	701	Sololá	1	Sololá	6	Junio	2023-06-25T00:00:00	2024-11-08T03:00:00	1	Precipitación	0.2
31560	7	Sololá	701	Sololá	1	Sololá	6	Junio	2023-06-25T00:00:00	2024-11-08T03:00:00	8	Radiación solar	0
31561	7	Sololá	701	Sololá	1	Sololá	6	Junio	2023-06-25T00:00:00	2024-11-08T04:00:00	2	Temperatura media	13.1
31562	7	Sololá	701	Sololá	1	Sololá	6	Junio	2023-06-25T00:00:00	2024-11-08T04:00:00	4	Temperatura máxima	13.6
31563	7	Sololá	701	Sololá	1	Sololá	6	Junio	2023-06-25T00:00:00	2024-11-08T04:00:00	3	Temperatura mínima	13.1
31564	7	Sololá	701	Sololá	1	Sololá	6	Junio	2023-06-25T00:00:00	2024-11-08T04:00:00	5	Humedad	97
31565	7	Sololá	701	Sololá	1	Sololá	6	Junio	2023-06-25T00:00:00	2024-11-08T04:00:00	6	Velocidad del viento	0
31566	7	Sololá	701	Sololá	1	Sololá	6	Junio	2023-06-25T00:00:00	2024-11-08T04:00:00	7	Dirección del viento	0
31567	7	Sololá	701	Sololá	1	Sololá	6	Junio	2023-06-25T00:00:00	2024-11-08T04:00:00	1	Precipitación	0
31568	7	Sololá	701	Sololá	1	Sololá	6	Junio	2023-06-25T00:00:00	2024-11-08T04:00:00	8	Radiación solar	0
31569	7	Sololá	701	Sololá	1	Sololá	6	Junio	2023-06-25T00:00:00	2024-11-08T05:00:00	2	Temperatura media	12.3
31570	7	Sololá	701	Sololá	1	Sololá	6	Junio	2023-06-25T00:00:00	2024-11-08T05:00:00	4	Temperatura máxima	13.1
31571	7	Sololá	701	Sololá	1	Sololá	6	Junio	2023-06-25T00:00:00	2024-11-08T05:00:00	3	Temperatura mínima	12.3
31572	7	Sololá	701	Sololá	1	Sololá	6	Junio	2023-06-25T00:00:00	2024-11-08T05:00:00	5	Humedad	97
31573	7	Sololá	701	Sololá	1	Sololá	6	Junio	2023-06-25T00:00:00	2024-11-08T05:00:00	6	Velocidad del viento	0
31574	7	Sololá	701	Sololá	1	Sololá	6	Junio	2023-06-25T00:00:00	2024-11-08T05:00:00	7	Dirección del viento	0
31575	7	Sololá	701	Sololá	1	Sololá	6	Junio	2023-06-25T00:00:00	2024-11-08T05:00:00	1	Precipitación	0
31576	7	Sololá	701	Sololá	1	Sololá	6	Junio	2023-06-25T00:00:00	2024-11-08T05:00:00	8	Radiación solar	0
31577	7	Sololá	701	Sololá	1	Sololá	6	Junio	2023-06-25T00:00:00	2024-11-08T06:00:00	2	Temperatura media	11.7
31578	7	Sololá	701	Sololá	1	Sololá	6	Junio	2023-06-25T00:00:00	2024-11-08T06:00:00	4	Temperatura máxima	12.3
31579	7	Sololá	701	Sololá	1	Sololá	6	Junio	2023-06-25T00:00:00	2024-11-08T06:00:00	3	Temperatura mínima	11.7
31580	7	Sololá	701	Sololá	1	Sololá	6	Junio	2023-06-25T00:00:00	2024-11-08T06:00:00	5	Humedad	97
31581	7	Sololá	701	Sololá	1	Sololá	6	Junio	2023-06-25T00:00:00	2024-11-08T06:00:00	6	Velocidad del viento	0
31582	7	Sololá	701	Sololá	1	Sololá	6	Junio	2023-06-25T00:00:00	2024-11-08T06:00:00	7	Dirección del viento	0
31583	7	Sololá	701	Sololá	1	Sololá	6	Junio	2023-06-25T00:00:00	2024-11-08T06:00:00	1	Precipitación	0
31584	7	Sololá	701	Sololá	1	Sololá	6	Junio	2023-06-25T00:00:00	2024-11-08T06:00:00	8	Radiación solar	2
31585	7	Sololá	701	Sololá	1	Sololá	6	Junio	2023-06-25T00:00:00	2024-11-08T07:00:00	2	Temperatura media	12.3
31586	7	Sololá	701	Sololá	1	Sololá	6	Junio	2023-06-25T00:00:00	2024-11-08T07:00:00	4	Temperatura máxima	12.3
31587	7	Sololá	701	Sololá	1	Sololá	6	Junio	2023-06-25T00:00:00	2024-11-08T07:00:00	3	Temperatura mínima	11.6
31588	7	Sololá	701	Sololá	1	Sololá	6	Junio	2023-06-25T00:00:00	2024-11-08T07:00:00	5	Humedad	98
31589	7	Sololá	701	Sololá	1	Sololá	6	Junio	2023-06-25T00:00:00	2024-11-08T07:00:00	6	Velocidad del viento	0
31590	7	Sololá	701	Sololá	1	Sololá	6	Junio	2023-06-25T00:00:00	2024-11-08T07:00:00	7	Dirección del viento	0
31591	7	Sololá	701	Sololá	1	Sololá	6	Junio	2023-06-25T00:00:00	2024-11-08T07:00:00	1	Precipitación	0
31592	7	Sololá	701	Sololá	1	Sololá	6	Junio	2023-06-25T00:00:00	2024-11-08T07:00:00	8	Radiación solar	38
31593	7	Sololá	701	Sololá	1	Sololá	6	Junio	2023-06-25T00:00:00	2024-11-08T08:00:00	2	Temperatura media	14
31594	7	Sololá	701	Sololá	1	Sololá	6	Junio	2023-06-25T00:00:00	2024-11-08T08:00:00	4	Temperatura máxima	14
31595	7	Sololá	701	Sololá	1	Sololá	6	Junio	2023-06-25T00:00:00	2024-11-08T08:00:00	3	Temperatura mínima	12.3
31596	7	Sololá	701	Sololá	1	Sololá	6	Junio	2023-06-25T00:00:00	2024-11-08T08:00:00	5	Humedad	96
31597	7	Sololá	701	Sololá	1	Sololá	6	Junio	2023-06-25T00:00:00	2024-11-08T08:00:00	6	Velocidad del viento	0
31598	7	Sololá	701	Sololá	1	Sololá	6	Junio	2023-06-25T00:00:00	2024-11-08T08:00:00	7	Dirección del viento	0
31599	7	Sololá	701	Sololá	1	Sololá	6	Junio	2023-06-25T00:00:00	2024-11-08T08:00:00	1	Precipitación	0
31600	7	Sololá	701	Sololá	1	Sololá	6	Junio	2023-06-25T00:00:00	2024-11-08T08:00:00	8	Radiación solar	106
31601	7	Sololá	701	Sololá	1	Sololá	6	Junio	2023-06-25T00:00:00	2024-11-08T09:00:00	2	Temperatura media	17.4
31602	7	Sololá	701	Sololá	1	Sololá	6	Junio	2023-06-25T00:00:00	2024-11-08T09:00:00	4	Temperatura máxima	17.4
31603	7	Sololá	701	Sololá	1	Sololá	6	Junio	2023-06-25T00:00:00	2024-11-08T09:00:00	3	Temperatura mínima	14
31604	7	Sololá	701	Sololá	1	Sololá	6	Junio	2023-06-25T00:00:00	2024-11-08T09:00:00	5	Humedad	85
31605	7	Sololá	701	Sololá	1	Sololá	6	Junio	2023-06-25T00:00:00	2024-11-08T09:00:00	6	Velocidad del viento	0
31606	7	Sololá	701	Sololá	1	Sololá	6	Junio	2023-06-25T00:00:00	2024-11-08T09:00:00	7	Dirección del viento	0
31607	7	Sololá	701	Sololá	1	Sololá	6	Junio	2023-06-25T00:00:00	2024-11-08T09:00:00	1	Precipitación	0
31608	7	Sololá	701	Sololá	1	Sololá	6	Junio	2023-06-25T00:00:00	2024-11-08T09:00:00	8	Radiación solar	400
31609	7	Sololá	701	Sololá	1	Sololá	6	Junio	2023-06-25T00:00:00	2024-11-08T10:00:00	2	Temperatura media	19.8
31610	7	Sololá	701	Sololá	1	Sololá	6	Junio	2023-06-25T00:00:00	2024-11-08T10:00:00	4	Temperatura máxima	19.9
31611	7	Sololá	701	Sololá	1	Sololá	6	Junio	2023-06-25T00:00:00	2024-11-08T10:00:00	3	Temperatura mínima	17.4
31612	7	Sololá	701	Sololá	1	Sololá	6	Junio	2023-06-25T00:00:00	2024-11-08T10:00:00	5	Humedad	75
31613	7	Sololá	701	Sololá	1	Sololá	6	Junio	2023-06-25T00:00:00	2024-11-08T10:00:00	6	Velocidad del viento	0
31614	7	Sololá	701	Sololá	1	Sololá	6	Junio	2023-06-25T00:00:00	2024-11-08T10:00:00	7	Dirección del viento	0
31615	7	Sololá	701	Sololá	1	Sololá	6	Junio	2023-06-25T00:00:00	2024-11-08T10:00:00	1	Precipitación	0
31616	7	Sololá	701	Sololá	1	Sololá	6	Junio	2023-06-25T00:00:00	2024-11-08T10:00:00	8	Radiación solar	422
31617	7	Sololá	701	Sololá	1	Sololá	6	Junio	2023-06-25T00:00:00	2024-11-08T11:00:00	2	Temperatura media	21.6
31618	7	Sololá	701	Sololá	1	Sololá	6	Junio	2023-06-25T00:00:00	2024-11-08T11:00:00	4	Temperatura máxima	21.6
31619	7	Sololá	701	Sololá	1	Sololá	6	Junio	2023-06-25T00:00:00	2024-11-08T11:00:00	3	Temperatura mínima	19.8
31620	7	Sololá	701	Sololá	1	Sololá	6	Junio	2023-06-25T00:00:00	2024-11-08T11:00:00	5	Humedad	69
31621	7	Sololá	701	Sololá	1	Sololá	6	Junio	2023-06-25T00:00:00	2024-11-08T11:00:00	6	Velocidad del viento	0
31622	7	Sololá	701	Sololá	1	Sololá	6	Junio	2023-06-25T00:00:00	2024-11-08T11:00:00	7	Dirección del viento	0
31623	7	Sololá	701	Sololá	1	Sololá	6	Junio	2023-06-25T00:00:00	2024-11-08T11:00:00	1	Precipitación	0
31624	7	Sololá	701	Sololá	1	Sololá	6	Junio	2023-06-25T00:00:00	2024-11-08T11:00:00	8	Radiación solar	557
31625	7	Sololá	701	Sololá	1	Sololá	6	Junio	2023-06-25T00:00:00	2024-11-08T12:00:00	2	Temperatura media	22.9
31626	7	Sololá	701	Sololá	1	Sololá	6	Junio	2023-06-25T00:00:00	2024-11-08T12:00:00	4	Temperatura máxima	22.9
31627	7	Sololá	701	Sololá	1	Sololá	6	Junio	2023-06-25T00:00:00	2024-11-08T12:00:00	3	Temperatura mínima	21.6
31628	7	Sololá	701	Sololá	1	Sololá	6	Junio	2023-06-25T00:00:00	2024-11-08T12:00:00	5	Humedad	56
31629	7	Sololá	701	Sololá	1	Sololá	6	Junio	2023-06-25T00:00:00	2024-11-08T12:00:00	6	Velocidad del viento	0
31630	7	Sololá	701	Sololá	1	Sololá	6	Junio	2023-06-25T00:00:00	2024-11-08T12:00:00	7	Dirección del viento	0
31631	7	Sololá	701	Sololá	1	Sololá	6	Junio	2023-06-25T00:00:00	2024-11-08T12:00:00	1	Precipitación	0
31632	7	Sololá	701	Sololá	1	Sololá	6	Junio	2023-06-25T00:00:00	2024-11-08T12:00:00	8	Radiación solar	900
31633	7	Sololá	701	Sololá	1	Sololá	6	Junio	2023-06-25T00:00:00	2024-11-08T13:00:00	2	Temperatura media	22.7
31634	7	Sololá	701	Sololá	1	Sololá	6	Junio	2023-06-25T00:00:00	2024-11-08T13:00:00	4	Temperatura máxima	22.9
31635	7	Sololá	701	Sololá	1	Sololá	6	Junio	2023-06-25T00:00:00	2024-11-08T13:00:00	3	Temperatura mínima	22.6
31636	7	Sololá	701	Sololá	1	Sololá	6	Junio	2023-06-25T00:00:00	2024-11-08T13:00:00	5	Humedad	56
31637	7	Sololá	701	Sololá	1	Sololá	6	Junio	2023-06-25T00:00:00	2024-11-08T13:00:00	6	Velocidad del viento	0
31638	7	Sololá	701	Sololá	1	Sololá	6	Junio	2023-06-25T00:00:00	2024-11-08T13:00:00	7	Dirección del viento	0
31639	7	Sololá	701	Sololá	1	Sololá	6	Junio	2023-06-25T00:00:00	2024-11-08T13:00:00	1	Precipitación	0
31640	7	Sololá	701	Sololá	1	Sololá	6	Junio	2023-06-25T00:00:00	2024-11-08T13:00:00	8	Radiación solar	110
31641	7	Sololá	701	Sololá	1	Sololá	6	Junio	2023-06-25T00:00:00	2024-11-08T14:00:00	2	Temperatura media	23.1
31642	7	Sololá	701	Sololá	1	Sololá	6	Junio	2023-06-25T00:00:00	2024-11-08T14:00:00	4	Temperatura máxima	23.4
31643	7	Sololá	701	Sololá	1	Sololá	6	Junio	2023-06-25T00:00:00	2024-11-08T14:00:00	3	Temperatura mínima	22.7
31644	7	Sololá	701	Sololá	1	Sololá	6	Junio	2023-06-25T00:00:00	2024-11-08T14:00:00	5	Humedad	49
31645	7	Sololá	701	Sololá	1	Sololá	6	Junio	2023-06-25T00:00:00	2024-11-08T14:00:00	6	Velocidad del viento	0
31646	7	Sololá	701	Sololá	1	Sololá	6	Junio	2023-06-25T00:00:00	2024-11-08T14:00:00	7	Dirección del viento	0
31647	7	Sololá	701	Sololá	1	Sololá	6	Junio	2023-06-25T00:00:00	2024-11-08T14:00:00	1	Precipitación	0
31648	7	Sololá	701	Sololá	1	Sololá	6	Junio	2023-06-25T00:00:00	2024-11-08T14:00:00	8	Radiación solar	61
31649	7	Sololá	701	Sololá	1	Sololá	6	Junio	2023-06-25T00:00:00	2024-11-08T15:00:00	2	Temperatura media	23
31650	7	Sololá	701	Sololá	1	Sololá	6	Junio	2023-06-25T00:00:00	2024-11-08T15:00:00	4	Temperatura máxima	23.1
31651	7	Sololá	701	Sololá	1	Sololá	6	Junio	2023-06-25T00:00:00	2024-11-08T15:00:00	3	Temperatura mínima	22.8
31652	7	Sololá	701	Sololá	1	Sololá	6	Junio	2023-06-25T00:00:00	2024-11-08T15:00:00	5	Humedad	44
31653	7	Sololá	701	Sololá	1	Sololá	6	Junio	2023-06-25T00:00:00	2024-11-08T15:00:00	6	Velocidad del viento	0
31654	7	Sololá	701	Sololá	1	Sololá	6	Junio	2023-06-25T00:00:00	2024-11-08T15:00:00	7	Dirección del viento	0
31655	7	Sololá	701	Sololá	1	Sololá	6	Junio	2023-06-25T00:00:00	2024-11-08T15:00:00	1	Precipitación	0
31656	7	Sololá	701	Sololá	1	Sololá	6	Junio	2023-06-25T00:00:00	2024-11-08T15:00:00	8	Radiación solar	45
31657	7	Sololá	701	Sololá	1	Sololá	6	Junio	2023-06-25T00:00:00	2024-11-08T16:00:00	2	Temperatura media	21.4
31658	7	Sololá	701	Sololá	1	Sololá	6	Junio	2023-06-25T00:00:00	2024-11-08T16:00:00	4	Temperatura máxima	23.3
31659	7	Sololá	701	Sololá	1	Sololá	6	Junio	2023-06-25T00:00:00	2024-11-08T16:00:00	3	Temperatura mínima	21.4
31660	7	Sololá	701	Sololá	1	Sololá	6	Junio	2023-06-25T00:00:00	2024-11-08T16:00:00	5	Humedad	64
31661	7	Sololá	701	Sololá	1	Sololá	6	Junio	2023-06-25T00:00:00	2024-11-08T16:00:00	6	Velocidad del viento	0
31662	7	Sololá	701	Sololá	1	Sololá	6	Junio	2023-06-25T00:00:00	2024-11-08T16:00:00	7	Dirección del viento	0
31663	7	Sololá	701	Sololá	1	Sololá	6	Junio	2023-06-25T00:00:00	2024-11-08T16:00:00	1	Precipitación	0
31664	7	Sololá	701	Sololá	1	Sololá	6	Junio	2023-06-25T00:00:00	2024-11-08T16:00:00	8	Radiación solar	44
31665	7	Sololá	701	Sololá	1	Sololá	6	Junio	2023-06-25T00:00:00	2024-11-08T17:00:00	2	Temperatura media	20.3
31666	7	Sololá	701	Sololá	1	Sololá	6	Junio	2023-06-25T00:00:00	2024-11-08T17:00:00	4	Temperatura máxima	21.4
31667	7	Sololá	701	Sololá	1	Sololá	6	Junio	2023-06-25T00:00:00	2024-11-08T17:00:00	3	Temperatura mínima	20.3
31668	7	Sololá	701	Sololá	1	Sololá	6	Junio	2023-06-25T00:00:00	2024-11-08T17:00:00	5	Humedad	72
31669	7	Sololá	701	Sololá	1	Sololá	6	Junio	2023-06-25T00:00:00	2024-11-08T17:00:00	6	Velocidad del viento	0
31670	7	Sololá	701	Sololá	1	Sololá	6	Junio	2023-06-25T00:00:00	2024-11-08T17:00:00	7	Dirección del viento	0
31671	7	Sololá	701	Sololá	1	Sololá	6	Junio	2023-06-25T00:00:00	2024-11-08T17:00:00	1	Precipitación	0
31672	7	Sololá	701	Sololá	1	Sololá	6	Junio	2023-06-25T00:00:00	2024-11-08T17:00:00	8	Radiación solar	46
31673	7	Sololá	701	Sololá	1	Sololá	6	Junio	2023-06-25T00:00:00	2024-11-08T18:00:00	2	Temperatura media	19.2
31674	7	Sololá	701	Sololá	1	Sololá	6	Junio	2023-06-25T00:00:00	2024-11-08T18:00:00	4	Temperatura máxima	20.3
31675	7	Sololá	701	Sololá	1	Sololá	6	Junio	2023-06-25T00:00:00	2024-11-08T18:00:00	3	Temperatura mínima	19.2
31676	7	Sololá	701	Sololá	1	Sololá	6	Junio	2023-06-25T00:00:00	2024-11-08T18:00:00	5	Humedad	75
31677	7	Sololá	701	Sololá	1	Sololá	6	Junio	2023-06-25T00:00:00	2024-11-08T18:00:00	6	Velocidad del viento	0
31678	7	Sololá	701	Sololá	1	Sololá	6	Junio	2023-06-25T00:00:00	2024-11-08T18:00:00	7	Dirección del viento	0
31679	7	Sololá	701	Sololá	1	Sololá	6	Junio	2023-06-25T00:00:00	2024-11-08T18:00:00	1	Precipitación	0
31680	7	Sololá	701	Sololá	1	Sololá	6	Junio	2023-06-25T00:00:00	2024-11-08T18:00:00	8	Radiación solar	36
31681	7	Sololá	701	Sololá	1	Sololá	6	Junio	2023-06-25T00:00:00	2024-11-08T19:00:00	2	Temperatura media	17.4
31682	7	Sololá	701	Sololá	1	Sololá	6	Junio	2023-06-25T00:00:00	2024-11-08T19:00:00	4	Temperatura máxima	19.2
31683	7	Sololá	701	Sololá	1	Sololá	6	Junio	2023-06-25T00:00:00	2024-11-08T19:00:00	3	Temperatura mínima	17.4
31684	7	Sololá	701	Sololá	1	Sololá	6	Junio	2023-06-25T00:00:00	2024-11-08T19:00:00	5	Humedad	80
31685	7	Sololá	701	Sololá	1	Sololá	6	Junio	2023-06-25T00:00:00	2024-11-08T19:00:00	6	Velocidad del viento	0
31686	7	Sololá	701	Sololá	1	Sololá	6	Junio	2023-06-25T00:00:00	2024-11-08T19:00:00	7	Dirección del viento	0
31687	7	Sololá	701	Sololá	1	Sololá	6	Junio	2023-06-25T00:00:00	2024-11-08T19:00:00	1	Precipitación	0
31688	7	Sololá	701	Sololá	1	Sololá	6	Junio	2023-06-25T00:00:00	2024-11-08T19:00:00	8	Radiación solar	0
31689	7	Sololá	701	Sololá	1	Sololá	6	Junio	2023-06-25T00:00:00	2024-11-08T20:00:00	2	Temperatura media	16.1
31690	7	Sololá	701	Sololá	1	Sololá	6	Junio	2023-06-25T00:00:00	2024-11-08T20:00:00	4	Temperatura máxima	17.4
31691	7	Sololá	701	Sololá	1	Sololá	6	Junio	2023-06-25T00:00:00	2024-11-08T20:00:00	3	Temperatura mínima	16.1
31692	7	Sololá	701	Sololá	1	Sololá	6	Junio	2023-06-25T00:00:00	2024-11-08T20:00:00	5	Humedad	81
31693	7	Sololá	701	Sololá	1	Sololá	6	Junio	2023-06-25T00:00:00	2024-11-08T20:00:00	6	Velocidad del viento	0
31694	7	Sololá	701	Sololá	1	Sololá	6	Junio	2023-06-25T00:00:00	2024-11-08T20:00:00	7	Dirección del viento	0
31695	7	Sololá	701	Sololá	1	Sololá	6	Junio	2023-06-25T00:00:00	2024-11-08T20:00:00	1	Precipitación	0
31696	7	Sololá	701	Sololá	1	Sololá	6	Junio	2023-06-25T00:00:00	2024-11-08T20:00:00	8	Radiación solar	0
31697	7	Sololá	701	Sololá	1	Sololá	6	Junio	2023-06-25T00:00:00	2024-11-08T21:00:00	2	Temperatura media	15.2
31698	7	Sololá	701	Sololá	1	Sololá	6	Junio	2023-06-25T00:00:00	2024-11-08T21:00:00	4	Temperatura máxima	16.2
31699	7	Sololá	701	Sololá	1	Sololá	6	Junio	2023-06-25T00:00:00	2024-11-08T21:00:00	3	Temperatura mínima	15.2
31700	7	Sololá	701	Sololá	1	Sololá	6	Junio	2023-06-25T00:00:00	2024-11-08T21:00:00	5	Humedad	75
31701	7	Sololá	701	Sololá	1	Sololá	6	Junio	2023-06-25T00:00:00	2024-11-08T21:00:00	6	Velocidad del viento	0
31702	7	Sololá	701	Sololá	1	Sololá	6	Junio	2023-06-25T00:00:00	2024-11-08T21:00:00	7	Dirección del viento	0
31703	7	Sololá	701	Sololá	1	Sololá	6	Junio	2023-06-25T00:00:00	2024-11-08T21:00:00	1	Precipitación	0
31704	7	Sololá	701	Sololá	1	Sololá	6	Junio	2023-06-25T00:00:00	2024-11-08T21:00:00	8	Radiación solar	0
31705	7	Sololá	701	Sololá	1	Sololá	6	Junio	2023-06-25T00:00:00	2024-11-08T22:00:00	2	Temperatura media	14.3
31706	7	Sololá	701	Sololá	1	Sololá	6	Junio	2023-06-25T00:00:00	2024-11-08T22:00:00	4	Temperatura máxima	15.2
31707	7	Sololá	701	Sololá	1	Sololá	6	Junio	2023-06-25T00:00:00	2024-11-08T22:00:00	3	Temperatura mínima	14.3
31708	7	Sololá	701	Sololá	1	Sololá	6	Junio	2023-06-25T00:00:00	2024-11-08T22:00:00	5	Humedad	76
31709	7	Sololá	701	Sololá	1	Sololá	6	Junio	2023-06-25T00:00:00	2024-11-08T22:00:00	6	Velocidad del viento	0
31710	7	Sololá	701	Sololá	1	Sololá	6	Junio	2023-06-25T00:00:00	2024-11-08T22:00:00	7	Dirección del viento	0
31711	7	Sololá	701	Sololá	1	Sololá	6	Junio	2023-06-25T00:00:00	2024-11-08T22:00:00	1	Precipitación	0
31712	7	Sololá	701	Sololá	1	Sololá	6	Junio	2023-06-25T00:00:00	2024-11-08T22:00:00	8	Radiación solar	0
31713	7	Sololá	701	Sololá	1	Sololá	6	Junio	2023-06-25T00:00:00	2024-11-08T23:00:00	2	Temperatura media	13.9
31714	7	Sololá	701	Sololá	1	Sololá	6	Junio	2023-06-25T00:00:00	2024-11-08T23:00:00	4	Temperatura máxima	14.3
31715	7	Sololá	701	Sololá	1	Sololá	6	Junio	2023-06-25T00:00:00	2024-11-08T23:00:00	3	Temperatura mínima	13.9
31716	7	Sololá	701	Sololá	1	Sololá	6	Junio	2023-06-25T00:00:00	2024-11-08T23:00:00	5	Humedad	78
31717	7	Sololá	701	Sololá	1	Sololá	6	Junio	2023-06-25T00:00:00	2024-11-08T23:00:00	6	Velocidad del viento	0
31718	7	Sololá	701	Sololá	1	Sololá	6	Junio	2023-06-25T00:00:00	2024-11-08T23:00:00	7	Dirección del viento	0
31719	7	Sololá	701	Sololá	1	Sololá	6	Junio	2023-06-25T00:00:00	2024-11-08T23:00:00	1	Precipitación	0
31720	7	Sololá	701	Sololá	1	Sololá	6	Junio	2023-06-25T00:00:00	2024-11-08T23:00:00	8	Radiación solar	0
31721	7	Sololá	701	Sololá	1	Sololá	6	Junio	2023-06-26T00:00:00	2024-11-08T00:00:00	2	Temperatura media	13.9
31722	7	Sololá	701	Sololá	1	Sololá	6	Junio	2023-06-26T00:00:00	2024-11-08T00:00:00	4	Temperatura máxima	13.9
31723	7	Sololá	701	Sololá	1	Sololá	6	Junio	2023-06-26T00:00:00	2024-11-08T00:00:00	3	Temperatura mínima	13.8
31724	7	Sololá	701	Sololá	1	Sololá	6	Junio	2023-06-26T00:00:00	2024-11-08T00:00:00	5	Humedad	80
31725	7	Sololá	701	Sololá	1	Sololá	6	Junio	2023-06-26T00:00:00	2024-11-08T00:00:00	6	Velocidad del viento	0
31726	7	Sololá	701	Sololá	1	Sololá	6	Junio	2023-06-26T00:00:00	2024-11-08T00:00:00	7	Dirección del viento	0
31727	7	Sololá	701	Sololá	1	Sololá	6	Junio	2023-06-26T00:00:00	2024-11-08T00:00:00	1	Precipitación	0
31728	7	Sololá	701	Sololá	1	Sololá	6	Junio	2023-06-26T00:00:00	2024-11-08T00:00:00	8	Radiación solar	0
31729	7	Sololá	701	Sololá	1	Sololá	6	Junio	2023-06-26T00:00:00	2024-11-08T01:00:00	2	Temperatura media	13.8
31730	7	Sololá	701	Sololá	1	Sololá	6	Junio	2023-06-26T00:00:00	2024-11-08T01:00:00	4	Temperatura máxima	13.9
31731	7	Sololá	701	Sololá	1	Sololá	6	Junio	2023-06-26T00:00:00	2024-11-08T01:00:00	3	Temperatura mínima	13.8
31732	7	Sololá	701	Sololá	1	Sololá	6	Junio	2023-06-26T00:00:00	2024-11-08T01:00:00	5	Humedad	82
31733	7	Sololá	701	Sololá	1	Sololá	6	Junio	2023-06-26T00:00:00	2024-11-08T01:00:00	6	Velocidad del viento	0
31734	7	Sololá	701	Sololá	1	Sololá	6	Junio	2023-06-26T00:00:00	2024-11-08T01:00:00	7	Dirección del viento	0
31735	7	Sololá	701	Sololá	1	Sololá	6	Junio	2023-06-26T00:00:00	2024-11-08T01:00:00	1	Precipitación	0
31736	7	Sololá	701	Sololá	1	Sololá	6	Junio	2023-06-26T00:00:00	2024-11-08T01:00:00	8	Radiación solar	0
31737	7	Sololá	701	Sololá	1	Sololá	6	Junio	2023-06-26T00:00:00	2024-11-08T02:00:00	2	Temperatura media	13.8
31738	7	Sololá	701	Sololá	1	Sololá	6	Junio	2023-06-26T00:00:00	2024-11-08T02:00:00	4	Temperatura máxima	13.9
31739	7	Sololá	701	Sololá	1	Sololá	6	Junio	2023-06-26T00:00:00	2024-11-08T02:00:00	3	Temperatura mínima	13.7
31740	7	Sololá	701	Sololá	1	Sololá	6	Junio	2023-06-26T00:00:00	2024-11-08T02:00:00	5	Humedad	83
31741	7	Sololá	701	Sololá	1	Sololá	6	Junio	2023-06-26T00:00:00	2024-11-08T02:00:00	6	Velocidad del viento	0
31742	7	Sololá	701	Sololá	1	Sololá	6	Junio	2023-06-26T00:00:00	2024-11-08T02:00:00	7	Dirección del viento	0
31743	7	Sololá	701	Sololá	1	Sololá	6	Junio	2023-06-26T00:00:00	2024-11-08T02:00:00	1	Precipitación	0
31744	7	Sololá	701	Sololá	1	Sololá	6	Junio	2023-06-26T00:00:00	2024-11-08T02:00:00	8	Radiación solar	0
31745	7	Sololá	701	Sololá	1	Sololá	6	Junio	2023-06-26T00:00:00	2024-11-08T03:00:00	2	Temperatura media	13.6
31746	7	Sololá	701	Sololá	1	Sololá	6	Junio	2023-06-26T00:00:00	2024-11-08T03:00:00	4	Temperatura máxima	13.8
31747	7	Sololá	701	Sololá	1	Sololá	6	Junio	2023-06-26T00:00:00	2024-11-08T03:00:00	3	Temperatura mínima	13.6
31748	7	Sololá	701	Sololá	1	Sololá	6	Junio	2023-06-26T00:00:00	2024-11-08T03:00:00	5	Humedad	81
31749	7	Sololá	701	Sololá	1	Sololá	6	Junio	2023-06-26T00:00:00	2024-11-08T03:00:00	6	Velocidad del viento	0
31750	7	Sololá	701	Sololá	1	Sololá	6	Junio	2023-06-26T00:00:00	2024-11-08T03:00:00	7	Dirección del viento	0
31751	7	Sololá	701	Sololá	1	Sololá	6	Junio	2023-06-26T00:00:00	2024-11-08T03:00:00	1	Precipitación	0
31752	7	Sololá	701	Sololá	1	Sololá	6	Junio	2023-06-26T00:00:00	2024-11-08T03:00:00	8	Radiación solar	0
31753	7	Sololá	701	Sololá	1	Sololá	6	Junio	2023-06-26T00:00:00	2024-11-08T04:00:00	2	Temperatura media	13.3
31754	7	Sololá	701	Sololá	1	Sololá	6	Junio	2023-06-26T00:00:00	2024-11-08T04:00:00	4	Temperatura máxima	13.6
31755	7	Sololá	701	Sololá	1	Sololá	6	Junio	2023-06-26T00:00:00	2024-11-08T04:00:00	3	Temperatura mínima	13.2
31756	7	Sololá	701	Sololá	1	Sololá	6	Junio	2023-06-26T00:00:00	2024-11-08T04:00:00	5	Humedad	70
31757	7	Sololá	701	Sololá	1	Sololá	6	Junio	2023-06-26T00:00:00	2024-11-08T04:00:00	6	Velocidad del viento	0
31758	7	Sololá	701	Sololá	1	Sololá	6	Junio	2023-06-26T00:00:00	2024-11-08T04:00:00	7	Dirección del viento	0
31759	7	Sololá	701	Sololá	1	Sololá	6	Junio	2023-06-26T00:00:00	2024-11-08T04:00:00	1	Precipitación	0
31760	7	Sololá	701	Sololá	1	Sololá	6	Junio	2023-06-26T00:00:00	2024-11-08T04:00:00	8	Radiación solar	0
31761	7	Sololá	701	Sololá	1	Sololá	6	Junio	2023-06-26T00:00:00	2024-11-08T05:00:00	2	Temperatura media	13.3
31762	7	Sololá	701	Sololá	1	Sololá	6	Junio	2023-06-26T00:00:00	2024-11-08T05:00:00	4	Temperatura máxima	13.6
31763	7	Sololá	701	Sololá	1	Sololá	6	Junio	2023-06-26T00:00:00	2024-11-08T05:00:00	3	Temperatura mínima	13.3
31764	7	Sololá	701	Sololá	1	Sololá	6	Junio	2023-06-26T00:00:00	2024-11-08T05:00:00	5	Humedad	72
31765	7	Sololá	701	Sololá	1	Sololá	6	Junio	2023-06-26T00:00:00	2024-11-08T05:00:00	6	Velocidad del viento	0
31766	7	Sololá	701	Sololá	1	Sololá	6	Junio	2023-06-26T00:00:00	2024-11-08T05:00:00	7	Dirección del viento	0
31767	7	Sololá	701	Sololá	1	Sololá	6	Junio	2023-06-26T00:00:00	2024-11-08T05:00:00	1	Precipitación	0
31768	7	Sololá	701	Sololá	1	Sololá	6	Junio	2023-06-26T00:00:00	2024-11-08T05:00:00	8	Radiación solar	0
31769	7	Sololá	701	Sololá	1	Sololá	6	Junio	2023-06-26T00:00:00	2024-11-08T06:00:00	2	Temperatura media	13.1
31770	7	Sololá	701	Sololá	1	Sololá	6	Junio	2023-06-26T00:00:00	2024-11-08T06:00:00	4	Temperatura máxima	13.3
31771	7	Sololá	701	Sololá	1	Sololá	6	Junio	2023-06-26T00:00:00	2024-11-08T06:00:00	3	Temperatura mínima	13
31772	7	Sololá	701	Sololá	1	Sololá	6	Junio	2023-06-26T00:00:00	2024-11-08T06:00:00	5	Humedad	72
31773	7	Sololá	701	Sololá	1	Sololá	6	Junio	2023-06-26T00:00:00	2024-11-08T06:00:00	6	Velocidad del viento	0
31774	7	Sololá	701	Sololá	1	Sololá	6	Junio	2023-06-26T00:00:00	2024-11-08T06:00:00	7	Dirección del viento	0
31775	7	Sololá	701	Sololá	1	Sololá	6	Junio	2023-06-26T00:00:00	2024-11-08T06:00:00	1	Precipitación	0
31776	7	Sololá	701	Sololá	1	Sololá	6	Junio	2023-06-26T00:00:00	2024-11-08T06:00:00	8	Radiación solar	2
31777	7	Sololá	701	Sololá	1	Sololá	6	Junio	2023-06-26T00:00:00	2024-11-08T07:00:00	2	Temperatura media	13.9
31778	7	Sololá	701	Sololá	1	Sololá	6	Junio	2023-06-26T00:00:00	2024-11-08T07:00:00	4	Temperatura máxima	13.9
31779	7	Sololá	701	Sololá	1	Sololá	6	Junio	2023-06-26T00:00:00	2024-11-08T07:00:00	3	Temperatura mínima	13.1
31780	7	Sololá	701	Sololá	1	Sololá	6	Junio	2023-06-26T00:00:00	2024-11-08T07:00:00	5	Humedad	76
31781	7	Sololá	701	Sololá	1	Sololá	6	Junio	2023-06-26T00:00:00	2024-11-08T07:00:00	6	Velocidad del viento	0
31782	7	Sololá	701	Sololá	1	Sololá	6	Junio	2023-06-26T00:00:00	2024-11-08T07:00:00	7	Dirección del viento	0
31783	7	Sololá	701	Sololá	1	Sololá	6	Junio	2023-06-26T00:00:00	2024-11-08T07:00:00	1	Precipitación	0
31784	7	Sololá	701	Sololá	1	Sololá	6	Junio	2023-06-26T00:00:00	2024-11-08T07:00:00	8	Radiación solar	32
31785	7	Sololá	701	Sololá	1	Sololá	6	Junio	2023-06-26T00:00:00	2024-11-08T08:00:00	2	Temperatura media	16.5
31786	7	Sololá	701	Sololá	1	Sololá	6	Junio	2023-06-26T00:00:00	2024-11-08T08:00:00	4	Temperatura máxima	16.5
31787	7	Sololá	701	Sololá	1	Sololá	6	Junio	2023-06-26T00:00:00	2024-11-08T08:00:00	3	Temperatura mínima	13.9
31788	7	Sololá	701	Sololá	1	Sololá	6	Junio	2023-06-26T00:00:00	2024-11-08T08:00:00	5	Humedad	74
31789	7	Sololá	701	Sololá	1	Sololá	6	Junio	2023-06-26T00:00:00	2024-11-08T08:00:00	6	Velocidad del viento	0
31790	7	Sololá	701	Sololá	1	Sololá	6	Junio	2023-06-26T00:00:00	2024-11-08T08:00:00	7	Dirección del viento	0
31791	7	Sololá	701	Sololá	1	Sololá	6	Junio	2023-06-26T00:00:00	2024-11-08T08:00:00	1	Precipitación	0
31792	7	Sololá	701	Sololá	1	Sololá	6	Junio	2023-06-26T00:00:00	2024-11-08T08:00:00	8	Radiación solar	119
31793	7	Sololá	701	Sololá	1	Sololá	6	Junio	2023-06-26T00:00:00	2024-11-08T09:00:00	2	Temperatura media	18.1
31794	7	Sololá	701	Sololá	1	Sololá	6	Junio	2023-06-26T00:00:00	2024-11-08T09:00:00	4	Temperatura máxima	18.1
31795	7	Sololá	701	Sololá	1	Sololá	6	Junio	2023-06-26T00:00:00	2024-11-08T09:00:00	3	Temperatura mínima	16.5
31796	7	Sololá	701	Sololá	1	Sololá	6	Junio	2023-06-26T00:00:00	2024-11-08T09:00:00	5	Humedad	71
31797	7	Sololá	701	Sololá	1	Sololá	6	Junio	2023-06-26T00:00:00	2024-11-08T09:00:00	6	Velocidad del viento	0
31798	7	Sololá	701	Sololá	1	Sololá	6	Junio	2023-06-26T00:00:00	2024-11-08T09:00:00	7	Dirección del viento	0
31799	7	Sololá	701	Sololá	1	Sololá	6	Junio	2023-06-26T00:00:00	2024-11-08T09:00:00	1	Precipitación	0
31800	7	Sololá	701	Sololá	1	Sololá	6	Junio	2023-06-26T00:00:00	2024-11-08T09:00:00	8	Radiación solar	175
31801	7	Sololá	701	Sololá	1	Sololá	6	Junio	2023-06-26T00:00:00	2024-11-08T10:00:00	2	Temperatura media	20.4
31802	7	Sololá	701	Sololá	1	Sololá	6	Junio	2023-06-26T00:00:00	2024-11-08T10:00:00	4	Temperatura máxima	20.4
31803	7	Sololá	701	Sololá	1	Sololá	6	Junio	2023-06-26T00:00:00	2024-11-08T10:00:00	3	Temperatura mínima	18.1
31804	7	Sololá	701	Sololá	1	Sololá	6	Junio	2023-06-26T00:00:00	2024-11-08T10:00:00	5	Humedad	69
31805	7	Sololá	701	Sololá	1	Sololá	6	Junio	2023-06-26T00:00:00	2024-11-08T10:00:00	6	Velocidad del viento	0
31806	7	Sololá	701	Sololá	1	Sololá	6	Junio	2023-06-26T00:00:00	2024-11-08T10:00:00	7	Dirección del viento	0
31807	7	Sololá	701	Sololá	1	Sololá	6	Junio	2023-06-26T00:00:00	2024-11-08T10:00:00	1	Precipitación	0
31808	7	Sololá	701	Sololá	1	Sololá	6	Junio	2023-06-26T00:00:00	2024-11-08T10:00:00	8	Radiación solar	337
31809	7	Sololá	701	Sololá	1	Sololá	6	Junio	2023-06-26T00:00:00	2024-11-08T11:00:00	2	Temperatura media	23.1
31810	7	Sololá	701	Sololá	1	Sololá	6	Junio	2023-06-26T00:00:00	2024-11-08T11:00:00	4	Temperatura máxima	23.2
31811	7	Sololá	701	Sololá	1	Sololá	6	Junio	2023-06-26T00:00:00	2024-11-08T11:00:00	3	Temperatura mínima	20.4
31812	7	Sololá	701	Sololá	1	Sololá	6	Junio	2023-06-26T00:00:00	2024-11-08T11:00:00	5	Humedad	60
31813	7	Sololá	701	Sololá	1	Sololá	6	Junio	2023-06-26T00:00:00	2024-11-08T11:00:00	6	Velocidad del viento	0
31814	7	Sololá	701	Sololá	1	Sololá	6	Junio	2023-06-26T00:00:00	2024-11-08T11:00:00	7	Dirección del viento	0
31815	7	Sololá	701	Sololá	1	Sololá	6	Junio	2023-06-26T00:00:00	2024-11-08T11:00:00	1	Precipitación	0
31816	7	Sololá	701	Sololá	1	Sololá	6	Junio	2023-06-26T00:00:00	2024-11-08T11:00:00	8	Radiación solar	779
31817	7	Sololá	701	Sololá	1	Sololá	6	Junio	2023-06-26T00:00:00	2024-11-08T12:00:00	2	Temperatura media	23.2
31818	7	Sololá	701	Sololá	1	Sololá	6	Junio	2023-06-26T00:00:00	2024-11-08T12:00:00	4	Temperatura máxima	23.2
31819	7	Sololá	701	Sololá	1	Sololá	6	Junio	2023-06-26T00:00:00	2024-11-08T12:00:00	3	Temperatura mínima	22.7
31820	7	Sololá	701	Sololá	1	Sololá	6	Junio	2023-06-26T00:00:00	2024-11-08T12:00:00	5	Humedad	60
31821	7	Sololá	701	Sololá	1	Sololá	6	Junio	2023-06-26T00:00:00	2024-11-08T12:00:00	6	Velocidad del viento	0
31822	7	Sololá	701	Sololá	1	Sololá	6	Junio	2023-06-26T00:00:00	2024-11-08T12:00:00	7	Dirección del viento	0
31823	7	Sololá	701	Sololá	1	Sololá	6	Junio	2023-06-26T00:00:00	2024-11-08T12:00:00	1	Precipitación	0
31824	7	Sololá	701	Sololá	1	Sololá	6	Junio	2023-06-26T00:00:00	2024-11-08T12:00:00	8	Radiación solar	724
31825	7	Sololá	701	Sololá	1	Sololá	6	Junio	2023-06-26T00:00:00	2024-11-08T13:00:00	2	Temperatura media	24
31826	7	Sololá	701	Sololá	1	Sololá	6	Junio	2023-06-26T00:00:00	2024-11-08T13:00:00	4	Temperatura máxima	24
31827	7	Sololá	701	Sololá	1	Sololá	6	Junio	2023-06-26T00:00:00	2024-11-08T13:00:00	3	Temperatura mínima	23.2
31828	7	Sololá	701	Sololá	1	Sololá	6	Junio	2023-06-26T00:00:00	2024-11-08T13:00:00	5	Humedad	56
31829	7	Sololá	701	Sololá	1	Sololá	6	Junio	2023-06-26T00:00:00	2024-11-08T13:00:00	6	Velocidad del viento	0
31830	7	Sololá	701	Sololá	1	Sololá	6	Junio	2023-06-26T00:00:00	2024-11-08T13:00:00	7	Dirección del viento	0
31831	7	Sololá	701	Sololá	1	Sololá	6	Junio	2023-06-26T00:00:00	2024-11-08T13:00:00	1	Precipitación	0
31832	7	Sololá	701	Sololá	1	Sololá	6	Junio	2023-06-26T00:00:00	2024-11-08T13:00:00	8	Radiación solar	171
31833	7	Sololá	701	Sololá	1	Sololá	6	Junio	2023-06-26T00:00:00	2024-11-08T14:00:00	2	Temperatura media	24
31834	7	Sololá	701	Sololá	1	Sololá	6	Junio	2023-06-26T00:00:00	2024-11-08T14:00:00	4	Temperatura máxima	24
31835	7	Sololá	701	Sololá	1	Sololá	6	Junio	2023-06-26T00:00:00	2024-11-08T14:00:00	3	Temperatura mínima	23.4
31836	7	Sololá	701	Sololá	1	Sololá	6	Junio	2023-06-26T00:00:00	2024-11-08T14:00:00	5	Humedad	57
31837	7	Sololá	701	Sololá	1	Sololá	6	Junio	2023-06-26T00:00:00	2024-11-08T14:00:00	6	Velocidad del viento	0
31838	7	Sololá	701	Sololá	1	Sololá	6	Junio	2023-06-26T00:00:00	2024-11-08T14:00:00	7	Dirección del viento	0
31839	7	Sololá	701	Sololá	1	Sololá	6	Junio	2023-06-26T00:00:00	2024-11-08T14:00:00	1	Precipitación	0
31840	7	Sololá	701	Sololá	1	Sololá	6	Junio	2023-06-26T00:00:00	2024-11-08T14:00:00	8	Radiación solar	161
31841	7	Sololá	701	Sololá	1	Sololá	6	Junio	2023-06-26T00:00:00	2024-11-08T15:00:00	2	Temperatura media	23.5
31842	7	Sololá	701	Sololá	1	Sololá	6	Junio	2023-06-26T00:00:00	2024-11-08T15:00:00	4	Temperatura máxima	24.1
31843	7	Sololá	701	Sololá	1	Sololá	6	Junio	2023-06-26T00:00:00	2024-11-08T15:00:00	3	Temperatura mínima	23.2
31844	7	Sololá	701	Sololá	1	Sololá	6	Junio	2023-06-26T00:00:00	2024-11-08T15:00:00	5	Humedad	58
31845	7	Sololá	701	Sololá	1	Sololá	6	Junio	2023-06-26T00:00:00	2024-11-08T15:00:00	6	Velocidad del viento	0
31846	7	Sololá	701	Sololá	1	Sololá	6	Junio	2023-06-26T00:00:00	2024-11-08T15:00:00	7	Dirección del viento	0
31847	7	Sololá	701	Sololá	1	Sololá	6	Junio	2023-06-26T00:00:00	2024-11-08T15:00:00	1	Precipitación	0
31848	7	Sololá	701	Sololá	1	Sololá	6	Junio	2023-06-26T00:00:00	2024-11-08T15:00:00	8	Radiación solar	128
31849	7	Sololá	701	Sololá	1	Sololá	6	Junio	2023-06-26T00:00:00	2024-11-08T16:00:00	2	Temperatura media	23
31850	7	Sololá	701	Sololá	1	Sololá	6	Junio	2023-06-26T00:00:00	2024-11-08T16:00:00	4	Temperatura máxima	23.5
31851	7	Sololá	701	Sololá	1	Sololá	6	Junio	2023-06-26T00:00:00	2024-11-08T16:00:00	3	Temperatura mínima	22.8
31852	7	Sololá	701	Sololá	1	Sololá	6	Junio	2023-06-26T00:00:00	2024-11-08T16:00:00	5	Humedad	58
31853	7	Sololá	701	Sololá	1	Sololá	6	Junio	2023-06-26T00:00:00	2024-11-08T16:00:00	6	Velocidad del viento	0
31854	7	Sololá	701	Sololá	1	Sololá	6	Junio	2023-06-26T00:00:00	2024-11-08T16:00:00	7	Dirección del viento	0
31855	7	Sololá	701	Sololá	1	Sololá	6	Junio	2023-06-26T00:00:00	2024-11-08T16:00:00	1	Precipitación	0
31856	7	Sololá	701	Sololá	1	Sololá	6	Junio	2023-06-26T00:00:00	2024-11-08T16:00:00	8	Radiación solar	82
31857	7	Sololá	701	Sololá	1	Sololá	6	Junio	2023-06-26T00:00:00	2024-11-08T17:00:00	2	Temperatura media	21.4
31858	7	Sololá	701	Sololá	1	Sololá	6	Junio	2023-06-26T00:00:00	2024-11-08T17:00:00	4	Temperatura máxima	23.2
31859	7	Sololá	701	Sololá	1	Sololá	6	Junio	2023-06-26T00:00:00	2024-11-08T17:00:00	3	Temperatura mínima	21.4
31860	7	Sololá	701	Sololá	1	Sololá	6	Junio	2023-06-26T00:00:00	2024-11-08T17:00:00	5	Humedad	78
31861	7	Sololá	701	Sololá	1	Sololá	6	Junio	2023-06-26T00:00:00	2024-11-08T17:00:00	6	Velocidad del viento	0
31862	7	Sololá	701	Sololá	1	Sololá	6	Junio	2023-06-26T00:00:00	2024-11-08T17:00:00	7	Dirección del viento	0
31863	7	Sololá	701	Sololá	1	Sololá	6	Junio	2023-06-26T00:00:00	2024-11-08T17:00:00	1	Precipitación	0
31864	7	Sololá	701	Sololá	1	Sololá	6	Junio	2023-06-26T00:00:00	2024-11-08T17:00:00	8	Radiación solar	61
31865	7	Sololá	701	Sololá	1	Sololá	6	Junio	2023-06-26T00:00:00	2024-11-08T18:00:00	2	Temperatura media	19.7
31866	7	Sololá	701	Sololá	1	Sololá	6	Junio	2023-06-26T00:00:00	2024-11-08T18:00:00	4	Temperatura máxima	21.4
31867	7	Sololá	701	Sololá	1	Sololá	6	Junio	2023-06-26T00:00:00	2024-11-08T18:00:00	3	Temperatura mínima	19.7
31868	7	Sololá	701	Sololá	1	Sololá	6	Junio	2023-06-26T00:00:00	2024-11-08T18:00:00	5	Humedad	86
31869	7	Sololá	701	Sololá	1	Sololá	6	Junio	2023-06-26T00:00:00	2024-11-08T18:00:00	6	Velocidad del viento	0
31870	7	Sololá	701	Sololá	1	Sololá	6	Junio	2023-06-26T00:00:00	2024-11-08T18:00:00	7	Dirección del viento	0
31871	7	Sololá	701	Sololá	1	Sololá	6	Junio	2023-06-26T00:00:00	2024-11-08T18:00:00	1	Precipitación	0
31872	7	Sololá	701	Sololá	1	Sololá	6	Junio	2023-06-26T00:00:00	2024-11-08T18:00:00	8	Radiación solar	35
31873	7	Sololá	701	Sololá	1	Sololá	6	Junio	2023-06-26T00:00:00	2024-11-08T19:00:00	2	Temperatura media	18.2
31874	7	Sololá	701	Sololá	1	Sololá	6	Junio	2023-06-26T00:00:00	2024-11-08T19:00:00	4	Temperatura máxima	19.7
31875	7	Sololá	701	Sololá	1	Sololá	6	Junio	2023-06-26T00:00:00	2024-11-08T19:00:00	3	Temperatura mínima	18.2
31876	7	Sololá	701	Sololá	1	Sololá	6	Junio	2023-06-26T00:00:00	2024-11-08T19:00:00	5	Humedad	88
31877	7	Sololá	701	Sololá	1	Sololá	6	Junio	2023-06-26T00:00:00	2024-11-08T19:00:00	6	Velocidad del viento	0
31878	7	Sololá	701	Sololá	1	Sololá	6	Junio	2023-06-26T00:00:00	2024-11-08T19:00:00	7	Dirección del viento	0
31879	7	Sololá	701	Sololá	1	Sololá	6	Junio	2023-06-26T00:00:00	2024-11-08T19:00:00	1	Precipitación	0
31880	7	Sololá	701	Sololá	1	Sololá	6	Junio	2023-06-26T00:00:00	2024-11-08T19:00:00	8	Radiación solar	0
31881	7	Sololá	701	Sololá	1	Sololá	6	Junio	2023-06-26T00:00:00	2024-11-08T20:00:00	2	Temperatura media	17.1
31882	7	Sololá	701	Sololá	1	Sololá	6	Junio	2023-06-26T00:00:00	2024-11-08T20:00:00	4	Temperatura máxima	18.2
31883	7	Sololá	701	Sololá	1	Sololá	6	Junio	2023-06-26T00:00:00	2024-11-08T20:00:00	3	Temperatura mínima	17.1
31884	7	Sololá	701	Sololá	1	Sololá	6	Junio	2023-06-26T00:00:00	2024-11-08T20:00:00	5	Humedad	84
31885	7	Sololá	701	Sololá	1	Sololá	6	Junio	2023-06-26T00:00:00	2024-11-08T20:00:00	6	Velocidad del viento	0
31886	7	Sololá	701	Sololá	1	Sololá	6	Junio	2023-06-26T00:00:00	2024-11-08T20:00:00	7	Dirección del viento	0
31887	7	Sololá	701	Sololá	1	Sololá	6	Junio	2023-06-26T00:00:00	2024-11-08T20:00:00	1	Precipitación	0
31888	7	Sololá	701	Sololá	1	Sololá	6	Junio	2023-06-26T00:00:00	2024-11-08T20:00:00	8	Radiación solar	0
31889	7	Sololá	701	Sololá	1	Sololá	6	Junio	2023-06-26T00:00:00	2024-11-08T21:00:00	2	Temperatura media	16.6
31890	7	Sololá	701	Sololá	1	Sololá	6	Junio	2023-06-26T00:00:00	2024-11-08T21:00:00	4	Temperatura máxima	17.2
31891	7	Sololá	701	Sololá	1	Sololá	6	Junio	2023-06-26T00:00:00	2024-11-08T21:00:00	3	Temperatura mínima	16.6
31892	7	Sololá	701	Sololá	1	Sololá	6	Junio	2023-06-26T00:00:00	2024-11-08T21:00:00	5	Humedad	85
31893	7	Sololá	701	Sololá	1	Sololá	6	Junio	2023-06-26T00:00:00	2024-11-08T21:00:00	6	Velocidad del viento	0
31894	7	Sololá	701	Sololá	1	Sololá	6	Junio	2023-06-26T00:00:00	2024-11-08T21:00:00	7	Dirección del viento	0
31895	7	Sololá	701	Sololá	1	Sololá	6	Junio	2023-06-26T00:00:00	2024-11-08T21:00:00	1	Precipitación	0
31896	7	Sololá	701	Sololá	1	Sololá	6	Junio	2023-06-26T00:00:00	2024-11-08T21:00:00	8	Radiación solar	0
31897	7	Sololá	701	Sololá	1	Sololá	6	Junio	2023-06-26T00:00:00	2024-11-08T22:00:00	2	Temperatura media	15.2
31898	7	Sololá	701	Sololá	1	Sololá	6	Junio	2023-06-26T00:00:00	2024-11-08T22:00:00	4	Temperatura máxima	16.6
31899	7	Sololá	701	Sololá	1	Sololá	6	Junio	2023-06-26T00:00:00	2024-11-08T22:00:00	3	Temperatura mínima	15.2
31900	7	Sololá	701	Sololá	1	Sololá	6	Junio	2023-06-26T00:00:00	2024-11-08T22:00:00	5	Humedad	90
31901	7	Sololá	701	Sololá	1	Sololá	6	Junio	2023-06-26T00:00:00	2024-11-08T22:00:00	6	Velocidad del viento	0
31902	7	Sololá	701	Sololá	1	Sololá	6	Junio	2023-06-26T00:00:00	2024-11-08T22:00:00	7	Dirección del viento	0
31903	7	Sololá	701	Sololá	1	Sololá	6	Junio	2023-06-26T00:00:00	2024-11-08T22:00:00	1	Precipitación	0.2
31904	7	Sololá	701	Sololá	1	Sololá	6	Junio	2023-06-26T00:00:00	2024-11-08T22:00:00	8	Radiación solar	0
31905	7	Sololá	701	Sololá	1	Sololá	6	Junio	2023-06-26T00:00:00	2024-11-08T23:00:00	2	Temperatura media	15
31906	7	Sololá	701	Sololá	1	Sololá	6	Junio	2023-06-26T00:00:00	2024-11-08T23:00:00	4	Temperatura máxima	15.2
31907	7	Sololá	701	Sololá	1	Sololá	6	Junio	2023-06-26T00:00:00	2024-11-08T23:00:00	3	Temperatura mínima	14.8
31908	7	Sololá	701	Sololá	1	Sololá	6	Junio	2023-06-26T00:00:00	2024-11-08T23:00:00	5	Humedad	90
31909	7	Sololá	701	Sololá	1	Sololá	6	Junio	2023-06-26T00:00:00	2024-11-08T23:00:00	6	Velocidad del viento	0
31910	7	Sololá	701	Sololá	1	Sololá	6	Junio	2023-06-26T00:00:00	2024-11-08T23:00:00	7	Dirección del viento	0
31911	7	Sololá	701	Sololá	1	Sololá	6	Junio	2023-06-26T00:00:00	2024-11-08T23:00:00	1	Precipitación	0
31912	7	Sololá	701	Sololá	1	Sololá	6	Junio	2023-06-26T00:00:00	2024-11-08T23:00:00	8	Radiación solar	0
31913	7	Sololá	701	Sololá	1	Sololá	6	Junio	2023-06-27T00:00:00	2024-11-08T00:00:00	2	Temperatura media	14.9
31914	7	Sololá	701	Sololá	1	Sololá	6	Junio	2023-06-27T00:00:00	2024-11-08T00:00:00	4	Temperatura máxima	15.1
31915	7	Sololá	701	Sololá	1	Sololá	6	Junio	2023-06-27T00:00:00	2024-11-08T00:00:00	3	Temperatura mínima	14.9
31916	7	Sololá	701	Sololá	1	Sololá	6	Junio	2023-06-27T00:00:00	2024-11-08T00:00:00	5	Humedad	89
31917	7	Sololá	701	Sololá	1	Sololá	6	Junio	2023-06-27T00:00:00	2024-11-08T00:00:00	6	Velocidad del viento	0
31918	7	Sololá	701	Sololá	1	Sololá	6	Junio	2023-06-27T00:00:00	2024-11-08T00:00:00	7	Dirección del viento	0
31919	7	Sololá	701	Sololá	1	Sololá	6	Junio	2023-06-27T00:00:00	2024-11-08T00:00:00	1	Precipitación	0
31920	7	Sololá	701	Sololá	1	Sololá	6	Junio	2023-06-27T00:00:00	2024-11-08T00:00:00	8	Radiación solar	0
31921	7	Sololá	701	Sololá	1	Sololá	6	Junio	2023-06-27T00:00:00	2024-11-08T01:00:00	2	Temperatura media	14.7
31922	7	Sololá	701	Sololá	1	Sololá	6	Junio	2023-06-27T00:00:00	2024-11-08T01:00:00	4	Temperatura máxima	14.9
31923	7	Sololá	701	Sololá	1	Sololá	6	Junio	2023-06-27T00:00:00	2024-11-08T01:00:00	3	Temperatura mínima	14.7
31924	7	Sololá	701	Sololá	1	Sololá	6	Junio	2023-06-27T00:00:00	2024-11-08T01:00:00	5	Humedad	90
31925	7	Sololá	701	Sololá	1	Sololá	6	Junio	2023-06-27T00:00:00	2024-11-08T01:00:00	6	Velocidad del viento	0
31926	7	Sololá	701	Sololá	1	Sololá	6	Junio	2023-06-27T00:00:00	2024-11-08T01:00:00	7	Dirección del viento	0
31927	7	Sololá	701	Sololá	1	Sololá	6	Junio	2023-06-27T00:00:00	2024-11-08T01:00:00	1	Precipitación	0
31928	7	Sololá	701	Sololá	1	Sololá	6	Junio	2023-06-27T00:00:00	2024-11-08T01:00:00	8	Radiación solar	0
31929	7	Sololá	701	Sololá	1	Sololá	6	Junio	2023-06-27T00:00:00	2024-11-08T02:00:00	2	Temperatura media	14.7
31930	7	Sololá	701	Sololá	1	Sololá	6	Junio	2023-06-27T00:00:00	2024-11-08T02:00:00	4	Temperatura máxima	14.8
31931	7	Sololá	701	Sololá	1	Sololá	6	Junio	2023-06-27T00:00:00	2024-11-08T02:00:00	3	Temperatura mínima	14.6
31932	7	Sololá	701	Sololá	1	Sololá	6	Junio	2023-06-27T00:00:00	2024-11-08T02:00:00	5	Humedad	90
31933	7	Sololá	701	Sololá	1	Sololá	6	Junio	2023-06-27T00:00:00	2024-11-08T02:00:00	6	Velocidad del viento	0
31934	7	Sololá	701	Sololá	1	Sololá	6	Junio	2023-06-27T00:00:00	2024-11-08T02:00:00	7	Dirección del viento	0
31935	7	Sololá	701	Sololá	1	Sololá	6	Junio	2023-06-27T00:00:00	2024-11-08T02:00:00	1	Precipitación	0
31936	7	Sololá	701	Sololá	1	Sololá	6	Junio	2023-06-27T00:00:00	2024-11-08T02:00:00	8	Radiación solar	0
31937	7	Sololá	701	Sololá	1	Sololá	6	Junio	2023-06-27T00:00:00	2024-11-08T03:00:00	2	Temperatura media	14.5
31938	7	Sololá	701	Sololá	1	Sololá	6	Junio	2023-06-27T00:00:00	2024-11-08T03:00:00	4	Temperatura máxima	14.7
31939	7	Sololá	701	Sololá	1	Sololá	6	Junio	2023-06-27T00:00:00	2024-11-08T03:00:00	3	Temperatura mínima	14.4
31940	7	Sololá	701	Sololá	1	Sololá	6	Junio	2023-06-27T00:00:00	2024-11-08T03:00:00	5	Humedad	90
31941	7	Sololá	701	Sololá	1	Sololá	6	Junio	2023-06-27T00:00:00	2024-11-08T03:00:00	6	Velocidad del viento	0
31942	7	Sololá	701	Sololá	1	Sololá	6	Junio	2023-06-27T00:00:00	2024-11-08T03:00:00	7	Dirección del viento	0
31943	7	Sololá	701	Sololá	1	Sololá	6	Junio	2023-06-27T00:00:00	2024-11-08T03:00:00	1	Precipitación	0
31944	7	Sololá	701	Sololá	1	Sololá	6	Junio	2023-06-27T00:00:00	2024-11-08T03:00:00	8	Radiación solar	0
31945	7	Sololá	701	Sololá	1	Sololá	6	Junio	2023-06-27T00:00:00	2024-11-08T04:00:00	2	Temperatura media	14.6
31946	7	Sololá	701	Sololá	1	Sololá	6	Junio	2023-06-27T00:00:00	2024-11-08T04:00:00	4	Temperatura máxima	14.6
31947	7	Sololá	701	Sololá	1	Sololá	6	Junio	2023-06-27T00:00:00	2024-11-08T04:00:00	3	Temperatura mínima	14.4
31948	7	Sololá	701	Sololá	1	Sololá	6	Junio	2023-06-27T00:00:00	2024-11-08T04:00:00	5	Humedad	90
31949	7	Sololá	701	Sololá	1	Sololá	6	Junio	2023-06-27T00:00:00	2024-11-08T04:00:00	6	Velocidad del viento	0
31950	7	Sololá	701	Sololá	1	Sololá	6	Junio	2023-06-27T00:00:00	2024-11-08T04:00:00	7	Dirección del viento	0
31951	7	Sololá	701	Sololá	1	Sololá	6	Junio	2023-06-27T00:00:00	2024-11-08T04:00:00	1	Precipitación	0
31952	7	Sololá	701	Sololá	1	Sololá	6	Junio	2023-06-27T00:00:00	2024-11-08T04:00:00	8	Radiación solar	0
31953	7	Sololá	701	Sololá	1	Sololá	6	Junio	2023-06-27T00:00:00	2024-11-08T05:00:00	2	Temperatura media	14.8
31954	7	Sololá	701	Sololá	1	Sololá	6	Junio	2023-06-27T00:00:00	2024-11-08T05:00:00	4	Temperatura máxima	14.8
31955	7	Sololá	701	Sololá	1	Sololá	6	Junio	2023-06-27T00:00:00	2024-11-08T05:00:00	3	Temperatura mínima	14.6
31956	7	Sololá	701	Sololá	1	Sololá	6	Junio	2023-06-27T00:00:00	2024-11-08T05:00:00	5	Humedad	86
31957	7	Sololá	701	Sololá	1	Sololá	6	Junio	2023-06-27T00:00:00	2024-11-08T05:00:00	6	Velocidad del viento	0
31958	7	Sololá	701	Sololá	1	Sololá	6	Junio	2023-06-27T00:00:00	2024-11-08T05:00:00	7	Dirección del viento	0
31959	7	Sololá	701	Sololá	1	Sololá	6	Junio	2023-06-27T00:00:00	2024-11-08T05:00:00	1	Precipitación	0
31960	7	Sololá	701	Sololá	1	Sololá	6	Junio	2023-06-27T00:00:00	2024-11-08T05:00:00	8	Radiación solar	0
31961	7	Sololá	701	Sololá	1	Sololá	6	Junio	2023-06-27T00:00:00	2024-11-08T06:00:00	2	Temperatura media	14.8
31962	7	Sololá	701	Sololá	1	Sololá	6	Junio	2023-06-27T00:00:00	2024-11-08T06:00:00	4	Temperatura máxima	15.4
31963	7	Sololá	701	Sololá	1	Sololá	6	Junio	2023-06-27T00:00:00	2024-11-08T06:00:00	3	Temperatura mínima	14.8
31964	7	Sololá	701	Sololá	1	Sololá	6	Junio	2023-06-27T00:00:00	2024-11-08T06:00:00	5	Humedad	85
31965	7	Sololá	701	Sololá	1	Sololá	6	Junio	2023-06-27T00:00:00	2024-11-08T06:00:00	6	Velocidad del viento	0
31966	7	Sololá	701	Sololá	1	Sololá	6	Junio	2023-06-27T00:00:00	2024-11-08T06:00:00	7	Dirección del viento	0
31967	7	Sololá	701	Sololá	1	Sololá	6	Junio	2023-06-27T00:00:00	2024-11-08T06:00:00	1	Precipitación	0
31968	7	Sololá	701	Sololá	1	Sololá	6	Junio	2023-06-27T00:00:00	2024-11-08T06:00:00	8	Radiación solar	2
31969	7	Sololá	701	Sololá	1	Sololá	6	Junio	2023-06-27T00:00:00	2024-11-08T07:00:00	2	Temperatura media	15.3
31970	7	Sololá	701	Sololá	1	Sololá	6	Junio	2023-06-27T00:00:00	2024-11-08T07:00:00	4	Temperatura máxima	15.3
31971	7	Sololá	701	Sololá	1	Sololá	6	Junio	2023-06-27T00:00:00	2024-11-08T07:00:00	3	Temperatura mínima	14.7
31972	7	Sololá	701	Sololá	1	Sololá	6	Junio	2023-06-27T00:00:00	2024-11-08T07:00:00	5	Humedad	83
31973	7	Sololá	701	Sololá	1	Sololá	6	Junio	2023-06-27T00:00:00	2024-11-08T07:00:00	6	Velocidad del viento	0
31974	7	Sololá	701	Sololá	1	Sololá	6	Junio	2023-06-27T00:00:00	2024-11-08T07:00:00	7	Dirección del viento	0
31975	7	Sololá	701	Sololá	1	Sololá	6	Junio	2023-06-27T00:00:00	2024-11-08T07:00:00	1	Precipitación	0
31976	7	Sololá	701	Sololá	1	Sololá	6	Junio	2023-06-27T00:00:00	2024-11-08T07:00:00	8	Radiación solar	41
31977	7	Sololá	701	Sololá	1	Sololá	6	Junio	2023-06-27T00:00:00	2024-11-08T08:00:00	2	Temperatura media	16.8
31978	7	Sololá	701	Sololá	1	Sololá	6	Junio	2023-06-27T00:00:00	2024-11-08T08:00:00	4	Temperatura máxima	16.8
31979	7	Sololá	701	Sololá	1	Sololá	6	Junio	2023-06-27T00:00:00	2024-11-08T08:00:00	3	Temperatura mínima	15.3
31980	7	Sololá	701	Sololá	1	Sololá	6	Junio	2023-06-27T00:00:00	2024-11-08T08:00:00	5	Humedad	80
31981	7	Sololá	701	Sololá	1	Sololá	6	Junio	2023-06-27T00:00:00	2024-11-08T08:00:00	6	Velocidad del viento	0
31982	7	Sololá	701	Sololá	1	Sololá	6	Junio	2023-06-27T00:00:00	2024-11-08T08:00:00	7	Dirección del viento	0
31983	7	Sololá	701	Sololá	1	Sololá	6	Junio	2023-06-27T00:00:00	2024-11-08T08:00:00	1	Precipitación	0
31984	7	Sololá	701	Sololá	1	Sololá	6	Junio	2023-06-27T00:00:00	2024-11-08T08:00:00	8	Radiación solar	120
31985	7	Sololá	701	Sololá	1	Sololá	6	Junio	2023-06-27T00:00:00	2024-11-08T09:00:00	2	Temperatura media	19.7
31986	7	Sololá	701	Sololá	1	Sololá	6	Junio	2023-06-27T00:00:00	2024-11-08T09:00:00	4	Temperatura máxima	19.7
31987	7	Sololá	701	Sololá	1	Sololá	6	Junio	2023-06-27T00:00:00	2024-11-08T09:00:00	3	Temperatura mínima	16.8
31988	7	Sololá	701	Sololá	1	Sololá	6	Junio	2023-06-27T00:00:00	2024-11-08T09:00:00	5	Humedad	71
31989	7	Sololá	701	Sololá	1	Sololá	6	Junio	2023-06-27T00:00:00	2024-11-08T09:00:00	6	Velocidad del viento	0
31990	7	Sololá	701	Sololá	1	Sololá	6	Junio	2023-06-27T00:00:00	2024-11-08T09:00:00	7	Dirección del viento	0
31991	7	Sololá	701	Sololá	1	Sololá	6	Junio	2023-06-27T00:00:00	2024-11-08T09:00:00	1	Precipitación	0
31992	7	Sololá	701	Sololá	1	Sololá	6	Junio	2023-06-27T00:00:00	2024-11-08T09:00:00	8	Radiación solar	359
31993	7	Sololá	701	Sololá	1	Sololá	6	Junio	2023-06-27T00:00:00	2024-11-08T10:00:00	2	Temperatura media	21.4
31994	7	Sololá	701	Sololá	1	Sololá	6	Junio	2023-06-27T00:00:00	2024-11-08T10:00:00	4	Temperatura máxima	21.7
31995	7	Sololá	701	Sololá	1	Sololá	6	Junio	2023-06-27T00:00:00	2024-11-08T10:00:00	3	Temperatura mínima	19.8
31996	7	Sololá	701	Sololá	1	Sololá	6	Junio	2023-06-27T00:00:00	2024-11-08T10:00:00	5	Humedad	68
31997	7	Sololá	701	Sololá	1	Sololá	6	Junio	2023-06-27T00:00:00	2024-11-08T10:00:00	6	Velocidad del viento	0
31998	7	Sololá	701	Sololá	1	Sololá	6	Junio	2023-06-27T00:00:00	2024-11-08T10:00:00	7	Dirección del viento	0
31999	7	Sololá	701	Sololá	1	Sololá	6	Junio	2023-06-27T00:00:00	2024-11-08T10:00:00	1	Precipitación	0
32000	7	Sololá	701	Sololá	1	Sololá	6	Junio	2023-06-27T00:00:00	2024-11-08T10:00:00	8	Radiación solar	583
32001	7	Sololá	701	Sololá	1	Sololá	6	Junio	2023-06-27T00:00:00	2024-11-08T11:00:00	2	Temperatura media	20.1
32002	7	Sololá	701	Sololá	1	Sololá	6	Junio	2023-06-27T00:00:00	2024-11-08T11:00:00	4	Temperatura máxima	21.4
32003	7	Sololá	701	Sololá	1	Sololá	6	Junio	2023-06-27T00:00:00	2024-11-08T11:00:00	3	Temperatura mínima	20.1
32004	7	Sololá	701	Sololá	1	Sololá	6	Junio	2023-06-27T00:00:00	2024-11-08T11:00:00	5	Humedad	71
32005	7	Sololá	701	Sololá	1	Sololá	6	Junio	2023-06-27T00:00:00	2024-11-08T11:00:00	6	Velocidad del viento	0
32006	7	Sololá	701	Sololá	1	Sololá	6	Junio	2023-06-27T00:00:00	2024-11-08T11:00:00	7	Dirección del viento	0
32007	7	Sololá	701	Sololá	1	Sololá	6	Junio	2023-06-27T00:00:00	2024-11-08T11:00:00	1	Precipitación	0
32008	7	Sololá	701	Sololá	1	Sololá	6	Junio	2023-06-27T00:00:00	2024-11-08T11:00:00	8	Radiación solar	188
32009	7	Sololá	701	Sololá	1	Sololá	6	Junio	2023-06-27T00:00:00	2024-11-08T12:00:00	2	Temperatura media	18.8
32010	7	Sololá	701	Sololá	1	Sololá	6	Junio	2023-06-27T00:00:00	2024-11-08T12:00:00	4	Temperatura máxima	20.1
32011	7	Sololá	701	Sololá	1	Sololá	6	Junio	2023-06-27T00:00:00	2024-11-08T12:00:00	3	Temperatura mínima	18.8
32012	7	Sololá	701	Sololá	1	Sololá	6	Junio	2023-06-27T00:00:00	2024-11-08T12:00:00	5	Humedad	85
32013	7	Sololá	701	Sololá	1	Sololá	6	Junio	2023-06-27T00:00:00	2024-11-08T12:00:00	6	Velocidad del viento	0
32014	7	Sololá	701	Sololá	1	Sololá	6	Junio	2023-06-27T00:00:00	2024-11-08T12:00:00	7	Dirección del viento	0
32015	7	Sololá	701	Sololá	1	Sololá	6	Junio	2023-06-27T00:00:00	2024-11-08T12:00:00	1	Precipitación	0
32016	7	Sololá	701	Sololá	1	Sololá	6	Junio	2023-06-27T00:00:00	2024-11-08T12:00:00	8	Radiación solar	154
32017	7	Sololá	701	Sololá	1	Sololá	6	Junio	2023-06-27T00:00:00	2024-11-08T13:00:00	2	Temperatura media	20.1
32018	7	Sololá	701	Sololá	1	Sololá	6	Junio	2023-06-27T00:00:00	2024-11-08T13:00:00	4	Temperatura máxima	20.2
32019	7	Sololá	701	Sololá	1	Sololá	6	Junio	2023-06-27T00:00:00	2024-11-08T13:00:00	3	Temperatura mínima	18.7
32020	7	Sololá	701	Sololá	1	Sololá	6	Junio	2023-06-27T00:00:00	2024-11-08T13:00:00	5	Humedad	81
32021	7	Sololá	701	Sololá	1	Sololá	6	Junio	2023-06-27T00:00:00	2024-11-08T13:00:00	6	Velocidad del viento	0
32022	7	Sololá	701	Sololá	1	Sololá	6	Junio	2023-06-27T00:00:00	2024-11-08T13:00:00	7	Dirección del viento	0
32023	7	Sololá	701	Sololá	1	Sololá	6	Junio	2023-06-27T00:00:00	2024-11-08T13:00:00	1	Precipitación	0
32024	7	Sololá	701	Sololá	1	Sololá	6	Junio	2023-06-27T00:00:00	2024-11-08T13:00:00	8	Radiación solar	215
32025	7	Sololá	701	Sololá	1	Sololá	6	Junio	2023-06-27T00:00:00	2024-11-08T14:00:00	2	Temperatura media	18.5
32026	7	Sololá	701	Sololá	1	Sololá	6	Junio	2023-06-27T00:00:00	2024-11-08T14:00:00	4	Temperatura máxima	20.2
32027	7	Sololá	701	Sololá	1	Sololá	6	Junio	2023-06-27T00:00:00	2024-11-08T14:00:00	3	Temperatura mínima	18.5
32028	7	Sololá	701	Sololá	1	Sololá	6	Junio	2023-06-27T00:00:00	2024-11-08T14:00:00	5	Humedad	88
32029	7	Sololá	701	Sololá	1	Sololá	6	Junio	2023-06-27T00:00:00	2024-11-08T14:00:00	6	Velocidad del viento	0
32030	7	Sololá	701	Sololá	1	Sololá	6	Junio	2023-06-27T00:00:00	2024-11-08T14:00:00	7	Dirección del viento	0
32031	7	Sololá	701	Sololá	1	Sololá	6	Junio	2023-06-27T00:00:00	2024-11-08T14:00:00	1	Precipitación	0
32032	7	Sololá	701	Sololá	1	Sololá	6	Junio	2023-06-27T00:00:00	2024-11-08T14:00:00	8	Radiación solar	96
32033	7	Sololá	701	Sololá	1	Sololá	6	Junio	2023-06-27T00:00:00	2024-11-08T15:00:00	2	Temperatura media	18.7
32034	7	Sololá	701	Sololá	1	Sololá	6	Junio	2023-06-27T00:00:00	2024-11-08T15:00:00	4	Temperatura máxima	19.4
32035	7	Sololá	701	Sololá	1	Sololá	6	Junio	2023-06-27T00:00:00	2024-11-08T15:00:00	3	Temperatura mínima	18.4
32036	7	Sololá	701	Sololá	1	Sololá	6	Junio	2023-06-27T00:00:00	2024-11-08T15:00:00	5	Humedad	87
32037	7	Sololá	701	Sololá	1	Sololá	6	Junio	2023-06-27T00:00:00	2024-11-08T15:00:00	6	Velocidad del viento	0
32038	7	Sololá	701	Sololá	1	Sololá	6	Junio	2023-06-27T00:00:00	2024-11-08T15:00:00	7	Dirección del viento	0
32039	7	Sololá	701	Sololá	1	Sololá	6	Junio	2023-06-27T00:00:00	2024-11-08T15:00:00	1	Precipitación	0
32040	7	Sololá	701	Sololá	1	Sololá	6	Junio	2023-06-27T00:00:00	2024-11-08T15:00:00	8	Radiación solar	147
32041	7	Sololá	701	Sololá	1	Sololá	6	Junio	2023-06-27T00:00:00	2024-11-08T16:00:00	2	Temperatura media	17
32042	7	Sololá	701	Sololá	1	Sololá	6	Junio	2023-06-27T00:00:00	2024-11-08T16:00:00	4	Temperatura máxima	18.7
32043	7	Sololá	701	Sololá	1	Sololá	6	Junio	2023-06-27T00:00:00	2024-11-08T16:00:00	3	Temperatura mínima	17
32044	7	Sololá	701	Sololá	1	Sololá	6	Junio	2023-06-27T00:00:00	2024-11-08T16:00:00	5	Humedad	92
32045	7	Sololá	701	Sololá	1	Sololá	6	Junio	2023-06-27T00:00:00	2024-11-08T16:00:00	6	Velocidad del viento	0
32046	7	Sololá	701	Sololá	1	Sololá	6	Junio	2023-06-27T00:00:00	2024-11-08T16:00:00	7	Dirección del viento	0
32047	7	Sololá	701	Sololá	1	Sololá	6	Junio	2023-06-27T00:00:00	2024-11-08T16:00:00	1	Precipitación	0
32048	7	Sololá	701	Sololá	1	Sololá	6	Junio	2023-06-27T00:00:00	2024-11-08T16:00:00	8	Radiación solar	31
32049	7	Sololá	701	Sololá	1	Sololá	6	Junio	2023-06-27T00:00:00	2024-11-08T17:00:00	2	Temperatura media	16.1
32050	7	Sololá	701	Sololá	1	Sololá	6	Junio	2023-06-27T00:00:00	2024-11-08T17:00:00	4	Temperatura máxima	16.9
32051	7	Sololá	701	Sololá	1	Sololá	6	Junio	2023-06-27T00:00:00	2024-11-08T17:00:00	3	Temperatura mínima	16.1
32052	7	Sololá	701	Sololá	1	Sololá	6	Junio	2023-06-27T00:00:00	2024-11-08T17:00:00	5	Humedad	95
32053	7	Sololá	701	Sololá	1	Sololá	6	Junio	2023-06-27T00:00:00	2024-11-08T17:00:00	6	Velocidad del viento	0
32054	7	Sololá	701	Sololá	1	Sololá	6	Junio	2023-06-27T00:00:00	2024-11-08T17:00:00	7	Dirección del viento	0
32055	7	Sololá	701	Sololá	1	Sololá	6	Junio	2023-06-27T00:00:00	2024-11-08T17:00:00	1	Precipitación	0.8
32056	7	Sololá	701	Sololá	1	Sololá	6	Junio	2023-06-27T00:00:00	2024-11-08T17:00:00	8	Radiación solar	8
32057	7	Sololá	701	Sololá	1	Sololá	6	Junio	2023-06-27T00:00:00	2024-11-08T18:00:00	2	Temperatura media	15.8
32058	7	Sololá	701	Sololá	1	Sololá	6	Junio	2023-06-27T00:00:00	2024-11-08T18:00:00	4	Temperatura máxima	16.2
32059	7	Sololá	701	Sololá	1	Sololá	6	Junio	2023-06-27T00:00:00	2024-11-08T18:00:00	3	Temperatura mínima	15.8
32060	7	Sololá	701	Sololá	1	Sololá	6	Junio	2023-06-27T00:00:00	2024-11-08T18:00:00	5	Humedad	96
32061	7	Sololá	701	Sololá	1	Sololá	6	Junio	2023-06-27T00:00:00	2024-11-08T18:00:00	6	Velocidad del viento	0
32062	7	Sololá	701	Sololá	1	Sololá	6	Junio	2023-06-27T00:00:00	2024-11-08T18:00:00	7	Dirección del viento	0
32063	7	Sololá	701	Sololá	1	Sololá	6	Junio	2023-06-27T00:00:00	2024-11-08T18:00:00	1	Precipitación	4.4
32064	7	Sololá	701	Sololá	1	Sololá	6	Junio	2023-06-27T00:00:00	2024-11-08T18:00:00	8	Radiación solar	0
32065	7	Sololá	701	Sololá	1	Sololá	6	Junio	2023-06-27T00:00:00	2024-11-08T19:00:00	2	Temperatura media	15.4
32066	7	Sololá	701	Sololá	1	Sololá	6	Junio	2023-06-27T00:00:00	2024-11-08T19:00:00	4	Temperatura máxima	15.8
32067	7	Sololá	701	Sololá	1	Sololá	6	Junio	2023-06-27T00:00:00	2024-11-08T19:00:00	3	Temperatura mínima	15.4
32068	7	Sololá	701	Sololá	1	Sololá	6	Junio	2023-06-27T00:00:00	2024-11-08T19:00:00	5	Humedad	96
32069	7	Sololá	701	Sololá	1	Sololá	6	Junio	2023-06-27T00:00:00	2024-11-08T19:00:00	6	Velocidad del viento	0
32070	7	Sololá	701	Sololá	1	Sololá	6	Junio	2023-06-27T00:00:00	2024-11-08T19:00:00	7	Dirección del viento	0
32071	7	Sololá	701	Sololá	1	Sololá	6	Junio	2023-06-27T00:00:00	2024-11-08T19:00:00	1	Precipitación	4
32072	7	Sololá	701	Sololá	1	Sololá	6	Junio	2023-06-27T00:00:00	2024-11-08T19:00:00	8	Radiación solar	0
32073	7	Sololá	701	Sololá	1	Sololá	6	Junio	2023-06-27T00:00:00	2024-11-08T20:00:00	2	Temperatura media	15.1
32074	7	Sololá	701	Sololá	1	Sololá	6	Junio	2023-06-27T00:00:00	2024-11-08T20:00:00	4	Temperatura máxima	15.4
32075	7	Sololá	701	Sololá	1	Sololá	6	Junio	2023-06-27T00:00:00	2024-11-08T20:00:00	3	Temperatura mínima	15.1
32076	7	Sololá	701	Sololá	1	Sololá	6	Junio	2023-06-27T00:00:00	2024-11-08T20:00:00	5	Humedad	96
32077	7	Sololá	701	Sololá	1	Sololá	6	Junio	2023-06-27T00:00:00	2024-11-08T20:00:00	6	Velocidad del viento	0
32078	7	Sololá	701	Sololá	1	Sololá	6	Junio	2023-06-27T00:00:00	2024-11-08T20:00:00	7	Dirección del viento	0
32079	7	Sololá	701	Sololá	1	Sololá	6	Junio	2023-06-27T00:00:00	2024-11-08T20:00:00	1	Precipitación	1.2
32080	7	Sololá	701	Sololá	1	Sololá	6	Junio	2023-06-27T00:00:00	2024-11-08T20:00:00	8	Radiación solar	0
32081	7	Sololá	701	Sololá	1	Sololá	6	Junio	2023-06-27T00:00:00	2024-11-08T21:00:00	2	Temperatura media	14.6
32082	7	Sololá	701	Sololá	1	Sololá	6	Junio	2023-06-27T00:00:00	2024-11-08T21:00:00	4	Temperatura máxima	15.1
32083	7	Sololá	701	Sololá	1	Sololá	6	Junio	2023-06-27T00:00:00	2024-11-08T21:00:00	3	Temperatura mínima	14.6
32084	7	Sololá	701	Sololá	1	Sololá	6	Junio	2023-06-27T00:00:00	2024-11-08T21:00:00	5	Humedad	97
32085	7	Sololá	701	Sololá	1	Sololá	6	Junio	2023-06-27T00:00:00	2024-11-08T21:00:00	6	Velocidad del viento	0
32086	7	Sololá	701	Sololá	1	Sololá	6	Junio	2023-06-27T00:00:00	2024-11-08T21:00:00	7	Dirección del viento	0
32087	7	Sololá	701	Sololá	1	Sololá	6	Junio	2023-06-27T00:00:00	2024-11-08T21:00:00	1	Precipitación	0.6
32088	7	Sololá	701	Sololá	1	Sololá	6	Junio	2023-06-27T00:00:00	2024-11-08T21:00:00	8	Radiación solar	0
32089	7	Sololá	701	Sololá	1	Sololá	6	Junio	2023-06-27T00:00:00	2024-11-08T22:00:00	2	Temperatura media	14.5
32090	7	Sololá	701	Sololá	1	Sololá	6	Junio	2023-06-27T00:00:00	2024-11-08T22:00:00	4	Temperatura máxima	14.7
32091	7	Sololá	701	Sololá	1	Sololá	6	Junio	2023-06-27T00:00:00	2024-11-08T22:00:00	3	Temperatura mínima	14.5
32092	7	Sololá	701	Sololá	1	Sololá	6	Junio	2023-06-27T00:00:00	2024-11-08T22:00:00	5	Humedad	97
32093	7	Sololá	701	Sololá	1	Sololá	6	Junio	2023-06-27T00:00:00	2024-11-08T22:00:00	6	Velocidad del viento	0
32094	7	Sololá	701	Sololá	1	Sololá	6	Junio	2023-06-27T00:00:00	2024-11-08T22:00:00	7	Dirección del viento	0
32095	7	Sololá	701	Sololá	1	Sololá	6	Junio	2023-06-27T00:00:00	2024-11-08T22:00:00	1	Precipitación	0
32096	7	Sololá	701	Sololá	1	Sololá	6	Junio	2023-06-27T00:00:00	2024-11-08T22:00:00	8	Radiación solar	0
32097	7	Sololá	701	Sololá	1	Sololá	6	Junio	2023-06-27T00:00:00	2024-11-08T23:00:00	2	Temperatura media	14.4
32098	7	Sololá	701	Sololá	1	Sololá	6	Junio	2023-06-27T00:00:00	2024-11-08T23:00:00	4	Temperatura máxima	14.6
32099	7	Sololá	701	Sololá	1	Sololá	6	Junio	2023-06-27T00:00:00	2024-11-08T23:00:00	3	Temperatura mínima	14.3
32100	7	Sololá	701	Sololá	1	Sololá	6	Junio	2023-06-27T00:00:00	2024-11-08T23:00:00	5	Humedad	97
32101	7	Sololá	701	Sololá	1	Sololá	6	Junio	2023-06-27T00:00:00	2024-11-08T23:00:00	6	Velocidad del viento	0
32102	7	Sololá	701	Sololá	1	Sololá	6	Junio	2023-06-27T00:00:00	2024-11-08T23:00:00	7	Dirección del viento	0
32103	7	Sololá	701	Sololá	1	Sololá	6	Junio	2023-06-27T00:00:00	2024-11-08T23:00:00	1	Precipitación	0
32104	7	Sololá	701	Sololá	1	Sololá	6	Junio	2023-06-27T00:00:00	2024-11-08T23:00:00	8	Radiación solar	0
32105	7	Sololá	701	Sololá	1	Sololá	6	Junio	2023-06-28T00:00:00	2024-11-08T00:00:00	2	Temperatura media	14.4
32106	7	Sololá	701	Sololá	1	Sololá	6	Junio	2023-06-28T00:00:00	2024-11-08T00:00:00	4	Temperatura máxima	14.5
32107	7	Sololá	701	Sololá	1	Sololá	6	Junio	2023-06-28T00:00:00	2024-11-08T00:00:00	3	Temperatura mínima	14.4
32108	7	Sololá	701	Sololá	1	Sololá	6	Junio	2023-06-28T00:00:00	2024-11-08T00:00:00	5	Humedad	97
32109	7	Sololá	701	Sololá	1	Sololá	6	Junio	2023-06-28T00:00:00	2024-11-08T00:00:00	6	Velocidad del viento	0
32110	7	Sololá	701	Sololá	1	Sololá	6	Junio	2023-06-28T00:00:00	2024-11-08T00:00:00	7	Dirección del viento	0
32111	7	Sololá	701	Sololá	1	Sololá	6	Junio	2023-06-28T00:00:00	2024-11-08T00:00:00	1	Precipitación	0.2
32112	7	Sololá	701	Sololá	1	Sololá	6	Junio	2023-06-28T00:00:00	2024-11-08T00:00:00	8	Radiación solar	0
32113	7	Sololá	701	Sololá	1	Sololá	6	Junio	2023-06-28T00:00:00	2024-11-08T01:00:00	2	Temperatura media	14.2
32114	7	Sololá	701	Sololá	1	Sololá	6	Junio	2023-06-28T00:00:00	2024-11-08T01:00:00	4	Temperatura máxima	14.4
32115	7	Sololá	701	Sololá	1	Sololá	6	Junio	2023-06-28T00:00:00	2024-11-08T01:00:00	3	Temperatura mínima	14.2
32116	7	Sololá	701	Sololá	1	Sololá	6	Junio	2023-06-28T00:00:00	2024-11-08T01:00:00	5	Humedad	97
32117	7	Sololá	701	Sololá	1	Sololá	6	Junio	2023-06-28T00:00:00	2024-11-08T01:00:00	6	Velocidad del viento	0
32118	7	Sololá	701	Sololá	1	Sololá	6	Junio	2023-06-28T00:00:00	2024-11-08T01:00:00	7	Dirección del viento	0
32119	7	Sololá	701	Sololá	1	Sololá	6	Junio	2023-06-28T00:00:00	2024-11-08T01:00:00	1	Precipitación	0
32120	7	Sololá	701	Sololá	1	Sololá	6	Junio	2023-06-28T00:00:00	2024-11-08T01:00:00	8	Radiación solar	0
32121	7	Sololá	701	Sololá	1	Sololá	6	Junio	2023-06-28T00:00:00	2024-11-08T02:00:00	2	Temperatura media	14.3
32122	7	Sololá	701	Sololá	1	Sololá	6	Junio	2023-06-28T00:00:00	2024-11-08T02:00:00	4	Temperatura máxima	14.3
32123	7	Sololá	701	Sololá	1	Sololá	6	Junio	2023-06-28T00:00:00	2024-11-08T02:00:00	3	Temperatura mínima	14.2
32124	7	Sololá	701	Sololá	1	Sololá	6	Junio	2023-06-28T00:00:00	2024-11-08T02:00:00	5	Humedad	97
32125	7	Sololá	701	Sololá	1	Sololá	6	Junio	2023-06-28T00:00:00	2024-11-08T02:00:00	6	Velocidad del viento	0
32126	7	Sololá	701	Sololá	1	Sololá	6	Junio	2023-06-28T00:00:00	2024-11-08T02:00:00	7	Dirección del viento	0
32127	7	Sololá	701	Sololá	1	Sololá	6	Junio	2023-06-28T00:00:00	2024-11-08T02:00:00	1	Precipitación	0
32128	7	Sololá	701	Sololá	1	Sololá	6	Junio	2023-06-28T00:00:00	2024-11-08T02:00:00	8	Radiación solar	0
32129	7	Sololá	701	Sololá	1	Sololá	6	Junio	2023-06-28T00:00:00	2024-11-08T03:00:00	2	Temperatura media	14.3
32130	7	Sololá	701	Sololá	1	Sololá	6	Junio	2023-06-28T00:00:00	2024-11-08T03:00:00	4	Temperatura máxima	14.4
32131	7	Sololá	701	Sololá	1	Sololá	6	Junio	2023-06-28T00:00:00	2024-11-08T03:00:00	3	Temperatura mínima	14.3
32132	7	Sololá	701	Sololá	1	Sololá	6	Junio	2023-06-28T00:00:00	2024-11-08T03:00:00	5	Humedad	97
32133	7	Sololá	701	Sololá	1	Sololá	6	Junio	2023-06-28T00:00:00	2024-11-08T03:00:00	6	Velocidad del viento	0
32134	7	Sololá	701	Sololá	1	Sololá	6	Junio	2023-06-28T00:00:00	2024-11-08T03:00:00	7	Dirección del viento	0
32135	7	Sololá	701	Sololá	1	Sololá	6	Junio	2023-06-28T00:00:00	2024-11-08T03:00:00	1	Precipitación	0.2
32136	7	Sololá	701	Sololá	1	Sololá	6	Junio	2023-06-28T00:00:00	2024-11-08T03:00:00	8	Radiación solar	0
32137	7	Sololá	701	Sololá	1	Sololá	6	Junio	2023-06-28T00:00:00	2024-11-08T04:00:00	2	Temperatura media	13.8
32138	7	Sololá	701	Sololá	1	Sololá	6	Junio	2023-06-28T00:00:00	2024-11-08T04:00:00	4	Temperatura máxima	14.3
32139	7	Sololá	701	Sololá	1	Sololá	6	Junio	2023-06-28T00:00:00	2024-11-08T04:00:00	3	Temperatura mínima	13.8
32140	7	Sololá	701	Sololá	1	Sololá	6	Junio	2023-06-28T00:00:00	2024-11-08T04:00:00	5	Humedad	97
32141	7	Sololá	701	Sololá	1	Sololá	6	Junio	2023-06-28T00:00:00	2024-11-08T04:00:00	6	Velocidad del viento	0
32142	7	Sololá	701	Sololá	1	Sololá	6	Junio	2023-06-28T00:00:00	2024-11-08T04:00:00	7	Dirección del viento	0
32143	7	Sololá	701	Sololá	1	Sololá	6	Junio	2023-06-28T00:00:00	2024-11-08T04:00:00	1	Precipitación	0.2
32144	7	Sololá	701	Sololá	1	Sololá	6	Junio	2023-06-28T00:00:00	2024-11-08T04:00:00	8	Radiación solar	0
32145	7	Sololá	701	Sololá	1	Sololá	6	Junio	2023-06-28T00:00:00	2024-11-08T05:00:00	2	Temperatura media	13.4
32146	7	Sololá	701	Sololá	1	Sololá	6	Junio	2023-06-28T00:00:00	2024-11-08T05:00:00	4	Temperatura máxima	13.8
32147	7	Sololá	701	Sololá	1	Sololá	6	Junio	2023-06-28T00:00:00	2024-11-08T05:00:00	3	Temperatura mínima	13.4
32148	7	Sololá	701	Sololá	1	Sololá	6	Junio	2023-06-28T00:00:00	2024-11-08T05:00:00	5	Humedad	97
32149	7	Sololá	701	Sololá	1	Sololá	6	Junio	2023-06-28T00:00:00	2024-11-08T05:00:00	6	Velocidad del viento	0
32150	7	Sololá	701	Sololá	1	Sololá	6	Junio	2023-06-28T00:00:00	2024-11-08T05:00:00	7	Dirección del viento	0
32151	7	Sololá	701	Sololá	1	Sololá	6	Junio	2023-06-28T00:00:00	2024-11-08T05:00:00	1	Precipitación	0.2
32152	7	Sololá	701	Sololá	1	Sololá	6	Junio	2023-06-28T00:00:00	2024-11-08T05:00:00	8	Radiación solar	0
32153	7	Sololá	701	Sololá	1	Sololá	6	Junio	2023-06-28T00:00:00	2024-11-08T06:00:00	2	Temperatura media	13.1
32154	7	Sololá	701	Sololá	1	Sololá	6	Junio	2023-06-28T00:00:00	2024-11-08T06:00:00	4	Temperatura máxima	13.4
32155	7	Sololá	701	Sololá	1	Sololá	6	Junio	2023-06-28T00:00:00	2024-11-08T06:00:00	3	Temperatura mínima	13.1
32156	7	Sololá	701	Sololá	1	Sololá	6	Junio	2023-06-28T00:00:00	2024-11-08T06:00:00	5	Humedad	96
32157	7	Sololá	701	Sololá	1	Sololá	6	Junio	2023-06-28T00:00:00	2024-11-08T06:00:00	6	Velocidad del viento	0
32158	7	Sololá	701	Sololá	1	Sololá	6	Junio	2023-06-28T00:00:00	2024-11-08T06:00:00	7	Dirección del viento	0
32159	7	Sololá	701	Sololá	1	Sololá	6	Junio	2023-06-28T00:00:00	2024-11-08T06:00:00	1	Precipitación	0
32160	7	Sololá	701	Sololá	1	Sololá	6	Junio	2023-06-28T00:00:00	2024-11-08T06:00:00	8	Radiación solar	2
32161	7	Sololá	701	Sololá	1	Sololá	6	Junio	2023-06-28T00:00:00	2024-11-08T07:00:00	2	Temperatura media	13.9
32162	7	Sololá	701	Sololá	1	Sololá	6	Junio	2023-06-28T00:00:00	2024-11-08T07:00:00	4	Temperatura máxima	13.9
32163	7	Sololá	701	Sololá	1	Sololá	6	Junio	2023-06-28T00:00:00	2024-11-08T07:00:00	3	Temperatura mínima	13
32164	7	Sololá	701	Sololá	1	Sololá	6	Junio	2023-06-28T00:00:00	2024-11-08T07:00:00	5	Humedad	98
32165	7	Sololá	701	Sololá	1	Sololá	6	Junio	2023-06-28T00:00:00	2024-11-08T07:00:00	6	Velocidad del viento	0
32166	7	Sololá	701	Sololá	1	Sololá	6	Junio	2023-06-28T00:00:00	2024-11-08T07:00:00	7	Dirección del viento	0
32167	7	Sololá	701	Sololá	1	Sololá	6	Junio	2023-06-28T00:00:00	2024-11-08T07:00:00	1	Precipitación	0
32168	7	Sololá	701	Sololá	1	Sololá	6	Junio	2023-06-28T00:00:00	2024-11-08T07:00:00	8	Radiación solar	46
32169	7	Sololá	701	Sololá	1	Sololá	6	Junio	2023-06-28T00:00:00	2024-11-08T08:00:00	2	Temperatura media	15.4
32170	7	Sololá	701	Sololá	1	Sololá	6	Junio	2023-06-28T00:00:00	2024-11-08T08:00:00	4	Temperatura máxima	15.4
32171	7	Sololá	701	Sololá	1	Sololá	6	Junio	2023-06-28T00:00:00	2024-11-08T08:00:00	3	Temperatura mínima	13.9
32172	7	Sololá	701	Sololá	1	Sololá	6	Junio	2023-06-28T00:00:00	2024-11-08T08:00:00	5	Humedad	98
32173	7	Sololá	701	Sololá	1	Sololá	6	Junio	2023-06-28T00:00:00	2024-11-08T08:00:00	6	Velocidad del viento	0
32174	7	Sololá	701	Sololá	1	Sololá	6	Junio	2023-06-28T00:00:00	2024-11-08T08:00:00	7	Dirección del viento	0
32175	7	Sololá	701	Sololá	1	Sololá	6	Junio	2023-06-28T00:00:00	2024-11-08T08:00:00	1	Precipitación	0
32176	7	Sololá	701	Sololá	1	Sololá	6	Junio	2023-06-28T00:00:00	2024-11-08T08:00:00	8	Radiación solar	119
32177	7	Sololá	701	Sololá	1	Sololá	6	Junio	2023-06-28T00:00:00	2024-11-08T09:00:00	2	Temperatura media	16.2
32178	7	Sololá	701	Sololá	1	Sololá	6	Junio	2023-06-28T00:00:00	2024-11-08T09:00:00	4	Temperatura máxima	16.2
32179	7	Sololá	701	Sololá	1	Sololá	6	Junio	2023-06-28T00:00:00	2024-11-08T09:00:00	3	Temperatura mínima	15.2
32180	7	Sololá	701	Sololá	1	Sololá	6	Junio	2023-06-28T00:00:00	2024-11-08T09:00:00	5	Humedad	94
32181	7	Sololá	701	Sololá	1	Sololá	6	Junio	2023-06-28T00:00:00	2024-11-08T09:00:00	6	Velocidad del viento	0
32182	7	Sololá	701	Sololá	1	Sololá	6	Junio	2023-06-28T00:00:00	2024-11-08T09:00:00	7	Dirección del viento	0
32183	7	Sololá	701	Sololá	1	Sololá	6	Junio	2023-06-28T00:00:00	2024-11-08T09:00:00	1	Precipitación	0
32184	7	Sololá	701	Sololá	1	Sololá	6	Junio	2023-06-28T00:00:00	2024-11-08T09:00:00	8	Radiación solar	206
32185	7	Sololá	701	Sololá	1	Sololá	6	Junio	2023-06-28T00:00:00	2024-11-08T10:00:00	2	Temperatura media	18.8
32186	7	Sololá	701	Sololá	1	Sololá	6	Junio	2023-06-28T00:00:00	2024-11-08T10:00:00	4	Temperatura máxima	18.8
32187	7	Sololá	701	Sololá	1	Sololá	6	Junio	2023-06-28T00:00:00	2024-11-08T10:00:00	3	Temperatura mínima	16.2
32188	7	Sololá	701	Sololá	1	Sololá	6	Junio	2023-06-28T00:00:00	2024-11-08T10:00:00	5	Humedad	85
32189	7	Sololá	701	Sololá	1	Sololá	6	Junio	2023-06-28T00:00:00	2024-11-08T10:00:00	6	Velocidad del viento	0
32190	7	Sololá	701	Sololá	1	Sololá	6	Junio	2023-06-28T00:00:00	2024-11-08T10:00:00	7	Dirección del viento	0
32191	7	Sololá	701	Sololá	1	Sololá	6	Junio	2023-06-28T00:00:00	2024-11-08T10:00:00	1	Precipitación	0
32192	7	Sololá	701	Sololá	1	Sololá	6	Junio	2023-06-28T00:00:00	2024-11-08T10:00:00	8	Radiación solar	419
32193	7	Sololá	701	Sololá	1	Sololá	6	Junio	2023-06-28T00:00:00	2024-11-08T11:00:00	2	Temperatura media	20.6
32194	7	Sololá	701	Sololá	1	Sololá	6	Junio	2023-06-28T00:00:00	2024-11-08T11:00:00	4	Temperatura máxima	20.8
32195	7	Sololá	701	Sololá	1	Sololá	6	Junio	2023-06-28T00:00:00	2024-11-08T11:00:00	3	Temperatura mínima	18.8
32196	7	Sololá	701	Sololá	1	Sololá	6	Junio	2023-06-28T00:00:00	2024-11-08T11:00:00	5	Humedad	79
32197	7	Sololá	701	Sololá	1	Sololá	6	Junio	2023-06-28T00:00:00	2024-11-08T11:00:00	6	Velocidad del viento	0
32198	7	Sololá	701	Sololá	1	Sololá	6	Junio	2023-06-28T00:00:00	2024-11-08T11:00:00	7	Dirección del viento	0
32199	7	Sololá	701	Sololá	1	Sololá	6	Junio	2023-06-28T00:00:00	2024-11-08T11:00:00	1	Precipitación	0
32200	7	Sololá	701	Sololá	1	Sololá	6	Junio	2023-06-28T00:00:00	2024-11-08T11:00:00	8	Radiación solar	860
32201	7	Sololá	701	Sololá	1	Sololá	6	Junio	2023-06-28T00:00:00	2024-11-08T12:00:00	2	Temperatura media	20.9
32202	7	Sololá	701	Sololá	1	Sololá	6	Junio	2023-06-28T00:00:00	2024-11-08T12:00:00	4	Temperatura máxima	21
32203	7	Sololá	701	Sololá	1	Sololá	6	Junio	2023-06-28T00:00:00	2024-11-08T12:00:00	3	Temperatura mínima	20.6
32204	7	Sololá	701	Sololá	1	Sololá	6	Junio	2023-06-28T00:00:00	2024-11-08T12:00:00	5	Humedad	78
32205	7	Sololá	701	Sololá	1	Sololá	6	Junio	2023-06-28T00:00:00	2024-11-08T12:00:00	6	Velocidad del viento	0
32206	7	Sololá	701	Sololá	1	Sololá	6	Junio	2023-06-28T00:00:00	2024-11-08T12:00:00	7	Dirección del viento	0
32207	7	Sololá	701	Sololá	1	Sololá	6	Junio	2023-06-28T00:00:00	2024-11-08T12:00:00	1	Precipitación	0
32208	7	Sololá	701	Sololá	1	Sololá	6	Junio	2023-06-28T00:00:00	2024-11-08T12:00:00	8	Radiación solar	875
32209	7	Sololá	701	Sololá	1	Sololá	6	Junio	2023-06-28T00:00:00	2024-11-08T13:00:00	2	Temperatura media	21.6
32210	7	Sololá	701	Sololá	1	Sololá	6	Junio	2023-06-28T00:00:00	2024-11-08T13:00:00	4	Temperatura máxima	21.8
32211	7	Sololá	701	Sololá	1	Sololá	6	Junio	2023-06-28T00:00:00	2024-11-08T13:00:00	3	Temperatura mínima	20.9
32212	7	Sololá	701	Sololá	1	Sololá	6	Junio	2023-06-28T00:00:00	2024-11-08T13:00:00	5	Humedad	72
32213	7	Sololá	701	Sololá	1	Sololá	6	Junio	2023-06-28T00:00:00	2024-11-08T13:00:00	6	Velocidad del viento	0
32214	7	Sololá	701	Sololá	1	Sololá	6	Junio	2023-06-28T00:00:00	2024-11-08T13:00:00	7	Dirección del viento	0
32215	7	Sololá	701	Sololá	1	Sololá	6	Junio	2023-06-28T00:00:00	2024-11-08T13:00:00	1	Precipitación	0
32216	7	Sololá	701	Sololá	1	Sololá	6	Junio	2023-06-28T00:00:00	2024-11-08T13:00:00	8	Radiación solar	185
32217	7	Sololá	701	Sololá	1	Sololá	6	Junio	2023-06-28T00:00:00	2024-11-08T14:00:00	2	Temperatura media	21.6
32218	7	Sololá	701	Sololá	1	Sololá	6	Junio	2023-06-28T00:00:00	2024-11-08T14:00:00	4	Temperatura máxima	21.6
32219	7	Sololá	701	Sololá	1	Sololá	6	Junio	2023-06-28T00:00:00	2024-11-08T14:00:00	3	Temperatura mínima	20.9
32220	7	Sololá	701	Sololá	1	Sololá	6	Junio	2023-06-28T00:00:00	2024-11-08T14:00:00	5	Humedad	79
32221	7	Sololá	701	Sololá	1	Sololá	6	Junio	2023-06-28T00:00:00	2024-11-08T14:00:00	6	Velocidad del viento	0
32222	7	Sololá	701	Sololá	1	Sololá	6	Junio	2023-06-28T00:00:00	2024-11-08T14:00:00	7	Dirección del viento	0
32223	7	Sololá	701	Sololá	1	Sololá	6	Junio	2023-06-28T00:00:00	2024-11-08T14:00:00	1	Precipitación	0
32224	7	Sololá	701	Sololá	1	Sololá	6	Junio	2023-06-28T00:00:00	2024-11-08T14:00:00	8	Radiación solar	131
32225	7	Sololá	701	Sololá	1	Sololá	6	Junio	2023-06-28T00:00:00	2024-11-08T15:00:00	2	Temperatura media	19.5
32226	7	Sololá	701	Sololá	1	Sololá	6	Junio	2023-06-28T00:00:00	2024-11-08T15:00:00	4	Temperatura máxima	21.6
32227	7	Sololá	701	Sololá	1	Sololá	6	Junio	2023-06-28T00:00:00	2024-11-08T15:00:00	3	Temperatura mínima	19.5
32228	7	Sololá	701	Sololá	1	Sololá	6	Junio	2023-06-28T00:00:00	2024-11-08T15:00:00	5	Humedad	86
32229	7	Sololá	701	Sololá	1	Sololá	6	Junio	2023-06-28T00:00:00	2024-11-08T15:00:00	6	Velocidad del viento	0
32230	7	Sololá	701	Sololá	1	Sololá	6	Junio	2023-06-28T00:00:00	2024-11-08T15:00:00	7	Dirección del viento	0
32231	7	Sololá	701	Sololá	1	Sololá	6	Junio	2023-06-28T00:00:00	2024-11-08T15:00:00	1	Precipitación	0
32232	7	Sololá	701	Sololá	1	Sololá	6	Junio	2023-06-28T00:00:00	2024-11-08T15:00:00	8	Radiación solar	114
32233	7	Sololá	701	Sololá	1	Sololá	6	Junio	2023-06-28T00:00:00	2024-11-08T16:00:00	2	Temperatura media	18.2
32234	7	Sololá	701	Sololá	1	Sololá	6	Junio	2023-06-28T00:00:00	2024-11-08T16:00:00	4	Temperatura máxima	19.5
32235	7	Sololá	701	Sololá	1	Sololá	6	Junio	2023-06-28T00:00:00	2024-11-08T16:00:00	3	Temperatura mínima	18.2
32236	7	Sololá	701	Sololá	1	Sololá	6	Junio	2023-06-28T00:00:00	2024-11-08T16:00:00	5	Humedad	92
32237	7	Sololá	701	Sololá	1	Sololá	6	Junio	2023-06-28T00:00:00	2024-11-08T16:00:00	6	Velocidad del viento	0
32238	7	Sololá	701	Sololá	1	Sololá	6	Junio	2023-06-28T00:00:00	2024-11-08T16:00:00	7	Dirección del viento	0
32239	7	Sololá	701	Sololá	1	Sololá	6	Junio	2023-06-28T00:00:00	2024-11-08T16:00:00	1	Precipitación	0
32240	7	Sololá	701	Sololá	1	Sololá	6	Junio	2023-06-28T00:00:00	2024-11-08T16:00:00	8	Radiación solar	44
32241	7	Sololá	701	Sololá	1	Sololá	6	Junio	2023-06-28T00:00:00	2024-11-08T17:00:00	2	Temperatura media	17.1
32242	7	Sololá	701	Sololá	1	Sololá	6	Junio	2023-06-28T00:00:00	2024-11-08T17:00:00	4	Temperatura máxima	18.2
32243	7	Sololá	701	Sololá	1	Sololá	6	Junio	2023-06-28T00:00:00	2024-11-08T17:00:00	3	Temperatura mínima	17.1
32244	7	Sololá	701	Sololá	1	Sololá	6	Junio	2023-06-28T00:00:00	2024-11-08T17:00:00	5	Humedad	95
32245	7	Sololá	701	Sololá	1	Sololá	6	Junio	2023-06-28T00:00:00	2024-11-08T17:00:00	6	Velocidad del viento	0
32246	7	Sololá	701	Sololá	1	Sololá	6	Junio	2023-06-28T00:00:00	2024-11-08T17:00:00	7	Dirección del viento	0
32247	7	Sololá	701	Sololá	1	Sololá	6	Junio	2023-06-28T00:00:00	2024-11-08T17:00:00	1	Precipitación	7.6
32248	7	Sololá	701	Sololá	1	Sololá	6	Junio	2023-06-28T00:00:00	2024-11-08T17:00:00	8	Radiación solar	11
32249	7	Sololá	701	Sololá	1	Sololá	6	Junio	2023-06-28T00:00:00	2024-11-08T18:00:00	2	Temperatura media	16.7
32250	7	Sololá	701	Sololá	1	Sololá	6	Junio	2023-06-28T00:00:00	2024-11-08T18:00:00	4	Temperatura máxima	17.1
32251	7	Sololá	701	Sololá	1	Sololá	6	Junio	2023-06-28T00:00:00	2024-11-08T18:00:00	3	Temperatura mínima	16.7
32252	7	Sololá	701	Sololá	1	Sololá	6	Junio	2023-06-28T00:00:00	2024-11-08T18:00:00	5	Humedad	96
32253	7	Sololá	701	Sololá	1	Sololá	6	Junio	2023-06-28T00:00:00	2024-11-08T18:00:00	6	Velocidad del viento	0
32254	7	Sololá	701	Sololá	1	Sololá	6	Junio	2023-06-28T00:00:00	2024-11-08T18:00:00	7	Dirección del viento	0
32255	7	Sololá	701	Sololá	1	Sololá	6	Junio	2023-06-28T00:00:00	2024-11-08T18:00:00	1	Precipitación	1.2
32256	7	Sololá	701	Sololá	1	Sololá	6	Junio	2023-06-28T00:00:00	2024-11-08T18:00:00	8	Radiación solar	5
32257	7	Sololá	701	Sololá	1	Sololá	6	Junio	2023-06-28T00:00:00	2024-11-08T19:00:00	2	Temperatura media	15.9
32258	7	Sololá	701	Sololá	1	Sololá	6	Junio	2023-06-28T00:00:00	2024-11-08T19:00:00	4	Temperatura máxima	16.7
32259	7	Sololá	701	Sololá	1	Sololá	6	Junio	2023-06-28T00:00:00	2024-11-08T19:00:00	3	Temperatura mínima	15.8
32260	7	Sololá	701	Sololá	1	Sololá	6	Junio	2023-06-28T00:00:00	2024-11-08T19:00:00	5	Humedad	96
32261	7	Sololá	701	Sololá	1	Sololá	6	Junio	2023-06-28T00:00:00	2024-11-08T19:00:00	6	Velocidad del viento	0
32262	7	Sololá	701	Sololá	1	Sololá	6	Junio	2023-06-28T00:00:00	2024-11-08T19:00:00	7	Dirección del viento	0
32263	7	Sololá	701	Sololá	1	Sololá	6	Junio	2023-06-28T00:00:00	2024-11-08T19:00:00	1	Precipitación	0
32264	7	Sololá	701	Sololá	1	Sololá	6	Junio	2023-06-28T00:00:00	2024-11-08T19:00:00	8	Radiación solar	0
32265	7	Sololá	701	Sololá	1	Sololá	6	Junio	2023-06-28T00:00:00	2024-11-08T20:00:00	2	Temperatura media	15.3
32266	7	Sololá	701	Sololá	1	Sololá	6	Junio	2023-06-28T00:00:00	2024-11-08T20:00:00	4	Temperatura máxima	15.9
32267	7	Sololá	701	Sololá	1	Sololá	6	Junio	2023-06-28T00:00:00	2024-11-08T20:00:00	3	Temperatura mínima	15.3
32268	7	Sololá	701	Sololá	1	Sololá	6	Junio	2023-06-28T00:00:00	2024-11-08T20:00:00	5	Humedad	96
32269	7	Sololá	701	Sololá	1	Sololá	6	Junio	2023-06-28T00:00:00	2024-11-08T20:00:00	6	Velocidad del viento	0
32270	7	Sololá	701	Sololá	1	Sololá	6	Junio	2023-06-28T00:00:00	2024-11-08T20:00:00	7	Dirección del viento	0
32271	7	Sololá	701	Sololá	1	Sololá	6	Junio	2023-06-28T00:00:00	2024-11-08T20:00:00	1	Precipitación	0
32272	7	Sololá	701	Sololá	1	Sololá	6	Junio	2023-06-28T00:00:00	2024-11-08T20:00:00	8	Radiación solar	0
32273	7	Sololá	701	Sololá	1	Sololá	6	Junio	2023-06-28T00:00:00	2024-11-08T21:00:00	2	Temperatura media	15.1
32274	7	Sololá	701	Sololá	1	Sololá	6	Junio	2023-06-28T00:00:00	2024-11-08T21:00:00	4	Temperatura máxima	15.3
32275	7	Sololá	701	Sololá	1	Sololá	6	Junio	2023-06-28T00:00:00	2024-11-08T21:00:00	3	Temperatura mínima	15
32276	7	Sololá	701	Sololá	1	Sololá	6	Junio	2023-06-28T00:00:00	2024-11-08T21:00:00	5	Humedad	96
32277	7	Sololá	701	Sololá	1	Sololá	6	Junio	2023-06-28T00:00:00	2024-11-08T21:00:00	6	Velocidad del viento	0
32278	7	Sololá	701	Sololá	1	Sololá	6	Junio	2023-06-28T00:00:00	2024-11-08T21:00:00	7	Dirección del viento	0
32279	7	Sololá	701	Sololá	1	Sololá	6	Junio	2023-06-28T00:00:00	2024-11-08T21:00:00	1	Precipitación	0
32280	7	Sololá	701	Sololá	1	Sololá	6	Junio	2023-06-28T00:00:00	2024-11-08T21:00:00	8	Radiación solar	0
32281	7	Sololá	701	Sololá	1	Sololá	6	Junio	2023-06-28T00:00:00	2024-11-08T22:00:00	2	Temperatura media	14.8
32282	7	Sololá	701	Sololá	1	Sololá	6	Junio	2023-06-28T00:00:00	2024-11-08T22:00:00	4	Temperatura máxima	15.1
32283	7	Sololá	701	Sololá	1	Sololá	6	Junio	2023-06-28T00:00:00	2024-11-08T22:00:00	3	Temperatura mínima	14.8
32284	7	Sololá	701	Sololá	1	Sololá	6	Junio	2023-06-28T00:00:00	2024-11-08T22:00:00	5	Humedad	96
32285	7	Sololá	701	Sololá	1	Sololá	6	Junio	2023-06-28T00:00:00	2024-11-08T22:00:00	6	Velocidad del viento	0
32286	7	Sololá	701	Sololá	1	Sololá	6	Junio	2023-06-28T00:00:00	2024-11-08T22:00:00	7	Dirección del viento	0
32287	7	Sololá	701	Sololá	1	Sololá	6	Junio	2023-06-28T00:00:00	2024-11-08T22:00:00	1	Precipitación	0
32288	7	Sololá	701	Sololá	1	Sololá	6	Junio	2023-06-28T00:00:00	2024-11-08T22:00:00	8	Radiación solar	0
32289	7	Sololá	701	Sololá	1	Sololá	6	Junio	2023-06-28T00:00:00	2024-11-08T23:00:00	2	Temperatura media	14.9
32290	7	Sololá	701	Sololá	1	Sololá	6	Junio	2023-06-28T00:00:00	2024-11-08T23:00:00	4	Temperatura máxima	14.9
32291	7	Sololá	701	Sololá	1	Sololá	6	Junio	2023-06-28T00:00:00	2024-11-08T23:00:00	3	Temperatura mínima	14.8
32292	7	Sololá	701	Sololá	1	Sololá	6	Junio	2023-06-28T00:00:00	2024-11-08T23:00:00	5	Humedad	97
32293	7	Sololá	701	Sololá	1	Sololá	6	Junio	2023-06-28T00:00:00	2024-11-08T23:00:00	6	Velocidad del viento	0
32294	7	Sololá	701	Sololá	1	Sololá	6	Junio	2023-06-28T00:00:00	2024-11-08T23:00:00	7	Dirección del viento	0
32295	7	Sololá	701	Sololá	1	Sololá	6	Junio	2023-06-28T00:00:00	2024-11-08T23:00:00	1	Precipitación	0
32296	7	Sololá	701	Sololá	1	Sololá	6	Junio	2023-06-28T00:00:00	2024-11-08T23:00:00	8	Radiación solar	0
32297	7	Sololá	701	Sololá	1	Sololá	6	Junio	2023-06-29T00:00:00	2024-11-08T00:00:00	2	Temperatura media	14.6
32298	7	Sololá	701	Sololá	1	Sololá	6	Junio	2023-06-29T00:00:00	2024-11-08T00:00:00	4	Temperatura máxima	14.9
32299	7	Sololá	701	Sololá	1	Sololá	6	Junio	2023-06-29T00:00:00	2024-11-08T00:00:00	3	Temperatura mínima	14.6
32300	7	Sololá	701	Sololá	1	Sololá	6	Junio	2023-06-29T00:00:00	2024-11-08T00:00:00	5	Humedad	97
32301	7	Sololá	701	Sololá	1	Sololá	6	Junio	2023-06-29T00:00:00	2024-11-08T00:00:00	6	Velocidad del viento	0
32302	7	Sololá	701	Sololá	1	Sololá	6	Junio	2023-06-29T00:00:00	2024-11-08T00:00:00	7	Dirección del viento	0
32303	7	Sololá	701	Sololá	1	Sololá	6	Junio	2023-06-29T00:00:00	2024-11-08T00:00:00	1	Precipitación	0
32304	7	Sololá	701	Sololá	1	Sololá	6	Junio	2023-06-29T00:00:00	2024-11-08T00:00:00	8	Radiación solar	0
32305	7	Sololá	701	Sololá	1	Sololá	6	Junio	2023-06-29T00:00:00	2024-11-08T01:00:00	2	Temperatura media	14.5
32306	7	Sololá	701	Sololá	1	Sololá	6	Junio	2023-06-29T00:00:00	2024-11-08T01:00:00	4	Temperatura máxima	14.6
32307	7	Sololá	701	Sololá	1	Sololá	6	Junio	2023-06-29T00:00:00	2024-11-08T01:00:00	3	Temperatura mínima	14.4
32308	7	Sololá	701	Sololá	1	Sololá	6	Junio	2023-06-29T00:00:00	2024-11-08T01:00:00	5	Humedad	97
32309	7	Sololá	701	Sololá	1	Sololá	6	Junio	2023-06-29T00:00:00	2024-11-08T01:00:00	6	Velocidad del viento	0
32310	7	Sololá	701	Sololá	1	Sololá	6	Junio	2023-06-29T00:00:00	2024-11-08T01:00:00	7	Dirección del viento	0
32311	7	Sololá	701	Sololá	1	Sololá	6	Junio	2023-06-29T00:00:00	2024-11-08T01:00:00	1	Precipitación	0
32312	7	Sololá	701	Sololá	1	Sololá	6	Junio	2023-06-29T00:00:00	2024-11-08T01:00:00	8	Radiación solar	0
32313	7	Sololá	701	Sololá	1	Sololá	6	Junio	2023-06-29T00:00:00	2024-11-08T02:00:00	2	Temperatura media	14.3
32314	7	Sololá	701	Sololá	1	Sololá	6	Junio	2023-06-29T00:00:00	2024-11-08T02:00:00	4	Temperatura máxima	14.5
32315	7	Sololá	701	Sololá	1	Sololá	6	Junio	2023-06-29T00:00:00	2024-11-08T02:00:00	3	Temperatura mínima	14.3
32316	7	Sololá	701	Sololá	1	Sololá	6	Junio	2023-06-29T00:00:00	2024-11-08T02:00:00	5	Humedad	97
32317	7	Sololá	701	Sololá	1	Sololá	6	Junio	2023-06-29T00:00:00	2024-11-08T02:00:00	6	Velocidad del viento	0
32318	7	Sololá	701	Sololá	1	Sololá	6	Junio	2023-06-29T00:00:00	2024-11-08T02:00:00	7	Dirección del viento	0
32319	7	Sololá	701	Sololá	1	Sololá	6	Junio	2023-06-29T00:00:00	2024-11-08T02:00:00	1	Precipitación	0
32320	7	Sololá	701	Sololá	1	Sololá	6	Junio	2023-06-29T00:00:00	2024-11-08T02:00:00	8	Radiación solar	0
32321	7	Sololá	701	Sololá	1	Sololá	6	Junio	2023-06-29T00:00:00	2024-11-08T03:00:00	2	Temperatura media	14.3
32322	7	Sololá	701	Sololá	1	Sololá	6	Junio	2023-06-29T00:00:00	2024-11-08T03:00:00	4	Temperatura máxima	14.3
32323	7	Sololá	701	Sololá	1	Sololá	6	Junio	2023-06-29T00:00:00	2024-11-08T03:00:00	3	Temperatura mínima	14.2
32324	7	Sololá	701	Sololá	1	Sololá	6	Junio	2023-06-29T00:00:00	2024-11-08T03:00:00	5	Humedad	97
32325	7	Sololá	701	Sololá	1	Sololá	6	Junio	2023-06-29T00:00:00	2024-11-08T03:00:00	6	Velocidad del viento	0
32326	7	Sololá	701	Sololá	1	Sololá	6	Junio	2023-06-29T00:00:00	2024-11-08T03:00:00	7	Dirección del viento	0
32327	7	Sololá	701	Sololá	1	Sololá	6	Junio	2023-06-29T00:00:00	2024-11-08T03:00:00	1	Precipitación	0
32328	7	Sololá	701	Sololá	1	Sololá	6	Junio	2023-06-29T00:00:00	2024-11-08T03:00:00	8	Radiación solar	0
32329	7	Sololá	701	Sololá	1	Sololá	6	Junio	2023-06-29T00:00:00	2024-11-08T04:00:00	2	Temperatura media	14.1
32330	7	Sololá	701	Sololá	1	Sololá	6	Junio	2023-06-29T00:00:00	2024-11-08T04:00:00	4	Temperatura máxima	14.3
32331	7	Sololá	701	Sololá	1	Sololá	6	Junio	2023-06-29T00:00:00	2024-11-08T04:00:00	3	Temperatura mínima	14.1
32332	7	Sololá	701	Sololá	1	Sololá	6	Junio	2023-06-29T00:00:00	2024-11-08T04:00:00	5	Humedad	97
32333	7	Sololá	701	Sololá	1	Sololá	6	Junio	2023-06-29T00:00:00	2024-11-08T04:00:00	6	Velocidad del viento	0
32334	7	Sololá	701	Sololá	1	Sololá	6	Junio	2023-06-29T00:00:00	2024-11-08T04:00:00	7	Dirección del viento	0
32335	7	Sololá	701	Sololá	1	Sololá	6	Junio	2023-06-29T00:00:00	2024-11-08T04:00:00	1	Precipitación	0
32336	7	Sololá	701	Sololá	1	Sololá	6	Junio	2023-06-29T00:00:00	2024-11-08T04:00:00	8	Radiación solar	0
32337	7	Sololá	701	Sololá	1	Sololá	6	Junio	2023-06-29T00:00:00	2024-11-08T05:00:00	2	Temperatura media	14.1
32338	7	Sololá	701	Sololá	1	Sololá	6	Junio	2023-06-29T00:00:00	2024-11-08T05:00:00	4	Temperatura máxima	14.2
32339	7	Sololá	701	Sololá	1	Sololá	6	Junio	2023-06-29T00:00:00	2024-11-08T05:00:00	3	Temperatura mínima	14
32340	7	Sololá	701	Sololá	1	Sololá	6	Junio	2023-06-29T00:00:00	2024-11-08T05:00:00	5	Humedad	97
32341	7	Sololá	701	Sololá	1	Sololá	6	Junio	2023-06-29T00:00:00	2024-11-08T05:00:00	6	Velocidad del viento	0
32342	7	Sololá	701	Sololá	1	Sololá	6	Junio	2023-06-29T00:00:00	2024-11-08T05:00:00	7	Dirección del viento	0
32343	7	Sololá	701	Sololá	1	Sololá	6	Junio	2023-06-29T00:00:00	2024-11-08T05:00:00	1	Precipitación	0
32344	7	Sololá	701	Sololá	1	Sololá	6	Junio	2023-06-29T00:00:00	2024-11-08T05:00:00	8	Radiación solar	0
32345	7	Sololá	701	Sololá	1	Sololá	6	Junio	2023-06-29T00:00:00	2024-11-08T06:00:00	2	Temperatura media	14.1
32346	7	Sololá	701	Sololá	1	Sololá	6	Junio	2023-06-29T00:00:00	2024-11-08T06:00:00	4	Temperatura máxima	14.1
32347	7	Sololá	701	Sololá	1	Sololá	6	Junio	2023-06-29T00:00:00	2024-11-08T06:00:00	3	Temperatura mínima	13.9
32348	7	Sololá	701	Sololá	1	Sololá	6	Junio	2023-06-29T00:00:00	2024-11-08T06:00:00	5	Humedad	97
32349	7	Sololá	701	Sololá	1	Sololá	6	Junio	2023-06-29T00:00:00	2024-11-08T06:00:00	6	Velocidad del viento	0
32350	7	Sololá	701	Sololá	1	Sololá	6	Junio	2023-06-29T00:00:00	2024-11-08T06:00:00	7	Dirección del viento	0
32351	7	Sololá	701	Sololá	1	Sololá	6	Junio	2023-06-29T00:00:00	2024-11-08T06:00:00	1	Precipitación	0
32352	7	Sololá	701	Sololá	1	Sololá	6	Junio	2023-06-29T00:00:00	2024-11-08T06:00:00	8	Radiación solar	0
32353	7	Sololá	701	Sololá	1	Sololá	6	Junio	2023-06-29T00:00:00	2024-11-08T07:00:00	2	Temperatura media	14.9
32354	7	Sololá	701	Sololá	1	Sololá	6	Junio	2023-06-29T00:00:00	2024-11-08T07:00:00	4	Temperatura máxima	14.9
32355	7	Sololá	701	Sololá	1	Sololá	6	Junio	2023-06-29T00:00:00	2024-11-08T07:00:00	3	Temperatura mínima	14
32356	7	Sololá	701	Sololá	1	Sololá	6	Junio	2023-06-29T00:00:00	2024-11-08T07:00:00	5	Humedad	96
32357	7	Sololá	701	Sololá	1	Sololá	6	Junio	2023-06-29T00:00:00	2024-11-08T07:00:00	6	Velocidad del viento	0
32358	7	Sololá	701	Sololá	1	Sololá	6	Junio	2023-06-29T00:00:00	2024-11-08T07:00:00	7	Dirección del viento	0
32359	7	Sololá	701	Sololá	1	Sololá	6	Junio	2023-06-29T00:00:00	2024-11-08T07:00:00	1	Precipitación	0
32360	7	Sololá	701	Sololá	1	Sololá	6	Junio	2023-06-29T00:00:00	2024-11-08T07:00:00	8	Radiación solar	32
32361	7	Sololá	701	Sololá	1	Sololá	6	Junio	2023-06-29T00:00:00	2024-11-08T08:00:00	2	Temperatura media	16.7
32362	7	Sololá	701	Sololá	1	Sololá	6	Junio	2023-06-29T00:00:00	2024-11-08T08:00:00	4	Temperatura máxima	16.7
32363	7	Sololá	701	Sololá	1	Sololá	6	Junio	2023-06-29T00:00:00	2024-11-08T08:00:00	3	Temperatura mínima	14.9
32364	7	Sololá	701	Sololá	1	Sololá	6	Junio	2023-06-29T00:00:00	2024-11-08T08:00:00	5	Humedad	90
32365	7	Sololá	701	Sololá	1	Sololá	6	Junio	2023-06-29T00:00:00	2024-11-08T08:00:00	6	Velocidad del viento	0
32366	7	Sololá	701	Sololá	1	Sololá	6	Junio	2023-06-29T00:00:00	2024-11-08T08:00:00	7	Dirección del viento	0
32367	7	Sololá	701	Sololá	1	Sololá	6	Junio	2023-06-29T00:00:00	2024-11-08T08:00:00	1	Precipitación	0
32368	7	Sololá	701	Sololá	1	Sololá	6	Junio	2023-06-29T00:00:00	2024-11-08T08:00:00	8	Radiación solar	56
32369	7	Sololá	701	Sololá	1	Sololá	6	Junio	2023-06-29T00:00:00	2024-11-08T09:00:00	2	Temperatura media	20
32370	7	Sololá	701	Sololá	1	Sololá	6	Junio	2023-06-29T00:00:00	2024-11-08T09:00:00	4	Temperatura máxima	20
32371	7	Sololá	701	Sololá	1	Sololá	6	Junio	2023-06-29T00:00:00	2024-11-08T09:00:00	3	Temperatura mínima	16.7
32372	7	Sololá	701	Sololá	1	Sololá	6	Junio	2023-06-29T00:00:00	2024-11-08T09:00:00	5	Humedad	81
32373	7	Sololá	701	Sololá	1	Sololá	6	Junio	2023-06-29T00:00:00	2024-11-08T09:00:00	6	Velocidad del viento	0
32374	7	Sololá	701	Sololá	1	Sololá	6	Junio	2023-06-29T00:00:00	2024-11-08T09:00:00	7	Dirección del viento	0
32375	7	Sololá	701	Sololá	1	Sololá	6	Junio	2023-06-29T00:00:00	2024-11-08T09:00:00	1	Precipitación	0
32376	7	Sololá	701	Sololá	1	Sololá	6	Junio	2023-06-29T00:00:00	2024-11-08T09:00:00	8	Radiación solar	392
32377	7	Sololá	701	Sololá	1	Sololá	6	Junio	2023-06-29T00:00:00	2024-11-08T10:00:00	2	Temperatura media	20.8
32378	7	Sololá	701	Sololá	1	Sololá	6	Junio	2023-06-29T00:00:00	2024-11-08T10:00:00	4	Temperatura máxima	22.4
32379	7	Sololá	701	Sololá	1	Sololá	6	Junio	2023-06-29T00:00:00	2024-11-08T10:00:00	3	Temperatura mínima	20
32380	7	Sololá	701	Sololá	1	Sololá	6	Junio	2023-06-29T00:00:00	2024-11-08T10:00:00	5	Humedad	79
32381	7	Sololá	701	Sololá	1	Sololá	6	Junio	2023-06-29T00:00:00	2024-11-08T10:00:00	6	Velocidad del viento	0
32382	7	Sololá	701	Sololá	1	Sololá	6	Junio	2023-06-29T00:00:00	2024-11-08T10:00:00	7	Dirección del viento	0
32383	7	Sololá	701	Sololá	1	Sololá	6	Junio	2023-06-29T00:00:00	2024-11-08T10:00:00	1	Precipitación	0
32384	7	Sololá	701	Sololá	1	Sololá	6	Junio	2023-06-29T00:00:00	2024-11-08T10:00:00	8	Radiación solar	431
32385	7	Sololá	701	Sololá	1	Sololá	6	Junio	2023-06-29T00:00:00	2024-11-08T11:00:00	2	Temperatura media	20.1
32386	7	Sololá	701	Sololá	1	Sololá	6	Junio	2023-06-29T00:00:00	2024-11-08T11:00:00	4	Temperatura máxima	20.8
32387	7	Sololá	701	Sololá	1	Sololá	6	Junio	2023-06-29T00:00:00	2024-11-08T11:00:00	3	Temperatura mínima	19.8
32388	7	Sololá	701	Sololá	1	Sololá	6	Junio	2023-06-29T00:00:00	2024-11-08T11:00:00	5	Humedad	87
32389	7	Sololá	701	Sololá	1	Sololá	6	Junio	2023-06-29T00:00:00	2024-11-08T11:00:00	6	Velocidad del viento	0
32390	7	Sololá	701	Sololá	1	Sololá	6	Junio	2023-06-29T00:00:00	2024-11-08T11:00:00	7	Dirección del viento	0
32391	7	Sololá	701	Sololá	1	Sololá	6	Junio	2023-06-29T00:00:00	2024-11-08T11:00:00	1	Precipitación	0
32392	7	Sololá	701	Sololá	1	Sololá	6	Junio	2023-06-29T00:00:00	2024-11-08T11:00:00	8	Radiación solar	218
32393	7	Sololá	701	Sololá	1	Sololá	6	Junio	2023-06-29T00:00:00	2024-11-08T12:00:00	2	Temperatura media	19.7
32394	7	Sololá	701	Sololá	1	Sololá	6	Junio	2023-06-29T00:00:00	2024-11-08T12:00:00	4	Temperatura máxima	20.1
32395	7	Sololá	701	Sololá	1	Sololá	6	Junio	2023-06-29T00:00:00	2024-11-08T12:00:00	3	Temperatura mínima	19.6
32396	7	Sololá	701	Sololá	1	Sololá	6	Junio	2023-06-29T00:00:00	2024-11-08T12:00:00	5	Humedad	88
32397	7	Sololá	701	Sololá	1	Sololá	6	Junio	2023-06-29T00:00:00	2024-11-08T12:00:00	6	Velocidad del viento	0
32398	7	Sololá	701	Sololá	1	Sololá	6	Junio	2023-06-29T00:00:00	2024-11-08T12:00:00	7	Dirección del viento	0
32399	7	Sololá	701	Sololá	1	Sololá	6	Junio	2023-06-29T00:00:00	2024-11-08T12:00:00	1	Precipitación	0
32400	7	Sololá	701	Sololá	1	Sololá	6	Junio	2023-06-29T00:00:00	2024-11-08T12:00:00	8	Radiación solar	177
32401	7	Sololá	701	Sololá	1	Sololá	6	Junio	2023-06-29T00:00:00	2024-11-08T13:00:00	2	Temperatura media	20.2
32402	7	Sololá	701	Sololá	1	Sololá	6	Junio	2023-06-29T00:00:00	2024-11-08T13:00:00	4	Temperatura máxima	20.5
32403	7	Sololá	701	Sololá	1	Sololá	6	Junio	2023-06-29T00:00:00	2024-11-08T13:00:00	3	Temperatura mínima	19.7
32404	7	Sololá	701	Sololá	1	Sololá	6	Junio	2023-06-29T00:00:00	2024-11-08T13:00:00	5	Humedad	87
32405	7	Sololá	701	Sololá	1	Sololá	6	Junio	2023-06-29T00:00:00	2024-11-08T13:00:00	6	Velocidad del viento	0
32406	7	Sololá	701	Sololá	1	Sololá	6	Junio	2023-06-29T00:00:00	2024-11-08T13:00:00	7	Dirección del viento	0
32407	7	Sololá	701	Sololá	1	Sololá	6	Junio	2023-06-29T00:00:00	2024-11-08T13:00:00	1	Precipitación	0
32408	7	Sololá	701	Sololá	1	Sololá	6	Junio	2023-06-29T00:00:00	2024-11-08T13:00:00	8	Radiación solar	191
32409	7	Sololá	701	Sololá	1	Sololá	6	Junio	2023-06-29T00:00:00	2024-11-08T14:00:00	2	Temperatura media	19.5
32410	7	Sololá	701	Sololá	1	Sololá	6	Junio	2023-06-29T00:00:00	2024-11-08T14:00:00	4	Temperatura máxima	20.2
32411	7	Sololá	701	Sololá	1	Sololá	6	Junio	2023-06-29T00:00:00	2024-11-08T14:00:00	3	Temperatura mínima	19.4
32412	7	Sololá	701	Sololá	1	Sololá	6	Junio	2023-06-29T00:00:00	2024-11-08T14:00:00	5	Humedad	91
32413	7	Sololá	701	Sololá	1	Sololá	6	Junio	2023-06-29T00:00:00	2024-11-08T14:00:00	6	Velocidad del viento	0
32414	7	Sololá	701	Sololá	1	Sololá	6	Junio	2023-06-29T00:00:00	2024-11-08T14:00:00	7	Dirección del viento	0
32415	7	Sololá	701	Sololá	1	Sololá	6	Junio	2023-06-29T00:00:00	2024-11-08T14:00:00	1	Precipitación	0
32416	7	Sololá	701	Sololá	1	Sololá	6	Junio	2023-06-29T00:00:00	2024-11-08T14:00:00	8	Radiación solar	126
32417	7	Sololá	701	Sololá	1	Sololá	6	Junio	2023-06-29T00:00:00	2024-11-08T15:00:00	2	Temperatura media	20.2
32418	7	Sololá	701	Sololá	1	Sololá	6	Junio	2023-06-29T00:00:00	2024-11-08T15:00:00	4	Temperatura máxima	20.8
32419	7	Sololá	701	Sololá	1	Sololá	6	Junio	2023-06-29T00:00:00	2024-11-08T15:00:00	3	Temperatura mínima	19.5
32420	7	Sololá	701	Sololá	1	Sololá	6	Junio	2023-06-29T00:00:00	2024-11-08T15:00:00	5	Humedad	89
32421	7	Sololá	701	Sololá	1	Sololá	6	Junio	2023-06-29T00:00:00	2024-11-08T15:00:00	6	Velocidad del viento	0
32422	7	Sololá	701	Sololá	1	Sololá	6	Junio	2023-06-29T00:00:00	2024-11-08T15:00:00	7	Dirección del viento	0
32423	7	Sololá	701	Sololá	1	Sololá	6	Junio	2023-06-29T00:00:00	2024-11-08T15:00:00	1	Precipitación	0
32424	7	Sololá	701	Sololá	1	Sololá	6	Junio	2023-06-29T00:00:00	2024-11-08T15:00:00	8	Radiación solar	129
32425	7	Sololá	701	Sololá	1	Sololá	6	Junio	2023-06-29T00:00:00	2024-11-08T16:00:00	2	Temperatura media	19.1
32426	7	Sololá	701	Sololá	1	Sololá	6	Junio	2023-06-29T00:00:00	2024-11-08T16:00:00	4	Temperatura máxima	20.3
32427	7	Sololá	701	Sololá	1	Sololá	6	Junio	2023-06-29T00:00:00	2024-11-08T16:00:00	3	Temperatura mínima	19.1
32428	7	Sololá	701	Sololá	1	Sololá	6	Junio	2023-06-29T00:00:00	2024-11-08T16:00:00	5	Humedad	90
32429	7	Sololá	701	Sololá	1	Sololá	6	Junio	2023-06-29T00:00:00	2024-11-08T16:00:00	6	Velocidad del viento	0
32430	7	Sololá	701	Sololá	1	Sololá	6	Junio	2023-06-29T00:00:00	2024-11-08T16:00:00	7	Dirección del viento	0
32431	7	Sololá	701	Sololá	1	Sololá	6	Junio	2023-06-29T00:00:00	2024-11-08T16:00:00	1	Precipitación	0
32432	7	Sololá	701	Sololá	1	Sololá	6	Junio	2023-06-29T00:00:00	2024-11-08T16:00:00	8	Radiación solar	70
32433	7	Sololá	701	Sololá	1	Sololá	6	Junio	2023-06-29T00:00:00	2024-11-08T17:00:00	2	Temperatura media	18.2
32434	7	Sololá	701	Sololá	1	Sololá	6	Junio	2023-06-29T00:00:00	2024-11-08T17:00:00	4	Temperatura máxima	19.1
32435	7	Sololá	701	Sololá	1	Sololá	6	Junio	2023-06-29T00:00:00	2024-11-08T17:00:00	3	Temperatura mínima	18.2
32436	7	Sololá	701	Sololá	1	Sololá	6	Junio	2023-06-29T00:00:00	2024-11-08T17:00:00	5	Humedad	90
32437	7	Sololá	701	Sololá	1	Sololá	6	Junio	2023-06-29T00:00:00	2024-11-08T17:00:00	6	Velocidad del viento	0
32438	7	Sololá	701	Sololá	1	Sololá	6	Junio	2023-06-29T00:00:00	2024-11-08T17:00:00	7	Dirección del viento	0
32439	7	Sololá	701	Sololá	1	Sololá	6	Junio	2023-06-29T00:00:00	2024-11-08T17:00:00	1	Precipitación	0.2
32440	7	Sololá	701	Sololá	1	Sololá	6	Junio	2023-06-29T00:00:00	2024-11-08T17:00:00	8	Radiación solar	78
32441	7	Sololá	701	Sololá	1	Sololá	6	Junio	2023-06-29T00:00:00	2024-11-08T18:00:00	2	Temperatura media	17.1
32442	7	Sololá	701	Sololá	1	Sololá	6	Junio	2023-06-29T00:00:00	2024-11-08T18:00:00	4	Temperatura máxima	18.2
32443	7	Sololá	701	Sololá	1	Sololá	6	Junio	2023-06-29T00:00:00	2024-11-08T18:00:00	3	Temperatura mínima	17.1
32444	7	Sololá	701	Sololá	1	Sololá	6	Junio	2023-06-29T00:00:00	2024-11-08T18:00:00	5	Humedad	94
32445	7	Sololá	701	Sololá	1	Sololá	6	Junio	2023-06-29T00:00:00	2024-11-08T18:00:00	6	Velocidad del viento	0
32446	7	Sololá	701	Sololá	1	Sololá	6	Junio	2023-06-29T00:00:00	2024-11-08T18:00:00	7	Dirección del viento	0
32447	7	Sololá	701	Sololá	1	Sololá	6	Junio	2023-06-29T00:00:00	2024-11-08T18:00:00	1	Precipitación	1.2
32448	7	Sololá	701	Sololá	1	Sololá	6	Junio	2023-06-29T00:00:00	2024-11-08T18:00:00	8	Radiación solar	8
32449	7	Sololá	701	Sololá	1	Sololá	6	Junio	2023-06-29T00:00:00	2024-11-08T19:00:00	2	Temperatura media	16.8
32450	7	Sololá	701	Sololá	1	Sololá	6	Junio	2023-06-29T00:00:00	2024-11-08T19:00:00	4	Temperatura máxima	17.1
32451	7	Sololá	701	Sololá	1	Sololá	6	Junio	2023-06-29T00:00:00	2024-11-08T19:00:00	3	Temperatura mínima	16.8
32452	7	Sololá	701	Sololá	1	Sololá	6	Junio	2023-06-29T00:00:00	2024-11-08T19:00:00	5	Humedad	96
32453	7	Sololá	701	Sololá	1	Sololá	6	Junio	2023-06-29T00:00:00	2024-11-08T19:00:00	6	Velocidad del viento	0
32454	7	Sololá	701	Sololá	1	Sololá	6	Junio	2023-06-29T00:00:00	2024-11-08T19:00:00	7	Dirección del viento	0
32455	7	Sololá	701	Sololá	1	Sololá	6	Junio	2023-06-29T00:00:00	2024-11-08T19:00:00	1	Precipitación	0
32456	7	Sololá	701	Sololá	1	Sololá	6	Junio	2023-06-29T00:00:00	2024-11-08T19:00:00	8	Radiación solar	0
32457	7	Sololá	701	Sololá	1	Sololá	6	Junio	2023-06-29T00:00:00	2024-11-08T20:00:00	2	Temperatura media	15.7
32458	7	Sololá	701	Sololá	1	Sololá	6	Junio	2023-06-29T00:00:00	2024-11-08T20:00:00	4	Temperatura máxima	16.8
32459	7	Sololá	701	Sololá	1	Sololá	6	Junio	2023-06-29T00:00:00	2024-11-08T20:00:00	3	Temperatura mínima	15.7
32460	7	Sololá	701	Sololá	1	Sololá	6	Junio	2023-06-29T00:00:00	2024-11-08T20:00:00	5	Humedad	95
32461	7	Sololá	701	Sololá	1	Sololá	6	Junio	2023-06-29T00:00:00	2024-11-08T20:00:00	6	Velocidad del viento	0
32462	7	Sololá	701	Sololá	1	Sololá	6	Junio	2023-06-29T00:00:00	2024-11-08T20:00:00	7	Dirección del viento	0
32463	7	Sololá	701	Sololá	1	Sololá	6	Junio	2023-06-29T00:00:00	2024-11-08T20:00:00	1	Precipitación	0
32464	7	Sololá	701	Sololá	1	Sololá	6	Junio	2023-06-29T00:00:00	2024-11-08T20:00:00	8	Radiación solar	0
32465	7	Sololá	701	Sololá	1	Sololá	6	Junio	2023-06-29T00:00:00	2024-11-08T21:00:00	2	Temperatura media	14.7
32466	7	Sololá	701	Sololá	1	Sololá	6	Junio	2023-06-29T00:00:00	2024-11-08T21:00:00	4	Temperatura máxima	15.7
32467	7	Sololá	701	Sololá	1	Sololá	6	Junio	2023-06-29T00:00:00	2024-11-08T21:00:00	3	Temperatura mínima	14.7
32468	7	Sololá	701	Sololá	1	Sololá	6	Junio	2023-06-29T00:00:00	2024-11-08T21:00:00	5	Humedad	94
32469	7	Sololá	701	Sololá	1	Sololá	6	Junio	2023-06-29T00:00:00	2024-11-08T21:00:00	6	Velocidad del viento	0
32470	7	Sololá	701	Sololá	1	Sololá	6	Junio	2023-06-29T00:00:00	2024-11-08T21:00:00	7	Dirección del viento	0
32471	7	Sololá	701	Sololá	1	Sololá	6	Junio	2023-06-29T00:00:00	2024-11-08T21:00:00	1	Precipitación	0
32472	7	Sololá	701	Sololá	1	Sololá	6	Junio	2023-06-29T00:00:00	2024-11-08T21:00:00	8	Radiación solar	0
32473	7	Sololá	701	Sololá	1	Sololá	6	Junio	2023-06-29T00:00:00	2024-11-08T22:00:00	2	Temperatura media	14.4
32474	7	Sololá	701	Sololá	1	Sololá	6	Junio	2023-06-29T00:00:00	2024-11-08T22:00:00	4	Temperatura máxima	14.7
32475	7	Sololá	701	Sololá	1	Sololá	6	Junio	2023-06-29T00:00:00	2024-11-08T22:00:00	3	Temperatura mínima	14.3
32476	7	Sololá	701	Sololá	1	Sololá	6	Junio	2023-06-29T00:00:00	2024-11-08T22:00:00	5	Humedad	96
32477	7	Sololá	701	Sololá	1	Sololá	6	Junio	2023-06-29T00:00:00	2024-11-08T22:00:00	6	Velocidad del viento	0
32478	7	Sololá	701	Sololá	1	Sololá	6	Junio	2023-06-29T00:00:00	2024-11-08T22:00:00	7	Dirección del viento	0
32479	7	Sololá	701	Sololá	1	Sololá	6	Junio	2023-06-29T00:00:00	2024-11-08T22:00:00	1	Precipitación	0
32480	7	Sololá	701	Sololá	1	Sololá	6	Junio	2023-06-29T00:00:00	2024-11-08T22:00:00	8	Radiación solar	0
32481	7	Sololá	701	Sololá	1	Sololá	6	Junio	2023-06-29T00:00:00	2024-11-08T23:00:00	2	Temperatura media	14.2
32482	7	Sololá	701	Sololá	1	Sololá	6	Junio	2023-06-29T00:00:00	2024-11-08T23:00:00	4	Temperatura máxima	14.4
32483	7	Sololá	701	Sololá	1	Sololá	6	Junio	2023-06-29T00:00:00	2024-11-08T23:00:00	3	Temperatura mínima	14.2
32484	7	Sololá	701	Sololá	1	Sololá	6	Junio	2023-06-29T00:00:00	2024-11-08T23:00:00	5	Humedad	95
32485	7	Sololá	701	Sololá	1	Sololá	6	Junio	2023-06-29T00:00:00	2024-11-08T23:00:00	6	Velocidad del viento	0
32486	7	Sololá	701	Sololá	1	Sololá	6	Junio	2023-06-29T00:00:00	2024-11-08T23:00:00	7	Dirección del viento	0
32487	7	Sololá	701	Sololá	1	Sololá	6	Junio	2023-06-29T00:00:00	2024-11-08T23:00:00	1	Precipitación	0
32488	7	Sololá	701	Sololá	1	Sololá	6	Junio	2023-06-29T00:00:00	2024-11-08T23:00:00	8	Radiación solar	0
32489	7	Sololá	701	Sololá	1	Sololá	6	Junio	2023-06-30T00:00:00	2024-11-08T00:00:00	2	Temperatura media	14
32490	7	Sololá	701	Sololá	1	Sololá	6	Junio	2023-06-30T00:00:00	2024-11-08T00:00:00	4	Temperatura máxima	14.3
32491	7	Sololá	701	Sololá	1	Sololá	6	Junio	2023-06-30T00:00:00	2024-11-08T00:00:00	3	Temperatura mínima	14
32492	7	Sololá	701	Sololá	1	Sololá	6	Junio	2023-06-30T00:00:00	2024-11-08T00:00:00	5	Humedad	94
32493	7	Sololá	701	Sololá	1	Sololá	6	Junio	2023-06-30T00:00:00	2024-11-08T00:00:00	6	Velocidad del viento	0
32494	7	Sololá	701	Sololá	1	Sololá	6	Junio	2023-06-30T00:00:00	2024-11-08T00:00:00	7	Dirección del viento	0
32495	7	Sololá	701	Sololá	1	Sololá	6	Junio	2023-06-30T00:00:00	2024-11-08T00:00:00	1	Precipitación	0
32496	7	Sololá	701	Sololá	1	Sololá	6	Junio	2023-06-30T00:00:00	2024-11-08T00:00:00	8	Radiación solar	0
32497	7	Sololá	701	Sololá	1	Sololá	6	Junio	2023-06-30T00:00:00	2024-11-08T01:00:00	2	Temperatura media	13.4
32498	7	Sololá	701	Sololá	1	Sololá	6	Junio	2023-06-30T00:00:00	2024-11-08T01:00:00	4	Temperatura máxima	14
32499	7	Sololá	701	Sololá	1	Sololá	6	Junio	2023-06-30T00:00:00	2024-11-08T01:00:00	3	Temperatura mínima	13.4
32500	7	Sololá	701	Sololá	1	Sololá	6	Junio	2023-06-30T00:00:00	2024-11-08T01:00:00	5	Humedad	94
32501	7	Sololá	701	Sololá	1	Sololá	6	Junio	2023-06-30T00:00:00	2024-11-08T01:00:00	6	Velocidad del viento	0
32502	7	Sololá	701	Sololá	1	Sololá	6	Junio	2023-06-30T00:00:00	2024-11-08T01:00:00	7	Dirección del viento	0
32503	7	Sololá	701	Sololá	1	Sololá	6	Junio	2023-06-30T00:00:00	2024-11-08T01:00:00	1	Precipitación	0
32504	7	Sololá	701	Sololá	1	Sololá	6	Junio	2023-06-30T00:00:00	2024-11-08T01:00:00	8	Radiación solar	0
32505	7	Sololá	701	Sololá	1	Sololá	6	Junio	2023-06-30T00:00:00	2024-11-08T02:00:00	2	Temperatura media	13.5
32506	7	Sololá	701	Sololá	1	Sololá	6	Junio	2023-06-30T00:00:00	2024-11-08T02:00:00	4	Temperatura máxima	13.5
32507	7	Sololá	701	Sololá	1	Sololá	6	Junio	2023-06-30T00:00:00	2024-11-08T02:00:00	3	Temperatura mínima	13.3
32508	7	Sololá	701	Sololá	1	Sololá	6	Junio	2023-06-30T00:00:00	2024-11-08T02:00:00	5	Humedad	95
32509	7	Sololá	701	Sololá	1	Sololá	6	Junio	2023-06-30T00:00:00	2024-11-08T02:00:00	6	Velocidad del viento	0
32510	7	Sololá	701	Sololá	1	Sololá	6	Junio	2023-06-30T00:00:00	2024-11-08T02:00:00	7	Dirección del viento	0
32511	7	Sololá	701	Sololá	1	Sololá	6	Junio	2023-06-30T00:00:00	2024-11-08T02:00:00	1	Precipitación	0
32512	7	Sololá	701	Sololá	1	Sololá	6	Junio	2023-06-30T00:00:00	2024-11-08T02:00:00	8	Radiación solar	0
32513	7	Sololá	701	Sololá	1	Sololá	6	Junio	2023-06-30T00:00:00	2024-11-08T03:00:00	2	Temperatura media	13.2
32514	7	Sololá	701	Sololá	1	Sololá	6	Junio	2023-06-30T00:00:00	2024-11-08T03:00:00	4	Temperatura máxima	13.5
32515	7	Sololá	701	Sololá	1	Sololá	6	Junio	2023-06-30T00:00:00	2024-11-08T03:00:00	3	Temperatura mínima	13.2
32516	7	Sololá	701	Sololá	1	Sololá	6	Junio	2023-06-30T00:00:00	2024-11-08T03:00:00	5	Humedad	95
32517	7	Sololá	701	Sololá	1	Sololá	6	Junio	2023-06-30T00:00:00	2024-11-08T03:00:00	6	Velocidad del viento	0
32518	7	Sololá	701	Sololá	1	Sololá	6	Junio	2023-06-30T00:00:00	2024-11-08T03:00:00	7	Dirección del viento	0
32519	7	Sololá	701	Sololá	1	Sololá	6	Junio	2023-06-30T00:00:00	2024-11-08T03:00:00	1	Precipitación	0
32520	7	Sololá	701	Sololá	1	Sololá	6	Junio	2023-06-30T00:00:00	2024-11-08T03:00:00	8	Radiación solar	0
32521	7	Sololá	701	Sololá	1	Sololá	6	Junio	2023-06-30T00:00:00	2024-11-08T04:00:00	2	Temperatura media	12.8
32522	7	Sololá	701	Sololá	1	Sololá	6	Junio	2023-06-30T00:00:00	2024-11-08T04:00:00	4	Temperatura máxima	13.2
32523	7	Sololá	701	Sololá	1	Sololá	6	Junio	2023-06-30T00:00:00	2024-11-08T04:00:00	3	Temperatura mínima	12.8
32524	7	Sololá	701	Sololá	1	Sololá	6	Junio	2023-06-30T00:00:00	2024-11-08T04:00:00	5	Humedad	95
32525	7	Sololá	701	Sololá	1	Sololá	6	Junio	2023-06-30T00:00:00	2024-11-08T04:00:00	6	Velocidad del viento	0
32526	7	Sololá	701	Sololá	1	Sololá	6	Junio	2023-06-30T00:00:00	2024-11-08T04:00:00	7	Dirección del viento	0
32527	7	Sololá	701	Sololá	1	Sololá	6	Junio	2023-06-30T00:00:00	2024-11-08T04:00:00	1	Precipitación	0
32528	7	Sololá	701	Sololá	1	Sololá	6	Junio	2023-06-30T00:00:00	2024-11-08T04:00:00	8	Radiación solar	0
32529	7	Sololá	701	Sololá	1	Sololá	6	Junio	2023-06-30T00:00:00	2024-11-08T05:00:00	2	Temperatura media	13.3
32530	7	Sololá	701	Sololá	1	Sololá	6	Junio	2023-06-30T00:00:00	2024-11-08T05:00:00	4	Temperatura máxima	13.3
32531	7	Sololá	701	Sololá	1	Sololá	6	Junio	2023-06-30T00:00:00	2024-11-08T05:00:00	3	Temperatura mínima	12.8
32532	7	Sololá	701	Sololá	1	Sololá	6	Junio	2023-06-30T00:00:00	2024-11-08T05:00:00	5	Humedad	94
32533	7	Sololá	701	Sololá	1	Sololá	6	Junio	2023-06-30T00:00:00	2024-11-08T05:00:00	6	Velocidad del viento	0
32534	7	Sololá	701	Sololá	1	Sololá	6	Junio	2023-06-30T00:00:00	2024-11-08T05:00:00	7	Dirección del viento	0
32535	7	Sololá	701	Sololá	1	Sololá	6	Junio	2023-06-30T00:00:00	2024-11-08T05:00:00	1	Precipitación	0
32536	7	Sololá	701	Sololá	1	Sololá	6	Junio	2023-06-30T00:00:00	2024-11-08T05:00:00	8	Radiación solar	0
32537	7	Sololá	701	Sololá	1	Sololá	6	Junio	2023-06-30T00:00:00	2024-11-08T06:00:00	2	Temperatura media	13.8
32538	7	Sololá	701	Sololá	1	Sololá	6	Junio	2023-06-30T00:00:00	2024-11-08T06:00:00	4	Temperatura máxima	13.8
32539	7	Sololá	701	Sololá	1	Sololá	6	Junio	2023-06-30T00:00:00	2024-11-08T06:00:00	3	Temperatura mínima	13.3
32540	7	Sololá	701	Sololá	1	Sololá	6	Junio	2023-06-30T00:00:00	2024-11-08T06:00:00	5	Humedad	92
32541	7	Sololá	701	Sololá	1	Sololá	6	Junio	2023-06-30T00:00:00	2024-11-08T06:00:00	6	Velocidad del viento	0
32542	7	Sololá	701	Sololá	1	Sololá	6	Junio	2023-06-30T00:00:00	2024-11-08T06:00:00	7	Dirección del viento	0
32543	7	Sololá	701	Sololá	1	Sololá	6	Junio	2023-06-30T00:00:00	2024-11-08T06:00:00	1	Precipitación	0
32544	7	Sololá	701	Sololá	1	Sololá	6	Junio	2023-06-30T00:00:00	2024-11-08T06:00:00	8	Radiación solar	1
32545	7	Sololá	701	Sololá	1	Sololá	6	Junio	2023-06-30T00:00:00	2024-11-08T07:00:00	2	Temperatura media	14.8
32546	7	Sololá	701	Sololá	1	Sololá	6	Junio	2023-06-30T00:00:00	2024-11-08T07:00:00	4	Temperatura máxima	14.8
32547	7	Sololá	701	Sololá	1	Sololá	6	Junio	2023-06-30T00:00:00	2024-11-08T07:00:00	3	Temperatura mínima	13.7
32548	7	Sololá	701	Sololá	1	Sololá	6	Junio	2023-06-30T00:00:00	2024-11-08T07:00:00	5	Humedad	91
32549	7	Sololá	701	Sololá	1	Sololá	6	Junio	2023-06-30T00:00:00	2024-11-08T07:00:00	6	Velocidad del viento	0
32550	7	Sololá	701	Sololá	1	Sololá	6	Junio	2023-06-30T00:00:00	2024-11-08T07:00:00	7	Dirección del viento	0
32551	7	Sololá	701	Sololá	1	Sololá	6	Junio	2023-06-30T00:00:00	2024-11-08T07:00:00	1	Precipitación	0
32552	7	Sololá	701	Sololá	1	Sololá	6	Junio	2023-06-30T00:00:00	2024-11-08T07:00:00	8	Radiación solar	38
32553	7	Sololá	701	Sololá	1	Sololá	6	Junio	2023-06-30T00:00:00	2024-11-08T08:00:00	2	Temperatura media	16.2
32554	7	Sololá	701	Sololá	1	Sololá	6	Junio	2023-06-30T00:00:00	2024-11-08T08:00:00	4	Temperatura máxima	16.2
32555	7	Sololá	701	Sololá	1	Sololá	6	Junio	2023-06-30T00:00:00	2024-11-08T08:00:00	3	Temperatura mínima	14.8
32556	7	Sololá	701	Sololá	1	Sololá	6	Junio	2023-06-30T00:00:00	2024-11-08T08:00:00	5	Humedad	87
32557	7	Sololá	701	Sololá	1	Sololá	6	Junio	2023-06-30T00:00:00	2024-11-08T08:00:00	6	Velocidad del viento	0
32558	7	Sololá	701	Sololá	1	Sololá	6	Junio	2023-06-30T00:00:00	2024-11-08T08:00:00	7	Dirección del viento	0
32559	7	Sololá	701	Sololá	1	Sololá	6	Junio	2023-06-30T00:00:00	2024-11-08T08:00:00	1	Precipitación	0
32560	7	Sololá	701	Sololá	1	Sololá	6	Junio	2023-06-30T00:00:00	2024-11-08T08:00:00	8	Radiación solar	49
32561	7	Sololá	701	Sololá	1	Sololá	6	Junio	2023-06-30T00:00:00	2024-11-08T09:00:00	2	Temperatura media	20.1
32562	7	Sololá	701	Sololá	1	Sololá	6	Junio	2023-06-30T00:00:00	2024-11-08T09:00:00	4	Temperatura máxima	20.1
32563	7	Sololá	701	Sololá	1	Sololá	6	Junio	2023-06-30T00:00:00	2024-11-08T09:00:00	3	Temperatura mínima	16.2
32564	7	Sololá	701	Sololá	1	Sololá	6	Junio	2023-06-30T00:00:00	2024-11-08T09:00:00	5	Humedad	81
32565	7	Sololá	701	Sololá	1	Sololá	6	Junio	2023-06-30T00:00:00	2024-11-08T09:00:00	6	Velocidad del viento	0
32566	7	Sololá	701	Sololá	1	Sololá	6	Junio	2023-06-30T00:00:00	2024-11-08T09:00:00	7	Dirección del viento	0
32567	7	Sololá	701	Sololá	1	Sololá	6	Junio	2023-06-30T00:00:00	2024-11-08T09:00:00	1	Precipitación	0
32568	7	Sololá	701	Sololá	1	Sololá	6	Junio	2023-06-30T00:00:00	2024-11-08T09:00:00	8	Radiación solar	428
32569	7	Sololá	701	Sololá	1	Sololá	6	Junio	2023-06-30T00:00:00	2024-11-08T10:00:00	2	Temperatura media	22.7
32570	7	Sololá	701	Sololá	1	Sololá	6	Junio	2023-06-30T00:00:00	2024-11-08T10:00:00	4	Temperatura máxima	22.7
32571	7	Sololá	701	Sololá	1	Sololá	6	Junio	2023-06-30T00:00:00	2024-11-08T10:00:00	3	Temperatura mínima	20.1
32572	7	Sololá	701	Sololá	1	Sololá	6	Junio	2023-06-30T00:00:00	2024-11-08T10:00:00	5	Humedad	65
32573	7	Sololá	701	Sololá	1	Sololá	6	Junio	2023-06-30T00:00:00	2024-11-08T10:00:00	6	Velocidad del viento	0
32574	7	Sololá	701	Sololá	1	Sololá	6	Junio	2023-06-30T00:00:00	2024-11-08T10:00:00	7	Dirección del viento	0
32575	7	Sololá	701	Sololá	1	Sololá	6	Junio	2023-06-30T00:00:00	2024-11-08T10:00:00	1	Precipitación	0
32576	7	Sololá	701	Sololá	1	Sololá	6	Junio	2023-06-30T00:00:00	2024-11-08T10:00:00	8	Radiación solar	773
32577	7	Sololá	701	Sololá	1	Sololá	6	Junio	2023-06-30T00:00:00	2024-11-08T11:00:00	2	Temperatura media	23.7
32578	7	Sololá	701	Sololá	1	Sololá	6	Junio	2023-06-30T00:00:00	2024-11-08T11:00:00	4	Temperatura máxima	23.8
32579	7	Sololá	701	Sololá	1	Sololá	6	Junio	2023-06-30T00:00:00	2024-11-08T11:00:00	3	Temperatura mínima	22.7
32580	7	Sololá	701	Sololá	1	Sololá	6	Junio	2023-06-30T00:00:00	2024-11-08T11:00:00	5	Humedad	64
32581	7	Sololá	701	Sololá	1	Sololá	6	Junio	2023-06-30T00:00:00	2024-11-08T11:00:00	6	Velocidad del viento	0
32582	7	Sololá	701	Sololá	1	Sololá	6	Junio	2023-06-30T00:00:00	2024-11-08T11:00:00	7	Dirección del viento	0
32583	7	Sololá	701	Sololá	1	Sololá	6	Junio	2023-06-30T00:00:00	2024-11-08T11:00:00	1	Precipitación	0
32584	7	Sololá	701	Sololá	1	Sololá	6	Junio	2023-06-30T00:00:00	2024-11-08T11:00:00	8	Radiación solar	913
32585	7	Sololá	701	Sololá	1	Sololá	6	Junio	2023-06-30T00:00:00	2024-11-08T12:00:00	2	Temperatura media	24.3
32586	7	Sololá	701	Sololá	1	Sololá	6	Junio	2023-06-30T00:00:00	2024-11-08T12:00:00	4	Temperatura máxima	24.3
32587	7	Sololá	701	Sololá	1	Sololá	6	Junio	2023-06-30T00:00:00	2024-11-08T12:00:00	3	Temperatura mínima	23.7
32588	7	Sololá	701	Sololá	1	Sololá	6	Junio	2023-06-30T00:00:00	2024-11-08T12:00:00	5	Humedad	59
32589	7	Sololá	701	Sololá	1	Sololá	6	Junio	2023-06-30T00:00:00	2024-11-08T12:00:00	6	Velocidad del viento	0
32590	7	Sololá	701	Sololá	1	Sololá	6	Junio	2023-06-30T00:00:00	2024-11-08T12:00:00	7	Dirección del viento	0
32591	7	Sololá	701	Sololá	1	Sololá	6	Junio	2023-06-30T00:00:00	2024-11-08T12:00:00	1	Precipitación	0
32592	7	Sololá	701	Sololá	1	Sololá	6	Junio	2023-06-30T00:00:00	2024-11-08T12:00:00	8	Radiación solar	974
32593	7	Sololá	701	Sololá	1	Sololá	6	Junio	2023-06-30T00:00:00	2024-11-08T13:00:00	2	Temperatura media	24.5
32594	7	Sololá	701	Sololá	1	Sololá	6	Junio	2023-06-30T00:00:00	2024-11-08T13:00:00	4	Temperatura máxima	24.6
32595	7	Sololá	701	Sololá	1	Sololá	6	Junio	2023-06-30T00:00:00	2024-11-08T13:00:00	3	Temperatura mínima	24.2
32596	7	Sololá	701	Sololá	1	Sololá	6	Junio	2023-06-30T00:00:00	2024-11-08T13:00:00	5	Humedad	57
32597	7	Sololá	701	Sololá	1	Sololá	6	Junio	2023-06-30T00:00:00	2024-11-08T13:00:00	6	Velocidad del viento	0
32598	7	Sololá	701	Sololá	1	Sololá	6	Junio	2023-06-30T00:00:00	2024-11-08T13:00:00	7	Dirección del viento	0
32599	7	Sololá	701	Sololá	1	Sololá	6	Junio	2023-06-30T00:00:00	2024-11-08T13:00:00	1	Precipitación	0
32600	7	Sololá	701	Sololá	1	Sololá	6	Junio	2023-06-30T00:00:00	2024-11-08T13:00:00	8	Radiación solar	234
32601	7	Sololá	701	Sololá	1	Sololá	6	Junio	2023-06-30T00:00:00	2024-11-08T14:00:00	2	Temperatura media	22.1
32602	7	Sololá	701	Sololá	1	Sololá	6	Junio	2023-06-30T00:00:00	2024-11-08T14:00:00	4	Temperatura máxima	24.6
32603	7	Sololá	701	Sololá	1	Sololá	6	Junio	2023-06-30T00:00:00	2024-11-08T14:00:00	3	Temperatura mínima	22.1
32604	7	Sololá	701	Sololá	1	Sololá	6	Junio	2023-06-30T00:00:00	2024-11-08T14:00:00	5	Humedad	68
32605	7	Sololá	701	Sololá	1	Sololá	6	Junio	2023-06-30T00:00:00	2024-11-08T14:00:00	6	Velocidad del viento	0
32606	7	Sololá	701	Sololá	1	Sololá	6	Junio	2023-06-30T00:00:00	2024-11-08T14:00:00	7	Dirección del viento	0
32607	7	Sololá	701	Sololá	1	Sololá	6	Junio	2023-06-30T00:00:00	2024-11-08T14:00:00	1	Precipitación	0
32608	7	Sololá	701	Sololá	1	Sololá	6	Junio	2023-06-30T00:00:00	2024-11-08T14:00:00	8	Radiación solar	113
32609	7	Sololá	701	Sololá	1	Sololá	6	Junio	2023-06-30T00:00:00	2024-11-08T15:00:00	2	Temperatura media	21.4
32610	7	Sololá	701	Sololá	1	Sololá	6	Junio	2023-06-30T00:00:00	2024-11-08T15:00:00	4	Temperatura máxima	22.1
32611	7	Sololá	701	Sololá	1	Sololá	6	Junio	2023-06-30T00:00:00	2024-11-08T15:00:00	3	Temperatura mínima	21.3
32612	7	Sololá	701	Sololá	1	Sololá	6	Junio	2023-06-30T00:00:00	2024-11-08T15:00:00	5	Humedad	80
32613	7	Sololá	701	Sololá	1	Sololá	6	Junio	2023-06-30T00:00:00	2024-11-08T15:00:00	6	Velocidad del viento	0
32614	7	Sololá	701	Sololá	1	Sololá	6	Junio	2023-06-30T00:00:00	2024-11-08T15:00:00	7	Dirección del viento	0
32615	7	Sololá	701	Sololá	1	Sololá	6	Junio	2023-06-30T00:00:00	2024-11-08T15:00:00	1	Precipitación	0
32616	7	Sololá	701	Sololá	1	Sololá	6	Junio	2023-06-30T00:00:00	2024-11-08T15:00:00	8	Radiación solar	105
32617	7	Sololá	701	Sololá	1	Sololá	6	Junio	2023-06-30T00:00:00	2024-11-08T16:00:00	2	Temperatura media	22.2
32618	7	Sololá	701	Sololá	1	Sololá	6	Junio	2023-06-30T00:00:00	2024-11-08T16:00:00	4	Temperatura máxima	22.2
32619	7	Sololá	701	Sololá	1	Sololá	6	Junio	2023-06-30T00:00:00	2024-11-08T16:00:00	3	Temperatura mínima	21.4
32620	7	Sololá	701	Sololá	1	Sololá	6	Junio	2023-06-30T00:00:00	2024-11-08T16:00:00	5	Humedad	81
32621	7	Sololá	701	Sololá	1	Sololá	6	Junio	2023-06-30T00:00:00	2024-11-08T16:00:00	6	Velocidad del viento	0
32622	7	Sololá	701	Sololá	1	Sololá	6	Junio	2023-06-30T00:00:00	2024-11-08T16:00:00	7	Dirección del viento	0
32623	7	Sololá	701	Sololá	1	Sololá	6	Junio	2023-06-30T00:00:00	2024-11-08T16:00:00	1	Precipitación	0
32624	7	Sololá	701	Sololá	1	Sololá	6	Junio	2023-06-30T00:00:00	2024-11-08T16:00:00	8	Radiación solar	115
32625	7	Sololá	701	Sololá	1	Sololá	6	Junio	2023-06-30T00:00:00	2024-11-08T17:00:00	2	Temperatura media	19.4
32626	7	Sololá	701	Sololá	1	Sololá	6	Junio	2023-06-30T00:00:00	2024-11-08T17:00:00	4	Temperatura máxima	22.2
32627	7	Sololá	701	Sololá	1	Sololá	6	Junio	2023-06-30T00:00:00	2024-11-08T17:00:00	3	Temperatura mínima	19.4
32628	7	Sololá	701	Sololá	1	Sololá	6	Junio	2023-06-30T00:00:00	2024-11-08T17:00:00	5	Humedad	81
32629	7	Sololá	701	Sololá	1	Sololá	6	Junio	2023-06-30T00:00:00	2024-11-08T17:00:00	6	Velocidad del viento	0
32630	7	Sololá	701	Sololá	1	Sololá	6	Junio	2023-06-30T00:00:00	2024-11-08T17:00:00	7	Dirección del viento	0
32631	7	Sololá	701	Sololá	1	Sololá	6	Junio	2023-06-30T00:00:00	2024-11-08T17:00:00	1	Precipitación	0
32632	7	Sololá	701	Sololá	1	Sololá	6	Junio	2023-06-30T00:00:00	2024-11-08T17:00:00	8	Radiación solar	60
32633	7	Sololá	701	Sololá	1	Sololá	6	Junio	2023-06-30T00:00:00	2024-11-08T18:00:00	2	Temperatura media	18.6
32634	7	Sololá	701	Sololá	1	Sololá	6	Junio	2023-06-30T00:00:00	2024-11-08T18:00:00	4	Temperatura máxima	19.6
32635	7	Sololá	701	Sololá	1	Sololá	6	Junio	2023-06-30T00:00:00	2024-11-08T18:00:00	3	Temperatura mínima	18.6
32636	7	Sololá	701	Sololá	1	Sololá	6	Junio	2023-06-30T00:00:00	2024-11-08T18:00:00	5	Humedad	82
32637	7	Sololá	701	Sololá	1	Sololá	6	Junio	2023-06-30T00:00:00	2024-11-08T18:00:00	6	Velocidad del viento	0
32638	7	Sololá	701	Sololá	1	Sololá	6	Junio	2023-06-30T00:00:00	2024-11-08T18:00:00	7	Dirección del viento	0
32639	7	Sololá	701	Sololá	1	Sololá	6	Junio	2023-06-30T00:00:00	2024-11-08T18:00:00	1	Precipitación	0
32640	7	Sololá	701	Sololá	1	Sololá	6	Junio	2023-06-30T00:00:00	2024-11-08T18:00:00	8	Radiación solar	41
32641	7	Sololá	701	Sololá	1	Sololá	6	Junio	2023-06-30T00:00:00	2024-11-08T19:00:00	2	Temperatura media	17.7
32642	7	Sololá	701	Sololá	1	Sololá	6	Junio	2023-06-30T00:00:00	2024-11-08T19:00:00	4	Temperatura máxima	18.6
32643	7	Sololá	701	Sololá	1	Sololá	6	Junio	2023-06-30T00:00:00	2024-11-08T19:00:00	3	Temperatura mínima	17.7
32644	7	Sololá	701	Sololá	1	Sololá	6	Junio	2023-06-30T00:00:00	2024-11-08T19:00:00	5	Humedad	80
32645	7	Sololá	701	Sololá	1	Sololá	6	Junio	2023-06-30T00:00:00	2024-11-08T19:00:00	6	Velocidad del viento	0
32646	7	Sololá	701	Sololá	1	Sololá	6	Junio	2023-06-30T00:00:00	2024-11-08T19:00:00	7	Dirección del viento	0
32647	7	Sololá	701	Sololá	1	Sololá	6	Junio	2023-06-30T00:00:00	2024-11-08T19:00:00	1	Precipitación	0
32648	7	Sololá	701	Sololá	1	Sololá	6	Junio	2023-06-30T00:00:00	2024-11-08T19:00:00	8	Radiación solar	0
32649	7	Sololá	701	Sololá	1	Sololá	6	Junio	2023-06-30T00:00:00	2024-11-08T20:00:00	2	Temperatura media	16.7
32650	7	Sololá	701	Sololá	1	Sololá	6	Junio	2023-06-30T00:00:00	2024-11-08T20:00:00	4	Temperatura máxima	17.7
32651	7	Sololá	701	Sololá	1	Sololá	6	Junio	2023-06-30T00:00:00	2024-11-08T20:00:00	3	Temperatura mínima	16.7
32652	7	Sololá	701	Sololá	1	Sololá	6	Junio	2023-06-30T00:00:00	2024-11-08T20:00:00	5	Humedad	84
32653	7	Sololá	701	Sololá	1	Sololá	6	Junio	2023-06-30T00:00:00	2024-11-08T20:00:00	6	Velocidad del viento	0
32654	7	Sololá	701	Sololá	1	Sololá	6	Junio	2023-06-30T00:00:00	2024-11-08T20:00:00	7	Dirección del viento	0
32655	7	Sololá	701	Sololá	1	Sololá	6	Junio	2023-06-30T00:00:00	2024-11-08T20:00:00	1	Precipitación	0
32656	7	Sololá	701	Sololá	1	Sololá	6	Junio	2023-06-30T00:00:00	2024-11-08T20:00:00	8	Radiación solar	0
32657	7	Sololá	701	Sololá	1	Sololá	6	Junio	2023-06-30T00:00:00	2024-11-08T21:00:00	2	Temperatura media	15.8
32658	7	Sololá	701	Sololá	1	Sololá	6	Junio	2023-06-30T00:00:00	2024-11-08T21:00:00	4	Temperatura máxima	16.7
32659	7	Sololá	701	Sololá	1	Sololá	6	Junio	2023-06-30T00:00:00	2024-11-08T21:00:00	3	Temperatura mínima	15.8
32660	7	Sololá	701	Sololá	1	Sololá	6	Junio	2023-06-30T00:00:00	2024-11-08T21:00:00	5	Humedad	86
32661	7	Sololá	701	Sololá	1	Sololá	6	Junio	2023-06-30T00:00:00	2024-11-08T21:00:00	6	Velocidad del viento	0
32662	7	Sololá	701	Sololá	1	Sololá	6	Junio	2023-06-30T00:00:00	2024-11-08T21:00:00	7	Dirección del viento	0
32663	7	Sololá	701	Sololá	1	Sololá	6	Junio	2023-06-30T00:00:00	2024-11-08T21:00:00	1	Precipitación	0
32664	7	Sololá	701	Sololá	1	Sololá	6	Junio	2023-06-30T00:00:00	2024-11-08T21:00:00	8	Radiación solar	0
32665	7	Sololá	701	Sololá	1	Sololá	6	Junio	2023-06-30T00:00:00	2024-11-08T22:00:00	2	Temperatura media	15.2
32666	7	Sololá	701	Sololá	1	Sololá	6	Junio	2023-06-30T00:00:00	2024-11-08T22:00:00	4	Temperatura máxima	15.8
32667	7	Sololá	701	Sololá	1	Sololá	6	Junio	2023-06-30T00:00:00	2024-11-08T22:00:00	3	Temperatura mínima	15.1
32668	7	Sololá	701	Sololá	1	Sololá	6	Junio	2023-06-30T00:00:00	2024-11-08T22:00:00	5	Humedad	88
32669	7	Sololá	701	Sololá	1	Sololá	6	Junio	2023-06-30T00:00:00	2024-11-08T22:00:00	6	Velocidad del viento	0
32670	7	Sololá	701	Sololá	1	Sololá	6	Junio	2023-06-30T00:00:00	2024-11-08T22:00:00	7	Dirección del viento	0
32671	7	Sololá	701	Sololá	1	Sololá	6	Junio	2023-06-30T00:00:00	2024-11-08T22:00:00	1	Precipitación	0
32672	7	Sololá	701	Sololá	1	Sololá	6	Junio	2023-06-30T00:00:00	2024-11-08T22:00:00	8	Radiación solar	0
32673	7	Sololá	701	Sololá	1	Sololá	6	Junio	2023-06-30T00:00:00	2024-11-08T23:00:00	2	Temperatura media	14.9
32674	7	Sololá	701	Sololá	1	Sololá	6	Junio	2023-06-30T00:00:00	2024-11-08T23:00:00	4	Temperatura máxima	15.1
32675	7	Sololá	701	Sololá	1	Sololá	6	Junio	2023-06-30T00:00:00	2024-11-08T23:00:00	3	Temperatura mínima	14.9
32676	7	Sololá	701	Sololá	1	Sololá	6	Junio	2023-06-30T00:00:00	2024-11-08T23:00:00	5	Humedad	89
32677	7	Sololá	701	Sololá	1	Sololá	6	Junio	2023-06-30T00:00:00	2024-11-08T23:00:00	6	Velocidad del viento	0
32678	7	Sololá	701	Sololá	1	Sololá	6	Junio	2023-06-30T00:00:00	2024-11-08T23:00:00	7	Dirección del viento	0
32679	7	Sololá	701	Sololá	1	Sololá	6	Junio	2023-06-30T00:00:00	2024-11-08T23:00:00	1	Precipitación	0
32680	7	Sololá	701	Sololá	1	Sololá	6	Junio	2023-06-30T00:00:00	2024-11-08T23:00:00	8	Radiación solar	0
32681	7	Sololá	701	Sololá	1	Sololá	7	Julio	2023-01-07T00:00:00	2024-11-08T00:00:00	2	Temperatura media	14.7
32682	7	Sololá	701	Sololá	1	Sololá	7	Julio	2023-01-07T00:00:00	2024-11-08T00:00:00	4	Temperatura máxima	15.1
32683	7	Sololá	701	Sololá	1	Sololá	7	Julio	2023-01-07T00:00:00	2024-11-08T00:00:00	3	Temperatura mínima	14.7
32684	7	Sololá	701	Sololá	1	Sololá	7	Julio	2023-01-07T00:00:00	2024-11-08T00:00:00	5	Humedad	89
32685	7	Sololá	701	Sololá	1	Sololá	7	Julio	2023-01-07T00:00:00	2024-11-08T00:00:00	6	Velocidad del viento	0
32686	7	Sololá	701	Sololá	1	Sololá	7	Julio	2023-01-07T00:00:00	2024-11-08T00:00:00	7	Dirección del viento	0
32687	7	Sololá	701	Sololá	1	Sololá	7	Julio	2023-01-07T00:00:00	2024-11-08T00:00:00	1	Precipitación	0
32688	7	Sololá	701	Sololá	1	Sololá	7	Julio	2023-01-07T00:00:00	2024-11-08T00:00:00	8	Radiación solar	0
32689	7	Sololá	701	Sololá	1	Sololá	7	Julio	2023-01-07T00:00:00	2024-11-08T01:00:00	2	Temperatura media	14.9
32690	7	Sololá	701	Sololá	1	Sololá	7	Julio	2023-01-07T00:00:00	2024-11-08T01:00:00	4	Temperatura máxima	14.9
32691	7	Sololá	701	Sololá	1	Sololá	7	Julio	2023-01-07T00:00:00	2024-11-08T01:00:00	3	Temperatura mínima	14.7
32692	7	Sololá	701	Sololá	1	Sololá	7	Julio	2023-01-07T00:00:00	2024-11-08T01:00:00	5	Humedad	89
32693	7	Sololá	701	Sololá	1	Sololá	7	Julio	2023-01-07T00:00:00	2024-11-08T01:00:00	6	Velocidad del viento	0
32694	7	Sololá	701	Sololá	1	Sololá	7	Julio	2023-01-07T00:00:00	2024-11-08T01:00:00	7	Dirección del viento	0
32695	7	Sololá	701	Sololá	1	Sololá	7	Julio	2023-01-07T00:00:00	2024-11-08T01:00:00	1	Precipitación	0
32696	7	Sololá	701	Sololá	1	Sololá	7	Julio	2023-01-07T00:00:00	2024-11-08T01:00:00	8	Radiación solar	0
32697	7	Sololá	701	Sololá	1	Sololá	7	Julio	2023-01-07T00:00:00	2024-11-08T02:00:00	2	Temperatura media	15.1
32698	7	Sololá	701	Sololá	1	Sololá	7	Julio	2023-01-07T00:00:00	2024-11-08T02:00:00	4	Temperatura máxima	15.3
32699	7	Sololá	701	Sololá	1	Sololá	7	Julio	2023-01-07T00:00:00	2024-11-08T02:00:00	3	Temperatura mínima	14.9
32700	7	Sololá	701	Sololá	1	Sololá	7	Julio	2023-01-07T00:00:00	2024-11-08T02:00:00	5	Humedad	86
32701	7	Sololá	701	Sololá	1	Sololá	7	Julio	2023-01-07T00:00:00	2024-11-08T02:00:00	6	Velocidad del viento	0
32702	7	Sololá	701	Sololá	1	Sololá	7	Julio	2023-01-07T00:00:00	2024-11-08T02:00:00	7	Dirección del viento	0
32703	7	Sololá	701	Sololá	1	Sololá	7	Julio	2023-01-07T00:00:00	2024-11-08T02:00:00	1	Precipitación	0
32704	7	Sololá	701	Sololá	1	Sololá	7	Julio	2023-01-07T00:00:00	2024-11-08T02:00:00	8	Radiación solar	0
32705	7	Sololá	701	Sololá	1	Sololá	7	Julio	2023-01-07T00:00:00	2024-11-08T03:00:00	2	Temperatura media	13.8
32706	7	Sololá	701	Sololá	1	Sololá	7	Julio	2023-01-07T00:00:00	2024-11-08T03:00:00	4	Temperatura máxima	15.1
32707	7	Sololá	701	Sololá	1	Sololá	7	Julio	2023-01-07T00:00:00	2024-11-08T03:00:00	3	Temperatura mínima	13.8
32708	7	Sololá	701	Sololá	1	Sololá	7	Julio	2023-01-07T00:00:00	2024-11-08T03:00:00	5	Humedad	86
32709	7	Sololá	701	Sololá	1	Sololá	7	Julio	2023-01-07T00:00:00	2024-11-08T03:00:00	6	Velocidad del viento	0
32710	7	Sololá	701	Sololá	1	Sololá	7	Julio	2023-01-07T00:00:00	2024-11-08T03:00:00	7	Dirección del viento	0
32711	7	Sololá	701	Sololá	1	Sololá	7	Julio	2023-01-07T00:00:00	2024-11-08T03:00:00	1	Precipitación	0
32712	7	Sololá	701	Sololá	1	Sololá	7	Julio	2023-01-07T00:00:00	2024-11-08T03:00:00	8	Radiación solar	0
32713	7	Sololá	701	Sololá	1	Sololá	7	Julio	2023-01-07T00:00:00	2024-11-08T04:00:00	2	Temperatura media	13.8
32714	7	Sololá	701	Sololá	1	Sololá	7	Julio	2023-01-07T00:00:00	2024-11-08T04:00:00	4	Temperatura máxima	13.8
32715	7	Sololá	701	Sololá	1	Sololá	7	Julio	2023-01-07T00:00:00	2024-11-08T04:00:00	3	Temperatura mínima	13.6
32716	7	Sololá	701	Sololá	1	Sololá	7	Julio	2023-01-07T00:00:00	2024-11-08T04:00:00	5	Humedad	85
32717	7	Sololá	701	Sololá	1	Sololá	7	Julio	2023-01-07T00:00:00	2024-11-08T04:00:00	6	Velocidad del viento	0
32718	7	Sololá	701	Sololá	1	Sololá	7	Julio	2023-01-07T00:00:00	2024-11-08T04:00:00	7	Dirección del viento	0
32719	7	Sololá	701	Sololá	1	Sololá	7	Julio	2023-01-07T00:00:00	2024-11-08T04:00:00	1	Precipitación	0
32720	7	Sololá	701	Sololá	1	Sololá	7	Julio	2023-01-07T00:00:00	2024-11-08T04:00:00	8	Radiación solar	0
32721	7	Sololá	701	Sololá	1	Sololá	7	Julio	2023-01-07T00:00:00	2024-11-08T05:00:00	2	Temperatura media	13.3
32722	7	Sololá	701	Sololá	1	Sololá	7	Julio	2023-01-07T00:00:00	2024-11-08T05:00:00	4	Temperatura máxima	13.8
32723	7	Sololá	701	Sololá	1	Sololá	7	Julio	2023-01-07T00:00:00	2024-11-08T05:00:00	3	Temperatura mínima	13.3
32724	7	Sololá	701	Sololá	1	Sololá	7	Julio	2023-01-07T00:00:00	2024-11-08T05:00:00	5	Humedad	84
32725	7	Sololá	701	Sololá	1	Sololá	7	Julio	2023-01-07T00:00:00	2024-11-08T05:00:00	6	Velocidad del viento	0
32726	7	Sololá	701	Sololá	1	Sololá	7	Julio	2023-01-07T00:00:00	2024-11-08T05:00:00	7	Dirección del viento	0
32727	7	Sololá	701	Sololá	1	Sololá	7	Julio	2023-01-07T00:00:00	2024-11-08T05:00:00	1	Precipitación	0
32728	7	Sololá	701	Sololá	1	Sololá	7	Julio	2023-01-07T00:00:00	2024-11-08T05:00:00	8	Radiación solar	0
32729	7	Sololá	701	Sololá	1	Sololá	7	Julio	2023-01-07T00:00:00	2024-11-08T06:00:00	2	Temperatura media	13.2
32730	7	Sololá	701	Sololá	1	Sololá	7	Julio	2023-01-07T00:00:00	2024-11-08T06:00:00	4	Temperatura máxima	13.3
32731	7	Sololá	701	Sololá	1	Sololá	7	Julio	2023-01-07T00:00:00	2024-11-08T06:00:00	3	Temperatura mínima	13.1
32732	7	Sololá	701	Sololá	1	Sololá	7	Julio	2023-01-07T00:00:00	2024-11-08T06:00:00	5	Humedad	87
32733	7	Sololá	701	Sololá	1	Sololá	7	Julio	2023-01-07T00:00:00	2024-11-08T06:00:00	6	Velocidad del viento	0
32734	7	Sololá	701	Sololá	1	Sololá	7	Julio	2023-01-07T00:00:00	2024-11-08T06:00:00	7	Dirección del viento	0
32735	7	Sololá	701	Sololá	1	Sololá	7	Julio	2023-01-07T00:00:00	2024-11-08T06:00:00	1	Precipitación	0
32736	7	Sololá	701	Sololá	1	Sololá	7	Julio	2023-01-07T00:00:00	2024-11-08T06:00:00	8	Radiación solar	2
32737	7	Sololá	701	Sololá	1	Sololá	7	Julio	2023-01-07T00:00:00	2024-11-08T07:00:00	2	Temperatura media	13.9
32738	7	Sololá	701	Sololá	1	Sololá	7	Julio	2023-01-07T00:00:00	2024-11-08T07:00:00	4	Temperatura máxima	13.9
32739	7	Sololá	701	Sololá	1	Sololá	7	Julio	2023-01-07T00:00:00	2024-11-08T07:00:00	3	Temperatura mínima	13.2
32740	7	Sololá	701	Sololá	1	Sololá	7	Julio	2023-01-07T00:00:00	2024-11-08T07:00:00	5	Humedad	88
32741	7	Sololá	701	Sololá	1	Sololá	7	Julio	2023-01-07T00:00:00	2024-11-08T07:00:00	6	Velocidad del viento	0
32742	7	Sololá	701	Sololá	1	Sololá	7	Julio	2023-01-07T00:00:00	2024-11-08T07:00:00	7	Dirección del viento	0
32743	7	Sololá	701	Sololá	1	Sololá	7	Julio	2023-01-07T00:00:00	2024-11-08T07:00:00	1	Precipitación	0
32744	7	Sololá	701	Sololá	1	Sololá	7	Julio	2023-01-07T00:00:00	2024-11-08T07:00:00	8	Radiación solar	24
32745	7	Sololá	701	Sololá	1	Sololá	7	Julio	2023-01-07T00:00:00	2024-11-08T08:00:00	2	Temperatura media	15.9
32746	7	Sololá	701	Sololá	1	Sololá	7	Julio	2023-01-07T00:00:00	2024-11-08T08:00:00	4	Temperatura máxima	15.9
32747	7	Sololá	701	Sololá	1	Sololá	7	Julio	2023-01-07T00:00:00	2024-11-08T08:00:00	3	Temperatura mínima	13.9
32748	7	Sololá	701	Sololá	1	Sololá	7	Julio	2023-01-07T00:00:00	2024-11-08T08:00:00	5	Humedad	84
32749	7	Sololá	701	Sololá	1	Sololá	7	Julio	2023-01-07T00:00:00	2024-11-08T08:00:00	6	Velocidad del viento	0
32750	7	Sololá	701	Sololá	1	Sololá	7	Julio	2023-01-07T00:00:00	2024-11-08T08:00:00	7	Dirección del viento	0
32751	7	Sololá	701	Sololá	1	Sololá	7	Julio	2023-01-07T00:00:00	2024-11-08T08:00:00	1	Precipitación	0
32752	7	Sololá	701	Sololá	1	Sololá	7	Julio	2023-01-07T00:00:00	2024-11-08T08:00:00	8	Radiación solar	51
32753	7	Sololá	701	Sololá	1	Sololá	7	Julio	2023-01-07T00:00:00	2024-11-08T09:00:00	2	Temperatura media	21
32754	7	Sololá	701	Sololá	1	Sololá	7	Julio	2023-01-07T00:00:00	2024-11-08T09:00:00	4	Temperatura máxima	21
32755	7	Sololá	701	Sololá	1	Sololá	7	Julio	2023-01-07T00:00:00	2024-11-08T09:00:00	3	Temperatura mínima	15.9
32756	7	Sololá	701	Sololá	1	Sololá	7	Julio	2023-01-07T00:00:00	2024-11-08T09:00:00	5	Humedad	68
32757	7	Sololá	701	Sololá	1	Sololá	7	Julio	2023-01-07T00:00:00	2024-11-08T09:00:00	6	Velocidad del viento	0
32758	7	Sololá	701	Sololá	1	Sololá	7	Julio	2023-01-07T00:00:00	2024-11-08T09:00:00	7	Dirección del viento	0
32759	7	Sololá	701	Sololá	1	Sololá	7	Julio	2023-01-07T00:00:00	2024-11-08T09:00:00	1	Precipitación	0
32760	7	Sololá	701	Sololá	1	Sololá	7	Julio	2023-01-07T00:00:00	2024-11-08T09:00:00	8	Radiación solar	431
32761	7	Sololá	701	Sololá	1	Sololá	7	Julio	2023-01-07T00:00:00	2024-11-08T10:00:00	2	Temperatura media	22.8
32762	7	Sololá	701	Sololá	1	Sololá	7	Julio	2023-01-07T00:00:00	2024-11-08T10:00:00	4	Temperatura máxima	22.8
32763	7	Sololá	701	Sololá	1	Sololá	7	Julio	2023-01-07T00:00:00	2024-11-08T10:00:00	3	Temperatura mínima	21
32764	7	Sololá	701	Sololá	1	Sololá	7	Julio	2023-01-07T00:00:00	2024-11-08T10:00:00	5	Humedad	59
32765	7	Sololá	701	Sololá	1	Sololá	7	Julio	2023-01-07T00:00:00	2024-11-08T10:00:00	6	Velocidad del viento	0
32766	7	Sololá	701	Sololá	1	Sololá	7	Julio	2023-01-07T00:00:00	2024-11-08T10:00:00	7	Dirección del viento	0
32767	7	Sololá	701	Sololá	1	Sololá	7	Julio	2023-01-07T00:00:00	2024-11-08T10:00:00	1	Precipitación	0
32768	7	Sololá	701	Sololá	1	Sololá	7	Julio	2023-01-07T00:00:00	2024-11-08T10:00:00	8	Radiación solar	785
32769	7	Sololá	701	Sololá	1	Sololá	7	Julio	2023-01-07T00:00:00	2024-11-08T11:00:00	2	Temperatura media	22.2
32770	7	Sololá	701	Sololá	1	Sololá	7	Julio	2023-01-07T00:00:00	2024-11-08T11:00:00	4	Temperatura máxima	23.3
32771	7	Sololá	701	Sololá	1	Sololá	7	Julio	2023-01-07T00:00:00	2024-11-08T11:00:00	3	Temperatura mínima	22.2
32772	7	Sololá	701	Sololá	1	Sololá	7	Julio	2023-01-07T00:00:00	2024-11-08T11:00:00	5	Humedad	67
32773	7	Sololá	701	Sololá	1	Sololá	7	Julio	2023-01-07T00:00:00	2024-11-08T11:00:00	6	Velocidad del viento	0
32774	7	Sololá	701	Sololá	1	Sololá	7	Julio	2023-01-07T00:00:00	2024-11-08T11:00:00	7	Dirección del viento	0
32775	7	Sololá	701	Sololá	1	Sololá	7	Julio	2023-01-07T00:00:00	2024-11-08T11:00:00	1	Precipitación	0
32776	7	Sololá	701	Sololá	1	Sololá	7	Julio	2023-01-07T00:00:00	2024-11-08T11:00:00	8	Radiación solar	851
32777	7	Sololá	701	Sololá	1	Sololá	7	Julio	2023-01-07T00:00:00	2024-11-08T12:00:00	2	Temperatura media	22.3
32778	7	Sololá	701	Sololá	1	Sololá	7	Julio	2023-01-07T00:00:00	2024-11-08T12:00:00	4	Temperatura máxima	22.4
32779	7	Sololá	701	Sololá	1	Sololá	7	Julio	2023-01-07T00:00:00	2024-11-08T12:00:00	3	Temperatura mínima	21.6
32780	7	Sololá	701	Sololá	1	Sololá	7	Julio	2023-01-07T00:00:00	2024-11-08T12:00:00	5	Humedad	70
32781	7	Sololá	701	Sololá	1	Sololá	7	Julio	2023-01-07T00:00:00	2024-11-08T12:00:00	6	Velocidad del viento	0
32782	7	Sololá	701	Sololá	1	Sololá	7	Julio	2023-01-07T00:00:00	2024-11-08T12:00:00	7	Dirección del viento	0
32783	7	Sololá	701	Sololá	1	Sololá	7	Julio	2023-01-07T00:00:00	2024-11-08T12:00:00	1	Precipitación	0
32784	7	Sololá	701	Sololá	1	Sololá	7	Julio	2023-01-07T00:00:00	2024-11-08T12:00:00	8	Radiación solar	617
32785	7	Sololá	701	Sololá	1	Sololá	7	Julio	2023-01-07T00:00:00	2024-11-08T13:00:00	2	Temperatura media	21.1
32786	7	Sololá	701	Sololá	1	Sololá	7	Julio	2023-01-07T00:00:00	2024-11-08T13:00:00	4	Temperatura máxima	22.3
32787	7	Sololá	701	Sololá	1	Sololá	7	Julio	2023-01-07T00:00:00	2024-11-08T13:00:00	3	Temperatura mínima	21
32788	7	Sololá	701	Sololá	1	Sololá	7	Julio	2023-01-07T00:00:00	2024-11-08T13:00:00	5	Humedad	79
32789	7	Sololá	701	Sololá	1	Sololá	7	Julio	2023-01-07T00:00:00	2024-11-08T13:00:00	6	Velocidad del viento	0
32790	7	Sololá	701	Sololá	1	Sololá	7	Julio	2023-01-07T00:00:00	2024-11-08T13:00:00	7	Dirección del viento	0
32791	7	Sololá	701	Sololá	1	Sololá	7	Julio	2023-01-07T00:00:00	2024-11-08T13:00:00	1	Precipitación	0
32792	7	Sololá	701	Sololá	1	Sololá	7	Julio	2023-01-07T00:00:00	2024-11-08T13:00:00	8	Radiación solar	146
32793	7	Sololá	701	Sololá	1	Sololá	7	Julio	2023-01-07T00:00:00	2024-11-08T14:00:00	2	Temperatura media	21.4
32794	7	Sololá	701	Sololá	1	Sololá	7	Julio	2023-01-07T00:00:00	2024-11-08T14:00:00	4	Temperatura máxima	21.5
32795	7	Sololá	701	Sololá	1	Sololá	7	Julio	2023-01-07T00:00:00	2024-11-08T14:00:00	3	Temperatura mínima	20.9
32796	7	Sololá	701	Sololá	1	Sololá	7	Julio	2023-01-07T00:00:00	2024-11-08T14:00:00	5	Humedad	84
32797	7	Sololá	701	Sololá	1	Sololá	7	Julio	2023-01-07T00:00:00	2024-11-08T14:00:00	6	Velocidad del viento	0
32798	7	Sololá	701	Sololá	1	Sololá	7	Julio	2023-01-07T00:00:00	2024-11-08T14:00:00	7	Dirección del viento	0
32799	7	Sololá	701	Sololá	1	Sololá	7	Julio	2023-01-07T00:00:00	2024-11-08T14:00:00	1	Precipitación	0
32800	7	Sololá	701	Sololá	1	Sololá	7	Julio	2023-01-07T00:00:00	2024-11-08T14:00:00	8	Radiación solar	205
32801	7	Sololá	701	Sololá	1	Sololá	7	Julio	2023-01-07T00:00:00	2024-11-08T15:00:00	2	Temperatura media	14.4
32802	7	Sololá	701	Sololá	1	Sololá	7	Julio	2023-01-07T00:00:00	2024-11-08T15:00:00	4	Temperatura máxima	21.6
32803	7	Sololá	701	Sololá	1	Sololá	7	Julio	2023-01-07T00:00:00	2024-11-08T15:00:00	3	Temperatura mínima	14.4
32804	7	Sololá	701	Sololá	1	Sololá	7	Julio	2023-01-07T00:00:00	2024-11-08T15:00:00	5	Humedad	88
32805	7	Sololá	701	Sololá	1	Sololá	7	Julio	2023-01-07T00:00:00	2024-11-08T15:00:00	6	Velocidad del viento	0
32806	7	Sololá	701	Sololá	1	Sololá	7	Julio	2023-01-07T00:00:00	2024-11-08T15:00:00	7	Dirección del viento	0
32807	7	Sololá	701	Sololá	1	Sololá	7	Julio	2023-01-07T00:00:00	2024-11-08T15:00:00	1	Precipitación	63.8
32808	7	Sololá	701	Sololá	1	Sololá	7	Julio	2023-01-07T00:00:00	2024-11-08T15:00:00	8	Radiación solar	22
32809	7	Sololá	701	Sololá	1	Sololá	7	Julio	2023-01-07T00:00:00	2024-11-08T16:00:00	2	Temperatura media	13.6
32810	7	Sololá	701	Sololá	1	Sololá	7	Julio	2023-01-07T00:00:00	2024-11-08T16:00:00	4	Temperatura máxima	14.4
32811	7	Sololá	701	Sololá	1	Sololá	7	Julio	2023-01-07T00:00:00	2024-11-08T16:00:00	3	Temperatura mínima	13.3
32812	7	Sololá	701	Sololá	1	Sololá	7	Julio	2023-01-07T00:00:00	2024-11-08T16:00:00	5	Humedad	96
32813	7	Sololá	701	Sololá	1	Sololá	7	Julio	2023-01-07T00:00:00	2024-11-08T16:00:00	6	Velocidad del viento	0
32814	7	Sololá	701	Sololá	1	Sololá	7	Julio	2023-01-07T00:00:00	2024-11-08T16:00:00	7	Dirección del viento	0
32815	7	Sololá	701	Sololá	1	Sololá	7	Julio	2023-01-07T00:00:00	2024-11-08T16:00:00	1	Precipitación	19
32816	7	Sololá	701	Sololá	1	Sololá	7	Julio	2023-01-07T00:00:00	2024-11-08T16:00:00	8	Radiación solar	0
32817	7	Sololá	701	Sololá	1	Sololá	7	Julio	2023-01-07T00:00:00	2024-11-08T17:00:00	2	Temperatura media	13.9
32818	7	Sololá	701	Sololá	1	Sololá	7	Julio	2023-01-07T00:00:00	2024-11-08T17:00:00	4	Temperatura máxima	13.9
32819	7	Sololá	701	Sololá	1	Sololá	7	Julio	2023-01-07T00:00:00	2024-11-08T17:00:00	3	Temperatura mínima	13.4
32820	7	Sololá	701	Sololá	1	Sololá	7	Julio	2023-01-07T00:00:00	2024-11-08T17:00:00	5	Humedad	97
32821	7	Sololá	701	Sololá	1	Sololá	7	Julio	2023-01-07T00:00:00	2024-11-08T17:00:00	6	Velocidad del viento	0
32822	7	Sololá	701	Sololá	1	Sololá	7	Julio	2023-01-07T00:00:00	2024-11-08T17:00:00	7	Dirección del viento	0
32823	7	Sololá	701	Sololá	1	Sololá	7	Julio	2023-01-07T00:00:00	2024-11-08T17:00:00	1	Precipitación	1.4
32824	7	Sololá	701	Sololá	1	Sololá	7	Julio	2023-01-07T00:00:00	2024-11-08T17:00:00	8	Radiación solar	5
32825	7	Sololá	701	Sololá	1	Sololá	7	Julio	2023-01-07T00:00:00	2024-11-08T18:00:00	2	Temperatura media	14.1
32826	7	Sololá	701	Sololá	1	Sololá	7	Julio	2023-01-07T00:00:00	2024-11-08T18:00:00	4	Temperatura máxima	14.2
32827	7	Sololá	701	Sololá	1	Sololá	7	Julio	2023-01-07T00:00:00	2024-11-08T18:00:00	3	Temperatura mínima	13.9
32828	7	Sololá	701	Sololá	1	Sololá	7	Julio	2023-01-07T00:00:00	2024-11-08T18:00:00	5	Humedad	97
32829	7	Sololá	701	Sololá	1	Sololá	7	Julio	2023-01-07T00:00:00	2024-11-08T18:00:00	6	Velocidad del viento	0
32830	7	Sololá	701	Sololá	1	Sololá	7	Julio	2023-01-07T00:00:00	2024-11-08T18:00:00	7	Dirección del viento	0
32831	7	Sololá	701	Sololá	1	Sololá	7	Julio	2023-01-07T00:00:00	2024-11-08T18:00:00	1	Precipitación	10.2
32832	7	Sololá	701	Sololá	1	Sololá	7	Julio	2023-01-07T00:00:00	2024-11-08T18:00:00	8	Radiación solar	0
32833	7	Sololá	701	Sololá	1	Sololá	7	Julio	2023-01-07T00:00:00	2024-11-08T19:00:00	2	Temperatura media	13.7
32834	7	Sololá	701	Sololá	1	Sololá	7	Julio	2023-01-07T00:00:00	2024-11-08T19:00:00	4	Temperatura máxima	14.1
32835	7	Sololá	701	Sololá	1	Sololá	7	Julio	2023-01-07T00:00:00	2024-11-08T19:00:00	3	Temperatura mínima	13.7
32836	7	Sololá	701	Sololá	1	Sololá	7	Julio	2023-01-07T00:00:00	2024-11-08T19:00:00	5	Humedad	97
32837	7	Sololá	701	Sololá	1	Sololá	7	Julio	2023-01-07T00:00:00	2024-11-08T19:00:00	6	Velocidad del viento	0
32838	7	Sololá	701	Sololá	1	Sololá	7	Julio	2023-01-07T00:00:00	2024-11-08T19:00:00	7	Dirección del viento	0
32839	7	Sololá	701	Sololá	1	Sololá	7	Julio	2023-01-07T00:00:00	2024-11-08T19:00:00	1	Precipitación	1.2
32840	7	Sololá	701	Sololá	1	Sololá	7	Julio	2023-01-07T00:00:00	2024-11-08T19:00:00	8	Radiación solar	0
32841	7	Sololá	701	Sololá	1	Sololá	7	Julio	2023-01-07T00:00:00	2024-11-08T20:00:00	2	Temperatura media	13.4
32842	7	Sololá	701	Sololá	1	Sololá	7	Julio	2023-01-07T00:00:00	2024-11-08T20:00:00	4	Temperatura máxima	13.7
32843	7	Sololá	701	Sololá	1	Sololá	7	Julio	2023-01-07T00:00:00	2024-11-08T20:00:00	3	Temperatura mínima	13.3
32844	7	Sololá	701	Sololá	1	Sololá	7	Julio	2023-01-07T00:00:00	2024-11-08T20:00:00	5	Humedad	96
32845	7	Sololá	701	Sololá	1	Sololá	7	Julio	2023-01-07T00:00:00	2024-11-08T20:00:00	6	Velocidad del viento	0
32846	7	Sololá	701	Sololá	1	Sololá	7	Julio	2023-01-07T00:00:00	2024-11-08T20:00:00	7	Dirección del viento	0
32847	7	Sololá	701	Sololá	1	Sololá	7	Julio	2023-01-07T00:00:00	2024-11-08T20:00:00	1	Precipitación	0.2
32848	7	Sololá	701	Sololá	1	Sololá	7	Julio	2023-01-07T00:00:00	2024-11-08T20:00:00	8	Radiación solar	0
32849	7	Sololá	701	Sololá	1	Sololá	7	Julio	2023-01-07T00:00:00	2024-11-08T21:00:00	2	Temperatura media	13.6
32850	7	Sololá	701	Sololá	1	Sololá	7	Julio	2023-01-07T00:00:00	2024-11-08T21:00:00	4	Temperatura máxima	13.7
32851	7	Sololá	701	Sololá	1	Sololá	7	Julio	2023-01-07T00:00:00	2024-11-08T21:00:00	3	Temperatura mínima	13.3
32852	7	Sololá	701	Sololá	1	Sololá	7	Julio	2023-01-07T00:00:00	2024-11-08T21:00:00	5	Humedad	96
32853	7	Sololá	701	Sololá	1	Sololá	7	Julio	2023-01-07T00:00:00	2024-11-08T21:00:00	6	Velocidad del viento	0
32854	7	Sololá	701	Sololá	1	Sololá	7	Julio	2023-01-07T00:00:00	2024-11-08T21:00:00	7	Dirección del viento	0
32855	7	Sololá	701	Sololá	1	Sololá	7	Julio	2023-01-07T00:00:00	2024-11-08T21:00:00	1	Precipitación	0
32856	7	Sololá	701	Sololá	1	Sololá	7	Julio	2023-01-07T00:00:00	2024-11-08T21:00:00	8	Radiación solar	0
32857	7	Sololá	701	Sololá	1	Sololá	7	Julio	2023-01-07T00:00:00	2024-11-08T22:00:00	2	Temperatura media	13.7
32858	7	Sololá	701	Sololá	1	Sololá	7	Julio	2023-01-07T00:00:00	2024-11-08T22:00:00	4	Temperatura máxima	13.8
32859	7	Sololá	701	Sololá	1	Sololá	7	Julio	2023-01-07T00:00:00	2024-11-08T22:00:00	3	Temperatura mínima	13.6
32860	7	Sololá	701	Sololá	1	Sololá	7	Julio	2023-01-07T00:00:00	2024-11-08T22:00:00	5	Humedad	95
32861	7	Sololá	701	Sololá	1	Sololá	7	Julio	2023-01-07T00:00:00	2024-11-08T22:00:00	6	Velocidad del viento	0
32862	7	Sololá	701	Sololá	1	Sololá	7	Julio	2023-01-07T00:00:00	2024-11-08T22:00:00	7	Dirección del viento	0
32863	7	Sololá	701	Sololá	1	Sololá	7	Julio	2023-01-07T00:00:00	2024-11-08T22:00:00	1	Precipitación	0
32864	7	Sololá	701	Sololá	1	Sololá	7	Julio	2023-01-07T00:00:00	2024-11-08T22:00:00	8	Radiación solar	0
32865	7	Sololá	701	Sololá	1	Sololá	7	Julio	2023-01-07T00:00:00	2024-11-08T23:00:00	2	Temperatura media	13.4
32866	7	Sololá	701	Sololá	1	Sololá	7	Julio	2023-01-07T00:00:00	2024-11-08T23:00:00	4	Temperatura máxima	13.7
32867	7	Sololá	701	Sololá	1	Sololá	7	Julio	2023-01-07T00:00:00	2024-11-08T23:00:00	3	Temperatura mínima	13.3
32868	7	Sololá	701	Sololá	1	Sololá	7	Julio	2023-01-07T00:00:00	2024-11-08T23:00:00	5	Humedad	95
32869	7	Sololá	701	Sololá	1	Sololá	7	Julio	2023-01-07T00:00:00	2024-11-08T23:00:00	6	Velocidad del viento	0
32870	7	Sololá	701	Sololá	1	Sololá	7	Julio	2023-01-07T00:00:00	2024-11-08T23:00:00	7	Dirección del viento	0
32871	7	Sololá	701	Sololá	1	Sololá	7	Julio	2023-01-07T00:00:00	2024-11-08T23:00:00	1	Precipitación	0
32872	7	Sololá	701	Sololá	1	Sololá	7	Julio	2023-01-07T00:00:00	2024-11-08T23:00:00	8	Radiación solar	0
32873	7	Sololá	701	Sololá	1	Sololá	7	Julio	2023-02-07T00:00:00	2024-11-08T00:00:00	2	Temperatura media	13.4
32874	7	Sololá	701	Sololá	1	Sololá	7	Julio	2023-02-07T00:00:00	2024-11-08T00:00:00	4	Temperatura máxima	13.6
32875	7	Sololá	701	Sololá	1	Sololá	7	Julio	2023-02-07T00:00:00	2024-11-08T00:00:00	3	Temperatura mínima	13.4
32876	7	Sololá	701	Sololá	1	Sololá	7	Julio	2023-02-07T00:00:00	2024-11-08T00:00:00	5	Humedad	95
32877	7	Sololá	701	Sololá	1	Sololá	7	Julio	2023-02-07T00:00:00	2024-11-08T00:00:00	6	Velocidad del viento	0
32878	7	Sololá	701	Sololá	1	Sololá	7	Julio	2023-02-07T00:00:00	2024-11-08T00:00:00	7	Dirección del viento	0
32879	7	Sololá	701	Sololá	1	Sololá	7	Julio	2023-02-07T00:00:00	2024-11-08T00:00:00	1	Precipitación	0
32880	7	Sololá	701	Sololá	1	Sololá	7	Julio	2023-02-07T00:00:00	2024-11-08T00:00:00	8	Radiación solar	0
32881	7	Sololá	701	Sololá	1	Sololá	7	Julio	2023-02-07T00:00:00	2024-11-08T01:00:00	2	Temperatura media	13.3
32882	7	Sololá	701	Sololá	1	Sololá	7	Julio	2023-02-07T00:00:00	2024-11-08T01:00:00	4	Temperatura máxima	13.4
32883	7	Sololá	701	Sololá	1	Sololá	7	Julio	2023-02-07T00:00:00	2024-11-08T01:00:00	3	Temperatura mínima	13.2
32884	7	Sololá	701	Sololá	1	Sololá	7	Julio	2023-02-07T00:00:00	2024-11-08T01:00:00	5	Humedad	95
32885	7	Sololá	701	Sololá	1	Sololá	7	Julio	2023-02-07T00:00:00	2024-11-08T01:00:00	6	Velocidad del viento	0
32886	7	Sololá	701	Sololá	1	Sololá	7	Julio	2023-02-07T00:00:00	2024-11-08T01:00:00	7	Dirección del viento	0
32887	7	Sololá	701	Sololá	1	Sololá	7	Julio	2023-02-07T00:00:00	2024-11-08T01:00:00	1	Precipitación	0
32888	7	Sololá	701	Sololá	1	Sololá	7	Julio	2023-02-07T00:00:00	2024-11-08T01:00:00	8	Radiación solar	0
32889	7	Sololá	701	Sololá	1	Sololá	7	Julio	2023-02-07T00:00:00	2024-11-08T02:00:00	2	Temperatura media	13.2
32890	7	Sololá	701	Sololá	1	Sololá	7	Julio	2023-02-07T00:00:00	2024-11-08T02:00:00	4	Temperatura máxima	13.4
32891	7	Sololá	701	Sololá	1	Sololá	7	Julio	2023-02-07T00:00:00	2024-11-08T02:00:00	3	Temperatura mínima	13.2
32892	7	Sololá	701	Sololá	1	Sololá	7	Julio	2023-02-07T00:00:00	2024-11-08T02:00:00	5	Humedad	95
32893	7	Sololá	701	Sololá	1	Sololá	7	Julio	2023-02-07T00:00:00	2024-11-08T02:00:00	6	Velocidad del viento	0
32894	7	Sololá	701	Sololá	1	Sololá	7	Julio	2023-02-07T00:00:00	2024-11-08T02:00:00	7	Dirección del viento	0
32895	7	Sololá	701	Sololá	1	Sololá	7	Julio	2023-02-07T00:00:00	2024-11-08T02:00:00	1	Precipitación	0
32896	7	Sololá	701	Sololá	1	Sololá	7	Julio	2023-02-07T00:00:00	2024-11-08T02:00:00	8	Radiación solar	0
32897	7	Sololá	701	Sololá	1	Sololá	7	Julio	2023-02-07T00:00:00	2024-11-08T03:00:00	2	Temperatura media	12.7
32898	7	Sololá	701	Sololá	1	Sololá	7	Julio	2023-02-07T00:00:00	2024-11-08T03:00:00	4	Temperatura máxima	13.2
32899	7	Sololá	701	Sololá	1	Sololá	7	Julio	2023-02-07T00:00:00	2024-11-08T03:00:00	3	Temperatura mínima	12.7
32900	7	Sololá	701	Sololá	1	Sololá	7	Julio	2023-02-07T00:00:00	2024-11-08T03:00:00	5	Humedad	95
32901	7	Sololá	701	Sololá	1	Sololá	7	Julio	2023-02-07T00:00:00	2024-11-08T03:00:00	6	Velocidad del viento	0
32902	7	Sololá	701	Sololá	1	Sololá	7	Julio	2023-02-07T00:00:00	2024-11-08T03:00:00	7	Dirección del viento	0
32903	7	Sololá	701	Sololá	1	Sololá	7	Julio	2023-02-07T00:00:00	2024-11-08T03:00:00	1	Precipitación	0
32904	7	Sololá	701	Sololá	1	Sololá	7	Julio	2023-02-07T00:00:00	2024-11-08T03:00:00	8	Radiación solar	0
32905	7	Sololá	701	Sololá	1	Sololá	7	Julio	2023-02-07T00:00:00	2024-11-08T04:00:00	2	Temperatura media	12.3
32906	7	Sololá	701	Sololá	1	Sololá	7	Julio	2023-02-07T00:00:00	2024-11-08T04:00:00	4	Temperatura máxima	12.7
32907	7	Sololá	701	Sololá	1	Sololá	7	Julio	2023-02-07T00:00:00	2024-11-08T04:00:00	3	Temperatura mínima	12.3
32908	7	Sololá	701	Sololá	1	Sololá	7	Julio	2023-02-07T00:00:00	2024-11-08T04:00:00	5	Humedad	95
32909	7	Sololá	701	Sololá	1	Sololá	7	Julio	2023-02-07T00:00:00	2024-11-08T04:00:00	6	Velocidad del viento	0
32910	7	Sololá	701	Sololá	1	Sololá	7	Julio	2023-02-07T00:00:00	2024-11-08T04:00:00	7	Dirección del viento	0
32911	7	Sololá	701	Sololá	1	Sololá	7	Julio	2023-02-07T00:00:00	2024-11-08T04:00:00	1	Precipitación	0
32912	7	Sololá	701	Sololá	1	Sololá	7	Julio	2023-02-07T00:00:00	2024-11-08T04:00:00	8	Radiación solar	0
32913	7	Sololá	701	Sololá	1	Sololá	7	Julio	2023-02-07T00:00:00	2024-11-08T05:00:00	2	Temperatura media	12.3
32914	7	Sololá	701	Sololá	1	Sololá	7	Julio	2023-02-07T00:00:00	2024-11-08T05:00:00	4	Temperatura máxima	12.4
32915	7	Sololá	701	Sololá	1	Sololá	7	Julio	2023-02-07T00:00:00	2024-11-08T05:00:00	3	Temperatura mínima	12.2
32916	7	Sololá	701	Sololá	1	Sololá	7	Julio	2023-02-07T00:00:00	2024-11-08T05:00:00	5	Humedad	94
32917	7	Sololá	701	Sololá	1	Sololá	7	Julio	2023-02-07T00:00:00	2024-11-08T05:00:00	6	Velocidad del viento	0
32918	7	Sololá	701	Sololá	1	Sololá	7	Julio	2023-02-07T00:00:00	2024-11-08T05:00:00	7	Dirección del viento	0
32919	7	Sololá	701	Sololá	1	Sololá	7	Julio	2023-02-07T00:00:00	2024-11-08T05:00:00	1	Precipitación	0
32920	7	Sololá	701	Sololá	1	Sololá	7	Julio	2023-02-07T00:00:00	2024-11-08T05:00:00	8	Radiación solar	0
32921	7	Sololá	701	Sololá	1	Sololá	7	Julio	2023-02-07T00:00:00	2024-11-08T06:00:00	2	Temperatura media	12.3
32922	7	Sololá	701	Sololá	1	Sololá	7	Julio	2023-02-07T00:00:00	2024-11-08T06:00:00	4	Temperatura máxima	12.4
32923	7	Sololá	701	Sololá	1	Sololá	7	Julio	2023-02-07T00:00:00	2024-11-08T06:00:00	3	Temperatura mínima	12.3
32924	7	Sololá	701	Sololá	1	Sololá	7	Julio	2023-02-07T00:00:00	2024-11-08T06:00:00	5	Humedad	94
32925	7	Sololá	701	Sololá	1	Sololá	7	Julio	2023-02-07T00:00:00	2024-11-08T06:00:00	6	Velocidad del viento	0
32926	7	Sololá	701	Sololá	1	Sololá	7	Julio	2023-02-07T00:00:00	2024-11-08T06:00:00	7	Dirección del viento	0
32927	7	Sololá	701	Sololá	1	Sololá	7	Julio	2023-02-07T00:00:00	2024-11-08T06:00:00	1	Precipitación	0
32928	7	Sololá	701	Sololá	1	Sololá	7	Julio	2023-02-07T00:00:00	2024-11-08T06:00:00	8	Radiación solar	4
32929	7	Sololá	701	Sololá	1	Sololá	7	Julio	2023-02-07T00:00:00	2024-11-08T07:00:00	2	Temperatura media	14
32930	7	Sololá	701	Sololá	1	Sololá	7	Julio	2023-02-07T00:00:00	2024-11-08T07:00:00	4	Temperatura máxima	14
32931	7	Sololá	701	Sololá	1	Sololá	7	Julio	2023-02-07T00:00:00	2024-11-08T07:00:00	3	Temperatura mínima	12.3
32932	7	Sololá	701	Sololá	1	Sololá	7	Julio	2023-02-07T00:00:00	2024-11-08T07:00:00	5	Humedad	88
32933	7	Sololá	701	Sololá	1	Sololá	7	Julio	2023-02-07T00:00:00	2024-11-08T07:00:00	6	Velocidad del viento	0
32934	7	Sololá	701	Sololá	1	Sololá	7	Julio	2023-02-07T00:00:00	2024-11-08T07:00:00	7	Dirección del viento	0
32935	7	Sololá	701	Sololá	1	Sololá	7	Julio	2023-02-07T00:00:00	2024-11-08T07:00:00	1	Precipitación	0
32936	7	Sololá	701	Sololá	1	Sololá	7	Julio	2023-02-07T00:00:00	2024-11-08T07:00:00	8	Radiación solar	36
32937	7	Sololá	701	Sololá	1	Sololá	7	Julio	2023-02-07T00:00:00	2024-11-08T08:00:00	2	Temperatura media	15.9
32938	7	Sololá	701	Sololá	1	Sololá	7	Julio	2023-02-07T00:00:00	2024-11-08T08:00:00	4	Temperatura máxima	15.9
32939	7	Sololá	701	Sololá	1	Sololá	7	Julio	2023-02-07T00:00:00	2024-11-08T08:00:00	3	Temperatura mínima	14
32940	7	Sololá	701	Sololá	1	Sololá	7	Julio	2023-02-07T00:00:00	2024-11-08T08:00:00	5	Humedad	85
32941	7	Sololá	701	Sololá	1	Sololá	7	Julio	2023-02-07T00:00:00	2024-11-08T08:00:00	6	Velocidad del viento	0
32942	7	Sololá	701	Sololá	1	Sololá	7	Julio	2023-02-07T00:00:00	2024-11-08T08:00:00	7	Dirección del viento	0
32943	7	Sololá	701	Sololá	1	Sololá	7	Julio	2023-02-07T00:00:00	2024-11-08T08:00:00	1	Precipitación	0
32944	7	Sololá	701	Sololá	1	Sololá	7	Julio	2023-02-07T00:00:00	2024-11-08T08:00:00	8	Radiación solar	94
32945	7	Sololá	701	Sololá	1	Sololá	7	Julio	2023-02-07T00:00:00	2024-11-08T09:00:00	2	Temperatura media	19.8
32946	7	Sololá	701	Sololá	1	Sololá	7	Julio	2023-02-07T00:00:00	2024-11-08T09:00:00	4	Temperatura máxima	19.8
32947	7	Sololá	701	Sololá	1	Sololá	7	Julio	2023-02-07T00:00:00	2024-11-08T09:00:00	3	Temperatura mínima	15.9
32948	7	Sololá	701	Sololá	1	Sololá	7	Julio	2023-02-07T00:00:00	2024-11-08T09:00:00	5	Humedad	76
32949	7	Sololá	701	Sololá	1	Sololá	7	Julio	2023-02-07T00:00:00	2024-11-08T09:00:00	6	Velocidad del viento	0
32950	7	Sololá	701	Sololá	1	Sololá	7	Julio	2023-02-07T00:00:00	2024-11-08T09:00:00	7	Dirección del viento	0
32951	7	Sololá	701	Sololá	1	Sololá	7	Julio	2023-02-07T00:00:00	2024-11-08T09:00:00	1	Precipitación	0
32952	7	Sololá	701	Sololá	1	Sololá	7	Julio	2023-02-07T00:00:00	2024-11-08T09:00:00	8	Radiación solar	349
32953	7	Sololá	701	Sololá	1	Sololá	7	Julio	2023-02-07T00:00:00	2024-11-08T10:00:00	2	Temperatura media	19.2
32954	7	Sololá	701	Sololá	1	Sololá	7	Julio	2023-02-07T00:00:00	2024-11-08T10:00:00	4	Temperatura máxima	19.9
32955	7	Sololá	701	Sololá	1	Sololá	7	Julio	2023-02-07T00:00:00	2024-11-08T10:00:00	3	Temperatura mínima	19.2
32956	7	Sololá	701	Sololá	1	Sololá	7	Julio	2023-02-07T00:00:00	2024-11-08T10:00:00	5	Humedad	78
32957	7	Sololá	701	Sololá	1	Sololá	7	Julio	2023-02-07T00:00:00	2024-11-08T10:00:00	6	Velocidad del viento	0
32958	7	Sololá	701	Sololá	1	Sololá	7	Julio	2023-02-07T00:00:00	2024-11-08T10:00:00	7	Dirección del viento	0
32959	7	Sololá	701	Sololá	1	Sololá	7	Julio	2023-02-07T00:00:00	2024-11-08T10:00:00	1	Precipitación	0
32960	7	Sololá	701	Sololá	1	Sololá	7	Julio	2023-02-07T00:00:00	2024-11-08T10:00:00	8	Radiación solar	323
32961	7	Sololá	701	Sololá	1	Sololá	7	Julio	2023-02-07T00:00:00	2024-11-08T11:00:00	2	Temperatura media	18.3
32962	7	Sololá	701	Sololá	1	Sololá	7	Julio	2023-02-07T00:00:00	2024-11-08T11:00:00	4	Temperatura máxima	19.1
32963	7	Sololá	701	Sololá	1	Sololá	7	Julio	2023-02-07T00:00:00	2024-11-08T11:00:00	3	Temperatura mínima	18.3
32964	7	Sololá	701	Sololá	1	Sololá	7	Julio	2023-02-07T00:00:00	2024-11-08T11:00:00	5	Humedad	80
32965	7	Sololá	701	Sololá	1	Sololá	7	Julio	2023-02-07T00:00:00	2024-11-08T11:00:00	6	Velocidad del viento	0
32966	7	Sololá	701	Sololá	1	Sololá	7	Julio	2023-02-07T00:00:00	2024-11-08T11:00:00	7	Dirección del viento	0
32967	7	Sololá	701	Sololá	1	Sololá	7	Julio	2023-02-07T00:00:00	2024-11-08T11:00:00	1	Precipitación	0
32968	7	Sololá	701	Sololá	1	Sololá	7	Julio	2023-02-07T00:00:00	2024-11-08T11:00:00	8	Radiación solar	140
32969	7	Sololá	701	Sololá	1	Sololá	7	Julio	2023-02-07T00:00:00	2024-11-08T12:00:00	2	Temperatura media	17.6
32970	7	Sololá	701	Sololá	1	Sololá	7	Julio	2023-02-07T00:00:00	2024-11-08T12:00:00	4	Temperatura máxima	18.3
32971	7	Sololá	701	Sololá	1	Sololá	7	Julio	2023-02-07T00:00:00	2024-11-08T12:00:00	3	Temperatura mínima	17.6
32972	7	Sololá	701	Sololá	1	Sololá	7	Julio	2023-02-07T00:00:00	2024-11-08T12:00:00	5	Humedad	88
32973	7	Sololá	701	Sololá	1	Sololá	7	Julio	2023-02-07T00:00:00	2024-11-08T12:00:00	6	Velocidad del viento	0
32974	7	Sololá	701	Sololá	1	Sololá	7	Julio	2023-02-07T00:00:00	2024-11-08T12:00:00	7	Dirección del viento	0
32975	7	Sololá	701	Sololá	1	Sololá	7	Julio	2023-02-07T00:00:00	2024-11-08T12:00:00	1	Precipitación	0
32976	7	Sololá	701	Sololá	1	Sololá	7	Julio	2023-02-07T00:00:00	2024-11-08T12:00:00	8	Radiación solar	107
32977	7	Sololá	701	Sololá	1	Sololá	7	Julio	2023-02-07T00:00:00	2024-11-08T13:00:00	2	Temperatura media	17.4
32978	7	Sololá	701	Sololá	1	Sololá	7	Julio	2023-02-07T00:00:00	2024-11-08T13:00:00	4	Temperatura máxima	17.6
32979	7	Sololá	701	Sololá	1	Sololá	7	Julio	2023-02-07T00:00:00	2024-11-08T13:00:00	3	Temperatura mínima	17.3
32980	7	Sololá	701	Sololá	1	Sololá	7	Julio	2023-02-07T00:00:00	2024-11-08T13:00:00	5	Humedad	91
32981	7	Sololá	701	Sololá	1	Sololá	7	Julio	2023-02-07T00:00:00	2024-11-08T13:00:00	6	Velocidad del viento	0
32982	7	Sololá	701	Sololá	1	Sololá	7	Julio	2023-02-07T00:00:00	2024-11-08T13:00:00	7	Dirección del viento	0
32983	7	Sololá	701	Sololá	1	Sololá	7	Julio	2023-02-07T00:00:00	2024-11-08T13:00:00	1	Precipitación	0
32984	7	Sololá	701	Sololá	1	Sololá	7	Julio	2023-02-07T00:00:00	2024-11-08T13:00:00	8	Radiación solar	124
32985	7	Sololá	701	Sololá	1	Sololá	7	Julio	2023-02-07T00:00:00	2024-11-08T14:00:00	2	Temperatura media	17.4
32986	7	Sololá	701	Sololá	1	Sololá	7	Julio	2023-02-07T00:00:00	2024-11-08T14:00:00	4	Temperatura máxima	17.6
32987	7	Sololá	701	Sololá	1	Sololá	7	Julio	2023-02-07T00:00:00	2024-11-08T14:00:00	3	Temperatura mínima	16.9
32988	7	Sololá	701	Sololá	1	Sololá	7	Julio	2023-02-07T00:00:00	2024-11-08T14:00:00	5	Humedad	91
32989	7	Sololá	701	Sololá	1	Sololá	7	Julio	2023-02-07T00:00:00	2024-11-08T14:00:00	6	Velocidad del viento	0
32990	7	Sololá	701	Sololá	1	Sololá	7	Julio	2023-02-07T00:00:00	2024-11-08T14:00:00	7	Dirección del viento	0
32991	7	Sololá	701	Sololá	1	Sololá	7	Julio	2023-02-07T00:00:00	2024-11-08T14:00:00	1	Precipitación	0
32992	7	Sololá	701	Sololá	1	Sololá	7	Julio	2023-02-07T00:00:00	2024-11-08T14:00:00	8	Radiación solar	94
32993	7	Sololá	701	Sololá	1	Sololá	7	Julio	2023-02-07T00:00:00	2024-11-08T15:00:00	2	Temperatura media	15.9
32994	7	Sololá	701	Sololá	1	Sololá	7	Julio	2023-02-07T00:00:00	2024-11-08T15:00:00	4	Temperatura máxima	17.4
32995	7	Sololá	701	Sololá	1	Sololá	7	Julio	2023-02-07T00:00:00	2024-11-08T15:00:00	3	Temperatura mínima	15.9
32996	7	Sololá	701	Sololá	1	Sololá	7	Julio	2023-02-07T00:00:00	2024-11-08T15:00:00	5	Humedad	94
32997	7	Sololá	701	Sololá	1	Sololá	7	Julio	2023-02-07T00:00:00	2024-11-08T15:00:00	6	Velocidad del viento	0
32998	7	Sololá	701	Sololá	1	Sololá	7	Julio	2023-02-07T00:00:00	2024-11-08T15:00:00	7	Dirección del viento	0
32999	7	Sololá	701	Sololá	1	Sololá	7	Julio	2023-02-07T00:00:00	2024-11-08T15:00:00	1	Precipitación	0.6
33000	7	Sololá	701	Sololá	1	Sololá	7	Julio	2023-02-07T00:00:00	2024-11-08T15:00:00	8	Radiación solar	23
33001	7	Sololá	701	Sololá	1	Sololá	7	Julio	2023-02-07T00:00:00	2024-11-08T16:00:00	2	Temperatura media	15.6
33002	7	Sololá	701	Sololá	1	Sololá	7	Julio	2023-02-07T00:00:00	2024-11-08T16:00:00	4	Temperatura máxima	15.9
33003	7	Sololá	701	Sololá	1	Sololá	7	Julio	2023-02-07T00:00:00	2024-11-08T16:00:00	3	Temperatura mínima	15.5
33004	7	Sololá	701	Sololá	1	Sololá	7	Julio	2023-02-07T00:00:00	2024-11-08T16:00:00	5	Humedad	96
33005	7	Sololá	701	Sololá	1	Sololá	7	Julio	2023-02-07T00:00:00	2024-11-08T16:00:00	6	Velocidad del viento	0
33006	7	Sololá	701	Sololá	1	Sololá	7	Julio	2023-02-07T00:00:00	2024-11-08T16:00:00	7	Dirección del viento	0
33007	7	Sololá	701	Sololá	1	Sololá	7	Julio	2023-02-07T00:00:00	2024-11-08T16:00:00	1	Precipitación	0.4
33008	7	Sololá	701	Sololá	1	Sololá	7	Julio	2023-02-07T00:00:00	2024-11-08T16:00:00	8	Radiación solar	28
33009	7	Sololá	701	Sololá	1	Sololá	7	Julio	2023-02-07T00:00:00	2024-11-08T17:00:00	2	Temperatura media	15.9
33010	7	Sololá	701	Sololá	1	Sololá	7	Julio	2023-02-07T00:00:00	2024-11-08T17:00:00	4	Temperatura máxima	15.9
33011	7	Sololá	701	Sololá	1	Sololá	7	Julio	2023-02-07T00:00:00	2024-11-08T17:00:00	3	Temperatura mínima	15.6
33012	7	Sololá	701	Sololá	1	Sololá	7	Julio	2023-02-07T00:00:00	2024-11-08T17:00:00	5	Humedad	96
33013	7	Sololá	701	Sololá	1	Sololá	7	Julio	2023-02-07T00:00:00	2024-11-08T17:00:00	6	Velocidad del viento	0
33014	7	Sololá	701	Sololá	1	Sololá	7	Julio	2023-02-07T00:00:00	2024-11-08T17:00:00	7	Dirección del viento	0
33015	7	Sololá	701	Sololá	1	Sololá	7	Julio	2023-02-07T00:00:00	2024-11-08T17:00:00	1	Precipitación	0
33016	7	Sololá	701	Sololá	1	Sololá	7	Julio	2023-02-07T00:00:00	2024-11-08T17:00:00	8	Radiación solar	55
33017	7	Sololá	701	Sololá	1	Sololá	7	Julio	2023-02-07T00:00:00	2024-11-08T18:00:00	2	Temperatura media	15.3
33018	7	Sololá	701	Sololá	1	Sololá	7	Julio	2023-02-07T00:00:00	2024-11-08T18:00:00	4	Temperatura máxima	15.9
33019	7	Sololá	701	Sololá	1	Sololá	7	Julio	2023-02-07T00:00:00	2024-11-08T18:00:00	3	Temperatura mínima	15.2
33020	7	Sololá	701	Sololá	1	Sololá	7	Julio	2023-02-07T00:00:00	2024-11-08T18:00:00	5	Humedad	95
33021	7	Sololá	701	Sololá	1	Sololá	7	Julio	2023-02-07T00:00:00	2024-11-08T18:00:00	6	Velocidad del viento	0
33022	7	Sololá	701	Sololá	1	Sololá	7	Julio	2023-02-07T00:00:00	2024-11-08T18:00:00	7	Dirección del viento	0
33023	7	Sololá	701	Sololá	1	Sololá	7	Julio	2023-02-07T00:00:00	2024-11-08T18:00:00	1	Precipitación	0
33024	7	Sololá	701	Sololá	1	Sololá	7	Julio	2023-02-07T00:00:00	2024-11-08T18:00:00	8	Radiación solar	13
33025	7	Sololá	701	Sololá	1	Sololá	7	Julio	2023-02-07T00:00:00	2024-11-08T19:00:00	2	Temperatura media	15.3
33026	7	Sololá	701	Sololá	1	Sololá	7	Julio	2023-02-07T00:00:00	2024-11-08T19:00:00	4	Temperatura máxima	15.4
33027	7	Sololá	701	Sololá	1	Sololá	7	Julio	2023-02-07T00:00:00	2024-11-08T19:00:00	3	Temperatura mínima	15.2
33028	7	Sololá	701	Sololá	1	Sololá	7	Julio	2023-02-07T00:00:00	2024-11-08T19:00:00	5	Humedad	96
33029	7	Sololá	701	Sololá	1	Sololá	7	Julio	2023-02-07T00:00:00	2024-11-08T19:00:00	6	Velocidad del viento	0
33030	7	Sololá	701	Sololá	1	Sololá	7	Julio	2023-02-07T00:00:00	2024-11-08T19:00:00	7	Dirección del viento	0
33031	7	Sololá	701	Sololá	1	Sololá	7	Julio	2023-02-07T00:00:00	2024-11-08T19:00:00	1	Precipitación	0
33032	7	Sololá	701	Sololá	1	Sololá	7	Julio	2023-02-07T00:00:00	2024-11-08T19:00:00	8	Radiación solar	0
33033	7	Sololá	701	Sololá	1	Sololá	7	Julio	2023-02-07T00:00:00	2024-11-08T20:00:00	2	Temperatura media	15.3
33034	7	Sololá	701	Sololá	1	Sololá	7	Julio	2023-02-07T00:00:00	2024-11-08T20:00:00	4	Temperatura máxima	15.4
33035	7	Sololá	701	Sololá	1	Sololá	7	Julio	2023-02-07T00:00:00	2024-11-08T20:00:00	3	Temperatura mínima	15.3
33036	7	Sololá	701	Sololá	1	Sololá	7	Julio	2023-02-07T00:00:00	2024-11-08T20:00:00	5	Humedad	97
33037	7	Sololá	701	Sololá	1	Sololá	7	Julio	2023-02-07T00:00:00	2024-11-08T20:00:00	6	Velocidad del viento	0
33038	7	Sololá	701	Sololá	1	Sololá	7	Julio	2023-02-07T00:00:00	2024-11-08T20:00:00	7	Dirección del viento	0
33039	7	Sololá	701	Sololá	1	Sololá	7	Julio	2023-02-07T00:00:00	2024-11-08T20:00:00	1	Precipitación	0.4
33040	7	Sololá	701	Sololá	1	Sololá	7	Julio	2023-02-07T00:00:00	2024-11-08T20:00:00	8	Radiación solar	0
33041	7	Sololá	701	Sololá	1	Sololá	7	Julio	2023-02-07T00:00:00	2024-11-08T21:00:00	2	Temperatura media	15.1
33042	7	Sololá	701	Sololá	1	Sololá	7	Julio	2023-02-07T00:00:00	2024-11-08T21:00:00	4	Temperatura máxima	15.3
33043	7	Sololá	701	Sololá	1	Sololá	7	Julio	2023-02-07T00:00:00	2024-11-08T21:00:00	3	Temperatura mínima	15
33044	7	Sololá	701	Sololá	1	Sololá	7	Julio	2023-02-07T00:00:00	2024-11-08T21:00:00	5	Humedad	96
33045	7	Sololá	701	Sololá	1	Sololá	7	Julio	2023-02-07T00:00:00	2024-11-08T21:00:00	6	Velocidad del viento	0
33046	7	Sololá	701	Sololá	1	Sololá	7	Julio	2023-02-07T00:00:00	2024-11-08T21:00:00	7	Dirección del viento	0
33047	7	Sololá	701	Sololá	1	Sololá	7	Julio	2023-02-07T00:00:00	2024-11-08T21:00:00	1	Precipitación	0
33048	7	Sololá	701	Sololá	1	Sololá	7	Julio	2023-02-07T00:00:00	2024-11-08T21:00:00	8	Radiación solar	0
33049	7	Sololá	701	Sololá	1	Sololá	7	Julio	2023-02-07T00:00:00	2024-11-08T22:00:00	2	Temperatura media	14.6
33050	7	Sololá	701	Sololá	1	Sololá	7	Julio	2023-02-07T00:00:00	2024-11-08T22:00:00	4	Temperatura máxima	15.1
33051	7	Sololá	701	Sololá	1	Sololá	7	Julio	2023-02-07T00:00:00	2024-11-08T22:00:00	3	Temperatura mínima	14.6
33052	7	Sololá	701	Sololá	1	Sololá	7	Julio	2023-02-07T00:00:00	2024-11-08T22:00:00	5	Humedad	96
33053	7	Sololá	701	Sololá	1	Sololá	7	Julio	2023-02-07T00:00:00	2024-11-08T22:00:00	6	Velocidad del viento	0
33054	7	Sololá	701	Sololá	1	Sololá	7	Julio	2023-02-07T00:00:00	2024-11-08T22:00:00	7	Dirección del viento	0
33055	7	Sololá	701	Sololá	1	Sololá	7	Julio	2023-02-07T00:00:00	2024-11-08T22:00:00	1	Precipitación	0
33056	7	Sololá	701	Sololá	1	Sololá	7	Julio	2023-02-07T00:00:00	2024-11-08T22:00:00	8	Radiación solar	0
33057	7	Sololá	701	Sololá	1	Sololá	7	Julio	2023-02-07T00:00:00	2024-11-08T23:00:00	2	Temperatura media	14.4
33058	7	Sololá	701	Sololá	1	Sololá	7	Julio	2023-02-07T00:00:00	2024-11-08T23:00:00	4	Temperatura máxima	14.6
33059	7	Sololá	701	Sololá	1	Sololá	7	Julio	2023-02-07T00:00:00	2024-11-08T23:00:00	3	Temperatura mínima	14.3
33060	7	Sololá	701	Sololá	1	Sololá	7	Julio	2023-02-07T00:00:00	2024-11-08T23:00:00	5	Humedad	96
33061	7	Sololá	701	Sololá	1	Sololá	7	Julio	2023-02-07T00:00:00	2024-11-08T23:00:00	6	Velocidad del viento	0
33062	7	Sololá	701	Sololá	1	Sololá	7	Julio	2023-02-07T00:00:00	2024-11-08T23:00:00	7	Dirección del viento	0
33063	7	Sololá	701	Sololá	1	Sololá	7	Julio	2023-02-07T00:00:00	2024-11-08T23:00:00	1	Precipitación	0
33064	7	Sololá	701	Sololá	1	Sololá	7	Julio	2023-02-07T00:00:00	2024-11-08T23:00:00	8	Radiación solar	0
33065	7	Sololá	701	Sololá	1	Sololá	7	Julio	2023-03-07T00:00:00	2024-11-08T00:00:00	2	Temperatura media	14.3
33066	7	Sololá	701	Sololá	1	Sololá	7	Julio	2023-03-07T00:00:00	2024-11-08T00:00:00	4	Temperatura máxima	14.4
33067	7	Sololá	701	Sololá	1	Sololá	7	Julio	2023-03-07T00:00:00	2024-11-08T00:00:00	3	Temperatura mínima	14.3
33068	7	Sololá	701	Sololá	1	Sololá	7	Julio	2023-03-07T00:00:00	2024-11-08T00:00:00	5	Humedad	96
33069	7	Sololá	701	Sololá	1	Sololá	7	Julio	2023-03-07T00:00:00	2024-11-08T00:00:00	6	Velocidad del viento	0
33070	7	Sololá	701	Sololá	1	Sololá	7	Julio	2023-03-07T00:00:00	2024-11-08T00:00:00	7	Dirección del viento	0
33071	7	Sololá	701	Sololá	1	Sololá	7	Julio	2023-03-07T00:00:00	2024-11-08T00:00:00	1	Precipitación	0
33072	7	Sololá	701	Sololá	1	Sololá	7	Julio	2023-03-07T00:00:00	2024-11-08T00:00:00	8	Radiación solar	0
33073	7	Sololá	701	Sololá	1	Sololá	7	Julio	2023-03-07T00:00:00	2024-11-08T01:00:00	2	Temperatura media	14.2
33074	7	Sololá	701	Sololá	1	Sololá	7	Julio	2023-03-07T00:00:00	2024-11-08T01:00:00	4	Temperatura máxima	14.3
33075	7	Sololá	701	Sololá	1	Sololá	7	Julio	2023-03-07T00:00:00	2024-11-08T01:00:00	3	Temperatura mínima	14.2
33076	7	Sololá	701	Sololá	1	Sololá	7	Julio	2023-03-07T00:00:00	2024-11-08T01:00:00	5	Humedad	96
33077	7	Sololá	701	Sololá	1	Sololá	7	Julio	2023-03-07T00:00:00	2024-11-08T01:00:00	6	Velocidad del viento	0
33078	7	Sololá	701	Sololá	1	Sololá	7	Julio	2023-03-07T00:00:00	2024-11-08T01:00:00	7	Dirección del viento	0
33079	7	Sololá	701	Sololá	1	Sololá	7	Julio	2023-03-07T00:00:00	2024-11-08T01:00:00	1	Precipitación	0
33080	7	Sololá	701	Sololá	1	Sololá	7	Julio	2023-03-07T00:00:00	2024-11-08T01:00:00	8	Radiación solar	0
33081	7	Sololá	701	Sololá	1	Sololá	7	Julio	2023-03-07T00:00:00	2024-11-08T02:00:00	2	Temperatura media	14.1
33082	7	Sololá	701	Sololá	1	Sololá	7	Julio	2023-03-07T00:00:00	2024-11-08T02:00:00	4	Temperatura máxima	14.2
33083	7	Sololá	701	Sololá	1	Sololá	7	Julio	2023-03-07T00:00:00	2024-11-08T02:00:00	3	Temperatura mínima	14.1
33084	7	Sololá	701	Sololá	1	Sololá	7	Julio	2023-03-07T00:00:00	2024-11-08T02:00:00	5	Humedad	96
33085	7	Sololá	701	Sololá	1	Sololá	7	Julio	2023-03-07T00:00:00	2024-11-08T02:00:00	6	Velocidad del viento	0
33086	7	Sololá	701	Sololá	1	Sololá	7	Julio	2023-03-07T00:00:00	2024-11-08T02:00:00	7	Dirección del viento	0
33087	7	Sololá	701	Sololá	1	Sololá	7	Julio	2023-03-07T00:00:00	2024-11-08T02:00:00	1	Precipitación	0
33088	7	Sololá	701	Sololá	1	Sololá	7	Julio	2023-03-07T00:00:00	2024-11-08T02:00:00	8	Radiación solar	0
33089	7	Sololá	701	Sololá	1	Sololá	7	Julio	2023-03-07T00:00:00	2024-11-08T03:00:00	2	Temperatura media	14.2
33090	7	Sololá	701	Sololá	1	Sololá	7	Julio	2023-03-07T00:00:00	2024-11-08T03:00:00	4	Temperatura máxima	14.3
33091	7	Sololá	701	Sololá	1	Sololá	7	Julio	2023-03-07T00:00:00	2024-11-08T03:00:00	3	Temperatura mínima	14.1
33092	7	Sololá	701	Sololá	1	Sololá	7	Julio	2023-03-07T00:00:00	2024-11-08T03:00:00	5	Humedad	96
33093	7	Sololá	701	Sololá	1	Sololá	7	Julio	2023-03-07T00:00:00	2024-11-08T03:00:00	6	Velocidad del viento	0
33094	7	Sololá	701	Sololá	1	Sololá	7	Julio	2023-03-07T00:00:00	2024-11-08T03:00:00	7	Dirección del viento	0
33095	7	Sololá	701	Sololá	1	Sololá	7	Julio	2023-03-07T00:00:00	2024-11-08T03:00:00	1	Precipitación	0
33096	7	Sololá	701	Sololá	1	Sololá	7	Julio	2023-03-07T00:00:00	2024-11-08T03:00:00	8	Radiación solar	0
33097	7	Sololá	701	Sololá	1	Sololá	7	Julio	2023-03-07T00:00:00	2024-11-08T04:00:00	2	Temperatura media	14.1
33098	7	Sololá	701	Sololá	1	Sololá	7	Julio	2023-03-07T00:00:00	2024-11-08T04:00:00	4	Temperatura máxima	14.2
33099	7	Sololá	701	Sololá	1	Sololá	7	Julio	2023-03-07T00:00:00	2024-11-08T04:00:00	3	Temperatura mínima	14.1
33100	7	Sololá	701	Sololá	1	Sololá	7	Julio	2023-03-07T00:00:00	2024-11-08T04:00:00	5	Humedad	96
33101	7	Sololá	701	Sololá	1	Sololá	7	Julio	2023-03-07T00:00:00	2024-11-08T04:00:00	6	Velocidad del viento	0
33102	7	Sololá	701	Sololá	1	Sololá	7	Julio	2023-03-07T00:00:00	2024-11-08T04:00:00	7	Dirección del viento	0
33103	7	Sololá	701	Sololá	1	Sololá	7	Julio	2023-03-07T00:00:00	2024-11-08T04:00:00	1	Precipitación	0
33104	7	Sololá	701	Sololá	1	Sololá	7	Julio	2023-03-07T00:00:00	2024-11-08T04:00:00	8	Radiación solar	0
33105	7	Sololá	701	Sololá	1	Sololá	7	Julio	2023-03-07T00:00:00	2024-11-08T05:00:00	2	Temperatura media	14.2
33106	7	Sololá	701	Sololá	1	Sololá	7	Julio	2023-03-07T00:00:00	2024-11-08T05:00:00	4	Temperatura máxima	14.2
33107	7	Sololá	701	Sololá	1	Sololá	7	Julio	2023-03-07T00:00:00	2024-11-08T05:00:00	3	Temperatura mínima	14.1
33108	7	Sololá	701	Sololá	1	Sololá	7	Julio	2023-03-07T00:00:00	2024-11-08T05:00:00	5	Humedad	96
33109	7	Sololá	701	Sololá	1	Sololá	7	Julio	2023-03-07T00:00:00	2024-11-08T05:00:00	6	Velocidad del viento	0
33110	7	Sololá	701	Sololá	1	Sololá	7	Julio	2023-03-07T00:00:00	2024-11-08T05:00:00	7	Dirección del viento	0
33111	7	Sololá	701	Sololá	1	Sololá	7	Julio	2023-03-07T00:00:00	2024-11-08T05:00:00	1	Precipitación	0
33112	7	Sololá	701	Sololá	1	Sololá	7	Julio	2023-03-07T00:00:00	2024-11-08T05:00:00	8	Radiación solar	0
33113	7	Sololá	701	Sololá	1	Sololá	7	Julio	2023-03-07T00:00:00	2024-11-08T06:00:00	2	Temperatura media	14.2
33114	7	Sololá	701	Sololá	1	Sololá	7	Julio	2023-03-07T00:00:00	2024-11-08T06:00:00	4	Temperatura máxima	14.3
33115	7	Sololá	701	Sololá	1	Sololá	7	Julio	2023-03-07T00:00:00	2024-11-08T06:00:00	3	Temperatura mínima	14.2
33116	7	Sololá	701	Sololá	1	Sololá	7	Julio	2023-03-07T00:00:00	2024-11-08T06:00:00	5	Humedad	96
33117	7	Sololá	701	Sololá	1	Sololá	7	Julio	2023-03-07T00:00:00	2024-11-08T06:00:00	6	Velocidad del viento	0
33118	7	Sololá	701	Sololá	1	Sololá	7	Julio	2023-03-07T00:00:00	2024-11-08T06:00:00	7	Dirección del viento	0
33119	7	Sololá	701	Sololá	1	Sololá	7	Julio	2023-03-07T00:00:00	2024-11-08T06:00:00	1	Precipitación	0
33120	7	Sololá	701	Sololá	1	Sololá	7	Julio	2023-03-07T00:00:00	2024-11-08T06:00:00	8	Radiación solar	0
33121	7	Sololá	701	Sololá	1	Sololá	7	Julio	2023-03-07T00:00:00	2024-11-08T07:00:00	2	Temperatura media	14.7
33122	7	Sololá	701	Sololá	1	Sololá	7	Julio	2023-03-07T00:00:00	2024-11-08T07:00:00	4	Temperatura máxima	14.7
33123	7	Sololá	701	Sololá	1	Sololá	7	Julio	2023-03-07T00:00:00	2024-11-08T07:00:00	3	Temperatura mínima	14.2
33124	7	Sololá	701	Sololá	1	Sololá	7	Julio	2023-03-07T00:00:00	2024-11-08T07:00:00	5	Humedad	97
33125	7	Sololá	701	Sololá	1	Sololá	7	Julio	2023-03-07T00:00:00	2024-11-08T07:00:00	6	Velocidad del viento	0
33126	7	Sololá	701	Sololá	1	Sololá	7	Julio	2023-03-07T00:00:00	2024-11-08T07:00:00	7	Dirección del viento	0
33127	7	Sololá	701	Sololá	1	Sololá	7	Julio	2023-03-07T00:00:00	2024-11-08T07:00:00	1	Precipitación	0
33128	7	Sololá	701	Sololá	1	Sololá	7	Julio	2023-03-07T00:00:00	2024-11-08T07:00:00	8	Radiación solar	12
33129	7	Sololá	701	Sololá	1	Sololá	7	Julio	2023-03-07T00:00:00	2024-11-08T08:00:00	2	Temperatura media	15.6
33130	7	Sololá	701	Sololá	1	Sololá	7	Julio	2023-03-07T00:00:00	2024-11-08T08:00:00	4	Temperatura máxima	15.6
33131	7	Sololá	701	Sololá	1	Sololá	7	Julio	2023-03-07T00:00:00	2024-11-08T08:00:00	3	Temperatura mínima	14.7
33132	7	Sololá	701	Sololá	1	Sololá	7	Julio	2023-03-07T00:00:00	2024-11-08T08:00:00	5	Humedad	96
33133	7	Sololá	701	Sololá	1	Sololá	7	Julio	2023-03-07T00:00:00	2024-11-08T08:00:00	6	Velocidad del viento	0
33134	7	Sololá	701	Sololá	1	Sololá	7	Julio	2023-03-07T00:00:00	2024-11-08T08:00:00	7	Dirección del viento	0
33135	7	Sololá	701	Sololá	1	Sololá	7	Julio	2023-03-07T00:00:00	2024-11-08T08:00:00	1	Precipitación	0
33136	7	Sololá	701	Sololá	1	Sololá	7	Julio	2023-03-07T00:00:00	2024-11-08T08:00:00	8	Radiación solar	70
33137	7	Sololá	701	Sololá	1	Sololá	7	Julio	2023-03-07T00:00:00	2024-11-08T09:00:00	2	Temperatura media	16.7
33138	7	Sololá	701	Sololá	1	Sololá	7	Julio	2023-03-07T00:00:00	2024-11-08T09:00:00	4	Temperatura máxima	16.7
33139	7	Sololá	701	Sololá	1	Sololá	7	Julio	2023-03-07T00:00:00	2024-11-08T09:00:00	3	Temperatura mínima	15.6
33140	7	Sololá	701	Sololá	1	Sololá	7	Julio	2023-03-07T00:00:00	2024-11-08T09:00:00	5	Humedad	94
33141	7	Sololá	701	Sololá	1	Sololá	7	Julio	2023-03-07T00:00:00	2024-11-08T09:00:00	6	Velocidad del viento	0
33142	7	Sololá	701	Sololá	1	Sololá	7	Julio	2023-03-07T00:00:00	2024-11-08T09:00:00	7	Dirección del viento	0
33143	7	Sololá	701	Sololá	1	Sololá	7	Julio	2023-03-07T00:00:00	2024-11-08T09:00:00	1	Precipitación	0
33144	7	Sololá	701	Sololá	1	Sololá	7	Julio	2023-03-07T00:00:00	2024-11-08T09:00:00	8	Radiación solar	145
33145	7	Sololá	701	Sololá	1	Sololá	7	Julio	2023-03-07T00:00:00	2024-11-08T10:00:00	2	Temperatura media	17.9
33146	7	Sololá	701	Sololá	1	Sololá	7	Julio	2023-03-07T00:00:00	2024-11-08T10:00:00	4	Temperatura máxima	17.9
33147	7	Sololá	701	Sololá	1	Sololá	7	Julio	2023-03-07T00:00:00	2024-11-08T10:00:00	3	Temperatura mínima	16.7
33148	7	Sololá	701	Sololá	1	Sololá	7	Julio	2023-03-07T00:00:00	2024-11-08T10:00:00	5	Humedad	92
33149	7	Sololá	701	Sololá	1	Sololá	7	Julio	2023-03-07T00:00:00	2024-11-08T10:00:00	6	Velocidad del viento	0
33150	7	Sololá	701	Sololá	1	Sololá	7	Julio	2023-03-07T00:00:00	2024-11-08T10:00:00	7	Dirección del viento	0
33151	7	Sololá	701	Sololá	1	Sololá	7	Julio	2023-03-07T00:00:00	2024-11-08T10:00:00	1	Precipitación	0
33152	7	Sololá	701	Sololá	1	Sololá	7	Julio	2023-03-07T00:00:00	2024-11-08T10:00:00	8	Radiación solar	170
33153	7	Sololá	701	Sololá	1	Sololá	7	Julio	2023-03-07T00:00:00	2024-11-08T11:00:00	2	Temperatura media	18.2
33154	7	Sololá	701	Sololá	1	Sololá	7	Julio	2023-03-07T00:00:00	2024-11-08T11:00:00	4	Temperatura máxima	18.3
33155	7	Sololá	701	Sololá	1	Sololá	7	Julio	2023-03-07T00:00:00	2024-11-08T11:00:00	3	Temperatura mínima	17.9
33156	7	Sololá	701	Sololá	1	Sololá	7	Julio	2023-03-07T00:00:00	2024-11-08T11:00:00	5	Humedad	89
33157	7	Sololá	701	Sololá	1	Sololá	7	Julio	2023-03-07T00:00:00	2024-11-08T11:00:00	6	Velocidad del viento	0
33158	7	Sololá	701	Sololá	1	Sololá	7	Julio	2023-03-07T00:00:00	2024-11-08T11:00:00	7	Dirección del viento	0
33159	7	Sololá	701	Sololá	1	Sololá	7	Julio	2023-03-07T00:00:00	2024-11-08T11:00:00	1	Precipitación	0
33160	7	Sololá	701	Sololá	1	Sololá	7	Julio	2023-03-07T00:00:00	2024-11-08T11:00:00	8	Radiación solar	182
33161	7	Sololá	701	Sololá	1	Sololá	7	Julio	2023-03-07T00:00:00	2024-11-08T12:00:00	2	Temperatura media	18.6
33162	7	Sololá	701	Sololá	1	Sololá	7	Julio	2023-03-07T00:00:00	2024-11-08T12:00:00	4	Temperatura máxima	19
33163	7	Sololá	701	Sololá	1	Sololá	7	Julio	2023-03-07T00:00:00	2024-11-08T12:00:00	3	Temperatura mínima	18.2
33164	7	Sololá	701	Sololá	1	Sololá	7	Julio	2023-03-07T00:00:00	2024-11-08T12:00:00	5	Humedad	87
33165	7	Sololá	701	Sololá	1	Sololá	7	Julio	2023-03-07T00:00:00	2024-11-08T12:00:00	6	Velocidad del viento	0
33166	7	Sololá	701	Sololá	1	Sololá	7	Julio	2023-03-07T00:00:00	2024-11-08T12:00:00	7	Dirección del viento	0
33167	7	Sololá	701	Sololá	1	Sololá	7	Julio	2023-03-07T00:00:00	2024-11-08T12:00:00	1	Precipitación	0
33168	7	Sololá	701	Sololá	1	Sololá	7	Julio	2023-03-07T00:00:00	2024-11-08T12:00:00	8	Radiación solar	201
33169	7	Sololá	701	Sololá	1	Sololá	7	Julio	2023-03-07T00:00:00	2024-11-08T13:00:00	2	Temperatura media	18.7
33170	7	Sololá	701	Sololá	1	Sololá	7	Julio	2023-03-07T00:00:00	2024-11-08T13:00:00	4	Temperatura máxima	18.7
33171	7	Sololá	701	Sololá	1	Sololá	7	Julio	2023-03-07T00:00:00	2024-11-08T13:00:00	3	Temperatura mínima	18.3
33172	7	Sololá	701	Sololá	1	Sololá	7	Julio	2023-03-07T00:00:00	2024-11-08T13:00:00	5	Humedad	87
33173	7	Sololá	701	Sololá	1	Sololá	7	Julio	2023-03-07T00:00:00	2024-11-08T13:00:00	6	Velocidad del viento	0
33174	7	Sololá	701	Sololá	1	Sololá	7	Julio	2023-03-07T00:00:00	2024-11-08T13:00:00	7	Dirección del viento	0
33175	7	Sololá	701	Sololá	1	Sololá	7	Julio	2023-03-07T00:00:00	2024-11-08T13:00:00	1	Precipitación	0
33176	7	Sololá	701	Sololá	1	Sololá	7	Julio	2023-03-07T00:00:00	2024-11-08T13:00:00	8	Radiación solar	162
33177	7	Sololá	701	Sololá	1	Sololá	7	Julio	2023-03-07T00:00:00	2024-11-08T14:00:00	2	Temperatura media	17.9
33178	7	Sololá	701	Sololá	1	Sololá	7	Julio	2023-03-07T00:00:00	2024-11-08T14:00:00	4	Temperatura máxima	18.8
33179	7	Sololá	701	Sololá	1	Sololá	7	Julio	2023-03-07T00:00:00	2024-11-08T14:00:00	3	Temperatura mínima	17.9
33180	7	Sololá	701	Sololá	1	Sololá	7	Julio	2023-03-07T00:00:00	2024-11-08T14:00:00	5	Humedad	92
33181	7	Sololá	701	Sololá	1	Sololá	7	Julio	2023-03-07T00:00:00	2024-11-08T14:00:00	6	Velocidad del viento	0
33182	7	Sololá	701	Sololá	1	Sololá	7	Julio	2023-03-07T00:00:00	2024-11-08T14:00:00	7	Dirección del viento	0
33183	7	Sololá	701	Sololá	1	Sololá	7	Julio	2023-03-07T00:00:00	2024-11-08T14:00:00	1	Precipitación	0
33184	7	Sololá	701	Sololá	1	Sololá	7	Julio	2023-03-07T00:00:00	2024-11-08T14:00:00	8	Radiación solar	65
33185	7	Sololá	701	Sololá	1	Sololá	7	Julio	2023-03-07T00:00:00	2024-11-08T15:00:00	2	Temperatura media	17.3
33186	7	Sololá	701	Sololá	1	Sololá	7	Julio	2023-03-07T00:00:00	2024-11-08T15:00:00	4	Temperatura máxima	17.9
33187	7	Sololá	701	Sololá	1	Sololá	7	Julio	2023-03-07T00:00:00	2024-11-08T15:00:00	3	Temperatura mínima	17.3
33188	7	Sololá	701	Sololá	1	Sololá	7	Julio	2023-03-07T00:00:00	2024-11-08T15:00:00	5	Humedad	94
33189	7	Sololá	701	Sololá	1	Sololá	7	Julio	2023-03-07T00:00:00	2024-11-08T15:00:00	6	Velocidad del viento	0
33190	7	Sololá	701	Sololá	1	Sololá	7	Julio	2023-03-07T00:00:00	2024-11-08T15:00:00	7	Dirección del viento	0
33191	7	Sololá	701	Sololá	1	Sololá	7	Julio	2023-03-07T00:00:00	2024-11-08T15:00:00	1	Precipitación	0.8
33192	7	Sololá	701	Sololá	1	Sololá	7	Julio	2023-03-07T00:00:00	2024-11-08T15:00:00	8	Radiación solar	40
33193	7	Sololá	701	Sololá	1	Sololá	7	Julio	2023-03-07T00:00:00	2024-11-08T16:00:00	2	Temperatura media	17.4
33194	7	Sololá	701	Sololá	1	Sololá	7	Julio	2023-03-07T00:00:00	2024-11-08T16:00:00	4	Temperatura máxima	17.4
33195	7	Sololá	701	Sololá	1	Sololá	7	Julio	2023-03-07T00:00:00	2024-11-08T16:00:00	3	Temperatura mínima	17.1
33196	7	Sololá	701	Sololá	1	Sololá	7	Julio	2023-03-07T00:00:00	2024-11-08T16:00:00	5	Humedad	96
33197	7	Sololá	701	Sololá	1	Sololá	7	Julio	2023-03-07T00:00:00	2024-11-08T16:00:00	6	Velocidad del viento	0
33198	7	Sololá	701	Sololá	1	Sololá	7	Julio	2023-03-07T00:00:00	2024-11-08T16:00:00	7	Dirección del viento	0
33199	7	Sololá	701	Sololá	1	Sololá	7	Julio	2023-03-07T00:00:00	2024-11-08T16:00:00	1	Precipitación	0
33200	7	Sololá	701	Sololá	1	Sololá	7	Julio	2023-03-07T00:00:00	2024-11-08T16:00:00	8	Radiación solar	63
33201	7	Sololá	701	Sololá	1	Sololá	7	Julio	2023-03-07T00:00:00	2024-11-08T17:00:00	2	Temperatura media	16.8
33202	7	Sololá	701	Sololá	1	Sololá	7	Julio	2023-03-07T00:00:00	2024-11-08T17:00:00	4	Temperatura máxima	17.6
33203	7	Sololá	701	Sololá	1	Sololá	7	Julio	2023-03-07T00:00:00	2024-11-08T17:00:00	3	Temperatura mínima	16.8
33204	7	Sololá	701	Sololá	1	Sololá	7	Julio	2023-03-07T00:00:00	2024-11-08T17:00:00	5	Humedad	95
33205	7	Sololá	701	Sololá	1	Sololá	7	Julio	2023-03-07T00:00:00	2024-11-08T17:00:00	6	Velocidad del viento	0
33206	7	Sololá	701	Sololá	1	Sololá	7	Julio	2023-03-07T00:00:00	2024-11-08T17:00:00	7	Dirección del viento	0
33207	7	Sololá	701	Sololá	1	Sololá	7	Julio	2023-03-07T00:00:00	2024-11-08T17:00:00	1	Precipitación	0
33208	7	Sololá	701	Sololá	1	Sololá	7	Julio	2023-03-07T00:00:00	2024-11-08T17:00:00	8	Radiación solar	28
33209	7	Sololá	701	Sololá	1	Sololá	7	Julio	2023-03-07T00:00:00	2024-11-08T18:00:00	2	Temperatura media	16.3
33210	7	Sololá	701	Sololá	1	Sololá	7	Julio	2023-03-07T00:00:00	2024-11-08T18:00:00	4	Temperatura máxima	16.9
33211	7	Sololá	701	Sololá	1	Sololá	7	Julio	2023-03-07T00:00:00	2024-11-08T18:00:00	3	Temperatura mínima	16.3
33212	7	Sololá	701	Sololá	1	Sololá	7	Julio	2023-03-07T00:00:00	2024-11-08T18:00:00	5	Humedad	96
33213	7	Sololá	701	Sololá	1	Sololá	7	Julio	2023-03-07T00:00:00	2024-11-08T18:00:00	6	Velocidad del viento	0
33214	7	Sololá	701	Sololá	1	Sololá	7	Julio	2023-03-07T00:00:00	2024-11-08T18:00:00	7	Dirección del viento	0
33215	7	Sololá	701	Sololá	1	Sololá	7	Julio	2023-03-07T00:00:00	2024-11-08T18:00:00	1	Precipitación	6.2
33216	7	Sololá	701	Sololá	1	Sololá	7	Julio	2023-03-07T00:00:00	2024-11-08T18:00:00	8	Radiación solar	1
33217	7	Sololá	701	Sololá	1	Sololá	7	Julio	2023-03-07T00:00:00	2024-11-08T19:00:00	2	Temperatura media	16.3
33218	7	Sololá	701	Sololá	1	Sololá	7	Julio	2023-03-07T00:00:00	2024-11-08T19:00:00	4	Temperatura máxima	16.4
33219	7	Sololá	701	Sololá	1	Sololá	7	Julio	2023-03-07T00:00:00	2024-11-08T19:00:00	3	Temperatura mínima	16.2
33220	7	Sololá	701	Sololá	1	Sololá	7	Julio	2023-03-07T00:00:00	2024-11-08T19:00:00	5	Humedad	97
33221	7	Sololá	701	Sololá	1	Sololá	7	Julio	2023-03-07T00:00:00	2024-11-08T19:00:00	6	Velocidad del viento	0
33222	7	Sololá	701	Sololá	1	Sololá	7	Julio	2023-03-07T00:00:00	2024-11-08T19:00:00	7	Dirección del viento	0
33223	7	Sololá	701	Sololá	1	Sololá	7	Julio	2023-03-07T00:00:00	2024-11-08T19:00:00	1	Precipitación	0.2
33224	7	Sololá	701	Sololá	1	Sololá	7	Julio	2023-03-07T00:00:00	2024-11-08T19:00:00	8	Radiación solar	0
33225	7	Sololá	701	Sololá	1	Sololá	7	Julio	2023-03-07T00:00:00	2024-11-08T20:00:00	2	Temperatura media	15.6
33226	7	Sololá	701	Sololá	1	Sololá	7	Julio	2023-03-07T00:00:00	2024-11-08T20:00:00	4	Temperatura máxima	16.3
33227	7	Sololá	701	Sololá	1	Sololá	7	Julio	2023-03-07T00:00:00	2024-11-08T20:00:00	3	Temperatura mínima	15.6
33228	7	Sololá	701	Sololá	1	Sololá	7	Julio	2023-03-07T00:00:00	2024-11-08T20:00:00	5	Humedad	97
33229	7	Sololá	701	Sololá	1	Sololá	7	Julio	2023-03-07T00:00:00	2024-11-08T20:00:00	6	Velocidad del viento	0
33230	7	Sololá	701	Sololá	1	Sololá	7	Julio	2023-03-07T00:00:00	2024-11-08T20:00:00	7	Dirección del viento	0
33231	7	Sololá	701	Sololá	1	Sololá	7	Julio	2023-03-07T00:00:00	2024-11-08T20:00:00	1	Precipitación	0.2
33232	7	Sololá	701	Sololá	1	Sololá	7	Julio	2023-03-07T00:00:00	2024-11-08T20:00:00	8	Radiación solar	0
33233	7	Sololá	701	Sololá	1	Sololá	7	Julio	2023-03-07T00:00:00	2024-11-08T21:00:00	2	Temperatura media	15.5
33234	7	Sololá	701	Sololá	1	Sololá	7	Julio	2023-03-07T00:00:00	2024-11-08T21:00:00	4	Temperatura máxima	15.6
33235	7	Sololá	701	Sololá	1	Sololá	7	Julio	2023-03-07T00:00:00	2024-11-08T21:00:00	3	Temperatura mínima	15.3
33236	7	Sololá	701	Sololá	1	Sololá	7	Julio	2023-03-07T00:00:00	2024-11-08T21:00:00	5	Humedad	97
33237	7	Sololá	701	Sololá	1	Sololá	7	Julio	2023-03-07T00:00:00	2024-11-08T21:00:00	6	Velocidad del viento	0
33238	7	Sololá	701	Sololá	1	Sololá	7	Julio	2023-03-07T00:00:00	2024-11-08T21:00:00	7	Dirección del viento	0
33239	7	Sololá	701	Sololá	1	Sololá	7	Julio	2023-03-07T00:00:00	2024-11-08T21:00:00	1	Precipitación	1
33240	7	Sololá	701	Sololá	1	Sololá	7	Julio	2023-03-07T00:00:00	2024-11-08T21:00:00	8	Radiación solar	0
33241	7	Sololá	701	Sololá	1	Sololá	7	Julio	2023-03-07T00:00:00	2024-11-08T22:00:00	2	Temperatura media	15.3
33242	7	Sololá	701	Sololá	1	Sololá	7	Julio	2023-03-07T00:00:00	2024-11-08T22:00:00	4	Temperatura máxima	15.5
33243	7	Sololá	701	Sololá	1	Sololá	7	Julio	2023-03-07T00:00:00	2024-11-08T22:00:00	3	Temperatura mínima	15.3
33244	7	Sololá	701	Sololá	1	Sololá	7	Julio	2023-03-07T00:00:00	2024-11-08T22:00:00	5	Humedad	97
33245	7	Sololá	701	Sololá	1	Sololá	7	Julio	2023-03-07T00:00:00	2024-11-08T22:00:00	6	Velocidad del viento	0
33246	7	Sololá	701	Sololá	1	Sololá	7	Julio	2023-03-07T00:00:00	2024-11-08T22:00:00	7	Dirección del viento	0
33247	7	Sololá	701	Sololá	1	Sololá	7	Julio	2023-03-07T00:00:00	2024-11-08T22:00:00	1	Precipitación	0.8
33248	7	Sololá	701	Sololá	1	Sololá	7	Julio	2023-03-07T00:00:00	2024-11-08T22:00:00	8	Radiación solar	0
33249	7	Sololá	701	Sololá	1	Sololá	7	Julio	2023-03-07T00:00:00	2024-11-08T23:00:00	2	Temperatura media	14.7
33250	7	Sololá	701	Sololá	1	Sololá	7	Julio	2023-03-07T00:00:00	2024-11-08T23:00:00	4	Temperatura máxima	15.3
33251	7	Sololá	701	Sololá	1	Sololá	7	Julio	2023-03-07T00:00:00	2024-11-08T23:00:00	3	Temperatura mínima	14.7
33252	7	Sololá	701	Sololá	1	Sololá	7	Julio	2023-03-07T00:00:00	2024-11-08T23:00:00	5	Humedad	97
33253	7	Sololá	701	Sololá	1	Sololá	7	Julio	2023-03-07T00:00:00	2024-11-08T23:00:00	6	Velocidad del viento	0
33254	7	Sololá	701	Sololá	1	Sololá	7	Julio	2023-03-07T00:00:00	2024-11-08T23:00:00	7	Dirección del viento	0
33255	7	Sololá	701	Sololá	1	Sololá	7	Julio	2023-03-07T00:00:00	2024-11-08T23:00:00	1	Precipitación	0.6
33256	7	Sololá	701	Sololá	1	Sololá	7	Julio	2023-03-07T00:00:00	2024-11-08T23:00:00	8	Radiación solar	0
33257	7	Sololá	701	Sololá	1	Sololá	7	Julio	2023-04-07T00:00:00	2024-11-08T00:00:00	2	Temperatura media	14.7
33258	7	Sololá	701	Sololá	1	Sololá	7	Julio	2023-04-07T00:00:00	2024-11-08T00:00:00	4	Temperatura máxima	14.8
33259	7	Sololá	701	Sololá	1	Sololá	7	Julio	2023-04-07T00:00:00	2024-11-08T00:00:00	3	Temperatura mínima	14.6
33260	7	Sololá	701	Sololá	1	Sololá	7	Julio	2023-04-07T00:00:00	2024-11-08T00:00:00	5	Humedad	97
33261	7	Sololá	701	Sololá	1	Sololá	7	Julio	2023-04-07T00:00:00	2024-11-08T00:00:00	6	Velocidad del viento	0
33262	7	Sololá	701	Sololá	1	Sololá	7	Julio	2023-04-07T00:00:00	2024-11-08T00:00:00	7	Dirección del viento	0
33263	7	Sololá	701	Sololá	1	Sololá	7	Julio	2023-04-07T00:00:00	2024-11-08T00:00:00	1	Precipitación	0.2
33264	7	Sololá	701	Sololá	1	Sololá	7	Julio	2023-04-07T00:00:00	2024-11-08T00:00:00	8	Radiación solar	0
33265	7	Sololá	701	Sololá	1	Sololá	7	Julio	2023-04-07T00:00:00	2024-11-08T01:00:00	2	Temperatura media	14.7
33266	7	Sololá	701	Sololá	1	Sololá	7	Julio	2023-04-07T00:00:00	2024-11-08T01:00:00	4	Temperatura máxima	14.7
33267	7	Sololá	701	Sololá	1	Sololá	7	Julio	2023-04-07T00:00:00	2024-11-08T01:00:00	3	Temperatura mínima	14.6
33268	7	Sololá	701	Sololá	1	Sololá	7	Julio	2023-04-07T00:00:00	2024-11-08T01:00:00	5	Humedad	97
33269	7	Sololá	701	Sololá	1	Sololá	7	Julio	2023-04-07T00:00:00	2024-11-08T01:00:00	6	Velocidad del viento	0
33270	7	Sololá	701	Sololá	1	Sololá	7	Julio	2023-04-07T00:00:00	2024-11-08T01:00:00	7	Dirección del viento	0
33271	7	Sololá	701	Sololá	1	Sololá	7	Julio	2023-04-07T00:00:00	2024-11-08T01:00:00	1	Precipitación	0
33272	7	Sololá	701	Sololá	1	Sololá	7	Julio	2023-04-07T00:00:00	2024-11-08T01:00:00	8	Radiación solar	0
33273	7	Sololá	701	Sololá	1	Sololá	7	Julio	2023-04-07T00:00:00	2024-11-08T02:00:00	2	Temperatura media	14.4
33274	7	Sololá	701	Sololá	1	Sololá	7	Julio	2023-04-07T00:00:00	2024-11-08T02:00:00	4	Temperatura máxima	14.7
33275	7	Sololá	701	Sololá	1	Sololá	7	Julio	2023-04-07T00:00:00	2024-11-08T02:00:00	3	Temperatura mínima	14.4
33276	7	Sololá	701	Sololá	1	Sololá	7	Julio	2023-04-07T00:00:00	2024-11-08T02:00:00	5	Humedad	97
33277	7	Sololá	701	Sololá	1	Sololá	7	Julio	2023-04-07T00:00:00	2024-11-08T02:00:00	6	Velocidad del viento	0
33278	7	Sololá	701	Sololá	1	Sololá	7	Julio	2023-04-07T00:00:00	2024-11-08T02:00:00	7	Dirección del viento	0
33279	7	Sololá	701	Sololá	1	Sololá	7	Julio	2023-04-07T00:00:00	2024-11-08T02:00:00	1	Precipitación	0
33280	7	Sololá	701	Sololá	1	Sololá	7	Julio	2023-04-07T00:00:00	2024-11-08T02:00:00	8	Radiación solar	0
33281	7	Sololá	701	Sololá	1	Sololá	7	Julio	2023-04-07T00:00:00	2024-11-08T03:00:00	2	Temperatura media	14.3
33282	7	Sololá	701	Sololá	1	Sololá	7	Julio	2023-04-07T00:00:00	2024-11-08T03:00:00	4	Temperatura máxima	14.4
33283	7	Sololá	701	Sololá	1	Sololá	7	Julio	2023-04-07T00:00:00	2024-11-08T03:00:00	3	Temperatura mínima	14.3
33284	7	Sololá	701	Sololá	1	Sololá	7	Julio	2023-04-07T00:00:00	2024-11-08T03:00:00	5	Humedad	97
33285	7	Sololá	701	Sololá	1	Sololá	7	Julio	2023-04-07T00:00:00	2024-11-08T03:00:00	6	Velocidad del viento	0
33286	7	Sololá	701	Sololá	1	Sololá	7	Julio	2023-04-07T00:00:00	2024-11-08T03:00:00	7	Dirección del viento	0
33287	7	Sololá	701	Sololá	1	Sololá	7	Julio	2023-04-07T00:00:00	2024-11-08T03:00:00	1	Precipitación	0
33288	7	Sololá	701	Sololá	1	Sololá	7	Julio	2023-04-07T00:00:00	2024-11-08T03:00:00	8	Radiación solar	0
33289	7	Sololá	701	Sololá	1	Sololá	7	Julio	2023-04-07T00:00:00	2024-11-08T04:00:00	2	Temperatura media	14.2
33290	7	Sololá	701	Sololá	1	Sololá	7	Julio	2023-04-07T00:00:00	2024-11-08T04:00:00	4	Temperatura máxima	14.3
33291	7	Sololá	701	Sololá	1	Sololá	7	Julio	2023-04-07T00:00:00	2024-11-08T04:00:00	3	Temperatura mínima	14.2
33292	7	Sololá	701	Sololá	1	Sololá	7	Julio	2023-04-07T00:00:00	2024-11-08T04:00:00	5	Humedad	97
33293	7	Sololá	701	Sololá	1	Sololá	7	Julio	2023-04-07T00:00:00	2024-11-08T04:00:00	6	Velocidad del viento	0
33294	7	Sololá	701	Sololá	1	Sololá	7	Julio	2023-04-07T00:00:00	2024-11-08T04:00:00	7	Dirección del viento	0
33295	7	Sololá	701	Sololá	1	Sololá	7	Julio	2023-04-07T00:00:00	2024-11-08T04:00:00	1	Precipitación	0
33296	7	Sololá	701	Sololá	1	Sololá	7	Julio	2023-04-07T00:00:00	2024-11-08T04:00:00	8	Radiación solar	0
33297	7	Sololá	701	Sololá	1	Sololá	7	Julio	2023-04-07T00:00:00	2024-11-08T05:00:00	2	Temperatura media	14
33298	7	Sololá	701	Sololá	1	Sololá	7	Julio	2023-04-07T00:00:00	2024-11-08T05:00:00	4	Temperatura máxima	14.3
33299	7	Sololá	701	Sololá	1	Sololá	7	Julio	2023-04-07T00:00:00	2024-11-08T05:00:00	3	Temperatura mínima	14
33300	7	Sololá	701	Sololá	1	Sololá	7	Julio	2023-04-07T00:00:00	2024-11-08T05:00:00	5	Humedad	97
33301	7	Sololá	701	Sololá	1	Sololá	7	Julio	2023-04-07T00:00:00	2024-11-08T05:00:00	6	Velocidad del viento	0
33302	7	Sololá	701	Sololá	1	Sololá	7	Julio	2023-04-07T00:00:00	2024-11-08T05:00:00	7	Dirección del viento	0
33303	7	Sololá	701	Sololá	1	Sololá	7	Julio	2023-04-07T00:00:00	2024-11-08T05:00:00	1	Precipitación	0
33304	7	Sololá	701	Sololá	1	Sololá	7	Julio	2023-04-07T00:00:00	2024-11-08T05:00:00	8	Radiación solar	0
33305	7	Sololá	701	Sololá	1	Sololá	7	Julio	2023-04-07T00:00:00	2024-11-08T06:00:00	2	Temperatura media	13.7
33306	7	Sololá	701	Sololá	1	Sololá	7	Julio	2023-04-07T00:00:00	2024-11-08T06:00:00	4	Temperatura máxima	14.1
33307	7	Sololá	701	Sololá	1	Sololá	7	Julio	2023-04-07T00:00:00	2024-11-08T06:00:00	3	Temperatura mínima	13.7
33308	7	Sololá	701	Sololá	1	Sololá	7	Julio	2023-04-07T00:00:00	2024-11-08T06:00:00	5	Humedad	97
33309	7	Sololá	701	Sololá	1	Sololá	7	Julio	2023-04-07T00:00:00	2024-11-08T06:00:00	6	Velocidad del viento	0
33310	7	Sololá	701	Sololá	1	Sololá	7	Julio	2023-04-07T00:00:00	2024-11-08T06:00:00	7	Dirección del viento	0
33311	7	Sololá	701	Sololá	1	Sololá	7	Julio	2023-04-07T00:00:00	2024-11-08T06:00:00	1	Precipitación	0
33312	7	Sololá	701	Sololá	1	Sololá	7	Julio	2023-04-07T00:00:00	2024-11-08T06:00:00	8	Radiación solar	1
33313	7	Sololá	701	Sololá	1	Sololá	7	Julio	2023-04-07T00:00:00	2024-11-08T07:00:00	2	Temperatura media	14.4
33314	7	Sololá	701	Sololá	1	Sololá	7	Julio	2023-04-07T00:00:00	2024-11-08T07:00:00	4	Temperatura máxima	14.4
33315	7	Sololá	701	Sololá	1	Sololá	7	Julio	2023-04-07T00:00:00	2024-11-08T07:00:00	3	Temperatura mínima	13.7
33316	7	Sololá	701	Sololá	1	Sololá	7	Julio	2023-04-07T00:00:00	2024-11-08T07:00:00	5	Humedad	98
33317	7	Sololá	701	Sololá	1	Sololá	7	Julio	2023-04-07T00:00:00	2024-11-08T07:00:00	6	Velocidad del viento	0
33318	7	Sololá	701	Sololá	1	Sololá	7	Julio	2023-04-07T00:00:00	2024-11-08T07:00:00	7	Dirección del viento	0
33319	7	Sololá	701	Sololá	1	Sololá	7	Julio	2023-04-07T00:00:00	2024-11-08T07:00:00	1	Precipitación	0
33320	7	Sololá	701	Sololá	1	Sololá	7	Julio	2023-04-07T00:00:00	2024-11-08T07:00:00	8	Radiación solar	15
33321	7	Sololá	701	Sololá	1	Sololá	7	Julio	2023-04-07T00:00:00	2024-11-08T08:00:00	2	Temperatura media	15.2
33322	7	Sololá	701	Sololá	1	Sololá	7	Julio	2023-04-07T00:00:00	2024-11-08T08:00:00	4	Temperatura máxima	15.2
33323	7	Sololá	701	Sololá	1	Sololá	7	Julio	2023-04-07T00:00:00	2024-11-08T08:00:00	3	Temperatura mínima	14.4
33324	7	Sololá	701	Sololá	1	Sololá	7	Julio	2023-04-07T00:00:00	2024-11-08T08:00:00	5	Humedad	98
33325	7	Sololá	701	Sololá	1	Sololá	7	Julio	2023-04-07T00:00:00	2024-11-08T08:00:00	6	Velocidad del viento	0
33326	7	Sololá	701	Sololá	1	Sololá	7	Julio	2023-04-07T00:00:00	2024-11-08T08:00:00	7	Dirección del viento	0
33327	7	Sololá	701	Sololá	1	Sololá	7	Julio	2023-04-07T00:00:00	2024-11-08T08:00:00	1	Precipitación	0
33328	7	Sololá	701	Sololá	1	Sololá	7	Julio	2023-04-07T00:00:00	2024-11-08T08:00:00	8	Radiación solar	34
33329	7	Sololá	701	Sololá	1	Sololá	7	Julio	2023-04-07T00:00:00	2024-11-08T09:00:00	2	Temperatura media	15.4
33330	7	Sololá	701	Sololá	1	Sololá	7	Julio	2023-04-07T00:00:00	2024-11-08T09:00:00	4	Temperatura máxima	15.4
33331	7	Sololá	701	Sololá	1	Sololá	7	Julio	2023-04-07T00:00:00	2024-11-08T09:00:00	3	Temperatura mínima	14.9
33332	7	Sololá	701	Sololá	1	Sololá	7	Julio	2023-04-07T00:00:00	2024-11-08T09:00:00	5	Humedad	98
33333	7	Sololá	701	Sololá	1	Sololá	7	Julio	2023-04-07T00:00:00	2024-11-08T09:00:00	6	Velocidad del viento	0
33334	7	Sololá	701	Sololá	1	Sololá	7	Julio	2023-04-07T00:00:00	2024-11-08T09:00:00	7	Dirección del viento	0
33335	7	Sololá	701	Sololá	1	Sololá	7	Julio	2023-04-07T00:00:00	2024-11-08T09:00:00	1	Precipitación	0
33336	7	Sololá	701	Sololá	1	Sololá	7	Julio	2023-04-07T00:00:00	2024-11-08T09:00:00	8	Radiación solar	72
33337	7	Sololá	701	Sololá	1	Sololá	7	Julio	2023-04-07T00:00:00	2024-11-08T10:00:00	2	Temperatura media	16.8
33338	7	Sololá	701	Sololá	1	Sololá	7	Julio	2023-04-07T00:00:00	2024-11-08T10:00:00	4	Temperatura máxima	16.8
33339	7	Sololá	701	Sololá	1	Sololá	7	Julio	2023-04-07T00:00:00	2024-11-08T10:00:00	3	Temperatura mínima	15.3
33340	7	Sololá	701	Sololá	1	Sololá	7	Julio	2023-04-07T00:00:00	2024-11-08T10:00:00	5	Humedad	95
33341	7	Sololá	701	Sololá	1	Sololá	7	Julio	2023-04-07T00:00:00	2024-11-08T10:00:00	6	Velocidad del viento	0
33342	7	Sololá	701	Sololá	1	Sololá	7	Julio	2023-04-07T00:00:00	2024-11-08T10:00:00	7	Dirección del viento	0
33343	7	Sololá	701	Sololá	1	Sololá	7	Julio	2023-04-07T00:00:00	2024-11-08T10:00:00	1	Precipitación	0
33344	7	Sololá	701	Sololá	1	Sololá	7	Julio	2023-04-07T00:00:00	2024-11-08T10:00:00	8	Radiación solar	244
33345	7	Sololá	701	Sololá	1	Sololá	7	Julio	2023-04-07T00:00:00	2024-11-08T11:00:00	2	Temperatura media	18.7
33346	7	Sololá	701	Sololá	1	Sololá	7	Julio	2023-04-07T00:00:00	2024-11-08T11:00:00	4	Temperatura máxima	18.9
33347	7	Sololá	701	Sololá	1	Sololá	7	Julio	2023-04-07T00:00:00	2024-11-08T11:00:00	3	Temperatura mínima	16.8
33348	7	Sololá	701	Sololá	1	Sololá	7	Julio	2023-04-07T00:00:00	2024-11-08T11:00:00	5	Humedad	89
33349	7	Sololá	701	Sololá	1	Sololá	7	Julio	2023-04-07T00:00:00	2024-11-08T11:00:00	6	Velocidad del viento	0
33350	7	Sololá	701	Sololá	1	Sololá	7	Julio	2023-04-07T00:00:00	2024-11-08T11:00:00	7	Dirección del viento	0
33351	7	Sololá	701	Sololá	1	Sololá	7	Julio	2023-04-07T00:00:00	2024-11-08T11:00:00	1	Precipitación	0
33352	7	Sololá	701	Sololá	1	Sololá	7	Julio	2023-04-07T00:00:00	2024-11-08T11:00:00	8	Radiación solar	364
33353	7	Sololá	701	Sololá	1	Sololá	7	Julio	2023-04-07T00:00:00	2024-11-08T12:00:00	2	Temperatura media	19.4
33354	7	Sololá	701	Sololá	1	Sololá	7	Julio	2023-04-07T00:00:00	2024-11-08T12:00:00	4	Temperatura máxima	19.8
33355	7	Sololá	701	Sololá	1	Sololá	7	Julio	2023-04-07T00:00:00	2024-11-08T12:00:00	3	Temperatura mínima	18.7
33356	7	Sololá	701	Sololá	1	Sololá	7	Julio	2023-04-07T00:00:00	2024-11-08T12:00:00	5	Humedad	84
33357	7	Sololá	701	Sololá	1	Sololá	7	Julio	2023-04-07T00:00:00	2024-11-08T12:00:00	6	Velocidad del viento	0
33358	7	Sololá	701	Sololá	1	Sololá	7	Julio	2023-04-07T00:00:00	2024-11-08T12:00:00	7	Dirección del viento	0
33359	7	Sololá	701	Sololá	1	Sololá	7	Julio	2023-04-07T00:00:00	2024-11-08T12:00:00	1	Precipitación	0
33360	7	Sololá	701	Sololá	1	Sololá	7	Julio	2023-04-07T00:00:00	2024-11-08T12:00:00	8	Radiación solar	203
33361	7	Sololá	701	Sololá	1	Sololá	7	Julio	2023-04-07T00:00:00	2024-11-08T13:00:00	2	Temperatura media	20.6
33362	7	Sololá	701	Sololá	1	Sololá	7	Julio	2023-04-07T00:00:00	2024-11-08T13:00:00	4	Temperatura máxima	20.6
33363	7	Sololá	701	Sololá	1	Sololá	7	Julio	2023-04-07T00:00:00	2024-11-08T13:00:00	3	Temperatura mínima	19.4
33364	7	Sololá	701	Sololá	1	Sololá	7	Julio	2023-04-07T00:00:00	2024-11-08T13:00:00	5	Humedad	82
33365	7	Sololá	701	Sololá	1	Sololá	7	Julio	2023-04-07T00:00:00	2024-11-08T13:00:00	6	Velocidad del viento	0
33366	7	Sololá	701	Sololá	1	Sololá	7	Julio	2023-04-07T00:00:00	2024-11-08T13:00:00	7	Dirección del viento	0
33367	7	Sololá	701	Sololá	1	Sololá	7	Julio	2023-04-07T00:00:00	2024-11-08T13:00:00	1	Precipitación	0
33368	7	Sololá	701	Sololá	1	Sololá	7	Julio	2023-04-07T00:00:00	2024-11-08T13:00:00	8	Radiación solar	196
33369	7	Sololá	701	Sololá	1	Sololá	7	Julio	2023-04-07T00:00:00	2024-11-08T14:00:00	2	Temperatura media	20.4
33370	7	Sololá	701	Sololá	1	Sololá	7	Julio	2023-04-07T00:00:00	2024-11-08T14:00:00	4	Temperatura máxima	20.6
33371	7	Sololá	701	Sololá	1	Sololá	7	Julio	2023-04-07T00:00:00	2024-11-08T14:00:00	3	Temperatura mínima	20.3
33372	7	Sololá	701	Sololá	1	Sololá	7	Julio	2023-04-07T00:00:00	2024-11-08T14:00:00	5	Humedad	81
33373	7	Sololá	701	Sololá	1	Sololá	7	Julio	2023-04-07T00:00:00	2024-11-08T14:00:00	6	Velocidad del viento	0
33374	7	Sololá	701	Sololá	1	Sololá	7	Julio	2023-04-07T00:00:00	2024-11-08T14:00:00	7	Dirección del viento	0
33375	7	Sololá	701	Sololá	1	Sololá	7	Julio	2023-04-07T00:00:00	2024-11-08T14:00:00	1	Precipitación	0
33376	7	Sololá	701	Sololá	1	Sololá	7	Julio	2023-04-07T00:00:00	2024-11-08T14:00:00	8	Radiación solar	193
33377	7	Sololá	701	Sololá	1	Sololá	7	Julio	2023-04-07T00:00:00	2024-11-08T15:00:00	2	Temperatura media	18.4
33378	7	Sololá	701	Sololá	1	Sololá	7	Julio	2023-04-07T00:00:00	2024-11-08T15:00:00	4	Temperatura máxima	20.4
33379	7	Sololá	701	Sololá	1	Sololá	7	Julio	2023-04-07T00:00:00	2024-11-08T15:00:00	3	Temperatura mínima	18.4
33380	7	Sololá	701	Sololá	1	Sololá	7	Julio	2023-04-07T00:00:00	2024-11-08T15:00:00	5	Humedad	91
33381	7	Sololá	701	Sololá	1	Sololá	7	Julio	2023-04-07T00:00:00	2024-11-08T15:00:00	6	Velocidad del viento	0
33382	7	Sololá	701	Sololá	1	Sololá	7	Julio	2023-04-07T00:00:00	2024-11-08T15:00:00	7	Dirección del viento	0
33383	7	Sololá	701	Sololá	1	Sololá	7	Julio	2023-04-07T00:00:00	2024-11-08T15:00:00	1	Precipitación	0.4
33384	7	Sololá	701	Sololá	1	Sololá	7	Julio	2023-04-07T00:00:00	2024-11-08T15:00:00	8	Radiación solar	98
33385	7	Sololá	701	Sololá	1	Sololá	7	Julio	2023-04-07T00:00:00	2024-11-08T16:00:00	2	Temperatura media	16.8
33386	7	Sololá	701	Sololá	1	Sololá	7	Julio	2023-04-07T00:00:00	2024-11-08T16:00:00	4	Temperatura máxima	18.3
33387	7	Sololá	701	Sololá	1	Sololá	7	Julio	2023-04-07T00:00:00	2024-11-08T16:00:00	3	Temperatura mínima	16.8
33388	7	Sololá	701	Sololá	1	Sololá	7	Julio	2023-04-07T00:00:00	2024-11-08T16:00:00	5	Humedad	93
33389	7	Sololá	701	Sololá	1	Sololá	7	Julio	2023-04-07T00:00:00	2024-11-08T16:00:00	6	Velocidad del viento	0
33390	7	Sololá	701	Sololá	1	Sololá	7	Julio	2023-04-07T00:00:00	2024-11-08T16:00:00	7	Dirección del viento	0
33391	7	Sololá	701	Sololá	1	Sololá	7	Julio	2023-04-07T00:00:00	2024-11-08T16:00:00	1	Precipitación	2.4
33392	7	Sololá	701	Sololá	1	Sololá	7	Julio	2023-04-07T00:00:00	2024-11-08T16:00:00	8	Radiación solar	38
33393	7	Sololá	701	Sololá	1	Sololá	7	Julio	2023-04-07T00:00:00	2024-11-08T17:00:00	2	Temperatura media	17.1
33394	7	Sololá	701	Sololá	1	Sololá	7	Julio	2023-04-07T00:00:00	2024-11-08T17:00:00	4	Temperatura máxima	17.2
33395	7	Sololá	701	Sololá	1	Sololá	7	Julio	2023-04-07T00:00:00	2024-11-08T17:00:00	3	Temperatura mínima	16.7
33396	7	Sololá	701	Sololá	1	Sololá	7	Julio	2023-04-07T00:00:00	2024-11-08T17:00:00	5	Humedad	95
33397	7	Sololá	701	Sololá	1	Sololá	7	Julio	2023-04-07T00:00:00	2024-11-08T17:00:00	6	Velocidad del viento	0
33398	7	Sololá	701	Sololá	1	Sololá	7	Julio	2023-04-07T00:00:00	2024-11-08T17:00:00	7	Dirección del viento	0
33399	7	Sololá	701	Sololá	1	Sololá	7	Julio	2023-04-07T00:00:00	2024-11-08T17:00:00	1	Precipitación	0.2
33400	7	Sololá	701	Sololá	1	Sololá	7	Julio	2023-04-07T00:00:00	2024-11-08T17:00:00	8	Radiación solar	45
33401	7	Sololá	701	Sololá	1	Sololá	7	Julio	2023-04-07T00:00:00	2024-11-08T18:00:00	2	Temperatura media	16.7
33402	7	Sololá	701	Sololá	1	Sololá	7	Julio	2023-04-07T00:00:00	2024-11-08T18:00:00	4	Temperatura máxima	17.1
33403	7	Sololá	701	Sololá	1	Sololá	7	Julio	2023-04-07T00:00:00	2024-11-08T18:00:00	3	Temperatura mínima	16.6
33404	7	Sololá	701	Sololá	1	Sololá	7	Julio	2023-04-07T00:00:00	2024-11-08T18:00:00	5	Humedad	96
33405	7	Sololá	701	Sololá	1	Sololá	7	Julio	2023-04-07T00:00:00	2024-11-08T18:00:00	6	Velocidad del viento	0
33406	7	Sololá	701	Sololá	1	Sololá	7	Julio	2023-04-07T00:00:00	2024-11-08T18:00:00	7	Dirección del viento	0
33407	7	Sololá	701	Sololá	1	Sololá	7	Julio	2023-04-07T00:00:00	2024-11-08T18:00:00	1	Precipitación	0.2
33408	7	Sololá	701	Sololá	1	Sololá	7	Julio	2023-04-07T00:00:00	2024-11-08T18:00:00	8	Radiación solar	17
33409	7	Sololá	701	Sololá	1	Sololá	7	Julio	2023-04-07T00:00:00	2024-11-08T19:00:00	2	Temperatura media	16
33410	7	Sololá	701	Sololá	1	Sololá	7	Julio	2023-04-07T00:00:00	2024-11-08T19:00:00	4	Temperatura máxima	16.7
33411	7	Sololá	701	Sololá	1	Sololá	7	Julio	2023-04-07T00:00:00	2024-11-08T19:00:00	3	Temperatura mínima	15.9
33412	7	Sololá	701	Sololá	1	Sololá	7	Julio	2023-04-07T00:00:00	2024-11-08T19:00:00	5	Humedad	96
33413	7	Sololá	701	Sololá	1	Sololá	7	Julio	2023-04-07T00:00:00	2024-11-08T19:00:00	6	Velocidad del viento	0
33414	7	Sololá	701	Sololá	1	Sololá	7	Julio	2023-04-07T00:00:00	2024-11-08T19:00:00	7	Dirección del viento	0
33415	7	Sololá	701	Sololá	1	Sololá	7	Julio	2023-04-07T00:00:00	2024-11-08T19:00:00	1	Precipitación	0.4
33416	7	Sololá	701	Sololá	1	Sololá	7	Julio	2023-04-07T00:00:00	2024-11-08T19:00:00	8	Radiación solar	0
33417	7	Sololá	701	Sololá	1	Sololá	7	Julio	2023-04-07T00:00:00	2024-11-08T20:00:00	2	Temperatura media	15.9
33418	7	Sololá	701	Sololá	1	Sololá	7	Julio	2023-04-07T00:00:00	2024-11-08T20:00:00	4	Temperatura máxima	16
33419	7	Sololá	701	Sololá	1	Sololá	7	Julio	2023-04-07T00:00:00	2024-11-08T20:00:00	3	Temperatura mínima	15.8
33420	7	Sololá	701	Sololá	1	Sololá	7	Julio	2023-04-07T00:00:00	2024-11-08T20:00:00	5	Humedad	96
33421	7	Sololá	701	Sololá	1	Sololá	7	Julio	2023-04-07T00:00:00	2024-11-08T20:00:00	6	Velocidad del viento	0
33422	7	Sololá	701	Sololá	1	Sololá	7	Julio	2023-04-07T00:00:00	2024-11-08T20:00:00	7	Dirección del viento	0
33423	7	Sololá	701	Sololá	1	Sololá	7	Julio	2023-04-07T00:00:00	2024-11-08T20:00:00	1	Precipitación	0
33424	7	Sololá	701	Sololá	1	Sololá	7	Julio	2023-04-07T00:00:00	2024-11-08T20:00:00	8	Radiación solar	0
33425	7	Sololá	701	Sololá	1	Sololá	7	Julio	2023-04-07T00:00:00	2024-11-08T21:00:00	2	Temperatura media	15.7
33426	7	Sololá	701	Sololá	1	Sololá	7	Julio	2023-04-07T00:00:00	2024-11-08T21:00:00	4	Temperatura máxima	15.9
33427	7	Sololá	701	Sololá	1	Sololá	7	Julio	2023-04-07T00:00:00	2024-11-08T21:00:00	3	Temperatura mínima	15.7
33428	7	Sololá	701	Sololá	1	Sololá	7	Julio	2023-04-07T00:00:00	2024-11-08T21:00:00	5	Humedad	96
33429	7	Sololá	701	Sololá	1	Sololá	7	Julio	2023-04-07T00:00:00	2024-11-08T21:00:00	6	Velocidad del viento	0
33430	7	Sololá	701	Sololá	1	Sololá	7	Julio	2023-04-07T00:00:00	2024-11-08T21:00:00	7	Dirección del viento	0
33431	7	Sololá	701	Sololá	1	Sololá	7	Julio	2023-04-07T00:00:00	2024-11-08T21:00:00	1	Precipitación	0.2
33432	7	Sololá	701	Sololá	1	Sololá	7	Julio	2023-04-07T00:00:00	2024-11-08T21:00:00	8	Radiación solar	0
33433	7	Sololá	701	Sololá	1	Sololá	7	Julio	2023-04-07T00:00:00	2024-11-08T22:00:00	2	Temperatura media	15.6
33434	7	Sololá	701	Sololá	1	Sololá	7	Julio	2023-04-07T00:00:00	2024-11-08T22:00:00	4	Temperatura máxima	15.7
33435	7	Sololá	701	Sololá	1	Sololá	7	Julio	2023-04-07T00:00:00	2024-11-08T22:00:00	3	Temperatura mínima	15.6
33436	7	Sololá	701	Sololá	1	Sololá	7	Julio	2023-04-07T00:00:00	2024-11-08T22:00:00	5	Humedad	97
33437	7	Sololá	701	Sololá	1	Sololá	7	Julio	2023-04-07T00:00:00	2024-11-08T22:00:00	6	Velocidad del viento	0
33438	7	Sololá	701	Sololá	1	Sololá	7	Julio	2023-04-07T00:00:00	2024-11-08T22:00:00	7	Dirección del viento	0
33439	7	Sololá	701	Sololá	1	Sololá	7	Julio	2023-04-07T00:00:00	2024-11-08T22:00:00	1	Precipitación	1.8
33440	7	Sololá	701	Sololá	1	Sololá	7	Julio	2023-04-07T00:00:00	2024-11-08T22:00:00	8	Radiación solar	0
33441	7	Sololá	701	Sololá	1	Sololá	7	Julio	2023-04-07T00:00:00	2024-11-08T23:00:00	2	Temperatura media	15.4
33442	7	Sololá	701	Sololá	1	Sololá	7	Julio	2023-04-07T00:00:00	2024-11-08T23:00:00	4	Temperatura máxima	15.6
33443	7	Sololá	701	Sololá	1	Sololá	7	Julio	2023-04-07T00:00:00	2024-11-08T23:00:00	3	Temperatura mínima	15.4
33444	7	Sololá	701	Sololá	1	Sololá	7	Julio	2023-04-07T00:00:00	2024-11-08T23:00:00	5	Humedad	96
33445	7	Sololá	701	Sololá	1	Sololá	7	Julio	2023-04-07T00:00:00	2024-11-08T23:00:00	6	Velocidad del viento	0
33446	7	Sololá	701	Sololá	1	Sololá	7	Julio	2023-04-07T00:00:00	2024-11-08T23:00:00	7	Dirección del viento	0
33447	7	Sololá	701	Sololá	1	Sololá	7	Julio	2023-04-07T00:00:00	2024-11-08T23:00:00	1	Precipitación	0.6
33448	7	Sololá	701	Sololá	1	Sololá	7	Julio	2023-04-07T00:00:00	2024-11-08T23:00:00	8	Radiación solar	0
33449	7	Sololá	701	Sololá	1	Sololá	7	Julio	2023-05-07T00:00:00	2024-11-08T00:00:00	2	Temperatura media	15.2
33450	7	Sololá	701	Sololá	1	Sololá	7	Julio	2023-05-07T00:00:00	2024-11-08T00:00:00	4	Temperatura máxima	15.4
33451	7	Sololá	701	Sololá	1	Sololá	7	Julio	2023-05-07T00:00:00	2024-11-08T00:00:00	3	Temperatura mínima	15.2
33452	7	Sololá	701	Sololá	1	Sololá	7	Julio	2023-05-07T00:00:00	2024-11-08T00:00:00	5	Humedad	97
33453	7	Sololá	701	Sololá	1	Sololá	7	Julio	2023-05-07T00:00:00	2024-11-08T00:00:00	6	Velocidad del viento	0
33454	7	Sololá	701	Sololá	1	Sololá	7	Julio	2023-05-07T00:00:00	2024-11-08T00:00:00	7	Dirección del viento	0
33455	7	Sololá	701	Sololá	1	Sololá	7	Julio	2023-05-07T00:00:00	2024-11-08T00:00:00	1	Precipitación	0.2
33456	7	Sololá	701	Sololá	1	Sololá	7	Julio	2023-05-07T00:00:00	2024-11-08T00:00:00	8	Radiación solar	0
33457	7	Sololá	701	Sololá	1	Sololá	7	Julio	2023-05-07T00:00:00	2024-11-08T01:00:00	2	Temperatura media	14.9
33458	7	Sololá	701	Sololá	1	Sololá	7	Julio	2023-05-07T00:00:00	2024-11-08T01:00:00	4	Temperatura máxima	15.2
33459	7	Sololá	701	Sololá	1	Sololá	7	Julio	2023-05-07T00:00:00	2024-11-08T01:00:00	3	Temperatura mínima	14.8
33460	7	Sololá	701	Sololá	1	Sololá	7	Julio	2023-05-07T00:00:00	2024-11-08T01:00:00	5	Humedad	97
33461	7	Sololá	701	Sololá	1	Sololá	7	Julio	2023-05-07T00:00:00	2024-11-08T01:00:00	6	Velocidad del viento	0
33462	7	Sololá	701	Sololá	1	Sololá	7	Julio	2023-05-07T00:00:00	2024-11-08T01:00:00	7	Dirección del viento	0
33463	7	Sololá	701	Sololá	1	Sololá	7	Julio	2023-05-07T00:00:00	2024-11-08T01:00:00	1	Precipitación	0
33464	7	Sololá	701	Sololá	1	Sololá	7	Julio	2023-05-07T00:00:00	2024-11-08T01:00:00	8	Radiación solar	0
33465	7	Sololá	701	Sololá	1	Sololá	7	Julio	2023-05-07T00:00:00	2024-11-08T02:00:00	2	Temperatura media	14.7
33466	7	Sololá	701	Sololá	1	Sololá	7	Julio	2023-05-07T00:00:00	2024-11-08T02:00:00	4	Temperatura máxima	14.9
33467	7	Sololá	701	Sololá	1	Sololá	7	Julio	2023-05-07T00:00:00	2024-11-08T02:00:00	3	Temperatura mínima	14.7
33468	7	Sololá	701	Sololá	1	Sololá	7	Julio	2023-05-07T00:00:00	2024-11-08T02:00:00	5	Humedad	97
33469	7	Sololá	701	Sololá	1	Sololá	7	Julio	2023-05-07T00:00:00	2024-11-08T02:00:00	6	Velocidad del viento	0
33470	7	Sololá	701	Sololá	1	Sololá	7	Julio	2023-05-07T00:00:00	2024-11-08T02:00:00	7	Dirección del viento	0
33471	7	Sololá	701	Sololá	1	Sololá	7	Julio	2023-05-07T00:00:00	2024-11-08T02:00:00	1	Precipitación	0.2
33472	7	Sololá	701	Sololá	1	Sololá	7	Julio	2023-05-07T00:00:00	2024-11-08T02:00:00	8	Radiación solar	0
33473	7	Sololá	701	Sololá	1	Sololá	7	Julio	2023-05-07T00:00:00	2024-11-08T03:00:00	2	Temperatura media	13.9
33474	7	Sololá	701	Sololá	1	Sololá	7	Julio	2023-05-07T00:00:00	2024-11-08T03:00:00	4	Temperatura máxima	14.7
33475	7	Sololá	701	Sololá	1	Sololá	7	Julio	2023-05-07T00:00:00	2024-11-08T03:00:00	3	Temperatura mínima	13.9
33476	7	Sololá	701	Sololá	1	Sololá	7	Julio	2023-05-07T00:00:00	2024-11-08T03:00:00	5	Humedad	97
33477	7	Sololá	701	Sololá	1	Sololá	7	Julio	2023-05-07T00:00:00	2024-11-08T03:00:00	6	Velocidad del viento	0
33478	7	Sololá	701	Sololá	1	Sololá	7	Julio	2023-05-07T00:00:00	2024-11-08T03:00:00	7	Dirección del viento	0
33479	7	Sololá	701	Sololá	1	Sololá	7	Julio	2023-05-07T00:00:00	2024-11-08T03:00:00	1	Precipitación	0
33480	7	Sololá	701	Sololá	1	Sololá	7	Julio	2023-05-07T00:00:00	2024-11-08T03:00:00	8	Radiación solar	0
33481	7	Sololá	701	Sololá	1	Sololá	7	Julio	2023-05-07T00:00:00	2024-11-08T04:00:00	2	Temperatura media	13.4
33482	7	Sololá	701	Sololá	1	Sololá	7	Julio	2023-05-07T00:00:00	2024-11-08T04:00:00	4	Temperatura máxima	13.9
33483	7	Sololá	701	Sololá	1	Sololá	7	Julio	2023-05-07T00:00:00	2024-11-08T04:00:00	3	Temperatura mínima	13.4
33484	7	Sololá	701	Sololá	1	Sololá	7	Julio	2023-05-07T00:00:00	2024-11-08T04:00:00	5	Humedad	97
33485	7	Sololá	701	Sololá	1	Sololá	7	Julio	2023-05-07T00:00:00	2024-11-08T04:00:00	6	Velocidad del viento	0
33486	7	Sololá	701	Sololá	1	Sololá	7	Julio	2023-05-07T00:00:00	2024-11-08T04:00:00	7	Dirección del viento	0
33487	7	Sololá	701	Sololá	1	Sololá	7	Julio	2023-05-07T00:00:00	2024-11-08T04:00:00	1	Precipitación	0
33488	7	Sololá	701	Sololá	1	Sololá	7	Julio	2023-05-07T00:00:00	2024-11-08T04:00:00	8	Radiación solar	0
33489	7	Sololá	701	Sololá	1	Sololá	7	Julio	2023-05-07T00:00:00	2024-11-08T05:00:00	2	Temperatura media	13.1
33490	7	Sololá	701	Sololá	1	Sololá	7	Julio	2023-05-07T00:00:00	2024-11-08T05:00:00	4	Temperatura máxima	13.5
33491	7	Sololá	701	Sololá	1	Sololá	7	Julio	2023-05-07T00:00:00	2024-11-08T05:00:00	3	Temperatura mínima	13.1
33492	7	Sololá	701	Sololá	1	Sololá	7	Julio	2023-05-07T00:00:00	2024-11-08T05:00:00	5	Humedad	97
33493	7	Sololá	701	Sololá	1	Sololá	7	Julio	2023-05-07T00:00:00	2024-11-08T05:00:00	6	Velocidad del viento	0
33494	7	Sololá	701	Sololá	1	Sololá	7	Julio	2023-05-07T00:00:00	2024-11-08T05:00:00	7	Dirección del viento	0
33495	7	Sololá	701	Sololá	1	Sololá	7	Julio	2023-05-07T00:00:00	2024-11-08T05:00:00	1	Precipitación	0
33496	7	Sololá	701	Sololá	1	Sololá	7	Julio	2023-05-07T00:00:00	2024-11-08T05:00:00	8	Radiación solar	0
33497	7	Sololá	701	Sololá	1	Sololá	7	Julio	2023-05-07T00:00:00	2024-11-08T06:00:00	2	Temperatura media	12.9
33498	7	Sololá	701	Sololá	1	Sololá	7	Julio	2023-05-07T00:00:00	2024-11-08T06:00:00	4	Temperatura máxima	13.1
33499	7	Sololá	701	Sololá	1	Sololá	7	Julio	2023-05-07T00:00:00	2024-11-08T06:00:00	3	Temperatura mínima	12.8
33500	7	Sololá	701	Sololá	1	Sololá	7	Julio	2023-05-07T00:00:00	2024-11-08T06:00:00	5	Humedad	97
33501	7	Sololá	701	Sololá	1	Sololá	7	Julio	2023-05-07T00:00:00	2024-11-08T06:00:00	6	Velocidad del viento	0
33502	7	Sololá	701	Sololá	1	Sololá	7	Julio	2023-05-07T00:00:00	2024-11-08T06:00:00	7	Dirección del viento	0
33503	7	Sololá	701	Sololá	1	Sololá	7	Julio	2023-05-07T00:00:00	2024-11-08T06:00:00	1	Precipitación	0
33504	7	Sololá	701	Sololá	1	Sololá	7	Julio	2023-05-07T00:00:00	2024-11-08T06:00:00	8	Radiación solar	0
33505	7	Sololá	701	Sololá	1	Sololá	7	Julio	2023-05-07T00:00:00	2024-11-08T07:00:00	2	Temperatura media	13
33506	7	Sololá	701	Sololá	1	Sololá	7	Julio	2023-05-07T00:00:00	2024-11-08T07:00:00	4	Temperatura máxima	13
33507	7	Sololá	701	Sololá	1	Sololá	7	Julio	2023-05-07T00:00:00	2024-11-08T07:00:00	3	Temperatura mínima	12.8
33508	7	Sololá	701	Sololá	1	Sololá	7	Julio	2023-05-07T00:00:00	2024-11-08T07:00:00	5	Humedad	97
33509	7	Sololá	701	Sololá	1	Sololá	7	Julio	2023-05-07T00:00:00	2024-11-08T07:00:00	6	Velocidad del viento	0
33510	7	Sololá	701	Sololá	1	Sololá	7	Julio	2023-05-07T00:00:00	2024-11-08T07:00:00	7	Dirección del viento	0
33511	7	Sololá	701	Sololá	1	Sololá	7	Julio	2023-05-07T00:00:00	2024-11-08T07:00:00	1	Precipitación	0
33512	7	Sololá	701	Sololá	1	Sololá	7	Julio	2023-05-07T00:00:00	2024-11-08T07:00:00	8	Radiación solar	10
33513	7	Sololá	701	Sololá	1	Sololá	7	Julio	2023-05-07T00:00:00	2024-11-08T08:00:00	2	Temperatura media	14.7
33514	7	Sololá	701	Sololá	1	Sololá	7	Julio	2023-05-07T00:00:00	2024-11-08T08:00:00	4	Temperatura máxima	14.7
33515	7	Sololá	701	Sololá	1	Sololá	7	Julio	2023-05-07T00:00:00	2024-11-08T08:00:00	3	Temperatura mínima	13
33516	7	Sololá	701	Sololá	1	Sololá	7	Julio	2023-05-07T00:00:00	2024-11-08T08:00:00	5	Humedad	98
33517	7	Sololá	701	Sololá	1	Sololá	7	Julio	2023-05-07T00:00:00	2024-11-08T08:00:00	6	Velocidad del viento	0
33518	7	Sololá	701	Sololá	1	Sololá	7	Julio	2023-05-07T00:00:00	2024-11-08T08:00:00	7	Dirección del viento	0
33519	7	Sololá	701	Sololá	1	Sololá	7	Julio	2023-05-07T00:00:00	2024-11-08T08:00:00	1	Precipitación	0
33520	7	Sololá	701	Sololá	1	Sololá	7	Julio	2023-05-07T00:00:00	2024-11-08T08:00:00	8	Radiación solar	39
33521	7	Sololá	701	Sololá	1	Sololá	7	Julio	2023-05-07T00:00:00	2024-11-08T09:00:00	2	Temperatura media	17.4
33522	7	Sololá	701	Sololá	1	Sololá	7	Julio	2023-05-07T00:00:00	2024-11-08T09:00:00	4	Temperatura máxima	17.4
33523	7	Sololá	701	Sololá	1	Sololá	7	Julio	2023-05-07T00:00:00	2024-11-08T09:00:00	3	Temperatura mínima	14.7
33524	7	Sololá	701	Sololá	1	Sololá	7	Julio	2023-05-07T00:00:00	2024-11-08T09:00:00	5	Humedad	89
33525	7	Sololá	701	Sololá	1	Sololá	7	Julio	2023-05-07T00:00:00	2024-11-08T09:00:00	6	Velocidad del viento	0
33526	7	Sololá	701	Sololá	1	Sololá	7	Julio	2023-05-07T00:00:00	2024-11-08T09:00:00	7	Dirección del viento	0
33527	7	Sololá	701	Sololá	1	Sololá	7	Julio	2023-05-07T00:00:00	2024-11-08T09:00:00	1	Precipitación	0
33528	7	Sololá	701	Sololá	1	Sololá	7	Julio	2023-05-07T00:00:00	2024-11-08T09:00:00	8	Radiación solar	360
33529	7	Sololá	701	Sololá	1	Sololá	7	Julio	2023-05-07T00:00:00	2024-11-08T10:00:00	2	Temperatura media	20.6
33530	7	Sololá	701	Sololá	1	Sololá	7	Julio	2023-05-07T00:00:00	2024-11-08T10:00:00	4	Temperatura máxima	20.6
33531	7	Sololá	701	Sololá	1	Sololá	7	Julio	2023-05-07T00:00:00	2024-11-08T10:00:00	3	Temperatura mínima	17.4
33532	7	Sololá	701	Sololá	1	Sololá	7	Julio	2023-05-07T00:00:00	2024-11-08T10:00:00	5	Humedad	78
33533	7	Sololá	701	Sololá	1	Sololá	7	Julio	2023-05-07T00:00:00	2024-11-08T10:00:00	6	Velocidad del viento	0
33534	7	Sololá	701	Sololá	1	Sololá	7	Julio	2023-05-07T00:00:00	2024-11-08T10:00:00	7	Dirección del viento	0
33535	7	Sololá	701	Sololá	1	Sololá	7	Julio	2023-05-07T00:00:00	2024-11-08T10:00:00	1	Precipitación	0
33536	7	Sololá	701	Sololá	1	Sololá	7	Julio	2023-05-07T00:00:00	2024-11-08T10:00:00	8	Radiación solar	569
33537	7	Sololá	701	Sololá	1	Sololá	7	Julio	2023-05-07T00:00:00	2024-11-08T11:00:00	2	Temperatura media	21
33538	7	Sololá	701	Sololá	1	Sololá	7	Julio	2023-05-07T00:00:00	2024-11-08T11:00:00	4	Temperatura máxima	21.1
33539	7	Sololá	701	Sololá	1	Sololá	7	Julio	2023-05-07T00:00:00	2024-11-08T11:00:00	3	Temperatura mínima	20.6
33540	7	Sololá	701	Sololá	1	Sololá	7	Julio	2023-05-07T00:00:00	2024-11-08T11:00:00	5	Humedad	77
33541	7	Sololá	701	Sololá	1	Sololá	7	Julio	2023-05-07T00:00:00	2024-11-08T11:00:00	6	Velocidad del viento	0
33542	7	Sololá	701	Sololá	1	Sololá	7	Julio	2023-05-07T00:00:00	2024-11-08T11:00:00	7	Dirección del viento	0
33543	7	Sololá	701	Sololá	1	Sololá	7	Julio	2023-05-07T00:00:00	2024-11-08T11:00:00	1	Precipitación	0
33544	7	Sololá	701	Sololá	1	Sololá	7	Julio	2023-05-07T00:00:00	2024-11-08T11:00:00	8	Radiación solar	257
33545	7	Sololá	701	Sololá	1	Sololá	7	Julio	2023-05-07T00:00:00	2024-11-08T12:00:00	2	Temperatura media	21.1
33546	7	Sololá	701	Sololá	1	Sololá	7	Julio	2023-05-07T00:00:00	2024-11-08T12:00:00	4	Temperatura máxima	21.2
33547	7	Sololá	701	Sololá	1	Sololá	7	Julio	2023-05-07T00:00:00	2024-11-08T12:00:00	3	Temperatura mínima	20.9
33548	7	Sololá	701	Sololá	1	Sololá	7	Julio	2023-05-07T00:00:00	2024-11-08T12:00:00	5	Humedad	83
33549	7	Sololá	701	Sololá	1	Sololá	7	Julio	2023-05-07T00:00:00	2024-11-08T12:00:00	6	Velocidad del viento	0
33550	7	Sololá	701	Sololá	1	Sololá	7	Julio	2023-05-07T00:00:00	2024-11-08T12:00:00	7	Dirección del viento	0
33551	7	Sololá	701	Sololá	1	Sololá	7	Julio	2023-05-07T00:00:00	2024-11-08T12:00:00	1	Precipitación	0
33552	7	Sololá	701	Sololá	1	Sololá	7	Julio	2023-05-07T00:00:00	2024-11-08T12:00:00	8	Radiación solar	156
33553	7	Sololá	701	Sololá	1	Sololá	7	Julio	2023-05-07T00:00:00	2024-11-08T13:00:00	2	Temperatura media	20.4
33554	7	Sololá	701	Sololá	1	Sololá	7	Julio	2023-05-07T00:00:00	2024-11-08T13:00:00	4	Temperatura máxima	21.2
33555	7	Sololá	701	Sololá	1	Sololá	7	Julio	2023-05-07T00:00:00	2024-11-08T13:00:00	3	Temperatura mínima	20.4
33556	7	Sololá	701	Sololá	1	Sololá	7	Julio	2023-05-07T00:00:00	2024-11-08T13:00:00	5	Humedad	85
33557	7	Sololá	701	Sololá	1	Sololá	7	Julio	2023-05-07T00:00:00	2024-11-08T13:00:00	6	Velocidad del viento	0
33558	7	Sololá	701	Sololá	1	Sololá	7	Julio	2023-05-07T00:00:00	2024-11-08T13:00:00	7	Dirección del viento	0
33559	7	Sololá	701	Sololá	1	Sololá	7	Julio	2023-05-07T00:00:00	2024-11-08T13:00:00	1	Precipitación	0
33560	7	Sololá	701	Sololá	1	Sololá	7	Julio	2023-05-07T00:00:00	2024-11-08T13:00:00	8	Radiación solar	148
33561	7	Sololá	701	Sololá	1	Sololá	7	Julio	2023-05-07T00:00:00	2024-11-08T14:00:00	2	Temperatura media	18.4
33562	7	Sololá	701	Sololá	1	Sololá	7	Julio	2023-05-07T00:00:00	2024-11-08T14:00:00	4	Temperatura máxima	20.4
33563	7	Sololá	701	Sololá	1	Sololá	7	Julio	2023-05-07T00:00:00	2024-11-08T14:00:00	3	Temperatura mínima	18.4
33564	7	Sololá	701	Sololá	1	Sololá	7	Julio	2023-05-07T00:00:00	2024-11-08T14:00:00	5	Humedad	91
33565	7	Sololá	701	Sololá	1	Sololá	7	Julio	2023-05-07T00:00:00	2024-11-08T14:00:00	6	Velocidad del viento	0
33566	7	Sololá	701	Sololá	1	Sololá	7	Julio	2023-05-07T00:00:00	2024-11-08T14:00:00	7	Dirección del viento	0
33567	7	Sololá	701	Sololá	1	Sololá	7	Julio	2023-05-07T00:00:00	2024-11-08T14:00:00	1	Precipitación	0
33568	7	Sololá	701	Sololá	1	Sololá	7	Julio	2023-05-07T00:00:00	2024-11-08T14:00:00	8	Radiación solar	57
33569	7	Sololá	701	Sololá	1	Sololá	7	Julio	2023-05-07T00:00:00	2024-11-08T15:00:00	2	Temperatura media	17.9
33570	7	Sololá	701	Sololá	1	Sololá	7	Julio	2023-05-07T00:00:00	2024-11-08T15:00:00	4	Temperatura máxima	18.5
33571	7	Sololá	701	Sololá	1	Sololá	7	Julio	2023-05-07T00:00:00	2024-11-08T15:00:00	3	Temperatura mínima	17.8
33572	7	Sololá	701	Sololá	1	Sololá	7	Julio	2023-05-07T00:00:00	2024-11-08T15:00:00	5	Humedad	94
33573	7	Sololá	701	Sololá	1	Sololá	7	Julio	2023-05-07T00:00:00	2024-11-08T15:00:00	6	Velocidad del viento	0
33574	7	Sololá	701	Sololá	1	Sololá	7	Julio	2023-05-07T00:00:00	2024-11-08T15:00:00	7	Dirección del viento	0
33575	7	Sololá	701	Sololá	1	Sololá	7	Julio	2023-05-07T00:00:00	2024-11-08T15:00:00	1	Precipitación	0
33576	7	Sololá	701	Sololá	1	Sololá	7	Julio	2023-05-07T00:00:00	2024-11-08T15:00:00	8	Radiación solar	38
33577	7	Sololá	701	Sololá	1	Sololá	7	Julio	2023-05-07T00:00:00	2024-11-08T16:00:00	2	Temperatura media	19.2
33578	7	Sololá	701	Sololá	1	Sololá	7	Julio	2023-05-07T00:00:00	2024-11-08T16:00:00	4	Temperatura máxima	19.3
33579	7	Sololá	701	Sololá	1	Sololá	7	Julio	2023-05-07T00:00:00	2024-11-08T16:00:00	3	Temperatura mínima	17.9
33580	7	Sololá	701	Sololá	1	Sololá	7	Julio	2023-05-07T00:00:00	2024-11-08T16:00:00	5	Humedad	92
33581	7	Sololá	701	Sololá	1	Sololá	7	Julio	2023-05-07T00:00:00	2024-11-08T16:00:00	6	Velocidad del viento	0
33582	7	Sololá	701	Sololá	1	Sololá	7	Julio	2023-05-07T00:00:00	2024-11-08T16:00:00	7	Dirección del viento	0
33583	7	Sololá	701	Sololá	1	Sololá	7	Julio	2023-05-07T00:00:00	2024-11-08T16:00:00	1	Precipitación	0
33584	7	Sololá	701	Sololá	1	Sololá	7	Julio	2023-05-07T00:00:00	2024-11-08T16:00:00	8	Radiación solar	119
33585	7	Sololá	701	Sololá	1	Sololá	7	Julio	2023-05-07T00:00:00	2024-11-08T17:00:00	2	Temperatura media	18
33586	7	Sololá	701	Sololá	1	Sololá	7	Julio	2023-05-07T00:00:00	2024-11-08T17:00:00	4	Temperatura máxima	19.2
33587	7	Sololá	701	Sololá	1	Sololá	7	Julio	2023-05-07T00:00:00	2024-11-08T17:00:00	3	Temperatura mínima	18
33588	7	Sololá	701	Sololá	1	Sololá	7	Julio	2023-05-07T00:00:00	2024-11-08T17:00:00	5	Humedad	93
33589	7	Sololá	701	Sololá	1	Sololá	7	Julio	2023-05-07T00:00:00	2024-11-08T17:00:00	6	Velocidad del viento	0
33590	7	Sololá	701	Sololá	1	Sololá	7	Julio	2023-05-07T00:00:00	2024-11-08T17:00:00	7	Dirección del viento	0
33591	7	Sololá	701	Sololá	1	Sololá	7	Julio	2023-05-07T00:00:00	2024-11-08T17:00:00	1	Precipitación	0
33592	7	Sololá	701	Sololá	1	Sololá	7	Julio	2023-05-07T00:00:00	2024-11-08T17:00:00	8	Radiación solar	52
33593	7	Sololá	701	Sololá	1	Sololá	7	Julio	2023-05-07T00:00:00	2024-11-08T18:00:00	2	Temperatura media	17.3
33594	7	Sololá	701	Sololá	1	Sololá	7	Julio	2023-05-07T00:00:00	2024-11-08T18:00:00	4	Temperatura máxima	18
33595	7	Sololá	701	Sololá	1	Sololá	7	Julio	2023-05-07T00:00:00	2024-11-08T18:00:00	3	Temperatura mínima	17.3
33596	7	Sololá	701	Sololá	1	Sololá	7	Julio	2023-05-07T00:00:00	2024-11-08T18:00:00	5	Humedad	93
33597	7	Sololá	701	Sololá	1	Sololá	7	Julio	2023-05-07T00:00:00	2024-11-08T18:00:00	6	Velocidad del viento	0
33598	7	Sololá	701	Sololá	1	Sololá	7	Julio	2023-05-07T00:00:00	2024-11-08T18:00:00	7	Dirección del viento	0
33599	7	Sololá	701	Sololá	1	Sololá	7	Julio	2023-05-07T00:00:00	2024-11-08T18:00:00	1	Precipitación	0
33600	7	Sololá	701	Sololá	1	Sololá	7	Julio	2023-05-07T00:00:00	2024-11-08T18:00:00	8	Radiación solar	27
33601	7	Sololá	701	Sololá	1	Sololá	7	Julio	2023-05-07T00:00:00	2024-11-08T19:00:00	2	Temperatura media	16.4
33602	7	Sololá	701	Sololá	1	Sololá	7	Julio	2023-05-07T00:00:00	2024-11-08T19:00:00	4	Temperatura máxima	17.4
33603	7	Sololá	701	Sololá	1	Sololá	7	Julio	2023-05-07T00:00:00	2024-11-08T19:00:00	3	Temperatura mínima	16.4
33604	7	Sololá	701	Sololá	1	Sololá	7	Julio	2023-05-07T00:00:00	2024-11-08T19:00:00	5	Humedad	94
33605	7	Sololá	701	Sololá	1	Sololá	7	Julio	2023-05-07T00:00:00	2024-11-08T19:00:00	6	Velocidad del viento	0
33606	7	Sololá	701	Sololá	1	Sololá	7	Julio	2023-05-07T00:00:00	2024-11-08T19:00:00	7	Dirección del viento	0
33607	7	Sololá	701	Sololá	1	Sololá	7	Julio	2023-05-07T00:00:00	2024-11-08T19:00:00	1	Precipitación	0
33608	7	Sololá	701	Sololá	1	Sololá	7	Julio	2023-05-07T00:00:00	2024-11-08T19:00:00	8	Radiación solar	0
33609	7	Sololá	701	Sololá	1	Sololá	7	Julio	2023-05-07T00:00:00	2024-11-08T20:00:00	2	Temperatura media	14.3
33610	7	Sololá	701	Sololá	1	Sololá	7	Julio	2023-05-07T00:00:00	2024-11-08T20:00:00	4	Temperatura máxima	16.4
33611	7	Sololá	701	Sololá	1	Sololá	7	Julio	2023-05-07T00:00:00	2024-11-08T20:00:00	3	Temperatura mínima	14.3
33612	7	Sololá	701	Sololá	1	Sololá	7	Julio	2023-05-07T00:00:00	2024-11-08T20:00:00	5	Humedad	85
33613	7	Sololá	701	Sololá	1	Sololá	7	Julio	2023-05-07T00:00:00	2024-11-08T20:00:00	6	Velocidad del viento	0
33614	7	Sololá	701	Sololá	1	Sololá	7	Julio	2023-05-07T00:00:00	2024-11-08T20:00:00	7	Dirección del viento	0
33615	7	Sololá	701	Sololá	1	Sololá	7	Julio	2023-05-07T00:00:00	2024-11-08T20:00:00	1	Precipitación	0
33616	7	Sololá	701	Sololá	1	Sololá	7	Julio	2023-05-07T00:00:00	2024-11-08T20:00:00	8	Radiación solar	0
33617	7	Sololá	701	Sololá	1	Sololá	7	Julio	2023-05-07T00:00:00	2024-11-08T21:00:00	2	Temperatura media	14.8
33618	7	Sololá	701	Sololá	1	Sololá	7	Julio	2023-05-07T00:00:00	2024-11-08T21:00:00	4	Temperatura máxima	14.8
33619	7	Sololá	701	Sololá	1	Sololá	7	Julio	2023-05-07T00:00:00	2024-11-08T21:00:00	3	Temperatura mínima	14.3
33620	7	Sololá	701	Sololá	1	Sololá	7	Julio	2023-05-07T00:00:00	2024-11-08T21:00:00	5	Humedad	88
33621	7	Sololá	701	Sololá	1	Sololá	7	Julio	2023-05-07T00:00:00	2024-11-08T21:00:00	6	Velocidad del viento	0
33622	7	Sololá	701	Sololá	1	Sololá	7	Julio	2023-05-07T00:00:00	2024-11-08T21:00:00	7	Dirección del viento	0
33623	7	Sololá	701	Sololá	1	Sololá	7	Julio	2023-05-07T00:00:00	2024-11-08T21:00:00	1	Precipitación	0
33624	7	Sololá	701	Sololá	1	Sololá	7	Julio	2023-05-07T00:00:00	2024-11-08T21:00:00	8	Radiación solar	0
33625	7	Sololá	701	Sololá	1	Sololá	7	Julio	2023-05-07T00:00:00	2024-11-08T22:00:00	2	Temperatura media	15.1
33626	7	Sololá	701	Sololá	1	Sololá	7	Julio	2023-05-07T00:00:00	2024-11-08T22:00:00	4	Temperatura máxima	15.1
33627	7	Sololá	701	Sololá	1	Sololá	7	Julio	2023-05-07T00:00:00	2024-11-08T22:00:00	3	Temperatura mínima	14.8
33628	7	Sololá	701	Sololá	1	Sololá	7	Julio	2023-05-07T00:00:00	2024-11-08T22:00:00	5	Humedad	91
33629	7	Sololá	701	Sololá	1	Sololá	7	Julio	2023-05-07T00:00:00	2024-11-08T22:00:00	6	Velocidad del viento	0
33630	7	Sololá	701	Sololá	1	Sololá	7	Julio	2023-05-07T00:00:00	2024-11-08T22:00:00	7	Dirección del viento	0
33631	7	Sololá	701	Sololá	1	Sololá	7	Julio	2023-05-07T00:00:00	2024-11-08T22:00:00	1	Precipitación	0
33632	7	Sololá	701	Sololá	1	Sololá	7	Julio	2023-05-07T00:00:00	2024-11-08T22:00:00	8	Radiación solar	0
33633	7	Sololá	701	Sololá	1	Sololá	7	Julio	2023-05-07T00:00:00	2024-11-08T23:00:00	2	Temperatura media	14.8
33634	7	Sololá	701	Sololá	1	Sololá	7	Julio	2023-05-07T00:00:00	2024-11-08T23:00:00	4	Temperatura máxima	15.1
33635	7	Sololá	701	Sololá	1	Sololá	7	Julio	2023-05-07T00:00:00	2024-11-08T23:00:00	3	Temperatura mínima	14.8
33636	7	Sololá	701	Sololá	1	Sololá	7	Julio	2023-05-07T00:00:00	2024-11-08T23:00:00	5	Humedad	90
33637	7	Sololá	701	Sololá	1	Sololá	7	Julio	2023-05-07T00:00:00	2024-11-08T23:00:00	6	Velocidad del viento	0
33638	7	Sololá	701	Sololá	1	Sololá	7	Julio	2023-05-07T00:00:00	2024-11-08T23:00:00	7	Dirección del viento	0
33639	7	Sololá	701	Sololá	1	Sololá	7	Julio	2023-05-07T00:00:00	2024-11-08T23:00:00	1	Precipitación	0
33640	7	Sololá	701	Sololá	1	Sololá	7	Julio	2023-05-07T00:00:00	2024-11-08T23:00:00	8	Radiación solar	0
33641	7	Sololá	701	Sololá	1	Sololá	7	Julio	2023-06-07T00:00:00	2024-11-08T00:00:00	2	Temperatura media	14.8
33642	7	Sololá	701	Sololá	1	Sololá	7	Julio	2023-06-07T00:00:00	2024-11-08T00:00:00	4	Temperatura máxima	14.9
33643	7	Sololá	701	Sololá	1	Sololá	7	Julio	2023-06-07T00:00:00	2024-11-08T00:00:00	3	Temperatura mínima	14.7
33644	7	Sololá	701	Sololá	1	Sololá	7	Julio	2023-06-07T00:00:00	2024-11-08T00:00:00	5	Humedad	90
33645	7	Sololá	701	Sololá	1	Sololá	7	Julio	2023-06-07T00:00:00	2024-11-08T00:00:00	6	Velocidad del viento	0
33646	7	Sololá	701	Sololá	1	Sololá	7	Julio	2023-06-07T00:00:00	2024-11-08T00:00:00	7	Dirección del viento	0
33647	7	Sololá	701	Sololá	1	Sololá	7	Julio	2023-06-07T00:00:00	2024-11-08T00:00:00	1	Precipitación	0
33648	7	Sololá	701	Sololá	1	Sololá	7	Julio	2023-06-07T00:00:00	2024-11-08T00:00:00	8	Radiación solar	0
33649	7	Sololá	701	Sololá	1	Sololá	7	Julio	2023-06-07T00:00:00	2024-11-08T01:00:00	2	Temperatura media	14.7
33650	7	Sololá	701	Sololá	1	Sololá	7	Julio	2023-06-07T00:00:00	2024-11-08T01:00:00	4	Temperatura máxima	14.8
33651	7	Sololá	701	Sololá	1	Sololá	7	Julio	2023-06-07T00:00:00	2024-11-08T01:00:00	3	Temperatura mínima	14.4
33652	7	Sololá	701	Sololá	1	Sololá	7	Julio	2023-06-07T00:00:00	2024-11-08T01:00:00	5	Humedad	88
33653	7	Sololá	701	Sololá	1	Sololá	7	Julio	2023-06-07T00:00:00	2024-11-08T01:00:00	6	Velocidad del viento	0
33654	7	Sololá	701	Sololá	1	Sololá	7	Julio	2023-06-07T00:00:00	2024-11-08T01:00:00	7	Dirección del viento	0
33655	7	Sololá	701	Sololá	1	Sololá	7	Julio	2023-06-07T00:00:00	2024-11-08T01:00:00	1	Precipitación	0
33656	7	Sololá	701	Sololá	1	Sololá	7	Julio	2023-06-07T00:00:00	2024-11-08T01:00:00	8	Radiación solar	0
33657	7	Sololá	701	Sololá	1	Sololá	7	Julio	2023-06-07T00:00:00	2024-11-08T02:00:00	2	Temperatura media	14
33658	7	Sololá	701	Sololá	1	Sololá	7	Julio	2023-06-07T00:00:00	2024-11-08T02:00:00	4	Temperatura máxima	14.8
33659	7	Sololá	701	Sololá	1	Sololá	7	Julio	2023-06-07T00:00:00	2024-11-08T02:00:00	3	Temperatura mínima	14
33660	7	Sololá	701	Sololá	1	Sololá	7	Julio	2023-06-07T00:00:00	2024-11-08T02:00:00	5	Humedad	88
33661	7	Sololá	701	Sololá	1	Sololá	7	Julio	2023-06-07T00:00:00	2024-11-08T02:00:00	6	Velocidad del viento	0
33662	7	Sololá	701	Sololá	1	Sololá	7	Julio	2023-06-07T00:00:00	2024-11-08T02:00:00	7	Dirección del viento	0
33663	7	Sololá	701	Sololá	1	Sololá	7	Julio	2023-06-07T00:00:00	2024-11-08T02:00:00	1	Precipitación	0
33664	7	Sololá	701	Sololá	1	Sololá	7	Julio	2023-06-07T00:00:00	2024-11-08T02:00:00	8	Radiación solar	0
33665	7	Sololá	701	Sololá	1	Sololá	7	Julio	2023-06-07T00:00:00	2024-11-08T03:00:00	2	Temperatura media	13.1
33666	7	Sololá	701	Sololá	1	Sololá	7	Julio	2023-06-07T00:00:00	2024-11-08T03:00:00	4	Temperatura máxima	14
33667	7	Sololá	701	Sololá	1	Sololá	7	Julio	2023-06-07T00:00:00	2024-11-08T03:00:00	3	Temperatura mínima	13.1
33668	7	Sololá	701	Sololá	1	Sololá	7	Julio	2023-06-07T00:00:00	2024-11-08T03:00:00	5	Humedad	89
33669	7	Sololá	701	Sololá	1	Sololá	7	Julio	2023-06-07T00:00:00	2024-11-08T03:00:00	6	Velocidad del viento	0
33670	7	Sololá	701	Sololá	1	Sololá	7	Julio	2023-06-07T00:00:00	2024-11-08T03:00:00	7	Dirección del viento	0
33671	7	Sololá	701	Sololá	1	Sololá	7	Julio	2023-06-07T00:00:00	2024-11-08T03:00:00	1	Precipitación	0
33672	7	Sololá	701	Sololá	1	Sololá	7	Julio	2023-06-07T00:00:00	2024-11-08T03:00:00	8	Radiación solar	0
33673	7	Sololá	701	Sololá	1	Sololá	7	Julio	2023-06-07T00:00:00	2024-11-08T04:00:00	2	Temperatura media	13.2
33674	7	Sololá	701	Sololá	1	Sololá	7	Julio	2023-06-07T00:00:00	2024-11-08T04:00:00	4	Temperatura máxima	13.2
33675	7	Sololá	701	Sololá	1	Sololá	7	Julio	2023-06-07T00:00:00	2024-11-08T04:00:00	3	Temperatura mínima	12.9
33676	7	Sololá	701	Sololá	1	Sololá	7	Julio	2023-06-07T00:00:00	2024-11-08T04:00:00	5	Humedad	87
33677	7	Sololá	701	Sololá	1	Sololá	7	Julio	2023-06-07T00:00:00	2024-11-08T04:00:00	6	Velocidad del viento	0
33678	7	Sololá	701	Sololá	1	Sololá	7	Julio	2023-06-07T00:00:00	2024-11-08T04:00:00	7	Dirección del viento	0
33679	7	Sololá	701	Sololá	1	Sololá	7	Julio	2023-06-07T00:00:00	2024-11-08T04:00:00	1	Precipitación	0
33680	7	Sololá	701	Sololá	1	Sololá	7	Julio	2023-06-07T00:00:00	2024-11-08T04:00:00	8	Radiación solar	0
33681	7	Sololá	701	Sololá	1	Sololá	7	Julio	2023-06-07T00:00:00	2024-11-08T05:00:00	2	Temperatura media	12.2
33682	7	Sololá	701	Sololá	1	Sololá	7	Julio	2023-06-07T00:00:00	2024-11-08T05:00:00	4	Temperatura máxima	13.2
33683	7	Sololá	701	Sololá	1	Sololá	7	Julio	2023-06-07T00:00:00	2024-11-08T05:00:00	3	Temperatura mínima	12.2
33684	7	Sololá	701	Sololá	1	Sololá	7	Julio	2023-06-07T00:00:00	2024-11-08T05:00:00	5	Humedad	92
33685	7	Sololá	701	Sololá	1	Sololá	7	Julio	2023-06-07T00:00:00	2024-11-08T05:00:00	6	Velocidad del viento	0
33686	7	Sololá	701	Sololá	1	Sololá	7	Julio	2023-06-07T00:00:00	2024-11-08T05:00:00	7	Dirección del viento	0
33687	7	Sololá	701	Sololá	1	Sololá	7	Julio	2023-06-07T00:00:00	2024-11-08T05:00:00	1	Precipitación	0
33688	7	Sololá	701	Sololá	1	Sololá	7	Julio	2023-06-07T00:00:00	2024-11-08T05:00:00	8	Radiación solar	0
33689	7	Sololá	701	Sololá	1	Sololá	7	Julio	2023-06-07T00:00:00	2024-11-08T06:00:00	2	Temperatura media	12.7
33690	7	Sololá	701	Sololá	1	Sololá	7	Julio	2023-06-07T00:00:00	2024-11-08T06:00:00	4	Temperatura máxima	12.7
33691	7	Sololá	701	Sololá	1	Sololá	7	Julio	2023-06-07T00:00:00	2024-11-08T06:00:00	3	Temperatura mínima	12.2
33692	7	Sololá	701	Sololá	1	Sololá	7	Julio	2023-06-07T00:00:00	2024-11-08T06:00:00	5	Humedad	92
33693	7	Sololá	701	Sololá	1	Sololá	7	Julio	2023-06-07T00:00:00	2024-11-08T06:00:00	6	Velocidad del viento	0
33694	7	Sololá	701	Sololá	1	Sololá	7	Julio	2023-06-07T00:00:00	2024-11-08T06:00:00	7	Dirección del viento	0
33695	7	Sololá	701	Sololá	1	Sololá	7	Julio	2023-06-07T00:00:00	2024-11-08T06:00:00	1	Precipitación	0
33696	7	Sololá	701	Sololá	1	Sololá	7	Julio	2023-06-07T00:00:00	2024-11-08T06:00:00	8	Radiación solar	1
33697	7	Sololá	701	Sololá	1	Sololá	7	Julio	2023-06-07T00:00:00	2024-11-08T07:00:00	2	Temperatura media	13.5
33698	7	Sololá	701	Sololá	1	Sololá	7	Julio	2023-06-07T00:00:00	2024-11-08T07:00:00	4	Temperatura máxima	13.5
33699	7	Sololá	701	Sololá	1	Sololá	7	Julio	2023-06-07T00:00:00	2024-11-08T07:00:00	3	Temperatura mínima	12.7
33700	7	Sololá	701	Sololá	1	Sololá	7	Julio	2023-06-07T00:00:00	2024-11-08T07:00:00	5	Humedad	92
33701	7	Sololá	701	Sololá	1	Sololá	7	Julio	2023-06-07T00:00:00	2024-11-08T07:00:00	6	Velocidad del viento	0
33702	7	Sololá	701	Sololá	1	Sololá	7	Julio	2023-06-07T00:00:00	2024-11-08T07:00:00	7	Dirección del viento	0
33703	7	Sololá	701	Sololá	1	Sololá	7	Julio	2023-06-07T00:00:00	2024-11-08T07:00:00	1	Precipitación	0
33704	7	Sololá	701	Sololá	1	Sololá	7	Julio	2023-06-07T00:00:00	2024-11-08T07:00:00	8	Radiación solar	11
33705	7	Sololá	701	Sololá	1	Sololá	7	Julio	2023-06-07T00:00:00	2024-11-08T08:00:00	2	Temperatura media	15.5
33706	7	Sololá	701	Sololá	1	Sololá	7	Julio	2023-06-07T00:00:00	2024-11-08T08:00:00	4	Temperatura máxima	15.5
33707	7	Sololá	701	Sololá	1	Sololá	7	Julio	2023-06-07T00:00:00	2024-11-08T08:00:00	3	Temperatura mínima	13.4
33708	7	Sololá	701	Sololá	1	Sololá	7	Julio	2023-06-07T00:00:00	2024-11-08T08:00:00	5	Humedad	86
33709	7	Sololá	701	Sololá	1	Sololá	7	Julio	2023-06-07T00:00:00	2024-11-08T08:00:00	6	Velocidad del viento	0
33710	7	Sololá	701	Sololá	1	Sololá	7	Julio	2023-06-07T00:00:00	2024-11-08T08:00:00	7	Dirección del viento	0
33711	7	Sololá	701	Sololá	1	Sololá	7	Julio	2023-06-07T00:00:00	2024-11-08T08:00:00	1	Precipitación	0
33712	7	Sololá	701	Sololá	1	Sololá	7	Julio	2023-06-07T00:00:00	2024-11-08T08:00:00	8	Radiación solar	36
33713	7	Sololá	701	Sololá	1	Sololá	7	Julio	2023-06-07T00:00:00	2024-11-08T09:00:00	2	Temperatura media	20.3
33714	7	Sololá	701	Sololá	1	Sololá	7	Julio	2023-06-07T00:00:00	2024-11-08T09:00:00	4	Temperatura máxima	20.3
33715	7	Sololá	701	Sololá	1	Sololá	7	Julio	2023-06-07T00:00:00	2024-11-08T09:00:00	3	Temperatura mínima	15.5
33716	7	Sololá	701	Sololá	1	Sololá	7	Julio	2023-06-07T00:00:00	2024-11-08T09:00:00	5	Humedad	72
33717	7	Sololá	701	Sololá	1	Sololá	7	Julio	2023-06-07T00:00:00	2024-11-08T09:00:00	6	Velocidad del viento	0
33718	7	Sololá	701	Sololá	1	Sololá	7	Julio	2023-06-07T00:00:00	2024-11-08T09:00:00	7	Dirección del viento	0
33719	7	Sololá	701	Sololá	1	Sololá	7	Julio	2023-06-07T00:00:00	2024-11-08T09:00:00	1	Precipitación	0
33720	7	Sololá	701	Sololá	1	Sololá	7	Julio	2023-06-07T00:00:00	2024-11-08T09:00:00	8	Radiación solar	431
33721	7	Sololá	701	Sololá	1	Sololá	7	Julio	2023-06-07T00:00:00	2024-11-08T10:00:00	2	Temperatura media	21.3
33722	7	Sololá	701	Sololá	1	Sololá	7	Julio	2023-06-07T00:00:00	2024-11-08T10:00:00	4	Temperatura máxima	21.3
33723	7	Sololá	701	Sololá	1	Sololá	7	Julio	2023-06-07T00:00:00	2024-11-08T10:00:00	3	Temperatura mínima	20.4
33724	7	Sololá	701	Sololá	1	Sololá	7	Julio	2023-06-07T00:00:00	2024-11-08T10:00:00	5	Humedad	73
33725	7	Sololá	701	Sololá	1	Sololá	7	Julio	2023-06-07T00:00:00	2024-11-08T10:00:00	6	Velocidad del viento	0
33726	7	Sololá	701	Sololá	1	Sololá	7	Julio	2023-06-07T00:00:00	2024-11-08T10:00:00	7	Dirección del viento	0
33727	7	Sololá	701	Sololá	1	Sololá	7	Julio	2023-06-07T00:00:00	2024-11-08T10:00:00	1	Precipitación	0
33728	7	Sololá	701	Sololá	1	Sololá	7	Julio	2023-06-07T00:00:00	2024-11-08T10:00:00	8	Radiación solar	528
33729	7	Sololá	701	Sololá	1	Sololá	7	Julio	2023-06-07T00:00:00	2024-11-08T11:00:00	2	Temperatura media	21.2
33730	7	Sololá	701	Sololá	1	Sololá	7	Julio	2023-06-07T00:00:00	2024-11-08T11:00:00	4	Temperatura máxima	21.8
33731	7	Sololá	701	Sololá	1	Sololá	7	Julio	2023-06-07T00:00:00	2024-11-08T11:00:00	3	Temperatura mínima	21.2
33732	7	Sololá	701	Sololá	1	Sololá	7	Julio	2023-06-07T00:00:00	2024-11-08T11:00:00	5	Humedad	73
33733	7	Sololá	701	Sololá	1	Sololá	7	Julio	2023-06-07T00:00:00	2024-11-08T11:00:00	6	Velocidad del viento	0
33734	7	Sololá	701	Sololá	1	Sololá	7	Julio	2023-06-07T00:00:00	2024-11-08T11:00:00	7	Dirección del viento	0
33735	7	Sololá	701	Sololá	1	Sololá	7	Julio	2023-06-07T00:00:00	2024-11-08T11:00:00	1	Precipitación	0
33736	7	Sololá	701	Sololá	1	Sololá	7	Julio	2023-06-07T00:00:00	2024-11-08T11:00:00	8	Radiación solar	244
33737	7	Sololá	701	Sololá	1	Sololá	7	Julio	2023-06-07T00:00:00	2024-11-08T12:00:00	2	Temperatura media	21.1
33738	7	Sololá	701	Sololá	1	Sololá	7	Julio	2023-06-07T00:00:00	2024-11-08T12:00:00	4	Temperatura máxima	21.3
33739	7	Sololá	701	Sololá	1	Sololá	7	Julio	2023-06-07T00:00:00	2024-11-08T12:00:00	3	Temperatura mínima	20.8
33740	7	Sololá	701	Sololá	1	Sololá	7	Julio	2023-06-07T00:00:00	2024-11-08T12:00:00	5	Humedad	82
33741	7	Sololá	701	Sololá	1	Sololá	7	Julio	2023-06-07T00:00:00	2024-11-08T12:00:00	6	Velocidad del viento	0
33742	7	Sololá	701	Sololá	1	Sololá	7	Julio	2023-06-07T00:00:00	2024-11-08T12:00:00	7	Dirección del viento	0
33743	7	Sololá	701	Sololá	1	Sololá	7	Julio	2023-06-07T00:00:00	2024-11-08T12:00:00	1	Precipitación	0
33744	7	Sololá	701	Sololá	1	Sololá	7	Julio	2023-06-07T00:00:00	2024-11-08T12:00:00	8	Radiación solar	201
33745	7	Sololá	701	Sololá	1	Sololá	7	Julio	2023-06-07T00:00:00	2024-11-08T13:00:00	2	Temperatura media	20.8
33746	7	Sololá	701	Sololá	1	Sololá	7	Julio	2023-06-07T00:00:00	2024-11-08T13:00:00	4	Temperatura máxima	21.2
33747	7	Sololá	701	Sololá	1	Sololá	7	Julio	2023-06-07T00:00:00	2024-11-08T13:00:00	3	Temperatura mínima	20.5
33748	7	Sololá	701	Sololá	1	Sololá	7	Julio	2023-06-07T00:00:00	2024-11-08T13:00:00	5	Humedad	85
33749	7	Sololá	701	Sololá	1	Sololá	7	Julio	2023-06-07T00:00:00	2024-11-08T13:00:00	6	Velocidad del viento	0
33750	7	Sololá	701	Sololá	1	Sololá	7	Julio	2023-06-07T00:00:00	2024-11-08T13:00:00	7	Dirección del viento	0
33751	7	Sololá	701	Sololá	1	Sololá	7	Julio	2023-06-07T00:00:00	2024-11-08T13:00:00	1	Precipitación	0
33752	7	Sololá	701	Sololá	1	Sololá	7	Julio	2023-06-07T00:00:00	2024-11-08T13:00:00	8	Radiación solar	169
33753	7	Sololá	701	Sololá	1	Sololá	7	Julio	2023-06-07T00:00:00	2024-11-08T14:00:00	2	Temperatura media	20.3
33754	7	Sololá	701	Sololá	1	Sololá	7	Julio	2023-06-07T00:00:00	2024-11-08T14:00:00	4	Temperatura máxima	21.4
33755	7	Sololá	701	Sololá	1	Sololá	7	Julio	2023-06-07T00:00:00	2024-11-08T14:00:00	3	Temperatura mínima	20.3
33756	7	Sololá	701	Sololá	1	Sololá	7	Julio	2023-06-07T00:00:00	2024-11-08T14:00:00	5	Humedad	86
33757	7	Sololá	701	Sololá	1	Sololá	7	Julio	2023-06-07T00:00:00	2024-11-08T14:00:00	6	Velocidad del viento	0
33758	7	Sololá	701	Sololá	1	Sololá	7	Julio	2023-06-07T00:00:00	2024-11-08T14:00:00	7	Dirección del viento	0
33759	7	Sololá	701	Sololá	1	Sololá	7	Julio	2023-06-07T00:00:00	2024-11-08T14:00:00	1	Precipitación	0
33760	7	Sololá	701	Sololá	1	Sololá	7	Julio	2023-06-07T00:00:00	2024-11-08T14:00:00	8	Radiación solar	122
33761	7	Sololá	701	Sololá	1	Sololá	7	Julio	2023-06-07T00:00:00	2024-11-08T15:00:00	2	Temperatura media	20.8
33762	7	Sololá	701	Sololá	1	Sololá	7	Julio	2023-06-07T00:00:00	2024-11-08T15:00:00	4	Temperatura máxima	21.2
33763	7	Sololá	701	Sololá	1	Sololá	7	Julio	2023-06-07T00:00:00	2024-11-08T15:00:00	3	Temperatura mínima	20.3
33764	7	Sololá	701	Sololá	1	Sololá	7	Julio	2023-06-07T00:00:00	2024-11-08T15:00:00	5	Humedad	85
33765	7	Sololá	701	Sololá	1	Sololá	7	Julio	2023-06-07T00:00:00	2024-11-08T15:00:00	6	Velocidad del viento	0
33766	7	Sololá	701	Sololá	1	Sololá	7	Julio	2023-06-07T00:00:00	2024-11-08T15:00:00	7	Dirección del viento	0
33767	7	Sololá	701	Sololá	1	Sololá	7	Julio	2023-06-07T00:00:00	2024-11-08T15:00:00	1	Precipitación	0
33768	7	Sololá	701	Sololá	1	Sololá	7	Julio	2023-06-07T00:00:00	2024-11-08T15:00:00	8	Radiación solar	159
33769	7	Sololá	701	Sololá	1	Sololá	7	Julio	2023-06-07T00:00:00	2024-11-08T16:00:00	2	Temperatura media	19.6
33770	7	Sololá	701	Sololá	1	Sololá	7	Julio	2023-06-07T00:00:00	2024-11-08T16:00:00	4	Temperatura máxima	20.8
33771	7	Sololá	701	Sololá	1	Sololá	7	Julio	2023-06-07T00:00:00	2024-11-08T16:00:00	3	Temperatura mínima	19.4
33772	7	Sololá	701	Sololá	1	Sololá	7	Julio	2023-06-07T00:00:00	2024-11-08T16:00:00	5	Humedad	89
33773	7	Sololá	701	Sololá	1	Sololá	7	Julio	2023-06-07T00:00:00	2024-11-08T16:00:00	6	Velocidad del viento	0
33774	7	Sololá	701	Sololá	1	Sololá	7	Julio	2023-06-07T00:00:00	2024-11-08T16:00:00	7	Dirección del viento	0
33775	7	Sololá	701	Sololá	1	Sololá	7	Julio	2023-06-07T00:00:00	2024-11-08T16:00:00	1	Precipitación	0
33776	7	Sololá	701	Sololá	1	Sololá	7	Julio	2023-06-07T00:00:00	2024-11-08T16:00:00	8	Radiación solar	136
33777	7	Sololá	701	Sololá	1	Sololá	7	Julio	2023-06-07T00:00:00	2024-11-08T17:00:00	2	Temperatura media	19.1
33778	7	Sololá	701	Sololá	1	Sololá	7	Julio	2023-06-07T00:00:00	2024-11-08T17:00:00	4	Temperatura máxima	19.6
33779	7	Sololá	701	Sololá	1	Sololá	7	Julio	2023-06-07T00:00:00	2024-11-08T17:00:00	3	Temperatura mínima	19.1
33780	7	Sololá	701	Sololá	1	Sololá	7	Julio	2023-06-07T00:00:00	2024-11-08T17:00:00	5	Humedad	90
33781	7	Sololá	701	Sololá	1	Sololá	7	Julio	2023-06-07T00:00:00	2024-11-08T17:00:00	6	Velocidad del viento	0
33782	7	Sololá	701	Sololá	1	Sololá	7	Julio	2023-06-07T00:00:00	2024-11-08T17:00:00	7	Dirección del viento	0
33783	7	Sololá	701	Sololá	1	Sololá	7	Julio	2023-06-07T00:00:00	2024-11-08T17:00:00	1	Precipitación	0
33784	7	Sololá	701	Sololá	1	Sololá	7	Julio	2023-06-07T00:00:00	2024-11-08T17:00:00	8	Radiación solar	78
33785	7	Sololá	701	Sololá	1	Sololá	7	Julio	2023-06-07T00:00:00	2024-11-08T18:00:00	2	Temperatura media	18
33786	7	Sololá	701	Sololá	1	Sololá	7	Julio	2023-06-07T00:00:00	2024-11-08T18:00:00	4	Temperatura máxima	19.1
33787	7	Sololá	701	Sololá	1	Sololá	7	Julio	2023-06-07T00:00:00	2024-11-08T18:00:00	3	Temperatura mínima	17.9
33788	7	Sololá	701	Sololá	1	Sololá	7	Julio	2023-06-07T00:00:00	2024-11-08T18:00:00	5	Humedad	93
33789	7	Sololá	701	Sololá	1	Sololá	7	Julio	2023-06-07T00:00:00	2024-11-08T18:00:00	6	Velocidad del viento	0
33790	7	Sololá	701	Sololá	1	Sololá	7	Julio	2023-06-07T00:00:00	2024-11-08T18:00:00	7	Dirección del viento	0
33791	7	Sololá	701	Sololá	1	Sololá	7	Julio	2023-06-07T00:00:00	2024-11-08T18:00:00	1	Precipitación	0
33792	7	Sololá	701	Sololá	1	Sololá	7	Julio	2023-06-07T00:00:00	2024-11-08T18:00:00	8	Radiación solar	32
33793	7	Sololá	701	Sololá	1	Sololá	7	Julio	2023-06-07T00:00:00	2024-11-08T19:00:00	2	Temperatura media	17.3
33794	7	Sololá	701	Sololá	1	Sololá	7	Julio	2023-06-07T00:00:00	2024-11-08T19:00:00	4	Temperatura máxima	18.1
33795	7	Sololá	701	Sololá	1	Sololá	7	Julio	2023-06-07T00:00:00	2024-11-08T19:00:00	3	Temperatura mínima	17.2
33796	7	Sololá	701	Sololá	1	Sololá	7	Julio	2023-06-07T00:00:00	2024-11-08T19:00:00	5	Humedad	93
33797	7	Sololá	701	Sololá	1	Sololá	7	Julio	2023-06-07T00:00:00	2024-11-08T19:00:00	6	Velocidad del viento	0
33798	7	Sololá	701	Sololá	1	Sololá	7	Julio	2023-06-07T00:00:00	2024-11-08T19:00:00	7	Dirección del viento	0
33799	7	Sololá	701	Sololá	1	Sololá	7	Julio	2023-06-07T00:00:00	2024-11-08T19:00:00	1	Precipitación	0
33800	7	Sololá	701	Sololá	1	Sololá	7	Julio	2023-06-07T00:00:00	2024-11-08T19:00:00	8	Radiación solar	0
33801	7	Sololá	701	Sololá	1	Sololá	7	Julio	2023-06-07T00:00:00	2024-11-08T20:00:00	2	Temperatura media	15.3
33802	7	Sololá	701	Sololá	1	Sololá	7	Julio	2023-06-07T00:00:00	2024-11-08T20:00:00	4	Temperatura máxima	17.3
33803	7	Sololá	701	Sololá	1	Sololá	7	Julio	2023-06-07T00:00:00	2024-11-08T20:00:00	3	Temperatura mínima	15.3
33804	7	Sololá	701	Sololá	1	Sololá	7	Julio	2023-06-07T00:00:00	2024-11-08T20:00:00	5	Humedad	91
33805	7	Sololá	701	Sololá	1	Sololá	7	Julio	2023-06-07T00:00:00	2024-11-08T20:00:00	6	Velocidad del viento	0
33806	7	Sololá	701	Sololá	1	Sololá	7	Julio	2023-06-07T00:00:00	2024-11-08T20:00:00	7	Dirección del viento	0
33807	7	Sololá	701	Sololá	1	Sololá	7	Julio	2023-06-07T00:00:00	2024-11-08T20:00:00	1	Precipitación	0
33808	7	Sololá	701	Sololá	1	Sololá	7	Julio	2023-06-07T00:00:00	2024-11-08T20:00:00	8	Radiación solar	0
33809	7	Sololá	701	Sololá	1	Sololá	7	Julio	2023-06-07T00:00:00	2024-11-08T21:00:00	2	Temperatura media	14.6
33810	7	Sololá	701	Sololá	1	Sololá	7	Julio	2023-06-07T00:00:00	2024-11-08T21:00:00	4	Temperatura máxima	15.3
33811	7	Sololá	701	Sololá	1	Sololá	7	Julio	2023-06-07T00:00:00	2024-11-08T21:00:00	3	Temperatura mínima	14.6
33812	7	Sololá	701	Sololá	1	Sololá	7	Julio	2023-06-07T00:00:00	2024-11-08T21:00:00	5	Humedad	91
33813	7	Sololá	701	Sololá	1	Sololá	7	Julio	2023-06-07T00:00:00	2024-11-08T21:00:00	6	Velocidad del viento	0
33814	7	Sololá	701	Sololá	1	Sololá	7	Julio	2023-06-07T00:00:00	2024-11-08T21:00:00	7	Dirección del viento	0
33815	7	Sololá	701	Sololá	1	Sololá	7	Julio	2023-06-07T00:00:00	2024-11-08T21:00:00	1	Precipitación	0
33816	7	Sololá	701	Sololá	1	Sololá	7	Julio	2023-06-07T00:00:00	2024-11-08T21:00:00	8	Radiación solar	0
33817	7	Sololá	701	Sololá	1	Sololá	7	Julio	2023-06-07T00:00:00	2024-11-08T22:00:00	2	Temperatura media	14.9
33818	7	Sololá	701	Sololá	1	Sololá	7	Julio	2023-06-07T00:00:00	2024-11-08T22:00:00	4	Temperatura máxima	14.9
33819	7	Sololá	701	Sololá	1	Sololá	7	Julio	2023-06-07T00:00:00	2024-11-08T22:00:00	3	Temperatura mínima	14.5
33820	7	Sololá	701	Sololá	1	Sololá	7	Julio	2023-06-07T00:00:00	2024-11-08T22:00:00	5	Humedad	90
33821	7	Sololá	701	Sololá	1	Sololá	7	Julio	2023-06-07T00:00:00	2024-11-08T22:00:00	6	Velocidad del viento	0
33822	7	Sololá	701	Sololá	1	Sololá	7	Julio	2023-06-07T00:00:00	2024-11-08T22:00:00	7	Dirección del viento	0
33823	7	Sololá	701	Sololá	1	Sololá	7	Julio	2023-06-07T00:00:00	2024-11-08T22:00:00	1	Precipitación	0
33824	7	Sololá	701	Sololá	1	Sololá	7	Julio	2023-06-07T00:00:00	2024-11-08T22:00:00	8	Radiación solar	0
33825	7	Sololá	701	Sololá	1	Sololá	7	Julio	2023-06-07T00:00:00	2024-11-08T23:00:00	2	Temperatura media	14.9
33826	7	Sololá	701	Sololá	1	Sololá	7	Julio	2023-06-07T00:00:00	2024-11-08T23:00:00	4	Temperatura máxima	15.1
33827	7	Sololá	701	Sololá	1	Sololá	7	Julio	2023-06-07T00:00:00	2024-11-08T23:00:00	3	Temperatura mínima	14.9
33828	7	Sololá	701	Sololá	1	Sololá	7	Julio	2023-06-07T00:00:00	2024-11-08T23:00:00	5	Humedad	89
33829	7	Sololá	701	Sololá	1	Sololá	7	Julio	2023-06-07T00:00:00	2024-11-08T23:00:00	6	Velocidad del viento	0
33830	7	Sololá	701	Sololá	1	Sololá	7	Julio	2023-06-07T00:00:00	2024-11-08T23:00:00	7	Dirección del viento	0
33831	7	Sololá	701	Sololá	1	Sololá	7	Julio	2023-06-07T00:00:00	2024-11-08T23:00:00	1	Precipitación	0
33832	7	Sololá	701	Sololá	1	Sololá	7	Julio	2023-06-07T00:00:00	2024-11-08T23:00:00	8	Radiación solar	0
33833	7	Sololá	701	Sololá	1	Sololá	7	Julio	2023-07-07T00:00:00	2024-11-08T00:00:00	2	Temperatura media	14.5
33834	7	Sololá	701	Sololá	1	Sololá	7	Julio	2023-07-07T00:00:00	2024-11-08T00:00:00	4	Temperatura máxima	14.9
33835	7	Sololá	701	Sololá	1	Sololá	7	Julio	2023-07-07T00:00:00	2024-11-08T00:00:00	3	Temperatura mínima	14.4
33836	7	Sololá	701	Sololá	1	Sololá	7	Julio	2023-07-07T00:00:00	2024-11-08T00:00:00	5	Humedad	89
33837	7	Sololá	701	Sololá	1	Sololá	7	Julio	2023-07-07T00:00:00	2024-11-08T00:00:00	6	Velocidad del viento	0
33838	7	Sololá	701	Sololá	1	Sololá	7	Julio	2023-07-07T00:00:00	2024-11-08T00:00:00	7	Dirección del viento	0
33839	7	Sololá	701	Sololá	1	Sololá	7	Julio	2023-07-07T00:00:00	2024-11-08T00:00:00	1	Precipitación	0
33840	7	Sololá	701	Sololá	1	Sololá	7	Julio	2023-07-07T00:00:00	2024-11-08T00:00:00	8	Radiación solar	0
33841	7	Sololá	701	Sololá	1	Sololá	7	Julio	2023-07-07T00:00:00	2024-11-08T01:00:00	2	Temperatura media	14.6
33842	7	Sololá	701	Sololá	1	Sololá	7	Julio	2023-07-07T00:00:00	2024-11-08T01:00:00	4	Temperatura máxima	14.6
33843	7	Sololá	701	Sololá	1	Sololá	7	Julio	2023-07-07T00:00:00	2024-11-08T01:00:00	3	Temperatura mínima	14.5
33844	7	Sololá	701	Sololá	1	Sololá	7	Julio	2023-07-07T00:00:00	2024-11-08T01:00:00	5	Humedad	89
33845	7	Sololá	701	Sololá	1	Sololá	7	Julio	2023-07-07T00:00:00	2024-11-08T01:00:00	6	Velocidad del viento	0
33846	7	Sololá	701	Sololá	1	Sololá	7	Julio	2023-07-07T00:00:00	2024-11-08T01:00:00	7	Dirección del viento	0
33847	7	Sololá	701	Sololá	1	Sololá	7	Julio	2023-07-07T00:00:00	2024-11-08T01:00:00	1	Precipitación	0
33848	7	Sololá	701	Sololá	1	Sololá	7	Julio	2023-07-07T00:00:00	2024-11-08T01:00:00	8	Radiación solar	0
33849	7	Sololá	701	Sololá	1	Sololá	7	Julio	2023-07-07T00:00:00	2024-11-08T02:00:00	2	Temperatura media	14.1
33850	7	Sololá	701	Sololá	1	Sololá	7	Julio	2023-07-07T00:00:00	2024-11-08T02:00:00	4	Temperatura máxima	14.6
33851	7	Sololá	701	Sololá	1	Sololá	7	Julio	2023-07-07T00:00:00	2024-11-08T02:00:00	3	Temperatura mínima	14.1
33852	7	Sololá	701	Sololá	1	Sololá	7	Julio	2023-07-07T00:00:00	2024-11-08T02:00:00	5	Humedad	89
33853	7	Sololá	701	Sololá	1	Sololá	7	Julio	2023-07-07T00:00:00	2024-11-08T02:00:00	6	Velocidad del viento	0
33854	7	Sololá	701	Sololá	1	Sololá	7	Julio	2023-07-07T00:00:00	2024-11-08T02:00:00	7	Dirección del viento	0
33855	7	Sololá	701	Sololá	1	Sololá	7	Julio	2023-07-07T00:00:00	2024-11-08T02:00:00	1	Precipitación	0
33856	7	Sololá	701	Sololá	1	Sololá	7	Julio	2023-07-07T00:00:00	2024-11-08T02:00:00	8	Radiación solar	0
33857	7	Sololá	701	Sololá	1	Sololá	7	Julio	2023-07-07T00:00:00	2024-11-08T03:00:00	2	Temperatura media	13.7
33858	7	Sololá	701	Sololá	1	Sololá	7	Julio	2023-07-07T00:00:00	2024-11-08T03:00:00	4	Temperatura máxima	14.1
33859	7	Sololá	701	Sololá	1	Sololá	7	Julio	2023-07-07T00:00:00	2024-11-08T03:00:00	3	Temperatura mínima	13.7
33860	7	Sololá	701	Sololá	1	Sololá	7	Julio	2023-07-07T00:00:00	2024-11-08T03:00:00	5	Humedad	89
33861	7	Sololá	701	Sololá	1	Sololá	7	Julio	2023-07-07T00:00:00	2024-11-08T03:00:00	6	Velocidad del viento	0
33862	7	Sololá	701	Sololá	1	Sololá	7	Julio	2023-07-07T00:00:00	2024-11-08T03:00:00	7	Dirección del viento	0
33863	7	Sololá	701	Sololá	1	Sololá	7	Julio	2023-07-07T00:00:00	2024-11-08T03:00:00	1	Precipitación	0
33864	7	Sololá	701	Sololá	1	Sololá	7	Julio	2023-07-07T00:00:00	2024-11-08T03:00:00	8	Radiación solar	0
33865	7	Sololá	701	Sololá	1	Sololá	7	Julio	2023-07-07T00:00:00	2024-11-08T04:00:00	2	Temperatura media	13.7
33866	7	Sololá	701	Sololá	1	Sololá	7	Julio	2023-07-07T00:00:00	2024-11-08T04:00:00	4	Temperatura máxima	13.9
33867	7	Sololá	701	Sololá	1	Sololá	7	Julio	2023-07-07T00:00:00	2024-11-08T04:00:00	3	Temperatura mínima	13.7
33868	7	Sololá	701	Sololá	1	Sololá	7	Julio	2023-07-07T00:00:00	2024-11-08T04:00:00	5	Humedad	88
33869	7	Sololá	701	Sololá	1	Sololá	7	Julio	2023-07-07T00:00:00	2024-11-08T04:00:00	6	Velocidad del viento	0
33870	7	Sololá	701	Sololá	1	Sololá	7	Julio	2023-07-07T00:00:00	2024-11-08T04:00:00	7	Dirección del viento	0
33871	7	Sololá	701	Sololá	1	Sololá	7	Julio	2023-07-07T00:00:00	2024-11-08T04:00:00	1	Precipitación	0
33872	7	Sololá	701	Sololá	1	Sololá	7	Julio	2023-07-07T00:00:00	2024-11-08T04:00:00	8	Radiación solar	0
33873	7	Sololá	701	Sololá	1	Sololá	7	Julio	2023-07-07T00:00:00	2024-11-08T05:00:00	2	Temperatura media	13.3
33874	7	Sololá	701	Sololá	1	Sololá	7	Julio	2023-07-07T00:00:00	2024-11-08T05:00:00	4	Temperatura máxima	13.7
33875	7	Sololá	701	Sololá	1	Sololá	7	Julio	2023-07-07T00:00:00	2024-11-08T05:00:00	3	Temperatura mínima	12.8
33876	7	Sololá	701	Sololá	1	Sololá	7	Julio	2023-07-07T00:00:00	2024-11-08T05:00:00	5	Humedad	86
33877	7	Sololá	701	Sololá	1	Sololá	7	Julio	2023-07-07T00:00:00	2024-11-08T05:00:00	6	Velocidad del viento	0
33878	7	Sololá	701	Sololá	1	Sololá	7	Julio	2023-07-07T00:00:00	2024-11-08T05:00:00	7	Dirección del viento	0
33879	7	Sololá	701	Sololá	1	Sololá	7	Julio	2023-07-07T00:00:00	2024-11-08T05:00:00	1	Precipitación	0
33880	7	Sololá	701	Sololá	1	Sololá	7	Julio	2023-07-07T00:00:00	2024-11-08T05:00:00	8	Radiación solar	0
33881	7	Sololá	701	Sololá	1	Sololá	7	Julio	2023-07-07T00:00:00	2024-11-08T06:00:00	2	Temperatura media	12.9
33882	7	Sololá	701	Sololá	1	Sololá	7	Julio	2023-07-07T00:00:00	2024-11-08T06:00:00	4	Temperatura máxima	13.4
33883	7	Sololá	701	Sololá	1	Sololá	7	Julio	2023-07-07T00:00:00	2024-11-08T06:00:00	3	Temperatura mínima	12.9
33884	7	Sololá	701	Sololá	1	Sololá	7	Julio	2023-07-07T00:00:00	2024-11-08T06:00:00	5	Humedad	90
33885	7	Sololá	701	Sololá	1	Sololá	7	Julio	2023-07-07T00:00:00	2024-11-08T06:00:00	6	Velocidad del viento	0
33886	7	Sololá	701	Sololá	1	Sololá	7	Julio	2023-07-07T00:00:00	2024-11-08T06:00:00	7	Dirección del viento	0
33887	7	Sololá	701	Sololá	1	Sololá	7	Julio	2023-07-07T00:00:00	2024-11-08T06:00:00	1	Precipitación	0
33888	7	Sololá	701	Sololá	1	Sololá	7	Julio	2023-07-07T00:00:00	2024-11-08T06:00:00	8	Radiación solar	2
33889	7	Sololá	701	Sololá	1	Sololá	7	Julio	2023-07-07T00:00:00	2024-11-08T07:00:00	2	Temperatura media	14.6
33890	7	Sololá	701	Sololá	1	Sololá	7	Julio	2023-07-07T00:00:00	2024-11-08T07:00:00	4	Temperatura máxima	14.6
33891	7	Sololá	701	Sololá	1	Sololá	7	Julio	2023-07-07T00:00:00	2024-11-08T07:00:00	3	Temperatura mínima	12.9
33892	7	Sololá	701	Sololá	1	Sololá	7	Julio	2023-07-07T00:00:00	2024-11-08T07:00:00	5	Humedad	87
33893	7	Sololá	701	Sololá	1	Sololá	7	Julio	2023-07-07T00:00:00	2024-11-08T07:00:00	6	Velocidad del viento	0
33894	7	Sololá	701	Sololá	1	Sololá	7	Julio	2023-07-07T00:00:00	2024-11-08T07:00:00	7	Dirección del viento	0
33895	7	Sololá	701	Sololá	1	Sololá	7	Julio	2023-07-07T00:00:00	2024-11-08T07:00:00	1	Precipitación	0
33896	7	Sololá	701	Sololá	1	Sololá	7	Julio	2023-07-07T00:00:00	2024-11-08T07:00:00	8	Radiación solar	34
33897	7	Sololá	701	Sololá	1	Sololá	7	Julio	2023-07-07T00:00:00	2024-11-08T08:00:00	2	Temperatura media	17.2
33898	7	Sololá	701	Sololá	1	Sololá	7	Julio	2023-07-07T00:00:00	2024-11-08T08:00:00	4	Temperatura máxima	17.2
33899	7	Sololá	701	Sololá	1	Sololá	7	Julio	2023-07-07T00:00:00	2024-11-08T08:00:00	3	Temperatura mínima	14.6
33900	7	Sololá	701	Sololá	1	Sololá	7	Julio	2023-07-07T00:00:00	2024-11-08T08:00:00	5	Humedad	78
33901	7	Sololá	701	Sololá	1	Sololá	7	Julio	2023-07-07T00:00:00	2024-11-08T08:00:00	6	Velocidad del viento	0
33902	7	Sololá	701	Sololá	1	Sololá	7	Julio	2023-07-07T00:00:00	2024-11-08T08:00:00	7	Dirección del viento	0
33903	7	Sololá	701	Sololá	1	Sololá	7	Julio	2023-07-07T00:00:00	2024-11-08T08:00:00	1	Precipitación	0
33904	7	Sololá	701	Sololá	1	Sololá	7	Julio	2023-07-07T00:00:00	2024-11-08T08:00:00	8	Radiación solar	88
33905	7	Sololá	701	Sololá	1	Sololá	7	Julio	2023-07-07T00:00:00	2024-11-08T09:00:00	2	Temperatura media	21.4
33906	7	Sololá	701	Sololá	1	Sololá	7	Julio	2023-07-07T00:00:00	2024-11-08T09:00:00	4	Temperatura máxima	21.4
33907	7	Sololá	701	Sololá	1	Sololá	7	Julio	2023-07-07T00:00:00	2024-11-08T09:00:00	3	Temperatura mínima	17.2
33908	7	Sololá	701	Sololá	1	Sololá	7	Julio	2023-07-07T00:00:00	2024-11-08T09:00:00	5	Humedad	68
33909	7	Sololá	701	Sololá	1	Sololá	7	Julio	2023-07-07T00:00:00	2024-11-08T09:00:00	6	Velocidad del viento	0
33910	7	Sololá	701	Sololá	1	Sololá	7	Julio	2023-07-07T00:00:00	2024-11-08T09:00:00	7	Dirección del viento	0
33911	7	Sololá	701	Sololá	1	Sololá	7	Julio	2023-07-07T00:00:00	2024-11-08T09:00:00	1	Precipitación	0
33912	7	Sololá	701	Sololá	1	Sololá	7	Julio	2023-07-07T00:00:00	2024-11-08T09:00:00	8	Radiación solar	428
33913	7	Sololá	701	Sololá	1	Sololá	7	Julio	2023-07-07T00:00:00	2024-11-08T10:00:00	2	Temperatura media	23.5
33914	7	Sololá	701	Sololá	1	Sololá	7	Julio	2023-07-07T00:00:00	2024-11-08T10:00:00	4	Temperatura máxima	23.5
33915	7	Sololá	701	Sololá	1	Sololá	7	Julio	2023-07-07T00:00:00	2024-11-08T10:00:00	3	Temperatura mínima	21.4
33916	7	Sololá	701	Sololá	1	Sololá	7	Julio	2023-07-07T00:00:00	2024-11-08T10:00:00	5	Humedad	60
33917	7	Sololá	701	Sololá	1	Sololá	7	Julio	2023-07-07T00:00:00	2024-11-08T10:00:00	6	Velocidad del viento	0
33918	7	Sololá	701	Sololá	1	Sololá	7	Julio	2023-07-07T00:00:00	2024-11-08T10:00:00	7	Dirección del viento	0
33919	7	Sololá	701	Sololá	1	Sololá	7	Julio	2023-07-07T00:00:00	2024-11-08T10:00:00	1	Precipitación	0
33920	7	Sololá	701	Sololá	1	Sololá	7	Julio	2023-07-07T00:00:00	2024-11-08T10:00:00	8	Radiación solar	780
33921	7	Sololá	701	Sololá	1	Sololá	7	Julio	2023-07-07T00:00:00	2024-11-08T11:00:00	2	Temperatura media	21.8
33922	7	Sololá	701	Sololá	1	Sololá	7	Julio	2023-07-07T00:00:00	2024-11-08T11:00:00	4	Temperatura máxima	23.8
33923	7	Sololá	701	Sololá	1	Sololá	7	Julio	2023-07-07T00:00:00	2024-11-08T11:00:00	3	Temperatura mínima	21.7
33924	7	Sololá	701	Sololá	1	Sololá	7	Julio	2023-07-07T00:00:00	2024-11-08T11:00:00	5	Humedad	77
33925	7	Sololá	701	Sololá	1	Sololá	7	Julio	2023-07-07T00:00:00	2024-11-08T11:00:00	6	Velocidad del viento	0
33926	7	Sololá	701	Sololá	1	Sololá	7	Julio	2023-07-07T00:00:00	2024-11-08T11:00:00	7	Dirección del viento	0
33927	7	Sololá	701	Sololá	1	Sololá	7	Julio	2023-07-07T00:00:00	2024-11-08T11:00:00	1	Precipitación	0
33928	7	Sololá	701	Sololá	1	Sololá	7	Julio	2023-07-07T00:00:00	2024-11-08T11:00:00	8	Radiación solar	844
33929	7	Sololá	701	Sololá	1	Sololá	7	Julio	2023-07-07T00:00:00	2024-11-08T12:00:00	2	Temperatura media	18.3
33930	7	Sololá	701	Sololá	1	Sololá	7	Julio	2023-07-07T00:00:00	2024-11-08T12:00:00	4	Temperatura máxima	21.8
33931	7	Sololá	701	Sololá	1	Sololá	7	Julio	2023-07-07T00:00:00	2024-11-08T12:00:00	3	Temperatura mínima	18.3
33932	7	Sololá	701	Sololá	1	Sololá	7	Julio	2023-07-07T00:00:00	2024-11-08T12:00:00	5	Humedad	89
33933	7	Sololá	701	Sololá	1	Sololá	7	Julio	2023-07-07T00:00:00	2024-11-08T12:00:00	6	Velocidad del viento	0
33934	7	Sololá	701	Sololá	1	Sololá	7	Julio	2023-07-07T00:00:00	2024-11-08T12:00:00	7	Dirección del viento	0
33935	7	Sololá	701	Sololá	1	Sololá	7	Julio	2023-07-07T00:00:00	2024-11-08T12:00:00	1	Precipitación	0
33936	7	Sololá	701	Sololá	1	Sololá	7	Julio	2023-07-07T00:00:00	2024-11-08T12:00:00	8	Radiación solar	101
33937	7	Sololá	701	Sololá	1	Sololá	7	Julio	2023-07-07T00:00:00	2024-11-08T13:00:00	2	Temperatura media	18.6
33938	7	Sololá	701	Sololá	1	Sololá	7	Julio	2023-07-07T00:00:00	2024-11-08T13:00:00	4	Temperatura máxima	18.6
33939	7	Sololá	701	Sololá	1	Sololá	7	Julio	2023-07-07T00:00:00	2024-11-08T13:00:00	3	Temperatura mínima	17.8
33940	7	Sololá	701	Sololá	1	Sololá	7	Julio	2023-07-07T00:00:00	2024-11-08T13:00:00	5	Humedad	89
33941	7	Sololá	701	Sololá	1	Sololá	7	Julio	2023-07-07T00:00:00	2024-11-08T13:00:00	6	Velocidad del viento	0
33942	7	Sololá	701	Sololá	1	Sololá	7	Julio	2023-07-07T00:00:00	2024-11-08T13:00:00	7	Dirección del viento	0
33943	7	Sololá	701	Sololá	1	Sololá	7	Julio	2023-07-07T00:00:00	2024-11-08T13:00:00	1	Precipitación	0
33944	7	Sololá	701	Sololá	1	Sololá	7	Julio	2023-07-07T00:00:00	2024-11-08T13:00:00	8	Radiación solar	119
33945	7	Sololá	701	Sololá	1	Sololá	7	Julio	2023-07-07T00:00:00	2024-11-08T14:00:00	2	Temperatura media	18.2
33946	7	Sololá	701	Sololá	1	Sololá	7	Julio	2023-07-07T00:00:00	2024-11-08T14:00:00	4	Temperatura máxima	18.9
33947	7	Sololá	701	Sololá	1	Sololá	7	Julio	2023-07-07T00:00:00	2024-11-08T14:00:00	3	Temperatura mínima	18.1
33948	7	Sololá	701	Sololá	1	Sololá	7	Julio	2023-07-07T00:00:00	2024-11-08T14:00:00	5	Humedad	91
33949	7	Sololá	701	Sololá	1	Sololá	7	Julio	2023-07-07T00:00:00	2024-11-08T14:00:00	6	Velocidad del viento	0
33950	7	Sololá	701	Sololá	1	Sololá	7	Julio	2023-07-07T00:00:00	2024-11-08T14:00:00	7	Dirección del viento	0
33951	7	Sololá	701	Sololá	1	Sololá	7	Julio	2023-07-07T00:00:00	2024-11-08T14:00:00	1	Precipitación	0
33952	7	Sololá	701	Sololá	1	Sololá	7	Julio	2023-07-07T00:00:00	2024-11-08T14:00:00	8	Radiación solar	125
33953	7	Sololá	701	Sololá	1	Sololá	7	Julio	2023-07-07T00:00:00	2024-11-08T15:00:00	2	Temperatura media	16.7
33954	7	Sololá	701	Sololá	1	Sololá	7	Julio	2023-07-07T00:00:00	2024-11-08T15:00:00	4	Temperatura máxima	18.1
33955	7	Sololá	701	Sololá	1	Sololá	7	Julio	2023-07-07T00:00:00	2024-11-08T15:00:00	3	Temperatura mínima	16.7
33956	7	Sololá	701	Sololá	1	Sololá	7	Julio	2023-07-07T00:00:00	2024-11-08T15:00:00	5	Humedad	94
33957	7	Sololá	701	Sololá	1	Sololá	7	Julio	2023-07-07T00:00:00	2024-11-08T15:00:00	6	Velocidad del viento	0
33958	7	Sololá	701	Sololá	1	Sololá	7	Julio	2023-07-07T00:00:00	2024-11-08T15:00:00	7	Dirección del viento	0
33959	7	Sololá	701	Sololá	1	Sololá	7	Julio	2023-07-07T00:00:00	2024-11-08T15:00:00	1	Precipitación	0
33960	7	Sololá	701	Sololá	1	Sololá	7	Julio	2023-07-07T00:00:00	2024-11-08T15:00:00	8	Radiación solar	19
33961	7	Sololá	701	Sololá	1	Sololá	7	Julio	2023-07-07T00:00:00	2024-11-08T16:00:00	2	Temperatura media	15.6
33962	7	Sololá	701	Sololá	1	Sololá	7	Julio	2023-07-07T00:00:00	2024-11-08T16:00:00	4	Temperatura máxima	16.7
33963	7	Sololá	701	Sololá	1	Sololá	7	Julio	2023-07-07T00:00:00	2024-11-08T16:00:00	3	Temperatura mínima	15.6
33964	7	Sololá	701	Sololá	1	Sololá	7	Julio	2023-07-07T00:00:00	2024-11-08T16:00:00	5	Humedad	94
33965	7	Sololá	701	Sololá	1	Sololá	7	Julio	2023-07-07T00:00:00	2024-11-08T16:00:00	6	Velocidad del viento	0
33966	7	Sololá	701	Sololá	1	Sololá	7	Julio	2023-07-07T00:00:00	2024-11-08T16:00:00	7	Dirección del viento	0
33967	7	Sololá	701	Sololá	1	Sololá	7	Julio	2023-07-07T00:00:00	2024-11-08T16:00:00	1	Precipitación	0.2
33968	7	Sololá	701	Sololá	1	Sololá	7	Julio	2023-07-07T00:00:00	2024-11-08T16:00:00	8	Radiación solar	2
33969	7	Sololá	701	Sololá	1	Sololá	7	Julio	2023-07-07T00:00:00	2024-11-08T17:00:00	2	Temperatura media	15.1
33970	7	Sololá	701	Sololá	1	Sololá	7	Julio	2023-07-07T00:00:00	2024-11-08T17:00:00	4	Temperatura máxima	15.6
33971	7	Sololá	701	Sololá	1	Sololá	7	Julio	2023-07-07T00:00:00	2024-11-08T17:00:00	3	Temperatura mínima	14.9
33972	7	Sololá	701	Sololá	1	Sololá	7	Julio	2023-07-07T00:00:00	2024-11-08T17:00:00	5	Humedad	96
33973	7	Sololá	701	Sololá	1	Sololá	7	Julio	2023-07-07T00:00:00	2024-11-08T17:00:00	6	Velocidad del viento	0
33974	7	Sololá	701	Sololá	1	Sololá	7	Julio	2023-07-07T00:00:00	2024-11-08T17:00:00	7	Dirección del viento	0
33975	7	Sololá	701	Sololá	1	Sololá	7	Julio	2023-07-07T00:00:00	2024-11-08T17:00:00	1	Precipitación	28.2
33976	7	Sololá	701	Sololá	1	Sololá	7	Julio	2023-07-07T00:00:00	2024-11-08T17:00:00	8	Radiación solar	0
33977	7	Sololá	701	Sololá	1	Sololá	7	Julio	2023-07-07T00:00:00	2024-11-08T18:00:00	2	Temperatura media	14.7
33978	7	Sololá	701	Sololá	1	Sololá	7	Julio	2023-07-07T00:00:00	2024-11-08T18:00:00	4	Temperatura máxima	15.2
33979	7	Sololá	701	Sololá	1	Sololá	7	Julio	2023-07-07T00:00:00	2024-11-08T18:00:00	3	Temperatura mínima	14.7
33980	7	Sololá	701	Sololá	1	Sololá	7	Julio	2023-07-07T00:00:00	2024-11-08T18:00:00	5	Humedad	96
33981	7	Sololá	701	Sololá	1	Sololá	7	Julio	2023-07-07T00:00:00	2024-11-08T18:00:00	6	Velocidad del viento	0
33982	7	Sololá	701	Sololá	1	Sololá	7	Julio	2023-07-07T00:00:00	2024-11-08T18:00:00	7	Dirección del viento	0
33983	7	Sololá	701	Sololá	1	Sololá	7	Julio	2023-07-07T00:00:00	2024-11-08T18:00:00	1	Precipitación	2.8
33984	7	Sololá	701	Sololá	1	Sololá	7	Julio	2023-07-07T00:00:00	2024-11-08T18:00:00	8	Radiación solar	0
33985	7	Sololá	701	Sololá	1	Sololá	7	Julio	2023-07-07T00:00:00	2024-11-08T19:00:00	2	Temperatura media	14.6
33986	7	Sololá	701	Sololá	1	Sololá	7	Julio	2023-07-07T00:00:00	2024-11-08T19:00:00	4	Temperatura máxima	14.8
33987	7	Sololá	701	Sololá	1	Sololá	7	Julio	2023-07-07T00:00:00	2024-11-08T19:00:00	3	Temperatura mínima	14.6
33988	7	Sololá	701	Sololá	1	Sololá	7	Julio	2023-07-07T00:00:00	2024-11-08T19:00:00	5	Humedad	97
33989	7	Sololá	701	Sololá	1	Sololá	7	Julio	2023-07-07T00:00:00	2024-11-08T19:00:00	6	Velocidad del viento	0
33990	7	Sololá	701	Sololá	1	Sololá	7	Julio	2023-07-07T00:00:00	2024-11-08T19:00:00	7	Dirección del viento	0
33991	7	Sololá	701	Sololá	1	Sololá	7	Julio	2023-07-07T00:00:00	2024-11-08T19:00:00	1	Precipitación	2.8
33992	7	Sololá	701	Sololá	1	Sololá	7	Julio	2023-07-07T00:00:00	2024-11-08T19:00:00	8	Radiación solar	0
33993	7	Sololá	701	Sololá	1	Sololá	7	Julio	2023-07-07T00:00:00	2024-11-08T20:00:00	2	Temperatura media	14.3
33994	7	Sololá	701	Sololá	1	Sololá	7	Julio	2023-07-07T00:00:00	2024-11-08T20:00:00	4	Temperatura máxima	14.6
33995	7	Sololá	701	Sololá	1	Sololá	7	Julio	2023-07-07T00:00:00	2024-11-08T20:00:00	3	Temperatura mínima	14.3
33996	7	Sololá	701	Sololá	1	Sololá	7	Julio	2023-07-07T00:00:00	2024-11-08T20:00:00	5	Humedad	97
33997	7	Sololá	701	Sololá	1	Sololá	7	Julio	2023-07-07T00:00:00	2024-11-08T20:00:00	6	Velocidad del viento	0
33998	7	Sololá	701	Sololá	1	Sololá	7	Julio	2023-07-07T00:00:00	2024-11-08T20:00:00	7	Dirección del viento	0
33999	7	Sololá	701	Sololá	1	Sololá	7	Julio	2023-07-07T00:00:00	2024-11-08T20:00:00	1	Precipitación	0
34000	7	Sololá	701	Sololá	1	Sololá	7	Julio	2023-07-07T00:00:00	2024-11-08T20:00:00	8	Radiación solar	0
34001	7	Sololá	701	Sololá	1	Sololá	7	Julio	2023-07-07T00:00:00	2024-11-08T21:00:00	2	Temperatura media	13.9
34002	7	Sololá	701	Sololá	1	Sololá	7	Julio	2023-07-07T00:00:00	2024-11-08T21:00:00	4	Temperatura máxima	14.3
34003	7	Sololá	701	Sololá	1	Sololá	7	Julio	2023-07-07T00:00:00	2024-11-08T21:00:00	3	Temperatura mínima	13.9
34004	7	Sololá	701	Sololá	1	Sololá	7	Julio	2023-07-07T00:00:00	2024-11-08T21:00:00	5	Humedad	97
34005	7	Sololá	701	Sololá	1	Sololá	7	Julio	2023-07-07T00:00:00	2024-11-08T21:00:00	6	Velocidad del viento	0
34006	7	Sololá	701	Sololá	1	Sololá	7	Julio	2023-07-07T00:00:00	2024-11-08T21:00:00	7	Dirección del viento	0
34007	7	Sololá	701	Sololá	1	Sololá	7	Julio	2023-07-07T00:00:00	2024-11-08T21:00:00	1	Precipitación	0
34008	7	Sololá	701	Sololá	1	Sololá	7	Julio	2023-07-07T00:00:00	2024-11-08T21:00:00	8	Radiación solar	0
34009	7	Sololá	701	Sololá	1	Sololá	7	Julio	2023-07-07T00:00:00	2024-11-08T22:00:00	2	Temperatura media	14.1
34010	7	Sololá	701	Sololá	1	Sololá	7	Julio	2023-07-07T00:00:00	2024-11-08T22:00:00	4	Temperatura máxima	14.1
34011	7	Sololá	701	Sololá	1	Sololá	7	Julio	2023-07-07T00:00:00	2024-11-08T22:00:00	3	Temperatura mínima	13.9
34012	7	Sololá	701	Sololá	1	Sololá	7	Julio	2023-07-07T00:00:00	2024-11-08T22:00:00	5	Humedad	97
34013	7	Sololá	701	Sololá	1	Sololá	7	Julio	2023-07-07T00:00:00	2024-11-08T22:00:00	6	Velocidad del viento	0
34014	7	Sololá	701	Sololá	1	Sololá	7	Julio	2023-07-07T00:00:00	2024-11-08T22:00:00	7	Dirección del viento	0
34015	7	Sololá	701	Sololá	1	Sololá	7	Julio	2023-07-07T00:00:00	2024-11-08T22:00:00	1	Precipitación	0
34016	7	Sololá	701	Sololá	1	Sololá	7	Julio	2023-07-07T00:00:00	2024-11-08T22:00:00	8	Radiación solar	0
34017	7	Sololá	701	Sololá	1	Sololá	7	Julio	2023-07-07T00:00:00	2024-11-08T23:00:00	2	Temperatura media	13.7
34018	7	Sololá	701	Sololá	1	Sololá	7	Julio	2023-07-07T00:00:00	2024-11-08T23:00:00	4	Temperatura máxima	14.1
34019	7	Sololá	701	Sololá	1	Sololá	7	Julio	2023-07-07T00:00:00	2024-11-08T23:00:00	3	Temperatura mínima	13.7
34020	7	Sololá	701	Sololá	1	Sololá	7	Julio	2023-07-07T00:00:00	2024-11-08T23:00:00	5	Humedad	97
34021	7	Sololá	701	Sololá	1	Sololá	7	Julio	2023-07-07T00:00:00	2024-11-08T23:00:00	6	Velocidad del viento	0
34022	7	Sololá	701	Sololá	1	Sololá	7	Julio	2023-07-07T00:00:00	2024-11-08T23:00:00	7	Dirección del viento	0
34023	7	Sololá	701	Sololá	1	Sololá	7	Julio	2023-07-07T00:00:00	2024-11-08T23:00:00	1	Precipitación	0
34024	7	Sololá	701	Sololá	1	Sololá	7	Julio	2023-07-07T00:00:00	2024-11-08T23:00:00	8	Radiación solar	0
34025	7	Sololá	701	Sololá	1	Sololá	7	Julio	2023-08-07T00:00:00	2024-11-08T00:00:00	2	Temperatura media	13.8
34026	7	Sololá	701	Sololá	1	Sololá	7	Julio	2023-08-07T00:00:00	2024-11-08T00:00:00	4	Temperatura máxima	13.8
34027	7	Sololá	701	Sololá	1	Sololá	7	Julio	2023-08-07T00:00:00	2024-11-08T00:00:00	3	Temperatura mínima	13.7
34028	7	Sololá	701	Sololá	1	Sololá	7	Julio	2023-08-07T00:00:00	2024-11-08T00:00:00	5	Humedad	97
34029	7	Sololá	701	Sololá	1	Sololá	7	Julio	2023-08-07T00:00:00	2024-11-08T00:00:00	6	Velocidad del viento	0
34030	7	Sololá	701	Sololá	1	Sololá	7	Julio	2023-08-07T00:00:00	2024-11-08T00:00:00	7	Dirección del viento	0
34031	7	Sololá	701	Sololá	1	Sololá	7	Julio	2023-08-07T00:00:00	2024-11-08T00:00:00	1	Precipitación	0
34032	7	Sololá	701	Sololá	1	Sololá	7	Julio	2023-08-07T00:00:00	2024-11-08T00:00:00	8	Radiación solar	0
34033	7	Sololá	701	Sololá	1	Sololá	7	Julio	2023-08-07T00:00:00	2024-11-08T01:00:00	2	Temperatura media	14
34034	7	Sololá	701	Sololá	1	Sololá	7	Julio	2023-08-07T00:00:00	2024-11-08T01:00:00	4	Temperatura máxima	14.1
34035	7	Sololá	701	Sololá	1	Sololá	7	Julio	2023-08-07T00:00:00	2024-11-08T01:00:00	3	Temperatura mínima	13.8
34036	7	Sololá	701	Sololá	1	Sololá	7	Julio	2023-08-07T00:00:00	2024-11-08T01:00:00	5	Humedad	97
34037	7	Sololá	701	Sololá	1	Sololá	7	Julio	2023-08-07T00:00:00	2024-11-08T01:00:00	6	Velocidad del viento	0
34038	7	Sololá	701	Sololá	1	Sololá	7	Julio	2023-08-07T00:00:00	2024-11-08T01:00:00	7	Dirección del viento	0
34039	7	Sololá	701	Sololá	1	Sololá	7	Julio	2023-08-07T00:00:00	2024-11-08T01:00:00	1	Precipitación	0
34040	7	Sololá	701	Sololá	1	Sololá	7	Julio	2023-08-07T00:00:00	2024-11-08T01:00:00	8	Radiación solar	0
34041	7	Sololá	701	Sololá	1	Sololá	7	Julio	2023-08-07T00:00:00	2024-11-08T02:00:00	2	Temperatura media	14
34042	7	Sololá	701	Sololá	1	Sololá	7	Julio	2023-08-07T00:00:00	2024-11-08T02:00:00	4	Temperatura máxima	14.1
34043	7	Sololá	701	Sololá	1	Sololá	7	Julio	2023-08-07T00:00:00	2024-11-08T02:00:00	3	Temperatura mínima	13.9
34044	7	Sololá	701	Sololá	1	Sololá	7	Julio	2023-08-07T00:00:00	2024-11-08T02:00:00	5	Humedad	97
34045	7	Sololá	701	Sololá	1	Sololá	7	Julio	2023-08-07T00:00:00	2024-11-08T02:00:00	6	Velocidad del viento	0
34046	7	Sololá	701	Sololá	1	Sololá	7	Julio	2023-08-07T00:00:00	2024-11-08T02:00:00	7	Dirección del viento	0
34047	7	Sololá	701	Sololá	1	Sololá	7	Julio	2023-08-07T00:00:00	2024-11-08T02:00:00	1	Precipitación	0.2
34048	7	Sololá	701	Sololá	1	Sololá	7	Julio	2023-08-07T00:00:00	2024-11-08T02:00:00	8	Radiación solar	0
34049	7	Sololá	701	Sololá	1	Sololá	7	Julio	2023-08-07T00:00:00	2024-11-08T03:00:00	2	Temperatura media	14.1
34050	7	Sololá	701	Sololá	1	Sololá	7	Julio	2023-08-07T00:00:00	2024-11-08T03:00:00	4	Temperatura máxima	14.2
34051	7	Sololá	701	Sololá	1	Sololá	7	Julio	2023-08-07T00:00:00	2024-11-08T03:00:00	3	Temperatura mínima	14
34052	7	Sololá	701	Sololá	1	Sololá	7	Julio	2023-08-07T00:00:00	2024-11-08T03:00:00	5	Humedad	97
34053	7	Sololá	701	Sololá	1	Sololá	7	Julio	2023-08-07T00:00:00	2024-11-08T03:00:00	6	Velocidad del viento	0
34054	7	Sololá	701	Sololá	1	Sololá	7	Julio	2023-08-07T00:00:00	2024-11-08T03:00:00	7	Dirección del viento	0
34055	7	Sololá	701	Sololá	1	Sololá	7	Julio	2023-08-07T00:00:00	2024-11-08T03:00:00	1	Precipitación	0
34056	7	Sololá	701	Sololá	1	Sololá	7	Julio	2023-08-07T00:00:00	2024-11-08T03:00:00	8	Radiación solar	0
34057	7	Sololá	701	Sololá	1	Sololá	7	Julio	2023-08-07T00:00:00	2024-11-08T04:00:00	2	Temperatura media	14.1
34058	7	Sololá	701	Sololá	1	Sololá	7	Julio	2023-08-07T00:00:00	2024-11-08T04:00:00	4	Temperatura máxima	14.2
34059	7	Sololá	701	Sololá	1	Sololá	7	Julio	2023-08-07T00:00:00	2024-11-08T04:00:00	3	Temperatura mínima	14.1
34060	7	Sololá	701	Sololá	1	Sololá	7	Julio	2023-08-07T00:00:00	2024-11-08T04:00:00	5	Humedad	97
34061	7	Sololá	701	Sololá	1	Sololá	7	Julio	2023-08-07T00:00:00	2024-11-08T04:00:00	6	Velocidad del viento	0
34062	7	Sololá	701	Sololá	1	Sololá	7	Julio	2023-08-07T00:00:00	2024-11-08T04:00:00	7	Dirección del viento	0
34063	7	Sololá	701	Sololá	1	Sololá	7	Julio	2023-08-07T00:00:00	2024-11-08T04:00:00	1	Precipitación	0
34064	7	Sololá	701	Sololá	1	Sololá	7	Julio	2023-08-07T00:00:00	2024-11-08T04:00:00	8	Radiación solar	0
34065	7	Sololá	701	Sololá	1	Sololá	7	Julio	2023-08-07T00:00:00	2024-11-08T05:00:00	2	Temperatura media	13.4
34066	7	Sololá	701	Sololá	1	Sololá	7	Julio	2023-08-07T00:00:00	2024-11-08T05:00:00	4	Temperatura máxima	14.1
34067	7	Sololá	701	Sololá	1	Sololá	7	Julio	2023-08-07T00:00:00	2024-11-08T05:00:00	3	Temperatura mínima	13.4
34068	7	Sololá	701	Sololá	1	Sololá	7	Julio	2023-08-07T00:00:00	2024-11-08T05:00:00	5	Humedad	97
34069	7	Sololá	701	Sololá	1	Sololá	7	Julio	2023-08-07T00:00:00	2024-11-08T05:00:00	6	Velocidad del viento	0
34070	7	Sololá	701	Sololá	1	Sololá	7	Julio	2023-08-07T00:00:00	2024-11-08T05:00:00	7	Dirección del viento	0
34071	7	Sololá	701	Sololá	1	Sololá	7	Julio	2023-08-07T00:00:00	2024-11-08T05:00:00	1	Precipitación	0
34072	7	Sololá	701	Sololá	1	Sololá	7	Julio	2023-08-07T00:00:00	2024-11-08T05:00:00	8	Radiación solar	0
34073	7	Sololá	701	Sololá	1	Sololá	7	Julio	2023-08-07T00:00:00	2024-11-08T06:00:00	2	Temperatura media	13.1
34074	7	Sololá	701	Sololá	1	Sololá	7	Julio	2023-08-07T00:00:00	2024-11-08T06:00:00	4	Temperatura máxima	13.4
34075	7	Sololá	701	Sololá	1	Sololá	7	Julio	2023-08-07T00:00:00	2024-11-08T06:00:00	3	Temperatura mínima	13.1
34076	7	Sololá	701	Sololá	1	Sololá	7	Julio	2023-08-07T00:00:00	2024-11-08T06:00:00	5	Humedad	97
34077	7	Sololá	701	Sololá	1	Sololá	7	Julio	2023-08-07T00:00:00	2024-11-08T06:00:00	6	Velocidad del viento	0
34078	7	Sololá	701	Sololá	1	Sololá	7	Julio	2023-08-07T00:00:00	2024-11-08T06:00:00	7	Dirección del viento	0
34079	7	Sololá	701	Sololá	1	Sololá	7	Julio	2023-08-07T00:00:00	2024-11-08T06:00:00	1	Precipitación	0
34080	7	Sololá	701	Sololá	1	Sololá	7	Julio	2023-08-07T00:00:00	2024-11-08T06:00:00	8	Radiación solar	0
34081	7	Sololá	701	Sololá	1	Sololá	7	Julio	2023-08-07T00:00:00	2024-11-08T07:00:00	2	Temperatura media	13.7
34082	7	Sololá	701	Sololá	1	Sololá	7	Julio	2023-08-07T00:00:00	2024-11-08T07:00:00	4	Temperatura máxima	13.7
34083	7	Sololá	701	Sololá	1	Sololá	7	Julio	2023-08-07T00:00:00	2024-11-08T07:00:00	3	Temperatura mínima	13.1
34084	7	Sololá	701	Sololá	1	Sololá	7	Julio	2023-08-07T00:00:00	2024-11-08T07:00:00	5	Humedad	98
34085	7	Sololá	701	Sololá	1	Sololá	7	Julio	2023-08-07T00:00:00	2024-11-08T07:00:00	6	Velocidad del viento	0
34086	7	Sololá	701	Sololá	1	Sololá	7	Julio	2023-08-07T00:00:00	2024-11-08T07:00:00	7	Dirección del viento	0
34087	7	Sololá	701	Sololá	1	Sololá	7	Julio	2023-08-07T00:00:00	2024-11-08T07:00:00	1	Precipitación	0
34088	7	Sololá	701	Sololá	1	Sololá	7	Julio	2023-08-07T00:00:00	2024-11-08T07:00:00	8	Radiación solar	16
34089	7	Sololá	701	Sololá	1	Sololá	7	Julio	2023-08-07T00:00:00	2024-11-08T08:00:00	2	Temperatura media	14.7
34090	7	Sololá	701	Sololá	1	Sololá	7	Julio	2023-08-07T00:00:00	2024-11-08T08:00:00	4	Temperatura máxima	14.7
34091	7	Sololá	701	Sololá	1	Sololá	7	Julio	2023-08-07T00:00:00	2024-11-08T08:00:00	3	Temperatura mínima	13.7
34092	7	Sololá	701	Sololá	1	Sololá	7	Julio	2023-08-07T00:00:00	2024-11-08T08:00:00	5	Humedad	98
34093	7	Sololá	701	Sololá	1	Sololá	7	Julio	2023-08-07T00:00:00	2024-11-08T08:00:00	6	Velocidad del viento	0
34094	7	Sololá	701	Sololá	1	Sololá	7	Julio	2023-08-07T00:00:00	2024-11-08T08:00:00	7	Dirección del viento	0
34095	7	Sololá	701	Sololá	1	Sololá	7	Julio	2023-08-07T00:00:00	2024-11-08T08:00:00	1	Precipitación	0
34096	7	Sololá	701	Sololá	1	Sololá	7	Julio	2023-08-07T00:00:00	2024-11-08T08:00:00	8	Radiación solar	40
34097	7	Sololá	701	Sololá	1	Sololá	7	Julio	2023-08-07T00:00:00	2024-11-08T09:00:00	2	Temperatura media	15.2
34098	7	Sololá	701	Sololá	1	Sololá	7	Julio	2023-08-07T00:00:00	2024-11-08T09:00:00	4	Temperatura máxima	15.2
34099	7	Sololá	701	Sololá	1	Sololá	7	Julio	2023-08-07T00:00:00	2024-11-08T09:00:00	3	Temperatura mínima	14.7
34100	7	Sololá	701	Sololá	1	Sololá	7	Julio	2023-08-07T00:00:00	2024-11-08T09:00:00	5	Humedad	98
34101	7	Sololá	701	Sololá	1	Sololá	7	Julio	2023-08-07T00:00:00	2024-11-08T09:00:00	6	Velocidad del viento	0
34102	7	Sololá	701	Sololá	1	Sololá	7	Julio	2023-08-07T00:00:00	2024-11-08T09:00:00	7	Dirección del viento	0
34103	7	Sololá	701	Sololá	1	Sololá	7	Julio	2023-08-07T00:00:00	2024-11-08T09:00:00	1	Precipitación	0
34104	7	Sololá	701	Sololá	1	Sololá	7	Julio	2023-08-07T00:00:00	2024-11-08T09:00:00	8	Radiación solar	59
34105	7	Sololá	701	Sololá	1	Sololá	7	Julio	2023-08-07T00:00:00	2024-11-08T10:00:00	2	Temperatura media	16.7
34106	7	Sololá	701	Sololá	1	Sololá	7	Julio	2023-08-07T00:00:00	2024-11-08T10:00:00	4	Temperatura máxima	16.7
34107	7	Sololá	701	Sololá	1	Sololá	7	Julio	2023-08-07T00:00:00	2024-11-08T10:00:00	3	Temperatura mínima	15.1
34108	7	Sololá	701	Sololá	1	Sololá	7	Julio	2023-08-07T00:00:00	2024-11-08T10:00:00	5	Humedad	97
34109	7	Sololá	701	Sololá	1	Sololá	7	Julio	2023-08-07T00:00:00	2024-11-08T10:00:00	6	Velocidad del viento	0
34110	7	Sololá	701	Sololá	1	Sololá	7	Julio	2023-08-07T00:00:00	2024-11-08T10:00:00	7	Dirección del viento	0
34111	7	Sololá	701	Sololá	1	Sololá	7	Julio	2023-08-07T00:00:00	2024-11-08T10:00:00	1	Precipitación	0
34112	7	Sololá	701	Sololá	1	Sololá	7	Julio	2023-08-07T00:00:00	2024-11-08T10:00:00	8	Radiación solar	159
34113	7	Sololá	701	Sololá	1	Sololá	7	Julio	2023-08-07T00:00:00	2024-11-08T11:00:00	2	Temperatura media	16.5
34114	7	Sololá	701	Sololá	1	Sololá	7	Julio	2023-08-07T00:00:00	2024-11-08T11:00:00	4	Temperatura máxima	17
34115	7	Sololá	701	Sololá	1	Sololá	7	Julio	2023-08-07T00:00:00	2024-11-08T11:00:00	3	Temperatura mínima	16.5
34116	7	Sololá	701	Sololá	1	Sololá	7	Julio	2023-08-07T00:00:00	2024-11-08T11:00:00	5	Humedad	93
34117	7	Sololá	701	Sololá	1	Sololá	7	Julio	2023-08-07T00:00:00	2024-11-08T11:00:00	6	Velocidad del viento	0
34118	7	Sololá	701	Sololá	1	Sololá	7	Julio	2023-08-07T00:00:00	2024-11-08T11:00:00	7	Dirección del viento	0
34119	7	Sololá	701	Sololá	1	Sololá	7	Julio	2023-08-07T00:00:00	2024-11-08T11:00:00	1	Precipitación	0
34120	7	Sololá	701	Sololá	1	Sololá	7	Julio	2023-08-07T00:00:00	2024-11-08T11:00:00	8	Radiación solar	105
34121	7	Sololá	701	Sololá	1	Sololá	7	Julio	2023-08-07T00:00:00	2024-11-08T12:00:00	2	Temperatura media	17.1
34122	7	Sololá	701	Sololá	1	Sololá	7	Julio	2023-08-07T00:00:00	2024-11-08T12:00:00	4	Temperatura máxima	17.1
34123	7	Sololá	701	Sololá	1	Sololá	7	Julio	2023-08-07T00:00:00	2024-11-08T12:00:00	3	Temperatura mínima	16.4
34124	7	Sololá	701	Sololá	1	Sololá	7	Julio	2023-08-07T00:00:00	2024-11-08T12:00:00	5	Humedad	94
34125	7	Sololá	701	Sololá	1	Sololá	7	Julio	2023-08-07T00:00:00	2024-11-08T12:00:00	6	Velocidad del viento	0
34126	7	Sololá	701	Sololá	1	Sololá	7	Julio	2023-08-07T00:00:00	2024-11-08T12:00:00	7	Dirección del viento	0
34127	7	Sololá	701	Sololá	1	Sololá	7	Julio	2023-08-07T00:00:00	2024-11-08T12:00:00	1	Precipitación	0
34128	7	Sololá	701	Sololá	1	Sololá	7	Julio	2023-08-07T00:00:00	2024-11-08T12:00:00	8	Radiación solar	96
34129	7	Sololá	701	Sololá	1	Sololá	7	Julio	2023-08-07T00:00:00	2024-11-08T13:00:00	2	Temperatura media	18.1
34130	7	Sololá	701	Sololá	1	Sololá	7	Julio	2023-08-07T00:00:00	2024-11-08T13:00:00	4	Temperatura máxima	18.2
34131	7	Sololá	701	Sololá	1	Sololá	7	Julio	2023-08-07T00:00:00	2024-11-08T13:00:00	3	Temperatura mínima	17.1
34132	7	Sololá	701	Sololá	1	Sololá	7	Julio	2023-08-07T00:00:00	2024-11-08T13:00:00	5	Humedad	92
34133	7	Sololá	701	Sololá	1	Sololá	7	Julio	2023-08-07T00:00:00	2024-11-08T13:00:00	6	Velocidad del viento	0
34134	7	Sololá	701	Sololá	1	Sololá	7	Julio	2023-08-07T00:00:00	2024-11-08T13:00:00	7	Dirección del viento	0
34135	7	Sololá	701	Sololá	1	Sololá	7	Julio	2023-08-07T00:00:00	2024-11-08T13:00:00	1	Precipitación	0
34136	7	Sololá	701	Sololá	1	Sololá	7	Julio	2023-08-07T00:00:00	2024-11-08T13:00:00	8	Radiación solar	166
34137	7	Sololá	701	Sololá	1	Sololá	7	Julio	2023-08-07T00:00:00	2024-11-08T14:00:00	2	Temperatura media	17.8
34138	7	Sololá	701	Sololá	1	Sololá	7	Julio	2023-08-07T00:00:00	2024-11-08T14:00:00	4	Temperatura máxima	18.1
34139	7	Sololá	701	Sololá	1	Sololá	7	Julio	2023-08-07T00:00:00	2024-11-08T14:00:00	3	Temperatura mínima	17.5
34140	7	Sololá	701	Sololá	1	Sololá	7	Julio	2023-08-07T00:00:00	2024-11-08T14:00:00	5	Humedad	89
34141	7	Sololá	701	Sololá	1	Sololá	7	Julio	2023-08-07T00:00:00	2024-11-08T14:00:00	6	Velocidad del viento	0
34142	7	Sololá	701	Sololá	1	Sololá	7	Julio	2023-08-07T00:00:00	2024-11-08T14:00:00	7	Dirección del viento	0
34143	7	Sololá	701	Sololá	1	Sololá	7	Julio	2023-08-07T00:00:00	2024-11-08T14:00:00	1	Precipitación	0
34144	7	Sololá	701	Sololá	1	Sololá	7	Julio	2023-08-07T00:00:00	2024-11-08T14:00:00	8	Radiación solar	106
34145	7	Sololá	701	Sololá	1	Sololá	7	Julio	2023-08-07T00:00:00	2024-11-08T15:00:00	2	Temperatura media	16.4
34146	7	Sololá	701	Sololá	1	Sololá	7	Julio	2023-08-07T00:00:00	2024-11-08T15:00:00	4	Temperatura máxima	18.1
34147	7	Sololá	701	Sololá	1	Sololá	7	Julio	2023-08-07T00:00:00	2024-11-08T15:00:00	3	Temperatura mínima	16.4
34148	7	Sololá	701	Sololá	1	Sololá	7	Julio	2023-08-07T00:00:00	2024-11-08T15:00:00	5	Humedad	94
34149	7	Sololá	701	Sololá	1	Sololá	7	Julio	2023-08-07T00:00:00	2024-11-08T15:00:00	6	Velocidad del viento	0
34150	7	Sololá	701	Sololá	1	Sololá	7	Julio	2023-08-07T00:00:00	2024-11-08T15:00:00	7	Dirección del viento	0
34151	7	Sololá	701	Sololá	1	Sololá	7	Julio	2023-08-07T00:00:00	2024-11-08T15:00:00	1	Precipitación	0.6
34152	7	Sololá	701	Sololá	1	Sololá	7	Julio	2023-08-07T00:00:00	2024-11-08T15:00:00	8	Radiación solar	54
34153	7	Sololá	701	Sololá	1	Sololá	7	Julio	2023-08-07T00:00:00	2024-11-08T16:00:00	2	Temperatura media	15.9
34154	7	Sololá	701	Sololá	1	Sololá	7	Julio	2023-08-07T00:00:00	2024-11-08T16:00:00	4	Temperatura máxima	16.4
34155	7	Sololá	701	Sololá	1	Sololá	7	Julio	2023-08-07T00:00:00	2024-11-08T16:00:00	3	Temperatura mínima	15.9
34156	7	Sololá	701	Sololá	1	Sololá	7	Julio	2023-08-07T00:00:00	2024-11-08T16:00:00	5	Humedad	96
34157	7	Sololá	701	Sololá	1	Sololá	7	Julio	2023-08-07T00:00:00	2024-11-08T16:00:00	6	Velocidad del viento	0
34158	7	Sololá	701	Sololá	1	Sololá	7	Julio	2023-08-07T00:00:00	2024-11-08T16:00:00	7	Dirección del viento	0
34159	7	Sololá	701	Sololá	1	Sololá	7	Julio	2023-08-07T00:00:00	2024-11-08T16:00:00	1	Precipitación	0.4
34160	7	Sololá	701	Sololá	1	Sololá	7	Julio	2023-08-07T00:00:00	2024-11-08T16:00:00	8	Radiación solar	33
34161	7	Sololá	701	Sololá	1	Sololá	7	Julio	2023-08-07T00:00:00	2024-11-08T17:00:00	2	Temperatura media	15.5
34162	7	Sololá	701	Sololá	1	Sololá	7	Julio	2023-08-07T00:00:00	2024-11-08T17:00:00	4	Temperatura máxima	15.9
34163	7	Sololá	701	Sololá	1	Sololá	7	Julio	2023-08-07T00:00:00	2024-11-08T17:00:00	3	Temperatura mínima	15.5
34164	7	Sololá	701	Sololá	1	Sololá	7	Julio	2023-08-07T00:00:00	2024-11-08T17:00:00	5	Humedad	96
34165	7	Sololá	701	Sololá	1	Sololá	7	Julio	2023-08-07T00:00:00	2024-11-08T17:00:00	6	Velocidad del viento	0
34166	7	Sololá	701	Sololá	1	Sololá	7	Julio	2023-08-07T00:00:00	2024-11-08T17:00:00	7	Dirección del viento	0
34167	7	Sololá	701	Sololá	1	Sololá	7	Julio	2023-08-07T00:00:00	2024-11-08T17:00:00	1	Precipitación	0.2
34168	7	Sololá	701	Sololá	1	Sololá	7	Julio	2023-08-07T00:00:00	2024-11-08T17:00:00	8	Radiación solar	5
34169	7	Sololá	701	Sololá	1	Sololá	7	Julio	2023-08-07T00:00:00	2024-11-08T18:00:00	2	Temperatura media	15
34170	7	Sololá	701	Sololá	1	Sololá	7	Julio	2023-08-07T00:00:00	2024-11-08T18:00:00	4	Temperatura máxima	15.5
34171	7	Sololá	701	Sololá	1	Sololá	7	Julio	2023-08-07T00:00:00	2024-11-08T18:00:00	3	Temperatura mínima	14.9
34172	7	Sololá	701	Sololá	1	Sololá	7	Julio	2023-08-07T00:00:00	2024-11-08T18:00:00	5	Humedad	96
34173	7	Sololá	701	Sololá	1	Sololá	7	Julio	2023-08-07T00:00:00	2024-11-08T18:00:00	6	Velocidad del viento	0
34174	7	Sololá	701	Sololá	1	Sololá	7	Julio	2023-08-07T00:00:00	2024-11-08T18:00:00	7	Dirección del viento	0
34175	7	Sololá	701	Sololá	1	Sololá	7	Julio	2023-08-07T00:00:00	2024-11-08T18:00:00	1	Precipitación	0.6
34176	7	Sololá	701	Sololá	1	Sololá	7	Julio	2023-08-07T00:00:00	2024-11-08T18:00:00	8	Radiación solar	3
34177	7	Sololá	701	Sololá	1	Sololá	7	Julio	2023-08-07T00:00:00	2024-11-08T19:00:00	2	Temperatura media	14.9
34178	7	Sololá	701	Sololá	1	Sololá	7	Julio	2023-08-07T00:00:00	2024-11-08T19:00:00	4	Temperatura máxima	15.1
34179	7	Sololá	701	Sololá	1	Sololá	7	Julio	2023-08-07T00:00:00	2024-11-08T19:00:00	3	Temperatura mínima	14.9
34180	7	Sololá	701	Sololá	1	Sololá	7	Julio	2023-08-07T00:00:00	2024-11-08T19:00:00	5	Humedad	96
34181	7	Sololá	701	Sololá	1	Sololá	7	Julio	2023-08-07T00:00:00	2024-11-08T19:00:00	6	Velocidad del viento	0
34182	7	Sololá	701	Sololá	1	Sololá	7	Julio	2023-08-07T00:00:00	2024-11-08T19:00:00	7	Dirección del viento	0
34183	7	Sololá	701	Sololá	1	Sololá	7	Julio	2023-08-07T00:00:00	2024-11-08T19:00:00	1	Precipitación	0.4
34184	7	Sololá	701	Sololá	1	Sololá	7	Julio	2023-08-07T00:00:00	2024-11-08T19:00:00	8	Radiación solar	0
34185	7	Sololá	701	Sololá	1	Sololá	7	Julio	2023-08-07T00:00:00	2024-11-08T20:00:00	2	Temperatura media	14.7
34186	7	Sololá	701	Sololá	1	Sololá	7	Julio	2023-08-07T00:00:00	2024-11-08T20:00:00	4	Temperatura máxima	14.9
34187	7	Sololá	701	Sololá	1	Sololá	7	Julio	2023-08-07T00:00:00	2024-11-08T20:00:00	3	Temperatura mínima	14.7
34188	7	Sololá	701	Sololá	1	Sololá	7	Julio	2023-08-07T00:00:00	2024-11-08T20:00:00	5	Humedad	97
34189	7	Sololá	701	Sololá	1	Sololá	7	Julio	2023-08-07T00:00:00	2024-11-08T20:00:00	6	Velocidad del viento	0
34190	7	Sololá	701	Sololá	1	Sololá	7	Julio	2023-08-07T00:00:00	2024-11-08T20:00:00	7	Dirección del viento	0
34191	7	Sololá	701	Sololá	1	Sololá	7	Julio	2023-08-07T00:00:00	2024-11-08T20:00:00	1	Precipitación	0.6
34192	7	Sololá	701	Sololá	1	Sololá	7	Julio	2023-08-07T00:00:00	2024-11-08T20:00:00	8	Radiación solar	0
34193	7	Sololá	701	Sololá	1	Sololá	7	Julio	2023-08-07T00:00:00	2024-11-08T21:00:00	2	Temperatura media	14.4
34194	7	Sololá	701	Sololá	1	Sololá	7	Julio	2023-08-07T00:00:00	2024-11-08T21:00:00	4	Temperatura máxima	14.7
34195	7	Sololá	701	Sololá	1	Sololá	7	Julio	2023-08-07T00:00:00	2024-11-08T21:00:00	3	Temperatura mínima	14.4
34196	7	Sololá	701	Sololá	1	Sololá	7	Julio	2023-08-07T00:00:00	2024-11-08T21:00:00	5	Humedad	96
34197	7	Sololá	701	Sololá	1	Sololá	7	Julio	2023-08-07T00:00:00	2024-11-08T21:00:00	6	Velocidad del viento	0
34198	7	Sololá	701	Sololá	1	Sololá	7	Julio	2023-08-07T00:00:00	2024-11-08T21:00:00	7	Dirección del viento	0
34199	7	Sololá	701	Sololá	1	Sololá	7	Julio	2023-08-07T00:00:00	2024-11-08T21:00:00	1	Precipitación	0
34200	7	Sololá	701	Sololá	1	Sololá	7	Julio	2023-08-07T00:00:00	2024-11-08T21:00:00	8	Radiación solar	0
34201	7	Sololá	701	Sololá	1	Sololá	7	Julio	2023-08-07T00:00:00	2024-11-08T22:00:00	2	Temperatura media	13.7
34202	7	Sololá	701	Sololá	1	Sololá	7	Julio	2023-08-07T00:00:00	2024-11-08T22:00:00	4	Temperatura máxima	14.4
34203	7	Sololá	701	Sololá	1	Sololá	7	Julio	2023-08-07T00:00:00	2024-11-08T22:00:00	3	Temperatura mínima	13.6
34204	7	Sololá	701	Sololá	1	Sololá	7	Julio	2023-08-07T00:00:00	2024-11-08T22:00:00	5	Humedad	96
34205	7	Sololá	701	Sololá	1	Sololá	7	Julio	2023-08-07T00:00:00	2024-11-08T22:00:00	6	Velocidad del viento	0
34206	7	Sololá	701	Sololá	1	Sololá	7	Julio	2023-08-07T00:00:00	2024-11-08T22:00:00	7	Dirección del viento	0
34207	7	Sololá	701	Sololá	1	Sololá	7	Julio	2023-08-07T00:00:00	2024-11-08T22:00:00	1	Precipitación	0
34208	7	Sololá	701	Sololá	1	Sololá	7	Julio	2023-08-07T00:00:00	2024-11-08T22:00:00	8	Radiación solar	0
34209	7	Sololá	701	Sololá	1	Sololá	7	Julio	2023-08-07T00:00:00	2024-11-08T23:00:00	2	Temperatura media	13.9
34210	7	Sololá	701	Sololá	1	Sololá	7	Julio	2023-08-07T00:00:00	2024-11-08T23:00:00	4	Temperatura máxima	13.9
34211	7	Sololá	701	Sololá	1	Sololá	7	Julio	2023-08-07T00:00:00	2024-11-08T23:00:00	3	Temperatura mínima	13.6
34212	7	Sololá	701	Sololá	1	Sololá	7	Julio	2023-08-07T00:00:00	2024-11-08T23:00:00	5	Humedad	96
34213	7	Sololá	701	Sololá	1	Sololá	7	Julio	2023-08-07T00:00:00	2024-11-08T23:00:00	6	Velocidad del viento	0
34214	7	Sololá	701	Sololá	1	Sololá	7	Julio	2023-08-07T00:00:00	2024-11-08T23:00:00	7	Dirección del viento	0
34215	7	Sololá	701	Sololá	1	Sololá	7	Julio	2023-08-07T00:00:00	2024-11-08T23:00:00	1	Precipitación	0
34216	7	Sololá	701	Sololá	1	Sololá	7	Julio	2023-08-07T00:00:00	2024-11-08T23:00:00	8	Radiación solar	0
34217	7	Sololá	701	Sololá	1	Sololá	7	Julio	2023-09-07T00:00:00	2024-11-08T00:00:00	2	Temperatura media	14
34218	7	Sololá	701	Sololá	1	Sololá	7	Julio	2023-09-07T00:00:00	2024-11-08T00:00:00	4	Temperatura máxima	14.1
34219	7	Sololá	701	Sololá	1	Sololá	7	Julio	2023-09-07T00:00:00	2024-11-08T00:00:00	3	Temperatura mínima	13.9
34220	7	Sololá	701	Sololá	1	Sololá	7	Julio	2023-09-07T00:00:00	2024-11-08T00:00:00	5	Humedad	96
34221	7	Sololá	701	Sololá	1	Sololá	7	Julio	2023-09-07T00:00:00	2024-11-08T00:00:00	6	Velocidad del viento	0
34222	7	Sololá	701	Sololá	1	Sololá	7	Julio	2023-09-07T00:00:00	2024-11-08T00:00:00	7	Dirección del viento	0
34223	7	Sololá	701	Sololá	1	Sololá	7	Julio	2023-09-07T00:00:00	2024-11-08T00:00:00	1	Precipitación	0
34224	7	Sololá	701	Sololá	1	Sololá	7	Julio	2023-09-07T00:00:00	2024-11-08T00:00:00	8	Radiación solar	0
34225	7	Sololá	701	Sololá	1	Sololá	7	Julio	2023-09-07T00:00:00	2024-11-08T01:00:00	2	Temperatura media	14.1
34226	7	Sololá	701	Sololá	1	Sololá	7	Julio	2023-09-07T00:00:00	2024-11-08T01:00:00	4	Temperatura máxima	14.1
34227	7	Sololá	701	Sololá	1	Sololá	7	Julio	2023-09-07T00:00:00	2024-11-08T01:00:00	3	Temperatura mínima	14
34228	7	Sololá	701	Sololá	1	Sololá	7	Julio	2023-09-07T00:00:00	2024-11-08T01:00:00	5	Humedad	96
34229	7	Sololá	701	Sololá	1	Sololá	7	Julio	2023-09-07T00:00:00	2024-11-08T01:00:00	6	Velocidad del viento	0
34230	7	Sololá	701	Sololá	1	Sololá	7	Julio	2023-09-07T00:00:00	2024-11-08T01:00:00	7	Dirección del viento	0
34231	7	Sololá	701	Sololá	1	Sololá	7	Julio	2023-09-07T00:00:00	2024-11-08T01:00:00	1	Precipitación	0
34232	7	Sololá	701	Sololá	1	Sololá	7	Julio	2023-09-07T00:00:00	2024-11-08T01:00:00	8	Radiación solar	0
34233	7	Sololá	701	Sololá	1	Sololá	7	Julio	2023-09-07T00:00:00	2024-11-08T02:00:00	2	Temperatura media	13.7
34234	7	Sololá	701	Sololá	1	Sololá	7	Julio	2023-09-07T00:00:00	2024-11-08T02:00:00	4	Temperatura máxima	14.2
34235	7	Sololá	701	Sololá	1	Sololá	7	Julio	2023-09-07T00:00:00	2024-11-08T02:00:00	3	Temperatura mínima	13.7
34236	7	Sololá	701	Sololá	1	Sololá	7	Julio	2023-09-07T00:00:00	2024-11-08T02:00:00	5	Humedad	96
34237	7	Sololá	701	Sololá	1	Sololá	7	Julio	2023-09-07T00:00:00	2024-11-08T02:00:00	6	Velocidad del viento	0
34238	7	Sololá	701	Sololá	1	Sololá	7	Julio	2023-09-07T00:00:00	2024-11-08T02:00:00	7	Dirección del viento	0
34239	7	Sololá	701	Sololá	1	Sololá	7	Julio	2023-09-07T00:00:00	2024-11-08T02:00:00	1	Precipitación	0
34240	7	Sololá	701	Sololá	1	Sololá	7	Julio	2023-09-07T00:00:00	2024-11-08T02:00:00	8	Radiación solar	0
34241	7	Sololá	701	Sololá	1	Sololá	7	Julio	2023-09-07T00:00:00	2024-11-08T03:00:00	2	Temperatura media	13.9
34242	7	Sololá	701	Sololá	1	Sololá	7	Julio	2023-09-07T00:00:00	2024-11-08T03:00:00	4	Temperatura máxima	13.9
34243	7	Sololá	701	Sololá	1	Sololá	7	Julio	2023-09-07T00:00:00	2024-11-08T03:00:00	3	Temperatura mínima	13.7
34244	7	Sololá	701	Sololá	1	Sololá	7	Julio	2023-09-07T00:00:00	2024-11-08T03:00:00	5	Humedad	96
34245	7	Sololá	701	Sololá	1	Sololá	7	Julio	2023-09-07T00:00:00	2024-11-08T03:00:00	6	Velocidad del viento	0
34246	7	Sololá	701	Sololá	1	Sololá	7	Julio	2023-09-07T00:00:00	2024-11-08T03:00:00	7	Dirección del viento	0
34247	7	Sololá	701	Sololá	1	Sololá	7	Julio	2023-09-07T00:00:00	2024-11-08T03:00:00	1	Precipitación	0
34248	7	Sololá	701	Sololá	1	Sololá	7	Julio	2023-09-07T00:00:00	2024-11-08T03:00:00	8	Radiación solar	0
34249	7	Sololá	701	Sololá	1	Sololá	7	Julio	2023-09-07T00:00:00	2024-11-08T04:00:00	2	Temperatura media	13.8
34250	7	Sololá	701	Sololá	1	Sololá	7	Julio	2023-09-07T00:00:00	2024-11-08T04:00:00	4	Temperatura máxima	14
34251	7	Sololá	701	Sololá	1	Sololá	7	Julio	2023-09-07T00:00:00	2024-11-08T04:00:00	3	Temperatura mínima	13.7
34252	7	Sololá	701	Sololá	1	Sololá	7	Julio	2023-09-07T00:00:00	2024-11-08T04:00:00	5	Humedad	95
34253	7	Sololá	701	Sololá	1	Sololá	7	Julio	2023-09-07T00:00:00	2024-11-08T04:00:00	6	Velocidad del viento	0
34254	7	Sololá	701	Sololá	1	Sololá	7	Julio	2023-09-07T00:00:00	2024-11-08T04:00:00	7	Dirección del viento	0
34255	7	Sololá	701	Sololá	1	Sololá	7	Julio	2023-09-07T00:00:00	2024-11-08T04:00:00	1	Precipitación	0
34256	7	Sololá	701	Sololá	1	Sololá	7	Julio	2023-09-07T00:00:00	2024-11-08T04:00:00	8	Radiación solar	0
34257	7	Sololá	701	Sololá	1	Sololá	7	Julio	2023-09-07T00:00:00	2024-11-08T05:00:00	2	Temperatura media	13.3
34258	7	Sololá	701	Sololá	1	Sololá	7	Julio	2023-09-07T00:00:00	2024-11-08T05:00:00	4	Temperatura máxima	13.7
34259	7	Sololá	701	Sololá	1	Sololá	7	Julio	2023-09-07T00:00:00	2024-11-08T05:00:00	3	Temperatura mínima	13.3
34260	7	Sololá	701	Sololá	1	Sololá	7	Julio	2023-09-07T00:00:00	2024-11-08T05:00:00	5	Humedad	96
34261	7	Sololá	701	Sololá	1	Sololá	7	Julio	2023-09-07T00:00:00	2024-11-08T05:00:00	6	Velocidad del viento	0
34262	7	Sololá	701	Sololá	1	Sololá	7	Julio	2023-09-07T00:00:00	2024-11-08T05:00:00	7	Dirección del viento	0
34263	7	Sololá	701	Sololá	1	Sololá	7	Julio	2023-09-07T00:00:00	2024-11-08T05:00:00	1	Precipitación	0
34264	7	Sololá	701	Sololá	1	Sololá	7	Julio	2023-09-07T00:00:00	2024-11-08T05:00:00	8	Radiación solar	0
34265	7	Sololá	701	Sololá	1	Sololá	7	Julio	2023-09-07T00:00:00	2024-11-08T06:00:00	2	Temperatura media	13
34266	7	Sololá	701	Sololá	1	Sololá	7	Julio	2023-09-07T00:00:00	2024-11-08T06:00:00	4	Temperatura máxima	13.3
34267	7	Sololá	701	Sololá	1	Sololá	7	Julio	2023-09-07T00:00:00	2024-11-08T06:00:00	3	Temperatura mínima	12.9
34268	7	Sololá	701	Sololá	1	Sololá	7	Julio	2023-09-07T00:00:00	2024-11-08T06:00:00	5	Humedad	95
34269	7	Sololá	701	Sololá	1	Sololá	7	Julio	2023-09-07T00:00:00	2024-11-08T06:00:00	6	Velocidad del viento	0
34270	7	Sololá	701	Sololá	1	Sololá	7	Julio	2023-09-07T00:00:00	2024-11-08T06:00:00	7	Dirección del viento	0
34271	7	Sololá	701	Sololá	1	Sololá	7	Julio	2023-09-07T00:00:00	2024-11-08T06:00:00	1	Precipitación	0
34272	7	Sololá	701	Sololá	1	Sololá	7	Julio	2023-09-07T00:00:00	2024-11-08T06:00:00	8	Radiación solar	1
34273	7	Sololá	701	Sololá	1	Sololá	7	Julio	2023-09-07T00:00:00	2024-11-08T07:00:00	2	Temperatura media	14.1
34274	7	Sololá	701	Sololá	1	Sololá	7	Julio	2023-09-07T00:00:00	2024-11-08T07:00:00	4	Temperatura máxima	14.1
34275	7	Sololá	701	Sololá	1	Sololá	7	Julio	2023-09-07T00:00:00	2024-11-08T07:00:00	3	Temperatura mínima	12.9
34276	7	Sololá	701	Sololá	1	Sololá	7	Julio	2023-09-07T00:00:00	2024-11-08T07:00:00	5	Humedad	92
34277	7	Sololá	701	Sololá	1	Sololá	7	Julio	2023-09-07T00:00:00	2024-11-08T07:00:00	6	Velocidad del viento	0
34278	7	Sololá	701	Sololá	1	Sololá	7	Julio	2023-09-07T00:00:00	2024-11-08T07:00:00	7	Dirección del viento	0
34279	7	Sololá	701	Sololá	1	Sololá	7	Julio	2023-09-07T00:00:00	2024-11-08T07:00:00	1	Precipitación	0
34280	7	Sololá	701	Sololá	1	Sololá	7	Julio	2023-09-07T00:00:00	2024-11-08T07:00:00	8	Radiación solar	27
34281	7	Sololá	701	Sololá	1	Sololá	7	Julio	2023-09-07T00:00:00	2024-11-08T08:00:00	2	Temperatura media	15.3
34282	7	Sololá	701	Sololá	1	Sololá	7	Julio	2023-09-07T00:00:00	2024-11-08T08:00:00	4	Temperatura máxima	15.3
34283	7	Sololá	701	Sololá	1	Sololá	7	Julio	2023-09-07T00:00:00	2024-11-08T08:00:00	3	Temperatura mínima	14.1
34284	7	Sololá	701	Sololá	1	Sololá	7	Julio	2023-09-07T00:00:00	2024-11-08T08:00:00	5	Humedad	93
34285	7	Sololá	701	Sololá	1	Sololá	7	Julio	2023-09-07T00:00:00	2024-11-08T08:00:00	6	Velocidad del viento	0
34286	7	Sololá	701	Sololá	1	Sololá	7	Julio	2023-09-07T00:00:00	2024-11-08T08:00:00	7	Dirección del viento	0
34287	7	Sololá	701	Sololá	1	Sololá	7	Julio	2023-09-07T00:00:00	2024-11-08T08:00:00	1	Precipitación	0
34288	7	Sololá	701	Sololá	1	Sololá	7	Julio	2023-09-07T00:00:00	2024-11-08T08:00:00	8	Radiación solar	52
34289	7	Sololá	701	Sololá	1	Sololá	7	Julio	2023-09-07T00:00:00	2024-11-08T09:00:00	2	Temperatura media	18.1
34290	7	Sololá	701	Sololá	1	Sololá	7	Julio	2023-09-07T00:00:00	2024-11-08T09:00:00	4	Temperatura máxima	18.1
34291	7	Sololá	701	Sololá	1	Sololá	7	Julio	2023-09-07T00:00:00	2024-11-08T09:00:00	3	Temperatura mínima	15.3
34292	7	Sololá	701	Sololá	1	Sololá	7	Julio	2023-09-07T00:00:00	2024-11-08T09:00:00	5	Humedad	88
34293	7	Sololá	701	Sololá	1	Sololá	7	Julio	2023-09-07T00:00:00	2024-11-08T09:00:00	6	Velocidad del viento	0
34294	7	Sololá	701	Sololá	1	Sololá	7	Julio	2023-09-07T00:00:00	2024-11-08T09:00:00	7	Dirección del viento	0
34295	7	Sololá	701	Sololá	1	Sololá	7	Julio	2023-09-07T00:00:00	2024-11-08T09:00:00	1	Precipitación	0.2
34296	7	Sololá	701	Sololá	1	Sololá	7	Julio	2023-09-07T00:00:00	2024-11-08T09:00:00	8	Radiación solar	235
34297	7	Sololá	701	Sololá	1	Sololá	7	Julio	2023-09-07T00:00:00	2024-11-08T10:00:00	2	Temperatura media	18.8
34298	7	Sololá	701	Sololá	1	Sololá	7	Julio	2023-09-07T00:00:00	2024-11-08T10:00:00	4	Temperatura máxima	19.1
34299	7	Sololá	701	Sololá	1	Sololá	7	Julio	2023-09-07T00:00:00	2024-11-08T10:00:00	3	Temperatura mínima	18.1
34300	7	Sololá	701	Sololá	1	Sololá	7	Julio	2023-09-07T00:00:00	2024-11-08T10:00:00	5	Humedad	83
34301	7	Sololá	701	Sololá	1	Sololá	7	Julio	2023-09-07T00:00:00	2024-11-08T10:00:00	6	Velocidad del viento	0
34302	7	Sololá	701	Sololá	1	Sololá	7	Julio	2023-09-07T00:00:00	2024-11-08T10:00:00	7	Dirección del viento	0
34303	7	Sololá	701	Sololá	1	Sololá	7	Julio	2023-09-07T00:00:00	2024-11-08T10:00:00	1	Precipitación	0
34304	7	Sololá	701	Sololá	1	Sololá	7	Julio	2023-09-07T00:00:00	2024-11-08T10:00:00	8	Radiación solar	202
34305	7	Sololá	701	Sololá	1	Sololá	7	Julio	2023-09-07T00:00:00	2024-11-08T11:00:00	2	Temperatura media	18.4
34306	7	Sololá	701	Sololá	1	Sololá	7	Julio	2023-09-07T00:00:00	2024-11-08T11:00:00	4	Temperatura máxima	18.9
34307	7	Sololá	701	Sololá	1	Sololá	7	Julio	2023-09-07T00:00:00	2024-11-08T11:00:00	3	Temperatura mínima	18.4
34308	7	Sololá	701	Sololá	1	Sololá	7	Julio	2023-09-07T00:00:00	2024-11-08T11:00:00	5	Humedad	89
34309	7	Sololá	701	Sololá	1	Sololá	7	Julio	2023-09-07T00:00:00	2024-11-08T11:00:00	6	Velocidad del viento	0
34310	7	Sololá	701	Sololá	1	Sololá	7	Julio	2023-09-07T00:00:00	2024-11-08T11:00:00	7	Dirección del viento	0
34311	7	Sololá	701	Sololá	1	Sololá	7	Julio	2023-09-07T00:00:00	2024-11-08T11:00:00	1	Precipitación	0
34312	7	Sololá	701	Sololá	1	Sololá	7	Julio	2023-09-07T00:00:00	2024-11-08T11:00:00	8	Radiación solar	150
34313	7	Sololá	701	Sololá	1	Sololá	7	Julio	2023-09-07T00:00:00	2024-11-08T12:00:00	2	Temperatura media	20.6
34314	7	Sololá	701	Sololá	1	Sololá	7	Julio	2023-09-07T00:00:00	2024-11-08T12:00:00	4	Temperatura máxima	20.6
34315	7	Sololá	701	Sololá	1	Sololá	7	Julio	2023-09-07T00:00:00	2024-11-08T12:00:00	3	Temperatura mínima	18.4
34316	7	Sololá	701	Sololá	1	Sololá	7	Julio	2023-09-07T00:00:00	2024-11-08T12:00:00	5	Humedad	82
34317	7	Sololá	701	Sololá	1	Sololá	7	Julio	2023-09-07T00:00:00	2024-11-08T12:00:00	6	Velocidad del viento	0
34318	7	Sololá	701	Sololá	1	Sololá	7	Julio	2023-09-07T00:00:00	2024-11-08T12:00:00	7	Dirección del viento	0
34319	7	Sololá	701	Sololá	1	Sololá	7	Julio	2023-09-07T00:00:00	2024-11-08T12:00:00	1	Precipitación	0
34320	7	Sololá	701	Sololá	1	Sololá	7	Julio	2023-09-07T00:00:00	2024-11-08T12:00:00	8	Radiación solar	208
34321	7	Sololá	701	Sololá	1	Sololá	7	Julio	2023-09-07T00:00:00	2024-11-08T13:00:00	2	Temperatura media	21.2
34322	7	Sololá	701	Sololá	1	Sololá	7	Julio	2023-09-07T00:00:00	2024-11-08T13:00:00	4	Temperatura máxima	21.4
34323	7	Sololá	701	Sololá	1	Sololá	7	Julio	2023-09-07T00:00:00	2024-11-08T13:00:00	3	Temperatura mínima	20.6
34324	7	Sololá	701	Sololá	1	Sololá	7	Julio	2023-09-07T00:00:00	2024-11-08T13:00:00	5	Humedad	77
34325	7	Sololá	701	Sololá	1	Sololá	7	Julio	2023-09-07T00:00:00	2024-11-08T13:00:00	6	Velocidad del viento	0
34326	7	Sololá	701	Sololá	1	Sololá	7	Julio	2023-09-07T00:00:00	2024-11-08T13:00:00	7	Dirección del viento	0
34327	7	Sololá	701	Sololá	1	Sololá	7	Julio	2023-09-07T00:00:00	2024-11-08T13:00:00	1	Precipitación	0
34328	7	Sololá	701	Sololá	1	Sololá	7	Julio	2023-09-07T00:00:00	2024-11-08T13:00:00	8	Radiación solar	178
34329	7	Sololá	701	Sololá	1	Sololá	7	Julio	2023-09-07T00:00:00	2024-11-08T14:00:00	2	Temperatura media	20.4
34330	7	Sololá	701	Sololá	1	Sololá	7	Julio	2023-09-07T00:00:00	2024-11-08T14:00:00	4	Temperatura máxima	21.9
34331	7	Sololá	701	Sololá	1	Sololá	7	Julio	2023-09-07T00:00:00	2024-11-08T14:00:00	3	Temperatura mínima	20.4
34332	7	Sololá	701	Sololá	1	Sololá	7	Julio	2023-09-07T00:00:00	2024-11-08T14:00:00	5	Humedad	85
34333	7	Sololá	701	Sololá	1	Sololá	7	Julio	2023-09-07T00:00:00	2024-11-08T14:00:00	6	Velocidad del viento	0
34334	7	Sololá	701	Sololá	1	Sololá	7	Julio	2023-09-07T00:00:00	2024-11-08T14:00:00	7	Dirección del viento	0
34335	7	Sololá	701	Sololá	1	Sololá	7	Julio	2023-09-07T00:00:00	2024-11-08T14:00:00	1	Precipitación	0
34336	7	Sololá	701	Sololá	1	Sololá	7	Julio	2023-09-07T00:00:00	2024-11-08T14:00:00	8	Radiación solar	172
34337	7	Sololá	701	Sololá	1	Sololá	7	Julio	2023-09-07T00:00:00	2024-11-08T15:00:00	2	Temperatura media	18.4
34338	7	Sololá	701	Sololá	1	Sololá	7	Julio	2023-09-07T00:00:00	2024-11-08T15:00:00	4	Temperatura máxima	20.4
34339	7	Sololá	701	Sololá	1	Sololá	7	Julio	2023-09-07T00:00:00	2024-11-08T15:00:00	3	Temperatura mínima	18.4
34340	7	Sololá	701	Sololá	1	Sololá	7	Julio	2023-09-07T00:00:00	2024-11-08T15:00:00	5	Humedad	92
34341	7	Sololá	701	Sololá	1	Sololá	7	Julio	2023-09-07T00:00:00	2024-11-08T15:00:00	6	Velocidad del viento	0
34342	7	Sololá	701	Sololá	1	Sololá	7	Julio	2023-09-07T00:00:00	2024-11-08T15:00:00	7	Dirección del viento	0
34343	7	Sololá	701	Sololá	1	Sololá	7	Julio	2023-09-07T00:00:00	2024-11-08T15:00:00	1	Precipitación	0
34344	7	Sololá	701	Sololá	1	Sololá	7	Julio	2023-09-07T00:00:00	2024-11-08T15:00:00	8	Radiación solar	68
34345	7	Sololá	701	Sololá	1	Sololá	7	Julio	2023-09-07T00:00:00	2024-11-08T16:00:00	2	Temperatura media	17.2
34346	7	Sololá	701	Sololá	1	Sololá	7	Julio	2023-09-07T00:00:00	2024-11-08T16:00:00	4	Temperatura máxima	18.4
34347	7	Sololá	701	Sololá	1	Sololá	7	Julio	2023-09-07T00:00:00	2024-11-08T16:00:00	3	Temperatura mínima	17.2
34348	7	Sololá	701	Sololá	1	Sololá	7	Julio	2023-09-07T00:00:00	2024-11-08T16:00:00	5	Humedad	95
34349	7	Sololá	701	Sololá	1	Sololá	7	Julio	2023-09-07T00:00:00	2024-11-08T16:00:00	6	Velocidad del viento	0
34350	7	Sololá	701	Sololá	1	Sololá	7	Julio	2023-09-07T00:00:00	2024-11-08T16:00:00	7	Dirección del viento	0
34351	7	Sololá	701	Sololá	1	Sololá	7	Julio	2023-09-07T00:00:00	2024-11-08T16:00:00	1	Precipitación	0.4
34352	7	Sololá	701	Sololá	1	Sololá	7	Julio	2023-09-07T00:00:00	2024-11-08T16:00:00	8	Radiación solar	15
34353	7	Sololá	701	Sololá	1	Sololá	7	Julio	2023-09-07T00:00:00	2024-11-08T17:00:00	2	Temperatura media	16.5
34354	7	Sololá	701	Sololá	1	Sololá	7	Julio	2023-09-07T00:00:00	2024-11-08T17:00:00	4	Temperatura máxima	17.2
34355	7	Sololá	701	Sololá	1	Sololá	7	Julio	2023-09-07T00:00:00	2024-11-08T17:00:00	3	Temperatura mínima	16.4
34356	7	Sololá	701	Sololá	1	Sololá	7	Julio	2023-09-07T00:00:00	2024-11-08T17:00:00	5	Humedad	95
34357	7	Sololá	701	Sololá	1	Sololá	7	Julio	2023-09-07T00:00:00	2024-11-08T17:00:00	6	Velocidad del viento	0
34358	7	Sololá	701	Sololá	1	Sololá	7	Julio	2023-09-07T00:00:00	2024-11-08T17:00:00	7	Dirección del viento	0
34359	7	Sololá	701	Sololá	1	Sololá	7	Julio	2023-09-07T00:00:00	2024-11-08T17:00:00	1	Precipitación	0.6
34360	7	Sololá	701	Sololá	1	Sololá	7	Julio	2023-09-07T00:00:00	2024-11-08T17:00:00	8	Radiación solar	34
34361	7	Sololá	701	Sololá	1	Sololá	7	Julio	2023-09-07T00:00:00	2024-11-08T18:00:00	2	Temperatura media	16.2
34362	7	Sololá	701	Sololá	1	Sololá	7	Julio	2023-09-07T00:00:00	2024-11-08T18:00:00	4	Temperatura máxima	16.5
34363	7	Sololá	701	Sololá	1	Sololá	7	Julio	2023-09-07T00:00:00	2024-11-08T18:00:00	3	Temperatura mínima	16.2
34364	7	Sololá	701	Sololá	1	Sololá	7	Julio	2023-09-07T00:00:00	2024-11-08T18:00:00	5	Humedad	94
34365	7	Sololá	701	Sololá	1	Sololá	7	Julio	2023-09-07T00:00:00	2024-11-08T18:00:00	6	Velocidad del viento	0
34366	7	Sololá	701	Sololá	1	Sololá	7	Julio	2023-09-07T00:00:00	2024-11-08T18:00:00	7	Dirección del viento	0
34367	7	Sololá	701	Sololá	1	Sololá	7	Julio	2023-09-07T00:00:00	2024-11-08T18:00:00	1	Precipitación	0
34368	7	Sololá	701	Sololá	1	Sololá	7	Julio	2023-09-07T00:00:00	2024-11-08T18:00:00	8	Radiación solar	25
34369	7	Sololá	701	Sololá	1	Sololá	7	Julio	2023-09-07T00:00:00	2024-11-08T19:00:00	2	Temperatura media	15.6
34370	7	Sololá	701	Sololá	1	Sololá	7	Julio	2023-09-07T00:00:00	2024-11-08T19:00:00	4	Temperatura máxima	16.2
34371	7	Sololá	701	Sololá	1	Sololá	7	Julio	2023-09-07T00:00:00	2024-11-08T19:00:00	3	Temperatura mínima	15.6
34372	7	Sololá	701	Sololá	1	Sololá	7	Julio	2023-09-07T00:00:00	2024-11-08T19:00:00	5	Humedad	94
34373	7	Sololá	701	Sololá	1	Sololá	7	Julio	2023-09-07T00:00:00	2024-11-08T19:00:00	6	Velocidad del viento	0
34374	7	Sololá	701	Sololá	1	Sololá	7	Julio	2023-09-07T00:00:00	2024-11-08T19:00:00	7	Dirección del viento	0
34375	7	Sololá	701	Sololá	1	Sololá	7	Julio	2023-09-07T00:00:00	2024-11-08T19:00:00	1	Precipitación	0
34376	7	Sololá	701	Sololá	1	Sololá	7	Julio	2023-09-07T00:00:00	2024-11-08T19:00:00	8	Radiación solar	0
34377	7	Sololá	701	Sololá	1	Sololá	7	Julio	2023-09-07T00:00:00	2024-11-08T20:00:00	2	Temperatura media	14.8
34378	7	Sololá	701	Sololá	1	Sololá	7	Julio	2023-09-07T00:00:00	2024-11-08T20:00:00	4	Temperatura máxima	15.6
34379	7	Sololá	701	Sololá	1	Sololá	7	Julio	2023-09-07T00:00:00	2024-11-08T20:00:00	3	Temperatura mínima	14.8
34380	7	Sololá	701	Sololá	1	Sololá	7	Julio	2023-09-07T00:00:00	2024-11-08T20:00:00	5	Humedad	95
34381	7	Sololá	701	Sololá	1	Sololá	7	Julio	2023-09-07T00:00:00	2024-11-08T20:00:00	6	Velocidad del viento	0
34382	7	Sololá	701	Sololá	1	Sololá	7	Julio	2023-09-07T00:00:00	2024-11-08T20:00:00	7	Dirección del viento	0
34383	7	Sololá	701	Sololá	1	Sololá	7	Julio	2023-09-07T00:00:00	2024-11-08T20:00:00	1	Precipitación	0
34384	7	Sololá	701	Sololá	1	Sololá	7	Julio	2023-09-07T00:00:00	2024-11-08T20:00:00	8	Radiación solar	0
34385	7	Sololá	701	Sololá	1	Sololá	7	Julio	2023-09-07T00:00:00	2024-11-08T21:00:00	2	Temperatura media	14.8
34386	7	Sololá	701	Sololá	1	Sololá	7	Julio	2023-09-07T00:00:00	2024-11-08T21:00:00	4	Temperatura máxima	14.9
34387	7	Sololá	701	Sololá	1	Sololá	7	Julio	2023-09-07T00:00:00	2024-11-08T21:00:00	3	Temperatura mínima	14.8
34388	7	Sololá	701	Sololá	1	Sololá	7	Julio	2023-09-07T00:00:00	2024-11-08T21:00:00	5	Humedad	95
34389	7	Sololá	701	Sololá	1	Sololá	7	Julio	2023-09-07T00:00:00	2024-11-08T21:00:00	6	Velocidad del viento	0
34390	7	Sololá	701	Sololá	1	Sololá	7	Julio	2023-09-07T00:00:00	2024-11-08T21:00:00	7	Dirección del viento	0
34391	7	Sololá	701	Sololá	1	Sololá	7	Julio	2023-09-07T00:00:00	2024-11-08T21:00:00	1	Precipitación	0
34392	7	Sololá	701	Sololá	1	Sololá	7	Julio	2023-09-07T00:00:00	2024-11-08T21:00:00	8	Radiación solar	0
34393	7	Sololá	701	Sololá	1	Sololá	7	Julio	2023-09-07T00:00:00	2024-11-08T22:00:00	2	Temperatura media	14.8
34394	7	Sololá	701	Sololá	1	Sololá	7	Julio	2023-09-07T00:00:00	2024-11-08T22:00:00	4	Temperatura máxima	14.9
34395	7	Sololá	701	Sololá	1	Sololá	7	Julio	2023-09-07T00:00:00	2024-11-08T22:00:00	3	Temperatura mínima	14.8
34396	7	Sololá	701	Sololá	1	Sololá	7	Julio	2023-09-07T00:00:00	2024-11-08T22:00:00	5	Humedad	95
34397	7	Sololá	701	Sololá	1	Sololá	7	Julio	2023-09-07T00:00:00	2024-11-08T22:00:00	6	Velocidad del viento	0
34398	7	Sololá	701	Sololá	1	Sololá	7	Julio	2023-09-07T00:00:00	2024-11-08T22:00:00	7	Dirección del viento	0
34399	7	Sololá	701	Sololá	1	Sololá	7	Julio	2023-09-07T00:00:00	2024-11-08T22:00:00	1	Precipitación	0
34400	7	Sololá	701	Sololá	1	Sololá	7	Julio	2023-09-07T00:00:00	2024-11-08T22:00:00	8	Radiación solar	0
34401	7	Sololá	701	Sololá	1	Sololá	7	Julio	2023-09-07T00:00:00	2024-11-08T23:00:00	2	Temperatura media	14.4
34402	7	Sololá	701	Sololá	1	Sololá	7	Julio	2023-09-07T00:00:00	2024-11-08T23:00:00	4	Temperatura máxima	14.8
34403	7	Sololá	701	Sololá	1	Sololá	7	Julio	2023-09-07T00:00:00	2024-11-08T23:00:00	3	Temperatura mínima	14.4
34404	7	Sololá	701	Sololá	1	Sololá	7	Julio	2023-09-07T00:00:00	2024-11-08T23:00:00	5	Humedad	95
34405	7	Sololá	701	Sololá	1	Sololá	7	Julio	2023-09-07T00:00:00	2024-11-08T23:00:00	6	Velocidad del viento	0
34406	7	Sololá	701	Sololá	1	Sololá	7	Julio	2023-09-07T00:00:00	2024-11-08T23:00:00	7	Dirección del viento	0
34407	7	Sololá	701	Sololá	1	Sololá	7	Julio	2023-09-07T00:00:00	2024-11-08T23:00:00	1	Precipitación	0
34408	7	Sololá	701	Sololá	1	Sololá	7	Julio	2023-09-07T00:00:00	2024-11-08T23:00:00	8	Radiación solar	0
34409	7	Sololá	701	Sololá	1	Sololá	7	Julio	2023-10-07T00:00:00	2024-11-08T00:00:00	2	Temperatura media	14.4
34410	7	Sololá	701	Sololá	1	Sololá	7	Julio	2023-10-07T00:00:00	2024-11-08T00:00:00	4	Temperatura máxima	14.5
34411	7	Sololá	701	Sololá	1	Sololá	7	Julio	2023-10-07T00:00:00	2024-11-08T00:00:00	3	Temperatura mínima	14.3
34412	7	Sololá	701	Sololá	1	Sololá	7	Julio	2023-10-07T00:00:00	2024-11-08T00:00:00	5	Humedad	94
34413	7	Sololá	701	Sololá	1	Sololá	7	Julio	2023-10-07T00:00:00	2024-11-08T00:00:00	6	Velocidad del viento	0
34414	7	Sololá	701	Sololá	1	Sololá	7	Julio	2023-10-07T00:00:00	2024-11-08T00:00:00	7	Dirección del viento	0
34415	7	Sololá	701	Sololá	1	Sololá	7	Julio	2023-10-07T00:00:00	2024-11-08T00:00:00	1	Precipitación	0
34416	7	Sololá	701	Sololá	1	Sololá	7	Julio	2023-10-07T00:00:00	2024-11-08T00:00:00	8	Radiación solar	0
34417	7	Sololá	701	Sololá	1	Sololá	7	Julio	2023-10-07T00:00:00	2024-11-08T01:00:00	2	Temperatura media	13.9
34418	7	Sololá	701	Sololá	1	Sololá	7	Julio	2023-10-07T00:00:00	2024-11-08T01:00:00	4	Temperatura máxima	14.5
34419	7	Sololá	701	Sololá	1	Sololá	7	Julio	2023-10-07T00:00:00	2024-11-08T01:00:00	3	Temperatura mínima	13.9
34420	7	Sololá	701	Sololá	1	Sololá	7	Julio	2023-10-07T00:00:00	2024-11-08T01:00:00	5	Humedad	94
34421	7	Sololá	701	Sololá	1	Sololá	7	Julio	2023-10-07T00:00:00	2024-11-08T01:00:00	6	Velocidad del viento	0
34422	7	Sololá	701	Sololá	1	Sololá	7	Julio	2023-10-07T00:00:00	2024-11-08T01:00:00	7	Dirección del viento	0
34423	7	Sololá	701	Sololá	1	Sololá	7	Julio	2023-10-07T00:00:00	2024-11-08T01:00:00	1	Precipitación	0
34424	7	Sololá	701	Sololá	1	Sololá	7	Julio	2023-10-07T00:00:00	2024-11-08T01:00:00	8	Radiación solar	0
34425	7	Sololá	701	Sololá	1	Sololá	7	Julio	2023-10-07T00:00:00	2024-11-08T02:00:00	2	Temperatura media	13.9
34426	7	Sololá	701	Sololá	1	Sololá	7	Julio	2023-10-07T00:00:00	2024-11-08T02:00:00	4	Temperatura máxima	14.1
34427	7	Sololá	701	Sololá	1	Sololá	7	Julio	2023-10-07T00:00:00	2024-11-08T02:00:00	3	Temperatura mínima	13.9
34428	7	Sololá	701	Sololá	1	Sololá	7	Julio	2023-10-07T00:00:00	2024-11-08T02:00:00	5	Humedad	92
34429	7	Sololá	701	Sololá	1	Sololá	7	Julio	2023-10-07T00:00:00	2024-11-08T02:00:00	6	Velocidad del viento	0
34430	7	Sololá	701	Sololá	1	Sololá	7	Julio	2023-10-07T00:00:00	2024-11-08T02:00:00	7	Dirección del viento	0
34431	7	Sololá	701	Sololá	1	Sololá	7	Julio	2023-10-07T00:00:00	2024-11-08T02:00:00	1	Precipitación	0
34432	7	Sololá	701	Sololá	1	Sololá	7	Julio	2023-10-07T00:00:00	2024-11-08T02:00:00	8	Radiación solar	0
34433	7	Sololá	701	Sololá	1	Sololá	7	Julio	2023-10-07T00:00:00	2024-11-08T03:00:00	2	Temperatura media	13.3
34434	7	Sololá	701	Sololá	1	Sololá	7	Julio	2023-10-07T00:00:00	2024-11-08T03:00:00	4	Temperatura máxima	13.9
34435	7	Sololá	701	Sololá	1	Sololá	7	Julio	2023-10-07T00:00:00	2024-11-08T03:00:00	3	Temperatura mínima	13.3
34436	7	Sololá	701	Sololá	1	Sololá	7	Julio	2023-10-07T00:00:00	2024-11-08T03:00:00	5	Humedad	92
34437	7	Sololá	701	Sololá	1	Sololá	7	Julio	2023-10-07T00:00:00	2024-11-08T03:00:00	6	Velocidad del viento	0
34438	7	Sololá	701	Sololá	1	Sololá	7	Julio	2023-10-07T00:00:00	2024-11-08T03:00:00	7	Dirección del viento	0
34439	7	Sololá	701	Sololá	1	Sololá	7	Julio	2023-10-07T00:00:00	2024-11-08T03:00:00	1	Precipitación	0
34440	7	Sololá	701	Sololá	1	Sololá	7	Julio	2023-10-07T00:00:00	2024-11-08T03:00:00	8	Radiación solar	0
34441	7	Sololá	701	Sololá	1	Sololá	7	Julio	2023-10-07T00:00:00	2024-11-08T04:00:00	2	Temperatura media	13
34442	7	Sololá	701	Sololá	1	Sololá	7	Julio	2023-10-07T00:00:00	2024-11-08T04:00:00	4	Temperatura máxima	13.4
34443	7	Sololá	701	Sololá	1	Sololá	7	Julio	2023-10-07T00:00:00	2024-11-08T04:00:00	3	Temperatura mínima	12.9
34444	7	Sololá	701	Sololá	1	Sololá	7	Julio	2023-10-07T00:00:00	2024-11-08T04:00:00	5	Humedad	95
34445	7	Sololá	701	Sololá	1	Sololá	7	Julio	2023-10-07T00:00:00	2024-11-08T04:00:00	6	Velocidad del viento	0
34446	7	Sololá	701	Sololá	1	Sololá	7	Julio	2023-10-07T00:00:00	2024-11-08T04:00:00	7	Dirección del viento	0
34447	7	Sololá	701	Sololá	1	Sololá	7	Julio	2023-10-07T00:00:00	2024-11-08T04:00:00	1	Precipitación	0
34448	7	Sololá	701	Sololá	1	Sololá	7	Julio	2023-10-07T00:00:00	2024-11-08T04:00:00	8	Radiación solar	0
34449	7	Sololá	701	Sololá	1	Sololá	7	Julio	2023-10-07T00:00:00	2024-11-08T05:00:00	2	Temperatura media	13.3
34450	7	Sololá	701	Sololá	1	Sololá	7	Julio	2023-10-07T00:00:00	2024-11-08T05:00:00	4	Temperatura máxima	13.3
34451	7	Sololá	701	Sololá	1	Sololá	7	Julio	2023-10-07T00:00:00	2024-11-08T05:00:00	3	Temperatura mínima	13
34452	7	Sololá	701	Sololá	1	Sololá	7	Julio	2023-10-07T00:00:00	2024-11-08T05:00:00	5	Humedad	95
34453	7	Sololá	701	Sololá	1	Sololá	7	Julio	2023-10-07T00:00:00	2024-11-08T05:00:00	6	Velocidad del viento	0
34454	7	Sololá	701	Sololá	1	Sololá	7	Julio	2023-10-07T00:00:00	2024-11-08T05:00:00	7	Dirección del viento	0
34455	7	Sololá	701	Sololá	1	Sololá	7	Julio	2023-10-07T00:00:00	2024-11-08T05:00:00	1	Precipitación	0
34456	7	Sololá	701	Sololá	1	Sololá	7	Julio	2023-10-07T00:00:00	2024-11-08T05:00:00	8	Radiación solar	0
34457	7	Sololá	701	Sololá	1	Sololá	7	Julio	2023-10-07T00:00:00	2024-11-08T06:00:00	2	Temperatura media	13.6
34458	7	Sololá	701	Sololá	1	Sololá	7	Julio	2023-10-07T00:00:00	2024-11-08T06:00:00	4	Temperatura máxima	13.7
34459	7	Sololá	701	Sololá	1	Sololá	7	Julio	2023-10-07T00:00:00	2024-11-08T06:00:00	3	Temperatura mínima	13.3
34460	7	Sololá	701	Sololá	1	Sololá	7	Julio	2023-10-07T00:00:00	2024-11-08T06:00:00	5	Humedad	95
34461	7	Sololá	701	Sololá	1	Sololá	7	Julio	2023-10-07T00:00:00	2024-11-08T06:00:00	6	Velocidad del viento	0
34462	7	Sololá	701	Sololá	1	Sololá	7	Julio	2023-10-07T00:00:00	2024-11-08T06:00:00	7	Dirección del viento	0
34463	7	Sololá	701	Sololá	1	Sololá	7	Julio	2023-10-07T00:00:00	2024-11-08T06:00:00	1	Precipitación	0
34464	7	Sololá	701	Sololá	1	Sololá	7	Julio	2023-10-07T00:00:00	2024-11-08T06:00:00	8	Radiación solar	0
34465	7	Sololá	701	Sololá	1	Sololá	7	Julio	2023-10-07T00:00:00	2024-11-08T07:00:00	2	Temperatura media	13.3
34466	7	Sololá	701	Sololá	1	Sololá	7	Julio	2023-10-07T00:00:00	2024-11-08T07:00:00	4	Temperatura máxima	13.6
34467	7	Sololá	701	Sololá	1	Sololá	7	Julio	2023-10-07T00:00:00	2024-11-08T07:00:00	3	Temperatura mínima	13.3
34468	7	Sololá	701	Sololá	1	Sololá	7	Julio	2023-10-07T00:00:00	2024-11-08T07:00:00	5	Humedad	93
34469	7	Sololá	701	Sololá	1	Sololá	7	Julio	2023-10-07T00:00:00	2024-11-08T07:00:00	6	Velocidad del viento	0
34470	7	Sololá	701	Sololá	1	Sololá	7	Julio	2023-10-07T00:00:00	2024-11-08T07:00:00	7	Dirección del viento	0
34471	7	Sololá	701	Sololá	1	Sololá	7	Julio	2023-10-07T00:00:00	2024-11-08T07:00:00	1	Precipitación	0
34472	7	Sololá	701	Sololá	1	Sololá	7	Julio	2023-10-07T00:00:00	2024-11-08T07:00:00	8	Radiación solar	7
34473	7	Sololá	701	Sololá	1	Sololá	7	Julio	2023-10-07T00:00:00	2024-11-08T08:00:00	2	Temperatura media	15.2
34474	7	Sololá	701	Sololá	1	Sololá	7	Julio	2023-10-07T00:00:00	2024-11-08T08:00:00	4	Temperatura máxima	15.2
34475	7	Sololá	701	Sololá	1	Sololá	7	Julio	2023-10-07T00:00:00	2024-11-08T08:00:00	3	Temperatura mínima	13.2
34476	7	Sololá	701	Sololá	1	Sololá	7	Julio	2023-10-07T00:00:00	2024-11-08T08:00:00	5	Humedad	90
34477	7	Sololá	701	Sololá	1	Sololá	7	Julio	2023-10-07T00:00:00	2024-11-08T08:00:00	6	Velocidad del viento	0
34478	7	Sololá	701	Sololá	1	Sololá	7	Julio	2023-10-07T00:00:00	2024-11-08T08:00:00	7	Dirección del viento	0
34479	7	Sololá	701	Sololá	1	Sololá	7	Julio	2023-10-07T00:00:00	2024-11-08T08:00:00	1	Precipitación	0
34480	7	Sololá	701	Sololá	1	Sololá	7	Julio	2023-10-07T00:00:00	2024-11-08T08:00:00	8	Radiación solar	33
34481	7	Sololá	701	Sololá	1	Sololá	7	Julio	2023-10-07T00:00:00	2024-11-08T09:00:00	2	Temperatura media	19.7
34482	7	Sololá	701	Sololá	1	Sololá	7	Julio	2023-10-07T00:00:00	2024-11-08T09:00:00	4	Temperatura máxima	19.7
34483	7	Sololá	701	Sololá	1	Sololá	7	Julio	2023-10-07T00:00:00	2024-11-08T09:00:00	3	Temperatura mínima	15.2
34484	7	Sololá	701	Sololá	1	Sololá	7	Julio	2023-10-07T00:00:00	2024-11-08T09:00:00	5	Humedad	75
34485	7	Sololá	701	Sololá	1	Sololá	7	Julio	2023-10-07T00:00:00	2024-11-08T09:00:00	6	Velocidad del viento	0
34486	7	Sololá	701	Sololá	1	Sololá	7	Julio	2023-10-07T00:00:00	2024-11-08T09:00:00	7	Dirección del viento	0
34487	7	Sololá	701	Sololá	1	Sololá	7	Julio	2023-10-07T00:00:00	2024-11-08T09:00:00	1	Precipitación	0
34488	7	Sololá	701	Sololá	1	Sololá	7	Julio	2023-10-07T00:00:00	2024-11-08T09:00:00	8	Radiación solar	390
34489	7	Sololá	701	Sololá	1	Sololá	7	Julio	2023-10-07T00:00:00	2024-11-08T10:00:00	2	Temperatura media	21.4
34490	7	Sololá	701	Sololá	1	Sololá	7	Julio	2023-10-07T00:00:00	2024-11-08T10:00:00	4	Temperatura máxima	21.8
34491	7	Sololá	701	Sololá	1	Sololá	7	Julio	2023-10-07T00:00:00	2024-11-08T10:00:00	3	Temperatura mínima	19.8
34492	7	Sololá	701	Sololá	1	Sololá	7	Julio	2023-10-07T00:00:00	2024-11-08T10:00:00	5	Humedad	70
34493	7	Sololá	701	Sololá	1	Sololá	7	Julio	2023-10-07T00:00:00	2024-11-08T10:00:00	6	Velocidad del viento	0
34494	7	Sololá	701	Sololá	1	Sololá	7	Julio	2023-10-07T00:00:00	2024-11-08T10:00:00	7	Dirección del viento	0
34495	7	Sololá	701	Sololá	1	Sololá	7	Julio	2023-10-07T00:00:00	2024-11-08T10:00:00	1	Precipitación	0
34496	7	Sololá	701	Sololá	1	Sololá	7	Julio	2023-10-07T00:00:00	2024-11-08T10:00:00	8	Radiación solar	633
34497	7	Sololá	701	Sololá	1	Sololá	7	Julio	2023-10-07T00:00:00	2024-11-08T11:00:00	2	Temperatura media	20.5
34498	7	Sololá	701	Sololá	1	Sololá	7	Julio	2023-10-07T00:00:00	2024-11-08T11:00:00	4	Temperatura máxima	21.4
34499	7	Sololá	701	Sololá	1	Sololá	7	Julio	2023-10-07T00:00:00	2024-11-08T11:00:00	3	Temperatura mínima	20.4
34500	7	Sololá	701	Sololá	1	Sololá	7	Julio	2023-10-07T00:00:00	2024-11-08T11:00:00	5	Humedad	75
34501	7	Sololá	701	Sololá	1	Sololá	7	Julio	2023-10-07T00:00:00	2024-11-08T11:00:00	6	Velocidad del viento	0
34502	7	Sololá	701	Sololá	1	Sololá	7	Julio	2023-10-07T00:00:00	2024-11-08T11:00:00	7	Dirección del viento	0
34503	7	Sololá	701	Sololá	1	Sololá	7	Julio	2023-10-07T00:00:00	2024-11-08T11:00:00	1	Precipitación	0
34504	7	Sololá	701	Sololá	1	Sololá	7	Julio	2023-10-07T00:00:00	2024-11-08T11:00:00	8	Radiación solar	270
34505	7	Sololá	701	Sololá	1	Sololá	7	Julio	2023-10-07T00:00:00	2024-11-08T12:00:00	2	Temperatura media	22.1
34506	7	Sololá	701	Sololá	1	Sololá	7	Julio	2023-10-07T00:00:00	2024-11-08T12:00:00	4	Temperatura máxima	22.1
34507	7	Sololá	701	Sololá	1	Sololá	7	Julio	2023-10-07T00:00:00	2024-11-08T12:00:00	3	Temperatura mínima	20.4
34508	7	Sololá	701	Sololá	1	Sololá	7	Julio	2023-10-07T00:00:00	2024-11-08T12:00:00	5	Humedad	70
34509	7	Sololá	701	Sololá	1	Sololá	7	Julio	2023-10-07T00:00:00	2024-11-08T12:00:00	6	Velocidad del viento	0
34510	7	Sololá	701	Sololá	1	Sololá	7	Julio	2023-10-07T00:00:00	2024-11-08T12:00:00	7	Dirección del viento	0
34511	7	Sololá	701	Sololá	1	Sololá	7	Julio	2023-10-07T00:00:00	2024-11-08T12:00:00	1	Precipitación	0
34512	7	Sololá	701	Sololá	1	Sololá	7	Julio	2023-10-07T00:00:00	2024-11-08T12:00:00	8	Radiación solar	282
34513	7	Sololá	701	Sololá	1	Sololá	7	Julio	2023-10-07T00:00:00	2024-11-08T13:00:00	2	Temperatura media	21.8
34514	7	Sololá	701	Sololá	1	Sololá	7	Julio	2023-10-07T00:00:00	2024-11-08T13:00:00	4	Temperatura máxima	22.6
34515	7	Sololá	701	Sololá	1	Sololá	7	Julio	2023-10-07T00:00:00	2024-11-08T13:00:00	3	Temperatura mínima	21.7
34516	7	Sololá	701	Sololá	1	Sololá	7	Julio	2023-10-07T00:00:00	2024-11-08T13:00:00	5	Humedad	71
34517	7	Sololá	701	Sololá	1	Sololá	7	Julio	2023-10-07T00:00:00	2024-11-08T13:00:00	6	Velocidad del viento	0
34518	7	Sololá	701	Sololá	1	Sololá	7	Julio	2023-10-07T00:00:00	2024-11-08T13:00:00	7	Dirección del viento	0
34519	7	Sololá	701	Sololá	1	Sololá	7	Julio	2023-10-07T00:00:00	2024-11-08T13:00:00	1	Precipitación	0
34520	7	Sololá	701	Sololá	1	Sololá	7	Julio	2023-10-07T00:00:00	2024-11-08T13:00:00	8	Radiación solar	161
34521	7	Sololá	701	Sololá	1	Sololá	7	Julio	2023-10-07T00:00:00	2024-11-08T14:00:00	2	Temperatura media	22.5
34522	7	Sololá	701	Sololá	1	Sololá	7	Julio	2023-10-07T00:00:00	2024-11-08T14:00:00	4	Temperatura máxima	22.5
34523	7	Sololá	701	Sololá	1	Sololá	7	Julio	2023-10-07T00:00:00	2024-11-08T14:00:00	3	Temperatura mínima	21.8
34524	7	Sololá	701	Sololá	1	Sololá	7	Julio	2023-10-07T00:00:00	2024-11-08T14:00:00	5	Humedad	66
34525	7	Sololá	701	Sololá	1	Sololá	7	Julio	2023-10-07T00:00:00	2024-11-08T14:00:00	6	Velocidad del viento	0
34526	7	Sololá	701	Sololá	1	Sololá	7	Julio	2023-10-07T00:00:00	2024-11-08T14:00:00	7	Dirección del viento	0
34527	7	Sololá	701	Sololá	1	Sololá	7	Julio	2023-10-07T00:00:00	2024-11-08T14:00:00	1	Precipitación	0
34528	7	Sololá	701	Sololá	1	Sololá	7	Julio	2023-10-07T00:00:00	2024-11-08T14:00:00	8	Radiación solar	117
34529	7	Sololá	701	Sololá	1	Sololá	7	Julio	2023-10-07T00:00:00	2024-11-08T15:00:00	2	Temperatura media	22.7
34530	7	Sololá	701	Sololá	1	Sololá	7	Julio	2023-10-07T00:00:00	2024-11-08T15:00:00	4	Temperatura máxima	22.8
34531	7	Sololá	701	Sololá	1	Sololá	7	Julio	2023-10-07T00:00:00	2024-11-08T15:00:00	3	Temperatura mínima	22.4
34532	7	Sololá	701	Sololá	1	Sololá	7	Julio	2023-10-07T00:00:00	2024-11-08T15:00:00	5	Humedad	77
34533	7	Sololá	701	Sololá	1	Sololá	7	Julio	2023-10-07T00:00:00	2024-11-08T15:00:00	6	Velocidad del viento	0
34534	7	Sololá	701	Sololá	1	Sololá	7	Julio	2023-10-07T00:00:00	2024-11-08T15:00:00	7	Dirección del viento	0
34535	7	Sololá	701	Sololá	1	Sololá	7	Julio	2023-10-07T00:00:00	2024-11-08T15:00:00	1	Precipitación	0
34536	7	Sololá	701	Sololá	1	Sololá	7	Julio	2023-10-07T00:00:00	2024-11-08T15:00:00	8	Radiación solar	100
34537	7	Sololá	701	Sololá	1	Sololá	7	Julio	2023-10-07T00:00:00	2024-11-08T16:00:00	2	Temperatura media	21.3
34538	7	Sololá	701	Sololá	1	Sololá	7	Julio	2023-10-07T00:00:00	2024-11-08T16:00:00	4	Temperatura máxima	22.7
34539	7	Sololá	701	Sololá	1	Sololá	7	Julio	2023-10-07T00:00:00	2024-11-08T16:00:00	3	Temperatura mínima	21.3
34540	7	Sololá	701	Sololá	1	Sololá	7	Julio	2023-10-07T00:00:00	2024-11-08T16:00:00	5	Humedad	84
34541	7	Sololá	701	Sololá	1	Sololá	7	Julio	2023-10-07T00:00:00	2024-11-08T16:00:00	6	Velocidad del viento	0
34542	7	Sololá	701	Sololá	1	Sololá	7	Julio	2023-10-07T00:00:00	2024-11-08T16:00:00	7	Dirección del viento	0
34543	7	Sololá	701	Sololá	1	Sololá	7	Julio	2023-10-07T00:00:00	2024-11-08T16:00:00	1	Precipitación	0
34544	7	Sololá	701	Sololá	1	Sololá	7	Julio	2023-10-07T00:00:00	2024-11-08T16:00:00	8	Radiación solar	110
34545	7	Sololá	701	Sololá	1	Sololá	7	Julio	2023-10-07T00:00:00	2024-11-08T17:00:00	2	Temperatura media	18.5
34546	7	Sololá	701	Sololá	1	Sololá	7	Julio	2023-10-07T00:00:00	2024-11-08T17:00:00	4	Temperatura máxima	21.2
34547	7	Sololá	701	Sololá	1	Sololá	7	Julio	2023-10-07T00:00:00	2024-11-08T17:00:00	3	Temperatura mínima	18.5
34548	7	Sololá	701	Sololá	1	Sololá	7	Julio	2023-10-07T00:00:00	2024-11-08T17:00:00	5	Humedad	91
34549	7	Sololá	701	Sololá	1	Sololá	7	Julio	2023-10-07T00:00:00	2024-11-08T17:00:00	6	Velocidad del viento	0
34550	7	Sololá	701	Sololá	1	Sololá	7	Julio	2023-10-07T00:00:00	2024-11-08T17:00:00	7	Dirección del viento	0
34551	7	Sololá	701	Sololá	1	Sololá	7	Julio	2023-10-07T00:00:00	2024-11-08T17:00:00	1	Precipitación	0
34552	7	Sololá	701	Sololá	1	Sololá	7	Julio	2023-10-07T00:00:00	2024-11-08T17:00:00	8	Radiación solar	18
34553	7	Sololá	701	Sololá	1	Sololá	7	Julio	2023-10-07T00:00:00	2024-11-08T18:00:00	2	Temperatura media	18.3
34554	7	Sololá	701	Sololá	1	Sololá	7	Julio	2023-10-07T00:00:00	2024-11-08T18:00:00	4	Temperatura máxima	18.6
34555	7	Sololá	701	Sololá	1	Sololá	7	Julio	2023-10-07T00:00:00	2024-11-08T18:00:00	3	Temperatura mínima	18.2
34556	7	Sololá	701	Sololá	1	Sololá	7	Julio	2023-10-07T00:00:00	2024-11-08T18:00:00	5	Humedad	92
34557	7	Sololá	701	Sololá	1	Sololá	7	Julio	2023-10-07T00:00:00	2024-11-08T18:00:00	6	Velocidad del viento	0
34558	7	Sololá	701	Sololá	1	Sololá	7	Julio	2023-10-07T00:00:00	2024-11-08T18:00:00	7	Dirección del viento	0
34559	7	Sololá	701	Sololá	1	Sololá	7	Julio	2023-10-07T00:00:00	2024-11-08T18:00:00	1	Precipitación	0
34560	7	Sololá	701	Sololá	1	Sololá	7	Julio	2023-10-07T00:00:00	2024-11-08T18:00:00	8	Radiación solar	23
34561	7	Sololá	701	Sololá	1	Sololá	7	Julio	2023-10-07T00:00:00	2024-11-08T19:00:00	2	Temperatura media	17.9
34562	7	Sololá	701	Sololá	1	Sololá	7	Julio	2023-10-07T00:00:00	2024-11-08T19:00:00	4	Temperatura máxima	18.3
34563	7	Sololá	701	Sololá	1	Sololá	7	Julio	2023-10-07T00:00:00	2024-11-08T19:00:00	3	Temperatura mínima	17.8
34564	7	Sololá	701	Sololá	1	Sololá	7	Julio	2023-10-07T00:00:00	2024-11-08T19:00:00	5	Humedad	92
34565	7	Sololá	701	Sololá	1	Sololá	7	Julio	2023-10-07T00:00:00	2024-11-08T19:00:00	6	Velocidad del viento	0
34566	7	Sololá	701	Sololá	1	Sololá	7	Julio	2023-10-07T00:00:00	2024-11-08T19:00:00	7	Dirección del viento	0
34567	7	Sololá	701	Sololá	1	Sololá	7	Julio	2023-10-07T00:00:00	2024-11-08T19:00:00	1	Precipitación	0
34568	7	Sololá	701	Sololá	1	Sololá	7	Julio	2023-10-07T00:00:00	2024-11-08T19:00:00	8	Radiación solar	0
34569	7	Sololá	701	Sololá	1	Sololá	7	Julio	2023-10-07T00:00:00	2024-11-08T20:00:00	2	Temperatura media	15.8
34570	7	Sololá	701	Sololá	1	Sololá	7	Julio	2023-10-07T00:00:00	2024-11-08T20:00:00	4	Temperatura máxima	17.9
34571	7	Sololá	701	Sololá	1	Sololá	7	Julio	2023-10-07T00:00:00	2024-11-08T20:00:00	3	Temperatura mínima	15.7
34572	7	Sololá	701	Sololá	1	Sololá	7	Julio	2023-10-07T00:00:00	2024-11-08T20:00:00	5	Humedad	81
34573	7	Sololá	701	Sololá	1	Sololá	7	Julio	2023-10-07T00:00:00	2024-11-08T20:00:00	6	Velocidad del viento	0
34574	7	Sololá	701	Sololá	1	Sololá	7	Julio	2023-10-07T00:00:00	2024-11-08T20:00:00	7	Dirección del viento	0
34575	7	Sololá	701	Sololá	1	Sololá	7	Julio	2023-10-07T00:00:00	2024-11-08T20:00:00	1	Precipitación	0
34576	7	Sololá	701	Sololá	1	Sololá	7	Julio	2023-10-07T00:00:00	2024-11-08T20:00:00	8	Radiación solar	0
34577	7	Sololá	701	Sololá	1	Sololá	7	Julio	2023-10-07T00:00:00	2024-11-08T21:00:00	2	Temperatura media	15.6
34578	7	Sololá	701	Sololá	1	Sololá	7	Julio	2023-10-07T00:00:00	2024-11-08T21:00:00	4	Temperatura máxima	15.8
34579	7	Sololá	701	Sololá	1	Sololá	7	Julio	2023-10-07T00:00:00	2024-11-08T21:00:00	3	Temperatura mínima	15.1
34580	7	Sololá	701	Sololá	1	Sololá	7	Julio	2023-10-07T00:00:00	2024-11-08T21:00:00	5	Humedad	91
34581	7	Sololá	701	Sololá	1	Sololá	7	Julio	2023-10-07T00:00:00	2024-11-08T21:00:00	6	Velocidad del viento	0
34582	7	Sololá	701	Sololá	1	Sololá	7	Julio	2023-10-07T00:00:00	2024-11-08T21:00:00	7	Dirección del viento	0
34583	7	Sololá	701	Sololá	1	Sololá	7	Julio	2023-10-07T00:00:00	2024-11-08T21:00:00	1	Precipitación	0
34584	7	Sololá	701	Sololá	1	Sololá	7	Julio	2023-10-07T00:00:00	2024-11-08T21:00:00	8	Radiación solar	0
34585	7	Sololá	701	Sololá	1	Sololá	7	Julio	2023-10-07T00:00:00	2024-11-08T22:00:00	2	Temperatura media	15.4
34586	7	Sololá	701	Sololá	1	Sololá	7	Julio	2023-10-07T00:00:00	2024-11-08T22:00:00	4	Temperatura máxima	15.7
34587	7	Sololá	701	Sololá	1	Sololá	7	Julio	2023-10-07T00:00:00	2024-11-08T22:00:00	3	Temperatura mínima	15.4
34588	7	Sololá	701	Sololá	1	Sololá	7	Julio	2023-10-07T00:00:00	2024-11-08T22:00:00	5	Humedad	92
34589	7	Sololá	701	Sololá	1	Sololá	7	Julio	2023-10-07T00:00:00	2024-11-08T22:00:00	6	Velocidad del viento	0
34590	7	Sololá	701	Sololá	1	Sololá	7	Julio	2023-10-07T00:00:00	2024-11-08T22:00:00	7	Dirección del viento	0
34591	7	Sololá	701	Sololá	1	Sololá	7	Julio	2023-10-07T00:00:00	2024-11-08T22:00:00	1	Precipitación	0.2
34592	7	Sololá	701	Sololá	1	Sololá	7	Julio	2023-10-07T00:00:00	2024-11-08T22:00:00	8	Radiación solar	0
34593	7	Sololá	701	Sololá	1	Sololá	7	Julio	2023-10-07T00:00:00	2024-11-08T23:00:00	2	Temperatura media	14.8
34594	7	Sololá	701	Sololá	1	Sololá	7	Julio	2023-10-07T00:00:00	2024-11-08T23:00:00	4	Temperatura máxima	15.4
34595	7	Sololá	701	Sololá	1	Sololá	7	Julio	2023-10-07T00:00:00	2024-11-08T23:00:00	3	Temperatura mínima	14.7
34596	7	Sololá	701	Sololá	1	Sololá	7	Julio	2023-10-07T00:00:00	2024-11-08T23:00:00	5	Humedad	86
34597	7	Sololá	701	Sololá	1	Sololá	7	Julio	2023-10-07T00:00:00	2024-11-08T23:00:00	6	Velocidad del viento	0
34598	7	Sololá	701	Sololá	1	Sololá	7	Julio	2023-10-07T00:00:00	2024-11-08T23:00:00	7	Dirección del viento	0
34599	7	Sololá	701	Sololá	1	Sololá	7	Julio	2023-10-07T00:00:00	2024-11-08T23:00:00	1	Precipitación	0.2
34600	7	Sololá	701	Sololá	1	Sololá	7	Julio	2023-10-07T00:00:00	2024-11-08T23:00:00	8	Radiación solar	0
34601	7	Sololá	701	Sololá	1	Sololá	7	Julio	2023-11-07T00:00:00	2024-11-08T00:00:00	2	Temperatura media	14.6
34602	7	Sololá	701	Sololá	1	Sololá	7	Julio	2023-11-07T00:00:00	2024-11-08T00:00:00	4	Temperatura máxima	14.8
34603	7	Sololá	701	Sololá	1	Sololá	7	Julio	2023-11-07T00:00:00	2024-11-08T00:00:00	3	Temperatura mínima	14.6
34604	7	Sololá	701	Sololá	1	Sololá	7	Julio	2023-11-07T00:00:00	2024-11-08T00:00:00	5	Humedad	88
34605	7	Sololá	701	Sololá	1	Sololá	7	Julio	2023-11-07T00:00:00	2024-11-08T00:00:00	6	Velocidad del viento	0
34606	7	Sololá	701	Sololá	1	Sololá	7	Julio	2023-11-07T00:00:00	2024-11-08T00:00:00	7	Dirección del viento	0
34607	7	Sololá	701	Sololá	1	Sololá	7	Julio	2023-11-07T00:00:00	2024-11-08T00:00:00	1	Precipitación	0
34608	7	Sololá	701	Sololá	1	Sololá	7	Julio	2023-11-07T00:00:00	2024-11-08T00:00:00	8	Radiación solar	0
34609	7	Sololá	701	Sololá	1	Sololá	7	Julio	2023-11-07T00:00:00	2024-11-08T01:00:00	2	Temperatura media	15.1
34610	7	Sololá	701	Sololá	1	Sololá	7	Julio	2023-11-07T00:00:00	2024-11-08T01:00:00	4	Temperatura máxima	15.1
34611	7	Sololá	701	Sololá	1	Sololá	7	Julio	2023-11-07T00:00:00	2024-11-08T01:00:00	3	Temperatura mínima	14.3
34612	7	Sololá	701	Sololá	1	Sololá	7	Julio	2023-11-07T00:00:00	2024-11-08T01:00:00	5	Humedad	86
34613	7	Sololá	701	Sololá	1	Sololá	7	Julio	2023-11-07T00:00:00	2024-11-08T01:00:00	6	Velocidad del viento	0
34614	7	Sololá	701	Sololá	1	Sololá	7	Julio	2023-11-07T00:00:00	2024-11-08T01:00:00	7	Dirección del viento	0
34615	7	Sololá	701	Sololá	1	Sololá	7	Julio	2023-11-07T00:00:00	2024-11-08T01:00:00	1	Precipitación	0
34616	7	Sololá	701	Sololá	1	Sololá	7	Julio	2023-11-07T00:00:00	2024-11-08T01:00:00	8	Radiación solar	0
34617	7	Sololá	701	Sololá	1	Sololá	7	Julio	2023-11-07T00:00:00	2024-11-08T02:00:00	2	Temperatura media	15.3
34618	7	Sololá	701	Sololá	1	Sololá	7	Julio	2023-11-07T00:00:00	2024-11-08T02:00:00	4	Temperatura máxima	15.4
34619	7	Sololá	701	Sololá	1	Sololá	7	Julio	2023-11-07T00:00:00	2024-11-08T02:00:00	3	Temperatura mínima	15
34620	7	Sololá	701	Sololá	1	Sololá	7	Julio	2023-11-07T00:00:00	2024-11-08T02:00:00	5	Humedad	85
34621	7	Sololá	701	Sololá	1	Sololá	7	Julio	2023-11-07T00:00:00	2024-11-08T02:00:00	6	Velocidad del viento	0
34622	7	Sololá	701	Sololá	1	Sololá	7	Julio	2023-11-07T00:00:00	2024-11-08T02:00:00	7	Dirección del viento	0
34623	7	Sololá	701	Sololá	1	Sololá	7	Julio	2023-11-07T00:00:00	2024-11-08T02:00:00	1	Precipitación	0
34624	7	Sololá	701	Sololá	1	Sololá	7	Julio	2023-11-07T00:00:00	2024-11-08T02:00:00	8	Radiación solar	0
34625	7	Sololá	701	Sololá	1	Sololá	7	Julio	2023-11-07T00:00:00	2024-11-08T03:00:00	2	Temperatura media	14.8
34626	7	Sololá	701	Sololá	1	Sololá	7	Julio	2023-11-07T00:00:00	2024-11-08T03:00:00	4	Temperatura máxima	15.3
34627	7	Sololá	701	Sololá	1	Sololá	7	Julio	2023-11-07T00:00:00	2024-11-08T03:00:00	3	Temperatura mínima	14.8
34628	7	Sololá	701	Sololá	1	Sololá	7	Julio	2023-11-07T00:00:00	2024-11-08T03:00:00	5	Humedad	85
34629	7	Sololá	701	Sololá	1	Sololá	7	Julio	2023-11-07T00:00:00	2024-11-08T03:00:00	6	Velocidad del viento	0
34630	7	Sololá	701	Sololá	1	Sololá	7	Julio	2023-11-07T00:00:00	2024-11-08T03:00:00	7	Dirección del viento	0
34631	7	Sololá	701	Sololá	1	Sololá	7	Julio	2023-11-07T00:00:00	2024-11-08T03:00:00	1	Precipitación	0
34632	7	Sololá	701	Sololá	1	Sololá	7	Julio	2023-11-07T00:00:00	2024-11-08T03:00:00	8	Radiación solar	0
34633	7	Sololá	701	Sololá	1	Sololá	7	Julio	2023-11-07T00:00:00	2024-11-08T04:00:00	2	Temperatura media	14.3
34634	7	Sololá	701	Sololá	1	Sololá	7	Julio	2023-11-07T00:00:00	2024-11-08T04:00:00	4	Temperatura máxima	14.8
34635	7	Sololá	701	Sololá	1	Sololá	7	Julio	2023-11-07T00:00:00	2024-11-08T04:00:00	3	Temperatura mínima	14.2
34636	7	Sololá	701	Sololá	1	Sololá	7	Julio	2023-11-07T00:00:00	2024-11-08T04:00:00	5	Humedad	85
34637	7	Sololá	701	Sololá	1	Sololá	7	Julio	2023-11-07T00:00:00	2024-11-08T04:00:00	6	Velocidad del viento	0
34638	7	Sololá	701	Sololá	1	Sololá	7	Julio	2023-11-07T00:00:00	2024-11-08T04:00:00	7	Dirección del viento	0
34639	7	Sololá	701	Sololá	1	Sololá	7	Julio	2023-11-07T00:00:00	2024-11-08T04:00:00	1	Precipitación	0
34640	7	Sololá	701	Sololá	1	Sololá	7	Julio	2023-11-07T00:00:00	2024-11-08T04:00:00	8	Radiación solar	0
34641	7	Sololá	701	Sololá	1	Sololá	7	Julio	2023-11-07T00:00:00	2024-11-08T05:00:00	2	Temperatura media	15.2
34642	7	Sololá	701	Sololá	1	Sololá	7	Julio	2023-11-07T00:00:00	2024-11-08T05:00:00	4	Temperatura máxima	15.2
34643	7	Sololá	701	Sololá	1	Sololá	7	Julio	2023-11-07T00:00:00	2024-11-08T05:00:00	3	Temperatura mínima	14.1
34644	7	Sololá	701	Sololá	1	Sololá	7	Julio	2023-11-07T00:00:00	2024-11-08T05:00:00	5	Humedad	85
34645	7	Sololá	701	Sololá	1	Sololá	7	Julio	2023-11-07T00:00:00	2024-11-08T05:00:00	6	Velocidad del viento	0
34646	7	Sololá	701	Sololá	1	Sololá	7	Julio	2023-11-07T00:00:00	2024-11-08T05:00:00	7	Dirección del viento	0
34647	7	Sololá	701	Sololá	1	Sololá	7	Julio	2023-11-07T00:00:00	2024-11-08T05:00:00	1	Precipitación	0
34648	7	Sololá	701	Sololá	1	Sololá	7	Julio	2023-11-07T00:00:00	2024-11-08T05:00:00	8	Radiación solar	0
34649	7	Sololá	701	Sololá	1	Sololá	7	Julio	2023-11-07T00:00:00	2024-11-08T06:00:00	2	Temperatura media	15.2
34650	7	Sololá	701	Sololá	1	Sololá	7	Julio	2023-11-07T00:00:00	2024-11-08T06:00:00	4	Temperatura máxima	15.6
34651	7	Sololá	701	Sololá	1	Sololá	7	Julio	2023-11-07T00:00:00	2024-11-08T06:00:00	3	Temperatura mínima	15.2
34652	7	Sololá	701	Sololá	1	Sololá	7	Julio	2023-11-07T00:00:00	2024-11-08T06:00:00	5	Humedad	85
34653	7	Sololá	701	Sololá	1	Sololá	7	Julio	2023-11-07T00:00:00	2024-11-08T06:00:00	6	Velocidad del viento	0
34654	7	Sololá	701	Sololá	1	Sololá	7	Julio	2023-11-07T00:00:00	2024-11-08T06:00:00	7	Dirección del viento	0
34655	7	Sololá	701	Sololá	1	Sololá	7	Julio	2023-11-07T00:00:00	2024-11-08T06:00:00	1	Precipitación	0
34656	7	Sololá	701	Sololá	1	Sololá	7	Julio	2023-11-07T00:00:00	2024-11-08T06:00:00	8	Radiación solar	1
34657	7	Sololá	701	Sololá	1	Sololá	7	Julio	2023-11-07T00:00:00	2024-11-08T07:00:00	2	Temperatura media	15.6
34658	7	Sololá	701	Sololá	1	Sololá	7	Julio	2023-11-07T00:00:00	2024-11-08T07:00:00	4	Temperatura máxima	15.6
34659	7	Sololá	701	Sololá	1	Sololá	7	Julio	2023-11-07T00:00:00	2024-11-08T07:00:00	3	Temperatura mínima	15.1
34660	7	Sololá	701	Sololá	1	Sololá	7	Julio	2023-11-07T00:00:00	2024-11-08T07:00:00	5	Humedad	85
34661	7	Sololá	701	Sololá	1	Sololá	7	Julio	2023-11-07T00:00:00	2024-11-08T07:00:00	6	Velocidad del viento	0
34662	7	Sololá	701	Sololá	1	Sololá	7	Julio	2023-11-07T00:00:00	2024-11-08T07:00:00	7	Dirección del viento	0
34663	7	Sololá	701	Sololá	1	Sololá	7	Julio	2023-11-07T00:00:00	2024-11-08T07:00:00	1	Precipitación	0
34664	7	Sololá	701	Sololá	1	Sololá	7	Julio	2023-11-07T00:00:00	2024-11-08T07:00:00	8	Radiación solar	38
34665	7	Sololá	701	Sololá	1	Sololá	7	Julio	2023-11-07T00:00:00	2024-11-08T08:00:00	2	Temperatura media	16.6
34666	7	Sololá	701	Sololá	1	Sololá	7	Julio	2023-11-07T00:00:00	2024-11-08T08:00:00	4	Temperatura máxima	16.6
34667	7	Sololá	701	Sololá	1	Sololá	7	Julio	2023-11-07T00:00:00	2024-11-08T08:00:00	3	Temperatura mínima	15.6
34668	7	Sololá	701	Sololá	1	Sololá	7	Julio	2023-11-07T00:00:00	2024-11-08T08:00:00	5	Humedad	82
34669	7	Sololá	701	Sololá	1	Sololá	7	Julio	2023-11-07T00:00:00	2024-11-08T08:00:00	6	Velocidad del viento	0
34670	7	Sololá	701	Sololá	1	Sololá	7	Julio	2023-11-07T00:00:00	2024-11-08T08:00:00	7	Dirección del viento	0
34671	7	Sololá	701	Sololá	1	Sololá	7	Julio	2023-11-07T00:00:00	2024-11-08T08:00:00	1	Precipitación	0
34672	7	Sololá	701	Sololá	1	Sololá	7	Julio	2023-11-07T00:00:00	2024-11-08T08:00:00	8	Radiación solar	98
34673	7	Sololá	701	Sololá	1	Sololá	7	Julio	2023-11-07T00:00:00	2024-11-08T09:00:00	2	Temperatura media	19.6
34674	7	Sololá	701	Sololá	1	Sololá	7	Julio	2023-11-07T00:00:00	2024-11-08T09:00:00	4	Temperatura máxima	19.6
34675	7	Sololá	701	Sololá	1	Sololá	7	Julio	2023-11-07T00:00:00	2024-11-08T09:00:00	3	Temperatura mínima	16.6
34676	7	Sololá	701	Sololá	1	Sololá	7	Julio	2023-11-07T00:00:00	2024-11-08T09:00:00	5	Humedad	75
34677	7	Sololá	701	Sololá	1	Sololá	7	Julio	2023-11-07T00:00:00	2024-11-08T09:00:00	6	Velocidad del viento	0
34678	7	Sololá	701	Sololá	1	Sololá	7	Julio	2023-11-07T00:00:00	2024-11-08T09:00:00	7	Dirección del viento	0
34679	7	Sololá	701	Sololá	1	Sololá	7	Julio	2023-11-07T00:00:00	2024-11-08T09:00:00	1	Precipitación	0
34680	7	Sololá	701	Sololá	1	Sololá	7	Julio	2023-11-07T00:00:00	2024-11-08T09:00:00	8	Radiación solar	349
34681	7	Sololá	701	Sololá	1	Sololá	7	Julio	2023-11-07T00:00:00	2024-11-08T10:00:00	2	Temperatura media	21.3
34682	7	Sololá	701	Sololá	1	Sololá	7	Julio	2023-11-07T00:00:00	2024-11-08T10:00:00	4	Temperatura máxima	21.4
34683	7	Sololá	701	Sololá	1	Sololá	7	Julio	2023-11-07T00:00:00	2024-11-08T10:00:00	3	Temperatura mínima	19.6
34684	7	Sololá	701	Sololá	1	Sololá	7	Julio	2023-11-07T00:00:00	2024-11-08T10:00:00	5	Humedad	70
34685	7	Sololá	701	Sololá	1	Sololá	7	Julio	2023-11-07T00:00:00	2024-11-08T10:00:00	6	Velocidad del viento	0
34686	7	Sololá	701	Sololá	1	Sololá	7	Julio	2023-11-07T00:00:00	2024-11-08T10:00:00	7	Dirección del viento	0
34687	7	Sololá	701	Sololá	1	Sololá	7	Julio	2023-11-07T00:00:00	2024-11-08T10:00:00	1	Precipitación	0
34688	7	Sololá	701	Sololá	1	Sololá	7	Julio	2023-11-07T00:00:00	2024-11-08T10:00:00	8	Radiación solar	574
34689	7	Sololá	701	Sololá	1	Sololá	7	Julio	2023-11-07T00:00:00	2024-11-08T11:00:00	2	Temperatura media	22.8
34690	7	Sololá	701	Sololá	1	Sololá	7	Julio	2023-11-07T00:00:00	2024-11-08T11:00:00	4	Temperatura máxima	22.9
34691	7	Sololá	701	Sololá	1	Sololá	7	Julio	2023-11-07T00:00:00	2024-11-08T11:00:00	3	Temperatura mínima	21.2
34692	7	Sololá	701	Sololá	1	Sololá	7	Julio	2023-11-07T00:00:00	2024-11-08T11:00:00	5	Humedad	66
34693	7	Sololá	701	Sololá	1	Sololá	7	Julio	2023-11-07T00:00:00	2024-11-08T11:00:00	6	Velocidad del viento	0
34694	7	Sololá	701	Sololá	1	Sololá	7	Julio	2023-11-07T00:00:00	2024-11-08T11:00:00	7	Dirección del viento	0
34695	7	Sololá	701	Sololá	1	Sololá	7	Julio	2023-11-07T00:00:00	2024-11-08T11:00:00	1	Precipitación	0
34696	7	Sololá	701	Sololá	1	Sololá	7	Julio	2023-11-07T00:00:00	2024-11-08T11:00:00	8	Radiación solar	606
34697	7	Sololá	701	Sololá	1	Sololá	7	Julio	2023-11-07T00:00:00	2024-11-08T12:00:00	2	Temperatura media	23.8
34698	7	Sololá	701	Sololá	1	Sololá	7	Julio	2023-11-07T00:00:00	2024-11-08T12:00:00	4	Temperatura máxima	23.8
34699	7	Sololá	701	Sololá	1	Sololá	7	Julio	2023-11-07T00:00:00	2024-11-08T12:00:00	3	Temperatura mínima	22.5
34700	7	Sololá	701	Sololá	1	Sololá	7	Julio	2023-11-07T00:00:00	2024-11-08T12:00:00	5	Humedad	65
34701	7	Sololá	701	Sololá	1	Sololá	7	Julio	2023-11-07T00:00:00	2024-11-08T12:00:00	6	Velocidad del viento	0
34702	7	Sololá	701	Sololá	1	Sololá	7	Julio	2023-11-07T00:00:00	2024-11-08T12:00:00	7	Dirección del viento	0
34703	7	Sololá	701	Sololá	1	Sololá	7	Julio	2023-11-07T00:00:00	2024-11-08T12:00:00	1	Precipitación	0
34704	7	Sololá	701	Sololá	1	Sololá	7	Julio	2023-11-07T00:00:00	2024-11-08T12:00:00	8	Radiación solar	453
34705	7	Sololá	701	Sololá	1	Sololá	7	Julio	2023-11-07T00:00:00	2024-11-08T13:00:00	2	Temperatura media	23.7
34706	7	Sololá	701	Sololá	1	Sololá	7	Julio	2023-11-07T00:00:00	2024-11-08T13:00:00	4	Temperatura máxima	24.1
34707	7	Sololá	701	Sololá	1	Sololá	7	Julio	2023-11-07T00:00:00	2024-11-08T13:00:00	3	Temperatura mínima	23.3
34708	7	Sololá	701	Sololá	1	Sololá	7	Julio	2023-11-07T00:00:00	2024-11-08T13:00:00	5	Humedad	64
34709	7	Sololá	701	Sololá	1	Sololá	7	Julio	2023-11-07T00:00:00	2024-11-08T13:00:00	6	Velocidad del viento	0
34710	7	Sololá	701	Sololá	1	Sololá	7	Julio	2023-11-07T00:00:00	2024-11-08T13:00:00	7	Dirección del viento	0
34711	7	Sololá	701	Sololá	1	Sololá	7	Julio	2023-11-07T00:00:00	2024-11-08T13:00:00	1	Precipitación	0
34712	7	Sololá	701	Sololá	1	Sololá	7	Julio	2023-11-07T00:00:00	2024-11-08T13:00:00	8	Radiación solar	242
34713	7	Sololá	701	Sololá	1	Sololá	7	Julio	2023-11-07T00:00:00	2024-11-08T14:00:00	2	Temperatura media	24.4
34714	7	Sololá	701	Sololá	1	Sololá	7	Julio	2023-11-07T00:00:00	2024-11-08T14:00:00	4	Temperatura máxima	24.6
34715	7	Sololá	701	Sololá	1	Sololá	7	Julio	2023-11-07T00:00:00	2024-11-08T14:00:00	3	Temperatura mínima	23.5
34716	7	Sololá	701	Sololá	1	Sololá	7	Julio	2023-11-07T00:00:00	2024-11-08T14:00:00	5	Humedad	58
34717	7	Sololá	701	Sololá	1	Sololá	7	Julio	2023-11-07T00:00:00	2024-11-08T14:00:00	6	Velocidad del viento	0
34718	7	Sololá	701	Sololá	1	Sololá	7	Julio	2023-11-07T00:00:00	2024-11-08T14:00:00	7	Dirección del viento	0
34719	7	Sololá	701	Sololá	1	Sololá	7	Julio	2023-11-07T00:00:00	2024-11-08T14:00:00	1	Precipitación	0
34720	7	Sololá	701	Sololá	1	Sololá	7	Julio	2023-11-07T00:00:00	2024-11-08T14:00:00	8	Radiación solar	168
34721	7	Sololá	701	Sololá	1	Sololá	7	Julio	2023-11-07T00:00:00	2024-11-08T15:00:00	2	Temperatura media	24.4
34722	7	Sololá	701	Sololá	1	Sololá	7	Julio	2023-11-07T00:00:00	2024-11-08T15:00:00	4	Temperatura máxima	24.4
34723	7	Sololá	701	Sololá	1	Sololá	7	Julio	2023-11-07T00:00:00	2024-11-08T15:00:00	3	Temperatura mínima	23.6
34724	7	Sololá	701	Sololá	1	Sololá	7	Julio	2023-11-07T00:00:00	2024-11-08T15:00:00	5	Humedad	58
34725	7	Sololá	701	Sololá	1	Sololá	7	Julio	2023-11-07T00:00:00	2024-11-08T15:00:00	6	Velocidad del viento	0
34726	7	Sololá	701	Sololá	1	Sololá	7	Julio	2023-11-07T00:00:00	2024-11-08T15:00:00	7	Dirección del viento	0
34727	7	Sololá	701	Sololá	1	Sololá	7	Julio	2023-11-07T00:00:00	2024-11-08T15:00:00	1	Precipitación	0
34728	7	Sololá	701	Sololá	1	Sololá	7	Julio	2023-11-07T00:00:00	2024-11-08T15:00:00	8	Radiación solar	114
34729	7	Sololá	701	Sololá	1	Sololá	7	Julio	2023-11-07T00:00:00	2024-11-08T16:00:00	2	Temperatura media	24.1
34730	7	Sololá	701	Sololá	1	Sololá	7	Julio	2023-11-07T00:00:00	2024-11-08T16:00:00	4	Temperatura máxima	24.4
34731	7	Sololá	701	Sololá	1	Sololá	7	Julio	2023-11-07T00:00:00	2024-11-08T16:00:00	3	Temperatura mínima	24
34732	7	Sololá	701	Sololá	1	Sololá	7	Julio	2023-11-07T00:00:00	2024-11-08T16:00:00	5	Humedad	63
34733	7	Sololá	701	Sololá	1	Sololá	7	Julio	2023-11-07T00:00:00	2024-11-08T16:00:00	6	Velocidad del viento	0
34734	7	Sololá	701	Sololá	1	Sololá	7	Julio	2023-11-07T00:00:00	2024-11-08T16:00:00	7	Dirección del viento	0
34735	7	Sololá	701	Sololá	1	Sololá	7	Julio	2023-11-07T00:00:00	2024-11-08T16:00:00	1	Precipitación	0
34736	7	Sololá	701	Sololá	1	Sololá	7	Julio	2023-11-07T00:00:00	2024-11-08T16:00:00	8	Radiación solar	103
34737	7	Sololá	701	Sololá	1	Sololá	7	Julio	2023-11-07T00:00:00	2024-11-08T17:00:00	2	Temperatura media	21.7
34738	7	Sololá	701	Sololá	1	Sololá	7	Julio	2023-11-07T00:00:00	2024-11-08T17:00:00	4	Temperatura máxima	24.2
34739	7	Sololá	701	Sololá	1	Sololá	7	Julio	2023-11-07T00:00:00	2024-11-08T17:00:00	3	Temperatura mínima	21.7
34740	7	Sololá	701	Sololá	1	Sololá	7	Julio	2023-11-07T00:00:00	2024-11-08T17:00:00	5	Humedad	68
34741	7	Sololá	701	Sololá	1	Sololá	7	Julio	2023-11-07T00:00:00	2024-11-08T17:00:00	6	Velocidad del viento	0
34742	7	Sololá	701	Sololá	1	Sololá	7	Julio	2023-11-07T00:00:00	2024-11-08T17:00:00	7	Dirección del viento	0
34743	7	Sololá	701	Sololá	1	Sololá	7	Julio	2023-11-07T00:00:00	2024-11-08T17:00:00	1	Precipitación	0
34744	7	Sololá	701	Sololá	1	Sololá	7	Julio	2023-11-07T00:00:00	2024-11-08T17:00:00	8	Radiación solar	53
34745	7	Sololá	701	Sololá	1	Sololá	7	Julio	2023-11-07T00:00:00	2024-11-08T18:00:00	2	Temperatura media	19.9
34746	7	Sololá	701	Sololá	1	Sololá	7	Julio	2023-11-07T00:00:00	2024-11-08T18:00:00	4	Temperatura máxima	21.7
34747	7	Sololá	701	Sololá	1	Sololá	7	Julio	2023-11-07T00:00:00	2024-11-08T18:00:00	3	Temperatura mínima	19.9
34748	7	Sololá	701	Sololá	1	Sololá	7	Julio	2023-11-07T00:00:00	2024-11-08T18:00:00	5	Humedad	71
34749	7	Sololá	701	Sololá	1	Sololá	7	Julio	2023-11-07T00:00:00	2024-11-08T18:00:00	6	Velocidad del viento	0
34750	7	Sololá	701	Sololá	1	Sololá	7	Julio	2023-11-07T00:00:00	2024-11-08T18:00:00	7	Dirección del viento	0
34751	7	Sololá	701	Sololá	1	Sololá	7	Julio	2023-11-07T00:00:00	2024-11-08T18:00:00	1	Precipitación	0
34752	7	Sololá	701	Sololá	1	Sololá	7	Julio	2023-11-07T00:00:00	2024-11-08T18:00:00	8	Radiación solar	26
34753	7	Sololá	701	Sololá	1	Sololá	7	Julio	2023-11-07T00:00:00	2024-11-08T19:00:00	2	Temperatura media	18
34754	7	Sololá	701	Sololá	1	Sololá	7	Julio	2023-11-07T00:00:00	2024-11-08T19:00:00	4	Temperatura máxima	19.9
34755	7	Sololá	701	Sololá	1	Sololá	7	Julio	2023-11-07T00:00:00	2024-11-08T19:00:00	3	Temperatura mínima	18
34756	7	Sololá	701	Sololá	1	Sololá	7	Julio	2023-11-07T00:00:00	2024-11-08T19:00:00	5	Humedad	78
34757	7	Sololá	701	Sololá	1	Sololá	7	Julio	2023-11-07T00:00:00	2024-11-08T19:00:00	6	Velocidad del viento	0
34758	7	Sololá	701	Sololá	1	Sololá	7	Julio	2023-11-07T00:00:00	2024-11-08T19:00:00	7	Dirección del viento	0
34759	7	Sololá	701	Sololá	1	Sololá	7	Julio	2023-11-07T00:00:00	2024-11-08T19:00:00	1	Precipitación	0
34760	7	Sololá	701	Sololá	1	Sololá	7	Julio	2023-11-07T00:00:00	2024-11-08T19:00:00	8	Radiación solar	0
34761	7	Sololá	701	Sololá	1	Sololá	7	Julio	2023-11-07T00:00:00	2024-11-08T20:00:00	2	Temperatura media	17.3
34762	7	Sololá	701	Sololá	1	Sololá	7	Julio	2023-11-07T00:00:00	2024-11-08T20:00:00	4	Temperatura máxima	18
34763	7	Sololá	701	Sololá	1	Sololá	7	Julio	2023-11-07T00:00:00	2024-11-08T20:00:00	3	Temperatura mínima	17.3
34764	7	Sololá	701	Sololá	1	Sololá	7	Julio	2023-11-07T00:00:00	2024-11-08T20:00:00	5	Humedad	81
34765	7	Sololá	701	Sololá	1	Sololá	7	Julio	2023-11-07T00:00:00	2024-11-08T20:00:00	6	Velocidad del viento	0
34766	7	Sololá	701	Sololá	1	Sololá	7	Julio	2023-11-07T00:00:00	2024-11-08T20:00:00	7	Dirección del viento	0
34767	7	Sololá	701	Sololá	1	Sololá	7	Julio	2023-11-07T00:00:00	2024-11-08T20:00:00	1	Precipitación	0
34768	7	Sololá	701	Sololá	1	Sololá	7	Julio	2023-11-07T00:00:00	2024-11-08T20:00:00	8	Radiación solar	0
34769	7	Sololá	701	Sololá	1	Sololá	7	Julio	2023-11-07T00:00:00	2024-11-08T21:00:00	2	Temperatura media	16.9
34770	7	Sololá	701	Sololá	1	Sololá	7	Julio	2023-11-07T00:00:00	2024-11-08T21:00:00	4	Temperatura máxima	17.3
34771	7	Sololá	701	Sololá	1	Sololá	7	Julio	2023-11-07T00:00:00	2024-11-08T21:00:00	3	Temperatura mínima	16.9
34772	7	Sololá	701	Sololá	1	Sololá	7	Julio	2023-11-07T00:00:00	2024-11-08T21:00:00	5	Humedad	82
34773	7	Sololá	701	Sololá	1	Sololá	7	Julio	2023-11-07T00:00:00	2024-11-08T21:00:00	6	Velocidad del viento	0
34774	7	Sololá	701	Sololá	1	Sololá	7	Julio	2023-11-07T00:00:00	2024-11-08T21:00:00	7	Dirección del viento	0
34775	7	Sololá	701	Sololá	1	Sololá	7	Julio	2023-11-07T00:00:00	2024-11-08T21:00:00	1	Precipitación	0
34776	7	Sololá	701	Sololá	1	Sololá	7	Julio	2023-11-07T00:00:00	2024-11-08T21:00:00	8	Radiación solar	0
34777	7	Sololá	701	Sololá	1	Sololá	7	Julio	2023-11-07T00:00:00	2024-11-08T22:00:00	2	Temperatura media	16.8
34778	7	Sololá	701	Sololá	1	Sololá	7	Julio	2023-11-07T00:00:00	2024-11-08T22:00:00	4	Temperatura máxima	17
34779	7	Sololá	701	Sololá	1	Sololá	7	Julio	2023-11-07T00:00:00	2024-11-08T22:00:00	3	Temperatura mínima	16.8
34780	7	Sololá	701	Sololá	1	Sololá	7	Julio	2023-11-07T00:00:00	2024-11-08T22:00:00	5	Humedad	81
34781	7	Sololá	701	Sololá	1	Sololá	7	Julio	2023-11-07T00:00:00	2024-11-08T22:00:00	6	Velocidad del viento	0
34782	7	Sololá	701	Sololá	1	Sololá	7	Julio	2023-11-07T00:00:00	2024-11-08T22:00:00	7	Dirección del viento	0
34783	7	Sololá	701	Sololá	1	Sololá	7	Julio	2023-11-07T00:00:00	2024-11-08T22:00:00	1	Precipitación	0
34784	7	Sololá	701	Sololá	1	Sololá	7	Julio	2023-11-07T00:00:00	2024-11-08T22:00:00	8	Radiación solar	0
34785	7	Sololá	701	Sololá	1	Sololá	7	Julio	2023-11-07T00:00:00	2024-11-08T23:00:00	2	Temperatura media	16.6
34786	7	Sololá	701	Sololá	1	Sololá	7	Julio	2023-11-07T00:00:00	2024-11-08T23:00:00	4	Temperatura máxima	16.8
34787	7	Sololá	701	Sololá	1	Sololá	7	Julio	2023-11-07T00:00:00	2024-11-08T23:00:00	3	Temperatura mínima	16.6
34788	7	Sololá	701	Sololá	1	Sololá	7	Julio	2023-11-07T00:00:00	2024-11-08T23:00:00	5	Humedad	83
34789	7	Sololá	701	Sololá	1	Sololá	7	Julio	2023-11-07T00:00:00	2024-11-08T23:00:00	6	Velocidad del viento	0
34790	7	Sololá	701	Sololá	1	Sololá	7	Julio	2023-11-07T00:00:00	2024-11-08T23:00:00	7	Dirección del viento	0
34791	7	Sololá	701	Sololá	1	Sololá	7	Julio	2023-11-07T00:00:00	2024-11-08T23:00:00	1	Precipitación	0
34792	7	Sololá	701	Sololá	1	Sololá	7	Julio	2023-11-07T00:00:00	2024-11-08T23:00:00	8	Radiación solar	0
34793	7	Sololá	701	Sololá	1	Sololá	7	Julio	2023-12-07T00:00:00	2024-11-08T00:00:00	2	Temperatura media	16.4
34794	7	Sololá	701	Sololá	1	Sololá	7	Julio	2023-12-07T00:00:00	2024-11-08T00:00:00	4	Temperatura máxima	16.6
34795	7	Sololá	701	Sololá	1	Sololá	7	Julio	2023-12-07T00:00:00	2024-11-08T00:00:00	3	Temperatura mínima	16.3
34796	7	Sololá	701	Sololá	1	Sololá	7	Julio	2023-12-07T00:00:00	2024-11-08T00:00:00	5	Humedad	83
34797	7	Sololá	701	Sololá	1	Sololá	7	Julio	2023-12-07T00:00:00	2024-11-08T00:00:00	6	Velocidad del viento	0
34798	7	Sololá	701	Sololá	1	Sololá	7	Julio	2023-12-07T00:00:00	2024-11-08T00:00:00	7	Dirección del viento	0
34799	7	Sololá	701	Sololá	1	Sololá	7	Julio	2023-12-07T00:00:00	2024-11-08T00:00:00	1	Precipitación	0
34800	7	Sololá	701	Sololá	1	Sololá	7	Julio	2023-12-07T00:00:00	2024-11-08T00:00:00	8	Radiación solar	0
34801	7	Sololá	701	Sololá	1	Sololá	7	Julio	2023-12-07T00:00:00	2024-11-08T01:00:00	2	Temperatura media	15.4
34802	7	Sololá	701	Sololá	1	Sololá	7	Julio	2023-12-07T00:00:00	2024-11-08T01:00:00	4	Temperatura máxima	16.4
34803	7	Sololá	701	Sololá	1	Sololá	7	Julio	2023-12-07T00:00:00	2024-11-08T01:00:00	3	Temperatura mínima	15.3
34804	7	Sololá	701	Sololá	1	Sololá	7	Julio	2023-12-07T00:00:00	2024-11-08T01:00:00	5	Humedad	86
34805	7	Sololá	701	Sololá	1	Sololá	7	Julio	2023-12-07T00:00:00	2024-11-08T01:00:00	6	Velocidad del viento	0
34806	7	Sololá	701	Sololá	1	Sololá	7	Julio	2023-12-07T00:00:00	2024-11-08T01:00:00	7	Dirección del viento	0
34807	7	Sololá	701	Sololá	1	Sololá	7	Julio	2023-12-07T00:00:00	2024-11-08T01:00:00	1	Precipitación	0
34808	7	Sololá	701	Sololá	1	Sololá	7	Julio	2023-12-07T00:00:00	2024-11-08T01:00:00	8	Radiación solar	0
34809	7	Sololá	701	Sololá	1	Sololá	7	Julio	2023-12-07T00:00:00	2024-11-08T02:00:00	2	Temperatura media	15.2
34810	7	Sololá	701	Sololá	1	Sololá	7	Julio	2023-12-07T00:00:00	2024-11-08T02:00:00	4	Temperatura máxima	15.3
34811	7	Sololá	701	Sololá	1	Sololá	7	Julio	2023-12-07T00:00:00	2024-11-08T02:00:00	3	Temperatura mínima	14.8
34812	7	Sololá	701	Sololá	1	Sololá	7	Julio	2023-12-07T00:00:00	2024-11-08T02:00:00	5	Humedad	85
34813	7	Sololá	701	Sololá	1	Sololá	7	Julio	2023-12-07T00:00:00	2024-11-08T02:00:00	6	Velocidad del viento	0
34814	7	Sololá	701	Sololá	1	Sololá	7	Julio	2023-12-07T00:00:00	2024-11-08T02:00:00	7	Dirección del viento	0
34815	7	Sololá	701	Sololá	1	Sololá	7	Julio	2023-12-07T00:00:00	2024-11-08T02:00:00	1	Precipitación	0
34816	7	Sololá	701	Sololá	1	Sololá	7	Julio	2023-12-07T00:00:00	2024-11-08T02:00:00	8	Radiación solar	0
34817	7	Sololá	701	Sololá	1	Sololá	7	Julio	2023-12-07T00:00:00	2024-11-08T03:00:00	2	Temperatura media	15.2
34818	7	Sololá	701	Sololá	1	Sololá	7	Julio	2023-12-07T00:00:00	2024-11-08T03:00:00	4	Temperatura máxima	15.5
34819	7	Sololá	701	Sololá	1	Sololá	7	Julio	2023-12-07T00:00:00	2024-11-08T03:00:00	3	Temperatura mínima	15.2
34820	7	Sololá	701	Sololá	1	Sololá	7	Julio	2023-12-07T00:00:00	2024-11-08T03:00:00	5	Humedad	86
34821	7	Sololá	701	Sololá	1	Sololá	7	Julio	2023-12-07T00:00:00	2024-11-08T03:00:00	6	Velocidad del viento	0
34822	7	Sololá	701	Sololá	1	Sololá	7	Julio	2023-12-07T00:00:00	2024-11-08T03:00:00	7	Dirección del viento	0
34823	7	Sololá	701	Sololá	1	Sololá	7	Julio	2023-12-07T00:00:00	2024-11-08T03:00:00	1	Precipitación	0
34824	7	Sololá	701	Sololá	1	Sololá	7	Julio	2023-12-07T00:00:00	2024-11-08T03:00:00	8	Radiación solar	0
34825	7	Sololá	701	Sololá	1	Sololá	7	Julio	2023-12-07T00:00:00	2024-11-08T04:00:00	2	Temperatura media	15
34826	7	Sololá	701	Sololá	1	Sololá	7	Julio	2023-12-07T00:00:00	2024-11-08T04:00:00	4	Temperatura máxima	15.2
34827	7	Sololá	701	Sololá	1	Sololá	7	Julio	2023-12-07T00:00:00	2024-11-08T04:00:00	3	Temperatura mínima	15
34828	7	Sololá	701	Sololá	1	Sololá	7	Julio	2023-12-07T00:00:00	2024-11-08T04:00:00	5	Humedad	87
34829	7	Sololá	701	Sololá	1	Sololá	7	Julio	2023-12-07T00:00:00	2024-11-08T04:00:00	6	Velocidad del viento	0
34830	7	Sololá	701	Sololá	1	Sololá	7	Julio	2023-12-07T00:00:00	2024-11-08T04:00:00	7	Dirección del viento	0
34831	7	Sololá	701	Sololá	1	Sololá	7	Julio	2023-12-07T00:00:00	2024-11-08T04:00:00	1	Precipitación	0
34832	7	Sololá	701	Sololá	1	Sololá	7	Julio	2023-12-07T00:00:00	2024-11-08T04:00:00	8	Radiación solar	0
34833	7	Sololá	701	Sololá	1	Sololá	7	Julio	2023-12-07T00:00:00	2024-11-08T05:00:00	2	Temperatura media	14.9
34834	7	Sololá	701	Sololá	1	Sololá	7	Julio	2023-12-07T00:00:00	2024-11-08T05:00:00	4	Temperatura máxima	15.1
34835	7	Sololá	701	Sololá	1	Sololá	7	Julio	2023-12-07T00:00:00	2024-11-08T05:00:00	3	Temperatura mínima	14.9
34836	7	Sololá	701	Sololá	1	Sololá	7	Julio	2023-12-07T00:00:00	2024-11-08T05:00:00	5	Humedad	88
34837	7	Sololá	701	Sololá	1	Sololá	7	Julio	2023-12-07T00:00:00	2024-11-08T05:00:00	6	Velocidad del viento	0
34838	7	Sololá	701	Sololá	1	Sololá	7	Julio	2023-12-07T00:00:00	2024-11-08T05:00:00	7	Dirección del viento	0
34839	7	Sololá	701	Sololá	1	Sololá	7	Julio	2023-12-07T00:00:00	2024-11-08T05:00:00	1	Precipitación	0
34840	7	Sololá	701	Sololá	1	Sololá	7	Julio	2023-12-07T00:00:00	2024-11-08T05:00:00	8	Radiación solar	0
34841	7	Sololá	701	Sololá	1	Sololá	7	Julio	2023-12-07T00:00:00	2024-11-08T06:00:00	2	Temperatura media	14.9
34842	7	Sololá	701	Sololá	1	Sololá	7	Julio	2023-12-07T00:00:00	2024-11-08T06:00:00	4	Temperatura máxima	15.1
34843	7	Sololá	701	Sololá	1	Sololá	7	Julio	2023-12-07T00:00:00	2024-11-08T06:00:00	3	Temperatura mínima	14.8
34844	7	Sololá	701	Sololá	1	Sololá	7	Julio	2023-12-07T00:00:00	2024-11-08T06:00:00	5	Humedad	86
34845	7	Sololá	701	Sololá	1	Sololá	7	Julio	2023-12-07T00:00:00	2024-11-08T06:00:00	6	Velocidad del viento	0
34846	7	Sololá	701	Sololá	1	Sololá	7	Julio	2023-12-07T00:00:00	2024-11-08T06:00:00	7	Dirección del viento	0
34847	7	Sololá	701	Sololá	1	Sololá	7	Julio	2023-12-07T00:00:00	2024-11-08T06:00:00	1	Precipitación	0
34848	7	Sololá	701	Sololá	1	Sololá	7	Julio	2023-12-07T00:00:00	2024-11-08T06:00:00	8	Radiación solar	1
34849	7	Sololá	701	Sololá	1	Sololá	7	Julio	2023-12-07T00:00:00	2024-11-08T07:00:00	2	Temperatura media	15.2
34850	7	Sololá	701	Sololá	1	Sololá	7	Julio	2023-12-07T00:00:00	2024-11-08T07:00:00	4	Temperatura máxima	15.2
34851	7	Sololá	701	Sololá	1	Sololá	7	Julio	2023-12-07T00:00:00	2024-11-08T07:00:00	3	Temperatura mínima	14.9
34852	7	Sololá	701	Sololá	1	Sololá	7	Julio	2023-12-07T00:00:00	2024-11-08T07:00:00	5	Humedad	86
34853	7	Sololá	701	Sololá	1	Sololá	7	Julio	2023-12-07T00:00:00	2024-11-08T07:00:00	6	Velocidad del viento	0
34854	7	Sololá	701	Sololá	1	Sololá	7	Julio	2023-12-07T00:00:00	2024-11-08T07:00:00	7	Dirección del viento	0
34855	7	Sololá	701	Sololá	1	Sololá	7	Julio	2023-12-07T00:00:00	2024-11-08T07:00:00	1	Precipitación	0
34856	7	Sololá	701	Sololá	1	Sololá	7	Julio	2023-12-07T00:00:00	2024-11-08T07:00:00	8	Radiación solar	35
34857	7	Sololá	701	Sololá	1	Sololá	7	Julio	2023-12-07T00:00:00	2024-11-08T08:00:00	2	Temperatura media	16.4
34858	7	Sololá	701	Sololá	1	Sololá	7	Julio	2023-12-07T00:00:00	2024-11-08T08:00:00	4	Temperatura máxima	16.4
34859	7	Sololá	701	Sololá	1	Sololá	7	Julio	2023-12-07T00:00:00	2024-11-08T08:00:00	3	Temperatura mínima	15.1
34860	7	Sololá	701	Sololá	1	Sololá	7	Julio	2023-12-07T00:00:00	2024-11-08T08:00:00	5	Humedad	83
34861	7	Sololá	701	Sololá	1	Sololá	7	Julio	2023-12-07T00:00:00	2024-11-08T08:00:00	6	Velocidad del viento	0
34862	7	Sololá	701	Sololá	1	Sololá	7	Julio	2023-12-07T00:00:00	2024-11-08T08:00:00	7	Dirección del viento	0
34863	7	Sololá	701	Sololá	1	Sololá	7	Julio	2023-12-07T00:00:00	2024-11-08T08:00:00	1	Precipitación	0
34864	7	Sololá	701	Sololá	1	Sololá	7	Julio	2023-12-07T00:00:00	2024-11-08T08:00:00	8	Radiación solar	79
34865	7	Sololá	701	Sololá	1	Sololá	7	Julio	2023-12-07T00:00:00	2024-11-08T09:00:00	2	Temperatura media	19.2
34866	7	Sololá	701	Sololá	1	Sololá	7	Julio	2023-12-07T00:00:00	2024-11-08T09:00:00	4	Temperatura máxima	19.2
34867	7	Sololá	701	Sololá	1	Sololá	7	Julio	2023-12-07T00:00:00	2024-11-08T09:00:00	3	Temperatura mínima	16.4
34868	7	Sololá	701	Sololá	1	Sololá	7	Julio	2023-12-07T00:00:00	2024-11-08T09:00:00	5	Humedad	73
34869	7	Sololá	701	Sololá	1	Sololá	7	Julio	2023-12-07T00:00:00	2024-11-08T09:00:00	6	Velocidad del viento	0
34870	7	Sololá	701	Sololá	1	Sololá	7	Julio	2023-12-07T00:00:00	2024-11-08T09:00:00	7	Dirección del viento	0
34871	7	Sololá	701	Sololá	1	Sololá	7	Julio	2023-12-07T00:00:00	2024-11-08T09:00:00	1	Precipitación	0
34872	7	Sololá	701	Sololá	1	Sololá	7	Julio	2023-12-07T00:00:00	2024-11-08T09:00:00	8	Radiación solar	394
34873	7	Sololá	701	Sololá	1	Sololá	7	Julio	2023-12-07T00:00:00	2024-11-08T10:00:00	2	Temperatura media	22.3
34874	7	Sololá	701	Sololá	1	Sololá	7	Julio	2023-12-07T00:00:00	2024-11-08T10:00:00	4	Temperatura máxima	22.3
34875	7	Sololá	701	Sololá	1	Sololá	7	Julio	2023-12-07T00:00:00	2024-11-08T10:00:00	3	Temperatura mínima	19.2
34876	7	Sololá	701	Sololá	1	Sololá	7	Julio	2023-12-07T00:00:00	2024-11-08T10:00:00	5	Humedad	66
34877	7	Sololá	701	Sololá	1	Sololá	7	Julio	2023-12-07T00:00:00	2024-11-08T10:00:00	6	Velocidad del viento	0
34878	7	Sololá	701	Sololá	1	Sololá	7	Julio	2023-12-07T00:00:00	2024-11-08T10:00:00	7	Dirección del viento	0
34879	7	Sololá	701	Sololá	1	Sololá	7	Julio	2023-12-07T00:00:00	2024-11-08T10:00:00	1	Precipitación	0
34880	7	Sololá	701	Sololá	1	Sololá	7	Julio	2023-12-07T00:00:00	2024-11-08T10:00:00	8	Radiación solar	678
34881	7	Sololá	701	Sololá	1	Sololá	7	Julio	2023-12-07T00:00:00	2024-11-08T11:00:00	2	Temperatura media	23.1
34882	7	Sololá	701	Sololá	1	Sololá	7	Julio	2023-12-07T00:00:00	2024-11-08T11:00:00	4	Temperatura máxima	23.1
34883	7	Sololá	701	Sololá	1	Sololá	7	Julio	2023-12-07T00:00:00	2024-11-08T11:00:00	3	Temperatura mínima	22.3
34884	7	Sololá	701	Sololá	1	Sololá	7	Julio	2023-12-07T00:00:00	2024-11-08T11:00:00	5	Humedad	63
34885	7	Sololá	701	Sololá	1	Sololá	7	Julio	2023-12-07T00:00:00	2024-11-08T11:00:00	6	Velocidad del viento	0
34886	7	Sololá	701	Sololá	1	Sololá	7	Julio	2023-12-07T00:00:00	2024-11-08T11:00:00	7	Dirección del viento	0
34887	7	Sololá	701	Sololá	1	Sololá	7	Julio	2023-12-07T00:00:00	2024-11-08T11:00:00	1	Precipitación	0
34888	7	Sololá	701	Sololá	1	Sololá	7	Julio	2023-12-07T00:00:00	2024-11-08T11:00:00	8	Radiación solar	721
34889	7	Sololá	701	Sololá	1	Sololá	7	Julio	2023-12-07T00:00:00	2024-11-08T12:00:00	2	Temperatura media	22.2
34890	7	Sololá	701	Sololá	1	Sololá	7	Julio	2023-12-07T00:00:00	2024-11-08T12:00:00	4	Temperatura máxima	23.3
34891	7	Sololá	701	Sololá	1	Sololá	7	Julio	2023-12-07T00:00:00	2024-11-08T12:00:00	3	Temperatura mínima	22.2
34892	7	Sololá	701	Sololá	1	Sololá	7	Julio	2023-12-07T00:00:00	2024-11-08T12:00:00	5	Humedad	62
34893	7	Sololá	701	Sololá	1	Sololá	7	Julio	2023-12-07T00:00:00	2024-11-08T12:00:00	6	Velocidad del viento	0
34894	7	Sololá	701	Sololá	1	Sololá	7	Julio	2023-12-07T00:00:00	2024-11-08T12:00:00	7	Dirección del viento	0
34895	7	Sololá	701	Sololá	1	Sololá	7	Julio	2023-12-07T00:00:00	2024-11-08T12:00:00	1	Precipitación	0
34896	7	Sololá	701	Sololá	1	Sololá	7	Julio	2023-12-07T00:00:00	2024-11-08T12:00:00	8	Radiación solar	317
34897	7	Sololá	701	Sololá	1	Sololá	7	Julio	2023-12-07T00:00:00	2024-11-08T13:00:00	2	Temperatura media	23.8
34898	7	Sololá	701	Sololá	1	Sololá	7	Julio	2023-12-07T00:00:00	2024-11-08T13:00:00	4	Temperatura máxima	23.8
34899	7	Sololá	701	Sololá	1	Sololá	7	Julio	2023-12-07T00:00:00	2024-11-08T13:00:00	3	Temperatura mínima	22.2
34900	7	Sololá	701	Sololá	1	Sololá	7	Julio	2023-12-07T00:00:00	2024-11-08T13:00:00	5	Humedad	56
34901	7	Sololá	701	Sololá	1	Sololá	7	Julio	2023-12-07T00:00:00	2024-11-08T13:00:00	6	Velocidad del viento	0
34902	7	Sololá	701	Sololá	1	Sololá	7	Julio	2023-12-07T00:00:00	2024-11-08T13:00:00	7	Dirección del viento	0
34903	7	Sololá	701	Sololá	1	Sololá	7	Julio	2023-12-07T00:00:00	2024-11-08T13:00:00	1	Precipitación	0
34904	7	Sololá	701	Sololá	1	Sololá	7	Julio	2023-12-07T00:00:00	2024-11-08T13:00:00	8	Radiación solar	146
34905	7	Sololá	701	Sololá	1	Sololá	7	Julio	2023-12-07T00:00:00	2024-11-08T14:00:00	2	Temperatura media	23.5
34906	7	Sololá	701	Sololá	1	Sololá	7	Julio	2023-12-07T00:00:00	2024-11-08T14:00:00	4	Temperatura máxima	24.2
34907	7	Sololá	701	Sololá	1	Sololá	7	Julio	2023-12-07T00:00:00	2024-11-08T14:00:00	3	Temperatura mínima	23.2
34908	7	Sololá	701	Sololá	1	Sololá	7	Julio	2023-12-07T00:00:00	2024-11-08T14:00:00	5	Humedad	57
34909	7	Sololá	701	Sololá	1	Sololá	7	Julio	2023-12-07T00:00:00	2024-11-08T14:00:00	6	Velocidad del viento	0
34910	7	Sololá	701	Sololá	1	Sololá	7	Julio	2023-12-07T00:00:00	2024-11-08T14:00:00	7	Dirección del viento	0
34911	7	Sololá	701	Sololá	1	Sololá	7	Julio	2023-12-07T00:00:00	2024-11-08T14:00:00	1	Precipitación	0
34912	7	Sololá	701	Sololá	1	Sololá	7	Julio	2023-12-07T00:00:00	2024-11-08T14:00:00	8	Radiación solar	134
34913	7	Sololá	701	Sololá	1	Sololá	7	Julio	2023-12-07T00:00:00	2024-11-08T15:00:00	2	Temperatura media	23.1
34914	7	Sololá	701	Sololá	1	Sololá	7	Julio	2023-12-07T00:00:00	2024-11-08T15:00:00	4	Temperatura máxima	23.6
34915	7	Sololá	701	Sololá	1	Sololá	7	Julio	2023-12-07T00:00:00	2024-11-08T15:00:00	3	Temperatura mínima	22.9
34916	7	Sololá	701	Sololá	1	Sololá	7	Julio	2023-12-07T00:00:00	2024-11-08T15:00:00	5	Humedad	61
34917	7	Sololá	701	Sololá	1	Sololá	7	Julio	2023-12-07T00:00:00	2024-11-08T15:00:00	6	Velocidad del viento	0
34918	7	Sololá	701	Sololá	1	Sololá	7	Julio	2023-12-07T00:00:00	2024-11-08T15:00:00	7	Dirección del viento	0
34919	7	Sololá	701	Sololá	1	Sololá	7	Julio	2023-12-07T00:00:00	2024-11-08T15:00:00	1	Precipitación	0
34920	7	Sololá	701	Sololá	1	Sololá	7	Julio	2023-12-07T00:00:00	2024-11-08T15:00:00	8	Radiación solar	107
34921	7	Sololá	701	Sololá	1	Sololá	7	Julio	2023-12-07T00:00:00	2024-11-08T16:00:00	2	Temperatura media	22.7
34922	7	Sololá	701	Sololá	1	Sololá	7	Julio	2023-12-07T00:00:00	2024-11-08T16:00:00	4	Temperatura máxima	23.5
34923	7	Sololá	701	Sololá	1	Sololá	7	Julio	2023-12-07T00:00:00	2024-11-08T16:00:00	3	Temperatura mínima	22.7
34924	7	Sololá	701	Sololá	1	Sololá	7	Julio	2023-12-07T00:00:00	2024-11-08T16:00:00	5	Humedad	62
34925	7	Sololá	701	Sololá	1	Sololá	7	Julio	2023-12-07T00:00:00	2024-11-08T16:00:00	6	Velocidad del viento	0
34926	7	Sololá	701	Sololá	1	Sololá	7	Julio	2023-12-07T00:00:00	2024-11-08T16:00:00	7	Dirección del viento	0
34927	7	Sololá	701	Sololá	1	Sololá	7	Julio	2023-12-07T00:00:00	2024-11-08T16:00:00	1	Precipitación	0
34928	7	Sololá	701	Sololá	1	Sololá	7	Julio	2023-12-07T00:00:00	2024-11-08T16:00:00	8	Radiación solar	84
34929	7	Sololá	701	Sololá	1	Sololá	7	Julio	2023-12-07T00:00:00	2024-11-08T17:00:00	2	Temperatura media	21.7
34930	7	Sololá	701	Sololá	1	Sololá	7	Julio	2023-12-07T00:00:00	2024-11-08T17:00:00	4	Temperatura máxima	22.8
34931	7	Sololá	701	Sololá	1	Sololá	7	Julio	2023-12-07T00:00:00	2024-11-08T17:00:00	3	Temperatura mínima	21.7
34932	7	Sololá	701	Sololá	1	Sololá	7	Julio	2023-12-07T00:00:00	2024-11-08T17:00:00	5	Humedad	67
34933	7	Sololá	701	Sololá	1	Sololá	7	Julio	2023-12-07T00:00:00	2024-11-08T17:00:00	6	Velocidad del viento	0
34934	7	Sololá	701	Sololá	1	Sololá	7	Julio	2023-12-07T00:00:00	2024-11-08T17:00:00	7	Dirección del viento	0
34935	7	Sololá	701	Sololá	1	Sololá	7	Julio	2023-12-07T00:00:00	2024-11-08T17:00:00	1	Precipitación	0
34936	7	Sololá	701	Sololá	1	Sololá	7	Julio	2023-12-07T00:00:00	2024-11-08T17:00:00	8	Radiación solar	74
34937	7	Sololá	701	Sololá	1	Sololá	7	Julio	2023-12-07T00:00:00	2024-11-08T18:00:00	2	Temperatura media	19.3
34938	7	Sololá	701	Sololá	1	Sololá	7	Julio	2023-12-07T00:00:00	2024-11-08T18:00:00	4	Temperatura máxima	21.7
34939	7	Sololá	701	Sololá	1	Sololá	7	Julio	2023-12-07T00:00:00	2024-11-08T18:00:00	3	Temperatura mínima	19.3
34940	7	Sololá	701	Sololá	1	Sololá	7	Julio	2023-12-07T00:00:00	2024-11-08T18:00:00	5	Humedad	85
34941	7	Sololá	701	Sololá	1	Sololá	7	Julio	2023-12-07T00:00:00	2024-11-08T18:00:00	6	Velocidad del viento	0
34942	7	Sololá	701	Sololá	1	Sololá	7	Julio	2023-12-07T00:00:00	2024-11-08T18:00:00	7	Dirección del viento	0
34943	7	Sololá	701	Sololá	1	Sololá	7	Julio	2023-12-07T00:00:00	2024-11-08T18:00:00	1	Precipitación	0
34944	7	Sololá	701	Sololá	1	Sololá	7	Julio	2023-12-07T00:00:00	2024-11-08T18:00:00	8	Radiación solar	36
34945	7	Sololá	701	Sololá	1	Sololá	7	Julio	2023-12-07T00:00:00	2024-11-08T19:00:00	2	Temperatura media	17.9
34946	7	Sololá	701	Sololá	1	Sololá	7	Julio	2023-12-07T00:00:00	2024-11-08T19:00:00	4	Temperatura máxima	19.3
34947	7	Sololá	701	Sololá	1	Sololá	7	Julio	2023-12-07T00:00:00	2024-11-08T19:00:00	3	Temperatura mínima	17.9
34948	7	Sololá	701	Sololá	1	Sololá	7	Julio	2023-12-07T00:00:00	2024-11-08T19:00:00	5	Humedad	89
34949	7	Sololá	701	Sololá	1	Sololá	7	Julio	2023-12-07T00:00:00	2024-11-08T19:00:00	6	Velocidad del viento	0
34950	7	Sololá	701	Sololá	1	Sololá	7	Julio	2023-12-07T00:00:00	2024-11-08T19:00:00	7	Dirección del viento	0
34951	7	Sololá	701	Sololá	1	Sololá	7	Julio	2023-12-07T00:00:00	2024-11-08T19:00:00	1	Precipitación	0.2
34952	7	Sololá	701	Sololá	1	Sololá	7	Julio	2023-12-07T00:00:00	2024-11-08T19:00:00	8	Radiación solar	0
34953	7	Sololá	701	Sololá	1	Sololá	7	Julio	2023-12-07T00:00:00	2024-11-08T20:00:00	2	Temperatura media	15.9
34954	7	Sololá	701	Sololá	1	Sololá	7	Julio	2023-12-07T00:00:00	2024-11-08T20:00:00	4	Temperatura máxima	17.9
34955	7	Sololá	701	Sololá	1	Sololá	7	Julio	2023-12-07T00:00:00	2024-11-08T20:00:00	3	Temperatura mínima	15.9
34956	7	Sololá	701	Sololá	1	Sololá	7	Julio	2023-12-07T00:00:00	2024-11-08T20:00:00	5	Humedad	89
34957	7	Sololá	701	Sololá	1	Sololá	7	Julio	2023-12-07T00:00:00	2024-11-08T20:00:00	6	Velocidad del viento	0
34958	7	Sololá	701	Sololá	1	Sololá	7	Julio	2023-12-07T00:00:00	2024-11-08T20:00:00	7	Dirección del viento	0
34959	7	Sololá	701	Sololá	1	Sololá	7	Julio	2023-12-07T00:00:00	2024-11-08T20:00:00	1	Precipitación	2
34960	7	Sololá	701	Sololá	1	Sololá	7	Julio	2023-12-07T00:00:00	2024-11-08T20:00:00	8	Radiación solar	0
34961	7	Sololá	701	Sololá	1	Sololá	7	Julio	2023-12-07T00:00:00	2024-11-08T21:00:00	2	Temperatura media	14.4
34962	7	Sololá	701	Sololá	1	Sololá	7	Julio	2023-12-07T00:00:00	2024-11-08T21:00:00	4	Temperatura máxima	15.9
34963	7	Sololá	701	Sololá	1	Sololá	7	Julio	2023-12-07T00:00:00	2024-11-08T21:00:00	3	Temperatura mínima	14.4
34964	7	Sololá	701	Sololá	1	Sololá	7	Julio	2023-12-07T00:00:00	2024-11-08T21:00:00	5	Humedad	94
34965	7	Sololá	701	Sololá	1	Sololá	7	Julio	2023-12-07T00:00:00	2024-11-08T21:00:00	6	Velocidad del viento	0
34966	7	Sololá	701	Sololá	1	Sololá	7	Julio	2023-12-07T00:00:00	2024-11-08T21:00:00	7	Dirección del viento	0
34967	7	Sololá	701	Sololá	1	Sololá	7	Julio	2023-12-07T00:00:00	2024-11-08T21:00:00	1	Precipitación	3.8
34968	7	Sololá	701	Sololá	1	Sololá	7	Julio	2023-12-07T00:00:00	2024-11-08T21:00:00	8	Radiación solar	0
34969	7	Sololá	701	Sololá	1	Sololá	7	Julio	2023-12-07T00:00:00	2024-11-08T22:00:00	2	Temperatura media	14.1
34970	7	Sololá	701	Sololá	1	Sololá	7	Julio	2023-12-07T00:00:00	2024-11-08T22:00:00	4	Temperatura máxima	14.4
34971	7	Sololá	701	Sololá	1	Sololá	7	Julio	2023-12-07T00:00:00	2024-11-08T22:00:00	3	Temperatura mínima	14
34972	7	Sololá	701	Sololá	1	Sololá	7	Julio	2023-12-07T00:00:00	2024-11-08T22:00:00	5	Humedad	95
34973	7	Sololá	701	Sololá	1	Sololá	7	Julio	2023-12-07T00:00:00	2024-11-08T22:00:00	6	Velocidad del viento	0
34974	7	Sololá	701	Sololá	1	Sololá	7	Julio	2023-12-07T00:00:00	2024-11-08T22:00:00	7	Dirección del viento	0
34975	7	Sololá	701	Sololá	1	Sololá	7	Julio	2023-12-07T00:00:00	2024-11-08T22:00:00	1	Precipitación	0.4
34976	7	Sololá	701	Sololá	1	Sololá	7	Julio	2023-12-07T00:00:00	2024-11-08T22:00:00	8	Radiación solar	0
34977	7	Sololá	701	Sololá	1	Sololá	7	Julio	2023-12-07T00:00:00	2024-11-08T23:00:00	2	Temperatura media	14.5
34978	7	Sololá	701	Sololá	1	Sololá	7	Julio	2023-12-07T00:00:00	2024-11-08T23:00:00	4	Temperatura máxima	14.5
34979	7	Sololá	701	Sololá	1	Sololá	7	Julio	2023-12-07T00:00:00	2024-11-08T23:00:00	3	Temperatura mínima	14.1
34980	7	Sololá	701	Sololá	1	Sololá	7	Julio	2023-12-07T00:00:00	2024-11-08T23:00:00	5	Humedad	95
34981	7	Sololá	701	Sololá	1	Sololá	7	Julio	2023-12-07T00:00:00	2024-11-08T23:00:00	6	Velocidad del viento	0
34982	7	Sololá	701	Sololá	1	Sololá	7	Julio	2023-12-07T00:00:00	2024-11-08T23:00:00	7	Dirección del viento	0
34983	7	Sololá	701	Sololá	1	Sololá	7	Julio	2023-12-07T00:00:00	2024-11-08T23:00:00	1	Precipitación	0
34984	7	Sololá	701	Sololá	1	Sololá	7	Julio	2023-12-07T00:00:00	2024-11-08T23:00:00	8	Radiación solar	0
34985	7	Sololá	701	Sololá	1	Sololá	7	Julio	2023-07-13T00:00:00	2024-11-08T00:00:00	2	Temperatura media	14.6
34986	7	Sololá	701	Sololá	1	Sololá	7	Julio	2023-07-13T00:00:00	2024-11-08T00:00:00	4	Temperatura máxima	14.7
34987	7	Sololá	701	Sololá	1	Sololá	7	Julio	2023-07-13T00:00:00	2024-11-08T00:00:00	3	Temperatura mínima	14.4
34988	7	Sololá	701	Sololá	1	Sololá	7	Julio	2023-07-13T00:00:00	2024-11-08T00:00:00	5	Humedad	94
34989	7	Sololá	701	Sololá	1	Sololá	7	Julio	2023-07-13T00:00:00	2024-11-08T00:00:00	6	Velocidad del viento	0
34990	7	Sololá	701	Sololá	1	Sololá	7	Julio	2023-07-13T00:00:00	2024-11-08T00:00:00	7	Dirección del viento	0
34991	7	Sololá	701	Sololá	1	Sololá	7	Julio	2023-07-13T00:00:00	2024-11-08T00:00:00	1	Precipitación	0
34992	7	Sololá	701	Sololá	1	Sololá	7	Julio	2023-07-13T00:00:00	2024-11-08T00:00:00	8	Radiación solar	0
34993	7	Sololá	701	Sololá	1	Sololá	7	Julio	2023-07-13T00:00:00	2024-11-08T01:00:00	2	Temperatura media	14.6
34994	7	Sololá	701	Sololá	1	Sololá	7	Julio	2023-07-13T00:00:00	2024-11-08T01:00:00	4	Temperatura máxima	14.7
34995	7	Sololá	701	Sololá	1	Sololá	7	Julio	2023-07-13T00:00:00	2024-11-08T01:00:00	3	Temperatura mínima	14.6
34996	7	Sololá	701	Sololá	1	Sololá	7	Julio	2023-07-13T00:00:00	2024-11-08T01:00:00	5	Humedad	93
34997	7	Sololá	701	Sololá	1	Sololá	7	Julio	2023-07-13T00:00:00	2024-11-08T01:00:00	6	Velocidad del viento	0
34998	7	Sololá	701	Sololá	1	Sololá	7	Julio	2023-07-13T00:00:00	2024-11-08T01:00:00	7	Dirección del viento	0
34999	7	Sololá	701	Sololá	1	Sololá	7	Julio	2023-07-13T00:00:00	2024-11-08T01:00:00	1	Precipitación	0
35000	7	Sololá	701	Sololá	1	Sololá	7	Julio	2023-07-13T00:00:00	2024-11-08T01:00:00	8	Radiación solar	0
35001	7	Sololá	701	Sololá	1	Sololá	7	Julio	2023-07-13T00:00:00	2024-11-08T02:00:00	2	Temperatura media	14.4
35002	7	Sololá	701	Sololá	1	Sololá	7	Julio	2023-07-13T00:00:00	2024-11-08T02:00:00	4	Temperatura máxima	14.6
35003	7	Sololá	701	Sololá	1	Sololá	7	Julio	2023-07-13T00:00:00	2024-11-08T02:00:00	3	Temperatura mínima	14.4
35004	7	Sololá	701	Sololá	1	Sololá	7	Julio	2023-07-13T00:00:00	2024-11-08T02:00:00	5	Humedad	87
35005	7	Sololá	701	Sololá	1	Sololá	7	Julio	2023-07-13T00:00:00	2024-11-08T02:00:00	6	Velocidad del viento	0
35006	7	Sololá	701	Sololá	1	Sololá	7	Julio	2023-07-13T00:00:00	2024-11-08T02:00:00	7	Dirección del viento	0
35007	7	Sololá	701	Sololá	1	Sololá	7	Julio	2023-07-13T00:00:00	2024-11-08T02:00:00	1	Precipitación	0
35008	7	Sololá	701	Sololá	1	Sololá	7	Julio	2023-07-13T00:00:00	2024-11-08T02:00:00	8	Radiación solar	0
35009	7	Sololá	701	Sololá	1	Sololá	7	Julio	2023-07-13T00:00:00	2024-11-08T03:00:00	2	Temperatura media	14.6
35010	7	Sololá	701	Sololá	1	Sololá	7	Julio	2023-07-13T00:00:00	2024-11-08T03:00:00	4	Temperatura máxima	14.7
35011	7	Sololá	701	Sololá	1	Sololá	7	Julio	2023-07-13T00:00:00	2024-11-08T03:00:00	3	Temperatura mínima	14.4
35012	7	Sololá	701	Sololá	1	Sololá	7	Julio	2023-07-13T00:00:00	2024-11-08T03:00:00	5	Humedad	87
35013	7	Sololá	701	Sololá	1	Sololá	7	Julio	2023-07-13T00:00:00	2024-11-08T03:00:00	6	Velocidad del viento	0
35014	7	Sololá	701	Sololá	1	Sololá	7	Julio	2023-07-13T00:00:00	2024-11-08T03:00:00	7	Dirección del viento	0
35015	7	Sololá	701	Sololá	1	Sololá	7	Julio	2023-07-13T00:00:00	2024-11-08T03:00:00	1	Precipitación	0
35016	7	Sololá	701	Sololá	1	Sololá	7	Julio	2023-07-13T00:00:00	2024-11-08T03:00:00	8	Radiación solar	0
35017	7	Sololá	701	Sololá	1	Sololá	7	Julio	2023-07-13T00:00:00	2024-11-08T04:00:00	2	Temperatura media	14.5
35018	7	Sololá	701	Sololá	1	Sololá	7	Julio	2023-07-13T00:00:00	2024-11-08T04:00:00	4	Temperatura máxima	14.7
35019	7	Sololá	701	Sololá	1	Sololá	7	Julio	2023-07-13T00:00:00	2024-11-08T04:00:00	3	Temperatura mínima	14.3
35020	7	Sololá	701	Sololá	1	Sololá	7	Julio	2023-07-13T00:00:00	2024-11-08T04:00:00	5	Humedad	83
35021	7	Sololá	701	Sololá	1	Sololá	7	Julio	2023-07-13T00:00:00	2024-11-08T04:00:00	6	Velocidad del viento	0
35022	7	Sololá	701	Sololá	1	Sololá	7	Julio	2023-07-13T00:00:00	2024-11-08T04:00:00	7	Dirección del viento	0
35023	7	Sololá	701	Sololá	1	Sololá	7	Julio	2023-07-13T00:00:00	2024-11-08T04:00:00	1	Precipitación	0
35024	7	Sololá	701	Sololá	1	Sololá	7	Julio	2023-07-13T00:00:00	2024-11-08T04:00:00	8	Radiación solar	0
35025	7	Sololá	701	Sololá	1	Sololá	7	Julio	2023-07-13T00:00:00	2024-11-08T05:00:00	2	Temperatura media	14.3
35026	7	Sololá	701	Sololá	1	Sololá	7	Julio	2023-07-13T00:00:00	2024-11-08T05:00:00	4	Temperatura máxima	14.8
35027	7	Sololá	701	Sololá	1	Sololá	7	Julio	2023-07-13T00:00:00	2024-11-08T05:00:00	3	Temperatura mínima	14.3
35028	7	Sololá	701	Sololá	1	Sololá	7	Julio	2023-07-13T00:00:00	2024-11-08T05:00:00	5	Humedad	84
35029	7	Sololá	701	Sololá	1	Sololá	7	Julio	2023-07-13T00:00:00	2024-11-08T05:00:00	6	Velocidad del viento	0
35030	7	Sololá	701	Sololá	1	Sololá	7	Julio	2023-07-13T00:00:00	2024-11-08T05:00:00	7	Dirección del viento	0
35031	7	Sololá	701	Sololá	1	Sololá	7	Julio	2023-07-13T00:00:00	2024-11-08T05:00:00	1	Precipitación	0
35032	7	Sololá	701	Sololá	1	Sololá	7	Julio	2023-07-13T00:00:00	2024-11-08T05:00:00	8	Radiación solar	0
35033	7	Sololá	701	Sololá	1	Sololá	7	Julio	2023-07-13T00:00:00	2024-11-08T06:00:00	2	Temperatura media	14.4
35034	7	Sololá	701	Sololá	1	Sololá	7	Julio	2023-07-13T00:00:00	2024-11-08T06:00:00	4	Temperatura máxima	14.4
35035	7	Sololá	701	Sololá	1	Sololá	7	Julio	2023-07-13T00:00:00	2024-11-08T06:00:00	3	Temperatura mínima	14.1
35036	7	Sololá	701	Sololá	1	Sololá	7	Julio	2023-07-13T00:00:00	2024-11-08T06:00:00	5	Humedad	86
35037	7	Sololá	701	Sololá	1	Sololá	7	Julio	2023-07-13T00:00:00	2024-11-08T06:00:00	6	Velocidad del viento	0
35038	7	Sololá	701	Sololá	1	Sololá	7	Julio	2023-07-13T00:00:00	2024-11-08T06:00:00	7	Dirección del viento	0
35039	7	Sololá	701	Sololá	1	Sololá	7	Julio	2023-07-13T00:00:00	2024-11-08T06:00:00	1	Precipitación	0
35040	7	Sololá	701	Sololá	1	Sololá	7	Julio	2023-07-13T00:00:00	2024-11-08T06:00:00	8	Radiación solar	1
35041	7	Sololá	701	Sololá	1	Sololá	7	Julio	2023-07-13T00:00:00	2024-11-08T07:00:00	2	Temperatura media	15.4
35042	7	Sololá	701	Sololá	1	Sololá	7	Julio	2023-07-13T00:00:00	2024-11-08T07:00:00	4	Temperatura máxima	15.4
35043	7	Sololá	701	Sololá	1	Sololá	7	Julio	2023-07-13T00:00:00	2024-11-08T07:00:00	3	Temperatura mínima	14.3
35044	7	Sololá	701	Sololá	1	Sololá	7	Julio	2023-07-13T00:00:00	2024-11-08T07:00:00	5	Humedad	87
35045	7	Sololá	701	Sololá	1	Sololá	7	Julio	2023-07-13T00:00:00	2024-11-08T07:00:00	6	Velocidad del viento	0
35046	7	Sololá	701	Sololá	1	Sololá	7	Julio	2023-07-13T00:00:00	2024-11-08T07:00:00	7	Dirección del viento	0
35047	7	Sololá	701	Sololá	1	Sololá	7	Julio	2023-07-13T00:00:00	2024-11-08T07:00:00	1	Precipitación	0
35048	7	Sololá	701	Sololá	1	Sololá	7	Julio	2023-07-13T00:00:00	2024-11-08T07:00:00	8	Radiación solar	46
35049	7	Sololá	701	Sololá	1	Sololá	7	Julio	2023-07-13T00:00:00	2024-11-08T08:00:00	2	Temperatura media	16.4
35050	7	Sololá	701	Sololá	1	Sololá	7	Julio	2023-07-13T00:00:00	2024-11-08T08:00:00	4	Temperatura máxima	16.5
35051	7	Sololá	701	Sololá	1	Sololá	7	Julio	2023-07-13T00:00:00	2024-11-08T08:00:00	3	Temperatura mínima	15.4
35052	7	Sololá	701	Sololá	1	Sololá	7	Julio	2023-07-13T00:00:00	2024-11-08T08:00:00	5	Humedad	82
35053	7	Sololá	701	Sololá	1	Sololá	7	Julio	2023-07-13T00:00:00	2024-11-08T08:00:00	6	Velocidad del viento	0
35054	7	Sololá	701	Sololá	1	Sololá	7	Julio	2023-07-13T00:00:00	2024-11-08T08:00:00	7	Dirección del viento	0
35055	7	Sololá	701	Sololá	1	Sololá	7	Julio	2023-07-13T00:00:00	2024-11-08T08:00:00	1	Precipitación	0
35056	7	Sololá	701	Sololá	1	Sololá	7	Julio	2023-07-13T00:00:00	2024-11-08T08:00:00	8	Radiación solar	115
35057	7	Sololá	701	Sololá	1	Sololá	7	Julio	2023-07-13T00:00:00	2024-11-08T09:00:00	2	Temperatura media	18.3
35058	7	Sololá	701	Sololá	1	Sololá	7	Julio	2023-07-13T00:00:00	2024-11-08T09:00:00	4	Temperatura máxima	18.3
35059	7	Sololá	701	Sololá	1	Sololá	7	Julio	2023-07-13T00:00:00	2024-11-08T09:00:00	3	Temperatura mínima	16.4
35060	7	Sololá	701	Sololá	1	Sololá	7	Julio	2023-07-13T00:00:00	2024-11-08T09:00:00	5	Humedad	75
35061	7	Sololá	701	Sololá	1	Sololá	7	Julio	2023-07-13T00:00:00	2024-11-08T09:00:00	6	Velocidad del viento	0
35062	7	Sololá	701	Sololá	1	Sololá	7	Julio	2023-07-13T00:00:00	2024-11-08T09:00:00	7	Dirección del viento	0
35063	7	Sololá	701	Sololá	1	Sololá	7	Julio	2023-07-13T00:00:00	2024-11-08T09:00:00	1	Precipitación	0
35064	7	Sololá	701	Sololá	1	Sololá	7	Julio	2023-07-13T00:00:00	2024-11-08T09:00:00	8	Radiación solar	336
35065	7	Sololá	701	Sololá	1	Sololá	7	Julio	2023-07-13T00:00:00	2024-11-08T10:00:00	2	Temperatura media	20.4
35066	7	Sololá	701	Sololá	1	Sololá	7	Julio	2023-07-13T00:00:00	2024-11-08T10:00:00	4	Temperatura máxima	20.4
35067	7	Sololá	701	Sololá	1	Sololá	7	Julio	2023-07-13T00:00:00	2024-11-08T10:00:00	3	Temperatura mínima	18.2
35068	7	Sololá	701	Sololá	1	Sololá	7	Julio	2023-07-13T00:00:00	2024-11-08T10:00:00	5	Humedad	72
35069	7	Sololá	701	Sololá	1	Sololá	7	Julio	2023-07-13T00:00:00	2024-11-08T10:00:00	6	Velocidad del viento	1.6
35070	7	Sololá	701	Sololá	1	Sololá	7	Julio	2023-07-13T00:00:00	2024-11-08T10:00:00	7	Dirección del viento	1.61
35071	7	Sololá	701	Sololá	1	Sololá	7	Julio	2023-07-13T00:00:00	2024-11-08T10:00:00	1	Precipitación	0
35072	7	Sololá	701	Sololá	1	Sololá	7	Julio	2023-07-13T00:00:00	2024-11-08T10:00:00	8	Radiación solar	724
35073	7	Sololá	701	Sololá	1	Sololá	7	Julio	2023-07-13T00:00:00	2024-11-08T11:00:00	2	Temperatura media	21.5
35074	7	Sololá	701	Sololá	1	Sololá	7	Julio	2023-07-13T00:00:00	2024-11-08T11:00:00	4	Temperatura máxima	21.6
35075	7	Sololá	701	Sololá	1	Sololá	7	Julio	2023-07-13T00:00:00	2024-11-08T11:00:00	3	Temperatura mínima	20.4
35076	7	Sololá	701	Sololá	1	Sololá	7	Julio	2023-07-13T00:00:00	2024-11-08T11:00:00	5	Humedad	68
35077	7	Sololá	701	Sololá	1	Sololá	7	Julio	2023-07-13T00:00:00	2024-11-08T11:00:00	6	Velocidad del viento	0
35078	7	Sololá	701	Sololá	1	Sololá	7	Julio	2023-07-13T00:00:00	2024-11-08T11:00:00	7	Dirección del viento	0
35079	7	Sololá	701	Sololá	1	Sololá	7	Julio	2023-07-13T00:00:00	2024-11-08T11:00:00	1	Precipitación	0
35080	7	Sololá	701	Sololá	1	Sololá	7	Julio	2023-07-13T00:00:00	2024-11-08T11:00:00	8	Radiación solar	907
35081	7	Sololá	701	Sololá	1	Sololá	7	Julio	2023-07-13T00:00:00	2024-11-08T12:00:00	2	Temperatura media	22.1
35082	7	Sololá	701	Sololá	1	Sololá	7	Julio	2023-07-13T00:00:00	2024-11-08T12:00:00	4	Temperatura máxima	22.1
35083	7	Sololá	701	Sololá	1	Sololá	7	Julio	2023-07-13T00:00:00	2024-11-08T12:00:00	3	Temperatura mínima	21.4
35084	7	Sololá	701	Sololá	1	Sololá	7	Julio	2023-07-13T00:00:00	2024-11-08T12:00:00	5	Humedad	64
35085	7	Sololá	701	Sololá	1	Sololá	7	Julio	2023-07-13T00:00:00	2024-11-08T12:00:00	6	Velocidad del viento	1.6
35086	7	Sololá	701	Sololá	1	Sololá	7	Julio	2023-07-13T00:00:00	2024-11-08T12:00:00	7	Dirección del viento	1.61
35087	7	Sololá	701	Sololá	1	Sololá	7	Julio	2023-07-13T00:00:00	2024-11-08T12:00:00	1	Precipitación	0
35088	7	Sololá	701	Sololá	1	Sololá	7	Julio	2023-07-13T00:00:00	2024-11-08T12:00:00	8	Radiación solar	798
35089	7	Sololá	701	Sololá	1	Sololá	7	Julio	2023-07-13T00:00:00	2024-11-08T13:00:00	2	Temperatura media	23.2
35090	7	Sololá	701	Sololá	1	Sololá	7	Julio	2023-07-13T00:00:00	2024-11-08T13:00:00	4	Temperatura máxima	23.2
35091	7	Sololá	701	Sololá	1	Sololá	7	Julio	2023-07-13T00:00:00	2024-11-08T13:00:00	3	Temperatura mínima	22.1
35092	7	Sololá	701	Sololá	1	Sololá	7	Julio	2023-07-13T00:00:00	2024-11-08T13:00:00	5	Humedad	59
35093	7	Sololá	701	Sololá	1	Sololá	7	Julio	2023-07-13T00:00:00	2024-11-08T13:00:00	6	Velocidad del viento	0
35094	7	Sololá	701	Sololá	1	Sololá	7	Julio	2023-07-13T00:00:00	2024-11-08T13:00:00	7	Dirección del viento	0
35095	7	Sololá	701	Sololá	1	Sololá	7	Julio	2023-07-13T00:00:00	2024-11-08T13:00:00	1	Precipitación	0
35096	7	Sololá	701	Sololá	1	Sololá	7	Julio	2023-07-13T00:00:00	2024-11-08T13:00:00	8	Radiación solar	96
35097	7	Sololá	701	Sololá	1	Sololá	7	Julio	2023-07-13T00:00:00	2024-11-08T14:00:00	2	Temperatura media	22.7
35098	7	Sololá	701	Sololá	1	Sololá	7	Julio	2023-07-13T00:00:00	2024-11-08T14:00:00	4	Temperatura máxima	23.2
35099	7	Sololá	701	Sololá	1	Sololá	7	Julio	2023-07-13T00:00:00	2024-11-08T14:00:00	3	Temperatura mínima	22.1
35100	7	Sololá	701	Sololá	1	Sololá	7	Julio	2023-07-13T00:00:00	2024-11-08T14:00:00	5	Humedad	67
35101	7	Sololá	701	Sololá	1	Sololá	7	Julio	2023-07-13T00:00:00	2024-11-08T14:00:00	6	Velocidad del viento	0
35102	7	Sololá	701	Sololá	1	Sololá	7	Julio	2023-07-13T00:00:00	2024-11-08T14:00:00	7	Dirección del viento	0
35103	7	Sololá	701	Sololá	1	Sololá	7	Julio	2023-07-13T00:00:00	2024-11-08T14:00:00	1	Precipitación	0
35104	7	Sololá	701	Sololá	1	Sololá	7	Julio	2023-07-13T00:00:00	2024-11-08T14:00:00	8	Radiación solar	123
35105	7	Sololá	701	Sololá	1	Sololá	7	Julio	2023-07-13T00:00:00	2024-11-08T15:00:00	2	Temperatura media	21.9
35106	7	Sololá	701	Sololá	1	Sololá	7	Julio	2023-07-13T00:00:00	2024-11-08T15:00:00	4	Temperatura máxima	22.7
35107	7	Sololá	701	Sololá	1	Sololá	7	Julio	2023-07-13T00:00:00	2024-11-08T15:00:00	3	Temperatura mínima	21.8
35108	7	Sololá	701	Sololá	1	Sololá	7	Julio	2023-07-13T00:00:00	2024-11-08T15:00:00	5	Humedad	63
35109	7	Sololá	701	Sololá	1	Sololá	7	Julio	2023-07-13T00:00:00	2024-11-08T15:00:00	6	Velocidad del viento	0
35110	7	Sololá	701	Sololá	1	Sololá	7	Julio	2023-07-13T00:00:00	2024-11-08T15:00:00	7	Dirección del viento	0
35111	7	Sololá	701	Sololá	1	Sololá	7	Julio	2023-07-13T00:00:00	2024-11-08T15:00:00	1	Precipitación	0
35112	7	Sololá	701	Sololá	1	Sololá	7	Julio	2023-07-13T00:00:00	2024-11-08T15:00:00	8	Radiación solar	120
35113	7	Sololá	701	Sololá	1	Sololá	7	Julio	2023-07-13T00:00:00	2024-11-08T16:00:00	2	Temperatura media	22
35114	7	Sololá	701	Sololá	1	Sololá	7	Julio	2023-07-13T00:00:00	2024-11-08T16:00:00	4	Temperatura máxima	22.1
35115	7	Sololá	701	Sololá	1	Sololá	7	Julio	2023-07-13T00:00:00	2024-11-08T16:00:00	3	Temperatura mínima	21.7
35116	7	Sololá	701	Sololá	1	Sololá	7	Julio	2023-07-13T00:00:00	2024-11-08T16:00:00	5	Humedad	62
35117	7	Sololá	701	Sololá	1	Sololá	7	Julio	2023-07-13T00:00:00	2024-11-08T16:00:00	6	Velocidad del viento	0
35118	7	Sololá	701	Sololá	1	Sololá	7	Julio	2023-07-13T00:00:00	2024-11-08T16:00:00	7	Dirección del viento	0
35119	7	Sololá	701	Sololá	1	Sololá	7	Julio	2023-07-13T00:00:00	2024-11-08T16:00:00	1	Precipitación	0
35120	7	Sololá	701	Sololá	1	Sololá	7	Julio	2023-07-13T00:00:00	2024-11-08T16:00:00	8	Radiación solar	73
35121	7	Sololá	701	Sololá	1	Sololá	7	Julio	2023-07-13T00:00:00	2024-11-08T17:00:00	2	Temperatura media	21.8
35122	7	Sololá	701	Sololá	1	Sololá	7	Julio	2023-07-13T00:00:00	2024-11-08T17:00:00	4	Temperatura máxima	22.1
35123	7	Sololá	701	Sololá	1	Sololá	7	Julio	2023-07-13T00:00:00	2024-11-08T17:00:00	3	Temperatura mínima	21.8
35124	7	Sololá	701	Sololá	1	Sololá	7	Julio	2023-07-13T00:00:00	2024-11-08T17:00:00	5	Humedad	68
35125	7	Sololá	701	Sololá	1	Sololá	7	Julio	2023-07-13T00:00:00	2024-11-08T17:00:00	6	Velocidad del viento	0
35126	7	Sololá	701	Sololá	1	Sololá	7	Julio	2023-07-13T00:00:00	2024-11-08T17:00:00	7	Dirección del viento	0
35127	7	Sololá	701	Sololá	1	Sololá	7	Julio	2023-07-13T00:00:00	2024-11-08T17:00:00	1	Precipitación	0
35128	7	Sololá	701	Sololá	1	Sololá	7	Julio	2023-07-13T00:00:00	2024-11-08T17:00:00	8	Radiación solar	78
35129	7	Sololá	701	Sololá	1	Sololá	7	Julio	2023-07-13T00:00:00	2024-11-08T18:00:00	2	Temperatura media	20.1
35130	7	Sololá	701	Sololá	1	Sololá	7	Julio	2023-07-13T00:00:00	2024-11-08T18:00:00	4	Temperatura máxima	21.8
35131	7	Sololá	701	Sololá	1	Sololá	7	Julio	2023-07-13T00:00:00	2024-11-08T18:00:00	3	Temperatura mínima	20
35132	7	Sololá	701	Sololá	1	Sololá	7	Julio	2023-07-13T00:00:00	2024-11-08T18:00:00	5	Humedad	69
35133	7	Sololá	701	Sololá	1	Sololá	7	Julio	2023-07-13T00:00:00	2024-11-08T18:00:00	6	Velocidad del viento	0
35134	7	Sololá	701	Sololá	1	Sololá	7	Julio	2023-07-13T00:00:00	2024-11-08T18:00:00	7	Dirección del viento	0
35135	7	Sololá	701	Sololá	1	Sololá	7	Julio	2023-07-13T00:00:00	2024-11-08T18:00:00	1	Precipitación	0
35136	7	Sololá	701	Sololá	1	Sololá	7	Julio	2023-07-13T00:00:00	2024-11-08T18:00:00	8	Radiación solar	46
35137	7	Sololá	701	Sololá	1	Sololá	7	Julio	2023-07-13T00:00:00	2024-11-08T19:00:00	2	Temperatura media	18.4
35138	7	Sololá	701	Sololá	1	Sololá	7	Julio	2023-07-13T00:00:00	2024-11-08T19:00:00	4	Temperatura máxima	20
35139	7	Sololá	701	Sololá	1	Sololá	7	Julio	2023-07-13T00:00:00	2024-11-08T19:00:00	3	Temperatura mínima	18.4
35140	7	Sololá	701	Sololá	1	Sololá	7	Julio	2023-07-13T00:00:00	2024-11-08T19:00:00	5	Humedad	79
35141	7	Sololá	701	Sololá	1	Sololá	7	Julio	2023-07-13T00:00:00	2024-11-08T19:00:00	6	Velocidad del viento	0
35142	7	Sololá	701	Sololá	1	Sololá	7	Julio	2023-07-13T00:00:00	2024-11-08T19:00:00	7	Dirección del viento	0
35143	7	Sololá	701	Sololá	1	Sololá	7	Julio	2023-07-13T00:00:00	2024-11-08T19:00:00	1	Precipitación	0
35144	7	Sololá	701	Sololá	1	Sololá	7	Julio	2023-07-13T00:00:00	2024-11-08T19:00:00	8	Radiación solar	0
35145	7	Sololá	701	Sololá	1	Sololá	7	Julio	2023-07-13T00:00:00	2024-11-08T20:00:00	2	Temperatura media	17.4
35146	7	Sololá	701	Sololá	1	Sololá	7	Julio	2023-07-13T00:00:00	2024-11-08T20:00:00	4	Temperatura máxima	18.4
35147	7	Sololá	701	Sololá	1	Sololá	7	Julio	2023-07-13T00:00:00	2024-11-08T20:00:00	3	Temperatura mínima	17.3
35148	7	Sololá	701	Sololá	1	Sololá	7	Julio	2023-07-13T00:00:00	2024-11-08T20:00:00	5	Humedad	81
35149	7	Sololá	701	Sololá	1	Sololá	7	Julio	2023-07-13T00:00:00	2024-11-08T20:00:00	6	Velocidad del viento	0
35150	7	Sololá	701	Sololá	1	Sololá	7	Julio	2023-07-13T00:00:00	2024-11-08T20:00:00	7	Dirección del viento	0
35151	7	Sololá	701	Sololá	1	Sololá	7	Julio	2023-07-13T00:00:00	2024-11-08T20:00:00	1	Precipitación	0
35152	7	Sololá	701	Sololá	1	Sololá	7	Julio	2023-07-13T00:00:00	2024-11-08T20:00:00	8	Radiación solar	0
35153	7	Sololá	701	Sololá	1	Sololá	7	Julio	2023-07-13T00:00:00	2024-11-08T21:00:00	2	Temperatura media	16.8
35154	7	Sololá	701	Sololá	1	Sololá	7	Julio	2023-07-13T00:00:00	2024-11-08T21:00:00	4	Temperatura máxima	17.4
35155	7	Sololá	701	Sololá	1	Sololá	7	Julio	2023-07-13T00:00:00	2024-11-08T21:00:00	3	Temperatura mínima	16.8
35156	7	Sololá	701	Sololá	1	Sololá	7	Julio	2023-07-13T00:00:00	2024-11-08T21:00:00	5	Humedad	83
35157	7	Sololá	701	Sololá	1	Sololá	7	Julio	2023-07-13T00:00:00	2024-11-08T21:00:00	6	Velocidad del viento	0
35158	7	Sololá	701	Sololá	1	Sololá	7	Julio	2023-07-13T00:00:00	2024-11-08T21:00:00	7	Dirección del viento	0
35159	7	Sololá	701	Sololá	1	Sololá	7	Julio	2023-07-13T00:00:00	2024-11-08T21:00:00	1	Precipitación	0
35160	7	Sololá	701	Sololá	1	Sololá	7	Julio	2023-07-13T00:00:00	2024-11-08T21:00:00	8	Radiación solar	0
35161	7	Sololá	701	Sololá	1	Sololá	7	Julio	2023-07-13T00:00:00	2024-11-08T22:00:00	2	Temperatura media	17.1
35162	7	Sololá	701	Sololá	1	Sololá	7	Julio	2023-07-13T00:00:00	2024-11-08T22:00:00	4	Temperatura máxima	17.1
35163	7	Sololá	701	Sololá	1	Sololá	7	Julio	2023-07-13T00:00:00	2024-11-08T22:00:00	3	Temperatura mínima	16.7
35164	7	Sololá	701	Sololá	1	Sololá	7	Julio	2023-07-13T00:00:00	2024-11-08T22:00:00	5	Humedad	86
35165	7	Sololá	701	Sololá	1	Sololá	7	Julio	2023-07-13T00:00:00	2024-11-08T22:00:00	6	Velocidad del viento	0
35166	7	Sololá	701	Sololá	1	Sololá	7	Julio	2023-07-13T00:00:00	2024-11-08T22:00:00	7	Dirección del viento	0
35167	7	Sololá	701	Sololá	1	Sololá	7	Julio	2023-07-13T00:00:00	2024-11-08T22:00:00	1	Precipitación	0
35168	7	Sololá	701	Sololá	1	Sololá	7	Julio	2023-07-13T00:00:00	2024-11-08T22:00:00	8	Radiación solar	0
35169	7	Sololá	701	Sololá	1	Sololá	7	Julio	2023-07-13T00:00:00	2024-11-08T23:00:00	2	Temperatura media	15.6
35170	7	Sololá	701	Sololá	1	Sololá	7	Julio	2023-07-13T00:00:00	2024-11-08T23:00:00	4	Temperatura máxima	17.1
35171	7	Sololá	701	Sololá	1	Sololá	7	Julio	2023-07-13T00:00:00	2024-11-08T23:00:00	3	Temperatura mínima	15.6
35172	7	Sololá	701	Sololá	1	Sololá	7	Julio	2023-07-13T00:00:00	2024-11-08T23:00:00	5	Humedad	92
35173	7	Sololá	701	Sololá	1	Sololá	7	Julio	2023-07-13T00:00:00	2024-11-08T23:00:00	6	Velocidad del viento	0
35174	7	Sololá	701	Sololá	1	Sololá	7	Julio	2023-07-13T00:00:00	2024-11-08T23:00:00	7	Dirección del viento	0
35175	7	Sololá	701	Sololá	1	Sololá	7	Julio	2023-07-13T00:00:00	2024-11-08T23:00:00	1	Precipitación	2
35176	7	Sololá	701	Sololá	1	Sololá	7	Julio	2023-07-13T00:00:00	2024-11-08T23:00:00	8	Radiación solar	0
35177	7	Sololá	701	Sololá	1	Sololá	7	Julio	2023-07-14T00:00:00	2024-11-08T00:00:00	2	Temperatura media	14.2
35178	7	Sololá	701	Sololá	1	Sololá	7	Julio	2023-07-14T00:00:00	2024-11-08T00:00:00	4	Temperatura máxima	15.6
35179	7	Sololá	701	Sololá	1	Sololá	7	Julio	2023-07-14T00:00:00	2024-11-08T00:00:00	3	Temperatura mínima	14.2
35180	7	Sololá	701	Sololá	1	Sololá	7	Julio	2023-07-14T00:00:00	2024-11-08T00:00:00	5	Humedad	94
35181	7	Sololá	701	Sololá	1	Sololá	7	Julio	2023-07-14T00:00:00	2024-11-08T00:00:00	6	Velocidad del viento	0
35182	7	Sololá	701	Sololá	1	Sololá	7	Julio	2023-07-14T00:00:00	2024-11-08T00:00:00	7	Dirección del viento	0
35183	7	Sololá	701	Sololá	1	Sololá	7	Julio	2023-07-14T00:00:00	2024-11-08T00:00:00	1	Precipitación	4.4
35184	7	Sololá	701	Sololá	1	Sololá	7	Julio	2023-07-14T00:00:00	2024-11-08T00:00:00	8	Radiación solar	0
35185	7	Sololá	701	Sololá	1	Sololá	7	Julio	2023-07-14T00:00:00	2024-11-08T01:00:00	2	Temperatura media	14
35186	7	Sololá	701	Sololá	1	Sololá	7	Julio	2023-07-14T00:00:00	2024-11-08T01:00:00	4	Temperatura máxima	14.2
35187	7	Sololá	701	Sololá	1	Sololá	7	Julio	2023-07-14T00:00:00	2024-11-08T01:00:00	3	Temperatura mínima	13.7
35188	7	Sololá	701	Sololá	1	Sololá	7	Julio	2023-07-14T00:00:00	2024-11-08T01:00:00	5	Humedad	96
35189	7	Sololá	701	Sololá	1	Sololá	7	Julio	2023-07-14T00:00:00	2024-11-08T01:00:00	6	Velocidad del viento	0
35190	7	Sololá	701	Sololá	1	Sololá	7	Julio	2023-07-14T00:00:00	2024-11-08T01:00:00	7	Dirección del viento	0
35191	7	Sololá	701	Sololá	1	Sololá	7	Julio	2023-07-14T00:00:00	2024-11-08T01:00:00	1	Precipitación	2.8
35192	7	Sololá	701	Sololá	1	Sololá	7	Julio	2023-07-14T00:00:00	2024-11-08T01:00:00	8	Radiación solar	0
35193	7	Sololá	701	Sololá	1	Sololá	7	Julio	2023-07-14T00:00:00	2024-11-08T02:00:00	2	Temperatura media	13.4
35194	7	Sololá	701	Sololá	1	Sololá	7	Julio	2023-07-14T00:00:00	2024-11-08T02:00:00	4	Temperatura máxima	14.2
35195	7	Sololá	701	Sololá	1	Sololá	7	Julio	2023-07-14T00:00:00	2024-11-08T02:00:00	3	Temperatura mínima	13.4
35196	7	Sololá	701	Sololá	1	Sololá	7	Julio	2023-07-14T00:00:00	2024-11-08T02:00:00	5	Humedad	95
35197	7	Sololá	701	Sololá	1	Sololá	7	Julio	2023-07-14T00:00:00	2024-11-08T02:00:00	6	Velocidad del viento	0
35198	7	Sololá	701	Sololá	1	Sololá	7	Julio	2023-07-14T00:00:00	2024-11-08T02:00:00	7	Dirección del viento	0
35199	7	Sololá	701	Sololá	1	Sololá	7	Julio	2023-07-14T00:00:00	2024-11-08T02:00:00	1	Precipitación	0.4
35200	7	Sololá	701	Sololá	1	Sololá	7	Julio	2023-07-14T00:00:00	2024-11-08T02:00:00	8	Radiación solar	0
35201	7	Sololá	701	Sololá	1	Sololá	7	Julio	2023-07-14T00:00:00	2024-11-08T03:00:00	2	Temperatura media	12.7
35202	7	Sololá	701	Sololá	1	Sololá	7	Julio	2023-07-14T00:00:00	2024-11-08T03:00:00	4	Temperatura máxima	13.4
35203	7	Sololá	701	Sololá	1	Sololá	7	Julio	2023-07-14T00:00:00	2024-11-08T03:00:00	3	Temperatura mínima	12.7
35204	7	Sololá	701	Sololá	1	Sololá	7	Julio	2023-07-14T00:00:00	2024-11-08T03:00:00	5	Humedad	95
35205	7	Sololá	701	Sololá	1	Sololá	7	Julio	2023-07-14T00:00:00	2024-11-08T03:00:00	6	Velocidad del viento	0
35206	7	Sololá	701	Sololá	1	Sololá	7	Julio	2023-07-14T00:00:00	2024-11-08T03:00:00	7	Dirección del viento	0
35207	7	Sololá	701	Sololá	1	Sololá	7	Julio	2023-07-14T00:00:00	2024-11-08T03:00:00	1	Precipitación	0.2
35208	7	Sololá	701	Sololá	1	Sololá	7	Julio	2023-07-14T00:00:00	2024-11-08T03:00:00	8	Radiación solar	0
35209	7	Sololá	701	Sololá	1	Sololá	7	Julio	2023-07-14T00:00:00	2024-11-08T04:00:00	2	Temperatura media	12.6
35210	7	Sololá	701	Sololá	1	Sololá	7	Julio	2023-07-14T00:00:00	2024-11-08T04:00:00	4	Temperatura máxima	12.7
35211	7	Sololá	701	Sololá	1	Sololá	7	Julio	2023-07-14T00:00:00	2024-11-08T04:00:00	3	Temperatura mínima	12.6
35212	7	Sololá	701	Sololá	1	Sololá	7	Julio	2023-07-14T00:00:00	2024-11-08T04:00:00	5	Humedad	95
35213	7	Sololá	701	Sololá	1	Sololá	7	Julio	2023-07-14T00:00:00	2024-11-08T04:00:00	6	Velocidad del viento	0
35214	7	Sololá	701	Sololá	1	Sololá	7	Julio	2023-07-14T00:00:00	2024-11-08T04:00:00	7	Dirección del viento	0
35215	7	Sololá	701	Sololá	1	Sololá	7	Julio	2023-07-14T00:00:00	2024-11-08T04:00:00	1	Precipitación	0
35216	7	Sololá	701	Sololá	1	Sololá	7	Julio	2023-07-14T00:00:00	2024-11-08T04:00:00	8	Radiación solar	0
35217	7	Sololá	701	Sololá	1	Sololá	7	Julio	2023-07-14T00:00:00	2024-11-08T05:00:00	2	Temperatura media	13.1
35218	7	Sololá	701	Sololá	1	Sololá	7	Julio	2023-07-14T00:00:00	2024-11-08T05:00:00	4	Temperatura máxima	13.1
35219	7	Sololá	701	Sololá	1	Sololá	7	Julio	2023-07-14T00:00:00	2024-11-08T05:00:00	3	Temperatura mínima	12.4
35220	7	Sololá	701	Sololá	1	Sololá	7	Julio	2023-07-14T00:00:00	2024-11-08T05:00:00	5	Humedad	94
35221	7	Sololá	701	Sololá	1	Sololá	7	Julio	2023-07-14T00:00:00	2024-11-08T05:00:00	6	Velocidad del viento	0
35222	7	Sololá	701	Sololá	1	Sololá	7	Julio	2023-07-14T00:00:00	2024-11-08T05:00:00	7	Dirección del viento	0
35223	7	Sololá	701	Sololá	1	Sololá	7	Julio	2023-07-14T00:00:00	2024-11-08T05:00:00	1	Precipitación	0
35224	7	Sololá	701	Sololá	1	Sololá	7	Julio	2023-07-14T00:00:00	2024-11-08T05:00:00	8	Radiación solar	0
35225	7	Sololá	701	Sololá	1	Sololá	7	Julio	2023-07-14T00:00:00	2024-11-08T06:00:00	2	Temperatura media	13.3
35226	7	Sololá	701	Sololá	1	Sololá	7	Julio	2023-07-14T00:00:00	2024-11-08T06:00:00	4	Temperatura máxima	13.3
35227	7	Sololá	701	Sololá	1	Sololá	7	Julio	2023-07-14T00:00:00	2024-11-08T06:00:00	3	Temperatura mínima	13
35228	7	Sololá	701	Sololá	1	Sololá	7	Julio	2023-07-14T00:00:00	2024-11-08T06:00:00	5	Humedad	90
35229	7	Sololá	701	Sololá	1	Sololá	7	Julio	2023-07-14T00:00:00	2024-11-08T06:00:00	6	Velocidad del viento	0
35230	7	Sololá	701	Sololá	1	Sololá	7	Julio	2023-07-14T00:00:00	2024-11-08T06:00:00	7	Dirección del viento	0
35231	7	Sololá	701	Sololá	1	Sololá	7	Julio	2023-07-14T00:00:00	2024-11-08T06:00:00	1	Precipitación	0
35232	7	Sololá	701	Sololá	1	Sololá	7	Julio	2023-07-14T00:00:00	2024-11-08T06:00:00	8	Radiación solar	2
35233	7	Sololá	701	Sololá	1	Sololá	7	Julio	2023-07-14T00:00:00	2024-11-08T07:00:00	2	Temperatura media	14.2
35234	7	Sololá	701	Sololá	1	Sololá	7	Julio	2023-07-14T00:00:00	2024-11-08T07:00:00	4	Temperatura máxima	14.2
35235	7	Sololá	701	Sololá	1	Sololá	7	Julio	2023-07-14T00:00:00	2024-11-08T07:00:00	3	Temperatura mínima	13.3
35236	7	Sololá	701	Sololá	1	Sololá	7	Julio	2023-07-14T00:00:00	2024-11-08T07:00:00	5	Humedad	88
35237	7	Sololá	701	Sololá	1	Sololá	7	Julio	2023-07-14T00:00:00	2024-11-08T07:00:00	6	Velocidad del viento	0
35238	7	Sololá	701	Sololá	1	Sololá	7	Julio	2023-07-14T00:00:00	2024-11-08T07:00:00	7	Dirección del viento	0
35239	7	Sololá	701	Sololá	1	Sololá	7	Julio	2023-07-14T00:00:00	2024-11-08T07:00:00	1	Precipitación	0
35240	7	Sololá	701	Sololá	1	Sololá	7	Julio	2023-07-14T00:00:00	2024-11-08T07:00:00	8	Radiación solar	43
35241	7	Sololá	701	Sololá	1	Sololá	7	Julio	2023-07-14T00:00:00	2024-11-08T08:00:00	2	Temperatura media	15.3
35242	7	Sololá	701	Sololá	1	Sololá	7	Julio	2023-07-14T00:00:00	2024-11-08T08:00:00	4	Temperatura máxima	15.3
35243	7	Sololá	701	Sololá	1	Sololá	7	Julio	2023-07-14T00:00:00	2024-11-08T08:00:00	3	Temperatura mínima	14.2
35244	7	Sololá	701	Sololá	1	Sololá	7	Julio	2023-07-14T00:00:00	2024-11-08T08:00:00	5	Humedad	86
35245	7	Sololá	701	Sololá	1	Sololá	7	Julio	2023-07-14T00:00:00	2024-11-08T08:00:00	6	Velocidad del viento	0
35246	7	Sololá	701	Sololá	1	Sololá	7	Julio	2023-07-14T00:00:00	2024-11-08T08:00:00	7	Dirección del viento	0
35247	7	Sololá	701	Sololá	1	Sololá	7	Julio	2023-07-14T00:00:00	2024-11-08T08:00:00	1	Precipitación	0
35248	7	Sololá	701	Sololá	1	Sololá	7	Julio	2023-07-14T00:00:00	2024-11-08T08:00:00	8	Radiación solar	109
35249	7	Sololá	701	Sololá	1	Sololá	7	Julio	2023-07-14T00:00:00	2024-11-08T09:00:00	2	Temperatura media	16.9
35250	7	Sololá	701	Sololá	1	Sololá	7	Julio	2023-07-14T00:00:00	2024-11-08T09:00:00	4	Temperatura máxima	16.9
35251	7	Sololá	701	Sololá	1	Sololá	7	Julio	2023-07-14T00:00:00	2024-11-08T09:00:00	3	Temperatura mínima	15.2
35252	7	Sololá	701	Sololá	1	Sololá	7	Julio	2023-07-14T00:00:00	2024-11-08T09:00:00	5	Humedad	78
35253	7	Sololá	701	Sololá	1	Sololá	7	Julio	2023-07-14T00:00:00	2024-11-08T09:00:00	6	Velocidad del viento	0
35254	7	Sololá	701	Sololá	1	Sololá	7	Julio	2023-07-14T00:00:00	2024-11-08T09:00:00	7	Dirección del viento	0
35255	7	Sololá	701	Sololá	1	Sololá	7	Julio	2023-07-14T00:00:00	2024-11-08T09:00:00	1	Precipitación	0
35256	7	Sololá	701	Sololá	1	Sololá	7	Julio	2023-07-14T00:00:00	2024-11-08T09:00:00	8	Radiación solar	226
35257	7	Sololá	701	Sololá	1	Sololá	7	Julio	2023-07-14T00:00:00	2024-11-08T10:00:00	2	Temperatura media	19.6
35258	7	Sololá	701	Sololá	1	Sololá	7	Julio	2023-07-14T00:00:00	2024-11-08T10:00:00	4	Temperatura máxima	19.6
35259	7	Sololá	701	Sololá	1	Sololá	7	Julio	2023-07-14T00:00:00	2024-11-08T10:00:00	3	Temperatura mínima	16.9
35260	7	Sololá	701	Sololá	1	Sololá	7	Julio	2023-07-14T00:00:00	2024-11-08T10:00:00	5	Humedad	69
35261	7	Sololá	701	Sololá	1	Sololá	7	Julio	2023-07-14T00:00:00	2024-11-08T10:00:00	6	Velocidad del viento	0
35262	7	Sololá	701	Sololá	1	Sololá	7	Julio	2023-07-14T00:00:00	2024-11-08T10:00:00	7	Dirección del viento	0
35263	7	Sololá	701	Sololá	1	Sololá	7	Julio	2023-07-14T00:00:00	2024-11-08T10:00:00	1	Precipitación	0
35264	7	Sololá	701	Sololá	1	Sololá	7	Julio	2023-07-14T00:00:00	2024-11-08T10:00:00	8	Radiación solar	573
35265	7	Sololá	701	Sololá	1	Sololá	7	Julio	2023-07-14T00:00:00	2024-11-08T11:00:00	2	Temperatura media	21.1
35266	7	Sololá	701	Sololá	1	Sololá	7	Julio	2023-07-14T00:00:00	2024-11-08T11:00:00	4	Temperatura máxima	21.1
35267	7	Sololá	701	Sololá	1	Sololá	7	Julio	2023-07-14T00:00:00	2024-11-08T11:00:00	3	Temperatura mínima	19.6
35268	7	Sololá	701	Sololá	1	Sololá	7	Julio	2023-07-14T00:00:00	2024-11-08T11:00:00	5	Humedad	66
35269	7	Sololá	701	Sololá	1	Sololá	7	Julio	2023-07-14T00:00:00	2024-11-08T11:00:00	6	Velocidad del viento	0
35270	7	Sololá	701	Sololá	1	Sololá	7	Julio	2023-07-14T00:00:00	2024-11-08T11:00:00	7	Dirección del viento	0
35271	7	Sololá	701	Sololá	1	Sololá	7	Julio	2023-07-14T00:00:00	2024-11-08T11:00:00	1	Precipitación	0
35272	7	Sololá	701	Sololá	1	Sololá	7	Julio	2023-07-14T00:00:00	2024-11-08T11:00:00	8	Radiación solar	726
35273	7	Sololá	701	Sololá	1	Sololá	7	Julio	2023-07-14T00:00:00	2024-11-08T12:00:00	2	Temperatura media	21.9
35274	7	Sololá	701	Sololá	1	Sololá	7	Julio	2023-07-14T00:00:00	2024-11-08T12:00:00	4	Temperatura máxima	21.9
35275	7	Sololá	701	Sololá	1	Sololá	7	Julio	2023-07-14T00:00:00	2024-11-08T12:00:00	3	Temperatura mínima	21
35276	7	Sololá	701	Sololá	1	Sololá	7	Julio	2023-07-14T00:00:00	2024-11-08T12:00:00	5	Humedad	63
35277	7	Sololá	701	Sololá	1	Sololá	7	Julio	2023-07-14T00:00:00	2024-11-08T12:00:00	6	Velocidad del viento	0
35278	7	Sololá	701	Sololá	1	Sololá	7	Julio	2023-07-14T00:00:00	2024-11-08T12:00:00	7	Dirección del viento	0
35279	7	Sololá	701	Sololá	1	Sololá	7	Julio	2023-07-14T00:00:00	2024-11-08T12:00:00	1	Precipitación	0
35280	7	Sololá	701	Sololá	1	Sololá	7	Julio	2023-07-14T00:00:00	2024-11-08T12:00:00	8	Radiación solar	368
35281	7	Sololá	701	Sololá	1	Sololá	7	Julio	2023-07-14T00:00:00	2024-11-08T13:00:00	2	Temperatura media	22.5
35282	7	Sololá	701	Sololá	1	Sololá	7	Julio	2023-07-14T00:00:00	2024-11-08T13:00:00	4	Temperatura máxima	22.6
35283	7	Sololá	701	Sololá	1	Sololá	7	Julio	2023-07-14T00:00:00	2024-11-08T13:00:00	3	Temperatura mínima	21.9
35284	7	Sololá	701	Sololá	1	Sololá	7	Julio	2023-07-14T00:00:00	2024-11-08T13:00:00	5	Humedad	65
35285	7	Sololá	701	Sololá	1	Sololá	7	Julio	2023-07-14T00:00:00	2024-11-08T13:00:00	6	Velocidad del viento	0
35286	7	Sololá	701	Sololá	1	Sololá	7	Julio	2023-07-14T00:00:00	2024-11-08T13:00:00	7	Dirección del viento	0
35287	7	Sololá	701	Sololá	1	Sololá	7	Julio	2023-07-14T00:00:00	2024-11-08T13:00:00	1	Precipitación	0
35288	7	Sololá	701	Sololá	1	Sololá	7	Julio	2023-07-14T00:00:00	2024-11-08T13:00:00	8	Radiación solar	163
35289	7	Sololá	701	Sololá	1	Sololá	7	Julio	2023-07-14T00:00:00	2024-11-08T14:00:00	2	Temperatura media	23.2
35290	7	Sololá	701	Sololá	1	Sololá	7	Julio	2023-07-14T00:00:00	2024-11-08T14:00:00	4	Temperatura máxima	23.2
35291	7	Sololá	701	Sololá	1	Sololá	7	Julio	2023-07-14T00:00:00	2024-11-08T14:00:00	3	Temperatura mínima	22.4
35292	7	Sololá	701	Sololá	1	Sololá	7	Julio	2023-07-14T00:00:00	2024-11-08T14:00:00	5	Humedad	61
35293	7	Sololá	701	Sololá	1	Sololá	7	Julio	2023-07-14T00:00:00	2024-11-08T14:00:00	6	Velocidad del viento	0
35294	7	Sololá	701	Sololá	1	Sololá	7	Julio	2023-07-14T00:00:00	2024-11-08T14:00:00	7	Dirección del viento	0
35295	7	Sololá	701	Sololá	1	Sololá	7	Julio	2023-07-14T00:00:00	2024-11-08T14:00:00	1	Precipitación	0
35296	7	Sololá	701	Sololá	1	Sololá	7	Julio	2023-07-14T00:00:00	2024-11-08T14:00:00	8	Radiación solar	132
35297	7	Sololá	701	Sololá	1	Sololá	7	Julio	2023-07-14T00:00:00	2024-11-08T15:00:00	2	Temperatura media	22.6
35298	7	Sololá	701	Sololá	1	Sololá	7	Julio	2023-07-14T00:00:00	2024-11-08T15:00:00	4	Temperatura máxima	23.4
35299	7	Sololá	701	Sololá	1	Sololá	7	Julio	2023-07-14T00:00:00	2024-11-08T15:00:00	3	Temperatura mínima	22.6
35300	7	Sololá	701	Sololá	1	Sololá	7	Julio	2023-07-14T00:00:00	2024-11-08T15:00:00	5	Humedad	63
35301	7	Sololá	701	Sololá	1	Sololá	7	Julio	2023-07-14T00:00:00	2024-11-08T15:00:00	6	Velocidad del viento	0
35302	7	Sololá	701	Sololá	1	Sololá	7	Julio	2023-07-14T00:00:00	2024-11-08T15:00:00	7	Dirección del viento	0
35303	7	Sololá	701	Sololá	1	Sololá	7	Julio	2023-07-14T00:00:00	2024-11-08T15:00:00	1	Precipitación	0
35304	7	Sololá	701	Sololá	1	Sololá	7	Julio	2023-07-14T00:00:00	2024-11-08T15:00:00	8	Radiación solar	121
35305	7	Sololá	701	Sololá	1	Sololá	7	Julio	2023-07-14T00:00:00	2024-11-08T16:00:00	2	Temperatura media	21.5
35306	7	Sololá	701	Sololá	1	Sololá	7	Julio	2023-07-14T00:00:00	2024-11-08T16:00:00	4	Temperatura máxima	22.6
35307	7	Sololá	701	Sololá	1	Sololá	7	Julio	2023-07-14T00:00:00	2024-11-08T16:00:00	3	Temperatura mínima	21.5
35308	7	Sololá	701	Sololá	1	Sololá	7	Julio	2023-07-14T00:00:00	2024-11-08T16:00:00	5	Humedad	65
35309	7	Sololá	701	Sololá	1	Sololá	7	Julio	2023-07-14T00:00:00	2024-11-08T16:00:00	6	Velocidad del viento	0
35310	7	Sololá	701	Sololá	1	Sololá	7	Julio	2023-07-14T00:00:00	2024-11-08T16:00:00	7	Dirección del viento	0
35311	7	Sololá	701	Sololá	1	Sololá	7	Julio	2023-07-14T00:00:00	2024-11-08T16:00:00	1	Precipitación	0
35312	7	Sololá	701	Sololá	1	Sololá	7	Julio	2023-07-14T00:00:00	2024-11-08T16:00:00	8	Radiación solar	110
35313	7	Sololá	701	Sololá	1	Sololá	7	Julio	2023-07-14T00:00:00	2024-11-08T17:00:00	2	Temperatura media	20
35314	7	Sololá	701	Sololá	1	Sololá	7	Julio	2023-07-14T00:00:00	2024-11-08T17:00:00	4	Temperatura máxima	21.5
35315	7	Sololá	701	Sololá	1	Sololá	7	Julio	2023-07-14T00:00:00	2024-11-08T17:00:00	3	Temperatura mínima	20
35316	7	Sololá	701	Sololá	1	Sololá	7	Julio	2023-07-14T00:00:00	2024-11-08T17:00:00	5	Humedad	67
35317	7	Sololá	701	Sololá	1	Sololá	7	Julio	2023-07-14T00:00:00	2024-11-08T17:00:00	6	Velocidad del viento	0
35318	7	Sololá	701	Sololá	1	Sololá	7	Julio	2023-07-14T00:00:00	2024-11-08T17:00:00	7	Dirección del viento	0
35319	7	Sololá	701	Sololá	1	Sololá	7	Julio	2023-07-14T00:00:00	2024-11-08T17:00:00	1	Precipitación	0
35320	7	Sololá	701	Sololá	1	Sololá	7	Julio	2023-07-14T00:00:00	2024-11-08T17:00:00	8	Radiación solar	89
35321	7	Sololá	701	Sololá	1	Sololá	7	Julio	2023-07-14T00:00:00	2024-11-08T18:00:00	2	Temperatura media	19.6
35322	7	Sololá	701	Sololá	1	Sololá	7	Julio	2023-07-14T00:00:00	2024-11-08T18:00:00	4	Temperatura máxima	20
35323	7	Sololá	701	Sololá	1	Sololá	7	Julio	2023-07-14T00:00:00	2024-11-08T18:00:00	3	Temperatura mínima	19.6
35324	7	Sololá	701	Sololá	1	Sololá	7	Julio	2023-07-14T00:00:00	2024-11-08T18:00:00	5	Humedad	72
35325	7	Sololá	701	Sololá	1	Sololá	7	Julio	2023-07-14T00:00:00	2024-11-08T18:00:00	6	Velocidad del viento	0
35326	7	Sololá	701	Sololá	1	Sololá	7	Julio	2023-07-14T00:00:00	2024-11-08T18:00:00	7	Dirección del viento	0
35327	7	Sololá	701	Sololá	1	Sololá	7	Julio	2023-07-14T00:00:00	2024-11-08T18:00:00	1	Precipitación	0
35328	7	Sololá	701	Sololá	1	Sololá	7	Julio	2023-07-14T00:00:00	2024-11-08T18:00:00	8	Radiación solar	38
35329	7	Sololá	701	Sololá	1	Sololá	7	Julio	2023-07-14T00:00:00	2024-11-08T19:00:00	2	Temperatura media	17.7
35330	7	Sololá	701	Sololá	1	Sololá	7	Julio	2023-07-14T00:00:00	2024-11-08T19:00:00	4	Temperatura máxima	19.7
35331	7	Sololá	701	Sololá	1	Sololá	7	Julio	2023-07-14T00:00:00	2024-11-08T19:00:00	3	Temperatura mínima	17.7
35332	7	Sololá	701	Sololá	1	Sololá	7	Julio	2023-07-14T00:00:00	2024-11-08T19:00:00	5	Humedad	78
35333	7	Sololá	701	Sololá	1	Sololá	7	Julio	2023-07-14T00:00:00	2024-11-08T19:00:00	6	Velocidad del viento	0
35334	7	Sololá	701	Sololá	1	Sololá	7	Julio	2023-07-14T00:00:00	2024-11-08T19:00:00	7	Dirección del viento	0
35335	7	Sololá	701	Sololá	1	Sololá	7	Julio	2023-07-14T00:00:00	2024-11-08T19:00:00	1	Precipitación	0
35336	7	Sololá	701	Sololá	1	Sololá	7	Julio	2023-07-14T00:00:00	2024-11-08T19:00:00	8	Radiación solar	0
35337	7	Sololá	701	Sololá	1	Sololá	7	Julio	2023-07-14T00:00:00	2024-11-08T20:00:00	2	Temperatura media	16.7
35338	7	Sololá	701	Sololá	1	Sololá	7	Julio	2023-07-14T00:00:00	2024-11-08T20:00:00	4	Temperatura máxima	17.7
35339	7	Sololá	701	Sololá	1	Sololá	7	Julio	2023-07-14T00:00:00	2024-11-08T20:00:00	3	Temperatura mínima	16.7
35340	7	Sololá	701	Sololá	1	Sololá	7	Julio	2023-07-14T00:00:00	2024-11-08T20:00:00	5	Humedad	82
35341	7	Sololá	701	Sololá	1	Sololá	7	Julio	2023-07-14T00:00:00	2024-11-08T20:00:00	6	Velocidad del viento	0
35342	7	Sololá	701	Sololá	1	Sololá	7	Julio	2023-07-14T00:00:00	2024-11-08T20:00:00	7	Dirección del viento	0
35343	7	Sololá	701	Sololá	1	Sololá	7	Julio	2023-07-14T00:00:00	2024-11-08T20:00:00	1	Precipitación	0
35344	7	Sololá	701	Sololá	1	Sololá	7	Julio	2023-07-14T00:00:00	2024-11-08T20:00:00	8	Radiación solar	0
35345	7	Sololá	701	Sololá	1	Sololá	7	Julio	2023-07-14T00:00:00	2024-11-08T21:00:00	2	Temperatura media	16.2
35346	7	Sololá	701	Sololá	1	Sololá	7	Julio	2023-07-14T00:00:00	2024-11-08T21:00:00	4	Temperatura máxima	16.7
35347	7	Sololá	701	Sololá	1	Sololá	7	Julio	2023-07-14T00:00:00	2024-11-08T21:00:00	3	Temperatura mínima	16.2
35348	7	Sololá	701	Sololá	1	Sololá	7	Julio	2023-07-14T00:00:00	2024-11-08T21:00:00	5	Humedad	84
35349	7	Sololá	701	Sololá	1	Sololá	7	Julio	2023-07-14T00:00:00	2024-11-08T21:00:00	6	Velocidad del viento	0
35350	7	Sololá	701	Sololá	1	Sololá	7	Julio	2023-07-14T00:00:00	2024-11-08T21:00:00	7	Dirección del viento	0
35351	7	Sololá	701	Sololá	1	Sololá	7	Julio	2023-07-14T00:00:00	2024-11-08T21:00:00	1	Precipitación	0
35352	7	Sololá	701	Sololá	1	Sololá	7	Julio	2023-07-14T00:00:00	2024-11-08T21:00:00	8	Radiación solar	0
35353	7	Sololá	701	Sololá	1	Sololá	7	Julio	2023-07-14T00:00:00	2024-11-08T22:00:00	2	Temperatura media	15.8
35354	7	Sololá	701	Sololá	1	Sololá	7	Julio	2023-07-14T00:00:00	2024-11-08T22:00:00	4	Temperatura máxima	16.2
35355	7	Sololá	701	Sololá	1	Sololá	7	Julio	2023-07-14T00:00:00	2024-11-08T22:00:00	3	Temperatura mínima	15.8
35356	7	Sololá	701	Sololá	1	Sololá	7	Julio	2023-07-14T00:00:00	2024-11-08T22:00:00	5	Humedad	83
35357	7	Sololá	701	Sololá	1	Sololá	7	Julio	2023-07-14T00:00:00	2024-11-08T22:00:00	6	Velocidad del viento	0
35358	7	Sololá	701	Sololá	1	Sololá	7	Julio	2023-07-14T00:00:00	2024-11-08T22:00:00	7	Dirección del viento	0
35359	7	Sololá	701	Sololá	1	Sololá	7	Julio	2023-07-14T00:00:00	2024-11-08T22:00:00	1	Precipitación	0
35360	7	Sololá	701	Sololá	1	Sololá	7	Julio	2023-07-14T00:00:00	2024-11-08T22:00:00	8	Radiación solar	0
35361	7	Sololá	701	Sololá	1	Sololá	7	Julio	2023-07-14T00:00:00	2024-11-08T23:00:00	2	Temperatura media	15.2
35362	7	Sololá	701	Sololá	1	Sololá	7	Julio	2023-07-14T00:00:00	2024-11-08T23:00:00	4	Temperatura máxima	15.9
35363	7	Sololá	701	Sololá	1	Sololá	7	Julio	2023-07-14T00:00:00	2024-11-08T23:00:00	3	Temperatura mínima	15.2
35364	7	Sololá	701	Sololá	1	Sololá	7	Julio	2023-07-14T00:00:00	2024-11-08T23:00:00	5	Humedad	84
35365	7	Sololá	701	Sololá	1	Sololá	7	Julio	2023-07-14T00:00:00	2024-11-08T23:00:00	6	Velocidad del viento	0
35366	7	Sololá	701	Sololá	1	Sololá	7	Julio	2023-07-14T00:00:00	2024-11-08T23:00:00	7	Dirección del viento	0
35367	7	Sololá	701	Sololá	1	Sololá	7	Julio	2023-07-14T00:00:00	2024-11-08T23:00:00	1	Precipitación	0
35368	7	Sololá	701	Sololá	1	Sololá	7	Julio	2023-07-14T00:00:00	2024-11-08T23:00:00	8	Radiación solar	0
35369	7	Sololá	701	Sololá	1	Sololá	7	Julio	2023-07-15T00:00:00	2024-11-08T00:00:00	2	Temperatura media	14.9
35370	7	Sololá	701	Sololá	1	Sololá	7	Julio	2023-07-15T00:00:00	2024-11-08T00:00:00	4	Temperatura máxima	15.2
35371	7	Sololá	701	Sololá	1	Sololá	7	Julio	2023-07-15T00:00:00	2024-11-08T00:00:00	3	Temperatura mínima	14.9
35372	7	Sololá	701	Sololá	1	Sololá	7	Julio	2023-07-15T00:00:00	2024-11-08T00:00:00	5	Humedad	84
35373	7	Sololá	701	Sololá	1	Sololá	7	Julio	2023-07-15T00:00:00	2024-11-08T00:00:00	6	Velocidad del viento	0
35374	7	Sololá	701	Sololá	1	Sololá	7	Julio	2023-07-15T00:00:00	2024-11-08T00:00:00	7	Dirección del viento	0
35375	7	Sololá	701	Sololá	1	Sololá	7	Julio	2023-07-15T00:00:00	2024-11-08T00:00:00	1	Precipitación	0
35376	7	Sololá	701	Sololá	1	Sololá	7	Julio	2023-07-15T00:00:00	2024-11-08T00:00:00	8	Radiación solar	0
35377	7	Sololá	701	Sololá	1	Sololá	7	Julio	2023-07-15T00:00:00	2024-11-08T01:00:00	2	Temperatura media	14.9
35378	7	Sololá	701	Sololá	1	Sololá	7	Julio	2023-07-15T00:00:00	2024-11-08T01:00:00	4	Temperatura máxima	15.1
35379	7	Sololá	701	Sololá	1	Sololá	7	Julio	2023-07-15T00:00:00	2024-11-08T01:00:00	3	Temperatura mínima	14.8
35380	7	Sololá	701	Sololá	1	Sololá	7	Julio	2023-07-15T00:00:00	2024-11-08T01:00:00	5	Humedad	83
35381	7	Sololá	701	Sololá	1	Sololá	7	Julio	2023-07-15T00:00:00	2024-11-08T01:00:00	6	Velocidad del viento	0
35382	7	Sololá	701	Sololá	1	Sololá	7	Julio	2023-07-15T00:00:00	2024-11-08T01:00:00	7	Dirección del viento	0
35383	7	Sololá	701	Sololá	1	Sololá	7	Julio	2023-07-15T00:00:00	2024-11-08T01:00:00	1	Precipitación	0
35384	7	Sololá	701	Sololá	1	Sololá	7	Julio	2023-07-15T00:00:00	2024-11-08T01:00:00	8	Radiación solar	0
35385	7	Sololá	701	Sololá	1	Sololá	7	Julio	2023-07-15T00:00:00	2024-11-08T02:00:00	2	Temperatura media	14.5
35386	7	Sololá	701	Sololá	1	Sololá	7	Julio	2023-07-15T00:00:00	2024-11-08T02:00:00	4	Temperatura máxima	14.9
35387	7	Sololá	701	Sololá	1	Sololá	7	Julio	2023-07-15T00:00:00	2024-11-08T02:00:00	3	Temperatura mínima	14.5
35388	7	Sololá	701	Sololá	1	Sololá	7	Julio	2023-07-15T00:00:00	2024-11-08T02:00:00	5	Humedad	83
35389	7	Sololá	701	Sololá	1	Sololá	7	Julio	2023-07-15T00:00:00	2024-11-08T02:00:00	6	Velocidad del viento	0
35390	7	Sololá	701	Sololá	1	Sololá	7	Julio	2023-07-15T00:00:00	2024-11-08T02:00:00	7	Dirección del viento	0
35391	7	Sololá	701	Sololá	1	Sololá	7	Julio	2023-07-15T00:00:00	2024-11-08T02:00:00	1	Precipitación	0
35392	7	Sololá	701	Sololá	1	Sololá	7	Julio	2023-07-15T00:00:00	2024-11-08T02:00:00	8	Radiación solar	0
35393	7	Sololá	701	Sololá	1	Sololá	7	Julio	2023-07-15T00:00:00	2024-11-08T03:00:00	2	Temperatura media	14.6
35394	7	Sololá	701	Sololá	1	Sololá	7	Julio	2023-07-15T00:00:00	2024-11-08T03:00:00	4	Temperatura máxima	14.7
35395	7	Sololá	701	Sololá	1	Sololá	7	Julio	2023-07-15T00:00:00	2024-11-08T03:00:00	3	Temperatura mínima	14.4
35396	7	Sololá	701	Sololá	1	Sololá	7	Julio	2023-07-15T00:00:00	2024-11-08T03:00:00	5	Humedad	84
35397	7	Sololá	701	Sololá	1	Sololá	7	Julio	2023-07-15T00:00:00	2024-11-08T03:00:00	6	Velocidad del viento	0
35398	7	Sololá	701	Sololá	1	Sololá	7	Julio	2023-07-15T00:00:00	2024-11-08T03:00:00	7	Dirección del viento	0
35399	7	Sololá	701	Sololá	1	Sololá	7	Julio	2023-07-15T00:00:00	2024-11-08T03:00:00	1	Precipitación	0
35400	7	Sololá	701	Sololá	1	Sololá	7	Julio	2023-07-15T00:00:00	2024-11-08T03:00:00	8	Radiación solar	0
35401	7	Sololá	701	Sololá	1	Sololá	7	Julio	2023-07-15T00:00:00	2024-11-08T04:00:00	2	Temperatura media	14.6
35402	7	Sololá	701	Sololá	1	Sololá	7	Julio	2023-07-15T00:00:00	2024-11-08T04:00:00	4	Temperatura máxima	14.6
35403	7	Sololá	701	Sololá	1	Sololá	7	Julio	2023-07-15T00:00:00	2024-11-08T04:00:00	3	Temperatura mínima	14.3
35404	7	Sololá	701	Sololá	1	Sololá	7	Julio	2023-07-15T00:00:00	2024-11-08T04:00:00	5	Humedad	85
35405	7	Sololá	701	Sololá	1	Sololá	7	Julio	2023-07-15T00:00:00	2024-11-08T04:00:00	6	Velocidad del viento	0
35406	7	Sololá	701	Sololá	1	Sololá	7	Julio	2023-07-15T00:00:00	2024-11-08T04:00:00	7	Dirección del viento	0
35407	7	Sololá	701	Sololá	1	Sololá	7	Julio	2023-07-15T00:00:00	2024-11-08T04:00:00	1	Precipitación	0
35408	7	Sololá	701	Sololá	1	Sololá	7	Julio	2023-07-15T00:00:00	2024-11-08T04:00:00	8	Radiación solar	0
35409	7	Sololá	701	Sololá	1	Sololá	7	Julio	2023-07-15T00:00:00	2024-11-08T05:00:00	2	Temperatura media	14.9
35410	7	Sololá	701	Sololá	1	Sololá	7	Julio	2023-07-15T00:00:00	2024-11-08T05:00:00	4	Temperatura máxima	14.9
35411	7	Sololá	701	Sololá	1	Sololá	7	Julio	2023-07-15T00:00:00	2024-11-08T05:00:00	3	Temperatura mínima	14.6
35412	7	Sololá	701	Sololá	1	Sololá	7	Julio	2023-07-15T00:00:00	2024-11-08T05:00:00	5	Humedad	86
35413	7	Sololá	701	Sololá	1	Sololá	7	Julio	2023-07-15T00:00:00	2024-11-08T05:00:00	6	Velocidad del viento	0
35414	7	Sololá	701	Sololá	1	Sololá	7	Julio	2023-07-15T00:00:00	2024-11-08T05:00:00	7	Dirección del viento	0
35415	7	Sololá	701	Sololá	1	Sololá	7	Julio	2023-07-15T00:00:00	2024-11-08T05:00:00	1	Precipitación	0
35416	7	Sololá	701	Sololá	1	Sololá	7	Julio	2023-07-15T00:00:00	2024-11-08T05:00:00	8	Radiación solar	0
35417	7	Sololá	701	Sololá	1	Sololá	7	Julio	2023-07-15T00:00:00	2024-11-08T06:00:00	2	Temperatura media	14.3
35418	7	Sololá	701	Sololá	1	Sololá	7	Julio	2023-07-15T00:00:00	2024-11-08T06:00:00	4	Temperatura máxima	14.9
35419	7	Sololá	701	Sololá	1	Sololá	7	Julio	2023-07-15T00:00:00	2024-11-08T06:00:00	3	Temperatura mínima	14.3
35420	7	Sololá	701	Sololá	1	Sololá	7	Julio	2023-07-15T00:00:00	2024-11-08T06:00:00	5	Humedad	86
35421	7	Sololá	701	Sololá	1	Sololá	7	Julio	2023-07-15T00:00:00	2024-11-08T06:00:00	6	Velocidad del viento	0
35422	7	Sololá	701	Sololá	1	Sololá	7	Julio	2023-07-15T00:00:00	2024-11-08T06:00:00	7	Dirección del viento	0
35423	7	Sololá	701	Sololá	1	Sololá	7	Julio	2023-07-15T00:00:00	2024-11-08T06:00:00	1	Precipitación	0
35424	7	Sololá	701	Sololá	1	Sololá	7	Julio	2023-07-15T00:00:00	2024-11-08T06:00:00	8	Radiación solar	1
35425	7	Sololá	701	Sololá	1	Sololá	7	Julio	2023-07-15T00:00:00	2024-11-08T07:00:00	2	Temperatura media	14.8
35426	7	Sololá	701	Sololá	1	Sololá	7	Julio	2023-07-15T00:00:00	2024-11-08T07:00:00	4	Temperatura máxima	14.8
35427	7	Sololá	701	Sololá	1	Sololá	7	Julio	2023-07-15T00:00:00	2024-11-08T07:00:00	3	Temperatura mínima	14.3
35428	7	Sololá	701	Sololá	1	Sololá	7	Julio	2023-07-15T00:00:00	2024-11-08T07:00:00	5	Humedad	89
35429	7	Sololá	701	Sololá	1	Sololá	7	Julio	2023-07-15T00:00:00	2024-11-08T07:00:00	6	Velocidad del viento	0
35430	7	Sololá	701	Sololá	1	Sololá	7	Julio	2023-07-15T00:00:00	2024-11-08T07:00:00	7	Dirección del viento	0
35431	7	Sololá	701	Sololá	1	Sololá	7	Julio	2023-07-15T00:00:00	2024-11-08T07:00:00	1	Precipitación	0
35432	7	Sololá	701	Sololá	1	Sololá	7	Julio	2023-07-15T00:00:00	2024-11-08T07:00:00	8	Radiación solar	26
35433	7	Sololá	701	Sololá	1	Sololá	7	Julio	2023-07-15T00:00:00	2024-11-08T08:00:00	2	Temperatura media	16.2
35434	7	Sololá	701	Sololá	1	Sololá	7	Julio	2023-07-15T00:00:00	2024-11-08T08:00:00	4	Temperatura máxima	16.2
35435	7	Sololá	701	Sololá	1	Sololá	7	Julio	2023-07-15T00:00:00	2024-11-08T08:00:00	3	Temperatura mínima	14.7
35436	7	Sololá	701	Sololá	1	Sololá	7	Julio	2023-07-15T00:00:00	2024-11-08T08:00:00	5	Humedad	85
35437	7	Sololá	701	Sololá	1	Sololá	7	Julio	2023-07-15T00:00:00	2024-11-08T08:00:00	6	Velocidad del viento	0
35438	7	Sololá	701	Sololá	1	Sololá	7	Julio	2023-07-15T00:00:00	2024-11-08T08:00:00	7	Dirección del viento	0
35439	7	Sololá	701	Sololá	1	Sololá	7	Julio	2023-07-15T00:00:00	2024-11-08T08:00:00	1	Precipitación	0
35440	7	Sololá	701	Sololá	1	Sololá	7	Julio	2023-07-15T00:00:00	2024-11-08T08:00:00	8	Radiación solar	97
35441	7	Sololá	701	Sololá	1	Sololá	7	Julio	2023-07-15T00:00:00	2024-11-08T09:00:00	2	Temperatura media	18.7
35442	7	Sololá	701	Sololá	1	Sololá	7	Julio	2023-07-15T00:00:00	2024-11-08T09:00:00	4	Temperatura máxima	18.7
35443	7	Sololá	701	Sololá	1	Sololá	7	Julio	2023-07-15T00:00:00	2024-11-08T09:00:00	3	Temperatura mínima	16.2
35444	7	Sololá	701	Sololá	1	Sololá	7	Julio	2023-07-15T00:00:00	2024-11-08T09:00:00	5	Humedad	77
35445	7	Sololá	701	Sololá	1	Sololá	7	Julio	2023-07-15T00:00:00	2024-11-08T09:00:00	6	Velocidad del viento	0
35446	7	Sololá	701	Sololá	1	Sololá	7	Julio	2023-07-15T00:00:00	2024-11-08T09:00:00	7	Dirección del viento	0
35447	7	Sololá	701	Sololá	1	Sololá	7	Julio	2023-07-15T00:00:00	2024-11-08T09:00:00	1	Precipitación	0
35448	7	Sololá	701	Sololá	1	Sololá	7	Julio	2023-07-15T00:00:00	2024-11-08T09:00:00	8	Radiación solar	211
35449	7	Sololá	701	Sololá	1	Sololá	7	Julio	2023-07-15T00:00:00	2024-11-08T10:00:00	2	Temperatura media	20.7
35450	7	Sololá	701	Sololá	1	Sololá	7	Julio	2023-07-15T00:00:00	2024-11-08T10:00:00	4	Temperatura máxima	20.7
35451	7	Sololá	701	Sololá	1	Sololá	7	Julio	2023-07-15T00:00:00	2024-11-08T10:00:00	3	Temperatura mínima	18.7
35452	7	Sololá	701	Sololá	1	Sololá	7	Julio	2023-07-15T00:00:00	2024-11-08T10:00:00	5	Humedad	70
35453	7	Sololá	701	Sololá	1	Sololá	7	Julio	2023-07-15T00:00:00	2024-11-08T10:00:00	6	Velocidad del viento	0
35454	7	Sololá	701	Sololá	1	Sololá	7	Julio	2023-07-15T00:00:00	2024-11-08T10:00:00	7	Dirección del viento	0
35455	7	Sololá	701	Sololá	1	Sololá	7	Julio	2023-07-15T00:00:00	2024-11-08T10:00:00	1	Precipitación	0
35456	7	Sololá	701	Sololá	1	Sololá	7	Julio	2023-07-15T00:00:00	2024-11-08T10:00:00	8	Radiación solar	391
35457	7	Sololá	701	Sololá	1	Sololá	7	Julio	2023-07-15T00:00:00	2024-11-08T11:00:00	2	Temperatura media	21.9
35458	7	Sololá	701	Sololá	1	Sololá	7	Julio	2023-07-15T00:00:00	2024-11-08T11:00:00	4	Temperatura máxima	22
35459	7	Sololá	701	Sololá	1	Sololá	7	Julio	2023-07-15T00:00:00	2024-11-08T11:00:00	3	Temperatura mínima	20.7
35460	7	Sololá	701	Sololá	1	Sololá	7	Julio	2023-07-15T00:00:00	2024-11-08T11:00:00	5	Humedad	63
35461	7	Sololá	701	Sololá	1	Sololá	7	Julio	2023-07-15T00:00:00	2024-11-08T11:00:00	6	Velocidad del viento	0
35462	7	Sololá	701	Sololá	1	Sololá	7	Julio	2023-07-15T00:00:00	2024-11-08T11:00:00	7	Dirección del viento	0
35463	7	Sololá	701	Sololá	1	Sololá	7	Julio	2023-07-15T00:00:00	2024-11-08T11:00:00	1	Precipitación	0
35464	7	Sololá	701	Sololá	1	Sololá	7	Julio	2023-07-15T00:00:00	2024-11-08T11:00:00	8	Radiación solar	498
35465	7	Sololá	701	Sololá	1	Sololá	7	Julio	2023-07-15T00:00:00	2024-11-08T12:00:00	2	Temperatura media	21.8
35466	7	Sololá	701	Sololá	1	Sololá	7	Julio	2023-07-15T00:00:00	2024-11-08T12:00:00	4	Temperatura máxima	22.1
35467	7	Sololá	701	Sololá	1	Sololá	7	Julio	2023-07-15T00:00:00	2024-11-08T12:00:00	3	Temperatura mínima	21.8
35468	7	Sololá	701	Sololá	1	Sololá	7	Julio	2023-07-15T00:00:00	2024-11-08T12:00:00	5	Humedad	65
35469	7	Sololá	701	Sololá	1	Sololá	7	Julio	2023-07-15T00:00:00	2024-11-08T12:00:00	6	Velocidad del viento	0
35470	7	Sololá	701	Sololá	1	Sololá	7	Julio	2023-07-15T00:00:00	2024-11-08T12:00:00	7	Dirección del viento	0
35471	7	Sololá	701	Sololá	1	Sololá	7	Julio	2023-07-15T00:00:00	2024-11-08T12:00:00	1	Precipitación	0
35472	7	Sololá	701	Sololá	1	Sololá	7	Julio	2023-07-15T00:00:00	2024-11-08T12:00:00	8	Radiación solar	325
35473	7	Sololá	701	Sololá	1	Sololá	7	Julio	2023-07-15T00:00:00	2024-11-08T13:00:00	2	Temperatura media	20.6
35474	7	Sololá	701	Sololá	1	Sololá	7	Julio	2023-07-15T00:00:00	2024-11-08T13:00:00	4	Temperatura máxima	21.8
35475	7	Sololá	701	Sololá	1	Sololá	7	Julio	2023-07-15T00:00:00	2024-11-08T13:00:00	3	Temperatura mínima	20.4
35476	7	Sololá	701	Sololá	1	Sololá	7	Julio	2023-07-15T00:00:00	2024-11-08T13:00:00	5	Humedad	79
35477	7	Sololá	701	Sololá	1	Sololá	7	Julio	2023-07-15T00:00:00	2024-11-08T13:00:00	6	Velocidad del viento	0
35478	7	Sololá	701	Sololá	1	Sololá	7	Julio	2023-07-15T00:00:00	2024-11-08T13:00:00	7	Dirección del viento	0
35479	7	Sololá	701	Sololá	1	Sololá	7	Julio	2023-07-15T00:00:00	2024-11-08T13:00:00	1	Precipitación	0
35480	7	Sololá	701	Sololá	1	Sololá	7	Julio	2023-07-15T00:00:00	2024-11-08T13:00:00	8	Radiación solar	154
35481	7	Sololá	701	Sololá	1	Sololá	7	Julio	2023-07-15T00:00:00	2024-11-08T14:00:00	2	Temperatura media	20.8
35482	7	Sololá	701	Sololá	1	Sololá	7	Julio	2023-07-15T00:00:00	2024-11-08T14:00:00	4	Temperatura máxima	20.8
35483	7	Sololá	701	Sololá	1	Sololá	7	Julio	2023-07-15T00:00:00	2024-11-08T14:00:00	3	Temperatura mínima	20.4
35484	7	Sololá	701	Sololá	1	Sololá	7	Julio	2023-07-15T00:00:00	2024-11-08T14:00:00	5	Humedad	74
35485	7	Sololá	701	Sololá	1	Sololá	7	Julio	2023-07-15T00:00:00	2024-11-08T14:00:00	6	Velocidad del viento	0
35486	7	Sololá	701	Sololá	1	Sololá	7	Julio	2023-07-15T00:00:00	2024-11-08T14:00:00	7	Dirección del viento	0
35487	7	Sololá	701	Sololá	1	Sololá	7	Julio	2023-07-15T00:00:00	2024-11-08T14:00:00	1	Precipitación	0
35488	7	Sololá	701	Sololá	1	Sololá	7	Julio	2023-07-15T00:00:00	2024-11-08T14:00:00	8	Radiación solar	171
35489	7	Sololá	701	Sololá	1	Sololá	7	Julio	2023-07-15T00:00:00	2024-11-08T15:00:00	2	Temperatura media	21.2
35490	7	Sololá	701	Sololá	1	Sololá	7	Julio	2023-07-15T00:00:00	2024-11-08T15:00:00	4	Temperatura máxima	21.6
35491	7	Sololá	701	Sololá	1	Sololá	7	Julio	2023-07-15T00:00:00	2024-11-08T15:00:00	3	Temperatura mínima	20.8
35492	7	Sololá	701	Sololá	1	Sololá	7	Julio	2023-07-15T00:00:00	2024-11-08T15:00:00	5	Humedad	81
35493	7	Sololá	701	Sololá	1	Sololá	7	Julio	2023-07-15T00:00:00	2024-11-08T15:00:00	6	Velocidad del viento	0
35494	7	Sololá	701	Sololá	1	Sololá	7	Julio	2023-07-15T00:00:00	2024-11-08T15:00:00	7	Dirección del viento	0
35495	7	Sololá	701	Sololá	1	Sololá	7	Julio	2023-07-15T00:00:00	2024-11-08T15:00:00	1	Precipitación	0
35496	7	Sololá	701	Sololá	1	Sololá	7	Julio	2023-07-15T00:00:00	2024-11-08T15:00:00	8	Radiación solar	147
35497	7	Sololá	701	Sololá	1	Sololá	7	Julio	2023-07-15T00:00:00	2024-11-08T16:00:00	2	Temperatura media	19.4
35498	7	Sololá	701	Sololá	1	Sololá	7	Julio	2023-07-15T00:00:00	2024-11-08T16:00:00	4	Temperatura máxima	21.2
35499	7	Sololá	701	Sololá	1	Sololá	7	Julio	2023-07-15T00:00:00	2024-11-08T16:00:00	3	Temperatura mínima	19.4
35500	7	Sololá	701	Sololá	1	Sololá	7	Julio	2023-07-15T00:00:00	2024-11-08T16:00:00	5	Humedad	86
35501	7	Sololá	701	Sololá	1	Sololá	7	Julio	2023-07-15T00:00:00	2024-11-08T16:00:00	6	Velocidad del viento	0
35502	7	Sololá	701	Sololá	1	Sololá	7	Julio	2023-07-15T00:00:00	2024-11-08T16:00:00	7	Dirección del viento	0
35503	7	Sololá	701	Sololá	1	Sololá	7	Julio	2023-07-15T00:00:00	2024-11-08T16:00:00	1	Precipitación	0
35504	7	Sololá	701	Sololá	1	Sololá	7	Julio	2023-07-15T00:00:00	2024-11-08T16:00:00	8	Radiación solar	108
35505	7	Sololá	701	Sololá	1	Sololá	7	Julio	2023-07-15T00:00:00	2024-11-08T17:00:00	2	Temperatura media	18.7
35506	7	Sololá	701	Sololá	1	Sololá	7	Julio	2023-07-15T00:00:00	2024-11-08T17:00:00	4	Temperatura máxima	19.6
35507	7	Sololá	701	Sololá	1	Sololá	7	Julio	2023-07-15T00:00:00	2024-11-08T17:00:00	3	Temperatura mínima	18.6
35508	7	Sololá	701	Sololá	1	Sololá	7	Julio	2023-07-15T00:00:00	2024-11-08T17:00:00	5	Humedad	90
35509	7	Sololá	701	Sololá	1	Sololá	7	Julio	2023-07-15T00:00:00	2024-11-08T17:00:00	6	Velocidad del viento	0
35510	7	Sololá	701	Sololá	1	Sololá	7	Julio	2023-07-15T00:00:00	2024-11-08T17:00:00	7	Dirección del viento	0
35511	7	Sololá	701	Sololá	1	Sololá	7	Julio	2023-07-15T00:00:00	2024-11-08T17:00:00	1	Precipitación	0
35512	7	Sololá	701	Sololá	1	Sololá	7	Julio	2023-07-15T00:00:00	2024-11-08T17:00:00	8	Radiación solar	60
35513	7	Sololá	701	Sololá	1	Sololá	7	Julio	2023-07-15T00:00:00	2024-11-08T18:00:00	2	Temperatura media	17.8
35514	7	Sololá	701	Sololá	1	Sololá	7	Julio	2023-07-15T00:00:00	2024-11-08T18:00:00	4	Temperatura máxima	18.7
35515	7	Sololá	701	Sololá	1	Sololá	7	Julio	2023-07-15T00:00:00	2024-11-08T18:00:00	3	Temperatura mínima	17.8
35516	7	Sololá	701	Sololá	1	Sololá	7	Julio	2023-07-15T00:00:00	2024-11-08T18:00:00	5	Humedad	82
35517	7	Sololá	701	Sololá	1	Sololá	7	Julio	2023-07-15T00:00:00	2024-11-08T18:00:00	6	Velocidad del viento	0
35518	7	Sololá	701	Sololá	1	Sololá	7	Julio	2023-07-15T00:00:00	2024-11-08T18:00:00	7	Dirección del viento	0
35519	7	Sololá	701	Sololá	1	Sololá	7	Julio	2023-07-15T00:00:00	2024-11-08T18:00:00	1	Precipitación	0
35520	7	Sololá	701	Sololá	1	Sololá	7	Julio	2023-07-15T00:00:00	2024-11-08T18:00:00	8	Radiación solar	25
35521	7	Sololá	701	Sololá	1	Sololá	7	Julio	2023-07-15T00:00:00	2024-11-08T19:00:00	2	Temperatura media	17.1
35522	7	Sololá	701	Sololá	1	Sololá	7	Julio	2023-07-15T00:00:00	2024-11-08T19:00:00	4	Temperatura máxima	17.8
35523	7	Sololá	701	Sololá	1	Sololá	7	Julio	2023-07-15T00:00:00	2024-11-08T19:00:00	3	Temperatura mínima	17.1
35524	7	Sololá	701	Sololá	1	Sololá	7	Julio	2023-07-15T00:00:00	2024-11-08T19:00:00	5	Humedad	82
35525	7	Sololá	701	Sololá	1	Sololá	7	Julio	2023-07-15T00:00:00	2024-11-08T19:00:00	6	Velocidad del viento	0
35526	7	Sololá	701	Sololá	1	Sololá	7	Julio	2023-07-15T00:00:00	2024-11-08T19:00:00	7	Dirección del viento	0
35527	7	Sololá	701	Sololá	1	Sololá	7	Julio	2023-07-15T00:00:00	2024-11-08T19:00:00	1	Precipitación	0
35528	7	Sololá	701	Sololá	1	Sololá	7	Julio	2023-07-15T00:00:00	2024-11-08T19:00:00	8	Radiación solar	0
35529	7	Sololá	701	Sololá	1	Sololá	7	Julio	2023-07-15T00:00:00	2024-11-08T20:00:00	2	Temperatura media	16.4
35530	7	Sololá	701	Sololá	1	Sololá	7	Julio	2023-07-15T00:00:00	2024-11-08T20:00:00	4	Temperatura máxima	17.1
35531	7	Sololá	701	Sololá	1	Sololá	7	Julio	2023-07-15T00:00:00	2024-11-08T20:00:00	3	Temperatura mínima	16.4
35532	7	Sololá	701	Sololá	1	Sololá	7	Julio	2023-07-15T00:00:00	2024-11-08T20:00:00	5	Humedad	85
35533	7	Sololá	701	Sololá	1	Sololá	7	Julio	2023-07-15T00:00:00	2024-11-08T20:00:00	6	Velocidad del viento	0
35534	7	Sololá	701	Sololá	1	Sololá	7	Julio	2023-07-15T00:00:00	2024-11-08T20:00:00	7	Dirección del viento	0
35535	7	Sololá	701	Sololá	1	Sololá	7	Julio	2023-07-15T00:00:00	2024-11-08T20:00:00	1	Precipitación	0
35536	7	Sololá	701	Sololá	1	Sololá	7	Julio	2023-07-15T00:00:00	2024-11-08T20:00:00	8	Radiación solar	0
35537	7	Sololá	701	Sololá	1	Sololá	7	Julio	2023-07-15T00:00:00	2024-11-08T21:00:00	2	Temperatura media	15.9
35538	7	Sololá	701	Sololá	1	Sololá	7	Julio	2023-07-15T00:00:00	2024-11-08T21:00:00	4	Temperatura máxima	16.5
35539	7	Sololá	701	Sololá	1	Sololá	7	Julio	2023-07-15T00:00:00	2024-11-08T21:00:00	3	Temperatura mínima	15.9
35540	7	Sololá	701	Sololá	1	Sololá	7	Julio	2023-07-15T00:00:00	2024-11-08T21:00:00	5	Humedad	88
35541	7	Sololá	701	Sololá	1	Sololá	7	Julio	2023-07-15T00:00:00	2024-11-08T21:00:00	6	Velocidad del viento	0
35542	7	Sololá	701	Sololá	1	Sololá	7	Julio	2023-07-15T00:00:00	2024-11-08T21:00:00	7	Dirección del viento	0
35543	7	Sololá	701	Sololá	1	Sololá	7	Julio	2023-07-15T00:00:00	2024-11-08T21:00:00	1	Precipitación	0
35544	7	Sololá	701	Sololá	1	Sololá	7	Julio	2023-07-15T00:00:00	2024-11-08T21:00:00	8	Radiación solar	0
35545	7	Sololá	701	Sololá	1	Sololá	7	Julio	2023-07-15T00:00:00	2024-11-08T22:00:00	2	Temperatura media	15.6
35546	7	Sololá	701	Sololá	1	Sololá	7	Julio	2023-07-15T00:00:00	2024-11-08T22:00:00	4	Temperatura máxima	15.9
35547	7	Sololá	701	Sololá	1	Sololá	7	Julio	2023-07-15T00:00:00	2024-11-08T22:00:00	3	Temperatura mínima	15.6
35548	7	Sololá	701	Sololá	1	Sololá	7	Julio	2023-07-15T00:00:00	2024-11-08T22:00:00	5	Humedad	86
35549	7	Sololá	701	Sololá	1	Sololá	7	Julio	2023-07-15T00:00:00	2024-11-08T22:00:00	6	Velocidad del viento	0
35550	7	Sololá	701	Sololá	1	Sololá	7	Julio	2023-07-15T00:00:00	2024-11-08T22:00:00	7	Dirección del viento	0
35551	7	Sololá	701	Sololá	1	Sololá	7	Julio	2023-07-15T00:00:00	2024-11-08T22:00:00	1	Precipitación	0
35552	7	Sololá	701	Sololá	1	Sololá	7	Julio	2023-07-15T00:00:00	2024-11-08T22:00:00	8	Radiación solar	0
35553	7	Sololá	701	Sololá	1	Sololá	7	Julio	2023-07-15T00:00:00	2024-11-08T23:00:00	2	Temperatura media	15.4
35554	7	Sololá	701	Sololá	1	Sololá	7	Julio	2023-07-15T00:00:00	2024-11-08T23:00:00	4	Temperatura máxima	15.6
35555	7	Sololá	701	Sololá	1	Sololá	7	Julio	2023-07-15T00:00:00	2024-11-08T23:00:00	3	Temperatura mínima	15.4
35556	7	Sololá	701	Sololá	1	Sololá	7	Julio	2023-07-15T00:00:00	2024-11-08T23:00:00	5	Humedad	85
35557	7	Sololá	701	Sololá	1	Sololá	7	Julio	2023-07-15T00:00:00	2024-11-08T23:00:00	6	Velocidad del viento	0
35558	7	Sololá	701	Sololá	1	Sololá	7	Julio	2023-07-15T00:00:00	2024-11-08T23:00:00	7	Dirección del viento	0
35559	7	Sololá	701	Sololá	1	Sololá	7	Julio	2023-07-15T00:00:00	2024-11-08T23:00:00	1	Precipitación	0
35560	7	Sololá	701	Sololá	1	Sololá	7	Julio	2023-07-15T00:00:00	2024-11-08T23:00:00	8	Radiación solar	0
35561	7	Sololá	701	Sololá	1	Sololá	7	Julio	2023-07-16T00:00:00	2024-11-08T00:00:00	2	Temperatura media	15.4
35562	7	Sololá	701	Sololá	1	Sololá	7	Julio	2023-07-16T00:00:00	2024-11-08T00:00:00	4	Temperatura máxima	15.5
35563	7	Sololá	701	Sololá	1	Sololá	7	Julio	2023-07-16T00:00:00	2024-11-08T00:00:00	3	Temperatura mínima	15.4
35564	7	Sololá	701	Sololá	1	Sololá	7	Julio	2023-07-16T00:00:00	2024-11-08T00:00:00	5	Humedad	86
35565	7	Sololá	701	Sololá	1	Sololá	7	Julio	2023-07-16T00:00:00	2024-11-08T00:00:00	6	Velocidad del viento	0
35566	7	Sololá	701	Sololá	1	Sololá	7	Julio	2023-07-16T00:00:00	2024-11-08T00:00:00	7	Dirección del viento	0
35567	7	Sololá	701	Sololá	1	Sololá	7	Julio	2023-07-16T00:00:00	2024-11-08T00:00:00	1	Precipitación	0
35568	7	Sololá	701	Sololá	1	Sololá	7	Julio	2023-07-16T00:00:00	2024-11-08T00:00:00	8	Radiación solar	0
35569	7	Sololá	701	Sololá	1	Sololá	7	Julio	2023-07-16T00:00:00	2024-11-08T01:00:00	2	Temperatura media	15.4
35570	7	Sololá	701	Sololá	1	Sololá	7	Julio	2023-07-16T00:00:00	2024-11-08T01:00:00	4	Temperatura máxima	15.4
35571	7	Sololá	701	Sololá	1	Sololá	7	Julio	2023-07-16T00:00:00	2024-11-08T01:00:00	3	Temperatura mínima	15.2
35572	7	Sololá	701	Sololá	1	Sololá	7	Julio	2023-07-16T00:00:00	2024-11-08T01:00:00	5	Humedad	85
35573	7	Sololá	701	Sololá	1	Sololá	7	Julio	2023-07-16T00:00:00	2024-11-08T01:00:00	6	Velocidad del viento	0
35574	7	Sololá	701	Sololá	1	Sololá	7	Julio	2023-07-16T00:00:00	2024-11-08T01:00:00	7	Dirección del viento	0
35575	7	Sololá	701	Sololá	1	Sololá	7	Julio	2023-07-16T00:00:00	2024-11-08T01:00:00	1	Precipitación	0
35576	7	Sololá	701	Sololá	1	Sololá	7	Julio	2023-07-16T00:00:00	2024-11-08T01:00:00	8	Radiación solar	0
35577	7	Sololá	701	Sololá	1	Sololá	7	Julio	2023-07-16T00:00:00	2024-11-08T02:00:00	2	Temperatura media	15.4
35578	7	Sololá	701	Sololá	1	Sololá	7	Julio	2023-07-16T00:00:00	2024-11-08T02:00:00	4	Temperatura máxima	15.6
35579	7	Sololá	701	Sololá	1	Sololá	7	Julio	2023-07-16T00:00:00	2024-11-08T02:00:00	3	Temperatura mínima	15.3
35580	7	Sololá	701	Sololá	1	Sololá	7	Julio	2023-07-16T00:00:00	2024-11-08T02:00:00	5	Humedad	89
35581	7	Sololá	701	Sololá	1	Sololá	7	Julio	2023-07-16T00:00:00	2024-11-08T02:00:00	6	Velocidad del viento	0
35582	7	Sololá	701	Sololá	1	Sololá	7	Julio	2023-07-16T00:00:00	2024-11-08T02:00:00	7	Dirección del viento	0
35583	7	Sololá	701	Sololá	1	Sololá	7	Julio	2023-07-16T00:00:00	2024-11-08T02:00:00	1	Precipitación	0.2
35584	7	Sololá	701	Sololá	1	Sololá	7	Julio	2023-07-16T00:00:00	2024-11-08T02:00:00	8	Radiación solar	0
35585	7	Sololá	701	Sololá	1	Sololá	7	Julio	2023-07-16T00:00:00	2024-11-08T03:00:00	2	Temperatura media	14.4
35586	7	Sololá	701	Sololá	1	Sololá	7	Julio	2023-07-16T00:00:00	2024-11-08T03:00:00	4	Temperatura máxima	15.4
35587	7	Sololá	701	Sololá	1	Sololá	7	Julio	2023-07-16T00:00:00	2024-11-08T03:00:00	3	Temperatura mínima	14.4
35588	7	Sololá	701	Sololá	1	Sololá	7	Julio	2023-07-16T00:00:00	2024-11-08T03:00:00	5	Humedad	92
35589	7	Sololá	701	Sololá	1	Sololá	7	Julio	2023-07-16T00:00:00	2024-11-08T03:00:00	6	Velocidad del viento	0
35590	7	Sololá	701	Sololá	1	Sololá	7	Julio	2023-07-16T00:00:00	2024-11-08T03:00:00	7	Dirección del viento	0
35591	7	Sololá	701	Sololá	1	Sololá	7	Julio	2023-07-16T00:00:00	2024-11-08T03:00:00	1	Precipitación	0.2
35592	7	Sololá	701	Sololá	1	Sololá	7	Julio	2023-07-16T00:00:00	2024-11-08T03:00:00	8	Radiación solar	0
35593	7	Sololá	701	Sololá	1	Sololá	7	Julio	2023-07-16T00:00:00	2024-11-08T04:00:00	2	Temperatura media	14.4
35594	7	Sololá	701	Sololá	1	Sololá	7	Julio	2023-07-16T00:00:00	2024-11-08T04:00:00	4	Temperatura máxima	14.6
35595	7	Sololá	701	Sololá	1	Sololá	7	Julio	2023-07-16T00:00:00	2024-11-08T04:00:00	3	Temperatura mínima	14.3
35596	7	Sololá	701	Sololá	1	Sololá	7	Julio	2023-07-16T00:00:00	2024-11-08T04:00:00	5	Humedad	91
35597	7	Sololá	701	Sololá	1	Sololá	7	Julio	2023-07-16T00:00:00	2024-11-08T04:00:00	6	Velocidad del viento	0
35598	7	Sololá	701	Sololá	1	Sololá	7	Julio	2023-07-16T00:00:00	2024-11-08T04:00:00	7	Dirección del viento	0
35599	7	Sololá	701	Sololá	1	Sololá	7	Julio	2023-07-16T00:00:00	2024-11-08T04:00:00	1	Precipitación	0
35600	7	Sololá	701	Sololá	1	Sololá	7	Julio	2023-07-16T00:00:00	2024-11-08T04:00:00	8	Radiación solar	0
35601	7	Sololá	701	Sololá	1	Sololá	7	Julio	2023-07-16T00:00:00	2024-11-08T05:00:00	2	Temperatura media	14.6
35602	7	Sololá	701	Sololá	1	Sololá	7	Julio	2023-07-16T00:00:00	2024-11-08T05:00:00	4	Temperatura máxima	14.6
35603	7	Sololá	701	Sololá	1	Sololá	7	Julio	2023-07-16T00:00:00	2024-11-08T05:00:00	3	Temperatura mínima	14.4
35604	7	Sololá	701	Sololá	1	Sololá	7	Julio	2023-07-16T00:00:00	2024-11-08T05:00:00	5	Humedad	90
35605	7	Sololá	701	Sololá	1	Sololá	7	Julio	2023-07-16T00:00:00	2024-11-08T05:00:00	6	Velocidad del viento	0
35606	7	Sololá	701	Sololá	1	Sololá	7	Julio	2023-07-16T00:00:00	2024-11-08T05:00:00	7	Dirección del viento	0
35607	7	Sololá	701	Sololá	1	Sololá	7	Julio	2023-07-16T00:00:00	2024-11-08T05:00:00	1	Precipitación	0
35608	7	Sololá	701	Sololá	1	Sololá	7	Julio	2023-07-16T00:00:00	2024-11-08T05:00:00	8	Radiación solar	0
35609	7	Sololá	701	Sololá	1	Sololá	7	Julio	2023-07-16T00:00:00	2024-11-08T06:00:00	2	Temperatura media	14.9
35610	7	Sololá	701	Sololá	1	Sololá	7	Julio	2023-07-16T00:00:00	2024-11-08T06:00:00	4	Temperatura máxima	14.9
35611	7	Sololá	701	Sololá	1	Sololá	7	Julio	2023-07-16T00:00:00	2024-11-08T06:00:00	3	Temperatura mínima	14.6
35612	7	Sololá	701	Sololá	1	Sololá	7	Julio	2023-07-16T00:00:00	2024-11-08T06:00:00	5	Humedad	88
35613	7	Sololá	701	Sololá	1	Sololá	7	Julio	2023-07-16T00:00:00	2024-11-08T06:00:00	6	Velocidad del viento	0
35614	7	Sololá	701	Sololá	1	Sololá	7	Julio	2023-07-16T00:00:00	2024-11-08T06:00:00	7	Dirección del viento	0
35615	7	Sololá	701	Sololá	1	Sololá	7	Julio	2023-07-16T00:00:00	2024-11-08T06:00:00	1	Precipitación	0
35616	7	Sololá	701	Sololá	1	Sololá	7	Julio	2023-07-16T00:00:00	2024-11-08T06:00:00	8	Radiación solar	1
35617	7	Sololá	701	Sololá	1	Sololá	7	Julio	2023-07-16T00:00:00	2024-11-08T07:00:00	2	Temperatura media	15.6
35618	7	Sololá	701	Sololá	1	Sololá	7	Julio	2023-07-16T00:00:00	2024-11-08T07:00:00	4	Temperatura máxima	15.6
35619	7	Sololá	701	Sololá	1	Sololá	7	Julio	2023-07-16T00:00:00	2024-11-08T07:00:00	3	Temperatura mínima	14.9
35620	7	Sololá	701	Sololá	1	Sololá	7	Julio	2023-07-16T00:00:00	2024-11-08T07:00:00	5	Humedad	87
35621	7	Sololá	701	Sololá	1	Sololá	7	Julio	2023-07-16T00:00:00	2024-11-08T07:00:00	6	Velocidad del viento	0
35622	7	Sololá	701	Sololá	1	Sololá	7	Julio	2023-07-16T00:00:00	2024-11-08T07:00:00	7	Dirección del viento	0
35623	7	Sololá	701	Sololá	1	Sololá	7	Julio	2023-07-16T00:00:00	2024-11-08T07:00:00	1	Precipitación	0
35624	7	Sololá	701	Sololá	1	Sololá	7	Julio	2023-07-16T00:00:00	2024-11-08T07:00:00	8	Radiación solar	38
35625	7	Sololá	701	Sololá	1	Sololá	7	Julio	2023-07-16T00:00:00	2024-11-08T08:00:00	2	Temperatura media	16.4
35626	7	Sololá	701	Sololá	1	Sololá	7	Julio	2023-07-16T00:00:00	2024-11-08T08:00:00	4	Temperatura máxima	16.4
35627	7	Sololá	701	Sololá	1	Sololá	7	Julio	2023-07-16T00:00:00	2024-11-08T08:00:00	3	Temperatura mínima	15.6
35628	7	Sololá	701	Sololá	1	Sololá	7	Julio	2023-07-16T00:00:00	2024-11-08T08:00:00	5	Humedad	85
35629	7	Sololá	701	Sololá	1	Sololá	7	Julio	2023-07-16T00:00:00	2024-11-08T08:00:00	6	Velocidad del viento	0
35630	7	Sololá	701	Sololá	1	Sololá	7	Julio	2023-07-16T00:00:00	2024-11-08T08:00:00	7	Dirección del viento	0
35631	7	Sololá	701	Sololá	1	Sololá	7	Julio	2023-07-16T00:00:00	2024-11-08T08:00:00	1	Precipitación	0
35632	7	Sololá	701	Sololá	1	Sololá	7	Julio	2023-07-16T00:00:00	2024-11-08T08:00:00	8	Radiación solar	82
35633	7	Sololá	701	Sololá	1	Sololá	7	Julio	2023-07-16T00:00:00	2024-11-08T09:00:00	2	Temperatura media	18.3
35634	7	Sololá	701	Sololá	1	Sololá	7	Julio	2023-07-16T00:00:00	2024-11-08T09:00:00	4	Temperatura máxima	18.3
35635	7	Sololá	701	Sololá	1	Sololá	7	Julio	2023-07-16T00:00:00	2024-11-08T09:00:00	3	Temperatura mínima	16.4
35636	7	Sololá	701	Sololá	1	Sololá	7	Julio	2023-07-16T00:00:00	2024-11-08T09:00:00	5	Humedad	80
35637	7	Sololá	701	Sololá	1	Sololá	7	Julio	2023-07-16T00:00:00	2024-11-08T09:00:00	6	Velocidad del viento	0
35638	7	Sololá	701	Sololá	1	Sololá	7	Julio	2023-07-16T00:00:00	2024-11-08T09:00:00	7	Dirección del viento	0
35639	7	Sololá	701	Sololá	1	Sololá	7	Julio	2023-07-16T00:00:00	2024-11-08T09:00:00	1	Precipitación	0
35640	7	Sololá	701	Sololá	1	Sololá	7	Julio	2023-07-16T00:00:00	2024-11-08T09:00:00	8	Radiación solar	212
35641	7	Sololá	701	Sololá	1	Sololá	7	Julio	2023-07-16T00:00:00	2024-11-08T10:00:00	2	Temperatura media	20.4
35642	7	Sololá	701	Sololá	1	Sololá	7	Julio	2023-07-16T00:00:00	2024-11-08T10:00:00	4	Temperatura máxima	20.8
35643	7	Sololá	701	Sololá	1	Sololá	7	Julio	2023-07-16T00:00:00	2024-11-08T10:00:00	3	Temperatura mínima	18.3
35644	7	Sololá	701	Sololá	1	Sololá	7	Julio	2023-07-16T00:00:00	2024-11-08T10:00:00	5	Humedad	73
35645	7	Sololá	701	Sololá	1	Sololá	7	Julio	2023-07-16T00:00:00	2024-11-08T10:00:00	6	Velocidad del viento	0
35646	7	Sololá	701	Sololá	1	Sololá	7	Julio	2023-07-16T00:00:00	2024-11-08T10:00:00	7	Dirección del viento	0
35647	7	Sololá	701	Sololá	1	Sololá	7	Julio	2023-07-16T00:00:00	2024-11-08T10:00:00	1	Precipitación	0
35648	7	Sololá	701	Sololá	1	Sololá	7	Julio	2023-07-16T00:00:00	2024-11-08T10:00:00	8	Radiación solar	528
35649	7	Sololá	701	Sololá	1	Sololá	7	Julio	2023-07-16T00:00:00	2024-11-08T11:00:00	2	Temperatura media	20.2
35650	7	Sololá	701	Sololá	1	Sololá	7	Julio	2023-07-16T00:00:00	2024-11-08T11:00:00	4	Temperatura máxima	20.7
35651	7	Sololá	701	Sololá	1	Sololá	7	Julio	2023-07-16T00:00:00	2024-11-08T11:00:00	3	Temperatura mínima	20.2
35652	7	Sololá	701	Sololá	1	Sololá	7	Julio	2023-07-16T00:00:00	2024-11-08T11:00:00	5	Humedad	71
35653	7	Sololá	701	Sololá	1	Sololá	7	Julio	2023-07-16T00:00:00	2024-11-08T11:00:00	6	Velocidad del viento	0
35654	7	Sololá	701	Sololá	1	Sololá	7	Julio	2023-07-16T00:00:00	2024-11-08T11:00:00	7	Dirección del viento	0
35655	7	Sololá	701	Sololá	1	Sololá	7	Julio	2023-07-16T00:00:00	2024-11-08T11:00:00	1	Precipitación	0
35656	7	Sololá	701	Sololá	1	Sololá	7	Julio	2023-07-16T00:00:00	2024-11-08T11:00:00	8	Radiación solar	175
35657	7	Sololá	701	Sololá	1	Sololá	7	Julio	2023-07-16T00:00:00	2024-11-08T12:00:00	2	Temperatura media	21.8
35658	7	Sololá	701	Sololá	1	Sololá	7	Julio	2023-07-16T00:00:00	2024-11-08T12:00:00	4	Temperatura máxima	21.8
35659	7	Sololá	701	Sololá	1	Sololá	7	Julio	2023-07-16T00:00:00	2024-11-08T12:00:00	3	Temperatura mínima	20.2
35660	7	Sololá	701	Sololá	1	Sololá	7	Julio	2023-07-16T00:00:00	2024-11-08T12:00:00	5	Humedad	72
35661	7	Sololá	701	Sololá	1	Sololá	7	Julio	2023-07-16T00:00:00	2024-11-08T12:00:00	6	Velocidad del viento	0
35662	7	Sololá	701	Sololá	1	Sololá	7	Julio	2023-07-16T00:00:00	2024-11-08T12:00:00	7	Dirección del viento	0
35663	7	Sololá	701	Sololá	1	Sololá	7	Julio	2023-07-16T00:00:00	2024-11-08T12:00:00	1	Precipitación	0
35664	7	Sololá	701	Sololá	1	Sololá	7	Julio	2023-07-16T00:00:00	2024-11-08T12:00:00	8	Radiación solar	202
35665	7	Sololá	701	Sololá	1	Sololá	7	Julio	2023-07-16T00:00:00	2024-11-08T13:00:00	2	Temperatura media	21.3
35666	7	Sololá	701	Sololá	1	Sololá	7	Julio	2023-07-16T00:00:00	2024-11-08T13:00:00	4	Temperatura máxima	22.3
35667	7	Sololá	701	Sololá	1	Sololá	7	Julio	2023-07-16T00:00:00	2024-11-08T13:00:00	3	Temperatura mínima	21.3
35668	7	Sololá	701	Sololá	1	Sololá	7	Julio	2023-07-16T00:00:00	2024-11-08T13:00:00	5	Humedad	72
35669	7	Sololá	701	Sololá	1	Sololá	7	Julio	2023-07-16T00:00:00	2024-11-08T13:00:00	6	Velocidad del viento	0
35670	7	Sololá	701	Sololá	1	Sololá	7	Julio	2023-07-16T00:00:00	2024-11-08T13:00:00	7	Dirección del viento	0
35671	7	Sololá	701	Sololá	1	Sololá	7	Julio	2023-07-16T00:00:00	2024-11-08T13:00:00	1	Precipitación	0
35672	7	Sololá	701	Sololá	1	Sololá	7	Julio	2023-07-16T00:00:00	2024-11-08T13:00:00	8	Radiación solar	201
35673	7	Sololá	701	Sololá	1	Sololá	7	Julio	2023-07-16T00:00:00	2024-11-08T14:00:00	2	Temperatura media	21.7
35674	7	Sololá	701	Sololá	1	Sololá	7	Julio	2023-07-16T00:00:00	2024-11-08T14:00:00	4	Temperatura máxima	21.7
35675	7	Sololá	701	Sololá	1	Sololá	7	Julio	2023-07-16T00:00:00	2024-11-08T14:00:00	3	Temperatura mínima	20.8
35676	7	Sololá	701	Sololá	1	Sololá	7	Julio	2023-07-16T00:00:00	2024-11-08T14:00:00	5	Humedad	70
35677	7	Sololá	701	Sololá	1	Sololá	7	Julio	2023-07-16T00:00:00	2024-11-08T14:00:00	6	Velocidad del viento	0
35678	7	Sololá	701	Sololá	1	Sololá	7	Julio	2023-07-16T00:00:00	2024-11-08T14:00:00	7	Dirección del viento	0
35679	7	Sololá	701	Sololá	1	Sololá	7	Julio	2023-07-16T00:00:00	2024-11-08T14:00:00	1	Precipitación	0
35680	7	Sololá	701	Sololá	1	Sololá	7	Julio	2023-07-16T00:00:00	2024-11-08T14:00:00	8	Radiación solar	161
35681	7	Sololá	701	Sololá	1	Sololá	7	Julio	2023-07-16T00:00:00	2024-11-08T15:00:00	2	Temperatura media	21.8
35682	7	Sololá	701	Sololá	1	Sololá	7	Julio	2023-07-16T00:00:00	2024-11-08T15:00:00	4	Temperatura máxima	21.8
35683	7	Sololá	701	Sololá	1	Sololá	7	Julio	2023-07-16T00:00:00	2024-11-08T15:00:00	3	Temperatura mínima	21.4
35684	7	Sololá	701	Sololá	1	Sololá	7	Julio	2023-07-16T00:00:00	2024-11-08T15:00:00	5	Humedad	67
35685	7	Sololá	701	Sololá	1	Sololá	7	Julio	2023-07-16T00:00:00	2024-11-08T15:00:00	6	Velocidad del viento	0
35686	7	Sololá	701	Sololá	1	Sololá	7	Julio	2023-07-16T00:00:00	2024-11-08T15:00:00	7	Dirección del viento	0
35687	7	Sololá	701	Sololá	1	Sololá	7	Julio	2023-07-16T00:00:00	2024-11-08T15:00:00	1	Precipitación	0
35688	7	Sololá	701	Sololá	1	Sololá	7	Julio	2023-07-16T00:00:00	2024-11-08T15:00:00	8	Radiación solar	151
35689	7	Sololá	701	Sololá	1	Sololá	7	Julio	2023-07-16T00:00:00	2024-11-08T16:00:00	2	Temperatura media	18.7
35690	7	Sololá	701	Sololá	1	Sololá	7	Julio	2023-07-16T00:00:00	2024-11-08T16:00:00	4	Temperatura máxima	21.9
35691	7	Sololá	701	Sololá	1	Sololá	7	Julio	2023-07-16T00:00:00	2024-11-08T16:00:00	3	Temperatura mínima	18.7
35692	7	Sololá	701	Sololá	1	Sololá	7	Julio	2023-07-16T00:00:00	2024-11-08T16:00:00	5	Humedad	83
35693	7	Sololá	701	Sololá	1	Sololá	7	Julio	2023-07-16T00:00:00	2024-11-08T16:00:00	6	Velocidad del viento	0
35694	7	Sololá	701	Sololá	1	Sololá	7	Julio	2023-07-16T00:00:00	2024-11-08T16:00:00	7	Dirección del viento	0
35695	7	Sololá	701	Sololá	1	Sololá	7	Julio	2023-07-16T00:00:00	2024-11-08T16:00:00	1	Precipitación	1.2
35696	7	Sololá	701	Sololá	1	Sololá	7	Julio	2023-07-16T00:00:00	2024-11-08T16:00:00	8	Radiación solar	31
35697	7	Sololá	701	Sololá	1	Sololá	7	Julio	2023-07-16T00:00:00	2024-11-08T17:00:00	2	Temperatura media	16.4
35698	7	Sololá	701	Sololá	1	Sololá	7	Julio	2023-07-16T00:00:00	2024-11-08T17:00:00	4	Temperatura máxima	18.7
35699	7	Sololá	701	Sololá	1	Sololá	7	Julio	2023-07-16T00:00:00	2024-11-08T17:00:00	3	Temperatura mínima	16.4
35700	7	Sololá	701	Sololá	1	Sololá	7	Julio	2023-07-16T00:00:00	2024-11-08T17:00:00	5	Humedad	91
35701	7	Sololá	701	Sololá	1	Sololá	7	Julio	2023-07-16T00:00:00	2024-11-08T17:00:00	6	Velocidad del viento	0
35702	7	Sololá	701	Sololá	1	Sololá	7	Julio	2023-07-16T00:00:00	2024-11-08T17:00:00	7	Dirección del viento	0
35703	7	Sololá	701	Sololá	1	Sololá	7	Julio	2023-07-16T00:00:00	2024-11-08T17:00:00	1	Precipitación	0
35704	7	Sololá	701	Sololá	1	Sololá	7	Julio	2023-07-16T00:00:00	2024-11-08T17:00:00	8	Radiación solar	1
35705	7	Sololá	701	Sololá	1	Sololá	7	Julio	2023-07-16T00:00:00	2024-11-08T18:00:00	2	Temperatura media	15.7
35706	7	Sololá	701	Sololá	1	Sololá	7	Julio	2023-07-16T00:00:00	2024-11-08T18:00:00	4	Temperatura máxima	16.4
35707	7	Sololá	701	Sololá	1	Sololá	7	Julio	2023-07-16T00:00:00	2024-11-08T18:00:00	3	Temperatura mínima	15.7
35708	7	Sololá	701	Sololá	1	Sololá	7	Julio	2023-07-16T00:00:00	2024-11-08T18:00:00	5	Humedad	92
35709	7	Sololá	701	Sololá	1	Sololá	7	Julio	2023-07-16T00:00:00	2024-11-08T18:00:00	6	Velocidad del viento	0
35710	7	Sololá	701	Sololá	1	Sololá	7	Julio	2023-07-16T00:00:00	2024-11-08T18:00:00	7	Dirección del viento	0
35711	7	Sololá	701	Sololá	1	Sololá	7	Julio	2023-07-16T00:00:00	2024-11-08T18:00:00	1	Precipitación	1.8
35712	7	Sololá	701	Sololá	1	Sololá	7	Julio	2023-07-16T00:00:00	2024-11-08T18:00:00	8	Radiación solar	0
35713	7	Sololá	701	Sololá	1	Sololá	7	Julio	2023-07-16T00:00:00	2024-11-08T19:00:00	2	Temperatura media	14.8
35714	7	Sololá	701	Sololá	1	Sololá	7	Julio	2023-07-16T00:00:00	2024-11-08T19:00:00	4	Temperatura máxima	15.7
35715	7	Sololá	701	Sololá	1	Sololá	7	Julio	2023-07-16T00:00:00	2024-11-08T19:00:00	3	Temperatura mínima	14.8
35716	7	Sololá	701	Sololá	1	Sololá	7	Julio	2023-07-16T00:00:00	2024-11-08T19:00:00	5	Humedad	94
35717	7	Sololá	701	Sololá	1	Sololá	7	Julio	2023-07-16T00:00:00	2024-11-08T19:00:00	6	Velocidad del viento	0
35718	7	Sololá	701	Sololá	1	Sololá	7	Julio	2023-07-16T00:00:00	2024-11-08T19:00:00	7	Dirección del viento	0
35719	7	Sololá	701	Sololá	1	Sololá	7	Julio	2023-07-16T00:00:00	2024-11-08T19:00:00	1	Precipitación	0.6
35720	7	Sololá	701	Sololá	1	Sololá	7	Julio	2023-07-16T00:00:00	2024-11-08T19:00:00	8	Radiación solar	0
35721	7	Sololá	701	Sololá	1	Sololá	7	Julio	2023-07-16T00:00:00	2024-11-08T20:00:00	2	Temperatura media	14.8
35722	7	Sololá	701	Sololá	1	Sololá	7	Julio	2023-07-16T00:00:00	2024-11-08T20:00:00	4	Temperatura máxima	14.9
35723	7	Sololá	701	Sololá	1	Sololá	7	Julio	2023-07-16T00:00:00	2024-11-08T20:00:00	3	Temperatura mínima	14.8
35724	7	Sololá	701	Sololá	1	Sololá	7	Julio	2023-07-16T00:00:00	2024-11-08T20:00:00	5	Humedad	95
35725	7	Sololá	701	Sololá	1	Sololá	7	Julio	2023-07-16T00:00:00	2024-11-08T20:00:00	6	Velocidad del viento	0
35726	7	Sololá	701	Sololá	1	Sololá	7	Julio	2023-07-16T00:00:00	2024-11-08T20:00:00	7	Dirección del viento	0
35727	7	Sololá	701	Sololá	1	Sololá	7	Julio	2023-07-16T00:00:00	2024-11-08T20:00:00	1	Precipitación	0.4
35728	7	Sololá	701	Sololá	1	Sololá	7	Julio	2023-07-16T00:00:00	2024-11-08T20:00:00	8	Radiación solar	0
35729	7	Sololá	701	Sololá	1	Sololá	7	Julio	2023-07-16T00:00:00	2024-11-08T21:00:00	2	Temperatura media	13.9
35730	7	Sololá	701	Sololá	1	Sololá	7	Julio	2023-07-16T00:00:00	2024-11-08T21:00:00	4	Temperatura máxima	14.8
35731	7	Sololá	701	Sololá	1	Sololá	7	Julio	2023-07-16T00:00:00	2024-11-08T21:00:00	3	Temperatura mínima	13.9
35732	7	Sololá	701	Sololá	1	Sololá	7	Julio	2023-07-16T00:00:00	2024-11-08T21:00:00	5	Humedad	90
35733	7	Sololá	701	Sololá	1	Sololá	7	Julio	2023-07-16T00:00:00	2024-11-08T21:00:00	6	Velocidad del viento	0
35734	7	Sololá	701	Sololá	1	Sololá	7	Julio	2023-07-16T00:00:00	2024-11-08T21:00:00	7	Dirección del viento	0
35735	7	Sololá	701	Sololá	1	Sololá	7	Julio	2023-07-16T00:00:00	2024-11-08T21:00:00	1	Precipitación	0
35736	7	Sololá	701	Sololá	1	Sololá	7	Julio	2023-07-16T00:00:00	2024-11-08T21:00:00	8	Radiación solar	0
35737	7	Sololá	701	Sololá	1	Sololá	7	Julio	2023-07-16T00:00:00	2024-11-08T22:00:00	2	Temperatura media	14.2
35738	7	Sololá	701	Sololá	1	Sololá	7	Julio	2023-07-16T00:00:00	2024-11-08T22:00:00	4	Temperatura máxima	14.2
35739	7	Sololá	701	Sololá	1	Sololá	7	Julio	2023-07-16T00:00:00	2024-11-08T22:00:00	3	Temperatura mínima	13.9
35740	7	Sololá	701	Sololá	1	Sololá	7	Julio	2023-07-16T00:00:00	2024-11-08T22:00:00	5	Humedad	91
35741	7	Sololá	701	Sololá	1	Sololá	7	Julio	2023-07-16T00:00:00	2024-11-08T22:00:00	6	Velocidad del viento	0
35742	7	Sololá	701	Sololá	1	Sololá	7	Julio	2023-07-16T00:00:00	2024-11-08T22:00:00	7	Dirección del viento	0
35743	7	Sololá	701	Sololá	1	Sololá	7	Julio	2023-07-16T00:00:00	2024-11-08T22:00:00	1	Precipitación	0
35744	7	Sololá	701	Sololá	1	Sololá	7	Julio	2023-07-16T00:00:00	2024-11-08T22:00:00	8	Radiación solar	0
35745	7	Sololá	701	Sololá	1	Sololá	7	Julio	2023-07-16T00:00:00	2024-11-08T23:00:00	2	Temperatura media	14
35746	7	Sololá	701	Sololá	1	Sololá	7	Julio	2023-07-16T00:00:00	2024-11-08T23:00:00	4	Temperatura máxima	14.2
35747	7	Sololá	701	Sololá	1	Sololá	7	Julio	2023-07-16T00:00:00	2024-11-08T23:00:00	3	Temperatura mínima	14
35748	7	Sololá	701	Sololá	1	Sololá	7	Julio	2023-07-16T00:00:00	2024-11-08T23:00:00	5	Humedad	91
35749	7	Sololá	701	Sololá	1	Sololá	7	Julio	2023-07-16T00:00:00	2024-11-08T23:00:00	6	Velocidad del viento	0
35750	7	Sololá	701	Sololá	1	Sololá	7	Julio	2023-07-16T00:00:00	2024-11-08T23:00:00	7	Dirección del viento	0
35751	7	Sololá	701	Sololá	1	Sololá	7	Julio	2023-07-16T00:00:00	2024-11-08T23:00:00	1	Precipitación	0
35752	7	Sololá	701	Sololá	1	Sololá	7	Julio	2023-07-16T00:00:00	2024-11-08T23:00:00	8	Radiación solar	0
35753	7	Sololá	701	Sololá	1	Sololá	7	Julio	2023-07-17T00:00:00	2024-11-08T00:00:00	2	Temperatura media	14
35754	7	Sololá	701	Sololá	1	Sololá	7	Julio	2023-07-17T00:00:00	2024-11-08T00:00:00	4	Temperatura máxima	14.1
35755	7	Sololá	701	Sololá	1	Sololá	7	Julio	2023-07-17T00:00:00	2024-11-08T00:00:00	3	Temperatura mínima	13.9
35756	7	Sololá	701	Sololá	1	Sololá	7	Julio	2023-07-17T00:00:00	2024-11-08T00:00:00	5	Humedad	90
35757	7	Sololá	701	Sololá	1	Sololá	7	Julio	2023-07-17T00:00:00	2024-11-08T00:00:00	6	Velocidad del viento	0
35758	7	Sololá	701	Sololá	1	Sololá	7	Julio	2023-07-17T00:00:00	2024-11-08T00:00:00	7	Dirección del viento	0
35759	7	Sololá	701	Sololá	1	Sololá	7	Julio	2023-07-17T00:00:00	2024-11-08T00:00:00	1	Precipitación	0
35760	7	Sololá	701	Sololá	1	Sololá	7	Julio	2023-07-17T00:00:00	2024-11-08T00:00:00	8	Radiación solar	0
35761	7	Sololá	701	Sololá	1	Sololá	7	Julio	2023-07-17T00:00:00	2024-11-08T01:00:00	2	Temperatura media	14.1
35762	7	Sololá	701	Sololá	1	Sololá	7	Julio	2023-07-17T00:00:00	2024-11-08T01:00:00	4	Temperatura máxima	14.1
35763	7	Sololá	701	Sololá	1	Sololá	7	Julio	2023-07-17T00:00:00	2024-11-08T01:00:00	3	Temperatura mínima	13.9
35764	7	Sololá	701	Sololá	1	Sololá	7	Julio	2023-07-17T00:00:00	2024-11-08T01:00:00	5	Humedad	90
35765	7	Sololá	701	Sololá	1	Sololá	7	Julio	2023-07-17T00:00:00	2024-11-08T01:00:00	6	Velocidad del viento	0
35766	7	Sololá	701	Sololá	1	Sololá	7	Julio	2023-07-17T00:00:00	2024-11-08T01:00:00	7	Dirección del viento	0
35767	7	Sololá	701	Sololá	1	Sololá	7	Julio	2023-07-17T00:00:00	2024-11-08T01:00:00	1	Precipitación	0
35768	7	Sololá	701	Sololá	1	Sololá	7	Julio	2023-07-17T00:00:00	2024-11-08T01:00:00	8	Radiación solar	0
35769	7	Sololá	701	Sololá	1	Sololá	7	Julio	2023-07-17T00:00:00	2024-11-08T02:00:00	2	Temperatura media	14.6
35770	7	Sololá	701	Sololá	1	Sololá	7	Julio	2023-07-17T00:00:00	2024-11-08T02:00:00	4	Temperatura máxima	14.6
35771	7	Sololá	701	Sololá	1	Sololá	7	Julio	2023-07-17T00:00:00	2024-11-08T02:00:00	3	Temperatura mínima	14.1
35772	7	Sololá	701	Sololá	1	Sololá	7	Julio	2023-07-17T00:00:00	2024-11-08T02:00:00	5	Humedad	86
35773	7	Sololá	701	Sololá	1	Sololá	7	Julio	2023-07-17T00:00:00	2024-11-08T02:00:00	6	Velocidad del viento	0
35774	7	Sololá	701	Sololá	1	Sololá	7	Julio	2023-07-17T00:00:00	2024-11-08T02:00:00	7	Dirección del viento	0
35775	7	Sololá	701	Sololá	1	Sololá	7	Julio	2023-07-17T00:00:00	2024-11-08T02:00:00	1	Precipitación	0
35776	7	Sololá	701	Sololá	1	Sololá	7	Julio	2023-07-17T00:00:00	2024-11-08T02:00:00	8	Radiación solar	0
35777	7	Sololá	701	Sololá	1	Sololá	7	Julio	2023-07-17T00:00:00	2024-11-08T03:00:00	2	Temperatura media	14.7
35778	7	Sololá	701	Sololá	1	Sololá	7	Julio	2023-07-17T00:00:00	2024-11-08T03:00:00	4	Temperatura máxima	14.9
35779	7	Sololá	701	Sololá	1	Sololá	7	Julio	2023-07-17T00:00:00	2024-11-08T03:00:00	3	Temperatura mínima	14.6
35780	7	Sololá	701	Sololá	1	Sololá	7	Julio	2023-07-17T00:00:00	2024-11-08T03:00:00	5	Humedad	88
35781	7	Sololá	701	Sololá	1	Sololá	7	Julio	2023-07-17T00:00:00	2024-11-08T03:00:00	6	Velocidad del viento	0
35782	7	Sololá	701	Sololá	1	Sololá	7	Julio	2023-07-17T00:00:00	2024-11-08T03:00:00	7	Dirección del viento	0
35783	7	Sololá	701	Sololá	1	Sololá	7	Julio	2023-07-17T00:00:00	2024-11-08T03:00:00	1	Precipitación	0
35784	7	Sololá	701	Sololá	1	Sololá	7	Julio	2023-07-17T00:00:00	2024-11-08T03:00:00	8	Radiación solar	0
35785	7	Sololá	701	Sololá	1	Sololá	7	Julio	2023-07-17T00:00:00	2024-11-08T04:00:00	2	Temperatura media	14.7
35786	7	Sololá	701	Sololá	1	Sololá	7	Julio	2023-07-17T00:00:00	2024-11-08T04:00:00	4	Temperatura máxima	14.7
35787	7	Sololá	701	Sololá	1	Sololá	7	Julio	2023-07-17T00:00:00	2024-11-08T04:00:00	3	Temperatura mínima	14.5
35788	7	Sololá	701	Sololá	1	Sololá	7	Julio	2023-07-17T00:00:00	2024-11-08T04:00:00	5	Humedad	83
35789	7	Sololá	701	Sololá	1	Sololá	7	Julio	2023-07-17T00:00:00	2024-11-08T04:00:00	6	Velocidad del viento	0
35790	7	Sololá	701	Sololá	1	Sololá	7	Julio	2023-07-17T00:00:00	2024-11-08T04:00:00	7	Dirección del viento	0
35791	7	Sololá	701	Sololá	1	Sololá	7	Julio	2023-07-17T00:00:00	2024-11-08T04:00:00	1	Precipitación	0
35792	7	Sololá	701	Sololá	1	Sololá	7	Julio	2023-07-17T00:00:00	2024-11-08T04:00:00	8	Radiación solar	0
35793	7	Sololá	701	Sololá	1	Sololá	7	Julio	2023-07-17T00:00:00	2024-11-08T05:00:00	2	Temperatura media	14.6
35794	7	Sololá	701	Sololá	1	Sololá	7	Julio	2023-07-17T00:00:00	2024-11-08T05:00:00	4	Temperatura máxima	14.8
35795	7	Sololá	701	Sololá	1	Sololá	7	Julio	2023-07-17T00:00:00	2024-11-08T05:00:00	3	Temperatura mínima	14.4
35796	7	Sololá	701	Sololá	1	Sololá	7	Julio	2023-07-17T00:00:00	2024-11-08T05:00:00	5	Humedad	81
35797	7	Sololá	701	Sololá	1	Sololá	7	Julio	2023-07-17T00:00:00	2024-11-08T05:00:00	6	Velocidad del viento	0
35798	7	Sololá	701	Sololá	1	Sololá	7	Julio	2023-07-17T00:00:00	2024-11-08T05:00:00	7	Dirección del viento	0
35799	7	Sololá	701	Sololá	1	Sololá	7	Julio	2023-07-17T00:00:00	2024-11-08T05:00:00	1	Precipitación	0
35800	7	Sololá	701	Sololá	1	Sololá	7	Julio	2023-07-17T00:00:00	2024-11-08T05:00:00	8	Radiación solar	0
35801	7	Sololá	701	Sololá	1	Sololá	7	Julio	2023-07-17T00:00:00	2024-11-08T06:00:00	2	Temperatura media	14.2
35802	7	Sololá	701	Sololá	1	Sololá	7	Julio	2023-07-17T00:00:00	2024-11-08T06:00:00	4	Temperatura máxima	14.6
35803	7	Sololá	701	Sololá	1	Sololá	7	Julio	2023-07-17T00:00:00	2024-11-08T06:00:00	3	Temperatura mínima	14.1
35804	7	Sololá	701	Sololá	1	Sololá	7	Julio	2023-07-17T00:00:00	2024-11-08T06:00:00	5	Humedad	83
35805	7	Sololá	701	Sololá	1	Sololá	7	Julio	2023-07-17T00:00:00	2024-11-08T06:00:00	6	Velocidad del viento	0
35806	7	Sololá	701	Sololá	1	Sololá	7	Julio	2023-07-17T00:00:00	2024-11-08T06:00:00	7	Dirección del viento	0
35807	7	Sololá	701	Sololá	1	Sololá	7	Julio	2023-07-17T00:00:00	2024-11-08T06:00:00	1	Precipitación	0
35808	7	Sololá	701	Sololá	1	Sololá	7	Julio	2023-07-17T00:00:00	2024-11-08T06:00:00	8	Radiación solar	1
35809	7	Sololá	701	Sololá	1	Sololá	7	Julio	2023-07-17T00:00:00	2024-11-08T07:00:00	2	Temperatura media	14.2
35810	7	Sololá	701	Sololá	1	Sololá	7	Julio	2023-07-17T00:00:00	2024-11-08T07:00:00	4	Temperatura máxima	14.2
35811	7	Sololá	701	Sololá	1	Sololá	7	Julio	2023-07-17T00:00:00	2024-11-08T07:00:00	3	Temperatura mínima	13.9
35812	7	Sololá	701	Sololá	1	Sololá	7	Julio	2023-07-17T00:00:00	2024-11-08T07:00:00	5	Humedad	83
35813	7	Sololá	701	Sololá	1	Sololá	7	Julio	2023-07-17T00:00:00	2024-11-08T07:00:00	6	Velocidad del viento	0
35814	7	Sololá	701	Sololá	1	Sololá	7	Julio	2023-07-17T00:00:00	2024-11-08T07:00:00	7	Dirección del viento	0
35815	7	Sololá	701	Sololá	1	Sololá	7	Julio	2023-07-17T00:00:00	2024-11-08T07:00:00	1	Precipitación	0
35816	7	Sololá	701	Sololá	1	Sololá	7	Julio	2023-07-17T00:00:00	2024-11-08T07:00:00	8	Radiación solar	15
35817	7	Sololá	701	Sololá	1	Sololá	7	Julio	2023-07-17T00:00:00	2024-11-08T08:00:00	2	Temperatura media	15.2
35818	7	Sololá	701	Sololá	1	Sololá	7	Julio	2023-07-17T00:00:00	2024-11-08T08:00:00	4	Temperatura máxima	15.2
35819	7	Sololá	701	Sololá	1	Sololá	7	Julio	2023-07-17T00:00:00	2024-11-08T08:00:00	3	Temperatura mínima	14.2
35820	7	Sololá	701	Sololá	1	Sololá	7	Julio	2023-07-17T00:00:00	2024-11-08T08:00:00	5	Humedad	79
35821	7	Sololá	701	Sololá	1	Sololá	7	Julio	2023-07-17T00:00:00	2024-11-08T08:00:00	6	Velocidad del viento	0
35822	7	Sololá	701	Sololá	1	Sololá	7	Julio	2023-07-17T00:00:00	2024-11-08T08:00:00	7	Dirección del viento	0
35823	7	Sololá	701	Sololá	1	Sololá	7	Julio	2023-07-17T00:00:00	2024-11-08T08:00:00	1	Precipitación	0
35824	7	Sololá	701	Sololá	1	Sololá	7	Julio	2023-07-17T00:00:00	2024-11-08T08:00:00	8	Radiación solar	44
35825	7	Sololá	701	Sololá	1	Sololá	7	Julio	2023-07-17T00:00:00	2024-11-08T09:00:00	2	Temperatura media	18.8
35826	7	Sololá	701	Sololá	1	Sololá	7	Julio	2023-07-17T00:00:00	2024-11-08T09:00:00	4	Temperatura máxima	18.8
35827	7	Sololá	701	Sololá	1	Sololá	7	Julio	2023-07-17T00:00:00	2024-11-08T09:00:00	3	Temperatura mínima	15.2
35828	7	Sololá	701	Sololá	1	Sololá	7	Julio	2023-07-17T00:00:00	2024-11-08T09:00:00	5	Humedad	68
35829	7	Sololá	701	Sololá	1	Sololá	7	Julio	2023-07-17T00:00:00	2024-11-08T09:00:00	6	Velocidad del viento	0
35830	7	Sololá	701	Sololá	1	Sololá	7	Julio	2023-07-17T00:00:00	2024-11-08T09:00:00	7	Dirección del viento	0
35831	7	Sololá	701	Sololá	1	Sololá	7	Julio	2023-07-17T00:00:00	2024-11-08T09:00:00	1	Precipitación	0
35832	7	Sololá	701	Sololá	1	Sololá	7	Julio	2023-07-17T00:00:00	2024-11-08T09:00:00	8	Radiación solar	394
35833	7	Sololá	701	Sololá	1	Sololá	7	Julio	2023-07-17T00:00:00	2024-11-08T10:00:00	2	Temperatura media	20.3
35834	7	Sololá	701	Sololá	1	Sololá	7	Julio	2023-07-17T00:00:00	2024-11-08T10:00:00	4	Temperatura máxima	20.3
35835	7	Sololá	701	Sololá	1	Sololá	7	Julio	2023-07-17T00:00:00	2024-11-08T10:00:00	3	Temperatura mínima	18.8
35836	7	Sololá	701	Sololá	1	Sololá	7	Julio	2023-07-17T00:00:00	2024-11-08T10:00:00	5	Humedad	66
35837	7	Sololá	701	Sololá	1	Sololá	7	Julio	2023-07-17T00:00:00	2024-11-08T10:00:00	6	Velocidad del viento	0
35838	7	Sololá	701	Sololá	1	Sololá	7	Julio	2023-07-17T00:00:00	2024-11-08T10:00:00	7	Dirección del viento	0
35839	7	Sololá	701	Sololá	1	Sololá	7	Julio	2023-07-17T00:00:00	2024-11-08T10:00:00	1	Precipitación	0
35840	7	Sololá	701	Sololá	1	Sololá	7	Julio	2023-07-17T00:00:00	2024-11-08T10:00:00	8	Radiación solar	759
35841	7	Sololá	701	Sololá	1	Sololá	7	Julio	2023-07-17T00:00:00	2024-11-08T11:00:00	2	Temperatura media	21.3
35842	7	Sololá	701	Sololá	1	Sololá	7	Julio	2023-07-17T00:00:00	2024-11-08T11:00:00	4	Temperatura máxima	21.4
35843	7	Sololá	701	Sololá	1	Sololá	7	Julio	2023-07-17T00:00:00	2024-11-08T11:00:00	3	Temperatura mínima	20.3
35844	7	Sololá	701	Sololá	1	Sololá	7	Julio	2023-07-17T00:00:00	2024-11-08T11:00:00	5	Humedad	63
35845	7	Sololá	701	Sololá	1	Sololá	7	Julio	2023-07-17T00:00:00	2024-11-08T11:00:00	6	Velocidad del viento	0
35846	7	Sololá	701	Sololá	1	Sololá	7	Julio	2023-07-17T00:00:00	2024-11-08T11:00:00	7	Dirección del viento	0
35847	7	Sololá	701	Sololá	1	Sololá	7	Julio	2023-07-17T00:00:00	2024-11-08T11:00:00	1	Precipitación	0
35848	7	Sololá	701	Sololá	1	Sololá	7	Julio	2023-07-17T00:00:00	2024-11-08T11:00:00	8	Radiación solar	828
35849	7	Sololá	701	Sololá	1	Sololá	7	Julio	2023-07-17T00:00:00	2024-11-08T12:00:00	2	Temperatura media	22.1
35850	7	Sololá	701	Sololá	1	Sololá	7	Julio	2023-07-17T00:00:00	2024-11-08T12:00:00	4	Temperatura máxima	22.2
35851	7	Sololá	701	Sololá	1	Sololá	7	Julio	2023-07-17T00:00:00	2024-11-08T12:00:00	3	Temperatura mínima	21.3
35852	7	Sololá	701	Sololá	1	Sololá	7	Julio	2023-07-17T00:00:00	2024-11-08T12:00:00	5	Humedad	56
35853	7	Sololá	701	Sololá	1	Sololá	7	Julio	2023-07-17T00:00:00	2024-11-08T12:00:00	6	Velocidad del viento	0
35854	7	Sololá	701	Sololá	1	Sololá	7	Julio	2023-07-17T00:00:00	2024-11-08T12:00:00	7	Dirección del viento	0
35855	7	Sololá	701	Sololá	1	Sololá	7	Julio	2023-07-17T00:00:00	2024-11-08T12:00:00	1	Precipitación	0
35856	7	Sololá	701	Sololá	1	Sololá	7	Julio	2023-07-17T00:00:00	2024-11-08T12:00:00	8	Radiación solar	335
35857	7	Sololá	701	Sololá	1	Sololá	7	Julio	2023-07-17T00:00:00	2024-11-08T13:00:00	2	Temperatura media	22.1
35858	7	Sololá	701	Sololá	1	Sololá	7	Julio	2023-07-17T00:00:00	2024-11-08T13:00:00	4	Temperatura máxima	22.6
35859	7	Sololá	701	Sololá	1	Sololá	7	Julio	2023-07-17T00:00:00	2024-11-08T13:00:00	3	Temperatura mínima	22.1
35860	7	Sololá	701	Sololá	1	Sololá	7	Julio	2023-07-17T00:00:00	2024-11-08T13:00:00	5	Humedad	59
35861	7	Sololá	701	Sololá	1	Sololá	7	Julio	2023-07-17T00:00:00	2024-11-08T13:00:00	6	Velocidad del viento	0
35862	7	Sololá	701	Sololá	1	Sololá	7	Julio	2023-07-17T00:00:00	2024-11-08T13:00:00	7	Dirección del viento	0
35863	7	Sololá	701	Sololá	1	Sololá	7	Julio	2023-07-17T00:00:00	2024-11-08T13:00:00	1	Precipitación	0
35864	7	Sololá	701	Sololá	1	Sololá	7	Julio	2023-07-17T00:00:00	2024-11-08T13:00:00	8	Radiación solar	101
35865	7	Sololá	701	Sololá	1	Sololá	7	Julio	2023-07-17T00:00:00	2024-11-08T14:00:00	2	Temperatura media	22.3
35866	7	Sololá	701	Sololá	1	Sololá	7	Julio	2023-07-17T00:00:00	2024-11-08T14:00:00	4	Temperatura máxima	22.4
35867	7	Sololá	701	Sololá	1	Sololá	7	Julio	2023-07-17T00:00:00	2024-11-08T14:00:00	3	Temperatura mínima	22.1
35868	7	Sololá	701	Sololá	1	Sololá	7	Julio	2023-07-17T00:00:00	2024-11-08T14:00:00	5	Humedad	57
35869	7	Sololá	701	Sololá	1	Sololá	7	Julio	2023-07-17T00:00:00	2024-11-08T14:00:00	6	Velocidad del viento	1.6
35870	7	Sololá	701	Sololá	1	Sololá	7	Julio	2023-07-17T00:00:00	2024-11-08T14:00:00	7	Dirección del viento	1.61
35871	7	Sololá	701	Sololá	1	Sololá	7	Julio	2023-07-17T00:00:00	2024-11-08T14:00:00	1	Precipitación	0
35872	7	Sololá	701	Sololá	1	Sololá	7	Julio	2023-07-17T00:00:00	2024-11-08T14:00:00	8	Radiación solar	87
35873	7	Sololá	701	Sololá	1	Sololá	7	Julio	2023-07-17T00:00:00	2024-11-08T15:00:00	2	Temperatura media	22.6
35874	7	Sololá	701	Sololá	1	Sololá	7	Julio	2023-07-17T00:00:00	2024-11-08T15:00:00	4	Temperatura máxima	22.7
35875	7	Sololá	701	Sololá	1	Sololá	7	Julio	2023-07-17T00:00:00	2024-11-08T15:00:00	3	Temperatura mínima	22.2
35876	7	Sololá	701	Sololá	1	Sololá	7	Julio	2023-07-17T00:00:00	2024-11-08T15:00:00	5	Humedad	60
35877	7	Sololá	701	Sololá	1	Sololá	7	Julio	2023-07-17T00:00:00	2024-11-08T15:00:00	6	Velocidad del viento	0
35878	7	Sololá	701	Sololá	1	Sololá	7	Julio	2023-07-17T00:00:00	2024-11-08T15:00:00	7	Dirección del viento	0
35879	7	Sololá	701	Sololá	1	Sololá	7	Julio	2023-07-17T00:00:00	2024-11-08T15:00:00	1	Precipitación	0
35880	7	Sololá	701	Sololá	1	Sololá	7	Julio	2023-07-17T00:00:00	2024-11-08T15:00:00	8	Radiación solar	72
35881	7	Sololá	701	Sololá	1	Sololá	7	Julio	2023-07-17T00:00:00	2024-11-08T16:00:00	2	Temperatura media	22.2
35882	7	Sololá	701	Sololá	1	Sololá	7	Julio	2023-07-17T00:00:00	2024-11-08T16:00:00	4	Temperatura máxima	23
35883	7	Sololá	701	Sololá	1	Sololá	7	Julio	2023-07-17T00:00:00	2024-11-08T16:00:00	3	Temperatura mínima	22.2
35884	7	Sololá	701	Sololá	1	Sololá	7	Julio	2023-07-17T00:00:00	2024-11-08T16:00:00	5	Humedad	60
35885	7	Sololá	701	Sololá	1	Sololá	7	Julio	2023-07-17T00:00:00	2024-11-08T16:00:00	6	Velocidad del viento	0
35886	7	Sololá	701	Sololá	1	Sololá	7	Julio	2023-07-17T00:00:00	2024-11-08T16:00:00	7	Dirección del viento	0
35887	7	Sololá	701	Sololá	1	Sololá	7	Julio	2023-07-17T00:00:00	2024-11-08T16:00:00	1	Precipitación	0
35888	7	Sololá	701	Sololá	1	Sololá	7	Julio	2023-07-17T00:00:00	2024-11-08T16:00:00	8	Radiación solar	74
35889	7	Sololá	701	Sololá	1	Sololá	7	Julio	2023-07-17T00:00:00	2024-11-08T17:00:00	2	Temperatura media	21.6
35890	7	Sololá	701	Sololá	1	Sololá	7	Julio	2023-07-17T00:00:00	2024-11-08T17:00:00	4	Temperatura máxima	22.3
35891	7	Sololá	701	Sololá	1	Sololá	7	Julio	2023-07-17T00:00:00	2024-11-08T17:00:00	3	Temperatura mínima	21.6
35892	7	Sololá	701	Sololá	1	Sololá	7	Julio	2023-07-17T00:00:00	2024-11-08T17:00:00	5	Humedad	61
35893	7	Sololá	701	Sololá	1	Sololá	7	Julio	2023-07-17T00:00:00	2024-11-08T17:00:00	6	Velocidad del viento	0
35894	7	Sololá	701	Sololá	1	Sololá	7	Julio	2023-07-17T00:00:00	2024-11-08T17:00:00	7	Dirección del viento	0
35895	7	Sololá	701	Sololá	1	Sololá	7	Julio	2023-07-17T00:00:00	2024-11-08T17:00:00	1	Precipitación	0
35896	7	Sololá	701	Sololá	1	Sololá	7	Julio	2023-07-17T00:00:00	2024-11-08T17:00:00	8	Radiación solar	50
35897	7	Sololá	701	Sololá	1	Sololá	7	Julio	2023-07-17T00:00:00	2024-11-08T18:00:00	2	Temperatura media	19.9
35898	7	Sololá	701	Sololá	1	Sololá	7	Julio	2023-07-17T00:00:00	2024-11-08T18:00:00	4	Temperatura máxima	21.6
35899	7	Sololá	701	Sololá	1	Sololá	7	Julio	2023-07-17T00:00:00	2024-11-08T18:00:00	3	Temperatura mínima	19.9
35900	7	Sololá	701	Sololá	1	Sololá	7	Julio	2023-07-17T00:00:00	2024-11-08T18:00:00	5	Humedad	67
35901	7	Sololá	701	Sololá	1	Sololá	7	Julio	2023-07-17T00:00:00	2024-11-08T18:00:00	6	Velocidad del viento	0
35902	7	Sololá	701	Sololá	1	Sololá	7	Julio	2023-07-17T00:00:00	2024-11-08T18:00:00	7	Dirección del viento	0
35903	7	Sololá	701	Sololá	1	Sololá	7	Julio	2023-07-17T00:00:00	2024-11-08T18:00:00	1	Precipitación	0
35904	7	Sololá	701	Sololá	1	Sololá	7	Julio	2023-07-17T00:00:00	2024-11-08T18:00:00	8	Radiación solar	24
35905	7	Sololá	701	Sololá	1	Sololá	7	Julio	2023-07-17T00:00:00	2024-11-08T19:00:00	2	Temperatura media	17.6
35906	7	Sololá	701	Sololá	1	Sololá	7	Julio	2023-07-17T00:00:00	2024-11-08T19:00:00	4	Temperatura máxima	19.9
35907	7	Sololá	701	Sololá	1	Sololá	7	Julio	2023-07-17T00:00:00	2024-11-08T19:00:00	3	Temperatura mínima	17.6
35908	7	Sololá	701	Sololá	1	Sololá	7	Julio	2023-07-17T00:00:00	2024-11-08T19:00:00	5	Humedad	77
35909	7	Sololá	701	Sololá	1	Sololá	7	Julio	2023-07-17T00:00:00	2024-11-08T19:00:00	6	Velocidad del viento	0
35910	7	Sololá	701	Sololá	1	Sololá	7	Julio	2023-07-17T00:00:00	2024-11-08T19:00:00	7	Dirección del viento	0
35911	7	Sololá	701	Sololá	1	Sololá	7	Julio	2023-07-17T00:00:00	2024-11-08T19:00:00	1	Precipitación	0
35912	7	Sololá	701	Sololá	1	Sololá	7	Julio	2023-07-17T00:00:00	2024-11-08T19:00:00	8	Radiación solar	0
35913	7	Sololá	701	Sololá	1	Sololá	7	Julio	2023-07-17T00:00:00	2024-11-08T20:00:00	2	Temperatura media	16.4
35914	7	Sololá	701	Sololá	1	Sololá	7	Julio	2023-07-17T00:00:00	2024-11-08T20:00:00	4	Temperatura máxima	17.6
35915	7	Sololá	701	Sololá	1	Sololá	7	Julio	2023-07-17T00:00:00	2024-11-08T20:00:00	3	Temperatura mínima	16.4
35916	7	Sololá	701	Sololá	1	Sololá	7	Julio	2023-07-17T00:00:00	2024-11-08T20:00:00	5	Humedad	80
35917	7	Sololá	701	Sololá	1	Sololá	7	Julio	2023-07-17T00:00:00	2024-11-08T20:00:00	6	Velocidad del viento	0
35918	7	Sololá	701	Sololá	1	Sololá	7	Julio	2023-07-17T00:00:00	2024-11-08T20:00:00	7	Dirección del viento	0
35919	7	Sololá	701	Sololá	1	Sololá	7	Julio	2023-07-17T00:00:00	2024-11-08T20:00:00	1	Precipitación	0
35920	7	Sololá	701	Sololá	1	Sololá	7	Julio	2023-07-17T00:00:00	2024-11-08T20:00:00	8	Radiación solar	0
35921	7	Sololá	701	Sololá	1	Sololá	7	Julio	2023-07-17T00:00:00	2024-11-08T21:00:00	2	Temperatura media	15.9
35922	7	Sololá	701	Sololá	1	Sololá	7	Julio	2023-07-17T00:00:00	2024-11-08T21:00:00	4	Temperatura máxima	16.4
35923	7	Sololá	701	Sololá	1	Sololá	7	Julio	2023-07-17T00:00:00	2024-11-08T21:00:00	3	Temperatura mínima	15.9
35924	7	Sololá	701	Sololá	1	Sololá	7	Julio	2023-07-17T00:00:00	2024-11-08T21:00:00	5	Humedad	82
35925	7	Sololá	701	Sololá	1	Sololá	7	Julio	2023-07-17T00:00:00	2024-11-08T21:00:00	6	Velocidad del viento	0
35926	7	Sololá	701	Sololá	1	Sololá	7	Julio	2023-07-17T00:00:00	2024-11-08T21:00:00	7	Dirección del viento	0
35927	7	Sololá	701	Sololá	1	Sololá	7	Julio	2023-07-17T00:00:00	2024-11-08T21:00:00	1	Precipitación	0
35928	7	Sololá	701	Sololá	1	Sololá	7	Julio	2023-07-17T00:00:00	2024-11-08T21:00:00	8	Radiación solar	0
35929	7	Sololá	701	Sololá	1	Sololá	7	Julio	2023-07-17T00:00:00	2024-11-08T22:00:00	2	Temperatura media	15.7
35930	7	Sololá	701	Sololá	1	Sololá	7	Julio	2023-07-17T00:00:00	2024-11-08T22:00:00	4	Temperatura máxima	15.9
35931	7	Sololá	701	Sololá	1	Sololá	7	Julio	2023-07-17T00:00:00	2024-11-08T22:00:00	3	Temperatura mínima	15.6
35932	7	Sololá	701	Sololá	1	Sololá	7	Julio	2023-07-17T00:00:00	2024-11-08T22:00:00	5	Humedad	80
35933	7	Sololá	701	Sololá	1	Sololá	7	Julio	2023-07-17T00:00:00	2024-11-08T22:00:00	6	Velocidad del viento	0
35934	7	Sololá	701	Sololá	1	Sololá	7	Julio	2023-07-17T00:00:00	2024-11-08T22:00:00	7	Dirección del viento	0
35935	7	Sololá	701	Sololá	1	Sololá	7	Julio	2023-07-17T00:00:00	2024-11-08T22:00:00	1	Precipitación	0
35936	7	Sololá	701	Sololá	1	Sololá	7	Julio	2023-07-17T00:00:00	2024-11-08T22:00:00	8	Radiación solar	0
35937	7	Sololá	701	Sololá	1	Sololá	7	Julio	2023-07-17T00:00:00	2024-11-08T23:00:00	2	Temperatura media	15.2
35938	7	Sololá	701	Sololá	1	Sololá	7	Julio	2023-07-17T00:00:00	2024-11-08T23:00:00	4	Temperatura máxima	15.7
35939	7	Sololá	701	Sololá	1	Sololá	7	Julio	2023-07-17T00:00:00	2024-11-08T23:00:00	3	Temperatura mínima	15.2
35940	7	Sololá	701	Sololá	1	Sololá	7	Julio	2023-07-17T00:00:00	2024-11-08T23:00:00	5	Humedad	81
35941	7	Sololá	701	Sololá	1	Sololá	7	Julio	2023-07-17T00:00:00	2024-11-08T23:00:00	6	Velocidad del viento	0
35942	7	Sololá	701	Sololá	1	Sololá	7	Julio	2023-07-17T00:00:00	2024-11-08T23:00:00	7	Dirección del viento	0
35943	7	Sololá	701	Sololá	1	Sololá	7	Julio	2023-07-17T00:00:00	2024-11-08T23:00:00	1	Precipitación	0
35944	7	Sololá	701	Sololá	1	Sololá	7	Julio	2023-07-17T00:00:00	2024-11-08T23:00:00	8	Radiación solar	0
35945	7	Sololá	701	Sololá	1	Sololá	7	Julio	2023-07-18T00:00:00	2024-11-08T00:00:00	2	Temperatura media	14.9
35946	7	Sololá	701	Sololá	1	Sololá	7	Julio	2023-07-18T00:00:00	2024-11-08T00:00:00	4	Temperatura máxima	15.2
35947	7	Sololá	701	Sololá	1	Sololá	7	Julio	2023-07-18T00:00:00	2024-11-08T00:00:00	3	Temperatura mínima	14.9
35948	7	Sololá	701	Sololá	1	Sololá	7	Julio	2023-07-18T00:00:00	2024-11-08T00:00:00	5	Humedad	78
35949	7	Sololá	701	Sololá	1	Sololá	7	Julio	2023-07-18T00:00:00	2024-11-08T00:00:00	6	Velocidad del viento	0
35950	7	Sololá	701	Sololá	1	Sololá	7	Julio	2023-07-18T00:00:00	2024-11-08T00:00:00	7	Dirección del viento	0
35951	7	Sololá	701	Sololá	1	Sololá	7	Julio	2023-07-18T00:00:00	2024-11-08T00:00:00	1	Precipitación	0
35952	7	Sololá	701	Sololá	1	Sololá	7	Julio	2023-07-18T00:00:00	2024-11-08T00:00:00	8	Radiación solar	0
35953	7	Sololá	701	Sololá	1	Sololá	7	Julio	2023-07-18T00:00:00	2024-11-08T01:00:00	2	Temperatura media	14.6
35954	7	Sololá	701	Sololá	1	Sololá	7	Julio	2023-07-18T00:00:00	2024-11-08T01:00:00	4	Temperatura máxima	14.9
35955	7	Sololá	701	Sololá	1	Sololá	7	Julio	2023-07-18T00:00:00	2024-11-08T01:00:00	3	Temperatura mínima	14.6
35956	7	Sololá	701	Sololá	1	Sololá	7	Julio	2023-07-18T00:00:00	2024-11-08T01:00:00	5	Humedad	82
35957	7	Sololá	701	Sololá	1	Sololá	7	Julio	2023-07-18T00:00:00	2024-11-08T01:00:00	6	Velocidad del viento	0
35958	7	Sololá	701	Sololá	1	Sololá	7	Julio	2023-07-18T00:00:00	2024-11-08T01:00:00	7	Dirección del viento	0
35959	7	Sololá	701	Sololá	1	Sololá	7	Julio	2023-07-18T00:00:00	2024-11-08T01:00:00	1	Precipitación	0
35960	7	Sololá	701	Sololá	1	Sololá	7	Julio	2023-07-18T00:00:00	2024-11-08T01:00:00	8	Radiación solar	0
35961	7	Sololá	701	Sololá	1	Sololá	7	Julio	2023-07-18T00:00:00	2024-11-08T02:00:00	2	Temperatura media	14.5
35962	7	Sololá	701	Sololá	1	Sololá	7	Julio	2023-07-18T00:00:00	2024-11-08T02:00:00	4	Temperatura máxima	14.6
35963	7	Sololá	701	Sololá	1	Sololá	7	Julio	2023-07-18T00:00:00	2024-11-08T02:00:00	3	Temperatura mínima	14.5
35964	7	Sololá	701	Sololá	1	Sololá	7	Julio	2023-07-18T00:00:00	2024-11-08T02:00:00	5	Humedad	84
35965	7	Sololá	701	Sololá	1	Sololá	7	Julio	2023-07-18T00:00:00	2024-11-08T02:00:00	6	Velocidad del viento	0
35966	7	Sololá	701	Sololá	1	Sololá	7	Julio	2023-07-18T00:00:00	2024-11-08T02:00:00	7	Dirección del viento	0
35967	7	Sololá	701	Sololá	1	Sololá	7	Julio	2023-07-18T00:00:00	2024-11-08T02:00:00	1	Precipitación	0
35968	7	Sololá	701	Sololá	1	Sololá	7	Julio	2023-07-18T00:00:00	2024-11-08T02:00:00	8	Radiación solar	0
35969	7	Sololá	701	Sololá	1	Sololá	7	Julio	2023-07-18T00:00:00	2024-11-08T03:00:00	2	Temperatura media	14.2
35970	7	Sololá	701	Sololá	1	Sololá	7	Julio	2023-07-18T00:00:00	2024-11-08T03:00:00	4	Temperatura máxima	14.6
35971	7	Sololá	701	Sololá	1	Sololá	7	Julio	2023-07-18T00:00:00	2024-11-08T03:00:00	3	Temperatura mínima	14.1
35972	7	Sololá	701	Sololá	1	Sololá	7	Julio	2023-07-18T00:00:00	2024-11-08T03:00:00	5	Humedad	86
35973	7	Sololá	701	Sololá	1	Sololá	7	Julio	2023-07-18T00:00:00	2024-11-08T03:00:00	6	Velocidad del viento	0
35974	7	Sololá	701	Sololá	1	Sololá	7	Julio	2023-07-18T00:00:00	2024-11-08T03:00:00	7	Dirección del viento	0
35975	7	Sololá	701	Sololá	1	Sololá	7	Julio	2023-07-18T00:00:00	2024-11-08T03:00:00	1	Precipitación	0
35976	7	Sololá	701	Sololá	1	Sololá	7	Julio	2023-07-18T00:00:00	2024-11-08T03:00:00	8	Radiación solar	0
35977	7	Sololá	701	Sololá	1	Sololá	7	Julio	2023-07-18T00:00:00	2024-11-08T04:00:00	2	Temperatura media	14.3
35978	7	Sololá	701	Sololá	1	Sololá	7	Julio	2023-07-18T00:00:00	2024-11-08T04:00:00	4	Temperatura máxima	14.3
35979	7	Sololá	701	Sololá	1	Sololá	7	Julio	2023-07-18T00:00:00	2024-11-08T04:00:00	3	Temperatura mínima	14
35980	7	Sololá	701	Sololá	1	Sololá	7	Julio	2023-07-18T00:00:00	2024-11-08T04:00:00	5	Humedad	87
35981	7	Sololá	701	Sololá	1	Sololá	7	Julio	2023-07-18T00:00:00	2024-11-08T04:00:00	6	Velocidad del viento	0
35982	7	Sololá	701	Sololá	1	Sololá	7	Julio	2023-07-18T00:00:00	2024-11-08T04:00:00	7	Dirección del viento	0
35983	7	Sololá	701	Sololá	1	Sololá	7	Julio	2023-07-18T00:00:00	2024-11-08T04:00:00	1	Precipitación	0
35984	7	Sololá	701	Sololá	1	Sololá	7	Julio	2023-07-18T00:00:00	2024-11-08T04:00:00	8	Radiación solar	0
35985	7	Sololá	701	Sololá	1	Sololá	7	Julio	2023-07-18T00:00:00	2024-11-08T05:00:00	2	Temperatura media	14.6
35986	7	Sololá	701	Sololá	1	Sololá	7	Julio	2023-07-18T00:00:00	2024-11-08T05:00:00	4	Temperatura máxima	14.7
35987	7	Sololá	701	Sololá	1	Sololá	7	Julio	2023-07-18T00:00:00	2024-11-08T05:00:00	3	Temperatura mínima	14.3
35988	7	Sololá	701	Sololá	1	Sololá	7	Julio	2023-07-18T00:00:00	2024-11-08T05:00:00	5	Humedad	85
35989	7	Sololá	701	Sololá	1	Sololá	7	Julio	2023-07-18T00:00:00	2024-11-08T05:00:00	6	Velocidad del viento	0
35990	7	Sololá	701	Sololá	1	Sololá	7	Julio	2023-07-18T00:00:00	2024-11-08T05:00:00	7	Dirección del viento	0
35991	7	Sololá	701	Sololá	1	Sololá	7	Julio	2023-07-18T00:00:00	2024-11-08T05:00:00	1	Precipitación	0
35992	7	Sololá	701	Sololá	1	Sololá	7	Julio	2023-07-18T00:00:00	2024-11-08T05:00:00	8	Radiación solar	0
35993	7	Sololá	701	Sololá	1	Sololá	7	Julio	2023-07-18T00:00:00	2024-11-08T06:00:00	2	Temperatura media	14.3
35994	7	Sololá	701	Sololá	1	Sololá	7	Julio	2023-07-18T00:00:00	2024-11-08T06:00:00	4	Temperatura máxima	14.6
35995	7	Sololá	701	Sololá	1	Sololá	7	Julio	2023-07-18T00:00:00	2024-11-08T06:00:00	3	Temperatura mínima	14.3
35996	7	Sololá	701	Sololá	1	Sololá	7	Julio	2023-07-18T00:00:00	2024-11-08T06:00:00	5	Humedad	85
35997	7	Sololá	701	Sololá	1	Sololá	7	Julio	2023-07-18T00:00:00	2024-11-08T06:00:00	6	Velocidad del viento	0
35998	7	Sololá	701	Sololá	1	Sololá	7	Julio	2023-07-18T00:00:00	2024-11-08T06:00:00	7	Dirección del viento	0
35999	7	Sololá	701	Sololá	1	Sololá	7	Julio	2023-07-18T00:00:00	2024-11-08T06:00:00	1	Precipitación	0
36000	7	Sololá	701	Sololá	1	Sololá	7	Julio	2023-07-18T00:00:00	2024-11-08T06:00:00	8	Radiación solar	1
36001	7	Sololá	701	Sololá	1	Sololá	7	Julio	2023-07-18T00:00:00	2024-11-08T07:00:00	2	Temperatura media	14.7
36002	7	Sololá	701	Sololá	1	Sololá	7	Julio	2023-07-18T00:00:00	2024-11-08T07:00:00	4	Temperatura máxima	14.7
36003	7	Sololá	701	Sololá	1	Sololá	7	Julio	2023-07-18T00:00:00	2024-11-08T07:00:00	3	Temperatura mínima	14.3
36004	7	Sololá	701	Sololá	1	Sololá	7	Julio	2023-07-18T00:00:00	2024-11-08T07:00:00	5	Humedad	85
36005	7	Sololá	701	Sololá	1	Sololá	7	Julio	2023-07-18T00:00:00	2024-11-08T07:00:00	6	Velocidad del viento	0
36006	7	Sololá	701	Sololá	1	Sololá	7	Julio	2023-07-18T00:00:00	2024-11-08T07:00:00	7	Dirección del viento	0
36007	7	Sololá	701	Sololá	1	Sololá	7	Julio	2023-07-18T00:00:00	2024-11-08T07:00:00	1	Precipitación	0
36008	7	Sololá	701	Sololá	1	Sololá	7	Julio	2023-07-18T00:00:00	2024-11-08T07:00:00	8	Radiación solar	17
36009	7	Sololá	701	Sololá	1	Sololá	7	Julio	2023-07-18T00:00:00	2024-11-08T08:00:00	2	Temperatura media	15.9
36010	7	Sololá	701	Sololá	1	Sololá	7	Julio	2023-07-18T00:00:00	2024-11-08T08:00:00	4	Temperatura máxima	15.9
36011	7	Sololá	701	Sololá	1	Sololá	7	Julio	2023-07-18T00:00:00	2024-11-08T08:00:00	3	Temperatura mínima	14.7
36012	7	Sololá	701	Sololá	1	Sololá	7	Julio	2023-07-18T00:00:00	2024-11-08T08:00:00	5	Humedad	79
36013	7	Sololá	701	Sololá	1	Sololá	7	Julio	2023-07-18T00:00:00	2024-11-08T08:00:00	6	Velocidad del viento	0
36014	7	Sololá	701	Sololá	1	Sololá	7	Julio	2023-07-18T00:00:00	2024-11-08T08:00:00	7	Dirección del viento	0
36015	7	Sololá	701	Sololá	1	Sololá	7	Julio	2023-07-18T00:00:00	2024-11-08T08:00:00	1	Precipitación	0
36016	7	Sololá	701	Sololá	1	Sololá	7	Julio	2023-07-18T00:00:00	2024-11-08T08:00:00	8	Radiación solar	45
36017	7	Sololá	701	Sololá	1	Sololá	7	Julio	2023-07-18T00:00:00	2024-11-08T09:00:00	2	Temperatura media	18.8
36018	7	Sololá	701	Sololá	1	Sololá	7	Julio	2023-07-18T00:00:00	2024-11-08T09:00:00	4	Temperatura máxima	18.9
36019	7	Sololá	701	Sololá	1	Sololá	7	Julio	2023-07-18T00:00:00	2024-11-08T09:00:00	3	Temperatura mínima	15.9
36020	7	Sololá	701	Sololá	1	Sololá	7	Julio	2023-07-18T00:00:00	2024-11-08T09:00:00	5	Humedad	70
36021	7	Sololá	701	Sololá	1	Sololá	7	Julio	2023-07-18T00:00:00	2024-11-08T09:00:00	6	Velocidad del viento	0
36022	7	Sololá	701	Sololá	1	Sololá	7	Julio	2023-07-18T00:00:00	2024-11-08T09:00:00	7	Dirección del viento	0
36023	7	Sololá	701	Sololá	1	Sololá	7	Julio	2023-07-18T00:00:00	2024-11-08T09:00:00	1	Precipitación	0
36024	7	Sololá	701	Sololá	1	Sololá	7	Julio	2023-07-18T00:00:00	2024-11-08T09:00:00	8	Radiación solar	368
36025	7	Sololá	701	Sololá	1	Sololá	7	Julio	2023-07-18T00:00:00	2024-11-08T10:00:00	2	Temperatura media	20.8
36026	7	Sololá	701	Sololá	1	Sololá	7	Julio	2023-07-18T00:00:00	2024-11-08T10:00:00	4	Temperatura máxima	20.8
36027	7	Sololá	701	Sololá	1	Sololá	7	Julio	2023-07-18T00:00:00	2024-11-08T10:00:00	3	Temperatura mínima	18.9
36028	7	Sololá	701	Sololá	1	Sololá	7	Julio	2023-07-18T00:00:00	2024-11-08T10:00:00	5	Humedad	64
36029	7	Sololá	701	Sololá	1	Sololá	7	Julio	2023-07-18T00:00:00	2024-11-08T10:00:00	6	Velocidad del viento	0
36030	7	Sololá	701	Sololá	1	Sololá	7	Julio	2023-07-18T00:00:00	2024-11-08T10:00:00	7	Dirección del viento	0
36031	7	Sololá	701	Sololá	1	Sololá	7	Julio	2023-07-18T00:00:00	2024-11-08T10:00:00	1	Precipitación	0
36032	7	Sololá	701	Sololá	1	Sololá	7	Julio	2023-07-18T00:00:00	2024-11-08T10:00:00	8	Radiación solar	756
36033	7	Sololá	701	Sololá	1	Sololá	7	Julio	2023-07-18T00:00:00	2024-11-08T11:00:00	2	Temperatura media	21.8
36034	7	Sololá	701	Sololá	1	Sololá	7	Julio	2023-07-18T00:00:00	2024-11-08T11:00:00	4	Temperatura máxima	21.8
36035	7	Sololá	701	Sololá	1	Sololá	7	Julio	2023-07-18T00:00:00	2024-11-08T11:00:00	3	Temperatura mínima	20.7
36036	7	Sololá	701	Sololá	1	Sololá	7	Julio	2023-07-18T00:00:00	2024-11-08T11:00:00	5	Humedad	59
36037	7	Sololá	701	Sololá	1	Sololá	7	Julio	2023-07-18T00:00:00	2024-11-08T11:00:00	6	Velocidad del viento	0
36038	7	Sololá	701	Sololá	1	Sololá	7	Julio	2023-07-18T00:00:00	2024-11-08T11:00:00	7	Dirección del viento	0
36039	7	Sololá	701	Sololá	1	Sololá	7	Julio	2023-07-18T00:00:00	2024-11-08T11:00:00	1	Precipitación	0
36040	7	Sololá	701	Sololá	1	Sololá	7	Julio	2023-07-18T00:00:00	2024-11-08T11:00:00	8	Radiación solar	870
36041	7	Sololá	701	Sololá	1	Sololá	7	Julio	2023-07-18T00:00:00	2024-11-08T12:00:00	2	Temperatura media	22.8
36042	7	Sololá	701	Sololá	1	Sololá	7	Julio	2023-07-18T00:00:00	2024-11-08T12:00:00	4	Temperatura máxima	22.9
36043	7	Sololá	701	Sololá	1	Sololá	7	Julio	2023-07-18T00:00:00	2024-11-08T12:00:00	3	Temperatura mínima	21.7
36044	7	Sololá	701	Sololá	1	Sololá	7	Julio	2023-07-18T00:00:00	2024-11-08T12:00:00	5	Humedad	56
36045	7	Sololá	701	Sololá	1	Sololá	7	Julio	2023-07-18T00:00:00	2024-11-08T12:00:00	6	Velocidad del viento	0
36046	7	Sololá	701	Sololá	1	Sololá	7	Julio	2023-07-18T00:00:00	2024-11-08T12:00:00	7	Dirección del viento	0
36047	7	Sololá	701	Sololá	1	Sololá	7	Julio	2023-07-18T00:00:00	2024-11-08T12:00:00	1	Precipitación	0
36048	7	Sololá	701	Sololá	1	Sololá	7	Julio	2023-07-18T00:00:00	2024-11-08T12:00:00	8	Radiación solar	660
36049	7	Sololá	701	Sololá	1	Sololá	7	Julio	2023-07-18T00:00:00	2024-11-08T13:00:00	2	Temperatura media	23.1
36050	7	Sololá	701	Sololá	1	Sololá	7	Julio	2023-07-18T00:00:00	2024-11-08T13:00:00	4	Temperatura máxima	23.3
36051	7	Sololá	701	Sololá	1	Sololá	7	Julio	2023-07-18T00:00:00	2024-11-08T13:00:00	3	Temperatura mínima	22.8
36052	7	Sololá	701	Sololá	1	Sololá	7	Julio	2023-07-18T00:00:00	2024-11-08T13:00:00	5	Humedad	52
36053	7	Sololá	701	Sololá	1	Sololá	7	Julio	2023-07-18T00:00:00	2024-11-08T13:00:00	6	Velocidad del viento	0
36054	7	Sololá	701	Sololá	1	Sololá	7	Julio	2023-07-18T00:00:00	2024-11-08T13:00:00	7	Dirección del viento	0
36055	7	Sololá	701	Sololá	1	Sololá	7	Julio	2023-07-18T00:00:00	2024-11-08T13:00:00	1	Precipitación	0
36056	7	Sololá	701	Sololá	1	Sololá	7	Julio	2023-07-18T00:00:00	2024-11-08T13:00:00	8	Radiación solar	95
36057	7	Sololá	701	Sololá	1	Sololá	7	Julio	2023-07-18T00:00:00	2024-11-08T14:00:00	2	Temperatura media	23.2
36058	7	Sololá	701	Sololá	1	Sololá	7	Julio	2023-07-18T00:00:00	2024-11-08T14:00:00	4	Temperatura máxima	23.3
36059	7	Sololá	701	Sololá	1	Sololá	7	Julio	2023-07-18T00:00:00	2024-11-08T14:00:00	3	Temperatura mínima	22.9
36060	7	Sololá	701	Sololá	1	Sololá	7	Julio	2023-07-18T00:00:00	2024-11-08T14:00:00	5	Humedad	52
36061	7	Sololá	701	Sololá	1	Sololá	7	Julio	2023-07-18T00:00:00	2024-11-08T14:00:00	6	Velocidad del viento	1.6
36062	7	Sololá	701	Sololá	1	Sololá	7	Julio	2023-07-18T00:00:00	2024-11-08T14:00:00	7	Dirección del viento	1.61
36063	7	Sololá	701	Sololá	1	Sololá	7	Julio	2023-07-18T00:00:00	2024-11-08T14:00:00	1	Precipitación	0
36064	7	Sololá	701	Sololá	1	Sololá	7	Julio	2023-07-18T00:00:00	2024-11-08T14:00:00	8	Radiación solar	154
36065	7	Sololá	701	Sololá	1	Sololá	7	Julio	2023-07-18T00:00:00	2024-11-08T15:00:00	2	Temperatura media	23.4
36066	7	Sololá	701	Sololá	1	Sololá	7	Julio	2023-07-18T00:00:00	2024-11-08T15:00:00	4	Temperatura máxima	23.4
36067	7	Sololá	701	Sololá	1	Sololá	7	Julio	2023-07-18T00:00:00	2024-11-08T15:00:00	3	Temperatura mínima	23.2
36068	7	Sololá	701	Sololá	1	Sololá	7	Julio	2023-07-18T00:00:00	2024-11-08T15:00:00	5	Humedad	51
36069	7	Sololá	701	Sololá	1	Sololá	7	Julio	2023-07-18T00:00:00	2024-11-08T15:00:00	6	Velocidad del viento	1.6
36070	7	Sololá	701	Sololá	1	Sololá	7	Julio	2023-07-18T00:00:00	2024-11-08T15:00:00	7	Dirección del viento	1.61
36071	7	Sololá	701	Sololá	1	Sololá	7	Julio	2023-07-18T00:00:00	2024-11-08T15:00:00	1	Precipitación	0
36072	7	Sololá	701	Sololá	1	Sololá	7	Julio	2023-07-18T00:00:00	2024-11-08T15:00:00	8	Radiación solar	161
36073	7	Sololá	701	Sololá	1	Sololá	7	Julio	2023-07-18T00:00:00	2024-11-08T16:00:00	2	Temperatura media	22.4
36074	7	Sololá	701	Sololá	1	Sololá	7	Julio	2023-07-18T00:00:00	2024-11-08T16:00:00	4	Temperatura máxima	23.7
36075	7	Sololá	701	Sololá	1	Sololá	7	Julio	2023-07-18T00:00:00	2024-11-08T16:00:00	3	Temperatura mínima	22.4
36076	7	Sololá	701	Sololá	1	Sololá	7	Julio	2023-07-18T00:00:00	2024-11-08T16:00:00	5	Humedad	48
36077	7	Sololá	701	Sololá	1	Sololá	7	Julio	2023-07-18T00:00:00	2024-11-08T16:00:00	6	Velocidad del viento	0
36078	7	Sololá	701	Sololá	1	Sololá	7	Julio	2023-07-18T00:00:00	2024-11-08T16:00:00	7	Dirección del viento	0
36079	7	Sololá	701	Sololá	1	Sololá	7	Julio	2023-07-18T00:00:00	2024-11-08T16:00:00	1	Precipitación	0
36080	7	Sololá	701	Sololá	1	Sololá	7	Julio	2023-07-18T00:00:00	2024-11-08T16:00:00	8	Radiación solar	130
36081	7	Sololá	701	Sololá	1	Sololá	7	Julio	2023-07-18T00:00:00	2024-11-08T17:00:00	2	Temperatura media	20.3
36082	7	Sololá	701	Sololá	1	Sololá	7	Julio	2023-07-18T00:00:00	2024-11-08T17:00:00	4	Temperatura máxima	22.4
36083	7	Sololá	701	Sololá	1	Sololá	7	Julio	2023-07-18T00:00:00	2024-11-08T17:00:00	3	Temperatura mínima	20.3
36084	7	Sololá	701	Sololá	1	Sololá	7	Julio	2023-07-18T00:00:00	2024-11-08T17:00:00	5	Humedad	57
36085	7	Sololá	701	Sololá	1	Sololá	7	Julio	2023-07-18T00:00:00	2024-11-08T17:00:00	6	Velocidad del viento	0
36086	7	Sololá	701	Sololá	1	Sololá	7	Julio	2023-07-18T00:00:00	2024-11-08T17:00:00	7	Dirección del viento	0
36087	7	Sololá	701	Sololá	1	Sololá	7	Julio	2023-07-18T00:00:00	2024-11-08T17:00:00	1	Precipitación	0
36088	7	Sololá	701	Sololá	1	Sololá	7	Julio	2023-07-18T00:00:00	2024-11-08T17:00:00	8	Radiación solar	54
36089	7	Sololá	701	Sololá	1	Sololá	7	Julio	2023-07-18T00:00:00	2024-11-08T18:00:00	2	Temperatura media	19.8
36090	7	Sololá	701	Sololá	1	Sololá	7	Julio	2023-07-18T00:00:00	2024-11-08T18:00:00	4	Temperatura máxima	20.3
36091	7	Sololá	701	Sololá	1	Sololá	7	Julio	2023-07-18T00:00:00	2024-11-08T18:00:00	3	Temperatura mínima	19.8
36092	7	Sololá	701	Sololá	1	Sololá	7	Julio	2023-07-18T00:00:00	2024-11-08T18:00:00	5	Humedad	64
36093	7	Sololá	701	Sololá	1	Sololá	7	Julio	2023-07-18T00:00:00	2024-11-08T18:00:00	6	Velocidad del viento	0
36094	7	Sololá	701	Sololá	1	Sololá	7	Julio	2023-07-18T00:00:00	2024-11-08T18:00:00	7	Dirección del viento	0
36095	7	Sololá	701	Sololá	1	Sololá	7	Julio	2023-07-18T00:00:00	2024-11-08T18:00:00	1	Precipitación	0
36096	7	Sololá	701	Sololá	1	Sololá	7	Julio	2023-07-18T00:00:00	2024-11-08T18:00:00	8	Radiación solar	34
36097	7	Sololá	701	Sololá	1	Sololá	7	Julio	2023-07-18T00:00:00	2024-11-08T19:00:00	2	Temperatura media	17.7
36098	7	Sololá	701	Sololá	1	Sololá	7	Julio	2023-07-18T00:00:00	2024-11-08T19:00:00	4	Temperatura máxima	19.8
36099	7	Sololá	701	Sololá	1	Sololá	7	Julio	2023-07-18T00:00:00	2024-11-08T19:00:00	3	Temperatura mínima	17.7
36100	7	Sololá	701	Sololá	1	Sololá	7	Julio	2023-07-18T00:00:00	2024-11-08T19:00:00	5	Humedad	72
36101	7	Sololá	701	Sololá	1	Sololá	7	Julio	2023-07-18T00:00:00	2024-11-08T19:00:00	6	Velocidad del viento	0
36102	7	Sololá	701	Sololá	1	Sololá	7	Julio	2023-07-18T00:00:00	2024-11-08T19:00:00	7	Dirección del viento	0
36103	7	Sololá	701	Sololá	1	Sololá	7	Julio	2023-07-18T00:00:00	2024-11-08T19:00:00	1	Precipitación	0
36104	7	Sololá	701	Sololá	1	Sololá	7	Julio	2023-07-18T00:00:00	2024-11-08T19:00:00	8	Radiación solar	0
36105	7	Sololá	701	Sololá	1	Sololá	7	Julio	2023-07-18T00:00:00	2024-11-08T20:00:00	2	Temperatura media	16.4
36106	7	Sololá	701	Sololá	1	Sololá	7	Julio	2023-07-18T00:00:00	2024-11-08T20:00:00	4	Temperatura máxima	17.7
36107	7	Sololá	701	Sololá	1	Sololá	7	Julio	2023-07-18T00:00:00	2024-11-08T20:00:00	3	Temperatura mínima	16.4
36108	7	Sololá	701	Sololá	1	Sololá	7	Julio	2023-07-18T00:00:00	2024-11-08T20:00:00	5	Humedad	74
36109	7	Sololá	701	Sololá	1	Sololá	7	Julio	2023-07-18T00:00:00	2024-11-08T20:00:00	6	Velocidad del viento	0
36110	7	Sololá	701	Sololá	1	Sololá	7	Julio	2023-07-18T00:00:00	2024-11-08T20:00:00	7	Dirección del viento	0
36111	7	Sololá	701	Sololá	1	Sololá	7	Julio	2023-07-18T00:00:00	2024-11-08T20:00:00	1	Precipitación	0
36112	7	Sololá	701	Sololá	1	Sololá	7	Julio	2023-07-18T00:00:00	2024-11-08T20:00:00	8	Radiación solar	0
36113	7	Sololá	701	Sololá	1	Sololá	7	Julio	2023-07-18T00:00:00	2024-11-08T21:00:00	2	Temperatura media	15.6
36114	7	Sololá	701	Sololá	1	Sololá	7	Julio	2023-07-18T00:00:00	2024-11-08T21:00:00	4	Temperatura máxima	16.4
36115	7	Sololá	701	Sololá	1	Sololá	7	Julio	2023-07-18T00:00:00	2024-11-08T21:00:00	3	Temperatura mínima	15.6
36116	7	Sololá	701	Sololá	1	Sololá	7	Julio	2023-07-18T00:00:00	2024-11-08T21:00:00	5	Humedad	73
36117	7	Sololá	701	Sololá	1	Sololá	7	Julio	2023-07-18T00:00:00	2024-11-08T21:00:00	6	Velocidad del viento	0
36118	7	Sololá	701	Sololá	1	Sololá	7	Julio	2023-07-18T00:00:00	2024-11-08T21:00:00	7	Dirección del viento	0
36119	7	Sololá	701	Sololá	1	Sololá	7	Julio	2023-07-18T00:00:00	2024-11-08T21:00:00	1	Precipitación	0
36120	7	Sololá	701	Sololá	1	Sololá	7	Julio	2023-07-18T00:00:00	2024-11-08T21:00:00	8	Radiación solar	0
36121	7	Sololá	701	Sololá	1	Sololá	7	Julio	2023-07-18T00:00:00	2024-11-08T22:00:00	2	Temperatura media	15
36122	7	Sololá	701	Sololá	1	Sololá	7	Julio	2023-07-18T00:00:00	2024-11-08T22:00:00	4	Temperatura máxima	15.7
36123	7	Sololá	701	Sololá	1	Sololá	7	Julio	2023-07-18T00:00:00	2024-11-08T22:00:00	3	Temperatura mínima	15
36124	7	Sololá	701	Sololá	1	Sololá	7	Julio	2023-07-18T00:00:00	2024-11-08T22:00:00	5	Humedad	77
36125	7	Sololá	701	Sololá	1	Sololá	7	Julio	2023-07-18T00:00:00	2024-11-08T22:00:00	6	Velocidad del viento	0
36126	7	Sololá	701	Sololá	1	Sololá	7	Julio	2023-07-18T00:00:00	2024-11-08T22:00:00	7	Dirección del viento	0
36127	7	Sololá	701	Sololá	1	Sololá	7	Julio	2023-07-18T00:00:00	2024-11-08T22:00:00	1	Precipitación	0
36128	7	Sololá	701	Sololá	1	Sololá	7	Julio	2023-07-18T00:00:00	2024-11-08T22:00:00	8	Radiación solar	0
36129	7	Sololá	701	Sololá	1	Sololá	7	Julio	2023-07-18T00:00:00	2024-11-08T23:00:00	2	Temperatura media	14.7
36130	7	Sololá	701	Sololá	1	Sololá	7	Julio	2023-07-18T00:00:00	2024-11-08T23:00:00	4	Temperatura máxima	15.1
36131	7	Sololá	701	Sololá	1	Sololá	7	Julio	2023-07-18T00:00:00	2024-11-08T23:00:00	3	Temperatura mínima	14.6
36132	7	Sololá	701	Sololá	1	Sololá	7	Julio	2023-07-18T00:00:00	2024-11-08T23:00:00	5	Humedad	80
36133	7	Sololá	701	Sololá	1	Sololá	7	Julio	2023-07-18T00:00:00	2024-11-08T23:00:00	6	Velocidad del viento	0
36134	7	Sololá	701	Sololá	1	Sololá	7	Julio	2023-07-18T00:00:00	2024-11-08T23:00:00	7	Dirección del viento	0
36135	7	Sololá	701	Sololá	1	Sololá	7	Julio	2023-07-18T00:00:00	2024-11-08T23:00:00	1	Precipitación	0
36136	7	Sololá	701	Sololá	1	Sololá	7	Julio	2023-07-18T00:00:00	2024-11-08T23:00:00	8	Radiación solar	0
36137	7	Sololá	701	Sololá	1	Sololá	7	Julio	2023-07-19T00:00:00	2024-11-08T00:00:00	2	Temperatura media	14.8
36138	7	Sololá	701	Sololá	1	Sololá	7	Julio	2023-07-19T00:00:00	2024-11-08T00:00:00	4	Temperatura máxima	14.8
36139	7	Sololá	701	Sololá	1	Sololá	7	Julio	2023-07-19T00:00:00	2024-11-08T00:00:00	3	Temperatura mínima	14.6
36140	7	Sololá	701	Sololá	1	Sololá	7	Julio	2023-07-19T00:00:00	2024-11-08T00:00:00	5	Humedad	80
36141	7	Sololá	701	Sololá	1	Sololá	7	Julio	2023-07-19T00:00:00	2024-11-08T00:00:00	6	Velocidad del viento	0
36142	7	Sololá	701	Sololá	1	Sololá	7	Julio	2023-07-19T00:00:00	2024-11-08T00:00:00	7	Dirección del viento	0
36143	7	Sololá	701	Sololá	1	Sololá	7	Julio	2023-07-19T00:00:00	2024-11-08T00:00:00	1	Precipitación	0
36144	7	Sololá	701	Sololá	1	Sololá	7	Julio	2023-07-19T00:00:00	2024-11-08T00:00:00	8	Radiación solar	0
36145	7	Sololá	701	Sololá	1	Sololá	7	Julio	2023-07-19T00:00:00	2024-11-08T01:00:00	2	Temperatura media	14.7
36146	7	Sololá	701	Sololá	1	Sololá	7	Julio	2023-07-19T00:00:00	2024-11-08T01:00:00	4	Temperatura máxima	14.8
36147	7	Sololá	701	Sololá	1	Sololá	7	Julio	2023-07-19T00:00:00	2024-11-08T01:00:00	3	Temperatura mínima	14.7
36148	7	Sololá	701	Sololá	1	Sololá	7	Julio	2023-07-19T00:00:00	2024-11-08T01:00:00	5	Humedad	80
36149	7	Sololá	701	Sololá	1	Sololá	7	Julio	2023-07-19T00:00:00	2024-11-08T01:00:00	6	Velocidad del viento	0
36150	7	Sololá	701	Sololá	1	Sololá	7	Julio	2023-07-19T00:00:00	2024-11-08T01:00:00	7	Dirección del viento	0
36151	7	Sololá	701	Sololá	1	Sololá	7	Julio	2023-07-19T00:00:00	2024-11-08T01:00:00	1	Precipitación	0
36152	7	Sololá	701	Sololá	1	Sololá	7	Julio	2023-07-19T00:00:00	2024-11-08T01:00:00	8	Radiación solar	0
36153	7	Sololá	701	Sololá	1	Sololá	7	Julio	2023-07-19T00:00:00	2024-11-08T02:00:00	2	Temperatura media	14.3
36154	7	Sololá	701	Sololá	1	Sololá	7	Julio	2023-07-19T00:00:00	2024-11-08T02:00:00	4	Temperatura máxima	14.7
36155	7	Sololá	701	Sololá	1	Sololá	7	Julio	2023-07-19T00:00:00	2024-11-08T02:00:00	3	Temperatura mínima	14.3
36156	7	Sololá	701	Sololá	1	Sololá	7	Julio	2023-07-19T00:00:00	2024-11-08T02:00:00	5	Humedad	70
36157	7	Sololá	701	Sololá	1	Sololá	7	Julio	2023-07-19T00:00:00	2024-11-08T02:00:00	6	Velocidad del viento	1.6
36158	7	Sololá	701	Sololá	1	Sololá	7	Julio	2023-07-19T00:00:00	2024-11-08T02:00:00	7	Dirección del viento	1.61
36159	7	Sololá	701	Sololá	1	Sololá	7	Julio	2023-07-19T00:00:00	2024-11-08T02:00:00	1	Precipitación	0
36160	7	Sololá	701	Sololá	1	Sololá	7	Julio	2023-07-19T00:00:00	2024-11-08T02:00:00	8	Radiación solar	0
36161	7	Sololá	701	Sololá	1	Sololá	7	Julio	2023-07-19T00:00:00	2024-11-08T03:00:00	2	Temperatura media	14.1
36162	7	Sololá	701	Sololá	1	Sololá	7	Julio	2023-07-19T00:00:00	2024-11-08T03:00:00	4	Temperatura máxima	14.3
36163	7	Sololá	701	Sololá	1	Sololá	7	Julio	2023-07-19T00:00:00	2024-11-08T03:00:00	3	Temperatura mínima	14
36164	7	Sololá	701	Sololá	1	Sololá	7	Julio	2023-07-19T00:00:00	2024-11-08T03:00:00	5	Humedad	61
36165	7	Sololá	701	Sololá	1	Sololá	7	Julio	2023-07-19T00:00:00	2024-11-08T03:00:00	6	Velocidad del viento	0
36166	7	Sololá	701	Sololá	1	Sololá	7	Julio	2023-07-19T00:00:00	2024-11-08T03:00:00	7	Dirección del viento	0
36167	7	Sololá	701	Sololá	1	Sololá	7	Julio	2023-07-19T00:00:00	2024-11-08T03:00:00	1	Precipitación	0
36168	7	Sololá	701	Sololá	1	Sololá	7	Julio	2023-07-19T00:00:00	2024-11-08T03:00:00	8	Radiación solar	0
36169	7	Sololá	701	Sololá	1	Sololá	7	Julio	2023-07-19T00:00:00	2024-11-08T04:00:00	2	Temperatura media	14.7
36170	7	Sololá	701	Sololá	1	Sololá	7	Julio	2023-07-19T00:00:00	2024-11-08T04:00:00	4	Temperatura máxima	15
36171	7	Sololá	701	Sololá	1	Sololá	7	Julio	2023-07-19T00:00:00	2024-11-08T04:00:00	3	Temperatura mínima	13.9
36172	7	Sololá	701	Sololá	1	Sololá	7	Julio	2023-07-19T00:00:00	2024-11-08T04:00:00	5	Humedad	58
36173	7	Sololá	701	Sololá	1	Sololá	7	Julio	2023-07-19T00:00:00	2024-11-08T04:00:00	6	Velocidad del viento	14.5
36174	7	Sololá	701	Sololá	1	Sololá	7	Julio	2023-07-19T00:00:00	2024-11-08T04:00:00	7	Dirección del viento	14.48
36175	7	Sololá	701	Sololá	1	Sololá	7	Julio	2023-07-19T00:00:00	2024-11-08T04:00:00	1	Precipitación	0
36176	7	Sololá	701	Sololá	1	Sololá	7	Julio	2023-07-19T00:00:00	2024-11-08T04:00:00	8	Radiación solar	0
36177	7	Sololá	701	Sololá	1	Sololá	7	Julio	2023-07-19T00:00:00	2024-11-08T05:00:00	2	Temperatura media	14.8
36178	7	Sololá	701	Sololá	1	Sololá	7	Julio	2023-07-19T00:00:00	2024-11-08T05:00:00	4	Temperatura máxima	15
36179	7	Sololá	701	Sololá	1	Sololá	7	Julio	2023-07-19T00:00:00	2024-11-08T05:00:00	3	Temperatura mínima	14.7
36180	7	Sololá	701	Sololá	1	Sololá	7	Julio	2023-07-19T00:00:00	2024-11-08T05:00:00	5	Humedad	62
36181	7	Sololá	701	Sololá	1	Sololá	7	Julio	2023-07-19T00:00:00	2024-11-08T05:00:00	6	Velocidad del viento	19.3
36182	7	Sololá	701	Sololá	1	Sololá	7	Julio	2023-07-19T00:00:00	2024-11-08T05:00:00	7	Dirección del viento	19.31
36183	7	Sololá	701	Sololá	1	Sololá	7	Julio	2023-07-19T00:00:00	2024-11-08T05:00:00	1	Precipitación	0
36184	7	Sololá	701	Sololá	1	Sololá	7	Julio	2023-07-19T00:00:00	2024-11-08T05:00:00	8	Radiación solar	0
36185	7	Sololá	701	Sololá	1	Sololá	7	Julio	2023-07-19T00:00:00	2024-11-08T06:00:00	2	Temperatura media	14.6
36186	7	Sololá	701	Sololá	1	Sololá	7	Julio	2023-07-19T00:00:00	2024-11-08T06:00:00	4	Temperatura máxima	15
36187	7	Sololá	701	Sololá	1	Sololá	7	Julio	2023-07-19T00:00:00	2024-11-08T06:00:00	3	Temperatura mínima	14.5
36188	7	Sololá	701	Sololá	1	Sololá	7	Julio	2023-07-19T00:00:00	2024-11-08T06:00:00	5	Humedad	72
36189	7	Sololá	701	Sololá	1	Sololá	7	Julio	2023-07-19T00:00:00	2024-11-08T06:00:00	6	Velocidad del viento	19.3
36190	7	Sololá	701	Sololá	1	Sololá	7	Julio	2023-07-19T00:00:00	2024-11-08T06:00:00	7	Dirección del viento	19.31
36191	7	Sololá	701	Sololá	1	Sololá	7	Julio	2023-07-19T00:00:00	2024-11-08T06:00:00	1	Precipitación	0
36192	7	Sololá	701	Sololá	1	Sololá	7	Julio	2023-07-19T00:00:00	2024-11-08T06:00:00	8	Radiación solar	2
36193	7	Sololá	701	Sololá	1	Sololá	7	Julio	2023-07-19T00:00:00	2024-11-08T07:00:00	2	Temperatura media	15.3
36194	7	Sololá	701	Sololá	1	Sololá	7	Julio	2023-07-19T00:00:00	2024-11-08T07:00:00	4	Temperatura máxima	15.3
36195	7	Sololá	701	Sololá	1	Sololá	7	Julio	2023-07-19T00:00:00	2024-11-08T07:00:00	3	Temperatura mínima	14.6
36196	7	Sololá	701	Sololá	1	Sololá	7	Julio	2023-07-19T00:00:00	2024-11-08T07:00:00	5	Humedad	75
36197	7	Sololá	701	Sololá	1	Sololá	7	Julio	2023-07-19T00:00:00	2024-11-08T07:00:00	6	Velocidad del viento	25.7
36198	7	Sololá	701	Sololá	1	Sololá	7	Julio	2023-07-19T00:00:00	2024-11-08T07:00:00	7	Dirección del viento	25.75
36199	7	Sololá	701	Sololá	1	Sololá	7	Julio	2023-07-19T00:00:00	2024-11-08T07:00:00	1	Precipitación	0
36200	7	Sololá	701	Sololá	1	Sololá	7	Julio	2023-07-19T00:00:00	2024-11-08T07:00:00	8	Radiación solar	19
36201	7	Sololá	701	Sololá	1	Sololá	7	Julio	2023-07-19T00:00:00	2024-11-08T08:00:00	2	Temperatura media	15.9
36202	7	Sololá	701	Sololá	1	Sololá	7	Julio	2023-07-19T00:00:00	2024-11-08T08:00:00	4	Temperatura máxima	16.1
36203	7	Sololá	701	Sololá	1	Sololá	7	Julio	2023-07-19T00:00:00	2024-11-08T08:00:00	3	Temperatura mínima	15.2
36204	7	Sololá	701	Sololá	1	Sololá	7	Julio	2023-07-19T00:00:00	2024-11-08T08:00:00	5	Humedad	77
36205	7	Sololá	701	Sololá	1	Sololá	7	Julio	2023-07-19T00:00:00	2024-11-08T08:00:00	6	Velocidad del viento	25.7
36206	7	Sololá	701	Sololá	1	Sololá	7	Julio	2023-07-19T00:00:00	2024-11-08T08:00:00	7	Dirección del viento	25.75
36207	7	Sololá	701	Sololá	1	Sololá	7	Julio	2023-07-19T00:00:00	2024-11-08T08:00:00	1	Precipitación	0
36208	7	Sololá	701	Sololá	1	Sololá	7	Julio	2023-07-19T00:00:00	2024-11-08T08:00:00	8	Radiación solar	48
36209	7	Sololá	701	Sololá	1	Sololá	7	Julio	2023-07-19T00:00:00	2024-11-08T09:00:00	2	Temperatura media	17.3
36210	7	Sololá	701	Sololá	1	Sololá	7	Julio	2023-07-19T00:00:00	2024-11-08T09:00:00	4	Temperatura máxima	17.3
36211	7	Sololá	701	Sololá	1	Sololá	7	Julio	2023-07-19T00:00:00	2024-11-08T09:00:00	3	Temperatura mínima	15.7
36212	7	Sololá	701	Sololá	1	Sololá	7	Julio	2023-07-19T00:00:00	2024-11-08T09:00:00	5	Humedad	72
36213	7	Sololá	701	Sololá	1	Sololá	7	Julio	2023-07-19T00:00:00	2024-11-08T09:00:00	6	Velocidad del viento	22.5
36214	7	Sololá	701	Sololá	1	Sololá	7	Julio	2023-07-19T00:00:00	2024-11-08T09:00:00	7	Dirección del viento	22.53
36215	7	Sololá	701	Sololá	1	Sololá	7	Julio	2023-07-19T00:00:00	2024-11-08T09:00:00	1	Precipitación	0
36216	7	Sololá	701	Sololá	1	Sololá	7	Julio	2023-07-19T00:00:00	2024-11-08T09:00:00	8	Radiación solar	435
36217	7	Sololá	701	Sololá	1	Sololá	7	Julio	2023-07-19T00:00:00	2024-11-08T10:00:00	2	Temperatura media	18.3
36218	7	Sololá	701	Sololá	1	Sololá	7	Julio	2023-07-19T00:00:00	2024-11-08T10:00:00	4	Temperatura máxima	18.3
36219	7	Sololá	701	Sololá	1	Sololá	7	Julio	2023-07-19T00:00:00	2024-11-08T10:00:00	3	Temperatura mínima	17.1
36220	7	Sololá	701	Sololá	1	Sololá	7	Julio	2023-07-19T00:00:00	2024-11-08T10:00:00	5	Humedad	67
36221	7	Sololá	701	Sololá	1	Sololá	7	Julio	2023-07-19T00:00:00	2024-11-08T10:00:00	6	Velocidad del viento	22.5
36222	7	Sololá	701	Sololá	1	Sololá	7	Julio	2023-07-19T00:00:00	2024-11-08T10:00:00	7	Dirección del viento	22.53
36223	7	Sololá	701	Sololá	1	Sololá	7	Julio	2023-07-19T00:00:00	2024-11-08T10:00:00	1	Precipitación	0
36224	7	Sololá	701	Sololá	1	Sololá	7	Julio	2023-07-19T00:00:00	2024-11-08T10:00:00	8	Radiación solar	767
36225	7	Sololá	701	Sololá	1	Sololá	7	Julio	2023-07-19T00:00:00	2024-11-08T11:00:00	2	Temperatura media	19.8
36226	7	Sololá	701	Sololá	1	Sololá	7	Julio	2023-07-19T00:00:00	2024-11-08T11:00:00	4	Temperatura máxima	19.8
36227	7	Sololá	701	Sololá	1	Sololá	7	Julio	2023-07-19T00:00:00	2024-11-08T11:00:00	3	Temperatura mínima	18.3
36228	7	Sololá	701	Sololá	1	Sololá	7	Julio	2023-07-19T00:00:00	2024-11-08T11:00:00	5	Humedad	61
36229	7	Sololá	701	Sololá	1	Sololá	7	Julio	2023-07-19T00:00:00	2024-11-08T11:00:00	6	Velocidad del viento	22.5
36230	7	Sololá	701	Sololá	1	Sololá	7	Julio	2023-07-19T00:00:00	2024-11-08T11:00:00	7	Dirección del viento	22.53
36231	7	Sololá	701	Sololá	1	Sololá	7	Julio	2023-07-19T00:00:00	2024-11-08T11:00:00	1	Precipitación	0
36232	7	Sololá	701	Sololá	1	Sololá	7	Julio	2023-07-19T00:00:00	2024-11-08T11:00:00	8	Radiación solar	878
36233	7	Sololá	701	Sololá	1	Sololá	7	Julio	2023-07-19T00:00:00	2024-11-08T12:00:00	2	Temperatura media	21.4
36234	7	Sololá	701	Sololá	1	Sololá	7	Julio	2023-07-19T00:00:00	2024-11-08T12:00:00	4	Temperatura máxima	21.6
36235	7	Sololá	701	Sololá	1	Sololá	7	Julio	2023-07-19T00:00:00	2024-11-08T12:00:00	3	Temperatura mínima	19.7
36236	7	Sololá	701	Sololá	1	Sololá	7	Julio	2023-07-19T00:00:00	2024-11-08T12:00:00	5	Humedad	58
36237	7	Sololá	701	Sololá	1	Sololá	7	Julio	2023-07-19T00:00:00	2024-11-08T12:00:00	6	Velocidad del viento	17.7
36238	7	Sololá	701	Sololá	1	Sololá	7	Julio	2023-07-19T00:00:00	2024-11-08T12:00:00	7	Dirección del viento	17.7
36239	7	Sololá	701	Sololá	1	Sololá	7	Julio	2023-07-19T00:00:00	2024-11-08T12:00:00	1	Precipitación	0
36240	7	Sololá	701	Sololá	1	Sololá	7	Julio	2023-07-19T00:00:00	2024-11-08T12:00:00	8	Radiación solar	939
36241	7	Sololá	701	Sololá	1	Sololá	7	Julio	2023-07-19T00:00:00	2024-11-08T13:00:00	2	Temperatura media	22
36242	7	Sololá	701	Sololá	1	Sololá	7	Julio	2023-07-19T00:00:00	2024-11-08T13:00:00	4	Temperatura máxima	22
36243	7	Sololá	701	Sololá	1	Sololá	7	Julio	2023-07-19T00:00:00	2024-11-08T13:00:00	3	Temperatura mínima	20.9
36244	7	Sololá	701	Sololá	1	Sololá	7	Julio	2023-07-19T00:00:00	2024-11-08T13:00:00	5	Humedad	58
36245	7	Sololá	701	Sololá	1	Sololá	7	Julio	2023-07-19T00:00:00	2024-11-08T13:00:00	6	Velocidad del viento	17.7
36246	7	Sololá	701	Sololá	1	Sololá	7	Julio	2023-07-19T00:00:00	2024-11-08T13:00:00	7	Dirección del viento	17.7
36247	7	Sololá	701	Sololá	1	Sololá	7	Julio	2023-07-19T00:00:00	2024-11-08T13:00:00	1	Precipitación	0
36248	7	Sololá	701	Sololá	1	Sololá	7	Julio	2023-07-19T00:00:00	2024-11-08T13:00:00	8	Radiación solar	634
36249	7	Sololá	701	Sololá	1	Sololá	7	Julio	2023-07-19T00:00:00	2024-11-08T14:00:00	2	Temperatura media	22.1
36250	7	Sololá	701	Sololá	1	Sololá	7	Julio	2023-07-19T00:00:00	2024-11-08T14:00:00	4	Temperatura máxima	22.4
36251	7	Sololá	701	Sololá	1	Sololá	7	Julio	2023-07-19T00:00:00	2024-11-08T14:00:00	3	Temperatura mínima	21.7
36252	7	Sololá	701	Sololá	1	Sololá	7	Julio	2023-07-19T00:00:00	2024-11-08T14:00:00	5	Humedad	57
36253	7	Sololá	701	Sololá	1	Sololá	7	Julio	2023-07-19T00:00:00	2024-11-08T14:00:00	6	Velocidad del viento	14.5
36254	7	Sololá	701	Sololá	1	Sololá	7	Julio	2023-07-19T00:00:00	2024-11-08T14:00:00	7	Dirección del viento	14.48
36255	7	Sololá	701	Sololá	1	Sololá	7	Julio	2023-07-19T00:00:00	2024-11-08T14:00:00	1	Precipitación	0
36256	7	Sololá	701	Sololá	1	Sololá	7	Julio	2023-07-19T00:00:00	2024-11-08T14:00:00	8	Radiación solar	377
36257	7	Sololá	701	Sololá	1	Sololá	7	Julio	2023-07-19T00:00:00	2024-11-08T15:00:00	2	Temperatura media	22.4
36258	7	Sololá	701	Sololá	1	Sololá	7	Julio	2023-07-19T00:00:00	2024-11-08T15:00:00	4	Temperatura máxima	22.8
36259	7	Sololá	701	Sololá	1	Sololá	7	Julio	2023-07-19T00:00:00	2024-11-08T15:00:00	3	Temperatura mínima	22
36260	7	Sololá	701	Sololá	1	Sololá	7	Julio	2023-07-19T00:00:00	2024-11-08T15:00:00	5	Humedad	56
36261	7	Sololá	701	Sololá	1	Sololá	7	Julio	2023-07-19T00:00:00	2024-11-08T15:00:00	6	Velocidad del viento	12.9
36262	7	Sololá	701	Sololá	1	Sololá	7	Julio	2023-07-19T00:00:00	2024-11-08T15:00:00	7	Dirección del viento	12.87
36263	7	Sololá	701	Sololá	1	Sololá	7	Julio	2023-07-19T00:00:00	2024-11-08T15:00:00	1	Precipitación	0
36264	7	Sololá	701	Sololá	1	Sololá	7	Julio	2023-07-19T00:00:00	2024-11-08T15:00:00	8	Radiación solar	572
36265	7	Sololá	701	Sololá	1	Sololá	7	Julio	2023-07-19T00:00:00	2024-11-08T16:00:00	2	Temperatura media	21.3
36266	7	Sololá	701	Sololá	1	Sololá	7	Julio	2023-07-19T00:00:00	2024-11-08T16:00:00	4	Temperatura máxima	22.4
36267	7	Sololá	701	Sololá	1	Sololá	7	Julio	2023-07-19T00:00:00	2024-11-08T16:00:00	3	Temperatura mínima	21.1
36268	7	Sololá	701	Sololá	1	Sololá	7	Julio	2023-07-19T00:00:00	2024-11-08T16:00:00	5	Humedad	60
36269	7	Sololá	701	Sololá	1	Sololá	7	Julio	2023-07-19T00:00:00	2024-11-08T16:00:00	6	Velocidad del viento	14.5
36270	7	Sololá	701	Sololá	1	Sololá	7	Julio	2023-07-19T00:00:00	2024-11-08T16:00:00	7	Dirección del viento	14.48
36271	7	Sololá	701	Sololá	1	Sololá	7	Julio	2023-07-19T00:00:00	2024-11-08T16:00:00	1	Precipitación	0
36272	7	Sololá	701	Sololá	1	Sololá	7	Julio	2023-07-19T00:00:00	2024-11-08T16:00:00	8	Radiación solar	169
36273	7	Sololá	701	Sololá	1	Sololá	7	Julio	2023-07-19T00:00:00	2024-11-08T17:00:00	2	Temperatura media	21.2
36274	7	Sololá	701	Sololá	1	Sololá	7	Julio	2023-07-19T00:00:00	2024-11-08T17:00:00	4	Temperatura máxima	21.8
36275	7	Sololá	701	Sololá	1	Sololá	7	Julio	2023-07-19T00:00:00	2024-11-08T17:00:00	3	Temperatura mínima	21.1
36276	7	Sololá	701	Sololá	1	Sololá	7	Julio	2023-07-19T00:00:00	2024-11-08T17:00:00	5	Humedad	64
36277	7	Sololá	701	Sololá	1	Sololá	7	Julio	2023-07-19T00:00:00	2024-11-08T17:00:00	6	Velocidad del viento	12.9
36278	7	Sololá	701	Sololá	1	Sololá	7	Julio	2023-07-19T00:00:00	2024-11-08T17:00:00	7	Dirección del viento	12.87
36279	7	Sololá	701	Sololá	1	Sololá	7	Julio	2023-07-19T00:00:00	2024-11-08T17:00:00	1	Precipitación	0
36280	7	Sololá	701	Sololá	1	Sololá	7	Julio	2023-07-19T00:00:00	2024-11-08T17:00:00	8	Radiación solar	86
36281	7	Sololá	701	Sololá	1	Sololá	7	Julio	2023-07-19T00:00:00	2024-11-08T18:00:00	2	Temperatura media	19.1
36282	7	Sololá	701	Sololá	1	Sololá	7	Julio	2023-07-19T00:00:00	2024-11-08T18:00:00	4	Temperatura máxima	21.2
36283	7	Sololá	701	Sololá	1	Sololá	7	Julio	2023-07-19T00:00:00	2024-11-08T18:00:00	3	Temperatura mínima	19.1
36284	7	Sololá	701	Sololá	1	Sololá	7	Julio	2023-07-19T00:00:00	2024-11-08T18:00:00	5	Humedad	71
36285	7	Sololá	701	Sololá	1	Sololá	7	Julio	2023-07-19T00:00:00	2024-11-08T18:00:00	6	Velocidad del viento	9.7
36286	7	Sololá	701	Sololá	1	Sololá	7	Julio	2023-07-19T00:00:00	2024-11-08T18:00:00	7	Dirección del viento	9.66
36287	7	Sololá	701	Sololá	1	Sololá	7	Julio	2023-07-19T00:00:00	2024-11-08T18:00:00	1	Precipitación	0
36288	7	Sololá	701	Sololá	1	Sololá	7	Julio	2023-07-19T00:00:00	2024-11-08T18:00:00	8	Radiación solar	65
36289	7	Sololá	701	Sololá	1	Sololá	7	Julio	2023-07-19T00:00:00	2024-11-08T19:00:00	2	Temperatura media	18.3
36290	7	Sololá	701	Sololá	1	Sololá	7	Julio	2023-07-19T00:00:00	2024-11-08T19:00:00	4	Temperatura máxima	19.2
36291	7	Sololá	701	Sololá	1	Sololá	7	Julio	2023-07-19T00:00:00	2024-11-08T19:00:00	3	Temperatura mínima	18.3
36292	7	Sololá	701	Sololá	1	Sololá	7	Julio	2023-07-19T00:00:00	2024-11-08T19:00:00	5	Humedad	76
36293	7	Sololá	701	Sololá	1	Sololá	7	Julio	2023-07-19T00:00:00	2024-11-08T19:00:00	6	Velocidad del viento	11.3
36294	7	Sololá	701	Sololá	1	Sololá	7	Julio	2023-07-19T00:00:00	2024-11-08T19:00:00	7	Dirección del viento	11.27
36295	7	Sololá	701	Sololá	1	Sololá	7	Julio	2023-07-19T00:00:00	2024-11-08T19:00:00	1	Precipitación	0
36296	7	Sololá	701	Sololá	1	Sololá	7	Julio	2023-07-19T00:00:00	2024-11-08T19:00:00	8	Radiación solar	0
36297	7	Sololá	701	Sololá	1	Sololá	7	Julio	2023-07-19T00:00:00	2024-11-08T20:00:00	2	Temperatura media	18.1
36298	7	Sololá	701	Sololá	1	Sololá	7	Julio	2023-07-19T00:00:00	2024-11-08T20:00:00	4	Temperatura máxima	18.4
36299	7	Sololá	701	Sololá	1	Sololá	7	Julio	2023-07-19T00:00:00	2024-11-08T20:00:00	3	Temperatura mínima	18.1
36300	7	Sololá	701	Sololá	1	Sololá	7	Julio	2023-07-19T00:00:00	2024-11-08T20:00:00	5	Humedad	77
36301	7	Sololá	701	Sololá	1	Sololá	7	Julio	2023-07-19T00:00:00	2024-11-08T20:00:00	6	Velocidad del viento	14.5
36302	7	Sololá	701	Sololá	1	Sololá	7	Julio	2023-07-19T00:00:00	2024-11-08T20:00:00	7	Dirección del viento	14.48
36303	7	Sololá	701	Sololá	1	Sololá	7	Julio	2023-07-19T00:00:00	2024-11-08T20:00:00	1	Precipitación	0
36304	7	Sololá	701	Sololá	1	Sololá	7	Julio	2023-07-19T00:00:00	2024-11-08T20:00:00	8	Radiación solar	0
36305	7	Sololá	701	Sololá	1	Sololá	7	Julio	2023-07-19T00:00:00	2024-11-08T21:00:00	2	Temperatura media	17.7
36306	7	Sololá	701	Sololá	1	Sololá	7	Julio	2023-07-19T00:00:00	2024-11-08T21:00:00	4	Temperatura máxima	18.1
36307	7	Sololá	701	Sololá	1	Sololá	7	Julio	2023-07-19T00:00:00	2024-11-08T21:00:00	3	Temperatura mínima	17.7
36308	7	Sololá	701	Sololá	1	Sololá	7	Julio	2023-07-19T00:00:00	2024-11-08T21:00:00	5	Humedad	80
36309	7	Sololá	701	Sololá	1	Sololá	7	Julio	2023-07-19T00:00:00	2024-11-08T21:00:00	6	Velocidad del viento	17.7
36310	7	Sololá	701	Sololá	1	Sololá	7	Julio	2023-07-19T00:00:00	2024-11-08T21:00:00	7	Dirección del viento	17.7
36311	7	Sololá	701	Sololá	1	Sololá	7	Julio	2023-07-19T00:00:00	2024-11-08T21:00:00	1	Precipitación	0
36312	7	Sololá	701	Sololá	1	Sololá	7	Julio	2023-07-19T00:00:00	2024-11-08T21:00:00	8	Radiación solar	0
36313	7	Sololá	701	Sololá	1	Sololá	7	Julio	2023-07-19T00:00:00	2024-11-08T22:00:00	2	Temperatura media	16.8
36314	7	Sololá	701	Sololá	1	Sololá	7	Julio	2023-07-19T00:00:00	2024-11-08T22:00:00	4	Temperatura máxima	17.7
36315	7	Sololá	701	Sololá	1	Sololá	7	Julio	2023-07-19T00:00:00	2024-11-08T22:00:00	3	Temperatura mínima	16.8
36316	7	Sololá	701	Sololá	1	Sololá	7	Julio	2023-07-19T00:00:00	2024-11-08T22:00:00	5	Humedad	82
36317	7	Sololá	701	Sololá	1	Sololá	7	Julio	2023-07-19T00:00:00	2024-11-08T22:00:00	6	Velocidad del viento	16.1
36318	7	Sololá	701	Sololá	1	Sololá	7	Julio	2023-07-19T00:00:00	2024-11-08T22:00:00	7	Dirección del viento	16.09
36319	7	Sololá	701	Sololá	1	Sololá	7	Julio	2023-07-19T00:00:00	2024-11-08T22:00:00	1	Precipitación	0
36320	7	Sololá	701	Sololá	1	Sololá	7	Julio	2023-07-19T00:00:00	2024-11-08T22:00:00	8	Radiación solar	0
36321	7	Sololá	701	Sololá	1	Sololá	7	Julio	2023-07-19T00:00:00	2024-11-08T23:00:00	2	Temperatura media	16.8
36322	7	Sololá	701	Sololá	1	Sololá	7	Julio	2023-07-19T00:00:00	2024-11-08T23:00:00	4	Temperatura máxima	16.9
36323	7	Sololá	701	Sololá	1	Sololá	7	Julio	2023-07-19T00:00:00	2024-11-08T23:00:00	3	Temperatura mínima	16.8
36324	7	Sololá	701	Sololá	1	Sololá	7	Julio	2023-07-19T00:00:00	2024-11-08T23:00:00	5	Humedad	81
36325	7	Sololá	701	Sololá	1	Sololá	7	Julio	2023-07-19T00:00:00	2024-11-08T23:00:00	6	Velocidad del viento	12.9
36326	7	Sololá	701	Sololá	1	Sololá	7	Julio	2023-07-19T00:00:00	2024-11-08T23:00:00	7	Dirección del viento	12.87
36327	7	Sololá	701	Sololá	1	Sololá	7	Julio	2023-07-19T00:00:00	2024-11-08T23:00:00	1	Precipitación	0
36328	7	Sololá	701	Sololá	1	Sololá	7	Julio	2023-07-19T00:00:00	2024-11-08T23:00:00	8	Radiación solar	0
36329	7	Sololá	701	Sololá	1	Sololá	7	Julio	2023-07-20T00:00:00	2024-11-08T00:00:00	2	Temperatura media	16.6
36330	7	Sololá	701	Sololá	1	Sololá	7	Julio	2023-07-20T00:00:00	2024-11-08T00:00:00	4	Temperatura máxima	16.8
36331	7	Sololá	701	Sololá	1	Sololá	7	Julio	2023-07-20T00:00:00	2024-11-08T00:00:00	3	Temperatura mínima	16.6
36332	7	Sololá	701	Sololá	1	Sololá	7	Julio	2023-07-20T00:00:00	2024-11-08T00:00:00	5	Humedad	82
36333	7	Sololá	701	Sololá	1	Sololá	7	Julio	2023-07-20T00:00:00	2024-11-08T00:00:00	6	Velocidad del viento	12.9
36334	7	Sololá	701	Sololá	1	Sololá	7	Julio	2023-07-20T00:00:00	2024-11-08T00:00:00	7	Dirección del viento	12.87
36335	7	Sololá	701	Sololá	1	Sololá	7	Julio	2023-07-20T00:00:00	2024-11-08T00:00:00	1	Precipitación	0
36336	7	Sololá	701	Sololá	1	Sololá	7	Julio	2023-07-20T00:00:00	2024-11-08T00:00:00	8	Radiación solar	0
36337	7	Sololá	701	Sololá	1	Sololá	7	Julio	2023-07-20T00:00:00	2024-11-08T01:00:00	2	Temperatura media	16.6
36338	7	Sololá	701	Sololá	1	Sololá	7	Julio	2023-07-20T00:00:00	2024-11-08T01:00:00	4	Temperatura máxima	16.7
36339	7	Sololá	701	Sololá	1	Sololá	7	Julio	2023-07-20T00:00:00	2024-11-08T01:00:00	3	Temperatura mínima	16.4
36340	7	Sololá	701	Sololá	1	Sololá	7	Julio	2023-07-20T00:00:00	2024-11-08T01:00:00	5	Humedad	80
36341	7	Sololá	701	Sololá	1	Sololá	7	Julio	2023-07-20T00:00:00	2024-11-08T01:00:00	6	Velocidad del viento	12.9
36342	7	Sololá	701	Sololá	1	Sololá	7	Julio	2023-07-20T00:00:00	2024-11-08T01:00:00	7	Dirección del viento	12.87
36343	7	Sololá	701	Sololá	1	Sololá	7	Julio	2023-07-20T00:00:00	2024-11-08T01:00:00	1	Precipitación	0
36344	7	Sololá	701	Sololá	1	Sololá	7	Julio	2023-07-20T00:00:00	2024-11-08T01:00:00	8	Radiación solar	0
36345	7	Sololá	701	Sololá	1	Sololá	7	Julio	2023-07-20T00:00:00	2024-11-08T02:00:00	2	Temperatura media	16.7
36346	7	Sololá	701	Sololá	1	Sololá	7	Julio	2023-07-20T00:00:00	2024-11-08T02:00:00	4	Temperatura máxima	16.8
36347	7	Sololá	701	Sololá	1	Sololá	7	Julio	2023-07-20T00:00:00	2024-11-08T02:00:00	3	Temperatura mínima	16.5
36348	7	Sololá	701	Sololá	1	Sololá	7	Julio	2023-07-20T00:00:00	2024-11-08T02:00:00	5	Humedad	78
36349	7	Sololá	701	Sololá	1	Sololá	7	Julio	2023-07-20T00:00:00	2024-11-08T02:00:00	6	Velocidad del viento	12.9
36350	7	Sololá	701	Sololá	1	Sololá	7	Julio	2023-07-20T00:00:00	2024-11-08T02:00:00	7	Dirección del viento	12.87
36351	7	Sololá	701	Sololá	1	Sololá	7	Julio	2023-07-20T00:00:00	2024-11-08T02:00:00	1	Precipitación	0
36352	7	Sololá	701	Sololá	1	Sololá	7	Julio	2023-07-20T00:00:00	2024-11-08T02:00:00	8	Radiación solar	0
36353	7	Sololá	701	Sololá	1	Sololá	7	Julio	2023-07-20T00:00:00	2024-11-08T03:00:00	2	Temperatura media	16.8
36354	7	Sololá	701	Sololá	1	Sololá	7	Julio	2023-07-20T00:00:00	2024-11-08T03:00:00	4	Temperatura máxima	16.8
36355	7	Sololá	701	Sololá	1	Sololá	7	Julio	2023-07-20T00:00:00	2024-11-08T03:00:00	3	Temperatura mínima	16.7
36356	7	Sololá	701	Sololá	1	Sololá	7	Julio	2023-07-20T00:00:00	2024-11-08T03:00:00	5	Humedad	78
36357	7	Sololá	701	Sololá	1	Sololá	7	Julio	2023-07-20T00:00:00	2024-11-08T03:00:00	6	Velocidad del viento	14.5
36358	7	Sololá	701	Sololá	1	Sololá	7	Julio	2023-07-20T00:00:00	2024-11-08T03:00:00	7	Dirección del viento	14.48
36359	7	Sololá	701	Sololá	1	Sololá	7	Julio	2023-07-20T00:00:00	2024-11-08T03:00:00	1	Precipitación	0
36360	7	Sololá	701	Sololá	1	Sololá	7	Julio	2023-07-20T00:00:00	2024-11-08T03:00:00	8	Radiación solar	0
36361	7	Sololá	701	Sololá	1	Sololá	7	Julio	2023-07-20T00:00:00	2024-11-08T04:00:00	2	Temperatura media	16.4
36362	7	Sololá	701	Sololá	1	Sololá	7	Julio	2023-07-20T00:00:00	2024-11-08T04:00:00	4	Temperatura máxima	16.8
36363	7	Sololá	701	Sololá	1	Sololá	7	Julio	2023-07-20T00:00:00	2024-11-08T04:00:00	3	Temperatura mínima	16.3
36364	7	Sololá	701	Sololá	1	Sololá	7	Julio	2023-07-20T00:00:00	2024-11-08T04:00:00	5	Humedad	80
36365	7	Sololá	701	Sololá	1	Sololá	7	Julio	2023-07-20T00:00:00	2024-11-08T04:00:00	6	Velocidad del viento	12.9
36366	7	Sololá	701	Sololá	1	Sololá	7	Julio	2023-07-20T00:00:00	2024-11-08T04:00:00	7	Dirección del viento	12.87
36367	7	Sololá	701	Sololá	1	Sololá	7	Julio	2023-07-20T00:00:00	2024-11-08T04:00:00	1	Precipitación	0
36368	7	Sololá	701	Sololá	1	Sololá	7	Julio	2023-07-20T00:00:00	2024-11-08T04:00:00	8	Radiación solar	0
36369	7	Sololá	701	Sololá	1	Sololá	7	Julio	2023-07-20T00:00:00	2024-11-08T05:00:00	2	Temperatura media	16.1
36370	7	Sololá	701	Sololá	1	Sololá	7	Julio	2023-07-20T00:00:00	2024-11-08T05:00:00	4	Temperatura máxima	16.4
36371	7	Sololá	701	Sololá	1	Sololá	7	Julio	2023-07-20T00:00:00	2024-11-08T05:00:00	3	Temperatura mínima	16.1
36372	7	Sololá	701	Sololá	1	Sololá	7	Julio	2023-07-20T00:00:00	2024-11-08T05:00:00	5	Humedad	81
36373	7	Sololá	701	Sololá	1	Sololá	7	Julio	2023-07-20T00:00:00	2024-11-08T05:00:00	6	Velocidad del viento	12.9
36374	7	Sololá	701	Sololá	1	Sololá	7	Julio	2023-07-20T00:00:00	2024-11-08T05:00:00	7	Dirección del viento	12.87
36375	7	Sololá	701	Sololá	1	Sololá	7	Julio	2023-07-20T00:00:00	2024-11-08T05:00:00	1	Precipitación	0
36376	7	Sololá	701	Sololá	1	Sololá	7	Julio	2023-07-20T00:00:00	2024-11-08T05:00:00	8	Radiación solar	0
36377	7	Sololá	701	Sololá	1	Sololá	7	Julio	2023-07-20T00:00:00	2024-11-08T06:00:00	2	Temperatura media	16.2
36378	7	Sololá	701	Sololá	1	Sololá	7	Julio	2023-07-20T00:00:00	2024-11-08T06:00:00	4	Temperatura máxima	16.3
36379	7	Sololá	701	Sololá	1	Sololá	7	Julio	2023-07-20T00:00:00	2024-11-08T06:00:00	3	Temperatura mínima	16
36380	7	Sololá	701	Sololá	1	Sololá	7	Julio	2023-07-20T00:00:00	2024-11-08T06:00:00	5	Humedad	80
36381	7	Sololá	701	Sololá	1	Sololá	7	Julio	2023-07-20T00:00:00	2024-11-08T06:00:00	6	Velocidad del viento	14.5
36382	7	Sololá	701	Sololá	1	Sololá	7	Julio	2023-07-20T00:00:00	2024-11-08T06:00:00	7	Dirección del viento	14.48
36383	7	Sololá	701	Sololá	1	Sololá	7	Julio	2023-07-20T00:00:00	2024-11-08T06:00:00	1	Precipitación	0
36384	7	Sololá	701	Sololá	1	Sololá	7	Julio	2023-07-20T00:00:00	2024-11-08T06:00:00	8	Radiación solar	0
36385	7	Sololá	701	Sololá	1	Sololá	7	Julio	2023-07-20T00:00:00	2024-11-08T07:00:00	2	Temperatura media	16.6
36386	7	Sololá	701	Sololá	1	Sololá	7	Julio	2023-07-20T00:00:00	2024-11-08T07:00:00	4	Temperatura máxima	16.7
36387	7	Sololá	701	Sololá	1	Sololá	7	Julio	2023-07-20T00:00:00	2024-11-08T07:00:00	3	Temperatura mínima	16.2
36388	7	Sololá	701	Sololá	1	Sololá	7	Julio	2023-07-20T00:00:00	2024-11-08T07:00:00	5	Humedad	81
36389	7	Sololá	701	Sololá	1	Sololá	7	Julio	2023-07-20T00:00:00	2024-11-08T07:00:00	6	Velocidad del viento	17.7
36390	7	Sololá	701	Sololá	1	Sololá	7	Julio	2023-07-20T00:00:00	2024-11-08T07:00:00	7	Dirección del viento	17.7
36391	7	Sololá	701	Sololá	1	Sololá	7	Julio	2023-07-20T00:00:00	2024-11-08T07:00:00	1	Precipitación	0
36392	7	Sololá	701	Sololá	1	Sololá	7	Julio	2023-07-20T00:00:00	2024-11-08T07:00:00	8	Radiación solar	15
36393	7	Sololá	701	Sololá	1	Sololá	7	Julio	2023-07-20T00:00:00	2024-11-08T08:00:00	2	Temperatura media	18.1
36394	7	Sololá	701	Sololá	1	Sololá	7	Julio	2023-07-20T00:00:00	2024-11-08T08:00:00	4	Temperatura máxima	18.1
36395	7	Sololá	701	Sololá	1	Sololá	7	Julio	2023-07-20T00:00:00	2024-11-08T08:00:00	3	Temperatura mínima	16.5
36396	7	Sololá	701	Sololá	1	Sololá	7	Julio	2023-07-20T00:00:00	2024-11-08T08:00:00	5	Humedad	75
36397	7	Sololá	701	Sololá	1	Sololá	7	Julio	2023-07-20T00:00:00	2024-11-08T08:00:00	6	Velocidad del viento	19.3
36398	7	Sololá	701	Sololá	1	Sololá	7	Julio	2023-07-20T00:00:00	2024-11-08T08:00:00	7	Dirección del viento	19.31
36399	7	Sololá	701	Sololá	1	Sololá	7	Julio	2023-07-20T00:00:00	2024-11-08T08:00:00	1	Precipitación	0
36400	7	Sololá	701	Sololá	1	Sololá	7	Julio	2023-07-20T00:00:00	2024-11-08T08:00:00	8	Radiación solar	29
36401	7	Sololá	701	Sololá	1	Sololá	7	Julio	2023-07-20T00:00:00	2024-11-08T09:00:00	2	Temperatura media	18.3
36402	7	Sololá	701	Sololá	1	Sololá	7	Julio	2023-07-20T00:00:00	2024-11-08T09:00:00	4	Temperatura máxima	19
36403	7	Sololá	701	Sololá	1	Sololá	7	Julio	2023-07-20T00:00:00	2024-11-08T09:00:00	3	Temperatura mínima	18.1
36404	7	Sololá	701	Sololá	1	Sololá	7	Julio	2023-07-20T00:00:00	2024-11-08T09:00:00	5	Humedad	74
36405	7	Sololá	701	Sololá	1	Sololá	7	Julio	2023-07-20T00:00:00	2024-11-08T09:00:00	6	Velocidad del viento	20.9
36406	7	Sololá	701	Sololá	1	Sololá	7	Julio	2023-07-20T00:00:00	2024-11-08T09:00:00	7	Dirección del viento	20.92
36407	7	Sololá	701	Sololá	1	Sololá	7	Julio	2023-07-20T00:00:00	2024-11-08T09:00:00	1	Precipitación	0
36408	7	Sololá	701	Sololá	1	Sololá	7	Julio	2023-07-20T00:00:00	2024-11-08T09:00:00	8	Radiación solar	130
36409	7	Sololá	701	Sololá	1	Sololá	7	Julio	2023-07-20T00:00:00	2024-11-08T10:00:00	2	Temperatura media	20.2
36410	7	Sololá	701	Sololá	1	Sololá	7	Julio	2023-07-20T00:00:00	2024-11-08T10:00:00	4	Temperatura máxima	20.3
36411	7	Sololá	701	Sololá	1	Sololá	7	Julio	2023-07-20T00:00:00	2024-11-08T10:00:00	3	Temperatura mínima	18.3
36412	7	Sololá	701	Sololá	1	Sololá	7	Julio	2023-07-20T00:00:00	2024-11-08T10:00:00	5	Humedad	68
36413	7	Sololá	701	Sololá	1	Sololá	7	Julio	2023-07-20T00:00:00	2024-11-08T10:00:00	6	Velocidad del viento	20.9
36414	7	Sololá	701	Sololá	1	Sololá	7	Julio	2023-07-20T00:00:00	2024-11-08T10:00:00	7	Dirección del viento	20.92
36415	7	Sololá	701	Sololá	1	Sololá	7	Julio	2023-07-20T00:00:00	2024-11-08T10:00:00	1	Precipitación	0
36416	7	Sololá	701	Sololá	1	Sololá	7	Julio	2023-07-20T00:00:00	2024-11-08T10:00:00	8	Radiación solar	734
36417	7	Sololá	701	Sololá	1	Sololá	7	Julio	2023-07-20T00:00:00	2024-11-08T11:00:00	2	Temperatura media	21.6
36418	7	Sololá	701	Sololá	1	Sololá	7	Julio	2023-07-20T00:00:00	2024-11-08T11:00:00	4	Temperatura máxima	21.6
36419	7	Sololá	701	Sololá	1	Sololá	7	Julio	2023-07-20T00:00:00	2024-11-08T11:00:00	3	Temperatura mínima	19.9
36420	7	Sololá	701	Sololá	1	Sololá	7	Julio	2023-07-20T00:00:00	2024-11-08T11:00:00	5	Humedad	66
36421	7	Sololá	701	Sololá	1	Sololá	7	Julio	2023-07-20T00:00:00	2024-11-08T11:00:00	6	Velocidad del viento	16.1
36422	7	Sololá	701	Sololá	1	Sololá	7	Julio	2023-07-20T00:00:00	2024-11-08T11:00:00	7	Dirección del viento	16.09
36423	7	Sololá	701	Sololá	1	Sololá	7	Julio	2023-07-20T00:00:00	2024-11-08T11:00:00	1	Precipitación	0
36424	7	Sololá	701	Sololá	1	Sololá	7	Julio	2023-07-20T00:00:00	2024-11-08T11:00:00	8	Radiación solar	733
36425	7	Sololá	701	Sololá	1	Sololá	7	Julio	2023-07-20T00:00:00	2024-11-08T12:00:00	2	Temperatura media	22.2
36426	7	Sololá	701	Sololá	1	Sololá	7	Julio	2023-07-20T00:00:00	2024-11-08T12:00:00	4	Temperatura máxima	22.4
36427	7	Sololá	701	Sololá	1	Sololá	7	Julio	2023-07-20T00:00:00	2024-11-08T12:00:00	3	Temperatura mínima	21.3
36428	7	Sololá	701	Sololá	1	Sololá	7	Julio	2023-07-20T00:00:00	2024-11-08T12:00:00	5	Humedad	63
36429	7	Sololá	701	Sololá	1	Sololá	7	Julio	2023-07-20T00:00:00	2024-11-08T12:00:00	6	Velocidad del viento	11.3
36430	7	Sololá	701	Sololá	1	Sololá	7	Julio	2023-07-20T00:00:00	2024-11-08T12:00:00	7	Dirección del viento	11.27
36431	7	Sololá	701	Sololá	1	Sololá	7	Julio	2023-07-20T00:00:00	2024-11-08T12:00:00	1	Precipitación	0
36432	7	Sololá	701	Sololá	1	Sololá	7	Julio	2023-07-20T00:00:00	2024-11-08T12:00:00	8	Radiación solar	333
36433	7	Sololá	701	Sololá	1	Sololá	7	Julio	2023-07-20T00:00:00	2024-11-08T13:00:00	2	Temperatura media	22.2
36434	7	Sololá	701	Sololá	1	Sololá	7	Julio	2023-07-20T00:00:00	2024-11-08T13:00:00	4	Temperatura máxima	23.3
36435	7	Sololá	701	Sololá	1	Sololá	7	Julio	2023-07-20T00:00:00	2024-11-08T13:00:00	3	Temperatura mínima	21.8
36436	7	Sololá	701	Sololá	1	Sololá	7	Julio	2023-07-20T00:00:00	2024-11-08T13:00:00	5	Humedad	62
36437	7	Sololá	701	Sololá	1	Sololá	7	Julio	2023-07-20T00:00:00	2024-11-08T13:00:00	6	Velocidad del viento	16.1
36438	7	Sololá	701	Sololá	1	Sololá	7	Julio	2023-07-20T00:00:00	2024-11-08T13:00:00	7	Dirección del viento	16.09
36439	7	Sololá	701	Sololá	1	Sololá	7	Julio	2023-07-20T00:00:00	2024-11-08T13:00:00	1	Precipitación	0
36440	7	Sololá	701	Sololá	1	Sololá	7	Julio	2023-07-20T00:00:00	2024-11-08T13:00:00	8	Radiación solar	343
36441	7	Sololá	701	Sololá	1	Sololá	7	Julio	2023-07-20T00:00:00	2024-11-08T14:00:00	2	Temperatura media	23.6
36442	7	Sololá	701	Sololá	1	Sololá	7	Julio	2023-07-20T00:00:00	2024-11-08T14:00:00	4	Temperatura máxima	23.6
36443	7	Sololá	701	Sololá	1	Sololá	7	Julio	2023-07-20T00:00:00	2024-11-08T14:00:00	3	Temperatura mínima	22.1
36444	7	Sololá	701	Sololá	1	Sololá	7	Julio	2023-07-20T00:00:00	2024-11-08T14:00:00	5	Humedad	59
36445	7	Sololá	701	Sololá	1	Sololá	7	Julio	2023-07-20T00:00:00	2024-11-08T14:00:00	6	Velocidad del viento	11.3
36446	7	Sololá	701	Sololá	1	Sololá	7	Julio	2023-07-20T00:00:00	2024-11-08T14:00:00	7	Dirección del viento	11.27
36447	7	Sololá	701	Sololá	1	Sololá	7	Julio	2023-07-20T00:00:00	2024-11-08T14:00:00	1	Precipitación	0
36448	7	Sololá	701	Sololá	1	Sololá	7	Julio	2023-07-20T00:00:00	2024-11-08T14:00:00	8	Radiación solar	402
36449	7	Sololá	701	Sololá	1	Sololá	7	Julio	2023-07-20T00:00:00	2024-11-08T15:00:00	2	Temperatura media	22.3
36450	7	Sololá	701	Sololá	1	Sololá	7	Julio	2023-07-20T00:00:00	2024-11-08T15:00:00	4	Temperatura máxima	23.6
36451	7	Sololá	701	Sololá	1	Sololá	7	Julio	2023-07-20T00:00:00	2024-11-08T15:00:00	3	Temperatura mínima	22.3
36452	7	Sololá	701	Sololá	1	Sololá	7	Julio	2023-07-20T00:00:00	2024-11-08T15:00:00	5	Humedad	62
36453	7	Sololá	701	Sololá	1	Sololá	7	Julio	2023-07-20T00:00:00	2024-11-08T15:00:00	6	Velocidad del viento	12.9
36454	7	Sololá	701	Sololá	1	Sololá	7	Julio	2023-07-20T00:00:00	2024-11-08T15:00:00	7	Dirección del viento	12.87
36455	7	Sololá	701	Sololá	1	Sololá	7	Julio	2023-07-20T00:00:00	2024-11-08T15:00:00	1	Precipitación	0
36456	7	Sololá	701	Sololá	1	Sololá	7	Julio	2023-07-20T00:00:00	2024-11-08T15:00:00	8	Radiación solar	236
36457	7	Sololá	701	Sololá	1	Sololá	7	Julio	2023-07-20T00:00:00	2024-11-08T16:00:00	2	Temperatura media	22.9
36458	7	Sololá	701	Sololá	1	Sololá	7	Julio	2023-07-20T00:00:00	2024-11-08T16:00:00	4	Temperatura máxima	23
36459	7	Sololá	701	Sololá	1	Sololá	7	Julio	2023-07-20T00:00:00	2024-11-08T16:00:00	3	Temperatura mínima	21.9
36460	7	Sololá	701	Sololá	1	Sololá	7	Julio	2023-07-20T00:00:00	2024-11-08T16:00:00	5	Humedad	59
36461	7	Sololá	701	Sololá	1	Sololá	7	Julio	2023-07-20T00:00:00	2024-11-08T16:00:00	6	Velocidad del viento	16.1
36462	7	Sololá	701	Sololá	1	Sololá	7	Julio	2023-07-20T00:00:00	2024-11-08T16:00:00	7	Dirección del viento	16.09
36463	7	Sololá	701	Sololá	1	Sololá	7	Julio	2023-07-20T00:00:00	2024-11-08T16:00:00	1	Precipitación	0
36464	7	Sololá	701	Sololá	1	Sololá	7	Julio	2023-07-20T00:00:00	2024-11-08T16:00:00	8	Radiación solar	130
36465	7	Sololá	701	Sololá	1	Sololá	7	Julio	2023-07-20T00:00:00	2024-11-08T17:00:00	2	Temperatura media	21.8
36466	7	Sololá	701	Sololá	1	Sololá	7	Julio	2023-07-20T00:00:00	2024-11-08T17:00:00	4	Temperatura máxima	23.3
36467	7	Sololá	701	Sololá	1	Sololá	7	Julio	2023-07-20T00:00:00	2024-11-08T17:00:00	3	Temperatura mínima	21.8
36468	7	Sololá	701	Sololá	1	Sololá	7	Julio	2023-07-20T00:00:00	2024-11-08T17:00:00	5	Humedad	61
36469	7	Sololá	701	Sololá	1	Sololá	7	Julio	2023-07-20T00:00:00	2024-11-08T17:00:00	6	Velocidad del viento	11.3
36470	7	Sololá	701	Sololá	1	Sololá	7	Julio	2023-07-20T00:00:00	2024-11-08T17:00:00	7	Dirección del viento	11.27
36471	7	Sololá	701	Sololá	1	Sololá	7	Julio	2023-07-20T00:00:00	2024-11-08T17:00:00	1	Precipitación	0
36472	7	Sololá	701	Sololá	1	Sololá	7	Julio	2023-07-20T00:00:00	2024-11-08T17:00:00	8	Radiación solar	118
36473	7	Sololá	701	Sololá	1	Sololá	7	Julio	2023-07-20T00:00:00	2024-11-08T18:00:00	2	Temperatura media	19.7
36474	7	Sololá	701	Sololá	1	Sololá	7	Julio	2023-07-20T00:00:00	2024-11-08T18:00:00	4	Temperatura máxima	22.3
36475	7	Sololá	701	Sololá	1	Sololá	7	Julio	2023-07-20T00:00:00	2024-11-08T18:00:00	3	Temperatura mínima	19.7
36476	7	Sololá	701	Sololá	1	Sololá	7	Julio	2023-07-20T00:00:00	2024-11-08T18:00:00	5	Humedad	72
36477	7	Sololá	701	Sololá	1	Sololá	7	Julio	2023-07-20T00:00:00	2024-11-08T18:00:00	6	Velocidad del viento	11.3
36478	7	Sololá	701	Sololá	1	Sololá	7	Julio	2023-07-20T00:00:00	2024-11-08T18:00:00	7	Dirección del viento	11.27
36479	7	Sololá	701	Sololá	1	Sololá	7	Julio	2023-07-20T00:00:00	2024-11-08T18:00:00	1	Precipitación	0
36480	7	Sololá	701	Sololá	1	Sololá	7	Julio	2023-07-20T00:00:00	2024-11-08T18:00:00	8	Radiación solar	56
36481	7	Sololá	701	Sololá	1	Sololá	7	Julio	2023-07-20T00:00:00	2024-11-08T19:00:00	2	Temperatura media	17.9
36482	7	Sololá	701	Sololá	1	Sololá	7	Julio	2023-07-20T00:00:00	2024-11-08T19:00:00	4	Temperatura máxima	19.7
36483	7	Sololá	701	Sololá	1	Sololá	7	Julio	2023-07-20T00:00:00	2024-11-08T19:00:00	3	Temperatura mínima	17.9
36484	7	Sololá	701	Sololá	1	Sololá	7	Julio	2023-07-20T00:00:00	2024-11-08T19:00:00	5	Humedad	76
36485	7	Sololá	701	Sololá	1	Sololá	7	Julio	2023-07-20T00:00:00	2024-11-08T19:00:00	6	Velocidad del viento	9.7
36486	7	Sololá	701	Sololá	1	Sololá	7	Julio	2023-07-20T00:00:00	2024-11-08T19:00:00	7	Dirección del viento	9.66
36487	7	Sololá	701	Sololá	1	Sololá	7	Julio	2023-07-20T00:00:00	2024-11-08T19:00:00	1	Precipitación	0
36488	7	Sololá	701	Sololá	1	Sololá	7	Julio	2023-07-20T00:00:00	2024-11-08T19:00:00	8	Radiación solar	0
36489	7	Sololá	701	Sololá	1	Sololá	7	Julio	2023-07-20T00:00:00	2024-11-08T20:00:00	2	Temperatura media	17.6
36490	7	Sololá	701	Sololá	1	Sololá	7	Julio	2023-07-20T00:00:00	2024-11-08T20:00:00	4	Temperatura máxima	17.9
36491	7	Sololá	701	Sololá	1	Sololá	7	Julio	2023-07-20T00:00:00	2024-11-08T20:00:00	3	Temperatura mínima	17.6
36492	7	Sololá	701	Sololá	1	Sololá	7	Julio	2023-07-20T00:00:00	2024-11-08T20:00:00	5	Humedad	77
36493	7	Sololá	701	Sololá	1	Sololá	7	Julio	2023-07-20T00:00:00	2024-11-08T20:00:00	6	Velocidad del viento	12.9
36494	7	Sololá	701	Sololá	1	Sololá	7	Julio	2023-07-20T00:00:00	2024-11-08T20:00:00	7	Dirección del viento	12.87
36495	7	Sololá	701	Sololá	1	Sololá	7	Julio	2023-07-20T00:00:00	2024-11-08T20:00:00	1	Precipitación	0
36496	7	Sololá	701	Sololá	1	Sololá	7	Julio	2023-07-20T00:00:00	2024-11-08T20:00:00	8	Radiación solar	0
36497	7	Sololá	701	Sololá	1	Sololá	7	Julio	2023-07-20T00:00:00	2024-11-08T21:00:00	2	Temperatura media	17.3
36498	7	Sololá	701	Sololá	1	Sololá	7	Julio	2023-07-20T00:00:00	2024-11-08T21:00:00	4	Temperatura máxima	17.6
36499	7	Sololá	701	Sololá	1	Sololá	7	Julio	2023-07-20T00:00:00	2024-11-08T21:00:00	3	Temperatura mínima	17.3
36500	7	Sololá	701	Sololá	1	Sololá	7	Julio	2023-07-20T00:00:00	2024-11-08T21:00:00	5	Humedad	78
36501	7	Sololá	701	Sololá	1	Sololá	7	Julio	2023-07-20T00:00:00	2024-11-08T21:00:00	6	Velocidad del viento	12.9
36502	7	Sololá	701	Sololá	1	Sololá	7	Julio	2023-07-20T00:00:00	2024-11-08T21:00:00	7	Dirección del viento	12.87
36503	7	Sololá	701	Sololá	1	Sololá	7	Julio	2023-07-20T00:00:00	2024-11-08T21:00:00	1	Precipitación	0
36504	7	Sololá	701	Sololá	1	Sololá	7	Julio	2023-07-20T00:00:00	2024-11-08T21:00:00	8	Radiación solar	0
36505	7	Sololá	701	Sololá	1	Sololá	7	Julio	2023-07-20T00:00:00	2024-11-08T22:00:00	2	Temperatura media	17.5
36506	7	Sololá	701	Sololá	1	Sololá	7	Julio	2023-07-20T00:00:00	2024-11-08T22:00:00	4	Temperatura máxima	17.5
36507	7	Sololá	701	Sololá	1	Sololá	7	Julio	2023-07-20T00:00:00	2024-11-08T22:00:00	3	Temperatura mínima	17.3
36508	7	Sololá	701	Sololá	1	Sololá	7	Julio	2023-07-20T00:00:00	2024-11-08T22:00:00	5	Humedad	76
36509	7	Sololá	701	Sololá	1	Sololá	7	Julio	2023-07-20T00:00:00	2024-11-08T22:00:00	6	Velocidad del viento	11.3
36510	7	Sololá	701	Sololá	1	Sololá	7	Julio	2023-07-20T00:00:00	2024-11-08T22:00:00	7	Dirección del viento	11.27
36511	7	Sololá	701	Sololá	1	Sololá	7	Julio	2023-07-20T00:00:00	2024-11-08T22:00:00	1	Precipitación	0
36512	7	Sololá	701	Sololá	1	Sololá	7	Julio	2023-07-20T00:00:00	2024-11-08T22:00:00	8	Radiación solar	0
36513	7	Sololá	701	Sololá	1	Sololá	7	Julio	2023-07-20T00:00:00	2024-11-08T23:00:00	2	Temperatura media	17.2
36514	7	Sololá	701	Sololá	1	Sololá	7	Julio	2023-07-20T00:00:00	2024-11-08T23:00:00	4	Temperatura máxima	17.6
36515	7	Sololá	701	Sololá	1	Sololá	7	Julio	2023-07-20T00:00:00	2024-11-08T23:00:00	3	Temperatura mínima	17.2
36516	7	Sololá	701	Sololá	1	Sololá	7	Julio	2023-07-20T00:00:00	2024-11-08T23:00:00	5	Humedad	77
36517	7	Sololá	701	Sololá	1	Sololá	7	Julio	2023-07-20T00:00:00	2024-11-08T23:00:00	6	Velocidad del viento	12.9
36518	7	Sololá	701	Sololá	1	Sololá	7	Julio	2023-07-20T00:00:00	2024-11-08T23:00:00	7	Dirección del viento	12.87
36519	7	Sololá	701	Sololá	1	Sololá	7	Julio	2023-07-20T00:00:00	2024-11-08T23:00:00	1	Precipitación	0
36520	7	Sololá	701	Sololá	1	Sololá	7	Julio	2023-07-20T00:00:00	2024-11-08T23:00:00	8	Radiación solar	0
36521	7	Sololá	701	Sololá	1	Sololá	7	Julio	2023-07-21T00:00:00	2024-11-08T00:00:00	2	Temperatura media	16.7
36522	7	Sololá	701	Sololá	1	Sololá	7	Julio	2023-07-21T00:00:00	2024-11-08T00:00:00	4	Temperatura máxima	17.2
36523	7	Sololá	701	Sololá	1	Sololá	7	Julio	2023-07-21T00:00:00	2024-11-08T00:00:00	3	Temperatura mínima	16.7
36524	7	Sololá	701	Sololá	1	Sololá	7	Julio	2023-07-21T00:00:00	2024-11-08T00:00:00	5	Humedad	78
36525	7	Sololá	701	Sololá	1	Sololá	7	Julio	2023-07-21T00:00:00	2024-11-08T00:00:00	6	Velocidad del viento	9.7
36526	7	Sololá	701	Sololá	1	Sololá	7	Julio	2023-07-21T00:00:00	2024-11-08T00:00:00	7	Dirección del viento	9.66
36527	7	Sololá	701	Sololá	1	Sololá	7	Julio	2023-07-21T00:00:00	2024-11-08T00:00:00	1	Precipitación	0
36528	7	Sololá	701	Sololá	1	Sololá	7	Julio	2023-07-21T00:00:00	2024-11-08T00:00:00	8	Radiación solar	0
36529	7	Sololá	701	Sololá	1	Sololá	7	Julio	2023-07-21T00:00:00	2024-11-08T01:00:00	2	Temperatura media	16.5
36530	7	Sololá	701	Sololá	1	Sololá	7	Julio	2023-07-21T00:00:00	2024-11-08T01:00:00	4	Temperatura máxima	16.7
36531	7	Sololá	701	Sololá	1	Sololá	7	Julio	2023-07-21T00:00:00	2024-11-08T01:00:00	3	Temperatura mínima	16.4
36532	7	Sololá	701	Sololá	1	Sololá	7	Julio	2023-07-21T00:00:00	2024-11-08T01:00:00	5	Humedad	78
36533	7	Sololá	701	Sololá	1	Sololá	7	Julio	2023-07-21T00:00:00	2024-11-08T01:00:00	6	Velocidad del viento	11.3
36534	7	Sololá	701	Sololá	1	Sololá	7	Julio	2023-07-21T00:00:00	2024-11-08T01:00:00	7	Dirección del viento	11.27
36535	7	Sololá	701	Sololá	1	Sololá	7	Julio	2023-07-21T00:00:00	2024-11-08T01:00:00	1	Precipitación	0
36536	7	Sololá	701	Sololá	1	Sololá	7	Julio	2023-07-21T00:00:00	2024-11-08T01:00:00	8	Radiación solar	0
36537	7	Sololá	701	Sololá	1	Sololá	7	Julio	2023-07-21T00:00:00	2024-11-08T02:00:00	2	Temperatura media	16.8
36538	7	Sololá	701	Sololá	1	Sololá	7	Julio	2023-07-21T00:00:00	2024-11-08T02:00:00	4	Temperatura máxima	16.8
36539	7	Sololá	701	Sololá	1	Sololá	7	Julio	2023-07-21T00:00:00	2024-11-08T02:00:00	3	Temperatura mínima	16.4
36540	7	Sololá	701	Sololá	1	Sololá	7	Julio	2023-07-21T00:00:00	2024-11-08T02:00:00	5	Humedad	77
36541	7	Sololá	701	Sololá	1	Sololá	7	Julio	2023-07-21T00:00:00	2024-11-08T02:00:00	6	Velocidad del viento	16.1
36542	7	Sololá	701	Sololá	1	Sololá	7	Julio	2023-07-21T00:00:00	2024-11-08T02:00:00	7	Dirección del viento	16.09
36543	7	Sololá	701	Sololá	1	Sololá	7	Julio	2023-07-21T00:00:00	2024-11-08T02:00:00	1	Precipitación	0
36544	7	Sololá	701	Sololá	1	Sololá	7	Julio	2023-07-21T00:00:00	2024-11-08T02:00:00	8	Radiación solar	0
36545	7	Sololá	701	Sololá	1	Sololá	7	Julio	2023-07-21T00:00:00	2024-11-08T03:00:00	2	Temperatura media	16.4
36546	7	Sololá	701	Sololá	1	Sololá	7	Julio	2023-07-21T00:00:00	2024-11-08T03:00:00	4	Temperatura máxima	16.8
36547	7	Sololá	701	Sololá	1	Sololá	7	Julio	2023-07-21T00:00:00	2024-11-08T03:00:00	3	Temperatura mínima	16.4
36548	7	Sololá	701	Sololá	1	Sololá	7	Julio	2023-07-21T00:00:00	2024-11-08T03:00:00	5	Humedad	79
36549	7	Sololá	701	Sololá	1	Sololá	7	Julio	2023-07-21T00:00:00	2024-11-08T03:00:00	6	Velocidad del viento	12.9
36550	7	Sololá	701	Sololá	1	Sololá	7	Julio	2023-07-21T00:00:00	2024-11-08T03:00:00	7	Dirección del viento	12.87
36551	7	Sololá	701	Sololá	1	Sololá	7	Julio	2023-07-21T00:00:00	2024-11-08T03:00:00	1	Precipitación	0
36552	7	Sololá	701	Sololá	1	Sololá	7	Julio	2023-07-21T00:00:00	2024-11-08T03:00:00	8	Radiación solar	0
36553	7	Sololá	701	Sololá	1	Sololá	7	Julio	2023-07-21T00:00:00	2024-11-08T04:00:00	2	Temperatura media	16
36554	7	Sololá	701	Sololá	1	Sololá	7	Julio	2023-07-21T00:00:00	2024-11-08T04:00:00	4	Temperatura máxima	16.5
36555	7	Sololá	701	Sololá	1	Sololá	7	Julio	2023-07-21T00:00:00	2024-11-08T04:00:00	3	Temperatura mínima	16
36556	7	Sololá	701	Sololá	1	Sololá	7	Julio	2023-07-21T00:00:00	2024-11-08T04:00:00	5	Humedad	81
36557	7	Sololá	701	Sololá	1	Sololá	7	Julio	2023-07-21T00:00:00	2024-11-08T04:00:00	6	Velocidad del viento	11.3
36558	7	Sololá	701	Sololá	1	Sololá	7	Julio	2023-07-21T00:00:00	2024-11-08T04:00:00	7	Dirección del viento	11.27
36559	7	Sololá	701	Sololá	1	Sololá	7	Julio	2023-07-21T00:00:00	2024-11-08T04:00:00	1	Precipitación	0
36560	7	Sololá	701	Sololá	1	Sololá	7	Julio	2023-07-21T00:00:00	2024-11-08T04:00:00	8	Radiación solar	0
36561	7	Sololá	701	Sololá	1	Sololá	7	Julio	2023-07-21T00:00:00	2024-11-08T05:00:00	2	Temperatura media	15.9
36562	7	Sololá	701	Sololá	1	Sololá	7	Julio	2023-07-21T00:00:00	2024-11-08T05:00:00	4	Temperatura máxima	16.1
36563	7	Sololá	701	Sololá	1	Sololá	7	Julio	2023-07-21T00:00:00	2024-11-08T05:00:00	3	Temperatura mínima	15.9
36564	7	Sololá	701	Sololá	1	Sololá	7	Julio	2023-07-21T00:00:00	2024-11-08T05:00:00	5	Humedad	82
36565	7	Sololá	701	Sololá	1	Sololá	7	Julio	2023-07-21T00:00:00	2024-11-08T05:00:00	6	Velocidad del viento	16.1
36566	7	Sololá	701	Sololá	1	Sololá	7	Julio	2023-07-21T00:00:00	2024-11-08T05:00:00	7	Dirección del viento	16.09
36567	7	Sololá	701	Sololá	1	Sololá	7	Julio	2023-07-21T00:00:00	2024-11-08T05:00:00	1	Precipitación	0
36568	7	Sololá	701	Sololá	1	Sololá	7	Julio	2023-07-21T00:00:00	2024-11-08T05:00:00	8	Radiación solar	0
36569	7	Sololá	701	Sololá	1	Sololá	7	Julio	2023-07-21T00:00:00	2024-11-08T06:00:00	2	Temperatura media	16.1
36570	7	Sololá	701	Sololá	1	Sololá	7	Julio	2023-07-21T00:00:00	2024-11-08T06:00:00	4	Temperatura máxima	16.2
36571	7	Sololá	701	Sololá	1	Sololá	7	Julio	2023-07-21T00:00:00	2024-11-08T06:00:00	3	Temperatura mínima	15.9
36572	7	Sololá	701	Sololá	1	Sololá	7	Julio	2023-07-21T00:00:00	2024-11-08T06:00:00	5	Humedad	83
36573	7	Sololá	701	Sololá	1	Sololá	7	Julio	2023-07-21T00:00:00	2024-11-08T06:00:00	6	Velocidad del viento	11.3
36574	7	Sololá	701	Sololá	1	Sololá	7	Julio	2023-07-21T00:00:00	2024-11-08T06:00:00	7	Dirección del viento	11.27
36575	7	Sololá	701	Sololá	1	Sololá	7	Julio	2023-07-21T00:00:00	2024-11-08T06:00:00	1	Precipitación	0
36576	7	Sololá	701	Sololá	1	Sololá	7	Julio	2023-07-21T00:00:00	2024-11-08T06:00:00	8	Radiación solar	2
36577	7	Sololá	701	Sololá	1	Sololá	7	Julio	2023-07-21T00:00:00	2024-11-08T07:00:00	2	Temperatura media	17.3
36578	7	Sololá	701	Sololá	1	Sololá	7	Julio	2023-07-21T00:00:00	2024-11-08T07:00:00	4	Temperatura máxima	17.3
36579	7	Sololá	701	Sololá	1	Sololá	7	Julio	2023-07-21T00:00:00	2024-11-08T07:00:00	3	Temperatura mínima	16.1
36580	7	Sololá	701	Sololá	1	Sololá	7	Julio	2023-07-21T00:00:00	2024-11-08T07:00:00	5	Humedad	79
36581	7	Sololá	701	Sololá	1	Sololá	7	Julio	2023-07-21T00:00:00	2024-11-08T07:00:00	6	Velocidad del viento	11.3
36582	7	Sololá	701	Sololá	1	Sololá	7	Julio	2023-07-21T00:00:00	2024-11-08T07:00:00	7	Dirección del viento	11.27
36583	7	Sololá	701	Sololá	1	Sololá	7	Julio	2023-07-21T00:00:00	2024-11-08T07:00:00	1	Precipitación	0
36584	7	Sololá	701	Sololá	1	Sololá	7	Julio	2023-07-21T00:00:00	2024-11-08T07:00:00	8	Radiación solar	19
36585	7	Sololá	701	Sololá	1	Sololá	7	Julio	2023-07-21T00:00:00	2024-11-08T08:00:00	2	Temperatura media	18.2
36586	7	Sololá	701	Sololá	1	Sololá	7	Julio	2023-07-21T00:00:00	2024-11-08T08:00:00	4	Temperatura máxima	18.2
36587	7	Sololá	701	Sololá	1	Sololá	7	Julio	2023-07-21T00:00:00	2024-11-08T08:00:00	3	Temperatura mínima	17.3
36588	7	Sololá	701	Sololá	1	Sololá	7	Julio	2023-07-21T00:00:00	2024-11-08T08:00:00	5	Humedad	76
36589	7	Sololá	701	Sololá	1	Sololá	7	Julio	2023-07-21T00:00:00	2024-11-08T08:00:00	6	Velocidad del viento	16.1
36590	7	Sololá	701	Sololá	1	Sololá	7	Julio	2023-07-21T00:00:00	2024-11-08T08:00:00	7	Dirección del viento	16.09
36591	7	Sololá	701	Sololá	1	Sololá	7	Julio	2023-07-21T00:00:00	2024-11-08T08:00:00	1	Precipitación	0
36592	7	Sololá	701	Sololá	1	Sololá	7	Julio	2023-07-21T00:00:00	2024-11-08T08:00:00	8	Radiación solar	70
36593	7	Sololá	701	Sololá	1	Sololá	7	Julio	2023-07-21T00:00:00	2024-11-08T09:00:00	2	Temperatura media	19.7
36594	7	Sololá	701	Sololá	1	Sololá	7	Julio	2023-07-21T00:00:00	2024-11-08T09:00:00	4	Temperatura máxima	19.7
36595	7	Sololá	701	Sololá	1	Sololá	7	Julio	2023-07-21T00:00:00	2024-11-08T09:00:00	3	Temperatura mínima	18.3
36596	7	Sololá	701	Sololá	1	Sololá	7	Julio	2023-07-21T00:00:00	2024-11-08T09:00:00	5	Humedad	71
36597	7	Sololá	701	Sololá	1	Sololá	7	Julio	2023-07-21T00:00:00	2024-11-08T09:00:00	6	Velocidad del viento	16.1
36598	7	Sololá	701	Sololá	1	Sololá	7	Julio	2023-07-21T00:00:00	2024-11-08T09:00:00	7	Dirección del viento	16.09
36599	7	Sololá	701	Sololá	1	Sololá	7	Julio	2023-07-21T00:00:00	2024-11-08T09:00:00	1	Precipitación	0
36600	7	Sololá	701	Sololá	1	Sololá	7	Julio	2023-07-21T00:00:00	2024-11-08T09:00:00	8	Radiación solar	116
36601	7	Sololá	701	Sololá	1	Sololá	7	Julio	2023-07-21T00:00:00	2024-11-08T10:00:00	2	Temperatura media	21.2
36602	7	Sololá	701	Sololá	1	Sololá	7	Julio	2023-07-21T00:00:00	2024-11-08T10:00:00	4	Temperatura máxima	21.2
36603	7	Sololá	701	Sololá	1	Sololá	7	Julio	2023-07-21T00:00:00	2024-11-08T10:00:00	3	Temperatura mínima	19.5
36604	7	Sololá	701	Sololá	1	Sololá	7	Julio	2023-07-21T00:00:00	2024-11-08T10:00:00	5	Humedad	66
36605	7	Sololá	701	Sololá	1	Sololá	7	Julio	2023-07-21T00:00:00	2024-11-08T10:00:00	6	Velocidad del viento	14.5
36606	7	Sololá	701	Sololá	1	Sololá	7	Julio	2023-07-21T00:00:00	2024-11-08T10:00:00	7	Dirección del viento	14.48
36607	7	Sololá	701	Sololá	1	Sololá	7	Julio	2023-07-21T00:00:00	2024-11-08T10:00:00	1	Precipitación	0
36608	7	Sololá	701	Sololá	1	Sololá	7	Julio	2023-07-21T00:00:00	2024-11-08T10:00:00	8	Radiación solar	89
36609	7	Sololá	701	Sololá	1	Sololá	7	Julio	2023-07-21T00:00:00	2024-11-08T11:00:00	2	Temperatura media	22.8
36610	7	Sololá	701	Sololá	1	Sololá	7	Julio	2023-07-21T00:00:00	2024-11-08T11:00:00	4	Temperatura máxima	22.8
36611	7	Sololá	701	Sololá	1	Sololá	7	Julio	2023-07-21T00:00:00	2024-11-08T11:00:00	3	Temperatura mínima	20.7
36612	7	Sololá	701	Sololá	1	Sololá	7	Julio	2023-07-21T00:00:00	2024-11-08T11:00:00	5	Humedad	58
36613	7	Sololá	701	Sololá	1	Sololá	7	Julio	2023-07-21T00:00:00	2024-11-08T11:00:00	6	Velocidad del viento	12.9
36614	7	Sololá	701	Sololá	1	Sololá	7	Julio	2023-07-21T00:00:00	2024-11-08T11:00:00	7	Dirección del viento	12.87
36615	7	Sololá	701	Sololá	1	Sololá	7	Julio	2023-07-21T00:00:00	2024-11-08T11:00:00	1	Precipitación	0
36616	7	Sololá	701	Sololá	1	Sololá	7	Julio	2023-07-21T00:00:00	2024-11-08T11:00:00	8	Radiación solar	85
36617	7	Sololá	701	Sololá	1	Sololá	7	Julio	2023-07-21T00:00:00	2024-11-08T12:00:00	2	Temperatura media	23.6
36618	7	Sololá	701	Sololá	1	Sololá	7	Julio	2023-07-21T00:00:00	2024-11-08T12:00:00	4	Temperatura máxima	23.8
36619	7	Sololá	701	Sololá	1	Sololá	7	Julio	2023-07-21T00:00:00	2024-11-08T12:00:00	3	Temperatura mínima	22.7
36620	7	Sololá	701	Sololá	1	Sololá	7	Julio	2023-07-21T00:00:00	2024-11-08T12:00:00	5	Humedad	56
36621	7	Sololá	701	Sololá	1	Sololá	7	Julio	2023-07-21T00:00:00	2024-11-08T12:00:00	6	Velocidad del viento	11.3
36622	7	Sololá	701	Sololá	1	Sololá	7	Julio	2023-07-21T00:00:00	2024-11-08T12:00:00	7	Dirección del viento	11.27
36623	7	Sololá	701	Sololá	1	Sololá	7	Julio	2023-07-21T00:00:00	2024-11-08T12:00:00	1	Precipitación	0
36624	7	Sololá	701	Sololá	1	Sololá	7	Julio	2023-07-21T00:00:00	2024-11-08T12:00:00	8	Radiación solar	143
36625	7	Sololá	701	Sololá	1	Sololá	7	Julio	2023-07-21T00:00:00	2024-11-08T13:00:00	2	Temperatura media	24.6
36626	7	Sololá	701	Sololá	1	Sololá	7	Julio	2023-07-21T00:00:00	2024-11-08T13:00:00	4	Temperatura máxima	24.7
36627	7	Sololá	701	Sololá	1	Sololá	7	Julio	2023-07-21T00:00:00	2024-11-08T13:00:00	3	Temperatura mínima	23.5
36628	7	Sololá	701	Sololá	1	Sololá	7	Julio	2023-07-21T00:00:00	2024-11-08T13:00:00	5	Humedad	52
36629	7	Sololá	701	Sololá	1	Sololá	7	Julio	2023-07-21T00:00:00	2024-11-08T13:00:00	6	Velocidad del viento	9.7
36630	7	Sololá	701	Sololá	1	Sololá	7	Julio	2023-07-21T00:00:00	2024-11-08T13:00:00	7	Dirección del viento	9.66
36631	7	Sololá	701	Sololá	1	Sololá	7	Julio	2023-07-21T00:00:00	2024-11-08T13:00:00	1	Precipitación	0
36632	7	Sololá	701	Sololá	1	Sololá	7	Julio	2023-07-21T00:00:00	2024-11-08T13:00:00	8	Radiación solar	317
36633	7	Sololá	701	Sololá	1	Sololá	7	Julio	2023-07-21T00:00:00	2024-11-08T14:00:00	2	Temperatura media	23.5
36634	7	Sololá	701	Sololá	1	Sololá	7	Julio	2023-07-21T00:00:00	2024-11-08T14:00:00	4	Temperatura máxima	24.7
36635	7	Sololá	701	Sololá	1	Sololá	7	Julio	2023-07-21T00:00:00	2024-11-08T14:00:00	3	Temperatura mínima	23.4
36636	7	Sololá	701	Sololá	1	Sololá	7	Julio	2023-07-21T00:00:00	2024-11-08T14:00:00	5	Humedad	62
36637	7	Sololá	701	Sololá	1	Sololá	7	Julio	2023-07-21T00:00:00	2024-11-08T14:00:00	6	Velocidad del viento	4.8
36638	7	Sololá	701	Sololá	1	Sololá	7	Julio	2023-07-21T00:00:00	2024-11-08T14:00:00	7	Dirección del viento	4.83
36639	7	Sololá	701	Sololá	1	Sololá	7	Julio	2023-07-21T00:00:00	2024-11-08T14:00:00	1	Precipitación	0
36640	7	Sololá	701	Sololá	1	Sololá	7	Julio	2023-07-21T00:00:00	2024-11-08T14:00:00	8	Radiación solar	127
36641	7	Sololá	701	Sololá	1	Sololá	7	Julio	2023-07-21T00:00:00	2024-11-08T15:00:00	2	Temperatura media	22.7
36642	7	Sololá	701	Sololá	1	Sololá	7	Julio	2023-07-21T00:00:00	2024-11-08T15:00:00	4	Temperatura máxima	23.9
36643	7	Sololá	701	Sololá	1	Sololá	7	Julio	2023-07-21T00:00:00	2024-11-08T15:00:00	3	Temperatura mínima	22.6
36644	7	Sololá	701	Sololá	1	Sololá	7	Julio	2023-07-21T00:00:00	2024-11-08T15:00:00	5	Humedad	73
36645	7	Sololá	701	Sololá	1	Sololá	7	Julio	2023-07-21T00:00:00	2024-11-08T15:00:00	6	Velocidad del viento	6.4
36646	7	Sololá	701	Sololá	1	Sololá	7	Julio	2023-07-21T00:00:00	2024-11-08T15:00:00	7	Dirección del viento	6.44
36647	7	Sololá	701	Sololá	1	Sololá	7	Julio	2023-07-21T00:00:00	2024-11-08T15:00:00	1	Precipitación	0
36648	7	Sololá	701	Sololá	1	Sololá	7	Julio	2023-07-21T00:00:00	2024-11-08T15:00:00	8	Radiación solar	141
36649	7	Sololá	701	Sololá	1	Sololá	7	Julio	2023-07-21T00:00:00	2024-11-08T16:00:00	2	Temperatura media	22.9
36650	7	Sololá	701	Sololá	1	Sololá	7	Julio	2023-07-21T00:00:00	2024-11-08T16:00:00	4	Temperatura máxima	23.4
36651	7	Sololá	701	Sololá	1	Sololá	7	Julio	2023-07-21T00:00:00	2024-11-08T16:00:00	3	Temperatura mínima	22.4
36652	7	Sololá	701	Sololá	1	Sololá	7	Julio	2023-07-21T00:00:00	2024-11-08T16:00:00	5	Humedad	72
36653	7	Sololá	701	Sololá	1	Sololá	7	Julio	2023-07-21T00:00:00	2024-11-08T16:00:00	6	Velocidad del viento	4.8
36654	7	Sololá	701	Sololá	1	Sololá	7	Julio	2023-07-21T00:00:00	2024-11-08T16:00:00	7	Dirección del viento	4.83
36655	7	Sololá	701	Sololá	1	Sololá	7	Julio	2023-07-21T00:00:00	2024-11-08T16:00:00	1	Precipitación	0
36656	7	Sololá	701	Sololá	1	Sololá	7	Julio	2023-07-21T00:00:00	2024-11-08T16:00:00	8	Radiación solar	101
36657	7	Sololá	701	Sololá	1	Sololá	7	Julio	2023-07-21T00:00:00	2024-11-08T17:00:00	2	Temperatura media	21.3
36658	7	Sololá	701	Sololá	1	Sololá	7	Julio	2023-07-21T00:00:00	2024-11-08T17:00:00	4	Temperatura máxima	22.8
36659	7	Sololá	701	Sololá	1	Sololá	7	Julio	2023-07-21T00:00:00	2024-11-08T17:00:00	3	Temperatura mínima	21.2
36660	7	Sololá	701	Sololá	1	Sololá	7	Julio	2023-07-21T00:00:00	2024-11-08T17:00:00	5	Humedad	82
36661	7	Sololá	701	Sololá	1	Sololá	7	Julio	2023-07-21T00:00:00	2024-11-08T17:00:00	6	Velocidad del viento	3.2
36662	7	Sololá	701	Sololá	1	Sololá	7	Julio	2023-07-21T00:00:00	2024-11-08T17:00:00	7	Dirección del viento	3.22
36663	7	Sololá	701	Sololá	1	Sololá	7	Julio	2023-07-21T00:00:00	2024-11-08T17:00:00	1	Precipitación	0
36664	7	Sololá	701	Sololá	1	Sololá	7	Julio	2023-07-21T00:00:00	2024-11-08T17:00:00	8	Radiación solar	110
36665	7	Sololá	701	Sololá	1	Sololá	7	Julio	2023-07-21T00:00:00	2024-11-08T18:00:00	2	Temperatura media	20.8
36666	7	Sololá	701	Sololá	1	Sololá	7	Julio	2023-07-21T00:00:00	2024-11-08T18:00:00	4	Temperatura máxima	21.5
36667	7	Sololá	701	Sololá	1	Sololá	7	Julio	2023-07-21T00:00:00	2024-11-08T18:00:00	3	Temperatura mínima	20.6
36668	7	Sololá	701	Sololá	1	Sololá	7	Julio	2023-07-21T00:00:00	2024-11-08T18:00:00	5	Humedad	84
36669	7	Sololá	701	Sololá	1	Sololá	7	Julio	2023-07-21T00:00:00	2024-11-08T18:00:00	6	Velocidad del viento	1.6
36670	7	Sololá	701	Sololá	1	Sololá	7	Julio	2023-07-21T00:00:00	2024-11-08T18:00:00	7	Dirección del viento	1.61
36671	7	Sololá	701	Sololá	1	Sololá	7	Julio	2023-07-21T00:00:00	2024-11-08T18:00:00	1	Precipitación	0
36672	7	Sololá	701	Sololá	1	Sololá	7	Julio	2023-07-21T00:00:00	2024-11-08T18:00:00	8	Radiación solar	41
36673	7	Sololá	701	Sololá	1	Sololá	7	Julio	2023-07-21T00:00:00	2024-11-08T19:00:00	2	Temperatura media	19.1
36674	7	Sololá	701	Sololá	1	Sololá	7	Julio	2023-07-21T00:00:00	2024-11-08T19:00:00	4	Temperatura máxima	20.8
36675	7	Sololá	701	Sololá	1	Sololá	7	Julio	2023-07-21T00:00:00	2024-11-08T19:00:00	3	Temperatura mínima	18.9
36676	7	Sololá	701	Sololá	1	Sololá	7	Julio	2023-07-21T00:00:00	2024-11-08T19:00:00	5	Humedad	81
36677	7	Sololá	701	Sololá	1	Sololá	7	Julio	2023-07-21T00:00:00	2024-11-08T19:00:00	6	Velocidad del viento	0
36678	7	Sololá	701	Sololá	1	Sololá	7	Julio	2023-07-21T00:00:00	2024-11-08T19:00:00	7	Dirección del viento	0
36679	7	Sololá	701	Sololá	1	Sololá	7	Julio	2023-07-21T00:00:00	2024-11-08T19:00:00	1	Precipitación	0
36680	7	Sololá	701	Sololá	1	Sololá	7	Julio	2023-07-21T00:00:00	2024-11-08T19:00:00	8	Radiación solar	0
36681	7	Sololá	701	Sololá	1	Sololá	7	Julio	2023-07-21T00:00:00	2024-11-08T20:00:00	2	Temperatura media	18.8
36682	7	Sololá	701	Sololá	1	Sololá	7	Julio	2023-07-21T00:00:00	2024-11-08T20:00:00	4	Temperatura máxima	19.4
36683	7	Sololá	701	Sololá	1	Sololá	7	Julio	2023-07-21T00:00:00	2024-11-08T20:00:00	3	Temperatura mínima	18.3
36684	7	Sololá	701	Sololá	1	Sololá	7	Julio	2023-07-21T00:00:00	2024-11-08T20:00:00	5	Humedad	91
36685	7	Sololá	701	Sololá	1	Sololá	7	Julio	2023-07-21T00:00:00	2024-11-08T20:00:00	6	Velocidad del viento	0
36686	7	Sololá	701	Sololá	1	Sololá	7	Julio	2023-07-21T00:00:00	2024-11-08T20:00:00	7	Dirección del viento	0
36687	7	Sololá	701	Sololá	1	Sololá	7	Julio	2023-07-21T00:00:00	2024-11-08T20:00:00	1	Precipitación	0
36688	7	Sololá	701	Sololá	1	Sololá	7	Julio	2023-07-21T00:00:00	2024-11-08T20:00:00	8	Radiación solar	0
36689	7	Sololá	701	Sololá	1	Sololá	7	Julio	2023-07-21T00:00:00	2024-11-08T21:00:00	2	Temperatura media	18.1
36690	7	Sololá	701	Sololá	1	Sololá	7	Julio	2023-07-21T00:00:00	2024-11-08T21:00:00	4	Temperatura máxima	18.9
36691	7	Sololá	701	Sololá	1	Sololá	7	Julio	2023-07-21T00:00:00	2024-11-08T21:00:00	3	Temperatura mínima	18.1
36692	7	Sololá	701	Sololá	1	Sololá	7	Julio	2023-07-21T00:00:00	2024-11-08T21:00:00	5	Humedad	86
36693	7	Sololá	701	Sololá	1	Sololá	7	Julio	2023-07-21T00:00:00	2024-11-08T21:00:00	6	Velocidad del viento	1.6
36694	7	Sololá	701	Sololá	1	Sololá	7	Julio	2023-07-21T00:00:00	2024-11-08T21:00:00	7	Dirección del viento	1.61
36695	7	Sololá	701	Sololá	1	Sololá	7	Julio	2023-07-21T00:00:00	2024-11-08T21:00:00	1	Precipitación	0
36696	7	Sololá	701	Sololá	1	Sololá	7	Julio	2023-07-21T00:00:00	2024-11-08T21:00:00	8	Radiación solar	0
36697	7	Sololá	701	Sololá	1	Sololá	7	Julio	2023-07-21T00:00:00	2024-11-08T22:00:00	2	Temperatura media	17.8
36698	7	Sololá	701	Sololá	1	Sololá	7	Julio	2023-07-21T00:00:00	2024-11-08T22:00:00	4	Temperatura máxima	18.1
36699	7	Sololá	701	Sololá	1	Sololá	7	Julio	2023-07-21T00:00:00	2024-11-08T22:00:00	3	Temperatura mínima	17.7
36700	7	Sololá	701	Sololá	1	Sololá	7	Julio	2023-07-21T00:00:00	2024-11-08T22:00:00	5	Humedad	82
36701	7	Sololá	701	Sololá	1	Sololá	7	Julio	2023-07-21T00:00:00	2024-11-08T22:00:00	6	Velocidad del viento	1.6
36702	7	Sololá	701	Sololá	1	Sololá	7	Julio	2023-07-21T00:00:00	2024-11-08T22:00:00	7	Dirección del viento	1.61
36703	7	Sololá	701	Sololá	1	Sololá	7	Julio	2023-07-21T00:00:00	2024-11-08T22:00:00	1	Precipitación	0
36704	7	Sololá	701	Sololá	1	Sololá	7	Julio	2023-07-21T00:00:00	2024-11-08T22:00:00	8	Radiación solar	0
36705	7	Sololá	701	Sololá	1	Sololá	7	Julio	2023-07-21T00:00:00	2024-11-08T23:00:00	2	Temperatura media	17.4
36706	7	Sololá	701	Sololá	1	Sololá	7	Julio	2023-07-21T00:00:00	2024-11-08T23:00:00	4	Temperatura máxima	17.8
36707	7	Sololá	701	Sololá	1	Sololá	7	Julio	2023-07-21T00:00:00	2024-11-08T23:00:00	3	Temperatura mínima	17.3
36708	7	Sololá	701	Sololá	1	Sololá	7	Julio	2023-07-21T00:00:00	2024-11-08T23:00:00	5	Humedad	82
36709	7	Sololá	701	Sololá	1	Sololá	7	Julio	2023-07-21T00:00:00	2024-11-08T23:00:00	6	Velocidad del viento	4.8
36710	7	Sololá	701	Sololá	1	Sololá	7	Julio	2023-07-21T00:00:00	2024-11-08T23:00:00	7	Dirección del viento	4.83
36711	7	Sololá	701	Sololá	1	Sololá	7	Julio	2023-07-21T00:00:00	2024-11-08T23:00:00	1	Precipitación	0
36712	7	Sololá	701	Sololá	1	Sololá	7	Julio	2023-07-21T00:00:00	2024-11-08T23:00:00	8	Radiación solar	0
36713	7	Sololá	701	Sololá	1	Sololá	7	Julio	2023-07-22T00:00:00	2024-11-08T00:00:00	2	Temperatura media	16.8
36714	7	Sololá	701	Sololá	1	Sololá	7	Julio	2023-07-22T00:00:00	2024-11-08T00:00:00	4	Temperatura máxima	17.4
36715	7	Sololá	701	Sololá	1	Sololá	7	Julio	2023-07-22T00:00:00	2024-11-08T00:00:00	3	Temperatura mínima	16.8
36716	7	Sololá	701	Sololá	1	Sololá	7	Julio	2023-07-22T00:00:00	2024-11-08T00:00:00	5	Humedad	83
36717	7	Sololá	701	Sololá	1	Sololá	7	Julio	2023-07-22T00:00:00	2024-11-08T00:00:00	6	Velocidad del viento	4.8
36718	7	Sololá	701	Sololá	1	Sololá	7	Julio	2023-07-22T00:00:00	2024-11-08T00:00:00	7	Dirección del viento	4.83
36719	7	Sololá	701	Sololá	1	Sololá	7	Julio	2023-07-22T00:00:00	2024-11-08T00:00:00	1	Precipitación	0
36720	7	Sololá	701	Sololá	1	Sololá	7	Julio	2023-07-22T00:00:00	2024-11-08T00:00:00	8	Radiación solar	0
36721	7	Sololá	701	Sololá	1	Sololá	7	Julio	2023-07-22T00:00:00	2024-11-08T01:00:00	2	Temperatura media	15.8
36722	7	Sololá	701	Sololá	1	Sololá	7	Julio	2023-07-22T00:00:00	2024-11-08T01:00:00	4	Temperatura máxima	16.9
36723	7	Sololá	701	Sololá	1	Sololá	7	Julio	2023-07-22T00:00:00	2024-11-08T01:00:00	3	Temperatura mínima	15.8
36724	7	Sololá	701	Sololá	1	Sololá	7	Julio	2023-07-22T00:00:00	2024-11-08T01:00:00	5	Humedad	86
36725	7	Sololá	701	Sololá	1	Sololá	7	Julio	2023-07-22T00:00:00	2024-11-08T01:00:00	6	Velocidad del viento	3.2
36726	7	Sololá	701	Sololá	1	Sololá	7	Julio	2023-07-22T00:00:00	2024-11-08T01:00:00	7	Dirección del viento	3.22
36727	7	Sololá	701	Sololá	1	Sololá	7	Julio	2023-07-22T00:00:00	2024-11-08T01:00:00	1	Precipitación	0
36728	7	Sololá	701	Sololá	1	Sololá	7	Julio	2023-07-22T00:00:00	2024-11-08T01:00:00	8	Radiación solar	0
36729	7	Sololá	701	Sololá	1	Sololá	7	Julio	2023-07-22T00:00:00	2024-11-08T02:00:00	2	Temperatura media	15.9
36730	7	Sololá	701	Sololá	1	Sololá	7	Julio	2023-07-22T00:00:00	2024-11-08T02:00:00	4	Temperatura máxima	16.2
36731	7	Sololá	701	Sololá	1	Sololá	7	Julio	2023-07-22T00:00:00	2024-11-08T02:00:00	3	Temperatura mínima	15.5
36732	7	Sololá	701	Sololá	1	Sololá	7	Julio	2023-07-22T00:00:00	2024-11-08T02:00:00	5	Humedad	84
36733	7	Sololá	701	Sololá	1	Sololá	7	Julio	2023-07-22T00:00:00	2024-11-08T02:00:00	6	Velocidad del viento	4.8
36734	7	Sololá	701	Sololá	1	Sololá	7	Julio	2023-07-22T00:00:00	2024-11-08T02:00:00	7	Dirección del viento	4.83
36735	7	Sololá	701	Sololá	1	Sololá	7	Julio	2023-07-22T00:00:00	2024-11-08T02:00:00	1	Precipitación	0
36736	7	Sololá	701	Sololá	1	Sololá	7	Julio	2023-07-22T00:00:00	2024-11-08T02:00:00	8	Radiación solar	0
36737	7	Sololá	701	Sololá	1	Sololá	7	Julio	2023-07-22T00:00:00	2024-11-08T03:00:00	2	Temperatura media	14.9
36738	7	Sololá	701	Sololá	1	Sololá	7	Julio	2023-07-22T00:00:00	2024-11-08T03:00:00	4	Temperatura máxima	15.9
36739	7	Sololá	701	Sololá	1	Sololá	7	Julio	2023-07-22T00:00:00	2024-11-08T03:00:00	3	Temperatura mínima	14.4
36740	7	Sololá	701	Sololá	1	Sololá	7	Julio	2023-07-22T00:00:00	2024-11-08T03:00:00	5	Humedad	85
36741	7	Sololá	701	Sololá	1	Sololá	7	Julio	2023-07-22T00:00:00	2024-11-08T03:00:00	6	Velocidad del viento	6.4
36742	7	Sololá	701	Sololá	1	Sololá	7	Julio	2023-07-22T00:00:00	2024-11-08T03:00:00	7	Dirección del viento	6.44
36743	7	Sololá	701	Sololá	1	Sololá	7	Julio	2023-07-22T00:00:00	2024-11-08T03:00:00	1	Precipitación	0
36744	7	Sololá	701	Sololá	1	Sololá	7	Julio	2023-07-22T00:00:00	2024-11-08T03:00:00	8	Radiación solar	0
36745	7	Sololá	701	Sololá	1	Sololá	7	Julio	2023-07-22T00:00:00	2024-11-08T04:00:00	2	Temperatura media	14.6
36746	7	Sololá	701	Sololá	1	Sololá	7	Julio	2023-07-22T00:00:00	2024-11-08T04:00:00	4	Temperatura máxima	16
36747	7	Sololá	701	Sololá	1	Sololá	7	Julio	2023-07-22T00:00:00	2024-11-08T04:00:00	3	Temperatura mínima	14.3
36748	7	Sololá	701	Sololá	1	Sololá	7	Julio	2023-07-22T00:00:00	2024-11-08T04:00:00	5	Humedad	85
36749	7	Sololá	701	Sololá	1	Sololá	7	Julio	2023-07-22T00:00:00	2024-11-08T04:00:00	6	Velocidad del viento	6.4
36750	7	Sololá	701	Sololá	1	Sololá	7	Julio	2023-07-22T00:00:00	2024-11-08T04:00:00	7	Dirección del viento	6.44
36751	7	Sololá	701	Sololá	1	Sololá	7	Julio	2023-07-22T00:00:00	2024-11-08T04:00:00	1	Precipitación	0
36752	7	Sololá	701	Sololá	1	Sololá	7	Julio	2023-07-22T00:00:00	2024-11-08T04:00:00	8	Radiación solar	0
36753	7	Sololá	701	Sololá	1	Sololá	7	Julio	2023-07-22T00:00:00	2024-11-08T05:00:00	2	Temperatura media	15.1
36754	7	Sololá	701	Sololá	1	Sololá	7	Julio	2023-07-22T00:00:00	2024-11-08T05:00:00	4	Temperatura máxima	15.1
36755	7	Sololá	701	Sololá	1	Sololá	7	Julio	2023-07-22T00:00:00	2024-11-08T05:00:00	3	Temperatura mínima	14.1
36756	7	Sololá	701	Sololá	1	Sololá	7	Julio	2023-07-22T00:00:00	2024-11-08T05:00:00	5	Humedad	84
36757	7	Sololá	701	Sololá	1	Sololá	7	Julio	2023-07-22T00:00:00	2024-11-08T05:00:00	6	Velocidad del viento	6.4
36758	7	Sololá	701	Sololá	1	Sololá	7	Julio	2023-07-22T00:00:00	2024-11-08T05:00:00	7	Dirección del viento	6.44
36759	7	Sololá	701	Sololá	1	Sololá	7	Julio	2023-07-22T00:00:00	2024-11-08T05:00:00	1	Precipitación	0
36760	7	Sololá	701	Sololá	1	Sololá	7	Julio	2023-07-22T00:00:00	2024-11-08T05:00:00	8	Radiación solar	0
36761	7	Sololá	701	Sololá	1	Sololá	7	Julio	2023-07-22T00:00:00	2024-11-08T06:00:00	2	Temperatura media	14.9
36762	7	Sololá	701	Sololá	1	Sololá	7	Julio	2023-07-22T00:00:00	2024-11-08T06:00:00	4	Temperatura máxima	15.1
36763	7	Sololá	701	Sololá	1	Sololá	7	Julio	2023-07-22T00:00:00	2024-11-08T06:00:00	3	Temperatura mínima	14.1
36764	7	Sololá	701	Sololá	1	Sololá	7	Julio	2023-07-22T00:00:00	2024-11-08T06:00:00	5	Humedad	85
36765	7	Sololá	701	Sololá	1	Sololá	7	Julio	2023-07-22T00:00:00	2024-11-08T06:00:00	6	Velocidad del viento	4.8
36766	7	Sololá	701	Sololá	1	Sololá	7	Julio	2023-07-22T00:00:00	2024-11-08T06:00:00	7	Dirección del viento	4.83
36767	7	Sololá	701	Sololá	1	Sololá	7	Julio	2023-07-22T00:00:00	2024-11-08T06:00:00	1	Precipitación	0
36768	7	Sololá	701	Sololá	1	Sololá	7	Julio	2023-07-22T00:00:00	2024-11-08T06:00:00	8	Radiación solar	3
36769	7	Sololá	701	Sololá	1	Sololá	7	Julio	2023-07-22T00:00:00	2024-11-08T07:00:00	2	Temperatura media	17.4
36770	7	Sololá	701	Sololá	1	Sololá	7	Julio	2023-07-22T00:00:00	2024-11-08T07:00:00	4	Temperatura máxima	17.4
36771	7	Sololá	701	Sololá	1	Sololá	7	Julio	2023-07-22T00:00:00	2024-11-08T07:00:00	3	Temperatura mínima	14.7
36772	7	Sololá	701	Sololá	1	Sololá	7	Julio	2023-07-22T00:00:00	2024-11-08T07:00:00	5	Humedad	77
36773	7	Sololá	701	Sololá	1	Sololá	7	Julio	2023-07-22T00:00:00	2024-11-08T07:00:00	6	Velocidad del viento	6.4
36774	7	Sololá	701	Sololá	1	Sololá	7	Julio	2023-07-22T00:00:00	2024-11-08T07:00:00	7	Dirección del viento	6.44
36775	7	Sololá	701	Sololá	1	Sololá	7	Julio	2023-07-22T00:00:00	2024-11-08T07:00:00	1	Precipitación	0
36776	7	Sololá	701	Sololá	1	Sololá	7	Julio	2023-07-22T00:00:00	2024-11-08T07:00:00	8	Radiación solar	62
36777	7	Sololá	701	Sololá	1	Sololá	7	Julio	2023-07-22T00:00:00	2024-11-08T08:00:00	2	Temperatura media	18.7
36778	7	Sololá	701	Sololá	1	Sololá	7	Julio	2023-07-22T00:00:00	2024-11-08T08:00:00	4	Temperatura máxima	19
36779	7	Sololá	701	Sololá	1	Sololá	7	Julio	2023-07-22T00:00:00	2024-11-08T08:00:00	3	Temperatura mínima	17.4
36780	7	Sololá	701	Sololá	1	Sololá	7	Julio	2023-07-22T00:00:00	2024-11-08T08:00:00	5	Humedad	72
36781	7	Sololá	701	Sololá	1	Sololá	7	Julio	2023-07-22T00:00:00	2024-11-08T08:00:00	6	Velocidad del viento	9.7
36782	7	Sololá	701	Sololá	1	Sololá	7	Julio	2023-07-22T00:00:00	2024-11-08T08:00:00	7	Dirección del viento	9.66
36783	7	Sololá	701	Sololá	1	Sololá	7	Julio	2023-07-22T00:00:00	2024-11-08T08:00:00	1	Precipitación	0
36784	7	Sololá	701	Sololá	1	Sololá	7	Julio	2023-07-22T00:00:00	2024-11-08T08:00:00	8	Radiación solar	83
36785	7	Sololá	701	Sololá	1	Sololá	7	Julio	2023-07-22T00:00:00	2024-11-08T09:00:00	2	Temperatura media	20.2
36786	7	Sololá	701	Sololá	1	Sololá	7	Julio	2023-07-22T00:00:00	2024-11-08T09:00:00	4	Temperatura máxima	20.2
36787	7	Sololá	701	Sololá	1	Sololá	7	Julio	2023-07-22T00:00:00	2024-11-08T09:00:00	3	Temperatura mínima	18.7
36788	7	Sololá	701	Sololá	1	Sololá	7	Julio	2023-07-22T00:00:00	2024-11-08T09:00:00	5	Humedad	67
36789	7	Sololá	701	Sololá	1	Sololá	7	Julio	2023-07-22T00:00:00	2024-11-08T09:00:00	6	Velocidad del viento	8
36790	7	Sololá	701	Sololá	1	Sololá	7	Julio	2023-07-22T00:00:00	2024-11-08T09:00:00	7	Dirección del viento	8.05
36791	7	Sololá	701	Sololá	1	Sololá	7	Julio	2023-07-22T00:00:00	2024-11-08T09:00:00	1	Precipitación	0
36792	7	Sololá	701	Sololá	1	Sololá	7	Julio	2023-07-22T00:00:00	2024-11-08T09:00:00	8	Radiación solar	406
36793	7	Sololá	701	Sololá	1	Sololá	7	Julio	2023-07-22T00:00:00	2024-11-08T10:00:00	2	Temperatura media	21.2
36794	7	Sololá	701	Sololá	1	Sololá	7	Julio	2023-07-22T00:00:00	2024-11-08T10:00:00	4	Temperatura máxima	21.2
36795	7	Sololá	701	Sololá	1	Sololá	7	Julio	2023-07-22T00:00:00	2024-11-08T10:00:00	3	Temperatura mínima	20.2
36796	7	Sololá	701	Sololá	1	Sololá	7	Julio	2023-07-22T00:00:00	2024-11-08T10:00:00	5	Humedad	71
36797	7	Sololá	701	Sololá	1	Sololá	7	Julio	2023-07-22T00:00:00	2024-11-08T10:00:00	6	Velocidad del viento	3.2
36798	7	Sololá	701	Sololá	1	Sololá	7	Julio	2023-07-22T00:00:00	2024-11-08T10:00:00	7	Dirección del viento	3.22
36799	7	Sololá	701	Sololá	1	Sololá	7	Julio	2023-07-22T00:00:00	2024-11-08T10:00:00	1	Precipitación	0
36800	7	Sololá	701	Sololá	1	Sololá	7	Julio	2023-07-22T00:00:00	2024-11-08T10:00:00	8	Radiación solar	680
36801	7	Sololá	701	Sololá	1	Sololá	7	Julio	2023-07-22T00:00:00	2024-11-08T11:00:00	2	Temperatura media	21.8
36802	7	Sololá	701	Sololá	1	Sololá	7	Julio	2023-07-22T00:00:00	2024-11-08T11:00:00	4	Temperatura máxima	22.6
36803	7	Sololá	701	Sololá	1	Sololá	7	Julio	2023-07-22T00:00:00	2024-11-08T11:00:00	3	Temperatura mínima	21.2
36804	7	Sololá	701	Sololá	1	Sololá	7	Julio	2023-07-22T00:00:00	2024-11-08T11:00:00	5	Humedad	67
36805	7	Sololá	701	Sololá	1	Sololá	7	Julio	2023-07-22T00:00:00	2024-11-08T11:00:00	6	Velocidad del viento	4.8
36806	7	Sololá	701	Sololá	1	Sololá	7	Julio	2023-07-22T00:00:00	2024-11-08T11:00:00	7	Dirección del viento	4.83
36807	7	Sololá	701	Sololá	1	Sololá	7	Julio	2023-07-22T00:00:00	2024-11-08T11:00:00	1	Precipitación	0
36808	7	Sololá	701	Sololá	1	Sololá	7	Julio	2023-07-22T00:00:00	2024-11-08T11:00:00	8	Radiación solar	844
36809	7	Sololá	701	Sololá	1	Sololá	7	Julio	2023-07-22T00:00:00	2024-11-08T12:00:00	2	Temperatura media	20.6
36810	7	Sololá	701	Sololá	1	Sololá	7	Julio	2023-07-22T00:00:00	2024-11-08T12:00:00	4	Temperatura máxima	22
36811	7	Sololá	701	Sololá	1	Sololá	7	Julio	2023-07-22T00:00:00	2024-11-08T12:00:00	3	Temperatura mínima	20.6
36812	7	Sololá	701	Sololá	1	Sololá	7	Julio	2023-07-22T00:00:00	2024-11-08T12:00:00	5	Humedad	78
36813	7	Sololá	701	Sololá	1	Sololá	7	Julio	2023-07-22T00:00:00	2024-11-08T12:00:00	6	Velocidad del viento	4.8
36814	7	Sololá	701	Sololá	1	Sololá	7	Julio	2023-07-22T00:00:00	2024-11-08T12:00:00	7	Dirección del viento	4.83
36815	7	Sololá	701	Sololá	1	Sololá	7	Julio	2023-07-22T00:00:00	2024-11-08T12:00:00	1	Precipitación	0
36816	7	Sololá	701	Sololá	1	Sololá	7	Julio	2023-07-22T00:00:00	2024-11-08T12:00:00	8	Radiación solar	945
36817	7	Sololá	701	Sololá	1	Sololá	7	Julio	2023-07-22T00:00:00	2024-11-08T13:00:00	2	Temperatura media	17.5
36818	7	Sololá	701	Sololá	1	Sololá	7	Julio	2023-07-22T00:00:00	2024-11-08T13:00:00	4	Temperatura máxima	20.6
36819	7	Sololá	701	Sololá	1	Sololá	7	Julio	2023-07-22T00:00:00	2024-11-08T13:00:00	3	Temperatura mínima	17.5
36820	7	Sololá	701	Sololá	1	Sololá	7	Julio	2023-07-22T00:00:00	2024-11-08T13:00:00	5	Humedad	88
36821	7	Sololá	701	Sololá	1	Sololá	7	Julio	2023-07-22T00:00:00	2024-11-08T13:00:00	6	Velocidad del viento	4.8
36822	7	Sololá	701	Sololá	1	Sololá	7	Julio	2023-07-22T00:00:00	2024-11-08T13:00:00	7	Dirección del viento	4.83
36823	7	Sololá	701	Sololá	1	Sololá	7	Julio	2023-07-22T00:00:00	2024-11-08T13:00:00	1	Precipitación	0.4
36824	7	Sololá	701	Sololá	1	Sololá	7	Julio	2023-07-22T00:00:00	2024-11-08T13:00:00	8	Radiación solar	783
36825	7	Sololá	701	Sololá	1	Sololá	7	Julio	2023-07-22T00:00:00	2024-11-08T14:00:00	2	Temperatura media	16.3
36826	7	Sololá	701	Sololá	1	Sololá	7	Julio	2023-07-22T00:00:00	2024-11-08T14:00:00	4	Temperatura máxima	17.5
36827	7	Sololá	701	Sololá	1	Sololá	7	Julio	2023-07-22T00:00:00	2024-11-08T14:00:00	3	Temperatura mínima	16
36828	7	Sololá	701	Sololá	1	Sololá	7	Julio	2023-07-22T00:00:00	2024-11-08T14:00:00	5	Humedad	89
36829	7	Sololá	701	Sololá	1	Sololá	7	Julio	2023-07-22T00:00:00	2024-11-08T14:00:00	6	Velocidad del viento	8
36830	7	Sololá	701	Sololá	1	Sololá	7	Julio	2023-07-22T00:00:00	2024-11-08T14:00:00	7	Dirección del viento	8.05
36831	7	Sololá	701	Sololá	1	Sololá	7	Julio	2023-07-22T00:00:00	2024-11-08T14:00:00	1	Precipitación	1.4
36832	7	Sololá	701	Sololá	1	Sololá	7	Julio	2023-07-22T00:00:00	2024-11-08T14:00:00	8	Radiación solar	565
36833	7	Sololá	701	Sololá	1	Sololá	7	Julio	2023-07-22T00:00:00	2024-11-08T15:00:00	2	Temperatura media	17.5
36834	7	Sololá	701	Sololá	1	Sololá	7	Julio	2023-07-22T00:00:00	2024-11-08T15:00:00	4	Temperatura máxima	17.5
36835	7	Sololá	701	Sololá	1	Sololá	7	Julio	2023-07-22T00:00:00	2024-11-08T15:00:00	3	Temperatura mínima	16.1
36836	7	Sololá	701	Sololá	1	Sololá	7	Julio	2023-07-22T00:00:00	2024-11-08T15:00:00	5	Humedad	85
36837	7	Sololá	701	Sololá	1	Sololá	7	Julio	2023-07-22T00:00:00	2024-11-08T15:00:00	6	Velocidad del viento	4.8
36838	7	Sololá	701	Sololá	1	Sololá	7	Julio	2023-07-22T00:00:00	2024-11-08T15:00:00	7	Dirección del viento	4.83
36839	7	Sololá	701	Sololá	1	Sololá	7	Julio	2023-07-22T00:00:00	2024-11-08T15:00:00	1	Precipitación	0.2
36840	7	Sololá	701	Sololá	1	Sololá	7	Julio	2023-07-22T00:00:00	2024-11-08T15:00:00	8	Radiación solar	424
36841	7	Sololá	701	Sololá	1	Sololá	7	Julio	2023-07-22T00:00:00	2024-11-08T16:00:00	2	Temperatura media	16.7
36842	7	Sololá	701	Sololá	1	Sololá	7	Julio	2023-07-22T00:00:00	2024-11-08T16:00:00	4	Temperatura máxima	17.8
36843	7	Sololá	701	Sololá	1	Sololá	7	Julio	2023-07-22T00:00:00	2024-11-08T16:00:00	3	Temperatura mínima	16.6
36844	7	Sololá	701	Sololá	1	Sololá	7	Julio	2023-07-22T00:00:00	2024-11-08T16:00:00	5	Humedad	89
36845	7	Sololá	701	Sololá	1	Sololá	7	Julio	2023-07-22T00:00:00	2024-11-08T16:00:00	6	Velocidad del viento	1.6
36846	7	Sololá	701	Sololá	1	Sololá	7	Julio	2023-07-22T00:00:00	2024-11-08T16:00:00	7	Dirección del viento	1.61
36847	7	Sololá	701	Sololá	1	Sololá	7	Julio	2023-07-22T00:00:00	2024-11-08T16:00:00	1	Precipitación	0
36848	7	Sololá	701	Sololá	1	Sololá	7	Julio	2023-07-22T00:00:00	2024-11-08T16:00:00	8	Radiación solar	112
36849	7	Sololá	701	Sololá	1	Sololá	7	Julio	2023-07-22T00:00:00	2024-11-08T17:00:00	2	Temperatura media	16.8
36850	7	Sololá	701	Sololá	1	Sololá	7	Julio	2023-07-22T00:00:00	2024-11-08T17:00:00	4	Temperatura máxima	16.9
36851	7	Sololá	701	Sololá	1	Sololá	7	Julio	2023-07-22T00:00:00	2024-11-08T17:00:00	3	Temperatura mínima	16.6
36852	7	Sololá	701	Sololá	1	Sololá	7	Julio	2023-07-22T00:00:00	2024-11-08T17:00:00	5	Humedad	88
36853	7	Sololá	701	Sololá	1	Sololá	7	Julio	2023-07-22T00:00:00	2024-11-08T17:00:00	6	Velocidad del viento	3.2
36854	7	Sololá	701	Sololá	1	Sololá	7	Julio	2023-07-22T00:00:00	2024-11-08T17:00:00	7	Dirección del viento	3.22
36855	7	Sololá	701	Sololá	1	Sololá	7	Julio	2023-07-22T00:00:00	2024-11-08T17:00:00	1	Precipitación	0
36856	7	Sololá	701	Sololá	1	Sololá	7	Julio	2023-07-22T00:00:00	2024-11-08T17:00:00	8	Radiación solar	87
36857	7	Sololá	701	Sololá	1	Sololá	7	Julio	2023-07-22T00:00:00	2024-11-08T18:00:00	2	Temperatura media	16.6
36858	7	Sololá	701	Sololá	1	Sololá	7	Julio	2023-07-22T00:00:00	2024-11-08T18:00:00	4	Temperatura máxima	16.6
36859	7	Sololá	701	Sololá	1	Sololá	7	Julio	2023-07-22T00:00:00	2024-11-08T18:00:00	3	Temperatura mínima	16.6
36860	7	Sololá	701	Sololá	1	Sololá	7	Julio	2023-07-22T00:00:00	2024-11-08T18:00:00	5	Humedad	91
36861	7	Sololá	701	Sololá	1	Sololá	7	Julio	2023-07-22T00:00:00	2024-11-08T18:00:00	6	Velocidad del viento	6.4
36862	7	Sololá	701	Sololá	1	Sololá	7	Julio	2023-07-22T00:00:00	2024-11-08T18:00:00	7	Dirección del viento	0.11
36863	7	Sololá	701	Sololá	1	Sololá	7	Julio	2023-07-22T00:00:00	2024-11-08T18:00:00	1	Precipitación	0
36864	7	Sololá	701	Sololá	1	Sololá	7	Julio	2023-07-22T00:00:00	2024-11-08T18:00:00	8	Radiación solar	42
36865	7	Sololá	701	Sololá	1	Sololá	7	Julio	2023-07-22T00:00:00	2024-11-08T19:00:00	2	Temperatura media	16.5
36866	7	Sololá	701	Sololá	1	Sololá	7	Julio	2023-07-22T00:00:00	2024-11-08T19:00:00	4	Temperatura máxima	16.9
36867	7	Sololá	701	Sololá	1	Sololá	7	Julio	2023-07-22T00:00:00	2024-11-08T19:00:00	3	Temperatura mínima	16.4
36868	7	Sololá	701	Sololá	1	Sololá	7	Julio	2023-07-22T00:00:00	2024-11-08T19:00:00	5	Humedad	89
36869	7	Sololá	701	Sololá	1	Sololá	7	Julio	2023-07-22T00:00:00	2024-11-08T19:00:00	6	Velocidad del viento	3.2
36870	7	Sololá	701	Sololá	1	Sololá	7	Julio	2023-07-22T00:00:00	2024-11-08T19:00:00	7	Dirección del viento	3.22
36871	7	Sololá	701	Sololá	1	Sololá	7	Julio	2023-07-22T00:00:00	2024-11-08T19:00:00	1	Precipitación	0
36872	7	Sololá	701	Sololá	1	Sololá	7	Julio	2023-07-22T00:00:00	2024-11-08T19:00:00	8	Radiación solar	0
36873	7	Sololá	701	Sololá	1	Sololá	7	Julio	2023-07-22T00:00:00	2024-11-08T20:00:00	2	Temperatura media	17.1
36874	7	Sololá	701	Sololá	1	Sololá	7	Julio	2023-07-22T00:00:00	2024-11-08T20:00:00	4	Temperatura máxima	17.2
36875	7	Sololá	701	Sololá	1	Sololá	7	Julio	2023-07-22T00:00:00	2024-11-08T20:00:00	3	Temperatura mínima	16.4
36876	7	Sololá	701	Sololá	1	Sololá	7	Julio	2023-07-22T00:00:00	2024-11-08T20:00:00	5	Humedad	82
36877	7	Sololá	701	Sololá	1	Sololá	7	Julio	2023-07-22T00:00:00	2024-11-08T20:00:00	6	Velocidad del viento	4.8
36878	7	Sololá	701	Sololá	1	Sololá	7	Julio	2023-07-22T00:00:00	2024-11-08T20:00:00	7	Dirección del viento	4.83
36879	7	Sololá	701	Sololá	1	Sololá	7	Julio	2023-07-22T00:00:00	2024-11-08T20:00:00	1	Precipitación	0
36880	7	Sololá	701	Sololá	1	Sololá	7	Julio	2023-07-22T00:00:00	2024-11-08T20:00:00	8	Radiación solar	0
36881	7	Sololá	701	Sololá	1	Sololá	7	Julio	2023-07-22T00:00:00	2024-11-08T21:00:00	2	Temperatura media	15.7
36882	7	Sololá	701	Sololá	1	Sololá	7	Julio	2023-07-22T00:00:00	2024-11-08T21:00:00	4	Temperatura máxima	17.2
36883	7	Sololá	701	Sololá	1	Sololá	7	Julio	2023-07-22T00:00:00	2024-11-08T21:00:00	3	Temperatura mínima	15.7
36884	7	Sololá	701	Sololá	1	Sololá	7	Julio	2023-07-22T00:00:00	2024-11-08T21:00:00	5	Humedad	86
36885	7	Sololá	701	Sololá	1	Sololá	7	Julio	2023-07-22T00:00:00	2024-11-08T21:00:00	6	Velocidad del viento	4.8
36886	7	Sololá	701	Sololá	1	Sololá	7	Julio	2023-07-22T00:00:00	2024-11-08T21:00:00	7	Dirección del viento	4.83
36887	7	Sololá	701	Sololá	1	Sololá	7	Julio	2023-07-22T00:00:00	2024-11-08T21:00:00	1	Precipitación	0
36888	7	Sololá	701	Sololá	1	Sololá	7	Julio	2023-07-22T00:00:00	2024-11-08T21:00:00	8	Radiación solar	0
36889	7	Sololá	701	Sololá	1	Sololá	7	Julio	2023-07-22T00:00:00	2024-11-08T22:00:00	2	Temperatura media	14.8
36890	7	Sololá	701	Sololá	1	Sololá	7	Julio	2023-07-22T00:00:00	2024-11-08T22:00:00	4	Temperatura máxima	16.4
36891	7	Sololá	701	Sololá	1	Sololá	7	Julio	2023-07-22T00:00:00	2024-11-08T22:00:00	3	Temperatura mínima	14.8
36892	7	Sololá	701	Sololá	1	Sololá	7	Julio	2023-07-22T00:00:00	2024-11-08T22:00:00	5	Humedad	89
36893	7	Sololá	701	Sololá	1	Sololá	7	Julio	2023-07-22T00:00:00	2024-11-08T22:00:00	6	Velocidad del viento	6.4
36894	7	Sololá	701	Sololá	1	Sololá	7	Julio	2023-07-22T00:00:00	2024-11-08T22:00:00	7	Dirección del viento	6.44
36895	7	Sololá	701	Sololá	1	Sololá	7	Julio	2023-07-22T00:00:00	2024-11-08T22:00:00	1	Precipitación	0
36896	7	Sololá	701	Sololá	1	Sololá	7	Julio	2023-07-22T00:00:00	2024-11-08T22:00:00	8	Radiación solar	0
36897	7	Sololá	701	Sololá	1	Sololá	7	Julio	2023-07-22T00:00:00	2024-11-08T23:00:00	2	Temperatura media	14.7
36898	7	Sololá	701	Sololá	1	Sololá	7	Julio	2023-07-22T00:00:00	2024-11-08T23:00:00	4	Temperatura máxima	15
36899	7	Sololá	701	Sololá	1	Sololá	7	Julio	2023-07-22T00:00:00	2024-11-08T23:00:00	3	Temperatura mínima	14.7
36900	7	Sololá	701	Sololá	1	Sololá	7	Julio	2023-07-22T00:00:00	2024-11-08T23:00:00	5	Humedad	88
36901	7	Sololá	701	Sololá	1	Sololá	7	Julio	2023-07-22T00:00:00	2024-11-08T23:00:00	6	Velocidad del viento	6.4
36902	7	Sololá	701	Sololá	1	Sololá	7	Julio	2023-07-22T00:00:00	2024-11-08T23:00:00	7	Dirección del viento	6.44
36903	7	Sololá	701	Sololá	1	Sololá	7	Julio	2023-07-22T00:00:00	2024-11-08T23:00:00	1	Precipitación	0
36904	7	Sololá	701	Sololá	1	Sololá	7	Julio	2023-07-22T00:00:00	2024-11-08T23:00:00	8	Radiación solar	0
36905	7	Sololá	701	Sololá	1	Sololá	7	Julio	2023-07-23T00:00:00	2024-11-08T00:00:00	2	Temperatura media	14.7
36906	7	Sololá	701	Sololá	1	Sololá	7	Julio	2023-07-23T00:00:00	2024-11-08T00:00:00	4	Temperatura máxima	14.8
36907	7	Sololá	701	Sololá	1	Sololá	7	Julio	2023-07-23T00:00:00	2024-11-08T00:00:00	3	Temperatura mínima	14.6
36908	7	Sololá	701	Sololá	1	Sololá	7	Julio	2023-07-23T00:00:00	2024-11-08T00:00:00	5	Humedad	87
36909	7	Sololá	701	Sololá	1	Sololá	7	Julio	2023-07-23T00:00:00	2024-11-08T00:00:00	6	Velocidad del viento	6.4
36910	7	Sololá	701	Sololá	1	Sololá	7	Julio	2023-07-23T00:00:00	2024-11-08T00:00:00	7	Dirección del viento	6.44
36911	7	Sololá	701	Sololá	1	Sololá	7	Julio	2023-07-23T00:00:00	2024-11-08T00:00:00	1	Precipitación	0
36912	7	Sololá	701	Sololá	1	Sololá	7	Julio	2023-07-23T00:00:00	2024-11-08T00:00:00	8	Radiación solar	0
36913	7	Sololá	701	Sololá	1	Sololá	7	Julio	2023-07-23T00:00:00	2024-11-08T01:00:00	2	Temperatura media	14.7
36914	7	Sololá	701	Sololá	1	Sololá	7	Julio	2023-07-23T00:00:00	2024-11-08T01:00:00	4	Temperatura máxima	15.9
36915	7	Sololá	701	Sololá	1	Sololá	7	Julio	2023-07-23T00:00:00	2024-11-08T01:00:00	3	Temperatura mínima	14.2
36916	7	Sololá	701	Sololá	1	Sololá	7	Julio	2023-07-23T00:00:00	2024-11-08T01:00:00	5	Humedad	86
36917	7	Sololá	701	Sololá	1	Sololá	7	Julio	2023-07-23T00:00:00	2024-11-08T01:00:00	6	Velocidad del viento	4.8
36918	7	Sololá	701	Sololá	1	Sololá	7	Julio	2023-07-23T00:00:00	2024-11-08T01:00:00	7	Dirección del viento	4.83
36919	7	Sololá	701	Sololá	1	Sololá	7	Julio	2023-07-23T00:00:00	2024-11-08T01:00:00	1	Precipitación	0
36920	7	Sololá	701	Sololá	1	Sololá	7	Julio	2023-07-23T00:00:00	2024-11-08T01:00:00	8	Radiación solar	0
36921	7	Sololá	701	Sololá	1	Sololá	7	Julio	2023-07-23T00:00:00	2024-11-08T02:00:00	2	Temperatura media	14.1
36922	7	Sololá	701	Sololá	1	Sololá	7	Julio	2023-07-23T00:00:00	2024-11-08T02:00:00	4	Temperatura máxima	14.6
36923	7	Sololá	701	Sololá	1	Sololá	7	Julio	2023-07-23T00:00:00	2024-11-08T02:00:00	3	Temperatura mínima	14
36924	7	Sololá	701	Sololá	1	Sololá	7	Julio	2023-07-23T00:00:00	2024-11-08T02:00:00	5	Humedad	88
36925	7	Sololá	701	Sololá	1	Sololá	7	Julio	2023-07-23T00:00:00	2024-11-08T02:00:00	6	Velocidad del viento	8
36926	7	Sololá	701	Sololá	1	Sololá	7	Julio	2023-07-23T00:00:00	2024-11-08T02:00:00	7	Dirección del viento	8.05
36927	7	Sololá	701	Sololá	1	Sololá	7	Julio	2023-07-23T00:00:00	2024-11-08T02:00:00	1	Precipitación	0
36928	7	Sololá	701	Sololá	1	Sololá	7	Julio	2023-07-23T00:00:00	2024-11-08T02:00:00	8	Radiación solar	0
36929	7	Sololá	701	Sololá	1	Sololá	7	Julio	2023-07-23T00:00:00	2024-11-08T03:00:00	2	Temperatura media	15.6
36930	7	Sololá	701	Sololá	1	Sololá	7	Julio	2023-07-23T00:00:00	2024-11-08T03:00:00	4	Temperatura máxima	16.2
36931	7	Sololá	701	Sololá	1	Sololá	7	Julio	2023-07-23T00:00:00	2024-11-08T03:00:00	3	Temperatura mínima	14.1
36932	7	Sololá	701	Sololá	1	Sololá	7	Julio	2023-07-23T00:00:00	2024-11-08T03:00:00	5	Humedad	82
36933	7	Sololá	701	Sololá	1	Sololá	7	Julio	2023-07-23T00:00:00	2024-11-08T03:00:00	6	Velocidad del viento	6.4
36934	7	Sololá	701	Sololá	1	Sololá	7	Julio	2023-07-23T00:00:00	2024-11-08T03:00:00	7	Dirección del viento	6.44
36935	7	Sololá	701	Sololá	1	Sololá	7	Julio	2023-07-23T00:00:00	2024-11-08T03:00:00	1	Precipitación	0
36936	7	Sololá	701	Sololá	1	Sololá	7	Julio	2023-07-23T00:00:00	2024-11-08T03:00:00	8	Radiación solar	0
36937	7	Sololá	701	Sololá	1	Sololá	7	Julio	2023-07-23T00:00:00	2024-11-08T04:00:00	2	Temperatura media	14.2
36938	7	Sololá	701	Sololá	1	Sololá	7	Julio	2023-07-23T00:00:00	2024-11-08T04:00:00	4	Temperatura máxima	15.8
36939	7	Sololá	701	Sololá	1	Sololá	7	Julio	2023-07-23T00:00:00	2024-11-08T04:00:00	3	Temperatura mínima	14
36940	7	Sololá	701	Sololá	1	Sololá	7	Julio	2023-07-23T00:00:00	2024-11-08T04:00:00	5	Humedad	89
36941	7	Sololá	701	Sololá	1	Sololá	7	Julio	2023-07-23T00:00:00	2024-11-08T04:00:00	6	Velocidad del viento	1.6
36942	7	Sololá	701	Sololá	1	Sololá	7	Julio	2023-07-23T00:00:00	2024-11-08T04:00:00	7	Dirección del viento	1.61
36943	7	Sololá	701	Sololá	1	Sololá	7	Julio	2023-07-23T00:00:00	2024-11-08T04:00:00	1	Precipitación	0
36944	7	Sololá	701	Sololá	1	Sololá	7	Julio	2023-07-23T00:00:00	2024-11-08T04:00:00	8	Radiación solar	0
36945	7	Sololá	701	Sololá	1	Sololá	7	Julio	2023-07-23T00:00:00	2024-11-08T05:00:00	2	Temperatura media	14.1
36946	7	Sololá	701	Sololá	1	Sololá	7	Julio	2023-07-23T00:00:00	2024-11-08T05:00:00	4	Temperatura máxima	14.4
36947	7	Sololá	701	Sololá	1	Sololá	7	Julio	2023-07-23T00:00:00	2024-11-08T05:00:00	3	Temperatura mínima	14
36948	7	Sololá	701	Sololá	1	Sololá	7	Julio	2023-07-23T00:00:00	2024-11-08T05:00:00	5	Humedad	88
36949	7	Sololá	701	Sololá	1	Sololá	7	Julio	2023-07-23T00:00:00	2024-11-08T05:00:00	6	Velocidad del viento	1.6
36950	7	Sololá	701	Sololá	1	Sololá	7	Julio	2023-07-23T00:00:00	2024-11-08T05:00:00	7	Dirección del viento	1.61
36951	7	Sololá	701	Sololá	1	Sololá	7	Julio	2023-07-23T00:00:00	2024-11-08T05:00:00	1	Precipitación	0
36952	7	Sololá	701	Sololá	1	Sololá	7	Julio	2023-07-23T00:00:00	2024-11-08T05:00:00	8	Radiación solar	0
36953	7	Sololá	701	Sololá	1	Sololá	7	Julio	2023-07-23T00:00:00	2024-11-08T06:00:00	2	Temperatura media	13.9
36954	7	Sololá	701	Sololá	1	Sololá	7	Julio	2023-07-23T00:00:00	2024-11-08T06:00:00	4	Temperatura máxima	14.8
36955	7	Sololá	701	Sololá	1	Sololá	7	Julio	2023-07-23T00:00:00	2024-11-08T06:00:00	3	Temperatura mínima	13.1
36956	7	Sololá	701	Sololá	1	Sololá	7	Julio	2023-07-23T00:00:00	2024-11-08T06:00:00	5	Humedad	89
36957	7	Sololá	701	Sololá	1	Sololá	7	Julio	2023-07-23T00:00:00	2024-11-08T06:00:00	6	Velocidad del viento	3.2
36958	7	Sololá	701	Sololá	1	Sololá	7	Julio	2023-07-23T00:00:00	2024-11-08T06:00:00	7	Dirección del viento	3.22
36959	7	Sololá	701	Sololá	1	Sololá	7	Julio	2023-07-23T00:00:00	2024-11-08T06:00:00	1	Precipitación	0
36960	7	Sololá	701	Sololá	1	Sololá	7	Julio	2023-07-23T00:00:00	2024-11-08T06:00:00	8	Radiación solar	3
36961	7	Sololá	701	Sololá	1	Sololá	7	Julio	2023-07-23T00:00:00	2024-11-08T07:00:00	2	Temperatura media	16.8
36962	7	Sololá	701	Sololá	1	Sololá	7	Julio	2023-07-23T00:00:00	2024-11-08T07:00:00	4	Temperatura máxima	16.8
36963	7	Sololá	701	Sololá	1	Sololá	7	Julio	2023-07-23T00:00:00	2024-11-08T07:00:00	3	Temperatura mínima	13.8
36964	7	Sololá	701	Sololá	1	Sololá	7	Julio	2023-07-23T00:00:00	2024-11-08T07:00:00	5	Humedad	82
36965	7	Sololá	701	Sololá	1	Sololá	7	Julio	2023-07-23T00:00:00	2024-11-08T07:00:00	6	Velocidad del viento	6.4
36966	7	Sololá	701	Sololá	1	Sololá	7	Julio	2023-07-23T00:00:00	2024-11-08T07:00:00	7	Dirección del viento	6.44
36967	7	Sololá	701	Sololá	1	Sololá	7	Julio	2023-07-23T00:00:00	2024-11-08T07:00:00	1	Precipitación	0
36968	7	Sololá	701	Sololá	1	Sololá	7	Julio	2023-07-23T00:00:00	2024-11-08T07:00:00	8	Radiación solar	35
36969	7	Sololá	701	Sololá	1	Sololá	7	Julio	2023-07-23T00:00:00	2024-11-08T08:00:00	2	Temperatura media	18.8
36970	7	Sololá	701	Sololá	1	Sololá	7	Julio	2023-07-23T00:00:00	2024-11-08T08:00:00	4	Temperatura máxima	18.9
36971	7	Sololá	701	Sololá	1	Sololá	7	Julio	2023-07-23T00:00:00	2024-11-08T08:00:00	3	Temperatura mínima	16.8
36972	7	Sololá	701	Sololá	1	Sololá	7	Julio	2023-07-23T00:00:00	2024-11-08T08:00:00	5	Humedad	73
36973	7	Sololá	701	Sololá	1	Sololá	7	Julio	2023-07-23T00:00:00	2024-11-08T08:00:00	6	Velocidad del viento	6.4
36974	7	Sololá	701	Sololá	1	Sololá	7	Julio	2023-07-23T00:00:00	2024-11-08T08:00:00	7	Dirección del viento	6.44
36975	7	Sololá	701	Sololá	1	Sololá	7	Julio	2023-07-23T00:00:00	2024-11-08T08:00:00	1	Precipitación	0
36976	7	Sololá	701	Sololá	1	Sololá	7	Julio	2023-07-23T00:00:00	2024-11-08T08:00:00	8	Radiación solar	113
36977	7	Sololá	701	Sololá	1	Sololá	7	Julio	2023-07-23T00:00:00	2024-11-08T09:00:00	2	Temperatura media	20.3
36978	7	Sololá	701	Sololá	1	Sololá	7	Julio	2023-07-23T00:00:00	2024-11-08T09:00:00	4	Temperatura máxima	20.4
36979	7	Sololá	701	Sololá	1	Sololá	7	Julio	2023-07-23T00:00:00	2024-11-08T09:00:00	3	Temperatura mínima	18.7
36980	7	Sololá	701	Sololá	1	Sololá	7	Julio	2023-07-23T00:00:00	2024-11-08T09:00:00	5	Humedad	69
36981	7	Sololá	701	Sololá	1	Sololá	7	Julio	2023-07-23T00:00:00	2024-11-08T09:00:00	6	Velocidad del viento	6.4
36982	7	Sololá	701	Sololá	1	Sololá	7	Julio	2023-07-23T00:00:00	2024-11-08T09:00:00	7	Dirección del viento	6.44
36983	7	Sololá	701	Sololá	1	Sololá	7	Julio	2023-07-23T00:00:00	2024-11-08T09:00:00	1	Precipitación	0
36984	7	Sololá	701	Sololá	1	Sololá	7	Julio	2023-07-23T00:00:00	2024-11-08T09:00:00	8	Radiación solar	311
36985	7	Sololá	701	Sololá	1	Sololá	7	Julio	2023-07-23T00:00:00	2024-11-08T10:00:00	2	Temperatura media	21.3
36986	7	Sololá	701	Sololá	1	Sololá	7	Julio	2023-07-23T00:00:00	2024-11-08T10:00:00	4	Temperatura máxima	21.9
36987	7	Sololá	701	Sololá	1	Sololá	7	Julio	2023-07-23T00:00:00	2024-11-08T10:00:00	3	Temperatura mínima	20.1
36988	7	Sololá	701	Sololá	1	Sololá	7	Julio	2023-07-23T00:00:00	2024-11-08T10:00:00	5	Humedad	69
36989	7	Sololá	701	Sololá	1	Sololá	7	Julio	2023-07-23T00:00:00	2024-11-08T10:00:00	6	Velocidad del viento	6.4
36990	7	Sololá	701	Sololá	1	Sololá	7	Julio	2023-07-23T00:00:00	2024-11-08T10:00:00	7	Dirección del viento	6.44
36991	7	Sololá	701	Sololá	1	Sololá	7	Julio	2023-07-23T00:00:00	2024-11-08T10:00:00	1	Precipitación	0
36992	7	Sololá	701	Sololá	1	Sololá	7	Julio	2023-07-23T00:00:00	2024-11-08T10:00:00	8	Radiación solar	541
36993	7	Sololá	701	Sololá	1	Sololá	7	Julio	2023-07-23T00:00:00	2024-11-08T11:00:00	2	Temperatura media	20.9
36994	7	Sololá	701	Sololá	1	Sololá	7	Julio	2023-07-23T00:00:00	2024-11-08T11:00:00	4	Temperatura máxima	22.2
36995	7	Sololá	701	Sololá	1	Sololá	7	Julio	2023-07-23T00:00:00	2024-11-08T11:00:00	3	Temperatura mínima	20.9
36996	7	Sololá	701	Sololá	1	Sololá	7	Julio	2023-07-23T00:00:00	2024-11-08T11:00:00	5	Humedad	74
36997	7	Sololá	701	Sololá	1	Sololá	7	Julio	2023-07-23T00:00:00	2024-11-08T11:00:00	6	Velocidad del viento	4.8
36998	7	Sololá	701	Sololá	1	Sololá	7	Julio	2023-07-23T00:00:00	2024-11-08T11:00:00	7	Dirección del viento	4.83
36999	7	Sololá	701	Sololá	1	Sololá	7	Julio	2023-07-23T00:00:00	2024-11-08T11:00:00	1	Precipitación	0
37000	7	Sololá	701	Sololá	1	Sololá	7	Julio	2023-07-23T00:00:00	2024-11-08T11:00:00	8	Radiación solar	860
37001	7	Sololá	701	Sololá	1	Sololá	7	Julio	2023-07-23T00:00:00	2024-11-08T12:00:00	2	Temperatura media	19.1
37002	7	Sololá	701	Sololá	1	Sololá	7	Julio	2023-07-23T00:00:00	2024-11-08T12:00:00	4	Temperatura máxima	20.9
37003	7	Sololá	701	Sololá	1	Sololá	7	Julio	2023-07-23T00:00:00	2024-11-08T12:00:00	3	Temperatura mínima	19.1
37004	7	Sololá	701	Sololá	1	Sololá	7	Julio	2023-07-23T00:00:00	2024-11-08T12:00:00	5	Humedad	82
37005	7	Sololá	701	Sololá	1	Sololá	7	Julio	2023-07-23T00:00:00	2024-11-08T12:00:00	6	Velocidad del viento	1.6
37006	7	Sololá	701	Sololá	1	Sololá	7	Julio	2023-07-23T00:00:00	2024-11-08T12:00:00	7	Dirección del viento	1.61
37007	7	Sololá	701	Sololá	1	Sololá	7	Julio	2023-07-23T00:00:00	2024-11-08T12:00:00	1	Precipitación	0.2
37008	7	Sololá	701	Sololá	1	Sololá	7	Julio	2023-07-23T00:00:00	2024-11-08T12:00:00	8	Radiación solar	988
37009	7	Sololá	701	Sololá	1	Sololá	7	Julio	2023-07-23T00:00:00	2024-11-08T13:00:00	2	Temperatura media	19.2
37010	7	Sololá	701	Sololá	1	Sololá	7	Julio	2023-07-23T00:00:00	2024-11-08T13:00:00	4	Temperatura máxima	19.6
37011	7	Sololá	701	Sololá	1	Sololá	7	Julio	2023-07-23T00:00:00	2024-11-08T13:00:00	3	Temperatura mínima	18.3
37012	7	Sololá	701	Sololá	1	Sololá	7	Julio	2023-07-23T00:00:00	2024-11-08T13:00:00	5	Humedad	89
37013	7	Sololá	701	Sololá	1	Sololá	7	Julio	2023-07-23T00:00:00	2024-11-08T13:00:00	6	Velocidad del viento	3.2
37014	7	Sololá	701	Sololá	1	Sololá	7	Julio	2023-07-23T00:00:00	2024-11-08T13:00:00	7	Dirección del viento	3.22
37015	7	Sololá	701	Sololá	1	Sololá	7	Julio	2023-07-23T00:00:00	2024-11-08T13:00:00	1	Precipitación	0.6
37016	7	Sololá	701	Sololá	1	Sololá	7	Julio	2023-07-23T00:00:00	2024-11-08T13:00:00	8	Radiación solar	666
37017	7	Sololá	701	Sololá	1	Sololá	7	Julio	2023-07-23T00:00:00	2024-11-08T14:00:00	2	Temperatura media	18.2
37018	7	Sololá	701	Sololá	1	Sololá	7	Julio	2023-07-23T00:00:00	2024-11-08T14:00:00	4	Temperatura máxima	19.2
37019	7	Sololá	701	Sololá	1	Sololá	7	Julio	2023-07-23T00:00:00	2024-11-08T14:00:00	3	Temperatura mínima	18
37020	7	Sololá	701	Sololá	1	Sololá	7	Julio	2023-07-23T00:00:00	2024-11-08T14:00:00	5	Humedad	91
37021	7	Sololá	701	Sololá	1	Sololá	7	Julio	2023-07-23T00:00:00	2024-11-08T14:00:00	6	Velocidad del viento	1.6
37022	7	Sololá	701	Sololá	1	Sololá	7	Julio	2023-07-23T00:00:00	2024-11-08T14:00:00	7	Dirección del viento	1.61
37023	7	Sololá	701	Sololá	1	Sololá	7	Julio	2023-07-23T00:00:00	2024-11-08T14:00:00	1	Precipitación	0
37024	7	Sololá	701	Sololá	1	Sololá	7	Julio	2023-07-23T00:00:00	2024-11-08T14:00:00	8	Radiación solar	459
37025	7	Sololá	701	Sololá	1	Sololá	7	Julio	2023-07-23T00:00:00	2024-11-08T15:00:00	2	Temperatura media	17.3
37026	7	Sololá	701	Sololá	1	Sololá	7	Julio	2023-07-23T00:00:00	2024-11-08T15:00:00	4	Temperatura máxima	18.2
37027	7	Sololá	701	Sololá	1	Sololá	7	Julio	2023-07-23T00:00:00	2024-11-08T15:00:00	3	Temperatura mínima	17.3
37028	7	Sololá	701	Sololá	1	Sololá	7	Julio	2023-07-23T00:00:00	2024-11-08T15:00:00	5	Humedad	95
37029	7	Sololá	701	Sololá	1	Sololá	7	Julio	2023-07-23T00:00:00	2024-11-08T15:00:00	6	Velocidad del viento	3.2
37030	7	Sololá	701	Sololá	1	Sololá	7	Julio	2023-07-23T00:00:00	2024-11-08T15:00:00	7	Dirección del viento	3.22
37031	7	Sololá	701	Sololá	1	Sololá	7	Julio	2023-07-23T00:00:00	2024-11-08T15:00:00	1	Precipitación	0
37032	7	Sololá	701	Sololá	1	Sololá	7	Julio	2023-07-23T00:00:00	2024-11-08T15:00:00	8	Radiación solar	530
37033	7	Sololá	701	Sololá	1	Sololá	7	Julio	2023-07-23T00:00:00	2024-11-08T16:00:00	2	Temperatura media	16.4
37034	7	Sololá	701	Sololá	1	Sololá	7	Julio	2023-07-23T00:00:00	2024-11-08T16:00:00	4	Temperatura máxima	17.3
37035	7	Sololá	701	Sololá	1	Sololá	7	Julio	2023-07-23T00:00:00	2024-11-08T16:00:00	3	Temperatura mínima	16.3
37036	7	Sololá	701	Sololá	1	Sololá	7	Julio	2023-07-23T00:00:00	2024-11-08T16:00:00	5	Humedad	96
37037	7	Sololá	701	Sololá	1	Sololá	7	Julio	2023-07-23T00:00:00	2024-11-08T16:00:00	6	Velocidad del viento	1.6
37038	7	Sololá	701	Sololá	1	Sololá	7	Julio	2023-07-23T00:00:00	2024-11-08T16:00:00	7	Dirección del viento	1.61
37039	7	Sololá	701	Sololá	1	Sololá	7	Julio	2023-07-23T00:00:00	2024-11-08T16:00:00	1	Precipitación	6.8
37040	7	Sololá	701	Sololá	1	Sololá	7	Julio	2023-07-23T00:00:00	2024-11-08T16:00:00	8	Radiación solar	70
37041	7	Sololá	701	Sololá	1	Sololá	7	Julio	2023-07-23T00:00:00	2024-11-08T17:00:00	2	Temperatura media	16.4
37042	7	Sololá	701	Sololá	1	Sololá	7	Julio	2023-07-23T00:00:00	2024-11-08T17:00:00	4	Temperatura máxima	16.5
37043	7	Sololá	701	Sololá	1	Sololá	7	Julio	2023-07-23T00:00:00	2024-11-08T17:00:00	3	Temperatura mínima	16
37044	7	Sololá	701	Sololá	1	Sololá	7	Julio	2023-07-23T00:00:00	2024-11-08T17:00:00	5	Humedad	92
37045	7	Sololá	701	Sololá	1	Sololá	7	Julio	2023-07-23T00:00:00	2024-11-08T17:00:00	6	Velocidad del viento	4.8
37046	7	Sololá	701	Sololá	1	Sololá	7	Julio	2023-07-23T00:00:00	2024-11-08T17:00:00	7	Dirección del viento	4.83
37047	7	Sololá	701	Sololá	1	Sololá	7	Julio	2023-07-23T00:00:00	2024-11-08T17:00:00	1	Precipitación	0.6
37048	7	Sololá	701	Sololá	1	Sololá	7	Julio	2023-07-23T00:00:00	2024-11-08T17:00:00	8	Radiación solar	101
37049	7	Sololá	701	Sololá	1	Sololá	7	Julio	2023-07-23T00:00:00	2024-11-08T18:00:00	2	Temperatura media	16.7
37050	7	Sololá	701	Sololá	1	Sololá	7	Julio	2023-07-23T00:00:00	2024-11-08T18:00:00	4	Temperatura máxima	16.8
37051	7	Sololá	701	Sololá	1	Sololá	7	Julio	2023-07-23T00:00:00	2024-11-08T18:00:00	3	Temperatura mínima	16.4
37052	7	Sololá	701	Sololá	1	Sololá	7	Julio	2023-07-23T00:00:00	2024-11-08T18:00:00	5	Humedad	90
37053	7	Sololá	701	Sololá	1	Sololá	7	Julio	2023-07-23T00:00:00	2024-11-08T18:00:00	6	Velocidad del viento	6.4
37054	7	Sololá	701	Sololá	1	Sololá	7	Julio	2023-07-23T00:00:00	2024-11-08T18:00:00	7	Dirección del viento	6.44
37055	7	Sololá	701	Sololá	1	Sololá	7	Julio	2023-07-23T00:00:00	2024-11-08T18:00:00	1	Precipitación	0
37056	7	Sololá	701	Sololá	1	Sololá	7	Julio	2023-07-23T00:00:00	2024-11-08T18:00:00	8	Radiación solar	46
37057	7	Sololá	701	Sololá	1	Sololá	7	Julio	2023-07-23T00:00:00	2024-11-08T19:00:00	2	Temperatura media	15.6
37058	7	Sololá	701	Sololá	1	Sololá	7	Julio	2023-07-23T00:00:00	2024-11-08T19:00:00	4	Temperatura máxima	16.7
37059	7	Sololá	701	Sololá	1	Sololá	7	Julio	2023-07-23T00:00:00	2024-11-08T19:00:00	3	Temperatura mínima	15.6
37060	7	Sololá	701	Sololá	1	Sololá	7	Julio	2023-07-23T00:00:00	2024-11-08T19:00:00	5	Humedad	93
37061	7	Sololá	701	Sololá	1	Sololá	7	Julio	2023-07-23T00:00:00	2024-11-08T19:00:00	6	Velocidad del viento	3.2
37062	7	Sololá	701	Sololá	1	Sololá	7	Julio	2023-07-23T00:00:00	2024-11-08T19:00:00	7	Dirección del viento	3.22
37063	7	Sololá	701	Sololá	1	Sololá	7	Julio	2023-07-23T00:00:00	2024-11-08T19:00:00	1	Precipitación	0
37064	7	Sololá	701	Sololá	1	Sololá	7	Julio	2023-07-23T00:00:00	2024-11-08T19:00:00	8	Radiación solar	0
37065	7	Sololá	701	Sololá	1	Sololá	7	Julio	2023-07-23T00:00:00	2024-11-08T20:00:00	2	Temperatura media	14.8
37066	7	Sololá	701	Sololá	1	Sololá	7	Julio	2023-07-23T00:00:00	2024-11-08T20:00:00	4	Temperatura máxima	15.6
37067	7	Sololá	701	Sololá	1	Sololá	7	Julio	2023-07-23T00:00:00	2024-11-08T20:00:00	3	Temperatura mínima	14.7
37068	7	Sololá	701	Sololá	1	Sololá	7	Julio	2023-07-23T00:00:00	2024-11-08T20:00:00	5	Humedad	92
37069	7	Sololá	701	Sololá	1	Sololá	7	Julio	2023-07-23T00:00:00	2024-11-08T20:00:00	6	Velocidad del viento	3.2
37070	7	Sololá	701	Sololá	1	Sololá	7	Julio	2023-07-23T00:00:00	2024-11-08T20:00:00	7	Dirección del viento	3.22
37071	7	Sololá	701	Sololá	1	Sololá	7	Julio	2023-07-23T00:00:00	2024-11-08T20:00:00	1	Precipitación	0
37072	7	Sololá	701	Sololá	1	Sololá	7	Julio	2023-07-23T00:00:00	2024-11-08T20:00:00	8	Radiación solar	0
37073	7	Sololá	701	Sololá	1	Sololá	7	Julio	2023-07-23T00:00:00	2024-11-08T21:00:00	2	Temperatura media	14.5
37074	7	Sololá	701	Sololá	1	Sololá	7	Julio	2023-07-23T00:00:00	2024-11-08T21:00:00	4	Temperatura máxima	14.8
37075	7	Sololá	701	Sololá	1	Sololá	7	Julio	2023-07-23T00:00:00	2024-11-08T21:00:00	3	Temperatura mínima	14.3
37076	7	Sololá	701	Sololá	1	Sololá	7	Julio	2023-07-23T00:00:00	2024-11-08T21:00:00	5	Humedad	92
37077	7	Sololá	701	Sololá	1	Sololá	7	Julio	2023-07-23T00:00:00	2024-11-08T21:00:00	6	Velocidad del viento	3.2
37078	7	Sololá	701	Sololá	1	Sololá	7	Julio	2023-07-23T00:00:00	2024-11-08T21:00:00	7	Dirección del viento	3.22
37079	7	Sololá	701	Sololá	1	Sololá	7	Julio	2023-07-23T00:00:00	2024-11-08T21:00:00	1	Precipitación	0
37080	7	Sololá	701	Sololá	1	Sololá	7	Julio	2023-07-23T00:00:00	2024-11-08T21:00:00	8	Radiación solar	0
37081	7	Sololá	701	Sololá	1	Sololá	7	Julio	2023-07-23T00:00:00	2024-11-08T22:00:00	2	Temperatura media	15.1
37082	7	Sololá	701	Sololá	1	Sololá	7	Julio	2023-07-23T00:00:00	2024-11-08T22:00:00	4	Temperatura máxima	15.1
37083	7	Sololá	701	Sololá	1	Sololá	7	Julio	2023-07-23T00:00:00	2024-11-08T22:00:00	3	Temperatura mínima	14.4
37084	7	Sololá	701	Sololá	1	Sololá	7	Julio	2023-07-23T00:00:00	2024-11-08T22:00:00	5	Humedad	90
37085	7	Sololá	701	Sololá	1	Sololá	7	Julio	2023-07-23T00:00:00	2024-11-08T22:00:00	6	Velocidad del viento	3.2
37086	7	Sololá	701	Sololá	1	Sololá	7	Julio	2023-07-23T00:00:00	2024-11-08T22:00:00	7	Dirección del viento	3.22
37087	7	Sololá	701	Sololá	1	Sololá	7	Julio	2023-07-23T00:00:00	2024-11-08T22:00:00	1	Precipitación	0
37088	7	Sololá	701	Sololá	1	Sololá	7	Julio	2023-07-23T00:00:00	2024-11-08T22:00:00	8	Radiación solar	0
37089	7	Sololá	701	Sololá	1	Sololá	7	Julio	2023-07-23T00:00:00	2024-11-08T23:00:00	2	Temperatura media	15.1
37090	7	Sololá	701	Sololá	1	Sololá	7	Julio	2023-07-23T00:00:00	2024-11-08T23:00:00	4	Temperatura máxima	15.3
37091	7	Sololá	701	Sololá	1	Sololá	7	Julio	2023-07-23T00:00:00	2024-11-08T23:00:00	3	Temperatura mínima	14.7
37092	7	Sololá	701	Sololá	1	Sololá	7	Julio	2023-07-23T00:00:00	2024-11-08T23:00:00	5	Humedad	91
37093	7	Sololá	701	Sololá	1	Sololá	7	Julio	2023-07-23T00:00:00	2024-11-08T23:00:00	6	Velocidad del viento	1.6
37094	7	Sololá	701	Sololá	1	Sololá	7	Julio	2023-07-23T00:00:00	2024-11-08T23:00:00	7	Dirección del viento	1.61
37095	7	Sololá	701	Sololá	1	Sololá	7	Julio	2023-07-23T00:00:00	2024-11-08T23:00:00	1	Precipitación	0
37096	7	Sololá	701	Sololá	1	Sololá	7	Julio	2023-07-23T00:00:00	2024-11-08T23:00:00	8	Radiación solar	0
37097	7	Sololá	701	Sololá	1	Sololá	7	Julio	2023-07-24T00:00:00	2024-11-08T00:00:00	2	Temperatura media	15.3
37098	7	Sololá	701	Sololá	1	Sololá	7	Julio	2023-07-24T00:00:00	2024-11-08T00:00:00	4	Temperatura máxima	15.3
37099	7	Sololá	701	Sololá	1	Sololá	7	Julio	2023-07-24T00:00:00	2024-11-08T00:00:00	3	Temperatura mínima	15.1
37100	7	Sololá	701	Sololá	1	Sololá	7	Julio	2023-07-24T00:00:00	2024-11-08T00:00:00	5	Humedad	93
37101	7	Sololá	701	Sololá	1	Sololá	7	Julio	2023-07-24T00:00:00	2024-11-08T00:00:00	6	Velocidad del viento	1.6
37102	7	Sololá	701	Sololá	1	Sololá	7	Julio	2023-07-24T00:00:00	2024-11-08T00:00:00	7	Dirección del viento	1.61
37103	7	Sololá	701	Sololá	1	Sololá	7	Julio	2023-07-24T00:00:00	2024-11-08T00:00:00	1	Precipitación	0
37104	7	Sololá	701	Sololá	1	Sololá	7	Julio	2023-07-24T00:00:00	2024-11-08T00:00:00	8	Radiación solar	0
37105	7	Sololá	701	Sololá	1	Sololá	7	Julio	2023-07-24T00:00:00	2024-11-08T01:00:00	2	Temperatura media	15.1
37106	7	Sololá	701	Sololá	1	Sololá	7	Julio	2023-07-24T00:00:00	2024-11-08T01:00:00	4	Temperatura máxima	15.3
37107	7	Sololá	701	Sololá	1	Sololá	7	Julio	2023-07-24T00:00:00	2024-11-08T01:00:00	3	Temperatura mínima	15.1
37108	7	Sololá	701	Sololá	1	Sololá	7	Julio	2023-07-24T00:00:00	2024-11-08T01:00:00	5	Humedad	92
37109	7	Sololá	701	Sololá	1	Sololá	7	Julio	2023-07-24T00:00:00	2024-11-08T01:00:00	6	Velocidad del viento	0
37110	7	Sololá	701	Sololá	1	Sololá	7	Julio	2023-07-24T00:00:00	2024-11-08T01:00:00	7	Dirección del viento	0
37111	7	Sololá	701	Sololá	1	Sololá	7	Julio	2023-07-24T00:00:00	2024-11-08T01:00:00	1	Precipitación	0
37112	7	Sololá	701	Sololá	1	Sololá	7	Julio	2023-07-24T00:00:00	2024-11-08T01:00:00	8	Radiación solar	0
37113	7	Sololá	701	Sololá	1	Sololá	7	Julio	2023-07-24T00:00:00	2024-11-08T02:00:00	2	Temperatura media	15.1
37114	7	Sololá	701	Sololá	1	Sololá	7	Julio	2023-07-24T00:00:00	2024-11-08T02:00:00	4	Temperatura máxima	15.3
37115	7	Sololá	701	Sololá	1	Sololá	7	Julio	2023-07-24T00:00:00	2024-11-08T02:00:00	3	Temperatura mínima	15
37116	7	Sololá	701	Sololá	1	Sololá	7	Julio	2023-07-24T00:00:00	2024-11-08T02:00:00	5	Humedad	91
37117	7	Sololá	701	Sololá	1	Sololá	7	Julio	2023-07-24T00:00:00	2024-11-08T02:00:00	6	Velocidad del viento	1.6
37118	7	Sololá	701	Sololá	1	Sololá	7	Julio	2023-07-24T00:00:00	2024-11-08T02:00:00	7	Dirección del viento	1.61
37119	7	Sololá	701	Sololá	1	Sololá	7	Julio	2023-07-24T00:00:00	2024-11-08T02:00:00	1	Precipitación	0
37120	7	Sololá	701	Sololá	1	Sololá	7	Julio	2023-07-24T00:00:00	2024-11-08T02:00:00	8	Radiación solar	0
37121	7	Sololá	701	Sololá	1	Sololá	7	Julio	2023-07-24T00:00:00	2024-11-08T03:00:00	2	Temperatura media	14.8
37122	7	Sololá	701	Sololá	1	Sololá	7	Julio	2023-07-24T00:00:00	2024-11-08T03:00:00	4	Temperatura máxima	15
37123	7	Sololá	701	Sololá	1	Sololá	7	Julio	2023-07-24T00:00:00	2024-11-08T03:00:00	3	Temperatura mínima	14.7
37124	7	Sololá	701	Sololá	1	Sololá	7	Julio	2023-07-24T00:00:00	2024-11-08T03:00:00	5	Humedad	92
37125	7	Sololá	701	Sololá	1	Sololá	7	Julio	2023-07-24T00:00:00	2024-11-08T03:00:00	6	Velocidad del viento	1.6
37126	7	Sololá	701	Sololá	1	Sololá	7	Julio	2023-07-24T00:00:00	2024-11-08T03:00:00	7	Dirección del viento	1.61
37127	7	Sololá	701	Sololá	1	Sololá	7	Julio	2023-07-24T00:00:00	2024-11-08T03:00:00	1	Precipitación	0
37128	7	Sololá	701	Sololá	1	Sololá	7	Julio	2023-07-24T00:00:00	2024-11-08T03:00:00	8	Radiación solar	0
37129	7	Sololá	701	Sololá	1	Sololá	7	Julio	2023-07-24T00:00:00	2024-11-08T04:00:00	2	Temperatura media	14.4
37130	7	Sololá	701	Sololá	1	Sololá	7	Julio	2023-07-24T00:00:00	2024-11-08T04:00:00	4	Temperatura máxima	15.1
37131	7	Sololá	701	Sololá	1	Sololá	7	Julio	2023-07-24T00:00:00	2024-11-08T04:00:00	3	Temperatura mínima	14.4
37132	7	Sololá	701	Sololá	1	Sololá	7	Julio	2023-07-24T00:00:00	2024-11-08T04:00:00	5	Humedad	91
37133	7	Sololá	701	Sololá	1	Sololá	7	Julio	2023-07-24T00:00:00	2024-11-08T04:00:00	6	Velocidad del viento	3.2
37134	7	Sololá	701	Sololá	1	Sololá	7	Julio	2023-07-24T00:00:00	2024-11-08T04:00:00	7	Dirección del viento	3.22
37135	7	Sololá	701	Sololá	1	Sololá	7	Julio	2023-07-24T00:00:00	2024-11-08T04:00:00	1	Precipitación	0
37136	7	Sololá	701	Sololá	1	Sololá	7	Julio	2023-07-24T00:00:00	2024-11-08T04:00:00	8	Radiación solar	0
37137	7	Sololá	701	Sololá	1	Sololá	7	Julio	2023-07-24T00:00:00	2024-11-08T05:00:00	2	Temperatura media	15
37138	7	Sololá	701	Sololá	1	Sololá	7	Julio	2023-07-24T00:00:00	2024-11-08T05:00:00	4	Temperatura máxima	15.1
37139	7	Sololá	701	Sololá	1	Sololá	7	Julio	2023-07-24T00:00:00	2024-11-08T05:00:00	3	Temperatura mínima	14.4
37140	7	Sololá	701	Sololá	1	Sololá	7	Julio	2023-07-24T00:00:00	2024-11-08T05:00:00	5	Humedad	90
37141	7	Sololá	701	Sololá	1	Sololá	7	Julio	2023-07-24T00:00:00	2024-11-08T05:00:00	6	Velocidad del viento	1.6
37142	7	Sololá	701	Sololá	1	Sololá	7	Julio	2023-07-24T00:00:00	2024-11-08T05:00:00	7	Dirección del viento	1.61
37143	7	Sololá	701	Sololá	1	Sololá	7	Julio	2023-07-24T00:00:00	2024-11-08T05:00:00	1	Precipitación	0
37144	7	Sololá	701	Sololá	1	Sololá	7	Julio	2023-07-24T00:00:00	2024-11-08T05:00:00	8	Radiación solar	0
37145	7	Sololá	701	Sololá	1	Sololá	7	Julio	2023-07-24T00:00:00	2024-11-08T06:00:00	2	Temperatura media	15.7
37146	7	Sololá	701	Sololá	1	Sololá	7	Julio	2023-07-24T00:00:00	2024-11-08T06:00:00	4	Temperatura máxima	15.8
37147	7	Sololá	701	Sololá	1	Sololá	7	Julio	2023-07-24T00:00:00	2024-11-08T06:00:00	3	Temperatura mínima	15
37148	7	Sololá	701	Sololá	1	Sololá	7	Julio	2023-07-24T00:00:00	2024-11-08T06:00:00	5	Humedad	87
37149	7	Sololá	701	Sololá	1	Sololá	7	Julio	2023-07-24T00:00:00	2024-11-08T06:00:00	6	Velocidad del viento	6.4
37150	7	Sololá	701	Sololá	1	Sololá	7	Julio	2023-07-24T00:00:00	2024-11-08T06:00:00	7	Dirección del viento	6.44
37151	7	Sololá	701	Sololá	1	Sololá	7	Julio	2023-07-24T00:00:00	2024-11-08T06:00:00	1	Precipitación	0
37152	7	Sololá	701	Sololá	1	Sololá	7	Julio	2023-07-24T00:00:00	2024-11-08T06:00:00	8	Radiación solar	3
37153	7	Sololá	701	Sololá	1	Sololá	7	Julio	2023-07-24T00:00:00	2024-11-08T07:00:00	2	Temperatura media	16.8
37154	7	Sololá	701	Sololá	1	Sololá	7	Julio	2023-07-24T00:00:00	2024-11-08T07:00:00	4	Temperatura máxima	16.8
37155	7	Sololá	701	Sololá	1	Sololá	7	Julio	2023-07-24T00:00:00	2024-11-08T07:00:00	3	Temperatura mínima	15.7
37156	7	Sololá	701	Sololá	1	Sololá	7	Julio	2023-07-24T00:00:00	2024-11-08T07:00:00	5	Humedad	83
37157	7	Sololá	701	Sololá	1	Sololá	7	Julio	2023-07-24T00:00:00	2024-11-08T07:00:00	6	Velocidad del viento	6.4
37158	7	Sololá	701	Sololá	1	Sololá	7	Julio	2023-07-24T00:00:00	2024-11-08T07:00:00	7	Dirección del viento	6.44
37159	7	Sololá	701	Sololá	1	Sololá	7	Julio	2023-07-24T00:00:00	2024-11-08T07:00:00	1	Precipitación	0
37160	7	Sololá	701	Sololá	1	Sololá	7	Julio	2023-07-24T00:00:00	2024-11-08T07:00:00	8	Radiación solar	36
37161	7	Sololá	701	Sololá	1	Sololá	7	Julio	2023-07-24T00:00:00	2024-11-08T08:00:00	2	Temperatura media	18.6
37162	7	Sololá	701	Sololá	1	Sololá	7	Julio	2023-07-24T00:00:00	2024-11-08T08:00:00	4	Temperatura máxima	18.7
37163	7	Sololá	701	Sololá	1	Sololá	7	Julio	2023-07-24T00:00:00	2024-11-08T08:00:00	3	Temperatura mínima	16.8
37164	7	Sololá	701	Sololá	1	Sololá	7	Julio	2023-07-24T00:00:00	2024-11-08T08:00:00	5	Humedad	78
37165	7	Sololá	701	Sololá	1	Sololá	7	Julio	2023-07-24T00:00:00	2024-11-08T08:00:00	6	Velocidad del viento	4.8
37166	7	Sololá	701	Sololá	1	Sololá	7	Julio	2023-07-24T00:00:00	2024-11-08T08:00:00	7	Dirección del viento	4.83
37167	7	Sololá	701	Sololá	1	Sololá	7	Julio	2023-07-24T00:00:00	2024-11-08T08:00:00	1	Precipitación	0
37168	7	Sololá	701	Sololá	1	Sololá	7	Julio	2023-07-24T00:00:00	2024-11-08T08:00:00	8	Radiación solar	119
37169	7	Sololá	701	Sololá	1	Sololá	7	Julio	2023-07-24T00:00:00	2024-11-08T09:00:00	2	Temperatura media	20.5
37170	7	Sololá	701	Sololá	1	Sololá	7	Julio	2023-07-24T00:00:00	2024-11-08T09:00:00	4	Temperatura máxima	20.5
37171	7	Sololá	701	Sololá	1	Sololá	7	Julio	2023-07-24T00:00:00	2024-11-08T09:00:00	3	Temperatura mínima	18.4
37172	7	Sololá	701	Sololá	1	Sololá	7	Julio	2023-07-24T00:00:00	2024-11-08T09:00:00	5	Humedad	73
37173	7	Sololá	701	Sololá	1	Sololá	7	Julio	2023-07-24T00:00:00	2024-11-08T09:00:00	6	Velocidad del viento	8
37174	7	Sololá	701	Sololá	1	Sololá	7	Julio	2023-07-24T00:00:00	2024-11-08T09:00:00	7	Dirección del viento	8.05
37175	7	Sololá	701	Sololá	1	Sololá	7	Julio	2023-07-24T00:00:00	2024-11-08T09:00:00	1	Precipitación	0
37176	7	Sololá	701	Sololá	1	Sololá	7	Julio	2023-07-24T00:00:00	2024-11-08T09:00:00	8	Radiación solar	272
37177	7	Sololá	701	Sololá	1	Sololá	7	Julio	2023-07-24T00:00:00	2024-11-08T10:00:00	2	Temperatura media	21.2
37178	7	Sololá	701	Sololá	1	Sololá	7	Julio	2023-07-24T00:00:00	2024-11-08T10:00:00	4	Temperatura máxima	21.3
37179	7	Sololá	701	Sololá	1	Sololá	7	Julio	2023-07-24T00:00:00	2024-11-08T10:00:00	3	Temperatura mínima	20.4
37180	7	Sololá	701	Sololá	1	Sololá	7	Julio	2023-07-24T00:00:00	2024-11-08T10:00:00	5	Humedad	66
37181	7	Sololá	701	Sololá	1	Sololá	7	Julio	2023-07-24T00:00:00	2024-11-08T10:00:00	6	Velocidad del viento	9.7
37182	7	Sololá	701	Sololá	1	Sololá	7	Julio	2023-07-24T00:00:00	2024-11-08T10:00:00	7	Dirección del viento	9.66
37183	7	Sololá	701	Sololá	1	Sololá	7	Julio	2023-07-24T00:00:00	2024-11-08T10:00:00	1	Precipitación	0
37184	7	Sololá	701	Sololá	1	Sololá	7	Julio	2023-07-24T00:00:00	2024-11-08T10:00:00	8	Radiación solar	691
37185	7	Sololá	701	Sololá	1	Sololá	7	Julio	2023-07-24T00:00:00	2024-11-08T11:00:00	2	Temperatura media	22.3
37186	7	Sololá	701	Sololá	1	Sololá	7	Julio	2023-07-24T00:00:00	2024-11-08T11:00:00	4	Temperatura máxima	22.6
37187	7	Sololá	701	Sololá	1	Sololá	7	Julio	2023-07-24T00:00:00	2024-11-08T11:00:00	3	Temperatura mínima	21.2
37188	7	Sololá	701	Sololá	1	Sololá	7	Julio	2023-07-24T00:00:00	2024-11-08T11:00:00	5	Humedad	63
37189	7	Sololá	701	Sololá	1	Sololá	7	Julio	2023-07-24T00:00:00	2024-11-08T11:00:00	6	Velocidad del viento	9.7
37190	7	Sololá	701	Sololá	1	Sololá	7	Julio	2023-07-24T00:00:00	2024-11-08T11:00:00	7	Dirección del viento	9.66
37191	7	Sololá	701	Sololá	1	Sololá	7	Julio	2023-07-24T00:00:00	2024-11-08T11:00:00	1	Precipitación	0
37192	7	Sololá	701	Sololá	1	Sololá	7	Julio	2023-07-24T00:00:00	2024-11-08T11:00:00	8	Radiación solar	863
37193	7	Sololá	701	Sololá	1	Sololá	7	Julio	2023-07-24T00:00:00	2024-11-08T12:00:00	2	Temperatura media	22.4
37194	7	Sololá	701	Sololá	1	Sololá	7	Julio	2023-07-24T00:00:00	2024-11-08T12:00:00	4	Temperatura máxima	22.7
37195	7	Sololá	701	Sololá	1	Sololá	7	Julio	2023-07-24T00:00:00	2024-11-08T12:00:00	3	Temperatura mínima	21.4
37196	7	Sololá	701	Sololá	1	Sololá	7	Julio	2023-07-24T00:00:00	2024-11-08T12:00:00	5	Humedad	66
37197	7	Sololá	701	Sololá	1	Sololá	7	Julio	2023-07-24T00:00:00	2024-11-08T12:00:00	6	Velocidad del viento	4.8
37198	7	Sololá	701	Sololá	1	Sololá	7	Julio	2023-07-24T00:00:00	2024-11-08T12:00:00	7	Dirección del viento	4.83
37199	7	Sololá	701	Sololá	1	Sololá	7	Julio	2023-07-24T00:00:00	2024-11-08T12:00:00	1	Precipitación	0
37200	7	Sololá	701	Sololá	1	Sololá	7	Julio	2023-07-24T00:00:00	2024-11-08T12:00:00	8	Radiación solar	939
37201	7	Sololá	701	Sololá	1	Sololá	7	Julio	2023-07-24T00:00:00	2024-11-08T13:00:00	2	Temperatura media	22.6
37202	7	Sololá	701	Sololá	1	Sololá	7	Julio	2023-07-24T00:00:00	2024-11-08T13:00:00	4	Temperatura máxima	23.2
37203	7	Sololá	701	Sololá	1	Sololá	7	Julio	2023-07-24T00:00:00	2024-11-08T13:00:00	3	Temperatura mínima	22.5
37204	7	Sololá	701	Sololá	1	Sololá	7	Julio	2023-07-24T00:00:00	2024-11-08T13:00:00	5	Humedad	75
37205	7	Sololá	701	Sololá	1	Sololá	7	Julio	2023-07-24T00:00:00	2024-11-08T13:00:00	6	Velocidad del viento	6.4
37206	7	Sololá	701	Sololá	1	Sololá	7	Julio	2023-07-24T00:00:00	2024-11-08T13:00:00	7	Dirección del viento	6.44
37207	7	Sololá	701	Sololá	1	Sololá	7	Julio	2023-07-24T00:00:00	2024-11-08T13:00:00	1	Precipitación	0
37208	7	Sololá	701	Sololá	1	Sololá	7	Julio	2023-07-24T00:00:00	2024-11-08T13:00:00	8	Radiación solar	358
37209	7	Sololá	701	Sololá	1	Sololá	7	Julio	2023-07-24T00:00:00	2024-11-08T14:00:00	2	Temperatura media	22.8
37210	7	Sololá	701	Sololá	1	Sololá	7	Julio	2023-07-24T00:00:00	2024-11-08T14:00:00	4	Temperatura máxima	23.1
37211	7	Sololá	701	Sololá	1	Sololá	7	Julio	2023-07-24T00:00:00	2024-11-08T14:00:00	3	Temperatura mínima	21.3
37212	7	Sololá	701	Sololá	1	Sololá	7	Julio	2023-07-24T00:00:00	2024-11-08T14:00:00	5	Humedad	74
37213	7	Sololá	701	Sololá	1	Sololá	7	Julio	2023-07-24T00:00:00	2024-11-08T14:00:00	6	Velocidad del viento	4.8
37214	7	Sololá	701	Sololá	1	Sololá	7	Julio	2023-07-24T00:00:00	2024-11-08T14:00:00	7	Dirección del viento	4.83
37215	7	Sololá	701	Sololá	1	Sololá	7	Julio	2023-07-24T00:00:00	2024-11-08T14:00:00	1	Precipitación	0
37216	7	Sololá	701	Sololá	1	Sololá	7	Julio	2023-07-24T00:00:00	2024-11-08T14:00:00	8	Radiación solar	267
37217	7	Sololá	701	Sololá	1	Sololá	7	Julio	2023-07-24T00:00:00	2024-11-08T15:00:00	2	Temperatura media	18.7
37218	7	Sololá	701	Sololá	1	Sololá	7	Julio	2023-07-24T00:00:00	2024-11-08T15:00:00	4	Temperatura máxima	22.8
37219	7	Sololá	701	Sololá	1	Sololá	7	Julio	2023-07-24T00:00:00	2024-11-08T15:00:00	3	Temperatura mínima	18.7
37220	7	Sololá	701	Sololá	1	Sololá	7	Julio	2023-07-24T00:00:00	2024-11-08T15:00:00	5	Humedad	88
37221	7	Sololá	701	Sololá	1	Sololá	7	Julio	2023-07-24T00:00:00	2024-11-08T15:00:00	6	Velocidad del viento	6.4
37222	7	Sololá	701	Sololá	1	Sololá	7	Julio	2023-07-24T00:00:00	2024-11-08T15:00:00	7	Dirección del viento	6.44
37223	7	Sololá	701	Sololá	1	Sololá	7	Julio	2023-07-24T00:00:00	2024-11-08T15:00:00	1	Precipitación	0
37224	7	Sololá	701	Sololá	1	Sololá	7	Julio	2023-07-24T00:00:00	2024-11-08T15:00:00	8	Radiación solar	267
37225	7	Sololá	701	Sololá	1	Sololá	7	Julio	2023-07-24T00:00:00	2024-11-08T16:00:00	2	Temperatura media	16.7
37226	7	Sololá	701	Sololá	1	Sololá	7	Julio	2023-07-24T00:00:00	2024-11-08T16:00:00	4	Temperatura máxima	18.7
37227	7	Sololá	701	Sololá	1	Sololá	7	Julio	2023-07-24T00:00:00	2024-11-08T16:00:00	3	Temperatura mínima	16.5
37228	7	Sololá	701	Sololá	1	Sololá	7	Julio	2023-07-24T00:00:00	2024-11-08T16:00:00	5	Humedad	96
37229	7	Sololá	701	Sololá	1	Sololá	7	Julio	2023-07-24T00:00:00	2024-11-08T16:00:00	6	Velocidad del viento	4.8
37230	7	Sololá	701	Sololá	1	Sololá	7	Julio	2023-07-24T00:00:00	2024-11-08T16:00:00	7	Dirección del viento	4.83
37231	7	Sololá	701	Sololá	1	Sololá	7	Julio	2023-07-24T00:00:00	2024-11-08T16:00:00	1	Precipitación	5.2
37232	7	Sololá	701	Sololá	1	Sololá	7	Julio	2023-07-24T00:00:00	2024-11-08T16:00:00	8	Radiación solar	56
37233	7	Sololá	701	Sololá	1	Sololá	7	Julio	2023-07-24T00:00:00	2024-11-08T17:00:00	2	Temperatura media	16.4
37234	7	Sololá	701	Sololá	1	Sololá	7	Julio	2023-07-24T00:00:00	2024-11-08T17:00:00	4	Temperatura máxima	16.7
37235	7	Sololá	701	Sololá	1	Sololá	7	Julio	2023-07-24T00:00:00	2024-11-08T17:00:00	3	Temperatura mínima	16.2
37236	7	Sololá	701	Sololá	1	Sololá	7	Julio	2023-07-24T00:00:00	2024-11-08T17:00:00	5	Humedad	95
37237	7	Sololá	701	Sololá	1	Sololá	7	Julio	2023-07-24T00:00:00	2024-11-08T17:00:00	6	Velocidad del viento	1.6
37238	7	Sololá	701	Sololá	1	Sololá	7	Julio	2023-07-24T00:00:00	2024-11-08T17:00:00	7	Dirección del viento	1.61
37239	7	Sololá	701	Sololá	1	Sololá	7	Julio	2023-07-24T00:00:00	2024-11-08T17:00:00	1	Precipitación	0
37240	7	Sololá	701	Sololá	1	Sololá	7	Julio	2023-07-24T00:00:00	2024-11-08T17:00:00	8	Radiación solar	99
37241	7	Sololá	701	Sololá	1	Sololá	7	Julio	2023-07-24T00:00:00	2024-11-08T18:00:00	2	Temperatura media	16.1
37242	7	Sololá	701	Sololá	1	Sololá	7	Julio	2023-07-24T00:00:00	2024-11-08T18:00:00	4	Temperatura máxima	17.2
37243	7	Sololá	701	Sololá	1	Sololá	7	Julio	2023-07-24T00:00:00	2024-11-08T18:00:00	3	Temperatura mínima	15.8
37244	7	Sololá	701	Sololá	1	Sololá	7	Julio	2023-07-24T00:00:00	2024-11-08T18:00:00	5	Humedad	95
37245	7	Sololá	701	Sololá	1	Sololá	7	Julio	2023-07-24T00:00:00	2024-11-08T18:00:00	6	Velocidad del viento	1.6
37246	7	Sololá	701	Sololá	1	Sololá	7	Julio	2023-07-24T00:00:00	2024-11-08T18:00:00	7	Dirección del viento	1.61
37247	7	Sololá	701	Sololá	1	Sololá	7	Julio	2023-07-24T00:00:00	2024-11-08T18:00:00	1	Precipitación	8.2
37248	7	Sololá	701	Sololá	1	Sololá	7	Julio	2023-07-24T00:00:00	2024-11-08T18:00:00	8	Radiación solar	29
37249	7	Sololá	701	Sololá	1	Sololá	7	Julio	2023-07-24T00:00:00	2024-11-08T19:00:00	2	Temperatura media	15.9
37250	7	Sololá	701	Sololá	1	Sololá	7	Julio	2023-07-24T00:00:00	2024-11-08T19:00:00	4	Temperatura máxima	16.2
37251	7	Sololá	701	Sololá	1	Sololá	7	Julio	2023-07-24T00:00:00	2024-11-08T19:00:00	3	Temperatura mínima	15.9
37252	7	Sololá	701	Sololá	1	Sololá	7	Julio	2023-07-24T00:00:00	2024-11-08T19:00:00	5	Humedad	95
37253	7	Sololá	701	Sololá	1	Sololá	7	Julio	2023-07-24T00:00:00	2024-11-08T19:00:00	6	Velocidad del viento	1.6
37254	7	Sololá	701	Sololá	1	Sololá	7	Julio	2023-07-24T00:00:00	2024-11-08T19:00:00	7	Dirección del viento	1.61
37255	7	Sololá	701	Sololá	1	Sololá	7	Julio	2023-07-24T00:00:00	2024-11-08T19:00:00	1	Precipitación	0.8
37256	7	Sololá	701	Sololá	1	Sololá	7	Julio	2023-07-24T00:00:00	2024-11-08T19:00:00	8	Radiación solar	0
37257	7	Sololá	701	Sololá	1	Sololá	7	Julio	2023-07-24T00:00:00	2024-11-08T20:00:00	2	Temperatura media	15.8
37258	7	Sololá	701	Sololá	1	Sololá	7	Julio	2023-07-24T00:00:00	2024-11-08T20:00:00	4	Temperatura máxima	15.9
37259	7	Sololá	701	Sololá	1	Sololá	7	Julio	2023-07-24T00:00:00	2024-11-08T20:00:00	3	Temperatura mínima	15.7
37260	7	Sololá	701	Sololá	1	Sololá	7	Julio	2023-07-24T00:00:00	2024-11-08T20:00:00	5	Humedad	90
37261	7	Sololá	701	Sololá	1	Sololá	7	Julio	2023-07-24T00:00:00	2024-11-08T20:00:00	6	Velocidad del viento	4.8
37262	7	Sololá	701	Sololá	1	Sololá	7	Julio	2023-07-24T00:00:00	2024-11-08T20:00:00	7	Dirección del viento	4.83
37263	7	Sololá	701	Sololá	1	Sololá	7	Julio	2023-07-24T00:00:00	2024-11-08T20:00:00	1	Precipitación	1.4
37264	7	Sololá	701	Sololá	1	Sololá	7	Julio	2023-07-24T00:00:00	2024-11-08T20:00:00	8	Radiación solar	0
37265	7	Sololá	701	Sololá	1	Sololá	7	Julio	2023-07-24T00:00:00	2024-11-08T21:00:00	2	Temperatura media	16.1
37266	7	Sololá	701	Sololá	1	Sololá	7	Julio	2023-07-24T00:00:00	2024-11-08T21:00:00	4	Temperatura máxima	16.2
37267	7	Sololá	701	Sololá	1	Sololá	7	Julio	2023-07-24T00:00:00	2024-11-08T21:00:00	3	Temperatura mínima	15.8
37268	7	Sololá	701	Sololá	1	Sololá	7	Julio	2023-07-24T00:00:00	2024-11-08T21:00:00	5	Humedad	88
37269	7	Sololá	701	Sololá	1	Sololá	7	Julio	2023-07-24T00:00:00	2024-11-08T21:00:00	6	Velocidad del viento	6.4
37270	7	Sololá	701	Sololá	1	Sololá	7	Julio	2023-07-24T00:00:00	2024-11-08T21:00:00	7	Dirección del viento	6.44
37271	7	Sololá	701	Sololá	1	Sololá	7	Julio	2023-07-24T00:00:00	2024-11-08T21:00:00	1	Precipitación	0
37272	7	Sololá	701	Sololá	1	Sololá	7	Julio	2023-07-24T00:00:00	2024-11-08T21:00:00	8	Radiación solar	0
37273	7	Sololá	701	Sololá	1	Sololá	7	Julio	2023-07-24T00:00:00	2024-11-08T22:00:00	2	Temperatura media	15.9
37274	7	Sololá	701	Sololá	1	Sololá	7	Julio	2023-07-24T00:00:00	2024-11-08T22:00:00	4	Temperatura máxima	16.1
37275	7	Sololá	701	Sololá	1	Sololá	7	Julio	2023-07-24T00:00:00	2024-11-08T22:00:00	3	Temperatura mínima	15.8
37276	7	Sololá	701	Sololá	1	Sololá	7	Julio	2023-07-24T00:00:00	2024-11-08T22:00:00	5	Humedad	86
37277	7	Sololá	701	Sololá	1	Sololá	7	Julio	2023-07-24T00:00:00	2024-11-08T22:00:00	6	Velocidad del viento	9.7
37278	7	Sololá	701	Sololá	1	Sololá	7	Julio	2023-07-24T00:00:00	2024-11-08T22:00:00	7	Dirección del viento	9.66
37279	7	Sololá	701	Sololá	1	Sololá	7	Julio	2023-07-24T00:00:00	2024-11-08T22:00:00	1	Precipitación	0
37280	7	Sololá	701	Sololá	1	Sololá	7	Julio	2023-07-24T00:00:00	2024-11-08T22:00:00	8	Radiación solar	0
37281	7	Sololá	701	Sololá	1	Sololá	7	Julio	2023-07-24T00:00:00	2024-11-08T23:00:00	2	Temperatura media	16.1
37282	7	Sololá	701	Sololá	1	Sololá	7	Julio	2023-07-24T00:00:00	2024-11-08T23:00:00	4	Temperatura máxima	16.2
37283	7	Sololá	701	Sololá	1	Sololá	7	Julio	2023-07-24T00:00:00	2024-11-08T23:00:00	3	Temperatura mínima	15.5
37284	7	Sololá	701	Sololá	1	Sololá	7	Julio	2023-07-24T00:00:00	2024-11-08T23:00:00	5	Humedad	84
37285	7	Sololá	701	Sololá	1	Sololá	7	Julio	2023-07-24T00:00:00	2024-11-08T23:00:00	6	Velocidad del viento	6.4
37286	7	Sololá	701	Sololá	1	Sololá	7	Julio	2023-07-24T00:00:00	2024-11-08T23:00:00	7	Dirección del viento	6.44
37287	7	Sololá	701	Sololá	1	Sololá	7	Julio	2023-07-24T00:00:00	2024-11-08T23:00:00	1	Precipitación	0
37288	7	Sololá	701	Sololá	1	Sololá	7	Julio	2023-07-24T00:00:00	2024-11-08T23:00:00	8	Radiación solar	0
37289	7	Sololá	701	Sololá	1	Sololá	7	Julio	2023-07-25T00:00:00	2024-11-08T00:00:00	2	Temperatura media	15.8
37290	7	Sololá	701	Sololá	1	Sololá	7	Julio	2023-07-25T00:00:00	2024-11-08T00:00:00	4	Temperatura máxima	16.2
37291	7	Sololá	701	Sololá	1	Sololá	7	Julio	2023-07-25T00:00:00	2024-11-08T00:00:00	3	Temperatura mínima	15.7
37292	7	Sololá	701	Sololá	1	Sololá	7	Julio	2023-07-25T00:00:00	2024-11-08T00:00:00	5	Humedad	86
37293	7	Sololá	701	Sololá	1	Sololá	7	Julio	2023-07-25T00:00:00	2024-11-08T00:00:00	6	Velocidad del viento	3.2
37294	7	Sololá	701	Sololá	1	Sololá	7	Julio	2023-07-25T00:00:00	2024-11-08T00:00:00	7	Dirección del viento	3.22
37295	7	Sololá	701	Sololá	1	Sololá	7	Julio	2023-07-25T00:00:00	2024-11-08T00:00:00	1	Precipitación	0
37296	7	Sololá	701	Sololá	1	Sololá	7	Julio	2023-07-25T00:00:00	2024-11-08T00:00:00	8	Radiación solar	0
37297	7	Sololá	701	Sololá	1	Sololá	7	Julio	2023-07-25T00:00:00	2024-11-08T01:00:00	2	Temperatura media	15.6
37298	7	Sololá	701	Sololá	1	Sololá	7	Julio	2023-07-25T00:00:00	2024-11-08T01:00:00	4	Temperatura máxima	15.9
37299	7	Sololá	701	Sololá	1	Sololá	7	Julio	2023-07-25T00:00:00	2024-11-08T01:00:00	3	Temperatura mínima	15.6
37300	7	Sololá	701	Sololá	1	Sololá	7	Julio	2023-07-25T00:00:00	2024-11-08T01:00:00	5	Humedad	84
37301	7	Sololá	701	Sololá	1	Sololá	7	Julio	2023-07-25T00:00:00	2024-11-08T01:00:00	6	Velocidad del viento	4.8
37302	7	Sololá	701	Sololá	1	Sololá	7	Julio	2023-07-25T00:00:00	2024-11-08T01:00:00	7	Dirección del viento	4.83
37303	7	Sololá	701	Sololá	1	Sololá	7	Julio	2023-07-25T00:00:00	2024-11-08T01:00:00	1	Precipitación	0
37304	7	Sololá	701	Sololá	1	Sololá	7	Julio	2023-07-25T00:00:00	2024-11-08T01:00:00	8	Radiación solar	0
37305	7	Sololá	701	Sololá	1	Sololá	7	Julio	2023-07-25T00:00:00	2024-11-08T02:00:00	2	Temperatura media	15.8
37306	7	Sololá	701	Sololá	1	Sololá	7	Julio	2023-07-25T00:00:00	2024-11-08T02:00:00	4	Temperatura máxima	15.8
37307	7	Sololá	701	Sololá	1	Sololá	7	Julio	2023-07-25T00:00:00	2024-11-08T02:00:00	3	Temperatura mínima	15.6
37308	7	Sololá	701	Sololá	1	Sololá	7	Julio	2023-07-25T00:00:00	2024-11-08T02:00:00	5	Humedad	78
37309	7	Sololá	701	Sololá	1	Sololá	7	Julio	2023-07-25T00:00:00	2024-11-08T02:00:00	6	Velocidad del viento	8
37310	7	Sololá	701	Sololá	1	Sololá	7	Julio	2023-07-25T00:00:00	2024-11-08T02:00:00	7	Dirección del viento	8.05
37311	7	Sololá	701	Sololá	1	Sololá	7	Julio	2023-07-25T00:00:00	2024-11-08T02:00:00	1	Precipitación	0
37312	7	Sololá	701	Sololá	1	Sololá	7	Julio	2023-07-25T00:00:00	2024-11-08T02:00:00	8	Radiación solar	0
37313	7	Sololá	701	Sololá	1	Sololá	7	Julio	2023-07-25T00:00:00	2024-11-08T03:00:00	2	Temperatura media	15.8
37314	7	Sololá	701	Sololá	1	Sololá	7	Julio	2023-07-25T00:00:00	2024-11-08T03:00:00	4	Temperatura máxima	15.9
37315	7	Sololá	701	Sololá	1	Sololá	7	Julio	2023-07-25T00:00:00	2024-11-08T03:00:00	3	Temperatura mínima	15.8
37316	7	Sololá	701	Sololá	1	Sololá	7	Julio	2023-07-25T00:00:00	2024-11-08T03:00:00	5	Humedad	78
37317	7	Sololá	701	Sololá	1	Sololá	7	Julio	2023-07-25T00:00:00	2024-11-08T03:00:00	6	Velocidad del viento	9.7
37318	7	Sololá	701	Sololá	1	Sololá	7	Julio	2023-07-25T00:00:00	2024-11-08T03:00:00	7	Dirección del viento	9.66
37319	7	Sololá	701	Sololá	1	Sololá	7	Julio	2023-07-25T00:00:00	2024-11-08T03:00:00	1	Precipitación	0
37320	7	Sololá	701	Sololá	1	Sololá	7	Julio	2023-07-25T00:00:00	2024-11-08T03:00:00	8	Radiación solar	0
37321	7	Sololá	701	Sololá	1	Sololá	7	Julio	2023-07-25T00:00:00	2024-11-08T04:00:00	2	Temperatura media	15.3
37322	7	Sololá	701	Sololá	1	Sololá	7	Julio	2023-07-25T00:00:00	2024-11-08T04:00:00	4	Temperatura máxima	15.8
37323	7	Sololá	701	Sololá	1	Sololá	7	Julio	2023-07-25T00:00:00	2024-11-08T04:00:00	3	Temperatura mínima	15.3
37324	7	Sololá	701	Sololá	1	Sololá	7	Julio	2023-07-25T00:00:00	2024-11-08T04:00:00	5	Humedad	81
37325	7	Sololá	701	Sololá	1	Sololá	7	Julio	2023-07-25T00:00:00	2024-11-08T04:00:00	6	Velocidad del viento	8
37326	7	Sololá	701	Sololá	1	Sololá	7	Julio	2023-07-25T00:00:00	2024-11-08T04:00:00	7	Dirección del viento	8.05
37327	7	Sololá	701	Sololá	1	Sololá	7	Julio	2023-07-25T00:00:00	2024-11-08T04:00:00	1	Precipitación	0
37328	7	Sololá	701	Sololá	1	Sololá	7	Julio	2023-07-25T00:00:00	2024-11-08T04:00:00	8	Radiación solar	0
37329	7	Sololá	701	Sololá	1	Sololá	7	Julio	2023-07-25T00:00:00	2024-11-08T05:00:00	2	Temperatura media	15.4
37330	7	Sololá	701	Sololá	1	Sololá	7	Julio	2023-07-25T00:00:00	2024-11-08T05:00:00	4	Temperatura máxima	15.6
37331	7	Sololá	701	Sololá	1	Sololá	7	Julio	2023-07-25T00:00:00	2024-11-08T05:00:00	3	Temperatura mínima	15.2
37332	7	Sololá	701	Sololá	1	Sololá	7	Julio	2023-07-25T00:00:00	2024-11-08T05:00:00	5	Humedad	80
37333	7	Sololá	701	Sololá	1	Sololá	7	Julio	2023-07-25T00:00:00	2024-11-08T05:00:00	6	Velocidad del viento	9.7
37334	7	Sololá	701	Sololá	1	Sololá	7	Julio	2023-07-25T00:00:00	2024-11-08T05:00:00	7	Dirección del viento	9.66
37335	7	Sololá	701	Sololá	1	Sololá	7	Julio	2023-07-25T00:00:00	2024-11-08T05:00:00	1	Precipitación	0
37336	7	Sololá	701	Sololá	1	Sololá	7	Julio	2023-07-25T00:00:00	2024-11-08T05:00:00	8	Radiación solar	0
37337	7	Sololá	701	Sololá	1	Sololá	7	Julio	2023-07-25T00:00:00	2024-11-08T06:00:00	2	Temperatura media	15.4
37338	7	Sololá	701	Sololá	1	Sololá	7	Julio	2023-07-25T00:00:00	2024-11-08T06:00:00	4	Temperatura máxima	15.5
37339	7	Sololá	701	Sololá	1	Sololá	7	Julio	2023-07-25T00:00:00	2024-11-08T06:00:00	3	Temperatura mínima	15.3
37340	7	Sololá	701	Sololá	1	Sololá	7	Julio	2023-07-25T00:00:00	2024-11-08T06:00:00	5	Humedad	82
37341	7	Sololá	701	Sololá	1	Sololá	7	Julio	2023-07-25T00:00:00	2024-11-08T06:00:00	6	Velocidad del viento	9.7
37342	7	Sololá	701	Sololá	1	Sololá	7	Julio	2023-07-25T00:00:00	2024-11-08T06:00:00	7	Dirección del viento	9.66
37343	7	Sololá	701	Sololá	1	Sololá	7	Julio	2023-07-25T00:00:00	2024-11-08T06:00:00	1	Precipitación	0
37344	7	Sololá	701	Sololá	1	Sololá	7	Julio	2023-07-25T00:00:00	2024-11-08T06:00:00	8	Radiación solar	1
37345	7	Sololá	701	Sololá	1	Sololá	7	Julio	2023-07-25T00:00:00	2024-11-08T07:00:00	2	Temperatura media	16.6
37346	7	Sololá	701	Sololá	1	Sololá	7	Julio	2023-07-25T00:00:00	2024-11-08T07:00:00	4	Temperatura máxima	16.6
37347	7	Sololá	701	Sololá	1	Sololá	7	Julio	2023-07-25T00:00:00	2024-11-08T07:00:00	3	Temperatura mínima	15.4
37348	7	Sololá	701	Sololá	1	Sololá	7	Julio	2023-07-25T00:00:00	2024-11-08T07:00:00	5	Humedad	76
37349	7	Sololá	701	Sololá	1	Sololá	7	Julio	2023-07-25T00:00:00	2024-11-08T07:00:00	6	Velocidad del viento	11.3
37350	7	Sololá	701	Sololá	1	Sololá	7	Julio	2023-07-25T00:00:00	2024-11-08T07:00:00	7	Dirección del viento	11.27
37351	7	Sololá	701	Sololá	1	Sololá	7	Julio	2023-07-25T00:00:00	2024-11-08T07:00:00	1	Precipitación	0
37352	7	Sololá	701	Sololá	1	Sololá	7	Julio	2023-07-25T00:00:00	2024-11-08T07:00:00	8	Radiación solar	19
37353	7	Sololá	701	Sololá	1	Sololá	7	Julio	2023-07-25T00:00:00	2024-11-08T08:00:00	2	Temperatura media	18.4
37354	7	Sololá	701	Sololá	1	Sololá	7	Julio	2023-07-25T00:00:00	2024-11-08T08:00:00	4	Temperatura máxima	18.4
37355	7	Sololá	701	Sololá	1	Sololá	7	Julio	2023-07-25T00:00:00	2024-11-08T08:00:00	3	Temperatura mínima	16.5
37356	7	Sololá	701	Sololá	1	Sololá	7	Julio	2023-07-25T00:00:00	2024-11-08T08:00:00	5	Humedad	70
37357	7	Sololá	701	Sololá	1	Sololá	7	Julio	2023-07-25T00:00:00	2024-11-08T08:00:00	6	Velocidad del viento	9.7
37358	7	Sololá	701	Sololá	1	Sololá	7	Julio	2023-07-25T00:00:00	2024-11-08T08:00:00	7	Dirección del viento	9.66
37359	7	Sololá	701	Sololá	1	Sololá	7	Julio	2023-07-25T00:00:00	2024-11-08T08:00:00	1	Precipitación	0
37360	7	Sololá	701	Sololá	1	Sololá	7	Julio	2023-07-25T00:00:00	2024-11-08T08:00:00	8	Radiación solar	47
37361	7	Sololá	701	Sololá	1	Sololá	7	Julio	2023-07-25T00:00:00	2024-11-08T09:00:00	2	Temperatura media	20.1
37362	7	Sololá	701	Sololá	1	Sololá	7	Julio	2023-07-25T00:00:00	2024-11-08T09:00:00	4	Temperatura máxima	20.4
37363	7	Sololá	701	Sololá	1	Sololá	7	Julio	2023-07-25T00:00:00	2024-11-08T09:00:00	3	Temperatura mínima	18.4
37364	7	Sololá	701	Sololá	1	Sololá	7	Julio	2023-07-25T00:00:00	2024-11-08T09:00:00	5	Humedad	62
37365	7	Sololá	701	Sololá	1	Sololá	7	Julio	2023-07-25T00:00:00	2024-11-08T09:00:00	6	Velocidad del viento	4.8
37366	7	Sololá	701	Sololá	1	Sololá	7	Julio	2023-07-25T00:00:00	2024-11-08T09:00:00	7	Dirección del viento	4.83
37367	7	Sololá	701	Sololá	1	Sololá	7	Julio	2023-07-25T00:00:00	2024-11-08T09:00:00	1	Precipitación	0
37368	7	Sololá	701	Sololá	1	Sololá	7	Julio	2023-07-25T00:00:00	2024-11-08T09:00:00	8	Radiación solar	387
37369	7	Sololá	701	Sololá	1	Sololá	7	Julio	2023-07-25T00:00:00	2024-11-08T10:00:00	2	Temperatura media	21.4
37370	7	Sololá	701	Sololá	1	Sololá	7	Julio	2023-07-25T00:00:00	2024-11-08T10:00:00	4	Temperatura máxima	21.4
37371	7	Sololá	701	Sololá	1	Sololá	7	Julio	2023-07-25T00:00:00	2024-11-08T10:00:00	3	Temperatura mínima	19.9
37372	7	Sololá	701	Sololá	1	Sololá	7	Julio	2023-07-25T00:00:00	2024-11-08T10:00:00	5	Humedad	62
37373	7	Sololá	701	Sololá	1	Sololá	7	Julio	2023-07-25T00:00:00	2024-11-08T10:00:00	6	Velocidad del viento	9.7
37374	7	Sololá	701	Sololá	1	Sololá	7	Julio	2023-07-25T00:00:00	2024-11-08T10:00:00	7	Dirección del viento	9.66
37375	7	Sololá	701	Sololá	1	Sololá	7	Julio	2023-07-25T00:00:00	2024-11-08T10:00:00	1	Precipitación	0
37376	7	Sololá	701	Sololá	1	Sololá	7	Julio	2023-07-25T00:00:00	2024-11-08T10:00:00	8	Radiación solar	754
37377	7	Sololá	701	Sololá	1	Sololá	7	Julio	2023-07-25T00:00:00	2024-11-08T11:00:00	2	Temperatura media	22.1
37378	7	Sololá	701	Sololá	1	Sololá	7	Julio	2023-07-25T00:00:00	2024-11-08T11:00:00	4	Temperatura máxima	22.3
37379	7	Sololá	701	Sololá	1	Sololá	7	Julio	2023-07-25T00:00:00	2024-11-08T11:00:00	3	Temperatura mínima	21.1
37380	7	Sololá	701	Sololá	1	Sololá	7	Julio	2023-07-25T00:00:00	2024-11-08T11:00:00	5	Humedad	58
37381	7	Sololá	701	Sololá	1	Sololá	7	Julio	2023-07-25T00:00:00	2024-11-08T11:00:00	6	Velocidad del viento	12.9
37382	7	Sololá	701	Sololá	1	Sololá	7	Julio	2023-07-25T00:00:00	2024-11-08T11:00:00	7	Dirección del viento	12.87
37383	7	Sololá	701	Sololá	1	Sololá	7	Julio	2023-07-25T00:00:00	2024-11-08T11:00:00	1	Precipitación	0
37384	7	Sololá	701	Sololá	1	Sololá	7	Julio	2023-07-25T00:00:00	2024-11-08T11:00:00	8	Radiación solar	723
37385	7	Sololá	701	Sololá	1	Sololá	7	Julio	2023-07-25T00:00:00	2024-11-08T12:00:00	2	Temperatura media	22.2
37386	7	Sololá	701	Sololá	1	Sololá	7	Julio	2023-07-25T00:00:00	2024-11-08T12:00:00	4	Temperatura máxima	22.5
37387	7	Sololá	701	Sololá	1	Sololá	7	Julio	2023-07-25T00:00:00	2024-11-08T12:00:00	3	Temperatura mínima	21.7
37388	7	Sololá	701	Sololá	1	Sololá	7	Julio	2023-07-25T00:00:00	2024-11-08T12:00:00	5	Humedad	47
37389	7	Sololá	701	Sololá	1	Sololá	7	Julio	2023-07-25T00:00:00	2024-11-08T12:00:00	6	Velocidad del viento	12.9
37390	7	Sololá	701	Sololá	1	Sololá	7	Julio	2023-07-25T00:00:00	2024-11-08T12:00:00	7	Dirección del viento	12.87
37391	7	Sololá	701	Sololá	1	Sololá	7	Julio	2023-07-25T00:00:00	2024-11-08T12:00:00	1	Precipitación	0
37392	7	Sololá	701	Sololá	1	Sololá	7	Julio	2023-07-25T00:00:00	2024-11-08T12:00:00	8	Radiación solar	595
37393	7	Sololá	701	Sololá	1	Sololá	7	Julio	2023-07-25T00:00:00	2024-11-08T13:00:00	2	Temperatura media	24.2
37394	7	Sololá	701	Sololá	1	Sololá	7	Julio	2023-07-25T00:00:00	2024-11-08T13:00:00	4	Temperatura máxima	24.2
37395	7	Sololá	701	Sololá	1	Sololá	7	Julio	2023-07-25T00:00:00	2024-11-08T13:00:00	3	Temperatura mínima	22.3
37396	7	Sololá	701	Sololá	1	Sololá	7	Julio	2023-07-25T00:00:00	2024-11-08T13:00:00	5	Humedad	45
37397	7	Sololá	701	Sololá	1	Sololá	7	Julio	2023-07-25T00:00:00	2024-11-08T13:00:00	6	Velocidad del viento	8
37398	7	Sololá	701	Sololá	1	Sololá	7	Julio	2023-07-25T00:00:00	2024-11-08T13:00:00	7	Dirección del viento	8.05
37399	7	Sololá	701	Sololá	1	Sololá	7	Julio	2023-07-25T00:00:00	2024-11-08T13:00:00	1	Precipitación	0
37400	7	Sololá	701	Sololá	1	Sololá	7	Julio	2023-07-25T00:00:00	2024-11-08T13:00:00	8	Radiación solar	613
37401	7	Sololá	701	Sololá	1	Sololá	7	Julio	2023-07-25T00:00:00	2024-11-08T14:00:00	2	Temperatura media	23.5
37402	7	Sololá	701	Sololá	1	Sololá	7	Julio	2023-07-25T00:00:00	2024-11-08T14:00:00	4	Temperatura máxima	24.3
37403	7	Sololá	701	Sololá	1	Sololá	7	Julio	2023-07-25T00:00:00	2024-11-08T14:00:00	3	Temperatura mínima	23.2
37404	7	Sololá	701	Sololá	1	Sololá	7	Julio	2023-07-25T00:00:00	2024-11-08T14:00:00	5	Humedad	49
37405	7	Sololá	701	Sololá	1	Sololá	7	Julio	2023-07-25T00:00:00	2024-11-08T14:00:00	6	Velocidad del viento	11.3
37406	7	Sololá	701	Sololá	1	Sololá	7	Julio	2023-07-25T00:00:00	2024-11-08T14:00:00	7	Dirección del viento	11.27
37407	7	Sololá	701	Sololá	1	Sololá	7	Julio	2023-07-25T00:00:00	2024-11-08T14:00:00	1	Precipitación	0
37408	7	Sololá	701	Sololá	1	Sololá	7	Julio	2023-07-25T00:00:00	2024-11-08T14:00:00	8	Radiación solar	189
37409	7	Sololá	701	Sololá	1	Sololá	7	Julio	2023-07-25T00:00:00	2024-11-08T15:00:00	2	Temperatura media	23.6
37410	7	Sololá	701	Sololá	1	Sololá	7	Julio	2023-07-25T00:00:00	2024-11-08T15:00:00	4	Temperatura máxima	23.7
37411	7	Sololá	701	Sololá	1	Sololá	7	Julio	2023-07-25T00:00:00	2024-11-08T15:00:00	3	Temperatura mínima	22.9
37412	7	Sololá	701	Sololá	1	Sololá	7	Julio	2023-07-25T00:00:00	2024-11-08T15:00:00	5	Humedad	50
37413	7	Sololá	701	Sololá	1	Sololá	7	Julio	2023-07-25T00:00:00	2024-11-08T15:00:00	6	Velocidad del viento	11.3
37414	7	Sololá	701	Sololá	1	Sololá	7	Julio	2023-07-25T00:00:00	2024-11-08T15:00:00	7	Dirección del viento	11.27
37415	7	Sololá	701	Sololá	1	Sololá	7	Julio	2023-07-25T00:00:00	2024-11-08T15:00:00	1	Precipitación	0
37416	7	Sololá	701	Sololá	1	Sololá	7	Julio	2023-07-25T00:00:00	2024-11-08T15:00:00	8	Radiación solar	189
37417	7	Sololá	701	Sololá	1	Sololá	7	Julio	2023-07-25T00:00:00	2024-11-08T16:00:00	2	Temperatura media	22.3
37418	7	Sololá	701	Sololá	1	Sololá	7	Julio	2023-07-25T00:00:00	2024-11-08T16:00:00	4	Temperatura máxima	23.7
37419	7	Sololá	701	Sololá	1	Sololá	7	Julio	2023-07-25T00:00:00	2024-11-08T16:00:00	3	Temperatura mínima	21.8
37420	7	Sololá	701	Sololá	1	Sololá	7	Julio	2023-07-25T00:00:00	2024-11-08T16:00:00	5	Humedad	55
37421	7	Sololá	701	Sololá	1	Sololá	7	Julio	2023-07-25T00:00:00	2024-11-08T16:00:00	6	Velocidad del viento	12.9
37422	7	Sololá	701	Sololá	1	Sololá	7	Julio	2023-07-25T00:00:00	2024-11-08T16:00:00	7	Dirección del viento	12.87
37423	7	Sololá	701	Sololá	1	Sololá	7	Julio	2023-07-25T00:00:00	2024-11-08T16:00:00	1	Precipitación	0
37424	7	Sololá	701	Sololá	1	Sololá	7	Julio	2023-07-25T00:00:00	2024-11-08T16:00:00	8	Radiación solar	145
37425	7	Sololá	701	Sololá	1	Sololá	7	Julio	2023-07-25T00:00:00	2024-11-08T17:00:00	2	Temperatura media	21.7
37426	7	Sololá	701	Sololá	1	Sololá	7	Julio	2023-07-25T00:00:00	2024-11-08T17:00:00	4	Temperatura máxima	22.3
37427	7	Sololá	701	Sololá	1	Sololá	7	Julio	2023-07-25T00:00:00	2024-11-08T17:00:00	3	Temperatura mínima	21.4
37428	7	Sololá	701	Sololá	1	Sololá	7	Julio	2023-07-25T00:00:00	2024-11-08T17:00:00	5	Humedad	57
37429	7	Sololá	701	Sololá	1	Sololá	7	Julio	2023-07-25T00:00:00	2024-11-08T17:00:00	6	Velocidad del viento	14.5
37430	7	Sololá	701	Sololá	1	Sololá	7	Julio	2023-07-25T00:00:00	2024-11-08T17:00:00	7	Dirección del viento	14.48
37431	7	Sololá	701	Sololá	1	Sololá	7	Julio	2023-07-25T00:00:00	2024-11-08T17:00:00	1	Precipitación	0
37432	7	Sololá	701	Sololá	1	Sololá	7	Julio	2023-07-25T00:00:00	2024-11-08T17:00:00	8	Radiación solar	74
37433	7	Sololá	701	Sololá	1	Sololá	7	Julio	2023-07-25T00:00:00	2024-11-08T18:00:00	2	Temperatura media	19.7
37434	7	Sololá	701	Sololá	1	Sololá	7	Julio	2023-07-25T00:00:00	2024-11-08T18:00:00	4	Temperatura máxima	21.7
37435	7	Sololá	701	Sololá	1	Sololá	7	Julio	2023-07-25T00:00:00	2024-11-08T18:00:00	3	Temperatura mínima	19.7
37436	7	Sololá	701	Sololá	1	Sololá	7	Julio	2023-07-25T00:00:00	2024-11-08T18:00:00	5	Humedad	62
37437	7	Sololá	701	Sololá	1	Sololá	7	Julio	2023-07-25T00:00:00	2024-11-08T18:00:00	6	Velocidad del viento	12.9
37438	7	Sololá	701	Sololá	1	Sololá	7	Julio	2023-07-25T00:00:00	2024-11-08T18:00:00	7	Dirección del viento	12.87
37439	7	Sololá	701	Sololá	1	Sololá	7	Julio	2023-07-25T00:00:00	2024-11-08T18:00:00	1	Precipitación	0
37440	7	Sololá	701	Sololá	1	Sololá	7	Julio	2023-07-25T00:00:00	2024-11-08T18:00:00	8	Radiación solar	55
37441	7	Sololá	701	Sololá	1	Sololá	7	Julio	2023-07-25T00:00:00	2024-11-08T19:00:00	2	Temperatura media	18.4
37442	7	Sololá	701	Sololá	1	Sololá	7	Julio	2023-07-25T00:00:00	2024-11-08T19:00:00	4	Temperatura máxima	19.7
37443	7	Sololá	701	Sololá	1	Sololá	7	Julio	2023-07-25T00:00:00	2024-11-08T19:00:00	3	Temperatura mínima	18.4
37444	7	Sololá	701	Sololá	1	Sololá	7	Julio	2023-07-25T00:00:00	2024-11-08T19:00:00	5	Humedad	69
37445	7	Sololá	701	Sololá	1	Sololá	7	Julio	2023-07-25T00:00:00	2024-11-08T19:00:00	6	Velocidad del viento	11.3
37446	7	Sololá	701	Sololá	1	Sololá	7	Julio	2023-07-25T00:00:00	2024-11-08T19:00:00	7	Dirección del viento	11.27
37447	7	Sololá	701	Sololá	1	Sololá	7	Julio	2023-07-25T00:00:00	2024-11-08T19:00:00	1	Precipitación	0
37448	7	Sololá	701	Sololá	1	Sololá	7	Julio	2023-07-25T00:00:00	2024-11-08T19:00:00	8	Radiación solar	0
37449	7	Sololá	701	Sololá	1	Sololá	7	Julio	2023-07-25T00:00:00	2024-11-08T20:00:00	2	Temperatura media	17.6
37450	7	Sololá	701	Sololá	1	Sololá	7	Julio	2023-07-25T00:00:00	2024-11-08T20:00:00	4	Temperatura máxima	18.4
37451	7	Sololá	701	Sololá	1	Sololá	7	Julio	2023-07-25T00:00:00	2024-11-08T20:00:00	3	Temperatura mínima	17.6
37452	7	Sololá	701	Sololá	1	Sololá	7	Julio	2023-07-25T00:00:00	2024-11-08T20:00:00	5	Humedad	77
37453	7	Sololá	701	Sololá	1	Sololá	7	Julio	2023-07-25T00:00:00	2024-11-08T20:00:00	6	Velocidad del viento	8
37454	7	Sololá	701	Sololá	1	Sololá	7	Julio	2023-07-25T00:00:00	2024-11-08T20:00:00	7	Dirección del viento	8.05
37455	7	Sololá	701	Sololá	1	Sololá	7	Julio	2023-07-25T00:00:00	2024-11-08T20:00:00	1	Precipitación	0
37456	7	Sololá	701	Sololá	1	Sololá	7	Julio	2023-07-25T00:00:00	2024-11-08T20:00:00	8	Radiación solar	0
37457	7	Sololá	701	Sololá	1	Sololá	7	Julio	2023-07-25T00:00:00	2024-11-08T21:00:00	2	Temperatura media	16.9
37458	7	Sololá	701	Sololá	1	Sololá	7	Julio	2023-07-25T00:00:00	2024-11-08T21:00:00	4	Temperatura máxima	17.6
37459	7	Sololá	701	Sololá	1	Sololá	7	Julio	2023-07-25T00:00:00	2024-11-08T21:00:00	3	Temperatura mínima	16.9
37460	7	Sololá	701	Sololá	1	Sololá	7	Julio	2023-07-25T00:00:00	2024-11-08T21:00:00	5	Humedad	78
37461	7	Sololá	701	Sololá	1	Sololá	7	Julio	2023-07-25T00:00:00	2024-11-08T21:00:00	6	Velocidad del viento	9.7
37462	7	Sololá	701	Sololá	1	Sololá	7	Julio	2023-07-25T00:00:00	2024-11-08T21:00:00	7	Dirección del viento	9.66
37463	7	Sololá	701	Sololá	1	Sololá	7	Julio	2023-07-25T00:00:00	2024-11-08T21:00:00	1	Precipitación	0
37464	7	Sololá	701	Sololá	1	Sololá	7	Julio	2023-07-25T00:00:00	2024-11-08T21:00:00	8	Radiación solar	0
37465	7	Sololá	701	Sololá	1	Sololá	7	Julio	2023-07-25T00:00:00	2024-11-08T22:00:00	2	Temperatura media	16.4
37466	7	Sololá	701	Sololá	1	Sololá	7	Julio	2023-07-25T00:00:00	2024-11-08T22:00:00	4	Temperatura máxima	16.9
37467	7	Sololá	701	Sololá	1	Sololá	7	Julio	2023-07-25T00:00:00	2024-11-08T22:00:00	3	Temperatura mínima	16.4
37468	7	Sololá	701	Sololá	1	Sololá	7	Julio	2023-07-25T00:00:00	2024-11-08T22:00:00	5	Humedad	75
37469	7	Sololá	701	Sololá	1	Sololá	7	Julio	2023-07-25T00:00:00	2024-11-08T22:00:00	6	Velocidad del viento	8
37470	7	Sololá	701	Sololá	1	Sololá	7	Julio	2023-07-25T00:00:00	2024-11-08T22:00:00	7	Dirección del viento	8.05
37471	7	Sololá	701	Sololá	1	Sololá	7	Julio	2023-07-25T00:00:00	2024-11-08T22:00:00	1	Precipitación	0
37472	7	Sololá	701	Sololá	1	Sololá	7	Julio	2023-07-25T00:00:00	2024-11-08T22:00:00	8	Radiación solar	0
37473	7	Sololá	701	Sololá	1	Sololá	7	Julio	2023-07-25T00:00:00	2024-11-08T23:00:00	2	Temperatura media	15.3
37474	7	Sololá	701	Sololá	1	Sololá	7	Julio	2023-07-25T00:00:00	2024-11-08T23:00:00	4	Temperatura máxima	16.4
37475	7	Sololá	701	Sololá	1	Sololá	7	Julio	2023-07-25T00:00:00	2024-11-08T23:00:00	3	Temperatura mínima	15.3
37476	7	Sololá	701	Sololá	1	Sololá	7	Julio	2023-07-25T00:00:00	2024-11-08T23:00:00	5	Humedad	67
37477	7	Sololá	701	Sololá	1	Sololá	7	Julio	2023-07-25T00:00:00	2024-11-08T23:00:00	6	Velocidad del viento	14.5
37478	7	Sololá	701	Sololá	1	Sololá	7	Julio	2023-07-25T00:00:00	2024-11-08T23:00:00	7	Dirección del viento	14.48
37479	7	Sololá	701	Sololá	1	Sololá	7	Julio	2023-07-25T00:00:00	2024-11-08T23:00:00	1	Precipitación	0
37480	7	Sololá	701	Sololá	1	Sololá	7	Julio	2023-07-25T00:00:00	2024-11-08T23:00:00	8	Radiación solar	0
37481	7	Sololá	701	Sololá	1	Sololá	7	Julio	2023-07-26T00:00:00	2024-11-08T00:00:00	2	Temperatura media	15.3
37482	7	Sololá	701	Sololá	1	Sololá	7	Julio	2023-07-26T00:00:00	2024-11-08T00:00:00	4	Temperatura máxima	15.4
37483	7	Sololá	701	Sololá	1	Sololá	7	Julio	2023-07-26T00:00:00	2024-11-08T00:00:00	3	Temperatura mínima	15.2
37484	7	Sololá	701	Sololá	1	Sololá	7	Julio	2023-07-26T00:00:00	2024-11-08T00:00:00	5	Humedad	55
37485	7	Sololá	701	Sololá	1	Sololá	7	Julio	2023-07-26T00:00:00	2024-11-08T00:00:00	6	Velocidad del viento	14.5
37486	7	Sololá	701	Sololá	1	Sololá	7	Julio	2023-07-26T00:00:00	2024-11-08T00:00:00	7	Dirección del viento	14.48
37487	7	Sololá	701	Sololá	1	Sololá	7	Julio	2023-07-26T00:00:00	2024-11-08T00:00:00	1	Precipitación	0
37488	7	Sololá	701	Sololá	1	Sololá	7	Julio	2023-07-26T00:00:00	2024-11-08T00:00:00	8	Radiación solar	0
37489	7	Sololá	701	Sololá	1	Sololá	7	Julio	2023-07-26T00:00:00	2024-11-08T01:00:00	2	Temperatura media	15.3
37490	7	Sololá	701	Sololá	1	Sololá	7	Julio	2023-07-26T00:00:00	2024-11-08T01:00:00	4	Temperatura máxima	15.4
37491	7	Sololá	701	Sololá	1	Sololá	7	Julio	2023-07-26T00:00:00	2024-11-08T01:00:00	3	Temperatura mínima	15.3
37492	7	Sololá	701	Sololá	1	Sololá	7	Julio	2023-07-26T00:00:00	2024-11-08T01:00:00	5	Humedad	57
37493	7	Sololá	701	Sololá	1	Sololá	7	Julio	2023-07-26T00:00:00	2024-11-08T01:00:00	6	Velocidad del viento	16.1
37494	7	Sololá	701	Sololá	1	Sololá	7	Julio	2023-07-26T00:00:00	2024-11-08T01:00:00	7	Dirección del viento	16.09
37495	7	Sololá	701	Sololá	1	Sololá	7	Julio	2023-07-26T00:00:00	2024-11-08T01:00:00	1	Precipitación	0
37496	7	Sololá	701	Sololá	1	Sololá	7	Julio	2023-07-26T00:00:00	2024-11-08T01:00:00	8	Radiación solar	0
37497	7	Sololá	701	Sololá	1	Sololá	7	Julio	2023-07-26T00:00:00	2024-11-08T02:00:00	2	Temperatura media	15.2
37498	7	Sololá	701	Sololá	1	Sololá	7	Julio	2023-07-26T00:00:00	2024-11-08T02:00:00	4	Temperatura máxima	15.4
37499	7	Sololá	701	Sololá	1	Sololá	7	Julio	2023-07-26T00:00:00	2024-11-08T02:00:00	3	Temperatura mínima	14.9
37500	7	Sololá	701	Sololá	1	Sololá	7	Julio	2023-07-26T00:00:00	2024-11-08T02:00:00	5	Humedad	62
37501	7	Sololá	701	Sololá	1	Sololá	7	Julio	2023-07-26T00:00:00	2024-11-08T02:00:00	6	Velocidad del viento	11.3
37502	7	Sololá	701	Sololá	1	Sololá	7	Julio	2023-07-26T00:00:00	2024-11-08T02:00:00	7	Dirección del viento	11.27
37503	7	Sololá	701	Sololá	1	Sololá	7	Julio	2023-07-26T00:00:00	2024-11-08T02:00:00	1	Precipitación	0
37504	7	Sololá	701	Sololá	1	Sololá	7	Julio	2023-07-26T00:00:00	2024-11-08T02:00:00	8	Radiación solar	0
37505	7	Sololá	701	Sololá	1	Sololá	7	Julio	2023-07-26T00:00:00	2024-11-08T03:00:00	2	Temperatura media	14.9
37506	7	Sololá	701	Sololá	1	Sololá	7	Julio	2023-07-26T00:00:00	2024-11-08T03:00:00	4	Temperatura máxima	15.3
37507	7	Sololá	701	Sololá	1	Sololá	7	Julio	2023-07-26T00:00:00	2024-11-08T03:00:00	3	Temperatura mínima	14.8
37508	7	Sololá	701	Sololá	1	Sololá	7	Julio	2023-07-26T00:00:00	2024-11-08T03:00:00	5	Humedad	63
37509	7	Sololá	701	Sololá	1	Sololá	7	Julio	2023-07-26T00:00:00	2024-11-08T03:00:00	6	Velocidad del viento	22.5
37510	7	Sololá	701	Sololá	1	Sololá	7	Julio	2023-07-26T00:00:00	2024-11-08T03:00:00	7	Dirección del viento	22.53
37511	7	Sololá	701	Sololá	1	Sololá	7	Julio	2023-07-26T00:00:00	2024-11-08T03:00:00	1	Precipitación	0
37512	7	Sololá	701	Sololá	1	Sololá	7	Julio	2023-07-26T00:00:00	2024-11-08T03:00:00	8	Radiación solar	0
37513	7	Sololá	701	Sololá	1	Sololá	7	Julio	2023-07-26T00:00:00	2024-11-08T04:00:00	2	Temperatura media	14.9
37514	7	Sololá	701	Sololá	1	Sololá	7	Julio	2023-07-26T00:00:00	2024-11-08T04:00:00	4	Temperatura máxima	15.2
37515	7	Sololá	701	Sololá	1	Sololá	7	Julio	2023-07-26T00:00:00	2024-11-08T04:00:00	3	Temperatura mínima	14.9
37516	7	Sololá	701	Sololá	1	Sololá	7	Julio	2023-07-26T00:00:00	2024-11-08T04:00:00	5	Humedad	67
37517	7	Sololá	701	Sololá	1	Sololá	7	Julio	2023-07-26T00:00:00	2024-11-08T04:00:00	6	Velocidad del viento	17.7
37518	7	Sololá	701	Sololá	1	Sololá	7	Julio	2023-07-26T00:00:00	2024-11-08T04:00:00	7	Dirección del viento	17.7
37519	7	Sololá	701	Sololá	1	Sololá	7	Julio	2023-07-26T00:00:00	2024-11-08T04:00:00	1	Precipitación	0
37520	7	Sololá	701	Sololá	1	Sololá	7	Julio	2023-07-26T00:00:00	2024-11-08T04:00:00	8	Radiación solar	0
37521	7	Sololá	701	Sololá	1	Sololá	7	Julio	2023-07-26T00:00:00	2024-11-08T05:00:00	2	Temperatura media	15.2
37522	7	Sololá	701	Sololá	1	Sololá	7	Julio	2023-07-26T00:00:00	2024-11-08T05:00:00	4	Temperatura máxima	15.2
37523	7	Sololá	701	Sololá	1	Sololá	7	Julio	2023-07-26T00:00:00	2024-11-08T05:00:00	3	Temperatura mínima	14.9
37524	7	Sololá	701	Sololá	1	Sololá	7	Julio	2023-07-26T00:00:00	2024-11-08T05:00:00	5	Humedad	67
37525	7	Sololá	701	Sololá	1	Sololá	7	Julio	2023-07-26T00:00:00	2024-11-08T05:00:00	6	Velocidad del viento	14.5
37526	7	Sololá	701	Sololá	1	Sololá	7	Julio	2023-07-26T00:00:00	2024-11-08T05:00:00	7	Dirección del viento	14.48
37527	7	Sololá	701	Sololá	1	Sololá	7	Julio	2023-07-26T00:00:00	2024-11-08T05:00:00	1	Precipitación	0
37528	7	Sololá	701	Sololá	1	Sololá	7	Julio	2023-07-26T00:00:00	2024-11-08T05:00:00	8	Radiación solar	0
37529	7	Sololá	701	Sololá	1	Sololá	7	Julio	2023-07-26T00:00:00	2024-11-08T06:00:00	2	Temperatura media	15.3
37530	7	Sololá	701	Sololá	1	Sololá	7	Julio	2023-07-26T00:00:00	2024-11-08T06:00:00	4	Temperatura máxima	15.4
37531	7	Sololá	701	Sololá	1	Sololá	7	Julio	2023-07-26T00:00:00	2024-11-08T06:00:00	3	Temperatura mínima	15.1
37532	7	Sololá	701	Sololá	1	Sololá	7	Julio	2023-07-26T00:00:00	2024-11-08T06:00:00	5	Humedad	61
37533	7	Sololá	701	Sololá	1	Sololá	7	Julio	2023-07-26T00:00:00	2024-11-08T06:00:00	6	Velocidad del viento	11.3
37534	7	Sololá	701	Sololá	1	Sololá	7	Julio	2023-07-26T00:00:00	2024-11-08T06:00:00	7	Dirección del viento	11.27
37535	7	Sololá	701	Sololá	1	Sololá	7	Julio	2023-07-26T00:00:00	2024-11-08T06:00:00	1	Precipitación	0
37536	7	Sololá	701	Sololá	1	Sololá	7	Julio	2023-07-26T00:00:00	2024-11-08T06:00:00	8	Radiación solar	2
37537	7	Sololá	701	Sololá	1	Sololá	7	Julio	2023-07-26T00:00:00	2024-11-08T07:00:00	2	Temperatura media	16.6
37538	7	Sololá	701	Sololá	1	Sololá	7	Julio	2023-07-26T00:00:00	2024-11-08T07:00:00	4	Temperatura máxima	16.6
37539	7	Sololá	701	Sololá	1	Sololá	7	Julio	2023-07-26T00:00:00	2024-11-08T07:00:00	3	Temperatura mínima	15.2
37540	7	Sololá	701	Sololá	1	Sololá	7	Julio	2023-07-26T00:00:00	2024-11-08T07:00:00	5	Humedad	54
37541	7	Sololá	701	Sololá	1	Sololá	7	Julio	2023-07-26T00:00:00	2024-11-08T07:00:00	6	Velocidad del viento	17.7
37542	7	Sololá	701	Sololá	1	Sololá	7	Julio	2023-07-26T00:00:00	2024-11-08T07:00:00	7	Dirección del viento	17.7
37543	7	Sololá	701	Sololá	1	Sololá	7	Julio	2023-07-26T00:00:00	2024-11-08T07:00:00	1	Precipitación	0
37544	7	Sololá	701	Sololá	1	Sololá	7	Julio	2023-07-26T00:00:00	2024-11-08T07:00:00	8	Radiación solar	37
37545	7	Sololá	701	Sololá	1	Sololá	7	Julio	2023-07-26T00:00:00	2024-11-08T08:00:00	2	Temperatura media	17.9
37546	7	Sololá	701	Sololá	1	Sololá	7	Julio	2023-07-26T00:00:00	2024-11-08T08:00:00	4	Temperatura máxima	17.9
37547	7	Sololá	701	Sololá	1	Sololá	7	Julio	2023-07-26T00:00:00	2024-11-08T08:00:00	3	Temperatura mínima	16.6
37548	7	Sololá	701	Sololá	1	Sololá	7	Julio	2023-07-26T00:00:00	2024-11-08T08:00:00	5	Humedad	55
37549	7	Sololá	701	Sololá	1	Sololá	7	Julio	2023-07-26T00:00:00	2024-11-08T08:00:00	6	Velocidad del viento	14.5
37550	7	Sololá	701	Sololá	1	Sololá	7	Julio	2023-07-26T00:00:00	2024-11-08T08:00:00	7	Dirección del viento	14.48
37551	7	Sololá	701	Sololá	1	Sololá	7	Julio	2023-07-26T00:00:00	2024-11-08T08:00:00	1	Precipitación	0
37552	7	Sololá	701	Sololá	1	Sololá	7	Julio	2023-07-26T00:00:00	2024-11-08T08:00:00	8	Radiación solar	64
37553	7	Sololá	701	Sololá	1	Sololá	7	Julio	2023-07-26T00:00:00	2024-11-08T09:00:00	2	Temperatura media	19.4
37554	7	Sololá	701	Sololá	1	Sololá	7	Julio	2023-07-26T00:00:00	2024-11-08T09:00:00	4	Temperatura máxima	19.4
37555	7	Sololá	701	Sololá	1	Sololá	7	Julio	2023-07-26T00:00:00	2024-11-08T09:00:00	3	Temperatura mínima	17.9
37556	7	Sololá	701	Sololá	1	Sololá	7	Julio	2023-07-26T00:00:00	2024-11-08T09:00:00	5	Humedad	56
37557	7	Sololá	701	Sololá	1	Sololá	7	Julio	2023-07-26T00:00:00	2024-11-08T09:00:00	6	Velocidad del viento	14.5
37558	7	Sololá	701	Sololá	1	Sololá	7	Julio	2023-07-26T00:00:00	2024-11-08T09:00:00	7	Dirección del viento	14.48
37559	7	Sololá	701	Sololá	1	Sololá	7	Julio	2023-07-26T00:00:00	2024-11-08T09:00:00	1	Precipitación	0
37560	7	Sololá	701	Sololá	1	Sololá	7	Julio	2023-07-26T00:00:00	2024-11-08T09:00:00	8	Radiación solar	379
37561	7	Sololá	701	Sololá	1	Sololá	7	Julio	2023-07-26T00:00:00	2024-11-08T10:00:00	2	Temperatura media	20.5
37562	7	Sololá	701	Sololá	1	Sololá	7	Julio	2023-07-26T00:00:00	2024-11-08T10:00:00	4	Temperatura máxima	20.7
37563	7	Sololá	701	Sololá	1	Sololá	7	Julio	2023-07-26T00:00:00	2024-11-08T10:00:00	3	Temperatura mínima	19.4
37564	7	Sololá	701	Sololá	1	Sololá	7	Julio	2023-07-26T00:00:00	2024-11-08T10:00:00	5	Humedad	54
37565	7	Sololá	701	Sololá	1	Sololá	7	Julio	2023-07-26T00:00:00	2024-11-08T10:00:00	6	Velocidad del viento	16.1
37566	7	Sololá	701	Sololá	1	Sololá	7	Julio	2023-07-26T00:00:00	2024-11-08T10:00:00	7	Dirección del viento	16.09
37567	7	Sololá	701	Sololá	1	Sololá	7	Julio	2023-07-26T00:00:00	2024-11-08T10:00:00	1	Precipitación	0
37568	7	Sololá	701	Sololá	1	Sololá	7	Julio	2023-07-26T00:00:00	2024-11-08T10:00:00	8	Radiación solar	756
37569	7	Sololá	701	Sololá	1	Sololá	7	Julio	2023-07-26T00:00:00	2024-11-08T11:00:00	2	Temperatura media	21.6
37570	7	Sololá	701	Sololá	1	Sololá	7	Julio	2023-07-26T00:00:00	2024-11-08T11:00:00	4	Temperatura máxima	21.9
37571	7	Sololá	701	Sololá	1	Sololá	7	Julio	2023-07-26T00:00:00	2024-11-08T11:00:00	3	Temperatura mínima	20.4
37572	7	Sololá	701	Sololá	1	Sololá	7	Julio	2023-07-26T00:00:00	2024-11-08T11:00:00	5	Humedad	55
37573	7	Sololá	701	Sololá	1	Sololá	7	Julio	2023-07-26T00:00:00	2024-11-08T11:00:00	6	Velocidad del viento	17.7
37574	7	Sololá	701	Sololá	1	Sololá	7	Julio	2023-07-26T00:00:00	2024-11-08T11:00:00	7	Dirección del viento	17.7
37575	7	Sololá	701	Sololá	1	Sololá	7	Julio	2023-07-26T00:00:00	2024-11-08T11:00:00	1	Precipitación	0
37576	7	Sololá	701	Sololá	1	Sololá	7	Julio	2023-07-26T00:00:00	2024-11-08T11:00:00	8	Radiación solar	867
37577	7	Sololá	701	Sololá	1	Sololá	7	Julio	2023-07-26T00:00:00	2024-11-08T12:00:00	2	Temperatura media	22.4
37578	7	Sololá	701	Sololá	1	Sololá	7	Julio	2023-07-26T00:00:00	2024-11-08T12:00:00	4	Temperatura máxima	22.4
37579	7	Sololá	701	Sololá	1	Sololá	7	Julio	2023-07-26T00:00:00	2024-11-08T12:00:00	3	Temperatura mínima	21.6
37580	7	Sololá	701	Sololá	1	Sololá	7	Julio	2023-07-26T00:00:00	2024-11-08T12:00:00	5	Humedad	50
37581	7	Sololá	701	Sololá	1	Sololá	7	Julio	2023-07-26T00:00:00	2024-11-08T12:00:00	6	Velocidad del viento	16.1
37582	7	Sololá	701	Sololá	1	Sololá	7	Julio	2023-07-26T00:00:00	2024-11-08T12:00:00	7	Dirección del viento	16.09
37583	7	Sololá	701	Sololá	1	Sololá	7	Julio	2023-07-26T00:00:00	2024-11-08T12:00:00	1	Precipitación	0
37584	7	Sololá	701	Sololá	1	Sololá	7	Julio	2023-07-26T00:00:00	2024-11-08T12:00:00	8	Radiación solar	400
37585	7	Sololá	701	Sololá	1	Sololá	7	Julio	2023-07-26T00:00:00	2024-11-08T13:00:00	2	Temperatura media	23.2
37586	7	Sololá	701	Sololá	1	Sololá	7	Julio	2023-07-26T00:00:00	2024-11-08T13:00:00	4	Temperatura máxima	23.3
37587	7	Sololá	701	Sololá	1	Sololá	7	Julio	2023-07-26T00:00:00	2024-11-08T13:00:00	3	Temperatura mínima	22.1
37588	7	Sololá	701	Sololá	1	Sololá	7	Julio	2023-07-26T00:00:00	2024-11-08T13:00:00	5	Humedad	50
37589	7	Sololá	701	Sololá	1	Sololá	7	Julio	2023-07-26T00:00:00	2024-11-08T13:00:00	6	Velocidad del viento	14.5
37590	7	Sololá	701	Sololá	1	Sololá	7	Julio	2023-07-26T00:00:00	2024-11-08T13:00:00	7	Dirección del viento	14.48
37591	7	Sololá	701	Sololá	1	Sololá	7	Julio	2023-07-26T00:00:00	2024-11-08T13:00:00	1	Precipitación	0
37592	7	Sololá	701	Sololá	1	Sololá	7	Julio	2023-07-26T00:00:00	2024-11-08T13:00:00	8	Radiación solar	245
37593	7	Sololá	701	Sololá	1	Sololá	7	Julio	2023-07-26T00:00:00	2024-11-08T14:00:00	2	Temperatura media	23.1
37594	7	Sololá	701	Sololá	1	Sololá	7	Julio	2023-07-26T00:00:00	2024-11-08T14:00:00	4	Temperatura máxima	23.3
37595	7	Sololá	701	Sololá	1	Sololá	7	Julio	2023-07-26T00:00:00	2024-11-08T14:00:00	3	Temperatura mínima	21.8
37596	7	Sololá	701	Sololá	1	Sololá	7	Julio	2023-07-26T00:00:00	2024-11-08T14:00:00	5	Humedad	54
37597	7	Sololá	701	Sololá	1	Sololá	7	Julio	2023-07-26T00:00:00	2024-11-08T14:00:00	6	Velocidad del viento	14.5
37598	7	Sololá	701	Sololá	1	Sololá	7	Julio	2023-07-26T00:00:00	2024-11-08T14:00:00	7	Dirección del viento	14.48
37599	7	Sololá	701	Sololá	1	Sololá	7	Julio	2023-07-26T00:00:00	2024-11-08T14:00:00	1	Precipitación	0
37600	7	Sololá	701	Sololá	1	Sololá	7	Julio	2023-07-26T00:00:00	2024-11-08T14:00:00	8	Radiación solar	231
37601	7	Sololá	701	Sololá	1	Sololá	7	Julio	2023-07-26T00:00:00	2024-11-08T15:00:00	2	Temperatura media	22.8
37602	7	Sololá	701	Sololá	1	Sololá	7	Julio	2023-07-26T00:00:00	2024-11-08T15:00:00	4	Temperatura máxima	23.7
37603	7	Sololá	701	Sololá	1	Sololá	7	Julio	2023-07-26T00:00:00	2024-11-08T15:00:00	3	Temperatura mínima	22.3
37604	7	Sololá	701	Sololá	1	Sololá	7	Julio	2023-07-26T00:00:00	2024-11-08T15:00:00	5	Humedad	58
37605	7	Sololá	701	Sololá	1	Sololá	7	Julio	2023-07-26T00:00:00	2024-11-08T15:00:00	6	Velocidad del viento	12.9
37606	7	Sololá	701	Sololá	1	Sololá	7	Julio	2023-07-26T00:00:00	2024-11-08T15:00:00	7	Dirección del viento	12.87
37607	7	Sololá	701	Sololá	1	Sololá	7	Julio	2023-07-26T00:00:00	2024-11-08T15:00:00	1	Precipitación	0
37608	7	Sololá	701	Sololá	1	Sololá	7	Julio	2023-07-26T00:00:00	2024-11-08T15:00:00	8	Radiación solar	190
37609	7	Sololá	701	Sololá	1	Sololá	7	Julio	2023-07-26T00:00:00	2024-11-08T16:00:00	2	Temperatura media	21.8
37610	7	Sololá	701	Sololá	1	Sololá	7	Julio	2023-07-26T00:00:00	2024-11-08T16:00:00	4	Temperatura máxima	22.7
37611	7	Sololá	701	Sololá	1	Sololá	7	Julio	2023-07-26T00:00:00	2024-11-08T16:00:00	3	Temperatura mínima	21.4
37612	7	Sololá	701	Sololá	1	Sololá	7	Julio	2023-07-26T00:00:00	2024-11-08T16:00:00	5	Humedad	62
37613	7	Sololá	701	Sololá	1	Sololá	7	Julio	2023-07-26T00:00:00	2024-11-08T16:00:00	6	Velocidad del viento	12.9
37614	7	Sololá	701	Sololá	1	Sololá	7	Julio	2023-07-26T00:00:00	2024-11-08T16:00:00	7	Dirección del viento	12.87
37615	7	Sololá	701	Sololá	1	Sololá	7	Julio	2023-07-26T00:00:00	2024-11-08T16:00:00	1	Precipitación	0
37616	7	Sololá	701	Sololá	1	Sololá	7	Julio	2023-07-26T00:00:00	2024-11-08T16:00:00	8	Radiación solar	122
37617	7	Sololá	701	Sololá	1	Sololá	7	Julio	2023-07-26T00:00:00	2024-11-08T17:00:00	2	Temperatura media	20.7
37618	7	Sololá	701	Sololá	1	Sololá	7	Julio	2023-07-26T00:00:00	2024-11-08T17:00:00	4	Temperatura máxima	21.9
37619	7	Sololá	701	Sololá	1	Sololá	7	Julio	2023-07-26T00:00:00	2024-11-08T17:00:00	3	Temperatura mínima	20.4
37620	7	Sololá	701	Sololá	1	Sololá	7	Julio	2023-07-26T00:00:00	2024-11-08T17:00:00	5	Humedad	63
37621	7	Sololá	701	Sololá	1	Sololá	7	Julio	2023-07-26T00:00:00	2024-11-08T17:00:00	6	Velocidad del viento	16.1
37622	7	Sololá	701	Sololá	1	Sololá	7	Julio	2023-07-26T00:00:00	2024-11-08T17:00:00	7	Dirección del viento	16.09
37623	7	Sololá	701	Sololá	1	Sololá	7	Julio	2023-07-26T00:00:00	2024-11-08T17:00:00	1	Precipitación	0
37624	7	Sololá	701	Sololá	1	Sololá	7	Julio	2023-07-26T00:00:00	2024-11-08T17:00:00	8	Radiación solar	107
37625	7	Sololá	701	Sololá	1	Sololá	7	Julio	2023-07-26T00:00:00	2024-11-08T18:00:00	2	Temperatura media	19.6
37626	7	Sololá	701	Sololá	1	Sololá	7	Julio	2023-07-26T00:00:00	2024-11-08T18:00:00	4	Temperatura máxima	20.7
37627	7	Sololá	701	Sololá	1	Sololá	7	Julio	2023-07-26T00:00:00	2024-11-08T18:00:00	3	Temperatura mínima	19.6
37628	7	Sololá	701	Sololá	1	Sololá	7	Julio	2023-07-26T00:00:00	2024-11-08T18:00:00	5	Humedad	67
37629	7	Sololá	701	Sololá	1	Sololá	7	Julio	2023-07-26T00:00:00	2024-11-08T18:00:00	6	Velocidad del viento	8
37630	7	Sololá	701	Sololá	1	Sololá	7	Julio	2023-07-26T00:00:00	2024-11-08T18:00:00	7	Dirección del viento	8.05
37631	7	Sololá	701	Sololá	1	Sololá	7	Julio	2023-07-26T00:00:00	2024-11-08T18:00:00	1	Precipitación	0
37632	7	Sololá	701	Sololá	1	Sololá	7	Julio	2023-07-26T00:00:00	2024-11-08T18:00:00	8	Radiación solar	44
37633	7	Sololá	701	Sololá	1	Sololá	7	Julio	2023-07-26T00:00:00	2024-11-08T19:00:00	2	Temperatura media	17.9
37634	7	Sololá	701	Sololá	1	Sololá	7	Julio	2023-07-26T00:00:00	2024-11-08T19:00:00	4	Temperatura máxima	19.6
37635	7	Sololá	701	Sololá	1	Sololá	7	Julio	2023-07-26T00:00:00	2024-11-08T19:00:00	3	Temperatura mínima	17.9
37636	7	Sololá	701	Sololá	1	Sololá	7	Julio	2023-07-26T00:00:00	2024-11-08T19:00:00	5	Humedad	73
37637	7	Sololá	701	Sololá	1	Sololá	7	Julio	2023-07-26T00:00:00	2024-11-08T19:00:00	6	Velocidad del viento	6.4
37638	7	Sololá	701	Sololá	1	Sololá	7	Julio	2023-07-26T00:00:00	2024-11-08T19:00:00	7	Dirección del viento	6.44
37639	7	Sololá	701	Sololá	1	Sololá	7	Julio	2023-07-26T00:00:00	2024-11-08T19:00:00	1	Precipitación	0
37640	7	Sololá	701	Sololá	1	Sololá	7	Julio	2023-07-26T00:00:00	2024-11-08T19:00:00	8	Radiación solar	0
37641	7	Sololá	701	Sololá	1	Sololá	7	Julio	2023-07-26T00:00:00	2024-11-08T20:00:00	2	Temperatura media	17.2
37642	7	Sololá	701	Sololá	1	Sololá	7	Julio	2023-07-26T00:00:00	2024-11-08T20:00:00	4	Temperatura máxima	17.9
37643	7	Sololá	701	Sololá	1	Sololá	7	Julio	2023-07-26T00:00:00	2024-11-08T20:00:00	3	Temperatura mínima	17.1
37644	7	Sololá	701	Sololá	1	Sololá	7	Julio	2023-07-26T00:00:00	2024-11-08T20:00:00	5	Humedad	73
37645	7	Sololá	701	Sololá	1	Sololá	7	Julio	2023-07-26T00:00:00	2024-11-08T20:00:00	6	Velocidad del viento	8
37646	7	Sololá	701	Sololá	1	Sololá	7	Julio	2023-07-26T00:00:00	2024-11-08T20:00:00	7	Dirección del viento	8.05
37647	7	Sololá	701	Sololá	1	Sololá	7	Julio	2023-07-26T00:00:00	2024-11-08T20:00:00	1	Precipitación	0
37648	7	Sololá	701	Sololá	1	Sololá	7	Julio	2023-07-26T00:00:00	2024-11-08T20:00:00	8	Radiación solar	0
37649	7	Sololá	701	Sololá	1	Sololá	7	Julio	2023-07-26T00:00:00	2024-11-08T21:00:00	2	Temperatura media	16.8
37650	7	Sololá	701	Sololá	1	Sololá	7	Julio	2023-07-26T00:00:00	2024-11-08T21:00:00	4	Temperatura máxima	17.3
37651	7	Sololá	701	Sololá	1	Sololá	7	Julio	2023-07-26T00:00:00	2024-11-08T21:00:00	3	Temperatura mínima	16.8
37652	7	Sololá	701	Sololá	1	Sololá	7	Julio	2023-07-26T00:00:00	2024-11-08T21:00:00	5	Humedad	74
37653	7	Sololá	701	Sololá	1	Sololá	7	Julio	2023-07-26T00:00:00	2024-11-08T21:00:00	6	Velocidad del viento	12.9
37654	7	Sololá	701	Sololá	1	Sololá	7	Julio	2023-07-26T00:00:00	2024-11-08T21:00:00	7	Dirección del viento	12.87
37655	7	Sololá	701	Sololá	1	Sololá	7	Julio	2023-07-26T00:00:00	2024-11-08T21:00:00	1	Precipitación	0
37656	7	Sololá	701	Sololá	1	Sololá	7	Julio	2023-07-26T00:00:00	2024-11-08T21:00:00	8	Radiación solar	0
37657	7	Sololá	701	Sololá	1	Sololá	7	Julio	2023-07-26T00:00:00	2024-11-08T22:00:00	2	Temperatura media	16.4
37658	7	Sololá	701	Sololá	1	Sololá	7	Julio	2023-07-26T00:00:00	2024-11-08T22:00:00	4	Temperatura máxima	16.9
37659	7	Sololá	701	Sololá	1	Sololá	7	Julio	2023-07-26T00:00:00	2024-11-08T22:00:00	3	Temperatura mínima	16.4
37660	7	Sololá	701	Sololá	1	Sololá	7	Julio	2023-07-26T00:00:00	2024-11-08T22:00:00	5	Humedad	76
37661	7	Sololá	701	Sololá	1	Sololá	7	Julio	2023-07-26T00:00:00	2024-11-08T22:00:00	6	Velocidad del viento	9.7
37662	7	Sololá	701	Sololá	1	Sololá	7	Julio	2023-07-26T00:00:00	2024-11-08T22:00:00	7	Dirección del viento	9.66
37663	7	Sololá	701	Sololá	1	Sololá	7	Julio	2023-07-26T00:00:00	2024-11-08T22:00:00	1	Precipitación	0
37664	7	Sololá	701	Sololá	1	Sololá	7	Julio	2023-07-26T00:00:00	2024-11-08T22:00:00	8	Radiación solar	0
37665	7	Sololá	701	Sololá	1	Sololá	7	Julio	2023-07-26T00:00:00	2024-11-08T23:00:00	2	Temperatura media	16.3
37666	7	Sololá	701	Sololá	1	Sololá	7	Julio	2023-07-26T00:00:00	2024-11-08T23:00:00	4	Temperatura máxima	16.5
37667	7	Sololá	701	Sololá	1	Sololá	7	Julio	2023-07-26T00:00:00	2024-11-08T23:00:00	3	Temperatura mínima	16.2
37668	7	Sololá	701	Sololá	1	Sololá	7	Julio	2023-07-26T00:00:00	2024-11-08T23:00:00	5	Humedad	77
37669	7	Sololá	701	Sololá	1	Sololá	7	Julio	2023-07-26T00:00:00	2024-11-08T23:00:00	6	Velocidad del viento	3.2
37670	7	Sololá	701	Sololá	1	Sololá	7	Julio	2023-07-26T00:00:00	2024-11-08T23:00:00	7	Dirección del viento	3.22
37671	7	Sololá	701	Sololá	1	Sololá	7	Julio	2023-07-26T00:00:00	2024-11-08T23:00:00	1	Precipitación	0
37672	7	Sololá	701	Sololá	1	Sololá	7	Julio	2023-07-26T00:00:00	2024-11-08T23:00:00	8	Radiación solar	0
37673	7	Sololá	701	Sololá	1	Sololá	7	Julio	2023-07-27T00:00:00	2024-11-08T00:00:00	2	Temperatura media	16.1
37674	7	Sololá	701	Sololá	1	Sololá	7	Julio	2023-07-27T00:00:00	2024-11-08T00:00:00	4	Temperatura máxima	16.3
37675	7	Sololá	701	Sololá	1	Sololá	7	Julio	2023-07-27T00:00:00	2024-11-08T00:00:00	3	Temperatura mínima	16.1
37676	7	Sololá	701	Sololá	1	Sololá	7	Julio	2023-07-27T00:00:00	2024-11-08T00:00:00	5	Humedad	78
37677	7	Sololá	701	Sololá	1	Sololá	7	Julio	2023-07-27T00:00:00	2024-11-08T00:00:00	6	Velocidad del viento	4.8
37678	7	Sololá	701	Sololá	1	Sololá	7	Julio	2023-07-27T00:00:00	2024-11-08T00:00:00	7	Dirección del viento	4.83
37679	7	Sololá	701	Sololá	1	Sololá	7	Julio	2023-07-27T00:00:00	2024-11-08T00:00:00	1	Precipitación	0
37680	7	Sololá	701	Sololá	1	Sololá	7	Julio	2023-07-27T00:00:00	2024-11-08T00:00:00	8	Radiación solar	0
37681	7	Sololá	701	Sololá	1	Sololá	7	Julio	2023-07-27T00:00:00	2024-11-08T01:00:00	2	Temperatura media	16
37682	7	Sololá	701	Sololá	1	Sololá	7	Julio	2023-07-27T00:00:00	2024-11-08T01:00:00	4	Temperatura máxima	16.1
37683	7	Sololá	701	Sololá	1	Sololá	7	Julio	2023-07-27T00:00:00	2024-11-08T01:00:00	3	Temperatura mínima	15.9
37684	7	Sololá	701	Sololá	1	Sololá	7	Julio	2023-07-27T00:00:00	2024-11-08T01:00:00	5	Humedad	79
37685	7	Sololá	701	Sololá	1	Sololá	7	Julio	2023-07-27T00:00:00	2024-11-08T01:00:00	6	Velocidad del viento	9.7
37686	7	Sololá	701	Sololá	1	Sololá	7	Julio	2023-07-27T00:00:00	2024-11-08T01:00:00	7	Dirección del viento	9.66
37687	7	Sololá	701	Sololá	1	Sololá	7	Julio	2023-07-27T00:00:00	2024-11-08T01:00:00	1	Precipitación	0
37688	7	Sololá	701	Sololá	1	Sololá	7	Julio	2023-07-27T00:00:00	2024-11-08T01:00:00	8	Radiación solar	0
37689	7	Sololá	701	Sololá	1	Sololá	7	Julio	2023-07-27T00:00:00	2024-11-08T02:00:00	2	Temperatura media	15.8
37690	7	Sololá	701	Sololá	1	Sololá	7	Julio	2023-07-27T00:00:00	2024-11-08T02:00:00	4	Temperatura máxima	16.2
37691	7	Sololá	701	Sololá	1	Sololá	7	Julio	2023-07-27T00:00:00	2024-11-08T02:00:00	3	Temperatura mínima	15.8
37692	7	Sololá	701	Sololá	1	Sololá	7	Julio	2023-07-27T00:00:00	2024-11-08T02:00:00	5	Humedad	77
37693	7	Sololá	701	Sololá	1	Sololá	7	Julio	2023-07-27T00:00:00	2024-11-08T02:00:00	6	Velocidad del viento	11.3
37694	7	Sololá	701	Sololá	1	Sololá	7	Julio	2023-07-27T00:00:00	2024-11-08T02:00:00	7	Dirección del viento	11.27
37695	7	Sololá	701	Sololá	1	Sololá	7	Julio	2023-07-27T00:00:00	2024-11-08T02:00:00	1	Precipitación	0
37696	7	Sololá	701	Sololá	1	Sololá	7	Julio	2023-07-27T00:00:00	2024-11-08T02:00:00	8	Radiación solar	0
37697	7	Sololá	701	Sololá	1	Sololá	7	Julio	2023-07-27T00:00:00	2024-11-08T03:00:00	2	Temperatura media	15.4
37698	7	Sololá	701	Sololá	1	Sololá	7	Julio	2023-07-27T00:00:00	2024-11-08T03:00:00	4	Temperatura máxima	15.8
37699	7	Sololá	701	Sololá	1	Sololá	7	Julio	2023-07-27T00:00:00	2024-11-08T03:00:00	3	Temperatura mínima	15.4
37700	7	Sololá	701	Sololá	1	Sololá	7	Julio	2023-07-27T00:00:00	2024-11-08T03:00:00	5	Humedad	77
37701	7	Sololá	701	Sololá	1	Sololá	7	Julio	2023-07-27T00:00:00	2024-11-08T03:00:00	6	Velocidad del viento	11.3
37702	7	Sololá	701	Sololá	1	Sololá	7	Julio	2023-07-27T00:00:00	2024-11-08T03:00:00	7	Dirección del viento	11.27
37703	7	Sololá	701	Sololá	1	Sololá	7	Julio	2023-07-27T00:00:00	2024-11-08T03:00:00	1	Precipitación	0
37704	7	Sololá	701	Sololá	1	Sololá	7	Julio	2023-07-27T00:00:00	2024-11-08T03:00:00	8	Radiación solar	0
37705	7	Sololá	701	Sololá	1	Sololá	7	Julio	2023-07-27T00:00:00	2024-11-08T04:00:00	2	Temperatura media	15.1
37706	7	Sololá	701	Sololá	1	Sololá	7	Julio	2023-07-27T00:00:00	2024-11-08T04:00:00	4	Temperatura máxima	15.4
37707	7	Sololá	701	Sololá	1	Sololá	7	Julio	2023-07-27T00:00:00	2024-11-08T04:00:00	3	Temperatura mínima	15
37708	7	Sololá	701	Sololá	1	Sololá	7	Julio	2023-07-27T00:00:00	2024-11-08T04:00:00	5	Humedad	79
37709	7	Sololá	701	Sololá	1	Sololá	7	Julio	2023-07-27T00:00:00	2024-11-08T04:00:00	6	Velocidad del viento	11.3
37710	7	Sololá	701	Sololá	1	Sololá	7	Julio	2023-07-27T00:00:00	2024-11-08T04:00:00	7	Dirección del viento	11.27
37711	7	Sololá	701	Sololá	1	Sololá	7	Julio	2023-07-27T00:00:00	2024-11-08T04:00:00	1	Precipitación	0
37712	7	Sololá	701	Sololá	1	Sololá	7	Julio	2023-07-27T00:00:00	2024-11-08T04:00:00	8	Radiación solar	0
37713	7	Sololá	701	Sololá	1	Sololá	7	Julio	2023-07-27T00:00:00	2024-11-08T05:00:00	2	Temperatura media	15.3
37714	7	Sololá	701	Sololá	1	Sololá	7	Julio	2023-07-27T00:00:00	2024-11-08T05:00:00	4	Temperatura máxima	15.3
37715	7	Sololá	701	Sololá	1	Sololá	7	Julio	2023-07-27T00:00:00	2024-11-08T05:00:00	3	Temperatura mínima	15
37716	7	Sololá	701	Sololá	1	Sololá	7	Julio	2023-07-27T00:00:00	2024-11-08T05:00:00	5	Humedad	73
37717	7	Sololá	701	Sololá	1	Sololá	7	Julio	2023-07-27T00:00:00	2024-11-08T05:00:00	6	Velocidad del viento	12.9
37718	7	Sololá	701	Sololá	1	Sololá	7	Julio	2023-07-27T00:00:00	2024-11-08T05:00:00	7	Dirección del viento	12.87
37719	7	Sololá	701	Sololá	1	Sololá	7	Julio	2023-07-27T00:00:00	2024-11-08T05:00:00	1	Precipitación	0
37720	7	Sololá	701	Sololá	1	Sololá	7	Julio	2023-07-27T00:00:00	2024-11-08T05:00:00	8	Radiación solar	0
37721	7	Sololá	701	Sololá	1	Sololá	7	Julio	2023-07-27T00:00:00	2024-11-08T06:00:00	2	Temperatura media	15.1
37722	7	Sololá	701	Sololá	1	Sololá	7	Julio	2023-07-27T00:00:00	2024-11-08T06:00:00	4	Temperatura máxima	15.3
37723	7	Sololá	701	Sololá	1	Sololá	7	Julio	2023-07-27T00:00:00	2024-11-08T06:00:00	3	Temperatura mínima	14.9
37724	7	Sololá	701	Sololá	1	Sololá	7	Julio	2023-07-27T00:00:00	2024-11-08T06:00:00	5	Humedad	78
37725	7	Sololá	701	Sololá	1	Sololá	7	Julio	2023-07-27T00:00:00	2024-11-08T06:00:00	6	Velocidad del viento	11.3
37726	7	Sololá	701	Sololá	1	Sololá	7	Julio	2023-07-27T00:00:00	2024-11-08T06:00:00	7	Dirección del viento	11.27
37727	7	Sololá	701	Sololá	1	Sololá	7	Julio	2023-07-27T00:00:00	2024-11-08T06:00:00	1	Precipitación	0
37728	7	Sololá	701	Sololá	1	Sololá	7	Julio	2023-07-27T00:00:00	2024-11-08T06:00:00	8	Radiación solar	0
37729	7	Sololá	701	Sololá	1	Sololá	7	Julio	2023-07-27T00:00:00	2024-11-08T07:00:00	2	Temperatura media	16.9
37730	7	Sololá	701	Sololá	1	Sololá	7	Julio	2023-07-27T00:00:00	2024-11-08T07:00:00	4	Temperatura máxima	16.9
37731	7	Sololá	701	Sololá	1	Sololá	7	Julio	2023-07-27T00:00:00	2024-11-08T07:00:00	3	Temperatura mínima	15.1
37732	7	Sololá	701	Sololá	1	Sololá	7	Julio	2023-07-27T00:00:00	2024-11-08T07:00:00	5	Humedad	69
37733	7	Sololá	701	Sololá	1	Sololá	7	Julio	2023-07-27T00:00:00	2024-11-08T07:00:00	6	Velocidad del viento	11.3
37734	7	Sololá	701	Sololá	1	Sololá	7	Julio	2023-07-27T00:00:00	2024-11-08T07:00:00	7	Dirección del viento	11.27
37735	7	Sololá	701	Sololá	1	Sololá	7	Julio	2023-07-27T00:00:00	2024-11-08T07:00:00	1	Precipitación	0
37736	7	Sololá	701	Sololá	1	Sololá	7	Julio	2023-07-27T00:00:00	2024-11-08T07:00:00	8	Radiación solar	21
37737	7	Sololá	701	Sololá	1	Sololá	7	Julio	2023-07-27T00:00:00	2024-11-08T08:00:00	2	Temperatura media	18.7
37738	7	Sololá	701	Sololá	1	Sololá	7	Julio	2023-07-27T00:00:00	2024-11-08T08:00:00	4	Temperatura máxima	18.8
37739	7	Sololá	701	Sololá	1	Sololá	7	Julio	2023-07-27T00:00:00	2024-11-08T08:00:00	3	Temperatura mínima	16.9
37740	7	Sololá	701	Sololá	1	Sololá	7	Julio	2023-07-27T00:00:00	2024-11-08T08:00:00	5	Humedad	67
37741	7	Sololá	701	Sololá	1	Sololá	7	Julio	2023-07-27T00:00:00	2024-11-08T08:00:00	6	Velocidad del viento	4.8
37742	7	Sololá	701	Sololá	1	Sololá	7	Julio	2023-07-27T00:00:00	2024-11-08T08:00:00	7	Dirección del viento	4.83
37743	7	Sololá	701	Sololá	1	Sololá	7	Julio	2023-07-27T00:00:00	2024-11-08T08:00:00	1	Precipitación	0
37744	7	Sololá	701	Sololá	1	Sololá	7	Julio	2023-07-27T00:00:00	2024-11-08T08:00:00	8	Radiación solar	114
37745	7	Sololá	701	Sololá	1	Sololá	7	Julio	2023-07-27T00:00:00	2024-11-08T09:00:00	2	Temperatura media	18.9
37746	7	Sololá	701	Sololá	1	Sololá	7	Julio	2023-07-27T00:00:00	2024-11-08T09:00:00	4	Temperatura máxima	19.2
37747	7	Sololá	701	Sololá	1	Sololá	7	Julio	2023-07-27T00:00:00	2024-11-08T09:00:00	3	Temperatura mínima	18.4
37748	7	Sololá	701	Sololá	1	Sololá	7	Julio	2023-07-27T00:00:00	2024-11-08T09:00:00	5	Humedad	68
37749	7	Sololá	701	Sololá	1	Sololá	7	Julio	2023-07-27T00:00:00	2024-11-08T09:00:00	6	Velocidad del viento	12.9
37750	7	Sololá	701	Sololá	1	Sololá	7	Julio	2023-07-27T00:00:00	2024-11-08T09:00:00	7	Dirección del viento	12.87
37751	7	Sololá	701	Sololá	1	Sololá	7	Julio	2023-07-27T00:00:00	2024-11-08T09:00:00	1	Precipitación	0
37752	7	Sololá	701	Sololá	1	Sololá	7	Julio	2023-07-27T00:00:00	2024-11-08T09:00:00	8	Radiación solar	302
37753	7	Sololá	701	Sololá	1	Sololá	7	Julio	2023-07-27T00:00:00	2024-11-08T10:00:00	2	Temperatura media	20.2
37754	7	Sololá	701	Sololá	1	Sololá	7	Julio	2023-07-27T00:00:00	2024-11-08T10:00:00	4	Temperatura máxima	20.3
37755	7	Sololá	701	Sololá	1	Sololá	7	Julio	2023-07-27T00:00:00	2024-11-08T10:00:00	3	Temperatura mínima	18.9
37756	7	Sololá	701	Sololá	1	Sololá	7	Julio	2023-07-27T00:00:00	2024-11-08T10:00:00	5	Humedad	66
37757	7	Sololá	701	Sololá	1	Sololá	7	Julio	2023-07-27T00:00:00	2024-11-08T10:00:00	6	Velocidad del viento	16.1
37758	7	Sololá	701	Sololá	1	Sololá	7	Julio	2023-07-27T00:00:00	2024-11-08T10:00:00	7	Dirección del viento	16.09
37759	7	Sololá	701	Sololá	1	Sololá	7	Julio	2023-07-27T00:00:00	2024-11-08T10:00:00	1	Precipitación	0
37760	7	Sololá	701	Sololá	1	Sololá	7	Julio	2023-07-27T00:00:00	2024-11-08T10:00:00	8	Radiación solar	471
37761	7	Sololá	701	Sololá	1	Sololá	7	Julio	2023-07-27T00:00:00	2024-11-08T11:00:00	2	Temperatura media	21.5
37762	7	Sololá	701	Sololá	1	Sololá	7	Julio	2023-07-27T00:00:00	2024-11-08T11:00:00	4	Temperatura máxima	21.5
37763	7	Sololá	701	Sololá	1	Sololá	7	Julio	2023-07-27T00:00:00	2024-11-08T11:00:00	3	Temperatura mínima	20.1
37764	7	Sololá	701	Sololá	1	Sololá	7	Julio	2023-07-27T00:00:00	2024-11-08T11:00:00	5	Humedad	62
37765	7	Sololá	701	Sololá	1	Sololá	7	Julio	2023-07-27T00:00:00	2024-11-08T11:00:00	6	Velocidad del viento	14.5
37766	7	Sololá	701	Sololá	1	Sololá	7	Julio	2023-07-27T00:00:00	2024-11-08T11:00:00	7	Dirección del viento	14.48
37767	7	Sololá	701	Sololá	1	Sololá	7	Julio	2023-07-27T00:00:00	2024-11-08T11:00:00	1	Precipitación	0
37768	7	Sololá	701	Sololá	1	Sololá	7	Julio	2023-07-27T00:00:00	2024-11-08T11:00:00	8	Radiación solar	504
37769	7	Sololá	701	Sololá	1	Sololá	7	Julio	2023-07-27T00:00:00	2024-11-08T12:00:00	2	Temperatura media	23.1
37770	7	Sololá	701	Sololá	1	Sololá	7	Julio	2023-07-27T00:00:00	2024-11-08T12:00:00	4	Temperatura máxima	23.1
37771	7	Sololá	701	Sololá	1	Sololá	7	Julio	2023-07-27T00:00:00	2024-11-08T12:00:00	3	Temperatura mínima	21.3
37772	7	Sololá	701	Sololá	1	Sololá	7	Julio	2023-07-27T00:00:00	2024-11-08T12:00:00	5	Humedad	57
37773	7	Sololá	701	Sololá	1	Sololá	7	Julio	2023-07-27T00:00:00	2024-11-08T12:00:00	6	Velocidad del viento	11.3
37774	7	Sololá	701	Sololá	1	Sololá	7	Julio	2023-07-27T00:00:00	2024-11-08T12:00:00	7	Dirección del viento	11.27
37775	7	Sololá	701	Sololá	1	Sololá	7	Julio	2023-07-27T00:00:00	2024-11-08T12:00:00	1	Precipitación	0
37776	7	Sololá	701	Sololá	1	Sololá	7	Julio	2023-07-27T00:00:00	2024-11-08T12:00:00	8	Radiación solar	227
37777	7	Sololá	701	Sololá	1	Sololá	7	Julio	2023-07-27T00:00:00	2024-11-08T13:00:00	2	Temperatura media	22.8
37778	7	Sololá	701	Sololá	1	Sololá	7	Julio	2023-07-27T00:00:00	2024-11-08T13:00:00	4	Temperatura máxima	23.1
37779	7	Sololá	701	Sololá	1	Sololá	7	Julio	2023-07-27T00:00:00	2024-11-08T13:00:00	3	Temperatura mínima	22.1
37780	7	Sololá	701	Sololá	1	Sololá	7	Julio	2023-07-27T00:00:00	2024-11-08T13:00:00	5	Humedad	56
37781	7	Sololá	701	Sololá	1	Sololá	7	Julio	2023-07-27T00:00:00	2024-11-08T13:00:00	6	Velocidad del viento	14.5
37782	7	Sololá	701	Sololá	1	Sololá	7	Julio	2023-07-27T00:00:00	2024-11-08T13:00:00	7	Dirección del viento	14.48
37783	7	Sololá	701	Sololá	1	Sololá	7	Julio	2023-07-27T00:00:00	2024-11-08T13:00:00	1	Precipitación	0
37784	7	Sololá	701	Sololá	1	Sololá	7	Julio	2023-07-27T00:00:00	2024-11-08T13:00:00	8	Radiación solar	360
37785	7	Sololá	701	Sololá	1	Sololá	7	Julio	2023-07-27T00:00:00	2024-11-08T14:00:00	2	Temperatura media	23.8
37786	7	Sololá	701	Sololá	1	Sololá	7	Julio	2023-07-27T00:00:00	2024-11-08T14:00:00	4	Temperatura máxima	23.9
37787	7	Sololá	701	Sololá	1	Sololá	7	Julio	2023-07-27T00:00:00	2024-11-08T14:00:00	3	Temperatura mínima	22.7
37788	7	Sololá	701	Sololá	1	Sololá	7	Julio	2023-07-27T00:00:00	2024-11-08T14:00:00	5	Humedad	52
37789	7	Sololá	701	Sololá	1	Sololá	7	Julio	2023-07-27T00:00:00	2024-11-08T14:00:00	6	Velocidad del viento	11.3
37790	7	Sololá	701	Sololá	1	Sololá	7	Julio	2023-07-27T00:00:00	2024-11-08T14:00:00	7	Dirección del viento	11.27
37791	7	Sololá	701	Sololá	1	Sololá	7	Julio	2023-07-27T00:00:00	2024-11-08T14:00:00	1	Precipitación	0
37792	7	Sololá	701	Sololá	1	Sololá	7	Julio	2023-07-27T00:00:00	2024-11-08T14:00:00	8	Radiación solar	401
37793	7	Sololá	701	Sololá	1	Sololá	7	Julio	2023-07-27T00:00:00	2024-11-08T15:00:00	2	Temperatura media	23.8
37794	7	Sololá	701	Sololá	1	Sololá	7	Julio	2023-07-27T00:00:00	2024-11-08T15:00:00	4	Temperatura máxima	23.8
37795	7	Sololá	701	Sololá	1	Sololá	7	Julio	2023-07-27T00:00:00	2024-11-08T15:00:00	3	Temperatura mínima	23
37796	7	Sololá	701	Sololá	1	Sololá	7	Julio	2023-07-27T00:00:00	2024-11-08T15:00:00	5	Humedad	53
37797	7	Sololá	701	Sololá	1	Sololá	7	Julio	2023-07-27T00:00:00	2024-11-08T15:00:00	6	Velocidad del viento	9.7
37798	7	Sololá	701	Sololá	1	Sololá	7	Julio	2023-07-27T00:00:00	2024-11-08T15:00:00	7	Dirección del viento	9.66
37799	7	Sololá	701	Sololá	1	Sololá	7	Julio	2023-07-27T00:00:00	2024-11-08T15:00:00	1	Precipitación	0
37800	7	Sololá	701	Sololá	1	Sololá	7	Julio	2023-07-27T00:00:00	2024-11-08T15:00:00	8	Radiación solar	110
37801	7	Sololá	701	Sololá	1	Sololá	7	Julio	2023-07-27T00:00:00	2024-11-08T16:00:00	2	Temperatura media	24
37802	7	Sololá	701	Sololá	1	Sololá	7	Julio	2023-07-27T00:00:00	2024-11-08T16:00:00	4	Temperatura máxima	24.4
37803	7	Sololá	701	Sololá	1	Sololá	7	Julio	2023-07-27T00:00:00	2024-11-08T16:00:00	3	Temperatura mínima	23.6
37804	7	Sololá	701	Sololá	1	Sololá	7	Julio	2023-07-27T00:00:00	2024-11-08T16:00:00	5	Humedad	52
37805	7	Sololá	701	Sololá	1	Sololá	7	Julio	2023-07-27T00:00:00	2024-11-08T16:00:00	6	Velocidad del viento	8
37806	7	Sololá	701	Sololá	1	Sololá	7	Julio	2023-07-27T00:00:00	2024-11-08T16:00:00	7	Dirección del viento	8.05
37807	7	Sololá	701	Sololá	1	Sololá	7	Julio	2023-07-27T00:00:00	2024-11-08T16:00:00	1	Precipitación	0
37808	7	Sololá	701	Sololá	1	Sololá	7	Julio	2023-07-27T00:00:00	2024-11-08T16:00:00	8	Radiación solar	13
37809	7	Sololá	701	Sololá	1	Sololá	7	Julio	2023-07-27T00:00:00	2024-11-08T17:00:00	2	Temperatura media	23.1
37810	7	Sololá	701	Sololá	1	Sololá	7	Julio	2023-07-27T00:00:00	2024-11-08T17:00:00	4	Temperatura máxima	24
37811	7	Sololá	701	Sololá	1	Sololá	7	Julio	2023-07-27T00:00:00	2024-11-08T17:00:00	3	Temperatura mínima	23.1
37812	7	Sololá	701	Sololá	1	Sololá	7	Julio	2023-07-27T00:00:00	2024-11-08T17:00:00	5	Humedad	69
37813	7	Sololá	701	Sololá	1	Sololá	7	Julio	2023-07-27T00:00:00	2024-11-08T17:00:00	6	Velocidad del viento	8
37814	7	Sololá	701	Sololá	1	Sololá	7	Julio	2023-07-27T00:00:00	2024-11-08T17:00:00	7	Dirección del viento	8.05
37815	7	Sololá	701	Sololá	1	Sololá	7	Julio	2023-07-27T00:00:00	2024-11-08T17:00:00	1	Precipitación	0
37816	7	Sololá	701	Sololá	1	Sololá	7	Julio	2023-07-27T00:00:00	2024-11-08T17:00:00	8	Radiación solar	10
37817	7	Sololá	701	Sololá	1	Sololá	7	Julio	2023-07-27T00:00:00	2024-11-08T18:00:00	2	Temperatura media	21.2
37818	7	Sololá	701	Sololá	1	Sololá	7	Julio	2023-07-27T00:00:00	2024-11-08T18:00:00	4	Temperatura máxima	23.1
37819	7	Sololá	701	Sololá	1	Sololá	7	Julio	2023-07-27T00:00:00	2024-11-08T18:00:00	3	Temperatura mínima	21.2
37820	7	Sololá	701	Sololá	1	Sololá	7	Julio	2023-07-27T00:00:00	2024-11-08T18:00:00	5	Humedad	63
37821	7	Sololá	701	Sololá	1	Sololá	7	Julio	2023-07-27T00:00:00	2024-11-08T18:00:00	6	Velocidad del viento	8
37822	7	Sololá	701	Sololá	1	Sololá	7	Julio	2023-07-27T00:00:00	2024-11-08T18:00:00	7	Dirección del viento	8.05
37823	7	Sololá	701	Sololá	1	Sololá	7	Julio	2023-07-27T00:00:00	2024-11-08T18:00:00	1	Precipitación	0
37824	7	Sololá	701	Sololá	1	Sololá	7	Julio	2023-07-27T00:00:00	2024-11-08T18:00:00	8	Radiación solar	7
37825	7	Sololá	701	Sololá	1	Sololá	7	Julio	2023-07-27T00:00:00	2024-11-08T19:00:00	2	Temperatura media	19.7
37826	7	Sololá	701	Sololá	1	Sololá	7	Julio	2023-07-27T00:00:00	2024-11-08T19:00:00	4	Temperatura máxima	21.2
37827	7	Sololá	701	Sololá	1	Sololá	7	Julio	2023-07-27T00:00:00	2024-11-08T19:00:00	3	Temperatura mínima	19.7
37828	7	Sololá	701	Sololá	1	Sololá	7	Julio	2023-07-27T00:00:00	2024-11-08T19:00:00	5	Humedad	71
37829	7	Sololá	701	Sololá	1	Sololá	7	Julio	2023-07-27T00:00:00	2024-11-08T19:00:00	6	Velocidad del viento	6.4
37830	7	Sololá	701	Sololá	1	Sololá	7	Julio	2023-07-27T00:00:00	2024-11-08T19:00:00	7	Dirección del viento	6.44
37831	7	Sololá	701	Sololá	1	Sololá	7	Julio	2023-07-27T00:00:00	2024-11-08T19:00:00	1	Precipitación	0
37832	7	Sololá	701	Sololá	1	Sololá	7	Julio	2023-07-27T00:00:00	2024-11-08T19:00:00	8	Radiación solar	0
37833	7	Sololá	701	Sololá	1	Sololá	7	Julio	2023-07-27T00:00:00	2024-11-08T20:00:00	2	Temperatura media	18.6
37834	7	Sololá	701	Sololá	1	Sololá	7	Julio	2023-07-27T00:00:00	2024-11-08T20:00:00	4	Temperatura máxima	19.7
37835	7	Sololá	701	Sololá	1	Sololá	7	Julio	2023-07-27T00:00:00	2024-11-08T20:00:00	3	Temperatura mínima	18.6
37836	7	Sololá	701	Sololá	1	Sololá	7	Julio	2023-07-27T00:00:00	2024-11-08T20:00:00	5	Humedad	74
37837	7	Sololá	701	Sololá	1	Sololá	7	Julio	2023-07-27T00:00:00	2024-11-08T20:00:00	6	Velocidad del viento	4.8
37838	7	Sololá	701	Sololá	1	Sololá	7	Julio	2023-07-27T00:00:00	2024-11-08T20:00:00	7	Dirección del viento	4.83
37839	7	Sololá	701	Sololá	1	Sololá	7	Julio	2023-07-27T00:00:00	2024-11-08T20:00:00	1	Precipitación	0
37840	7	Sololá	701	Sololá	1	Sololá	7	Julio	2023-07-27T00:00:00	2024-11-08T20:00:00	8	Radiación solar	0
37841	7	Sololá	701	Sololá	1	Sololá	7	Julio	2023-07-27T00:00:00	2024-11-08T21:00:00	2	Temperatura media	17.8
37842	7	Sololá	701	Sololá	1	Sololá	7	Julio	2023-07-27T00:00:00	2024-11-08T21:00:00	4	Temperatura máxima	18.6
37843	7	Sololá	701	Sololá	1	Sololá	7	Julio	2023-07-27T00:00:00	2024-11-08T21:00:00	3	Temperatura mínima	17.8
37844	7	Sololá	701	Sololá	1	Sololá	7	Julio	2023-07-27T00:00:00	2024-11-08T21:00:00	5	Humedad	77
37845	7	Sololá	701	Sololá	1	Sololá	7	Julio	2023-07-27T00:00:00	2024-11-08T21:00:00	6	Velocidad del viento	4.8
37846	7	Sololá	701	Sololá	1	Sololá	7	Julio	2023-07-27T00:00:00	2024-11-08T21:00:00	7	Dirección del viento	4.83
37847	7	Sololá	701	Sololá	1	Sololá	7	Julio	2023-07-27T00:00:00	2024-11-08T21:00:00	1	Precipitación	0
37848	7	Sololá	701	Sololá	1	Sololá	7	Julio	2023-07-27T00:00:00	2024-11-08T21:00:00	8	Radiación solar	0
37849	7	Sololá	701	Sololá	1	Sololá	7	Julio	2023-07-27T00:00:00	2024-11-08T22:00:00	2	Temperatura media	17.2
37850	7	Sololá	701	Sololá	1	Sololá	7	Julio	2023-07-27T00:00:00	2024-11-08T22:00:00	4	Temperatura máxima	17.9
37851	7	Sololá	701	Sololá	1	Sololá	7	Julio	2023-07-27T00:00:00	2024-11-08T22:00:00	3	Temperatura mínima	17.2
37852	7	Sololá	701	Sololá	1	Sololá	7	Julio	2023-07-27T00:00:00	2024-11-08T22:00:00	5	Humedad	77
37853	7	Sololá	701	Sololá	1	Sololá	7	Julio	2023-07-27T00:00:00	2024-11-08T22:00:00	6	Velocidad del viento	4.8
37854	7	Sololá	701	Sololá	1	Sololá	7	Julio	2023-07-27T00:00:00	2024-11-08T22:00:00	7	Dirección del viento	4.83
37855	7	Sololá	701	Sololá	1	Sololá	7	Julio	2023-07-27T00:00:00	2024-11-08T22:00:00	1	Precipitación	0
37856	7	Sololá	701	Sololá	1	Sololá	7	Julio	2023-07-27T00:00:00	2024-11-08T22:00:00	8	Radiación solar	0
37857	7	Sololá	701	Sololá	1	Sololá	7	Julio	2023-07-27T00:00:00	2024-11-08T23:00:00	2	Temperatura media	16.7
37858	7	Sololá	701	Sololá	1	Sololá	7	Julio	2023-07-27T00:00:00	2024-11-08T23:00:00	4	Temperatura máxima	17.2
37859	7	Sololá	701	Sololá	1	Sololá	7	Julio	2023-07-27T00:00:00	2024-11-08T23:00:00	3	Temperatura mínima	16.7
37860	7	Sololá	701	Sololá	1	Sololá	7	Julio	2023-07-27T00:00:00	2024-11-08T23:00:00	5	Humedad	79
37861	7	Sololá	701	Sololá	1	Sololá	7	Julio	2023-07-27T00:00:00	2024-11-08T23:00:00	6	Velocidad del viento	6.4
37862	7	Sololá	701	Sololá	1	Sololá	7	Julio	2023-07-27T00:00:00	2024-11-08T23:00:00	7	Dirección del viento	6.44
37863	7	Sololá	701	Sololá	1	Sololá	7	Julio	2023-07-27T00:00:00	2024-11-08T23:00:00	1	Precipitación	0
37864	7	Sololá	701	Sololá	1	Sololá	7	Julio	2023-07-27T00:00:00	2024-11-08T23:00:00	8	Radiación solar	0
37865	7	Sololá	701	Sololá	1	Sololá	7	Julio	2023-07-28T00:00:00	2024-11-08T00:00:00	2	Temperatura media	16.6
37866	7	Sololá	701	Sololá	1	Sololá	7	Julio	2023-07-28T00:00:00	2024-11-08T00:00:00	4	Temperatura máxima	16.7
37867	7	Sololá	701	Sololá	1	Sololá	7	Julio	2023-07-28T00:00:00	2024-11-08T00:00:00	3	Temperatura mínima	16.6
37868	7	Sololá	701	Sololá	1	Sololá	7	Julio	2023-07-28T00:00:00	2024-11-08T00:00:00	5	Humedad	78
37869	7	Sololá	701	Sololá	1	Sololá	7	Julio	2023-07-28T00:00:00	2024-11-08T00:00:00	6	Velocidad del viento	17.7
37870	7	Sololá	701	Sololá	1	Sololá	7	Julio	2023-07-28T00:00:00	2024-11-08T00:00:00	7	Dirección del viento	17.7
37871	7	Sololá	701	Sololá	1	Sololá	7	Julio	2023-07-28T00:00:00	2024-11-08T00:00:00	1	Precipitación	0
37872	7	Sololá	701	Sololá	1	Sololá	7	Julio	2023-07-28T00:00:00	2024-11-08T00:00:00	8	Radiación solar	0
37873	7	Sololá	701	Sololá	1	Sololá	7	Julio	2023-07-28T00:00:00	2024-11-08T01:00:00	2	Temperatura media	16.6
37874	7	Sololá	701	Sololá	1	Sololá	7	Julio	2023-07-28T00:00:00	2024-11-08T01:00:00	4	Temperatura máxima	16.8
37875	7	Sololá	701	Sololá	1	Sololá	7	Julio	2023-07-28T00:00:00	2024-11-08T01:00:00	3	Temperatura mínima	16.6
37876	7	Sololá	701	Sololá	1	Sololá	7	Julio	2023-07-28T00:00:00	2024-11-08T01:00:00	5	Humedad	76
37877	7	Sololá	701	Sololá	1	Sololá	7	Julio	2023-07-28T00:00:00	2024-11-08T01:00:00	6	Velocidad del viento	20.9
37878	7	Sololá	701	Sololá	1	Sololá	7	Julio	2023-07-28T00:00:00	2024-11-08T01:00:00	7	Dirección del viento	20.92
37879	7	Sololá	701	Sololá	1	Sololá	7	Julio	2023-07-28T00:00:00	2024-11-08T01:00:00	1	Precipitación	0
37880	7	Sololá	701	Sololá	1	Sololá	7	Julio	2023-07-28T00:00:00	2024-11-08T01:00:00	8	Radiación solar	0
37881	7	Sololá	701	Sololá	1	Sololá	7	Julio	2023-07-28T00:00:00	2024-11-08T02:00:00	2	Temperatura media	16.3
37882	7	Sololá	701	Sololá	1	Sololá	7	Julio	2023-07-28T00:00:00	2024-11-08T02:00:00	4	Temperatura máxima	16.7
37883	7	Sololá	701	Sololá	1	Sololá	7	Julio	2023-07-28T00:00:00	2024-11-08T02:00:00	3	Temperatura mínima	16.2
37884	7	Sololá	701	Sololá	1	Sololá	7	Julio	2023-07-28T00:00:00	2024-11-08T02:00:00	5	Humedad	77
37885	7	Sololá	701	Sololá	1	Sololá	7	Julio	2023-07-28T00:00:00	2024-11-08T02:00:00	6	Velocidad del viento	17.7
37886	7	Sololá	701	Sololá	1	Sololá	7	Julio	2023-07-28T00:00:00	2024-11-08T02:00:00	7	Dirección del viento	17.7
37887	7	Sololá	701	Sololá	1	Sololá	7	Julio	2023-07-28T00:00:00	2024-11-08T02:00:00	1	Precipitación	0
37888	7	Sololá	701	Sololá	1	Sololá	7	Julio	2023-07-28T00:00:00	2024-11-08T02:00:00	8	Radiación solar	0
37889	7	Sololá	701	Sololá	1	Sololá	7	Julio	2023-07-28T00:00:00	2024-11-08T03:00:00	2	Temperatura media	16.3
37890	7	Sololá	701	Sololá	1	Sololá	7	Julio	2023-07-28T00:00:00	2024-11-08T03:00:00	4	Temperatura máxima	16.4
37891	7	Sololá	701	Sololá	1	Sololá	7	Julio	2023-07-28T00:00:00	2024-11-08T03:00:00	3	Temperatura mínima	16.3
37892	7	Sololá	701	Sololá	1	Sololá	7	Julio	2023-07-28T00:00:00	2024-11-08T03:00:00	5	Humedad	78
37893	7	Sololá	701	Sololá	1	Sololá	7	Julio	2023-07-28T00:00:00	2024-11-08T03:00:00	6	Velocidad del viento	17.7
37894	7	Sololá	701	Sololá	1	Sololá	7	Julio	2023-07-28T00:00:00	2024-11-08T03:00:00	7	Dirección del viento	17.7
37895	7	Sololá	701	Sololá	1	Sololá	7	Julio	2023-07-28T00:00:00	2024-11-08T03:00:00	1	Precipitación	0
37896	7	Sololá	701	Sololá	1	Sololá	7	Julio	2023-07-28T00:00:00	2024-11-08T03:00:00	8	Radiación solar	0
37897	7	Sololá	701	Sololá	1	Sololá	7	Julio	2023-07-28T00:00:00	2024-11-08T04:00:00	2	Temperatura media	15.8
37898	7	Sololá	701	Sololá	1	Sololá	7	Julio	2023-07-28T00:00:00	2024-11-08T04:00:00	4	Temperatura máxima	16.3
37899	7	Sololá	701	Sololá	1	Sololá	7	Julio	2023-07-28T00:00:00	2024-11-08T04:00:00	3	Temperatura mínima	15.7
37900	7	Sololá	701	Sololá	1	Sololá	7	Julio	2023-07-28T00:00:00	2024-11-08T04:00:00	5	Humedad	80
37901	7	Sololá	701	Sololá	1	Sololá	7	Julio	2023-07-28T00:00:00	2024-11-08T04:00:00	6	Velocidad del viento	12.9
37902	7	Sololá	701	Sololá	1	Sololá	7	Julio	2023-07-28T00:00:00	2024-11-08T04:00:00	7	Dirección del viento	12.87
37903	7	Sololá	701	Sololá	1	Sololá	7	Julio	2023-07-28T00:00:00	2024-11-08T04:00:00	1	Precipitación	0
37904	7	Sololá	701	Sololá	1	Sololá	7	Julio	2023-07-28T00:00:00	2024-11-08T04:00:00	8	Radiación solar	0
37905	7	Sololá	701	Sololá	1	Sololá	7	Julio	2023-07-28T00:00:00	2024-11-08T05:00:00	2	Temperatura media	16.1
37906	7	Sololá	701	Sololá	1	Sololá	7	Julio	2023-07-28T00:00:00	2024-11-08T05:00:00	4	Temperatura máxima	16.2
37907	7	Sololá	701	Sololá	1	Sololá	7	Julio	2023-07-28T00:00:00	2024-11-08T05:00:00	3	Temperatura mínima	15.8
37908	7	Sololá	701	Sololá	1	Sololá	7	Julio	2023-07-28T00:00:00	2024-11-08T05:00:00	5	Humedad	79
37909	7	Sololá	701	Sololá	1	Sololá	7	Julio	2023-07-28T00:00:00	2024-11-08T05:00:00	6	Velocidad del viento	14.5
37910	7	Sololá	701	Sololá	1	Sololá	7	Julio	2023-07-28T00:00:00	2024-11-08T05:00:00	7	Dirección del viento	14.48
37911	7	Sololá	701	Sololá	1	Sololá	7	Julio	2023-07-28T00:00:00	2024-11-08T05:00:00	1	Precipitación	0
37912	7	Sololá	701	Sololá	1	Sololá	7	Julio	2023-07-28T00:00:00	2024-11-08T05:00:00	8	Radiación solar	0
37913	7	Sololá	701	Sololá	1	Sololá	7	Julio	2023-07-28T00:00:00	2024-11-08T06:00:00	2	Temperatura media	16.2
37914	7	Sololá	701	Sololá	1	Sololá	7	Julio	2023-07-28T00:00:00	2024-11-08T06:00:00	4	Temperatura máxima	16.2
37915	7	Sololá	701	Sololá	1	Sololá	7	Julio	2023-07-28T00:00:00	2024-11-08T06:00:00	3	Temperatura mínima	16.1
37916	7	Sololá	701	Sololá	1	Sololá	7	Julio	2023-07-28T00:00:00	2024-11-08T06:00:00	5	Humedad	79
37917	7	Sololá	701	Sololá	1	Sololá	7	Julio	2023-07-28T00:00:00	2024-11-08T06:00:00	6	Velocidad del viento	11.3
37918	7	Sololá	701	Sololá	1	Sololá	7	Julio	2023-07-28T00:00:00	2024-11-08T06:00:00	7	Dirección del viento	11.27
37919	7	Sololá	701	Sololá	1	Sololá	7	Julio	2023-07-28T00:00:00	2024-11-08T06:00:00	1	Precipitación	0
37920	7	Sololá	701	Sololá	1	Sololá	7	Julio	2023-07-28T00:00:00	2024-11-08T06:00:00	8	Radiación solar	1
37921	7	Sololá	701	Sololá	1	Sololá	7	Julio	2023-07-28T00:00:00	2024-11-08T07:00:00	2	Temperatura media	16.7
37922	7	Sololá	701	Sololá	1	Sololá	7	Julio	2023-07-28T00:00:00	2024-11-08T07:00:00	4	Temperatura máxima	16.7
37923	7	Sololá	701	Sololá	1	Sololá	7	Julio	2023-07-28T00:00:00	2024-11-08T07:00:00	3	Temperatura mínima	16
37924	7	Sololá	701	Sololá	1	Sololá	7	Julio	2023-07-28T00:00:00	2024-11-08T07:00:00	5	Humedad	80
37925	7	Sololá	701	Sololá	1	Sololá	7	Julio	2023-07-28T00:00:00	2024-11-08T07:00:00	6	Velocidad del viento	12.9
37926	7	Sololá	701	Sololá	1	Sololá	7	Julio	2023-07-28T00:00:00	2024-11-08T07:00:00	7	Dirección del viento	12.87
37927	7	Sololá	701	Sololá	1	Sololá	7	Julio	2023-07-28T00:00:00	2024-11-08T07:00:00	1	Precipitación	0
37928	7	Sololá	701	Sololá	1	Sololá	7	Julio	2023-07-28T00:00:00	2024-11-08T07:00:00	8	Radiación solar	50
37929	7	Sololá	701	Sololá	1	Sololá	7	Julio	2023-07-28T00:00:00	2024-11-08T08:00:00	2	Temperatura media	18.3
37930	7	Sololá	701	Sololá	1	Sololá	7	Julio	2023-07-28T00:00:00	2024-11-08T08:00:00	4	Temperatura máxima	18.3
37931	7	Sololá	701	Sololá	1	Sololá	7	Julio	2023-07-28T00:00:00	2024-11-08T08:00:00	3	Temperatura mínima	16.7
37932	7	Sololá	701	Sololá	1	Sololá	7	Julio	2023-07-28T00:00:00	2024-11-08T08:00:00	5	Humedad	72
37933	7	Sololá	701	Sololá	1	Sololá	7	Julio	2023-07-28T00:00:00	2024-11-08T08:00:00	6	Velocidad del viento	14.5
37934	7	Sololá	701	Sololá	1	Sololá	7	Julio	2023-07-28T00:00:00	2024-11-08T08:00:00	7	Dirección del viento	14.48
37935	7	Sololá	701	Sololá	1	Sololá	7	Julio	2023-07-28T00:00:00	2024-11-08T08:00:00	1	Precipitación	0
37936	7	Sololá	701	Sololá	1	Sololá	7	Julio	2023-07-28T00:00:00	2024-11-08T08:00:00	8	Radiación solar	135
37937	7	Sololá	701	Sololá	1	Sololá	7	Julio	2023-07-28T00:00:00	2024-11-08T09:00:00	2	Temperatura media	19.2
37938	7	Sololá	701	Sololá	1	Sololá	7	Julio	2023-07-28T00:00:00	2024-11-08T09:00:00	4	Temperatura máxima	19.2
37939	7	Sololá	701	Sololá	1	Sololá	7	Julio	2023-07-28T00:00:00	2024-11-08T09:00:00	3	Temperatura mínima	18.1
37940	7	Sololá	701	Sololá	1	Sololá	7	Julio	2023-07-28T00:00:00	2024-11-08T09:00:00	5	Humedad	68
37941	7	Sololá	701	Sololá	1	Sololá	7	Julio	2023-07-28T00:00:00	2024-11-08T09:00:00	6	Velocidad del viento	19.3
37942	7	Sololá	701	Sololá	1	Sololá	7	Julio	2023-07-28T00:00:00	2024-11-08T09:00:00	7	Dirección del viento	19.31
37943	7	Sololá	701	Sololá	1	Sololá	7	Julio	2023-07-28T00:00:00	2024-11-08T09:00:00	1	Precipitación	0
37944	7	Sololá	701	Sololá	1	Sololá	7	Julio	2023-07-28T00:00:00	2024-11-08T09:00:00	8	Radiación solar	194
37945	7	Sololá	701	Sololá	1	Sololá	7	Julio	2023-07-28T00:00:00	2024-11-08T10:00:00	2	Temperatura media	20.9
37946	7	Sololá	701	Sololá	1	Sololá	7	Julio	2023-07-28T00:00:00	2024-11-08T10:00:00	4	Temperatura máxima	20.9
37947	7	Sololá	701	Sololá	1	Sololá	7	Julio	2023-07-28T00:00:00	2024-11-08T10:00:00	3	Temperatura mínima	19.2
37948	7	Sololá	701	Sololá	1	Sololá	7	Julio	2023-07-28T00:00:00	2024-11-08T10:00:00	5	Humedad	61
37949	7	Sololá	701	Sololá	1	Sololá	7	Julio	2023-07-28T00:00:00	2024-11-08T10:00:00	6	Velocidad del viento	14.5
37950	7	Sololá	701	Sololá	1	Sololá	7	Julio	2023-07-28T00:00:00	2024-11-08T10:00:00	7	Dirección del viento	14.48
37951	7	Sololá	701	Sololá	1	Sololá	7	Julio	2023-07-28T00:00:00	2024-11-08T10:00:00	1	Precipitación	0
37952	7	Sololá	701	Sololá	1	Sololá	7	Julio	2023-07-28T00:00:00	2024-11-08T10:00:00	8	Radiación solar	236
37953	7	Sololá	701	Sololá	1	Sololá	7	Julio	2023-07-28T00:00:00	2024-11-08T11:00:00	2	Temperatura media	21.5
37954	7	Sololá	701	Sololá	1	Sololá	7	Julio	2023-07-28T00:00:00	2024-11-08T11:00:00	4	Temperatura máxima	21.6
37955	7	Sololá	701	Sololá	1	Sololá	7	Julio	2023-07-28T00:00:00	2024-11-08T11:00:00	3	Temperatura mínima	20.7
37956	7	Sololá	701	Sololá	1	Sololá	7	Julio	2023-07-28T00:00:00	2024-11-08T11:00:00	5	Humedad	60
37957	7	Sololá	701	Sololá	1	Sololá	7	Julio	2023-07-28T00:00:00	2024-11-08T11:00:00	6	Velocidad del viento	16.1
37958	7	Sololá	701	Sololá	1	Sololá	7	Julio	2023-07-28T00:00:00	2024-11-08T11:00:00	7	Dirección del viento	16.09
37959	7	Sololá	701	Sololá	1	Sololá	7	Julio	2023-07-28T00:00:00	2024-11-08T11:00:00	1	Precipitación	0
37960	7	Sololá	701	Sololá	1	Sololá	7	Julio	2023-07-28T00:00:00	2024-11-08T11:00:00	8	Radiación solar	378
37961	7	Sololá	701	Sololá	1	Sololá	7	Julio	2023-07-28T00:00:00	2024-11-08T12:00:00	2	Temperatura media	22.6
37962	7	Sololá	701	Sololá	1	Sololá	7	Julio	2023-07-28T00:00:00	2024-11-08T12:00:00	4	Temperatura máxima	22.6
37963	7	Sololá	701	Sololá	1	Sololá	7	Julio	2023-07-28T00:00:00	2024-11-08T12:00:00	3	Temperatura mínima	21.4
37964	7	Sololá	701	Sololá	1	Sololá	7	Julio	2023-07-28T00:00:00	2024-11-08T12:00:00	5	Humedad	60
37965	7	Sololá	701	Sololá	1	Sololá	7	Julio	2023-07-28T00:00:00	2024-11-08T12:00:00	6	Velocidad del viento	16.1
37966	7	Sololá	701	Sololá	1	Sololá	7	Julio	2023-07-28T00:00:00	2024-11-08T12:00:00	7	Dirección del viento	16.09
37967	7	Sololá	701	Sololá	1	Sololá	7	Julio	2023-07-28T00:00:00	2024-11-08T12:00:00	1	Precipitación	0
37968	7	Sololá	701	Sololá	1	Sololá	7	Julio	2023-07-28T00:00:00	2024-11-08T12:00:00	8	Radiación solar	361
37969	7	Sololá	701	Sololá	1	Sololá	7	Julio	2023-07-28T00:00:00	2024-11-08T13:00:00	2	Temperatura media	22.8
37970	7	Sololá	701	Sololá	1	Sololá	7	Julio	2023-07-28T00:00:00	2024-11-08T13:00:00	4	Temperatura máxima	23.2
37971	7	Sololá	701	Sololá	1	Sololá	7	Julio	2023-07-28T00:00:00	2024-11-08T13:00:00	3	Temperatura mínima	22.3
37972	7	Sololá	701	Sololá	1	Sololá	7	Julio	2023-07-28T00:00:00	2024-11-08T13:00:00	5	Humedad	56
37973	7	Sololá	701	Sololá	1	Sololá	7	Julio	2023-07-28T00:00:00	2024-11-08T13:00:00	6	Velocidad del viento	14.5
37974	7	Sololá	701	Sololá	1	Sololá	7	Julio	2023-07-28T00:00:00	2024-11-08T13:00:00	7	Dirección del viento	14.48
37975	7	Sololá	701	Sololá	1	Sololá	7	Julio	2023-07-28T00:00:00	2024-11-08T13:00:00	1	Precipitación	0
37976	7	Sololá	701	Sololá	1	Sololá	7	Julio	2023-07-28T00:00:00	2024-11-08T13:00:00	8	Radiación solar	338
37977	7	Sololá	701	Sololá	1	Sololá	7	Julio	2023-07-28T00:00:00	2024-11-08T14:00:00	2	Temperatura media	23.7
37978	7	Sololá	701	Sololá	1	Sololá	7	Julio	2023-07-28T00:00:00	2024-11-08T14:00:00	4	Temperatura máxima	24
37979	7	Sololá	701	Sololá	1	Sololá	7	Julio	2023-07-28T00:00:00	2024-11-08T14:00:00	3	Temperatura mínima	22.8
37980	7	Sololá	701	Sololá	1	Sololá	7	Julio	2023-07-28T00:00:00	2024-11-08T14:00:00	5	Humedad	53
37981	7	Sololá	701	Sololá	1	Sololá	7	Julio	2023-07-28T00:00:00	2024-11-08T14:00:00	6	Velocidad del viento	11.3
37982	7	Sololá	701	Sololá	1	Sololá	7	Julio	2023-07-28T00:00:00	2024-11-08T14:00:00	7	Dirección del viento	11.27
37983	7	Sololá	701	Sololá	1	Sololá	7	Julio	2023-07-28T00:00:00	2024-11-08T14:00:00	1	Precipitación	0
37984	7	Sololá	701	Sololá	1	Sololá	7	Julio	2023-07-28T00:00:00	2024-11-08T14:00:00	8	Radiación solar	521
37985	7	Sololá	701	Sololá	1	Sololá	7	Julio	2023-07-28T00:00:00	2024-11-08T15:00:00	2	Temperatura media	23.3
37986	7	Sololá	701	Sololá	1	Sololá	7	Julio	2023-07-28T00:00:00	2024-11-08T15:00:00	4	Temperatura máxima	24.7
37987	7	Sololá	701	Sololá	1	Sololá	7	Julio	2023-07-28T00:00:00	2024-11-08T15:00:00	3	Temperatura mínima	23.1
37988	7	Sololá	701	Sololá	1	Sololá	7	Julio	2023-07-28T00:00:00	2024-11-08T15:00:00	5	Humedad	57
37989	7	Sololá	701	Sololá	1	Sololá	7	Julio	2023-07-28T00:00:00	2024-11-08T15:00:00	6	Velocidad del viento	11.3
37990	7	Sololá	701	Sololá	1	Sololá	7	Julio	2023-07-28T00:00:00	2024-11-08T15:00:00	7	Dirección del viento	11.27
37991	7	Sololá	701	Sololá	1	Sololá	7	Julio	2023-07-28T00:00:00	2024-11-08T15:00:00	1	Precipitación	0
37992	7	Sololá	701	Sololá	1	Sololá	7	Julio	2023-07-28T00:00:00	2024-11-08T15:00:00	8	Radiación solar	312
37993	7	Sololá	701	Sololá	1	Sololá	7	Julio	2023-07-28T00:00:00	2024-11-08T16:00:00	2	Temperatura media	22.5
37994	7	Sololá	701	Sololá	1	Sololá	7	Julio	2023-07-28T00:00:00	2024-11-08T16:00:00	4	Temperatura máxima	24
37995	7	Sololá	701	Sololá	1	Sololá	7	Julio	2023-07-28T00:00:00	2024-11-08T16:00:00	3	Temperatura mínima	22.3
37996	7	Sololá	701	Sololá	1	Sololá	7	Julio	2023-07-28T00:00:00	2024-11-08T16:00:00	5	Humedad	61
37997	7	Sololá	701	Sololá	1	Sololá	7	Julio	2023-07-28T00:00:00	2024-11-08T16:00:00	6	Velocidad del viento	12.9
37998	7	Sololá	701	Sololá	1	Sololá	7	Julio	2023-07-28T00:00:00	2024-11-08T16:00:00	7	Dirección del viento	12.87
37999	7	Sololá	701	Sololá	1	Sololá	7	Julio	2023-07-28T00:00:00	2024-11-08T16:00:00	1	Precipitación	0
38000	7	Sololá	701	Sololá	1	Sololá	7	Julio	2023-07-28T00:00:00	2024-11-08T16:00:00	8	Radiación solar	142
38001	7	Sololá	701	Sololá	1	Sololá	7	Julio	2023-07-28T00:00:00	2024-11-08T17:00:00	2	Temperatura media	21.7
38002	7	Sololá	701	Sololá	1	Sololá	7	Julio	2023-07-28T00:00:00	2024-11-08T17:00:00	4	Temperatura máxima	22.9
38003	7	Sololá	701	Sololá	1	Sololá	7	Julio	2023-07-28T00:00:00	2024-11-08T17:00:00	3	Temperatura mínima	21.6
38004	7	Sololá	701	Sololá	1	Sololá	7	Julio	2023-07-28T00:00:00	2024-11-08T17:00:00	5	Humedad	64
38005	7	Sololá	701	Sololá	1	Sololá	7	Julio	2023-07-28T00:00:00	2024-11-08T17:00:00	6	Velocidad del viento	12.9
38006	7	Sololá	701	Sololá	1	Sololá	7	Julio	2023-07-28T00:00:00	2024-11-08T17:00:00	7	Dirección del viento	12.87
38007	7	Sololá	701	Sololá	1	Sololá	7	Julio	2023-07-28T00:00:00	2024-11-08T17:00:00	1	Precipitación	0
38008	7	Sololá	701	Sololá	1	Sololá	7	Julio	2023-07-28T00:00:00	2024-11-08T17:00:00	8	Radiación solar	51
38009	7	Sololá	701	Sololá	1	Sololá	7	Julio	2023-07-28T00:00:00	2024-11-08T18:00:00	2	Temperatura media	20.6
38010	7	Sololá	701	Sololá	1	Sololá	7	Julio	2023-07-28T00:00:00	2024-11-08T18:00:00	4	Temperatura máxima	21.8
38011	7	Sololá	701	Sololá	1	Sololá	7	Julio	2023-07-28T00:00:00	2024-11-08T18:00:00	3	Temperatura mínima	20.6
38012	7	Sololá	701	Sololá	1	Sololá	7	Julio	2023-07-28T00:00:00	2024-11-08T18:00:00	5	Humedad	70
38013	7	Sololá	701	Sololá	1	Sololá	7	Julio	2023-07-28T00:00:00	2024-11-08T18:00:00	6	Velocidad del viento	8
38014	7	Sololá	701	Sololá	1	Sololá	7	Julio	2023-07-28T00:00:00	2024-11-08T18:00:00	7	Dirección del viento	8.05
38015	7	Sololá	701	Sololá	1	Sololá	7	Julio	2023-07-28T00:00:00	2024-11-08T18:00:00	1	Precipitación	0
38016	7	Sololá	701	Sololá	1	Sololá	7	Julio	2023-07-28T00:00:00	2024-11-08T18:00:00	8	Radiación solar	44
38017	7	Sololá	701	Sololá	1	Sololá	7	Julio	2023-07-28T00:00:00	2024-11-08T19:00:00	2	Temperatura media	19.7
38018	7	Sololá	701	Sololá	1	Sololá	7	Julio	2023-07-28T00:00:00	2024-11-08T19:00:00	4	Temperatura máxima	20.7
38019	7	Sololá	701	Sololá	1	Sololá	7	Julio	2023-07-28T00:00:00	2024-11-08T19:00:00	3	Temperatura mínima	19.7
38020	7	Sololá	701	Sololá	1	Sololá	7	Julio	2023-07-28T00:00:00	2024-11-08T19:00:00	5	Humedad	75
38021	7	Sololá	701	Sololá	1	Sololá	7	Julio	2023-07-28T00:00:00	2024-11-08T19:00:00	6	Velocidad del viento	8
38022	7	Sololá	701	Sololá	1	Sololá	7	Julio	2023-07-28T00:00:00	2024-11-08T19:00:00	7	Dirección del viento	8.05
38023	7	Sololá	701	Sololá	1	Sololá	7	Julio	2023-07-28T00:00:00	2024-11-08T19:00:00	1	Precipitación	0
38024	7	Sololá	701	Sololá	1	Sololá	7	Julio	2023-07-28T00:00:00	2024-11-08T19:00:00	8	Radiación solar	0
38025	7	Sololá	701	Sololá	1	Sololá	7	Julio	2023-07-28T00:00:00	2024-11-08T20:00:00	2	Temperatura media	18.7
38026	7	Sololá	701	Sololá	1	Sololá	7	Julio	2023-07-28T00:00:00	2024-11-08T20:00:00	4	Temperatura máxima	19.7
38027	7	Sololá	701	Sololá	1	Sololá	7	Julio	2023-07-28T00:00:00	2024-11-08T20:00:00	3	Temperatura mínima	18.7
38028	7	Sololá	701	Sololá	1	Sololá	7	Julio	2023-07-28T00:00:00	2024-11-08T20:00:00	5	Humedad	78
38029	7	Sololá	701	Sololá	1	Sololá	7	Julio	2023-07-28T00:00:00	2024-11-08T20:00:00	6	Velocidad del viento	11.3
38030	7	Sololá	701	Sololá	1	Sololá	7	Julio	2023-07-28T00:00:00	2024-11-08T20:00:00	7	Dirección del viento	11.27
38031	7	Sololá	701	Sololá	1	Sololá	7	Julio	2023-07-28T00:00:00	2024-11-08T20:00:00	1	Precipitación	0
38032	7	Sololá	701	Sololá	1	Sololá	7	Julio	2023-07-28T00:00:00	2024-11-08T20:00:00	8	Radiación solar	0
38033	7	Sololá	701	Sololá	1	Sololá	7	Julio	2023-07-28T00:00:00	2024-11-08T21:00:00	2	Temperatura media	18.4
38034	7	Sololá	701	Sololá	1	Sololá	7	Julio	2023-07-28T00:00:00	2024-11-08T21:00:00	4	Temperatura máxima	18.7
38035	7	Sololá	701	Sololá	1	Sololá	7	Julio	2023-07-28T00:00:00	2024-11-08T21:00:00	3	Temperatura mínima	18.4
38036	7	Sololá	701	Sololá	1	Sololá	7	Julio	2023-07-28T00:00:00	2024-11-08T21:00:00	5	Humedad	79
38037	7	Sololá	701	Sololá	1	Sololá	7	Julio	2023-07-28T00:00:00	2024-11-08T21:00:00	6	Velocidad del viento	11.3
38038	7	Sololá	701	Sololá	1	Sololá	7	Julio	2023-07-28T00:00:00	2024-11-08T21:00:00	7	Dirección del viento	11.27
38039	7	Sololá	701	Sololá	1	Sololá	7	Julio	2023-07-28T00:00:00	2024-11-08T21:00:00	1	Precipitación	0
38040	7	Sololá	701	Sololá	1	Sololá	7	Julio	2023-07-28T00:00:00	2024-11-08T21:00:00	8	Radiación solar	0
38041	7	Sololá	701	Sololá	1	Sololá	7	Julio	2023-07-28T00:00:00	2024-11-08T22:00:00	2	Temperatura media	18
38042	7	Sololá	701	Sololá	1	Sololá	7	Julio	2023-07-28T00:00:00	2024-11-08T22:00:00	4	Temperatura máxima	18.4
38043	7	Sololá	701	Sololá	1	Sololá	7	Julio	2023-07-28T00:00:00	2024-11-08T22:00:00	3	Temperatura mínima	18
38044	7	Sololá	701	Sololá	1	Sololá	7	Julio	2023-07-28T00:00:00	2024-11-08T22:00:00	5	Humedad	82
38045	7	Sololá	701	Sololá	1	Sololá	7	Julio	2023-07-28T00:00:00	2024-11-08T22:00:00	6	Velocidad del viento	9.7
38046	7	Sololá	701	Sololá	1	Sololá	7	Julio	2023-07-28T00:00:00	2024-11-08T22:00:00	7	Dirección del viento	9.66
38047	7	Sololá	701	Sololá	1	Sololá	7	Julio	2023-07-28T00:00:00	2024-11-08T22:00:00	1	Precipitación	0
38048	7	Sololá	701	Sololá	1	Sololá	7	Julio	2023-07-28T00:00:00	2024-11-08T22:00:00	8	Radiación solar	0
38049	7	Sololá	701	Sololá	1	Sololá	7	Julio	2023-07-28T00:00:00	2024-11-08T23:00:00	2	Temperatura media	16.9
38050	7	Sololá	701	Sololá	1	Sololá	7	Julio	2023-07-28T00:00:00	2024-11-08T23:00:00	4	Temperatura máxima	18.1
38051	7	Sololá	701	Sololá	1	Sololá	7	Julio	2023-07-28T00:00:00	2024-11-08T23:00:00	3	Temperatura mínima	16.8
38052	7	Sololá	701	Sololá	1	Sololá	7	Julio	2023-07-28T00:00:00	2024-11-08T23:00:00	5	Humedad	82
38053	7	Sololá	701	Sololá	1	Sololá	7	Julio	2023-07-28T00:00:00	2024-11-08T23:00:00	6	Velocidad del viento	12.9
38054	7	Sololá	701	Sololá	1	Sololá	7	Julio	2023-07-28T00:00:00	2024-11-08T23:00:00	7	Dirección del viento	12.87
38055	7	Sololá	701	Sololá	1	Sololá	7	Julio	2023-07-28T00:00:00	2024-11-08T23:00:00	1	Precipitación	1
38056	7	Sololá	701	Sololá	1	Sololá	7	Julio	2023-07-28T00:00:00	2024-11-08T23:00:00	8	Radiación solar	0
38057	7	Sololá	701	Sololá	1	Sololá	7	Julio	2023-07-29T00:00:00	2024-11-08T00:00:00	2	Temperatura media	17.1
38058	7	Sololá	701	Sololá	1	Sololá	7	Julio	2023-07-29T00:00:00	2024-11-08T00:00:00	4	Temperatura máxima	17.2
38059	7	Sololá	701	Sololá	1	Sololá	7	Julio	2023-07-29T00:00:00	2024-11-08T00:00:00	3	Temperatura mínima	16.8
38060	7	Sololá	701	Sololá	1	Sololá	7	Julio	2023-07-29T00:00:00	2024-11-08T00:00:00	5	Humedad	76
38061	7	Sololá	701	Sololá	1	Sololá	7	Julio	2023-07-29T00:00:00	2024-11-08T00:00:00	6	Velocidad del viento	14.5
38062	7	Sololá	701	Sololá	1	Sololá	7	Julio	2023-07-29T00:00:00	2024-11-08T00:00:00	7	Dirección del viento	14.48
38063	7	Sololá	701	Sololá	1	Sololá	7	Julio	2023-07-29T00:00:00	2024-11-08T00:00:00	1	Precipitación	0
38064	7	Sololá	701	Sololá	1	Sololá	7	Julio	2023-07-29T00:00:00	2024-11-08T00:00:00	8	Radiación solar	0
38065	7	Sololá	701	Sololá	1	Sololá	7	Julio	2023-07-29T00:00:00	2024-11-08T01:00:00	2	Temperatura media	16.7
38066	7	Sololá	701	Sololá	1	Sololá	7	Julio	2023-07-29T00:00:00	2024-11-08T01:00:00	4	Temperatura máxima	17.1
38067	7	Sololá	701	Sololá	1	Sololá	7	Julio	2023-07-29T00:00:00	2024-11-08T01:00:00	3	Temperatura mínima	16.7
38068	7	Sololá	701	Sololá	1	Sololá	7	Julio	2023-07-29T00:00:00	2024-11-08T01:00:00	5	Humedad	80
38069	7	Sololá	701	Sololá	1	Sololá	7	Julio	2023-07-29T00:00:00	2024-11-08T01:00:00	6	Velocidad del viento	12.9
38070	7	Sololá	701	Sololá	1	Sololá	7	Julio	2023-07-29T00:00:00	2024-11-08T01:00:00	7	Dirección del viento	12.87
38071	7	Sololá	701	Sololá	1	Sololá	7	Julio	2023-07-29T00:00:00	2024-11-08T01:00:00	1	Precipitación	0
38072	7	Sololá	701	Sololá	1	Sololá	7	Julio	2023-07-29T00:00:00	2024-11-08T01:00:00	8	Radiación solar	0
38073	7	Sololá	701	Sololá	1	Sololá	7	Julio	2023-07-29T00:00:00	2024-11-08T02:00:00	2	Temperatura media	16.3
38074	7	Sololá	701	Sololá	1	Sololá	7	Julio	2023-07-29T00:00:00	2024-11-08T02:00:00	4	Temperatura máxima	16.7
38075	7	Sololá	701	Sololá	1	Sololá	7	Julio	2023-07-29T00:00:00	2024-11-08T02:00:00	3	Temperatura mínima	16.3
38076	7	Sololá	701	Sololá	1	Sololá	7	Julio	2023-07-29T00:00:00	2024-11-08T02:00:00	5	Humedad	85
38077	7	Sololá	701	Sololá	1	Sololá	7	Julio	2023-07-29T00:00:00	2024-11-08T02:00:00	6	Velocidad del viento	8
38078	7	Sololá	701	Sololá	1	Sololá	7	Julio	2023-07-29T00:00:00	2024-11-08T02:00:00	7	Dirección del viento	8.05
38079	7	Sololá	701	Sololá	1	Sololá	7	Julio	2023-07-29T00:00:00	2024-11-08T02:00:00	1	Precipitación	0
38080	7	Sololá	701	Sololá	1	Sololá	7	Julio	2023-07-29T00:00:00	2024-11-08T02:00:00	8	Radiación solar	0
38081	7	Sololá	701	Sololá	1	Sololá	7	Julio	2023-07-29T00:00:00	2024-11-08T03:00:00	2	Temperatura media	15.9
38082	7	Sololá	701	Sololá	1	Sololá	7	Julio	2023-07-29T00:00:00	2024-11-08T03:00:00	4	Temperatura máxima	16.6
38083	7	Sololá	701	Sololá	1	Sololá	7	Julio	2023-07-29T00:00:00	2024-11-08T03:00:00	3	Temperatura mínima	15.9
38084	7	Sololá	701	Sololá	1	Sololá	7	Julio	2023-07-29T00:00:00	2024-11-08T03:00:00	5	Humedad	89
38085	7	Sololá	701	Sololá	1	Sololá	7	Julio	2023-07-29T00:00:00	2024-11-08T03:00:00	6	Velocidad del viento	8
38086	7	Sololá	701	Sololá	1	Sololá	7	Julio	2023-07-29T00:00:00	2024-11-08T03:00:00	7	Dirección del viento	8.05
38087	7	Sololá	701	Sololá	1	Sololá	7	Julio	2023-07-29T00:00:00	2024-11-08T03:00:00	1	Precipitación	0.4
38088	7	Sololá	701	Sololá	1	Sololá	7	Julio	2023-07-29T00:00:00	2024-11-08T03:00:00	8	Radiación solar	0
38089	7	Sololá	701	Sololá	1	Sololá	7	Julio	2023-07-29T00:00:00	2024-11-08T04:00:00	2	Temperatura media	15.9
38090	7	Sololá	701	Sololá	1	Sololá	7	Julio	2023-07-29T00:00:00	2024-11-08T04:00:00	4	Temperatura máxima	16.3
38091	7	Sololá	701	Sololá	1	Sololá	7	Julio	2023-07-29T00:00:00	2024-11-08T04:00:00	3	Temperatura mínima	15.8
38092	7	Sololá	701	Sololá	1	Sololá	7	Julio	2023-07-29T00:00:00	2024-11-08T04:00:00	5	Humedad	88
38093	7	Sololá	701	Sololá	1	Sololá	7	Julio	2023-07-29T00:00:00	2024-11-08T04:00:00	6	Velocidad del viento	8
38094	7	Sololá	701	Sololá	1	Sololá	7	Julio	2023-07-29T00:00:00	2024-11-08T04:00:00	7	Dirección del viento	8.05
38095	7	Sololá	701	Sololá	1	Sololá	7	Julio	2023-07-29T00:00:00	2024-11-08T04:00:00	1	Precipitación	0.6
38096	7	Sololá	701	Sololá	1	Sololá	7	Julio	2023-07-29T00:00:00	2024-11-08T04:00:00	8	Radiación solar	0
38097	7	Sololá	701	Sololá	1	Sololá	7	Julio	2023-07-29T00:00:00	2024-11-08T05:00:00	2	Temperatura media	15.7
38098	7	Sololá	701	Sololá	1	Sololá	7	Julio	2023-07-29T00:00:00	2024-11-08T05:00:00	4	Temperatura máxima	16.2
38099	7	Sololá	701	Sololá	1	Sololá	7	Julio	2023-07-29T00:00:00	2024-11-08T05:00:00	3	Temperatura mínima	15.7
38100	7	Sololá	701	Sololá	1	Sololá	7	Julio	2023-07-29T00:00:00	2024-11-08T05:00:00	5	Humedad	90
38101	7	Sololá	701	Sololá	1	Sololá	7	Julio	2023-07-29T00:00:00	2024-11-08T05:00:00	6	Velocidad del viento	4.8
38102	7	Sololá	701	Sololá	1	Sololá	7	Julio	2023-07-29T00:00:00	2024-11-08T05:00:00	7	Dirección del viento	4.83
38103	7	Sololá	701	Sololá	1	Sololá	7	Julio	2023-07-29T00:00:00	2024-11-08T05:00:00	1	Precipitación	0.8
38104	7	Sololá	701	Sololá	1	Sololá	7	Julio	2023-07-29T00:00:00	2024-11-08T05:00:00	8	Radiación solar	0
38105	7	Sololá	701	Sololá	1	Sololá	7	Julio	2023-07-29T00:00:00	2024-11-08T06:00:00	2	Temperatura media	16.1
38106	7	Sololá	701	Sololá	1	Sololá	7	Julio	2023-07-29T00:00:00	2024-11-08T06:00:00	4	Temperatura máxima	16.2
38107	7	Sololá	701	Sololá	1	Sololá	7	Julio	2023-07-29T00:00:00	2024-11-08T06:00:00	3	Temperatura mínima	15.7
38108	7	Sololá	701	Sololá	1	Sololá	7	Julio	2023-07-29T00:00:00	2024-11-08T06:00:00	5	Humedad	86
38109	7	Sololá	701	Sololá	1	Sololá	7	Julio	2023-07-29T00:00:00	2024-11-08T06:00:00	6	Velocidad del viento	8
38110	7	Sololá	701	Sololá	1	Sololá	7	Julio	2023-07-29T00:00:00	2024-11-08T06:00:00	7	Dirección del viento	8.05
38111	7	Sololá	701	Sololá	1	Sololá	7	Julio	2023-07-29T00:00:00	2024-11-08T06:00:00	1	Precipitación	0.2
38112	7	Sololá	701	Sololá	1	Sololá	7	Julio	2023-07-29T00:00:00	2024-11-08T06:00:00	8	Radiación solar	0
38113	7	Sololá	701	Sololá	1	Sololá	7	Julio	2023-07-29T00:00:00	2024-11-08T07:00:00	2	Temperatura media	16.6
38114	7	Sololá	701	Sololá	1	Sololá	7	Julio	2023-07-29T00:00:00	2024-11-08T07:00:00	4	Temperatura máxima	16.6
38115	7	Sololá	701	Sololá	1	Sololá	7	Julio	2023-07-29T00:00:00	2024-11-08T07:00:00	3	Temperatura mínima	16
38116	7	Sololá	701	Sololá	1	Sololá	7	Julio	2023-07-29T00:00:00	2024-11-08T07:00:00	5	Humedad	85
38117	7	Sololá	701	Sololá	1	Sololá	7	Julio	2023-07-29T00:00:00	2024-11-08T07:00:00	6	Velocidad del viento	9.7
38118	7	Sololá	701	Sololá	1	Sololá	7	Julio	2023-07-29T00:00:00	2024-11-08T07:00:00	7	Dirección del viento	9.66
38119	7	Sololá	701	Sololá	1	Sololá	7	Julio	2023-07-29T00:00:00	2024-11-08T07:00:00	1	Precipitación	0
38120	7	Sololá	701	Sololá	1	Sololá	7	Julio	2023-07-29T00:00:00	2024-11-08T07:00:00	8	Radiación solar	18
38121	7	Sololá	701	Sololá	1	Sololá	7	Julio	2023-07-29T00:00:00	2024-11-08T08:00:00	2	Temperatura media	17.2
38122	7	Sololá	701	Sololá	1	Sololá	7	Julio	2023-07-29T00:00:00	2024-11-08T08:00:00	4	Temperatura máxima	17.3
38123	7	Sololá	701	Sololá	1	Sololá	7	Julio	2023-07-29T00:00:00	2024-11-08T08:00:00	3	Temperatura mínima	16.6
38124	7	Sololá	701	Sololá	1	Sololá	7	Julio	2023-07-29T00:00:00	2024-11-08T08:00:00	5	Humedad	84
38125	7	Sololá	701	Sololá	1	Sololá	7	Julio	2023-07-29T00:00:00	2024-11-08T08:00:00	6	Velocidad del viento	9.7
38126	7	Sololá	701	Sololá	1	Sololá	7	Julio	2023-07-29T00:00:00	2024-11-08T08:00:00	7	Dirección del viento	9.66
38127	7	Sololá	701	Sololá	1	Sololá	7	Julio	2023-07-29T00:00:00	2024-11-08T08:00:00	1	Precipitación	0
38128	7	Sololá	701	Sololá	1	Sololá	7	Julio	2023-07-29T00:00:00	2024-11-08T08:00:00	8	Radiación solar	45
38129	7	Sololá	701	Sololá	1	Sololá	7	Julio	2023-07-29T00:00:00	2024-11-08T09:00:00	2	Temperatura media	17.3
38130	7	Sololá	701	Sololá	1	Sololá	7	Julio	2023-07-29T00:00:00	2024-11-08T09:00:00	4	Temperatura máxima	18.2
38131	7	Sololá	701	Sololá	1	Sololá	7	Julio	2023-07-29T00:00:00	2024-11-08T09:00:00	3	Temperatura mínima	17.3
38132	7	Sololá	701	Sololá	1	Sololá	7	Julio	2023-07-29T00:00:00	2024-11-08T09:00:00	5	Humedad	85
38133	7	Sololá	701	Sololá	1	Sololá	7	Julio	2023-07-29T00:00:00	2024-11-08T09:00:00	6	Velocidad del viento	8
38134	7	Sololá	701	Sololá	1	Sololá	7	Julio	2023-07-29T00:00:00	2024-11-08T09:00:00	7	Dirección del viento	8.05
38135	7	Sololá	701	Sololá	1	Sololá	7	Julio	2023-07-29T00:00:00	2024-11-08T09:00:00	1	Precipitación	0
38136	7	Sololá	701	Sololá	1	Sololá	7	Julio	2023-07-29T00:00:00	2024-11-08T09:00:00	8	Radiación solar	388
38137	7	Sololá	701	Sololá	1	Sololá	7	Julio	2023-07-29T00:00:00	2024-11-08T10:00:00	2	Temperatura media	17.8
38138	7	Sololá	701	Sololá	1	Sololá	7	Julio	2023-07-29T00:00:00	2024-11-08T10:00:00	4	Temperatura máxima	18.2
38139	7	Sololá	701	Sololá	1	Sololá	7	Julio	2023-07-29T00:00:00	2024-11-08T10:00:00	3	Temperatura mínima	17.2
38140	7	Sololá	701	Sololá	1	Sololá	7	Julio	2023-07-29T00:00:00	2024-11-08T10:00:00	5	Humedad	83
38141	7	Sololá	701	Sololá	1	Sololá	7	Julio	2023-07-29T00:00:00	2024-11-08T10:00:00	6	Velocidad del viento	11.3
38142	7	Sololá	701	Sololá	1	Sololá	7	Julio	2023-07-29T00:00:00	2024-11-08T10:00:00	7	Dirección del viento	11.27
38143	7	Sololá	701	Sololá	1	Sololá	7	Julio	2023-07-29T00:00:00	2024-11-08T10:00:00	1	Precipitación	0
38144	7	Sololá	701	Sololá	1	Sololá	7	Julio	2023-07-29T00:00:00	2024-11-08T10:00:00	8	Radiación solar	784
38145	7	Sololá	701	Sololá	1	Sololá	7	Julio	2023-07-29T00:00:00	2024-11-08T11:00:00	2	Temperatura media	18.4
38146	7	Sololá	701	Sololá	1	Sololá	7	Julio	2023-07-29T00:00:00	2024-11-08T11:00:00	4	Temperatura máxima	18.4
38147	7	Sololá	701	Sololá	1	Sololá	7	Julio	2023-07-29T00:00:00	2024-11-08T11:00:00	3	Temperatura mínima	17.7
38148	7	Sololá	701	Sololá	1	Sololá	7	Julio	2023-07-29T00:00:00	2024-11-08T11:00:00	5	Humedad	82
38149	7	Sololá	701	Sololá	1	Sololá	7	Julio	2023-07-29T00:00:00	2024-11-08T11:00:00	6	Velocidad del viento	9.7
38150	7	Sololá	701	Sololá	1	Sololá	7	Julio	2023-07-29T00:00:00	2024-11-08T11:00:00	7	Dirección del viento	9.66
38151	7	Sololá	701	Sololá	1	Sololá	7	Julio	2023-07-29T00:00:00	2024-11-08T11:00:00	1	Precipitación	0
38152	7	Sololá	701	Sololá	1	Sololá	7	Julio	2023-07-29T00:00:00	2024-11-08T11:00:00	8	Radiación solar	322
38153	7	Sololá	701	Sololá	1	Sololá	7	Julio	2023-07-29T00:00:00	2024-11-08T12:00:00	2	Temperatura media	17.8
38154	7	Sololá	701	Sololá	1	Sololá	7	Julio	2023-07-29T00:00:00	2024-11-08T12:00:00	4	Temperatura máxima	18.8
38155	7	Sololá	701	Sololá	1	Sololá	7	Julio	2023-07-29T00:00:00	2024-11-08T12:00:00	3	Temperatura mínima	17.8
38156	7	Sololá	701	Sololá	1	Sololá	7	Julio	2023-07-29T00:00:00	2024-11-08T12:00:00	5	Humedad	86
38157	7	Sololá	701	Sololá	1	Sololá	7	Julio	2023-07-29T00:00:00	2024-11-08T12:00:00	6	Velocidad del viento	8
38158	7	Sololá	701	Sololá	1	Sololá	7	Julio	2023-07-29T00:00:00	2024-11-08T12:00:00	7	Dirección del viento	8.05
38159	7	Sololá	701	Sololá	1	Sololá	7	Julio	2023-07-29T00:00:00	2024-11-08T12:00:00	1	Precipitación	0.4
38160	7	Sololá	701	Sololá	1	Sololá	7	Julio	2023-07-29T00:00:00	2024-11-08T12:00:00	8	Radiación solar	263
38161	7	Sololá	701	Sololá	1	Sololá	7	Julio	2023-07-29T00:00:00	2024-11-08T13:00:00	2	Temperatura media	16.3
38162	7	Sololá	701	Sololá	1	Sololá	7	Julio	2023-07-29T00:00:00	2024-11-08T13:00:00	4	Temperatura máxima	17.9
38163	7	Sololá	701	Sololá	1	Sololá	7	Julio	2023-07-29T00:00:00	2024-11-08T13:00:00	3	Temperatura mínima	16.2
38164	7	Sololá	701	Sololá	1	Sololá	7	Julio	2023-07-29T00:00:00	2024-11-08T13:00:00	5	Humedad	95
38165	7	Sololá	701	Sololá	1	Sololá	7	Julio	2023-07-29T00:00:00	2024-11-08T13:00:00	6	Velocidad del viento	1.6
38166	7	Sololá	701	Sololá	1	Sololá	7	Julio	2023-07-29T00:00:00	2024-11-08T13:00:00	7	Dirección del viento	1.61
38167	7	Sololá	701	Sololá	1	Sololá	7	Julio	2023-07-29T00:00:00	2024-11-08T13:00:00	1	Precipitación	5.4
38168	7	Sololá	701	Sololá	1	Sololá	7	Julio	2023-07-29T00:00:00	2024-11-08T13:00:00	8	Radiación solar	415
38169	7	Sololá	701	Sololá	1	Sololá	7	Julio	2023-07-29T00:00:00	2024-11-08T14:00:00	2	Temperatura media	16.7
38170	7	Sololá	701	Sololá	1	Sololá	7	Julio	2023-07-29T00:00:00	2024-11-08T14:00:00	4	Temperatura máxima	16.7
38171	7	Sololá	701	Sololá	1	Sololá	7	Julio	2023-07-29T00:00:00	2024-11-08T14:00:00	3	Temperatura mínima	15.8
38172	7	Sololá	701	Sololá	1	Sololá	7	Julio	2023-07-29T00:00:00	2024-11-08T14:00:00	5	Humedad	89
38173	7	Sololá	701	Sololá	1	Sololá	7	Julio	2023-07-29T00:00:00	2024-11-08T14:00:00	6	Velocidad del viento	3.2
38174	7	Sololá	701	Sololá	1	Sololá	7	Julio	2023-07-29T00:00:00	2024-11-08T14:00:00	7	Dirección del viento	3.22
38175	7	Sololá	701	Sololá	1	Sololá	7	Julio	2023-07-29T00:00:00	2024-11-08T14:00:00	1	Precipitación	4.2
38176	7	Sololá	701	Sololá	1	Sololá	7	Julio	2023-07-29T00:00:00	2024-11-08T14:00:00	8	Radiación solar	446
38177	7	Sololá	701	Sololá	1	Sololá	7	Julio	2023-07-29T00:00:00	2024-11-08T15:00:00	2	Temperatura media	18.6
38178	7	Sololá	701	Sololá	1	Sololá	7	Julio	2023-07-29T00:00:00	2024-11-08T15:00:00	4	Temperatura máxima	18.7
38179	7	Sololá	701	Sololá	1	Sololá	7	Julio	2023-07-29T00:00:00	2024-11-08T15:00:00	3	Temperatura mínima	16.7
38180	7	Sololá	701	Sololá	1	Sololá	7	Julio	2023-07-29T00:00:00	2024-11-08T15:00:00	5	Humedad	82
38181	7	Sololá	701	Sololá	1	Sololá	7	Julio	2023-07-29T00:00:00	2024-11-08T15:00:00	6	Velocidad del viento	3.2
38182	7	Sololá	701	Sololá	1	Sololá	7	Julio	2023-07-29T00:00:00	2024-11-08T15:00:00	7	Dirección del viento	3.22
38183	7	Sololá	701	Sololá	1	Sololá	7	Julio	2023-07-29T00:00:00	2024-11-08T15:00:00	1	Precipitación	0
38184	7	Sololá	701	Sololá	1	Sololá	7	Julio	2023-07-29T00:00:00	2024-11-08T15:00:00	8	Radiación solar	279
38185	7	Sololá	701	Sololá	1	Sololá	7	Julio	2023-07-29T00:00:00	2024-11-08T16:00:00	2	Temperatura media	21
38186	7	Sololá	701	Sololá	1	Sololá	7	Julio	2023-07-29T00:00:00	2024-11-08T16:00:00	4	Temperatura máxima	21
38187	7	Sololá	701	Sololá	1	Sololá	7	Julio	2023-07-29T00:00:00	2024-11-08T16:00:00	3	Temperatura mínima	18.6
38188	7	Sololá	701	Sololá	1	Sololá	7	Julio	2023-07-29T00:00:00	2024-11-08T16:00:00	5	Humedad	76
38189	7	Sololá	701	Sololá	1	Sololá	7	Julio	2023-07-29T00:00:00	2024-11-08T16:00:00	6	Velocidad del viento	3.2
38190	7	Sololá	701	Sololá	1	Sololá	7	Julio	2023-07-29T00:00:00	2024-11-08T16:00:00	7	Dirección del viento	3.22
38191	7	Sololá	701	Sololá	1	Sololá	7	Julio	2023-07-29T00:00:00	2024-11-08T16:00:00	1	Precipitación	0
38192	7	Sololá	701	Sololá	1	Sololá	7	Julio	2023-07-29T00:00:00	2024-11-08T16:00:00	8	Radiación solar	83
38193	7	Sololá	701	Sololá	1	Sololá	7	Julio	2023-07-29T00:00:00	2024-11-08T17:00:00	2	Temperatura media	19.1
38194	7	Sololá	701	Sololá	1	Sololá	7	Julio	2023-07-29T00:00:00	2024-11-08T17:00:00	4	Temperatura máxima	21.1
38195	7	Sololá	701	Sololá	1	Sololá	7	Julio	2023-07-29T00:00:00	2024-11-08T17:00:00	3	Temperatura mínima	19.1
38196	7	Sololá	701	Sololá	1	Sololá	7	Julio	2023-07-29T00:00:00	2024-11-08T17:00:00	5	Humedad	79
38197	7	Sololá	701	Sololá	1	Sololá	7	Julio	2023-07-29T00:00:00	2024-11-08T17:00:00	6	Velocidad del viento	1.6
38198	7	Sololá	701	Sololá	1	Sololá	7	Julio	2023-07-29T00:00:00	2024-11-08T17:00:00	7	Dirección del viento	1.61
38199	7	Sololá	701	Sololá	1	Sololá	7	Julio	2023-07-29T00:00:00	2024-11-08T17:00:00	1	Precipitación	0
38200	7	Sololá	701	Sololá	1	Sololá	7	Julio	2023-07-29T00:00:00	2024-11-08T17:00:00	8	Radiación solar	82
38201	7	Sololá	701	Sololá	1	Sololá	7	Julio	2023-07-29T00:00:00	2024-11-08T18:00:00	2	Temperatura media	17.7
38202	7	Sololá	701	Sololá	1	Sololá	7	Julio	2023-07-29T00:00:00	2024-11-08T18:00:00	4	Temperatura máxima	19.1
38203	7	Sololá	701	Sololá	1	Sololá	7	Julio	2023-07-29T00:00:00	2024-11-08T18:00:00	3	Temperatura mínima	17.7
38204	7	Sololá	701	Sololá	1	Sololá	7	Julio	2023-07-29T00:00:00	2024-11-08T18:00:00	5	Humedad	91
38205	7	Sololá	701	Sololá	1	Sololá	7	Julio	2023-07-29T00:00:00	2024-11-08T18:00:00	6	Velocidad del viento	1.6
38206	7	Sololá	701	Sololá	1	Sololá	7	Julio	2023-07-29T00:00:00	2024-11-08T18:00:00	7	Dirección del viento	1.61
38207	7	Sololá	701	Sololá	1	Sololá	7	Julio	2023-07-29T00:00:00	2024-11-08T18:00:00	1	Precipitación	0.4
38208	7	Sololá	701	Sololá	1	Sololá	7	Julio	2023-07-29T00:00:00	2024-11-08T18:00:00	8	Radiación solar	44
38209	7	Sololá	701	Sololá	1	Sololá	7	Julio	2023-07-29T00:00:00	2024-11-08T19:00:00	2	Temperatura media	16.4
38210	7	Sololá	701	Sololá	1	Sololá	7	Julio	2023-07-29T00:00:00	2024-11-08T19:00:00	4	Temperatura máxima	17.7
38211	7	Sololá	701	Sololá	1	Sololá	7	Julio	2023-07-29T00:00:00	2024-11-08T19:00:00	3	Temperatura mínima	16.4
38212	7	Sololá	701	Sololá	1	Sololá	7	Julio	2023-07-29T00:00:00	2024-11-08T19:00:00	5	Humedad	95
38213	7	Sololá	701	Sololá	1	Sololá	7	Julio	2023-07-29T00:00:00	2024-11-08T19:00:00	6	Velocidad del viento	1.6
38214	7	Sololá	701	Sololá	1	Sololá	7	Julio	2023-07-29T00:00:00	2024-11-08T19:00:00	7	Dirección del viento	1.61
38215	7	Sololá	701	Sololá	1	Sololá	7	Julio	2023-07-29T00:00:00	2024-11-08T19:00:00	1	Precipitación	1.8
38216	7	Sololá	701	Sololá	1	Sololá	7	Julio	2023-07-29T00:00:00	2024-11-08T19:00:00	8	Radiación solar	0
38217	7	Sololá	701	Sololá	1	Sololá	7	Julio	2023-07-29T00:00:00	2024-11-08T20:00:00	2	Temperatura media	16.3
38218	7	Sololá	701	Sololá	1	Sololá	7	Julio	2023-07-29T00:00:00	2024-11-08T20:00:00	4	Temperatura máxima	16.4
38219	7	Sololá	701	Sololá	1	Sololá	7	Julio	2023-07-29T00:00:00	2024-11-08T20:00:00	3	Temperatura mínima	16.1
38220	7	Sololá	701	Sololá	1	Sololá	7	Julio	2023-07-29T00:00:00	2024-11-08T20:00:00	5	Humedad	95
38221	7	Sololá	701	Sololá	1	Sololá	7	Julio	2023-07-29T00:00:00	2024-11-08T20:00:00	6	Velocidad del viento	3.2
38222	7	Sololá	701	Sololá	1	Sololá	7	Julio	2023-07-29T00:00:00	2024-11-08T20:00:00	7	Dirección del viento	3.22
38223	7	Sololá	701	Sololá	1	Sololá	7	Julio	2023-07-29T00:00:00	2024-11-08T20:00:00	1	Precipitación	1.2
38224	7	Sololá	701	Sololá	1	Sololá	7	Julio	2023-07-29T00:00:00	2024-11-08T20:00:00	8	Radiación solar	0
38225	7	Sololá	701	Sololá	1	Sololá	7	Julio	2023-07-29T00:00:00	2024-11-08T21:00:00	2	Temperatura media	14.8
38226	7	Sololá	701	Sololá	1	Sololá	7	Julio	2023-07-29T00:00:00	2024-11-08T21:00:00	4	Temperatura máxima	16.3
38227	7	Sololá	701	Sololá	1	Sololá	7	Julio	2023-07-29T00:00:00	2024-11-08T21:00:00	3	Temperatura mínima	14.7
38228	7	Sololá	701	Sololá	1	Sololá	7	Julio	2023-07-29T00:00:00	2024-11-08T21:00:00	5	Humedad	95
38229	7	Sololá	701	Sololá	1	Sololá	7	Julio	2023-07-29T00:00:00	2024-11-08T21:00:00	6	Velocidad del viento	6.4
38230	7	Sololá	701	Sololá	1	Sololá	7	Julio	2023-07-29T00:00:00	2024-11-08T21:00:00	7	Dirección del viento	6.44
38231	7	Sololá	701	Sololá	1	Sololá	7	Julio	2023-07-29T00:00:00	2024-11-08T21:00:00	1	Precipitación	6
38232	7	Sololá	701	Sololá	1	Sololá	7	Julio	2023-07-29T00:00:00	2024-11-08T21:00:00	8	Radiación solar	0
38233	7	Sololá	701	Sololá	1	Sololá	7	Julio	2023-07-29T00:00:00	2024-11-08T22:00:00	2	Temperatura media	14.9
38234	7	Sololá	701	Sololá	1	Sololá	7	Julio	2023-07-29T00:00:00	2024-11-08T22:00:00	4	Temperatura máxima	15
38235	7	Sololá	701	Sololá	1	Sololá	7	Julio	2023-07-29T00:00:00	2024-11-08T22:00:00	3	Temperatura mínima	14.8
38236	7	Sololá	701	Sololá	1	Sololá	7	Julio	2023-07-29T00:00:00	2024-11-08T22:00:00	5	Humedad	94
38237	7	Sololá	701	Sololá	1	Sololá	7	Julio	2023-07-29T00:00:00	2024-11-08T22:00:00	6	Velocidad del viento	6.4
38238	7	Sololá	701	Sololá	1	Sololá	7	Julio	2023-07-29T00:00:00	2024-11-08T22:00:00	7	Dirección del viento	6.44
38239	7	Sololá	701	Sololá	1	Sololá	7	Julio	2023-07-29T00:00:00	2024-11-08T22:00:00	1	Precipitación	2
38240	7	Sololá	701	Sololá	1	Sololá	7	Julio	2023-07-29T00:00:00	2024-11-08T22:00:00	8	Radiación solar	0
38241	7	Sololá	701	Sololá	1	Sololá	7	Julio	2023-07-29T00:00:00	2024-11-08T23:00:00	2	Temperatura media	15.1
38242	7	Sololá	701	Sololá	1	Sololá	7	Julio	2023-07-29T00:00:00	2024-11-08T23:00:00	4	Temperatura máxima	15.2
38243	7	Sololá	701	Sololá	1	Sololá	7	Julio	2023-07-29T00:00:00	2024-11-08T23:00:00	3	Temperatura mínima	14.9
38244	7	Sololá	701	Sololá	1	Sololá	7	Julio	2023-07-29T00:00:00	2024-11-08T23:00:00	5	Humedad	91
38245	7	Sololá	701	Sololá	1	Sololá	7	Julio	2023-07-29T00:00:00	2024-11-08T23:00:00	6	Velocidad del viento	6.4
38246	7	Sololá	701	Sololá	1	Sololá	7	Julio	2023-07-29T00:00:00	2024-11-08T23:00:00	7	Dirección del viento	6.44
38247	7	Sololá	701	Sololá	1	Sololá	7	Julio	2023-07-29T00:00:00	2024-11-08T23:00:00	1	Precipitación	0
38248	7	Sololá	701	Sololá	1	Sololá	7	Julio	2023-07-29T00:00:00	2024-11-08T23:00:00	8	Radiación solar	0
38249	7	Sololá	701	Sololá	1	Sololá	7	Julio	2023-07-30T00:00:00	2024-11-08T00:00:00	2	Temperatura media	16.1
38250	7	Sololá	701	Sololá	1	Sololá	7	Julio	2023-07-30T00:00:00	2024-11-08T00:00:00	4	Temperatura máxima	16.1
38251	7	Sololá	701	Sololá	1	Sololá	7	Julio	2023-07-30T00:00:00	2024-11-08T00:00:00	3	Temperatura mínima	15.1
38252	7	Sololá	701	Sololá	1	Sololá	7	Julio	2023-07-30T00:00:00	2024-11-08T00:00:00	5	Humedad	89
38253	7	Sololá	701	Sololá	1	Sololá	7	Julio	2023-07-30T00:00:00	2024-11-08T00:00:00	6	Velocidad del viento	6.4
38254	7	Sololá	701	Sololá	1	Sololá	7	Julio	2023-07-30T00:00:00	2024-11-08T00:00:00	7	Dirección del viento	6.44
38255	7	Sololá	701	Sololá	1	Sololá	7	Julio	2023-07-30T00:00:00	2024-11-08T00:00:00	1	Precipitación	0
38256	7	Sololá	701	Sololá	1	Sololá	7	Julio	2023-07-30T00:00:00	2024-11-08T00:00:00	8	Radiación solar	0
38257	7	Sololá	701	Sololá	1	Sololá	7	Julio	2023-07-30T00:00:00	2024-11-08T01:00:00	2	Temperatura media	16.2
38258	7	Sololá	701	Sololá	1	Sololá	7	Julio	2023-07-30T00:00:00	2024-11-08T01:00:00	4	Temperatura máxima	16.3
38259	7	Sololá	701	Sololá	1	Sololá	7	Julio	2023-07-30T00:00:00	2024-11-08T01:00:00	3	Temperatura mínima	16.1
38260	7	Sololá	701	Sololá	1	Sololá	7	Julio	2023-07-30T00:00:00	2024-11-08T01:00:00	5	Humedad	86
38261	7	Sololá	701	Sololá	1	Sololá	7	Julio	2023-07-30T00:00:00	2024-11-08T01:00:00	6	Velocidad del viento	8
38262	7	Sololá	701	Sololá	1	Sololá	7	Julio	2023-07-30T00:00:00	2024-11-08T01:00:00	7	Dirección del viento	8.05
38263	7	Sololá	701	Sololá	1	Sololá	7	Julio	2023-07-30T00:00:00	2024-11-08T01:00:00	1	Precipitación	0
38264	7	Sololá	701	Sololá	1	Sololá	7	Julio	2023-07-30T00:00:00	2024-11-08T01:00:00	8	Radiación solar	0
38265	7	Sololá	701	Sololá	1	Sololá	7	Julio	2023-07-30T00:00:00	2024-11-08T02:00:00	2	Temperatura media	15.7
38266	7	Sololá	701	Sololá	1	Sololá	7	Julio	2023-07-30T00:00:00	2024-11-08T02:00:00	4	Temperatura máxima	16.2
38267	7	Sololá	701	Sololá	1	Sololá	7	Julio	2023-07-30T00:00:00	2024-11-08T02:00:00	3	Temperatura mínima	15.7
38268	7	Sololá	701	Sololá	1	Sololá	7	Julio	2023-07-30T00:00:00	2024-11-08T02:00:00	5	Humedad	87
38269	7	Sololá	701	Sololá	1	Sololá	7	Julio	2023-07-30T00:00:00	2024-11-08T02:00:00	6	Velocidad del viento	8
38270	7	Sololá	701	Sololá	1	Sololá	7	Julio	2023-07-30T00:00:00	2024-11-08T02:00:00	7	Dirección del viento	8.05
38271	7	Sololá	701	Sololá	1	Sololá	7	Julio	2023-07-30T00:00:00	2024-11-08T02:00:00	1	Precipitación	0
38272	7	Sololá	701	Sololá	1	Sololá	7	Julio	2023-07-30T00:00:00	2024-11-08T02:00:00	8	Radiación solar	0
38273	7	Sololá	701	Sololá	1	Sololá	7	Julio	2023-07-30T00:00:00	2024-11-08T03:00:00	2	Temperatura media	15.3
38274	7	Sololá	701	Sololá	1	Sololá	7	Julio	2023-07-30T00:00:00	2024-11-08T03:00:00	4	Temperatura máxima	15.7
38275	7	Sololá	701	Sololá	1	Sololá	7	Julio	2023-07-30T00:00:00	2024-11-08T03:00:00	3	Temperatura mínima	15.2
38276	7	Sololá	701	Sololá	1	Sololá	7	Julio	2023-07-30T00:00:00	2024-11-08T03:00:00	5	Humedad	86
38277	7	Sololá	701	Sololá	1	Sololá	7	Julio	2023-07-30T00:00:00	2024-11-08T03:00:00	6	Velocidad del viento	8
38278	7	Sololá	701	Sololá	1	Sololá	7	Julio	2023-07-30T00:00:00	2024-11-08T03:00:00	7	Dirección del viento	8.05
38279	7	Sololá	701	Sololá	1	Sololá	7	Julio	2023-07-30T00:00:00	2024-11-08T03:00:00	1	Precipitación	0
38280	7	Sololá	701	Sololá	1	Sololá	7	Julio	2023-07-30T00:00:00	2024-11-08T03:00:00	8	Radiación solar	0
38281	7	Sololá	701	Sololá	1	Sololá	7	Julio	2023-07-30T00:00:00	2024-11-08T04:00:00	2	Temperatura media	15.4
38282	7	Sololá	701	Sololá	1	Sololá	7	Julio	2023-07-30T00:00:00	2024-11-08T04:00:00	4	Temperatura máxima	15.5
38283	7	Sololá	701	Sololá	1	Sololá	7	Julio	2023-07-30T00:00:00	2024-11-08T04:00:00	3	Temperatura mínima	15.3
38284	7	Sololá	701	Sololá	1	Sololá	7	Julio	2023-07-30T00:00:00	2024-11-08T04:00:00	5	Humedad	85
38285	7	Sololá	701	Sololá	1	Sololá	7	Julio	2023-07-30T00:00:00	2024-11-08T04:00:00	6	Velocidad del viento	8
38286	7	Sololá	701	Sololá	1	Sololá	7	Julio	2023-07-30T00:00:00	2024-11-08T04:00:00	7	Dirección del viento	8.05
38287	7	Sololá	701	Sololá	1	Sololá	7	Julio	2023-07-30T00:00:00	2024-11-08T04:00:00	1	Precipitación	0
38288	7	Sololá	701	Sololá	1	Sololá	7	Julio	2023-07-30T00:00:00	2024-11-08T04:00:00	8	Radiación solar	0
38289	7	Sololá	701	Sololá	1	Sololá	7	Julio	2023-07-30T00:00:00	2024-11-08T05:00:00	2	Temperatura media	14.8
38290	7	Sololá	701	Sololá	1	Sololá	7	Julio	2023-07-30T00:00:00	2024-11-08T05:00:00	4	Temperatura máxima	15.7
38291	7	Sololá	701	Sololá	1	Sololá	7	Julio	2023-07-30T00:00:00	2024-11-08T05:00:00	3	Temperatura mínima	14.6
38292	7	Sololá	701	Sololá	1	Sololá	7	Julio	2023-07-30T00:00:00	2024-11-08T05:00:00	5	Humedad	88
38293	7	Sololá	701	Sololá	1	Sololá	7	Julio	2023-07-30T00:00:00	2024-11-08T05:00:00	6	Velocidad del viento	6.4
38294	7	Sololá	701	Sololá	1	Sololá	7	Julio	2023-07-30T00:00:00	2024-11-08T05:00:00	7	Dirección del viento	6.44
38295	7	Sololá	701	Sololá	1	Sololá	7	Julio	2023-07-30T00:00:00	2024-11-08T05:00:00	1	Precipitación	0
38296	7	Sololá	701	Sololá	1	Sololá	7	Julio	2023-07-30T00:00:00	2024-11-08T05:00:00	8	Radiación solar	0
38297	7	Sololá	701	Sololá	1	Sololá	7	Julio	2023-07-30T00:00:00	2024-11-08T06:00:00	2	Temperatura media	15.7
38298	7	Sololá	701	Sololá	1	Sololá	7	Julio	2023-07-30T00:00:00	2024-11-08T06:00:00	4	Temperatura máxima	15.7
38299	7	Sololá	701	Sololá	1	Sololá	7	Julio	2023-07-30T00:00:00	2024-11-08T06:00:00	3	Temperatura mínima	14.7
38300	7	Sololá	701	Sololá	1	Sololá	7	Julio	2023-07-30T00:00:00	2024-11-08T06:00:00	5	Humedad	84
38301	7	Sololá	701	Sololá	1	Sololá	7	Julio	2023-07-30T00:00:00	2024-11-08T06:00:00	6	Velocidad del viento	6.4
38302	7	Sololá	701	Sololá	1	Sololá	7	Julio	2023-07-30T00:00:00	2024-11-08T06:00:00	7	Dirección del viento	6.44
38303	7	Sololá	701	Sololá	1	Sololá	7	Julio	2023-07-30T00:00:00	2024-11-08T06:00:00	1	Precipitación	0
38304	7	Sololá	701	Sololá	1	Sololá	7	Julio	2023-07-30T00:00:00	2024-11-08T06:00:00	8	Radiación solar	1
38305	7	Sololá	701	Sololá	1	Sololá	7	Julio	2023-07-30T00:00:00	2024-11-08T07:00:00	2	Temperatura media	17.3
38306	7	Sololá	701	Sololá	1	Sololá	7	Julio	2023-07-30T00:00:00	2024-11-08T07:00:00	4	Temperatura máxima	17.3
38307	7	Sololá	701	Sololá	1	Sololá	7	Julio	2023-07-30T00:00:00	2024-11-08T07:00:00	3	Temperatura mínima	15.7
38308	7	Sololá	701	Sololá	1	Sololá	7	Julio	2023-07-30T00:00:00	2024-11-08T07:00:00	5	Humedad	79
38309	7	Sololá	701	Sololá	1	Sololá	7	Julio	2023-07-30T00:00:00	2024-11-08T07:00:00	6	Velocidad del viento	6.4
38310	7	Sololá	701	Sololá	1	Sololá	7	Julio	2023-07-30T00:00:00	2024-11-08T07:00:00	7	Dirección del viento	6.44
38311	7	Sololá	701	Sololá	1	Sololá	7	Julio	2023-07-30T00:00:00	2024-11-08T07:00:00	1	Precipitación	0
38312	7	Sololá	701	Sololá	1	Sololá	7	Julio	2023-07-30T00:00:00	2024-11-08T07:00:00	8	Radiación solar	17
38313	7	Sololá	701	Sololá	1	Sololá	7	Julio	2023-07-30T00:00:00	2024-11-08T08:00:00	2	Temperatura media	19.1
38314	7	Sololá	701	Sololá	1	Sololá	7	Julio	2023-07-30T00:00:00	2024-11-08T08:00:00	4	Temperatura máxima	19.1
38315	7	Sololá	701	Sololá	1	Sololá	7	Julio	2023-07-30T00:00:00	2024-11-08T08:00:00	3	Temperatura mínima	17.3
38316	7	Sololá	701	Sololá	1	Sololá	7	Julio	2023-07-30T00:00:00	2024-11-08T08:00:00	5	Humedad	74
38317	7	Sololá	701	Sololá	1	Sololá	7	Julio	2023-07-30T00:00:00	2024-11-08T08:00:00	6	Velocidad del viento	9.7
38318	7	Sololá	701	Sololá	1	Sololá	7	Julio	2023-07-30T00:00:00	2024-11-08T08:00:00	7	Dirección del viento	9.66
38319	7	Sololá	701	Sololá	1	Sololá	7	Julio	2023-07-30T00:00:00	2024-11-08T08:00:00	1	Precipitación	0
38320	7	Sololá	701	Sololá	1	Sololá	7	Julio	2023-07-30T00:00:00	2024-11-08T08:00:00	8	Radiación solar	60
38321	7	Sololá	701	Sololá	1	Sololá	7	Julio	2023-07-30T00:00:00	2024-11-08T09:00:00	2	Temperatura media	20.7
38322	7	Sololá	701	Sololá	1	Sololá	7	Julio	2023-07-30T00:00:00	2024-11-08T09:00:00	4	Temperatura máxima	20.7
38323	7	Sololá	701	Sololá	1	Sololá	7	Julio	2023-07-30T00:00:00	2024-11-08T09:00:00	3	Temperatura mínima	19.1
38324	7	Sololá	701	Sololá	1	Sololá	7	Julio	2023-07-30T00:00:00	2024-11-08T09:00:00	5	Humedad	71
38325	7	Sololá	701	Sololá	1	Sololá	7	Julio	2023-07-30T00:00:00	2024-11-08T09:00:00	6	Velocidad del viento	11.3
38326	7	Sololá	701	Sololá	1	Sololá	7	Julio	2023-07-30T00:00:00	2024-11-08T09:00:00	7	Dirección del viento	11.27
38327	7	Sololá	701	Sololá	1	Sololá	7	Julio	2023-07-30T00:00:00	2024-11-08T09:00:00	1	Precipitación	0
38328	7	Sololá	701	Sololá	1	Sololá	7	Julio	2023-07-30T00:00:00	2024-11-08T09:00:00	8	Radiación solar	433
38329	7	Sololá	701	Sololá	1	Sololá	7	Julio	2023-07-30T00:00:00	2024-11-08T10:00:00	2	Temperatura media	21.4
38330	7	Sololá	701	Sololá	1	Sololá	7	Julio	2023-07-30T00:00:00	2024-11-08T10:00:00	4	Temperatura máxima	21.6
38331	7	Sololá	701	Sololá	1	Sololá	7	Julio	2023-07-30T00:00:00	2024-11-08T10:00:00	3	Temperatura mínima	20.6
38332	7	Sololá	701	Sololá	1	Sololá	7	Julio	2023-07-30T00:00:00	2024-11-08T10:00:00	5	Humedad	69
38333	7	Sololá	701	Sololá	1	Sololá	7	Julio	2023-07-30T00:00:00	2024-11-08T10:00:00	6	Velocidad del viento	12.9
38334	7	Sololá	701	Sololá	1	Sololá	7	Julio	2023-07-30T00:00:00	2024-11-08T10:00:00	7	Dirección del viento	12.87
38335	7	Sololá	701	Sololá	1	Sololá	7	Julio	2023-07-30T00:00:00	2024-11-08T10:00:00	1	Precipitación	0
38336	7	Sololá	701	Sololá	1	Sololá	7	Julio	2023-07-30T00:00:00	2024-11-08T10:00:00	8	Radiación solar	754
38337	7	Sololá	701	Sololá	1	Sololá	7	Julio	2023-07-30T00:00:00	2024-11-08T11:00:00	2	Temperatura media	21.3
38338	7	Sololá	701	Sololá	1	Sololá	7	Julio	2023-07-30T00:00:00	2024-11-08T11:00:00	4	Temperatura máxima	22
38339	7	Sololá	701	Sololá	1	Sololá	7	Julio	2023-07-30T00:00:00	2024-11-08T11:00:00	3	Temperatura mínima	20.9
38340	7	Sololá	701	Sololá	1	Sololá	7	Julio	2023-07-30T00:00:00	2024-11-08T11:00:00	5	Humedad	71
38341	7	Sololá	701	Sololá	1	Sololá	7	Julio	2023-07-30T00:00:00	2024-11-08T11:00:00	6	Velocidad del viento	11.3
38342	7	Sololá	701	Sololá	1	Sololá	7	Julio	2023-07-30T00:00:00	2024-11-08T11:00:00	7	Dirección del viento	11.27
38343	7	Sololá	701	Sololá	1	Sololá	7	Julio	2023-07-30T00:00:00	2024-11-08T11:00:00	1	Precipitación	0
38344	7	Sololá	701	Sololá	1	Sololá	7	Julio	2023-07-30T00:00:00	2024-11-08T11:00:00	8	Radiación solar	845
38345	7	Sololá	701	Sololá	1	Sololá	7	Julio	2023-07-30T00:00:00	2024-11-08T12:00:00	2	Temperatura media	22.4
38346	7	Sololá	701	Sololá	1	Sololá	7	Julio	2023-07-30T00:00:00	2024-11-08T12:00:00	4	Temperatura máxima	22.4
38347	7	Sololá	701	Sololá	1	Sololá	7	Julio	2023-07-30T00:00:00	2024-11-08T12:00:00	3	Temperatura mínima	21.4
38348	7	Sololá	701	Sololá	1	Sololá	7	Julio	2023-07-30T00:00:00	2024-11-08T12:00:00	5	Humedad	65
38349	7	Sololá	701	Sololá	1	Sololá	7	Julio	2023-07-30T00:00:00	2024-11-08T12:00:00	6	Velocidad del viento	8
38350	7	Sololá	701	Sololá	1	Sololá	7	Julio	2023-07-30T00:00:00	2024-11-08T12:00:00	7	Dirección del viento	8.05
38351	7	Sololá	701	Sololá	1	Sololá	7	Julio	2023-07-30T00:00:00	2024-11-08T12:00:00	1	Precipitación	0
38352	7	Sololá	701	Sololá	1	Sololá	7	Julio	2023-07-30T00:00:00	2024-11-08T12:00:00	8	Radiación solar	368
38353	7	Sololá	701	Sololá	1	Sololá	7	Julio	2023-07-30T00:00:00	2024-11-08T13:00:00	2	Temperatura media	21.6
38354	7	Sololá	701	Sololá	1	Sololá	7	Julio	2023-07-30T00:00:00	2024-11-08T13:00:00	4	Temperatura máxima	22.6
38355	7	Sololá	701	Sololá	1	Sololá	7	Julio	2023-07-30T00:00:00	2024-11-08T13:00:00	3	Temperatura mínima	21.4
38356	7	Sololá	701	Sololá	1	Sololá	7	Julio	2023-07-30T00:00:00	2024-11-08T13:00:00	5	Humedad	78
38357	7	Sololá	701	Sololá	1	Sololá	7	Julio	2023-07-30T00:00:00	2024-11-08T13:00:00	6	Velocidad del viento	6.4
38358	7	Sololá	701	Sololá	1	Sololá	7	Julio	2023-07-30T00:00:00	2024-11-08T13:00:00	7	Dirección del viento	6.44
38359	7	Sololá	701	Sololá	1	Sololá	7	Julio	2023-07-30T00:00:00	2024-11-08T13:00:00	1	Precipitación	0
38360	7	Sololá	701	Sololá	1	Sololá	7	Julio	2023-07-30T00:00:00	2024-11-08T13:00:00	8	Radiación solar	249
38361	7	Sololá	701	Sololá	1	Sololá	7	Julio	2023-07-30T00:00:00	2024-11-08T14:00:00	2	Temperatura media	22.7
38362	7	Sololá	701	Sololá	1	Sololá	7	Julio	2023-07-30T00:00:00	2024-11-08T14:00:00	4	Temperatura máxima	22.7
38363	7	Sololá	701	Sololá	1	Sololá	7	Julio	2023-07-30T00:00:00	2024-11-08T14:00:00	3	Temperatura mínima	21.6
38364	7	Sololá	701	Sololá	1	Sololá	7	Julio	2023-07-30T00:00:00	2024-11-08T14:00:00	5	Humedad	71
38365	7	Sololá	701	Sololá	1	Sololá	7	Julio	2023-07-30T00:00:00	2024-11-08T14:00:00	6	Velocidad del viento	4.8
38366	7	Sololá	701	Sololá	1	Sololá	7	Julio	2023-07-30T00:00:00	2024-11-08T14:00:00	7	Dirección del viento	4.83
38367	7	Sololá	701	Sololá	1	Sololá	7	Julio	2023-07-30T00:00:00	2024-11-08T14:00:00	1	Precipitación	0
38368	7	Sololá	701	Sololá	1	Sololá	7	Julio	2023-07-30T00:00:00	2024-11-08T14:00:00	8	Radiación solar	235
38369	7	Sololá	701	Sololá	1	Sololá	7	Julio	2023-07-30T00:00:00	2024-11-08T15:00:00	2	Temperatura media	22.2
38370	7	Sololá	701	Sololá	1	Sololá	7	Julio	2023-07-30T00:00:00	2024-11-08T15:00:00	4	Temperatura máxima	22.7
38371	7	Sololá	701	Sololá	1	Sololá	7	Julio	2023-07-30T00:00:00	2024-11-08T15:00:00	3	Temperatura mínima	22.2
38372	7	Sololá	701	Sololá	1	Sololá	7	Julio	2023-07-30T00:00:00	2024-11-08T15:00:00	5	Humedad	77
38373	7	Sololá	701	Sololá	1	Sololá	7	Julio	2023-07-30T00:00:00	2024-11-08T15:00:00	6	Velocidad del viento	4.8
38374	7	Sololá	701	Sololá	1	Sololá	7	Julio	2023-07-30T00:00:00	2024-11-08T15:00:00	7	Dirección del viento	4.83
38375	7	Sololá	701	Sololá	1	Sololá	7	Julio	2023-07-30T00:00:00	2024-11-08T15:00:00	1	Precipitación	0
38376	7	Sololá	701	Sololá	1	Sololá	7	Julio	2023-07-30T00:00:00	2024-11-08T15:00:00	8	Radiación solar	291
38377	7	Sololá	701	Sololá	1	Sololá	7	Julio	2023-07-30T00:00:00	2024-11-08T16:00:00	2	Temperatura media	19.7
38378	7	Sololá	701	Sololá	1	Sololá	7	Julio	2023-07-30T00:00:00	2024-11-08T16:00:00	4	Temperatura máxima	22.2
38379	7	Sololá	701	Sololá	1	Sololá	7	Julio	2023-07-30T00:00:00	2024-11-08T16:00:00	3	Temperatura mínima	19.7
38380	7	Sololá	701	Sololá	1	Sololá	7	Julio	2023-07-30T00:00:00	2024-11-08T16:00:00	5	Humedad	91
38381	7	Sololá	701	Sololá	1	Sololá	7	Julio	2023-07-30T00:00:00	2024-11-08T16:00:00	6	Velocidad del viento	3.2
38382	7	Sololá	701	Sololá	1	Sololá	7	Julio	2023-07-30T00:00:00	2024-11-08T16:00:00	7	Dirección del viento	3.22
38383	7	Sololá	701	Sololá	1	Sololá	7	Julio	2023-07-30T00:00:00	2024-11-08T16:00:00	1	Precipitación	0.8
38384	7	Sololá	701	Sololá	1	Sololá	7	Julio	2023-07-30T00:00:00	2024-11-08T16:00:00	8	Radiación solar	143
38385	7	Sololá	701	Sololá	1	Sololá	7	Julio	2023-07-30T00:00:00	2024-11-08T17:00:00	2	Temperatura media	19.1
38386	7	Sololá	701	Sololá	1	Sololá	7	Julio	2023-07-30T00:00:00	2024-11-08T17:00:00	4	Temperatura máxima	19.8
38387	7	Sololá	701	Sololá	1	Sololá	7	Julio	2023-07-30T00:00:00	2024-11-08T17:00:00	3	Temperatura mínima	18.9
38388	7	Sololá	701	Sololá	1	Sololá	7	Julio	2023-07-30T00:00:00	2024-11-08T17:00:00	5	Humedad	91
38389	7	Sololá	701	Sololá	1	Sololá	7	Julio	2023-07-30T00:00:00	2024-11-08T17:00:00	6	Velocidad del viento	1.6
38390	7	Sololá	701	Sololá	1	Sololá	7	Julio	2023-07-30T00:00:00	2024-11-08T17:00:00	7	Dirección del viento	1.61
38391	7	Sololá	701	Sololá	1	Sololá	7	Julio	2023-07-30T00:00:00	2024-11-08T17:00:00	1	Precipitación	0
38392	7	Sololá	701	Sololá	1	Sololá	7	Julio	2023-07-30T00:00:00	2024-11-08T17:00:00	8	Radiación solar	66
38393	7	Sololá	701	Sololá	1	Sololá	7	Julio	2023-07-30T00:00:00	2024-11-08T18:00:00	2	Temperatura media	19.2
38394	7	Sololá	701	Sololá	1	Sololá	7	Julio	2023-07-30T00:00:00	2024-11-08T18:00:00	4	Temperatura máxima	19.6
38395	7	Sololá	701	Sololá	1	Sololá	7	Julio	2023-07-30T00:00:00	2024-11-08T18:00:00	3	Temperatura mínima	19.1
38396	7	Sololá	701	Sololá	1	Sololá	7	Julio	2023-07-30T00:00:00	2024-11-08T18:00:00	5	Humedad	92
38397	7	Sololá	701	Sololá	1	Sololá	7	Julio	2023-07-30T00:00:00	2024-11-08T18:00:00	6	Velocidad del viento	0
38398	7	Sololá	701	Sololá	1	Sololá	7	Julio	2023-07-30T00:00:00	2024-11-08T18:00:00	7	Dirección del viento	0
38399	7	Sololá	701	Sololá	1	Sololá	7	Julio	2023-07-30T00:00:00	2024-11-08T18:00:00	1	Precipitación	0
38400	7	Sololá	701	Sololá	1	Sololá	7	Julio	2023-07-30T00:00:00	2024-11-08T18:00:00	8	Radiación solar	12
38401	7	Sololá	701	Sololá	1	Sololá	7	Julio	2023-07-30T00:00:00	2024-11-08T19:00:00	2	Temperatura media	18.4
38402	7	Sololá	701	Sololá	1	Sololá	7	Julio	2023-07-30T00:00:00	2024-11-08T19:00:00	4	Temperatura máxima	19.2
38403	7	Sololá	701	Sololá	1	Sololá	7	Julio	2023-07-30T00:00:00	2024-11-08T19:00:00	3	Temperatura mínima	18.3
38404	7	Sololá	701	Sololá	1	Sololá	7	Julio	2023-07-30T00:00:00	2024-11-08T19:00:00	5	Humedad	95
38405	7	Sololá	701	Sololá	1	Sololá	7	Julio	2023-07-30T00:00:00	2024-11-08T19:00:00	6	Velocidad del viento	0
38406	7	Sololá	701	Sololá	1	Sololá	7	Julio	2023-07-30T00:00:00	2024-11-08T19:00:00	7	Dirección del viento	0
38407	7	Sololá	701	Sololá	1	Sololá	7	Julio	2023-07-30T00:00:00	2024-11-08T19:00:00	1	Precipitación	0
38408	7	Sololá	701	Sololá	1	Sololá	7	Julio	2023-07-30T00:00:00	2024-11-08T19:00:00	8	Radiación solar	0
38409	7	Sololá	701	Sololá	1	Sololá	7	Julio	2023-07-30T00:00:00	2024-11-08T20:00:00	2	Temperatura media	17.8
38410	7	Sololá	701	Sololá	1	Sololá	7	Julio	2023-07-30T00:00:00	2024-11-08T20:00:00	4	Temperatura máxima	18.4
38411	7	Sololá	701	Sololá	1	Sololá	7	Julio	2023-07-30T00:00:00	2024-11-08T20:00:00	3	Temperatura mínima	17.7
38412	7	Sololá	701	Sololá	1	Sololá	7	Julio	2023-07-30T00:00:00	2024-11-08T20:00:00	5	Humedad	86
38413	7	Sololá	701	Sololá	1	Sololá	7	Julio	2023-07-30T00:00:00	2024-11-08T20:00:00	6	Velocidad del viento	0
38414	7	Sololá	701	Sololá	1	Sololá	7	Julio	2023-07-30T00:00:00	2024-11-08T20:00:00	7	Dirección del viento	0
38415	7	Sololá	701	Sololá	1	Sololá	7	Julio	2023-07-30T00:00:00	2024-11-08T20:00:00	1	Precipitación	0
38416	7	Sololá	701	Sololá	1	Sololá	7	Julio	2023-07-30T00:00:00	2024-11-08T20:00:00	8	Radiación solar	0
38417	7	Sololá	701	Sololá	1	Sololá	7	Julio	2023-07-30T00:00:00	2024-11-08T21:00:00	2	Temperatura media	17.9
38418	7	Sololá	701	Sololá	1	Sololá	7	Julio	2023-07-30T00:00:00	2024-11-08T21:00:00	4	Temperatura máxima	18.2
38419	7	Sololá	701	Sololá	1	Sololá	7	Julio	2023-07-30T00:00:00	2024-11-08T21:00:00	3	Temperatura mínima	17.5
38420	7	Sololá	701	Sololá	1	Sololá	7	Julio	2023-07-30T00:00:00	2024-11-08T21:00:00	5	Humedad	84
38421	7	Sololá	701	Sololá	1	Sololá	7	Julio	2023-07-30T00:00:00	2024-11-08T21:00:00	6	Velocidad del viento	4.8
38422	7	Sololá	701	Sololá	1	Sololá	7	Julio	2023-07-30T00:00:00	2024-11-08T21:00:00	7	Dirección del viento	4.83
38423	7	Sololá	701	Sololá	1	Sololá	7	Julio	2023-07-30T00:00:00	2024-11-08T21:00:00	1	Precipitación	0
38424	7	Sololá	701	Sololá	1	Sololá	7	Julio	2023-07-30T00:00:00	2024-11-08T21:00:00	8	Radiación solar	0
38425	7	Sololá	701	Sololá	1	Sololá	7	Julio	2023-07-30T00:00:00	2024-11-08T22:00:00	2	Temperatura media	16.6
38426	7	Sololá	701	Sololá	1	Sololá	7	Julio	2023-07-30T00:00:00	2024-11-08T22:00:00	4	Temperatura máxima	17.9
38427	7	Sololá	701	Sololá	1	Sololá	7	Julio	2023-07-30T00:00:00	2024-11-08T22:00:00	3	Temperatura mínima	16.4
38428	7	Sololá	701	Sololá	1	Sololá	7	Julio	2023-07-30T00:00:00	2024-11-08T22:00:00	5	Humedad	87
38429	7	Sololá	701	Sololá	1	Sololá	7	Julio	2023-07-30T00:00:00	2024-11-08T22:00:00	6	Velocidad del viento	8
38430	7	Sololá	701	Sololá	1	Sololá	7	Julio	2023-07-30T00:00:00	2024-11-08T22:00:00	7	Dirección del viento	8.05
38431	7	Sololá	701	Sololá	1	Sololá	7	Julio	2023-07-30T00:00:00	2024-11-08T22:00:00	1	Precipitación	0.2
38432	7	Sololá	701	Sololá	1	Sololá	7	Julio	2023-07-30T00:00:00	2024-11-08T22:00:00	8	Radiación solar	0
38433	7	Sololá	701	Sololá	1	Sololá	7	Julio	2023-07-30T00:00:00	2024-11-08T23:00:00	2	Temperatura media	16.9
38434	7	Sololá	701	Sololá	1	Sololá	7	Julio	2023-07-30T00:00:00	2024-11-08T23:00:00	4	Temperatura máxima	17.1
38435	7	Sololá	701	Sololá	1	Sololá	7	Julio	2023-07-30T00:00:00	2024-11-08T23:00:00	3	Temperatura mínima	16.6
38436	7	Sololá	701	Sololá	1	Sololá	7	Julio	2023-07-30T00:00:00	2024-11-08T23:00:00	5	Humedad	86
38437	7	Sololá	701	Sololá	1	Sololá	7	Julio	2023-07-30T00:00:00	2024-11-08T23:00:00	6	Velocidad del viento	4.8
38438	7	Sololá	701	Sololá	1	Sololá	7	Julio	2023-07-30T00:00:00	2024-11-08T23:00:00	7	Dirección del viento	4.83
38439	7	Sololá	701	Sololá	1	Sololá	7	Julio	2023-07-30T00:00:00	2024-11-08T23:00:00	1	Precipitación	0
38440	7	Sololá	701	Sololá	1	Sololá	7	Julio	2023-07-30T00:00:00	2024-11-08T23:00:00	8	Radiación solar	0
38441	7	Sololá	701	Sololá	1	Sololá	7	Julio	2023-07-31T00:00:00	2024-11-08T00:00:00	2	Temperatura media	16.1
38442	7	Sololá	701	Sololá	1	Sololá	7	Julio	2023-07-31T00:00:00	2024-11-08T00:00:00	4	Temperatura máxima	17
38443	7	Sololá	701	Sololá	1	Sololá	7	Julio	2023-07-31T00:00:00	2024-11-08T00:00:00	3	Temperatura mínima	16.1
38444	7	Sololá	701	Sololá	1	Sololá	7	Julio	2023-07-31T00:00:00	2024-11-08T00:00:00	5	Humedad	91
38445	7	Sololá	701	Sololá	1	Sololá	7	Julio	2023-07-31T00:00:00	2024-11-08T00:00:00	6	Velocidad del viento	3.2
38446	7	Sololá	701	Sololá	1	Sololá	7	Julio	2023-07-31T00:00:00	2024-11-08T00:00:00	7	Dirección del viento	3.22
38447	7	Sololá	701	Sololá	1	Sololá	7	Julio	2023-07-31T00:00:00	2024-11-08T00:00:00	1	Precipitación	0.4
38448	7	Sololá	701	Sololá	1	Sololá	7	Julio	2023-07-31T00:00:00	2024-11-08T00:00:00	8	Radiación solar	0
38449	7	Sololá	701	Sololá	1	Sololá	7	Julio	2023-07-31T00:00:00	2024-11-08T01:00:00	2	Temperatura media	16.2
38450	7	Sololá	701	Sololá	1	Sololá	7	Julio	2023-07-31T00:00:00	2024-11-08T01:00:00	4	Temperatura máxima	16.3
38451	7	Sololá	701	Sololá	1	Sololá	7	Julio	2023-07-31T00:00:00	2024-11-08T01:00:00	3	Temperatura mínima	15.9
38452	7	Sololá	701	Sololá	1	Sololá	7	Julio	2023-07-31T00:00:00	2024-11-08T01:00:00	5	Humedad	86
38453	7	Sololá	701	Sololá	1	Sololá	7	Julio	2023-07-31T00:00:00	2024-11-08T01:00:00	6	Velocidad del viento	4.8
38454	7	Sololá	701	Sololá	1	Sololá	7	Julio	2023-07-31T00:00:00	2024-11-08T01:00:00	7	Dirección del viento	4.83
38455	7	Sololá	701	Sololá	1	Sololá	7	Julio	2023-07-31T00:00:00	2024-11-08T01:00:00	1	Precipitación	0
38456	7	Sololá	701	Sololá	1	Sololá	7	Julio	2023-07-31T00:00:00	2024-11-08T01:00:00	8	Radiación solar	0
38457	7	Sololá	701	Sololá	1	Sololá	7	Julio	2023-07-31T00:00:00	2024-11-08T02:00:00	2	Temperatura media	14.4
38458	7	Sololá	701	Sololá	1	Sololá	7	Julio	2023-07-31T00:00:00	2024-11-08T02:00:00	4	Temperatura máxima	16.2
38459	7	Sololá	701	Sololá	1	Sololá	7	Julio	2023-07-31T00:00:00	2024-11-08T02:00:00	3	Temperatura mínima	14.4
38460	7	Sololá	701	Sololá	1	Sololá	7	Julio	2023-07-31T00:00:00	2024-11-08T02:00:00	5	Humedad	91
38461	7	Sololá	701	Sololá	1	Sololá	7	Julio	2023-07-31T00:00:00	2024-11-08T02:00:00	6	Velocidad del viento	8
38462	7	Sololá	701	Sololá	1	Sololá	7	Julio	2023-07-31T00:00:00	2024-11-08T02:00:00	7	Dirección del viento	8.05
38463	7	Sololá	701	Sololá	1	Sololá	7	Julio	2023-07-31T00:00:00	2024-11-08T02:00:00	1	Precipitación	2.8
38464	7	Sololá	701	Sololá	1	Sololá	7	Julio	2023-07-31T00:00:00	2024-11-08T02:00:00	8	Radiación solar	0
38465	7	Sololá	701	Sololá	1	Sololá	7	Julio	2023-07-31T00:00:00	2024-11-08T03:00:00	2	Temperatura media	14.2
38466	7	Sololá	701	Sololá	1	Sololá	7	Julio	2023-07-31T00:00:00	2024-11-08T03:00:00	4	Temperatura máxima	14.4
38467	7	Sololá	701	Sololá	1	Sololá	7	Julio	2023-07-31T00:00:00	2024-11-08T03:00:00	3	Temperatura mínima	13.9
38468	7	Sololá	701	Sololá	1	Sololá	7	Julio	2023-07-31T00:00:00	2024-11-08T03:00:00	5	Humedad	92
38469	7	Sololá	701	Sololá	1	Sololá	7	Julio	2023-07-31T00:00:00	2024-11-08T03:00:00	6	Velocidad del viento	6.4
38470	7	Sololá	701	Sololá	1	Sololá	7	Julio	2023-07-31T00:00:00	2024-11-08T03:00:00	7	Dirección del viento	6.44
38471	7	Sololá	701	Sololá	1	Sololá	7	Julio	2023-07-31T00:00:00	2024-11-08T03:00:00	1	Precipitación	2.2
38472	7	Sololá	701	Sololá	1	Sololá	7	Julio	2023-07-31T00:00:00	2024-11-08T03:00:00	8	Radiación solar	0
38473	7	Sololá	701	Sololá	1	Sololá	7	Julio	2023-07-31T00:00:00	2024-11-08T04:00:00	2	Temperatura media	16.1
38474	7	Sololá	701	Sololá	1	Sololá	7	Julio	2023-07-31T00:00:00	2024-11-08T04:00:00	4	Temperatura máxima	16.1
38475	7	Sololá	701	Sololá	1	Sololá	7	Julio	2023-07-31T00:00:00	2024-11-08T04:00:00	3	Temperatura mínima	14.2
38476	7	Sololá	701	Sololá	1	Sololá	7	Julio	2023-07-31T00:00:00	2024-11-08T04:00:00	5	Humedad	78
38477	7	Sololá	701	Sololá	1	Sololá	7	Julio	2023-07-31T00:00:00	2024-11-08T04:00:00	6	Velocidad del viento	9.7
38478	7	Sololá	701	Sololá	1	Sololá	7	Julio	2023-07-31T00:00:00	2024-11-08T04:00:00	7	Dirección del viento	9.66
38479	7	Sololá	701	Sololá	1	Sololá	7	Julio	2023-07-31T00:00:00	2024-11-08T04:00:00	1	Precipitación	0
38480	7	Sololá	701	Sololá	1	Sololá	7	Julio	2023-07-31T00:00:00	2024-11-08T04:00:00	8	Radiación solar	0
38481	7	Sololá	701	Sololá	1	Sololá	7	Julio	2023-07-31T00:00:00	2024-11-08T05:00:00	2	Temperatura media	14.5
38482	7	Sololá	701	Sololá	1	Sololá	7	Julio	2023-07-31T00:00:00	2024-11-08T05:00:00	4	Temperatura máxima	16.2
38483	7	Sololá	701	Sololá	1	Sololá	7	Julio	2023-07-31T00:00:00	2024-11-08T05:00:00	3	Temperatura mínima	14.3
38484	7	Sololá	701	Sololá	1	Sololá	7	Julio	2023-07-31T00:00:00	2024-11-08T05:00:00	5	Humedad	86
38485	7	Sololá	701	Sololá	1	Sololá	7	Julio	2023-07-31T00:00:00	2024-11-08T05:00:00	6	Velocidad del viento	9.7
38486	7	Sololá	701	Sololá	1	Sololá	7	Julio	2023-07-31T00:00:00	2024-11-08T05:00:00	7	Dirección del viento	9.66
38487	7	Sololá	701	Sololá	1	Sololá	7	Julio	2023-07-31T00:00:00	2024-11-08T05:00:00	1	Precipitación	0
38488	7	Sololá	701	Sololá	1	Sololá	7	Julio	2023-07-31T00:00:00	2024-11-08T05:00:00	8	Radiación solar	0
38489	7	Sololá	701	Sololá	1	Sololá	7	Julio	2023-07-31T00:00:00	2024-11-08T06:00:00	2	Temperatura media	14.4
38490	7	Sololá	701	Sololá	1	Sololá	7	Julio	2023-07-31T00:00:00	2024-11-08T06:00:00	4	Temperatura máxima	15.6
38491	7	Sololá	701	Sololá	1	Sololá	7	Julio	2023-07-31T00:00:00	2024-11-08T06:00:00	3	Temperatura mínima	14.3
38492	7	Sololá	701	Sololá	1	Sololá	7	Julio	2023-07-31T00:00:00	2024-11-08T06:00:00	5	Humedad	85
38493	7	Sololá	701	Sololá	1	Sololá	7	Julio	2023-07-31T00:00:00	2024-11-08T06:00:00	6	Velocidad del viento	9.7
38494	7	Sololá	701	Sololá	1	Sololá	7	Julio	2023-07-31T00:00:00	2024-11-08T06:00:00	7	Dirección del viento	9.66
38495	7	Sololá	701	Sololá	1	Sololá	7	Julio	2023-07-31T00:00:00	2024-11-08T06:00:00	1	Precipitación	0
38496	7	Sololá	701	Sololá	1	Sololá	7	Julio	2023-07-31T00:00:00	2024-11-08T06:00:00	8	Radiación solar	0
38497	7	Sololá	701	Sololá	1	Sololá	7	Julio	2023-07-31T00:00:00	2024-11-08T07:00:00	2	Temperatura media	17.8
38498	7	Sololá	701	Sololá	1	Sololá	7	Julio	2023-07-31T00:00:00	2024-11-08T07:00:00	4	Temperatura máxima	17.8
38499	7	Sololá	701	Sololá	1	Sololá	7	Julio	2023-07-31T00:00:00	2024-11-08T07:00:00	3	Temperatura mínima	14.3
38500	7	Sololá	701	Sololá	1	Sololá	7	Julio	2023-07-31T00:00:00	2024-11-08T07:00:00	5	Humedad	72
38501	7	Sololá	701	Sololá	1	Sololá	7	Julio	2023-07-31T00:00:00	2024-11-08T07:00:00	6	Velocidad del viento	6.4
38502	7	Sololá	701	Sololá	1	Sololá	7	Julio	2023-07-31T00:00:00	2024-11-08T07:00:00	7	Dirección del viento	6.44
38503	7	Sololá	701	Sololá	1	Sololá	7	Julio	2023-07-31T00:00:00	2024-11-08T07:00:00	1	Precipitación	0
38504	7	Sololá	701	Sololá	1	Sololá	7	Julio	2023-07-31T00:00:00	2024-11-08T07:00:00	8	Radiación solar	36
38505	7	Sololá	701	Sololá	1	Sololá	7	Julio	2023-07-31T00:00:00	2024-11-08T08:00:00	2	Temperatura media	19.4
38506	7	Sololá	701	Sololá	1	Sololá	7	Julio	2023-07-31T00:00:00	2024-11-08T08:00:00	4	Temperatura máxima	19.4
38507	7	Sololá	701	Sololá	1	Sololá	7	Julio	2023-07-31T00:00:00	2024-11-08T08:00:00	3	Temperatura mínima	17.8
38508	7	Sololá	701	Sololá	1	Sololá	7	Julio	2023-07-31T00:00:00	2024-11-08T08:00:00	5	Humedad	68
38509	7	Sololá	701	Sololá	1	Sololá	7	Julio	2023-07-31T00:00:00	2024-11-08T08:00:00	6	Velocidad del viento	9.7
38510	7	Sololá	701	Sololá	1	Sololá	7	Julio	2023-07-31T00:00:00	2024-11-08T08:00:00	7	Dirección del viento	9.66
38511	7	Sololá	701	Sololá	1	Sololá	7	Julio	2023-07-31T00:00:00	2024-11-08T08:00:00	1	Precipitación	0
38512	7	Sololá	701	Sololá	1	Sololá	7	Julio	2023-07-31T00:00:00	2024-11-08T08:00:00	8	Radiación solar	81
38513	7	Sololá	701	Sololá	1	Sololá	7	Julio	2023-07-31T00:00:00	2024-11-08T09:00:00	2	Temperatura media	20.4
38514	7	Sololá	701	Sololá	1	Sololá	7	Julio	2023-07-31T00:00:00	2024-11-08T09:00:00	4	Temperatura máxima	20.4
38515	7	Sololá	701	Sololá	1	Sololá	7	Julio	2023-07-31T00:00:00	2024-11-08T09:00:00	3	Temperatura mínima	19.1
38516	7	Sololá	701	Sololá	1	Sololá	7	Julio	2023-07-31T00:00:00	2024-11-08T09:00:00	5	Humedad	67
38517	7	Sololá	701	Sololá	1	Sololá	7	Julio	2023-07-31T00:00:00	2024-11-08T09:00:00	6	Velocidad del viento	6.4
38518	7	Sololá	701	Sololá	1	Sololá	7	Julio	2023-07-31T00:00:00	2024-11-08T09:00:00	7	Dirección del viento	6.44
38519	7	Sololá	701	Sololá	1	Sololá	7	Julio	2023-07-31T00:00:00	2024-11-08T09:00:00	1	Precipitación	0
38520	7	Sololá	701	Sololá	1	Sololá	7	Julio	2023-07-31T00:00:00	2024-11-08T09:00:00	8	Radiación solar	223
38521	7	Sololá	701	Sololá	1	Sololá	7	Julio	2023-07-31T00:00:00	2024-11-08T10:00:00	2	Temperatura media	21.3
38522	7	Sololá	701	Sololá	1	Sololá	7	Julio	2023-07-31T00:00:00	2024-11-08T10:00:00	4	Temperatura máxima	21.8
38523	7	Sololá	701	Sololá	1	Sololá	7	Julio	2023-07-31T00:00:00	2024-11-08T10:00:00	3	Temperatura mínima	20.4
38524	7	Sololá	701	Sololá	1	Sololá	7	Julio	2023-07-31T00:00:00	2024-11-08T10:00:00	5	Humedad	64
38525	7	Sololá	701	Sololá	1	Sololá	7	Julio	2023-07-31T00:00:00	2024-11-08T10:00:00	6	Velocidad del viento	9.7
38526	7	Sololá	701	Sololá	1	Sololá	7	Julio	2023-07-31T00:00:00	2024-11-08T10:00:00	7	Dirección del viento	9.66
38527	7	Sololá	701	Sololá	1	Sololá	7	Julio	2023-07-31T00:00:00	2024-11-08T10:00:00	1	Precipitación	0
38528	7	Sololá	701	Sololá	1	Sololá	7	Julio	2023-07-31T00:00:00	2024-11-08T10:00:00	8	Radiación solar	386
38529	7	Sololá	701	Sololá	1	Sololá	7	Julio	2023-07-31T00:00:00	2024-11-08T11:00:00	2	Temperatura media	22.9
38530	7	Sololá	701	Sololá	1	Sololá	7	Julio	2023-07-31T00:00:00	2024-11-08T11:00:00	4	Temperatura máxima	22.9
38531	7	Sololá	701	Sololá	1	Sololá	7	Julio	2023-07-31T00:00:00	2024-11-08T11:00:00	3	Temperatura mínima	21.3
38532	7	Sololá	701	Sololá	1	Sololá	7	Julio	2023-07-31T00:00:00	2024-11-08T11:00:00	5	Humedad	63
38533	7	Sololá	701	Sololá	1	Sololá	7	Julio	2023-07-31T00:00:00	2024-11-08T11:00:00	6	Velocidad del viento	9.7
38534	7	Sololá	701	Sololá	1	Sololá	7	Julio	2023-07-31T00:00:00	2024-11-08T11:00:00	7	Dirección del viento	9.66
38535	7	Sololá	701	Sololá	1	Sololá	7	Julio	2023-07-31T00:00:00	2024-11-08T11:00:00	1	Precipitación	0
38536	7	Sololá	701	Sololá	1	Sololá	7	Julio	2023-07-31T00:00:00	2024-11-08T11:00:00	8	Radiación solar	609
38537	7	Sololá	701	Sololá	1	Sololá	7	Julio	2023-07-31T00:00:00	2024-11-08T12:00:00	2	Temperatura media	22.6
38538	7	Sololá	701	Sololá	1	Sololá	7	Julio	2023-07-31T00:00:00	2024-11-08T12:00:00	4	Temperatura máxima	23
38539	7	Sololá	701	Sololá	1	Sololá	7	Julio	2023-07-31T00:00:00	2024-11-08T12:00:00	3	Temperatura mínima	22.4
38540	7	Sololá	701	Sololá	1	Sololá	7	Julio	2023-07-31T00:00:00	2024-11-08T12:00:00	5	Humedad	61
38541	7	Sololá	701	Sololá	1	Sololá	7	Julio	2023-07-31T00:00:00	2024-11-08T12:00:00	6	Velocidad del viento	6.4
38542	7	Sololá	701	Sololá	1	Sololá	7	Julio	2023-07-31T00:00:00	2024-11-08T12:00:00	7	Dirección del viento	6.44
38543	7	Sololá	701	Sololá	1	Sololá	7	Julio	2023-07-31T00:00:00	2024-11-08T12:00:00	1	Precipitación	0
38544	7	Sololá	701	Sololá	1	Sololá	7	Julio	2023-07-31T00:00:00	2024-11-08T12:00:00	8	Radiación solar	271
38545	7	Sololá	701	Sololá	1	Sololá	7	Julio	2023-07-31T00:00:00	2024-11-08T13:00:00	2	Temperatura media	23.1
38546	7	Sololá	701	Sololá	1	Sololá	7	Julio	2023-07-31T00:00:00	2024-11-08T13:00:00	4	Temperatura máxima	23.9
38547	7	Sololá	701	Sololá	1	Sololá	7	Julio	2023-07-31T00:00:00	2024-11-08T13:00:00	3	Temperatura mínima	22.4
38548	7	Sololá	701	Sololá	1	Sololá	7	Julio	2023-07-31T00:00:00	2024-11-08T13:00:00	5	Humedad	64
38549	7	Sololá	701	Sololá	1	Sololá	7	Julio	2023-07-31T00:00:00	2024-11-08T13:00:00	6	Velocidad del viento	8
38550	7	Sololá	701	Sololá	1	Sololá	7	Julio	2023-07-31T00:00:00	2024-11-08T13:00:00	7	Dirección del viento	8.05
38551	7	Sololá	701	Sololá	1	Sololá	7	Julio	2023-07-31T00:00:00	2024-11-08T13:00:00	1	Precipitación	0
38552	7	Sololá	701	Sololá	1	Sololá	7	Julio	2023-07-31T00:00:00	2024-11-08T13:00:00	8	Radiación solar	297
38553	7	Sololá	701	Sololá	1	Sololá	7	Julio	2023-07-31T00:00:00	2024-11-08T14:00:00	2	Temperatura media	22.6
38554	7	Sololá	701	Sololá	1	Sololá	7	Julio	2023-07-31T00:00:00	2024-11-08T14:00:00	4	Temperatura máxima	23.3
38555	7	Sololá	701	Sololá	1	Sololá	7	Julio	2023-07-31T00:00:00	2024-11-08T14:00:00	3	Temperatura mínima	22.6
38556	7	Sololá	701	Sololá	1	Sololá	7	Julio	2023-07-31T00:00:00	2024-11-08T14:00:00	5	Humedad	63
38557	7	Sololá	701	Sololá	1	Sololá	7	Julio	2023-07-31T00:00:00	2024-11-08T14:00:00	6	Velocidad del viento	4.8
38558	7	Sololá	701	Sololá	1	Sololá	7	Julio	2023-07-31T00:00:00	2024-11-08T14:00:00	7	Dirección del viento	4.83
38559	7	Sololá	701	Sololá	1	Sololá	7	Julio	2023-07-31T00:00:00	2024-11-08T14:00:00	1	Precipitación	0
38560	7	Sololá	701	Sololá	1	Sololá	7	Julio	2023-07-31T00:00:00	2024-11-08T14:00:00	8	Radiación solar	397
38561	7	Sololá	701	Sololá	1	Sololá	7	Julio	2023-07-31T00:00:00	2024-11-08T15:00:00	2	Temperatura media	21.3
38562	7	Sololá	701	Sololá	1	Sololá	7	Julio	2023-07-31T00:00:00	2024-11-08T15:00:00	4	Temperatura máxima	22.7
38563	7	Sololá	701	Sololá	1	Sololá	7	Julio	2023-07-31T00:00:00	2024-11-08T15:00:00	3	Temperatura mínima	21.3
38564	7	Sololá	701	Sololá	1	Sololá	7	Julio	2023-07-31T00:00:00	2024-11-08T15:00:00	5	Humedad	83
38565	7	Sololá	701	Sololá	1	Sololá	7	Julio	2023-07-31T00:00:00	2024-11-08T15:00:00	6	Velocidad del viento	4.8
38566	7	Sololá	701	Sololá	1	Sololá	7	Julio	2023-07-31T00:00:00	2024-11-08T15:00:00	7	Dirección del viento	4.83
38567	7	Sololá	701	Sololá	1	Sololá	7	Julio	2023-07-31T00:00:00	2024-11-08T15:00:00	1	Precipitación	0
38568	7	Sololá	701	Sololá	1	Sololá	7	Julio	2023-07-31T00:00:00	2024-11-08T15:00:00	8	Radiación solar	213
38569	7	Sololá	701	Sololá	1	Sololá	7	Julio	2023-07-31T00:00:00	2024-11-08T16:00:00	2	Temperatura media	20.7
38570	7	Sololá	701	Sololá	1	Sololá	7	Julio	2023-07-31T00:00:00	2024-11-08T16:00:00	4	Temperatura máxima	21.3
38571	7	Sololá	701	Sololá	1	Sololá	7	Julio	2023-07-31T00:00:00	2024-11-08T16:00:00	3	Temperatura mínima	20.1
38572	7	Sololá	701	Sololá	1	Sololá	7	Julio	2023-07-31T00:00:00	2024-11-08T16:00:00	5	Humedad	86
38573	7	Sololá	701	Sololá	1	Sololá	7	Julio	2023-07-31T00:00:00	2024-11-08T16:00:00	6	Velocidad del viento	4.8
38574	7	Sololá	701	Sololá	1	Sololá	7	Julio	2023-07-31T00:00:00	2024-11-08T16:00:00	7	Dirección del viento	4.83
38575	7	Sololá	701	Sololá	1	Sololá	7	Julio	2023-07-31T00:00:00	2024-11-08T16:00:00	1	Precipitación	0
38576	7	Sololá	701	Sololá	1	Sololá	7	Julio	2023-07-31T00:00:00	2024-11-08T16:00:00	8	Radiación solar	127
38577	7	Sololá	701	Sololá	1	Sololá	7	Julio	2023-07-31T00:00:00	2024-11-08T17:00:00	2	Temperatura media	19.2
38578	7	Sololá	701	Sololá	1	Sololá	7	Julio	2023-07-31T00:00:00	2024-11-08T17:00:00	4	Temperatura máxima	20.7
38579	7	Sololá	701	Sololá	1	Sololá	7	Julio	2023-07-31T00:00:00	2024-11-08T17:00:00	3	Temperatura mínima	19.2
38580	7	Sololá	701	Sololá	1	Sololá	7	Julio	2023-07-31T00:00:00	2024-11-08T17:00:00	5	Humedad	90
38581	7	Sololá	701	Sololá	1	Sololá	7	Julio	2023-07-31T00:00:00	2024-11-08T17:00:00	6	Velocidad del viento	3.2
38582	7	Sololá	701	Sololá	1	Sololá	7	Julio	2023-07-31T00:00:00	2024-11-08T17:00:00	7	Dirección del viento	3.22
38583	7	Sololá	701	Sololá	1	Sololá	7	Julio	2023-07-31T00:00:00	2024-11-08T17:00:00	1	Precipitación	0
38584	7	Sololá	701	Sololá	1	Sololá	7	Julio	2023-07-31T00:00:00	2024-11-08T17:00:00	8	Radiación solar	88
38585	7	Sololá	701	Sololá	1	Sololá	7	Julio	2023-07-31T00:00:00	2024-11-08T18:00:00	2	Temperatura media	18.7
38586	7	Sololá	701	Sololá	1	Sololá	7	Julio	2023-07-31T00:00:00	2024-11-08T18:00:00	4	Temperatura máxima	19.4
38587	7	Sololá	701	Sololá	1	Sololá	7	Julio	2023-07-31T00:00:00	2024-11-08T18:00:00	3	Temperatura mínima	18.7
38588	7	Sololá	701	Sololá	1	Sololá	7	Julio	2023-07-31T00:00:00	2024-11-08T18:00:00	5	Humedad	92
38589	7	Sololá	701	Sololá	1	Sololá	7	Julio	2023-07-31T00:00:00	2024-11-08T18:00:00	6	Velocidad del viento	1.6
38590	7	Sololá	701	Sololá	1	Sololá	7	Julio	2023-07-31T00:00:00	2024-11-08T18:00:00	7	Dirección del viento	1.61
38591	7	Sololá	701	Sololá	1	Sololá	7	Julio	2023-07-31T00:00:00	2024-11-08T18:00:00	1	Precipitación	0.2
38592	7	Sololá	701	Sololá	1	Sololá	7	Julio	2023-07-31T00:00:00	2024-11-08T18:00:00	8	Radiación solar	37
38593	7	Sololá	701	Sololá	1	Sololá	7	Julio	2023-07-31T00:00:00	2024-11-08T19:00:00	2	Temperatura media	17.4
38594	7	Sololá	701	Sololá	1	Sololá	7	Julio	2023-07-31T00:00:00	2024-11-08T19:00:00	4	Temperatura máxima	18.7
38595	7	Sololá	701	Sololá	1	Sololá	7	Julio	2023-07-31T00:00:00	2024-11-08T19:00:00	3	Temperatura mínima	17.3
38596	7	Sololá	701	Sololá	1	Sololá	7	Julio	2023-07-31T00:00:00	2024-11-08T19:00:00	5	Humedad	89
38597	7	Sololá	701	Sololá	1	Sololá	7	Julio	2023-07-31T00:00:00	2024-11-08T19:00:00	6	Velocidad del viento	8
38598	7	Sololá	701	Sololá	1	Sololá	7	Julio	2023-07-31T00:00:00	2024-11-08T19:00:00	7	Dirección del viento	8.05
38599	7	Sololá	701	Sololá	1	Sololá	7	Julio	2023-07-31T00:00:00	2024-11-08T19:00:00	1	Precipitación	4.2
38600	7	Sololá	701	Sololá	1	Sololá	7	Julio	2023-07-31T00:00:00	2024-11-08T19:00:00	8	Radiación solar	0
38601	7	Sololá	701	Sololá	1	Sololá	7	Julio	2023-07-31T00:00:00	2024-11-08T20:00:00	2	Temperatura media	17.3
38602	7	Sololá	701	Sololá	1	Sololá	7	Julio	2023-07-31T00:00:00	2024-11-08T20:00:00	4	Temperatura máxima	17.4
38603	7	Sololá	701	Sololá	1	Sololá	7	Julio	2023-07-31T00:00:00	2024-11-08T20:00:00	3	Temperatura mínima	17.2
38604	7	Sololá	701	Sololá	1	Sololá	7	Julio	2023-07-31T00:00:00	2024-11-08T20:00:00	5	Humedad	87
38605	7	Sololá	701	Sololá	1	Sololá	7	Julio	2023-07-31T00:00:00	2024-11-08T20:00:00	6	Velocidad del viento	9.7
38606	7	Sololá	701	Sololá	1	Sololá	7	Julio	2023-07-31T00:00:00	2024-11-08T20:00:00	7	Dirección del viento	9.66
38607	7	Sololá	701	Sololá	1	Sololá	7	Julio	2023-07-31T00:00:00	2024-11-08T20:00:00	1	Precipitación	0
38608	7	Sololá	701	Sololá	1	Sololá	7	Julio	2023-07-31T00:00:00	2024-11-08T20:00:00	8	Radiación solar	0
38609	7	Sololá	701	Sololá	1	Sololá	7	Julio	2023-07-31T00:00:00	2024-11-08T21:00:00	2	Temperatura media	17.2
38610	7	Sololá	701	Sololá	1	Sololá	7	Julio	2023-07-31T00:00:00	2024-11-08T21:00:00	4	Temperatura máxima	17.5
38611	7	Sololá	701	Sololá	1	Sololá	7	Julio	2023-07-31T00:00:00	2024-11-08T21:00:00	3	Temperatura mínima	17.2
38612	7	Sololá	701	Sololá	1	Sololá	7	Julio	2023-07-31T00:00:00	2024-11-08T21:00:00	5	Humedad	86
38613	7	Sololá	701	Sololá	1	Sololá	7	Julio	2023-07-31T00:00:00	2024-11-08T21:00:00	6	Velocidad del viento	6.4
38614	7	Sololá	701	Sololá	1	Sololá	7	Julio	2023-07-31T00:00:00	2024-11-08T21:00:00	7	Dirección del viento	6.44
38615	7	Sololá	701	Sololá	1	Sololá	7	Julio	2023-07-31T00:00:00	2024-11-08T21:00:00	1	Precipitación	0
38616	7	Sololá	701	Sololá	1	Sololá	7	Julio	2023-07-31T00:00:00	2024-11-08T21:00:00	8	Radiación solar	0
38617	7	Sololá	701	Sololá	1	Sololá	7	Julio	2023-07-31T00:00:00	2024-11-08T22:00:00	2	Temperatura media	16.6
38618	7	Sololá	701	Sololá	1	Sololá	7	Julio	2023-07-31T00:00:00	2024-11-08T22:00:00	4	Temperatura máxima	17.2
38619	7	Sololá	701	Sololá	1	Sololá	7	Julio	2023-07-31T00:00:00	2024-11-08T22:00:00	3	Temperatura mínima	16.5
38620	7	Sololá	701	Sololá	1	Sololá	7	Julio	2023-07-31T00:00:00	2024-11-08T22:00:00	5	Humedad	85
38621	7	Sololá	701	Sololá	1	Sololá	7	Julio	2023-07-31T00:00:00	2024-11-08T22:00:00	6	Velocidad del viento	9.7
38622	7	Sololá	701	Sololá	1	Sololá	7	Julio	2023-07-31T00:00:00	2024-11-08T22:00:00	7	Dirección del viento	9.66
38623	7	Sololá	701	Sololá	1	Sololá	7	Julio	2023-07-31T00:00:00	2024-11-08T22:00:00	1	Precipitación	0
38624	7	Sololá	701	Sololá	1	Sololá	7	Julio	2023-07-31T00:00:00	2024-11-08T22:00:00	8	Radiación solar	0
38625	7	Sololá	701	Sololá	1	Sololá	7	Julio	2023-07-31T00:00:00	2024-11-08T23:00:00	2	Temperatura media	16.4
38626	7	Sololá	701	Sololá	1	Sololá	7	Julio	2023-07-31T00:00:00	2024-11-08T23:00:00	4	Temperatura máxima	16.6
38627	7	Sololá	701	Sololá	1	Sololá	7	Julio	2023-07-31T00:00:00	2024-11-08T23:00:00	3	Temperatura mínima	16.3
38628	7	Sololá	701	Sololá	1	Sololá	7	Julio	2023-07-31T00:00:00	2024-11-08T23:00:00	5	Humedad	86
38629	7	Sololá	701	Sololá	1	Sololá	7	Julio	2023-07-31T00:00:00	2024-11-08T23:00:00	6	Velocidad del viento	6.4
38630	7	Sololá	701	Sololá	1	Sololá	7	Julio	2023-07-31T00:00:00	2024-11-08T23:00:00	7	Dirección del viento	6.44
38631	7	Sololá	701	Sololá	1	Sololá	7	Julio	2023-07-31T00:00:00	2024-11-08T23:00:00	1	Precipitación	0
38632	7	Sololá	701	Sololá	1	Sololá	7	Julio	2023-07-31T00:00:00	2024-11-08T23:00:00	8	Radiación solar	0
38633	7	Sololá	701	Sololá	1	Sololá	8	Agosto	2023-01-08T00:00:00	2024-11-08T00:00:00	2	Temperatura media	16.6
38634	7	Sololá	701	Sololá	1	Sololá	8	Agosto	2023-01-08T00:00:00	2024-11-08T00:00:00	4	Temperatura máxima	16.8
38635	7	Sololá	701	Sololá	1	Sololá	8	Agosto	2023-01-08T00:00:00	2024-11-08T00:00:00	3	Temperatura mínima	16.4
38636	7	Sololá	701	Sololá	1	Sololá	8	Agosto	2023-01-08T00:00:00	2024-11-08T00:00:00	5	Humedad	86
38637	7	Sololá	701	Sololá	1	Sololá	8	Agosto	2023-01-08T00:00:00	2024-11-08T00:00:00	6	Velocidad del viento	4.8
38638	7	Sololá	701	Sololá	1	Sololá	8	Agosto	2023-01-08T00:00:00	2024-11-08T00:00:00	7	Dirección del viento	4.83
38639	7	Sololá	701	Sololá	1	Sololá	8	Agosto	2023-01-08T00:00:00	2024-11-08T00:00:00	1	Precipitación	0
38640	7	Sololá	701	Sololá	1	Sololá	8	Agosto	2023-01-08T00:00:00	2024-11-08T00:00:00	8	Radiación solar	0
38641	7	Sololá	701	Sololá	1	Sololá	8	Agosto	2023-01-08T00:00:00	2024-11-08T01:00:00	2	Temperatura media	16.7
38642	7	Sololá	701	Sololá	1	Sololá	8	Agosto	2023-01-08T00:00:00	2024-11-08T01:00:00	4	Temperatura máxima	16.8
38643	7	Sololá	701	Sololá	1	Sololá	8	Agosto	2023-01-08T00:00:00	2024-11-08T01:00:00	3	Temperatura mínima	16.6
38644	7	Sololá	701	Sololá	1	Sololá	8	Agosto	2023-01-08T00:00:00	2024-11-08T01:00:00	5	Humedad	85
38645	7	Sololá	701	Sololá	1	Sololá	8	Agosto	2023-01-08T00:00:00	2024-11-08T01:00:00	6	Velocidad del viento	8
38646	7	Sololá	701	Sololá	1	Sololá	8	Agosto	2023-01-08T00:00:00	2024-11-08T01:00:00	7	Dirección del viento	8.05
38647	7	Sololá	701	Sololá	1	Sololá	8	Agosto	2023-01-08T00:00:00	2024-11-08T01:00:00	1	Precipitación	0
38648	7	Sololá	701	Sololá	1	Sololá	8	Agosto	2023-01-08T00:00:00	2024-11-08T01:00:00	8	Radiación solar	0
38649	7	Sololá	701	Sololá	1	Sololá	8	Agosto	2023-01-08T00:00:00	2024-11-08T02:00:00	2	Temperatura media	16.1
38650	7	Sololá	701	Sololá	1	Sololá	8	Agosto	2023-01-08T00:00:00	2024-11-08T02:00:00	4	Temperatura máxima	16.8
38651	7	Sololá	701	Sololá	1	Sololá	8	Agosto	2023-01-08T00:00:00	2024-11-08T02:00:00	3	Temperatura mínima	16
38652	7	Sololá	701	Sololá	1	Sololá	8	Agosto	2023-01-08T00:00:00	2024-11-08T02:00:00	5	Humedad	89
38653	7	Sololá	701	Sololá	1	Sololá	8	Agosto	2023-01-08T00:00:00	2024-11-08T02:00:00	6	Velocidad del viento	4.8
38654	7	Sololá	701	Sololá	1	Sololá	8	Agosto	2023-01-08T00:00:00	2024-11-08T02:00:00	7	Dirección del viento	4.83
38655	7	Sololá	701	Sololá	1	Sololá	8	Agosto	2023-01-08T00:00:00	2024-11-08T02:00:00	1	Precipitación	1.4
38656	7	Sololá	701	Sololá	1	Sololá	8	Agosto	2023-01-08T00:00:00	2024-11-08T02:00:00	8	Radiación solar	0
38657	7	Sololá	701	Sololá	1	Sololá	8	Agosto	2023-01-08T00:00:00	2024-11-08T03:00:00	2	Temperatura media	15.7
38658	7	Sololá	701	Sololá	1	Sololá	8	Agosto	2023-01-08T00:00:00	2024-11-08T03:00:00	4	Temperatura máxima	16.1
38659	7	Sololá	701	Sololá	1	Sololá	8	Agosto	2023-01-08T00:00:00	2024-11-08T03:00:00	3	Temperatura mínima	15.6
38660	7	Sololá	701	Sololá	1	Sololá	8	Agosto	2023-01-08T00:00:00	2024-11-08T03:00:00	5	Humedad	89
38661	7	Sololá	701	Sololá	1	Sololá	8	Agosto	2023-01-08T00:00:00	2024-11-08T03:00:00	6	Velocidad del viento	6.4
38662	7	Sololá	701	Sololá	1	Sololá	8	Agosto	2023-01-08T00:00:00	2024-11-08T03:00:00	7	Dirección del viento	6.44
38663	7	Sololá	701	Sololá	1	Sololá	8	Agosto	2023-01-08T00:00:00	2024-11-08T03:00:00	1	Precipitación	0
38664	7	Sololá	701	Sololá	1	Sololá	8	Agosto	2023-01-08T00:00:00	2024-11-08T03:00:00	8	Radiación solar	0
38665	7	Sololá	701	Sololá	1	Sololá	8	Agosto	2023-01-08T00:00:00	2024-11-08T04:00:00	2	Temperatura media	15.8
38666	7	Sololá	701	Sololá	1	Sololá	8	Agosto	2023-01-08T00:00:00	2024-11-08T04:00:00	4	Temperatura máxima	15.9
38667	7	Sololá	701	Sololá	1	Sololá	8	Agosto	2023-01-08T00:00:00	2024-11-08T04:00:00	3	Temperatura mínima	15.6
38668	7	Sololá	701	Sololá	1	Sololá	8	Agosto	2023-01-08T00:00:00	2024-11-08T04:00:00	5	Humedad	87
38669	7	Sololá	701	Sololá	1	Sololá	8	Agosto	2023-01-08T00:00:00	2024-11-08T04:00:00	6	Velocidad del viento	8
38670	7	Sololá	701	Sololá	1	Sololá	8	Agosto	2023-01-08T00:00:00	2024-11-08T04:00:00	7	Dirección del viento	8.05
38671	7	Sololá	701	Sololá	1	Sololá	8	Agosto	2023-01-08T00:00:00	2024-11-08T04:00:00	1	Precipitación	0
38672	7	Sololá	701	Sololá	1	Sololá	8	Agosto	2023-01-08T00:00:00	2024-11-08T04:00:00	8	Radiación solar	0
38673	7	Sololá	701	Sololá	1	Sololá	8	Agosto	2023-01-08T00:00:00	2024-11-08T05:00:00	2	Temperatura media	15.4
38674	7	Sololá	701	Sololá	1	Sololá	8	Agosto	2023-01-08T00:00:00	2024-11-08T05:00:00	4	Temperatura máxima	15.8
38675	7	Sololá	701	Sololá	1	Sololá	8	Agosto	2023-01-08T00:00:00	2024-11-08T05:00:00	3	Temperatura mínima	15.3
38676	7	Sololá	701	Sololá	1	Sololá	8	Agosto	2023-01-08T00:00:00	2024-11-08T05:00:00	5	Humedad	87
38677	7	Sololá	701	Sololá	1	Sololá	8	Agosto	2023-01-08T00:00:00	2024-11-08T05:00:00	6	Velocidad del viento	4.8
38678	7	Sololá	701	Sololá	1	Sololá	8	Agosto	2023-01-08T00:00:00	2024-11-08T05:00:00	7	Dirección del viento	4.83
38679	7	Sololá	701	Sololá	1	Sololá	8	Agosto	2023-01-08T00:00:00	2024-11-08T05:00:00	1	Precipitación	0
38680	7	Sololá	701	Sololá	1	Sololá	8	Agosto	2023-01-08T00:00:00	2024-11-08T05:00:00	8	Radiación solar	0
38681	7	Sololá	701	Sololá	1	Sololá	8	Agosto	2023-01-08T00:00:00	2024-11-08T06:00:00	2	Temperatura media	15.9
38682	7	Sololá	701	Sololá	1	Sololá	8	Agosto	2023-01-08T00:00:00	2024-11-08T06:00:00	4	Temperatura máxima	16.1
38683	7	Sololá	701	Sololá	1	Sololá	8	Agosto	2023-01-08T00:00:00	2024-11-08T06:00:00	3	Temperatura mínima	15.4
38684	7	Sololá	701	Sololá	1	Sololá	8	Agosto	2023-01-08T00:00:00	2024-11-08T06:00:00	5	Humedad	84
38685	7	Sololá	701	Sololá	1	Sololá	8	Agosto	2023-01-08T00:00:00	2024-11-08T06:00:00	6	Velocidad del viento	8
38686	7	Sololá	701	Sololá	1	Sololá	8	Agosto	2023-01-08T00:00:00	2024-11-08T06:00:00	7	Dirección del viento	8.05
38687	7	Sololá	701	Sololá	1	Sololá	8	Agosto	2023-01-08T00:00:00	2024-11-08T06:00:00	1	Precipitación	0
38688	7	Sololá	701	Sololá	1	Sololá	8	Agosto	2023-01-08T00:00:00	2024-11-08T06:00:00	8	Radiación solar	0
38689	7	Sololá	701	Sololá	1	Sololá	8	Agosto	2023-01-08T00:00:00	2024-11-08T07:00:00	2	Temperatura media	16.2
38690	7	Sololá	701	Sololá	1	Sololá	8	Agosto	2023-01-08T00:00:00	2024-11-08T07:00:00	4	Temperatura máxima	16.2
38691	7	Sololá	701	Sololá	1	Sololá	8	Agosto	2023-01-08T00:00:00	2024-11-08T07:00:00	3	Temperatura mínima	15.7
38692	7	Sololá	701	Sololá	1	Sololá	8	Agosto	2023-01-08T00:00:00	2024-11-08T07:00:00	5	Humedad	83
38693	7	Sololá	701	Sololá	1	Sololá	8	Agosto	2023-01-08T00:00:00	2024-11-08T07:00:00	6	Velocidad del viento	11.3
38694	7	Sololá	701	Sololá	1	Sololá	8	Agosto	2023-01-08T00:00:00	2024-11-08T07:00:00	7	Dirección del viento	11.27
38695	7	Sololá	701	Sololá	1	Sololá	8	Agosto	2023-01-08T00:00:00	2024-11-08T07:00:00	1	Precipitación	0
38696	7	Sololá	701	Sololá	1	Sololá	8	Agosto	2023-01-08T00:00:00	2024-11-08T07:00:00	8	Radiación solar	38
38697	7	Sololá	701	Sololá	1	Sololá	8	Agosto	2023-01-08T00:00:00	2024-11-08T08:00:00	2	Temperatura media	19.3
38698	7	Sololá	701	Sololá	1	Sololá	8	Agosto	2023-01-08T00:00:00	2024-11-08T08:00:00	4	Temperatura máxima	19.3
38699	7	Sololá	701	Sololá	1	Sololá	8	Agosto	2023-01-08T00:00:00	2024-11-08T08:00:00	3	Temperatura mínima	16.1
38700	7	Sololá	701	Sololá	1	Sololá	8	Agosto	2023-01-08T00:00:00	2024-11-08T08:00:00	5	Humedad	73
38701	7	Sololá	701	Sololá	1	Sololá	8	Agosto	2023-01-08T00:00:00	2024-11-08T08:00:00	6	Velocidad del viento	6.4
38702	7	Sololá	701	Sololá	1	Sololá	8	Agosto	2023-01-08T00:00:00	2024-11-08T08:00:00	7	Dirección del viento	6.44
38703	7	Sololá	701	Sololá	1	Sololá	8	Agosto	2023-01-08T00:00:00	2024-11-08T08:00:00	1	Precipitación	0
38704	7	Sololá	701	Sololá	1	Sololá	8	Agosto	2023-01-08T00:00:00	2024-11-08T08:00:00	8	Radiación solar	110
38705	7	Sololá	701	Sololá	1	Sololá	8	Agosto	2023-01-08T00:00:00	2024-11-08T09:00:00	2	Temperatura media	19.6
38706	7	Sololá	701	Sololá	1	Sololá	8	Agosto	2023-01-08T00:00:00	2024-11-08T09:00:00	4	Temperatura máxima	19.7
38707	7	Sololá	701	Sololá	1	Sololá	8	Agosto	2023-01-08T00:00:00	2024-11-08T09:00:00	3	Temperatura mínima	18.4
38708	7	Sololá	701	Sololá	1	Sololá	8	Agosto	2023-01-08T00:00:00	2024-11-08T09:00:00	5	Humedad	71
38709	7	Sololá	701	Sololá	1	Sololá	8	Agosto	2023-01-08T00:00:00	2024-11-08T09:00:00	6	Velocidad del viento	8
38710	7	Sololá	701	Sololá	1	Sololá	8	Agosto	2023-01-08T00:00:00	2024-11-08T09:00:00	7	Dirección del viento	8.05
38711	7	Sololá	701	Sololá	1	Sololá	8	Agosto	2023-01-08T00:00:00	2024-11-08T09:00:00	1	Precipitación	0
38712	7	Sololá	701	Sololá	1	Sololá	8	Agosto	2023-01-08T00:00:00	2024-11-08T09:00:00	8	Radiación solar	265
38713	7	Sololá	701	Sololá	1	Sololá	8	Agosto	2023-01-08T00:00:00	2024-11-08T10:00:00	2	Temperatura media	21.6
38714	7	Sololá	701	Sololá	1	Sololá	8	Agosto	2023-01-08T00:00:00	2024-11-08T10:00:00	4	Temperatura máxima	21.6
38715	7	Sololá	701	Sololá	1	Sololá	8	Agosto	2023-01-08T00:00:00	2024-11-08T10:00:00	3	Temperatura mínima	19.6
38716	7	Sololá	701	Sololá	1	Sololá	8	Agosto	2023-01-08T00:00:00	2024-11-08T10:00:00	5	Humedad	66
38717	7	Sololá	701	Sololá	1	Sololá	8	Agosto	2023-01-08T00:00:00	2024-11-08T10:00:00	6	Velocidad del viento	9.7
38718	7	Sololá	701	Sololá	1	Sololá	8	Agosto	2023-01-08T00:00:00	2024-11-08T10:00:00	7	Dirección del viento	9.66
38719	7	Sololá	701	Sololá	1	Sololá	8	Agosto	2023-01-08T00:00:00	2024-11-08T10:00:00	1	Precipitación	0
38720	7	Sololá	701	Sololá	1	Sololá	8	Agosto	2023-01-08T00:00:00	2024-11-08T10:00:00	8	Radiación solar	407
38721	7	Sololá	701	Sololá	1	Sololá	8	Agosto	2023-01-08T00:00:00	2024-11-08T11:00:00	2	Temperatura media	21.3
38722	7	Sololá	701	Sololá	1	Sololá	8	Agosto	2023-01-08T00:00:00	2024-11-08T11:00:00	4	Temperatura máxima	22.2
38723	7	Sololá	701	Sololá	1	Sololá	8	Agosto	2023-01-08T00:00:00	2024-11-08T11:00:00	3	Temperatura mínima	21.3
38724	7	Sololá	701	Sololá	1	Sololá	8	Agosto	2023-01-08T00:00:00	2024-11-08T11:00:00	5	Humedad	73
38725	7	Sololá	701	Sololá	1	Sololá	8	Agosto	2023-01-08T00:00:00	2024-11-08T11:00:00	6	Velocidad del viento	4.8
38726	7	Sololá	701	Sololá	1	Sololá	8	Agosto	2023-01-08T00:00:00	2024-11-08T11:00:00	7	Dirección del viento	4.83
38727	7	Sololá	701	Sololá	1	Sololá	8	Agosto	2023-01-08T00:00:00	2024-11-08T11:00:00	1	Precipitación	0
38728	7	Sololá	701	Sololá	1	Sololá	8	Agosto	2023-01-08T00:00:00	2024-11-08T11:00:00	8	Radiación solar	619
38729	7	Sololá	701	Sololá	1	Sololá	8	Agosto	2023-01-08T00:00:00	2024-11-08T12:00:00	2	Temperatura media	21.5
38730	7	Sololá	701	Sololá	1	Sololá	8	Agosto	2023-01-08T00:00:00	2024-11-08T12:00:00	4	Temperatura máxima	21.9
38731	7	Sololá	701	Sololá	1	Sololá	8	Agosto	2023-01-08T00:00:00	2024-11-08T12:00:00	3	Temperatura mínima	20.9
38732	7	Sololá	701	Sololá	1	Sololá	8	Agosto	2023-01-08T00:00:00	2024-11-08T12:00:00	5	Humedad	72
38733	7	Sololá	701	Sololá	1	Sololá	8	Agosto	2023-01-08T00:00:00	2024-11-08T12:00:00	6	Velocidad del viento	4.8
38734	7	Sololá	701	Sololá	1	Sololá	8	Agosto	2023-01-08T00:00:00	2024-11-08T12:00:00	7	Dirección del viento	4.83
38735	7	Sololá	701	Sololá	1	Sololá	8	Agosto	2023-01-08T00:00:00	2024-11-08T12:00:00	1	Precipitación	0
38736	7	Sololá	701	Sololá	1	Sololá	8	Agosto	2023-01-08T00:00:00	2024-11-08T12:00:00	8	Radiación solar	547
38737	7	Sololá	701	Sololá	1	Sololá	8	Agosto	2023-01-08T00:00:00	2024-11-08T13:00:00	2	Temperatura media	22.1
38738	7	Sololá	701	Sololá	1	Sololá	8	Agosto	2023-01-08T00:00:00	2024-11-08T13:00:00	4	Temperatura máxima	22.4
38739	7	Sololá	701	Sololá	1	Sololá	8	Agosto	2023-01-08T00:00:00	2024-11-08T13:00:00	3	Temperatura mínima	21.3
38740	7	Sololá	701	Sololá	1	Sololá	8	Agosto	2023-01-08T00:00:00	2024-11-08T13:00:00	5	Humedad	71
38741	7	Sololá	701	Sololá	1	Sololá	8	Agosto	2023-01-08T00:00:00	2024-11-08T13:00:00	6	Velocidad del viento	4.8
38742	7	Sololá	701	Sololá	1	Sololá	8	Agosto	2023-01-08T00:00:00	2024-11-08T13:00:00	7	Dirección del viento	4.83
38743	7	Sololá	701	Sololá	1	Sololá	8	Agosto	2023-01-08T00:00:00	2024-11-08T13:00:00	1	Precipitación	0
38744	7	Sololá	701	Sololá	1	Sololá	8	Agosto	2023-01-08T00:00:00	2024-11-08T13:00:00	8	Radiación solar	238
38745	7	Sololá	701	Sololá	1	Sololá	8	Agosto	2023-01-08T00:00:00	2024-11-08T14:00:00	2	Temperatura media	21.8
38746	7	Sololá	701	Sololá	1	Sololá	8	Agosto	2023-01-08T00:00:00	2024-11-08T14:00:00	4	Temperatura máxima	22.8
38747	7	Sololá	701	Sololá	1	Sololá	8	Agosto	2023-01-08T00:00:00	2024-11-08T14:00:00	3	Temperatura mínima	21.7
38748	7	Sololá	701	Sololá	1	Sololá	8	Agosto	2023-01-08T00:00:00	2024-11-08T14:00:00	5	Humedad	80
38749	7	Sololá	701	Sololá	1	Sololá	8	Agosto	2023-01-08T00:00:00	2024-11-08T14:00:00	6	Velocidad del viento	4.8
38750	7	Sololá	701	Sololá	1	Sololá	8	Agosto	2023-01-08T00:00:00	2024-11-08T14:00:00	7	Dirección del viento	4.83
38751	7	Sololá	701	Sololá	1	Sololá	8	Agosto	2023-01-08T00:00:00	2024-11-08T14:00:00	1	Precipitación	0
38752	7	Sololá	701	Sololá	1	Sololá	8	Agosto	2023-01-08T00:00:00	2024-11-08T14:00:00	8	Radiación solar	179
38753	7	Sololá	701	Sololá	1	Sololá	8	Agosto	2023-01-08T00:00:00	2024-11-08T15:00:00	2	Temperatura media	21.3
38754	7	Sololá	701	Sololá	1	Sololá	8	Agosto	2023-01-08T00:00:00	2024-11-08T15:00:00	4	Temperatura máxima	22.2
38755	7	Sololá	701	Sololá	1	Sololá	8	Agosto	2023-01-08T00:00:00	2024-11-08T15:00:00	3	Temperatura mínima	20.6
38756	7	Sololá	701	Sololá	1	Sololá	8	Agosto	2023-01-08T00:00:00	2024-11-08T15:00:00	5	Humedad	80
38757	7	Sololá	701	Sololá	1	Sololá	8	Agosto	2023-01-08T00:00:00	2024-11-08T15:00:00	6	Velocidad del viento	4.8
38758	7	Sololá	701	Sololá	1	Sololá	8	Agosto	2023-01-08T00:00:00	2024-11-08T15:00:00	7	Dirección del viento	4.83
38759	7	Sololá	701	Sololá	1	Sololá	8	Agosto	2023-01-08T00:00:00	2024-11-08T15:00:00	1	Precipitación	0
38760	7	Sololá	701	Sololá	1	Sololá	8	Agosto	2023-01-08T00:00:00	2024-11-08T15:00:00	8	Radiación solar	38
38761	7	Sololá	701	Sololá	1	Sololá	8	Agosto	2023-01-08T00:00:00	2024-11-08T16:00:00	2	Temperatura media	18.9
38762	7	Sololá	701	Sololá	1	Sololá	8	Agosto	2023-01-08T00:00:00	2024-11-08T16:00:00	4	Temperatura máxima	22.2
38763	7	Sololá	701	Sololá	1	Sololá	8	Agosto	2023-01-08T00:00:00	2024-11-08T16:00:00	3	Temperatura mínima	18.7
38764	7	Sololá	701	Sololá	1	Sololá	8	Agosto	2023-01-08T00:00:00	2024-11-08T16:00:00	5	Humedad	92
38765	7	Sololá	701	Sololá	1	Sololá	8	Agosto	2023-01-08T00:00:00	2024-11-08T16:00:00	6	Velocidad del viento	6.4
38766	7	Sololá	701	Sololá	1	Sololá	8	Agosto	2023-01-08T00:00:00	2024-11-08T16:00:00	7	Dirección del viento	6.44
38767	7	Sololá	701	Sololá	1	Sololá	8	Agosto	2023-01-08T00:00:00	2024-11-08T16:00:00	1	Precipitación	0
38768	7	Sololá	701	Sololá	1	Sololá	8	Agosto	2023-01-08T00:00:00	2024-11-08T16:00:00	8	Radiación solar	18
38769	7	Sololá	701	Sololá	1	Sololá	8	Agosto	2023-01-08T00:00:00	2024-11-08T17:00:00	2	Temperatura media	15.9
38770	7	Sololá	701	Sololá	1	Sololá	8	Agosto	2023-01-08T00:00:00	2024-11-08T17:00:00	4	Temperatura máxima	18.9
38771	7	Sololá	701	Sololá	1	Sololá	8	Agosto	2023-01-08T00:00:00	2024-11-08T17:00:00	3	Temperatura mínima	15.6
38772	7	Sololá	701	Sololá	1	Sololá	8	Agosto	2023-01-08T00:00:00	2024-11-08T17:00:00	5	Humedad	96
38773	7	Sololá	701	Sololá	1	Sololá	8	Agosto	2023-01-08T00:00:00	2024-11-08T17:00:00	6	Velocidad del viento	4.8
38774	7	Sololá	701	Sololá	1	Sololá	8	Agosto	2023-01-08T00:00:00	2024-11-08T17:00:00	7	Dirección del viento	4.83
38775	7	Sololá	701	Sololá	1	Sololá	8	Agosto	2023-01-08T00:00:00	2024-11-08T17:00:00	1	Precipitación	12.8
38776	7	Sololá	701	Sololá	1	Sololá	8	Agosto	2023-01-08T00:00:00	2024-11-08T17:00:00	8	Radiación solar	15
38777	7	Sololá	701	Sololá	1	Sololá	8	Agosto	2023-01-08T00:00:00	2024-11-08T18:00:00	2	Temperatura media	16.1
38778	7	Sololá	701	Sololá	1	Sololá	8	Agosto	2023-01-08T00:00:00	2024-11-08T18:00:00	4	Temperatura máxima	16.4
38779	7	Sololá	701	Sololá	1	Sololá	8	Agosto	2023-01-08T00:00:00	2024-11-08T18:00:00	3	Temperatura mínima	15.9
38780	7	Sololá	701	Sololá	1	Sololá	8	Agosto	2023-01-08T00:00:00	2024-11-08T18:00:00	5	Humedad	96
38781	7	Sololá	701	Sololá	1	Sololá	8	Agosto	2023-01-08T00:00:00	2024-11-08T18:00:00	6	Velocidad del viento	0
38782	7	Sololá	701	Sololá	1	Sololá	8	Agosto	2023-01-08T00:00:00	2024-11-08T18:00:00	7	Dirección del viento	0
38783	7	Sololá	701	Sololá	1	Sololá	8	Agosto	2023-01-08T00:00:00	2024-11-08T18:00:00	1	Precipitación	0.6
38784	7	Sololá	701	Sololá	1	Sololá	8	Agosto	2023-01-08T00:00:00	2024-11-08T18:00:00	8	Radiación solar	2
38785	7	Sololá	701	Sololá	1	Sololá	8	Agosto	2023-01-08T00:00:00	2024-11-08T19:00:00	2	Temperatura media	16.8
38786	7	Sololá	701	Sololá	1	Sololá	8	Agosto	2023-01-08T00:00:00	2024-11-08T19:00:00	4	Temperatura máxima	16.9
38787	7	Sololá	701	Sololá	1	Sololá	8	Agosto	2023-01-08T00:00:00	2024-11-08T19:00:00	3	Temperatura mínima	16.1
38788	7	Sololá	701	Sololá	1	Sololá	8	Agosto	2023-01-08T00:00:00	2024-11-08T19:00:00	5	Humedad	88
38789	7	Sololá	701	Sololá	1	Sololá	8	Agosto	2023-01-08T00:00:00	2024-11-08T19:00:00	6	Velocidad del viento	4.8
38790	7	Sololá	701	Sololá	1	Sololá	8	Agosto	2023-01-08T00:00:00	2024-11-08T19:00:00	7	Dirección del viento	4.83
38791	7	Sololá	701	Sololá	1	Sololá	8	Agosto	2023-01-08T00:00:00	2024-11-08T19:00:00	1	Precipitación	0
38792	7	Sololá	701	Sololá	1	Sololá	8	Agosto	2023-01-08T00:00:00	2024-11-08T19:00:00	8	Radiación solar	0
38793	7	Sololá	701	Sololá	1	Sololá	8	Agosto	2023-01-08T00:00:00	2024-11-08T20:00:00	2	Temperatura media	16.8
38794	7	Sololá	701	Sololá	1	Sololá	8	Agosto	2023-01-08T00:00:00	2024-11-08T20:00:00	4	Temperatura máxima	16.9
38795	7	Sololá	701	Sololá	1	Sololá	8	Agosto	2023-01-08T00:00:00	2024-11-08T20:00:00	3	Temperatura mínima	16.7
38796	7	Sololá	701	Sololá	1	Sololá	8	Agosto	2023-01-08T00:00:00	2024-11-08T20:00:00	5	Humedad	90
38797	7	Sololá	701	Sololá	1	Sololá	8	Agosto	2023-01-08T00:00:00	2024-11-08T20:00:00	6	Velocidad del viento	1.6
38798	7	Sololá	701	Sololá	1	Sololá	8	Agosto	2023-01-08T00:00:00	2024-11-08T20:00:00	7	Dirección del viento	1.61
38799	7	Sololá	701	Sololá	1	Sololá	8	Agosto	2023-01-08T00:00:00	2024-11-08T20:00:00	1	Precipitación	0
38800	7	Sololá	701	Sololá	1	Sololá	8	Agosto	2023-01-08T00:00:00	2024-11-08T20:00:00	8	Radiación solar	0
38801	7	Sololá	701	Sololá	1	Sololá	8	Agosto	2023-01-08T00:00:00	2024-11-08T21:00:00	2	Temperatura media	16.2
38802	7	Sololá	701	Sololá	1	Sololá	8	Agosto	2023-01-08T00:00:00	2024-11-08T21:00:00	4	Temperatura máxima	16.8
38803	7	Sololá	701	Sololá	1	Sololá	8	Agosto	2023-01-08T00:00:00	2024-11-08T21:00:00	3	Temperatura mínima	16.2
38804	7	Sololá	701	Sololá	1	Sololá	8	Agosto	2023-01-08T00:00:00	2024-11-08T21:00:00	5	Humedad	93
38805	7	Sololá	701	Sololá	1	Sololá	8	Agosto	2023-01-08T00:00:00	2024-11-08T21:00:00	6	Velocidad del viento	3.2
38806	7	Sololá	701	Sololá	1	Sololá	8	Agosto	2023-01-08T00:00:00	2024-11-08T21:00:00	7	Dirección del viento	3.22
38807	7	Sololá	701	Sololá	1	Sololá	8	Agosto	2023-01-08T00:00:00	2024-11-08T21:00:00	1	Precipitación	4.8
38808	7	Sololá	701	Sololá	1	Sololá	8	Agosto	2023-01-08T00:00:00	2024-11-08T21:00:00	8	Radiación solar	0
38809	7	Sololá	701	Sololá	1	Sololá	8	Agosto	2023-01-08T00:00:00	2024-11-08T22:00:00	2	Temperatura media	14.9
38810	7	Sololá	701	Sololá	1	Sololá	8	Agosto	2023-01-08T00:00:00	2024-11-08T22:00:00	4	Temperatura máxima	16.1
38811	7	Sololá	701	Sololá	1	Sololá	8	Agosto	2023-01-08T00:00:00	2024-11-08T22:00:00	3	Temperatura mínima	14.7
38812	7	Sololá	701	Sololá	1	Sololá	8	Agosto	2023-01-08T00:00:00	2024-11-08T22:00:00	5	Humedad	90
38813	7	Sololá	701	Sololá	1	Sololá	8	Agosto	2023-01-08T00:00:00	2024-11-08T22:00:00	6	Velocidad del viento	8
38814	7	Sololá	701	Sololá	1	Sololá	8	Agosto	2023-01-08T00:00:00	2024-11-08T22:00:00	7	Dirección del viento	8.05
38815	7	Sololá	701	Sololá	1	Sololá	8	Agosto	2023-01-08T00:00:00	2024-11-08T22:00:00	1	Precipitación	6.4
38816	7	Sololá	701	Sololá	1	Sololá	8	Agosto	2023-01-08T00:00:00	2024-11-08T22:00:00	8	Radiación solar	0
38817	7	Sololá	701	Sololá	1	Sololá	8	Agosto	2023-01-08T00:00:00	2024-11-08T23:00:00	2	Temperatura media	15.2
38818	7	Sololá	701	Sololá	1	Sololá	8	Agosto	2023-01-08T00:00:00	2024-11-08T23:00:00	4	Temperatura máxima	15.2
38819	7	Sololá	701	Sololá	1	Sololá	8	Agosto	2023-01-08T00:00:00	2024-11-08T23:00:00	3	Temperatura mínima	14.8
38820	7	Sololá	701	Sololá	1	Sololá	8	Agosto	2023-01-08T00:00:00	2024-11-08T23:00:00	5	Humedad	84
38821	7	Sololá	701	Sololá	1	Sololá	8	Agosto	2023-01-08T00:00:00	2024-11-08T23:00:00	6	Velocidad del viento	3.2
38822	7	Sololá	701	Sololá	1	Sololá	8	Agosto	2023-01-08T00:00:00	2024-11-08T23:00:00	7	Dirección del viento	3.22
38823	7	Sololá	701	Sololá	1	Sololá	8	Agosto	2023-01-08T00:00:00	2024-11-08T23:00:00	1	Precipitación	0.2
38824	7	Sololá	701	Sololá	1	Sololá	8	Agosto	2023-01-08T00:00:00	2024-11-08T23:00:00	8	Radiación solar	0
38825	7	Sololá	701	Sololá	1	Sololá	8	Agosto	2023-02-08T00:00:00	2024-11-08T00:00:00	2	Temperatura media	15.4
38826	7	Sololá	701	Sololá	1	Sololá	8	Agosto	2023-02-08T00:00:00	2024-11-08T00:00:00	4	Temperatura máxima	15.4
38827	7	Sololá	701	Sololá	1	Sololá	8	Agosto	2023-02-08T00:00:00	2024-11-08T00:00:00	3	Temperatura mínima	15.2
38828	7	Sololá	701	Sololá	1	Sololá	8	Agosto	2023-02-08T00:00:00	2024-11-08T00:00:00	5	Humedad	81
38829	7	Sololá	701	Sololá	1	Sololá	8	Agosto	2023-02-08T00:00:00	2024-11-08T00:00:00	6	Velocidad del viento	3.2
38830	7	Sololá	701	Sololá	1	Sololá	8	Agosto	2023-02-08T00:00:00	2024-11-08T00:00:00	7	Dirección del viento	3.22
38831	7	Sololá	701	Sololá	1	Sololá	8	Agosto	2023-02-08T00:00:00	2024-11-08T00:00:00	1	Precipitación	0
38832	7	Sololá	701	Sololá	1	Sololá	8	Agosto	2023-02-08T00:00:00	2024-11-08T00:00:00	8	Radiación solar	0
38833	7	Sololá	701	Sololá	1	Sololá	8	Agosto	2023-02-08T00:00:00	2024-11-08T01:00:00	2	Temperatura media	15.2
38834	7	Sololá	701	Sololá	1	Sololá	8	Agosto	2023-02-08T00:00:00	2024-11-08T01:00:00	4	Temperatura máxima	15.4
38835	7	Sololá	701	Sololá	1	Sololá	8	Agosto	2023-02-08T00:00:00	2024-11-08T01:00:00	3	Temperatura mínima	14.7
38836	7	Sololá	701	Sololá	1	Sololá	8	Agosto	2023-02-08T00:00:00	2024-11-08T01:00:00	5	Humedad	83
38837	7	Sololá	701	Sololá	1	Sololá	8	Agosto	2023-02-08T00:00:00	2024-11-08T01:00:00	6	Velocidad del viento	3.2
38838	7	Sololá	701	Sololá	1	Sololá	8	Agosto	2023-02-08T00:00:00	2024-11-08T01:00:00	7	Dirección del viento	3.22
38839	7	Sololá	701	Sololá	1	Sololá	8	Agosto	2023-02-08T00:00:00	2024-11-08T01:00:00	1	Precipitación	0
38840	7	Sololá	701	Sololá	1	Sololá	8	Agosto	2023-02-08T00:00:00	2024-11-08T01:00:00	8	Radiación solar	0
38841	7	Sololá	701	Sololá	1	Sololá	8	Agosto	2023-02-08T00:00:00	2024-11-08T02:00:00	2	Temperatura media	15
38842	7	Sololá	701	Sololá	1	Sololá	8	Agosto	2023-02-08T00:00:00	2024-11-08T02:00:00	4	Temperatura máxima	15.8
38843	7	Sololá	701	Sololá	1	Sololá	8	Agosto	2023-02-08T00:00:00	2024-11-08T02:00:00	3	Temperatura mínima	15
38844	7	Sololá	701	Sololá	1	Sololá	8	Agosto	2023-02-08T00:00:00	2024-11-08T02:00:00	5	Humedad	83
38845	7	Sololá	701	Sololá	1	Sololá	8	Agosto	2023-02-08T00:00:00	2024-11-08T02:00:00	6	Velocidad del viento	6.4
38846	7	Sololá	701	Sololá	1	Sololá	8	Agosto	2023-02-08T00:00:00	2024-11-08T02:00:00	7	Dirección del viento	6.44
38847	7	Sololá	701	Sololá	1	Sololá	8	Agosto	2023-02-08T00:00:00	2024-11-08T02:00:00	1	Precipitación	0
38848	7	Sololá	701	Sololá	1	Sololá	8	Agosto	2023-02-08T00:00:00	2024-11-08T02:00:00	8	Radiación solar	0
38849	7	Sololá	701	Sololá	1	Sololá	8	Agosto	2023-02-08T00:00:00	2024-11-08T03:00:00	2	Temperatura media	15.7
38850	7	Sololá	701	Sololá	1	Sololá	8	Agosto	2023-02-08T00:00:00	2024-11-08T03:00:00	4	Temperatura máxima	16
38851	7	Sololá	701	Sololá	1	Sololá	8	Agosto	2023-02-08T00:00:00	2024-11-08T03:00:00	3	Temperatura mínima	14.9
38852	7	Sololá	701	Sololá	1	Sololá	8	Agosto	2023-02-08T00:00:00	2024-11-08T03:00:00	5	Humedad	76
38853	7	Sololá	701	Sololá	1	Sololá	8	Agosto	2023-02-08T00:00:00	2024-11-08T03:00:00	6	Velocidad del viento	9.7
38854	7	Sololá	701	Sololá	1	Sololá	8	Agosto	2023-02-08T00:00:00	2024-11-08T03:00:00	7	Dirección del viento	9.66
38855	7	Sololá	701	Sololá	1	Sololá	8	Agosto	2023-02-08T00:00:00	2024-11-08T03:00:00	1	Precipitación	0
38856	7	Sololá	701	Sololá	1	Sololá	8	Agosto	2023-02-08T00:00:00	2024-11-08T03:00:00	8	Radiación solar	0
38857	7	Sololá	701	Sololá	1	Sololá	8	Agosto	2023-02-08T00:00:00	2024-11-08T04:00:00	2	Temperatura media	15.4
38858	7	Sololá	701	Sololá	1	Sololá	8	Agosto	2023-02-08T00:00:00	2024-11-08T04:00:00	4	Temperatura máxima	15.9
38859	7	Sololá	701	Sololá	1	Sololá	8	Agosto	2023-02-08T00:00:00	2024-11-08T04:00:00	3	Temperatura mínima	15.4
38860	7	Sololá	701	Sololá	1	Sololá	8	Agosto	2023-02-08T00:00:00	2024-11-08T04:00:00	5	Humedad	78
38861	7	Sololá	701	Sololá	1	Sololá	8	Agosto	2023-02-08T00:00:00	2024-11-08T04:00:00	6	Velocidad del viento	9.7
38862	7	Sololá	701	Sololá	1	Sololá	8	Agosto	2023-02-08T00:00:00	2024-11-08T04:00:00	7	Dirección del viento	9.66
38863	7	Sololá	701	Sololá	1	Sololá	8	Agosto	2023-02-08T00:00:00	2024-11-08T04:00:00	1	Precipitación	0
38864	7	Sololá	701	Sololá	1	Sololá	8	Agosto	2023-02-08T00:00:00	2024-11-08T04:00:00	8	Radiación solar	0
38865	7	Sololá	701	Sololá	1	Sololá	8	Agosto	2023-02-08T00:00:00	2024-11-08T05:00:00	2	Temperatura media	15.6
38866	7	Sololá	701	Sololá	1	Sololá	8	Agosto	2023-02-08T00:00:00	2024-11-08T05:00:00	4	Temperatura máxima	15.7
38867	7	Sololá	701	Sololá	1	Sololá	8	Agosto	2023-02-08T00:00:00	2024-11-08T05:00:00	3	Temperatura mínima	15.4
38868	7	Sololá	701	Sololá	1	Sololá	8	Agosto	2023-02-08T00:00:00	2024-11-08T05:00:00	5	Humedad	77
38869	7	Sololá	701	Sololá	1	Sololá	8	Agosto	2023-02-08T00:00:00	2024-11-08T05:00:00	6	Velocidad del viento	9.7
38870	7	Sololá	701	Sololá	1	Sololá	8	Agosto	2023-02-08T00:00:00	2024-11-08T05:00:00	7	Dirección del viento	9.66
38871	7	Sololá	701	Sololá	1	Sololá	8	Agosto	2023-02-08T00:00:00	2024-11-08T05:00:00	1	Precipitación	0
38872	7	Sololá	701	Sololá	1	Sololá	8	Agosto	2023-02-08T00:00:00	2024-11-08T05:00:00	8	Radiación solar	0
38873	7	Sololá	701	Sololá	1	Sololá	8	Agosto	2023-02-08T00:00:00	2024-11-08T06:00:00	2	Temperatura media	15.3
38874	7	Sololá	701	Sololá	1	Sololá	8	Agosto	2023-02-08T00:00:00	2024-11-08T06:00:00	4	Temperatura máxima	15.7
38875	7	Sololá	701	Sololá	1	Sololá	8	Agosto	2023-02-08T00:00:00	2024-11-08T06:00:00	3	Temperatura mínima	15.3
38876	7	Sololá	701	Sololá	1	Sololá	8	Agosto	2023-02-08T00:00:00	2024-11-08T06:00:00	5	Humedad	80
38877	7	Sololá	701	Sololá	1	Sololá	8	Agosto	2023-02-08T00:00:00	2024-11-08T06:00:00	6	Velocidad del viento	3.2
38878	7	Sololá	701	Sololá	1	Sololá	8	Agosto	2023-02-08T00:00:00	2024-11-08T06:00:00	7	Dirección del viento	3.22
38879	7	Sololá	701	Sololá	1	Sololá	8	Agosto	2023-02-08T00:00:00	2024-11-08T06:00:00	1	Precipitación	0
38880	7	Sololá	701	Sololá	1	Sololá	8	Agosto	2023-02-08T00:00:00	2024-11-08T06:00:00	8	Radiación solar	0
38881	7	Sololá	701	Sololá	1	Sololá	8	Agosto	2023-02-08T00:00:00	2024-11-08T07:00:00	2	Temperatura media	15.4
38882	7	Sololá	701	Sololá	1	Sololá	8	Agosto	2023-02-08T00:00:00	2024-11-08T07:00:00	4	Temperatura máxima	15.4
38883	7	Sololá	701	Sololá	1	Sololá	8	Agosto	2023-02-08T00:00:00	2024-11-08T07:00:00	3	Temperatura mínima	15.2
38884	7	Sololá	701	Sololá	1	Sololá	8	Agosto	2023-02-08T00:00:00	2024-11-08T07:00:00	5	Humedad	81
38885	7	Sololá	701	Sololá	1	Sololá	8	Agosto	2023-02-08T00:00:00	2024-11-08T07:00:00	6	Velocidad del viento	1.6
38886	7	Sololá	701	Sololá	1	Sololá	8	Agosto	2023-02-08T00:00:00	2024-11-08T07:00:00	7	Dirección del viento	1.61
38887	7	Sololá	701	Sololá	1	Sololá	8	Agosto	2023-02-08T00:00:00	2024-11-08T07:00:00	1	Precipitación	0
38888	7	Sololá	701	Sololá	1	Sololá	8	Agosto	2023-02-08T00:00:00	2024-11-08T07:00:00	8	Radiación solar	25
38889	7	Sololá	701	Sololá	1	Sololá	8	Agosto	2023-02-08T00:00:00	2024-11-08T08:00:00	2	Temperatura media	16.3
38890	7	Sololá	701	Sololá	1	Sololá	8	Agosto	2023-02-08T00:00:00	2024-11-08T08:00:00	4	Temperatura máxima	16.3
38891	7	Sololá	701	Sololá	1	Sololá	8	Agosto	2023-02-08T00:00:00	2024-11-08T08:00:00	3	Temperatura mínima	15.4
38892	7	Sololá	701	Sololá	1	Sololá	8	Agosto	2023-02-08T00:00:00	2024-11-08T08:00:00	5	Humedad	79
38893	7	Sololá	701	Sololá	1	Sololá	8	Agosto	2023-02-08T00:00:00	2024-11-08T08:00:00	6	Velocidad del viento	1.6
38894	7	Sololá	701	Sololá	1	Sololá	8	Agosto	2023-02-08T00:00:00	2024-11-08T08:00:00	7	Dirección del viento	1.61
38895	7	Sololá	701	Sololá	1	Sololá	8	Agosto	2023-02-08T00:00:00	2024-11-08T08:00:00	1	Precipitación	0
38896	7	Sololá	701	Sololá	1	Sololá	8	Agosto	2023-02-08T00:00:00	2024-11-08T08:00:00	8	Radiación solar	101
38897	7	Sololá	701	Sololá	1	Sololá	8	Agosto	2023-02-08T00:00:00	2024-11-08T09:00:00	2	Temperatura media	17.4
38898	7	Sololá	701	Sololá	1	Sololá	8	Agosto	2023-02-08T00:00:00	2024-11-08T09:00:00	4	Temperatura máxima	17.4
38899	7	Sololá	701	Sololá	1	Sololá	8	Agosto	2023-02-08T00:00:00	2024-11-08T09:00:00	3	Temperatura mínima	16.3
38900	7	Sololá	701	Sololá	1	Sololá	8	Agosto	2023-02-08T00:00:00	2024-11-08T09:00:00	5	Humedad	76
38901	7	Sololá	701	Sololá	1	Sololá	8	Agosto	2023-02-08T00:00:00	2024-11-08T09:00:00	6	Velocidad del viento	1.6
38902	7	Sololá	701	Sololá	1	Sololá	8	Agosto	2023-02-08T00:00:00	2024-11-08T09:00:00	7	Dirección del viento	1.61
38903	7	Sololá	701	Sololá	1	Sololá	8	Agosto	2023-02-08T00:00:00	2024-11-08T09:00:00	1	Precipitación	0
38904	7	Sololá	701	Sololá	1	Sololá	8	Agosto	2023-02-08T00:00:00	2024-11-08T09:00:00	8	Radiación solar	336
38905	7	Sololá	701	Sololá	1	Sololá	8	Agosto	2023-02-08T00:00:00	2024-11-08T10:00:00	2	Temperatura media	18.3
38906	7	Sololá	701	Sololá	1	Sololá	8	Agosto	2023-02-08T00:00:00	2024-11-08T10:00:00	4	Temperatura máxima	18.4
38907	7	Sololá	701	Sololá	1	Sololá	8	Agosto	2023-02-08T00:00:00	2024-11-08T10:00:00	3	Temperatura mínima	17.3
38908	7	Sololá	701	Sololá	1	Sololá	8	Agosto	2023-02-08T00:00:00	2024-11-08T10:00:00	5	Humedad	75
38909	7	Sololá	701	Sololá	1	Sololá	8	Agosto	2023-02-08T00:00:00	2024-11-08T10:00:00	6	Velocidad del viento	1.6
38910	7	Sololá	701	Sololá	1	Sololá	8	Agosto	2023-02-08T00:00:00	2024-11-08T10:00:00	7	Dirección del viento	1.61
38911	7	Sololá	701	Sololá	1	Sololá	8	Agosto	2023-02-08T00:00:00	2024-11-08T10:00:00	1	Precipitación	0
38912	7	Sololá	701	Sololá	1	Sololá	8	Agosto	2023-02-08T00:00:00	2024-11-08T10:00:00	8	Radiación solar	727
38913	7	Sololá	701	Sololá	1	Sololá	8	Agosto	2023-02-08T00:00:00	2024-11-08T11:00:00	2	Temperatura media	18.8
38914	7	Sololá	701	Sololá	1	Sololá	8	Agosto	2023-02-08T00:00:00	2024-11-08T11:00:00	4	Temperatura máxima	18.8
38915	7	Sololá	701	Sololá	1	Sololá	8	Agosto	2023-02-08T00:00:00	2024-11-08T11:00:00	3	Temperatura mínima	18.1
38916	7	Sololá	701	Sololá	1	Sololá	8	Agosto	2023-02-08T00:00:00	2024-11-08T11:00:00	5	Humedad	78
38917	7	Sololá	701	Sololá	1	Sololá	8	Agosto	2023-02-08T00:00:00	2024-11-08T11:00:00	6	Velocidad del viento	1.6
38918	7	Sololá	701	Sololá	1	Sololá	8	Agosto	2023-02-08T00:00:00	2024-11-08T11:00:00	7	Dirección del viento	1.61
38919	7	Sololá	701	Sololá	1	Sololá	8	Agosto	2023-02-08T00:00:00	2024-11-08T11:00:00	1	Precipitación	0
38920	7	Sololá	701	Sololá	1	Sololá	8	Agosto	2023-02-08T00:00:00	2024-11-08T11:00:00	8	Radiación solar	645
38921	7	Sololá	701	Sololá	1	Sololá	8	Agosto	2023-02-08T00:00:00	2024-11-08T12:00:00	2	Temperatura media	18.3
38922	7	Sololá	701	Sololá	1	Sololá	8	Agosto	2023-02-08T00:00:00	2024-11-08T12:00:00	4	Temperatura máxima	19
38923	7	Sololá	701	Sololá	1	Sololá	8	Agosto	2023-02-08T00:00:00	2024-11-08T12:00:00	3	Temperatura mínima	17.9
38924	7	Sololá	701	Sololá	1	Sololá	8	Agosto	2023-02-08T00:00:00	2024-11-08T12:00:00	5	Humedad	79
38925	7	Sololá	701	Sololá	1	Sololá	8	Agosto	2023-02-08T00:00:00	2024-11-08T12:00:00	6	Velocidad del viento	1.6
38926	7	Sololá	701	Sololá	1	Sololá	8	Agosto	2023-02-08T00:00:00	2024-11-08T12:00:00	7	Dirección del viento	1.61
38927	7	Sololá	701	Sololá	1	Sololá	8	Agosto	2023-02-08T00:00:00	2024-11-08T12:00:00	1	Precipitación	0
38928	7	Sololá	701	Sololá	1	Sololá	8	Agosto	2023-02-08T00:00:00	2024-11-08T12:00:00	8	Radiación solar	494
38929	7	Sololá	701	Sololá	1	Sololá	8	Agosto	2023-02-08T00:00:00	2024-11-08T13:00:00	2	Temperatura media	18
38930	7	Sololá	701	Sololá	1	Sololá	8	Agosto	2023-02-08T00:00:00	2024-11-08T13:00:00	4	Temperatura máxima	18.3
38931	7	Sololá	701	Sololá	1	Sololá	8	Agosto	2023-02-08T00:00:00	2024-11-08T13:00:00	3	Temperatura mínima	17.8
38932	7	Sololá	701	Sololá	1	Sololá	8	Agosto	2023-02-08T00:00:00	2024-11-08T13:00:00	5	Humedad	81
38933	7	Sololá	701	Sololá	1	Sololá	8	Agosto	2023-02-08T00:00:00	2024-11-08T13:00:00	6	Velocidad del viento	1.6
38934	7	Sololá	701	Sololá	1	Sololá	8	Agosto	2023-02-08T00:00:00	2024-11-08T13:00:00	7	Dirección del viento	1.61
38935	7	Sololá	701	Sololá	1	Sololá	8	Agosto	2023-02-08T00:00:00	2024-11-08T13:00:00	1	Precipitación	0
38936	7	Sololá	701	Sololá	1	Sololá	8	Agosto	2023-02-08T00:00:00	2024-11-08T13:00:00	8	Radiación solar	363
38937	7	Sololá	701	Sololá	1	Sololá	8	Agosto	2023-02-08T00:00:00	2024-11-08T14:00:00	2	Temperatura media	18.3
38938	7	Sololá	701	Sololá	1	Sololá	8	Agosto	2023-02-08T00:00:00	2024-11-08T14:00:00	4	Temperatura máxima	18.3
38939	7	Sololá	701	Sololá	1	Sololá	8	Agosto	2023-02-08T00:00:00	2024-11-08T14:00:00	3	Temperatura mínima	18
38940	7	Sololá	701	Sololá	1	Sololá	8	Agosto	2023-02-08T00:00:00	2024-11-08T14:00:00	5	Humedad	79
38941	7	Sololá	701	Sololá	1	Sololá	8	Agosto	2023-02-08T00:00:00	2024-11-08T14:00:00	6	Velocidad del viento	1.6
38942	7	Sololá	701	Sololá	1	Sololá	8	Agosto	2023-02-08T00:00:00	2024-11-08T14:00:00	7	Dirección del viento	1.61
38943	7	Sololá	701	Sololá	1	Sololá	8	Agosto	2023-02-08T00:00:00	2024-11-08T14:00:00	1	Precipitación	0
38944	7	Sololá	701	Sololá	1	Sololá	8	Agosto	2023-02-08T00:00:00	2024-11-08T14:00:00	8	Radiación solar	293
38945	7	Sololá	701	Sololá	1	Sololá	8	Agosto	2023-02-08T00:00:00	2024-11-08T15:00:00	2	Temperatura media	18.2
38946	7	Sololá	701	Sololá	1	Sololá	8	Agosto	2023-02-08T00:00:00	2024-11-08T15:00:00	4	Temperatura máxima	18.3
38947	7	Sololá	701	Sololá	1	Sololá	8	Agosto	2023-02-08T00:00:00	2024-11-08T15:00:00	3	Temperatura mínima	17.7
38948	7	Sololá	701	Sololá	1	Sololá	8	Agosto	2023-02-08T00:00:00	2024-11-08T15:00:00	5	Humedad	79
38949	7	Sololá	701	Sololá	1	Sololá	8	Agosto	2023-02-08T00:00:00	2024-11-08T15:00:00	6	Velocidad del viento	1.6
38950	7	Sololá	701	Sololá	1	Sololá	8	Agosto	2023-02-08T00:00:00	2024-11-08T15:00:00	7	Dirección del viento	1.61
38951	7	Sololá	701	Sololá	1	Sololá	8	Agosto	2023-02-08T00:00:00	2024-11-08T15:00:00	1	Precipitación	0
38952	7	Sololá	701	Sololá	1	Sololá	8	Agosto	2023-02-08T00:00:00	2024-11-08T15:00:00	8	Radiación solar	240
38953	7	Sololá	701	Sololá	1	Sololá	8	Agosto	2023-02-08T00:00:00	2024-11-08T16:00:00	2	Temperatura media	18.8
38954	7	Sololá	701	Sololá	1	Sololá	8	Agosto	2023-02-08T00:00:00	2024-11-08T16:00:00	4	Temperatura máxima	19.2
38955	7	Sololá	701	Sololá	1	Sololá	8	Agosto	2023-02-08T00:00:00	2024-11-08T16:00:00	3	Temperatura mínima	18.2
38956	7	Sololá	701	Sololá	1	Sololá	8	Agosto	2023-02-08T00:00:00	2024-11-08T16:00:00	5	Humedad	80
38957	7	Sololá	701	Sololá	1	Sololá	8	Agosto	2023-02-08T00:00:00	2024-11-08T16:00:00	6	Velocidad del viento	0
38958	7	Sololá	701	Sololá	1	Sololá	8	Agosto	2023-02-08T00:00:00	2024-11-08T16:00:00	7	Dirección del viento	0
38959	7	Sololá	701	Sololá	1	Sololá	8	Agosto	2023-02-08T00:00:00	2024-11-08T16:00:00	1	Precipitación	0
38960	7	Sololá	701	Sololá	1	Sololá	8	Agosto	2023-02-08T00:00:00	2024-11-08T16:00:00	8	Radiación solar	35
38961	7	Sololá	701	Sololá	1	Sololá	8	Agosto	2023-02-08T00:00:00	2024-11-08T17:00:00	2	Temperatura media	18.1
38962	7	Sololá	701	Sololá	1	Sololá	8	Agosto	2023-02-08T00:00:00	2024-11-08T17:00:00	4	Temperatura máxima	18.9
38963	7	Sololá	701	Sololá	1	Sololá	8	Agosto	2023-02-08T00:00:00	2024-11-08T17:00:00	3	Temperatura mínima	17.8
38964	7	Sololá	701	Sololá	1	Sololá	8	Agosto	2023-02-08T00:00:00	2024-11-08T17:00:00	5	Humedad	85
38965	7	Sololá	701	Sololá	1	Sololá	8	Agosto	2023-02-08T00:00:00	2024-11-08T17:00:00	6	Velocidad del viento	0
38966	7	Sololá	701	Sololá	1	Sololá	8	Agosto	2023-02-08T00:00:00	2024-11-08T17:00:00	7	Dirección del viento	0
38967	7	Sololá	701	Sololá	1	Sololá	8	Agosto	2023-02-08T00:00:00	2024-11-08T17:00:00	1	Precipitación	0
38968	7	Sololá	701	Sololá	1	Sololá	8	Agosto	2023-02-08T00:00:00	2024-11-08T17:00:00	8	Radiación solar	9
38969	7	Sololá	701	Sololá	1	Sololá	8	Agosto	2023-02-08T00:00:00	2024-11-08T18:00:00	2	Temperatura media	17.1
38970	7	Sololá	701	Sololá	1	Sololá	8	Agosto	2023-02-08T00:00:00	2024-11-08T18:00:00	4	Temperatura máxima	18.2
38971	7	Sololá	701	Sololá	1	Sololá	8	Agosto	2023-02-08T00:00:00	2024-11-08T18:00:00	3	Temperatura mínima	17.1
38972	7	Sololá	701	Sololá	1	Sololá	8	Agosto	2023-02-08T00:00:00	2024-11-08T18:00:00	5	Humedad	88
38973	7	Sololá	701	Sololá	1	Sololá	8	Agosto	2023-02-08T00:00:00	2024-11-08T18:00:00	6	Velocidad del viento	0
38974	7	Sololá	701	Sololá	1	Sololá	8	Agosto	2023-02-08T00:00:00	2024-11-08T18:00:00	7	Dirección del viento	0
38975	7	Sololá	701	Sololá	1	Sololá	8	Agosto	2023-02-08T00:00:00	2024-11-08T18:00:00	1	Precipitación	0
38976	7	Sololá	701	Sololá	1	Sololá	8	Agosto	2023-02-08T00:00:00	2024-11-08T18:00:00	8	Radiación solar	0
38977	7	Sololá	701	Sololá	1	Sololá	8	Agosto	2023-02-08T00:00:00	2024-11-08T19:00:00	2	Temperatura media	17.1
38978	7	Sololá	701	Sololá	1	Sololá	8	Agosto	2023-02-08T00:00:00	2024-11-08T19:00:00	4	Temperatura máxima	17.1
38979	7	Sololá	701	Sololá	1	Sololá	8	Agosto	2023-02-08T00:00:00	2024-11-08T19:00:00	3	Temperatura mínima	16.9
38980	7	Sololá	701	Sololá	1	Sololá	8	Agosto	2023-02-08T00:00:00	2024-11-08T19:00:00	5	Humedad	80
38981	7	Sololá	701	Sololá	1	Sololá	8	Agosto	2023-02-08T00:00:00	2024-11-08T19:00:00	6	Velocidad del viento	3.2
38982	7	Sololá	701	Sololá	1	Sololá	8	Agosto	2023-02-08T00:00:00	2024-11-08T19:00:00	7	Dirección del viento	3.22
38983	7	Sololá	701	Sololá	1	Sololá	8	Agosto	2023-02-08T00:00:00	2024-11-08T19:00:00	1	Precipitación	0
38984	7	Sololá	701	Sololá	1	Sololá	8	Agosto	2023-02-08T00:00:00	2024-11-08T19:00:00	8	Radiación solar	0
38985	7	Sololá	701	Sololá	1	Sololá	8	Agosto	2023-02-08T00:00:00	2024-11-08T20:00:00	2	Temperatura media	16.7
38986	7	Sololá	701	Sololá	1	Sololá	8	Agosto	2023-02-08T00:00:00	2024-11-08T20:00:00	4	Temperatura máxima	17.2
38987	7	Sololá	701	Sololá	1	Sololá	8	Agosto	2023-02-08T00:00:00	2024-11-08T20:00:00	3	Temperatura mínima	16.7
38988	7	Sololá	701	Sololá	1	Sololá	8	Agosto	2023-02-08T00:00:00	2024-11-08T20:00:00	5	Humedad	85
38989	7	Sololá	701	Sololá	1	Sololá	8	Agosto	2023-02-08T00:00:00	2024-11-08T20:00:00	6	Velocidad del viento	1.6
38990	7	Sololá	701	Sololá	1	Sololá	8	Agosto	2023-02-08T00:00:00	2024-11-08T20:00:00	7	Dirección del viento	1.61
38991	7	Sololá	701	Sololá	1	Sololá	8	Agosto	2023-02-08T00:00:00	2024-11-08T20:00:00	1	Precipitación	0
38992	7	Sololá	701	Sololá	1	Sololá	8	Agosto	2023-02-08T00:00:00	2024-11-08T20:00:00	8	Radiación solar	0
38993	7	Sololá	701	Sololá	1	Sololá	8	Agosto	2023-02-08T00:00:00	2024-11-08T21:00:00	2	Temperatura media	16.8
38994	7	Sololá	701	Sololá	1	Sololá	8	Agosto	2023-02-08T00:00:00	2024-11-08T21:00:00	4	Temperatura máxima	16.8
38995	7	Sololá	701	Sololá	1	Sololá	8	Agosto	2023-02-08T00:00:00	2024-11-08T21:00:00	3	Temperatura mínima	16.6
38996	7	Sololá	701	Sololá	1	Sololá	8	Agosto	2023-02-08T00:00:00	2024-11-08T21:00:00	5	Humedad	81
38997	7	Sololá	701	Sololá	1	Sololá	8	Agosto	2023-02-08T00:00:00	2024-11-08T21:00:00	6	Velocidad del viento	0
38998	7	Sololá	701	Sololá	1	Sololá	8	Agosto	2023-02-08T00:00:00	2024-11-08T21:00:00	7	Dirección del viento	0
38999	7	Sololá	701	Sololá	1	Sololá	8	Agosto	2023-02-08T00:00:00	2024-11-08T21:00:00	1	Precipitación	0
39000	7	Sololá	701	Sololá	1	Sololá	8	Agosto	2023-02-08T00:00:00	2024-11-08T21:00:00	8	Radiación solar	0
39001	7	Sololá	701	Sololá	1	Sololá	8	Agosto	2023-02-08T00:00:00	2024-11-08T22:00:00	2	Temperatura media	16.9
39002	7	Sololá	701	Sololá	1	Sololá	8	Agosto	2023-02-08T00:00:00	2024-11-08T22:00:00	4	Temperatura máxima	17
39003	7	Sololá	701	Sololá	1	Sololá	8	Agosto	2023-02-08T00:00:00	2024-11-08T22:00:00	3	Temperatura mínima	16.8
39004	7	Sololá	701	Sololá	1	Sololá	8	Agosto	2023-02-08T00:00:00	2024-11-08T22:00:00	5	Humedad	81
39005	7	Sololá	701	Sololá	1	Sololá	8	Agosto	2023-02-08T00:00:00	2024-11-08T22:00:00	6	Velocidad del viento	0
39006	7	Sololá	701	Sololá	1	Sololá	8	Agosto	2023-02-08T00:00:00	2024-11-08T22:00:00	7	Dirección del viento	0
39007	7	Sololá	701	Sololá	1	Sololá	8	Agosto	2023-02-08T00:00:00	2024-11-08T22:00:00	1	Precipitación	0
39008	7	Sololá	701	Sololá	1	Sololá	8	Agosto	2023-02-08T00:00:00	2024-11-08T22:00:00	8	Radiación solar	0
39009	7	Sololá	701	Sololá	1	Sololá	8	Agosto	2023-02-08T00:00:00	2024-11-08T23:00:00	2	Temperatura media	16.8
39010	7	Sololá	701	Sololá	1	Sololá	8	Agosto	2023-02-08T00:00:00	2024-11-08T23:00:00	4	Temperatura máxima	17.1
39011	7	Sololá	701	Sololá	1	Sololá	8	Agosto	2023-02-08T00:00:00	2024-11-08T23:00:00	3	Temperatura mínima	16.8
39012	7	Sololá	701	Sololá	1	Sololá	8	Agosto	2023-02-08T00:00:00	2024-11-08T23:00:00	5	Humedad	83
39013	7	Sololá	701	Sololá	1	Sololá	8	Agosto	2023-02-08T00:00:00	2024-11-08T23:00:00	6	Velocidad del viento	0
39014	7	Sololá	701	Sololá	1	Sololá	8	Agosto	2023-02-08T00:00:00	2024-11-08T23:00:00	7	Dirección del viento	0
39015	7	Sololá	701	Sololá	1	Sololá	8	Agosto	2023-02-08T00:00:00	2024-11-08T23:00:00	1	Precipitación	0
39016	7	Sololá	701	Sololá	1	Sololá	8	Agosto	2023-02-08T00:00:00	2024-11-08T23:00:00	8	Radiación solar	0
39017	7	Sololá	701	Sololá	1	Sololá	8	Agosto	2023-03-08T00:00:00	2024-11-08T00:00:00	2	Temperatura media	16.3
39018	7	Sololá	701	Sololá	1	Sololá	8	Agosto	2023-03-08T00:00:00	2024-11-08T00:00:00	4	Temperatura máxima	16.8
39019	7	Sololá	701	Sololá	1	Sololá	8	Agosto	2023-03-08T00:00:00	2024-11-08T00:00:00	3	Temperatura mínima	16.3
39020	7	Sololá	701	Sololá	1	Sololá	8	Agosto	2023-03-08T00:00:00	2024-11-08T00:00:00	5	Humedad	84
39021	7	Sololá	701	Sololá	1	Sololá	8	Agosto	2023-03-08T00:00:00	2024-11-08T00:00:00	6	Velocidad del viento	0
39022	7	Sololá	701	Sololá	1	Sololá	8	Agosto	2023-03-08T00:00:00	2024-11-08T00:00:00	7	Dirección del viento	0
39023	7	Sololá	701	Sololá	1	Sololá	8	Agosto	2023-03-08T00:00:00	2024-11-08T00:00:00	1	Precipitación	0
39024	7	Sololá	701	Sololá	1	Sololá	8	Agosto	2023-03-08T00:00:00	2024-11-08T00:00:00	8	Radiación solar	0
39025	7	Sololá	701	Sololá	1	Sololá	8	Agosto	2023-03-08T00:00:00	2024-11-08T01:00:00	2	Temperatura media	15.8
39026	7	Sololá	701	Sololá	1	Sololá	8	Agosto	2023-03-08T00:00:00	2024-11-08T01:00:00	4	Temperatura máxima	16.3
39027	7	Sololá	701	Sololá	1	Sololá	8	Agosto	2023-03-08T00:00:00	2024-11-08T01:00:00	3	Temperatura mínima	15.7
39028	7	Sololá	701	Sololá	1	Sololá	8	Agosto	2023-03-08T00:00:00	2024-11-08T01:00:00	5	Humedad	85
39029	7	Sololá	701	Sololá	1	Sololá	8	Agosto	2023-03-08T00:00:00	2024-11-08T01:00:00	6	Velocidad del viento	3.2
39030	7	Sololá	701	Sololá	1	Sololá	8	Agosto	2023-03-08T00:00:00	2024-11-08T01:00:00	7	Dirección del viento	3.22
39031	7	Sololá	701	Sololá	1	Sololá	8	Agosto	2023-03-08T00:00:00	2024-11-08T01:00:00	1	Precipitación	0
39032	7	Sololá	701	Sololá	1	Sololá	8	Agosto	2023-03-08T00:00:00	2024-11-08T01:00:00	8	Radiación solar	0
39033	7	Sololá	701	Sololá	1	Sololá	8	Agosto	2023-03-08T00:00:00	2024-11-08T02:00:00	2	Temperatura media	15.2
39034	7	Sololá	701	Sololá	1	Sololá	8	Agosto	2023-03-08T00:00:00	2024-11-08T02:00:00	4	Temperatura máxima	16
39035	7	Sololá	701	Sololá	1	Sololá	8	Agosto	2023-03-08T00:00:00	2024-11-08T02:00:00	3	Temperatura mínima	15.2
39036	7	Sololá	701	Sololá	1	Sololá	8	Agosto	2023-03-08T00:00:00	2024-11-08T02:00:00	5	Humedad	87
39037	7	Sololá	701	Sololá	1	Sololá	8	Agosto	2023-03-08T00:00:00	2024-11-08T02:00:00	6	Velocidad del viento	1.6
39038	7	Sololá	701	Sololá	1	Sololá	8	Agosto	2023-03-08T00:00:00	2024-11-08T02:00:00	7	Dirección del viento	1.61
39039	7	Sololá	701	Sololá	1	Sololá	8	Agosto	2023-03-08T00:00:00	2024-11-08T02:00:00	1	Precipitación	0
39040	7	Sololá	701	Sololá	1	Sololá	8	Agosto	2023-03-08T00:00:00	2024-11-08T02:00:00	8	Radiación solar	0
39041	7	Sololá	701	Sololá	1	Sololá	8	Agosto	2023-03-08T00:00:00	2024-11-08T03:00:00	2	Temperatura media	15.6
39042	7	Sololá	701	Sololá	1	Sololá	8	Agosto	2023-03-08T00:00:00	2024-11-08T03:00:00	4	Temperatura máxima	15.7
39043	7	Sololá	701	Sololá	1	Sololá	8	Agosto	2023-03-08T00:00:00	2024-11-08T03:00:00	3	Temperatura mínima	15.1
39044	7	Sololá	701	Sololá	1	Sololá	8	Agosto	2023-03-08T00:00:00	2024-11-08T03:00:00	5	Humedad	83
39045	7	Sololá	701	Sololá	1	Sololá	8	Agosto	2023-03-08T00:00:00	2024-11-08T03:00:00	6	Velocidad del viento	3.2
39046	7	Sololá	701	Sololá	1	Sololá	8	Agosto	2023-03-08T00:00:00	2024-11-08T03:00:00	7	Dirección del viento	3.22
39047	7	Sololá	701	Sololá	1	Sololá	8	Agosto	2023-03-08T00:00:00	2024-11-08T03:00:00	1	Precipitación	0
39048	7	Sololá	701	Sololá	1	Sololá	8	Agosto	2023-03-08T00:00:00	2024-11-08T03:00:00	8	Radiación solar	0
39049	7	Sololá	701	Sololá	1	Sololá	8	Agosto	2023-03-08T00:00:00	2024-11-08T04:00:00	2	Temperatura media	15.2
39050	7	Sololá	701	Sololá	1	Sololá	8	Agosto	2023-03-08T00:00:00	2024-11-08T04:00:00	4	Temperatura máxima	15.9
39051	7	Sololá	701	Sololá	1	Sololá	8	Agosto	2023-03-08T00:00:00	2024-11-08T04:00:00	3	Temperatura mínima	15.2
39052	7	Sololá	701	Sololá	1	Sololá	8	Agosto	2023-03-08T00:00:00	2024-11-08T04:00:00	5	Humedad	85
39053	7	Sololá	701	Sololá	1	Sololá	8	Agosto	2023-03-08T00:00:00	2024-11-08T04:00:00	6	Velocidad del viento	4.8
39054	7	Sololá	701	Sololá	1	Sololá	8	Agosto	2023-03-08T00:00:00	2024-11-08T04:00:00	7	Dirección del viento	4.83
39055	7	Sololá	701	Sololá	1	Sololá	8	Agosto	2023-03-08T00:00:00	2024-11-08T04:00:00	1	Precipitación	0
39056	7	Sololá	701	Sololá	1	Sololá	8	Agosto	2023-03-08T00:00:00	2024-11-08T04:00:00	8	Radiación solar	0
39057	7	Sololá	701	Sololá	1	Sololá	8	Agosto	2023-03-08T00:00:00	2024-11-08T05:00:00	2	Temperatura media	14.1
39058	7	Sololá	701	Sololá	1	Sololá	8	Agosto	2023-03-08T00:00:00	2024-11-08T05:00:00	4	Temperatura máxima	15.2
39059	7	Sololá	701	Sololá	1	Sololá	8	Agosto	2023-03-08T00:00:00	2024-11-08T05:00:00	3	Temperatura mínima	14.1
39060	7	Sololá	701	Sololá	1	Sololá	8	Agosto	2023-03-08T00:00:00	2024-11-08T05:00:00	5	Humedad	87
39061	7	Sololá	701	Sololá	1	Sololá	8	Agosto	2023-03-08T00:00:00	2024-11-08T05:00:00	6	Velocidad del viento	3.2
39062	7	Sololá	701	Sololá	1	Sololá	8	Agosto	2023-03-08T00:00:00	2024-11-08T05:00:00	7	Dirección del viento	3.22
39063	7	Sololá	701	Sololá	1	Sololá	8	Agosto	2023-03-08T00:00:00	2024-11-08T05:00:00	1	Precipitación	0
39064	7	Sololá	701	Sololá	1	Sololá	8	Agosto	2023-03-08T00:00:00	2024-11-08T05:00:00	8	Radiación solar	0
39065	7	Sololá	701	Sololá	1	Sololá	8	Agosto	2023-03-08T00:00:00	2024-11-08T06:00:00	2	Temperatura media	14.6
39066	7	Sololá	701	Sololá	1	Sololá	8	Agosto	2023-03-08T00:00:00	2024-11-08T06:00:00	4	Temperatura máxima	14.6
39067	7	Sololá	701	Sololá	1	Sololá	8	Agosto	2023-03-08T00:00:00	2024-11-08T06:00:00	3	Temperatura mínima	13.9
39068	7	Sololá	701	Sololá	1	Sololá	8	Agosto	2023-03-08T00:00:00	2024-11-08T06:00:00	5	Humedad	82
39069	7	Sololá	701	Sololá	1	Sololá	8	Agosto	2023-03-08T00:00:00	2024-11-08T06:00:00	6	Velocidad del viento	4.8
39070	7	Sololá	701	Sololá	1	Sololá	8	Agosto	2023-03-08T00:00:00	2024-11-08T06:00:00	7	Dirección del viento	4.83
39071	7	Sololá	701	Sololá	1	Sololá	8	Agosto	2023-03-08T00:00:00	2024-11-08T06:00:00	1	Precipitación	0
39072	7	Sololá	701	Sololá	1	Sololá	8	Agosto	2023-03-08T00:00:00	2024-11-08T06:00:00	8	Radiación solar	0
39073	7	Sololá	701	Sololá	1	Sololá	8	Agosto	2023-03-08T00:00:00	2024-11-08T07:00:00	2	Temperatura media	16.5
39074	7	Sololá	701	Sololá	1	Sololá	8	Agosto	2023-03-08T00:00:00	2024-11-08T07:00:00	4	Temperatura máxima	16.5
39075	7	Sololá	701	Sololá	1	Sololá	8	Agosto	2023-03-08T00:00:00	2024-11-08T07:00:00	3	Temperatura mínima	14.6
39076	7	Sololá	701	Sololá	1	Sololá	8	Agosto	2023-03-08T00:00:00	2024-11-08T07:00:00	5	Humedad	76
39077	7	Sololá	701	Sololá	1	Sololá	8	Agosto	2023-03-08T00:00:00	2024-11-08T07:00:00	6	Velocidad del viento	3.2
39078	7	Sololá	701	Sololá	1	Sololá	8	Agosto	2023-03-08T00:00:00	2024-11-08T07:00:00	7	Dirección del viento	3.22
39079	7	Sololá	701	Sololá	1	Sololá	8	Agosto	2023-03-08T00:00:00	2024-11-08T07:00:00	1	Precipitación	0
39080	7	Sololá	701	Sololá	1	Sololá	8	Agosto	2023-03-08T00:00:00	2024-11-08T07:00:00	8	Radiación solar	14
39081	7	Sololá	701	Sololá	1	Sololá	8	Agosto	2023-03-08T00:00:00	2024-11-08T08:00:00	2	Temperatura media	19.9
39082	7	Sololá	701	Sololá	1	Sololá	8	Agosto	2023-03-08T00:00:00	2024-11-08T08:00:00	4	Temperatura máxima	20.1
39083	7	Sololá	701	Sololá	1	Sololá	8	Agosto	2023-03-08T00:00:00	2024-11-08T08:00:00	3	Temperatura mínima	16.5
39084	7	Sololá	701	Sololá	1	Sololá	8	Agosto	2023-03-08T00:00:00	2024-11-08T08:00:00	5	Humedad	70
39085	7	Sololá	701	Sololá	1	Sololá	8	Agosto	2023-03-08T00:00:00	2024-11-08T08:00:00	6	Velocidad del viento	0
39086	7	Sololá	701	Sololá	1	Sololá	8	Agosto	2023-03-08T00:00:00	2024-11-08T08:00:00	7	Dirección del viento	0
39087	7	Sololá	701	Sololá	1	Sololá	8	Agosto	2023-03-08T00:00:00	2024-11-08T08:00:00	1	Precipitación	0
39088	7	Sololá	701	Sololá	1	Sololá	8	Agosto	2023-03-08T00:00:00	2024-11-08T08:00:00	8	Radiación solar	87
39089	7	Sololá	701	Sololá	1	Sololá	8	Agosto	2023-03-08T00:00:00	2024-11-08T09:00:00	2	Temperatura media	20.7
39090	7	Sololá	701	Sololá	1	Sololá	8	Agosto	2023-03-08T00:00:00	2024-11-08T09:00:00	4	Temperatura máxima	21.1
39091	7	Sololá	701	Sololá	1	Sololá	8	Agosto	2023-03-08T00:00:00	2024-11-08T09:00:00	3	Temperatura mínima	19.8
39092	7	Sololá	701	Sololá	1	Sololá	8	Agosto	2023-03-08T00:00:00	2024-11-08T09:00:00	5	Humedad	70
39093	7	Sololá	701	Sololá	1	Sololá	8	Agosto	2023-03-08T00:00:00	2024-11-08T09:00:00	6	Velocidad del viento	3.2
39094	7	Sololá	701	Sololá	1	Sololá	8	Agosto	2023-03-08T00:00:00	2024-11-08T09:00:00	7	Dirección del viento	3.22
39095	7	Sololá	701	Sololá	1	Sololá	8	Agosto	2023-03-08T00:00:00	2024-11-08T09:00:00	1	Precipitación	0
39096	7	Sololá	701	Sololá	1	Sololá	8	Agosto	2023-03-08T00:00:00	2024-11-08T09:00:00	8	Radiación solar	591
39097	7	Sololá	701	Sololá	1	Sololá	8	Agosto	2023-03-08T00:00:00	2024-11-08T10:00:00	2	Temperatura media	20.8
39098	7	Sololá	701	Sololá	1	Sololá	8	Agosto	2023-03-08T00:00:00	2024-11-08T10:00:00	4	Temperatura máxima	21
39099	7	Sololá	701	Sololá	1	Sololá	8	Agosto	2023-03-08T00:00:00	2024-11-08T10:00:00	3	Temperatura mínima	20.5
39100	7	Sololá	701	Sololá	1	Sololá	8	Agosto	2023-03-08T00:00:00	2024-11-08T10:00:00	5	Humedad	70
39101	7	Sololá	701	Sololá	1	Sololá	8	Agosto	2023-03-08T00:00:00	2024-11-08T10:00:00	6	Velocidad del viento	4.8
39102	7	Sololá	701	Sololá	1	Sololá	8	Agosto	2023-03-08T00:00:00	2024-11-08T10:00:00	7	Dirección del viento	4.83
39103	7	Sololá	701	Sololá	1	Sololá	8	Agosto	2023-03-08T00:00:00	2024-11-08T10:00:00	1	Precipitación	0
39104	7	Sololá	701	Sololá	1	Sololá	8	Agosto	2023-03-08T00:00:00	2024-11-08T10:00:00	8	Radiación solar	786
39105	7	Sololá	701	Sololá	1	Sololá	8	Agosto	2023-03-08T00:00:00	2024-11-08T11:00:00	2	Temperatura media	21.8
39106	7	Sololá	701	Sololá	1	Sololá	8	Agosto	2023-03-08T00:00:00	2024-11-08T11:00:00	4	Temperatura máxima	22.4
39107	7	Sololá	701	Sololá	1	Sololá	8	Agosto	2023-03-08T00:00:00	2024-11-08T11:00:00	3	Temperatura mínima	20.8
39108	7	Sololá	701	Sololá	1	Sololá	8	Agosto	2023-03-08T00:00:00	2024-11-08T11:00:00	5	Humedad	67
39109	7	Sololá	701	Sololá	1	Sololá	8	Agosto	2023-03-08T00:00:00	2024-11-08T11:00:00	6	Velocidad del viento	4.8
39110	7	Sololá	701	Sololá	1	Sololá	8	Agosto	2023-03-08T00:00:00	2024-11-08T11:00:00	7	Dirección del viento	4.83
39111	7	Sololá	701	Sololá	1	Sololá	8	Agosto	2023-03-08T00:00:00	2024-11-08T11:00:00	1	Precipitación	0
39112	7	Sololá	701	Sololá	1	Sololá	8	Agosto	2023-03-08T00:00:00	2024-11-08T11:00:00	8	Radiación solar	916
39113	7	Sololá	701	Sololá	1	Sololá	8	Agosto	2023-03-08T00:00:00	2024-11-08T12:00:00	2	Temperatura media	20.2
39114	7	Sololá	701	Sololá	1	Sololá	8	Agosto	2023-03-08T00:00:00	2024-11-08T12:00:00	4	Temperatura máxima	21.9
39115	7	Sololá	701	Sololá	1	Sololá	8	Agosto	2023-03-08T00:00:00	2024-11-08T12:00:00	3	Temperatura mínima	20.2
39116	7	Sololá	701	Sololá	1	Sololá	8	Agosto	2023-03-08T00:00:00	2024-11-08T12:00:00	5	Humedad	82
39117	7	Sololá	701	Sololá	1	Sololá	8	Agosto	2023-03-08T00:00:00	2024-11-08T12:00:00	6	Velocidad del viento	6.4
39118	7	Sololá	701	Sololá	1	Sololá	8	Agosto	2023-03-08T00:00:00	2024-11-08T12:00:00	7	Dirección del viento	6.44
39119	7	Sololá	701	Sololá	1	Sololá	8	Agosto	2023-03-08T00:00:00	2024-11-08T12:00:00	1	Precipitación	0
39120	7	Sololá	701	Sololá	1	Sololá	8	Agosto	2023-03-08T00:00:00	2024-11-08T12:00:00	8	Radiación solar	974
39121	7	Sololá	701	Sololá	1	Sololá	8	Agosto	2023-03-08T00:00:00	2024-11-08T13:00:00	2	Temperatura media	19.2
39122	7	Sololá	701	Sololá	1	Sololá	8	Agosto	2023-03-08T00:00:00	2024-11-08T13:00:00	4	Temperatura máxima	20.2
39123	7	Sololá	701	Sololá	1	Sololá	8	Agosto	2023-03-08T00:00:00	2024-11-08T13:00:00	3	Temperatura mínima	19.1
39124	7	Sololá	701	Sololá	1	Sololá	8	Agosto	2023-03-08T00:00:00	2024-11-08T13:00:00	5	Humedad	80
39125	7	Sololá	701	Sololá	1	Sololá	8	Agosto	2023-03-08T00:00:00	2024-11-08T13:00:00	6	Velocidad del viento	1.6
39126	7	Sololá	701	Sololá	1	Sololá	8	Agosto	2023-03-08T00:00:00	2024-11-08T13:00:00	7	Dirección del viento	1.61
39127	7	Sololá	701	Sololá	1	Sololá	8	Agosto	2023-03-08T00:00:00	2024-11-08T13:00:00	1	Precipitación	0
39128	7	Sololá	701	Sololá	1	Sololá	8	Agosto	2023-03-08T00:00:00	2024-11-08T13:00:00	8	Radiación solar	545
39129	7	Sololá	701	Sololá	1	Sololá	8	Agosto	2023-03-08T00:00:00	2024-11-08T14:00:00	2	Temperatura media	16.6
39130	7	Sololá	701	Sololá	1	Sololá	8	Agosto	2023-03-08T00:00:00	2024-11-08T14:00:00	4	Temperatura máxima	19.2
39131	7	Sololá	701	Sololá	1	Sololá	8	Agosto	2023-03-08T00:00:00	2024-11-08T14:00:00	3	Temperatura mínima	16.6
39132	7	Sololá	701	Sololá	1	Sololá	8	Agosto	2023-03-08T00:00:00	2024-11-08T14:00:00	5	Humedad	88
39133	7	Sololá	701	Sololá	1	Sololá	8	Agosto	2023-03-08T00:00:00	2024-11-08T14:00:00	6	Velocidad del viento	4.8
39134	7	Sololá	701	Sololá	1	Sololá	8	Agosto	2023-03-08T00:00:00	2024-11-08T14:00:00	7	Dirección del viento	4.83
39135	7	Sololá	701	Sololá	1	Sololá	8	Agosto	2023-03-08T00:00:00	2024-11-08T14:00:00	1	Precipitación	1.4
39136	7	Sololá	701	Sololá	1	Sololá	8	Agosto	2023-03-08T00:00:00	2024-11-08T14:00:00	8	Radiación solar	368
39137	7	Sololá	701	Sololá	1	Sololá	8	Agosto	2023-03-08T00:00:00	2024-11-08T15:00:00	2	Temperatura media	18.7
39138	7	Sololá	701	Sololá	1	Sololá	8	Agosto	2023-03-08T00:00:00	2024-11-08T15:00:00	4	Temperatura máxima	18.7
39139	7	Sololá	701	Sololá	1	Sololá	8	Agosto	2023-03-08T00:00:00	2024-11-08T15:00:00	3	Temperatura mínima	16.4
39140	7	Sololá	701	Sololá	1	Sololá	8	Agosto	2023-03-08T00:00:00	2024-11-08T15:00:00	5	Humedad	82
39141	7	Sololá	701	Sololá	1	Sololá	8	Agosto	2023-03-08T00:00:00	2024-11-08T15:00:00	6	Velocidad del viento	4.8
39142	7	Sololá	701	Sololá	1	Sololá	8	Agosto	2023-03-08T00:00:00	2024-11-08T15:00:00	7	Dirección del viento	4.83
39143	7	Sololá	701	Sololá	1	Sololá	8	Agosto	2023-03-08T00:00:00	2024-11-08T15:00:00	1	Precipitación	0.4
39144	7	Sololá	701	Sololá	1	Sololá	8	Agosto	2023-03-08T00:00:00	2024-11-08T15:00:00	8	Radiación solar	238
39145	7	Sololá	701	Sololá	1	Sololá	8	Agosto	2023-03-08T00:00:00	2024-11-08T16:00:00	2	Temperatura media	17.7
39146	7	Sololá	701	Sololá	1	Sololá	8	Agosto	2023-03-08T00:00:00	2024-11-08T16:00:00	4	Temperatura máxima	19.5
39147	7	Sololá	701	Sololá	1	Sololá	8	Agosto	2023-03-08T00:00:00	2024-11-08T16:00:00	3	Temperatura mínima	17.7
39148	7	Sololá	701	Sololá	1	Sololá	8	Agosto	2023-03-08T00:00:00	2024-11-08T16:00:00	5	Humedad	90
39149	7	Sololá	701	Sololá	1	Sololá	8	Agosto	2023-03-08T00:00:00	2024-11-08T16:00:00	6	Velocidad del viento	1.6
39150	7	Sololá	701	Sololá	1	Sololá	8	Agosto	2023-03-08T00:00:00	2024-11-08T16:00:00	7	Dirección del viento	1.61
39151	7	Sololá	701	Sololá	1	Sololá	8	Agosto	2023-03-08T00:00:00	2024-11-08T16:00:00	1	Precipitación	1
39152	7	Sololá	701	Sololá	1	Sololá	8	Agosto	2023-03-08T00:00:00	2024-11-08T16:00:00	8	Radiación solar	49
39153	7	Sololá	701	Sololá	1	Sololá	8	Agosto	2023-03-08T00:00:00	2024-11-08T17:00:00	2	Temperatura media	17.5
39154	7	Sololá	701	Sololá	1	Sololá	8	Agosto	2023-03-08T00:00:00	2024-11-08T17:00:00	4	Temperatura máxima	18
39155	7	Sololá	701	Sololá	1	Sololá	8	Agosto	2023-03-08T00:00:00	2024-11-08T17:00:00	3	Temperatura mínima	17.4
39156	7	Sololá	701	Sololá	1	Sololá	8	Agosto	2023-03-08T00:00:00	2024-11-08T17:00:00	5	Humedad	92
39157	7	Sololá	701	Sololá	1	Sololá	8	Agosto	2023-03-08T00:00:00	2024-11-08T17:00:00	6	Velocidad del viento	1.6
39158	7	Sololá	701	Sololá	1	Sololá	8	Agosto	2023-03-08T00:00:00	2024-11-08T17:00:00	7	Dirección del viento	1.61
39159	7	Sololá	701	Sololá	1	Sololá	8	Agosto	2023-03-08T00:00:00	2024-11-08T17:00:00	1	Precipitación	0
39160	7	Sololá	701	Sololá	1	Sololá	8	Agosto	2023-03-08T00:00:00	2024-11-08T17:00:00	8	Radiación solar	30
39161	7	Sololá	701	Sololá	1	Sololá	8	Agosto	2023-03-08T00:00:00	2024-11-08T18:00:00	2	Temperatura media	16.2
39162	7	Sololá	701	Sololá	1	Sololá	8	Agosto	2023-03-08T00:00:00	2024-11-08T18:00:00	4	Temperatura máxima	17.5
39163	7	Sololá	701	Sololá	1	Sololá	8	Agosto	2023-03-08T00:00:00	2024-11-08T18:00:00	3	Temperatura mínima	16.1
39164	7	Sololá	701	Sololá	1	Sololá	8	Agosto	2023-03-08T00:00:00	2024-11-08T18:00:00	5	Humedad	93
39165	7	Sololá	701	Sololá	1	Sololá	8	Agosto	2023-03-08T00:00:00	2024-11-08T18:00:00	6	Velocidad del viento	3.2
39166	7	Sololá	701	Sololá	1	Sololá	8	Agosto	2023-03-08T00:00:00	2024-11-08T18:00:00	7	Dirección del viento	3.22
39167	7	Sololá	701	Sololá	1	Sololá	8	Agosto	2023-03-08T00:00:00	2024-11-08T18:00:00	1	Precipitación	1.4
39168	7	Sololá	701	Sololá	1	Sololá	8	Agosto	2023-03-08T00:00:00	2024-11-08T18:00:00	8	Radiación solar	1
39169	7	Sololá	701	Sololá	1	Sololá	8	Agosto	2023-03-08T00:00:00	2024-11-08T19:00:00	2	Temperatura media	16.1
39170	7	Sololá	701	Sololá	1	Sololá	8	Agosto	2023-03-08T00:00:00	2024-11-08T19:00:00	4	Temperatura máxima	16.2
39171	7	Sololá	701	Sololá	1	Sololá	8	Agosto	2023-03-08T00:00:00	2024-11-08T19:00:00	3	Temperatura mínima	15.9
39172	7	Sololá	701	Sololá	1	Sololá	8	Agosto	2023-03-08T00:00:00	2024-11-08T19:00:00	5	Humedad	90
39173	7	Sololá	701	Sololá	1	Sololá	8	Agosto	2023-03-08T00:00:00	2024-11-08T19:00:00	6	Velocidad del viento	8
39174	7	Sololá	701	Sololá	1	Sololá	8	Agosto	2023-03-08T00:00:00	2024-11-08T19:00:00	7	Dirección del viento	8.05
39175	7	Sololá	701	Sololá	1	Sololá	8	Agosto	2023-03-08T00:00:00	2024-11-08T19:00:00	1	Precipitación	0.8
39176	7	Sololá	701	Sololá	1	Sololá	8	Agosto	2023-03-08T00:00:00	2024-11-08T19:00:00	8	Radiación solar	0
39177	7	Sololá	701	Sololá	1	Sololá	8	Agosto	2023-03-08T00:00:00	2024-11-08T20:00:00	2	Temperatura media	15.6
39178	7	Sololá	701	Sololá	1	Sololá	8	Agosto	2023-03-08T00:00:00	2024-11-08T20:00:00	4	Temperatura máxima	16.1
39179	7	Sololá	701	Sololá	1	Sololá	8	Agosto	2023-03-08T00:00:00	2024-11-08T20:00:00	3	Temperatura mínima	15.6
39180	7	Sololá	701	Sololá	1	Sololá	8	Agosto	2023-03-08T00:00:00	2024-11-08T20:00:00	5	Humedad	90
39181	7	Sololá	701	Sololá	1	Sololá	8	Agosto	2023-03-08T00:00:00	2024-11-08T20:00:00	6	Velocidad del viento	12.9
39182	7	Sololá	701	Sololá	1	Sololá	8	Agosto	2023-03-08T00:00:00	2024-11-08T20:00:00	7	Dirección del viento	12.87
39183	7	Sololá	701	Sololá	1	Sololá	8	Agosto	2023-03-08T00:00:00	2024-11-08T20:00:00	1	Precipitación	2.8
39184	7	Sololá	701	Sololá	1	Sololá	8	Agosto	2023-03-08T00:00:00	2024-11-08T20:00:00	8	Radiación solar	0
39185	7	Sololá	701	Sololá	1	Sololá	8	Agosto	2023-03-08T00:00:00	2024-11-08T21:00:00	2	Temperatura media	16.1
39186	7	Sololá	701	Sololá	1	Sololá	8	Agosto	2023-03-08T00:00:00	2024-11-08T21:00:00	4	Temperatura máxima	16.1
39187	7	Sololá	701	Sololá	1	Sololá	8	Agosto	2023-03-08T00:00:00	2024-11-08T21:00:00	3	Temperatura mínima	15.4
39188	7	Sololá	701	Sololá	1	Sololá	8	Agosto	2023-03-08T00:00:00	2024-11-08T21:00:00	5	Humedad	83
39189	7	Sololá	701	Sololá	1	Sololá	8	Agosto	2023-03-08T00:00:00	2024-11-08T21:00:00	6	Velocidad del viento	12.9
39190	7	Sololá	701	Sololá	1	Sololá	8	Agosto	2023-03-08T00:00:00	2024-11-08T21:00:00	7	Dirección del viento	12.87
39191	7	Sololá	701	Sololá	1	Sololá	8	Agosto	2023-03-08T00:00:00	2024-11-08T21:00:00	1	Precipitación	2.4
39192	7	Sololá	701	Sololá	1	Sololá	8	Agosto	2023-03-08T00:00:00	2024-11-08T21:00:00	8	Radiación solar	0
39193	7	Sololá	701	Sololá	1	Sololá	8	Agosto	2023-03-08T00:00:00	2024-11-08T22:00:00	2	Temperatura media	14.6
39194	7	Sololá	701	Sololá	1	Sololá	8	Agosto	2023-03-08T00:00:00	2024-11-08T22:00:00	4	Temperatura máxima	16.1
39195	7	Sololá	701	Sololá	1	Sololá	8	Agosto	2023-03-08T00:00:00	2024-11-08T22:00:00	3	Temperatura mínima	14.6
39196	7	Sololá	701	Sololá	1	Sololá	8	Agosto	2023-03-08T00:00:00	2024-11-08T22:00:00	5	Humedad	87
39197	7	Sololá	701	Sololá	1	Sololá	8	Agosto	2023-03-08T00:00:00	2024-11-08T22:00:00	6	Velocidad del viento	9.7
39198	7	Sololá	701	Sololá	1	Sololá	8	Agosto	2023-03-08T00:00:00	2024-11-08T22:00:00	7	Dirección del viento	9.66
39199	7	Sololá	701	Sololá	1	Sololá	8	Agosto	2023-03-08T00:00:00	2024-11-08T22:00:00	1	Precipitación	0.2
39200	7	Sololá	701	Sololá	1	Sololá	8	Agosto	2023-03-08T00:00:00	2024-11-08T22:00:00	8	Radiación solar	0
39201	7	Sololá	701	Sololá	1	Sololá	8	Agosto	2023-03-08T00:00:00	2024-11-08T23:00:00	2	Temperatura media	14.2
39202	7	Sololá	701	Sololá	1	Sololá	8	Agosto	2023-03-08T00:00:00	2024-11-08T23:00:00	4	Temperatura máxima	14.6
39203	7	Sololá	701	Sololá	1	Sololá	8	Agosto	2023-03-08T00:00:00	2024-11-08T23:00:00	3	Temperatura mínima	14.2
39204	7	Sololá	701	Sololá	1	Sololá	8	Agosto	2023-03-08T00:00:00	2024-11-08T23:00:00	5	Humedad	89
39205	7	Sololá	701	Sololá	1	Sololá	8	Agosto	2023-03-08T00:00:00	2024-11-08T23:00:00	6	Velocidad del viento	11.3
39206	7	Sololá	701	Sololá	1	Sololá	8	Agosto	2023-03-08T00:00:00	2024-11-08T23:00:00	7	Dirección del viento	11.27
39207	7	Sololá	701	Sololá	1	Sololá	8	Agosto	2023-03-08T00:00:00	2024-11-08T23:00:00	1	Precipitación	0
39208	7	Sololá	701	Sololá	1	Sololá	8	Agosto	2023-03-08T00:00:00	2024-11-08T23:00:00	8	Radiación solar	0
39209	7	Sololá	701	Sololá	1	Sololá	8	Agosto	2023-04-08T00:00:00	2024-11-08T00:00:00	2	Temperatura media	14.1
39210	7	Sololá	701	Sololá	1	Sololá	8	Agosto	2023-04-08T00:00:00	2024-11-08T00:00:00	4	Temperatura máxima	14.4
39211	7	Sololá	701	Sololá	1	Sololá	8	Agosto	2023-04-08T00:00:00	2024-11-08T00:00:00	3	Temperatura mínima	14
39212	7	Sololá	701	Sololá	1	Sololá	8	Agosto	2023-04-08T00:00:00	2024-11-08T00:00:00	5	Humedad	89
39213	7	Sololá	701	Sololá	1	Sololá	8	Agosto	2023-04-08T00:00:00	2024-11-08T00:00:00	6	Velocidad del viento	9.7
39214	7	Sololá	701	Sololá	1	Sololá	8	Agosto	2023-04-08T00:00:00	2024-11-08T00:00:00	7	Dirección del viento	9.66
39215	7	Sololá	701	Sololá	1	Sololá	8	Agosto	2023-04-08T00:00:00	2024-11-08T00:00:00	1	Precipitación	0
39216	7	Sololá	701	Sololá	1	Sololá	8	Agosto	2023-04-08T00:00:00	2024-11-08T00:00:00	8	Radiación solar	0
39217	7	Sololá	701	Sololá	1	Sololá	8	Agosto	2023-04-08T00:00:00	2024-11-08T01:00:00	2	Temperatura media	14.4
39218	7	Sololá	701	Sololá	1	Sololá	8	Agosto	2023-04-08T00:00:00	2024-11-08T01:00:00	4	Temperatura máxima	14.7
39219	7	Sololá	701	Sololá	1	Sololá	8	Agosto	2023-04-08T00:00:00	2024-11-08T01:00:00	3	Temperatura mínima	14.1
39220	7	Sololá	701	Sololá	1	Sololá	8	Agosto	2023-04-08T00:00:00	2024-11-08T01:00:00	5	Humedad	87
39221	7	Sololá	701	Sololá	1	Sololá	8	Agosto	2023-04-08T00:00:00	2024-11-08T01:00:00	6	Velocidad del viento	8
39222	7	Sololá	701	Sololá	1	Sololá	8	Agosto	2023-04-08T00:00:00	2024-11-08T01:00:00	7	Dirección del viento	8.05
39223	7	Sololá	701	Sololá	1	Sololá	8	Agosto	2023-04-08T00:00:00	2024-11-08T01:00:00	1	Precipitación	0
39224	7	Sololá	701	Sololá	1	Sololá	8	Agosto	2023-04-08T00:00:00	2024-11-08T01:00:00	8	Radiación solar	0
39225	7	Sololá	701	Sololá	1	Sololá	8	Agosto	2023-04-08T00:00:00	2024-11-08T02:00:00	2	Temperatura media	14.2
39226	7	Sololá	701	Sololá	1	Sololá	8	Agosto	2023-04-08T00:00:00	2024-11-08T02:00:00	4	Temperatura máxima	14.7
39227	7	Sololá	701	Sololá	1	Sololá	8	Agosto	2023-04-08T00:00:00	2024-11-08T02:00:00	3	Temperatura mínima	14.1
39228	7	Sololá	701	Sololá	1	Sololá	8	Agosto	2023-04-08T00:00:00	2024-11-08T02:00:00	5	Humedad	87
39229	7	Sololá	701	Sololá	1	Sololá	8	Agosto	2023-04-08T00:00:00	2024-11-08T02:00:00	6	Velocidad del viento	4.8
39230	7	Sololá	701	Sololá	1	Sololá	8	Agosto	2023-04-08T00:00:00	2024-11-08T02:00:00	7	Dirección del viento	4.83
39231	7	Sololá	701	Sololá	1	Sololá	8	Agosto	2023-04-08T00:00:00	2024-11-08T02:00:00	1	Precipitación	0
39232	7	Sololá	701	Sololá	1	Sololá	8	Agosto	2023-04-08T00:00:00	2024-11-08T02:00:00	8	Radiación solar	0
39233	7	Sololá	701	Sololá	1	Sololá	8	Agosto	2023-04-08T00:00:00	2024-11-08T03:00:00	2	Temperatura media	14
39234	7	Sololá	701	Sololá	1	Sololá	8	Agosto	2023-04-08T00:00:00	2024-11-08T03:00:00	4	Temperatura máxima	14.4
39235	7	Sololá	701	Sololá	1	Sololá	8	Agosto	2023-04-08T00:00:00	2024-11-08T03:00:00	3	Temperatura mínima	14
39236	7	Sololá	701	Sololá	1	Sololá	8	Agosto	2023-04-08T00:00:00	2024-11-08T03:00:00	5	Humedad	87
39237	7	Sololá	701	Sololá	1	Sololá	8	Agosto	2023-04-08T00:00:00	2024-11-08T03:00:00	6	Velocidad del viento	9.7
39238	7	Sololá	701	Sololá	1	Sololá	8	Agosto	2023-04-08T00:00:00	2024-11-08T03:00:00	7	Dirección del viento	9.66
39239	7	Sololá	701	Sololá	1	Sololá	8	Agosto	2023-04-08T00:00:00	2024-11-08T03:00:00	1	Precipitación	0
39240	7	Sololá	701	Sololá	1	Sololá	8	Agosto	2023-04-08T00:00:00	2024-11-08T03:00:00	8	Radiación solar	0
39241	7	Sololá	701	Sololá	1	Sololá	8	Agosto	2023-04-08T00:00:00	2024-11-08T04:00:00	2	Temperatura media	14.3
39242	7	Sololá	701	Sololá	1	Sololá	8	Agosto	2023-04-08T00:00:00	2024-11-08T04:00:00	4	Temperatura máxima	14.3
39243	7	Sololá	701	Sololá	1	Sololá	8	Agosto	2023-04-08T00:00:00	2024-11-08T04:00:00	3	Temperatura mínima	13.7
39244	7	Sololá	701	Sololá	1	Sololá	8	Agosto	2023-04-08T00:00:00	2024-11-08T04:00:00	5	Humedad	83
39245	7	Sololá	701	Sololá	1	Sololá	8	Agosto	2023-04-08T00:00:00	2024-11-08T04:00:00	6	Velocidad del viento	8
39246	7	Sololá	701	Sololá	1	Sololá	8	Agosto	2023-04-08T00:00:00	2024-11-08T04:00:00	7	Dirección del viento	8.05
39247	7	Sololá	701	Sololá	1	Sololá	8	Agosto	2023-04-08T00:00:00	2024-11-08T04:00:00	1	Precipitación	0
39248	7	Sololá	701	Sololá	1	Sololá	8	Agosto	2023-04-08T00:00:00	2024-11-08T04:00:00	8	Radiación solar	0
39249	7	Sololá	701	Sololá	1	Sololá	8	Agosto	2023-04-08T00:00:00	2024-11-08T05:00:00	2	Temperatura media	14.7
39250	7	Sololá	701	Sololá	1	Sololá	8	Agosto	2023-04-08T00:00:00	2024-11-08T05:00:00	4	Temperatura máxima	14.8
39251	7	Sololá	701	Sololá	1	Sololá	8	Agosto	2023-04-08T00:00:00	2024-11-08T05:00:00	3	Temperatura mínima	14
39252	7	Sololá	701	Sololá	1	Sololá	8	Agosto	2023-04-08T00:00:00	2024-11-08T05:00:00	5	Humedad	83
39253	7	Sololá	701	Sololá	1	Sololá	8	Agosto	2023-04-08T00:00:00	2024-11-08T05:00:00	6	Velocidad del viento	6.4
39254	7	Sololá	701	Sololá	1	Sololá	8	Agosto	2023-04-08T00:00:00	2024-11-08T05:00:00	7	Dirección del viento	6.44
39255	7	Sololá	701	Sololá	1	Sololá	8	Agosto	2023-04-08T00:00:00	2024-11-08T05:00:00	1	Precipitación	0
39256	7	Sololá	701	Sololá	1	Sololá	8	Agosto	2023-04-08T00:00:00	2024-11-08T05:00:00	8	Radiación solar	0
39257	7	Sololá	701	Sololá	1	Sololá	8	Agosto	2023-04-08T00:00:00	2024-11-08T06:00:00	2	Temperatura media	14.5
39258	7	Sololá	701	Sololá	1	Sololá	8	Agosto	2023-04-08T00:00:00	2024-11-08T06:00:00	4	Temperatura máxima	14.8
39259	7	Sololá	701	Sololá	1	Sololá	8	Agosto	2023-04-08T00:00:00	2024-11-08T06:00:00	3	Temperatura mínima	14.5
39260	7	Sololá	701	Sololá	1	Sololá	8	Agosto	2023-04-08T00:00:00	2024-11-08T06:00:00	5	Humedad	85
39261	7	Sololá	701	Sololá	1	Sololá	8	Agosto	2023-04-08T00:00:00	2024-11-08T06:00:00	6	Velocidad del viento	3.2
39262	7	Sololá	701	Sololá	1	Sololá	8	Agosto	2023-04-08T00:00:00	2024-11-08T06:00:00	7	Dirección del viento	3.22
39263	7	Sololá	701	Sololá	1	Sololá	8	Agosto	2023-04-08T00:00:00	2024-11-08T06:00:00	1	Precipitación	0
39264	7	Sololá	701	Sololá	1	Sololá	8	Agosto	2023-04-08T00:00:00	2024-11-08T06:00:00	8	Radiación solar	0
39265	7	Sololá	701	Sololá	1	Sololá	8	Agosto	2023-04-08T00:00:00	2024-11-08T07:00:00	2	Temperatura media	16.2
39266	7	Sololá	701	Sololá	1	Sololá	8	Agosto	2023-04-08T00:00:00	2024-11-08T07:00:00	4	Temperatura máxima	16.2
39267	7	Sololá	701	Sololá	1	Sololá	8	Agosto	2023-04-08T00:00:00	2024-11-08T07:00:00	3	Temperatura mínima	14.4
39268	7	Sololá	701	Sololá	1	Sololá	8	Agosto	2023-04-08T00:00:00	2024-11-08T07:00:00	5	Humedad	82
39269	7	Sololá	701	Sololá	1	Sololá	8	Agosto	2023-04-08T00:00:00	2024-11-08T07:00:00	6	Velocidad del viento	1.6
39270	7	Sololá	701	Sololá	1	Sololá	8	Agosto	2023-04-08T00:00:00	2024-11-08T07:00:00	7	Dirección del viento	1.61
39271	7	Sololá	701	Sololá	1	Sololá	8	Agosto	2023-04-08T00:00:00	2024-11-08T07:00:00	1	Precipitación	0
39272	7	Sololá	701	Sololá	1	Sololá	8	Agosto	2023-04-08T00:00:00	2024-11-08T07:00:00	8	Radiación solar	14
39273	7	Sololá	701	Sololá	1	Sololá	8	Agosto	2023-04-08T00:00:00	2024-11-08T08:00:00	2	Temperatura media	18.2
39274	7	Sololá	701	Sololá	1	Sololá	8	Agosto	2023-04-08T00:00:00	2024-11-08T08:00:00	4	Temperatura máxima	18.2
39275	7	Sololá	701	Sololá	1	Sololá	8	Agosto	2023-04-08T00:00:00	2024-11-08T08:00:00	3	Temperatura mínima	16.2
39276	7	Sololá	701	Sololá	1	Sololá	8	Agosto	2023-04-08T00:00:00	2024-11-08T08:00:00	5	Humedad	76
39277	7	Sololá	701	Sololá	1	Sololá	8	Agosto	2023-04-08T00:00:00	2024-11-08T08:00:00	6	Velocidad del viento	0
39278	7	Sololá	701	Sololá	1	Sololá	8	Agosto	2023-04-08T00:00:00	2024-11-08T08:00:00	7	Dirección del viento	0
39279	7	Sololá	701	Sololá	1	Sololá	8	Agosto	2023-04-08T00:00:00	2024-11-08T08:00:00	1	Precipitación	0
39280	7	Sololá	701	Sololá	1	Sololá	8	Agosto	2023-04-08T00:00:00	2024-11-08T08:00:00	8	Radiación solar	94
39281	7	Sololá	701	Sololá	1	Sololá	8	Agosto	2023-04-08T00:00:00	2024-11-08T09:00:00	2	Temperatura media	19.9
39282	7	Sololá	701	Sololá	1	Sololá	8	Agosto	2023-04-08T00:00:00	2024-11-08T09:00:00	4	Temperatura máxima	19.9
39283	7	Sololá	701	Sololá	1	Sololá	8	Agosto	2023-04-08T00:00:00	2024-11-08T09:00:00	3	Temperatura mínima	18.2
39284	7	Sololá	701	Sololá	1	Sololá	8	Agosto	2023-04-08T00:00:00	2024-11-08T09:00:00	5	Humedad	75
39285	7	Sololá	701	Sololá	1	Sololá	8	Agosto	2023-04-08T00:00:00	2024-11-08T09:00:00	6	Velocidad del viento	1.6
39286	7	Sololá	701	Sololá	1	Sololá	8	Agosto	2023-04-08T00:00:00	2024-11-08T09:00:00	7	Dirección del viento	1.61
39287	7	Sololá	701	Sololá	1	Sololá	8	Agosto	2023-04-08T00:00:00	2024-11-08T09:00:00	1	Precipitación	0
39288	7	Sololá	701	Sololá	1	Sololá	8	Agosto	2023-04-08T00:00:00	2024-11-08T09:00:00	8	Radiación solar	590
39289	7	Sololá	701	Sololá	1	Sololá	8	Agosto	2023-04-08T00:00:00	2024-11-08T10:00:00	2	Temperatura media	21.4
39290	7	Sololá	701	Sololá	1	Sololá	8	Agosto	2023-04-08T00:00:00	2024-11-08T10:00:00	4	Temperatura máxima	21.4
39291	7	Sololá	701	Sololá	1	Sololá	8	Agosto	2023-04-08T00:00:00	2024-11-08T10:00:00	3	Temperatura mínima	19.9
39292	7	Sololá	701	Sololá	1	Sololá	8	Agosto	2023-04-08T00:00:00	2024-11-08T10:00:00	5	Humedad	72
39293	7	Sololá	701	Sololá	1	Sololá	8	Agosto	2023-04-08T00:00:00	2024-11-08T10:00:00	6	Velocidad del viento	3.2
39294	7	Sololá	701	Sololá	1	Sololá	8	Agosto	2023-04-08T00:00:00	2024-11-08T10:00:00	7	Dirección del viento	3.22
39295	7	Sololá	701	Sololá	1	Sololá	8	Agosto	2023-04-08T00:00:00	2024-11-08T10:00:00	1	Precipitación	0
39296	7	Sololá	701	Sololá	1	Sololá	8	Agosto	2023-04-08T00:00:00	2024-11-08T10:00:00	8	Radiación solar	801
39297	7	Sololá	701	Sololá	1	Sololá	8	Agosto	2023-04-08T00:00:00	2024-11-08T11:00:00	2	Temperatura media	22.3
39298	7	Sololá	701	Sololá	1	Sololá	8	Agosto	2023-04-08T00:00:00	2024-11-08T11:00:00	4	Temperatura máxima	22.3
39299	7	Sololá	701	Sololá	1	Sololá	8	Agosto	2023-04-08T00:00:00	2024-11-08T11:00:00	3	Temperatura mínima	21.4
39300	7	Sololá	701	Sololá	1	Sololá	8	Agosto	2023-04-08T00:00:00	2024-11-08T11:00:00	5	Humedad	70
39301	7	Sololá	701	Sololá	1	Sololá	8	Agosto	2023-04-08T00:00:00	2024-11-08T11:00:00	6	Velocidad del viento	3.2
39302	7	Sololá	701	Sololá	1	Sololá	8	Agosto	2023-04-08T00:00:00	2024-11-08T11:00:00	7	Dirección del viento	3.22
39303	7	Sololá	701	Sololá	1	Sololá	8	Agosto	2023-04-08T00:00:00	2024-11-08T11:00:00	1	Precipitación	0
39304	7	Sololá	701	Sololá	1	Sololá	8	Agosto	2023-04-08T00:00:00	2024-11-08T11:00:00	8	Radiación solar	912
39305	7	Sololá	701	Sololá	1	Sololá	8	Agosto	2023-04-08T00:00:00	2024-11-08T12:00:00	2	Temperatura media	22.2
39306	7	Sololá	701	Sololá	1	Sololá	8	Agosto	2023-04-08T00:00:00	2024-11-08T12:00:00	4	Temperatura máxima	22.4
39307	7	Sololá	701	Sololá	1	Sololá	8	Agosto	2023-04-08T00:00:00	2024-11-08T12:00:00	3	Temperatura mínima	21.7
39308	7	Sololá	701	Sololá	1	Sololá	8	Agosto	2023-04-08T00:00:00	2024-11-08T12:00:00	5	Humedad	70
39309	7	Sololá	701	Sololá	1	Sololá	8	Agosto	2023-04-08T00:00:00	2024-11-08T12:00:00	6	Velocidad del viento	4.8
39310	7	Sololá	701	Sololá	1	Sololá	8	Agosto	2023-04-08T00:00:00	2024-11-08T12:00:00	7	Dirección del viento	4.83
39311	7	Sololá	701	Sololá	1	Sololá	8	Agosto	2023-04-08T00:00:00	2024-11-08T12:00:00	1	Precipitación	0
39312	7	Sololá	701	Sololá	1	Sololá	8	Agosto	2023-04-08T00:00:00	2024-11-08T12:00:00	8	Radiación solar	758
39313	7	Sololá	701	Sololá	1	Sololá	8	Agosto	2023-04-08T00:00:00	2024-11-08T13:00:00	2	Temperatura media	22.6
39314	7	Sololá	701	Sololá	1	Sololá	8	Agosto	2023-04-08T00:00:00	2024-11-08T13:00:00	4	Temperatura máxima	22.9
39315	7	Sololá	701	Sololá	1	Sololá	8	Agosto	2023-04-08T00:00:00	2024-11-08T13:00:00	3	Temperatura mínima	22.1
39316	7	Sololá	701	Sololá	1	Sololá	8	Agosto	2023-04-08T00:00:00	2024-11-08T13:00:00	5	Humedad	66
39317	7	Sololá	701	Sololá	1	Sololá	8	Agosto	2023-04-08T00:00:00	2024-11-08T13:00:00	6	Velocidad del viento	9.7
39318	7	Sololá	701	Sololá	1	Sololá	8	Agosto	2023-04-08T00:00:00	2024-11-08T13:00:00	7	Dirección del viento	9.66
39319	7	Sololá	701	Sololá	1	Sololá	8	Agosto	2023-04-08T00:00:00	2024-11-08T13:00:00	1	Precipitación	0
39320	7	Sololá	701	Sololá	1	Sololá	8	Agosto	2023-04-08T00:00:00	2024-11-08T13:00:00	8	Radiación solar	407
39321	7	Sololá	701	Sololá	1	Sololá	8	Agosto	2023-04-08T00:00:00	2024-11-08T14:00:00	2	Temperatura media	22.3
39322	7	Sololá	701	Sololá	1	Sololá	8	Agosto	2023-04-08T00:00:00	2024-11-08T14:00:00	4	Temperatura máxima	22.8
39323	7	Sololá	701	Sololá	1	Sololá	8	Agosto	2023-04-08T00:00:00	2024-11-08T14:00:00	3	Temperatura mínima	21.6
39324	7	Sololá	701	Sololá	1	Sololá	8	Agosto	2023-04-08T00:00:00	2024-11-08T14:00:00	5	Humedad	74
39325	7	Sololá	701	Sololá	1	Sololá	8	Agosto	2023-04-08T00:00:00	2024-11-08T14:00:00	6	Velocidad del viento	4.8
39326	7	Sololá	701	Sololá	1	Sololá	8	Agosto	2023-04-08T00:00:00	2024-11-08T14:00:00	7	Dirección del viento	4.83
39327	7	Sololá	701	Sololá	1	Sololá	8	Agosto	2023-04-08T00:00:00	2024-11-08T14:00:00	1	Precipitación	0
39328	7	Sololá	701	Sololá	1	Sololá	8	Agosto	2023-04-08T00:00:00	2024-11-08T14:00:00	8	Radiación solar	141
39329	7	Sololá	701	Sololá	1	Sololá	8	Agosto	2023-04-08T00:00:00	2024-11-08T15:00:00	2	Temperatura media	23
39330	7	Sololá	701	Sololá	1	Sololá	8	Agosto	2023-04-08T00:00:00	2024-11-08T15:00:00	4	Temperatura máxima	23.7
39331	7	Sololá	701	Sololá	1	Sololá	8	Agosto	2023-04-08T00:00:00	2024-11-08T15:00:00	3	Temperatura mínima	22.3
39332	7	Sololá	701	Sololá	1	Sololá	8	Agosto	2023-04-08T00:00:00	2024-11-08T15:00:00	5	Humedad	71
39333	7	Sololá	701	Sololá	1	Sololá	8	Agosto	2023-04-08T00:00:00	2024-11-08T15:00:00	6	Velocidad del viento	3.2
39334	7	Sololá	701	Sololá	1	Sololá	8	Agosto	2023-04-08T00:00:00	2024-11-08T15:00:00	7	Dirección del viento	3.22
39335	7	Sololá	701	Sololá	1	Sololá	8	Agosto	2023-04-08T00:00:00	2024-11-08T15:00:00	1	Precipitación	0
39336	7	Sololá	701	Sololá	1	Sololá	8	Agosto	2023-04-08T00:00:00	2024-11-08T15:00:00	8	Radiación solar	90
39337	7	Sololá	701	Sololá	1	Sololá	8	Agosto	2023-04-08T00:00:00	2024-11-08T16:00:00	2	Temperatura media	23
39338	7	Sololá	701	Sololá	1	Sololá	8	Agosto	2023-04-08T00:00:00	2024-11-08T16:00:00	4	Temperatura máxima	23.6
39339	7	Sololá	701	Sololá	1	Sololá	8	Agosto	2023-04-08T00:00:00	2024-11-08T16:00:00	3	Temperatura mínima	22.9
39340	7	Sololá	701	Sololá	1	Sololá	8	Agosto	2023-04-08T00:00:00	2024-11-08T16:00:00	5	Humedad	75
39341	7	Sololá	701	Sololá	1	Sololá	8	Agosto	2023-04-08T00:00:00	2024-11-08T16:00:00	6	Velocidad del viento	6.4
39342	7	Sololá	701	Sololá	1	Sololá	8	Agosto	2023-04-08T00:00:00	2024-11-08T16:00:00	7	Dirección del viento	6.44
39343	7	Sololá	701	Sololá	1	Sololá	8	Agosto	2023-04-08T00:00:00	2024-11-08T16:00:00	1	Precipitación	0
39344	7	Sololá	701	Sololá	1	Sololá	8	Agosto	2023-04-08T00:00:00	2024-11-08T16:00:00	8	Radiación solar	50
39345	7	Sololá	701	Sololá	1	Sololá	8	Agosto	2023-04-08T00:00:00	2024-11-08T17:00:00	2	Temperatura media	21.5
39346	7	Sololá	701	Sololá	1	Sololá	8	Agosto	2023-04-08T00:00:00	2024-11-08T17:00:00	4	Temperatura máxima	22.9
39347	7	Sololá	701	Sololá	1	Sololá	8	Agosto	2023-04-08T00:00:00	2024-11-08T17:00:00	3	Temperatura mínima	21.2
39348	7	Sololá	701	Sololá	1	Sololá	8	Agosto	2023-04-08T00:00:00	2024-11-08T17:00:00	5	Humedad	82
39349	7	Sololá	701	Sololá	1	Sololá	8	Agosto	2023-04-08T00:00:00	2024-11-08T17:00:00	6	Velocidad del viento	4.8
39350	7	Sololá	701	Sololá	1	Sololá	8	Agosto	2023-04-08T00:00:00	2024-11-08T17:00:00	7	Dirección del viento	4.83
39351	7	Sololá	701	Sololá	1	Sololá	8	Agosto	2023-04-08T00:00:00	2024-11-08T17:00:00	1	Precipitación	0
39352	7	Sololá	701	Sololá	1	Sololá	8	Agosto	2023-04-08T00:00:00	2024-11-08T17:00:00	8	Radiación solar	4
39353	7	Sololá	701	Sololá	1	Sololá	8	Agosto	2023-04-08T00:00:00	2024-11-08T18:00:00	2	Temperatura media	17.8
39354	7	Sololá	701	Sololá	1	Sololá	8	Agosto	2023-04-08T00:00:00	2024-11-08T18:00:00	4	Temperatura máxima	21.5
39355	7	Sololá	701	Sololá	1	Sololá	8	Agosto	2023-04-08T00:00:00	2024-11-08T18:00:00	3	Temperatura mínima	17.8
39356	7	Sololá	701	Sololá	1	Sololá	8	Agosto	2023-04-08T00:00:00	2024-11-08T18:00:00	5	Humedad	85
39357	7	Sololá	701	Sololá	1	Sololá	8	Agosto	2023-04-08T00:00:00	2024-11-08T18:00:00	6	Velocidad del viento	4.8
39358	7	Sololá	701	Sololá	1	Sololá	8	Agosto	2023-04-08T00:00:00	2024-11-08T18:00:00	7	Dirección del viento	4.83
39359	7	Sololá	701	Sololá	1	Sololá	8	Agosto	2023-04-08T00:00:00	2024-11-08T18:00:00	1	Precipitación	0
39360	7	Sololá	701	Sololá	1	Sololá	8	Agosto	2023-04-08T00:00:00	2024-11-08T18:00:00	8	Radiación solar	0
39361	7	Sololá	701	Sololá	1	Sololá	8	Agosto	2023-04-08T00:00:00	2024-11-08T19:00:00	2	Temperatura media	17.1
39362	7	Sololá	701	Sololá	1	Sololá	8	Agosto	2023-04-08T00:00:00	2024-11-08T19:00:00	4	Temperatura máxima	17.9
39363	7	Sololá	701	Sololá	1	Sololá	8	Agosto	2023-04-08T00:00:00	2024-11-08T19:00:00	3	Temperatura mínima	17.1
39364	7	Sololá	701	Sololá	1	Sololá	8	Agosto	2023-04-08T00:00:00	2024-11-08T19:00:00	5	Humedad	88
39365	7	Sololá	701	Sololá	1	Sololá	8	Agosto	2023-04-08T00:00:00	2024-11-08T19:00:00	6	Velocidad del viento	3.2
39366	7	Sololá	701	Sololá	1	Sololá	8	Agosto	2023-04-08T00:00:00	2024-11-08T19:00:00	7	Dirección del viento	3.22
39367	7	Sololá	701	Sololá	1	Sololá	8	Agosto	2023-04-08T00:00:00	2024-11-08T19:00:00	1	Precipitación	0
39368	7	Sololá	701	Sololá	1	Sololá	8	Agosto	2023-04-08T00:00:00	2024-11-08T19:00:00	8	Radiación solar	0
39369	7	Sololá	701	Sololá	1	Sololá	8	Agosto	2023-04-08T00:00:00	2024-11-08T20:00:00	2	Temperatura media	17.9
39370	7	Sololá	701	Sololá	1	Sololá	8	Agosto	2023-04-08T00:00:00	2024-11-08T20:00:00	4	Temperatura máxima	18
39371	7	Sololá	701	Sololá	1	Sololá	8	Agosto	2023-04-08T00:00:00	2024-11-08T20:00:00	3	Temperatura mínima	17.1
39372	7	Sololá	701	Sololá	1	Sololá	8	Agosto	2023-04-08T00:00:00	2024-11-08T20:00:00	5	Humedad	83
39373	7	Sololá	701	Sololá	1	Sololá	8	Agosto	2023-04-08T00:00:00	2024-11-08T20:00:00	6	Velocidad del viento	1.6
39374	7	Sololá	701	Sololá	1	Sololá	8	Agosto	2023-04-08T00:00:00	2024-11-08T20:00:00	7	Dirección del viento	1.61
39375	7	Sololá	701	Sololá	1	Sololá	8	Agosto	2023-04-08T00:00:00	2024-11-08T20:00:00	1	Precipitación	0
39376	7	Sololá	701	Sololá	1	Sololá	8	Agosto	2023-04-08T00:00:00	2024-11-08T20:00:00	8	Radiación solar	0
39377	7	Sololá	701	Sololá	1	Sololá	8	Agosto	2023-04-08T00:00:00	2024-11-08T21:00:00	2	Temperatura media	16.6
39378	7	Sololá	701	Sololá	1	Sololá	8	Agosto	2023-04-08T00:00:00	2024-11-08T21:00:00	4	Temperatura máxima	18
39379	7	Sololá	701	Sololá	1	Sololá	8	Agosto	2023-04-08T00:00:00	2024-11-08T21:00:00	3	Temperatura mínima	16.6
39380	7	Sololá	701	Sololá	1	Sololá	8	Agosto	2023-04-08T00:00:00	2024-11-08T21:00:00	5	Humedad	87
39381	7	Sololá	701	Sololá	1	Sololá	8	Agosto	2023-04-08T00:00:00	2024-11-08T21:00:00	6	Velocidad del viento	1.6
39382	7	Sololá	701	Sololá	1	Sololá	8	Agosto	2023-04-08T00:00:00	2024-11-08T21:00:00	7	Dirección del viento	1.61
39383	7	Sololá	701	Sololá	1	Sololá	8	Agosto	2023-04-08T00:00:00	2024-11-08T21:00:00	1	Precipitación	0
39384	7	Sololá	701	Sololá	1	Sololá	8	Agosto	2023-04-08T00:00:00	2024-11-08T21:00:00	8	Radiación solar	0
39385	7	Sololá	701	Sololá	1	Sololá	8	Agosto	2023-04-08T00:00:00	2024-11-08T22:00:00	2	Temperatura media	16.2
39386	7	Sololá	701	Sololá	1	Sololá	8	Agosto	2023-04-08T00:00:00	2024-11-08T22:00:00	4	Temperatura máxima	16.7
39387	7	Sololá	701	Sololá	1	Sololá	8	Agosto	2023-04-08T00:00:00	2024-11-08T22:00:00	3	Temperatura mínima	16.1
39388	7	Sololá	701	Sololá	1	Sololá	8	Agosto	2023-04-08T00:00:00	2024-11-08T22:00:00	5	Humedad	83
39389	7	Sololá	701	Sololá	1	Sololá	8	Agosto	2023-04-08T00:00:00	2024-11-08T22:00:00	6	Velocidad del viento	3.2
39390	7	Sololá	701	Sololá	1	Sololá	8	Agosto	2023-04-08T00:00:00	2024-11-08T22:00:00	7	Dirección del viento	3.22
39391	7	Sololá	701	Sololá	1	Sololá	8	Agosto	2023-04-08T00:00:00	2024-11-08T22:00:00	1	Precipitación	0
39392	7	Sololá	701	Sololá	1	Sololá	8	Agosto	2023-04-08T00:00:00	2024-11-08T22:00:00	8	Radiación solar	0
39393	7	Sololá	701	Sololá	1	Sololá	8	Agosto	2023-04-08T00:00:00	2024-11-08T23:00:00	2	Temperatura media	15.8
39394	7	Sololá	701	Sololá	1	Sololá	8	Agosto	2023-04-08T00:00:00	2024-11-08T23:00:00	4	Temperatura máxima	16.6
39395	7	Sololá	701	Sololá	1	Sololá	8	Agosto	2023-04-08T00:00:00	2024-11-08T23:00:00	3	Temperatura mínima	15.8
39396	7	Sololá	701	Sololá	1	Sololá	8	Agosto	2023-04-08T00:00:00	2024-11-08T23:00:00	5	Humedad	84
39397	7	Sololá	701	Sololá	1	Sololá	8	Agosto	2023-04-08T00:00:00	2024-11-08T23:00:00	6	Velocidad del viento	3.2
39398	7	Sololá	701	Sololá	1	Sololá	8	Agosto	2023-04-08T00:00:00	2024-11-08T23:00:00	7	Dirección del viento	3.22
39399	7	Sololá	701	Sololá	1	Sololá	8	Agosto	2023-04-08T00:00:00	2024-11-08T23:00:00	1	Precipitación	0
39400	7	Sololá	701	Sololá	1	Sololá	8	Agosto	2023-04-08T00:00:00	2024-11-08T23:00:00	8	Radiación solar	0
39401	7	Sololá	701	Sololá	1	Sololá	8	Agosto	2023-05-08T00:00:00	2024-11-08T00:00:00	2	Temperatura media	15.6
39402	7	Sololá	701	Sololá	1	Sololá	8	Agosto	2023-05-08T00:00:00	2024-11-08T00:00:00	4	Temperatura máxima	16.8
39403	7	Sololá	701	Sololá	1	Sololá	8	Agosto	2023-05-08T00:00:00	2024-11-08T00:00:00	3	Temperatura mínima	15.3
39404	7	Sololá	701	Sololá	1	Sololá	8	Agosto	2023-05-08T00:00:00	2024-11-08T00:00:00	5	Humedad	87
39405	7	Sololá	701	Sololá	1	Sololá	8	Agosto	2023-05-08T00:00:00	2024-11-08T00:00:00	6	Velocidad del viento	4.8
39406	7	Sololá	701	Sololá	1	Sololá	8	Agosto	2023-05-08T00:00:00	2024-11-08T00:00:00	7	Dirección del viento	4.83
39407	7	Sololá	701	Sololá	1	Sololá	8	Agosto	2023-05-08T00:00:00	2024-11-08T00:00:00	1	Precipitación	0
39408	7	Sololá	701	Sololá	1	Sololá	8	Agosto	2023-05-08T00:00:00	2024-11-08T00:00:00	8	Radiación solar	0
39409	7	Sololá	701	Sololá	1	Sololá	8	Agosto	2023-05-08T00:00:00	2024-11-08T01:00:00	2	Temperatura media	15.3
39410	7	Sololá	701	Sololá	1	Sololá	8	Agosto	2023-05-08T00:00:00	2024-11-08T01:00:00	4	Temperatura máxima	15.7
39411	7	Sololá	701	Sololá	1	Sololá	8	Agosto	2023-05-08T00:00:00	2024-11-08T01:00:00	3	Temperatura mínima	14.6
39412	7	Sololá	701	Sololá	1	Sololá	8	Agosto	2023-05-08T00:00:00	2024-11-08T01:00:00	5	Humedad	87
39413	7	Sololá	701	Sololá	1	Sololá	8	Agosto	2023-05-08T00:00:00	2024-11-08T01:00:00	6	Velocidad del viento	4.8
39414	7	Sololá	701	Sololá	1	Sololá	8	Agosto	2023-05-08T00:00:00	2024-11-08T01:00:00	7	Dirección del viento	4.83
39415	7	Sololá	701	Sololá	1	Sololá	8	Agosto	2023-05-08T00:00:00	2024-11-08T01:00:00	1	Precipitación	0
39416	7	Sololá	701	Sololá	1	Sololá	8	Agosto	2023-05-08T00:00:00	2024-11-08T01:00:00	8	Radiación solar	0
39417	7	Sololá	701	Sololá	1	Sololá	8	Agosto	2023-05-08T00:00:00	2024-11-08T02:00:00	2	Temperatura media	14.1
39418	7	Sololá	701	Sololá	1	Sololá	8	Agosto	2023-05-08T00:00:00	2024-11-08T02:00:00	4	Temperatura máxima	15.6
39419	7	Sololá	701	Sololá	1	Sololá	8	Agosto	2023-05-08T00:00:00	2024-11-08T02:00:00	3	Temperatura mínima	14
39420	7	Sololá	701	Sololá	1	Sololá	8	Agosto	2023-05-08T00:00:00	2024-11-08T02:00:00	5	Humedad	86
39421	7	Sololá	701	Sololá	1	Sololá	8	Agosto	2023-05-08T00:00:00	2024-11-08T02:00:00	6	Velocidad del viento	6.4
39422	7	Sololá	701	Sololá	1	Sololá	8	Agosto	2023-05-08T00:00:00	2024-11-08T02:00:00	7	Dirección del viento	6.44
39423	7	Sololá	701	Sololá	1	Sololá	8	Agosto	2023-05-08T00:00:00	2024-11-08T02:00:00	1	Precipitación	0
39424	7	Sololá	701	Sololá	1	Sololá	8	Agosto	2023-05-08T00:00:00	2024-11-08T02:00:00	8	Radiación solar	0
39425	7	Sololá	701	Sololá	1	Sololá	8	Agosto	2023-05-08T00:00:00	2024-11-08T03:00:00	2	Temperatura media	15.8
39426	7	Sololá	701	Sololá	1	Sololá	8	Agosto	2023-05-08T00:00:00	2024-11-08T03:00:00	4	Temperatura máxima	15.9
39427	7	Sololá	701	Sololá	1	Sololá	8	Agosto	2023-05-08T00:00:00	2024-11-08T03:00:00	3	Temperatura mínima	13.9
39428	7	Sololá	701	Sololá	1	Sololá	8	Agosto	2023-05-08T00:00:00	2024-11-08T03:00:00	5	Humedad	82
39429	7	Sololá	701	Sololá	1	Sololá	8	Agosto	2023-05-08T00:00:00	2024-11-08T03:00:00	6	Velocidad del viento	4.8
39430	7	Sololá	701	Sololá	1	Sololá	8	Agosto	2023-05-08T00:00:00	2024-11-08T03:00:00	7	Dirección del viento	4.83
39431	7	Sololá	701	Sololá	1	Sololá	8	Agosto	2023-05-08T00:00:00	2024-11-08T03:00:00	1	Precipitación	0
39432	7	Sololá	701	Sololá	1	Sololá	8	Agosto	2023-05-08T00:00:00	2024-11-08T03:00:00	8	Radiación solar	0
39433	7	Sololá	701	Sololá	1	Sololá	8	Agosto	2023-05-08T00:00:00	2024-11-08T04:00:00	2	Temperatura media	16.3
39434	7	Sololá	701	Sololá	1	Sololá	8	Agosto	2023-05-08T00:00:00	2024-11-08T04:00:00	4	Temperatura máxima	16.3
39435	7	Sololá	701	Sololá	1	Sololá	8	Agosto	2023-05-08T00:00:00	2024-11-08T04:00:00	3	Temperatura mínima	15.7
39436	7	Sololá	701	Sololá	1	Sololá	8	Agosto	2023-05-08T00:00:00	2024-11-08T04:00:00	5	Humedad	82
39437	7	Sololá	701	Sololá	1	Sololá	8	Agosto	2023-05-08T00:00:00	2024-11-08T04:00:00	6	Velocidad del viento	8
39438	7	Sololá	701	Sololá	1	Sololá	8	Agosto	2023-05-08T00:00:00	2024-11-08T04:00:00	7	Dirección del viento	8.05
39439	7	Sololá	701	Sololá	1	Sololá	8	Agosto	2023-05-08T00:00:00	2024-11-08T04:00:00	1	Precipitación	0
39440	7	Sololá	701	Sololá	1	Sololá	8	Agosto	2023-05-08T00:00:00	2024-11-08T04:00:00	8	Radiación solar	0
39441	7	Sololá	701	Sololá	1	Sololá	8	Agosto	2023-05-08T00:00:00	2024-11-08T05:00:00	2	Temperatura media	15.6
39442	7	Sololá	701	Sololá	1	Sololá	8	Agosto	2023-05-08T00:00:00	2024-11-08T05:00:00	4	Temperatura máxima	16.3
39443	7	Sololá	701	Sololá	1	Sololá	8	Agosto	2023-05-08T00:00:00	2024-11-08T05:00:00	3	Temperatura mínima	15.1
39444	7	Sololá	701	Sololá	1	Sololá	8	Agosto	2023-05-08T00:00:00	2024-11-08T05:00:00	5	Humedad	85
39445	7	Sololá	701	Sololá	1	Sololá	8	Agosto	2023-05-08T00:00:00	2024-11-08T05:00:00	6	Velocidad del viento	8
39446	7	Sololá	701	Sololá	1	Sololá	8	Agosto	2023-05-08T00:00:00	2024-11-08T05:00:00	7	Dirección del viento	8.05
39447	7	Sololá	701	Sololá	1	Sololá	8	Agosto	2023-05-08T00:00:00	2024-11-08T05:00:00	1	Precipitación	0
39448	7	Sololá	701	Sololá	1	Sololá	8	Agosto	2023-05-08T00:00:00	2024-11-08T05:00:00	8	Radiación solar	0
39449	7	Sololá	701	Sololá	1	Sololá	8	Agosto	2023-05-08T00:00:00	2024-11-08T06:00:00	2	Temperatura media	15.7
39450	7	Sololá	701	Sololá	1	Sololá	8	Agosto	2023-05-08T00:00:00	2024-11-08T06:00:00	4	Temperatura máxima	16
39451	7	Sololá	701	Sololá	1	Sololá	8	Agosto	2023-05-08T00:00:00	2024-11-08T06:00:00	3	Temperatura mínima	15.6
39452	7	Sololá	701	Sololá	1	Sololá	8	Agosto	2023-05-08T00:00:00	2024-11-08T06:00:00	5	Humedad	85
39453	7	Sololá	701	Sololá	1	Sololá	8	Agosto	2023-05-08T00:00:00	2024-11-08T06:00:00	6	Velocidad del viento	3.2
39454	7	Sololá	701	Sololá	1	Sololá	8	Agosto	2023-05-08T00:00:00	2024-11-08T06:00:00	7	Dirección del viento	3.22
39455	7	Sololá	701	Sololá	1	Sololá	8	Agosto	2023-05-08T00:00:00	2024-11-08T06:00:00	1	Precipitación	0
39456	7	Sololá	701	Sololá	1	Sololá	8	Agosto	2023-05-08T00:00:00	2024-11-08T06:00:00	8	Radiación solar	0
39457	7	Sololá	701	Sololá	1	Sololá	8	Agosto	2023-05-08T00:00:00	2024-11-08T07:00:00	2	Temperatura media	16.7
39458	7	Sololá	701	Sololá	1	Sololá	8	Agosto	2023-05-08T00:00:00	2024-11-08T07:00:00	4	Temperatura máxima	16.7
39459	7	Sololá	701	Sololá	1	Sololá	8	Agosto	2023-05-08T00:00:00	2024-11-08T07:00:00	3	Temperatura mínima	15.7
39460	7	Sololá	701	Sololá	1	Sololá	8	Agosto	2023-05-08T00:00:00	2024-11-08T07:00:00	5	Humedad	82
39461	7	Sololá	701	Sololá	1	Sololá	8	Agosto	2023-05-08T00:00:00	2024-11-08T07:00:00	6	Velocidad del viento	6.4
39462	7	Sololá	701	Sololá	1	Sololá	8	Agosto	2023-05-08T00:00:00	2024-11-08T07:00:00	7	Dirección del viento	6.44
39463	7	Sololá	701	Sololá	1	Sololá	8	Agosto	2023-05-08T00:00:00	2024-11-08T07:00:00	1	Precipitación	0
39464	7	Sololá	701	Sololá	1	Sololá	8	Agosto	2023-05-08T00:00:00	2024-11-08T07:00:00	8	Radiación solar	18
39465	7	Sololá	701	Sololá	1	Sololá	8	Agosto	2023-05-08T00:00:00	2024-11-08T08:00:00	2	Temperatura media	19.9
39466	7	Sololá	701	Sololá	1	Sololá	8	Agosto	2023-05-08T00:00:00	2024-11-08T08:00:00	4	Temperatura máxima	19.9
39467	7	Sololá	701	Sololá	1	Sololá	8	Agosto	2023-05-08T00:00:00	2024-11-08T08:00:00	3	Temperatura mínima	16.8
39468	7	Sololá	701	Sololá	1	Sololá	8	Agosto	2023-05-08T00:00:00	2024-11-08T08:00:00	5	Humedad	69
39469	7	Sololá	701	Sololá	1	Sololá	8	Agosto	2023-05-08T00:00:00	2024-11-08T08:00:00	6	Velocidad del viento	9.7
39470	7	Sololá	701	Sololá	1	Sololá	8	Agosto	2023-05-08T00:00:00	2024-11-08T08:00:00	7	Dirección del viento	9.66
39471	7	Sololá	701	Sololá	1	Sololá	8	Agosto	2023-05-08T00:00:00	2024-11-08T08:00:00	1	Precipitación	0
39472	7	Sololá	701	Sololá	1	Sololá	8	Agosto	2023-05-08T00:00:00	2024-11-08T08:00:00	8	Radiación solar	127
39473	7	Sololá	701	Sololá	1	Sololá	8	Agosto	2023-05-08T00:00:00	2024-11-08T09:00:00	2	Temperatura media	21.4
39474	7	Sololá	701	Sololá	1	Sololá	8	Agosto	2023-05-08T00:00:00	2024-11-08T09:00:00	4	Temperatura máxima	21.4
39475	7	Sololá	701	Sololá	1	Sololá	8	Agosto	2023-05-08T00:00:00	2024-11-08T09:00:00	3	Temperatura mínima	19.9
39476	7	Sololá	701	Sololá	1	Sololá	8	Agosto	2023-05-08T00:00:00	2024-11-08T09:00:00	5	Humedad	58
39477	7	Sololá	701	Sololá	1	Sololá	8	Agosto	2023-05-08T00:00:00	2024-11-08T09:00:00	6	Velocidad del viento	8
39478	7	Sololá	701	Sololá	1	Sololá	8	Agosto	2023-05-08T00:00:00	2024-11-08T09:00:00	7	Dirección del viento	8.05
39479	7	Sololá	701	Sololá	1	Sololá	8	Agosto	2023-05-08T00:00:00	2024-11-08T09:00:00	1	Precipitación	0
39480	7	Sololá	701	Sololá	1	Sololá	8	Agosto	2023-05-08T00:00:00	2024-11-08T09:00:00	8	Radiación solar	572
39481	7	Sololá	701	Sololá	1	Sololá	8	Agosto	2023-05-08T00:00:00	2024-11-08T10:00:00	2	Temperatura media	22.4
39482	7	Sololá	701	Sololá	1	Sololá	8	Agosto	2023-05-08T00:00:00	2024-11-08T10:00:00	4	Temperatura máxima	22.4
39483	7	Sololá	701	Sololá	1	Sololá	8	Agosto	2023-05-08T00:00:00	2024-11-08T10:00:00	3	Temperatura mínima	21.1
39484	7	Sololá	701	Sololá	1	Sololá	8	Agosto	2023-05-08T00:00:00	2024-11-08T10:00:00	5	Humedad	53
39485	7	Sololá	701	Sololá	1	Sololá	8	Agosto	2023-05-08T00:00:00	2024-11-08T10:00:00	6	Velocidad del viento	8
39486	7	Sololá	701	Sololá	1	Sololá	8	Agosto	2023-05-08T00:00:00	2024-11-08T10:00:00	7	Dirección del viento	8.05
39487	7	Sololá	701	Sololá	1	Sololá	8	Agosto	2023-05-08T00:00:00	2024-11-08T10:00:00	1	Precipitación	0
39488	7	Sololá	701	Sololá	1	Sololá	8	Agosto	2023-05-08T00:00:00	2024-11-08T10:00:00	8	Radiación solar	790
39489	7	Sololá	701	Sololá	1	Sololá	8	Agosto	2023-05-08T00:00:00	2024-11-08T11:00:00	2	Temperatura media	23.2
39490	7	Sololá	701	Sololá	1	Sololá	8	Agosto	2023-05-08T00:00:00	2024-11-08T11:00:00	4	Temperatura máxima	23.2
39491	7	Sololá	701	Sololá	1	Sololá	8	Agosto	2023-05-08T00:00:00	2024-11-08T11:00:00	3	Temperatura mínima	22.2
39492	7	Sololá	701	Sololá	1	Sololá	8	Agosto	2023-05-08T00:00:00	2024-11-08T11:00:00	5	Humedad	51
39493	7	Sololá	701	Sololá	1	Sololá	8	Agosto	2023-05-08T00:00:00	2024-11-08T11:00:00	6	Velocidad del viento	12.9
39494	7	Sololá	701	Sololá	1	Sololá	8	Agosto	2023-05-08T00:00:00	2024-11-08T11:00:00	7	Dirección del viento	12.87
39495	7	Sololá	701	Sololá	1	Sololá	8	Agosto	2023-05-08T00:00:00	2024-11-08T11:00:00	1	Precipitación	0
39496	7	Sololá	701	Sololá	1	Sololá	8	Agosto	2023-05-08T00:00:00	2024-11-08T11:00:00	8	Radiación solar	904
39497	7	Sololá	701	Sololá	1	Sololá	8	Agosto	2023-05-08T00:00:00	2024-11-08T12:00:00	2	Temperatura media	23.7
39498	7	Sololá	701	Sololá	1	Sololá	8	Agosto	2023-05-08T00:00:00	2024-11-08T12:00:00	4	Temperatura máxima	24
39499	7	Sololá	701	Sololá	1	Sololá	8	Agosto	2023-05-08T00:00:00	2024-11-08T12:00:00	3	Temperatura mínima	23
39500	7	Sololá	701	Sololá	1	Sololá	8	Agosto	2023-05-08T00:00:00	2024-11-08T12:00:00	5	Humedad	46
39501	7	Sololá	701	Sololá	1	Sololá	8	Agosto	2023-05-08T00:00:00	2024-11-08T12:00:00	6	Velocidad del viento	9.7
39502	7	Sololá	701	Sololá	1	Sololá	8	Agosto	2023-05-08T00:00:00	2024-11-08T12:00:00	7	Dirección del viento	9.66
39503	7	Sololá	701	Sololá	1	Sololá	8	Agosto	2023-05-08T00:00:00	2024-11-08T12:00:00	1	Precipitación	0
39504	7	Sololá	701	Sololá	1	Sololá	8	Agosto	2023-05-08T00:00:00	2024-11-08T12:00:00	8	Radiación solar	899
39505	7	Sololá	701	Sololá	1	Sololá	8	Agosto	2023-05-08T00:00:00	2024-11-08T13:00:00	2	Temperatura media	24.2
39506	7	Sololá	701	Sololá	1	Sololá	8	Agosto	2023-05-08T00:00:00	2024-11-08T13:00:00	4	Temperatura máxima	24.6
39507	7	Sololá	701	Sololá	1	Sololá	8	Agosto	2023-05-08T00:00:00	2024-11-08T13:00:00	3	Temperatura mínima	23.7
39508	7	Sololá	701	Sololá	1	Sololá	8	Agosto	2023-05-08T00:00:00	2024-11-08T13:00:00	5	Humedad	42
39509	7	Sololá	701	Sololá	1	Sololá	8	Agosto	2023-05-08T00:00:00	2024-11-08T13:00:00	6	Velocidad del viento	9.7
39510	7	Sololá	701	Sololá	1	Sololá	8	Agosto	2023-05-08T00:00:00	2024-11-08T13:00:00	7	Dirección del viento	9.66
39511	7	Sololá	701	Sololá	1	Sololá	8	Agosto	2023-05-08T00:00:00	2024-11-08T13:00:00	1	Precipitación	0
39512	7	Sololá	701	Sololá	1	Sololá	8	Agosto	2023-05-08T00:00:00	2024-11-08T13:00:00	8	Radiación solar	444
39513	7	Sololá	701	Sololá	1	Sololá	8	Agosto	2023-05-08T00:00:00	2024-11-08T14:00:00	2	Temperatura media	24.5
39514	7	Sololá	701	Sololá	1	Sololá	8	Agosto	2023-05-08T00:00:00	2024-11-08T14:00:00	4	Temperatura máxima	24.8
39515	7	Sololá	701	Sololá	1	Sololá	8	Agosto	2023-05-08T00:00:00	2024-11-08T14:00:00	3	Temperatura mínima	23.5
39516	7	Sololá	701	Sololá	1	Sololá	8	Agosto	2023-05-08T00:00:00	2024-11-08T14:00:00	5	Humedad	45
39517	7	Sololá	701	Sololá	1	Sololá	8	Agosto	2023-05-08T00:00:00	2024-11-08T14:00:00	6	Velocidad del viento	9.7
39518	7	Sololá	701	Sololá	1	Sololá	8	Agosto	2023-05-08T00:00:00	2024-11-08T14:00:00	7	Dirección del viento	9.66
39519	7	Sololá	701	Sololá	1	Sololá	8	Agosto	2023-05-08T00:00:00	2024-11-08T14:00:00	1	Precipitación	0
39520	7	Sololá	701	Sololá	1	Sololá	8	Agosto	2023-05-08T00:00:00	2024-11-08T14:00:00	8	Radiación solar	272
39521	7	Sololá	701	Sololá	1	Sololá	8	Agosto	2023-05-08T00:00:00	2024-11-08T15:00:00	2	Temperatura media	24.1
39522	7	Sololá	701	Sololá	1	Sololá	8	Agosto	2023-05-08T00:00:00	2024-11-08T15:00:00	4	Temperatura máxima	24.7
39523	7	Sololá	701	Sololá	1	Sololá	8	Agosto	2023-05-08T00:00:00	2024-11-08T15:00:00	3	Temperatura mínima	23.9
39524	7	Sololá	701	Sololá	1	Sololá	8	Agosto	2023-05-08T00:00:00	2024-11-08T15:00:00	5	Humedad	46
39525	7	Sololá	701	Sololá	1	Sololá	8	Agosto	2023-05-08T00:00:00	2024-11-08T15:00:00	6	Velocidad del viento	9.7
39526	7	Sololá	701	Sololá	1	Sololá	8	Agosto	2023-05-08T00:00:00	2024-11-08T15:00:00	7	Dirección del viento	9.66
39527	7	Sololá	701	Sololá	1	Sololá	8	Agosto	2023-05-08T00:00:00	2024-11-08T15:00:00	1	Precipitación	0
39528	7	Sololá	701	Sololá	1	Sololá	8	Agosto	2023-05-08T00:00:00	2024-11-08T15:00:00	8	Radiación solar	163
39529	7	Sololá	701	Sololá	1	Sololá	8	Agosto	2023-05-08T00:00:00	2024-11-08T16:00:00	2	Temperatura media	24.1
39530	7	Sololá	701	Sololá	1	Sololá	8	Agosto	2023-05-08T00:00:00	2024-11-08T16:00:00	4	Temperatura máxima	25
39531	7	Sololá	701	Sololá	1	Sololá	8	Agosto	2023-05-08T00:00:00	2024-11-08T16:00:00	3	Temperatura mínima	24.1
39532	7	Sololá	701	Sololá	1	Sololá	8	Agosto	2023-05-08T00:00:00	2024-11-08T16:00:00	5	Humedad	43
39533	7	Sololá	701	Sololá	1	Sololá	8	Agosto	2023-05-08T00:00:00	2024-11-08T16:00:00	6	Velocidad del viento	9.7
39534	7	Sololá	701	Sololá	1	Sololá	8	Agosto	2023-05-08T00:00:00	2024-11-08T16:00:00	7	Dirección del viento	9.66
39535	7	Sololá	701	Sololá	1	Sololá	8	Agosto	2023-05-08T00:00:00	2024-11-08T16:00:00	1	Precipitación	0
39536	7	Sololá	701	Sololá	1	Sololá	8	Agosto	2023-05-08T00:00:00	2024-11-08T16:00:00	8	Radiación solar	107
39537	7	Sololá	701	Sololá	1	Sololá	8	Agosto	2023-05-08T00:00:00	2024-11-08T17:00:00	2	Temperatura media	23.8
39538	7	Sololá	701	Sololá	1	Sololá	8	Agosto	2023-05-08T00:00:00	2024-11-08T17:00:00	4	Temperatura máxima	24.2
39539	7	Sololá	701	Sololá	1	Sololá	8	Agosto	2023-05-08T00:00:00	2024-11-08T17:00:00	3	Temperatura mínima	23.7
39540	7	Sololá	701	Sololá	1	Sololá	8	Agosto	2023-05-08T00:00:00	2024-11-08T17:00:00	5	Humedad	49
39541	7	Sololá	701	Sololá	1	Sololá	8	Agosto	2023-05-08T00:00:00	2024-11-08T17:00:00	6	Velocidad del viento	8
39542	7	Sololá	701	Sololá	1	Sololá	8	Agosto	2023-05-08T00:00:00	2024-11-08T17:00:00	7	Dirección del viento	8.05
39543	7	Sololá	701	Sololá	1	Sololá	8	Agosto	2023-05-08T00:00:00	2024-11-08T17:00:00	1	Precipitación	0
39544	7	Sololá	701	Sololá	1	Sololá	8	Agosto	2023-05-08T00:00:00	2024-11-08T17:00:00	8	Radiación solar	48
39545	7	Sololá	701	Sololá	1	Sololá	8	Agosto	2023-05-08T00:00:00	2024-11-08T18:00:00	2	Temperatura media	21.9
39546	7	Sololá	701	Sololá	1	Sololá	8	Agosto	2023-05-08T00:00:00	2024-11-08T18:00:00	4	Temperatura máxima	23.9
39547	7	Sololá	701	Sololá	1	Sololá	8	Agosto	2023-05-08T00:00:00	2024-11-08T18:00:00	3	Temperatura mínima	21.9
39548	7	Sololá	701	Sololá	1	Sololá	8	Agosto	2023-05-08T00:00:00	2024-11-08T18:00:00	5	Humedad	59
39549	7	Sololá	701	Sololá	1	Sololá	8	Agosto	2023-05-08T00:00:00	2024-11-08T18:00:00	6	Velocidad del viento	8
39550	7	Sololá	701	Sololá	1	Sololá	8	Agosto	2023-05-08T00:00:00	2024-11-08T18:00:00	7	Dirección del viento	8.05
39551	7	Sololá	701	Sololá	1	Sololá	8	Agosto	2023-05-08T00:00:00	2024-11-08T18:00:00	1	Precipitación	0
39552	7	Sololá	701	Sololá	1	Sololá	8	Agosto	2023-05-08T00:00:00	2024-11-08T18:00:00	8	Radiación solar	1
39553	7	Sololá	701	Sololá	1	Sololá	8	Agosto	2023-05-08T00:00:00	2024-11-08T19:00:00	2	Temperatura media	20.1
39554	7	Sololá	701	Sololá	1	Sololá	8	Agosto	2023-05-08T00:00:00	2024-11-08T19:00:00	4	Temperatura máxima	22
39555	7	Sololá	701	Sololá	1	Sololá	8	Agosto	2023-05-08T00:00:00	2024-11-08T19:00:00	3	Temperatura mínima	20.1
39556	7	Sololá	701	Sololá	1	Sololá	8	Agosto	2023-05-08T00:00:00	2024-11-08T19:00:00	5	Humedad	69
39557	7	Sololá	701	Sololá	1	Sololá	8	Agosto	2023-05-08T00:00:00	2024-11-08T19:00:00	6	Velocidad del viento	4.8
39558	7	Sololá	701	Sololá	1	Sololá	8	Agosto	2023-05-08T00:00:00	2024-11-08T19:00:00	7	Dirección del viento	4.83
39559	7	Sololá	701	Sololá	1	Sololá	8	Agosto	2023-05-08T00:00:00	2024-11-08T19:00:00	1	Precipitación	0
39560	7	Sololá	701	Sololá	1	Sololá	8	Agosto	2023-05-08T00:00:00	2024-11-08T19:00:00	8	Radiación solar	0
39561	7	Sololá	701	Sololá	1	Sololá	8	Agosto	2023-05-08T00:00:00	2024-11-08T20:00:00	2	Temperatura media	18.6
39562	7	Sololá	701	Sololá	1	Sololá	8	Agosto	2023-05-08T00:00:00	2024-11-08T20:00:00	4	Temperatura máxima	20.1
39563	7	Sololá	701	Sololá	1	Sololá	8	Agosto	2023-05-08T00:00:00	2024-11-08T20:00:00	3	Temperatura mínima	18.6
39564	7	Sololá	701	Sololá	1	Sololá	8	Agosto	2023-05-08T00:00:00	2024-11-08T20:00:00	5	Humedad	73
39565	7	Sololá	701	Sololá	1	Sololá	8	Agosto	2023-05-08T00:00:00	2024-11-08T20:00:00	6	Velocidad del viento	8
39566	7	Sololá	701	Sololá	1	Sololá	8	Agosto	2023-05-08T00:00:00	2024-11-08T20:00:00	7	Dirección del viento	8.05
39567	7	Sololá	701	Sololá	1	Sololá	8	Agosto	2023-05-08T00:00:00	2024-11-08T20:00:00	1	Precipitación	0
39568	7	Sololá	701	Sololá	1	Sololá	8	Agosto	2023-05-08T00:00:00	2024-11-08T20:00:00	8	Radiación solar	0
39569	7	Sololá	701	Sololá	1	Sololá	8	Agosto	2023-05-08T00:00:00	2024-11-08T21:00:00	2	Temperatura media	18
39570	7	Sololá	701	Sololá	1	Sololá	8	Agosto	2023-05-08T00:00:00	2024-11-08T21:00:00	4	Temperatura máxima	18.7
39571	7	Sololá	701	Sololá	1	Sololá	8	Agosto	2023-05-08T00:00:00	2024-11-08T21:00:00	3	Temperatura mínima	18
39572	7	Sololá	701	Sololá	1	Sololá	8	Agosto	2023-05-08T00:00:00	2024-11-08T21:00:00	5	Humedad	77
39573	7	Sololá	701	Sololá	1	Sololá	8	Agosto	2023-05-08T00:00:00	2024-11-08T21:00:00	6	Velocidad del viento	17.7
39574	7	Sololá	701	Sololá	1	Sololá	8	Agosto	2023-05-08T00:00:00	2024-11-08T21:00:00	7	Dirección del viento	17.7
39575	7	Sololá	701	Sololá	1	Sololá	8	Agosto	2023-05-08T00:00:00	2024-11-08T21:00:00	1	Precipitación	0
39576	7	Sololá	701	Sololá	1	Sololá	8	Agosto	2023-05-08T00:00:00	2024-11-08T21:00:00	8	Radiación solar	0
39577	7	Sololá	701	Sololá	1	Sololá	8	Agosto	2023-05-08T00:00:00	2024-11-08T22:00:00	2	Temperatura media	17.8
39578	7	Sololá	701	Sololá	1	Sololá	8	Agosto	2023-05-08T00:00:00	2024-11-08T22:00:00	4	Temperatura máxima	18.1
39579	7	Sololá	701	Sololá	1	Sololá	8	Agosto	2023-05-08T00:00:00	2024-11-08T22:00:00	3	Temperatura mínima	17.8
39580	7	Sololá	701	Sololá	1	Sololá	8	Agosto	2023-05-08T00:00:00	2024-11-08T22:00:00	5	Humedad	77
39581	7	Sololá	701	Sololá	1	Sololá	8	Agosto	2023-05-08T00:00:00	2024-11-08T22:00:00	6	Velocidad del viento	16.1
39582	7	Sololá	701	Sololá	1	Sololá	8	Agosto	2023-05-08T00:00:00	2024-11-08T22:00:00	7	Dirección del viento	16.09
39583	7	Sololá	701	Sololá	1	Sololá	8	Agosto	2023-05-08T00:00:00	2024-11-08T22:00:00	1	Precipitación	0
39584	7	Sololá	701	Sololá	1	Sololá	8	Agosto	2023-05-08T00:00:00	2024-11-08T22:00:00	8	Radiación solar	0
39585	7	Sololá	701	Sololá	1	Sololá	8	Agosto	2023-05-08T00:00:00	2024-11-08T23:00:00	2	Temperatura media	17.3
39586	7	Sololá	701	Sololá	1	Sololá	8	Agosto	2023-05-08T00:00:00	2024-11-08T23:00:00	4	Temperatura máxima	17.8
39587	7	Sololá	701	Sololá	1	Sololá	8	Agosto	2023-05-08T00:00:00	2024-11-08T23:00:00	3	Temperatura mínima	17.2
39588	7	Sololá	701	Sololá	1	Sololá	8	Agosto	2023-05-08T00:00:00	2024-11-08T23:00:00	5	Humedad	76
39589	7	Sololá	701	Sololá	1	Sololá	8	Agosto	2023-05-08T00:00:00	2024-11-08T23:00:00	6	Velocidad del viento	17.7
39590	7	Sololá	701	Sololá	1	Sololá	8	Agosto	2023-05-08T00:00:00	2024-11-08T23:00:00	7	Dirección del viento	17.7
39591	7	Sololá	701	Sololá	1	Sololá	8	Agosto	2023-05-08T00:00:00	2024-11-08T23:00:00	1	Precipitación	0
39592	7	Sololá	701	Sololá	1	Sololá	8	Agosto	2023-05-08T00:00:00	2024-11-08T23:00:00	8	Radiación solar	0
39593	7	Sololá	701	Sololá	1	Sololá	8	Agosto	2023-06-08T00:00:00	2024-11-08T00:00:00	2	Temperatura media	16.3
39594	7	Sololá	701	Sololá	1	Sololá	8	Agosto	2023-06-08T00:00:00	2024-11-08T00:00:00	4	Temperatura máxima	17.3
39595	7	Sololá	701	Sololá	1	Sololá	8	Agosto	2023-06-08T00:00:00	2024-11-08T00:00:00	3	Temperatura mínima	16.3
39596	7	Sololá	701	Sololá	1	Sololá	8	Agosto	2023-06-08T00:00:00	2024-11-08T00:00:00	5	Humedad	80
39597	7	Sololá	701	Sololá	1	Sololá	8	Agosto	2023-06-08T00:00:00	2024-11-08T00:00:00	6	Velocidad del viento	6.4
39598	7	Sololá	701	Sololá	1	Sololá	8	Agosto	2023-06-08T00:00:00	2024-11-08T00:00:00	7	Dirección del viento	6.44
39599	7	Sololá	701	Sololá	1	Sololá	8	Agosto	2023-06-08T00:00:00	2024-11-08T00:00:00	1	Precipitación	0
39600	7	Sololá	701	Sololá	1	Sololá	8	Agosto	2023-06-08T00:00:00	2024-11-08T00:00:00	8	Radiación solar	0
39601	7	Sololá	701	Sololá	1	Sololá	8	Agosto	2023-06-08T00:00:00	2024-11-08T01:00:00	2	Temperatura media	16.3
39602	7	Sololá	701	Sololá	1	Sololá	8	Agosto	2023-06-08T00:00:00	2024-11-08T01:00:00	4	Temperatura máxima	16.5
39603	7	Sololá	701	Sololá	1	Sololá	8	Agosto	2023-06-08T00:00:00	2024-11-08T01:00:00	3	Temperatura mínima	16.1
39604	7	Sololá	701	Sololá	1	Sololá	8	Agosto	2023-06-08T00:00:00	2024-11-08T01:00:00	5	Humedad	76
39605	7	Sololá	701	Sololá	1	Sololá	8	Agosto	2023-06-08T00:00:00	2024-11-08T01:00:00	6	Velocidad del viento	4.8
39606	7	Sololá	701	Sololá	1	Sololá	8	Agosto	2023-06-08T00:00:00	2024-11-08T01:00:00	7	Dirección del viento	4.83
39607	7	Sololá	701	Sololá	1	Sololá	8	Agosto	2023-06-08T00:00:00	2024-11-08T01:00:00	1	Precipitación	0
39608	7	Sololá	701	Sololá	1	Sololá	8	Agosto	2023-06-08T00:00:00	2024-11-08T01:00:00	8	Radiación solar	0
39609	7	Sololá	701	Sololá	1	Sololá	8	Agosto	2023-06-08T00:00:00	2024-11-08T02:00:00	2	Temperatura media	15.3
39610	7	Sololá	701	Sololá	1	Sololá	8	Agosto	2023-06-08T00:00:00	2024-11-08T02:00:00	4	Temperatura máxima	16.3
39611	7	Sololá	701	Sololá	1	Sololá	8	Agosto	2023-06-08T00:00:00	2024-11-08T02:00:00	3	Temperatura mínima	15.3
39612	7	Sololá	701	Sololá	1	Sololá	8	Agosto	2023-06-08T00:00:00	2024-11-08T02:00:00	5	Humedad	75
39613	7	Sololá	701	Sololá	1	Sololá	8	Agosto	2023-06-08T00:00:00	2024-11-08T02:00:00	6	Velocidad del viento	9.7
39614	7	Sololá	701	Sololá	1	Sololá	8	Agosto	2023-06-08T00:00:00	2024-11-08T02:00:00	7	Dirección del viento	9.66
39615	7	Sololá	701	Sololá	1	Sololá	8	Agosto	2023-06-08T00:00:00	2024-11-08T02:00:00	1	Precipitación	0
39616	7	Sololá	701	Sololá	1	Sololá	8	Agosto	2023-06-08T00:00:00	2024-11-08T02:00:00	8	Radiación solar	0
39617	7	Sololá	701	Sololá	1	Sololá	8	Agosto	2023-06-08T00:00:00	2024-11-08T03:00:00	2	Temperatura media	14.8
39618	7	Sololá	701	Sololá	1	Sololá	8	Agosto	2023-06-08T00:00:00	2024-11-08T03:00:00	4	Temperatura máxima	16.2
39619	7	Sololá	701	Sololá	1	Sololá	8	Agosto	2023-06-08T00:00:00	2024-11-08T03:00:00	3	Temperatura mínima	14.8
39620	7	Sololá	701	Sololá	1	Sololá	8	Agosto	2023-06-08T00:00:00	2024-11-08T03:00:00	5	Humedad	76
39621	7	Sololá	701	Sololá	1	Sololá	8	Agosto	2023-06-08T00:00:00	2024-11-08T03:00:00	6	Velocidad del viento	8
39622	7	Sololá	701	Sololá	1	Sololá	8	Agosto	2023-06-08T00:00:00	2024-11-08T03:00:00	7	Dirección del viento	8.05
39623	7	Sololá	701	Sololá	1	Sololá	8	Agosto	2023-06-08T00:00:00	2024-11-08T03:00:00	1	Precipitación	0
39624	7	Sololá	701	Sololá	1	Sololá	8	Agosto	2023-06-08T00:00:00	2024-11-08T03:00:00	8	Radiación solar	0
39625	7	Sololá	701	Sololá	1	Sololá	8	Agosto	2023-06-08T00:00:00	2024-11-08T04:00:00	2	Temperatura media	14
39626	7	Sololá	701	Sololá	1	Sololá	8	Agosto	2023-06-08T00:00:00	2024-11-08T04:00:00	4	Temperatura máxima	14.9
39627	7	Sololá	701	Sololá	1	Sololá	8	Agosto	2023-06-08T00:00:00	2024-11-08T04:00:00	3	Temperatura mínima	14
39628	7	Sololá	701	Sololá	1	Sololá	8	Agosto	2023-06-08T00:00:00	2024-11-08T04:00:00	5	Humedad	77
39629	7	Sololá	701	Sololá	1	Sololá	8	Agosto	2023-06-08T00:00:00	2024-11-08T04:00:00	6	Velocidad del viento	8
39630	7	Sololá	701	Sololá	1	Sololá	8	Agosto	2023-06-08T00:00:00	2024-11-08T04:00:00	7	Dirección del viento	8.05
39631	7	Sololá	701	Sololá	1	Sololá	8	Agosto	2023-06-08T00:00:00	2024-11-08T04:00:00	1	Precipitación	0
39632	7	Sololá	701	Sololá	1	Sololá	8	Agosto	2023-06-08T00:00:00	2024-11-08T04:00:00	8	Radiación solar	0
39633	7	Sololá	701	Sololá	1	Sololá	8	Agosto	2023-06-08T00:00:00	2024-11-08T05:00:00	2	Temperatura media	15.9
39634	7	Sololá	701	Sololá	1	Sololá	8	Agosto	2023-06-08T00:00:00	2024-11-08T05:00:00	4	Temperatura máxima	15.9
39635	7	Sololá	701	Sololá	1	Sololá	8	Agosto	2023-06-08T00:00:00	2024-11-08T05:00:00	3	Temperatura mínima	13.7
39636	7	Sololá	701	Sololá	1	Sololá	8	Agosto	2023-06-08T00:00:00	2024-11-08T05:00:00	5	Humedad	74
39637	7	Sololá	701	Sololá	1	Sololá	8	Agosto	2023-06-08T00:00:00	2024-11-08T05:00:00	6	Velocidad del viento	6.4
39638	7	Sololá	701	Sololá	1	Sololá	8	Agosto	2023-06-08T00:00:00	2024-11-08T05:00:00	7	Dirección del viento	6.44
39639	7	Sololá	701	Sololá	1	Sololá	8	Agosto	2023-06-08T00:00:00	2024-11-08T05:00:00	1	Precipitación	0
39640	7	Sololá	701	Sololá	1	Sololá	8	Agosto	2023-06-08T00:00:00	2024-11-08T05:00:00	8	Radiación solar	0
39641	7	Sololá	701	Sololá	1	Sololá	8	Agosto	2023-06-08T00:00:00	2024-11-08T06:00:00	2	Temperatura media	15.7
39642	7	Sololá	701	Sololá	1	Sololá	8	Agosto	2023-06-08T00:00:00	2024-11-08T06:00:00	4	Temperatura máxima	15.9
39643	7	Sololá	701	Sololá	1	Sololá	8	Agosto	2023-06-08T00:00:00	2024-11-08T06:00:00	3	Temperatura mínima	15.4
39644	7	Sololá	701	Sololá	1	Sololá	8	Agosto	2023-06-08T00:00:00	2024-11-08T06:00:00	5	Humedad	75
39645	7	Sololá	701	Sololá	1	Sololá	8	Agosto	2023-06-08T00:00:00	2024-11-08T06:00:00	6	Velocidad del viento	9.7
39646	7	Sololá	701	Sololá	1	Sololá	8	Agosto	2023-06-08T00:00:00	2024-11-08T06:00:00	7	Dirección del viento	9.66
39647	7	Sololá	701	Sololá	1	Sololá	8	Agosto	2023-06-08T00:00:00	2024-11-08T06:00:00	1	Precipitación	0
39648	7	Sololá	701	Sololá	1	Sololá	8	Agosto	2023-06-08T00:00:00	2024-11-08T06:00:00	8	Radiación solar	0
39649	7	Sololá	701	Sololá	1	Sololá	8	Agosto	2023-06-08T00:00:00	2024-11-08T07:00:00	2	Temperatura media	17.6
39650	7	Sololá	701	Sololá	1	Sololá	8	Agosto	2023-06-08T00:00:00	2024-11-08T07:00:00	4	Temperatura máxima	17.6
39651	7	Sololá	701	Sololá	1	Sololá	8	Agosto	2023-06-08T00:00:00	2024-11-08T07:00:00	3	Temperatura mínima	15.6
39652	7	Sololá	701	Sololá	1	Sololá	8	Agosto	2023-06-08T00:00:00	2024-11-08T07:00:00	5	Humedad	70
39653	7	Sololá	701	Sololá	1	Sololá	8	Agosto	2023-06-08T00:00:00	2024-11-08T07:00:00	6	Velocidad del viento	4.8
39654	7	Sololá	701	Sololá	1	Sololá	8	Agosto	2023-06-08T00:00:00	2024-11-08T07:00:00	7	Dirección del viento	4.83
39655	7	Sololá	701	Sololá	1	Sololá	8	Agosto	2023-06-08T00:00:00	2024-11-08T07:00:00	1	Precipitación	0
39656	7	Sololá	701	Sololá	1	Sololá	8	Agosto	2023-06-08T00:00:00	2024-11-08T07:00:00	8	Radiación solar	17
39657	7	Sololá	701	Sololá	1	Sololá	8	Agosto	2023-06-08T00:00:00	2024-11-08T08:00:00	2	Temperatura media	19.7
39658	7	Sololá	701	Sololá	1	Sololá	8	Agosto	2023-06-08T00:00:00	2024-11-08T08:00:00	4	Temperatura máxima	19.7
39659	7	Sololá	701	Sololá	1	Sololá	8	Agosto	2023-06-08T00:00:00	2024-11-08T08:00:00	3	Temperatura mínima	17.6
39660	7	Sololá	701	Sololá	1	Sololá	8	Agosto	2023-06-08T00:00:00	2024-11-08T08:00:00	5	Humedad	65
39661	7	Sololá	701	Sololá	1	Sololá	8	Agosto	2023-06-08T00:00:00	2024-11-08T08:00:00	6	Velocidad del viento	4.8
39662	7	Sololá	701	Sololá	1	Sololá	8	Agosto	2023-06-08T00:00:00	2024-11-08T08:00:00	7	Dirección del viento	4.83
39663	7	Sololá	701	Sololá	1	Sololá	8	Agosto	2023-06-08T00:00:00	2024-11-08T08:00:00	1	Precipitación	0
39664	7	Sololá	701	Sololá	1	Sololá	8	Agosto	2023-06-08T00:00:00	2024-11-08T08:00:00	8	Radiación solar	115
39665	7	Sololá	701	Sololá	1	Sololá	8	Agosto	2023-06-08T00:00:00	2024-11-08T09:00:00	2	Temperatura media	21
39666	7	Sololá	701	Sololá	1	Sololá	8	Agosto	2023-06-08T00:00:00	2024-11-08T09:00:00	4	Temperatura máxima	21.2
39667	7	Sololá	701	Sololá	1	Sololá	8	Agosto	2023-06-08T00:00:00	2024-11-08T09:00:00	3	Temperatura mínima	19.7
39668	7	Sololá	701	Sololá	1	Sololá	8	Agosto	2023-06-08T00:00:00	2024-11-08T09:00:00	5	Humedad	60
39669	7	Sololá	701	Sololá	1	Sololá	8	Agosto	2023-06-08T00:00:00	2024-11-08T09:00:00	6	Velocidad del viento	8
39670	7	Sololá	701	Sololá	1	Sololá	8	Agosto	2023-06-08T00:00:00	2024-11-08T09:00:00	7	Dirección del viento	8.05
39671	7	Sololá	701	Sololá	1	Sololá	8	Agosto	2023-06-08T00:00:00	2024-11-08T09:00:00	1	Precipitación	0
39672	7	Sololá	701	Sololá	1	Sololá	8	Agosto	2023-06-08T00:00:00	2024-11-08T09:00:00	8	Radiación solar	577
39673	7	Sololá	701	Sololá	1	Sololá	8	Agosto	2023-06-08T00:00:00	2024-11-08T10:00:00	2	Temperatura media	21.7
39674	7	Sololá	701	Sololá	1	Sololá	8	Agosto	2023-06-08T00:00:00	2024-11-08T10:00:00	4	Temperatura máxima	21.7
39675	7	Sololá	701	Sololá	1	Sololá	8	Agosto	2023-06-08T00:00:00	2024-11-08T10:00:00	3	Temperatura mínima	20.9
39676	7	Sololá	701	Sololá	1	Sololá	8	Agosto	2023-06-08T00:00:00	2024-11-08T10:00:00	5	Humedad	58
39677	7	Sololá	701	Sololá	1	Sololá	8	Agosto	2023-06-08T00:00:00	2024-11-08T10:00:00	6	Velocidad del viento	14.5
39678	7	Sololá	701	Sololá	1	Sololá	8	Agosto	2023-06-08T00:00:00	2024-11-08T10:00:00	7	Dirección del viento	14.48
39679	7	Sololá	701	Sololá	1	Sololá	8	Agosto	2023-06-08T00:00:00	2024-11-08T10:00:00	1	Precipitación	0
39680	7	Sololá	701	Sololá	1	Sololá	8	Agosto	2023-06-08T00:00:00	2024-11-08T10:00:00	8	Radiación solar	833
39681	7	Sololá	701	Sololá	1	Sololá	8	Agosto	2023-06-08T00:00:00	2024-11-08T11:00:00	2	Temperatura media	22.8
39682	7	Sololá	701	Sololá	1	Sololá	8	Agosto	2023-06-08T00:00:00	2024-11-08T11:00:00	4	Temperatura máxima	23.1
39683	7	Sololá	701	Sololá	1	Sololá	8	Agosto	2023-06-08T00:00:00	2024-11-08T11:00:00	3	Temperatura mínima	21.6
39684	7	Sololá	701	Sololá	1	Sololá	8	Agosto	2023-06-08T00:00:00	2024-11-08T11:00:00	5	Humedad	52
39685	7	Sololá	701	Sololá	1	Sololá	8	Agosto	2023-06-08T00:00:00	2024-11-08T11:00:00	6	Velocidad del viento	12.9
39686	7	Sololá	701	Sololá	1	Sololá	8	Agosto	2023-06-08T00:00:00	2024-11-08T11:00:00	7	Dirección del viento	12.87
39687	7	Sololá	701	Sololá	1	Sololá	8	Agosto	2023-06-08T00:00:00	2024-11-08T11:00:00	1	Precipitación	0
39688	7	Sololá	701	Sololá	1	Sololá	8	Agosto	2023-06-08T00:00:00	2024-11-08T11:00:00	8	Radiación solar	938
39689	7	Sololá	701	Sololá	1	Sololá	8	Agosto	2023-06-08T00:00:00	2024-11-08T12:00:00	2	Temperatura media	23.3
39690	7	Sololá	701	Sololá	1	Sololá	8	Agosto	2023-06-08T00:00:00	2024-11-08T12:00:00	4	Temperatura máxima	24.1
39691	7	Sololá	701	Sololá	1	Sololá	8	Agosto	2023-06-08T00:00:00	2024-11-08T12:00:00	3	Temperatura mínima	22.8
39692	7	Sololá	701	Sololá	1	Sololá	8	Agosto	2023-06-08T00:00:00	2024-11-08T12:00:00	5	Humedad	50
39693	7	Sololá	701	Sololá	1	Sololá	8	Agosto	2023-06-08T00:00:00	2024-11-08T12:00:00	6	Velocidad del viento	12.9
39694	7	Sololá	701	Sololá	1	Sololá	8	Agosto	2023-06-08T00:00:00	2024-11-08T12:00:00	7	Dirección del viento	12.87
39695	7	Sololá	701	Sololá	1	Sololá	8	Agosto	2023-06-08T00:00:00	2024-11-08T12:00:00	1	Precipitación	0
39696	7	Sololá	701	Sololá	1	Sololá	8	Agosto	2023-06-08T00:00:00	2024-11-08T12:00:00	8	Radiación solar	672
39697	7	Sololá	701	Sololá	1	Sololá	8	Agosto	2023-06-08T00:00:00	2024-11-08T13:00:00	2	Temperatura media	24.2
39698	7	Sololá	701	Sololá	1	Sololá	8	Agosto	2023-06-08T00:00:00	2024-11-08T13:00:00	4	Temperatura máxima	24.3
39699	7	Sololá	701	Sololá	1	Sololá	8	Agosto	2023-06-08T00:00:00	2024-11-08T13:00:00	3	Temperatura mínima	23.2
39700	7	Sololá	701	Sololá	1	Sololá	8	Agosto	2023-06-08T00:00:00	2024-11-08T13:00:00	5	Humedad	47
39701	7	Sololá	701	Sololá	1	Sololá	8	Agosto	2023-06-08T00:00:00	2024-11-08T13:00:00	6	Velocidad del viento	9.7
39702	7	Sololá	701	Sololá	1	Sololá	8	Agosto	2023-06-08T00:00:00	2024-11-08T13:00:00	7	Dirección del viento	9.66
39703	7	Sololá	701	Sololá	1	Sololá	8	Agosto	2023-06-08T00:00:00	2024-11-08T13:00:00	1	Precipitación	0
39704	7	Sololá	701	Sololá	1	Sololá	8	Agosto	2023-06-08T00:00:00	2024-11-08T13:00:00	8	Radiación solar	136
39705	7	Sololá	701	Sololá	1	Sololá	8	Agosto	2023-06-08T00:00:00	2024-11-08T14:00:00	2	Temperatura media	24.1
39706	7	Sololá	701	Sololá	1	Sololá	8	Agosto	2023-06-08T00:00:00	2024-11-08T14:00:00	4	Temperatura máxima	25
39707	7	Sololá	701	Sololá	1	Sololá	8	Agosto	2023-06-08T00:00:00	2024-11-08T14:00:00	3	Temperatura mínima	24
39708	7	Sololá	701	Sololá	1	Sololá	8	Agosto	2023-06-08T00:00:00	2024-11-08T14:00:00	5	Humedad	65
39709	7	Sololá	701	Sololá	1	Sololá	8	Agosto	2023-06-08T00:00:00	2024-11-08T14:00:00	6	Velocidad del viento	8
39710	7	Sololá	701	Sololá	1	Sololá	8	Agosto	2023-06-08T00:00:00	2024-11-08T14:00:00	7	Dirección del viento	8.05
39711	7	Sololá	701	Sololá	1	Sololá	8	Agosto	2023-06-08T00:00:00	2024-11-08T14:00:00	1	Precipitación	0
39712	7	Sololá	701	Sololá	1	Sololá	8	Agosto	2023-06-08T00:00:00	2024-11-08T14:00:00	8	Radiación solar	192
39713	7	Sololá	701	Sololá	1	Sololá	8	Agosto	2023-06-08T00:00:00	2024-11-08T15:00:00	2	Temperatura media	22.4
39714	7	Sololá	701	Sololá	1	Sololá	8	Agosto	2023-06-08T00:00:00	2024-11-08T15:00:00	4	Temperatura máxima	24.1
39715	7	Sololá	701	Sololá	1	Sololá	8	Agosto	2023-06-08T00:00:00	2024-11-08T15:00:00	3	Temperatura mínima	22.4
39716	7	Sololá	701	Sololá	1	Sololá	8	Agosto	2023-06-08T00:00:00	2024-11-08T15:00:00	5	Humedad	72
39717	7	Sololá	701	Sololá	1	Sololá	8	Agosto	2023-06-08T00:00:00	2024-11-08T15:00:00	6	Velocidad del viento	6.4
39718	7	Sololá	701	Sololá	1	Sololá	8	Agosto	2023-06-08T00:00:00	2024-11-08T15:00:00	7	Dirección del viento	6.44
39719	7	Sololá	701	Sololá	1	Sololá	8	Agosto	2023-06-08T00:00:00	2024-11-08T15:00:00	1	Precipitación	0
39720	7	Sololá	701	Sololá	1	Sololá	8	Agosto	2023-06-08T00:00:00	2024-11-08T15:00:00	8	Radiación solar	293
39721	7	Sololá	701	Sololá	1	Sololá	8	Agosto	2023-06-08T00:00:00	2024-11-08T16:00:00	2	Temperatura media	22.3
39722	7	Sololá	701	Sololá	1	Sololá	8	Agosto	2023-06-08T00:00:00	2024-11-08T16:00:00	4	Temperatura máxima	22.6
39723	7	Sololá	701	Sololá	1	Sololá	8	Agosto	2023-06-08T00:00:00	2024-11-08T16:00:00	3	Temperatura mínima	21.9
39724	7	Sololá	701	Sololá	1	Sololá	8	Agosto	2023-06-08T00:00:00	2024-11-08T16:00:00	5	Humedad	73
39725	7	Sololá	701	Sololá	1	Sololá	8	Agosto	2023-06-08T00:00:00	2024-11-08T16:00:00	6	Velocidad del viento	3.2
39726	7	Sololá	701	Sololá	1	Sololá	8	Agosto	2023-06-08T00:00:00	2024-11-08T16:00:00	7	Dirección del viento	3.22
39727	7	Sololá	701	Sololá	1	Sololá	8	Agosto	2023-06-08T00:00:00	2024-11-08T16:00:00	1	Precipitación	0
39728	7	Sololá	701	Sololá	1	Sololá	8	Agosto	2023-06-08T00:00:00	2024-11-08T16:00:00	8	Radiación solar	172
39729	7	Sololá	701	Sololá	1	Sololá	8	Agosto	2023-06-08T00:00:00	2024-11-08T17:00:00	2	Temperatura media	21.2
39730	7	Sololá	701	Sololá	1	Sololá	8	Agosto	2023-06-08T00:00:00	2024-11-08T17:00:00	4	Temperatura máxima	22.3
39731	7	Sololá	701	Sololá	1	Sololá	8	Agosto	2023-06-08T00:00:00	2024-11-08T17:00:00	3	Temperatura mínima	20.7
39732	7	Sololá	701	Sololá	1	Sololá	8	Agosto	2023-06-08T00:00:00	2024-11-08T17:00:00	5	Humedad	80
39733	7	Sololá	701	Sololá	1	Sololá	8	Agosto	2023-06-08T00:00:00	2024-11-08T17:00:00	6	Velocidad del viento	3.2
39734	7	Sololá	701	Sololá	1	Sololá	8	Agosto	2023-06-08T00:00:00	2024-11-08T17:00:00	7	Dirección del viento	3.22
39735	7	Sololá	701	Sololá	1	Sololá	8	Agosto	2023-06-08T00:00:00	2024-11-08T17:00:00	1	Precipitación	0
39736	7	Sololá	701	Sololá	1	Sololá	8	Agosto	2023-06-08T00:00:00	2024-11-08T17:00:00	8	Radiación solar	66
39737	7	Sololá	701	Sololá	1	Sololá	8	Agosto	2023-06-08T00:00:00	2024-11-08T18:00:00	2	Temperatura media	20.3
39738	7	Sololá	701	Sololá	1	Sololá	8	Agosto	2023-06-08T00:00:00	2024-11-08T18:00:00	4	Temperatura máxima	21.2
39739	7	Sololá	701	Sololá	1	Sololá	8	Agosto	2023-06-08T00:00:00	2024-11-08T18:00:00	3	Temperatura mínima	20.2
39740	7	Sololá	701	Sololá	1	Sololá	8	Agosto	2023-06-08T00:00:00	2024-11-08T18:00:00	5	Humedad	71
39741	7	Sololá	701	Sololá	1	Sololá	8	Agosto	2023-06-08T00:00:00	2024-11-08T18:00:00	6	Velocidad del viento	6.4
39742	7	Sololá	701	Sololá	1	Sololá	8	Agosto	2023-06-08T00:00:00	2024-11-08T18:00:00	7	Dirección del viento	6.44
39743	7	Sololá	701	Sololá	1	Sololá	8	Agosto	2023-06-08T00:00:00	2024-11-08T18:00:00	1	Precipitación	0
39744	7	Sololá	701	Sololá	1	Sololá	8	Agosto	2023-06-08T00:00:00	2024-11-08T18:00:00	8	Radiación solar	2
39745	7	Sololá	701	Sololá	1	Sololá	8	Agosto	2023-06-08T00:00:00	2024-11-08T19:00:00	2	Temperatura media	19.3
39746	7	Sololá	701	Sololá	1	Sololá	8	Agosto	2023-06-08T00:00:00	2024-11-08T19:00:00	4	Temperatura máxima	20.3
39747	7	Sololá	701	Sololá	1	Sololá	8	Agosto	2023-06-08T00:00:00	2024-11-08T19:00:00	3	Temperatura mínima	19.3
39748	7	Sololá	701	Sololá	1	Sololá	8	Agosto	2023-06-08T00:00:00	2024-11-08T19:00:00	5	Humedad	76
39749	7	Sololá	701	Sololá	1	Sololá	8	Agosto	2023-06-08T00:00:00	2024-11-08T19:00:00	6	Velocidad del viento	4.8
39750	7	Sololá	701	Sololá	1	Sololá	8	Agosto	2023-06-08T00:00:00	2024-11-08T19:00:00	7	Dirección del viento	4.83
39751	7	Sololá	701	Sololá	1	Sololá	8	Agosto	2023-06-08T00:00:00	2024-11-08T19:00:00	1	Precipitación	0
39752	7	Sololá	701	Sololá	1	Sololá	8	Agosto	2023-06-08T00:00:00	2024-11-08T19:00:00	8	Radiación solar	0
39753	7	Sololá	701	Sololá	1	Sololá	8	Agosto	2023-06-08T00:00:00	2024-11-08T20:00:00	2	Temperatura media	18.8
39754	7	Sololá	701	Sololá	1	Sololá	8	Agosto	2023-06-08T00:00:00	2024-11-08T20:00:00	4	Temperatura máxima	19.3
39755	7	Sololá	701	Sololá	1	Sololá	8	Agosto	2023-06-08T00:00:00	2024-11-08T20:00:00	3	Temperatura mínima	18.8
39756	7	Sololá	701	Sololá	1	Sololá	8	Agosto	2023-06-08T00:00:00	2024-11-08T20:00:00	5	Humedad	77
39757	7	Sololá	701	Sololá	1	Sololá	8	Agosto	2023-06-08T00:00:00	2024-11-08T20:00:00	6	Velocidad del viento	6.4
39758	7	Sololá	701	Sololá	1	Sololá	8	Agosto	2023-06-08T00:00:00	2024-11-08T20:00:00	7	Dirección del viento	6.44
39759	7	Sololá	701	Sololá	1	Sololá	8	Agosto	2023-06-08T00:00:00	2024-11-08T20:00:00	1	Precipitación	0
39760	7	Sololá	701	Sololá	1	Sololá	8	Agosto	2023-06-08T00:00:00	2024-11-08T20:00:00	8	Radiación solar	0
39761	7	Sololá	701	Sololá	1	Sololá	8	Agosto	2023-06-08T00:00:00	2024-11-08T21:00:00	2	Temperatura media	18
39762	7	Sololá	701	Sololá	1	Sololá	8	Agosto	2023-06-08T00:00:00	2024-11-08T21:00:00	4	Temperatura máxima	18.8
39763	7	Sololá	701	Sololá	1	Sololá	8	Agosto	2023-06-08T00:00:00	2024-11-08T21:00:00	3	Temperatura mínima	18
39764	7	Sololá	701	Sololá	1	Sololá	8	Agosto	2023-06-08T00:00:00	2024-11-08T21:00:00	5	Humedad	78
39765	7	Sololá	701	Sololá	1	Sololá	8	Agosto	2023-06-08T00:00:00	2024-11-08T21:00:00	6	Velocidad del viento	9.7
39766	7	Sololá	701	Sololá	1	Sololá	8	Agosto	2023-06-08T00:00:00	2024-11-08T21:00:00	7	Dirección del viento	9.66
39767	7	Sololá	701	Sololá	1	Sololá	8	Agosto	2023-06-08T00:00:00	2024-11-08T21:00:00	1	Precipitación	0
39768	7	Sololá	701	Sololá	1	Sololá	8	Agosto	2023-06-08T00:00:00	2024-11-08T21:00:00	8	Radiación solar	0
39769	7	Sololá	701	Sololá	1	Sololá	8	Agosto	2023-06-08T00:00:00	2024-11-08T22:00:00	2	Temperatura media	17.4
39770	7	Sololá	701	Sololá	1	Sololá	8	Agosto	2023-06-08T00:00:00	2024-11-08T22:00:00	4	Temperatura máxima	18
39771	7	Sololá	701	Sololá	1	Sololá	8	Agosto	2023-06-08T00:00:00	2024-11-08T22:00:00	3	Temperatura mínima	17.4
39772	7	Sololá	701	Sololá	1	Sololá	8	Agosto	2023-06-08T00:00:00	2024-11-08T22:00:00	5	Humedad	78
39773	7	Sololá	701	Sololá	1	Sololá	8	Agosto	2023-06-08T00:00:00	2024-11-08T22:00:00	6	Velocidad del viento	6.4
39774	7	Sololá	701	Sololá	1	Sololá	8	Agosto	2023-06-08T00:00:00	2024-11-08T22:00:00	7	Dirección del viento	6.44
39775	7	Sololá	701	Sololá	1	Sololá	8	Agosto	2023-06-08T00:00:00	2024-11-08T22:00:00	1	Precipitación	0
39776	7	Sololá	701	Sololá	1	Sololá	8	Agosto	2023-06-08T00:00:00	2024-11-08T22:00:00	8	Radiación solar	0
39777	7	Sololá	701	Sololá	1	Sololá	8	Agosto	2023-06-08T00:00:00	2024-11-08T23:00:00	2	Temperatura media	16.9
39778	7	Sololá	701	Sololá	1	Sololá	8	Agosto	2023-06-08T00:00:00	2024-11-08T23:00:00	4	Temperatura máxima	17.4
39779	7	Sololá	701	Sololá	1	Sololá	8	Agosto	2023-06-08T00:00:00	2024-11-08T23:00:00	3	Temperatura mínima	16.9
39780	7	Sololá	701	Sololá	1	Sololá	8	Agosto	2023-06-08T00:00:00	2024-11-08T23:00:00	5	Humedad	78
39781	7	Sololá	701	Sololá	1	Sololá	8	Agosto	2023-06-08T00:00:00	2024-11-08T23:00:00	6	Velocidad del viento	4.8
39782	7	Sololá	701	Sololá	1	Sololá	8	Agosto	2023-06-08T00:00:00	2024-11-08T23:00:00	7	Dirección del viento	4.83
39783	7	Sololá	701	Sololá	1	Sololá	8	Agosto	2023-06-08T00:00:00	2024-11-08T23:00:00	1	Precipitación	0
39784	7	Sololá	701	Sololá	1	Sololá	8	Agosto	2023-06-08T00:00:00	2024-11-08T23:00:00	8	Radiación solar	0
39785	7	Sololá	701	Sololá	1	Sololá	8	Agosto	2023-07-08T00:00:00	2024-11-08T00:00:00	2	Temperatura media	16.4
39786	7	Sololá	701	Sololá	1	Sololá	8	Agosto	2023-07-08T00:00:00	2024-11-08T00:00:00	4	Temperatura máxima	16.9
39787	7	Sololá	701	Sololá	1	Sololá	8	Agosto	2023-07-08T00:00:00	2024-11-08T00:00:00	3	Temperatura mínima	16.3
39788	7	Sololá	701	Sololá	1	Sololá	8	Agosto	2023-07-08T00:00:00	2024-11-08T00:00:00	5	Humedad	80
39789	7	Sololá	701	Sololá	1	Sololá	8	Agosto	2023-07-08T00:00:00	2024-11-08T00:00:00	6	Velocidad del viento	8
39790	7	Sololá	701	Sololá	1	Sololá	8	Agosto	2023-07-08T00:00:00	2024-11-08T00:00:00	7	Dirección del viento	8.05
39791	7	Sololá	701	Sololá	1	Sololá	8	Agosto	2023-07-08T00:00:00	2024-11-08T00:00:00	1	Precipitación	0
39792	7	Sololá	701	Sololá	1	Sololá	8	Agosto	2023-07-08T00:00:00	2024-11-08T00:00:00	8	Radiación solar	0
39793	7	Sololá	701	Sololá	1	Sololá	8	Agosto	2023-07-08T00:00:00	2024-11-08T01:00:00	2	Temperatura media	16.8
39794	7	Sololá	701	Sololá	1	Sololá	8	Agosto	2023-07-08T00:00:00	2024-11-08T01:00:00	4	Temperatura máxima	16.8
39795	7	Sololá	701	Sololá	1	Sololá	8	Agosto	2023-07-08T00:00:00	2024-11-08T01:00:00	3	Temperatura mínima	16.4
39796	7	Sololá	701	Sololá	1	Sololá	8	Agosto	2023-07-08T00:00:00	2024-11-08T01:00:00	5	Humedad	77
39797	7	Sololá	701	Sololá	1	Sololá	8	Agosto	2023-07-08T00:00:00	2024-11-08T01:00:00	6	Velocidad del viento	11.3
39798	7	Sololá	701	Sololá	1	Sololá	8	Agosto	2023-07-08T00:00:00	2024-11-08T01:00:00	7	Dirección del viento	11.27
39799	7	Sololá	701	Sololá	1	Sololá	8	Agosto	2023-07-08T00:00:00	2024-11-08T01:00:00	1	Precipitación	0
39800	7	Sololá	701	Sololá	1	Sololá	8	Agosto	2023-07-08T00:00:00	2024-11-08T01:00:00	8	Radiación solar	0
39801	7	Sololá	701	Sololá	1	Sololá	8	Agosto	2023-07-08T00:00:00	2024-11-08T02:00:00	2	Temperatura media	15.9
39802	7	Sololá	701	Sololá	1	Sololá	8	Agosto	2023-07-08T00:00:00	2024-11-08T02:00:00	4	Temperatura máxima	16.8
39803	7	Sololá	701	Sololá	1	Sololá	8	Agosto	2023-07-08T00:00:00	2024-11-08T02:00:00	3	Temperatura mínima	15.7
39804	7	Sololá	701	Sololá	1	Sololá	8	Agosto	2023-07-08T00:00:00	2024-11-08T02:00:00	5	Humedad	77
39805	7	Sololá	701	Sololá	1	Sololá	8	Agosto	2023-07-08T00:00:00	2024-11-08T02:00:00	6	Velocidad del viento	8
39806	7	Sololá	701	Sololá	1	Sololá	8	Agosto	2023-07-08T00:00:00	2024-11-08T02:00:00	7	Dirección del viento	8.05
39807	7	Sololá	701	Sololá	1	Sololá	8	Agosto	2023-07-08T00:00:00	2024-11-08T02:00:00	1	Precipitación	0
39808	7	Sololá	701	Sololá	1	Sololá	8	Agosto	2023-07-08T00:00:00	2024-11-08T02:00:00	8	Radiación solar	0
39809	7	Sololá	701	Sololá	1	Sololá	8	Agosto	2023-07-08T00:00:00	2024-11-08T03:00:00	2	Temperatura media	16.7
39810	7	Sololá	701	Sololá	1	Sololá	8	Agosto	2023-07-08T00:00:00	2024-11-08T03:00:00	4	Temperatura máxima	17.1
39811	7	Sololá	701	Sololá	1	Sololá	8	Agosto	2023-07-08T00:00:00	2024-11-08T03:00:00	3	Temperatura mínima	15.9
39812	7	Sololá	701	Sololá	1	Sololá	8	Agosto	2023-07-08T00:00:00	2024-11-08T03:00:00	5	Humedad	76
39813	7	Sololá	701	Sololá	1	Sololá	8	Agosto	2023-07-08T00:00:00	2024-11-08T03:00:00	6	Velocidad del viento	8
39814	7	Sololá	701	Sololá	1	Sololá	8	Agosto	2023-07-08T00:00:00	2024-11-08T03:00:00	7	Dirección del viento	8.05
39815	7	Sololá	701	Sololá	1	Sololá	8	Agosto	2023-07-08T00:00:00	2024-11-08T03:00:00	1	Precipitación	0
39816	7	Sololá	701	Sololá	1	Sololá	8	Agosto	2023-07-08T00:00:00	2024-11-08T03:00:00	8	Radiación solar	0
39817	7	Sololá	701	Sololá	1	Sololá	8	Agosto	2023-07-08T00:00:00	2024-11-08T04:00:00	2	Temperatura media	16.1
39818	7	Sololá	701	Sololá	1	Sololá	8	Agosto	2023-07-08T00:00:00	2024-11-08T04:00:00	4	Temperatura máxima	16.6
39819	7	Sololá	701	Sololá	1	Sololá	8	Agosto	2023-07-08T00:00:00	2024-11-08T04:00:00	3	Temperatura mínima	16.1
39820	7	Sololá	701	Sololá	1	Sololá	8	Agosto	2023-07-08T00:00:00	2024-11-08T04:00:00	5	Humedad	78
39821	7	Sololá	701	Sololá	1	Sololá	8	Agosto	2023-07-08T00:00:00	2024-11-08T04:00:00	6	Velocidad del viento	9.7
39822	7	Sololá	701	Sololá	1	Sololá	8	Agosto	2023-07-08T00:00:00	2024-11-08T04:00:00	7	Dirección del viento	9.66
39823	7	Sololá	701	Sololá	1	Sololá	8	Agosto	2023-07-08T00:00:00	2024-11-08T04:00:00	1	Precipitación	0
39824	7	Sololá	701	Sololá	1	Sololá	8	Agosto	2023-07-08T00:00:00	2024-11-08T04:00:00	8	Radiación solar	0
39825	7	Sololá	701	Sololá	1	Sololá	8	Agosto	2023-07-08T00:00:00	2024-11-08T05:00:00	2	Temperatura media	15.9
39826	7	Sololá	701	Sololá	1	Sololá	8	Agosto	2023-07-08T00:00:00	2024-11-08T05:00:00	4	Temperatura máxima	16.1
39827	7	Sololá	701	Sololá	1	Sololá	8	Agosto	2023-07-08T00:00:00	2024-11-08T05:00:00	3	Temperatura mínima	15.8
39828	7	Sololá	701	Sololá	1	Sololá	8	Agosto	2023-07-08T00:00:00	2024-11-08T05:00:00	5	Humedad	81
39829	7	Sololá	701	Sololá	1	Sololá	8	Agosto	2023-07-08T00:00:00	2024-11-08T05:00:00	6	Velocidad del viento	14.5
39830	7	Sololá	701	Sololá	1	Sololá	8	Agosto	2023-07-08T00:00:00	2024-11-08T05:00:00	7	Dirección del viento	14.48
39831	7	Sololá	701	Sololá	1	Sololá	8	Agosto	2023-07-08T00:00:00	2024-11-08T05:00:00	1	Precipitación	0
39832	7	Sololá	701	Sololá	1	Sololá	8	Agosto	2023-07-08T00:00:00	2024-11-08T05:00:00	8	Radiación solar	0
39833	7	Sololá	701	Sololá	1	Sololá	8	Agosto	2023-07-08T00:00:00	2024-11-08T06:00:00	2	Temperatura media	16.1
39834	7	Sololá	701	Sololá	1	Sololá	8	Agosto	2023-07-08T00:00:00	2024-11-08T06:00:00	4	Temperatura máxima	16.1
39835	7	Sololá	701	Sololá	1	Sololá	8	Agosto	2023-07-08T00:00:00	2024-11-08T06:00:00	3	Temperatura mínima	15.9
39836	7	Sololá	701	Sololá	1	Sololá	8	Agosto	2023-07-08T00:00:00	2024-11-08T06:00:00	5	Humedad	82
39837	7	Sololá	701	Sololá	1	Sololá	8	Agosto	2023-07-08T00:00:00	2024-11-08T06:00:00	6	Velocidad del viento	12.9
39838	7	Sololá	701	Sololá	1	Sololá	8	Agosto	2023-07-08T00:00:00	2024-11-08T06:00:00	7	Dirección del viento	12.87
39839	7	Sololá	701	Sololá	1	Sololá	8	Agosto	2023-07-08T00:00:00	2024-11-08T06:00:00	1	Precipitación	0
39840	7	Sololá	701	Sololá	1	Sololá	8	Agosto	2023-07-08T00:00:00	2024-11-08T06:00:00	8	Radiación solar	0
39841	7	Sololá	701	Sololá	1	Sololá	8	Agosto	2023-07-08T00:00:00	2024-11-08T07:00:00	2	Temperatura media	16.5
39842	7	Sololá	701	Sololá	1	Sololá	8	Agosto	2023-07-08T00:00:00	2024-11-08T07:00:00	4	Temperatura máxima	16.6
39843	7	Sololá	701	Sololá	1	Sololá	8	Agosto	2023-07-08T00:00:00	2024-11-08T07:00:00	3	Temperatura mínima	16.1
39844	7	Sololá	701	Sololá	1	Sololá	8	Agosto	2023-07-08T00:00:00	2024-11-08T07:00:00	5	Humedad	79
39845	7	Sololá	701	Sololá	1	Sololá	8	Agosto	2023-07-08T00:00:00	2024-11-08T07:00:00	6	Velocidad del viento	12.9
39846	7	Sololá	701	Sololá	1	Sololá	8	Agosto	2023-07-08T00:00:00	2024-11-08T07:00:00	7	Dirección del viento	12.87
39847	7	Sololá	701	Sololá	1	Sololá	8	Agosto	2023-07-08T00:00:00	2024-11-08T07:00:00	1	Precipitación	0
39848	7	Sololá	701	Sololá	1	Sololá	8	Agosto	2023-07-08T00:00:00	2024-11-08T07:00:00	8	Radiación solar	41
39849	7	Sololá	701	Sololá	1	Sololá	8	Agosto	2023-07-08T00:00:00	2024-11-08T08:00:00	2	Temperatura media	18.4
39850	7	Sololá	701	Sololá	1	Sololá	8	Agosto	2023-07-08T00:00:00	2024-11-08T08:00:00	4	Temperatura máxima	18.4
39851	7	Sololá	701	Sololá	1	Sololá	8	Agosto	2023-07-08T00:00:00	2024-11-08T08:00:00	3	Temperatura mínima	16.5
39852	7	Sololá	701	Sololá	1	Sololá	8	Agosto	2023-07-08T00:00:00	2024-11-08T08:00:00	5	Humedad	72
39853	7	Sololá	701	Sololá	1	Sololá	8	Agosto	2023-07-08T00:00:00	2024-11-08T08:00:00	6	Velocidad del viento	9.7
39854	7	Sololá	701	Sololá	1	Sololá	8	Agosto	2023-07-08T00:00:00	2024-11-08T08:00:00	7	Dirección del viento	9.66
39855	7	Sololá	701	Sololá	1	Sololá	8	Agosto	2023-07-08T00:00:00	2024-11-08T08:00:00	1	Precipitación	0
39856	7	Sololá	701	Sololá	1	Sololá	8	Agosto	2023-07-08T00:00:00	2024-11-08T08:00:00	8	Radiación solar	141
39857	7	Sololá	701	Sololá	1	Sololá	8	Agosto	2023-07-08T00:00:00	2024-11-08T09:00:00	2	Temperatura media	19.4
39858	7	Sololá	701	Sololá	1	Sololá	8	Agosto	2023-07-08T00:00:00	2024-11-08T09:00:00	4	Temperatura máxima	19.6
39859	7	Sololá	701	Sololá	1	Sololá	8	Agosto	2023-07-08T00:00:00	2024-11-08T09:00:00	3	Temperatura mínima	18.4
39860	7	Sololá	701	Sololá	1	Sololá	8	Agosto	2023-07-08T00:00:00	2024-11-08T09:00:00	5	Humedad	66
39861	7	Sololá	701	Sololá	1	Sololá	8	Agosto	2023-07-08T00:00:00	2024-11-08T09:00:00	6	Velocidad del viento	14.5
39862	7	Sololá	701	Sololá	1	Sololá	8	Agosto	2023-07-08T00:00:00	2024-11-08T09:00:00	7	Dirección del viento	14.48
39863	7	Sololá	701	Sololá	1	Sololá	8	Agosto	2023-07-08T00:00:00	2024-11-08T09:00:00	1	Precipitación	0
39864	7	Sololá	701	Sololá	1	Sololá	8	Agosto	2023-07-08T00:00:00	2024-11-08T09:00:00	8	Radiación solar	271
39865	7	Sololá	701	Sololá	1	Sololá	8	Agosto	2023-07-08T00:00:00	2024-11-08T10:00:00	2	Temperatura media	20.5
39866	7	Sololá	701	Sololá	1	Sololá	8	Agosto	2023-07-08T00:00:00	2024-11-08T10:00:00	4	Temperatura máxima	20.5
39867	7	Sololá	701	Sololá	1	Sololá	8	Agosto	2023-07-08T00:00:00	2024-11-08T10:00:00	3	Temperatura mínima	19.3
39868	7	Sololá	701	Sololá	1	Sololá	8	Agosto	2023-07-08T00:00:00	2024-11-08T10:00:00	5	Humedad	65
39869	7	Sololá	701	Sololá	1	Sololá	8	Agosto	2023-07-08T00:00:00	2024-11-08T10:00:00	6	Velocidad del viento	16.1
39870	7	Sololá	701	Sololá	1	Sololá	8	Agosto	2023-07-08T00:00:00	2024-11-08T10:00:00	7	Dirección del viento	16.09
39871	7	Sololá	701	Sololá	1	Sololá	8	Agosto	2023-07-08T00:00:00	2024-11-08T10:00:00	1	Precipitación	0
39872	7	Sololá	701	Sololá	1	Sololá	8	Agosto	2023-07-08T00:00:00	2024-11-08T10:00:00	8	Radiación solar	843
39873	7	Sololá	701	Sololá	1	Sololá	8	Agosto	2023-07-08T00:00:00	2024-11-08T11:00:00	2	Temperatura media	21.6
39874	7	Sololá	701	Sololá	1	Sololá	8	Agosto	2023-07-08T00:00:00	2024-11-08T11:00:00	4	Temperatura máxima	21.6
39875	7	Sololá	701	Sololá	1	Sololá	8	Agosto	2023-07-08T00:00:00	2024-11-08T11:00:00	3	Temperatura mínima	20.5
39876	7	Sololá	701	Sololá	1	Sololá	8	Agosto	2023-07-08T00:00:00	2024-11-08T11:00:00	5	Humedad	65
39877	7	Sololá	701	Sololá	1	Sololá	8	Agosto	2023-07-08T00:00:00	2024-11-08T11:00:00	6	Velocidad del viento	16.1
39878	7	Sololá	701	Sololá	1	Sololá	8	Agosto	2023-07-08T00:00:00	2024-11-08T11:00:00	7	Dirección del viento	16.09
39879	7	Sololá	701	Sololá	1	Sololá	8	Agosto	2023-07-08T00:00:00	2024-11-08T11:00:00	1	Precipitación	0
39880	7	Sololá	701	Sololá	1	Sololá	8	Agosto	2023-07-08T00:00:00	2024-11-08T11:00:00	8	Radiación solar	693
39881	7	Sololá	701	Sololá	1	Sololá	8	Agosto	2023-07-08T00:00:00	2024-11-08T12:00:00	2	Temperatura media	22.4
39882	7	Sololá	701	Sololá	1	Sololá	8	Agosto	2023-07-08T00:00:00	2024-11-08T12:00:00	4	Temperatura máxima	22.6
39883	7	Sololá	701	Sololá	1	Sololá	8	Agosto	2023-07-08T00:00:00	2024-11-08T12:00:00	3	Temperatura mínima	21.7
39884	7	Sololá	701	Sololá	1	Sololá	8	Agosto	2023-07-08T00:00:00	2024-11-08T12:00:00	5	Humedad	59
39885	7	Sololá	701	Sololá	1	Sololá	8	Agosto	2023-07-08T00:00:00	2024-11-08T12:00:00	6	Velocidad del viento	12.9
39886	7	Sololá	701	Sololá	1	Sololá	8	Agosto	2023-07-08T00:00:00	2024-11-08T12:00:00	7	Dirección del viento	12.87
39887	7	Sololá	701	Sololá	1	Sololá	8	Agosto	2023-07-08T00:00:00	2024-11-08T12:00:00	1	Precipitación	0
39888	7	Sololá	701	Sololá	1	Sololá	8	Agosto	2023-07-08T00:00:00	2024-11-08T12:00:00	8	Radiación solar	403
39889	7	Sololá	701	Sololá	1	Sololá	8	Agosto	2023-07-08T00:00:00	2024-11-08T13:00:00	2	Temperatura media	23.5
39890	7	Sololá	701	Sololá	1	Sololá	8	Agosto	2023-07-08T00:00:00	2024-11-08T13:00:00	4	Temperatura máxima	23.7
39891	7	Sololá	701	Sololá	1	Sololá	8	Agosto	2023-07-08T00:00:00	2024-11-08T13:00:00	3	Temperatura mínima	22.4
39892	7	Sololá	701	Sololá	1	Sololá	8	Agosto	2023-07-08T00:00:00	2024-11-08T13:00:00	5	Humedad	56
39893	7	Sololá	701	Sololá	1	Sololá	8	Agosto	2023-07-08T00:00:00	2024-11-08T13:00:00	6	Velocidad del viento	11.3
39894	7	Sololá	701	Sololá	1	Sololá	8	Agosto	2023-07-08T00:00:00	2024-11-08T13:00:00	7	Dirección del viento	11.27
39895	7	Sololá	701	Sololá	1	Sololá	8	Agosto	2023-07-08T00:00:00	2024-11-08T13:00:00	1	Precipitación	0
39896	7	Sololá	701	Sololá	1	Sololá	8	Agosto	2023-07-08T00:00:00	2024-11-08T13:00:00	8	Radiación solar	332
39897	7	Sololá	701	Sololá	1	Sololá	8	Agosto	2023-07-08T00:00:00	2024-11-08T14:00:00	2	Temperatura media	23
39898	7	Sololá	701	Sololá	1	Sololá	8	Agosto	2023-07-08T00:00:00	2024-11-08T14:00:00	4	Temperatura máxima	23.9
39899	7	Sololá	701	Sololá	1	Sololá	8	Agosto	2023-07-08T00:00:00	2024-11-08T14:00:00	3	Temperatura mínima	22.6
39900	7	Sololá	701	Sololá	1	Sololá	8	Agosto	2023-07-08T00:00:00	2024-11-08T14:00:00	5	Humedad	58
39901	7	Sololá	701	Sololá	1	Sololá	8	Agosto	2023-07-08T00:00:00	2024-11-08T14:00:00	6	Velocidad del viento	9.7
39902	7	Sololá	701	Sololá	1	Sololá	8	Agosto	2023-07-08T00:00:00	2024-11-08T14:00:00	7	Dirección del viento	9.66
39903	7	Sololá	701	Sololá	1	Sololá	8	Agosto	2023-07-08T00:00:00	2024-11-08T14:00:00	1	Precipitación	0
39904	7	Sololá	701	Sololá	1	Sololá	8	Agosto	2023-07-08T00:00:00	2024-11-08T14:00:00	8	Radiación solar	174
39905	7	Sololá	701	Sololá	1	Sololá	8	Agosto	2023-07-08T00:00:00	2024-11-08T15:00:00	2	Temperatura media	23.8
39906	7	Sololá	701	Sololá	1	Sololá	8	Agosto	2023-07-08T00:00:00	2024-11-08T15:00:00	4	Temperatura máxima	23.8
39907	7	Sololá	701	Sololá	1	Sololá	8	Agosto	2023-07-08T00:00:00	2024-11-08T15:00:00	3	Temperatura mínima	21.9
39908	7	Sololá	701	Sololá	1	Sololá	8	Agosto	2023-07-08T00:00:00	2024-11-08T15:00:00	5	Humedad	57
39909	7	Sololá	701	Sololá	1	Sololá	8	Agosto	2023-07-08T00:00:00	2024-11-08T15:00:00	6	Velocidad del viento	9.7
39910	7	Sololá	701	Sololá	1	Sololá	8	Agosto	2023-07-08T00:00:00	2024-11-08T15:00:00	7	Dirección del viento	9.66
39911	7	Sololá	701	Sololá	1	Sololá	8	Agosto	2023-07-08T00:00:00	2024-11-08T15:00:00	1	Precipitación	0
39912	7	Sololá	701	Sololá	1	Sololá	8	Agosto	2023-07-08T00:00:00	2024-11-08T15:00:00	8	Radiación solar	69
39913	7	Sololá	701	Sololá	1	Sololá	8	Agosto	2023-07-08T00:00:00	2024-11-08T16:00:00	2	Temperatura media	23.4
39914	7	Sololá	701	Sololá	1	Sololá	8	Agosto	2023-07-08T00:00:00	2024-11-08T16:00:00	4	Temperatura máxima	23.8
39915	7	Sololá	701	Sololá	1	Sololá	8	Agosto	2023-07-08T00:00:00	2024-11-08T16:00:00	3	Temperatura mínima	23.4
39916	7	Sololá	701	Sololá	1	Sololá	8	Agosto	2023-07-08T00:00:00	2024-11-08T16:00:00	5	Humedad	56
39917	7	Sololá	701	Sololá	1	Sololá	8	Agosto	2023-07-08T00:00:00	2024-11-08T16:00:00	6	Velocidad del viento	8
39918	7	Sololá	701	Sololá	1	Sololá	8	Agosto	2023-07-08T00:00:00	2024-11-08T16:00:00	7	Dirección del viento	8.05
39919	7	Sololá	701	Sololá	1	Sololá	8	Agosto	2023-07-08T00:00:00	2024-11-08T16:00:00	1	Precipitación	0
39920	7	Sololá	701	Sololá	1	Sololá	8	Agosto	2023-07-08T00:00:00	2024-11-08T16:00:00	8	Radiación solar	61
39921	7	Sololá	701	Sololá	1	Sololá	8	Agosto	2023-07-08T00:00:00	2024-11-08T17:00:00	2	Temperatura media	20.6
39922	7	Sololá	701	Sololá	1	Sololá	8	Agosto	2023-07-08T00:00:00	2024-11-08T17:00:00	4	Temperatura máxima	23.6
39923	7	Sololá	701	Sololá	1	Sololá	8	Agosto	2023-07-08T00:00:00	2024-11-08T17:00:00	3	Temperatura mínima	20.6
39924	7	Sololá	701	Sololá	1	Sololá	8	Agosto	2023-07-08T00:00:00	2024-11-08T17:00:00	5	Humedad	76
39925	7	Sololá	701	Sololá	1	Sololá	8	Agosto	2023-07-08T00:00:00	2024-11-08T17:00:00	6	Velocidad del viento	6.4
39926	7	Sololá	701	Sololá	1	Sololá	8	Agosto	2023-07-08T00:00:00	2024-11-08T17:00:00	7	Dirección del viento	6.44
39927	7	Sololá	701	Sololá	1	Sololá	8	Agosto	2023-07-08T00:00:00	2024-11-08T17:00:00	1	Precipitación	0
39928	7	Sololá	701	Sololá	1	Sololá	8	Agosto	2023-07-08T00:00:00	2024-11-08T17:00:00	8	Radiación solar	40
39929	7	Sololá	701	Sololá	1	Sololá	8	Agosto	2023-07-08T00:00:00	2024-11-08T18:00:00	2	Temperatura media	21.6
39930	7	Sololá	701	Sololá	1	Sololá	8	Agosto	2023-07-08T00:00:00	2024-11-08T18:00:00	4	Temperatura máxima	22.6
39931	7	Sololá	701	Sololá	1	Sololá	8	Agosto	2023-07-08T00:00:00	2024-11-08T18:00:00	3	Temperatura mínima	20.6
39932	7	Sololá	701	Sololá	1	Sololá	8	Agosto	2023-07-08T00:00:00	2024-11-08T18:00:00	5	Humedad	70
39933	7	Sololá	701	Sololá	1	Sololá	8	Agosto	2023-07-08T00:00:00	2024-11-08T18:00:00	6	Velocidad del viento	1.6
39934	7	Sololá	701	Sololá	1	Sololá	8	Agosto	2023-07-08T00:00:00	2024-11-08T18:00:00	7	Dirección del viento	1.61
39935	7	Sololá	701	Sololá	1	Sololá	8	Agosto	2023-07-08T00:00:00	2024-11-08T18:00:00	1	Precipitación	0
39936	7	Sololá	701	Sololá	1	Sololá	8	Agosto	2023-07-08T00:00:00	2024-11-08T18:00:00	8	Radiación solar	8
39937	7	Sololá	701	Sololá	1	Sololá	8	Agosto	2023-07-08T00:00:00	2024-11-08T19:00:00	2	Temperatura media	19.8
39938	7	Sololá	701	Sololá	1	Sololá	8	Agosto	2023-07-08T00:00:00	2024-11-08T19:00:00	4	Temperatura máxima	21.6
39939	7	Sololá	701	Sololá	1	Sololá	8	Agosto	2023-07-08T00:00:00	2024-11-08T19:00:00	3	Temperatura mínima	19.8
39940	7	Sololá	701	Sololá	1	Sololá	8	Agosto	2023-07-08T00:00:00	2024-11-08T19:00:00	5	Humedad	73
39941	7	Sololá	701	Sololá	1	Sololá	8	Agosto	2023-07-08T00:00:00	2024-11-08T19:00:00	6	Velocidad del viento	1.6
39942	7	Sololá	701	Sololá	1	Sololá	8	Agosto	2023-07-08T00:00:00	2024-11-08T19:00:00	7	Dirección del viento	1.61
39943	7	Sololá	701	Sololá	1	Sololá	8	Agosto	2023-07-08T00:00:00	2024-11-08T19:00:00	1	Precipitación	0
39944	7	Sololá	701	Sololá	1	Sololá	8	Agosto	2023-07-08T00:00:00	2024-11-08T19:00:00	8	Radiación solar	0
39945	7	Sololá	701	Sololá	1	Sololá	8	Agosto	2023-07-08T00:00:00	2024-11-08T20:00:00	2	Temperatura media	18.7
39946	7	Sololá	701	Sololá	1	Sololá	8	Agosto	2023-07-08T00:00:00	2024-11-08T20:00:00	4	Temperatura máxima	19.8
39947	7	Sololá	701	Sololá	1	Sololá	8	Agosto	2023-07-08T00:00:00	2024-11-08T20:00:00	3	Temperatura mínima	18.7
39948	7	Sololá	701	Sololá	1	Sololá	8	Agosto	2023-07-08T00:00:00	2024-11-08T20:00:00	5	Humedad	78
39949	7	Sololá	701	Sololá	1	Sololá	8	Agosto	2023-07-08T00:00:00	2024-11-08T20:00:00	6	Velocidad del viento	8
39950	7	Sololá	701	Sololá	1	Sololá	8	Agosto	2023-07-08T00:00:00	2024-11-08T20:00:00	7	Dirección del viento	8.05
39951	7	Sololá	701	Sololá	1	Sololá	8	Agosto	2023-07-08T00:00:00	2024-11-08T20:00:00	1	Precipitación	0
39952	7	Sololá	701	Sololá	1	Sololá	8	Agosto	2023-07-08T00:00:00	2024-11-08T20:00:00	8	Radiación solar	0
39953	7	Sololá	701	Sololá	1	Sololá	8	Agosto	2023-07-08T00:00:00	2024-11-08T21:00:00	2	Temperatura media	18.4
39954	7	Sololá	701	Sololá	1	Sololá	8	Agosto	2023-07-08T00:00:00	2024-11-08T21:00:00	4	Temperatura máxima	18.8
39955	7	Sololá	701	Sololá	1	Sololá	8	Agosto	2023-07-08T00:00:00	2024-11-08T21:00:00	3	Temperatura mínima	18.4
39956	7	Sololá	701	Sololá	1	Sololá	8	Agosto	2023-07-08T00:00:00	2024-11-08T21:00:00	5	Humedad	78
39957	7	Sololá	701	Sololá	1	Sololá	8	Agosto	2023-07-08T00:00:00	2024-11-08T21:00:00	6	Velocidad del viento	9.7
39958	7	Sololá	701	Sololá	1	Sololá	8	Agosto	2023-07-08T00:00:00	2024-11-08T21:00:00	7	Dirección del viento	9.66
39959	7	Sololá	701	Sololá	1	Sololá	8	Agosto	2023-07-08T00:00:00	2024-11-08T21:00:00	1	Precipitación	0
39960	7	Sololá	701	Sololá	1	Sololá	8	Agosto	2023-07-08T00:00:00	2024-11-08T21:00:00	8	Radiación solar	0
39961	7	Sololá	701	Sololá	1	Sololá	8	Agosto	2023-07-08T00:00:00	2024-11-08T22:00:00	2	Temperatura media	18.3
39962	7	Sololá	701	Sololá	1	Sololá	8	Agosto	2023-07-08T00:00:00	2024-11-08T22:00:00	4	Temperatura máxima	18.5
39963	7	Sololá	701	Sololá	1	Sololá	8	Agosto	2023-07-08T00:00:00	2024-11-08T22:00:00	3	Temperatura mínima	18.2
39964	7	Sololá	701	Sololá	1	Sololá	8	Agosto	2023-07-08T00:00:00	2024-11-08T22:00:00	5	Humedad	79
39965	7	Sololá	701	Sololá	1	Sololá	8	Agosto	2023-07-08T00:00:00	2024-11-08T22:00:00	6	Velocidad del viento	8
39966	7	Sololá	701	Sololá	1	Sololá	8	Agosto	2023-07-08T00:00:00	2024-11-08T22:00:00	7	Dirección del viento	8.05
39967	7	Sololá	701	Sololá	1	Sololá	8	Agosto	2023-07-08T00:00:00	2024-11-08T22:00:00	1	Precipitación	0
39968	7	Sololá	701	Sololá	1	Sololá	8	Agosto	2023-07-08T00:00:00	2024-11-08T22:00:00	8	Radiación solar	0
39969	7	Sololá	701	Sololá	1	Sololá	8	Agosto	2023-07-08T00:00:00	2024-11-08T23:00:00	2	Temperatura media	17.8
39970	7	Sololá	701	Sololá	1	Sololá	8	Agosto	2023-07-08T00:00:00	2024-11-08T23:00:00	4	Temperatura máxima	18.3
39971	7	Sololá	701	Sololá	1	Sololá	8	Agosto	2023-07-08T00:00:00	2024-11-08T23:00:00	3	Temperatura mínima	17.8
39972	7	Sololá	701	Sololá	1	Sololá	8	Agosto	2023-07-08T00:00:00	2024-11-08T23:00:00	5	Humedad	79
39973	7	Sololá	701	Sololá	1	Sololá	8	Agosto	2023-07-08T00:00:00	2024-11-08T23:00:00	6	Velocidad del viento	4.8
39974	7	Sololá	701	Sololá	1	Sololá	8	Agosto	2023-07-08T00:00:00	2024-11-08T23:00:00	7	Dirección del viento	4.83
39975	7	Sololá	701	Sololá	1	Sololá	8	Agosto	2023-07-08T00:00:00	2024-11-08T23:00:00	1	Precipitación	0
39976	7	Sololá	701	Sololá	1	Sololá	8	Agosto	2023-07-08T00:00:00	2024-11-08T23:00:00	8	Radiación solar	0
39977	7	Sololá	701	Sololá	1	Sololá	8	Agosto	2023-08-08T00:00:00	2024-11-08T00:00:00	2	Temperatura media	17.3
39978	7	Sololá	701	Sololá	1	Sololá	8	Agosto	2023-08-08T00:00:00	2024-11-08T00:00:00	4	Temperatura máxima	17.8
39979	7	Sololá	701	Sololá	1	Sololá	8	Agosto	2023-08-08T00:00:00	2024-11-08T00:00:00	3	Temperatura mínima	17.3
39980	7	Sololá	701	Sololá	1	Sololá	8	Agosto	2023-08-08T00:00:00	2024-11-08T00:00:00	5	Humedad	81
39981	7	Sololá	701	Sololá	1	Sololá	8	Agosto	2023-08-08T00:00:00	2024-11-08T00:00:00	6	Velocidad del viento	4.8
39982	7	Sololá	701	Sololá	1	Sololá	8	Agosto	2023-08-08T00:00:00	2024-11-08T00:00:00	7	Dirección del viento	4.83
39983	7	Sololá	701	Sololá	1	Sololá	8	Agosto	2023-08-08T00:00:00	2024-11-08T00:00:00	1	Precipitación	0
39984	7	Sololá	701	Sololá	1	Sololá	8	Agosto	2023-08-08T00:00:00	2024-11-08T00:00:00	8	Radiación solar	0
39985	7	Sololá	701	Sololá	1	Sololá	8	Agosto	2023-08-08T00:00:00	2024-11-08T01:00:00	2	Temperatura media	17.1
39986	7	Sololá	701	Sololá	1	Sololá	8	Agosto	2023-08-08T00:00:00	2024-11-08T01:00:00	4	Temperatura máxima	17.3
39987	7	Sololá	701	Sololá	1	Sololá	8	Agosto	2023-08-08T00:00:00	2024-11-08T01:00:00	3	Temperatura mínima	16.9
39988	7	Sololá	701	Sololá	1	Sololá	8	Agosto	2023-08-08T00:00:00	2024-11-08T01:00:00	5	Humedad	82
39989	7	Sololá	701	Sololá	1	Sololá	8	Agosto	2023-08-08T00:00:00	2024-11-08T01:00:00	6	Velocidad del viento	6.4
39990	7	Sololá	701	Sololá	1	Sololá	8	Agosto	2023-08-08T00:00:00	2024-11-08T01:00:00	7	Dirección del viento	6.44
39991	7	Sololá	701	Sololá	1	Sololá	8	Agosto	2023-08-08T00:00:00	2024-11-08T01:00:00	1	Precipitación	0
39992	7	Sololá	701	Sololá	1	Sololá	8	Agosto	2023-08-08T00:00:00	2024-11-08T01:00:00	8	Radiación solar	0
39993	7	Sololá	701	Sololá	1	Sololá	8	Agosto	2023-08-08T00:00:00	2024-11-08T02:00:00	2	Temperatura media	17.1
39994	7	Sololá	701	Sololá	1	Sololá	8	Agosto	2023-08-08T00:00:00	2024-11-08T02:00:00	4	Temperatura máxima	17.2
39995	7	Sololá	701	Sololá	1	Sololá	8	Agosto	2023-08-08T00:00:00	2024-11-08T02:00:00	3	Temperatura mínima	17
39996	7	Sololá	701	Sololá	1	Sololá	8	Agosto	2023-08-08T00:00:00	2024-11-08T02:00:00	5	Humedad	81
39997	7	Sololá	701	Sololá	1	Sololá	8	Agosto	2023-08-08T00:00:00	2024-11-08T02:00:00	6	Velocidad del viento	6.4
39998	7	Sololá	701	Sololá	1	Sololá	8	Agosto	2023-08-08T00:00:00	2024-11-08T02:00:00	7	Dirección del viento	6.44
39999	7	Sololá	701	Sololá	1	Sololá	8	Agosto	2023-08-08T00:00:00	2024-11-08T02:00:00	1	Precipitación	0
40000	7	Sololá	701	Sololá	1	Sololá	8	Agosto	2023-08-08T00:00:00	2024-11-08T02:00:00	8	Radiación solar	0
40001	7	Sololá	701	Sololá	1	Sololá	8	Agosto	2023-08-08T00:00:00	2024-11-08T03:00:00	2	Temperatura media	17.3
40002	7	Sololá	701	Sololá	1	Sololá	8	Agosto	2023-08-08T00:00:00	2024-11-08T03:00:00	4	Temperatura máxima	17.3
40003	7	Sololá	701	Sololá	1	Sololá	8	Agosto	2023-08-08T00:00:00	2024-11-08T03:00:00	3	Temperatura mínima	17.1
40004	7	Sololá	701	Sololá	1	Sololá	8	Agosto	2023-08-08T00:00:00	2024-11-08T03:00:00	5	Humedad	78
40005	7	Sololá	701	Sololá	1	Sololá	8	Agosto	2023-08-08T00:00:00	2024-11-08T03:00:00	6	Velocidad del viento	8
40006	7	Sololá	701	Sololá	1	Sololá	8	Agosto	2023-08-08T00:00:00	2024-11-08T03:00:00	7	Dirección del viento	8.05
40007	7	Sololá	701	Sololá	1	Sololá	8	Agosto	2023-08-08T00:00:00	2024-11-08T03:00:00	1	Precipitación	0
40008	7	Sololá	701	Sololá	1	Sololá	8	Agosto	2023-08-08T00:00:00	2024-11-08T03:00:00	8	Radiación solar	0
40009	7	Sololá	701	Sololá	1	Sololá	8	Agosto	2023-08-08T00:00:00	2024-11-08T04:00:00	2	Temperatura media	17.4
40010	7	Sololá	701	Sololá	1	Sololá	8	Agosto	2023-08-08T00:00:00	2024-11-08T04:00:00	4	Temperatura máxima	17.4
40011	7	Sololá	701	Sololá	1	Sololá	8	Agosto	2023-08-08T00:00:00	2024-11-08T04:00:00	3	Temperatura mínima	17.3
40012	7	Sololá	701	Sololá	1	Sololá	8	Agosto	2023-08-08T00:00:00	2024-11-08T04:00:00	5	Humedad	76
40013	7	Sololá	701	Sololá	1	Sololá	8	Agosto	2023-08-08T00:00:00	2024-11-08T04:00:00	6	Velocidad del viento	11.3
40014	7	Sololá	701	Sololá	1	Sololá	8	Agosto	2023-08-08T00:00:00	2024-11-08T04:00:00	7	Dirección del viento	11.27
40015	7	Sololá	701	Sololá	1	Sololá	8	Agosto	2023-08-08T00:00:00	2024-11-08T04:00:00	1	Precipitación	0
40016	7	Sololá	701	Sololá	1	Sololá	8	Agosto	2023-08-08T00:00:00	2024-11-08T04:00:00	8	Radiación solar	0
40017	7	Sololá	701	Sololá	1	Sololá	8	Agosto	2023-08-08T00:00:00	2024-11-08T05:00:00	2	Temperatura media	17.3
40018	7	Sololá	701	Sololá	1	Sololá	8	Agosto	2023-08-08T00:00:00	2024-11-08T05:00:00	4	Temperatura máxima	17.4
40019	7	Sololá	701	Sololá	1	Sololá	8	Agosto	2023-08-08T00:00:00	2024-11-08T05:00:00	3	Temperatura mínima	17.1
40020	7	Sololá	701	Sololá	1	Sololá	8	Agosto	2023-08-08T00:00:00	2024-11-08T05:00:00	5	Humedad	76
40021	7	Sololá	701	Sololá	1	Sololá	8	Agosto	2023-08-08T00:00:00	2024-11-08T05:00:00	6	Velocidad del viento	8
40022	7	Sololá	701	Sololá	1	Sololá	8	Agosto	2023-08-08T00:00:00	2024-11-08T05:00:00	7	Dirección del viento	8.05
40023	7	Sololá	701	Sololá	1	Sololá	8	Agosto	2023-08-08T00:00:00	2024-11-08T05:00:00	1	Precipitación	0
40024	7	Sololá	701	Sololá	1	Sololá	8	Agosto	2023-08-08T00:00:00	2024-11-08T05:00:00	8	Radiación solar	0
40025	7	Sololá	701	Sololá	1	Sololá	8	Agosto	2023-08-08T00:00:00	2024-11-08T06:00:00	2	Temperatura media	16.9
40026	7	Sololá	701	Sololá	1	Sololá	8	Agosto	2023-08-08T00:00:00	2024-11-08T06:00:00	4	Temperatura máxima	17.4
40027	7	Sololá	701	Sololá	1	Sololá	8	Agosto	2023-08-08T00:00:00	2024-11-08T06:00:00	3	Temperatura mínima	16.9
40028	7	Sololá	701	Sololá	1	Sololá	8	Agosto	2023-08-08T00:00:00	2024-11-08T06:00:00	5	Humedad	78
40029	7	Sololá	701	Sololá	1	Sololá	8	Agosto	2023-08-08T00:00:00	2024-11-08T06:00:00	6	Velocidad del viento	12.9
40030	7	Sololá	701	Sololá	1	Sololá	8	Agosto	2023-08-08T00:00:00	2024-11-08T06:00:00	7	Dirección del viento	12.87
40031	7	Sololá	701	Sololá	1	Sololá	8	Agosto	2023-08-08T00:00:00	2024-11-08T06:00:00	1	Precipitación	0
40032	7	Sololá	701	Sololá	1	Sololá	8	Agosto	2023-08-08T00:00:00	2024-11-08T06:00:00	8	Radiación solar	0
40033	7	Sololá	701	Sololá	1	Sololá	8	Agosto	2023-08-08T00:00:00	2024-11-08T07:00:00	2	Temperatura media	17.6
40034	7	Sololá	701	Sololá	1	Sololá	8	Agosto	2023-08-08T00:00:00	2024-11-08T07:00:00	4	Temperatura máxima	17.6
40035	7	Sololá	701	Sololá	1	Sololá	8	Agosto	2023-08-08T00:00:00	2024-11-08T07:00:00	3	Temperatura mínima	16.9
40036	7	Sololá	701	Sololá	1	Sololá	8	Agosto	2023-08-08T00:00:00	2024-11-08T07:00:00	5	Humedad	77
40037	7	Sololá	701	Sololá	1	Sololá	8	Agosto	2023-08-08T00:00:00	2024-11-08T07:00:00	6	Velocidad del viento	19.3
40038	7	Sololá	701	Sololá	1	Sololá	8	Agosto	2023-08-08T00:00:00	2024-11-08T07:00:00	7	Dirección del viento	19.31
40039	7	Sololá	701	Sololá	1	Sololá	8	Agosto	2023-08-08T00:00:00	2024-11-08T07:00:00	1	Precipitación	0
40040	7	Sololá	701	Sololá	1	Sololá	8	Agosto	2023-08-08T00:00:00	2024-11-08T07:00:00	8	Radiación solar	13
40041	7	Sololá	701	Sololá	1	Sololá	8	Agosto	2023-08-08T00:00:00	2024-11-08T08:00:00	2	Temperatura media	18.5
40042	7	Sololá	701	Sololá	1	Sololá	8	Agosto	2023-08-08T00:00:00	2024-11-08T08:00:00	4	Temperatura máxima	18.5
40043	7	Sololá	701	Sololá	1	Sololá	8	Agosto	2023-08-08T00:00:00	2024-11-08T08:00:00	3	Temperatura mínima	17.6
40044	7	Sololá	701	Sololá	1	Sololá	8	Agosto	2023-08-08T00:00:00	2024-11-08T08:00:00	5	Humedad	74
40045	7	Sololá	701	Sololá	1	Sololá	8	Agosto	2023-08-08T00:00:00	2024-11-08T08:00:00	6	Velocidad del viento	20.9
40046	7	Sololá	701	Sololá	1	Sololá	8	Agosto	2023-08-08T00:00:00	2024-11-08T08:00:00	7	Dirección del viento	20.92
40047	7	Sololá	701	Sololá	1	Sololá	8	Agosto	2023-08-08T00:00:00	2024-11-08T08:00:00	1	Precipitación	0
40048	7	Sololá	701	Sololá	1	Sololá	8	Agosto	2023-08-08T00:00:00	2024-11-08T08:00:00	8	Radiación solar	89
40049	7	Sololá	701	Sololá	1	Sololá	8	Agosto	2023-08-08T00:00:00	2024-11-08T09:00:00	2	Temperatura media	20.2
40050	7	Sololá	701	Sololá	1	Sololá	8	Agosto	2023-08-08T00:00:00	2024-11-08T09:00:00	4	Temperatura máxima	20.2
40051	7	Sololá	701	Sololá	1	Sololá	8	Agosto	2023-08-08T00:00:00	2024-11-08T09:00:00	3	Temperatura mínima	18.4
40052	7	Sololá	701	Sololá	1	Sololá	8	Agosto	2023-08-08T00:00:00	2024-11-08T09:00:00	5	Humedad	68
40053	7	Sololá	701	Sololá	1	Sololá	8	Agosto	2023-08-08T00:00:00	2024-11-08T09:00:00	6	Velocidad del viento	19.3
40054	7	Sololá	701	Sololá	1	Sololá	8	Agosto	2023-08-08T00:00:00	2024-11-08T09:00:00	7	Dirección del viento	19.31
40055	7	Sololá	701	Sololá	1	Sololá	8	Agosto	2023-08-08T00:00:00	2024-11-08T09:00:00	1	Precipitación	0
40056	7	Sololá	701	Sololá	1	Sololá	8	Agosto	2023-08-08T00:00:00	2024-11-08T09:00:00	8	Radiación solar	583
40057	7	Sololá	701	Sololá	1	Sololá	8	Agosto	2023-08-08T00:00:00	2024-11-08T10:00:00	2	Temperatura media	22.3
40058	7	Sololá	701	Sololá	1	Sololá	8	Agosto	2023-08-08T00:00:00	2024-11-08T10:00:00	4	Temperatura máxima	22.4
40059	7	Sololá	701	Sololá	1	Sololá	8	Agosto	2023-08-08T00:00:00	2024-11-08T10:00:00	3	Temperatura mínima	20.1
40060	7	Sololá	701	Sololá	1	Sololá	8	Agosto	2023-08-08T00:00:00	2024-11-08T10:00:00	5	Humedad	63
40061	7	Sololá	701	Sololá	1	Sololá	8	Agosto	2023-08-08T00:00:00	2024-11-08T10:00:00	6	Velocidad del viento	11.3
40062	7	Sololá	701	Sololá	1	Sololá	8	Agosto	2023-08-08T00:00:00	2024-11-08T10:00:00	7	Dirección del viento	11.27
40063	7	Sololá	701	Sololá	1	Sololá	8	Agosto	2023-08-08T00:00:00	2024-11-08T10:00:00	1	Precipitación	0
40064	7	Sololá	701	Sololá	1	Sololá	8	Agosto	2023-08-08T00:00:00	2024-11-08T10:00:00	8	Radiación solar	787
40065	7	Sololá	701	Sololá	1	Sololá	8	Agosto	2023-08-08T00:00:00	2024-11-08T11:00:00	2	Temperatura media	21.9
40066	7	Sololá	701	Sololá	1	Sololá	8	Agosto	2023-08-08T00:00:00	2024-11-08T11:00:00	4	Temperatura máxima	22.4
40067	7	Sololá	701	Sololá	1	Sololá	8	Agosto	2023-08-08T00:00:00	2024-11-08T11:00:00	3	Temperatura mínima	21.7
40068	7	Sololá	701	Sololá	1	Sololá	8	Agosto	2023-08-08T00:00:00	2024-11-08T11:00:00	5	Humedad	66
40069	7	Sololá	701	Sololá	1	Sololá	8	Agosto	2023-08-08T00:00:00	2024-11-08T11:00:00	6	Velocidad del viento	12.9
40070	7	Sololá	701	Sololá	1	Sololá	8	Agosto	2023-08-08T00:00:00	2024-11-08T11:00:00	7	Dirección del viento	12.87
40071	7	Sololá	701	Sololá	1	Sololá	8	Agosto	2023-08-08T00:00:00	2024-11-08T11:00:00	1	Precipitación	0
40072	7	Sololá	701	Sololá	1	Sololá	8	Agosto	2023-08-08T00:00:00	2024-11-08T11:00:00	8	Radiación solar	958
40073	7	Sololá	701	Sololá	1	Sololá	8	Agosto	2023-08-08T00:00:00	2024-11-08T12:00:00	2	Temperatura media	23.5
40074	7	Sololá	701	Sololá	1	Sololá	8	Agosto	2023-08-08T00:00:00	2024-11-08T12:00:00	4	Temperatura máxima	23.5
40075	7	Sololá	701	Sololá	1	Sololá	8	Agosto	2023-08-08T00:00:00	2024-11-08T12:00:00	3	Temperatura mínima	22
40076	7	Sololá	701	Sololá	1	Sololá	8	Agosto	2023-08-08T00:00:00	2024-11-08T12:00:00	5	Humedad	58
40077	7	Sololá	701	Sololá	1	Sololá	8	Agosto	2023-08-08T00:00:00	2024-11-08T12:00:00	6	Velocidad del viento	12.9
40078	7	Sololá	701	Sololá	1	Sololá	8	Agosto	2023-08-08T00:00:00	2024-11-08T12:00:00	7	Dirección del viento	12.87
40079	7	Sololá	701	Sololá	1	Sololá	8	Agosto	2023-08-08T00:00:00	2024-11-08T12:00:00	1	Precipitación	0
40080	7	Sololá	701	Sololá	1	Sololá	8	Agosto	2023-08-08T00:00:00	2024-11-08T12:00:00	8	Radiación solar	691
40081	7	Sololá	701	Sololá	1	Sololá	8	Agosto	2023-08-08T00:00:00	2024-11-08T13:00:00	2	Temperatura media	24.1
40082	7	Sololá	701	Sololá	1	Sololá	8	Agosto	2023-08-08T00:00:00	2024-11-08T13:00:00	4	Temperatura máxima	24.2
40083	7	Sololá	701	Sololá	1	Sololá	8	Agosto	2023-08-08T00:00:00	2024-11-08T13:00:00	3	Temperatura mínima	23.4
40084	7	Sololá	701	Sololá	1	Sololá	8	Agosto	2023-08-08T00:00:00	2024-11-08T13:00:00	5	Humedad	56
40085	7	Sololá	701	Sololá	1	Sololá	8	Agosto	2023-08-08T00:00:00	2024-11-08T13:00:00	6	Velocidad del viento	11.3
40086	7	Sololá	701	Sololá	1	Sololá	8	Agosto	2023-08-08T00:00:00	2024-11-08T13:00:00	7	Dirección del viento	11.27
40087	7	Sololá	701	Sololá	1	Sololá	8	Agosto	2023-08-08T00:00:00	2024-11-08T13:00:00	1	Precipitación	0
40088	7	Sololá	701	Sololá	1	Sololá	8	Agosto	2023-08-08T00:00:00	2024-11-08T13:00:00	8	Radiación solar	240
40089	7	Sololá	701	Sololá	1	Sololá	8	Agosto	2023-08-08T00:00:00	2024-11-08T14:00:00	2	Temperatura media	22.6
40090	7	Sololá	701	Sololá	1	Sololá	8	Agosto	2023-08-08T00:00:00	2024-11-08T14:00:00	4	Temperatura máxima	24.8
40091	7	Sololá	701	Sololá	1	Sololá	8	Agosto	2023-08-08T00:00:00	2024-11-08T14:00:00	3	Temperatura mínima	22.4
40092	7	Sololá	701	Sololá	1	Sololá	8	Agosto	2023-08-08T00:00:00	2024-11-08T14:00:00	5	Humedad	73
40093	7	Sololá	701	Sololá	1	Sololá	8	Agosto	2023-08-08T00:00:00	2024-11-08T14:00:00	6	Velocidad del viento	8
40094	7	Sololá	701	Sololá	1	Sololá	8	Agosto	2023-08-08T00:00:00	2024-11-08T14:00:00	7	Dirección del viento	8.05
40095	7	Sololá	701	Sololá	1	Sololá	8	Agosto	2023-08-08T00:00:00	2024-11-08T14:00:00	1	Precipitación	0
40096	7	Sololá	701	Sololá	1	Sololá	8	Agosto	2023-08-08T00:00:00	2024-11-08T14:00:00	8	Radiación solar	209
40097	7	Sololá	701	Sololá	1	Sololá	8	Agosto	2023-08-08T00:00:00	2024-11-08T15:00:00	2	Temperatura media	23.1
40098	7	Sololá	701	Sololá	1	Sololá	8	Agosto	2023-08-08T00:00:00	2024-11-08T15:00:00	4	Temperatura máxima	23.4
40099	7	Sololá	701	Sololá	1	Sololá	8	Agosto	2023-08-08T00:00:00	2024-11-08T15:00:00	3	Temperatura mínima	21.8
40100	7	Sololá	701	Sololá	1	Sololá	8	Agosto	2023-08-08T00:00:00	2024-11-08T15:00:00	5	Humedad	69
40101	7	Sololá	701	Sololá	1	Sololá	8	Agosto	2023-08-08T00:00:00	2024-11-08T15:00:00	6	Velocidad del viento	6.4
40102	7	Sololá	701	Sololá	1	Sololá	8	Agosto	2023-08-08T00:00:00	2024-11-08T15:00:00	7	Dirección del viento	6.44
40103	7	Sololá	701	Sololá	1	Sololá	8	Agosto	2023-08-08T00:00:00	2024-11-08T15:00:00	1	Precipitación	0
40104	7	Sololá	701	Sololá	1	Sololá	8	Agosto	2023-08-08T00:00:00	2024-11-08T15:00:00	8	Radiación solar	124
40105	7	Sololá	701	Sololá	1	Sololá	8	Agosto	2023-08-08T00:00:00	2024-11-08T16:00:00	2	Temperatura media	22.9
40106	7	Sololá	701	Sololá	1	Sololá	8	Agosto	2023-08-08T00:00:00	2024-11-08T16:00:00	4	Temperatura máxima	23.5
40107	7	Sololá	701	Sololá	1	Sololá	8	Agosto	2023-08-08T00:00:00	2024-11-08T16:00:00	3	Temperatura mínima	22.8
40108	7	Sololá	701	Sololá	1	Sololá	8	Agosto	2023-08-08T00:00:00	2024-11-08T16:00:00	5	Humedad	74
40109	7	Sololá	701	Sololá	1	Sololá	8	Agosto	2023-08-08T00:00:00	2024-11-08T16:00:00	6	Velocidad del viento	4.8
40110	7	Sololá	701	Sololá	1	Sololá	8	Agosto	2023-08-08T00:00:00	2024-11-08T16:00:00	7	Dirección del viento	4.83
40111	7	Sololá	701	Sololá	1	Sololá	8	Agosto	2023-08-08T00:00:00	2024-11-08T16:00:00	1	Precipitación	0
40112	7	Sololá	701	Sololá	1	Sololá	8	Agosto	2023-08-08T00:00:00	2024-11-08T16:00:00	8	Radiación solar	116
40113	7	Sololá	701	Sololá	1	Sololá	8	Agosto	2023-08-08T00:00:00	2024-11-08T17:00:00	2	Temperatura media	22.7
40114	7	Sololá	701	Sololá	1	Sololá	8	Agosto	2023-08-08T00:00:00	2024-11-08T17:00:00	4	Temperatura máxima	23
40115	7	Sololá	701	Sololá	1	Sololá	8	Agosto	2023-08-08T00:00:00	2024-11-08T17:00:00	3	Temperatura mínima	21.7
40116	7	Sololá	701	Sololá	1	Sololá	8	Agosto	2023-08-08T00:00:00	2024-11-08T17:00:00	5	Humedad	74
40117	7	Sololá	701	Sololá	1	Sololá	8	Agosto	2023-08-08T00:00:00	2024-11-08T17:00:00	6	Velocidad del viento	4.8
40118	7	Sololá	701	Sololá	1	Sololá	8	Agosto	2023-08-08T00:00:00	2024-11-08T17:00:00	7	Dirección del viento	4.83
40119	7	Sololá	701	Sololá	1	Sololá	8	Agosto	2023-08-08T00:00:00	2024-11-08T17:00:00	1	Precipitación	0
40120	7	Sololá	701	Sololá	1	Sololá	8	Agosto	2023-08-08T00:00:00	2024-11-08T17:00:00	8	Radiación solar	26
40121	7	Sololá	701	Sololá	1	Sololá	8	Agosto	2023-08-08T00:00:00	2024-11-08T18:00:00	2	Temperatura media	19.8
40122	7	Sololá	701	Sololá	1	Sololá	8	Agosto	2023-08-08T00:00:00	2024-11-08T18:00:00	4	Temperatura máxima	22.8
40123	7	Sololá	701	Sololá	1	Sololá	8	Agosto	2023-08-08T00:00:00	2024-11-08T18:00:00	3	Temperatura mínima	19.8
40124	7	Sololá	701	Sololá	1	Sololá	8	Agosto	2023-08-08T00:00:00	2024-11-08T18:00:00	5	Humedad	87
40125	7	Sololá	701	Sololá	1	Sololá	8	Agosto	2023-08-08T00:00:00	2024-11-08T18:00:00	6	Velocidad del viento	4.8
40126	7	Sololá	701	Sololá	1	Sololá	8	Agosto	2023-08-08T00:00:00	2024-11-08T18:00:00	7	Dirección del viento	4.83
40127	7	Sololá	701	Sololá	1	Sololá	8	Agosto	2023-08-08T00:00:00	2024-11-08T18:00:00	1	Precipitación	0
40128	7	Sololá	701	Sololá	1	Sololá	8	Agosto	2023-08-08T00:00:00	2024-11-08T18:00:00	8	Radiación solar	4
40129	7	Sololá	701	Sololá	1	Sololá	8	Agosto	2023-08-08T00:00:00	2024-11-08T19:00:00	2	Temperatura media	17.8
40130	7	Sololá	701	Sololá	1	Sololá	8	Agosto	2023-08-08T00:00:00	2024-11-08T19:00:00	4	Temperatura máxima	19.8
40131	7	Sololá	701	Sololá	1	Sololá	8	Agosto	2023-08-08T00:00:00	2024-11-08T19:00:00	3	Temperatura mínima	17.8
40132	7	Sololá	701	Sololá	1	Sololá	8	Agosto	2023-08-08T00:00:00	2024-11-08T19:00:00	5	Humedad	92
40133	7	Sololá	701	Sololá	1	Sololá	8	Agosto	2023-08-08T00:00:00	2024-11-08T19:00:00	6	Velocidad del viento	3.2
40134	7	Sololá	701	Sololá	1	Sololá	8	Agosto	2023-08-08T00:00:00	2024-11-08T19:00:00	7	Dirección del viento	3.22
40135	7	Sololá	701	Sololá	1	Sololá	8	Agosto	2023-08-08T00:00:00	2024-11-08T19:00:00	1	Precipitación	0
40136	7	Sololá	701	Sololá	1	Sololá	8	Agosto	2023-08-08T00:00:00	2024-11-08T19:00:00	8	Radiación solar	0
40137	7	Sololá	701	Sololá	1	Sololá	8	Agosto	2023-08-08T00:00:00	2024-11-08T20:00:00	2	Temperatura media	17.8
40138	7	Sololá	701	Sololá	1	Sololá	8	Agosto	2023-08-08T00:00:00	2024-11-08T20:00:00	4	Temperatura máxima	18.4
40139	7	Sololá	701	Sololá	1	Sololá	8	Agosto	2023-08-08T00:00:00	2024-11-08T20:00:00	3	Temperatura mínima	17.7
40140	7	Sololá	701	Sololá	1	Sololá	8	Agosto	2023-08-08T00:00:00	2024-11-08T20:00:00	5	Humedad	85
40141	7	Sololá	701	Sololá	1	Sololá	8	Agosto	2023-08-08T00:00:00	2024-11-08T20:00:00	6	Velocidad del viento	1.6
40142	7	Sololá	701	Sololá	1	Sololá	8	Agosto	2023-08-08T00:00:00	2024-11-08T20:00:00	7	Dirección del viento	1.61
40143	7	Sololá	701	Sololá	1	Sololá	8	Agosto	2023-08-08T00:00:00	2024-11-08T20:00:00	1	Precipitación	0
40144	7	Sololá	701	Sololá	1	Sololá	8	Agosto	2023-08-08T00:00:00	2024-11-08T20:00:00	8	Radiación solar	0
40145	7	Sololá	701	Sololá	1	Sololá	8	Agosto	2023-08-08T00:00:00	2024-11-08T21:00:00	2	Temperatura media	16.9
40146	7	Sololá	701	Sololá	1	Sololá	8	Agosto	2023-08-08T00:00:00	2024-11-08T21:00:00	4	Temperatura máxima	17.8
40147	7	Sololá	701	Sololá	1	Sololá	8	Agosto	2023-08-08T00:00:00	2024-11-08T21:00:00	3	Temperatura mínima	16.9
40148	7	Sololá	701	Sololá	1	Sololá	8	Agosto	2023-08-08T00:00:00	2024-11-08T21:00:00	5	Humedad	87
40149	7	Sololá	701	Sololá	1	Sololá	8	Agosto	2023-08-08T00:00:00	2024-11-08T21:00:00	6	Velocidad del viento	1.6
40150	7	Sololá	701	Sololá	1	Sololá	8	Agosto	2023-08-08T00:00:00	2024-11-08T21:00:00	7	Dirección del viento	1.61
40151	7	Sololá	701	Sololá	1	Sololá	8	Agosto	2023-08-08T00:00:00	2024-11-08T21:00:00	1	Precipitación	0
40152	7	Sololá	701	Sololá	1	Sololá	8	Agosto	2023-08-08T00:00:00	2024-11-08T21:00:00	8	Radiación solar	0
40153	7	Sololá	701	Sololá	1	Sololá	8	Agosto	2023-08-08T00:00:00	2024-11-08T22:00:00	2	Temperatura media	16.7
40154	7	Sololá	701	Sololá	1	Sololá	8	Agosto	2023-08-08T00:00:00	2024-11-08T22:00:00	4	Temperatura máxima	16.9
40155	7	Sololá	701	Sololá	1	Sololá	8	Agosto	2023-08-08T00:00:00	2024-11-08T22:00:00	3	Temperatura mínima	15.7
40156	7	Sololá	701	Sololá	1	Sololá	8	Agosto	2023-08-08T00:00:00	2024-11-08T22:00:00	5	Humedad	82
40157	7	Sololá	701	Sololá	1	Sololá	8	Agosto	2023-08-08T00:00:00	2024-11-08T22:00:00	6	Velocidad del viento	4.8
40158	7	Sololá	701	Sololá	1	Sololá	8	Agosto	2023-08-08T00:00:00	2024-11-08T22:00:00	7	Dirección del viento	4.83
40159	7	Sololá	701	Sololá	1	Sololá	8	Agosto	2023-08-08T00:00:00	2024-11-08T22:00:00	1	Precipitación	0
40160	7	Sololá	701	Sololá	1	Sololá	8	Agosto	2023-08-08T00:00:00	2024-11-08T22:00:00	8	Radiación solar	0
40161	7	Sololá	701	Sololá	1	Sololá	8	Agosto	2023-08-08T00:00:00	2024-11-08T23:00:00	2	Temperatura media	17.1
40162	7	Sololá	701	Sololá	1	Sololá	8	Agosto	2023-08-08T00:00:00	2024-11-08T23:00:00	4	Temperatura máxima	17.2
40163	7	Sololá	701	Sololá	1	Sololá	8	Agosto	2023-08-08T00:00:00	2024-11-08T23:00:00	3	Temperatura mínima	16.5
40164	7	Sololá	701	Sololá	1	Sololá	8	Agosto	2023-08-08T00:00:00	2024-11-08T23:00:00	5	Humedad	81
40165	7	Sololá	701	Sololá	1	Sololá	8	Agosto	2023-08-08T00:00:00	2024-11-08T23:00:00	6	Velocidad del viento	4.8
40166	7	Sololá	701	Sololá	1	Sololá	8	Agosto	2023-08-08T00:00:00	2024-11-08T23:00:00	7	Dirección del viento	4.83
40167	7	Sololá	701	Sololá	1	Sololá	8	Agosto	2023-08-08T00:00:00	2024-11-08T23:00:00	1	Precipitación	0
40168	7	Sololá	701	Sololá	1	Sololá	8	Agosto	2023-08-08T00:00:00	2024-11-08T23:00:00	8	Radiación solar	0
40169	7	Sololá	701	Sololá	1	Sololá	8	Agosto	2023-09-08T00:00:00	2024-11-08T00:00:00	2	Temperatura media	16.8
40170	7	Sololá	701	Sololá	1	Sololá	8	Agosto	2023-09-08T00:00:00	2024-11-08T00:00:00	4	Temperatura máxima	17.1
40171	7	Sololá	701	Sololá	1	Sololá	8	Agosto	2023-09-08T00:00:00	2024-11-08T00:00:00	3	Temperatura mínima	16.6
40172	7	Sololá	701	Sololá	1	Sololá	8	Agosto	2023-09-08T00:00:00	2024-11-08T00:00:00	5	Humedad	80
40173	7	Sololá	701	Sololá	1	Sololá	8	Agosto	2023-09-08T00:00:00	2024-11-08T00:00:00	6	Velocidad del viento	3.2
40174	7	Sololá	701	Sololá	1	Sololá	8	Agosto	2023-09-08T00:00:00	2024-11-08T00:00:00	7	Dirección del viento	3.22
40175	7	Sololá	701	Sololá	1	Sololá	8	Agosto	2023-09-08T00:00:00	2024-11-08T00:00:00	1	Precipitación	0
40176	7	Sololá	701	Sololá	1	Sololá	8	Agosto	2023-09-08T00:00:00	2024-11-08T00:00:00	8	Radiación solar	0
40177	7	Sololá	701	Sololá	1	Sololá	8	Agosto	2023-09-08T00:00:00	2024-11-08T01:00:00	2	Temperatura media	16.4
40178	7	Sololá	701	Sololá	1	Sololá	8	Agosto	2023-09-08T00:00:00	2024-11-08T01:00:00	4	Temperatura máxima	16.8
40179	7	Sololá	701	Sololá	1	Sololá	8	Agosto	2023-09-08T00:00:00	2024-11-08T01:00:00	3	Temperatura mínima	15.3
40180	7	Sololá	701	Sololá	1	Sololá	8	Agosto	2023-09-08T00:00:00	2024-11-08T01:00:00	5	Humedad	81
40181	7	Sololá	701	Sololá	1	Sololá	8	Agosto	2023-09-08T00:00:00	2024-11-08T01:00:00	6	Velocidad del viento	3.2
40182	7	Sololá	701	Sololá	1	Sololá	8	Agosto	2023-09-08T00:00:00	2024-11-08T01:00:00	7	Dirección del viento	3.22
40183	7	Sololá	701	Sololá	1	Sololá	8	Agosto	2023-09-08T00:00:00	2024-11-08T01:00:00	1	Precipitación	0
40184	7	Sololá	701	Sololá	1	Sololá	8	Agosto	2023-09-08T00:00:00	2024-11-08T01:00:00	8	Radiación solar	0
40185	7	Sololá	701	Sololá	1	Sololá	8	Agosto	2023-09-08T00:00:00	2024-11-08T02:00:00	2	Temperatura media	14.8
40186	7	Sololá	701	Sololá	1	Sololá	8	Agosto	2023-09-08T00:00:00	2024-11-08T02:00:00	4	Temperatura máxima	16.8
40187	7	Sololá	701	Sololá	1	Sololá	8	Agosto	2023-09-08T00:00:00	2024-11-08T02:00:00	3	Temperatura mínima	14.7
40188	7	Sololá	701	Sololá	1	Sololá	8	Agosto	2023-09-08T00:00:00	2024-11-08T02:00:00	5	Humedad	84
40189	7	Sololá	701	Sololá	1	Sololá	8	Agosto	2023-09-08T00:00:00	2024-11-08T02:00:00	6	Velocidad del viento	4.8
40190	7	Sololá	701	Sololá	1	Sololá	8	Agosto	2023-09-08T00:00:00	2024-11-08T02:00:00	7	Dirección del viento	4.83
40191	7	Sololá	701	Sololá	1	Sololá	8	Agosto	2023-09-08T00:00:00	2024-11-08T02:00:00	1	Precipitación	0
40192	7	Sololá	701	Sololá	1	Sololá	8	Agosto	2023-09-08T00:00:00	2024-11-08T02:00:00	8	Radiación solar	0
40193	7	Sololá	701	Sololá	1	Sololá	8	Agosto	2023-09-08T00:00:00	2024-11-08T03:00:00	2	Temperatura media	16.5
40194	7	Sololá	701	Sololá	1	Sololá	8	Agosto	2023-09-08T00:00:00	2024-11-08T03:00:00	4	Temperatura máxima	16.5
40195	7	Sololá	701	Sololá	1	Sololá	8	Agosto	2023-09-08T00:00:00	2024-11-08T03:00:00	3	Temperatura mínima	14.2
40196	7	Sololá	701	Sololá	1	Sololá	8	Agosto	2023-09-08T00:00:00	2024-11-08T03:00:00	5	Humedad	78
40197	7	Sololá	701	Sololá	1	Sololá	8	Agosto	2023-09-08T00:00:00	2024-11-08T03:00:00	6	Velocidad del viento	6.4
40198	7	Sololá	701	Sololá	1	Sololá	8	Agosto	2023-09-08T00:00:00	2024-11-08T03:00:00	7	Dirección del viento	6.44
40199	7	Sololá	701	Sololá	1	Sololá	8	Agosto	2023-09-08T00:00:00	2024-11-08T03:00:00	1	Precipitación	0
40200	7	Sololá	701	Sololá	1	Sololá	8	Agosto	2023-09-08T00:00:00	2024-11-08T03:00:00	8	Radiación solar	0
40201	7	Sololá	701	Sololá	1	Sololá	8	Agosto	2023-09-08T00:00:00	2024-11-08T04:00:00	2	Temperatura media	16.5
40202	7	Sololá	701	Sololá	1	Sololá	8	Agosto	2023-09-08T00:00:00	2024-11-08T04:00:00	4	Temperatura máxima	16.6
40203	7	Sololá	701	Sololá	1	Sololá	8	Agosto	2023-09-08T00:00:00	2024-11-08T04:00:00	3	Temperatura mínima	15.3
40204	7	Sololá	701	Sololá	1	Sololá	8	Agosto	2023-09-08T00:00:00	2024-11-08T04:00:00	5	Humedad	80
40205	7	Sololá	701	Sololá	1	Sololá	8	Agosto	2023-09-08T00:00:00	2024-11-08T04:00:00	6	Velocidad del viento	9.7
40206	7	Sololá	701	Sololá	1	Sololá	8	Agosto	2023-09-08T00:00:00	2024-11-08T04:00:00	7	Dirección del viento	9.66
40207	7	Sololá	701	Sololá	1	Sololá	8	Agosto	2023-09-08T00:00:00	2024-11-08T04:00:00	1	Precipitación	0
40208	7	Sololá	701	Sololá	1	Sololá	8	Agosto	2023-09-08T00:00:00	2024-11-08T04:00:00	8	Radiación solar	0
40209	7	Sololá	701	Sololá	1	Sololá	8	Agosto	2023-09-08T00:00:00	2024-11-08T05:00:00	2	Temperatura media	14.1
40210	7	Sololá	701	Sololá	1	Sololá	8	Agosto	2023-09-08T00:00:00	2024-11-08T05:00:00	4	Temperatura máxima	16.6
40211	7	Sololá	701	Sololá	1	Sololá	8	Agosto	2023-09-08T00:00:00	2024-11-08T05:00:00	3	Temperatura mínima	14.1
40212	7	Sololá	701	Sololá	1	Sololá	8	Agosto	2023-09-08T00:00:00	2024-11-08T05:00:00	5	Humedad	82
40213	7	Sololá	701	Sololá	1	Sololá	8	Agosto	2023-09-08T00:00:00	2024-11-08T05:00:00	6	Velocidad del viento	8
40214	7	Sololá	701	Sololá	1	Sololá	8	Agosto	2023-09-08T00:00:00	2024-11-08T05:00:00	7	Dirección del viento	8.05
40215	7	Sololá	701	Sololá	1	Sololá	8	Agosto	2023-09-08T00:00:00	2024-11-08T05:00:00	1	Precipitación	0
40216	7	Sololá	701	Sololá	1	Sololá	8	Agosto	2023-09-08T00:00:00	2024-11-08T05:00:00	8	Radiación solar	0
40217	7	Sololá	701	Sololá	1	Sololá	8	Agosto	2023-09-08T00:00:00	2024-11-08T06:00:00	2	Temperatura media	13.8
40218	7	Sololá	701	Sololá	1	Sololá	8	Agosto	2023-09-08T00:00:00	2024-11-08T06:00:00	4	Temperatura máxima	14.7
40219	7	Sololá	701	Sololá	1	Sololá	8	Agosto	2023-09-08T00:00:00	2024-11-08T06:00:00	3	Temperatura mínima	13.8
40220	7	Sololá	701	Sololá	1	Sololá	8	Agosto	2023-09-08T00:00:00	2024-11-08T06:00:00	5	Humedad	84
40221	7	Sololá	701	Sololá	1	Sololá	8	Agosto	2023-09-08T00:00:00	2024-11-08T06:00:00	6	Velocidad del viento	4.8
40222	7	Sololá	701	Sololá	1	Sololá	8	Agosto	2023-09-08T00:00:00	2024-11-08T06:00:00	7	Dirección del viento	4.83
40223	7	Sololá	701	Sololá	1	Sololá	8	Agosto	2023-09-08T00:00:00	2024-11-08T06:00:00	1	Precipitación	0
40224	7	Sololá	701	Sololá	1	Sololá	8	Agosto	2023-09-08T00:00:00	2024-11-08T06:00:00	8	Radiación solar	0
40225	7	Sololá	701	Sololá	1	Sololá	8	Agosto	2023-09-08T00:00:00	2024-11-08T07:00:00	2	Temperatura media	15.6
40226	7	Sololá	701	Sololá	1	Sololá	8	Agosto	2023-09-08T00:00:00	2024-11-08T07:00:00	4	Temperatura máxima	15.6
40227	7	Sololá	701	Sololá	1	Sololá	8	Agosto	2023-09-08T00:00:00	2024-11-08T07:00:00	3	Temperatura mínima	13.1
40228	7	Sololá	701	Sololá	1	Sololá	8	Agosto	2023-09-08T00:00:00	2024-11-08T07:00:00	5	Humedad	78
40229	7	Sololá	701	Sololá	1	Sololá	8	Agosto	2023-09-08T00:00:00	2024-11-08T07:00:00	6	Velocidad del viento	4.8
40230	7	Sololá	701	Sololá	1	Sololá	8	Agosto	2023-09-08T00:00:00	2024-11-08T07:00:00	7	Dirección del viento	4.83
40231	7	Sololá	701	Sololá	1	Sololá	8	Agosto	2023-09-08T00:00:00	2024-11-08T07:00:00	1	Precipitación	0
40232	7	Sololá	701	Sololá	1	Sololá	8	Agosto	2023-09-08T00:00:00	2024-11-08T07:00:00	8	Radiación solar	13
40233	7	Sololá	701	Sololá	1	Sololá	8	Agosto	2023-09-08T00:00:00	2024-11-08T08:00:00	2	Temperatura media	19.6
40234	7	Sololá	701	Sololá	1	Sololá	8	Agosto	2023-09-08T00:00:00	2024-11-08T08:00:00	4	Temperatura máxima	19.6
40235	7	Sololá	701	Sololá	1	Sololá	8	Agosto	2023-09-08T00:00:00	2024-11-08T08:00:00	3	Temperatura mínima	15.6
40236	7	Sololá	701	Sololá	1	Sololá	8	Agosto	2023-09-08T00:00:00	2024-11-08T08:00:00	5	Humedad	58
40237	7	Sololá	701	Sololá	1	Sololá	8	Agosto	2023-09-08T00:00:00	2024-11-08T08:00:00	6	Velocidad del viento	1.6
40238	7	Sololá	701	Sololá	1	Sololá	8	Agosto	2023-09-08T00:00:00	2024-11-08T08:00:00	7	Dirección del viento	1.61
40239	7	Sololá	701	Sololá	1	Sololá	8	Agosto	2023-09-08T00:00:00	2024-11-08T08:00:00	1	Precipitación	0
40240	7	Sololá	701	Sololá	1	Sololá	8	Agosto	2023-09-08T00:00:00	2024-11-08T08:00:00	8	Radiación solar	141
40241	7	Sololá	701	Sololá	1	Sololá	8	Agosto	2023-09-08T00:00:00	2024-11-08T09:00:00	2	Temperatura media	20.4
40242	7	Sololá	701	Sololá	1	Sololá	8	Agosto	2023-09-08T00:00:00	2024-11-08T09:00:00	4	Temperatura máxima	20.6
40243	7	Sololá	701	Sololá	1	Sololá	8	Agosto	2023-09-08T00:00:00	2024-11-08T09:00:00	3	Temperatura mínima	19.6
40244	7	Sololá	701	Sololá	1	Sololá	8	Agosto	2023-09-08T00:00:00	2024-11-08T09:00:00	5	Humedad	70
40245	7	Sololá	701	Sololá	1	Sololá	8	Agosto	2023-09-08T00:00:00	2024-11-08T09:00:00	6	Velocidad del viento	3.2
40246	7	Sololá	701	Sololá	1	Sololá	8	Agosto	2023-09-08T00:00:00	2024-11-08T09:00:00	7	Dirección del viento	3.22
40247	7	Sololá	701	Sololá	1	Sololá	8	Agosto	2023-09-08T00:00:00	2024-11-08T09:00:00	1	Precipitación	0
40248	7	Sololá	701	Sololá	1	Sololá	8	Agosto	2023-09-08T00:00:00	2024-11-08T09:00:00	8	Radiación solar	646
40249	7	Sololá	701	Sololá	1	Sololá	8	Agosto	2023-09-08T00:00:00	2024-11-08T10:00:00	2	Temperatura media	21.1
40250	7	Sololá	701	Sololá	1	Sololá	8	Agosto	2023-09-08T00:00:00	2024-11-08T10:00:00	4	Temperatura máxima	21.3
40251	7	Sololá	701	Sololá	1	Sololá	8	Agosto	2023-09-08T00:00:00	2024-11-08T10:00:00	3	Temperatura mínima	20.4
40252	7	Sololá	701	Sololá	1	Sololá	8	Agosto	2023-09-08T00:00:00	2024-11-08T10:00:00	5	Humedad	63
40253	7	Sololá	701	Sololá	1	Sololá	8	Agosto	2023-09-08T00:00:00	2024-11-08T10:00:00	6	Velocidad del viento	4.8
40254	7	Sololá	701	Sololá	1	Sololá	8	Agosto	2023-09-08T00:00:00	2024-11-08T10:00:00	7	Dirección del viento	4.83
40255	7	Sololá	701	Sololá	1	Sololá	8	Agosto	2023-09-08T00:00:00	2024-11-08T10:00:00	1	Precipitación	0
40256	7	Sololá	701	Sololá	1	Sololá	8	Agosto	2023-09-08T00:00:00	2024-11-08T10:00:00	8	Radiación solar	843
40257	7	Sololá	701	Sololá	1	Sololá	8	Agosto	2023-09-08T00:00:00	2024-11-08T11:00:00	2	Temperatura media	23.2
40258	7	Sololá	701	Sololá	1	Sololá	8	Agosto	2023-09-08T00:00:00	2024-11-08T11:00:00	4	Temperatura máxima	23.2
40259	7	Sololá	701	Sololá	1	Sololá	8	Agosto	2023-09-08T00:00:00	2024-11-08T11:00:00	3	Temperatura mínima	21.1
40260	7	Sololá	701	Sololá	1	Sololá	8	Agosto	2023-09-08T00:00:00	2024-11-08T11:00:00	5	Humedad	61
40261	7	Sololá	701	Sololá	1	Sololá	8	Agosto	2023-09-08T00:00:00	2024-11-08T11:00:00	6	Velocidad del viento	4.8
40262	7	Sololá	701	Sololá	1	Sololá	8	Agosto	2023-09-08T00:00:00	2024-11-08T11:00:00	7	Dirección del viento	4.83
40263	7	Sololá	701	Sololá	1	Sololá	8	Agosto	2023-09-08T00:00:00	2024-11-08T11:00:00	1	Precipitación	0
40264	7	Sololá	701	Sololá	1	Sololá	8	Agosto	2023-09-08T00:00:00	2024-11-08T11:00:00	8	Radiación solar	969
40265	7	Sololá	701	Sololá	1	Sololá	8	Agosto	2023-09-08T00:00:00	2024-11-08T12:00:00	2	Temperatura media	23.8
40266	7	Sololá	701	Sololá	1	Sololá	8	Agosto	2023-09-08T00:00:00	2024-11-08T12:00:00	4	Temperatura máxima	23.9
40267	7	Sololá	701	Sololá	1	Sololá	8	Agosto	2023-09-08T00:00:00	2024-11-08T12:00:00	3	Temperatura mínima	23
40268	7	Sololá	701	Sololá	1	Sololá	8	Agosto	2023-09-08T00:00:00	2024-11-08T12:00:00	5	Humedad	62
40269	7	Sololá	701	Sololá	1	Sololá	8	Agosto	2023-09-08T00:00:00	2024-11-08T12:00:00	6	Velocidad del viento	4.8
40270	7	Sololá	701	Sololá	1	Sololá	8	Agosto	2023-09-08T00:00:00	2024-11-08T12:00:00	7	Dirección del viento	4.83
40271	7	Sololá	701	Sololá	1	Sololá	8	Agosto	2023-09-08T00:00:00	2024-11-08T12:00:00	1	Precipitación	0
40272	7	Sololá	701	Sololá	1	Sololá	8	Agosto	2023-09-08T00:00:00	2024-11-08T12:00:00	8	Radiación solar	1046
40273	7	Sololá	701	Sololá	1	Sololá	8	Agosto	2023-09-08T00:00:00	2024-11-08T13:00:00	2	Temperatura media	22.9
40274	7	Sololá	701	Sololá	1	Sololá	8	Agosto	2023-09-08T00:00:00	2024-11-08T13:00:00	4	Temperatura máxima	23.8
40275	7	Sololá	701	Sololá	1	Sololá	8	Agosto	2023-09-08T00:00:00	2024-11-08T13:00:00	3	Temperatura mínima	22.8
40276	7	Sololá	701	Sololá	1	Sololá	8	Agosto	2023-09-08T00:00:00	2024-11-08T13:00:00	5	Humedad	74
40277	7	Sololá	701	Sololá	1	Sololá	8	Agosto	2023-09-08T00:00:00	2024-11-08T13:00:00	6	Velocidad del viento	6.4
40278	7	Sololá	701	Sololá	1	Sololá	8	Agosto	2023-09-08T00:00:00	2024-11-08T13:00:00	7	Dirección del viento	6.44
40279	7	Sololá	701	Sololá	1	Sololá	8	Agosto	2023-09-08T00:00:00	2024-11-08T13:00:00	1	Precipitación	0
40280	7	Sololá	701	Sololá	1	Sololá	8	Agosto	2023-09-08T00:00:00	2024-11-08T13:00:00	8	Radiación solar	423
40281	7	Sololá	701	Sololá	1	Sololá	8	Agosto	2023-09-08T00:00:00	2024-11-08T14:00:00	2	Temperatura media	22.7
40282	7	Sololá	701	Sololá	1	Sololá	8	Agosto	2023-09-08T00:00:00	2024-11-08T14:00:00	4	Temperatura máxima	23.5
40283	7	Sololá	701	Sololá	1	Sololá	8	Agosto	2023-09-08T00:00:00	2024-11-08T14:00:00	3	Temperatura mínima	22.2
40284	7	Sololá	701	Sololá	1	Sololá	8	Agosto	2023-09-08T00:00:00	2024-11-08T14:00:00	5	Humedad	77
40285	7	Sololá	701	Sololá	1	Sololá	8	Agosto	2023-09-08T00:00:00	2024-11-08T14:00:00	6	Velocidad del viento	6.4
40286	7	Sololá	701	Sololá	1	Sololá	8	Agosto	2023-09-08T00:00:00	2024-11-08T14:00:00	7	Dirección del viento	6.44
40287	7	Sololá	701	Sololá	1	Sololá	8	Agosto	2023-09-08T00:00:00	2024-11-08T14:00:00	1	Precipitación	0
40288	7	Sololá	701	Sololá	1	Sololá	8	Agosto	2023-09-08T00:00:00	2024-11-08T14:00:00	8	Radiación solar	165
40289	7	Sololá	701	Sololá	1	Sololá	8	Agosto	2023-09-08T00:00:00	2024-11-08T15:00:00	2	Temperatura media	18.8
40290	7	Sololá	701	Sololá	1	Sololá	8	Agosto	2023-09-08T00:00:00	2024-11-08T15:00:00	4	Temperatura máxima	22.7
40291	7	Sololá	701	Sololá	1	Sololá	8	Agosto	2023-09-08T00:00:00	2024-11-08T15:00:00	3	Temperatura mínima	18.8
40292	7	Sololá	701	Sololá	1	Sololá	8	Agosto	2023-09-08T00:00:00	2024-11-08T15:00:00	5	Humedad	92
40293	7	Sololá	701	Sololá	1	Sololá	8	Agosto	2023-09-08T00:00:00	2024-11-08T15:00:00	6	Velocidad del viento	6.4
40294	7	Sololá	701	Sololá	1	Sololá	8	Agosto	2023-09-08T00:00:00	2024-11-08T15:00:00	7	Dirección del viento	6.44
40295	7	Sololá	701	Sololá	1	Sololá	8	Agosto	2023-09-08T00:00:00	2024-11-08T15:00:00	1	Precipitación	0
40296	7	Sololá	701	Sololá	1	Sololá	8	Agosto	2023-09-08T00:00:00	2024-11-08T15:00:00	8	Radiación solar	185
40297	7	Sololá	701	Sololá	1	Sololá	8	Agosto	2023-09-08T00:00:00	2024-11-08T16:00:00	2	Temperatura media	18.2
40298	7	Sololá	701	Sololá	1	Sololá	8	Agosto	2023-09-08T00:00:00	2024-11-08T16:00:00	4	Temperatura máxima	18.8
40299	7	Sololá	701	Sololá	1	Sololá	8	Agosto	2023-09-08T00:00:00	2024-11-08T16:00:00	3	Temperatura mínima	17.3
40300	7	Sololá	701	Sololá	1	Sololá	8	Agosto	2023-09-08T00:00:00	2024-11-08T16:00:00	5	Humedad	96
40301	7	Sololá	701	Sololá	1	Sololá	8	Agosto	2023-09-08T00:00:00	2024-11-08T16:00:00	6	Velocidad del viento	3.2
40302	7	Sololá	701	Sololá	1	Sololá	8	Agosto	2023-09-08T00:00:00	2024-11-08T16:00:00	7	Dirección del viento	3.22
40303	7	Sololá	701	Sololá	1	Sololá	8	Agosto	2023-09-08T00:00:00	2024-11-08T16:00:00	1	Precipitación	2.6
40304	7	Sololá	701	Sololá	1	Sololá	8	Agosto	2023-09-08T00:00:00	2024-11-08T16:00:00	8	Radiación solar	156
40305	7	Sololá	701	Sololá	1	Sololá	8	Agosto	2023-09-08T00:00:00	2024-11-08T17:00:00	2	Temperatura media	17.5
40306	7	Sololá	701	Sololá	1	Sololá	8	Agosto	2023-09-08T00:00:00	2024-11-08T17:00:00	4	Temperatura máxima	18.2
40307	7	Sololá	701	Sololá	1	Sololá	8	Agosto	2023-09-08T00:00:00	2024-11-08T17:00:00	3	Temperatura mínima	17.5
40308	7	Sololá	701	Sololá	1	Sololá	8	Agosto	2023-09-08T00:00:00	2024-11-08T17:00:00	5	Humedad	95
40309	7	Sololá	701	Sololá	1	Sololá	8	Agosto	2023-09-08T00:00:00	2024-11-08T17:00:00	6	Velocidad del viento	1.6
40310	7	Sololá	701	Sololá	1	Sololá	8	Agosto	2023-09-08T00:00:00	2024-11-08T17:00:00	7	Dirección del viento	1.61
40311	7	Sololá	701	Sololá	1	Sololá	8	Agosto	2023-09-08T00:00:00	2024-11-08T17:00:00	1	Precipitación	1.4
40312	7	Sololá	701	Sololá	1	Sololá	8	Agosto	2023-09-08T00:00:00	2024-11-08T17:00:00	8	Radiación solar	69
40313	7	Sololá	701	Sololá	1	Sololá	8	Agosto	2023-09-08T00:00:00	2024-11-08T18:00:00	2	Temperatura media	18.2
40314	7	Sololá	701	Sololá	1	Sololá	8	Agosto	2023-09-08T00:00:00	2024-11-08T18:00:00	4	Temperatura máxima	18.2
40315	7	Sololá	701	Sololá	1	Sololá	8	Agosto	2023-09-08T00:00:00	2024-11-08T18:00:00	3	Temperatura mínima	17.3
40316	7	Sololá	701	Sololá	1	Sololá	8	Agosto	2023-09-08T00:00:00	2024-11-08T18:00:00	5	Humedad	91
40317	7	Sololá	701	Sololá	1	Sololá	8	Agosto	2023-09-08T00:00:00	2024-11-08T18:00:00	6	Velocidad del viento	1.6
40318	7	Sololá	701	Sololá	1	Sololá	8	Agosto	2023-09-08T00:00:00	2024-11-08T18:00:00	7	Dirección del viento	1.61
40319	7	Sololá	701	Sololá	1	Sololá	8	Agosto	2023-09-08T00:00:00	2024-11-08T18:00:00	1	Precipitación	2.2
40320	7	Sololá	701	Sololá	1	Sololá	8	Agosto	2023-09-08T00:00:00	2024-11-08T18:00:00	8	Radiación solar	7
40321	7	Sololá	701	Sololá	1	Sololá	8	Agosto	2023-09-08T00:00:00	2024-11-08T19:00:00	2	Temperatura media	17.3
40322	7	Sololá	701	Sololá	1	Sololá	8	Agosto	2023-09-08T00:00:00	2024-11-08T19:00:00	4	Temperatura máxima	18.4
40323	7	Sololá	701	Sololá	1	Sololá	8	Agosto	2023-09-08T00:00:00	2024-11-08T19:00:00	3	Temperatura mínima	17.3
40324	7	Sololá	701	Sololá	1	Sololá	8	Agosto	2023-09-08T00:00:00	2024-11-08T19:00:00	5	Humedad	95
40325	7	Sololá	701	Sololá	1	Sololá	8	Agosto	2023-09-08T00:00:00	2024-11-08T19:00:00	6	Velocidad del viento	1.6
40326	7	Sololá	701	Sololá	1	Sololá	8	Agosto	2023-09-08T00:00:00	2024-11-08T19:00:00	7	Dirección del viento	1.61
40327	7	Sololá	701	Sololá	1	Sololá	8	Agosto	2023-09-08T00:00:00	2024-11-08T19:00:00	1	Precipitación	0
40328	7	Sololá	701	Sololá	1	Sololá	8	Agosto	2023-09-08T00:00:00	2024-11-08T19:00:00	8	Radiación solar	0
40329	7	Sololá	701	Sololá	1	Sololá	8	Agosto	2023-09-08T00:00:00	2024-11-08T20:00:00	2	Temperatura media	16.6
40330	7	Sololá	701	Sololá	1	Sololá	8	Agosto	2023-09-08T00:00:00	2024-11-08T20:00:00	4	Temperatura máxima	17.3
40331	7	Sololá	701	Sololá	1	Sololá	8	Agosto	2023-09-08T00:00:00	2024-11-08T20:00:00	3	Temperatura mínima	16.6
40332	7	Sololá	701	Sololá	1	Sololá	8	Agosto	2023-09-08T00:00:00	2024-11-08T20:00:00	5	Humedad	94
40333	7	Sololá	701	Sololá	1	Sololá	8	Agosto	2023-09-08T00:00:00	2024-11-08T20:00:00	6	Velocidad del viento	4.8
40334	7	Sololá	701	Sololá	1	Sololá	8	Agosto	2023-09-08T00:00:00	2024-11-08T20:00:00	7	Dirección del viento	4.83
40335	7	Sololá	701	Sololá	1	Sololá	8	Agosto	2023-09-08T00:00:00	2024-11-08T20:00:00	1	Precipitación	0
40336	7	Sololá	701	Sololá	1	Sololá	8	Agosto	2023-09-08T00:00:00	2024-11-08T20:00:00	8	Radiación solar	0
40337	7	Sololá	701	Sololá	1	Sololá	8	Agosto	2023-09-08T00:00:00	2024-11-08T21:00:00	2	Temperatura media	16.5
40338	7	Sololá	701	Sololá	1	Sololá	8	Agosto	2023-09-08T00:00:00	2024-11-08T21:00:00	4	Temperatura máxima	16.8
40339	7	Sololá	701	Sololá	1	Sololá	8	Agosto	2023-09-08T00:00:00	2024-11-08T21:00:00	3	Temperatura mínima	16.5
40340	7	Sololá	701	Sololá	1	Sololá	8	Agosto	2023-09-08T00:00:00	2024-11-08T21:00:00	5	Humedad	89
40341	7	Sololá	701	Sololá	1	Sololá	8	Agosto	2023-09-08T00:00:00	2024-11-08T21:00:00	6	Velocidad del viento	3.2
40342	7	Sololá	701	Sololá	1	Sololá	8	Agosto	2023-09-08T00:00:00	2024-11-08T21:00:00	7	Dirección del viento	3.22
40343	7	Sololá	701	Sololá	1	Sololá	8	Agosto	2023-09-08T00:00:00	2024-11-08T21:00:00	1	Precipitación	0
40344	7	Sololá	701	Sololá	1	Sololá	8	Agosto	2023-09-08T00:00:00	2024-11-08T21:00:00	8	Radiación solar	0
40345	7	Sololá	701	Sololá	1	Sololá	8	Agosto	2023-09-08T00:00:00	2024-11-08T22:00:00	2	Temperatura media	16.5
40346	7	Sololá	701	Sololá	1	Sololá	8	Agosto	2023-09-08T00:00:00	2024-11-08T22:00:00	4	Temperatura máxima	16.6
40347	7	Sololá	701	Sololá	1	Sololá	8	Agosto	2023-09-08T00:00:00	2024-11-08T22:00:00	3	Temperatura mínima	16.3
40348	7	Sololá	701	Sololá	1	Sololá	8	Agosto	2023-09-08T00:00:00	2024-11-08T22:00:00	5	Humedad	87
40349	7	Sololá	701	Sololá	1	Sololá	8	Agosto	2023-09-08T00:00:00	2024-11-08T22:00:00	6	Velocidad del viento	4.8
40350	7	Sololá	701	Sololá	1	Sololá	8	Agosto	2023-09-08T00:00:00	2024-11-08T22:00:00	7	Dirección del viento	4.83
40351	7	Sololá	701	Sololá	1	Sololá	8	Agosto	2023-09-08T00:00:00	2024-11-08T22:00:00	1	Precipitación	0
40352	7	Sololá	701	Sololá	1	Sololá	8	Agosto	2023-09-08T00:00:00	2024-11-08T22:00:00	8	Radiación solar	0
40353	7	Sololá	701	Sololá	1	Sololá	8	Agosto	2023-09-08T00:00:00	2024-11-08T23:00:00	2	Temperatura media	16.6
40354	7	Sololá	701	Sololá	1	Sololá	8	Agosto	2023-09-08T00:00:00	2024-11-08T23:00:00	4	Temperatura máxima	17.1
40355	7	Sololá	701	Sololá	1	Sololá	8	Agosto	2023-09-08T00:00:00	2024-11-08T23:00:00	3	Temperatura mínima	16.5
40356	7	Sololá	701	Sololá	1	Sololá	8	Agosto	2023-09-08T00:00:00	2024-11-08T23:00:00	5	Humedad	85
40357	7	Sololá	701	Sololá	1	Sololá	8	Agosto	2023-09-08T00:00:00	2024-11-08T23:00:00	6	Velocidad del viento	4.8
40358	7	Sololá	701	Sololá	1	Sololá	8	Agosto	2023-09-08T00:00:00	2024-11-08T23:00:00	7	Dirección del viento	4.83
40359	7	Sololá	701	Sololá	1	Sololá	8	Agosto	2023-09-08T00:00:00	2024-11-08T23:00:00	1	Precipitación	0
40360	7	Sololá	701	Sololá	1	Sololá	8	Agosto	2023-09-08T00:00:00	2024-11-08T23:00:00	8	Radiación solar	0
40361	7	Sololá	701	Sololá	1	Sololá	8	Agosto	2023-10-08T00:00:00	2024-11-08T00:00:00	2	Temperatura media	15.6
40362	7	Sololá	701	Sololá	1	Sololá	8	Agosto	2023-10-08T00:00:00	2024-11-08T00:00:00	4	Temperatura máxima	16.6
40363	7	Sololá	701	Sololá	1	Sololá	8	Agosto	2023-10-08T00:00:00	2024-11-08T00:00:00	3	Temperatura mínima	15.3
40364	7	Sololá	701	Sololá	1	Sololá	8	Agosto	2023-10-08T00:00:00	2024-11-08T00:00:00	5	Humedad	86
40365	7	Sololá	701	Sololá	1	Sololá	8	Agosto	2023-10-08T00:00:00	2024-11-08T00:00:00	6	Velocidad del viento	6.4
40366	7	Sololá	701	Sololá	1	Sololá	8	Agosto	2023-10-08T00:00:00	2024-11-08T00:00:00	7	Dirección del viento	6.44
40367	7	Sololá	701	Sololá	1	Sololá	8	Agosto	2023-10-08T00:00:00	2024-11-08T00:00:00	1	Precipitación	0
40368	7	Sololá	701	Sololá	1	Sololá	8	Agosto	2023-10-08T00:00:00	2024-11-08T00:00:00	8	Radiación solar	0
40369	7	Sololá	701	Sololá	1	Sololá	8	Agosto	2023-10-08T00:00:00	2024-11-08T01:00:00	2	Temperatura media	14.6
40370	7	Sololá	701	Sololá	1	Sololá	8	Agosto	2023-10-08T00:00:00	2024-11-08T01:00:00	4	Temperatura máxima	15.6
40371	7	Sololá	701	Sololá	1	Sololá	8	Agosto	2023-10-08T00:00:00	2024-11-08T01:00:00	3	Temperatura mínima	14.6
40372	7	Sololá	701	Sololá	1	Sololá	8	Agosto	2023-10-08T00:00:00	2024-11-08T01:00:00	5	Humedad	88
40373	7	Sololá	701	Sololá	1	Sololá	8	Agosto	2023-10-08T00:00:00	2024-11-08T01:00:00	6	Velocidad del viento	6.4
40374	7	Sololá	701	Sololá	1	Sololá	8	Agosto	2023-10-08T00:00:00	2024-11-08T01:00:00	7	Dirección del viento	6.44
40375	7	Sololá	701	Sololá	1	Sololá	8	Agosto	2023-10-08T00:00:00	2024-11-08T01:00:00	1	Precipitación	0
40376	7	Sololá	701	Sololá	1	Sololá	8	Agosto	2023-10-08T00:00:00	2024-11-08T01:00:00	8	Radiación solar	0
40377	7	Sololá	701	Sololá	1	Sololá	8	Agosto	2023-10-08T00:00:00	2024-11-08T02:00:00	2	Temperatura media	15
40378	7	Sololá	701	Sololá	1	Sololá	8	Agosto	2023-10-08T00:00:00	2024-11-08T02:00:00	4	Temperatura máxima	15.1
40379	7	Sololá	701	Sololá	1	Sololá	8	Agosto	2023-10-08T00:00:00	2024-11-08T02:00:00	3	Temperatura mínima	14.6
40380	7	Sololá	701	Sololá	1	Sololá	8	Agosto	2023-10-08T00:00:00	2024-11-08T02:00:00	5	Humedad	87
40381	7	Sololá	701	Sololá	1	Sololá	8	Agosto	2023-10-08T00:00:00	2024-11-08T02:00:00	6	Velocidad del viento	1.6
40382	7	Sololá	701	Sololá	1	Sololá	8	Agosto	2023-10-08T00:00:00	2024-11-08T02:00:00	7	Dirección del viento	1.61
40383	7	Sololá	701	Sololá	1	Sololá	8	Agosto	2023-10-08T00:00:00	2024-11-08T02:00:00	1	Precipitación	0
40384	7	Sololá	701	Sololá	1	Sololá	8	Agosto	2023-10-08T00:00:00	2024-11-08T02:00:00	8	Radiación solar	0
40385	7	Sololá	701	Sololá	1	Sololá	8	Agosto	2023-10-08T00:00:00	2024-11-08T03:00:00	2	Temperatura media	15.1
40386	7	Sololá	701	Sololá	1	Sololá	8	Agosto	2023-10-08T00:00:00	2024-11-08T03:00:00	4	Temperatura máxima	15.1
40387	7	Sololá	701	Sololá	1	Sololá	8	Agosto	2023-10-08T00:00:00	2024-11-08T03:00:00	3	Temperatura mínima	14.6
40388	7	Sololá	701	Sololá	1	Sololá	8	Agosto	2023-10-08T00:00:00	2024-11-08T03:00:00	5	Humedad	86
40389	7	Sololá	701	Sololá	1	Sololá	8	Agosto	2023-10-08T00:00:00	2024-11-08T03:00:00	6	Velocidad del viento	1.6
40390	7	Sololá	701	Sololá	1	Sololá	8	Agosto	2023-10-08T00:00:00	2024-11-08T03:00:00	7	Dirección del viento	1.61
40391	7	Sololá	701	Sololá	1	Sololá	8	Agosto	2023-10-08T00:00:00	2024-11-08T03:00:00	1	Precipitación	0
40392	7	Sololá	701	Sololá	1	Sololá	8	Agosto	2023-10-08T00:00:00	2024-11-08T03:00:00	8	Radiación solar	0
40393	7	Sololá	701	Sololá	1	Sololá	8	Agosto	2023-10-08T00:00:00	2024-11-08T04:00:00	2	Temperatura media	15
40394	7	Sololá	701	Sololá	1	Sololá	8	Agosto	2023-10-08T00:00:00	2024-11-08T04:00:00	4	Temperatura máxima	15.2
40395	7	Sololá	701	Sololá	1	Sololá	8	Agosto	2023-10-08T00:00:00	2024-11-08T04:00:00	3	Temperatura mínima	14.9
40396	7	Sololá	701	Sololá	1	Sololá	8	Agosto	2023-10-08T00:00:00	2024-11-08T04:00:00	5	Humedad	87
40397	7	Sololá	701	Sololá	1	Sololá	8	Agosto	2023-10-08T00:00:00	2024-11-08T04:00:00	6	Velocidad del viento	0
40398	7	Sololá	701	Sololá	1	Sololá	8	Agosto	2023-10-08T00:00:00	2024-11-08T04:00:00	7	Dirección del viento	0
40399	7	Sololá	701	Sololá	1	Sololá	8	Agosto	2023-10-08T00:00:00	2024-11-08T04:00:00	1	Precipitación	0
40400	7	Sololá	701	Sololá	1	Sololá	8	Agosto	2023-10-08T00:00:00	2024-11-08T04:00:00	8	Radiación solar	0
40401	7	Sololá	701	Sololá	1	Sololá	8	Agosto	2023-10-08T00:00:00	2024-11-08T05:00:00	2	Temperatura media	14.8
40402	7	Sololá	701	Sololá	1	Sololá	8	Agosto	2023-10-08T00:00:00	2024-11-08T05:00:00	4	Temperatura máxima	15
40403	7	Sololá	701	Sololá	1	Sololá	8	Agosto	2023-10-08T00:00:00	2024-11-08T05:00:00	3	Temperatura mínima	14.8
40404	7	Sololá	701	Sololá	1	Sololá	8	Agosto	2023-10-08T00:00:00	2024-11-08T05:00:00	5	Humedad	88
40405	7	Sololá	701	Sololá	1	Sololá	8	Agosto	2023-10-08T00:00:00	2024-11-08T05:00:00	6	Velocidad del viento	0
40406	7	Sololá	701	Sololá	1	Sololá	8	Agosto	2023-10-08T00:00:00	2024-11-08T05:00:00	7	Dirección del viento	0
40407	7	Sololá	701	Sololá	1	Sololá	8	Agosto	2023-10-08T00:00:00	2024-11-08T05:00:00	1	Precipitación	0
40408	7	Sololá	701	Sololá	1	Sololá	8	Agosto	2023-10-08T00:00:00	2024-11-08T05:00:00	8	Radiación solar	0
40409	7	Sololá	701	Sololá	1	Sololá	8	Agosto	2023-10-08T00:00:00	2024-11-08T06:00:00	2	Temperatura media	14.6
40410	7	Sololá	701	Sololá	1	Sololá	8	Agosto	2023-10-08T00:00:00	2024-11-08T06:00:00	4	Temperatura máxima	14.8
40411	7	Sololá	701	Sololá	1	Sololá	8	Agosto	2023-10-08T00:00:00	2024-11-08T06:00:00	3	Temperatura mínima	14.2
40412	7	Sololá	701	Sololá	1	Sololá	8	Agosto	2023-10-08T00:00:00	2024-11-08T06:00:00	5	Humedad	88
40413	7	Sololá	701	Sololá	1	Sololá	8	Agosto	2023-10-08T00:00:00	2024-11-08T06:00:00	6	Velocidad del viento	1.6
40414	7	Sololá	701	Sololá	1	Sololá	8	Agosto	2023-10-08T00:00:00	2024-11-08T06:00:00	7	Dirección del viento	1.61
40415	7	Sololá	701	Sololá	1	Sololá	8	Agosto	2023-10-08T00:00:00	2024-11-08T06:00:00	1	Precipitación	0
40416	7	Sololá	701	Sololá	1	Sololá	8	Agosto	2023-10-08T00:00:00	2024-11-08T06:00:00	8	Radiación solar	18
40417	7	Sololá	701	Sololá	1	Sololá	8	Agosto	2023-10-08T00:00:00	2024-11-08T07:00:00	2	Temperatura media	16.2
40418	7	Sololá	701	Sololá	1	Sololá	8	Agosto	2023-10-08T00:00:00	2024-11-08T07:00:00	4	Temperatura máxima	16.2
40419	7	Sololá	701	Sololá	1	Sololá	8	Agosto	2023-10-08T00:00:00	2024-11-08T07:00:00	3	Temperatura mínima	13.9
40420	7	Sololá	701	Sololá	1	Sololá	8	Agosto	2023-10-08T00:00:00	2024-11-08T07:00:00	5	Humedad	86
40421	7	Sololá	701	Sololá	1	Sololá	8	Agosto	2023-10-08T00:00:00	2024-11-08T07:00:00	6	Velocidad del viento	4.8
40422	7	Sololá	701	Sololá	1	Sololá	8	Agosto	2023-10-08T00:00:00	2024-11-08T07:00:00	7	Dirección del viento	4.83
40423	7	Sololá	701	Sololá	1	Sololá	8	Agosto	2023-10-08T00:00:00	2024-11-08T07:00:00	1	Precipitación	0
40424	7	Sololá	701	Sololá	1	Sololá	8	Agosto	2023-10-08T00:00:00	2024-11-08T07:00:00	8	Radiación solar	127
40425	7	Sololá	701	Sololá	1	Sololá	8	Agosto	2023-10-08T00:00:00	2024-11-08T08:00:00	2	Temperatura media	18.2
40426	7	Sololá	701	Sololá	1	Sololá	8	Agosto	2023-10-08T00:00:00	2024-11-08T08:00:00	4	Temperatura máxima	18.2
40427	7	Sololá	701	Sololá	1	Sololá	8	Agosto	2023-10-08T00:00:00	2024-11-08T08:00:00	3	Temperatura mínima	16.2
40428	7	Sololá	701	Sololá	1	Sololá	8	Agosto	2023-10-08T00:00:00	2024-11-08T08:00:00	5	Humedad	77
40429	7	Sololá	701	Sololá	1	Sololá	8	Agosto	2023-10-08T00:00:00	2024-11-08T08:00:00	6	Velocidad del viento	3.2
40430	7	Sololá	701	Sololá	1	Sololá	8	Agosto	2023-10-08T00:00:00	2024-11-08T08:00:00	7	Dirección del viento	3.22
40431	7	Sololá	701	Sololá	1	Sololá	8	Agosto	2023-10-08T00:00:00	2024-11-08T08:00:00	1	Precipitación	0
40432	7	Sololá	701	Sololá	1	Sololá	8	Agosto	2023-10-08T00:00:00	2024-11-08T08:00:00	8	Radiación solar	572
40433	7	Sololá	701	Sololá	1	Sololá	8	Agosto	2023-10-08T00:00:00	2024-11-08T09:00:00	2	Temperatura media	20.4
40434	7	Sololá	701	Sololá	1	Sololá	8	Agosto	2023-10-08T00:00:00	2024-11-08T09:00:00	4	Temperatura máxima	20.4
40435	7	Sololá	701	Sololá	1	Sololá	8	Agosto	2023-10-08T00:00:00	2024-11-08T09:00:00	3	Temperatura mínima	18.2
40436	7	Sololá	701	Sololá	1	Sololá	8	Agosto	2023-10-08T00:00:00	2024-11-08T09:00:00	5	Humedad	78
40437	7	Sololá	701	Sololá	1	Sololá	8	Agosto	2023-10-08T00:00:00	2024-11-08T09:00:00	6	Velocidad del viento	1.6
40438	7	Sololá	701	Sololá	1	Sololá	8	Agosto	2023-10-08T00:00:00	2024-11-08T09:00:00	7	Dirección del viento	1.61
40439	7	Sololá	701	Sololá	1	Sololá	8	Agosto	2023-10-08T00:00:00	2024-11-08T09:00:00	1	Precipitación	0
40440	7	Sololá	701	Sololá	1	Sololá	8	Agosto	2023-10-08T00:00:00	2024-11-08T09:00:00	8	Radiación solar	790
40441	7	Sololá	701	Sololá	1	Sololá	8	Agosto	2023-10-08T00:00:00	2024-11-08T10:00:00	2	Temperatura media	21.3
40442	7	Sololá	701	Sololá	1	Sololá	8	Agosto	2023-10-08T00:00:00	2024-11-08T10:00:00	4	Temperatura máxima	21.5
40443	7	Sololá	701	Sololá	1	Sololá	8	Agosto	2023-10-08T00:00:00	2024-11-08T10:00:00	3	Temperatura mínima	20.4
40444	7	Sololá	701	Sololá	1	Sololá	8	Agosto	2023-10-08T00:00:00	2024-11-08T10:00:00	5	Humedad	72
40445	7	Sololá	701	Sololá	1	Sololá	8	Agosto	2023-10-08T00:00:00	2024-11-08T10:00:00	6	Velocidad del viento	3.2
40446	7	Sololá	701	Sololá	1	Sololá	8	Agosto	2023-10-08T00:00:00	2024-11-08T10:00:00	7	Dirección del viento	3.22
40447	7	Sololá	701	Sololá	1	Sololá	8	Agosto	2023-10-08T00:00:00	2024-11-08T10:00:00	1	Precipitación	0
40448	7	Sololá	701	Sololá	1	Sololá	8	Agosto	2023-10-08T00:00:00	2024-11-08T10:00:00	8	Radiación solar	904
40449	7	Sololá	701	Sololá	1	Sololá	8	Agosto	2023-10-08T00:00:00	2024-11-08T11:00:00	2	Temperatura media	22.5
40450	7	Sololá	701	Sololá	1	Sololá	8	Agosto	2023-10-08T00:00:00	2024-11-08T11:00:00	4	Temperatura máxima	22.6
40451	7	Sololá	701	Sololá	1	Sololá	8	Agosto	2023-10-08T00:00:00	2024-11-08T11:00:00	3	Temperatura mínima	21.4
40452	7	Sololá	701	Sololá	1	Sololá	8	Agosto	2023-10-08T00:00:00	2024-11-08T11:00:00	5	Humedad	67
40453	7	Sololá	701	Sololá	1	Sololá	8	Agosto	2023-10-08T00:00:00	2024-11-08T11:00:00	6	Velocidad del viento	4.8
40454	7	Sololá	701	Sololá	1	Sololá	8	Agosto	2023-10-08T00:00:00	2024-11-08T11:00:00	7	Dirección del viento	4.83
40455	7	Sololá	701	Sololá	1	Sololá	8	Agosto	2023-10-08T00:00:00	2024-11-08T11:00:00	1	Precipitación	0
40456	7	Sololá	701	Sololá	1	Sololá	8	Agosto	2023-10-08T00:00:00	2024-11-08T11:00:00	8	Radiación solar	899
40457	7	Sololá	701	Sololá	1	Sololá	8	Agosto	2023-10-08T00:00:00	2024-11-08T12:00:00	2	Temperatura media	22.6
40458	7	Sololá	701	Sololá	1	Sololá	8	Agosto	2023-10-08T00:00:00	2024-11-08T12:00:00	4	Temperatura máxima	22.9
40459	7	Sololá	701	Sololá	1	Sololá	8	Agosto	2023-10-08T00:00:00	2024-11-08T12:00:00	3	Temperatura mínima	22.5
40460	7	Sololá	701	Sololá	1	Sololá	8	Agosto	2023-10-08T00:00:00	2024-11-08T12:00:00	5	Humedad	70
40461	7	Sololá	701	Sololá	1	Sololá	8	Agosto	2023-10-08T00:00:00	2024-11-08T12:00:00	6	Velocidad del viento	6.4
40462	7	Sololá	701	Sololá	1	Sololá	8	Agosto	2023-10-08T00:00:00	2024-11-08T12:00:00	7	Dirección del viento	6.44
40463	7	Sololá	701	Sololá	1	Sololá	8	Agosto	2023-10-08T00:00:00	2024-11-08T12:00:00	1	Precipitación	0
40464	7	Sololá	701	Sololá	1	Sololá	8	Agosto	2023-10-08T00:00:00	2024-11-08T12:00:00	8	Radiación solar	444
40465	7	Sololá	701	Sololá	1	Sololá	8	Agosto	2023-10-08T00:00:00	2024-11-08T13:00:00	2	Temperatura media	21.1
40466	7	Sololá	701	Sololá	1	Sololá	8	Agosto	2023-10-08T00:00:00	2024-11-08T13:00:00	4	Temperatura máxima	23
40467	7	Sololá	701	Sololá	1	Sololá	8	Agosto	2023-10-08T00:00:00	2024-11-08T13:00:00	3	Temperatura mínima	21
40468	7	Sololá	701	Sololá	1	Sololá	8	Agosto	2023-10-08T00:00:00	2024-11-08T13:00:00	5	Humedad	81
40469	7	Sololá	701	Sololá	1	Sololá	8	Agosto	2023-10-08T00:00:00	2024-11-08T13:00:00	6	Velocidad del viento	4.8
40470	7	Sololá	701	Sololá	1	Sololá	8	Agosto	2023-10-08T00:00:00	2024-11-08T13:00:00	7	Dirección del viento	4.83
40471	7	Sololá	701	Sololá	1	Sololá	8	Agosto	2023-10-08T00:00:00	2024-11-08T13:00:00	1	Precipitación	0
40472	7	Sololá	701	Sololá	1	Sololá	8	Agosto	2023-10-08T00:00:00	2024-11-08T13:00:00	8	Radiación solar	142
40473	7	Sololá	701	Sololá	1	Sololá	8	Agosto	2023-10-08T00:00:00	2024-11-08T14:00:00	2	Temperatura media	20.1
40474	7	Sololá	701	Sololá	1	Sololá	8	Agosto	2023-10-08T00:00:00	2024-11-08T14:00:00	4	Temperatura máxima	21.1
40475	7	Sololá	701	Sololá	1	Sololá	8	Agosto	2023-10-08T00:00:00	2024-11-08T14:00:00	3	Temperatura mínima	20.1
40476	7	Sololá	701	Sololá	1	Sololá	8	Agosto	2023-10-08T00:00:00	2024-11-08T14:00:00	5	Humedad	88
40477	7	Sololá	701	Sololá	1	Sololá	8	Agosto	2023-10-08T00:00:00	2024-11-08T14:00:00	6	Velocidad del viento	3.2
40478	7	Sololá	701	Sololá	1	Sololá	8	Agosto	2023-10-08T00:00:00	2024-11-08T14:00:00	7	Dirección del viento	3.22
40479	7	Sololá	701	Sololá	1	Sololá	8	Agosto	2023-10-08T00:00:00	2024-11-08T14:00:00	1	Precipitación	0
40480	7	Sololá	701	Sololá	1	Sololá	8	Agosto	2023-10-08T00:00:00	2024-11-08T14:00:00	8	Radiación solar	168
40481	7	Sololá	701	Sololá	1	Sololá	8	Agosto	2023-10-08T00:00:00	2024-11-08T15:00:00	2	Temperatura media	18.7
40482	7	Sololá	701	Sololá	1	Sololá	8	Agosto	2023-10-08T00:00:00	2024-11-08T15:00:00	4	Temperatura máxima	20.1
40483	7	Sololá	701	Sololá	1	Sololá	8	Agosto	2023-10-08T00:00:00	2024-11-08T15:00:00	3	Temperatura mínima	18.7
40484	7	Sololá	701	Sololá	1	Sololá	8	Agosto	2023-10-08T00:00:00	2024-11-08T15:00:00	5	Humedad	93
40485	7	Sololá	701	Sololá	1	Sololá	8	Agosto	2023-10-08T00:00:00	2024-11-08T15:00:00	6	Velocidad del viento	1.6
40486	7	Sololá	701	Sololá	1	Sololá	8	Agosto	2023-10-08T00:00:00	2024-11-08T15:00:00	7	Dirección del viento	1.61
40487	7	Sololá	701	Sololá	1	Sololá	8	Agosto	2023-10-08T00:00:00	2024-11-08T15:00:00	1	Precipitación	0
40488	7	Sololá	701	Sololá	1	Sololá	8	Agosto	2023-10-08T00:00:00	2024-11-08T15:00:00	8	Radiación solar	217
40489	7	Sololá	701	Sololá	1	Sololá	8	Agosto	2023-10-08T00:00:00	2024-11-08T16:00:00	2	Temperatura media	19.6
40490	7	Sololá	701	Sololá	1	Sololá	8	Agosto	2023-10-08T00:00:00	2024-11-08T16:00:00	4	Temperatura máxima	19.6
40491	7	Sololá	701	Sololá	1	Sololá	8	Agosto	2023-10-08T00:00:00	2024-11-08T16:00:00	3	Temperatura mínima	18.6
40492	7	Sololá	701	Sololá	1	Sololá	8	Agosto	2023-10-08T00:00:00	2024-11-08T16:00:00	5	Humedad	89
40493	7	Sololá	701	Sololá	1	Sololá	8	Agosto	2023-10-08T00:00:00	2024-11-08T16:00:00	6	Velocidad del viento	1.6
40494	7	Sololá	701	Sololá	1	Sololá	8	Agosto	2023-10-08T00:00:00	2024-11-08T16:00:00	7	Dirección del viento	1.61
40495	7	Sololá	701	Sololá	1	Sololá	8	Agosto	2023-10-08T00:00:00	2024-11-08T16:00:00	1	Precipitación	0
40496	7	Sololá	701	Sololá	1	Sololá	8	Agosto	2023-10-08T00:00:00	2024-11-08T16:00:00	8	Radiación solar	136
40497	7	Sololá	701	Sololá	1	Sololá	8	Agosto	2023-10-08T00:00:00	2024-11-08T17:00:00	2	Temperatura media	20.6
40498	7	Sololá	701	Sololá	1	Sololá	8	Agosto	2023-10-08T00:00:00	2024-11-08T17:00:00	4	Temperatura máxima	20.7
40499	7	Sololá	701	Sololá	1	Sololá	8	Agosto	2023-10-08T00:00:00	2024-11-08T17:00:00	3	Temperatura mínima	19.6
40500	7	Sololá	701	Sololá	1	Sololá	8	Agosto	2023-10-08T00:00:00	2024-11-08T17:00:00	5	Humedad	72
40501	7	Sololá	701	Sololá	1	Sololá	8	Agosto	2023-10-08T00:00:00	2024-11-08T17:00:00	6	Velocidad del viento	3.2
40502	7	Sololá	701	Sololá	1	Sololá	8	Agosto	2023-10-08T00:00:00	2024-11-08T17:00:00	7	Dirección del viento	3.22
40503	7	Sololá	701	Sololá	1	Sololá	8	Agosto	2023-10-08T00:00:00	2024-11-08T17:00:00	1	Precipitación	0
40504	7	Sololá	701	Sololá	1	Sololá	8	Agosto	2023-10-08T00:00:00	2024-11-08T17:00:00	8	Radiación solar	73
40505	7	Sololá	701	Sololá	1	Sololá	8	Agosto	2023-10-08T00:00:00	2024-11-08T18:00:00	2	Temperatura media	19.6
40506	7	Sololá	701	Sololá	1	Sololá	8	Agosto	2023-10-08T00:00:00	2024-11-08T18:00:00	4	Temperatura máxima	20.6
40507	7	Sololá	701	Sololá	1	Sololá	8	Agosto	2023-10-08T00:00:00	2024-11-08T18:00:00	3	Temperatura mínima	19.6
40508	7	Sololá	701	Sololá	1	Sololá	8	Agosto	2023-10-08T00:00:00	2024-11-08T18:00:00	5	Humedad	77
40509	7	Sololá	701	Sololá	1	Sololá	8	Agosto	2023-10-08T00:00:00	2024-11-08T18:00:00	6	Velocidad del viento	6.4
40510	7	Sololá	701	Sololá	1	Sololá	8	Agosto	2023-10-08T00:00:00	2024-11-08T18:00:00	7	Dirección del viento	6.44
40511	7	Sololá	701	Sololá	1	Sololá	8	Agosto	2023-10-08T00:00:00	2024-11-08T18:00:00	1	Precipitación	0
40512	7	Sololá	701	Sololá	1	Sololá	8	Agosto	2023-10-08T00:00:00	2024-11-08T18:00:00	8	Radiación solar	3
40513	7	Sololá	701	Sololá	1	Sololá	8	Agosto	2023-10-08T00:00:00	2024-11-08T19:00:00	2	Temperatura media	18.6
40514	7	Sololá	701	Sololá	1	Sololá	8	Agosto	2023-10-08T00:00:00	2024-11-08T19:00:00	4	Temperatura máxima	19.6
40515	7	Sololá	701	Sololá	1	Sololá	8	Agosto	2023-10-08T00:00:00	2024-11-08T19:00:00	3	Temperatura mínima	18.6
40516	7	Sololá	701	Sololá	1	Sololá	8	Agosto	2023-10-08T00:00:00	2024-11-08T19:00:00	5	Humedad	81
40517	7	Sololá	701	Sololá	1	Sololá	8	Agosto	2023-10-08T00:00:00	2024-11-08T19:00:00	6	Velocidad del viento	3.2
40518	7	Sololá	701	Sololá	1	Sololá	8	Agosto	2023-10-08T00:00:00	2024-11-08T19:00:00	7	Dirección del viento	3.22
40519	7	Sololá	701	Sololá	1	Sololá	8	Agosto	2023-10-08T00:00:00	2024-11-08T19:00:00	1	Precipitación	0
40520	7	Sololá	701	Sololá	1	Sololá	8	Agosto	2023-10-08T00:00:00	2024-11-08T19:00:00	8	Radiación solar	0
40521	7	Sololá	701	Sololá	1	Sololá	8	Agosto	2023-10-08T00:00:00	2024-11-08T20:00:00	2	Temperatura media	18.6
40522	7	Sololá	701	Sololá	1	Sololá	8	Agosto	2023-10-08T00:00:00	2024-11-08T20:00:00	4	Temperatura máxima	18.9
40523	7	Sololá	701	Sololá	1	Sololá	8	Agosto	2023-10-08T00:00:00	2024-11-08T20:00:00	3	Temperatura mínima	18.6
40524	7	Sololá	701	Sololá	1	Sololá	8	Agosto	2023-10-08T00:00:00	2024-11-08T20:00:00	5	Humedad	78
40525	7	Sololá	701	Sololá	1	Sololá	8	Agosto	2023-10-08T00:00:00	2024-11-08T20:00:00	6	Velocidad del viento	6.4
40526	7	Sololá	701	Sololá	1	Sololá	8	Agosto	2023-10-08T00:00:00	2024-11-08T20:00:00	7	Dirección del viento	6.44
40527	7	Sololá	701	Sololá	1	Sololá	8	Agosto	2023-10-08T00:00:00	2024-11-08T20:00:00	1	Precipitación	0
40528	7	Sololá	701	Sololá	1	Sololá	8	Agosto	2023-10-08T00:00:00	2024-11-08T20:00:00	8	Radiación solar	0
40529	7	Sololá	701	Sololá	1	Sololá	8	Agosto	2023-10-08T00:00:00	2024-11-08T21:00:00	2	Temperatura media	18.4
40530	7	Sololá	701	Sololá	1	Sololá	8	Agosto	2023-10-08T00:00:00	2024-11-08T21:00:00	4	Temperatura máxima	18.9
40531	7	Sololá	701	Sololá	1	Sololá	8	Agosto	2023-10-08T00:00:00	2024-11-08T21:00:00	3	Temperatura mínima	18.4
40532	7	Sololá	701	Sololá	1	Sololá	8	Agosto	2023-10-08T00:00:00	2024-11-08T21:00:00	5	Humedad	74
40533	7	Sololá	701	Sololá	1	Sololá	8	Agosto	2023-10-08T00:00:00	2024-11-08T21:00:00	6	Velocidad del viento	4.8
40534	7	Sololá	701	Sololá	1	Sololá	8	Agosto	2023-10-08T00:00:00	2024-11-08T21:00:00	7	Dirección del viento	4.83
40535	7	Sololá	701	Sololá	1	Sololá	8	Agosto	2023-10-08T00:00:00	2024-11-08T21:00:00	1	Precipitación	0
40536	7	Sololá	701	Sololá	1	Sololá	8	Agosto	2023-10-08T00:00:00	2024-11-08T21:00:00	8	Radiación solar	0
40537	7	Sololá	701	Sololá	1	Sololá	8	Agosto	2023-10-08T00:00:00	2024-11-08T22:00:00	2	Temperatura media	17.8
40538	7	Sololá	701	Sololá	1	Sololá	8	Agosto	2023-10-08T00:00:00	2024-11-08T22:00:00	4	Temperatura máxima	18.4
40539	7	Sololá	701	Sololá	1	Sololá	8	Agosto	2023-10-08T00:00:00	2024-11-08T22:00:00	3	Temperatura mínima	17.2
40540	7	Sololá	701	Sololá	1	Sololá	8	Agosto	2023-10-08T00:00:00	2024-11-08T22:00:00	5	Humedad	81
40541	7	Sololá	701	Sololá	1	Sololá	8	Agosto	2023-10-08T00:00:00	2024-11-08T22:00:00	6	Velocidad del viento	1.6
40542	7	Sololá	701	Sololá	1	Sololá	8	Agosto	2023-10-08T00:00:00	2024-11-08T22:00:00	7	Dirección del viento	1.61
40543	7	Sololá	701	Sololá	1	Sololá	8	Agosto	2023-10-08T00:00:00	2024-11-08T22:00:00	1	Precipitación	0
40544	7	Sololá	701	Sololá	1	Sololá	8	Agosto	2023-10-08T00:00:00	2024-11-08T22:00:00	8	Radiación solar	0
40545	7	Sololá	701	Sololá	1	Sololá	8	Agosto	2023-10-08T00:00:00	2024-11-08T23:00:00	2	Temperatura media	18.1
40546	7	Sololá	701	Sololá	1	Sololá	8	Agosto	2023-10-08T00:00:00	2024-11-08T23:00:00	4	Temperatura máxima	18.1
40547	7	Sololá	701	Sololá	1	Sololá	8	Agosto	2023-10-08T00:00:00	2024-11-08T23:00:00	3	Temperatura mínima	17.7
40548	7	Sololá	701	Sololá	1	Sololá	8	Agosto	2023-10-08T00:00:00	2024-11-08T23:00:00	5	Humedad	80
40549	7	Sololá	701	Sololá	1	Sololá	8	Agosto	2023-10-08T00:00:00	2024-11-08T23:00:00	6	Velocidad del viento	8
40550	7	Sololá	701	Sololá	1	Sololá	8	Agosto	2023-10-08T00:00:00	2024-11-08T23:00:00	7	Dirección del viento	8.05
40551	7	Sololá	701	Sololá	1	Sololá	8	Agosto	2023-10-08T00:00:00	2024-11-08T23:00:00	1	Precipitación	0
40552	7	Sololá	701	Sololá	1	Sololá	8	Agosto	2023-10-08T00:00:00	2024-11-08T23:00:00	8	Radiación solar	0
40553	7	Sololá	701	Sololá	1	Sololá	8	Agosto	2023-11-08T00:00:00	2024-11-08T00:00:00	2	Temperatura media	16.3
40554	7	Sololá	701	Sololá	1	Sololá	8	Agosto	2023-11-08T00:00:00	2024-11-08T00:00:00	4	Temperatura máxima	18.1
40555	7	Sololá	701	Sololá	1	Sololá	8	Agosto	2023-11-08T00:00:00	2024-11-08T00:00:00	3	Temperatura mínima	16.1
40556	7	Sololá	701	Sololá	1	Sololá	8	Agosto	2023-11-08T00:00:00	2024-11-08T00:00:00	5	Humedad	84
40557	7	Sololá	701	Sololá	1	Sololá	8	Agosto	2023-11-08T00:00:00	2024-11-08T00:00:00	6	Velocidad del viento	6.4
40558	7	Sololá	701	Sololá	1	Sololá	8	Agosto	2023-11-08T00:00:00	2024-11-08T00:00:00	7	Dirección del viento	6.44
40559	7	Sololá	701	Sololá	1	Sololá	8	Agosto	2023-11-08T00:00:00	2024-11-08T00:00:00	1	Precipitación	0
40560	7	Sololá	701	Sololá	1	Sololá	8	Agosto	2023-11-08T00:00:00	2024-11-08T00:00:00	8	Radiación solar	0
40561	7	Sololá	701	Sololá	1	Sololá	8	Agosto	2023-11-08T00:00:00	2024-11-08T01:00:00	2	Temperatura media	15.9
40562	7	Sololá	701	Sololá	1	Sololá	8	Agosto	2023-11-08T00:00:00	2024-11-08T01:00:00	4	Temperatura máxima	17.5
40563	7	Sololá	701	Sololá	1	Sololá	8	Agosto	2023-11-08T00:00:00	2024-11-08T01:00:00	3	Temperatura mínima	15.8
40564	7	Sololá	701	Sololá	1	Sololá	8	Agosto	2023-11-08T00:00:00	2024-11-08T01:00:00	5	Humedad	79
40565	7	Sololá	701	Sololá	1	Sololá	8	Agosto	2023-11-08T00:00:00	2024-11-08T01:00:00	6	Velocidad del viento	4.8
40566	7	Sololá	701	Sololá	1	Sololá	8	Agosto	2023-11-08T00:00:00	2024-11-08T01:00:00	7	Dirección del viento	4.83
40567	7	Sololá	701	Sololá	1	Sololá	8	Agosto	2023-11-08T00:00:00	2024-11-08T01:00:00	1	Precipitación	0
40568	7	Sololá	701	Sololá	1	Sololá	8	Agosto	2023-11-08T00:00:00	2024-11-08T01:00:00	8	Radiación solar	0
40569	7	Sololá	701	Sololá	1	Sololá	8	Agosto	2023-11-08T00:00:00	2024-11-08T02:00:00	2	Temperatura media	15.8
40570	7	Sololá	701	Sololá	1	Sololá	8	Agosto	2023-11-08T00:00:00	2024-11-08T02:00:00	4	Temperatura máxima	16.4
40571	7	Sololá	701	Sololá	1	Sololá	8	Agosto	2023-11-08T00:00:00	2024-11-08T02:00:00	3	Temperatura mínima	15.6
40572	7	Sololá	701	Sololá	1	Sololá	8	Agosto	2023-11-08T00:00:00	2024-11-08T02:00:00	5	Humedad	80
40573	7	Sololá	701	Sololá	1	Sololá	8	Agosto	2023-11-08T00:00:00	2024-11-08T02:00:00	6	Velocidad del viento	4.8
40574	7	Sololá	701	Sololá	1	Sololá	8	Agosto	2023-11-08T00:00:00	2024-11-08T02:00:00	7	Dirección del viento	4.83
40575	7	Sololá	701	Sololá	1	Sololá	8	Agosto	2023-11-08T00:00:00	2024-11-08T02:00:00	1	Precipitación	0
40576	7	Sololá	701	Sololá	1	Sololá	8	Agosto	2023-11-08T00:00:00	2024-11-08T02:00:00	8	Radiación solar	0
40577	7	Sololá	701	Sololá	1	Sololá	8	Agosto	2023-11-08T00:00:00	2024-11-08T03:00:00	2	Temperatura media	15.7
40578	7	Sololá	701	Sololá	1	Sololá	8	Agosto	2023-11-08T00:00:00	2024-11-08T03:00:00	4	Temperatura máxima	16.1
40579	7	Sololá	701	Sololá	1	Sololá	8	Agosto	2023-11-08T00:00:00	2024-11-08T03:00:00	3	Temperatura mínima	14.9
40580	7	Sololá	701	Sololá	1	Sololá	8	Agosto	2023-11-08T00:00:00	2024-11-08T03:00:00	5	Humedad	72
40581	7	Sololá	701	Sololá	1	Sololá	8	Agosto	2023-11-08T00:00:00	2024-11-08T03:00:00	6	Velocidad del viento	4.8
40582	7	Sololá	701	Sololá	1	Sololá	8	Agosto	2023-11-08T00:00:00	2024-11-08T03:00:00	7	Dirección del viento	4.83
40583	7	Sololá	701	Sololá	1	Sololá	8	Agosto	2023-11-08T00:00:00	2024-11-08T03:00:00	1	Precipitación	0
40584	7	Sololá	701	Sololá	1	Sololá	8	Agosto	2023-11-08T00:00:00	2024-11-08T03:00:00	8	Radiación solar	0
40585	7	Sololá	701	Sololá	1	Sololá	8	Agosto	2023-11-08T00:00:00	2024-11-08T04:00:00	2	Temperatura media	14.8
40586	7	Sololá	701	Sololá	1	Sololá	8	Agosto	2023-11-08T00:00:00	2024-11-08T04:00:00	4	Temperatura máxima	15.7
40587	7	Sololá	701	Sololá	1	Sololá	8	Agosto	2023-11-08T00:00:00	2024-11-08T04:00:00	3	Temperatura mínima	14.7
40588	7	Sololá	701	Sololá	1	Sololá	8	Agosto	2023-11-08T00:00:00	2024-11-08T04:00:00	5	Humedad	77
40589	7	Sololá	701	Sololá	1	Sololá	8	Agosto	2023-11-08T00:00:00	2024-11-08T04:00:00	6	Velocidad del viento	4.8
40590	7	Sololá	701	Sololá	1	Sololá	8	Agosto	2023-11-08T00:00:00	2024-11-08T04:00:00	7	Dirección del viento	4.83
40591	7	Sololá	701	Sololá	1	Sololá	8	Agosto	2023-11-08T00:00:00	2024-11-08T04:00:00	1	Precipitación	0
40592	7	Sololá	701	Sololá	1	Sololá	8	Agosto	2023-11-08T00:00:00	2024-11-08T04:00:00	8	Radiación solar	0
40593	7	Sololá	701	Sololá	1	Sololá	8	Agosto	2023-11-08T00:00:00	2024-11-08T05:00:00	2	Temperatura media	14.1
40594	7	Sololá	701	Sololá	1	Sololá	8	Agosto	2023-11-08T00:00:00	2024-11-08T05:00:00	4	Temperatura máxima	14.7
40595	7	Sololá	701	Sololá	1	Sololá	8	Agosto	2023-11-08T00:00:00	2024-11-08T05:00:00	3	Temperatura mínima	14
40596	7	Sololá	701	Sololá	1	Sololá	8	Agosto	2023-11-08T00:00:00	2024-11-08T05:00:00	5	Humedad	78
40597	7	Sololá	701	Sololá	1	Sololá	8	Agosto	2023-11-08T00:00:00	2024-11-08T05:00:00	6	Velocidad del viento	1.6
40598	7	Sololá	701	Sololá	1	Sololá	8	Agosto	2023-11-08T00:00:00	2024-11-08T05:00:00	7	Dirección del viento	1.61
40599	7	Sololá	701	Sololá	1	Sololá	8	Agosto	2023-11-08T00:00:00	2024-11-08T05:00:00	1	Precipitación	0
40600	7	Sololá	701	Sololá	1	Sololá	8	Agosto	2023-11-08T00:00:00	2024-11-08T05:00:00	8	Radiación solar	0
40601	7	Sololá	701	Sololá	1	Sololá	8	Agosto	2023-11-08T00:00:00	2024-11-08T06:00:00	2	Temperatura media	14.4
40602	7	Sololá	701	Sololá	1	Sololá	8	Agosto	2023-11-08T00:00:00	2024-11-08T06:00:00	4	Temperatura máxima	14.9
40603	7	Sololá	701	Sololá	1	Sololá	8	Agosto	2023-11-08T00:00:00	2024-11-08T06:00:00	3	Temperatura mínima	14
40604	7	Sololá	701	Sololá	1	Sololá	8	Agosto	2023-11-08T00:00:00	2024-11-08T06:00:00	5	Humedad	79
40605	7	Sololá	701	Sololá	1	Sololá	8	Agosto	2023-11-08T00:00:00	2024-11-08T06:00:00	6	Velocidad del viento	3.2
40606	7	Sololá	701	Sololá	1	Sololá	8	Agosto	2023-11-08T00:00:00	2024-11-08T06:00:00	7	Dirección del viento	3.22
40607	7	Sololá	701	Sololá	1	Sololá	8	Agosto	2023-11-08T00:00:00	2024-11-08T06:00:00	1	Precipitación	0
40608	7	Sololá	701	Sololá	1	Sololá	8	Agosto	2023-11-08T00:00:00	2024-11-08T06:00:00	8	Radiación solar	1
40609	7	Sololá	701	Sololá	1	Sololá	8	Agosto	2023-11-08T00:00:00	2024-11-08T07:00:00	2	Temperatura media	15.9
40610	7	Sololá	701	Sololá	1	Sololá	8	Agosto	2023-11-08T00:00:00	2024-11-08T07:00:00	4	Temperatura máxima	15.9
40611	7	Sololá	701	Sololá	1	Sololá	8	Agosto	2023-11-08T00:00:00	2024-11-08T07:00:00	3	Temperatura mínima	14.3
40612	7	Sololá	701	Sololá	1	Sololá	8	Agosto	2023-11-08T00:00:00	2024-11-08T07:00:00	5	Humedad	69
40613	7	Sololá	701	Sololá	1	Sololá	8	Agosto	2023-11-08T00:00:00	2024-11-08T07:00:00	6	Velocidad del viento	3.2
40614	7	Sololá	701	Sololá	1	Sololá	8	Agosto	2023-11-08T00:00:00	2024-11-08T07:00:00	7	Dirección del viento	3.22
40615	7	Sololá	701	Sololá	1	Sololá	8	Agosto	2023-11-08T00:00:00	2024-11-08T07:00:00	1	Precipitación	0
40616	7	Sololá	701	Sololá	1	Sololá	8	Agosto	2023-11-08T00:00:00	2024-11-08T07:00:00	8	Radiación solar	24
40617	7	Sololá	701	Sololá	1	Sololá	8	Agosto	2023-11-08T00:00:00	2024-11-08T08:00:00	2	Temperatura media	19.1
40618	7	Sololá	701	Sololá	1	Sololá	8	Agosto	2023-11-08T00:00:00	2024-11-08T08:00:00	4	Temperatura máxima	19.1
40619	7	Sololá	701	Sololá	1	Sololá	8	Agosto	2023-11-08T00:00:00	2024-11-08T08:00:00	3	Temperatura mínima	15.8
40620	7	Sololá	701	Sololá	1	Sololá	8	Agosto	2023-11-08T00:00:00	2024-11-08T08:00:00	5	Humedad	62
40621	7	Sololá	701	Sololá	1	Sololá	8	Agosto	2023-11-08T00:00:00	2024-11-08T08:00:00	6	Velocidad del viento	1.6
40622	7	Sololá	701	Sololá	1	Sololá	8	Agosto	2023-11-08T00:00:00	2024-11-08T08:00:00	7	Dirección del viento	1.61
40623	7	Sololá	701	Sololá	1	Sololá	8	Agosto	2023-11-08T00:00:00	2024-11-08T08:00:00	1	Precipitación	0
40624	7	Sololá	701	Sololá	1	Sololá	8	Agosto	2023-11-08T00:00:00	2024-11-08T08:00:00	8	Radiación solar	99
40625	7	Sololá	701	Sololá	1	Sololá	8	Agosto	2023-11-08T00:00:00	2024-11-08T09:00:00	2	Temperatura media	20.2
40626	7	Sololá	701	Sololá	1	Sololá	8	Agosto	2023-11-08T00:00:00	2024-11-08T09:00:00	4	Temperatura máxima	20.2
40627	7	Sololá	701	Sololá	1	Sololá	8	Agosto	2023-11-08T00:00:00	2024-11-08T09:00:00	3	Temperatura mínima	19
40628	7	Sololá	701	Sololá	1	Sololá	8	Agosto	2023-11-08T00:00:00	2024-11-08T09:00:00	5	Humedad	71
40629	7	Sololá	701	Sololá	1	Sololá	8	Agosto	2023-11-08T00:00:00	2024-11-08T09:00:00	6	Velocidad del viento	1.6
40630	7	Sololá	701	Sololá	1	Sololá	8	Agosto	2023-11-08T00:00:00	2024-11-08T09:00:00	7	Dirección del viento	1.61
40631	7	Sololá	701	Sololá	1	Sololá	8	Agosto	2023-11-08T00:00:00	2024-11-08T09:00:00	1	Precipitación	0
40632	7	Sololá	701	Sololá	1	Sololá	8	Agosto	2023-11-08T00:00:00	2024-11-08T09:00:00	8	Radiación solar	642
40633	7	Sololá	701	Sololá	1	Sololá	8	Agosto	2023-11-08T00:00:00	2024-11-08T10:00:00	2	Temperatura media	20.7
40634	7	Sololá	701	Sololá	1	Sololá	8	Agosto	2023-11-08T00:00:00	2024-11-08T10:00:00	4	Temperatura máxima	21.2
40635	7	Sololá	701	Sololá	1	Sololá	8	Agosto	2023-11-08T00:00:00	2024-11-08T10:00:00	3	Temperatura mínima	20.2
40636	7	Sololá	701	Sololá	1	Sololá	8	Agosto	2023-11-08T00:00:00	2024-11-08T10:00:00	5	Humedad	70
40637	7	Sololá	701	Sololá	1	Sololá	8	Agosto	2023-11-08T00:00:00	2024-11-08T10:00:00	6	Velocidad del viento	4.8
40638	7	Sololá	701	Sololá	1	Sololá	8	Agosto	2023-11-08T00:00:00	2024-11-08T10:00:00	7	Dirección del viento	4.83
40639	7	Sololá	701	Sololá	1	Sololá	8	Agosto	2023-11-08T00:00:00	2024-11-08T10:00:00	1	Precipitación	0
40640	7	Sololá	701	Sololá	1	Sololá	8	Agosto	2023-11-08T00:00:00	2024-11-08T10:00:00	8	Radiación solar	843
40641	7	Sololá	701	Sololá	1	Sololá	8	Agosto	2023-11-08T00:00:00	2024-11-08T11:00:00	2	Temperatura media	21.6
40642	7	Sololá	701	Sololá	1	Sololá	8	Agosto	2023-11-08T00:00:00	2024-11-08T11:00:00	4	Temperatura máxima	21.6
40643	7	Sololá	701	Sololá	1	Sololá	8	Agosto	2023-11-08T00:00:00	2024-11-08T11:00:00	3	Temperatura mínima	20.7
40644	7	Sololá	701	Sololá	1	Sololá	8	Agosto	2023-11-08T00:00:00	2024-11-08T11:00:00	5	Humedad	69
40645	7	Sololá	701	Sololá	1	Sololá	8	Agosto	2023-11-08T00:00:00	2024-11-08T11:00:00	6	Velocidad del viento	3.2
40646	7	Sololá	701	Sololá	1	Sololá	8	Agosto	2023-11-08T00:00:00	2024-11-08T11:00:00	7	Dirección del viento	3.22
40647	7	Sololá	701	Sololá	1	Sololá	8	Agosto	2023-11-08T00:00:00	2024-11-08T11:00:00	1	Precipitación	0
40648	7	Sololá	701	Sololá	1	Sololá	8	Agosto	2023-11-08T00:00:00	2024-11-08T11:00:00	8	Radiación solar	974
40649	7	Sololá	701	Sololá	1	Sololá	8	Agosto	2023-11-08T00:00:00	2024-11-08T12:00:00	2	Temperatura media	21.9
40650	7	Sololá	701	Sololá	1	Sololá	8	Agosto	2023-11-08T00:00:00	2024-11-08T12:00:00	4	Temperatura máxima	22.3
40651	7	Sololá	701	Sololá	1	Sololá	8	Agosto	2023-11-08T00:00:00	2024-11-08T12:00:00	3	Temperatura mínima	21.6
40652	7	Sololá	701	Sololá	1	Sololá	8	Agosto	2023-11-08T00:00:00	2024-11-08T12:00:00	5	Humedad	67
40653	7	Sololá	701	Sololá	1	Sololá	8	Agosto	2023-11-08T00:00:00	2024-11-08T12:00:00	6	Velocidad del viento	6.4
40654	7	Sololá	701	Sololá	1	Sololá	8	Agosto	2023-11-08T00:00:00	2024-11-08T12:00:00	7	Dirección del viento	6.44
40655	7	Sololá	701	Sololá	1	Sololá	8	Agosto	2023-11-08T00:00:00	2024-11-08T12:00:00	1	Precipitación	0
40656	7	Sololá	701	Sololá	1	Sololá	8	Agosto	2023-11-08T00:00:00	2024-11-08T12:00:00	8	Radiación solar	1029
40657	7	Sololá	701	Sololá	1	Sololá	8	Agosto	2023-11-08T00:00:00	2024-11-08T13:00:00	2	Temperatura media	22.3
40658	7	Sololá	701	Sololá	1	Sololá	8	Agosto	2023-11-08T00:00:00	2024-11-08T13:00:00	4	Temperatura máxima	22.8
40659	7	Sololá	701	Sololá	1	Sololá	8	Agosto	2023-11-08T00:00:00	2024-11-08T13:00:00	3	Temperatura mínima	21.8
40660	7	Sololá	701	Sololá	1	Sololá	8	Agosto	2023-11-08T00:00:00	2024-11-08T13:00:00	5	Humedad	70
40661	7	Sololá	701	Sololá	1	Sololá	8	Agosto	2023-11-08T00:00:00	2024-11-08T13:00:00	6	Velocidad del viento	4.8
40662	7	Sololá	701	Sololá	1	Sololá	8	Agosto	2023-11-08T00:00:00	2024-11-08T13:00:00	7	Dirección del viento	4.83
40663	7	Sololá	701	Sololá	1	Sololá	8	Agosto	2023-11-08T00:00:00	2024-11-08T13:00:00	1	Precipitación	0
40664	7	Sololá	701	Sololá	1	Sololá	8	Agosto	2023-11-08T00:00:00	2024-11-08T13:00:00	8	Radiación solar	471
40665	7	Sololá	701	Sololá	1	Sololá	8	Agosto	2023-11-08T00:00:00	2024-11-08T14:00:00	2	Temperatura media	22.7
40666	7	Sololá	701	Sololá	1	Sololá	8	Agosto	2023-11-08T00:00:00	2024-11-08T14:00:00	4	Temperatura máxima	22.8
40667	7	Sololá	701	Sololá	1	Sololá	8	Agosto	2023-11-08T00:00:00	2024-11-08T14:00:00	3	Temperatura mínima	22.1
40668	7	Sololá	701	Sololá	1	Sololá	8	Agosto	2023-11-08T00:00:00	2024-11-08T14:00:00	5	Humedad	69
40669	7	Sololá	701	Sololá	1	Sololá	8	Agosto	2023-11-08T00:00:00	2024-11-08T14:00:00	6	Velocidad del viento	4.8
40670	7	Sololá	701	Sololá	1	Sololá	8	Agosto	2023-11-08T00:00:00	2024-11-08T14:00:00	7	Dirección del viento	4.83
40671	7	Sololá	701	Sololá	1	Sololá	8	Agosto	2023-11-08T00:00:00	2024-11-08T14:00:00	1	Precipitación	0
40672	7	Sololá	701	Sololá	1	Sololá	8	Agosto	2023-11-08T00:00:00	2024-11-08T14:00:00	8	Radiación solar	159
40673	7	Sololá	701	Sololá	1	Sololá	8	Agosto	2023-11-08T00:00:00	2024-11-08T15:00:00	2	Temperatura media	22.3
40674	7	Sololá	701	Sololá	1	Sololá	8	Agosto	2023-11-08T00:00:00	2024-11-08T15:00:00	4	Temperatura máxima	22.7
40675	7	Sololá	701	Sololá	1	Sololá	8	Agosto	2023-11-08T00:00:00	2024-11-08T15:00:00	3	Temperatura mínima	22.1
40676	7	Sololá	701	Sololá	1	Sololá	8	Agosto	2023-11-08T00:00:00	2024-11-08T15:00:00	5	Humedad	77
40677	7	Sololá	701	Sololá	1	Sololá	8	Agosto	2023-11-08T00:00:00	2024-11-08T15:00:00	6	Velocidad del viento	6.4
40678	7	Sololá	701	Sololá	1	Sololá	8	Agosto	2023-11-08T00:00:00	2024-11-08T15:00:00	7	Dirección del viento	6.44
40679	7	Sololá	701	Sololá	1	Sololá	8	Agosto	2023-11-08T00:00:00	2024-11-08T15:00:00	1	Precipitación	0
40680	7	Sololá	701	Sololá	1	Sololá	8	Agosto	2023-11-08T00:00:00	2024-11-08T15:00:00	8	Radiación solar	127
40681	7	Sololá	701	Sololá	1	Sololá	8	Agosto	2023-11-08T00:00:00	2024-11-08T16:00:00	2	Temperatura media	21.2
40682	7	Sololá	701	Sololá	1	Sololá	8	Agosto	2023-11-08T00:00:00	2024-11-08T16:00:00	4	Temperatura máxima	22.6
40683	7	Sololá	701	Sololá	1	Sololá	8	Agosto	2023-11-08T00:00:00	2024-11-08T16:00:00	3	Temperatura mínima	20.9
40684	7	Sololá	701	Sololá	1	Sololá	8	Agosto	2023-11-08T00:00:00	2024-11-08T16:00:00	5	Humedad	80
40685	7	Sololá	701	Sololá	1	Sololá	8	Agosto	2023-11-08T00:00:00	2024-11-08T16:00:00	6	Velocidad del viento	4.8
40686	7	Sololá	701	Sololá	1	Sololá	8	Agosto	2023-11-08T00:00:00	2024-11-08T16:00:00	7	Dirección del viento	4.83
40687	7	Sololá	701	Sololá	1	Sololá	8	Agosto	2023-11-08T00:00:00	2024-11-08T16:00:00	1	Precipitación	0
40688	7	Sololá	701	Sololá	1	Sololá	8	Agosto	2023-11-08T00:00:00	2024-11-08T16:00:00	8	Radiación solar	82
40689	7	Sololá	701	Sololá	1	Sololá	8	Agosto	2023-11-08T00:00:00	2024-11-08T17:00:00	2	Temperatura media	20.8
40690	7	Sololá	701	Sololá	1	Sololá	8	Agosto	2023-11-08T00:00:00	2024-11-08T17:00:00	4	Temperatura máxima	21.6
40691	7	Sololá	701	Sololá	1	Sololá	8	Agosto	2023-11-08T00:00:00	2024-11-08T17:00:00	3	Temperatura mínima	20.8
40692	7	Sololá	701	Sololá	1	Sololá	8	Agosto	2023-11-08T00:00:00	2024-11-08T17:00:00	5	Humedad	85
40693	7	Sololá	701	Sololá	1	Sololá	8	Agosto	2023-11-08T00:00:00	2024-11-08T17:00:00	6	Velocidad del viento	3.2
40694	7	Sololá	701	Sololá	1	Sololá	8	Agosto	2023-11-08T00:00:00	2024-11-08T17:00:00	7	Dirección del viento	3.22
40695	7	Sololá	701	Sololá	1	Sololá	8	Agosto	2023-11-08T00:00:00	2024-11-08T17:00:00	1	Precipitación	0
40696	7	Sololá	701	Sololá	1	Sololá	8	Agosto	2023-11-08T00:00:00	2024-11-08T17:00:00	8	Radiación solar	61
40697	7	Sololá	701	Sololá	1	Sololá	8	Agosto	2023-11-08T00:00:00	2024-11-08T18:00:00	2	Temperatura media	19.3
40698	7	Sololá	701	Sololá	1	Sololá	8	Agosto	2023-11-08T00:00:00	2024-11-08T18:00:00	4	Temperatura máxima	20.8
40699	7	Sololá	701	Sololá	1	Sololá	8	Agosto	2023-11-08T00:00:00	2024-11-08T18:00:00	3	Temperatura mínima	19.2
40700	7	Sololá	701	Sololá	1	Sololá	8	Agosto	2023-11-08T00:00:00	2024-11-08T18:00:00	5	Humedad	89
40701	7	Sololá	701	Sololá	1	Sololá	8	Agosto	2023-11-08T00:00:00	2024-11-08T18:00:00	6	Velocidad del viento	1.6
40702	7	Sololá	701	Sololá	1	Sololá	8	Agosto	2023-11-08T00:00:00	2024-11-08T18:00:00	7	Dirección del viento	1.61
40703	7	Sololá	701	Sololá	1	Sololá	8	Agosto	2023-11-08T00:00:00	2024-11-08T18:00:00	1	Precipitación	0
40704	7	Sololá	701	Sololá	1	Sololá	8	Agosto	2023-11-08T00:00:00	2024-11-08T18:00:00	8	Radiación solar	15
40705	7	Sololá	701	Sololá	1	Sololá	8	Agosto	2023-11-08T00:00:00	2024-11-08T19:00:00	2	Temperatura media	19.3
40706	7	Sololá	701	Sololá	1	Sololá	8	Agosto	2023-11-08T00:00:00	2024-11-08T19:00:00	4	Temperatura máxima	19.4
40707	7	Sololá	701	Sololá	1	Sololá	8	Agosto	2023-11-08T00:00:00	2024-11-08T19:00:00	3	Temperatura mínima	18.6
40708	7	Sololá	701	Sololá	1	Sololá	8	Agosto	2023-11-08T00:00:00	2024-11-08T19:00:00	5	Humedad	80
40709	7	Sololá	701	Sololá	1	Sololá	8	Agosto	2023-11-08T00:00:00	2024-11-08T19:00:00	6	Velocidad del viento	1.6
40710	7	Sololá	701	Sololá	1	Sololá	8	Agosto	2023-11-08T00:00:00	2024-11-08T19:00:00	7	Dirección del viento	1.61
40711	7	Sololá	701	Sololá	1	Sololá	8	Agosto	2023-11-08T00:00:00	2024-11-08T19:00:00	1	Precipitación	0
40712	7	Sololá	701	Sololá	1	Sololá	8	Agosto	2023-11-08T00:00:00	2024-11-08T19:00:00	8	Radiación solar	0
40713	7	Sololá	701	Sololá	1	Sololá	8	Agosto	2023-11-08T00:00:00	2024-11-08T20:00:00	2	Temperatura media	19.1
40714	7	Sololá	701	Sololá	1	Sololá	8	Agosto	2023-11-08T00:00:00	2024-11-08T20:00:00	4	Temperatura máxima	19.4
40715	7	Sololá	701	Sololá	1	Sololá	8	Agosto	2023-11-08T00:00:00	2024-11-08T20:00:00	3	Temperatura mínima	19.1
40716	7	Sololá	701	Sololá	1	Sololá	8	Agosto	2023-11-08T00:00:00	2024-11-08T20:00:00	5	Humedad	81
40717	7	Sololá	701	Sololá	1	Sololá	8	Agosto	2023-11-08T00:00:00	2024-11-08T20:00:00	6	Velocidad del viento	8
40718	7	Sololá	701	Sololá	1	Sololá	8	Agosto	2023-11-08T00:00:00	2024-11-08T20:00:00	7	Dirección del viento	8.05
40719	7	Sololá	701	Sololá	1	Sololá	8	Agosto	2023-11-08T00:00:00	2024-11-08T20:00:00	1	Precipitación	0
40720	7	Sololá	701	Sololá	1	Sololá	8	Agosto	2023-11-08T00:00:00	2024-11-08T20:00:00	8	Radiación solar	0
40721	7	Sololá	701	Sololá	1	Sololá	8	Agosto	2023-11-08T00:00:00	2024-11-08T21:00:00	2	Temperatura media	18.9
40722	7	Sololá	701	Sololá	1	Sololá	8	Agosto	2023-11-08T00:00:00	2024-11-08T21:00:00	4	Temperatura máxima	19.1
40723	7	Sololá	701	Sololá	1	Sololá	8	Agosto	2023-11-08T00:00:00	2024-11-08T21:00:00	3	Temperatura mínima	18.8
40724	7	Sololá	701	Sololá	1	Sololá	8	Agosto	2023-11-08T00:00:00	2024-11-08T21:00:00	5	Humedad	80
40725	7	Sololá	701	Sololá	1	Sololá	8	Agosto	2023-11-08T00:00:00	2024-11-08T21:00:00	6	Velocidad del viento	6.4
40726	7	Sololá	701	Sololá	1	Sololá	8	Agosto	2023-11-08T00:00:00	2024-11-08T21:00:00	7	Dirección del viento	6.44
40727	7	Sololá	701	Sololá	1	Sololá	8	Agosto	2023-11-08T00:00:00	2024-11-08T21:00:00	1	Precipitación	0
40728	7	Sololá	701	Sololá	1	Sololá	8	Agosto	2023-11-08T00:00:00	2024-11-08T21:00:00	8	Radiación solar	0
40729	7	Sololá	701	Sololá	1	Sololá	8	Agosto	2023-11-08T00:00:00	2024-11-08T22:00:00	2	Temperatura media	18.1
40730	7	Sololá	701	Sololá	1	Sololá	8	Agosto	2023-11-08T00:00:00	2024-11-08T22:00:00	4	Temperatura máxima	18.9
40731	7	Sololá	701	Sololá	1	Sololá	8	Agosto	2023-11-08T00:00:00	2024-11-08T22:00:00	3	Temperatura mínima	18.1
40732	7	Sololá	701	Sololá	1	Sololá	8	Agosto	2023-11-08T00:00:00	2024-11-08T22:00:00	5	Humedad	82
40733	7	Sololá	701	Sololá	1	Sololá	8	Agosto	2023-11-08T00:00:00	2024-11-08T22:00:00	6	Velocidad del viento	1.6
40734	7	Sololá	701	Sololá	1	Sololá	8	Agosto	2023-11-08T00:00:00	2024-11-08T22:00:00	7	Dirección del viento	1.61
40735	7	Sololá	701	Sololá	1	Sololá	8	Agosto	2023-11-08T00:00:00	2024-11-08T22:00:00	1	Precipitación	0
40736	7	Sololá	701	Sololá	1	Sololá	8	Agosto	2023-11-08T00:00:00	2024-11-08T22:00:00	8	Radiación solar	0
40737	7	Sololá	701	Sololá	1	Sololá	8	Agosto	2023-11-08T00:00:00	2024-11-08T23:00:00	2	Temperatura media	17.6
40738	7	Sololá	701	Sololá	1	Sololá	8	Agosto	2023-11-08T00:00:00	2024-11-08T23:00:00	4	Temperatura máxima	18.1
40739	7	Sololá	701	Sololá	1	Sololá	8	Agosto	2023-11-08T00:00:00	2024-11-08T23:00:00	3	Temperatura mínima	17.6
40740	7	Sololá	701	Sololá	1	Sololá	8	Agosto	2023-11-08T00:00:00	2024-11-08T23:00:00	5	Humedad	80
40741	7	Sololá	701	Sololá	1	Sololá	8	Agosto	2023-11-08T00:00:00	2024-11-08T23:00:00	6	Velocidad del viento	3.2
40742	7	Sololá	701	Sololá	1	Sololá	8	Agosto	2023-11-08T00:00:00	2024-11-08T23:00:00	7	Dirección del viento	3.22
40743	7	Sololá	701	Sololá	1	Sololá	8	Agosto	2023-11-08T00:00:00	2024-11-08T23:00:00	1	Precipitación	0
40744	7	Sololá	701	Sololá	1	Sololá	8	Agosto	2023-11-08T00:00:00	2024-11-08T23:00:00	8	Radiación solar	0
40745	7	Sololá	701	Sololá	1	Sololá	8	Agosto	2023-12-08T00:00:00	2024-11-08T00:00:00	2	Temperatura media	17.1
40746	7	Sololá	701	Sololá	1	Sololá	8	Agosto	2023-12-08T00:00:00	2024-11-08T00:00:00	4	Temperatura máxima	17.6
40747	7	Sololá	701	Sololá	1	Sololá	8	Agosto	2023-12-08T00:00:00	2024-11-08T00:00:00	3	Temperatura mínima	17.1
40748	7	Sololá	701	Sololá	1	Sololá	8	Agosto	2023-12-08T00:00:00	2024-11-08T00:00:00	5	Humedad	81
40749	7	Sololá	701	Sololá	1	Sololá	8	Agosto	2023-12-08T00:00:00	2024-11-08T00:00:00	6	Velocidad del viento	8
40750	7	Sololá	701	Sololá	1	Sololá	8	Agosto	2023-12-08T00:00:00	2024-11-08T00:00:00	7	Dirección del viento	8.05
40751	7	Sololá	701	Sololá	1	Sololá	8	Agosto	2023-12-08T00:00:00	2024-11-08T00:00:00	1	Precipitación	0
40752	7	Sololá	701	Sololá	1	Sololá	8	Agosto	2023-12-08T00:00:00	2024-11-08T00:00:00	8	Radiación solar	0
40753	7	Sololá	701	Sololá	1	Sololá	8	Agosto	2023-12-08T00:00:00	2024-11-08T01:00:00	2	Temperatura media	17.1
40754	7	Sololá	701	Sololá	1	Sololá	8	Agosto	2023-12-08T00:00:00	2024-11-08T01:00:00	4	Temperatura máxima	17.2
40755	7	Sololá	701	Sololá	1	Sololá	8	Agosto	2023-12-08T00:00:00	2024-11-08T01:00:00	3	Temperatura mínima	16.9
40756	7	Sololá	701	Sololá	1	Sololá	8	Agosto	2023-12-08T00:00:00	2024-11-08T01:00:00	5	Humedad	79
40757	7	Sololá	701	Sololá	1	Sololá	8	Agosto	2023-12-08T00:00:00	2024-11-08T01:00:00	6	Velocidad del viento	4.8
40758	7	Sololá	701	Sololá	1	Sololá	8	Agosto	2023-12-08T00:00:00	2024-11-08T01:00:00	7	Dirección del viento	4.83
40759	7	Sololá	701	Sololá	1	Sololá	8	Agosto	2023-12-08T00:00:00	2024-11-08T01:00:00	1	Precipitación	0
40760	7	Sololá	701	Sololá	1	Sololá	8	Agosto	2023-12-08T00:00:00	2024-11-08T01:00:00	8	Radiación solar	0
40761	7	Sololá	701	Sololá	1	Sololá	8	Agosto	2023-12-08T00:00:00	2024-11-08T02:00:00	2	Temperatura media	16
40762	7	Sololá	701	Sololá	1	Sololá	8	Agosto	2023-12-08T00:00:00	2024-11-08T02:00:00	4	Temperatura máxima	17.1
40763	7	Sololá	701	Sololá	1	Sololá	8	Agosto	2023-12-08T00:00:00	2024-11-08T02:00:00	3	Temperatura mínima	16
40764	7	Sololá	701	Sololá	1	Sololá	8	Agosto	2023-12-08T00:00:00	2024-11-08T02:00:00	5	Humedad	81
40765	7	Sololá	701	Sololá	1	Sololá	8	Agosto	2023-12-08T00:00:00	2024-11-08T02:00:00	6	Velocidad del viento	6.4
40766	7	Sololá	701	Sololá	1	Sololá	8	Agosto	2023-12-08T00:00:00	2024-11-08T02:00:00	7	Dirección del viento	6.44
40767	7	Sololá	701	Sololá	1	Sololá	8	Agosto	2023-12-08T00:00:00	2024-11-08T02:00:00	1	Precipitación	0
40768	7	Sololá	701	Sololá	1	Sololá	8	Agosto	2023-12-08T00:00:00	2024-11-08T02:00:00	8	Radiación solar	0
40769	7	Sololá	701	Sololá	1	Sololá	8	Agosto	2023-12-08T00:00:00	2024-11-08T03:00:00	2	Temperatura media	16.2
40770	7	Sololá	701	Sololá	1	Sololá	8	Agosto	2023-12-08T00:00:00	2024-11-08T03:00:00	4	Temperatura máxima	16.2
40771	7	Sololá	701	Sololá	1	Sololá	8	Agosto	2023-12-08T00:00:00	2024-11-08T03:00:00	3	Temperatura mínima	15.7
40772	7	Sololá	701	Sololá	1	Sololá	8	Agosto	2023-12-08T00:00:00	2024-11-08T03:00:00	5	Humedad	82
40773	7	Sololá	701	Sololá	1	Sololá	8	Agosto	2023-12-08T00:00:00	2024-11-08T03:00:00	6	Velocidad del viento	3.2
40774	7	Sololá	701	Sololá	1	Sololá	8	Agosto	2023-12-08T00:00:00	2024-11-08T03:00:00	7	Dirección del viento	3.22
40775	7	Sololá	701	Sololá	1	Sololá	8	Agosto	2023-12-08T00:00:00	2024-11-08T03:00:00	1	Precipitación	0
40776	7	Sololá	701	Sololá	1	Sololá	8	Agosto	2023-12-08T00:00:00	2024-11-08T03:00:00	8	Radiación solar	0
40777	7	Sololá	701	Sololá	1	Sololá	8	Agosto	2023-12-08T00:00:00	2024-11-08T04:00:00	2	Temperatura media	16.4
40778	7	Sololá	701	Sololá	1	Sololá	8	Agosto	2023-12-08T00:00:00	2024-11-08T04:00:00	4	Temperatura máxima	16.4
40779	7	Sololá	701	Sololá	1	Sololá	8	Agosto	2023-12-08T00:00:00	2024-11-08T04:00:00	3	Temperatura mínima	16.1
40780	7	Sololá	701	Sololá	1	Sololá	8	Agosto	2023-12-08T00:00:00	2024-11-08T04:00:00	5	Humedad	81
40781	7	Sololá	701	Sololá	1	Sololá	8	Agosto	2023-12-08T00:00:00	2024-11-08T04:00:00	6	Velocidad del viento	6.4
40782	7	Sololá	701	Sololá	1	Sololá	8	Agosto	2023-12-08T00:00:00	2024-11-08T04:00:00	7	Dirección del viento	6.44
40783	7	Sololá	701	Sololá	1	Sololá	8	Agosto	2023-12-08T00:00:00	2024-11-08T04:00:00	1	Precipitación	0
40784	7	Sololá	701	Sololá	1	Sololá	8	Agosto	2023-12-08T00:00:00	2024-11-08T04:00:00	8	Radiación solar	0
40785	7	Sololá	701	Sololá	1	Sololá	8	Agosto	2023-12-08T00:00:00	2024-11-08T05:00:00	2	Temperatura media	16.8
40786	7	Sololá	701	Sololá	1	Sololá	8	Agosto	2023-12-08T00:00:00	2024-11-08T05:00:00	4	Temperatura máxima	16.8
40787	7	Sololá	701	Sololá	1	Sololá	8	Agosto	2023-12-08T00:00:00	2024-11-08T05:00:00	3	Temperatura mínima	16.2
40788	7	Sololá	701	Sololá	1	Sololá	8	Agosto	2023-12-08T00:00:00	2024-11-08T05:00:00	5	Humedad	79
40789	7	Sololá	701	Sololá	1	Sololá	8	Agosto	2023-12-08T00:00:00	2024-11-08T05:00:00	6	Velocidad del viento	8
40790	7	Sololá	701	Sololá	1	Sololá	8	Agosto	2023-12-08T00:00:00	2024-11-08T05:00:00	7	Dirección del viento	8.05
40791	7	Sololá	701	Sololá	1	Sololá	8	Agosto	2023-12-08T00:00:00	2024-11-08T05:00:00	1	Precipitación	0
40792	7	Sololá	701	Sololá	1	Sololá	8	Agosto	2023-12-08T00:00:00	2024-11-08T05:00:00	8	Radiación solar	0
40793	7	Sololá	701	Sololá	1	Sololá	8	Agosto	2023-12-08T00:00:00	2024-11-08T06:00:00	2	Temperatura media	16.6
40794	7	Sololá	701	Sololá	1	Sololá	8	Agosto	2023-12-08T00:00:00	2024-11-08T06:00:00	4	Temperatura máxima	16.9
40795	7	Sololá	701	Sololá	1	Sololá	8	Agosto	2023-12-08T00:00:00	2024-11-08T06:00:00	3	Temperatura mínima	15.5
40796	7	Sololá	701	Sololá	1	Sololá	8	Agosto	2023-12-08T00:00:00	2024-11-08T06:00:00	5	Humedad	80
40797	7	Sololá	701	Sololá	1	Sololá	8	Agosto	2023-12-08T00:00:00	2024-11-08T06:00:00	6	Velocidad del viento	8
40798	7	Sololá	701	Sololá	1	Sololá	8	Agosto	2023-12-08T00:00:00	2024-11-08T06:00:00	7	Dirección del viento	8.05
40799	7	Sololá	701	Sololá	1	Sololá	8	Agosto	2023-12-08T00:00:00	2024-11-08T06:00:00	1	Precipitación	0
40800	7	Sololá	701	Sololá	1	Sololá	8	Agosto	2023-12-08T00:00:00	2024-11-08T06:00:00	8	Radiación solar	0
40801	7	Sololá	701	Sololá	1	Sololá	8	Agosto	2023-12-08T00:00:00	2024-11-08T07:00:00	2	Temperatura media	17.8
40802	7	Sololá	701	Sololá	1	Sololá	8	Agosto	2023-12-08T00:00:00	2024-11-08T07:00:00	4	Temperatura máxima	17.8
40803	7	Sololá	701	Sololá	1	Sololá	8	Agosto	2023-12-08T00:00:00	2024-11-08T07:00:00	3	Temperatura mínima	16.6
40804	7	Sololá	701	Sololá	1	Sololá	8	Agosto	2023-12-08T00:00:00	2024-11-08T07:00:00	5	Humedad	72
40805	7	Sololá	701	Sololá	1	Sololá	8	Agosto	2023-12-08T00:00:00	2024-11-08T07:00:00	6	Velocidad del viento	11.3
40806	7	Sololá	701	Sololá	1	Sololá	8	Agosto	2023-12-08T00:00:00	2024-11-08T07:00:00	7	Dirección del viento	11.27
40807	7	Sololá	701	Sololá	1	Sololá	8	Agosto	2023-12-08T00:00:00	2024-11-08T07:00:00	1	Precipitación	0
40808	7	Sololá	701	Sololá	1	Sololá	8	Agosto	2023-12-08T00:00:00	2024-11-08T07:00:00	8	Radiación solar	24
40809	7	Sololá	701	Sololá	1	Sololá	8	Agosto	2023-12-08T00:00:00	2024-11-08T08:00:00	2	Temperatura media	18.4
40810	7	Sololá	701	Sololá	1	Sololá	8	Agosto	2023-12-08T00:00:00	2024-11-08T08:00:00	4	Temperatura máxima	18.4
40811	7	Sololá	701	Sololá	1	Sololá	8	Agosto	2023-12-08T00:00:00	2024-11-08T08:00:00	3	Temperatura mínima	17.1
40812	7	Sololá	701	Sololá	1	Sololá	8	Agosto	2023-12-08T00:00:00	2024-11-08T08:00:00	5	Humedad	71
40813	7	Sololá	701	Sololá	1	Sololá	8	Agosto	2023-12-08T00:00:00	2024-11-08T08:00:00	6	Velocidad del viento	3.2
40814	7	Sololá	701	Sololá	1	Sololá	8	Agosto	2023-12-08T00:00:00	2024-11-08T08:00:00	7	Dirección del viento	3.22
40815	7	Sololá	701	Sololá	1	Sololá	8	Agosto	2023-12-08T00:00:00	2024-11-08T08:00:00	1	Precipitación	0
40816	7	Sololá	701	Sololá	1	Sololá	8	Agosto	2023-12-08T00:00:00	2024-11-08T08:00:00	8	Radiación solar	60
40817	7	Sololá	701	Sololá	1	Sololá	8	Agosto	2023-12-08T00:00:00	2024-11-08T09:00:00	2	Temperatura media	20.4
40818	7	Sololá	701	Sololá	1	Sololá	8	Agosto	2023-12-08T00:00:00	2024-11-08T09:00:00	4	Temperatura máxima	20.4
40819	7	Sololá	701	Sololá	1	Sololá	8	Agosto	2023-12-08T00:00:00	2024-11-08T09:00:00	3	Temperatura mínima	18.4
40820	7	Sololá	701	Sololá	1	Sololá	8	Agosto	2023-12-08T00:00:00	2024-11-08T09:00:00	5	Humedad	70
40821	7	Sololá	701	Sololá	1	Sololá	8	Agosto	2023-12-08T00:00:00	2024-11-08T09:00:00	6	Velocidad del viento	1.6
40822	7	Sololá	701	Sololá	1	Sololá	8	Agosto	2023-12-08T00:00:00	2024-11-08T09:00:00	7	Dirección del viento	1.61
40823	7	Sololá	701	Sololá	1	Sololá	8	Agosto	2023-12-08T00:00:00	2024-11-08T09:00:00	1	Precipitación	0
40824	7	Sololá	701	Sololá	1	Sololá	8	Agosto	2023-12-08T00:00:00	2024-11-08T09:00:00	8	Radiación solar	220
40825	7	Sololá	701	Sololá	1	Sololá	8	Agosto	2023-12-08T00:00:00	2024-11-08T10:00:00	2	Temperatura media	22.8
40826	7	Sololá	701	Sololá	1	Sololá	8	Agosto	2023-12-08T00:00:00	2024-11-08T10:00:00	4	Temperatura máxima	22.8
40827	7	Sololá	701	Sololá	1	Sololá	8	Agosto	2023-12-08T00:00:00	2024-11-08T10:00:00	3	Temperatura mínima	20.4
40828	7	Sololá	701	Sololá	1	Sololá	8	Agosto	2023-12-08T00:00:00	2024-11-08T10:00:00	5	Humedad	70
40829	7	Sololá	701	Sololá	1	Sololá	8	Agosto	2023-12-08T00:00:00	2024-11-08T10:00:00	6	Velocidad del viento	4.8
40830	7	Sololá	701	Sololá	1	Sololá	8	Agosto	2023-12-08T00:00:00	2024-11-08T10:00:00	7	Dirección del viento	4.83
40831	7	Sololá	701	Sololá	1	Sololá	8	Agosto	2023-12-08T00:00:00	2024-11-08T10:00:00	1	Precipitación	0
40832	7	Sololá	701	Sololá	1	Sololá	8	Agosto	2023-12-08T00:00:00	2024-11-08T10:00:00	8	Radiación solar	484
40833	7	Sololá	701	Sololá	1	Sololá	8	Agosto	2023-12-08T00:00:00	2024-11-08T11:00:00	2	Temperatura media	23.4
40834	7	Sololá	701	Sololá	1	Sololá	8	Agosto	2023-12-08T00:00:00	2024-11-08T11:00:00	4	Temperatura máxima	23.4
40835	7	Sololá	701	Sololá	1	Sololá	8	Agosto	2023-12-08T00:00:00	2024-11-08T11:00:00	3	Temperatura mínima	22.6
40836	7	Sololá	701	Sololá	1	Sololá	8	Agosto	2023-12-08T00:00:00	2024-11-08T11:00:00	5	Humedad	62
40837	7	Sololá	701	Sololá	1	Sololá	8	Agosto	2023-12-08T00:00:00	2024-11-08T11:00:00	6	Velocidad del viento	6.4
40838	7	Sololá	701	Sololá	1	Sololá	8	Agosto	2023-12-08T00:00:00	2024-11-08T11:00:00	7	Dirección del viento	6.44
40839	7	Sololá	701	Sololá	1	Sololá	8	Agosto	2023-12-08T00:00:00	2024-11-08T11:00:00	1	Precipitación	0
40840	7	Sololá	701	Sololá	1	Sololá	8	Agosto	2023-12-08T00:00:00	2024-11-08T11:00:00	8	Radiación solar	660
40841	7	Sololá	701	Sololá	1	Sololá	8	Agosto	2023-12-08T00:00:00	2024-11-08T12:00:00	2	Temperatura media	23
40842	7	Sololá	701	Sololá	1	Sololá	8	Agosto	2023-12-08T00:00:00	2024-11-08T12:00:00	4	Temperatura máxima	23.9
40843	7	Sololá	701	Sololá	1	Sololá	8	Agosto	2023-12-08T00:00:00	2024-11-08T12:00:00	3	Temperatura mínima	22.9
40844	7	Sololá	701	Sololá	1	Sololá	8	Agosto	2023-12-08T00:00:00	2024-11-08T12:00:00	5	Humedad	70
40845	7	Sololá	701	Sololá	1	Sololá	8	Agosto	2023-12-08T00:00:00	2024-11-08T12:00:00	6	Velocidad del viento	8
40846	7	Sololá	701	Sololá	1	Sololá	8	Agosto	2023-12-08T00:00:00	2024-11-08T12:00:00	7	Dirección del viento	8.05
40847	7	Sololá	701	Sololá	1	Sololá	8	Agosto	2023-12-08T00:00:00	2024-11-08T12:00:00	1	Precipitación	0
40848	7	Sololá	701	Sololá	1	Sololá	8	Agosto	2023-12-08T00:00:00	2024-11-08T12:00:00	8	Radiación solar	899
40849	7	Sololá	701	Sololá	1	Sololá	8	Agosto	2023-12-08T00:00:00	2024-11-08T13:00:00	2	Temperatura media	22.6
40850	7	Sololá	701	Sololá	1	Sololá	8	Agosto	2023-12-08T00:00:00	2024-11-08T13:00:00	4	Temperatura máxima	23
40851	7	Sololá	701	Sololá	1	Sololá	8	Agosto	2023-12-08T00:00:00	2024-11-08T13:00:00	3	Temperatura mínima	21.4
40852	7	Sololá	701	Sololá	1	Sololá	8	Agosto	2023-12-08T00:00:00	2024-11-08T13:00:00	5	Humedad	76
40853	7	Sololá	701	Sololá	1	Sololá	8	Agosto	2023-12-08T00:00:00	2024-11-08T13:00:00	6	Velocidad del viento	6.4
40854	7	Sololá	701	Sololá	1	Sololá	8	Agosto	2023-12-08T00:00:00	2024-11-08T13:00:00	7	Dirección del viento	6.44
40855	7	Sololá	701	Sololá	1	Sololá	8	Agosto	2023-12-08T00:00:00	2024-11-08T13:00:00	1	Precipitación	0
40856	7	Sololá	701	Sololá	1	Sololá	8	Agosto	2023-12-08T00:00:00	2024-11-08T13:00:00	8	Radiación solar	732
40857	7	Sololá	701	Sololá	1	Sololá	8	Agosto	2023-12-08T00:00:00	2024-11-08T14:00:00	2	Temperatura media	22.4
40858	7	Sololá	701	Sololá	1	Sololá	8	Agosto	2023-12-08T00:00:00	2024-11-08T14:00:00	4	Temperatura máxima	23.6
40859	7	Sololá	701	Sololá	1	Sololá	8	Agosto	2023-12-08T00:00:00	2024-11-08T14:00:00	3	Temperatura mínima	21.5
40860	7	Sololá	701	Sololá	1	Sololá	8	Agosto	2023-12-08T00:00:00	2024-11-08T14:00:00	5	Humedad	76
40861	7	Sololá	701	Sololá	1	Sololá	8	Agosto	2023-12-08T00:00:00	2024-11-08T14:00:00	6	Velocidad del viento	6.4
40862	7	Sololá	701	Sololá	1	Sololá	8	Agosto	2023-12-08T00:00:00	2024-11-08T14:00:00	7	Dirección del viento	6.44
40863	7	Sololá	701	Sololá	1	Sololá	8	Agosto	2023-12-08T00:00:00	2024-11-08T14:00:00	1	Precipitación	0
40864	7	Sololá	701	Sololá	1	Sololá	8	Agosto	2023-12-08T00:00:00	2024-11-08T14:00:00	8	Radiación solar	149
40865	7	Sololá	701	Sololá	1	Sololá	8	Agosto	2023-12-08T00:00:00	2024-11-08T15:00:00	2	Temperatura media	21.9
40866	7	Sololá	701	Sololá	1	Sololá	8	Agosto	2023-12-08T00:00:00	2024-11-08T15:00:00	4	Temperatura máxima	22.6
40867	7	Sololá	701	Sololá	1	Sololá	8	Agosto	2023-12-08T00:00:00	2024-11-08T15:00:00	3	Temperatura mínima	21.4
40868	7	Sololá	701	Sololá	1	Sololá	8	Agosto	2023-12-08T00:00:00	2024-11-08T15:00:00	5	Humedad	81
40869	7	Sololá	701	Sololá	1	Sololá	8	Agosto	2023-12-08T00:00:00	2024-11-08T15:00:00	6	Velocidad del viento	6.4
40870	7	Sololá	701	Sololá	1	Sololá	8	Agosto	2023-12-08T00:00:00	2024-11-08T15:00:00	7	Dirección del viento	6.44
40871	7	Sololá	701	Sololá	1	Sololá	8	Agosto	2023-12-08T00:00:00	2024-11-08T15:00:00	1	Precipitación	0
40872	7	Sololá	701	Sololá	1	Sololá	8	Agosto	2023-12-08T00:00:00	2024-11-08T15:00:00	8	Radiación solar	50
40873	7	Sololá	701	Sololá	1	Sololá	8	Agosto	2023-12-08T00:00:00	2024-11-08T16:00:00	2	Temperatura media	22.7
40874	7	Sololá	701	Sololá	1	Sololá	8	Agosto	2023-12-08T00:00:00	2024-11-08T16:00:00	4	Temperatura máxima	22.8
40875	7	Sololá	701	Sololá	1	Sololá	8	Agosto	2023-12-08T00:00:00	2024-11-08T16:00:00	3	Temperatura mínima	21.6
40876	7	Sololá	701	Sololá	1	Sololá	8	Agosto	2023-12-08T00:00:00	2024-11-08T16:00:00	5	Humedad	79
40877	7	Sololá	701	Sololá	1	Sololá	8	Agosto	2023-12-08T00:00:00	2024-11-08T16:00:00	6	Velocidad del viento	4.8
40878	7	Sololá	701	Sololá	1	Sololá	8	Agosto	2023-12-08T00:00:00	2024-11-08T16:00:00	7	Dirección del viento	4.83
40879	7	Sololá	701	Sololá	1	Sololá	8	Agosto	2023-12-08T00:00:00	2024-11-08T16:00:00	1	Precipitación	0
40880	7	Sololá	701	Sololá	1	Sololá	8	Agosto	2023-12-08T00:00:00	2024-11-08T16:00:00	8	Radiación solar	72
40881	7	Sololá	701	Sololá	1	Sololá	8	Agosto	2023-12-08T00:00:00	2024-11-08T17:00:00	2	Temperatura media	20.8
40882	7	Sololá	701	Sololá	1	Sololá	8	Agosto	2023-12-08T00:00:00	2024-11-08T17:00:00	4	Temperatura máxima	22.7
40883	7	Sololá	701	Sololá	1	Sololá	8	Agosto	2023-12-08T00:00:00	2024-11-08T17:00:00	3	Temperatura mínima	20.8
40884	7	Sololá	701	Sololá	1	Sololá	8	Agosto	2023-12-08T00:00:00	2024-11-08T17:00:00	5	Humedad	87
40885	7	Sololá	701	Sololá	1	Sololá	8	Agosto	2023-12-08T00:00:00	2024-11-08T17:00:00	6	Velocidad del viento	4.8
40886	7	Sololá	701	Sololá	1	Sololá	8	Agosto	2023-12-08T00:00:00	2024-11-08T17:00:00	7	Dirección del viento	4.83
40887	7	Sololá	701	Sololá	1	Sololá	8	Agosto	2023-12-08T00:00:00	2024-11-08T17:00:00	1	Precipitación	0
40888	7	Sololá	701	Sololá	1	Sololá	8	Agosto	2023-12-08T00:00:00	2024-11-08T17:00:00	8	Radiación solar	1
40889	7	Sololá	701	Sololá	1	Sololá	8	Agosto	2023-12-08T00:00:00	2024-11-08T18:00:00	2	Temperatura media	20.1
40890	7	Sololá	701	Sololá	1	Sololá	8	Agosto	2023-12-08T00:00:00	2024-11-08T18:00:00	4	Temperatura máxima	20.9
40891	7	Sololá	701	Sololá	1	Sololá	8	Agosto	2023-12-08T00:00:00	2024-11-08T18:00:00	3	Temperatura mínima	20.1
40892	7	Sololá	701	Sololá	1	Sololá	8	Agosto	2023-12-08T00:00:00	2024-11-08T18:00:00	5	Humedad	88
40893	7	Sololá	701	Sololá	1	Sololá	8	Agosto	2023-12-08T00:00:00	2024-11-08T18:00:00	6	Velocidad del viento	1.6
40894	7	Sololá	701	Sololá	1	Sololá	8	Agosto	2023-12-08T00:00:00	2024-11-08T18:00:00	7	Dirección del viento	1.61
40895	7	Sololá	701	Sololá	1	Sololá	8	Agosto	2023-12-08T00:00:00	2024-11-08T18:00:00	1	Precipitación	0
40896	7	Sololá	701	Sololá	1	Sololá	8	Agosto	2023-12-08T00:00:00	2024-11-08T18:00:00	8	Radiación solar	0
40897	7	Sololá	701	Sololá	1	Sololá	8	Agosto	2023-12-08T00:00:00	2024-11-08T19:00:00	2	Temperatura media	19.1
40898	7	Sololá	701	Sololá	1	Sololá	8	Agosto	2023-12-08T00:00:00	2024-11-08T19:00:00	4	Temperatura máxima	20.1
40899	7	Sololá	701	Sololá	1	Sololá	8	Agosto	2023-12-08T00:00:00	2024-11-08T19:00:00	3	Temperatura mínima	19.1
40900	7	Sololá	701	Sololá	1	Sololá	8	Agosto	2023-12-08T00:00:00	2024-11-08T19:00:00	5	Humedad	81
40901	7	Sololá	701	Sololá	1	Sololá	8	Agosto	2023-12-08T00:00:00	2024-11-08T19:00:00	6	Velocidad del viento	6.4
40902	7	Sololá	701	Sololá	1	Sololá	8	Agosto	2023-12-08T00:00:00	2024-11-08T19:00:00	7	Dirección del viento	6.44
40903	7	Sololá	701	Sololá	1	Sololá	8	Agosto	2023-12-08T00:00:00	2024-11-08T19:00:00	1	Precipitación	0
40904	7	Sololá	701	Sololá	1	Sololá	8	Agosto	2023-12-08T00:00:00	2024-11-08T19:00:00	8	Radiación solar	0
40905	7	Sololá	701	Sololá	1	Sololá	8	Agosto	2023-12-08T00:00:00	2024-11-08T20:00:00	2	Temperatura media	19
40906	7	Sololá	701	Sololá	1	Sololá	8	Agosto	2023-12-08T00:00:00	2024-11-08T20:00:00	4	Temperatura máxima	19.2
40907	7	Sololá	701	Sololá	1	Sololá	8	Agosto	2023-12-08T00:00:00	2024-11-08T20:00:00	3	Temperatura mínima	18.9
40908	7	Sololá	701	Sololá	1	Sololá	8	Agosto	2023-12-08T00:00:00	2024-11-08T20:00:00	5	Humedad	79
40909	7	Sololá	701	Sololá	1	Sololá	8	Agosto	2023-12-08T00:00:00	2024-11-08T20:00:00	6	Velocidad del viento	6.4
40910	7	Sololá	701	Sololá	1	Sololá	8	Agosto	2023-12-08T00:00:00	2024-11-08T20:00:00	7	Dirección del viento	6.44
40911	7	Sololá	701	Sololá	1	Sololá	8	Agosto	2023-12-08T00:00:00	2024-11-08T20:00:00	1	Precipitación	0
40912	7	Sololá	701	Sololá	1	Sololá	8	Agosto	2023-12-08T00:00:00	2024-11-08T20:00:00	8	Radiación solar	0
40913	7	Sololá	701	Sololá	1	Sololá	8	Agosto	2023-12-08T00:00:00	2024-11-08T21:00:00	2	Temperatura media	18.1
40914	7	Sololá	701	Sololá	1	Sololá	8	Agosto	2023-12-08T00:00:00	2024-11-08T21:00:00	4	Temperatura máxima	19
40915	7	Sololá	701	Sololá	1	Sololá	8	Agosto	2023-12-08T00:00:00	2024-11-08T21:00:00	3	Temperatura mínima	18.1
40916	7	Sololá	701	Sololá	1	Sololá	8	Agosto	2023-12-08T00:00:00	2024-11-08T21:00:00	5	Humedad	79
40917	7	Sololá	701	Sololá	1	Sololá	8	Agosto	2023-12-08T00:00:00	2024-11-08T21:00:00	6	Velocidad del viento	4.8
40918	7	Sololá	701	Sololá	1	Sololá	8	Agosto	2023-12-08T00:00:00	2024-11-08T21:00:00	7	Dirección del viento	4.83
40919	7	Sololá	701	Sololá	1	Sololá	8	Agosto	2023-12-08T00:00:00	2024-11-08T21:00:00	1	Precipitación	0
40920	7	Sololá	701	Sololá	1	Sololá	8	Agosto	2023-12-08T00:00:00	2024-11-08T21:00:00	8	Radiación solar	0
40921	7	Sololá	701	Sololá	1	Sololá	8	Agosto	2023-12-08T00:00:00	2024-11-08T22:00:00	2	Temperatura media	17.4
40922	7	Sololá	701	Sololá	1	Sololá	8	Agosto	2023-12-08T00:00:00	2024-11-08T22:00:00	4	Temperatura máxima	18.1
40923	7	Sololá	701	Sololá	1	Sololá	8	Agosto	2023-12-08T00:00:00	2024-11-08T22:00:00	3	Temperatura mínima	17.4
40924	7	Sololá	701	Sololá	1	Sololá	8	Agosto	2023-12-08T00:00:00	2024-11-08T22:00:00	5	Humedad	81
40925	7	Sololá	701	Sololá	1	Sololá	8	Agosto	2023-12-08T00:00:00	2024-11-08T22:00:00	6	Velocidad del viento	8
40926	7	Sololá	701	Sololá	1	Sololá	8	Agosto	2023-12-08T00:00:00	2024-11-08T22:00:00	7	Dirección del viento	8.05
40927	7	Sololá	701	Sololá	1	Sololá	8	Agosto	2023-12-08T00:00:00	2024-11-08T22:00:00	1	Precipitación	0
40928	7	Sololá	701	Sololá	1	Sololá	8	Agosto	2023-12-08T00:00:00	2024-11-08T22:00:00	8	Radiación solar	0
40929	7	Sololá	701	Sololá	1	Sololá	8	Agosto	2023-12-08T00:00:00	2024-11-08T23:00:00	2	Temperatura media	17.2
40930	7	Sololá	701	Sololá	1	Sololá	8	Agosto	2023-12-08T00:00:00	2024-11-08T23:00:00	4	Temperatura máxima	17.4
40931	7	Sololá	701	Sololá	1	Sololá	8	Agosto	2023-12-08T00:00:00	2024-11-08T23:00:00	3	Temperatura mínima	17.1
40932	7	Sololá	701	Sololá	1	Sololá	8	Agosto	2023-12-08T00:00:00	2024-11-08T23:00:00	5	Humedad	80
40933	7	Sololá	701	Sololá	1	Sololá	8	Agosto	2023-12-08T00:00:00	2024-11-08T23:00:00	6	Velocidad del viento	12.9
40934	7	Sololá	701	Sololá	1	Sololá	8	Agosto	2023-12-08T00:00:00	2024-11-08T23:00:00	7	Dirección del viento	12.87
40935	7	Sololá	701	Sololá	1	Sololá	8	Agosto	2023-12-08T00:00:00	2024-11-08T23:00:00	1	Precipitación	0
40936	7	Sololá	701	Sololá	1	Sololá	8	Agosto	2023-12-08T00:00:00	2024-11-08T23:00:00	8	Radiación solar	0
40937	7	Sololá	701	Sololá	1	Sololá	8	Agosto	2023-08-13T00:00:00	2024-11-08T00:00:00	2	Temperatura media	16.3
40938	7	Sololá	701	Sololá	1	Sololá	8	Agosto	2023-08-13T00:00:00	2024-11-08T00:00:00	4	Temperatura máxima	17.2
40939	7	Sololá	701	Sololá	1	Sololá	8	Agosto	2023-08-13T00:00:00	2024-11-08T00:00:00	3	Temperatura mínima	16.3
40940	7	Sololá	701	Sololá	1	Sololá	8	Agosto	2023-08-13T00:00:00	2024-11-08T00:00:00	5	Humedad	77
40941	7	Sololá	701	Sololá	1	Sololá	8	Agosto	2023-08-13T00:00:00	2024-11-08T00:00:00	6	Velocidad del viento	16.1
40942	7	Sololá	701	Sololá	1	Sololá	8	Agosto	2023-08-13T00:00:00	2024-11-08T00:00:00	7	Dirección del viento	16.09
40943	7	Sololá	701	Sololá	1	Sololá	8	Agosto	2023-08-13T00:00:00	2024-11-08T00:00:00	1	Precipitación	0
40944	7	Sololá	701	Sololá	1	Sololá	8	Agosto	2023-08-13T00:00:00	2024-11-08T00:00:00	8	Radiación solar	0
40945	7	Sololá	701	Sololá	1	Sololá	8	Agosto	2023-08-13T00:00:00	2024-11-08T01:00:00	2	Temperatura media	16.3
40946	7	Sololá	701	Sololá	1	Sololá	8	Agosto	2023-08-13T00:00:00	2024-11-08T01:00:00	4	Temperatura máxima	16.3
40947	7	Sololá	701	Sololá	1	Sololá	8	Agosto	2023-08-13T00:00:00	2024-11-08T01:00:00	3	Temperatura mínima	16.1
40948	7	Sololá	701	Sololá	1	Sololá	8	Agosto	2023-08-13T00:00:00	2024-11-08T01:00:00	5	Humedad	72
40949	7	Sololá	701	Sololá	1	Sololá	8	Agosto	2023-08-13T00:00:00	2024-11-08T01:00:00	6	Velocidad del viento	17.7
40950	7	Sololá	701	Sololá	1	Sololá	8	Agosto	2023-08-13T00:00:00	2024-11-08T01:00:00	7	Dirección del viento	17.7
40951	7	Sololá	701	Sololá	1	Sololá	8	Agosto	2023-08-13T00:00:00	2024-11-08T01:00:00	1	Precipitación	0
40952	7	Sololá	701	Sololá	1	Sololá	8	Agosto	2023-08-13T00:00:00	2024-11-08T01:00:00	8	Radiación solar	0
40953	7	Sololá	701	Sololá	1	Sololá	8	Agosto	2023-08-13T00:00:00	2024-11-08T02:00:00	2	Temperatura media	16.2
40954	7	Sololá	701	Sololá	1	Sololá	8	Agosto	2023-08-13T00:00:00	2024-11-08T02:00:00	4	Temperatura máxima	16.4
40955	7	Sololá	701	Sololá	1	Sololá	8	Agosto	2023-08-13T00:00:00	2024-11-08T02:00:00	3	Temperatura mínima	16.2
40956	7	Sololá	701	Sololá	1	Sololá	8	Agosto	2023-08-13T00:00:00	2024-11-08T02:00:00	5	Humedad	73
40957	7	Sololá	701	Sololá	1	Sololá	8	Agosto	2023-08-13T00:00:00	2024-11-08T02:00:00	6	Velocidad del viento	17.7
40958	7	Sololá	701	Sololá	1	Sololá	8	Agosto	2023-08-13T00:00:00	2024-11-08T02:00:00	7	Dirección del viento	17.7
40959	7	Sololá	701	Sololá	1	Sololá	8	Agosto	2023-08-13T00:00:00	2024-11-08T02:00:00	1	Precipitación	0
40960	7	Sololá	701	Sololá	1	Sololá	8	Agosto	2023-08-13T00:00:00	2024-11-08T02:00:00	8	Radiación solar	0
40961	7	Sololá	701	Sololá	1	Sololá	8	Agosto	2023-08-13T00:00:00	2024-11-08T03:00:00	2	Temperatura media	16
40962	7	Sololá	701	Sololá	1	Sololá	8	Agosto	2023-08-13T00:00:00	2024-11-08T03:00:00	4	Temperatura máxima	16.2
40963	7	Sololá	701	Sololá	1	Sololá	8	Agosto	2023-08-13T00:00:00	2024-11-08T03:00:00	3	Temperatura mínima	15.9
40964	7	Sololá	701	Sololá	1	Sololá	8	Agosto	2023-08-13T00:00:00	2024-11-08T03:00:00	5	Humedad	74
40965	7	Sololá	701	Sololá	1	Sololá	8	Agosto	2023-08-13T00:00:00	2024-11-08T03:00:00	6	Velocidad del viento	20.9
40966	7	Sololá	701	Sololá	1	Sololá	8	Agosto	2023-08-13T00:00:00	2024-11-08T03:00:00	7	Dirección del viento	20.92
40967	7	Sololá	701	Sololá	1	Sololá	8	Agosto	2023-08-13T00:00:00	2024-11-08T03:00:00	1	Precipitación	0
40968	7	Sololá	701	Sololá	1	Sololá	8	Agosto	2023-08-13T00:00:00	2024-11-08T03:00:00	8	Radiación solar	0
40969	7	Sololá	701	Sololá	1	Sololá	8	Agosto	2023-08-13T00:00:00	2024-11-08T04:00:00	2	Temperatura media	16.1
40970	7	Sololá	701	Sololá	1	Sololá	8	Agosto	2023-08-13T00:00:00	2024-11-08T04:00:00	4	Temperatura máxima	16.2
40971	7	Sololá	701	Sololá	1	Sololá	8	Agosto	2023-08-13T00:00:00	2024-11-08T04:00:00	3	Temperatura mínima	15.7
40972	7	Sololá	701	Sololá	1	Sololá	8	Agosto	2023-08-13T00:00:00	2024-11-08T04:00:00	5	Humedad	74
40973	7	Sololá	701	Sololá	1	Sololá	8	Agosto	2023-08-13T00:00:00	2024-11-08T04:00:00	6	Velocidad del viento	16.1
40974	7	Sololá	701	Sololá	1	Sololá	8	Agosto	2023-08-13T00:00:00	2024-11-08T04:00:00	7	Dirección del viento	16.09
40975	7	Sololá	701	Sololá	1	Sololá	8	Agosto	2023-08-13T00:00:00	2024-11-08T04:00:00	1	Precipitación	0
40976	7	Sololá	701	Sololá	1	Sololá	8	Agosto	2023-08-13T00:00:00	2024-11-08T04:00:00	8	Radiación solar	0
40977	7	Sololá	701	Sololá	1	Sololá	8	Agosto	2023-08-13T00:00:00	2024-11-08T05:00:00	2	Temperatura media	16.5
40978	7	Sololá	701	Sololá	1	Sololá	8	Agosto	2023-08-13T00:00:00	2024-11-08T05:00:00	4	Temperatura máxima	16.7
40979	7	Sololá	701	Sololá	1	Sololá	8	Agosto	2023-08-13T00:00:00	2024-11-08T05:00:00	3	Temperatura mínima	16.1
40980	7	Sololá	701	Sololá	1	Sololá	8	Agosto	2023-08-13T00:00:00	2024-11-08T05:00:00	5	Humedad	75
40981	7	Sololá	701	Sololá	1	Sololá	8	Agosto	2023-08-13T00:00:00	2024-11-08T05:00:00	6	Velocidad del viento	11.3
40982	7	Sololá	701	Sololá	1	Sololá	8	Agosto	2023-08-13T00:00:00	2024-11-08T05:00:00	7	Dirección del viento	11.27
40983	7	Sololá	701	Sololá	1	Sololá	8	Agosto	2023-08-13T00:00:00	2024-11-08T05:00:00	1	Precipitación	0
40984	7	Sololá	701	Sololá	1	Sololá	8	Agosto	2023-08-13T00:00:00	2024-11-08T05:00:00	8	Radiación solar	0
40985	7	Sololá	701	Sololá	1	Sololá	8	Agosto	2023-08-13T00:00:00	2024-11-08T06:00:00	2	Temperatura media	16.7
40986	7	Sololá	701	Sololá	1	Sololá	8	Agosto	2023-08-13T00:00:00	2024-11-08T06:00:00	4	Temperatura máxima	16.7
40987	7	Sololá	701	Sololá	1	Sololá	8	Agosto	2023-08-13T00:00:00	2024-11-08T06:00:00	3	Temperatura mínima	16.3
40988	7	Sololá	701	Sololá	1	Sololá	8	Agosto	2023-08-13T00:00:00	2024-11-08T06:00:00	5	Humedad	76
40989	7	Sololá	701	Sololá	1	Sololá	8	Agosto	2023-08-13T00:00:00	2024-11-08T06:00:00	6	Velocidad del viento	11.3
40990	7	Sololá	701	Sololá	1	Sololá	8	Agosto	2023-08-13T00:00:00	2024-11-08T06:00:00	7	Dirección del viento	11.27
40991	7	Sololá	701	Sololá	1	Sololá	8	Agosto	2023-08-13T00:00:00	2024-11-08T06:00:00	1	Precipitación	0
40992	7	Sololá	701	Sololá	1	Sololá	8	Agosto	2023-08-13T00:00:00	2024-11-08T06:00:00	8	Radiación solar	0
40993	7	Sololá	701	Sololá	1	Sololá	8	Agosto	2023-08-13T00:00:00	2024-11-08T07:00:00	2	Temperatura media	17.2
40994	7	Sololá	701	Sololá	1	Sololá	8	Agosto	2023-08-13T00:00:00	2024-11-08T07:00:00	4	Temperatura máxima	17.2
40995	7	Sololá	701	Sololá	1	Sololá	8	Agosto	2023-08-13T00:00:00	2024-11-08T07:00:00	3	Temperatura mínima	16.5
40996	7	Sololá	701	Sololá	1	Sololá	8	Agosto	2023-08-13T00:00:00	2024-11-08T07:00:00	5	Humedad	76
40997	7	Sololá	701	Sololá	1	Sololá	8	Agosto	2023-08-13T00:00:00	2024-11-08T07:00:00	6	Velocidad del viento	11.3
40998	7	Sololá	701	Sololá	1	Sololá	8	Agosto	2023-08-13T00:00:00	2024-11-08T07:00:00	7	Dirección del viento	11.27
40999	7	Sololá	701	Sololá	1	Sololá	8	Agosto	2023-08-13T00:00:00	2024-11-08T07:00:00	1	Precipitación	0
41000	7	Sololá	701	Sololá	1	Sololá	8	Agosto	2023-08-13T00:00:00	2024-11-08T07:00:00	8	Radiación solar	14
41001	7	Sololá	701	Sololá	1	Sololá	8	Agosto	2023-08-13T00:00:00	2024-11-08T08:00:00	2	Temperatura media	18.1
41002	7	Sololá	701	Sololá	1	Sololá	8	Agosto	2023-08-13T00:00:00	2024-11-08T08:00:00	4	Temperatura máxima	18.1
41003	7	Sololá	701	Sololá	1	Sololá	8	Agosto	2023-08-13T00:00:00	2024-11-08T08:00:00	3	Temperatura mínima	17.2
41004	7	Sololá	701	Sololá	1	Sololá	8	Agosto	2023-08-13T00:00:00	2024-11-08T08:00:00	5	Humedad	76
41005	7	Sololá	701	Sololá	1	Sololá	8	Agosto	2023-08-13T00:00:00	2024-11-08T08:00:00	6	Velocidad del viento	12.9
41006	7	Sololá	701	Sololá	1	Sololá	8	Agosto	2023-08-13T00:00:00	2024-11-08T08:00:00	7	Dirección del viento	12.87
41007	7	Sololá	701	Sololá	1	Sololá	8	Agosto	2023-08-13T00:00:00	2024-11-08T08:00:00	1	Precipitación	0
41008	7	Sololá	701	Sololá	1	Sololá	8	Agosto	2023-08-13T00:00:00	2024-11-08T08:00:00	8	Radiación solar	110
41009	7	Sololá	701	Sololá	1	Sololá	8	Agosto	2023-08-13T00:00:00	2024-11-08T09:00:00	2	Temperatura media	19
41010	7	Sololá	701	Sololá	1	Sololá	8	Agosto	2023-08-13T00:00:00	2024-11-08T09:00:00	4	Temperatura máxima	19.1
41011	7	Sololá	701	Sololá	1	Sololá	8	Agosto	2023-08-13T00:00:00	2024-11-08T09:00:00	3	Temperatura mínima	18.1
41012	7	Sololá	701	Sololá	1	Sololá	8	Agosto	2023-08-13T00:00:00	2024-11-08T09:00:00	5	Humedad	74
41013	7	Sololá	701	Sololá	1	Sololá	8	Agosto	2023-08-13T00:00:00	2024-11-08T09:00:00	6	Velocidad del viento	14.5
41014	7	Sololá	701	Sololá	1	Sololá	8	Agosto	2023-08-13T00:00:00	2024-11-08T09:00:00	7	Dirección del viento	14.48
41015	7	Sololá	701	Sololá	1	Sololá	8	Agosto	2023-08-13T00:00:00	2024-11-08T09:00:00	1	Precipitación	0
41016	7	Sololá	701	Sololá	1	Sololá	8	Agosto	2023-08-13T00:00:00	2024-11-08T09:00:00	8	Radiación solar	646
41017	7	Sololá	701	Sololá	1	Sololá	8	Agosto	2023-08-13T00:00:00	2024-11-08T10:00:00	2	Temperatura media	20.2
41018	7	Sololá	701	Sololá	1	Sololá	8	Agosto	2023-08-13T00:00:00	2024-11-08T10:00:00	4	Temperatura máxima	20.7
41019	7	Sololá	701	Sololá	1	Sololá	8	Agosto	2023-08-13T00:00:00	2024-11-08T10:00:00	3	Temperatura mínima	18.8
41020	7	Sololá	701	Sololá	1	Sololá	8	Agosto	2023-08-13T00:00:00	2024-11-08T10:00:00	5	Humedad	69
41021	7	Sololá	701	Sololá	1	Sololá	8	Agosto	2023-08-13T00:00:00	2024-11-08T10:00:00	6	Velocidad del viento	9.7
41022	7	Sololá	701	Sololá	1	Sololá	8	Agosto	2023-08-13T00:00:00	2024-11-08T10:00:00	7	Dirección del viento	9.66
41023	7	Sololá	701	Sololá	1	Sololá	8	Agosto	2023-08-13T00:00:00	2024-11-08T10:00:00	1	Precipitación	0
41024	7	Sololá	701	Sololá	1	Sololá	8	Agosto	2023-08-13T00:00:00	2024-11-08T10:00:00	8	Radiación solar	884
41025	7	Sololá	701	Sololá	1	Sololá	8	Agosto	2023-08-13T00:00:00	2024-11-08T11:00:00	2	Temperatura media	20.1
41026	7	Sololá	701	Sololá	1	Sololá	8	Agosto	2023-08-13T00:00:00	2024-11-08T11:00:00	4	Temperatura máxima	20.6
41027	7	Sololá	701	Sololá	1	Sololá	8	Agosto	2023-08-13T00:00:00	2024-11-08T11:00:00	3	Temperatura mínima	19.8
41028	7	Sololá	701	Sololá	1	Sololá	8	Agosto	2023-08-13T00:00:00	2024-11-08T11:00:00	5	Humedad	69
41029	7	Sololá	701	Sololá	1	Sololá	8	Agosto	2023-08-13T00:00:00	2024-11-08T11:00:00	6	Velocidad del viento	9.7
41030	7	Sololá	701	Sololá	1	Sololá	8	Agosto	2023-08-13T00:00:00	2024-11-08T11:00:00	7	Dirección del viento	9.66
41031	7	Sololá	701	Sololá	1	Sololá	8	Agosto	2023-08-13T00:00:00	2024-11-08T11:00:00	1	Precipitación	0
41032	7	Sololá	701	Sololá	1	Sololá	8	Agosto	2023-08-13T00:00:00	2024-11-08T11:00:00	8	Radiación solar	966
41033	7	Sololá	701	Sololá	1	Sololá	8	Agosto	2023-08-13T00:00:00	2024-11-08T12:00:00	2	Temperatura media	20.6
41034	7	Sololá	701	Sololá	1	Sololá	8	Agosto	2023-08-13T00:00:00	2024-11-08T12:00:00	4	Temperatura máxima	21.3
41035	7	Sololá	701	Sololá	1	Sololá	8	Agosto	2023-08-13T00:00:00	2024-11-08T12:00:00	3	Temperatura mínima	20.1
41036	7	Sololá	701	Sololá	1	Sololá	8	Agosto	2023-08-13T00:00:00	2024-11-08T12:00:00	5	Humedad	69
41037	7	Sololá	701	Sololá	1	Sololá	8	Agosto	2023-08-13T00:00:00	2024-11-08T12:00:00	6	Velocidad del viento	9.7
41038	7	Sololá	701	Sololá	1	Sololá	8	Agosto	2023-08-13T00:00:00	2024-11-08T12:00:00	7	Dirección del viento	9.66
41039	7	Sololá	701	Sololá	1	Sololá	8	Agosto	2023-08-13T00:00:00	2024-11-08T12:00:00	1	Precipitación	0
41040	7	Sololá	701	Sololá	1	Sololá	8	Agosto	2023-08-13T00:00:00	2024-11-08T12:00:00	8	Radiación solar	483
41041	7	Sololá	701	Sololá	1	Sololá	8	Agosto	2023-08-13T00:00:00	2024-11-08T13:00:00	2	Temperatura media	22.2
41042	7	Sololá	701	Sololá	1	Sololá	8	Agosto	2023-08-13T00:00:00	2024-11-08T13:00:00	4	Temperatura máxima	22.2
41043	7	Sololá	701	Sololá	1	Sololá	8	Agosto	2023-08-13T00:00:00	2024-11-08T13:00:00	3	Temperatura mínima	20.5
41044	7	Sololá	701	Sololá	1	Sololá	8	Agosto	2023-08-13T00:00:00	2024-11-08T13:00:00	5	Humedad	64
41045	7	Sololá	701	Sololá	1	Sololá	8	Agosto	2023-08-13T00:00:00	2024-11-08T13:00:00	6	Velocidad del viento	6.4
41046	7	Sololá	701	Sololá	1	Sololá	8	Agosto	2023-08-13T00:00:00	2024-11-08T13:00:00	7	Dirección del viento	6.44
41047	7	Sololá	701	Sololá	1	Sololá	8	Agosto	2023-08-13T00:00:00	2024-11-08T13:00:00	1	Precipitación	0
41048	7	Sololá	701	Sololá	1	Sololá	8	Agosto	2023-08-13T00:00:00	2024-11-08T13:00:00	8	Radiación solar	186
41049	7	Sololá	701	Sololá	1	Sololá	8	Agosto	2023-08-13T00:00:00	2024-11-08T14:00:00	2	Temperatura media	21
41050	7	Sololá	701	Sololá	1	Sololá	8	Agosto	2023-08-13T00:00:00	2024-11-08T14:00:00	4	Temperatura máxima	22.9
41051	7	Sololá	701	Sololá	1	Sololá	8	Agosto	2023-08-13T00:00:00	2024-11-08T14:00:00	3	Temperatura mínima	20.8
41052	7	Sololá	701	Sololá	1	Sololá	8	Agosto	2023-08-13T00:00:00	2024-11-08T14:00:00	5	Humedad	80
41053	7	Sololá	701	Sololá	1	Sololá	8	Agosto	2023-08-13T00:00:00	2024-11-08T14:00:00	6	Velocidad del viento	4.8
41054	7	Sololá	701	Sololá	1	Sololá	8	Agosto	2023-08-13T00:00:00	2024-11-08T14:00:00	7	Dirección del viento	4.83
41055	7	Sololá	701	Sololá	1	Sololá	8	Agosto	2023-08-13T00:00:00	2024-11-08T14:00:00	1	Precipitación	0
41056	7	Sololá	701	Sololá	1	Sololá	8	Agosto	2023-08-13T00:00:00	2024-11-08T14:00:00	8	Radiación solar	151
41057	7	Sololá	701	Sololá	1	Sololá	8	Agosto	2023-08-13T00:00:00	2024-11-08T15:00:00	2	Temperatura media	19.8
41058	7	Sololá	701	Sololá	1	Sololá	8	Agosto	2023-08-13T00:00:00	2024-11-08T15:00:00	4	Temperatura máxima	21.7
41059	7	Sololá	701	Sololá	1	Sololá	8	Agosto	2023-08-13T00:00:00	2024-11-08T15:00:00	3	Temperatura mínima	19.7
41060	7	Sololá	701	Sololá	1	Sololá	8	Agosto	2023-08-13T00:00:00	2024-11-08T15:00:00	5	Humedad	84
41061	7	Sololá	701	Sololá	1	Sololá	8	Agosto	2023-08-13T00:00:00	2024-11-08T15:00:00	6	Velocidad del viento	6.4
41062	7	Sololá	701	Sololá	1	Sololá	8	Agosto	2023-08-13T00:00:00	2024-11-08T15:00:00	7	Dirección del viento	6.44
41063	7	Sololá	701	Sololá	1	Sololá	8	Agosto	2023-08-13T00:00:00	2024-11-08T15:00:00	1	Precipitación	0
41064	7	Sololá	701	Sololá	1	Sololá	8	Agosto	2023-08-13T00:00:00	2024-11-08T15:00:00	8	Radiación solar	142
41065	7	Sololá	701	Sololá	1	Sololá	8	Agosto	2023-08-13T00:00:00	2024-11-08T16:00:00	2	Temperatura media	18.3
41066	7	Sololá	701	Sololá	1	Sololá	8	Agosto	2023-08-13T00:00:00	2024-11-08T16:00:00	4	Temperatura máxima	19.9
41067	7	Sololá	701	Sololá	1	Sololá	8	Agosto	2023-08-13T00:00:00	2024-11-08T16:00:00	3	Temperatura mínima	18.3
41068	7	Sololá	701	Sololá	1	Sololá	8	Agosto	2023-08-13T00:00:00	2024-11-08T16:00:00	5	Humedad	91
41069	7	Sololá	701	Sololá	1	Sololá	8	Agosto	2023-08-13T00:00:00	2024-11-08T16:00:00	6	Velocidad del viento	4.8
41070	7	Sololá	701	Sololá	1	Sololá	8	Agosto	2023-08-13T00:00:00	2024-11-08T16:00:00	7	Dirección del viento	4.83
41071	7	Sololá	701	Sololá	1	Sololá	8	Agosto	2023-08-13T00:00:00	2024-11-08T16:00:00	1	Precipitación	0
41072	7	Sololá	701	Sololá	1	Sololá	8	Agosto	2023-08-13T00:00:00	2024-11-08T16:00:00	8	Radiación solar	133
41073	7	Sololá	701	Sololá	1	Sololá	8	Agosto	2023-08-13T00:00:00	2024-11-08T17:00:00	2	Temperatura media	17.9
41074	7	Sololá	701	Sololá	1	Sololá	8	Agosto	2023-08-13T00:00:00	2024-11-08T17:00:00	4	Temperatura máxima	18.7
41075	7	Sololá	701	Sololá	1	Sololá	8	Agosto	2023-08-13T00:00:00	2024-11-08T17:00:00	3	Temperatura mínima	17.9
41076	7	Sololá	701	Sololá	1	Sololá	8	Agosto	2023-08-13T00:00:00	2024-11-08T17:00:00	5	Humedad	91
41077	7	Sololá	701	Sololá	1	Sololá	8	Agosto	2023-08-13T00:00:00	2024-11-08T17:00:00	6	Velocidad del viento	3.2
41078	7	Sololá	701	Sololá	1	Sololá	8	Agosto	2023-08-13T00:00:00	2024-11-08T17:00:00	7	Dirección del viento	3.22
41079	7	Sololá	701	Sololá	1	Sololá	8	Agosto	2023-08-13T00:00:00	2024-11-08T17:00:00	1	Precipitación	0
41080	7	Sololá	701	Sololá	1	Sololá	8	Agosto	2023-08-13T00:00:00	2024-11-08T17:00:00	8	Radiación solar	57
41081	7	Sololá	701	Sololá	1	Sololá	8	Agosto	2023-08-13T00:00:00	2024-11-08T18:00:00	2	Temperatura media	17.6
41082	7	Sololá	701	Sololá	1	Sololá	8	Agosto	2023-08-13T00:00:00	2024-11-08T18:00:00	4	Temperatura máxima	18.7
41083	7	Sololá	701	Sololá	1	Sololá	8	Agosto	2023-08-13T00:00:00	2024-11-08T18:00:00	3	Temperatura mínima	17.6
41084	7	Sololá	701	Sololá	1	Sololá	8	Agosto	2023-08-13T00:00:00	2024-11-08T18:00:00	5	Humedad	91
41085	7	Sololá	701	Sololá	1	Sololá	8	Agosto	2023-08-13T00:00:00	2024-11-08T18:00:00	6	Velocidad del viento	0
41086	7	Sololá	701	Sololá	1	Sololá	8	Agosto	2023-08-13T00:00:00	2024-11-08T18:00:00	7	Dirección del viento	0
41087	7	Sololá	701	Sololá	1	Sololá	8	Agosto	2023-08-13T00:00:00	2024-11-08T18:00:00	1	Precipitación	0
41088	7	Sololá	701	Sololá	1	Sololá	8	Agosto	2023-08-13T00:00:00	2024-11-08T18:00:00	8	Radiación solar	2
41089	7	Sololá	701	Sololá	1	Sololá	8	Agosto	2023-08-13T00:00:00	2024-11-08T19:00:00	2	Temperatura media	16.6
41090	7	Sololá	701	Sololá	1	Sololá	8	Agosto	2023-08-13T00:00:00	2024-11-08T19:00:00	4	Temperatura máxima	17.6
41091	7	Sololá	701	Sololá	1	Sololá	8	Agosto	2023-08-13T00:00:00	2024-11-08T19:00:00	3	Temperatura mínima	16.6
41092	7	Sololá	701	Sololá	1	Sololá	8	Agosto	2023-08-13T00:00:00	2024-11-08T19:00:00	5	Humedad	82
41093	7	Sololá	701	Sololá	1	Sololá	8	Agosto	2023-08-13T00:00:00	2024-11-08T19:00:00	6	Velocidad del viento	0
41094	7	Sololá	701	Sololá	1	Sololá	8	Agosto	2023-08-13T00:00:00	2024-11-08T19:00:00	7	Dirección del viento	0
41095	7	Sololá	701	Sololá	1	Sololá	8	Agosto	2023-08-13T00:00:00	2024-11-08T19:00:00	1	Precipitación	0
41096	7	Sololá	701	Sololá	1	Sololá	8	Agosto	2023-08-13T00:00:00	2024-11-08T19:00:00	8	Radiación solar	0
41097	7	Sololá	701	Sololá	1	Sololá	8	Agosto	2023-08-13T00:00:00	2024-11-08T20:00:00	2	Temperatura media	15.7
41098	7	Sololá	701	Sololá	1	Sololá	8	Agosto	2023-08-13T00:00:00	2024-11-08T20:00:00	4	Temperatura máxima	16.6
41099	7	Sololá	701	Sololá	1	Sololá	8	Agosto	2023-08-13T00:00:00	2024-11-08T20:00:00	3	Temperatura mínima	15.6
41100	7	Sololá	701	Sololá	1	Sololá	8	Agosto	2023-08-13T00:00:00	2024-11-08T20:00:00	5	Humedad	84
41101	7	Sololá	701	Sololá	1	Sololá	8	Agosto	2023-08-13T00:00:00	2024-11-08T20:00:00	6	Velocidad del viento	0
41102	7	Sololá	701	Sololá	1	Sololá	8	Agosto	2023-08-13T00:00:00	2024-11-08T20:00:00	7	Dirección del viento	0
41103	7	Sololá	701	Sololá	1	Sololá	8	Agosto	2023-08-13T00:00:00	2024-11-08T20:00:00	1	Precipitación	0
41104	7	Sololá	701	Sololá	1	Sololá	8	Agosto	2023-08-13T00:00:00	2024-11-08T20:00:00	8	Radiación solar	0
41105	7	Sololá	701	Sololá	1	Sololá	8	Agosto	2023-08-13T00:00:00	2024-11-08T21:00:00	2	Temperatura media	15.2
41106	7	Sololá	701	Sololá	1	Sololá	8	Agosto	2023-08-13T00:00:00	2024-11-08T21:00:00	4	Temperatura máxima	15.7
41107	7	Sololá	701	Sololá	1	Sololá	8	Agosto	2023-08-13T00:00:00	2024-11-08T21:00:00	3	Temperatura mínima	15.2
41108	7	Sololá	701	Sololá	1	Sololá	8	Agosto	2023-08-13T00:00:00	2024-11-08T21:00:00	5	Humedad	85
41109	7	Sololá	701	Sololá	1	Sololá	8	Agosto	2023-08-13T00:00:00	2024-11-08T21:00:00	6	Velocidad del viento	0
41110	7	Sololá	701	Sololá	1	Sololá	8	Agosto	2023-08-13T00:00:00	2024-11-08T21:00:00	7	Dirección del viento	0
41111	7	Sololá	701	Sololá	1	Sololá	8	Agosto	2023-08-13T00:00:00	2024-11-08T21:00:00	1	Precipitación	0
41112	7	Sololá	701	Sololá	1	Sololá	8	Agosto	2023-08-13T00:00:00	2024-11-08T21:00:00	8	Radiación solar	0
41113	7	Sololá	701	Sololá	1	Sololá	8	Agosto	2023-08-13T00:00:00	2024-11-08T22:00:00	2	Temperatura media	14.7
41114	7	Sololá	701	Sololá	1	Sololá	8	Agosto	2023-08-13T00:00:00	2024-11-08T22:00:00	4	Temperatura máxima	15.2
41115	7	Sololá	701	Sololá	1	Sololá	8	Agosto	2023-08-13T00:00:00	2024-11-08T22:00:00	3	Temperatura mínima	14.7
41116	7	Sololá	701	Sololá	1	Sololá	8	Agosto	2023-08-13T00:00:00	2024-11-08T22:00:00	5	Humedad	86
41117	7	Sololá	701	Sololá	1	Sololá	8	Agosto	2023-08-13T00:00:00	2024-11-08T22:00:00	6	Velocidad del viento	0
41118	7	Sololá	701	Sololá	1	Sololá	8	Agosto	2023-08-13T00:00:00	2024-11-08T22:00:00	7	Dirección del viento	0
41119	7	Sololá	701	Sololá	1	Sololá	8	Agosto	2023-08-13T00:00:00	2024-11-08T22:00:00	1	Precipitación	0
41120	7	Sololá	701	Sololá	1	Sololá	8	Agosto	2023-08-13T00:00:00	2024-11-08T22:00:00	8	Radiación solar	0
41121	7	Sololá	701	Sololá	1	Sololá	8	Agosto	2023-08-13T00:00:00	2024-11-08T23:00:00	2	Temperatura media	14.6
41122	7	Sololá	701	Sololá	1	Sololá	8	Agosto	2023-08-13T00:00:00	2024-11-08T23:00:00	4	Temperatura máxima	14.8
41123	7	Sololá	701	Sololá	1	Sololá	8	Agosto	2023-08-13T00:00:00	2024-11-08T23:00:00	3	Temperatura mínima	14.6
41124	7	Sololá	701	Sololá	1	Sololá	8	Agosto	2023-08-13T00:00:00	2024-11-08T23:00:00	5	Humedad	86
41125	7	Sololá	701	Sololá	1	Sololá	8	Agosto	2023-08-13T00:00:00	2024-11-08T23:00:00	6	Velocidad del viento	0
41126	7	Sololá	701	Sololá	1	Sololá	8	Agosto	2023-08-13T00:00:00	2024-11-08T23:00:00	7	Dirección del viento	0
41127	7	Sololá	701	Sololá	1	Sololá	8	Agosto	2023-08-13T00:00:00	2024-11-08T23:00:00	1	Precipitación	0
41128	7	Sololá	701	Sololá	1	Sololá	8	Agosto	2023-08-13T00:00:00	2024-11-08T23:00:00	8	Radiación solar	0
41129	7	Sololá	701	Sololá	1	Sololá	8	Agosto	2023-08-14T00:00:00	2024-11-08T00:00:00	2	Temperatura media	14.2
41130	7	Sololá	701	Sololá	1	Sololá	8	Agosto	2023-08-14T00:00:00	2024-11-08T00:00:00	4	Temperatura máxima	14.7
41131	7	Sololá	701	Sololá	1	Sololá	8	Agosto	2023-08-14T00:00:00	2024-11-08T00:00:00	3	Temperatura mínima	14.2
41132	7	Sololá	701	Sololá	1	Sololá	8	Agosto	2023-08-14T00:00:00	2024-11-08T00:00:00	5	Humedad	84
41133	7	Sololá	701	Sololá	1	Sololá	8	Agosto	2023-08-14T00:00:00	2024-11-08T00:00:00	6	Velocidad del viento	0
41134	7	Sololá	701	Sololá	1	Sololá	8	Agosto	2023-08-14T00:00:00	2024-11-08T00:00:00	7	Dirección del viento	0
41135	7	Sololá	701	Sololá	1	Sololá	8	Agosto	2023-08-14T00:00:00	2024-11-08T00:00:00	1	Precipitación	0
41136	7	Sololá	701	Sololá	1	Sololá	8	Agosto	2023-08-14T00:00:00	2024-11-08T00:00:00	8	Radiación solar	0
41137	7	Sololá	701	Sololá	1	Sololá	8	Agosto	2023-08-14T00:00:00	2024-11-08T01:00:00	2	Temperatura media	13.3
41138	7	Sololá	701	Sololá	1	Sololá	8	Agosto	2023-08-14T00:00:00	2024-11-08T01:00:00	4	Temperatura máxima	14.2
41139	7	Sololá	701	Sololá	1	Sololá	8	Agosto	2023-08-14T00:00:00	2024-11-08T01:00:00	3	Temperatura mínima	13.3
41140	7	Sololá	701	Sololá	1	Sololá	8	Agosto	2023-08-14T00:00:00	2024-11-08T01:00:00	5	Humedad	86
41141	7	Sololá	701	Sololá	1	Sololá	8	Agosto	2023-08-14T00:00:00	2024-11-08T01:00:00	6	Velocidad del viento	0
41142	7	Sololá	701	Sololá	1	Sololá	8	Agosto	2023-08-14T00:00:00	2024-11-08T01:00:00	7	Dirección del viento	0
41143	7	Sololá	701	Sololá	1	Sololá	8	Agosto	2023-08-14T00:00:00	2024-11-08T01:00:00	1	Precipitación	0
41144	7	Sololá	701	Sololá	1	Sololá	8	Agosto	2023-08-14T00:00:00	2024-11-08T01:00:00	8	Radiación solar	0
41145	7	Sololá	701	Sololá	1	Sololá	8	Agosto	2023-08-14T00:00:00	2024-11-08T02:00:00	2	Temperatura media	13.2
41146	7	Sololá	701	Sololá	1	Sololá	8	Agosto	2023-08-14T00:00:00	2024-11-08T02:00:00	4	Temperatura máxima	13.5
41147	7	Sololá	701	Sololá	1	Sololá	8	Agosto	2023-08-14T00:00:00	2024-11-08T02:00:00	3	Temperatura mínima	13.2
41148	7	Sololá	701	Sololá	1	Sololá	8	Agosto	2023-08-14T00:00:00	2024-11-08T02:00:00	5	Humedad	86
41149	7	Sololá	701	Sololá	1	Sololá	8	Agosto	2023-08-14T00:00:00	2024-11-08T02:00:00	6	Velocidad del viento	0
41150	7	Sololá	701	Sololá	1	Sololá	8	Agosto	2023-08-14T00:00:00	2024-11-08T02:00:00	7	Dirección del viento	0
41151	7	Sololá	701	Sololá	1	Sololá	8	Agosto	2023-08-14T00:00:00	2024-11-08T02:00:00	1	Precipitación	0
41152	7	Sololá	701	Sololá	1	Sololá	8	Agosto	2023-08-14T00:00:00	2024-11-08T02:00:00	8	Radiación solar	0
41153	7	Sololá	701	Sololá	1	Sololá	8	Agosto	2023-08-14T00:00:00	2024-11-08T03:00:00	2	Temperatura media	12.8
41154	7	Sololá	701	Sololá	1	Sololá	8	Agosto	2023-08-14T00:00:00	2024-11-08T03:00:00	4	Temperatura máxima	13.2
41155	7	Sololá	701	Sololá	1	Sololá	8	Agosto	2023-08-14T00:00:00	2024-11-08T03:00:00	3	Temperatura mínima	12.8
41156	7	Sololá	701	Sololá	1	Sololá	8	Agosto	2023-08-14T00:00:00	2024-11-08T03:00:00	5	Humedad	87
41157	7	Sololá	701	Sololá	1	Sololá	8	Agosto	2023-08-14T00:00:00	2024-11-08T03:00:00	6	Velocidad del viento	0
41158	7	Sololá	701	Sololá	1	Sololá	8	Agosto	2023-08-14T00:00:00	2024-11-08T03:00:00	7	Dirección del viento	0
41159	7	Sololá	701	Sololá	1	Sololá	8	Agosto	2023-08-14T00:00:00	2024-11-08T03:00:00	1	Precipitación	0
41160	7	Sololá	701	Sololá	1	Sololá	8	Agosto	2023-08-14T00:00:00	2024-11-08T03:00:00	8	Radiación solar	0
41161	7	Sololá	701	Sololá	1	Sololá	8	Agosto	2023-08-14T00:00:00	2024-11-08T04:00:00	2	Temperatura media	12.6
41162	7	Sololá	701	Sololá	1	Sololá	8	Agosto	2023-08-14T00:00:00	2024-11-08T04:00:00	4	Temperatura máxima	12.8
41163	7	Sololá	701	Sololá	1	Sololá	8	Agosto	2023-08-14T00:00:00	2024-11-08T04:00:00	3	Temperatura mínima	12.6
41164	7	Sololá	701	Sololá	1	Sololá	8	Agosto	2023-08-14T00:00:00	2024-11-08T04:00:00	5	Humedad	82
41165	7	Sololá	701	Sololá	1	Sololá	8	Agosto	2023-08-14T00:00:00	2024-11-08T04:00:00	6	Velocidad del viento	0
41166	7	Sololá	701	Sololá	1	Sololá	8	Agosto	2023-08-14T00:00:00	2024-11-08T04:00:00	7	Dirección del viento	0
41167	7	Sololá	701	Sololá	1	Sololá	8	Agosto	2023-08-14T00:00:00	2024-11-08T04:00:00	1	Precipitación	0
41168	7	Sololá	701	Sololá	1	Sololá	8	Agosto	2023-08-14T00:00:00	2024-11-08T04:00:00	8	Radiación solar	0
41169	7	Sololá	701	Sololá	1	Sololá	8	Agosto	2023-08-14T00:00:00	2024-11-08T05:00:00	2	Temperatura media	12.7
41170	7	Sololá	701	Sololá	1	Sololá	8	Agosto	2023-08-14T00:00:00	2024-11-08T05:00:00	4	Temperatura máxima	12.8
41171	7	Sololá	701	Sololá	1	Sololá	8	Agosto	2023-08-14T00:00:00	2024-11-08T05:00:00	3	Temperatura mínima	12.5
41172	7	Sololá	701	Sololá	1	Sololá	8	Agosto	2023-08-14T00:00:00	2024-11-08T05:00:00	5	Humedad	78
41173	7	Sololá	701	Sololá	1	Sololá	8	Agosto	2023-08-14T00:00:00	2024-11-08T05:00:00	6	Velocidad del viento	0
41174	7	Sololá	701	Sololá	1	Sololá	8	Agosto	2023-08-14T00:00:00	2024-11-08T05:00:00	7	Dirección del viento	0
41175	7	Sololá	701	Sololá	1	Sololá	8	Agosto	2023-08-14T00:00:00	2024-11-08T05:00:00	1	Precipitación	0
41176	7	Sololá	701	Sololá	1	Sololá	8	Agosto	2023-08-14T00:00:00	2024-11-08T05:00:00	8	Radiación solar	0
41177	7	Sololá	701	Sololá	1	Sololá	8	Agosto	2023-08-14T00:00:00	2024-11-08T06:00:00	2	Temperatura media	12
41178	7	Sololá	701	Sololá	1	Sololá	8	Agosto	2023-08-14T00:00:00	2024-11-08T06:00:00	4	Temperatura máxima	12.7
41179	7	Sololá	701	Sololá	1	Sololá	8	Agosto	2023-08-14T00:00:00	2024-11-08T06:00:00	3	Temperatura mínima	11.9
41180	7	Sololá	701	Sololá	1	Sololá	8	Agosto	2023-08-14T00:00:00	2024-11-08T06:00:00	5	Humedad	88
41181	7	Sololá	701	Sololá	1	Sololá	8	Agosto	2023-08-14T00:00:00	2024-11-08T06:00:00	6	Velocidad del viento	0
41182	7	Sololá	701	Sololá	1	Sololá	8	Agosto	2023-08-14T00:00:00	2024-11-08T06:00:00	7	Dirección del viento	0
41183	7	Sololá	701	Sololá	1	Sololá	8	Agosto	2023-08-14T00:00:00	2024-11-08T06:00:00	1	Precipitación	0
41184	7	Sololá	701	Sololá	1	Sololá	8	Agosto	2023-08-14T00:00:00	2024-11-08T06:00:00	8	Radiación solar	0
41185	7	Sololá	701	Sololá	1	Sololá	8	Agosto	2023-08-14T00:00:00	2024-11-08T07:00:00	2	Temperatura media	13.4
41186	7	Sololá	701	Sololá	1	Sololá	8	Agosto	2023-08-14T00:00:00	2024-11-08T07:00:00	4	Temperatura máxima	13.4
41187	7	Sololá	701	Sololá	1	Sololá	8	Agosto	2023-08-14T00:00:00	2024-11-08T07:00:00	3	Temperatura mínima	11.9
41188	7	Sololá	701	Sololá	1	Sololá	8	Agosto	2023-08-14T00:00:00	2024-11-08T07:00:00	5	Humedad	87
41189	7	Sololá	701	Sololá	1	Sololá	8	Agosto	2023-08-14T00:00:00	2024-11-08T07:00:00	6	Velocidad del viento	0
41190	7	Sololá	701	Sololá	1	Sololá	8	Agosto	2023-08-14T00:00:00	2024-11-08T07:00:00	7	Dirección del viento	0
41191	7	Sololá	701	Sololá	1	Sololá	8	Agosto	2023-08-14T00:00:00	2024-11-08T07:00:00	1	Precipitación	0
41192	7	Sololá	701	Sololá	1	Sololá	8	Agosto	2023-08-14T00:00:00	2024-11-08T07:00:00	8	Radiación solar	31
41193	7	Sololá	701	Sololá	1	Sololá	8	Agosto	2023-08-14T00:00:00	2024-11-08T08:00:00	2	Temperatura media	15.6
41194	7	Sololá	701	Sololá	1	Sololá	8	Agosto	2023-08-14T00:00:00	2024-11-08T08:00:00	4	Temperatura máxima	15.6
41195	7	Sololá	701	Sololá	1	Sololá	8	Agosto	2023-08-14T00:00:00	2024-11-08T08:00:00	3	Temperatura mínima	13.4
41196	7	Sololá	701	Sololá	1	Sololá	8	Agosto	2023-08-14T00:00:00	2024-11-08T08:00:00	5	Humedad	82
41197	7	Sololá	701	Sololá	1	Sololá	8	Agosto	2023-08-14T00:00:00	2024-11-08T08:00:00	6	Velocidad del viento	0
41198	7	Sololá	701	Sololá	1	Sololá	8	Agosto	2023-08-14T00:00:00	2024-11-08T08:00:00	7	Dirección del viento	0
41199	7	Sololá	701	Sololá	1	Sololá	8	Agosto	2023-08-14T00:00:00	2024-11-08T08:00:00	1	Precipitación	0
41200	7	Sololá	701	Sololá	1	Sololá	8	Agosto	2023-08-14T00:00:00	2024-11-08T08:00:00	8	Radiación solar	134
41201	7	Sololá	701	Sololá	1	Sololá	8	Agosto	2023-08-14T00:00:00	2024-11-08T09:00:00	2	Temperatura media	19.9
41202	7	Sololá	701	Sololá	1	Sololá	8	Agosto	2023-08-14T00:00:00	2024-11-08T09:00:00	4	Temperatura máxima	19.9
41203	7	Sololá	701	Sololá	1	Sololá	8	Agosto	2023-08-14T00:00:00	2024-11-08T09:00:00	3	Temperatura mínima	15.6
41204	7	Sololá	701	Sololá	1	Sololá	8	Agosto	2023-08-14T00:00:00	2024-11-08T09:00:00	5	Humedad	71
41205	7	Sololá	701	Sololá	1	Sololá	8	Agosto	2023-08-14T00:00:00	2024-11-08T09:00:00	6	Velocidad del viento	0
41206	7	Sololá	701	Sololá	1	Sololá	8	Agosto	2023-08-14T00:00:00	2024-11-08T09:00:00	7	Dirección del viento	0
41207	7	Sololá	701	Sololá	1	Sololá	8	Agosto	2023-08-14T00:00:00	2024-11-08T09:00:00	1	Precipitación	0
41208	7	Sololá	701	Sololá	1	Sololá	8	Agosto	2023-08-14T00:00:00	2024-11-08T09:00:00	8	Radiación solar	506
41209	7	Sololá	701	Sololá	1	Sololá	8	Agosto	2023-08-14T00:00:00	2024-11-08T10:00:00	2	Temperatura media	22.2
41210	7	Sololá	701	Sololá	1	Sololá	8	Agosto	2023-08-14T00:00:00	2024-11-08T10:00:00	4	Temperatura máxima	22.2
41211	7	Sololá	701	Sololá	1	Sololá	8	Agosto	2023-08-14T00:00:00	2024-11-08T10:00:00	3	Temperatura mínima	19.9
41212	7	Sololá	701	Sololá	1	Sololá	8	Agosto	2023-08-14T00:00:00	2024-11-08T10:00:00	5	Humedad	62
41213	7	Sololá	701	Sololá	1	Sololá	8	Agosto	2023-08-14T00:00:00	2024-11-08T10:00:00	6	Velocidad del viento	0
41214	7	Sololá	701	Sololá	1	Sololá	8	Agosto	2023-08-14T00:00:00	2024-11-08T10:00:00	7	Dirección del viento	0
41215	7	Sololá	701	Sololá	1	Sololá	8	Agosto	2023-08-14T00:00:00	2024-11-08T10:00:00	1	Precipitación	0
41216	7	Sololá	701	Sololá	1	Sololá	8	Agosto	2023-08-14T00:00:00	2024-11-08T10:00:00	8	Radiación solar	729
41217	7	Sololá	701	Sololá	1	Sololá	8	Agosto	2023-08-14T00:00:00	2024-11-08T11:00:00	2	Temperatura media	22.8
41218	7	Sololá	701	Sololá	1	Sololá	8	Agosto	2023-08-14T00:00:00	2024-11-08T11:00:00	4	Temperatura máxima	23
41219	7	Sololá	701	Sololá	1	Sololá	8	Agosto	2023-08-14T00:00:00	2024-11-08T11:00:00	3	Temperatura mínima	22.3
41220	7	Sololá	701	Sololá	1	Sololá	8	Agosto	2023-08-14T00:00:00	2024-11-08T11:00:00	5	Humedad	60
41221	7	Sololá	701	Sololá	1	Sololá	8	Agosto	2023-08-14T00:00:00	2024-11-08T11:00:00	6	Velocidad del viento	1.6
41222	7	Sololá	701	Sololá	1	Sololá	8	Agosto	2023-08-14T00:00:00	2024-11-08T11:00:00	7	Dirección del viento	1.61
41223	7	Sololá	701	Sololá	1	Sololá	8	Agosto	2023-08-14T00:00:00	2024-11-08T11:00:00	1	Precipitación	0
41224	7	Sololá	701	Sololá	1	Sololá	8	Agosto	2023-08-14T00:00:00	2024-11-08T11:00:00	8	Radiación solar	852
41225	7	Sololá	701	Sololá	1	Sololá	8	Agosto	2023-08-14T00:00:00	2024-11-08T12:00:00	2	Temperatura media	23.9
41226	7	Sololá	701	Sololá	1	Sololá	8	Agosto	2023-08-14T00:00:00	2024-11-08T12:00:00	4	Temperatura máxima	24.2
41227	7	Sololá	701	Sololá	1	Sololá	8	Agosto	2023-08-14T00:00:00	2024-11-08T12:00:00	3	Temperatura mínima	22.7
41228	7	Sololá	701	Sololá	1	Sololá	8	Agosto	2023-08-14T00:00:00	2024-11-08T12:00:00	5	Humedad	56
41229	7	Sololá	701	Sololá	1	Sololá	8	Agosto	2023-08-14T00:00:00	2024-11-08T12:00:00	6	Velocidad del viento	1.6
41230	7	Sololá	701	Sololá	1	Sololá	8	Agosto	2023-08-14T00:00:00	2024-11-08T12:00:00	7	Dirección del viento	1.61
41231	7	Sololá	701	Sololá	1	Sololá	8	Agosto	2023-08-14T00:00:00	2024-11-08T12:00:00	1	Precipitación	0
41232	7	Sololá	701	Sololá	1	Sololá	8	Agosto	2023-08-14T00:00:00	2024-11-08T12:00:00	8	Radiación solar	958
41233	7	Sololá	701	Sololá	1	Sololá	8	Agosto	2023-08-14T00:00:00	2024-11-08T13:00:00	2	Temperatura media	22.1
41234	7	Sololá	701	Sololá	1	Sololá	8	Agosto	2023-08-14T00:00:00	2024-11-08T13:00:00	4	Temperatura máxima	24
41235	7	Sololá	701	Sololá	1	Sololá	8	Agosto	2023-08-14T00:00:00	2024-11-08T13:00:00	3	Temperatura mínima	21.7
41236	7	Sololá	701	Sololá	1	Sololá	8	Agosto	2023-08-14T00:00:00	2024-11-08T13:00:00	5	Humedad	78
41237	7	Sololá	701	Sololá	1	Sololá	8	Agosto	2023-08-14T00:00:00	2024-11-08T13:00:00	6	Velocidad del viento	1.6
41238	7	Sololá	701	Sololá	1	Sololá	8	Agosto	2023-08-14T00:00:00	2024-11-08T13:00:00	7	Dirección del viento	1.61
41239	7	Sololá	701	Sololá	1	Sololá	8	Agosto	2023-08-14T00:00:00	2024-11-08T13:00:00	1	Precipitación	0
41240	7	Sololá	701	Sololá	1	Sololá	8	Agosto	2023-08-14T00:00:00	2024-11-08T13:00:00	8	Radiación solar	784
41241	7	Sololá	701	Sololá	1	Sololá	8	Agosto	2023-08-14T00:00:00	2024-11-08T14:00:00	2	Temperatura media	21.4
41242	7	Sololá	701	Sololá	1	Sololá	8	Agosto	2023-08-14T00:00:00	2024-11-08T14:00:00	4	Temperatura máxima	22.3
41243	7	Sololá	701	Sololá	1	Sololá	8	Agosto	2023-08-14T00:00:00	2024-11-08T14:00:00	3	Temperatura mínima	21.4
41244	7	Sololá	701	Sololá	1	Sololá	8	Agosto	2023-08-14T00:00:00	2024-11-08T14:00:00	5	Humedad	81
41245	7	Sololá	701	Sololá	1	Sololá	8	Agosto	2023-08-14T00:00:00	2024-11-08T14:00:00	6	Velocidad del viento	1.6
41246	7	Sololá	701	Sololá	1	Sololá	8	Agosto	2023-08-14T00:00:00	2024-11-08T14:00:00	7	Dirección del viento	1.61
41247	7	Sololá	701	Sololá	1	Sololá	8	Agosto	2023-08-14T00:00:00	2024-11-08T14:00:00	1	Precipitación	0
41248	7	Sololá	701	Sololá	1	Sololá	8	Agosto	2023-08-14T00:00:00	2024-11-08T14:00:00	8	Radiación solar	758
41249	7	Sololá	701	Sololá	1	Sololá	8	Agosto	2023-08-14T00:00:00	2024-11-08T15:00:00	2	Temperatura media	19.9
41250	7	Sololá	701	Sololá	1	Sololá	8	Agosto	2023-08-14T00:00:00	2024-11-08T15:00:00	4	Temperatura máxima	21.4
41251	7	Sololá	701	Sololá	1	Sololá	8	Agosto	2023-08-14T00:00:00	2024-11-08T15:00:00	3	Temperatura mínima	19.9
41252	7	Sololá	701	Sololá	1	Sololá	8	Agosto	2023-08-14T00:00:00	2024-11-08T15:00:00	5	Humedad	85
41253	7	Sololá	701	Sololá	1	Sololá	8	Agosto	2023-08-14T00:00:00	2024-11-08T15:00:00	6	Velocidad del viento	0
41254	7	Sololá	701	Sololá	1	Sololá	8	Agosto	2023-08-14T00:00:00	2024-11-08T15:00:00	7	Dirección del viento	0
41255	7	Sololá	701	Sololá	1	Sololá	8	Agosto	2023-08-14T00:00:00	2024-11-08T15:00:00	1	Precipitación	0
41256	7	Sololá	701	Sololá	1	Sololá	8	Agosto	2023-08-14T00:00:00	2024-11-08T15:00:00	8	Radiación solar	630
41257	7	Sololá	701	Sololá	1	Sololá	8	Agosto	2023-08-14T00:00:00	2024-11-08T16:00:00	2	Temperatura media	19.6
41258	7	Sololá	701	Sololá	1	Sololá	8	Agosto	2023-08-14T00:00:00	2024-11-08T16:00:00	4	Temperatura máxima	19.9
41259	7	Sololá	701	Sololá	1	Sololá	8	Agosto	2023-08-14T00:00:00	2024-11-08T16:00:00	3	Temperatura mínima	19.4
41260	7	Sololá	701	Sololá	1	Sololá	8	Agosto	2023-08-14T00:00:00	2024-11-08T16:00:00	5	Humedad	88
41261	7	Sololá	701	Sololá	1	Sololá	8	Agosto	2023-08-14T00:00:00	2024-11-08T16:00:00	6	Velocidad del viento	0
41262	7	Sololá	701	Sololá	1	Sololá	8	Agosto	2023-08-14T00:00:00	2024-11-08T16:00:00	7	Dirección del viento	0
41263	7	Sololá	701	Sololá	1	Sololá	8	Agosto	2023-08-14T00:00:00	2024-11-08T16:00:00	1	Precipitación	0
41264	7	Sololá	701	Sololá	1	Sololá	8	Agosto	2023-08-14T00:00:00	2024-11-08T16:00:00	8	Radiación solar	164
41265	7	Sololá	701	Sololá	1	Sololá	8	Agosto	2023-08-14T00:00:00	2024-11-08T17:00:00	2	Temperatura media	19
41266	7	Sololá	701	Sololá	1	Sololá	8	Agosto	2023-08-14T00:00:00	2024-11-08T17:00:00	4	Temperatura máxima	19.8
41267	7	Sololá	701	Sololá	1	Sololá	8	Agosto	2023-08-14T00:00:00	2024-11-08T17:00:00	3	Temperatura mínima	18.9
41268	7	Sololá	701	Sololá	1	Sololá	8	Agosto	2023-08-14T00:00:00	2024-11-08T17:00:00	5	Humedad	90
41269	7	Sololá	701	Sololá	1	Sololá	8	Agosto	2023-08-14T00:00:00	2024-11-08T17:00:00	6	Velocidad del viento	0
41270	7	Sololá	701	Sololá	1	Sololá	8	Agosto	2023-08-14T00:00:00	2024-11-08T17:00:00	7	Dirección del viento	0
41271	7	Sololá	701	Sololá	1	Sololá	8	Agosto	2023-08-14T00:00:00	2024-11-08T17:00:00	1	Precipitación	0
41272	7	Sololá	701	Sololá	1	Sololá	8	Agosto	2023-08-14T00:00:00	2024-11-08T17:00:00	8	Radiación solar	51
41273	7	Sololá	701	Sololá	1	Sololá	8	Agosto	2023-08-14T00:00:00	2024-11-08T18:00:00	2	Temperatura media	18.2
41274	7	Sololá	701	Sololá	1	Sololá	8	Agosto	2023-08-14T00:00:00	2024-11-08T18:00:00	4	Temperatura máxima	18.9
41275	7	Sololá	701	Sololá	1	Sololá	8	Agosto	2023-08-14T00:00:00	2024-11-08T18:00:00	3	Temperatura mínima	18.1
41276	7	Sololá	701	Sololá	1	Sololá	8	Agosto	2023-08-14T00:00:00	2024-11-08T18:00:00	5	Humedad	92
41277	7	Sololá	701	Sololá	1	Sololá	8	Agosto	2023-08-14T00:00:00	2024-11-08T18:00:00	6	Velocidad del viento	0
41278	7	Sololá	701	Sololá	1	Sololá	8	Agosto	2023-08-14T00:00:00	2024-11-08T18:00:00	7	Dirección del viento	0
41279	7	Sololá	701	Sololá	1	Sololá	8	Agosto	2023-08-14T00:00:00	2024-11-08T18:00:00	1	Precipitación	0
41280	7	Sololá	701	Sololá	1	Sololá	8	Agosto	2023-08-14T00:00:00	2024-11-08T18:00:00	8	Radiación solar	14
41281	7	Sololá	701	Sololá	1	Sololá	8	Agosto	2023-08-14T00:00:00	2024-11-08T19:00:00	2	Temperatura media	17.3
41282	7	Sololá	701	Sololá	1	Sololá	8	Agosto	2023-08-14T00:00:00	2024-11-08T19:00:00	4	Temperatura máxima	18.1
41283	7	Sololá	701	Sololá	1	Sololá	8	Agosto	2023-08-14T00:00:00	2024-11-08T19:00:00	3	Temperatura mínima	17.3
41284	7	Sololá	701	Sololá	1	Sololá	8	Agosto	2023-08-14T00:00:00	2024-11-08T19:00:00	5	Humedad	92
41285	7	Sololá	701	Sololá	1	Sololá	8	Agosto	2023-08-14T00:00:00	2024-11-08T19:00:00	6	Velocidad del viento	0
41286	7	Sololá	701	Sololá	1	Sololá	8	Agosto	2023-08-14T00:00:00	2024-11-08T19:00:00	7	Dirección del viento	0
41287	7	Sololá	701	Sololá	1	Sololá	8	Agosto	2023-08-14T00:00:00	2024-11-08T19:00:00	1	Precipitación	0
41288	7	Sololá	701	Sololá	1	Sololá	8	Agosto	2023-08-14T00:00:00	2024-11-08T19:00:00	8	Radiación solar	0
41289	7	Sololá	701	Sololá	1	Sololá	8	Agosto	2023-08-14T00:00:00	2024-11-08T20:00:00	2	Temperatura media	16.4
41290	7	Sololá	701	Sololá	1	Sololá	8	Agosto	2023-08-14T00:00:00	2024-11-08T20:00:00	4	Temperatura máxima	17.3
41291	7	Sololá	701	Sololá	1	Sololá	8	Agosto	2023-08-14T00:00:00	2024-11-08T20:00:00	3	Temperatura mínima	16.3
41292	7	Sololá	701	Sololá	1	Sololá	8	Agosto	2023-08-14T00:00:00	2024-11-08T20:00:00	5	Humedad	93
41293	7	Sololá	701	Sololá	1	Sololá	8	Agosto	2023-08-14T00:00:00	2024-11-08T20:00:00	6	Velocidad del viento	0
41294	7	Sololá	701	Sololá	1	Sololá	8	Agosto	2023-08-14T00:00:00	2024-11-08T20:00:00	7	Dirección del viento	0
41295	7	Sololá	701	Sololá	1	Sololá	8	Agosto	2023-08-14T00:00:00	2024-11-08T20:00:00	1	Precipitación	0
41296	7	Sololá	701	Sololá	1	Sololá	8	Agosto	2023-08-14T00:00:00	2024-11-08T20:00:00	8	Radiación solar	0
41297	7	Sololá	701	Sololá	1	Sololá	8	Agosto	2023-08-14T00:00:00	2024-11-08T21:00:00	2	Temperatura media	15
41298	7	Sololá	701	Sololá	1	Sololá	8	Agosto	2023-08-14T00:00:00	2024-11-08T21:00:00	4	Temperatura máxima	16.3
41299	7	Sololá	701	Sololá	1	Sololá	8	Agosto	2023-08-14T00:00:00	2024-11-08T21:00:00	3	Temperatura mínima	14.9
41300	7	Sololá	701	Sololá	1	Sololá	8	Agosto	2023-08-14T00:00:00	2024-11-08T21:00:00	5	Humedad	95
41301	7	Sololá	701	Sololá	1	Sololá	8	Agosto	2023-08-14T00:00:00	2024-11-08T21:00:00	6	Velocidad del viento	0
41302	7	Sololá	701	Sololá	1	Sololá	8	Agosto	2023-08-14T00:00:00	2024-11-08T21:00:00	7	Dirección del viento	0
41303	7	Sololá	701	Sololá	1	Sololá	8	Agosto	2023-08-14T00:00:00	2024-11-08T21:00:00	1	Precipitación	0
41304	7	Sololá	701	Sololá	1	Sololá	8	Agosto	2023-08-14T00:00:00	2024-11-08T21:00:00	8	Radiación solar	0
41305	7	Sololá	701	Sololá	1	Sololá	8	Agosto	2023-08-14T00:00:00	2024-11-08T22:00:00	2	Temperatura media	14.6
41306	7	Sololá	701	Sololá	1	Sololá	8	Agosto	2023-08-14T00:00:00	2024-11-08T22:00:00	4	Temperatura máxima	15.1
41307	7	Sololá	701	Sololá	1	Sololá	8	Agosto	2023-08-14T00:00:00	2024-11-08T22:00:00	3	Temperatura mínima	14.6
41308	7	Sololá	701	Sololá	1	Sololá	8	Agosto	2023-08-14T00:00:00	2024-11-08T22:00:00	5	Humedad	94
41309	7	Sololá	701	Sololá	1	Sololá	8	Agosto	2023-08-14T00:00:00	2024-11-08T22:00:00	6	Velocidad del viento	0
41310	7	Sololá	701	Sololá	1	Sololá	8	Agosto	2023-08-14T00:00:00	2024-11-08T22:00:00	7	Dirección del viento	0
41311	7	Sololá	701	Sololá	1	Sololá	8	Agosto	2023-08-14T00:00:00	2024-11-08T22:00:00	1	Precipitación	0
41312	7	Sololá	701	Sololá	1	Sololá	8	Agosto	2023-08-14T00:00:00	2024-11-08T22:00:00	8	Radiación solar	0
41313	7	Sololá	701	Sololá	1	Sololá	8	Agosto	2023-08-14T00:00:00	2024-11-08T23:00:00	2	Temperatura media	14
41314	7	Sololá	701	Sololá	1	Sololá	8	Agosto	2023-08-14T00:00:00	2024-11-08T23:00:00	4	Temperatura máxima	14.6
41315	7	Sololá	701	Sololá	1	Sololá	8	Agosto	2023-08-14T00:00:00	2024-11-08T23:00:00	3	Temperatura mínima	13.9
41316	7	Sololá	701	Sololá	1	Sololá	8	Agosto	2023-08-14T00:00:00	2024-11-08T23:00:00	5	Humedad	93
41317	7	Sololá	701	Sololá	1	Sololá	8	Agosto	2023-08-14T00:00:00	2024-11-08T23:00:00	6	Velocidad del viento	0
41318	7	Sololá	701	Sololá	1	Sololá	8	Agosto	2023-08-14T00:00:00	2024-11-08T23:00:00	7	Dirección del viento	0
41319	7	Sololá	701	Sololá	1	Sololá	8	Agosto	2023-08-14T00:00:00	2024-11-08T23:00:00	1	Precipitación	0
41320	7	Sololá	701	Sololá	1	Sololá	8	Agosto	2023-08-14T00:00:00	2024-11-08T23:00:00	8	Radiación solar	0
41321	7	Sololá	701	Sololá	1	Sololá	8	Agosto	2023-08-15T00:00:00	2024-11-08T00:00:00	2	Temperatura media	14.3
41322	7	Sololá	701	Sololá	1	Sololá	8	Agosto	2023-08-15T00:00:00	2024-11-08T00:00:00	4	Temperatura máxima	14.3
41323	7	Sololá	701	Sololá	1	Sololá	8	Agosto	2023-08-15T00:00:00	2024-11-08T00:00:00	3	Temperatura mínima	13.8
41324	7	Sololá	701	Sololá	1	Sololá	8	Agosto	2023-08-15T00:00:00	2024-11-08T00:00:00	5	Humedad	90
41325	7	Sololá	701	Sololá	1	Sololá	8	Agosto	2023-08-15T00:00:00	2024-11-08T00:00:00	6	Velocidad del viento	0
41326	7	Sololá	701	Sololá	1	Sololá	8	Agosto	2023-08-15T00:00:00	2024-11-08T00:00:00	7	Dirección del viento	0
41327	7	Sololá	701	Sololá	1	Sololá	8	Agosto	2023-08-15T00:00:00	2024-11-08T00:00:00	1	Precipitación	0
41328	7	Sololá	701	Sololá	1	Sololá	8	Agosto	2023-08-15T00:00:00	2024-11-08T00:00:00	8	Radiación solar	0
41329	7	Sololá	701	Sololá	1	Sololá	8	Agosto	2023-08-15T00:00:00	2024-11-08T01:00:00	2	Temperatura media	13.9
41330	7	Sololá	701	Sololá	1	Sololá	8	Agosto	2023-08-15T00:00:00	2024-11-08T01:00:00	4	Temperatura máxima	14.4
41331	7	Sololá	701	Sololá	1	Sololá	8	Agosto	2023-08-15T00:00:00	2024-11-08T01:00:00	3	Temperatura mínima	13.8
41332	7	Sololá	701	Sololá	1	Sololá	8	Agosto	2023-08-15T00:00:00	2024-11-08T01:00:00	5	Humedad	90
41333	7	Sololá	701	Sololá	1	Sololá	8	Agosto	2023-08-15T00:00:00	2024-11-08T01:00:00	6	Velocidad del viento	0
41334	7	Sololá	701	Sololá	1	Sololá	8	Agosto	2023-08-15T00:00:00	2024-11-08T01:00:00	7	Dirección del viento	0
41335	7	Sololá	701	Sololá	1	Sololá	8	Agosto	2023-08-15T00:00:00	2024-11-08T01:00:00	1	Precipitación	0
41336	7	Sololá	701	Sololá	1	Sololá	8	Agosto	2023-08-15T00:00:00	2024-11-08T01:00:00	8	Radiación solar	0
41337	7	Sololá	701	Sololá	1	Sololá	8	Agosto	2023-08-15T00:00:00	2024-11-08T02:00:00	2	Temperatura media	13.8
41338	7	Sololá	701	Sololá	1	Sololá	8	Agosto	2023-08-15T00:00:00	2024-11-08T02:00:00	4	Temperatura máxima	14.1
41339	7	Sololá	701	Sololá	1	Sololá	8	Agosto	2023-08-15T00:00:00	2024-11-08T02:00:00	3	Temperatura mínima	13.7
41340	7	Sololá	701	Sololá	1	Sololá	8	Agosto	2023-08-15T00:00:00	2024-11-08T02:00:00	5	Humedad	89
41341	7	Sololá	701	Sololá	1	Sololá	8	Agosto	2023-08-15T00:00:00	2024-11-08T02:00:00	6	Velocidad del viento	0
41342	7	Sololá	701	Sololá	1	Sololá	8	Agosto	2023-08-15T00:00:00	2024-11-08T02:00:00	7	Dirección del viento	0
41343	7	Sololá	701	Sololá	1	Sololá	8	Agosto	2023-08-15T00:00:00	2024-11-08T02:00:00	1	Precipitación	0
41344	7	Sololá	701	Sololá	1	Sololá	8	Agosto	2023-08-15T00:00:00	2024-11-08T02:00:00	8	Radiación solar	0
41345	7	Sololá	701	Sololá	1	Sololá	8	Agosto	2023-08-15T00:00:00	2024-11-08T03:00:00	2	Temperatura media	13.3
41346	7	Sololá	701	Sololá	1	Sololá	8	Agosto	2023-08-15T00:00:00	2024-11-08T03:00:00	4	Temperatura máxima	13.8
41347	7	Sololá	701	Sololá	1	Sololá	8	Agosto	2023-08-15T00:00:00	2024-11-08T03:00:00	3	Temperatura mínima	13.3
41348	7	Sololá	701	Sololá	1	Sololá	8	Agosto	2023-08-15T00:00:00	2024-11-08T03:00:00	5	Humedad	91
41349	7	Sololá	701	Sololá	1	Sololá	8	Agosto	2023-08-15T00:00:00	2024-11-08T03:00:00	6	Velocidad del viento	0
41350	7	Sololá	701	Sololá	1	Sololá	8	Agosto	2023-08-15T00:00:00	2024-11-08T03:00:00	7	Dirección del viento	0
41351	7	Sololá	701	Sololá	1	Sololá	8	Agosto	2023-08-15T00:00:00	2024-11-08T03:00:00	1	Precipitación	0
41352	7	Sololá	701	Sololá	1	Sololá	8	Agosto	2023-08-15T00:00:00	2024-11-08T03:00:00	8	Radiación solar	0
41353	7	Sololá	701	Sololá	1	Sololá	8	Agosto	2023-08-15T00:00:00	2024-11-08T04:00:00	2	Temperatura media	13.2
41354	7	Sololá	701	Sololá	1	Sololá	8	Agosto	2023-08-15T00:00:00	2024-11-08T04:00:00	4	Temperatura máxima	13.3
41355	7	Sololá	701	Sololá	1	Sololá	8	Agosto	2023-08-15T00:00:00	2024-11-08T04:00:00	3	Temperatura mínima	13.1
41356	7	Sololá	701	Sololá	1	Sololá	8	Agosto	2023-08-15T00:00:00	2024-11-08T04:00:00	5	Humedad	93
41357	7	Sololá	701	Sololá	1	Sololá	8	Agosto	2023-08-15T00:00:00	2024-11-08T04:00:00	6	Velocidad del viento	0
41358	7	Sololá	701	Sololá	1	Sololá	8	Agosto	2023-08-15T00:00:00	2024-11-08T04:00:00	7	Dirección del viento	0
41359	7	Sololá	701	Sololá	1	Sololá	8	Agosto	2023-08-15T00:00:00	2024-11-08T04:00:00	1	Precipitación	0
41360	7	Sololá	701	Sololá	1	Sololá	8	Agosto	2023-08-15T00:00:00	2024-11-08T04:00:00	8	Radiación solar	0
41361	7	Sololá	701	Sololá	1	Sololá	8	Agosto	2023-08-15T00:00:00	2024-11-08T05:00:00	2	Temperatura media	13.3
41362	7	Sololá	701	Sololá	1	Sololá	8	Agosto	2023-08-15T00:00:00	2024-11-08T05:00:00	4	Temperatura máxima	13.3
41363	7	Sololá	701	Sololá	1	Sololá	8	Agosto	2023-08-15T00:00:00	2024-11-08T05:00:00	3	Temperatura mínima	13.2
41364	7	Sololá	701	Sololá	1	Sololá	8	Agosto	2023-08-15T00:00:00	2024-11-08T05:00:00	5	Humedad	93
41365	7	Sololá	701	Sololá	1	Sololá	8	Agosto	2023-08-15T00:00:00	2024-11-08T05:00:00	6	Velocidad del viento	0
41366	7	Sololá	701	Sololá	1	Sololá	8	Agosto	2023-08-15T00:00:00	2024-11-08T05:00:00	7	Dirección del viento	0
41367	7	Sololá	701	Sololá	1	Sololá	8	Agosto	2023-08-15T00:00:00	2024-11-08T05:00:00	1	Precipitación	0
41368	7	Sololá	701	Sololá	1	Sololá	8	Agosto	2023-08-15T00:00:00	2024-11-08T05:00:00	8	Radiación solar	0
41369	7	Sololá	701	Sololá	1	Sololá	8	Agosto	2023-08-15T00:00:00	2024-11-08T06:00:00	2	Temperatura media	13.2
41370	7	Sololá	701	Sololá	1	Sololá	8	Agosto	2023-08-15T00:00:00	2024-11-08T06:00:00	4	Temperatura máxima	13.3
41371	7	Sololá	701	Sololá	1	Sololá	8	Agosto	2023-08-15T00:00:00	2024-11-08T06:00:00	3	Temperatura mínima	13.1
41372	7	Sololá	701	Sololá	1	Sololá	8	Agosto	2023-08-15T00:00:00	2024-11-08T06:00:00	5	Humedad	92
41373	7	Sololá	701	Sololá	1	Sololá	8	Agosto	2023-08-15T00:00:00	2024-11-08T06:00:00	6	Velocidad del viento	0
41374	7	Sololá	701	Sololá	1	Sololá	8	Agosto	2023-08-15T00:00:00	2024-11-08T06:00:00	7	Dirección del viento	0
41375	7	Sololá	701	Sololá	1	Sololá	8	Agosto	2023-08-15T00:00:00	2024-11-08T06:00:00	1	Precipitación	0
41376	7	Sololá	701	Sololá	1	Sololá	8	Agosto	2023-08-15T00:00:00	2024-11-08T06:00:00	8	Radiación solar	0
41377	7	Sololá	701	Sololá	1	Sololá	8	Agosto	2023-08-15T00:00:00	2024-11-08T07:00:00	2	Temperatura media	13.6
41378	7	Sololá	701	Sololá	1	Sololá	8	Agosto	2023-08-15T00:00:00	2024-11-08T07:00:00	4	Temperatura máxima	13.6
41379	7	Sololá	701	Sololá	1	Sololá	8	Agosto	2023-08-15T00:00:00	2024-11-08T07:00:00	3	Temperatura mínima	13.1
41380	7	Sololá	701	Sololá	1	Sololá	8	Agosto	2023-08-15T00:00:00	2024-11-08T07:00:00	5	Humedad	91
41381	7	Sololá	701	Sololá	1	Sololá	8	Agosto	2023-08-15T00:00:00	2024-11-08T07:00:00	6	Velocidad del viento	0
41382	7	Sololá	701	Sololá	1	Sololá	8	Agosto	2023-08-15T00:00:00	2024-11-08T07:00:00	7	Dirección del viento	0
41383	7	Sololá	701	Sololá	1	Sololá	8	Agosto	2023-08-15T00:00:00	2024-11-08T07:00:00	1	Precipitación	0
41384	7	Sololá	701	Sololá	1	Sololá	8	Agosto	2023-08-15T00:00:00	2024-11-08T07:00:00	8	Radiación solar	26
41385	7	Sololá	701	Sololá	1	Sololá	8	Agosto	2023-08-15T00:00:00	2024-11-08T08:00:00	2	Temperatura media	16.3
41386	7	Sololá	701	Sololá	1	Sololá	8	Agosto	2023-08-15T00:00:00	2024-11-08T08:00:00	4	Temperatura máxima	16.3
41387	7	Sololá	701	Sololá	1	Sololá	8	Agosto	2023-08-15T00:00:00	2024-11-08T08:00:00	3	Temperatura mínima	13.5
41388	7	Sololá	701	Sololá	1	Sololá	8	Agosto	2023-08-15T00:00:00	2024-11-08T08:00:00	5	Humedad	84
41389	7	Sololá	701	Sololá	1	Sololá	8	Agosto	2023-08-15T00:00:00	2024-11-08T08:00:00	6	Velocidad del viento	0
41390	7	Sololá	701	Sololá	1	Sololá	8	Agosto	2023-08-15T00:00:00	2024-11-08T08:00:00	7	Dirección del viento	0
41391	7	Sololá	701	Sololá	1	Sololá	8	Agosto	2023-08-15T00:00:00	2024-11-08T08:00:00	1	Precipitación	0
41392	7	Sololá	701	Sololá	1	Sololá	8	Agosto	2023-08-15T00:00:00	2024-11-08T08:00:00	8	Radiación solar	99
41393	7	Sololá	701	Sololá	1	Sololá	8	Agosto	2023-08-15T00:00:00	2024-11-08T09:00:00	2	Temperatura media	19.1
41394	7	Sololá	701	Sololá	1	Sololá	8	Agosto	2023-08-15T00:00:00	2024-11-08T09:00:00	4	Temperatura máxima	19.1
41395	7	Sololá	701	Sololá	1	Sololá	8	Agosto	2023-08-15T00:00:00	2024-11-08T09:00:00	3	Temperatura mínima	16.3
41396	7	Sololá	701	Sololá	1	Sololá	8	Agosto	2023-08-15T00:00:00	2024-11-08T09:00:00	5	Humedad	79
41397	7	Sololá	701	Sololá	1	Sololá	8	Agosto	2023-08-15T00:00:00	2024-11-08T09:00:00	6	Velocidad del viento	0
41398	7	Sololá	701	Sololá	1	Sololá	8	Agosto	2023-08-15T00:00:00	2024-11-08T09:00:00	7	Dirección del viento	0
41399	7	Sololá	701	Sololá	1	Sololá	8	Agosto	2023-08-15T00:00:00	2024-11-08T09:00:00	1	Precipitación	0
41400	7	Sololá	701	Sololá	1	Sololá	8	Agosto	2023-08-15T00:00:00	2024-11-08T09:00:00	8	Radiación solar	591
41401	7	Sololá	701	Sololá	1	Sololá	8	Agosto	2023-08-15T00:00:00	2024-11-08T10:00:00	2	Temperatura media	19.2
41402	7	Sololá	701	Sololá	1	Sololá	8	Agosto	2023-08-15T00:00:00	2024-11-08T10:00:00	4	Temperatura máxima	19.7
41403	7	Sololá	701	Sololá	1	Sololá	8	Agosto	2023-08-15T00:00:00	2024-11-08T10:00:00	3	Temperatura mínima	17.8
41404	7	Sololá	701	Sololá	1	Sololá	8	Agosto	2023-08-15T00:00:00	2024-11-08T10:00:00	5	Humedad	81
41405	7	Sololá	701	Sololá	1	Sololá	8	Agosto	2023-08-15T00:00:00	2024-11-08T10:00:00	6	Velocidad del viento	0
41406	7	Sololá	701	Sololá	1	Sololá	8	Agosto	2023-08-15T00:00:00	2024-11-08T10:00:00	7	Dirección del viento	0
41407	7	Sololá	701	Sololá	1	Sololá	8	Agosto	2023-08-15T00:00:00	2024-11-08T10:00:00	1	Precipitación	0
41408	7	Sololá	701	Sololá	1	Sololá	8	Agosto	2023-08-15T00:00:00	2024-11-08T10:00:00	8	Radiación solar	790
41409	7	Sololá	701	Sololá	1	Sololá	8	Agosto	2023-08-15T00:00:00	2024-11-08T11:00:00	2	Temperatura media	23.1
41410	7	Sololá	701	Sololá	1	Sololá	8	Agosto	2023-08-15T00:00:00	2024-11-08T11:00:00	4	Temperatura máxima	23.1
41411	7	Sololá	701	Sololá	1	Sololá	8	Agosto	2023-08-15T00:00:00	2024-11-08T11:00:00	3	Temperatura mínima	19.1
41412	7	Sololá	701	Sololá	1	Sololá	8	Agosto	2023-08-15T00:00:00	2024-11-08T11:00:00	5	Humedad	60
41413	7	Sololá	701	Sololá	1	Sololá	8	Agosto	2023-08-15T00:00:00	2024-11-08T11:00:00	6	Velocidad del viento	0
41414	7	Sololá	701	Sololá	1	Sololá	8	Agosto	2023-08-15T00:00:00	2024-11-08T11:00:00	7	Dirección del viento	0
41415	7	Sololá	701	Sololá	1	Sololá	8	Agosto	2023-08-15T00:00:00	2024-11-08T11:00:00	1	Precipitación	0
41416	7	Sololá	701	Sololá	1	Sololá	8	Agosto	2023-08-15T00:00:00	2024-11-08T11:00:00	8	Radiación solar	913
41417	7	Sololá	701	Sololá	1	Sololá	8	Agosto	2023-08-15T00:00:00	2024-11-08T12:00:00	2	Temperatura media	22.2
41418	7	Sololá	701	Sololá	1	Sololá	8	Agosto	2023-08-15T00:00:00	2024-11-08T12:00:00	4	Temperatura máxima	23.4
41419	7	Sololá	701	Sololá	1	Sololá	8	Agosto	2023-08-15T00:00:00	2024-11-08T12:00:00	3	Temperatura mínima	22.2
41420	7	Sololá	701	Sololá	1	Sololá	8	Agosto	2023-08-15T00:00:00	2024-11-08T12:00:00	5	Humedad	67
41421	7	Sololá	701	Sololá	1	Sololá	8	Agosto	2023-08-15T00:00:00	2024-11-08T12:00:00	6	Velocidad del viento	0
41422	7	Sololá	701	Sololá	1	Sololá	8	Agosto	2023-08-15T00:00:00	2024-11-08T12:00:00	7	Dirección del viento	0
41423	7	Sololá	701	Sololá	1	Sololá	8	Agosto	2023-08-15T00:00:00	2024-11-08T12:00:00	1	Precipitación	0
41424	7	Sololá	701	Sololá	1	Sololá	8	Agosto	2023-08-15T00:00:00	2024-11-08T12:00:00	8	Radiación solar	959
41425	7	Sololá	701	Sololá	1	Sololá	8	Agosto	2023-08-15T00:00:00	2024-11-08T13:00:00	2	Temperatura media	20
41426	7	Sololá	701	Sololá	1	Sololá	8	Agosto	2023-08-15T00:00:00	2024-11-08T13:00:00	4	Temperatura máxima	22.3
41427	7	Sololá	701	Sololá	1	Sololá	8	Agosto	2023-08-15T00:00:00	2024-11-08T13:00:00	3	Temperatura mínima	20
41428	7	Sololá	701	Sololá	1	Sololá	8	Agosto	2023-08-15T00:00:00	2024-11-08T13:00:00	5	Humedad	80
41429	7	Sololá	701	Sololá	1	Sololá	8	Agosto	2023-08-15T00:00:00	2024-11-08T13:00:00	6	Velocidad del viento	0
41430	7	Sololá	701	Sololá	1	Sololá	8	Agosto	2023-08-15T00:00:00	2024-11-08T13:00:00	7	Dirección del viento	0
41431	7	Sololá	701	Sololá	1	Sololá	8	Agosto	2023-08-15T00:00:00	2024-11-08T13:00:00	1	Precipitación	0
41432	7	Sololá	701	Sololá	1	Sololá	8	Agosto	2023-08-15T00:00:00	2024-11-08T13:00:00	8	Radiación solar	447
41433	7	Sololá	701	Sololá	1	Sololá	8	Agosto	2023-08-15T00:00:00	2024-11-08T14:00:00	2	Temperatura media	18.4
41434	7	Sololá	701	Sololá	1	Sololá	8	Agosto	2023-08-15T00:00:00	2024-11-08T14:00:00	4	Temperatura máxima	20
41435	7	Sololá	701	Sololá	1	Sololá	8	Agosto	2023-08-15T00:00:00	2024-11-08T14:00:00	3	Temperatura mínima	18.4
41436	7	Sololá	701	Sololá	1	Sololá	8	Agosto	2023-08-15T00:00:00	2024-11-08T14:00:00	5	Humedad	89
41437	7	Sololá	701	Sololá	1	Sololá	8	Agosto	2023-08-15T00:00:00	2024-11-08T14:00:00	6	Velocidad del viento	0
41438	7	Sololá	701	Sololá	1	Sololá	8	Agosto	2023-08-15T00:00:00	2024-11-08T14:00:00	7	Dirección del viento	0
41439	7	Sololá	701	Sololá	1	Sololá	8	Agosto	2023-08-15T00:00:00	2024-11-08T14:00:00	1	Precipitación	0
41440	7	Sololá	701	Sololá	1	Sololá	8	Agosto	2023-08-15T00:00:00	2024-11-08T14:00:00	8	Radiación solar	253
41441	7	Sololá	701	Sololá	1	Sololá	8	Agosto	2023-08-15T00:00:00	2024-11-08T15:00:00	2	Temperatura media	19.5
41442	7	Sololá	701	Sololá	1	Sololá	8	Agosto	2023-08-15T00:00:00	2024-11-08T15:00:00	4	Temperatura máxima	19.5
41443	7	Sololá	701	Sololá	1	Sololá	8	Agosto	2023-08-15T00:00:00	2024-11-08T15:00:00	3	Temperatura mínima	18.3
41444	7	Sololá	701	Sololá	1	Sololá	8	Agosto	2023-08-15T00:00:00	2024-11-08T15:00:00	5	Humedad	86
41445	7	Sololá	701	Sololá	1	Sololá	8	Agosto	2023-08-15T00:00:00	2024-11-08T15:00:00	6	Velocidad del viento	0
41446	7	Sololá	701	Sololá	1	Sololá	8	Agosto	2023-08-15T00:00:00	2024-11-08T15:00:00	7	Dirección del viento	0
41447	7	Sololá	701	Sololá	1	Sololá	8	Agosto	2023-08-15T00:00:00	2024-11-08T15:00:00	1	Precipitación	0
41448	7	Sololá	701	Sololá	1	Sololá	8	Agosto	2023-08-15T00:00:00	2024-11-08T15:00:00	8	Radiación solar	140
41449	7	Sololá	701	Sololá	1	Sololá	8	Agosto	2023-08-15T00:00:00	2024-11-08T16:00:00	2	Temperatura media	17.7
41450	7	Sololá	701	Sololá	1	Sololá	8	Agosto	2023-08-15T00:00:00	2024-11-08T16:00:00	4	Temperatura máxima	19.6
41451	7	Sololá	701	Sololá	1	Sololá	8	Agosto	2023-08-15T00:00:00	2024-11-08T16:00:00	3	Temperatura mínima	17.7
41452	7	Sololá	701	Sololá	1	Sololá	8	Agosto	2023-08-15T00:00:00	2024-11-08T16:00:00	5	Humedad	90
41453	7	Sololá	701	Sololá	1	Sololá	8	Agosto	2023-08-15T00:00:00	2024-11-08T16:00:00	6	Velocidad del viento	0
41454	7	Sololá	701	Sololá	1	Sololá	8	Agosto	2023-08-15T00:00:00	2024-11-08T16:00:00	7	Dirección del viento	0
41455	7	Sololá	701	Sololá	1	Sololá	8	Agosto	2023-08-15T00:00:00	2024-11-08T16:00:00	1	Precipitación	0
41456	7	Sololá	701	Sololá	1	Sololá	8	Agosto	2023-08-15T00:00:00	2024-11-08T16:00:00	8	Radiación solar	26
41457	7	Sololá	701	Sololá	1	Sololá	8	Agosto	2023-08-15T00:00:00	2024-11-08T17:00:00	2	Temperatura media	16.2
41458	7	Sololá	701	Sololá	1	Sololá	8	Agosto	2023-08-15T00:00:00	2024-11-08T17:00:00	4	Temperatura máxima	17.7
41459	7	Sololá	701	Sololá	1	Sololá	8	Agosto	2023-08-15T00:00:00	2024-11-08T17:00:00	3	Temperatura mínima	16.1
41460	7	Sololá	701	Sololá	1	Sololá	8	Agosto	2023-08-15T00:00:00	2024-11-08T17:00:00	5	Humedad	96
41461	7	Sololá	701	Sololá	1	Sololá	8	Agosto	2023-08-15T00:00:00	2024-11-08T17:00:00	6	Velocidad del viento	0
41462	7	Sololá	701	Sololá	1	Sololá	8	Agosto	2023-08-15T00:00:00	2024-11-08T17:00:00	7	Dirección del viento	0
41463	7	Sololá	701	Sololá	1	Sololá	8	Agosto	2023-08-15T00:00:00	2024-11-08T17:00:00	1	Precipitación	0
41464	7	Sololá	701	Sololá	1	Sololá	8	Agosto	2023-08-15T00:00:00	2024-11-08T17:00:00	8	Radiación solar	0
41465	7	Sololá	701	Sololá	1	Sololá	8	Agosto	2023-08-15T00:00:00	2024-11-08T18:00:00	2	Temperatura media	15.2
41466	7	Sololá	701	Sololá	1	Sololá	8	Agosto	2023-08-15T00:00:00	2024-11-08T18:00:00	4	Temperatura máxima	16.3
41467	7	Sololá	701	Sololá	1	Sololá	8	Agosto	2023-08-15T00:00:00	2024-11-08T18:00:00	3	Temperatura mínima	15.2
41468	7	Sololá	701	Sololá	1	Sololá	8	Agosto	2023-08-15T00:00:00	2024-11-08T18:00:00	5	Humedad	96
41469	7	Sololá	701	Sololá	1	Sololá	8	Agosto	2023-08-15T00:00:00	2024-11-08T18:00:00	6	Velocidad del viento	0
41470	7	Sololá	701	Sololá	1	Sololá	8	Agosto	2023-08-15T00:00:00	2024-11-08T18:00:00	7	Dirección del viento	0
41471	7	Sololá	701	Sololá	1	Sololá	8	Agosto	2023-08-15T00:00:00	2024-11-08T18:00:00	1	Precipitación	19.8
41472	7	Sololá	701	Sololá	1	Sololá	8	Agosto	2023-08-15T00:00:00	2024-11-08T18:00:00	8	Radiación solar	0
41473	7	Sololá	701	Sololá	1	Sololá	8	Agosto	2023-08-15T00:00:00	2024-11-08T19:00:00	2	Temperatura media	14.9
41474	7	Sololá	701	Sololá	1	Sololá	8	Agosto	2023-08-15T00:00:00	2024-11-08T19:00:00	4	Temperatura máxima	15.2
41475	7	Sololá	701	Sololá	1	Sololá	8	Agosto	2023-08-15T00:00:00	2024-11-08T19:00:00	3	Temperatura mínima	14.9
41476	7	Sololá	701	Sololá	1	Sololá	8	Agosto	2023-08-15T00:00:00	2024-11-08T19:00:00	5	Humedad	96
41477	7	Sololá	701	Sololá	1	Sololá	8	Agosto	2023-08-15T00:00:00	2024-11-08T19:00:00	6	Velocidad del viento	0
41478	7	Sololá	701	Sololá	1	Sololá	8	Agosto	2023-08-15T00:00:00	2024-11-08T19:00:00	7	Dirección del viento	0
41479	7	Sololá	701	Sololá	1	Sololá	8	Agosto	2023-08-15T00:00:00	2024-11-08T19:00:00	1	Precipitación	0.8
41480	7	Sololá	701	Sololá	1	Sololá	8	Agosto	2023-08-15T00:00:00	2024-11-08T19:00:00	8	Radiación solar	0
41481	7	Sololá	701	Sololá	1	Sololá	8	Agosto	2023-08-15T00:00:00	2024-11-08T20:00:00	2	Temperatura media	14.6
41482	7	Sololá	701	Sololá	1	Sololá	8	Agosto	2023-08-15T00:00:00	2024-11-08T20:00:00	4	Temperatura máxima	14.9
41483	7	Sololá	701	Sololá	1	Sololá	8	Agosto	2023-08-15T00:00:00	2024-11-08T20:00:00	3	Temperatura mínima	14.6
41484	7	Sololá	701	Sololá	1	Sololá	8	Agosto	2023-08-15T00:00:00	2024-11-08T20:00:00	5	Humedad	96
41485	7	Sololá	701	Sololá	1	Sololá	8	Agosto	2023-08-15T00:00:00	2024-11-08T20:00:00	6	Velocidad del viento	0
41486	7	Sololá	701	Sololá	1	Sololá	8	Agosto	2023-08-15T00:00:00	2024-11-08T20:00:00	7	Dirección del viento	0
41487	7	Sololá	701	Sololá	1	Sololá	8	Agosto	2023-08-15T00:00:00	2024-11-08T20:00:00	1	Precipitación	0
41488	7	Sololá	701	Sololá	1	Sololá	8	Agosto	2023-08-15T00:00:00	2024-11-08T20:00:00	8	Radiación solar	0
41489	7	Sololá	701	Sololá	1	Sololá	8	Agosto	2023-08-15T00:00:00	2024-11-08T21:00:00	2	Temperatura media	14.5
41490	7	Sololá	701	Sololá	1	Sololá	8	Agosto	2023-08-15T00:00:00	2024-11-08T21:00:00	4	Temperatura máxima	14.6
41491	7	Sololá	701	Sololá	1	Sololá	8	Agosto	2023-08-15T00:00:00	2024-11-08T21:00:00	3	Temperatura mínima	14.4
41492	7	Sololá	701	Sololá	1	Sololá	8	Agosto	2023-08-15T00:00:00	2024-11-08T21:00:00	5	Humedad	97
41493	7	Sololá	701	Sololá	1	Sololá	8	Agosto	2023-08-15T00:00:00	2024-11-08T21:00:00	6	Velocidad del viento	0
41494	7	Sololá	701	Sololá	1	Sololá	8	Agosto	2023-08-15T00:00:00	2024-11-08T21:00:00	7	Dirección del viento	0
41495	7	Sololá	701	Sololá	1	Sololá	8	Agosto	2023-08-15T00:00:00	2024-11-08T21:00:00	1	Precipitación	0.4
41496	7	Sololá	701	Sololá	1	Sololá	8	Agosto	2023-08-15T00:00:00	2024-11-08T21:00:00	8	Radiación solar	0
41497	7	Sololá	701	Sololá	1	Sololá	8	Agosto	2023-08-15T00:00:00	2024-11-08T22:00:00	2	Temperatura media	14.5
41498	7	Sololá	701	Sololá	1	Sololá	8	Agosto	2023-08-15T00:00:00	2024-11-08T22:00:00	4	Temperatura máxima	14.6
41499	7	Sololá	701	Sololá	1	Sololá	8	Agosto	2023-08-15T00:00:00	2024-11-08T22:00:00	3	Temperatura mínima	14.4
41500	7	Sololá	701	Sololá	1	Sololá	8	Agosto	2023-08-15T00:00:00	2024-11-08T22:00:00	5	Humedad	97
41501	7	Sololá	701	Sololá	1	Sololá	8	Agosto	2023-08-15T00:00:00	2024-11-08T22:00:00	6	Velocidad del viento	0
41502	7	Sololá	701	Sololá	1	Sololá	8	Agosto	2023-08-15T00:00:00	2024-11-08T22:00:00	7	Dirección del viento	0
41503	7	Sololá	701	Sololá	1	Sololá	8	Agosto	2023-08-15T00:00:00	2024-11-08T22:00:00	1	Precipitación	5.2
41504	7	Sololá	701	Sololá	1	Sololá	8	Agosto	2023-08-15T00:00:00	2024-11-08T22:00:00	8	Radiación solar	0
41505	7	Sololá	701	Sololá	1	Sololá	8	Agosto	2023-08-15T00:00:00	2024-11-08T23:00:00	2	Temperatura media	14
41506	7	Sololá	701	Sololá	1	Sololá	8	Agosto	2023-08-15T00:00:00	2024-11-08T23:00:00	4	Temperatura máxima	14.5
41507	7	Sololá	701	Sololá	1	Sololá	8	Agosto	2023-08-15T00:00:00	2024-11-08T23:00:00	3	Temperatura mínima	14
41508	7	Sololá	701	Sololá	1	Sololá	8	Agosto	2023-08-15T00:00:00	2024-11-08T23:00:00	5	Humedad	97
41509	7	Sololá	701	Sololá	1	Sololá	8	Agosto	2023-08-15T00:00:00	2024-11-08T23:00:00	6	Velocidad del viento	0
41510	7	Sololá	701	Sololá	1	Sololá	8	Agosto	2023-08-15T00:00:00	2024-11-08T23:00:00	7	Dirección del viento	0
41511	7	Sololá	701	Sololá	1	Sololá	8	Agosto	2023-08-15T00:00:00	2024-11-08T23:00:00	1	Precipitación	0
41512	7	Sololá	701	Sololá	1	Sololá	8	Agosto	2023-08-15T00:00:00	2024-11-08T23:00:00	8	Radiación solar	0
41513	7	Sololá	701	Sololá	1	Sololá	8	Agosto	2023-08-16T00:00:00	2024-11-08T00:00:00	2	Temperatura media	13.3
41514	7	Sololá	701	Sololá	1	Sololá	8	Agosto	2023-08-16T00:00:00	2024-11-08T00:00:00	4	Temperatura máxima	14.1
41515	7	Sololá	701	Sololá	1	Sololá	8	Agosto	2023-08-16T00:00:00	2024-11-08T00:00:00	3	Temperatura mínima	13.3
41516	7	Sololá	701	Sololá	1	Sololá	8	Agosto	2023-08-16T00:00:00	2024-11-08T00:00:00	5	Humedad	96
41517	7	Sololá	701	Sololá	1	Sololá	8	Agosto	2023-08-16T00:00:00	2024-11-08T00:00:00	6	Velocidad del viento	0
41518	7	Sololá	701	Sololá	1	Sololá	8	Agosto	2023-08-16T00:00:00	2024-11-08T00:00:00	7	Dirección del viento	0
41519	7	Sololá	701	Sololá	1	Sololá	8	Agosto	2023-08-16T00:00:00	2024-11-08T00:00:00	1	Precipitación	0
41520	7	Sololá	701	Sololá	1	Sololá	8	Agosto	2023-08-16T00:00:00	2024-11-08T00:00:00	8	Radiación solar	0
41521	7	Sololá	701	Sololá	1	Sololá	8	Agosto	2023-08-16T00:00:00	2024-11-08T01:00:00	2	Temperatura media	13.3
41522	7	Sololá	701	Sololá	1	Sololá	8	Agosto	2023-08-16T00:00:00	2024-11-08T01:00:00	4	Temperatura máxima	13.3
41523	7	Sololá	701	Sololá	1	Sololá	8	Agosto	2023-08-16T00:00:00	2024-11-08T01:00:00	3	Temperatura mínima	13
41524	7	Sololá	701	Sololá	1	Sololá	8	Agosto	2023-08-16T00:00:00	2024-11-08T01:00:00	5	Humedad	97
41525	7	Sololá	701	Sololá	1	Sololá	8	Agosto	2023-08-16T00:00:00	2024-11-08T01:00:00	6	Velocidad del viento	0
41526	7	Sololá	701	Sololá	1	Sololá	8	Agosto	2023-08-16T00:00:00	2024-11-08T01:00:00	7	Dirección del viento	0
41527	7	Sololá	701	Sololá	1	Sololá	8	Agosto	2023-08-16T00:00:00	2024-11-08T01:00:00	1	Precipitación	0
41528	7	Sololá	701	Sololá	1	Sololá	8	Agosto	2023-08-16T00:00:00	2024-11-08T01:00:00	8	Radiación solar	0
41529	7	Sololá	701	Sololá	1	Sololá	8	Agosto	2023-08-16T00:00:00	2024-11-08T02:00:00	2	Temperatura media	13
41530	7	Sololá	701	Sololá	1	Sololá	8	Agosto	2023-08-16T00:00:00	2024-11-08T02:00:00	4	Temperatura máxima	13.3
41531	7	Sololá	701	Sololá	1	Sololá	8	Agosto	2023-08-16T00:00:00	2024-11-08T02:00:00	3	Temperatura mínima	12.9
41532	7	Sololá	701	Sololá	1	Sololá	8	Agosto	2023-08-16T00:00:00	2024-11-08T02:00:00	5	Humedad	96
41533	7	Sololá	701	Sololá	1	Sololá	8	Agosto	2023-08-16T00:00:00	2024-11-08T02:00:00	6	Velocidad del viento	0
41534	7	Sololá	701	Sololá	1	Sololá	8	Agosto	2023-08-16T00:00:00	2024-11-08T02:00:00	7	Dirección del viento	0
41535	7	Sololá	701	Sololá	1	Sololá	8	Agosto	2023-08-16T00:00:00	2024-11-08T02:00:00	1	Precipitación	0
41536	7	Sololá	701	Sololá	1	Sololá	8	Agosto	2023-08-16T00:00:00	2024-11-08T02:00:00	8	Radiación solar	0
41537	7	Sololá	701	Sololá	1	Sololá	8	Agosto	2023-08-16T00:00:00	2024-11-08T03:00:00	2	Temperatura media	12.3
41538	7	Sololá	701	Sololá	1	Sololá	8	Agosto	2023-08-16T00:00:00	2024-11-08T03:00:00	4	Temperatura máxima	13
41539	7	Sololá	701	Sololá	1	Sololá	8	Agosto	2023-08-16T00:00:00	2024-11-08T03:00:00	3	Temperatura mínima	12.2
41540	7	Sololá	701	Sololá	1	Sololá	8	Agosto	2023-08-16T00:00:00	2024-11-08T03:00:00	5	Humedad	96
41541	7	Sololá	701	Sololá	1	Sololá	8	Agosto	2023-08-16T00:00:00	2024-11-08T03:00:00	6	Velocidad del viento	0
41542	7	Sololá	701	Sololá	1	Sololá	8	Agosto	2023-08-16T00:00:00	2024-11-08T03:00:00	7	Dirección del viento	0
41543	7	Sololá	701	Sololá	1	Sololá	8	Agosto	2023-08-16T00:00:00	2024-11-08T03:00:00	1	Precipitación	0.2
41544	7	Sololá	701	Sololá	1	Sololá	8	Agosto	2023-08-16T00:00:00	2024-11-08T03:00:00	8	Radiación solar	0
41545	7	Sololá	701	Sololá	1	Sololá	8	Agosto	2023-08-16T00:00:00	2024-11-08T04:00:00	2	Temperatura media	12.2
41546	7	Sololá	701	Sololá	1	Sololá	8	Agosto	2023-08-16T00:00:00	2024-11-08T04:00:00	4	Temperatura máxima	12.3
41547	7	Sololá	701	Sololá	1	Sololá	8	Agosto	2023-08-16T00:00:00	2024-11-08T04:00:00	3	Temperatura mínima	12.2
41548	7	Sololá	701	Sololá	1	Sololá	8	Agosto	2023-08-16T00:00:00	2024-11-08T04:00:00	5	Humedad	95
41549	7	Sololá	701	Sololá	1	Sololá	8	Agosto	2023-08-16T00:00:00	2024-11-08T04:00:00	6	Velocidad del viento	0
41550	7	Sololá	701	Sololá	1	Sololá	8	Agosto	2023-08-16T00:00:00	2024-11-08T04:00:00	7	Dirección del viento	0
41551	7	Sololá	701	Sololá	1	Sololá	8	Agosto	2023-08-16T00:00:00	2024-11-08T04:00:00	1	Precipitación	0
41552	7	Sololá	701	Sololá	1	Sololá	8	Agosto	2023-08-16T00:00:00	2024-11-08T04:00:00	8	Radiación solar	0
41553	7	Sololá	701	Sololá	1	Sololá	8	Agosto	2023-08-16T00:00:00	2024-11-08T05:00:00	2	Temperatura media	12.3
41554	7	Sololá	701	Sololá	1	Sololá	8	Agosto	2023-08-16T00:00:00	2024-11-08T05:00:00	4	Temperatura máxima	12.4
41555	7	Sololá	701	Sololá	1	Sololá	8	Agosto	2023-08-16T00:00:00	2024-11-08T05:00:00	3	Temperatura mínima	12.2
41556	7	Sololá	701	Sololá	1	Sololá	8	Agosto	2023-08-16T00:00:00	2024-11-08T05:00:00	5	Humedad	96
41557	7	Sololá	701	Sololá	1	Sololá	8	Agosto	2023-08-16T00:00:00	2024-11-08T05:00:00	6	Velocidad del viento	0
41558	7	Sololá	701	Sololá	1	Sololá	8	Agosto	2023-08-16T00:00:00	2024-11-08T05:00:00	7	Dirección del viento	0
41559	7	Sololá	701	Sololá	1	Sololá	8	Agosto	2023-08-16T00:00:00	2024-11-08T05:00:00	1	Precipitación	0
41560	7	Sololá	701	Sololá	1	Sololá	8	Agosto	2023-08-16T00:00:00	2024-11-08T05:00:00	8	Radiación solar	0
41561	7	Sololá	701	Sololá	1	Sololá	8	Agosto	2023-08-16T00:00:00	2024-11-08T06:00:00	2	Temperatura media	12.1
41562	7	Sololá	701	Sololá	1	Sololá	8	Agosto	2023-08-16T00:00:00	2024-11-08T06:00:00	4	Temperatura máxima	12.3
41563	7	Sololá	701	Sololá	1	Sololá	8	Agosto	2023-08-16T00:00:00	2024-11-08T06:00:00	3	Temperatura mínima	12
41564	7	Sololá	701	Sololá	1	Sololá	8	Agosto	2023-08-16T00:00:00	2024-11-08T06:00:00	5	Humedad	96
41565	7	Sololá	701	Sololá	1	Sololá	8	Agosto	2023-08-16T00:00:00	2024-11-08T06:00:00	6	Velocidad del viento	0
41566	7	Sololá	701	Sololá	1	Sololá	8	Agosto	2023-08-16T00:00:00	2024-11-08T06:00:00	7	Dirección del viento	0
41567	7	Sololá	701	Sololá	1	Sololá	8	Agosto	2023-08-16T00:00:00	2024-11-08T06:00:00	1	Precipitación	0
41568	7	Sololá	701	Sololá	1	Sololá	8	Agosto	2023-08-16T00:00:00	2024-11-08T06:00:00	8	Radiación solar	0
41569	7	Sololá	701	Sololá	1	Sololá	8	Agosto	2023-08-16T00:00:00	2024-11-08T07:00:00	2	Temperatura media	12.4
41570	7	Sololá	701	Sololá	1	Sololá	8	Agosto	2023-08-16T00:00:00	2024-11-08T07:00:00	4	Temperatura máxima	12.4
41571	7	Sololá	701	Sololá	1	Sololá	8	Agosto	2023-08-16T00:00:00	2024-11-08T07:00:00	3	Temperatura mínima	11.8
41572	7	Sololá	701	Sololá	1	Sololá	8	Agosto	2023-08-16T00:00:00	2024-11-08T07:00:00	5	Humedad	96
41573	7	Sololá	701	Sololá	1	Sololá	8	Agosto	2023-08-16T00:00:00	2024-11-08T07:00:00	6	Velocidad del viento	0
41574	7	Sololá	701	Sololá	1	Sololá	8	Agosto	2023-08-16T00:00:00	2024-11-08T07:00:00	7	Dirección del viento	0
41575	7	Sololá	701	Sololá	1	Sololá	8	Agosto	2023-08-16T00:00:00	2024-11-08T07:00:00	1	Precipitación	0
41576	7	Sololá	701	Sololá	1	Sololá	8	Agosto	2023-08-16T00:00:00	2024-11-08T07:00:00	8	Radiación solar	50
41577	7	Sololá	701	Sololá	1	Sololá	8	Agosto	2023-08-16T00:00:00	2024-11-08T08:00:00	2	Temperatura media	14.8
41578	7	Sololá	701	Sololá	1	Sololá	8	Agosto	2023-08-16T00:00:00	2024-11-08T08:00:00	4	Temperatura máxima	14.8
41579	7	Sololá	701	Sololá	1	Sololá	8	Agosto	2023-08-16T00:00:00	2024-11-08T08:00:00	3	Temperatura mínima	12.4
41580	7	Sololá	701	Sololá	1	Sololá	8	Agosto	2023-08-16T00:00:00	2024-11-08T08:00:00	5	Humedad	94
41581	7	Sololá	701	Sololá	1	Sololá	8	Agosto	2023-08-16T00:00:00	2024-11-08T08:00:00	6	Velocidad del viento	0
41582	7	Sololá	701	Sololá	1	Sololá	8	Agosto	2023-08-16T00:00:00	2024-11-08T08:00:00	7	Dirección del viento	0
41583	7	Sololá	701	Sololá	1	Sololá	8	Agosto	2023-08-16T00:00:00	2024-11-08T08:00:00	1	Precipitación	0
41584	7	Sololá	701	Sololá	1	Sololá	8	Agosto	2023-08-16T00:00:00	2024-11-08T08:00:00	8	Radiación solar	146
41585	7	Sololá	701	Sololá	1	Sololá	8	Agosto	2023-08-16T00:00:00	2024-11-08T09:00:00	2	Temperatura media	17.4
41586	7	Sololá	701	Sololá	1	Sololá	8	Agosto	2023-08-16T00:00:00	2024-11-08T09:00:00	4	Temperatura máxima	17.4
41587	7	Sololá	701	Sololá	1	Sololá	8	Agosto	2023-08-16T00:00:00	2024-11-08T09:00:00	3	Temperatura mínima	14.8
41588	7	Sololá	701	Sololá	1	Sololá	8	Agosto	2023-08-16T00:00:00	2024-11-08T09:00:00	5	Humedad	89
41589	7	Sololá	701	Sololá	1	Sololá	8	Agosto	2023-08-16T00:00:00	2024-11-08T09:00:00	6	Velocidad del viento	0
41590	7	Sololá	701	Sololá	1	Sololá	8	Agosto	2023-08-16T00:00:00	2024-11-08T09:00:00	7	Dirección del viento	0
41591	7	Sololá	701	Sololá	1	Sololá	8	Agosto	2023-08-16T00:00:00	2024-11-08T09:00:00	1	Precipitación	0
41592	7	Sololá	701	Sololá	1	Sololá	8	Agosto	2023-08-16T00:00:00	2024-11-08T09:00:00	8	Radiación solar	338
41593	7	Sololá	701	Sololá	1	Sololá	8	Agosto	2023-08-16T00:00:00	2024-11-08T10:00:00	2	Temperatura media	18.7
41594	7	Sololá	701	Sololá	1	Sololá	8	Agosto	2023-08-16T00:00:00	2024-11-08T10:00:00	4	Temperatura máxima	18.8
41595	7	Sololá	701	Sololá	1	Sololá	8	Agosto	2023-08-16T00:00:00	2024-11-08T10:00:00	3	Temperatura mínima	16.7
41596	7	Sololá	701	Sololá	1	Sololá	8	Agosto	2023-08-16T00:00:00	2024-11-08T10:00:00	5	Humedad	82
41597	7	Sololá	701	Sololá	1	Sololá	8	Agosto	2023-08-16T00:00:00	2024-11-08T10:00:00	6	Velocidad del viento	0
41598	7	Sololá	701	Sololá	1	Sololá	8	Agosto	2023-08-16T00:00:00	2024-11-08T10:00:00	7	Dirección del viento	0
41599	7	Sololá	701	Sololá	1	Sololá	8	Agosto	2023-08-16T00:00:00	2024-11-08T10:00:00	1	Precipitación	0
41600	7	Sololá	701	Sololá	1	Sololá	8	Agosto	2023-08-16T00:00:00	2024-11-08T10:00:00	8	Radiación solar	659
41601	7	Sololá	701	Sololá	1	Sololá	8	Agosto	2023-08-16T00:00:00	2024-11-08T11:00:00	2	Temperatura media	20.7
41602	7	Sololá	701	Sololá	1	Sololá	8	Agosto	2023-08-16T00:00:00	2024-11-08T11:00:00	4	Temperatura máxima	20.8
41603	7	Sololá	701	Sololá	1	Sololá	8	Agosto	2023-08-16T00:00:00	2024-11-08T11:00:00	3	Temperatura mínima	18.6
41604	7	Sololá	701	Sololá	1	Sololá	8	Agosto	2023-08-16T00:00:00	2024-11-08T11:00:00	5	Humedad	80
41605	7	Sololá	701	Sololá	1	Sololá	8	Agosto	2023-08-16T00:00:00	2024-11-08T11:00:00	6	Velocidad del viento	0
41606	7	Sololá	701	Sololá	1	Sololá	8	Agosto	2023-08-16T00:00:00	2024-11-08T11:00:00	7	Dirección del viento	0
41607	7	Sololá	701	Sololá	1	Sololá	8	Agosto	2023-08-16T00:00:00	2024-11-08T11:00:00	1	Precipitación	0
41608	7	Sololá	701	Sololá	1	Sololá	8	Agosto	2023-08-16T00:00:00	2024-11-08T11:00:00	8	Radiación solar	775
41609	7	Sololá	701	Sololá	1	Sololá	8	Agosto	2023-08-16T00:00:00	2024-11-08T12:00:00	2	Temperatura media	20.5
41610	7	Sololá	701	Sololá	1	Sololá	8	Agosto	2023-08-16T00:00:00	2024-11-08T12:00:00	4	Temperatura máxima	20.7
41611	7	Sololá	701	Sololá	1	Sololá	8	Agosto	2023-08-16T00:00:00	2024-11-08T12:00:00	3	Temperatura mínima	19.7
41612	7	Sololá	701	Sololá	1	Sololá	8	Agosto	2023-08-16T00:00:00	2024-11-08T12:00:00	5	Humedad	76
41613	7	Sololá	701	Sololá	1	Sololá	8	Agosto	2023-08-16T00:00:00	2024-11-08T12:00:00	6	Velocidad del viento	0
41614	7	Sololá	701	Sololá	1	Sololá	8	Agosto	2023-08-16T00:00:00	2024-11-08T12:00:00	7	Dirección del viento	0
41615	7	Sololá	701	Sololá	1	Sololá	8	Agosto	2023-08-16T00:00:00	2024-11-08T12:00:00	1	Precipitación	0
41616	7	Sololá	701	Sololá	1	Sololá	8	Agosto	2023-08-16T00:00:00	2024-11-08T12:00:00	8	Radiación solar	765
41617	7	Sololá	701	Sololá	1	Sololá	8	Agosto	2023-08-16T00:00:00	2024-11-08T13:00:00	2	Temperatura media	19.8
41618	7	Sololá	701	Sololá	1	Sololá	8	Agosto	2023-08-16T00:00:00	2024-11-08T13:00:00	4	Temperatura máxima	20.9
41619	7	Sololá	701	Sololá	1	Sololá	8	Agosto	2023-08-16T00:00:00	2024-11-08T13:00:00	3	Temperatura mínima	19.8
41620	7	Sololá	701	Sololá	1	Sololá	8	Agosto	2023-08-16T00:00:00	2024-11-08T13:00:00	5	Humedad	84
41621	7	Sololá	701	Sololá	1	Sololá	8	Agosto	2023-08-16T00:00:00	2024-11-08T13:00:00	6	Velocidad del viento	0
41622	7	Sololá	701	Sololá	1	Sololá	8	Agosto	2023-08-16T00:00:00	2024-11-08T13:00:00	7	Dirección del viento	0
41623	7	Sololá	701	Sololá	1	Sololá	8	Agosto	2023-08-16T00:00:00	2024-11-08T13:00:00	1	Precipitación	0
41624	7	Sololá	701	Sololá	1	Sololá	8	Agosto	2023-08-16T00:00:00	2024-11-08T13:00:00	8	Radiación solar	351
41625	7	Sololá	701	Sololá	1	Sololá	8	Agosto	2023-08-16T00:00:00	2024-11-08T14:00:00	2	Temperatura media	17.7
41626	7	Sololá	701	Sololá	1	Sololá	8	Agosto	2023-08-16T00:00:00	2024-11-08T14:00:00	4	Temperatura máxima	19.8
41627	7	Sololá	701	Sololá	1	Sololá	8	Agosto	2023-08-16T00:00:00	2024-11-08T14:00:00	3	Temperatura mínima	17.7
41628	7	Sololá	701	Sololá	1	Sololá	8	Agosto	2023-08-16T00:00:00	2024-11-08T14:00:00	5	Humedad	90
41629	7	Sololá	701	Sololá	1	Sololá	8	Agosto	2023-08-16T00:00:00	2024-11-08T14:00:00	6	Velocidad del viento	0
41630	7	Sololá	701	Sololá	1	Sololá	8	Agosto	2023-08-16T00:00:00	2024-11-08T14:00:00	7	Dirección del viento	0
41631	7	Sololá	701	Sololá	1	Sololá	8	Agosto	2023-08-16T00:00:00	2024-11-08T14:00:00	1	Precipitación	0
41632	7	Sololá	701	Sololá	1	Sololá	8	Agosto	2023-08-16T00:00:00	2024-11-08T14:00:00	8	Radiación solar	276
41633	7	Sololá	701	Sololá	1	Sololá	8	Agosto	2023-08-16T00:00:00	2024-11-08T15:00:00	2	Temperatura media	16.8
41634	7	Sololá	701	Sololá	1	Sololá	8	Agosto	2023-08-16T00:00:00	2024-11-08T15:00:00	4	Temperatura máxima	17.8
41635	7	Sololá	701	Sololá	1	Sololá	8	Agosto	2023-08-16T00:00:00	2024-11-08T15:00:00	3	Temperatura mínima	16.8
41636	7	Sololá	701	Sololá	1	Sololá	8	Agosto	2023-08-16T00:00:00	2024-11-08T15:00:00	5	Humedad	93
41637	7	Sololá	701	Sololá	1	Sololá	8	Agosto	2023-08-16T00:00:00	2024-11-08T15:00:00	6	Velocidad del viento	0
41638	7	Sololá	701	Sololá	1	Sololá	8	Agosto	2023-08-16T00:00:00	2024-11-08T15:00:00	7	Dirección del viento	0
41639	7	Sololá	701	Sololá	1	Sololá	8	Agosto	2023-08-16T00:00:00	2024-11-08T15:00:00	1	Precipitación	1.4
41640	7	Sololá	701	Sololá	1	Sololá	8	Agosto	2023-08-16T00:00:00	2024-11-08T15:00:00	8	Radiación solar	246
41641	7	Sololá	701	Sololá	1	Sololá	8	Agosto	2023-08-16T00:00:00	2024-11-08T16:00:00	2	Temperatura media	16.6
41642	7	Sololá	701	Sololá	1	Sololá	8	Agosto	2023-08-16T00:00:00	2024-11-08T16:00:00	4	Temperatura máxima	16.9
41643	7	Sololá	701	Sololá	1	Sololá	8	Agosto	2023-08-16T00:00:00	2024-11-08T16:00:00	3	Temperatura mínima	16
41644	7	Sololá	701	Sololá	1	Sololá	8	Agosto	2023-08-16T00:00:00	2024-11-08T16:00:00	5	Humedad	95
41645	7	Sololá	701	Sololá	1	Sololá	8	Agosto	2023-08-16T00:00:00	2024-11-08T16:00:00	6	Velocidad del viento	0
41646	7	Sololá	701	Sololá	1	Sololá	8	Agosto	2023-08-16T00:00:00	2024-11-08T16:00:00	7	Dirección del viento	0
41647	7	Sololá	701	Sololá	1	Sololá	8	Agosto	2023-08-16T00:00:00	2024-11-08T16:00:00	1	Precipitación	3.4
41648	7	Sololá	701	Sololá	1	Sololá	8	Agosto	2023-08-16T00:00:00	2024-11-08T16:00:00	8	Radiación solar	116
41649	7	Sololá	701	Sololá	1	Sololá	8	Agosto	2023-08-16T00:00:00	2024-11-08T17:00:00	2	Temperatura media	16.6
41650	7	Sololá	701	Sololá	1	Sololá	8	Agosto	2023-08-16T00:00:00	2024-11-08T17:00:00	4	Temperatura máxima	16.8
41651	7	Sololá	701	Sololá	1	Sololá	8	Agosto	2023-08-16T00:00:00	2024-11-08T17:00:00	3	Temperatura mínima	16.6
41652	7	Sololá	701	Sololá	1	Sololá	8	Agosto	2023-08-16T00:00:00	2024-11-08T17:00:00	5	Humedad	92
41653	7	Sololá	701	Sololá	1	Sololá	8	Agosto	2023-08-16T00:00:00	2024-11-08T17:00:00	6	Velocidad del viento	0
41654	7	Sololá	701	Sololá	1	Sololá	8	Agosto	2023-08-16T00:00:00	2024-11-08T17:00:00	7	Dirección del viento	0
41655	7	Sololá	701	Sololá	1	Sololá	8	Agosto	2023-08-16T00:00:00	2024-11-08T17:00:00	1	Precipitación	0
41656	7	Sololá	701	Sololá	1	Sololá	8	Agosto	2023-08-16T00:00:00	2024-11-08T17:00:00	8	Radiación solar	72
41657	7	Sololá	701	Sololá	1	Sololá	8	Agosto	2023-08-16T00:00:00	2024-11-08T18:00:00	2	Temperatura media	16.3
41658	7	Sololá	701	Sololá	1	Sololá	8	Agosto	2023-08-16T00:00:00	2024-11-08T18:00:00	4	Temperatura máxima	16.7
41659	7	Sololá	701	Sololá	1	Sololá	8	Agosto	2023-08-16T00:00:00	2024-11-08T18:00:00	3	Temperatura mínima	16.3
41660	7	Sololá	701	Sololá	1	Sololá	8	Agosto	2023-08-16T00:00:00	2024-11-08T18:00:00	5	Humedad	95
41661	7	Sololá	701	Sololá	1	Sololá	8	Agosto	2023-08-16T00:00:00	2024-11-08T18:00:00	6	Velocidad del viento	0
41662	7	Sololá	701	Sololá	1	Sololá	8	Agosto	2023-08-16T00:00:00	2024-11-08T18:00:00	7	Dirección del viento	0
41663	7	Sololá	701	Sololá	1	Sololá	8	Agosto	2023-08-16T00:00:00	2024-11-08T18:00:00	1	Precipitación	0
41664	7	Sololá	701	Sololá	1	Sololá	8	Agosto	2023-08-16T00:00:00	2024-11-08T18:00:00	8	Radiación solar	8
41665	7	Sololá	701	Sololá	1	Sololá	8	Agosto	2023-08-16T00:00:00	2024-11-08T19:00:00	2	Temperatura media	15.4
41666	7	Sololá	701	Sololá	1	Sololá	8	Agosto	2023-08-16T00:00:00	2024-11-08T19:00:00	4	Temperatura máxima	16.3
41667	7	Sololá	701	Sololá	1	Sololá	8	Agosto	2023-08-16T00:00:00	2024-11-08T19:00:00	3	Temperatura mínima	15.4
41668	7	Sololá	701	Sololá	1	Sololá	8	Agosto	2023-08-16T00:00:00	2024-11-08T19:00:00	5	Humedad	95
41669	7	Sololá	701	Sololá	1	Sololá	8	Agosto	2023-08-16T00:00:00	2024-11-08T19:00:00	6	Velocidad del viento	0
41670	7	Sololá	701	Sololá	1	Sololá	8	Agosto	2023-08-16T00:00:00	2024-11-08T19:00:00	7	Dirección del viento	0
41671	7	Sololá	701	Sololá	1	Sololá	8	Agosto	2023-08-16T00:00:00	2024-11-08T19:00:00	1	Precipitación	0
41672	7	Sololá	701	Sololá	1	Sololá	8	Agosto	2023-08-16T00:00:00	2024-11-08T19:00:00	8	Radiación solar	0
41673	7	Sololá	701	Sololá	1	Sololá	8	Agosto	2023-08-16T00:00:00	2024-11-08T20:00:00	2	Temperatura media	15.4
41674	7	Sololá	701	Sololá	1	Sololá	8	Agosto	2023-08-16T00:00:00	2024-11-08T20:00:00	4	Temperatura máxima	15.5
41675	7	Sololá	701	Sololá	1	Sololá	8	Agosto	2023-08-16T00:00:00	2024-11-08T20:00:00	3	Temperatura mínima	15.3
41676	7	Sololá	701	Sololá	1	Sololá	8	Agosto	2023-08-16T00:00:00	2024-11-08T20:00:00	5	Humedad	96
41677	7	Sololá	701	Sololá	1	Sololá	8	Agosto	2023-08-16T00:00:00	2024-11-08T20:00:00	6	Velocidad del viento	0
41678	7	Sololá	701	Sololá	1	Sololá	8	Agosto	2023-08-16T00:00:00	2024-11-08T20:00:00	7	Dirección del viento	0
41679	7	Sololá	701	Sololá	1	Sololá	8	Agosto	2023-08-16T00:00:00	2024-11-08T20:00:00	1	Precipitación	0
41680	7	Sololá	701	Sololá	1	Sololá	8	Agosto	2023-08-16T00:00:00	2024-11-08T20:00:00	8	Radiación solar	0
41681	7	Sololá	701	Sololá	1	Sololá	8	Agosto	2023-08-16T00:00:00	2024-11-08T21:00:00	2	Temperatura media	15.2
41682	7	Sololá	701	Sololá	1	Sololá	8	Agosto	2023-08-16T00:00:00	2024-11-08T21:00:00	4	Temperatura máxima	15.4
41683	7	Sololá	701	Sololá	1	Sololá	8	Agosto	2023-08-16T00:00:00	2024-11-08T21:00:00	3	Temperatura mínima	15.2
41684	7	Sololá	701	Sololá	1	Sololá	8	Agosto	2023-08-16T00:00:00	2024-11-08T21:00:00	5	Humedad	96
41685	7	Sololá	701	Sololá	1	Sololá	8	Agosto	2023-08-16T00:00:00	2024-11-08T21:00:00	6	Velocidad del viento	0
41686	7	Sololá	701	Sololá	1	Sololá	8	Agosto	2023-08-16T00:00:00	2024-11-08T21:00:00	7	Dirección del viento	0
41687	7	Sololá	701	Sololá	1	Sololá	8	Agosto	2023-08-16T00:00:00	2024-11-08T21:00:00	1	Precipitación	0
41688	7	Sololá	701	Sololá	1	Sololá	8	Agosto	2023-08-16T00:00:00	2024-11-08T21:00:00	8	Radiación solar	0
41689	7	Sololá	701	Sololá	1	Sololá	8	Agosto	2023-08-16T00:00:00	2024-11-08T22:00:00	2	Temperatura media	14.1
41690	7	Sololá	701	Sololá	1	Sololá	8	Agosto	2023-08-16T00:00:00	2024-11-08T22:00:00	4	Temperatura máxima	15.2
41691	7	Sololá	701	Sololá	1	Sololá	8	Agosto	2023-08-16T00:00:00	2024-11-08T22:00:00	3	Temperatura mínima	14.1
41692	7	Sololá	701	Sololá	1	Sololá	8	Agosto	2023-08-16T00:00:00	2024-11-08T22:00:00	5	Humedad	94
41693	7	Sololá	701	Sololá	1	Sololá	8	Agosto	2023-08-16T00:00:00	2024-11-08T22:00:00	6	Velocidad del viento	0
41694	7	Sololá	701	Sololá	1	Sololá	8	Agosto	2023-08-16T00:00:00	2024-11-08T22:00:00	7	Dirección del viento	0
41695	7	Sololá	701	Sololá	1	Sololá	8	Agosto	2023-08-16T00:00:00	2024-11-08T22:00:00	1	Precipitación	0
41696	7	Sololá	701	Sololá	1	Sololá	8	Agosto	2023-08-16T00:00:00	2024-11-08T22:00:00	8	Radiación solar	0
41697	7	Sololá	701	Sololá	1	Sololá	8	Agosto	2023-08-16T00:00:00	2024-11-08T23:00:00	2	Temperatura media	14
41698	7	Sololá	701	Sololá	1	Sololá	8	Agosto	2023-08-16T00:00:00	2024-11-08T23:00:00	4	Temperatura máxima	14.1
41699	7	Sololá	701	Sololá	1	Sololá	8	Agosto	2023-08-16T00:00:00	2024-11-08T23:00:00	3	Temperatura mínima	13.9
41700	7	Sololá	701	Sololá	1	Sololá	8	Agosto	2023-08-16T00:00:00	2024-11-08T23:00:00	5	Humedad	95
41701	7	Sololá	701	Sololá	1	Sololá	8	Agosto	2023-08-16T00:00:00	2024-11-08T23:00:00	6	Velocidad del viento	0
41702	7	Sololá	701	Sololá	1	Sololá	8	Agosto	2023-08-16T00:00:00	2024-11-08T23:00:00	7	Dirección del viento	0
41703	7	Sololá	701	Sololá	1	Sololá	8	Agosto	2023-08-16T00:00:00	2024-11-08T23:00:00	1	Precipitación	0
41704	7	Sololá	701	Sololá	1	Sololá	8	Agosto	2023-08-16T00:00:00	2024-11-08T23:00:00	8	Radiación solar	0
41705	7	Sololá	701	Sololá	1	Sololá	8	Agosto	2023-08-17T00:00:00	2024-11-08T00:00:00	2	Temperatura media	13.8
41706	7	Sololá	701	Sololá	1	Sololá	8	Agosto	2023-08-17T00:00:00	2024-11-08T00:00:00	4	Temperatura máxima	14.1
41707	7	Sololá	701	Sololá	1	Sololá	8	Agosto	2023-08-17T00:00:00	2024-11-08T00:00:00	3	Temperatura mínima	13.8
41708	7	Sololá	701	Sololá	1	Sololá	8	Agosto	2023-08-17T00:00:00	2024-11-08T00:00:00	5	Humedad	95
41709	7	Sololá	701	Sololá	1	Sololá	8	Agosto	2023-08-17T00:00:00	2024-11-08T00:00:00	6	Velocidad del viento	0
41710	7	Sololá	701	Sololá	1	Sololá	8	Agosto	2023-08-17T00:00:00	2024-11-08T00:00:00	7	Dirección del viento	0
41711	7	Sololá	701	Sololá	1	Sololá	8	Agosto	2023-08-17T00:00:00	2024-11-08T00:00:00	1	Precipitación	0
41712	7	Sololá	701	Sololá	1	Sololá	8	Agosto	2023-08-17T00:00:00	2024-11-08T00:00:00	8	Radiación solar	0
41713	7	Sololá	701	Sololá	1	Sololá	8	Agosto	2023-08-17T00:00:00	2024-11-08T01:00:00	2	Temperatura media	13.3
41714	7	Sololá	701	Sololá	1	Sololá	8	Agosto	2023-08-17T00:00:00	2024-11-08T01:00:00	4	Temperatura máxima	13.8
41715	7	Sololá	701	Sololá	1	Sololá	8	Agosto	2023-08-17T00:00:00	2024-11-08T01:00:00	3	Temperatura mínima	13.2
41716	7	Sololá	701	Sololá	1	Sololá	8	Agosto	2023-08-17T00:00:00	2024-11-08T01:00:00	5	Humedad	94
41717	7	Sololá	701	Sololá	1	Sololá	8	Agosto	2023-08-17T00:00:00	2024-11-08T01:00:00	6	Velocidad del viento	0
41718	7	Sololá	701	Sololá	1	Sololá	8	Agosto	2023-08-17T00:00:00	2024-11-08T01:00:00	7	Dirección del viento	0
41719	7	Sololá	701	Sololá	1	Sololá	8	Agosto	2023-08-17T00:00:00	2024-11-08T01:00:00	1	Precipitación	0
41720	7	Sololá	701	Sololá	1	Sololá	8	Agosto	2023-08-17T00:00:00	2024-11-08T01:00:00	8	Radiación solar	0
41721	7	Sololá	701	Sololá	1	Sololá	8	Agosto	2023-08-17T00:00:00	2024-11-08T02:00:00	2	Temperatura media	12.8
41722	7	Sololá	701	Sololá	1	Sololá	8	Agosto	2023-08-17T00:00:00	2024-11-08T02:00:00	4	Temperatura máxima	13.3
41723	7	Sololá	701	Sololá	1	Sololá	8	Agosto	2023-08-17T00:00:00	2024-11-08T02:00:00	3	Temperatura mínima	12.7
41724	7	Sololá	701	Sololá	1	Sololá	8	Agosto	2023-08-17T00:00:00	2024-11-08T02:00:00	5	Humedad	93
41725	7	Sololá	701	Sololá	1	Sololá	8	Agosto	2023-08-17T00:00:00	2024-11-08T02:00:00	6	Velocidad del viento	0
41726	7	Sololá	701	Sololá	1	Sololá	8	Agosto	2023-08-17T00:00:00	2024-11-08T02:00:00	7	Dirección del viento	0
41727	7	Sololá	701	Sololá	1	Sololá	8	Agosto	2023-08-17T00:00:00	2024-11-08T02:00:00	1	Precipitación	0
41728	7	Sololá	701	Sololá	1	Sololá	8	Agosto	2023-08-17T00:00:00	2024-11-08T02:00:00	8	Radiación solar	0
41729	7	Sololá	701	Sololá	1	Sololá	8	Agosto	2023-08-17T00:00:00	2024-11-08T03:00:00	2	Temperatura media	12.4
41730	7	Sololá	701	Sololá	1	Sololá	8	Agosto	2023-08-17T00:00:00	2024-11-08T03:00:00	4	Temperatura máxima	12.8
41731	7	Sololá	701	Sololá	1	Sololá	8	Agosto	2023-08-17T00:00:00	2024-11-08T03:00:00	3	Temperatura mínima	12.3
41732	7	Sololá	701	Sololá	1	Sololá	8	Agosto	2023-08-17T00:00:00	2024-11-08T03:00:00	5	Humedad	95
41733	7	Sololá	701	Sololá	1	Sololá	8	Agosto	2023-08-17T00:00:00	2024-11-08T03:00:00	6	Velocidad del viento	0
41734	7	Sololá	701	Sololá	1	Sololá	8	Agosto	2023-08-17T00:00:00	2024-11-08T03:00:00	7	Dirección del viento	0
41735	7	Sololá	701	Sololá	1	Sololá	8	Agosto	2023-08-17T00:00:00	2024-11-08T03:00:00	1	Precipitación	0
41736	7	Sololá	701	Sololá	1	Sololá	8	Agosto	2023-08-17T00:00:00	2024-11-08T03:00:00	8	Radiación solar	0
41737	7	Sololá	701	Sololá	1	Sololá	8	Agosto	2023-08-17T00:00:00	2024-11-08T04:00:00	2	Temperatura media	11.8
41738	7	Sololá	701	Sololá	1	Sololá	8	Agosto	2023-08-17T00:00:00	2024-11-08T04:00:00	4	Temperatura máxima	12.4
41739	7	Sololá	701	Sololá	1	Sololá	8	Agosto	2023-08-17T00:00:00	2024-11-08T04:00:00	3	Temperatura mínima	11.8
41740	7	Sololá	701	Sololá	1	Sololá	8	Agosto	2023-08-17T00:00:00	2024-11-08T04:00:00	5	Humedad	94
41741	7	Sololá	701	Sololá	1	Sololá	8	Agosto	2023-08-17T00:00:00	2024-11-08T04:00:00	6	Velocidad del viento	0
41742	7	Sololá	701	Sololá	1	Sololá	8	Agosto	2023-08-17T00:00:00	2024-11-08T04:00:00	7	Dirección del viento	0
41743	7	Sololá	701	Sololá	1	Sololá	8	Agosto	2023-08-17T00:00:00	2024-11-08T04:00:00	1	Precipitación	0
41744	7	Sololá	701	Sololá	1	Sololá	8	Agosto	2023-08-17T00:00:00	2024-11-08T04:00:00	8	Radiación solar	0
41745	7	Sololá	701	Sololá	1	Sololá	8	Agosto	2023-08-17T00:00:00	2024-11-08T05:00:00	2	Temperatura media	12.2
41746	7	Sololá	701	Sololá	1	Sololá	8	Agosto	2023-08-17T00:00:00	2024-11-08T05:00:00	4	Temperatura máxima	12.3
41747	7	Sololá	701	Sololá	1	Sololá	8	Agosto	2023-08-17T00:00:00	2024-11-08T05:00:00	3	Temperatura mínima	11.7
41748	7	Sololá	701	Sololá	1	Sololá	8	Agosto	2023-08-17T00:00:00	2024-11-08T05:00:00	5	Humedad	95
41749	7	Sololá	701	Sololá	1	Sololá	8	Agosto	2023-08-17T00:00:00	2024-11-08T05:00:00	6	Velocidad del viento	0
41750	7	Sololá	701	Sololá	1	Sololá	8	Agosto	2023-08-17T00:00:00	2024-11-08T05:00:00	7	Dirección del viento	0
41751	7	Sololá	701	Sololá	1	Sololá	8	Agosto	2023-08-17T00:00:00	2024-11-08T05:00:00	1	Precipitación	0
41752	7	Sololá	701	Sololá	1	Sololá	8	Agosto	2023-08-17T00:00:00	2024-11-08T05:00:00	8	Radiación solar	0
41753	7	Sololá	701	Sololá	1	Sololá	8	Agosto	2023-08-17T00:00:00	2024-11-08T06:00:00	2	Temperatura media	11.7
41754	7	Sololá	701	Sololá	1	Sololá	8	Agosto	2023-08-17T00:00:00	2024-11-08T06:00:00	4	Temperatura máxima	12.2
41755	7	Sololá	701	Sololá	1	Sololá	8	Agosto	2023-08-17T00:00:00	2024-11-08T06:00:00	3	Temperatura mínima	11.7
41756	7	Sololá	701	Sololá	1	Sololá	8	Agosto	2023-08-17T00:00:00	2024-11-08T06:00:00	5	Humedad	95
41757	7	Sololá	701	Sololá	1	Sololá	8	Agosto	2023-08-17T00:00:00	2024-11-08T06:00:00	6	Velocidad del viento	0
41758	7	Sololá	701	Sololá	1	Sololá	8	Agosto	2023-08-17T00:00:00	2024-11-08T06:00:00	7	Dirección del viento	0
41759	7	Sololá	701	Sololá	1	Sololá	8	Agosto	2023-08-17T00:00:00	2024-11-08T06:00:00	1	Precipitación	0
41760	7	Sololá	701	Sololá	1	Sololá	8	Agosto	2023-08-17T00:00:00	2024-11-08T06:00:00	8	Radiación solar	0
41761	7	Sololá	701	Sololá	1	Sololá	8	Agosto	2023-08-17T00:00:00	2024-11-08T07:00:00	2	Temperatura media	13.4
41762	7	Sololá	701	Sololá	1	Sololá	8	Agosto	2023-08-17T00:00:00	2024-11-08T07:00:00	4	Temperatura máxima	13.4
41763	7	Sololá	701	Sololá	1	Sololá	8	Agosto	2023-08-17T00:00:00	2024-11-08T07:00:00	3	Temperatura mínima	12.1
41764	7	Sololá	701	Sololá	1	Sololá	8	Agosto	2023-08-17T00:00:00	2024-11-08T07:00:00	5	Humedad	76
41765	7	Sololá	701	Sololá	1	Sololá	8	Agosto	2023-08-17T00:00:00	2024-11-08T07:00:00	6	Velocidad del viento	6.4
41766	7	Sololá	701	Sololá	1	Sololá	8	Agosto	2023-08-17T00:00:00	2024-11-08T07:00:00	7	Dirección del viento	3.22
41767	7	Sololá	701	Sololá	1	Sololá	8	Agosto	2023-08-17T00:00:00	2024-11-08T07:00:00	1	Precipitación	0
41768	7	Sololá	701	Sololá	1	Sololá	8	Agosto	2023-08-17T00:00:00	2024-11-08T07:00:00	8	Radiación solar	10
41769	7	Sololá	701	Sololá	1	Sololá	8	Agosto	2023-08-17T00:00:00	2024-11-08T08:00:00	2	Temperatura media	17.3
41770	7	Sololá	701	Sololá	1	Sololá	8	Agosto	2023-08-17T00:00:00	2024-11-08T08:00:00	4	Temperatura máxima	17.3
41771	7	Sololá	701	Sololá	1	Sololá	8	Agosto	2023-08-17T00:00:00	2024-11-08T08:00:00	3	Temperatura mínima	15.2
41772	7	Sololá	701	Sololá	1	Sololá	8	Agosto	2023-08-17T00:00:00	2024-11-08T08:00:00	5	Humedad	69
41773	7	Sololá	701	Sololá	1	Sololá	8	Agosto	2023-08-17T00:00:00	2024-11-08T08:00:00	6	Velocidad del viento	8
41774	7	Sololá	701	Sololá	1	Sololá	8	Agosto	2023-08-17T00:00:00	2024-11-08T08:00:00	7	Dirección del viento	4.02
41775	7	Sololá	701	Sololá	1	Sololá	8	Agosto	2023-08-17T00:00:00	2024-11-08T08:00:00	1	Precipitación	0
41776	7	Sololá	701	Sololá	1	Sololá	8	Agosto	2023-08-17T00:00:00	2024-11-08T08:00:00	8	Radiación solar	95
41777	7	Sololá	701	Sololá	1	Sololá	8	Agosto	2023-08-17T00:00:00	2024-11-08T09:00:00	2	Temperatura media	19.2
41778	7	Sololá	701	Sololá	1	Sololá	8	Agosto	2023-08-17T00:00:00	2024-11-08T09:00:00	4	Temperatura máxima	19.3
41779	7	Sololá	701	Sololá	1	Sololá	8	Agosto	2023-08-17T00:00:00	2024-11-08T09:00:00	3	Temperatura mínima	18.3
41780	7	Sololá	701	Sololá	1	Sololá	8	Agosto	2023-08-17T00:00:00	2024-11-08T09:00:00	5	Humedad	66
41781	7	Sololá	701	Sololá	1	Sololá	8	Agosto	2023-08-17T00:00:00	2024-11-08T09:00:00	6	Velocidad del viento	6.4
41782	7	Sololá	701	Sololá	1	Sololá	8	Agosto	2023-08-17T00:00:00	2024-11-08T09:00:00	7	Dirección del viento	3.22
41783	7	Sololá	701	Sololá	1	Sololá	8	Agosto	2023-08-17T00:00:00	2024-11-08T09:00:00	1	Precipitación	0
41784	7	Sololá	701	Sololá	1	Sololá	8	Agosto	2023-08-17T00:00:00	2024-11-08T09:00:00	8	Radiación solar	574
41785	7	Sololá	701	Sololá	1	Sololá	8	Agosto	2023-08-17T00:00:00	2024-11-08T10:00:00	2	Temperatura media	20.7
41786	7	Sololá	701	Sololá	1	Sololá	8	Agosto	2023-08-17T00:00:00	2024-11-08T10:00:00	4	Temperatura máxima	20.9
41787	7	Sololá	701	Sololá	1	Sololá	8	Agosto	2023-08-17T00:00:00	2024-11-08T10:00:00	3	Temperatura mínima	20
41788	7	Sololá	701	Sololá	1	Sololá	8	Agosto	2023-08-17T00:00:00	2024-11-08T10:00:00	5	Humedad	61
41789	7	Sololá	701	Sololá	1	Sololá	8	Agosto	2023-08-17T00:00:00	2024-11-08T10:00:00	6	Velocidad del viento	4.8
41790	7	Sololá	701	Sololá	1	Sololá	8	Agosto	2023-08-17T00:00:00	2024-11-08T10:00:00	7	Dirección del viento	2.41
41791	7	Sololá	701	Sololá	1	Sololá	8	Agosto	2023-08-17T00:00:00	2024-11-08T10:00:00	1	Precipitación	0
41792	7	Sololá	701	Sololá	1	Sololá	8	Agosto	2023-08-17T00:00:00	2024-11-08T10:00:00	8	Radiación solar	765
41793	7	Sololá	701	Sololá	1	Sololá	8	Agosto	2023-08-17T00:00:00	2024-11-08T11:00:00	2	Temperatura media	20.6
41794	7	Sololá	701	Sololá	1	Sololá	8	Agosto	2023-08-17T00:00:00	2024-11-08T11:00:00	4	Temperatura máxima	20.6
41795	7	Sololá	701	Sololá	1	Sololá	8	Agosto	2023-08-17T00:00:00	2024-11-08T11:00:00	3	Temperatura mínima	19.7
41796	7	Sololá	701	Sololá	1	Sololá	8	Agosto	2023-08-17T00:00:00	2024-11-08T11:00:00	5	Humedad	63
41797	7	Sololá	701	Sololá	1	Sololá	8	Agosto	2023-08-17T00:00:00	2024-11-08T11:00:00	6	Velocidad del viento	4.8
41798	7	Sololá	701	Sololá	1	Sololá	8	Agosto	2023-08-17T00:00:00	2024-11-08T11:00:00	7	Dirección del viento	2.41
41799	7	Sololá	701	Sololá	1	Sololá	8	Agosto	2023-08-17T00:00:00	2024-11-08T11:00:00	1	Precipitación	0
41800	7	Sololá	701	Sololá	1	Sololá	8	Agosto	2023-08-17T00:00:00	2024-11-08T11:00:00	8	Radiación solar	896
41801	7	Sololá	701	Sololá	1	Sololá	8	Agosto	2023-08-17T00:00:00	2024-11-08T12:00:00	2	Temperatura media	22.7
41802	7	Sololá	701	Sololá	1	Sololá	8	Agosto	2023-08-17T00:00:00	2024-11-08T12:00:00	4	Temperatura máxima	22.8
41803	7	Sololá	701	Sololá	1	Sololá	8	Agosto	2023-08-17T00:00:00	2024-11-08T12:00:00	3	Temperatura mínima	22.1
41804	7	Sololá	701	Sololá	1	Sololá	8	Agosto	2023-08-17T00:00:00	2024-11-08T12:00:00	5	Humedad	57
41805	7	Sololá	701	Sololá	1	Sololá	8	Agosto	2023-08-17T00:00:00	2024-11-08T12:00:00	6	Velocidad del viento	8
41806	7	Sololá	701	Sololá	1	Sololá	8	Agosto	2023-08-17T00:00:00	2024-11-08T12:00:00	7	Dirección del viento	4.02
41807	7	Sololá	701	Sololá	1	Sololá	8	Agosto	2023-08-17T00:00:00	2024-11-08T12:00:00	1	Precipitación	0
41808	7	Sololá	701	Sololá	1	Sololá	8	Agosto	2023-08-17T00:00:00	2024-11-08T12:00:00	8	Radiación solar	951
41809	7	Sololá	701	Sololá	1	Sololá	8	Agosto	2023-08-17T00:00:00	2024-11-08T13:00:00	2	Temperatura media	19.6
41810	7	Sololá	701	Sololá	1	Sololá	8	Agosto	2023-08-17T00:00:00	2024-11-08T13:00:00	4	Temperatura máxima	21.6
41811	7	Sololá	701	Sololá	1	Sololá	8	Agosto	2023-08-17T00:00:00	2024-11-08T13:00:00	3	Temperatura mínima	19.5
41812	7	Sololá	701	Sololá	1	Sololá	8	Agosto	2023-08-17T00:00:00	2024-11-08T13:00:00	5	Humedad	83
41813	7	Sololá	701	Sololá	1	Sololá	8	Agosto	2023-08-17T00:00:00	2024-11-08T13:00:00	6	Velocidad del viento	9.7
41814	7	Sololá	701	Sololá	1	Sololá	8	Agosto	2023-08-17T00:00:00	2024-11-08T13:00:00	7	Dirección del viento	4.83
41815	7	Sololá	701	Sololá	1	Sololá	8	Agosto	2023-08-17T00:00:00	2024-11-08T13:00:00	1	Precipitación	0.8
41816	7	Sololá	701	Sololá	1	Sololá	8	Agosto	2023-08-17T00:00:00	2024-11-08T13:00:00	8	Radiación solar	767
41817	7	Sololá	701	Sololá	1	Sololá	8	Agosto	2023-08-17T00:00:00	2024-11-08T14:00:00	2	Temperatura media	17.6
41818	7	Sololá	701	Sololá	1	Sololá	8	Agosto	2023-08-17T00:00:00	2024-11-08T14:00:00	4	Temperatura máxima	18.9
41819	7	Sololá	701	Sololá	1	Sololá	8	Agosto	2023-08-17T00:00:00	2024-11-08T14:00:00	3	Temperatura mínima	17.5
41820	7	Sololá	701	Sololá	1	Sololá	8	Agosto	2023-08-17T00:00:00	2024-11-08T14:00:00	5	Humedad	92
41821	7	Sololá	701	Sololá	1	Sololá	8	Agosto	2023-08-17T00:00:00	2024-11-08T14:00:00	6	Velocidad del viento	6.4
41822	7	Sololá	701	Sololá	1	Sololá	8	Agosto	2023-08-17T00:00:00	2024-11-08T14:00:00	7	Dirección del viento	3.22
41823	7	Sololá	701	Sololá	1	Sololá	8	Agosto	2023-08-17T00:00:00	2024-11-08T14:00:00	1	Precipitación	0.6
41824	7	Sololá	701	Sololá	1	Sololá	8	Agosto	2023-08-17T00:00:00	2024-11-08T14:00:00	8	Radiación solar	249
41825	7	Sololá	701	Sololá	1	Sololá	8	Agosto	2023-08-17T00:00:00	2024-11-08T15:00:00	2	Temperatura media	19.3
41826	7	Sololá	701	Sololá	1	Sololá	8	Agosto	2023-08-17T00:00:00	2024-11-08T15:00:00	4	Temperatura máxima	19.3
41827	7	Sololá	701	Sololá	1	Sololá	8	Agosto	2023-08-17T00:00:00	2024-11-08T15:00:00	3	Temperatura mínima	19.1
41828	7	Sololá	701	Sololá	1	Sololá	8	Agosto	2023-08-17T00:00:00	2024-11-08T15:00:00	5	Humedad	86
41829	7	Sololá	701	Sololá	1	Sololá	8	Agosto	2023-08-17T00:00:00	2024-11-08T15:00:00	6	Velocidad del viento	6.4
41830	7	Sololá	701	Sololá	1	Sololá	8	Agosto	2023-08-17T00:00:00	2024-11-08T15:00:00	7	Dirección del viento	3.22
41831	7	Sololá	701	Sololá	1	Sololá	8	Agosto	2023-08-17T00:00:00	2024-11-08T15:00:00	1	Precipitación	0
41832	7	Sololá	701	Sololá	1	Sololá	8	Agosto	2023-08-17T00:00:00	2024-11-08T15:00:00	8	Radiación solar	46
41833	7	Sololá	701	Sololá	1	Sololá	8	Agosto	2023-08-17T00:00:00	2024-11-08T16:00:00	2	Temperatura media	18.2
41834	7	Sololá	701	Sololá	1	Sololá	8	Agosto	2023-08-17T00:00:00	2024-11-08T16:00:00	4	Temperatura máxima	19.6
41835	7	Sololá	701	Sololá	1	Sololá	8	Agosto	2023-08-17T00:00:00	2024-11-08T16:00:00	3	Temperatura mínima	18.2
41836	7	Sololá	701	Sololá	1	Sololá	8	Agosto	2023-08-17T00:00:00	2024-11-08T16:00:00	5	Humedad	91
41837	7	Sololá	701	Sololá	1	Sololá	8	Agosto	2023-08-17T00:00:00	2024-11-08T16:00:00	6	Velocidad del viento	4.8
41838	7	Sololá	701	Sololá	1	Sololá	8	Agosto	2023-08-17T00:00:00	2024-11-08T16:00:00	7	Dirección del viento	2.41
41839	7	Sololá	701	Sololá	1	Sololá	8	Agosto	2023-08-17T00:00:00	2024-11-08T16:00:00	1	Precipitación	0
41840	7	Sololá	701	Sololá	1	Sololá	8	Agosto	2023-08-17T00:00:00	2024-11-08T16:00:00	8	Radiación solar	84
41841	7	Sololá	701	Sololá	1	Sololá	8	Agosto	2023-08-17T00:00:00	2024-11-08T17:00:00	2	Temperatura media	16.3
41842	7	Sololá	701	Sololá	1	Sololá	8	Agosto	2023-08-17T00:00:00	2024-11-08T17:00:00	4	Temperatura máxima	17.7
41843	7	Sololá	701	Sololá	1	Sololá	8	Agosto	2023-08-17T00:00:00	2024-11-08T17:00:00	3	Temperatura mínima	16.3
41844	7	Sololá	701	Sololá	1	Sololá	8	Agosto	2023-08-17T00:00:00	2024-11-08T17:00:00	5	Humedad	92
41845	7	Sololá	701	Sololá	1	Sololá	8	Agosto	2023-08-17T00:00:00	2024-11-08T17:00:00	6	Velocidad del viento	6.4
41846	7	Sololá	701	Sololá	1	Sololá	8	Agosto	2023-08-17T00:00:00	2024-11-08T17:00:00	7	Dirección del viento	3.22
41847	7	Sololá	701	Sololá	1	Sololá	8	Agosto	2023-08-17T00:00:00	2024-11-08T17:00:00	1	Precipitación	0
41848	7	Sololá	701	Sololá	1	Sololá	8	Agosto	2023-08-17T00:00:00	2024-11-08T17:00:00	8	Radiación solar	31
41849	7	Sololá	701	Sololá	1	Sololá	8	Agosto	2023-08-17T00:00:00	2024-11-08T18:00:00	2	Temperatura media	15.4
41850	7	Sololá	701	Sololá	1	Sololá	8	Agosto	2023-08-17T00:00:00	2024-11-08T18:00:00	4	Temperatura máxima	15.4
41851	7	Sololá	701	Sololá	1	Sololá	8	Agosto	2023-08-17T00:00:00	2024-11-08T18:00:00	3	Temperatura mínima	15.2
41852	7	Sololá	701	Sololá	1	Sololá	8	Agosto	2023-08-17T00:00:00	2024-11-08T18:00:00	5	Humedad	93
41853	7	Sololá	701	Sololá	1	Sololá	8	Agosto	2023-08-17T00:00:00	2024-11-08T18:00:00	6	Velocidad del viento	3.2
41854	7	Sololá	701	Sololá	1	Sololá	8	Agosto	2023-08-17T00:00:00	2024-11-08T18:00:00	7	Dirección del viento	1.61
41855	7	Sololá	701	Sololá	1	Sololá	8	Agosto	2023-08-17T00:00:00	2024-11-08T18:00:00	1	Precipitación	0
41856	7	Sololá	701	Sololá	1	Sololá	8	Agosto	2023-08-17T00:00:00	2024-11-08T18:00:00	8	Radiación solar	4
41857	7	Sololá	701	Sololá	1	Sololá	8	Agosto	2023-08-17T00:00:00	2024-11-08T19:00:00	2	Temperatura media	16.2
41858	7	Sololá	701	Sololá	1	Sololá	8	Agosto	2023-08-17T00:00:00	2024-11-08T19:00:00	4	Temperatura máxima	16.3
41859	7	Sololá	701	Sololá	1	Sololá	8	Agosto	2023-08-17T00:00:00	2024-11-08T19:00:00	3	Temperatura mínima	15.5
41860	7	Sololá	701	Sololá	1	Sololá	8	Agosto	2023-08-17T00:00:00	2024-11-08T19:00:00	5	Humedad	90
41861	7	Sololá	701	Sololá	1	Sololá	8	Agosto	2023-08-17T00:00:00	2024-11-08T19:00:00	6	Velocidad del viento	4.8
41862	7	Sololá	701	Sololá	1	Sololá	8	Agosto	2023-08-17T00:00:00	2024-11-08T19:00:00	7	Dirección del viento	2.41
41863	7	Sololá	701	Sololá	1	Sololá	8	Agosto	2023-08-17T00:00:00	2024-11-08T19:00:00	1	Precipitación	0.6
41864	7	Sololá	701	Sololá	1	Sololá	8	Agosto	2023-08-17T00:00:00	2024-11-08T19:00:00	8	Radiación solar	0
41865	7	Sololá	701	Sololá	1	Sololá	8	Agosto	2023-08-17T00:00:00	2024-11-08T20:00:00	2	Temperatura media	16.5
41866	7	Sololá	701	Sololá	1	Sololá	8	Agosto	2023-08-17T00:00:00	2024-11-08T20:00:00	4	Temperatura máxima	16.6
41867	7	Sololá	701	Sololá	1	Sololá	8	Agosto	2023-08-17T00:00:00	2024-11-08T20:00:00	3	Temperatura mínima	15.6
41868	7	Sololá	701	Sololá	1	Sololá	8	Agosto	2023-08-17T00:00:00	2024-11-08T20:00:00	5	Humedad	85
41869	7	Sololá	701	Sololá	1	Sololá	8	Agosto	2023-08-17T00:00:00	2024-11-08T20:00:00	6	Velocidad del viento	8
41870	7	Sololá	701	Sololá	1	Sololá	8	Agosto	2023-08-17T00:00:00	2024-11-08T20:00:00	7	Dirección del viento	4.02
41871	7	Sololá	701	Sololá	1	Sololá	8	Agosto	2023-08-17T00:00:00	2024-11-08T20:00:00	1	Precipitación	0
41872	7	Sololá	701	Sololá	1	Sololá	8	Agosto	2023-08-17T00:00:00	2024-11-08T20:00:00	8	Radiación solar	0
41873	7	Sololá	701	Sololá	1	Sololá	8	Agosto	2023-08-17T00:00:00	2024-11-08T21:00:00	2	Temperatura media	16.3
41874	7	Sololá	701	Sololá	1	Sololá	8	Agosto	2023-08-17T00:00:00	2024-11-08T21:00:00	4	Temperatura máxima	16.5
41875	7	Sololá	701	Sololá	1	Sololá	8	Agosto	2023-08-17T00:00:00	2024-11-08T21:00:00	3	Temperatura mínima	16.3
41876	7	Sololá	701	Sololá	1	Sololá	8	Agosto	2023-08-17T00:00:00	2024-11-08T21:00:00	5	Humedad	84
41877	7	Sololá	701	Sololá	1	Sololá	8	Agosto	2023-08-17T00:00:00	2024-11-08T21:00:00	6	Velocidad del viento	14.5
41878	7	Sololá	701	Sololá	1	Sololá	8	Agosto	2023-08-17T00:00:00	2024-11-08T21:00:00	7	Dirección del viento	7.24
41879	7	Sololá	701	Sololá	1	Sololá	8	Agosto	2023-08-17T00:00:00	2024-11-08T21:00:00	1	Precipitación	0
41880	7	Sololá	701	Sololá	1	Sololá	8	Agosto	2023-08-17T00:00:00	2024-11-08T21:00:00	8	Radiación solar	0
41881	7	Sololá	701	Sololá	1	Sololá	8	Agosto	2023-08-17T00:00:00	2024-11-08T22:00:00	2	Temperatura media	15.9
41882	7	Sololá	701	Sololá	1	Sololá	8	Agosto	2023-08-17T00:00:00	2024-11-08T22:00:00	4	Temperatura máxima	16.3
41883	7	Sololá	701	Sololá	1	Sololá	8	Agosto	2023-08-17T00:00:00	2024-11-08T22:00:00	3	Temperatura mínima	15.9
41884	7	Sololá	701	Sololá	1	Sololá	8	Agosto	2023-08-17T00:00:00	2024-11-08T22:00:00	5	Humedad	86
41885	7	Sololá	701	Sololá	1	Sololá	8	Agosto	2023-08-17T00:00:00	2024-11-08T22:00:00	6	Velocidad del viento	1.6
41886	7	Sololá	701	Sololá	1	Sololá	8	Agosto	2023-08-17T00:00:00	2024-11-08T22:00:00	7	Dirección del viento	0.8
41887	7	Sololá	701	Sololá	1	Sololá	8	Agosto	2023-08-17T00:00:00	2024-11-08T22:00:00	1	Precipitación	0
41888	7	Sololá	701	Sololá	1	Sololá	8	Agosto	2023-08-17T00:00:00	2024-11-08T22:00:00	8	Radiación solar	0
41889	7	Sololá	701	Sololá	1	Sololá	8	Agosto	2023-08-17T00:00:00	2024-11-08T23:00:00	2	Temperatura media	15
41890	7	Sololá	701	Sololá	1	Sololá	8	Agosto	2023-08-17T00:00:00	2024-11-08T23:00:00	4	Temperatura máxima	15.3
41891	7	Sololá	701	Sololá	1	Sololá	8	Agosto	2023-08-17T00:00:00	2024-11-08T23:00:00	3	Temperatura mínima	15
41892	7	Sololá	701	Sololá	1	Sololá	8	Agosto	2023-08-17T00:00:00	2024-11-08T23:00:00	5	Humedad	90
41893	7	Sololá	701	Sololá	1	Sololá	8	Agosto	2023-08-17T00:00:00	2024-11-08T23:00:00	6	Velocidad del viento	0
41894	7	Sololá	701	Sololá	1	Sololá	8	Agosto	2023-08-17T00:00:00	2024-11-08T23:00:00	7	Dirección del viento	0
41895	7	Sololá	701	Sololá	1	Sololá	8	Agosto	2023-08-17T00:00:00	2024-11-08T23:00:00	1	Precipitación	0
41896	7	Sololá	701	Sololá	1	Sololá	8	Agosto	2023-08-17T00:00:00	2024-11-08T23:00:00	8	Radiación solar	0
41897	7	Sololá	701	Sololá	1	Sololá	8	Agosto	2023-08-18T00:00:00	2024-11-08T00:00:00	2	Temperatura media	15.6
41898	7	Sololá	701	Sololá	1	Sololá	8	Agosto	2023-08-18T00:00:00	2024-11-08T00:00:00	4	Temperatura máxima	15.7
41899	7	Sololá	701	Sololá	1	Sololá	8	Agosto	2023-08-18T00:00:00	2024-11-08T00:00:00	3	Temperatura mínima	15.2
41900	7	Sololá	701	Sololá	1	Sololá	8	Agosto	2023-08-18T00:00:00	2024-11-08T00:00:00	5	Humedad	85
41901	7	Sololá	701	Sololá	1	Sololá	8	Agosto	2023-08-18T00:00:00	2024-11-08T00:00:00	6	Velocidad del viento	4.8
41902	7	Sololá	701	Sololá	1	Sololá	8	Agosto	2023-08-18T00:00:00	2024-11-08T00:00:00	7	Dirección del viento	2.41
41903	7	Sololá	701	Sololá	1	Sololá	8	Agosto	2023-08-18T00:00:00	2024-11-08T00:00:00	1	Precipitación	0
41904	7	Sololá	701	Sololá	1	Sololá	8	Agosto	2023-08-18T00:00:00	2024-11-08T00:00:00	8	Radiación solar	0
41905	7	Sololá	701	Sololá	1	Sololá	8	Agosto	2023-08-18T00:00:00	2024-11-08T01:00:00	2	Temperatura media	15.4
41906	7	Sololá	701	Sololá	1	Sololá	8	Agosto	2023-08-18T00:00:00	2024-11-08T01:00:00	4	Temperatura máxima	15.5
41907	7	Sololá	701	Sololá	1	Sololá	8	Agosto	2023-08-18T00:00:00	2024-11-08T01:00:00	3	Temperatura mínima	15.2
41908	7	Sololá	701	Sololá	1	Sololá	8	Agosto	2023-08-18T00:00:00	2024-11-08T01:00:00	5	Humedad	84
41909	7	Sololá	701	Sololá	1	Sololá	8	Agosto	2023-08-18T00:00:00	2024-11-08T01:00:00	6	Velocidad del viento	9.7
41910	7	Sololá	701	Sololá	1	Sololá	8	Agosto	2023-08-18T00:00:00	2024-11-08T01:00:00	7	Dirección del viento	4.83
41911	7	Sololá	701	Sololá	1	Sololá	8	Agosto	2023-08-18T00:00:00	2024-11-08T01:00:00	1	Precipitación	0
41912	7	Sololá	701	Sololá	1	Sololá	8	Agosto	2023-08-18T00:00:00	2024-11-08T01:00:00	8	Radiación solar	0
41913	7	Sololá	701	Sololá	1	Sololá	8	Agosto	2023-08-18T00:00:00	2024-11-08T02:00:00	2	Temperatura media	15.2
41914	7	Sololá	701	Sololá	1	Sololá	8	Agosto	2023-08-18T00:00:00	2024-11-08T02:00:00	4	Temperatura máxima	15.4
41915	7	Sololá	701	Sololá	1	Sololá	8	Agosto	2023-08-18T00:00:00	2024-11-08T02:00:00	3	Temperatura mínima	15.2
41916	7	Sololá	701	Sololá	1	Sololá	8	Agosto	2023-08-18T00:00:00	2024-11-08T02:00:00	5	Humedad	83
41917	7	Sololá	701	Sololá	1	Sololá	8	Agosto	2023-08-18T00:00:00	2024-11-08T02:00:00	6	Velocidad del viento	6.4
41918	7	Sololá	701	Sololá	1	Sololá	8	Agosto	2023-08-18T00:00:00	2024-11-08T02:00:00	7	Dirección del viento	3.22
41919	7	Sololá	701	Sololá	1	Sololá	8	Agosto	2023-08-18T00:00:00	2024-11-08T02:00:00	1	Precipitación	0
41920	7	Sololá	701	Sololá	1	Sololá	8	Agosto	2023-08-18T00:00:00	2024-11-08T02:00:00	8	Radiación solar	0
41921	7	Sololá	701	Sololá	1	Sololá	8	Agosto	2023-08-18T00:00:00	2024-11-08T03:00:00	2	Temperatura media	14.8
41922	7	Sololá	701	Sololá	1	Sololá	8	Agosto	2023-08-18T00:00:00	2024-11-08T03:00:00	4	Temperatura máxima	14.8
41923	7	Sololá	701	Sololá	1	Sololá	8	Agosto	2023-08-18T00:00:00	2024-11-08T03:00:00	3	Temperatura mínima	14.4
41924	7	Sololá	701	Sololá	1	Sololá	8	Agosto	2023-08-18T00:00:00	2024-11-08T03:00:00	5	Humedad	83
41925	7	Sololá	701	Sololá	1	Sololá	8	Agosto	2023-08-18T00:00:00	2024-11-08T03:00:00	6	Velocidad del viento	8
41926	7	Sololá	701	Sololá	1	Sololá	8	Agosto	2023-08-18T00:00:00	2024-11-08T03:00:00	7	Dirección del viento	4.02
41927	7	Sololá	701	Sololá	1	Sololá	8	Agosto	2023-08-18T00:00:00	2024-11-08T03:00:00	1	Precipitación	0
41928	7	Sololá	701	Sololá	1	Sololá	8	Agosto	2023-08-18T00:00:00	2024-11-08T03:00:00	8	Radiación solar	0
41929	7	Sololá	701	Sololá	1	Sololá	8	Agosto	2023-08-18T00:00:00	2024-11-08T04:00:00	2	Temperatura media	14.8
41930	7	Sololá	701	Sololá	1	Sololá	8	Agosto	2023-08-18T00:00:00	2024-11-08T04:00:00	4	Temperatura máxima	15.2
41931	7	Sololá	701	Sololá	1	Sololá	8	Agosto	2023-08-18T00:00:00	2024-11-08T04:00:00	3	Temperatura mínima	14.7
41932	7	Sololá	701	Sololá	1	Sololá	8	Agosto	2023-08-18T00:00:00	2024-11-08T04:00:00	5	Humedad	82
41933	7	Sololá	701	Sololá	1	Sololá	8	Agosto	2023-08-18T00:00:00	2024-11-08T04:00:00	6	Velocidad del viento	9.7
41934	7	Sololá	701	Sololá	1	Sololá	8	Agosto	2023-08-18T00:00:00	2024-11-08T04:00:00	7	Dirección del viento	4.83
41935	7	Sololá	701	Sololá	1	Sololá	8	Agosto	2023-08-18T00:00:00	2024-11-08T04:00:00	1	Precipitación	0
41936	7	Sololá	701	Sololá	1	Sololá	8	Agosto	2023-08-18T00:00:00	2024-11-08T04:00:00	8	Radiación solar	0
41937	7	Sololá	701	Sololá	1	Sololá	8	Agosto	2023-08-18T00:00:00	2024-11-08T05:00:00	2	Temperatura media	12.9
41938	7	Sololá	701	Sololá	1	Sololá	8	Agosto	2023-08-18T00:00:00	2024-11-08T05:00:00	4	Temperatura máxima	14.6
41939	7	Sololá	701	Sololá	1	Sololá	8	Agosto	2023-08-18T00:00:00	2024-11-08T05:00:00	3	Temperatura mínima	12.9
41940	7	Sololá	701	Sololá	1	Sololá	8	Agosto	2023-08-18T00:00:00	2024-11-08T05:00:00	5	Humedad	86
41941	7	Sololá	701	Sololá	1	Sololá	8	Agosto	2023-08-18T00:00:00	2024-11-08T05:00:00	6	Velocidad del viento	4.8
41942	7	Sololá	701	Sololá	1	Sololá	8	Agosto	2023-08-18T00:00:00	2024-11-08T05:00:00	7	Dirección del viento	2.41
41943	7	Sololá	701	Sololá	1	Sololá	8	Agosto	2023-08-18T00:00:00	2024-11-08T05:00:00	1	Precipitación	0
41944	7	Sololá	701	Sololá	1	Sololá	8	Agosto	2023-08-18T00:00:00	2024-11-08T05:00:00	8	Radiación solar	0
41945	7	Sololá	701	Sololá	1	Sololá	8	Agosto	2023-08-18T00:00:00	2024-11-08T06:00:00	2	Temperatura media	12.9
41946	7	Sololá	701	Sololá	1	Sololá	8	Agosto	2023-08-18T00:00:00	2024-11-08T06:00:00	4	Temperatura máxima	14
41947	7	Sololá	701	Sololá	1	Sololá	8	Agosto	2023-08-18T00:00:00	2024-11-08T06:00:00	3	Temperatura mínima	12.7
41948	7	Sololá	701	Sololá	1	Sololá	8	Agosto	2023-08-18T00:00:00	2024-11-08T06:00:00	5	Humedad	84
41949	7	Sololá	701	Sololá	1	Sololá	8	Agosto	2023-08-18T00:00:00	2024-11-08T06:00:00	6	Velocidad del viento	6.4
41950	7	Sololá	701	Sololá	1	Sololá	8	Agosto	2023-08-18T00:00:00	2024-11-08T06:00:00	7	Dirección del viento	3.22
41951	7	Sololá	701	Sololá	1	Sololá	8	Agosto	2023-08-18T00:00:00	2024-11-08T06:00:00	1	Precipitación	0
41952	7	Sololá	701	Sololá	1	Sololá	8	Agosto	2023-08-18T00:00:00	2024-11-08T06:00:00	8	Radiación solar	0
41953	7	Sololá	701	Sololá	1	Sololá	8	Agosto	2023-08-18T00:00:00	2024-11-08T07:00:00	2	Temperatura media	13.9
41954	7	Sololá	701	Sololá	1	Sololá	8	Agosto	2023-08-18T00:00:00	2024-11-08T07:00:00	4	Temperatura máxima	13.9
41955	7	Sololá	701	Sololá	1	Sololá	8	Agosto	2023-08-18T00:00:00	2024-11-08T07:00:00	3	Temperatura mínima	12.4
41956	7	Sololá	701	Sololá	1	Sololá	8	Agosto	2023-08-18T00:00:00	2024-11-08T07:00:00	5	Humedad	80
41957	7	Sololá	701	Sololá	1	Sololá	8	Agosto	2023-08-18T00:00:00	2024-11-08T07:00:00	6	Velocidad del viento	4.8
41958	7	Sololá	701	Sololá	1	Sololá	8	Agosto	2023-08-18T00:00:00	2024-11-08T07:00:00	7	Dirección del viento	2.41
41959	7	Sololá	701	Sololá	1	Sololá	8	Agosto	2023-08-18T00:00:00	2024-11-08T07:00:00	1	Precipitación	0
41960	7	Sololá	701	Sololá	1	Sololá	8	Agosto	2023-08-18T00:00:00	2024-11-08T07:00:00	8	Radiación solar	31
41961	7	Sololá	701	Sololá	1	Sololá	8	Agosto	2023-08-18T00:00:00	2024-11-08T08:00:00	2	Temperatura media	16.5
41962	7	Sololá	701	Sololá	1	Sololá	8	Agosto	2023-08-18T00:00:00	2024-11-08T08:00:00	4	Temperatura máxima	16.9
41963	7	Sololá	701	Sololá	1	Sololá	8	Agosto	2023-08-18T00:00:00	2024-11-08T08:00:00	3	Temperatura mínima	16.4
41964	7	Sololá	701	Sololá	1	Sololá	8	Agosto	2023-08-18T00:00:00	2024-11-08T08:00:00	5	Humedad	83
41965	7	Sololá	701	Sololá	1	Sololá	8	Agosto	2023-08-18T00:00:00	2024-11-08T08:00:00	6	Velocidad del viento	1.6
41966	7	Sololá	701	Sololá	1	Sololá	8	Agosto	2023-08-18T00:00:00	2024-11-08T08:00:00	7	Dirección del viento	0.8
41967	7	Sololá	701	Sololá	1	Sololá	8	Agosto	2023-08-18T00:00:00	2024-11-08T08:00:00	1	Precipitación	0
41968	7	Sololá	701	Sololá	1	Sololá	8	Agosto	2023-08-18T00:00:00	2024-11-08T08:00:00	8	Radiación solar	134
41969	7	Sololá	701	Sololá	1	Sololá	8	Agosto	2023-08-18T00:00:00	2024-11-08T09:00:00	2	Temperatura media	19.8
41970	7	Sololá	701	Sololá	1	Sololá	8	Agosto	2023-08-18T00:00:00	2024-11-08T09:00:00	4	Temperatura máxima	19.8
41971	7	Sololá	701	Sololá	1	Sololá	8	Agosto	2023-08-18T00:00:00	2024-11-08T09:00:00	3	Temperatura mínima	17.6
41972	7	Sololá	701	Sololá	1	Sololá	8	Agosto	2023-08-18T00:00:00	2024-11-08T09:00:00	5	Humedad	72
41973	7	Sololá	701	Sololá	1	Sololá	8	Agosto	2023-08-18T00:00:00	2024-11-08T09:00:00	6	Velocidad del viento	3.2
41974	7	Sololá	701	Sololá	1	Sololá	8	Agosto	2023-08-18T00:00:00	2024-11-08T09:00:00	7	Dirección del viento	1.61
41975	7	Sololá	701	Sololá	1	Sololá	8	Agosto	2023-08-18T00:00:00	2024-11-08T09:00:00	1	Precipitación	0
41976	7	Sololá	701	Sololá	1	Sololá	8	Agosto	2023-08-18T00:00:00	2024-11-08T09:00:00	8	Radiación solar	506
41977	7	Sololá	701	Sololá	1	Sololá	8	Agosto	2023-08-18T00:00:00	2024-11-08T10:00:00	2	Temperatura media	19.6
41978	7	Sololá	701	Sololá	1	Sololá	8	Agosto	2023-08-18T00:00:00	2024-11-08T10:00:00	4	Temperatura máxima	20.1
41979	7	Sololá	701	Sololá	1	Sololá	8	Agosto	2023-08-18T00:00:00	2024-11-08T10:00:00	3	Temperatura mínima	19.6
41980	7	Sololá	701	Sololá	1	Sololá	8	Agosto	2023-08-18T00:00:00	2024-11-08T10:00:00	5	Humedad	80
41981	7	Sololá	701	Sololá	1	Sololá	8	Agosto	2023-08-18T00:00:00	2024-11-08T10:00:00	6	Velocidad del viento	3.2
41982	7	Sololá	701	Sololá	1	Sololá	8	Agosto	2023-08-18T00:00:00	2024-11-08T10:00:00	7	Dirección del viento	1.61
41983	7	Sololá	701	Sololá	1	Sololá	8	Agosto	2023-08-18T00:00:00	2024-11-08T10:00:00	1	Precipitación	0
41984	7	Sololá	701	Sololá	1	Sololá	8	Agosto	2023-08-18T00:00:00	2024-11-08T10:00:00	8	Radiación solar	729
41985	7	Sololá	701	Sololá	1	Sololá	8	Agosto	2023-08-18T00:00:00	2024-11-08T11:00:00	2	Temperatura media	21.1
41986	7	Sololá	701	Sololá	1	Sololá	8	Agosto	2023-08-18T00:00:00	2024-11-08T11:00:00	4	Temperatura máxima	21.3
41987	7	Sololá	701	Sololá	1	Sololá	8	Agosto	2023-08-18T00:00:00	2024-11-08T11:00:00	3	Temperatura mínima	19.8
41988	7	Sololá	701	Sololá	1	Sololá	8	Agosto	2023-08-18T00:00:00	2024-11-08T11:00:00	5	Humedad	67
41989	7	Sololá	701	Sololá	1	Sololá	8	Agosto	2023-08-18T00:00:00	2024-11-08T11:00:00	6	Velocidad del viento	6.4
41990	7	Sololá	701	Sololá	1	Sololá	8	Agosto	2023-08-18T00:00:00	2024-11-08T11:00:00	7	Dirección del viento	3.22
41991	7	Sololá	701	Sololá	1	Sololá	8	Agosto	2023-08-18T00:00:00	2024-11-08T11:00:00	1	Precipitación	0
41992	7	Sololá	701	Sololá	1	Sololá	8	Agosto	2023-08-18T00:00:00	2024-11-08T11:00:00	8	Radiación solar	852
41993	7	Sololá	701	Sololá	1	Sololá	8	Agosto	2023-08-18T00:00:00	2024-11-08T12:00:00	2	Temperatura media	21.3
41994	7	Sololá	701	Sololá	1	Sololá	8	Agosto	2023-08-18T00:00:00	2024-11-08T12:00:00	4	Temperatura máxima	21.4
41995	7	Sololá	701	Sololá	1	Sololá	8	Agosto	2023-08-18T00:00:00	2024-11-08T12:00:00	3	Temperatura mínima	21
41996	7	Sololá	701	Sololá	1	Sololá	8	Agosto	2023-08-18T00:00:00	2024-11-08T12:00:00	5	Humedad	72
41997	7	Sololá	701	Sololá	1	Sololá	8	Agosto	2023-08-18T00:00:00	2024-11-08T12:00:00	6	Velocidad del viento	8
41998	7	Sololá	701	Sololá	1	Sololá	8	Agosto	2023-08-18T00:00:00	2024-11-08T12:00:00	7	Dirección del viento	4.02
41999	7	Sololá	701	Sololá	1	Sololá	8	Agosto	2023-08-18T00:00:00	2024-11-08T12:00:00	1	Precipitación	0
42000	7	Sololá	701	Sololá	1	Sololá	8	Agosto	2023-08-18T00:00:00	2024-11-08T12:00:00	8	Radiación solar	958
42001	7	Sololá	701	Sololá	1	Sololá	8	Agosto	2023-08-18T00:00:00	2024-11-08T13:00:00	2	Temperatura media	20.4
42002	7	Sololá	701	Sololá	1	Sololá	8	Agosto	2023-08-18T00:00:00	2024-11-08T13:00:00	4	Temperatura máxima	20.7
42003	7	Sololá	701	Sololá	1	Sololá	8	Agosto	2023-08-18T00:00:00	2024-11-08T13:00:00	3	Temperatura mínima	20.2
42004	7	Sololá	701	Sololá	1	Sololá	8	Agosto	2023-08-18T00:00:00	2024-11-08T13:00:00	5	Humedad	80
42005	7	Sololá	701	Sololá	1	Sololá	8	Agosto	2023-08-18T00:00:00	2024-11-08T13:00:00	6	Velocidad del viento	8
42006	7	Sololá	701	Sololá	1	Sololá	8	Agosto	2023-08-18T00:00:00	2024-11-08T13:00:00	7	Dirección del viento	4.02
42007	7	Sololá	701	Sololá	1	Sololá	8	Agosto	2023-08-18T00:00:00	2024-11-08T13:00:00	1	Precipitación	0
42008	7	Sololá	701	Sololá	1	Sololá	8	Agosto	2023-08-18T00:00:00	2024-11-08T13:00:00	8	Radiación solar	784
42009	7	Sololá	701	Sololá	1	Sololá	8	Agosto	2023-08-18T00:00:00	2024-11-08T14:00:00	2	Temperatura media	18.2
42010	7	Sololá	701	Sololá	1	Sololá	8	Agosto	2023-08-18T00:00:00	2024-11-08T14:00:00	4	Temperatura máxima	18.6
42011	7	Sololá	701	Sololá	1	Sololá	8	Agosto	2023-08-18T00:00:00	2024-11-08T14:00:00	3	Temperatura mínima	18.2
42012	7	Sololá	701	Sololá	1	Sololá	8	Agosto	2023-08-18T00:00:00	2024-11-08T14:00:00	5	Humedad	88
42013	7	Sololá	701	Sololá	1	Sololá	8	Agosto	2023-08-18T00:00:00	2024-11-08T14:00:00	6	Velocidad del viento	6.4
42014	7	Sololá	701	Sololá	1	Sololá	8	Agosto	2023-08-18T00:00:00	2024-11-08T14:00:00	7	Dirección del viento	3.22
42015	7	Sololá	701	Sololá	1	Sololá	8	Agosto	2023-08-18T00:00:00	2024-11-08T14:00:00	1	Precipitación	0
42016	7	Sololá	701	Sololá	1	Sololá	8	Agosto	2023-08-18T00:00:00	2024-11-08T14:00:00	8	Radiación solar	758
42017	7	Sololá	701	Sololá	1	Sololá	8	Agosto	2023-08-18T00:00:00	2024-11-08T15:00:00	2	Temperatura media	18.8
42018	7	Sololá	701	Sololá	1	Sololá	8	Agosto	2023-08-18T00:00:00	2024-11-08T15:00:00	4	Temperatura máxima	18.9
42019	7	Sololá	701	Sololá	1	Sololá	8	Agosto	2023-08-18T00:00:00	2024-11-08T15:00:00	3	Temperatura mínima	18.1
42020	7	Sololá	701	Sololá	1	Sololá	8	Agosto	2023-08-18T00:00:00	2024-11-08T15:00:00	5	Humedad	85
42021	7	Sololá	701	Sololá	1	Sololá	8	Agosto	2023-08-18T00:00:00	2024-11-08T15:00:00	6	Velocidad del viento	6.4
42022	7	Sololá	701	Sololá	1	Sololá	8	Agosto	2023-08-18T00:00:00	2024-11-08T15:00:00	7	Dirección del viento	3.22
42023	7	Sololá	701	Sololá	1	Sololá	8	Agosto	2023-08-18T00:00:00	2024-11-08T15:00:00	1	Precipitación	0
42024	7	Sololá	701	Sololá	1	Sololá	8	Agosto	2023-08-18T00:00:00	2024-11-08T15:00:00	8	Radiación solar	630
42025	7	Sololá	701	Sololá	1	Sololá	8	Agosto	2023-08-18T00:00:00	2024-11-08T16:00:00	2	Temperatura media	18.3
42026	7	Sololá	701	Sololá	1	Sololá	8	Agosto	2023-08-18T00:00:00	2024-11-08T16:00:00	4	Temperatura máxima	18.4
42027	7	Sololá	701	Sololá	1	Sololá	8	Agosto	2023-08-18T00:00:00	2024-11-08T16:00:00	3	Temperatura mínima	18.2
42028	7	Sololá	701	Sololá	1	Sololá	8	Agosto	2023-08-18T00:00:00	2024-11-08T16:00:00	5	Humedad	86
42029	7	Sololá	701	Sololá	1	Sololá	8	Agosto	2023-08-18T00:00:00	2024-11-08T16:00:00	6	Velocidad del viento	3.2
42030	7	Sololá	701	Sololá	1	Sololá	8	Agosto	2023-08-18T00:00:00	2024-11-08T16:00:00	7	Dirección del viento	1.61
42031	7	Sololá	701	Sololá	1	Sololá	8	Agosto	2023-08-18T00:00:00	2024-11-08T16:00:00	1	Precipitación	0
42032	7	Sololá	701	Sololá	1	Sololá	8	Agosto	2023-08-18T00:00:00	2024-11-08T16:00:00	8	Radiación solar	164
42033	7	Sololá	701	Sololá	1	Sololá	8	Agosto	2023-08-18T00:00:00	2024-11-08T17:00:00	2	Temperatura media	16.1
42034	7	Sololá	701	Sololá	1	Sololá	8	Agosto	2023-08-18T00:00:00	2024-11-08T17:00:00	4	Temperatura máxima	18.2
42035	7	Sololá	701	Sololá	1	Sololá	8	Agosto	2023-08-18T00:00:00	2024-11-08T17:00:00	3	Temperatura mínima	16.1
42036	7	Sololá	701	Sololá	1	Sololá	8	Agosto	2023-08-18T00:00:00	2024-11-08T17:00:00	5	Humedad	94
42037	7	Sololá	701	Sololá	1	Sololá	8	Agosto	2023-08-18T00:00:00	2024-11-08T17:00:00	6	Velocidad del viento	9.7
42038	7	Sololá	701	Sololá	1	Sololá	8	Agosto	2023-08-18T00:00:00	2024-11-08T17:00:00	7	Dirección del viento	4.83
42039	7	Sololá	701	Sololá	1	Sololá	8	Agosto	2023-08-18T00:00:00	2024-11-08T17:00:00	1	Precipitación	4.8
42040	7	Sololá	701	Sololá	1	Sololá	8	Agosto	2023-08-18T00:00:00	2024-11-08T17:00:00	8	Radiación solar	51
42041	7	Sololá	701	Sololá	1	Sololá	8	Agosto	2023-08-18T00:00:00	2024-11-08T18:00:00	2	Temperatura media	15
42042	7	Sololá	701	Sololá	1	Sololá	8	Agosto	2023-08-18T00:00:00	2024-11-08T18:00:00	4	Temperatura máxima	15.9
42043	7	Sololá	701	Sololá	1	Sololá	8	Agosto	2023-08-18T00:00:00	2024-11-08T18:00:00	3	Temperatura mínima	15
42044	7	Sololá	701	Sololá	1	Sololá	8	Agosto	2023-08-18T00:00:00	2024-11-08T18:00:00	5	Humedad	96
42045	7	Sololá	701	Sololá	1	Sololá	8	Agosto	2023-08-18T00:00:00	2024-11-08T18:00:00	6	Velocidad del viento	8
42046	7	Sololá	701	Sololá	1	Sololá	8	Agosto	2023-08-18T00:00:00	2024-11-08T18:00:00	7	Dirección del viento	4.02
42047	7	Sololá	701	Sololá	1	Sololá	8	Agosto	2023-08-18T00:00:00	2024-11-08T18:00:00	1	Precipitación	1
42048	7	Sololá	701	Sololá	1	Sololá	8	Agosto	2023-08-18T00:00:00	2024-11-08T18:00:00	8	Radiación solar	14
42049	7	Sololá	701	Sololá	1	Sololá	8	Agosto	2023-08-18T00:00:00	2024-11-08T19:00:00	2	Temperatura media	14.6
42050	7	Sololá	701	Sololá	1	Sololá	8	Agosto	2023-08-18T00:00:00	2024-11-08T19:00:00	4	Temperatura máxima	14.9
42051	7	Sololá	701	Sololá	1	Sololá	8	Agosto	2023-08-18T00:00:00	2024-11-08T19:00:00	3	Temperatura mínima	14.6
42052	7	Sololá	701	Sololá	1	Sololá	8	Agosto	2023-08-18T00:00:00	2024-11-08T19:00:00	5	Humedad	96
42053	7	Sololá	701	Sololá	1	Sololá	8	Agosto	2023-08-18T00:00:00	2024-11-08T19:00:00	6	Velocidad del viento	1.6
42054	7	Sololá	701	Sololá	1	Sololá	8	Agosto	2023-08-18T00:00:00	2024-11-08T19:00:00	7	Dirección del viento	0.8
42055	7	Sololá	701	Sololá	1	Sololá	8	Agosto	2023-08-18T00:00:00	2024-11-08T19:00:00	1	Precipitación	0.6
42056	7	Sololá	701	Sololá	1	Sololá	8	Agosto	2023-08-18T00:00:00	2024-11-08T19:00:00	8	Radiación solar	0
42057	7	Sololá	701	Sololá	1	Sololá	8	Agosto	2023-08-18T00:00:00	2024-11-08T20:00:00	2	Temperatura media	14.9
42058	7	Sololá	701	Sololá	1	Sololá	8	Agosto	2023-08-18T00:00:00	2024-11-08T20:00:00	4	Temperatura máxima	14.9
42059	7	Sololá	701	Sololá	1	Sololá	8	Agosto	2023-08-18T00:00:00	2024-11-08T20:00:00	3	Temperatura mínima	14.6
42060	7	Sololá	701	Sololá	1	Sololá	8	Agosto	2023-08-18T00:00:00	2024-11-08T20:00:00	5	Humedad	97
42061	7	Sololá	701	Sololá	1	Sololá	8	Agosto	2023-08-18T00:00:00	2024-11-08T20:00:00	6	Velocidad del viento	1.6
42062	7	Sololá	701	Sololá	1	Sololá	8	Agosto	2023-08-18T00:00:00	2024-11-08T20:00:00	7	Dirección del viento	0.8
42063	7	Sololá	701	Sololá	1	Sololá	8	Agosto	2023-08-18T00:00:00	2024-11-08T20:00:00	1	Precipitación	0.2
42064	7	Sololá	701	Sololá	1	Sololá	8	Agosto	2023-08-18T00:00:00	2024-11-08T20:00:00	8	Radiación solar	0
42065	7	Sololá	701	Sololá	1	Sololá	8	Agosto	2023-08-18T00:00:00	2024-11-08T21:00:00	2	Temperatura media	14.9
42066	7	Sololá	701	Sololá	1	Sololá	8	Agosto	2023-08-18T00:00:00	2024-11-08T21:00:00	4	Temperatura máxima	14.9
42067	7	Sololá	701	Sololá	1	Sololá	8	Agosto	2023-08-18T00:00:00	2024-11-08T21:00:00	3	Temperatura mínima	14.8
42068	7	Sololá	701	Sololá	1	Sololá	8	Agosto	2023-08-18T00:00:00	2024-11-08T21:00:00	5	Humedad	96
42069	7	Sololá	701	Sololá	1	Sololá	8	Agosto	2023-08-18T00:00:00	2024-11-08T21:00:00	6	Velocidad del viento	0
42070	7	Sololá	701	Sololá	1	Sololá	8	Agosto	2023-08-18T00:00:00	2024-11-08T21:00:00	7	Dirección del viento	0
42071	7	Sololá	701	Sololá	1	Sololá	8	Agosto	2023-08-18T00:00:00	2024-11-08T21:00:00	1	Precipitación	0
42072	7	Sololá	701	Sololá	1	Sololá	8	Agosto	2023-08-18T00:00:00	2024-11-08T21:00:00	8	Radiación solar	0
42073	7	Sololá	701	Sololá	1	Sololá	8	Agosto	2023-08-18T00:00:00	2024-11-08T22:00:00	2	Temperatura media	14.9
42074	7	Sololá	701	Sololá	1	Sololá	8	Agosto	2023-08-18T00:00:00	2024-11-08T22:00:00	4	Temperatura máxima	14.9
42075	7	Sololá	701	Sololá	1	Sololá	8	Agosto	2023-08-18T00:00:00	2024-11-08T22:00:00	3	Temperatura mínima	14.8
42076	7	Sololá	701	Sololá	1	Sololá	8	Agosto	2023-08-18T00:00:00	2024-11-08T22:00:00	5	Humedad	96
42077	7	Sololá	701	Sololá	1	Sololá	8	Agosto	2023-08-18T00:00:00	2024-11-08T22:00:00	6	Velocidad del viento	3.2
42078	7	Sololá	701	Sololá	1	Sololá	8	Agosto	2023-08-18T00:00:00	2024-11-08T22:00:00	7	Dirección del viento	1.61
42079	7	Sololá	701	Sololá	1	Sololá	8	Agosto	2023-08-18T00:00:00	2024-11-08T22:00:00	1	Precipitación	3.2
42080	7	Sololá	701	Sololá	1	Sololá	8	Agosto	2023-08-18T00:00:00	2024-11-08T22:00:00	8	Radiación solar	0
42081	7	Sololá	701	Sololá	1	Sololá	8	Agosto	2023-08-18T00:00:00	2024-11-08T23:00:00	2	Temperatura media	13.7
42082	7	Sololá	701	Sololá	1	Sololá	8	Agosto	2023-08-18T00:00:00	2024-11-08T23:00:00	4	Temperatura máxima	14.1
42083	7	Sololá	701	Sololá	1	Sololá	8	Agosto	2023-08-18T00:00:00	2024-11-08T23:00:00	3	Temperatura mínima	13.7
42084	7	Sololá	701	Sololá	1	Sololá	8	Agosto	2023-08-18T00:00:00	2024-11-08T23:00:00	5	Humedad	92
42085	7	Sololá	701	Sololá	1	Sololá	8	Agosto	2023-08-18T00:00:00	2024-11-08T23:00:00	6	Velocidad del viento	6.4
42086	7	Sololá	701	Sololá	1	Sololá	8	Agosto	2023-08-18T00:00:00	2024-11-08T23:00:00	7	Dirección del viento	3.22
42087	7	Sololá	701	Sololá	1	Sololá	8	Agosto	2023-08-18T00:00:00	2024-11-08T23:00:00	1	Precipitación	0
42088	7	Sololá	701	Sololá	1	Sololá	8	Agosto	2023-08-18T00:00:00	2024-11-08T23:00:00	8	Radiación solar	0
42089	7	Sololá	701	Sololá	1	Sololá	8	Agosto	2023-08-19T00:00:00	2024-11-08T00:00:00	2	Temperatura media	13.8
42090	7	Sololá	701	Sololá	1	Sololá	8	Agosto	2023-08-19T00:00:00	2024-11-08T00:00:00	4	Temperatura máxima	14.2
42091	7	Sololá	701	Sololá	1	Sololá	8	Agosto	2023-08-19T00:00:00	2024-11-08T00:00:00	3	Temperatura mínima	13.8
42092	7	Sololá	701	Sololá	1	Sololá	8	Agosto	2023-08-19T00:00:00	2024-11-08T00:00:00	5	Humedad	92
42093	7	Sololá	701	Sololá	1	Sololá	8	Agosto	2023-08-19T00:00:00	2024-11-08T00:00:00	6	Velocidad del viento	6.4
42094	7	Sololá	701	Sololá	1	Sololá	8	Agosto	2023-08-19T00:00:00	2024-11-08T00:00:00	7	Dirección del viento	3.22
42095	7	Sololá	701	Sololá	1	Sololá	8	Agosto	2023-08-19T00:00:00	2024-11-08T00:00:00	1	Precipitación	0.2
42096	7	Sololá	701	Sololá	1	Sololá	8	Agosto	2023-08-19T00:00:00	2024-11-08T00:00:00	8	Radiación solar	0
42097	7	Sololá	701	Sololá	1	Sololá	8	Agosto	2023-08-19T00:00:00	2024-11-08T01:00:00	2	Temperatura media	13.7
42098	7	Sololá	701	Sololá	1	Sololá	8	Agosto	2023-08-19T00:00:00	2024-11-08T01:00:00	4	Temperatura máxima	13.9
42099	7	Sololá	701	Sololá	1	Sololá	8	Agosto	2023-08-19T00:00:00	2024-11-08T01:00:00	3	Temperatura mínima	13.7
42100	7	Sololá	701	Sololá	1	Sololá	8	Agosto	2023-08-19T00:00:00	2024-11-08T01:00:00	5	Humedad	92
42101	7	Sololá	701	Sololá	1	Sololá	8	Agosto	2023-08-19T00:00:00	2024-11-08T01:00:00	6	Velocidad del viento	1.6
42102	7	Sololá	701	Sololá	1	Sololá	8	Agosto	2023-08-19T00:00:00	2024-11-08T01:00:00	7	Dirección del viento	0.8
42103	7	Sololá	701	Sololá	1	Sololá	8	Agosto	2023-08-19T00:00:00	2024-11-08T01:00:00	1	Precipitación	0
42104	7	Sololá	701	Sololá	1	Sololá	8	Agosto	2023-08-19T00:00:00	2024-11-08T01:00:00	8	Radiación solar	0
42105	7	Sololá	701	Sololá	1	Sololá	8	Agosto	2023-08-19T00:00:00	2024-11-08T02:00:00	2	Temperatura media	13.7
42106	7	Sololá	701	Sololá	1	Sololá	8	Agosto	2023-08-19T00:00:00	2024-11-08T02:00:00	4	Temperatura máxima	13.8
42107	7	Sololá	701	Sololá	1	Sololá	8	Agosto	2023-08-19T00:00:00	2024-11-08T02:00:00	3	Temperatura mínima	13.6
42108	7	Sololá	701	Sololá	1	Sololá	8	Agosto	2023-08-19T00:00:00	2024-11-08T02:00:00	5	Humedad	91
42109	7	Sololá	701	Sololá	1	Sololá	8	Agosto	2023-08-19T00:00:00	2024-11-08T02:00:00	6	Velocidad del viento	3.2
42110	7	Sololá	701	Sololá	1	Sololá	8	Agosto	2023-08-19T00:00:00	2024-11-08T02:00:00	7	Dirección del viento	1.61
42111	7	Sololá	701	Sololá	1	Sololá	8	Agosto	2023-08-19T00:00:00	2024-11-08T02:00:00	1	Precipitación	0
42112	7	Sololá	701	Sololá	1	Sololá	8	Agosto	2023-08-19T00:00:00	2024-11-08T02:00:00	8	Radiación solar	0
42113	7	Sololá	701	Sololá	1	Sololá	8	Agosto	2023-08-19T00:00:00	2024-11-08T03:00:00	2	Temperatura media	13.6
42114	7	Sololá	701	Sololá	1	Sololá	8	Agosto	2023-08-19T00:00:00	2024-11-08T03:00:00	4	Temperatura máxima	13.6
42115	7	Sololá	701	Sololá	1	Sololá	8	Agosto	2023-08-19T00:00:00	2024-11-08T03:00:00	3	Temperatura mínima	13.4
42116	7	Sololá	701	Sololá	1	Sololá	8	Agosto	2023-08-19T00:00:00	2024-11-08T03:00:00	5	Humedad	91
42117	7	Sololá	701	Sololá	1	Sololá	8	Agosto	2023-08-19T00:00:00	2024-11-08T03:00:00	6	Velocidad del viento	3.2
42118	7	Sololá	701	Sololá	1	Sololá	8	Agosto	2023-08-19T00:00:00	2024-11-08T03:00:00	7	Dirección del viento	1.61
42119	7	Sololá	701	Sololá	1	Sololá	8	Agosto	2023-08-19T00:00:00	2024-11-08T03:00:00	1	Precipitación	0
42120	7	Sololá	701	Sololá	1	Sololá	8	Agosto	2023-08-19T00:00:00	2024-11-08T03:00:00	8	Radiación solar	0
42121	7	Sololá	701	Sololá	1	Sololá	8	Agosto	2023-08-19T00:00:00	2024-11-08T04:00:00	2	Temperatura media	12.7
42122	7	Sololá	701	Sololá	1	Sololá	8	Agosto	2023-08-19T00:00:00	2024-11-08T04:00:00	4	Temperatura máxima	12.9
42123	7	Sololá	701	Sololá	1	Sololá	8	Agosto	2023-08-19T00:00:00	2024-11-08T04:00:00	3	Temperatura mínima	12.7
42124	7	Sololá	701	Sololá	1	Sololá	8	Agosto	2023-08-19T00:00:00	2024-11-08T04:00:00	5	Humedad	92
42125	7	Sololá	701	Sololá	1	Sololá	8	Agosto	2023-08-19T00:00:00	2024-11-08T04:00:00	6	Velocidad del viento	4.8
42126	7	Sololá	701	Sololá	1	Sololá	8	Agosto	2023-08-19T00:00:00	2024-11-08T04:00:00	7	Dirección del viento	2.41
42127	7	Sololá	701	Sololá	1	Sololá	8	Agosto	2023-08-19T00:00:00	2024-11-08T04:00:00	1	Precipitación	0
42128	7	Sololá	701	Sololá	1	Sololá	8	Agosto	2023-08-19T00:00:00	2024-11-08T04:00:00	8	Radiación solar	0
42129	7	Sololá	701	Sololá	1	Sololá	8	Agosto	2023-08-19T00:00:00	2024-11-08T05:00:00	2	Temperatura media	13.2
42130	7	Sololá	701	Sololá	1	Sololá	8	Agosto	2023-08-19T00:00:00	2024-11-08T05:00:00	4	Temperatura máxima	13.6
42131	7	Sololá	701	Sololá	1	Sololá	8	Agosto	2023-08-19T00:00:00	2024-11-08T05:00:00	3	Temperatura mínima	13.2
42132	7	Sololá	701	Sololá	1	Sololá	8	Agosto	2023-08-19T00:00:00	2024-11-08T05:00:00	5	Humedad	88
42133	7	Sololá	701	Sololá	1	Sololá	8	Agosto	2023-08-19T00:00:00	2024-11-08T05:00:00	6	Velocidad del viento	6.4
42134	7	Sololá	701	Sololá	1	Sololá	8	Agosto	2023-08-19T00:00:00	2024-11-08T05:00:00	7	Dirección del viento	3.22
42135	7	Sololá	701	Sololá	1	Sololá	8	Agosto	2023-08-19T00:00:00	2024-11-08T05:00:00	1	Precipitación	0
42136	7	Sololá	701	Sololá	1	Sololá	8	Agosto	2023-08-19T00:00:00	2024-11-08T05:00:00	8	Radiación solar	0
42137	7	Sololá	701	Sololá	1	Sololá	8	Agosto	2023-08-19T00:00:00	2024-11-08T06:00:00	2	Temperatura media	12.4
42138	7	Sololá	701	Sololá	1	Sololá	8	Agosto	2023-08-19T00:00:00	2024-11-08T06:00:00	4	Temperatura máxima	12.6
42139	7	Sololá	701	Sololá	1	Sololá	8	Agosto	2023-08-19T00:00:00	2024-11-08T06:00:00	3	Temperatura mínima	12.2
42140	7	Sololá	701	Sololá	1	Sololá	8	Agosto	2023-08-19T00:00:00	2024-11-08T06:00:00	5	Humedad	90
42141	7	Sololá	701	Sololá	1	Sololá	8	Agosto	2023-08-19T00:00:00	2024-11-08T06:00:00	6	Velocidad del viento	3.2
42142	7	Sololá	701	Sololá	1	Sololá	8	Agosto	2023-08-19T00:00:00	2024-11-08T06:00:00	7	Dirección del viento	1.61
42143	7	Sololá	701	Sololá	1	Sololá	8	Agosto	2023-08-19T00:00:00	2024-11-08T06:00:00	1	Precipitación	0
42144	7	Sololá	701	Sololá	1	Sololá	8	Agosto	2023-08-19T00:00:00	2024-11-08T06:00:00	8	Radiación solar	0
42145	7	Sololá	701	Sololá	1	Sololá	8	Agosto	2023-08-19T00:00:00	2024-11-08T07:00:00	2	Temperatura media	14.2
42146	7	Sololá	701	Sololá	1	Sololá	8	Agosto	2023-08-19T00:00:00	2024-11-08T07:00:00	4	Temperatura máxima	14.2
42147	7	Sololá	701	Sololá	1	Sololá	8	Agosto	2023-08-19T00:00:00	2024-11-08T07:00:00	3	Temperatura mínima	11.9
42148	7	Sololá	701	Sololá	1	Sololá	8	Agosto	2023-08-19T00:00:00	2024-11-08T07:00:00	5	Humedad	87
42149	7	Sololá	701	Sololá	1	Sololá	8	Agosto	2023-08-19T00:00:00	2024-11-08T07:00:00	6	Velocidad del viento	4.8
42150	7	Sololá	701	Sololá	1	Sololá	8	Agosto	2023-08-19T00:00:00	2024-11-08T07:00:00	7	Dirección del viento	2.41
42151	7	Sololá	701	Sololá	1	Sololá	8	Agosto	2023-08-19T00:00:00	2024-11-08T07:00:00	1	Precipitación	0
42152	7	Sololá	701	Sololá	1	Sololá	8	Agosto	2023-08-19T00:00:00	2024-11-08T07:00:00	8	Radiación solar	24
42153	7	Sololá	701	Sololá	1	Sololá	8	Agosto	2023-08-19T00:00:00	2024-11-08T08:00:00	2	Temperatura media	16.1
42154	7	Sololá	701	Sololá	1	Sololá	8	Agosto	2023-08-19T00:00:00	2024-11-08T08:00:00	4	Temperatura máxima	16.1
42155	7	Sololá	701	Sololá	1	Sololá	8	Agosto	2023-08-19T00:00:00	2024-11-08T08:00:00	3	Temperatura mínima	14.4
42156	7	Sololá	701	Sololá	1	Sololá	8	Agosto	2023-08-19T00:00:00	2024-11-08T08:00:00	5	Humedad	81
42157	7	Sololá	701	Sololá	1	Sololá	8	Agosto	2023-08-19T00:00:00	2024-11-08T08:00:00	6	Velocidad del viento	3.2
42158	7	Sololá	701	Sololá	1	Sololá	8	Agosto	2023-08-19T00:00:00	2024-11-08T08:00:00	7	Dirección del viento	1.61
42159	7	Sololá	701	Sololá	1	Sololá	8	Agosto	2023-08-19T00:00:00	2024-11-08T08:00:00	1	Precipitación	0
42160	7	Sololá	701	Sololá	1	Sololá	8	Agosto	2023-08-19T00:00:00	2024-11-08T08:00:00	8	Radiación solar	60
42161	7	Sololá	701	Sololá	1	Sololá	8	Agosto	2023-08-19T00:00:00	2024-11-08T09:00:00	2	Temperatura media	19.3
42162	7	Sololá	701	Sololá	1	Sololá	8	Agosto	2023-08-19T00:00:00	2024-11-08T09:00:00	4	Temperatura máxima	19.3
42163	7	Sololá	701	Sololá	1	Sololá	8	Agosto	2023-08-19T00:00:00	2024-11-08T09:00:00	3	Temperatura mínima	17.4
42164	7	Sololá	701	Sololá	1	Sololá	8	Agosto	2023-08-19T00:00:00	2024-11-08T09:00:00	5	Humedad	68
42165	7	Sololá	701	Sololá	1	Sololá	8	Agosto	2023-08-19T00:00:00	2024-11-08T09:00:00	6	Velocidad del viento	3.2
42166	7	Sololá	701	Sololá	1	Sololá	8	Agosto	2023-08-19T00:00:00	2024-11-08T09:00:00	7	Dirección del viento	1.61
42167	7	Sololá	701	Sololá	1	Sololá	8	Agosto	2023-08-19T00:00:00	2024-11-08T09:00:00	1	Precipitación	0
42168	7	Sololá	701	Sololá	1	Sololá	8	Agosto	2023-08-19T00:00:00	2024-11-08T09:00:00	8	Radiación solar	220
42169	7	Sololá	701	Sololá	1	Sololá	8	Agosto	2023-08-19T00:00:00	2024-11-08T10:00:00	2	Temperatura media	20.1
42170	7	Sololá	701	Sololá	1	Sololá	8	Agosto	2023-08-19T00:00:00	2024-11-08T10:00:00	4	Temperatura máxima	20.1
42171	7	Sololá	701	Sololá	1	Sololá	8	Agosto	2023-08-19T00:00:00	2024-11-08T10:00:00	3	Temperatura mínima	19.4
42172	7	Sololá	701	Sololá	1	Sololá	8	Agosto	2023-08-19T00:00:00	2024-11-08T10:00:00	5	Humedad	64
42173	7	Sololá	701	Sololá	1	Sololá	8	Agosto	2023-08-19T00:00:00	2024-11-08T10:00:00	6	Velocidad del viento	12.9
42174	7	Sololá	701	Sololá	1	Sololá	8	Agosto	2023-08-19T00:00:00	2024-11-08T10:00:00	7	Dirección del viento	6.44
42175	7	Sololá	701	Sololá	1	Sololá	8	Agosto	2023-08-19T00:00:00	2024-11-08T10:00:00	1	Precipitación	0
42176	7	Sololá	701	Sololá	1	Sololá	8	Agosto	2023-08-19T00:00:00	2024-11-08T10:00:00	8	Radiación solar	484
42177	7	Sololá	701	Sololá	1	Sololá	8	Agosto	2023-08-19T00:00:00	2024-11-08T11:00:00	2	Temperatura media	19.8
42178	7	Sololá	701	Sololá	1	Sololá	8	Agosto	2023-08-19T00:00:00	2024-11-08T11:00:00	4	Temperatura máxima	21.1
42179	7	Sololá	701	Sololá	1	Sololá	8	Agosto	2023-08-19T00:00:00	2024-11-08T11:00:00	3	Temperatura mínima	19.8
42180	7	Sololá	701	Sololá	1	Sololá	8	Agosto	2023-08-19T00:00:00	2024-11-08T11:00:00	5	Humedad	72
42181	7	Sololá	701	Sololá	1	Sololá	8	Agosto	2023-08-19T00:00:00	2024-11-08T11:00:00	6	Velocidad del viento	8
42182	7	Sololá	701	Sololá	1	Sololá	8	Agosto	2023-08-19T00:00:00	2024-11-08T11:00:00	7	Dirección del viento	4.02
42183	7	Sololá	701	Sololá	1	Sololá	8	Agosto	2023-08-19T00:00:00	2024-11-08T11:00:00	1	Precipitación	0
42184	7	Sololá	701	Sololá	1	Sololá	8	Agosto	2023-08-19T00:00:00	2024-11-08T11:00:00	8	Radiación solar	660
42185	7	Sololá	701	Sololá	1	Sololá	8	Agosto	2023-08-19T00:00:00	2024-11-08T12:00:00	2	Temperatura media	20.7
42186	7	Sololá	701	Sololá	1	Sololá	8	Agosto	2023-08-19T00:00:00	2024-11-08T12:00:00	4	Temperatura máxima	20.9
42187	7	Sololá	701	Sololá	1	Sololá	8	Agosto	2023-08-19T00:00:00	2024-11-08T12:00:00	3	Temperatura mínima	20
42188	7	Sololá	701	Sololá	1	Sololá	8	Agosto	2023-08-19T00:00:00	2024-11-08T12:00:00	5	Humedad	77
42189	7	Sololá	701	Sololá	1	Sololá	8	Agosto	2023-08-19T00:00:00	2024-11-08T12:00:00	6	Velocidad del viento	6.4
42190	7	Sololá	701	Sololá	1	Sololá	8	Agosto	2023-08-19T00:00:00	2024-11-08T12:00:00	7	Dirección del viento	3.22
42191	7	Sololá	701	Sololá	1	Sololá	8	Agosto	2023-08-19T00:00:00	2024-11-08T12:00:00	1	Precipitación	0
42192	7	Sololá	701	Sololá	1	Sololá	8	Agosto	2023-08-19T00:00:00	2024-11-08T12:00:00	8	Radiación solar	899
42193	7	Sololá	701	Sololá	1	Sololá	8	Agosto	2023-08-19T00:00:00	2024-11-08T13:00:00	2	Temperatura media	18.4
42194	7	Sololá	701	Sololá	1	Sololá	8	Agosto	2023-08-19T00:00:00	2024-11-08T13:00:00	4	Temperatura máxima	19.3
42195	7	Sololá	701	Sololá	1	Sololá	8	Agosto	2023-08-19T00:00:00	2024-11-08T13:00:00	3	Temperatura mínima	18.4
42196	7	Sololá	701	Sololá	1	Sololá	8	Agosto	2023-08-19T00:00:00	2024-11-08T13:00:00	5	Humedad	84
42197	7	Sololá	701	Sololá	1	Sololá	8	Agosto	2023-08-19T00:00:00	2024-11-08T13:00:00	6	Velocidad del viento	3.2
42198	7	Sololá	701	Sololá	1	Sololá	8	Agosto	2023-08-19T00:00:00	2024-11-08T13:00:00	7	Dirección del viento	1.61
42199	7	Sololá	701	Sololá	1	Sololá	8	Agosto	2023-08-19T00:00:00	2024-11-08T13:00:00	1	Precipitación	0
42200	7	Sololá	701	Sololá	1	Sololá	8	Agosto	2023-08-19T00:00:00	2024-11-08T13:00:00	8	Radiación solar	732
42201	7	Sololá	701	Sololá	1	Sololá	8	Agosto	2023-08-19T00:00:00	2024-11-08T14:00:00	2	Temperatura media	17.6
42202	7	Sololá	701	Sololá	1	Sololá	8	Agosto	2023-08-19T00:00:00	2024-11-08T14:00:00	4	Temperatura máxima	17.9
42203	7	Sololá	701	Sololá	1	Sololá	8	Agosto	2023-08-19T00:00:00	2024-11-08T14:00:00	3	Temperatura mínima	17.6
42204	7	Sololá	701	Sololá	1	Sololá	8	Agosto	2023-08-19T00:00:00	2024-11-08T14:00:00	5	Humedad	90
42205	7	Sololá	701	Sololá	1	Sololá	8	Agosto	2023-08-19T00:00:00	2024-11-08T14:00:00	6	Velocidad del viento	3.2
42206	7	Sololá	701	Sololá	1	Sololá	8	Agosto	2023-08-19T00:00:00	2024-11-08T14:00:00	7	Dirección del viento	1.61
42207	7	Sololá	701	Sololá	1	Sololá	8	Agosto	2023-08-19T00:00:00	2024-11-08T14:00:00	1	Precipitación	0
42208	7	Sololá	701	Sololá	1	Sololá	8	Agosto	2023-08-19T00:00:00	2024-11-08T14:00:00	8	Radiación solar	149
42209	7	Sololá	701	Sololá	1	Sololá	8	Agosto	2023-08-19T00:00:00	2024-11-08T15:00:00	2	Temperatura media	16.1
42210	7	Sololá	701	Sololá	1	Sololá	8	Agosto	2023-08-19T00:00:00	2024-11-08T15:00:00	4	Temperatura máxima	16.6
42211	7	Sololá	701	Sololá	1	Sololá	8	Agosto	2023-08-19T00:00:00	2024-11-08T15:00:00	3	Temperatura mínima	16
42212	7	Sololá	701	Sololá	1	Sololá	8	Agosto	2023-08-19T00:00:00	2024-11-08T15:00:00	5	Humedad	94
42213	7	Sololá	701	Sololá	1	Sololá	8	Agosto	2023-08-19T00:00:00	2024-11-08T15:00:00	6	Velocidad del viento	6.4
42214	7	Sololá	701	Sololá	1	Sololá	8	Agosto	2023-08-19T00:00:00	2024-11-08T15:00:00	7	Dirección del viento	3.22
42215	7	Sololá	701	Sololá	1	Sololá	8	Agosto	2023-08-19T00:00:00	2024-11-08T15:00:00	1	Precipitación	3.4
42216	7	Sololá	701	Sololá	1	Sololá	8	Agosto	2023-08-19T00:00:00	2024-11-08T15:00:00	8	Radiación solar	50
42217	7	Sololá	701	Sololá	1	Sololá	8	Agosto	2023-08-19T00:00:00	2024-11-08T16:00:00	2	Temperatura media	15.5
42218	7	Sololá	701	Sololá	1	Sololá	8	Agosto	2023-08-19T00:00:00	2024-11-08T16:00:00	4	Temperatura máxima	15.8
42219	7	Sololá	701	Sololá	1	Sololá	8	Agosto	2023-08-19T00:00:00	2024-11-08T16:00:00	3	Temperatura mínima	15.5
42220	7	Sololá	701	Sololá	1	Sololá	8	Agosto	2023-08-19T00:00:00	2024-11-08T16:00:00	5	Humedad	96
42221	7	Sololá	701	Sololá	1	Sololá	8	Agosto	2023-08-19T00:00:00	2024-11-08T16:00:00	6	Velocidad del viento	6.4
42222	7	Sololá	701	Sololá	1	Sololá	8	Agosto	2023-08-19T00:00:00	2024-11-08T16:00:00	7	Dirección del viento	3.22
42223	7	Sololá	701	Sololá	1	Sololá	8	Agosto	2023-08-19T00:00:00	2024-11-08T16:00:00	1	Precipitación	4.6
42224	7	Sololá	701	Sololá	1	Sololá	8	Agosto	2023-08-19T00:00:00	2024-11-08T16:00:00	8	Radiación solar	72
42225	7	Sololá	701	Sololá	1	Sololá	8	Agosto	2023-08-19T00:00:00	2024-11-08T17:00:00	2	Temperatura media	15.1
42226	7	Sololá	701	Sololá	1	Sololá	8	Agosto	2023-08-19T00:00:00	2024-11-08T17:00:00	4	Temperatura máxima	15.4
42227	7	Sololá	701	Sololá	1	Sololá	8	Agosto	2023-08-19T00:00:00	2024-11-08T17:00:00	3	Temperatura mínima	15.1
42228	7	Sololá	701	Sololá	1	Sololá	8	Agosto	2023-08-19T00:00:00	2024-11-08T17:00:00	5	Humedad	96
42229	7	Sololá	701	Sololá	1	Sololá	8	Agosto	2023-08-19T00:00:00	2024-11-08T17:00:00	6	Velocidad del viento	6.4
42230	7	Sololá	701	Sololá	1	Sololá	8	Agosto	2023-08-19T00:00:00	2024-11-08T17:00:00	7	Dirección del viento	3.22
42231	7	Sololá	701	Sololá	1	Sololá	8	Agosto	2023-08-19T00:00:00	2024-11-08T17:00:00	1	Precipitación	3.6
42232	7	Sololá	701	Sololá	1	Sololá	8	Agosto	2023-08-19T00:00:00	2024-11-08T17:00:00	8	Radiación solar	1
42233	7	Sololá	701	Sololá	1	Sololá	8	Agosto	2023-08-19T00:00:00	2024-11-08T18:00:00	2	Temperatura media	14.8
42234	7	Sololá	701	Sololá	1	Sololá	8	Agosto	2023-08-19T00:00:00	2024-11-08T18:00:00	4	Temperatura máxima	14.9
42235	7	Sololá	701	Sololá	1	Sololá	8	Agosto	2023-08-19T00:00:00	2024-11-08T18:00:00	3	Temperatura mínima	14.7
42236	7	Sololá	701	Sololá	1	Sololá	8	Agosto	2023-08-19T00:00:00	2024-11-08T18:00:00	5	Humedad	97
42237	7	Sololá	701	Sololá	1	Sololá	8	Agosto	2023-08-19T00:00:00	2024-11-08T18:00:00	6	Velocidad del viento	4.8
42238	7	Sololá	701	Sololá	1	Sololá	8	Agosto	2023-08-19T00:00:00	2024-11-08T18:00:00	7	Dirección del viento	2.41
42239	7	Sololá	701	Sololá	1	Sololá	8	Agosto	2023-08-19T00:00:00	2024-11-08T18:00:00	1	Precipitación	6
42240	7	Sololá	701	Sololá	1	Sololá	8	Agosto	2023-08-19T00:00:00	2024-11-08T18:00:00	8	Radiación solar	0
42241	7	Sololá	701	Sololá	1	Sololá	8	Agosto	2023-08-19T00:00:00	2024-11-08T19:00:00	2	Temperatura media	14.4
42242	7	Sololá	701	Sololá	1	Sololá	8	Agosto	2023-08-19T00:00:00	2024-11-08T19:00:00	4	Temperatura máxima	14.8
42243	7	Sololá	701	Sololá	1	Sololá	8	Agosto	2023-08-19T00:00:00	2024-11-08T19:00:00	3	Temperatura mínima	14.4
42244	7	Sololá	701	Sololá	1	Sololá	8	Agosto	2023-08-19T00:00:00	2024-11-08T19:00:00	5	Humedad	97
42245	7	Sololá	701	Sololá	1	Sololá	8	Agosto	2023-08-19T00:00:00	2024-11-08T19:00:00	6	Velocidad del viento	1.6
42246	7	Sololá	701	Sololá	1	Sololá	8	Agosto	2023-08-19T00:00:00	2024-11-08T19:00:00	7	Dirección del viento	0.8
42247	7	Sololá	701	Sololá	1	Sololá	8	Agosto	2023-08-19T00:00:00	2024-11-08T19:00:00	1	Precipitación	5.8
42248	7	Sololá	701	Sololá	1	Sololá	8	Agosto	2023-08-19T00:00:00	2024-11-08T19:00:00	8	Radiación solar	0
42249	7	Sololá	701	Sololá	1	Sololá	8	Agosto	2023-08-19T00:00:00	2024-11-08T20:00:00	2	Temperatura media	14.1
42250	7	Sololá	701	Sololá	1	Sololá	8	Agosto	2023-08-19T00:00:00	2024-11-08T20:00:00	4	Temperatura máxima	14.3
42251	7	Sololá	701	Sololá	1	Sololá	8	Agosto	2023-08-19T00:00:00	2024-11-08T20:00:00	3	Temperatura mínima	14
42252	7	Sololá	701	Sololá	1	Sololá	8	Agosto	2023-08-19T00:00:00	2024-11-08T20:00:00	5	Humedad	96
42253	7	Sololá	701	Sololá	1	Sololá	8	Agosto	2023-08-19T00:00:00	2024-11-08T20:00:00	6	Velocidad del viento	1.6
42254	7	Sololá	701	Sololá	1	Sololá	8	Agosto	2023-08-19T00:00:00	2024-11-08T20:00:00	7	Dirección del viento	0.8
42255	7	Sololá	701	Sololá	1	Sololá	8	Agosto	2023-08-19T00:00:00	2024-11-08T20:00:00	1	Precipitación	0.6
42256	7	Sololá	701	Sololá	1	Sololá	8	Agosto	2023-08-19T00:00:00	2024-11-08T20:00:00	8	Radiación solar	0
42257	7	Sololá	701	Sololá	1	Sololá	8	Agosto	2023-08-19T00:00:00	2024-11-08T21:00:00	2	Temperatura media	14.1
42258	7	Sololá	701	Sololá	1	Sololá	8	Agosto	2023-08-19T00:00:00	2024-11-08T21:00:00	4	Temperatura máxima	14.2
42259	7	Sololá	701	Sololá	1	Sololá	8	Agosto	2023-08-19T00:00:00	2024-11-08T21:00:00	3	Temperatura mínima	14.1
42260	7	Sololá	701	Sololá	1	Sololá	8	Agosto	2023-08-19T00:00:00	2024-11-08T21:00:00	5	Humedad	95
42261	7	Sololá	701	Sololá	1	Sololá	8	Agosto	2023-08-19T00:00:00	2024-11-08T21:00:00	6	Velocidad del viento	1.6
42262	7	Sololá	701	Sololá	1	Sololá	8	Agosto	2023-08-19T00:00:00	2024-11-08T21:00:00	7	Dirección del viento	0.8
42263	7	Sololá	701	Sololá	1	Sololá	8	Agosto	2023-08-19T00:00:00	2024-11-08T21:00:00	1	Precipitación	0
42264	7	Sololá	701	Sololá	1	Sololá	8	Agosto	2023-08-19T00:00:00	2024-11-08T21:00:00	8	Radiación solar	0
42265	7	Sololá	701	Sololá	1	Sololá	8	Agosto	2023-08-19T00:00:00	2024-11-08T22:00:00	2	Temperatura media	14.2
42266	7	Sololá	701	Sololá	1	Sololá	8	Agosto	2023-08-19T00:00:00	2024-11-08T22:00:00	4	Temperatura máxima	14.3
42267	7	Sololá	701	Sololá	1	Sololá	8	Agosto	2023-08-19T00:00:00	2024-11-08T22:00:00	3	Temperatura mínima	14.2
42268	7	Sololá	701	Sololá	1	Sololá	8	Agosto	2023-08-19T00:00:00	2024-11-08T22:00:00	5	Humedad	95
42269	7	Sololá	701	Sololá	1	Sololá	8	Agosto	2023-08-19T00:00:00	2024-11-08T22:00:00	6	Velocidad del viento	1.6
42270	7	Sololá	701	Sololá	1	Sololá	8	Agosto	2023-08-19T00:00:00	2024-11-08T22:00:00	7	Dirección del viento	0.8
42271	7	Sololá	701	Sololá	1	Sololá	8	Agosto	2023-08-19T00:00:00	2024-11-08T22:00:00	1	Precipitación	0.2
42272	7	Sololá	701	Sololá	1	Sololá	8	Agosto	2023-08-19T00:00:00	2024-11-08T22:00:00	8	Radiación solar	0
42273	7	Sololá	701	Sololá	1	Sololá	8	Agosto	2023-08-19T00:00:00	2024-11-08T23:00:00	2	Temperatura media	14.6
42274	7	Sololá	701	Sololá	1	Sololá	8	Agosto	2023-08-19T00:00:00	2024-11-08T23:00:00	4	Temperatura máxima	14.6
42275	7	Sololá	701	Sololá	1	Sololá	8	Agosto	2023-08-19T00:00:00	2024-11-08T23:00:00	3	Temperatura mínima	14.1
42276	7	Sololá	701	Sololá	1	Sololá	8	Agosto	2023-08-19T00:00:00	2024-11-08T23:00:00	5	Humedad	92
42277	7	Sololá	701	Sololá	1	Sololá	8	Agosto	2023-08-19T00:00:00	2024-11-08T23:00:00	6	Velocidad del viento	3.2
42278	7	Sololá	701	Sololá	1	Sololá	8	Agosto	2023-08-19T00:00:00	2024-11-08T23:00:00	7	Dirección del viento	1.61
42279	7	Sololá	701	Sololá	1	Sololá	8	Agosto	2023-08-19T00:00:00	2024-11-08T23:00:00	1	Precipitación	0.2
42280	7	Sololá	701	Sololá	1	Sololá	8	Agosto	2023-08-19T00:00:00	2024-11-08T23:00:00	8	Radiación solar	0
42281	7	Sololá	701	Sololá	1	Sololá	8	Agosto	2023-08-20T00:00:00	2024-11-08T00:00:00	2	Temperatura media	14.5
42282	7	Sololá	701	Sololá	1	Sololá	8	Agosto	2023-08-20T00:00:00	2024-11-08T00:00:00	4	Temperatura máxima	14.8
42283	7	Sololá	701	Sololá	1	Sololá	8	Agosto	2023-08-20T00:00:00	2024-11-08T00:00:00	3	Temperatura mínima	14.5
42284	7	Sololá	701	Sololá	1	Sololá	8	Agosto	2023-08-20T00:00:00	2024-11-08T00:00:00	5	Humedad	94
42285	7	Sololá	701	Sololá	1	Sololá	8	Agosto	2023-08-20T00:00:00	2024-11-08T00:00:00	6	Velocidad del viento	0
42286	7	Sololá	701	Sololá	1	Sololá	8	Agosto	2023-08-20T00:00:00	2024-11-08T00:00:00	7	Dirección del viento	0
42287	7	Sololá	701	Sololá	1	Sololá	8	Agosto	2023-08-20T00:00:00	2024-11-08T00:00:00	1	Precipitación	0.6
42288	7	Sololá	701	Sololá	1	Sololá	8	Agosto	2023-08-20T00:00:00	2024-11-08T00:00:00	8	Radiación solar	0
42289	7	Sololá	701	Sololá	1	Sololá	8	Agosto	2023-08-20T00:00:00	2024-11-08T01:00:00	2	Temperatura media	14
42290	7	Sololá	701	Sololá	1	Sololá	8	Agosto	2023-08-20T00:00:00	2024-11-08T01:00:00	4	Temperatura máxima	14.2
42291	7	Sololá	701	Sololá	1	Sololá	8	Agosto	2023-08-20T00:00:00	2024-11-08T01:00:00	3	Temperatura mínima	13.9
42292	7	Sololá	701	Sololá	1	Sololá	8	Agosto	2023-08-20T00:00:00	2024-11-08T01:00:00	5	Humedad	94
42293	7	Sololá	701	Sololá	1	Sololá	8	Agosto	2023-08-20T00:00:00	2024-11-08T01:00:00	6	Velocidad del viento	0
42294	7	Sololá	701	Sololá	1	Sololá	8	Agosto	2023-08-20T00:00:00	2024-11-08T01:00:00	7	Dirección del viento	0
42295	7	Sololá	701	Sololá	1	Sololá	8	Agosto	2023-08-20T00:00:00	2024-11-08T01:00:00	1	Precipitación	1.6
42296	7	Sololá	701	Sololá	1	Sololá	8	Agosto	2023-08-20T00:00:00	2024-11-08T01:00:00	8	Radiación solar	0
42297	7	Sololá	701	Sololá	1	Sololá	8	Agosto	2023-08-20T00:00:00	2024-11-08T02:00:00	2	Temperatura media	14.3
42298	7	Sololá	701	Sololá	1	Sololá	8	Agosto	2023-08-20T00:00:00	2024-11-08T02:00:00	4	Temperatura máxima	14.3
42299	7	Sololá	701	Sololá	1	Sololá	8	Agosto	2023-08-20T00:00:00	2024-11-08T02:00:00	3	Temperatura mínima	13.9
42300	7	Sololá	701	Sololá	1	Sololá	8	Agosto	2023-08-20T00:00:00	2024-11-08T02:00:00	5	Humedad	89
42301	7	Sololá	701	Sololá	1	Sololá	8	Agosto	2023-08-20T00:00:00	2024-11-08T02:00:00	6	Velocidad del viento	8
42302	7	Sololá	701	Sololá	1	Sololá	8	Agosto	2023-08-20T00:00:00	2024-11-08T02:00:00	7	Dirección del viento	4.02
42303	7	Sololá	701	Sololá	1	Sololá	8	Agosto	2023-08-20T00:00:00	2024-11-08T02:00:00	1	Precipitación	1
42304	7	Sololá	701	Sololá	1	Sololá	8	Agosto	2023-08-20T00:00:00	2024-11-08T02:00:00	8	Radiación solar	0
42305	7	Sololá	701	Sololá	1	Sololá	8	Agosto	2023-08-20T00:00:00	2024-11-08T03:00:00	2	Temperatura media	14.3
42306	7	Sololá	701	Sololá	1	Sololá	8	Agosto	2023-08-20T00:00:00	2024-11-08T03:00:00	4	Temperatura máxima	14.3
42307	7	Sololá	701	Sololá	1	Sololá	8	Agosto	2023-08-20T00:00:00	2024-11-08T03:00:00	3	Temperatura mínima	14.1
42308	7	Sololá	701	Sololá	1	Sololá	8	Agosto	2023-08-20T00:00:00	2024-11-08T03:00:00	5	Humedad	87
42309	7	Sololá	701	Sololá	1	Sololá	8	Agosto	2023-08-20T00:00:00	2024-11-08T03:00:00	6	Velocidad del viento	8
42310	7	Sololá	701	Sololá	1	Sololá	8	Agosto	2023-08-20T00:00:00	2024-11-08T03:00:00	7	Dirección del viento	4.02
42311	7	Sololá	701	Sololá	1	Sololá	8	Agosto	2023-08-20T00:00:00	2024-11-08T03:00:00	1	Precipitación	0
42312	7	Sololá	701	Sololá	1	Sololá	8	Agosto	2023-08-20T00:00:00	2024-11-08T03:00:00	8	Radiación solar	0
42313	7	Sololá	701	Sololá	1	Sololá	8	Agosto	2023-08-20T00:00:00	2024-11-08T04:00:00	2	Temperatura media	14.8
42314	7	Sololá	701	Sololá	1	Sololá	8	Agosto	2023-08-20T00:00:00	2024-11-08T04:00:00	4	Temperatura máxima	14.8
42315	7	Sololá	701	Sololá	1	Sololá	8	Agosto	2023-08-20T00:00:00	2024-11-08T04:00:00	3	Temperatura mínima	14
42316	7	Sololá	701	Sololá	1	Sololá	8	Agosto	2023-08-20T00:00:00	2024-11-08T04:00:00	5	Humedad	83
42317	7	Sololá	701	Sololá	1	Sololá	8	Agosto	2023-08-20T00:00:00	2024-11-08T04:00:00	6	Velocidad del viento	11.3
42318	7	Sololá	701	Sololá	1	Sololá	8	Agosto	2023-08-20T00:00:00	2024-11-08T04:00:00	7	Dirección del viento	5.63
42319	7	Sololá	701	Sololá	1	Sololá	8	Agosto	2023-08-20T00:00:00	2024-11-08T04:00:00	1	Precipitación	0
42320	7	Sololá	701	Sololá	1	Sololá	8	Agosto	2023-08-20T00:00:00	2024-11-08T04:00:00	8	Radiación solar	0
42321	7	Sololá	701	Sololá	1	Sololá	8	Agosto	2023-08-20T00:00:00	2024-11-08T05:00:00	2	Temperatura media	13.9
42322	7	Sololá	701	Sololá	1	Sololá	8	Agosto	2023-08-20T00:00:00	2024-11-08T05:00:00	4	Temperatura máxima	14.1
42323	7	Sololá	701	Sololá	1	Sololá	8	Agosto	2023-08-20T00:00:00	2024-11-08T05:00:00	3	Temperatura mínima	13.8
42324	7	Sololá	701	Sololá	1	Sololá	8	Agosto	2023-08-20T00:00:00	2024-11-08T05:00:00	5	Humedad	86
42325	7	Sololá	701	Sololá	1	Sololá	8	Agosto	2023-08-20T00:00:00	2024-11-08T05:00:00	6	Velocidad del viento	6.4
42326	7	Sololá	701	Sololá	1	Sololá	8	Agosto	2023-08-20T00:00:00	2024-11-08T05:00:00	7	Dirección del viento	3.22
42327	7	Sololá	701	Sololá	1	Sololá	8	Agosto	2023-08-20T00:00:00	2024-11-08T05:00:00	1	Precipitación	0
42328	7	Sololá	701	Sololá	1	Sololá	8	Agosto	2023-08-20T00:00:00	2024-11-08T05:00:00	8	Radiación solar	0
42329	7	Sololá	701	Sololá	1	Sololá	8	Agosto	2023-08-20T00:00:00	2024-11-08T06:00:00	2	Temperatura media	13.6
42330	7	Sololá	701	Sololá	1	Sololá	8	Agosto	2023-08-20T00:00:00	2024-11-08T06:00:00	4	Temperatura máxima	13.8
42331	7	Sololá	701	Sololá	1	Sololá	8	Agosto	2023-08-20T00:00:00	2024-11-08T06:00:00	3	Temperatura mínima	13.5
42332	7	Sololá	701	Sololá	1	Sololá	8	Agosto	2023-08-20T00:00:00	2024-11-08T06:00:00	5	Humedad	88
42333	7	Sololá	701	Sololá	1	Sololá	8	Agosto	2023-08-20T00:00:00	2024-11-08T06:00:00	6	Velocidad del viento	1.6
42334	7	Sololá	701	Sololá	1	Sololá	8	Agosto	2023-08-20T00:00:00	2024-11-08T06:00:00	7	Dirección del viento	0.8
42335	7	Sololá	701	Sololá	1	Sololá	8	Agosto	2023-08-20T00:00:00	2024-11-08T06:00:00	1	Precipitación	0
42336	7	Sololá	701	Sololá	1	Sololá	8	Agosto	2023-08-20T00:00:00	2024-11-08T06:00:00	8	Radiación solar	0
42337	7	Sololá	701	Sololá	1	Sololá	8	Agosto	2023-08-20T00:00:00	2024-11-08T07:00:00	2	Temperatura media	13.8
42338	7	Sololá	701	Sololá	1	Sololá	8	Agosto	2023-08-20T00:00:00	2024-11-08T07:00:00	4	Temperatura máxima	13.9
42339	7	Sololá	701	Sololá	1	Sololá	8	Agosto	2023-08-20T00:00:00	2024-11-08T07:00:00	3	Temperatura mínima	13.8
42340	7	Sololá	701	Sololá	1	Sololá	8	Agosto	2023-08-20T00:00:00	2024-11-08T07:00:00	5	Humedad	88
42341	7	Sololá	701	Sololá	1	Sololá	8	Agosto	2023-08-20T00:00:00	2024-11-08T07:00:00	6	Velocidad del viento	0
42342	7	Sololá	701	Sololá	1	Sololá	8	Agosto	2023-08-20T00:00:00	2024-11-08T07:00:00	7	Dirección del viento	0
42343	7	Sololá	701	Sololá	1	Sololá	8	Agosto	2023-08-20T00:00:00	2024-11-08T07:00:00	1	Precipitación	0
42344	7	Sololá	701	Sololá	1	Sololá	8	Agosto	2023-08-20T00:00:00	2024-11-08T07:00:00	8	Radiación solar	13
42345	7	Sololá	701	Sololá	1	Sololá	8	Agosto	2023-08-20T00:00:00	2024-11-08T08:00:00	2	Temperatura media	15.6
42346	7	Sololá	701	Sololá	1	Sololá	8	Agosto	2023-08-20T00:00:00	2024-11-08T08:00:00	4	Temperatura máxima	15.7
42347	7	Sololá	701	Sololá	1	Sololá	8	Agosto	2023-08-20T00:00:00	2024-11-08T08:00:00	3	Temperatura mínima	14.2
42348	7	Sololá	701	Sololá	1	Sololá	8	Agosto	2023-08-20T00:00:00	2024-11-08T08:00:00	5	Humedad	85
42349	7	Sololá	701	Sololá	1	Sololá	8	Agosto	2023-08-20T00:00:00	2024-11-08T08:00:00	6	Velocidad del viento	6.4
42350	7	Sololá	701	Sololá	1	Sololá	8	Agosto	2023-08-20T00:00:00	2024-11-08T08:00:00	7	Dirección del viento	3.22
42351	7	Sololá	701	Sololá	1	Sololá	8	Agosto	2023-08-20T00:00:00	2024-11-08T08:00:00	1	Precipitación	0
42352	7	Sololá	701	Sololá	1	Sololá	8	Agosto	2023-08-20T00:00:00	2024-11-08T08:00:00	8	Radiación solar	89
42353	7	Sololá	701	Sololá	1	Sololá	8	Agosto	2023-08-20T00:00:00	2024-11-08T09:00:00	2	Temperatura media	17.7
42354	7	Sololá	701	Sololá	1	Sololá	8	Agosto	2023-08-20T00:00:00	2024-11-08T09:00:00	4	Temperatura máxima	17.7
42355	7	Sololá	701	Sololá	1	Sololá	8	Agosto	2023-08-20T00:00:00	2024-11-08T09:00:00	3	Temperatura mínima	16.8
42356	7	Sololá	701	Sololá	1	Sololá	8	Agosto	2023-08-20T00:00:00	2024-11-08T09:00:00	5	Humedad	77
42357	7	Sololá	701	Sololá	1	Sololá	8	Agosto	2023-08-20T00:00:00	2024-11-08T09:00:00	6	Velocidad del viento	1.6
42358	7	Sololá	701	Sololá	1	Sololá	8	Agosto	2023-08-20T00:00:00	2024-11-08T09:00:00	7	Dirección del viento	0.8
42359	7	Sololá	701	Sololá	1	Sololá	8	Agosto	2023-08-20T00:00:00	2024-11-08T09:00:00	1	Precipitación	0
42360	7	Sololá	701	Sololá	1	Sololá	8	Agosto	2023-08-20T00:00:00	2024-11-08T09:00:00	8	Radiación solar	583
42361	7	Sololá	701	Sololá	1	Sololá	8	Agosto	2023-08-20T00:00:00	2024-11-08T10:00:00	2	Temperatura media	17.9
42362	7	Sololá	701	Sololá	1	Sololá	8	Agosto	2023-08-20T00:00:00	2024-11-08T10:00:00	4	Temperatura máxima	18.5
42363	7	Sololá	701	Sololá	1	Sololá	8	Agosto	2023-08-20T00:00:00	2024-11-08T10:00:00	3	Temperatura mínima	17.7
42364	7	Sololá	701	Sololá	1	Sololá	8	Agosto	2023-08-20T00:00:00	2024-11-08T10:00:00	5	Humedad	84
42365	7	Sololá	701	Sololá	1	Sololá	8	Agosto	2023-08-20T00:00:00	2024-11-08T10:00:00	6	Velocidad del viento	4.8
42366	7	Sololá	701	Sololá	1	Sololá	8	Agosto	2023-08-20T00:00:00	2024-11-08T10:00:00	7	Dirección del viento	2.41
42367	7	Sololá	701	Sololá	1	Sololá	8	Agosto	2023-08-20T00:00:00	2024-11-08T10:00:00	1	Precipitación	0
42368	7	Sololá	701	Sololá	1	Sololá	8	Agosto	2023-08-20T00:00:00	2024-11-08T10:00:00	8	Radiación solar	787
42369	7	Sololá	701	Sololá	1	Sololá	8	Agosto	2023-08-20T00:00:00	2024-11-08T11:00:00	2	Temperatura media	17.4
42370	7	Sololá	701	Sololá	1	Sololá	8	Agosto	2023-08-20T00:00:00	2024-11-08T11:00:00	4	Temperatura máxima	17.4
42371	7	Sololá	701	Sololá	1	Sololá	8	Agosto	2023-08-20T00:00:00	2024-11-08T11:00:00	3	Temperatura mínima	16.6
42372	7	Sololá	701	Sololá	1	Sololá	8	Agosto	2023-08-20T00:00:00	2024-11-08T11:00:00	5	Humedad	86
42373	7	Sololá	701	Sololá	1	Sololá	8	Agosto	2023-08-20T00:00:00	2024-11-08T11:00:00	6	Velocidad del viento	4.8
42374	7	Sololá	701	Sololá	1	Sololá	8	Agosto	2023-08-20T00:00:00	2024-11-08T11:00:00	7	Dirección del viento	2.41
42375	7	Sololá	701	Sololá	1	Sololá	8	Agosto	2023-08-20T00:00:00	2024-11-08T11:00:00	1	Precipitación	0
42376	7	Sololá	701	Sololá	1	Sololá	8	Agosto	2023-08-20T00:00:00	2024-11-08T11:00:00	8	Radiación solar	958
42377	7	Sololá	701	Sololá	1	Sololá	8	Agosto	2023-08-20T00:00:00	2024-11-08T12:00:00	2	Temperatura media	18.3
42378	7	Sololá	701	Sololá	1	Sololá	8	Agosto	2023-08-20T00:00:00	2024-11-08T12:00:00	4	Temperatura máxima	18.3
42379	7	Sololá	701	Sololá	1	Sololá	8	Agosto	2023-08-20T00:00:00	2024-11-08T12:00:00	3	Temperatura mínima	17.2
42380	7	Sololá	701	Sololá	1	Sololá	8	Agosto	2023-08-20T00:00:00	2024-11-08T12:00:00	5	Humedad	85
42381	7	Sololá	701	Sololá	1	Sololá	8	Agosto	2023-08-20T00:00:00	2024-11-08T12:00:00	6	Velocidad del viento	3.2
42382	7	Sololá	701	Sololá	1	Sololá	8	Agosto	2023-08-20T00:00:00	2024-11-08T12:00:00	7	Dirección del viento	1.61
42383	7	Sololá	701	Sololá	1	Sololá	8	Agosto	2023-08-20T00:00:00	2024-11-08T12:00:00	1	Precipitación	0
42384	7	Sololá	701	Sololá	1	Sololá	8	Agosto	2023-08-20T00:00:00	2024-11-08T12:00:00	8	Radiación solar	691
42385	7	Sololá	701	Sololá	1	Sololá	8	Agosto	2023-08-20T00:00:00	2024-11-08T13:00:00	2	Temperatura media	18.8
42386	7	Sololá	701	Sololá	1	Sololá	8	Agosto	2023-08-20T00:00:00	2024-11-08T13:00:00	4	Temperatura máxima	18.9
42387	7	Sololá	701	Sololá	1	Sololá	8	Agosto	2023-08-20T00:00:00	2024-11-08T13:00:00	3	Temperatura mínima	17.2
42388	7	Sololá	701	Sololá	1	Sololá	8	Agosto	2023-08-20T00:00:00	2024-11-08T13:00:00	5	Humedad	84
42389	7	Sololá	701	Sololá	1	Sololá	8	Agosto	2023-08-20T00:00:00	2024-11-08T13:00:00	6	Velocidad del viento	4.8
42390	7	Sololá	701	Sololá	1	Sololá	8	Agosto	2023-08-20T00:00:00	2024-11-08T13:00:00	7	Dirección del viento	2.41
42391	7	Sololá	701	Sololá	1	Sololá	8	Agosto	2023-08-20T00:00:00	2024-11-08T13:00:00	1	Precipitación	0
42392	7	Sololá	701	Sololá	1	Sololá	8	Agosto	2023-08-20T00:00:00	2024-11-08T13:00:00	8	Radiación solar	240
42393	7	Sololá	701	Sololá	1	Sololá	8	Agosto	2023-08-20T00:00:00	2024-11-08T14:00:00	2	Temperatura media	18.1
42394	7	Sololá	701	Sololá	1	Sololá	8	Agosto	2023-08-20T00:00:00	2024-11-08T14:00:00	4	Temperatura máxima	18.4
42395	7	Sololá	701	Sololá	1	Sololá	8	Agosto	2023-08-20T00:00:00	2024-11-08T14:00:00	3	Temperatura mínima	18.1
42396	7	Sololá	701	Sololá	1	Sololá	8	Agosto	2023-08-20T00:00:00	2024-11-08T14:00:00	5	Humedad	86
42397	7	Sololá	701	Sololá	1	Sololá	8	Agosto	2023-08-20T00:00:00	2024-11-08T14:00:00	6	Velocidad del viento	4.8
42398	7	Sololá	701	Sololá	1	Sololá	8	Agosto	2023-08-20T00:00:00	2024-11-08T14:00:00	7	Dirección del viento	2.41
42399	7	Sololá	701	Sololá	1	Sololá	8	Agosto	2023-08-20T00:00:00	2024-11-08T14:00:00	1	Precipitación	0
42400	7	Sololá	701	Sololá	1	Sololá	8	Agosto	2023-08-20T00:00:00	2024-11-08T14:00:00	8	Radiación solar	209
42401	7	Sololá	701	Sololá	1	Sololá	8	Agosto	2023-08-20T00:00:00	2024-11-08T15:00:00	2	Temperatura media	18.9
42402	7	Sololá	701	Sololá	1	Sololá	8	Agosto	2023-08-20T00:00:00	2024-11-08T15:00:00	4	Temperatura máxima	19
42403	7	Sololá	701	Sololá	1	Sololá	8	Agosto	2023-08-20T00:00:00	2024-11-08T15:00:00	3	Temperatura mínima	18.2
42404	7	Sololá	701	Sololá	1	Sololá	8	Agosto	2023-08-20T00:00:00	2024-11-08T15:00:00	5	Humedad	82
42405	7	Sololá	701	Sololá	1	Sololá	8	Agosto	2023-08-20T00:00:00	2024-11-08T15:00:00	6	Velocidad del viento	6.4
42406	7	Sololá	701	Sololá	1	Sololá	8	Agosto	2023-08-20T00:00:00	2024-11-08T15:00:00	7	Dirección del viento	3.22
42407	7	Sololá	701	Sololá	1	Sololá	8	Agosto	2023-08-20T00:00:00	2024-11-08T15:00:00	1	Precipitación	0
42408	7	Sololá	701	Sololá	1	Sololá	8	Agosto	2023-08-20T00:00:00	2024-11-08T15:00:00	8	Radiación solar	124
42409	7	Sololá	701	Sololá	1	Sololá	8	Agosto	2023-08-20T00:00:00	2024-11-08T16:00:00	2	Temperatura media	16.8
42410	7	Sololá	701	Sololá	1	Sololá	8	Agosto	2023-08-20T00:00:00	2024-11-08T16:00:00	4	Temperatura máxima	18.3
42411	7	Sololá	701	Sololá	1	Sololá	8	Agosto	2023-08-20T00:00:00	2024-11-08T16:00:00	3	Temperatura mínima	16.8
42412	7	Sololá	701	Sololá	1	Sololá	8	Agosto	2023-08-20T00:00:00	2024-11-08T16:00:00	5	Humedad	92
42413	7	Sololá	701	Sololá	1	Sololá	8	Agosto	2023-08-20T00:00:00	2024-11-08T16:00:00	6	Velocidad del viento	4.8
42414	7	Sololá	701	Sololá	1	Sololá	8	Agosto	2023-08-20T00:00:00	2024-11-08T16:00:00	7	Dirección del viento	2.41
42415	7	Sololá	701	Sololá	1	Sololá	8	Agosto	2023-08-20T00:00:00	2024-11-08T16:00:00	1	Precipitación	0
42416	7	Sololá	701	Sololá	1	Sololá	8	Agosto	2023-08-20T00:00:00	2024-11-08T16:00:00	8	Radiación solar	116
42417	7	Sololá	701	Sololá	1	Sololá	8	Agosto	2023-08-20T00:00:00	2024-11-08T17:00:00	2	Temperatura media	16
42418	7	Sololá	701	Sololá	1	Sololá	8	Agosto	2023-08-20T00:00:00	2024-11-08T17:00:00	4	Temperatura máxima	16.6
42419	7	Sololá	701	Sololá	1	Sololá	8	Agosto	2023-08-20T00:00:00	2024-11-08T17:00:00	3	Temperatura mínima	15.9
42420	7	Sololá	701	Sololá	1	Sololá	8	Agosto	2023-08-20T00:00:00	2024-11-08T17:00:00	5	Humedad	95
42421	7	Sololá	701	Sololá	1	Sololá	8	Agosto	2023-08-20T00:00:00	2024-11-08T17:00:00	6	Velocidad del viento	6.4
42422	7	Sololá	701	Sololá	1	Sololá	8	Agosto	2023-08-20T00:00:00	2024-11-08T17:00:00	7	Dirección del viento	3.22
42423	7	Sololá	701	Sololá	1	Sololá	8	Agosto	2023-08-20T00:00:00	2024-11-08T17:00:00	1	Precipitación	1
42424	7	Sololá	701	Sololá	1	Sololá	8	Agosto	2023-08-20T00:00:00	2024-11-08T17:00:00	8	Radiación solar	26
42425	7	Sololá	701	Sololá	1	Sololá	8	Agosto	2023-08-20T00:00:00	2024-11-08T18:00:00	2	Temperatura media	14.9
42426	7	Sololá	701	Sololá	1	Sololá	8	Agosto	2023-08-20T00:00:00	2024-11-08T18:00:00	4	Temperatura máxima	15.8
42427	7	Sololá	701	Sololá	1	Sololá	8	Agosto	2023-08-20T00:00:00	2024-11-08T18:00:00	3	Temperatura mínima	14.9
42428	7	Sololá	701	Sololá	1	Sololá	8	Agosto	2023-08-20T00:00:00	2024-11-08T18:00:00	5	Humedad	92
42429	7	Sololá	701	Sololá	1	Sololá	8	Agosto	2023-08-20T00:00:00	2024-11-08T18:00:00	6	Velocidad del viento	1.6
42430	7	Sololá	701	Sololá	1	Sololá	8	Agosto	2023-08-20T00:00:00	2024-11-08T18:00:00	7	Dirección del viento	0.8
42431	7	Sololá	701	Sololá	1	Sololá	8	Agosto	2023-08-20T00:00:00	2024-11-08T18:00:00	1	Precipitación	7.4
42432	7	Sololá	701	Sololá	1	Sololá	8	Agosto	2023-08-20T00:00:00	2024-11-08T18:00:00	8	Radiación solar	4
42433	7	Sololá	701	Sololá	1	Sololá	8	Agosto	2023-08-20T00:00:00	2024-11-08T19:00:00	2	Temperatura media	15
42434	7	Sololá	701	Sololá	1	Sololá	8	Agosto	2023-08-20T00:00:00	2024-11-08T19:00:00	4	Temperatura máxima	15.1
42435	7	Sololá	701	Sololá	1	Sololá	8	Agosto	2023-08-20T00:00:00	2024-11-08T19:00:00	3	Temperatura mínima	14.3
42436	7	Sololá	701	Sololá	1	Sololá	8	Agosto	2023-08-20T00:00:00	2024-11-08T19:00:00	5	Humedad	95
42437	7	Sololá	701	Sololá	1	Sololá	8	Agosto	2023-08-20T00:00:00	2024-11-08T19:00:00	6	Velocidad del viento	1.6
42438	7	Sololá	701	Sololá	1	Sololá	8	Agosto	2023-08-20T00:00:00	2024-11-08T19:00:00	7	Dirección del viento	0.8
42439	7	Sololá	701	Sololá	1	Sololá	8	Agosto	2023-08-20T00:00:00	2024-11-08T19:00:00	1	Precipitación	0.6
42440	7	Sololá	701	Sololá	1	Sololá	8	Agosto	2023-08-20T00:00:00	2024-11-08T19:00:00	8	Radiación solar	0
42441	7	Sololá	701	Sololá	1	Sololá	8	Agosto	2023-08-20T00:00:00	2024-11-08T20:00:00	2	Temperatura media	19.6
42442	7	Sololá	701	Sololá	1	Sololá	8	Agosto	2023-08-20T00:00:00	2024-11-08T20:00:00	4	Temperatura máxima	19.6
42443	7	Sololá	701	Sololá	1	Sololá	8	Agosto	2023-08-20T00:00:00	2024-11-08T20:00:00	3	Temperatura mínima	19.5
42444	7	Sololá	701	Sololá	1	Sololá	8	Agosto	2023-08-20T00:00:00	2024-11-08T20:00:00	5	Humedad	73
42445	7	Sololá	701	Sololá	1	Sololá	8	Agosto	2023-08-20T00:00:00	2024-11-08T20:00:00	6	Velocidad del viento	0
42446	7	Sololá	701	Sololá	1	Sololá	8	Agosto	2023-08-20T00:00:00	2024-11-08T20:00:00	7	Dirección del viento	0
42447	7	Sololá	701	Sololá	1	Sololá	8	Agosto	2023-08-20T00:00:00	2024-11-08T20:00:00	1	Precipitación	0
42448	7	Sololá	701	Sololá	1	Sololá	8	Agosto	2023-08-20T00:00:00	2024-11-08T20:00:00	8	Radiación solar	0
42449	7	Sololá	701	Sololá	1	Sololá	8	Agosto	2023-08-20T00:00:00	2024-11-08T21:00:00	2	Temperatura media	17.1
42450	7	Sololá	701	Sololá	1	Sololá	8	Agosto	2023-08-20T00:00:00	2024-11-08T21:00:00	4	Temperatura máxima	19.4
42451	7	Sololá	701	Sololá	1	Sololá	8	Agosto	2023-08-20T00:00:00	2024-11-08T21:00:00	3	Temperatura mínima	17.1
42452	7	Sololá	701	Sololá	1	Sololá	8	Agosto	2023-08-20T00:00:00	2024-11-08T21:00:00	5	Humedad	80
42453	7	Sololá	701	Sololá	1	Sololá	8	Agosto	2023-08-20T00:00:00	2024-11-08T21:00:00	6	Velocidad del viento	0
42454	7	Sololá	701	Sololá	1	Sololá	8	Agosto	2023-08-20T00:00:00	2024-11-08T21:00:00	7	Dirección del viento	0
42455	7	Sololá	701	Sololá	1	Sololá	8	Agosto	2023-08-20T00:00:00	2024-11-08T21:00:00	1	Precipitación	0
42456	7	Sololá	701	Sololá	1	Sololá	8	Agosto	2023-08-20T00:00:00	2024-11-08T21:00:00	8	Radiación solar	0
42457	7	Sololá	701	Sololá	1	Sololá	8	Agosto	2023-08-20T00:00:00	2024-11-08T22:00:00	2	Temperatura media	16.4
42458	7	Sololá	701	Sololá	1	Sololá	8	Agosto	2023-08-20T00:00:00	2024-11-08T22:00:00	4	Temperatura máxima	17.1
42459	7	Sololá	701	Sololá	1	Sololá	8	Agosto	2023-08-20T00:00:00	2024-11-08T22:00:00	3	Temperatura mínima	16.4
42460	7	Sololá	701	Sololá	1	Sololá	8	Agosto	2023-08-20T00:00:00	2024-11-08T22:00:00	5	Humedad	81
42461	7	Sololá	701	Sololá	1	Sololá	8	Agosto	2023-08-20T00:00:00	2024-11-08T22:00:00	6	Velocidad del viento	0
42462	7	Sololá	701	Sololá	1	Sololá	8	Agosto	2023-08-20T00:00:00	2024-11-08T22:00:00	7	Dirección del viento	0
42463	7	Sololá	701	Sololá	1	Sololá	8	Agosto	2023-08-20T00:00:00	2024-11-08T22:00:00	1	Precipitación	0
42464	7	Sololá	701	Sololá	1	Sololá	8	Agosto	2023-08-20T00:00:00	2024-11-08T22:00:00	8	Radiación solar	0
42465	7	Sololá	701	Sololá	1	Sololá	8	Agosto	2023-08-20T00:00:00	2024-11-08T23:00:00	2	Temperatura media	16.1
42466	7	Sololá	701	Sololá	1	Sololá	8	Agosto	2023-08-20T00:00:00	2024-11-08T23:00:00	4	Temperatura máxima	16.4
42467	7	Sololá	701	Sololá	1	Sololá	8	Agosto	2023-08-20T00:00:00	2024-11-08T23:00:00	3	Temperatura mínima	16.1
42468	7	Sololá	701	Sololá	1	Sololá	8	Agosto	2023-08-20T00:00:00	2024-11-08T23:00:00	5	Humedad	82
42469	7	Sololá	701	Sololá	1	Sololá	8	Agosto	2023-08-20T00:00:00	2024-11-08T23:00:00	6	Velocidad del viento	0
42470	7	Sololá	701	Sololá	1	Sololá	8	Agosto	2023-08-20T00:00:00	2024-11-08T23:00:00	7	Dirección del viento	0
42471	7	Sololá	701	Sololá	1	Sololá	8	Agosto	2023-08-20T00:00:00	2024-11-08T23:00:00	1	Precipitación	0
42472	7	Sololá	701	Sololá	1	Sololá	8	Agosto	2023-08-20T00:00:00	2024-11-08T23:00:00	8	Radiación solar	0
42473	7	Sololá	701	Sololá	1	Sololá	8	Agosto	2023-08-21T00:00:00	2024-11-08T00:00:00	2	Temperatura media	15.3
42474	7	Sololá	701	Sololá	1	Sololá	8	Agosto	2023-08-21T00:00:00	2024-11-08T00:00:00	4	Temperatura máxima	16.1
42475	7	Sololá	701	Sololá	1	Sololá	8	Agosto	2023-08-21T00:00:00	2024-11-08T00:00:00	3	Temperatura mínima	15.3
42476	7	Sololá	701	Sololá	1	Sololá	8	Agosto	2023-08-21T00:00:00	2024-11-08T00:00:00	5	Humedad	84
42477	7	Sololá	701	Sololá	1	Sololá	8	Agosto	2023-08-21T00:00:00	2024-11-08T00:00:00	6	Velocidad del viento	0
42478	7	Sololá	701	Sololá	1	Sololá	8	Agosto	2023-08-21T00:00:00	2024-11-08T00:00:00	7	Dirección del viento	0
42479	7	Sololá	701	Sololá	1	Sololá	8	Agosto	2023-08-21T00:00:00	2024-11-08T00:00:00	1	Precipitación	0
42480	7	Sololá	701	Sololá	1	Sololá	8	Agosto	2023-08-21T00:00:00	2024-11-08T00:00:00	8	Radiación solar	0
42481	7	Sololá	701	Sololá	1	Sololá	8	Agosto	2023-08-21T00:00:00	2024-11-08T01:00:00	2	Temperatura media	15.2
42482	7	Sololá	701	Sololá	1	Sololá	8	Agosto	2023-08-21T00:00:00	2024-11-08T01:00:00	4	Temperatura máxima	15.3
42483	7	Sololá	701	Sololá	1	Sololá	8	Agosto	2023-08-21T00:00:00	2024-11-08T01:00:00	3	Temperatura mínima	15.1
42484	7	Sololá	701	Sololá	1	Sololá	8	Agosto	2023-08-21T00:00:00	2024-11-08T01:00:00	5	Humedad	84
42485	7	Sololá	701	Sololá	1	Sololá	8	Agosto	2023-08-21T00:00:00	2024-11-08T01:00:00	6	Velocidad del viento	0
42486	7	Sololá	701	Sololá	1	Sololá	8	Agosto	2023-08-21T00:00:00	2024-11-08T01:00:00	7	Dirección del viento	0
42487	7	Sololá	701	Sololá	1	Sololá	8	Agosto	2023-08-21T00:00:00	2024-11-08T01:00:00	1	Precipitación	0
42488	7	Sololá	701	Sololá	1	Sololá	8	Agosto	2023-08-21T00:00:00	2024-11-08T01:00:00	8	Radiación solar	0
42489	7	Sololá	701	Sololá	1	Sololá	8	Agosto	2023-08-21T00:00:00	2024-11-08T02:00:00	2	Temperatura media	15.1
42490	7	Sololá	701	Sololá	1	Sololá	8	Agosto	2023-08-21T00:00:00	2024-11-08T02:00:00	4	Temperatura máxima	15.2
42491	7	Sololá	701	Sololá	1	Sololá	8	Agosto	2023-08-21T00:00:00	2024-11-08T02:00:00	3	Temperatura mínima	15.1
42492	7	Sololá	701	Sololá	1	Sololá	8	Agosto	2023-08-21T00:00:00	2024-11-08T02:00:00	5	Humedad	84
42493	7	Sololá	701	Sololá	1	Sololá	8	Agosto	2023-08-21T00:00:00	2024-11-08T02:00:00	6	Velocidad del viento	0
42494	7	Sololá	701	Sololá	1	Sololá	8	Agosto	2023-08-21T00:00:00	2024-11-08T02:00:00	7	Dirección del viento	0
42495	7	Sololá	701	Sololá	1	Sololá	8	Agosto	2023-08-21T00:00:00	2024-11-08T02:00:00	1	Precipitación	0
42496	7	Sololá	701	Sololá	1	Sololá	8	Agosto	2023-08-21T00:00:00	2024-11-08T02:00:00	8	Radiación solar	0
42497	7	Sololá	701	Sololá	1	Sololá	8	Agosto	2023-08-21T00:00:00	2024-11-08T03:00:00	2	Temperatura media	14.8
42498	7	Sololá	701	Sololá	1	Sololá	8	Agosto	2023-08-21T00:00:00	2024-11-08T03:00:00	4	Temperatura máxima	15.1
42499	7	Sololá	701	Sololá	1	Sololá	8	Agosto	2023-08-21T00:00:00	2024-11-08T03:00:00	3	Temperatura mínima	14.8
42500	7	Sololá	701	Sololá	1	Sololá	8	Agosto	2023-08-21T00:00:00	2024-11-08T03:00:00	5	Humedad	84
42501	7	Sololá	701	Sololá	1	Sololá	8	Agosto	2023-08-21T00:00:00	2024-11-08T03:00:00	6	Velocidad del viento	0
42502	7	Sololá	701	Sololá	1	Sololá	8	Agosto	2023-08-21T00:00:00	2024-11-08T03:00:00	7	Dirección del viento	0
42503	7	Sololá	701	Sololá	1	Sololá	8	Agosto	2023-08-21T00:00:00	2024-11-08T03:00:00	1	Precipitación	0
42504	7	Sololá	701	Sololá	1	Sololá	8	Agosto	2023-08-21T00:00:00	2024-11-08T03:00:00	8	Radiación solar	0
42505	7	Sololá	701	Sololá	1	Sololá	8	Agosto	2023-08-21T00:00:00	2024-11-08T04:00:00	2	Temperatura media	14.6
42506	7	Sololá	701	Sololá	1	Sololá	8	Agosto	2023-08-21T00:00:00	2024-11-08T04:00:00	4	Temperatura máxima	14.8
42507	7	Sololá	701	Sololá	1	Sololá	8	Agosto	2023-08-21T00:00:00	2024-11-08T04:00:00	3	Temperatura mínima	14.5
42508	7	Sololá	701	Sololá	1	Sololá	8	Agosto	2023-08-21T00:00:00	2024-11-08T04:00:00	5	Humedad	84
42509	7	Sololá	701	Sololá	1	Sololá	8	Agosto	2023-08-21T00:00:00	2024-11-08T04:00:00	6	Velocidad del viento	0
42510	7	Sololá	701	Sololá	1	Sololá	8	Agosto	2023-08-21T00:00:00	2024-11-08T04:00:00	7	Dirección del viento	0
42511	7	Sololá	701	Sololá	1	Sololá	8	Agosto	2023-08-21T00:00:00	2024-11-08T04:00:00	1	Precipitación	0
42512	7	Sololá	701	Sololá	1	Sololá	8	Agosto	2023-08-21T00:00:00	2024-11-08T04:00:00	8	Radiación solar	0
42513	7	Sololá	701	Sololá	1	Sololá	8	Agosto	2023-08-21T00:00:00	2024-11-08T05:00:00	2	Temperatura media	14.5
42514	7	Sololá	701	Sololá	1	Sololá	8	Agosto	2023-08-21T00:00:00	2024-11-08T05:00:00	4	Temperatura máxima	14.6
42515	7	Sololá	701	Sololá	1	Sololá	8	Agosto	2023-08-21T00:00:00	2024-11-08T05:00:00	3	Temperatura mínima	14.4
42516	7	Sololá	701	Sololá	1	Sololá	8	Agosto	2023-08-21T00:00:00	2024-11-08T05:00:00	5	Humedad	83
42517	7	Sololá	701	Sololá	1	Sololá	8	Agosto	2023-08-21T00:00:00	2024-11-08T05:00:00	6	Velocidad del viento	0
42518	7	Sololá	701	Sololá	1	Sololá	8	Agosto	2023-08-21T00:00:00	2024-11-08T05:00:00	7	Dirección del viento	0
42519	7	Sololá	701	Sololá	1	Sololá	8	Agosto	2023-08-21T00:00:00	2024-11-08T05:00:00	1	Precipitación	0
42520	7	Sololá	701	Sololá	1	Sololá	8	Agosto	2023-08-21T00:00:00	2024-11-08T05:00:00	8	Radiación solar	0
42521	7	Sololá	701	Sololá	1	Sololá	8	Agosto	2023-08-21T00:00:00	2024-11-08T06:00:00	2	Temperatura media	14.7
42522	7	Sololá	701	Sololá	1	Sololá	8	Agosto	2023-08-21T00:00:00	2024-11-08T06:00:00	4	Temperatura máxima	14.7
42523	7	Sololá	701	Sololá	1	Sololá	8	Agosto	2023-08-21T00:00:00	2024-11-08T06:00:00	3	Temperatura mínima	14.5
42524	7	Sololá	701	Sololá	1	Sololá	8	Agosto	2023-08-21T00:00:00	2024-11-08T06:00:00	5	Humedad	81
42525	7	Sololá	701	Sololá	1	Sololá	8	Agosto	2023-08-21T00:00:00	2024-11-08T06:00:00	6	Velocidad del viento	0
42526	7	Sololá	701	Sololá	1	Sololá	8	Agosto	2023-08-21T00:00:00	2024-11-08T06:00:00	7	Dirección del viento	0
42527	7	Sololá	701	Sololá	1	Sololá	8	Agosto	2023-08-21T00:00:00	2024-11-08T06:00:00	1	Precipitación	0
42528	7	Sololá	701	Sololá	1	Sololá	8	Agosto	2023-08-21T00:00:00	2024-11-08T06:00:00	8	Radiación solar	0
42529	7	Sololá	701	Sololá	1	Sololá	8	Agosto	2023-08-21T00:00:00	2024-11-08T07:00:00	2	Temperatura media	14.8
42530	7	Sololá	701	Sololá	1	Sololá	8	Agosto	2023-08-21T00:00:00	2024-11-08T07:00:00	4	Temperatura máxima	14.9
42531	7	Sololá	701	Sololá	1	Sololá	8	Agosto	2023-08-21T00:00:00	2024-11-08T07:00:00	3	Temperatura mínima	14.7
42532	7	Sololá	701	Sololá	1	Sololá	8	Agosto	2023-08-21T00:00:00	2024-11-08T07:00:00	5	Humedad	82
42533	7	Sololá	701	Sololá	1	Sololá	8	Agosto	2023-08-21T00:00:00	2024-11-08T07:00:00	6	Velocidad del viento	0
42534	7	Sololá	701	Sololá	1	Sololá	8	Agosto	2023-08-21T00:00:00	2024-11-08T07:00:00	7	Dirección del viento	0
42535	7	Sololá	701	Sololá	1	Sololá	8	Agosto	2023-08-21T00:00:00	2024-11-08T07:00:00	1	Precipitación	0
42536	7	Sololá	701	Sololá	1	Sololá	8	Agosto	2023-08-21T00:00:00	2024-11-08T07:00:00	8	Radiación solar	20
42537	7	Sololá	701	Sololá	1	Sololá	8	Agosto	2023-08-21T00:00:00	2024-11-08T08:00:00	2	Temperatura media	16.1
42538	7	Sololá	701	Sololá	1	Sololá	8	Agosto	2023-08-21T00:00:00	2024-11-08T08:00:00	4	Temperatura máxima	16.1
42539	7	Sololá	701	Sololá	1	Sololá	8	Agosto	2023-08-21T00:00:00	2024-11-08T08:00:00	3	Temperatura mínima	14.8
42540	7	Sololá	701	Sololá	1	Sololá	8	Agosto	2023-08-21T00:00:00	2024-11-08T08:00:00	5	Humedad	82
42541	7	Sololá	701	Sololá	1	Sololá	8	Agosto	2023-08-21T00:00:00	2024-11-08T08:00:00	6	Velocidad del viento	0
42542	7	Sololá	701	Sololá	1	Sololá	8	Agosto	2023-08-21T00:00:00	2024-11-08T08:00:00	7	Dirección del viento	0
42543	7	Sololá	701	Sololá	1	Sololá	8	Agosto	2023-08-21T00:00:00	2024-11-08T08:00:00	1	Precipitación	0
42544	7	Sololá	701	Sololá	1	Sololá	8	Agosto	2023-08-21T00:00:00	2024-11-08T08:00:00	8	Radiación solar	109
42545	7	Sololá	701	Sololá	1	Sololá	8	Agosto	2023-08-21T00:00:00	2024-11-08T09:00:00	2	Temperatura media	18.8
42546	7	Sololá	701	Sololá	1	Sololá	8	Agosto	2023-08-21T00:00:00	2024-11-08T09:00:00	4	Temperatura máxima	18.8
42547	7	Sololá	701	Sololá	1	Sololá	8	Agosto	2023-08-21T00:00:00	2024-11-08T09:00:00	3	Temperatura mínima	16.2
42548	7	Sololá	701	Sololá	1	Sololá	8	Agosto	2023-08-21T00:00:00	2024-11-08T09:00:00	5	Humedad	75
42549	7	Sololá	701	Sololá	1	Sololá	8	Agosto	2023-08-21T00:00:00	2024-11-08T09:00:00	6	Velocidad del viento	0
42550	7	Sololá	701	Sololá	1	Sololá	8	Agosto	2023-08-21T00:00:00	2024-11-08T09:00:00	7	Dirección del viento	0
42551	7	Sololá	701	Sololá	1	Sololá	8	Agosto	2023-08-21T00:00:00	2024-11-08T09:00:00	1	Precipitación	0
42552	7	Sololá	701	Sololá	1	Sololá	8	Agosto	2023-08-21T00:00:00	2024-11-08T09:00:00	8	Radiación solar	271
42553	7	Sololá	701	Sololá	1	Sololá	8	Agosto	2023-08-21T00:00:00	2024-11-08T10:00:00	2	Temperatura media	20.3
42554	7	Sololá	701	Sololá	1	Sololá	8	Agosto	2023-08-21T00:00:00	2024-11-08T10:00:00	4	Temperatura máxima	20.3
42555	7	Sololá	701	Sololá	1	Sololá	8	Agosto	2023-08-21T00:00:00	2024-11-08T10:00:00	3	Temperatura mínima	18.6
42556	7	Sololá	701	Sololá	1	Sololá	8	Agosto	2023-08-21T00:00:00	2024-11-08T10:00:00	5	Humedad	72
42557	7	Sololá	701	Sololá	1	Sololá	8	Agosto	2023-08-21T00:00:00	2024-11-08T10:00:00	6	Velocidad del viento	0
42558	7	Sololá	701	Sololá	1	Sololá	8	Agosto	2023-08-21T00:00:00	2024-11-08T10:00:00	7	Dirección del viento	0
42559	7	Sololá	701	Sololá	1	Sololá	8	Agosto	2023-08-21T00:00:00	2024-11-08T10:00:00	1	Precipitación	0
42560	7	Sololá	701	Sololá	1	Sololá	8	Agosto	2023-08-21T00:00:00	2024-11-08T10:00:00	8	Radiación solar	364
42561	7	Sololá	701	Sololá	1	Sololá	8	Agosto	2023-08-21T00:00:00	2024-11-08T11:00:00	2	Temperatura media	22.6
42562	7	Sololá	701	Sololá	1	Sololá	8	Agosto	2023-08-21T00:00:00	2024-11-08T11:00:00	4	Temperatura máxima	22.6
42563	7	Sololá	701	Sololá	1	Sololá	8	Agosto	2023-08-21T00:00:00	2024-11-08T11:00:00	3	Temperatura mínima	20.3
42564	7	Sololá	701	Sololá	1	Sololá	8	Agosto	2023-08-21T00:00:00	2024-11-08T11:00:00	5	Humedad	62
42565	7	Sololá	701	Sololá	1	Sololá	8	Agosto	2023-08-21T00:00:00	2024-11-08T11:00:00	6	Velocidad del viento	0
42566	7	Sololá	701	Sololá	1	Sololá	8	Agosto	2023-08-21T00:00:00	2024-11-08T11:00:00	7	Dirección del viento	0
42567	7	Sololá	701	Sololá	1	Sololá	8	Agosto	2023-08-21T00:00:00	2024-11-08T11:00:00	1	Precipitación	0
42568	7	Sololá	701	Sololá	1	Sololá	8	Agosto	2023-08-21T00:00:00	2024-11-08T11:00:00	8	Radiación solar	476
42569	7	Sololá	701	Sololá	1	Sololá	8	Agosto	2023-08-21T00:00:00	2024-11-08T12:00:00	2	Temperatura media	24
42570	7	Sololá	701	Sololá	1	Sololá	8	Agosto	2023-08-21T00:00:00	2024-11-08T12:00:00	4	Temperatura máxima	24.2
42571	7	Sololá	701	Sololá	1	Sololá	8	Agosto	2023-08-21T00:00:00	2024-11-08T12:00:00	3	Temperatura mínima	22.6
42572	7	Sololá	701	Sololá	1	Sololá	8	Agosto	2023-08-21T00:00:00	2024-11-08T12:00:00	5	Humedad	62
42573	7	Sololá	701	Sololá	1	Sololá	8	Agosto	2023-08-21T00:00:00	2024-11-08T12:00:00	6	Velocidad del viento	0
42574	7	Sololá	701	Sololá	1	Sololá	8	Agosto	2023-08-21T00:00:00	2024-11-08T12:00:00	7	Dirección del viento	0
42575	7	Sololá	701	Sololá	1	Sololá	8	Agosto	2023-08-21T00:00:00	2024-11-08T12:00:00	1	Precipitación	0
42576	7	Sololá	701	Sololá	1	Sololá	8	Agosto	2023-08-21T00:00:00	2024-11-08T12:00:00	8	Radiación solar	277
42577	7	Sololá	701	Sololá	1	Sololá	8	Agosto	2023-08-21T00:00:00	2024-11-08T13:00:00	2	Temperatura media	21.4
42578	7	Sololá	701	Sololá	1	Sololá	8	Agosto	2023-08-21T00:00:00	2024-11-08T13:00:00	4	Temperatura máxima	24
42579	7	Sololá	701	Sololá	1	Sololá	8	Agosto	2023-08-21T00:00:00	2024-11-08T13:00:00	3	Temperatura mínima	21.2
42580	7	Sololá	701	Sololá	1	Sololá	8	Agosto	2023-08-21T00:00:00	2024-11-08T13:00:00	5	Humedad	80
42581	7	Sololá	701	Sololá	1	Sololá	8	Agosto	2023-08-21T00:00:00	2024-11-08T13:00:00	6	Velocidad del viento	0
42582	7	Sololá	701	Sololá	1	Sololá	8	Agosto	2023-08-21T00:00:00	2024-11-08T13:00:00	7	Dirección del viento	0
42583	7	Sololá	701	Sololá	1	Sololá	8	Agosto	2023-08-21T00:00:00	2024-11-08T13:00:00	1	Precipitación	0
42584	7	Sololá	701	Sololá	1	Sololá	8	Agosto	2023-08-21T00:00:00	2024-11-08T13:00:00	8	Radiación solar	207
42585	7	Sololá	701	Sololá	1	Sololá	8	Agosto	2023-08-21T00:00:00	2024-11-08T14:00:00	2	Temperatura media	21.1
42586	7	Sololá	701	Sololá	1	Sololá	8	Agosto	2023-08-21T00:00:00	2024-11-08T14:00:00	4	Temperatura máxima	21.7
42587	7	Sololá	701	Sololá	1	Sololá	8	Agosto	2023-08-21T00:00:00	2024-11-08T14:00:00	3	Temperatura mínima	20.9
42588	7	Sololá	701	Sololá	1	Sololá	8	Agosto	2023-08-21T00:00:00	2024-11-08T14:00:00	5	Humedad	82
42589	7	Sololá	701	Sololá	1	Sololá	8	Agosto	2023-08-21T00:00:00	2024-11-08T14:00:00	6	Velocidad del viento	0
42590	7	Sololá	701	Sololá	1	Sololá	8	Agosto	2023-08-21T00:00:00	2024-11-08T14:00:00	7	Dirección del viento	0
42591	7	Sololá	701	Sololá	1	Sololá	8	Agosto	2023-08-21T00:00:00	2024-11-08T14:00:00	1	Precipitación	0
42592	7	Sololá	701	Sololá	1	Sololá	8	Agosto	2023-08-21T00:00:00	2024-11-08T14:00:00	8	Radiación solar	218
42593	7	Sololá	701	Sololá	1	Sololá	8	Agosto	2023-08-21T00:00:00	2024-11-08T15:00:00	2	Temperatura media	20.6
42594	7	Sololá	701	Sololá	1	Sololá	8	Agosto	2023-08-21T00:00:00	2024-11-08T15:00:00	4	Temperatura máxima	21.8
42595	7	Sololá	701	Sololá	1	Sololá	8	Agosto	2023-08-21T00:00:00	2024-11-08T15:00:00	3	Temperatura mínima	20.6
42596	7	Sololá	701	Sololá	1	Sololá	8	Agosto	2023-08-21T00:00:00	2024-11-08T15:00:00	5	Humedad	84
42597	7	Sololá	701	Sololá	1	Sololá	8	Agosto	2023-08-21T00:00:00	2024-11-08T15:00:00	6	Velocidad del viento	0
42598	7	Sololá	701	Sololá	1	Sololá	8	Agosto	2023-08-21T00:00:00	2024-11-08T15:00:00	7	Dirección del viento	0
42599	7	Sololá	701	Sololá	1	Sololá	8	Agosto	2023-08-21T00:00:00	2024-11-08T15:00:00	1	Precipitación	0
42600	7	Sololá	701	Sololá	1	Sololá	8	Agosto	2023-08-21T00:00:00	2024-11-08T15:00:00	8	Radiación solar	176
42601	7	Sololá	701	Sololá	1	Sololá	8	Agosto	2023-08-21T00:00:00	2024-11-08T16:00:00	2	Temperatura media	18.2
42602	7	Sololá	701	Sololá	1	Sololá	8	Agosto	2023-08-21T00:00:00	2024-11-08T16:00:00	4	Temperatura máxima	20.6
42603	7	Sololá	701	Sololá	1	Sololá	8	Agosto	2023-08-21T00:00:00	2024-11-08T16:00:00	3	Temperatura mínima	18.2
42604	7	Sololá	701	Sololá	1	Sololá	8	Agosto	2023-08-21T00:00:00	2024-11-08T16:00:00	5	Humedad	92
42605	7	Sololá	701	Sololá	1	Sololá	8	Agosto	2023-08-21T00:00:00	2024-11-08T16:00:00	6	Velocidad del viento	0
42606	7	Sololá	701	Sololá	1	Sololá	8	Agosto	2023-08-21T00:00:00	2024-11-08T16:00:00	7	Dirección del viento	0
42607	7	Sololá	701	Sololá	1	Sololá	8	Agosto	2023-08-21T00:00:00	2024-11-08T16:00:00	1	Precipitación	0
42608	7	Sololá	701	Sololá	1	Sololá	8	Agosto	2023-08-21T00:00:00	2024-11-08T16:00:00	8	Radiación solar	50
42609	7	Sololá	701	Sololá	1	Sololá	8	Agosto	2023-08-21T00:00:00	2024-11-08T17:00:00	2	Temperatura media	16.5
42610	7	Sololá	701	Sololá	1	Sololá	8	Agosto	2023-08-21T00:00:00	2024-11-08T17:00:00	4	Temperatura máxima	18.2
42611	7	Sololá	701	Sololá	1	Sololá	8	Agosto	2023-08-21T00:00:00	2024-11-08T17:00:00	3	Temperatura mínima	16.5
42612	7	Sololá	701	Sololá	1	Sololá	8	Agosto	2023-08-21T00:00:00	2024-11-08T17:00:00	5	Humedad	95
42613	7	Sololá	701	Sololá	1	Sololá	8	Agosto	2023-08-21T00:00:00	2024-11-08T17:00:00	6	Velocidad del viento	0
42614	7	Sololá	701	Sololá	1	Sololá	8	Agosto	2023-08-21T00:00:00	2024-11-08T17:00:00	7	Dirección del viento	0
42615	7	Sololá	701	Sololá	1	Sololá	8	Agosto	2023-08-21T00:00:00	2024-11-08T17:00:00	1	Precipitación	28
42616	7	Sololá	701	Sololá	1	Sololá	8	Agosto	2023-08-21T00:00:00	2024-11-08T17:00:00	8	Radiación solar	0
42617	7	Sololá	701	Sololá	1	Sololá	8	Agosto	2023-08-21T00:00:00	2024-11-08T18:00:00	2	Temperatura media	16.1
42618	7	Sololá	701	Sololá	1	Sololá	8	Agosto	2023-08-21T00:00:00	2024-11-08T18:00:00	4	Temperatura máxima	16.5
42619	7	Sololá	701	Sololá	1	Sololá	8	Agosto	2023-08-21T00:00:00	2024-11-08T18:00:00	3	Temperatura mínima	16
42620	7	Sololá	701	Sololá	1	Sololá	8	Agosto	2023-08-21T00:00:00	2024-11-08T18:00:00	5	Humedad	95
42621	7	Sololá	701	Sololá	1	Sololá	8	Agosto	2023-08-21T00:00:00	2024-11-08T18:00:00	6	Velocidad del viento	0
42622	7	Sololá	701	Sololá	1	Sololá	8	Agosto	2023-08-21T00:00:00	2024-11-08T18:00:00	7	Dirección del viento	0
42623	7	Sololá	701	Sololá	1	Sololá	8	Agosto	2023-08-21T00:00:00	2024-11-08T18:00:00	1	Precipitación	0.2
42624	7	Sololá	701	Sololá	1	Sololá	8	Agosto	2023-08-21T00:00:00	2024-11-08T18:00:00	8	Radiación solar	0
42625	7	Sololá	701	Sololá	1	Sololá	8	Agosto	2023-08-21T00:00:00	2024-11-08T19:00:00	2	Temperatura media	15.2
42626	7	Sololá	701	Sololá	1	Sololá	8	Agosto	2023-08-21T00:00:00	2024-11-08T19:00:00	4	Temperatura máxima	16.1
42627	7	Sololá	701	Sololá	1	Sololá	8	Agosto	2023-08-21T00:00:00	2024-11-08T19:00:00	3	Temperatura mínima	15.2
42628	7	Sololá	701	Sololá	1	Sololá	8	Agosto	2023-08-21T00:00:00	2024-11-08T19:00:00	5	Humedad	95
42629	7	Sololá	701	Sololá	1	Sololá	8	Agosto	2023-08-21T00:00:00	2024-11-08T19:00:00	6	Velocidad del viento	0
42630	7	Sololá	701	Sololá	1	Sololá	8	Agosto	2023-08-21T00:00:00	2024-11-08T19:00:00	7	Dirección del viento	0
42631	7	Sololá	701	Sololá	1	Sololá	8	Agosto	2023-08-21T00:00:00	2024-11-08T19:00:00	1	Precipitación	0
42632	7	Sololá	701	Sololá	1	Sololá	8	Agosto	2023-08-21T00:00:00	2024-11-08T19:00:00	8	Radiación solar	0
42633	7	Sololá	701	Sololá	1	Sololá	8	Agosto	2023-08-21T00:00:00	2024-11-08T20:00:00	2	Temperatura media	15.1
42634	7	Sololá	701	Sololá	1	Sololá	8	Agosto	2023-08-21T00:00:00	2024-11-08T20:00:00	4	Temperatura máxima	15.2
42635	7	Sololá	701	Sololá	1	Sololá	8	Agosto	2023-08-21T00:00:00	2024-11-08T20:00:00	3	Temperatura mínima	15.1
42636	7	Sololá	701	Sololá	1	Sololá	8	Agosto	2023-08-21T00:00:00	2024-11-08T20:00:00	5	Humedad	96
42637	7	Sololá	701	Sololá	1	Sololá	8	Agosto	2023-08-21T00:00:00	2024-11-08T20:00:00	6	Velocidad del viento	0
42638	7	Sololá	701	Sololá	1	Sololá	8	Agosto	2023-08-21T00:00:00	2024-11-08T20:00:00	7	Dirección del viento	0
42639	7	Sololá	701	Sololá	1	Sololá	8	Agosto	2023-08-21T00:00:00	2024-11-08T20:00:00	1	Precipitación	0
42640	7	Sololá	701	Sololá	1	Sololá	8	Agosto	2023-08-21T00:00:00	2024-11-08T20:00:00	8	Radiación solar	0
42641	7	Sololá	701	Sololá	1	Sololá	8	Agosto	2023-08-21T00:00:00	2024-11-08T21:00:00	2	Temperatura media	14.9
42642	7	Sololá	701	Sololá	1	Sololá	8	Agosto	2023-08-21T00:00:00	2024-11-08T21:00:00	4	Temperatura máxima	15.1
42643	7	Sololá	701	Sololá	1	Sololá	8	Agosto	2023-08-21T00:00:00	2024-11-08T21:00:00	3	Temperatura mínima	14.9
42644	7	Sololá	701	Sololá	1	Sololá	8	Agosto	2023-08-21T00:00:00	2024-11-08T21:00:00	5	Humedad	96
42645	7	Sololá	701	Sololá	1	Sololá	8	Agosto	2023-08-21T00:00:00	2024-11-08T21:00:00	6	Velocidad del viento	0
42646	7	Sololá	701	Sololá	1	Sololá	8	Agosto	2023-08-21T00:00:00	2024-11-08T21:00:00	7	Dirección del viento	0
42647	7	Sololá	701	Sololá	1	Sololá	8	Agosto	2023-08-21T00:00:00	2024-11-08T21:00:00	1	Precipitación	0
42648	7	Sololá	701	Sololá	1	Sololá	8	Agosto	2023-08-21T00:00:00	2024-11-08T21:00:00	8	Radiación solar	0
42649	7	Sololá	701	Sololá	1	Sololá	8	Agosto	2023-08-21T00:00:00	2024-11-08T22:00:00	2	Temperatura media	14.6
42650	7	Sololá	701	Sololá	1	Sololá	8	Agosto	2023-08-21T00:00:00	2024-11-08T22:00:00	4	Temperatura máxima	14.9
42651	7	Sololá	701	Sololá	1	Sololá	8	Agosto	2023-08-21T00:00:00	2024-11-08T22:00:00	3	Temperatura mínima	14.6
42652	7	Sololá	701	Sololá	1	Sololá	8	Agosto	2023-08-21T00:00:00	2024-11-08T22:00:00	5	Humedad	95
42653	7	Sololá	701	Sololá	1	Sololá	8	Agosto	2023-08-21T00:00:00	2024-11-08T22:00:00	6	Velocidad del viento	0
42654	7	Sololá	701	Sololá	1	Sololá	8	Agosto	2023-08-21T00:00:00	2024-11-08T22:00:00	7	Dirección del viento	0
42655	7	Sololá	701	Sololá	1	Sololá	8	Agosto	2023-08-21T00:00:00	2024-11-08T22:00:00	1	Precipitación	0
42656	7	Sololá	701	Sololá	1	Sololá	8	Agosto	2023-08-21T00:00:00	2024-11-08T22:00:00	8	Radiación solar	0
42657	7	Sololá	701	Sololá	1	Sololá	8	Agosto	2023-08-21T00:00:00	2024-11-08T23:00:00	2	Temperatura media	14.3
42658	7	Sololá	701	Sololá	1	Sololá	8	Agosto	2023-08-21T00:00:00	2024-11-08T23:00:00	4	Temperatura máxima	14.6
42659	7	Sololá	701	Sololá	1	Sololá	8	Agosto	2023-08-21T00:00:00	2024-11-08T23:00:00	3	Temperatura mínima	14.2
42660	7	Sololá	701	Sololá	1	Sololá	8	Agosto	2023-08-21T00:00:00	2024-11-08T23:00:00	5	Humedad	95
42661	7	Sololá	701	Sololá	1	Sololá	8	Agosto	2023-08-21T00:00:00	2024-11-08T23:00:00	6	Velocidad del viento	0
42662	7	Sololá	701	Sololá	1	Sololá	8	Agosto	2023-08-21T00:00:00	2024-11-08T23:00:00	7	Dirección del viento	0
42663	7	Sololá	701	Sololá	1	Sololá	8	Agosto	2023-08-21T00:00:00	2024-11-08T23:00:00	1	Precipitación	0
42664	7	Sololá	701	Sololá	1	Sololá	8	Agosto	2023-08-21T00:00:00	2024-11-08T23:00:00	8	Radiación solar	0
42665	7	Sololá	701	Sololá	1	Sololá	8	Agosto	2023-08-22T00:00:00	2024-11-08T00:00:00	2	Temperatura media	14.3
42666	7	Sololá	701	Sololá	1	Sololá	8	Agosto	2023-08-22T00:00:00	2024-11-08T00:00:00	4	Temperatura máxima	14.3
42667	7	Sololá	701	Sololá	1	Sololá	8	Agosto	2023-08-22T00:00:00	2024-11-08T00:00:00	3	Temperatura mínima	14.2
42668	7	Sololá	701	Sololá	1	Sololá	8	Agosto	2023-08-22T00:00:00	2024-11-08T00:00:00	5	Humedad	96
42669	7	Sololá	701	Sololá	1	Sololá	8	Agosto	2023-08-22T00:00:00	2024-11-08T00:00:00	6	Velocidad del viento	0
42670	7	Sololá	701	Sololá	1	Sololá	8	Agosto	2023-08-22T00:00:00	2024-11-08T00:00:00	7	Dirección del viento	0
42671	7	Sololá	701	Sololá	1	Sololá	8	Agosto	2023-08-22T00:00:00	2024-11-08T00:00:00	1	Precipitación	0
42672	7	Sololá	701	Sololá	1	Sololá	8	Agosto	2023-08-22T00:00:00	2024-11-08T00:00:00	8	Radiación solar	0
42673	7	Sololá	701	Sololá	1	Sololá	8	Agosto	2023-08-22T00:00:00	2024-11-08T01:00:00	2	Temperatura media	13.8
42674	7	Sololá	701	Sololá	1	Sololá	8	Agosto	2023-08-22T00:00:00	2024-11-08T01:00:00	4	Temperatura máxima	14.3
42675	7	Sololá	701	Sololá	1	Sololá	8	Agosto	2023-08-22T00:00:00	2024-11-08T01:00:00	3	Temperatura mínima	13.8
42676	7	Sololá	701	Sololá	1	Sololá	8	Agosto	2023-08-22T00:00:00	2024-11-08T01:00:00	5	Humedad	95
42677	7	Sololá	701	Sololá	1	Sololá	8	Agosto	2023-08-22T00:00:00	2024-11-08T01:00:00	6	Velocidad del viento	0
42678	7	Sololá	701	Sololá	1	Sololá	8	Agosto	2023-08-22T00:00:00	2024-11-08T01:00:00	7	Dirección del viento	0
42679	7	Sololá	701	Sololá	1	Sololá	8	Agosto	2023-08-22T00:00:00	2024-11-08T01:00:00	1	Precipitación	0
42680	7	Sololá	701	Sololá	1	Sololá	8	Agosto	2023-08-22T00:00:00	2024-11-08T01:00:00	8	Radiación solar	0
42681	7	Sololá	701	Sololá	1	Sololá	8	Agosto	2023-08-22T00:00:00	2024-11-08T02:00:00	2	Temperatura media	13.4
42682	7	Sololá	701	Sololá	1	Sololá	8	Agosto	2023-08-22T00:00:00	2024-11-08T02:00:00	4	Temperatura máxima	13.8
42683	7	Sololá	701	Sololá	1	Sololá	8	Agosto	2023-08-22T00:00:00	2024-11-08T02:00:00	3	Temperatura mínima	13.4
42684	7	Sololá	701	Sololá	1	Sololá	8	Agosto	2023-08-22T00:00:00	2024-11-08T02:00:00	5	Humedad	95
42685	7	Sololá	701	Sololá	1	Sololá	8	Agosto	2023-08-22T00:00:00	2024-11-08T02:00:00	6	Velocidad del viento	0
42686	7	Sololá	701	Sololá	1	Sololá	8	Agosto	2023-08-22T00:00:00	2024-11-08T02:00:00	7	Dirección del viento	0
42687	7	Sololá	701	Sololá	1	Sololá	8	Agosto	2023-08-22T00:00:00	2024-11-08T02:00:00	1	Precipitación	0
42688	7	Sololá	701	Sololá	1	Sololá	8	Agosto	2023-08-22T00:00:00	2024-11-08T02:00:00	8	Radiación solar	0
42689	7	Sololá	701	Sololá	1	Sololá	8	Agosto	2023-08-22T00:00:00	2024-11-08T03:00:00	2	Temperatura media	13.3
42690	7	Sololá	701	Sololá	1	Sololá	8	Agosto	2023-08-22T00:00:00	2024-11-08T03:00:00	4	Temperatura máxima	13.5
42691	7	Sololá	701	Sololá	1	Sololá	8	Agosto	2023-08-22T00:00:00	2024-11-08T03:00:00	3	Temperatura mínima	13.3
42692	7	Sololá	701	Sololá	1	Sololá	8	Agosto	2023-08-22T00:00:00	2024-11-08T03:00:00	5	Humedad	93
42693	7	Sololá	701	Sololá	1	Sololá	8	Agosto	2023-08-22T00:00:00	2024-11-08T03:00:00	6	Velocidad del viento	0
42694	7	Sololá	701	Sololá	1	Sololá	8	Agosto	2023-08-22T00:00:00	2024-11-08T03:00:00	7	Dirección del viento	0
42695	7	Sololá	701	Sololá	1	Sololá	8	Agosto	2023-08-22T00:00:00	2024-11-08T03:00:00	1	Precipitación	0
42696	7	Sololá	701	Sololá	1	Sololá	8	Agosto	2023-08-22T00:00:00	2024-11-08T03:00:00	8	Radiación solar	0
42697	7	Sololá	701	Sololá	1	Sololá	8	Agosto	2023-08-22T00:00:00	2024-11-08T04:00:00	2	Temperatura media	13.1
42698	7	Sololá	701	Sololá	1	Sololá	8	Agosto	2023-08-22T00:00:00	2024-11-08T04:00:00	4	Temperatura máxima	13.4
42699	7	Sololá	701	Sololá	1	Sololá	8	Agosto	2023-08-22T00:00:00	2024-11-08T04:00:00	3	Temperatura mínima	13.1
42700	7	Sololá	701	Sololá	1	Sololá	8	Agosto	2023-08-22T00:00:00	2024-11-08T04:00:00	5	Humedad	92
42701	7	Sololá	701	Sololá	1	Sololá	8	Agosto	2023-08-22T00:00:00	2024-11-08T04:00:00	6	Velocidad del viento	0
42702	7	Sololá	701	Sololá	1	Sololá	8	Agosto	2023-08-22T00:00:00	2024-11-08T04:00:00	7	Dirección del viento	0
42703	7	Sololá	701	Sololá	1	Sololá	8	Agosto	2023-08-22T00:00:00	2024-11-08T04:00:00	1	Precipitación	0
42704	7	Sololá	701	Sololá	1	Sololá	8	Agosto	2023-08-22T00:00:00	2024-11-08T04:00:00	8	Radiación solar	0
42705	7	Sololá	701	Sololá	1	Sololá	8	Agosto	2023-08-22T00:00:00	2024-11-08T05:00:00	2	Temperatura media	13.8
42706	7	Sololá	701	Sololá	1	Sololá	8	Agosto	2023-08-22T00:00:00	2024-11-08T05:00:00	4	Temperatura máxima	13.9
42707	7	Sololá	701	Sololá	1	Sololá	8	Agosto	2023-08-22T00:00:00	2024-11-08T05:00:00	3	Temperatura mínima	12.9
42708	7	Sololá	701	Sololá	1	Sololá	8	Agosto	2023-08-22T00:00:00	2024-11-08T05:00:00	5	Humedad	87
42709	7	Sololá	701	Sololá	1	Sololá	8	Agosto	2023-08-22T00:00:00	2024-11-08T05:00:00	6	Velocidad del viento	0
42710	7	Sololá	701	Sololá	1	Sololá	8	Agosto	2023-08-22T00:00:00	2024-11-08T05:00:00	7	Dirección del viento	0
42711	7	Sololá	701	Sololá	1	Sololá	8	Agosto	2023-08-22T00:00:00	2024-11-08T05:00:00	1	Precipitación	0
42712	7	Sololá	701	Sololá	1	Sololá	8	Agosto	2023-08-22T00:00:00	2024-11-08T05:00:00	8	Radiación solar	0
42713	7	Sololá	701	Sololá	1	Sololá	8	Agosto	2023-08-22T00:00:00	2024-11-08T06:00:00	2	Temperatura media	13.5
42714	7	Sololá	701	Sololá	1	Sololá	8	Agosto	2023-08-22T00:00:00	2024-11-08T06:00:00	4	Temperatura máxima	13.8
42715	7	Sololá	701	Sololá	1	Sololá	8	Agosto	2023-08-22T00:00:00	2024-11-08T06:00:00	3	Temperatura mínima	13.4
42716	7	Sololá	701	Sololá	1	Sololá	8	Agosto	2023-08-22T00:00:00	2024-11-08T06:00:00	5	Humedad	87
42717	7	Sololá	701	Sololá	1	Sololá	8	Agosto	2023-08-22T00:00:00	2024-11-08T06:00:00	6	Velocidad del viento	0
42718	7	Sololá	701	Sololá	1	Sololá	8	Agosto	2023-08-22T00:00:00	2024-11-08T06:00:00	7	Dirección del viento	0
42719	7	Sololá	701	Sololá	1	Sololá	8	Agosto	2023-08-22T00:00:00	2024-11-08T06:00:00	1	Precipitación	0
42720	7	Sololá	701	Sololá	1	Sololá	8	Agosto	2023-08-22T00:00:00	2024-11-08T06:00:00	8	Radiación solar	0
42721	7	Sololá	701	Sololá	1	Sololá	8	Agosto	2023-08-22T00:00:00	2024-11-08T07:00:00	2	Temperatura media	13.5
42722	7	Sololá	701	Sololá	1	Sololá	8	Agosto	2023-08-22T00:00:00	2024-11-08T07:00:00	4	Temperatura máxima	13.7
42723	7	Sololá	701	Sololá	1	Sololá	8	Agosto	2023-08-22T00:00:00	2024-11-08T07:00:00	3	Temperatura mínima	13.4
42724	7	Sololá	701	Sololá	1	Sololá	8	Agosto	2023-08-22T00:00:00	2024-11-08T07:00:00	5	Humedad	88
42725	7	Sololá	701	Sololá	1	Sololá	8	Agosto	2023-08-22T00:00:00	2024-11-08T07:00:00	6	Velocidad del viento	0
42726	7	Sololá	701	Sololá	1	Sololá	8	Agosto	2023-08-22T00:00:00	2024-11-08T07:00:00	7	Dirección del viento	0
42727	7	Sololá	701	Sololá	1	Sololá	8	Agosto	2023-08-22T00:00:00	2024-11-08T07:00:00	1	Precipitación	0
42728	7	Sololá	701	Sololá	1	Sololá	8	Agosto	2023-08-22T00:00:00	2024-11-08T07:00:00	8	Radiación solar	33
42729	7	Sololá	701	Sololá	1	Sololá	8	Agosto	2023-08-22T00:00:00	2024-11-08T08:00:00	2	Temperatura media	18.3
42730	7	Sololá	701	Sololá	1	Sololá	8	Agosto	2023-08-22T00:00:00	2024-11-08T08:00:00	4	Temperatura máxima	18.3
42731	7	Sololá	701	Sololá	1	Sololá	8	Agosto	2023-08-22T00:00:00	2024-11-08T08:00:00	3	Temperatura mínima	13.5
42732	7	Sololá	701	Sololá	1	Sololá	8	Agosto	2023-08-22T00:00:00	2024-11-08T08:00:00	5	Humedad	78
42733	7	Sololá	701	Sololá	1	Sololá	8	Agosto	2023-08-22T00:00:00	2024-11-08T08:00:00	6	Velocidad del viento	0
42734	7	Sololá	701	Sololá	1	Sololá	8	Agosto	2023-08-22T00:00:00	2024-11-08T08:00:00	7	Dirección del viento	0
42735	7	Sololá	701	Sololá	1	Sololá	8	Agosto	2023-08-22T00:00:00	2024-11-08T08:00:00	1	Precipitación	0
42736	7	Sololá	701	Sololá	1	Sololá	8	Agosto	2023-08-22T00:00:00	2024-11-08T08:00:00	8	Radiación solar	278
42737	7	Sololá	701	Sololá	1	Sololá	8	Agosto	2023-08-22T00:00:00	2024-11-08T09:00:00	2	Temperatura media	20.4
42738	7	Sololá	701	Sololá	1	Sololá	8	Agosto	2023-08-22T00:00:00	2024-11-08T09:00:00	4	Temperatura máxima	20.4
42739	7	Sololá	701	Sololá	1	Sololá	8	Agosto	2023-08-22T00:00:00	2024-11-08T09:00:00	3	Temperatura mínima	18.4
42740	7	Sololá	701	Sololá	1	Sololá	8	Agosto	2023-08-22T00:00:00	2024-11-08T09:00:00	5	Humedad	77
42741	7	Sololá	701	Sololá	1	Sololá	8	Agosto	2023-08-22T00:00:00	2024-11-08T09:00:00	6	Velocidad del viento	0
42742	7	Sololá	701	Sololá	1	Sololá	8	Agosto	2023-08-22T00:00:00	2024-11-08T09:00:00	7	Dirección del viento	0
42743	7	Sololá	701	Sololá	1	Sololá	8	Agosto	2023-08-22T00:00:00	2024-11-08T09:00:00	1	Precipitación	0
42744	7	Sololá	701	Sololá	1	Sololá	8	Agosto	2023-08-22T00:00:00	2024-11-08T09:00:00	8	Radiación solar	602
42745	7	Sololá	701	Sololá	1	Sololá	8	Agosto	2023-08-22T00:00:00	2024-11-08T10:00:00	2	Temperatura media	21.9
42746	7	Sololá	701	Sololá	1	Sololá	8	Agosto	2023-08-22T00:00:00	2024-11-08T10:00:00	4	Temperatura máxima	21.9
42747	7	Sololá	701	Sololá	1	Sololá	8	Agosto	2023-08-22T00:00:00	2024-11-08T10:00:00	3	Temperatura mínima	20.4
42748	7	Sololá	701	Sololá	1	Sololá	8	Agosto	2023-08-22T00:00:00	2024-11-08T10:00:00	5	Humedad	69
42749	7	Sololá	701	Sololá	1	Sololá	8	Agosto	2023-08-22T00:00:00	2024-11-08T10:00:00	6	Velocidad del viento	0
42750	7	Sololá	701	Sololá	1	Sololá	8	Agosto	2023-08-22T00:00:00	2024-11-08T10:00:00	7	Dirección del viento	0
42751	7	Sololá	701	Sololá	1	Sololá	8	Agosto	2023-08-22T00:00:00	2024-11-08T10:00:00	1	Precipitación	0
42752	7	Sololá	701	Sololá	1	Sololá	8	Agosto	2023-08-22T00:00:00	2024-11-08T10:00:00	8	Radiación solar	806
42753	7	Sololá	701	Sololá	1	Sololá	8	Agosto	2023-08-22T00:00:00	2024-11-08T11:00:00	2	Temperatura media	22
42754	7	Sololá	701	Sololá	1	Sololá	8	Agosto	2023-08-22T00:00:00	2024-11-08T11:00:00	4	Temperatura máxima	22.7
42755	7	Sololá	701	Sololá	1	Sololá	8	Agosto	2023-08-22T00:00:00	2024-11-08T11:00:00	3	Temperatura mínima	21.9
42756	7	Sololá	701	Sololá	1	Sololá	8	Agosto	2023-08-22T00:00:00	2024-11-08T11:00:00	5	Humedad	70
42757	7	Sololá	701	Sololá	1	Sololá	8	Agosto	2023-08-22T00:00:00	2024-11-08T11:00:00	6	Velocidad del viento	0
42758	7	Sololá	701	Sololá	1	Sololá	8	Agosto	2023-08-22T00:00:00	2024-11-08T11:00:00	7	Dirección del viento	0
42759	7	Sololá	701	Sololá	1	Sololá	8	Agosto	2023-08-22T00:00:00	2024-11-08T11:00:00	1	Precipitación	0
42760	7	Sololá	701	Sololá	1	Sololá	8	Agosto	2023-08-22T00:00:00	2024-11-08T11:00:00	8	Radiación solar	622
42761	7	Sololá	701	Sololá	1	Sololá	8	Agosto	2023-08-22T00:00:00	2024-11-08T12:00:00	2	Temperatura media	21.3
42762	7	Sololá	701	Sololá	1	Sololá	8	Agosto	2023-08-22T00:00:00	2024-11-08T12:00:00	4	Temperatura máxima	22.1
42763	7	Sololá	701	Sololá	1	Sololá	8	Agosto	2023-08-22T00:00:00	2024-11-08T12:00:00	3	Temperatura mínima	21.1
42764	7	Sololá	701	Sololá	1	Sololá	8	Agosto	2023-08-22T00:00:00	2024-11-08T12:00:00	5	Humedad	75
42765	7	Sololá	701	Sololá	1	Sololá	8	Agosto	2023-08-22T00:00:00	2024-11-08T12:00:00	6	Velocidad del viento	0
42766	7	Sololá	701	Sololá	1	Sololá	8	Agosto	2023-08-22T00:00:00	2024-11-08T12:00:00	7	Dirección del viento	0
42767	7	Sololá	701	Sololá	1	Sololá	8	Agosto	2023-08-22T00:00:00	2024-11-08T12:00:00	1	Precipitación	0
42768	7	Sololá	701	Sololá	1	Sololá	8	Agosto	2023-08-22T00:00:00	2024-11-08T12:00:00	8	Radiación solar	189
42769	7	Sololá	701	Sololá	1	Sololá	8	Agosto	2023-08-22T00:00:00	2024-11-08T13:00:00	2	Temperatura media	20.7
42770	7	Sololá	701	Sololá	1	Sololá	8	Agosto	2023-08-22T00:00:00	2024-11-08T13:00:00	4	Temperatura máxima	21.9
42771	7	Sololá	701	Sololá	1	Sololá	8	Agosto	2023-08-22T00:00:00	2024-11-08T13:00:00	3	Temperatura mínima	20.7
42772	7	Sololá	701	Sololá	1	Sololá	8	Agosto	2023-08-22T00:00:00	2024-11-08T13:00:00	5	Humedad	80
42773	7	Sololá	701	Sololá	1	Sololá	8	Agosto	2023-08-22T00:00:00	2024-11-08T13:00:00	6	Velocidad del viento	0
42774	7	Sololá	701	Sololá	1	Sololá	8	Agosto	2023-08-22T00:00:00	2024-11-08T13:00:00	7	Dirección del viento	0
42775	7	Sololá	701	Sololá	1	Sololá	8	Agosto	2023-08-22T00:00:00	2024-11-08T13:00:00	1	Precipitación	0
42776	7	Sololá	701	Sololá	1	Sololá	8	Agosto	2023-08-22T00:00:00	2024-11-08T13:00:00	8	Radiación solar	187
42777	7	Sololá	701	Sololá	1	Sololá	8	Agosto	2023-08-22T00:00:00	2024-11-08T14:00:00	2	Temperatura media	20.3
42778	7	Sololá	701	Sololá	1	Sololá	8	Agosto	2023-08-22T00:00:00	2024-11-08T14:00:00	4	Temperatura máxima	20.7
42779	7	Sololá	701	Sololá	1	Sololá	8	Agosto	2023-08-22T00:00:00	2024-11-08T14:00:00	3	Temperatura mínima	20.3
42780	7	Sololá	701	Sololá	1	Sololá	8	Agosto	2023-08-22T00:00:00	2024-11-08T14:00:00	5	Humedad	81
42781	7	Sololá	701	Sololá	1	Sololá	8	Agosto	2023-08-22T00:00:00	2024-11-08T14:00:00	6	Velocidad del viento	0
42782	7	Sololá	701	Sololá	1	Sololá	8	Agosto	2023-08-22T00:00:00	2024-11-08T14:00:00	7	Dirección del viento	0
42783	7	Sololá	701	Sololá	1	Sololá	8	Agosto	2023-08-22T00:00:00	2024-11-08T14:00:00	1	Precipitación	0
42784	7	Sololá	701	Sololá	1	Sololá	8	Agosto	2023-08-22T00:00:00	2024-11-08T14:00:00	8	Radiación solar	130
42785	7	Sololá	701	Sololá	1	Sololá	8	Agosto	2023-08-22T00:00:00	2024-11-08T15:00:00	2	Temperatura media	20.6
42786	7	Sololá	701	Sololá	1	Sololá	8	Agosto	2023-08-22T00:00:00	2024-11-08T15:00:00	4	Temperatura máxima	20.7
42787	7	Sololá	701	Sololá	1	Sololá	8	Agosto	2023-08-22T00:00:00	2024-11-08T15:00:00	3	Temperatura mínima	20.2
42788	7	Sololá	701	Sololá	1	Sololá	8	Agosto	2023-08-22T00:00:00	2024-11-08T15:00:00	5	Humedad	82
42789	7	Sololá	701	Sololá	1	Sololá	8	Agosto	2023-08-22T00:00:00	2024-11-08T15:00:00	6	Velocidad del viento	0
42790	7	Sololá	701	Sololá	1	Sololá	8	Agosto	2023-08-22T00:00:00	2024-11-08T15:00:00	7	Dirección del viento	0
42791	7	Sololá	701	Sololá	1	Sololá	8	Agosto	2023-08-22T00:00:00	2024-11-08T15:00:00	1	Precipitación	0
42792	7	Sololá	701	Sololá	1	Sololá	8	Agosto	2023-08-22T00:00:00	2024-11-08T15:00:00	8	Radiación solar	166
42793	7	Sololá	701	Sololá	1	Sololá	8	Agosto	2023-08-22T00:00:00	2024-11-08T16:00:00	2	Temperatura media	19.8
42794	7	Sololá	701	Sololá	1	Sololá	8	Agosto	2023-08-22T00:00:00	2024-11-08T16:00:00	4	Temperatura máxima	20.8
42795	7	Sololá	701	Sololá	1	Sololá	8	Agosto	2023-08-22T00:00:00	2024-11-08T16:00:00	3	Temperatura mínima	19.8
42796	7	Sololá	701	Sololá	1	Sololá	8	Agosto	2023-08-22T00:00:00	2024-11-08T16:00:00	5	Humedad	85
42797	7	Sololá	701	Sololá	1	Sololá	8	Agosto	2023-08-22T00:00:00	2024-11-08T16:00:00	6	Velocidad del viento	0
42798	7	Sololá	701	Sololá	1	Sololá	8	Agosto	2023-08-22T00:00:00	2024-11-08T16:00:00	7	Dirección del viento	0
42799	7	Sololá	701	Sololá	1	Sololá	8	Agosto	2023-08-22T00:00:00	2024-11-08T16:00:00	1	Precipitación	0
42800	7	Sololá	701	Sololá	1	Sololá	8	Agosto	2023-08-22T00:00:00	2024-11-08T16:00:00	8	Radiación solar	91
42801	7	Sololá	701	Sololá	1	Sololá	8	Agosto	2023-08-22T00:00:00	2024-11-08T17:00:00	2	Temperatura media	18.9
42802	7	Sololá	701	Sololá	1	Sololá	8	Agosto	2023-08-22T00:00:00	2024-11-08T17:00:00	4	Temperatura máxima	19.8
42803	7	Sololá	701	Sololá	1	Sololá	8	Agosto	2023-08-22T00:00:00	2024-11-08T17:00:00	3	Temperatura mínima	18.9
42804	7	Sololá	701	Sololá	1	Sololá	8	Agosto	2023-08-22T00:00:00	2024-11-08T17:00:00	5	Humedad	89
42805	7	Sololá	701	Sololá	1	Sololá	8	Agosto	2023-08-22T00:00:00	2024-11-08T17:00:00	6	Velocidad del viento	0
42806	7	Sololá	701	Sololá	1	Sololá	8	Agosto	2023-08-22T00:00:00	2024-11-08T17:00:00	7	Dirección del viento	0
42807	7	Sololá	701	Sololá	1	Sololá	8	Agosto	2023-08-22T00:00:00	2024-11-08T17:00:00	1	Precipitación	0
42808	7	Sololá	701	Sololá	1	Sololá	8	Agosto	2023-08-22T00:00:00	2024-11-08T17:00:00	8	Radiación solar	60
42809	7	Sololá	701	Sololá	1	Sololá	8	Agosto	2023-08-22T00:00:00	2024-11-08T18:00:00	2	Temperatura media	18.2
42810	7	Sololá	701	Sololá	1	Sololá	8	Agosto	2023-08-22T00:00:00	2024-11-08T18:00:00	4	Temperatura máxima	18.9
42811	7	Sololá	701	Sololá	1	Sololá	8	Agosto	2023-08-22T00:00:00	2024-11-08T18:00:00	3	Temperatura mínima	18.2
42812	7	Sololá	701	Sololá	1	Sololá	8	Agosto	2023-08-22T00:00:00	2024-11-08T18:00:00	5	Humedad	89
42813	7	Sololá	701	Sololá	1	Sololá	8	Agosto	2023-08-22T00:00:00	2024-11-08T18:00:00	6	Velocidad del viento	0
42814	7	Sololá	701	Sololá	1	Sololá	8	Agosto	2023-08-22T00:00:00	2024-11-08T18:00:00	7	Dirección del viento	0
42815	7	Sololá	701	Sololá	1	Sololá	8	Agosto	2023-08-22T00:00:00	2024-11-08T18:00:00	1	Precipitación	0
42816	7	Sololá	701	Sololá	1	Sololá	8	Agosto	2023-08-22T00:00:00	2024-11-08T18:00:00	8	Radiación solar	27
42817	7	Sololá	701	Sololá	1	Sololá	8	Agosto	2023-08-22T00:00:00	2024-11-08T19:00:00	2	Temperatura media	17.2
42818	7	Sololá	701	Sololá	1	Sololá	8	Agosto	2023-08-22T00:00:00	2024-11-08T19:00:00	4	Temperatura máxima	18.2
42819	7	Sololá	701	Sololá	1	Sololá	8	Agosto	2023-08-22T00:00:00	2024-11-08T19:00:00	3	Temperatura mínima	17.2
42820	7	Sololá	701	Sololá	1	Sololá	8	Agosto	2023-08-22T00:00:00	2024-11-08T19:00:00	5	Humedad	87
42821	7	Sololá	701	Sololá	1	Sololá	8	Agosto	2023-08-22T00:00:00	2024-11-08T19:00:00	6	Velocidad del viento	0
42822	7	Sololá	701	Sololá	1	Sololá	8	Agosto	2023-08-22T00:00:00	2024-11-08T19:00:00	7	Dirección del viento	0
42823	7	Sololá	701	Sololá	1	Sololá	8	Agosto	2023-08-22T00:00:00	2024-11-08T19:00:00	1	Precipitación	0
42824	7	Sololá	701	Sololá	1	Sololá	8	Agosto	2023-08-22T00:00:00	2024-11-08T19:00:00	8	Radiación solar	0
42825	7	Sololá	701	Sololá	1	Sololá	8	Agosto	2023-08-22T00:00:00	2024-11-08T20:00:00	2	Temperatura media	16.7
42826	7	Sololá	701	Sololá	1	Sololá	8	Agosto	2023-08-22T00:00:00	2024-11-08T20:00:00	4	Temperatura máxima	17.2
42827	7	Sololá	701	Sololá	1	Sololá	8	Agosto	2023-08-22T00:00:00	2024-11-08T20:00:00	3	Temperatura mínima	16.7
42828	7	Sololá	701	Sololá	1	Sololá	8	Agosto	2023-08-22T00:00:00	2024-11-08T20:00:00	5	Humedad	89
42829	7	Sololá	701	Sololá	1	Sololá	8	Agosto	2023-08-22T00:00:00	2024-11-08T20:00:00	6	Velocidad del viento	0
42830	7	Sololá	701	Sololá	1	Sololá	8	Agosto	2023-08-22T00:00:00	2024-11-08T20:00:00	7	Dirección del viento	0
42831	7	Sololá	701	Sololá	1	Sololá	8	Agosto	2023-08-22T00:00:00	2024-11-08T20:00:00	1	Precipitación	0
42832	7	Sololá	701	Sololá	1	Sololá	8	Agosto	2023-08-22T00:00:00	2024-11-08T20:00:00	8	Radiación solar	0
42833	7	Sololá	701	Sololá	1	Sololá	8	Agosto	2023-08-22T00:00:00	2024-11-08T21:00:00	2	Temperatura media	15.6
42834	7	Sololá	701	Sololá	1	Sololá	8	Agosto	2023-08-22T00:00:00	2024-11-08T21:00:00	4	Temperatura máxima	16.7
42835	7	Sololá	701	Sololá	1	Sololá	8	Agosto	2023-08-22T00:00:00	2024-11-08T21:00:00	3	Temperatura mínima	15.6
42836	7	Sololá	701	Sololá	1	Sololá	8	Agosto	2023-08-22T00:00:00	2024-11-08T21:00:00	5	Humedad	85
42837	7	Sololá	701	Sololá	1	Sololá	8	Agosto	2023-08-22T00:00:00	2024-11-08T21:00:00	6	Velocidad del viento	0
42838	7	Sololá	701	Sololá	1	Sololá	8	Agosto	2023-08-22T00:00:00	2024-11-08T21:00:00	7	Dirección del viento	0
42839	7	Sololá	701	Sololá	1	Sololá	8	Agosto	2023-08-22T00:00:00	2024-11-08T21:00:00	1	Precipitación	0
42840	7	Sololá	701	Sololá	1	Sololá	8	Agosto	2023-08-22T00:00:00	2024-11-08T21:00:00	8	Radiación solar	0
42841	7	Sololá	701	Sololá	1	Sololá	8	Agosto	2023-08-22T00:00:00	2024-11-08T22:00:00	2	Temperatura media	14.7
42842	7	Sololá	701	Sololá	1	Sololá	8	Agosto	2023-08-22T00:00:00	2024-11-08T22:00:00	4	Temperatura máxima	15.6
42843	7	Sololá	701	Sololá	1	Sololá	8	Agosto	2023-08-22T00:00:00	2024-11-08T22:00:00	3	Temperatura mínima	14.7
42844	7	Sololá	701	Sololá	1	Sololá	8	Agosto	2023-08-22T00:00:00	2024-11-08T22:00:00	5	Humedad	87
42845	7	Sololá	701	Sololá	1	Sololá	8	Agosto	2023-08-22T00:00:00	2024-11-08T22:00:00	6	Velocidad del viento	0
42846	7	Sololá	701	Sololá	1	Sololá	8	Agosto	2023-08-22T00:00:00	2024-11-08T22:00:00	7	Dirección del viento	0
42847	7	Sololá	701	Sololá	1	Sololá	8	Agosto	2023-08-22T00:00:00	2024-11-08T22:00:00	1	Precipitación	0
42848	7	Sololá	701	Sololá	1	Sololá	8	Agosto	2023-08-22T00:00:00	2024-11-08T22:00:00	8	Radiación solar	0
42849	7	Sololá	701	Sololá	1	Sololá	8	Agosto	2023-08-22T00:00:00	2024-11-08T23:00:00	2	Temperatura media	14.6
42850	7	Sololá	701	Sololá	1	Sololá	8	Agosto	2023-08-22T00:00:00	2024-11-08T23:00:00	4	Temperatura máxima	14.7
42851	7	Sololá	701	Sololá	1	Sololá	8	Agosto	2023-08-22T00:00:00	2024-11-08T23:00:00	3	Temperatura mínima	14.6
42852	7	Sololá	701	Sololá	1	Sololá	8	Agosto	2023-08-22T00:00:00	2024-11-08T23:00:00	5	Humedad	86
42853	7	Sololá	701	Sololá	1	Sololá	8	Agosto	2023-08-22T00:00:00	2024-11-08T23:00:00	6	Velocidad del viento	0
42854	7	Sololá	701	Sololá	1	Sololá	8	Agosto	2023-08-22T00:00:00	2024-11-08T23:00:00	7	Dirección del viento	0
42855	7	Sololá	701	Sololá	1	Sololá	8	Agosto	2023-08-22T00:00:00	2024-11-08T23:00:00	1	Precipitación	0
42856	7	Sololá	701	Sololá	1	Sololá	8	Agosto	2023-08-22T00:00:00	2024-11-08T23:00:00	8	Radiación solar	0
42857	7	Sololá	701	Sololá	1	Sololá	8	Agosto	2023-08-23T00:00:00	2024-11-08T00:00:00	2	Temperatura media	14.2
42858	7	Sololá	701	Sololá	1	Sololá	8	Agosto	2023-08-23T00:00:00	2024-11-08T00:00:00	4	Temperatura máxima	14.6
42859	7	Sololá	701	Sololá	1	Sololá	8	Agosto	2023-08-23T00:00:00	2024-11-08T00:00:00	3	Temperatura mínima	14.2
42860	7	Sololá	701	Sololá	1	Sololá	8	Agosto	2023-08-23T00:00:00	2024-11-08T00:00:00	5	Humedad	87
42861	7	Sololá	701	Sololá	1	Sololá	8	Agosto	2023-08-23T00:00:00	2024-11-08T00:00:00	6	Velocidad del viento	0
42862	7	Sololá	701	Sololá	1	Sololá	8	Agosto	2023-08-23T00:00:00	2024-11-08T00:00:00	7	Dirección del viento	0
42863	7	Sololá	701	Sololá	1	Sololá	8	Agosto	2023-08-23T00:00:00	2024-11-08T00:00:00	1	Precipitación	0
42864	7	Sololá	701	Sololá	1	Sololá	8	Agosto	2023-08-23T00:00:00	2024-11-08T00:00:00	8	Radiación solar	0
42865	7	Sololá	701	Sololá	1	Sololá	8	Agosto	2023-08-23T00:00:00	2024-11-08T01:00:00	2	Temperatura media	14
42866	7	Sololá	701	Sololá	1	Sololá	8	Agosto	2023-08-23T00:00:00	2024-11-08T01:00:00	4	Temperatura máxima	14.2
42867	7	Sololá	701	Sololá	1	Sololá	8	Agosto	2023-08-23T00:00:00	2024-11-08T01:00:00	3	Temperatura mínima	14
42868	7	Sololá	701	Sololá	1	Sololá	8	Agosto	2023-08-23T00:00:00	2024-11-08T01:00:00	5	Humedad	86
42869	7	Sololá	701	Sololá	1	Sololá	8	Agosto	2023-08-23T00:00:00	2024-11-08T01:00:00	6	Velocidad del viento	0
42870	7	Sololá	701	Sololá	1	Sololá	8	Agosto	2023-08-23T00:00:00	2024-11-08T01:00:00	7	Dirección del viento	0
42871	7	Sololá	701	Sololá	1	Sololá	8	Agosto	2023-08-23T00:00:00	2024-11-08T01:00:00	1	Precipitación	0
42872	7	Sololá	701	Sololá	1	Sololá	8	Agosto	2023-08-23T00:00:00	2024-11-08T01:00:00	8	Radiación solar	0
42873	7	Sololá	701	Sololá	1	Sololá	8	Agosto	2023-08-23T00:00:00	2024-11-08T02:00:00	2	Temperatura media	13.9
42874	7	Sololá	701	Sololá	1	Sololá	8	Agosto	2023-08-23T00:00:00	2024-11-08T02:00:00	4	Temperatura máxima	14.1
42875	7	Sololá	701	Sololá	1	Sololá	8	Agosto	2023-08-23T00:00:00	2024-11-08T02:00:00	3	Temperatura mínima	13.9
42876	7	Sololá	701	Sololá	1	Sololá	8	Agosto	2023-08-23T00:00:00	2024-11-08T02:00:00	5	Humedad	84
42877	7	Sololá	701	Sololá	1	Sololá	8	Agosto	2023-08-23T00:00:00	2024-11-08T02:00:00	6	Velocidad del viento	0
42878	7	Sololá	701	Sololá	1	Sololá	8	Agosto	2023-08-23T00:00:00	2024-11-08T02:00:00	7	Dirección del viento	0
42879	7	Sololá	701	Sololá	1	Sololá	8	Agosto	2023-08-23T00:00:00	2024-11-08T02:00:00	1	Precipitación	0
42880	7	Sololá	701	Sololá	1	Sololá	8	Agosto	2023-08-23T00:00:00	2024-11-08T02:00:00	8	Radiación solar	0
42881	7	Sololá	701	Sololá	1	Sololá	8	Agosto	2023-08-23T00:00:00	2024-11-08T03:00:00	2	Temperatura media	13.6
42882	7	Sololá	701	Sololá	1	Sololá	8	Agosto	2023-08-23T00:00:00	2024-11-08T03:00:00	4	Temperatura máxima	13.9
42883	7	Sololá	701	Sololá	1	Sololá	8	Agosto	2023-08-23T00:00:00	2024-11-08T03:00:00	3	Temperatura mínima	13.4
42884	7	Sololá	701	Sololá	1	Sololá	8	Agosto	2023-08-23T00:00:00	2024-11-08T03:00:00	5	Humedad	85
42885	7	Sololá	701	Sololá	1	Sololá	8	Agosto	2023-08-23T00:00:00	2024-11-08T03:00:00	6	Velocidad del viento	0
42886	7	Sololá	701	Sololá	1	Sololá	8	Agosto	2023-08-23T00:00:00	2024-11-08T03:00:00	7	Dirección del viento	0
42887	7	Sololá	701	Sololá	1	Sololá	8	Agosto	2023-08-23T00:00:00	2024-11-08T03:00:00	1	Precipitación	0
42888	7	Sololá	701	Sololá	1	Sololá	8	Agosto	2023-08-23T00:00:00	2024-11-08T03:00:00	8	Radiación solar	0
42889	7	Sololá	701	Sololá	1	Sololá	8	Agosto	2023-08-23T00:00:00	2024-11-08T04:00:00	2	Temperatura media	13.4
42890	7	Sololá	701	Sololá	1	Sololá	8	Agosto	2023-08-23T00:00:00	2024-11-08T04:00:00	4	Temperatura máxima	13.6
42891	7	Sololá	701	Sololá	1	Sololá	8	Agosto	2023-08-23T00:00:00	2024-11-08T04:00:00	3	Temperatura mínima	13.4
42892	7	Sololá	701	Sololá	1	Sololá	8	Agosto	2023-08-23T00:00:00	2024-11-08T04:00:00	5	Humedad	85
42893	7	Sololá	701	Sololá	1	Sololá	8	Agosto	2023-08-23T00:00:00	2024-11-08T04:00:00	6	Velocidad del viento	0
42894	7	Sololá	701	Sololá	1	Sololá	8	Agosto	2023-08-23T00:00:00	2024-11-08T04:00:00	7	Dirección del viento	0
42895	7	Sololá	701	Sololá	1	Sololá	8	Agosto	2023-08-23T00:00:00	2024-11-08T04:00:00	1	Precipitación	0
42896	7	Sololá	701	Sololá	1	Sololá	8	Agosto	2023-08-23T00:00:00	2024-11-08T04:00:00	8	Radiación solar	0
42897	7	Sololá	701	Sololá	1	Sololá	8	Agosto	2023-08-23T00:00:00	2024-11-08T05:00:00	2	Temperatura media	13.8
42898	7	Sololá	701	Sololá	1	Sololá	8	Agosto	2023-08-23T00:00:00	2024-11-08T05:00:00	4	Temperatura máxima	13.8
42899	7	Sololá	701	Sololá	1	Sololá	8	Agosto	2023-08-23T00:00:00	2024-11-08T05:00:00	3	Temperatura mínima	13.4
42900	7	Sololá	701	Sololá	1	Sololá	8	Agosto	2023-08-23T00:00:00	2024-11-08T05:00:00	5	Humedad	83
42901	7	Sololá	701	Sololá	1	Sololá	8	Agosto	2023-08-23T00:00:00	2024-11-08T05:00:00	6	Velocidad del viento	0
42902	7	Sololá	701	Sololá	1	Sololá	8	Agosto	2023-08-23T00:00:00	2024-11-08T05:00:00	7	Dirección del viento	0
42903	7	Sololá	701	Sololá	1	Sololá	8	Agosto	2023-08-23T00:00:00	2024-11-08T05:00:00	1	Precipitación	0
42904	7	Sololá	701	Sololá	1	Sololá	8	Agosto	2023-08-23T00:00:00	2024-11-08T05:00:00	8	Radiación solar	0
42905	7	Sololá	701	Sololá	1	Sololá	8	Agosto	2023-08-23T00:00:00	2024-11-08T06:00:00	2	Temperatura media	13.7
42906	7	Sololá	701	Sololá	1	Sololá	8	Agosto	2023-08-23T00:00:00	2024-11-08T06:00:00	4	Temperatura máxima	13.8
42907	7	Sololá	701	Sololá	1	Sololá	8	Agosto	2023-08-23T00:00:00	2024-11-08T06:00:00	3	Temperatura mínima	13.6
42908	7	Sololá	701	Sololá	1	Sololá	8	Agosto	2023-08-23T00:00:00	2024-11-08T06:00:00	5	Humedad	80
42909	7	Sololá	701	Sololá	1	Sololá	8	Agosto	2023-08-23T00:00:00	2024-11-08T06:00:00	6	Velocidad del viento	0
42910	7	Sololá	701	Sololá	1	Sololá	8	Agosto	2023-08-23T00:00:00	2024-11-08T06:00:00	7	Dirección del viento	0
42911	7	Sololá	701	Sololá	1	Sololá	8	Agosto	2023-08-23T00:00:00	2024-11-08T06:00:00	1	Precipitación	0
42912	7	Sololá	701	Sololá	1	Sololá	8	Agosto	2023-08-23T00:00:00	2024-11-08T06:00:00	8	Radiación solar	0
42913	7	Sololá	701	Sololá	1	Sololá	8	Agosto	2023-08-23T00:00:00	2024-11-08T07:00:00	2	Temperatura media	14
42914	7	Sololá	701	Sololá	1	Sololá	8	Agosto	2023-08-23T00:00:00	2024-11-08T07:00:00	4	Temperatura máxima	14
42915	7	Sololá	701	Sololá	1	Sololá	8	Agosto	2023-08-23T00:00:00	2024-11-08T07:00:00	3	Temperatura mínima	13.6
42916	7	Sololá	701	Sololá	1	Sololá	8	Agosto	2023-08-23T00:00:00	2024-11-08T07:00:00	5	Humedad	83
42917	7	Sololá	701	Sololá	1	Sololá	8	Agosto	2023-08-23T00:00:00	2024-11-08T07:00:00	6	Velocidad del viento	0
42918	7	Sololá	701	Sololá	1	Sololá	8	Agosto	2023-08-23T00:00:00	2024-11-08T07:00:00	7	Dirección del viento	0
42919	7	Sololá	701	Sololá	1	Sololá	8	Agosto	2023-08-23T00:00:00	2024-11-08T07:00:00	1	Precipitación	0
42920	7	Sololá	701	Sololá	1	Sololá	8	Agosto	2023-08-23T00:00:00	2024-11-08T07:00:00	8	Radiación solar	23
42921	7	Sololá	701	Sololá	1	Sololá	8	Agosto	2023-08-23T00:00:00	2024-11-08T08:00:00	2	Temperatura media	16.3
42922	7	Sololá	701	Sololá	1	Sololá	8	Agosto	2023-08-23T00:00:00	2024-11-08T08:00:00	4	Temperatura máxima	16.3
42923	7	Sololá	701	Sololá	1	Sololá	8	Agosto	2023-08-23T00:00:00	2024-11-08T08:00:00	3	Temperatura mínima	14
42924	7	Sololá	701	Sololá	1	Sololá	8	Agosto	2023-08-23T00:00:00	2024-11-08T08:00:00	5	Humedad	79
42925	7	Sololá	701	Sololá	1	Sololá	8	Agosto	2023-08-23T00:00:00	2024-11-08T08:00:00	6	Velocidad del viento	0
42926	7	Sololá	701	Sololá	1	Sololá	8	Agosto	2023-08-23T00:00:00	2024-11-08T08:00:00	7	Dirección del viento	0
42927	7	Sololá	701	Sololá	1	Sololá	8	Agosto	2023-08-23T00:00:00	2024-11-08T08:00:00	1	Precipitación	0
42928	7	Sololá	701	Sololá	1	Sololá	8	Agosto	2023-08-23T00:00:00	2024-11-08T08:00:00	8	Radiación solar	134
42929	7	Sololá	701	Sololá	1	Sololá	8	Agosto	2023-08-23T00:00:00	2024-11-08T09:00:00	2	Temperatura media	17.8
42930	7	Sololá	701	Sololá	1	Sololá	8	Agosto	2023-08-23T00:00:00	2024-11-08T09:00:00	4	Temperatura máxima	17.9
42931	7	Sololá	701	Sololá	1	Sololá	8	Agosto	2023-08-23T00:00:00	2024-11-08T09:00:00	3	Temperatura mínima	16.3
42932	7	Sololá	701	Sololá	1	Sololá	8	Agosto	2023-08-23T00:00:00	2024-11-08T09:00:00	5	Humedad	78
42933	7	Sololá	701	Sololá	1	Sololá	8	Agosto	2023-08-23T00:00:00	2024-11-08T09:00:00	6	Velocidad del viento	0
42934	7	Sololá	701	Sololá	1	Sololá	8	Agosto	2023-08-23T00:00:00	2024-11-08T09:00:00	7	Dirección del viento	0
42935	7	Sololá	701	Sololá	1	Sololá	8	Agosto	2023-08-23T00:00:00	2024-11-08T09:00:00	1	Precipitación	0
42936	7	Sololá	701	Sololá	1	Sololá	8	Agosto	2023-08-23T00:00:00	2024-11-08T09:00:00	8	Radiación solar	240
42937	7	Sololá	701	Sololá	1	Sololá	8	Agosto	2023-08-23T00:00:00	2024-11-08T10:00:00	2	Temperatura media	19.8
42938	7	Sololá	701	Sololá	1	Sololá	8	Agosto	2023-08-23T00:00:00	2024-11-08T10:00:00	4	Temperatura máxima	19.8
42939	7	Sololá	701	Sololá	1	Sololá	8	Agosto	2023-08-23T00:00:00	2024-11-08T10:00:00	3	Temperatura mínima	17.5
42940	7	Sololá	701	Sololá	1	Sololá	8	Agosto	2023-08-23T00:00:00	2024-11-08T10:00:00	5	Humedad	69
42941	7	Sololá	701	Sololá	1	Sololá	8	Agosto	2023-08-23T00:00:00	2024-11-08T10:00:00	6	Velocidad del viento	0
42942	7	Sololá	701	Sololá	1	Sololá	8	Agosto	2023-08-23T00:00:00	2024-11-08T10:00:00	7	Dirección del viento	0
42943	7	Sololá	701	Sololá	1	Sololá	8	Agosto	2023-08-23T00:00:00	2024-11-08T10:00:00	1	Precipitación	0
42944	7	Sololá	701	Sololá	1	Sololá	8	Agosto	2023-08-23T00:00:00	2024-11-08T10:00:00	8	Radiación solar	331
42945	7	Sololá	701	Sololá	1	Sololá	8	Agosto	2023-08-23T00:00:00	2024-11-08T11:00:00	2	Temperatura media	20.3
42946	7	Sololá	701	Sololá	1	Sololá	8	Agosto	2023-08-23T00:00:00	2024-11-08T11:00:00	4	Temperatura máxima	20.3
42947	7	Sololá	701	Sololá	1	Sololá	8	Agosto	2023-08-23T00:00:00	2024-11-08T11:00:00	3	Temperatura mínima	19.8
42948	7	Sololá	701	Sololá	1	Sololá	8	Agosto	2023-08-23T00:00:00	2024-11-08T11:00:00	5	Humedad	64
42949	7	Sololá	701	Sololá	1	Sololá	8	Agosto	2023-08-23T00:00:00	2024-11-08T11:00:00	6	Velocidad del viento	0
42950	7	Sololá	701	Sololá	1	Sololá	8	Agosto	2023-08-23T00:00:00	2024-11-08T11:00:00	7	Dirección del viento	0
42951	7	Sololá	701	Sololá	1	Sololá	8	Agosto	2023-08-23T00:00:00	2024-11-08T11:00:00	1	Precipitación	0
42952	7	Sololá	701	Sololá	1	Sololá	8	Agosto	2023-08-23T00:00:00	2024-11-08T11:00:00	8	Radiación solar	297
42953	7	Sololá	701	Sololá	1	Sololá	8	Agosto	2023-08-23T00:00:00	2024-11-08T12:00:00	2	Temperatura media	21.1
42954	7	Sololá	701	Sololá	1	Sololá	8	Agosto	2023-08-23T00:00:00	2024-11-08T12:00:00	4	Temperatura máxima	21.1
42955	7	Sololá	701	Sololá	1	Sololá	8	Agosto	2023-08-23T00:00:00	2024-11-08T12:00:00	3	Temperatura mínima	20.3
42956	7	Sololá	701	Sololá	1	Sololá	8	Agosto	2023-08-23T00:00:00	2024-11-08T12:00:00	5	Humedad	62
42957	7	Sololá	701	Sololá	1	Sololá	8	Agosto	2023-08-23T00:00:00	2024-11-08T12:00:00	6	Velocidad del viento	0
42958	7	Sololá	701	Sololá	1	Sololá	8	Agosto	2023-08-23T00:00:00	2024-11-08T12:00:00	7	Dirección del viento	0
42959	7	Sololá	701	Sololá	1	Sololá	8	Agosto	2023-08-23T00:00:00	2024-11-08T12:00:00	1	Precipitación	0
42960	7	Sololá	701	Sololá	1	Sololá	8	Agosto	2023-08-23T00:00:00	2024-11-08T12:00:00	8	Radiación solar	277
42961	7	Sololá	701	Sololá	1	Sololá	8	Agosto	2023-08-23T00:00:00	2024-11-08T13:00:00	2	Temperatura media	21.3
42962	7	Sololá	701	Sololá	1	Sololá	8	Agosto	2023-08-23T00:00:00	2024-11-08T13:00:00	4	Temperatura máxima	21.3
42963	7	Sololá	701	Sololá	1	Sololá	8	Agosto	2023-08-23T00:00:00	2024-11-08T13:00:00	3	Temperatura mínima	21.1
42964	7	Sololá	701	Sololá	1	Sololá	8	Agosto	2023-08-23T00:00:00	2024-11-08T13:00:00	5	Humedad	70
42965	7	Sololá	701	Sololá	1	Sololá	8	Agosto	2023-08-23T00:00:00	2024-11-08T13:00:00	6	Velocidad del viento	0
42966	7	Sololá	701	Sololá	1	Sololá	8	Agosto	2023-08-23T00:00:00	2024-11-08T13:00:00	7	Dirección del viento	0
42967	7	Sololá	701	Sololá	1	Sololá	8	Agosto	2023-08-23T00:00:00	2024-11-08T13:00:00	1	Precipitación	0
42968	7	Sololá	701	Sololá	1	Sololá	8	Agosto	2023-08-23T00:00:00	2024-11-08T13:00:00	8	Radiación solar	288
42969	7	Sololá	701	Sololá	1	Sololá	8	Agosto	2023-08-23T00:00:00	2024-11-08T14:00:00	2	Temperatura media	21.2
42970	7	Sololá	701	Sololá	1	Sololá	8	Agosto	2023-08-23T00:00:00	2024-11-08T14:00:00	4	Temperatura máxima	21.3
42971	7	Sololá	701	Sololá	1	Sololá	8	Agosto	2023-08-23T00:00:00	2024-11-08T14:00:00	3	Temperatura mínima	20.7
42972	7	Sololá	701	Sololá	1	Sololá	8	Agosto	2023-08-23T00:00:00	2024-11-08T14:00:00	5	Humedad	68
42973	7	Sololá	701	Sololá	1	Sololá	8	Agosto	2023-08-23T00:00:00	2024-11-08T14:00:00	6	Velocidad del viento	0
42974	7	Sololá	701	Sololá	1	Sololá	8	Agosto	2023-08-23T00:00:00	2024-11-08T14:00:00	7	Dirección del viento	0
42975	7	Sololá	701	Sololá	1	Sololá	8	Agosto	2023-08-23T00:00:00	2024-11-08T14:00:00	1	Precipitación	0
42976	7	Sololá	701	Sololá	1	Sololá	8	Agosto	2023-08-23T00:00:00	2024-11-08T14:00:00	8	Radiación solar	271
42977	7	Sololá	701	Sololá	1	Sololá	8	Agosto	2023-08-23T00:00:00	2024-11-08T15:00:00	2	Temperatura media	20.7
42978	7	Sololá	701	Sololá	1	Sololá	8	Agosto	2023-08-23T00:00:00	2024-11-08T15:00:00	4	Temperatura máxima	21.3
42979	7	Sololá	701	Sololá	1	Sololá	8	Agosto	2023-08-23T00:00:00	2024-11-08T15:00:00	3	Temperatura mínima	20.7
42980	7	Sololá	701	Sololá	1	Sololá	8	Agosto	2023-08-23T00:00:00	2024-11-08T15:00:00	5	Humedad	64
42981	7	Sololá	701	Sololá	1	Sololá	8	Agosto	2023-08-23T00:00:00	2024-11-08T15:00:00	6	Velocidad del viento	0
42982	7	Sololá	701	Sololá	1	Sololá	8	Agosto	2023-08-23T00:00:00	2024-11-08T15:00:00	7	Dirección del viento	0
42983	7	Sololá	701	Sololá	1	Sololá	8	Agosto	2023-08-23T00:00:00	2024-11-08T15:00:00	1	Precipitación	0
42984	7	Sololá	701	Sololá	1	Sololá	8	Agosto	2023-08-23T00:00:00	2024-11-08T15:00:00	8	Radiación solar	192
42985	7	Sololá	701	Sololá	1	Sololá	8	Agosto	2023-08-23T00:00:00	2024-11-08T16:00:00	2	Temperatura media	20.4
42986	7	Sololá	701	Sololá	1	Sololá	8	Agosto	2023-08-23T00:00:00	2024-11-08T16:00:00	4	Temperatura máxima	20.7
42987	7	Sololá	701	Sololá	1	Sololá	8	Agosto	2023-08-23T00:00:00	2024-11-08T16:00:00	3	Temperatura mínima	20.3
42988	7	Sololá	701	Sololá	1	Sololá	8	Agosto	2023-08-23T00:00:00	2024-11-08T16:00:00	5	Humedad	66
42989	7	Sololá	701	Sololá	1	Sololá	8	Agosto	2023-08-23T00:00:00	2024-11-08T16:00:00	6	Velocidad del viento	0
42990	7	Sololá	701	Sololá	1	Sololá	8	Agosto	2023-08-23T00:00:00	2024-11-08T16:00:00	7	Dirección del viento	0
42991	7	Sololá	701	Sololá	1	Sololá	8	Agosto	2023-08-23T00:00:00	2024-11-08T16:00:00	1	Precipitación	0
42992	7	Sololá	701	Sololá	1	Sololá	8	Agosto	2023-08-23T00:00:00	2024-11-08T16:00:00	8	Radiación solar	141
42993	7	Sololá	701	Sololá	1	Sololá	8	Agosto	2023-08-23T00:00:00	2024-11-08T17:00:00	2	Temperatura media	19.6
42994	7	Sololá	701	Sololá	1	Sololá	8	Agosto	2023-08-23T00:00:00	2024-11-08T17:00:00	4	Temperatura máxima	20.4
42995	7	Sololá	701	Sololá	1	Sololá	8	Agosto	2023-08-23T00:00:00	2024-11-08T17:00:00	3	Temperatura mínima	19.6
42996	7	Sololá	701	Sololá	1	Sololá	8	Agosto	2023-08-23T00:00:00	2024-11-08T17:00:00	5	Humedad	75
42997	7	Sololá	701	Sololá	1	Sololá	8	Agosto	2023-08-23T00:00:00	2024-11-08T17:00:00	6	Velocidad del viento	0
42998	7	Sololá	701	Sololá	1	Sololá	8	Agosto	2023-08-23T00:00:00	2024-11-08T17:00:00	7	Dirección del viento	0
42999	7	Sololá	701	Sololá	1	Sololá	8	Agosto	2023-08-23T00:00:00	2024-11-08T17:00:00	1	Precipitación	0
43000	7	Sololá	701	Sololá	1	Sololá	8	Agosto	2023-08-23T00:00:00	2024-11-08T17:00:00	8	Radiación solar	82
43001	7	Sololá	701	Sololá	1	Sololá	8	Agosto	2023-08-23T00:00:00	2024-11-08T18:00:00	2	Temperatura media	17.9
43002	7	Sololá	701	Sololá	1	Sololá	8	Agosto	2023-08-23T00:00:00	2024-11-08T18:00:00	4	Temperatura máxima	19.6
43003	7	Sololá	701	Sololá	1	Sololá	8	Agosto	2023-08-23T00:00:00	2024-11-08T18:00:00	3	Temperatura mínima	17.9
43004	7	Sololá	701	Sololá	1	Sololá	8	Agosto	2023-08-23T00:00:00	2024-11-08T18:00:00	5	Humedad	78
43005	7	Sololá	701	Sololá	1	Sololá	8	Agosto	2023-08-23T00:00:00	2024-11-08T18:00:00	6	Velocidad del viento	0
43006	7	Sololá	701	Sololá	1	Sololá	8	Agosto	2023-08-23T00:00:00	2024-11-08T18:00:00	7	Dirección del viento	0
43007	7	Sololá	701	Sololá	1	Sololá	8	Agosto	2023-08-23T00:00:00	2024-11-08T18:00:00	1	Precipitación	0
43008	7	Sololá	701	Sololá	1	Sololá	8	Agosto	2023-08-23T00:00:00	2024-11-08T18:00:00	8	Radiación solar	29
43009	7	Sololá	701	Sololá	1	Sololá	8	Agosto	2023-08-23T00:00:00	2024-11-08T19:00:00	2	Temperatura media	16.9
43010	7	Sololá	701	Sololá	1	Sololá	8	Agosto	2023-08-23T00:00:00	2024-11-08T19:00:00	4	Temperatura máxima	17.9
43011	7	Sololá	701	Sololá	1	Sololá	8	Agosto	2023-08-23T00:00:00	2024-11-08T19:00:00	3	Temperatura mínima	16.9
43012	7	Sololá	701	Sololá	1	Sololá	8	Agosto	2023-08-23T00:00:00	2024-11-08T19:00:00	5	Humedad	90
43013	7	Sololá	701	Sololá	1	Sololá	8	Agosto	2023-08-23T00:00:00	2024-11-08T19:00:00	6	Velocidad del viento	0
43014	7	Sololá	701	Sololá	1	Sololá	8	Agosto	2023-08-23T00:00:00	2024-11-08T19:00:00	7	Dirección del viento	0
43015	7	Sololá	701	Sololá	1	Sololá	8	Agosto	2023-08-23T00:00:00	2024-11-08T19:00:00	1	Precipitación	0
43016	7	Sololá	701	Sololá	1	Sololá	8	Agosto	2023-08-23T00:00:00	2024-11-08T19:00:00	8	Radiación solar	0
43017	7	Sololá	701	Sololá	1	Sololá	8	Agosto	2023-08-23T00:00:00	2024-11-08T20:00:00	2	Temperatura media	15.7
43018	7	Sololá	701	Sololá	1	Sololá	8	Agosto	2023-08-23T00:00:00	2024-11-08T20:00:00	4	Temperatura máxima	16.9
43019	7	Sololá	701	Sololá	1	Sololá	8	Agosto	2023-08-23T00:00:00	2024-11-08T20:00:00	3	Temperatura mínima	15.7
43020	7	Sololá	701	Sololá	1	Sololá	8	Agosto	2023-08-23T00:00:00	2024-11-08T20:00:00	5	Humedad	88
43021	7	Sololá	701	Sololá	1	Sololá	8	Agosto	2023-08-23T00:00:00	2024-11-08T20:00:00	6	Velocidad del viento	0
43022	7	Sololá	701	Sololá	1	Sololá	8	Agosto	2023-08-23T00:00:00	2024-11-08T20:00:00	7	Dirección del viento	0
43023	7	Sololá	701	Sololá	1	Sololá	8	Agosto	2023-08-23T00:00:00	2024-11-08T20:00:00	1	Precipitación	0
43024	7	Sololá	701	Sololá	1	Sololá	8	Agosto	2023-08-23T00:00:00	2024-11-08T20:00:00	8	Radiación solar	0
43025	7	Sololá	701	Sololá	1	Sololá	8	Agosto	2023-08-23T00:00:00	2024-11-08T21:00:00	2	Temperatura media	15.4
43026	7	Sololá	701	Sololá	1	Sololá	8	Agosto	2023-08-23T00:00:00	2024-11-08T21:00:00	4	Temperatura máxima	15.8
43027	7	Sololá	701	Sololá	1	Sololá	8	Agosto	2023-08-23T00:00:00	2024-11-08T21:00:00	3	Temperatura mínima	15.4
43028	7	Sololá	701	Sololá	1	Sololá	8	Agosto	2023-08-23T00:00:00	2024-11-08T21:00:00	5	Humedad	87
43029	7	Sololá	701	Sololá	1	Sololá	8	Agosto	2023-08-23T00:00:00	2024-11-08T21:00:00	6	Velocidad del viento	0
43030	7	Sololá	701	Sololá	1	Sololá	8	Agosto	2023-08-23T00:00:00	2024-11-08T21:00:00	7	Dirección del viento	0
43031	7	Sololá	701	Sololá	1	Sololá	8	Agosto	2023-08-23T00:00:00	2024-11-08T21:00:00	1	Precipitación	0
43032	7	Sololá	701	Sololá	1	Sololá	8	Agosto	2023-08-23T00:00:00	2024-11-08T21:00:00	8	Radiación solar	0
43033	7	Sololá	701	Sololá	1	Sololá	8	Agosto	2023-08-23T00:00:00	2024-11-08T22:00:00	2	Temperatura media	15.7
43034	7	Sololá	701	Sololá	1	Sololá	8	Agosto	2023-08-23T00:00:00	2024-11-08T22:00:00	4	Temperatura máxima	15.7
43035	7	Sololá	701	Sololá	1	Sololá	8	Agosto	2023-08-23T00:00:00	2024-11-08T22:00:00	3	Temperatura mínima	15.4
43036	7	Sololá	701	Sololá	1	Sololá	8	Agosto	2023-08-23T00:00:00	2024-11-08T22:00:00	5	Humedad	86
43037	7	Sololá	701	Sololá	1	Sololá	8	Agosto	2023-08-23T00:00:00	2024-11-08T22:00:00	6	Velocidad del viento	0
43038	7	Sololá	701	Sololá	1	Sololá	8	Agosto	2023-08-23T00:00:00	2024-11-08T22:00:00	7	Dirección del viento	0
43039	7	Sololá	701	Sololá	1	Sololá	8	Agosto	2023-08-23T00:00:00	2024-11-08T22:00:00	1	Precipitación	0
43040	7	Sololá	701	Sololá	1	Sololá	8	Agosto	2023-08-23T00:00:00	2024-11-08T22:00:00	8	Radiación solar	0
43041	7	Sololá	701	Sololá	1	Sololá	8	Agosto	2023-08-23T00:00:00	2024-11-08T23:00:00	2	Temperatura media	15.6
43042	7	Sololá	701	Sololá	1	Sololá	8	Agosto	2023-08-23T00:00:00	2024-11-08T23:00:00	4	Temperatura máxima	15.7
43043	7	Sololá	701	Sololá	1	Sololá	8	Agosto	2023-08-23T00:00:00	2024-11-08T23:00:00	3	Temperatura mínima	15.5
43044	7	Sololá	701	Sololá	1	Sololá	8	Agosto	2023-08-23T00:00:00	2024-11-08T23:00:00	5	Humedad	85
43045	7	Sololá	701	Sololá	1	Sololá	8	Agosto	2023-08-23T00:00:00	2024-11-08T23:00:00	6	Velocidad del viento	0
43046	7	Sololá	701	Sololá	1	Sololá	8	Agosto	2023-08-23T00:00:00	2024-11-08T23:00:00	7	Dirección del viento	0
43047	7	Sololá	701	Sololá	1	Sololá	8	Agosto	2023-08-23T00:00:00	2024-11-08T23:00:00	1	Precipitación	0
43048	7	Sololá	701	Sololá	1	Sololá	8	Agosto	2023-08-23T00:00:00	2024-11-08T23:00:00	8	Radiación solar	0
43049	7	Sololá	701	Sololá	1	Sololá	8	Agosto	2023-08-24T00:00:00	2024-11-08T00:00:00	2	Temperatura media	15.4
43050	7	Sololá	701	Sololá	1	Sololá	8	Agosto	2023-08-24T00:00:00	2024-11-08T00:00:00	4	Temperatura máxima	15.7
43051	7	Sololá	701	Sololá	1	Sololá	8	Agosto	2023-08-24T00:00:00	2024-11-08T00:00:00	3	Temperatura mínima	15.4
43052	7	Sololá	701	Sololá	1	Sololá	8	Agosto	2023-08-24T00:00:00	2024-11-08T00:00:00	5	Humedad	84
43053	7	Sololá	701	Sololá	1	Sololá	8	Agosto	2023-08-24T00:00:00	2024-11-08T00:00:00	6	Velocidad del viento	0
43054	7	Sololá	701	Sololá	1	Sololá	8	Agosto	2023-08-24T00:00:00	2024-11-08T00:00:00	7	Dirección del viento	0
43055	7	Sololá	701	Sololá	1	Sololá	8	Agosto	2023-08-24T00:00:00	2024-11-08T00:00:00	1	Precipitación	0
43056	7	Sololá	701	Sololá	1	Sololá	8	Agosto	2023-08-24T00:00:00	2024-11-08T00:00:00	8	Radiación solar	0
43057	7	Sololá	701	Sololá	1	Sololá	8	Agosto	2023-08-24T00:00:00	2024-11-08T01:00:00	2	Temperatura media	14.3
43058	7	Sololá	701	Sololá	1	Sololá	8	Agosto	2023-08-24T00:00:00	2024-11-08T01:00:00	4	Temperatura máxima	15.4
43059	7	Sololá	701	Sololá	1	Sololá	8	Agosto	2023-08-24T00:00:00	2024-11-08T01:00:00	3	Temperatura mínima	14.2
43060	7	Sololá	701	Sololá	1	Sololá	8	Agosto	2023-08-24T00:00:00	2024-11-08T01:00:00	5	Humedad	87
43061	7	Sololá	701	Sololá	1	Sololá	8	Agosto	2023-08-24T00:00:00	2024-11-08T01:00:00	6	Velocidad del viento	0
43062	7	Sololá	701	Sololá	1	Sololá	8	Agosto	2023-08-24T00:00:00	2024-11-08T01:00:00	7	Dirección del viento	0
43063	7	Sololá	701	Sololá	1	Sololá	8	Agosto	2023-08-24T00:00:00	2024-11-08T01:00:00	1	Precipitación	0
43064	7	Sololá	701	Sololá	1	Sololá	8	Agosto	2023-08-24T00:00:00	2024-11-08T01:00:00	8	Radiación solar	0
43065	7	Sololá	701	Sololá	1	Sololá	8	Agosto	2023-08-24T00:00:00	2024-11-08T02:00:00	2	Temperatura media	13.5
43066	7	Sololá	701	Sololá	1	Sololá	8	Agosto	2023-08-24T00:00:00	2024-11-08T02:00:00	4	Temperatura máxima	14.3
43067	7	Sololá	701	Sololá	1	Sololá	8	Agosto	2023-08-24T00:00:00	2024-11-08T02:00:00	3	Temperatura mínima	13.5
43068	7	Sololá	701	Sololá	1	Sololá	8	Agosto	2023-08-24T00:00:00	2024-11-08T02:00:00	5	Humedad	89
43069	7	Sololá	701	Sololá	1	Sololá	8	Agosto	2023-08-24T00:00:00	2024-11-08T02:00:00	6	Velocidad del viento	0
43070	7	Sololá	701	Sololá	1	Sololá	8	Agosto	2023-08-24T00:00:00	2024-11-08T02:00:00	7	Dirección del viento	0
43071	7	Sololá	701	Sololá	1	Sololá	8	Agosto	2023-08-24T00:00:00	2024-11-08T02:00:00	1	Precipitación	0
43072	7	Sololá	701	Sololá	1	Sololá	8	Agosto	2023-08-24T00:00:00	2024-11-08T02:00:00	8	Radiación solar	0
43073	7	Sololá	701	Sololá	1	Sololá	8	Agosto	2023-08-24T00:00:00	2024-11-08T03:00:00	2	Temperatura media	14.2
43074	7	Sololá	701	Sololá	1	Sololá	8	Agosto	2023-08-24T00:00:00	2024-11-08T03:00:00	4	Temperatura máxima	14.2
43075	7	Sololá	701	Sololá	1	Sololá	8	Agosto	2023-08-24T00:00:00	2024-11-08T03:00:00	3	Temperatura mínima	13.4
43076	7	Sololá	701	Sololá	1	Sololá	8	Agosto	2023-08-24T00:00:00	2024-11-08T03:00:00	5	Humedad	91
43077	7	Sololá	701	Sololá	1	Sololá	8	Agosto	2023-08-24T00:00:00	2024-11-08T03:00:00	6	Velocidad del viento	0
43078	7	Sololá	701	Sololá	1	Sololá	8	Agosto	2023-08-24T00:00:00	2024-11-08T03:00:00	7	Dirección del viento	0
43079	7	Sololá	701	Sololá	1	Sololá	8	Agosto	2023-08-24T00:00:00	2024-11-08T03:00:00	1	Precipitación	0
43080	7	Sololá	701	Sololá	1	Sololá	8	Agosto	2023-08-24T00:00:00	2024-11-08T03:00:00	8	Radiación solar	0
43081	7	Sololá	701	Sololá	1	Sololá	8	Agosto	2023-08-24T00:00:00	2024-11-08T04:00:00	2	Temperatura media	14.1
43082	7	Sololá	701	Sololá	1	Sololá	8	Agosto	2023-08-24T00:00:00	2024-11-08T04:00:00	4	Temperatura máxima	14.3
43083	7	Sololá	701	Sololá	1	Sololá	8	Agosto	2023-08-24T00:00:00	2024-11-08T04:00:00	3	Temperatura mínima	14
43084	7	Sololá	701	Sololá	1	Sololá	8	Agosto	2023-08-24T00:00:00	2024-11-08T04:00:00	5	Humedad	91
43085	7	Sololá	701	Sololá	1	Sololá	8	Agosto	2023-08-24T00:00:00	2024-11-08T04:00:00	6	Velocidad del viento	0
43086	7	Sololá	701	Sololá	1	Sololá	8	Agosto	2023-08-24T00:00:00	2024-11-08T04:00:00	7	Dirección del viento	0
43087	7	Sololá	701	Sololá	1	Sololá	8	Agosto	2023-08-24T00:00:00	2024-11-08T04:00:00	1	Precipitación	0
43088	7	Sololá	701	Sololá	1	Sololá	8	Agosto	2023-08-24T00:00:00	2024-11-08T04:00:00	8	Radiación solar	0
43089	7	Sololá	701	Sololá	1	Sololá	8	Agosto	2023-08-24T00:00:00	2024-11-08T05:00:00	2	Temperatura media	13.7
43090	7	Sololá	701	Sololá	1	Sololá	8	Agosto	2023-08-24T00:00:00	2024-11-08T05:00:00	4	Temperatura máxima	14
43091	7	Sololá	701	Sololá	1	Sololá	8	Agosto	2023-08-24T00:00:00	2024-11-08T05:00:00	3	Temperatura mínima	13.7
43092	7	Sololá	701	Sololá	1	Sololá	8	Agosto	2023-08-24T00:00:00	2024-11-08T05:00:00	5	Humedad	92
43093	7	Sololá	701	Sololá	1	Sololá	8	Agosto	2023-08-24T00:00:00	2024-11-08T05:00:00	6	Velocidad del viento	0
43094	7	Sololá	701	Sololá	1	Sololá	8	Agosto	2023-08-24T00:00:00	2024-11-08T05:00:00	7	Dirección del viento	0
43095	7	Sololá	701	Sololá	1	Sololá	8	Agosto	2023-08-24T00:00:00	2024-11-08T05:00:00	1	Precipitación	0
43096	7	Sololá	701	Sololá	1	Sololá	8	Agosto	2023-08-24T00:00:00	2024-11-08T05:00:00	8	Radiación solar	0
43097	7	Sololá	701	Sololá	1	Sololá	8	Agosto	2023-08-24T00:00:00	2024-11-08T06:00:00	2	Temperatura media	13.4
43098	7	Sololá	701	Sololá	1	Sololá	8	Agosto	2023-08-24T00:00:00	2024-11-08T06:00:00	4	Temperatura máxima	13.7
43099	7	Sololá	701	Sololá	1	Sololá	8	Agosto	2023-08-24T00:00:00	2024-11-08T06:00:00	3	Temperatura mínima	13.4
43100	7	Sololá	701	Sololá	1	Sololá	8	Agosto	2023-08-24T00:00:00	2024-11-08T06:00:00	5	Humedad	90
43101	7	Sololá	701	Sololá	1	Sololá	8	Agosto	2023-08-24T00:00:00	2024-11-08T06:00:00	6	Velocidad del viento	0
43102	7	Sololá	701	Sololá	1	Sololá	8	Agosto	2023-08-24T00:00:00	2024-11-08T06:00:00	7	Dirección del viento	0
43103	7	Sololá	701	Sololá	1	Sololá	8	Agosto	2023-08-24T00:00:00	2024-11-08T06:00:00	1	Precipitación	0
43104	7	Sololá	701	Sololá	1	Sololá	8	Agosto	2023-08-24T00:00:00	2024-11-08T06:00:00	8	Radiación solar	0
43105	7	Sololá	701	Sololá	1	Sololá	8	Agosto	2023-08-24T00:00:00	2024-11-08T07:00:00	2	Temperatura media	13.8
43106	7	Sololá	701	Sololá	1	Sololá	8	Agosto	2023-08-24T00:00:00	2024-11-08T07:00:00	4	Temperatura máxima	13.8
43107	7	Sololá	701	Sololá	1	Sololá	8	Agosto	2023-08-24T00:00:00	2024-11-08T07:00:00	3	Temperatura mínima	13.4
43108	7	Sololá	701	Sololá	1	Sololá	8	Agosto	2023-08-24T00:00:00	2024-11-08T07:00:00	5	Humedad	88
43109	7	Sololá	701	Sololá	1	Sololá	8	Agosto	2023-08-24T00:00:00	2024-11-08T07:00:00	6	Velocidad del viento	0
43110	7	Sololá	701	Sololá	1	Sololá	8	Agosto	2023-08-24T00:00:00	2024-11-08T07:00:00	7	Dirección del viento	0
43111	7	Sololá	701	Sololá	1	Sololá	8	Agosto	2023-08-24T00:00:00	2024-11-08T07:00:00	1	Precipitación	0
43112	7	Sololá	701	Sololá	1	Sololá	8	Agosto	2023-08-24T00:00:00	2024-11-08T07:00:00	8	Radiación solar	19
43113	7	Sololá	701	Sololá	1	Sololá	8	Agosto	2023-08-24T00:00:00	2024-11-08T08:00:00	2	Temperatura media	15.7
43114	7	Sololá	701	Sololá	1	Sololá	8	Agosto	2023-08-24T00:00:00	2024-11-08T08:00:00	4	Temperatura máxima	15.8
43115	7	Sololá	701	Sololá	1	Sololá	8	Agosto	2023-08-24T00:00:00	2024-11-08T08:00:00	3	Temperatura mínima	13.8
43116	7	Sololá	701	Sololá	1	Sololá	8	Agosto	2023-08-24T00:00:00	2024-11-08T08:00:00	5	Humedad	84
43117	7	Sololá	701	Sololá	1	Sololá	8	Agosto	2023-08-24T00:00:00	2024-11-08T08:00:00	6	Velocidad del viento	0
43118	7	Sololá	701	Sololá	1	Sololá	8	Agosto	2023-08-24T00:00:00	2024-11-08T08:00:00	7	Dirección del viento	0
43119	7	Sololá	701	Sololá	1	Sololá	8	Agosto	2023-08-24T00:00:00	2024-11-08T08:00:00	1	Precipitación	0
43120	7	Sololá	701	Sololá	1	Sololá	8	Agosto	2023-08-24T00:00:00	2024-11-08T08:00:00	8	Radiación solar	85
43121	7	Sololá	701	Sololá	1	Sololá	8	Agosto	2023-08-24T00:00:00	2024-11-08T09:00:00	2	Temperatura media	16.7
43122	7	Sololá	701	Sololá	1	Sololá	8	Agosto	2023-08-24T00:00:00	2024-11-08T09:00:00	4	Temperatura máxima	16.7
43123	7	Sololá	701	Sololá	1	Sololá	8	Agosto	2023-08-24T00:00:00	2024-11-08T09:00:00	3	Temperatura mínima	15.8
43124	7	Sololá	701	Sololá	1	Sololá	8	Agosto	2023-08-24T00:00:00	2024-11-08T09:00:00	5	Humedad	83
43125	7	Sololá	701	Sololá	1	Sololá	8	Agosto	2023-08-24T00:00:00	2024-11-08T09:00:00	6	Velocidad del viento	0
43126	7	Sololá	701	Sololá	1	Sololá	8	Agosto	2023-08-24T00:00:00	2024-11-08T09:00:00	7	Dirección del viento	0
43127	7	Sololá	701	Sololá	1	Sololá	8	Agosto	2023-08-24T00:00:00	2024-11-08T09:00:00	1	Precipitación	0
43128	7	Sololá	701	Sololá	1	Sololá	8	Agosto	2023-08-24T00:00:00	2024-11-08T09:00:00	8	Radiación solar	99
43129	7	Sololá	701	Sololá	1	Sololá	8	Agosto	2023-08-24T00:00:00	2024-11-08T10:00:00	2	Temperatura media	17
43130	7	Sololá	701	Sololá	1	Sololá	8	Agosto	2023-08-24T00:00:00	2024-11-08T10:00:00	4	Temperatura máxima	17.1
43131	7	Sololá	701	Sololá	1	Sololá	8	Agosto	2023-08-24T00:00:00	2024-11-08T10:00:00	3	Temperatura mínima	16.7
43132	7	Sololá	701	Sololá	1	Sololá	8	Agosto	2023-08-24T00:00:00	2024-11-08T10:00:00	5	Humedad	90
43133	7	Sololá	701	Sololá	1	Sololá	8	Agosto	2023-08-24T00:00:00	2024-11-08T10:00:00	6	Velocidad del viento	0
43134	7	Sololá	701	Sololá	1	Sololá	8	Agosto	2023-08-24T00:00:00	2024-11-08T10:00:00	7	Dirección del viento	0
43135	7	Sololá	701	Sololá	1	Sololá	8	Agosto	2023-08-24T00:00:00	2024-11-08T10:00:00	1	Precipitación	0
43136	7	Sololá	701	Sololá	1	Sololá	8	Agosto	2023-08-24T00:00:00	2024-11-08T10:00:00	8	Radiación solar	129
43137	7	Sololá	701	Sololá	1	Sololá	8	Agosto	2023-08-24T00:00:00	2024-11-08T11:00:00	2	Temperatura media	17.3
43138	7	Sololá	701	Sololá	1	Sololá	8	Agosto	2023-08-24T00:00:00	2024-11-08T11:00:00	4	Temperatura máxima	17.6
43139	7	Sololá	701	Sololá	1	Sololá	8	Agosto	2023-08-24T00:00:00	2024-11-08T11:00:00	3	Temperatura mínima	17
43140	7	Sololá	701	Sololá	1	Sololá	8	Agosto	2023-08-24T00:00:00	2024-11-08T11:00:00	5	Humedad	90
43141	7	Sololá	701	Sololá	1	Sololá	8	Agosto	2023-08-24T00:00:00	2024-11-08T11:00:00	6	Velocidad del viento	0
43142	7	Sololá	701	Sololá	1	Sololá	8	Agosto	2023-08-24T00:00:00	2024-11-08T11:00:00	7	Dirección del viento	0
43143	7	Sololá	701	Sololá	1	Sololá	8	Agosto	2023-08-24T00:00:00	2024-11-08T11:00:00	1	Precipitación	0
43144	7	Sololá	701	Sololá	1	Sololá	8	Agosto	2023-08-24T00:00:00	2024-11-08T11:00:00	8	Radiación solar	160
43145	7	Sololá	701	Sololá	1	Sololá	8	Agosto	2023-08-24T00:00:00	2024-11-08T12:00:00	2	Temperatura media	18.1
43146	7	Sololá	701	Sololá	1	Sololá	8	Agosto	2023-08-24T00:00:00	2024-11-08T12:00:00	4	Temperatura máxima	18.1
43147	7	Sololá	701	Sololá	1	Sololá	8	Agosto	2023-08-24T00:00:00	2024-11-08T12:00:00	3	Temperatura mínima	17.2
43148	7	Sololá	701	Sololá	1	Sololá	8	Agosto	2023-08-24T00:00:00	2024-11-08T12:00:00	5	Humedad	87
43149	7	Sololá	701	Sololá	1	Sololá	8	Agosto	2023-08-24T00:00:00	2024-11-08T12:00:00	6	Velocidad del viento	0
43150	7	Sololá	701	Sololá	1	Sololá	8	Agosto	2023-08-24T00:00:00	2024-11-08T12:00:00	7	Dirección del viento	0
43151	7	Sololá	701	Sololá	1	Sololá	8	Agosto	2023-08-24T00:00:00	2024-11-08T12:00:00	1	Precipitación	0
43152	7	Sololá	701	Sololá	1	Sololá	8	Agosto	2023-08-24T00:00:00	2024-11-08T12:00:00	8	Radiación solar	170
43153	7	Sololá	701	Sololá	1	Sololá	8	Agosto	2023-08-24T00:00:00	2024-11-08T13:00:00	2	Temperatura media	17.7
43154	7	Sololá	701	Sololá	1	Sololá	8	Agosto	2023-08-24T00:00:00	2024-11-08T13:00:00	4	Temperatura máxima	18.1
43155	7	Sololá	701	Sololá	1	Sololá	8	Agosto	2023-08-24T00:00:00	2024-11-08T13:00:00	3	Temperatura mínima	17.5
43156	7	Sololá	701	Sololá	1	Sololá	8	Agosto	2023-08-24T00:00:00	2024-11-08T13:00:00	5	Humedad	89
43157	7	Sololá	701	Sololá	1	Sololá	8	Agosto	2023-08-24T00:00:00	2024-11-08T13:00:00	6	Velocidad del viento	0
43158	7	Sololá	701	Sololá	1	Sololá	8	Agosto	2023-08-24T00:00:00	2024-11-08T13:00:00	7	Dirección del viento	0
43159	7	Sololá	701	Sololá	1	Sololá	8	Agosto	2023-08-24T00:00:00	2024-11-08T13:00:00	1	Precipitación	0
43160	7	Sololá	701	Sololá	1	Sololá	8	Agosto	2023-08-24T00:00:00	2024-11-08T13:00:00	8	Radiación solar	123
43161	7	Sololá	701	Sololá	1	Sololá	8	Agosto	2023-08-24T00:00:00	2024-11-08T14:00:00	2	Temperatura media	17.6
43162	7	Sololá	701	Sololá	1	Sololá	8	Agosto	2023-08-24T00:00:00	2024-11-08T14:00:00	4	Temperatura máxima	17.9
43163	7	Sololá	701	Sololá	1	Sololá	8	Agosto	2023-08-24T00:00:00	2024-11-08T14:00:00	3	Temperatura mínima	17.5
43164	7	Sololá	701	Sololá	1	Sololá	8	Agosto	2023-08-24T00:00:00	2024-11-08T14:00:00	5	Humedad	87
43165	7	Sololá	701	Sololá	1	Sololá	8	Agosto	2023-08-24T00:00:00	2024-11-08T14:00:00	6	Velocidad del viento	0
43166	7	Sololá	701	Sololá	1	Sololá	8	Agosto	2023-08-24T00:00:00	2024-11-08T14:00:00	7	Dirección del viento	0
43167	7	Sololá	701	Sololá	1	Sololá	8	Agosto	2023-08-24T00:00:00	2024-11-08T14:00:00	1	Precipitación	0
43168	7	Sololá	701	Sololá	1	Sololá	8	Agosto	2023-08-24T00:00:00	2024-11-08T14:00:00	8	Radiación solar	132
43169	7	Sololá	701	Sololá	1	Sololá	8	Agosto	2023-08-24T00:00:00	2024-11-08T15:00:00	2	Temperatura media	17.7
43170	7	Sololá	701	Sololá	1	Sololá	8	Agosto	2023-08-24T00:00:00	2024-11-08T15:00:00	4	Temperatura máxima	17.8
43171	7	Sololá	701	Sololá	1	Sololá	8	Agosto	2023-08-24T00:00:00	2024-11-08T15:00:00	3	Temperatura mínima	17.5
43172	7	Sololá	701	Sololá	1	Sololá	8	Agosto	2023-08-24T00:00:00	2024-11-08T15:00:00	5	Humedad	88
43173	7	Sololá	701	Sololá	1	Sololá	8	Agosto	2023-08-24T00:00:00	2024-11-08T15:00:00	6	Velocidad del viento	0
43174	7	Sololá	701	Sololá	1	Sololá	8	Agosto	2023-08-24T00:00:00	2024-11-08T15:00:00	7	Dirección del viento	0
43175	7	Sololá	701	Sololá	1	Sololá	8	Agosto	2023-08-24T00:00:00	2024-11-08T15:00:00	1	Precipitación	0
43176	7	Sololá	701	Sololá	1	Sololá	8	Agosto	2023-08-24T00:00:00	2024-11-08T15:00:00	8	Radiación solar	130
43177	7	Sololá	701	Sololá	1	Sololá	8	Agosto	2023-08-24T00:00:00	2024-11-08T16:00:00	2	Temperatura media	17.3
43178	7	Sololá	701	Sololá	1	Sololá	8	Agosto	2023-08-24T00:00:00	2024-11-08T16:00:00	4	Temperatura máxima	17.9
43179	7	Sololá	701	Sololá	1	Sololá	8	Agosto	2023-08-24T00:00:00	2024-11-08T16:00:00	3	Temperatura mínima	17.3
43180	7	Sololá	701	Sololá	1	Sololá	8	Agosto	2023-08-24T00:00:00	2024-11-08T16:00:00	5	Humedad	91
43181	7	Sololá	701	Sololá	1	Sololá	8	Agosto	2023-08-24T00:00:00	2024-11-08T16:00:00	6	Velocidad del viento	0
43182	7	Sololá	701	Sololá	1	Sololá	8	Agosto	2023-08-24T00:00:00	2024-11-08T16:00:00	7	Dirección del viento	0
43183	7	Sololá	701	Sololá	1	Sololá	8	Agosto	2023-08-24T00:00:00	2024-11-08T16:00:00	1	Precipitación	0
43184	7	Sololá	701	Sololá	1	Sololá	8	Agosto	2023-08-24T00:00:00	2024-11-08T16:00:00	8	Radiación solar	76
43185	7	Sololá	701	Sololá	1	Sololá	8	Agosto	2023-08-24T00:00:00	2024-11-08T17:00:00	2	Temperatura media	16.8
43186	7	Sololá	701	Sololá	1	Sololá	8	Agosto	2023-08-24T00:00:00	2024-11-08T17:00:00	4	Temperatura máxima	17.4
43187	7	Sololá	701	Sololá	1	Sololá	8	Agosto	2023-08-24T00:00:00	2024-11-08T17:00:00	3	Temperatura mínima	16.8
43188	7	Sololá	701	Sololá	1	Sololá	8	Agosto	2023-08-24T00:00:00	2024-11-08T17:00:00	5	Humedad	89
43189	7	Sololá	701	Sololá	1	Sololá	8	Agosto	2023-08-24T00:00:00	2024-11-08T17:00:00	6	Velocidad del viento	0
43190	7	Sololá	701	Sololá	1	Sololá	8	Agosto	2023-08-24T00:00:00	2024-11-08T17:00:00	7	Dirección del viento	0
43191	7	Sololá	701	Sololá	1	Sololá	8	Agosto	2023-08-24T00:00:00	2024-11-08T17:00:00	1	Precipitación	0
43192	7	Sololá	701	Sololá	1	Sololá	8	Agosto	2023-08-24T00:00:00	2024-11-08T17:00:00	8	Radiación solar	41
43193	7	Sololá	701	Sololá	1	Sololá	8	Agosto	2023-08-24T00:00:00	2024-11-08T18:00:00	2	Temperatura media	16.7
43194	7	Sololá	701	Sololá	1	Sololá	8	Agosto	2023-08-24T00:00:00	2024-11-08T18:00:00	4	Temperatura máxima	16.9
43195	7	Sololá	701	Sololá	1	Sololá	8	Agosto	2023-08-24T00:00:00	2024-11-08T18:00:00	3	Temperatura mínima	16.7
43196	7	Sololá	701	Sololá	1	Sololá	8	Agosto	2023-08-24T00:00:00	2024-11-08T18:00:00	5	Humedad	91
43197	7	Sololá	701	Sololá	1	Sololá	8	Agosto	2023-08-24T00:00:00	2024-11-08T18:00:00	6	Velocidad del viento	0
43198	7	Sololá	701	Sololá	1	Sololá	8	Agosto	2023-08-24T00:00:00	2024-11-08T18:00:00	7	Dirección del viento	0
43199	7	Sololá	701	Sololá	1	Sololá	8	Agosto	2023-08-24T00:00:00	2024-11-08T18:00:00	1	Precipitación	0
43200	7	Sololá	701	Sololá	1	Sololá	8	Agosto	2023-08-24T00:00:00	2024-11-08T18:00:00	8	Radiación solar	26
43201	7	Sololá	701	Sololá	1	Sololá	8	Agosto	2023-08-24T00:00:00	2024-11-08T19:00:00	2	Temperatura media	15.9
43202	7	Sololá	701	Sololá	1	Sololá	8	Agosto	2023-08-24T00:00:00	2024-11-08T19:00:00	4	Temperatura máxima	16.7
43203	7	Sololá	701	Sololá	1	Sololá	8	Agosto	2023-08-24T00:00:00	2024-11-08T19:00:00	3	Temperatura mínima	15.9
43204	7	Sololá	701	Sololá	1	Sololá	8	Agosto	2023-08-24T00:00:00	2024-11-08T19:00:00	5	Humedad	92
43205	7	Sololá	701	Sololá	1	Sololá	8	Agosto	2023-08-24T00:00:00	2024-11-08T19:00:00	6	Velocidad del viento	0
43206	7	Sololá	701	Sololá	1	Sololá	8	Agosto	2023-08-24T00:00:00	2024-11-08T19:00:00	7	Dirección del viento	0
43207	7	Sololá	701	Sololá	1	Sololá	8	Agosto	2023-08-24T00:00:00	2024-11-08T19:00:00	1	Precipitación	0
43208	7	Sololá	701	Sololá	1	Sololá	8	Agosto	2023-08-24T00:00:00	2024-11-08T19:00:00	8	Radiación solar	0
43209	7	Sololá	701	Sololá	1	Sololá	8	Agosto	2023-08-24T00:00:00	2024-11-08T20:00:00	2	Temperatura media	15.3
43210	7	Sololá	701	Sololá	1	Sololá	8	Agosto	2023-08-24T00:00:00	2024-11-08T20:00:00	4	Temperatura máxima	15.9
43211	7	Sololá	701	Sololá	1	Sololá	8	Agosto	2023-08-24T00:00:00	2024-11-08T20:00:00	3	Temperatura mínima	15.3
43212	7	Sololá	701	Sololá	1	Sololá	8	Agosto	2023-08-24T00:00:00	2024-11-08T20:00:00	5	Humedad	93
43213	7	Sololá	701	Sololá	1	Sololá	8	Agosto	2023-08-24T00:00:00	2024-11-08T20:00:00	6	Velocidad del viento	0
43214	7	Sololá	701	Sololá	1	Sololá	8	Agosto	2023-08-24T00:00:00	2024-11-08T20:00:00	7	Dirección del viento	0
43215	7	Sololá	701	Sololá	1	Sololá	8	Agosto	2023-08-24T00:00:00	2024-11-08T20:00:00	1	Precipitación	0
43216	7	Sololá	701	Sololá	1	Sololá	8	Agosto	2023-08-24T00:00:00	2024-11-08T20:00:00	8	Radiación solar	0
43217	7	Sololá	701	Sololá	1	Sololá	8	Agosto	2023-08-24T00:00:00	2024-11-08T21:00:00	2	Temperatura media	15
43218	7	Sololá	701	Sololá	1	Sololá	8	Agosto	2023-08-24T00:00:00	2024-11-08T21:00:00	4	Temperatura máxima	15.3
43219	7	Sololá	701	Sololá	1	Sololá	8	Agosto	2023-08-24T00:00:00	2024-11-08T21:00:00	3	Temperatura mínima	15
43220	7	Sololá	701	Sololá	1	Sololá	8	Agosto	2023-08-24T00:00:00	2024-11-08T21:00:00	5	Humedad	93
43221	7	Sololá	701	Sololá	1	Sololá	8	Agosto	2023-08-24T00:00:00	2024-11-08T21:00:00	6	Velocidad del viento	0
43222	7	Sololá	701	Sololá	1	Sololá	8	Agosto	2023-08-24T00:00:00	2024-11-08T21:00:00	7	Dirección del viento	0
43223	7	Sololá	701	Sololá	1	Sololá	8	Agosto	2023-08-24T00:00:00	2024-11-08T21:00:00	1	Precipitación	0
43224	7	Sololá	701	Sololá	1	Sololá	8	Agosto	2023-08-24T00:00:00	2024-11-08T21:00:00	8	Radiación solar	0
43225	7	Sololá	701	Sololá	1	Sololá	8	Agosto	2023-08-24T00:00:00	2024-11-08T22:00:00	2	Temperatura media	14.2
43226	7	Sololá	701	Sololá	1	Sololá	8	Agosto	2023-08-24T00:00:00	2024-11-08T22:00:00	4	Temperatura máxima	15.1
43227	7	Sololá	701	Sololá	1	Sololá	8	Agosto	2023-08-24T00:00:00	2024-11-08T22:00:00	3	Temperatura mínima	14.2
43228	7	Sololá	701	Sololá	1	Sololá	8	Agosto	2023-08-24T00:00:00	2024-11-08T22:00:00	5	Humedad	93
43229	7	Sololá	701	Sololá	1	Sololá	8	Agosto	2023-08-24T00:00:00	2024-11-08T22:00:00	6	Velocidad del viento	0
43230	7	Sololá	701	Sololá	1	Sololá	8	Agosto	2023-08-24T00:00:00	2024-11-08T22:00:00	7	Dirección del viento	0
43231	7	Sololá	701	Sololá	1	Sololá	8	Agosto	2023-08-24T00:00:00	2024-11-08T22:00:00	1	Precipitación	0
43232	7	Sololá	701	Sololá	1	Sololá	8	Agosto	2023-08-24T00:00:00	2024-11-08T22:00:00	8	Radiación solar	0
43233	7	Sololá	701	Sololá	1	Sololá	8	Agosto	2023-08-24T00:00:00	2024-11-08T23:00:00	2	Temperatura media	14.1
43234	7	Sololá	701	Sololá	1	Sololá	8	Agosto	2023-08-24T00:00:00	2024-11-08T23:00:00	4	Temperatura máxima	14.3
43235	7	Sololá	701	Sololá	1	Sololá	8	Agosto	2023-08-24T00:00:00	2024-11-08T23:00:00	3	Temperatura mínima	13.9
43236	7	Sololá	701	Sololá	1	Sololá	8	Agosto	2023-08-24T00:00:00	2024-11-08T23:00:00	5	Humedad	94
43237	7	Sololá	701	Sololá	1	Sololá	8	Agosto	2023-08-24T00:00:00	2024-11-08T23:00:00	6	Velocidad del viento	0
43238	7	Sololá	701	Sololá	1	Sololá	8	Agosto	2023-08-24T00:00:00	2024-11-08T23:00:00	7	Dirección del viento	0
43239	7	Sololá	701	Sololá	1	Sololá	8	Agosto	2023-08-24T00:00:00	2024-11-08T23:00:00	1	Precipitación	0
43240	7	Sololá	701	Sololá	1	Sololá	8	Agosto	2023-08-24T00:00:00	2024-11-08T23:00:00	8	Radiación solar	0
43241	7	Sololá	701	Sololá	1	Sololá	8	Agosto	2023-08-25T00:00:00	2024-11-08T00:00:00	2	Temperatura media	14.1
43242	7	Sololá	701	Sololá	1	Sololá	8	Agosto	2023-08-25T00:00:00	2024-11-08T00:00:00	4	Temperatura máxima	14.3
43243	7	Sololá	701	Sololá	1	Sololá	8	Agosto	2023-08-25T00:00:00	2024-11-08T00:00:00	3	Temperatura mínima	14
43244	7	Sololá	701	Sololá	1	Sololá	8	Agosto	2023-08-25T00:00:00	2024-11-08T00:00:00	5	Humedad	94
43245	7	Sololá	701	Sololá	1	Sololá	8	Agosto	2023-08-25T00:00:00	2024-11-08T00:00:00	6	Velocidad del viento	0
43246	7	Sololá	701	Sololá	1	Sololá	8	Agosto	2023-08-25T00:00:00	2024-11-08T00:00:00	7	Dirección del viento	0
43247	7	Sololá	701	Sololá	1	Sololá	8	Agosto	2023-08-25T00:00:00	2024-11-08T00:00:00	1	Precipitación	0
43248	7	Sololá	701	Sololá	1	Sololá	8	Agosto	2023-08-25T00:00:00	2024-11-08T00:00:00	8	Radiación solar	0
43249	7	Sololá	701	Sololá	1	Sololá	8	Agosto	2023-08-25T00:00:00	2024-11-08T01:00:00	2	Temperatura media	13.8
43250	7	Sololá	701	Sololá	1	Sololá	8	Agosto	2023-08-25T00:00:00	2024-11-08T01:00:00	4	Temperatura máxima	14.1
43251	7	Sololá	701	Sololá	1	Sololá	8	Agosto	2023-08-25T00:00:00	2024-11-08T01:00:00	3	Temperatura mínima	13.7
43252	7	Sololá	701	Sololá	1	Sololá	8	Agosto	2023-08-25T00:00:00	2024-11-08T01:00:00	5	Humedad	94
43253	7	Sololá	701	Sololá	1	Sololá	8	Agosto	2023-08-25T00:00:00	2024-11-08T01:00:00	6	Velocidad del viento	0
43254	7	Sololá	701	Sololá	1	Sololá	8	Agosto	2023-08-25T00:00:00	2024-11-08T01:00:00	7	Dirección del viento	0
43255	7	Sololá	701	Sololá	1	Sololá	8	Agosto	2023-08-25T00:00:00	2024-11-08T01:00:00	1	Precipitación	0
43256	7	Sololá	701	Sololá	1	Sololá	8	Agosto	2023-08-25T00:00:00	2024-11-08T01:00:00	8	Radiación solar	0
43257	7	Sololá	701	Sololá	1	Sololá	8	Agosto	2023-08-25T00:00:00	2024-11-08T02:00:00	2	Temperatura media	13.8
43258	7	Sololá	701	Sololá	1	Sololá	8	Agosto	2023-08-25T00:00:00	2024-11-08T02:00:00	4	Temperatura máxima	13.9
43259	7	Sololá	701	Sololá	1	Sololá	8	Agosto	2023-08-25T00:00:00	2024-11-08T02:00:00	3	Temperatura mínima	13.8
43260	7	Sololá	701	Sololá	1	Sololá	8	Agosto	2023-08-25T00:00:00	2024-11-08T02:00:00	5	Humedad	93
43261	7	Sololá	701	Sololá	1	Sololá	8	Agosto	2023-08-25T00:00:00	2024-11-08T02:00:00	6	Velocidad del viento	0
43262	7	Sololá	701	Sololá	1	Sololá	8	Agosto	2023-08-25T00:00:00	2024-11-08T02:00:00	7	Dirección del viento	0
43263	7	Sololá	701	Sololá	1	Sololá	8	Agosto	2023-08-25T00:00:00	2024-11-08T02:00:00	1	Precipitación	0
43264	7	Sololá	701	Sololá	1	Sololá	8	Agosto	2023-08-25T00:00:00	2024-11-08T02:00:00	8	Radiación solar	0
43265	7	Sololá	701	Sololá	1	Sololá	8	Agosto	2023-08-25T00:00:00	2024-11-08T03:00:00	2	Temperatura media	13.4
43266	7	Sololá	701	Sololá	1	Sololá	8	Agosto	2023-08-25T00:00:00	2024-11-08T03:00:00	4	Temperatura máxima	13.9
43267	7	Sololá	701	Sololá	1	Sololá	8	Agosto	2023-08-25T00:00:00	2024-11-08T03:00:00	3	Temperatura mínima	13.4
43268	7	Sololá	701	Sololá	1	Sololá	8	Agosto	2023-08-25T00:00:00	2024-11-08T03:00:00	5	Humedad	94
43269	7	Sololá	701	Sololá	1	Sololá	8	Agosto	2023-08-25T00:00:00	2024-11-08T03:00:00	6	Velocidad del viento	0
43270	7	Sololá	701	Sololá	1	Sololá	8	Agosto	2023-08-25T00:00:00	2024-11-08T03:00:00	7	Dirección del viento	0
43271	7	Sololá	701	Sololá	1	Sololá	8	Agosto	2023-08-25T00:00:00	2024-11-08T03:00:00	1	Precipitación	0
43272	7	Sololá	701	Sololá	1	Sololá	8	Agosto	2023-08-25T00:00:00	2024-11-08T03:00:00	8	Radiación solar	0
43273	7	Sololá	701	Sololá	1	Sololá	8	Agosto	2023-08-25T00:00:00	2024-11-08T04:00:00	2	Temperatura media	13.6
43274	7	Sololá	701	Sololá	1	Sololá	8	Agosto	2023-08-25T00:00:00	2024-11-08T04:00:00	4	Temperatura máxima	13.6
43275	7	Sololá	701	Sololá	1	Sololá	8	Agosto	2023-08-25T00:00:00	2024-11-08T04:00:00	3	Temperatura mínima	13.2
43276	7	Sololá	701	Sololá	1	Sololá	8	Agosto	2023-08-25T00:00:00	2024-11-08T04:00:00	5	Humedad	94
43277	7	Sololá	701	Sololá	1	Sololá	8	Agosto	2023-08-25T00:00:00	2024-11-08T04:00:00	6	Velocidad del viento	0
43278	7	Sololá	701	Sololá	1	Sololá	8	Agosto	2023-08-25T00:00:00	2024-11-08T04:00:00	7	Dirección del viento	0
43279	7	Sololá	701	Sololá	1	Sololá	8	Agosto	2023-08-25T00:00:00	2024-11-08T04:00:00	1	Precipitación	0
43280	7	Sololá	701	Sololá	1	Sololá	8	Agosto	2023-08-25T00:00:00	2024-11-08T04:00:00	8	Radiación solar	0
43281	7	Sololá	701	Sololá	1	Sololá	8	Agosto	2023-08-25T00:00:00	2024-11-08T05:00:00	2	Temperatura media	13.2
43282	7	Sololá	701	Sololá	1	Sololá	8	Agosto	2023-08-25T00:00:00	2024-11-08T05:00:00	4	Temperatura máxima	13.6
43283	7	Sololá	701	Sololá	1	Sololá	8	Agosto	2023-08-25T00:00:00	2024-11-08T05:00:00	3	Temperatura mínima	13.2
43284	7	Sololá	701	Sololá	1	Sololá	8	Agosto	2023-08-25T00:00:00	2024-11-08T05:00:00	5	Humedad	94
43285	7	Sololá	701	Sololá	1	Sololá	8	Agosto	2023-08-25T00:00:00	2024-11-08T05:00:00	6	Velocidad del viento	0
43286	7	Sololá	701	Sololá	1	Sololá	8	Agosto	2023-08-25T00:00:00	2024-11-08T05:00:00	7	Dirección del viento	0
43287	7	Sololá	701	Sololá	1	Sololá	8	Agosto	2023-08-25T00:00:00	2024-11-08T05:00:00	1	Precipitación	0
43288	7	Sololá	701	Sololá	1	Sololá	8	Agosto	2023-08-25T00:00:00	2024-11-08T05:00:00	8	Radiación solar	0
43289	7	Sololá	701	Sololá	1	Sololá	8	Agosto	2023-08-25T00:00:00	2024-11-08T06:00:00	2	Temperatura media	13.2
43290	7	Sololá	701	Sololá	1	Sololá	8	Agosto	2023-08-25T00:00:00	2024-11-08T06:00:00	4	Temperatura máxima	13.4
43291	7	Sololá	701	Sololá	1	Sololá	8	Agosto	2023-08-25T00:00:00	2024-11-08T06:00:00	3	Temperatura mínima	13.2
43292	7	Sololá	701	Sololá	1	Sololá	8	Agosto	2023-08-25T00:00:00	2024-11-08T06:00:00	5	Humedad	93
43293	7	Sololá	701	Sololá	1	Sololá	8	Agosto	2023-08-25T00:00:00	2024-11-08T06:00:00	6	Velocidad del viento	0
43294	7	Sololá	701	Sololá	1	Sololá	8	Agosto	2023-08-25T00:00:00	2024-11-08T06:00:00	7	Dirección del viento	0
43295	7	Sololá	701	Sololá	1	Sololá	8	Agosto	2023-08-25T00:00:00	2024-11-08T06:00:00	1	Precipitación	0
43296	7	Sololá	701	Sololá	1	Sololá	8	Agosto	2023-08-25T00:00:00	2024-11-08T06:00:00	8	Radiación solar	0
43297	7	Sololá	701	Sololá	1	Sololá	8	Agosto	2023-08-25T00:00:00	2024-11-08T07:00:00	2	Temperatura media	13.3
43298	7	Sololá	701	Sololá	1	Sololá	8	Agosto	2023-08-25T00:00:00	2024-11-08T07:00:00	4	Temperatura máxima	13.3
43299	7	Sololá	701	Sololá	1	Sololá	8	Agosto	2023-08-25T00:00:00	2024-11-08T07:00:00	3	Temperatura mínima	12.9
43300	7	Sololá	701	Sololá	1	Sololá	8	Agosto	2023-08-25T00:00:00	2024-11-08T07:00:00	5	Humedad	93
43301	7	Sololá	701	Sololá	1	Sololá	8	Agosto	2023-08-25T00:00:00	2024-11-08T07:00:00	6	Velocidad del viento	0
43302	7	Sololá	701	Sololá	1	Sololá	8	Agosto	2023-08-25T00:00:00	2024-11-08T07:00:00	7	Dirección del viento	0
43303	7	Sololá	701	Sololá	1	Sololá	8	Agosto	2023-08-25T00:00:00	2024-11-08T07:00:00	1	Precipitación	0
43304	7	Sololá	701	Sololá	1	Sololá	8	Agosto	2023-08-25T00:00:00	2024-11-08T07:00:00	8	Radiación solar	16
43305	7	Sololá	701	Sololá	1	Sololá	8	Agosto	2023-08-25T00:00:00	2024-11-08T08:00:00	2	Temperatura media	15.9
43306	7	Sololá	701	Sololá	1	Sololá	8	Agosto	2023-08-25T00:00:00	2024-11-08T08:00:00	4	Temperatura máxima	15.9
43307	7	Sololá	701	Sololá	1	Sololá	8	Agosto	2023-08-25T00:00:00	2024-11-08T08:00:00	3	Temperatura mínima	13.3
43308	7	Sololá	701	Sololá	1	Sololá	8	Agosto	2023-08-25T00:00:00	2024-11-08T08:00:00	5	Humedad	89
43309	7	Sololá	701	Sololá	1	Sololá	8	Agosto	2023-08-25T00:00:00	2024-11-08T08:00:00	6	Velocidad del viento	0
43310	7	Sololá	701	Sololá	1	Sololá	8	Agosto	2023-08-25T00:00:00	2024-11-08T08:00:00	7	Dirección del viento	0
43311	7	Sololá	701	Sololá	1	Sololá	8	Agosto	2023-08-25T00:00:00	2024-11-08T08:00:00	1	Precipitación	0
43312	7	Sololá	701	Sololá	1	Sololá	8	Agosto	2023-08-25T00:00:00	2024-11-08T08:00:00	8	Radiación solar	171
43313	7	Sololá	701	Sololá	1	Sololá	8	Agosto	2023-08-25T00:00:00	2024-11-08T09:00:00	2	Temperatura media	19.7
43314	7	Sololá	701	Sololá	1	Sololá	8	Agosto	2023-08-25T00:00:00	2024-11-08T09:00:00	4	Temperatura máxima	19.7
43315	7	Sololá	701	Sololá	1	Sololá	8	Agosto	2023-08-25T00:00:00	2024-11-08T09:00:00	3	Temperatura mínima	15.9
43316	7	Sololá	701	Sololá	1	Sololá	8	Agosto	2023-08-25T00:00:00	2024-11-08T09:00:00	5	Humedad	83
43317	7	Sololá	701	Sololá	1	Sololá	8	Agosto	2023-08-25T00:00:00	2024-11-08T09:00:00	6	Velocidad del viento	0
43318	7	Sololá	701	Sololá	1	Sololá	8	Agosto	2023-08-25T00:00:00	2024-11-08T09:00:00	7	Dirección del viento	0
43319	7	Sololá	701	Sololá	1	Sololá	8	Agosto	2023-08-25T00:00:00	2024-11-08T09:00:00	1	Precipitación	0
43320	7	Sololá	701	Sololá	1	Sololá	8	Agosto	2023-08-25T00:00:00	2024-11-08T09:00:00	8	Radiación solar	669
43321	7	Sololá	701	Sololá	1	Sololá	8	Agosto	2023-08-25T00:00:00	2024-11-08T10:00:00	2	Temperatura media	20.6
43322	7	Sololá	701	Sololá	1	Sololá	8	Agosto	2023-08-25T00:00:00	2024-11-08T10:00:00	4	Temperatura máxima	20.6
43323	7	Sololá	701	Sololá	1	Sololá	8	Agosto	2023-08-25T00:00:00	2024-11-08T10:00:00	3	Temperatura mínima	19.4
43324	7	Sololá	701	Sololá	1	Sololá	8	Agosto	2023-08-25T00:00:00	2024-11-08T10:00:00	5	Humedad	79
43325	7	Sololá	701	Sololá	1	Sololá	8	Agosto	2023-08-25T00:00:00	2024-11-08T10:00:00	6	Velocidad del viento	0
43326	7	Sololá	701	Sololá	1	Sololá	8	Agosto	2023-08-25T00:00:00	2024-11-08T10:00:00	7	Dirección del viento	0
43327	7	Sololá	701	Sololá	1	Sololá	8	Agosto	2023-08-25T00:00:00	2024-11-08T10:00:00	1	Precipitación	0
43328	7	Sololá	701	Sololá	1	Sololá	8	Agosto	2023-08-25T00:00:00	2024-11-08T10:00:00	8	Radiación solar	860
43329	7	Sololá	701	Sololá	1	Sololá	8	Agosto	2023-08-25T00:00:00	2024-11-08T11:00:00	2	Temperatura media	19.9
43330	7	Sololá	701	Sololá	1	Sololá	8	Agosto	2023-08-25T00:00:00	2024-11-08T11:00:00	4	Temperatura máxima	20.9
43331	7	Sololá	701	Sololá	1	Sololá	8	Agosto	2023-08-25T00:00:00	2024-11-08T11:00:00	3	Temperatura mínima	19.9
43332	7	Sololá	701	Sololá	1	Sololá	8	Agosto	2023-08-25T00:00:00	2024-11-08T11:00:00	5	Humedad	81
43333	7	Sololá	701	Sololá	1	Sololá	8	Agosto	2023-08-25T00:00:00	2024-11-08T11:00:00	6	Velocidad del viento	0
43334	7	Sololá	701	Sololá	1	Sololá	8	Agosto	2023-08-25T00:00:00	2024-11-08T11:00:00	7	Dirección del viento	0
43335	7	Sololá	701	Sololá	1	Sololá	8	Agosto	2023-08-25T00:00:00	2024-11-08T11:00:00	1	Precipitación	0
43336	7	Sololá	701	Sololá	1	Sololá	8	Agosto	2023-08-25T00:00:00	2024-11-08T11:00:00	8	Radiación solar	417
43337	7	Sololá	701	Sololá	1	Sololá	8	Agosto	2023-08-25T00:00:00	2024-11-08T12:00:00	2	Temperatura media	20.9
43338	7	Sololá	701	Sololá	1	Sololá	8	Agosto	2023-08-25T00:00:00	2024-11-08T12:00:00	4	Temperatura máxima	21
43339	7	Sololá	701	Sololá	1	Sololá	8	Agosto	2023-08-25T00:00:00	2024-11-08T12:00:00	3	Temperatura mínima	19.8
43340	7	Sololá	701	Sololá	1	Sololá	8	Agosto	2023-08-25T00:00:00	2024-11-08T12:00:00	5	Humedad	79
43341	7	Sololá	701	Sololá	1	Sololá	8	Agosto	2023-08-25T00:00:00	2024-11-08T12:00:00	6	Velocidad del viento	0
43342	7	Sololá	701	Sololá	1	Sololá	8	Agosto	2023-08-25T00:00:00	2024-11-08T12:00:00	7	Dirección del viento	0
43343	7	Sololá	701	Sololá	1	Sololá	8	Agosto	2023-08-25T00:00:00	2024-11-08T12:00:00	1	Precipitación	0
43344	7	Sololá	701	Sololá	1	Sololá	8	Agosto	2023-08-25T00:00:00	2024-11-08T12:00:00	8	Radiación solar	318
43345	7	Sololá	701	Sololá	1	Sololá	8	Agosto	2023-08-25T00:00:00	2024-11-08T13:00:00	2	Temperatura media	20.8
43346	7	Sololá	701	Sololá	1	Sololá	8	Agosto	2023-08-25T00:00:00	2024-11-08T13:00:00	4	Temperatura máxima	21.3
43347	7	Sololá	701	Sololá	1	Sololá	8	Agosto	2023-08-25T00:00:00	2024-11-08T13:00:00	3	Temperatura mínima	20.8
43348	7	Sololá	701	Sololá	1	Sololá	8	Agosto	2023-08-25T00:00:00	2024-11-08T13:00:00	5	Humedad	82
43349	7	Sololá	701	Sololá	1	Sololá	8	Agosto	2023-08-25T00:00:00	2024-11-08T13:00:00	6	Velocidad del viento	0
43350	7	Sololá	701	Sololá	1	Sololá	8	Agosto	2023-08-25T00:00:00	2024-11-08T13:00:00	7	Dirección del viento	0
43351	7	Sololá	701	Sololá	1	Sololá	8	Agosto	2023-08-25T00:00:00	2024-11-08T13:00:00	1	Precipitación	0
43352	7	Sololá	701	Sololá	1	Sololá	8	Agosto	2023-08-25T00:00:00	2024-11-08T13:00:00	8	Radiación solar	305
43353	7	Sololá	701	Sololá	1	Sololá	8	Agosto	2023-08-25T00:00:00	2024-11-08T14:00:00	2	Temperatura media	19.8
43354	7	Sololá	701	Sololá	1	Sololá	8	Agosto	2023-08-25T00:00:00	2024-11-08T14:00:00	4	Temperatura máxima	20.8
43355	7	Sololá	701	Sololá	1	Sololá	8	Agosto	2023-08-25T00:00:00	2024-11-08T14:00:00	3	Temperatura mínima	19.4
43356	7	Sololá	701	Sololá	1	Sololá	8	Agosto	2023-08-25T00:00:00	2024-11-08T14:00:00	5	Humedad	86
43357	7	Sololá	701	Sololá	1	Sololá	8	Agosto	2023-08-25T00:00:00	2024-11-08T14:00:00	6	Velocidad del viento	0
43358	7	Sololá	701	Sololá	1	Sololá	8	Agosto	2023-08-25T00:00:00	2024-11-08T14:00:00	7	Dirección del viento	0
43359	7	Sololá	701	Sololá	1	Sololá	8	Agosto	2023-08-25T00:00:00	2024-11-08T14:00:00	1	Precipitación	0
43360	7	Sololá	701	Sololá	1	Sololá	8	Agosto	2023-08-25T00:00:00	2024-11-08T14:00:00	8	Radiación solar	200
43361	7	Sololá	701	Sololá	1	Sololá	8	Agosto	2023-08-25T00:00:00	2024-11-08T15:00:00	2	Temperatura media	19.6
43362	7	Sololá	701	Sololá	1	Sololá	8	Agosto	2023-08-25T00:00:00	2024-11-08T15:00:00	4	Temperatura máxima	20.1
43363	7	Sololá	701	Sololá	1	Sololá	8	Agosto	2023-08-25T00:00:00	2024-11-08T15:00:00	3	Temperatura mínima	19.6
43364	7	Sololá	701	Sololá	1	Sololá	8	Agosto	2023-08-25T00:00:00	2024-11-08T15:00:00	5	Humedad	86
43365	7	Sololá	701	Sololá	1	Sololá	8	Agosto	2023-08-25T00:00:00	2024-11-08T15:00:00	6	Velocidad del viento	0
43366	7	Sololá	701	Sololá	1	Sololá	8	Agosto	2023-08-25T00:00:00	2024-11-08T15:00:00	7	Dirección del viento	0
43367	7	Sololá	701	Sololá	1	Sololá	8	Agosto	2023-08-25T00:00:00	2024-11-08T15:00:00	1	Precipitación	0
43368	7	Sololá	701	Sololá	1	Sololá	8	Agosto	2023-08-25T00:00:00	2024-11-08T15:00:00	8	Radiación solar	139
43369	7	Sololá	701	Sololá	1	Sololá	8	Agosto	2023-08-25T00:00:00	2024-11-08T16:00:00	2	Temperatura media	18.2
43370	7	Sololá	701	Sololá	1	Sololá	8	Agosto	2023-08-25T00:00:00	2024-11-08T16:00:00	4	Temperatura máxima	19.6
43371	7	Sololá	701	Sololá	1	Sololá	8	Agosto	2023-08-25T00:00:00	2024-11-08T16:00:00	3	Temperatura mínima	18.2
43372	7	Sololá	701	Sololá	1	Sololá	8	Agosto	2023-08-25T00:00:00	2024-11-08T16:00:00	5	Humedad	90
43373	7	Sololá	701	Sololá	1	Sololá	8	Agosto	2023-08-25T00:00:00	2024-11-08T16:00:00	6	Velocidad del viento	0
43374	7	Sololá	701	Sololá	1	Sololá	8	Agosto	2023-08-25T00:00:00	2024-11-08T16:00:00	7	Dirección del viento	0
43375	7	Sololá	701	Sololá	1	Sololá	8	Agosto	2023-08-25T00:00:00	2024-11-08T16:00:00	1	Precipitación	0
43376	7	Sololá	701	Sololá	1	Sololá	8	Agosto	2023-08-25T00:00:00	2024-11-08T16:00:00	8	Radiación solar	52
43377	7	Sololá	701	Sololá	1	Sololá	8	Agosto	2023-08-25T00:00:00	2024-11-08T17:00:00	2	Temperatura media	17.8
43378	7	Sololá	701	Sololá	1	Sololá	8	Agosto	2023-08-25T00:00:00	2024-11-08T17:00:00	4	Temperatura máxima	18.2
43379	7	Sololá	701	Sololá	1	Sololá	8	Agosto	2023-08-25T00:00:00	2024-11-08T17:00:00	3	Temperatura mínima	17.8
43380	7	Sololá	701	Sololá	1	Sololá	8	Agosto	2023-08-25T00:00:00	2024-11-08T17:00:00	5	Humedad	91
43381	7	Sololá	701	Sololá	1	Sololá	8	Agosto	2023-08-25T00:00:00	2024-11-08T17:00:00	6	Velocidad del viento	0
43382	7	Sololá	701	Sololá	1	Sololá	8	Agosto	2023-08-25T00:00:00	2024-11-08T17:00:00	7	Dirección del viento	0
43383	7	Sololá	701	Sololá	1	Sololá	8	Agosto	2023-08-25T00:00:00	2024-11-08T17:00:00	1	Precipitación	0
43384	7	Sololá	701	Sololá	1	Sololá	8	Agosto	2023-08-25T00:00:00	2024-11-08T17:00:00	8	Radiación solar	47
43385	7	Sololá	701	Sololá	1	Sololá	8	Agosto	2023-08-25T00:00:00	2024-11-08T18:00:00	2	Temperatura media	17.7
43386	7	Sololá	701	Sololá	1	Sololá	8	Agosto	2023-08-25T00:00:00	2024-11-08T18:00:00	4	Temperatura máxima	17.9
43387	7	Sololá	701	Sololá	1	Sololá	8	Agosto	2023-08-25T00:00:00	2024-11-08T18:00:00	3	Temperatura mínima	17.7
43388	7	Sololá	701	Sololá	1	Sololá	8	Agosto	2023-08-25T00:00:00	2024-11-08T18:00:00	5	Humedad	92
43389	7	Sololá	701	Sololá	1	Sololá	8	Agosto	2023-08-25T00:00:00	2024-11-08T18:00:00	6	Velocidad del viento	0
43390	7	Sololá	701	Sololá	1	Sololá	8	Agosto	2023-08-25T00:00:00	2024-11-08T18:00:00	7	Dirección del viento	0
43391	7	Sololá	701	Sololá	1	Sololá	8	Agosto	2023-08-25T00:00:00	2024-11-08T18:00:00	1	Precipitación	0
43392	7	Sololá	701	Sololá	1	Sololá	8	Agosto	2023-08-25T00:00:00	2024-11-08T18:00:00	8	Radiación solar	25
43393	7	Sololá	701	Sololá	1	Sololá	8	Agosto	2023-08-25T00:00:00	2024-11-08T19:00:00	2	Temperatura media	17.1
43394	7	Sololá	701	Sololá	1	Sololá	8	Agosto	2023-08-25T00:00:00	2024-11-08T19:00:00	4	Temperatura máxima	17.7
43395	7	Sololá	701	Sololá	1	Sololá	8	Agosto	2023-08-25T00:00:00	2024-11-08T19:00:00	3	Temperatura mínima	17.1
43396	7	Sololá	701	Sololá	1	Sololá	8	Agosto	2023-08-25T00:00:00	2024-11-08T19:00:00	5	Humedad	93
43397	7	Sololá	701	Sololá	1	Sololá	8	Agosto	2023-08-25T00:00:00	2024-11-08T19:00:00	6	Velocidad del viento	0
43398	7	Sololá	701	Sololá	1	Sololá	8	Agosto	2023-08-25T00:00:00	2024-11-08T19:00:00	7	Dirección del viento	0
43399	7	Sololá	701	Sololá	1	Sololá	8	Agosto	2023-08-25T00:00:00	2024-11-08T19:00:00	1	Precipitación	0
43400	7	Sololá	701	Sololá	1	Sololá	8	Agosto	2023-08-25T00:00:00	2024-11-08T19:00:00	8	Radiación solar	0
43401	7	Sololá	701	Sololá	1	Sololá	8	Agosto	2023-08-25T00:00:00	2024-11-08T20:00:00	2	Temperatura media	16.8
43402	7	Sololá	701	Sololá	1	Sololá	8	Agosto	2023-08-25T00:00:00	2024-11-08T20:00:00	4	Temperatura máxima	17.2
43403	7	Sololá	701	Sololá	1	Sololá	8	Agosto	2023-08-25T00:00:00	2024-11-08T20:00:00	3	Temperatura mínima	16.8
43404	7	Sololá	701	Sololá	1	Sololá	8	Agosto	2023-08-25T00:00:00	2024-11-08T20:00:00	5	Humedad	94
43405	7	Sololá	701	Sololá	1	Sololá	8	Agosto	2023-08-25T00:00:00	2024-11-08T20:00:00	6	Velocidad del viento	0
43406	7	Sololá	701	Sololá	1	Sololá	8	Agosto	2023-08-25T00:00:00	2024-11-08T20:00:00	7	Dirección del viento	0
43407	7	Sololá	701	Sololá	1	Sololá	8	Agosto	2023-08-25T00:00:00	2024-11-08T20:00:00	1	Precipitación	0
43408	7	Sololá	701	Sololá	1	Sololá	8	Agosto	2023-08-25T00:00:00	2024-11-08T20:00:00	8	Radiación solar	0
43409	7	Sololá	701	Sololá	1	Sololá	8	Agosto	2023-08-25T00:00:00	2024-11-08T21:00:00	2	Temperatura media	16.7
43410	7	Sololá	701	Sololá	1	Sololá	8	Agosto	2023-08-25T00:00:00	2024-11-08T21:00:00	4	Temperatura máxima	16.9
43411	7	Sololá	701	Sololá	1	Sololá	8	Agosto	2023-08-25T00:00:00	2024-11-08T21:00:00	3	Temperatura mínima	16.6
43412	7	Sololá	701	Sololá	1	Sololá	8	Agosto	2023-08-25T00:00:00	2024-11-08T21:00:00	5	Humedad	95
43413	7	Sololá	701	Sololá	1	Sololá	8	Agosto	2023-08-25T00:00:00	2024-11-08T21:00:00	6	Velocidad del viento	0
43414	7	Sololá	701	Sololá	1	Sololá	8	Agosto	2023-08-25T00:00:00	2024-11-08T21:00:00	7	Dirección del viento	0
43415	7	Sololá	701	Sololá	1	Sololá	8	Agosto	2023-08-25T00:00:00	2024-11-08T21:00:00	1	Precipitación	0
43416	7	Sololá	701	Sololá	1	Sololá	8	Agosto	2023-08-25T00:00:00	2024-11-08T21:00:00	8	Radiación solar	0
43417	7	Sololá	701	Sololá	1	Sololá	8	Agosto	2023-08-25T00:00:00	2024-11-08T22:00:00	2	Temperatura media	16.4
43418	7	Sololá	701	Sololá	1	Sololá	8	Agosto	2023-08-25T00:00:00	2024-11-08T22:00:00	4	Temperatura máxima	16.7
43419	7	Sololá	701	Sololá	1	Sololá	8	Agosto	2023-08-25T00:00:00	2024-11-08T22:00:00	3	Temperatura mínima	16.4
43420	7	Sololá	701	Sololá	1	Sololá	8	Agosto	2023-08-25T00:00:00	2024-11-08T22:00:00	5	Humedad	95
43421	7	Sololá	701	Sololá	1	Sololá	8	Agosto	2023-08-25T00:00:00	2024-11-08T22:00:00	6	Velocidad del viento	0
43422	7	Sololá	701	Sololá	1	Sololá	8	Agosto	2023-08-25T00:00:00	2024-11-08T22:00:00	7	Dirección del viento	0
43423	7	Sololá	701	Sololá	1	Sololá	8	Agosto	2023-08-25T00:00:00	2024-11-08T22:00:00	1	Precipitación	0
43424	7	Sololá	701	Sololá	1	Sololá	8	Agosto	2023-08-25T00:00:00	2024-11-08T22:00:00	8	Radiación solar	0
43425	7	Sololá	701	Sololá	1	Sololá	8	Agosto	2023-08-25T00:00:00	2024-11-08T23:00:00	2	Temperatura media	16.2
43426	7	Sololá	701	Sololá	1	Sololá	8	Agosto	2023-08-25T00:00:00	2024-11-08T23:00:00	4	Temperatura máxima	16.4
43427	7	Sololá	701	Sololá	1	Sololá	8	Agosto	2023-08-25T00:00:00	2024-11-08T23:00:00	3	Temperatura mínima	16.2
43428	7	Sololá	701	Sololá	1	Sololá	8	Agosto	2023-08-25T00:00:00	2024-11-08T23:00:00	5	Humedad	95
43429	7	Sololá	701	Sololá	1	Sololá	8	Agosto	2023-08-25T00:00:00	2024-11-08T23:00:00	6	Velocidad del viento	0
43430	7	Sololá	701	Sololá	1	Sololá	8	Agosto	2023-08-25T00:00:00	2024-11-08T23:00:00	7	Dirección del viento	0
43431	7	Sololá	701	Sololá	1	Sololá	8	Agosto	2023-08-25T00:00:00	2024-11-08T23:00:00	1	Precipitación	0
43432	7	Sololá	701	Sololá	1	Sololá	8	Agosto	2023-08-25T00:00:00	2024-11-08T23:00:00	8	Radiación solar	0
43433	7	Sololá	701	Sololá	1	Sololá	8	Agosto	2023-08-26T00:00:00	2024-11-08T00:00:00	2	Temperatura media	16.2
43434	7	Sololá	701	Sololá	1	Sololá	8	Agosto	2023-08-26T00:00:00	2024-11-08T00:00:00	4	Temperatura máxima	16.3
43435	7	Sololá	701	Sololá	1	Sololá	8	Agosto	2023-08-26T00:00:00	2024-11-08T00:00:00	3	Temperatura mínima	16.1
43436	7	Sololá	701	Sololá	1	Sololá	8	Agosto	2023-08-26T00:00:00	2024-11-08T00:00:00	5	Humedad	95
43437	7	Sololá	701	Sololá	1	Sololá	8	Agosto	2023-08-26T00:00:00	2024-11-08T00:00:00	6	Velocidad del viento	0
43438	7	Sololá	701	Sololá	1	Sololá	8	Agosto	2023-08-26T00:00:00	2024-11-08T00:00:00	7	Dirección del viento	0
43439	7	Sololá	701	Sololá	1	Sololá	8	Agosto	2023-08-26T00:00:00	2024-11-08T00:00:00	1	Precipitación	0
43440	7	Sololá	701	Sololá	1	Sololá	8	Agosto	2023-08-26T00:00:00	2024-11-08T00:00:00	8	Radiación solar	0
43441	7	Sololá	701	Sololá	1	Sololá	8	Agosto	2023-08-26T00:00:00	2024-11-08T01:00:00	2	Temperatura media	15.8
43442	7	Sololá	701	Sololá	1	Sololá	8	Agosto	2023-08-26T00:00:00	2024-11-08T01:00:00	4	Temperatura máxima	16.2
43443	7	Sololá	701	Sololá	1	Sololá	8	Agosto	2023-08-26T00:00:00	2024-11-08T01:00:00	3	Temperatura mínima	15.8
43444	7	Sololá	701	Sololá	1	Sololá	8	Agosto	2023-08-26T00:00:00	2024-11-08T01:00:00	5	Humedad	94
43445	7	Sololá	701	Sololá	1	Sololá	8	Agosto	2023-08-26T00:00:00	2024-11-08T01:00:00	6	Velocidad del viento	0
43446	7	Sololá	701	Sololá	1	Sololá	8	Agosto	2023-08-26T00:00:00	2024-11-08T01:00:00	7	Dirección del viento	0
43447	7	Sololá	701	Sololá	1	Sololá	8	Agosto	2023-08-26T00:00:00	2024-11-08T01:00:00	1	Precipitación	0
43448	7	Sololá	701	Sololá	1	Sololá	8	Agosto	2023-08-26T00:00:00	2024-11-08T01:00:00	8	Radiación solar	0
43449	7	Sololá	701	Sololá	1	Sololá	8	Agosto	2023-08-26T00:00:00	2024-11-08T02:00:00	2	Temperatura media	15.1
43450	7	Sololá	701	Sololá	1	Sololá	8	Agosto	2023-08-26T00:00:00	2024-11-08T02:00:00	4	Temperatura máxima	15.8
43451	7	Sololá	701	Sololá	1	Sololá	8	Agosto	2023-08-26T00:00:00	2024-11-08T02:00:00	3	Temperatura mínima	15.1
43452	7	Sololá	701	Sololá	1	Sololá	8	Agosto	2023-08-26T00:00:00	2024-11-08T02:00:00	5	Humedad	94
43453	7	Sololá	701	Sololá	1	Sololá	8	Agosto	2023-08-26T00:00:00	2024-11-08T02:00:00	6	Velocidad del viento	0
43454	7	Sololá	701	Sololá	1	Sololá	8	Agosto	2023-08-26T00:00:00	2024-11-08T02:00:00	7	Dirección del viento	0
43455	7	Sololá	701	Sololá	1	Sololá	8	Agosto	2023-08-26T00:00:00	2024-11-08T02:00:00	1	Precipitación	0
43456	7	Sololá	701	Sololá	1	Sololá	8	Agosto	2023-08-26T00:00:00	2024-11-08T02:00:00	8	Radiación solar	0
43457	7	Sololá	701	Sololá	1	Sololá	8	Agosto	2023-08-26T00:00:00	2024-11-08T03:00:00	2	Temperatura media	14.5
43458	7	Sololá	701	Sololá	1	Sololá	8	Agosto	2023-08-26T00:00:00	2024-11-08T03:00:00	4	Temperatura máxima	15.1
43459	7	Sololá	701	Sololá	1	Sololá	8	Agosto	2023-08-26T00:00:00	2024-11-08T03:00:00	3	Temperatura mínima	14.5
43460	7	Sololá	701	Sololá	1	Sololá	8	Agosto	2023-08-26T00:00:00	2024-11-08T03:00:00	5	Humedad	93
43461	7	Sololá	701	Sololá	1	Sololá	8	Agosto	2023-08-26T00:00:00	2024-11-08T03:00:00	6	Velocidad del viento	0
43462	7	Sololá	701	Sololá	1	Sololá	8	Agosto	2023-08-26T00:00:00	2024-11-08T03:00:00	7	Dirección del viento	0
43463	7	Sololá	701	Sololá	1	Sololá	8	Agosto	2023-08-26T00:00:00	2024-11-08T03:00:00	1	Precipitación	0
43464	7	Sololá	701	Sololá	1	Sololá	8	Agosto	2023-08-26T00:00:00	2024-11-08T03:00:00	8	Radiación solar	0
43465	7	Sololá	701	Sololá	1	Sololá	8	Agosto	2023-08-26T00:00:00	2024-11-08T04:00:00	2	Temperatura media	13.8
43466	7	Sololá	701	Sololá	1	Sololá	8	Agosto	2023-08-26T00:00:00	2024-11-08T04:00:00	4	Temperatura máxima	14.5
43467	7	Sololá	701	Sololá	1	Sololá	8	Agosto	2023-08-26T00:00:00	2024-11-08T04:00:00	3	Temperatura mínima	13.8
43468	7	Sololá	701	Sololá	1	Sololá	8	Agosto	2023-08-26T00:00:00	2024-11-08T04:00:00	5	Humedad	92
43469	7	Sololá	701	Sololá	1	Sololá	8	Agosto	2023-08-26T00:00:00	2024-11-08T04:00:00	6	Velocidad del viento	0
43470	7	Sololá	701	Sololá	1	Sololá	8	Agosto	2023-08-26T00:00:00	2024-11-08T04:00:00	7	Dirección del viento	0
43471	7	Sololá	701	Sololá	1	Sololá	8	Agosto	2023-08-26T00:00:00	2024-11-08T04:00:00	1	Precipitación	0
43472	7	Sololá	701	Sololá	1	Sololá	8	Agosto	2023-08-26T00:00:00	2024-11-08T04:00:00	8	Radiación solar	0
43473	7	Sololá	701	Sololá	1	Sololá	8	Agosto	2023-08-26T00:00:00	2024-11-08T05:00:00	2	Temperatura media	13.8
43474	7	Sololá	701	Sololá	1	Sololá	8	Agosto	2023-08-26T00:00:00	2024-11-08T05:00:00	4	Temperatura máxima	13.9
43475	7	Sololá	701	Sololá	1	Sololá	8	Agosto	2023-08-26T00:00:00	2024-11-08T05:00:00	3	Temperatura mínima	13.6
43476	7	Sololá	701	Sololá	1	Sololá	8	Agosto	2023-08-26T00:00:00	2024-11-08T05:00:00	5	Humedad	93
43477	7	Sololá	701	Sololá	1	Sololá	8	Agosto	2023-08-26T00:00:00	2024-11-08T05:00:00	6	Velocidad del viento	0
43478	7	Sololá	701	Sololá	1	Sololá	8	Agosto	2023-08-26T00:00:00	2024-11-08T05:00:00	7	Dirección del viento	0
43479	7	Sololá	701	Sololá	1	Sololá	8	Agosto	2023-08-26T00:00:00	2024-11-08T05:00:00	1	Precipitación	0
43480	7	Sololá	701	Sololá	1	Sololá	8	Agosto	2023-08-26T00:00:00	2024-11-08T05:00:00	8	Radiación solar	0
43481	7	Sololá	701	Sololá	1	Sololá	8	Agosto	2023-08-26T00:00:00	2024-11-08T06:00:00	2	Temperatura media	13.9
43482	7	Sololá	701	Sololá	1	Sololá	8	Agosto	2023-08-26T00:00:00	2024-11-08T06:00:00	4	Temperatura máxima	13.9
43483	7	Sololá	701	Sololá	1	Sololá	8	Agosto	2023-08-26T00:00:00	2024-11-08T06:00:00	3	Temperatura mínima	13.7
43484	7	Sololá	701	Sololá	1	Sololá	8	Agosto	2023-08-26T00:00:00	2024-11-08T06:00:00	5	Humedad	94
43485	7	Sololá	701	Sololá	1	Sololá	8	Agosto	2023-08-26T00:00:00	2024-11-08T06:00:00	6	Velocidad del viento	0
43486	7	Sololá	701	Sololá	1	Sololá	8	Agosto	2023-08-26T00:00:00	2024-11-08T06:00:00	7	Dirección del viento	0
43487	7	Sololá	701	Sololá	1	Sololá	8	Agosto	2023-08-26T00:00:00	2024-11-08T06:00:00	1	Precipitación	0
43488	7	Sololá	701	Sololá	1	Sololá	8	Agosto	2023-08-26T00:00:00	2024-11-08T06:00:00	8	Radiación solar	0
43489	7	Sololá	701	Sololá	1	Sololá	8	Agosto	2023-08-26T00:00:00	2024-11-08T07:00:00	2	Temperatura media	14.7
43490	7	Sololá	701	Sololá	1	Sololá	8	Agosto	2023-08-26T00:00:00	2024-11-08T07:00:00	4	Temperatura máxima	14.7
43491	7	Sololá	701	Sololá	1	Sololá	8	Agosto	2023-08-26T00:00:00	2024-11-08T07:00:00	3	Temperatura mínima	13.9
43492	7	Sololá	701	Sololá	1	Sololá	8	Agosto	2023-08-26T00:00:00	2024-11-08T07:00:00	5	Humedad	93
43493	7	Sololá	701	Sololá	1	Sololá	8	Agosto	2023-08-26T00:00:00	2024-11-08T07:00:00	6	Velocidad del viento	0
43494	7	Sololá	701	Sololá	1	Sololá	8	Agosto	2023-08-26T00:00:00	2024-11-08T07:00:00	7	Dirección del viento	0
43495	7	Sololá	701	Sololá	1	Sololá	8	Agosto	2023-08-26T00:00:00	2024-11-08T07:00:00	1	Precipitación	0
43496	7	Sololá	701	Sololá	1	Sololá	8	Agosto	2023-08-26T00:00:00	2024-11-08T07:00:00	8	Radiación solar	31
43497	7	Sololá	701	Sololá	1	Sololá	8	Agosto	2023-08-26T00:00:00	2024-11-08T08:00:00	2	Temperatura media	18.8
43498	7	Sololá	701	Sololá	1	Sololá	8	Agosto	2023-08-26T00:00:00	2024-11-08T08:00:00	4	Temperatura máxima	18.8
43499	7	Sololá	701	Sololá	1	Sololá	8	Agosto	2023-08-26T00:00:00	2024-11-08T08:00:00	3	Temperatura mínima	14.7
43500	7	Sololá	701	Sololá	1	Sololá	8	Agosto	2023-08-26T00:00:00	2024-11-08T08:00:00	5	Humedad	83
43501	7	Sololá	701	Sololá	1	Sololá	8	Agosto	2023-08-26T00:00:00	2024-11-08T08:00:00	6	Velocidad del viento	0
43502	7	Sololá	701	Sololá	1	Sololá	8	Agosto	2023-08-26T00:00:00	2024-11-08T08:00:00	7	Dirección del viento	0
43503	7	Sololá	701	Sololá	1	Sololá	8	Agosto	2023-08-26T00:00:00	2024-11-08T08:00:00	1	Precipitación	0
43504	7	Sololá	701	Sololá	1	Sololá	8	Agosto	2023-08-26T00:00:00	2024-11-08T08:00:00	8	Radiación solar	257
43505	7	Sololá	701	Sololá	1	Sololá	8	Agosto	2023-08-26T00:00:00	2024-11-08T09:00:00	2	Temperatura media	20.7
43506	7	Sololá	701	Sololá	1	Sololá	8	Agosto	2023-08-26T00:00:00	2024-11-08T09:00:00	4	Temperatura máxima	20.7
43507	7	Sololá	701	Sololá	1	Sololá	8	Agosto	2023-08-26T00:00:00	2024-11-08T09:00:00	3	Temperatura mínima	18.8
43508	7	Sololá	701	Sololá	1	Sololá	8	Agosto	2023-08-26T00:00:00	2024-11-08T09:00:00	5	Humedad	81
43509	7	Sololá	701	Sololá	1	Sololá	8	Agosto	2023-08-26T00:00:00	2024-11-08T09:00:00	6	Velocidad del viento	0
43510	7	Sololá	701	Sololá	1	Sololá	8	Agosto	2023-08-26T00:00:00	2024-11-08T09:00:00	7	Dirección del viento	0
43511	7	Sololá	701	Sololá	1	Sololá	8	Agosto	2023-08-26T00:00:00	2024-11-08T09:00:00	1	Precipitación	0
43512	7	Sololá	701	Sololá	1	Sololá	8	Agosto	2023-08-26T00:00:00	2024-11-08T09:00:00	8	Radiación solar	625
43513	7	Sololá	701	Sololá	1	Sololá	8	Agosto	2023-08-26T00:00:00	2024-11-08T10:00:00	2	Temperatura media	21.4
43514	7	Sololá	701	Sololá	1	Sololá	8	Agosto	2023-08-26T00:00:00	2024-11-08T10:00:00	4	Temperatura máxima	21.4
43515	7	Sololá	701	Sololá	1	Sololá	8	Agosto	2023-08-26T00:00:00	2024-11-08T10:00:00	3	Temperatura mínima	20.7
43516	7	Sololá	701	Sololá	1	Sololá	8	Agosto	2023-08-26T00:00:00	2024-11-08T10:00:00	5	Humedad	79
43517	7	Sololá	701	Sololá	1	Sololá	8	Agosto	2023-08-26T00:00:00	2024-11-08T10:00:00	6	Velocidad del viento	0
43518	7	Sololá	701	Sololá	1	Sololá	8	Agosto	2023-08-26T00:00:00	2024-11-08T10:00:00	7	Dirección del viento	0
43519	7	Sololá	701	Sololá	1	Sololá	8	Agosto	2023-08-26T00:00:00	2024-11-08T10:00:00	1	Precipitación	0
43520	7	Sololá	701	Sololá	1	Sololá	8	Agosto	2023-08-26T00:00:00	2024-11-08T10:00:00	8	Radiación solar	841
43521	7	Sololá	701	Sololá	1	Sololá	8	Agosto	2023-08-26T00:00:00	2024-11-08T11:00:00	2	Temperatura media	22
43522	7	Sololá	701	Sololá	1	Sololá	8	Agosto	2023-08-26T00:00:00	2024-11-08T11:00:00	4	Temperatura máxima	22.1
43523	7	Sololá	701	Sololá	1	Sololá	8	Agosto	2023-08-26T00:00:00	2024-11-08T11:00:00	3	Temperatura mínima	21.4
43524	7	Sololá	701	Sololá	1	Sololá	8	Agosto	2023-08-26T00:00:00	2024-11-08T11:00:00	5	Humedad	75
43525	7	Sololá	701	Sololá	1	Sololá	8	Agosto	2023-08-26T00:00:00	2024-11-08T11:00:00	6	Velocidad del viento	0
43526	7	Sololá	701	Sololá	1	Sololá	8	Agosto	2023-08-26T00:00:00	2024-11-08T11:00:00	7	Dirección del viento	0
43527	7	Sololá	701	Sololá	1	Sololá	8	Agosto	2023-08-26T00:00:00	2024-11-08T11:00:00	1	Precipitación	0
43528	7	Sololá	701	Sololá	1	Sololá	8	Agosto	2023-08-26T00:00:00	2024-11-08T11:00:00	8	Radiación solar	548
43529	7	Sololá	701	Sololá	1	Sololá	8	Agosto	2023-08-26T00:00:00	2024-11-08T12:00:00	2	Temperatura media	21.9
43530	7	Sololá	701	Sololá	1	Sololá	8	Agosto	2023-08-26T00:00:00	2024-11-08T12:00:00	4	Temperatura máxima	22.2
43531	7	Sololá	701	Sololá	1	Sololá	8	Agosto	2023-08-26T00:00:00	2024-11-08T12:00:00	3	Temperatura mínima	21.8
43532	7	Sololá	701	Sololá	1	Sololá	8	Agosto	2023-08-26T00:00:00	2024-11-08T12:00:00	5	Humedad	78
43533	7	Sololá	701	Sololá	1	Sololá	8	Agosto	2023-08-26T00:00:00	2024-11-08T12:00:00	6	Velocidad del viento	0
43534	7	Sololá	701	Sololá	1	Sololá	8	Agosto	2023-08-26T00:00:00	2024-11-08T12:00:00	7	Dirección del viento	0
43535	7	Sololá	701	Sololá	1	Sololá	8	Agosto	2023-08-26T00:00:00	2024-11-08T12:00:00	1	Precipitación	0
43536	7	Sololá	701	Sololá	1	Sololá	8	Agosto	2023-08-26T00:00:00	2024-11-08T12:00:00	8	Radiación solar	140
43537	7	Sololá	701	Sololá	1	Sololá	8	Agosto	2023-08-26T00:00:00	2024-11-08T13:00:00	2	Temperatura media	21.8
43538	7	Sololá	701	Sololá	1	Sololá	8	Agosto	2023-08-26T00:00:00	2024-11-08T13:00:00	4	Temperatura máxima	22.4
43539	7	Sololá	701	Sololá	1	Sololá	8	Agosto	2023-08-26T00:00:00	2024-11-08T13:00:00	3	Temperatura mínima	21.8
43540	7	Sololá	701	Sololá	1	Sololá	8	Agosto	2023-08-26T00:00:00	2024-11-08T13:00:00	5	Humedad	80
43541	7	Sololá	701	Sololá	1	Sololá	8	Agosto	2023-08-26T00:00:00	2024-11-08T13:00:00	6	Velocidad del viento	0
43542	7	Sololá	701	Sololá	1	Sololá	8	Agosto	2023-08-26T00:00:00	2024-11-08T13:00:00	7	Dirección del viento	0
43543	7	Sololá	701	Sololá	1	Sololá	8	Agosto	2023-08-26T00:00:00	2024-11-08T13:00:00	1	Precipitación	0
43544	7	Sololá	701	Sololá	1	Sololá	8	Agosto	2023-08-26T00:00:00	2024-11-08T13:00:00	8	Radiación solar	232
43545	7	Sololá	701	Sololá	1	Sololá	8	Agosto	2023-08-26T00:00:00	2024-11-08T14:00:00	2	Temperatura media	20.7
43546	7	Sololá	701	Sololá	1	Sololá	8	Agosto	2023-08-26T00:00:00	2024-11-08T14:00:00	4	Temperatura máxima	21.8
43547	7	Sololá	701	Sololá	1	Sololá	8	Agosto	2023-08-26T00:00:00	2024-11-08T14:00:00	3	Temperatura mínima	20.6
43548	7	Sololá	701	Sololá	1	Sololá	8	Agosto	2023-08-26T00:00:00	2024-11-08T14:00:00	5	Humedad	83
43549	7	Sololá	701	Sololá	1	Sololá	8	Agosto	2023-08-26T00:00:00	2024-11-08T14:00:00	6	Velocidad del viento	0
43550	7	Sololá	701	Sololá	1	Sololá	8	Agosto	2023-08-26T00:00:00	2024-11-08T14:00:00	7	Dirección del viento	0
43551	7	Sololá	701	Sololá	1	Sololá	8	Agosto	2023-08-26T00:00:00	2024-11-08T14:00:00	1	Precipitación	0
43552	7	Sololá	701	Sololá	1	Sololá	8	Agosto	2023-08-26T00:00:00	2024-11-08T14:00:00	8	Radiación solar	208
43553	7	Sololá	701	Sololá	1	Sololá	8	Agosto	2023-08-26T00:00:00	2024-11-08T15:00:00	2	Temperatura media	19.9
43554	7	Sololá	701	Sololá	1	Sololá	8	Agosto	2023-08-26T00:00:00	2024-11-08T15:00:00	4	Temperatura máxima	20.8
43555	7	Sololá	701	Sololá	1	Sololá	8	Agosto	2023-08-26T00:00:00	2024-11-08T15:00:00	3	Temperatura mínima	19.9
43556	7	Sololá	701	Sololá	1	Sololá	8	Agosto	2023-08-26T00:00:00	2024-11-08T15:00:00	5	Humedad	86
43557	7	Sololá	701	Sololá	1	Sololá	8	Agosto	2023-08-26T00:00:00	2024-11-08T15:00:00	6	Velocidad del viento	0
43558	7	Sololá	701	Sololá	1	Sololá	8	Agosto	2023-08-26T00:00:00	2024-11-08T15:00:00	7	Dirección del viento	0
43559	7	Sololá	701	Sololá	1	Sololá	8	Agosto	2023-08-26T00:00:00	2024-11-08T15:00:00	1	Precipitación	0
43560	7	Sololá	701	Sololá	1	Sololá	8	Agosto	2023-08-26T00:00:00	2024-11-08T15:00:00	8	Radiación solar	139
43561	7	Sololá	701	Sololá	1	Sololá	8	Agosto	2023-08-26T00:00:00	2024-11-08T16:00:00	2	Temperatura media	18.9
43562	7	Sololá	701	Sololá	1	Sololá	8	Agosto	2023-08-26T00:00:00	2024-11-08T16:00:00	4	Temperatura máxima	19.8
43563	7	Sololá	701	Sololá	1	Sololá	8	Agosto	2023-08-26T00:00:00	2024-11-08T16:00:00	3	Temperatura mínima	18.8
43564	7	Sololá	701	Sololá	1	Sololá	8	Agosto	2023-08-26T00:00:00	2024-11-08T16:00:00	5	Humedad	88
43565	7	Sololá	701	Sololá	1	Sololá	8	Agosto	2023-08-26T00:00:00	2024-11-08T16:00:00	6	Velocidad del viento	0
43566	7	Sololá	701	Sololá	1	Sololá	8	Agosto	2023-08-26T00:00:00	2024-11-08T16:00:00	7	Dirección del viento	0
43567	7	Sololá	701	Sololá	1	Sololá	8	Agosto	2023-08-26T00:00:00	2024-11-08T16:00:00	1	Precipitación	0
43568	7	Sololá	701	Sololá	1	Sololá	8	Agosto	2023-08-26T00:00:00	2024-11-08T16:00:00	8	Radiación solar	90
43569	7	Sololá	701	Sololá	1	Sololá	8	Agosto	2023-08-26T00:00:00	2024-11-08T17:00:00	2	Temperatura media	18.6
43570	7	Sololá	701	Sololá	1	Sololá	8	Agosto	2023-08-26T00:00:00	2024-11-08T17:00:00	4	Temperatura máxima	18.9
43571	7	Sololá	701	Sololá	1	Sololá	8	Agosto	2023-08-26T00:00:00	2024-11-08T17:00:00	3	Temperatura mínima	18.5
43572	7	Sololá	701	Sololá	1	Sololá	8	Agosto	2023-08-26T00:00:00	2024-11-08T17:00:00	5	Humedad	90
43573	7	Sololá	701	Sololá	1	Sololá	8	Agosto	2023-08-26T00:00:00	2024-11-08T17:00:00	6	Velocidad del viento	0
43574	7	Sololá	701	Sololá	1	Sololá	8	Agosto	2023-08-26T00:00:00	2024-11-08T17:00:00	7	Dirección del viento	0
43575	7	Sololá	701	Sololá	1	Sololá	8	Agosto	2023-08-26T00:00:00	2024-11-08T17:00:00	1	Precipitación	0
43576	7	Sololá	701	Sololá	1	Sololá	8	Agosto	2023-08-26T00:00:00	2024-11-08T17:00:00	8	Radiación solar	55
43577	7	Sololá	701	Sololá	1	Sololá	8	Agosto	2023-08-26T00:00:00	2024-11-08T18:00:00	2	Temperatura media	18.4
43578	7	Sololá	701	Sololá	1	Sololá	8	Agosto	2023-08-26T00:00:00	2024-11-08T18:00:00	4	Temperatura máxima	18.6
43579	7	Sololá	701	Sololá	1	Sololá	8	Agosto	2023-08-26T00:00:00	2024-11-08T18:00:00	3	Temperatura mínima	18.3
43580	7	Sololá	701	Sololá	1	Sololá	8	Agosto	2023-08-26T00:00:00	2024-11-08T18:00:00	5	Humedad	91
43581	7	Sololá	701	Sololá	1	Sololá	8	Agosto	2023-08-26T00:00:00	2024-11-08T18:00:00	6	Velocidad del viento	0
43582	7	Sololá	701	Sololá	1	Sololá	8	Agosto	2023-08-26T00:00:00	2024-11-08T18:00:00	7	Dirección del viento	0
43583	7	Sololá	701	Sololá	1	Sololá	8	Agosto	2023-08-26T00:00:00	2024-11-08T18:00:00	1	Precipitación	0
43584	7	Sololá	701	Sololá	1	Sololá	8	Agosto	2023-08-26T00:00:00	2024-11-08T18:00:00	8	Radiación solar	35
43585	7	Sololá	701	Sololá	1	Sololá	8	Agosto	2023-08-26T00:00:00	2024-11-08T19:00:00	2	Temperatura media	17.8
43586	7	Sololá	701	Sololá	1	Sololá	8	Agosto	2023-08-26T00:00:00	2024-11-08T19:00:00	4	Temperatura máxima	18.4
43587	7	Sololá	701	Sololá	1	Sololá	8	Agosto	2023-08-26T00:00:00	2024-11-08T19:00:00	3	Temperatura mínima	17.8
43588	7	Sololá	701	Sololá	1	Sololá	8	Agosto	2023-08-26T00:00:00	2024-11-08T19:00:00	5	Humedad	92
43589	7	Sololá	701	Sololá	1	Sololá	8	Agosto	2023-08-26T00:00:00	2024-11-08T19:00:00	6	Velocidad del viento	0
43590	7	Sololá	701	Sololá	1	Sololá	8	Agosto	2023-08-26T00:00:00	2024-11-08T19:00:00	7	Dirección del viento	0
43591	7	Sololá	701	Sololá	1	Sololá	8	Agosto	2023-08-26T00:00:00	2024-11-08T19:00:00	1	Precipitación	0
43592	7	Sololá	701	Sololá	1	Sololá	8	Agosto	2023-08-26T00:00:00	2024-11-08T19:00:00	8	Radiación solar	0
43593	7	Sololá	701	Sololá	1	Sololá	8	Agosto	2023-08-26T00:00:00	2024-11-08T20:00:00	2	Temperatura media	17.4
43594	7	Sololá	701	Sololá	1	Sololá	8	Agosto	2023-08-26T00:00:00	2024-11-08T20:00:00	4	Temperatura máxima	17.8
43595	7	Sololá	701	Sololá	1	Sololá	8	Agosto	2023-08-26T00:00:00	2024-11-08T20:00:00	3	Temperatura mínima	17.4
43596	7	Sololá	701	Sololá	1	Sololá	8	Agosto	2023-08-26T00:00:00	2024-11-08T20:00:00	5	Humedad	93
43597	7	Sololá	701	Sololá	1	Sololá	8	Agosto	2023-08-26T00:00:00	2024-11-08T20:00:00	6	Velocidad del viento	0
43598	7	Sololá	701	Sololá	1	Sololá	8	Agosto	2023-08-26T00:00:00	2024-11-08T20:00:00	7	Dirección del viento	0
43599	7	Sololá	701	Sololá	1	Sololá	8	Agosto	2023-08-26T00:00:00	2024-11-08T20:00:00	1	Precipitación	0
43600	7	Sololá	701	Sololá	1	Sololá	8	Agosto	2023-08-26T00:00:00	2024-11-08T20:00:00	8	Radiación solar	0
43601	7	Sololá	701	Sololá	1	Sololá	8	Agosto	2023-08-26T00:00:00	2024-11-08T21:00:00	2	Temperatura media	16.8
43602	7	Sololá	701	Sololá	1	Sololá	8	Agosto	2023-08-26T00:00:00	2024-11-08T21:00:00	4	Temperatura máxima	17.5
43603	7	Sololá	701	Sololá	1	Sololá	8	Agosto	2023-08-26T00:00:00	2024-11-08T21:00:00	3	Temperatura mínima	16.8
43604	7	Sololá	701	Sololá	1	Sololá	8	Agosto	2023-08-26T00:00:00	2024-11-08T21:00:00	5	Humedad	95
43605	7	Sololá	701	Sololá	1	Sololá	8	Agosto	2023-08-26T00:00:00	2024-11-08T21:00:00	6	Velocidad del viento	0
43606	7	Sololá	701	Sololá	1	Sololá	8	Agosto	2023-08-26T00:00:00	2024-11-08T21:00:00	7	Dirección del viento	0
43607	7	Sololá	701	Sololá	1	Sololá	8	Agosto	2023-08-26T00:00:00	2024-11-08T21:00:00	1	Precipitación	0
43608	7	Sololá	701	Sololá	1	Sololá	8	Agosto	2023-08-26T00:00:00	2024-11-08T21:00:00	8	Radiación solar	0
43609	7	Sololá	701	Sololá	1	Sololá	8	Agosto	2023-08-26T00:00:00	2024-11-08T22:00:00	2	Temperatura media	16.8
43610	7	Sololá	701	Sololá	1	Sololá	8	Agosto	2023-08-26T00:00:00	2024-11-08T22:00:00	4	Temperatura máxima	16.9
43611	7	Sololá	701	Sololá	1	Sololá	8	Agosto	2023-08-26T00:00:00	2024-11-08T22:00:00	3	Temperatura mínima	16.7
43612	7	Sololá	701	Sololá	1	Sololá	8	Agosto	2023-08-26T00:00:00	2024-11-08T22:00:00	5	Humedad	95
43613	7	Sololá	701	Sololá	1	Sololá	8	Agosto	2023-08-26T00:00:00	2024-11-08T22:00:00	6	Velocidad del viento	0
43614	7	Sololá	701	Sololá	1	Sololá	8	Agosto	2023-08-26T00:00:00	2024-11-08T22:00:00	7	Dirección del viento	0
43615	7	Sololá	701	Sololá	1	Sololá	8	Agosto	2023-08-26T00:00:00	2024-11-08T22:00:00	1	Precipitación	0
43616	7	Sololá	701	Sololá	1	Sololá	8	Agosto	2023-08-26T00:00:00	2024-11-08T22:00:00	8	Radiación solar	0
43617	7	Sololá	701	Sololá	1	Sololá	8	Agosto	2023-08-26T00:00:00	2024-11-08T23:00:00	2	Temperatura media	16.6
43618	7	Sololá	701	Sololá	1	Sololá	8	Agosto	2023-08-26T00:00:00	2024-11-08T23:00:00	4	Temperatura máxima	16.8
43619	7	Sololá	701	Sololá	1	Sololá	8	Agosto	2023-08-26T00:00:00	2024-11-08T23:00:00	3	Temperatura mínima	16.5
43620	7	Sololá	701	Sololá	1	Sololá	8	Agosto	2023-08-26T00:00:00	2024-11-08T23:00:00	5	Humedad	95
43621	7	Sololá	701	Sololá	1	Sololá	8	Agosto	2023-08-26T00:00:00	2024-11-08T23:00:00	6	Velocidad del viento	0
43622	7	Sololá	701	Sololá	1	Sololá	8	Agosto	2023-08-26T00:00:00	2024-11-08T23:00:00	7	Dirección del viento	0
43623	7	Sololá	701	Sololá	1	Sololá	8	Agosto	2023-08-26T00:00:00	2024-11-08T23:00:00	1	Precipitación	0
43624	7	Sololá	701	Sololá	1	Sololá	8	Agosto	2023-08-26T00:00:00	2024-11-08T23:00:00	8	Radiación solar	0
43625	7	Sololá	701	Sololá	1	Sololá	8	Agosto	2023-08-27T00:00:00	2024-11-08T00:00:00	2	Temperatura media	16.3
43626	7	Sololá	701	Sololá	1	Sololá	8	Agosto	2023-08-27T00:00:00	2024-11-08T00:00:00	4	Temperatura máxima	16.6
43627	7	Sololá	701	Sololá	1	Sololá	8	Agosto	2023-08-27T00:00:00	2024-11-08T00:00:00	3	Temperatura mínima	16.2
43628	7	Sololá	701	Sololá	1	Sololá	8	Agosto	2023-08-27T00:00:00	2024-11-08T00:00:00	5	Humedad	95
43629	7	Sololá	701	Sololá	1	Sololá	8	Agosto	2023-08-27T00:00:00	2024-11-08T00:00:00	6	Velocidad del viento	0
43630	7	Sololá	701	Sololá	1	Sololá	8	Agosto	2023-08-27T00:00:00	2024-11-08T00:00:00	7	Dirección del viento	0
43631	7	Sololá	701	Sololá	1	Sololá	8	Agosto	2023-08-27T00:00:00	2024-11-08T00:00:00	1	Precipitación	0
43632	7	Sololá	701	Sololá	1	Sololá	8	Agosto	2023-08-27T00:00:00	2024-11-08T00:00:00	8	Radiación solar	0
43633	7	Sololá	701	Sololá	1	Sololá	8	Agosto	2023-08-27T00:00:00	2024-11-08T01:00:00	2	Temperatura media	16.1
43634	7	Sololá	701	Sololá	1	Sololá	8	Agosto	2023-08-27T00:00:00	2024-11-08T01:00:00	4	Temperatura máxima	16.3
43635	7	Sololá	701	Sololá	1	Sololá	8	Agosto	2023-08-27T00:00:00	2024-11-08T01:00:00	3	Temperatura mínima	16.1
43636	7	Sololá	701	Sololá	1	Sololá	8	Agosto	2023-08-27T00:00:00	2024-11-08T01:00:00	5	Humedad	95
43637	7	Sololá	701	Sololá	1	Sololá	8	Agosto	2023-08-27T00:00:00	2024-11-08T01:00:00	6	Velocidad del viento	0
43638	7	Sololá	701	Sololá	1	Sololá	8	Agosto	2023-08-27T00:00:00	2024-11-08T01:00:00	7	Dirección del viento	0
43639	7	Sololá	701	Sololá	1	Sololá	8	Agosto	2023-08-27T00:00:00	2024-11-08T01:00:00	1	Precipitación	0
43640	7	Sololá	701	Sololá	1	Sololá	8	Agosto	2023-08-27T00:00:00	2024-11-08T01:00:00	8	Radiación solar	0
43641	7	Sololá	701	Sololá	1	Sololá	8	Agosto	2023-08-27T00:00:00	2024-11-08T02:00:00	2	Temperatura media	16.1
43642	7	Sololá	701	Sololá	1	Sololá	8	Agosto	2023-08-27T00:00:00	2024-11-08T02:00:00	4	Temperatura máxima	16.1
43643	7	Sololá	701	Sololá	1	Sololá	8	Agosto	2023-08-27T00:00:00	2024-11-08T02:00:00	3	Temperatura mínima	16
43644	7	Sololá	701	Sololá	1	Sololá	8	Agosto	2023-08-27T00:00:00	2024-11-08T02:00:00	5	Humedad	96
43645	7	Sololá	701	Sololá	1	Sololá	8	Agosto	2023-08-27T00:00:00	2024-11-08T02:00:00	6	Velocidad del viento	0
43646	7	Sololá	701	Sololá	1	Sololá	8	Agosto	2023-08-27T00:00:00	2024-11-08T02:00:00	7	Dirección del viento	0
43647	7	Sololá	701	Sololá	1	Sololá	8	Agosto	2023-08-27T00:00:00	2024-11-08T02:00:00	1	Precipitación	0
43648	7	Sololá	701	Sololá	1	Sololá	8	Agosto	2023-08-27T00:00:00	2024-11-08T02:00:00	8	Radiación solar	0
43649	7	Sololá	701	Sololá	1	Sololá	8	Agosto	2023-08-27T00:00:00	2024-11-08T03:00:00	2	Temperatura media	15.8
43650	7	Sololá	701	Sololá	1	Sololá	8	Agosto	2023-08-27T00:00:00	2024-11-08T03:00:00	4	Temperatura máxima	16.1
43651	7	Sololá	701	Sololá	1	Sololá	8	Agosto	2023-08-27T00:00:00	2024-11-08T03:00:00	3	Temperatura mínima	15.8
43652	7	Sololá	701	Sololá	1	Sololá	8	Agosto	2023-08-27T00:00:00	2024-11-08T03:00:00	5	Humedad	95
43653	7	Sololá	701	Sololá	1	Sololá	8	Agosto	2023-08-27T00:00:00	2024-11-08T03:00:00	6	Velocidad del viento	0
43654	7	Sololá	701	Sololá	1	Sololá	8	Agosto	2023-08-27T00:00:00	2024-11-08T03:00:00	7	Dirección del viento	0
43655	7	Sololá	701	Sololá	1	Sololá	8	Agosto	2023-08-27T00:00:00	2024-11-08T03:00:00	1	Precipitación	0
43656	7	Sololá	701	Sololá	1	Sololá	8	Agosto	2023-08-27T00:00:00	2024-11-08T03:00:00	8	Radiación solar	0
43657	7	Sololá	701	Sololá	1	Sololá	8	Agosto	2023-08-27T00:00:00	2024-11-08T04:00:00	2	Temperatura media	15.3
43658	7	Sololá	701	Sololá	1	Sololá	8	Agosto	2023-08-27T00:00:00	2024-11-08T04:00:00	4	Temperatura máxima	15.8
43659	7	Sololá	701	Sololá	1	Sololá	8	Agosto	2023-08-27T00:00:00	2024-11-08T04:00:00	3	Temperatura mínima	15.3
43660	7	Sololá	701	Sololá	1	Sololá	8	Agosto	2023-08-27T00:00:00	2024-11-08T04:00:00	5	Humedad	95
43661	7	Sololá	701	Sololá	1	Sololá	8	Agosto	2023-08-27T00:00:00	2024-11-08T04:00:00	6	Velocidad del viento	0
43662	7	Sololá	701	Sololá	1	Sololá	8	Agosto	2023-08-27T00:00:00	2024-11-08T04:00:00	7	Dirección del viento	0
43663	7	Sololá	701	Sololá	1	Sololá	8	Agosto	2023-08-27T00:00:00	2024-11-08T04:00:00	1	Precipitación	0
43664	7	Sololá	701	Sololá	1	Sololá	8	Agosto	2023-08-27T00:00:00	2024-11-08T04:00:00	8	Radiación solar	0
43665	7	Sololá	701	Sololá	1	Sololá	8	Agosto	2023-08-27T00:00:00	2024-11-08T05:00:00	2	Temperatura media	14.8
43666	7	Sololá	701	Sololá	1	Sololá	8	Agosto	2023-08-27T00:00:00	2024-11-08T05:00:00	4	Temperatura máxima	15.3
43667	7	Sololá	701	Sololá	1	Sololá	8	Agosto	2023-08-27T00:00:00	2024-11-08T05:00:00	3	Temperatura mínima	14.8
43668	7	Sololá	701	Sololá	1	Sololá	8	Agosto	2023-08-27T00:00:00	2024-11-08T05:00:00	5	Humedad	94
43669	7	Sololá	701	Sololá	1	Sololá	8	Agosto	2023-08-27T00:00:00	2024-11-08T05:00:00	6	Velocidad del viento	0
43670	7	Sololá	701	Sololá	1	Sololá	8	Agosto	2023-08-27T00:00:00	2024-11-08T05:00:00	7	Dirección del viento	0
43671	7	Sololá	701	Sololá	1	Sololá	8	Agosto	2023-08-27T00:00:00	2024-11-08T05:00:00	1	Precipitación	0
43672	7	Sololá	701	Sololá	1	Sololá	8	Agosto	2023-08-27T00:00:00	2024-11-08T05:00:00	8	Radiación solar	0
43673	7	Sololá	701	Sololá	1	Sololá	8	Agosto	2023-08-27T00:00:00	2024-11-08T06:00:00	2	Temperatura media	14.3
43674	7	Sololá	701	Sololá	1	Sololá	8	Agosto	2023-08-27T00:00:00	2024-11-08T06:00:00	4	Temperatura máxima	14.8
43675	7	Sololá	701	Sololá	1	Sololá	8	Agosto	2023-08-27T00:00:00	2024-11-08T06:00:00	3	Temperatura mínima	14.3
43676	7	Sololá	701	Sololá	1	Sololá	8	Agosto	2023-08-27T00:00:00	2024-11-08T06:00:00	5	Humedad	94
43677	7	Sololá	701	Sololá	1	Sololá	8	Agosto	2023-08-27T00:00:00	2024-11-08T06:00:00	6	Velocidad del viento	0
43678	7	Sololá	701	Sololá	1	Sololá	8	Agosto	2023-08-27T00:00:00	2024-11-08T06:00:00	7	Dirección del viento	0
43679	7	Sololá	701	Sololá	1	Sololá	8	Agosto	2023-08-27T00:00:00	2024-11-08T06:00:00	1	Precipitación	0
43680	7	Sololá	701	Sololá	1	Sololá	8	Agosto	2023-08-27T00:00:00	2024-11-08T06:00:00	8	Radiación solar	0
43681	7	Sololá	701	Sololá	1	Sololá	8	Agosto	2023-08-27T00:00:00	2024-11-08T07:00:00	2	Temperatura media	14.8
43682	7	Sololá	701	Sololá	1	Sololá	8	Agosto	2023-08-27T00:00:00	2024-11-08T07:00:00	4	Temperatura máxima	14.8
43683	7	Sololá	701	Sololá	1	Sololá	8	Agosto	2023-08-27T00:00:00	2024-11-08T07:00:00	3	Temperatura mínima	14.3
43684	7	Sololá	701	Sololá	1	Sololá	8	Agosto	2023-08-27T00:00:00	2024-11-08T07:00:00	5	Humedad	95
43685	7	Sololá	701	Sololá	1	Sololá	8	Agosto	2023-08-27T00:00:00	2024-11-08T07:00:00	6	Velocidad del viento	0
43686	7	Sololá	701	Sololá	1	Sololá	8	Agosto	2023-08-27T00:00:00	2024-11-08T07:00:00	7	Dirección del viento	0
43687	7	Sololá	701	Sololá	1	Sololá	8	Agosto	2023-08-27T00:00:00	2024-11-08T07:00:00	1	Precipitación	0
43688	7	Sololá	701	Sololá	1	Sololá	8	Agosto	2023-08-27T00:00:00	2024-11-08T07:00:00	8	Radiación solar	27
43689	7	Sololá	701	Sololá	1	Sololá	8	Agosto	2023-08-27T00:00:00	2024-11-08T08:00:00	2	Temperatura media	19.1
43690	7	Sololá	701	Sololá	1	Sololá	8	Agosto	2023-08-27T00:00:00	2024-11-08T08:00:00	4	Temperatura máxima	19.1
43691	7	Sololá	701	Sololá	1	Sololá	8	Agosto	2023-08-27T00:00:00	2024-11-08T08:00:00	3	Temperatura mínima	14.8
43692	7	Sololá	701	Sololá	1	Sololá	8	Agosto	2023-08-27T00:00:00	2024-11-08T08:00:00	5	Humedad	82
43693	7	Sololá	701	Sololá	1	Sololá	8	Agosto	2023-08-27T00:00:00	2024-11-08T08:00:00	6	Velocidad del viento	0
43694	7	Sololá	701	Sololá	1	Sololá	8	Agosto	2023-08-27T00:00:00	2024-11-08T08:00:00	7	Dirección del viento	0
43695	7	Sololá	701	Sololá	1	Sololá	8	Agosto	2023-08-27T00:00:00	2024-11-08T08:00:00	1	Precipitación	0
43696	7	Sololá	701	Sololá	1	Sololá	8	Agosto	2023-08-27T00:00:00	2024-11-08T08:00:00	8	Radiación solar	277
43697	7	Sololá	701	Sololá	1	Sololá	8	Agosto	2023-08-27T00:00:00	2024-11-08T09:00:00	2	Temperatura media	20.7
43698	7	Sololá	701	Sololá	1	Sololá	8	Agosto	2023-08-27T00:00:00	2024-11-08T09:00:00	4	Temperatura máxima	20.7
43699	7	Sololá	701	Sololá	1	Sololá	8	Agosto	2023-08-27T00:00:00	2024-11-08T09:00:00	3	Temperatura mínima	19.1
43700	7	Sololá	701	Sololá	1	Sololá	8	Agosto	2023-08-27T00:00:00	2024-11-08T09:00:00	5	Humedad	80
43701	7	Sololá	701	Sololá	1	Sololá	8	Agosto	2023-08-27T00:00:00	2024-11-08T09:00:00	6	Velocidad del viento	0
43702	7	Sololá	701	Sololá	1	Sololá	8	Agosto	2023-08-27T00:00:00	2024-11-08T09:00:00	7	Dirección del viento	0
43703	7	Sololá	701	Sololá	1	Sololá	8	Agosto	2023-08-27T00:00:00	2024-11-08T09:00:00	1	Precipitación	0
43704	7	Sololá	701	Sololá	1	Sololá	8	Agosto	2023-08-27T00:00:00	2024-11-08T09:00:00	8	Radiación solar	647
43705	7	Sololá	701	Sololá	1	Sololá	8	Agosto	2023-08-27T00:00:00	2024-11-08T10:00:00	2	Temperatura media	21.2
43706	7	Sololá	701	Sololá	1	Sololá	8	Agosto	2023-08-27T00:00:00	2024-11-08T10:00:00	4	Temperatura máxima	21.2
43707	7	Sololá	701	Sololá	1	Sololá	8	Agosto	2023-08-27T00:00:00	2024-11-08T10:00:00	3	Temperatura mínima	20.7
43708	7	Sololá	701	Sololá	1	Sololá	8	Agosto	2023-08-27T00:00:00	2024-11-08T10:00:00	5	Humedad	80
43709	7	Sololá	701	Sololá	1	Sololá	8	Agosto	2023-08-27T00:00:00	2024-11-08T10:00:00	6	Velocidad del viento	0
43710	7	Sololá	701	Sololá	1	Sololá	8	Agosto	2023-08-27T00:00:00	2024-11-08T10:00:00	7	Dirección del viento	0
43711	7	Sololá	701	Sololá	1	Sololá	8	Agosto	2023-08-27T00:00:00	2024-11-08T10:00:00	1	Precipitación	0
43712	7	Sololá	701	Sololá	1	Sololá	8	Agosto	2023-08-27T00:00:00	2024-11-08T10:00:00	8	Radiación solar	837
43713	7	Sololá	701	Sololá	1	Sololá	8	Agosto	2023-08-27T00:00:00	2024-11-08T11:00:00	2	Temperatura media	21.8
43714	7	Sololá	701	Sololá	1	Sololá	8	Agosto	2023-08-27T00:00:00	2024-11-08T11:00:00	4	Temperatura máxima	22.1
43715	7	Sololá	701	Sololá	1	Sololá	8	Agosto	2023-08-27T00:00:00	2024-11-08T11:00:00	3	Temperatura mínima	21.1
43716	7	Sololá	701	Sololá	1	Sololá	8	Agosto	2023-08-27T00:00:00	2024-11-08T11:00:00	5	Humedad	78
43717	7	Sololá	701	Sololá	1	Sololá	8	Agosto	2023-08-27T00:00:00	2024-11-08T11:00:00	6	Velocidad del viento	0
43718	7	Sololá	701	Sololá	1	Sololá	8	Agosto	2023-08-27T00:00:00	2024-11-08T11:00:00	7	Dirección del viento	0
43719	7	Sololá	701	Sololá	1	Sololá	8	Agosto	2023-08-27T00:00:00	2024-11-08T11:00:00	1	Precipitación	0
43720	7	Sololá	701	Sololá	1	Sololá	8	Agosto	2023-08-27T00:00:00	2024-11-08T11:00:00	8	Radiación solar	696
43721	7	Sololá	701	Sololá	1	Sololá	8	Agosto	2023-08-27T00:00:00	2024-11-08T12:00:00	2	Temperatura media	21.3
43722	7	Sololá	701	Sololá	1	Sololá	8	Agosto	2023-08-27T00:00:00	2024-11-08T12:00:00	4	Temperatura máxima	22.1
43723	7	Sololá	701	Sololá	1	Sololá	8	Agosto	2023-08-27T00:00:00	2024-11-08T12:00:00	3	Temperatura mínima	21.3
43724	7	Sololá	701	Sololá	1	Sololá	8	Agosto	2023-08-27T00:00:00	2024-11-08T12:00:00	5	Humedad	81
43725	7	Sololá	701	Sololá	1	Sololá	8	Agosto	2023-08-27T00:00:00	2024-11-08T12:00:00	6	Velocidad del viento	0
43726	7	Sololá	701	Sololá	1	Sololá	8	Agosto	2023-08-27T00:00:00	2024-11-08T12:00:00	7	Dirección del viento	0
43727	7	Sololá	701	Sololá	1	Sololá	8	Agosto	2023-08-27T00:00:00	2024-11-08T12:00:00	1	Precipitación	0
43728	7	Sololá	701	Sololá	1	Sololá	8	Agosto	2023-08-27T00:00:00	2024-11-08T12:00:00	8	Radiación solar	234
43729	7	Sololá	701	Sololá	1	Sololá	8	Agosto	2023-08-27T00:00:00	2024-11-08T13:00:00	2	Temperatura media	20.6
43730	7	Sololá	701	Sololá	1	Sololá	8	Agosto	2023-08-27T00:00:00	2024-11-08T13:00:00	4	Temperatura máxima	21.4
43731	7	Sololá	701	Sololá	1	Sololá	8	Agosto	2023-08-27T00:00:00	2024-11-08T13:00:00	3	Temperatura mínima	20.6
43732	7	Sololá	701	Sololá	1	Sololá	8	Agosto	2023-08-27T00:00:00	2024-11-08T13:00:00	5	Humedad	84
43733	7	Sololá	701	Sololá	1	Sololá	8	Agosto	2023-08-27T00:00:00	2024-11-08T13:00:00	6	Velocidad del viento	0
43734	7	Sololá	701	Sololá	1	Sololá	8	Agosto	2023-08-27T00:00:00	2024-11-08T13:00:00	7	Dirección del viento	0
43735	7	Sololá	701	Sololá	1	Sololá	8	Agosto	2023-08-27T00:00:00	2024-11-08T13:00:00	1	Precipitación	0
43736	7	Sololá	701	Sololá	1	Sololá	8	Agosto	2023-08-27T00:00:00	2024-11-08T13:00:00	8	Radiación solar	240
43737	7	Sololá	701	Sololá	1	Sololá	8	Agosto	2023-08-27T00:00:00	2024-11-08T14:00:00	2	Temperatura media	20.5
43738	7	Sololá	701	Sololá	1	Sololá	8	Agosto	2023-08-27T00:00:00	2024-11-08T14:00:00	4	Temperatura máxima	20.7
43739	7	Sololá	701	Sololá	1	Sololá	8	Agosto	2023-08-27T00:00:00	2024-11-08T14:00:00	3	Temperatura mínima	20.2
43740	7	Sololá	701	Sololá	1	Sololá	8	Agosto	2023-08-27T00:00:00	2024-11-08T14:00:00	5	Humedad	83
43741	7	Sololá	701	Sololá	1	Sololá	8	Agosto	2023-08-27T00:00:00	2024-11-08T14:00:00	6	Velocidad del viento	0
43742	7	Sololá	701	Sololá	1	Sololá	8	Agosto	2023-08-27T00:00:00	2024-11-08T14:00:00	7	Dirección del viento	0
43743	7	Sololá	701	Sololá	1	Sololá	8	Agosto	2023-08-27T00:00:00	2024-11-08T14:00:00	1	Precipitación	0
43744	7	Sololá	701	Sololá	1	Sololá	8	Agosto	2023-08-27T00:00:00	2024-11-08T14:00:00	8	Radiación solar	181
43745	7	Sololá	701	Sololá	1	Sololá	8	Agosto	2023-08-27T00:00:00	2024-11-08T15:00:00	2	Temperatura media	20.1
43746	7	Sololá	701	Sololá	1	Sololá	8	Agosto	2023-08-27T00:00:00	2024-11-08T15:00:00	4	Temperatura máxima	20.8
43747	7	Sololá	701	Sololá	1	Sololá	8	Agosto	2023-08-27T00:00:00	2024-11-08T15:00:00	3	Temperatura mínima	20.1
43748	7	Sololá	701	Sololá	1	Sololá	8	Agosto	2023-08-27T00:00:00	2024-11-08T15:00:00	5	Humedad	86
43749	7	Sololá	701	Sololá	1	Sololá	8	Agosto	2023-08-27T00:00:00	2024-11-08T15:00:00	6	Velocidad del viento	0
43750	7	Sololá	701	Sololá	1	Sololá	8	Agosto	2023-08-27T00:00:00	2024-11-08T15:00:00	7	Dirección del viento	0
43751	7	Sololá	701	Sololá	1	Sololá	8	Agosto	2023-08-27T00:00:00	2024-11-08T15:00:00	1	Precipitación	0
43752	7	Sololá	701	Sololá	1	Sololá	8	Agosto	2023-08-27T00:00:00	2024-11-08T15:00:00	8	Radiación solar	152
43753	7	Sololá	701	Sololá	1	Sololá	8	Agosto	2023-08-27T00:00:00	2024-11-08T16:00:00	2	Temperatura media	19.4
43754	7	Sololá	701	Sololá	1	Sololá	8	Agosto	2023-08-27T00:00:00	2024-11-08T16:00:00	4	Temperatura máxima	20.2
43755	7	Sololá	701	Sololá	1	Sololá	8	Agosto	2023-08-27T00:00:00	2024-11-08T16:00:00	3	Temperatura mínima	19.4
43756	7	Sololá	701	Sololá	1	Sololá	8	Agosto	2023-08-27T00:00:00	2024-11-08T16:00:00	5	Humedad	87
43757	7	Sololá	701	Sololá	1	Sololá	8	Agosto	2023-08-27T00:00:00	2024-11-08T16:00:00	6	Velocidad del viento	0
43758	7	Sololá	701	Sololá	1	Sololá	8	Agosto	2023-08-27T00:00:00	2024-11-08T16:00:00	7	Dirección del viento	0
43759	7	Sololá	701	Sololá	1	Sololá	8	Agosto	2023-08-27T00:00:00	2024-11-08T16:00:00	1	Precipitación	0
43760	7	Sololá	701	Sololá	1	Sololá	8	Agosto	2023-08-27T00:00:00	2024-11-08T16:00:00	8	Radiación solar	137
43761	7	Sololá	701	Sololá	1	Sololá	8	Agosto	2023-08-27T00:00:00	2024-11-08T17:00:00	2	Temperatura media	18.8
43762	7	Sololá	701	Sololá	1	Sololá	8	Agosto	2023-08-27T00:00:00	2024-11-08T17:00:00	4	Temperatura máxima	19.5
43763	7	Sololá	701	Sololá	1	Sololá	8	Agosto	2023-08-27T00:00:00	2024-11-08T17:00:00	3	Temperatura mínima	18.7
43764	7	Sololá	701	Sololá	1	Sololá	8	Agosto	2023-08-27T00:00:00	2024-11-08T17:00:00	5	Humedad	90
43765	7	Sololá	701	Sololá	1	Sololá	8	Agosto	2023-08-27T00:00:00	2024-11-08T17:00:00	6	Velocidad del viento	0
43766	7	Sololá	701	Sololá	1	Sololá	8	Agosto	2023-08-27T00:00:00	2024-11-08T17:00:00	7	Dirección del viento	0
43767	7	Sololá	701	Sololá	1	Sololá	8	Agosto	2023-08-27T00:00:00	2024-11-08T17:00:00	1	Precipitación	0
43768	7	Sololá	701	Sololá	1	Sololá	8	Agosto	2023-08-27T00:00:00	2024-11-08T17:00:00	8	Radiación solar	68
43769	7	Sololá	701	Sololá	1	Sololá	8	Agosto	2023-08-27T00:00:00	2024-11-08T18:00:00	2	Temperatura media	18.2
43770	7	Sololá	701	Sololá	1	Sololá	8	Agosto	2023-08-27T00:00:00	2024-11-08T18:00:00	4	Temperatura máxima	18.9
43771	7	Sololá	701	Sololá	1	Sololá	8	Agosto	2023-08-27T00:00:00	2024-11-08T18:00:00	3	Temperatura mínima	18.2
43772	7	Sololá	701	Sololá	1	Sololá	8	Agosto	2023-08-27T00:00:00	2024-11-08T18:00:00	5	Humedad	91
43773	7	Sololá	701	Sololá	1	Sololá	8	Agosto	2023-08-27T00:00:00	2024-11-08T18:00:00	6	Velocidad del viento	0
43774	7	Sololá	701	Sololá	1	Sololá	8	Agosto	2023-08-27T00:00:00	2024-11-08T18:00:00	7	Dirección del viento	0
43775	7	Sololá	701	Sololá	1	Sololá	8	Agosto	2023-08-27T00:00:00	2024-11-08T18:00:00	1	Precipitación	0
43776	7	Sololá	701	Sololá	1	Sololá	8	Agosto	2023-08-27T00:00:00	2024-11-08T18:00:00	8	Radiación solar	15
43777	7	Sololá	701	Sololá	1	Sololá	8	Agosto	2023-08-27T00:00:00	2024-11-08T19:00:00	2	Temperatura media	17.7
43778	7	Sololá	701	Sololá	1	Sololá	8	Agosto	2023-08-27T00:00:00	2024-11-08T19:00:00	4	Temperatura máxima	18.2
43779	7	Sololá	701	Sololá	1	Sololá	8	Agosto	2023-08-27T00:00:00	2024-11-08T19:00:00	3	Temperatura mínima	17.6
43780	7	Sololá	701	Sololá	1	Sololá	8	Agosto	2023-08-27T00:00:00	2024-11-08T19:00:00	5	Humedad	93
43781	7	Sololá	701	Sololá	1	Sololá	8	Agosto	2023-08-27T00:00:00	2024-11-08T19:00:00	6	Velocidad del viento	0
43782	7	Sololá	701	Sololá	1	Sololá	8	Agosto	2023-08-27T00:00:00	2024-11-08T19:00:00	7	Dirección del viento	0
43783	7	Sololá	701	Sololá	1	Sololá	8	Agosto	2023-08-27T00:00:00	2024-11-08T19:00:00	1	Precipitación	0
43784	7	Sololá	701	Sololá	1	Sololá	8	Agosto	2023-08-27T00:00:00	2024-11-08T19:00:00	8	Radiación solar	0
43785	7	Sololá	701	Sololá	1	Sololá	8	Agosto	2023-08-27T00:00:00	2024-11-08T20:00:00	2	Temperatura media	16.5
43786	7	Sololá	701	Sololá	1	Sololá	8	Agosto	2023-08-27T00:00:00	2024-11-08T20:00:00	4	Temperatura máxima	17.7
43787	7	Sololá	701	Sololá	1	Sololá	8	Agosto	2023-08-27T00:00:00	2024-11-08T20:00:00	3	Temperatura mínima	16.4
43788	7	Sololá	701	Sololá	1	Sololá	8	Agosto	2023-08-27T00:00:00	2024-11-08T20:00:00	5	Humedad	92
43789	7	Sololá	701	Sololá	1	Sololá	8	Agosto	2023-08-27T00:00:00	2024-11-08T20:00:00	6	Velocidad del viento	0
43790	7	Sololá	701	Sololá	1	Sololá	8	Agosto	2023-08-27T00:00:00	2024-11-08T20:00:00	7	Dirección del viento	0
43791	7	Sololá	701	Sololá	1	Sololá	8	Agosto	2023-08-27T00:00:00	2024-11-08T20:00:00	1	Precipitación	0
43792	7	Sololá	701	Sololá	1	Sololá	8	Agosto	2023-08-27T00:00:00	2024-11-08T20:00:00	8	Radiación solar	0
43793	7	Sololá	701	Sololá	1	Sololá	8	Agosto	2023-08-27T00:00:00	2024-11-08T21:00:00	2	Temperatura media	16.4
43794	7	Sololá	701	Sololá	1	Sololá	8	Agosto	2023-08-27T00:00:00	2024-11-08T21:00:00	4	Temperatura máxima	16.6
43795	7	Sololá	701	Sololá	1	Sololá	8	Agosto	2023-08-27T00:00:00	2024-11-08T21:00:00	3	Temperatura mínima	16.3
43796	7	Sololá	701	Sololá	1	Sololá	8	Agosto	2023-08-27T00:00:00	2024-11-08T21:00:00	5	Humedad	93
43797	7	Sololá	701	Sololá	1	Sololá	8	Agosto	2023-08-27T00:00:00	2024-11-08T21:00:00	6	Velocidad del viento	0
43798	7	Sololá	701	Sololá	1	Sololá	8	Agosto	2023-08-27T00:00:00	2024-11-08T21:00:00	7	Dirección del viento	0
43799	7	Sololá	701	Sololá	1	Sololá	8	Agosto	2023-08-27T00:00:00	2024-11-08T21:00:00	1	Precipitación	0
43800	7	Sololá	701	Sololá	1	Sololá	8	Agosto	2023-08-27T00:00:00	2024-11-08T21:00:00	8	Radiación solar	0
43801	7	Sololá	701	Sololá	1	Sololá	8	Agosto	2023-08-27T00:00:00	2024-11-08T22:00:00	2	Temperatura media	16
43802	7	Sololá	701	Sololá	1	Sololá	8	Agosto	2023-08-27T00:00:00	2024-11-08T22:00:00	4	Temperatura máxima	16.4
43803	7	Sololá	701	Sololá	1	Sololá	8	Agosto	2023-08-27T00:00:00	2024-11-08T22:00:00	3	Temperatura mínima	16
43804	7	Sololá	701	Sololá	1	Sololá	8	Agosto	2023-08-27T00:00:00	2024-11-08T22:00:00	5	Humedad	94
43805	7	Sololá	701	Sololá	1	Sololá	8	Agosto	2023-08-27T00:00:00	2024-11-08T22:00:00	6	Velocidad del viento	0
43806	7	Sololá	701	Sololá	1	Sololá	8	Agosto	2023-08-27T00:00:00	2024-11-08T22:00:00	7	Dirección del viento	0
43807	7	Sololá	701	Sololá	1	Sololá	8	Agosto	2023-08-27T00:00:00	2024-11-08T22:00:00	1	Precipitación	0
43808	7	Sololá	701	Sololá	1	Sololá	8	Agosto	2023-08-27T00:00:00	2024-11-08T22:00:00	8	Radiación solar	0
43809	7	Sololá	701	Sololá	1	Sololá	8	Agosto	2023-08-27T00:00:00	2024-11-08T23:00:00	2	Temperatura media	15.8
43810	7	Sololá	701	Sololá	1	Sololá	8	Agosto	2023-08-27T00:00:00	2024-11-08T23:00:00	4	Temperatura máxima	16
43811	7	Sololá	701	Sololá	1	Sololá	8	Agosto	2023-08-27T00:00:00	2024-11-08T23:00:00	3	Temperatura mínima	15.8
43812	7	Sololá	701	Sololá	1	Sololá	8	Agosto	2023-08-27T00:00:00	2024-11-08T23:00:00	5	Humedad	95
43813	7	Sololá	701	Sololá	1	Sololá	8	Agosto	2023-08-27T00:00:00	2024-11-08T23:00:00	6	Velocidad del viento	0
43814	7	Sololá	701	Sololá	1	Sololá	8	Agosto	2023-08-27T00:00:00	2024-11-08T23:00:00	7	Dirección del viento	0
43815	7	Sololá	701	Sololá	1	Sololá	8	Agosto	2023-08-27T00:00:00	2024-11-08T23:00:00	1	Precipitación	0
43816	7	Sololá	701	Sololá	1	Sololá	8	Agosto	2023-08-27T00:00:00	2024-11-08T23:00:00	8	Radiación solar	0
43817	7	Sololá	701	Sololá	1	Sololá	8	Agosto	2023-08-28T00:00:00	2024-11-08T00:00:00	2	Temperatura media	15.7
43818	7	Sololá	701	Sololá	1	Sololá	8	Agosto	2023-08-28T00:00:00	2024-11-08T00:00:00	4	Temperatura máxima	15.8
43819	7	Sololá	701	Sololá	1	Sololá	8	Agosto	2023-08-28T00:00:00	2024-11-08T00:00:00	3	Temperatura mínima	15.7
43820	7	Sololá	701	Sololá	1	Sololá	8	Agosto	2023-08-28T00:00:00	2024-11-08T00:00:00	5	Humedad	95
43821	7	Sololá	701	Sololá	1	Sololá	8	Agosto	2023-08-28T00:00:00	2024-11-08T00:00:00	6	Velocidad del viento	0
43822	7	Sololá	701	Sololá	1	Sololá	8	Agosto	2023-08-28T00:00:00	2024-11-08T00:00:00	7	Dirección del viento	0
43823	7	Sololá	701	Sololá	1	Sololá	8	Agosto	2023-08-28T00:00:00	2024-11-08T00:00:00	1	Precipitación	0
43824	7	Sololá	701	Sololá	1	Sololá	8	Agosto	2023-08-28T00:00:00	2024-11-08T00:00:00	8	Radiación solar	0
43825	7	Sololá	701	Sololá	1	Sololá	8	Agosto	2023-08-28T00:00:00	2024-11-08T01:00:00	2	Temperatura media	15.3
43826	7	Sololá	701	Sololá	1	Sololá	8	Agosto	2023-08-28T00:00:00	2024-11-08T01:00:00	4	Temperatura máxima	15.7
43827	7	Sololá	701	Sololá	1	Sololá	8	Agosto	2023-08-28T00:00:00	2024-11-08T01:00:00	3	Temperatura mínima	15.3
43828	7	Sololá	701	Sololá	1	Sololá	8	Agosto	2023-08-28T00:00:00	2024-11-08T01:00:00	5	Humedad	95
43829	7	Sololá	701	Sololá	1	Sololá	8	Agosto	2023-08-28T00:00:00	2024-11-08T01:00:00	6	Velocidad del viento	0
43830	7	Sololá	701	Sololá	1	Sololá	8	Agosto	2023-08-28T00:00:00	2024-11-08T01:00:00	7	Dirección del viento	0
43831	7	Sololá	701	Sololá	1	Sololá	8	Agosto	2023-08-28T00:00:00	2024-11-08T01:00:00	1	Precipitación	0
43832	7	Sololá	701	Sololá	1	Sololá	8	Agosto	2023-08-28T00:00:00	2024-11-08T01:00:00	8	Radiación solar	0
43833	7	Sololá	701	Sololá	1	Sololá	8	Agosto	2023-08-28T00:00:00	2024-11-08T02:00:00	2	Temperatura media	14.8
43834	7	Sololá	701	Sololá	1	Sololá	8	Agosto	2023-08-28T00:00:00	2024-11-08T02:00:00	4	Temperatura máxima	15.6
43835	7	Sololá	701	Sololá	1	Sololá	8	Agosto	2023-08-28T00:00:00	2024-11-08T02:00:00	3	Temperatura mínima	14.8
43836	7	Sololá	701	Sololá	1	Sololá	8	Agosto	2023-08-28T00:00:00	2024-11-08T02:00:00	5	Humedad	95
43837	7	Sololá	701	Sololá	1	Sololá	8	Agosto	2023-08-28T00:00:00	2024-11-08T02:00:00	6	Velocidad del viento	0
43838	7	Sololá	701	Sololá	1	Sololá	8	Agosto	2023-08-28T00:00:00	2024-11-08T02:00:00	7	Dirección del viento	0
43839	7	Sololá	701	Sololá	1	Sololá	8	Agosto	2023-08-28T00:00:00	2024-11-08T02:00:00	1	Precipitación	13.2
43840	7	Sololá	701	Sololá	1	Sololá	8	Agosto	2023-08-28T00:00:00	2024-11-08T02:00:00	8	Radiación solar	0
43841	7	Sololá	701	Sololá	1	Sololá	8	Agosto	2023-08-28T00:00:00	2024-11-08T03:00:00	2	Temperatura media	13.8
43842	7	Sololá	701	Sololá	1	Sololá	8	Agosto	2023-08-28T00:00:00	2024-11-08T03:00:00	4	Temperatura máxima	14.8
43843	7	Sololá	701	Sololá	1	Sololá	8	Agosto	2023-08-28T00:00:00	2024-11-08T03:00:00	3	Temperatura mínima	13.8
43844	7	Sololá	701	Sololá	1	Sololá	8	Agosto	2023-08-28T00:00:00	2024-11-08T03:00:00	5	Humedad	96
43845	7	Sololá	701	Sololá	1	Sololá	8	Agosto	2023-08-28T00:00:00	2024-11-08T03:00:00	6	Velocidad del viento	0
43846	7	Sololá	701	Sololá	1	Sololá	8	Agosto	2023-08-28T00:00:00	2024-11-08T03:00:00	7	Dirección del viento	0
43847	7	Sololá	701	Sololá	1	Sololá	8	Agosto	2023-08-28T00:00:00	2024-11-08T03:00:00	1	Precipitación	0.2
43848	7	Sololá	701	Sololá	1	Sololá	8	Agosto	2023-08-28T00:00:00	2024-11-08T03:00:00	8	Radiación solar	0
43849	7	Sololá	701	Sololá	1	Sololá	8	Agosto	2023-08-28T00:00:00	2024-11-08T04:00:00	2	Temperatura media	13.8
43850	7	Sololá	701	Sololá	1	Sololá	8	Agosto	2023-08-28T00:00:00	2024-11-08T04:00:00	4	Temperatura máxima	13.9
43851	7	Sololá	701	Sololá	1	Sololá	8	Agosto	2023-08-28T00:00:00	2024-11-08T04:00:00	3	Temperatura mínima	13.7
43852	7	Sololá	701	Sololá	1	Sololá	8	Agosto	2023-08-28T00:00:00	2024-11-08T04:00:00	5	Humedad	96
43853	7	Sololá	701	Sololá	1	Sololá	8	Agosto	2023-08-28T00:00:00	2024-11-08T04:00:00	6	Velocidad del viento	0
43854	7	Sololá	701	Sololá	1	Sololá	8	Agosto	2023-08-28T00:00:00	2024-11-08T04:00:00	7	Dirección del viento	0
43855	7	Sololá	701	Sololá	1	Sololá	8	Agosto	2023-08-28T00:00:00	2024-11-08T04:00:00	1	Precipitación	0
43856	7	Sololá	701	Sololá	1	Sololá	8	Agosto	2023-08-28T00:00:00	2024-11-08T04:00:00	8	Radiación solar	0
43857	7	Sololá	701	Sololá	1	Sololá	8	Agosto	2023-08-28T00:00:00	2024-11-08T05:00:00	2	Temperatura media	13.7
43858	7	Sololá	701	Sololá	1	Sololá	8	Agosto	2023-08-28T00:00:00	2024-11-08T05:00:00	4	Temperatura máxima	13.8
43859	7	Sololá	701	Sololá	1	Sololá	8	Agosto	2023-08-28T00:00:00	2024-11-08T05:00:00	3	Temperatura mínima	13.7
43860	7	Sololá	701	Sololá	1	Sololá	8	Agosto	2023-08-28T00:00:00	2024-11-08T05:00:00	5	Humedad	96
43861	7	Sololá	701	Sololá	1	Sololá	8	Agosto	2023-08-28T00:00:00	2024-11-08T05:00:00	6	Velocidad del viento	0
43862	7	Sololá	701	Sololá	1	Sololá	8	Agosto	2023-08-28T00:00:00	2024-11-08T05:00:00	7	Dirección del viento	0
43863	7	Sololá	701	Sololá	1	Sololá	8	Agosto	2023-08-28T00:00:00	2024-11-08T05:00:00	1	Precipitación	0
43864	7	Sololá	701	Sololá	1	Sololá	8	Agosto	2023-08-28T00:00:00	2024-11-08T05:00:00	8	Radiación solar	0
43865	7	Sololá	701	Sololá	1	Sololá	8	Agosto	2023-08-28T00:00:00	2024-11-08T06:00:00	2	Temperatura media	13.4
43866	7	Sololá	701	Sololá	1	Sololá	8	Agosto	2023-08-28T00:00:00	2024-11-08T06:00:00	4	Temperatura máxima	13.7
43867	7	Sololá	701	Sololá	1	Sololá	8	Agosto	2023-08-28T00:00:00	2024-11-08T06:00:00	3	Temperatura mínima	13.4
43868	7	Sololá	701	Sololá	1	Sololá	8	Agosto	2023-08-28T00:00:00	2024-11-08T06:00:00	5	Humedad	96
43869	7	Sololá	701	Sololá	1	Sololá	8	Agosto	2023-08-28T00:00:00	2024-11-08T06:00:00	6	Velocidad del viento	0
43870	7	Sololá	701	Sololá	1	Sololá	8	Agosto	2023-08-28T00:00:00	2024-11-08T06:00:00	7	Dirección del viento	0
43871	7	Sololá	701	Sololá	1	Sololá	8	Agosto	2023-08-28T00:00:00	2024-11-08T06:00:00	1	Precipitación	0
43872	7	Sololá	701	Sololá	1	Sololá	8	Agosto	2023-08-28T00:00:00	2024-11-08T06:00:00	8	Radiación solar	0
43873	7	Sololá	701	Sololá	1	Sololá	8	Agosto	2023-08-28T00:00:00	2024-11-08T07:00:00	2	Temperatura media	13.8
43874	7	Sololá	701	Sololá	1	Sololá	8	Agosto	2023-08-28T00:00:00	2024-11-08T07:00:00	4	Temperatura máxima	13.8
43875	7	Sololá	701	Sololá	1	Sololá	8	Agosto	2023-08-28T00:00:00	2024-11-08T07:00:00	3	Temperatura mínima	13.4
43876	7	Sololá	701	Sololá	1	Sololá	8	Agosto	2023-08-28T00:00:00	2024-11-08T07:00:00	5	Humedad	97
43877	7	Sololá	701	Sololá	1	Sololá	8	Agosto	2023-08-28T00:00:00	2024-11-08T07:00:00	6	Velocidad del viento	0
43878	7	Sololá	701	Sololá	1	Sololá	8	Agosto	2023-08-28T00:00:00	2024-11-08T07:00:00	7	Dirección del viento	0
43879	7	Sololá	701	Sololá	1	Sololá	8	Agosto	2023-08-28T00:00:00	2024-11-08T07:00:00	1	Precipitación	0
43880	7	Sololá	701	Sololá	1	Sololá	8	Agosto	2023-08-28T00:00:00	2024-11-08T07:00:00	8	Radiación solar	20
43881	7	Sololá	701	Sololá	1	Sololá	8	Agosto	2023-08-28T00:00:00	2024-11-08T08:00:00	2	Temperatura media	15.2
43882	7	Sololá	701	Sololá	1	Sololá	8	Agosto	2023-08-28T00:00:00	2024-11-08T08:00:00	4	Temperatura máxima	15.2
43883	7	Sololá	701	Sololá	1	Sololá	8	Agosto	2023-08-28T00:00:00	2024-11-08T08:00:00	3	Temperatura mínima	13.8
43884	7	Sololá	701	Sololá	1	Sololá	8	Agosto	2023-08-28T00:00:00	2024-11-08T08:00:00	5	Humedad	96
43885	7	Sololá	701	Sololá	1	Sololá	8	Agosto	2023-08-28T00:00:00	2024-11-08T08:00:00	6	Velocidad del viento	0
43886	7	Sololá	701	Sololá	1	Sololá	8	Agosto	2023-08-28T00:00:00	2024-11-08T08:00:00	7	Dirección del viento	0
43887	7	Sololá	701	Sololá	1	Sololá	8	Agosto	2023-08-28T00:00:00	2024-11-08T08:00:00	1	Precipitación	0
43888	7	Sololá	701	Sololá	1	Sololá	8	Agosto	2023-08-28T00:00:00	2024-11-08T08:00:00	8	Radiación solar	198
43889	7	Sololá	701	Sololá	1	Sololá	8	Agosto	2023-08-28T00:00:00	2024-11-08T09:00:00	2	Temperatura media	17.1
43890	7	Sololá	701	Sololá	1	Sololá	8	Agosto	2023-08-28T00:00:00	2024-11-08T09:00:00	4	Temperatura máxima	17.1
43891	7	Sololá	701	Sololá	1	Sololá	8	Agosto	2023-08-28T00:00:00	2024-11-08T09:00:00	3	Temperatura mínima	15.2
43892	7	Sololá	701	Sololá	1	Sololá	8	Agosto	2023-08-28T00:00:00	2024-11-08T09:00:00	5	Humedad	94
43893	7	Sololá	701	Sololá	1	Sololá	8	Agosto	2023-08-28T00:00:00	2024-11-08T09:00:00	6	Velocidad del viento	0
43894	7	Sololá	701	Sololá	1	Sololá	8	Agosto	2023-08-28T00:00:00	2024-11-08T09:00:00	7	Dirección del viento	0
43895	7	Sololá	701	Sololá	1	Sololá	8	Agosto	2023-08-28T00:00:00	2024-11-08T09:00:00	1	Precipitación	0
43896	7	Sololá	701	Sololá	1	Sololá	8	Agosto	2023-08-28T00:00:00	2024-11-08T09:00:00	8	Radiación solar	368
43897	7	Sololá	701	Sololá	1	Sololá	8	Agosto	2023-08-28T00:00:00	2024-11-08T10:00:00	2	Temperatura media	19.5
43898	7	Sololá	701	Sololá	1	Sololá	8	Agosto	2023-08-28T00:00:00	2024-11-08T10:00:00	4	Temperatura máxima	19.5
43899	7	Sololá	701	Sololá	1	Sololá	8	Agosto	2023-08-28T00:00:00	2024-11-08T10:00:00	3	Temperatura mínima	17.1
43900	7	Sololá	701	Sololá	1	Sololá	8	Agosto	2023-08-28T00:00:00	2024-11-08T10:00:00	5	Humedad	81
43901	7	Sololá	701	Sololá	1	Sololá	8	Agosto	2023-08-28T00:00:00	2024-11-08T10:00:00	6	Velocidad del viento	0
43902	7	Sololá	701	Sololá	1	Sololá	8	Agosto	2023-08-28T00:00:00	2024-11-08T10:00:00	7	Dirección del viento	0
43903	7	Sololá	701	Sololá	1	Sololá	8	Agosto	2023-08-28T00:00:00	2024-11-08T10:00:00	1	Precipitación	0
43904	7	Sololá	701	Sololá	1	Sololá	8	Agosto	2023-08-28T00:00:00	2024-11-08T10:00:00	8	Radiación solar	759
43905	7	Sololá	701	Sololá	1	Sololá	8	Agosto	2023-08-28T00:00:00	2024-11-08T11:00:00	2	Temperatura media	20.2
43906	7	Sololá	701	Sololá	1	Sololá	8	Agosto	2023-08-28T00:00:00	2024-11-08T11:00:00	4	Temperatura máxima	20.2
43907	7	Sololá	701	Sololá	1	Sololá	8	Agosto	2023-08-28T00:00:00	2024-11-08T11:00:00	3	Temperatura mínima	19.5
43908	7	Sololá	701	Sololá	1	Sololá	8	Agosto	2023-08-28T00:00:00	2024-11-08T11:00:00	5	Humedad	79
43909	7	Sololá	701	Sololá	1	Sololá	8	Agosto	2023-08-28T00:00:00	2024-11-08T11:00:00	6	Velocidad del viento	0
43910	7	Sololá	701	Sololá	1	Sololá	8	Agosto	2023-08-28T00:00:00	2024-11-08T11:00:00	7	Dirección del viento	0
43911	7	Sololá	701	Sololá	1	Sololá	8	Agosto	2023-08-28T00:00:00	2024-11-08T11:00:00	1	Precipitación	0
43912	7	Sololá	701	Sololá	1	Sololá	8	Agosto	2023-08-28T00:00:00	2024-11-08T11:00:00	8	Radiación solar	429
43913	7	Sololá	701	Sololá	1	Sololá	8	Agosto	2023-08-28T00:00:00	2024-11-08T12:00:00	2	Temperatura media	19.1
43914	7	Sololá	701	Sololá	1	Sololá	8	Agosto	2023-08-28T00:00:00	2024-11-08T12:00:00	4	Temperatura máxima	20.2
43915	7	Sololá	701	Sololá	1	Sololá	8	Agosto	2023-08-28T00:00:00	2024-11-08T12:00:00	3	Temperatura mínima	19.1
43916	7	Sololá	701	Sololá	1	Sololá	8	Agosto	2023-08-28T00:00:00	2024-11-08T12:00:00	5	Humedad	85
43917	7	Sololá	701	Sololá	1	Sololá	8	Agosto	2023-08-28T00:00:00	2024-11-08T12:00:00	6	Velocidad del viento	0
43918	7	Sololá	701	Sololá	1	Sololá	8	Agosto	2023-08-28T00:00:00	2024-11-08T12:00:00	7	Dirección del viento	0
43919	7	Sololá	701	Sololá	1	Sololá	8	Agosto	2023-08-28T00:00:00	2024-11-08T12:00:00	1	Precipitación	0
43920	7	Sololá	701	Sololá	1	Sololá	8	Agosto	2023-08-28T00:00:00	2024-11-08T12:00:00	8	Radiación solar	232
43921	7	Sololá	701	Sololá	1	Sololá	8	Agosto	2023-08-28T00:00:00	2024-11-08T13:00:00	2	Temperatura media	18.3
43922	7	Sololá	701	Sololá	1	Sololá	8	Agosto	2023-08-28T00:00:00	2024-11-08T13:00:00	4	Temperatura máxima	19.1
43923	7	Sololá	701	Sololá	1	Sololá	8	Agosto	2023-08-28T00:00:00	2024-11-08T13:00:00	3	Temperatura mínima	18.1
43924	7	Sololá	701	Sololá	1	Sololá	8	Agosto	2023-08-28T00:00:00	2024-11-08T13:00:00	5	Humedad	90
43925	7	Sololá	701	Sololá	1	Sololá	8	Agosto	2023-08-28T00:00:00	2024-11-08T13:00:00	6	Velocidad del viento	0
43926	7	Sololá	701	Sololá	1	Sololá	8	Agosto	2023-08-28T00:00:00	2024-11-08T13:00:00	7	Dirección del viento	0
43927	7	Sololá	701	Sololá	1	Sololá	8	Agosto	2023-08-28T00:00:00	2024-11-08T13:00:00	1	Precipitación	0
43928	7	Sololá	701	Sololá	1	Sololá	8	Agosto	2023-08-28T00:00:00	2024-11-08T13:00:00	8	Radiación solar	122
43929	7	Sololá	701	Sololá	1	Sololá	8	Agosto	2023-08-28T00:00:00	2024-11-08T14:00:00	2	Temperatura media	18.3
43930	7	Sololá	701	Sololá	1	Sololá	8	Agosto	2023-08-28T00:00:00	2024-11-08T14:00:00	4	Temperatura máxima	18.8
43931	7	Sololá	701	Sololá	1	Sololá	8	Agosto	2023-08-28T00:00:00	2024-11-08T14:00:00	3	Temperatura mínima	18.2
43932	7	Sololá	701	Sololá	1	Sololá	8	Agosto	2023-08-28T00:00:00	2024-11-08T14:00:00	5	Humedad	91
43933	7	Sololá	701	Sololá	1	Sololá	8	Agosto	2023-08-28T00:00:00	2024-11-08T14:00:00	6	Velocidad del viento	0
43934	7	Sololá	701	Sololá	1	Sololá	8	Agosto	2023-08-28T00:00:00	2024-11-08T14:00:00	7	Dirección del viento	0
43935	7	Sololá	701	Sololá	1	Sololá	8	Agosto	2023-08-28T00:00:00	2024-11-08T14:00:00	1	Precipitación	0
43936	7	Sololá	701	Sololá	1	Sololá	8	Agosto	2023-08-28T00:00:00	2024-11-08T14:00:00	8	Radiación solar	131
43937	7	Sololá	701	Sololá	1	Sololá	8	Agosto	2023-08-28T00:00:00	2024-11-08T15:00:00	2	Temperatura media	16.8
43938	7	Sololá	701	Sololá	1	Sololá	8	Agosto	2023-08-28T00:00:00	2024-11-08T15:00:00	4	Temperatura máxima	18.3
43939	7	Sololá	701	Sololá	1	Sololá	8	Agosto	2023-08-28T00:00:00	2024-11-08T15:00:00	3	Temperatura mínima	16.7
43940	7	Sololá	701	Sololá	1	Sololá	8	Agosto	2023-08-28T00:00:00	2024-11-08T15:00:00	5	Humedad	95
43941	7	Sololá	701	Sololá	1	Sololá	8	Agosto	2023-08-28T00:00:00	2024-11-08T15:00:00	6	Velocidad del viento	0
43942	7	Sololá	701	Sololá	1	Sololá	8	Agosto	2023-08-28T00:00:00	2024-11-08T15:00:00	7	Dirección del viento	0
43943	7	Sololá	701	Sololá	1	Sololá	8	Agosto	2023-08-28T00:00:00	2024-11-08T15:00:00	1	Precipitación	0
43944	7	Sololá	701	Sololá	1	Sololá	8	Agosto	2023-08-28T00:00:00	2024-11-08T15:00:00	8	Radiación solar	16
43945	7	Sololá	701	Sololá	1	Sololá	8	Agosto	2023-08-28T00:00:00	2024-11-08T16:00:00	2	Temperatura media	16.4
43946	7	Sololá	701	Sololá	1	Sololá	8	Agosto	2023-08-28T00:00:00	2024-11-08T16:00:00	4	Temperatura máxima	16.8
43947	7	Sololá	701	Sololá	1	Sololá	8	Agosto	2023-08-28T00:00:00	2024-11-08T16:00:00	3	Temperatura mínima	16.3
43948	7	Sololá	701	Sololá	1	Sololá	8	Agosto	2023-08-28T00:00:00	2024-11-08T16:00:00	5	Humedad	95
43949	7	Sololá	701	Sololá	1	Sololá	8	Agosto	2023-08-28T00:00:00	2024-11-08T16:00:00	6	Velocidad del viento	0
43950	7	Sololá	701	Sololá	1	Sololá	8	Agosto	2023-08-28T00:00:00	2024-11-08T16:00:00	7	Dirección del viento	0
43951	7	Sololá	701	Sololá	1	Sololá	8	Agosto	2023-08-28T00:00:00	2024-11-08T16:00:00	1	Precipitación	0
43952	7	Sololá	701	Sololá	1	Sololá	8	Agosto	2023-08-28T00:00:00	2024-11-08T16:00:00	8	Radiación solar	31
43953	7	Sololá	701	Sololá	1	Sololá	8	Agosto	2023-08-28T00:00:00	2024-11-08T17:00:00	2	Temperatura media	15.9
43954	7	Sololá	701	Sololá	1	Sololá	8	Agosto	2023-08-28T00:00:00	2024-11-08T17:00:00	4	Temperatura máxima	16.4
43955	7	Sololá	701	Sololá	1	Sololá	8	Agosto	2023-08-28T00:00:00	2024-11-08T17:00:00	3	Temperatura mínima	15.9
43956	7	Sololá	701	Sololá	1	Sololá	8	Agosto	2023-08-28T00:00:00	2024-11-08T17:00:00	5	Humedad	95
43957	7	Sololá	701	Sololá	1	Sololá	8	Agosto	2023-08-28T00:00:00	2024-11-08T17:00:00	6	Velocidad del viento	0
43958	7	Sololá	701	Sololá	1	Sololá	8	Agosto	2023-08-28T00:00:00	2024-11-08T17:00:00	7	Dirección del viento	0
43959	7	Sololá	701	Sololá	1	Sololá	8	Agosto	2023-08-28T00:00:00	2024-11-08T17:00:00	1	Precipitación	0.4
43960	7	Sololá	701	Sololá	1	Sololá	8	Agosto	2023-08-28T00:00:00	2024-11-08T17:00:00	8	Radiación solar	8
43961	7	Sololá	701	Sololá	1	Sololá	8	Agosto	2023-08-28T00:00:00	2024-11-08T18:00:00	2	Temperatura media	15.1
43962	7	Sololá	701	Sololá	1	Sololá	8	Agosto	2023-08-28T00:00:00	2024-11-08T18:00:00	4	Temperatura máxima	15.9
43963	7	Sololá	701	Sololá	1	Sololá	8	Agosto	2023-08-28T00:00:00	2024-11-08T18:00:00	3	Temperatura mínima	15.1
43964	7	Sololá	701	Sololá	1	Sololá	8	Agosto	2023-08-28T00:00:00	2024-11-08T18:00:00	5	Humedad	95
43965	7	Sololá	701	Sololá	1	Sololá	8	Agosto	2023-08-28T00:00:00	2024-11-08T18:00:00	6	Velocidad del viento	0
43966	7	Sololá	701	Sololá	1	Sololá	8	Agosto	2023-08-28T00:00:00	2024-11-08T18:00:00	7	Dirección del viento	0
43967	7	Sololá	701	Sololá	1	Sololá	8	Agosto	2023-08-28T00:00:00	2024-11-08T18:00:00	1	Precipitación	0
43968	7	Sololá	701	Sololá	1	Sololá	8	Agosto	2023-08-28T00:00:00	2024-11-08T18:00:00	8	Radiación solar	3
43969	7	Sololá	701	Sololá	1	Sololá	8	Agosto	2023-08-28T00:00:00	2024-11-08T19:00:00	2	Temperatura media	14.8
43970	7	Sololá	701	Sololá	1	Sololá	8	Agosto	2023-08-28T00:00:00	2024-11-08T19:00:00	4	Temperatura máxima	15.1
43971	7	Sololá	701	Sololá	1	Sololá	8	Agosto	2023-08-28T00:00:00	2024-11-08T19:00:00	3	Temperatura mínima	14.7
43972	7	Sololá	701	Sololá	1	Sololá	8	Agosto	2023-08-28T00:00:00	2024-11-08T19:00:00	5	Humedad	96
43973	7	Sololá	701	Sololá	1	Sololá	8	Agosto	2023-08-28T00:00:00	2024-11-08T19:00:00	6	Velocidad del viento	0
43974	7	Sololá	701	Sololá	1	Sololá	8	Agosto	2023-08-28T00:00:00	2024-11-08T19:00:00	7	Dirección del viento	0
43975	7	Sololá	701	Sololá	1	Sololá	8	Agosto	2023-08-28T00:00:00	2024-11-08T19:00:00	1	Precipitación	0
43976	7	Sololá	701	Sololá	1	Sololá	8	Agosto	2023-08-28T00:00:00	2024-11-08T19:00:00	8	Radiación solar	0
43977	7	Sololá	701	Sololá	1	Sololá	8	Agosto	2023-08-28T00:00:00	2024-11-08T20:00:00	2	Temperatura media	14.9
43978	7	Sololá	701	Sololá	1	Sololá	8	Agosto	2023-08-28T00:00:00	2024-11-08T20:00:00	4	Temperatura máxima	15
43979	7	Sololá	701	Sololá	1	Sololá	8	Agosto	2023-08-28T00:00:00	2024-11-08T20:00:00	3	Temperatura mínima	14.8
43980	7	Sololá	701	Sololá	1	Sololá	8	Agosto	2023-08-28T00:00:00	2024-11-08T20:00:00	5	Humedad	96
43981	7	Sololá	701	Sololá	1	Sololá	8	Agosto	2023-08-28T00:00:00	2024-11-08T20:00:00	6	Velocidad del viento	0
43982	7	Sololá	701	Sololá	1	Sololá	8	Agosto	2023-08-28T00:00:00	2024-11-08T20:00:00	7	Dirección del viento	0
43983	7	Sololá	701	Sololá	1	Sololá	8	Agosto	2023-08-28T00:00:00	2024-11-08T20:00:00	1	Precipitación	0
43984	7	Sololá	701	Sololá	1	Sololá	8	Agosto	2023-08-28T00:00:00	2024-11-08T20:00:00	8	Radiación solar	0
43985	7	Sololá	701	Sololá	1	Sololá	8	Agosto	2023-08-28T00:00:00	2024-11-08T21:00:00	2	Temperatura media	14.8
43986	7	Sololá	701	Sololá	1	Sololá	8	Agosto	2023-08-28T00:00:00	2024-11-08T21:00:00	4	Temperatura máxima	14.9
43987	7	Sololá	701	Sololá	1	Sololá	8	Agosto	2023-08-28T00:00:00	2024-11-08T21:00:00	3	Temperatura mínima	14.8
43988	7	Sololá	701	Sololá	1	Sololá	8	Agosto	2023-08-28T00:00:00	2024-11-08T21:00:00	5	Humedad	96
43989	7	Sololá	701	Sololá	1	Sololá	8	Agosto	2023-08-28T00:00:00	2024-11-08T21:00:00	6	Velocidad del viento	0
43990	7	Sololá	701	Sololá	1	Sololá	8	Agosto	2023-08-28T00:00:00	2024-11-08T21:00:00	7	Dirección del viento	0
43991	7	Sololá	701	Sololá	1	Sololá	8	Agosto	2023-08-28T00:00:00	2024-11-08T21:00:00	1	Precipitación	0
43992	7	Sololá	701	Sololá	1	Sololá	8	Agosto	2023-08-28T00:00:00	2024-11-08T21:00:00	8	Radiación solar	0
43993	7	Sololá	701	Sololá	1	Sololá	8	Agosto	2023-08-28T00:00:00	2024-11-08T22:00:00	2	Temperatura media	14.5
43994	7	Sololá	701	Sololá	1	Sololá	8	Agosto	2023-08-28T00:00:00	2024-11-08T22:00:00	4	Temperatura máxima	14.8
43995	7	Sololá	701	Sololá	1	Sololá	8	Agosto	2023-08-28T00:00:00	2024-11-08T22:00:00	3	Temperatura mínima	14.5
43996	7	Sololá	701	Sololá	1	Sololá	8	Agosto	2023-08-28T00:00:00	2024-11-08T22:00:00	5	Humedad	95
43997	7	Sololá	701	Sololá	1	Sololá	8	Agosto	2023-08-28T00:00:00	2024-11-08T22:00:00	6	Velocidad del viento	0
43998	7	Sololá	701	Sololá	1	Sololá	8	Agosto	2023-08-28T00:00:00	2024-11-08T22:00:00	7	Dirección del viento	0
43999	7	Sololá	701	Sololá	1	Sololá	8	Agosto	2023-08-28T00:00:00	2024-11-08T22:00:00	1	Precipitación	0
44000	7	Sololá	701	Sololá	1	Sololá	8	Agosto	2023-08-28T00:00:00	2024-11-08T22:00:00	8	Radiación solar	0
44001	7	Sololá	701	Sololá	1	Sololá	8	Agosto	2023-08-28T00:00:00	2024-11-08T23:00:00	2	Temperatura media	14.3
44002	7	Sololá	701	Sololá	1	Sololá	8	Agosto	2023-08-28T00:00:00	2024-11-08T23:00:00	4	Temperatura máxima	14.5
44003	7	Sololá	701	Sololá	1	Sololá	8	Agosto	2023-08-28T00:00:00	2024-11-08T23:00:00	3	Temperatura mínima	14.3
44004	7	Sololá	701	Sololá	1	Sololá	8	Agosto	2023-08-28T00:00:00	2024-11-08T23:00:00	5	Humedad	95
44005	7	Sololá	701	Sololá	1	Sololá	8	Agosto	2023-08-28T00:00:00	2024-11-08T23:00:00	6	Velocidad del viento	0
44006	7	Sololá	701	Sololá	1	Sololá	8	Agosto	2023-08-28T00:00:00	2024-11-08T23:00:00	7	Dirección del viento	0
44007	7	Sololá	701	Sololá	1	Sololá	8	Agosto	2023-08-28T00:00:00	2024-11-08T23:00:00	1	Precipitación	0
44008	7	Sololá	701	Sololá	1	Sololá	8	Agosto	2023-08-28T00:00:00	2024-11-08T23:00:00	8	Radiación solar	0
44009	7	Sololá	701	Sololá	1	Sololá	8	Agosto	2023-08-29T00:00:00	2024-11-08T00:00:00	2	Temperatura media	14.3
44010	7	Sololá	701	Sololá	1	Sololá	8	Agosto	2023-08-29T00:00:00	2024-11-08T00:00:00	4	Temperatura máxima	14.3
44011	7	Sololá	701	Sololá	1	Sololá	8	Agosto	2023-08-29T00:00:00	2024-11-08T00:00:00	3	Temperatura mínima	14.3
44012	7	Sololá	701	Sololá	1	Sololá	8	Agosto	2023-08-29T00:00:00	2024-11-08T00:00:00	5	Humedad	95
44013	7	Sololá	701	Sololá	1	Sololá	8	Agosto	2023-08-29T00:00:00	2024-11-08T00:00:00	6	Velocidad del viento	0
44014	7	Sololá	701	Sololá	1	Sololá	8	Agosto	2023-08-29T00:00:00	2024-11-08T00:00:00	7	Dirección del viento	0
44015	7	Sololá	701	Sololá	1	Sololá	8	Agosto	2023-08-29T00:00:00	2024-11-08T00:00:00	1	Precipitación	0
44016	7	Sololá	701	Sololá	1	Sololá	8	Agosto	2023-08-29T00:00:00	2024-11-08T00:00:00	8	Radiación solar	0
44017	7	Sololá	701	Sololá	1	Sololá	8	Agosto	2023-08-29T00:00:00	2024-11-08T01:00:00	2	Temperatura media	14.2
44018	7	Sololá	701	Sololá	1	Sololá	8	Agosto	2023-08-29T00:00:00	2024-11-08T01:00:00	4	Temperatura máxima	14.3
44019	7	Sololá	701	Sololá	1	Sololá	8	Agosto	2023-08-29T00:00:00	2024-11-08T01:00:00	3	Temperatura mínima	14.1
44020	7	Sololá	701	Sololá	1	Sololá	8	Agosto	2023-08-29T00:00:00	2024-11-08T01:00:00	5	Humedad	95
44021	7	Sololá	701	Sololá	1	Sololá	8	Agosto	2023-08-29T00:00:00	2024-11-08T01:00:00	6	Velocidad del viento	0
44022	7	Sololá	701	Sololá	1	Sololá	8	Agosto	2023-08-29T00:00:00	2024-11-08T01:00:00	7	Dirección del viento	0
44023	7	Sololá	701	Sololá	1	Sololá	8	Agosto	2023-08-29T00:00:00	2024-11-08T01:00:00	1	Precipitación	0
44024	7	Sololá	701	Sololá	1	Sololá	8	Agosto	2023-08-29T00:00:00	2024-11-08T01:00:00	8	Radiación solar	0
44025	7	Sololá	701	Sololá	1	Sololá	8	Agosto	2023-08-29T00:00:00	2024-11-08T02:00:00	2	Temperatura media	13.8
44026	7	Sololá	701	Sololá	1	Sololá	8	Agosto	2023-08-29T00:00:00	2024-11-08T02:00:00	4	Temperatura máxima	14.2
44027	7	Sololá	701	Sololá	1	Sololá	8	Agosto	2023-08-29T00:00:00	2024-11-08T02:00:00	3	Temperatura mínima	13.8
44028	7	Sololá	701	Sololá	1	Sololá	8	Agosto	2023-08-29T00:00:00	2024-11-08T02:00:00	5	Humedad	95
44029	7	Sololá	701	Sololá	1	Sololá	8	Agosto	2023-08-29T00:00:00	2024-11-08T02:00:00	6	Velocidad del viento	0
44030	7	Sololá	701	Sololá	1	Sololá	8	Agosto	2023-08-29T00:00:00	2024-11-08T02:00:00	7	Dirección del viento	0
44031	7	Sololá	701	Sololá	1	Sololá	8	Agosto	2023-08-29T00:00:00	2024-11-08T02:00:00	1	Precipitación	0
44032	7	Sololá	701	Sololá	1	Sololá	8	Agosto	2023-08-29T00:00:00	2024-11-08T02:00:00	8	Radiación solar	0
44033	7	Sololá	701	Sololá	1	Sololá	8	Agosto	2023-08-29T00:00:00	2024-11-08T03:00:00	2	Temperatura media	13.8
44034	7	Sololá	701	Sololá	1	Sololá	8	Agosto	2023-08-29T00:00:00	2024-11-08T03:00:00	4	Temperatura máxima	13.9
44035	7	Sololá	701	Sololá	1	Sololá	8	Agosto	2023-08-29T00:00:00	2024-11-08T03:00:00	3	Temperatura mínima	13.8
44036	7	Sololá	701	Sololá	1	Sololá	8	Agosto	2023-08-29T00:00:00	2024-11-08T03:00:00	5	Humedad	94
44037	7	Sololá	701	Sololá	1	Sololá	8	Agosto	2023-08-29T00:00:00	2024-11-08T03:00:00	6	Velocidad del viento	0
44038	7	Sololá	701	Sololá	1	Sololá	8	Agosto	2023-08-29T00:00:00	2024-11-08T03:00:00	7	Dirección del viento	0
44039	7	Sololá	701	Sololá	1	Sololá	8	Agosto	2023-08-29T00:00:00	2024-11-08T03:00:00	1	Precipitación	0
44040	7	Sololá	701	Sololá	1	Sololá	8	Agosto	2023-08-29T00:00:00	2024-11-08T03:00:00	8	Radiación solar	0
44041	7	Sololá	701	Sololá	1	Sololá	8	Agosto	2023-08-29T00:00:00	2024-11-08T04:00:00	2	Temperatura media	13.8
44042	7	Sololá	701	Sololá	1	Sololá	8	Agosto	2023-08-29T00:00:00	2024-11-08T04:00:00	4	Temperatura máxima	13.9
44043	7	Sololá	701	Sololá	1	Sololá	8	Agosto	2023-08-29T00:00:00	2024-11-08T04:00:00	3	Temperatura mínima	13.8
44044	7	Sololá	701	Sololá	1	Sololá	8	Agosto	2023-08-29T00:00:00	2024-11-08T04:00:00	5	Humedad	94
44045	7	Sololá	701	Sololá	1	Sololá	8	Agosto	2023-08-29T00:00:00	2024-11-08T04:00:00	6	Velocidad del viento	0
44046	7	Sololá	701	Sololá	1	Sololá	8	Agosto	2023-08-29T00:00:00	2024-11-08T04:00:00	7	Dirección del viento	0
44047	7	Sololá	701	Sololá	1	Sololá	8	Agosto	2023-08-29T00:00:00	2024-11-08T04:00:00	1	Precipitación	0
44048	7	Sololá	701	Sololá	1	Sololá	8	Agosto	2023-08-29T00:00:00	2024-11-08T04:00:00	8	Radiación solar	0
44049	7	Sololá	701	Sololá	1	Sololá	8	Agosto	2023-08-29T00:00:00	2024-11-08T05:00:00	2	Temperatura media	13.8
44050	7	Sololá	701	Sololá	1	Sololá	8	Agosto	2023-08-29T00:00:00	2024-11-08T05:00:00	4	Temperatura máxima	13.8
44051	7	Sololá	701	Sololá	1	Sololá	8	Agosto	2023-08-29T00:00:00	2024-11-08T05:00:00	3	Temperatura mínima	13.8
44052	7	Sololá	701	Sololá	1	Sololá	8	Agosto	2023-08-29T00:00:00	2024-11-08T05:00:00	5	Humedad	94
44053	7	Sololá	701	Sololá	1	Sololá	8	Agosto	2023-08-29T00:00:00	2024-11-08T05:00:00	6	Velocidad del viento	0
44054	7	Sololá	701	Sololá	1	Sololá	8	Agosto	2023-08-29T00:00:00	2024-11-08T05:00:00	7	Dirección del viento	0
44055	7	Sololá	701	Sololá	1	Sololá	8	Agosto	2023-08-29T00:00:00	2024-11-08T05:00:00	1	Precipitación	0
44056	7	Sololá	701	Sololá	1	Sololá	8	Agosto	2023-08-29T00:00:00	2024-11-08T05:00:00	8	Radiación solar	0
44057	7	Sololá	701	Sololá	1	Sololá	8	Agosto	2023-08-29T00:00:00	2024-11-08T06:00:00	2	Temperatura media	13.2
44058	7	Sololá	701	Sololá	1	Sololá	8	Agosto	2023-08-29T00:00:00	2024-11-08T06:00:00	4	Temperatura máxima	13.8
44059	7	Sololá	701	Sololá	1	Sololá	8	Agosto	2023-08-29T00:00:00	2024-11-08T06:00:00	3	Temperatura mínima	13.2
44060	7	Sololá	701	Sololá	1	Sololá	8	Agosto	2023-08-29T00:00:00	2024-11-08T06:00:00	5	Humedad	94
44061	7	Sololá	701	Sololá	1	Sololá	8	Agosto	2023-08-29T00:00:00	2024-11-08T06:00:00	6	Velocidad del viento	0
44062	7	Sololá	701	Sololá	1	Sololá	8	Agosto	2023-08-29T00:00:00	2024-11-08T06:00:00	7	Dirección del viento	0
44063	7	Sololá	701	Sololá	1	Sololá	8	Agosto	2023-08-29T00:00:00	2024-11-08T06:00:00	1	Precipitación	0
44064	7	Sololá	701	Sololá	1	Sololá	8	Agosto	2023-08-29T00:00:00	2024-11-08T06:00:00	8	Radiación solar	0
44065	7	Sololá	701	Sololá	1	Sololá	8	Agosto	2023-08-29T00:00:00	2024-11-08T07:00:00	2	Temperatura media	13.9
44066	7	Sololá	701	Sololá	1	Sololá	8	Agosto	2023-08-29T00:00:00	2024-11-08T07:00:00	4	Temperatura máxima	13.9
44067	7	Sololá	701	Sololá	1	Sololá	8	Agosto	2023-08-29T00:00:00	2024-11-08T07:00:00	3	Temperatura mínima	13.1
44068	7	Sololá	701	Sololá	1	Sololá	8	Agosto	2023-08-29T00:00:00	2024-11-08T07:00:00	5	Humedad	95
44069	7	Sololá	701	Sololá	1	Sololá	8	Agosto	2023-08-29T00:00:00	2024-11-08T07:00:00	6	Velocidad del viento	0
44070	7	Sololá	701	Sololá	1	Sololá	8	Agosto	2023-08-29T00:00:00	2024-11-08T07:00:00	7	Dirección del viento	0
44071	7	Sololá	701	Sololá	1	Sololá	8	Agosto	2023-08-29T00:00:00	2024-11-08T07:00:00	1	Precipitación	0
44072	7	Sololá	701	Sololá	1	Sololá	8	Agosto	2023-08-29T00:00:00	2024-11-08T07:00:00	8	Radiación solar	26
44073	7	Sololá	701	Sololá	1	Sololá	8	Agosto	2023-08-29T00:00:00	2024-11-08T08:00:00	2	Temperatura media	14.9
44074	7	Sololá	701	Sololá	1	Sololá	8	Agosto	2023-08-29T00:00:00	2024-11-08T08:00:00	4	Temperatura máxima	15
44075	7	Sololá	701	Sololá	1	Sololá	8	Agosto	2023-08-29T00:00:00	2024-11-08T08:00:00	3	Temperatura mínima	13.9
44076	7	Sololá	701	Sololá	1	Sololá	8	Agosto	2023-08-29T00:00:00	2024-11-08T08:00:00	5	Humedad	95
44077	7	Sololá	701	Sololá	1	Sololá	8	Agosto	2023-08-29T00:00:00	2024-11-08T08:00:00	6	Velocidad del viento	0
44078	7	Sololá	701	Sololá	1	Sololá	8	Agosto	2023-08-29T00:00:00	2024-11-08T08:00:00	7	Dirección del viento	0
44079	7	Sololá	701	Sololá	1	Sololá	8	Agosto	2023-08-29T00:00:00	2024-11-08T08:00:00	1	Precipitación	0
44080	7	Sololá	701	Sololá	1	Sololá	8	Agosto	2023-08-29T00:00:00	2024-11-08T08:00:00	8	Radiación solar	32
44081	7	Sololá	701	Sololá	1	Sololá	8	Agosto	2023-08-29T00:00:00	2024-11-08T09:00:00	2	Temperatura media	16.9
44082	7	Sololá	701	Sololá	1	Sololá	8	Agosto	2023-08-29T00:00:00	2024-11-08T09:00:00	4	Temperatura máxima	16.9
44083	7	Sololá	701	Sololá	1	Sololá	8	Agosto	2023-08-29T00:00:00	2024-11-08T09:00:00	3	Temperatura mínima	15
44084	7	Sololá	701	Sololá	1	Sololá	8	Agosto	2023-08-29T00:00:00	2024-11-08T09:00:00	5	Humedad	94
44085	7	Sololá	701	Sololá	1	Sololá	8	Agosto	2023-08-29T00:00:00	2024-11-08T09:00:00	6	Velocidad del viento	0
44086	7	Sololá	701	Sololá	1	Sololá	8	Agosto	2023-08-29T00:00:00	2024-11-08T09:00:00	7	Dirección del viento	0
44087	7	Sololá	701	Sololá	1	Sololá	8	Agosto	2023-08-29T00:00:00	2024-11-08T09:00:00	1	Precipitación	0
44088	7	Sololá	701	Sololá	1	Sololá	8	Agosto	2023-08-29T00:00:00	2024-11-08T09:00:00	8	Radiación solar	194
44089	7	Sololá	701	Sololá	1	Sololá	8	Agosto	2023-08-29T00:00:00	2024-11-08T10:00:00	2	Temperatura media	19.9
44090	7	Sololá	701	Sololá	1	Sololá	8	Agosto	2023-08-29T00:00:00	2024-11-08T10:00:00	4	Temperatura máxima	19.9
44091	7	Sololá	701	Sololá	1	Sololá	8	Agosto	2023-08-29T00:00:00	2024-11-08T10:00:00	3	Temperatura mínima	16.9
44092	7	Sololá	701	Sololá	1	Sololá	8	Agosto	2023-08-29T00:00:00	2024-11-08T10:00:00	5	Humedad	85
44093	7	Sololá	701	Sololá	1	Sololá	8	Agosto	2023-08-29T00:00:00	2024-11-08T10:00:00	6	Velocidad del viento	0
44094	7	Sololá	701	Sololá	1	Sololá	8	Agosto	2023-08-29T00:00:00	2024-11-08T10:00:00	7	Dirección del viento	0
44095	7	Sololá	701	Sololá	1	Sololá	8	Agosto	2023-08-29T00:00:00	2024-11-08T10:00:00	1	Precipitación	0
44096	7	Sololá	701	Sololá	1	Sololá	8	Agosto	2023-08-29T00:00:00	2024-11-08T10:00:00	8	Radiación solar	584
44097	7	Sololá	701	Sololá	1	Sololá	8	Agosto	2023-08-29T00:00:00	2024-11-08T11:00:00	2	Temperatura media	20.6
44098	7	Sololá	701	Sololá	1	Sololá	8	Agosto	2023-08-29T00:00:00	2024-11-08T11:00:00	4	Temperatura máxima	20.7
44099	7	Sololá	701	Sololá	1	Sololá	8	Agosto	2023-08-29T00:00:00	2024-11-08T11:00:00	3	Temperatura mínima	19.9
44100	7	Sololá	701	Sololá	1	Sololá	8	Agosto	2023-08-29T00:00:00	2024-11-08T11:00:00	5	Humedad	80
44101	7	Sololá	701	Sololá	1	Sololá	8	Agosto	2023-08-29T00:00:00	2024-11-08T11:00:00	6	Velocidad del viento	0
44102	7	Sololá	701	Sololá	1	Sololá	8	Agosto	2023-08-29T00:00:00	2024-11-08T11:00:00	7	Dirección del viento	0
44103	7	Sololá	701	Sololá	1	Sololá	8	Agosto	2023-08-29T00:00:00	2024-11-08T11:00:00	1	Precipitación	0
44104	7	Sololá	701	Sololá	1	Sololá	8	Agosto	2023-08-29T00:00:00	2024-11-08T11:00:00	8	Radiación solar	485
44105	7	Sololá	701	Sololá	1	Sololá	8	Agosto	2023-08-29T00:00:00	2024-11-08T12:00:00	2	Temperatura media	20.1
44106	7	Sololá	701	Sololá	1	Sololá	8	Agosto	2023-08-29T00:00:00	2024-11-08T12:00:00	4	Temperatura máxima	20.7
44107	7	Sololá	701	Sololá	1	Sololá	8	Agosto	2023-08-29T00:00:00	2024-11-08T12:00:00	3	Temperatura mínima	20.1
44108	7	Sololá	701	Sololá	1	Sololá	8	Agosto	2023-08-29T00:00:00	2024-11-08T12:00:00	5	Humedad	84
44109	7	Sololá	701	Sololá	1	Sololá	8	Agosto	2023-08-29T00:00:00	2024-11-08T12:00:00	6	Velocidad del viento	0
44110	7	Sololá	701	Sololá	1	Sololá	8	Agosto	2023-08-29T00:00:00	2024-11-08T12:00:00	7	Dirección del viento	0
44111	7	Sololá	701	Sololá	1	Sololá	8	Agosto	2023-08-29T00:00:00	2024-11-08T12:00:00	1	Precipitación	0
44112	7	Sololá	701	Sololá	1	Sololá	8	Agosto	2023-08-29T00:00:00	2024-11-08T12:00:00	8	Radiación solar	267
44113	7	Sololá	701	Sololá	1	Sololá	8	Agosto	2023-08-29T00:00:00	2024-11-08T13:00:00	2	Temperatura media	19.1
44114	7	Sololá	701	Sololá	1	Sololá	8	Agosto	2023-08-29T00:00:00	2024-11-08T13:00:00	4	Temperatura máxima	20.1
44115	7	Sololá	701	Sololá	1	Sololá	8	Agosto	2023-08-29T00:00:00	2024-11-08T13:00:00	3	Temperatura mínima	19.1
44116	7	Sololá	701	Sololá	1	Sololá	8	Agosto	2023-08-29T00:00:00	2024-11-08T13:00:00	5	Humedad	86
44117	7	Sololá	701	Sololá	1	Sololá	8	Agosto	2023-08-29T00:00:00	2024-11-08T13:00:00	6	Velocidad del viento	0
44118	7	Sololá	701	Sololá	1	Sololá	8	Agosto	2023-08-29T00:00:00	2024-11-08T13:00:00	7	Dirección del viento	0
44119	7	Sololá	701	Sololá	1	Sololá	8	Agosto	2023-08-29T00:00:00	2024-11-08T13:00:00	1	Precipitación	0
44120	7	Sololá	701	Sololá	1	Sololá	8	Agosto	2023-08-29T00:00:00	2024-11-08T13:00:00	8	Radiación solar	218
44121	7	Sololá	701	Sololá	1	Sololá	8	Agosto	2023-08-29T00:00:00	2024-11-08T14:00:00	2	Temperatura media	18.8
44122	7	Sololá	701	Sololá	1	Sololá	8	Agosto	2023-08-29T00:00:00	2024-11-08T14:00:00	4	Temperatura máxima	19.1
44123	7	Sololá	701	Sololá	1	Sololá	8	Agosto	2023-08-29T00:00:00	2024-11-08T14:00:00	3	Temperatura mínima	18.7
44124	7	Sololá	701	Sololá	1	Sololá	8	Agosto	2023-08-29T00:00:00	2024-11-08T14:00:00	5	Humedad	89
44125	7	Sololá	701	Sololá	1	Sololá	8	Agosto	2023-08-29T00:00:00	2024-11-08T14:00:00	6	Velocidad del viento	0
44126	7	Sololá	701	Sololá	1	Sololá	8	Agosto	2023-08-29T00:00:00	2024-11-08T14:00:00	7	Dirección del viento	0
44127	7	Sololá	701	Sololá	1	Sololá	8	Agosto	2023-08-29T00:00:00	2024-11-08T14:00:00	1	Precipitación	0
44128	7	Sololá	701	Sololá	1	Sololá	8	Agosto	2023-08-29T00:00:00	2024-11-08T14:00:00	8	Radiación solar	139
44129	7	Sololá	701	Sololá	1	Sololá	8	Agosto	2023-08-29T00:00:00	2024-11-08T15:00:00	2	Temperatura media	18.1
44130	7	Sololá	701	Sololá	1	Sololá	8	Agosto	2023-08-29T00:00:00	2024-11-08T15:00:00	4	Temperatura máxima	18.8
44131	7	Sololá	701	Sololá	1	Sololá	8	Agosto	2023-08-29T00:00:00	2024-11-08T15:00:00	3	Temperatura mínima	18.1
44132	7	Sololá	701	Sololá	1	Sololá	8	Agosto	2023-08-29T00:00:00	2024-11-08T15:00:00	5	Humedad	90
44133	7	Sololá	701	Sololá	1	Sololá	8	Agosto	2023-08-29T00:00:00	2024-11-08T15:00:00	6	Velocidad del viento	0
44134	7	Sololá	701	Sololá	1	Sololá	8	Agosto	2023-08-29T00:00:00	2024-11-08T15:00:00	7	Dirección del viento	0
44135	7	Sololá	701	Sololá	1	Sololá	8	Agosto	2023-08-29T00:00:00	2024-11-08T15:00:00	1	Precipitación	0
44136	7	Sololá	701	Sololá	1	Sololá	8	Agosto	2023-08-29T00:00:00	2024-11-08T15:00:00	8	Radiación solar	70
44137	7	Sololá	701	Sololá	1	Sololá	8	Agosto	2023-08-29T00:00:00	2024-11-08T16:00:00	2	Temperatura media	17.9
44138	7	Sololá	701	Sololá	1	Sololá	8	Agosto	2023-08-29T00:00:00	2024-11-08T16:00:00	4	Temperatura máxima	18.1
44139	7	Sololá	701	Sololá	1	Sololá	8	Agosto	2023-08-29T00:00:00	2024-11-08T16:00:00	3	Temperatura mínima	17.9
44140	7	Sololá	701	Sololá	1	Sololá	8	Agosto	2023-08-29T00:00:00	2024-11-08T16:00:00	5	Humedad	92
44141	7	Sololá	701	Sololá	1	Sololá	8	Agosto	2023-08-29T00:00:00	2024-11-08T16:00:00	6	Velocidad del viento	0
44142	7	Sololá	701	Sololá	1	Sololá	8	Agosto	2023-08-29T00:00:00	2024-11-08T16:00:00	7	Dirección del viento	0
44143	7	Sololá	701	Sololá	1	Sololá	8	Agosto	2023-08-29T00:00:00	2024-11-08T16:00:00	1	Precipitación	0
44144	7	Sololá	701	Sololá	1	Sololá	8	Agosto	2023-08-29T00:00:00	2024-11-08T16:00:00	8	Radiación solar	54
44145	7	Sololá	701	Sololá	1	Sololá	8	Agosto	2023-08-29T00:00:00	2024-11-08T17:00:00	2	Temperatura media	17.4
44146	7	Sololá	701	Sololá	1	Sololá	8	Agosto	2023-08-29T00:00:00	2024-11-08T17:00:00	4	Temperatura máxima	17.9
44147	7	Sololá	701	Sololá	1	Sololá	8	Agosto	2023-08-29T00:00:00	2024-11-08T17:00:00	3	Temperatura mínima	17.4
44148	7	Sololá	701	Sololá	1	Sololá	8	Agosto	2023-08-29T00:00:00	2024-11-08T17:00:00	5	Humedad	93
44149	7	Sololá	701	Sololá	1	Sololá	8	Agosto	2023-08-29T00:00:00	2024-11-08T17:00:00	6	Velocidad del viento	0
44150	7	Sololá	701	Sololá	1	Sololá	8	Agosto	2023-08-29T00:00:00	2024-11-08T17:00:00	7	Dirección del viento	0
44151	7	Sololá	701	Sololá	1	Sololá	8	Agosto	2023-08-29T00:00:00	2024-11-08T17:00:00	1	Precipitación	0
44152	7	Sololá	701	Sololá	1	Sololá	8	Agosto	2023-08-29T00:00:00	2024-11-08T17:00:00	8	Radiación solar	14
44153	7	Sololá	701	Sololá	1	Sololá	8	Agosto	2023-08-29T00:00:00	2024-11-08T18:00:00	2	Temperatura media	17.1
44154	7	Sololá	701	Sololá	1	Sololá	8	Agosto	2023-08-29T00:00:00	2024-11-08T18:00:00	4	Temperatura máxima	17.4
44155	7	Sololá	701	Sololá	1	Sololá	8	Agosto	2023-08-29T00:00:00	2024-11-08T18:00:00	3	Temperatura mínima	17.1
44156	7	Sololá	701	Sololá	1	Sololá	8	Agosto	2023-08-29T00:00:00	2024-11-08T18:00:00	5	Humedad	94
44157	7	Sololá	701	Sololá	1	Sololá	8	Agosto	2023-08-29T00:00:00	2024-11-08T18:00:00	6	Velocidad del viento	0
44158	7	Sololá	701	Sololá	1	Sololá	8	Agosto	2023-08-29T00:00:00	2024-11-08T18:00:00	7	Dirección del viento	0
44159	7	Sololá	701	Sololá	1	Sololá	8	Agosto	2023-08-29T00:00:00	2024-11-08T18:00:00	1	Precipitación	0
44160	7	Sololá	701	Sololá	1	Sololá	8	Agosto	2023-08-29T00:00:00	2024-11-08T18:00:00	8	Radiación solar	4
44161	7	Sololá	701	Sololá	1	Sololá	8	Agosto	2023-08-29T00:00:00	2024-11-08T19:00:00	2	Temperatura media	16.3
44162	7	Sololá	701	Sololá	1	Sololá	8	Agosto	2023-08-29T00:00:00	2024-11-08T19:00:00	4	Temperatura máxima	17.1
44163	7	Sololá	701	Sololá	1	Sololá	8	Agosto	2023-08-29T00:00:00	2024-11-08T19:00:00	3	Temperatura mínima	16.3
44164	7	Sololá	701	Sololá	1	Sololá	8	Agosto	2023-08-29T00:00:00	2024-11-08T19:00:00	5	Humedad	95
44165	7	Sololá	701	Sololá	1	Sololá	8	Agosto	2023-08-29T00:00:00	2024-11-08T19:00:00	6	Velocidad del viento	0
44166	7	Sololá	701	Sololá	1	Sololá	8	Agosto	2023-08-29T00:00:00	2024-11-08T19:00:00	7	Dirección del viento	0
44167	7	Sololá	701	Sololá	1	Sololá	8	Agosto	2023-08-29T00:00:00	2024-11-08T19:00:00	1	Precipitación	0.4
44168	7	Sololá	701	Sololá	1	Sololá	8	Agosto	2023-08-29T00:00:00	2024-11-08T19:00:00	8	Radiación solar	0
44169	7	Sololá	701	Sololá	1	Sololá	8	Agosto	2023-08-29T00:00:00	2024-11-08T20:00:00	2	Temperatura media	16.1
44170	7	Sololá	701	Sololá	1	Sololá	8	Agosto	2023-08-29T00:00:00	2024-11-08T20:00:00	4	Temperatura máxima	16.4
44171	7	Sololá	701	Sololá	1	Sololá	8	Agosto	2023-08-29T00:00:00	2024-11-08T20:00:00	3	Temperatura mínima	16.1
44172	7	Sololá	701	Sololá	1	Sololá	8	Agosto	2023-08-29T00:00:00	2024-11-08T20:00:00	5	Humedad	95
44173	7	Sololá	701	Sololá	1	Sololá	8	Agosto	2023-08-29T00:00:00	2024-11-08T20:00:00	6	Velocidad del viento	0
44174	7	Sololá	701	Sololá	1	Sololá	8	Agosto	2023-08-29T00:00:00	2024-11-08T20:00:00	7	Dirección del viento	0
44175	7	Sololá	701	Sololá	1	Sololá	8	Agosto	2023-08-29T00:00:00	2024-11-08T20:00:00	1	Precipitación	18.2
44176	7	Sololá	701	Sololá	1	Sololá	8	Agosto	2023-08-29T00:00:00	2024-11-08T20:00:00	8	Radiación solar	0
44177	7	Sololá	701	Sololá	1	Sololá	8	Agosto	2023-08-29T00:00:00	2024-11-08T21:00:00	2	Temperatura media	15.6
44178	7	Sololá	701	Sololá	1	Sololá	8	Agosto	2023-08-29T00:00:00	2024-11-08T21:00:00	4	Temperatura máxima	16.1
44179	7	Sololá	701	Sololá	1	Sololá	8	Agosto	2023-08-29T00:00:00	2024-11-08T21:00:00	3	Temperatura mínima	15.6
44180	7	Sololá	701	Sololá	1	Sololá	8	Agosto	2023-08-29T00:00:00	2024-11-08T21:00:00	5	Humedad	96
44181	7	Sololá	701	Sololá	1	Sololá	8	Agosto	2023-08-29T00:00:00	2024-11-08T21:00:00	6	Velocidad del viento	0
44182	7	Sololá	701	Sololá	1	Sololá	8	Agosto	2023-08-29T00:00:00	2024-11-08T21:00:00	7	Dirección del viento	0
44183	7	Sololá	701	Sololá	1	Sololá	8	Agosto	2023-08-29T00:00:00	2024-11-08T21:00:00	1	Precipitación	0.4
44184	7	Sololá	701	Sololá	1	Sololá	8	Agosto	2023-08-29T00:00:00	2024-11-08T21:00:00	8	Radiación solar	0
44185	7	Sololá	701	Sololá	1	Sololá	8	Agosto	2023-08-29T00:00:00	2024-11-08T22:00:00	2	Temperatura media	15.3
44186	7	Sololá	701	Sololá	1	Sololá	8	Agosto	2023-08-29T00:00:00	2024-11-08T22:00:00	4	Temperatura máxima	15.6
44187	7	Sololá	701	Sololá	1	Sololá	8	Agosto	2023-08-29T00:00:00	2024-11-08T22:00:00	3	Temperatura mínima	15.3
44188	7	Sololá	701	Sololá	1	Sololá	8	Agosto	2023-08-29T00:00:00	2024-11-08T22:00:00	5	Humedad	96
44189	7	Sololá	701	Sololá	1	Sololá	8	Agosto	2023-08-29T00:00:00	2024-11-08T22:00:00	6	Velocidad del viento	0
44190	7	Sololá	701	Sololá	1	Sololá	8	Agosto	2023-08-29T00:00:00	2024-11-08T22:00:00	7	Dirección del viento	0
44191	7	Sololá	701	Sololá	1	Sololá	8	Agosto	2023-08-29T00:00:00	2024-11-08T22:00:00	1	Precipitación	0.2
44192	7	Sololá	701	Sololá	1	Sololá	8	Agosto	2023-08-29T00:00:00	2024-11-08T22:00:00	8	Radiación solar	0
44193	7	Sololá	701	Sololá	1	Sololá	8	Agosto	2023-08-29T00:00:00	2024-11-08T23:00:00	2	Temperatura media	15.3
44194	7	Sololá	701	Sololá	1	Sololá	8	Agosto	2023-08-29T00:00:00	2024-11-08T23:00:00	4	Temperatura máxima	15.4
44195	7	Sololá	701	Sololá	1	Sololá	8	Agosto	2023-08-29T00:00:00	2024-11-08T23:00:00	3	Temperatura mínima	15.3
44196	7	Sololá	701	Sololá	1	Sololá	8	Agosto	2023-08-29T00:00:00	2024-11-08T23:00:00	5	Humedad	96
44197	7	Sololá	701	Sololá	1	Sololá	8	Agosto	2023-08-29T00:00:00	2024-11-08T23:00:00	6	Velocidad del viento	0
44198	7	Sololá	701	Sololá	1	Sololá	8	Agosto	2023-08-29T00:00:00	2024-11-08T23:00:00	7	Dirección del viento	0
44199	7	Sololá	701	Sololá	1	Sololá	8	Agosto	2023-08-29T00:00:00	2024-11-08T23:00:00	1	Precipitación	0
44200	7	Sololá	701	Sololá	1	Sololá	8	Agosto	2023-08-29T00:00:00	2024-11-08T23:00:00	8	Radiación solar	0
44201	7	Sololá	701	Sololá	1	Sololá	8	Agosto	2023-08-30T00:00:00	2024-11-08T00:00:00	2	Temperatura media	15.2
44202	7	Sololá	701	Sololá	1	Sololá	8	Agosto	2023-08-30T00:00:00	2024-11-08T00:00:00	4	Temperatura máxima	15.3
44203	7	Sololá	701	Sololá	1	Sololá	8	Agosto	2023-08-30T00:00:00	2024-11-08T00:00:00	3	Temperatura mínima	15.2
44204	7	Sololá	701	Sololá	1	Sololá	8	Agosto	2023-08-30T00:00:00	2024-11-08T00:00:00	5	Humedad	96
44205	7	Sololá	701	Sololá	1	Sololá	8	Agosto	2023-08-30T00:00:00	2024-11-08T00:00:00	6	Velocidad del viento	0
44206	7	Sololá	701	Sololá	1	Sololá	8	Agosto	2023-08-30T00:00:00	2024-11-08T00:00:00	7	Dirección del viento	0
44207	7	Sololá	701	Sololá	1	Sololá	8	Agosto	2023-08-30T00:00:00	2024-11-08T00:00:00	1	Precipitación	0
44208	7	Sololá	701	Sololá	1	Sololá	8	Agosto	2023-08-30T00:00:00	2024-11-08T00:00:00	8	Radiación solar	0
44209	7	Sololá	701	Sololá	1	Sololá	8	Agosto	2023-08-30T00:00:00	2024-11-08T01:00:00	2	Temperatura media	14.8
44210	7	Sololá	701	Sololá	1	Sololá	8	Agosto	2023-08-30T00:00:00	2024-11-08T01:00:00	4	Temperatura máxima	15.2
44211	7	Sololá	701	Sololá	1	Sololá	8	Agosto	2023-08-30T00:00:00	2024-11-08T01:00:00	3	Temperatura mínima	14.8
44212	7	Sololá	701	Sololá	1	Sololá	8	Agosto	2023-08-30T00:00:00	2024-11-08T01:00:00	5	Humedad	96
44213	7	Sololá	701	Sololá	1	Sololá	8	Agosto	2023-08-30T00:00:00	2024-11-08T01:00:00	6	Velocidad del viento	0
44214	7	Sololá	701	Sololá	1	Sololá	8	Agosto	2023-08-30T00:00:00	2024-11-08T01:00:00	7	Dirección del viento	0
44215	7	Sololá	701	Sololá	1	Sololá	8	Agosto	2023-08-30T00:00:00	2024-11-08T01:00:00	1	Precipitación	0.2
44216	7	Sololá	701	Sololá	1	Sololá	8	Agosto	2023-08-30T00:00:00	2024-11-08T01:00:00	8	Radiación solar	0
44217	7	Sololá	701	Sololá	1	Sololá	8	Agosto	2023-08-30T00:00:00	2024-11-08T02:00:00	2	Temperatura media	14.6
44218	7	Sololá	701	Sololá	1	Sololá	8	Agosto	2023-08-30T00:00:00	2024-11-08T02:00:00	4	Temperatura máxima	14.8
44219	7	Sololá	701	Sololá	1	Sololá	8	Agosto	2023-08-30T00:00:00	2024-11-08T02:00:00	3	Temperatura mínima	14.6
44220	7	Sololá	701	Sololá	1	Sololá	8	Agosto	2023-08-30T00:00:00	2024-11-08T02:00:00	5	Humedad	96
44221	7	Sololá	701	Sololá	1	Sololá	8	Agosto	2023-08-30T00:00:00	2024-11-08T02:00:00	6	Velocidad del viento	0
44222	7	Sololá	701	Sololá	1	Sololá	8	Agosto	2023-08-30T00:00:00	2024-11-08T02:00:00	7	Dirección del viento	0
44223	7	Sololá	701	Sololá	1	Sololá	8	Agosto	2023-08-30T00:00:00	2024-11-08T02:00:00	1	Precipitación	0.4
44224	7	Sololá	701	Sololá	1	Sololá	8	Agosto	2023-08-30T00:00:00	2024-11-08T02:00:00	8	Radiación solar	0
44225	7	Sololá	701	Sololá	1	Sololá	8	Agosto	2023-08-30T00:00:00	2024-11-08T03:00:00	2	Temperatura media	14.2
44226	7	Sololá	701	Sololá	1	Sololá	8	Agosto	2023-08-30T00:00:00	2024-11-08T03:00:00	4	Temperatura máxima	14.6
44227	7	Sololá	701	Sololá	1	Sololá	8	Agosto	2023-08-30T00:00:00	2024-11-08T03:00:00	3	Temperatura mínima	14.2
44228	7	Sololá	701	Sololá	1	Sololá	8	Agosto	2023-08-30T00:00:00	2024-11-08T03:00:00	5	Humedad	96
44229	7	Sololá	701	Sololá	1	Sololá	8	Agosto	2023-08-30T00:00:00	2024-11-08T03:00:00	6	Velocidad del viento	0
44230	7	Sololá	701	Sololá	1	Sololá	8	Agosto	2023-08-30T00:00:00	2024-11-08T03:00:00	7	Dirección del viento	0
44231	7	Sololá	701	Sololá	1	Sololá	8	Agosto	2023-08-30T00:00:00	2024-11-08T03:00:00	1	Precipitación	0.2
44232	7	Sololá	701	Sololá	1	Sololá	8	Agosto	2023-08-30T00:00:00	2024-11-08T03:00:00	8	Radiación solar	0
44233	7	Sololá	701	Sololá	1	Sololá	8	Agosto	2023-08-30T00:00:00	2024-11-08T04:00:00	2	Temperatura media	14.1
44234	7	Sololá	701	Sololá	1	Sololá	8	Agosto	2023-08-30T00:00:00	2024-11-08T04:00:00	4	Temperatura máxima	14.3
44235	7	Sololá	701	Sololá	1	Sololá	8	Agosto	2023-08-30T00:00:00	2024-11-08T04:00:00	3	Temperatura mínima	14.1
44236	7	Sololá	701	Sololá	1	Sololá	8	Agosto	2023-08-30T00:00:00	2024-11-08T04:00:00	5	Humedad	96
44237	7	Sololá	701	Sololá	1	Sololá	8	Agosto	2023-08-30T00:00:00	2024-11-08T04:00:00	6	Velocidad del viento	0
44238	7	Sololá	701	Sololá	1	Sololá	8	Agosto	2023-08-30T00:00:00	2024-11-08T04:00:00	7	Dirección del viento	0
44239	7	Sololá	701	Sololá	1	Sololá	8	Agosto	2023-08-30T00:00:00	2024-11-08T04:00:00	1	Precipitación	0
44240	7	Sololá	701	Sololá	1	Sololá	8	Agosto	2023-08-30T00:00:00	2024-11-08T04:00:00	8	Radiación solar	0
44241	7	Sololá	701	Sololá	1	Sololá	8	Agosto	2023-08-30T00:00:00	2024-11-08T05:00:00	2	Temperatura media	14.1
44242	7	Sololá	701	Sololá	1	Sololá	8	Agosto	2023-08-30T00:00:00	2024-11-08T05:00:00	4	Temperatura máxima	14.2
44243	7	Sololá	701	Sololá	1	Sololá	8	Agosto	2023-08-30T00:00:00	2024-11-08T05:00:00	3	Temperatura mínima	14
44244	7	Sololá	701	Sololá	1	Sololá	8	Agosto	2023-08-30T00:00:00	2024-11-08T05:00:00	5	Humedad	96
44245	7	Sololá	701	Sololá	1	Sololá	8	Agosto	2023-08-30T00:00:00	2024-11-08T05:00:00	6	Velocidad del viento	0
44246	7	Sololá	701	Sololá	1	Sololá	8	Agosto	2023-08-30T00:00:00	2024-11-08T05:00:00	7	Dirección del viento	0
44247	7	Sololá	701	Sololá	1	Sololá	8	Agosto	2023-08-30T00:00:00	2024-11-08T05:00:00	1	Precipitación	0
44248	7	Sololá	701	Sololá	1	Sololá	8	Agosto	2023-08-30T00:00:00	2024-11-08T05:00:00	8	Radiación solar	0
44249	7	Sololá	701	Sololá	1	Sololá	8	Agosto	2023-08-30T00:00:00	2024-11-08T06:00:00	2	Temperatura media	14
44250	7	Sololá	701	Sololá	1	Sololá	8	Agosto	2023-08-30T00:00:00	2024-11-08T06:00:00	4	Temperatura máxima	14.1
44251	7	Sololá	701	Sololá	1	Sololá	8	Agosto	2023-08-30T00:00:00	2024-11-08T06:00:00	3	Temperatura mínima	14
44252	7	Sololá	701	Sololá	1	Sololá	8	Agosto	2023-08-30T00:00:00	2024-11-08T06:00:00	5	Humedad	95
44253	7	Sololá	701	Sololá	1	Sololá	8	Agosto	2023-08-30T00:00:00	2024-11-08T06:00:00	6	Velocidad del viento	0
44254	7	Sololá	701	Sololá	1	Sololá	8	Agosto	2023-08-30T00:00:00	2024-11-08T06:00:00	7	Dirección del viento	0
44255	7	Sololá	701	Sololá	1	Sololá	8	Agosto	2023-08-30T00:00:00	2024-11-08T06:00:00	1	Precipitación	0
44256	7	Sololá	701	Sololá	1	Sololá	8	Agosto	2023-08-30T00:00:00	2024-11-08T06:00:00	8	Radiación solar	0
44257	7	Sololá	701	Sololá	1	Sololá	8	Agosto	2023-08-30T00:00:00	2024-11-08T07:00:00	2	Temperatura media	14.4
44258	7	Sololá	701	Sololá	1	Sololá	8	Agosto	2023-08-30T00:00:00	2024-11-08T07:00:00	4	Temperatura máxima	14.4
44259	7	Sololá	701	Sololá	1	Sololá	8	Agosto	2023-08-30T00:00:00	2024-11-08T07:00:00	3	Temperatura mínima	13.9
44260	7	Sololá	701	Sololá	1	Sololá	8	Agosto	2023-08-30T00:00:00	2024-11-08T07:00:00	5	Humedad	95
44261	7	Sololá	701	Sololá	1	Sololá	8	Agosto	2023-08-30T00:00:00	2024-11-08T07:00:00	6	Velocidad del viento	0
44262	7	Sololá	701	Sololá	1	Sololá	8	Agosto	2023-08-30T00:00:00	2024-11-08T07:00:00	7	Dirección del viento	0
44263	7	Sololá	701	Sololá	1	Sololá	8	Agosto	2023-08-30T00:00:00	2024-11-08T07:00:00	1	Precipitación	0
44264	7	Sololá	701	Sololá	1	Sololá	8	Agosto	2023-08-30T00:00:00	2024-11-08T07:00:00	8	Radiación solar	15
44265	7	Sololá	701	Sololá	1	Sololá	8	Agosto	2023-08-30T00:00:00	2024-11-08T08:00:00	2	Temperatura media	15.8
44266	7	Sololá	701	Sololá	1	Sololá	8	Agosto	2023-08-30T00:00:00	2024-11-08T08:00:00	4	Temperatura máxima	15.8
44267	7	Sololá	701	Sololá	1	Sololá	8	Agosto	2023-08-30T00:00:00	2024-11-08T08:00:00	3	Temperatura mínima	14.3
44268	7	Sololá	701	Sololá	1	Sololá	8	Agosto	2023-08-30T00:00:00	2024-11-08T08:00:00	5	Humedad	96
44269	7	Sololá	701	Sololá	1	Sololá	8	Agosto	2023-08-30T00:00:00	2024-11-08T08:00:00	6	Velocidad del viento	0
44270	7	Sololá	701	Sololá	1	Sololá	8	Agosto	2023-08-30T00:00:00	2024-11-08T08:00:00	7	Dirección del viento	0
44271	7	Sololá	701	Sololá	1	Sololá	8	Agosto	2023-08-30T00:00:00	2024-11-08T08:00:00	1	Precipitación	0.2
44272	7	Sololá	701	Sololá	1	Sololá	8	Agosto	2023-08-30T00:00:00	2024-11-08T08:00:00	8	Radiación solar	69
44273	7	Sololá	701	Sololá	1	Sololá	8	Agosto	2023-08-30T00:00:00	2024-11-08T09:00:00	2	Temperatura media	16.6
44274	7	Sololá	701	Sololá	1	Sololá	8	Agosto	2023-08-30T00:00:00	2024-11-08T09:00:00	4	Temperatura máxima	16.6
44275	7	Sololá	701	Sololá	1	Sololá	8	Agosto	2023-08-30T00:00:00	2024-11-08T09:00:00	3	Temperatura mínima	15.8
44276	7	Sololá	701	Sololá	1	Sololá	8	Agosto	2023-08-30T00:00:00	2024-11-08T09:00:00	5	Humedad	95
44277	7	Sololá	701	Sololá	1	Sololá	8	Agosto	2023-08-30T00:00:00	2024-11-08T09:00:00	6	Velocidad del viento	0
44278	7	Sololá	701	Sololá	1	Sololá	8	Agosto	2023-08-30T00:00:00	2024-11-08T09:00:00	7	Dirección del viento	0
44279	7	Sololá	701	Sololá	1	Sololá	8	Agosto	2023-08-30T00:00:00	2024-11-08T09:00:00	1	Precipitación	0
44280	7	Sololá	701	Sololá	1	Sololá	8	Agosto	2023-08-30T00:00:00	2024-11-08T09:00:00	8	Radiación solar	120
44281	7	Sololá	701	Sololá	1	Sololá	8	Agosto	2023-08-30T00:00:00	2024-11-08T10:00:00	2	Temperatura media	20.4
44282	7	Sololá	701	Sololá	1	Sololá	8	Agosto	2023-08-30T00:00:00	2024-11-08T10:00:00	4	Temperatura máxima	20.4
44283	7	Sololá	701	Sololá	1	Sololá	8	Agosto	2023-08-30T00:00:00	2024-11-08T10:00:00	3	Temperatura mínima	16.6
44284	7	Sololá	701	Sololá	1	Sololá	8	Agosto	2023-08-30T00:00:00	2024-11-08T10:00:00	5	Humedad	82
44285	7	Sololá	701	Sololá	1	Sololá	8	Agosto	2023-08-30T00:00:00	2024-11-08T10:00:00	6	Velocidad del viento	0
44286	7	Sololá	701	Sololá	1	Sololá	8	Agosto	2023-08-30T00:00:00	2024-11-08T10:00:00	7	Dirección del viento	0
44287	7	Sololá	701	Sololá	1	Sololá	8	Agosto	2023-08-30T00:00:00	2024-11-08T10:00:00	1	Precipitación	0
44288	7	Sololá	701	Sololá	1	Sololá	8	Agosto	2023-08-30T00:00:00	2024-11-08T10:00:00	8	Radiación solar	409
44289	7	Sololá	701	Sololá	1	Sololá	8	Agosto	2023-08-30T00:00:00	2024-11-08T11:00:00	2	Temperatura media	20.6
44290	7	Sololá	701	Sololá	1	Sololá	8	Agosto	2023-08-30T00:00:00	2024-11-08T11:00:00	4	Temperatura máxima	20.7
44291	7	Sololá	701	Sololá	1	Sololá	8	Agosto	2023-08-30T00:00:00	2024-11-08T11:00:00	3	Temperatura mínima	19.8
44292	7	Sololá	701	Sololá	1	Sololá	8	Agosto	2023-08-30T00:00:00	2024-11-08T11:00:00	5	Humedad	78
44293	7	Sololá	701	Sololá	1	Sololá	8	Agosto	2023-08-30T00:00:00	2024-11-08T11:00:00	6	Velocidad del viento	0
44294	7	Sololá	701	Sololá	1	Sololá	8	Agosto	2023-08-30T00:00:00	2024-11-08T11:00:00	7	Dirección del viento	0
44295	7	Sololá	701	Sololá	1	Sololá	8	Agosto	2023-08-30T00:00:00	2024-11-08T11:00:00	1	Precipitación	0
44296	7	Sololá	701	Sololá	1	Sololá	8	Agosto	2023-08-30T00:00:00	2024-11-08T11:00:00	8	Radiación solar	413
44297	7	Sololá	701	Sololá	1	Sololá	8	Agosto	2023-08-30T00:00:00	2024-11-08T12:00:00	2	Temperatura media	21.3
44298	7	Sololá	701	Sololá	1	Sololá	8	Agosto	2023-08-30T00:00:00	2024-11-08T12:00:00	4	Temperatura máxima	21.3
44299	7	Sololá	701	Sololá	1	Sololá	8	Agosto	2023-08-30T00:00:00	2024-11-08T12:00:00	3	Temperatura mínima	20.3
44300	7	Sololá	701	Sololá	1	Sololá	8	Agosto	2023-08-30T00:00:00	2024-11-08T12:00:00	5	Humedad	81
44301	7	Sololá	701	Sololá	1	Sololá	8	Agosto	2023-08-30T00:00:00	2024-11-08T12:00:00	6	Velocidad del viento	0
44302	7	Sololá	701	Sololá	1	Sololá	8	Agosto	2023-08-30T00:00:00	2024-11-08T12:00:00	7	Dirección del viento	0
44303	7	Sololá	701	Sololá	1	Sololá	8	Agosto	2023-08-30T00:00:00	2024-11-08T12:00:00	1	Precipitación	0
44304	7	Sololá	701	Sololá	1	Sololá	8	Agosto	2023-08-30T00:00:00	2024-11-08T12:00:00	8	Radiación solar	279
44305	7	Sololá	701	Sololá	1	Sololá	8	Agosto	2023-08-30T00:00:00	2024-11-08T13:00:00	2	Temperatura media	20.7
44306	7	Sololá	701	Sololá	1	Sololá	8	Agosto	2023-08-30T00:00:00	2024-11-08T13:00:00	4	Temperatura máxima	21.3
44307	7	Sololá	701	Sololá	1	Sololá	8	Agosto	2023-08-30T00:00:00	2024-11-08T13:00:00	3	Temperatura mínima	20.7
44308	7	Sololá	701	Sololá	1	Sololá	8	Agosto	2023-08-30T00:00:00	2024-11-08T13:00:00	5	Humedad	82
44309	7	Sololá	701	Sololá	1	Sololá	8	Agosto	2023-08-30T00:00:00	2024-11-08T13:00:00	6	Velocidad del viento	0
44310	7	Sololá	701	Sololá	1	Sololá	8	Agosto	2023-08-30T00:00:00	2024-11-08T13:00:00	7	Dirección del viento	0
44311	7	Sololá	701	Sololá	1	Sololá	8	Agosto	2023-08-30T00:00:00	2024-11-08T13:00:00	1	Precipitación	0
44312	7	Sololá	701	Sololá	1	Sololá	8	Agosto	2023-08-30T00:00:00	2024-11-08T13:00:00	8	Radiación solar	313
44313	7	Sololá	701	Sololá	1	Sololá	8	Agosto	2023-08-30T00:00:00	2024-11-08T14:00:00	2	Temperatura media	20.8
44314	7	Sololá	701	Sololá	1	Sololá	8	Agosto	2023-08-30T00:00:00	2024-11-08T14:00:00	4	Temperatura máxima	21.1
44315	7	Sololá	701	Sololá	1	Sololá	8	Agosto	2023-08-30T00:00:00	2024-11-08T14:00:00	3	Temperatura mínima	20.7
44316	7	Sololá	701	Sololá	1	Sololá	8	Agosto	2023-08-30T00:00:00	2024-11-08T14:00:00	5	Humedad	85
44317	7	Sololá	701	Sololá	1	Sololá	8	Agosto	2023-08-30T00:00:00	2024-11-08T14:00:00	6	Velocidad del viento	0
44318	7	Sololá	701	Sololá	1	Sololá	8	Agosto	2023-08-30T00:00:00	2024-11-08T14:00:00	7	Dirección del viento	0
44319	7	Sololá	701	Sololá	1	Sololá	8	Agosto	2023-08-30T00:00:00	2024-11-08T14:00:00	1	Precipitación	0
44320	7	Sololá	701	Sololá	1	Sololá	8	Agosto	2023-08-30T00:00:00	2024-11-08T14:00:00	8	Radiación solar	212
44321	7	Sololá	701	Sololá	1	Sololá	8	Agosto	2023-08-30T00:00:00	2024-11-08T15:00:00	2	Temperatura media	19.4
44322	7	Sololá	701	Sololá	1	Sololá	8	Agosto	2023-08-30T00:00:00	2024-11-08T15:00:00	4	Temperatura máxima	20.8
44323	7	Sololá	701	Sololá	1	Sololá	8	Agosto	2023-08-30T00:00:00	2024-11-08T15:00:00	3	Temperatura mínima	19.4
44324	7	Sololá	701	Sololá	1	Sololá	8	Agosto	2023-08-30T00:00:00	2024-11-08T15:00:00	5	Humedad	89
44325	7	Sololá	701	Sololá	1	Sololá	8	Agosto	2023-08-30T00:00:00	2024-11-08T15:00:00	6	Velocidad del viento	0
44326	7	Sololá	701	Sololá	1	Sololá	8	Agosto	2023-08-30T00:00:00	2024-11-08T15:00:00	7	Dirección del viento	0
44327	7	Sololá	701	Sololá	1	Sololá	8	Agosto	2023-08-30T00:00:00	2024-11-08T15:00:00	1	Precipitación	0
44328	7	Sololá	701	Sololá	1	Sololá	8	Agosto	2023-08-30T00:00:00	2024-11-08T15:00:00	8	Radiación solar	146
44329	7	Sololá	701	Sololá	1	Sololá	8	Agosto	2023-08-30T00:00:00	2024-11-08T16:00:00	2	Temperatura media	18.3
44330	7	Sololá	701	Sololá	1	Sololá	8	Agosto	2023-08-30T00:00:00	2024-11-08T16:00:00	4	Temperatura máxima	19.4
44331	7	Sololá	701	Sololá	1	Sololá	8	Agosto	2023-08-30T00:00:00	2024-11-08T16:00:00	3	Temperatura mínima	18.3
44332	7	Sololá	701	Sololá	1	Sololá	8	Agosto	2023-08-30T00:00:00	2024-11-08T16:00:00	5	Humedad	89
44333	7	Sololá	701	Sololá	1	Sololá	8	Agosto	2023-08-30T00:00:00	2024-11-08T16:00:00	6	Velocidad del viento	0
44334	7	Sololá	701	Sololá	1	Sololá	8	Agosto	2023-08-30T00:00:00	2024-11-08T16:00:00	7	Dirección del viento	0
44335	7	Sololá	701	Sololá	1	Sololá	8	Agosto	2023-08-30T00:00:00	2024-11-08T16:00:00	1	Precipitación	0
44336	7	Sololá	701	Sololá	1	Sololá	8	Agosto	2023-08-30T00:00:00	2024-11-08T16:00:00	8	Radiación solar	68
44337	7	Sololá	701	Sololá	1	Sololá	8	Agosto	2023-08-30T00:00:00	2024-11-08T17:00:00	2	Temperatura media	17.8
44338	7	Sololá	701	Sololá	1	Sololá	8	Agosto	2023-08-30T00:00:00	2024-11-08T17:00:00	4	Temperatura máxima	18.3
44339	7	Sololá	701	Sololá	1	Sololá	8	Agosto	2023-08-30T00:00:00	2024-11-08T17:00:00	3	Temperatura mínima	17.7
44340	7	Sololá	701	Sololá	1	Sololá	8	Agosto	2023-08-30T00:00:00	2024-11-08T17:00:00	5	Humedad	90
44341	7	Sololá	701	Sololá	1	Sololá	8	Agosto	2023-08-30T00:00:00	2024-11-08T17:00:00	6	Velocidad del viento	0
44342	7	Sololá	701	Sololá	1	Sololá	8	Agosto	2023-08-30T00:00:00	2024-11-08T17:00:00	7	Dirección del viento	0
44343	7	Sololá	701	Sololá	1	Sololá	8	Agosto	2023-08-30T00:00:00	2024-11-08T17:00:00	1	Precipitación	0
44344	7	Sololá	701	Sololá	1	Sololá	8	Agosto	2023-08-30T00:00:00	2024-11-08T17:00:00	8	Radiación solar	33
44345	7	Sololá	701	Sololá	1	Sololá	8	Agosto	2023-08-30T00:00:00	2024-11-08T18:00:00	2	Temperatura media	17.5
44346	7	Sololá	701	Sololá	1	Sololá	8	Agosto	2023-08-30T00:00:00	2024-11-08T18:00:00	4	Temperatura máxima	17.8
44347	7	Sololá	701	Sololá	1	Sololá	8	Agosto	2023-08-30T00:00:00	2024-11-08T18:00:00	3	Temperatura mínima	17.5
44348	7	Sololá	701	Sololá	1	Sololá	8	Agosto	2023-08-30T00:00:00	2024-11-08T18:00:00	5	Humedad	91
44349	7	Sololá	701	Sololá	1	Sololá	8	Agosto	2023-08-30T00:00:00	2024-11-08T18:00:00	6	Velocidad del viento	0
44350	7	Sololá	701	Sololá	1	Sololá	8	Agosto	2023-08-30T00:00:00	2024-11-08T18:00:00	7	Dirección del viento	0
44351	7	Sololá	701	Sololá	1	Sololá	8	Agosto	2023-08-30T00:00:00	2024-11-08T18:00:00	1	Precipitación	0
44352	7	Sololá	701	Sololá	1	Sololá	8	Agosto	2023-08-30T00:00:00	2024-11-08T18:00:00	8	Radiación solar	11
44353	7	Sololá	701	Sololá	1	Sololá	8	Agosto	2023-08-30T00:00:00	2024-11-08T19:00:00	2	Temperatura media	16.9
44354	7	Sololá	701	Sololá	1	Sololá	8	Agosto	2023-08-30T00:00:00	2024-11-08T19:00:00	4	Temperatura máxima	17.6
44355	7	Sololá	701	Sololá	1	Sololá	8	Agosto	2023-08-30T00:00:00	2024-11-08T19:00:00	3	Temperatura mínima	16.9
44356	7	Sololá	701	Sololá	1	Sololá	8	Agosto	2023-08-30T00:00:00	2024-11-08T19:00:00	5	Humedad	92
44357	7	Sololá	701	Sololá	1	Sololá	8	Agosto	2023-08-30T00:00:00	2024-11-08T19:00:00	6	Velocidad del viento	0
44358	7	Sololá	701	Sololá	1	Sololá	8	Agosto	2023-08-30T00:00:00	2024-11-08T19:00:00	7	Dirección del viento	0
44359	7	Sololá	701	Sololá	1	Sololá	8	Agosto	2023-08-30T00:00:00	2024-11-08T19:00:00	1	Precipitación	0
44360	7	Sololá	701	Sololá	1	Sololá	8	Agosto	2023-08-30T00:00:00	2024-11-08T19:00:00	8	Radiación solar	0
44361	7	Sololá	701	Sololá	1	Sololá	8	Agosto	2023-08-30T00:00:00	2024-11-08T20:00:00	2	Temperatura media	16.5
44362	7	Sololá	701	Sololá	1	Sololá	8	Agosto	2023-08-30T00:00:00	2024-11-08T20:00:00	4	Temperatura máxima	16.9
44363	7	Sololá	701	Sololá	1	Sololá	8	Agosto	2023-08-30T00:00:00	2024-11-08T20:00:00	3	Temperatura mínima	16.5
44364	7	Sololá	701	Sololá	1	Sololá	8	Agosto	2023-08-30T00:00:00	2024-11-08T20:00:00	5	Humedad	92
44365	7	Sololá	701	Sololá	1	Sololá	8	Agosto	2023-08-30T00:00:00	2024-11-08T20:00:00	6	Velocidad del viento	0
44366	7	Sololá	701	Sololá	1	Sololá	8	Agosto	2023-08-30T00:00:00	2024-11-08T20:00:00	7	Dirección del viento	0
44367	7	Sololá	701	Sololá	1	Sololá	8	Agosto	2023-08-30T00:00:00	2024-11-08T20:00:00	1	Precipitación	0
44368	7	Sololá	701	Sololá	1	Sololá	8	Agosto	2023-08-30T00:00:00	2024-11-08T20:00:00	8	Radiación solar	0
44369	7	Sololá	701	Sololá	1	Sololá	8	Agosto	2023-08-30T00:00:00	2024-11-08T21:00:00	2	Temperatura media	16.4
44370	7	Sololá	701	Sololá	1	Sololá	8	Agosto	2023-08-30T00:00:00	2024-11-08T21:00:00	4	Temperatura máxima	16.6
44371	7	Sololá	701	Sololá	1	Sololá	8	Agosto	2023-08-30T00:00:00	2024-11-08T21:00:00	3	Temperatura mínima	16.3
44372	7	Sololá	701	Sololá	1	Sololá	8	Agosto	2023-08-30T00:00:00	2024-11-08T21:00:00	5	Humedad	94
44373	7	Sololá	701	Sololá	1	Sololá	8	Agosto	2023-08-30T00:00:00	2024-11-08T21:00:00	6	Velocidad del viento	0
44374	7	Sololá	701	Sololá	1	Sololá	8	Agosto	2023-08-30T00:00:00	2024-11-08T21:00:00	7	Dirección del viento	0
44375	7	Sololá	701	Sololá	1	Sololá	8	Agosto	2023-08-30T00:00:00	2024-11-08T21:00:00	1	Precipitación	0
44376	7	Sololá	701	Sololá	1	Sololá	8	Agosto	2023-08-30T00:00:00	2024-11-08T21:00:00	8	Radiación solar	0
44377	7	Sololá	701	Sololá	1	Sololá	8	Agosto	2023-08-30T00:00:00	2024-11-08T22:00:00	2	Temperatura media	15.9
44378	7	Sololá	701	Sololá	1	Sololá	8	Agosto	2023-08-30T00:00:00	2024-11-08T22:00:00	4	Temperatura máxima	16.4
44379	7	Sololá	701	Sololá	1	Sololá	8	Agosto	2023-08-30T00:00:00	2024-11-08T22:00:00	3	Temperatura mínima	15.9
44380	7	Sololá	701	Sololá	1	Sololá	8	Agosto	2023-08-30T00:00:00	2024-11-08T22:00:00	5	Humedad	90
44381	7	Sololá	701	Sololá	1	Sololá	8	Agosto	2023-08-30T00:00:00	2024-11-08T22:00:00	6	Velocidad del viento	0
44382	7	Sololá	701	Sololá	1	Sololá	8	Agosto	2023-08-30T00:00:00	2024-11-08T22:00:00	7	Dirección del viento	0
44383	7	Sololá	701	Sololá	1	Sololá	8	Agosto	2023-08-30T00:00:00	2024-11-08T22:00:00	1	Precipitación	0
44384	7	Sololá	701	Sololá	1	Sololá	8	Agosto	2023-08-30T00:00:00	2024-11-08T22:00:00	8	Radiación solar	0
44385	7	Sololá	701	Sololá	1	Sololá	8	Agosto	2023-08-30T00:00:00	2024-11-08T23:00:00	2	Temperatura media	15.7
44386	7	Sololá	701	Sololá	1	Sololá	8	Agosto	2023-08-30T00:00:00	2024-11-08T23:00:00	4	Temperatura máxima	15.9
44387	7	Sololá	701	Sololá	1	Sololá	8	Agosto	2023-08-30T00:00:00	2024-11-08T23:00:00	3	Temperatura mínima	15.6
44388	7	Sololá	701	Sololá	1	Sololá	8	Agosto	2023-08-30T00:00:00	2024-11-08T23:00:00	5	Humedad	89
44389	7	Sololá	701	Sololá	1	Sololá	8	Agosto	2023-08-30T00:00:00	2024-11-08T23:00:00	6	Velocidad del viento	0
44390	7	Sololá	701	Sololá	1	Sololá	8	Agosto	2023-08-30T00:00:00	2024-11-08T23:00:00	7	Dirección del viento	0
44391	7	Sololá	701	Sololá	1	Sololá	8	Agosto	2023-08-30T00:00:00	2024-11-08T23:00:00	1	Precipitación	0
44392	7	Sololá	701	Sololá	1	Sololá	8	Agosto	2023-08-30T00:00:00	2024-11-08T23:00:00	8	Radiación solar	0
44393	7	Sololá	701	Sololá	1	Sololá	8	Agosto	2023-08-31T00:00:00	2024-11-08T00:00:00	2	Temperatura media	15.5
44394	7	Sololá	701	Sololá	1	Sololá	8	Agosto	2023-08-31T00:00:00	2024-11-08T00:00:00	4	Temperatura máxima	15.7
44395	7	Sololá	701	Sololá	1	Sololá	8	Agosto	2023-08-31T00:00:00	2024-11-08T00:00:00	3	Temperatura mínima	15.5
44396	7	Sololá	701	Sololá	1	Sololá	8	Agosto	2023-08-31T00:00:00	2024-11-08T00:00:00	5	Humedad	90
44397	7	Sololá	701	Sololá	1	Sololá	8	Agosto	2023-08-31T00:00:00	2024-11-08T00:00:00	6	Velocidad del viento	0
44398	7	Sololá	701	Sololá	1	Sololá	8	Agosto	2023-08-31T00:00:00	2024-11-08T00:00:00	7	Dirección del viento	0
44399	7	Sololá	701	Sololá	1	Sololá	8	Agosto	2023-08-31T00:00:00	2024-11-08T00:00:00	1	Precipitación	0
44400	7	Sololá	701	Sololá	1	Sololá	8	Agosto	2023-08-31T00:00:00	2024-11-08T00:00:00	8	Radiación solar	0
44401	7	Sololá	701	Sololá	1	Sololá	8	Agosto	2023-08-31T00:00:00	2024-11-08T01:00:00	2	Temperatura media	15.2
44402	7	Sololá	701	Sololá	1	Sololá	8	Agosto	2023-08-31T00:00:00	2024-11-08T01:00:00	4	Temperatura máxima	15.5
44403	7	Sololá	701	Sololá	1	Sololá	8	Agosto	2023-08-31T00:00:00	2024-11-08T01:00:00	3	Temperatura mínima	15.1
44404	7	Sololá	701	Sololá	1	Sololá	8	Agosto	2023-08-31T00:00:00	2024-11-08T01:00:00	5	Humedad	90
44405	7	Sololá	701	Sololá	1	Sololá	8	Agosto	2023-08-31T00:00:00	2024-11-08T01:00:00	6	Velocidad del viento	0
44406	7	Sololá	701	Sololá	1	Sololá	8	Agosto	2023-08-31T00:00:00	2024-11-08T01:00:00	7	Dirección del viento	0
44407	7	Sololá	701	Sololá	1	Sololá	8	Agosto	2023-08-31T00:00:00	2024-11-08T01:00:00	1	Precipitación	0
44408	7	Sololá	701	Sololá	1	Sololá	8	Agosto	2023-08-31T00:00:00	2024-11-08T01:00:00	8	Radiación solar	0
44409	7	Sololá	701	Sololá	1	Sololá	8	Agosto	2023-08-31T00:00:00	2024-11-08T02:00:00	2	Temperatura media	15.3
44410	7	Sololá	701	Sololá	1	Sololá	8	Agosto	2023-08-31T00:00:00	2024-11-08T02:00:00	4	Temperatura máxima	15.4
44411	7	Sololá	701	Sololá	1	Sololá	8	Agosto	2023-08-31T00:00:00	2024-11-08T02:00:00	3	Temperatura mínima	15.1
44412	7	Sololá	701	Sololá	1	Sololá	8	Agosto	2023-08-31T00:00:00	2024-11-08T02:00:00	5	Humedad	90
44413	7	Sololá	701	Sololá	1	Sololá	8	Agosto	2023-08-31T00:00:00	2024-11-08T02:00:00	6	Velocidad del viento	0
44414	7	Sololá	701	Sololá	1	Sololá	8	Agosto	2023-08-31T00:00:00	2024-11-08T02:00:00	7	Dirección del viento	0
44415	7	Sololá	701	Sololá	1	Sololá	8	Agosto	2023-08-31T00:00:00	2024-11-08T02:00:00	1	Precipitación	0
44416	7	Sololá	701	Sololá	1	Sololá	8	Agosto	2023-08-31T00:00:00	2024-11-08T02:00:00	8	Radiación solar	0
44417	7	Sololá	701	Sololá	1	Sololá	8	Agosto	2023-08-31T00:00:00	2024-11-08T03:00:00	2	Temperatura media	15
44418	7	Sololá	701	Sololá	1	Sololá	8	Agosto	2023-08-31T00:00:00	2024-11-08T03:00:00	4	Temperatura máxima	15.3
44419	7	Sololá	701	Sololá	1	Sololá	8	Agosto	2023-08-31T00:00:00	2024-11-08T03:00:00	3	Temperatura mínima	14.9
44420	7	Sololá	701	Sololá	1	Sololá	8	Agosto	2023-08-31T00:00:00	2024-11-08T03:00:00	5	Humedad	89
44421	7	Sololá	701	Sololá	1	Sololá	8	Agosto	2023-08-31T00:00:00	2024-11-08T03:00:00	6	Velocidad del viento	0
44422	7	Sololá	701	Sololá	1	Sololá	8	Agosto	2023-08-31T00:00:00	2024-11-08T03:00:00	7	Dirección del viento	0
44423	7	Sololá	701	Sololá	1	Sololá	8	Agosto	2023-08-31T00:00:00	2024-11-08T03:00:00	1	Precipitación	0
44424	7	Sololá	701	Sololá	1	Sololá	8	Agosto	2023-08-31T00:00:00	2024-11-08T03:00:00	8	Radiación solar	0
44425	7	Sololá	701	Sololá	1	Sololá	8	Agosto	2023-08-31T00:00:00	2024-11-08T04:00:00	2	Temperatura media	15.1
44426	7	Sololá	701	Sololá	1	Sololá	8	Agosto	2023-08-31T00:00:00	2024-11-08T04:00:00	4	Temperatura máxima	15.1
44427	7	Sololá	701	Sololá	1	Sololá	8	Agosto	2023-08-31T00:00:00	2024-11-08T04:00:00	3	Temperatura mínima	14.9
44428	7	Sololá	701	Sololá	1	Sololá	8	Agosto	2023-08-31T00:00:00	2024-11-08T04:00:00	5	Humedad	88
44429	7	Sololá	701	Sololá	1	Sololá	8	Agosto	2023-08-31T00:00:00	2024-11-08T04:00:00	6	Velocidad del viento	0
44430	7	Sololá	701	Sololá	1	Sololá	8	Agosto	2023-08-31T00:00:00	2024-11-08T04:00:00	7	Dirección del viento	0
44431	7	Sololá	701	Sololá	1	Sololá	8	Agosto	2023-08-31T00:00:00	2024-11-08T04:00:00	1	Precipitación	0
44432	7	Sololá	701	Sololá	1	Sololá	8	Agosto	2023-08-31T00:00:00	2024-11-08T04:00:00	8	Radiación solar	0
44433	7	Sololá	701	Sololá	1	Sololá	8	Agosto	2023-08-31T00:00:00	2024-11-08T05:00:00	2	Temperatura media	14.8
44434	7	Sololá	701	Sololá	1	Sololá	8	Agosto	2023-08-31T00:00:00	2024-11-08T05:00:00	4	Temperatura máxima	15.1
44435	7	Sololá	701	Sololá	1	Sololá	8	Agosto	2023-08-31T00:00:00	2024-11-08T05:00:00	3	Temperatura mínima	14.8
44436	7	Sololá	701	Sololá	1	Sololá	8	Agosto	2023-08-31T00:00:00	2024-11-08T05:00:00	5	Humedad	88
44437	7	Sololá	701	Sololá	1	Sololá	8	Agosto	2023-08-31T00:00:00	2024-11-08T05:00:00	6	Velocidad del viento	0
44438	7	Sololá	701	Sololá	1	Sololá	8	Agosto	2023-08-31T00:00:00	2024-11-08T05:00:00	7	Dirección del viento	0
44439	7	Sololá	701	Sololá	1	Sololá	8	Agosto	2023-08-31T00:00:00	2024-11-08T05:00:00	1	Precipitación	0
44440	7	Sololá	701	Sololá	1	Sololá	8	Agosto	2023-08-31T00:00:00	2024-11-08T05:00:00	8	Radiación solar	0
44441	7	Sololá	701	Sololá	1	Sololá	8	Agosto	2023-08-31T00:00:00	2024-11-08T06:00:00	2	Temperatura media	14.6
44442	7	Sololá	701	Sololá	1	Sololá	8	Agosto	2023-08-31T00:00:00	2024-11-08T06:00:00	4	Temperatura máxima	14.8
44443	7	Sololá	701	Sololá	1	Sololá	8	Agosto	2023-08-31T00:00:00	2024-11-08T06:00:00	3	Temperatura mínima	14.6
44444	7	Sololá	701	Sololá	1	Sololá	8	Agosto	2023-08-31T00:00:00	2024-11-08T06:00:00	5	Humedad	88
44445	7	Sololá	701	Sololá	1	Sololá	8	Agosto	2023-08-31T00:00:00	2024-11-08T06:00:00	6	Velocidad del viento	0
44446	7	Sololá	701	Sololá	1	Sololá	8	Agosto	2023-08-31T00:00:00	2024-11-08T06:00:00	7	Dirección del viento	0
44447	7	Sololá	701	Sololá	1	Sololá	8	Agosto	2023-08-31T00:00:00	2024-11-08T06:00:00	1	Precipitación	0
44448	7	Sololá	701	Sololá	1	Sololá	8	Agosto	2023-08-31T00:00:00	2024-11-08T06:00:00	8	Radiación solar	0
44449	7	Sololá	701	Sololá	1	Sololá	8	Agosto	2023-08-31T00:00:00	2024-11-08T07:00:00	2	Temperatura media	14.9
44450	7	Sololá	701	Sololá	1	Sololá	8	Agosto	2023-08-31T00:00:00	2024-11-08T07:00:00	4	Temperatura máxima	14.9
44451	7	Sololá	701	Sololá	1	Sololá	8	Agosto	2023-08-31T00:00:00	2024-11-08T07:00:00	3	Temperatura mínima	14.6
44452	7	Sololá	701	Sololá	1	Sololá	8	Agosto	2023-08-31T00:00:00	2024-11-08T07:00:00	5	Humedad	88
44453	7	Sololá	701	Sololá	1	Sololá	8	Agosto	2023-08-31T00:00:00	2024-11-08T07:00:00	6	Velocidad del viento	0
44454	7	Sololá	701	Sololá	1	Sololá	8	Agosto	2023-08-31T00:00:00	2024-11-08T07:00:00	7	Dirección del viento	0
44455	7	Sololá	701	Sololá	1	Sololá	8	Agosto	2023-08-31T00:00:00	2024-11-08T07:00:00	1	Precipitación	0
44456	7	Sololá	701	Sololá	1	Sololá	8	Agosto	2023-08-31T00:00:00	2024-11-08T07:00:00	8	Radiación solar	27
44457	7	Sololá	701	Sololá	1	Sololá	8	Agosto	2023-08-31T00:00:00	2024-11-08T08:00:00	2	Temperatura media	19.9
44458	7	Sololá	701	Sololá	1	Sololá	8	Agosto	2023-08-31T00:00:00	2024-11-08T08:00:00	4	Temperatura máxima	19.9
44459	7	Sololá	701	Sololá	1	Sololá	8	Agosto	2023-08-31T00:00:00	2024-11-08T08:00:00	3	Temperatura mínima	14.9
44460	7	Sololá	701	Sololá	1	Sololá	8	Agosto	2023-08-31T00:00:00	2024-11-08T08:00:00	5	Humedad	76
44461	7	Sololá	701	Sololá	1	Sololá	8	Agosto	2023-08-31T00:00:00	2024-11-08T08:00:00	6	Velocidad del viento	0
44462	7	Sololá	701	Sololá	1	Sololá	8	Agosto	2023-08-31T00:00:00	2024-11-08T08:00:00	7	Dirección del viento	0
44463	7	Sololá	701	Sololá	1	Sololá	8	Agosto	2023-08-31T00:00:00	2024-11-08T08:00:00	1	Precipitación	0
44464	7	Sololá	701	Sololá	1	Sololá	8	Agosto	2023-08-31T00:00:00	2024-11-08T08:00:00	8	Radiación solar	295
44465	7	Sololá	701	Sololá	1	Sololá	8	Agosto	2023-08-31T00:00:00	2024-11-08T09:00:00	2	Temperatura media	22.4
44466	7	Sololá	701	Sololá	1	Sololá	8	Agosto	2023-08-31T00:00:00	2024-11-08T09:00:00	4	Temperatura máxima	22.4
44467	7	Sololá	701	Sololá	1	Sololá	8	Agosto	2023-08-31T00:00:00	2024-11-08T09:00:00	3	Temperatura mínima	19.9
44468	7	Sololá	701	Sololá	1	Sololá	8	Agosto	2023-08-31T00:00:00	2024-11-08T09:00:00	5	Humedad	71
44469	7	Sololá	701	Sololá	1	Sololá	8	Agosto	2023-08-31T00:00:00	2024-11-08T09:00:00	6	Velocidad del viento	0
44470	7	Sololá	701	Sololá	1	Sololá	8	Agosto	2023-08-31T00:00:00	2024-11-08T09:00:00	7	Dirección del viento	0
44471	7	Sololá	701	Sololá	1	Sololá	8	Agosto	2023-08-31T00:00:00	2024-11-08T09:00:00	1	Precipitación	0
44472	7	Sololá	701	Sololá	1	Sololá	8	Agosto	2023-08-31T00:00:00	2024-11-08T09:00:00	8	Radiación solar	654
44473	7	Sololá	701	Sololá	1	Sololá	8	Agosto	2023-08-31T00:00:00	2024-11-08T10:00:00	2	Temperatura media	21.7
44474	7	Sololá	701	Sololá	1	Sololá	8	Agosto	2023-08-31T00:00:00	2024-11-08T10:00:00	4	Temperatura máxima	22.7
44475	7	Sololá	701	Sololá	1	Sololá	8	Agosto	2023-08-31T00:00:00	2024-11-08T10:00:00	3	Temperatura mínima	21.6
44476	7	Sololá	701	Sololá	1	Sololá	8	Agosto	2023-08-31T00:00:00	2024-11-08T10:00:00	5	Humedad	70
44477	7	Sololá	701	Sololá	1	Sololá	8	Agosto	2023-08-31T00:00:00	2024-11-08T10:00:00	6	Velocidad del viento	0
44478	7	Sololá	701	Sololá	1	Sololá	8	Agosto	2023-08-31T00:00:00	2024-11-08T10:00:00	7	Dirección del viento	0
44479	7	Sololá	701	Sololá	1	Sololá	8	Agosto	2023-08-31T00:00:00	2024-11-08T10:00:00	1	Precipitación	0
44480	7	Sololá	701	Sololá	1	Sololá	8	Agosto	2023-08-31T00:00:00	2024-11-08T10:00:00	8	Radiación solar	499
44481	7	Sololá	701	Sololá	1	Sololá	8	Agosto	2023-08-31T00:00:00	2024-11-08T11:00:00	2	Temperatura media	22.7
44482	7	Sololá	701	Sololá	1	Sololá	8	Agosto	2023-08-31T00:00:00	2024-11-08T11:00:00	4	Temperatura máxima	22.7
44483	7	Sololá	701	Sololá	1	Sololá	8	Agosto	2023-08-31T00:00:00	2024-11-08T11:00:00	3	Temperatura mínima	21.7
44484	7	Sololá	701	Sololá	1	Sololá	8	Agosto	2023-08-31T00:00:00	2024-11-08T11:00:00	5	Humedad	67
44485	7	Sololá	701	Sololá	1	Sololá	8	Agosto	2023-08-31T00:00:00	2024-11-08T11:00:00	6	Velocidad del viento	0
44486	7	Sololá	701	Sololá	1	Sololá	8	Agosto	2023-08-31T00:00:00	2024-11-08T11:00:00	7	Dirección del viento	0
44487	7	Sololá	701	Sololá	1	Sololá	8	Agosto	2023-08-31T00:00:00	2024-11-08T11:00:00	1	Precipitación	0
44488	7	Sololá	701	Sololá	1	Sololá	8	Agosto	2023-08-31T00:00:00	2024-11-08T11:00:00	8	Radiación solar	712
44489	7	Sololá	701	Sololá	1	Sololá	8	Agosto	2023-08-31T00:00:00	2024-11-08T12:00:00	2	Temperatura media	22.3
44490	7	Sololá	701	Sololá	1	Sololá	8	Agosto	2023-08-31T00:00:00	2024-11-08T12:00:00	4	Temperatura máxima	22.7
44491	7	Sololá	701	Sololá	1	Sololá	8	Agosto	2023-08-31T00:00:00	2024-11-08T12:00:00	3	Temperatura mínima	22.1
44492	7	Sololá	701	Sololá	1	Sololá	8	Agosto	2023-08-31T00:00:00	2024-11-08T12:00:00	5	Humedad	78
44493	7	Sololá	701	Sololá	1	Sololá	8	Agosto	2023-08-31T00:00:00	2024-11-08T12:00:00	6	Velocidad del viento	0
44494	7	Sololá	701	Sololá	1	Sololá	8	Agosto	2023-08-31T00:00:00	2024-11-08T12:00:00	7	Dirección del viento	0
44495	7	Sololá	701	Sololá	1	Sololá	8	Agosto	2023-08-31T00:00:00	2024-11-08T12:00:00	1	Precipitación	0
44496	7	Sololá	701	Sololá	1	Sololá	8	Agosto	2023-08-31T00:00:00	2024-11-08T12:00:00	8	Radiación solar	313
44497	7	Sololá	701	Sololá	1	Sololá	8	Agosto	2023-08-31T00:00:00	2024-11-08T13:00:00	2	Temperatura media	20.6
44498	7	Sololá	701	Sololá	1	Sololá	8	Agosto	2023-08-31T00:00:00	2024-11-08T13:00:00	4	Temperatura máxima	22.4
44499	7	Sololá	701	Sololá	1	Sololá	8	Agosto	2023-08-31T00:00:00	2024-11-08T13:00:00	3	Temperatura mínima	20.6
44500	7	Sololá	701	Sololá	1	Sololá	8	Agosto	2023-08-31T00:00:00	2024-11-08T13:00:00	5	Humedad	85
44501	7	Sololá	701	Sololá	1	Sololá	8	Agosto	2023-08-31T00:00:00	2024-11-08T13:00:00	6	Velocidad del viento	0
44502	7	Sololá	701	Sololá	1	Sololá	8	Agosto	2023-08-31T00:00:00	2024-11-08T13:00:00	7	Dirección del viento	0
44503	7	Sololá	701	Sololá	1	Sololá	8	Agosto	2023-08-31T00:00:00	2024-11-08T13:00:00	1	Precipitación	0
44504	7	Sololá	701	Sololá	1	Sololá	8	Agosto	2023-08-31T00:00:00	2024-11-08T13:00:00	8	Radiación solar	134
44505	7	Sololá	701	Sololá	1	Sololá	8	Agosto	2023-08-31T00:00:00	2024-11-08T14:00:00	2	Temperatura media	18.2
44506	7	Sololá	701	Sololá	1	Sololá	8	Agosto	2023-08-31T00:00:00	2024-11-08T14:00:00	4	Temperatura máxima	20.6
44507	7	Sololá	701	Sololá	1	Sololá	8	Agosto	2023-08-31T00:00:00	2024-11-08T14:00:00	3	Temperatura mínima	18.2
44508	7	Sololá	701	Sololá	1	Sololá	8	Agosto	2023-08-31T00:00:00	2024-11-08T14:00:00	5	Humedad	85
44509	7	Sololá	701	Sololá	1	Sololá	8	Agosto	2023-08-31T00:00:00	2024-11-08T14:00:00	6	Velocidad del viento	0
44510	7	Sololá	701	Sololá	1	Sololá	8	Agosto	2023-08-31T00:00:00	2024-11-08T14:00:00	7	Dirección del viento	0
44511	7	Sololá	701	Sololá	1	Sololá	8	Agosto	2023-08-31T00:00:00	2024-11-08T14:00:00	1	Precipitación	0
44512	7	Sololá	701	Sololá	1	Sololá	8	Agosto	2023-08-31T00:00:00	2024-11-08T14:00:00	8	Radiación solar	15
44513	7	Sololá	701	Sololá	1	Sololá	8	Agosto	2023-08-31T00:00:00	2024-11-08T15:00:00	2	Temperatura media	17.3
44514	7	Sololá	701	Sololá	1	Sololá	8	Agosto	2023-08-31T00:00:00	2024-11-08T15:00:00	4	Temperatura máxima	18.2
44515	7	Sololá	701	Sololá	1	Sololá	8	Agosto	2023-08-31T00:00:00	2024-11-08T15:00:00	3	Temperatura mínima	17.3
44516	7	Sololá	701	Sololá	1	Sololá	8	Agosto	2023-08-31T00:00:00	2024-11-08T15:00:00	5	Humedad	84
44517	7	Sololá	701	Sololá	1	Sololá	8	Agosto	2023-08-31T00:00:00	2024-11-08T15:00:00	6	Velocidad del viento	0
44518	7	Sololá	701	Sololá	1	Sololá	8	Agosto	2023-08-31T00:00:00	2024-11-08T15:00:00	7	Dirección del viento	0
44519	7	Sololá	701	Sololá	1	Sololá	8	Agosto	2023-08-31T00:00:00	2024-11-08T15:00:00	1	Precipitación	0
44520	7	Sololá	701	Sololá	1	Sololá	8	Agosto	2023-08-31T00:00:00	2024-11-08T15:00:00	8	Radiación solar	20
44521	7	Sololá	701	Sololá	1	Sololá	8	Agosto	2023-08-31T00:00:00	2024-11-08T16:00:00	2	Temperatura media	16.6
44522	7	Sololá	701	Sololá	1	Sololá	8	Agosto	2023-08-31T00:00:00	2024-11-08T16:00:00	4	Temperatura máxima	17.3
44523	7	Sololá	701	Sololá	1	Sololá	8	Agosto	2023-08-31T00:00:00	2024-11-08T16:00:00	3	Temperatura mínima	16.5
44524	7	Sololá	701	Sololá	1	Sololá	8	Agosto	2023-08-31T00:00:00	2024-11-08T16:00:00	5	Humedad	88
44525	7	Sololá	701	Sololá	1	Sololá	8	Agosto	2023-08-31T00:00:00	2024-11-08T16:00:00	6	Velocidad del viento	0
44526	7	Sololá	701	Sololá	1	Sololá	8	Agosto	2023-08-31T00:00:00	2024-11-08T16:00:00	7	Dirección del viento	0
44527	7	Sololá	701	Sololá	1	Sololá	8	Agosto	2023-08-31T00:00:00	2024-11-08T16:00:00	1	Precipitación	0
44528	7	Sololá	701	Sololá	1	Sololá	8	Agosto	2023-08-31T00:00:00	2024-11-08T16:00:00	8	Radiación solar	31
44529	7	Sololá	701	Sololá	1	Sololá	8	Agosto	2023-08-31T00:00:00	2024-11-08T17:00:00	2	Temperatura media	16.5
44530	7	Sololá	701	Sololá	1	Sololá	8	Agosto	2023-08-31T00:00:00	2024-11-08T17:00:00	4	Temperatura máxima	16.7
44531	7	Sololá	701	Sololá	1	Sololá	8	Agosto	2023-08-31T00:00:00	2024-11-08T17:00:00	3	Temperatura mínima	16.5
44532	7	Sololá	701	Sololá	1	Sololá	8	Agosto	2023-08-31T00:00:00	2024-11-08T17:00:00	5	Humedad	89
44533	7	Sololá	701	Sololá	1	Sololá	8	Agosto	2023-08-31T00:00:00	2024-11-08T17:00:00	6	Velocidad del viento	0
44534	7	Sololá	701	Sololá	1	Sololá	8	Agosto	2023-08-31T00:00:00	2024-11-08T17:00:00	7	Dirección del viento	0
44535	7	Sololá	701	Sololá	1	Sololá	8	Agosto	2023-08-31T00:00:00	2024-11-08T17:00:00	1	Precipitación	0
44536	7	Sololá	701	Sololá	1	Sololá	8	Agosto	2023-08-31T00:00:00	2024-11-08T17:00:00	8	Radiación solar	19
44537	7	Sololá	701	Sololá	1	Sololá	8	Agosto	2023-08-31T00:00:00	2024-11-08T18:00:00	2	Temperatura media	16.3
44538	7	Sololá	701	Sololá	1	Sololá	8	Agosto	2023-08-31T00:00:00	2024-11-08T18:00:00	4	Temperatura máxima	16.6
44539	7	Sololá	701	Sololá	1	Sololá	8	Agosto	2023-08-31T00:00:00	2024-11-08T18:00:00	3	Temperatura mínima	16.3
44540	7	Sololá	701	Sololá	1	Sololá	8	Agosto	2023-08-31T00:00:00	2024-11-08T18:00:00	5	Humedad	88
44541	7	Sololá	701	Sololá	1	Sololá	8	Agosto	2023-08-31T00:00:00	2024-11-08T18:00:00	6	Velocidad del viento	0
44542	7	Sololá	701	Sololá	1	Sololá	8	Agosto	2023-08-31T00:00:00	2024-11-08T18:00:00	7	Dirección del viento	0
44543	7	Sololá	701	Sololá	1	Sololá	8	Agosto	2023-08-31T00:00:00	2024-11-08T18:00:00	1	Precipitación	0
44544	7	Sololá	701	Sololá	1	Sololá	8	Agosto	2023-08-31T00:00:00	2024-11-08T18:00:00	8	Radiación solar	0
44545	7	Sololá	701	Sololá	1	Sololá	8	Agosto	2023-08-31T00:00:00	2024-11-08T19:00:00	2	Temperatura media	16.1
44546	7	Sololá	701	Sololá	1	Sololá	8	Agosto	2023-08-31T00:00:00	2024-11-08T19:00:00	4	Temperatura máxima	16.3
44547	7	Sololá	701	Sololá	1	Sololá	8	Agosto	2023-08-31T00:00:00	2024-11-08T19:00:00	3	Temperatura mínima	16.1
44548	7	Sololá	701	Sololá	1	Sololá	8	Agosto	2023-08-31T00:00:00	2024-11-08T19:00:00	5	Humedad	91
44549	7	Sololá	701	Sololá	1	Sololá	8	Agosto	2023-08-31T00:00:00	2024-11-08T19:00:00	6	Velocidad del viento	0
44550	7	Sololá	701	Sololá	1	Sololá	8	Agosto	2023-08-31T00:00:00	2024-11-08T19:00:00	7	Dirección del viento	0
44551	7	Sololá	701	Sololá	1	Sololá	8	Agosto	2023-08-31T00:00:00	2024-11-08T19:00:00	1	Precipitación	0
44552	7	Sololá	701	Sololá	1	Sololá	8	Agosto	2023-08-31T00:00:00	2024-11-08T19:00:00	8	Radiación solar	0
44553	7	Sololá	701	Sololá	1	Sololá	8	Agosto	2023-08-31T00:00:00	2024-11-08T20:00:00	2	Temperatura media	15
44554	7	Sololá	701	Sololá	1	Sololá	8	Agosto	2023-08-31T00:00:00	2024-11-08T20:00:00	4	Temperatura máxima	16.1
44555	7	Sololá	701	Sololá	1	Sololá	8	Agosto	2023-08-31T00:00:00	2024-11-08T20:00:00	3	Temperatura mínima	14.9
44556	7	Sololá	701	Sololá	1	Sololá	8	Agosto	2023-08-31T00:00:00	2024-11-08T20:00:00	5	Humedad	94
44557	7	Sololá	701	Sololá	1	Sololá	8	Agosto	2023-08-31T00:00:00	2024-11-08T20:00:00	6	Velocidad del viento	0
44558	7	Sololá	701	Sololá	1	Sololá	8	Agosto	2023-08-31T00:00:00	2024-11-08T20:00:00	7	Dirección del viento	0
44559	7	Sololá	701	Sololá	1	Sololá	8	Agosto	2023-08-31T00:00:00	2024-11-08T20:00:00	1	Precipitación	0.8
44560	7	Sololá	701	Sololá	1	Sololá	8	Agosto	2023-08-31T00:00:00	2024-11-08T20:00:00	8	Radiación solar	0
44561	7	Sololá	701	Sololá	1	Sololá	8	Agosto	2023-08-31T00:00:00	2024-11-08T21:00:00	2	Temperatura media	14.3
44562	7	Sololá	701	Sololá	1	Sololá	8	Agosto	2023-08-31T00:00:00	2024-11-08T21:00:00	4	Temperatura máxima	15
44563	7	Sololá	701	Sololá	1	Sololá	8	Agosto	2023-08-31T00:00:00	2024-11-08T21:00:00	3	Temperatura mínima	14.3
44564	7	Sololá	701	Sololá	1	Sololá	8	Agosto	2023-08-31T00:00:00	2024-11-08T21:00:00	5	Humedad	95
44565	7	Sololá	701	Sololá	1	Sololá	8	Agosto	2023-08-31T00:00:00	2024-11-08T21:00:00	6	Velocidad del viento	0
44566	7	Sololá	701	Sololá	1	Sololá	8	Agosto	2023-08-31T00:00:00	2024-11-08T21:00:00	7	Dirección del viento	0
44567	7	Sololá	701	Sololá	1	Sololá	8	Agosto	2023-08-31T00:00:00	2024-11-08T21:00:00	1	Precipitación	0.2
44568	7	Sololá	701	Sololá	1	Sololá	8	Agosto	2023-08-31T00:00:00	2024-11-08T21:00:00	8	Radiación solar	0
44569	7	Sololá	701	Sololá	1	Sololá	8	Agosto	2023-08-31T00:00:00	2024-11-08T22:00:00	2	Temperatura media	14.4
44570	7	Sololá	701	Sololá	1	Sololá	8	Agosto	2023-08-31T00:00:00	2024-11-08T22:00:00	4	Temperatura máxima	14.5
44571	7	Sololá	701	Sololá	1	Sololá	8	Agosto	2023-08-31T00:00:00	2024-11-08T22:00:00	3	Temperatura mínima	14.3
44572	7	Sololá	701	Sololá	1	Sololá	8	Agosto	2023-08-31T00:00:00	2024-11-08T22:00:00	5	Humedad	94
44573	7	Sololá	701	Sololá	1	Sololá	8	Agosto	2023-08-31T00:00:00	2024-11-08T22:00:00	6	Velocidad del viento	0
44574	7	Sololá	701	Sololá	1	Sololá	8	Agosto	2023-08-31T00:00:00	2024-11-08T22:00:00	7	Dirección del viento	0
44575	7	Sololá	701	Sololá	1	Sololá	8	Agosto	2023-08-31T00:00:00	2024-11-08T22:00:00	1	Precipitación	0
44576	7	Sololá	701	Sololá	1	Sololá	8	Agosto	2023-08-31T00:00:00	2024-11-08T22:00:00	8	Radiación solar	0
44577	7	Sololá	701	Sololá	1	Sololá	8	Agosto	2023-08-31T00:00:00	2024-11-08T23:00:00	2	Temperatura media	14.7
44578	7	Sololá	701	Sololá	1	Sololá	8	Agosto	2023-08-31T00:00:00	2024-11-08T23:00:00	4	Temperatura máxima	14.8
44579	7	Sololá	701	Sololá	1	Sololá	8	Agosto	2023-08-31T00:00:00	2024-11-08T23:00:00	3	Temperatura mínima	14.4
44580	7	Sololá	701	Sololá	1	Sololá	8	Agosto	2023-08-31T00:00:00	2024-11-08T23:00:00	5	Humedad	94
44581	7	Sololá	701	Sololá	1	Sololá	8	Agosto	2023-08-31T00:00:00	2024-11-08T23:00:00	6	Velocidad del viento	0
44582	7	Sololá	701	Sololá	1	Sololá	8	Agosto	2023-08-31T00:00:00	2024-11-08T23:00:00	7	Dirección del viento	0
44583	7	Sololá	701	Sololá	1	Sololá	8	Agosto	2023-08-31T00:00:00	2024-11-08T23:00:00	1	Precipitación	0
44584	7	Sololá	701	Sololá	1	Sololá	8	Agosto	2023-08-31T00:00:00	2024-11-08T23:00:00	8	Radiación solar	0
44585	7	Sololá	701	Sololá	1	Sololá	9	Septiembre	2023-01-09T00:00:00	2024-11-08T00:00:00	2	Temperatura media	14.1
44586	7	Sololá	701	Sololá	1	Sololá	9	Septiembre	2023-01-09T00:00:00	2024-11-08T00:00:00	4	Temperatura máxima	14.7
44587	7	Sololá	701	Sololá	1	Sololá	9	Septiembre	2023-01-09T00:00:00	2024-11-08T00:00:00	3	Temperatura mínima	14.1
44588	7	Sololá	701	Sololá	1	Sololá	9	Septiembre	2023-01-09T00:00:00	2024-11-08T00:00:00	5	Humedad	94
44589	7	Sololá	701	Sololá	1	Sololá	9	Septiembre	2023-01-09T00:00:00	2024-11-08T00:00:00	6	Velocidad del viento	0
44590	7	Sololá	701	Sololá	1	Sololá	9	Septiembre	2023-01-09T00:00:00	2024-11-08T00:00:00	7	Dirección del viento	0
44591	7	Sololá	701	Sololá	1	Sololá	9	Septiembre	2023-01-09T00:00:00	2024-11-08T00:00:00	1	Precipitación	0.4
44592	7	Sololá	701	Sololá	1	Sololá	9	Septiembre	2023-01-09T00:00:00	2024-11-08T00:00:00	8	Radiación solar	0
44593	7	Sololá	701	Sololá	1	Sololá	9	Septiembre	2023-01-09T00:00:00	2024-11-08T01:00:00	2	Temperatura media	13
44594	7	Sololá	701	Sololá	1	Sololá	9	Septiembre	2023-01-09T00:00:00	2024-11-08T01:00:00	4	Temperatura máxima	14.1
44595	7	Sololá	701	Sololá	1	Sololá	9	Septiembre	2023-01-09T00:00:00	2024-11-08T01:00:00	3	Temperatura mínima	12.9
44596	7	Sololá	701	Sololá	1	Sololá	9	Septiembre	2023-01-09T00:00:00	2024-11-08T01:00:00	5	Humedad	94
44597	7	Sololá	701	Sololá	1	Sololá	9	Septiembre	2023-01-09T00:00:00	2024-11-08T01:00:00	6	Velocidad del viento	0
44598	7	Sololá	701	Sololá	1	Sololá	9	Septiembre	2023-01-09T00:00:00	2024-11-08T01:00:00	7	Dirección del viento	0
44599	7	Sololá	701	Sololá	1	Sololá	9	Septiembre	2023-01-09T00:00:00	2024-11-08T01:00:00	1	Precipitación	0.2
44600	7	Sololá	701	Sololá	1	Sololá	9	Septiembre	2023-01-09T00:00:00	2024-11-08T01:00:00	8	Radiación solar	0
44601	7	Sololá	701	Sololá	1	Sololá	9	Septiembre	2023-01-09T00:00:00	2024-11-08T02:00:00	2	Temperatura media	12.9
44602	7	Sololá	701	Sololá	1	Sololá	9	Septiembre	2023-01-09T00:00:00	2024-11-08T02:00:00	4	Temperatura máxima	13
44603	7	Sololá	701	Sololá	1	Sololá	9	Septiembre	2023-01-09T00:00:00	2024-11-08T02:00:00	3	Temperatura mínima	12.8
44604	7	Sololá	701	Sololá	1	Sololá	9	Septiembre	2023-01-09T00:00:00	2024-11-08T02:00:00	5	Humedad	94
44605	7	Sololá	701	Sololá	1	Sololá	9	Septiembre	2023-01-09T00:00:00	2024-11-08T02:00:00	6	Velocidad del viento	0
44606	7	Sololá	701	Sololá	1	Sololá	9	Septiembre	2023-01-09T00:00:00	2024-11-08T02:00:00	7	Dirección del viento	0
44607	7	Sololá	701	Sololá	1	Sololá	9	Septiembre	2023-01-09T00:00:00	2024-11-08T02:00:00	1	Precipitación	0
44608	7	Sololá	701	Sololá	1	Sololá	9	Septiembre	2023-01-09T00:00:00	2024-11-08T02:00:00	8	Radiación solar	0
44609	7	Sololá	701	Sololá	1	Sololá	9	Septiembre	2023-01-09T00:00:00	2024-11-08T03:00:00	2	Temperatura media	13.1
44610	7	Sololá	701	Sololá	1	Sololá	9	Septiembre	2023-01-09T00:00:00	2024-11-08T03:00:00	4	Temperatura máxima	13.1
44611	7	Sololá	701	Sololá	1	Sololá	9	Septiembre	2023-01-09T00:00:00	2024-11-08T03:00:00	3	Temperatura mínima	12.9
44612	7	Sololá	701	Sololá	1	Sololá	9	Septiembre	2023-01-09T00:00:00	2024-11-08T03:00:00	5	Humedad	93
44613	7	Sololá	701	Sololá	1	Sololá	9	Septiembre	2023-01-09T00:00:00	2024-11-08T03:00:00	6	Velocidad del viento	0
44614	7	Sololá	701	Sololá	1	Sololá	9	Septiembre	2023-01-09T00:00:00	2024-11-08T03:00:00	7	Dirección del viento	0
44615	7	Sololá	701	Sololá	1	Sololá	9	Septiembre	2023-01-09T00:00:00	2024-11-08T03:00:00	1	Precipitación	0
44616	7	Sololá	701	Sololá	1	Sololá	9	Septiembre	2023-01-09T00:00:00	2024-11-08T03:00:00	8	Radiación solar	0
44617	7	Sololá	701	Sololá	1	Sololá	9	Septiembre	2023-01-09T00:00:00	2024-11-08T04:00:00	2	Temperatura media	12.6
44618	7	Sololá	701	Sololá	1	Sololá	9	Septiembre	2023-01-09T00:00:00	2024-11-08T04:00:00	4	Temperatura máxima	13.1
44619	7	Sololá	701	Sololá	1	Sololá	9	Septiembre	2023-01-09T00:00:00	2024-11-08T04:00:00	3	Temperatura mínima	12.6
44620	7	Sololá	701	Sololá	1	Sololá	9	Septiembre	2023-01-09T00:00:00	2024-11-08T04:00:00	5	Humedad	94
44621	7	Sololá	701	Sololá	1	Sololá	9	Septiembre	2023-01-09T00:00:00	2024-11-08T04:00:00	6	Velocidad del viento	0
44622	7	Sololá	701	Sololá	1	Sololá	9	Septiembre	2023-01-09T00:00:00	2024-11-08T04:00:00	7	Dirección del viento	0
44623	7	Sololá	701	Sololá	1	Sololá	9	Septiembre	2023-01-09T00:00:00	2024-11-08T04:00:00	1	Precipitación	0
44624	7	Sololá	701	Sololá	1	Sololá	9	Septiembre	2023-01-09T00:00:00	2024-11-08T04:00:00	8	Radiación solar	0
44625	7	Sololá	701	Sololá	1	Sololá	9	Septiembre	2023-01-09T00:00:00	2024-11-08T05:00:00	2	Temperatura media	12.6
44626	7	Sololá	701	Sololá	1	Sololá	9	Septiembre	2023-01-09T00:00:00	2024-11-08T05:00:00	4	Temperatura máxima	12.7
44627	7	Sololá	701	Sololá	1	Sololá	9	Septiembre	2023-01-09T00:00:00	2024-11-08T05:00:00	3	Temperatura mínima	12.5
44628	7	Sololá	701	Sololá	1	Sololá	9	Septiembre	2023-01-09T00:00:00	2024-11-08T05:00:00	5	Humedad	93
44629	7	Sololá	701	Sololá	1	Sololá	9	Septiembre	2023-01-09T00:00:00	2024-11-08T05:00:00	6	Velocidad del viento	0
44630	7	Sololá	701	Sololá	1	Sololá	9	Septiembre	2023-01-09T00:00:00	2024-11-08T05:00:00	7	Dirección del viento	0
44631	7	Sololá	701	Sololá	1	Sololá	9	Septiembre	2023-01-09T00:00:00	2024-11-08T05:00:00	1	Precipitación	0
44632	7	Sololá	701	Sololá	1	Sololá	9	Septiembre	2023-01-09T00:00:00	2024-11-08T05:00:00	8	Radiación solar	0
44633	7	Sololá	701	Sololá	1	Sololá	9	Septiembre	2023-01-09T00:00:00	2024-11-08T06:00:00	2	Temperatura media	12.4
44634	7	Sololá	701	Sololá	1	Sololá	9	Septiembre	2023-01-09T00:00:00	2024-11-08T06:00:00	4	Temperatura máxima	12.6
44635	7	Sololá	701	Sololá	1	Sololá	9	Septiembre	2023-01-09T00:00:00	2024-11-08T06:00:00	3	Temperatura mínima	12.4
44636	7	Sololá	701	Sololá	1	Sololá	9	Septiembre	2023-01-09T00:00:00	2024-11-08T06:00:00	5	Humedad	92
44637	7	Sololá	701	Sololá	1	Sololá	9	Septiembre	2023-01-09T00:00:00	2024-11-08T06:00:00	6	Velocidad del viento	0
44638	7	Sololá	701	Sololá	1	Sololá	9	Septiembre	2023-01-09T00:00:00	2024-11-08T06:00:00	7	Dirección del viento	0
44639	7	Sololá	701	Sololá	1	Sololá	9	Septiembre	2023-01-09T00:00:00	2024-11-08T06:00:00	1	Precipitación	0
44640	7	Sololá	701	Sololá	1	Sololá	9	Septiembre	2023-01-09T00:00:00	2024-11-08T06:00:00	8	Radiación solar	0
44641	7	Sololá	701	Sololá	1	Sololá	9	Septiembre	2023-01-09T00:00:00	2024-11-08T07:00:00	2	Temperatura media	13.3
44642	7	Sololá	701	Sololá	1	Sololá	9	Septiembre	2023-01-09T00:00:00	2024-11-08T07:00:00	4	Temperatura máxima	13.3
44643	7	Sololá	701	Sololá	1	Sololá	9	Septiembre	2023-01-09T00:00:00	2024-11-08T07:00:00	3	Temperatura mínima	12.4
44644	7	Sololá	701	Sololá	1	Sololá	9	Septiembre	2023-01-09T00:00:00	2024-11-08T07:00:00	5	Humedad	90
44645	7	Sololá	701	Sololá	1	Sololá	9	Septiembre	2023-01-09T00:00:00	2024-11-08T07:00:00	6	Velocidad del viento	0
44646	7	Sololá	701	Sololá	1	Sololá	9	Septiembre	2023-01-09T00:00:00	2024-11-08T07:00:00	7	Dirección del viento	0
44647	7	Sololá	701	Sololá	1	Sololá	9	Septiembre	2023-01-09T00:00:00	2024-11-08T07:00:00	1	Precipitación	0
44648	7	Sololá	701	Sololá	1	Sololá	9	Septiembre	2023-01-09T00:00:00	2024-11-08T07:00:00	8	Radiación solar	19
44649	7	Sololá	701	Sololá	1	Sololá	9	Septiembre	2023-01-09T00:00:00	2024-11-08T08:00:00	2	Temperatura media	18.3
44650	7	Sololá	701	Sololá	1	Sololá	9	Septiembre	2023-01-09T00:00:00	2024-11-08T08:00:00	4	Temperatura máxima	18.3
44651	7	Sololá	701	Sololá	1	Sololá	9	Septiembre	2023-01-09T00:00:00	2024-11-08T08:00:00	3	Temperatura mínima	13.3
44652	7	Sololá	701	Sololá	1	Sololá	9	Septiembre	2023-01-09T00:00:00	2024-11-08T08:00:00	5	Humedad	75
44653	7	Sololá	701	Sololá	1	Sololá	9	Septiembre	2023-01-09T00:00:00	2024-11-08T08:00:00	6	Velocidad del viento	0
44654	7	Sololá	701	Sololá	1	Sololá	9	Septiembre	2023-01-09T00:00:00	2024-11-08T08:00:00	7	Dirección del viento	0
44655	7	Sololá	701	Sololá	1	Sololá	9	Septiembre	2023-01-09T00:00:00	2024-11-08T08:00:00	1	Precipitación	0
44656	7	Sololá	701	Sololá	1	Sololá	9	Septiembre	2023-01-09T00:00:00	2024-11-08T08:00:00	8	Radiación solar	266
44657	7	Sololá	701	Sololá	1	Sololá	9	Septiembre	2023-01-09T00:00:00	2024-11-08T09:00:00	2	Temperatura media	21.9
44658	7	Sololá	701	Sololá	1	Sololá	9	Septiembre	2023-01-09T00:00:00	2024-11-08T09:00:00	4	Temperatura máxima	21.9
44659	7	Sololá	701	Sololá	1	Sololá	9	Septiembre	2023-01-09T00:00:00	2024-11-08T09:00:00	3	Temperatura mínima	18.3
44660	7	Sololá	701	Sololá	1	Sololá	9	Septiembre	2023-01-09T00:00:00	2024-11-08T09:00:00	5	Humedad	66
44661	7	Sololá	701	Sololá	1	Sololá	9	Septiembre	2023-01-09T00:00:00	2024-11-08T09:00:00	6	Velocidad del viento	0
44662	7	Sololá	701	Sololá	1	Sololá	9	Septiembre	2023-01-09T00:00:00	2024-11-08T09:00:00	7	Dirección del viento	0
44663	7	Sololá	701	Sololá	1	Sololá	9	Septiembre	2023-01-09T00:00:00	2024-11-08T09:00:00	1	Precipitación	0
44664	7	Sololá	701	Sololá	1	Sololá	9	Septiembre	2023-01-09T00:00:00	2024-11-08T09:00:00	8	Radiación solar	647
44665	7	Sololá	701	Sololá	1	Sololá	9	Septiembre	2023-01-09T00:00:00	2024-11-08T10:00:00	2	Temperatura media	23.2
44666	7	Sololá	701	Sololá	1	Sololá	9	Septiembre	2023-01-09T00:00:00	2024-11-08T10:00:00	4	Temperatura máxima	23.3
44667	7	Sololá	701	Sololá	1	Sololá	9	Septiembre	2023-01-09T00:00:00	2024-11-08T10:00:00	3	Temperatura mínima	21.9
44668	7	Sololá	701	Sololá	1	Sololá	9	Septiembre	2023-01-09T00:00:00	2024-11-08T10:00:00	5	Humedad	64
44669	7	Sololá	701	Sololá	1	Sololá	9	Septiembre	2023-01-09T00:00:00	2024-11-08T10:00:00	6	Velocidad del viento	0
44670	7	Sololá	701	Sololá	1	Sololá	9	Septiembre	2023-01-09T00:00:00	2024-11-08T10:00:00	7	Dirección del viento	0
44671	7	Sololá	701	Sololá	1	Sololá	9	Septiembre	2023-01-09T00:00:00	2024-11-08T10:00:00	1	Precipitación	0
44672	7	Sololá	701	Sololá	1	Sololá	9	Septiembre	2023-01-09T00:00:00	2024-11-08T10:00:00	8	Radiación solar	836
44673	7	Sololá	701	Sololá	1	Sololá	9	Septiembre	2023-01-09T00:00:00	2024-11-08T11:00:00	2	Temperatura media	23.9
44674	7	Sololá	701	Sololá	1	Sololá	9	Septiembre	2023-01-09T00:00:00	2024-11-08T11:00:00	4	Temperatura máxima	23.9
44675	7	Sololá	701	Sololá	1	Sololá	9	Septiembre	2023-01-09T00:00:00	2024-11-08T11:00:00	3	Temperatura mínima	23.1
44676	7	Sololá	701	Sololá	1	Sololá	9	Septiembre	2023-01-09T00:00:00	2024-11-08T11:00:00	5	Humedad	60
44677	7	Sololá	701	Sololá	1	Sololá	9	Septiembre	2023-01-09T00:00:00	2024-11-08T11:00:00	6	Velocidad del viento	0
44678	7	Sololá	701	Sololá	1	Sololá	9	Septiembre	2023-01-09T00:00:00	2024-11-08T11:00:00	7	Dirección del viento	0
44679	7	Sololá	701	Sololá	1	Sololá	9	Septiembre	2023-01-09T00:00:00	2024-11-08T11:00:00	1	Precipitación	0
44680	7	Sololá	701	Sololá	1	Sololá	9	Septiembre	2023-01-09T00:00:00	2024-11-08T11:00:00	8	Radiación solar	835
44681	7	Sololá	701	Sololá	1	Sololá	9	Septiembre	2023-01-09T00:00:00	2024-11-08T12:00:00	2	Temperatura media	24.5
44682	7	Sololá	701	Sololá	1	Sololá	9	Septiembre	2023-01-09T00:00:00	2024-11-08T12:00:00	4	Temperatura máxima	24.6
44683	7	Sololá	701	Sololá	1	Sololá	9	Septiembre	2023-01-09T00:00:00	2024-11-08T12:00:00	3	Temperatura mínima	23.9
44684	7	Sololá	701	Sololá	1	Sololá	9	Septiembre	2023-01-09T00:00:00	2024-11-08T12:00:00	5	Humedad	57
44685	7	Sololá	701	Sololá	1	Sololá	9	Septiembre	2023-01-09T00:00:00	2024-11-08T12:00:00	6	Velocidad del viento	0
44686	7	Sololá	701	Sololá	1	Sololá	9	Septiembre	2023-01-09T00:00:00	2024-11-08T12:00:00	7	Dirección del viento	0
44687	7	Sololá	701	Sololá	1	Sololá	9	Septiembre	2023-01-09T00:00:00	2024-11-08T12:00:00	1	Precipitación	0
44688	7	Sololá	701	Sololá	1	Sololá	9	Septiembre	2023-01-09T00:00:00	2024-11-08T12:00:00	8	Radiación solar	102
44689	7	Sololá	701	Sololá	1	Sololá	9	Septiembre	2023-01-09T00:00:00	2024-11-08T13:00:00	2	Temperatura media	24.7
44690	7	Sololá	701	Sololá	1	Sololá	9	Septiembre	2023-01-09T00:00:00	2024-11-08T13:00:00	4	Temperatura máxima	25
44691	7	Sololá	701	Sololá	1	Sololá	9	Septiembre	2023-01-09T00:00:00	2024-11-08T13:00:00	3	Temperatura mínima	24.4
44692	7	Sololá	701	Sololá	1	Sololá	9	Septiembre	2023-01-09T00:00:00	2024-11-08T13:00:00	5	Humedad	57
44693	7	Sololá	701	Sololá	1	Sololá	9	Septiembre	2023-01-09T00:00:00	2024-11-08T13:00:00	6	Velocidad del viento	0
44694	7	Sololá	701	Sololá	1	Sololá	9	Septiembre	2023-01-09T00:00:00	2024-11-08T13:00:00	7	Dirección del viento	0
44695	7	Sololá	701	Sololá	1	Sololá	9	Septiembre	2023-01-09T00:00:00	2024-11-08T13:00:00	1	Precipitación	0
44696	7	Sololá	701	Sololá	1	Sololá	9	Septiembre	2023-01-09T00:00:00	2024-11-08T13:00:00	8	Radiación solar	133
44697	7	Sololá	701	Sololá	1	Sololá	9	Septiembre	2023-01-09T00:00:00	2024-11-08T14:00:00	2	Temperatura media	22.3
44698	7	Sololá	701	Sololá	1	Sololá	9	Septiembre	2023-01-09T00:00:00	2024-11-08T14:00:00	4	Temperatura máxima	25.1
44699	7	Sololá	701	Sololá	1	Sololá	9	Septiembre	2023-01-09T00:00:00	2024-11-08T14:00:00	3	Temperatura mínima	22.3
44700	7	Sololá	701	Sololá	1	Sololá	9	Septiembre	2023-01-09T00:00:00	2024-11-08T14:00:00	5	Humedad	80
44701	7	Sololá	701	Sololá	1	Sololá	9	Septiembre	2023-01-09T00:00:00	2024-11-08T14:00:00	6	Velocidad del viento	0
44702	7	Sololá	701	Sololá	1	Sololá	9	Septiembre	2023-01-09T00:00:00	2024-11-08T14:00:00	7	Dirección del viento	0
44703	7	Sololá	701	Sololá	1	Sololá	9	Septiembre	2023-01-09T00:00:00	2024-11-08T14:00:00	1	Precipitación	0
44704	7	Sololá	701	Sololá	1	Sololá	9	Septiembre	2023-01-09T00:00:00	2024-11-08T14:00:00	8	Radiación solar	120
44705	7	Sololá	701	Sololá	1	Sololá	9	Septiembre	2023-01-09T00:00:00	2024-11-08T15:00:00	2	Temperatura media	21.2
44706	7	Sololá	701	Sololá	1	Sololá	9	Septiembre	2023-01-09T00:00:00	2024-11-08T15:00:00	4	Temperatura máxima	22.3
44707	7	Sololá	701	Sololá	1	Sololá	9	Septiembre	2023-01-09T00:00:00	2024-11-08T15:00:00	3	Temperatura mínima	21.2
44708	7	Sololá	701	Sololá	1	Sololá	9	Septiembre	2023-01-09T00:00:00	2024-11-08T15:00:00	5	Humedad	84
44709	7	Sololá	701	Sololá	1	Sololá	9	Septiembre	2023-01-09T00:00:00	2024-11-08T15:00:00	6	Velocidad del viento	0
44710	7	Sololá	701	Sololá	1	Sololá	9	Septiembre	2023-01-09T00:00:00	2024-11-08T15:00:00	7	Dirección del viento	0
44711	7	Sololá	701	Sololá	1	Sololá	9	Septiembre	2023-01-09T00:00:00	2024-11-08T15:00:00	1	Precipitación	0
44712	7	Sololá	701	Sololá	1	Sololá	9	Septiembre	2023-01-09T00:00:00	2024-11-08T15:00:00	8	Radiación solar	123
44713	7	Sololá	701	Sololá	1	Sololá	9	Septiembre	2023-01-09T00:00:00	2024-11-08T16:00:00	2	Temperatura media	20.7
44714	7	Sololá	701	Sololá	1	Sololá	9	Septiembre	2023-01-09T00:00:00	2024-11-08T16:00:00	4	Temperatura máxima	21.8
44715	7	Sololá	701	Sololá	1	Sololá	9	Septiembre	2023-01-09T00:00:00	2024-11-08T16:00:00	3	Temperatura mínima	20.7
44716	7	Sololá	701	Sololá	1	Sololá	9	Septiembre	2023-01-09T00:00:00	2024-11-08T16:00:00	5	Humedad	86
44717	7	Sololá	701	Sololá	1	Sololá	9	Septiembre	2023-01-09T00:00:00	2024-11-08T16:00:00	6	Velocidad del viento	0
44718	7	Sololá	701	Sololá	1	Sololá	9	Septiembre	2023-01-09T00:00:00	2024-11-08T16:00:00	7	Dirección del viento	0
44719	7	Sololá	701	Sololá	1	Sololá	9	Septiembre	2023-01-09T00:00:00	2024-11-08T16:00:00	1	Precipitación	0
44720	7	Sololá	701	Sololá	1	Sololá	9	Septiembre	2023-01-09T00:00:00	2024-11-08T16:00:00	8	Radiación solar	107
44721	7	Sololá	701	Sololá	1	Sololá	9	Septiembre	2023-01-09T00:00:00	2024-11-08T17:00:00	2	Temperatura media	20.1
44722	7	Sololá	701	Sololá	1	Sololá	9	Septiembre	2023-01-09T00:00:00	2024-11-08T17:00:00	4	Temperatura máxima	20.8
44723	7	Sololá	701	Sololá	1	Sololá	9	Septiembre	2023-01-09T00:00:00	2024-11-08T17:00:00	3	Temperatura mínima	20.1
44724	7	Sololá	701	Sololá	1	Sololá	9	Septiembre	2023-01-09T00:00:00	2024-11-08T17:00:00	5	Humedad	88
44725	7	Sololá	701	Sololá	1	Sololá	9	Septiembre	2023-01-09T00:00:00	2024-11-08T17:00:00	6	Velocidad del viento	0
44726	7	Sololá	701	Sololá	1	Sololá	9	Septiembre	2023-01-09T00:00:00	2024-11-08T17:00:00	7	Dirección del viento	0
44727	7	Sololá	701	Sololá	1	Sololá	9	Septiembre	2023-01-09T00:00:00	2024-11-08T17:00:00	1	Precipitación	0
44728	7	Sololá	701	Sololá	1	Sololá	9	Septiembre	2023-01-09T00:00:00	2024-11-08T17:00:00	8	Radiación solar	79
44729	7	Sololá	701	Sololá	1	Sololá	9	Septiembre	2023-01-09T00:00:00	2024-11-08T18:00:00	2	Temperatura media	18.7
44730	7	Sololá	701	Sololá	1	Sololá	9	Septiembre	2023-01-09T00:00:00	2024-11-08T18:00:00	4	Temperatura máxima	20.1
44731	7	Sololá	701	Sololá	1	Sololá	9	Septiembre	2023-01-09T00:00:00	2024-11-08T18:00:00	3	Temperatura mínima	18.7
44732	7	Sololá	701	Sololá	1	Sololá	9	Septiembre	2023-01-09T00:00:00	2024-11-08T18:00:00	5	Humedad	91
44733	7	Sololá	701	Sololá	1	Sololá	9	Septiembre	2023-01-09T00:00:00	2024-11-08T18:00:00	6	Velocidad del viento	0
44734	7	Sololá	701	Sololá	1	Sololá	9	Septiembre	2023-01-09T00:00:00	2024-11-08T18:00:00	7	Dirección del viento	0
44735	7	Sololá	701	Sololá	1	Sololá	9	Septiembre	2023-01-09T00:00:00	2024-11-08T18:00:00	1	Precipitación	0
44736	7	Sololá	701	Sololá	1	Sololá	9	Septiembre	2023-01-09T00:00:00	2024-11-08T18:00:00	8	Radiación solar	10
44737	7	Sololá	701	Sololá	1	Sololá	9	Septiembre	2023-01-09T00:00:00	2024-11-08T19:00:00	2	Temperatura media	16.5
44738	7	Sololá	701	Sololá	1	Sololá	9	Septiembre	2023-01-09T00:00:00	2024-11-08T19:00:00	4	Temperatura máxima	18.7
44739	7	Sololá	701	Sololá	1	Sololá	9	Septiembre	2023-01-09T00:00:00	2024-11-08T19:00:00	3	Temperatura mínima	16.5
44740	7	Sololá	701	Sololá	1	Sololá	9	Septiembre	2023-01-09T00:00:00	2024-11-08T19:00:00	5	Humedad	90
44741	7	Sololá	701	Sololá	1	Sololá	9	Septiembre	2023-01-09T00:00:00	2024-11-08T19:00:00	6	Velocidad del viento	0
44742	7	Sololá	701	Sololá	1	Sololá	9	Septiembre	2023-01-09T00:00:00	2024-11-08T19:00:00	7	Dirección del viento	0
44743	7	Sololá	701	Sololá	1	Sololá	9	Septiembre	2023-01-09T00:00:00	2024-11-08T19:00:00	1	Precipitación	4
44744	7	Sololá	701	Sololá	1	Sololá	9	Septiembre	2023-01-09T00:00:00	2024-11-08T19:00:00	8	Radiación solar	0
44745	7	Sololá	701	Sololá	1	Sololá	9	Septiembre	2023-01-09T00:00:00	2024-11-08T20:00:00	2	Temperatura media	14.9
44746	7	Sololá	701	Sololá	1	Sololá	9	Septiembre	2023-01-09T00:00:00	2024-11-08T20:00:00	4	Temperatura máxima	16.5
44747	7	Sololá	701	Sololá	1	Sololá	9	Septiembre	2023-01-09T00:00:00	2024-11-08T20:00:00	3	Temperatura mínima	14.9
44748	7	Sololá	701	Sololá	1	Sololá	9	Septiembre	2023-01-09T00:00:00	2024-11-08T20:00:00	5	Humedad	94
44749	7	Sololá	701	Sololá	1	Sololá	9	Septiembre	2023-01-09T00:00:00	2024-11-08T20:00:00	6	Velocidad del viento	0
44750	7	Sololá	701	Sololá	1	Sololá	9	Septiembre	2023-01-09T00:00:00	2024-11-08T20:00:00	7	Dirección del viento	0
44751	7	Sololá	701	Sololá	1	Sololá	9	Septiembre	2023-01-09T00:00:00	2024-11-08T20:00:00	1	Precipitación	0.2
44752	7	Sololá	701	Sololá	1	Sololá	9	Septiembre	2023-01-09T00:00:00	2024-11-08T20:00:00	8	Radiación solar	0
44753	7	Sololá	701	Sololá	1	Sololá	9	Septiembre	2023-01-09T00:00:00	2024-11-08T21:00:00	2	Temperatura media	15.2
44754	7	Sololá	701	Sololá	1	Sololá	9	Septiembre	2023-01-09T00:00:00	2024-11-08T21:00:00	4	Temperatura máxima	15.4
44755	7	Sololá	701	Sololá	1	Sololá	9	Septiembre	2023-01-09T00:00:00	2024-11-08T21:00:00	3	Temperatura mínima	14.9
44756	7	Sololá	701	Sololá	1	Sololá	9	Septiembre	2023-01-09T00:00:00	2024-11-08T21:00:00	5	Humedad	94
44757	7	Sololá	701	Sololá	1	Sololá	9	Septiembre	2023-01-09T00:00:00	2024-11-08T21:00:00	6	Velocidad del viento	0
44758	7	Sololá	701	Sololá	1	Sololá	9	Septiembre	2023-01-09T00:00:00	2024-11-08T21:00:00	7	Dirección del viento	0
44759	7	Sololá	701	Sololá	1	Sololá	9	Septiembre	2023-01-09T00:00:00	2024-11-08T21:00:00	1	Precipitación	0
44760	7	Sololá	701	Sololá	1	Sololá	9	Septiembre	2023-01-09T00:00:00	2024-11-08T21:00:00	8	Radiación solar	0
44761	7	Sololá	701	Sololá	1	Sololá	9	Septiembre	2023-01-09T00:00:00	2024-11-08T22:00:00	2	Temperatura media	14.4
44762	7	Sololá	701	Sololá	1	Sololá	9	Septiembre	2023-01-09T00:00:00	2024-11-08T22:00:00	4	Temperatura máxima	15.2
44763	7	Sololá	701	Sololá	1	Sololá	9	Septiembre	2023-01-09T00:00:00	2024-11-08T22:00:00	3	Temperatura mínima	14.4
44764	7	Sololá	701	Sololá	1	Sololá	9	Septiembre	2023-01-09T00:00:00	2024-11-08T22:00:00	5	Humedad	93
44765	7	Sololá	701	Sololá	1	Sololá	9	Septiembre	2023-01-09T00:00:00	2024-11-08T22:00:00	6	Velocidad del viento	0
44766	7	Sololá	701	Sololá	1	Sololá	9	Septiembre	2023-01-09T00:00:00	2024-11-08T22:00:00	7	Dirección del viento	0
44767	7	Sololá	701	Sololá	1	Sololá	9	Septiembre	2023-01-09T00:00:00	2024-11-08T22:00:00	1	Precipitación	0
44768	7	Sololá	701	Sololá	1	Sololá	9	Septiembre	2023-01-09T00:00:00	2024-11-08T22:00:00	8	Radiación solar	0
44769	7	Sololá	701	Sololá	1	Sololá	9	Septiembre	2023-01-09T00:00:00	2024-11-08T23:00:00	2	Temperatura media	14.3
44770	7	Sololá	701	Sololá	1	Sololá	9	Septiembre	2023-01-09T00:00:00	2024-11-08T23:00:00	4	Temperatura máxima	14.5
44771	7	Sololá	701	Sololá	1	Sololá	9	Septiembre	2023-01-09T00:00:00	2024-11-08T23:00:00	3	Temperatura mínima	14.2
44772	7	Sololá	701	Sololá	1	Sololá	9	Septiembre	2023-01-09T00:00:00	2024-11-08T23:00:00	5	Humedad	94
44773	7	Sololá	701	Sololá	1	Sololá	9	Septiembre	2023-01-09T00:00:00	2024-11-08T23:00:00	6	Velocidad del viento	0
44774	7	Sololá	701	Sololá	1	Sololá	9	Septiembre	2023-01-09T00:00:00	2024-11-08T23:00:00	7	Dirección del viento	0
44775	7	Sololá	701	Sololá	1	Sololá	9	Septiembre	2023-01-09T00:00:00	2024-11-08T23:00:00	1	Precipitación	0
44776	7	Sololá	701	Sololá	1	Sololá	9	Septiembre	2023-01-09T00:00:00	2024-11-08T23:00:00	8	Radiación solar	0
44777	7	Sololá	701	Sololá	1	Sololá	9	Septiembre	2023-02-09T00:00:00	2024-11-08T00:00:00	2	Temperatura media	14.7
44778	7	Sololá	701	Sololá	1	Sololá	9	Septiembre	2023-02-09T00:00:00	2024-11-08T00:00:00	4	Temperatura máxima	14.7
44779	7	Sololá	701	Sololá	1	Sololá	9	Septiembre	2023-02-09T00:00:00	2024-11-08T00:00:00	3	Temperatura mínima	14.3
44780	7	Sololá	701	Sololá	1	Sololá	9	Septiembre	2023-02-09T00:00:00	2024-11-08T00:00:00	5	Humedad	93
44781	7	Sololá	701	Sololá	1	Sololá	9	Septiembre	2023-02-09T00:00:00	2024-11-08T00:00:00	6	Velocidad del viento	0
44782	7	Sololá	701	Sololá	1	Sololá	9	Septiembre	2023-02-09T00:00:00	2024-11-08T00:00:00	7	Dirección del viento	0
44783	7	Sololá	701	Sololá	1	Sololá	9	Septiembre	2023-02-09T00:00:00	2024-11-08T00:00:00	1	Precipitación	0
44784	7	Sololá	701	Sololá	1	Sololá	9	Septiembre	2023-02-09T00:00:00	2024-11-08T00:00:00	8	Radiación solar	0
44785	7	Sololá	701	Sololá	1	Sololá	9	Septiembre	2023-02-09T00:00:00	2024-11-08T01:00:00	2	Temperatura media	14.8
44786	7	Sololá	701	Sololá	1	Sololá	9	Septiembre	2023-02-09T00:00:00	2024-11-08T01:00:00	4	Temperatura máxima	14.8
44787	7	Sololá	701	Sololá	1	Sololá	9	Septiembre	2023-02-09T00:00:00	2024-11-08T01:00:00	3	Temperatura mínima	14.6
44788	7	Sololá	701	Sololá	1	Sololá	9	Septiembre	2023-02-09T00:00:00	2024-11-08T01:00:00	5	Humedad	91
44789	7	Sololá	701	Sololá	1	Sololá	9	Septiembre	2023-02-09T00:00:00	2024-11-08T01:00:00	6	Velocidad del viento	0
44790	7	Sololá	701	Sololá	1	Sololá	9	Septiembre	2023-02-09T00:00:00	2024-11-08T01:00:00	7	Dirección del viento	0
44791	7	Sololá	701	Sololá	1	Sololá	9	Septiembre	2023-02-09T00:00:00	2024-11-08T01:00:00	1	Precipitación	0
44792	7	Sololá	701	Sololá	1	Sololá	9	Septiembre	2023-02-09T00:00:00	2024-11-08T01:00:00	8	Radiación solar	0
44793	7	Sololá	701	Sololá	1	Sololá	9	Septiembre	2023-02-09T00:00:00	2024-11-08T02:00:00	2	Temperatura media	14.8
44794	7	Sololá	701	Sololá	1	Sololá	9	Septiembre	2023-02-09T00:00:00	2024-11-08T02:00:00	4	Temperatura máxima	14.9
44795	7	Sololá	701	Sololá	1	Sololá	9	Septiembre	2023-02-09T00:00:00	2024-11-08T02:00:00	3	Temperatura mínima	14.8
44796	7	Sololá	701	Sololá	1	Sololá	9	Septiembre	2023-02-09T00:00:00	2024-11-08T02:00:00	5	Humedad	91
44797	7	Sololá	701	Sololá	1	Sololá	9	Septiembre	2023-02-09T00:00:00	2024-11-08T02:00:00	6	Velocidad del viento	0
44798	7	Sololá	701	Sololá	1	Sololá	9	Septiembre	2023-02-09T00:00:00	2024-11-08T02:00:00	7	Dirección del viento	0
44799	7	Sololá	701	Sololá	1	Sololá	9	Septiembre	2023-02-09T00:00:00	2024-11-08T02:00:00	1	Precipitación	0
44800	7	Sololá	701	Sololá	1	Sololá	9	Septiembre	2023-02-09T00:00:00	2024-11-08T02:00:00	8	Radiación solar	0
44801	7	Sololá	701	Sololá	1	Sololá	9	Septiembre	2023-02-09T00:00:00	2024-11-08T03:00:00	2	Temperatura media	14.6
44802	7	Sololá	701	Sololá	1	Sololá	9	Septiembre	2023-02-09T00:00:00	2024-11-08T03:00:00	4	Temperatura máxima	14.8
44803	7	Sololá	701	Sololá	1	Sololá	9	Septiembre	2023-02-09T00:00:00	2024-11-08T03:00:00	3	Temperatura mínima	14.6
44804	7	Sololá	701	Sololá	1	Sololá	9	Septiembre	2023-02-09T00:00:00	2024-11-08T03:00:00	5	Humedad	90
44805	7	Sololá	701	Sololá	1	Sololá	9	Septiembre	2023-02-09T00:00:00	2024-11-08T03:00:00	6	Velocidad del viento	0
44806	7	Sololá	701	Sololá	1	Sololá	9	Septiembre	2023-02-09T00:00:00	2024-11-08T03:00:00	7	Dirección del viento	0
44807	7	Sololá	701	Sololá	1	Sololá	9	Septiembre	2023-02-09T00:00:00	2024-11-08T03:00:00	1	Precipitación	0
44808	7	Sololá	701	Sololá	1	Sololá	9	Septiembre	2023-02-09T00:00:00	2024-11-08T03:00:00	8	Radiación solar	0
44809	7	Sololá	701	Sololá	1	Sololá	9	Septiembre	2023-02-09T00:00:00	2024-11-08T04:00:00	2	Temperatura media	14.5
44810	7	Sololá	701	Sololá	1	Sololá	9	Septiembre	2023-02-09T00:00:00	2024-11-08T04:00:00	4	Temperatura máxima	14.6
44811	7	Sololá	701	Sololá	1	Sololá	9	Septiembre	2023-02-09T00:00:00	2024-11-08T04:00:00	3	Temperatura mínima	14.4
44812	7	Sololá	701	Sololá	1	Sololá	9	Septiembre	2023-02-09T00:00:00	2024-11-08T04:00:00	5	Humedad	90
44813	7	Sololá	701	Sololá	1	Sololá	9	Septiembre	2023-02-09T00:00:00	2024-11-08T04:00:00	6	Velocidad del viento	0
44814	7	Sololá	701	Sololá	1	Sololá	9	Septiembre	2023-02-09T00:00:00	2024-11-08T04:00:00	7	Dirección del viento	0
44815	7	Sololá	701	Sololá	1	Sololá	9	Septiembre	2023-02-09T00:00:00	2024-11-08T04:00:00	1	Precipitación	0
44816	7	Sololá	701	Sololá	1	Sololá	9	Septiembre	2023-02-09T00:00:00	2024-11-08T04:00:00	8	Radiación solar	0
44817	7	Sololá	701	Sololá	1	Sololá	9	Septiembre	2023-02-09T00:00:00	2024-11-08T05:00:00	2	Temperatura media	14.1
44818	7	Sololá	701	Sololá	1	Sololá	9	Septiembre	2023-02-09T00:00:00	2024-11-08T05:00:00	4	Temperatura máxima	14.5
44819	7	Sololá	701	Sololá	1	Sololá	9	Septiembre	2023-02-09T00:00:00	2024-11-08T05:00:00	3	Temperatura mínima	14.1
44820	7	Sololá	701	Sololá	1	Sololá	9	Septiembre	2023-02-09T00:00:00	2024-11-08T05:00:00	5	Humedad	89
44821	7	Sololá	701	Sololá	1	Sololá	9	Septiembre	2023-02-09T00:00:00	2024-11-08T05:00:00	6	Velocidad del viento	0
44822	7	Sololá	701	Sololá	1	Sololá	9	Septiembre	2023-02-09T00:00:00	2024-11-08T05:00:00	7	Dirección del viento	0
44823	7	Sololá	701	Sololá	1	Sololá	9	Septiembre	2023-02-09T00:00:00	2024-11-08T05:00:00	1	Precipitación	0
44824	7	Sololá	701	Sololá	1	Sololá	9	Septiembre	2023-02-09T00:00:00	2024-11-08T05:00:00	8	Radiación solar	0
44825	7	Sololá	701	Sololá	1	Sololá	9	Septiembre	2023-02-09T00:00:00	2024-11-08T06:00:00	2	Temperatura media	13.4
44826	7	Sololá	701	Sololá	1	Sololá	9	Septiembre	2023-02-09T00:00:00	2024-11-08T06:00:00	4	Temperatura máxima	14.2
44827	7	Sololá	701	Sololá	1	Sololá	9	Septiembre	2023-02-09T00:00:00	2024-11-08T06:00:00	3	Temperatura mínima	13.4
44828	7	Sololá	701	Sololá	1	Sololá	9	Septiembre	2023-02-09T00:00:00	2024-11-08T06:00:00	5	Humedad	90
44829	7	Sololá	701	Sololá	1	Sololá	9	Septiembre	2023-02-09T00:00:00	2024-11-08T06:00:00	6	Velocidad del viento	0
44830	7	Sololá	701	Sololá	1	Sololá	9	Septiembre	2023-02-09T00:00:00	2024-11-08T06:00:00	7	Dirección del viento	0
44831	7	Sololá	701	Sololá	1	Sololá	9	Septiembre	2023-02-09T00:00:00	2024-11-08T06:00:00	1	Precipitación	0
44832	7	Sololá	701	Sololá	1	Sololá	9	Septiembre	2023-02-09T00:00:00	2024-11-08T06:00:00	8	Radiación solar	1
44833	7	Sololá	701	Sololá	1	Sololá	9	Septiembre	2023-02-09T00:00:00	2024-11-08T07:00:00	2	Temperatura media	14.7
44834	7	Sololá	701	Sololá	1	Sololá	9	Septiembre	2023-02-09T00:00:00	2024-11-08T07:00:00	4	Temperatura máxima	14.7
44835	7	Sololá	701	Sololá	1	Sololá	9	Septiembre	2023-02-09T00:00:00	2024-11-08T07:00:00	3	Temperatura mínima	13.4
44836	7	Sololá	701	Sololá	1	Sololá	9	Septiembre	2023-02-09T00:00:00	2024-11-08T07:00:00	5	Humedad	89
44837	7	Sololá	701	Sololá	1	Sololá	9	Septiembre	2023-02-09T00:00:00	2024-11-08T07:00:00	6	Velocidad del viento	0
44838	7	Sololá	701	Sololá	1	Sololá	9	Septiembre	2023-02-09T00:00:00	2024-11-08T07:00:00	7	Dirección del viento	0
44839	7	Sololá	701	Sololá	1	Sololá	9	Septiembre	2023-02-09T00:00:00	2024-11-08T07:00:00	1	Precipitación	0
44840	7	Sololá	701	Sololá	1	Sololá	9	Septiembre	2023-02-09T00:00:00	2024-11-08T07:00:00	8	Radiación solar	25
44841	7	Sololá	701	Sololá	1	Sololá	9	Septiembre	2023-02-09T00:00:00	2024-11-08T08:00:00	2	Temperatura media	18.3
44842	7	Sololá	701	Sololá	1	Sololá	9	Septiembre	2023-02-09T00:00:00	2024-11-08T08:00:00	4	Temperatura máxima	18.3
44843	7	Sololá	701	Sololá	1	Sololá	9	Septiembre	2023-02-09T00:00:00	2024-11-08T08:00:00	3	Temperatura mínima	14.6
44844	7	Sololá	701	Sololá	1	Sololá	9	Septiembre	2023-02-09T00:00:00	2024-11-08T08:00:00	5	Humedad	77
44845	7	Sololá	701	Sololá	1	Sololá	9	Septiembre	2023-02-09T00:00:00	2024-11-08T08:00:00	6	Velocidad del viento	0
44846	7	Sololá	701	Sololá	1	Sololá	9	Septiembre	2023-02-09T00:00:00	2024-11-08T08:00:00	7	Dirección del viento	0
44847	7	Sololá	701	Sololá	1	Sololá	9	Septiembre	2023-02-09T00:00:00	2024-11-08T08:00:00	1	Precipitación	0
44848	7	Sololá	701	Sololá	1	Sololá	9	Septiembre	2023-02-09T00:00:00	2024-11-08T08:00:00	8	Radiación solar	214
44849	7	Sololá	701	Sololá	1	Sololá	9	Septiembre	2023-02-09T00:00:00	2024-11-08T09:00:00	2	Temperatura media	22.3
44850	7	Sololá	701	Sololá	1	Sololá	9	Septiembre	2023-02-09T00:00:00	2024-11-08T09:00:00	4	Temperatura máxima	22.3
44851	7	Sololá	701	Sololá	1	Sololá	9	Septiembre	2023-02-09T00:00:00	2024-11-08T09:00:00	3	Temperatura mínima	18.4
44852	7	Sololá	701	Sololá	1	Sololá	9	Septiembre	2023-02-09T00:00:00	2024-11-08T09:00:00	5	Humedad	65
44853	7	Sololá	701	Sololá	1	Sololá	9	Septiembre	2023-02-09T00:00:00	2024-11-08T09:00:00	6	Velocidad del viento	0
44854	7	Sololá	701	Sololá	1	Sololá	9	Septiembre	2023-02-09T00:00:00	2024-11-08T09:00:00	7	Dirección del viento	0
44855	7	Sololá	701	Sololá	1	Sololá	9	Septiembre	2023-02-09T00:00:00	2024-11-08T09:00:00	1	Precipitación	0
44856	7	Sololá	701	Sololá	1	Sololá	9	Septiembre	2023-02-09T00:00:00	2024-11-08T09:00:00	8	Radiación solar	630
44857	7	Sololá	701	Sololá	1	Sololá	9	Septiembre	2023-02-09T00:00:00	2024-11-08T10:00:00	2	Temperatura media	22.2
44858	7	Sololá	701	Sololá	1	Sololá	9	Septiembre	2023-02-09T00:00:00	2024-11-08T10:00:00	4	Temperatura máxima	22.8
44859	7	Sololá	701	Sololá	1	Sololá	9	Septiembre	2023-02-09T00:00:00	2024-11-08T10:00:00	3	Temperatura mínima	22.1
44860	7	Sololá	701	Sololá	1	Sololá	9	Septiembre	2023-02-09T00:00:00	2024-11-08T10:00:00	5	Humedad	66
44861	7	Sololá	701	Sololá	1	Sololá	9	Septiembre	2023-02-09T00:00:00	2024-11-08T10:00:00	6	Velocidad del viento	0
44862	7	Sololá	701	Sololá	1	Sololá	9	Septiembre	2023-02-09T00:00:00	2024-11-08T10:00:00	7	Dirección del viento	0
44863	7	Sololá	701	Sololá	1	Sololá	9	Septiembre	2023-02-09T00:00:00	2024-11-08T10:00:00	1	Precipitación	0
44864	7	Sololá	701	Sololá	1	Sololá	9	Septiembre	2023-02-09T00:00:00	2024-11-08T10:00:00	8	Radiación solar	733
44865	7	Sololá	701	Sololá	1	Sololá	9	Septiembre	2023-02-09T00:00:00	2024-11-08T11:00:00	2	Temperatura media	22.8
44866	7	Sololá	701	Sololá	1	Sololá	9	Septiembre	2023-02-09T00:00:00	2024-11-08T11:00:00	4	Temperatura máxima	23.1
44867	7	Sololá	701	Sololá	1	Sololá	9	Septiembre	2023-02-09T00:00:00	2024-11-08T11:00:00	3	Temperatura mínima	22.2
44868	7	Sololá	701	Sololá	1	Sololá	9	Septiembre	2023-02-09T00:00:00	2024-11-08T11:00:00	5	Humedad	63
44869	7	Sololá	701	Sololá	1	Sololá	9	Septiembre	2023-02-09T00:00:00	2024-11-08T11:00:00	6	Velocidad del viento	0
44870	7	Sololá	701	Sololá	1	Sololá	9	Septiembre	2023-02-09T00:00:00	2024-11-08T11:00:00	7	Dirección del viento	0
44871	7	Sololá	701	Sololá	1	Sololá	9	Septiembre	2023-02-09T00:00:00	2024-11-08T11:00:00	1	Precipitación	0
44872	7	Sololá	701	Sololá	1	Sololá	9	Septiembre	2023-02-09T00:00:00	2024-11-08T11:00:00	8	Radiación solar	698
44873	7	Sololá	701	Sololá	1	Sololá	9	Septiembre	2023-02-09T00:00:00	2024-11-08T12:00:00	2	Temperatura media	22.5
44874	7	Sololá	701	Sololá	1	Sololá	9	Septiembre	2023-02-09T00:00:00	2024-11-08T12:00:00	4	Temperatura máxima	22.8
44875	7	Sololá	701	Sololá	1	Sololá	9	Septiembre	2023-02-09T00:00:00	2024-11-08T12:00:00	3	Temperatura mínima	22.4
44876	7	Sololá	701	Sololá	1	Sololá	9	Septiembre	2023-02-09T00:00:00	2024-11-08T12:00:00	5	Humedad	60
44877	7	Sololá	701	Sololá	1	Sololá	9	Septiembre	2023-02-09T00:00:00	2024-11-08T12:00:00	6	Velocidad del viento	0
44878	7	Sololá	701	Sololá	1	Sololá	9	Septiembre	2023-02-09T00:00:00	2024-11-08T12:00:00	7	Dirección del viento	0
44879	7	Sololá	701	Sololá	1	Sololá	9	Septiembre	2023-02-09T00:00:00	2024-11-08T12:00:00	1	Precipitación	0
44880	7	Sololá	701	Sololá	1	Sololá	9	Septiembre	2023-02-09T00:00:00	2024-11-08T12:00:00	8	Radiación solar	192
44881	7	Sololá	701	Sololá	1	Sololá	9	Septiembre	2023-02-09T00:00:00	2024-11-08T13:00:00	2	Temperatura media	23.4
44882	7	Sololá	701	Sololá	1	Sololá	9	Septiembre	2023-02-09T00:00:00	2024-11-08T13:00:00	4	Temperatura máxima	23.6
44883	7	Sololá	701	Sololá	1	Sololá	9	Septiembre	2023-02-09T00:00:00	2024-11-08T13:00:00	3	Temperatura mínima	22.5
44884	7	Sololá	701	Sololá	1	Sololá	9	Septiembre	2023-02-09T00:00:00	2024-11-08T13:00:00	5	Humedad	58
44885	7	Sololá	701	Sololá	1	Sololá	9	Septiembre	2023-02-09T00:00:00	2024-11-08T13:00:00	6	Velocidad del viento	0
44886	7	Sololá	701	Sololá	1	Sololá	9	Septiembre	2023-02-09T00:00:00	2024-11-08T13:00:00	7	Dirección del viento	0
44887	7	Sololá	701	Sololá	1	Sololá	9	Septiembre	2023-02-09T00:00:00	2024-11-08T13:00:00	1	Precipitación	0
44888	7	Sololá	701	Sololá	1	Sololá	9	Septiembre	2023-02-09T00:00:00	2024-11-08T13:00:00	8	Radiación solar	177
44889	7	Sololá	701	Sololá	1	Sololá	9	Septiembre	2023-02-09T00:00:00	2024-11-08T14:00:00	2	Temperatura media	21.7
44890	7	Sololá	701	Sololá	1	Sololá	9	Septiembre	2023-02-09T00:00:00	2024-11-08T14:00:00	4	Temperatura máxima	23.4
44891	7	Sololá	701	Sololá	1	Sololá	9	Septiembre	2023-02-09T00:00:00	2024-11-08T14:00:00	3	Temperatura mínima	21.7
44892	7	Sololá	701	Sololá	1	Sololá	9	Septiembre	2023-02-09T00:00:00	2024-11-08T14:00:00	5	Humedad	77
44893	7	Sololá	701	Sololá	1	Sololá	9	Septiembre	2023-02-09T00:00:00	2024-11-08T14:00:00	6	Velocidad del viento	0
44894	7	Sololá	701	Sololá	1	Sololá	9	Septiembre	2023-02-09T00:00:00	2024-11-08T14:00:00	7	Dirección del viento	0
44895	7	Sololá	701	Sololá	1	Sololá	9	Septiembre	2023-02-09T00:00:00	2024-11-08T14:00:00	1	Precipitación	0
44896	7	Sololá	701	Sololá	1	Sololá	9	Septiembre	2023-02-09T00:00:00	2024-11-08T14:00:00	8	Radiación solar	149
44897	7	Sololá	701	Sololá	1	Sololá	9	Septiembre	2023-02-09T00:00:00	2024-11-08T15:00:00	2	Temperatura media	18.3
44898	7	Sololá	701	Sololá	1	Sololá	9	Septiembre	2023-02-09T00:00:00	2024-11-08T15:00:00	4	Temperatura máxima	21.7
44899	7	Sololá	701	Sololá	1	Sololá	9	Septiembre	2023-02-09T00:00:00	2024-11-08T15:00:00	3	Temperatura mínima	18.1
44900	7	Sololá	701	Sololá	1	Sololá	9	Septiembre	2023-02-09T00:00:00	2024-11-08T15:00:00	5	Humedad	84
44901	7	Sololá	701	Sololá	1	Sololá	9	Septiembre	2023-02-09T00:00:00	2024-11-08T15:00:00	6	Velocidad del viento	0
44902	7	Sololá	701	Sololá	1	Sololá	9	Septiembre	2023-02-09T00:00:00	2024-11-08T15:00:00	7	Dirección del viento	0
44903	7	Sololá	701	Sololá	1	Sololá	9	Septiembre	2023-02-09T00:00:00	2024-11-08T15:00:00	1	Precipitación	0
44904	7	Sololá	701	Sololá	1	Sololá	9	Septiembre	2023-02-09T00:00:00	2024-11-08T15:00:00	8	Radiación solar	111
44905	7	Sololá	701	Sololá	1	Sololá	9	Septiembre	2023-02-09T00:00:00	2024-11-08T16:00:00	2	Temperatura media	18.9
44906	7	Sololá	701	Sololá	1	Sololá	9	Septiembre	2023-02-09T00:00:00	2024-11-08T16:00:00	4	Temperatura máxima	19.3
44907	7	Sololá	701	Sololá	1	Sololá	9	Septiembre	2023-02-09T00:00:00	2024-11-08T16:00:00	3	Temperatura mínima	18.3
44908	7	Sololá	701	Sololá	1	Sololá	9	Septiembre	2023-02-09T00:00:00	2024-11-08T16:00:00	5	Humedad	85
44909	7	Sololá	701	Sololá	1	Sololá	9	Septiembre	2023-02-09T00:00:00	2024-11-08T16:00:00	6	Velocidad del viento	0
44910	7	Sololá	701	Sololá	1	Sololá	9	Septiembre	2023-02-09T00:00:00	2024-11-08T16:00:00	7	Dirección del viento	0
44911	7	Sololá	701	Sololá	1	Sololá	9	Septiembre	2023-02-09T00:00:00	2024-11-08T16:00:00	1	Precipitación	0
44912	7	Sololá	701	Sololá	1	Sololá	9	Septiembre	2023-02-09T00:00:00	2024-11-08T16:00:00	8	Radiación solar	95
44913	7	Sololá	701	Sololá	1	Sololá	9	Septiembre	2023-02-09T00:00:00	2024-11-08T17:00:00	2	Temperatura media	18.9
44914	7	Sololá	701	Sololá	1	Sololá	9	Septiembre	2023-02-09T00:00:00	2024-11-08T17:00:00	4	Temperatura máxima	18.9
44915	7	Sololá	701	Sololá	1	Sololá	9	Septiembre	2023-02-09T00:00:00	2024-11-08T17:00:00	3	Temperatura mínima	18.8
44916	7	Sololá	701	Sololá	1	Sololá	9	Septiembre	2023-02-09T00:00:00	2024-11-08T17:00:00	5	Humedad	83
44917	7	Sololá	701	Sololá	1	Sololá	9	Septiembre	2023-02-09T00:00:00	2024-11-08T17:00:00	6	Velocidad del viento	0
44918	7	Sololá	701	Sololá	1	Sololá	9	Septiembre	2023-02-09T00:00:00	2024-11-08T17:00:00	7	Dirección del viento	0
44919	7	Sololá	701	Sololá	1	Sololá	9	Septiembre	2023-02-09T00:00:00	2024-11-08T17:00:00	1	Precipitación	0
44920	7	Sololá	701	Sololá	1	Sololá	9	Septiembre	2023-02-09T00:00:00	2024-11-08T17:00:00	8	Radiación solar	45
44921	7	Sololá	701	Sololá	1	Sololá	9	Septiembre	2023-02-09T00:00:00	2024-11-08T18:00:00	2	Temperatura media	18.2
44922	7	Sololá	701	Sololá	1	Sololá	9	Septiembre	2023-02-09T00:00:00	2024-11-08T18:00:00	4	Temperatura máxima	18.9
44923	7	Sololá	701	Sololá	1	Sololá	9	Septiembre	2023-02-09T00:00:00	2024-11-08T18:00:00	3	Temperatura mínima	18.2
44924	7	Sololá	701	Sololá	1	Sololá	9	Septiembre	2023-02-09T00:00:00	2024-11-08T18:00:00	5	Humedad	76
44925	7	Sololá	701	Sololá	1	Sololá	9	Septiembre	2023-02-09T00:00:00	2024-11-08T18:00:00	6	Velocidad del viento	0
44926	7	Sololá	701	Sololá	1	Sololá	9	Septiembre	2023-02-09T00:00:00	2024-11-08T18:00:00	7	Dirección del viento	0
44927	7	Sololá	701	Sololá	1	Sololá	9	Septiembre	2023-02-09T00:00:00	2024-11-08T18:00:00	1	Precipitación	0
44928	7	Sololá	701	Sololá	1	Sololá	9	Septiembre	2023-02-09T00:00:00	2024-11-08T18:00:00	8	Radiación solar	18
44929	7	Sololá	701	Sololá	1	Sololá	9	Septiembre	2023-02-09T00:00:00	2024-11-08T19:00:00	2	Temperatura media	17.1
44930	7	Sololá	701	Sololá	1	Sololá	9	Septiembre	2023-02-09T00:00:00	2024-11-08T19:00:00	4	Temperatura máxima	18.2
44931	7	Sololá	701	Sololá	1	Sololá	9	Septiembre	2023-02-09T00:00:00	2024-11-08T19:00:00	3	Temperatura mínima	17.1
44932	7	Sololá	701	Sololá	1	Sololá	9	Septiembre	2023-02-09T00:00:00	2024-11-08T19:00:00	5	Humedad	81
44933	7	Sololá	701	Sololá	1	Sololá	9	Septiembre	2023-02-09T00:00:00	2024-11-08T19:00:00	6	Velocidad del viento	0
44934	7	Sololá	701	Sololá	1	Sololá	9	Septiembre	2023-02-09T00:00:00	2024-11-08T19:00:00	7	Dirección del viento	0
44935	7	Sololá	701	Sololá	1	Sololá	9	Septiembre	2023-02-09T00:00:00	2024-11-08T19:00:00	1	Precipitación	0
44936	7	Sololá	701	Sololá	1	Sololá	9	Septiembre	2023-02-09T00:00:00	2024-11-08T19:00:00	8	Radiación solar	0
44937	7	Sololá	701	Sololá	1	Sololá	9	Septiembre	2023-02-09T00:00:00	2024-11-08T20:00:00	2	Temperatura media	16.7
44938	7	Sololá	701	Sololá	1	Sololá	9	Septiembre	2023-02-09T00:00:00	2024-11-08T20:00:00	4	Temperatura máxima	17.1
44939	7	Sololá	701	Sololá	1	Sololá	9	Septiembre	2023-02-09T00:00:00	2024-11-08T20:00:00	3	Temperatura mínima	16.7
44940	7	Sololá	701	Sololá	1	Sololá	9	Septiembre	2023-02-09T00:00:00	2024-11-08T20:00:00	5	Humedad	85
44941	7	Sololá	701	Sololá	1	Sololá	9	Septiembre	2023-02-09T00:00:00	2024-11-08T20:00:00	6	Velocidad del viento	0
44942	7	Sololá	701	Sololá	1	Sololá	9	Septiembre	2023-02-09T00:00:00	2024-11-08T20:00:00	7	Dirección del viento	0
44943	7	Sololá	701	Sololá	1	Sololá	9	Septiembre	2023-02-09T00:00:00	2024-11-08T20:00:00	1	Precipitación	0
44944	7	Sololá	701	Sololá	1	Sololá	9	Septiembre	2023-02-09T00:00:00	2024-11-08T20:00:00	8	Radiación solar	0
44945	7	Sololá	701	Sololá	1	Sololá	9	Septiembre	2023-02-09T00:00:00	2024-11-08T21:00:00	2	Temperatura media	15.6
44946	7	Sololá	701	Sololá	1	Sololá	9	Septiembre	2023-02-09T00:00:00	2024-11-08T21:00:00	4	Temperatura máxima	16.7
44947	7	Sololá	701	Sololá	1	Sololá	9	Septiembre	2023-02-09T00:00:00	2024-11-08T21:00:00	3	Temperatura mínima	15.5
44948	7	Sololá	701	Sololá	1	Sololá	9	Septiembre	2023-02-09T00:00:00	2024-11-08T21:00:00	5	Humedad	89
44949	7	Sololá	701	Sololá	1	Sololá	9	Septiembre	2023-02-09T00:00:00	2024-11-08T21:00:00	6	Velocidad del viento	0
44950	7	Sololá	701	Sololá	1	Sololá	9	Septiembre	2023-02-09T00:00:00	2024-11-08T21:00:00	7	Dirección del viento	0
44951	7	Sololá	701	Sololá	1	Sololá	9	Septiembre	2023-02-09T00:00:00	2024-11-08T21:00:00	1	Precipitación	0
44952	7	Sololá	701	Sololá	1	Sololá	9	Septiembre	2023-02-09T00:00:00	2024-11-08T21:00:00	8	Radiación solar	0
44953	7	Sololá	701	Sololá	1	Sololá	9	Septiembre	2023-02-09T00:00:00	2024-11-08T22:00:00	2	Temperatura media	15.8
44954	7	Sololá	701	Sololá	1	Sololá	9	Septiembre	2023-02-09T00:00:00	2024-11-08T22:00:00	4	Temperatura máxima	15.8
44955	7	Sololá	701	Sololá	1	Sololá	9	Septiembre	2023-02-09T00:00:00	2024-11-08T22:00:00	3	Temperatura mínima	15.6
44956	7	Sololá	701	Sololá	1	Sololá	9	Septiembre	2023-02-09T00:00:00	2024-11-08T22:00:00	5	Humedad	87
44957	7	Sololá	701	Sololá	1	Sololá	9	Septiembre	2023-02-09T00:00:00	2024-11-08T22:00:00	6	Velocidad del viento	0
44958	7	Sololá	701	Sololá	1	Sololá	9	Septiembre	2023-02-09T00:00:00	2024-11-08T22:00:00	7	Dirección del viento	0
44959	7	Sololá	701	Sololá	1	Sololá	9	Septiembre	2023-02-09T00:00:00	2024-11-08T22:00:00	1	Precipitación	0
44960	7	Sololá	701	Sololá	1	Sololá	9	Septiembre	2023-02-09T00:00:00	2024-11-08T22:00:00	8	Radiación solar	0
44961	7	Sololá	701	Sololá	1	Sololá	9	Septiembre	2023-02-09T00:00:00	2024-11-08T23:00:00	2	Temperatura media	15.9
44962	7	Sololá	701	Sololá	1	Sololá	9	Septiembre	2023-02-09T00:00:00	2024-11-08T23:00:00	4	Temperatura máxima	16
44963	7	Sololá	701	Sololá	1	Sololá	9	Septiembre	2023-02-09T00:00:00	2024-11-08T23:00:00	3	Temperatura mínima	15.8
44964	7	Sololá	701	Sololá	1	Sololá	9	Septiembre	2023-02-09T00:00:00	2024-11-08T23:00:00	5	Humedad	87
44965	7	Sololá	701	Sololá	1	Sololá	9	Septiembre	2023-02-09T00:00:00	2024-11-08T23:00:00	6	Velocidad del viento	0
44966	7	Sololá	701	Sololá	1	Sololá	9	Septiembre	2023-02-09T00:00:00	2024-11-08T23:00:00	7	Dirección del viento	0
44967	7	Sololá	701	Sololá	1	Sololá	9	Septiembre	2023-02-09T00:00:00	2024-11-08T23:00:00	1	Precipitación	0
44968	7	Sololá	701	Sololá	1	Sololá	9	Septiembre	2023-02-09T00:00:00	2024-11-08T23:00:00	8	Radiación solar	0
44969	7	Sololá	701	Sololá	1	Sololá	9	Septiembre	2023-03-09T00:00:00	2024-11-08T00:00:00	2	Temperatura media	15.9
44970	7	Sololá	701	Sololá	1	Sololá	9	Septiembre	2023-03-09T00:00:00	2024-11-08T00:00:00	4	Temperatura máxima	16
44971	7	Sololá	701	Sololá	1	Sololá	9	Septiembre	2023-03-09T00:00:00	2024-11-08T00:00:00	3	Temperatura mínima	15.8
44972	7	Sololá	701	Sololá	1	Sololá	9	Septiembre	2023-03-09T00:00:00	2024-11-08T00:00:00	5	Humedad	84
44973	7	Sololá	701	Sololá	1	Sololá	9	Septiembre	2023-03-09T00:00:00	2024-11-08T00:00:00	6	Velocidad del viento	0
44974	7	Sololá	701	Sololá	1	Sololá	9	Septiembre	2023-03-09T00:00:00	2024-11-08T00:00:00	7	Dirección del viento	0
44975	7	Sololá	701	Sololá	1	Sololá	9	Septiembre	2023-03-09T00:00:00	2024-11-08T00:00:00	1	Precipitación	0
44976	7	Sololá	701	Sololá	1	Sololá	9	Septiembre	2023-03-09T00:00:00	2024-11-08T00:00:00	8	Radiación solar	0
44977	7	Sololá	701	Sololá	1	Sololá	9	Septiembre	2023-03-09T00:00:00	2024-11-08T01:00:00	2	Temperatura media	15.2
44978	7	Sololá	701	Sololá	1	Sololá	9	Septiembre	2023-03-09T00:00:00	2024-11-08T01:00:00	4	Temperatura máxima	16
44979	7	Sololá	701	Sololá	1	Sololá	9	Septiembre	2023-03-09T00:00:00	2024-11-08T01:00:00	3	Temperatura mínima	15.2
44980	7	Sololá	701	Sololá	1	Sololá	9	Septiembre	2023-03-09T00:00:00	2024-11-08T01:00:00	5	Humedad	87
44981	7	Sololá	701	Sololá	1	Sololá	9	Septiembre	2023-03-09T00:00:00	2024-11-08T01:00:00	6	Velocidad del viento	0
44982	7	Sololá	701	Sololá	1	Sololá	9	Septiembre	2023-03-09T00:00:00	2024-11-08T01:00:00	7	Dirección del viento	0
44983	7	Sololá	701	Sololá	1	Sololá	9	Septiembre	2023-03-09T00:00:00	2024-11-08T01:00:00	1	Precipitación	0
44984	7	Sololá	701	Sololá	1	Sololá	9	Septiembre	2023-03-09T00:00:00	2024-11-08T01:00:00	8	Radiación solar	0
44985	7	Sololá	701	Sololá	1	Sololá	9	Septiembre	2023-03-09T00:00:00	2024-11-08T02:00:00	2	Temperatura media	15.3
44986	7	Sololá	701	Sololá	1	Sololá	9	Septiembre	2023-03-09T00:00:00	2024-11-08T02:00:00	4	Temperatura máxima	15.3
44987	7	Sololá	701	Sololá	1	Sololá	9	Septiembre	2023-03-09T00:00:00	2024-11-08T02:00:00	3	Temperatura mínima	14.9
44988	7	Sololá	701	Sololá	1	Sololá	9	Septiembre	2023-03-09T00:00:00	2024-11-08T02:00:00	5	Humedad	86
44989	7	Sololá	701	Sololá	1	Sololá	9	Septiembre	2023-03-09T00:00:00	2024-11-08T02:00:00	6	Velocidad del viento	0
44990	7	Sololá	701	Sololá	1	Sololá	9	Septiembre	2023-03-09T00:00:00	2024-11-08T02:00:00	7	Dirección del viento	0
44991	7	Sololá	701	Sololá	1	Sololá	9	Septiembre	2023-03-09T00:00:00	2024-11-08T02:00:00	1	Precipitación	0
44992	7	Sololá	701	Sololá	1	Sololá	9	Septiembre	2023-03-09T00:00:00	2024-11-08T02:00:00	8	Radiación solar	0
44993	7	Sololá	701	Sololá	1	Sololá	9	Septiembre	2023-03-09T00:00:00	2024-11-08T03:00:00	2	Temperatura media	15.1
44994	7	Sololá	701	Sololá	1	Sololá	9	Septiembre	2023-03-09T00:00:00	2024-11-08T03:00:00	4	Temperatura máxima	15.3
44995	7	Sololá	701	Sololá	1	Sololá	9	Septiembre	2023-03-09T00:00:00	2024-11-08T03:00:00	3	Temperatura mínima	15.1
44996	7	Sololá	701	Sololá	1	Sololá	9	Septiembre	2023-03-09T00:00:00	2024-11-08T03:00:00	5	Humedad	86
44997	7	Sololá	701	Sololá	1	Sololá	9	Septiembre	2023-03-09T00:00:00	2024-11-08T03:00:00	6	Velocidad del viento	0
44998	7	Sololá	701	Sololá	1	Sololá	9	Septiembre	2023-03-09T00:00:00	2024-11-08T03:00:00	7	Dirección del viento	0
44999	7	Sololá	701	Sololá	1	Sololá	9	Septiembre	2023-03-09T00:00:00	2024-11-08T03:00:00	1	Precipitación	0
45000	7	Sololá	701	Sololá	1	Sololá	9	Septiembre	2023-03-09T00:00:00	2024-11-08T03:00:00	8	Radiación solar	0
45001	7	Sololá	701	Sololá	1	Sololá	9	Septiembre	2023-03-09T00:00:00	2024-11-08T04:00:00	2	Temperatura media	14.7
45002	7	Sololá	701	Sololá	1	Sololá	9	Septiembre	2023-03-09T00:00:00	2024-11-08T04:00:00	4	Temperatura máxima	15.1
45003	7	Sololá	701	Sololá	1	Sololá	9	Septiembre	2023-03-09T00:00:00	2024-11-08T04:00:00	3	Temperatura mínima	14.6
45004	7	Sololá	701	Sololá	1	Sololá	9	Septiembre	2023-03-09T00:00:00	2024-11-08T04:00:00	5	Humedad	87
45005	7	Sololá	701	Sololá	1	Sololá	9	Septiembre	2023-03-09T00:00:00	2024-11-08T04:00:00	6	Velocidad del viento	0
45006	7	Sololá	701	Sololá	1	Sololá	9	Septiembre	2023-03-09T00:00:00	2024-11-08T04:00:00	7	Dirección del viento	0
45007	7	Sololá	701	Sololá	1	Sololá	9	Septiembre	2023-03-09T00:00:00	2024-11-08T04:00:00	1	Precipitación	0
45008	7	Sololá	701	Sololá	1	Sololá	9	Septiembre	2023-03-09T00:00:00	2024-11-08T04:00:00	8	Radiación solar	0
45009	7	Sololá	701	Sololá	1	Sololá	9	Septiembre	2023-03-09T00:00:00	2024-11-08T05:00:00	2	Temperatura media	14.4
45010	7	Sololá	701	Sololá	1	Sololá	9	Septiembre	2023-03-09T00:00:00	2024-11-08T05:00:00	4	Temperatura máxima	14.7
45011	7	Sololá	701	Sololá	1	Sololá	9	Septiembre	2023-03-09T00:00:00	2024-11-08T05:00:00	3	Temperatura mínima	14.3
45012	7	Sololá	701	Sololá	1	Sololá	9	Septiembre	2023-03-09T00:00:00	2024-11-08T05:00:00	5	Humedad	88
45013	7	Sololá	701	Sololá	1	Sololá	9	Septiembre	2023-03-09T00:00:00	2024-11-08T05:00:00	6	Velocidad del viento	0
45014	7	Sololá	701	Sololá	1	Sololá	9	Septiembre	2023-03-09T00:00:00	2024-11-08T05:00:00	7	Dirección del viento	0
45015	7	Sololá	701	Sololá	1	Sololá	9	Septiembre	2023-03-09T00:00:00	2024-11-08T05:00:00	1	Precipitación	0
45016	7	Sololá	701	Sololá	1	Sololá	9	Septiembre	2023-03-09T00:00:00	2024-11-08T05:00:00	8	Radiación solar	0
45017	7	Sololá	701	Sololá	1	Sololá	9	Septiembre	2023-03-09T00:00:00	2024-11-08T06:00:00	2	Temperatura media	14.4
45018	7	Sololá	701	Sololá	1	Sololá	9	Septiembre	2023-03-09T00:00:00	2024-11-08T06:00:00	4	Temperatura máxima	14.6
45019	7	Sololá	701	Sololá	1	Sololá	9	Septiembre	2023-03-09T00:00:00	2024-11-08T06:00:00	3	Temperatura mínima	14.4
45020	7	Sololá	701	Sololá	1	Sololá	9	Septiembre	2023-03-09T00:00:00	2024-11-08T06:00:00	5	Humedad	88
45021	7	Sololá	701	Sololá	1	Sololá	9	Septiembre	2023-03-09T00:00:00	2024-11-08T06:00:00	6	Velocidad del viento	0
45022	7	Sololá	701	Sololá	1	Sololá	9	Septiembre	2023-03-09T00:00:00	2024-11-08T06:00:00	7	Dirección del viento	0
45023	7	Sololá	701	Sololá	1	Sololá	9	Septiembre	2023-03-09T00:00:00	2024-11-08T06:00:00	1	Precipitación	0
45024	7	Sololá	701	Sololá	1	Sololá	9	Septiembre	2023-03-09T00:00:00	2024-11-08T06:00:00	8	Radiación solar	0
45025	7	Sololá	701	Sololá	1	Sololá	9	Septiembre	2023-03-09T00:00:00	2024-11-08T07:00:00	2	Temperatura media	14.7
45026	7	Sololá	701	Sololá	1	Sololá	9	Septiembre	2023-03-09T00:00:00	2024-11-08T07:00:00	4	Temperatura máxima	14.7
45027	7	Sololá	701	Sololá	1	Sololá	9	Septiembre	2023-03-09T00:00:00	2024-11-08T07:00:00	3	Temperatura mínima	14.3
45028	7	Sololá	701	Sololá	1	Sololá	9	Septiembre	2023-03-09T00:00:00	2024-11-08T07:00:00	5	Humedad	88
45029	7	Sololá	701	Sololá	1	Sololá	9	Septiembre	2023-03-09T00:00:00	2024-11-08T07:00:00	6	Velocidad del viento	0
45030	7	Sololá	701	Sololá	1	Sololá	9	Septiembre	2023-03-09T00:00:00	2024-11-08T07:00:00	7	Dirección del viento	0
45031	7	Sololá	701	Sololá	1	Sololá	9	Septiembre	2023-03-09T00:00:00	2024-11-08T07:00:00	1	Precipitación	0
45032	7	Sololá	701	Sololá	1	Sololá	9	Septiembre	2023-03-09T00:00:00	2024-11-08T07:00:00	8	Radiación solar	19
45033	7	Sololá	701	Sololá	1	Sololá	9	Septiembre	2023-03-09T00:00:00	2024-11-08T08:00:00	2	Temperatura media	18.6
45034	7	Sololá	701	Sololá	1	Sololá	9	Septiembre	2023-03-09T00:00:00	2024-11-08T08:00:00	4	Temperatura máxima	18.6
45035	7	Sololá	701	Sololá	1	Sololá	9	Septiembre	2023-03-09T00:00:00	2024-11-08T08:00:00	3	Temperatura mínima	14.7
45036	7	Sololá	701	Sololá	1	Sololá	9	Septiembre	2023-03-09T00:00:00	2024-11-08T08:00:00	5	Humedad	81
45037	7	Sololá	701	Sololá	1	Sololá	9	Septiembre	2023-03-09T00:00:00	2024-11-08T08:00:00	6	Velocidad del viento	0
45038	7	Sololá	701	Sololá	1	Sololá	9	Septiembre	2023-03-09T00:00:00	2024-11-08T08:00:00	7	Dirección del viento	0
45039	7	Sololá	701	Sololá	1	Sololá	9	Septiembre	2023-03-09T00:00:00	2024-11-08T08:00:00	1	Precipitación	0
45040	7	Sololá	701	Sololá	1	Sololá	9	Septiembre	2023-03-09T00:00:00	2024-11-08T08:00:00	8	Radiación solar	224
45041	7	Sololá	701	Sololá	1	Sololá	9	Septiembre	2023-03-09T00:00:00	2024-11-08T09:00:00	2	Temperatura media	22.4
45042	7	Sololá	701	Sololá	1	Sololá	9	Septiembre	2023-03-09T00:00:00	2024-11-08T09:00:00	4	Temperatura máxima	22.4
45043	7	Sololá	701	Sololá	1	Sololá	9	Septiembre	2023-03-09T00:00:00	2024-11-08T09:00:00	3	Temperatura mínima	18.6
45044	7	Sololá	701	Sololá	1	Sololá	9	Septiembre	2023-03-09T00:00:00	2024-11-08T09:00:00	5	Humedad	68
45045	7	Sololá	701	Sololá	1	Sololá	9	Septiembre	2023-03-09T00:00:00	2024-11-08T09:00:00	6	Velocidad del viento	0
45046	7	Sololá	701	Sololá	1	Sololá	9	Septiembre	2023-03-09T00:00:00	2024-11-08T09:00:00	7	Dirección del viento	0
45047	7	Sololá	701	Sololá	1	Sololá	9	Septiembre	2023-03-09T00:00:00	2024-11-08T09:00:00	1	Precipitación	0
45048	7	Sololá	701	Sololá	1	Sololá	9	Septiembre	2023-03-09T00:00:00	2024-11-08T09:00:00	8	Radiación solar	610
45049	7	Sololá	701	Sololá	1	Sololá	9	Septiembre	2023-03-09T00:00:00	2024-11-08T10:00:00	2	Temperatura media	22.6
45050	7	Sololá	701	Sololá	1	Sololá	9	Septiembre	2023-03-09T00:00:00	2024-11-08T10:00:00	4	Temperatura máxima	22.8
45051	7	Sololá	701	Sololá	1	Sololá	9	Septiembre	2023-03-09T00:00:00	2024-11-08T10:00:00	3	Temperatura mínima	22.3
45052	7	Sololá	701	Sololá	1	Sololá	9	Septiembre	2023-03-09T00:00:00	2024-11-08T10:00:00	5	Humedad	67
45053	7	Sololá	701	Sololá	1	Sololá	9	Septiembre	2023-03-09T00:00:00	2024-11-08T10:00:00	6	Velocidad del viento	0
45054	7	Sololá	701	Sololá	1	Sololá	9	Septiembre	2023-03-09T00:00:00	2024-11-08T10:00:00	7	Dirección del viento	0
45055	7	Sololá	701	Sololá	1	Sololá	9	Septiembre	2023-03-09T00:00:00	2024-11-08T10:00:00	1	Precipitación	0
45056	7	Sololá	701	Sololá	1	Sololá	9	Septiembre	2023-03-09T00:00:00	2024-11-08T10:00:00	8	Radiación solar	721
45057	7	Sololá	701	Sololá	1	Sololá	9	Septiembre	2023-03-09T00:00:00	2024-11-08T11:00:00	2	Temperatura media	21.9
45058	7	Sololá	701	Sololá	1	Sololá	9	Septiembre	2023-03-09T00:00:00	2024-11-08T11:00:00	4	Temperatura máxima	22.8
45059	7	Sololá	701	Sololá	1	Sololá	9	Septiembre	2023-03-09T00:00:00	2024-11-08T11:00:00	3	Temperatura mínima	21.4
45060	7	Sololá	701	Sololá	1	Sololá	9	Septiembre	2023-03-09T00:00:00	2024-11-08T11:00:00	5	Humedad	69
45061	7	Sololá	701	Sololá	1	Sololá	9	Septiembre	2023-03-09T00:00:00	2024-11-08T11:00:00	6	Velocidad del viento	0
45062	7	Sololá	701	Sololá	1	Sololá	9	Septiembre	2023-03-09T00:00:00	2024-11-08T11:00:00	7	Dirección del viento	0
45063	7	Sololá	701	Sololá	1	Sololá	9	Septiembre	2023-03-09T00:00:00	2024-11-08T11:00:00	1	Precipitación	0
45064	7	Sololá	701	Sololá	1	Sololá	9	Septiembre	2023-03-09T00:00:00	2024-11-08T11:00:00	8	Radiación solar	218
45065	7	Sololá	701	Sololá	1	Sololá	9	Septiembre	2023-03-09T00:00:00	2024-11-08T12:00:00	2	Temperatura media	21.4
45066	7	Sololá	701	Sololá	1	Sololá	9	Septiembre	2023-03-09T00:00:00	2024-11-08T12:00:00	4	Temperatura máxima	22
45067	7	Sololá	701	Sololá	1	Sololá	9	Septiembre	2023-03-09T00:00:00	2024-11-08T12:00:00	3	Temperatura mínima	21.1
45068	7	Sololá	701	Sololá	1	Sololá	9	Septiembre	2023-03-09T00:00:00	2024-11-08T12:00:00	5	Humedad	71
45069	7	Sololá	701	Sololá	1	Sololá	9	Septiembre	2023-03-09T00:00:00	2024-11-08T12:00:00	6	Velocidad del viento	0
45070	7	Sololá	701	Sololá	1	Sololá	9	Septiembre	2023-03-09T00:00:00	2024-11-08T12:00:00	7	Dirección del viento	0
45071	7	Sololá	701	Sololá	1	Sololá	9	Septiembre	2023-03-09T00:00:00	2024-11-08T12:00:00	1	Precipitación	0
45072	7	Sololá	701	Sololá	1	Sololá	9	Septiembre	2023-03-09T00:00:00	2024-11-08T12:00:00	8	Radiación solar	196
45073	7	Sololá	701	Sololá	1	Sololá	9	Septiembre	2023-03-09T00:00:00	2024-11-08T13:00:00	2	Temperatura media	20.9
45074	7	Sololá	701	Sololá	1	Sololá	9	Septiembre	2023-03-09T00:00:00	2024-11-08T13:00:00	4	Temperatura máxima	21.7
45075	7	Sololá	701	Sololá	1	Sololá	9	Septiembre	2023-03-09T00:00:00	2024-11-08T13:00:00	3	Temperatura mínima	20.9
45076	7	Sololá	701	Sololá	1	Sololá	9	Septiembre	2023-03-09T00:00:00	2024-11-08T13:00:00	5	Humedad	83
45077	7	Sololá	701	Sololá	1	Sololá	9	Septiembre	2023-03-09T00:00:00	2024-11-08T13:00:00	6	Velocidad del viento	0
45078	7	Sololá	701	Sololá	1	Sololá	9	Septiembre	2023-03-09T00:00:00	2024-11-08T13:00:00	7	Dirección del viento	0
45079	7	Sololá	701	Sololá	1	Sololá	9	Septiembre	2023-03-09T00:00:00	2024-11-08T13:00:00	1	Precipitación	0
45080	7	Sololá	701	Sololá	1	Sololá	9	Septiembre	2023-03-09T00:00:00	2024-11-08T13:00:00	8	Radiación solar	173
45081	7	Sololá	701	Sololá	1	Sololá	9	Septiembre	2023-03-09T00:00:00	2024-11-08T14:00:00	2	Temperatura media	20.3
45082	7	Sololá	701	Sololá	1	Sololá	9	Septiembre	2023-03-09T00:00:00	2024-11-08T14:00:00	4	Temperatura máxima	20.9
45083	7	Sololá	701	Sololá	1	Sololá	9	Septiembre	2023-03-09T00:00:00	2024-11-08T14:00:00	3	Temperatura mínima	19.9
45084	7	Sololá	701	Sololá	1	Sololá	9	Septiembre	2023-03-09T00:00:00	2024-11-08T14:00:00	5	Humedad	85
45085	7	Sololá	701	Sololá	1	Sololá	9	Septiembre	2023-03-09T00:00:00	2024-11-08T14:00:00	6	Velocidad del viento	0
45086	7	Sololá	701	Sololá	1	Sololá	9	Septiembre	2023-03-09T00:00:00	2024-11-08T14:00:00	7	Dirección del viento	0
45087	7	Sololá	701	Sololá	1	Sololá	9	Septiembre	2023-03-09T00:00:00	2024-11-08T14:00:00	1	Precipitación	0
45088	7	Sololá	701	Sololá	1	Sololá	9	Septiembre	2023-03-09T00:00:00	2024-11-08T14:00:00	8	Radiación solar	95
45089	7	Sololá	701	Sololá	1	Sololá	9	Septiembre	2023-03-09T00:00:00	2024-11-08T15:00:00	2	Temperatura media	19.8
45090	7	Sololá	701	Sololá	1	Sololá	9	Septiembre	2023-03-09T00:00:00	2024-11-08T15:00:00	4	Temperatura máxima	20.3
45091	7	Sololá	701	Sololá	1	Sololá	9	Septiembre	2023-03-09T00:00:00	2024-11-08T15:00:00	3	Temperatura mínima	19.4
45092	7	Sololá	701	Sololá	1	Sololá	9	Septiembre	2023-03-09T00:00:00	2024-11-08T15:00:00	5	Humedad	88
45093	7	Sololá	701	Sololá	1	Sololá	9	Septiembre	2023-03-09T00:00:00	2024-11-08T15:00:00	6	Velocidad del viento	0
45094	7	Sololá	701	Sololá	1	Sololá	9	Septiembre	2023-03-09T00:00:00	2024-11-08T15:00:00	7	Dirección del viento	0
45095	7	Sololá	701	Sololá	1	Sololá	9	Septiembre	2023-03-09T00:00:00	2024-11-08T15:00:00	1	Precipitación	0
45096	7	Sololá	701	Sololá	1	Sololá	9	Septiembre	2023-03-09T00:00:00	2024-11-08T15:00:00	8	Radiación solar	120
45097	7	Sololá	701	Sololá	1	Sololá	9	Septiembre	2023-03-09T00:00:00	2024-11-08T16:00:00	2	Temperatura media	19.1
45098	7	Sololá	701	Sololá	1	Sololá	9	Septiembre	2023-03-09T00:00:00	2024-11-08T16:00:00	4	Temperatura máxima	20.6
45099	7	Sololá	701	Sololá	1	Sololá	9	Septiembre	2023-03-09T00:00:00	2024-11-08T16:00:00	3	Temperatura mínima	19.1
45100	7	Sololá	701	Sololá	1	Sololá	9	Septiembre	2023-03-09T00:00:00	2024-11-08T16:00:00	5	Humedad	88
45101	7	Sololá	701	Sololá	1	Sololá	9	Septiembre	2023-03-09T00:00:00	2024-11-08T16:00:00	6	Velocidad del viento	0
45102	7	Sololá	701	Sololá	1	Sololá	9	Septiembre	2023-03-09T00:00:00	2024-11-08T16:00:00	7	Dirección del viento	0
45103	7	Sololá	701	Sololá	1	Sololá	9	Septiembre	2023-03-09T00:00:00	2024-11-08T16:00:00	1	Precipitación	0
45104	7	Sololá	701	Sololá	1	Sololá	9	Septiembre	2023-03-09T00:00:00	2024-11-08T16:00:00	8	Radiación solar	77
45105	7	Sololá	701	Sololá	1	Sololá	9	Septiembre	2023-03-09T00:00:00	2024-11-08T17:00:00	2	Temperatura media	16.8
45106	7	Sololá	701	Sololá	1	Sololá	9	Septiembre	2023-03-09T00:00:00	2024-11-08T17:00:00	4	Temperatura máxima	19.1
45107	7	Sololá	701	Sololá	1	Sololá	9	Septiembre	2023-03-09T00:00:00	2024-11-08T17:00:00	3	Temperatura mínima	16.8
45108	7	Sololá	701	Sololá	1	Sololá	9	Septiembre	2023-03-09T00:00:00	2024-11-08T17:00:00	5	Humedad	90
45109	7	Sololá	701	Sololá	1	Sololá	9	Septiembre	2023-03-09T00:00:00	2024-11-08T17:00:00	6	Velocidad del viento	0
45110	7	Sololá	701	Sololá	1	Sololá	9	Septiembre	2023-03-09T00:00:00	2024-11-08T17:00:00	7	Dirección del viento	0
45111	7	Sololá	701	Sololá	1	Sololá	9	Septiembre	2023-03-09T00:00:00	2024-11-08T17:00:00	1	Precipitación	8.6
45112	7	Sololá	701	Sololá	1	Sololá	9	Septiembre	2023-03-09T00:00:00	2024-11-08T17:00:00	8	Radiación solar	31
45113	7	Sololá	701	Sololá	1	Sololá	9	Septiembre	2023-03-09T00:00:00	2024-11-08T18:00:00	2	Temperatura media	16.2
45114	7	Sololá	701	Sololá	1	Sololá	9	Septiembre	2023-03-09T00:00:00	2024-11-08T18:00:00	4	Temperatura máxima	16.8
45115	7	Sololá	701	Sololá	1	Sololá	9	Septiembre	2023-03-09T00:00:00	2024-11-08T18:00:00	3	Temperatura mínima	16.2
45116	7	Sololá	701	Sololá	1	Sololá	9	Septiembre	2023-03-09T00:00:00	2024-11-08T18:00:00	5	Humedad	95
45117	7	Sololá	701	Sololá	1	Sololá	9	Septiembre	2023-03-09T00:00:00	2024-11-08T18:00:00	6	Velocidad del viento	0
45118	7	Sololá	701	Sololá	1	Sololá	9	Septiembre	2023-03-09T00:00:00	2024-11-08T18:00:00	7	Dirección del viento	0
45119	7	Sololá	701	Sololá	1	Sololá	9	Septiembre	2023-03-09T00:00:00	2024-11-08T18:00:00	1	Precipitación	0.4
45120	7	Sololá	701	Sololá	1	Sololá	9	Septiembre	2023-03-09T00:00:00	2024-11-08T18:00:00	8	Radiación solar	19
45121	7	Sololá	701	Sololá	1	Sololá	9	Septiembre	2023-03-09T00:00:00	2024-11-08T19:00:00	2	Temperatura media	15.8
45122	7	Sololá	701	Sololá	1	Sololá	9	Septiembre	2023-03-09T00:00:00	2024-11-08T19:00:00	4	Temperatura máxima	16.2
45123	7	Sololá	701	Sololá	1	Sololá	9	Septiembre	2023-03-09T00:00:00	2024-11-08T19:00:00	3	Temperatura mínima	15.8
45124	7	Sololá	701	Sololá	1	Sololá	9	Septiembre	2023-03-09T00:00:00	2024-11-08T19:00:00	5	Humedad	95
45125	7	Sololá	701	Sololá	1	Sololá	9	Septiembre	2023-03-09T00:00:00	2024-11-08T19:00:00	6	Velocidad del viento	0
45126	7	Sololá	701	Sololá	1	Sololá	9	Septiembre	2023-03-09T00:00:00	2024-11-08T19:00:00	7	Dirección del viento	0
45127	7	Sololá	701	Sololá	1	Sololá	9	Septiembre	2023-03-09T00:00:00	2024-11-08T19:00:00	1	Precipitación	0.8
45128	7	Sololá	701	Sololá	1	Sololá	9	Septiembre	2023-03-09T00:00:00	2024-11-08T19:00:00	8	Radiación solar	0
45129	7	Sololá	701	Sololá	1	Sololá	9	Septiembre	2023-03-09T00:00:00	2024-11-08T20:00:00	2	Temperatura media	15.4
45130	7	Sololá	701	Sololá	1	Sololá	9	Septiembre	2023-03-09T00:00:00	2024-11-08T20:00:00	4	Temperatura máxima	15.8
45131	7	Sololá	701	Sololá	1	Sololá	9	Septiembre	2023-03-09T00:00:00	2024-11-08T20:00:00	3	Temperatura mínima	15.4
45132	7	Sololá	701	Sololá	1	Sololá	9	Septiembre	2023-03-09T00:00:00	2024-11-08T20:00:00	5	Humedad	95
45133	7	Sololá	701	Sololá	1	Sololá	9	Septiembre	2023-03-09T00:00:00	2024-11-08T20:00:00	6	Velocidad del viento	0
45134	7	Sololá	701	Sololá	1	Sololá	9	Septiembre	2023-03-09T00:00:00	2024-11-08T20:00:00	7	Dirección del viento	0
45135	7	Sololá	701	Sololá	1	Sololá	9	Septiembre	2023-03-09T00:00:00	2024-11-08T20:00:00	1	Precipitación	0.2
45136	7	Sololá	701	Sololá	1	Sololá	9	Septiembre	2023-03-09T00:00:00	2024-11-08T20:00:00	8	Radiación solar	0
45137	7	Sololá	701	Sololá	1	Sololá	9	Septiembre	2023-03-09T00:00:00	2024-11-08T21:00:00	2	Temperatura media	15.1
45138	7	Sololá	701	Sololá	1	Sololá	9	Septiembre	2023-03-09T00:00:00	2024-11-08T21:00:00	4	Temperatura máxima	15.4
45139	7	Sololá	701	Sololá	1	Sololá	9	Septiembre	2023-03-09T00:00:00	2024-11-08T21:00:00	3	Temperatura mínima	15.1
45140	7	Sololá	701	Sololá	1	Sololá	9	Septiembre	2023-03-09T00:00:00	2024-11-08T21:00:00	5	Humedad	95
45141	7	Sololá	701	Sololá	1	Sololá	9	Septiembre	2023-03-09T00:00:00	2024-11-08T21:00:00	6	Velocidad del viento	0
45142	7	Sololá	701	Sololá	1	Sololá	9	Septiembre	2023-03-09T00:00:00	2024-11-08T21:00:00	7	Dirección del viento	0
45143	7	Sololá	701	Sololá	1	Sololá	9	Septiembre	2023-03-09T00:00:00	2024-11-08T21:00:00	1	Precipitación	0.8
45144	7	Sololá	701	Sololá	1	Sololá	9	Septiembre	2023-03-09T00:00:00	2024-11-08T21:00:00	8	Radiación solar	0
45145	7	Sololá	701	Sololá	1	Sololá	9	Septiembre	2023-03-09T00:00:00	2024-11-08T22:00:00	2	Temperatura media	14.5
45146	7	Sololá	701	Sololá	1	Sololá	9	Septiembre	2023-03-09T00:00:00	2024-11-08T22:00:00	4	Temperatura máxima	15.1
45147	7	Sololá	701	Sololá	1	Sololá	9	Septiembre	2023-03-09T00:00:00	2024-11-08T22:00:00	3	Temperatura mínima	14.4
45148	7	Sololá	701	Sololá	1	Sololá	9	Septiembre	2023-03-09T00:00:00	2024-11-08T22:00:00	5	Humedad	95
45149	7	Sololá	701	Sololá	1	Sololá	9	Septiembre	2023-03-09T00:00:00	2024-11-08T22:00:00	6	Velocidad del viento	0
45150	7	Sololá	701	Sololá	1	Sololá	9	Septiembre	2023-03-09T00:00:00	2024-11-08T22:00:00	7	Dirección del viento	0
45151	7	Sololá	701	Sololá	1	Sololá	9	Septiembre	2023-03-09T00:00:00	2024-11-08T22:00:00	1	Precipitación	5
45152	7	Sololá	701	Sololá	1	Sololá	9	Septiembre	2023-03-09T00:00:00	2024-11-08T22:00:00	8	Radiación solar	0
45153	7	Sololá	701	Sololá	1	Sololá	9	Septiembre	2023-03-09T00:00:00	2024-11-08T23:00:00	2	Temperatura media	14.2
45154	7	Sololá	701	Sololá	1	Sololá	9	Septiembre	2023-03-09T00:00:00	2024-11-08T23:00:00	4	Temperatura máxima	14.5
45155	7	Sololá	701	Sololá	1	Sololá	9	Septiembre	2023-03-09T00:00:00	2024-11-08T23:00:00	3	Temperatura mínima	14.1
45156	7	Sololá	701	Sololá	1	Sololá	9	Septiembre	2023-03-09T00:00:00	2024-11-08T23:00:00	5	Humedad	96
45157	7	Sololá	701	Sololá	1	Sololá	9	Septiembre	2023-03-09T00:00:00	2024-11-08T23:00:00	6	Velocidad del viento	0
45158	7	Sololá	701	Sololá	1	Sololá	9	Septiembre	2023-03-09T00:00:00	2024-11-08T23:00:00	7	Dirección del viento	0
45159	7	Sololá	701	Sololá	1	Sololá	9	Septiembre	2023-03-09T00:00:00	2024-11-08T23:00:00	1	Precipitación	2.4
45160	7	Sololá	701	Sololá	1	Sololá	9	Septiembre	2023-03-09T00:00:00	2024-11-08T23:00:00	8	Radiación solar	0
45161	7	Sololá	701	Sololá	1	Sololá	9	Septiembre	2023-04-09T00:00:00	2024-11-08T00:00:00	2	Temperatura media	13.9
45162	7	Sololá	701	Sololá	1	Sololá	9	Septiembre	2023-04-09T00:00:00	2024-11-08T00:00:00	4	Temperatura máxima	14.2
45163	7	Sololá	701	Sololá	1	Sololá	9	Septiembre	2023-04-09T00:00:00	2024-11-08T00:00:00	3	Temperatura mínima	13.9
45164	7	Sololá	701	Sololá	1	Sololá	9	Septiembre	2023-04-09T00:00:00	2024-11-08T00:00:00	5	Humedad	96
45165	7	Sololá	701	Sololá	1	Sololá	9	Septiembre	2023-04-09T00:00:00	2024-11-08T00:00:00	6	Velocidad del viento	0
45166	7	Sololá	701	Sololá	1	Sololá	9	Septiembre	2023-04-09T00:00:00	2024-11-08T00:00:00	7	Dirección del viento	0
45167	7	Sololá	701	Sololá	1	Sololá	9	Septiembre	2023-04-09T00:00:00	2024-11-08T00:00:00	1	Precipitación	0.4
45168	7	Sololá	701	Sololá	1	Sololá	9	Septiembre	2023-04-09T00:00:00	2024-11-08T00:00:00	8	Radiación solar	0
45169	7	Sololá	701	Sololá	1	Sololá	9	Septiembre	2023-04-09T00:00:00	2024-11-08T01:00:00	2	Temperatura media	13.8
45170	7	Sololá	701	Sololá	1	Sololá	9	Septiembre	2023-04-09T00:00:00	2024-11-08T01:00:00	4	Temperatura máxima	14
45171	7	Sololá	701	Sololá	1	Sololá	9	Septiembre	2023-04-09T00:00:00	2024-11-08T01:00:00	3	Temperatura mínima	13.8
45172	7	Sololá	701	Sololá	1	Sololá	9	Septiembre	2023-04-09T00:00:00	2024-11-08T01:00:00	5	Humedad	96
45173	7	Sololá	701	Sololá	1	Sololá	9	Septiembre	2023-04-09T00:00:00	2024-11-08T01:00:00	6	Velocidad del viento	0
45174	7	Sololá	701	Sololá	1	Sololá	9	Septiembre	2023-04-09T00:00:00	2024-11-08T01:00:00	7	Dirección del viento	0
45175	7	Sololá	701	Sololá	1	Sololá	9	Septiembre	2023-04-09T00:00:00	2024-11-08T01:00:00	1	Precipitación	0
45176	7	Sololá	701	Sololá	1	Sololá	9	Septiembre	2023-04-09T00:00:00	2024-11-08T01:00:00	8	Radiación solar	0
45177	7	Sololá	701	Sololá	1	Sololá	9	Septiembre	2023-04-09T00:00:00	2024-11-08T02:00:00	2	Temperatura media	13.2
45178	7	Sololá	701	Sololá	1	Sololá	9	Septiembre	2023-04-09T00:00:00	2024-11-08T02:00:00	4	Temperatura máxima	13.8
45179	7	Sololá	701	Sololá	1	Sololá	9	Septiembre	2023-04-09T00:00:00	2024-11-08T02:00:00	3	Temperatura mínima	13.2
45180	7	Sololá	701	Sololá	1	Sololá	9	Septiembre	2023-04-09T00:00:00	2024-11-08T02:00:00	5	Humedad	96
45181	7	Sololá	701	Sololá	1	Sololá	9	Septiembre	2023-04-09T00:00:00	2024-11-08T02:00:00	6	Velocidad del viento	0
45182	7	Sololá	701	Sololá	1	Sololá	9	Septiembre	2023-04-09T00:00:00	2024-11-08T02:00:00	7	Dirección del viento	0
45183	7	Sololá	701	Sololá	1	Sololá	9	Septiembre	2023-04-09T00:00:00	2024-11-08T02:00:00	1	Precipitación	0
45184	7	Sololá	701	Sololá	1	Sololá	9	Septiembre	2023-04-09T00:00:00	2024-11-08T02:00:00	8	Radiación solar	0
45185	7	Sololá	701	Sololá	1	Sololá	9	Septiembre	2023-04-09T00:00:00	2024-11-08T03:00:00	2	Temperatura media	12.8
45186	7	Sololá	701	Sololá	1	Sololá	9	Septiembre	2023-04-09T00:00:00	2024-11-08T03:00:00	4	Temperatura máxima	13.2
45187	7	Sololá	701	Sololá	1	Sololá	9	Septiembre	2023-04-09T00:00:00	2024-11-08T03:00:00	3	Temperatura mínima	12.7
45188	7	Sololá	701	Sololá	1	Sololá	9	Septiembre	2023-04-09T00:00:00	2024-11-08T03:00:00	5	Humedad	96
45189	7	Sololá	701	Sololá	1	Sololá	9	Septiembre	2023-04-09T00:00:00	2024-11-08T03:00:00	6	Velocidad del viento	0
45190	7	Sololá	701	Sololá	1	Sololá	9	Septiembre	2023-04-09T00:00:00	2024-11-08T03:00:00	7	Dirección del viento	0
45191	7	Sololá	701	Sololá	1	Sololá	9	Septiembre	2023-04-09T00:00:00	2024-11-08T03:00:00	1	Precipitación	0.2
45192	7	Sololá	701	Sololá	1	Sololá	9	Septiembre	2023-04-09T00:00:00	2024-11-08T03:00:00	8	Radiación solar	0
45193	7	Sololá	701	Sololá	1	Sololá	9	Septiembre	2023-04-09T00:00:00	2024-11-08T04:00:00	2	Temperatura media	12.2
45194	7	Sololá	701	Sololá	1	Sololá	9	Septiembre	2023-04-09T00:00:00	2024-11-08T04:00:00	4	Temperatura máxima	12.8
45195	7	Sololá	701	Sololá	1	Sololá	9	Septiembre	2023-04-09T00:00:00	2024-11-08T04:00:00	3	Temperatura mínima	12.2
45196	7	Sololá	701	Sololá	1	Sololá	9	Septiembre	2023-04-09T00:00:00	2024-11-08T04:00:00	5	Humedad	96
45197	7	Sololá	701	Sololá	1	Sololá	9	Septiembre	2023-04-09T00:00:00	2024-11-08T04:00:00	6	Velocidad del viento	0
45198	7	Sololá	701	Sololá	1	Sololá	9	Septiembre	2023-04-09T00:00:00	2024-11-08T04:00:00	7	Dirección del viento	0
45199	7	Sololá	701	Sololá	1	Sololá	9	Septiembre	2023-04-09T00:00:00	2024-11-08T04:00:00	1	Precipitación	0
45200	7	Sololá	701	Sololá	1	Sololá	9	Septiembre	2023-04-09T00:00:00	2024-11-08T04:00:00	8	Radiación solar	0
45201	7	Sololá	701	Sololá	1	Sololá	9	Septiembre	2023-04-09T00:00:00	2024-11-08T05:00:00	2	Temperatura media	11.8
45202	7	Sololá	701	Sololá	1	Sololá	9	Septiembre	2023-04-09T00:00:00	2024-11-08T05:00:00	4	Temperatura máxima	12.2
45203	7	Sololá	701	Sololá	1	Sololá	9	Septiembre	2023-04-09T00:00:00	2024-11-08T05:00:00	3	Temperatura mínima	11.8
45204	7	Sololá	701	Sololá	1	Sololá	9	Septiembre	2023-04-09T00:00:00	2024-11-08T05:00:00	5	Humedad	95
45205	7	Sololá	701	Sololá	1	Sololá	9	Septiembre	2023-04-09T00:00:00	2024-11-08T05:00:00	6	Velocidad del viento	0
45206	7	Sololá	701	Sololá	1	Sololá	9	Septiembre	2023-04-09T00:00:00	2024-11-08T05:00:00	7	Dirección del viento	0
45207	7	Sololá	701	Sololá	1	Sololá	9	Septiembre	2023-04-09T00:00:00	2024-11-08T05:00:00	1	Precipitación	0
45208	7	Sololá	701	Sololá	1	Sololá	9	Septiembre	2023-04-09T00:00:00	2024-11-08T05:00:00	8	Radiación solar	0
45209	7	Sololá	701	Sololá	1	Sololá	9	Septiembre	2023-04-09T00:00:00	2024-11-08T06:00:00	2	Temperatura media	11.7
45210	7	Sololá	701	Sololá	1	Sololá	9	Septiembre	2023-04-09T00:00:00	2024-11-08T06:00:00	4	Temperatura máxima	11.8
45211	7	Sololá	701	Sololá	1	Sololá	9	Septiembre	2023-04-09T00:00:00	2024-11-08T06:00:00	3	Temperatura mínima	11.5
45212	7	Sololá	701	Sololá	1	Sololá	9	Septiembre	2023-04-09T00:00:00	2024-11-08T06:00:00	5	Humedad	95
45213	7	Sololá	701	Sololá	1	Sololá	9	Septiembre	2023-04-09T00:00:00	2024-11-08T06:00:00	6	Velocidad del viento	0
45214	7	Sololá	701	Sololá	1	Sololá	9	Septiembre	2023-04-09T00:00:00	2024-11-08T06:00:00	7	Dirección del viento	0
45215	7	Sololá	701	Sololá	1	Sololá	9	Septiembre	2023-04-09T00:00:00	2024-11-08T06:00:00	1	Precipitación	0
45216	7	Sololá	701	Sololá	1	Sololá	9	Septiembre	2023-04-09T00:00:00	2024-11-08T06:00:00	8	Radiación solar	0
45217	7	Sololá	701	Sololá	1	Sololá	9	Septiembre	2023-04-09T00:00:00	2024-11-08T07:00:00	2	Temperatura media	12.2
45218	7	Sololá	701	Sololá	1	Sololá	9	Septiembre	2023-04-09T00:00:00	2024-11-08T07:00:00	4	Temperatura máxima	12.2
45219	7	Sololá	701	Sololá	1	Sololá	9	Septiembre	2023-04-09T00:00:00	2024-11-08T07:00:00	3	Temperatura mínima	11.6
45220	7	Sololá	701	Sololá	1	Sololá	9	Septiembre	2023-04-09T00:00:00	2024-11-08T07:00:00	5	Humedad	97
45221	7	Sololá	701	Sololá	1	Sololá	9	Septiembre	2023-04-09T00:00:00	2024-11-08T07:00:00	6	Velocidad del viento	0
45222	7	Sololá	701	Sololá	1	Sololá	9	Septiembre	2023-04-09T00:00:00	2024-11-08T07:00:00	7	Dirección del viento	0
45223	7	Sololá	701	Sololá	1	Sololá	9	Septiembre	2023-04-09T00:00:00	2024-11-08T07:00:00	1	Precipitación	0
45224	7	Sololá	701	Sololá	1	Sololá	9	Septiembre	2023-04-09T00:00:00	2024-11-08T07:00:00	8	Radiación solar	24
45225	7	Sololá	701	Sololá	1	Sololá	9	Septiembre	2023-04-09T00:00:00	2024-11-08T08:00:00	2	Temperatura media	15.8
45226	7	Sololá	701	Sololá	1	Sololá	9	Septiembre	2023-04-09T00:00:00	2024-11-08T08:00:00	4	Temperatura máxima	15.8
45227	7	Sololá	701	Sololá	1	Sololá	9	Septiembre	2023-04-09T00:00:00	2024-11-08T08:00:00	3	Temperatura mínima	12.2
45228	7	Sololá	701	Sololá	1	Sololá	9	Septiembre	2023-04-09T00:00:00	2024-11-08T08:00:00	5	Humedad	95
45229	7	Sololá	701	Sololá	1	Sololá	9	Septiembre	2023-04-09T00:00:00	2024-11-08T08:00:00	6	Velocidad del viento	0
45230	7	Sololá	701	Sololá	1	Sololá	9	Septiembre	2023-04-09T00:00:00	2024-11-08T08:00:00	7	Dirección del viento	0
45231	7	Sololá	701	Sololá	1	Sololá	9	Septiembre	2023-04-09T00:00:00	2024-11-08T08:00:00	1	Precipitación	0
45232	7	Sololá	701	Sololá	1	Sololá	9	Septiembre	2023-04-09T00:00:00	2024-11-08T08:00:00	8	Radiación solar	258
45233	7	Sololá	701	Sololá	1	Sololá	9	Septiembre	2023-04-09T00:00:00	2024-11-08T09:00:00	2	Temperatura media	20.1
45234	7	Sololá	701	Sololá	1	Sololá	9	Septiembre	2023-04-09T00:00:00	2024-11-08T09:00:00	4	Temperatura máxima	20.1
45235	7	Sololá	701	Sololá	1	Sololá	9	Septiembre	2023-04-09T00:00:00	2024-11-08T09:00:00	3	Temperatura mínima	15.8
45236	7	Sololá	701	Sololá	1	Sololá	9	Septiembre	2023-04-09T00:00:00	2024-11-08T09:00:00	5	Humedad	77
45237	7	Sololá	701	Sololá	1	Sololá	9	Septiembre	2023-04-09T00:00:00	2024-11-08T09:00:00	6	Velocidad del viento	0
45238	7	Sololá	701	Sololá	1	Sololá	9	Septiembre	2023-04-09T00:00:00	2024-11-08T09:00:00	7	Dirección del viento	0
45239	7	Sololá	701	Sololá	1	Sololá	9	Septiembre	2023-04-09T00:00:00	2024-11-08T09:00:00	1	Precipitación	0
45240	7	Sololá	701	Sololá	1	Sololá	9	Septiembre	2023-04-09T00:00:00	2024-11-08T09:00:00	8	Radiación solar	609
45241	7	Sololá	701	Sololá	1	Sololá	9	Septiembre	2023-04-09T00:00:00	2024-11-08T10:00:00	2	Temperatura media	22.6
45242	7	Sololá	701	Sololá	1	Sololá	9	Septiembre	2023-04-09T00:00:00	2024-11-08T10:00:00	4	Temperatura máxima	22.6
45243	7	Sololá	701	Sololá	1	Sololá	9	Septiembre	2023-04-09T00:00:00	2024-11-08T10:00:00	3	Temperatura mínima	20.2
45244	7	Sololá	701	Sololá	1	Sololá	9	Septiembre	2023-04-09T00:00:00	2024-11-08T10:00:00	5	Humedad	64
45245	7	Sololá	701	Sololá	1	Sololá	9	Septiembre	2023-04-09T00:00:00	2024-11-08T10:00:00	6	Velocidad del viento	0
45246	7	Sololá	701	Sololá	1	Sololá	9	Septiembre	2023-04-09T00:00:00	2024-11-08T10:00:00	7	Dirección del viento	0
45247	7	Sololá	701	Sololá	1	Sololá	9	Septiembre	2023-04-09T00:00:00	2024-11-08T10:00:00	1	Precipitación	0
45248	7	Sololá	701	Sololá	1	Sololá	9	Septiembre	2023-04-09T00:00:00	2024-11-08T10:00:00	8	Radiación solar	702
45249	7	Sololá	701	Sololá	1	Sololá	9	Septiembre	2023-04-09T00:00:00	2024-11-08T11:00:00	2	Temperatura media	23.3
45250	7	Sololá	701	Sololá	1	Sololá	9	Septiembre	2023-04-09T00:00:00	2024-11-08T11:00:00	4	Temperatura máxima	23.5
45251	7	Sololá	701	Sololá	1	Sololá	9	Septiembre	2023-04-09T00:00:00	2024-11-08T11:00:00	3	Temperatura mínima	22.6
45252	7	Sololá	701	Sololá	1	Sololá	9	Septiembre	2023-04-09T00:00:00	2024-11-08T11:00:00	5	Humedad	59
45253	7	Sololá	701	Sololá	1	Sololá	9	Septiembre	2023-04-09T00:00:00	2024-11-08T11:00:00	6	Velocidad del viento	0
45254	7	Sololá	701	Sololá	1	Sololá	9	Septiembre	2023-04-09T00:00:00	2024-11-08T11:00:00	7	Dirección del viento	0
45255	7	Sololá	701	Sololá	1	Sololá	9	Septiembre	2023-04-09T00:00:00	2024-11-08T11:00:00	1	Precipitación	0
45256	7	Sololá	701	Sololá	1	Sololá	9	Septiembre	2023-04-09T00:00:00	2024-11-08T11:00:00	8	Radiación solar	592
45257	7	Sololá	701	Sololá	1	Sololá	9	Septiembre	2023-04-09T00:00:00	2024-11-08T12:00:00	2	Temperatura media	23.1
45258	7	Sololá	701	Sololá	1	Sololá	9	Septiembre	2023-04-09T00:00:00	2024-11-08T12:00:00	4	Temperatura máxima	23.4
45259	7	Sololá	701	Sololá	1	Sololá	9	Septiembre	2023-04-09T00:00:00	2024-11-08T12:00:00	3	Temperatura mínima	22.9
45260	7	Sololá	701	Sololá	1	Sololá	9	Septiembre	2023-04-09T00:00:00	2024-11-08T12:00:00	5	Humedad	61
45261	7	Sololá	701	Sololá	1	Sololá	9	Septiembre	2023-04-09T00:00:00	2024-11-08T12:00:00	6	Velocidad del viento	0
45262	7	Sololá	701	Sololá	1	Sololá	9	Septiembre	2023-04-09T00:00:00	2024-11-08T12:00:00	7	Dirección del viento	0
45263	7	Sololá	701	Sololá	1	Sololá	9	Septiembre	2023-04-09T00:00:00	2024-11-08T12:00:00	1	Precipitación	0
45264	7	Sololá	701	Sololá	1	Sololá	9	Septiembre	2023-04-09T00:00:00	2024-11-08T12:00:00	8	Radiación solar	356
45265	7	Sololá	701	Sololá	1	Sololá	9	Septiembre	2023-04-09T00:00:00	2024-11-08T13:00:00	2	Temperatura media	21.7
45266	7	Sololá	701	Sololá	1	Sololá	9	Septiembre	2023-04-09T00:00:00	2024-11-08T13:00:00	4	Temperatura máxima	23.2
45267	7	Sololá	701	Sololá	1	Sololá	9	Septiembre	2023-04-09T00:00:00	2024-11-08T13:00:00	3	Temperatura mínima	21.6
45268	7	Sololá	701	Sololá	1	Sololá	9	Septiembre	2023-04-09T00:00:00	2024-11-08T13:00:00	5	Humedad	81
45269	7	Sololá	701	Sololá	1	Sololá	9	Septiembre	2023-04-09T00:00:00	2024-11-08T13:00:00	6	Velocidad del viento	0
45270	7	Sololá	701	Sololá	1	Sololá	9	Septiembre	2023-04-09T00:00:00	2024-11-08T13:00:00	7	Dirección del viento	0
45271	7	Sololá	701	Sololá	1	Sololá	9	Septiembre	2023-04-09T00:00:00	2024-11-08T13:00:00	1	Precipitación	0
45272	7	Sololá	701	Sololá	1	Sololá	9	Septiembre	2023-04-09T00:00:00	2024-11-08T13:00:00	8	Radiación solar	254
45273	7	Sololá	701	Sololá	1	Sololá	9	Septiembre	2023-04-09T00:00:00	2024-11-08T14:00:00	2	Temperatura media	18.8
45274	7	Sololá	701	Sololá	1	Sololá	9	Septiembre	2023-04-09T00:00:00	2024-11-08T14:00:00	4	Temperatura máxima	21.7
45275	7	Sololá	701	Sololá	1	Sololá	9	Septiembre	2023-04-09T00:00:00	2024-11-08T14:00:00	3	Temperatura mínima	18.8
45276	7	Sololá	701	Sololá	1	Sololá	9	Septiembre	2023-04-09T00:00:00	2024-11-08T14:00:00	5	Humedad	88
45277	7	Sololá	701	Sololá	1	Sololá	9	Septiembre	2023-04-09T00:00:00	2024-11-08T14:00:00	6	Velocidad del viento	0
45278	7	Sololá	701	Sololá	1	Sololá	9	Septiembre	2023-04-09T00:00:00	2024-11-08T14:00:00	7	Dirección del viento	0
45279	7	Sololá	701	Sololá	1	Sololá	9	Septiembre	2023-04-09T00:00:00	2024-11-08T14:00:00	1	Precipitación	0
45280	7	Sololá	701	Sololá	1	Sololá	9	Septiembre	2023-04-09T00:00:00	2024-11-08T14:00:00	8	Radiación solar	105
45281	7	Sololá	701	Sololá	1	Sololá	9	Septiembre	2023-04-09T00:00:00	2024-11-08T15:00:00	2	Temperatura media	18.1
45282	7	Sololá	701	Sololá	1	Sololá	9	Septiembre	2023-04-09T00:00:00	2024-11-08T15:00:00	4	Temperatura máxima	18.7
45283	7	Sololá	701	Sololá	1	Sololá	9	Septiembre	2023-04-09T00:00:00	2024-11-08T15:00:00	3	Temperatura mínima	17.2
45284	7	Sololá	701	Sololá	1	Sololá	9	Septiembre	2023-04-09T00:00:00	2024-11-08T15:00:00	5	Humedad	89
45285	7	Sololá	701	Sololá	1	Sololá	9	Septiembre	2023-04-09T00:00:00	2024-11-08T15:00:00	6	Velocidad del viento	0
45286	7	Sololá	701	Sololá	1	Sololá	9	Septiembre	2023-04-09T00:00:00	2024-11-08T15:00:00	7	Dirección del viento	0
45287	7	Sololá	701	Sololá	1	Sololá	9	Septiembre	2023-04-09T00:00:00	2024-11-08T15:00:00	1	Precipitación	0
45288	7	Sololá	701	Sololá	1	Sololá	9	Septiembre	2023-04-09T00:00:00	2024-11-08T15:00:00	8	Radiación solar	117
45289	7	Sololá	701	Sololá	1	Sololá	9	Septiembre	2023-04-09T00:00:00	2024-11-08T16:00:00	2	Temperatura media	16.4
45290	7	Sololá	701	Sololá	1	Sololá	9	Septiembre	2023-04-09T00:00:00	2024-11-08T16:00:00	4	Temperatura máxima	18.1
45291	7	Sololá	701	Sololá	1	Sololá	9	Septiembre	2023-04-09T00:00:00	2024-11-08T16:00:00	3	Temperatura mínima	16.4
45292	7	Sololá	701	Sololá	1	Sololá	9	Septiembre	2023-04-09T00:00:00	2024-11-08T16:00:00	5	Humedad	94
45293	7	Sololá	701	Sololá	1	Sololá	9	Septiembre	2023-04-09T00:00:00	2024-11-08T16:00:00	6	Velocidad del viento	0
45294	7	Sololá	701	Sololá	1	Sololá	9	Septiembre	2023-04-09T00:00:00	2024-11-08T16:00:00	7	Dirección del viento	0
45295	7	Sololá	701	Sololá	1	Sololá	9	Septiembre	2023-04-09T00:00:00	2024-11-08T16:00:00	1	Precipitación	2.6
45296	7	Sololá	701	Sololá	1	Sololá	9	Septiembre	2023-04-09T00:00:00	2024-11-08T16:00:00	8	Radiación solar	31
45297	7	Sololá	701	Sololá	1	Sololá	9	Septiembre	2023-04-09T00:00:00	2024-11-08T17:00:00	2	Temperatura media	15.4
45298	7	Sololá	701	Sololá	1	Sololá	9	Septiembre	2023-04-09T00:00:00	2024-11-08T17:00:00	4	Temperatura máxima	16.4
45299	7	Sololá	701	Sololá	1	Sololá	9	Septiembre	2023-04-09T00:00:00	2024-11-08T17:00:00	3	Temperatura mínima	15.4
45300	7	Sololá	701	Sololá	1	Sololá	9	Septiembre	2023-04-09T00:00:00	2024-11-08T17:00:00	5	Humedad	95
45301	7	Sololá	701	Sololá	1	Sololá	9	Septiembre	2023-04-09T00:00:00	2024-11-08T17:00:00	6	Velocidad del viento	0
45302	7	Sololá	701	Sololá	1	Sololá	9	Septiembre	2023-04-09T00:00:00	2024-11-08T17:00:00	7	Dirección del viento	0
45303	7	Sololá	701	Sololá	1	Sololá	9	Septiembre	2023-04-09T00:00:00	2024-11-08T17:00:00	1	Precipitación	3.2
45304	7	Sololá	701	Sololá	1	Sololá	9	Septiembre	2023-04-09T00:00:00	2024-11-08T17:00:00	8	Radiación solar	8
45305	7	Sololá	701	Sololá	1	Sololá	9	Septiembre	2023-04-09T00:00:00	2024-11-08T18:00:00	2	Temperatura media	15.2
45306	7	Sololá	701	Sololá	1	Sololá	9	Septiembre	2023-04-09T00:00:00	2024-11-08T18:00:00	4	Temperatura máxima	15.5
45307	7	Sololá	701	Sololá	1	Sololá	9	Septiembre	2023-04-09T00:00:00	2024-11-08T18:00:00	3	Temperatura mínima	15.2
45308	7	Sololá	701	Sololá	1	Sololá	9	Septiembre	2023-04-09T00:00:00	2024-11-08T18:00:00	5	Humedad	95
45309	7	Sololá	701	Sololá	1	Sololá	9	Septiembre	2023-04-09T00:00:00	2024-11-08T18:00:00	6	Velocidad del viento	0
45310	7	Sololá	701	Sololá	1	Sololá	9	Septiembre	2023-04-09T00:00:00	2024-11-08T18:00:00	7	Dirección del viento	0
45311	7	Sololá	701	Sololá	1	Sololá	9	Septiembre	2023-04-09T00:00:00	2024-11-08T18:00:00	1	Precipitación	1
45312	7	Sololá	701	Sololá	1	Sololá	9	Septiembre	2023-04-09T00:00:00	2024-11-08T18:00:00	8	Radiación solar	5
45313	7	Sololá	701	Sololá	1	Sololá	9	Septiembre	2023-04-09T00:00:00	2024-11-08T19:00:00	2	Temperatura media	14.9
45314	7	Sololá	701	Sololá	1	Sololá	9	Septiembre	2023-04-09T00:00:00	2024-11-08T19:00:00	4	Temperatura máxima	15.3
45315	7	Sololá	701	Sololá	1	Sololá	9	Septiembre	2023-04-09T00:00:00	2024-11-08T19:00:00	3	Temperatura mínima	14.8
45316	7	Sololá	701	Sololá	1	Sololá	9	Septiembre	2023-04-09T00:00:00	2024-11-08T19:00:00	5	Humedad	96
45317	7	Sololá	701	Sololá	1	Sololá	9	Septiembre	2023-04-09T00:00:00	2024-11-08T19:00:00	6	Velocidad del viento	0
45318	7	Sololá	701	Sololá	1	Sololá	9	Septiembre	2023-04-09T00:00:00	2024-11-08T19:00:00	7	Dirección del viento	0
45319	7	Sololá	701	Sololá	1	Sololá	9	Septiembre	2023-04-09T00:00:00	2024-11-08T19:00:00	1	Precipitación	9
45320	7	Sololá	701	Sololá	1	Sololá	9	Septiembre	2023-04-09T00:00:00	2024-11-08T19:00:00	8	Radiación solar	0
45321	7	Sololá	701	Sololá	1	Sololá	9	Septiembre	2023-04-09T00:00:00	2024-11-08T20:00:00	2	Temperatura media	14.7
45322	7	Sololá	701	Sololá	1	Sololá	9	Septiembre	2023-04-09T00:00:00	2024-11-08T20:00:00	4	Temperatura máxima	14.9
45323	7	Sololá	701	Sololá	1	Sololá	9	Septiembre	2023-04-09T00:00:00	2024-11-08T20:00:00	3	Temperatura mínima	14.7
45324	7	Sololá	701	Sololá	1	Sololá	9	Septiembre	2023-04-09T00:00:00	2024-11-08T20:00:00	5	Humedad	96
45325	7	Sololá	701	Sololá	1	Sololá	9	Septiembre	2023-04-09T00:00:00	2024-11-08T20:00:00	6	Velocidad del viento	0
45326	7	Sololá	701	Sololá	1	Sololá	9	Septiembre	2023-04-09T00:00:00	2024-11-08T20:00:00	7	Dirección del viento	0
45327	7	Sololá	701	Sololá	1	Sololá	9	Septiembre	2023-04-09T00:00:00	2024-11-08T20:00:00	1	Precipitación	0
45328	7	Sololá	701	Sololá	1	Sololá	9	Septiembre	2023-04-09T00:00:00	2024-11-08T20:00:00	8	Radiación solar	0
45329	7	Sololá	701	Sololá	1	Sololá	9	Septiembre	2023-04-09T00:00:00	2024-11-08T21:00:00	2	Temperatura media	14.7
45330	7	Sololá	701	Sololá	1	Sololá	9	Septiembre	2023-04-09T00:00:00	2024-11-08T21:00:00	4	Temperatura máxima	14.8
45331	7	Sololá	701	Sololá	1	Sololá	9	Septiembre	2023-04-09T00:00:00	2024-11-08T21:00:00	3	Temperatura mínima	14.7
45332	7	Sololá	701	Sololá	1	Sololá	9	Septiembre	2023-04-09T00:00:00	2024-11-08T21:00:00	5	Humedad	96
45333	7	Sololá	701	Sololá	1	Sololá	9	Septiembre	2023-04-09T00:00:00	2024-11-08T21:00:00	6	Velocidad del viento	0
45334	7	Sololá	701	Sololá	1	Sololá	9	Septiembre	2023-04-09T00:00:00	2024-11-08T21:00:00	7	Dirección del viento	0
45335	7	Sololá	701	Sololá	1	Sololá	9	Septiembre	2023-04-09T00:00:00	2024-11-08T21:00:00	1	Precipitación	0
45336	7	Sololá	701	Sololá	1	Sololá	9	Septiembre	2023-04-09T00:00:00	2024-11-08T21:00:00	8	Radiación solar	0
45337	7	Sololá	701	Sololá	1	Sololá	9	Septiembre	2023-04-09T00:00:00	2024-11-08T22:00:00	2	Temperatura media	14.4
45338	7	Sololá	701	Sololá	1	Sololá	9	Septiembre	2023-04-09T00:00:00	2024-11-08T22:00:00	4	Temperatura máxima	14.7
45339	7	Sololá	701	Sololá	1	Sololá	9	Septiembre	2023-04-09T00:00:00	2024-11-08T22:00:00	3	Temperatura mínima	14.3
45340	7	Sololá	701	Sololá	1	Sololá	9	Septiembre	2023-04-09T00:00:00	2024-11-08T22:00:00	5	Humedad	96
45341	7	Sololá	701	Sololá	1	Sololá	9	Septiembre	2023-04-09T00:00:00	2024-11-08T22:00:00	6	Velocidad del viento	0
45342	7	Sololá	701	Sololá	1	Sololá	9	Septiembre	2023-04-09T00:00:00	2024-11-08T22:00:00	7	Dirección del viento	0
45343	7	Sololá	701	Sololá	1	Sololá	9	Septiembre	2023-04-09T00:00:00	2024-11-08T22:00:00	1	Precipitación	0
45344	7	Sololá	701	Sololá	1	Sololá	9	Septiembre	2023-04-09T00:00:00	2024-11-08T22:00:00	8	Radiación solar	0
45345	7	Sololá	701	Sololá	1	Sololá	9	Septiembre	2023-04-09T00:00:00	2024-11-08T23:00:00	2	Temperatura media	14.7
45346	7	Sololá	701	Sololá	1	Sololá	9	Septiembre	2023-04-09T00:00:00	2024-11-08T23:00:00	4	Temperatura máxima	14.7
45347	7	Sololá	701	Sololá	1	Sololá	9	Septiembre	2023-04-09T00:00:00	2024-11-08T23:00:00	3	Temperatura mínima	14.4
45348	7	Sololá	701	Sololá	1	Sololá	9	Septiembre	2023-04-09T00:00:00	2024-11-08T23:00:00	5	Humedad	96
45349	7	Sololá	701	Sololá	1	Sololá	9	Septiembre	2023-04-09T00:00:00	2024-11-08T23:00:00	6	Velocidad del viento	0
45350	7	Sololá	701	Sololá	1	Sololá	9	Septiembre	2023-04-09T00:00:00	2024-11-08T23:00:00	7	Dirección del viento	0
45351	7	Sololá	701	Sololá	1	Sololá	9	Septiembre	2023-04-09T00:00:00	2024-11-08T23:00:00	1	Precipitación	0
45352	7	Sololá	701	Sololá	1	Sololá	9	Septiembre	2023-04-09T00:00:00	2024-11-08T23:00:00	8	Radiación solar	0
45353	7	Sololá	701	Sololá	1	Sololá	9	Septiembre	2023-05-09T00:00:00	2024-11-08T00:00:00	2	Temperatura media	14.2
45354	7	Sololá	701	Sololá	1	Sololá	9	Septiembre	2023-05-09T00:00:00	2024-11-08T00:00:00	4	Temperatura máxima	14.7
45355	7	Sololá	701	Sololá	1	Sololá	9	Septiembre	2023-05-09T00:00:00	2024-11-08T00:00:00	3	Temperatura mínima	14.1
45356	7	Sololá	701	Sololá	1	Sololá	9	Septiembre	2023-05-09T00:00:00	2024-11-08T00:00:00	5	Humedad	96
45357	7	Sololá	701	Sololá	1	Sololá	9	Septiembre	2023-05-09T00:00:00	2024-11-08T00:00:00	6	Velocidad del viento	0
45358	7	Sololá	701	Sololá	1	Sololá	9	Septiembre	2023-05-09T00:00:00	2024-11-08T00:00:00	7	Dirección del viento	0
45359	7	Sololá	701	Sololá	1	Sololá	9	Septiembre	2023-05-09T00:00:00	2024-11-08T00:00:00	1	Precipitación	0
45360	7	Sololá	701	Sololá	1	Sololá	9	Septiembre	2023-05-09T00:00:00	2024-11-08T00:00:00	8	Radiación solar	0
45361	7	Sololá	701	Sololá	1	Sololá	9	Septiembre	2023-05-09T00:00:00	2024-11-08T01:00:00	2	Temperatura media	13.7
45362	7	Sololá	701	Sololá	1	Sololá	9	Septiembre	2023-05-09T00:00:00	2024-11-08T01:00:00	4	Temperatura máxima	14.2
45363	7	Sololá	701	Sololá	1	Sololá	9	Septiembre	2023-05-09T00:00:00	2024-11-08T01:00:00	3	Temperatura mínima	13.7
45364	7	Sololá	701	Sololá	1	Sololá	9	Septiembre	2023-05-09T00:00:00	2024-11-08T01:00:00	5	Humedad	96
45365	7	Sololá	701	Sololá	1	Sololá	9	Septiembre	2023-05-09T00:00:00	2024-11-08T01:00:00	6	Velocidad del viento	0
45366	7	Sololá	701	Sololá	1	Sololá	9	Septiembre	2023-05-09T00:00:00	2024-11-08T01:00:00	7	Dirección del viento	0
45367	7	Sololá	701	Sololá	1	Sololá	9	Septiembre	2023-05-09T00:00:00	2024-11-08T01:00:00	1	Precipitación	0
45368	7	Sololá	701	Sololá	1	Sololá	9	Septiembre	2023-05-09T00:00:00	2024-11-08T01:00:00	8	Radiación solar	0
45369	7	Sololá	701	Sololá	1	Sololá	9	Septiembre	2023-05-09T00:00:00	2024-11-08T02:00:00	2	Temperatura media	13.4
45370	7	Sololá	701	Sololá	1	Sololá	9	Septiembre	2023-05-09T00:00:00	2024-11-08T02:00:00	4	Temperatura máxima	13.7
45371	7	Sololá	701	Sololá	1	Sololá	9	Septiembre	2023-05-09T00:00:00	2024-11-08T02:00:00	3	Temperatura mínima	13.4
45372	7	Sololá	701	Sololá	1	Sololá	9	Septiembre	2023-05-09T00:00:00	2024-11-08T02:00:00	5	Humedad	96
45373	7	Sololá	701	Sololá	1	Sololá	9	Septiembre	2023-05-09T00:00:00	2024-11-08T02:00:00	6	Velocidad del viento	0
45374	7	Sololá	701	Sololá	1	Sololá	9	Septiembre	2023-05-09T00:00:00	2024-11-08T02:00:00	7	Dirección del viento	0
45375	7	Sololá	701	Sololá	1	Sololá	9	Septiembre	2023-05-09T00:00:00	2024-11-08T02:00:00	1	Precipitación	0
45376	7	Sololá	701	Sololá	1	Sololá	9	Septiembre	2023-05-09T00:00:00	2024-11-08T02:00:00	8	Radiación solar	0
45377	7	Sololá	701	Sololá	1	Sololá	9	Septiembre	2023-05-09T00:00:00	2024-11-08T03:00:00	2	Temperatura media	12.8
45378	7	Sololá	701	Sololá	1	Sololá	9	Septiembre	2023-05-09T00:00:00	2024-11-08T03:00:00	4	Temperatura máxima	13.4
45379	7	Sololá	701	Sololá	1	Sololá	9	Septiembre	2023-05-09T00:00:00	2024-11-08T03:00:00	3	Temperatura mínima	12.8
45380	7	Sololá	701	Sololá	1	Sololá	9	Septiembre	2023-05-09T00:00:00	2024-11-08T03:00:00	5	Humedad	96
45381	7	Sololá	701	Sololá	1	Sololá	9	Septiembre	2023-05-09T00:00:00	2024-11-08T03:00:00	6	Velocidad del viento	0
45382	7	Sololá	701	Sololá	1	Sololá	9	Septiembre	2023-05-09T00:00:00	2024-11-08T03:00:00	7	Dirección del viento	0
45383	7	Sololá	701	Sololá	1	Sololá	9	Septiembre	2023-05-09T00:00:00	2024-11-08T03:00:00	1	Precipitación	0
45384	7	Sololá	701	Sololá	1	Sololá	9	Septiembre	2023-05-09T00:00:00	2024-11-08T03:00:00	8	Radiación solar	0
45385	7	Sololá	701	Sololá	1	Sololá	9	Septiembre	2023-05-09T00:00:00	2024-11-08T04:00:00	2	Temperatura media	12.4
45386	7	Sololá	701	Sololá	1	Sololá	9	Septiembre	2023-05-09T00:00:00	2024-11-08T04:00:00	4	Temperatura máxima	12.8
45387	7	Sololá	701	Sololá	1	Sololá	9	Septiembre	2023-05-09T00:00:00	2024-11-08T04:00:00	3	Temperatura mínima	12.4
45388	7	Sololá	701	Sololá	1	Sololá	9	Septiembre	2023-05-09T00:00:00	2024-11-08T04:00:00	5	Humedad	96
45389	7	Sololá	701	Sololá	1	Sololá	9	Septiembre	2023-05-09T00:00:00	2024-11-08T04:00:00	6	Velocidad del viento	0
45390	7	Sololá	701	Sololá	1	Sololá	9	Septiembre	2023-05-09T00:00:00	2024-11-08T04:00:00	7	Dirección del viento	0
45391	7	Sololá	701	Sololá	1	Sololá	9	Septiembre	2023-05-09T00:00:00	2024-11-08T04:00:00	1	Precipitación	0
45392	7	Sololá	701	Sololá	1	Sololá	9	Septiembre	2023-05-09T00:00:00	2024-11-08T04:00:00	8	Radiación solar	0
45393	7	Sololá	701	Sololá	1	Sololá	9	Septiembre	2023-05-09T00:00:00	2024-11-08T05:00:00	2	Temperatura media	12
45394	7	Sololá	701	Sololá	1	Sololá	9	Septiembre	2023-05-09T00:00:00	2024-11-08T05:00:00	4	Temperatura máxima	12.4
45395	7	Sololá	701	Sololá	1	Sololá	9	Septiembre	2023-05-09T00:00:00	2024-11-08T05:00:00	3	Temperatura mínima	12
45396	7	Sololá	701	Sololá	1	Sololá	9	Septiembre	2023-05-09T00:00:00	2024-11-08T05:00:00	5	Humedad	95
45397	7	Sololá	701	Sololá	1	Sololá	9	Septiembre	2023-05-09T00:00:00	2024-11-08T05:00:00	6	Velocidad del viento	0
45398	7	Sololá	701	Sololá	1	Sololá	9	Septiembre	2023-05-09T00:00:00	2024-11-08T05:00:00	7	Dirección del viento	0
45399	7	Sololá	701	Sololá	1	Sololá	9	Septiembre	2023-05-09T00:00:00	2024-11-08T05:00:00	1	Precipitación	0
45400	7	Sololá	701	Sololá	1	Sololá	9	Septiembre	2023-05-09T00:00:00	2024-11-08T05:00:00	8	Radiación solar	0
45401	7	Sololá	701	Sololá	1	Sololá	9	Septiembre	2023-05-09T00:00:00	2024-11-08T06:00:00	2	Temperatura media	11.9
45402	7	Sololá	701	Sololá	1	Sololá	9	Septiembre	2023-05-09T00:00:00	2024-11-08T06:00:00	4	Temperatura máxima	12
45403	7	Sololá	701	Sololá	1	Sololá	9	Septiembre	2023-05-09T00:00:00	2024-11-08T06:00:00	3	Temperatura mínima	11.8
45404	7	Sololá	701	Sololá	1	Sololá	9	Septiembre	2023-05-09T00:00:00	2024-11-08T06:00:00	5	Humedad	95
45405	7	Sololá	701	Sololá	1	Sololá	9	Septiembre	2023-05-09T00:00:00	2024-11-08T06:00:00	6	Velocidad del viento	0
45406	7	Sololá	701	Sololá	1	Sololá	9	Septiembre	2023-05-09T00:00:00	2024-11-08T06:00:00	7	Dirección del viento	0
45407	7	Sololá	701	Sololá	1	Sololá	9	Septiembre	2023-05-09T00:00:00	2024-11-08T06:00:00	1	Precipitación	0
45408	7	Sololá	701	Sololá	1	Sololá	9	Septiembre	2023-05-09T00:00:00	2024-11-08T06:00:00	8	Radiación solar	0
45409	7	Sololá	701	Sololá	1	Sololá	9	Septiembre	2023-05-09T00:00:00	2024-11-08T07:00:00	2	Temperatura media	12.1
45410	7	Sololá	701	Sololá	1	Sololá	9	Septiembre	2023-05-09T00:00:00	2024-11-08T07:00:00	4	Temperatura máxima	12.1
45411	7	Sololá	701	Sololá	1	Sololá	9	Septiembre	2023-05-09T00:00:00	2024-11-08T07:00:00	3	Temperatura mínima	11.9
45412	7	Sololá	701	Sololá	1	Sololá	9	Septiembre	2023-05-09T00:00:00	2024-11-08T07:00:00	5	Humedad	96
45413	7	Sololá	701	Sololá	1	Sololá	9	Septiembre	2023-05-09T00:00:00	2024-11-08T07:00:00	6	Velocidad del viento	0
45414	7	Sololá	701	Sololá	1	Sololá	9	Septiembre	2023-05-09T00:00:00	2024-11-08T07:00:00	7	Dirección del viento	0
45415	7	Sololá	701	Sololá	1	Sololá	9	Septiembre	2023-05-09T00:00:00	2024-11-08T07:00:00	1	Precipitación	0
45416	7	Sololá	701	Sololá	1	Sololá	9	Septiembre	2023-05-09T00:00:00	2024-11-08T07:00:00	8	Radiación solar	12
45417	7	Sololá	701	Sololá	1	Sololá	9	Septiembre	2023-05-09T00:00:00	2024-11-08T08:00:00	2	Temperatura media	15.8
45418	7	Sololá	701	Sololá	1	Sololá	9	Septiembre	2023-05-09T00:00:00	2024-11-08T08:00:00	4	Temperatura máxima	15.8
45419	7	Sololá	701	Sololá	1	Sololá	9	Septiembre	2023-05-09T00:00:00	2024-11-08T08:00:00	3	Temperatura mínima	12.1
45420	7	Sololá	701	Sololá	1	Sololá	9	Septiembre	2023-05-09T00:00:00	2024-11-08T08:00:00	5	Humedad	96
45421	7	Sololá	701	Sololá	1	Sololá	9	Septiembre	2023-05-09T00:00:00	2024-11-08T08:00:00	6	Velocidad del viento	0
45422	7	Sololá	701	Sololá	1	Sololá	9	Septiembre	2023-05-09T00:00:00	2024-11-08T08:00:00	7	Dirección del viento	0
45423	7	Sololá	701	Sololá	1	Sololá	9	Septiembre	2023-05-09T00:00:00	2024-11-08T08:00:00	1	Precipitación	0
45424	7	Sololá	701	Sololá	1	Sololá	9	Septiembre	2023-05-09T00:00:00	2024-11-08T08:00:00	8	Radiación solar	304
45425	7	Sololá	701	Sololá	1	Sololá	9	Septiembre	2023-05-09T00:00:00	2024-11-08T09:00:00	2	Temperatura media	20.8
45426	7	Sololá	701	Sololá	1	Sololá	9	Septiembre	2023-05-09T00:00:00	2024-11-08T09:00:00	4	Temperatura máxima	20.8
45427	7	Sololá	701	Sololá	1	Sololá	9	Septiembre	2023-05-09T00:00:00	2024-11-08T09:00:00	3	Temperatura mínima	15.7
45428	7	Sololá	701	Sololá	1	Sololá	9	Septiembre	2023-05-09T00:00:00	2024-11-08T09:00:00	5	Humedad	76
45429	7	Sololá	701	Sololá	1	Sololá	9	Septiembre	2023-05-09T00:00:00	2024-11-08T09:00:00	6	Velocidad del viento	0
45430	7	Sololá	701	Sololá	1	Sololá	9	Septiembre	2023-05-09T00:00:00	2024-11-08T09:00:00	7	Dirección del viento	0
45431	7	Sololá	701	Sololá	1	Sololá	9	Septiembre	2023-05-09T00:00:00	2024-11-08T09:00:00	1	Precipitación	0
45432	7	Sololá	701	Sololá	1	Sololá	9	Septiembre	2023-05-09T00:00:00	2024-11-08T09:00:00	8	Radiación solar	655
45433	7	Sololá	701	Sololá	1	Sololá	9	Septiembre	2023-05-09T00:00:00	2024-11-08T10:00:00	2	Temperatura media	21.4
45434	7	Sololá	701	Sololá	1	Sololá	9	Septiembre	2023-05-09T00:00:00	2024-11-08T10:00:00	4	Temperatura máxima	21.4
45435	7	Sololá	701	Sololá	1	Sololá	9	Septiembre	2023-05-09T00:00:00	2024-11-08T10:00:00	3	Temperatura mínima	20.8
45436	7	Sololá	701	Sololá	1	Sololá	9	Septiembre	2023-05-09T00:00:00	2024-11-08T10:00:00	5	Humedad	77
45437	7	Sololá	701	Sololá	1	Sololá	9	Septiembre	2023-05-09T00:00:00	2024-11-08T10:00:00	6	Velocidad del viento	0
45438	7	Sololá	701	Sololá	1	Sololá	9	Septiembre	2023-05-09T00:00:00	2024-11-08T10:00:00	7	Dirección del viento	0
45439	7	Sololá	701	Sololá	1	Sololá	9	Septiembre	2023-05-09T00:00:00	2024-11-08T10:00:00	1	Precipitación	0
45440	7	Sololá	701	Sololá	1	Sololá	9	Septiembre	2023-05-09T00:00:00	2024-11-08T10:00:00	8	Radiación solar	850
45441	7	Sololá	701	Sololá	1	Sololá	9	Septiembre	2023-05-09T00:00:00	2024-11-08T11:00:00	2	Temperatura media	21.2
45442	7	Sololá	701	Sololá	1	Sololá	9	Septiembre	2023-05-09T00:00:00	2024-11-08T11:00:00	4	Temperatura máxima	21.4
45443	7	Sololá	701	Sololá	1	Sololá	9	Septiembre	2023-05-09T00:00:00	2024-11-08T11:00:00	3	Temperatura mínima	21
45444	7	Sololá	701	Sololá	1	Sololá	9	Septiembre	2023-05-09T00:00:00	2024-11-08T11:00:00	5	Humedad	74
45445	7	Sololá	701	Sololá	1	Sololá	9	Septiembre	2023-05-09T00:00:00	2024-11-08T11:00:00	6	Velocidad del viento	0
45446	7	Sololá	701	Sololá	1	Sololá	9	Septiembre	2023-05-09T00:00:00	2024-11-08T11:00:00	7	Dirección del viento	0
45447	7	Sololá	701	Sololá	1	Sololá	9	Septiembre	2023-05-09T00:00:00	2024-11-08T11:00:00	1	Precipitación	0
45448	7	Sololá	701	Sololá	1	Sololá	9	Septiembre	2023-05-09T00:00:00	2024-11-08T11:00:00	8	Radiación solar	882
45449	7	Sololá	701	Sololá	1	Sololá	9	Septiembre	2023-05-09T00:00:00	2024-11-08T12:00:00	2	Temperatura media	19.6
45450	7	Sololá	701	Sololá	1	Sololá	9	Septiembre	2023-05-09T00:00:00	2024-11-08T12:00:00	4	Temperatura máxima	21.2
45451	7	Sololá	701	Sololá	1	Sololá	9	Septiembre	2023-05-09T00:00:00	2024-11-08T12:00:00	3	Temperatura mínima	19.6
45452	7	Sololá	701	Sololá	1	Sololá	9	Septiembre	2023-05-09T00:00:00	2024-11-08T12:00:00	5	Humedad	83
45453	7	Sololá	701	Sololá	1	Sololá	9	Septiembre	2023-05-09T00:00:00	2024-11-08T12:00:00	6	Velocidad del viento	0
45454	7	Sololá	701	Sololá	1	Sololá	9	Septiembre	2023-05-09T00:00:00	2024-11-08T12:00:00	7	Dirección del viento	0
45455	7	Sololá	701	Sololá	1	Sololá	9	Septiembre	2023-05-09T00:00:00	2024-11-08T12:00:00	1	Precipitación	0
45456	7	Sololá	701	Sololá	1	Sololá	9	Septiembre	2023-05-09T00:00:00	2024-11-08T12:00:00	8	Radiación solar	361
45457	7	Sololá	701	Sololá	1	Sololá	9	Septiembre	2023-05-09T00:00:00	2024-11-08T13:00:00	2	Temperatura media	19.5
45458	7	Sololá	701	Sololá	1	Sololá	9	Septiembre	2023-05-09T00:00:00	2024-11-08T13:00:00	4	Temperatura máxima	19.6
45459	7	Sololá	701	Sololá	1	Sololá	9	Septiembre	2023-05-09T00:00:00	2024-11-08T13:00:00	3	Temperatura mínima	18.4
45460	7	Sololá	701	Sololá	1	Sololá	9	Septiembre	2023-05-09T00:00:00	2024-11-08T13:00:00	5	Humedad	87
45461	7	Sololá	701	Sololá	1	Sololá	9	Septiembre	2023-05-09T00:00:00	2024-11-08T13:00:00	6	Velocidad del viento	0
45462	7	Sololá	701	Sololá	1	Sololá	9	Septiembre	2023-05-09T00:00:00	2024-11-08T13:00:00	7	Dirección del viento	0
45463	7	Sololá	701	Sololá	1	Sololá	9	Septiembre	2023-05-09T00:00:00	2024-11-08T13:00:00	1	Precipitación	0
45464	7	Sololá	701	Sololá	1	Sololá	9	Septiembre	2023-05-09T00:00:00	2024-11-08T13:00:00	8	Radiación solar	160
45465	7	Sololá	701	Sololá	1	Sololá	9	Septiembre	2023-05-09T00:00:00	2024-11-08T14:00:00	2	Temperatura media	18.9
45466	7	Sololá	701	Sololá	1	Sololá	9	Septiembre	2023-05-09T00:00:00	2024-11-08T14:00:00	4	Temperatura máxima	20.4
45467	7	Sololá	701	Sololá	1	Sololá	9	Septiembre	2023-05-09T00:00:00	2024-11-08T14:00:00	3	Temperatura mínima	18.9
45468	7	Sololá	701	Sololá	1	Sololá	9	Septiembre	2023-05-09T00:00:00	2024-11-08T14:00:00	5	Humedad	88
45469	7	Sololá	701	Sololá	1	Sololá	9	Septiembre	2023-05-09T00:00:00	2024-11-08T14:00:00	6	Velocidad del viento	0
45470	7	Sololá	701	Sololá	1	Sololá	9	Septiembre	2023-05-09T00:00:00	2024-11-08T14:00:00	7	Dirección del viento	0
45471	7	Sololá	701	Sololá	1	Sololá	9	Septiembre	2023-05-09T00:00:00	2024-11-08T14:00:00	1	Precipitación	2.6
45472	7	Sololá	701	Sololá	1	Sololá	9	Septiembre	2023-05-09T00:00:00	2024-11-08T14:00:00	8	Radiación solar	135
45473	7	Sololá	701	Sololá	1	Sololá	9	Septiembre	2023-05-09T00:00:00	2024-11-08T15:00:00	2	Temperatura media	15.8
45474	7	Sololá	701	Sololá	1	Sololá	9	Septiembre	2023-05-09T00:00:00	2024-11-08T15:00:00	4	Temperatura máxima	18.9
45475	7	Sololá	701	Sololá	1	Sololá	9	Septiembre	2023-05-09T00:00:00	2024-11-08T15:00:00	3	Temperatura mínima	15.8
45476	7	Sololá	701	Sololá	1	Sololá	9	Septiembre	2023-05-09T00:00:00	2024-11-08T15:00:00	5	Humedad	92
45477	7	Sololá	701	Sololá	1	Sololá	9	Septiembre	2023-05-09T00:00:00	2024-11-08T15:00:00	6	Velocidad del viento	0
45478	7	Sololá	701	Sololá	1	Sololá	9	Septiembre	2023-05-09T00:00:00	2024-11-08T15:00:00	7	Dirección del viento	0
45479	7	Sololá	701	Sololá	1	Sololá	9	Septiembre	2023-05-09T00:00:00	2024-11-08T15:00:00	1	Precipitación	3
45480	7	Sololá	701	Sololá	1	Sololá	9	Septiembre	2023-05-09T00:00:00	2024-11-08T15:00:00	8	Radiación solar	16
45481	7	Sololá	701	Sololá	1	Sololá	9	Septiembre	2023-05-09T00:00:00	2024-11-08T16:00:00	2	Temperatura media	14.9
45482	7	Sololá	701	Sololá	1	Sololá	9	Septiembre	2023-05-09T00:00:00	2024-11-08T16:00:00	4	Temperatura máxima	15.8
45483	7	Sololá	701	Sololá	1	Sololá	9	Septiembre	2023-05-09T00:00:00	2024-11-08T16:00:00	3	Temperatura mínima	14.9
45484	7	Sololá	701	Sololá	1	Sololá	9	Septiembre	2023-05-09T00:00:00	2024-11-08T16:00:00	5	Humedad	95
45485	7	Sololá	701	Sololá	1	Sololá	9	Septiembre	2023-05-09T00:00:00	2024-11-08T16:00:00	6	Velocidad del viento	0
45486	7	Sololá	701	Sololá	1	Sololá	9	Septiembre	2023-05-09T00:00:00	2024-11-08T16:00:00	7	Dirección del viento	0
45487	7	Sololá	701	Sololá	1	Sololá	9	Septiembre	2023-05-09T00:00:00	2024-11-08T16:00:00	1	Precipitación	0
45488	7	Sololá	701	Sololá	1	Sololá	9	Septiembre	2023-05-09T00:00:00	2024-11-08T16:00:00	8	Radiación solar	9
45489	7	Sololá	701	Sololá	1	Sololá	9	Septiembre	2023-05-09T00:00:00	2024-11-08T17:00:00	2	Temperatura media	14.8
45490	7	Sololá	701	Sololá	1	Sololá	9	Septiembre	2023-05-09T00:00:00	2024-11-08T17:00:00	4	Temperatura máxima	15.1
45491	7	Sololá	701	Sololá	1	Sololá	9	Septiembre	2023-05-09T00:00:00	2024-11-08T17:00:00	3	Temperatura mínima	14.8
45492	7	Sololá	701	Sololá	1	Sololá	9	Septiembre	2023-05-09T00:00:00	2024-11-08T17:00:00	5	Humedad	95
45493	7	Sololá	701	Sololá	1	Sololá	9	Septiembre	2023-05-09T00:00:00	2024-11-08T17:00:00	6	Velocidad del viento	0
45494	7	Sololá	701	Sololá	1	Sololá	9	Septiembre	2023-05-09T00:00:00	2024-11-08T17:00:00	7	Dirección del viento	0
45495	7	Sololá	701	Sololá	1	Sololá	9	Septiembre	2023-05-09T00:00:00	2024-11-08T17:00:00	1	Precipitación	0.4
45496	7	Sololá	701	Sololá	1	Sololá	9	Septiembre	2023-05-09T00:00:00	2024-11-08T17:00:00	8	Radiación solar	6
45497	7	Sololá	701	Sololá	1	Sololá	9	Septiembre	2023-05-09T00:00:00	2024-11-08T18:00:00	2	Temperatura media	14.7
45498	7	Sololá	701	Sololá	1	Sololá	9	Septiembre	2023-05-09T00:00:00	2024-11-08T18:00:00	4	Temperatura máxima	14.9
45499	7	Sololá	701	Sololá	1	Sololá	9	Septiembre	2023-05-09T00:00:00	2024-11-08T18:00:00	3	Temperatura mínima	14.6
45500	7	Sololá	701	Sololá	1	Sololá	9	Septiembre	2023-05-09T00:00:00	2024-11-08T18:00:00	5	Humedad	95
45501	7	Sololá	701	Sololá	1	Sololá	9	Septiembre	2023-05-09T00:00:00	2024-11-08T18:00:00	6	Velocidad del viento	0
45502	7	Sololá	701	Sololá	1	Sololá	9	Septiembre	2023-05-09T00:00:00	2024-11-08T18:00:00	7	Dirección del viento	0
45503	7	Sololá	701	Sololá	1	Sololá	9	Septiembre	2023-05-09T00:00:00	2024-11-08T18:00:00	1	Precipitación	0
45504	7	Sololá	701	Sololá	1	Sololá	9	Septiembre	2023-05-09T00:00:00	2024-11-08T18:00:00	8	Radiación solar	0
45505	7	Sololá	701	Sololá	1	Sololá	9	Septiembre	2023-05-09T00:00:00	2024-11-08T19:00:00	2	Temperatura media	14.2
45506	7	Sololá	701	Sololá	1	Sololá	9	Septiembre	2023-05-09T00:00:00	2024-11-08T19:00:00	4	Temperatura máxima	14.7
45507	7	Sololá	701	Sololá	1	Sololá	9	Septiembre	2023-05-09T00:00:00	2024-11-08T19:00:00	3	Temperatura mínima	14.2
45508	7	Sololá	701	Sololá	1	Sololá	9	Septiembre	2023-05-09T00:00:00	2024-11-08T19:00:00	5	Humedad	95
45509	7	Sololá	701	Sololá	1	Sololá	9	Septiembre	2023-05-09T00:00:00	2024-11-08T19:00:00	6	Velocidad del viento	0
45510	7	Sololá	701	Sololá	1	Sololá	9	Septiembre	2023-05-09T00:00:00	2024-11-08T19:00:00	7	Dirección del viento	0
45511	7	Sololá	701	Sololá	1	Sololá	9	Septiembre	2023-05-09T00:00:00	2024-11-08T19:00:00	1	Precipitación	0.2
45512	7	Sololá	701	Sololá	1	Sololá	9	Septiembre	2023-05-09T00:00:00	2024-11-08T19:00:00	8	Radiación solar	0
45513	7	Sololá	701	Sololá	1	Sololá	9	Septiembre	2023-05-09T00:00:00	2024-11-08T20:00:00	2	Temperatura media	14
45514	7	Sololá	701	Sololá	1	Sololá	9	Septiembre	2023-05-09T00:00:00	2024-11-08T20:00:00	4	Temperatura máxima	14.2
45515	7	Sololá	701	Sololá	1	Sololá	9	Septiembre	2023-05-09T00:00:00	2024-11-08T20:00:00	3	Temperatura mínima	14
45516	7	Sololá	701	Sololá	1	Sololá	9	Septiembre	2023-05-09T00:00:00	2024-11-08T20:00:00	5	Humedad	96
45517	7	Sololá	701	Sololá	1	Sololá	9	Septiembre	2023-05-09T00:00:00	2024-11-08T20:00:00	6	Velocidad del viento	0
45518	7	Sololá	701	Sololá	1	Sololá	9	Septiembre	2023-05-09T00:00:00	2024-11-08T20:00:00	7	Dirección del viento	0
45519	7	Sololá	701	Sololá	1	Sololá	9	Septiembre	2023-05-09T00:00:00	2024-11-08T20:00:00	1	Precipitación	0
45520	7	Sololá	701	Sololá	1	Sololá	9	Septiembre	2023-05-09T00:00:00	2024-11-08T20:00:00	8	Radiación solar	0
45521	7	Sololá	701	Sololá	1	Sololá	9	Septiembre	2023-05-09T00:00:00	2024-11-08T21:00:00	2	Temperatura media	13.9
45522	7	Sololá	701	Sololá	1	Sololá	9	Septiembre	2023-05-09T00:00:00	2024-11-08T21:00:00	4	Temperatura máxima	14.1
45523	7	Sololá	701	Sololá	1	Sololá	9	Septiembre	2023-05-09T00:00:00	2024-11-08T21:00:00	3	Temperatura mínima	13.9
45524	7	Sololá	701	Sololá	1	Sololá	9	Septiembre	2023-05-09T00:00:00	2024-11-08T21:00:00	5	Humedad	96
45525	7	Sololá	701	Sololá	1	Sololá	9	Septiembre	2023-05-09T00:00:00	2024-11-08T21:00:00	6	Velocidad del viento	0
45526	7	Sololá	701	Sololá	1	Sololá	9	Septiembre	2023-05-09T00:00:00	2024-11-08T21:00:00	7	Dirección del viento	0
45527	7	Sololá	701	Sololá	1	Sololá	9	Septiembre	2023-05-09T00:00:00	2024-11-08T21:00:00	1	Precipitación	0
45528	7	Sololá	701	Sololá	1	Sololá	9	Septiembre	2023-05-09T00:00:00	2024-11-08T21:00:00	8	Radiación solar	0
45529	7	Sololá	701	Sololá	1	Sololá	9	Septiembre	2023-05-09T00:00:00	2024-11-08T22:00:00	2	Temperatura media	13.8
45530	7	Sololá	701	Sololá	1	Sololá	9	Septiembre	2023-05-09T00:00:00	2024-11-08T22:00:00	4	Temperatura máxima	14
45531	7	Sololá	701	Sololá	1	Sololá	9	Septiembre	2023-05-09T00:00:00	2024-11-08T22:00:00	3	Temperatura mínima	13.8
45532	7	Sololá	701	Sololá	1	Sololá	9	Septiembre	2023-05-09T00:00:00	2024-11-08T22:00:00	5	Humedad	96
45533	7	Sololá	701	Sololá	1	Sololá	9	Septiembre	2023-05-09T00:00:00	2024-11-08T22:00:00	6	Velocidad del viento	0
45534	7	Sololá	701	Sololá	1	Sololá	9	Septiembre	2023-05-09T00:00:00	2024-11-08T22:00:00	7	Dirección del viento	0
45535	7	Sololá	701	Sololá	1	Sololá	9	Septiembre	2023-05-09T00:00:00	2024-11-08T22:00:00	1	Precipitación	0
45536	7	Sololá	701	Sololá	1	Sololá	9	Septiembre	2023-05-09T00:00:00	2024-11-08T22:00:00	8	Radiación solar	0
45537	7	Sololá	701	Sololá	1	Sololá	9	Septiembre	2023-05-09T00:00:00	2024-11-08T23:00:00	2	Temperatura media	13.7
45538	7	Sololá	701	Sololá	1	Sololá	9	Septiembre	2023-05-09T00:00:00	2024-11-08T23:00:00	4	Temperatura máxima	13.9
45539	7	Sololá	701	Sololá	1	Sololá	9	Septiembre	2023-05-09T00:00:00	2024-11-08T23:00:00	3	Temperatura mínima	13.6
45540	7	Sololá	701	Sololá	1	Sololá	9	Septiembre	2023-05-09T00:00:00	2024-11-08T23:00:00	5	Humedad	96
45541	7	Sololá	701	Sololá	1	Sololá	9	Septiembre	2023-05-09T00:00:00	2024-11-08T23:00:00	6	Velocidad del viento	0
45542	7	Sololá	701	Sololá	1	Sololá	9	Septiembre	2023-05-09T00:00:00	2024-11-08T23:00:00	7	Dirección del viento	0
45543	7	Sololá	701	Sololá	1	Sololá	9	Septiembre	2023-05-09T00:00:00	2024-11-08T23:00:00	1	Precipitación	0
45544	7	Sololá	701	Sololá	1	Sololá	9	Septiembre	2023-05-09T00:00:00	2024-11-08T23:00:00	8	Radiación solar	0
45545	7	Sololá	701	Sololá	1	Sololá	9	Septiembre	2023-06-09T00:00:00	2024-11-08T00:00:00	2	Temperatura media	13.6
45546	7	Sololá	701	Sololá	1	Sololá	9	Septiembre	2023-06-09T00:00:00	2024-11-08T00:00:00	4	Temperatura máxima	13.7
45547	7	Sololá	701	Sololá	1	Sololá	9	Septiembre	2023-06-09T00:00:00	2024-11-08T00:00:00	3	Temperatura mínima	13.4
45548	7	Sololá	701	Sololá	1	Sololá	9	Septiembre	2023-06-09T00:00:00	2024-11-08T00:00:00	5	Humedad	95
45549	7	Sololá	701	Sololá	1	Sololá	9	Septiembre	2023-06-09T00:00:00	2024-11-08T00:00:00	6	Velocidad del viento	0
45550	7	Sololá	701	Sololá	1	Sololá	9	Septiembre	2023-06-09T00:00:00	2024-11-08T00:00:00	7	Dirección del viento	0
45551	7	Sololá	701	Sololá	1	Sololá	9	Septiembre	2023-06-09T00:00:00	2024-11-08T00:00:00	1	Precipitación	0
45552	7	Sololá	701	Sololá	1	Sololá	9	Septiembre	2023-06-09T00:00:00	2024-11-08T00:00:00	8	Radiación solar	0
45553	7	Sololá	701	Sololá	1	Sololá	9	Septiembre	2023-06-09T00:00:00	2024-11-08T01:00:00	2	Temperatura media	13.7
45554	7	Sololá	701	Sololá	1	Sololá	9	Septiembre	2023-06-09T00:00:00	2024-11-08T01:00:00	4	Temperatura máxima	13.8
45555	7	Sololá	701	Sololá	1	Sololá	9	Septiembre	2023-06-09T00:00:00	2024-11-08T01:00:00	3	Temperatura mínima	13.5
45556	7	Sololá	701	Sololá	1	Sololá	9	Septiembre	2023-06-09T00:00:00	2024-11-08T01:00:00	5	Humedad	95
45557	7	Sololá	701	Sololá	1	Sololá	9	Septiembre	2023-06-09T00:00:00	2024-11-08T01:00:00	6	Velocidad del viento	0
45558	7	Sololá	701	Sololá	1	Sololá	9	Septiembre	2023-06-09T00:00:00	2024-11-08T01:00:00	7	Dirección del viento	0
45559	7	Sololá	701	Sololá	1	Sololá	9	Septiembre	2023-06-09T00:00:00	2024-11-08T01:00:00	1	Precipitación	0
45560	7	Sololá	701	Sololá	1	Sololá	9	Septiembre	2023-06-09T00:00:00	2024-11-08T01:00:00	8	Radiación solar	0
45561	7	Sololá	701	Sololá	1	Sololá	9	Septiembre	2023-06-09T00:00:00	2024-11-08T02:00:00	2	Temperatura media	13.3
45562	7	Sololá	701	Sololá	1	Sololá	9	Septiembre	2023-06-09T00:00:00	2024-11-08T02:00:00	4	Temperatura máxima	13.8
45563	7	Sololá	701	Sololá	1	Sololá	9	Septiembre	2023-06-09T00:00:00	2024-11-08T02:00:00	3	Temperatura mínima	13.3
45564	7	Sololá	701	Sololá	1	Sololá	9	Septiembre	2023-06-09T00:00:00	2024-11-08T02:00:00	5	Humedad	95
45565	7	Sololá	701	Sololá	1	Sololá	9	Septiembre	2023-06-09T00:00:00	2024-11-08T02:00:00	6	Velocidad del viento	0
45566	7	Sololá	701	Sololá	1	Sololá	9	Septiembre	2023-06-09T00:00:00	2024-11-08T02:00:00	7	Dirección del viento	0
45567	7	Sololá	701	Sololá	1	Sololá	9	Septiembre	2023-06-09T00:00:00	2024-11-08T02:00:00	1	Precipitación	0
45568	7	Sololá	701	Sololá	1	Sololá	9	Septiembre	2023-06-09T00:00:00	2024-11-08T02:00:00	8	Radiación solar	0
45569	7	Sololá	701	Sololá	1	Sololá	9	Septiembre	2023-06-09T00:00:00	2024-11-08T03:00:00	2	Temperatura media	13.1
45570	7	Sololá	701	Sololá	1	Sololá	9	Septiembre	2023-06-09T00:00:00	2024-11-08T03:00:00	4	Temperatura máxima	13.3
45571	7	Sololá	701	Sololá	1	Sololá	9	Septiembre	2023-06-09T00:00:00	2024-11-08T03:00:00	3	Temperatura mínima	12.9
45572	7	Sololá	701	Sololá	1	Sololá	9	Septiembre	2023-06-09T00:00:00	2024-11-08T03:00:00	5	Humedad	95
45573	7	Sololá	701	Sololá	1	Sololá	9	Septiembre	2023-06-09T00:00:00	2024-11-08T03:00:00	6	Velocidad del viento	0
45574	7	Sololá	701	Sololá	1	Sololá	9	Septiembre	2023-06-09T00:00:00	2024-11-08T03:00:00	7	Dirección del viento	0
45575	7	Sololá	701	Sololá	1	Sololá	9	Septiembre	2023-06-09T00:00:00	2024-11-08T03:00:00	1	Precipitación	0
45576	7	Sololá	701	Sololá	1	Sololá	9	Septiembre	2023-06-09T00:00:00	2024-11-08T03:00:00	8	Radiación solar	0
45577	7	Sololá	701	Sololá	1	Sololá	9	Septiembre	2023-06-09T00:00:00	2024-11-08T04:00:00	2	Temperatura media	12.9
45578	7	Sololá	701	Sololá	1	Sololá	9	Septiembre	2023-06-09T00:00:00	2024-11-08T04:00:00	4	Temperatura máxima	13.2
45579	7	Sololá	701	Sololá	1	Sololá	9	Septiembre	2023-06-09T00:00:00	2024-11-08T04:00:00	3	Temperatura mínima	12.9
45580	7	Sololá	701	Sololá	1	Sololá	9	Septiembre	2023-06-09T00:00:00	2024-11-08T04:00:00	5	Humedad	95
45581	7	Sololá	701	Sololá	1	Sololá	9	Septiembre	2023-06-09T00:00:00	2024-11-08T04:00:00	6	Velocidad del viento	0
45582	7	Sololá	701	Sololá	1	Sololá	9	Septiembre	2023-06-09T00:00:00	2024-11-08T04:00:00	7	Dirección del viento	0
45583	7	Sololá	701	Sololá	1	Sololá	9	Septiembre	2023-06-09T00:00:00	2024-11-08T04:00:00	1	Precipitación	0
45584	7	Sololá	701	Sololá	1	Sololá	9	Septiembre	2023-06-09T00:00:00	2024-11-08T04:00:00	8	Radiación solar	0
45585	7	Sololá	701	Sololá	1	Sololá	9	Septiembre	2023-06-09T00:00:00	2024-11-08T05:00:00	2	Temperatura media	12.9
45586	7	Sololá	701	Sololá	1	Sololá	9	Septiembre	2023-06-09T00:00:00	2024-11-08T05:00:00	4	Temperatura máxima	13
45587	7	Sololá	701	Sololá	1	Sololá	9	Septiembre	2023-06-09T00:00:00	2024-11-08T05:00:00	3	Temperatura mínima	12.9
45588	7	Sololá	701	Sololá	1	Sololá	9	Septiembre	2023-06-09T00:00:00	2024-11-08T05:00:00	5	Humedad	96
45589	7	Sololá	701	Sololá	1	Sololá	9	Septiembre	2023-06-09T00:00:00	2024-11-08T05:00:00	6	Velocidad del viento	0
45590	7	Sololá	701	Sololá	1	Sololá	9	Septiembre	2023-06-09T00:00:00	2024-11-08T05:00:00	7	Dirección del viento	0
45591	7	Sololá	701	Sololá	1	Sololá	9	Septiembre	2023-06-09T00:00:00	2024-11-08T05:00:00	1	Precipitación	0
45592	7	Sololá	701	Sololá	1	Sololá	9	Septiembre	2023-06-09T00:00:00	2024-11-08T05:00:00	8	Radiación solar	0
45593	7	Sololá	701	Sololá	1	Sololá	9	Septiembre	2023-06-09T00:00:00	2024-11-08T06:00:00	2	Temperatura media	13.1
45594	7	Sololá	701	Sololá	1	Sololá	9	Septiembre	2023-06-09T00:00:00	2024-11-08T06:00:00	4	Temperatura máxima	13.1
45595	7	Sololá	701	Sololá	1	Sololá	9	Septiembre	2023-06-09T00:00:00	2024-11-08T06:00:00	3	Temperatura mínima	12.9
45596	7	Sololá	701	Sololá	1	Sololá	9	Septiembre	2023-06-09T00:00:00	2024-11-08T06:00:00	5	Humedad	95
45597	7	Sololá	701	Sololá	1	Sololá	9	Septiembre	2023-06-09T00:00:00	2024-11-08T06:00:00	6	Velocidad del viento	0
45598	7	Sololá	701	Sololá	1	Sololá	9	Septiembre	2023-06-09T00:00:00	2024-11-08T06:00:00	7	Dirección del viento	0
45599	7	Sololá	701	Sololá	1	Sololá	9	Septiembre	2023-06-09T00:00:00	2024-11-08T06:00:00	1	Precipitación	0
45600	7	Sololá	701	Sololá	1	Sololá	9	Septiembre	2023-06-09T00:00:00	2024-11-08T06:00:00	8	Radiación solar	0
45601	7	Sololá	701	Sololá	1	Sololá	9	Septiembre	2023-06-09T00:00:00	2024-11-08T07:00:00	2	Temperatura media	13.8
45602	7	Sololá	701	Sololá	1	Sololá	9	Septiembre	2023-06-09T00:00:00	2024-11-08T07:00:00	4	Temperatura máxima	13.9
45603	7	Sololá	701	Sololá	1	Sololá	9	Septiembre	2023-06-09T00:00:00	2024-11-08T07:00:00	3	Temperatura mínima	13.1
45604	7	Sololá	701	Sololá	1	Sololá	9	Septiembre	2023-06-09T00:00:00	2024-11-08T07:00:00	5	Humedad	95
45605	7	Sololá	701	Sololá	1	Sololá	9	Septiembre	2023-06-09T00:00:00	2024-11-08T07:00:00	6	Velocidad del viento	0
45606	7	Sololá	701	Sololá	1	Sololá	9	Septiembre	2023-06-09T00:00:00	2024-11-08T07:00:00	7	Dirección del viento	0
45607	7	Sololá	701	Sololá	1	Sololá	9	Septiembre	2023-06-09T00:00:00	2024-11-08T07:00:00	1	Precipitación	0
45608	7	Sololá	701	Sololá	1	Sololá	9	Septiembre	2023-06-09T00:00:00	2024-11-08T07:00:00	8	Radiación solar	25
45609	7	Sololá	701	Sololá	1	Sololá	9	Septiembre	2023-06-09T00:00:00	2024-11-08T08:00:00	2	Temperatura media	15.8
45610	7	Sololá	701	Sololá	1	Sololá	9	Septiembre	2023-06-09T00:00:00	2024-11-08T08:00:00	4	Temperatura máxima	15.8
45611	7	Sololá	701	Sololá	1	Sololá	9	Septiembre	2023-06-09T00:00:00	2024-11-08T08:00:00	3	Temperatura mínima	13.9
45612	7	Sololá	701	Sololá	1	Sololá	9	Septiembre	2023-06-09T00:00:00	2024-11-08T08:00:00	5	Humedad	89
45613	7	Sololá	701	Sololá	1	Sololá	9	Septiembre	2023-06-09T00:00:00	2024-11-08T08:00:00	6	Velocidad del viento	0
45614	7	Sololá	701	Sololá	1	Sololá	9	Septiembre	2023-06-09T00:00:00	2024-11-08T08:00:00	7	Dirección del viento	0
45615	7	Sololá	701	Sololá	1	Sololá	9	Septiembre	2023-06-09T00:00:00	2024-11-08T08:00:00	1	Precipitación	0
45616	7	Sololá	701	Sololá	1	Sololá	9	Septiembre	2023-06-09T00:00:00	2024-11-08T08:00:00	8	Radiación solar	109
45617	7	Sololá	701	Sololá	1	Sololá	9	Septiembre	2023-06-09T00:00:00	2024-11-08T09:00:00	2	Temperatura media	17.4
45618	7	Sololá	701	Sololá	1	Sololá	9	Septiembre	2023-06-09T00:00:00	2024-11-08T09:00:00	4	Temperatura máxima	17.4
45619	7	Sololá	701	Sololá	1	Sololá	9	Septiembre	2023-06-09T00:00:00	2024-11-08T09:00:00	3	Temperatura mínima	15.7
45620	7	Sololá	701	Sololá	1	Sololá	9	Septiembre	2023-06-09T00:00:00	2024-11-08T09:00:00	5	Humedad	84
45621	7	Sololá	701	Sololá	1	Sololá	9	Septiembre	2023-06-09T00:00:00	2024-11-08T09:00:00	6	Velocidad del viento	0
45622	7	Sololá	701	Sololá	1	Sololá	9	Septiembre	2023-06-09T00:00:00	2024-11-08T09:00:00	7	Dirección del viento	0
45623	7	Sololá	701	Sololá	1	Sololá	9	Septiembre	2023-06-09T00:00:00	2024-11-08T09:00:00	1	Precipitación	0
45624	7	Sololá	701	Sololá	1	Sololá	9	Septiembre	2023-06-09T00:00:00	2024-11-08T09:00:00	8	Radiación solar	135
45625	7	Sololá	701	Sololá	1	Sololá	9	Septiembre	2023-06-09T00:00:00	2024-11-08T10:00:00	2	Temperatura media	19.5
45626	7	Sololá	701	Sololá	1	Sololá	9	Septiembre	2023-06-09T00:00:00	2024-11-08T10:00:00	4	Temperatura máxima	19.7
45627	7	Sololá	701	Sololá	1	Sololá	9	Septiembre	2023-06-09T00:00:00	2024-11-08T10:00:00	3	Temperatura mínima	17.3
45628	7	Sololá	701	Sololá	1	Sololá	9	Septiembre	2023-06-09T00:00:00	2024-11-08T10:00:00	5	Humedad	76
45629	7	Sololá	701	Sololá	1	Sololá	9	Septiembre	2023-06-09T00:00:00	2024-11-08T10:00:00	6	Velocidad del viento	0
45630	7	Sololá	701	Sololá	1	Sololá	9	Septiembre	2023-06-09T00:00:00	2024-11-08T10:00:00	7	Dirección del viento	0
45631	7	Sololá	701	Sololá	1	Sololá	9	Septiembre	2023-06-09T00:00:00	2024-11-08T10:00:00	1	Precipitación	0
45632	7	Sololá	701	Sololá	1	Sololá	9	Septiembre	2023-06-09T00:00:00	2024-11-08T10:00:00	8	Radiación solar	345
45633	7	Sololá	701	Sololá	1	Sololá	9	Septiembre	2023-06-09T00:00:00	2024-11-08T11:00:00	2	Temperatura media	19.6
45634	7	Sololá	701	Sololá	1	Sololá	9	Septiembre	2023-06-09T00:00:00	2024-11-08T11:00:00	4	Temperatura máxima	19.8
45635	7	Sololá	701	Sololá	1	Sololá	9	Septiembre	2023-06-09T00:00:00	2024-11-08T11:00:00	3	Temperatura mínima	18.9
45636	7	Sololá	701	Sololá	1	Sololá	9	Septiembre	2023-06-09T00:00:00	2024-11-08T11:00:00	5	Humedad	77
45637	7	Sololá	701	Sololá	1	Sololá	9	Septiembre	2023-06-09T00:00:00	2024-11-08T11:00:00	6	Velocidad del viento	0
45638	7	Sololá	701	Sololá	1	Sololá	9	Septiembre	2023-06-09T00:00:00	2024-11-08T11:00:00	7	Dirección del viento	0
45639	7	Sololá	701	Sololá	1	Sololá	9	Septiembre	2023-06-09T00:00:00	2024-11-08T11:00:00	1	Precipitación	0
45640	7	Sololá	701	Sololá	1	Sololá	9	Septiembre	2023-06-09T00:00:00	2024-11-08T11:00:00	8	Radiación solar	288
45641	7	Sololá	701	Sololá	1	Sololá	9	Septiembre	2023-06-09T00:00:00	2024-11-08T12:00:00	2	Temperatura media	20.6
45642	7	Sololá	701	Sololá	1	Sololá	9	Septiembre	2023-06-09T00:00:00	2024-11-08T12:00:00	4	Temperatura máxima	20.6
45643	7	Sololá	701	Sololá	1	Sololá	9	Septiembre	2023-06-09T00:00:00	2024-11-08T12:00:00	3	Temperatura mínima	19.4
45644	7	Sololá	701	Sololá	1	Sololá	9	Septiembre	2023-06-09T00:00:00	2024-11-08T12:00:00	5	Humedad	78
45645	7	Sololá	701	Sololá	1	Sololá	9	Septiembre	2023-06-09T00:00:00	2024-11-08T12:00:00	6	Velocidad del viento	0
45646	7	Sololá	701	Sololá	1	Sololá	9	Septiembre	2023-06-09T00:00:00	2024-11-08T12:00:00	7	Dirección del viento	0
45647	7	Sololá	701	Sololá	1	Sololá	9	Septiembre	2023-06-09T00:00:00	2024-11-08T12:00:00	1	Precipitación	0
45648	7	Sololá	701	Sololá	1	Sololá	9	Septiembre	2023-06-09T00:00:00	2024-11-08T12:00:00	8	Radiación solar	375
45649	7	Sololá	701	Sololá	1	Sololá	9	Septiembre	2023-06-09T00:00:00	2024-11-08T13:00:00	2	Temperatura media	21.3
45650	7	Sololá	701	Sololá	1	Sololá	9	Septiembre	2023-06-09T00:00:00	2024-11-08T13:00:00	4	Temperatura máxima	21.4
45651	7	Sololá	701	Sololá	1	Sololá	9	Septiembre	2023-06-09T00:00:00	2024-11-08T13:00:00	3	Temperatura mínima	20.5
45652	7	Sololá	701	Sololá	1	Sololá	9	Septiembre	2023-06-09T00:00:00	2024-11-08T13:00:00	5	Humedad	75
45653	7	Sololá	701	Sololá	1	Sololá	9	Septiembre	2023-06-09T00:00:00	2024-11-08T13:00:00	6	Velocidad del viento	0
45654	7	Sololá	701	Sololá	1	Sololá	9	Septiembre	2023-06-09T00:00:00	2024-11-08T13:00:00	7	Dirección del viento	0
45655	7	Sololá	701	Sololá	1	Sololá	9	Septiembre	2023-06-09T00:00:00	2024-11-08T13:00:00	1	Precipitación	0
45656	7	Sololá	701	Sololá	1	Sololá	9	Septiembre	2023-06-09T00:00:00	2024-11-08T13:00:00	8	Radiación solar	299
45657	7	Sololá	701	Sololá	1	Sololá	9	Septiembre	2023-06-09T00:00:00	2024-11-08T14:00:00	2	Temperatura media	21.9
45658	7	Sololá	701	Sololá	1	Sololá	9	Septiembre	2023-06-09T00:00:00	2024-11-08T14:00:00	4	Temperatura máxima	21.9
45659	7	Sololá	701	Sololá	1	Sololá	9	Septiembre	2023-06-09T00:00:00	2024-11-08T14:00:00	3	Temperatura mínima	21.1
45660	7	Sololá	701	Sololá	1	Sololá	9	Septiembre	2023-06-09T00:00:00	2024-11-08T14:00:00	5	Humedad	74
45661	7	Sololá	701	Sololá	1	Sololá	9	Septiembre	2023-06-09T00:00:00	2024-11-08T14:00:00	6	Velocidad del viento	0
45662	7	Sololá	701	Sololá	1	Sololá	9	Septiembre	2023-06-09T00:00:00	2024-11-08T14:00:00	7	Dirección del viento	0
45663	7	Sololá	701	Sololá	1	Sololá	9	Septiembre	2023-06-09T00:00:00	2024-11-08T14:00:00	1	Precipitación	0
45664	7	Sololá	701	Sololá	1	Sololá	9	Septiembre	2023-06-09T00:00:00	2024-11-08T14:00:00	8	Radiación solar	143
45665	7	Sololá	701	Sololá	1	Sololá	9	Septiembre	2023-06-09T00:00:00	2024-11-08T15:00:00	2	Temperatura media	21.4
45666	7	Sololá	701	Sololá	1	Sololá	9	Septiembre	2023-06-09T00:00:00	2024-11-08T15:00:00	4	Temperatura máxima	22.2
45667	7	Sololá	701	Sololá	1	Sololá	9	Septiembre	2023-06-09T00:00:00	2024-11-08T15:00:00	3	Temperatura mínima	21.4
45668	7	Sololá	701	Sololá	1	Sololá	9	Septiembre	2023-06-09T00:00:00	2024-11-08T15:00:00	5	Humedad	79
45669	7	Sololá	701	Sololá	1	Sololá	9	Septiembre	2023-06-09T00:00:00	2024-11-08T15:00:00	6	Velocidad del viento	0
45670	7	Sololá	701	Sololá	1	Sololá	9	Septiembre	2023-06-09T00:00:00	2024-11-08T15:00:00	7	Dirección del viento	0
45671	7	Sololá	701	Sololá	1	Sololá	9	Septiembre	2023-06-09T00:00:00	2024-11-08T15:00:00	1	Precipitación	0
45672	7	Sololá	701	Sololá	1	Sololá	9	Septiembre	2023-06-09T00:00:00	2024-11-08T15:00:00	8	Radiación solar	175
45673	7	Sololá	701	Sololá	1	Sololá	9	Septiembre	2023-06-09T00:00:00	2024-11-08T16:00:00	2	Temperatura media	20.2
45674	7	Sololá	701	Sololá	1	Sololá	9	Septiembre	2023-06-09T00:00:00	2024-11-08T16:00:00	4	Temperatura máxima	21.7
45675	7	Sololá	701	Sololá	1	Sololá	9	Septiembre	2023-06-09T00:00:00	2024-11-08T16:00:00	3	Temperatura mínima	20.2
45676	7	Sololá	701	Sololá	1	Sololá	9	Septiembre	2023-06-09T00:00:00	2024-11-08T16:00:00	5	Humedad	78
45677	7	Sololá	701	Sololá	1	Sololá	9	Septiembre	2023-06-09T00:00:00	2024-11-08T16:00:00	6	Velocidad del viento	0
45678	7	Sololá	701	Sololá	1	Sololá	9	Septiembre	2023-06-09T00:00:00	2024-11-08T16:00:00	7	Dirección del viento	0
45679	7	Sololá	701	Sololá	1	Sololá	9	Septiembre	2023-06-09T00:00:00	2024-11-08T16:00:00	1	Precipitación	0
45680	7	Sololá	701	Sololá	1	Sololá	9	Septiembre	2023-06-09T00:00:00	2024-11-08T16:00:00	8	Radiación solar	96
45681	7	Sololá	701	Sololá	1	Sololá	9	Septiembre	2023-06-09T00:00:00	2024-11-08T17:00:00	2	Temperatura media	19.1
45682	7	Sololá	701	Sololá	1	Sololá	9	Septiembre	2023-06-09T00:00:00	2024-11-08T17:00:00	4	Temperatura máxima	20.2
45683	7	Sololá	701	Sololá	1	Sololá	9	Septiembre	2023-06-09T00:00:00	2024-11-08T17:00:00	3	Temperatura mínima	19.1
45684	7	Sololá	701	Sololá	1	Sololá	9	Septiembre	2023-06-09T00:00:00	2024-11-08T17:00:00	5	Humedad	86
45685	7	Sololá	701	Sololá	1	Sololá	9	Septiembre	2023-06-09T00:00:00	2024-11-08T17:00:00	6	Velocidad del viento	0
45686	7	Sololá	701	Sololá	1	Sololá	9	Septiembre	2023-06-09T00:00:00	2024-11-08T17:00:00	7	Dirección del viento	0
45687	7	Sololá	701	Sololá	1	Sololá	9	Septiembre	2023-06-09T00:00:00	2024-11-08T17:00:00	1	Precipitación	0
45688	7	Sololá	701	Sololá	1	Sololá	9	Septiembre	2023-06-09T00:00:00	2024-11-08T17:00:00	8	Radiación solar	28
45689	7	Sololá	701	Sololá	1	Sololá	9	Septiembre	2023-06-09T00:00:00	2024-11-08T18:00:00	2	Temperatura media	19.3
45690	7	Sololá	701	Sololá	1	Sololá	9	Septiembre	2023-06-09T00:00:00	2024-11-08T18:00:00	4	Temperatura máxima	20
45691	7	Sololá	701	Sololá	1	Sololá	9	Septiembre	2023-06-09T00:00:00	2024-11-08T18:00:00	3	Temperatura mínima	19.1
45692	7	Sololá	701	Sololá	1	Sololá	9	Septiembre	2023-06-09T00:00:00	2024-11-08T18:00:00	5	Humedad	89
45693	7	Sololá	701	Sololá	1	Sololá	9	Septiembre	2023-06-09T00:00:00	2024-11-08T18:00:00	6	Velocidad del viento	0
45694	7	Sololá	701	Sololá	1	Sololá	9	Septiembre	2023-06-09T00:00:00	2024-11-08T18:00:00	7	Dirección del viento	0
45695	7	Sololá	701	Sololá	1	Sololá	9	Septiembre	2023-06-09T00:00:00	2024-11-08T18:00:00	1	Precipitación	0
45696	7	Sololá	701	Sololá	1	Sololá	9	Septiembre	2023-06-09T00:00:00	2024-11-08T18:00:00	8	Radiación solar	68
45697	7	Sololá	701	Sololá	1	Sololá	9	Septiembre	2023-06-09T00:00:00	2024-11-08T19:00:00	2	Temperatura media	17.4
45698	7	Sololá	701	Sololá	1	Sololá	9	Septiembre	2023-06-09T00:00:00	2024-11-08T19:00:00	4	Temperatura máxima	19.3
45699	7	Sololá	701	Sololá	1	Sololá	9	Septiembre	2023-06-09T00:00:00	2024-11-08T19:00:00	3	Temperatura mínima	17.4
45700	7	Sololá	701	Sololá	1	Sololá	9	Septiembre	2023-06-09T00:00:00	2024-11-08T19:00:00	5	Humedad	87
45701	7	Sololá	701	Sololá	1	Sololá	9	Septiembre	2023-06-09T00:00:00	2024-11-08T19:00:00	6	Velocidad del viento	0
45702	7	Sololá	701	Sololá	1	Sololá	9	Septiembre	2023-06-09T00:00:00	2024-11-08T19:00:00	7	Dirección del viento	0
45703	7	Sololá	701	Sololá	1	Sololá	9	Septiembre	2023-06-09T00:00:00	2024-11-08T19:00:00	1	Precipitación	0
45704	7	Sololá	701	Sololá	1	Sololá	9	Septiembre	2023-06-09T00:00:00	2024-11-08T19:00:00	8	Radiación solar	0
45705	7	Sololá	701	Sololá	1	Sololá	9	Septiembre	2023-06-09T00:00:00	2024-11-08T20:00:00	2	Temperatura media	15.9
45706	7	Sololá	701	Sololá	1	Sololá	9	Septiembre	2023-06-09T00:00:00	2024-11-08T20:00:00	4	Temperatura máxima	17.4
45707	7	Sololá	701	Sololá	1	Sololá	9	Septiembre	2023-06-09T00:00:00	2024-11-08T20:00:00	3	Temperatura mínima	15.9
45708	7	Sololá	701	Sololá	1	Sololá	9	Septiembre	2023-06-09T00:00:00	2024-11-08T20:00:00	5	Humedad	89
45709	7	Sololá	701	Sololá	1	Sololá	9	Septiembre	2023-06-09T00:00:00	2024-11-08T20:00:00	6	Velocidad del viento	0
45710	7	Sololá	701	Sololá	1	Sololá	9	Septiembre	2023-06-09T00:00:00	2024-11-08T20:00:00	7	Dirección del viento	0
45711	7	Sololá	701	Sololá	1	Sololá	9	Septiembre	2023-06-09T00:00:00	2024-11-08T20:00:00	1	Precipitación	0
45712	7	Sololá	701	Sololá	1	Sololá	9	Septiembre	2023-06-09T00:00:00	2024-11-08T20:00:00	8	Radiación solar	0
45713	7	Sololá	701	Sololá	1	Sololá	9	Septiembre	2023-06-09T00:00:00	2024-11-08T21:00:00	2	Temperatura media	15.2
45714	7	Sololá	701	Sololá	1	Sololá	9	Septiembre	2023-06-09T00:00:00	2024-11-08T21:00:00	4	Temperatura máxima	15.9
45715	7	Sololá	701	Sololá	1	Sololá	9	Septiembre	2023-06-09T00:00:00	2024-11-08T21:00:00	3	Temperatura mínima	15.2
45716	7	Sololá	701	Sololá	1	Sololá	9	Septiembre	2023-06-09T00:00:00	2024-11-08T21:00:00	5	Humedad	91
45717	7	Sololá	701	Sololá	1	Sololá	9	Septiembre	2023-06-09T00:00:00	2024-11-08T21:00:00	6	Velocidad del viento	0
45718	7	Sololá	701	Sololá	1	Sololá	9	Septiembre	2023-06-09T00:00:00	2024-11-08T21:00:00	7	Dirección del viento	0
45719	7	Sololá	701	Sololá	1	Sololá	9	Septiembre	2023-06-09T00:00:00	2024-11-08T21:00:00	1	Precipitación	0
45720	7	Sololá	701	Sololá	1	Sololá	9	Septiembre	2023-06-09T00:00:00	2024-11-08T21:00:00	8	Radiación solar	0
45721	7	Sololá	701	Sololá	1	Sololá	9	Septiembre	2023-06-09T00:00:00	2024-11-08T22:00:00	2	Temperatura media	15.1
45722	7	Sololá	701	Sololá	1	Sololá	9	Septiembre	2023-06-09T00:00:00	2024-11-08T22:00:00	4	Temperatura máxima	15.2
45723	7	Sololá	701	Sololá	1	Sololá	9	Septiembre	2023-06-09T00:00:00	2024-11-08T22:00:00	3	Temperatura mínima	15.1
45724	7	Sololá	701	Sololá	1	Sololá	9	Septiembre	2023-06-09T00:00:00	2024-11-08T22:00:00	5	Humedad	92
45725	7	Sololá	701	Sololá	1	Sololá	9	Septiembre	2023-06-09T00:00:00	2024-11-08T22:00:00	6	Velocidad del viento	0
45726	7	Sololá	701	Sololá	1	Sololá	9	Septiembre	2023-06-09T00:00:00	2024-11-08T22:00:00	7	Dirección del viento	0
45727	7	Sololá	701	Sololá	1	Sololá	9	Septiembre	2023-06-09T00:00:00	2024-11-08T22:00:00	1	Precipitación	0
45728	7	Sololá	701	Sololá	1	Sololá	9	Septiembre	2023-06-09T00:00:00	2024-11-08T22:00:00	8	Radiación solar	0
45729	7	Sololá	701	Sololá	1	Sololá	9	Septiembre	2023-06-09T00:00:00	2024-11-08T23:00:00	2	Temperatura media	14.7
45730	7	Sololá	701	Sololá	1	Sololá	9	Septiembre	2023-06-09T00:00:00	2024-11-08T23:00:00	4	Temperatura máxima	15.1
45731	7	Sololá	701	Sololá	1	Sololá	9	Septiembre	2023-06-09T00:00:00	2024-11-08T23:00:00	3	Temperatura mínima	14.6
45732	7	Sololá	701	Sololá	1	Sololá	9	Septiembre	2023-06-09T00:00:00	2024-11-08T23:00:00	5	Humedad	92
45733	7	Sololá	701	Sololá	1	Sololá	9	Septiembre	2023-06-09T00:00:00	2024-11-08T23:00:00	6	Velocidad del viento	0
45734	7	Sololá	701	Sololá	1	Sololá	9	Septiembre	2023-06-09T00:00:00	2024-11-08T23:00:00	7	Dirección del viento	0
45735	7	Sololá	701	Sololá	1	Sololá	9	Septiembre	2023-06-09T00:00:00	2024-11-08T23:00:00	1	Precipitación	0
45736	7	Sololá	701	Sololá	1	Sololá	9	Septiembre	2023-06-09T00:00:00	2024-11-08T23:00:00	8	Radiación solar	0
45737	7	Sololá	701	Sololá	1	Sololá	9	Septiembre	2023-07-09T00:00:00	2024-11-08T00:00:00	2	Temperatura media	14.7
45738	7	Sololá	701	Sololá	1	Sololá	9	Septiembre	2023-07-09T00:00:00	2024-11-08T00:00:00	4	Temperatura máxima	14.7
45739	7	Sololá	701	Sololá	1	Sololá	9	Septiembre	2023-07-09T00:00:00	2024-11-08T00:00:00	3	Temperatura mínima	14.6
45740	7	Sololá	701	Sololá	1	Sololá	9	Septiembre	2023-07-09T00:00:00	2024-11-08T00:00:00	5	Humedad	92
45741	7	Sololá	701	Sololá	1	Sololá	9	Septiembre	2023-07-09T00:00:00	2024-11-08T00:00:00	6	Velocidad del viento	0
45742	7	Sololá	701	Sololá	1	Sololá	9	Septiembre	2023-07-09T00:00:00	2024-11-08T00:00:00	7	Dirección del viento	0
45743	7	Sololá	701	Sololá	1	Sololá	9	Septiembre	2023-07-09T00:00:00	2024-11-08T00:00:00	1	Precipitación	0
45744	7	Sololá	701	Sololá	1	Sololá	9	Septiembre	2023-07-09T00:00:00	2024-11-08T00:00:00	8	Radiación solar	0
45745	7	Sololá	701	Sololá	1	Sololá	9	Septiembre	2023-07-09T00:00:00	2024-11-08T01:00:00	2	Temperatura media	14.2
45746	7	Sololá	701	Sololá	1	Sololá	9	Septiembre	2023-07-09T00:00:00	2024-11-08T01:00:00	4	Temperatura máxima	14.7
45747	7	Sololá	701	Sololá	1	Sololá	9	Septiembre	2023-07-09T00:00:00	2024-11-08T01:00:00	3	Temperatura mínima	14.2
45748	7	Sololá	701	Sololá	1	Sololá	9	Septiembre	2023-07-09T00:00:00	2024-11-08T01:00:00	5	Humedad	92
45749	7	Sololá	701	Sololá	1	Sololá	9	Septiembre	2023-07-09T00:00:00	2024-11-08T01:00:00	6	Velocidad del viento	0
45750	7	Sololá	701	Sololá	1	Sololá	9	Septiembre	2023-07-09T00:00:00	2024-11-08T01:00:00	7	Dirección del viento	0
45751	7	Sololá	701	Sololá	1	Sololá	9	Septiembre	2023-07-09T00:00:00	2024-11-08T01:00:00	1	Precipitación	0
45752	7	Sololá	701	Sololá	1	Sololá	9	Septiembre	2023-07-09T00:00:00	2024-11-08T01:00:00	8	Radiación solar	0
45753	7	Sololá	701	Sololá	1	Sololá	9	Septiembre	2023-07-09T00:00:00	2024-11-08T02:00:00	2	Temperatura media	13.9
45754	7	Sololá	701	Sololá	1	Sololá	9	Septiembre	2023-07-09T00:00:00	2024-11-08T02:00:00	4	Temperatura máxima	14.2
45755	7	Sololá	701	Sololá	1	Sololá	9	Septiembre	2023-07-09T00:00:00	2024-11-08T02:00:00	3	Temperatura mínima	13.9
45756	7	Sololá	701	Sololá	1	Sololá	9	Septiembre	2023-07-09T00:00:00	2024-11-08T02:00:00	5	Humedad	93
45757	7	Sololá	701	Sololá	1	Sololá	9	Septiembre	2023-07-09T00:00:00	2024-11-08T02:00:00	6	Velocidad del viento	0
45758	7	Sololá	701	Sololá	1	Sololá	9	Septiembre	2023-07-09T00:00:00	2024-11-08T02:00:00	7	Dirección del viento	0
45759	7	Sololá	701	Sololá	1	Sololá	9	Septiembre	2023-07-09T00:00:00	2024-11-08T02:00:00	1	Precipitación	0
45760	7	Sololá	701	Sololá	1	Sololá	9	Septiembre	2023-07-09T00:00:00	2024-11-08T02:00:00	8	Radiación solar	0
45761	7	Sololá	701	Sololá	1	Sololá	9	Septiembre	2023-07-09T00:00:00	2024-11-08T03:00:00	2	Temperatura media	13.6
45762	7	Sololá	701	Sololá	1	Sololá	9	Septiembre	2023-07-09T00:00:00	2024-11-08T03:00:00	4	Temperatura máxima	13.9
45763	7	Sololá	701	Sololá	1	Sololá	9	Septiembre	2023-07-09T00:00:00	2024-11-08T03:00:00	3	Temperatura mínima	13.6
45764	7	Sololá	701	Sololá	1	Sololá	9	Septiembre	2023-07-09T00:00:00	2024-11-08T03:00:00	5	Humedad	94
45765	7	Sololá	701	Sololá	1	Sololá	9	Septiembre	2023-07-09T00:00:00	2024-11-08T03:00:00	6	Velocidad del viento	0
45766	7	Sololá	701	Sololá	1	Sololá	9	Septiembre	2023-07-09T00:00:00	2024-11-08T03:00:00	7	Dirección del viento	0
45767	7	Sololá	701	Sololá	1	Sololá	9	Septiembre	2023-07-09T00:00:00	2024-11-08T03:00:00	1	Precipitación	0
45768	7	Sololá	701	Sololá	1	Sololá	9	Septiembre	2023-07-09T00:00:00	2024-11-08T03:00:00	8	Radiación solar	0
45769	7	Sololá	701	Sololá	1	Sololá	9	Septiembre	2023-07-09T00:00:00	2024-11-08T04:00:00	2	Temperatura media	13.3
45770	7	Sololá	701	Sololá	1	Sololá	9	Septiembre	2023-07-09T00:00:00	2024-11-08T04:00:00	4	Temperatura máxima	13.6
45771	7	Sololá	701	Sololá	1	Sololá	9	Septiembre	2023-07-09T00:00:00	2024-11-08T04:00:00	3	Temperatura mínima	13.3
45772	7	Sololá	701	Sololá	1	Sololá	9	Septiembre	2023-07-09T00:00:00	2024-11-08T04:00:00	5	Humedad	94
45773	7	Sololá	701	Sololá	1	Sololá	9	Septiembre	2023-07-09T00:00:00	2024-11-08T04:00:00	6	Velocidad del viento	0
45774	7	Sololá	701	Sololá	1	Sololá	9	Septiembre	2023-07-09T00:00:00	2024-11-08T04:00:00	7	Dirección del viento	0
45775	7	Sololá	701	Sololá	1	Sololá	9	Septiembre	2023-07-09T00:00:00	2024-11-08T04:00:00	1	Precipitación	0
45776	7	Sololá	701	Sololá	1	Sololá	9	Septiembre	2023-07-09T00:00:00	2024-11-08T04:00:00	8	Radiación solar	0
45777	7	Sololá	701	Sololá	1	Sololá	9	Septiembre	2023-07-09T00:00:00	2024-11-08T05:00:00	2	Temperatura media	13.3
45778	7	Sololá	701	Sololá	1	Sololá	9	Septiembre	2023-07-09T00:00:00	2024-11-08T05:00:00	4	Temperatura máxima	13.4
45779	7	Sololá	701	Sololá	1	Sololá	9	Septiembre	2023-07-09T00:00:00	2024-11-08T05:00:00	3	Temperatura mínima	13.3
45780	7	Sololá	701	Sololá	1	Sololá	9	Septiembre	2023-07-09T00:00:00	2024-11-08T05:00:00	5	Humedad	94
45781	7	Sololá	701	Sololá	1	Sololá	9	Septiembre	2023-07-09T00:00:00	2024-11-08T05:00:00	6	Velocidad del viento	0
45782	7	Sololá	701	Sololá	1	Sololá	9	Septiembre	2023-07-09T00:00:00	2024-11-08T05:00:00	7	Dirección del viento	0
45783	7	Sololá	701	Sololá	1	Sololá	9	Septiembre	2023-07-09T00:00:00	2024-11-08T05:00:00	1	Precipitación	0
45784	7	Sololá	701	Sololá	1	Sololá	9	Septiembre	2023-07-09T00:00:00	2024-11-08T05:00:00	8	Radiación solar	0
45785	7	Sololá	701	Sololá	1	Sololá	9	Septiembre	2023-07-09T00:00:00	2024-11-08T06:00:00	2	Temperatura media	13.7
45786	7	Sololá	701	Sololá	1	Sololá	9	Septiembre	2023-07-09T00:00:00	2024-11-08T06:00:00	4	Temperatura máxima	13.7
45787	7	Sololá	701	Sololá	1	Sololá	9	Septiembre	2023-07-09T00:00:00	2024-11-08T06:00:00	3	Temperatura mínima	13.3
45788	7	Sololá	701	Sololá	1	Sololá	9	Septiembre	2023-07-09T00:00:00	2024-11-08T06:00:00	5	Humedad	95
45789	7	Sololá	701	Sololá	1	Sololá	9	Septiembre	2023-07-09T00:00:00	2024-11-08T06:00:00	6	Velocidad del viento	0
45790	7	Sololá	701	Sololá	1	Sololá	9	Septiembre	2023-07-09T00:00:00	2024-11-08T06:00:00	7	Dirección del viento	0
45791	7	Sololá	701	Sololá	1	Sololá	9	Septiembre	2023-07-09T00:00:00	2024-11-08T06:00:00	1	Precipitación	0
45792	7	Sololá	701	Sololá	1	Sololá	9	Septiembre	2023-07-09T00:00:00	2024-11-08T06:00:00	8	Radiación solar	0
45793	7	Sololá	701	Sololá	1	Sololá	9	Septiembre	2023-07-09T00:00:00	2024-11-08T07:00:00	2	Temperatura media	14.3
45794	7	Sololá	701	Sololá	1	Sololá	9	Septiembre	2023-07-09T00:00:00	2024-11-08T07:00:00	4	Temperatura máxima	14.3
45795	7	Sololá	701	Sololá	1	Sololá	9	Septiembre	2023-07-09T00:00:00	2024-11-08T07:00:00	3	Temperatura mínima	13.7
45796	7	Sololá	701	Sololá	1	Sololá	9	Septiembre	2023-07-09T00:00:00	2024-11-08T07:00:00	5	Humedad	95
45797	7	Sololá	701	Sololá	1	Sololá	9	Septiembre	2023-07-09T00:00:00	2024-11-08T07:00:00	6	Velocidad del viento	0
45798	7	Sololá	701	Sololá	1	Sololá	9	Septiembre	2023-07-09T00:00:00	2024-11-08T07:00:00	7	Dirección del viento	0
45799	7	Sololá	701	Sololá	1	Sololá	9	Septiembre	2023-07-09T00:00:00	2024-11-08T07:00:00	1	Precipitación	0
45800	7	Sololá	701	Sololá	1	Sololá	9	Septiembre	2023-07-09T00:00:00	2024-11-08T07:00:00	8	Radiación solar	25
45801	7	Sololá	701	Sololá	1	Sololá	9	Septiembre	2023-07-09T00:00:00	2024-11-08T08:00:00	2	Temperatura media	19.1
45802	7	Sololá	701	Sololá	1	Sololá	9	Septiembre	2023-07-09T00:00:00	2024-11-08T08:00:00	4	Temperatura máxima	19.1
45803	7	Sololá	701	Sololá	1	Sololá	9	Septiembre	2023-07-09T00:00:00	2024-11-08T08:00:00	3	Temperatura mínima	14.3
45804	7	Sololá	701	Sololá	1	Sololá	9	Septiembre	2023-07-09T00:00:00	2024-11-08T08:00:00	5	Humedad	83
45805	7	Sololá	701	Sololá	1	Sololá	9	Septiembre	2023-07-09T00:00:00	2024-11-08T08:00:00	6	Velocidad del viento	0
45806	7	Sololá	701	Sololá	1	Sololá	9	Septiembre	2023-07-09T00:00:00	2024-11-08T08:00:00	7	Dirección del viento	0
45807	7	Sololá	701	Sololá	1	Sololá	9	Septiembre	2023-07-09T00:00:00	2024-11-08T08:00:00	1	Precipitación	0
45808	7	Sololá	701	Sololá	1	Sololá	9	Septiembre	2023-07-09T00:00:00	2024-11-08T08:00:00	8	Radiación solar	293
45809	7	Sololá	701	Sololá	1	Sololá	9	Septiembre	2023-07-09T00:00:00	2024-11-08T09:00:00	2	Temperatura media	21.8
45810	7	Sololá	701	Sololá	1	Sololá	9	Septiembre	2023-07-09T00:00:00	2024-11-08T09:00:00	4	Temperatura máxima	21.9
45811	7	Sololá	701	Sololá	1	Sololá	9	Septiembre	2023-07-09T00:00:00	2024-11-08T09:00:00	3	Temperatura mínima	19.1
45812	7	Sololá	701	Sololá	1	Sololá	9	Septiembre	2023-07-09T00:00:00	2024-11-08T09:00:00	5	Humedad	72
45813	7	Sololá	701	Sololá	1	Sololá	9	Septiembre	2023-07-09T00:00:00	2024-11-08T09:00:00	6	Velocidad del viento	0
45814	7	Sololá	701	Sololá	1	Sololá	9	Septiembre	2023-07-09T00:00:00	2024-11-08T09:00:00	7	Dirección del viento	0
45815	7	Sololá	701	Sololá	1	Sololá	9	Septiembre	2023-07-09T00:00:00	2024-11-08T09:00:00	1	Precipitación	0
45816	7	Sololá	701	Sololá	1	Sololá	9	Septiembre	2023-07-09T00:00:00	2024-11-08T09:00:00	8	Radiación solar	603
45817	7	Sololá	701	Sololá	1	Sololá	9	Septiembre	2023-07-09T00:00:00	2024-11-08T10:00:00	2	Temperatura media	23.4
45818	7	Sololá	701	Sololá	1	Sololá	9	Septiembre	2023-07-09T00:00:00	2024-11-08T10:00:00	4	Temperatura máxima	23.4
45819	7	Sololá	701	Sololá	1	Sololá	9	Septiembre	2023-07-09T00:00:00	2024-11-08T10:00:00	3	Temperatura mínima	21.7
45820	7	Sololá	701	Sololá	1	Sololá	9	Septiembre	2023-07-09T00:00:00	2024-11-08T10:00:00	5	Humedad	71
45821	7	Sololá	701	Sololá	1	Sololá	9	Septiembre	2023-07-09T00:00:00	2024-11-08T10:00:00	6	Velocidad del viento	0
45822	7	Sololá	701	Sololá	1	Sololá	9	Septiembre	2023-07-09T00:00:00	2024-11-08T10:00:00	7	Dirección del viento	0
45823	7	Sololá	701	Sololá	1	Sololá	9	Septiembre	2023-07-09T00:00:00	2024-11-08T10:00:00	1	Precipitación	0
45824	7	Sololá	701	Sololá	1	Sololá	9	Septiembre	2023-07-09T00:00:00	2024-11-08T10:00:00	8	Radiación solar	745
45825	7	Sololá	701	Sololá	1	Sololá	9	Septiembre	2023-07-09T00:00:00	2024-11-08T11:00:00	2	Temperatura media	24.1
45826	7	Sololá	701	Sololá	1	Sololá	9	Septiembre	2023-07-09T00:00:00	2024-11-08T11:00:00	4	Temperatura máxima	24.1
45827	7	Sololá	701	Sololá	1	Sololá	9	Septiembre	2023-07-09T00:00:00	2024-11-08T11:00:00	3	Temperatura mínima	22.6
45828	7	Sololá	701	Sololá	1	Sololá	9	Septiembre	2023-07-09T00:00:00	2024-11-08T11:00:00	5	Humedad	53
45829	7	Sololá	701	Sololá	1	Sololá	9	Septiembre	2023-07-09T00:00:00	2024-11-08T11:00:00	6	Velocidad del viento	0
45830	7	Sololá	701	Sololá	1	Sololá	9	Septiembre	2023-07-09T00:00:00	2024-11-08T11:00:00	7	Dirección del viento	0
45831	7	Sololá	701	Sololá	1	Sololá	9	Septiembre	2023-07-09T00:00:00	2024-11-08T11:00:00	1	Precipitación	0
45832	7	Sololá	701	Sololá	1	Sololá	9	Septiembre	2023-07-09T00:00:00	2024-11-08T11:00:00	8	Radiación solar	620
45833	7	Sololá	701	Sololá	1	Sololá	9	Septiembre	2023-07-09T00:00:00	2024-11-08T12:00:00	2	Temperatura media	24.7
45834	7	Sololá	701	Sololá	1	Sololá	9	Septiembre	2023-07-09T00:00:00	2024-11-08T12:00:00	4	Temperatura máxima	24.7
45835	7	Sololá	701	Sololá	1	Sololá	9	Septiembre	2023-07-09T00:00:00	2024-11-08T12:00:00	3	Temperatura mínima	24
45836	7	Sololá	701	Sololá	1	Sololá	9	Septiembre	2023-07-09T00:00:00	2024-11-08T12:00:00	5	Humedad	58
45837	7	Sololá	701	Sololá	1	Sololá	9	Septiembre	2023-07-09T00:00:00	2024-11-08T12:00:00	6	Velocidad del viento	0
45838	7	Sololá	701	Sololá	1	Sololá	9	Septiembre	2023-07-09T00:00:00	2024-11-08T12:00:00	7	Dirección del viento	0
45839	7	Sololá	701	Sololá	1	Sololá	9	Septiembre	2023-07-09T00:00:00	2024-11-08T12:00:00	1	Precipitación	0
45840	7	Sololá	701	Sololá	1	Sololá	9	Septiembre	2023-07-09T00:00:00	2024-11-08T12:00:00	8	Radiación solar	439
45841	7	Sololá	701	Sololá	1	Sololá	9	Septiembre	2023-07-09T00:00:00	2024-11-08T13:00:00	2	Temperatura media	24.7
45842	7	Sololá	701	Sololá	1	Sololá	9	Septiembre	2023-07-09T00:00:00	2024-11-08T13:00:00	4	Temperatura máxima	25.4
45843	7	Sololá	701	Sololá	1	Sololá	9	Septiembre	2023-07-09T00:00:00	2024-11-08T13:00:00	3	Temperatura mínima	24.7
45844	7	Sololá	701	Sololá	1	Sololá	9	Septiembre	2023-07-09T00:00:00	2024-11-08T13:00:00	5	Humedad	60
45845	7	Sololá	701	Sololá	1	Sololá	9	Septiembre	2023-07-09T00:00:00	2024-11-08T13:00:00	6	Velocidad del viento	0
45846	7	Sololá	701	Sololá	1	Sololá	9	Septiembre	2023-07-09T00:00:00	2024-11-08T13:00:00	7	Dirección del viento	0
45847	7	Sololá	701	Sololá	1	Sololá	9	Septiembre	2023-07-09T00:00:00	2024-11-08T13:00:00	1	Precipitación	0
45848	7	Sololá	701	Sololá	1	Sololá	9	Septiembre	2023-07-09T00:00:00	2024-11-08T13:00:00	8	Radiación solar	327
45849	7	Sololá	701	Sololá	1	Sololá	9	Septiembre	2023-07-09T00:00:00	2024-11-08T14:00:00	2	Temperatura media	21
45850	7	Sololá	701	Sololá	1	Sololá	9	Septiembre	2023-07-09T00:00:00	2024-11-08T14:00:00	4	Temperatura máxima	24.7
45851	7	Sololá	701	Sololá	1	Sololá	9	Septiembre	2023-07-09T00:00:00	2024-11-08T14:00:00	3	Temperatura mínima	21
45852	7	Sololá	701	Sololá	1	Sololá	9	Septiembre	2023-07-09T00:00:00	2024-11-08T14:00:00	5	Humedad	83
45853	7	Sololá	701	Sololá	1	Sololá	9	Septiembre	2023-07-09T00:00:00	2024-11-08T14:00:00	6	Velocidad del viento	0
45854	7	Sololá	701	Sololá	1	Sololá	9	Septiembre	2023-07-09T00:00:00	2024-11-08T14:00:00	7	Dirección del viento	0
45855	7	Sololá	701	Sololá	1	Sololá	9	Septiembre	2023-07-09T00:00:00	2024-11-08T14:00:00	1	Precipitación	0
45856	7	Sololá	701	Sololá	1	Sololá	9	Septiembre	2023-07-09T00:00:00	2024-11-08T14:00:00	8	Radiación solar	167
45857	7	Sololá	701	Sololá	1	Sololá	9	Septiembre	2023-07-09T00:00:00	2024-11-08T15:00:00	2	Temperatura media	19.2
45858	7	Sololá	701	Sololá	1	Sololá	9	Septiembre	2023-07-09T00:00:00	2024-11-08T15:00:00	4	Temperatura máxima	20.9
45859	7	Sololá	701	Sololá	1	Sololá	9	Septiembre	2023-07-09T00:00:00	2024-11-08T15:00:00	3	Temperatura mínima	19.2
45860	7	Sololá	701	Sololá	1	Sololá	9	Septiembre	2023-07-09T00:00:00	2024-11-08T15:00:00	5	Humedad	91
45861	7	Sololá	701	Sololá	1	Sololá	9	Septiembre	2023-07-09T00:00:00	2024-11-08T15:00:00	6	Velocidad del viento	0
45862	7	Sololá	701	Sololá	1	Sololá	9	Septiembre	2023-07-09T00:00:00	2024-11-08T15:00:00	7	Dirección del viento	0
45863	7	Sololá	701	Sololá	1	Sololá	9	Septiembre	2023-07-09T00:00:00	2024-11-08T15:00:00	1	Precipitación	0
45864	7	Sololá	701	Sololá	1	Sololá	9	Septiembre	2023-07-09T00:00:00	2024-11-08T15:00:00	8	Radiación solar	75
45865	7	Sololá	701	Sololá	1	Sololá	9	Septiembre	2023-07-09T00:00:00	2024-11-08T16:00:00	2	Temperatura media	18.5
45866	7	Sololá	701	Sololá	1	Sololá	9	Septiembre	2023-07-09T00:00:00	2024-11-08T16:00:00	4	Temperatura máxima	19.2
45867	7	Sololá	701	Sololá	1	Sololá	9	Septiembre	2023-07-09T00:00:00	2024-11-08T16:00:00	3	Temperatura mínima	18.5
45868	7	Sololá	701	Sololá	1	Sololá	9	Septiembre	2023-07-09T00:00:00	2024-11-08T16:00:00	5	Humedad	92
45869	7	Sololá	701	Sololá	1	Sololá	9	Septiembre	2023-07-09T00:00:00	2024-11-08T16:00:00	6	Velocidad del viento	0
45870	7	Sololá	701	Sololá	1	Sololá	9	Septiembre	2023-07-09T00:00:00	2024-11-08T16:00:00	7	Dirección del viento	0
45871	7	Sololá	701	Sololá	1	Sololá	9	Septiembre	2023-07-09T00:00:00	2024-11-08T16:00:00	1	Precipitación	0
45872	7	Sololá	701	Sololá	1	Sololá	9	Septiembre	2023-07-09T00:00:00	2024-11-08T16:00:00	8	Radiación solar	44
45873	7	Sololá	701	Sololá	1	Sololá	9	Septiembre	2023-07-09T00:00:00	2024-11-08T17:00:00	2	Temperatura media	17.8
45874	7	Sololá	701	Sololá	1	Sololá	9	Septiembre	2023-07-09T00:00:00	2024-11-08T17:00:00	4	Temperatura máxima	18.6
45875	7	Sololá	701	Sololá	1	Sololá	9	Septiembre	2023-07-09T00:00:00	2024-11-08T17:00:00	3	Temperatura mínima	17.8
45876	7	Sololá	701	Sololá	1	Sololá	9	Septiembre	2023-07-09T00:00:00	2024-11-08T17:00:00	5	Humedad	93
45877	7	Sololá	701	Sololá	1	Sololá	9	Septiembre	2023-07-09T00:00:00	2024-11-08T17:00:00	6	Velocidad del viento	0
45878	7	Sololá	701	Sololá	1	Sololá	9	Septiembre	2023-07-09T00:00:00	2024-11-08T17:00:00	7	Dirección del viento	0
45879	7	Sololá	701	Sololá	1	Sololá	9	Septiembre	2023-07-09T00:00:00	2024-11-08T17:00:00	1	Precipitación	0
45880	7	Sololá	701	Sololá	1	Sololá	9	Septiembre	2023-07-09T00:00:00	2024-11-08T17:00:00	8	Radiación solar	11
45881	7	Sololá	701	Sololá	1	Sololá	9	Septiembre	2023-07-09T00:00:00	2024-11-08T18:00:00	2	Temperatura media	16.9
45882	7	Sololá	701	Sololá	1	Sololá	9	Septiembre	2023-07-09T00:00:00	2024-11-08T18:00:00	4	Temperatura máxima	17.8
45883	7	Sololá	701	Sololá	1	Sololá	9	Septiembre	2023-07-09T00:00:00	2024-11-08T18:00:00	3	Temperatura mínima	16.9
45884	7	Sololá	701	Sololá	1	Sololá	9	Septiembre	2023-07-09T00:00:00	2024-11-08T18:00:00	5	Humedad	86
45885	7	Sololá	701	Sololá	1	Sololá	9	Septiembre	2023-07-09T00:00:00	2024-11-08T18:00:00	6	Velocidad del viento	0
45886	7	Sololá	701	Sololá	1	Sololá	9	Septiembre	2023-07-09T00:00:00	2024-11-08T18:00:00	7	Dirección del viento	0
45887	7	Sololá	701	Sololá	1	Sololá	9	Septiembre	2023-07-09T00:00:00	2024-11-08T18:00:00	1	Precipitación	0
45888	7	Sololá	701	Sololá	1	Sololá	9	Septiembre	2023-07-09T00:00:00	2024-11-08T18:00:00	8	Radiación solar	7
45889	7	Sololá	701	Sololá	1	Sololá	9	Septiembre	2023-07-09T00:00:00	2024-11-08T19:00:00	2	Temperatura media	16.1
45890	7	Sololá	701	Sololá	1	Sololá	9	Septiembre	2023-07-09T00:00:00	2024-11-08T19:00:00	4	Temperatura máxima	17
45891	7	Sololá	701	Sololá	1	Sololá	9	Septiembre	2023-07-09T00:00:00	2024-11-08T19:00:00	3	Temperatura mínima	16.1
45892	7	Sololá	701	Sololá	1	Sololá	9	Septiembre	2023-07-09T00:00:00	2024-11-08T19:00:00	5	Humedad	91
45893	7	Sololá	701	Sololá	1	Sololá	9	Septiembre	2023-07-09T00:00:00	2024-11-08T19:00:00	6	Velocidad del viento	0
45894	7	Sololá	701	Sololá	1	Sololá	9	Septiembre	2023-07-09T00:00:00	2024-11-08T19:00:00	7	Dirección del viento	0
45895	7	Sololá	701	Sololá	1	Sololá	9	Septiembre	2023-07-09T00:00:00	2024-11-08T19:00:00	1	Precipitación	0
45896	7	Sololá	701	Sololá	1	Sololá	9	Septiembre	2023-07-09T00:00:00	2024-11-08T19:00:00	8	Radiación solar	0
45897	7	Sololá	701	Sololá	1	Sololá	9	Septiembre	2023-07-09T00:00:00	2024-11-08T20:00:00	2	Temperatura media	15.9
45898	7	Sololá	701	Sololá	1	Sololá	9	Septiembre	2023-07-09T00:00:00	2024-11-08T20:00:00	4	Temperatura máxima	16.3
45899	7	Sololá	701	Sololá	1	Sololá	9	Septiembre	2023-07-09T00:00:00	2024-11-08T20:00:00	3	Temperatura mínima	15.9
45900	7	Sololá	701	Sololá	1	Sololá	9	Septiembre	2023-07-09T00:00:00	2024-11-08T20:00:00	5	Humedad	88
45901	7	Sololá	701	Sololá	1	Sololá	9	Septiembre	2023-07-09T00:00:00	2024-11-08T20:00:00	6	Velocidad del viento	0
45902	7	Sololá	701	Sololá	1	Sololá	9	Septiembre	2023-07-09T00:00:00	2024-11-08T20:00:00	7	Dirección del viento	0
45903	7	Sololá	701	Sololá	1	Sololá	9	Septiembre	2023-07-09T00:00:00	2024-11-08T20:00:00	1	Precipitación	0
45904	7	Sololá	701	Sololá	1	Sololá	9	Septiembre	2023-07-09T00:00:00	2024-11-08T20:00:00	8	Radiación solar	0
45905	7	Sololá	701	Sololá	1	Sololá	9	Septiembre	2023-07-09T00:00:00	2024-11-08T21:00:00	2	Temperatura media	15.6
45906	7	Sololá	701	Sololá	1	Sololá	9	Septiembre	2023-07-09T00:00:00	2024-11-08T21:00:00	4	Temperatura máxima	15.9
45907	7	Sololá	701	Sololá	1	Sololá	9	Septiembre	2023-07-09T00:00:00	2024-11-08T21:00:00	3	Temperatura mínima	15.6
45908	7	Sololá	701	Sololá	1	Sololá	9	Septiembre	2023-07-09T00:00:00	2024-11-08T21:00:00	5	Humedad	88
45909	7	Sololá	701	Sololá	1	Sololá	9	Septiembre	2023-07-09T00:00:00	2024-11-08T21:00:00	6	Velocidad del viento	0
45910	7	Sololá	701	Sololá	1	Sololá	9	Septiembre	2023-07-09T00:00:00	2024-11-08T21:00:00	7	Dirección del viento	0
45911	7	Sololá	701	Sololá	1	Sololá	9	Septiembre	2023-07-09T00:00:00	2024-11-08T21:00:00	1	Precipitación	0
45912	7	Sololá	701	Sololá	1	Sololá	9	Septiembre	2023-07-09T00:00:00	2024-11-08T21:00:00	8	Radiación solar	0
45913	7	Sololá	701	Sololá	1	Sololá	9	Septiembre	2023-07-09T00:00:00	2024-11-08T22:00:00	2	Temperatura media	15.2
45914	7	Sololá	701	Sololá	1	Sololá	9	Septiembre	2023-07-09T00:00:00	2024-11-08T22:00:00	4	Temperatura máxima	15.7
45915	7	Sololá	701	Sololá	1	Sololá	9	Septiembre	2023-07-09T00:00:00	2024-11-08T22:00:00	3	Temperatura mínima	15.2
45916	7	Sololá	701	Sololá	1	Sololá	9	Septiembre	2023-07-09T00:00:00	2024-11-08T22:00:00	5	Humedad	89
45917	7	Sololá	701	Sololá	1	Sololá	9	Septiembre	2023-07-09T00:00:00	2024-11-08T22:00:00	6	Velocidad del viento	0
45918	7	Sololá	701	Sololá	1	Sololá	9	Septiembre	2023-07-09T00:00:00	2024-11-08T22:00:00	7	Dirección del viento	0
45919	7	Sololá	701	Sololá	1	Sololá	9	Septiembre	2023-07-09T00:00:00	2024-11-08T22:00:00	1	Precipitación	0
45920	7	Sololá	701	Sololá	1	Sololá	9	Septiembre	2023-07-09T00:00:00	2024-11-08T22:00:00	8	Radiación solar	0
45921	7	Sololá	701	Sololá	1	Sololá	9	Septiembre	2023-07-09T00:00:00	2024-11-08T23:00:00	2	Temperatura media	15.3
45922	7	Sololá	701	Sololá	1	Sololá	9	Septiembre	2023-07-09T00:00:00	2024-11-08T23:00:00	4	Temperatura máxima	15.3
45923	7	Sololá	701	Sololá	1	Sololá	9	Septiembre	2023-07-09T00:00:00	2024-11-08T23:00:00	3	Temperatura mínima	15.1
45924	7	Sololá	701	Sololá	1	Sololá	9	Septiembre	2023-07-09T00:00:00	2024-11-08T23:00:00	5	Humedad	87
45925	7	Sololá	701	Sololá	1	Sololá	9	Septiembre	2023-07-09T00:00:00	2024-11-08T23:00:00	6	Velocidad del viento	0
45926	7	Sololá	701	Sololá	1	Sololá	9	Septiembre	2023-07-09T00:00:00	2024-11-08T23:00:00	7	Dirección del viento	0
45927	7	Sololá	701	Sololá	1	Sololá	9	Septiembre	2023-07-09T00:00:00	2024-11-08T23:00:00	1	Precipitación	0
45928	7	Sololá	701	Sololá	1	Sololá	9	Septiembre	2023-07-09T00:00:00	2024-11-08T23:00:00	8	Radiación solar	0
45929	7	Sololá	701	Sololá	1	Sololá	9	Septiembre	2023-08-09T00:00:00	2024-11-08T00:00:00	2	Temperatura media	14.7
45930	7	Sololá	701	Sololá	1	Sololá	9	Septiembre	2023-08-09T00:00:00	2024-11-08T00:00:00	4	Temperatura máxima	15.4
45931	7	Sololá	701	Sololá	1	Sololá	9	Septiembre	2023-08-09T00:00:00	2024-11-08T00:00:00	3	Temperatura mínima	14.7
45932	7	Sololá	701	Sololá	1	Sololá	9	Septiembre	2023-08-09T00:00:00	2024-11-08T00:00:00	5	Humedad	86
45933	7	Sololá	701	Sololá	1	Sololá	9	Septiembre	2023-08-09T00:00:00	2024-11-08T00:00:00	6	Velocidad del viento	0
45934	7	Sololá	701	Sololá	1	Sololá	9	Septiembre	2023-08-09T00:00:00	2024-11-08T00:00:00	7	Dirección del viento	0
45935	7	Sololá	701	Sololá	1	Sololá	9	Septiembre	2023-08-09T00:00:00	2024-11-08T00:00:00	1	Precipitación	0
45936	7	Sololá	701	Sololá	1	Sololá	9	Septiembre	2023-08-09T00:00:00	2024-11-08T00:00:00	8	Radiación solar	0
45937	7	Sololá	701	Sololá	1	Sololá	9	Septiembre	2023-08-09T00:00:00	2024-11-08T01:00:00	2	Temperatura media	14.2
45938	7	Sololá	701	Sololá	1	Sololá	9	Septiembre	2023-08-09T00:00:00	2024-11-08T01:00:00	4	Temperatura máxima	14.8
45939	7	Sololá	701	Sololá	1	Sololá	9	Septiembre	2023-08-09T00:00:00	2024-11-08T01:00:00	3	Temperatura mínima	14.1
45940	7	Sololá	701	Sololá	1	Sololá	9	Septiembre	2023-08-09T00:00:00	2024-11-08T01:00:00	5	Humedad	87
45941	7	Sololá	701	Sololá	1	Sololá	9	Septiembre	2023-08-09T00:00:00	2024-11-08T01:00:00	6	Velocidad del viento	0
45942	7	Sololá	701	Sololá	1	Sololá	9	Septiembre	2023-08-09T00:00:00	2024-11-08T01:00:00	7	Dirección del viento	0
45943	7	Sololá	701	Sololá	1	Sololá	9	Septiembre	2023-08-09T00:00:00	2024-11-08T01:00:00	1	Precipitación	0
45944	7	Sololá	701	Sololá	1	Sololá	9	Septiembre	2023-08-09T00:00:00	2024-11-08T01:00:00	8	Radiación solar	0
45945	7	Sololá	701	Sololá	1	Sololá	9	Septiembre	2023-08-09T00:00:00	2024-11-08T02:00:00	2	Temperatura media	14.2
45946	7	Sololá	701	Sololá	1	Sololá	9	Septiembre	2023-08-09T00:00:00	2024-11-08T02:00:00	4	Temperatura máxima	14.3
45947	7	Sololá	701	Sololá	1	Sololá	9	Septiembre	2023-08-09T00:00:00	2024-11-08T02:00:00	3	Temperatura mínima	14.2
45948	7	Sololá	701	Sololá	1	Sololá	9	Septiembre	2023-08-09T00:00:00	2024-11-08T02:00:00	5	Humedad	86
45949	7	Sololá	701	Sololá	1	Sololá	9	Septiembre	2023-08-09T00:00:00	2024-11-08T02:00:00	6	Velocidad del viento	0
45950	7	Sololá	701	Sololá	1	Sololá	9	Septiembre	2023-08-09T00:00:00	2024-11-08T02:00:00	7	Dirección del viento	0
45951	7	Sololá	701	Sololá	1	Sololá	9	Septiembre	2023-08-09T00:00:00	2024-11-08T02:00:00	1	Precipitación	0
45952	7	Sololá	701	Sololá	1	Sololá	9	Septiembre	2023-08-09T00:00:00	2024-11-08T02:00:00	8	Radiación solar	0
45953	7	Sololá	701	Sololá	1	Sololá	9	Septiembre	2023-08-09T00:00:00	2024-11-08T03:00:00	2	Temperatura media	13.6
45954	7	Sololá	701	Sololá	1	Sololá	9	Septiembre	2023-08-09T00:00:00	2024-11-08T03:00:00	4	Temperatura máxima	14.2
45955	7	Sololá	701	Sololá	1	Sololá	9	Septiembre	2023-08-09T00:00:00	2024-11-08T03:00:00	3	Temperatura mínima	13.6
45956	7	Sololá	701	Sololá	1	Sololá	9	Septiembre	2023-08-09T00:00:00	2024-11-08T03:00:00	5	Humedad	88
45957	7	Sololá	701	Sololá	1	Sololá	9	Septiembre	2023-08-09T00:00:00	2024-11-08T03:00:00	6	Velocidad del viento	0
45958	7	Sololá	701	Sololá	1	Sololá	9	Septiembre	2023-08-09T00:00:00	2024-11-08T03:00:00	7	Dirección del viento	0
45959	7	Sololá	701	Sololá	1	Sololá	9	Septiembre	2023-08-09T00:00:00	2024-11-08T03:00:00	1	Precipitación	0
45960	7	Sololá	701	Sololá	1	Sololá	9	Septiembre	2023-08-09T00:00:00	2024-11-08T03:00:00	8	Radiación solar	0
45961	7	Sololá	701	Sololá	1	Sololá	9	Septiembre	2023-08-09T00:00:00	2024-11-08T04:00:00	2	Temperatura media	13.8
45962	7	Sololá	701	Sololá	1	Sololá	9	Septiembre	2023-08-09T00:00:00	2024-11-08T04:00:00	4	Temperatura máxima	13.8
45963	7	Sololá	701	Sololá	1	Sololá	9	Septiembre	2023-08-09T00:00:00	2024-11-08T04:00:00	3	Temperatura mínima	13.4
45964	7	Sololá	701	Sololá	1	Sololá	9	Septiembre	2023-08-09T00:00:00	2024-11-08T04:00:00	5	Humedad	87
45965	7	Sololá	701	Sololá	1	Sololá	9	Septiembre	2023-08-09T00:00:00	2024-11-08T04:00:00	6	Velocidad del viento	0
45966	7	Sololá	701	Sololá	1	Sololá	9	Septiembre	2023-08-09T00:00:00	2024-11-08T04:00:00	7	Dirección del viento	0
45967	7	Sololá	701	Sololá	1	Sololá	9	Septiembre	2023-08-09T00:00:00	2024-11-08T04:00:00	1	Precipitación	0
45968	7	Sololá	701	Sololá	1	Sololá	9	Septiembre	2023-08-09T00:00:00	2024-11-08T04:00:00	8	Radiación solar	0
45969	7	Sololá	701	Sololá	1	Sololá	9	Septiembre	2023-08-09T00:00:00	2024-11-08T05:00:00	2	Temperatura media	14.1
45970	7	Sololá	701	Sololá	1	Sololá	9	Septiembre	2023-08-09T00:00:00	2024-11-08T05:00:00	4	Temperatura máxima	14.1
45971	7	Sololá	701	Sololá	1	Sololá	9	Septiembre	2023-08-09T00:00:00	2024-11-08T05:00:00	3	Temperatura mínima	13.8
45972	7	Sololá	701	Sololá	1	Sololá	9	Septiembre	2023-08-09T00:00:00	2024-11-08T05:00:00	5	Humedad	84
45973	7	Sololá	701	Sololá	1	Sololá	9	Septiembre	2023-08-09T00:00:00	2024-11-08T05:00:00	6	Velocidad del viento	0
45974	7	Sololá	701	Sololá	1	Sololá	9	Septiembre	2023-08-09T00:00:00	2024-11-08T05:00:00	7	Dirección del viento	0
45975	7	Sololá	701	Sololá	1	Sololá	9	Septiembre	2023-08-09T00:00:00	2024-11-08T05:00:00	1	Precipitación	0
45976	7	Sololá	701	Sololá	1	Sololá	9	Septiembre	2023-08-09T00:00:00	2024-11-08T05:00:00	8	Radiación solar	0
45977	7	Sololá	701	Sololá	1	Sololá	9	Septiembre	2023-08-09T00:00:00	2024-11-08T06:00:00	2	Temperatura media	14.1
45978	7	Sololá	701	Sololá	1	Sololá	9	Septiembre	2023-08-09T00:00:00	2024-11-08T06:00:00	4	Temperatura máxima	14.1
45979	7	Sololá	701	Sololá	1	Sololá	9	Septiembre	2023-08-09T00:00:00	2024-11-08T06:00:00	3	Temperatura mínima	13.9
45980	7	Sololá	701	Sololá	1	Sololá	9	Septiembre	2023-08-09T00:00:00	2024-11-08T06:00:00	5	Humedad	84
45981	7	Sololá	701	Sololá	1	Sololá	9	Septiembre	2023-08-09T00:00:00	2024-11-08T06:00:00	6	Velocidad del viento	0
45982	7	Sololá	701	Sololá	1	Sololá	9	Septiembre	2023-08-09T00:00:00	2024-11-08T06:00:00	7	Dirección del viento	0
45983	7	Sololá	701	Sololá	1	Sololá	9	Septiembre	2023-08-09T00:00:00	2024-11-08T06:00:00	1	Precipitación	0
45984	7	Sololá	701	Sololá	1	Sololá	9	Septiembre	2023-08-09T00:00:00	2024-11-08T06:00:00	8	Radiación solar	0
45985	7	Sololá	701	Sololá	1	Sololá	9	Septiembre	2023-08-09T00:00:00	2024-11-08T07:00:00	2	Temperatura media	14.7
45986	7	Sololá	701	Sololá	1	Sololá	9	Septiembre	2023-08-09T00:00:00	2024-11-08T07:00:00	4	Temperatura máxima	14.8
45987	7	Sololá	701	Sololá	1	Sololá	9	Septiembre	2023-08-09T00:00:00	2024-11-08T07:00:00	3	Temperatura mínima	14.1
45988	7	Sololá	701	Sololá	1	Sololá	9	Septiembre	2023-08-09T00:00:00	2024-11-08T07:00:00	5	Humedad	81
45989	7	Sololá	701	Sololá	1	Sololá	9	Septiembre	2023-08-09T00:00:00	2024-11-08T07:00:00	6	Velocidad del viento	0
45990	7	Sololá	701	Sololá	1	Sololá	9	Septiembre	2023-08-09T00:00:00	2024-11-08T07:00:00	7	Dirección del viento	0
45991	7	Sololá	701	Sololá	1	Sololá	9	Septiembre	2023-08-09T00:00:00	2024-11-08T07:00:00	1	Precipitación	0
45992	7	Sololá	701	Sololá	1	Sololá	9	Septiembre	2023-08-09T00:00:00	2024-11-08T07:00:00	8	Radiación solar	21
45993	7	Sololá	701	Sololá	1	Sololá	9	Septiembre	2023-08-09T00:00:00	2024-11-08T08:00:00	2	Temperatura media	20.3
45994	7	Sololá	701	Sololá	1	Sololá	9	Septiembre	2023-08-09T00:00:00	2024-11-08T08:00:00	4	Temperatura máxima	20.3
45995	7	Sololá	701	Sololá	1	Sololá	9	Septiembre	2023-08-09T00:00:00	2024-11-08T08:00:00	3	Temperatura mínima	14.7
45996	7	Sololá	701	Sololá	1	Sololá	9	Septiembre	2023-08-09T00:00:00	2024-11-08T08:00:00	5	Humedad	70
45997	7	Sololá	701	Sololá	1	Sololá	9	Septiembre	2023-08-09T00:00:00	2024-11-08T08:00:00	6	Velocidad del viento	0
45998	7	Sololá	701	Sololá	1	Sololá	9	Septiembre	2023-08-09T00:00:00	2024-11-08T08:00:00	7	Dirección del viento	0
45999	7	Sololá	701	Sololá	1	Sololá	9	Septiembre	2023-08-09T00:00:00	2024-11-08T08:00:00	1	Precipitación	0
46000	7	Sololá	701	Sololá	1	Sololá	9	Septiembre	2023-08-09T00:00:00	2024-11-08T08:00:00	8	Radiación solar	324
46001	7	Sololá	701	Sololá	1	Sololá	9	Septiembre	2023-08-09T00:00:00	2024-11-08T09:00:00	2	Temperatura media	23.2
46002	7	Sololá	701	Sololá	1	Sololá	9	Septiembre	2023-08-09T00:00:00	2024-11-08T09:00:00	4	Temperatura máxima	23.3
46003	7	Sololá	701	Sololá	1	Sololá	9	Septiembre	2023-08-09T00:00:00	2024-11-08T09:00:00	3	Temperatura mínima	20.3
46004	7	Sololá	701	Sololá	1	Sololá	9	Septiembre	2023-08-09T00:00:00	2024-11-08T09:00:00	5	Humedad	58
46005	7	Sololá	701	Sololá	1	Sololá	9	Septiembre	2023-08-09T00:00:00	2024-11-08T09:00:00	6	Velocidad del viento	0
46006	7	Sololá	701	Sololá	1	Sololá	9	Septiembre	2023-08-09T00:00:00	2024-11-08T09:00:00	7	Dirección del viento	0
46007	7	Sololá	701	Sololá	1	Sololá	9	Septiembre	2023-08-09T00:00:00	2024-11-08T09:00:00	1	Precipitación	0
46008	7	Sololá	701	Sololá	1	Sololá	9	Septiembre	2023-08-09T00:00:00	2024-11-08T09:00:00	8	Radiación solar	621
46009	7	Sololá	701	Sololá	1	Sololá	9	Septiembre	2023-08-09T00:00:00	2024-11-08T10:00:00	2	Temperatura media	23.6
46010	7	Sololá	701	Sololá	1	Sololá	9	Septiembre	2023-08-09T00:00:00	2024-11-08T10:00:00	4	Temperatura máxima	23.9
46011	7	Sololá	701	Sololá	1	Sololá	9	Septiembre	2023-08-09T00:00:00	2024-11-08T10:00:00	3	Temperatura mínima	23.2
46012	7	Sololá	701	Sololá	1	Sololá	9	Septiembre	2023-08-09T00:00:00	2024-11-08T10:00:00	5	Humedad	63
46013	7	Sololá	701	Sololá	1	Sololá	9	Septiembre	2023-08-09T00:00:00	2024-11-08T10:00:00	6	Velocidad del viento	0
46014	7	Sololá	701	Sololá	1	Sololá	9	Septiembre	2023-08-09T00:00:00	2024-11-08T10:00:00	7	Dirección del viento	0
46015	7	Sololá	701	Sololá	1	Sololá	9	Septiembre	2023-08-09T00:00:00	2024-11-08T10:00:00	1	Precipitación	0
46016	7	Sololá	701	Sololá	1	Sololá	9	Septiembre	2023-08-09T00:00:00	2024-11-08T10:00:00	8	Radiación solar	751
46017	7	Sololá	701	Sololá	1	Sololá	9	Septiembre	2023-08-09T00:00:00	2024-11-08T11:00:00	2	Temperatura media	22.1
46018	7	Sololá	701	Sololá	1	Sololá	9	Septiembre	2023-08-09T00:00:00	2024-11-08T11:00:00	4	Temperatura máxima	23.6
46019	7	Sololá	701	Sololá	1	Sololá	9	Septiembre	2023-08-09T00:00:00	2024-11-08T11:00:00	3	Temperatura mínima	21.9
46020	7	Sololá	701	Sololá	1	Sololá	9	Septiembre	2023-08-09T00:00:00	2024-11-08T11:00:00	5	Humedad	73
46021	7	Sololá	701	Sololá	1	Sololá	9	Septiembre	2023-08-09T00:00:00	2024-11-08T11:00:00	6	Velocidad del viento	0
46022	7	Sololá	701	Sololá	1	Sololá	9	Septiembre	2023-08-09T00:00:00	2024-11-08T11:00:00	7	Dirección del viento	0
46023	7	Sololá	701	Sololá	1	Sololá	9	Septiembre	2023-08-09T00:00:00	2024-11-08T11:00:00	1	Precipitación	0
46024	7	Sololá	701	Sololá	1	Sololá	9	Septiembre	2023-08-09T00:00:00	2024-11-08T11:00:00	8	Radiación solar	611
46025	7	Sololá	701	Sololá	1	Sololá	9	Septiembre	2023-08-09T00:00:00	2024-11-08T12:00:00	2	Temperatura media	21.2
46026	7	Sololá	701	Sololá	1	Sololá	9	Septiembre	2023-08-09T00:00:00	2024-11-08T12:00:00	4	Temperatura máxima	22.2
46027	7	Sololá	701	Sololá	1	Sololá	9	Septiembre	2023-08-09T00:00:00	2024-11-08T12:00:00	3	Temperatura mínima	21.2
46028	7	Sololá	701	Sololá	1	Sololá	9	Septiembre	2023-08-09T00:00:00	2024-11-08T12:00:00	5	Humedad	78
46029	7	Sololá	701	Sololá	1	Sololá	9	Septiembre	2023-08-09T00:00:00	2024-11-08T12:00:00	6	Velocidad del viento	0
46030	7	Sololá	701	Sololá	1	Sololá	9	Septiembre	2023-08-09T00:00:00	2024-11-08T12:00:00	7	Dirección del viento	0
46031	7	Sololá	701	Sololá	1	Sololá	9	Septiembre	2023-08-09T00:00:00	2024-11-08T12:00:00	1	Precipitación	0
46032	7	Sololá	701	Sololá	1	Sololá	9	Septiembre	2023-08-09T00:00:00	2024-11-08T12:00:00	8	Radiación solar	203
46033	7	Sololá	701	Sololá	1	Sololá	9	Septiembre	2023-08-09T00:00:00	2024-11-08T13:00:00	2	Temperatura media	20.9
46034	7	Sololá	701	Sololá	1	Sololá	9	Septiembre	2023-08-09T00:00:00	2024-11-08T13:00:00	4	Temperatura máxima	21.4
46035	7	Sololá	701	Sololá	1	Sololá	9	Septiembre	2023-08-09T00:00:00	2024-11-08T13:00:00	3	Temperatura mínima	20.8
46036	7	Sololá	701	Sololá	1	Sololá	9	Septiembre	2023-08-09T00:00:00	2024-11-08T13:00:00	5	Humedad	81
46037	7	Sololá	701	Sololá	1	Sololá	9	Septiembre	2023-08-09T00:00:00	2024-11-08T13:00:00	6	Velocidad del viento	0
46038	7	Sololá	701	Sololá	1	Sololá	9	Septiembre	2023-08-09T00:00:00	2024-11-08T13:00:00	7	Dirección del viento	0
46039	7	Sololá	701	Sololá	1	Sololá	9	Septiembre	2023-08-09T00:00:00	2024-11-08T13:00:00	1	Precipitación	0
46040	7	Sololá	701	Sololá	1	Sololá	9	Septiembre	2023-08-09T00:00:00	2024-11-08T13:00:00	8	Radiación solar	160
46041	7	Sololá	701	Sololá	1	Sololá	9	Septiembre	2023-08-09T00:00:00	2024-11-08T14:00:00	2	Temperatura media	21.2
46042	7	Sololá	701	Sololá	1	Sololá	9	Septiembre	2023-08-09T00:00:00	2024-11-08T14:00:00	4	Temperatura máxima	21.3
46043	7	Sololá	701	Sololá	1	Sololá	9	Septiembre	2023-08-09T00:00:00	2024-11-08T14:00:00	3	Temperatura mínima	20.3
46044	7	Sololá	701	Sololá	1	Sololá	9	Septiembre	2023-08-09T00:00:00	2024-11-08T14:00:00	5	Humedad	81
46045	7	Sololá	701	Sololá	1	Sololá	9	Septiembre	2023-08-09T00:00:00	2024-11-08T14:00:00	6	Velocidad del viento	0
46046	7	Sololá	701	Sololá	1	Sololá	9	Septiembre	2023-08-09T00:00:00	2024-11-08T14:00:00	7	Dirección del viento	0
46047	7	Sololá	701	Sololá	1	Sololá	9	Septiembre	2023-08-09T00:00:00	2024-11-08T14:00:00	1	Precipitación	0
46048	7	Sololá	701	Sololá	1	Sololá	9	Septiembre	2023-08-09T00:00:00	2024-11-08T14:00:00	8	Radiación solar	135
46049	7	Sololá	701	Sololá	1	Sololá	9	Septiembre	2023-08-09T00:00:00	2024-11-08T15:00:00	2	Temperatura media	20.2
46050	7	Sololá	701	Sololá	1	Sololá	9	Septiembre	2023-08-09T00:00:00	2024-11-08T15:00:00	4	Temperatura máxima	21.2
46051	7	Sololá	701	Sololá	1	Sololá	9	Septiembre	2023-08-09T00:00:00	2024-11-08T15:00:00	3	Temperatura mínima	20.2
46052	7	Sololá	701	Sololá	1	Sololá	9	Septiembre	2023-08-09T00:00:00	2024-11-08T15:00:00	5	Humedad	85
46053	7	Sololá	701	Sololá	1	Sololá	9	Septiembre	2023-08-09T00:00:00	2024-11-08T15:00:00	6	Velocidad del viento	0
46054	7	Sololá	701	Sololá	1	Sololá	9	Septiembre	2023-08-09T00:00:00	2024-11-08T15:00:00	7	Dirección del viento	0
46055	7	Sololá	701	Sololá	1	Sololá	9	Septiembre	2023-08-09T00:00:00	2024-11-08T15:00:00	1	Precipitación	0
46056	7	Sololá	701	Sololá	1	Sololá	9	Septiembre	2023-08-09T00:00:00	2024-11-08T15:00:00	8	Radiación solar	93
46057	7	Sololá	701	Sololá	1	Sololá	9	Septiembre	2023-08-09T00:00:00	2024-11-08T16:00:00	2	Temperatura media	19.7
46058	7	Sololá	701	Sololá	1	Sololá	9	Septiembre	2023-08-09T00:00:00	2024-11-08T16:00:00	4	Temperatura máxima	20.9
46059	7	Sololá	701	Sololá	1	Sololá	9	Septiembre	2023-08-09T00:00:00	2024-11-08T16:00:00	3	Temperatura mínima	19.7
46060	7	Sololá	701	Sololá	1	Sololá	9	Septiembre	2023-08-09T00:00:00	2024-11-08T16:00:00	5	Humedad	86
46061	7	Sololá	701	Sololá	1	Sololá	9	Septiembre	2023-08-09T00:00:00	2024-11-08T16:00:00	6	Velocidad del viento	0
46062	7	Sololá	701	Sololá	1	Sololá	9	Septiembre	2023-08-09T00:00:00	2024-11-08T16:00:00	7	Dirección del viento	0
46063	7	Sololá	701	Sololá	1	Sololá	9	Septiembre	2023-08-09T00:00:00	2024-11-08T16:00:00	1	Precipitación	0
46064	7	Sololá	701	Sololá	1	Sololá	9	Septiembre	2023-08-09T00:00:00	2024-11-08T16:00:00	8	Radiación solar	79
46065	7	Sololá	701	Sololá	1	Sololá	9	Septiembre	2023-08-09T00:00:00	2024-11-08T17:00:00	2	Temperatura media	18.2
46066	7	Sololá	701	Sololá	1	Sololá	9	Septiembre	2023-08-09T00:00:00	2024-11-08T17:00:00	4	Temperatura máxima	19.7
46067	7	Sololá	701	Sololá	1	Sololá	9	Septiembre	2023-08-09T00:00:00	2024-11-08T17:00:00	3	Temperatura mínima	18.2
46068	7	Sololá	701	Sololá	1	Sololá	9	Septiembre	2023-08-09T00:00:00	2024-11-08T17:00:00	5	Humedad	89
46069	7	Sololá	701	Sololá	1	Sololá	9	Septiembre	2023-08-09T00:00:00	2024-11-08T17:00:00	6	Velocidad del viento	0
46070	7	Sololá	701	Sololá	1	Sololá	9	Septiembre	2023-08-09T00:00:00	2024-11-08T17:00:00	7	Dirección del viento	0
46071	7	Sololá	701	Sololá	1	Sololá	9	Septiembre	2023-08-09T00:00:00	2024-11-08T17:00:00	1	Precipitación	0
46072	7	Sololá	701	Sololá	1	Sololá	9	Septiembre	2023-08-09T00:00:00	2024-11-08T17:00:00	8	Radiación solar	17
46073	7	Sololá	701	Sololá	1	Sololá	9	Septiembre	2023-08-09T00:00:00	2024-11-08T18:00:00	2	Temperatura media	17.7
46074	7	Sololá	701	Sololá	1	Sololá	9	Septiembre	2023-08-09T00:00:00	2024-11-08T18:00:00	4	Temperatura máxima	18.2
46075	7	Sololá	701	Sololá	1	Sololá	9	Septiembre	2023-08-09T00:00:00	2024-11-08T18:00:00	3	Temperatura mínima	17.7
46076	7	Sololá	701	Sololá	1	Sololá	9	Septiembre	2023-08-09T00:00:00	2024-11-08T18:00:00	5	Humedad	92
46077	7	Sololá	701	Sololá	1	Sololá	9	Septiembre	2023-08-09T00:00:00	2024-11-08T18:00:00	6	Velocidad del viento	0
46078	7	Sololá	701	Sololá	1	Sololá	9	Septiembre	2023-08-09T00:00:00	2024-11-08T18:00:00	7	Dirección del viento	0
46079	7	Sololá	701	Sololá	1	Sololá	9	Septiembre	2023-08-09T00:00:00	2024-11-08T18:00:00	1	Precipitación	0
46080	7	Sololá	701	Sololá	1	Sololá	9	Septiembre	2023-08-09T00:00:00	2024-11-08T18:00:00	8	Radiación solar	8
46081	7	Sololá	701	Sololá	1	Sololá	9	Septiembre	2023-08-09T00:00:00	2024-11-08T19:00:00	2	Temperatura media	16.3
46082	7	Sololá	701	Sololá	1	Sololá	9	Septiembre	2023-08-09T00:00:00	2024-11-08T19:00:00	4	Temperatura máxima	17.7
46083	7	Sololá	701	Sololá	1	Sololá	9	Septiembre	2023-08-09T00:00:00	2024-11-08T19:00:00	3	Temperatura mínima	16.3
46084	7	Sololá	701	Sololá	1	Sololá	9	Septiembre	2023-08-09T00:00:00	2024-11-08T19:00:00	5	Humedad	92
46085	7	Sololá	701	Sololá	1	Sololá	9	Septiembre	2023-08-09T00:00:00	2024-11-08T19:00:00	6	Velocidad del viento	0
46086	7	Sololá	701	Sololá	1	Sololá	9	Septiembre	2023-08-09T00:00:00	2024-11-08T19:00:00	7	Dirección del viento	0
46087	7	Sololá	701	Sololá	1	Sololá	9	Septiembre	2023-08-09T00:00:00	2024-11-08T19:00:00	1	Precipitación	1.8
46088	7	Sololá	701	Sololá	1	Sololá	9	Septiembre	2023-08-09T00:00:00	2024-11-08T19:00:00	8	Radiación solar	0
46089	7	Sololá	701	Sololá	1	Sololá	9	Septiembre	2023-08-09T00:00:00	2024-11-08T20:00:00	2	Temperatura media	15.4
46090	7	Sololá	701	Sololá	1	Sololá	9	Septiembre	2023-08-09T00:00:00	2024-11-08T20:00:00	4	Temperatura máxima	16.3
46091	7	Sololá	701	Sololá	1	Sololá	9	Septiembre	2023-08-09T00:00:00	2024-11-08T20:00:00	3	Temperatura mínima	15.4
46092	7	Sololá	701	Sololá	1	Sololá	9	Septiembre	2023-08-09T00:00:00	2024-11-08T20:00:00	5	Humedad	95
46093	7	Sololá	701	Sololá	1	Sololá	9	Septiembre	2023-08-09T00:00:00	2024-11-08T20:00:00	6	Velocidad del viento	0
46094	7	Sololá	701	Sololá	1	Sololá	9	Septiembre	2023-08-09T00:00:00	2024-11-08T20:00:00	7	Dirección del viento	0
46095	7	Sololá	701	Sololá	1	Sololá	9	Septiembre	2023-08-09T00:00:00	2024-11-08T20:00:00	1	Precipitación	2.8
46096	7	Sololá	701	Sololá	1	Sololá	9	Septiembre	2023-08-09T00:00:00	2024-11-08T20:00:00	8	Radiación solar	0
46097	7	Sololá	701	Sololá	1	Sololá	9	Septiembre	2023-08-09T00:00:00	2024-11-08T21:00:00	2	Temperatura media	15.3
46098	7	Sololá	701	Sololá	1	Sololá	9	Septiembre	2023-08-09T00:00:00	2024-11-08T21:00:00	4	Temperatura máxima	15.4
46099	7	Sololá	701	Sololá	1	Sololá	9	Septiembre	2023-08-09T00:00:00	2024-11-08T21:00:00	3	Temperatura mínima	15.2
46100	7	Sololá	701	Sololá	1	Sololá	9	Septiembre	2023-08-09T00:00:00	2024-11-08T21:00:00	5	Humedad	95
46101	7	Sololá	701	Sololá	1	Sololá	9	Septiembre	2023-08-09T00:00:00	2024-11-08T21:00:00	6	Velocidad del viento	0
46102	7	Sololá	701	Sololá	1	Sololá	9	Septiembre	2023-08-09T00:00:00	2024-11-08T21:00:00	7	Dirección del viento	0
46103	7	Sololá	701	Sololá	1	Sololá	9	Septiembre	2023-08-09T00:00:00	2024-11-08T21:00:00	1	Precipitación	6.4
46104	7	Sololá	701	Sololá	1	Sololá	9	Septiembre	2023-08-09T00:00:00	2024-11-08T21:00:00	8	Radiación solar	0
46105	7	Sololá	701	Sololá	1	Sololá	9	Septiembre	2023-08-09T00:00:00	2024-11-08T22:00:00	2	Temperatura media	14.7
46106	7	Sololá	701	Sololá	1	Sololá	9	Septiembre	2023-08-09T00:00:00	2024-11-08T22:00:00	4	Temperatura máxima	15.3
46107	7	Sololá	701	Sololá	1	Sololá	9	Septiembre	2023-08-09T00:00:00	2024-11-08T22:00:00	3	Temperatura mínima	14.7
46108	7	Sololá	701	Sololá	1	Sololá	9	Septiembre	2023-08-09T00:00:00	2024-11-08T22:00:00	5	Humedad	95
46109	7	Sololá	701	Sololá	1	Sololá	9	Septiembre	2023-08-09T00:00:00	2024-11-08T22:00:00	6	Velocidad del viento	0
46110	7	Sololá	701	Sololá	1	Sololá	9	Septiembre	2023-08-09T00:00:00	2024-11-08T22:00:00	7	Dirección del viento	0
46111	7	Sololá	701	Sololá	1	Sololá	9	Septiembre	2023-08-09T00:00:00	2024-11-08T22:00:00	1	Precipitación	0
46112	7	Sololá	701	Sololá	1	Sololá	9	Septiembre	2023-08-09T00:00:00	2024-11-08T22:00:00	8	Radiación solar	0
46113	7	Sololá	701	Sololá	1	Sololá	9	Septiembre	2023-08-09T00:00:00	2024-11-08T23:00:00	2	Temperatura media	14.4
46114	7	Sololá	701	Sololá	1	Sololá	9	Septiembre	2023-08-09T00:00:00	2024-11-08T23:00:00	4	Temperatura máxima	14.7
46115	7	Sololá	701	Sololá	1	Sololá	9	Septiembre	2023-08-09T00:00:00	2024-11-08T23:00:00	3	Temperatura mínima	14.4
46116	7	Sololá	701	Sololá	1	Sololá	9	Septiembre	2023-08-09T00:00:00	2024-11-08T23:00:00	5	Humedad	95
46117	7	Sololá	701	Sololá	1	Sololá	9	Septiembre	2023-08-09T00:00:00	2024-11-08T23:00:00	6	Velocidad del viento	0
46118	7	Sololá	701	Sololá	1	Sololá	9	Septiembre	2023-08-09T00:00:00	2024-11-08T23:00:00	7	Dirección del viento	0
46119	7	Sololá	701	Sololá	1	Sololá	9	Septiembre	2023-08-09T00:00:00	2024-11-08T23:00:00	1	Precipitación	0
46120	7	Sololá	701	Sololá	1	Sololá	9	Septiembre	2023-08-09T00:00:00	2024-11-08T23:00:00	8	Radiación solar	0
46121	7	Sololá	701	Sololá	1	Sololá	9	Septiembre	2023-09-09T00:00:00	2024-11-08T00:00:00	2	Temperatura media	14.2
46122	7	Sololá	701	Sololá	1	Sololá	9	Septiembre	2023-09-09T00:00:00	2024-11-08T00:00:00	4	Temperatura máxima	14.6
46123	7	Sololá	701	Sololá	1	Sololá	9	Septiembre	2023-09-09T00:00:00	2024-11-08T00:00:00	3	Temperatura mínima	14.2
46124	7	Sololá	701	Sololá	1	Sololá	9	Septiembre	2023-09-09T00:00:00	2024-11-08T00:00:00	5	Humedad	95
46125	7	Sololá	701	Sololá	1	Sololá	9	Septiembre	2023-09-09T00:00:00	2024-11-08T00:00:00	6	Velocidad del viento	0
46126	7	Sololá	701	Sololá	1	Sololá	9	Septiembre	2023-09-09T00:00:00	2024-11-08T00:00:00	7	Dirección del viento	0
46127	7	Sololá	701	Sololá	1	Sololá	9	Septiembre	2023-09-09T00:00:00	2024-11-08T00:00:00	1	Precipitación	0
46128	7	Sololá	701	Sololá	1	Sololá	9	Septiembre	2023-09-09T00:00:00	2024-11-08T00:00:00	8	Radiación solar	0
46129	7	Sololá	701	Sololá	1	Sololá	9	Septiembre	2023-09-09T00:00:00	2024-11-08T01:00:00	2	Temperatura media	13.5
46130	7	Sololá	701	Sololá	1	Sololá	9	Septiembre	2023-09-09T00:00:00	2024-11-08T01:00:00	4	Temperatura máxima	14.2
46131	7	Sololá	701	Sololá	1	Sololá	9	Septiembre	2023-09-09T00:00:00	2024-11-08T01:00:00	3	Temperatura mínima	13.4
46132	7	Sololá	701	Sololá	1	Sololá	9	Septiembre	2023-09-09T00:00:00	2024-11-08T01:00:00	5	Humedad	95
46133	7	Sololá	701	Sololá	1	Sololá	9	Septiembre	2023-09-09T00:00:00	2024-11-08T01:00:00	6	Velocidad del viento	0
46134	7	Sololá	701	Sololá	1	Sololá	9	Septiembre	2023-09-09T00:00:00	2024-11-08T01:00:00	7	Dirección del viento	0
46135	7	Sololá	701	Sololá	1	Sololá	9	Septiembre	2023-09-09T00:00:00	2024-11-08T01:00:00	1	Precipitación	0
46136	7	Sololá	701	Sololá	1	Sololá	9	Septiembre	2023-09-09T00:00:00	2024-11-08T01:00:00	8	Radiación solar	0
46137	7	Sololá	701	Sololá	1	Sololá	9	Septiembre	2023-09-09T00:00:00	2024-11-08T02:00:00	2	Temperatura media	13.6
46138	7	Sololá	701	Sololá	1	Sololá	9	Septiembre	2023-09-09T00:00:00	2024-11-08T02:00:00	4	Temperatura máxima	13.6
46139	7	Sololá	701	Sololá	1	Sololá	9	Septiembre	2023-09-09T00:00:00	2024-11-08T02:00:00	3	Temperatura mínima	13.4
46140	7	Sololá	701	Sololá	1	Sololá	9	Septiembre	2023-09-09T00:00:00	2024-11-08T02:00:00	5	Humedad	96
46141	7	Sololá	701	Sololá	1	Sololá	9	Septiembre	2023-09-09T00:00:00	2024-11-08T02:00:00	6	Velocidad del viento	0
46142	7	Sololá	701	Sololá	1	Sololá	9	Septiembre	2023-09-09T00:00:00	2024-11-08T02:00:00	7	Dirección del viento	0
46143	7	Sololá	701	Sololá	1	Sololá	9	Septiembre	2023-09-09T00:00:00	2024-11-08T02:00:00	1	Precipitación	0
46144	7	Sololá	701	Sololá	1	Sololá	9	Septiembre	2023-09-09T00:00:00	2024-11-08T02:00:00	8	Radiación solar	0
46145	7	Sololá	701	Sololá	1	Sololá	9	Septiembre	2023-09-09T00:00:00	2024-11-08T03:00:00	2	Temperatura media	13.8
46146	7	Sololá	701	Sololá	1	Sololá	9	Septiembre	2023-09-09T00:00:00	2024-11-08T03:00:00	4	Temperatura máxima	13.8
46147	7	Sololá	701	Sololá	1	Sololá	9	Septiembre	2023-09-09T00:00:00	2024-11-08T03:00:00	3	Temperatura mínima	13.6
46148	7	Sololá	701	Sololá	1	Sololá	9	Septiembre	2023-09-09T00:00:00	2024-11-08T03:00:00	5	Humedad	96
46149	7	Sololá	701	Sololá	1	Sololá	9	Septiembre	2023-09-09T00:00:00	2024-11-08T03:00:00	6	Velocidad del viento	0
46150	7	Sololá	701	Sololá	1	Sololá	9	Septiembre	2023-09-09T00:00:00	2024-11-08T03:00:00	7	Dirección del viento	0
46151	7	Sololá	701	Sololá	1	Sololá	9	Septiembre	2023-09-09T00:00:00	2024-11-08T03:00:00	1	Precipitación	0.4
46152	7	Sololá	701	Sololá	1	Sololá	9	Septiembre	2023-09-09T00:00:00	2024-11-08T03:00:00	8	Radiación solar	0
46153	7	Sololá	701	Sololá	1	Sololá	9	Septiembre	2023-09-09T00:00:00	2024-11-08T04:00:00	2	Temperatura media	13.3
46154	7	Sololá	701	Sololá	1	Sololá	9	Septiembre	2023-09-09T00:00:00	2024-11-08T04:00:00	4	Temperatura máxima	13.8
46155	7	Sololá	701	Sololá	1	Sololá	9	Septiembre	2023-09-09T00:00:00	2024-11-08T04:00:00	3	Temperatura mínima	13.3
46156	7	Sololá	701	Sololá	1	Sololá	9	Septiembre	2023-09-09T00:00:00	2024-11-08T04:00:00	5	Humedad	95
46157	7	Sololá	701	Sololá	1	Sololá	9	Septiembre	2023-09-09T00:00:00	2024-11-08T04:00:00	6	Velocidad del viento	0
46158	7	Sololá	701	Sololá	1	Sololá	9	Septiembre	2023-09-09T00:00:00	2024-11-08T04:00:00	7	Dirección del viento	0
46159	7	Sololá	701	Sololá	1	Sololá	9	Septiembre	2023-09-09T00:00:00	2024-11-08T04:00:00	1	Precipitación	0
46160	7	Sololá	701	Sololá	1	Sololá	9	Septiembre	2023-09-09T00:00:00	2024-11-08T04:00:00	8	Radiación solar	0
46161	7	Sololá	701	Sololá	1	Sololá	9	Septiembre	2023-09-09T00:00:00	2024-11-08T05:00:00	2	Temperatura media	12.6
46162	7	Sololá	701	Sololá	1	Sololá	9	Septiembre	2023-09-09T00:00:00	2024-11-08T05:00:00	4	Temperatura máxima	13.3
46163	7	Sololá	701	Sololá	1	Sololá	9	Septiembre	2023-09-09T00:00:00	2024-11-08T05:00:00	3	Temperatura mínima	12.6
46164	7	Sololá	701	Sololá	1	Sololá	9	Septiembre	2023-09-09T00:00:00	2024-11-08T05:00:00	5	Humedad	95
46165	7	Sololá	701	Sololá	1	Sololá	9	Septiembre	2023-09-09T00:00:00	2024-11-08T05:00:00	6	Velocidad del viento	0
46166	7	Sololá	701	Sololá	1	Sololá	9	Septiembre	2023-09-09T00:00:00	2024-11-08T05:00:00	7	Dirección del viento	0
46167	7	Sololá	701	Sololá	1	Sololá	9	Septiembre	2023-09-09T00:00:00	2024-11-08T05:00:00	1	Precipitación	0.2
46168	7	Sololá	701	Sololá	1	Sololá	9	Septiembre	2023-09-09T00:00:00	2024-11-08T05:00:00	8	Radiación solar	0
46169	7	Sololá	701	Sololá	1	Sololá	9	Septiembre	2023-09-09T00:00:00	2024-11-08T06:00:00	2	Temperatura media	11.9
46170	7	Sololá	701	Sololá	1	Sololá	9	Septiembre	2023-09-09T00:00:00	2024-11-08T06:00:00	4	Temperatura máxima	12.6
46171	7	Sololá	701	Sololá	1	Sololá	9	Septiembre	2023-09-09T00:00:00	2024-11-08T06:00:00	3	Temperatura mínima	11.9
46172	7	Sololá	701	Sololá	1	Sololá	9	Septiembre	2023-09-09T00:00:00	2024-11-08T06:00:00	5	Humedad	95
46173	7	Sololá	701	Sololá	1	Sololá	9	Septiembre	2023-09-09T00:00:00	2024-11-08T06:00:00	6	Velocidad del viento	0
46174	7	Sololá	701	Sololá	1	Sololá	9	Septiembre	2023-09-09T00:00:00	2024-11-08T06:00:00	7	Dirección del viento	0
46175	7	Sololá	701	Sololá	1	Sololá	9	Septiembre	2023-09-09T00:00:00	2024-11-08T06:00:00	1	Precipitación	0
46176	7	Sololá	701	Sololá	1	Sololá	9	Septiembre	2023-09-09T00:00:00	2024-11-08T06:00:00	8	Radiación solar	1
46177	7	Sololá	701	Sololá	1	Sololá	9	Septiembre	2023-09-09T00:00:00	2024-11-08T07:00:00	2	Temperatura media	12.9
46178	7	Sololá	701	Sololá	1	Sololá	9	Septiembre	2023-09-09T00:00:00	2024-11-08T07:00:00	4	Temperatura máxima	12.9
46179	7	Sololá	701	Sololá	1	Sololá	9	Septiembre	2023-09-09T00:00:00	2024-11-08T07:00:00	3	Temperatura mínima	11.8
46180	7	Sololá	701	Sololá	1	Sololá	9	Septiembre	2023-09-09T00:00:00	2024-11-08T07:00:00	5	Humedad	96
46181	7	Sololá	701	Sololá	1	Sololá	9	Septiembre	2023-09-09T00:00:00	2024-11-08T07:00:00	6	Velocidad del viento	0
46182	7	Sololá	701	Sololá	1	Sololá	9	Septiembre	2023-09-09T00:00:00	2024-11-08T07:00:00	7	Dirección del viento	0
46183	7	Sololá	701	Sololá	1	Sololá	9	Septiembre	2023-09-09T00:00:00	2024-11-08T07:00:00	1	Precipitación	0
46184	7	Sololá	701	Sololá	1	Sololá	9	Septiembre	2023-09-09T00:00:00	2024-11-08T07:00:00	8	Radiación solar	28
46185	7	Sololá	701	Sololá	1	Sololá	9	Septiembre	2023-09-09T00:00:00	2024-11-08T08:00:00	2	Temperatura media	14.8
46186	7	Sololá	701	Sololá	1	Sololá	9	Septiembre	2023-09-09T00:00:00	2024-11-08T08:00:00	4	Temperatura máxima	14.8
46187	7	Sololá	701	Sololá	1	Sololá	9	Septiembre	2023-09-09T00:00:00	2024-11-08T08:00:00	3	Temperatura mínima	12.9
46188	7	Sololá	701	Sololá	1	Sololá	9	Septiembre	2023-09-09T00:00:00	2024-11-08T08:00:00	5	Humedad	92
46189	7	Sololá	701	Sololá	1	Sololá	9	Septiembre	2023-09-09T00:00:00	2024-11-08T08:00:00	6	Velocidad del viento	0
46190	7	Sololá	701	Sololá	1	Sololá	9	Septiembre	2023-09-09T00:00:00	2024-11-08T08:00:00	7	Dirección del viento	0
46191	7	Sololá	701	Sololá	1	Sololá	9	Septiembre	2023-09-09T00:00:00	2024-11-08T08:00:00	1	Precipitación	0
46192	7	Sololá	701	Sololá	1	Sololá	9	Septiembre	2023-09-09T00:00:00	2024-11-08T08:00:00	8	Radiación solar	160
46193	7	Sololá	701	Sololá	1	Sololá	9	Septiembre	2023-09-09T00:00:00	2024-11-08T09:00:00	2	Temperatura media	17
46194	7	Sololá	701	Sololá	1	Sololá	9	Septiembre	2023-09-09T00:00:00	2024-11-08T09:00:00	4	Temperatura máxima	17
46195	7	Sololá	701	Sololá	1	Sololá	9	Septiembre	2023-09-09T00:00:00	2024-11-08T09:00:00	3	Temperatura mínima	14.8
46196	7	Sololá	701	Sololá	1	Sololá	9	Septiembre	2023-09-09T00:00:00	2024-11-08T09:00:00	5	Humedad	85
46197	7	Sololá	701	Sololá	1	Sololá	9	Septiembre	2023-09-09T00:00:00	2024-11-08T09:00:00	6	Velocidad del viento	0
46198	7	Sololá	701	Sololá	1	Sololá	9	Septiembre	2023-09-09T00:00:00	2024-11-08T09:00:00	7	Dirección del viento	0
46199	7	Sololá	701	Sololá	1	Sololá	9	Septiembre	2023-09-09T00:00:00	2024-11-08T09:00:00	1	Precipitación	0
46200	7	Sololá	701	Sololá	1	Sololá	9	Septiembre	2023-09-09T00:00:00	2024-11-08T09:00:00	8	Radiación solar	295
46201	7	Sololá	701	Sololá	1	Sololá	9	Septiembre	2023-09-09T00:00:00	2024-11-08T10:00:00	2	Temperatura media	18.7
46202	7	Sololá	701	Sololá	1	Sololá	9	Septiembre	2023-09-09T00:00:00	2024-11-08T10:00:00	4	Temperatura máxima	18.8
46203	7	Sololá	701	Sololá	1	Sololá	9	Septiembre	2023-09-09T00:00:00	2024-11-08T10:00:00	3	Temperatura mínima	17
46204	7	Sololá	701	Sololá	1	Sololá	9	Septiembre	2023-09-09T00:00:00	2024-11-08T10:00:00	5	Humedad	77
46205	7	Sololá	701	Sololá	1	Sololá	9	Septiembre	2023-09-09T00:00:00	2024-11-08T10:00:00	6	Velocidad del viento	0
46206	7	Sololá	701	Sololá	1	Sololá	9	Septiembre	2023-09-09T00:00:00	2024-11-08T10:00:00	7	Dirección del viento	0
46207	7	Sololá	701	Sololá	1	Sololá	9	Septiembre	2023-09-09T00:00:00	2024-11-08T10:00:00	1	Precipitación	0
46208	7	Sololá	701	Sololá	1	Sololá	9	Septiembre	2023-09-09T00:00:00	2024-11-08T10:00:00	8	Radiación solar	354
46209	7	Sololá	701	Sololá	1	Sololá	9	Septiembre	2023-09-09T00:00:00	2024-11-08T11:00:00	2	Temperatura media	20.2
46210	7	Sololá	701	Sololá	1	Sololá	9	Septiembre	2023-09-09T00:00:00	2024-11-08T11:00:00	4	Temperatura máxima	20.4
46211	7	Sololá	701	Sololá	1	Sololá	9	Septiembre	2023-09-09T00:00:00	2024-11-08T11:00:00	3	Temperatura mínima	18.7
46212	7	Sololá	701	Sololá	1	Sololá	9	Septiembre	2023-09-09T00:00:00	2024-11-08T11:00:00	5	Humedad	75
46213	7	Sololá	701	Sololá	1	Sololá	9	Septiembre	2023-09-09T00:00:00	2024-11-08T11:00:00	6	Velocidad del viento	0
46214	7	Sololá	701	Sololá	1	Sololá	9	Septiembre	2023-09-09T00:00:00	2024-11-08T11:00:00	7	Dirección del viento	0
46215	7	Sololá	701	Sololá	1	Sololá	9	Septiembre	2023-09-09T00:00:00	2024-11-08T11:00:00	1	Precipitación	0
46216	7	Sololá	701	Sololá	1	Sololá	9	Septiembre	2023-09-09T00:00:00	2024-11-08T11:00:00	8	Radiación solar	519
46217	7	Sololá	701	Sololá	1	Sololá	9	Septiembre	2023-09-09T00:00:00	2024-11-08T12:00:00	2	Temperatura media	21.2
46218	7	Sololá	701	Sololá	1	Sololá	9	Septiembre	2023-09-09T00:00:00	2024-11-08T12:00:00	4	Temperatura máxima	21.2
46219	7	Sololá	701	Sololá	1	Sololá	9	Septiembre	2023-09-09T00:00:00	2024-11-08T12:00:00	3	Temperatura mínima	19.9
46220	7	Sololá	701	Sololá	1	Sololá	9	Septiembre	2023-09-09T00:00:00	2024-11-08T12:00:00	5	Humedad	78
46221	7	Sololá	701	Sololá	1	Sololá	9	Septiembre	2023-09-09T00:00:00	2024-11-08T12:00:00	6	Velocidad del viento	0
46222	7	Sololá	701	Sololá	1	Sololá	9	Septiembre	2023-09-09T00:00:00	2024-11-08T12:00:00	7	Dirección del viento	0
46223	7	Sololá	701	Sololá	1	Sololá	9	Septiembre	2023-09-09T00:00:00	2024-11-08T12:00:00	1	Precipitación	0
46224	7	Sololá	701	Sololá	1	Sololá	9	Septiembre	2023-09-09T00:00:00	2024-11-08T12:00:00	8	Radiación solar	317
46225	7	Sololá	701	Sololá	1	Sololá	9	Septiembre	2023-09-09T00:00:00	2024-11-08T13:00:00	2	Temperatura media	20.2
46226	7	Sololá	701	Sololá	1	Sololá	9	Septiembre	2023-09-09T00:00:00	2024-11-08T13:00:00	4	Temperatura máxima	21.4
46227	7	Sololá	701	Sololá	1	Sololá	9	Septiembre	2023-09-09T00:00:00	2024-11-08T13:00:00	3	Temperatura mínima	20.2
46228	7	Sololá	701	Sololá	1	Sololá	9	Septiembre	2023-09-09T00:00:00	2024-11-08T13:00:00	5	Humedad	76
46229	7	Sololá	701	Sololá	1	Sololá	9	Septiembre	2023-09-09T00:00:00	2024-11-08T13:00:00	6	Velocidad del viento	0
46230	7	Sololá	701	Sololá	1	Sololá	9	Septiembre	2023-09-09T00:00:00	2024-11-08T13:00:00	7	Dirección del viento	0
46231	7	Sololá	701	Sololá	1	Sololá	9	Septiembre	2023-09-09T00:00:00	2024-11-08T13:00:00	1	Precipitación	0
46232	7	Sololá	701	Sololá	1	Sololá	9	Septiembre	2023-09-09T00:00:00	2024-11-08T13:00:00	8	Radiación solar	176
46233	7	Sololá	701	Sololá	1	Sololá	9	Septiembre	2023-09-09T00:00:00	2024-11-08T14:00:00	2	Temperatura media	19.5
46234	7	Sololá	701	Sololá	1	Sololá	9	Septiembre	2023-09-09T00:00:00	2024-11-08T14:00:00	4	Temperatura máxima	20.2
46235	7	Sololá	701	Sololá	1	Sololá	9	Septiembre	2023-09-09T00:00:00	2024-11-08T14:00:00	3	Temperatura mínima	19.5
46236	7	Sololá	701	Sololá	1	Sololá	9	Septiembre	2023-09-09T00:00:00	2024-11-08T14:00:00	5	Humedad	84
46237	7	Sololá	701	Sololá	1	Sololá	9	Septiembre	2023-09-09T00:00:00	2024-11-08T14:00:00	6	Velocidad del viento	0
46238	7	Sololá	701	Sololá	1	Sololá	9	Septiembre	2023-09-09T00:00:00	2024-11-08T14:00:00	7	Dirección del viento	0
46239	7	Sololá	701	Sololá	1	Sololá	9	Septiembre	2023-09-09T00:00:00	2024-11-08T14:00:00	1	Precipitación	0
46240	7	Sololá	701	Sololá	1	Sololá	9	Septiembre	2023-09-09T00:00:00	2024-11-08T14:00:00	8	Radiación solar	115
46241	7	Sololá	701	Sololá	1	Sololá	9	Septiembre	2023-09-09T00:00:00	2024-11-08T15:00:00	2	Temperatura media	19.5
46242	7	Sololá	701	Sololá	1	Sololá	9	Septiembre	2023-09-09T00:00:00	2024-11-08T15:00:00	4	Temperatura máxima	20.2
46243	7	Sololá	701	Sololá	1	Sololá	9	Septiembre	2023-09-09T00:00:00	2024-11-08T15:00:00	3	Temperatura mínima	19.4
46244	7	Sololá	701	Sololá	1	Sololá	9	Septiembre	2023-09-09T00:00:00	2024-11-08T15:00:00	5	Humedad	87
46245	7	Sololá	701	Sololá	1	Sololá	9	Septiembre	2023-09-09T00:00:00	2024-11-08T15:00:00	6	Velocidad del viento	0
46246	7	Sololá	701	Sololá	1	Sololá	9	Septiembre	2023-09-09T00:00:00	2024-11-08T15:00:00	7	Dirección del viento	0
46247	7	Sololá	701	Sololá	1	Sololá	9	Septiembre	2023-09-09T00:00:00	2024-11-08T15:00:00	1	Precipitación	1.2
46248	7	Sololá	701	Sololá	1	Sololá	9	Septiembre	2023-09-09T00:00:00	2024-11-08T15:00:00	8	Radiación solar	108
46249	7	Sololá	701	Sololá	1	Sololá	9	Septiembre	2023-09-09T00:00:00	2024-11-08T16:00:00	2	Temperatura media	15.8
46250	7	Sololá	701	Sololá	1	Sololá	9	Septiembre	2023-09-09T00:00:00	2024-11-08T16:00:00	4	Temperatura máxima	19.5
46251	7	Sololá	701	Sololá	1	Sololá	9	Septiembre	2023-09-09T00:00:00	2024-11-08T16:00:00	3	Temperatura mínima	15.8
46252	7	Sololá	701	Sololá	1	Sololá	9	Septiembre	2023-09-09T00:00:00	2024-11-08T16:00:00	5	Humedad	94
46253	7	Sololá	701	Sololá	1	Sololá	9	Septiembre	2023-09-09T00:00:00	2024-11-08T16:00:00	6	Velocidad del viento	0
46254	7	Sololá	701	Sololá	1	Sololá	9	Septiembre	2023-09-09T00:00:00	2024-11-08T16:00:00	7	Dirección del viento	0
46255	7	Sololá	701	Sololá	1	Sololá	9	Septiembre	2023-09-09T00:00:00	2024-11-08T16:00:00	1	Precipitación	20.6
46256	7	Sololá	701	Sololá	1	Sololá	9	Septiembre	2023-09-09T00:00:00	2024-11-08T16:00:00	8	Radiación solar	9
46257	7	Sololá	701	Sololá	1	Sololá	9	Septiembre	2023-09-09T00:00:00	2024-11-08T17:00:00	2	Temperatura media	15.7
46258	7	Sololá	701	Sololá	1	Sololá	9	Septiembre	2023-09-09T00:00:00	2024-11-08T17:00:00	4	Temperatura máxima	15.8
46259	7	Sololá	701	Sololá	1	Sololá	9	Septiembre	2023-09-09T00:00:00	2024-11-08T17:00:00	3	Temperatura mínima	15.4
46260	7	Sololá	701	Sololá	1	Sololá	9	Septiembre	2023-09-09T00:00:00	2024-11-08T17:00:00	5	Humedad	95
46261	7	Sololá	701	Sololá	1	Sololá	9	Septiembre	2023-09-09T00:00:00	2024-11-08T17:00:00	6	Velocidad del viento	0
46262	7	Sololá	701	Sololá	1	Sololá	9	Septiembre	2023-09-09T00:00:00	2024-11-08T17:00:00	7	Dirección del viento	0
46263	7	Sololá	701	Sololá	1	Sololá	9	Septiembre	2023-09-09T00:00:00	2024-11-08T17:00:00	1	Precipitación	0.2
46264	7	Sololá	701	Sololá	1	Sololá	9	Septiembre	2023-09-09T00:00:00	2024-11-08T17:00:00	8	Radiación solar	7
46265	7	Sololá	701	Sololá	1	Sololá	9	Septiembre	2023-09-09T00:00:00	2024-11-08T18:00:00	2	Temperatura media	15.8
46266	7	Sololá	701	Sololá	1	Sololá	9	Septiembre	2023-09-09T00:00:00	2024-11-08T18:00:00	4	Temperatura máxima	15.9
46267	7	Sololá	701	Sololá	1	Sololá	9	Septiembre	2023-09-09T00:00:00	2024-11-08T18:00:00	3	Temperatura mínima	15.7
46268	7	Sololá	701	Sololá	1	Sololá	9	Septiembre	2023-09-09T00:00:00	2024-11-08T18:00:00	5	Humedad	95
46269	7	Sololá	701	Sololá	1	Sololá	9	Septiembre	2023-09-09T00:00:00	2024-11-08T18:00:00	6	Velocidad del viento	0
46270	7	Sololá	701	Sololá	1	Sololá	9	Septiembre	2023-09-09T00:00:00	2024-11-08T18:00:00	7	Dirección del viento	0
46271	7	Sololá	701	Sololá	1	Sololá	9	Septiembre	2023-09-09T00:00:00	2024-11-08T18:00:00	1	Precipitación	0
46272	7	Sololá	701	Sololá	1	Sololá	9	Septiembre	2023-09-09T00:00:00	2024-11-08T18:00:00	8	Radiación solar	3
46273	7	Sololá	701	Sololá	1	Sololá	9	Septiembre	2023-09-09T00:00:00	2024-11-08T19:00:00	2	Temperatura media	15.4
46274	7	Sololá	701	Sololá	1	Sololá	9	Septiembre	2023-09-09T00:00:00	2024-11-08T19:00:00	4	Temperatura máxima	15.8
46275	7	Sololá	701	Sololá	1	Sololá	9	Septiembre	2023-09-09T00:00:00	2024-11-08T19:00:00	3	Temperatura mínima	15.4
46276	7	Sololá	701	Sololá	1	Sololá	9	Septiembre	2023-09-09T00:00:00	2024-11-08T19:00:00	5	Humedad	95
46277	7	Sololá	701	Sololá	1	Sololá	9	Septiembre	2023-09-09T00:00:00	2024-11-08T19:00:00	6	Velocidad del viento	0
46278	7	Sololá	701	Sololá	1	Sololá	9	Septiembre	2023-09-09T00:00:00	2024-11-08T19:00:00	7	Dirección del viento	0
46279	7	Sololá	701	Sololá	1	Sololá	9	Septiembre	2023-09-09T00:00:00	2024-11-08T19:00:00	1	Precipitación	0
46280	7	Sololá	701	Sololá	1	Sololá	9	Septiembre	2023-09-09T00:00:00	2024-11-08T19:00:00	8	Radiación solar	0
46281	7	Sololá	701	Sololá	1	Sololá	9	Septiembre	2023-09-09T00:00:00	2024-11-08T20:00:00	2	Temperatura media	15.2
46282	7	Sololá	701	Sololá	1	Sololá	9	Septiembre	2023-09-09T00:00:00	2024-11-08T20:00:00	4	Temperatura máxima	15.4
46283	7	Sololá	701	Sololá	1	Sololá	9	Septiembre	2023-09-09T00:00:00	2024-11-08T20:00:00	3	Temperatura mínima	15.2
46284	7	Sololá	701	Sololá	1	Sololá	9	Septiembre	2023-09-09T00:00:00	2024-11-08T20:00:00	5	Humedad	95
46285	7	Sololá	701	Sololá	1	Sololá	9	Septiembre	2023-09-09T00:00:00	2024-11-08T20:00:00	6	Velocidad del viento	0
46286	7	Sololá	701	Sololá	1	Sololá	9	Septiembre	2023-09-09T00:00:00	2024-11-08T20:00:00	7	Dirección del viento	0
46287	7	Sololá	701	Sololá	1	Sololá	9	Septiembre	2023-09-09T00:00:00	2024-11-08T20:00:00	1	Precipitación	0
46288	7	Sololá	701	Sololá	1	Sololá	9	Septiembre	2023-09-09T00:00:00	2024-11-08T20:00:00	8	Radiación solar	0
46289	7	Sololá	701	Sololá	1	Sololá	9	Septiembre	2023-09-09T00:00:00	2024-11-08T21:00:00	2	Temperatura media	14.4
46290	7	Sololá	701	Sololá	1	Sololá	9	Septiembre	2023-09-09T00:00:00	2024-11-08T21:00:00	4	Temperatura máxima	15.2
46291	7	Sololá	701	Sololá	1	Sololá	9	Septiembre	2023-09-09T00:00:00	2024-11-08T21:00:00	3	Temperatura mínima	14.4
46292	7	Sololá	701	Sololá	1	Sololá	9	Septiembre	2023-09-09T00:00:00	2024-11-08T21:00:00	5	Humedad	95
46293	7	Sololá	701	Sololá	1	Sololá	9	Septiembre	2023-09-09T00:00:00	2024-11-08T21:00:00	6	Velocidad del viento	0
46294	7	Sololá	701	Sololá	1	Sololá	9	Septiembre	2023-09-09T00:00:00	2024-11-08T21:00:00	7	Dirección del viento	0
46295	7	Sololá	701	Sololá	1	Sololá	9	Septiembre	2023-09-09T00:00:00	2024-11-08T21:00:00	1	Precipitación	0
46296	7	Sololá	701	Sololá	1	Sololá	9	Septiembre	2023-09-09T00:00:00	2024-11-08T21:00:00	8	Radiación solar	0
46297	7	Sololá	701	Sololá	1	Sololá	9	Septiembre	2023-09-09T00:00:00	2024-11-08T22:00:00	2	Temperatura media	14.6
46298	7	Sololá	701	Sololá	1	Sololá	9	Septiembre	2023-09-09T00:00:00	2024-11-08T22:00:00	4	Temperatura máxima	14.7
46299	7	Sololá	701	Sololá	1	Sololá	9	Septiembre	2023-09-09T00:00:00	2024-11-08T22:00:00	3	Temperatura mínima	14.4
46300	7	Sololá	701	Sololá	1	Sololá	9	Septiembre	2023-09-09T00:00:00	2024-11-08T22:00:00	5	Humedad	96
46301	7	Sololá	701	Sololá	1	Sololá	9	Septiembre	2023-09-09T00:00:00	2024-11-08T22:00:00	6	Velocidad del viento	0
46302	7	Sololá	701	Sololá	1	Sololá	9	Septiembre	2023-09-09T00:00:00	2024-11-08T22:00:00	7	Dirección del viento	0
46303	7	Sololá	701	Sololá	1	Sololá	9	Septiembre	2023-09-09T00:00:00	2024-11-08T22:00:00	1	Precipitación	0
46304	7	Sololá	701	Sololá	1	Sololá	9	Septiembre	2023-09-09T00:00:00	2024-11-08T22:00:00	8	Radiación solar	0
46305	7	Sololá	701	Sololá	1	Sololá	9	Septiembre	2023-09-09T00:00:00	2024-11-08T23:00:00	2	Temperatura media	14.6
46306	7	Sololá	701	Sololá	1	Sololá	9	Septiembre	2023-09-09T00:00:00	2024-11-08T23:00:00	4	Temperatura máxima	14.7
46307	7	Sololá	701	Sololá	1	Sololá	9	Septiembre	2023-09-09T00:00:00	2024-11-08T23:00:00	3	Temperatura mínima	14.6
46308	7	Sololá	701	Sololá	1	Sololá	9	Septiembre	2023-09-09T00:00:00	2024-11-08T23:00:00	5	Humedad	95
46309	7	Sololá	701	Sololá	1	Sololá	9	Septiembre	2023-09-09T00:00:00	2024-11-08T23:00:00	6	Velocidad del viento	0
46310	7	Sololá	701	Sololá	1	Sololá	9	Septiembre	2023-09-09T00:00:00	2024-11-08T23:00:00	7	Dirección del viento	0
46311	7	Sololá	701	Sololá	1	Sololá	9	Septiembre	2023-09-09T00:00:00	2024-11-08T23:00:00	1	Precipitación	0
46312	7	Sololá	701	Sololá	1	Sololá	9	Septiembre	2023-09-09T00:00:00	2024-11-08T23:00:00	8	Radiación solar	0
46313	7	Sololá	701	Sololá	1	Sololá	9	Septiembre	2023-10-09T00:00:00	2024-11-08T00:00:00	2	Temperatura media	14
46314	7	Sololá	701	Sololá	1	Sololá	9	Septiembre	2023-10-09T00:00:00	2024-11-08T00:00:00	4	Temperatura máxima	14.6
46315	7	Sololá	701	Sololá	1	Sololá	9	Septiembre	2023-10-09T00:00:00	2024-11-08T00:00:00	3	Temperatura mínima	14
46316	7	Sololá	701	Sololá	1	Sololá	9	Septiembre	2023-10-09T00:00:00	2024-11-08T00:00:00	5	Humedad	95
46317	7	Sololá	701	Sololá	1	Sololá	9	Septiembre	2023-10-09T00:00:00	2024-11-08T00:00:00	6	Velocidad del viento	0
46318	7	Sololá	701	Sololá	1	Sololá	9	Septiembre	2023-10-09T00:00:00	2024-11-08T00:00:00	7	Dirección del viento	0
46319	7	Sololá	701	Sololá	1	Sololá	9	Septiembre	2023-10-09T00:00:00	2024-11-08T00:00:00	1	Precipitación	0
46320	7	Sololá	701	Sololá	1	Sololá	9	Septiembre	2023-10-09T00:00:00	2024-11-08T00:00:00	8	Radiación solar	0
46321	7	Sololá	701	Sololá	1	Sololá	9	Septiembre	2023-10-09T00:00:00	2024-11-08T01:00:00	2	Temperatura media	13.9
46322	7	Sololá	701	Sololá	1	Sololá	9	Septiembre	2023-10-09T00:00:00	2024-11-08T01:00:00	4	Temperatura máxima	14
46323	7	Sololá	701	Sololá	1	Sololá	9	Septiembre	2023-10-09T00:00:00	2024-11-08T01:00:00	3	Temperatura mínima	13.8
46324	7	Sololá	701	Sololá	1	Sololá	9	Septiembre	2023-10-09T00:00:00	2024-11-08T01:00:00	5	Humedad	95
46325	7	Sololá	701	Sololá	1	Sololá	9	Septiembre	2023-10-09T00:00:00	2024-11-08T01:00:00	6	Velocidad del viento	0
46326	7	Sololá	701	Sololá	1	Sololá	9	Septiembre	2023-10-09T00:00:00	2024-11-08T01:00:00	7	Dirección del viento	0
46327	7	Sololá	701	Sololá	1	Sololá	9	Septiembre	2023-10-09T00:00:00	2024-11-08T01:00:00	1	Precipitación	0
46328	7	Sololá	701	Sololá	1	Sololá	9	Septiembre	2023-10-09T00:00:00	2024-11-08T01:00:00	8	Radiación solar	0
46329	7	Sololá	701	Sololá	1	Sololá	9	Septiembre	2023-10-09T00:00:00	2024-11-08T02:00:00	2	Temperatura media	13.8
46330	7	Sololá	701	Sololá	1	Sololá	9	Septiembre	2023-10-09T00:00:00	2024-11-08T02:00:00	4	Temperatura máxima	13.9
46331	7	Sololá	701	Sololá	1	Sololá	9	Septiembre	2023-10-09T00:00:00	2024-11-08T02:00:00	3	Temperatura mínima	13.8
46332	7	Sololá	701	Sololá	1	Sololá	9	Septiembre	2023-10-09T00:00:00	2024-11-08T02:00:00	5	Humedad	95
46333	7	Sololá	701	Sololá	1	Sololá	9	Septiembre	2023-10-09T00:00:00	2024-11-08T02:00:00	6	Velocidad del viento	0
46334	7	Sololá	701	Sololá	1	Sololá	9	Septiembre	2023-10-09T00:00:00	2024-11-08T02:00:00	7	Dirección del viento	0
46335	7	Sololá	701	Sololá	1	Sololá	9	Septiembre	2023-10-09T00:00:00	2024-11-08T02:00:00	1	Precipitación	0
46336	7	Sololá	701	Sololá	1	Sololá	9	Septiembre	2023-10-09T00:00:00	2024-11-08T02:00:00	8	Radiación solar	0
46337	7	Sololá	701	Sololá	1	Sololá	9	Septiembre	2023-10-09T00:00:00	2024-11-08T03:00:00	2	Temperatura media	13.7
46338	7	Sololá	701	Sololá	1	Sololá	9	Septiembre	2023-10-09T00:00:00	2024-11-08T03:00:00	4	Temperatura máxima	13.8
46339	7	Sololá	701	Sololá	1	Sololá	9	Septiembre	2023-10-09T00:00:00	2024-11-08T03:00:00	3	Temperatura mínima	13.7
46340	7	Sololá	701	Sololá	1	Sololá	9	Septiembre	2023-10-09T00:00:00	2024-11-08T03:00:00	5	Humedad	95
46341	7	Sololá	701	Sololá	1	Sololá	9	Septiembre	2023-10-09T00:00:00	2024-11-08T03:00:00	6	Velocidad del viento	0
46342	7	Sololá	701	Sololá	1	Sololá	9	Septiembre	2023-10-09T00:00:00	2024-11-08T03:00:00	7	Dirección del viento	0
46343	7	Sololá	701	Sololá	1	Sololá	9	Septiembre	2023-10-09T00:00:00	2024-11-08T03:00:00	1	Precipitación	0
46344	7	Sololá	701	Sololá	1	Sololá	9	Septiembre	2023-10-09T00:00:00	2024-11-08T03:00:00	8	Radiación solar	0
46345	7	Sololá	701	Sololá	1	Sololá	9	Septiembre	2023-10-09T00:00:00	2024-11-08T04:00:00	2	Temperatura media	13.4
46346	7	Sololá	701	Sololá	1	Sololá	9	Septiembre	2023-10-09T00:00:00	2024-11-08T04:00:00	4	Temperatura máxima	13.7
46347	7	Sololá	701	Sololá	1	Sololá	9	Septiembre	2023-10-09T00:00:00	2024-11-08T04:00:00	3	Temperatura mínima	13.4
46348	7	Sololá	701	Sololá	1	Sololá	9	Septiembre	2023-10-09T00:00:00	2024-11-08T04:00:00	5	Humedad	95
46349	7	Sololá	701	Sololá	1	Sololá	9	Septiembre	2023-10-09T00:00:00	2024-11-08T04:00:00	6	Velocidad del viento	0
46350	7	Sololá	701	Sololá	1	Sololá	9	Septiembre	2023-10-09T00:00:00	2024-11-08T04:00:00	7	Dirección del viento	0
46351	7	Sololá	701	Sololá	1	Sololá	9	Septiembre	2023-10-09T00:00:00	2024-11-08T04:00:00	1	Precipitación	0
46352	7	Sololá	701	Sololá	1	Sololá	9	Septiembre	2023-10-09T00:00:00	2024-11-08T04:00:00	8	Radiación solar	0
46353	7	Sololá	701	Sololá	1	Sololá	9	Septiembre	2023-10-09T00:00:00	2024-11-08T05:00:00	2	Temperatura media	13.3
46354	7	Sololá	701	Sololá	1	Sololá	9	Septiembre	2023-10-09T00:00:00	2024-11-08T05:00:00	4	Temperatura máxima	13.4
46355	7	Sololá	701	Sololá	1	Sololá	9	Septiembre	2023-10-09T00:00:00	2024-11-08T05:00:00	3	Temperatura mínima	13.2
46356	7	Sololá	701	Sololá	1	Sololá	9	Septiembre	2023-10-09T00:00:00	2024-11-08T05:00:00	5	Humedad	95
46357	7	Sololá	701	Sololá	1	Sololá	9	Septiembre	2023-10-09T00:00:00	2024-11-08T05:00:00	6	Velocidad del viento	0
46358	7	Sololá	701	Sololá	1	Sololá	9	Septiembre	2023-10-09T00:00:00	2024-11-08T05:00:00	7	Dirección del viento	0
46359	7	Sololá	701	Sololá	1	Sololá	9	Septiembre	2023-10-09T00:00:00	2024-11-08T05:00:00	1	Precipitación	0
46360	7	Sololá	701	Sololá	1	Sololá	9	Septiembre	2023-10-09T00:00:00	2024-11-08T05:00:00	8	Radiación solar	0
46361	7	Sololá	701	Sololá	1	Sololá	9	Septiembre	2023-10-09T00:00:00	2024-11-08T06:00:00	2	Temperatura media	13.2
46362	7	Sololá	701	Sololá	1	Sololá	9	Septiembre	2023-10-09T00:00:00	2024-11-08T06:00:00	4	Temperatura máxima	13.3
46363	7	Sololá	701	Sololá	1	Sololá	9	Septiembre	2023-10-09T00:00:00	2024-11-08T06:00:00	3	Temperatura mínima	13.1
46364	7	Sololá	701	Sololá	1	Sololá	9	Septiembre	2023-10-09T00:00:00	2024-11-08T06:00:00	5	Humedad	95
46365	7	Sololá	701	Sololá	1	Sololá	9	Septiembre	2023-10-09T00:00:00	2024-11-08T06:00:00	6	Velocidad del viento	0
46366	7	Sololá	701	Sololá	1	Sololá	9	Septiembre	2023-10-09T00:00:00	2024-11-08T06:00:00	7	Dirección del viento	0
46367	7	Sololá	701	Sololá	1	Sololá	9	Septiembre	2023-10-09T00:00:00	2024-11-08T06:00:00	1	Precipitación	0
46368	7	Sololá	701	Sololá	1	Sololá	9	Septiembre	2023-10-09T00:00:00	2024-11-08T06:00:00	8	Radiación solar	0
46369	7	Sololá	701	Sololá	1	Sololá	9	Septiembre	2023-10-09T00:00:00	2024-11-08T07:00:00	2	Temperatura media	13.4
46370	7	Sololá	701	Sololá	1	Sololá	9	Septiembre	2023-10-09T00:00:00	2024-11-08T07:00:00	4	Temperatura máxima	13.4
46371	7	Sololá	701	Sololá	1	Sololá	9	Septiembre	2023-10-09T00:00:00	2024-11-08T07:00:00	3	Temperatura mínima	13.2
46372	7	Sololá	701	Sololá	1	Sololá	9	Septiembre	2023-10-09T00:00:00	2024-11-08T07:00:00	5	Humedad	95
46373	7	Sololá	701	Sololá	1	Sololá	9	Septiembre	2023-10-09T00:00:00	2024-11-08T07:00:00	6	Velocidad del viento	0
46374	7	Sololá	701	Sololá	1	Sololá	9	Septiembre	2023-10-09T00:00:00	2024-11-08T07:00:00	7	Dirección del viento	0
46375	7	Sololá	701	Sololá	1	Sololá	9	Septiembre	2023-10-09T00:00:00	2024-11-08T07:00:00	1	Precipitación	0
46376	7	Sololá	701	Sololá	1	Sololá	9	Septiembre	2023-10-09T00:00:00	2024-11-08T07:00:00	8	Radiación solar	9
46377	7	Sololá	701	Sololá	1	Sololá	9	Septiembre	2023-10-09T00:00:00	2024-11-08T08:00:00	2	Temperatura media	15.2
46378	7	Sololá	701	Sololá	1	Sololá	9	Septiembre	2023-10-09T00:00:00	2024-11-08T08:00:00	4	Temperatura máxima	15.2
46379	7	Sololá	701	Sololá	1	Sololá	9	Septiembre	2023-10-09T00:00:00	2024-11-08T08:00:00	3	Temperatura mínima	13.4
46380	7	Sololá	701	Sololá	1	Sololá	9	Septiembre	2023-10-09T00:00:00	2024-11-08T08:00:00	5	Humedad	92
46381	7	Sololá	701	Sololá	1	Sololá	9	Septiembre	2023-10-09T00:00:00	2024-11-08T08:00:00	6	Velocidad del viento	0
46382	7	Sololá	701	Sololá	1	Sololá	9	Septiembre	2023-10-09T00:00:00	2024-11-08T08:00:00	7	Dirección del viento	0
46383	7	Sololá	701	Sololá	1	Sololá	9	Septiembre	2023-10-09T00:00:00	2024-11-08T08:00:00	1	Precipitación	0
46384	7	Sololá	701	Sololá	1	Sololá	9	Septiembre	2023-10-09T00:00:00	2024-11-08T08:00:00	8	Radiación solar	44
46385	7	Sololá	701	Sololá	1	Sololá	9	Septiembre	2023-10-09T00:00:00	2024-11-08T09:00:00	2	Temperatura media	16.5
46386	7	Sololá	701	Sololá	1	Sololá	9	Septiembre	2023-10-09T00:00:00	2024-11-08T09:00:00	4	Temperatura máxima	16.5
46387	7	Sololá	701	Sololá	1	Sololá	9	Septiembre	2023-10-09T00:00:00	2024-11-08T09:00:00	3	Temperatura mínima	15.2
46388	7	Sololá	701	Sololá	1	Sololá	9	Septiembre	2023-10-09T00:00:00	2024-11-08T09:00:00	5	Humedad	88
46389	7	Sololá	701	Sololá	1	Sololá	9	Septiembre	2023-10-09T00:00:00	2024-11-08T09:00:00	6	Velocidad del viento	0
46390	7	Sololá	701	Sololá	1	Sololá	9	Septiembre	2023-10-09T00:00:00	2024-11-08T09:00:00	7	Dirección del viento	0
46391	7	Sololá	701	Sololá	1	Sololá	9	Septiembre	2023-10-09T00:00:00	2024-11-08T09:00:00	1	Precipitación	0
46392	7	Sololá	701	Sololá	1	Sololá	9	Septiembre	2023-10-09T00:00:00	2024-11-08T09:00:00	8	Radiación solar	80
46393	7	Sololá	701	Sololá	1	Sololá	9	Septiembre	2023-10-09T00:00:00	2024-11-08T10:00:00	2	Temperatura media	18.3
46394	7	Sololá	701	Sololá	1	Sololá	9	Septiembre	2023-10-09T00:00:00	2024-11-08T10:00:00	4	Temperatura máxima	18.3
46395	7	Sololá	701	Sololá	1	Sololá	9	Septiembre	2023-10-09T00:00:00	2024-11-08T10:00:00	3	Temperatura mínima	16.5
46396	7	Sololá	701	Sololá	1	Sololá	9	Septiembre	2023-10-09T00:00:00	2024-11-08T10:00:00	5	Humedad	81
46397	7	Sololá	701	Sololá	1	Sololá	9	Septiembre	2023-10-09T00:00:00	2024-11-08T10:00:00	6	Velocidad del viento	0
46398	7	Sololá	701	Sololá	1	Sololá	9	Septiembre	2023-10-09T00:00:00	2024-11-08T10:00:00	7	Dirección del viento	0
46399	7	Sololá	701	Sololá	1	Sololá	9	Septiembre	2023-10-09T00:00:00	2024-11-08T10:00:00	1	Precipitación	0
46400	7	Sololá	701	Sololá	1	Sololá	9	Septiembre	2023-10-09T00:00:00	2024-11-08T10:00:00	8	Radiación solar	170
46401	7	Sololá	701	Sololá	1	Sololá	9	Septiembre	2023-10-09T00:00:00	2024-11-08T11:00:00	2	Temperatura media	21.1
46402	7	Sololá	701	Sololá	1	Sololá	9	Septiembre	2023-10-09T00:00:00	2024-11-08T11:00:00	4	Temperatura máxima	21.1
46403	7	Sololá	701	Sololá	1	Sololá	9	Septiembre	2023-10-09T00:00:00	2024-11-08T11:00:00	3	Temperatura mínima	18.3
46404	7	Sololá	701	Sololá	1	Sololá	9	Septiembre	2023-10-09T00:00:00	2024-11-08T11:00:00	5	Humedad	76
46405	7	Sololá	701	Sololá	1	Sololá	9	Septiembre	2023-10-09T00:00:00	2024-11-08T11:00:00	6	Velocidad del viento	0
46406	7	Sololá	701	Sololá	1	Sololá	9	Septiembre	2023-10-09T00:00:00	2024-11-08T11:00:00	7	Dirección del viento	0
46407	7	Sololá	701	Sololá	1	Sololá	9	Septiembre	2023-10-09T00:00:00	2024-11-08T11:00:00	1	Precipitación	0
46408	7	Sololá	701	Sololá	1	Sololá	9	Septiembre	2023-10-09T00:00:00	2024-11-08T11:00:00	8	Radiación solar	326
46409	7	Sololá	701	Sololá	1	Sololá	9	Septiembre	2023-10-09T00:00:00	2024-11-08T12:00:00	2	Temperatura media	21.9
46410	7	Sololá	701	Sololá	1	Sololá	9	Septiembre	2023-10-09T00:00:00	2024-11-08T12:00:00	4	Temperatura máxima	21.9
46411	7	Sololá	701	Sololá	1	Sololá	9	Septiembre	2023-10-09T00:00:00	2024-11-08T12:00:00	3	Temperatura mínima	21.1
46412	7	Sololá	701	Sololá	1	Sololá	9	Septiembre	2023-10-09T00:00:00	2024-11-08T12:00:00	5	Humedad	72
46413	7	Sololá	701	Sololá	1	Sololá	9	Septiembre	2023-10-09T00:00:00	2024-11-08T12:00:00	6	Velocidad del viento	0
46414	7	Sololá	701	Sololá	1	Sololá	9	Septiembre	2023-10-09T00:00:00	2024-11-08T12:00:00	7	Dirección del viento	0
46415	7	Sololá	701	Sololá	1	Sololá	9	Septiembre	2023-10-09T00:00:00	2024-11-08T12:00:00	1	Precipitación	0
46416	7	Sololá	701	Sololá	1	Sololá	9	Septiembre	2023-10-09T00:00:00	2024-11-08T12:00:00	8	Radiación solar	346
46417	7	Sololá	701	Sololá	1	Sololá	9	Septiembre	2023-10-09T00:00:00	2024-11-08T13:00:00	2	Temperatura media	21.1
46418	7	Sololá	701	Sololá	1	Sololá	9	Septiembre	2023-10-09T00:00:00	2024-11-08T13:00:00	4	Temperatura máxima	21.9
46419	7	Sololá	701	Sololá	1	Sololá	9	Septiembre	2023-10-09T00:00:00	2024-11-08T13:00:00	3	Temperatura mínima	20.9
46420	7	Sololá	701	Sololá	1	Sololá	9	Septiembre	2023-10-09T00:00:00	2024-11-08T13:00:00	5	Humedad	80
46421	7	Sololá	701	Sololá	1	Sololá	9	Septiembre	2023-10-09T00:00:00	2024-11-08T13:00:00	6	Velocidad del viento	0
46422	7	Sololá	701	Sololá	1	Sololá	9	Septiembre	2023-10-09T00:00:00	2024-11-08T13:00:00	7	Dirección del viento	0
46423	7	Sololá	701	Sololá	1	Sololá	9	Septiembre	2023-10-09T00:00:00	2024-11-08T13:00:00	1	Precipitación	0
46424	7	Sololá	701	Sololá	1	Sololá	9	Septiembre	2023-10-09T00:00:00	2024-11-08T13:00:00	8	Radiación solar	237
46425	7	Sololá	701	Sololá	1	Sololá	9	Septiembre	2023-10-09T00:00:00	2024-11-08T14:00:00	2	Temperatura media	20.2
46426	7	Sololá	701	Sololá	1	Sololá	9	Septiembre	2023-10-09T00:00:00	2024-11-08T14:00:00	4	Temperatura máxima	21.2
46427	7	Sololá	701	Sololá	1	Sololá	9	Septiembre	2023-10-09T00:00:00	2024-11-08T14:00:00	3	Temperatura mínima	20.2
46428	7	Sololá	701	Sololá	1	Sololá	9	Septiembre	2023-10-09T00:00:00	2024-11-08T14:00:00	5	Humedad	84
46429	7	Sololá	701	Sololá	1	Sololá	9	Septiembre	2023-10-09T00:00:00	2024-11-08T14:00:00	6	Velocidad del viento	0
46430	7	Sololá	701	Sololá	1	Sololá	9	Septiembre	2023-10-09T00:00:00	2024-11-08T14:00:00	7	Dirección del viento	0
46431	7	Sololá	701	Sololá	1	Sololá	9	Septiembre	2023-10-09T00:00:00	2024-11-08T14:00:00	1	Precipitación	0
46432	7	Sololá	701	Sololá	1	Sololá	9	Septiembre	2023-10-09T00:00:00	2024-11-08T14:00:00	8	Radiación solar	147
46433	7	Sololá	701	Sololá	1	Sololá	9	Septiembre	2023-10-09T00:00:00	2024-11-08T15:00:00	2	Temperatura media	21.2
46434	7	Sololá	701	Sololá	1	Sololá	9	Septiembre	2023-10-09T00:00:00	2024-11-08T15:00:00	4	Temperatura máxima	21.3
46435	7	Sololá	701	Sololá	1	Sololá	9	Septiembre	2023-10-09T00:00:00	2024-11-08T15:00:00	3	Temperatura mínima	19.8
46436	7	Sololá	701	Sololá	1	Sololá	9	Septiembre	2023-10-09T00:00:00	2024-11-08T15:00:00	5	Humedad	82
46437	7	Sololá	701	Sololá	1	Sololá	9	Septiembre	2023-10-09T00:00:00	2024-11-08T15:00:00	6	Velocidad del viento	0
46438	7	Sololá	701	Sololá	1	Sololá	9	Septiembre	2023-10-09T00:00:00	2024-11-08T15:00:00	7	Dirección del viento	0
46439	7	Sololá	701	Sololá	1	Sololá	9	Septiembre	2023-10-09T00:00:00	2024-11-08T15:00:00	1	Precipitación	0
46440	7	Sololá	701	Sololá	1	Sololá	9	Septiembre	2023-10-09T00:00:00	2024-11-08T15:00:00	8	Radiación solar	141
46441	7	Sololá	701	Sololá	1	Sololá	9	Septiembre	2023-10-09T00:00:00	2024-11-08T16:00:00	2	Temperatura media	19.9
46442	7	Sololá	701	Sololá	1	Sololá	9	Septiembre	2023-10-09T00:00:00	2024-11-08T16:00:00	4	Temperatura máxima	21.2
46443	7	Sololá	701	Sololá	1	Sololá	9	Septiembre	2023-10-09T00:00:00	2024-11-08T16:00:00	3	Temperatura mínima	19.9
46444	7	Sololá	701	Sololá	1	Sololá	9	Septiembre	2023-10-09T00:00:00	2024-11-08T16:00:00	5	Humedad	86
46445	7	Sololá	701	Sololá	1	Sololá	9	Septiembre	2023-10-09T00:00:00	2024-11-08T16:00:00	6	Velocidad del viento	0
46446	7	Sololá	701	Sololá	1	Sololá	9	Septiembre	2023-10-09T00:00:00	2024-11-08T16:00:00	7	Dirección del viento	0
46447	7	Sololá	701	Sololá	1	Sololá	9	Septiembre	2023-10-09T00:00:00	2024-11-08T16:00:00	1	Precipitación	0
46448	7	Sololá	701	Sololá	1	Sololá	9	Septiembre	2023-10-09T00:00:00	2024-11-08T16:00:00	8	Radiación solar	111
46449	7	Sololá	701	Sololá	1	Sololá	9	Septiembre	2023-10-09T00:00:00	2024-11-08T17:00:00	2	Temperatura media	19.1
46450	7	Sololá	701	Sololá	1	Sololá	9	Septiembre	2023-10-09T00:00:00	2024-11-08T17:00:00	4	Temperatura máxima	19.9
46451	7	Sololá	701	Sololá	1	Sololá	9	Septiembre	2023-10-09T00:00:00	2024-11-08T17:00:00	3	Temperatura mínima	19
46452	7	Sololá	701	Sololá	1	Sololá	9	Septiembre	2023-10-09T00:00:00	2024-11-08T17:00:00	5	Humedad	90
46453	7	Sololá	701	Sololá	1	Sololá	9	Septiembre	2023-10-09T00:00:00	2024-11-08T17:00:00	6	Velocidad del viento	0
46454	7	Sololá	701	Sololá	1	Sololá	9	Septiembre	2023-10-09T00:00:00	2024-11-08T17:00:00	7	Dirección del viento	0
46455	7	Sololá	701	Sololá	1	Sololá	9	Septiembre	2023-10-09T00:00:00	2024-11-08T17:00:00	1	Precipitación	0
46456	7	Sololá	701	Sololá	1	Sololá	9	Septiembre	2023-10-09T00:00:00	2024-11-08T17:00:00	8	Radiación solar	43
46457	7	Sololá	701	Sololá	1	Sololá	9	Septiembre	2023-10-09T00:00:00	2024-11-08T18:00:00	2	Temperatura media	17.3
46458	7	Sololá	701	Sololá	1	Sololá	9	Septiembre	2023-10-09T00:00:00	2024-11-08T18:00:00	4	Temperatura máxima	19.1
46459	7	Sololá	701	Sololá	1	Sololá	9	Septiembre	2023-10-09T00:00:00	2024-11-08T18:00:00	3	Temperatura mínima	17.3
46460	7	Sololá	701	Sololá	1	Sololá	9	Septiembre	2023-10-09T00:00:00	2024-11-08T18:00:00	5	Humedad	94
46461	7	Sololá	701	Sololá	1	Sololá	9	Septiembre	2023-10-09T00:00:00	2024-11-08T18:00:00	6	Velocidad del viento	0
46462	7	Sololá	701	Sololá	1	Sololá	9	Septiembre	2023-10-09T00:00:00	2024-11-08T18:00:00	7	Dirección del viento	0
46463	7	Sololá	701	Sololá	1	Sololá	9	Septiembre	2023-10-09T00:00:00	2024-11-08T18:00:00	1	Precipitación	0
46464	7	Sololá	701	Sololá	1	Sololá	9	Septiembre	2023-10-09T00:00:00	2024-11-08T18:00:00	8	Radiación solar	4
46465	7	Sololá	701	Sololá	1	Sololá	9	Septiembre	2023-10-09T00:00:00	2024-11-08T19:00:00	2	Temperatura media	16.7
46466	7	Sololá	701	Sololá	1	Sololá	9	Septiembre	2023-10-09T00:00:00	2024-11-08T19:00:00	4	Temperatura máxima	17.3
46467	7	Sololá	701	Sololá	1	Sololá	9	Septiembre	2023-10-09T00:00:00	2024-11-08T19:00:00	3	Temperatura mínima	16.7
46468	7	Sololá	701	Sololá	1	Sololá	9	Septiembre	2023-10-09T00:00:00	2024-11-08T19:00:00	5	Humedad	94
46469	7	Sololá	701	Sololá	1	Sololá	9	Septiembre	2023-10-09T00:00:00	2024-11-08T19:00:00	6	Velocidad del viento	0
46470	7	Sololá	701	Sololá	1	Sololá	9	Septiembre	2023-10-09T00:00:00	2024-11-08T19:00:00	7	Dirección del viento	0
46471	7	Sololá	701	Sololá	1	Sololá	9	Septiembre	2023-10-09T00:00:00	2024-11-08T19:00:00	1	Precipitación	0
46472	7	Sololá	701	Sololá	1	Sololá	9	Septiembre	2023-10-09T00:00:00	2024-11-08T19:00:00	8	Radiación solar	0
46473	7	Sololá	701	Sololá	1	Sololá	9	Septiembre	2023-10-09T00:00:00	2024-11-08T20:00:00	2	Temperatura media	15.9
46474	7	Sololá	701	Sololá	1	Sololá	9	Septiembre	2023-10-09T00:00:00	2024-11-08T20:00:00	4	Temperatura máxima	16.7
46475	7	Sololá	701	Sololá	1	Sololá	9	Septiembre	2023-10-09T00:00:00	2024-11-08T20:00:00	3	Temperatura mínima	15.9
46476	7	Sololá	701	Sololá	1	Sololá	9	Septiembre	2023-10-09T00:00:00	2024-11-08T20:00:00	5	Humedad	94
46477	7	Sololá	701	Sololá	1	Sololá	9	Septiembre	2023-10-09T00:00:00	2024-11-08T20:00:00	6	Velocidad del viento	0
46478	7	Sololá	701	Sololá	1	Sololá	9	Septiembre	2023-10-09T00:00:00	2024-11-08T20:00:00	7	Dirección del viento	0
46479	7	Sololá	701	Sololá	1	Sololá	9	Septiembre	2023-10-09T00:00:00	2024-11-08T20:00:00	1	Precipitación	0
46480	7	Sololá	701	Sololá	1	Sololá	9	Septiembre	2023-10-09T00:00:00	2024-11-08T20:00:00	8	Radiación solar	0
46481	7	Sololá	701	Sololá	1	Sololá	9	Septiembre	2023-10-09T00:00:00	2024-11-08T21:00:00	2	Temperatura media	15.4
46482	7	Sololá	701	Sololá	1	Sololá	9	Septiembre	2023-10-09T00:00:00	2024-11-08T21:00:00	4	Temperatura máxima	15.9
46483	7	Sololá	701	Sololá	1	Sololá	9	Septiembre	2023-10-09T00:00:00	2024-11-08T21:00:00	3	Temperatura mínima	15.4
46484	7	Sololá	701	Sololá	1	Sololá	9	Septiembre	2023-10-09T00:00:00	2024-11-08T21:00:00	5	Humedad	94
46485	7	Sololá	701	Sololá	1	Sololá	9	Septiembre	2023-10-09T00:00:00	2024-11-08T21:00:00	6	Velocidad del viento	0
46486	7	Sololá	701	Sololá	1	Sololá	9	Septiembre	2023-10-09T00:00:00	2024-11-08T21:00:00	7	Dirección del viento	0
46487	7	Sololá	701	Sololá	1	Sololá	9	Septiembre	2023-10-09T00:00:00	2024-11-08T21:00:00	1	Precipitación	0
46488	7	Sololá	701	Sololá	1	Sololá	9	Septiembre	2023-10-09T00:00:00	2024-11-08T21:00:00	8	Radiación solar	0
46489	7	Sololá	701	Sololá	1	Sololá	9	Septiembre	2023-10-09T00:00:00	2024-11-08T22:00:00	2	Temperatura media	15.1
46490	7	Sololá	701	Sololá	1	Sololá	9	Septiembre	2023-10-09T00:00:00	2024-11-08T22:00:00	4	Temperatura máxima	15.5
46491	7	Sololá	701	Sololá	1	Sololá	9	Septiembre	2023-10-09T00:00:00	2024-11-08T22:00:00	3	Temperatura mínima	15.1
46492	7	Sololá	701	Sololá	1	Sololá	9	Septiembre	2023-10-09T00:00:00	2024-11-08T22:00:00	5	Humedad	94
46493	7	Sololá	701	Sololá	1	Sololá	9	Septiembre	2023-10-09T00:00:00	2024-11-08T22:00:00	6	Velocidad del viento	0
46494	7	Sololá	701	Sololá	1	Sololá	9	Septiembre	2023-10-09T00:00:00	2024-11-08T22:00:00	7	Dirección del viento	0
46495	7	Sololá	701	Sololá	1	Sololá	9	Septiembre	2023-10-09T00:00:00	2024-11-08T22:00:00	1	Precipitación	0
46496	7	Sololá	701	Sololá	1	Sololá	9	Septiembre	2023-10-09T00:00:00	2024-11-08T22:00:00	8	Radiación solar	0
46497	7	Sololá	701	Sololá	1	Sololá	9	Septiembre	2023-10-09T00:00:00	2024-11-08T23:00:00	2	Temperatura media	15.1
46498	7	Sololá	701	Sololá	1	Sololá	9	Septiembre	2023-10-09T00:00:00	2024-11-08T23:00:00	4	Temperatura máxima	15.2
46499	7	Sololá	701	Sololá	1	Sololá	9	Septiembre	2023-10-09T00:00:00	2024-11-08T23:00:00	3	Temperatura mínima	15.1
46500	7	Sololá	701	Sololá	1	Sololá	9	Septiembre	2023-10-09T00:00:00	2024-11-08T23:00:00	5	Humedad	94
46501	7	Sololá	701	Sololá	1	Sololá	9	Septiembre	2023-10-09T00:00:00	2024-11-08T23:00:00	6	Velocidad del viento	0
46502	7	Sololá	701	Sololá	1	Sololá	9	Septiembre	2023-10-09T00:00:00	2024-11-08T23:00:00	7	Dirección del viento	0
46503	7	Sololá	701	Sololá	1	Sololá	9	Septiembre	2023-10-09T00:00:00	2024-11-08T23:00:00	1	Precipitación	0
46504	7	Sololá	701	Sololá	1	Sololá	9	Septiembre	2023-10-09T00:00:00	2024-11-08T23:00:00	8	Radiación solar	0
46505	7	Sololá	701	Sololá	1	Sololá	9	Septiembre	2023-11-09T00:00:00	2024-11-08T00:00:00	2	Temperatura media	14.4
46506	7	Sololá	701	Sololá	1	Sololá	9	Septiembre	2023-11-09T00:00:00	2024-11-08T00:00:00	4	Temperatura máxima	15.1
46507	7	Sololá	701	Sololá	1	Sololá	9	Septiembre	2023-11-09T00:00:00	2024-11-08T00:00:00	3	Temperatura mínima	14.3
46508	7	Sololá	701	Sololá	1	Sololá	9	Septiembre	2023-11-09T00:00:00	2024-11-08T00:00:00	5	Humedad	94
46509	7	Sololá	701	Sololá	1	Sololá	9	Septiembre	2023-11-09T00:00:00	2024-11-08T00:00:00	6	Velocidad del viento	0
46510	7	Sololá	701	Sololá	1	Sololá	9	Septiembre	2023-11-09T00:00:00	2024-11-08T00:00:00	7	Dirección del viento	0
46511	7	Sololá	701	Sololá	1	Sololá	9	Septiembre	2023-11-09T00:00:00	2024-11-08T00:00:00	1	Precipitación	0
46512	7	Sololá	701	Sololá	1	Sololá	9	Septiembre	2023-11-09T00:00:00	2024-11-08T00:00:00	8	Radiación solar	0
46513	7	Sololá	701	Sololá	1	Sololá	9	Septiembre	2023-11-09T00:00:00	2024-11-08T01:00:00	2	Temperatura media	14
46514	7	Sololá	701	Sololá	1	Sololá	9	Septiembre	2023-11-09T00:00:00	2024-11-08T01:00:00	4	Temperatura máxima	14.4
46515	7	Sololá	701	Sololá	1	Sololá	9	Septiembre	2023-11-09T00:00:00	2024-11-08T01:00:00	3	Temperatura mínima	14
46516	7	Sololá	701	Sololá	1	Sololá	9	Septiembre	2023-11-09T00:00:00	2024-11-08T01:00:00	5	Humedad	94
46517	7	Sololá	701	Sololá	1	Sololá	9	Septiembre	2023-11-09T00:00:00	2024-11-08T01:00:00	6	Velocidad del viento	0
46518	7	Sololá	701	Sololá	1	Sololá	9	Septiembre	2023-11-09T00:00:00	2024-11-08T01:00:00	7	Dirección del viento	0
46519	7	Sololá	701	Sololá	1	Sololá	9	Septiembre	2023-11-09T00:00:00	2024-11-08T01:00:00	1	Precipitación	0
46520	7	Sololá	701	Sololá	1	Sololá	9	Septiembre	2023-11-09T00:00:00	2024-11-08T01:00:00	8	Radiación solar	0
46521	7	Sololá	701	Sololá	1	Sololá	9	Septiembre	2023-11-09T00:00:00	2024-11-08T02:00:00	2	Temperatura media	13.8
46522	7	Sololá	701	Sololá	1	Sololá	9	Septiembre	2023-11-09T00:00:00	2024-11-08T02:00:00	4	Temperatura máxima	14.1
46523	7	Sololá	701	Sololá	1	Sololá	9	Septiembre	2023-11-09T00:00:00	2024-11-08T02:00:00	3	Temperatura mínima	13.7
46524	7	Sololá	701	Sololá	1	Sololá	9	Septiembre	2023-11-09T00:00:00	2024-11-08T02:00:00	5	Humedad	94
46525	7	Sololá	701	Sololá	1	Sololá	9	Septiembre	2023-11-09T00:00:00	2024-11-08T02:00:00	6	Velocidad del viento	0
46526	7	Sololá	701	Sololá	1	Sololá	9	Septiembre	2023-11-09T00:00:00	2024-11-08T02:00:00	7	Dirección del viento	0
46527	7	Sololá	701	Sololá	1	Sololá	9	Septiembre	2023-11-09T00:00:00	2024-11-08T02:00:00	1	Precipitación	0
46528	7	Sololá	701	Sololá	1	Sololá	9	Septiembre	2023-11-09T00:00:00	2024-11-08T02:00:00	8	Radiación solar	0
46529	7	Sololá	701	Sololá	1	Sololá	9	Septiembre	2023-11-09T00:00:00	2024-11-08T03:00:00	2	Temperatura media	13.7
46530	7	Sololá	701	Sololá	1	Sololá	9	Septiembre	2023-11-09T00:00:00	2024-11-08T03:00:00	4	Temperatura máxima	13.8
46531	7	Sololá	701	Sololá	1	Sololá	9	Septiembre	2023-11-09T00:00:00	2024-11-08T03:00:00	3	Temperatura mínima	13.6
46532	7	Sololá	701	Sololá	1	Sololá	9	Septiembre	2023-11-09T00:00:00	2024-11-08T03:00:00	5	Humedad	93
46533	7	Sololá	701	Sololá	1	Sololá	9	Septiembre	2023-11-09T00:00:00	2024-11-08T03:00:00	6	Velocidad del viento	0
46534	7	Sololá	701	Sololá	1	Sololá	9	Septiembre	2023-11-09T00:00:00	2024-11-08T03:00:00	7	Dirección del viento	0
46535	7	Sololá	701	Sololá	1	Sololá	9	Septiembre	2023-11-09T00:00:00	2024-11-08T03:00:00	1	Precipitación	0
46536	7	Sololá	701	Sololá	1	Sololá	9	Septiembre	2023-11-09T00:00:00	2024-11-08T03:00:00	8	Radiación solar	0
46537	7	Sololá	701	Sololá	1	Sololá	9	Septiembre	2023-11-09T00:00:00	2024-11-08T04:00:00	2	Temperatura media	13.3
46538	7	Sololá	701	Sololá	1	Sololá	9	Septiembre	2023-11-09T00:00:00	2024-11-08T04:00:00	4	Temperatura máxima	13.7
46539	7	Sololá	701	Sololá	1	Sololá	9	Septiembre	2023-11-09T00:00:00	2024-11-08T04:00:00	3	Temperatura mínima	13.3
46540	7	Sololá	701	Sololá	1	Sololá	9	Septiembre	2023-11-09T00:00:00	2024-11-08T04:00:00	5	Humedad	93
46541	7	Sololá	701	Sololá	1	Sololá	9	Septiembre	2023-11-09T00:00:00	2024-11-08T04:00:00	6	Velocidad del viento	0
46542	7	Sololá	701	Sololá	1	Sololá	9	Septiembre	2023-11-09T00:00:00	2024-11-08T04:00:00	7	Dirección del viento	0
46543	7	Sololá	701	Sololá	1	Sololá	9	Septiembre	2023-11-09T00:00:00	2024-11-08T04:00:00	1	Precipitación	0
46544	7	Sololá	701	Sololá	1	Sololá	9	Septiembre	2023-11-09T00:00:00	2024-11-08T04:00:00	8	Radiación solar	0
46545	7	Sololá	701	Sololá	1	Sololá	9	Septiembre	2023-11-09T00:00:00	2024-11-08T05:00:00	2	Temperatura media	12.9
46546	7	Sololá	701	Sololá	1	Sololá	9	Septiembre	2023-11-09T00:00:00	2024-11-08T05:00:00	4	Temperatura máxima	13.3
46547	7	Sololá	701	Sololá	1	Sololá	9	Septiembre	2023-11-09T00:00:00	2024-11-08T05:00:00	3	Temperatura mínima	12.9
46548	7	Sololá	701	Sololá	1	Sololá	9	Septiembre	2023-11-09T00:00:00	2024-11-08T05:00:00	5	Humedad	92
46549	7	Sololá	701	Sololá	1	Sololá	9	Septiembre	2023-11-09T00:00:00	2024-11-08T05:00:00	6	Velocidad del viento	0
46550	7	Sololá	701	Sololá	1	Sololá	9	Septiembre	2023-11-09T00:00:00	2024-11-08T05:00:00	7	Dirección del viento	0
46551	7	Sololá	701	Sololá	1	Sololá	9	Septiembre	2023-11-09T00:00:00	2024-11-08T05:00:00	1	Precipitación	0
46552	7	Sololá	701	Sololá	1	Sololá	9	Septiembre	2023-11-09T00:00:00	2024-11-08T05:00:00	8	Radiación solar	0
46553	7	Sololá	701	Sololá	1	Sololá	9	Septiembre	2023-11-09T00:00:00	2024-11-08T06:00:00	2	Temperatura media	12.9
46554	7	Sololá	701	Sololá	1	Sololá	9	Septiembre	2023-11-09T00:00:00	2024-11-08T06:00:00	4	Temperatura máxima	13
46555	7	Sololá	701	Sololá	1	Sololá	9	Septiembre	2023-11-09T00:00:00	2024-11-08T06:00:00	3	Temperatura mínima	12.8
46556	7	Sololá	701	Sololá	1	Sololá	9	Septiembre	2023-11-09T00:00:00	2024-11-08T06:00:00	5	Humedad	93
46557	7	Sololá	701	Sololá	1	Sololá	9	Septiembre	2023-11-09T00:00:00	2024-11-08T06:00:00	6	Velocidad del viento	0
46558	7	Sololá	701	Sololá	1	Sololá	9	Septiembre	2023-11-09T00:00:00	2024-11-08T06:00:00	7	Dirección del viento	0
46559	7	Sololá	701	Sololá	1	Sololá	9	Septiembre	2023-11-09T00:00:00	2024-11-08T06:00:00	1	Precipitación	0
46560	7	Sololá	701	Sololá	1	Sololá	9	Septiembre	2023-11-09T00:00:00	2024-11-08T06:00:00	8	Radiación solar	0
46561	7	Sololá	701	Sololá	1	Sololá	9	Septiembre	2023-11-09T00:00:00	2024-11-08T07:00:00	2	Temperatura media	13.7
46562	7	Sololá	701	Sololá	1	Sololá	9	Septiembre	2023-11-09T00:00:00	2024-11-08T07:00:00	4	Temperatura máxima	13.7
46563	7	Sololá	701	Sololá	1	Sololá	9	Septiembre	2023-11-09T00:00:00	2024-11-08T07:00:00	3	Temperatura mínima	12.8
46564	7	Sololá	701	Sololá	1	Sololá	9	Septiembre	2023-11-09T00:00:00	2024-11-08T07:00:00	5	Humedad	94
46565	7	Sololá	701	Sololá	1	Sololá	9	Septiembre	2023-11-09T00:00:00	2024-11-08T07:00:00	6	Velocidad del viento	0
46566	7	Sololá	701	Sololá	1	Sololá	9	Septiembre	2023-11-09T00:00:00	2024-11-08T07:00:00	7	Dirección del viento	0
46567	7	Sololá	701	Sololá	1	Sololá	9	Septiembre	2023-11-09T00:00:00	2024-11-08T07:00:00	1	Precipitación	0
46568	7	Sololá	701	Sololá	1	Sololá	9	Septiembre	2023-11-09T00:00:00	2024-11-08T07:00:00	8	Radiación solar	35
46569	7	Sololá	701	Sololá	1	Sololá	9	Septiembre	2023-11-09T00:00:00	2024-11-08T08:00:00	2	Temperatura media	18.2
46570	7	Sololá	701	Sololá	1	Sololá	9	Septiembre	2023-11-09T00:00:00	2024-11-08T08:00:00	4	Temperatura máxima	18.2
46571	7	Sololá	701	Sololá	1	Sololá	9	Septiembre	2023-11-09T00:00:00	2024-11-08T08:00:00	3	Temperatura mínima	13.7
46572	7	Sololá	701	Sololá	1	Sololá	9	Septiembre	2023-11-09T00:00:00	2024-11-08T08:00:00	5	Humedad	81
46573	7	Sololá	701	Sololá	1	Sololá	9	Septiembre	2023-11-09T00:00:00	2024-11-08T08:00:00	6	Velocidad del viento	0
46574	7	Sololá	701	Sololá	1	Sololá	9	Septiembre	2023-11-09T00:00:00	2024-11-08T08:00:00	7	Dirección del viento	0
46575	7	Sololá	701	Sololá	1	Sololá	9	Septiembre	2023-11-09T00:00:00	2024-11-08T08:00:00	1	Precipitación	0
46576	7	Sololá	701	Sololá	1	Sololá	9	Septiembre	2023-11-09T00:00:00	2024-11-08T08:00:00	8	Radiación solar	302
46577	7	Sololá	701	Sololá	1	Sololá	9	Septiembre	2023-11-09T00:00:00	2024-11-08T09:00:00	2	Temperatura media	21.3
46578	7	Sololá	701	Sololá	1	Sololá	9	Septiembre	2023-11-09T00:00:00	2024-11-08T09:00:00	4	Temperatura máxima	21.3
46579	7	Sololá	701	Sololá	1	Sololá	9	Septiembre	2023-11-09T00:00:00	2024-11-08T09:00:00	3	Temperatura mínima	18.2
46580	7	Sololá	701	Sololá	1	Sololá	9	Septiembre	2023-11-09T00:00:00	2024-11-08T09:00:00	5	Humedad	71
46581	7	Sololá	701	Sololá	1	Sololá	9	Septiembre	2023-11-09T00:00:00	2024-11-08T09:00:00	6	Velocidad del viento	0
46582	7	Sololá	701	Sololá	1	Sololá	9	Septiembre	2023-11-09T00:00:00	2024-11-08T09:00:00	7	Dirección del viento	0
46583	7	Sololá	701	Sololá	1	Sololá	9	Septiembre	2023-11-09T00:00:00	2024-11-08T09:00:00	1	Precipitación	0
46584	7	Sololá	701	Sololá	1	Sololá	9	Septiembre	2023-11-09T00:00:00	2024-11-08T09:00:00	8	Radiación solar	616
46585	7	Sololá	701	Sololá	1	Sololá	9	Septiembre	2023-11-09T00:00:00	2024-11-08T10:00:00	2	Temperatura media	22.7
46586	7	Sololá	701	Sololá	1	Sololá	9	Septiembre	2023-11-09T00:00:00	2024-11-08T10:00:00	4	Temperatura máxima	22.7
46587	7	Sololá	701	Sololá	1	Sololá	9	Septiembre	2023-11-09T00:00:00	2024-11-08T10:00:00	3	Temperatura mínima	21.3
46588	7	Sololá	701	Sololá	1	Sololá	9	Septiembre	2023-11-09T00:00:00	2024-11-08T10:00:00	5	Humedad	65
46589	7	Sololá	701	Sololá	1	Sololá	9	Septiembre	2023-11-09T00:00:00	2024-11-08T10:00:00	6	Velocidad del viento	0
46590	7	Sololá	701	Sololá	1	Sololá	9	Septiembre	2023-11-09T00:00:00	2024-11-08T10:00:00	7	Dirección del viento	0
46591	7	Sololá	701	Sololá	1	Sololá	9	Septiembre	2023-11-09T00:00:00	2024-11-08T10:00:00	1	Precipitación	0
46592	7	Sololá	701	Sololá	1	Sololá	9	Septiembre	2023-11-09T00:00:00	2024-11-08T10:00:00	8	Radiación solar	720
46593	7	Sololá	701	Sololá	1	Sololá	9	Septiembre	2023-11-09T00:00:00	2024-11-08T11:00:00	2	Temperatura media	22.9
46594	7	Sololá	701	Sololá	1	Sololá	9	Septiembre	2023-11-09T00:00:00	2024-11-08T11:00:00	4	Temperatura máxima	23
46595	7	Sololá	701	Sololá	1	Sololá	9	Septiembre	2023-11-09T00:00:00	2024-11-08T11:00:00	3	Temperatura mínima	22.4
46596	7	Sololá	701	Sololá	1	Sololá	9	Septiembre	2023-11-09T00:00:00	2024-11-08T11:00:00	5	Humedad	66
46597	7	Sololá	701	Sololá	1	Sololá	9	Septiembre	2023-11-09T00:00:00	2024-11-08T11:00:00	6	Velocidad del viento	0
46598	7	Sololá	701	Sololá	1	Sololá	9	Septiembre	2023-11-09T00:00:00	2024-11-08T11:00:00	7	Dirección del viento	0
46599	7	Sololá	701	Sololá	1	Sololá	9	Septiembre	2023-11-09T00:00:00	2024-11-08T11:00:00	1	Precipitación	0
46600	7	Sololá	701	Sololá	1	Sololá	9	Septiembre	2023-11-09T00:00:00	2024-11-08T11:00:00	8	Radiación solar	596
46601	7	Sololá	701	Sololá	1	Sololá	9	Septiembre	2023-11-09T00:00:00	2024-11-08T12:00:00	2	Temperatura media	21.6
46602	7	Sololá	701	Sololá	1	Sololá	9	Septiembre	2023-11-09T00:00:00	2024-11-08T12:00:00	4	Temperatura máxima	23.2
46603	7	Sololá	701	Sololá	1	Sololá	9	Septiembre	2023-11-09T00:00:00	2024-11-08T12:00:00	3	Temperatura mínima	21.6
46604	7	Sololá	701	Sololá	1	Sololá	9	Septiembre	2023-11-09T00:00:00	2024-11-08T12:00:00	5	Humedad	74
46605	7	Sololá	701	Sololá	1	Sololá	9	Septiembre	2023-11-09T00:00:00	2024-11-08T12:00:00	6	Velocidad del viento	0
46606	7	Sololá	701	Sololá	1	Sololá	9	Septiembre	2023-11-09T00:00:00	2024-11-08T12:00:00	7	Dirección del viento	0
46607	7	Sololá	701	Sololá	1	Sololá	9	Septiembre	2023-11-09T00:00:00	2024-11-08T12:00:00	1	Precipitación	0
46608	7	Sololá	701	Sololá	1	Sololá	9	Septiembre	2023-11-09T00:00:00	2024-11-08T12:00:00	8	Radiación solar	272
46609	7	Sololá	701	Sololá	1	Sololá	9	Septiembre	2023-11-09T00:00:00	2024-11-08T13:00:00	2	Temperatura media	21.7
46610	7	Sololá	701	Sololá	1	Sololá	9	Septiembre	2023-11-09T00:00:00	2024-11-08T13:00:00	4	Temperatura máxima	21.7
46611	7	Sololá	701	Sololá	1	Sololá	9	Septiembre	2023-11-09T00:00:00	2024-11-08T13:00:00	3	Temperatura mínima	20.8
46612	7	Sololá	701	Sololá	1	Sololá	9	Septiembre	2023-11-09T00:00:00	2024-11-08T13:00:00	5	Humedad	79
46613	7	Sololá	701	Sololá	1	Sololá	9	Septiembre	2023-11-09T00:00:00	2024-11-08T13:00:00	6	Velocidad del viento	0
46614	7	Sololá	701	Sololá	1	Sololá	9	Septiembre	2023-11-09T00:00:00	2024-11-08T13:00:00	7	Dirección del viento	0
46615	7	Sololá	701	Sololá	1	Sololá	9	Septiembre	2023-11-09T00:00:00	2024-11-08T13:00:00	1	Precipitación	0
46616	7	Sololá	701	Sololá	1	Sololá	9	Septiembre	2023-11-09T00:00:00	2024-11-08T13:00:00	8	Radiación solar	180
46617	7	Sololá	701	Sololá	1	Sololá	9	Septiembre	2023-11-09T00:00:00	2024-11-08T14:00:00	2	Temperatura media	21.4
46618	7	Sololá	701	Sololá	1	Sololá	9	Septiembre	2023-11-09T00:00:00	2024-11-08T14:00:00	4	Temperatura máxima	21.9
46619	7	Sololá	701	Sololá	1	Sololá	9	Septiembre	2023-11-09T00:00:00	2024-11-08T14:00:00	3	Temperatura mínima	21.3
46620	7	Sololá	701	Sololá	1	Sololá	9	Septiembre	2023-11-09T00:00:00	2024-11-08T14:00:00	5	Humedad	84
46621	7	Sololá	701	Sololá	1	Sololá	9	Septiembre	2023-11-09T00:00:00	2024-11-08T14:00:00	6	Velocidad del viento	0
46622	7	Sololá	701	Sololá	1	Sololá	9	Septiembre	2023-11-09T00:00:00	2024-11-08T14:00:00	7	Dirección del viento	0
46623	7	Sololá	701	Sololá	1	Sololá	9	Septiembre	2023-11-09T00:00:00	2024-11-08T14:00:00	1	Precipitación	0
46624	7	Sololá	701	Sololá	1	Sololá	9	Septiembre	2023-11-09T00:00:00	2024-11-08T14:00:00	8	Radiación solar	171
46625	7	Sololá	701	Sololá	1	Sololá	9	Septiembre	2023-11-09T00:00:00	2024-11-08T15:00:00	2	Temperatura media	20.1
46626	7	Sololá	701	Sololá	1	Sololá	9	Septiembre	2023-11-09T00:00:00	2024-11-08T15:00:00	4	Temperatura máxima	21.8
46627	7	Sololá	701	Sololá	1	Sololá	9	Septiembre	2023-11-09T00:00:00	2024-11-08T15:00:00	3	Temperatura mínima	20
46628	7	Sololá	701	Sololá	1	Sololá	9	Septiembre	2023-11-09T00:00:00	2024-11-08T15:00:00	5	Humedad	86
46629	7	Sololá	701	Sololá	1	Sololá	9	Septiembre	2023-11-09T00:00:00	2024-11-08T15:00:00	6	Velocidad del viento	0
46630	7	Sololá	701	Sololá	1	Sololá	9	Septiembre	2023-11-09T00:00:00	2024-11-08T15:00:00	7	Dirección del viento	0
46631	7	Sololá	701	Sololá	1	Sololá	9	Septiembre	2023-11-09T00:00:00	2024-11-08T15:00:00	1	Precipitación	0
46632	7	Sololá	701	Sololá	1	Sololá	9	Septiembre	2023-11-09T00:00:00	2024-11-08T15:00:00	8	Radiación solar	98
46633	7	Sololá	701	Sololá	1	Sololá	9	Septiembre	2023-11-09T00:00:00	2024-11-08T16:00:00	2	Temperatura media	19
46634	7	Sololá	701	Sololá	1	Sololá	9	Septiembre	2023-11-09T00:00:00	2024-11-08T16:00:00	4	Temperatura máxima	20.3
46635	7	Sololá	701	Sololá	1	Sololá	9	Septiembre	2023-11-09T00:00:00	2024-11-08T16:00:00	3	Temperatura mínima	19
46636	7	Sololá	701	Sololá	1	Sololá	9	Septiembre	2023-11-09T00:00:00	2024-11-08T16:00:00	5	Humedad	90
46637	7	Sololá	701	Sololá	1	Sololá	9	Septiembre	2023-11-09T00:00:00	2024-11-08T16:00:00	6	Velocidad del viento	0
46638	7	Sololá	701	Sololá	1	Sololá	9	Septiembre	2023-11-09T00:00:00	2024-11-08T16:00:00	7	Dirección del viento	0
46639	7	Sololá	701	Sololá	1	Sololá	9	Septiembre	2023-11-09T00:00:00	2024-11-08T16:00:00	1	Precipitación	0
46640	7	Sololá	701	Sololá	1	Sololá	9	Septiembre	2023-11-09T00:00:00	2024-11-08T16:00:00	8	Radiación solar	67
46641	7	Sololá	701	Sololá	1	Sololá	9	Septiembre	2023-11-09T00:00:00	2024-11-08T17:00:00	2	Temperatura media	17.9
46642	7	Sololá	701	Sololá	1	Sololá	9	Septiembre	2023-11-09T00:00:00	2024-11-08T17:00:00	4	Temperatura máxima	18.9
46643	7	Sololá	701	Sololá	1	Sololá	9	Septiembre	2023-11-09T00:00:00	2024-11-08T17:00:00	3	Temperatura mínima	17.9
46644	7	Sololá	701	Sololá	1	Sololá	9	Septiembre	2023-11-09T00:00:00	2024-11-08T17:00:00	5	Humedad	93
46645	7	Sololá	701	Sololá	1	Sololá	9	Septiembre	2023-11-09T00:00:00	2024-11-08T17:00:00	6	Velocidad del viento	0
46646	7	Sololá	701	Sololá	1	Sololá	9	Septiembre	2023-11-09T00:00:00	2024-11-08T17:00:00	7	Dirección del viento	0
46647	7	Sololá	701	Sololá	1	Sololá	9	Septiembre	2023-11-09T00:00:00	2024-11-08T17:00:00	1	Precipitación	0
46648	7	Sololá	701	Sololá	1	Sololá	9	Septiembre	2023-11-09T00:00:00	2024-11-08T17:00:00	8	Radiación solar	10
46649	7	Sololá	701	Sololá	1	Sololá	9	Septiembre	2023-11-09T00:00:00	2024-11-08T18:00:00	2	Temperatura media	17.4
46650	7	Sololá	701	Sololá	1	Sololá	9	Septiembre	2023-11-09T00:00:00	2024-11-08T18:00:00	4	Temperatura máxima	17.9
46651	7	Sololá	701	Sololá	1	Sololá	9	Septiembre	2023-11-09T00:00:00	2024-11-08T18:00:00	3	Temperatura mínima	17.3
46652	7	Sololá	701	Sololá	1	Sololá	9	Septiembre	2023-11-09T00:00:00	2024-11-08T18:00:00	5	Humedad	94
46653	7	Sololá	701	Sololá	1	Sololá	9	Septiembre	2023-11-09T00:00:00	2024-11-08T18:00:00	6	Velocidad del viento	0
46654	7	Sololá	701	Sololá	1	Sololá	9	Septiembre	2023-11-09T00:00:00	2024-11-08T18:00:00	7	Dirección del viento	0
46655	7	Sololá	701	Sololá	1	Sololá	9	Septiembre	2023-11-09T00:00:00	2024-11-08T18:00:00	1	Precipitación	0
46656	7	Sololá	701	Sololá	1	Sololá	9	Septiembre	2023-11-09T00:00:00	2024-11-08T18:00:00	8	Radiación solar	3
46657	7	Sololá	701	Sololá	1	Sololá	9	Septiembre	2023-11-09T00:00:00	2024-11-08T19:00:00	2	Temperatura media	15.6
46658	7	Sololá	701	Sololá	1	Sololá	9	Septiembre	2023-11-09T00:00:00	2024-11-08T19:00:00	4	Temperatura máxima	17.4
46659	7	Sololá	701	Sololá	1	Sololá	9	Septiembre	2023-11-09T00:00:00	2024-11-08T19:00:00	3	Temperatura mínima	15.6
46660	7	Sololá	701	Sololá	1	Sololá	9	Septiembre	2023-11-09T00:00:00	2024-11-08T19:00:00	5	Humedad	94
46661	7	Sololá	701	Sololá	1	Sololá	9	Septiembre	2023-11-09T00:00:00	2024-11-08T19:00:00	6	Velocidad del viento	0
46662	7	Sololá	701	Sololá	1	Sololá	9	Septiembre	2023-11-09T00:00:00	2024-11-08T19:00:00	7	Dirección del viento	0
46663	7	Sololá	701	Sololá	1	Sololá	9	Septiembre	2023-11-09T00:00:00	2024-11-08T19:00:00	1	Precipitación	3.2
46664	7	Sololá	701	Sololá	1	Sololá	9	Septiembre	2023-11-09T00:00:00	2024-11-08T19:00:00	8	Radiación solar	0
46665	7	Sololá	701	Sololá	1	Sololá	9	Septiembre	2023-11-09T00:00:00	2024-11-08T20:00:00	2	Temperatura media	15.2
46666	7	Sololá	701	Sololá	1	Sololá	9	Septiembre	2023-11-09T00:00:00	2024-11-08T20:00:00	4	Temperatura máxima	15.6
46667	7	Sololá	701	Sololá	1	Sololá	9	Septiembre	2023-11-09T00:00:00	2024-11-08T20:00:00	3	Temperatura mínima	15.1
46668	7	Sololá	701	Sololá	1	Sololá	9	Septiembre	2023-11-09T00:00:00	2024-11-08T20:00:00	5	Humedad	95
46669	7	Sololá	701	Sololá	1	Sololá	9	Septiembre	2023-11-09T00:00:00	2024-11-08T20:00:00	6	Velocidad del viento	0
46670	7	Sololá	701	Sololá	1	Sololá	9	Septiembre	2023-11-09T00:00:00	2024-11-08T20:00:00	7	Dirección del viento	0
46671	7	Sololá	701	Sololá	1	Sololá	9	Septiembre	2023-11-09T00:00:00	2024-11-08T20:00:00	1	Precipitación	0.2
46672	7	Sololá	701	Sololá	1	Sololá	9	Septiembre	2023-11-09T00:00:00	2024-11-08T20:00:00	8	Radiación solar	0
46673	7	Sololá	701	Sololá	1	Sololá	9	Septiembre	2023-11-09T00:00:00	2024-11-08T21:00:00	2	Temperatura media	15.2
46674	7	Sololá	701	Sololá	1	Sololá	9	Septiembre	2023-11-09T00:00:00	2024-11-08T21:00:00	4	Temperatura máxima	15.2
46675	7	Sololá	701	Sololá	1	Sololá	9	Septiembre	2023-11-09T00:00:00	2024-11-08T21:00:00	3	Temperatura mínima	15.1
46676	7	Sololá	701	Sololá	1	Sololá	9	Septiembre	2023-11-09T00:00:00	2024-11-08T21:00:00	5	Humedad	95
46677	7	Sololá	701	Sololá	1	Sololá	9	Septiembre	2023-11-09T00:00:00	2024-11-08T21:00:00	6	Velocidad del viento	0
46678	7	Sololá	701	Sololá	1	Sololá	9	Septiembre	2023-11-09T00:00:00	2024-11-08T21:00:00	7	Dirección del viento	0
46679	7	Sololá	701	Sololá	1	Sololá	9	Septiembre	2023-11-09T00:00:00	2024-11-08T21:00:00	1	Precipitación	0
46680	7	Sololá	701	Sololá	1	Sololá	9	Septiembre	2023-11-09T00:00:00	2024-11-08T21:00:00	8	Radiación solar	0
46681	7	Sololá	701	Sololá	1	Sololá	9	Septiembre	2023-11-09T00:00:00	2024-11-08T22:00:00	2	Temperatura media	14.7
46682	7	Sololá	701	Sololá	1	Sololá	9	Septiembre	2023-11-09T00:00:00	2024-11-08T22:00:00	4	Temperatura máxima	15.2
46683	7	Sololá	701	Sololá	1	Sololá	9	Septiembre	2023-11-09T00:00:00	2024-11-08T22:00:00	3	Temperatura mínima	14.7
46684	7	Sololá	701	Sololá	1	Sololá	9	Septiembre	2023-11-09T00:00:00	2024-11-08T22:00:00	5	Humedad	95
46685	7	Sololá	701	Sololá	1	Sololá	9	Septiembre	2023-11-09T00:00:00	2024-11-08T22:00:00	6	Velocidad del viento	0
46686	7	Sololá	701	Sololá	1	Sololá	9	Septiembre	2023-11-09T00:00:00	2024-11-08T22:00:00	7	Dirección del viento	0
46687	7	Sololá	701	Sololá	1	Sololá	9	Septiembre	2023-11-09T00:00:00	2024-11-08T22:00:00	1	Precipitación	0
46688	7	Sololá	701	Sololá	1	Sololá	9	Septiembre	2023-11-09T00:00:00	2024-11-08T22:00:00	8	Radiación solar	0
46689	7	Sololá	701	Sololá	1	Sololá	9	Septiembre	2023-11-09T00:00:00	2024-11-08T23:00:00	2	Temperatura media	14.4
46690	7	Sololá	701	Sololá	1	Sololá	9	Septiembre	2023-11-09T00:00:00	2024-11-08T23:00:00	4	Temperatura máxima	14.7
46691	7	Sololá	701	Sololá	1	Sololá	9	Septiembre	2023-11-09T00:00:00	2024-11-08T23:00:00	3	Temperatura mínima	14.4
46692	7	Sololá	701	Sololá	1	Sololá	9	Septiembre	2023-11-09T00:00:00	2024-11-08T23:00:00	5	Humedad	95
46693	7	Sololá	701	Sololá	1	Sololá	9	Septiembre	2023-11-09T00:00:00	2024-11-08T23:00:00	6	Velocidad del viento	0
46694	7	Sololá	701	Sololá	1	Sololá	9	Septiembre	2023-11-09T00:00:00	2024-11-08T23:00:00	7	Dirección del viento	0
46695	7	Sololá	701	Sololá	1	Sololá	9	Septiembre	2023-11-09T00:00:00	2024-11-08T23:00:00	1	Precipitación	0
46696	7	Sololá	701	Sololá	1	Sololá	9	Septiembre	2023-11-09T00:00:00	2024-11-08T23:00:00	8	Radiación solar	0
46697	7	Sololá	701	Sololá	1	Sololá	9	Septiembre	2023-12-09T00:00:00	2024-11-08T00:00:00	2	Temperatura media	13.9
46698	7	Sololá	701	Sololá	1	Sololá	9	Septiembre	2023-12-09T00:00:00	2024-11-08T00:00:00	4	Temperatura máxima	14.5
46699	7	Sololá	701	Sololá	1	Sololá	9	Septiembre	2023-12-09T00:00:00	2024-11-08T00:00:00	3	Temperatura mínima	13.9
46700	7	Sololá	701	Sololá	1	Sololá	9	Septiembre	2023-12-09T00:00:00	2024-11-08T00:00:00	5	Humedad	95
46701	7	Sololá	701	Sololá	1	Sololá	9	Septiembre	2023-12-09T00:00:00	2024-11-08T00:00:00	6	Velocidad del viento	0
46702	7	Sololá	701	Sololá	1	Sololá	9	Septiembre	2023-12-09T00:00:00	2024-11-08T00:00:00	7	Dirección del viento	0
46703	7	Sololá	701	Sololá	1	Sololá	9	Septiembre	2023-12-09T00:00:00	2024-11-08T00:00:00	1	Precipitación	0
46704	7	Sololá	701	Sololá	1	Sololá	9	Septiembre	2023-12-09T00:00:00	2024-11-08T00:00:00	8	Radiación solar	0
46705	7	Sololá	701	Sololá	1	Sololá	9	Septiembre	2023-12-09T00:00:00	2024-11-08T01:00:00	2	Temperatura media	13.8
46706	7	Sololá	701	Sololá	1	Sololá	9	Septiembre	2023-12-09T00:00:00	2024-11-08T01:00:00	4	Temperatura máxima	13.9
46707	7	Sololá	701	Sololá	1	Sololá	9	Septiembre	2023-12-09T00:00:00	2024-11-08T01:00:00	3	Temperatura mínima	13.8
46708	7	Sololá	701	Sololá	1	Sololá	9	Septiembre	2023-12-09T00:00:00	2024-11-08T01:00:00	5	Humedad	96
46709	7	Sololá	701	Sololá	1	Sololá	9	Septiembre	2023-12-09T00:00:00	2024-11-08T01:00:00	6	Velocidad del viento	0
46710	7	Sololá	701	Sololá	1	Sololá	9	Septiembre	2023-12-09T00:00:00	2024-11-08T01:00:00	7	Dirección del viento	0
46711	7	Sololá	701	Sololá	1	Sololá	9	Septiembre	2023-12-09T00:00:00	2024-11-08T01:00:00	1	Precipitación	0
46712	7	Sololá	701	Sololá	1	Sololá	9	Septiembre	2023-12-09T00:00:00	2024-11-08T01:00:00	8	Radiación solar	0
46713	7	Sololá	701	Sololá	1	Sololá	9	Septiembre	2023-12-09T00:00:00	2024-11-08T02:00:00	2	Temperatura media	13.8
46714	7	Sololá	701	Sololá	1	Sololá	9	Septiembre	2023-12-09T00:00:00	2024-11-08T02:00:00	4	Temperatura máxima	13.9
46715	7	Sololá	701	Sololá	1	Sololá	9	Septiembre	2023-12-09T00:00:00	2024-11-08T02:00:00	3	Temperatura mínima	13.7
46716	7	Sololá	701	Sololá	1	Sololá	9	Septiembre	2023-12-09T00:00:00	2024-11-08T02:00:00	5	Humedad	96
46717	7	Sololá	701	Sololá	1	Sololá	9	Septiembre	2023-12-09T00:00:00	2024-11-08T02:00:00	6	Velocidad del viento	0
46718	7	Sololá	701	Sololá	1	Sololá	9	Septiembre	2023-12-09T00:00:00	2024-11-08T02:00:00	7	Dirección del viento	0
46719	7	Sololá	701	Sololá	1	Sololá	9	Septiembre	2023-12-09T00:00:00	2024-11-08T02:00:00	1	Precipitación	0
46720	7	Sololá	701	Sololá	1	Sololá	9	Septiembre	2023-12-09T00:00:00	2024-11-08T02:00:00	8	Radiación solar	0
46721	7	Sololá	701	Sololá	1	Sololá	9	Septiembre	2023-12-09T00:00:00	2024-11-08T03:00:00	2	Temperatura media	13.8
46722	7	Sololá	701	Sololá	1	Sololá	9	Septiembre	2023-12-09T00:00:00	2024-11-08T03:00:00	4	Temperatura máxima	14
46723	7	Sololá	701	Sololá	1	Sololá	9	Septiembre	2023-12-09T00:00:00	2024-11-08T03:00:00	3	Temperatura mínima	13.8
46724	7	Sololá	701	Sololá	1	Sololá	9	Septiembre	2023-12-09T00:00:00	2024-11-08T03:00:00	5	Humedad	96
46725	7	Sololá	701	Sololá	1	Sololá	9	Septiembre	2023-12-09T00:00:00	2024-11-08T03:00:00	6	Velocidad del viento	0
46726	7	Sololá	701	Sololá	1	Sololá	9	Septiembre	2023-12-09T00:00:00	2024-11-08T03:00:00	7	Dirección del viento	0
46727	7	Sololá	701	Sololá	1	Sololá	9	Septiembre	2023-12-09T00:00:00	2024-11-08T03:00:00	1	Precipitación	0
46728	7	Sololá	701	Sololá	1	Sololá	9	Septiembre	2023-12-09T00:00:00	2024-11-08T03:00:00	8	Radiación solar	0
46729	7	Sololá	701	Sololá	1	Sololá	9	Septiembre	2023-12-09T00:00:00	2024-11-08T04:00:00	2	Temperatura media	13.3
46730	7	Sololá	701	Sololá	1	Sololá	9	Septiembre	2023-12-09T00:00:00	2024-11-08T04:00:00	4	Temperatura máxima	13.8
46731	7	Sololá	701	Sololá	1	Sololá	9	Septiembre	2023-12-09T00:00:00	2024-11-08T04:00:00	3	Temperatura mínima	13.3
46732	7	Sololá	701	Sololá	1	Sololá	9	Septiembre	2023-12-09T00:00:00	2024-11-08T04:00:00	5	Humedad	96
46733	7	Sololá	701	Sololá	1	Sololá	9	Septiembre	2023-12-09T00:00:00	2024-11-08T04:00:00	6	Velocidad del viento	0
46734	7	Sololá	701	Sololá	1	Sololá	9	Septiembre	2023-12-09T00:00:00	2024-11-08T04:00:00	7	Dirección del viento	0
46735	7	Sololá	701	Sololá	1	Sololá	9	Septiembre	2023-12-09T00:00:00	2024-11-08T04:00:00	1	Precipitación	0
46736	7	Sololá	701	Sololá	1	Sololá	9	Septiembre	2023-12-09T00:00:00	2024-11-08T04:00:00	8	Radiación solar	0
46737	7	Sololá	701	Sololá	1	Sololá	9	Septiembre	2023-12-09T00:00:00	2024-11-08T05:00:00	2	Temperatura media	13
46738	7	Sololá	701	Sololá	1	Sololá	9	Septiembre	2023-12-09T00:00:00	2024-11-08T05:00:00	4	Temperatura máxima	13.4
46739	7	Sololá	701	Sololá	1	Sololá	9	Septiembre	2023-12-09T00:00:00	2024-11-08T05:00:00	3	Temperatura mínima	13
46740	7	Sololá	701	Sololá	1	Sololá	9	Septiembre	2023-12-09T00:00:00	2024-11-08T05:00:00	5	Humedad	96
46741	7	Sololá	701	Sololá	1	Sololá	9	Septiembre	2023-12-09T00:00:00	2024-11-08T05:00:00	6	Velocidad del viento	0
46742	7	Sololá	701	Sololá	1	Sololá	9	Septiembre	2023-12-09T00:00:00	2024-11-08T05:00:00	7	Dirección del viento	0
46743	7	Sololá	701	Sololá	1	Sololá	9	Septiembre	2023-12-09T00:00:00	2024-11-08T05:00:00	1	Precipitación	0
46744	7	Sololá	701	Sololá	1	Sololá	9	Septiembre	2023-12-09T00:00:00	2024-11-08T05:00:00	8	Radiación solar	0
46745	7	Sololá	701	Sololá	1	Sololá	9	Septiembre	2023-12-09T00:00:00	2024-11-08T06:00:00	2	Temperatura media	12.2
46746	7	Sololá	701	Sololá	1	Sololá	9	Septiembre	2023-12-09T00:00:00	2024-11-08T06:00:00	4	Temperatura máxima	13
46747	7	Sololá	701	Sololá	1	Sololá	9	Septiembre	2023-12-09T00:00:00	2024-11-08T06:00:00	3	Temperatura mínima	12.2
46748	7	Sololá	701	Sololá	1	Sololá	9	Septiembre	2023-12-09T00:00:00	2024-11-08T06:00:00	5	Humedad	96
46749	7	Sololá	701	Sololá	1	Sololá	9	Septiembre	2023-12-09T00:00:00	2024-11-08T06:00:00	6	Velocidad del viento	0
46750	7	Sololá	701	Sololá	1	Sololá	9	Septiembre	2023-12-09T00:00:00	2024-11-08T06:00:00	7	Dirección del viento	0
46751	7	Sololá	701	Sololá	1	Sololá	9	Septiembre	2023-12-09T00:00:00	2024-11-08T06:00:00	1	Precipitación	0
46752	7	Sololá	701	Sololá	1	Sololá	9	Septiembre	2023-12-09T00:00:00	2024-11-08T06:00:00	8	Radiación solar	0
46753	7	Sololá	701	Sololá	1	Sololá	9	Septiembre	2023-12-09T00:00:00	2024-11-08T07:00:00	2	Temperatura media	12.4
46754	7	Sololá	701	Sololá	1	Sololá	9	Septiembre	2023-12-09T00:00:00	2024-11-08T07:00:00	4	Temperatura máxima	12.4
46755	7	Sololá	701	Sololá	1	Sololá	9	Septiembre	2023-12-09T00:00:00	2024-11-08T07:00:00	3	Temperatura mínima	12.2
46756	7	Sololá	701	Sololá	1	Sololá	9	Septiembre	2023-12-09T00:00:00	2024-11-08T07:00:00	5	Humedad	96
46757	7	Sololá	701	Sololá	1	Sololá	9	Septiembre	2023-12-09T00:00:00	2024-11-08T07:00:00	6	Velocidad del viento	0
46758	7	Sololá	701	Sololá	1	Sololá	9	Septiembre	2023-12-09T00:00:00	2024-11-08T07:00:00	7	Dirección del viento	0
46759	7	Sololá	701	Sololá	1	Sololá	9	Septiembre	2023-12-09T00:00:00	2024-11-08T07:00:00	1	Precipitación	0
46760	7	Sololá	701	Sololá	1	Sololá	9	Septiembre	2023-12-09T00:00:00	2024-11-08T07:00:00	8	Radiación solar	7
46761	7	Sololá	701	Sololá	1	Sololá	9	Septiembre	2023-12-09T00:00:00	2024-11-08T08:00:00	2	Temperatura media	16.7
46762	7	Sololá	701	Sololá	1	Sololá	9	Septiembre	2023-12-09T00:00:00	2024-11-08T08:00:00	4	Temperatura máxima	16.7
46763	7	Sololá	701	Sololá	1	Sololá	9	Septiembre	2023-12-09T00:00:00	2024-11-08T08:00:00	3	Temperatura mínima	12.4
46764	7	Sololá	701	Sololá	1	Sololá	9	Septiembre	2023-12-09T00:00:00	2024-11-08T08:00:00	5	Humedad	89
46765	7	Sololá	701	Sololá	1	Sololá	9	Septiembre	2023-12-09T00:00:00	2024-11-08T08:00:00	6	Velocidad del viento	0
46766	7	Sololá	701	Sololá	1	Sololá	9	Septiembre	2023-12-09T00:00:00	2024-11-08T08:00:00	7	Dirección del viento	0
46767	7	Sololá	701	Sololá	1	Sololá	9	Septiembre	2023-12-09T00:00:00	2024-11-08T08:00:00	1	Precipitación	0.2
46768	7	Sololá	701	Sololá	1	Sololá	9	Septiembre	2023-12-09T00:00:00	2024-11-08T08:00:00	8	Radiación solar	371
46769	7	Sololá	701	Sololá	1	Sololá	9	Septiembre	2023-12-09T00:00:00	2024-11-08T09:00:00	2	Temperatura media	20.4
46770	7	Sololá	701	Sololá	1	Sololá	9	Septiembre	2023-12-09T00:00:00	2024-11-08T09:00:00	4	Temperatura máxima	20.4
46771	7	Sololá	701	Sololá	1	Sololá	9	Septiembre	2023-12-09T00:00:00	2024-11-08T09:00:00	3	Temperatura mínima	16.7
46772	7	Sololá	701	Sololá	1	Sololá	9	Septiembre	2023-12-09T00:00:00	2024-11-08T09:00:00	5	Humedad	77
46773	7	Sololá	701	Sololá	1	Sololá	9	Septiembre	2023-12-09T00:00:00	2024-11-08T09:00:00	6	Velocidad del viento	0
46774	7	Sololá	701	Sololá	1	Sololá	9	Septiembre	2023-12-09T00:00:00	2024-11-08T09:00:00	7	Dirección del viento	0
46775	7	Sololá	701	Sololá	1	Sololá	9	Septiembre	2023-12-09T00:00:00	2024-11-08T09:00:00	1	Precipitación	0
46776	7	Sololá	701	Sololá	1	Sololá	9	Septiembre	2023-12-09T00:00:00	2024-11-08T09:00:00	8	Radiación solar	659
46777	7	Sololá	701	Sololá	1	Sololá	9	Septiembre	2023-12-09T00:00:00	2024-11-08T10:00:00	2	Temperatura media	22.3
46778	7	Sololá	701	Sololá	1	Sololá	9	Septiembre	2023-12-09T00:00:00	2024-11-08T10:00:00	4	Temperatura máxima	22.3
46779	7	Sololá	701	Sololá	1	Sololá	9	Septiembre	2023-12-09T00:00:00	2024-11-08T10:00:00	3	Temperatura mínima	20.4
46780	7	Sololá	701	Sololá	1	Sololá	9	Septiembre	2023-12-09T00:00:00	2024-11-08T10:00:00	5	Humedad	74
46781	7	Sololá	701	Sololá	1	Sololá	9	Septiembre	2023-12-09T00:00:00	2024-11-08T10:00:00	6	Velocidad del viento	0
46782	7	Sololá	701	Sololá	1	Sololá	9	Septiembre	2023-12-09T00:00:00	2024-11-08T10:00:00	7	Dirección del viento	0
46783	7	Sololá	701	Sololá	1	Sololá	9	Septiembre	2023-12-09T00:00:00	2024-11-08T10:00:00	1	Precipitación	0
46784	7	Sololá	701	Sololá	1	Sololá	9	Septiembre	2023-12-09T00:00:00	2024-11-08T10:00:00	8	Radiación solar	835
46785	7	Sololá	701	Sololá	1	Sololá	9	Septiembre	2023-12-09T00:00:00	2024-11-08T11:00:00	2	Temperatura media	21.8
46786	7	Sololá	701	Sololá	1	Sololá	9	Septiembre	2023-12-09T00:00:00	2024-11-08T11:00:00	4	Temperatura máxima	22.3
46787	7	Sololá	701	Sololá	1	Sololá	9	Septiembre	2023-12-09T00:00:00	2024-11-08T11:00:00	3	Temperatura mínima	21.8
46788	7	Sololá	701	Sololá	1	Sololá	9	Septiembre	2023-12-09T00:00:00	2024-11-08T11:00:00	5	Humedad	72
46789	7	Sololá	701	Sololá	1	Sololá	9	Septiembre	2023-12-09T00:00:00	2024-11-08T11:00:00	6	Velocidad del viento	0
46790	7	Sololá	701	Sololá	1	Sololá	9	Septiembre	2023-12-09T00:00:00	2024-11-08T11:00:00	7	Dirección del viento	0
46791	7	Sololá	701	Sololá	1	Sololá	9	Septiembre	2023-12-09T00:00:00	2024-11-08T11:00:00	1	Precipitación	0
46792	7	Sololá	701	Sololá	1	Sololá	9	Septiembre	2023-12-09T00:00:00	2024-11-08T11:00:00	8	Radiación solar	760
46793	7	Sololá	701	Sololá	1	Sololá	9	Septiembre	2023-12-09T00:00:00	2024-11-08T12:00:00	2	Temperatura media	21.8
46794	7	Sololá	701	Sololá	1	Sololá	9	Septiembre	2023-12-09T00:00:00	2024-11-08T12:00:00	4	Temperatura máxima	22
46795	7	Sololá	701	Sololá	1	Sololá	9	Septiembre	2023-12-09T00:00:00	2024-11-08T12:00:00	3	Temperatura mínima	21.8
46796	7	Sololá	701	Sololá	1	Sololá	9	Septiembre	2023-12-09T00:00:00	2024-11-08T12:00:00	5	Humedad	77
46797	7	Sololá	701	Sololá	1	Sololá	9	Septiembre	2023-12-09T00:00:00	2024-11-08T12:00:00	6	Velocidad del viento	0
46798	7	Sololá	701	Sololá	1	Sololá	9	Septiembre	2023-12-09T00:00:00	2024-11-08T12:00:00	7	Dirección del viento	0
46799	7	Sololá	701	Sololá	1	Sololá	9	Septiembre	2023-12-09T00:00:00	2024-11-08T12:00:00	1	Precipitación	0
46800	7	Sololá	701	Sololá	1	Sololá	9	Septiembre	2023-12-09T00:00:00	2024-11-08T12:00:00	8	Radiación solar	717
46801	7	Sololá	701	Sololá	1	Sololá	9	Septiembre	2023-12-09T00:00:00	2024-11-08T13:00:00	2	Temperatura media	20.4
46802	7	Sololá	701	Sololá	1	Sololá	9	Septiembre	2023-12-09T00:00:00	2024-11-08T13:00:00	4	Temperatura máxima	21.8
46803	7	Sololá	701	Sololá	1	Sololá	9	Septiembre	2023-12-09T00:00:00	2024-11-08T13:00:00	3	Temperatura mínima	20.4
46804	7	Sololá	701	Sololá	1	Sololá	9	Septiembre	2023-12-09T00:00:00	2024-11-08T13:00:00	5	Humedad	83
46805	7	Sololá	701	Sololá	1	Sololá	9	Septiembre	2023-12-09T00:00:00	2024-11-08T13:00:00	6	Velocidad del viento	0
46806	7	Sololá	701	Sololá	1	Sololá	9	Septiembre	2023-12-09T00:00:00	2024-11-08T13:00:00	7	Dirección del viento	0
46807	7	Sololá	701	Sololá	1	Sololá	9	Septiembre	2023-12-09T00:00:00	2024-11-08T13:00:00	1	Precipitación	0
46808	7	Sololá	701	Sololá	1	Sololá	9	Septiembre	2023-12-09T00:00:00	2024-11-08T13:00:00	8	Radiación solar	131
46809	7	Sololá	701	Sololá	1	Sololá	9	Septiembre	2023-12-09T00:00:00	2024-11-08T14:00:00	2	Temperatura media	21
46810	7	Sololá	701	Sololá	1	Sololá	9	Septiembre	2023-12-09T00:00:00	2024-11-08T14:00:00	4	Temperatura máxima	21.8
46811	7	Sololá	701	Sololá	1	Sololá	9	Septiembre	2023-12-09T00:00:00	2024-11-08T14:00:00	3	Temperatura mínima	20.3
46812	7	Sololá	701	Sololá	1	Sololá	9	Septiembre	2023-12-09T00:00:00	2024-11-08T14:00:00	5	Humedad	84
46813	7	Sololá	701	Sololá	1	Sololá	9	Septiembre	2023-12-09T00:00:00	2024-11-08T14:00:00	6	Velocidad del viento	0
46814	7	Sololá	701	Sololá	1	Sololá	9	Septiembre	2023-12-09T00:00:00	2024-11-08T14:00:00	7	Dirección del viento	0
46815	7	Sololá	701	Sololá	1	Sololá	9	Septiembre	2023-12-09T00:00:00	2024-11-08T14:00:00	1	Precipitación	0
46816	7	Sololá	701	Sololá	1	Sololá	9	Septiembre	2023-12-09T00:00:00	2024-11-08T14:00:00	8	Radiación solar	168
46817	7	Sololá	701	Sololá	1	Sololá	9	Septiembre	2023-12-09T00:00:00	2024-11-08T15:00:00	2	Temperatura media	19.9
46818	7	Sololá	701	Sololá	1	Sololá	9	Septiembre	2023-12-09T00:00:00	2024-11-08T15:00:00	4	Temperatura máxima	20.9
46819	7	Sololá	701	Sololá	1	Sololá	9	Septiembre	2023-12-09T00:00:00	2024-11-08T15:00:00	3	Temperatura mínima	19.8
46820	7	Sololá	701	Sololá	1	Sololá	9	Septiembre	2023-12-09T00:00:00	2024-11-08T15:00:00	5	Humedad	88
46821	7	Sololá	701	Sololá	1	Sololá	9	Septiembre	2023-12-09T00:00:00	2024-11-08T15:00:00	6	Velocidad del viento	0
46822	7	Sololá	701	Sololá	1	Sololá	9	Septiembre	2023-12-09T00:00:00	2024-11-08T15:00:00	7	Dirección del viento	0
46823	7	Sololá	701	Sololá	1	Sololá	9	Septiembre	2023-12-09T00:00:00	2024-11-08T15:00:00	1	Precipitación	0
46824	7	Sololá	701	Sololá	1	Sololá	9	Septiembre	2023-12-09T00:00:00	2024-11-08T15:00:00	8	Radiación solar	99
46825	7	Sololá	701	Sololá	1	Sololá	9	Septiembre	2023-12-09T00:00:00	2024-11-08T16:00:00	2	Temperatura media	19.8
46826	7	Sololá	701	Sololá	1	Sololá	9	Septiembre	2023-12-09T00:00:00	2024-11-08T16:00:00	4	Temperatura máxima	20.1
46827	7	Sololá	701	Sololá	1	Sololá	9	Septiembre	2023-12-09T00:00:00	2024-11-08T16:00:00	3	Temperatura mínima	19.7
46828	7	Sololá	701	Sololá	1	Sololá	9	Septiembre	2023-12-09T00:00:00	2024-11-08T16:00:00	5	Humedad	88
46829	7	Sololá	701	Sololá	1	Sololá	9	Septiembre	2023-12-09T00:00:00	2024-11-08T16:00:00	6	Velocidad del viento	0
46830	7	Sololá	701	Sololá	1	Sololá	9	Septiembre	2023-12-09T00:00:00	2024-11-08T16:00:00	7	Dirección del viento	0
46831	7	Sololá	701	Sololá	1	Sololá	9	Septiembre	2023-12-09T00:00:00	2024-11-08T16:00:00	1	Precipitación	0
46832	7	Sololá	701	Sololá	1	Sololá	9	Septiembre	2023-12-09T00:00:00	2024-11-08T16:00:00	8	Radiación solar	104
46833	7	Sololá	701	Sololá	1	Sololá	9	Septiembre	2023-12-09T00:00:00	2024-11-08T17:00:00	2	Temperatura media	18.5
46834	7	Sololá	701	Sololá	1	Sololá	9	Septiembre	2023-12-09T00:00:00	2024-11-08T17:00:00	4	Temperatura máxima	19.8
46835	7	Sololá	701	Sololá	1	Sololá	9	Septiembre	2023-12-09T00:00:00	2024-11-08T17:00:00	3	Temperatura mínima	18.4
46836	7	Sololá	701	Sololá	1	Sololá	9	Septiembre	2023-12-09T00:00:00	2024-11-08T17:00:00	5	Humedad	92
46837	7	Sololá	701	Sololá	1	Sololá	9	Septiembre	2023-12-09T00:00:00	2024-11-08T17:00:00	6	Velocidad del viento	0
46838	7	Sololá	701	Sololá	1	Sololá	9	Septiembre	2023-12-09T00:00:00	2024-11-08T17:00:00	7	Dirección del viento	0
46839	7	Sololá	701	Sololá	1	Sololá	9	Septiembre	2023-12-09T00:00:00	2024-11-08T17:00:00	1	Precipitación	0
46840	7	Sololá	701	Sololá	1	Sololá	9	Septiembre	2023-12-09T00:00:00	2024-11-08T17:00:00	8	Radiación solar	19
46841	7	Sololá	701	Sololá	1	Sololá	9	Septiembre	2023-12-09T00:00:00	2024-11-08T18:00:00	2	Temperatura media	17.4
46842	7	Sololá	701	Sololá	1	Sololá	9	Septiembre	2023-12-09T00:00:00	2024-11-08T18:00:00	4	Temperatura máxima	18.4
46843	7	Sololá	701	Sololá	1	Sololá	9	Septiembre	2023-12-09T00:00:00	2024-11-08T18:00:00	3	Temperatura mínima	17.4
46844	7	Sololá	701	Sololá	1	Sololá	9	Septiembre	2023-12-09T00:00:00	2024-11-08T18:00:00	5	Humedad	95
46845	7	Sololá	701	Sololá	1	Sololá	9	Septiembre	2023-12-09T00:00:00	2024-11-08T18:00:00	6	Velocidad del viento	0
46846	7	Sololá	701	Sololá	1	Sololá	9	Septiembre	2023-12-09T00:00:00	2024-11-08T18:00:00	7	Dirección del viento	0
46847	7	Sololá	701	Sololá	1	Sololá	9	Septiembre	2023-12-09T00:00:00	2024-11-08T18:00:00	1	Precipitación	18.2
46848	7	Sololá	701	Sololá	1	Sololá	9	Septiembre	2023-12-09T00:00:00	2024-11-08T18:00:00	8	Radiación solar	4
46849	7	Sololá	701	Sololá	1	Sololá	9	Septiembre	2023-12-09T00:00:00	2024-11-08T19:00:00	2	Temperatura media	17.1
46850	7	Sololá	701	Sololá	1	Sololá	9	Septiembre	2023-12-09T00:00:00	2024-11-08T19:00:00	4	Temperatura máxima	17.4
46851	7	Sololá	701	Sololá	1	Sololá	9	Septiembre	2023-12-09T00:00:00	2024-11-08T19:00:00	3	Temperatura mínima	17
46852	7	Sololá	701	Sololá	1	Sololá	9	Septiembre	2023-12-09T00:00:00	2024-11-08T19:00:00	5	Humedad	95
46853	7	Sololá	701	Sololá	1	Sololá	9	Septiembre	2023-12-09T00:00:00	2024-11-08T19:00:00	6	Velocidad del viento	0
46854	7	Sololá	701	Sololá	1	Sololá	9	Septiembre	2023-12-09T00:00:00	2024-11-08T19:00:00	7	Dirección del viento	0
46855	7	Sololá	701	Sololá	1	Sololá	9	Septiembre	2023-12-09T00:00:00	2024-11-08T19:00:00	1	Precipitación	0.2
46856	7	Sololá	701	Sololá	1	Sololá	9	Septiembre	2023-12-09T00:00:00	2024-11-08T19:00:00	8	Radiación solar	0
46857	7	Sololá	701	Sololá	1	Sololá	9	Septiembre	2023-12-09T00:00:00	2024-11-08T20:00:00	2	Temperatura media	16.6
46858	7	Sololá	701	Sololá	1	Sololá	9	Septiembre	2023-12-09T00:00:00	2024-11-08T20:00:00	4	Temperatura máxima	17.1
46859	7	Sololá	701	Sololá	1	Sololá	9	Septiembre	2023-12-09T00:00:00	2024-11-08T20:00:00	3	Temperatura mínima	16.6
46860	7	Sololá	701	Sololá	1	Sololá	9	Septiembre	2023-12-09T00:00:00	2024-11-08T20:00:00	5	Humedad	95
46861	7	Sololá	701	Sololá	1	Sololá	9	Septiembre	2023-12-09T00:00:00	2024-11-08T20:00:00	6	Velocidad del viento	0
46862	7	Sololá	701	Sololá	1	Sololá	9	Septiembre	2023-12-09T00:00:00	2024-11-08T20:00:00	7	Dirección del viento	0
46863	7	Sololá	701	Sololá	1	Sololá	9	Septiembre	2023-12-09T00:00:00	2024-11-08T20:00:00	1	Precipitación	0
46864	7	Sololá	701	Sololá	1	Sololá	9	Septiembre	2023-12-09T00:00:00	2024-11-08T20:00:00	8	Radiación solar	0
46865	7	Sololá	701	Sololá	1	Sololá	9	Septiembre	2023-12-09T00:00:00	2024-11-08T21:00:00	2	Temperatura media	16.4
46866	7	Sololá	701	Sololá	1	Sololá	9	Septiembre	2023-12-09T00:00:00	2024-11-08T21:00:00	4	Temperatura máxima	16.6
46867	7	Sololá	701	Sololá	1	Sololá	9	Septiembre	2023-12-09T00:00:00	2024-11-08T21:00:00	3	Temperatura mínima	16.2
46868	7	Sololá	701	Sololá	1	Sololá	9	Septiembre	2023-12-09T00:00:00	2024-11-08T21:00:00	5	Humedad	96
46869	7	Sololá	701	Sololá	1	Sololá	9	Septiembre	2023-12-09T00:00:00	2024-11-08T21:00:00	6	Velocidad del viento	0
46870	7	Sololá	701	Sololá	1	Sololá	9	Septiembre	2023-12-09T00:00:00	2024-11-08T21:00:00	7	Dirección del viento	0
46871	7	Sololá	701	Sololá	1	Sololá	9	Septiembre	2023-12-09T00:00:00	2024-11-08T21:00:00	1	Precipitación	0
46872	7	Sololá	701	Sololá	1	Sololá	9	Septiembre	2023-12-09T00:00:00	2024-11-08T21:00:00	8	Radiación solar	0
46873	7	Sololá	701	Sololá	1	Sololá	9	Septiembre	2023-12-09T00:00:00	2024-11-08T22:00:00	2	Temperatura media	15.9
46874	7	Sololá	701	Sololá	1	Sololá	9	Septiembre	2023-12-09T00:00:00	2024-11-08T22:00:00	4	Temperatura máxima	16.5
46875	7	Sololá	701	Sololá	1	Sololá	9	Septiembre	2023-12-09T00:00:00	2024-11-08T22:00:00	3	Temperatura mínima	15.9
46876	7	Sololá	701	Sololá	1	Sololá	9	Septiembre	2023-12-09T00:00:00	2024-11-08T22:00:00	5	Humedad	96
46877	7	Sololá	701	Sololá	1	Sololá	9	Septiembre	2023-12-09T00:00:00	2024-11-08T22:00:00	6	Velocidad del viento	0
46878	7	Sololá	701	Sololá	1	Sololá	9	Septiembre	2023-12-09T00:00:00	2024-11-08T22:00:00	7	Dirección del viento	0
46879	7	Sololá	701	Sololá	1	Sololá	9	Septiembre	2023-12-09T00:00:00	2024-11-08T22:00:00	1	Precipitación	0
46880	7	Sololá	701	Sololá	1	Sololá	9	Septiembre	2023-12-09T00:00:00	2024-11-08T22:00:00	8	Radiación solar	0
46881	7	Sololá	701	Sololá	1	Sololá	9	Septiembre	2023-12-09T00:00:00	2024-11-08T23:00:00	2	Temperatura media	14.9
46882	7	Sololá	701	Sololá	1	Sololá	9	Septiembre	2023-12-09T00:00:00	2024-11-08T23:00:00	4	Temperatura máxima	15.9
46883	7	Sololá	701	Sololá	1	Sololá	9	Septiembre	2023-12-09T00:00:00	2024-11-08T23:00:00	3	Temperatura mínima	14.9
46884	7	Sololá	701	Sololá	1	Sololá	9	Septiembre	2023-12-09T00:00:00	2024-11-08T23:00:00	5	Humedad	95
46885	7	Sololá	701	Sololá	1	Sololá	9	Septiembre	2023-12-09T00:00:00	2024-11-08T23:00:00	6	Velocidad del viento	0
46886	7	Sololá	701	Sololá	1	Sololá	9	Septiembre	2023-12-09T00:00:00	2024-11-08T23:00:00	7	Dirección del viento	0
46887	7	Sololá	701	Sololá	1	Sololá	9	Septiembre	2023-12-09T00:00:00	2024-11-08T23:00:00	1	Precipitación	0
46888	7	Sololá	701	Sololá	1	Sololá	9	Septiembre	2023-12-09T00:00:00	2024-11-08T23:00:00	8	Radiación solar	0
46889	7	Sololá	701	Sololá	1	Sololá	9	Septiembre	2023-09-13T00:00:00	2024-11-08T00:00:00	2	Temperatura media	14.7
46890	7	Sololá	701	Sololá	1	Sololá	9	Septiembre	2023-09-13T00:00:00	2024-11-08T00:00:00	4	Temperatura máxima	14.9
46891	7	Sololá	701	Sololá	1	Sololá	9	Septiembre	2023-09-13T00:00:00	2024-11-08T00:00:00	3	Temperatura mínima	14.4
46892	7	Sololá	701	Sololá	1	Sololá	9	Septiembre	2023-09-13T00:00:00	2024-11-08T00:00:00	5	Humedad	96
46893	7	Sololá	701	Sololá	1	Sololá	9	Septiembre	2023-09-13T00:00:00	2024-11-08T00:00:00	6	Velocidad del viento	0
46894	7	Sololá	701	Sololá	1	Sololá	9	Septiembre	2023-09-13T00:00:00	2024-11-08T00:00:00	7	Dirección del viento	0
46895	7	Sololá	701	Sololá	1	Sololá	9	Septiembre	2023-09-13T00:00:00	2024-11-08T00:00:00	1	Precipitación	0
46896	7	Sololá	701	Sololá	1	Sololá	9	Septiembre	2023-09-13T00:00:00	2024-11-08T00:00:00	8	Radiación solar	0
46897	7	Sololá	701	Sololá	1	Sololá	9	Septiembre	2023-09-13T00:00:00	2024-11-08T01:00:00	2	Temperatura media	15.2
46898	7	Sololá	701	Sololá	1	Sololá	9	Septiembre	2023-09-13T00:00:00	2024-11-08T01:00:00	4	Temperatura máxima	15.2
46899	7	Sololá	701	Sololá	1	Sololá	9	Septiembre	2023-09-13T00:00:00	2024-11-08T01:00:00	3	Temperatura mínima	14.7
46900	7	Sololá	701	Sololá	1	Sololá	9	Septiembre	2023-09-13T00:00:00	2024-11-08T01:00:00	5	Humedad	96
46901	7	Sololá	701	Sololá	1	Sololá	9	Septiembre	2023-09-13T00:00:00	2024-11-08T01:00:00	6	Velocidad del viento	0
46902	7	Sololá	701	Sololá	1	Sololá	9	Septiembre	2023-09-13T00:00:00	2024-11-08T01:00:00	7	Dirección del viento	0
46903	7	Sololá	701	Sololá	1	Sololá	9	Septiembre	2023-09-13T00:00:00	2024-11-08T01:00:00	1	Precipitación	0
46904	7	Sololá	701	Sololá	1	Sololá	9	Septiembre	2023-09-13T00:00:00	2024-11-08T01:00:00	8	Radiación solar	0
46905	7	Sololá	701	Sololá	1	Sololá	9	Septiembre	2023-09-13T00:00:00	2024-11-08T02:00:00	2	Temperatura media	15.1
46906	7	Sololá	701	Sololá	1	Sololá	9	Septiembre	2023-09-13T00:00:00	2024-11-08T02:00:00	4	Temperatura máxima	15.2
46907	7	Sololá	701	Sololá	1	Sololá	9	Septiembre	2023-09-13T00:00:00	2024-11-08T02:00:00	3	Temperatura mínima	15.1
46908	7	Sololá	701	Sololá	1	Sololá	9	Septiembre	2023-09-13T00:00:00	2024-11-08T02:00:00	5	Humedad	96
46909	7	Sololá	701	Sololá	1	Sololá	9	Septiembre	2023-09-13T00:00:00	2024-11-08T02:00:00	6	Velocidad del viento	0
46910	7	Sololá	701	Sololá	1	Sololá	9	Septiembre	2023-09-13T00:00:00	2024-11-08T02:00:00	7	Dirección del viento	0
46911	7	Sololá	701	Sololá	1	Sololá	9	Septiembre	2023-09-13T00:00:00	2024-11-08T02:00:00	1	Precipitación	0
46912	7	Sololá	701	Sololá	1	Sololá	9	Septiembre	2023-09-13T00:00:00	2024-11-08T02:00:00	8	Radiación solar	0
46913	7	Sololá	701	Sololá	1	Sololá	9	Septiembre	2023-09-13T00:00:00	2024-11-08T03:00:00	2	Temperatura media	14.7
46914	7	Sololá	701	Sololá	1	Sololá	9	Septiembre	2023-09-13T00:00:00	2024-11-08T03:00:00	4	Temperatura máxima	15.1
46915	7	Sololá	701	Sololá	1	Sololá	9	Septiembre	2023-09-13T00:00:00	2024-11-08T03:00:00	3	Temperatura mínima	14.7
46916	7	Sololá	701	Sololá	1	Sololá	9	Septiembre	2023-09-13T00:00:00	2024-11-08T03:00:00	5	Humedad	96
46917	7	Sololá	701	Sololá	1	Sololá	9	Septiembre	2023-09-13T00:00:00	2024-11-08T03:00:00	6	Velocidad del viento	0
46918	7	Sololá	701	Sololá	1	Sololá	9	Septiembre	2023-09-13T00:00:00	2024-11-08T03:00:00	7	Dirección del viento	0
46919	7	Sololá	701	Sololá	1	Sololá	9	Septiembre	2023-09-13T00:00:00	2024-11-08T03:00:00	1	Precipitación	2
46920	7	Sololá	701	Sololá	1	Sololá	9	Septiembre	2023-09-13T00:00:00	2024-11-08T03:00:00	8	Radiación solar	0
46921	7	Sololá	701	Sololá	1	Sololá	9	Septiembre	2023-09-13T00:00:00	2024-11-08T04:00:00	2	Temperatura media	14.4
46922	7	Sololá	701	Sololá	1	Sololá	9	Septiembre	2023-09-13T00:00:00	2024-11-08T04:00:00	4	Temperatura máxima	14.8
46923	7	Sololá	701	Sololá	1	Sololá	9	Septiembre	2023-09-13T00:00:00	2024-11-08T04:00:00	3	Temperatura mínima	14.4
46924	7	Sololá	701	Sololá	1	Sololá	9	Septiembre	2023-09-13T00:00:00	2024-11-08T04:00:00	5	Humedad	96
46925	7	Sololá	701	Sololá	1	Sololá	9	Septiembre	2023-09-13T00:00:00	2024-11-08T04:00:00	6	Velocidad del viento	0
46926	7	Sololá	701	Sololá	1	Sololá	9	Septiembre	2023-09-13T00:00:00	2024-11-08T04:00:00	7	Dirección del viento	0
46927	7	Sololá	701	Sololá	1	Sololá	9	Septiembre	2023-09-13T00:00:00	2024-11-08T04:00:00	1	Precipitación	1.2
46928	7	Sololá	701	Sololá	1	Sololá	9	Septiembre	2023-09-13T00:00:00	2024-11-08T04:00:00	8	Radiación solar	0
46929	7	Sololá	701	Sololá	1	Sololá	9	Septiembre	2023-09-13T00:00:00	2024-11-08T05:00:00	2	Temperatura media	13.9
46930	7	Sololá	701	Sololá	1	Sololá	9	Septiembre	2023-09-13T00:00:00	2024-11-08T05:00:00	4	Temperatura máxima	14.4
46931	7	Sololá	701	Sololá	1	Sololá	9	Septiembre	2023-09-13T00:00:00	2024-11-08T05:00:00	3	Temperatura mínima	13.9
46932	7	Sololá	701	Sololá	1	Sololá	9	Septiembre	2023-09-13T00:00:00	2024-11-08T05:00:00	5	Humedad	96
46933	7	Sololá	701	Sololá	1	Sololá	9	Septiembre	2023-09-13T00:00:00	2024-11-08T05:00:00	6	Velocidad del viento	0
46934	7	Sololá	701	Sololá	1	Sololá	9	Septiembre	2023-09-13T00:00:00	2024-11-08T05:00:00	7	Dirección del viento	0
46935	7	Sololá	701	Sololá	1	Sololá	9	Septiembre	2023-09-13T00:00:00	2024-11-08T05:00:00	1	Precipitación	0
46936	7	Sololá	701	Sololá	1	Sololá	9	Septiembre	2023-09-13T00:00:00	2024-11-08T05:00:00	8	Radiación solar	0
46937	7	Sololá	701	Sololá	1	Sololá	9	Septiembre	2023-09-13T00:00:00	2024-11-08T06:00:00	2	Temperatura media	13.5
46938	7	Sololá	701	Sololá	1	Sololá	9	Septiembre	2023-09-13T00:00:00	2024-11-08T06:00:00	4	Temperatura máxima	13.9
46939	7	Sololá	701	Sololá	1	Sololá	9	Septiembre	2023-09-13T00:00:00	2024-11-08T06:00:00	3	Temperatura mínima	13.4
46940	7	Sololá	701	Sololá	1	Sololá	9	Septiembre	2023-09-13T00:00:00	2024-11-08T06:00:00	5	Humedad	96
46941	7	Sololá	701	Sololá	1	Sololá	9	Septiembre	2023-09-13T00:00:00	2024-11-08T06:00:00	6	Velocidad del viento	0
46942	7	Sololá	701	Sololá	1	Sololá	9	Septiembre	2023-09-13T00:00:00	2024-11-08T06:00:00	7	Dirección del viento	0
46943	7	Sololá	701	Sololá	1	Sololá	9	Septiembre	2023-09-13T00:00:00	2024-11-08T06:00:00	1	Precipitación	0
46944	7	Sololá	701	Sololá	1	Sololá	9	Septiembre	2023-09-13T00:00:00	2024-11-08T06:00:00	8	Radiación solar	0
46945	7	Sololá	701	Sololá	1	Sololá	9	Septiembre	2023-09-13T00:00:00	2024-11-08T07:00:00	2	Temperatura media	13.9
46946	7	Sololá	701	Sololá	1	Sololá	9	Septiembre	2023-09-13T00:00:00	2024-11-08T07:00:00	4	Temperatura máxima	13.9
46947	7	Sololá	701	Sololá	1	Sololá	9	Septiembre	2023-09-13T00:00:00	2024-11-08T07:00:00	3	Temperatura mínima	13.4
46948	7	Sololá	701	Sololá	1	Sololá	9	Septiembre	2023-09-13T00:00:00	2024-11-08T07:00:00	5	Humedad	96
46949	7	Sololá	701	Sololá	1	Sololá	9	Septiembre	2023-09-13T00:00:00	2024-11-08T07:00:00	6	Velocidad del viento	0
46950	7	Sololá	701	Sololá	1	Sololá	9	Septiembre	2023-09-13T00:00:00	2024-11-08T07:00:00	7	Dirección del viento	0
46951	7	Sololá	701	Sololá	1	Sololá	9	Septiembre	2023-09-13T00:00:00	2024-11-08T07:00:00	1	Precipitación	0
46952	7	Sololá	701	Sololá	1	Sololá	9	Septiembre	2023-09-13T00:00:00	2024-11-08T07:00:00	8	Radiación solar	22
46953	7	Sololá	701	Sololá	1	Sololá	9	Septiembre	2023-09-13T00:00:00	2024-11-08T08:00:00	2	Temperatura media	15
46954	7	Sololá	701	Sololá	1	Sololá	9	Septiembre	2023-09-13T00:00:00	2024-11-08T08:00:00	4	Temperatura máxima	15
46955	7	Sololá	701	Sololá	1	Sololá	9	Septiembre	2023-09-13T00:00:00	2024-11-08T08:00:00	3	Temperatura mínima	13.9
46956	7	Sololá	701	Sololá	1	Sololá	9	Septiembre	2023-09-13T00:00:00	2024-11-08T08:00:00	5	Humedad	97
46957	7	Sololá	701	Sololá	1	Sololá	9	Septiembre	2023-09-13T00:00:00	2024-11-08T08:00:00	6	Velocidad del viento	0
46958	7	Sololá	701	Sololá	1	Sololá	9	Septiembre	2023-09-13T00:00:00	2024-11-08T08:00:00	7	Dirección del viento	0
46959	7	Sololá	701	Sololá	1	Sololá	9	Septiembre	2023-09-13T00:00:00	2024-11-08T08:00:00	1	Precipitación	0
46960	7	Sololá	701	Sololá	1	Sololá	9	Septiembre	2023-09-13T00:00:00	2024-11-08T08:00:00	8	Radiación solar	85
46961	7	Sololá	701	Sololá	1	Sololá	9	Septiembre	2023-09-13T00:00:00	2024-11-08T09:00:00	2	Temperatura media	18.3
46962	7	Sololá	701	Sololá	1	Sololá	9	Septiembre	2023-09-13T00:00:00	2024-11-08T09:00:00	4	Temperatura máxima	18.3
46963	7	Sololá	701	Sololá	1	Sololá	9	Septiembre	2023-09-13T00:00:00	2024-11-08T09:00:00	3	Temperatura mínima	14.9
46964	7	Sololá	701	Sololá	1	Sololá	9	Septiembre	2023-09-13T00:00:00	2024-11-08T09:00:00	5	Humedad	93
46965	7	Sololá	701	Sololá	1	Sololá	9	Septiembre	2023-09-13T00:00:00	2024-11-08T09:00:00	6	Velocidad del viento	0
46966	7	Sololá	701	Sololá	1	Sololá	9	Septiembre	2023-09-13T00:00:00	2024-11-08T09:00:00	7	Dirección del viento	0
46967	7	Sololá	701	Sololá	1	Sololá	9	Septiembre	2023-09-13T00:00:00	2024-11-08T09:00:00	1	Precipitación	0
46968	7	Sololá	701	Sololá	1	Sololá	9	Septiembre	2023-09-13T00:00:00	2024-11-08T09:00:00	8	Radiación solar	552
46969	7	Sololá	701	Sololá	1	Sololá	9	Septiembre	2023-09-13T00:00:00	2024-11-08T10:00:00	2	Temperatura media	20.3
46970	7	Sololá	701	Sololá	1	Sololá	9	Septiembre	2023-09-13T00:00:00	2024-11-08T10:00:00	4	Temperatura máxima	20.3
46971	7	Sololá	701	Sololá	1	Sololá	9	Septiembre	2023-09-13T00:00:00	2024-11-08T10:00:00	3	Temperatura mínima	18.3
46972	7	Sololá	701	Sololá	1	Sololá	9	Septiembre	2023-09-13T00:00:00	2024-11-08T10:00:00	5	Humedad	85
46973	7	Sololá	701	Sololá	1	Sololá	9	Septiembre	2023-09-13T00:00:00	2024-11-08T10:00:00	6	Velocidad del viento	0
46974	7	Sololá	701	Sololá	1	Sololá	9	Septiembre	2023-09-13T00:00:00	2024-11-08T10:00:00	7	Dirección del viento	0
46975	7	Sololá	701	Sololá	1	Sololá	9	Septiembre	2023-09-13T00:00:00	2024-11-08T10:00:00	1	Precipitación	0
46976	7	Sololá	701	Sololá	1	Sololá	9	Septiembre	2023-09-13T00:00:00	2024-11-08T10:00:00	8	Radiación solar	563
46977	7	Sololá	701	Sololá	1	Sololá	9	Septiembre	2023-09-13T00:00:00	2024-11-08T11:00:00	2	Temperatura media	20.8
46978	7	Sololá	701	Sololá	1	Sololá	9	Septiembre	2023-09-13T00:00:00	2024-11-08T11:00:00	4	Temperatura máxima	20.8
46979	7	Sololá	701	Sololá	1	Sololá	9	Septiembre	2023-09-13T00:00:00	2024-11-08T11:00:00	3	Temperatura mínima	20
46980	7	Sololá	701	Sololá	1	Sololá	9	Septiembre	2023-09-13T00:00:00	2024-11-08T11:00:00	5	Humedad	87
46981	7	Sololá	701	Sololá	1	Sololá	9	Septiembre	2023-09-13T00:00:00	2024-11-08T11:00:00	6	Velocidad del viento	0
46982	7	Sololá	701	Sololá	1	Sololá	9	Septiembre	2023-09-13T00:00:00	2024-11-08T11:00:00	7	Dirección del viento	0
46983	7	Sololá	701	Sololá	1	Sololá	9	Septiembre	2023-09-13T00:00:00	2024-11-08T11:00:00	1	Precipitación	0
46984	7	Sololá	701	Sololá	1	Sololá	9	Septiembre	2023-09-13T00:00:00	2024-11-08T11:00:00	8	Radiación solar	362
46985	7	Sololá	701	Sololá	1	Sololá	9	Septiembre	2023-09-13T00:00:00	2024-11-08T12:00:00	2	Temperatura media	21.3
46986	7	Sololá	701	Sololá	1	Sololá	9	Septiembre	2023-09-13T00:00:00	2024-11-08T12:00:00	4	Temperatura máxima	21.3
46987	7	Sololá	701	Sololá	1	Sololá	9	Septiembre	2023-09-13T00:00:00	2024-11-08T12:00:00	3	Temperatura mínima	20.4
46988	7	Sololá	701	Sololá	1	Sololá	9	Septiembre	2023-09-13T00:00:00	2024-11-08T12:00:00	5	Humedad	82
46989	7	Sololá	701	Sololá	1	Sololá	9	Septiembre	2023-09-13T00:00:00	2024-11-08T12:00:00	6	Velocidad del viento	0
46990	7	Sololá	701	Sololá	1	Sololá	9	Septiembre	2023-09-13T00:00:00	2024-11-08T12:00:00	7	Dirección del viento	0
46991	7	Sololá	701	Sololá	1	Sololá	9	Septiembre	2023-09-13T00:00:00	2024-11-08T12:00:00	1	Precipitación	0
46992	7	Sololá	701	Sololá	1	Sololá	9	Septiembre	2023-09-13T00:00:00	2024-11-08T12:00:00	8	Radiación solar	275
46993	7	Sololá	701	Sololá	1	Sololá	9	Septiembre	2023-09-13T00:00:00	2024-11-08T13:00:00	2	Temperatura media	21.6
46994	7	Sololá	701	Sololá	1	Sololá	9	Septiembre	2023-09-13T00:00:00	2024-11-08T13:00:00	4	Temperatura máxima	21.8
46995	7	Sololá	701	Sololá	1	Sololá	9	Septiembre	2023-09-13T00:00:00	2024-11-08T13:00:00	3	Temperatura mínima	21.3
46996	7	Sololá	701	Sololá	1	Sololá	9	Septiembre	2023-09-13T00:00:00	2024-11-08T13:00:00	5	Humedad	84
46997	7	Sololá	701	Sololá	1	Sololá	9	Septiembre	2023-09-13T00:00:00	2024-11-08T13:00:00	6	Velocidad del viento	0
46998	7	Sololá	701	Sololá	1	Sololá	9	Septiembre	2023-09-13T00:00:00	2024-11-08T13:00:00	7	Dirección del viento	0
46999	7	Sololá	701	Sololá	1	Sololá	9	Septiembre	2023-09-13T00:00:00	2024-11-08T13:00:00	1	Precipitación	0
47000	7	Sololá	701	Sololá	1	Sololá	9	Septiembre	2023-09-13T00:00:00	2024-11-08T13:00:00	8	Radiación solar	210
47001	7	Sololá	701	Sololá	1	Sololá	9	Septiembre	2023-09-13T00:00:00	2024-11-08T14:00:00	2	Temperatura media	19.5
47002	7	Sololá	701	Sololá	1	Sololá	9	Septiembre	2023-09-13T00:00:00	2024-11-08T14:00:00	4	Temperatura máxima	21.6
47003	7	Sololá	701	Sololá	1	Sololá	9	Septiembre	2023-09-13T00:00:00	2024-11-08T14:00:00	3	Temperatura mínima	19.5
47004	7	Sololá	701	Sololá	1	Sololá	9	Septiembre	2023-09-13T00:00:00	2024-11-08T14:00:00	5	Humedad	90
47005	7	Sololá	701	Sololá	1	Sololá	9	Septiembre	2023-09-13T00:00:00	2024-11-08T14:00:00	6	Velocidad del viento	0
47006	7	Sololá	701	Sololá	1	Sololá	9	Septiembre	2023-09-13T00:00:00	2024-11-08T14:00:00	7	Dirección del viento	0
47007	7	Sololá	701	Sololá	1	Sololá	9	Septiembre	2023-09-13T00:00:00	2024-11-08T14:00:00	1	Precipitación	0
47008	7	Sololá	701	Sololá	1	Sololá	9	Septiembre	2023-09-13T00:00:00	2024-11-08T14:00:00	8	Radiación solar	96
47009	7	Sololá	701	Sololá	1	Sololá	9	Septiembre	2023-09-13T00:00:00	2024-11-08T15:00:00	2	Temperatura media	18.1
47010	7	Sololá	701	Sololá	1	Sololá	9	Septiembre	2023-09-13T00:00:00	2024-11-08T15:00:00	4	Temperatura máxima	19.6
47011	7	Sololá	701	Sololá	1	Sololá	9	Septiembre	2023-09-13T00:00:00	2024-11-08T15:00:00	3	Temperatura mínima	18
47012	7	Sololá	701	Sololá	1	Sololá	9	Septiembre	2023-09-13T00:00:00	2024-11-08T15:00:00	5	Humedad	92
47013	7	Sololá	701	Sololá	1	Sololá	9	Septiembre	2023-09-13T00:00:00	2024-11-08T15:00:00	6	Velocidad del viento	0
47014	7	Sololá	701	Sololá	1	Sololá	9	Septiembre	2023-09-13T00:00:00	2024-11-08T15:00:00	7	Dirección del viento	0
47015	7	Sololá	701	Sololá	1	Sololá	9	Septiembre	2023-09-13T00:00:00	2024-11-08T15:00:00	1	Precipitación	0
47016	7	Sololá	701	Sololá	1	Sololá	9	Septiembre	2023-09-13T00:00:00	2024-11-08T15:00:00	8	Radiación solar	33
47017	7	Sololá	701	Sololá	1	Sololá	9	Septiembre	2023-09-13T00:00:00	2024-11-08T16:00:00	2	Temperatura media	17.3
47018	7	Sololá	701	Sololá	1	Sololá	9	Septiembre	2023-09-13T00:00:00	2024-11-08T16:00:00	4	Temperatura máxima	18
47019	7	Sololá	701	Sololá	1	Sololá	9	Septiembre	2023-09-13T00:00:00	2024-11-08T16:00:00	3	Temperatura mínima	17.2
47020	7	Sololá	701	Sololá	1	Sololá	9	Septiembre	2023-09-13T00:00:00	2024-11-08T16:00:00	5	Humedad	93
47021	7	Sololá	701	Sololá	1	Sololá	9	Septiembre	2023-09-13T00:00:00	2024-11-08T16:00:00	6	Velocidad del viento	0
47022	7	Sololá	701	Sololá	1	Sololá	9	Septiembre	2023-09-13T00:00:00	2024-11-08T16:00:00	7	Dirección del viento	0
47023	7	Sololá	701	Sololá	1	Sololá	9	Septiembre	2023-09-13T00:00:00	2024-11-08T16:00:00	1	Precipitación	0
47024	7	Sololá	701	Sololá	1	Sololá	9	Septiembre	2023-09-13T00:00:00	2024-11-08T16:00:00	8	Radiación solar	14
47025	7	Sololá	701	Sololá	1	Sololá	9	Septiembre	2023-09-13T00:00:00	2024-11-08T17:00:00	2	Temperatura media	17.1
47026	7	Sololá	701	Sololá	1	Sololá	9	Septiembre	2023-09-13T00:00:00	2024-11-08T17:00:00	4	Temperatura máxima	17.4
47027	7	Sololá	701	Sololá	1	Sololá	9	Septiembre	2023-09-13T00:00:00	2024-11-08T17:00:00	3	Temperatura mínima	17.1
47028	7	Sololá	701	Sololá	1	Sololá	9	Septiembre	2023-09-13T00:00:00	2024-11-08T17:00:00	5	Humedad	95
47029	7	Sololá	701	Sololá	1	Sololá	9	Septiembre	2023-09-13T00:00:00	2024-11-08T17:00:00	6	Velocidad del viento	0
47030	7	Sololá	701	Sololá	1	Sololá	9	Septiembre	2023-09-13T00:00:00	2024-11-08T17:00:00	7	Dirección del viento	0
47031	7	Sololá	701	Sololá	1	Sololá	9	Septiembre	2023-09-13T00:00:00	2024-11-08T17:00:00	1	Precipitación	10.4
47032	7	Sololá	701	Sololá	1	Sololá	9	Septiembre	2023-09-13T00:00:00	2024-11-08T17:00:00	8	Radiación solar	10
47033	7	Sololá	701	Sololá	1	Sololá	9	Septiembre	2023-09-13T00:00:00	2024-11-08T18:00:00	2	Temperatura media	16.4
47034	7	Sololá	701	Sololá	1	Sololá	9	Septiembre	2023-09-13T00:00:00	2024-11-08T18:00:00	4	Temperatura máxima	17.1
47035	7	Sololá	701	Sololá	1	Sololá	9	Septiembre	2023-09-13T00:00:00	2024-11-08T18:00:00	3	Temperatura mínima	16.4
47036	7	Sololá	701	Sololá	1	Sololá	9	Septiembre	2023-09-13T00:00:00	2024-11-08T18:00:00	5	Humedad	95
47037	7	Sololá	701	Sololá	1	Sololá	9	Septiembre	2023-09-13T00:00:00	2024-11-08T18:00:00	6	Velocidad del viento	0
47038	7	Sololá	701	Sololá	1	Sololá	9	Septiembre	2023-09-13T00:00:00	2024-11-08T18:00:00	7	Dirección del viento	0
47039	7	Sololá	701	Sololá	1	Sololá	9	Septiembre	2023-09-13T00:00:00	2024-11-08T18:00:00	1	Precipitación	12.8
47040	7	Sololá	701	Sololá	1	Sololá	9	Septiembre	2023-09-13T00:00:00	2024-11-08T18:00:00	8	Radiación solar	2
47041	7	Sololá	701	Sololá	1	Sololá	9	Septiembre	2023-09-13T00:00:00	2024-11-08T19:00:00	2	Temperatura media	16.2
47042	7	Sololá	701	Sololá	1	Sololá	9	Septiembre	2023-09-13T00:00:00	2024-11-08T19:00:00	4	Temperatura máxima	16.5
47043	7	Sololá	701	Sololá	1	Sololá	9	Septiembre	2023-09-13T00:00:00	2024-11-08T19:00:00	3	Temperatura mínima	16.2
47044	7	Sololá	701	Sololá	1	Sololá	9	Septiembre	2023-09-13T00:00:00	2024-11-08T19:00:00	5	Humedad	95
47045	7	Sololá	701	Sololá	1	Sololá	9	Septiembre	2023-09-13T00:00:00	2024-11-08T19:00:00	6	Velocidad del viento	0
47046	7	Sololá	701	Sololá	1	Sololá	9	Septiembre	2023-09-13T00:00:00	2024-11-08T19:00:00	7	Dirección del viento	0
47047	7	Sololá	701	Sololá	1	Sololá	9	Septiembre	2023-09-13T00:00:00	2024-11-08T19:00:00	1	Precipitación	0.2
47048	7	Sololá	701	Sololá	1	Sololá	9	Septiembre	2023-09-13T00:00:00	2024-11-08T19:00:00	8	Radiación solar	0
47049	7	Sololá	701	Sololá	1	Sololá	9	Septiembre	2023-09-13T00:00:00	2024-11-08T20:00:00	2	Temperatura media	15.7
47050	7	Sololá	701	Sololá	1	Sololá	9	Septiembre	2023-09-13T00:00:00	2024-11-08T20:00:00	4	Temperatura máxima	16.2
47051	7	Sololá	701	Sololá	1	Sololá	9	Septiembre	2023-09-13T00:00:00	2024-11-08T20:00:00	3	Temperatura mínima	15.7
47052	7	Sololá	701	Sololá	1	Sololá	9	Septiembre	2023-09-13T00:00:00	2024-11-08T20:00:00	5	Humedad	96
47053	7	Sololá	701	Sololá	1	Sololá	9	Septiembre	2023-09-13T00:00:00	2024-11-08T20:00:00	6	Velocidad del viento	0
47054	7	Sololá	701	Sololá	1	Sololá	9	Septiembre	2023-09-13T00:00:00	2024-11-08T20:00:00	7	Dirección del viento	0
47055	7	Sololá	701	Sololá	1	Sololá	9	Septiembre	2023-09-13T00:00:00	2024-11-08T20:00:00	1	Precipitación	0.8
47056	7	Sololá	701	Sololá	1	Sololá	9	Septiembre	2023-09-13T00:00:00	2024-11-08T20:00:00	8	Radiación solar	0
47057	7	Sololá	701	Sololá	1	Sololá	9	Septiembre	2023-09-13T00:00:00	2024-11-08T21:00:00	2	Temperatura media	15.5
47058	7	Sololá	701	Sololá	1	Sololá	9	Septiembre	2023-09-13T00:00:00	2024-11-08T21:00:00	4	Temperatura máxima	15.7
47059	7	Sololá	701	Sololá	1	Sololá	9	Septiembre	2023-09-13T00:00:00	2024-11-08T21:00:00	3	Temperatura mínima	15.4
47060	7	Sololá	701	Sololá	1	Sololá	9	Septiembre	2023-09-13T00:00:00	2024-11-08T21:00:00	5	Humedad	96
47061	7	Sololá	701	Sololá	1	Sololá	9	Septiembre	2023-09-13T00:00:00	2024-11-08T21:00:00	6	Velocidad del viento	0
47062	7	Sololá	701	Sololá	1	Sololá	9	Septiembre	2023-09-13T00:00:00	2024-11-08T21:00:00	7	Dirección del viento	0
47063	7	Sololá	701	Sololá	1	Sololá	9	Septiembre	2023-09-13T00:00:00	2024-11-08T21:00:00	1	Precipitación	0
47064	7	Sololá	701	Sololá	1	Sololá	9	Septiembre	2023-09-13T00:00:00	2024-11-08T21:00:00	8	Radiación solar	0
47065	7	Sololá	701	Sololá	1	Sololá	9	Septiembre	2023-09-13T00:00:00	2024-11-08T22:00:00	2	Temperatura media	15.2
47066	7	Sololá	701	Sololá	1	Sololá	9	Septiembre	2023-09-13T00:00:00	2024-11-08T22:00:00	4	Temperatura máxima	15.5
47067	7	Sololá	701	Sololá	1	Sololá	9	Septiembre	2023-09-13T00:00:00	2024-11-08T22:00:00	3	Temperatura mínima	15.2
47068	7	Sololá	701	Sololá	1	Sololá	9	Septiembre	2023-09-13T00:00:00	2024-11-08T22:00:00	5	Humedad	96
47069	7	Sololá	701	Sololá	1	Sololá	9	Septiembre	2023-09-13T00:00:00	2024-11-08T22:00:00	6	Velocidad del viento	0
47070	7	Sololá	701	Sololá	1	Sololá	9	Septiembre	2023-09-13T00:00:00	2024-11-08T22:00:00	7	Dirección del viento	0
47071	7	Sololá	701	Sololá	1	Sololá	9	Septiembre	2023-09-13T00:00:00	2024-11-08T22:00:00	1	Precipitación	0
47072	7	Sololá	701	Sololá	1	Sololá	9	Septiembre	2023-09-13T00:00:00	2024-11-08T22:00:00	8	Radiación solar	0
47073	7	Sololá	701	Sololá	1	Sololá	9	Septiembre	2023-09-13T00:00:00	2024-11-08T23:00:00	2	Temperatura media	15.1
47074	7	Sololá	701	Sololá	1	Sololá	9	Septiembre	2023-09-13T00:00:00	2024-11-08T23:00:00	4	Temperatura máxima	15.2
47075	7	Sololá	701	Sololá	1	Sololá	9	Septiembre	2023-09-13T00:00:00	2024-11-08T23:00:00	3	Temperatura mínima	15.1
47076	7	Sololá	701	Sololá	1	Sololá	9	Septiembre	2023-09-13T00:00:00	2024-11-08T23:00:00	5	Humedad	96
47077	7	Sololá	701	Sololá	1	Sololá	9	Septiembre	2023-09-13T00:00:00	2024-11-08T23:00:00	6	Velocidad del viento	0
47078	7	Sololá	701	Sololá	1	Sololá	9	Septiembre	2023-09-13T00:00:00	2024-11-08T23:00:00	7	Dirección del viento	0
47079	7	Sololá	701	Sololá	1	Sololá	9	Septiembre	2023-09-13T00:00:00	2024-11-08T23:00:00	1	Precipitación	0
47080	7	Sololá	701	Sololá	1	Sololá	9	Septiembre	2023-09-13T00:00:00	2024-11-08T23:00:00	8	Radiación solar	0
47081	7	Sololá	701	Sololá	1	Sololá	9	Septiembre	2023-09-14T00:00:00	2024-11-08T00:00:00	2	Temperatura media	14.7
47082	7	Sololá	701	Sololá	1	Sololá	9	Septiembre	2023-09-14T00:00:00	2024-11-08T00:00:00	4	Temperatura máxima	15.1
47083	7	Sololá	701	Sololá	1	Sololá	9	Septiembre	2023-09-14T00:00:00	2024-11-08T00:00:00	3	Temperatura mínima	14.7
47084	7	Sololá	701	Sololá	1	Sololá	9	Septiembre	2023-09-14T00:00:00	2024-11-08T00:00:00	5	Humedad	96
47085	7	Sololá	701	Sololá	1	Sololá	9	Septiembre	2023-09-14T00:00:00	2024-11-08T00:00:00	6	Velocidad del viento	0
47086	7	Sololá	701	Sololá	1	Sololá	9	Septiembre	2023-09-14T00:00:00	2024-11-08T00:00:00	7	Dirección del viento	0
47087	7	Sololá	701	Sololá	1	Sololá	9	Septiembre	2023-09-14T00:00:00	2024-11-08T00:00:00	1	Precipitación	0
47088	7	Sololá	701	Sololá	1	Sololá	9	Septiembre	2023-09-14T00:00:00	2024-11-08T00:00:00	8	Radiación solar	0
47089	7	Sololá	701	Sololá	1	Sololá	9	Septiembre	2023-09-14T00:00:00	2024-11-08T01:00:00	2	Temperatura media	14.2
47090	7	Sololá	701	Sololá	1	Sololá	9	Septiembre	2023-09-14T00:00:00	2024-11-08T01:00:00	4	Temperatura máxima	14.8
47091	7	Sololá	701	Sololá	1	Sololá	9	Septiembre	2023-09-14T00:00:00	2024-11-08T01:00:00	3	Temperatura mínima	14.2
47092	7	Sololá	701	Sololá	1	Sololá	9	Septiembre	2023-09-14T00:00:00	2024-11-08T01:00:00	5	Humedad	95
47093	7	Sololá	701	Sololá	1	Sololá	9	Septiembre	2023-09-14T00:00:00	2024-11-08T01:00:00	6	Velocidad del viento	0
47094	7	Sololá	701	Sololá	1	Sololá	9	Septiembre	2023-09-14T00:00:00	2024-11-08T01:00:00	7	Dirección del viento	0
47095	7	Sololá	701	Sololá	1	Sololá	9	Septiembre	2023-09-14T00:00:00	2024-11-08T01:00:00	1	Precipitación	0.2
47096	7	Sololá	701	Sololá	1	Sololá	9	Septiembre	2023-09-14T00:00:00	2024-11-08T01:00:00	8	Radiación solar	0
47097	7	Sololá	701	Sololá	1	Sololá	9	Septiembre	2023-09-14T00:00:00	2024-11-08T02:00:00	2	Temperatura media	13.9
47098	7	Sololá	701	Sololá	1	Sololá	9	Septiembre	2023-09-14T00:00:00	2024-11-08T02:00:00	4	Temperatura máxima	14.2
47099	7	Sololá	701	Sololá	1	Sololá	9	Septiembre	2023-09-14T00:00:00	2024-11-08T02:00:00	3	Temperatura mínima	13.8
47100	7	Sololá	701	Sololá	1	Sololá	9	Septiembre	2023-09-14T00:00:00	2024-11-08T02:00:00	5	Humedad	95
47101	7	Sololá	701	Sololá	1	Sololá	9	Septiembre	2023-09-14T00:00:00	2024-11-08T02:00:00	6	Velocidad del viento	0
47102	7	Sololá	701	Sololá	1	Sololá	9	Septiembre	2023-09-14T00:00:00	2024-11-08T02:00:00	7	Dirección del viento	0
47103	7	Sololá	701	Sololá	1	Sololá	9	Septiembre	2023-09-14T00:00:00	2024-11-08T02:00:00	1	Precipitación	0
47104	7	Sololá	701	Sololá	1	Sololá	9	Septiembre	2023-09-14T00:00:00	2024-11-08T02:00:00	8	Radiación solar	0
47105	7	Sololá	701	Sololá	1	Sololá	9	Septiembre	2023-09-14T00:00:00	2024-11-08T03:00:00	2	Temperatura media	13.1
47106	7	Sololá	701	Sololá	1	Sololá	9	Septiembre	2023-09-14T00:00:00	2024-11-08T03:00:00	4	Temperatura máxima	13.9
47107	7	Sololá	701	Sololá	1	Sololá	9	Septiembre	2023-09-14T00:00:00	2024-11-08T03:00:00	3	Temperatura mínima	13.1
47108	7	Sololá	701	Sololá	1	Sololá	9	Septiembre	2023-09-14T00:00:00	2024-11-08T03:00:00	5	Humedad	95
47109	7	Sololá	701	Sololá	1	Sololá	9	Septiembre	2023-09-14T00:00:00	2024-11-08T03:00:00	6	Velocidad del viento	0
47110	7	Sololá	701	Sololá	1	Sololá	9	Septiembre	2023-09-14T00:00:00	2024-11-08T03:00:00	7	Dirección del viento	0
47111	7	Sololá	701	Sololá	1	Sololá	9	Septiembre	2023-09-14T00:00:00	2024-11-08T03:00:00	1	Precipitación	0
47112	7	Sololá	701	Sololá	1	Sololá	9	Septiembre	2023-09-14T00:00:00	2024-11-08T03:00:00	8	Radiación solar	0
47113	7	Sololá	701	Sololá	1	Sololá	9	Septiembre	2023-09-14T00:00:00	2024-11-08T04:00:00	2	Temperatura media	12.8
47114	7	Sololá	701	Sololá	1	Sololá	9	Septiembre	2023-09-14T00:00:00	2024-11-08T04:00:00	4	Temperatura máxima	13.2
47115	7	Sololá	701	Sololá	1	Sololá	9	Septiembre	2023-09-14T00:00:00	2024-11-08T04:00:00	3	Temperatura mínima	12.8
47116	7	Sololá	701	Sololá	1	Sololá	9	Septiembre	2023-09-14T00:00:00	2024-11-08T04:00:00	5	Humedad	96
47117	7	Sololá	701	Sololá	1	Sololá	9	Septiembre	2023-09-14T00:00:00	2024-11-08T04:00:00	6	Velocidad del viento	0
47118	7	Sololá	701	Sololá	1	Sololá	9	Septiembre	2023-09-14T00:00:00	2024-11-08T04:00:00	7	Dirección del viento	0
47119	7	Sololá	701	Sololá	1	Sololá	9	Septiembre	2023-09-14T00:00:00	2024-11-08T04:00:00	1	Precipitación	0
47120	7	Sololá	701	Sololá	1	Sololá	9	Septiembre	2023-09-14T00:00:00	2024-11-08T04:00:00	8	Radiación solar	0
47121	7	Sololá	701	Sololá	1	Sololá	9	Septiembre	2023-09-14T00:00:00	2024-11-08T05:00:00	2	Temperatura media	13.2
47122	7	Sololá	701	Sololá	1	Sololá	9	Septiembre	2023-09-14T00:00:00	2024-11-08T05:00:00	4	Temperatura máxima	13.2
47123	7	Sololá	701	Sololá	1	Sololá	9	Septiembre	2023-09-14T00:00:00	2024-11-08T05:00:00	3	Temperatura mínima	12.7
47124	7	Sololá	701	Sololá	1	Sololá	9	Septiembre	2023-09-14T00:00:00	2024-11-08T05:00:00	5	Humedad	96
47125	7	Sololá	701	Sololá	1	Sololá	9	Septiembre	2023-09-14T00:00:00	2024-11-08T05:00:00	6	Velocidad del viento	0
47126	7	Sololá	701	Sololá	1	Sololá	9	Septiembre	2023-09-14T00:00:00	2024-11-08T05:00:00	7	Dirección del viento	0
47127	7	Sololá	701	Sololá	1	Sololá	9	Septiembre	2023-09-14T00:00:00	2024-11-08T05:00:00	1	Precipitación	0
47128	7	Sololá	701	Sololá	1	Sololá	9	Septiembre	2023-09-14T00:00:00	2024-11-08T05:00:00	8	Radiación solar	0
47129	7	Sololá	701	Sololá	1	Sololá	9	Septiembre	2023-09-14T00:00:00	2024-11-08T06:00:00	2	Temperatura media	12.7
47130	7	Sololá	701	Sololá	1	Sololá	9	Septiembre	2023-09-14T00:00:00	2024-11-08T06:00:00	4	Temperatura máxima	13.2
47131	7	Sololá	701	Sololá	1	Sololá	9	Septiembre	2023-09-14T00:00:00	2024-11-08T06:00:00	3	Temperatura mínima	12.7
47132	7	Sololá	701	Sololá	1	Sololá	9	Septiembre	2023-09-14T00:00:00	2024-11-08T06:00:00	5	Humedad	95
47133	7	Sololá	701	Sololá	1	Sololá	9	Septiembre	2023-09-14T00:00:00	2024-11-08T06:00:00	6	Velocidad del viento	0
47134	7	Sololá	701	Sololá	1	Sololá	9	Septiembre	2023-09-14T00:00:00	2024-11-08T06:00:00	7	Dirección del viento	0
47135	7	Sololá	701	Sololá	1	Sololá	9	Septiembre	2023-09-14T00:00:00	2024-11-08T06:00:00	1	Precipitación	0
47136	7	Sololá	701	Sololá	1	Sololá	9	Septiembre	2023-09-14T00:00:00	2024-11-08T06:00:00	8	Radiación solar	0
47137	7	Sololá	701	Sololá	1	Sololá	9	Septiembre	2023-09-14T00:00:00	2024-11-08T07:00:00	2	Temperatura media	13.7
47138	7	Sololá	701	Sololá	1	Sololá	9	Septiembre	2023-09-14T00:00:00	2024-11-08T07:00:00	4	Temperatura máxima	13.7
47139	7	Sololá	701	Sololá	1	Sololá	9	Septiembre	2023-09-14T00:00:00	2024-11-08T07:00:00	3	Temperatura mínima	12.7
47140	7	Sololá	701	Sololá	1	Sololá	9	Septiembre	2023-09-14T00:00:00	2024-11-08T07:00:00	5	Humedad	96
47141	7	Sololá	701	Sololá	1	Sololá	9	Septiembre	2023-09-14T00:00:00	2024-11-08T07:00:00	6	Velocidad del viento	0
47142	7	Sololá	701	Sololá	1	Sololá	9	Septiembre	2023-09-14T00:00:00	2024-11-08T07:00:00	7	Dirección del viento	0
47143	7	Sololá	701	Sololá	1	Sololá	9	Septiembre	2023-09-14T00:00:00	2024-11-08T07:00:00	1	Precipitación	0
47144	7	Sololá	701	Sololá	1	Sololá	9	Septiembre	2023-09-14T00:00:00	2024-11-08T07:00:00	8	Radiación solar	21
47145	7	Sololá	701	Sololá	1	Sololá	9	Septiembre	2023-09-14T00:00:00	2024-11-08T08:00:00	2	Temperatura media	14.4
47146	7	Sololá	701	Sololá	1	Sololá	9	Septiembre	2023-09-14T00:00:00	2024-11-08T08:00:00	4	Temperatura máxima	14.6
47147	7	Sololá	701	Sololá	1	Sololá	9	Septiembre	2023-09-14T00:00:00	2024-11-08T08:00:00	3	Temperatura mínima	13.7
47148	7	Sololá	701	Sololá	1	Sololá	9	Septiembre	2023-09-14T00:00:00	2024-11-08T08:00:00	5	Humedad	96
47149	7	Sololá	701	Sololá	1	Sololá	9	Septiembre	2023-09-14T00:00:00	2024-11-08T08:00:00	6	Velocidad del viento	0
47150	7	Sololá	701	Sololá	1	Sololá	9	Septiembre	2023-09-14T00:00:00	2024-11-08T08:00:00	7	Dirección del viento	0
47151	7	Sololá	701	Sololá	1	Sololá	9	Septiembre	2023-09-14T00:00:00	2024-11-08T08:00:00	1	Precipitación	0
47152	7	Sololá	701	Sololá	1	Sololá	9	Septiembre	2023-09-14T00:00:00	2024-11-08T08:00:00	8	Radiación solar	43
47153	7	Sololá	701	Sololá	1	Sololá	9	Septiembre	2023-09-14T00:00:00	2024-11-08T09:00:00	2	Temperatura media	16.4
47154	7	Sololá	701	Sololá	1	Sololá	9	Septiembre	2023-09-14T00:00:00	2024-11-08T09:00:00	4	Temperatura máxima	16.4
47155	7	Sololá	701	Sololá	1	Sololá	9	Septiembre	2023-09-14T00:00:00	2024-11-08T09:00:00	3	Temperatura mínima	14.4
47156	7	Sololá	701	Sololá	1	Sololá	9	Septiembre	2023-09-14T00:00:00	2024-11-08T09:00:00	5	Humedad	95
47157	7	Sololá	701	Sololá	1	Sololá	9	Septiembre	2023-09-14T00:00:00	2024-11-08T09:00:00	6	Velocidad del viento	0
47158	7	Sololá	701	Sololá	1	Sololá	9	Septiembre	2023-09-14T00:00:00	2024-11-08T09:00:00	7	Dirección del viento	0
47159	7	Sololá	701	Sololá	1	Sololá	9	Septiembre	2023-09-14T00:00:00	2024-11-08T09:00:00	1	Precipitación	0
47160	7	Sololá	701	Sololá	1	Sololá	9	Septiembre	2023-09-14T00:00:00	2024-11-08T09:00:00	8	Radiación solar	232
47161	7	Sololá	701	Sololá	1	Sololá	9	Septiembre	2023-09-14T00:00:00	2024-11-08T10:00:00	2	Temperatura media	19.1
47162	7	Sololá	701	Sololá	1	Sololá	9	Septiembre	2023-09-14T00:00:00	2024-11-08T10:00:00	4	Temperatura máxima	19.1
47163	7	Sololá	701	Sololá	1	Sololá	9	Septiembre	2023-09-14T00:00:00	2024-11-08T10:00:00	3	Temperatura mínima	16.4
47164	7	Sololá	701	Sololá	1	Sololá	9	Septiembre	2023-09-14T00:00:00	2024-11-08T10:00:00	5	Humedad	86
47165	7	Sololá	701	Sololá	1	Sololá	9	Septiembre	2023-09-14T00:00:00	2024-11-08T10:00:00	6	Velocidad del viento	0
47166	7	Sololá	701	Sololá	1	Sololá	9	Septiembre	2023-09-14T00:00:00	2024-11-08T10:00:00	7	Dirección del viento	0
47167	7	Sololá	701	Sololá	1	Sololá	9	Septiembre	2023-09-14T00:00:00	2024-11-08T10:00:00	1	Precipitación	0
47168	7	Sololá	701	Sololá	1	Sololá	9	Septiembre	2023-09-14T00:00:00	2024-11-08T10:00:00	8	Radiación solar	391
47169	7	Sololá	701	Sololá	1	Sololá	9	Septiembre	2023-09-14T00:00:00	2024-11-08T11:00:00	2	Temperatura media	21.1
47170	7	Sololá	701	Sololá	1	Sololá	9	Septiembre	2023-09-14T00:00:00	2024-11-08T11:00:00	4	Temperatura máxima	21.2
47171	7	Sololá	701	Sololá	1	Sololá	9	Septiembre	2023-09-14T00:00:00	2024-11-08T11:00:00	3	Temperatura mínima	19.1
47172	7	Sololá	701	Sololá	1	Sololá	9	Septiembre	2023-09-14T00:00:00	2024-11-08T11:00:00	5	Humedad	80
47173	7	Sololá	701	Sololá	1	Sololá	9	Septiembre	2023-09-14T00:00:00	2024-11-08T11:00:00	6	Velocidad del viento	0
47174	7	Sololá	701	Sololá	1	Sololá	9	Septiembre	2023-09-14T00:00:00	2024-11-08T11:00:00	7	Dirección del viento	0
47175	7	Sololá	701	Sololá	1	Sololá	9	Septiembre	2023-09-14T00:00:00	2024-11-08T11:00:00	1	Precipitación	0
47176	7	Sololá	701	Sololá	1	Sololá	9	Septiembre	2023-09-14T00:00:00	2024-11-08T11:00:00	8	Radiación solar	304
47177	7	Sololá	701	Sololá	1	Sololá	9	Septiembre	2023-09-14T00:00:00	2024-11-08T12:00:00	2	Temperatura media	20.8
47178	7	Sololá	701	Sololá	1	Sololá	9	Septiembre	2023-09-14T00:00:00	2024-11-08T12:00:00	4	Temperatura máxima	21.1
47179	7	Sololá	701	Sololá	1	Sololá	9	Septiembre	2023-09-14T00:00:00	2024-11-08T12:00:00	3	Temperatura mínima	20.4
47180	7	Sololá	701	Sololá	1	Sololá	9	Septiembre	2023-09-14T00:00:00	2024-11-08T12:00:00	5	Humedad	76
47181	7	Sololá	701	Sololá	1	Sololá	9	Septiembre	2023-09-14T00:00:00	2024-11-08T12:00:00	6	Velocidad del viento	0
47182	7	Sololá	701	Sololá	1	Sololá	9	Septiembre	2023-09-14T00:00:00	2024-11-08T12:00:00	7	Dirección del viento	0
47183	7	Sololá	701	Sololá	1	Sololá	9	Septiembre	2023-09-14T00:00:00	2024-11-08T12:00:00	1	Precipitación	0
47184	7	Sololá	701	Sololá	1	Sololá	9	Septiembre	2023-09-14T00:00:00	2024-11-08T12:00:00	8	Radiación solar	199
47185	7	Sololá	701	Sololá	1	Sololá	9	Septiembre	2023-09-14T00:00:00	2024-11-08T13:00:00	2	Temperatura media	22
47186	7	Sololá	701	Sololá	1	Sololá	9	Septiembre	2023-09-14T00:00:00	2024-11-08T13:00:00	4	Temperatura máxima	22.3
47187	7	Sololá	701	Sololá	1	Sololá	9	Septiembre	2023-09-14T00:00:00	2024-11-08T13:00:00	3	Temperatura mínima	20.8
47188	7	Sololá	701	Sololá	1	Sololá	9	Septiembre	2023-09-14T00:00:00	2024-11-08T13:00:00	5	Humedad	75
47189	7	Sololá	701	Sololá	1	Sololá	9	Septiembre	2023-09-14T00:00:00	2024-11-08T13:00:00	6	Velocidad del viento	0
47190	7	Sololá	701	Sololá	1	Sololá	9	Septiembre	2023-09-14T00:00:00	2024-11-08T13:00:00	7	Dirección del viento	0
47191	7	Sololá	701	Sololá	1	Sololá	9	Septiembre	2023-09-14T00:00:00	2024-11-08T13:00:00	1	Precipitación	0
47192	7	Sololá	701	Sololá	1	Sololá	9	Septiembre	2023-09-14T00:00:00	2024-11-08T13:00:00	8	Radiación solar	160
47193	7	Sololá	701	Sololá	1	Sololá	9	Septiembre	2023-09-14T00:00:00	2024-11-08T14:00:00	2	Temperatura media	21.6
47194	7	Sololá	701	Sololá	1	Sololá	9	Septiembre	2023-09-14T00:00:00	2024-11-08T14:00:00	4	Temperatura máxima	22.4
47195	7	Sololá	701	Sololá	1	Sololá	9	Septiembre	2023-09-14T00:00:00	2024-11-08T14:00:00	3	Temperatura mínima	21.6
47196	7	Sololá	701	Sololá	1	Sololá	9	Septiembre	2023-09-14T00:00:00	2024-11-08T14:00:00	5	Humedad	82
47197	7	Sololá	701	Sololá	1	Sololá	9	Septiembre	2023-09-14T00:00:00	2024-11-08T14:00:00	6	Velocidad del viento	0
47198	7	Sololá	701	Sololá	1	Sololá	9	Septiembre	2023-09-14T00:00:00	2024-11-08T14:00:00	7	Dirección del viento	0
47199	7	Sololá	701	Sololá	1	Sololá	9	Septiembre	2023-09-14T00:00:00	2024-11-08T14:00:00	1	Precipitación	0
47200	7	Sololá	701	Sololá	1	Sololá	9	Septiembre	2023-09-14T00:00:00	2024-11-08T14:00:00	8	Radiación solar	167
47201	7	Sololá	701	Sololá	1	Sololá	9	Septiembre	2023-09-14T00:00:00	2024-11-08T15:00:00	2	Temperatura media	19.1
47202	7	Sololá	701	Sololá	1	Sololá	9	Septiembre	2023-09-14T00:00:00	2024-11-08T15:00:00	4	Temperatura máxima	21.6
47203	7	Sololá	701	Sololá	1	Sololá	9	Septiembre	2023-09-14T00:00:00	2024-11-08T15:00:00	3	Temperatura mínima	19.1
47204	7	Sololá	701	Sololá	1	Sololá	9	Septiembre	2023-09-14T00:00:00	2024-11-08T15:00:00	5	Humedad	91
47205	7	Sololá	701	Sololá	1	Sololá	9	Septiembre	2023-09-14T00:00:00	2024-11-08T15:00:00	6	Velocidad del viento	0
47206	7	Sololá	701	Sololá	1	Sololá	9	Septiembre	2023-09-14T00:00:00	2024-11-08T15:00:00	7	Dirección del viento	0
47207	7	Sololá	701	Sololá	1	Sololá	9	Septiembre	2023-09-14T00:00:00	2024-11-08T15:00:00	1	Precipitación	0
47208	7	Sololá	701	Sololá	1	Sololá	9	Septiembre	2023-09-14T00:00:00	2024-11-08T15:00:00	8	Radiación solar	43
47209	7	Sololá	701	Sololá	1	Sololá	9	Septiembre	2023-09-14T00:00:00	2024-11-08T16:00:00	2	Temperatura media	18.6
47210	7	Sololá	701	Sololá	1	Sololá	9	Septiembre	2023-09-14T00:00:00	2024-11-08T16:00:00	4	Temperatura máxima	19.3
47211	7	Sololá	701	Sololá	1	Sololá	9	Septiembre	2023-09-14T00:00:00	2024-11-08T16:00:00	3	Temperatura mínima	18.5
47212	7	Sololá	701	Sololá	1	Sololá	9	Septiembre	2023-09-14T00:00:00	2024-11-08T16:00:00	5	Humedad	89
47213	7	Sololá	701	Sololá	1	Sololá	9	Septiembre	2023-09-14T00:00:00	2024-11-08T16:00:00	6	Velocidad del viento	0
47214	7	Sololá	701	Sololá	1	Sololá	9	Septiembre	2023-09-14T00:00:00	2024-11-08T16:00:00	7	Dirección del viento	0
47215	7	Sololá	701	Sololá	1	Sololá	9	Septiembre	2023-09-14T00:00:00	2024-11-08T16:00:00	1	Precipitación	0
47216	7	Sololá	701	Sololá	1	Sololá	9	Septiembre	2023-09-14T00:00:00	2024-11-08T16:00:00	8	Radiación solar	90
47217	7	Sololá	701	Sololá	1	Sololá	9	Septiembre	2023-09-14T00:00:00	2024-11-08T17:00:00	2	Temperatura media	18.1
47218	7	Sololá	701	Sololá	1	Sololá	9	Septiembre	2023-09-14T00:00:00	2024-11-08T17:00:00	4	Temperatura máxima	18.7
47219	7	Sololá	701	Sololá	1	Sololá	9	Septiembre	2023-09-14T00:00:00	2024-11-08T17:00:00	3	Temperatura mínima	18.1
47220	7	Sololá	701	Sololá	1	Sololá	9	Septiembre	2023-09-14T00:00:00	2024-11-08T17:00:00	5	Humedad	90
47221	7	Sololá	701	Sololá	1	Sololá	9	Septiembre	2023-09-14T00:00:00	2024-11-08T17:00:00	6	Velocidad del viento	0
47222	7	Sololá	701	Sololá	1	Sololá	9	Septiembre	2023-09-14T00:00:00	2024-11-08T17:00:00	7	Dirección del viento	0
47223	7	Sololá	701	Sololá	1	Sololá	9	Septiembre	2023-09-14T00:00:00	2024-11-08T17:00:00	1	Precipitación	0
47224	7	Sololá	701	Sololá	1	Sololá	9	Septiembre	2023-09-14T00:00:00	2024-11-08T17:00:00	8	Radiación solar	62
47225	7	Sololá	701	Sololá	1	Sololá	9	Septiembre	2023-09-14T00:00:00	2024-11-08T18:00:00	2	Temperatura media	17.9
47226	7	Sololá	701	Sololá	1	Sololá	9	Septiembre	2023-09-14T00:00:00	2024-11-08T18:00:00	4	Temperatura máxima	18.2
47227	7	Sololá	701	Sololá	1	Sololá	9	Septiembre	2023-09-14T00:00:00	2024-11-08T18:00:00	3	Temperatura mínima	17.9
47228	7	Sololá	701	Sololá	1	Sololá	9	Septiembre	2023-09-14T00:00:00	2024-11-08T18:00:00	5	Humedad	93
47229	7	Sololá	701	Sololá	1	Sololá	9	Septiembre	2023-09-14T00:00:00	2024-11-08T18:00:00	6	Velocidad del viento	0
47230	7	Sololá	701	Sololá	1	Sololá	9	Septiembre	2023-09-14T00:00:00	2024-11-08T18:00:00	7	Dirección del viento	0
47231	7	Sololá	701	Sololá	1	Sololá	9	Septiembre	2023-09-14T00:00:00	2024-11-08T18:00:00	1	Precipitación	0
47232	7	Sololá	701	Sololá	1	Sololá	9	Septiembre	2023-09-14T00:00:00	2024-11-08T18:00:00	8	Radiación solar	12
47233	7	Sololá	701	Sololá	1	Sololá	9	Septiembre	2023-09-14T00:00:00	2024-11-08T19:00:00	2	Temperatura media	17.2
47234	7	Sololá	701	Sololá	1	Sololá	9	Septiembre	2023-09-14T00:00:00	2024-11-08T19:00:00	4	Temperatura máxima	17.9
47235	7	Sololá	701	Sololá	1	Sololá	9	Septiembre	2023-09-14T00:00:00	2024-11-08T19:00:00	3	Temperatura mínima	17.2
47236	7	Sololá	701	Sololá	1	Sololá	9	Septiembre	2023-09-14T00:00:00	2024-11-08T19:00:00	5	Humedad	93
47237	7	Sololá	701	Sololá	1	Sololá	9	Septiembre	2023-09-14T00:00:00	2024-11-08T19:00:00	6	Velocidad del viento	0
47238	7	Sololá	701	Sololá	1	Sololá	9	Septiembre	2023-09-14T00:00:00	2024-11-08T19:00:00	7	Dirección del viento	0
47239	7	Sololá	701	Sololá	1	Sololá	9	Septiembre	2023-09-14T00:00:00	2024-11-08T19:00:00	1	Precipitación	0
47240	7	Sololá	701	Sololá	1	Sololá	9	Septiembre	2023-09-14T00:00:00	2024-11-08T19:00:00	8	Radiación solar	0
47241	7	Sololá	701	Sololá	1	Sololá	9	Septiembre	2023-09-14T00:00:00	2024-11-08T20:00:00	2	Temperatura media	16.1
47242	7	Sololá	701	Sololá	1	Sololá	9	Septiembre	2023-09-14T00:00:00	2024-11-08T20:00:00	4	Temperatura máxima	17.2
47243	7	Sololá	701	Sololá	1	Sololá	9	Septiembre	2023-09-14T00:00:00	2024-11-08T20:00:00	3	Temperatura mínima	16.1
47244	7	Sololá	701	Sololá	1	Sololá	9	Septiembre	2023-09-14T00:00:00	2024-11-08T20:00:00	5	Humedad	92
47245	7	Sololá	701	Sololá	1	Sololá	9	Septiembre	2023-09-14T00:00:00	2024-11-08T20:00:00	6	Velocidad del viento	0
47246	7	Sololá	701	Sololá	1	Sololá	9	Septiembre	2023-09-14T00:00:00	2024-11-08T20:00:00	7	Dirección del viento	0
47247	7	Sololá	701	Sololá	1	Sololá	9	Septiembre	2023-09-14T00:00:00	2024-11-08T20:00:00	1	Precipitación	0
47248	7	Sololá	701	Sololá	1	Sololá	9	Septiembre	2023-09-14T00:00:00	2024-11-08T20:00:00	8	Radiación solar	0
47249	7	Sololá	701	Sololá	1	Sololá	9	Septiembre	2023-09-14T00:00:00	2024-11-08T21:00:00	2	Temperatura media	15.8
47250	7	Sololá	701	Sololá	1	Sololá	9	Septiembre	2023-09-14T00:00:00	2024-11-08T21:00:00	4	Temperatura máxima	16.1
47251	7	Sololá	701	Sololá	1	Sololá	9	Septiembre	2023-09-14T00:00:00	2024-11-08T21:00:00	3	Temperatura mínima	15.8
47252	7	Sololá	701	Sololá	1	Sololá	9	Septiembre	2023-09-14T00:00:00	2024-11-08T21:00:00	5	Humedad	93
47253	7	Sololá	701	Sololá	1	Sololá	9	Septiembre	2023-09-14T00:00:00	2024-11-08T21:00:00	6	Velocidad del viento	0
47254	7	Sololá	701	Sololá	1	Sololá	9	Septiembre	2023-09-14T00:00:00	2024-11-08T21:00:00	7	Dirección del viento	0
47255	7	Sololá	701	Sololá	1	Sololá	9	Septiembre	2023-09-14T00:00:00	2024-11-08T21:00:00	1	Precipitación	0
47256	7	Sololá	701	Sololá	1	Sololá	9	Septiembre	2023-09-14T00:00:00	2024-11-08T21:00:00	8	Radiación solar	0
47257	7	Sololá	701	Sololá	1	Sololá	9	Septiembre	2023-09-14T00:00:00	2024-11-08T22:00:00	2	Temperatura media	16.3
47258	7	Sololá	701	Sololá	1	Sololá	9	Septiembre	2023-09-14T00:00:00	2024-11-08T22:00:00	4	Temperatura máxima	16.3
47259	7	Sololá	701	Sololá	1	Sololá	9	Septiembre	2023-09-14T00:00:00	2024-11-08T22:00:00	3	Temperatura mínima	15.8
47260	7	Sololá	701	Sololá	1	Sololá	9	Septiembre	2023-09-14T00:00:00	2024-11-08T22:00:00	5	Humedad	92
47261	7	Sololá	701	Sololá	1	Sololá	9	Septiembre	2023-09-14T00:00:00	2024-11-08T22:00:00	6	Velocidad del viento	0
47262	7	Sololá	701	Sololá	1	Sololá	9	Septiembre	2023-09-14T00:00:00	2024-11-08T22:00:00	7	Dirección del viento	0
47263	7	Sololá	701	Sololá	1	Sololá	9	Septiembre	2023-09-14T00:00:00	2024-11-08T22:00:00	1	Precipitación	0
47264	7	Sololá	701	Sololá	1	Sololá	9	Septiembre	2023-09-14T00:00:00	2024-11-08T22:00:00	8	Radiación solar	0
47265	7	Sololá	701	Sololá	1	Sololá	9	Septiembre	2023-09-14T00:00:00	2024-11-08T23:00:00	2	Temperatura media	16.1
47266	7	Sololá	701	Sololá	1	Sololá	9	Septiembre	2023-09-14T00:00:00	2024-11-08T23:00:00	4	Temperatura máxima	16.6
47267	7	Sololá	701	Sololá	1	Sololá	9	Septiembre	2023-09-14T00:00:00	2024-11-08T23:00:00	3	Temperatura mínima	16.1
47268	7	Sololá	701	Sololá	1	Sololá	9	Septiembre	2023-09-14T00:00:00	2024-11-08T23:00:00	5	Humedad	92
47269	7	Sololá	701	Sololá	1	Sololá	9	Septiembre	2023-09-14T00:00:00	2024-11-08T23:00:00	6	Velocidad del viento	0
47270	7	Sololá	701	Sololá	1	Sololá	9	Septiembre	2023-09-14T00:00:00	2024-11-08T23:00:00	7	Dirección del viento	0
47271	7	Sololá	701	Sololá	1	Sololá	9	Septiembre	2023-09-14T00:00:00	2024-11-08T23:00:00	1	Precipitación	0
47272	7	Sololá	701	Sololá	1	Sololá	9	Septiembre	2023-09-14T00:00:00	2024-11-08T23:00:00	8	Radiación solar	0
47273	7	Sololá	701	Sololá	1	Sololá	9	Septiembre	2023-09-15T00:00:00	2024-11-08T00:00:00	2	Temperatura media	15.5
47274	7	Sololá	701	Sololá	1	Sololá	9	Septiembre	2023-09-15T00:00:00	2024-11-08T00:00:00	4	Temperatura máxima	16.1
47275	7	Sololá	701	Sololá	1	Sololá	9	Septiembre	2023-09-15T00:00:00	2024-11-08T00:00:00	3	Temperatura mínima	15.5
47276	7	Sololá	701	Sololá	1	Sololá	9	Septiembre	2023-09-15T00:00:00	2024-11-08T00:00:00	5	Humedad	93
47277	7	Sololá	701	Sololá	1	Sololá	9	Septiembre	2023-09-15T00:00:00	2024-11-08T00:00:00	6	Velocidad del viento	0
47278	7	Sololá	701	Sololá	1	Sololá	9	Septiembre	2023-09-15T00:00:00	2024-11-08T00:00:00	7	Dirección del viento	0
47279	7	Sololá	701	Sololá	1	Sololá	9	Septiembre	2023-09-15T00:00:00	2024-11-08T00:00:00	1	Precipitación	0
47280	7	Sololá	701	Sololá	1	Sololá	9	Septiembre	2023-09-15T00:00:00	2024-11-08T00:00:00	8	Radiación solar	0
47281	7	Sololá	701	Sololá	1	Sololá	9	Septiembre	2023-09-15T00:00:00	2024-11-08T01:00:00	2	Temperatura media	14.9
47282	7	Sololá	701	Sololá	1	Sololá	9	Septiembre	2023-09-15T00:00:00	2024-11-08T01:00:00	4	Temperatura máxima	15.6
47283	7	Sololá	701	Sololá	1	Sololá	9	Septiembre	2023-09-15T00:00:00	2024-11-08T01:00:00	3	Temperatura mínima	14.9
47284	7	Sololá	701	Sololá	1	Sololá	9	Septiembre	2023-09-15T00:00:00	2024-11-08T01:00:00	5	Humedad	92
47285	7	Sololá	701	Sololá	1	Sololá	9	Septiembre	2023-09-15T00:00:00	2024-11-08T01:00:00	6	Velocidad del viento	0
47286	7	Sololá	701	Sololá	1	Sololá	9	Septiembre	2023-09-15T00:00:00	2024-11-08T01:00:00	7	Dirección del viento	0
47287	7	Sololá	701	Sololá	1	Sololá	9	Septiembre	2023-09-15T00:00:00	2024-11-08T01:00:00	1	Precipitación	0
47288	7	Sololá	701	Sololá	1	Sololá	9	Septiembre	2023-09-15T00:00:00	2024-11-08T01:00:00	8	Radiación solar	0
47289	7	Sololá	701	Sololá	1	Sololá	9	Septiembre	2023-09-15T00:00:00	2024-11-08T02:00:00	2	Temperatura media	14.4
47290	7	Sololá	701	Sololá	1	Sololá	9	Septiembre	2023-09-15T00:00:00	2024-11-08T02:00:00	4	Temperatura máxima	14.9
47291	7	Sololá	701	Sololá	1	Sololá	9	Septiembre	2023-09-15T00:00:00	2024-11-08T02:00:00	3	Temperatura mínima	14.4
47292	7	Sololá	701	Sololá	1	Sololá	9	Septiembre	2023-09-15T00:00:00	2024-11-08T02:00:00	5	Humedad	93
47293	7	Sololá	701	Sololá	1	Sololá	9	Septiembre	2023-09-15T00:00:00	2024-11-08T02:00:00	6	Velocidad del viento	0
47294	7	Sololá	701	Sololá	1	Sololá	9	Septiembre	2023-09-15T00:00:00	2024-11-08T02:00:00	7	Dirección del viento	0
47295	7	Sololá	701	Sololá	1	Sololá	9	Septiembre	2023-09-15T00:00:00	2024-11-08T02:00:00	1	Precipitación	0
47296	7	Sololá	701	Sololá	1	Sololá	9	Septiembre	2023-09-15T00:00:00	2024-11-08T02:00:00	8	Radiación solar	0
47297	7	Sololá	701	Sololá	1	Sololá	9	Septiembre	2023-09-15T00:00:00	2024-11-08T03:00:00	2	Temperatura media	13.9
47298	7	Sololá	701	Sololá	1	Sololá	9	Septiembre	2023-09-15T00:00:00	2024-11-08T03:00:00	4	Temperatura máxima	14.5
47299	7	Sololá	701	Sololá	1	Sololá	9	Septiembre	2023-09-15T00:00:00	2024-11-08T03:00:00	3	Temperatura mínima	13.9
47300	7	Sololá	701	Sololá	1	Sololá	9	Septiembre	2023-09-15T00:00:00	2024-11-08T03:00:00	5	Humedad	93
47301	7	Sololá	701	Sololá	1	Sololá	9	Septiembre	2023-09-15T00:00:00	2024-11-08T03:00:00	6	Velocidad del viento	0
47302	7	Sololá	701	Sololá	1	Sololá	9	Septiembre	2023-09-15T00:00:00	2024-11-08T03:00:00	7	Dirección del viento	0
47303	7	Sololá	701	Sololá	1	Sololá	9	Septiembre	2023-09-15T00:00:00	2024-11-08T03:00:00	1	Precipitación	0
47304	7	Sololá	701	Sololá	1	Sololá	9	Septiembre	2023-09-15T00:00:00	2024-11-08T03:00:00	8	Radiación solar	0
47305	7	Sololá	701	Sololá	1	Sololá	9	Septiembre	2023-09-15T00:00:00	2024-11-08T04:00:00	2	Temperatura media	13.4
47306	7	Sololá	701	Sololá	1	Sololá	9	Septiembre	2023-09-15T00:00:00	2024-11-08T04:00:00	4	Temperatura máxima	13.9
47307	7	Sololá	701	Sololá	1	Sololá	9	Septiembre	2023-09-15T00:00:00	2024-11-08T04:00:00	3	Temperatura mínima	13.3
47308	7	Sololá	701	Sololá	1	Sololá	9	Septiembre	2023-09-15T00:00:00	2024-11-08T04:00:00	5	Humedad	94
47309	7	Sololá	701	Sololá	1	Sololá	9	Septiembre	2023-09-15T00:00:00	2024-11-08T04:00:00	6	Velocidad del viento	0
47310	7	Sololá	701	Sololá	1	Sololá	9	Septiembre	2023-09-15T00:00:00	2024-11-08T04:00:00	7	Dirección del viento	0
47311	7	Sololá	701	Sololá	1	Sololá	9	Septiembre	2023-09-15T00:00:00	2024-11-08T04:00:00	1	Precipitación	0
47312	7	Sololá	701	Sololá	1	Sololá	9	Septiembre	2023-09-15T00:00:00	2024-11-08T04:00:00	8	Radiación solar	0
47313	7	Sololá	701	Sololá	1	Sololá	9	Septiembre	2023-09-15T00:00:00	2024-11-08T05:00:00	2	Temperatura media	13.2
47314	7	Sololá	701	Sololá	1	Sololá	9	Septiembre	2023-09-15T00:00:00	2024-11-08T05:00:00	4	Temperatura máxima	13.4
47315	7	Sololá	701	Sololá	1	Sololá	9	Septiembre	2023-09-15T00:00:00	2024-11-08T05:00:00	3	Temperatura mínima	13.2
47316	7	Sololá	701	Sololá	1	Sololá	9	Septiembre	2023-09-15T00:00:00	2024-11-08T05:00:00	5	Humedad	95
47317	7	Sololá	701	Sololá	1	Sololá	9	Septiembre	2023-09-15T00:00:00	2024-11-08T05:00:00	6	Velocidad del viento	0
47318	7	Sololá	701	Sololá	1	Sololá	9	Septiembre	2023-09-15T00:00:00	2024-11-08T05:00:00	7	Dirección del viento	0
47319	7	Sololá	701	Sololá	1	Sololá	9	Septiembre	2023-09-15T00:00:00	2024-11-08T05:00:00	1	Precipitación	0
47320	7	Sololá	701	Sololá	1	Sololá	9	Septiembre	2023-09-15T00:00:00	2024-11-08T05:00:00	8	Radiación solar	0
47321	7	Sololá	701	Sololá	1	Sololá	9	Septiembre	2023-09-15T00:00:00	2024-11-08T06:00:00	2	Temperatura media	13.1
47322	7	Sololá	701	Sololá	1	Sololá	9	Septiembre	2023-09-15T00:00:00	2024-11-08T06:00:00	4	Temperatura máxima	13.2
47323	7	Sololá	701	Sololá	1	Sololá	9	Septiembre	2023-09-15T00:00:00	2024-11-08T06:00:00	3	Temperatura mínima	12.9
47324	7	Sololá	701	Sololá	1	Sololá	9	Septiembre	2023-09-15T00:00:00	2024-11-08T06:00:00	5	Humedad	95
47325	7	Sololá	701	Sololá	1	Sololá	9	Septiembre	2023-09-15T00:00:00	2024-11-08T06:00:00	6	Velocidad del viento	0
47326	7	Sololá	701	Sololá	1	Sololá	9	Septiembre	2023-09-15T00:00:00	2024-11-08T06:00:00	7	Dirección del viento	0
47327	7	Sololá	701	Sololá	1	Sololá	9	Septiembre	2023-09-15T00:00:00	2024-11-08T06:00:00	1	Precipitación	0
47328	7	Sololá	701	Sololá	1	Sololá	9	Septiembre	2023-09-15T00:00:00	2024-11-08T06:00:00	8	Radiación solar	0
47329	7	Sololá	701	Sololá	1	Sololá	9	Septiembre	2023-09-15T00:00:00	2024-11-08T07:00:00	2	Temperatura media	13.3
47330	7	Sololá	701	Sololá	1	Sololá	9	Septiembre	2023-09-15T00:00:00	2024-11-08T07:00:00	4	Temperatura máxima	13.3
47331	7	Sololá	701	Sololá	1	Sololá	9	Septiembre	2023-09-15T00:00:00	2024-11-08T07:00:00	3	Temperatura mínima	13.1
47332	7	Sololá	701	Sololá	1	Sololá	9	Septiembre	2023-09-15T00:00:00	2024-11-08T07:00:00	5	Humedad	94
47333	7	Sololá	701	Sololá	1	Sololá	9	Septiembre	2023-09-15T00:00:00	2024-11-08T07:00:00	6	Velocidad del viento	0
47334	7	Sololá	701	Sololá	1	Sololá	9	Septiembre	2023-09-15T00:00:00	2024-11-08T07:00:00	7	Dirección del viento	0
47335	7	Sololá	701	Sololá	1	Sololá	9	Septiembre	2023-09-15T00:00:00	2024-11-08T07:00:00	1	Precipitación	0
47336	7	Sololá	701	Sololá	1	Sololá	9	Septiembre	2023-09-15T00:00:00	2024-11-08T07:00:00	8	Radiación solar	24
47337	7	Sololá	701	Sololá	1	Sololá	9	Septiembre	2023-09-15T00:00:00	2024-11-08T08:00:00	2	Temperatura media	15.9
47338	7	Sololá	701	Sololá	1	Sololá	9	Septiembre	2023-09-15T00:00:00	2024-11-08T08:00:00	4	Temperatura máxima	15.9
47339	7	Sololá	701	Sololá	1	Sololá	9	Septiembre	2023-09-15T00:00:00	2024-11-08T08:00:00	3	Temperatura mínima	13.3
47340	7	Sololá	701	Sololá	1	Sololá	9	Septiembre	2023-09-15T00:00:00	2024-11-08T08:00:00	5	Humedad	92
47341	7	Sololá	701	Sololá	1	Sololá	9	Septiembre	2023-09-15T00:00:00	2024-11-08T08:00:00	6	Velocidad del viento	0
47342	7	Sololá	701	Sololá	1	Sololá	9	Septiembre	2023-09-15T00:00:00	2024-11-08T08:00:00	7	Dirección del viento	0
47343	7	Sololá	701	Sololá	1	Sololá	9	Septiembre	2023-09-15T00:00:00	2024-11-08T08:00:00	1	Precipitación	0
47344	7	Sololá	701	Sololá	1	Sololá	9	Septiembre	2023-09-15T00:00:00	2024-11-08T08:00:00	8	Radiación solar	103
47345	7	Sololá	701	Sololá	1	Sololá	9	Septiembre	2023-09-15T00:00:00	2024-11-08T09:00:00	2	Temperatura media	20.2
47346	7	Sololá	701	Sololá	1	Sololá	9	Septiembre	2023-09-15T00:00:00	2024-11-08T09:00:00	4	Temperatura máxima	20.2
47347	7	Sololá	701	Sololá	1	Sololá	9	Septiembre	2023-09-15T00:00:00	2024-11-08T09:00:00	3	Temperatura mínima	15.9
47348	7	Sololá	701	Sololá	1	Sololá	9	Septiembre	2023-09-15T00:00:00	2024-11-08T09:00:00	5	Humedad	79
47349	7	Sololá	701	Sololá	1	Sololá	9	Septiembre	2023-09-15T00:00:00	2024-11-08T09:00:00	6	Velocidad del viento	0
47350	7	Sololá	701	Sololá	1	Sololá	9	Septiembre	2023-09-15T00:00:00	2024-11-08T09:00:00	7	Dirección del viento	0
47351	7	Sololá	701	Sololá	1	Sololá	9	Septiembre	2023-09-15T00:00:00	2024-11-08T09:00:00	1	Precipitación	0
47352	7	Sololá	701	Sololá	1	Sololá	9	Septiembre	2023-09-15T00:00:00	2024-11-08T09:00:00	8	Radiación solar	593
47353	7	Sololá	701	Sololá	1	Sololá	9	Septiembre	2023-09-15T00:00:00	2024-11-08T10:00:00	2	Temperatura media	19.9
47354	7	Sololá	701	Sololá	1	Sololá	9	Septiembre	2023-09-15T00:00:00	2024-11-08T10:00:00	4	Temperatura máxima	20.9
47355	7	Sololá	701	Sololá	1	Sololá	9	Septiembre	2023-09-15T00:00:00	2024-11-08T10:00:00	3	Temperatura mínima	19.9
47356	7	Sololá	701	Sololá	1	Sololá	9	Septiembre	2023-09-15T00:00:00	2024-11-08T10:00:00	5	Humedad	77
47357	7	Sololá	701	Sololá	1	Sololá	9	Septiembre	2023-09-15T00:00:00	2024-11-08T10:00:00	6	Velocidad del viento	0
47358	7	Sololá	701	Sololá	1	Sololá	9	Septiembre	2023-09-15T00:00:00	2024-11-08T10:00:00	7	Dirección del viento	0
47359	7	Sololá	701	Sololá	1	Sololá	9	Septiembre	2023-09-15T00:00:00	2024-11-08T10:00:00	1	Precipitación	0
47360	7	Sololá	701	Sololá	1	Sololá	9	Septiembre	2023-09-15T00:00:00	2024-11-08T10:00:00	8	Radiación solar	266
47361	7	Sololá	701	Sololá	1	Sololá	9	Septiembre	2023-09-15T00:00:00	2024-11-08T11:00:00	2	Temperatura media	21.1
47362	7	Sololá	701	Sololá	1	Sololá	9	Septiembre	2023-09-15T00:00:00	2024-11-08T11:00:00	4	Temperatura máxima	21.3
47363	7	Sololá	701	Sololá	1	Sololá	9	Septiembre	2023-09-15T00:00:00	2024-11-08T11:00:00	3	Temperatura mínima	19.8
47364	7	Sololá	701	Sololá	1	Sololá	9	Septiembre	2023-09-15T00:00:00	2024-11-08T11:00:00	5	Humedad	74
47365	7	Sololá	701	Sololá	1	Sololá	9	Septiembre	2023-09-15T00:00:00	2024-11-08T11:00:00	6	Velocidad del viento	0
47366	7	Sololá	701	Sololá	1	Sololá	9	Septiembre	2023-09-15T00:00:00	2024-11-08T11:00:00	7	Dirección del viento	0
47367	7	Sololá	701	Sololá	1	Sololá	9	Septiembre	2023-09-15T00:00:00	2024-11-08T11:00:00	1	Precipitación	0
47368	7	Sololá	701	Sololá	1	Sololá	9	Septiembre	2023-09-15T00:00:00	2024-11-08T11:00:00	8	Radiación solar	284
47369	7	Sololá	701	Sololá	1	Sololá	9	Septiembre	2023-09-15T00:00:00	2024-11-08T12:00:00	2	Temperatura media	21.5
47370	7	Sololá	701	Sololá	1	Sololá	9	Septiembre	2023-09-15T00:00:00	2024-11-08T12:00:00	4	Temperatura máxima	21.7
47371	7	Sololá	701	Sololá	1	Sololá	9	Septiembre	2023-09-15T00:00:00	2024-11-08T12:00:00	3	Temperatura mínima	20.8
47372	7	Sololá	701	Sololá	1	Sololá	9	Septiembre	2023-09-15T00:00:00	2024-11-08T12:00:00	5	Humedad	73
47373	7	Sololá	701	Sololá	1	Sololá	9	Septiembre	2023-09-15T00:00:00	2024-11-08T12:00:00	6	Velocidad del viento	0
47374	7	Sololá	701	Sololá	1	Sololá	9	Septiembre	2023-09-15T00:00:00	2024-11-08T12:00:00	7	Dirección del viento	0
47375	7	Sololá	701	Sololá	1	Sololá	9	Septiembre	2023-09-15T00:00:00	2024-11-08T12:00:00	1	Precipitación	0
47376	7	Sololá	701	Sololá	1	Sololá	9	Septiembre	2023-09-15T00:00:00	2024-11-08T12:00:00	8	Radiación solar	158
47377	7	Sololá	701	Sololá	1	Sololá	9	Septiembre	2023-09-15T00:00:00	2024-11-08T13:00:00	2	Temperatura media	22.2
47378	7	Sololá	701	Sololá	1	Sololá	9	Septiembre	2023-09-15T00:00:00	2024-11-08T13:00:00	4	Temperatura máxima	22.3
47379	7	Sololá	701	Sololá	1	Sololá	9	Septiembre	2023-09-15T00:00:00	2024-11-08T13:00:00	3	Temperatura mínima	21.3
47380	7	Sololá	701	Sololá	1	Sololá	9	Septiembre	2023-09-15T00:00:00	2024-11-08T13:00:00	5	Humedad	78
47381	7	Sololá	701	Sololá	1	Sololá	9	Septiembre	2023-09-15T00:00:00	2024-11-08T13:00:00	6	Velocidad del viento	0
47382	7	Sololá	701	Sololá	1	Sololá	9	Septiembre	2023-09-15T00:00:00	2024-11-08T13:00:00	7	Dirección del viento	0
47383	7	Sololá	701	Sololá	1	Sololá	9	Septiembre	2023-09-15T00:00:00	2024-11-08T13:00:00	1	Precipitación	0
47384	7	Sololá	701	Sololá	1	Sololá	9	Septiembre	2023-09-15T00:00:00	2024-11-08T13:00:00	8	Radiación solar	169
47385	7	Sololá	701	Sololá	1	Sololá	9	Septiembre	2023-09-15T00:00:00	2024-11-08T14:00:00	2	Temperatura media	20.2
47386	7	Sololá	701	Sololá	1	Sololá	9	Septiembre	2023-09-15T00:00:00	2024-11-08T14:00:00	4	Temperatura máxima	22.4
47387	7	Sololá	701	Sololá	1	Sololá	9	Septiembre	2023-09-15T00:00:00	2024-11-08T14:00:00	3	Temperatura mínima	20.2
47388	7	Sololá	701	Sololá	1	Sololá	9	Septiembre	2023-09-15T00:00:00	2024-11-08T14:00:00	5	Humedad	86
47389	7	Sololá	701	Sololá	1	Sololá	9	Septiembre	2023-09-15T00:00:00	2024-11-08T14:00:00	6	Velocidad del viento	0
47390	7	Sololá	701	Sololá	1	Sololá	9	Septiembre	2023-09-15T00:00:00	2024-11-08T14:00:00	7	Dirección del viento	0
47391	7	Sololá	701	Sololá	1	Sololá	9	Septiembre	2023-09-15T00:00:00	2024-11-08T14:00:00	1	Precipitación	0
47392	7	Sololá	701	Sololá	1	Sololá	9	Septiembre	2023-09-15T00:00:00	2024-11-08T14:00:00	8	Radiación solar	125
47393	7	Sololá	701	Sololá	1	Sololá	9	Septiembre	2023-09-15T00:00:00	2024-11-08T15:00:00	2	Temperatura media	18.1
47394	7	Sololá	701	Sololá	1	Sololá	9	Septiembre	2023-09-15T00:00:00	2024-11-08T15:00:00	4	Temperatura máxima	20.2
47395	7	Sololá	701	Sololá	1	Sololá	9	Septiembre	2023-09-15T00:00:00	2024-11-08T15:00:00	3	Temperatura mínima	18.1
47396	7	Sololá	701	Sololá	1	Sololá	9	Septiembre	2023-09-15T00:00:00	2024-11-08T15:00:00	5	Humedad	92
47397	7	Sololá	701	Sololá	1	Sololá	9	Septiembre	2023-09-15T00:00:00	2024-11-08T15:00:00	6	Velocidad del viento	0
47398	7	Sololá	701	Sololá	1	Sololá	9	Septiembre	2023-09-15T00:00:00	2024-11-08T15:00:00	7	Dirección del viento	0
47399	7	Sololá	701	Sololá	1	Sololá	9	Septiembre	2023-09-15T00:00:00	2024-11-08T15:00:00	1	Precipitación	0
47400	7	Sololá	701	Sololá	1	Sololá	9	Septiembre	2023-09-15T00:00:00	2024-11-08T15:00:00	8	Radiación solar	20
47401	7	Sololá	701	Sololá	1	Sololá	9	Septiembre	2023-09-15T00:00:00	2024-11-08T16:00:00	2	Temperatura media	17.4
47402	7	Sololá	701	Sololá	1	Sololá	9	Septiembre	2023-09-15T00:00:00	2024-11-08T16:00:00	4	Temperatura máxima	18.1
47403	7	Sololá	701	Sololá	1	Sololá	9	Septiembre	2023-09-15T00:00:00	2024-11-08T16:00:00	3	Temperatura mínima	17.4
47404	7	Sololá	701	Sololá	1	Sololá	9	Septiembre	2023-09-15T00:00:00	2024-11-08T16:00:00	5	Humedad	95
47405	7	Sololá	701	Sololá	1	Sololá	9	Septiembre	2023-09-15T00:00:00	2024-11-08T16:00:00	6	Velocidad del viento	0
47406	7	Sololá	701	Sololá	1	Sololá	9	Septiembre	2023-09-15T00:00:00	2024-11-08T16:00:00	7	Dirección del viento	0
47407	7	Sololá	701	Sololá	1	Sololá	9	Septiembre	2023-09-15T00:00:00	2024-11-08T16:00:00	1	Precipitación	0
47408	7	Sololá	701	Sololá	1	Sololá	9	Septiembre	2023-09-15T00:00:00	2024-11-08T16:00:00	8	Radiación solar	25
47409	7	Sololá	701	Sololá	1	Sololá	9	Septiembre	2023-09-15T00:00:00	2024-11-08T17:00:00	2	Temperatura media	16.8
47410	7	Sololá	701	Sololá	1	Sololá	9	Septiembre	2023-09-15T00:00:00	2024-11-08T17:00:00	4	Temperatura máxima	17.4
47411	7	Sololá	701	Sololá	1	Sololá	9	Septiembre	2023-09-15T00:00:00	2024-11-08T17:00:00	3	Temperatura mínima	16.7
47412	7	Sololá	701	Sololá	1	Sololá	9	Septiembre	2023-09-15T00:00:00	2024-11-08T17:00:00	5	Humedad	95
47413	7	Sololá	701	Sololá	1	Sololá	9	Septiembre	2023-09-15T00:00:00	2024-11-08T17:00:00	6	Velocidad del viento	0
47414	7	Sololá	701	Sololá	1	Sololá	9	Septiembre	2023-09-15T00:00:00	2024-11-08T17:00:00	7	Dirección del viento	0
47415	7	Sololá	701	Sololá	1	Sololá	9	Septiembre	2023-09-15T00:00:00	2024-11-08T17:00:00	1	Precipitación	0
47416	7	Sololá	701	Sololá	1	Sololá	9	Septiembre	2023-09-15T00:00:00	2024-11-08T17:00:00	8	Radiación solar	17
47417	7	Sololá	701	Sololá	1	Sololá	9	Septiembre	2023-09-15T00:00:00	2024-11-08T18:00:00	2	Temperatura media	16.6
47418	7	Sololá	701	Sololá	1	Sololá	9	Septiembre	2023-09-15T00:00:00	2024-11-08T18:00:00	4	Temperatura máxima	16.8
47419	7	Sololá	701	Sololá	1	Sololá	9	Septiembre	2023-09-15T00:00:00	2024-11-08T18:00:00	3	Temperatura mínima	16.6
47420	7	Sololá	701	Sololá	1	Sololá	9	Septiembre	2023-09-15T00:00:00	2024-11-08T18:00:00	5	Humedad	95
47421	7	Sololá	701	Sololá	1	Sololá	9	Septiembre	2023-09-15T00:00:00	2024-11-08T18:00:00	6	Velocidad del viento	0
47422	7	Sololá	701	Sololá	1	Sololá	9	Septiembre	2023-09-15T00:00:00	2024-11-08T18:00:00	7	Dirección del viento	0
47423	7	Sololá	701	Sololá	1	Sololá	9	Septiembre	2023-09-15T00:00:00	2024-11-08T18:00:00	1	Precipitación	0
47424	7	Sololá	701	Sololá	1	Sololá	9	Septiembre	2023-09-15T00:00:00	2024-11-08T18:00:00	8	Radiación solar	9
47425	7	Sololá	701	Sololá	1	Sololá	9	Septiembre	2023-09-15T00:00:00	2024-11-08T19:00:00	2	Temperatura media	15.9
47426	7	Sololá	701	Sololá	1	Sololá	9	Septiembre	2023-09-15T00:00:00	2024-11-08T19:00:00	4	Temperatura máxima	16.6
47427	7	Sololá	701	Sololá	1	Sololá	9	Septiembre	2023-09-15T00:00:00	2024-11-08T19:00:00	3	Temperatura mínima	15.9
47428	7	Sololá	701	Sololá	1	Sololá	9	Septiembre	2023-09-15T00:00:00	2024-11-08T19:00:00	5	Humedad	94
47429	7	Sololá	701	Sololá	1	Sololá	9	Septiembre	2023-09-15T00:00:00	2024-11-08T19:00:00	6	Velocidad del viento	0
47430	7	Sololá	701	Sololá	1	Sololá	9	Septiembre	2023-09-15T00:00:00	2024-11-08T19:00:00	7	Dirección del viento	0
47431	7	Sololá	701	Sololá	1	Sololá	9	Septiembre	2023-09-15T00:00:00	2024-11-08T19:00:00	1	Precipitación	0
47432	7	Sololá	701	Sololá	1	Sololá	9	Septiembre	2023-09-15T00:00:00	2024-11-08T19:00:00	8	Radiación solar	0
47433	7	Sololá	701	Sololá	1	Sololá	9	Septiembre	2023-09-15T00:00:00	2024-11-08T20:00:00	2	Temperatura media	15.3
47434	7	Sololá	701	Sololá	1	Sololá	9	Septiembre	2023-09-15T00:00:00	2024-11-08T20:00:00	4	Temperatura máxima	15.9
47435	7	Sololá	701	Sololá	1	Sololá	9	Septiembre	2023-09-15T00:00:00	2024-11-08T20:00:00	3	Temperatura mínima	15.3
47436	7	Sololá	701	Sololá	1	Sololá	9	Septiembre	2023-09-15T00:00:00	2024-11-08T20:00:00	5	Humedad	94
47437	7	Sololá	701	Sololá	1	Sololá	9	Septiembre	2023-09-15T00:00:00	2024-11-08T20:00:00	6	Velocidad del viento	0
47438	7	Sololá	701	Sololá	1	Sololá	9	Septiembre	2023-09-15T00:00:00	2024-11-08T20:00:00	7	Dirección del viento	0
47439	7	Sololá	701	Sololá	1	Sololá	9	Septiembre	2023-09-15T00:00:00	2024-11-08T20:00:00	1	Precipitación	0
47440	7	Sololá	701	Sololá	1	Sololá	9	Septiembre	2023-09-15T00:00:00	2024-11-08T20:00:00	8	Radiación solar	0
47441	7	Sololá	701	Sololá	1	Sololá	9	Septiembre	2023-09-15T00:00:00	2024-11-08T21:00:00	2	Temperatura media	14.9
47442	7	Sololá	701	Sololá	1	Sololá	9	Septiembre	2023-09-15T00:00:00	2024-11-08T21:00:00	4	Temperatura máxima	15.3
47443	7	Sololá	701	Sololá	1	Sololá	9	Septiembre	2023-09-15T00:00:00	2024-11-08T21:00:00	3	Temperatura mínima	14.8
47444	7	Sololá	701	Sololá	1	Sololá	9	Septiembre	2023-09-15T00:00:00	2024-11-08T21:00:00	5	Humedad	92
47445	7	Sololá	701	Sololá	1	Sololá	9	Septiembre	2023-09-15T00:00:00	2024-11-08T21:00:00	6	Velocidad del viento	0
47446	7	Sololá	701	Sololá	1	Sololá	9	Septiembre	2023-09-15T00:00:00	2024-11-08T21:00:00	7	Dirección del viento	0
47447	7	Sololá	701	Sololá	1	Sololá	9	Septiembre	2023-09-15T00:00:00	2024-11-08T21:00:00	1	Precipitación	0
47448	7	Sololá	701	Sololá	1	Sololá	9	Septiembre	2023-09-15T00:00:00	2024-11-08T21:00:00	8	Radiación solar	0
47449	7	Sololá	701	Sololá	1	Sololá	9	Septiembre	2023-09-15T00:00:00	2024-11-08T22:00:00	2	Temperatura media	14.4
47450	7	Sololá	701	Sololá	1	Sololá	9	Septiembre	2023-09-15T00:00:00	2024-11-08T22:00:00	4	Temperatura máxima	14.8
47451	7	Sololá	701	Sololá	1	Sololá	9	Septiembre	2023-09-15T00:00:00	2024-11-08T22:00:00	3	Temperatura mínima	14.3
47452	7	Sololá	701	Sololá	1	Sololá	9	Septiembre	2023-09-15T00:00:00	2024-11-08T22:00:00	5	Humedad	94
47453	7	Sololá	701	Sololá	1	Sololá	9	Septiembre	2023-09-15T00:00:00	2024-11-08T22:00:00	6	Velocidad del viento	0
47454	7	Sololá	701	Sololá	1	Sololá	9	Septiembre	2023-09-15T00:00:00	2024-11-08T22:00:00	7	Dirección del viento	0
47455	7	Sololá	701	Sololá	1	Sololá	9	Septiembre	2023-09-15T00:00:00	2024-11-08T22:00:00	1	Precipitación	0
47456	7	Sololá	701	Sololá	1	Sololá	9	Septiembre	2023-09-15T00:00:00	2024-11-08T22:00:00	8	Radiación solar	0
47457	7	Sololá	701	Sololá	1	Sololá	9	Septiembre	2023-09-15T00:00:00	2024-11-08T23:00:00	2	Temperatura media	14.2
47458	7	Sololá	701	Sololá	1	Sololá	9	Septiembre	2023-09-15T00:00:00	2024-11-08T23:00:00	4	Temperatura máxima	14.4
47459	7	Sololá	701	Sololá	1	Sololá	9	Septiembre	2023-09-15T00:00:00	2024-11-08T23:00:00	3	Temperatura mínima	14.2
47460	7	Sololá	701	Sololá	1	Sololá	9	Septiembre	2023-09-15T00:00:00	2024-11-08T23:00:00	5	Humedad	92
47461	7	Sololá	701	Sololá	1	Sololá	9	Septiembre	2023-09-15T00:00:00	2024-11-08T23:00:00	6	Velocidad del viento	0
47462	7	Sololá	701	Sololá	1	Sololá	9	Septiembre	2023-09-15T00:00:00	2024-11-08T23:00:00	7	Dirección del viento	0
47463	7	Sololá	701	Sololá	1	Sololá	9	Septiembre	2023-09-15T00:00:00	2024-11-08T23:00:00	1	Precipitación	0
47464	7	Sololá	701	Sololá	1	Sololá	9	Septiembre	2023-09-15T00:00:00	2024-11-08T23:00:00	8	Radiación solar	0
47465	7	Sololá	701	Sololá	1	Sololá	9	Septiembre	2023-09-16T00:00:00	2024-11-08T00:00:00	2	Temperatura media	13.6
47466	7	Sololá	701	Sololá	1	Sololá	9	Septiembre	2023-09-16T00:00:00	2024-11-08T00:00:00	4	Temperatura máxima	14.2
47467	7	Sololá	701	Sololá	1	Sololá	9	Septiembre	2023-09-16T00:00:00	2024-11-08T00:00:00	3	Temperatura mínima	13.6
47468	7	Sololá	701	Sololá	1	Sololá	9	Septiembre	2023-09-16T00:00:00	2024-11-08T00:00:00	5	Humedad	93
47469	7	Sololá	701	Sololá	1	Sololá	9	Septiembre	2023-09-16T00:00:00	2024-11-08T00:00:00	6	Velocidad del viento	0
47470	7	Sololá	701	Sololá	1	Sololá	9	Septiembre	2023-09-16T00:00:00	2024-11-08T00:00:00	7	Dirección del viento	0
47471	7	Sololá	701	Sololá	1	Sololá	9	Septiembre	2023-09-16T00:00:00	2024-11-08T00:00:00	1	Precipitación	0
47472	7	Sololá	701	Sololá	1	Sololá	9	Septiembre	2023-09-16T00:00:00	2024-11-08T00:00:00	8	Radiación solar	0
47473	7	Sololá	701	Sololá	1	Sololá	9	Septiembre	2023-09-16T00:00:00	2024-11-08T01:00:00	2	Temperatura media	13.4
47474	7	Sololá	701	Sololá	1	Sololá	9	Septiembre	2023-09-16T00:00:00	2024-11-08T01:00:00	4	Temperatura máxima	13.7
47475	7	Sololá	701	Sololá	1	Sololá	9	Septiembre	2023-09-16T00:00:00	2024-11-08T01:00:00	3	Temperatura mínima	13.3
47476	7	Sololá	701	Sololá	1	Sololá	9	Septiembre	2023-09-16T00:00:00	2024-11-08T01:00:00	5	Humedad	91
47477	7	Sololá	701	Sololá	1	Sololá	9	Septiembre	2023-09-16T00:00:00	2024-11-08T01:00:00	6	Velocidad del viento	0
47478	7	Sololá	701	Sololá	1	Sololá	9	Septiembre	2023-09-16T00:00:00	2024-11-08T01:00:00	7	Dirección del viento	0
47479	7	Sololá	701	Sololá	1	Sololá	9	Septiembre	2023-09-16T00:00:00	2024-11-08T01:00:00	1	Precipitación	0
47480	7	Sololá	701	Sololá	1	Sololá	9	Septiembre	2023-09-16T00:00:00	2024-11-08T01:00:00	8	Radiación solar	0
47481	7	Sololá	701	Sololá	1	Sololá	9	Septiembre	2023-09-16T00:00:00	2024-11-08T02:00:00	2	Temperatura media	13.5
47482	7	Sololá	701	Sololá	1	Sololá	9	Septiembre	2023-09-16T00:00:00	2024-11-08T02:00:00	4	Temperatura máxima	13.6
47483	7	Sololá	701	Sololá	1	Sololá	9	Septiembre	2023-09-16T00:00:00	2024-11-08T02:00:00	3	Temperatura mínima	13.3
47484	7	Sololá	701	Sololá	1	Sololá	9	Septiembre	2023-09-16T00:00:00	2024-11-08T02:00:00	5	Humedad	90
47485	7	Sololá	701	Sololá	1	Sololá	9	Septiembre	2023-09-16T00:00:00	2024-11-08T02:00:00	6	Velocidad del viento	0
47486	7	Sololá	701	Sololá	1	Sololá	9	Septiembre	2023-09-16T00:00:00	2024-11-08T02:00:00	7	Dirección del viento	0
47487	7	Sololá	701	Sololá	1	Sololá	9	Septiembre	2023-09-16T00:00:00	2024-11-08T02:00:00	1	Precipitación	0
47488	7	Sololá	701	Sololá	1	Sololá	9	Septiembre	2023-09-16T00:00:00	2024-11-08T02:00:00	8	Radiación solar	0
47489	7	Sololá	701	Sololá	1	Sololá	9	Septiembre	2023-09-16T00:00:00	2024-11-08T03:00:00	2	Temperatura media	13.4
47490	7	Sololá	701	Sololá	1	Sololá	9	Septiembre	2023-09-16T00:00:00	2024-11-08T03:00:00	4	Temperatura máxima	13.6
47491	7	Sololá	701	Sololá	1	Sololá	9	Septiembre	2023-09-16T00:00:00	2024-11-08T03:00:00	3	Temperatura mínima	13.4
47492	7	Sololá	701	Sololá	1	Sololá	9	Septiembre	2023-09-16T00:00:00	2024-11-08T03:00:00	5	Humedad	90
47493	7	Sololá	701	Sololá	1	Sololá	9	Septiembre	2023-09-16T00:00:00	2024-11-08T03:00:00	6	Velocidad del viento	0
47494	7	Sololá	701	Sololá	1	Sololá	9	Septiembre	2023-09-16T00:00:00	2024-11-08T03:00:00	7	Dirección del viento	0
47495	7	Sololá	701	Sololá	1	Sololá	9	Septiembre	2023-09-16T00:00:00	2024-11-08T03:00:00	1	Precipitación	0
47496	7	Sololá	701	Sololá	1	Sololá	9	Septiembre	2023-09-16T00:00:00	2024-11-08T03:00:00	8	Radiación solar	0
47497	7	Sololá	701	Sololá	1	Sololá	9	Septiembre	2023-09-16T00:00:00	2024-11-08T04:00:00	2	Temperatura media	13.4
47498	7	Sololá	701	Sololá	1	Sololá	9	Septiembre	2023-09-16T00:00:00	2024-11-08T04:00:00	4	Temperatura máxima	13.5
47499	7	Sololá	701	Sololá	1	Sololá	9	Septiembre	2023-09-16T00:00:00	2024-11-08T04:00:00	3	Temperatura mínima	13.4
47500	7	Sololá	701	Sololá	1	Sololá	9	Septiembre	2023-09-16T00:00:00	2024-11-08T04:00:00	5	Humedad	89
47501	7	Sololá	701	Sololá	1	Sololá	9	Septiembre	2023-09-16T00:00:00	2024-11-08T04:00:00	6	Velocidad del viento	0
47502	7	Sololá	701	Sololá	1	Sololá	9	Septiembre	2023-09-16T00:00:00	2024-11-08T04:00:00	7	Dirección del viento	0
47503	7	Sololá	701	Sololá	1	Sololá	9	Septiembre	2023-09-16T00:00:00	2024-11-08T04:00:00	1	Precipitación	0
47504	7	Sololá	701	Sololá	1	Sololá	9	Septiembre	2023-09-16T00:00:00	2024-11-08T04:00:00	8	Radiación solar	0
47505	7	Sololá	701	Sololá	1	Sololá	9	Septiembre	2023-09-16T00:00:00	2024-11-08T05:00:00	2	Temperatura media	13.4
47506	7	Sololá	701	Sololá	1	Sololá	9	Septiembre	2023-09-16T00:00:00	2024-11-08T05:00:00	4	Temperatura máxima	13.4
47507	7	Sololá	701	Sololá	1	Sololá	9	Septiembre	2023-09-16T00:00:00	2024-11-08T05:00:00	3	Temperatura mínima	13.4
47508	7	Sololá	701	Sololá	1	Sololá	9	Septiembre	2023-09-16T00:00:00	2024-11-08T05:00:00	5	Humedad	90
47509	7	Sololá	701	Sololá	1	Sololá	9	Septiembre	2023-09-16T00:00:00	2024-11-08T05:00:00	6	Velocidad del viento	0
47510	7	Sololá	701	Sololá	1	Sololá	9	Septiembre	2023-09-16T00:00:00	2024-11-08T05:00:00	7	Dirección del viento	0
47511	7	Sololá	701	Sololá	1	Sololá	9	Septiembre	2023-09-16T00:00:00	2024-11-08T05:00:00	1	Precipitación	0
47512	7	Sololá	701	Sololá	1	Sololá	9	Septiembre	2023-09-16T00:00:00	2024-11-08T05:00:00	8	Radiación solar	0
47513	7	Sololá	701	Sololá	1	Sololá	9	Septiembre	2023-09-16T00:00:00	2024-11-08T06:00:00	2	Temperatura media	13.3
47514	7	Sololá	701	Sololá	1	Sololá	9	Septiembre	2023-09-16T00:00:00	2024-11-08T06:00:00	4	Temperatura máxima	13.5
47515	7	Sololá	701	Sololá	1	Sololá	9	Septiembre	2023-09-16T00:00:00	2024-11-08T06:00:00	3	Temperatura mínima	13.2
47516	7	Sololá	701	Sololá	1	Sololá	9	Septiembre	2023-09-16T00:00:00	2024-11-08T06:00:00	5	Humedad	89
47517	7	Sololá	701	Sololá	1	Sololá	9	Septiembre	2023-09-16T00:00:00	2024-11-08T06:00:00	6	Velocidad del viento	0
47518	7	Sololá	701	Sololá	1	Sololá	9	Septiembre	2023-09-16T00:00:00	2024-11-08T06:00:00	7	Dirección del viento	0
47519	7	Sololá	701	Sololá	1	Sololá	9	Septiembre	2023-09-16T00:00:00	2024-11-08T06:00:00	1	Precipitación	0
47520	7	Sololá	701	Sololá	1	Sololá	9	Septiembre	2023-09-16T00:00:00	2024-11-08T06:00:00	8	Radiación solar	0
47521	7	Sololá	701	Sololá	1	Sololá	9	Septiembre	2023-09-16T00:00:00	2024-11-08T07:00:00	2	Temperatura media	13.9
47522	7	Sololá	701	Sololá	1	Sololá	9	Septiembre	2023-09-16T00:00:00	2024-11-08T07:00:00	4	Temperatura máxima	13.9
47523	7	Sololá	701	Sololá	1	Sololá	9	Septiembre	2023-09-16T00:00:00	2024-11-08T07:00:00	3	Temperatura mínima	13.2
47524	7	Sololá	701	Sololá	1	Sololá	9	Septiembre	2023-09-16T00:00:00	2024-11-08T07:00:00	5	Humedad	88
47525	7	Sololá	701	Sololá	1	Sololá	9	Septiembre	2023-09-16T00:00:00	2024-11-08T07:00:00	6	Velocidad del viento	0
47526	7	Sololá	701	Sololá	1	Sololá	9	Septiembre	2023-09-16T00:00:00	2024-11-08T07:00:00	7	Dirección del viento	0
47527	7	Sololá	701	Sololá	1	Sololá	9	Septiembre	2023-09-16T00:00:00	2024-11-08T07:00:00	1	Precipitación	0
47528	7	Sololá	701	Sololá	1	Sololá	9	Septiembre	2023-09-16T00:00:00	2024-11-08T07:00:00	8	Radiación solar	13
47529	7	Sololá	701	Sololá	1	Sololá	9	Septiembre	2023-09-16T00:00:00	2024-11-08T08:00:00	2	Temperatura media	17.2
47530	7	Sololá	701	Sololá	1	Sololá	9	Septiembre	2023-09-16T00:00:00	2024-11-08T08:00:00	4	Temperatura máxima	17.2
47531	7	Sololá	701	Sololá	1	Sololá	9	Septiembre	2023-09-16T00:00:00	2024-11-08T08:00:00	3	Temperatura mínima	13.9
47532	7	Sololá	701	Sololá	1	Sololá	9	Septiembre	2023-09-16T00:00:00	2024-11-08T08:00:00	5	Humedad	80
47533	7	Sololá	701	Sololá	1	Sololá	9	Septiembre	2023-09-16T00:00:00	2024-11-08T08:00:00	6	Velocidad del viento	0
47534	7	Sololá	701	Sololá	1	Sololá	9	Septiembre	2023-09-16T00:00:00	2024-11-08T08:00:00	7	Dirección del viento	0
47535	7	Sololá	701	Sololá	1	Sololá	9	Septiembre	2023-09-16T00:00:00	2024-11-08T08:00:00	1	Precipitación	0
47536	7	Sololá	701	Sololá	1	Sololá	9	Septiembre	2023-09-16T00:00:00	2024-11-08T08:00:00	8	Radiación solar	209
47537	7	Sololá	701	Sololá	1	Sololá	9	Septiembre	2023-09-16T00:00:00	2024-11-08T09:00:00	2	Temperatura media	20.4
47538	7	Sololá	701	Sololá	1	Sololá	9	Septiembre	2023-09-16T00:00:00	2024-11-08T09:00:00	4	Temperatura máxima	20.4
47539	7	Sololá	701	Sololá	1	Sololá	9	Septiembre	2023-09-16T00:00:00	2024-11-08T09:00:00	3	Temperatura mínima	17.2
47540	7	Sololá	701	Sololá	1	Sololá	9	Septiembre	2023-09-16T00:00:00	2024-11-08T09:00:00	5	Humedad	73
47541	7	Sololá	701	Sololá	1	Sololá	9	Septiembre	2023-09-16T00:00:00	2024-11-08T09:00:00	6	Velocidad del viento	0
47542	7	Sololá	701	Sololá	1	Sololá	9	Septiembre	2023-09-16T00:00:00	2024-11-08T09:00:00	7	Dirección del viento	0
47543	7	Sololá	701	Sololá	1	Sololá	9	Septiembre	2023-09-16T00:00:00	2024-11-08T09:00:00	1	Precipitación	0
47544	7	Sololá	701	Sololá	1	Sololá	9	Septiembre	2023-09-16T00:00:00	2024-11-08T09:00:00	8	Radiación solar	673
47545	7	Sololá	701	Sololá	1	Sololá	9	Septiembre	2023-09-16T00:00:00	2024-11-08T10:00:00	2	Temperatura media	22.8
47546	7	Sololá	701	Sololá	1	Sololá	9	Septiembre	2023-09-16T00:00:00	2024-11-08T10:00:00	4	Temperatura máxima	22.8
47547	7	Sololá	701	Sololá	1	Sololá	9	Septiembre	2023-09-16T00:00:00	2024-11-08T10:00:00	3	Temperatura mínima	20.4
47548	7	Sololá	701	Sololá	1	Sololá	9	Septiembre	2023-09-16T00:00:00	2024-11-08T10:00:00	5	Humedad	65
47549	7	Sololá	701	Sololá	1	Sololá	9	Septiembre	2023-09-16T00:00:00	2024-11-08T10:00:00	6	Velocidad del viento	0
47550	7	Sololá	701	Sololá	1	Sololá	9	Septiembre	2023-09-16T00:00:00	2024-11-08T10:00:00	7	Dirección del viento	0
47551	7	Sololá	701	Sololá	1	Sololá	9	Septiembre	2023-09-16T00:00:00	2024-11-08T10:00:00	1	Precipitación	0
47552	7	Sololá	701	Sololá	1	Sololá	9	Septiembre	2023-09-16T00:00:00	2024-11-08T10:00:00	8	Radiación solar	847
47553	7	Sololá	701	Sololá	1	Sololá	9	Septiembre	2023-09-16T00:00:00	2024-11-08T11:00:00	2	Temperatura media	23.1
47554	7	Sololá	701	Sololá	1	Sololá	9	Septiembre	2023-09-16T00:00:00	2024-11-08T11:00:00	4	Temperatura máxima	23.1
47555	7	Sololá	701	Sololá	1	Sololá	9	Septiembre	2023-09-16T00:00:00	2024-11-08T11:00:00	3	Temperatura mínima	22.7
47556	7	Sololá	701	Sololá	1	Sololá	9	Septiembre	2023-09-16T00:00:00	2024-11-08T11:00:00	5	Humedad	63
47557	7	Sololá	701	Sololá	1	Sololá	9	Septiembre	2023-09-16T00:00:00	2024-11-08T11:00:00	6	Velocidad del viento	0
47558	7	Sololá	701	Sololá	1	Sololá	9	Septiembre	2023-09-16T00:00:00	2024-11-08T11:00:00	7	Dirección del viento	0
47559	7	Sololá	701	Sololá	1	Sololá	9	Septiembre	2023-09-16T00:00:00	2024-11-08T11:00:00	1	Precipitación	0
47560	7	Sololá	701	Sololá	1	Sololá	9	Septiembre	2023-09-16T00:00:00	2024-11-08T11:00:00	8	Radiación solar	764
47561	7	Sololá	701	Sololá	1	Sololá	9	Septiembre	2023-09-16T00:00:00	2024-11-08T12:00:00	2	Temperatura media	23.7
47562	7	Sololá	701	Sololá	1	Sololá	9	Septiembre	2023-09-16T00:00:00	2024-11-08T12:00:00	4	Temperatura máxima	23.8
47563	7	Sololá	701	Sololá	1	Sololá	9	Septiembre	2023-09-16T00:00:00	2024-11-08T12:00:00	3	Temperatura mínima	23.1
47564	7	Sololá	701	Sololá	1	Sololá	9	Septiembre	2023-09-16T00:00:00	2024-11-08T12:00:00	5	Humedad	59
47565	7	Sololá	701	Sololá	1	Sololá	9	Septiembre	2023-09-16T00:00:00	2024-11-08T12:00:00	6	Velocidad del viento	0
47566	7	Sololá	701	Sololá	1	Sololá	9	Septiembre	2023-09-16T00:00:00	2024-11-08T12:00:00	7	Dirección del viento	0
47567	7	Sololá	701	Sololá	1	Sololá	9	Septiembre	2023-09-16T00:00:00	2024-11-08T12:00:00	1	Precipitación	0
47568	7	Sololá	701	Sololá	1	Sololá	9	Septiembre	2023-09-16T00:00:00	2024-11-08T12:00:00	8	Radiación solar	592
47569	7	Sololá	701	Sololá	1	Sololá	9	Septiembre	2023-09-16T00:00:00	2024-11-08T13:00:00	2	Temperatura media	24
47570	7	Sololá	701	Sololá	1	Sololá	9	Septiembre	2023-09-16T00:00:00	2024-11-08T13:00:00	4	Temperatura máxima	24.2
47571	7	Sololá	701	Sololá	1	Sololá	9	Septiembre	2023-09-16T00:00:00	2024-11-08T13:00:00	3	Temperatura mínima	23.6
47572	7	Sololá	701	Sololá	1	Sololá	9	Septiembre	2023-09-16T00:00:00	2024-11-08T13:00:00	5	Humedad	61
47573	7	Sololá	701	Sololá	1	Sololá	9	Septiembre	2023-09-16T00:00:00	2024-11-08T13:00:00	6	Velocidad del viento	0
47574	7	Sololá	701	Sololá	1	Sololá	9	Septiembre	2023-09-16T00:00:00	2024-11-08T13:00:00	7	Dirección del viento	0
47575	7	Sololá	701	Sololá	1	Sololá	9	Septiembre	2023-09-16T00:00:00	2024-11-08T13:00:00	1	Precipitación	0
47576	7	Sololá	701	Sololá	1	Sololá	9	Septiembre	2023-09-16T00:00:00	2024-11-08T13:00:00	8	Radiación solar	647
47577	7	Sololá	701	Sololá	1	Sololá	9	Septiembre	2023-09-16T00:00:00	2024-11-08T14:00:00	2	Temperatura media	24.7
47578	7	Sololá	701	Sololá	1	Sololá	9	Septiembre	2023-09-16T00:00:00	2024-11-08T14:00:00	4	Temperatura máxima	24.8
47579	7	Sololá	701	Sololá	1	Sololá	9	Septiembre	2023-09-16T00:00:00	2024-11-08T14:00:00	3	Temperatura mínima	23.8
47580	7	Sololá	701	Sololá	1	Sololá	9	Septiembre	2023-09-16T00:00:00	2024-11-08T14:00:00	5	Humedad	59
47581	7	Sololá	701	Sololá	1	Sololá	9	Septiembre	2023-09-16T00:00:00	2024-11-08T14:00:00	6	Velocidad del viento	0
47582	7	Sololá	701	Sololá	1	Sololá	9	Septiembre	2023-09-16T00:00:00	2024-11-08T14:00:00	7	Dirección del viento	0
47583	7	Sololá	701	Sololá	1	Sololá	9	Septiembre	2023-09-16T00:00:00	2024-11-08T14:00:00	1	Precipitación	0
47584	7	Sololá	701	Sololá	1	Sololá	9	Septiembre	2023-09-16T00:00:00	2024-11-08T14:00:00	8	Radiación solar	125
47585	7	Sololá	701	Sololá	1	Sololá	9	Septiembre	2023-09-16T00:00:00	2024-11-08T15:00:00	2	Temperatura media	22.8
47586	7	Sololá	701	Sololá	1	Sololá	9	Septiembre	2023-09-16T00:00:00	2024-11-08T15:00:00	4	Temperatura máxima	24.7
47587	7	Sololá	701	Sololá	1	Sololá	9	Septiembre	2023-09-16T00:00:00	2024-11-08T15:00:00	3	Temperatura mínima	22.8
47588	7	Sololá	701	Sololá	1	Sololá	9	Septiembre	2023-09-16T00:00:00	2024-11-08T15:00:00	5	Humedad	75
47589	7	Sololá	701	Sololá	1	Sololá	9	Septiembre	2023-09-16T00:00:00	2024-11-08T15:00:00	6	Velocidad del viento	0
47590	7	Sololá	701	Sololá	1	Sololá	9	Septiembre	2023-09-16T00:00:00	2024-11-08T15:00:00	7	Dirección del viento	0
47591	7	Sololá	701	Sololá	1	Sololá	9	Septiembre	2023-09-16T00:00:00	2024-11-08T15:00:00	1	Precipitación	0
47592	7	Sololá	701	Sololá	1	Sololá	9	Septiembre	2023-09-16T00:00:00	2024-11-08T15:00:00	8	Radiación solar	111
47593	7	Sololá	701	Sololá	1	Sololá	9	Septiembre	2023-09-16T00:00:00	2024-11-08T16:00:00	2	Temperatura media	21.4
47594	7	Sololá	701	Sololá	1	Sololá	9	Septiembre	2023-09-16T00:00:00	2024-11-08T16:00:00	4	Temperatura máxima	22.8
47595	7	Sololá	701	Sololá	1	Sololá	9	Septiembre	2023-09-16T00:00:00	2024-11-08T16:00:00	3	Temperatura mínima	21.4
47596	7	Sololá	701	Sololá	1	Sololá	9	Septiembre	2023-09-16T00:00:00	2024-11-08T16:00:00	5	Humedad	79
47597	7	Sololá	701	Sololá	1	Sololá	9	Septiembre	2023-09-16T00:00:00	2024-11-08T16:00:00	6	Velocidad del viento	0
47598	7	Sololá	701	Sololá	1	Sololá	9	Septiembre	2023-09-16T00:00:00	2024-11-08T16:00:00	7	Dirección del viento	0
47599	7	Sololá	701	Sololá	1	Sololá	9	Septiembre	2023-09-16T00:00:00	2024-11-08T16:00:00	1	Precipitación	0
47600	7	Sololá	701	Sololá	1	Sololá	9	Septiembre	2023-09-16T00:00:00	2024-11-08T16:00:00	8	Radiación solar	76
47601	7	Sololá	701	Sololá	1	Sololá	9	Septiembre	2023-09-16T00:00:00	2024-11-08T17:00:00	2	Temperatura media	20.8
47602	7	Sololá	701	Sololá	1	Sololá	9	Septiembre	2023-09-16T00:00:00	2024-11-08T17:00:00	4	Temperatura máxima	21.8
47603	7	Sololá	701	Sololá	1	Sololá	9	Septiembre	2023-09-16T00:00:00	2024-11-08T17:00:00	3	Temperatura mínima	20.8
47604	7	Sololá	701	Sololá	1	Sololá	9	Septiembre	2023-09-16T00:00:00	2024-11-08T17:00:00	5	Humedad	83
47605	7	Sololá	701	Sololá	1	Sololá	9	Septiembre	2023-09-16T00:00:00	2024-11-08T17:00:00	6	Velocidad del viento	0
47606	7	Sololá	701	Sololá	1	Sololá	9	Septiembre	2023-09-16T00:00:00	2024-11-08T17:00:00	7	Dirección del viento	0
47607	7	Sololá	701	Sololá	1	Sololá	9	Septiembre	2023-09-16T00:00:00	2024-11-08T17:00:00	1	Precipitación	0
47608	7	Sololá	701	Sololá	1	Sololá	9	Septiembre	2023-09-16T00:00:00	2024-11-08T17:00:00	8	Radiación solar	49
47609	7	Sololá	701	Sololá	1	Sololá	9	Septiembre	2023-09-16T00:00:00	2024-11-08T18:00:00	2	Temperatura media	19.2
47610	7	Sololá	701	Sololá	1	Sololá	9	Septiembre	2023-09-16T00:00:00	2024-11-08T18:00:00	4	Temperatura máxima	20.8
47611	7	Sololá	701	Sololá	1	Sololá	9	Septiembre	2023-09-16T00:00:00	2024-11-08T18:00:00	3	Temperatura mínima	19.2
47612	7	Sololá	701	Sololá	1	Sololá	9	Septiembre	2023-09-16T00:00:00	2024-11-08T18:00:00	5	Humedad	89
47613	7	Sololá	701	Sololá	1	Sololá	9	Septiembre	2023-09-16T00:00:00	2024-11-08T18:00:00	6	Velocidad del viento	0
47614	7	Sololá	701	Sololá	1	Sololá	9	Septiembre	2023-09-16T00:00:00	2024-11-08T18:00:00	7	Dirección del viento	0
47615	7	Sololá	701	Sololá	1	Sololá	9	Septiembre	2023-09-16T00:00:00	2024-11-08T18:00:00	1	Precipitación	0
47616	7	Sololá	701	Sololá	1	Sololá	9	Septiembre	2023-09-16T00:00:00	2024-11-08T18:00:00	8	Radiación solar	18
47617	7	Sololá	701	Sololá	1	Sololá	9	Septiembre	2023-09-16T00:00:00	2024-11-08T19:00:00	2	Temperatura media	17.9
47618	7	Sololá	701	Sololá	1	Sololá	9	Septiembre	2023-09-16T00:00:00	2024-11-08T19:00:00	4	Temperatura máxima	19.2
47619	7	Sololá	701	Sololá	1	Sololá	9	Septiembre	2023-09-16T00:00:00	2024-11-08T19:00:00	3	Temperatura mínima	17.8
47620	7	Sololá	701	Sololá	1	Sololá	9	Septiembre	2023-09-16T00:00:00	2024-11-08T19:00:00	5	Humedad	90
47621	7	Sololá	701	Sololá	1	Sololá	9	Septiembre	2023-09-16T00:00:00	2024-11-08T19:00:00	6	Velocidad del viento	0
47622	7	Sololá	701	Sololá	1	Sololá	9	Septiembre	2023-09-16T00:00:00	2024-11-08T19:00:00	7	Dirección del viento	0
47623	7	Sololá	701	Sololá	1	Sololá	9	Septiembre	2023-09-16T00:00:00	2024-11-08T19:00:00	1	Precipitación	0
47624	7	Sololá	701	Sololá	1	Sololá	9	Septiembre	2023-09-16T00:00:00	2024-11-08T19:00:00	8	Radiación solar	0
47625	7	Sololá	701	Sololá	1	Sololá	9	Septiembre	2023-09-16T00:00:00	2024-11-08T20:00:00	2	Temperatura media	17
47626	7	Sololá	701	Sololá	1	Sololá	9	Septiembre	2023-09-16T00:00:00	2024-11-08T20:00:00	4	Temperatura máxima	17.9
47627	7	Sololá	701	Sololá	1	Sololá	9	Septiembre	2023-09-16T00:00:00	2024-11-08T20:00:00	3	Temperatura mínima	17
47628	7	Sololá	701	Sololá	1	Sololá	9	Septiembre	2023-09-16T00:00:00	2024-11-08T20:00:00	5	Humedad	87
47629	7	Sololá	701	Sololá	1	Sololá	9	Septiembre	2023-09-16T00:00:00	2024-11-08T20:00:00	6	Velocidad del viento	0
47630	7	Sololá	701	Sololá	1	Sololá	9	Septiembre	2023-09-16T00:00:00	2024-11-08T20:00:00	7	Dirección del viento	0
47631	7	Sololá	701	Sololá	1	Sololá	9	Septiembre	2023-09-16T00:00:00	2024-11-08T20:00:00	1	Precipitación	0
47632	7	Sololá	701	Sololá	1	Sololá	9	Septiembre	2023-09-16T00:00:00	2024-11-08T20:00:00	8	Radiación solar	0
47633	7	Sololá	701	Sololá	1	Sololá	9	Septiembre	2023-09-16T00:00:00	2024-11-08T21:00:00	2	Temperatura media	16.7
47634	7	Sololá	701	Sololá	1	Sololá	9	Septiembre	2023-09-16T00:00:00	2024-11-08T21:00:00	4	Temperatura máxima	17.1
47635	7	Sololá	701	Sololá	1	Sololá	9	Septiembre	2023-09-16T00:00:00	2024-11-08T21:00:00	3	Temperatura mínima	16.7
47636	7	Sololá	701	Sololá	1	Sololá	9	Septiembre	2023-09-16T00:00:00	2024-11-08T21:00:00	5	Humedad	87
47637	7	Sololá	701	Sololá	1	Sololá	9	Septiembre	2023-09-16T00:00:00	2024-11-08T21:00:00	6	Velocidad del viento	0
47638	7	Sololá	701	Sololá	1	Sololá	9	Septiembre	2023-09-16T00:00:00	2024-11-08T21:00:00	7	Dirección del viento	0
47639	7	Sololá	701	Sololá	1	Sololá	9	Septiembre	2023-09-16T00:00:00	2024-11-08T21:00:00	1	Precipitación	0
47640	7	Sololá	701	Sololá	1	Sololá	9	Septiembre	2023-09-16T00:00:00	2024-11-08T21:00:00	8	Radiación solar	0
47641	7	Sololá	701	Sololá	1	Sololá	9	Septiembre	2023-09-16T00:00:00	2024-11-08T22:00:00	2	Temperatura media	16.2
47642	7	Sololá	701	Sololá	1	Sololá	9	Septiembre	2023-09-16T00:00:00	2024-11-08T22:00:00	4	Temperatura máxima	16.7
47643	7	Sololá	701	Sololá	1	Sololá	9	Septiembre	2023-09-16T00:00:00	2024-11-08T22:00:00	3	Temperatura mínima	16.2
47644	7	Sololá	701	Sololá	1	Sololá	9	Septiembre	2023-09-16T00:00:00	2024-11-08T22:00:00	5	Humedad	87
47645	7	Sololá	701	Sololá	1	Sololá	9	Septiembre	2023-09-16T00:00:00	2024-11-08T22:00:00	6	Velocidad del viento	0
47646	7	Sololá	701	Sololá	1	Sololá	9	Septiembre	2023-09-16T00:00:00	2024-11-08T22:00:00	7	Dirección del viento	0
47647	7	Sololá	701	Sololá	1	Sololá	9	Septiembre	2023-09-16T00:00:00	2024-11-08T22:00:00	1	Precipitación	0
47648	7	Sololá	701	Sololá	1	Sololá	9	Septiembre	2023-09-16T00:00:00	2024-11-08T22:00:00	8	Radiación solar	0
47649	7	Sololá	701	Sololá	1	Sololá	9	Septiembre	2023-09-16T00:00:00	2024-11-08T23:00:00	2	Temperatura media	15.9
47650	7	Sololá	701	Sololá	1	Sololá	9	Septiembre	2023-09-16T00:00:00	2024-11-08T23:00:00	4	Temperatura máxima	16.2
47651	7	Sololá	701	Sololá	1	Sololá	9	Septiembre	2023-09-16T00:00:00	2024-11-08T23:00:00	3	Temperatura mínima	15.8
47652	7	Sololá	701	Sololá	1	Sololá	9	Septiembre	2023-09-16T00:00:00	2024-11-08T23:00:00	5	Humedad	86
47653	7	Sololá	701	Sololá	1	Sololá	9	Septiembre	2023-09-16T00:00:00	2024-11-08T23:00:00	6	Velocidad del viento	0
47654	7	Sololá	701	Sololá	1	Sololá	9	Septiembre	2023-09-16T00:00:00	2024-11-08T23:00:00	7	Dirección del viento	0
47655	7	Sololá	701	Sololá	1	Sololá	9	Septiembre	2023-09-16T00:00:00	2024-11-08T23:00:00	1	Precipitación	0
47656	7	Sololá	701	Sololá	1	Sololá	9	Septiembre	2023-09-16T00:00:00	2024-11-08T23:00:00	8	Radiación solar	0
47657	7	Sololá	701	Sololá	1	Sololá	9	Septiembre	2023-09-17T00:00:00	2024-11-08T00:00:00	2	Temperatura media	15
47658	7	Sololá	701	Sololá	1	Sololá	9	Septiembre	2023-09-17T00:00:00	2024-11-08T00:00:00	4	Temperatura máxima	15.9
47659	7	Sololá	701	Sololá	1	Sololá	9	Septiembre	2023-09-17T00:00:00	2024-11-08T00:00:00	3	Temperatura mínima	14.9
47660	7	Sololá	701	Sololá	1	Sololá	9	Septiembre	2023-09-17T00:00:00	2024-11-08T00:00:00	5	Humedad	88
47661	7	Sololá	701	Sololá	1	Sololá	9	Septiembre	2023-09-17T00:00:00	2024-11-08T00:00:00	6	Velocidad del viento	0
47662	7	Sololá	701	Sololá	1	Sololá	9	Septiembre	2023-09-17T00:00:00	2024-11-08T00:00:00	7	Dirección del viento	0
47663	7	Sololá	701	Sololá	1	Sololá	9	Septiembre	2023-09-17T00:00:00	2024-11-08T00:00:00	1	Precipitación	0
47664	7	Sololá	701	Sololá	1	Sololá	9	Septiembre	2023-09-17T00:00:00	2024-11-08T00:00:00	8	Radiación solar	0
47665	7	Sololá	701	Sololá	1	Sololá	9	Septiembre	2023-09-17T00:00:00	2024-11-08T01:00:00	2	Temperatura media	14.1
47666	7	Sololá	701	Sololá	1	Sololá	9	Septiembre	2023-09-17T00:00:00	2024-11-08T01:00:00	4	Temperatura máxima	15
47667	7	Sololá	701	Sololá	1	Sololá	9	Septiembre	2023-09-17T00:00:00	2024-11-08T01:00:00	3	Temperatura mínima	14.1
47668	7	Sololá	701	Sololá	1	Sololá	9	Septiembre	2023-09-17T00:00:00	2024-11-08T01:00:00	5	Humedad	87
47669	7	Sololá	701	Sololá	1	Sololá	9	Septiembre	2023-09-17T00:00:00	2024-11-08T01:00:00	6	Velocidad del viento	0
47670	7	Sololá	701	Sololá	1	Sololá	9	Septiembre	2023-09-17T00:00:00	2024-11-08T01:00:00	7	Dirección del viento	0
47671	7	Sololá	701	Sololá	1	Sololá	9	Septiembre	2023-09-17T00:00:00	2024-11-08T01:00:00	1	Precipitación	0
47672	7	Sololá	701	Sololá	1	Sololá	9	Septiembre	2023-09-17T00:00:00	2024-11-08T01:00:00	8	Radiación solar	0
47673	7	Sololá	701	Sololá	1	Sololá	9	Septiembre	2023-09-17T00:00:00	2024-11-08T02:00:00	2	Temperatura media	13.8
47674	7	Sololá	701	Sololá	1	Sololá	9	Septiembre	2023-09-17T00:00:00	2024-11-08T02:00:00	4	Temperatura máxima	14.1
47675	7	Sololá	701	Sololá	1	Sololá	9	Septiembre	2023-09-17T00:00:00	2024-11-08T02:00:00	3	Temperatura mínima	13.8
47676	7	Sololá	701	Sololá	1	Sololá	9	Septiembre	2023-09-17T00:00:00	2024-11-08T02:00:00	5	Humedad	86
47677	7	Sololá	701	Sololá	1	Sololá	9	Septiembre	2023-09-17T00:00:00	2024-11-08T02:00:00	6	Velocidad del viento	0
47678	7	Sololá	701	Sololá	1	Sololá	9	Septiembre	2023-09-17T00:00:00	2024-11-08T02:00:00	7	Dirección del viento	0
47679	7	Sololá	701	Sololá	1	Sololá	9	Septiembre	2023-09-17T00:00:00	2024-11-08T02:00:00	1	Precipitación	0
47680	7	Sololá	701	Sololá	1	Sololá	9	Septiembre	2023-09-17T00:00:00	2024-11-08T02:00:00	8	Radiación solar	0
47681	7	Sololá	701	Sololá	1	Sololá	9	Septiembre	2023-09-17T00:00:00	2024-11-08T03:00:00	2	Temperatura media	13.5
47682	7	Sololá	701	Sololá	1	Sololá	9	Septiembre	2023-09-17T00:00:00	2024-11-08T03:00:00	4	Temperatura máxima	13.8
47683	7	Sololá	701	Sololá	1	Sololá	9	Septiembre	2023-09-17T00:00:00	2024-11-08T03:00:00	3	Temperatura mínima	13.4
47684	7	Sololá	701	Sololá	1	Sololá	9	Septiembre	2023-09-17T00:00:00	2024-11-08T03:00:00	5	Humedad	87
47685	7	Sololá	701	Sololá	1	Sololá	9	Septiembre	2023-09-17T00:00:00	2024-11-08T03:00:00	6	Velocidad del viento	0
47686	7	Sololá	701	Sololá	1	Sololá	9	Septiembre	2023-09-17T00:00:00	2024-11-08T03:00:00	7	Dirección del viento	0
47687	7	Sololá	701	Sololá	1	Sololá	9	Septiembre	2023-09-17T00:00:00	2024-11-08T03:00:00	1	Precipitación	0
47688	7	Sololá	701	Sololá	1	Sololá	9	Septiembre	2023-09-17T00:00:00	2024-11-08T03:00:00	8	Radiación solar	0
47689	7	Sololá	701	Sololá	1	Sololá	9	Septiembre	2023-09-17T00:00:00	2024-11-08T04:00:00	2	Temperatura media	13.1
47690	7	Sololá	701	Sololá	1	Sololá	9	Septiembre	2023-09-17T00:00:00	2024-11-08T04:00:00	4	Temperatura máxima	13.5
47691	7	Sololá	701	Sololá	1	Sololá	9	Septiembre	2023-09-17T00:00:00	2024-11-08T04:00:00	3	Temperatura mínima	13.1
47692	7	Sololá	701	Sololá	1	Sololá	9	Septiembre	2023-09-17T00:00:00	2024-11-08T04:00:00	5	Humedad	87
47693	7	Sololá	701	Sololá	1	Sololá	9	Septiembre	2023-09-17T00:00:00	2024-11-08T04:00:00	6	Velocidad del viento	0
47694	7	Sololá	701	Sololá	1	Sololá	9	Septiembre	2023-09-17T00:00:00	2024-11-08T04:00:00	7	Dirección del viento	0
47695	7	Sololá	701	Sololá	1	Sololá	9	Septiembre	2023-09-17T00:00:00	2024-11-08T04:00:00	1	Precipitación	0
47696	7	Sololá	701	Sololá	1	Sololá	9	Septiembre	2023-09-17T00:00:00	2024-11-08T04:00:00	8	Radiación solar	0
47697	7	Sololá	701	Sololá	1	Sololá	9	Septiembre	2023-09-17T00:00:00	2024-11-08T05:00:00	2	Temperatura media	12.2
47698	7	Sololá	701	Sololá	1	Sololá	9	Septiembre	2023-09-17T00:00:00	2024-11-08T05:00:00	4	Temperatura máxima	13.1
47699	7	Sololá	701	Sololá	1	Sololá	9	Septiembre	2023-09-17T00:00:00	2024-11-08T05:00:00	3	Temperatura mínima	12.2
47700	7	Sololá	701	Sololá	1	Sololá	9	Septiembre	2023-09-17T00:00:00	2024-11-08T05:00:00	5	Humedad	88
47701	7	Sololá	701	Sololá	1	Sololá	9	Septiembre	2023-09-17T00:00:00	2024-11-08T05:00:00	6	Velocidad del viento	0
47702	7	Sololá	701	Sololá	1	Sololá	9	Septiembre	2023-09-17T00:00:00	2024-11-08T05:00:00	7	Dirección del viento	0
47703	7	Sololá	701	Sololá	1	Sololá	9	Septiembre	2023-09-17T00:00:00	2024-11-08T05:00:00	1	Precipitación	0
47704	7	Sololá	701	Sololá	1	Sololá	9	Septiembre	2023-09-17T00:00:00	2024-11-08T05:00:00	8	Radiación solar	0
47705	7	Sololá	701	Sololá	1	Sololá	9	Septiembre	2023-09-17T00:00:00	2024-11-08T06:00:00	2	Temperatura media	11.8
47706	7	Sololá	701	Sololá	1	Sololá	9	Septiembre	2023-09-17T00:00:00	2024-11-08T06:00:00	4	Temperatura máxima	12.2
47707	7	Sololá	701	Sololá	1	Sololá	9	Septiembre	2023-09-17T00:00:00	2024-11-08T06:00:00	3	Temperatura mínima	11.8
47708	7	Sololá	701	Sololá	1	Sololá	9	Septiembre	2023-09-17T00:00:00	2024-11-08T06:00:00	5	Humedad	87
47709	7	Sololá	701	Sololá	1	Sololá	9	Septiembre	2023-09-17T00:00:00	2024-11-08T06:00:00	6	Velocidad del viento	0
47710	7	Sololá	701	Sololá	1	Sololá	9	Septiembre	2023-09-17T00:00:00	2024-11-08T06:00:00	7	Dirección del viento	0
47711	7	Sololá	701	Sololá	1	Sololá	9	Septiembre	2023-09-17T00:00:00	2024-11-08T06:00:00	1	Precipitación	0
47712	7	Sololá	701	Sololá	1	Sololá	9	Septiembre	2023-09-17T00:00:00	2024-11-08T06:00:00	8	Radiación solar	0
47713	7	Sololá	701	Sololá	1	Sololá	9	Septiembre	2023-09-17T00:00:00	2024-11-08T07:00:00	2	Temperatura media	13.2
47714	7	Sololá	701	Sololá	1	Sololá	9	Septiembre	2023-09-17T00:00:00	2024-11-08T07:00:00	4	Temperatura máxima	13.2
47715	7	Sololá	701	Sololá	1	Sololá	9	Septiembre	2023-09-17T00:00:00	2024-11-08T07:00:00	3	Temperatura mínima	11.8
47716	7	Sololá	701	Sololá	1	Sololá	9	Septiembre	2023-09-17T00:00:00	2024-11-08T07:00:00	5	Humedad	85
47717	7	Sololá	701	Sololá	1	Sololá	9	Septiembre	2023-09-17T00:00:00	2024-11-08T07:00:00	6	Velocidad del viento	0
47718	7	Sololá	701	Sololá	1	Sololá	9	Septiembre	2023-09-17T00:00:00	2024-11-08T07:00:00	7	Dirección del viento	0
47719	7	Sololá	701	Sololá	1	Sololá	9	Septiembre	2023-09-17T00:00:00	2024-11-08T07:00:00	1	Precipitación	0
47720	7	Sololá	701	Sololá	1	Sololá	9	Septiembre	2023-09-17T00:00:00	2024-11-08T07:00:00	8	Radiación solar	19
47721	7	Sololá	701	Sololá	1	Sololá	9	Septiembre	2023-09-17T00:00:00	2024-11-08T08:00:00	2	Temperatura media	16.8
47722	7	Sololá	701	Sololá	1	Sololá	9	Septiembre	2023-09-17T00:00:00	2024-11-08T08:00:00	4	Temperatura máxima	16.8
47723	7	Sololá	701	Sololá	1	Sololá	9	Septiembre	2023-09-17T00:00:00	2024-11-08T08:00:00	3	Temperatura mínima	13.2
47724	7	Sololá	701	Sololá	1	Sololá	9	Septiembre	2023-09-17T00:00:00	2024-11-08T08:00:00	5	Humedad	77
47725	7	Sololá	701	Sololá	1	Sololá	9	Septiembre	2023-09-17T00:00:00	2024-11-08T08:00:00	6	Velocidad del viento	0
47726	7	Sololá	701	Sololá	1	Sololá	9	Septiembre	2023-09-17T00:00:00	2024-11-08T08:00:00	7	Dirección del viento	0
47727	7	Sololá	701	Sololá	1	Sololá	9	Septiembre	2023-09-17T00:00:00	2024-11-08T08:00:00	1	Precipitación	0
47728	7	Sololá	701	Sololá	1	Sololá	9	Septiembre	2023-09-17T00:00:00	2024-11-08T08:00:00	8	Radiación solar	161
47729	7	Sololá	701	Sololá	1	Sololá	9	Septiembre	2023-09-17T00:00:00	2024-11-08T09:00:00	2	Temperatura media	19.9
47730	7	Sololá	701	Sololá	1	Sololá	9	Septiembre	2023-09-17T00:00:00	2024-11-08T09:00:00	4	Temperatura máxima	19.9
47731	7	Sololá	701	Sololá	1	Sololá	9	Septiembre	2023-09-17T00:00:00	2024-11-08T09:00:00	3	Temperatura mínima	16.8
47732	7	Sololá	701	Sololá	1	Sololá	9	Septiembre	2023-09-17T00:00:00	2024-11-08T09:00:00	5	Humedad	72
47733	7	Sololá	701	Sololá	1	Sololá	9	Septiembre	2023-09-17T00:00:00	2024-11-08T09:00:00	6	Velocidad del viento	0
47734	7	Sololá	701	Sololá	1	Sololá	9	Septiembre	2023-09-17T00:00:00	2024-11-08T09:00:00	7	Dirección del viento	0
47735	7	Sololá	701	Sololá	1	Sololá	9	Septiembre	2023-09-17T00:00:00	2024-11-08T09:00:00	1	Precipitación	0
47736	7	Sololá	701	Sololá	1	Sololá	9	Septiembre	2023-09-17T00:00:00	2024-11-08T09:00:00	8	Radiación solar	591
47737	7	Sololá	701	Sololá	1	Sololá	9	Septiembre	2023-09-17T00:00:00	2024-11-08T10:00:00	2	Temperatura media	21.2
47738	7	Sololá	701	Sololá	1	Sololá	9	Septiembre	2023-09-17T00:00:00	2024-11-08T10:00:00	4	Temperatura máxima	21.2
47739	7	Sololá	701	Sololá	1	Sololá	9	Septiembre	2023-09-17T00:00:00	2024-11-08T10:00:00	3	Temperatura mínima	19.8
47740	7	Sololá	701	Sololá	1	Sololá	9	Septiembre	2023-09-17T00:00:00	2024-11-08T10:00:00	5	Humedad	68
47741	7	Sololá	701	Sololá	1	Sololá	9	Septiembre	2023-09-17T00:00:00	2024-11-08T10:00:00	6	Velocidad del viento	0
47742	7	Sololá	701	Sololá	1	Sololá	9	Septiembre	2023-09-17T00:00:00	2024-11-08T10:00:00	7	Dirección del viento	0
47743	7	Sololá	701	Sololá	1	Sololá	9	Septiembre	2023-09-17T00:00:00	2024-11-08T10:00:00	1	Precipitación	0
47744	7	Sololá	701	Sololá	1	Sololá	9	Septiembre	2023-09-17T00:00:00	2024-11-08T10:00:00	8	Radiación solar	806
47745	7	Sololá	701	Sololá	1	Sololá	9	Septiembre	2023-09-17T00:00:00	2024-11-08T11:00:00	2	Temperatura media	21.6
47746	7	Sololá	701	Sololá	1	Sololá	9	Septiembre	2023-09-17T00:00:00	2024-11-08T11:00:00	4	Temperatura máxima	21.8
47747	7	Sololá	701	Sololá	1	Sololá	9	Septiembre	2023-09-17T00:00:00	2024-11-08T11:00:00	3	Temperatura mínima	21.2
47748	7	Sololá	701	Sololá	1	Sololá	9	Septiembre	2023-09-17T00:00:00	2024-11-08T11:00:00	5	Humedad	65
47749	7	Sololá	701	Sololá	1	Sololá	9	Septiembre	2023-09-17T00:00:00	2024-11-08T11:00:00	6	Velocidad del viento	0
47750	7	Sololá	701	Sololá	1	Sololá	9	Septiembre	2023-09-17T00:00:00	2024-11-08T11:00:00	7	Dirección del viento	0
47751	7	Sololá	701	Sololá	1	Sololá	9	Septiembre	2023-09-17T00:00:00	2024-11-08T11:00:00	1	Precipitación	0
47752	7	Sololá	701	Sololá	1	Sololá	9	Septiembre	2023-09-17T00:00:00	2024-11-08T11:00:00	8	Radiación solar	691
47753	7	Sololá	701	Sololá	1	Sololá	9	Septiembre	2023-09-17T00:00:00	2024-11-08T12:00:00	2	Temperatura media	22.3
47754	7	Sololá	701	Sololá	1	Sololá	9	Septiembre	2023-09-17T00:00:00	2024-11-08T12:00:00	4	Temperatura máxima	22.3
47755	7	Sololá	701	Sololá	1	Sololá	9	Septiembre	2023-09-17T00:00:00	2024-11-08T12:00:00	3	Temperatura mínima	21.6
47756	7	Sololá	701	Sololá	1	Sololá	9	Septiembre	2023-09-17T00:00:00	2024-11-08T12:00:00	5	Humedad	62
47757	7	Sololá	701	Sololá	1	Sololá	9	Septiembre	2023-09-17T00:00:00	2024-11-08T12:00:00	6	Velocidad del viento	0
47758	7	Sololá	701	Sololá	1	Sololá	9	Septiembre	2023-09-17T00:00:00	2024-11-08T12:00:00	7	Dirección del viento	0
47759	7	Sololá	701	Sololá	1	Sololá	9	Septiembre	2023-09-17T00:00:00	2024-11-08T12:00:00	1	Precipitación	0
47760	7	Sololá	701	Sololá	1	Sololá	9	Septiembre	2023-09-17T00:00:00	2024-11-08T12:00:00	8	Radiación solar	584
47761	7	Sololá	701	Sololá	1	Sololá	9	Septiembre	2023-09-17T00:00:00	2024-11-08T13:00:00	2	Temperatura media	22.4
47762	7	Sololá	701	Sololá	1	Sololá	9	Septiembre	2023-09-17T00:00:00	2024-11-08T13:00:00	4	Temperatura máxima	22.7
47763	7	Sololá	701	Sololá	1	Sololá	9	Septiembre	2023-09-17T00:00:00	2024-11-08T13:00:00	3	Temperatura mínima	22.2
47764	7	Sololá	701	Sololá	1	Sololá	9	Septiembre	2023-09-17T00:00:00	2024-11-08T13:00:00	5	Humedad	71
47765	7	Sololá	701	Sololá	1	Sololá	9	Septiembre	2023-09-17T00:00:00	2024-11-08T13:00:00	6	Velocidad del viento	0
47766	7	Sololá	701	Sololá	1	Sololá	9	Septiembre	2023-09-17T00:00:00	2024-11-08T13:00:00	7	Dirección del viento	0
47767	7	Sololá	701	Sololá	1	Sololá	9	Septiembre	2023-09-17T00:00:00	2024-11-08T13:00:00	1	Precipitación	0
47768	7	Sololá	701	Sololá	1	Sololá	9	Septiembre	2023-09-17T00:00:00	2024-11-08T13:00:00	8	Radiación solar	315
47769	7	Sololá	701	Sololá	1	Sololá	9	Septiembre	2023-09-17T00:00:00	2024-11-08T14:00:00	2	Temperatura media	22.4
47770	7	Sololá	701	Sololá	1	Sololá	9	Septiembre	2023-09-17T00:00:00	2024-11-08T14:00:00	4	Temperatura máxima	22.8
47771	7	Sololá	701	Sololá	1	Sololá	9	Septiembre	2023-09-17T00:00:00	2024-11-08T14:00:00	3	Temperatura mínima	22.3
47772	7	Sololá	701	Sololá	1	Sololá	9	Septiembre	2023-09-17T00:00:00	2024-11-08T14:00:00	5	Humedad	74
47773	7	Sololá	701	Sololá	1	Sololá	9	Septiembre	2023-09-17T00:00:00	2024-11-08T14:00:00	6	Velocidad del viento	0
47774	7	Sololá	701	Sololá	1	Sololá	9	Septiembre	2023-09-17T00:00:00	2024-11-08T14:00:00	7	Dirección del viento	0
47775	7	Sololá	701	Sololá	1	Sololá	9	Septiembre	2023-09-17T00:00:00	2024-11-08T14:00:00	1	Precipitación	0
47776	7	Sololá	701	Sololá	1	Sololá	9	Septiembre	2023-09-17T00:00:00	2024-11-08T14:00:00	8	Radiación solar	197
47777	7	Sololá	701	Sololá	1	Sololá	9	Septiembre	2023-09-17T00:00:00	2024-11-08T15:00:00	2	Temperatura media	22.4
47778	7	Sololá	701	Sololá	1	Sololá	9	Septiembre	2023-09-17T00:00:00	2024-11-08T15:00:00	4	Temperatura máxima	22.8
47779	7	Sololá	701	Sololá	1	Sololá	9	Septiembre	2023-09-17T00:00:00	2024-11-08T15:00:00	3	Temperatura mínima	22.3
47780	7	Sololá	701	Sololá	1	Sololá	9	Septiembre	2023-09-17T00:00:00	2024-11-08T15:00:00	5	Humedad	76
47781	7	Sololá	701	Sololá	1	Sololá	9	Septiembre	2023-09-17T00:00:00	2024-11-08T15:00:00	6	Velocidad del viento	0
47782	7	Sololá	701	Sololá	1	Sololá	9	Septiembre	2023-09-17T00:00:00	2024-11-08T15:00:00	7	Dirección del viento	0
47783	7	Sololá	701	Sololá	1	Sololá	9	Septiembre	2023-09-17T00:00:00	2024-11-08T15:00:00	1	Precipitación	0
47784	7	Sololá	701	Sololá	1	Sololá	9	Septiembre	2023-09-17T00:00:00	2024-11-08T15:00:00	8	Radiación solar	136
47785	7	Sololá	701	Sololá	1	Sololá	9	Septiembre	2023-09-17T00:00:00	2024-11-08T16:00:00	2	Temperatura media	22.2
47786	7	Sololá	701	Sololá	1	Sololá	9	Septiembre	2023-09-17T00:00:00	2024-11-08T16:00:00	4	Temperatura máxima	22.7
47787	7	Sololá	701	Sololá	1	Sololá	9	Septiembre	2023-09-17T00:00:00	2024-11-08T16:00:00	3	Temperatura mínima	22.1
47788	7	Sololá	701	Sololá	1	Sololá	9	Septiembre	2023-09-17T00:00:00	2024-11-08T16:00:00	5	Humedad	75
47789	7	Sololá	701	Sololá	1	Sololá	9	Septiembre	2023-09-17T00:00:00	2024-11-08T16:00:00	6	Velocidad del viento	0
47790	7	Sololá	701	Sololá	1	Sololá	9	Septiembre	2023-09-17T00:00:00	2024-11-08T16:00:00	7	Dirección del viento	0
47791	7	Sololá	701	Sololá	1	Sololá	9	Septiembre	2023-09-17T00:00:00	2024-11-08T16:00:00	1	Precipitación	0
47792	7	Sololá	701	Sololá	1	Sololá	9	Septiembre	2023-09-17T00:00:00	2024-11-08T16:00:00	8	Radiación solar	99
47793	7	Sololá	701	Sololá	1	Sololá	9	Septiembre	2023-09-17T00:00:00	2024-11-08T17:00:00	2	Temperatura media	21.3
47794	7	Sololá	701	Sololá	1	Sololá	9	Septiembre	2023-09-17T00:00:00	2024-11-08T17:00:00	4	Temperatura máxima	22.2
47795	7	Sololá	701	Sololá	1	Sololá	9	Septiembre	2023-09-17T00:00:00	2024-11-08T17:00:00	3	Temperatura mínima	21.3
47796	7	Sololá	701	Sololá	1	Sololá	9	Septiembre	2023-09-17T00:00:00	2024-11-08T17:00:00	5	Humedad	79
47797	7	Sololá	701	Sololá	1	Sololá	9	Septiembre	2023-09-17T00:00:00	2024-11-08T17:00:00	6	Velocidad del viento	0
47798	7	Sololá	701	Sololá	1	Sololá	9	Septiembre	2023-09-17T00:00:00	2024-11-08T17:00:00	7	Dirección del viento	0
47799	7	Sololá	701	Sololá	1	Sololá	9	Septiembre	2023-09-17T00:00:00	2024-11-08T17:00:00	1	Precipitación	0
47800	7	Sololá	701	Sololá	1	Sololá	9	Septiembre	2023-09-17T00:00:00	2024-11-08T17:00:00	8	Radiación solar	39
47801	7	Sololá	701	Sololá	1	Sololá	9	Septiembre	2023-09-17T00:00:00	2024-11-08T18:00:00	2	Temperatura media	19.3
47802	7	Sololá	701	Sololá	1	Sololá	9	Septiembre	2023-09-17T00:00:00	2024-11-08T18:00:00	4	Temperatura máxima	21.3
47803	7	Sololá	701	Sololá	1	Sololá	9	Septiembre	2023-09-17T00:00:00	2024-11-08T18:00:00	3	Temperatura mínima	19.3
47804	7	Sololá	701	Sololá	1	Sololá	9	Septiembre	2023-09-17T00:00:00	2024-11-08T18:00:00	5	Humedad	89
47805	7	Sololá	701	Sololá	1	Sololá	9	Septiembre	2023-09-17T00:00:00	2024-11-08T18:00:00	6	Velocidad del viento	0
47806	7	Sololá	701	Sololá	1	Sololá	9	Septiembre	2023-09-17T00:00:00	2024-11-08T18:00:00	7	Dirección del viento	0
47807	7	Sololá	701	Sololá	1	Sololá	9	Septiembre	2023-09-17T00:00:00	2024-11-08T18:00:00	1	Precipitación	0
47808	7	Sololá	701	Sololá	1	Sololá	9	Septiembre	2023-09-17T00:00:00	2024-11-08T18:00:00	8	Radiación solar	19
47809	7	Sololá	701	Sololá	1	Sololá	9	Septiembre	2023-09-17T00:00:00	2024-11-08T19:00:00	2	Temperatura media	18.2
47810	7	Sololá	701	Sololá	1	Sololá	9	Septiembre	2023-09-17T00:00:00	2024-11-08T19:00:00	4	Temperatura máxima	19.3
47811	7	Sololá	701	Sololá	1	Sololá	9	Septiembre	2023-09-17T00:00:00	2024-11-08T19:00:00	3	Temperatura mínima	18.2
47812	7	Sololá	701	Sololá	1	Sololá	9	Septiembre	2023-09-17T00:00:00	2024-11-08T19:00:00	5	Humedad	91
47813	7	Sololá	701	Sololá	1	Sololá	9	Septiembre	2023-09-17T00:00:00	2024-11-08T19:00:00	6	Velocidad del viento	0
47814	7	Sololá	701	Sololá	1	Sololá	9	Septiembre	2023-09-17T00:00:00	2024-11-08T19:00:00	7	Dirección del viento	0
47815	7	Sololá	701	Sololá	1	Sololá	9	Septiembre	2023-09-17T00:00:00	2024-11-08T19:00:00	1	Precipitación	0
47816	7	Sololá	701	Sololá	1	Sololá	9	Septiembre	2023-09-17T00:00:00	2024-11-08T19:00:00	8	Radiación solar	0
47817	7	Sololá	701	Sololá	1	Sololá	9	Septiembre	2023-09-17T00:00:00	2024-11-08T20:00:00	2	Temperatura media	17.2
47818	7	Sololá	701	Sololá	1	Sololá	9	Septiembre	2023-09-17T00:00:00	2024-11-08T20:00:00	4	Temperatura máxima	18.2
47819	7	Sololá	701	Sololá	1	Sololá	9	Septiembre	2023-09-17T00:00:00	2024-11-08T20:00:00	3	Temperatura mínima	17.2
47820	7	Sololá	701	Sololá	1	Sololá	9	Septiembre	2023-09-17T00:00:00	2024-11-08T20:00:00	5	Humedad	87
47821	7	Sololá	701	Sololá	1	Sololá	9	Septiembre	2023-09-17T00:00:00	2024-11-08T20:00:00	6	Velocidad del viento	0
47822	7	Sololá	701	Sololá	1	Sololá	9	Septiembre	2023-09-17T00:00:00	2024-11-08T20:00:00	7	Dirección del viento	0
47823	7	Sololá	701	Sololá	1	Sololá	9	Septiembre	2023-09-17T00:00:00	2024-11-08T20:00:00	1	Precipitación	0
47824	7	Sololá	701	Sololá	1	Sololá	9	Septiembre	2023-09-17T00:00:00	2024-11-08T20:00:00	8	Radiación solar	0
47825	7	Sololá	701	Sololá	1	Sololá	9	Septiembre	2023-09-17T00:00:00	2024-11-08T21:00:00	2	Temperatura media	17.2
47826	7	Sololá	701	Sololá	1	Sololá	9	Septiembre	2023-09-17T00:00:00	2024-11-08T21:00:00	4	Temperatura máxima	17.2
47827	7	Sololá	701	Sololá	1	Sololá	9	Septiembre	2023-09-17T00:00:00	2024-11-08T21:00:00	3	Temperatura mínima	17.1
47828	7	Sololá	701	Sololá	1	Sololá	9	Septiembre	2023-09-17T00:00:00	2024-11-08T21:00:00	5	Humedad	89
47829	7	Sololá	701	Sololá	1	Sololá	9	Septiembre	2023-09-17T00:00:00	2024-11-08T21:00:00	6	Velocidad del viento	0
47830	7	Sololá	701	Sololá	1	Sololá	9	Septiembre	2023-09-17T00:00:00	2024-11-08T21:00:00	7	Dirección del viento	0
47831	7	Sololá	701	Sololá	1	Sololá	9	Septiembre	2023-09-17T00:00:00	2024-11-08T21:00:00	1	Precipitación	0
47832	7	Sololá	701	Sololá	1	Sololá	9	Septiembre	2023-09-17T00:00:00	2024-11-08T21:00:00	8	Radiación solar	0
47833	7	Sololá	701	Sololá	1	Sololá	9	Septiembre	2023-09-17T00:00:00	2024-11-08T22:00:00	2	Temperatura media	16.7
47834	7	Sololá	701	Sololá	1	Sololá	9	Septiembre	2023-09-17T00:00:00	2024-11-08T22:00:00	4	Temperatura máxima	17.3
47835	7	Sololá	701	Sololá	1	Sololá	9	Septiembre	2023-09-17T00:00:00	2024-11-08T22:00:00	3	Temperatura mínima	16.7
47836	7	Sololá	701	Sololá	1	Sololá	9	Septiembre	2023-09-17T00:00:00	2024-11-08T22:00:00	5	Humedad	92
47837	7	Sololá	701	Sololá	1	Sololá	9	Septiembre	2023-09-17T00:00:00	2024-11-08T22:00:00	6	Velocidad del viento	0
47838	7	Sololá	701	Sololá	1	Sololá	9	Septiembre	2023-09-17T00:00:00	2024-11-08T22:00:00	7	Dirección del viento	0
47839	7	Sololá	701	Sololá	1	Sololá	9	Septiembre	2023-09-17T00:00:00	2024-11-08T22:00:00	1	Precipitación	4.8
47840	7	Sololá	701	Sololá	1	Sololá	9	Septiembre	2023-09-17T00:00:00	2024-11-08T22:00:00	8	Radiación solar	0
47841	7	Sololá	701	Sololá	1	Sololá	9	Septiembre	2023-09-17T00:00:00	2024-11-08T23:00:00	2	Temperatura media	16.3
47842	7	Sololá	701	Sololá	1	Sololá	9	Septiembre	2023-09-17T00:00:00	2024-11-08T23:00:00	4	Temperatura máxima	16.7
47843	7	Sololá	701	Sololá	1	Sololá	9	Septiembre	2023-09-17T00:00:00	2024-11-08T23:00:00	3	Temperatura mínima	16.2
47844	7	Sololá	701	Sololá	1	Sololá	9	Septiembre	2023-09-17T00:00:00	2024-11-08T23:00:00	5	Humedad	94
47845	7	Sololá	701	Sololá	1	Sololá	9	Septiembre	2023-09-17T00:00:00	2024-11-08T23:00:00	6	Velocidad del viento	0
47846	7	Sololá	701	Sololá	1	Sololá	9	Septiembre	2023-09-17T00:00:00	2024-11-08T23:00:00	7	Dirección del viento	0
47847	7	Sololá	701	Sololá	1	Sololá	9	Septiembre	2023-09-17T00:00:00	2024-11-08T23:00:00	1	Precipitación	0.2
47848	7	Sololá	701	Sololá	1	Sololá	9	Septiembre	2023-09-17T00:00:00	2024-11-08T23:00:00	8	Radiación solar	0
47849	7	Sololá	701	Sololá	1	Sololá	9	Septiembre	2023-09-18T00:00:00	2024-11-08T00:00:00	2	Temperatura media	14.8
47850	7	Sololá	701	Sololá	1	Sololá	9	Septiembre	2023-09-18T00:00:00	2024-11-08T00:00:00	4	Temperatura máxima	16.3
47851	7	Sololá	701	Sololá	1	Sololá	9	Septiembre	2023-09-18T00:00:00	2024-11-08T00:00:00	3	Temperatura mínima	14.8
47852	7	Sololá	701	Sololá	1	Sololá	9	Septiembre	2023-09-18T00:00:00	2024-11-08T00:00:00	5	Humedad	93
47853	7	Sololá	701	Sololá	1	Sololá	9	Septiembre	2023-09-18T00:00:00	2024-11-08T00:00:00	6	Velocidad del viento	0
47854	7	Sololá	701	Sololá	1	Sololá	9	Septiembre	2023-09-18T00:00:00	2024-11-08T00:00:00	7	Dirección del viento	0
47855	7	Sololá	701	Sololá	1	Sololá	9	Septiembre	2023-09-18T00:00:00	2024-11-08T00:00:00	1	Precipitación	3
47856	7	Sololá	701	Sololá	1	Sololá	9	Septiembre	2023-09-18T00:00:00	2024-11-08T00:00:00	8	Radiación solar	0
47857	7	Sololá	701	Sololá	1	Sololá	9	Septiembre	2023-09-18T00:00:00	2024-11-08T01:00:00	2	Temperatura media	13.8
47858	7	Sololá	701	Sololá	1	Sololá	9	Septiembre	2023-09-18T00:00:00	2024-11-08T01:00:00	4	Temperatura máxima	14.8
47859	7	Sololá	701	Sololá	1	Sololá	9	Septiembre	2023-09-18T00:00:00	2024-11-08T01:00:00	3	Temperatura mínima	13.8
47860	7	Sololá	701	Sololá	1	Sololá	9	Septiembre	2023-09-18T00:00:00	2024-11-08T01:00:00	5	Humedad	94
47861	7	Sololá	701	Sololá	1	Sololá	9	Septiembre	2023-09-18T00:00:00	2024-11-08T01:00:00	6	Velocidad del viento	0
47862	7	Sololá	701	Sololá	1	Sololá	9	Septiembre	2023-09-18T00:00:00	2024-11-08T01:00:00	7	Dirección del viento	0
47863	7	Sololá	701	Sololá	1	Sololá	9	Septiembre	2023-09-18T00:00:00	2024-11-08T01:00:00	1	Precipitación	0.2
47864	7	Sololá	701	Sololá	1	Sololá	9	Septiembre	2023-09-18T00:00:00	2024-11-08T01:00:00	8	Radiación solar	0
47865	7	Sololá	701	Sololá	1	Sololá	9	Septiembre	2023-09-18T00:00:00	2024-11-08T02:00:00	2	Temperatura media	13.4
47866	7	Sololá	701	Sololá	1	Sololá	9	Septiembre	2023-09-18T00:00:00	2024-11-08T02:00:00	4	Temperatura máxima	13.8
47867	7	Sololá	701	Sololá	1	Sololá	9	Septiembre	2023-09-18T00:00:00	2024-11-08T02:00:00	3	Temperatura mínima	13.3
47868	7	Sololá	701	Sololá	1	Sololá	9	Septiembre	2023-09-18T00:00:00	2024-11-08T02:00:00	5	Humedad	89
47869	7	Sololá	701	Sololá	1	Sololá	9	Septiembre	2023-09-18T00:00:00	2024-11-08T02:00:00	6	Velocidad del viento	0
47870	7	Sololá	701	Sololá	1	Sololá	9	Septiembre	2023-09-18T00:00:00	2024-11-08T02:00:00	7	Dirección del viento	0
47871	7	Sololá	701	Sololá	1	Sololá	9	Septiembre	2023-09-18T00:00:00	2024-11-08T02:00:00	1	Precipitación	0
47872	7	Sololá	701	Sololá	1	Sololá	9	Septiembre	2023-09-18T00:00:00	2024-11-08T02:00:00	8	Radiación solar	0
47873	7	Sololá	701	Sololá	1	Sololá	9	Septiembre	2023-09-18T00:00:00	2024-11-08T03:00:00	2	Temperatura media	13.4
47874	7	Sololá	701	Sololá	1	Sololá	9	Septiembre	2023-09-18T00:00:00	2024-11-08T03:00:00	4	Temperatura máxima	13.4
47875	7	Sololá	701	Sololá	1	Sololá	9	Septiembre	2023-09-18T00:00:00	2024-11-08T03:00:00	3	Temperatura mínima	13.3
47876	7	Sololá	701	Sololá	1	Sololá	9	Septiembre	2023-09-18T00:00:00	2024-11-08T03:00:00	5	Humedad	89
47877	7	Sololá	701	Sololá	1	Sololá	9	Septiembre	2023-09-18T00:00:00	2024-11-08T03:00:00	6	Velocidad del viento	0
47878	7	Sololá	701	Sololá	1	Sololá	9	Septiembre	2023-09-18T00:00:00	2024-11-08T03:00:00	7	Dirección del viento	0
47879	7	Sololá	701	Sololá	1	Sololá	9	Septiembre	2023-09-18T00:00:00	2024-11-08T03:00:00	1	Precipitación	0
47880	7	Sololá	701	Sololá	1	Sololá	9	Septiembre	2023-09-18T00:00:00	2024-11-08T03:00:00	8	Radiación solar	0
47881	7	Sololá	701	Sololá	1	Sololá	9	Septiembre	2023-09-18T00:00:00	2024-11-08T04:00:00	2	Temperatura media	13.3
47882	7	Sololá	701	Sololá	1	Sololá	9	Septiembre	2023-09-18T00:00:00	2024-11-08T04:00:00	4	Temperatura máxima	13.4
47883	7	Sololá	701	Sololá	1	Sololá	9	Septiembre	2023-09-18T00:00:00	2024-11-08T04:00:00	3	Temperatura mínima	13.3
47884	7	Sololá	701	Sololá	1	Sololá	9	Septiembre	2023-09-18T00:00:00	2024-11-08T04:00:00	5	Humedad	89
47885	7	Sololá	701	Sololá	1	Sololá	9	Septiembre	2023-09-18T00:00:00	2024-11-08T04:00:00	6	Velocidad del viento	0
47886	7	Sololá	701	Sololá	1	Sololá	9	Septiembre	2023-09-18T00:00:00	2024-11-08T04:00:00	7	Dirección del viento	0
47887	7	Sololá	701	Sololá	1	Sololá	9	Septiembre	2023-09-18T00:00:00	2024-11-08T04:00:00	1	Precipitación	0
47888	7	Sololá	701	Sololá	1	Sololá	9	Septiembre	2023-09-18T00:00:00	2024-11-08T04:00:00	8	Radiación solar	0
47889	7	Sololá	701	Sololá	1	Sololá	9	Septiembre	2023-09-18T00:00:00	2024-11-08T05:00:00	2	Temperatura media	13.2
47890	7	Sololá	701	Sololá	1	Sololá	9	Septiembre	2023-09-18T00:00:00	2024-11-08T05:00:00	4	Temperatura máxima	13.3
47891	7	Sololá	701	Sololá	1	Sololá	9	Septiembre	2023-09-18T00:00:00	2024-11-08T05:00:00	3	Temperatura mínima	13.2
47892	7	Sololá	701	Sololá	1	Sololá	9	Septiembre	2023-09-18T00:00:00	2024-11-08T05:00:00	5	Humedad	90
47893	7	Sololá	701	Sololá	1	Sololá	9	Septiembre	2023-09-18T00:00:00	2024-11-08T05:00:00	6	Velocidad del viento	0
47894	7	Sololá	701	Sololá	1	Sololá	9	Septiembre	2023-09-18T00:00:00	2024-11-08T05:00:00	7	Dirección del viento	0
47895	7	Sololá	701	Sololá	1	Sololá	9	Septiembre	2023-09-18T00:00:00	2024-11-08T05:00:00	1	Precipitación	0
47896	7	Sololá	701	Sololá	1	Sololá	9	Septiembre	2023-09-18T00:00:00	2024-11-08T05:00:00	8	Radiación solar	0
47897	7	Sololá	701	Sololá	1	Sololá	9	Septiembre	2023-09-18T00:00:00	2024-11-08T06:00:00	2	Temperatura media	13.3
47898	7	Sololá	701	Sololá	1	Sololá	9	Septiembre	2023-09-18T00:00:00	2024-11-08T06:00:00	4	Temperatura máxima	13.4
47899	7	Sololá	701	Sololá	1	Sololá	9	Septiembre	2023-09-18T00:00:00	2024-11-08T06:00:00	3	Temperatura mínima	13.2
47900	7	Sololá	701	Sololá	1	Sololá	9	Septiembre	2023-09-18T00:00:00	2024-11-08T06:00:00	5	Humedad	88
47901	7	Sololá	701	Sololá	1	Sololá	9	Septiembre	2023-09-18T00:00:00	2024-11-08T06:00:00	6	Velocidad del viento	0
47902	7	Sololá	701	Sololá	1	Sololá	9	Septiembre	2023-09-18T00:00:00	2024-11-08T06:00:00	7	Dirección del viento	0
47903	7	Sololá	701	Sololá	1	Sololá	9	Septiembre	2023-09-18T00:00:00	2024-11-08T06:00:00	1	Precipitación	0
47904	7	Sololá	701	Sololá	1	Sololá	9	Septiembre	2023-09-18T00:00:00	2024-11-08T06:00:00	8	Radiación solar	0
47905	7	Sololá	701	Sololá	1	Sololá	9	Septiembre	2023-09-18T00:00:00	2024-11-08T07:00:00	2	Temperatura media	13.8
47906	7	Sololá	701	Sololá	1	Sololá	9	Septiembre	2023-09-18T00:00:00	2024-11-08T07:00:00	4	Temperatura máxima	13.8
47907	7	Sololá	701	Sololá	1	Sololá	9	Septiembre	2023-09-18T00:00:00	2024-11-08T07:00:00	3	Temperatura mínima	13.3
47908	7	Sololá	701	Sololá	1	Sololá	9	Septiembre	2023-09-18T00:00:00	2024-11-08T07:00:00	5	Humedad	87
47909	7	Sololá	701	Sololá	1	Sololá	9	Septiembre	2023-09-18T00:00:00	2024-11-08T07:00:00	6	Velocidad del viento	0
47910	7	Sololá	701	Sololá	1	Sololá	9	Septiembre	2023-09-18T00:00:00	2024-11-08T07:00:00	7	Dirección del viento	0
47911	7	Sololá	701	Sololá	1	Sololá	9	Septiembre	2023-09-18T00:00:00	2024-11-08T07:00:00	1	Precipitación	0
47912	7	Sololá	701	Sololá	1	Sololá	9	Septiembre	2023-09-18T00:00:00	2024-11-08T07:00:00	8	Radiación solar	28
47913	7	Sololá	701	Sololá	1	Sololá	9	Septiembre	2023-09-18T00:00:00	2024-11-08T08:00:00	2	Temperatura media	15.5
47914	7	Sololá	701	Sololá	1	Sololá	9	Septiembre	2023-09-18T00:00:00	2024-11-08T08:00:00	4	Temperatura máxima	15.5
47915	7	Sololá	701	Sololá	1	Sololá	9	Septiembre	2023-09-18T00:00:00	2024-11-08T08:00:00	3	Temperatura mínima	13.8
47916	7	Sololá	701	Sololá	1	Sololá	9	Septiembre	2023-09-18T00:00:00	2024-11-08T08:00:00	5	Humedad	85
47917	7	Sololá	701	Sololá	1	Sololá	9	Septiembre	2023-09-18T00:00:00	2024-11-08T08:00:00	6	Velocidad del viento	0
47918	7	Sololá	701	Sololá	1	Sololá	9	Septiembre	2023-09-18T00:00:00	2024-11-08T08:00:00	7	Dirección del viento	0
47919	7	Sololá	701	Sololá	1	Sololá	9	Septiembre	2023-09-18T00:00:00	2024-11-08T08:00:00	1	Precipitación	0
47920	7	Sololá	701	Sololá	1	Sololá	9	Septiembre	2023-09-18T00:00:00	2024-11-08T08:00:00	8	Radiación solar	123
47921	7	Sololá	701	Sololá	1	Sololá	9	Septiembre	2023-09-18T00:00:00	2024-11-08T09:00:00	2	Temperatura media	20.2
47922	7	Sololá	701	Sololá	1	Sololá	9	Septiembre	2023-09-18T00:00:00	2024-11-08T09:00:00	4	Temperatura máxima	20.2
47923	7	Sololá	701	Sololá	1	Sololá	9	Septiembre	2023-09-18T00:00:00	2024-11-08T09:00:00	3	Temperatura mínima	15.5
47924	7	Sololá	701	Sololá	1	Sololá	9	Septiembre	2023-09-18T00:00:00	2024-11-08T09:00:00	5	Humedad	63
47925	7	Sololá	701	Sololá	1	Sololá	9	Septiembre	2023-09-18T00:00:00	2024-11-08T09:00:00	6	Velocidad del viento	0
47926	7	Sololá	701	Sololá	1	Sololá	9	Septiembre	2023-09-18T00:00:00	2024-11-08T09:00:00	7	Dirección del viento	0
47927	7	Sololá	701	Sololá	1	Sololá	9	Septiembre	2023-09-18T00:00:00	2024-11-08T09:00:00	1	Precipitación	0
47928	7	Sololá	701	Sololá	1	Sololá	9	Septiembre	2023-09-18T00:00:00	2024-11-08T09:00:00	8	Radiación solar	654
47929	7	Sololá	701	Sololá	1	Sololá	9	Septiembre	2023-09-18T00:00:00	2024-11-08T10:00:00	2	Temperatura media	22.2
47930	7	Sololá	701	Sololá	1	Sololá	9	Septiembre	2023-09-18T00:00:00	2024-11-08T10:00:00	4	Temperatura máxima	22.2
47931	7	Sololá	701	Sololá	1	Sololá	9	Septiembre	2023-09-18T00:00:00	2024-11-08T10:00:00	3	Temperatura mínima	19.9
47932	7	Sololá	701	Sololá	1	Sololá	9	Septiembre	2023-09-18T00:00:00	2024-11-08T10:00:00	5	Humedad	57
47933	7	Sololá	701	Sololá	1	Sololá	9	Septiembre	2023-09-18T00:00:00	2024-11-08T10:00:00	6	Velocidad del viento	0
47934	7	Sololá	701	Sololá	1	Sololá	9	Septiembre	2023-09-18T00:00:00	2024-11-08T10:00:00	7	Dirección del viento	0
47935	7	Sololá	701	Sololá	1	Sololá	9	Septiembre	2023-09-18T00:00:00	2024-11-08T10:00:00	1	Precipitación	0
47936	7	Sololá	701	Sololá	1	Sololá	9	Septiembre	2023-09-18T00:00:00	2024-11-08T10:00:00	8	Radiación solar	734
47937	7	Sololá	701	Sololá	1	Sololá	9	Septiembre	2023-09-18T00:00:00	2024-11-08T11:00:00	2	Temperatura media	21.5
47938	7	Sololá	701	Sololá	1	Sololá	9	Septiembre	2023-09-18T00:00:00	2024-11-08T11:00:00	4	Temperatura máxima	22.2
47939	7	Sololá	701	Sololá	1	Sololá	9	Septiembre	2023-09-18T00:00:00	2024-11-08T11:00:00	3	Temperatura mínima	21.2
47940	7	Sololá	701	Sololá	1	Sololá	9	Septiembre	2023-09-18T00:00:00	2024-11-08T11:00:00	5	Humedad	65
47941	7	Sololá	701	Sololá	1	Sololá	9	Septiembre	2023-09-18T00:00:00	2024-11-08T11:00:00	6	Velocidad del viento	0
47942	7	Sololá	701	Sololá	1	Sololá	9	Septiembre	2023-09-18T00:00:00	2024-11-08T11:00:00	7	Dirección del viento	0
47943	7	Sololá	701	Sololá	1	Sololá	9	Septiembre	2023-09-18T00:00:00	2024-11-08T11:00:00	1	Precipitación	0
47944	7	Sololá	701	Sololá	1	Sololá	9	Septiembre	2023-09-18T00:00:00	2024-11-08T11:00:00	8	Radiación solar	790
47945	7	Sololá	701	Sololá	1	Sololá	9	Septiembre	2023-09-18T00:00:00	2024-11-08T12:00:00	2	Temperatura media	22
47946	7	Sololá	701	Sololá	1	Sololá	9	Septiembre	2023-09-18T00:00:00	2024-11-08T12:00:00	4	Temperatura máxima	22.2
47947	7	Sololá	701	Sololá	1	Sololá	9	Septiembre	2023-09-18T00:00:00	2024-11-08T12:00:00	3	Temperatura mínima	21.5
47948	7	Sololá	701	Sololá	1	Sololá	9	Septiembre	2023-09-18T00:00:00	2024-11-08T12:00:00	5	Humedad	70
47949	7	Sololá	701	Sololá	1	Sololá	9	Septiembre	2023-09-18T00:00:00	2024-11-08T12:00:00	6	Velocidad del viento	0
47950	7	Sololá	701	Sololá	1	Sololá	9	Septiembre	2023-09-18T00:00:00	2024-11-08T12:00:00	7	Dirección del viento	0
47951	7	Sololá	701	Sololá	1	Sololá	9	Septiembre	2023-09-18T00:00:00	2024-11-08T12:00:00	1	Precipitación	0
47952	7	Sololá	701	Sololá	1	Sololá	9	Septiembre	2023-09-18T00:00:00	2024-11-08T12:00:00	8	Radiación solar	643
47953	7	Sololá	701	Sololá	1	Sololá	9	Septiembre	2023-09-18T00:00:00	2024-11-08T13:00:00	2	Temperatura media	21
47954	7	Sololá	701	Sololá	1	Sololá	9	Septiembre	2023-09-18T00:00:00	2024-11-08T13:00:00	4	Temperatura máxima	22.6
47955	7	Sololá	701	Sololá	1	Sololá	9	Septiembre	2023-09-18T00:00:00	2024-11-08T13:00:00	3	Temperatura mínima	20.9
47956	7	Sololá	701	Sololá	1	Sololá	9	Septiembre	2023-09-18T00:00:00	2024-11-08T13:00:00	5	Humedad	80
47957	7	Sololá	701	Sololá	1	Sololá	9	Septiembre	2023-09-18T00:00:00	2024-11-08T13:00:00	6	Velocidad del viento	0
47958	7	Sololá	701	Sololá	1	Sololá	9	Septiembre	2023-09-18T00:00:00	2024-11-08T13:00:00	7	Dirección del viento	0
47959	7	Sololá	701	Sololá	1	Sololá	9	Septiembre	2023-09-18T00:00:00	2024-11-08T13:00:00	1	Precipitación	0
47960	7	Sololá	701	Sololá	1	Sololá	9	Septiembre	2023-09-18T00:00:00	2024-11-08T13:00:00	8	Radiación solar	325
47961	7	Sololá	701	Sololá	1	Sololá	9	Septiembre	2023-09-18T00:00:00	2024-11-08T14:00:00	2	Temperatura media	20.9
47962	7	Sololá	701	Sololá	1	Sololá	9	Septiembre	2023-09-18T00:00:00	2024-11-08T14:00:00	4	Temperatura máxima	20.9
47963	7	Sololá	701	Sololá	1	Sololá	9	Septiembre	2023-09-18T00:00:00	2024-11-08T14:00:00	3	Temperatura mínima	20.2
47964	7	Sololá	701	Sololá	1	Sololá	9	Septiembre	2023-09-18T00:00:00	2024-11-08T14:00:00	5	Humedad	82
47965	7	Sololá	701	Sololá	1	Sololá	9	Septiembre	2023-09-18T00:00:00	2024-11-08T14:00:00	6	Velocidad del viento	0
47966	7	Sololá	701	Sololá	1	Sololá	9	Septiembre	2023-09-18T00:00:00	2024-11-08T14:00:00	7	Dirección del viento	0
47967	7	Sololá	701	Sololá	1	Sololá	9	Septiembre	2023-09-18T00:00:00	2024-11-08T14:00:00	1	Precipitación	0
47968	7	Sololá	701	Sololá	1	Sololá	9	Septiembre	2023-09-18T00:00:00	2024-11-08T14:00:00	8	Radiación solar	201
47969	7	Sololá	701	Sololá	1	Sololá	9	Septiembre	2023-09-18T00:00:00	2024-11-08T15:00:00	2	Temperatura media	19.7
47970	7	Sololá	701	Sololá	1	Sololá	9	Septiembre	2023-09-18T00:00:00	2024-11-08T15:00:00	4	Temperatura máxima	20.9
47971	7	Sololá	701	Sololá	1	Sololá	9	Septiembre	2023-09-18T00:00:00	2024-11-08T15:00:00	3	Temperatura mínima	19.7
47972	7	Sololá	701	Sololá	1	Sololá	9	Septiembre	2023-09-18T00:00:00	2024-11-08T15:00:00	5	Humedad	85
47973	7	Sololá	701	Sololá	1	Sololá	9	Septiembre	2023-09-18T00:00:00	2024-11-08T15:00:00	6	Velocidad del viento	0
47974	7	Sololá	701	Sololá	1	Sololá	9	Septiembre	2023-09-18T00:00:00	2024-11-08T15:00:00	7	Dirección del viento	0
47975	7	Sololá	701	Sololá	1	Sololá	9	Septiembre	2023-09-18T00:00:00	2024-11-08T15:00:00	1	Precipitación	0
47976	7	Sololá	701	Sololá	1	Sololá	9	Septiembre	2023-09-18T00:00:00	2024-11-08T15:00:00	8	Radiación solar	123
47977	7	Sololá	701	Sololá	1	Sololá	9	Septiembre	2023-09-18T00:00:00	2024-11-08T16:00:00	2	Temperatura media	18.8
47978	7	Sololá	701	Sololá	1	Sololá	9	Septiembre	2023-09-18T00:00:00	2024-11-08T16:00:00	4	Temperatura máxima	19.7
47979	7	Sololá	701	Sololá	1	Sololá	9	Septiembre	2023-09-18T00:00:00	2024-11-08T16:00:00	3	Temperatura mínima	18.8
47980	7	Sololá	701	Sololá	1	Sololá	9	Septiembre	2023-09-18T00:00:00	2024-11-08T16:00:00	5	Humedad	89
47981	7	Sololá	701	Sololá	1	Sololá	9	Septiembre	2023-09-18T00:00:00	2024-11-08T16:00:00	6	Velocidad del viento	0
47982	7	Sololá	701	Sololá	1	Sololá	9	Septiembre	2023-09-18T00:00:00	2024-11-08T16:00:00	7	Dirección del viento	0
47983	7	Sololá	701	Sololá	1	Sololá	9	Septiembre	2023-09-18T00:00:00	2024-11-08T16:00:00	1	Precipitación	0
47984	7	Sololá	701	Sololá	1	Sololá	9	Septiembre	2023-09-18T00:00:00	2024-11-08T16:00:00	8	Radiación solar	47
47985	7	Sololá	701	Sololá	1	Sololá	9	Septiembre	2023-09-18T00:00:00	2024-11-08T17:00:00	2	Temperatura media	18.1
47986	7	Sololá	701	Sololá	1	Sololá	9	Septiembre	2023-09-18T00:00:00	2024-11-08T17:00:00	4	Temperatura máxima	18.8
47987	7	Sololá	701	Sololá	1	Sololá	9	Septiembre	2023-09-18T00:00:00	2024-11-08T17:00:00	3	Temperatura mínima	18.1
47988	7	Sololá	701	Sololá	1	Sololá	9	Septiembre	2023-09-18T00:00:00	2024-11-08T17:00:00	5	Humedad	90
47989	7	Sololá	701	Sololá	1	Sololá	9	Septiembre	2023-09-18T00:00:00	2024-11-08T17:00:00	6	Velocidad del viento	0
47990	7	Sololá	701	Sololá	1	Sololá	9	Septiembre	2023-09-18T00:00:00	2024-11-08T17:00:00	7	Dirección del viento	0
47991	7	Sololá	701	Sololá	1	Sololá	9	Septiembre	2023-09-18T00:00:00	2024-11-08T17:00:00	1	Precipitación	0
47992	7	Sololá	701	Sololá	1	Sololá	9	Septiembre	2023-09-18T00:00:00	2024-11-08T17:00:00	8	Radiación solar	26
47993	7	Sololá	701	Sololá	1	Sololá	9	Septiembre	2023-09-18T00:00:00	2024-11-08T18:00:00	2	Temperatura media	17.4
47994	7	Sololá	701	Sololá	1	Sololá	9	Septiembre	2023-09-18T00:00:00	2024-11-08T18:00:00	4	Temperatura máxima	18.1
47995	7	Sololá	701	Sololá	1	Sololá	9	Septiembre	2023-09-18T00:00:00	2024-11-08T18:00:00	3	Temperatura mínima	17.4
47996	7	Sololá	701	Sololá	1	Sololá	9	Septiembre	2023-09-18T00:00:00	2024-11-08T18:00:00	5	Humedad	93
47997	7	Sololá	701	Sololá	1	Sololá	9	Septiembre	2023-09-18T00:00:00	2024-11-08T18:00:00	6	Velocidad del viento	0
47998	7	Sololá	701	Sololá	1	Sololá	9	Septiembre	2023-09-18T00:00:00	2024-11-08T18:00:00	7	Dirección del viento	0
47999	7	Sololá	701	Sololá	1	Sololá	9	Septiembre	2023-09-18T00:00:00	2024-11-08T18:00:00	1	Precipitación	0
48000	7	Sololá	701	Sololá	1	Sololá	9	Septiembre	2023-09-18T00:00:00	2024-11-08T18:00:00	8	Radiación solar	5
48001	7	Sololá	701	Sololá	1	Sololá	9	Septiembre	2023-09-18T00:00:00	2024-11-08T19:00:00	2	Temperatura media	16.6
48002	7	Sololá	701	Sololá	1	Sololá	9	Septiembre	2023-09-18T00:00:00	2024-11-08T19:00:00	4	Temperatura máxima	17.4
48003	7	Sololá	701	Sololá	1	Sololá	9	Septiembre	2023-09-18T00:00:00	2024-11-08T19:00:00	3	Temperatura mínima	16.6
48004	7	Sololá	701	Sololá	1	Sololá	9	Septiembre	2023-09-18T00:00:00	2024-11-08T19:00:00	5	Humedad	93
48005	7	Sololá	701	Sololá	1	Sololá	9	Septiembre	2023-09-18T00:00:00	2024-11-08T19:00:00	6	Velocidad del viento	0
48006	7	Sololá	701	Sololá	1	Sololá	9	Septiembre	2023-09-18T00:00:00	2024-11-08T19:00:00	7	Dirección del viento	0
48007	7	Sololá	701	Sololá	1	Sololá	9	Septiembre	2023-09-18T00:00:00	2024-11-08T19:00:00	1	Precipitación	0
48008	7	Sololá	701	Sololá	1	Sololá	9	Septiembre	2023-09-18T00:00:00	2024-11-08T19:00:00	8	Radiación solar	0
48009	7	Sololá	701	Sololá	1	Sololá	9	Septiembre	2023-09-18T00:00:00	2024-11-08T20:00:00	2	Temperatura media	16.2
48010	7	Sololá	701	Sololá	1	Sololá	9	Septiembre	2023-09-18T00:00:00	2024-11-08T20:00:00	4	Temperatura máxima	16.7
48011	7	Sololá	701	Sololá	1	Sololá	9	Septiembre	2023-09-18T00:00:00	2024-11-08T20:00:00	3	Temperatura mínima	16.2
48012	7	Sololá	701	Sololá	1	Sololá	9	Septiembre	2023-09-18T00:00:00	2024-11-08T20:00:00	5	Humedad	93
48013	7	Sololá	701	Sololá	1	Sololá	9	Septiembre	2023-09-18T00:00:00	2024-11-08T20:00:00	6	Velocidad del viento	0
48014	7	Sololá	701	Sololá	1	Sololá	9	Septiembre	2023-09-18T00:00:00	2024-11-08T20:00:00	7	Dirección del viento	0
48015	7	Sololá	701	Sololá	1	Sololá	9	Septiembre	2023-09-18T00:00:00	2024-11-08T20:00:00	1	Precipitación	0
48016	7	Sololá	701	Sololá	1	Sololá	9	Septiembre	2023-09-18T00:00:00	2024-11-08T20:00:00	8	Radiación solar	0
48017	7	Sololá	701	Sololá	1	Sololá	9	Septiembre	2023-09-18T00:00:00	2024-11-08T21:00:00	2	Temperatura media	15.4
48018	7	Sololá	701	Sololá	1	Sololá	9	Septiembre	2023-09-18T00:00:00	2024-11-08T21:00:00	4	Temperatura máxima	16.3
48019	7	Sololá	701	Sololá	1	Sololá	9	Septiembre	2023-09-18T00:00:00	2024-11-08T21:00:00	3	Temperatura mínima	15.4
48020	7	Sololá	701	Sololá	1	Sololá	9	Septiembre	2023-09-18T00:00:00	2024-11-08T21:00:00	5	Humedad	90
48021	7	Sololá	701	Sololá	1	Sololá	9	Septiembre	2023-09-18T00:00:00	2024-11-08T21:00:00	6	Velocidad del viento	0
48022	7	Sololá	701	Sololá	1	Sololá	9	Septiembre	2023-09-18T00:00:00	2024-11-08T21:00:00	7	Dirección del viento	0
48023	7	Sololá	701	Sololá	1	Sololá	9	Septiembre	2023-09-18T00:00:00	2024-11-08T21:00:00	1	Precipitación	0
48024	7	Sololá	701	Sololá	1	Sololá	9	Septiembre	2023-09-18T00:00:00	2024-11-08T21:00:00	8	Radiación solar	0
48025	7	Sololá	701	Sololá	1	Sololá	9	Septiembre	2023-09-18T00:00:00	2024-11-08T22:00:00	2	Temperatura media	14.8
48026	7	Sololá	701	Sololá	1	Sololá	9	Septiembre	2023-09-18T00:00:00	2024-11-08T22:00:00	4	Temperatura máxima	15.4
48027	7	Sololá	701	Sololá	1	Sololá	9	Septiembre	2023-09-18T00:00:00	2024-11-08T22:00:00	3	Temperatura mínima	14.8
48028	7	Sololá	701	Sololá	1	Sololá	9	Septiembre	2023-09-18T00:00:00	2024-11-08T22:00:00	5	Humedad	89
48029	7	Sololá	701	Sololá	1	Sololá	9	Septiembre	2023-09-18T00:00:00	2024-11-08T22:00:00	6	Velocidad del viento	0
48030	7	Sololá	701	Sololá	1	Sololá	9	Septiembre	2023-09-18T00:00:00	2024-11-08T22:00:00	7	Dirección del viento	0
48031	7	Sololá	701	Sololá	1	Sololá	9	Septiembre	2023-09-18T00:00:00	2024-11-08T22:00:00	1	Precipitación	0
48032	7	Sololá	701	Sololá	1	Sololá	9	Septiembre	2023-09-18T00:00:00	2024-11-08T22:00:00	8	Radiación solar	0
48033	7	Sololá	701	Sololá	1	Sololá	9	Septiembre	2023-09-18T00:00:00	2024-11-08T23:00:00	2	Temperatura media	14.7
48034	7	Sololá	701	Sololá	1	Sololá	9	Septiembre	2023-09-18T00:00:00	2024-11-08T23:00:00	4	Temperatura máxima	14.8
48035	7	Sololá	701	Sololá	1	Sololá	9	Septiembre	2023-09-18T00:00:00	2024-11-08T23:00:00	3	Temperatura mínima	14.7
48036	7	Sololá	701	Sololá	1	Sololá	9	Septiembre	2023-09-18T00:00:00	2024-11-08T23:00:00	5	Humedad	90
48037	7	Sololá	701	Sololá	1	Sololá	9	Septiembre	2023-09-18T00:00:00	2024-11-08T23:00:00	6	Velocidad del viento	0
48038	7	Sololá	701	Sololá	1	Sololá	9	Septiembre	2023-09-18T00:00:00	2024-11-08T23:00:00	7	Dirección del viento	0
48039	7	Sololá	701	Sololá	1	Sololá	9	Septiembre	2023-09-18T00:00:00	2024-11-08T23:00:00	1	Precipitación	0
48040	7	Sololá	701	Sololá	1	Sololá	9	Septiembre	2023-09-18T00:00:00	2024-11-08T23:00:00	8	Radiación solar	0
48041	7	Sololá	701	Sololá	1	Sololá	9	Septiembre	2023-09-19T00:00:00	2024-11-08T00:00:00	2	Temperatura media	13.9
48042	7	Sololá	701	Sololá	1	Sololá	9	Septiembre	2023-09-19T00:00:00	2024-11-08T00:00:00	4	Temperatura máxima	14.7
48043	7	Sololá	701	Sololá	1	Sololá	9	Septiembre	2023-09-19T00:00:00	2024-11-08T00:00:00	3	Temperatura mínima	13.9
48044	7	Sololá	701	Sololá	1	Sololá	9	Septiembre	2023-09-19T00:00:00	2024-11-08T00:00:00	5	Humedad	91
48045	7	Sololá	701	Sololá	1	Sololá	9	Septiembre	2023-09-19T00:00:00	2024-11-08T00:00:00	6	Velocidad del viento	0
48046	7	Sololá	701	Sololá	1	Sololá	9	Septiembre	2023-09-19T00:00:00	2024-11-08T00:00:00	7	Dirección del viento	0
48047	7	Sololá	701	Sololá	1	Sololá	9	Septiembre	2023-09-19T00:00:00	2024-11-08T00:00:00	1	Precipitación	0
48048	7	Sololá	701	Sololá	1	Sololá	9	Septiembre	2023-09-19T00:00:00	2024-11-08T00:00:00	8	Radiación solar	0
48049	7	Sololá	701	Sololá	1	Sololá	9	Septiembre	2023-09-19T00:00:00	2024-11-08T01:00:00	2	Temperatura media	14
48050	7	Sololá	701	Sololá	1	Sololá	9	Septiembre	2023-09-19T00:00:00	2024-11-08T01:00:00	4	Temperatura máxima	14
48051	7	Sololá	701	Sololá	1	Sololá	9	Septiembre	2023-09-19T00:00:00	2024-11-08T01:00:00	3	Temperatura mínima	13.7
48052	7	Sololá	701	Sololá	1	Sololá	9	Septiembre	2023-09-19T00:00:00	2024-11-08T01:00:00	5	Humedad	89
48053	7	Sololá	701	Sololá	1	Sololá	9	Septiembre	2023-09-19T00:00:00	2024-11-08T01:00:00	6	Velocidad del viento	0
48054	7	Sololá	701	Sololá	1	Sololá	9	Septiembre	2023-09-19T00:00:00	2024-11-08T01:00:00	7	Dirección del viento	0
48055	7	Sololá	701	Sololá	1	Sololá	9	Septiembre	2023-09-19T00:00:00	2024-11-08T01:00:00	1	Precipitación	0
48056	7	Sololá	701	Sololá	1	Sololá	9	Septiembre	2023-09-19T00:00:00	2024-11-08T01:00:00	8	Radiación solar	0
48057	7	Sololá	701	Sololá	1	Sololá	9	Septiembre	2023-09-19T00:00:00	2024-11-08T02:00:00	2	Temperatura media	14.1
48058	7	Sololá	701	Sololá	1	Sololá	9	Septiembre	2023-09-19T00:00:00	2024-11-08T02:00:00	4	Temperatura máxima	14.2
48059	7	Sololá	701	Sololá	1	Sololá	9	Septiembre	2023-09-19T00:00:00	2024-11-08T02:00:00	3	Temperatura mínima	13.9
48060	7	Sololá	701	Sololá	1	Sololá	9	Septiembre	2023-09-19T00:00:00	2024-11-08T02:00:00	5	Humedad	89
48061	7	Sololá	701	Sololá	1	Sololá	9	Septiembre	2023-09-19T00:00:00	2024-11-08T02:00:00	6	Velocidad del viento	0
48062	7	Sololá	701	Sololá	1	Sololá	9	Septiembre	2023-09-19T00:00:00	2024-11-08T02:00:00	7	Dirección del viento	0
48063	7	Sololá	701	Sololá	1	Sololá	9	Septiembre	2023-09-19T00:00:00	2024-11-08T02:00:00	1	Precipitación	0
48064	7	Sololá	701	Sololá	1	Sololá	9	Septiembre	2023-09-19T00:00:00	2024-11-08T02:00:00	8	Radiación solar	0
48065	7	Sololá	701	Sololá	1	Sololá	9	Septiembre	2023-09-19T00:00:00	2024-11-08T03:00:00	2	Temperatura media	14
48066	7	Sololá	701	Sololá	1	Sololá	9	Septiembre	2023-09-19T00:00:00	2024-11-08T03:00:00	4	Temperatura máxima	14.1
48067	7	Sololá	701	Sololá	1	Sololá	9	Septiembre	2023-09-19T00:00:00	2024-11-08T03:00:00	3	Temperatura mínima	13.9
48068	7	Sololá	701	Sololá	1	Sololá	9	Septiembre	2023-09-19T00:00:00	2024-11-08T03:00:00	5	Humedad	86
48069	7	Sololá	701	Sololá	1	Sololá	9	Septiembre	2023-09-19T00:00:00	2024-11-08T03:00:00	6	Velocidad del viento	0
48070	7	Sololá	701	Sololá	1	Sololá	9	Septiembre	2023-09-19T00:00:00	2024-11-08T03:00:00	7	Dirección del viento	0
48071	7	Sololá	701	Sololá	1	Sololá	9	Septiembre	2023-09-19T00:00:00	2024-11-08T03:00:00	1	Precipitación	0
48072	7	Sololá	701	Sololá	1	Sololá	9	Septiembre	2023-09-19T00:00:00	2024-11-08T03:00:00	8	Radiación solar	0
48073	7	Sololá	701	Sololá	1	Sololá	9	Septiembre	2023-09-19T00:00:00	2024-11-08T04:00:00	2	Temperatura media	13.6
48074	7	Sololá	701	Sololá	1	Sololá	9	Septiembre	2023-09-19T00:00:00	2024-11-08T04:00:00	4	Temperatura máxima	14
48075	7	Sololá	701	Sololá	1	Sololá	9	Septiembre	2023-09-19T00:00:00	2024-11-08T04:00:00	3	Temperatura mínima	13.6
48076	7	Sololá	701	Sololá	1	Sololá	9	Septiembre	2023-09-19T00:00:00	2024-11-08T04:00:00	5	Humedad	85
48077	7	Sololá	701	Sololá	1	Sololá	9	Septiembre	2023-09-19T00:00:00	2024-11-08T04:00:00	6	Velocidad del viento	0
48078	7	Sololá	701	Sololá	1	Sololá	9	Septiembre	2023-09-19T00:00:00	2024-11-08T04:00:00	7	Dirección del viento	0
48079	7	Sololá	701	Sololá	1	Sololá	9	Septiembre	2023-09-19T00:00:00	2024-11-08T04:00:00	1	Precipitación	0
48080	7	Sololá	701	Sololá	1	Sololá	9	Septiembre	2023-09-19T00:00:00	2024-11-08T04:00:00	8	Radiación solar	0
48081	7	Sololá	701	Sololá	1	Sololá	9	Septiembre	2023-09-19T00:00:00	2024-11-08T05:00:00	2	Temperatura media	13.4
48082	7	Sololá	701	Sololá	1	Sololá	9	Septiembre	2023-09-19T00:00:00	2024-11-08T05:00:00	4	Temperatura máxima	13.7
48083	7	Sololá	701	Sololá	1	Sololá	9	Septiembre	2023-09-19T00:00:00	2024-11-08T05:00:00	3	Temperatura mínima	13.4
48084	7	Sololá	701	Sololá	1	Sololá	9	Septiembre	2023-09-19T00:00:00	2024-11-08T05:00:00	5	Humedad	81
48085	7	Sololá	701	Sololá	1	Sololá	9	Septiembre	2023-09-19T00:00:00	2024-11-08T05:00:00	6	Velocidad del viento	0
48086	7	Sololá	701	Sololá	1	Sololá	9	Septiembre	2023-09-19T00:00:00	2024-11-08T05:00:00	7	Dirección del viento	0
48087	7	Sololá	701	Sololá	1	Sololá	9	Septiembre	2023-09-19T00:00:00	2024-11-08T05:00:00	1	Precipitación	0
48088	7	Sololá	701	Sololá	1	Sololá	9	Septiembre	2023-09-19T00:00:00	2024-11-08T05:00:00	8	Radiación solar	0
48089	7	Sololá	701	Sololá	1	Sololá	9	Septiembre	2023-09-19T00:00:00	2024-11-08T06:00:00	2	Temperatura media	13.3
48090	7	Sololá	701	Sololá	1	Sololá	9	Septiembre	2023-09-19T00:00:00	2024-11-08T06:00:00	4	Temperatura máxima	13.5
48091	7	Sololá	701	Sololá	1	Sololá	9	Septiembre	2023-09-19T00:00:00	2024-11-08T06:00:00	3	Temperatura mínima	13.3
48092	7	Sololá	701	Sololá	1	Sololá	9	Septiembre	2023-09-19T00:00:00	2024-11-08T06:00:00	5	Humedad	78
48093	7	Sololá	701	Sololá	1	Sololá	9	Septiembre	2023-09-19T00:00:00	2024-11-08T06:00:00	6	Velocidad del viento	0
48094	7	Sololá	701	Sololá	1	Sololá	9	Septiembre	2023-09-19T00:00:00	2024-11-08T06:00:00	7	Dirección del viento	0
48095	7	Sololá	701	Sololá	1	Sololá	9	Septiembre	2023-09-19T00:00:00	2024-11-08T06:00:00	1	Precipitación	0
48096	7	Sololá	701	Sololá	1	Sololá	9	Septiembre	2023-09-19T00:00:00	2024-11-08T06:00:00	8	Radiación solar	0
48097	7	Sololá	701	Sololá	1	Sololá	9	Septiembre	2023-09-19T00:00:00	2024-11-08T07:00:00	2	Temperatura media	13.2
48098	7	Sololá	701	Sololá	1	Sololá	9	Septiembre	2023-09-19T00:00:00	2024-11-08T07:00:00	4	Temperatura máxima	13.3
48099	7	Sololá	701	Sololá	1	Sololá	9	Septiembre	2023-09-19T00:00:00	2024-11-08T07:00:00	3	Temperatura mínima	13.1
48100	7	Sololá	701	Sololá	1	Sololá	9	Septiembre	2023-09-19T00:00:00	2024-11-08T07:00:00	5	Humedad	77
48101	7	Sololá	701	Sololá	1	Sololá	9	Septiembre	2023-09-19T00:00:00	2024-11-08T07:00:00	6	Velocidad del viento	0
48102	7	Sololá	701	Sololá	1	Sololá	9	Septiembre	2023-09-19T00:00:00	2024-11-08T07:00:00	7	Dirección del viento	0
48103	7	Sololá	701	Sololá	1	Sololá	9	Septiembre	2023-09-19T00:00:00	2024-11-08T07:00:00	1	Precipitación	0
48104	7	Sololá	701	Sololá	1	Sololá	9	Septiembre	2023-09-19T00:00:00	2024-11-08T07:00:00	8	Radiación solar	16
48105	7	Sololá	701	Sololá	1	Sololá	9	Septiembre	2023-09-19T00:00:00	2024-11-08T08:00:00	2	Temperatura media	16.1
48106	7	Sololá	701	Sololá	1	Sololá	9	Septiembre	2023-09-19T00:00:00	2024-11-08T08:00:00	4	Temperatura máxima	16.1
48107	7	Sololá	701	Sololá	1	Sololá	9	Septiembre	2023-09-19T00:00:00	2024-11-08T08:00:00	3	Temperatura mínima	13.2
48108	7	Sololá	701	Sololá	1	Sololá	9	Septiembre	2023-09-19T00:00:00	2024-11-08T08:00:00	5	Humedad	70
48109	7	Sololá	701	Sololá	1	Sololá	9	Septiembre	2023-09-19T00:00:00	2024-11-08T08:00:00	6	Velocidad del viento	0
48110	7	Sololá	701	Sololá	1	Sololá	9	Septiembre	2023-09-19T00:00:00	2024-11-08T08:00:00	7	Dirección del viento	0
48111	7	Sololá	701	Sololá	1	Sololá	9	Septiembre	2023-09-19T00:00:00	2024-11-08T08:00:00	1	Precipitación	0
48112	7	Sololá	701	Sololá	1	Sololá	9	Septiembre	2023-09-19T00:00:00	2024-11-08T08:00:00	8	Radiación solar	148
48113	7	Sololá	701	Sololá	1	Sololá	9	Septiembre	2023-09-19T00:00:00	2024-11-08T09:00:00	2	Temperatura media	21.1
48114	7	Sololá	701	Sololá	1	Sololá	9	Septiembre	2023-09-19T00:00:00	2024-11-08T09:00:00	4	Temperatura máxima	21.1
48115	7	Sololá	701	Sololá	1	Sololá	9	Septiembre	2023-09-19T00:00:00	2024-11-08T09:00:00	3	Temperatura mínima	16.2
48116	7	Sololá	701	Sololá	1	Sololá	9	Septiembre	2023-09-19T00:00:00	2024-11-08T09:00:00	5	Humedad	52
48117	7	Sololá	701	Sololá	1	Sololá	9	Septiembre	2023-09-19T00:00:00	2024-11-08T09:00:00	6	Velocidad del viento	0
48118	7	Sololá	701	Sololá	1	Sololá	9	Septiembre	2023-09-19T00:00:00	2024-11-08T09:00:00	7	Dirección del viento	0
48119	7	Sololá	701	Sololá	1	Sololá	9	Septiembre	2023-09-19T00:00:00	2024-11-08T09:00:00	1	Precipitación	0
48120	7	Sololá	701	Sololá	1	Sololá	9	Septiembre	2023-09-19T00:00:00	2024-11-08T09:00:00	8	Radiación solar	657
48121	7	Sololá	701	Sololá	1	Sololá	9	Septiembre	2023-09-19T00:00:00	2024-11-08T10:00:00	2	Temperatura media	22.4
48122	7	Sololá	701	Sololá	1	Sololá	9	Septiembre	2023-09-19T00:00:00	2024-11-08T10:00:00	4	Temperatura máxima	22.4
48123	7	Sololá	701	Sololá	1	Sololá	9	Septiembre	2023-09-19T00:00:00	2024-11-08T10:00:00	3	Temperatura mínima	21.1
48124	7	Sololá	701	Sololá	1	Sololá	9	Septiembre	2023-09-19T00:00:00	2024-11-08T10:00:00	5	Humedad	50
48125	7	Sololá	701	Sololá	1	Sololá	9	Septiembre	2023-09-19T00:00:00	2024-11-08T10:00:00	6	Velocidad del viento	0
48126	7	Sololá	701	Sololá	1	Sololá	9	Septiembre	2023-09-19T00:00:00	2024-11-08T10:00:00	7	Dirección del viento	0
48127	7	Sololá	701	Sololá	1	Sololá	9	Septiembre	2023-09-19T00:00:00	2024-11-08T10:00:00	1	Precipitación	0
48128	7	Sololá	701	Sololá	1	Sololá	9	Septiembre	2023-09-19T00:00:00	2024-11-08T10:00:00	8	Radiación solar	755
48129	7	Sololá	701	Sololá	1	Sololá	9	Septiembre	2023-09-19T00:00:00	2024-11-08T11:00:00	2	Temperatura media	22.9
48130	7	Sololá	701	Sololá	1	Sololá	9	Septiembre	2023-09-19T00:00:00	2024-11-08T11:00:00	4	Temperatura máxima	23
48131	7	Sololá	701	Sololá	1	Sololá	9	Septiembre	2023-09-19T00:00:00	2024-11-08T11:00:00	3	Temperatura mínima	22.4
48132	7	Sololá	701	Sololá	1	Sololá	9	Septiembre	2023-09-19T00:00:00	2024-11-08T11:00:00	5	Humedad	54
48133	7	Sololá	701	Sololá	1	Sololá	9	Septiembre	2023-09-19T00:00:00	2024-11-08T11:00:00	6	Velocidad del viento	0
48134	7	Sololá	701	Sololá	1	Sololá	9	Septiembre	2023-09-19T00:00:00	2024-11-08T11:00:00	7	Dirección del viento	0
48135	7	Sololá	701	Sololá	1	Sololá	9	Septiembre	2023-09-19T00:00:00	2024-11-08T11:00:00	1	Precipitación	0
48136	7	Sololá	701	Sololá	1	Sololá	9	Septiembre	2023-09-19T00:00:00	2024-11-08T11:00:00	8	Radiación solar	372
48137	7	Sololá	701	Sololá	1	Sololá	9	Septiembre	2023-09-19T00:00:00	2024-11-08T12:00:00	2	Temperatura media	22.7
48138	7	Sololá	701	Sololá	1	Sololá	9	Septiembre	2023-09-19T00:00:00	2024-11-08T12:00:00	4	Temperatura máxima	23.1
48139	7	Sololá	701	Sololá	1	Sololá	9	Septiembre	2023-09-19T00:00:00	2024-11-08T12:00:00	3	Temperatura mínima	22.4
48140	7	Sololá	701	Sololá	1	Sololá	9	Septiembre	2023-09-19T00:00:00	2024-11-08T12:00:00	5	Humedad	56
48141	7	Sololá	701	Sololá	1	Sololá	9	Septiembre	2023-09-19T00:00:00	2024-11-08T12:00:00	6	Velocidad del viento	0
48142	7	Sololá	701	Sololá	1	Sololá	9	Septiembre	2023-09-19T00:00:00	2024-11-08T12:00:00	7	Dirección del viento	0
48143	7	Sololá	701	Sololá	1	Sololá	9	Septiembre	2023-09-19T00:00:00	2024-11-08T12:00:00	1	Precipitación	0
48144	7	Sololá	701	Sololá	1	Sololá	9	Septiembre	2023-09-19T00:00:00	2024-11-08T12:00:00	8	Radiación solar	695
48145	7	Sololá	701	Sololá	1	Sololá	9	Septiembre	2023-09-19T00:00:00	2024-11-08T13:00:00	2	Temperatura media	22.9
48146	7	Sololá	701	Sololá	1	Sololá	9	Septiembre	2023-09-19T00:00:00	2024-11-08T13:00:00	4	Temperatura máxima	22.9
48147	7	Sololá	701	Sololá	1	Sololá	9	Septiembre	2023-09-19T00:00:00	2024-11-08T13:00:00	3	Temperatura mínima	22.7
48148	7	Sololá	701	Sololá	1	Sololá	9	Septiembre	2023-09-19T00:00:00	2024-11-08T13:00:00	5	Humedad	56
48149	7	Sololá	701	Sololá	1	Sololá	9	Septiembre	2023-09-19T00:00:00	2024-11-08T13:00:00	6	Velocidad del viento	0
48150	7	Sololá	701	Sololá	1	Sololá	9	Septiembre	2023-09-19T00:00:00	2024-11-08T13:00:00	7	Dirección del viento	0
48151	7	Sololá	701	Sololá	1	Sololá	9	Septiembre	2023-09-19T00:00:00	2024-11-08T13:00:00	1	Precipitación	0
48152	7	Sololá	701	Sololá	1	Sololá	9	Septiembre	2023-09-19T00:00:00	2024-11-08T13:00:00	8	Radiación solar	172
48153	7	Sololá	701	Sololá	1	Sololá	9	Septiembre	2023-09-19T00:00:00	2024-11-08T14:00:00	2	Temperatura media	22.4
48154	7	Sololá	701	Sololá	1	Sololá	9	Septiembre	2023-09-19T00:00:00	2024-11-08T14:00:00	4	Temperatura máxima	23.1
48155	7	Sololá	701	Sololá	1	Sololá	9	Septiembre	2023-09-19T00:00:00	2024-11-08T14:00:00	3	Temperatura mínima	22.3
48156	7	Sololá	701	Sololá	1	Sololá	9	Septiembre	2023-09-19T00:00:00	2024-11-08T14:00:00	5	Humedad	67
48157	7	Sololá	701	Sololá	1	Sololá	9	Septiembre	2023-09-19T00:00:00	2024-11-08T14:00:00	6	Velocidad del viento	0
48158	7	Sololá	701	Sololá	1	Sololá	9	Septiembre	2023-09-19T00:00:00	2024-11-08T14:00:00	7	Dirección del viento	0
48159	7	Sololá	701	Sololá	1	Sololá	9	Septiembre	2023-09-19T00:00:00	2024-11-08T14:00:00	1	Precipitación	0
48160	7	Sololá	701	Sololá	1	Sololá	9	Septiembre	2023-09-19T00:00:00	2024-11-08T14:00:00	8	Radiación solar	154
48161	7	Sololá	701	Sololá	1	Sololá	9	Septiembre	2023-09-19T00:00:00	2024-11-08T15:00:00	2	Temperatura media	21.3
48162	7	Sololá	701	Sololá	1	Sololá	9	Septiembre	2023-09-19T00:00:00	2024-11-08T15:00:00	4	Temperatura máxima	22.3
48163	7	Sololá	701	Sololá	1	Sololá	9	Septiembre	2023-09-19T00:00:00	2024-11-08T15:00:00	3	Temperatura mínima	21.3
48164	7	Sololá	701	Sololá	1	Sololá	9	Septiembre	2023-09-19T00:00:00	2024-11-08T15:00:00	5	Humedad	74
48165	7	Sololá	701	Sololá	1	Sololá	9	Septiembre	2023-09-19T00:00:00	2024-11-08T15:00:00	6	Velocidad del viento	0
48166	7	Sololá	701	Sololá	1	Sololá	9	Septiembre	2023-09-19T00:00:00	2024-11-08T15:00:00	7	Dirección del viento	0
48167	7	Sololá	701	Sololá	1	Sololá	9	Septiembre	2023-09-19T00:00:00	2024-11-08T15:00:00	1	Precipitación	0
48168	7	Sololá	701	Sololá	1	Sololá	9	Septiembre	2023-09-19T00:00:00	2024-11-08T15:00:00	8	Radiación solar	110
48169	7	Sololá	701	Sololá	1	Sololá	9	Septiembre	2023-09-19T00:00:00	2024-11-08T16:00:00	2	Temperatura media	21.4
48170	7	Sololá	701	Sololá	1	Sololá	9	Septiembre	2023-09-19T00:00:00	2024-11-08T16:00:00	4	Temperatura máxima	22
48171	7	Sololá	701	Sololá	1	Sololá	9	Septiembre	2023-09-19T00:00:00	2024-11-08T16:00:00	3	Temperatura mínima	21.2
48172	7	Sololá	701	Sololá	1	Sololá	9	Septiembre	2023-09-19T00:00:00	2024-11-08T16:00:00	5	Humedad	78
48173	7	Sololá	701	Sololá	1	Sololá	9	Septiembre	2023-09-19T00:00:00	2024-11-08T16:00:00	6	Velocidad del viento	0
48174	7	Sololá	701	Sololá	1	Sololá	9	Septiembre	2023-09-19T00:00:00	2024-11-08T16:00:00	7	Dirección del viento	0
48175	7	Sololá	701	Sololá	1	Sololá	9	Septiembre	2023-09-19T00:00:00	2024-11-08T16:00:00	1	Precipitación	0
48176	7	Sololá	701	Sololá	1	Sololá	9	Septiembre	2023-09-19T00:00:00	2024-11-08T16:00:00	8	Radiación solar	86
48177	7	Sololá	701	Sololá	1	Sololá	9	Septiembre	2023-09-19T00:00:00	2024-11-08T17:00:00	2	Temperatura media	19.9
48178	7	Sololá	701	Sololá	1	Sololá	9	Septiembre	2023-09-19T00:00:00	2024-11-08T17:00:00	4	Temperatura máxima	21.4
48179	7	Sololá	701	Sololá	1	Sololá	9	Septiembre	2023-09-19T00:00:00	2024-11-08T17:00:00	3	Temperatura mínima	19.9
48180	7	Sololá	701	Sololá	1	Sololá	9	Septiembre	2023-09-19T00:00:00	2024-11-08T17:00:00	5	Humedad	81
48181	7	Sololá	701	Sololá	1	Sololá	9	Septiembre	2023-09-19T00:00:00	2024-11-08T17:00:00	6	Velocidad del viento	0
48182	7	Sololá	701	Sololá	1	Sololá	9	Septiembre	2023-09-19T00:00:00	2024-11-08T17:00:00	7	Dirección del viento	0
48183	7	Sololá	701	Sololá	1	Sololá	9	Septiembre	2023-09-19T00:00:00	2024-11-08T17:00:00	1	Precipitación	0
48184	7	Sololá	701	Sololá	1	Sololá	9	Septiembre	2023-09-19T00:00:00	2024-11-08T17:00:00	8	Radiación solar	59
48185	7	Sololá	701	Sololá	1	Sololá	9	Septiembre	2023-09-19T00:00:00	2024-11-08T18:00:00	2	Temperatura media	18.2
48186	7	Sololá	701	Sololá	1	Sololá	9	Septiembre	2023-09-19T00:00:00	2024-11-08T18:00:00	4	Temperatura máxima	19.9
48187	7	Sololá	701	Sololá	1	Sololá	9	Septiembre	2023-09-19T00:00:00	2024-11-08T18:00:00	3	Temperatura mínima	18.2
48188	7	Sololá	701	Sololá	1	Sololá	9	Septiembre	2023-09-19T00:00:00	2024-11-08T18:00:00	5	Humedad	88
48189	7	Sololá	701	Sololá	1	Sololá	9	Septiembre	2023-09-19T00:00:00	2024-11-08T18:00:00	6	Velocidad del viento	0
48190	7	Sololá	701	Sololá	1	Sololá	9	Septiembre	2023-09-19T00:00:00	2024-11-08T18:00:00	7	Dirección del viento	0
48191	7	Sololá	701	Sololá	1	Sololá	9	Septiembre	2023-09-19T00:00:00	2024-11-08T18:00:00	1	Precipitación	0
48192	7	Sololá	701	Sololá	1	Sololá	9	Septiembre	2023-09-19T00:00:00	2024-11-08T18:00:00	8	Radiación solar	7
48193	7	Sololá	701	Sololá	1	Sololá	9	Septiembre	2023-09-19T00:00:00	2024-11-08T19:00:00	2	Temperatura media	17.2
48194	7	Sololá	701	Sololá	1	Sololá	9	Septiembre	2023-09-19T00:00:00	2024-11-08T19:00:00	4	Temperatura máxima	18.2
48195	7	Sololá	701	Sololá	1	Sololá	9	Septiembre	2023-09-19T00:00:00	2024-11-08T19:00:00	3	Temperatura mínima	17.2
48196	7	Sololá	701	Sololá	1	Sololá	9	Septiembre	2023-09-19T00:00:00	2024-11-08T19:00:00	5	Humedad	89
48197	7	Sololá	701	Sololá	1	Sololá	9	Septiembre	2023-09-19T00:00:00	2024-11-08T19:00:00	6	Velocidad del viento	0
48198	7	Sololá	701	Sololá	1	Sololá	9	Septiembre	2023-09-19T00:00:00	2024-11-08T19:00:00	7	Dirección del viento	0
48199	7	Sololá	701	Sololá	1	Sololá	9	Septiembre	2023-09-19T00:00:00	2024-11-08T19:00:00	1	Precipitación	0
48200	7	Sololá	701	Sololá	1	Sololá	9	Septiembre	2023-09-19T00:00:00	2024-11-08T19:00:00	8	Radiación solar	0
48201	7	Sololá	701	Sololá	1	Sololá	9	Septiembre	2023-09-19T00:00:00	2024-11-08T20:00:00	2	Temperatura media	15.8
48202	7	Sololá	701	Sololá	1	Sololá	9	Septiembre	2023-09-19T00:00:00	2024-11-08T20:00:00	4	Temperatura máxima	17.2
48203	7	Sololá	701	Sololá	1	Sololá	9	Septiembre	2023-09-19T00:00:00	2024-11-08T20:00:00	3	Temperatura mínima	15.8
48204	7	Sololá	701	Sololá	1	Sololá	9	Septiembre	2023-09-19T00:00:00	2024-11-08T20:00:00	5	Humedad	88
48205	7	Sololá	701	Sololá	1	Sololá	9	Septiembre	2023-09-19T00:00:00	2024-11-08T20:00:00	6	Velocidad del viento	0
48206	7	Sololá	701	Sololá	1	Sololá	9	Septiembre	2023-09-19T00:00:00	2024-11-08T20:00:00	7	Dirección del viento	0
48207	7	Sololá	701	Sololá	1	Sololá	9	Septiembre	2023-09-19T00:00:00	2024-11-08T20:00:00	1	Precipitación	0
48208	7	Sololá	701	Sololá	1	Sololá	9	Septiembre	2023-09-19T00:00:00	2024-11-08T20:00:00	8	Radiación solar	0
48209	7	Sololá	701	Sololá	1	Sololá	9	Septiembre	2023-09-19T00:00:00	2024-11-08T21:00:00	2	Temperatura media	15.1
48210	7	Sololá	701	Sololá	1	Sololá	9	Septiembre	2023-09-19T00:00:00	2024-11-08T21:00:00	4	Temperatura máxima	15.8
48211	7	Sololá	701	Sololá	1	Sololá	9	Septiembre	2023-09-19T00:00:00	2024-11-08T21:00:00	3	Temperatura mínima	15.1
48212	7	Sololá	701	Sololá	1	Sololá	9	Septiembre	2023-09-19T00:00:00	2024-11-08T21:00:00	5	Humedad	89
48213	7	Sololá	701	Sololá	1	Sololá	9	Septiembre	2023-09-19T00:00:00	2024-11-08T21:00:00	6	Velocidad del viento	0
48214	7	Sololá	701	Sololá	1	Sololá	9	Septiembre	2023-09-19T00:00:00	2024-11-08T21:00:00	7	Dirección del viento	0
48215	7	Sololá	701	Sololá	1	Sololá	9	Septiembre	2023-09-19T00:00:00	2024-11-08T21:00:00	1	Precipitación	0
48216	7	Sololá	701	Sololá	1	Sololá	9	Septiembre	2023-09-19T00:00:00	2024-11-08T21:00:00	8	Radiación solar	0
48217	7	Sololá	701	Sololá	1	Sololá	9	Septiembre	2023-09-19T00:00:00	2024-11-08T22:00:00	2	Temperatura media	14.3
48218	7	Sololá	701	Sololá	1	Sololá	9	Septiembre	2023-09-19T00:00:00	2024-11-08T22:00:00	4	Temperatura máxima	15.1
48219	7	Sololá	701	Sololá	1	Sololá	9	Septiembre	2023-09-19T00:00:00	2024-11-08T22:00:00	3	Temperatura mínima	14.3
48220	7	Sololá	701	Sololá	1	Sololá	9	Septiembre	2023-09-19T00:00:00	2024-11-08T22:00:00	5	Humedad	90
48221	7	Sololá	701	Sololá	1	Sololá	9	Septiembre	2023-09-19T00:00:00	2024-11-08T22:00:00	6	Velocidad del viento	0
48222	7	Sololá	701	Sololá	1	Sololá	9	Septiembre	2023-09-19T00:00:00	2024-11-08T22:00:00	7	Dirección del viento	0
48223	7	Sololá	701	Sololá	1	Sololá	9	Septiembre	2023-09-19T00:00:00	2024-11-08T22:00:00	1	Precipitación	0
48224	7	Sololá	701	Sololá	1	Sololá	9	Septiembre	2023-09-19T00:00:00	2024-11-08T22:00:00	8	Radiación solar	0
48225	7	Sololá	701	Sololá	1	Sololá	9	Septiembre	2023-09-19T00:00:00	2024-11-08T23:00:00	2	Temperatura media	14.3
48226	7	Sololá	701	Sololá	1	Sololá	9	Septiembre	2023-09-19T00:00:00	2024-11-08T23:00:00	4	Temperatura máxima	14.4
48227	7	Sololá	701	Sololá	1	Sololá	9	Septiembre	2023-09-19T00:00:00	2024-11-08T23:00:00	3	Temperatura mínima	14.3
48228	7	Sololá	701	Sololá	1	Sololá	9	Septiembre	2023-09-19T00:00:00	2024-11-08T23:00:00	5	Humedad	90
48229	7	Sololá	701	Sololá	1	Sololá	9	Septiembre	2023-09-19T00:00:00	2024-11-08T23:00:00	6	Velocidad del viento	0
48230	7	Sololá	701	Sololá	1	Sololá	9	Septiembre	2023-09-19T00:00:00	2024-11-08T23:00:00	7	Dirección del viento	0
48231	7	Sololá	701	Sololá	1	Sololá	9	Septiembre	2023-09-19T00:00:00	2024-11-08T23:00:00	1	Precipitación	0
48232	7	Sololá	701	Sololá	1	Sololá	9	Septiembre	2023-09-19T00:00:00	2024-11-08T23:00:00	8	Radiación solar	0
48233	7	Sololá	701	Sololá	1	Sololá	9	Septiembre	2023-09-20T00:00:00	2024-11-08T00:00:00	2	Temperatura media	14.4
48234	7	Sololá	701	Sololá	1	Sololá	9	Septiembre	2023-09-20T00:00:00	2024-11-08T00:00:00	4	Temperatura máxima	14.5
48235	7	Sololá	701	Sololá	1	Sololá	9	Septiembre	2023-09-20T00:00:00	2024-11-08T00:00:00	3	Temperatura mínima	14.3
48236	7	Sololá	701	Sololá	1	Sololá	9	Septiembre	2023-09-20T00:00:00	2024-11-08T00:00:00	5	Humedad	87
48237	7	Sololá	701	Sololá	1	Sololá	9	Septiembre	2023-09-20T00:00:00	2024-11-08T00:00:00	6	Velocidad del viento	0
48238	7	Sololá	701	Sololá	1	Sololá	9	Septiembre	2023-09-20T00:00:00	2024-11-08T00:00:00	7	Dirección del viento	0
48239	7	Sololá	701	Sololá	1	Sololá	9	Septiembre	2023-09-20T00:00:00	2024-11-08T00:00:00	1	Precipitación	0
48240	7	Sololá	701	Sololá	1	Sololá	9	Septiembre	2023-09-20T00:00:00	2024-11-08T00:00:00	8	Radiación solar	0
48241	7	Sololá	701	Sololá	1	Sololá	9	Septiembre	2023-09-20T00:00:00	2024-11-08T01:00:00	2	Temperatura media	14.4
48242	7	Sololá	701	Sololá	1	Sololá	9	Septiembre	2023-09-20T00:00:00	2024-11-08T01:00:00	4	Temperatura máxima	14.5
48243	7	Sololá	701	Sololá	1	Sololá	9	Septiembre	2023-09-20T00:00:00	2024-11-08T01:00:00	3	Temperatura mínima	14.3
48244	7	Sololá	701	Sololá	1	Sololá	9	Septiembre	2023-09-20T00:00:00	2024-11-08T01:00:00	5	Humedad	86
48245	7	Sololá	701	Sololá	1	Sololá	9	Septiembre	2023-09-20T00:00:00	2024-11-08T01:00:00	6	Velocidad del viento	0
48246	7	Sololá	701	Sololá	1	Sololá	9	Septiembre	2023-09-20T00:00:00	2024-11-08T01:00:00	7	Dirección del viento	0
48247	7	Sololá	701	Sololá	1	Sololá	9	Septiembre	2023-09-20T00:00:00	2024-11-08T01:00:00	1	Precipitación	0
48248	7	Sololá	701	Sololá	1	Sololá	9	Septiembre	2023-09-20T00:00:00	2024-11-08T01:00:00	8	Radiación solar	0
48249	7	Sololá	701	Sololá	1	Sololá	9	Septiembre	2023-09-20T00:00:00	2024-11-08T02:00:00	2	Temperatura media	13.6
48250	7	Sololá	701	Sololá	1	Sololá	9	Septiembre	2023-09-20T00:00:00	2024-11-08T02:00:00	4	Temperatura máxima	14.4
48251	7	Sololá	701	Sololá	1	Sololá	9	Septiembre	2023-09-20T00:00:00	2024-11-08T02:00:00	3	Temperatura mínima	13.4
48252	7	Sololá	701	Sololá	1	Sololá	9	Septiembre	2023-09-20T00:00:00	2024-11-08T02:00:00	5	Humedad	88
48253	7	Sololá	701	Sololá	1	Sololá	9	Septiembre	2023-09-20T00:00:00	2024-11-08T02:00:00	6	Velocidad del viento	0
48254	7	Sololá	701	Sololá	1	Sololá	9	Septiembre	2023-09-20T00:00:00	2024-11-08T02:00:00	7	Dirección del viento	0
48255	7	Sololá	701	Sololá	1	Sololá	9	Septiembre	2023-09-20T00:00:00	2024-11-08T02:00:00	1	Precipitación	0
48256	7	Sololá	701	Sololá	1	Sololá	9	Septiembre	2023-09-20T00:00:00	2024-11-08T02:00:00	8	Radiación solar	0
48257	7	Sololá	701	Sololá	1	Sololá	9	Septiembre	2023-09-20T00:00:00	2024-11-08T03:00:00	2	Temperatura media	13.1
48258	7	Sololá	701	Sololá	1	Sololá	9	Septiembre	2023-09-20T00:00:00	2024-11-08T03:00:00	4	Temperatura máxima	13.7
48259	7	Sololá	701	Sololá	1	Sololá	9	Septiembre	2023-09-20T00:00:00	2024-11-08T03:00:00	3	Temperatura mínima	13.1
48260	7	Sololá	701	Sololá	1	Sololá	9	Septiembre	2023-09-20T00:00:00	2024-11-08T03:00:00	5	Humedad	89
48261	7	Sololá	701	Sololá	1	Sololá	9	Septiembre	2023-09-20T00:00:00	2024-11-08T03:00:00	6	Velocidad del viento	0
48262	7	Sololá	701	Sololá	1	Sololá	9	Septiembre	2023-09-20T00:00:00	2024-11-08T03:00:00	7	Dirección del viento	0
48263	7	Sololá	701	Sololá	1	Sololá	9	Septiembre	2023-09-20T00:00:00	2024-11-08T03:00:00	1	Precipitación	0
48264	7	Sololá	701	Sololá	1	Sololá	9	Septiembre	2023-09-20T00:00:00	2024-11-08T03:00:00	8	Radiación solar	0
48265	7	Sololá	701	Sololá	1	Sololá	9	Septiembre	2023-09-20T00:00:00	2024-11-08T04:00:00	2	Temperatura media	12.9
48266	7	Sololá	701	Sololá	1	Sololá	9	Septiembre	2023-09-20T00:00:00	2024-11-08T04:00:00	4	Temperatura máxima	13.2
48267	7	Sololá	701	Sololá	1	Sololá	9	Septiembre	2023-09-20T00:00:00	2024-11-08T04:00:00	3	Temperatura mínima	12.9
48268	7	Sololá	701	Sololá	1	Sololá	9	Septiembre	2023-09-20T00:00:00	2024-11-08T04:00:00	5	Humedad	90
48269	7	Sololá	701	Sololá	1	Sololá	9	Septiembre	2023-09-20T00:00:00	2024-11-08T04:00:00	6	Velocidad del viento	0
48270	7	Sololá	701	Sololá	1	Sololá	9	Septiembre	2023-09-20T00:00:00	2024-11-08T04:00:00	7	Dirección del viento	0
48271	7	Sololá	701	Sololá	1	Sololá	9	Septiembre	2023-09-20T00:00:00	2024-11-08T04:00:00	1	Precipitación	0
48272	7	Sololá	701	Sololá	1	Sololá	9	Septiembre	2023-09-20T00:00:00	2024-11-08T04:00:00	8	Radiación solar	0
48273	7	Sololá	701	Sololá	1	Sololá	9	Septiembre	2023-09-20T00:00:00	2024-11-08T05:00:00	2	Temperatura media	12.4
48274	7	Sololá	701	Sololá	1	Sololá	9	Septiembre	2023-09-20T00:00:00	2024-11-08T05:00:00	4	Temperatura máxima	12.9
48275	7	Sololá	701	Sololá	1	Sololá	9	Septiembre	2023-09-20T00:00:00	2024-11-08T05:00:00	3	Temperatura mínima	12.3
48276	7	Sololá	701	Sololá	1	Sololá	9	Septiembre	2023-09-20T00:00:00	2024-11-08T05:00:00	5	Humedad	88
48277	7	Sololá	701	Sololá	1	Sololá	9	Septiembre	2023-09-20T00:00:00	2024-11-08T05:00:00	6	Velocidad del viento	0
48278	7	Sololá	701	Sololá	1	Sololá	9	Septiembre	2023-09-20T00:00:00	2024-11-08T05:00:00	7	Dirección del viento	0
48279	7	Sololá	701	Sololá	1	Sololá	9	Septiembre	2023-09-20T00:00:00	2024-11-08T05:00:00	1	Precipitación	0
48280	7	Sololá	701	Sololá	1	Sololá	9	Septiembre	2023-09-20T00:00:00	2024-11-08T05:00:00	8	Radiación solar	0
48281	7	Sololá	701	Sololá	1	Sololá	9	Septiembre	2023-09-20T00:00:00	2024-11-08T06:00:00	2	Temperatura media	11.9
48282	7	Sololá	701	Sololá	1	Sololá	9	Septiembre	2023-09-20T00:00:00	2024-11-08T06:00:00	4	Temperatura máxima	12.3
48283	7	Sololá	701	Sololá	1	Sololá	9	Septiembre	2023-09-20T00:00:00	2024-11-08T06:00:00	3	Temperatura mínima	11.9
48284	7	Sololá	701	Sololá	1	Sololá	9	Septiembre	2023-09-20T00:00:00	2024-11-08T06:00:00	5	Humedad	90
48285	7	Sololá	701	Sololá	1	Sololá	9	Septiembre	2023-09-20T00:00:00	2024-11-08T06:00:00	6	Velocidad del viento	0
48286	7	Sololá	701	Sololá	1	Sololá	9	Septiembre	2023-09-20T00:00:00	2024-11-08T06:00:00	7	Dirección del viento	0
48287	7	Sololá	701	Sololá	1	Sololá	9	Septiembre	2023-09-20T00:00:00	2024-11-08T06:00:00	1	Precipitación	0
48288	7	Sololá	701	Sololá	1	Sololá	9	Septiembre	2023-09-20T00:00:00	2024-11-08T06:00:00	8	Radiación solar	0
48289	7	Sololá	701	Sololá	1	Sololá	9	Septiembre	2023-09-20T00:00:00	2024-11-08T07:00:00	2	Temperatura media	12.8
48290	7	Sololá	701	Sololá	1	Sololá	9	Septiembre	2023-09-20T00:00:00	2024-11-08T07:00:00	4	Temperatura máxima	12.8
48291	7	Sololá	701	Sololá	1	Sololá	9	Septiembre	2023-09-20T00:00:00	2024-11-08T07:00:00	3	Temperatura mínima	11.8
48292	7	Sololá	701	Sololá	1	Sololá	9	Septiembre	2023-09-20T00:00:00	2024-11-08T07:00:00	5	Humedad	90
48293	7	Sololá	701	Sololá	1	Sololá	9	Septiembre	2023-09-20T00:00:00	2024-11-08T07:00:00	6	Velocidad del viento	0
48294	7	Sololá	701	Sololá	1	Sololá	9	Septiembre	2023-09-20T00:00:00	2024-11-08T07:00:00	7	Dirección del viento	0
48295	7	Sololá	701	Sololá	1	Sololá	9	Septiembre	2023-09-20T00:00:00	2024-11-08T07:00:00	1	Precipitación	0
48296	7	Sololá	701	Sololá	1	Sololá	9	Septiembre	2023-09-20T00:00:00	2024-11-08T07:00:00	8	Radiación solar	27
48297	7	Sololá	701	Sololá	1	Sololá	9	Septiembre	2023-09-20T00:00:00	2024-11-08T08:00:00	2	Temperatura media	15.9
48298	7	Sololá	701	Sololá	1	Sololá	9	Septiembre	2023-09-20T00:00:00	2024-11-08T08:00:00	4	Temperatura máxima	15.9
48299	7	Sololá	701	Sololá	1	Sololá	9	Septiembre	2023-09-20T00:00:00	2024-11-08T08:00:00	3	Temperatura mínima	12.8
48300	7	Sololá	701	Sololá	1	Sololá	9	Septiembre	2023-09-20T00:00:00	2024-11-08T08:00:00	5	Humedad	82
48301	7	Sololá	701	Sololá	1	Sololá	9	Septiembre	2023-09-20T00:00:00	2024-11-08T08:00:00	6	Velocidad del viento	0
48302	7	Sololá	701	Sololá	1	Sololá	9	Septiembre	2023-09-20T00:00:00	2024-11-08T08:00:00	7	Dirección del viento	0
48303	7	Sololá	701	Sololá	1	Sololá	9	Septiembre	2023-09-20T00:00:00	2024-11-08T08:00:00	1	Precipitación	0
48304	7	Sololá	701	Sololá	1	Sololá	9	Septiembre	2023-09-20T00:00:00	2024-11-08T08:00:00	8	Radiación solar	134
48305	7	Sololá	701	Sololá	1	Sololá	9	Septiembre	2023-09-20T00:00:00	2024-11-08T09:00:00	2	Temperatura media	22
48306	7	Sololá	701	Sololá	1	Sololá	9	Septiembre	2023-09-20T00:00:00	2024-11-08T09:00:00	4	Temperatura máxima	22
48307	7	Sololá	701	Sololá	1	Sololá	9	Septiembre	2023-09-20T00:00:00	2024-11-08T09:00:00	3	Temperatura mínima	15.9
48308	7	Sololá	701	Sololá	1	Sololá	9	Septiembre	2023-09-20T00:00:00	2024-11-08T09:00:00	5	Humedad	65
48309	7	Sololá	701	Sololá	1	Sololá	9	Septiembre	2023-09-20T00:00:00	2024-11-08T09:00:00	6	Velocidad del viento	0
48310	7	Sololá	701	Sololá	1	Sololá	9	Septiembre	2023-09-20T00:00:00	2024-11-08T09:00:00	7	Dirección del viento	0
48311	7	Sololá	701	Sololá	1	Sololá	9	Septiembre	2023-09-20T00:00:00	2024-11-08T09:00:00	1	Precipitación	0
48312	7	Sololá	701	Sololá	1	Sololá	9	Septiembre	2023-09-20T00:00:00	2024-11-08T09:00:00	8	Radiación solar	629
48313	7	Sololá	701	Sololá	1	Sololá	9	Septiembre	2023-09-20T00:00:00	2024-11-08T10:00:00	2	Temperatura media	23.4
48314	7	Sololá	701	Sololá	1	Sololá	9	Septiembre	2023-09-20T00:00:00	2024-11-08T10:00:00	4	Temperatura máxima	23.7
48315	7	Sololá	701	Sololá	1	Sololá	9	Septiembre	2023-09-20T00:00:00	2024-11-08T10:00:00	3	Temperatura mínima	22
48316	7	Sololá	701	Sololá	1	Sololá	9	Septiembre	2023-09-20T00:00:00	2024-11-08T10:00:00	5	Humedad	61
48317	7	Sololá	701	Sololá	1	Sololá	9	Septiembre	2023-09-20T00:00:00	2024-11-08T10:00:00	6	Velocidad del viento	0
48318	7	Sololá	701	Sololá	1	Sololá	9	Septiembre	2023-09-20T00:00:00	2024-11-08T10:00:00	7	Dirección del viento	0
48319	7	Sololá	701	Sololá	1	Sololá	9	Septiembre	2023-09-20T00:00:00	2024-11-08T10:00:00	1	Precipitación	0
48320	7	Sololá	701	Sololá	1	Sololá	9	Septiembre	2023-09-20T00:00:00	2024-11-08T10:00:00	8	Radiación solar	764
48321	7	Sololá	701	Sololá	1	Sololá	9	Septiembre	2023-09-20T00:00:00	2024-11-08T11:00:00	2	Temperatura media	23.2
48322	7	Sololá	701	Sololá	1	Sololá	9	Septiembre	2023-09-20T00:00:00	2024-11-08T11:00:00	4	Temperatura máxima	23.7
48323	7	Sololá	701	Sololá	1	Sololá	9	Septiembre	2023-09-20T00:00:00	2024-11-08T11:00:00	3	Temperatura mínima	23.2
48324	7	Sololá	701	Sololá	1	Sololá	9	Septiembre	2023-09-20T00:00:00	2024-11-08T11:00:00	5	Humedad	58
48325	7	Sololá	701	Sololá	1	Sololá	9	Septiembre	2023-09-20T00:00:00	2024-11-08T11:00:00	6	Velocidad del viento	0
48326	7	Sololá	701	Sololá	1	Sololá	9	Septiembre	2023-09-20T00:00:00	2024-11-08T11:00:00	7	Dirección del viento	0
48327	7	Sololá	701	Sololá	1	Sololá	9	Septiembre	2023-09-20T00:00:00	2024-11-08T11:00:00	1	Precipitación	0
48328	7	Sololá	701	Sololá	1	Sololá	9	Septiembre	2023-09-20T00:00:00	2024-11-08T11:00:00	8	Radiación solar	371
48329	7	Sololá	701	Sololá	1	Sololá	9	Septiembre	2023-09-20T00:00:00	2024-11-08T12:00:00	2	Temperatura media	22.4
48330	7	Sololá	701	Sololá	1	Sololá	9	Septiembre	2023-09-20T00:00:00	2024-11-08T12:00:00	4	Temperatura máxima	23.3
48331	7	Sololá	701	Sololá	1	Sololá	9	Septiembre	2023-09-20T00:00:00	2024-11-08T12:00:00	3	Temperatura mínima	22.4
48332	7	Sololá	701	Sololá	1	Sololá	9	Septiembre	2023-09-20T00:00:00	2024-11-08T12:00:00	5	Humedad	58
48333	7	Sololá	701	Sololá	1	Sololá	9	Septiembre	2023-09-20T00:00:00	2024-11-08T12:00:00	6	Velocidad del viento	0
48334	7	Sololá	701	Sololá	1	Sololá	9	Septiembre	2023-09-20T00:00:00	2024-11-08T12:00:00	7	Dirección del viento	0
48335	7	Sololá	701	Sololá	1	Sololá	9	Septiembre	2023-09-20T00:00:00	2024-11-08T12:00:00	1	Precipitación	0
48336	7	Sololá	701	Sololá	1	Sololá	9	Septiembre	2023-09-20T00:00:00	2024-11-08T12:00:00	8	Radiación solar	309
48337	7	Sololá	701	Sololá	1	Sololá	9	Septiembre	2023-09-20T00:00:00	2024-11-08T13:00:00	2	Temperatura media	22.2
48338	7	Sololá	701	Sololá	1	Sololá	9	Septiembre	2023-09-20T00:00:00	2024-11-08T13:00:00	4	Temperatura máxima	22.9
48339	7	Sololá	701	Sololá	1	Sololá	9	Septiembre	2023-09-20T00:00:00	2024-11-08T13:00:00	3	Temperatura mínima	22.2
48340	7	Sololá	701	Sololá	1	Sololá	9	Septiembre	2023-09-20T00:00:00	2024-11-08T13:00:00	5	Humedad	68
48341	7	Sololá	701	Sololá	1	Sololá	9	Septiembre	2023-09-20T00:00:00	2024-11-08T13:00:00	6	Velocidad del viento	0
48342	7	Sololá	701	Sololá	1	Sololá	9	Septiembre	2023-09-20T00:00:00	2024-11-08T13:00:00	7	Dirección del viento	0
48343	7	Sololá	701	Sololá	1	Sololá	9	Septiembre	2023-09-20T00:00:00	2024-11-08T13:00:00	1	Precipitación	0
48344	7	Sololá	701	Sololá	1	Sololá	9	Septiembre	2023-09-20T00:00:00	2024-11-08T13:00:00	8	Radiación solar	223
48345	7	Sololá	701	Sololá	1	Sololá	9	Septiembre	2023-09-20T00:00:00	2024-11-08T14:00:00	2	Temperatura media	21.2
48346	7	Sololá	701	Sololá	1	Sololá	9	Septiembre	2023-09-20T00:00:00	2024-11-08T14:00:00	4	Temperatura máxima	22.2
48347	7	Sololá	701	Sololá	1	Sololá	9	Septiembre	2023-09-20T00:00:00	2024-11-08T14:00:00	3	Temperatura mínima	21.2
48348	7	Sololá	701	Sololá	1	Sololá	9	Septiembre	2023-09-20T00:00:00	2024-11-08T14:00:00	5	Humedad	77
48349	7	Sololá	701	Sololá	1	Sololá	9	Septiembre	2023-09-20T00:00:00	2024-11-08T14:00:00	6	Velocidad del viento	0
48350	7	Sololá	701	Sololá	1	Sololá	9	Septiembre	2023-09-20T00:00:00	2024-11-08T14:00:00	7	Dirección del viento	0
48351	7	Sololá	701	Sololá	1	Sololá	9	Septiembre	2023-09-20T00:00:00	2024-11-08T14:00:00	1	Precipitación	0
48352	7	Sololá	701	Sololá	1	Sololá	9	Septiembre	2023-09-20T00:00:00	2024-11-08T14:00:00	8	Radiación solar	129
48353	7	Sololá	701	Sololá	1	Sololá	9	Septiembre	2023-09-20T00:00:00	2024-11-08T15:00:00	2	Temperatura media	20.3
48354	7	Sololá	701	Sololá	1	Sololá	9	Septiembre	2023-09-20T00:00:00	2024-11-08T15:00:00	4	Temperatura máxima	21.4
48355	7	Sololá	701	Sololá	1	Sololá	9	Septiembre	2023-09-20T00:00:00	2024-11-08T15:00:00	3	Temperatura mínima	20.3
48356	7	Sololá	701	Sololá	1	Sololá	9	Septiembre	2023-09-20T00:00:00	2024-11-08T15:00:00	5	Humedad	84
48357	7	Sololá	701	Sololá	1	Sololá	9	Septiembre	2023-09-20T00:00:00	2024-11-08T15:00:00	6	Velocidad del viento	0
48358	7	Sololá	701	Sololá	1	Sololá	9	Septiembre	2023-09-20T00:00:00	2024-11-08T15:00:00	7	Dirección del viento	0
48359	7	Sololá	701	Sololá	1	Sololá	9	Septiembre	2023-09-20T00:00:00	2024-11-08T15:00:00	1	Precipitación	0
48360	7	Sololá	701	Sololá	1	Sololá	9	Septiembre	2023-09-20T00:00:00	2024-11-08T15:00:00	8	Radiación solar	94
48361	7	Sololá	701	Sololá	1	Sololá	9	Septiembre	2023-09-20T00:00:00	2024-11-08T16:00:00	2	Temperatura media	18.4
48362	7	Sololá	701	Sololá	1	Sololá	9	Septiembre	2023-09-20T00:00:00	2024-11-08T16:00:00	4	Temperatura máxima	20.3
48363	7	Sololá	701	Sololá	1	Sololá	9	Septiembre	2023-09-20T00:00:00	2024-11-08T16:00:00	3	Temperatura mínima	18.4
48364	7	Sololá	701	Sololá	1	Sololá	9	Septiembre	2023-09-20T00:00:00	2024-11-08T16:00:00	5	Humedad	89
48365	7	Sololá	701	Sololá	1	Sololá	9	Septiembre	2023-09-20T00:00:00	2024-11-08T16:00:00	6	Velocidad del viento	0
48366	7	Sololá	701	Sololá	1	Sololá	9	Septiembre	2023-09-20T00:00:00	2024-11-08T16:00:00	7	Dirección del viento	0
48367	7	Sololá	701	Sololá	1	Sololá	9	Septiembre	2023-09-20T00:00:00	2024-11-08T16:00:00	1	Precipitación	0
48368	7	Sololá	701	Sololá	1	Sololá	9	Septiembre	2023-09-20T00:00:00	2024-11-08T16:00:00	8	Radiación solar	37
48369	7	Sololá	701	Sololá	1	Sololá	9	Septiembre	2023-09-20T00:00:00	2024-11-08T17:00:00	2	Temperatura media	16.9
48370	7	Sololá	701	Sololá	1	Sololá	9	Septiembre	2023-09-20T00:00:00	2024-11-08T17:00:00	4	Temperatura máxima	18.4
48371	7	Sololá	701	Sololá	1	Sololá	9	Septiembre	2023-09-20T00:00:00	2024-11-08T17:00:00	3	Temperatura mínima	16.9
48372	7	Sololá	701	Sololá	1	Sololá	9	Septiembre	2023-09-20T00:00:00	2024-11-08T17:00:00	5	Humedad	93
48373	7	Sololá	701	Sololá	1	Sololá	9	Septiembre	2023-09-20T00:00:00	2024-11-08T17:00:00	6	Velocidad del viento	0
48374	7	Sololá	701	Sololá	1	Sololá	9	Septiembre	2023-09-20T00:00:00	2024-11-08T17:00:00	7	Dirección del viento	0
48375	7	Sololá	701	Sololá	1	Sololá	9	Septiembre	2023-09-20T00:00:00	2024-11-08T17:00:00	1	Precipitación	0.4
48376	7	Sololá	701	Sololá	1	Sololá	9	Septiembre	2023-09-20T00:00:00	2024-11-08T17:00:00	8	Radiación solar	3
48377	7	Sololá	701	Sololá	1	Sololá	9	Septiembre	2023-09-20T00:00:00	2024-11-08T18:00:00	2	Temperatura media	16.6
48378	7	Sololá	701	Sololá	1	Sololá	9	Septiembre	2023-09-20T00:00:00	2024-11-08T18:00:00	4	Temperatura máxima	16.9
48379	7	Sololá	701	Sololá	1	Sololá	9	Septiembre	2023-09-20T00:00:00	2024-11-08T18:00:00	3	Temperatura mínima	16.6
48380	7	Sololá	701	Sololá	1	Sololá	9	Septiembre	2023-09-20T00:00:00	2024-11-08T18:00:00	5	Humedad	94
48381	7	Sololá	701	Sololá	1	Sololá	9	Septiembre	2023-09-20T00:00:00	2024-11-08T18:00:00	6	Velocidad del viento	0
48382	7	Sololá	701	Sololá	1	Sololá	9	Septiembre	2023-09-20T00:00:00	2024-11-08T18:00:00	7	Dirección del viento	0
48383	7	Sololá	701	Sololá	1	Sololá	9	Septiembre	2023-09-20T00:00:00	2024-11-08T18:00:00	1	Precipitación	0
48384	7	Sololá	701	Sololá	1	Sololá	9	Septiembre	2023-09-20T00:00:00	2024-11-08T18:00:00	8	Radiación solar	3
48385	7	Sololá	701	Sololá	1	Sololá	9	Septiembre	2023-09-20T00:00:00	2024-11-08T19:00:00	2	Temperatura media	16.3
48386	7	Sololá	701	Sololá	1	Sololá	9	Septiembre	2023-09-20T00:00:00	2024-11-08T19:00:00	4	Temperatura máxima	16.7
48387	7	Sololá	701	Sololá	1	Sololá	9	Septiembre	2023-09-20T00:00:00	2024-11-08T19:00:00	3	Temperatura mínima	16.3
48388	7	Sololá	701	Sololá	1	Sololá	9	Septiembre	2023-09-20T00:00:00	2024-11-08T19:00:00	5	Humedad	94
48389	7	Sololá	701	Sololá	1	Sololá	9	Septiembre	2023-09-20T00:00:00	2024-11-08T19:00:00	6	Velocidad del viento	0
48390	7	Sololá	701	Sololá	1	Sololá	9	Septiembre	2023-09-20T00:00:00	2024-11-08T19:00:00	7	Dirección del viento	0
48391	7	Sololá	701	Sololá	1	Sololá	9	Septiembre	2023-09-20T00:00:00	2024-11-08T19:00:00	1	Precipitación	0.2
48392	7	Sololá	701	Sololá	1	Sololá	9	Septiembre	2023-09-20T00:00:00	2024-11-08T19:00:00	8	Radiación solar	0
48393	7	Sololá	701	Sololá	1	Sololá	9	Septiembre	2023-09-20T00:00:00	2024-11-08T20:00:00	2	Temperatura media	15.7
48394	7	Sololá	701	Sololá	1	Sololá	9	Septiembre	2023-09-20T00:00:00	2024-11-08T20:00:00	4	Temperatura máxima	16.4
48395	7	Sololá	701	Sololá	1	Sololá	9	Septiembre	2023-09-20T00:00:00	2024-11-08T20:00:00	3	Temperatura mínima	15.7
48396	7	Sololá	701	Sololá	1	Sololá	9	Septiembre	2023-09-20T00:00:00	2024-11-08T20:00:00	5	Humedad	94
48397	7	Sololá	701	Sololá	1	Sololá	9	Septiembre	2023-09-20T00:00:00	2024-11-08T20:00:00	6	Velocidad del viento	0
48398	7	Sololá	701	Sololá	1	Sololá	9	Septiembre	2023-09-20T00:00:00	2024-11-08T20:00:00	7	Dirección del viento	0
48399	7	Sololá	701	Sololá	1	Sololá	9	Septiembre	2023-09-20T00:00:00	2024-11-08T20:00:00	1	Precipitación	0
48400	7	Sololá	701	Sololá	1	Sololá	9	Septiembre	2023-09-20T00:00:00	2024-11-08T20:00:00	8	Radiación solar	0
48401	7	Sololá	701	Sololá	1	Sololá	9	Septiembre	2023-09-20T00:00:00	2024-11-08T21:00:00	2	Temperatura media	14.7
48402	7	Sololá	701	Sololá	1	Sololá	9	Septiembre	2023-09-20T00:00:00	2024-11-08T21:00:00	4	Temperatura máxima	15.7
48403	7	Sololá	701	Sololá	1	Sololá	9	Septiembre	2023-09-20T00:00:00	2024-11-08T21:00:00	3	Temperatura mínima	14.7
48404	7	Sololá	701	Sololá	1	Sololá	9	Septiembre	2023-09-20T00:00:00	2024-11-08T21:00:00	5	Humedad	94
48405	7	Sololá	701	Sololá	1	Sololá	9	Septiembre	2023-09-20T00:00:00	2024-11-08T21:00:00	6	Velocidad del viento	0
48406	7	Sololá	701	Sololá	1	Sololá	9	Septiembre	2023-09-20T00:00:00	2024-11-08T21:00:00	7	Dirección del viento	0
48407	7	Sololá	701	Sololá	1	Sololá	9	Septiembre	2023-09-20T00:00:00	2024-11-08T21:00:00	1	Precipitación	0
48408	7	Sololá	701	Sololá	1	Sololá	9	Septiembre	2023-09-20T00:00:00	2024-11-08T21:00:00	8	Radiación solar	0
48409	7	Sololá	701	Sololá	1	Sololá	9	Septiembre	2023-09-20T00:00:00	2024-11-08T22:00:00	2	Temperatura media	14.8
48410	7	Sololá	701	Sololá	1	Sololá	9	Septiembre	2023-09-20T00:00:00	2024-11-08T22:00:00	4	Temperatura máxima	14.8
48411	7	Sololá	701	Sololá	1	Sololá	9	Septiembre	2023-09-20T00:00:00	2024-11-08T22:00:00	3	Temperatura mínima	14.6
48412	7	Sololá	701	Sololá	1	Sololá	9	Septiembre	2023-09-20T00:00:00	2024-11-08T22:00:00	5	Humedad	95
48413	7	Sololá	701	Sololá	1	Sololá	9	Septiembre	2023-09-20T00:00:00	2024-11-08T22:00:00	6	Velocidad del viento	0
48414	7	Sololá	701	Sololá	1	Sololá	9	Septiembre	2023-09-20T00:00:00	2024-11-08T22:00:00	7	Dirección del viento	0
48415	7	Sololá	701	Sololá	1	Sololá	9	Septiembre	2023-09-20T00:00:00	2024-11-08T22:00:00	1	Precipitación	0
48416	7	Sololá	701	Sololá	1	Sololá	9	Septiembre	2023-09-20T00:00:00	2024-11-08T22:00:00	8	Radiación solar	0
48417	7	Sololá	701	Sololá	1	Sololá	9	Septiembre	2023-09-20T00:00:00	2024-11-08T23:00:00	2	Temperatura media	15.1
48418	7	Sololá	701	Sololá	1	Sololá	9	Septiembre	2023-09-20T00:00:00	2024-11-08T23:00:00	4	Temperatura máxima	15.1
48419	7	Sololá	701	Sololá	1	Sololá	9	Septiembre	2023-09-20T00:00:00	2024-11-08T23:00:00	3	Temperatura mínima	14.8
48420	7	Sololá	701	Sololá	1	Sololá	9	Septiembre	2023-09-20T00:00:00	2024-11-08T23:00:00	5	Humedad	95
48421	7	Sololá	701	Sololá	1	Sololá	9	Septiembre	2023-09-20T00:00:00	2024-11-08T23:00:00	6	Velocidad del viento	0
48422	7	Sololá	701	Sololá	1	Sololá	9	Septiembre	2023-09-20T00:00:00	2024-11-08T23:00:00	7	Dirección del viento	0
48423	7	Sololá	701	Sololá	1	Sololá	9	Septiembre	2023-09-20T00:00:00	2024-11-08T23:00:00	1	Precipitación	0
48424	7	Sololá	701	Sololá	1	Sololá	9	Septiembre	2023-09-20T00:00:00	2024-11-08T23:00:00	8	Radiación solar	0
48425	7	Sololá	701	Sololá	1	Sololá	9	Septiembre	2023-09-21T00:00:00	2024-11-08T00:00:00	2	Temperatura media	14.3
48426	7	Sololá	701	Sololá	1	Sololá	9	Septiembre	2023-09-21T00:00:00	2024-11-08T00:00:00	4	Temperatura máxima	15.1
48427	7	Sololá	701	Sololá	1	Sololá	9	Septiembre	2023-09-21T00:00:00	2024-11-08T00:00:00	3	Temperatura mínima	14.3
48428	7	Sololá	701	Sololá	1	Sololá	9	Septiembre	2023-09-21T00:00:00	2024-11-08T00:00:00	5	Humedad	94
48429	7	Sololá	701	Sololá	1	Sololá	9	Septiembre	2023-09-21T00:00:00	2024-11-08T00:00:00	6	Velocidad del viento	0
48430	7	Sololá	701	Sololá	1	Sololá	9	Septiembre	2023-09-21T00:00:00	2024-11-08T00:00:00	7	Dirección del viento	0
48431	7	Sololá	701	Sololá	1	Sololá	9	Septiembre	2023-09-21T00:00:00	2024-11-08T00:00:00	1	Precipitación	0
48432	7	Sololá	701	Sololá	1	Sololá	9	Septiembre	2023-09-21T00:00:00	2024-11-08T00:00:00	8	Radiación solar	0
48433	7	Sololá	701	Sololá	1	Sololá	9	Septiembre	2023-09-21T00:00:00	2024-11-08T01:00:00	2	Temperatura media	13.6
48434	7	Sololá	701	Sololá	1	Sololá	9	Septiembre	2023-09-21T00:00:00	2024-11-08T01:00:00	4	Temperatura máxima	14.3
48435	7	Sololá	701	Sololá	1	Sololá	9	Septiembre	2023-09-21T00:00:00	2024-11-08T01:00:00	3	Temperatura mínima	13.6
48436	7	Sololá	701	Sololá	1	Sololá	9	Septiembre	2023-09-21T00:00:00	2024-11-08T01:00:00	5	Humedad	94
48437	7	Sololá	701	Sololá	1	Sololá	9	Septiembre	2023-09-21T00:00:00	2024-11-08T01:00:00	6	Velocidad del viento	0
48438	7	Sololá	701	Sololá	1	Sololá	9	Septiembre	2023-09-21T00:00:00	2024-11-08T01:00:00	7	Dirección del viento	0
48439	7	Sololá	701	Sololá	1	Sololá	9	Septiembre	2023-09-21T00:00:00	2024-11-08T01:00:00	1	Precipitación	0
48440	7	Sololá	701	Sololá	1	Sololá	9	Septiembre	2023-09-21T00:00:00	2024-11-08T01:00:00	8	Radiación solar	0
48441	7	Sololá	701	Sololá	1	Sololá	9	Septiembre	2023-09-21T00:00:00	2024-11-08T02:00:00	2	Temperatura media	13.4
48442	7	Sololá	701	Sololá	1	Sololá	9	Septiembre	2023-09-21T00:00:00	2024-11-08T02:00:00	4	Temperatura máxima	13.6
48443	7	Sololá	701	Sololá	1	Sololá	9	Septiembre	2023-09-21T00:00:00	2024-11-08T02:00:00	3	Temperatura mínima	13.4
48444	7	Sololá	701	Sololá	1	Sololá	9	Septiembre	2023-09-21T00:00:00	2024-11-08T02:00:00	5	Humedad	94
48445	7	Sololá	701	Sololá	1	Sololá	9	Septiembre	2023-09-21T00:00:00	2024-11-08T02:00:00	6	Velocidad del viento	0
48446	7	Sololá	701	Sololá	1	Sololá	9	Septiembre	2023-09-21T00:00:00	2024-11-08T02:00:00	7	Dirección del viento	0
48447	7	Sololá	701	Sololá	1	Sololá	9	Septiembre	2023-09-21T00:00:00	2024-11-08T02:00:00	1	Precipitación	0
48448	7	Sololá	701	Sololá	1	Sololá	9	Septiembre	2023-09-21T00:00:00	2024-11-08T02:00:00	8	Radiación solar	0
48449	7	Sololá	701	Sololá	1	Sololá	9	Septiembre	2023-09-21T00:00:00	2024-11-08T03:00:00	2	Temperatura media	13.6
48450	7	Sololá	701	Sololá	1	Sololá	9	Septiembre	2023-09-21T00:00:00	2024-11-08T03:00:00	4	Temperatura máxima	13.7
48451	7	Sololá	701	Sololá	1	Sololá	9	Septiembre	2023-09-21T00:00:00	2024-11-08T03:00:00	3	Temperatura mínima	13.4
48452	7	Sololá	701	Sololá	1	Sololá	9	Septiembre	2023-09-21T00:00:00	2024-11-08T03:00:00	5	Humedad	93
48453	7	Sololá	701	Sololá	1	Sololá	9	Septiembre	2023-09-21T00:00:00	2024-11-08T03:00:00	6	Velocidad del viento	0
48454	7	Sololá	701	Sololá	1	Sololá	9	Septiembre	2023-09-21T00:00:00	2024-11-08T03:00:00	7	Dirección del viento	0
48455	7	Sololá	701	Sololá	1	Sololá	9	Septiembre	2023-09-21T00:00:00	2024-11-08T03:00:00	1	Precipitación	0
48456	7	Sololá	701	Sololá	1	Sololá	9	Septiembre	2023-09-21T00:00:00	2024-11-08T03:00:00	8	Radiación solar	0
48457	7	Sololá	701	Sololá	1	Sololá	9	Septiembre	2023-09-21T00:00:00	2024-11-08T04:00:00	2	Temperatura media	13.1
48458	7	Sololá	701	Sololá	1	Sololá	9	Septiembre	2023-09-21T00:00:00	2024-11-08T04:00:00	4	Temperatura máxima	13.8
48459	7	Sololá	701	Sololá	1	Sololá	9	Septiembre	2023-09-21T00:00:00	2024-11-08T04:00:00	3	Temperatura mínima	13.1
48460	7	Sololá	701	Sololá	1	Sololá	9	Septiembre	2023-09-21T00:00:00	2024-11-08T04:00:00	5	Humedad	91
48461	7	Sololá	701	Sololá	1	Sololá	9	Septiembre	2023-09-21T00:00:00	2024-11-08T04:00:00	6	Velocidad del viento	0
48462	7	Sololá	701	Sololá	1	Sololá	9	Septiembre	2023-09-21T00:00:00	2024-11-08T04:00:00	7	Dirección del viento	0
48463	7	Sololá	701	Sololá	1	Sololá	9	Septiembre	2023-09-21T00:00:00	2024-11-08T04:00:00	1	Precipitación	0
48464	7	Sololá	701	Sololá	1	Sololá	9	Septiembre	2023-09-21T00:00:00	2024-11-08T04:00:00	8	Radiación solar	0
48465	7	Sololá	701	Sololá	1	Sololá	9	Septiembre	2023-09-21T00:00:00	2024-11-08T05:00:00	2	Temperatura media	12.8
48466	7	Sololá	701	Sololá	1	Sololá	9	Septiembre	2023-09-21T00:00:00	2024-11-08T05:00:00	4	Temperatura máxima	13.3
48467	7	Sololá	701	Sololá	1	Sololá	9	Septiembre	2023-09-21T00:00:00	2024-11-08T05:00:00	3	Temperatura mínima	12.8
48468	7	Sololá	701	Sololá	1	Sololá	9	Septiembre	2023-09-21T00:00:00	2024-11-08T05:00:00	5	Humedad	88
48469	7	Sololá	701	Sololá	1	Sololá	9	Septiembre	2023-09-21T00:00:00	2024-11-08T05:00:00	6	Velocidad del viento	0
48470	7	Sololá	701	Sololá	1	Sololá	9	Septiembre	2023-09-21T00:00:00	2024-11-08T05:00:00	7	Dirección del viento	0
48471	7	Sololá	701	Sololá	1	Sololá	9	Septiembre	2023-09-21T00:00:00	2024-11-08T05:00:00	1	Precipitación	0
48472	7	Sololá	701	Sololá	1	Sololá	9	Septiembre	2023-09-21T00:00:00	2024-11-08T05:00:00	8	Radiación solar	0
48473	7	Sololá	701	Sololá	1	Sololá	9	Septiembre	2023-09-21T00:00:00	2024-11-08T06:00:00	2	Temperatura media	12.9
48474	7	Sololá	701	Sololá	1	Sololá	9	Septiembre	2023-09-21T00:00:00	2024-11-08T06:00:00	4	Temperatura máxima	12.9
48475	7	Sololá	701	Sololá	1	Sololá	9	Septiembre	2023-09-21T00:00:00	2024-11-08T06:00:00	3	Temperatura mínima	12.5
48476	7	Sololá	701	Sololá	1	Sololá	9	Septiembre	2023-09-21T00:00:00	2024-11-08T06:00:00	5	Humedad	88
48477	7	Sololá	701	Sololá	1	Sololá	9	Septiembre	2023-09-21T00:00:00	2024-11-08T06:00:00	6	Velocidad del viento	0
48478	7	Sololá	701	Sololá	1	Sololá	9	Septiembre	2023-09-21T00:00:00	2024-11-08T06:00:00	7	Dirección del viento	0
48479	7	Sololá	701	Sololá	1	Sololá	9	Septiembre	2023-09-21T00:00:00	2024-11-08T06:00:00	1	Precipitación	0
48480	7	Sololá	701	Sololá	1	Sololá	9	Septiembre	2023-09-21T00:00:00	2024-11-08T06:00:00	8	Radiación solar	0
48481	7	Sololá	701	Sololá	1	Sololá	9	Septiembre	2023-09-21T00:00:00	2024-11-08T07:00:00	2	Temperatura media	14.6
48482	7	Sololá	701	Sololá	1	Sololá	9	Septiembre	2023-09-21T00:00:00	2024-11-08T07:00:00	4	Temperatura máxima	14.6
48483	7	Sololá	701	Sololá	1	Sololá	9	Septiembre	2023-09-21T00:00:00	2024-11-08T07:00:00	3	Temperatura mínima	12.9
48484	7	Sololá	701	Sololá	1	Sololá	9	Septiembre	2023-09-21T00:00:00	2024-11-08T07:00:00	5	Humedad	88
48485	7	Sololá	701	Sololá	1	Sololá	9	Septiembre	2023-09-21T00:00:00	2024-11-08T07:00:00	6	Velocidad del viento	0
48486	7	Sololá	701	Sololá	1	Sololá	9	Septiembre	2023-09-21T00:00:00	2024-11-08T07:00:00	7	Dirección del viento	0
48487	7	Sololá	701	Sololá	1	Sololá	9	Septiembre	2023-09-21T00:00:00	2024-11-08T07:00:00	1	Precipitación	0
48488	7	Sololá	701	Sololá	1	Sololá	9	Septiembre	2023-09-21T00:00:00	2024-11-08T07:00:00	8	Radiación solar	26
48489	7	Sololá	701	Sololá	1	Sololá	9	Septiembre	2023-09-21T00:00:00	2024-11-08T08:00:00	2	Temperatura media	17.1
48490	7	Sololá	701	Sololá	1	Sololá	9	Septiembre	2023-09-21T00:00:00	2024-11-08T08:00:00	4	Temperatura máxima	17.1
48491	7	Sololá	701	Sololá	1	Sololá	9	Septiembre	2023-09-21T00:00:00	2024-11-08T08:00:00	3	Temperatura mínima	14.6
48492	7	Sololá	701	Sololá	1	Sololá	9	Septiembre	2023-09-21T00:00:00	2024-11-08T08:00:00	5	Humedad	81
48493	7	Sololá	701	Sololá	1	Sololá	9	Septiembre	2023-09-21T00:00:00	2024-11-08T08:00:00	6	Velocidad del viento	0
48494	7	Sololá	701	Sololá	1	Sololá	9	Septiembre	2023-09-21T00:00:00	2024-11-08T08:00:00	7	Dirección del viento	0
48495	7	Sololá	701	Sololá	1	Sololá	9	Septiembre	2023-09-21T00:00:00	2024-11-08T08:00:00	1	Precipitación	0
48496	7	Sololá	701	Sololá	1	Sololá	9	Septiembre	2023-09-21T00:00:00	2024-11-08T08:00:00	8	Radiación solar	140
48497	7	Sololá	701	Sololá	1	Sololá	9	Septiembre	2023-09-21T00:00:00	2024-11-08T09:00:00	2	Temperatura media	21.1
48498	7	Sololá	701	Sololá	1	Sololá	9	Septiembre	2023-09-21T00:00:00	2024-11-08T09:00:00	4	Temperatura máxima	21.2
48499	7	Sololá	701	Sololá	1	Sololá	9	Septiembre	2023-09-21T00:00:00	2024-11-08T09:00:00	3	Temperatura mínima	17.2
48500	7	Sololá	701	Sololá	1	Sololá	9	Septiembre	2023-09-21T00:00:00	2024-11-08T09:00:00	5	Humedad	71
48501	7	Sololá	701	Sololá	1	Sololá	9	Septiembre	2023-09-21T00:00:00	2024-11-08T09:00:00	6	Velocidad del viento	0
48502	7	Sololá	701	Sololá	1	Sololá	9	Septiembre	2023-09-21T00:00:00	2024-11-08T09:00:00	7	Dirección del viento	0
48503	7	Sololá	701	Sololá	1	Sololá	9	Septiembre	2023-09-21T00:00:00	2024-11-08T09:00:00	1	Precipitación	0
48504	7	Sololá	701	Sololá	1	Sololá	9	Septiembre	2023-09-21T00:00:00	2024-11-08T09:00:00	8	Radiación solar	601
48505	7	Sololá	701	Sololá	1	Sololá	9	Septiembre	2023-09-21T00:00:00	2024-11-08T10:00:00	2	Temperatura media	21.8
48506	7	Sololá	701	Sololá	1	Sololá	9	Septiembre	2023-09-21T00:00:00	2024-11-08T10:00:00	4	Temperatura máxima	22.2
48507	7	Sololá	701	Sololá	1	Sololá	9	Septiembre	2023-09-21T00:00:00	2024-11-08T10:00:00	3	Temperatura mínima	21.1
48508	7	Sololá	701	Sololá	1	Sololá	9	Septiembre	2023-09-21T00:00:00	2024-11-08T10:00:00	5	Humedad	68
48509	7	Sololá	701	Sololá	1	Sololá	9	Septiembre	2023-09-21T00:00:00	2024-11-08T10:00:00	6	Velocidad del viento	0
48510	7	Sololá	701	Sololá	1	Sololá	9	Septiembre	2023-09-21T00:00:00	2024-11-08T10:00:00	7	Dirección del viento	0
48511	7	Sololá	701	Sololá	1	Sololá	9	Septiembre	2023-09-21T00:00:00	2024-11-08T10:00:00	1	Precipitación	0
48512	7	Sololá	701	Sololá	1	Sololá	9	Septiembre	2023-09-21T00:00:00	2024-11-08T10:00:00	8	Radiación solar	701
48513	7	Sololá	701	Sololá	1	Sololá	9	Septiembre	2023-09-21T00:00:00	2024-11-08T11:00:00	2	Temperatura media	22.5
48514	7	Sololá	701	Sololá	1	Sololá	9	Septiembre	2023-09-21T00:00:00	2024-11-08T11:00:00	4	Temperatura máxima	22.6
48515	7	Sololá	701	Sololá	1	Sololá	9	Septiembre	2023-09-21T00:00:00	2024-11-08T11:00:00	3	Temperatura mínima	21.6
48516	7	Sololá	701	Sololá	1	Sololá	9	Septiembre	2023-09-21T00:00:00	2024-11-08T11:00:00	5	Humedad	65
48517	7	Sololá	701	Sololá	1	Sololá	9	Septiembre	2023-09-21T00:00:00	2024-11-08T11:00:00	6	Velocidad del viento	0
48518	7	Sololá	701	Sololá	1	Sololá	9	Septiembre	2023-09-21T00:00:00	2024-11-08T11:00:00	7	Dirección del viento	0
48519	7	Sololá	701	Sololá	1	Sololá	9	Septiembre	2023-09-21T00:00:00	2024-11-08T11:00:00	1	Precipitación	0
48520	7	Sololá	701	Sololá	1	Sololá	9	Septiembre	2023-09-21T00:00:00	2024-11-08T11:00:00	8	Radiación solar	412
48521	7	Sololá	701	Sololá	1	Sololá	9	Septiembre	2023-09-21T00:00:00	2024-11-08T12:00:00	2	Temperatura media	23.6
48522	7	Sololá	701	Sololá	1	Sololá	9	Septiembre	2023-09-21T00:00:00	2024-11-08T12:00:00	4	Temperatura máxima	23.6
48523	7	Sololá	701	Sololá	1	Sololá	9	Septiembre	2023-09-21T00:00:00	2024-11-08T12:00:00	3	Temperatura mínima	22.5
48524	7	Sololá	701	Sololá	1	Sololá	9	Septiembre	2023-09-21T00:00:00	2024-11-08T12:00:00	5	Humedad	65
48525	7	Sololá	701	Sololá	1	Sololá	9	Septiembre	2023-09-21T00:00:00	2024-11-08T12:00:00	6	Velocidad del viento	0
48526	7	Sololá	701	Sololá	1	Sololá	9	Septiembre	2023-09-21T00:00:00	2024-11-08T12:00:00	7	Dirección del viento	0
48527	7	Sololá	701	Sololá	1	Sololá	9	Septiembre	2023-09-21T00:00:00	2024-11-08T12:00:00	1	Precipitación	0
48528	7	Sololá	701	Sololá	1	Sololá	9	Septiembre	2023-09-21T00:00:00	2024-11-08T12:00:00	8	Radiación solar	560
48529	7	Sololá	701	Sololá	1	Sololá	9	Septiembre	2023-09-21T00:00:00	2024-11-08T13:00:00	2	Temperatura media	23.7
48530	7	Sololá	701	Sololá	1	Sololá	9	Septiembre	2023-09-21T00:00:00	2024-11-08T13:00:00	4	Temperatura máxima	23.7
48531	7	Sololá	701	Sololá	1	Sololá	9	Septiembre	2023-09-21T00:00:00	2024-11-08T13:00:00	3	Temperatura mínima	22.6
48532	7	Sololá	701	Sololá	1	Sololá	9	Septiembre	2023-09-21T00:00:00	2024-11-08T13:00:00	5	Humedad	64
48533	7	Sololá	701	Sololá	1	Sololá	9	Septiembre	2023-09-21T00:00:00	2024-11-08T13:00:00	6	Velocidad del viento	0
48534	7	Sololá	701	Sololá	1	Sololá	9	Septiembre	2023-09-21T00:00:00	2024-11-08T13:00:00	7	Dirección del viento	0
48535	7	Sololá	701	Sololá	1	Sololá	9	Septiembre	2023-09-21T00:00:00	2024-11-08T13:00:00	1	Precipitación	0
48536	7	Sololá	701	Sololá	1	Sololá	9	Septiembre	2023-09-21T00:00:00	2024-11-08T13:00:00	8	Radiación solar	281
48537	7	Sololá	701	Sololá	1	Sololá	9	Septiembre	2023-09-21T00:00:00	2024-11-08T14:00:00	2	Temperatura media	24.6
48538	7	Sololá	701	Sololá	1	Sololá	9	Septiembre	2023-09-21T00:00:00	2024-11-08T14:00:00	4	Temperatura máxima	24.7
48539	7	Sololá	701	Sololá	1	Sololá	9	Septiembre	2023-09-21T00:00:00	2024-11-08T14:00:00	3	Temperatura mínima	23.7
48540	7	Sololá	701	Sololá	1	Sololá	9	Septiembre	2023-09-21T00:00:00	2024-11-08T14:00:00	5	Humedad	60
48541	7	Sololá	701	Sololá	1	Sololá	9	Septiembre	2023-09-21T00:00:00	2024-11-08T14:00:00	6	Velocidad del viento	1.6
48542	7	Sololá	701	Sololá	1	Sololá	9	Septiembre	2023-09-21T00:00:00	2024-11-08T14:00:00	7	Dirección del viento	1.61
48543	7	Sololá	701	Sololá	1	Sololá	9	Septiembre	2023-09-21T00:00:00	2024-11-08T14:00:00	1	Precipitación	0
48544	7	Sololá	701	Sololá	1	Sololá	9	Septiembre	2023-09-21T00:00:00	2024-11-08T14:00:00	8	Radiación solar	135
48545	7	Sololá	701	Sololá	1	Sololá	9	Septiembre	2023-09-21T00:00:00	2024-11-08T15:00:00	2	Temperatura media	23.3
48546	7	Sololá	701	Sololá	1	Sololá	9	Septiembre	2023-09-21T00:00:00	2024-11-08T15:00:00	4	Temperatura máxima	24.8
48547	7	Sololá	701	Sololá	1	Sololá	9	Septiembre	2023-09-21T00:00:00	2024-11-08T15:00:00	3	Temperatura mínima	23.3
48548	7	Sololá	701	Sololá	1	Sololá	9	Septiembre	2023-09-21T00:00:00	2024-11-08T15:00:00	5	Humedad	61
48549	7	Sololá	701	Sololá	1	Sololá	9	Septiembre	2023-09-21T00:00:00	2024-11-08T15:00:00	6	Velocidad del viento	0
48550	7	Sololá	701	Sololá	1	Sololá	9	Septiembre	2023-09-21T00:00:00	2024-11-08T15:00:00	7	Dirección del viento	0
48551	7	Sololá	701	Sololá	1	Sololá	9	Septiembre	2023-09-21T00:00:00	2024-11-08T15:00:00	1	Precipitación	0
48552	7	Sololá	701	Sololá	1	Sololá	9	Septiembre	2023-09-21T00:00:00	2024-11-08T15:00:00	8	Radiación solar	102
48553	7	Sololá	701	Sololá	1	Sololá	9	Septiembre	2023-09-21T00:00:00	2024-11-08T16:00:00	2	Temperatura media	22.6
48554	7	Sololá	701	Sololá	1	Sololá	9	Septiembre	2023-09-21T00:00:00	2024-11-08T16:00:00	4	Temperatura máxima	23.3
48555	7	Sololá	701	Sololá	1	Sololá	9	Septiembre	2023-09-21T00:00:00	2024-11-08T16:00:00	3	Temperatura mínima	22.6
48556	7	Sololá	701	Sololá	1	Sololá	9	Septiembre	2023-09-21T00:00:00	2024-11-08T16:00:00	5	Humedad	76
48557	7	Sololá	701	Sololá	1	Sololá	9	Septiembre	2023-09-21T00:00:00	2024-11-08T16:00:00	6	Velocidad del viento	0
48558	7	Sololá	701	Sololá	1	Sololá	9	Septiembre	2023-09-21T00:00:00	2024-11-08T16:00:00	7	Dirección del viento	0
48559	7	Sololá	701	Sololá	1	Sololá	9	Septiembre	2023-09-21T00:00:00	2024-11-08T16:00:00	1	Precipitación	0
48560	7	Sololá	701	Sololá	1	Sololá	9	Septiembre	2023-09-21T00:00:00	2024-11-08T16:00:00	8	Radiación solar	69
48561	7	Sololá	701	Sololá	1	Sololá	9	Septiembre	2023-09-21T00:00:00	2024-11-08T17:00:00	2	Temperatura media	20
48562	7	Sololá	701	Sololá	1	Sololá	9	Septiembre	2023-09-21T00:00:00	2024-11-08T17:00:00	4	Temperatura máxima	22.6
48563	7	Sololá	701	Sololá	1	Sololá	9	Septiembre	2023-09-21T00:00:00	2024-11-08T17:00:00	3	Temperatura mínima	20
48564	7	Sololá	701	Sololá	1	Sololá	9	Septiembre	2023-09-21T00:00:00	2024-11-08T17:00:00	5	Humedad	87
48565	7	Sololá	701	Sololá	1	Sololá	9	Septiembre	2023-09-21T00:00:00	2024-11-08T17:00:00	6	Velocidad del viento	0
48566	7	Sololá	701	Sololá	1	Sololá	9	Septiembre	2023-09-21T00:00:00	2024-11-08T17:00:00	7	Dirección del viento	0
48567	7	Sololá	701	Sololá	1	Sololá	9	Septiembre	2023-09-21T00:00:00	2024-11-08T17:00:00	1	Precipitación	0
48568	7	Sololá	701	Sololá	1	Sololá	9	Septiembre	2023-09-21T00:00:00	2024-11-08T17:00:00	8	Radiación solar	35
48569	7	Sololá	701	Sololá	1	Sololá	9	Septiembre	2023-09-21T00:00:00	2024-11-08T18:00:00	2	Temperatura media	18.4
48570	7	Sololá	701	Sololá	1	Sololá	9	Septiembre	2023-09-21T00:00:00	2024-11-08T18:00:00	4	Temperatura máxima	20
48571	7	Sololá	701	Sololá	1	Sololá	9	Septiembre	2023-09-21T00:00:00	2024-11-08T18:00:00	3	Temperatura mínima	18.4
48572	7	Sololá	701	Sololá	1	Sololá	9	Septiembre	2023-09-21T00:00:00	2024-11-08T18:00:00	5	Humedad	90
48573	7	Sololá	701	Sololá	1	Sololá	9	Septiembre	2023-09-21T00:00:00	2024-11-08T18:00:00	6	Velocidad del viento	0
48574	7	Sololá	701	Sololá	1	Sololá	9	Septiembre	2023-09-21T00:00:00	2024-11-08T18:00:00	7	Dirección del viento	0
48575	7	Sololá	701	Sololá	1	Sololá	9	Septiembre	2023-09-21T00:00:00	2024-11-08T18:00:00	1	Precipitación	0
48576	7	Sololá	701	Sololá	1	Sololá	9	Septiembre	2023-09-21T00:00:00	2024-11-08T18:00:00	8	Radiación solar	5
48577	7	Sololá	701	Sololá	1	Sololá	9	Septiembre	2023-09-21T00:00:00	2024-11-08T19:00:00	2	Temperatura media	18
48578	7	Sololá	701	Sololá	1	Sololá	9	Septiembre	2023-09-21T00:00:00	2024-11-08T19:00:00	4	Temperatura máxima	18.4
48579	7	Sololá	701	Sololá	1	Sololá	9	Septiembre	2023-09-21T00:00:00	2024-11-08T19:00:00	3	Temperatura mínima	17.9
48580	7	Sololá	701	Sololá	1	Sololá	9	Septiembre	2023-09-21T00:00:00	2024-11-08T19:00:00	5	Humedad	93
48581	7	Sololá	701	Sololá	1	Sololá	9	Septiembre	2023-09-21T00:00:00	2024-11-08T19:00:00	6	Velocidad del viento	0
48582	7	Sololá	701	Sololá	1	Sololá	9	Septiembre	2023-09-21T00:00:00	2024-11-08T19:00:00	7	Dirección del viento	0
48583	7	Sololá	701	Sololá	1	Sololá	9	Septiembre	2023-09-21T00:00:00	2024-11-08T19:00:00	1	Precipitación	0
48584	7	Sololá	701	Sololá	1	Sololá	9	Septiembre	2023-09-21T00:00:00	2024-11-08T19:00:00	8	Radiación solar	0
48585	7	Sololá	701	Sololá	1	Sololá	9	Septiembre	2023-09-21T00:00:00	2024-11-08T20:00:00	2	Temperatura media	17.3
48586	7	Sololá	701	Sololá	1	Sololá	9	Septiembre	2023-09-21T00:00:00	2024-11-08T20:00:00	4	Temperatura máxima	18
48587	7	Sololá	701	Sololá	1	Sololá	9	Septiembre	2023-09-21T00:00:00	2024-11-08T20:00:00	3	Temperatura mínima	17.3
48588	7	Sololá	701	Sololá	1	Sololá	9	Septiembre	2023-09-21T00:00:00	2024-11-08T20:00:00	5	Humedad	91
48589	7	Sololá	701	Sololá	1	Sololá	9	Septiembre	2023-09-21T00:00:00	2024-11-08T20:00:00	6	Velocidad del viento	0
48590	7	Sololá	701	Sololá	1	Sololá	9	Septiembre	2023-09-21T00:00:00	2024-11-08T20:00:00	7	Dirección del viento	0
48591	7	Sololá	701	Sololá	1	Sololá	9	Septiembre	2023-09-21T00:00:00	2024-11-08T20:00:00	1	Precipitación	0
48592	7	Sololá	701	Sololá	1	Sololá	9	Septiembre	2023-09-21T00:00:00	2024-11-08T20:00:00	8	Radiación solar	0
48593	7	Sololá	701	Sololá	1	Sololá	9	Septiembre	2023-09-21T00:00:00	2024-11-08T21:00:00	2	Temperatura media	17
48594	7	Sololá	701	Sololá	1	Sololá	9	Septiembre	2023-09-21T00:00:00	2024-11-08T21:00:00	4	Temperatura máxima	17.3
48595	7	Sololá	701	Sololá	1	Sololá	9	Septiembre	2023-09-21T00:00:00	2024-11-08T21:00:00	3	Temperatura mínima	17
48596	7	Sololá	701	Sololá	1	Sololá	9	Septiembre	2023-09-21T00:00:00	2024-11-08T21:00:00	5	Humedad	94
48597	7	Sololá	701	Sololá	1	Sololá	9	Septiembre	2023-09-21T00:00:00	2024-11-08T21:00:00	6	Velocidad del viento	0
48598	7	Sololá	701	Sololá	1	Sololá	9	Septiembre	2023-09-21T00:00:00	2024-11-08T21:00:00	7	Dirección del viento	0
48599	7	Sololá	701	Sololá	1	Sololá	9	Septiembre	2023-09-21T00:00:00	2024-11-08T21:00:00	1	Precipitación	5.4
48600	7	Sololá	701	Sololá	1	Sololá	9	Septiembre	2023-09-21T00:00:00	2024-11-08T21:00:00	8	Radiación solar	0
48601	7	Sololá	701	Sololá	1	Sololá	9	Septiembre	2023-09-21T00:00:00	2024-11-08T22:00:00	2	Temperatura media	15.9
48602	7	Sololá	701	Sololá	1	Sololá	9	Septiembre	2023-09-21T00:00:00	2024-11-08T22:00:00	4	Temperatura máxima	17
48603	7	Sololá	701	Sololá	1	Sololá	9	Septiembre	2023-09-21T00:00:00	2024-11-08T22:00:00	3	Temperatura mínima	15.9
48604	7	Sololá	701	Sololá	1	Sololá	9	Septiembre	2023-09-21T00:00:00	2024-11-08T22:00:00	5	Humedad	95
48605	7	Sololá	701	Sololá	1	Sololá	9	Septiembre	2023-09-21T00:00:00	2024-11-08T22:00:00	6	Velocidad del viento	0
48606	7	Sololá	701	Sololá	1	Sololá	9	Septiembre	2023-09-21T00:00:00	2024-11-08T22:00:00	7	Dirección del viento	0
48607	7	Sololá	701	Sololá	1	Sololá	9	Septiembre	2023-09-21T00:00:00	2024-11-08T22:00:00	1	Precipitación	55.4
48608	7	Sololá	701	Sololá	1	Sololá	9	Septiembre	2023-09-21T00:00:00	2024-11-08T22:00:00	8	Radiación solar	0
48609	7	Sololá	701	Sololá	1	Sololá	9	Septiembre	2023-09-21T00:00:00	2024-11-08T23:00:00	2	Temperatura media	15.6
48610	7	Sololá	701	Sololá	1	Sololá	9	Septiembre	2023-09-21T00:00:00	2024-11-08T23:00:00	4	Temperatura máxima	15.9
48611	7	Sololá	701	Sololá	1	Sololá	9	Septiembre	2023-09-21T00:00:00	2024-11-08T23:00:00	3	Temperatura mínima	15.6
48612	7	Sololá	701	Sololá	1	Sololá	9	Septiembre	2023-09-21T00:00:00	2024-11-08T23:00:00	5	Humedad	95
48613	7	Sololá	701	Sololá	1	Sololá	9	Septiembre	2023-09-21T00:00:00	2024-11-08T23:00:00	6	Velocidad del viento	0
48614	7	Sololá	701	Sololá	1	Sololá	9	Septiembre	2023-09-21T00:00:00	2024-11-08T23:00:00	7	Dirección del viento	0
48615	7	Sololá	701	Sololá	1	Sololá	9	Septiembre	2023-09-21T00:00:00	2024-11-08T23:00:00	1	Precipitación	12.8
48616	7	Sololá	701	Sololá	1	Sololá	9	Septiembre	2023-09-21T00:00:00	2024-11-08T23:00:00	8	Radiación solar	0
48617	7	Sololá	701	Sololá	1	Sololá	9	Septiembre	2023-09-22T00:00:00	2024-11-08T00:00:00	2	Temperatura media	15.5
48618	7	Sololá	701	Sololá	1	Sololá	9	Septiembre	2023-09-22T00:00:00	2024-11-08T00:00:00	4	Temperatura máxima	15.6
48619	7	Sololá	701	Sololá	1	Sololá	9	Septiembre	2023-09-22T00:00:00	2024-11-08T00:00:00	3	Temperatura mínima	15.4
48620	7	Sololá	701	Sololá	1	Sololá	9	Septiembre	2023-09-22T00:00:00	2024-11-08T00:00:00	5	Humedad	96
48621	7	Sololá	701	Sololá	1	Sololá	9	Septiembre	2023-09-22T00:00:00	2024-11-08T00:00:00	6	Velocidad del viento	0
48622	7	Sololá	701	Sololá	1	Sololá	9	Septiembre	2023-09-22T00:00:00	2024-11-08T00:00:00	7	Dirección del viento	0
48623	7	Sololá	701	Sololá	1	Sololá	9	Septiembre	2023-09-22T00:00:00	2024-11-08T00:00:00	1	Precipitación	0
48624	7	Sololá	701	Sololá	1	Sololá	9	Septiembre	2023-09-22T00:00:00	2024-11-08T00:00:00	8	Radiación solar	0
48625	7	Sololá	701	Sololá	1	Sololá	9	Septiembre	2023-09-22T00:00:00	2024-11-08T01:00:00	2	Temperatura media	14.8
48626	7	Sololá	701	Sololá	1	Sololá	9	Septiembre	2023-09-22T00:00:00	2024-11-08T01:00:00	4	Temperatura máxima	15.5
48627	7	Sololá	701	Sololá	1	Sololá	9	Septiembre	2023-09-22T00:00:00	2024-11-08T01:00:00	3	Temperatura mínima	14.8
48628	7	Sololá	701	Sololá	1	Sololá	9	Septiembre	2023-09-22T00:00:00	2024-11-08T01:00:00	5	Humedad	95
48629	7	Sololá	701	Sololá	1	Sololá	9	Septiembre	2023-09-22T00:00:00	2024-11-08T01:00:00	6	Velocidad del viento	0
48630	7	Sololá	701	Sololá	1	Sololá	9	Septiembre	2023-09-22T00:00:00	2024-11-08T01:00:00	7	Dirección del viento	0
48631	7	Sololá	701	Sololá	1	Sololá	9	Septiembre	2023-09-22T00:00:00	2024-11-08T01:00:00	1	Precipitación	0
48632	7	Sololá	701	Sololá	1	Sololá	9	Septiembre	2023-09-22T00:00:00	2024-11-08T01:00:00	8	Radiación solar	0
48633	7	Sololá	701	Sololá	1	Sololá	9	Septiembre	2023-09-22T00:00:00	2024-11-08T02:00:00	2	Temperatura media	14.8
48634	7	Sololá	701	Sololá	1	Sololá	9	Septiembre	2023-09-22T00:00:00	2024-11-08T02:00:00	4	Temperatura máxima	14.8
48635	7	Sololá	701	Sololá	1	Sololá	9	Septiembre	2023-09-22T00:00:00	2024-11-08T02:00:00	3	Temperatura mínima	14.7
48636	7	Sololá	701	Sololá	1	Sololá	9	Septiembre	2023-09-22T00:00:00	2024-11-08T02:00:00	5	Humedad	96
48637	7	Sololá	701	Sololá	1	Sololá	9	Septiembre	2023-09-22T00:00:00	2024-11-08T02:00:00	6	Velocidad del viento	0
48638	7	Sololá	701	Sololá	1	Sololá	9	Septiembre	2023-09-22T00:00:00	2024-11-08T02:00:00	7	Dirección del viento	0
48639	7	Sololá	701	Sololá	1	Sololá	9	Septiembre	2023-09-22T00:00:00	2024-11-08T02:00:00	1	Precipitación	0
48640	7	Sololá	701	Sololá	1	Sololá	9	Septiembre	2023-09-22T00:00:00	2024-11-08T02:00:00	8	Radiación solar	0
48641	7	Sololá	701	Sololá	1	Sololá	9	Septiembre	2023-09-22T00:00:00	2024-11-08T03:00:00	2	Temperatura media	14.4
48642	7	Sololá	701	Sololá	1	Sololá	9	Septiembre	2023-09-22T00:00:00	2024-11-08T03:00:00	4	Temperatura máxima	14.8
48643	7	Sololá	701	Sololá	1	Sololá	9	Septiembre	2023-09-22T00:00:00	2024-11-08T03:00:00	3	Temperatura mínima	14.4
48644	7	Sololá	701	Sololá	1	Sololá	9	Septiembre	2023-09-22T00:00:00	2024-11-08T03:00:00	5	Humedad	96
48645	7	Sololá	701	Sololá	1	Sololá	9	Septiembre	2023-09-22T00:00:00	2024-11-08T03:00:00	6	Velocidad del viento	0
48646	7	Sololá	701	Sololá	1	Sololá	9	Septiembre	2023-09-22T00:00:00	2024-11-08T03:00:00	7	Dirección del viento	0
48647	7	Sololá	701	Sololá	1	Sololá	9	Septiembre	2023-09-22T00:00:00	2024-11-08T03:00:00	1	Precipitación	0.2
48648	7	Sololá	701	Sololá	1	Sololá	9	Septiembre	2023-09-22T00:00:00	2024-11-08T03:00:00	8	Radiación solar	0
48649	7	Sololá	701	Sololá	1	Sololá	9	Septiembre	2023-09-22T00:00:00	2024-11-08T04:00:00	2	Temperatura media	14
48650	7	Sololá	701	Sololá	1	Sololá	9	Septiembre	2023-09-22T00:00:00	2024-11-08T04:00:00	4	Temperatura máxima	14.4
48651	7	Sololá	701	Sololá	1	Sololá	9	Septiembre	2023-09-22T00:00:00	2024-11-08T04:00:00	3	Temperatura mínima	13.9
48652	7	Sololá	701	Sololá	1	Sololá	9	Septiembre	2023-09-22T00:00:00	2024-11-08T04:00:00	5	Humedad	96
48653	7	Sololá	701	Sololá	1	Sololá	9	Septiembre	2023-09-22T00:00:00	2024-11-08T04:00:00	6	Velocidad del viento	0
48654	7	Sololá	701	Sololá	1	Sololá	9	Septiembre	2023-09-22T00:00:00	2024-11-08T04:00:00	7	Dirección del viento	0
48655	7	Sololá	701	Sololá	1	Sololá	9	Septiembre	2023-09-22T00:00:00	2024-11-08T04:00:00	1	Precipitación	0
48656	7	Sololá	701	Sololá	1	Sololá	9	Septiembre	2023-09-22T00:00:00	2024-11-08T04:00:00	8	Radiación solar	0
48657	7	Sololá	701	Sololá	1	Sololá	9	Septiembre	2023-09-22T00:00:00	2024-11-08T05:00:00	2	Temperatura media	13.7
48658	7	Sololá	701	Sololá	1	Sololá	9	Septiembre	2023-09-22T00:00:00	2024-11-08T05:00:00	4	Temperatura máxima	14
48659	7	Sololá	701	Sololá	1	Sololá	9	Septiembre	2023-09-22T00:00:00	2024-11-08T05:00:00	3	Temperatura mínima	13.7
48660	7	Sololá	701	Sololá	1	Sololá	9	Septiembre	2023-09-22T00:00:00	2024-11-08T05:00:00	5	Humedad	95
48661	7	Sololá	701	Sololá	1	Sololá	9	Septiembre	2023-09-22T00:00:00	2024-11-08T05:00:00	6	Velocidad del viento	0
48662	7	Sololá	701	Sololá	1	Sololá	9	Septiembre	2023-09-22T00:00:00	2024-11-08T05:00:00	7	Dirección del viento	0
48663	7	Sololá	701	Sololá	1	Sololá	9	Septiembre	2023-09-22T00:00:00	2024-11-08T05:00:00	1	Precipitación	0
48664	7	Sololá	701	Sololá	1	Sololá	9	Septiembre	2023-09-22T00:00:00	2024-11-08T05:00:00	8	Radiación solar	0
48665	7	Sololá	701	Sololá	1	Sololá	9	Septiembre	2023-09-22T00:00:00	2024-11-08T06:00:00	2	Temperatura media	13.3
48666	7	Sololá	701	Sololá	1	Sololá	9	Septiembre	2023-09-22T00:00:00	2024-11-08T06:00:00	4	Temperatura máxima	13.7
48667	7	Sololá	701	Sololá	1	Sololá	9	Septiembre	2023-09-22T00:00:00	2024-11-08T06:00:00	3	Temperatura mínima	13.3
48668	7	Sololá	701	Sololá	1	Sololá	9	Septiembre	2023-09-22T00:00:00	2024-11-08T06:00:00	5	Humedad	95
48669	7	Sololá	701	Sololá	1	Sololá	9	Septiembre	2023-09-22T00:00:00	2024-11-08T06:00:00	6	Velocidad del viento	0
48670	7	Sololá	701	Sololá	1	Sololá	9	Septiembre	2023-09-22T00:00:00	2024-11-08T06:00:00	7	Dirección del viento	0
48671	7	Sololá	701	Sololá	1	Sololá	9	Septiembre	2023-09-22T00:00:00	2024-11-08T06:00:00	1	Precipitación	0
48672	7	Sololá	701	Sololá	1	Sololá	9	Septiembre	2023-09-22T00:00:00	2024-11-08T06:00:00	8	Radiación solar	0
48673	7	Sololá	701	Sololá	1	Sololá	9	Septiembre	2023-09-22T00:00:00	2024-11-08T07:00:00	2	Temperatura media	13.9
48674	7	Sololá	701	Sololá	1	Sololá	9	Septiembre	2023-09-22T00:00:00	2024-11-08T07:00:00	4	Temperatura máxima	13.9
48675	7	Sololá	701	Sololá	1	Sololá	9	Septiembre	2023-09-22T00:00:00	2024-11-08T07:00:00	3	Temperatura mínima	13.3
48676	7	Sololá	701	Sololá	1	Sololá	9	Septiembre	2023-09-22T00:00:00	2024-11-08T07:00:00	5	Humedad	95
48677	7	Sololá	701	Sololá	1	Sololá	9	Septiembre	2023-09-22T00:00:00	2024-11-08T07:00:00	6	Velocidad del viento	0
48678	7	Sololá	701	Sololá	1	Sololá	9	Septiembre	2023-09-22T00:00:00	2024-11-08T07:00:00	7	Dirección del viento	0
48679	7	Sololá	701	Sololá	1	Sololá	9	Septiembre	2023-09-22T00:00:00	2024-11-08T07:00:00	1	Precipitación	0
48680	7	Sololá	701	Sololá	1	Sololá	9	Septiembre	2023-09-22T00:00:00	2024-11-08T07:00:00	8	Radiación solar	13
48681	7	Sololá	701	Sololá	1	Sololá	9	Septiembre	2023-09-22T00:00:00	2024-11-08T08:00:00	2	Temperatura media	15.6
48682	7	Sololá	701	Sololá	1	Sololá	9	Septiembre	2023-09-22T00:00:00	2024-11-08T08:00:00	4	Temperatura máxima	15.6
48683	7	Sololá	701	Sololá	1	Sololá	9	Septiembre	2023-09-22T00:00:00	2024-11-08T08:00:00	3	Temperatura mínima	13.9
48684	7	Sololá	701	Sololá	1	Sololá	9	Septiembre	2023-09-22T00:00:00	2024-11-08T08:00:00	5	Humedad	95
48685	7	Sololá	701	Sololá	1	Sololá	9	Septiembre	2023-09-22T00:00:00	2024-11-08T08:00:00	6	Velocidad del viento	0
48686	7	Sololá	701	Sololá	1	Sololá	9	Septiembre	2023-09-22T00:00:00	2024-11-08T08:00:00	7	Dirección del viento	0
48687	7	Sololá	701	Sololá	1	Sololá	9	Septiembre	2023-09-22T00:00:00	2024-11-08T08:00:00	1	Precipitación	0
48688	7	Sololá	701	Sololá	1	Sololá	9	Septiembre	2023-09-22T00:00:00	2024-11-08T08:00:00	8	Radiación solar	141
48689	7	Sololá	701	Sololá	1	Sololá	9	Septiembre	2023-09-22T00:00:00	2024-11-08T09:00:00	2	Temperatura media	20.4
48690	7	Sololá	701	Sololá	1	Sololá	9	Septiembre	2023-09-22T00:00:00	2024-11-08T09:00:00	4	Temperatura máxima	20.4
48691	7	Sololá	701	Sololá	1	Sololá	9	Septiembre	2023-09-22T00:00:00	2024-11-08T09:00:00	3	Temperatura mínima	15.6
48692	7	Sololá	701	Sololá	1	Sololá	9	Septiembre	2023-09-22T00:00:00	2024-11-08T09:00:00	5	Humedad	74
48693	7	Sololá	701	Sololá	1	Sololá	9	Septiembre	2023-09-22T00:00:00	2024-11-08T09:00:00	6	Velocidad del viento	0
48694	7	Sololá	701	Sololá	1	Sololá	9	Septiembre	2023-09-22T00:00:00	2024-11-08T09:00:00	7	Dirección del viento	0
48695	7	Sololá	701	Sololá	1	Sololá	9	Septiembre	2023-09-22T00:00:00	2024-11-08T09:00:00	1	Precipitación	0
48696	7	Sololá	701	Sololá	1	Sololá	9	Septiembre	2023-09-22T00:00:00	2024-11-08T09:00:00	8	Radiación solar	648
48697	7	Sololá	701	Sololá	1	Sololá	9	Septiembre	2023-09-22T00:00:00	2024-11-08T10:00:00	2	Temperatura media	19.7
48698	7	Sololá	701	Sololá	1	Sololá	9	Septiembre	2023-09-22T00:00:00	2024-11-08T10:00:00	4	Temperatura máxima	21.2
48699	7	Sololá	701	Sololá	1	Sololá	9	Septiembre	2023-09-22T00:00:00	2024-11-08T10:00:00	3	Temperatura mínima	19.4
48700	7	Sololá	701	Sololá	1	Sololá	9	Septiembre	2023-09-22T00:00:00	2024-11-08T10:00:00	5	Humedad	76
48701	7	Sololá	701	Sololá	1	Sololá	9	Septiembre	2023-09-22T00:00:00	2024-11-08T10:00:00	6	Velocidad del viento	0
48702	7	Sololá	701	Sololá	1	Sololá	9	Septiembre	2023-09-22T00:00:00	2024-11-08T10:00:00	7	Dirección del viento	0
48703	7	Sololá	701	Sololá	1	Sololá	9	Septiembre	2023-09-22T00:00:00	2024-11-08T10:00:00	1	Precipitación	0
48704	7	Sololá	701	Sololá	1	Sololá	9	Septiembre	2023-09-22T00:00:00	2024-11-08T10:00:00	8	Radiación solar	294
48705	7	Sololá	701	Sololá	1	Sololá	9	Septiembre	2023-09-22T00:00:00	2024-11-08T11:00:00	2	Temperatura media	22.3
48706	7	Sololá	701	Sololá	1	Sololá	9	Septiembre	2023-09-22T00:00:00	2024-11-08T11:00:00	4	Temperatura máxima	22.3
48707	7	Sololá	701	Sololá	1	Sololá	9	Septiembre	2023-09-22T00:00:00	2024-11-08T11:00:00	3	Temperatura mínima	19.7
48708	7	Sololá	701	Sololá	1	Sololá	9	Septiembre	2023-09-22T00:00:00	2024-11-08T11:00:00	5	Humedad	70
48709	7	Sololá	701	Sololá	1	Sololá	9	Septiembre	2023-09-22T00:00:00	2024-11-08T11:00:00	6	Velocidad del viento	0
48710	7	Sololá	701	Sololá	1	Sololá	9	Septiembre	2023-09-22T00:00:00	2024-11-08T11:00:00	7	Dirección del viento	0
48711	7	Sololá	701	Sololá	1	Sololá	9	Septiembre	2023-09-22T00:00:00	2024-11-08T11:00:00	1	Precipitación	0
48712	7	Sololá	701	Sololá	1	Sololá	9	Septiembre	2023-09-22T00:00:00	2024-11-08T11:00:00	8	Radiación solar	1031
48713	7	Sololá	701	Sololá	1	Sololá	9	Septiembre	2023-09-22T00:00:00	2024-11-08T12:00:00	2	Temperatura media	22
48714	7	Sololá	701	Sololá	1	Sololá	9	Septiembre	2023-09-22T00:00:00	2024-11-08T12:00:00	4	Temperatura máxima	22.5
48715	7	Sololá	701	Sololá	1	Sololá	9	Septiembre	2023-09-22T00:00:00	2024-11-08T12:00:00	3	Temperatura mínima	21.8
48716	7	Sololá	701	Sololá	1	Sololá	9	Septiembre	2023-09-22T00:00:00	2024-11-08T12:00:00	5	Humedad	69
48717	7	Sololá	701	Sololá	1	Sololá	9	Septiembre	2023-09-22T00:00:00	2024-11-08T12:00:00	6	Velocidad del viento	0
48718	7	Sololá	701	Sololá	1	Sololá	9	Septiembre	2023-09-22T00:00:00	2024-11-08T12:00:00	7	Dirección del viento	0
48719	7	Sololá	701	Sololá	1	Sololá	9	Septiembre	2023-09-22T00:00:00	2024-11-08T12:00:00	1	Precipitación	0
48720	7	Sololá	701	Sololá	1	Sololá	9	Septiembre	2023-09-22T00:00:00	2024-11-08T12:00:00	8	Radiación solar	285
48721	7	Sololá	701	Sololá	1	Sololá	9	Septiembre	2023-09-22T00:00:00	2024-11-08T13:00:00	2	Temperatura media	20.1
48722	7	Sololá	701	Sololá	1	Sololá	9	Septiembre	2023-09-22T00:00:00	2024-11-08T13:00:00	4	Temperatura máxima	22.1
48723	7	Sololá	701	Sololá	1	Sololá	9	Septiembre	2023-09-22T00:00:00	2024-11-08T13:00:00	3	Temperatura mínima	20
48724	7	Sololá	701	Sololá	1	Sololá	9	Septiembre	2023-09-22T00:00:00	2024-11-08T13:00:00	5	Humedad	85
48725	7	Sololá	701	Sololá	1	Sololá	9	Septiembre	2023-09-22T00:00:00	2024-11-08T13:00:00	6	Velocidad del viento	0
48726	7	Sololá	701	Sololá	1	Sololá	9	Septiembre	2023-09-22T00:00:00	2024-11-08T13:00:00	7	Dirección del viento	0
48727	7	Sololá	701	Sololá	1	Sololá	9	Septiembre	2023-09-22T00:00:00	2024-11-08T13:00:00	1	Precipitación	0
48728	7	Sololá	701	Sololá	1	Sololá	9	Septiembre	2023-09-22T00:00:00	2024-11-08T13:00:00	8	Radiación solar	102
48729	7	Sololá	701	Sololá	1	Sololá	9	Septiembre	2023-09-22T00:00:00	2024-11-08T14:00:00	2	Temperatura media	21.1
48730	7	Sololá	701	Sololá	1	Sololá	9	Septiembre	2023-09-22T00:00:00	2024-11-08T14:00:00	4	Temperatura máxima	21.2
48731	7	Sololá	701	Sololá	1	Sololá	9	Septiembre	2023-09-22T00:00:00	2024-11-08T14:00:00	3	Temperatura mínima	19.8
48732	7	Sololá	701	Sololá	1	Sololá	9	Septiembre	2023-09-22T00:00:00	2024-11-08T14:00:00	5	Humedad	84
48733	7	Sololá	701	Sololá	1	Sololá	9	Septiembre	2023-09-22T00:00:00	2024-11-08T14:00:00	6	Velocidad del viento	0
48734	7	Sololá	701	Sololá	1	Sololá	9	Septiembre	2023-09-22T00:00:00	2024-11-08T14:00:00	7	Dirección del viento	0
48735	7	Sololá	701	Sololá	1	Sololá	9	Septiembre	2023-09-22T00:00:00	2024-11-08T14:00:00	1	Precipitación	0
48736	7	Sololá	701	Sololá	1	Sololá	9	Septiembre	2023-09-22T00:00:00	2024-11-08T14:00:00	8	Radiación solar	116
48737	7	Sololá	701	Sololá	1	Sololá	9	Septiembre	2023-09-22T00:00:00	2024-11-08T15:00:00	2	Temperatura media	21.2
48738	7	Sololá	701	Sololá	1	Sololá	9	Septiembre	2023-09-22T00:00:00	2024-11-08T15:00:00	4	Temperatura máxima	21.4
48739	7	Sololá	701	Sololá	1	Sololá	9	Septiembre	2023-09-22T00:00:00	2024-11-08T15:00:00	3	Temperatura mínima	20.9
48740	7	Sololá	701	Sololá	1	Sololá	9	Septiembre	2023-09-22T00:00:00	2024-11-08T15:00:00	5	Humedad	84
48741	7	Sololá	701	Sololá	1	Sololá	9	Septiembre	2023-09-22T00:00:00	2024-11-08T15:00:00	6	Velocidad del viento	0
48742	7	Sololá	701	Sololá	1	Sololá	9	Septiembre	2023-09-22T00:00:00	2024-11-08T15:00:00	7	Dirección del viento	0
48743	7	Sololá	701	Sololá	1	Sololá	9	Septiembre	2023-09-22T00:00:00	2024-11-08T15:00:00	1	Precipitación	0
48744	7	Sololá	701	Sololá	1	Sololá	9	Septiembre	2023-09-22T00:00:00	2024-11-08T15:00:00	8	Radiación solar	86
48745	7	Sololá	701	Sololá	1	Sololá	9	Septiembre	2023-09-22T00:00:00	2024-11-08T16:00:00	2	Temperatura media	21.1
48746	7	Sololá	701	Sololá	1	Sololá	9	Septiembre	2023-09-22T00:00:00	2024-11-08T16:00:00	4	Temperatura máxima	21.4
48747	7	Sololá	701	Sololá	1	Sololá	9	Septiembre	2023-09-22T00:00:00	2024-11-08T16:00:00	3	Temperatura mínima	20.8
48748	7	Sololá	701	Sololá	1	Sololá	9	Septiembre	2023-09-22T00:00:00	2024-11-08T16:00:00	5	Humedad	82
48749	7	Sololá	701	Sololá	1	Sololá	9	Septiembre	2023-09-22T00:00:00	2024-11-08T16:00:00	6	Velocidad del viento	0
48750	7	Sololá	701	Sololá	1	Sololá	9	Septiembre	2023-09-22T00:00:00	2024-11-08T16:00:00	7	Dirección del viento	0
48751	7	Sololá	701	Sololá	1	Sololá	9	Septiembre	2023-09-22T00:00:00	2024-11-08T16:00:00	1	Precipitación	0
48752	7	Sololá	701	Sololá	1	Sololá	9	Septiembre	2023-09-22T00:00:00	2024-11-08T16:00:00	8	Radiación solar	76
48753	7	Sololá	701	Sololá	1	Sololá	9	Septiembre	2023-09-22T00:00:00	2024-11-08T17:00:00	2	Temperatura media	20.1
48754	7	Sololá	701	Sololá	1	Sololá	9	Septiembre	2023-09-22T00:00:00	2024-11-08T17:00:00	4	Temperatura máxima	21.6
48755	7	Sololá	701	Sololá	1	Sololá	9	Septiembre	2023-09-22T00:00:00	2024-11-08T17:00:00	3	Temperatura mínima	20.1
48756	7	Sololá	701	Sololá	1	Sololá	9	Septiembre	2023-09-22T00:00:00	2024-11-08T17:00:00	5	Humedad	88
48757	7	Sololá	701	Sololá	1	Sololá	9	Septiembre	2023-09-22T00:00:00	2024-11-08T17:00:00	6	Velocidad del viento	0
48758	7	Sololá	701	Sololá	1	Sololá	9	Septiembre	2023-09-22T00:00:00	2024-11-08T17:00:00	7	Dirección del viento	0
48759	7	Sololá	701	Sololá	1	Sololá	9	Septiembre	2023-09-22T00:00:00	2024-11-08T17:00:00	1	Precipitación	0
48760	7	Sololá	701	Sololá	1	Sololá	9	Septiembre	2023-09-22T00:00:00	2024-11-08T17:00:00	8	Radiación solar	53
48761	7	Sololá	701	Sololá	1	Sololá	9	Septiembre	2023-09-22T00:00:00	2024-11-08T18:00:00	2	Temperatura media	18.8
48762	7	Sololá	701	Sololá	1	Sololá	9	Septiembre	2023-09-22T00:00:00	2024-11-08T18:00:00	4	Temperatura máxima	20.1
48763	7	Sololá	701	Sololá	1	Sololá	9	Septiembre	2023-09-22T00:00:00	2024-11-08T18:00:00	3	Temperatura mínima	18.8
48764	7	Sololá	701	Sololá	1	Sololá	9	Septiembre	2023-09-22T00:00:00	2024-11-08T18:00:00	5	Humedad	91
48765	7	Sololá	701	Sololá	1	Sololá	9	Septiembre	2023-09-22T00:00:00	2024-11-08T18:00:00	6	Velocidad del viento	0
48766	7	Sololá	701	Sololá	1	Sololá	9	Septiembre	2023-09-22T00:00:00	2024-11-08T18:00:00	7	Dirección del viento	0
48767	7	Sololá	701	Sololá	1	Sololá	9	Septiembre	2023-09-22T00:00:00	2024-11-08T18:00:00	1	Precipitación	0
48768	7	Sololá	701	Sololá	1	Sololá	9	Septiembre	2023-09-22T00:00:00	2024-11-08T18:00:00	8	Radiación solar	33
48769	7	Sololá	701	Sololá	1	Sololá	9	Septiembre	2023-09-22T00:00:00	2024-11-08T19:00:00	2	Temperatura media	17.9
48770	7	Sololá	701	Sololá	1	Sololá	9	Septiembre	2023-09-22T00:00:00	2024-11-08T19:00:00	4	Temperatura máxima	18.9
48771	7	Sololá	701	Sololá	1	Sololá	9	Septiembre	2023-09-22T00:00:00	2024-11-08T19:00:00	3	Temperatura mínima	17.9
48772	7	Sololá	701	Sololá	1	Sololá	9	Septiembre	2023-09-22T00:00:00	2024-11-08T19:00:00	5	Humedad	92
48773	7	Sololá	701	Sololá	1	Sololá	9	Septiembre	2023-09-22T00:00:00	2024-11-08T19:00:00	6	Velocidad del viento	0
48774	7	Sololá	701	Sololá	1	Sololá	9	Septiembre	2023-09-22T00:00:00	2024-11-08T19:00:00	7	Dirección del viento	0
48775	7	Sololá	701	Sololá	1	Sololá	9	Septiembre	2023-09-22T00:00:00	2024-11-08T19:00:00	1	Precipitación	0
48776	7	Sololá	701	Sololá	1	Sololá	9	Septiembre	2023-09-22T00:00:00	2024-11-08T19:00:00	8	Radiación solar	0
48777	7	Sololá	701	Sololá	1	Sololá	9	Septiembre	2023-09-22T00:00:00	2024-11-08T20:00:00	2	Temperatura media	17.4
48778	7	Sololá	701	Sololá	1	Sololá	9	Septiembre	2023-09-22T00:00:00	2024-11-08T20:00:00	4	Temperatura máxima	17.9
48779	7	Sololá	701	Sololá	1	Sololá	9	Septiembre	2023-09-22T00:00:00	2024-11-08T20:00:00	3	Temperatura mínima	17.4
48780	7	Sololá	701	Sololá	1	Sololá	9	Septiembre	2023-09-22T00:00:00	2024-11-08T20:00:00	5	Humedad	93
48781	7	Sololá	701	Sololá	1	Sololá	9	Septiembre	2023-09-22T00:00:00	2024-11-08T20:00:00	6	Velocidad del viento	0
48782	7	Sololá	701	Sololá	1	Sololá	9	Septiembre	2023-09-22T00:00:00	2024-11-08T20:00:00	7	Dirección del viento	0
48783	7	Sololá	701	Sololá	1	Sololá	9	Septiembre	2023-09-22T00:00:00	2024-11-08T20:00:00	1	Precipitación	0
48784	7	Sololá	701	Sololá	1	Sololá	9	Septiembre	2023-09-22T00:00:00	2024-11-08T20:00:00	8	Radiación solar	0
48785	7	Sololá	701	Sololá	1	Sololá	9	Septiembre	2023-09-22T00:00:00	2024-11-08T21:00:00	2	Temperatura media	16.6
48786	7	Sololá	701	Sololá	1	Sololá	9	Septiembre	2023-09-22T00:00:00	2024-11-08T21:00:00	4	Temperatura máxima	17.4
48787	7	Sololá	701	Sololá	1	Sololá	9	Septiembre	2023-09-22T00:00:00	2024-11-08T21:00:00	3	Temperatura mínima	16.6
48788	7	Sololá	701	Sololá	1	Sololá	9	Septiembre	2023-09-22T00:00:00	2024-11-08T21:00:00	5	Humedad	92
48789	7	Sololá	701	Sololá	1	Sololá	9	Septiembre	2023-09-22T00:00:00	2024-11-08T21:00:00	6	Velocidad del viento	0
48790	7	Sololá	701	Sololá	1	Sololá	9	Septiembre	2023-09-22T00:00:00	2024-11-08T21:00:00	7	Dirección del viento	0
48791	7	Sololá	701	Sololá	1	Sololá	9	Septiembre	2023-09-22T00:00:00	2024-11-08T21:00:00	1	Precipitación	0
48792	7	Sololá	701	Sololá	1	Sololá	9	Septiembre	2023-09-22T00:00:00	2024-11-08T21:00:00	8	Radiación solar	0
48793	7	Sololá	701	Sololá	1	Sololá	9	Septiembre	2023-09-22T00:00:00	2024-11-08T22:00:00	2	Temperatura media	15.9
48794	7	Sololá	701	Sololá	1	Sololá	9	Septiembre	2023-09-22T00:00:00	2024-11-08T22:00:00	4	Temperatura máxima	16.6
48795	7	Sololá	701	Sololá	1	Sololá	9	Septiembre	2023-09-22T00:00:00	2024-11-08T22:00:00	3	Temperatura mínima	15.9
48796	7	Sololá	701	Sololá	1	Sololá	9	Septiembre	2023-09-22T00:00:00	2024-11-08T22:00:00	5	Humedad	91
48797	7	Sololá	701	Sololá	1	Sololá	9	Septiembre	2023-09-22T00:00:00	2024-11-08T22:00:00	6	Velocidad del viento	0
48798	7	Sololá	701	Sololá	1	Sololá	9	Septiembre	2023-09-22T00:00:00	2024-11-08T22:00:00	7	Dirección del viento	0
48799	7	Sololá	701	Sololá	1	Sololá	9	Septiembre	2023-09-22T00:00:00	2024-11-08T22:00:00	1	Precipitación	0
48800	7	Sololá	701	Sololá	1	Sololá	9	Septiembre	2023-09-22T00:00:00	2024-11-08T22:00:00	8	Radiación solar	0
48801	7	Sololá	701	Sololá	1	Sololá	9	Septiembre	2023-09-22T00:00:00	2024-11-08T23:00:00	2	Temperatura media	15.2
48802	7	Sololá	701	Sololá	1	Sololá	9	Septiembre	2023-09-22T00:00:00	2024-11-08T23:00:00	4	Temperatura máxima	16
48803	7	Sololá	701	Sololá	1	Sololá	9	Septiembre	2023-09-22T00:00:00	2024-11-08T23:00:00	3	Temperatura mínima	15.2
48804	7	Sololá	701	Sololá	1	Sololá	9	Septiembre	2023-09-22T00:00:00	2024-11-08T23:00:00	5	Humedad	90
48805	7	Sololá	701	Sololá	1	Sololá	9	Septiembre	2023-09-22T00:00:00	2024-11-08T23:00:00	6	Velocidad del viento	0
48806	7	Sololá	701	Sololá	1	Sololá	9	Septiembre	2023-09-22T00:00:00	2024-11-08T23:00:00	7	Dirección del viento	0
48807	7	Sololá	701	Sololá	1	Sololá	9	Septiembre	2023-09-22T00:00:00	2024-11-08T23:00:00	1	Precipitación	0
48808	7	Sololá	701	Sololá	1	Sololá	9	Septiembre	2023-09-22T00:00:00	2024-11-08T23:00:00	8	Radiación solar	0
48809	7	Sololá	701	Sololá	1	Sololá	9	Septiembre	2023-09-23T00:00:00	2024-11-08T00:00:00	2	Temperatura media	14.4
48810	7	Sololá	701	Sololá	1	Sololá	9	Septiembre	2023-09-23T00:00:00	2024-11-08T00:00:00	4	Temperatura máxima	15.2
48811	7	Sololá	701	Sololá	1	Sololá	9	Septiembre	2023-09-23T00:00:00	2024-11-08T00:00:00	3	Temperatura mínima	14.4
48812	7	Sololá	701	Sololá	1	Sololá	9	Septiembre	2023-09-23T00:00:00	2024-11-08T00:00:00	5	Humedad	90
48813	7	Sololá	701	Sololá	1	Sololá	9	Septiembre	2023-09-23T00:00:00	2024-11-08T00:00:00	6	Velocidad del viento	0
48814	7	Sololá	701	Sololá	1	Sololá	9	Septiembre	2023-09-23T00:00:00	2024-11-08T00:00:00	7	Dirección del viento	0
48815	7	Sololá	701	Sololá	1	Sololá	9	Septiembre	2023-09-23T00:00:00	2024-11-08T00:00:00	1	Precipitación	0
48816	7	Sololá	701	Sololá	1	Sololá	9	Septiembre	2023-09-23T00:00:00	2024-11-08T00:00:00	8	Radiación solar	0
48817	7	Sololá	701	Sololá	1	Sololá	9	Septiembre	2023-09-23T00:00:00	2024-11-08T01:00:00	2	Temperatura media	14
48818	7	Sololá	701	Sololá	1	Sololá	9	Septiembre	2023-09-23T00:00:00	2024-11-08T01:00:00	4	Temperatura máxima	14.4
48819	7	Sololá	701	Sololá	1	Sololá	9	Septiembre	2023-09-23T00:00:00	2024-11-08T01:00:00	3	Temperatura mínima	14
48820	7	Sololá	701	Sololá	1	Sololá	9	Septiembre	2023-09-23T00:00:00	2024-11-08T01:00:00	5	Humedad	91
48821	7	Sololá	701	Sololá	1	Sololá	9	Septiembre	2023-09-23T00:00:00	2024-11-08T01:00:00	6	Velocidad del viento	0
48822	7	Sololá	701	Sololá	1	Sololá	9	Septiembre	2023-09-23T00:00:00	2024-11-08T01:00:00	7	Dirección del viento	0
48823	7	Sololá	701	Sololá	1	Sololá	9	Septiembre	2023-09-23T00:00:00	2024-11-08T01:00:00	1	Precipitación	0
48824	7	Sololá	701	Sololá	1	Sololá	9	Septiembre	2023-09-23T00:00:00	2024-11-08T01:00:00	8	Radiación solar	0
48825	7	Sololá	701	Sololá	1	Sololá	9	Septiembre	2023-09-23T00:00:00	2024-11-08T02:00:00	2	Temperatura media	13.8
48826	7	Sololá	701	Sololá	1	Sololá	9	Septiembre	2023-09-23T00:00:00	2024-11-08T02:00:00	4	Temperatura máxima	14.1
48827	7	Sololá	701	Sololá	1	Sololá	9	Septiembre	2023-09-23T00:00:00	2024-11-08T02:00:00	3	Temperatura mínima	13.8
48828	7	Sololá	701	Sololá	1	Sololá	9	Septiembre	2023-09-23T00:00:00	2024-11-08T02:00:00	5	Humedad	90
48829	7	Sololá	701	Sololá	1	Sololá	9	Septiembre	2023-09-23T00:00:00	2024-11-08T02:00:00	6	Velocidad del viento	0
48830	7	Sololá	701	Sololá	1	Sololá	9	Septiembre	2023-09-23T00:00:00	2024-11-08T02:00:00	7	Dirección del viento	0
48831	7	Sololá	701	Sololá	1	Sololá	9	Septiembre	2023-09-23T00:00:00	2024-11-08T02:00:00	1	Precipitación	0
48832	7	Sololá	701	Sololá	1	Sololá	9	Septiembre	2023-09-23T00:00:00	2024-11-08T02:00:00	8	Radiación solar	0
48833	7	Sololá	701	Sololá	1	Sololá	9	Septiembre	2023-09-23T00:00:00	2024-11-08T03:00:00	2	Temperatura media	12.9
48834	7	Sololá	701	Sololá	1	Sololá	9	Septiembre	2023-09-23T00:00:00	2024-11-08T03:00:00	4	Temperatura máxima	13.8
48835	7	Sololá	701	Sololá	1	Sololá	9	Septiembre	2023-09-23T00:00:00	2024-11-08T03:00:00	3	Temperatura mínima	12.9
48836	7	Sololá	701	Sololá	1	Sololá	9	Septiembre	2023-09-23T00:00:00	2024-11-08T03:00:00	5	Humedad	88
48837	7	Sololá	701	Sololá	1	Sololá	9	Septiembre	2023-09-23T00:00:00	2024-11-08T03:00:00	6	Velocidad del viento	0
48838	7	Sololá	701	Sololá	1	Sololá	9	Septiembre	2023-09-23T00:00:00	2024-11-08T03:00:00	7	Dirección del viento	0
48839	7	Sololá	701	Sololá	1	Sololá	9	Septiembre	2023-09-23T00:00:00	2024-11-08T03:00:00	1	Precipitación	0
48840	7	Sololá	701	Sololá	1	Sololá	9	Septiembre	2023-09-23T00:00:00	2024-11-08T03:00:00	8	Radiación solar	0
48841	7	Sololá	701	Sololá	1	Sololá	9	Septiembre	2023-09-23T00:00:00	2024-11-08T04:00:00	2	Temperatura media	13.2
48842	7	Sololá	701	Sololá	1	Sololá	9	Septiembre	2023-09-23T00:00:00	2024-11-08T04:00:00	4	Temperatura máxima	13.2
48843	7	Sololá	701	Sololá	1	Sololá	9	Septiembre	2023-09-23T00:00:00	2024-11-08T04:00:00	3	Temperatura mínima	12.9
48844	7	Sololá	701	Sololá	1	Sololá	9	Septiembre	2023-09-23T00:00:00	2024-11-08T04:00:00	5	Humedad	86
48845	7	Sololá	701	Sololá	1	Sololá	9	Septiembre	2023-09-23T00:00:00	2024-11-08T04:00:00	6	Velocidad del viento	0
48846	7	Sololá	701	Sololá	1	Sololá	9	Septiembre	2023-09-23T00:00:00	2024-11-08T04:00:00	7	Dirección del viento	0
48847	7	Sololá	701	Sololá	1	Sololá	9	Septiembre	2023-09-23T00:00:00	2024-11-08T04:00:00	1	Precipitación	0
48848	7	Sololá	701	Sololá	1	Sololá	9	Septiembre	2023-09-23T00:00:00	2024-11-08T04:00:00	8	Radiación solar	0
48849	7	Sololá	701	Sololá	1	Sololá	9	Septiembre	2023-09-23T00:00:00	2024-11-08T05:00:00	2	Temperatura media	12.4
48850	7	Sololá	701	Sololá	1	Sololá	9	Septiembre	2023-09-23T00:00:00	2024-11-08T05:00:00	4	Temperatura máxima	13.4
48851	7	Sololá	701	Sololá	1	Sololá	9	Septiembre	2023-09-23T00:00:00	2024-11-08T05:00:00	3	Temperatura mínima	12.4
48852	7	Sololá	701	Sololá	1	Sololá	9	Septiembre	2023-09-23T00:00:00	2024-11-08T05:00:00	5	Humedad	86
48853	7	Sololá	701	Sololá	1	Sololá	9	Septiembre	2023-09-23T00:00:00	2024-11-08T05:00:00	6	Velocidad del viento	0
48854	7	Sololá	701	Sololá	1	Sololá	9	Septiembre	2023-09-23T00:00:00	2024-11-08T05:00:00	7	Dirección del viento	0
48855	7	Sololá	701	Sololá	1	Sololá	9	Septiembre	2023-09-23T00:00:00	2024-11-08T05:00:00	1	Precipitación	0
48856	7	Sololá	701	Sololá	1	Sololá	9	Septiembre	2023-09-23T00:00:00	2024-11-08T05:00:00	8	Radiación solar	0
48857	7	Sololá	701	Sololá	1	Sololá	9	Septiembre	2023-09-23T00:00:00	2024-11-08T06:00:00	2	Temperatura media	12.4
48858	7	Sololá	701	Sololá	1	Sololá	9	Septiembre	2023-09-23T00:00:00	2024-11-08T06:00:00	4	Temperatura máxima	13
48859	7	Sololá	701	Sololá	1	Sololá	9	Septiembre	2023-09-23T00:00:00	2024-11-08T06:00:00	3	Temperatura mínima	12.3
48860	7	Sololá	701	Sololá	1	Sololá	9	Septiembre	2023-09-23T00:00:00	2024-11-08T06:00:00	5	Humedad	85
48861	7	Sololá	701	Sololá	1	Sololá	9	Septiembre	2023-09-23T00:00:00	2024-11-08T06:00:00	6	Velocidad del viento	0
48862	7	Sololá	701	Sololá	1	Sololá	9	Septiembre	2023-09-23T00:00:00	2024-11-08T06:00:00	7	Dirección del viento	0
48863	7	Sololá	701	Sololá	1	Sololá	9	Septiembre	2023-09-23T00:00:00	2024-11-08T06:00:00	1	Precipitación	0
48864	7	Sololá	701	Sololá	1	Sololá	9	Septiembre	2023-09-23T00:00:00	2024-11-08T06:00:00	8	Radiación solar	0
48865	7	Sololá	701	Sololá	1	Sololá	9	Septiembre	2023-09-23T00:00:00	2024-11-08T07:00:00	2	Temperatura media	12.7
48866	7	Sololá	701	Sololá	1	Sololá	9	Septiembre	2023-09-23T00:00:00	2024-11-08T07:00:00	4	Temperatura máxima	12.8
48867	7	Sololá	701	Sololá	1	Sololá	9	Septiembre	2023-09-23T00:00:00	2024-11-08T07:00:00	3	Temperatura mínima	12.2
48868	7	Sololá	701	Sololá	1	Sololá	9	Septiembre	2023-09-23T00:00:00	2024-11-08T07:00:00	5	Humedad	85
48869	7	Sololá	701	Sololá	1	Sololá	9	Septiembre	2023-09-23T00:00:00	2024-11-08T07:00:00	6	Velocidad del viento	0
48870	7	Sololá	701	Sololá	1	Sololá	9	Septiembre	2023-09-23T00:00:00	2024-11-08T07:00:00	7	Dirección del viento	0
48871	7	Sololá	701	Sololá	1	Sololá	9	Septiembre	2023-09-23T00:00:00	2024-11-08T07:00:00	1	Precipitación	0
48872	7	Sololá	701	Sololá	1	Sololá	9	Septiembre	2023-09-23T00:00:00	2024-11-08T07:00:00	8	Radiación solar	8
48873	7	Sololá	701	Sololá	1	Sololá	9	Septiembre	2023-09-23T00:00:00	2024-11-08T08:00:00	2	Temperatura media	16.2
48874	7	Sololá	701	Sololá	1	Sololá	9	Septiembre	2023-09-23T00:00:00	2024-11-08T08:00:00	4	Temperatura máxima	16.2
48875	7	Sololá	701	Sololá	1	Sololá	9	Septiembre	2023-09-23T00:00:00	2024-11-08T08:00:00	3	Temperatura mínima	12.7
48876	7	Sololá	701	Sololá	1	Sololá	9	Septiembre	2023-09-23T00:00:00	2024-11-08T08:00:00	5	Humedad	81
48877	7	Sololá	701	Sololá	1	Sololá	9	Septiembre	2023-09-23T00:00:00	2024-11-08T08:00:00	6	Velocidad del viento	0
48878	7	Sololá	701	Sololá	1	Sololá	9	Septiembre	2023-09-23T00:00:00	2024-11-08T08:00:00	7	Dirección del viento	0
48879	7	Sololá	701	Sololá	1	Sololá	9	Septiembre	2023-09-23T00:00:00	2024-11-08T08:00:00	1	Precipitación	0
48880	7	Sololá	701	Sololá	1	Sololá	9	Septiembre	2023-09-23T00:00:00	2024-11-08T08:00:00	8	Radiación solar	90
48881	7	Sololá	701	Sololá	1	Sololá	9	Septiembre	2023-09-23T00:00:00	2024-11-08T09:00:00	2	Temperatura media	21.5
48882	7	Sololá	701	Sololá	1	Sololá	9	Septiembre	2023-09-23T00:00:00	2024-11-08T09:00:00	4	Temperatura máxima	21.5
48883	7	Sololá	701	Sololá	1	Sololá	9	Septiembre	2023-09-23T00:00:00	2024-11-08T09:00:00	3	Temperatura mínima	16.3
48884	7	Sololá	701	Sololá	1	Sololá	9	Septiembre	2023-09-23T00:00:00	2024-11-08T09:00:00	5	Humedad	57
48885	7	Sololá	701	Sololá	1	Sololá	9	Septiembre	2023-09-23T00:00:00	2024-11-08T09:00:00	6	Velocidad del viento	0
48886	7	Sololá	701	Sololá	1	Sololá	9	Septiembre	2023-09-23T00:00:00	2024-11-08T09:00:00	7	Dirección del viento	0
48887	7	Sololá	701	Sololá	1	Sololá	9	Septiembre	2023-09-23T00:00:00	2024-11-08T09:00:00	1	Precipitación	0
48888	7	Sololá	701	Sololá	1	Sololá	9	Septiembre	2023-09-23T00:00:00	2024-11-08T09:00:00	8	Radiación solar	617
48889	7	Sololá	701	Sololá	1	Sololá	9	Septiembre	2023-09-23T00:00:00	2024-11-08T10:00:00	2	Temperatura media	22.7
48890	7	Sololá	701	Sololá	1	Sololá	9	Septiembre	2023-09-23T00:00:00	2024-11-08T10:00:00	4	Temperatura máxima	22.7
48891	7	Sololá	701	Sololá	1	Sololá	9	Septiembre	2023-09-23T00:00:00	2024-11-08T10:00:00	3	Temperatura mínima	21.6
48892	7	Sololá	701	Sololá	1	Sololá	9	Septiembre	2023-09-23T00:00:00	2024-11-08T10:00:00	5	Humedad	57
48893	7	Sololá	701	Sololá	1	Sololá	9	Septiembre	2023-09-23T00:00:00	2024-11-08T10:00:00	6	Velocidad del viento	0
48894	7	Sololá	701	Sololá	1	Sololá	9	Septiembre	2023-09-23T00:00:00	2024-11-08T10:00:00	7	Dirección del viento	0
48895	7	Sololá	701	Sololá	1	Sololá	9	Septiembre	2023-09-23T00:00:00	2024-11-08T10:00:00	1	Precipitación	0
48896	7	Sololá	701	Sololá	1	Sololá	9	Septiembre	2023-09-23T00:00:00	2024-11-08T10:00:00	8	Radiación solar	836
48897	7	Sololá	701	Sololá	1	Sololá	9	Septiembre	2023-09-23T00:00:00	2024-11-08T11:00:00	2	Temperatura media	23.2
48898	7	Sololá	701	Sololá	1	Sololá	9	Septiembre	2023-09-23T00:00:00	2024-11-08T11:00:00	4	Temperatura máxima	23.2
48899	7	Sololá	701	Sololá	1	Sololá	9	Septiembre	2023-09-23T00:00:00	2024-11-08T11:00:00	3	Temperatura mínima	22.7
48900	7	Sololá	701	Sololá	1	Sololá	9	Septiembre	2023-09-23T00:00:00	2024-11-08T11:00:00	5	Humedad	58
48901	7	Sololá	701	Sololá	1	Sololá	9	Septiembre	2023-09-23T00:00:00	2024-11-08T11:00:00	6	Velocidad del viento	0
48902	7	Sololá	701	Sololá	1	Sololá	9	Septiembre	2023-09-23T00:00:00	2024-11-08T11:00:00	7	Dirección del viento	0
48903	7	Sololá	701	Sololá	1	Sololá	9	Septiembre	2023-09-23T00:00:00	2024-11-08T11:00:00	1	Precipitación	0
48904	7	Sololá	701	Sololá	1	Sololá	9	Septiembre	2023-09-23T00:00:00	2024-11-08T11:00:00	8	Radiación solar	966
48905	7	Sololá	701	Sololá	1	Sololá	9	Septiembre	2023-09-23T00:00:00	2024-11-08T12:00:00	2	Temperatura media	23.7
48906	7	Sololá	701	Sololá	1	Sololá	9	Septiembre	2023-09-23T00:00:00	2024-11-08T12:00:00	4	Temperatura máxima	23.9
48907	7	Sololá	701	Sololá	1	Sololá	9	Septiembre	2023-09-23T00:00:00	2024-11-08T12:00:00	3	Temperatura mínima	23.1
48908	7	Sololá	701	Sololá	1	Sololá	9	Septiembre	2023-09-23T00:00:00	2024-11-08T12:00:00	5	Humedad	55
48909	7	Sololá	701	Sololá	1	Sololá	9	Septiembre	2023-09-23T00:00:00	2024-11-08T12:00:00	6	Velocidad del viento	0
48910	7	Sololá	701	Sololá	1	Sololá	9	Septiembre	2023-09-23T00:00:00	2024-11-08T12:00:00	7	Dirección del viento	0
48911	7	Sololá	701	Sololá	1	Sololá	9	Septiembre	2023-09-23T00:00:00	2024-11-08T12:00:00	1	Precipitación	0
48912	7	Sololá	701	Sololá	1	Sololá	9	Septiembre	2023-09-23T00:00:00	2024-11-08T12:00:00	8	Radiación solar	769
48913	7	Sololá	701	Sololá	1	Sololá	9	Septiembre	2023-09-23T00:00:00	2024-11-08T13:00:00	2	Temperatura media	23.3
48914	7	Sololá	701	Sololá	1	Sololá	9	Septiembre	2023-09-23T00:00:00	2024-11-08T13:00:00	4	Temperatura máxima	24.3
48915	7	Sololá	701	Sololá	1	Sololá	9	Septiembre	2023-09-23T00:00:00	2024-11-08T13:00:00	3	Temperatura mínima	23.3
48916	7	Sololá	701	Sololá	1	Sololá	9	Septiembre	2023-09-23T00:00:00	2024-11-08T13:00:00	5	Humedad	68
48917	7	Sololá	701	Sololá	1	Sololá	9	Septiembre	2023-09-23T00:00:00	2024-11-08T13:00:00	6	Velocidad del viento	0
48918	7	Sololá	701	Sololá	1	Sololá	9	Septiembre	2023-09-23T00:00:00	2024-11-08T13:00:00	7	Dirección del viento	0
48919	7	Sololá	701	Sololá	1	Sololá	9	Septiembre	2023-09-23T00:00:00	2024-11-08T13:00:00	1	Precipitación	0
48920	7	Sololá	701	Sololá	1	Sololá	9	Septiembre	2023-09-23T00:00:00	2024-11-08T13:00:00	8	Radiación solar	492
48921	7	Sololá	701	Sololá	1	Sololá	9	Septiembre	2023-09-23T00:00:00	2024-11-08T14:00:00	2	Temperatura media	22.8
48922	7	Sololá	701	Sololá	1	Sololá	9	Septiembre	2023-09-23T00:00:00	2024-11-08T14:00:00	4	Temperatura máxima	23.3
48923	7	Sololá	701	Sololá	1	Sololá	9	Septiembre	2023-09-23T00:00:00	2024-11-08T14:00:00	3	Temperatura mínima	22.6
48924	7	Sololá	701	Sololá	1	Sololá	9	Septiembre	2023-09-23T00:00:00	2024-11-08T14:00:00	5	Humedad	76
48925	7	Sololá	701	Sololá	1	Sololá	9	Septiembre	2023-09-23T00:00:00	2024-11-08T14:00:00	6	Velocidad del viento	0
48926	7	Sololá	701	Sololá	1	Sololá	9	Septiembre	2023-09-23T00:00:00	2024-11-08T14:00:00	7	Dirección del viento	0
48927	7	Sololá	701	Sololá	1	Sololá	9	Septiembre	2023-09-23T00:00:00	2024-11-08T14:00:00	1	Precipitación	0
48928	7	Sololá	701	Sololá	1	Sololá	9	Septiembre	2023-09-23T00:00:00	2024-11-08T14:00:00	8	Radiación solar	126
48929	7	Sololá	701	Sololá	1	Sololá	9	Septiembre	2023-09-23T00:00:00	2024-11-08T15:00:00	2	Temperatura media	21.4
48930	7	Sololá	701	Sololá	1	Sololá	9	Septiembre	2023-09-23T00:00:00	2024-11-08T15:00:00	4	Temperatura máxima	22.8
48931	7	Sololá	701	Sololá	1	Sololá	9	Septiembre	2023-09-23T00:00:00	2024-11-08T15:00:00	3	Temperatura mínima	21.4
48932	7	Sololá	701	Sololá	1	Sololá	9	Septiembre	2023-09-23T00:00:00	2024-11-08T15:00:00	5	Humedad	84
48933	7	Sololá	701	Sololá	1	Sololá	9	Septiembre	2023-09-23T00:00:00	2024-11-08T15:00:00	6	Velocidad del viento	0
48934	7	Sololá	701	Sololá	1	Sololá	9	Septiembre	2023-09-23T00:00:00	2024-11-08T15:00:00	7	Dirección del viento	0
48935	7	Sololá	701	Sololá	1	Sololá	9	Septiembre	2023-09-23T00:00:00	2024-11-08T15:00:00	1	Precipitación	0
48936	7	Sololá	701	Sololá	1	Sololá	9	Septiembre	2023-09-23T00:00:00	2024-11-08T15:00:00	8	Radiación solar	124
48937	7	Sololá	701	Sololá	1	Sololá	9	Septiembre	2023-09-23T00:00:00	2024-11-08T16:00:00	2	Temperatura media	20.4
48938	7	Sololá	701	Sololá	1	Sololá	9	Septiembre	2023-09-23T00:00:00	2024-11-08T16:00:00	4	Temperatura máxima	21.5
48939	7	Sololá	701	Sololá	1	Sololá	9	Septiembre	2023-09-23T00:00:00	2024-11-08T16:00:00	3	Temperatura mínima	20.4
48940	7	Sololá	701	Sololá	1	Sololá	9	Septiembre	2023-09-23T00:00:00	2024-11-08T16:00:00	5	Humedad	86
48941	7	Sololá	701	Sololá	1	Sololá	9	Septiembre	2023-09-23T00:00:00	2024-11-08T16:00:00	6	Velocidad del viento	0
48942	7	Sololá	701	Sololá	1	Sololá	9	Septiembre	2023-09-23T00:00:00	2024-11-08T16:00:00	7	Dirección del viento	0
48943	7	Sololá	701	Sololá	1	Sololá	9	Septiembre	2023-09-23T00:00:00	2024-11-08T16:00:00	1	Precipitación	0
48944	7	Sololá	701	Sololá	1	Sololá	9	Septiembre	2023-09-23T00:00:00	2024-11-08T16:00:00	8	Radiación solar	66
48945	7	Sololá	701	Sololá	1	Sololá	9	Septiembre	2023-09-23T00:00:00	2024-11-08T17:00:00	2	Temperatura media	19.6
48946	7	Sololá	701	Sololá	1	Sololá	9	Septiembre	2023-09-23T00:00:00	2024-11-08T17:00:00	4	Temperatura máxima	20.4
48947	7	Sololá	701	Sololá	1	Sololá	9	Septiembre	2023-09-23T00:00:00	2024-11-08T17:00:00	3	Temperatura mínima	19.6
48948	7	Sololá	701	Sololá	1	Sololá	9	Septiembre	2023-09-23T00:00:00	2024-11-08T17:00:00	5	Humedad	88
48949	7	Sololá	701	Sololá	1	Sololá	9	Septiembre	2023-09-23T00:00:00	2024-11-08T17:00:00	6	Velocidad del viento	0
48950	7	Sololá	701	Sololá	1	Sololá	9	Septiembre	2023-09-23T00:00:00	2024-11-08T17:00:00	7	Dirección del viento	0
48951	7	Sololá	701	Sololá	1	Sololá	9	Septiembre	2023-09-23T00:00:00	2024-11-08T17:00:00	1	Precipitación	0
48952	7	Sololá	701	Sololá	1	Sololá	9	Septiembre	2023-09-23T00:00:00	2024-11-08T17:00:00	8	Radiación solar	39
48953	7	Sololá	701	Sololá	1	Sololá	9	Septiembre	2023-09-23T00:00:00	2024-11-08T18:00:00	2	Temperatura media	18.6
48954	7	Sololá	701	Sololá	1	Sololá	9	Septiembre	2023-09-23T00:00:00	2024-11-08T18:00:00	4	Temperatura máxima	19.6
48955	7	Sololá	701	Sololá	1	Sololá	9	Septiembre	2023-09-23T00:00:00	2024-11-08T18:00:00	3	Temperatura mínima	18.6
48956	7	Sololá	701	Sololá	1	Sololá	9	Septiembre	2023-09-23T00:00:00	2024-11-08T18:00:00	5	Humedad	91
48957	7	Sololá	701	Sololá	1	Sololá	9	Septiembre	2023-09-23T00:00:00	2024-11-08T18:00:00	6	Velocidad del viento	0
48958	7	Sololá	701	Sololá	1	Sololá	9	Septiembre	2023-09-23T00:00:00	2024-11-08T18:00:00	7	Dirección del viento	0
48959	7	Sololá	701	Sololá	1	Sololá	9	Septiembre	2023-09-23T00:00:00	2024-11-08T18:00:00	1	Precipitación	0
48960	7	Sololá	701	Sololá	1	Sololá	9	Septiembre	2023-09-23T00:00:00	2024-11-08T18:00:00	8	Radiación solar	6
48961	7	Sololá	701	Sololá	1	Sololá	9	Septiembre	2023-09-23T00:00:00	2024-11-08T19:00:00	2	Temperatura media	17.9
48962	7	Sololá	701	Sololá	1	Sololá	9	Septiembre	2023-09-23T00:00:00	2024-11-08T19:00:00	4	Temperatura máxima	18.6
48963	7	Sololá	701	Sololá	1	Sololá	9	Septiembre	2023-09-23T00:00:00	2024-11-08T19:00:00	3	Temperatura mínima	17.9
48964	7	Sololá	701	Sololá	1	Sololá	9	Septiembre	2023-09-23T00:00:00	2024-11-08T19:00:00	5	Humedad	93
48965	7	Sololá	701	Sololá	1	Sololá	9	Septiembre	2023-09-23T00:00:00	2024-11-08T19:00:00	6	Velocidad del viento	0
48966	7	Sololá	701	Sololá	1	Sololá	9	Septiembre	2023-09-23T00:00:00	2024-11-08T19:00:00	7	Dirección del viento	0
48967	7	Sololá	701	Sololá	1	Sololá	9	Septiembre	2023-09-23T00:00:00	2024-11-08T19:00:00	1	Precipitación	0
48968	7	Sololá	701	Sololá	1	Sololá	9	Septiembre	2023-09-23T00:00:00	2024-11-08T19:00:00	8	Radiación solar	0
48969	7	Sololá	701	Sololá	1	Sololá	9	Septiembre	2023-09-23T00:00:00	2024-11-08T20:00:00	2	Temperatura media	16.6
48970	7	Sololá	701	Sololá	1	Sololá	9	Septiembre	2023-09-23T00:00:00	2024-11-08T20:00:00	4	Temperatura máxima	17.9
48971	7	Sololá	701	Sololá	1	Sololá	9	Septiembre	2023-09-23T00:00:00	2024-11-08T20:00:00	3	Temperatura mínima	16.6
48972	7	Sololá	701	Sololá	1	Sololá	9	Septiembre	2023-09-23T00:00:00	2024-11-08T20:00:00	5	Humedad	93
48973	7	Sololá	701	Sololá	1	Sololá	9	Septiembre	2023-09-23T00:00:00	2024-11-08T20:00:00	6	Velocidad del viento	0
48974	7	Sololá	701	Sololá	1	Sololá	9	Septiembre	2023-09-23T00:00:00	2024-11-08T20:00:00	7	Dirección del viento	0
48975	7	Sololá	701	Sololá	1	Sololá	9	Septiembre	2023-09-23T00:00:00	2024-11-08T20:00:00	1	Precipitación	9.8
48976	7	Sololá	701	Sololá	1	Sololá	9	Septiembre	2023-09-23T00:00:00	2024-11-08T20:00:00	8	Radiación solar	0
48977	7	Sololá	701	Sololá	1	Sololá	9	Septiembre	2023-09-23T00:00:00	2024-11-08T21:00:00	2	Temperatura media	15.9
48978	7	Sololá	701	Sololá	1	Sololá	9	Septiembre	2023-09-23T00:00:00	2024-11-08T21:00:00	4	Temperatura máxima	16.6
48979	7	Sololá	701	Sololá	1	Sololá	9	Septiembre	2023-09-23T00:00:00	2024-11-08T21:00:00	3	Temperatura mínima	15.9
48980	7	Sololá	701	Sololá	1	Sololá	9	Septiembre	2023-09-23T00:00:00	2024-11-08T21:00:00	5	Humedad	95
48981	7	Sololá	701	Sololá	1	Sololá	9	Septiembre	2023-09-23T00:00:00	2024-11-08T21:00:00	6	Velocidad del viento	0
48982	7	Sololá	701	Sololá	1	Sololá	9	Septiembre	2023-09-23T00:00:00	2024-11-08T21:00:00	7	Dirección del viento	0
48983	7	Sololá	701	Sololá	1	Sololá	9	Septiembre	2023-09-23T00:00:00	2024-11-08T21:00:00	1	Precipitación	0.2
48984	7	Sololá	701	Sololá	1	Sololá	9	Septiembre	2023-09-23T00:00:00	2024-11-08T21:00:00	8	Radiación solar	0
48985	7	Sololá	701	Sololá	1	Sololá	9	Septiembre	2023-09-23T00:00:00	2024-11-08T22:00:00	2	Temperatura media	14.9
48986	7	Sololá	701	Sololá	1	Sololá	9	Septiembre	2023-09-23T00:00:00	2024-11-08T22:00:00	4	Temperatura máxima	15.9
48987	7	Sololá	701	Sololá	1	Sololá	9	Septiembre	2023-09-23T00:00:00	2024-11-08T22:00:00	3	Temperatura mínima	14.9
48988	7	Sololá	701	Sololá	1	Sololá	9	Septiembre	2023-09-23T00:00:00	2024-11-08T22:00:00	5	Humedad	95
48989	7	Sololá	701	Sololá	1	Sololá	9	Septiembre	2023-09-23T00:00:00	2024-11-08T22:00:00	6	Velocidad del viento	0
48990	7	Sololá	701	Sololá	1	Sololá	9	Septiembre	2023-09-23T00:00:00	2024-11-08T22:00:00	7	Dirección del viento	0
48991	7	Sololá	701	Sololá	1	Sololá	9	Septiembre	2023-09-23T00:00:00	2024-11-08T22:00:00	1	Precipitación	0
48992	7	Sololá	701	Sololá	1	Sololá	9	Septiembre	2023-09-23T00:00:00	2024-11-08T22:00:00	8	Radiación solar	0
48993	7	Sololá	701	Sololá	1	Sololá	9	Septiembre	2023-09-23T00:00:00	2024-11-08T23:00:00	2	Temperatura media	14.8
48994	7	Sololá	701	Sololá	1	Sololá	9	Septiembre	2023-09-23T00:00:00	2024-11-08T23:00:00	4	Temperatura máxima	15.2
48995	7	Sololá	701	Sololá	1	Sololá	9	Septiembre	2023-09-23T00:00:00	2024-11-08T23:00:00	3	Temperatura mínima	14.8
48996	7	Sololá	701	Sololá	1	Sololá	9	Septiembre	2023-09-23T00:00:00	2024-11-08T23:00:00	5	Humedad	95
48997	7	Sololá	701	Sololá	1	Sololá	9	Septiembre	2023-09-23T00:00:00	2024-11-08T23:00:00	6	Velocidad del viento	0
48998	7	Sololá	701	Sololá	1	Sololá	9	Septiembre	2023-09-23T00:00:00	2024-11-08T23:00:00	7	Dirección del viento	0
48999	7	Sololá	701	Sololá	1	Sololá	9	Septiembre	2023-09-23T00:00:00	2024-11-08T23:00:00	1	Precipitación	0
49000	7	Sololá	701	Sololá	1	Sololá	9	Septiembre	2023-09-23T00:00:00	2024-11-08T23:00:00	8	Radiación solar	0
49001	7	Sololá	701	Sololá	1	Sololá	9	Septiembre	2023-09-24T00:00:00	2024-11-08T00:00:00	2	Temperatura media	13.9
49002	7	Sololá	701	Sololá	1	Sololá	9	Septiembre	2023-09-24T00:00:00	2024-11-08T00:00:00	4	Temperatura máxima	14.8
49003	7	Sololá	701	Sololá	1	Sololá	9	Septiembre	2023-09-24T00:00:00	2024-11-08T00:00:00	3	Temperatura mínima	13.9
49004	7	Sololá	701	Sololá	1	Sololá	9	Septiembre	2023-09-24T00:00:00	2024-11-08T00:00:00	5	Humedad	95
49005	7	Sololá	701	Sololá	1	Sololá	9	Septiembre	2023-09-24T00:00:00	2024-11-08T00:00:00	6	Velocidad del viento	0
49006	7	Sololá	701	Sololá	1	Sololá	9	Septiembre	2023-09-24T00:00:00	2024-11-08T00:00:00	7	Dirección del viento	0
49007	7	Sololá	701	Sololá	1	Sololá	9	Septiembre	2023-09-24T00:00:00	2024-11-08T00:00:00	1	Precipitación	0
49008	7	Sololá	701	Sololá	1	Sololá	9	Septiembre	2023-09-24T00:00:00	2024-11-08T00:00:00	8	Radiación solar	0
49009	7	Sololá	701	Sololá	1	Sololá	9	Septiembre	2023-09-24T00:00:00	2024-11-08T01:00:00	2	Temperatura media	13.4
49010	7	Sololá	701	Sololá	1	Sololá	9	Septiembre	2023-09-24T00:00:00	2024-11-08T01:00:00	4	Temperatura máxima	14
49011	7	Sololá	701	Sololá	1	Sololá	9	Septiembre	2023-09-24T00:00:00	2024-11-08T01:00:00	3	Temperatura mínima	13.4
49012	7	Sololá	701	Sololá	1	Sololá	9	Septiembre	2023-09-24T00:00:00	2024-11-08T01:00:00	5	Humedad	95
49013	7	Sololá	701	Sololá	1	Sololá	9	Septiembre	2023-09-24T00:00:00	2024-11-08T01:00:00	6	Velocidad del viento	0
49014	7	Sololá	701	Sololá	1	Sololá	9	Septiembre	2023-09-24T00:00:00	2024-11-08T01:00:00	7	Dirección del viento	0
49015	7	Sololá	701	Sololá	1	Sololá	9	Septiembre	2023-09-24T00:00:00	2024-11-08T01:00:00	1	Precipitación	0
49016	7	Sololá	701	Sololá	1	Sololá	9	Septiembre	2023-09-24T00:00:00	2024-11-08T01:00:00	8	Radiación solar	0
49017	7	Sololá	701	Sololá	1	Sololá	9	Septiembre	2023-09-24T00:00:00	2024-11-08T02:00:00	2	Temperatura media	12.9
49018	7	Sololá	701	Sololá	1	Sololá	9	Septiembre	2023-09-24T00:00:00	2024-11-08T02:00:00	4	Temperatura máxima	13.4
49019	7	Sololá	701	Sololá	1	Sololá	9	Septiembre	2023-09-24T00:00:00	2024-11-08T02:00:00	3	Temperatura mínima	12.9
49020	7	Sololá	701	Sololá	1	Sololá	9	Septiembre	2023-09-24T00:00:00	2024-11-08T02:00:00	5	Humedad	95
49021	7	Sololá	701	Sololá	1	Sololá	9	Septiembre	2023-09-24T00:00:00	2024-11-08T02:00:00	6	Velocidad del viento	0
49022	7	Sololá	701	Sololá	1	Sololá	9	Septiembre	2023-09-24T00:00:00	2024-11-08T02:00:00	7	Dirección del viento	0
49023	7	Sololá	701	Sololá	1	Sololá	9	Septiembre	2023-09-24T00:00:00	2024-11-08T02:00:00	1	Precipitación	0
49024	7	Sololá	701	Sololá	1	Sololá	9	Septiembre	2023-09-24T00:00:00	2024-11-08T02:00:00	8	Radiación solar	0
49025	7	Sololá	701	Sololá	1	Sololá	9	Septiembre	2023-09-24T00:00:00	2024-11-08T03:00:00	2	Temperatura media	12.5
49026	7	Sololá	701	Sololá	1	Sololá	9	Septiembre	2023-09-24T00:00:00	2024-11-08T03:00:00	4	Temperatura máxima	12.9
49027	7	Sololá	701	Sololá	1	Sololá	9	Septiembre	2023-09-24T00:00:00	2024-11-08T03:00:00	3	Temperatura mínima	12.4
49028	7	Sololá	701	Sololá	1	Sololá	9	Septiembre	2023-09-24T00:00:00	2024-11-08T03:00:00	5	Humedad	95
49029	7	Sololá	701	Sololá	1	Sololá	9	Septiembre	2023-09-24T00:00:00	2024-11-08T03:00:00	6	Velocidad del viento	0
49030	7	Sololá	701	Sololá	1	Sololá	9	Septiembre	2023-09-24T00:00:00	2024-11-08T03:00:00	7	Dirección del viento	0
49031	7	Sololá	701	Sololá	1	Sololá	9	Septiembre	2023-09-24T00:00:00	2024-11-08T03:00:00	1	Precipitación	0
49032	7	Sololá	701	Sololá	1	Sololá	9	Septiembre	2023-09-24T00:00:00	2024-11-08T03:00:00	8	Radiación solar	0
49033	7	Sololá	701	Sololá	1	Sololá	9	Septiembre	2023-09-24T00:00:00	2024-11-08T04:00:00	2	Temperatura media	11.9
49034	7	Sololá	701	Sololá	1	Sololá	9	Septiembre	2023-09-24T00:00:00	2024-11-08T04:00:00	4	Temperatura máxima	12.6
49035	7	Sololá	701	Sololá	1	Sololá	9	Septiembre	2023-09-24T00:00:00	2024-11-08T04:00:00	3	Temperatura mínima	11.9
49036	7	Sololá	701	Sololá	1	Sololá	9	Septiembre	2023-09-24T00:00:00	2024-11-08T04:00:00	5	Humedad	95
49037	7	Sololá	701	Sololá	1	Sololá	9	Septiembre	2023-09-24T00:00:00	2024-11-08T04:00:00	6	Velocidad del viento	0
49038	7	Sololá	701	Sololá	1	Sololá	9	Septiembre	2023-09-24T00:00:00	2024-11-08T04:00:00	7	Dirección del viento	0
49039	7	Sololá	701	Sololá	1	Sololá	9	Septiembre	2023-09-24T00:00:00	2024-11-08T04:00:00	1	Precipitación	0
49040	7	Sololá	701	Sololá	1	Sololá	9	Septiembre	2023-09-24T00:00:00	2024-11-08T04:00:00	8	Radiación solar	0
49041	7	Sololá	701	Sololá	1	Sololá	9	Septiembre	2023-09-24T00:00:00	2024-11-08T05:00:00	2	Temperatura media	11.8
49042	7	Sololá	701	Sololá	1	Sololá	9	Septiembre	2023-09-24T00:00:00	2024-11-08T05:00:00	4	Temperatura máxima	12.2
49043	7	Sololá	701	Sololá	1	Sololá	9	Septiembre	2023-09-24T00:00:00	2024-11-08T05:00:00	3	Temperatura mínima	11.7
49044	7	Sololá	701	Sololá	1	Sololá	9	Septiembre	2023-09-24T00:00:00	2024-11-08T05:00:00	5	Humedad	95
49045	7	Sololá	701	Sololá	1	Sololá	9	Septiembre	2023-09-24T00:00:00	2024-11-08T05:00:00	6	Velocidad del viento	0
49046	7	Sololá	701	Sololá	1	Sololá	9	Septiembre	2023-09-24T00:00:00	2024-11-08T05:00:00	7	Dirección del viento	0
49047	7	Sololá	701	Sololá	1	Sololá	9	Septiembre	2023-09-24T00:00:00	2024-11-08T05:00:00	1	Precipitación	0
49048	7	Sololá	701	Sololá	1	Sololá	9	Septiembre	2023-09-24T00:00:00	2024-11-08T05:00:00	8	Radiación solar	0
49049	7	Sololá	701	Sololá	1	Sololá	9	Septiembre	2023-09-24T00:00:00	2024-11-08T06:00:00	2	Temperatura media	11.9
49050	7	Sololá	701	Sololá	1	Sololá	9	Septiembre	2023-09-24T00:00:00	2024-11-08T06:00:00	4	Temperatura máxima	11.9
49051	7	Sololá	701	Sololá	1	Sololá	9	Septiembre	2023-09-24T00:00:00	2024-11-08T06:00:00	3	Temperatura mínima	11.4
49052	7	Sololá	701	Sololá	1	Sololá	9	Septiembre	2023-09-24T00:00:00	2024-11-08T06:00:00	5	Humedad	94
49053	7	Sololá	701	Sololá	1	Sololá	9	Septiembre	2023-09-24T00:00:00	2024-11-08T06:00:00	6	Velocidad del viento	0
49054	7	Sololá	701	Sololá	1	Sololá	9	Septiembre	2023-09-24T00:00:00	2024-11-08T06:00:00	7	Dirección del viento	0
49055	7	Sololá	701	Sololá	1	Sololá	9	Septiembre	2023-09-24T00:00:00	2024-11-08T06:00:00	1	Precipitación	0
49056	7	Sololá	701	Sololá	1	Sololá	9	Septiembre	2023-09-24T00:00:00	2024-11-08T06:00:00	8	Radiación solar	1
49057	7	Sololá	701	Sololá	1	Sololá	9	Septiembre	2023-09-24T00:00:00	2024-11-08T07:00:00	2	Temperatura media	12.9
49058	7	Sololá	701	Sololá	1	Sololá	9	Septiembre	2023-09-24T00:00:00	2024-11-08T07:00:00	4	Temperatura máxima	12.9
49059	7	Sololá	701	Sololá	1	Sololá	9	Septiembre	2023-09-24T00:00:00	2024-11-08T07:00:00	3	Temperatura mínima	11.9
49060	7	Sololá	701	Sololá	1	Sololá	9	Septiembre	2023-09-24T00:00:00	2024-11-08T07:00:00	5	Humedad	93
49061	7	Sololá	701	Sololá	1	Sololá	9	Septiembre	2023-09-24T00:00:00	2024-11-08T07:00:00	6	Velocidad del viento	0
49062	7	Sololá	701	Sololá	1	Sololá	9	Septiembre	2023-09-24T00:00:00	2024-11-08T07:00:00	7	Dirección del viento	0
49063	7	Sololá	701	Sololá	1	Sololá	9	Septiembre	2023-09-24T00:00:00	2024-11-08T07:00:00	1	Precipitación	0
49064	7	Sololá	701	Sololá	1	Sololá	9	Septiembre	2023-09-24T00:00:00	2024-11-08T07:00:00	8	Radiación solar	20
49065	7	Sololá	701	Sololá	1	Sololá	9	Septiembre	2023-09-24T00:00:00	2024-11-08T08:00:00	2	Temperatura media	15.3
49066	7	Sololá	701	Sololá	1	Sololá	9	Septiembre	2023-09-24T00:00:00	2024-11-08T08:00:00	4	Temperatura máxima	15.3
49067	7	Sololá	701	Sololá	1	Sololá	9	Septiembre	2023-09-24T00:00:00	2024-11-08T08:00:00	3	Temperatura mínima	12.9
49068	7	Sololá	701	Sololá	1	Sololá	9	Septiembre	2023-09-24T00:00:00	2024-11-08T08:00:00	5	Humedad	95
49069	7	Sololá	701	Sololá	1	Sololá	9	Septiembre	2023-09-24T00:00:00	2024-11-08T08:00:00	6	Velocidad del viento	0
49070	7	Sololá	701	Sololá	1	Sololá	9	Septiembre	2023-09-24T00:00:00	2024-11-08T08:00:00	7	Dirección del viento	0
49071	7	Sololá	701	Sololá	1	Sololá	9	Septiembre	2023-09-24T00:00:00	2024-11-08T08:00:00	1	Precipitación	0
49072	7	Sololá	701	Sololá	1	Sololá	9	Septiembre	2023-09-24T00:00:00	2024-11-08T08:00:00	8	Radiación solar	98
49073	7	Sololá	701	Sololá	1	Sololá	9	Septiembre	2023-09-24T00:00:00	2024-11-08T09:00:00	2	Temperatura media	16.6
49074	7	Sololá	701	Sololá	1	Sololá	9	Septiembre	2023-09-24T00:00:00	2024-11-08T09:00:00	4	Temperatura máxima	16.6
49075	7	Sololá	701	Sololá	1	Sololá	9	Septiembre	2023-09-24T00:00:00	2024-11-08T09:00:00	3	Temperatura mínima	15.3
49076	7	Sololá	701	Sololá	1	Sololá	9	Septiembre	2023-09-24T00:00:00	2024-11-08T09:00:00	5	Humedad	91
49077	7	Sololá	701	Sololá	1	Sololá	9	Septiembre	2023-09-24T00:00:00	2024-11-08T09:00:00	6	Velocidad del viento	0
49078	7	Sololá	701	Sololá	1	Sololá	9	Septiembre	2023-09-24T00:00:00	2024-11-08T09:00:00	7	Dirección del viento	0
49079	7	Sololá	701	Sololá	1	Sololá	9	Septiembre	2023-09-24T00:00:00	2024-11-08T09:00:00	1	Precipitación	0
49080	7	Sololá	701	Sololá	1	Sololá	9	Septiembre	2023-09-24T00:00:00	2024-11-08T09:00:00	8	Radiación solar	170
49081	7	Sololá	701	Sololá	1	Sololá	9	Septiembre	2023-09-24T00:00:00	2024-11-08T10:00:00	2	Temperatura media	18.7
49082	7	Sololá	701	Sololá	1	Sololá	9	Septiembre	2023-09-24T00:00:00	2024-11-08T10:00:00	4	Temperatura máxima	18.7
49083	7	Sololá	701	Sololá	1	Sololá	9	Septiembre	2023-09-24T00:00:00	2024-11-08T10:00:00	3	Temperatura mínima	16.6
49084	7	Sololá	701	Sololá	1	Sololá	9	Septiembre	2023-09-24T00:00:00	2024-11-08T10:00:00	5	Humedad	77
49085	7	Sololá	701	Sololá	1	Sololá	9	Septiembre	2023-09-24T00:00:00	2024-11-08T10:00:00	6	Velocidad del viento	0
49086	7	Sololá	701	Sololá	1	Sololá	9	Septiembre	2023-09-24T00:00:00	2024-11-08T10:00:00	7	Dirección del viento	0
49087	7	Sololá	701	Sololá	1	Sololá	9	Septiembre	2023-09-24T00:00:00	2024-11-08T10:00:00	1	Precipitación	0
49088	7	Sololá	701	Sololá	1	Sololá	9	Septiembre	2023-09-24T00:00:00	2024-11-08T10:00:00	8	Radiación solar	213
49089	7	Sololá	701	Sololá	1	Sololá	9	Septiembre	2023-09-24T00:00:00	2024-11-08T11:00:00	2	Temperatura media	21.1
49090	7	Sololá	701	Sololá	1	Sololá	9	Septiembre	2023-09-24T00:00:00	2024-11-08T11:00:00	4	Temperatura máxima	21.4
49091	7	Sololá	701	Sololá	1	Sololá	9	Septiembre	2023-09-24T00:00:00	2024-11-08T11:00:00	3	Temperatura mínima	18.7
49092	7	Sololá	701	Sololá	1	Sololá	9	Septiembre	2023-09-24T00:00:00	2024-11-08T11:00:00	5	Humedad	78
49093	7	Sololá	701	Sololá	1	Sololá	9	Septiembre	2023-09-24T00:00:00	2024-11-08T11:00:00	6	Velocidad del viento	0
49094	7	Sololá	701	Sololá	1	Sololá	9	Septiembre	2023-09-24T00:00:00	2024-11-08T11:00:00	7	Dirección del viento	0
49095	7	Sololá	701	Sololá	1	Sololá	9	Septiembre	2023-09-24T00:00:00	2024-11-08T11:00:00	1	Precipitación	0
49096	7	Sololá	701	Sololá	1	Sololá	9	Septiembre	2023-09-24T00:00:00	2024-11-08T11:00:00	8	Radiación solar	968
49097	7	Sololá	701	Sololá	1	Sololá	9	Septiembre	2023-09-24T00:00:00	2024-11-08T12:00:00	2	Temperatura media	21.2
49098	7	Sololá	701	Sololá	1	Sololá	9	Septiembre	2023-09-24T00:00:00	2024-11-08T12:00:00	4	Temperatura máxima	21.4
49099	7	Sololá	701	Sololá	1	Sololá	9	Septiembre	2023-09-24T00:00:00	2024-11-08T12:00:00	3	Temperatura mínima	20.9
49100	7	Sololá	701	Sololá	1	Sololá	9	Septiembre	2023-09-24T00:00:00	2024-11-08T12:00:00	5	Humedad	81
49101	7	Sololá	701	Sololá	1	Sololá	9	Septiembre	2023-09-24T00:00:00	2024-11-08T12:00:00	6	Velocidad del viento	0
49102	7	Sololá	701	Sololá	1	Sololá	9	Septiembre	2023-09-24T00:00:00	2024-11-08T12:00:00	7	Dirección del viento	0
49103	7	Sololá	701	Sololá	1	Sololá	9	Septiembre	2023-09-24T00:00:00	2024-11-08T12:00:00	1	Precipitación	0
49104	7	Sololá	701	Sololá	1	Sololá	9	Septiembre	2023-09-24T00:00:00	2024-11-08T12:00:00	8	Radiación solar	727
49105	7	Sololá	701	Sololá	1	Sololá	9	Septiembre	2023-09-24T00:00:00	2024-11-08T13:00:00	2	Temperatura media	19.8
49106	7	Sololá	701	Sololá	1	Sololá	9	Septiembre	2023-09-24T00:00:00	2024-11-08T13:00:00	4	Temperatura máxima	21.3
49107	7	Sololá	701	Sololá	1	Sololá	9	Septiembre	2023-09-24T00:00:00	2024-11-08T13:00:00	3	Temperatura mínima	19.8
49108	7	Sololá	701	Sololá	1	Sololá	9	Septiembre	2023-09-24T00:00:00	2024-11-08T13:00:00	5	Humedad	85
49109	7	Sololá	701	Sololá	1	Sololá	9	Septiembre	2023-09-24T00:00:00	2024-11-08T13:00:00	6	Velocidad del viento	0
49110	7	Sololá	701	Sololá	1	Sololá	9	Septiembre	2023-09-24T00:00:00	2024-11-08T13:00:00	7	Dirección del viento	0
49111	7	Sololá	701	Sololá	1	Sololá	9	Septiembre	2023-09-24T00:00:00	2024-11-08T13:00:00	1	Precipitación	0
49112	7	Sololá	701	Sololá	1	Sololá	9	Septiembre	2023-09-24T00:00:00	2024-11-08T13:00:00	8	Radiación solar	165
49113	7	Sololá	701	Sololá	1	Sololá	9	Septiembre	2023-09-24T00:00:00	2024-11-08T14:00:00	2	Temperatura media	18.1
49114	7	Sololá	701	Sololá	1	Sololá	9	Septiembre	2023-09-24T00:00:00	2024-11-08T14:00:00	4	Temperatura máxima	19.8
49115	7	Sololá	701	Sololá	1	Sololá	9	Septiembre	2023-09-24T00:00:00	2024-11-08T14:00:00	3	Temperatura mínima	18.1
49116	7	Sololá	701	Sololá	1	Sololá	9	Septiembre	2023-09-24T00:00:00	2024-11-08T14:00:00	5	Humedad	91
49117	7	Sololá	701	Sololá	1	Sololá	9	Septiembre	2023-09-24T00:00:00	2024-11-08T14:00:00	6	Velocidad del viento	0
49118	7	Sololá	701	Sololá	1	Sololá	9	Septiembre	2023-09-24T00:00:00	2024-11-08T14:00:00	7	Dirección del viento	0
49119	7	Sololá	701	Sololá	1	Sololá	9	Septiembre	2023-09-24T00:00:00	2024-11-08T14:00:00	1	Precipitación	3.2
49120	7	Sololá	701	Sololá	1	Sololá	9	Septiembre	2023-09-24T00:00:00	2024-11-08T14:00:00	8	Radiación solar	55
49121	7	Sololá	701	Sololá	1	Sololá	9	Septiembre	2023-09-24T00:00:00	2024-11-08T15:00:00	2	Temperatura media	17
49122	7	Sololá	701	Sololá	1	Sololá	9	Septiembre	2023-09-24T00:00:00	2024-11-08T15:00:00	4	Temperatura máxima	18.1
49123	7	Sololá	701	Sololá	1	Sololá	9	Septiembre	2023-09-24T00:00:00	2024-11-08T15:00:00	3	Temperatura mínima	16.3
49124	7	Sololá	701	Sololá	1	Sololá	9	Septiembre	2023-09-24T00:00:00	2024-11-08T15:00:00	5	Humedad	95
49125	7	Sololá	701	Sololá	1	Sololá	9	Septiembre	2023-09-24T00:00:00	2024-11-08T15:00:00	6	Velocidad del viento	0
49126	7	Sololá	701	Sololá	1	Sololá	9	Septiembre	2023-09-24T00:00:00	2024-11-08T15:00:00	7	Dirección del viento	0
49127	7	Sololá	701	Sololá	1	Sololá	9	Septiembre	2023-09-24T00:00:00	2024-11-08T15:00:00	1	Precipitación	10.2
49128	7	Sololá	701	Sololá	1	Sololá	9	Septiembre	2023-09-24T00:00:00	2024-11-08T15:00:00	8	Radiación solar	50
49129	7	Sololá	701	Sololá	1	Sololá	9	Septiembre	2023-09-24T00:00:00	2024-11-08T16:00:00	2	Temperatura media	17.1
49130	7	Sololá	701	Sololá	1	Sololá	9	Septiembre	2023-09-24T00:00:00	2024-11-08T16:00:00	4	Temperatura máxima	17.8
49131	7	Sololá	701	Sololá	1	Sololá	9	Septiembre	2023-09-24T00:00:00	2024-11-08T16:00:00	3	Temperatura mínima	17
49132	7	Sololá	701	Sololá	1	Sololá	9	Septiembre	2023-09-24T00:00:00	2024-11-08T16:00:00	5	Humedad	95
49133	7	Sololá	701	Sololá	1	Sololá	9	Septiembre	2023-09-24T00:00:00	2024-11-08T16:00:00	6	Velocidad del viento	0
49134	7	Sololá	701	Sololá	1	Sololá	9	Septiembre	2023-09-24T00:00:00	2024-11-08T16:00:00	7	Dirección del viento	0
49135	7	Sololá	701	Sololá	1	Sololá	9	Septiembre	2023-09-24T00:00:00	2024-11-08T16:00:00	1	Precipitación	0
49136	7	Sololá	701	Sololá	1	Sololá	9	Septiembre	2023-09-24T00:00:00	2024-11-08T16:00:00	8	Radiación solar	81
49137	7	Sololá	701	Sololá	1	Sololá	9	Septiembre	2023-09-24T00:00:00	2024-11-08T17:00:00	2	Temperatura media	16.3
49138	7	Sololá	701	Sololá	1	Sololá	9	Septiembre	2023-09-24T00:00:00	2024-11-08T17:00:00	4	Temperatura máxima	17.1
49139	7	Sololá	701	Sololá	1	Sololá	9	Septiembre	2023-09-24T00:00:00	2024-11-08T17:00:00	3	Temperatura mínima	16.3
49140	7	Sololá	701	Sololá	1	Sololá	9	Septiembre	2023-09-24T00:00:00	2024-11-08T17:00:00	5	Humedad	94
49141	7	Sololá	701	Sololá	1	Sololá	9	Septiembre	2023-09-24T00:00:00	2024-11-08T17:00:00	6	Velocidad del viento	0
49142	7	Sololá	701	Sololá	1	Sololá	9	Septiembre	2023-09-24T00:00:00	2024-11-08T17:00:00	7	Dirección del viento	0
49143	7	Sololá	701	Sololá	1	Sololá	9	Septiembre	2023-09-24T00:00:00	2024-11-08T17:00:00	1	Precipitación	0
49144	7	Sololá	701	Sololá	1	Sololá	9	Septiembre	2023-09-24T00:00:00	2024-11-08T17:00:00	8	Radiación solar	21
49145	7	Sololá	701	Sololá	1	Sololá	9	Septiembre	2023-09-24T00:00:00	2024-11-08T18:00:00	2	Temperatura media	16.1
49146	7	Sololá	701	Sololá	1	Sololá	9	Septiembre	2023-09-24T00:00:00	2024-11-08T18:00:00	4	Temperatura máxima	16.3
49147	7	Sololá	701	Sololá	1	Sololá	9	Septiembre	2023-09-24T00:00:00	2024-11-08T18:00:00	3	Temperatura mínima	16.1
49148	7	Sololá	701	Sololá	1	Sololá	9	Septiembre	2023-09-24T00:00:00	2024-11-08T18:00:00	5	Humedad	95
49149	7	Sololá	701	Sololá	1	Sololá	9	Septiembre	2023-09-24T00:00:00	2024-11-08T18:00:00	6	Velocidad del viento	0
49150	7	Sololá	701	Sololá	1	Sololá	9	Septiembre	2023-09-24T00:00:00	2024-11-08T18:00:00	7	Dirección del viento	0
49151	7	Sololá	701	Sololá	1	Sololá	9	Septiembre	2023-09-24T00:00:00	2024-11-08T18:00:00	1	Precipitación	0
49152	7	Sololá	701	Sololá	1	Sololá	9	Septiembre	2023-09-24T00:00:00	2024-11-08T18:00:00	8	Radiación solar	0
49153	7	Sololá	701	Sololá	1	Sololá	9	Septiembre	2023-09-24T00:00:00	2024-11-08T19:00:00	2	Temperatura media	15.9
49154	7	Sololá	701	Sololá	1	Sololá	9	Septiembre	2023-09-24T00:00:00	2024-11-08T19:00:00	4	Temperatura máxima	16.1
49155	7	Sololá	701	Sololá	1	Sololá	9	Septiembre	2023-09-24T00:00:00	2024-11-08T19:00:00	3	Temperatura mínima	15.9
49156	7	Sololá	701	Sololá	1	Sololá	9	Septiembre	2023-09-24T00:00:00	2024-11-08T19:00:00	5	Humedad	95
49157	7	Sololá	701	Sololá	1	Sololá	9	Septiembre	2023-09-24T00:00:00	2024-11-08T19:00:00	6	Velocidad del viento	0
49158	7	Sololá	701	Sololá	1	Sololá	9	Septiembre	2023-09-24T00:00:00	2024-11-08T19:00:00	7	Dirección del viento	0
49159	7	Sololá	701	Sololá	1	Sololá	9	Septiembre	2023-09-24T00:00:00	2024-11-08T19:00:00	1	Precipitación	0
49160	7	Sololá	701	Sololá	1	Sololá	9	Septiembre	2023-09-24T00:00:00	2024-11-08T19:00:00	8	Radiación solar	0
49161	7	Sololá	701	Sololá	1	Sololá	9	Septiembre	2023-09-24T00:00:00	2024-11-08T20:00:00	2	Temperatura media	16.1
49162	7	Sololá	701	Sololá	1	Sololá	9	Septiembre	2023-09-24T00:00:00	2024-11-08T20:00:00	4	Temperatura máxima	16.2
49163	7	Sololá	701	Sololá	1	Sololá	9	Septiembre	2023-09-24T00:00:00	2024-11-08T20:00:00	3	Temperatura mínima	15.9
49164	7	Sololá	701	Sololá	1	Sololá	9	Septiembre	2023-09-24T00:00:00	2024-11-08T20:00:00	5	Humedad	95
49165	7	Sololá	701	Sololá	1	Sololá	9	Septiembre	2023-09-24T00:00:00	2024-11-08T20:00:00	6	Velocidad del viento	0
49166	7	Sololá	701	Sololá	1	Sololá	9	Septiembre	2023-09-24T00:00:00	2024-11-08T20:00:00	7	Dirección del viento	0
49167	7	Sololá	701	Sololá	1	Sololá	9	Septiembre	2023-09-24T00:00:00	2024-11-08T20:00:00	1	Precipitación	0
49168	7	Sololá	701	Sololá	1	Sololá	9	Septiembre	2023-09-24T00:00:00	2024-11-08T20:00:00	8	Radiación solar	0
49169	7	Sololá	701	Sololá	1	Sololá	9	Septiembre	2023-09-24T00:00:00	2024-11-08T21:00:00	2	Temperatura media	15.6
49170	7	Sololá	701	Sololá	1	Sololá	9	Septiembre	2023-09-24T00:00:00	2024-11-08T21:00:00	4	Temperatura máxima	16.1
49171	7	Sololá	701	Sololá	1	Sololá	9	Septiembre	2023-09-24T00:00:00	2024-11-08T21:00:00	3	Temperatura mínima	15.6
49172	7	Sololá	701	Sololá	1	Sololá	9	Septiembre	2023-09-24T00:00:00	2024-11-08T21:00:00	5	Humedad	95
49173	7	Sololá	701	Sololá	1	Sololá	9	Septiembre	2023-09-24T00:00:00	2024-11-08T21:00:00	6	Velocidad del viento	0
49174	7	Sololá	701	Sololá	1	Sololá	9	Septiembre	2023-09-24T00:00:00	2024-11-08T21:00:00	7	Dirección del viento	0
49175	7	Sololá	701	Sololá	1	Sololá	9	Septiembre	2023-09-24T00:00:00	2024-11-08T21:00:00	1	Precipitación	0.2
49176	7	Sololá	701	Sololá	1	Sololá	9	Septiembre	2023-09-24T00:00:00	2024-11-08T21:00:00	8	Radiación solar	0
49177	7	Sololá	701	Sololá	1	Sololá	9	Septiembre	2023-09-24T00:00:00	2024-11-08T22:00:00	2	Temperatura media	15.3
49178	7	Sololá	701	Sololá	1	Sololá	9	Septiembre	2023-09-24T00:00:00	2024-11-08T22:00:00	4	Temperatura máxima	15.6
49179	7	Sololá	701	Sololá	1	Sololá	9	Septiembre	2023-09-24T00:00:00	2024-11-08T22:00:00	3	Temperatura mínima	15.3
49180	7	Sololá	701	Sololá	1	Sololá	9	Septiembre	2023-09-24T00:00:00	2024-11-08T22:00:00	5	Humedad	95
49181	7	Sololá	701	Sololá	1	Sololá	9	Septiembre	2023-09-24T00:00:00	2024-11-08T22:00:00	6	Velocidad del viento	0
49182	7	Sololá	701	Sololá	1	Sololá	9	Septiembre	2023-09-24T00:00:00	2024-11-08T22:00:00	7	Dirección del viento	0
49183	7	Sololá	701	Sololá	1	Sololá	9	Septiembre	2023-09-24T00:00:00	2024-11-08T22:00:00	1	Precipitación	0
49184	7	Sololá	701	Sololá	1	Sololá	9	Septiembre	2023-09-24T00:00:00	2024-11-08T22:00:00	8	Radiación solar	0
49185	7	Sololá	701	Sololá	1	Sololá	9	Septiembre	2023-09-24T00:00:00	2024-11-08T23:00:00	2	Temperatura media	15.3
49186	7	Sololá	701	Sololá	1	Sololá	9	Septiembre	2023-09-24T00:00:00	2024-11-08T23:00:00	4	Temperatura máxima	15.4
49187	7	Sololá	701	Sololá	1	Sololá	9	Septiembre	2023-09-24T00:00:00	2024-11-08T23:00:00	3	Temperatura mínima	15.2
49188	7	Sololá	701	Sololá	1	Sololá	9	Septiembre	2023-09-24T00:00:00	2024-11-08T23:00:00	5	Humedad	95
49189	7	Sololá	701	Sololá	1	Sololá	9	Septiembre	2023-09-24T00:00:00	2024-11-08T23:00:00	6	Velocidad del viento	0
49190	7	Sololá	701	Sololá	1	Sololá	9	Septiembre	2023-09-24T00:00:00	2024-11-08T23:00:00	7	Dirección del viento	0
49191	7	Sololá	701	Sololá	1	Sololá	9	Septiembre	2023-09-24T00:00:00	2024-11-08T23:00:00	1	Precipitación	1.8
49192	7	Sololá	701	Sololá	1	Sololá	9	Septiembre	2023-09-24T00:00:00	2024-11-08T23:00:00	8	Radiación solar	0
49193	7	Sololá	701	Sololá	1	Sololá	9	Septiembre	2023-09-25T00:00:00	2024-11-08T00:00:00	2	Temperatura media	15.1
49194	7	Sololá	701	Sololá	1	Sololá	9	Septiembre	2023-09-25T00:00:00	2024-11-08T00:00:00	4	Temperatura máxima	15.4
49195	7	Sololá	701	Sololá	1	Sololá	9	Septiembre	2023-09-25T00:00:00	2024-11-08T00:00:00	3	Temperatura mínima	15.1
49196	7	Sololá	701	Sololá	1	Sololá	9	Septiembre	2023-09-25T00:00:00	2024-11-08T00:00:00	5	Humedad	96
49197	7	Sololá	701	Sololá	1	Sololá	9	Septiembre	2023-09-25T00:00:00	2024-11-08T00:00:00	6	Velocidad del viento	0
49198	7	Sololá	701	Sololá	1	Sololá	9	Septiembre	2023-09-25T00:00:00	2024-11-08T00:00:00	7	Dirección del viento	0
49199	7	Sololá	701	Sololá	1	Sololá	9	Septiembre	2023-09-25T00:00:00	2024-11-08T00:00:00	1	Precipitación	11.4
49200	7	Sololá	701	Sololá	1	Sololá	9	Septiembre	2023-09-25T00:00:00	2024-11-08T00:00:00	8	Radiación solar	0
49201	7	Sololá	701	Sololá	1	Sololá	9	Septiembre	2023-09-25T00:00:00	2024-11-08T01:00:00	2	Temperatura media	14.7
49202	7	Sololá	701	Sololá	1	Sololá	9	Septiembre	2023-09-25T00:00:00	2024-11-08T01:00:00	4	Temperatura máxima	15.1
49203	7	Sololá	701	Sololá	1	Sololá	9	Septiembre	2023-09-25T00:00:00	2024-11-08T01:00:00	3	Temperatura mínima	14.7
49204	7	Sololá	701	Sololá	1	Sololá	9	Septiembre	2023-09-25T00:00:00	2024-11-08T01:00:00	5	Humedad	96
49205	7	Sololá	701	Sololá	1	Sololá	9	Septiembre	2023-09-25T00:00:00	2024-11-08T01:00:00	6	Velocidad del viento	0
49206	7	Sololá	701	Sololá	1	Sololá	9	Septiembre	2023-09-25T00:00:00	2024-11-08T01:00:00	7	Dirección del viento	0
49207	7	Sololá	701	Sololá	1	Sololá	9	Septiembre	2023-09-25T00:00:00	2024-11-08T01:00:00	1	Precipitación	15.2
49208	7	Sololá	701	Sololá	1	Sololá	9	Septiembre	2023-09-25T00:00:00	2024-11-08T01:00:00	8	Radiación solar	0
49209	7	Sololá	701	Sololá	1	Sololá	9	Septiembre	2023-09-25T00:00:00	2024-11-08T02:00:00	2	Temperatura media	14.5
49210	7	Sololá	701	Sololá	1	Sololá	9	Septiembre	2023-09-25T00:00:00	2024-11-08T02:00:00	4	Temperatura máxima	14.7
49211	7	Sololá	701	Sololá	1	Sololá	9	Septiembre	2023-09-25T00:00:00	2024-11-08T02:00:00	3	Temperatura mínima	14.5
49212	7	Sololá	701	Sololá	1	Sololá	9	Septiembre	2023-09-25T00:00:00	2024-11-08T02:00:00	5	Humedad	96
49213	7	Sololá	701	Sololá	1	Sololá	9	Septiembre	2023-09-25T00:00:00	2024-11-08T02:00:00	6	Velocidad del viento	0
49214	7	Sololá	701	Sololá	1	Sololá	9	Septiembre	2023-09-25T00:00:00	2024-11-08T02:00:00	7	Dirección del viento	0
49215	7	Sololá	701	Sololá	1	Sololá	9	Septiembre	2023-09-25T00:00:00	2024-11-08T02:00:00	1	Precipitación	4
49216	7	Sololá	701	Sololá	1	Sololá	9	Septiembre	2023-09-25T00:00:00	2024-11-08T02:00:00	8	Radiación solar	0
49217	7	Sololá	701	Sololá	1	Sololá	9	Septiembre	2023-09-25T00:00:00	2024-11-08T03:00:00	2	Temperatura media	14.3
49218	7	Sololá	701	Sololá	1	Sololá	9	Septiembre	2023-09-25T00:00:00	2024-11-08T03:00:00	4	Temperatura máxima	14.6
49219	7	Sololá	701	Sololá	1	Sololá	9	Septiembre	2023-09-25T00:00:00	2024-11-08T03:00:00	3	Temperatura mínima	14.3
49220	7	Sololá	701	Sololá	1	Sololá	9	Septiembre	2023-09-25T00:00:00	2024-11-08T03:00:00	5	Humedad	96
49221	7	Sololá	701	Sololá	1	Sololá	9	Septiembre	2023-09-25T00:00:00	2024-11-08T03:00:00	6	Velocidad del viento	0
49222	7	Sololá	701	Sololá	1	Sololá	9	Septiembre	2023-09-25T00:00:00	2024-11-08T03:00:00	7	Dirección del viento	0
49223	7	Sololá	701	Sololá	1	Sololá	9	Septiembre	2023-09-25T00:00:00	2024-11-08T03:00:00	1	Precipitación	0.2
49224	7	Sololá	701	Sololá	1	Sololá	9	Septiembre	2023-09-25T00:00:00	2024-11-08T03:00:00	8	Radiación solar	0
49225	7	Sololá	701	Sololá	1	Sololá	9	Septiembre	2023-09-25T00:00:00	2024-11-08T04:00:00	2	Temperatura media	13.6
49226	7	Sololá	701	Sololá	1	Sololá	9	Septiembre	2023-09-25T00:00:00	2024-11-08T04:00:00	4	Temperatura máxima	14.3
49227	7	Sololá	701	Sololá	1	Sololá	9	Septiembre	2023-09-25T00:00:00	2024-11-08T04:00:00	3	Temperatura mínima	13.6
49228	7	Sololá	701	Sololá	1	Sololá	9	Septiembre	2023-09-25T00:00:00	2024-11-08T04:00:00	5	Humedad	95
49229	7	Sololá	701	Sololá	1	Sololá	9	Septiembre	2023-09-25T00:00:00	2024-11-08T04:00:00	6	Velocidad del viento	0
49230	7	Sololá	701	Sololá	1	Sololá	9	Septiembre	2023-09-25T00:00:00	2024-11-08T04:00:00	7	Dirección del viento	0
49231	7	Sololá	701	Sololá	1	Sololá	9	Septiembre	2023-09-25T00:00:00	2024-11-08T04:00:00	1	Precipitación	0
49232	7	Sololá	701	Sololá	1	Sololá	9	Septiembre	2023-09-25T00:00:00	2024-11-08T04:00:00	8	Radiación solar	0
49233	7	Sololá	701	Sololá	1	Sololá	9	Septiembre	2023-09-25T00:00:00	2024-11-08T05:00:00	2	Temperatura media	13.7
49234	7	Sololá	701	Sololá	1	Sololá	9	Septiembre	2023-09-25T00:00:00	2024-11-08T05:00:00	4	Temperatura máxima	13.7
49235	7	Sololá	701	Sololá	1	Sololá	9	Septiembre	2023-09-25T00:00:00	2024-11-08T05:00:00	3	Temperatura mínima	13.5
49236	7	Sololá	701	Sololá	1	Sololá	9	Septiembre	2023-09-25T00:00:00	2024-11-08T05:00:00	5	Humedad	96
49237	7	Sololá	701	Sololá	1	Sololá	9	Septiembre	2023-09-25T00:00:00	2024-11-08T05:00:00	6	Velocidad del viento	0
49238	7	Sololá	701	Sololá	1	Sololá	9	Septiembre	2023-09-25T00:00:00	2024-11-08T05:00:00	7	Dirección del viento	0
49239	7	Sololá	701	Sololá	1	Sololá	9	Septiembre	2023-09-25T00:00:00	2024-11-08T05:00:00	1	Precipitación	0
49240	7	Sololá	701	Sololá	1	Sololá	9	Septiembre	2023-09-25T00:00:00	2024-11-08T05:00:00	8	Radiación solar	0
49241	7	Sololá	701	Sololá	1	Sololá	9	Septiembre	2023-09-25T00:00:00	2024-11-08T06:00:00	2	Temperatura media	13.6
49242	7	Sololá	701	Sololá	1	Sololá	9	Septiembre	2023-09-25T00:00:00	2024-11-08T06:00:00	4	Temperatura máxima	13.7
49243	7	Sololá	701	Sololá	1	Sololá	9	Septiembre	2023-09-25T00:00:00	2024-11-08T06:00:00	3	Temperatura mínima	13.4
49244	7	Sololá	701	Sololá	1	Sololá	9	Septiembre	2023-09-25T00:00:00	2024-11-08T06:00:00	5	Humedad	96
49245	7	Sololá	701	Sololá	1	Sololá	9	Septiembre	2023-09-25T00:00:00	2024-11-08T06:00:00	6	Velocidad del viento	0
49246	7	Sololá	701	Sololá	1	Sololá	9	Septiembre	2023-09-25T00:00:00	2024-11-08T06:00:00	7	Dirección del viento	0
49247	7	Sololá	701	Sololá	1	Sololá	9	Septiembre	2023-09-25T00:00:00	2024-11-08T06:00:00	1	Precipitación	0
49248	7	Sololá	701	Sololá	1	Sololá	9	Septiembre	2023-09-25T00:00:00	2024-11-08T06:00:00	8	Radiación solar	0
49249	7	Sololá	701	Sololá	1	Sololá	9	Septiembre	2023-09-25T00:00:00	2024-11-08T07:00:00	2	Temperatura media	13.7
49250	7	Sololá	701	Sololá	1	Sololá	9	Septiembre	2023-09-25T00:00:00	2024-11-08T07:00:00	4	Temperatura máxima	13.7
49251	7	Sololá	701	Sololá	1	Sololá	9	Septiembre	2023-09-25T00:00:00	2024-11-08T07:00:00	3	Temperatura mínima	13.5
49252	7	Sololá	701	Sololá	1	Sololá	9	Septiembre	2023-09-25T00:00:00	2024-11-08T07:00:00	5	Humedad	96
49253	7	Sololá	701	Sololá	1	Sololá	9	Septiembre	2023-09-25T00:00:00	2024-11-08T07:00:00	6	Velocidad del viento	0
49254	7	Sololá	701	Sololá	1	Sololá	9	Septiembre	2023-09-25T00:00:00	2024-11-08T07:00:00	7	Dirección del viento	0
49255	7	Sololá	701	Sololá	1	Sololá	9	Septiembre	2023-09-25T00:00:00	2024-11-08T07:00:00	1	Precipitación	0
49256	7	Sololá	701	Sololá	1	Sololá	9	Septiembre	2023-09-25T00:00:00	2024-11-08T07:00:00	8	Radiación solar	11
49257	7	Sololá	701	Sololá	1	Sololá	9	Septiembre	2023-09-25T00:00:00	2024-11-08T08:00:00	2	Temperatura media	14.4
49258	7	Sololá	701	Sololá	1	Sololá	9	Septiembre	2023-09-25T00:00:00	2024-11-08T08:00:00	4	Temperatura máxima	14.4
49259	7	Sololá	701	Sololá	1	Sololá	9	Septiembre	2023-09-25T00:00:00	2024-11-08T08:00:00	3	Temperatura mínima	13.7
49260	7	Sololá	701	Sololá	1	Sololá	9	Septiembre	2023-09-25T00:00:00	2024-11-08T08:00:00	5	Humedad	97
49261	7	Sololá	701	Sololá	1	Sololá	9	Septiembre	2023-09-25T00:00:00	2024-11-08T08:00:00	6	Velocidad del viento	0
49262	7	Sololá	701	Sololá	1	Sololá	9	Septiembre	2023-09-25T00:00:00	2024-11-08T08:00:00	7	Dirección del viento	0
49263	7	Sololá	701	Sololá	1	Sololá	9	Septiembre	2023-09-25T00:00:00	2024-11-08T08:00:00	1	Precipitación	0
49264	7	Sololá	701	Sololá	1	Sololá	9	Septiembre	2023-09-25T00:00:00	2024-11-08T08:00:00	8	Radiación solar	50
49265	7	Sololá	701	Sololá	1	Sololá	9	Septiembre	2023-09-25T00:00:00	2024-11-08T09:00:00	2	Temperatura media	16.3
49266	7	Sololá	701	Sololá	1	Sololá	9	Septiembre	2023-09-25T00:00:00	2024-11-08T09:00:00	4	Temperatura máxima	16.3
49267	7	Sololá	701	Sololá	1	Sololá	9	Septiembre	2023-09-25T00:00:00	2024-11-08T09:00:00	3	Temperatura mínima	14.4
49268	7	Sololá	701	Sololá	1	Sololá	9	Septiembre	2023-09-25T00:00:00	2024-11-08T09:00:00	5	Humedad	94
49269	7	Sololá	701	Sololá	1	Sololá	9	Septiembre	2023-09-25T00:00:00	2024-11-08T09:00:00	6	Velocidad del viento	0
49270	7	Sololá	701	Sololá	1	Sololá	9	Septiembre	2023-09-25T00:00:00	2024-11-08T09:00:00	7	Dirección del viento	0
49271	7	Sololá	701	Sololá	1	Sololá	9	Septiembre	2023-09-25T00:00:00	2024-11-08T09:00:00	1	Precipitación	0
49272	7	Sololá	701	Sololá	1	Sololá	9	Septiembre	2023-09-25T00:00:00	2024-11-08T09:00:00	8	Radiación solar	168
49273	7	Sololá	701	Sololá	1	Sololá	9	Septiembre	2023-09-25T00:00:00	2024-11-08T10:00:00	2	Temperatura media	19.9
49274	7	Sololá	701	Sololá	1	Sololá	9	Septiembre	2023-09-25T00:00:00	2024-11-08T10:00:00	4	Temperatura máxima	19.9
49275	7	Sololá	701	Sololá	1	Sololá	9	Septiembre	2023-09-25T00:00:00	2024-11-08T10:00:00	3	Temperatura mínima	16.3
49276	7	Sololá	701	Sololá	1	Sololá	9	Septiembre	2023-09-25T00:00:00	2024-11-08T10:00:00	5	Humedad	86
49277	7	Sololá	701	Sololá	1	Sololá	9	Septiembre	2023-09-25T00:00:00	2024-11-08T10:00:00	6	Velocidad del viento	0
49278	7	Sololá	701	Sololá	1	Sololá	9	Septiembre	2023-09-25T00:00:00	2024-11-08T10:00:00	7	Dirección del viento	0
49279	7	Sololá	701	Sololá	1	Sololá	9	Septiembre	2023-09-25T00:00:00	2024-11-08T10:00:00	1	Precipitación	0
49280	7	Sololá	701	Sololá	1	Sololá	9	Septiembre	2023-09-25T00:00:00	2024-11-08T10:00:00	8	Radiación solar	298
49281	7	Sololá	701	Sololá	1	Sololá	9	Septiembre	2023-09-25T00:00:00	2024-11-08T11:00:00	2	Temperatura media	21.4
49282	7	Sololá	701	Sololá	1	Sololá	9	Septiembre	2023-09-25T00:00:00	2024-11-08T11:00:00	4	Temperatura máxima	21.4
49283	7	Sololá	701	Sololá	1	Sololá	9	Septiembre	2023-09-25T00:00:00	2024-11-08T11:00:00	3	Temperatura mínima	19.9
49284	7	Sololá	701	Sololá	1	Sololá	9	Septiembre	2023-09-25T00:00:00	2024-11-08T11:00:00	5	Humedad	78
49285	7	Sololá	701	Sololá	1	Sololá	9	Septiembre	2023-09-25T00:00:00	2024-11-08T11:00:00	6	Velocidad del viento	0
49286	7	Sololá	701	Sololá	1	Sololá	9	Septiembre	2023-09-25T00:00:00	2024-11-08T11:00:00	7	Dirección del viento	0
49287	7	Sololá	701	Sololá	1	Sololá	9	Septiembre	2023-09-25T00:00:00	2024-11-08T11:00:00	1	Precipitación	0
49288	7	Sololá	701	Sololá	1	Sololá	9	Septiembre	2023-09-25T00:00:00	2024-11-08T11:00:00	8	Radiación solar	689
49289	7	Sololá	701	Sololá	1	Sololá	9	Septiembre	2023-09-25T00:00:00	2024-11-08T12:00:00	2	Temperatura media	21.1
49290	7	Sololá	701	Sololá	1	Sololá	9	Septiembre	2023-09-25T00:00:00	2024-11-08T12:00:00	4	Temperatura máxima	21.4
49291	7	Sololá	701	Sololá	1	Sololá	9	Septiembre	2023-09-25T00:00:00	2024-11-08T12:00:00	3	Temperatura mínima	20.4
49292	7	Sololá	701	Sololá	1	Sololá	9	Septiembre	2023-09-25T00:00:00	2024-11-08T12:00:00	5	Humedad	80
49293	7	Sololá	701	Sololá	1	Sololá	9	Septiembre	2023-09-25T00:00:00	2024-11-08T12:00:00	6	Velocidad del viento	0
49294	7	Sololá	701	Sololá	1	Sololá	9	Septiembre	2023-09-25T00:00:00	2024-11-08T12:00:00	7	Dirección del viento	0
49295	7	Sololá	701	Sololá	1	Sololá	9	Septiembre	2023-09-25T00:00:00	2024-11-08T12:00:00	1	Precipitación	0
49296	7	Sololá	701	Sololá	1	Sololá	9	Septiembre	2023-09-25T00:00:00	2024-11-08T12:00:00	8	Radiación solar	405
49297	7	Sololá	701	Sololá	1	Sololá	9	Septiembre	2023-09-25T00:00:00	2024-11-08T13:00:00	2	Temperatura media	19.4
49298	7	Sololá	701	Sololá	1	Sololá	9	Septiembre	2023-09-25T00:00:00	2024-11-08T13:00:00	4	Temperatura máxima	21.2
49299	7	Sololá	701	Sololá	1	Sololá	9	Septiembre	2023-09-25T00:00:00	2024-11-08T13:00:00	3	Temperatura mínima	18.9
49300	7	Sololá	701	Sololá	1	Sololá	9	Septiembre	2023-09-25T00:00:00	2024-11-08T13:00:00	5	Humedad	87
49301	7	Sololá	701	Sololá	1	Sololá	9	Septiembre	2023-09-25T00:00:00	2024-11-08T13:00:00	6	Velocidad del viento	0
49302	7	Sololá	701	Sololá	1	Sololá	9	Septiembre	2023-09-25T00:00:00	2024-11-08T13:00:00	7	Dirección del viento	0
49303	7	Sololá	701	Sololá	1	Sololá	9	Septiembre	2023-09-25T00:00:00	2024-11-08T13:00:00	1	Precipitación	0
49304	7	Sololá	701	Sololá	1	Sololá	9	Septiembre	2023-09-25T00:00:00	2024-11-08T13:00:00	8	Radiación solar	168
49305	7	Sololá	701	Sololá	1	Sololá	9	Septiembre	2023-09-25T00:00:00	2024-11-08T14:00:00	2	Temperatura media	17.3
49306	7	Sololá	701	Sololá	1	Sololá	9	Septiembre	2023-09-25T00:00:00	2024-11-08T14:00:00	4	Temperatura máxima	19.4
49307	7	Sololá	701	Sololá	1	Sololá	9	Septiembre	2023-09-25T00:00:00	2024-11-08T14:00:00	3	Temperatura mínima	17.3
49308	7	Sololá	701	Sololá	1	Sololá	9	Septiembre	2023-09-25T00:00:00	2024-11-08T14:00:00	5	Humedad	91
49309	7	Sololá	701	Sololá	1	Sololá	9	Septiembre	2023-09-25T00:00:00	2024-11-08T14:00:00	6	Velocidad del viento	0
49310	7	Sololá	701	Sololá	1	Sololá	9	Septiembre	2023-09-25T00:00:00	2024-11-08T14:00:00	7	Dirección del viento	0
49311	7	Sololá	701	Sololá	1	Sololá	9	Septiembre	2023-09-25T00:00:00	2024-11-08T14:00:00	1	Precipitación	0
49312	7	Sololá	701	Sololá	1	Sololá	9	Septiembre	2023-09-25T00:00:00	2024-11-08T14:00:00	8	Radiación solar	74
49313	7	Sololá	701	Sololá	1	Sololá	9	Septiembre	2023-09-25T00:00:00	2024-11-08T15:00:00	2	Temperatura media	16.8
49314	7	Sololá	701	Sololá	1	Sololá	9	Septiembre	2023-09-25T00:00:00	2024-11-08T15:00:00	4	Temperatura máxima	17.3
49315	7	Sololá	701	Sololá	1	Sololá	9	Septiembre	2023-09-25T00:00:00	2024-11-08T15:00:00	3	Temperatura mínima	16.8
49316	7	Sololá	701	Sololá	1	Sololá	9	Septiembre	2023-09-25T00:00:00	2024-11-08T15:00:00	5	Humedad	93
49317	7	Sololá	701	Sololá	1	Sololá	9	Septiembre	2023-09-25T00:00:00	2024-11-08T15:00:00	6	Velocidad del viento	0
49318	7	Sololá	701	Sololá	1	Sololá	9	Septiembre	2023-09-25T00:00:00	2024-11-08T15:00:00	7	Dirección del viento	0
49319	7	Sololá	701	Sololá	1	Sololá	9	Septiembre	2023-09-25T00:00:00	2024-11-08T15:00:00	1	Precipitación	0
49320	7	Sololá	701	Sololá	1	Sololá	9	Septiembre	2023-09-25T00:00:00	2024-11-08T15:00:00	8	Radiación solar	28
49321	7	Sololá	701	Sololá	1	Sololá	9	Septiembre	2023-09-25T00:00:00	2024-11-08T16:00:00	2	Temperatura media	16.7
49322	7	Sololá	701	Sololá	1	Sololá	9	Septiembre	2023-09-25T00:00:00	2024-11-08T16:00:00	4	Temperatura máxima	16.8
49323	7	Sololá	701	Sololá	1	Sololá	9	Septiembre	2023-09-25T00:00:00	2024-11-08T16:00:00	3	Temperatura mínima	16.6
49324	7	Sololá	701	Sololá	1	Sololá	9	Septiembre	2023-09-25T00:00:00	2024-11-08T16:00:00	5	Humedad	93
49325	7	Sololá	701	Sololá	1	Sololá	9	Septiembre	2023-09-25T00:00:00	2024-11-08T16:00:00	6	Velocidad del viento	0
49326	7	Sololá	701	Sololá	1	Sololá	9	Septiembre	2023-09-25T00:00:00	2024-11-08T16:00:00	7	Dirección del viento	0
49327	7	Sololá	701	Sololá	1	Sololá	9	Septiembre	2023-09-25T00:00:00	2024-11-08T16:00:00	1	Precipitación	0
49328	7	Sololá	701	Sololá	1	Sololá	9	Septiembre	2023-09-25T00:00:00	2024-11-08T16:00:00	8	Radiación solar	19
49329	7	Sololá	701	Sololá	1	Sololá	9	Septiembre	2023-09-25T00:00:00	2024-11-08T17:00:00	2	Temperatura media	16.7
49330	7	Sololá	701	Sololá	1	Sololá	9	Septiembre	2023-09-25T00:00:00	2024-11-08T17:00:00	4	Temperatura máxima	16.7
49331	7	Sololá	701	Sololá	1	Sololá	9	Septiembre	2023-09-25T00:00:00	2024-11-08T17:00:00	3	Temperatura mínima	16.4
49332	7	Sololá	701	Sololá	1	Sololá	9	Septiembre	2023-09-25T00:00:00	2024-11-08T17:00:00	5	Humedad	93
49333	7	Sololá	701	Sololá	1	Sololá	9	Septiembre	2023-09-25T00:00:00	2024-11-08T17:00:00	6	Velocidad del viento	0
49334	7	Sololá	701	Sololá	1	Sololá	9	Septiembre	2023-09-25T00:00:00	2024-11-08T17:00:00	7	Dirección del viento	0
49335	7	Sololá	701	Sololá	1	Sololá	9	Septiembre	2023-09-25T00:00:00	2024-11-08T17:00:00	1	Precipitación	0
49336	7	Sololá	701	Sololá	1	Sololá	9	Septiembre	2023-09-25T00:00:00	2024-11-08T17:00:00	8	Radiación solar	30
49337	7	Sololá	701	Sololá	1	Sololá	9	Septiembre	2023-09-25T00:00:00	2024-11-08T18:00:00	2	Temperatura media	16.4
49338	7	Sololá	701	Sololá	1	Sololá	9	Septiembre	2023-09-25T00:00:00	2024-11-08T18:00:00	4	Temperatura máxima	16.7
49339	7	Sololá	701	Sololá	1	Sololá	9	Septiembre	2023-09-25T00:00:00	2024-11-08T18:00:00	3	Temperatura mínima	16.3
49340	7	Sololá	701	Sololá	1	Sololá	9	Septiembre	2023-09-25T00:00:00	2024-11-08T18:00:00	5	Humedad	94
49341	7	Sololá	701	Sololá	1	Sololá	9	Septiembre	2023-09-25T00:00:00	2024-11-08T18:00:00	6	Velocidad del viento	0
49342	7	Sololá	701	Sololá	1	Sololá	9	Septiembre	2023-09-25T00:00:00	2024-11-08T18:00:00	7	Dirección del viento	0
49343	7	Sololá	701	Sololá	1	Sololá	9	Septiembre	2023-09-25T00:00:00	2024-11-08T18:00:00	1	Precipitación	0
49344	7	Sololá	701	Sololá	1	Sololá	9	Septiembre	2023-09-25T00:00:00	2024-11-08T18:00:00	8	Radiación solar	6
49345	7	Sololá	701	Sololá	1	Sololá	9	Septiembre	2023-09-25T00:00:00	2024-11-08T19:00:00	2	Temperatura media	16.1
49346	7	Sololá	701	Sololá	1	Sololá	9	Septiembre	2023-09-25T00:00:00	2024-11-08T19:00:00	4	Temperatura máxima	16.5
49347	7	Sololá	701	Sololá	1	Sololá	9	Septiembre	2023-09-25T00:00:00	2024-11-08T19:00:00	3	Temperatura mínima	16.1
49348	7	Sololá	701	Sololá	1	Sololá	9	Septiembre	2023-09-25T00:00:00	2024-11-08T19:00:00	5	Humedad	94
49349	7	Sololá	701	Sololá	1	Sololá	9	Septiembre	2023-09-25T00:00:00	2024-11-08T19:00:00	6	Velocidad del viento	0
49350	7	Sololá	701	Sololá	1	Sololá	9	Septiembre	2023-09-25T00:00:00	2024-11-08T19:00:00	7	Dirección del viento	0
49351	7	Sololá	701	Sololá	1	Sololá	9	Septiembre	2023-09-25T00:00:00	2024-11-08T19:00:00	1	Precipitación	0
49352	7	Sololá	701	Sololá	1	Sololá	9	Septiembre	2023-09-25T00:00:00	2024-11-08T19:00:00	8	Radiación solar	0
49353	7	Sololá	701	Sololá	1	Sololá	9	Septiembre	2023-09-25T00:00:00	2024-11-08T20:00:00	2	Temperatura media	15.5
49354	7	Sololá	701	Sololá	1	Sololá	9	Septiembre	2023-09-25T00:00:00	2024-11-08T20:00:00	4	Temperatura máxima	16.1
49355	7	Sololá	701	Sololá	1	Sololá	9	Septiembre	2023-09-25T00:00:00	2024-11-08T20:00:00	3	Temperatura mínima	15.5
49356	7	Sololá	701	Sololá	1	Sololá	9	Septiembre	2023-09-25T00:00:00	2024-11-08T20:00:00	5	Humedad	94
49357	7	Sololá	701	Sololá	1	Sololá	9	Septiembre	2023-09-25T00:00:00	2024-11-08T20:00:00	6	Velocidad del viento	0
49358	7	Sololá	701	Sololá	1	Sololá	9	Septiembre	2023-09-25T00:00:00	2024-11-08T20:00:00	7	Dirección del viento	0
49359	7	Sololá	701	Sololá	1	Sololá	9	Septiembre	2023-09-25T00:00:00	2024-11-08T20:00:00	1	Precipitación	0
49360	7	Sololá	701	Sololá	1	Sololá	9	Septiembre	2023-09-25T00:00:00	2024-11-08T20:00:00	8	Radiación solar	0
49361	7	Sololá	701	Sololá	1	Sololá	9	Septiembre	2023-09-25T00:00:00	2024-11-08T21:00:00	2	Temperatura media	15.2
49362	7	Sololá	701	Sololá	1	Sololá	9	Septiembre	2023-09-25T00:00:00	2024-11-08T21:00:00	4	Temperatura máxima	15.5
49363	7	Sololá	701	Sololá	1	Sololá	9	Septiembre	2023-09-25T00:00:00	2024-11-08T21:00:00	3	Temperatura mínima	15.2
49364	7	Sololá	701	Sololá	1	Sololá	9	Septiembre	2023-09-25T00:00:00	2024-11-08T21:00:00	5	Humedad	94
49365	7	Sololá	701	Sololá	1	Sololá	9	Septiembre	2023-09-25T00:00:00	2024-11-08T21:00:00	6	Velocidad del viento	0
49366	7	Sololá	701	Sololá	1	Sololá	9	Septiembre	2023-09-25T00:00:00	2024-11-08T21:00:00	7	Dirección del viento	0
49367	7	Sololá	701	Sololá	1	Sololá	9	Septiembre	2023-09-25T00:00:00	2024-11-08T21:00:00	1	Precipitación	0
49368	7	Sololá	701	Sololá	1	Sololá	9	Septiembre	2023-09-25T00:00:00	2024-11-08T21:00:00	8	Radiación solar	0
49369	7	Sololá	701	Sololá	1	Sololá	9	Septiembre	2023-09-25T00:00:00	2024-11-08T22:00:00	2	Temperatura media	15.2
49370	7	Sololá	701	Sololá	1	Sololá	9	Septiembre	2023-09-25T00:00:00	2024-11-08T22:00:00	4	Temperatura máxima	15.3
49371	7	Sololá	701	Sololá	1	Sololá	9	Septiembre	2023-09-25T00:00:00	2024-11-08T22:00:00	3	Temperatura mínima	15.1
49372	7	Sololá	701	Sololá	1	Sololá	9	Septiembre	2023-09-25T00:00:00	2024-11-08T22:00:00	5	Humedad	94
49373	7	Sololá	701	Sololá	1	Sololá	9	Septiembre	2023-09-25T00:00:00	2024-11-08T22:00:00	6	Velocidad del viento	0
49374	7	Sololá	701	Sololá	1	Sololá	9	Septiembre	2023-09-25T00:00:00	2024-11-08T22:00:00	7	Dirección del viento	0
49375	7	Sololá	701	Sololá	1	Sololá	9	Septiembre	2023-09-25T00:00:00	2024-11-08T22:00:00	1	Precipitación	0
49376	7	Sololá	701	Sololá	1	Sololá	9	Septiembre	2023-09-25T00:00:00	2024-11-08T22:00:00	8	Radiación solar	0
49377	7	Sololá	701	Sololá	1	Sololá	9	Septiembre	2023-09-25T00:00:00	2024-11-08T23:00:00	2	Temperatura media	15.2
49378	7	Sololá	701	Sololá	1	Sololá	9	Septiembre	2023-09-25T00:00:00	2024-11-08T23:00:00	4	Temperatura máxima	15.3
49379	7	Sololá	701	Sololá	1	Sololá	9	Septiembre	2023-09-25T00:00:00	2024-11-08T23:00:00	3	Temperatura mínima	15.1
49380	7	Sololá	701	Sololá	1	Sololá	9	Septiembre	2023-09-25T00:00:00	2024-11-08T23:00:00	5	Humedad	94
49381	7	Sololá	701	Sololá	1	Sololá	9	Septiembre	2023-09-25T00:00:00	2024-11-08T23:00:00	6	Velocidad del viento	0
49382	7	Sololá	701	Sololá	1	Sololá	9	Septiembre	2023-09-25T00:00:00	2024-11-08T23:00:00	7	Dirección del viento	0
49383	7	Sololá	701	Sololá	1	Sololá	9	Septiembre	2023-09-25T00:00:00	2024-11-08T23:00:00	1	Precipitación	0
49384	7	Sololá	701	Sololá	1	Sololá	9	Septiembre	2023-09-25T00:00:00	2024-11-08T23:00:00	8	Radiación solar	0
49385	7	Sololá	701	Sololá	1	Sololá	9	Septiembre	2023-09-26T00:00:00	2024-11-08T00:00:00	2	Temperatura media	15.1
49386	7	Sololá	701	Sololá	1	Sololá	9	Septiembre	2023-09-26T00:00:00	2024-11-08T00:00:00	4	Temperatura máxima	15.3
49387	7	Sololá	701	Sololá	1	Sololá	9	Septiembre	2023-09-26T00:00:00	2024-11-08T00:00:00	3	Temperatura mínima	15.1
49388	7	Sololá	701	Sololá	1	Sololá	9	Septiembre	2023-09-26T00:00:00	2024-11-08T00:00:00	5	Humedad	94
49389	7	Sololá	701	Sololá	1	Sololá	9	Septiembre	2023-09-26T00:00:00	2024-11-08T00:00:00	6	Velocidad del viento	0
49390	7	Sololá	701	Sololá	1	Sololá	9	Septiembre	2023-09-26T00:00:00	2024-11-08T00:00:00	7	Dirección del viento	0
49391	7	Sololá	701	Sololá	1	Sololá	9	Septiembre	2023-09-26T00:00:00	2024-11-08T00:00:00	1	Precipitación	0
49392	7	Sololá	701	Sololá	1	Sololá	9	Septiembre	2023-09-26T00:00:00	2024-11-08T00:00:00	8	Radiación solar	0
49393	7	Sololá	701	Sololá	1	Sololá	9	Septiembre	2023-09-26T00:00:00	2024-11-08T01:00:00	2	Temperatura media	15.1
49394	7	Sololá	701	Sololá	1	Sololá	9	Septiembre	2023-09-26T00:00:00	2024-11-08T01:00:00	4	Temperatura máxima	15.1
49395	7	Sololá	701	Sololá	1	Sololá	9	Septiembre	2023-09-26T00:00:00	2024-11-08T01:00:00	3	Temperatura mínima	14.9
49396	7	Sololá	701	Sololá	1	Sololá	9	Septiembre	2023-09-26T00:00:00	2024-11-08T01:00:00	5	Humedad	94
49397	7	Sololá	701	Sololá	1	Sololá	9	Septiembre	2023-09-26T00:00:00	2024-11-08T01:00:00	6	Velocidad del viento	0
49398	7	Sololá	701	Sololá	1	Sololá	9	Septiembre	2023-09-26T00:00:00	2024-11-08T01:00:00	7	Dirección del viento	0
49399	7	Sololá	701	Sololá	1	Sololá	9	Septiembre	2023-09-26T00:00:00	2024-11-08T01:00:00	1	Precipitación	0
49400	7	Sololá	701	Sololá	1	Sololá	9	Septiembre	2023-09-26T00:00:00	2024-11-08T01:00:00	8	Radiación solar	0
49401	7	Sololá	701	Sololá	1	Sololá	9	Septiembre	2023-09-26T00:00:00	2024-11-08T02:00:00	2	Temperatura media	14.7
49402	7	Sololá	701	Sololá	1	Sololá	9	Septiembre	2023-09-26T00:00:00	2024-11-08T02:00:00	4	Temperatura máxima	15.2
49403	7	Sololá	701	Sololá	1	Sololá	9	Septiembre	2023-09-26T00:00:00	2024-11-08T02:00:00	3	Temperatura mínima	14.7
49404	7	Sololá	701	Sololá	1	Sololá	9	Septiembre	2023-09-26T00:00:00	2024-11-08T02:00:00	5	Humedad	95
49405	7	Sololá	701	Sololá	1	Sololá	9	Septiembre	2023-09-26T00:00:00	2024-11-08T02:00:00	6	Velocidad del viento	0
49406	7	Sololá	701	Sololá	1	Sololá	9	Septiembre	2023-09-26T00:00:00	2024-11-08T02:00:00	7	Dirección del viento	0
49407	7	Sololá	701	Sololá	1	Sololá	9	Septiembre	2023-09-26T00:00:00	2024-11-08T02:00:00	1	Precipitación	6.6
49408	7	Sololá	701	Sololá	1	Sololá	9	Septiembre	2023-09-26T00:00:00	2024-11-08T02:00:00	8	Radiación solar	0
49409	7	Sololá	701	Sololá	1	Sololá	9	Septiembre	2023-09-26T00:00:00	2024-11-08T03:00:00	2	Temperatura media	13.9
49410	7	Sololá	701	Sololá	1	Sololá	9	Septiembre	2023-09-26T00:00:00	2024-11-08T03:00:00	4	Temperatura máxima	14.7
49411	7	Sololá	701	Sololá	1	Sololá	9	Septiembre	2023-09-26T00:00:00	2024-11-08T03:00:00	3	Temperatura mínima	13.9
49412	7	Sololá	701	Sololá	1	Sololá	9	Septiembre	2023-09-26T00:00:00	2024-11-08T03:00:00	5	Humedad	95
49413	7	Sololá	701	Sololá	1	Sololá	9	Septiembre	2023-09-26T00:00:00	2024-11-08T03:00:00	6	Velocidad del viento	0
49414	7	Sololá	701	Sololá	1	Sololá	9	Septiembre	2023-09-26T00:00:00	2024-11-08T03:00:00	7	Dirección del viento	0
49415	7	Sololá	701	Sololá	1	Sololá	9	Septiembre	2023-09-26T00:00:00	2024-11-08T03:00:00	1	Precipitación	0.8
49416	7	Sololá	701	Sololá	1	Sololá	9	Septiembre	2023-09-26T00:00:00	2024-11-08T03:00:00	8	Radiación solar	0
49417	7	Sololá	701	Sololá	1	Sololá	9	Septiembre	2023-09-26T00:00:00	2024-11-08T04:00:00	2	Temperatura media	13.3
49418	7	Sololá	701	Sololá	1	Sololá	9	Septiembre	2023-09-26T00:00:00	2024-11-08T04:00:00	4	Temperatura máxima	13.9
49419	7	Sololá	701	Sololá	1	Sololá	9	Septiembre	2023-09-26T00:00:00	2024-11-08T04:00:00	3	Temperatura mínima	13.3
49420	7	Sololá	701	Sololá	1	Sololá	9	Septiembre	2023-09-26T00:00:00	2024-11-08T04:00:00	5	Humedad	95
49421	7	Sololá	701	Sololá	1	Sololá	9	Septiembre	2023-09-26T00:00:00	2024-11-08T04:00:00	6	Velocidad del viento	0
49422	7	Sololá	701	Sololá	1	Sololá	9	Septiembre	2023-09-26T00:00:00	2024-11-08T04:00:00	7	Dirección del viento	0
49423	7	Sololá	701	Sololá	1	Sololá	9	Septiembre	2023-09-26T00:00:00	2024-11-08T04:00:00	1	Precipitación	0.2
49424	7	Sololá	701	Sololá	1	Sololá	9	Septiembre	2023-09-26T00:00:00	2024-11-08T04:00:00	8	Radiación solar	0
49425	7	Sololá	701	Sololá	1	Sololá	9	Septiembre	2023-09-26T00:00:00	2024-11-08T05:00:00	2	Temperatura media	12.8
49426	7	Sololá	701	Sololá	1	Sololá	9	Septiembre	2023-09-26T00:00:00	2024-11-08T05:00:00	4	Temperatura máxima	13.4
49427	7	Sololá	701	Sololá	1	Sololá	9	Septiembre	2023-09-26T00:00:00	2024-11-08T05:00:00	3	Temperatura mínima	12.8
49428	7	Sololá	701	Sololá	1	Sololá	9	Septiembre	2023-09-26T00:00:00	2024-11-08T05:00:00	5	Humedad	95
49429	7	Sololá	701	Sololá	1	Sololá	9	Septiembre	2023-09-26T00:00:00	2024-11-08T05:00:00	6	Velocidad del viento	0
49430	7	Sololá	701	Sololá	1	Sololá	9	Septiembre	2023-09-26T00:00:00	2024-11-08T05:00:00	7	Dirección del viento	0
49431	7	Sololá	701	Sololá	1	Sololá	9	Septiembre	2023-09-26T00:00:00	2024-11-08T05:00:00	1	Precipitación	0
49432	7	Sololá	701	Sololá	1	Sololá	9	Septiembre	2023-09-26T00:00:00	2024-11-08T05:00:00	8	Radiación solar	0
49433	7	Sololá	701	Sololá	1	Sololá	9	Septiembre	2023-09-26T00:00:00	2024-11-08T06:00:00	2	Temperatura media	12.1
49434	7	Sololá	701	Sololá	1	Sololá	9	Septiembre	2023-09-26T00:00:00	2024-11-08T06:00:00	4	Temperatura máxima	12.9
49435	7	Sololá	701	Sololá	1	Sololá	9	Septiembre	2023-09-26T00:00:00	2024-11-08T06:00:00	3	Temperatura mínima	12.1
49436	7	Sololá	701	Sololá	1	Sololá	9	Septiembre	2023-09-26T00:00:00	2024-11-08T06:00:00	5	Humedad	95
49437	7	Sololá	701	Sololá	1	Sololá	9	Septiembre	2023-09-26T00:00:00	2024-11-08T06:00:00	6	Velocidad del viento	0
49438	7	Sololá	701	Sololá	1	Sololá	9	Septiembre	2023-09-26T00:00:00	2024-11-08T06:00:00	7	Dirección del viento	0
49439	7	Sololá	701	Sololá	1	Sololá	9	Septiembre	2023-09-26T00:00:00	2024-11-08T06:00:00	1	Precipitación	0
49440	7	Sololá	701	Sololá	1	Sololá	9	Septiembre	2023-09-26T00:00:00	2024-11-08T06:00:00	8	Radiación solar	0
49441	7	Sololá	701	Sololá	1	Sololá	9	Septiembre	2023-09-26T00:00:00	2024-11-08T07:00:00	2	Temperatura media	12.3
49442	7	Sololá	701	Sololá	1	Sololá	9	Septiembre	2023-09-26T00:00:00	2024-11-08T07:00:00	4	Temperatura máxima	12.3
49443	7	Sololá	701	Sololá	1	Sololá	9	Septiembre	2023-09-26T00:00:00	2024-11-08T07:00:00	3	Temperatura mínima	12
49444	7	Sololá	701	Sololá	1	Sololá	9	Septiembre	2023-09-26T00:00:00	2024-11-08T07:00:00	5	Humedad	96
49445	7	Sololá	701	Sololá	1	Sololá	9	Septiembre	2023-09-26T00:00:00	2024-11-08T07:00:00	6	Velocidad del viento	0
49446	7	Sololá	701	Sololá	1	Sololá	9	Septiembre	2023-09-26T00:00:00	2024-11-08T07:00:00	7	Dirección del viento	0
49447	7	Sololá	701	Sololá	1	Sololá	9	Septiembre	2023-09-26T00:00:00	2024-11-08T07:00:00	1	Precipitación	0
49448	7	Sololá	701	Sololá	1	Sololá	9	Septiembre	2023-09-26T00:00:00	2024-11-08T07:00:00	8	Radiación solar	10
49449	7	Sololá	701	Sololá	1	Sololá	9	Septiembre	2023-09-26T00:00:00	2024-11-08T08:00:00	2	Temperatura media	14.6
49450	7	Sololá	701	Sololá	1	Sololá	9	Septiembre	2023-09-26T00:00:00	2024-11-08T08:00:00	4	Temperatura máxima	14.6
49451	7	Sololá	701	Sololá	1	Sololá	9	Septiembre	2023-09-26T00:00:00	2024-11-08T08:00:00	3	Temperatura mínima	12.3
49452	7	Sololá	701	Sololá	1	Sololá	9	Septiembre	2023-09-26T00:00:00	2024-11-08T08:00:00	5	Humedad	97
49453	7	Sololá	701	Sololá	1	Sololá	9	Septiembre	2023-09-26T00:00:00	2024-11-08T08:00:00	6	Velocidad del viento	0
49454	7	Sololá	701	Sololá	1	Sololá	9	Septiembre	2023-09-26T00:00:00	2024-11-08T08:00:00	7	Dirección del viento	0
49455	7	Sololá	701	Sololá	1	Sololá	9	Septiembre	2023-09-26T00:00:00	2024-11-08T08:00:00	1	Precipitación	0
49456	7	Sololá	701	Sololá	1	Sololá	9	Septiembre	2023-09-26T00:00:00	2024-11-08T08:00:00	8	Radiación solar	101
49457	7	Sololá	701	Sololá	1	Sololá	9	Septiembre	2023-09-26T00:00:00	2024-11-08T09:00:00	2	Temperatura media	18.6
49458	7	Sololá	701	Sololá	1	Sololá	9	Septiembre	2023-09-26T00:00:00	2024-11-08T09:00:00	4	Temperatura máxima	18.6
49459	7	Sololá	701	Sololá	1	Sololá	9	Septiembre	2023-09-26T00:00:00	2024-11-08T09:00:00	3	Temperatura mínima	14.6
49460	7	Sololá	701	Sololá	1	Sololá	9	Septiembre	2023-09-26T00:00:00	2024-11-08T09:00:00	5	Humedad	86
49461	7	Sololá	701	Sololá	1	Sololá	9	Septiembre	2023-09-26T00:00:00	2024-11-08T09:00:00	6	Velocidad del viento	0
49462	7	Sololá	701	Sololá	1	Sololá	9	Septiembre	2023-09-26T00:00:00	2024-11-08T09:00:00	7	Dirección del viento	0
49463	7	Sololá	701	Sololá	1	Sololá	9	Septiembre	2023-09-26T00:00:00	2024-11-08T09:00:00	1	Precipitación	0
49464	7	Sololá	701	Sololá	1	Sololá	9	Septiembre	2023-09-26T00:00:00	2024-11-08T09:00:00	8	Radiación solar	524
49465	7	Sololá	701	Sololá	1	Sololá	9	Septiembre	2023-09-26T00:00:00	2024-11-08T10:00:00	2	Temperatura media	22.2
49466	7	Sololá	701	Sololá	1	Sololá	9	Septiembre	2023-09-26T00:00:00	2024-11-08T10:00:00	4	Temperatura máxima	22.3
49467	7	Sololá	701	Sololá	1	Sololá	9	Septiembre	2023-09-26T00:00:00	2024-11-08T10:00:00	3	Temperatura mínima	18.6
49468	7	Sololá	701	Sololá	1	Sololá	9	Septiembre	2023-09-26T00:00:00	2024-11-08T10:00:00	5	Humedad	72
49469	7	Sololá	701	Sololá	1	Sololá	9	Septiembre	2023-09-26T00:00:00	2024-11-08T10:00:00	6	Velocidad del viento	0
49470	7	Sololá	701	Sololá	1	Sololá	9	Septiembre	2023-09-26T00:00:00	2024-11-08T10:00:00	7	Dirección del viento	0
49471	7	Sololá	701	Sololá	1	Sololá	9	Septiembre	2023-09-26T00:00:00	2024-11-08T10:00:00	1	Precipitación	0
49472	7	Sololá	701	Sololá	1	Sololá	9	Septiembre	2023-09-26T00:00:00	2024-11-08T10:00:00	8	Radiación solar	786
49473	7	Sololá	701	Sololá	1	Sololá	9	Septiembre	2023-09-26T00:00:00	2024-11-08T11:00:00	2	Temperatura media	22.1
49474	7	Sololá	701	Sololá	1	Sololá	9	Septiembre	2023-09-26T00:00:00	2024-11-08T11:00:00	4	Temperatura máxima	23.1
49475	7	Sololá	701	Sololá	1	Sololá	9	Septiembre	2023-09-26T00:00:00	2024-11-08T11:00:00	3	Temperatura mínima	22.1
49476	7	Sololá	701	Sololá	1	Sololá	9	Septiembre	2023-09-26T00:00:00	2024-11-08T11:00:00	5	Humedad	75
49477	7	Sololá	701	Sololá	1	Sololá	9	Septiembre	2023-09-26T00:00:00	2024-11-08T11:00:00	6	Velocidad del viento	0
49478	7	Sololá	701	Sololá	1	Sololá	9	Septiembre	2023-09-26T00:00:00	2024-11-08T11:00:00	7	Dirección del viento	0
49479	7	Sololá	701	Sololá	1	Sololá	9	Septiembre	2023-09-26T00:00:00	2024-11-08T11:00:00	1	Precipitación	0
49480	7	Sololá	701	Sololá	1	Sololá	9	Septiembre	2023-09-26T00:00:00	2024-11-08T11:00:00	8	Radiación solar	945
49481	7	Sololá	701	Sololá	1	Sololá	9	Septiembre	2023-09-26T00:00:00	2024-11-08T12:00:00	2	Temperatura media	22.3
49482	7	Sololá	701	Sololá	1	Sololá	9	Septiembre	2023-09-26T00:00:00	2024-11-08T12:00:00	4	Temperatura máxima	22.4
49483	7	Sololá	701	Sololá	1	Sololá	9	Septiembre	2023-09-26T00:00:00	2024-11-08T12:00:00	3	Temperatura mínima	22.1
49484	7	Sololá	701	Sololá	1	Sololá	9	Septiembre	2023-09-26T00:00:00	2024-11-08T12:00:00	5	Humedad	73
49485	7	Sololá	701	Sololá	1	Sololá	9	Septiembre	2023-09-26T00:00:00	2024-11-08T12:00:00	6	Velocidad del viento	0
49486	7	Sololá	701	Sololá	1	Sololá	9	Septiembre	2023-09-26T00:00:00	2024-11-08T12:00:00	7	Dirección del viento	0
49487	7	Sololá	701	Sololá	1	Sololá	9	Septiembre	2023-09-26T00:00:00	2024-11-08T12:00:00	1	Precipitación	0
49488	7	Sololá	701	Sololá	1	Sololá	9	Septiembre	2023-09-26T00:00:00	2024-11-08T12:00:00	8	Radiación solar	724
49489	7	Sololá	701	Sololá	1	Sololá	9	Septiembre	2023-09-26T00:00:00	2024-11-08T13:00:00	2	Temperatura media	22.2
49490	7	Sololá	701	Sololá	1	Sololá	9	Septiembre	2023-09-26T00:00:00	2024-11-08T13:00:00	4	Temperatura máxima	22.6
49491	7	Sololá	701	Sololá	1	Sololá	9	Septiembre	2023-09-26T00:00:00	2024-11-08T13:00:00	3	Temperatura mínima	22.2
49492	7	Sololá	701	Sololá	1	Sololá	9	Septiembre	2023-09-26T00:00:00	2024-11-08T13:00:00	5	Humedad	80
49493	7	Sololá	701	Sololá	1	Sololá	9	Septiembre	2023-09-26T00:00:00	2024-11-08T13:00:00	6	Velocidad del viento	0
49494	7	Sololá	701	Sololá	1	Sololá	9	Septiembre	2023-09-26T00:00:00	2024-11-08T13:00:00	7	Dirección del viento	0
49495	7	Sololá	701	Sololá	1	Sololá	9	Septiembre	2023-09-26T00:00:00	2024-11-08T13:00:00	1	Precipitación	0
49496	7	Sololá	701	Sololá	1	Sololá	9	Septiembre	2023-09-26T00:00:00	2024-11-08T13:00:00	8	Radiación solar	344
49497	7	Sololá	701	Sololá	1	Sololá	9	Septiembre	2023-09-26T00:00:00	2024-11-08T14:00:00	2	Temperatura media	20.6
49498	7	Sololá	701	Sololá	1	Sololá	9	Septiembre	2023-09-26T00:00:00	2024-11-08T14:00:00	4	Temperatura máxima	22.3
49499	7	Sololá	701	Sololá	1	Sololá	9	Septiembre	2023-09-26T00:00:00	2024-11-08T14:00:00	3	Temperatura mínima	20.6
49500	7	Sololá	701	Sololá	1	Sololá	9	Septiembre	2023-09-26T00:00:00	2024-11-08T14:00:00	5	Humedad	86
49501	7	Sololá	701	Sololá	1	Sololá	9	Septiembre	2023-09-26T00:00:00	2024-11-08T14:00:00	6	Velocidad del viento	0
49502	7	Sololá	701	Sololá	1	Sololá	9	Septiembre	2023-09-26T00:00:00	2024-11-08T14:00:00	7	Dirección del viento	0
49503	7	Sololá	701	Sololá	1	Sololá	9	Septiembre	2023-09-26T00:00:00	2024-11-08T14:00:00	1	Precipitación	0
49504	7	Sololá	701	Sololá	1	Sololá	9	Septiembre	2023-09-26T00:00:00	2024-11-08T14:00:00	8	Radiación solar	134
49505	7	Sololá	701	Sololá	1	Sololá	9	Septiembre	2023-09-26T00:00:00	2024-11-08T15:00:00	2	Temperatura media	18.9
49506	7	Sololá	701	Sololá	1	Sololá	9	Septiembre	2023-09-26T00:00:00	2024-11-08T15:00:00	4	Temperatura máxima	20.6
49507	7	Sololá	701	Sololá	1	Sololá	9	Septiembre	2023-09-26T00:00:00	2024-11-08T15:00:00	3	Temperatura mínima	18.9
49508	7	Sololá	701	Sololá	1	Sololá	9	Septiembre	2023-09-26T00:00:00	2024-11-08T15:00:00	5	Humedad	93
49509	7	Sololá	701	Sololá	1	Sololá	9	Septiembre	2023-09-26T00:00:00	2024-11-08T15:00:00	6	Velocidad del viento	0
49510	7	Sololá	701	Sololá	1	Sololá	9	Septiembre	2023-09-26T00:00:00	2024-11-08T15:00:00	7	Dirección del viento	0
49511	7	Sololá	701	Sololá	1	Sololá	9	Septiembre	2023-09-26T00:00:00	2024-11-08T15:00:00	1	Precipitación	0
49512	7	Sololá	701	Sololá	1	Sololá	9	Septiembre	2023-09-26T00:00:00	2024-11-08T15:00:00	8	Radiación solar	27
49513	7	Sololá	701	Sololá	1	Sololá	9	Septiembre	2023-09-26T00:00:00	2024-11-08T16:00:00	2	Temperatura media	17.9
49514	7	Sololá	701	Sololá	1	Sololá	9	Septiembre	2023-09-26T00:00:00	2024-11-08T16:00:00	4	Temperatura máxima	18.9
49515	7	Sololá	701	Sololá	1	Sololá	9	Septiembre	2023-09-26T00:00:00	2024-11-08T16:00:00	3	Temperatura mínima	17.9
49516	7	Sololá	701	Sololá	1	Sololá	9	Septiembre	2023-09-26T00:00:00	2024-11-08T16:00:00	5	Humedad	94
49517	7	Sololá	701	Sololá	1	Sololá	9	Septiembre	2023-09-26T00:00:00	2024-11-08T16:00:00	6	Velocidad del viento	0
49518	7	Sololá	701	Sololá	1	Sololá	9	Septiembre	2023-09-26T00:00:00	2024-11-08T16:00:00	7	Dirección del viento	0
49519	7	Sololá	701	Sololá	1	Sololá	9	Septiembre	2023-09-26T00:00:00	2024-11-08T16:00:00	1	Precipitación	14.2
49520	7	Sololá	701	Sololá	1	Sololá	9	Septiembre	2023-09-26T00:00:00	2024-11-08T16:00:00	8	Radiación solar	16
49521	7	Sololá	701	Sololá	1	Sololá	9	Septiembre	2023-09-26T00:00:00	2024-11-08T17:00:00	2	Temperatura media	15.8
49522	7	Sololá	701	Sololá	1	Sololá	9	Septiembre	2023-09-26T00:00:00	2024-11-08T17:00:00	4	Temperatura máxima	17.9
49523	7	Sololá	701	Sololá	1	Sololá	9	Septiembre	2023-09-26T00:00:00	2024-11-08T17:00:00	3	Temperatura mínima	15.8
49524	7	Sololá	701	Sololá	1	Sololá	9	Septiembre	2023-09-26T00:00:00	2024-11-08T17:00:00	5	Humedad	95
49525	7	Sololá	701	Sololá	1	Sololá	9	Septiembre	2023-09-26T00:00:00	2024-11-08T17:00:00	6	Velocidad del viento	0
49526	7	Sololá	701	Sololá	1	Sololá	9	Septiembre	2023-09-26T00:00:00	2024-11-08T17:00:00	7	Dirección del viento	0
49527	7	Sololá	701	Sololá	1	Sololá	9	Septiembre	2023-09-26T00:00:00	2024-11-08T17:00:00	1	Precipitación	40.6
49528	7	Sololá	701	Sololá	1	Sololá	9	Septiembre	2023-09-26T00:00:00	2024-11-08T17:00:00	8	Radiación solar	0
49529	7	Sololá	701	Sololá	1	Sololá	9	Septiembre	2023-09-26T00:00:00	2024-11-08T18:00:00	2	Temperatura media	15.7
49530	7	Sololá	701	Sololá	1	Sololá	9	Septiembre	2023-09-26T00:00:00	2024-11-08T18:00:00	4	Temperatura máxima	15.9
49531	7	Sololá	701	Sololá	1	Sololá	9	Septiembre	2023-09-26T00:00:00	2024-11-08T18:00:00	3	Temperatura mínima	15.7
49532	7	Sololá	701	Sololá	1	Sololá	9	Septiembre	2023-09-26T00:00:00	2024-11-08T18:00:00	5	Humedad	95
49533	7	Sololá	701	Sololá	1	Sololá	9	Septiembre	2023-09-26T00:00:00	2024-11-08T18:00:00	6	Velocidad del viento	0
49534	7	Sololá	701	Sololá	1	Sololá	9	Septiembre	2023-09-26T00:00:00	2024-11-08T18:00:00	7	Dirección del viento	0
49535	7	Sololá	701	Sololá	1	Sololá	9	Septiembre	2023-09-26T00:00:00	2024-11-08T18:00:00	1	Precipitación	0.4
49536	7	Sololá	701	Sololá	1	Sololá	9	Septiembre	2023-09-26T00:00:00	2024-11-08T18:00:00	8	Radiación solar	0
49537	7	Sololá	701	Sololá	1	Sololá	9	Septiembre	2023-09-26T00:00:00	2024-11-08T19:00:00	2	Temperatura media	15.7
49538	7	Sololá	701	Sololá	1	Sololá	9	Septiembre	2023-09-26T00:00:00	2024-11-08T19:00:00	4	Temperatura máxima	15.8
49539	7	Sololá	701	Sololá	1	Sololá	9	Septiembre	2023-09-26T00:00:00	2024-11-08T19:00:00	3	Temperatura mínima	15.6
49540	7	Sololá	701	Sololá	1	Sololá	9	Septiembre	2023-09-26T00:00:00	2024-11-08T19:00:00	5	Humedad	96
49541	7	Sololá	701	Sololá	1	Sololá	9	Septiembre	2023-09-26T00:00:00	2024-11-08T19:00:00	6	Velocidad del viento	0
49542	7	Sololá	701	Sololá	1	Sololá	9	Septiembre	2023-09-26T00:00:00	2024-11-08T19:00:00	7	Dirección del viento	0
49543	7	Sololá	701	Sololá	1	Sololá	9	Septiembre	2023-09-26T00:00:00	2024-11-08T19:00:00	1	Precipitación	4.2
49544	7	Sololá	701	Sololá	1	Sololá	9	Septiembre	2023-09-26T00:00:00	2024-11-08T19:00:00	8	Radiación solar	0
49545	7	Sololá	701	Sololá	1	Sololá	9	Septiembre	2023-09-26T00:00:00	2024-11-08T20:00:00	2	Temperatura media	15.4
49546	7	Sololá	701	Sololá	1	Sololá	9	Septiembre	2023-09-26T00:00:00	2024-11-08T20:00:00	4	Temperatura máxima	15.7
49547	7	Sololá	701	Sololá	1	Sololá	9	Septiembre	2023-09-26T00:00:00	2024-11-08T20:00:00	3	Temperatura mínima	15.3
49548	7	Sololá	701	Sololá	1	Sololá	9	Septiembre	2023-09-26T00:00:00	2024-11-08T20:00:00	5	Humedad	96
49549	7	Sololá	701	Sololá	1	Sololá	9	Septiembre	2023-09-26T00:00:00	2024-11-08T20:00:00	6	Velocidad del viento	0
49550	7	Sololá	701	Sololá	1	Sololá	9	Septiembre	2023-09-26T00:00:00	2024-11-08T20:00:00	7	Dirección del viento	0
49551	7	Sololá	701	Sololá	1	Sololá	9	Septiembre	2023-09-26T00:00:00	2024-11-08T20:00:00	1	Precipitación	2.4
49552	7	Sololá	701	Sololá	1	Sololá	9	Septiembre	2023-09-26T00:00:00	2024-11-08T20:00:00	8	Radiación solar	0
49553	7	Sololá	701	Sololá	1	Sololá	9	Septiembre	2023-09-26T00:00:00	2024-11-08T21:00:00	2	Temperatura media	15.4
49554	7	Sololá	701	Sololá	1	Sololá	9	Septiembre	2023-09-26T00:00:00	2024-11-08T21:00:00	4	Temperatura máxima	15.7
49555	7	Sololá	701	Sololá	1	Sololá	9	Septiembre	2023-09-26T00:00:00	2024-11-08T21:00:00	3	Temperatura mínima	15.4
49556	7	Sololá	701	Sololá	1	Sololá	9	Septiembre	2023-09-26T00:00:00	2024-11-08T21:00:00	5	Humedad	96
49557	7	Sololá	701	Sololá	1	Sololá	9	Septiembre	2023-09-26T00:00:00	2024-11-08T21:00:00	6	Velocidad del viento	0
49558	7	Sololá	701	Sololá	1	Sololá	9	Septiembre	2023-09-26T00:00:00	2024-11-08T21:00:00	7	Dirección del viento	0
49559	7	Sololá	701	Sololá	1	Sololá	9	Septiembre	2023-09-26T00:00:00	2024-11-08T21:00:00	1	Precipitación	0.8
49560	7	Sololá	701	Sololá	1	Sololá	9	Septiembre	2023-09-26T00:00:00	2024-11-08T21:00:00	8	Radiación solar	0
49561	7	Sololá	701	Sololá	1	Sololá	9	Septiembre	2023-09-26T00:00:00	2024-11-08T22:00:00	2	Temperatura media	14.8
49562	7	Sololá	701	Sololá	1	Sololá	9	Septiembre	2023-09-26T00:00:00	2024-11-08T22:00:00	4	Temperatura máxima	15.4
49563	7	Sololá	701	Sololá	1	Sololá	9	Septiembre	2023-09-26T00:00:00	2024-11-08T22:00:00	3	Temperatura mínima	14.7
49564	7	Sololá	701	Sololá	1	Sololá	9	Septiembre	2023-09-26T00:00:00	2024-11-08T22:00:00	5	Humedad	96
49565	7	Sololá	701	Sololá	1	Sololá	9	Septiembre	2023-09-26T00:00:00	2024-11-08T22:00:00	6	Velocidad del viento	0
49566	7	Sololá	701	Sololá	1	Sololá	9	Septiembre	2023-09-26T00:00:00	2024-11-08T22:00:00	7	Dirección del viento	0
49567	7	Sololá	701	Sololá	1	Sololá	9	Septiembre	2023-09-26T00:00:00	2024-11-08T22:00:00	1	Precipitación	0
49568	7	Sololá	701	Sololá	1	Sololá	9	Septiembre	2023-09-26T00:00:00	2024-11-08T22:00:00	8	Radiación solar	0
49569	7	Sololá	701	Sololá	1	Sololá	9	Septiembre	2023-09-26T00:00:00	2024-11-08T23:00:00	2	Temperatura media	14.1
49570	7	Sololá	701	Sololá	1	Sololá	9	Septiembre	2023-09-26T00:00:00	2024-11-08T23:00:00	4	Temperatura máxima	14.8
49571	7	Sololá	701	Sololá	1	Sololá	9	Septiembre	2023-09-26T00:00:00	2024-11-08T23:00:00	3	Temperatura mínima	14.1
49572	7	Sololá	701	Sololá	1	Sololá	9	Septiembre	2023-09-26T00:00:00	2024-11-08T23:00:00	5	Humedad	95
49573	7	Sololá	701	Sololá	1	Sololá	9	Septiembre	2023-09-26T00:00:00	2024-11-08T23:00:00	6	Velocidad del viento	0
49574	7	Sololá	701	Sololá	1	Sololá	9	Septiembre	2023-09-26T00:00:00	2024-11-08T23:00:00	7	Dirección del viento	0
49575	7	Sololá	701	Sololá	1	Sololá	9	Septiembre	2023-09-26T00:00:00	2024-11-08T23:00:00	1	Precipitación	0
49576	7	Sololá	701	Sololá	1	Sololá	9	Septiembre	2023-09-26T00:00:00	2024-11-08T23:00:00	8	Radiación solar	0
49577	7	Sololá	701	Sololá	1	Sololá	9	Septiembre	2023-09-27T00:00:00	2024-11-08T00:00:00	2	Temperatura media	13.9
49578	7	Sololá	701	Sololá	1	Sololá	9	Septiembre	2023-09-27T00:00:00	2024-11-08T00:00:00	4	Temperatura máxima	14.1
49579	7	Sololá	701	Sololá	1	Sololá	9	Septiembre	2023-09-27T00:00:00	2024-11-08T00:00:00	3	Temperatura mínima	13.8
49580	7	Sololá	701	Sololá	1	Sololá	9	Septiembre	2023-09-27T00:00:00	2024-11-08T00:00:00	5	Humedad	96
49581	7	Sololá	701	Sololá	1	Sololá	9	Septiembre	2023-09-27T00:00:00	2024-11-08T00:00:00	6	Velocidad del viento	0
49582	7	Sololá	701	Sololá	1	Sololá	9	Septiembre	2023-09-27T00:00:00	2024-11-08T00:00:00	7	Dirección del viento	0
49583	7	Sololá	701	Sololá	1	Sololá	9	Septiembre	2023-09-27T00:00:00	2024-11-08T00:00:00	1	Precipitación	0
49584	7	Sololá	701	Sololá	1	Sololá	9	Septiembre	2023-09-27T00:00:00	2024-11-08T00:00:00	8	Radiación solar	0
49585	7	Sololá	701	Sololá	1	Sololá	9	Septiembre	2023-09-27T00:00:00	2024-11-08T01:00:00	2	Temperatura media	13.8
49586	7	Sololá	701	Sololá	1	Sololá	9	Septiembre	2023-09-27T00:00:00	2024-11-08T01:00:00	4	Temperatura máxima	13.9
49587	7	Sololá	701	Sololá	1	Sololá	9	Septiembre	2023-09-27T00:00:00	2024-11-08T01:00:00	3	Temperatura mínima	13.8
49588	7	Sololá	701	Sololá	1	Sololá	9	Septiembre	2023-09-27T00:00:00	2024-11-08T01:00:00	5	Humedad	96
49589	7	Sololá	701	Sololá	1	Sololá	9	Septiembre	2023-09-27T00:00:00	2024-11-08T01:00:00	6	Velocidad del viento	0
49590	7	Sololá	701	Sololá	1	Sololá	9	Septiembre	2023-09-27T00:00:00	2024-11-08T01:00:00	7	Dirección del viento	0
49591	7	Sololá	701	Sololá	1	Sololá	9	Septiembre	2023-09-27T00:00:00	2024-11-08T01:00:00	1	Precipitación	0
49592	7	Sololá	701	Sololá	1	Sololá	9	Septiembre	2023-09-27T00:00:00	2024-11-08T01:00:00	8	Radiación solar	0
49593	7	Sololá	701	Sololá	1	Sololá	9	Septiembre	2023-09-27T00:00:00	2024-11-08T02:00:00	2	Temperatura media	13.8
49594	7	Sololá	701	Sololá	1	Sololá	9	Septiembre	2023-09-27T00:00:00	2024-11-08T02:00:00	4	Temperatura máxima	13.8
49595	7	Sololá	701	Sololá	1	Sololá	9	Septiembre	2023-09-27T00:00:00	2024-11-08T02:00:00	3	Temperatura mínima	13.7
49596	7	Sololá	701	Sololá	1	Sololá	9	Septiembre	2023-09-27T00:00:00	2024-11-08T02:00:00	5	Humedad	96
49597	7	Sololá	701	Sololá	1	Sololá	9	Septiembre	2023-09-27T00:00:00	2024-11-08T02:00:00	6	Velocidad del viento	0
49598	7	Sololá	701	Sololá	1	Sololá	9	Septiembre	2023-09-27T00:00:00	2024-11-08T02:00:00	7	Dirección del viento	0
49599	7	Sololá	701	Sololá	1	Sololá	9	Septiembre	2023-09-27T00:00:00	2024-11-08T02:00:00	1	Precipitación	0
49600	7	Sololá	701	Sololá	1	Sololá	9	Septiembre	2023-09-27T00:00:00	2024-11-08T02:00:00	8	Radiación solar	0
49601	7	Sololá	701	Sololá	1	Sololá	9	Septiembre	2023-09-27T00:00:00	2024-11-08T03:00:00	2	Temperatura media	13.3
49602	7	Sololá	701	Sololá	1	Sololá	9	Septiembre	2023-09-27T00:00:00	2024-11-08T03:00:00	4	Temperatura máxima	13.8
49603	7	Sololá	701	Sololá	1	Sololá	9	Septiembre	2023-09-27T00:00:00	2024-11-08T03:00:00	3	Temperatura mínima	13.3
49604	7	Sololá	701	Sololá	1	Sololá	9	Septiembre	2023-09-27T00:00:00	2024-11-08T03:00:00	5	Humedad	96
49605	7	Sololá	701	Sololá	1	Sololá	9	Septiembre	2023-09-27T00:00:00	2024-11-08T03:00:00	6	Velocidad del viento	0
49606	7	Sololá	701	Sololá	1	Sololá	9	Septiembre	2023-09-27T00:00:00	2024-11-08T03:00:00	7	Dirección del viento	0
49607	7	Sololá	701	Sololá	1	Sololá	9	Septiembre	2023-09-27T00:00:00	2024-11-08T03:00:00	1	Precipitación	0
49608	7	Sololá	701	Sololá	1	Sololá	9	Septiembre	2023-09-27T00:00:00	2024-11-08T03:00:00	8	Radiación solar	0
49609	7	Sololá	701	Sololá	1	Sololá	9	Septiembre	2023-09-27T00:00:00	2024-11-08T04:00:00	2	Temperatura media	13.3
49610	7	Sololá	701	Sololá	1	Sololá	9	Septiembre	2023-09-27T00:00:00	2024-11-08T04:00:00	4	Temperatura máxima	13.4
49611	7	Sololá	701	Sololá	1	Sololá	9	Septiembre	2023-09-27T00:00:00	2024-11-08T04:00:00	3	Temperatura mínima	13.2
49612	7	Sololá	701	Sololá	1	Sololá	9	Septiembre	2023-09-27T00:00:00	2024-11-08T04:00:00	5	Humedad	96
49613	7	Sololá	701	Sololá	1	Sololá	9	Septiembre	2023-09-27T00:00:00	2024-11-08T04:00:00	6	Velocidad del viento	0
49614	7	Sololá	701	Sololá	1	Sololá	9	Septiembre	2023-09-27T00:00:00	2024-11-08T04:00:00	7	Dirección del viento	0
49615	7	Sololá	701	Sololá	1	Sololá	9	Septiembre	2023-09-27T00:00:00	2024-11-08T04:00:00	1	Precipitación	0
49616	7	Sololá	701	Sololá	1	Sololá	9	Septiembre	2023-09-27T00:00:00	2024-11-08T04:00:00	8	Radiación solar	0
49617	7	Sololá	701	Sololá	1	Sololá	9	Septiembre	2023-09-27T00:00:00	2024-11-08T05:00:00	2	Temperatura media	12.9
49618	7	Sololá	701	Sololá	1	Sololá	9	Septiembre	2023-09-27T00:00:00	2024-11-08T05:00:00	4	Temperatura máxima	13.4
49619	7	Sololá	701	Sololá	1	Sololá	9	Septiembre	2023-09-27T00:00:00	2024-11-08T05:00:00	3	Temperatura mínima	12.9
49620	7	Sololá	701	Sololá	1	Sololá	9	Septiembre	2023-09-27T00:00:00	2024-11-08T05:00:00	5	Humedad	96
49621	7	Sololá	701	Sololá	1	Sololá	9	Septiembre	2023-09-27T00:00:00	2024-11-08T05:00:00	6	Velocidad del viento	0
49622	7	Sololá	701	Sololá	1	Sololá	9	Septiembre	2023-09-27T00:00:00	2024-11-08T05:00:00	7	Dirección del viento	0
49623	7	Sololá	701	Sololá	1	Sololá	9	Septiembre	2023-09-27T00:00:00	2024-11-08T05:00:00	1	Precipitación	0
49624	7	Sololá	701	Sololá	1	Sololá	9	Septiembre	2023-09-27T00:00:00	2024-11-08T05:00:00	8	Radiación solar	0
49625	7	Sololá	701	Sololá	1	Sololá	9	Septiembre	2023-09-27T00:00:00	2024-11-08T06:00:00	2	Temperatura media	12.7
49626	7	Sololá	701	Sololá	1	Sololá	9	Septiembre	2023-09-27T00:00:00	2024-11-08T06:00:00	4	Temperatura máxima	12.9
49627	7	Sololá	701	Sololá	1	Sololá	9	Septiembre	2023-09-27T00:00:00	2024-11-08T06:00:00	3	Temperatura mínima	12.7
49628	7	Sololá	701	Sololá	1	Sololá	9	Septiembre	2023-09-27T00:00:00	2024-11-08T06:00:00	5	Humedad	96
49629	7	Sololá	701	Sololá	1	Sololá	9	Septiembre	2023-09-27T00:00:00	2024-11-08T06:00:00	6	Velocidad del viento	0
49630	7	Sololá	701	Sololá	1	Sololá	9	Septiembre	2023-09-27T00:00:00	2024-11-08T06:00:00	7	Dirección del viento	0
49631	7	Sololá	701	Sololá	1	Sololá	9	Septiembre	2023-09-27T00:00:00	2024-11-08T06:00:00	1	Precipitación	0
49632	7	Sololá	701	Sololá	1	Sololá	9	Septiembre	2023-09-27T00:00:00	2024-11-08T06:00:00	8	Radiación solar	0
49633	7	Sololá	701	Sololá	1	Sololá	9	Septiembre	2023-09-27T00:00:00	2024-11-08T07:00:00	2	Temperatura media	13.1
49634	7	Sololá	701	Sololá	1	Sololá	9	Septiembre	2023-09-27T00:00:00	2024-11-08T07:00:00	4	Temperatura máxima	13.1
49635	7	Sololá	701	Sololá	1	Sololá	9	Septiembre	2023-09-27T00:00:00	2024-11-08T07:00:00	3	Temperatura mínima	12.5
49636	7	Sololá	701	Sololá	1	Sololá	9	Septiembre	2023-09-27T00:00:00	2024-11-08T07:00:00	5	Humedad	96
49637	7	Sololá	701	Sololá	1	Sololá	9	Septiembre	2023-09-27T00:00:00	2024-11-08T07:00:00	6	Velocidad del viento	0
49638	7	Sololá	701	Sololá	1	Sololá	9	Septiembre	2023-09-27T00:00:00	2024-11-08T07:00:00	7	Dirección del viento	0
49639	7	Sololá	701	Sololá	1	Sololá	9	Septiembre	2023-09-27T00:00:00	2024-11-08T07:00:00	1	Precipitación	0
49640	7	Sololá	701	Sololá	1	Sololá	9	Septiembre	2023-09-27T00:00:00	2024-11-08T07:00:00	8	Radiación solar	16
49641	7	Sololá	701	Sololá	1	Sololá	9	Septiembre	2023-09-27T00:00:00	2024-11-08T08:00:00	2	Temperatura media	15.1
49642	7	Sololá	701	Sololá	1	Sololá	9	Septiembre	2023-09-27T00:00:00	2024-11-08T08:00:00	4	Temperatura máxima	15.1
49643	7	Sololá	701	Sololá	1	Sololá	9	Septiembre	2023-09-27T00:00:00	2024-11-08T08:00:00	3	Temperatura mínima	13.1
49644	7	Sololá	701	Sololá	1	Sololá	9	Septiembre	2023-09-27T00:00:00	2024-11-08T08:00:00	5	Humedad	95
49645	7	Sololá	701	Sololá	1	Sololá	9	Septiembre	2023-09-27T00:00:00	2024-11-08T08:00:00	6	Velocidad del viento	0
49646	7	Sololá	701	Sololá	1	Sololá	9	Septiembre	2023-09-27T00:00:00	2024-11-08T08:00:00	7	Dirección del viento	0
49647	7	Sololá	701	Sololá	1	Sololá	9	Septiembre	2023-09-27T00:00:00	2024-11-08T08:00:00	1	Precipitación	0
49648	7	Sololá	701	Sololá	1	Sololá	9	Septiembre	2023-09-27T00:00:00	2024-11-08T08:00:00	8	Radiación solar	99
49649	7	Sololá	701	Sololá	1	Sololá	9	Septiembre	2023-09-27T00:00:00	2024-11-08T09:00:00	2	Temperatura media	19.5
49650	7	Sololá	701	Sololá	1	Sololá	9	Septiembre	2023-09-27T00:00:00	2024-11-08T09:00:00	4	Temperatura máxima	19.5
49651	7	Sololá	701	Sololá	1	Sololá	9	Septiembre	2023-09-27T00:00:00	2024-11-08T09:00:00	3	Temperatura mínima	15.2
49652	7	Sololá	701	Sololá	1	Sololá	9	Septiembre	2023-09-27T00:00:00	2024-11-08T09:00:00	5	Humedad	76
49653	7	Sololá	701	Sololá	1	Sololá	9	Septiembre	2023-09-27T00:00:00	2024-11-08T09:00:00	6	Velocidad del viento	0
49654	7	Sololá	701	Sololá	1	Sololá	9	Septiembre	2023-09-27T00:00:00	2024-11-08T09:00:00	7	Dirección del viento	0
49655	7	Sololá	701	Sololá	1	Sololá	9	Septiembre	2023-09-27T00:00:00	2024-11-08T09:00:00	1	Precipitación	0
49656	7	Sololá	701	Sololá	1	Sololá	9	Septiembre	2023-09-27T00:00:00	2024-11-08T09:00:00	8	Radiación solar	450
49657	7	Sololá	701	Sololá	1	Sololá	9	Septiembre	2023-09-27T00:00:00	2024-11-08T10:00:00	2	Temperatura media	20.9
49658	7	Sololá	701	Sololá	1	Sololá	9	Septiembre	2023-09-27T00:00:00	2024-11-08T10:00:00	4	Temperatura máxima	20.9
49659	7	Sololá	701	Sololá	1	Sololá	9	Septiembre	2023-09-27T00:00:00	2024-11-08T10:00:00	3	Temperatura mínima	19.6
49660	7	Sololá	701	Sololá	1	Sololá	9	Septiembre	2023-09-27T00:00:00	2024-11-08T10:00:00	5	Humedad	74
49661	7	Sololá	701	Sololá	1	Sololá	9	Septiembre	2023-09-27T00:00:00	2024-11-08T10:00:00	6	Velocidad del viento	0
49662	7	Sololá	701	Sololá	1	Sololá	9	Septiembre	2023-09-27T00:00:00	2024-11-08T10:00:00	7	Dirección del viento	0
49663	7	Sololá	701	Sololá	1	Sololá	9	Septiembre	2023-09-27T00:00:00	2024-11-08T10:00:00	1	Precipitación	0
49664	7	Sololá	701	Sololá	1	Sololá	9	Septiembre	2023-09-27T00:00:00	2024-11-08T10:00:00	8	Radiación solar	622
49665	7	Sololá	701	Sololá	1	Sololá	9	Septiembre	2023-09-27T00:00:00	2024-11-08T11:00:00	2	Temperatura media	21.8
49666	7	Sololá	701	Sololá	1	Sololá	9	Septiembre	2023-09-27T00:00:00	2024-11-08T11:00:00	4	Temperatura máxima	21.8
49667	7	Sololá	701	Sololá	1	Sololá	9	Septiembre	2023-09-27T00:00:00	2024-11-08T11:00:00	3	Temperatura mínima	20.9
49668	7	Sololá	701	Sololá	1	Sololá	9	Septiembre	2023-09-27T00:00:00	2024-11-08T11:00:00	5	Humedad	71
49669	7	Sololá	701	Sololá	1	Sololá	9	Septiembre	2023-09-27T00:00:00	2024-11-08T11:00:00	6	Velocidad del viento	0
49670	7	Sololá	701	Sololá	1	Sololá	9	Septiembre	2023-09-27T00:00:00	2024-11-08T11:00:00	7	Dirección del viento	0
49671	7	Sololá	701	Sololá	1	Sololá	9	Septiembre	2023-09-27T00:00:00	2024-11-08T11:00:00	1	Precipitación	0
49672	7	Sololá	701	Sololá	1	Sololá	9	Septiembre	2023-09-27T00:00:00	2024-11-08T11:00:00	8	Radiación solar	823
49673	7	Sololá	701	Sololá	1	Sololá	9	Septiembre	2023-09-27T00:00:00	2024-11-08T12:00:00	2	Temperatura media	22.1
49674	7	Sololá	701	Sololá	1	Sololá	9	Septiembre	2023-09-27T00:00:00	2024-11-08T12:00:00	4	Temperatura máxima	22.1
49675	7	Sololá	701	Sololá	1	Sololá	9	Septiembre	2023-09-27T00:00:00	2024-11-08T12:00:00	3	Temperatura mínima	21.7
49676	7	Sololá	701	Sololá	1	Sololá	9	Septiembre	2023-09-27T00:00:00	2024-11-08T12:00:00	5	Humedad	72
49677	7	Sololá	701	Sololá	1	Sololá	9	Septiembre	2023-09-27T00:00:00	2024-11-08T12:00:00	6	Velocidad del viento	0
49678	7	Sololá	701	Sololá	1	Sololá	9	Septiembre	2023-09-27T00:00:00	2024-11-08T12:00:00	7	Dirección del viento	0
49679	7	Sololá	701	Sololá	1	Sololá	9	Septiembre	2023-09-27T00:00:00	2024-11-08T12:00:00	1	Precipitación	0
49680	7	Sololá	701	Sololá	1	Sololá	9	Septiembre	2023-09-27T00:00:00	2024-11-08T12:00:00	8	Radiación solar	629
49681	7	Sololá	701	Sololá	1	Sololá	9	Septiembre	2023-09-27T00:00:00	2024-11-08T13:00:00	2	Temperatura media	22.6
49682	7	Sololá	701	Sololá	1	Sololá	9	Septiembre	2023-09-27T00:00:00	2024-11-08T13:00:00	4	Temperatura máxima	22.7
49683	7	Sololá	701	Sololá	1	Sololá	9	Septiembre	2023-09-27T00:00:00	2024-11-08T13:00:00	3	Temperatura mínima	22.1
49684	7	Sololá	701	Sololá	1	Sololá	9	Septiembre	2023-09-27T00:00:00	2024-11-08T13:00:00	5	Humedad	78
49685	7	Sololá	701	Sololá	1	Sololá	9	Septiembre	2023-09-27T00:00:00	2024-11-08T13:00:00	6	Velocidad del viento	0
49686	7	Sololá	701	Sololá	1	Sololá	9	Septiembre	2023-09-27T00:00:00	2024-11-08T13:00:00	7	Dirección del viento	0
49687	7	Sololá	701	Sololá	1	Sololá	9	Septiembre	2023-09-27T00:00:00	2024-11-08T13:00:00	1	Precipitación	0
49688	7	Sololá	701	Sololá	1	Sololá	9	Septiembre	2023-09-27T00:00:00	2024-11-08T13:00:00	8	Radiación solar	285
49689	7	Sololá	701	Sololá	1	Sololá	9	Septiembre	2023-09-27T00:00:00	2024-11-08T14:00:00	2	Temperatura media	20.9
49690	7	Sololá	701	Sololá	1	Sololá	9	Septiembre	2023-09-27T00:00:00	2024-11-08T14:00:00	4	Temperatura máxima	22.6
49691	7	Sololá	701	Sololá	1	Sololá	9	Septiembre	2023-09-27T00:00:00	2024-11-08T14:00:00	3	Temperatura mínima	20.9
49692	7	Sololá	701	Sololá	1	Sololá	9	Septiembre	2023-09-27T00:00:00	2024-11-08T14:00:00	5	Humedad	85
49693	7	Sololá	701	Sololá	1	Sololá	9	Septiembre	2023-09-27T00:00:00	2024-11-08T14:00:00	6	Velocidad del viento	0
49694	7	Sololá	701	Sololá	1	Sololá	9	Septiembre	2023-09-27T00:00:00	2024-11-08T14:00:00	7	Dirección del viento	0
49695	7	Sololá	701	Sololá	1	Sololá	9	Septiembre	2023-09-27T00:00:00	2024-11-08T14:00:00	1	Precipitación	0
49696	7	Sololá	701	Sololá	1	Sololá	9	Septiembre	2023-09-27T00:00:00	2024-11-08T14:00:00	8	Radiación solar	206
49697	7	Sololá	701	Sololá	1	Sololá	9	Septiembre	2023-09-27T00:00:00	2024-11-08T15:00:00	2	Temperatura media	18.3
49698	7	Sololá	701	Sololá	1	Sololá	9	Septiembre	2023-09-27T00:00:00	2024-11-08T15:00:00	4	Temperatura máxima	20.9
49699	7	Sololá	701	Sololá	1	Sololá	9	Septiembre	2023-09-27T00:00:00	2024-11-08T15:00:00	3	Temperatura mínima	18.3
49700	7	Sololá	701	Sololá	1	Sololá	9	Septiembre	2023-09-27T00:00:00	2024-11-08T15:00:00	5	Humedad	91
49701	7	Sololá	701	Sololá	1	Sololá	9	Septiembre	2023-09-27T00:00:00	2024-11-08T15:00:00	6	Velocidad del viento	0
49702	7	Sololá	701	Sololá	1	Sololá	9	Septiembre	2023-09-27T00:00:00	2024-11-08T15:00:00	7	Dirección del viento	0
49703	7	Sololá	701	Sololá	1	Sololá	9	Septiembre	2023-09-27T00:00:00	2024-11-08T15:00:00	1	Precipitación	0.2
49704	7	Sololá	701	Sololá	1	Sololá	9	Septiembre	2023-09-27T00:00:00	2024-11-08T15:00:00	8	Radiación solar	13
49705	7	Sololá	701	Sololá	1	Sololá	9	Septiembre	2023-09-27T00:00:00	2024-11-08T16:00:00	2	Temperatura media	16.8
49706	7	Sololá	701	Sololá	1	Sololá	9	Septiembre	2023-09-27T00:00:00	2024-11-08T16:00:00	4	Temperatura máxima	18.3
49707	7	Sololá	701	Sololá	1	Sololá	9	Septiembre	2023-09-27T00:00:00	2024-11-08T16:00:00	3	Temperatura mínima	16.8
49708	7	Sololá	701	Sololá	1	Sololá	9	Septiembre	2023-09-27T00:00:00	2024-11-08T16:00:00	5	Humedad	94
49709	7	Sololá	701	Sololá	1	Sololá	9	Septiembre	2023-09-27T00:00:00	2024-11-08T16:00:00	6	Velocidad del viento	0
49710	7	Sololá	701	Sololá	1	Sololá	9	Septiembre	2023-09-27T00:00:00	2024-11-08T16:00:00	7	Dirección del viento	0
49711	7	Sololá	701	Sololá	1	Sololá	9	Septiembre	2023-09-27T00:00:00	2024-11-08T16:00:00	1	Precipitación	1.6
49712	7	Sololá	701	Sololá	1	Sololá	9	Septiembre	2023-09-27T00:00:00	2024-11-08T16:00:00	8	Radiación solar	3
49713	7	Sololá	701	Sololá	1	Sololá	9	Septiembre	2023-09-27T00:00:00	2024-11-08T17:00:00	2	Temperatura media	16.5
49714	7	Sololá	701	Sololá	1	Sololá	9	Septiembre	2023-09-27T00:00:00	2024-11-08T17:00:00	4	Temperatura máxima	16.8
49715	7	Sololá	701	Sololá	1	Sololá	9	Septiembre	2023-09-27T00:00:00	2024-11-08T17:00:00	3	Temperatura mínima	16.5
49716	7	Sololá	701	Sololá	1	Sololá	9	Septiembre	2023-09-27T00:00:00	2024-11-08T17:00:00	5	Humedad	95
49717	7	Sololá	701	Sololá	1	Sololá	9	Septiembre	2023-09-27T00:00:00	2024-11-08T17:00:00	6	Velocidad del viento	0
49718	7	Sololá	701	Sololá	1	Sololá	9	Septiembre	2023-09-27T00:00:00	2024-11-08T17:00:00	7	Dirección del viento	0
49719	7	Sololá	701	Sololá	1	Sololá	9	Septiembre	2023-09-27T00:00:00	2024-11-08T17:00:00	1	Precipitación	2.6
49720	7	Sololá	701	Sololá	1	Sololá	9	Septiembre	2023-09-27T00:00:00	2024-11-08T17:00:00	8	Radiación solar	8
49721	7	Sololá	701	Sololá	1	Sololá	9	Septiembre	2023-09-27T00:00:00	2024-11-08T18:00:00	2	Temperatura media	16.3
49722	7	Sololá	701	Sololá	1	Sololá	9	Septiembre	2023-09-27T00:00:00	2024-11-08T18:00:00	4	Temperatura máxima	16.5
49723	7	Sololá	701	Sololá	1	Sololá	9	Septiembre	2023-09-27T00:00:00	2024-11-08T18:00:00	3	Temperatura mínima	16.2
49724	7	Sololá	701	Sololá	1	Sololá	9	Septiembre	2023-09-27T00:00:00	2024-11-08T18:00:00	5	Humedad	94
49725	7	Sololá	701	Sololá	1	Sololá	9	Septiembre	2023-09-27T00:00:00	2024-11-08T18:00:00	6	Velocidad del viento	0
49726	7	Sololá	701	Sololá	1	Sololá	9	Septiembre	2023-09-27T00:00:00	2024-11-08T18:00:00	7	Dirección del viento	0
49727	7	Sololá	701	Sololá	1	Sololá	9	Septiembre	2023-09-27T00:00:00	2024-11-08T18:00:00	1	Precipitación	0.6
49728	7	Sololá	701	Sololá	1	Sololá	9	Septiembre	2023-09-27T00:00:00	2024-11-08T18:00:00	8	Radiación solar	0
49729	7	Sololá	701	Sololá	1	Sololá	9	Septiembre	2023-09-27T00:00:00	2024-11-08T19:00:00	2	Temperatura media	16.1
49730	7	Sololá	701	Sololá	1	Sololá	9	Septiembre	2023-09-27T00:00:00	2024-11-08T19:00:00	4	Temperatura máxima	16.3
49731	7	Sololá	701	Sololá	1	Sololá	9	Septiembre	2023-09-27T00:00:00	2024-11-08T19:00:00	3	Temperatura mínima	16
49732	7	Sololá	701	Sololá	1	Sololá	9	Septiembre	2023-09-27T00:00:00	2024-11-08T19:00:00	5	Humedad	95
49733	7	Sololá	701	Sololá	1	Sololá	9	Septiembre	2023-09-27T00:00:00	2024-11-08T19:00:00	6	Velocidad del viento	0
49734	7	Sololá	701	Sololá	1	Sololá	9	Septiembre	2023-09-27T00:00:00	2024-11-08T19:00:00	7	Dirección del viento	0
49735	7	Sololá	701	Sololá	1	Sololá	9	Septiembre	2023-09-27T00:00:00	2024-11-08T19:00:00	1	Precipitación	2
49736	7	Sololá	701	Sololá	1	Sololá	9	Septiembre	2023-09-27T00:00:00	2024-11-08T19:00:00	8	Radiación solar	0
49737	7	Sololá	701	Sololá	1	Sololá	9	Septiembre	2023-09-27T00:00:00	2024-11-08T20:00:00	2	Temperatura media	15.8
49738	7	Sololá	701	Sololá	1	Sololá	9	Septiembre	2023-09-27T00:00:00	2024-11-08T20:00:00	4	Temperatura máxima	16.2
49739	7	Sololá	701	Sololá	1	Sololá	9	Septiembre	2023-09-27T00:00:00	2024-11-08T20:00:00	3	Temperatura mínima	15.8
49740	7	Sololá	701	Sololá	1	Sololá	9	Septiembre	2023-09-27T00:00:00	2024-11-08T20:00:00	5	Humedad	95
49741	7	Sololá	701	Sololá	1	Sololá	9	Septiembre	2023-09-27T00:00:00	2024-11-08T20:00:00	6	Velocidad del viento	0
49742	7	Sololá	701	Sololá	1	Sololá	9	Septiembre	2023-09-27T00:00:00	2024-11-08T20:00:00	7	Dirección del viento	0
49743	7	Sololá	701	Sololá	1	Sololá	9	Septiembre	2023-09-27T00:00:00	2024-11-08T20:00:00	1	Precipitación	2.6
49744	7	Sololá	701	Sololá	1	Sololá	9	Septiembre	2023-09-27T00:00:00	2024-11-08T20:00:00	8	Radiación solar	0
49745	7	Sololá	701	Sololá	1	Sololá	9	Septiembre	2023-09-27T00:00:00	2024-11-08T21:00:00	2	Temperatura media	14.9
49746	7	Sololá	701	Sololá	1	Sololá	9	Septiembre	2023-09-27T00:00:00	2024-11-08T21:00:00	4	Temperatura máxima	15.8
49747	7	Sololá	701	Sololá	1	Sololá	9	Septiembre	2023-09-27T00:00:00	2024-11-08T21:00:00	3	Temperatura mínima	14.9
49748	7	Sololá	701	Sololá	1	Sololá	9	Septiembre	2023-09-27T00:00:00	2024-11-08T21:00:00	5	Humedad	95
49749	7	Sololá	701	Sololá	1	Sololá	9	Septiembre	2023-09-27T00:00:00	2024-11-08T21:00:00	6	Velocidad del viento	0
49750	7	Sololá	701	Sololá	1	Sololá	9	Septiembre	2023-09-27T00:00:00	2024-11-08T21:00:00	7	Dirección del viento	0
49751	7	Sololá	701	Sololá	1	Sololá	9	Septiembre	2023-09-27T00:00:00	2024-11-08T21:00:00	1	Precipitación	0.6
49752	7	Sololá	701	Sololá	1	Sololá	9	Septiembre	2023-09-27T00:00:00	2024-11-08T21:00:00	8	Radiación solar	0
49753	7	Sololá	701	Sololá	1	Sololá	9	Septiembre	2023-09-27T00:00:00	2024-11-08T22:00:00	2	Temperatura media	14.8
49754	7	Sololá	701	Sololá	1	Sololá	9	Septiembre	2023-09-27T00:00:00	2024-11-08T22:00:00	4	Temperatura máxima	14.9
49755	7	Sololá	701	Sololá	1	Sololá	9	Septiembre	2023-09-27T00:00:00	2024-11-08T22:00:00	3	Temperatura mínima	14.8
49756	7	Sololá	701	Sololá	1	Sololá	9	Septiembre	2023-09-27T00:00:00	2024-11-08T22:00:00	5	Humedad	95
49757	7	Sololá	701	Sololá	1	Sololá	9	Septiembre	2023-09-27T00:00:00	2024-11-08T22:00:00	6	Velocidad del viento	0
49758	7	Sololá	701	Sololá	1	Sololá	9	Septiembre	2023-09-27T00:00:00	2024-11-08T22:00:00	7	Dirección del viento	0
49759	7	Sololá	701	Sololá	1	Sololá	9	Septiembre	2023-09-27T00:00:00	2024-11-08T22:00:00	1	Precipitación	0.2
49760	7	Sololá	701	Sololá	1	Sololá	9	Septiembre	2023-09-27T00:00:00	2024-11-08T22:00:00	8	Radiación solar	0
49761	7	Sololá	701	Sololá	1	Sololá	9	Septiembre	2023-09-27T00:00:00	2024-11-08T23:00:00	2	Temperatura media	14.7
49762	7	Sololá	701	Sololá	1	Sololá	9	Septiembre	2023-09-27T00:00:00	2024-11-08T23:00:00	4	Temperatura máxima	14.8
49763	7	Sololá	701	Sololá	1	Sololá	9	Septiembre	2023-09-27T00:00:00	2024-11-08T23:00:00	3	Temperatura mínima	14.7
49764	7	Sololá	701	Sololá	1	Sololá	9	Septiembre	2023-09-27T00:00:00	2024-11-08T23:00:00	5	Humedad	95
49765	7	Sololá	701	Sololá	1	Sololá	9	Septiembre	2023-09-27T00:00:00	2024-11-08T23:00:00	6	Velocidad del viento	0
49766	7	Sololá	701	Sololá	1	Sololá	9	Septiembre	2023-09-27T00:00:00	2024-11-08T23:00:00	7	Dirección del viento	0
49767	7	Sololá	701	Sololá	1	Sololá	9	Septiembre	2023-09-27T00:00:00	2024-11-08T23:00:00	1	Precipitación	0
49768	7	Sololá	701	Sololá	1	Sololá	9	Septiembre	2023-09-27T00:00:00	2024-11-08T23:00:00	8	Radiación solar	0
49769	7	Sololá	701	Sololá	1	Sololá	9	Septiembre	2023-09-28T00:00:00	2024-11-08T00:00:00	2	Temperatura media	14.7
49770	7	Sololá	701	Sololá	1	Sololá	9	Septiembre	2023-09-28T00:00:00	2024-11-08T00:00:00	4	Temperatura máxima	14.7
49771	7	Sololá	701	Sololá	1	Sololá	9	Septiembre	2023-09-28T00:00:00	2024-11-08T00:00:00	3	Temperatura mínima	14.6
49772	7	Sololá	701	Sololá	1	Sololá	9	Septiembre	2023-09-28T00:00:00	2024-11-08T00:00:00	5	Humedad	95
49773	7	Sololá	701	Sololá	1	Sololá	9	Septiembre	2023-09-28T00:00:00	2024-11-08T00:00:00	6	Velocidad del viento	0
49774	7	Sololá	701	Sololá	1	Sololá	9	Septiembre	2023-09-28T00:00:00	2024-11-08T00:00:00	7	Dirección del viento	0
49775	7	Sololá	701	Sololá	1	Sololá	9	Septiembre	2023-09-28T00:00:00	2024-11-08T00:00:00	1	Precipitación	0.2
49776	7	Sololá	701	Sololá	1	Sololá	9	Septiembre	2023-09-28T00:00:00	2024-11-08T00:00:00	8	Radiación solar	0
49777	7	Sololá	701	Sololá	1	Sololá	9	Septiembre	2023-09-28T00:00:00	2024-11-08T01:00:00	2	Temperatura media	14.7
49778	7	Sololá	701	Sololá	1	Sololá	9	Septiembre	2023-09-28T00:00:00	2024-11-08T01:00:00	4	Temperatura máxima	14.8
49779	7	Sololá	701	Sololá	1	Sololá	9	Septiembre	2023-09-28T00:00:00	2024-11-08T01:00:00	3	Temperatura mínima	14.7
49780	7	Sololá	701	Sololá	1	Sololá	9	Septiembre	2023-09-28T00:00:00	2024-11-08T01:00:00	5	Humedad	95
49781	7	Sololá	701	Sololá	1	Sololá	9	Septiembre	2023-09-28T00:00:00	2024-11-08T01:00:00	6	Velocidad del viento	0
49782	7	Sololá	701	Sololá	1	Sololá	9	Septiembre	2023-09-28T00:00:00	2024-11-08T01:00:00	7	Dirección del viento	0
49783	7	Sololá	701	Sololá	1	Sololá	9	Septiembre	2023-09-28T00:00:00	2024-11-08T01:00:00	1	Precipitación	0
49784	7	Sololá	701	Sololá	1	Sololá	9	Septiembre	2023-09-28T00:00:00	2024-11-08T01:00:00	8	Radiación solar	0
49785	7	Sololá	701	Sololá	1	Sololá	9	Septiembre	2023-09-28T00:00:00	2024-11-08T02:00:00	2	Temperatura media	14.5
49786	7	Sololá	701	Sololá	1	Sololá	9	Septiembre	2023-09-28T00:00:00	2024-11-08T02:00:00	4	Temperatura máxima	14.7
49787	7	Sololá	701	Sololá	1	Sololá	9	Septiembre	2023-09-28T00:00:00	2024-11-08T02:00:00	3	Temperatura mínima	14.4
49788	7	Sololá	701	Sololá	1	Sololá	9	Septiembre	2023-09-28T00:00:00	2024-11-08T02:00:00	5	Humedad	94
49789	7	Sololá	701	Sololá	1	Sololá	9	Septiembre	2023-09-28T00:00:00	2024-11-08T02:00:00	6	Velocidad del viento	0
49790	7	Sololá	701	Sololá	1	Sololá	9	Septiembre	2023-09-28T00:00:00	2024-11-08T02:00:00	7	Dirección del viento	0
49791	7	Sololá	701	Sololá	1	Sololá	9	Septiembre	2023-09-28T00:00:00	2024-11-08T02:00:00	1	Precipitación	0
49792	7	Sololá	701	Sololá	1	Sololá	9	Septiembre	2023-09-28T00:00:00	2024-11-08T02:00:00	8	Radiación solar	0
49793	7	Sololá	701	Sololá	1	Sololá	9	Septiembre	2023-09-28T00:00:00	2024-11-08T03:00:00	2	Temperatura media	14.4
49794	7	Sololá	701	Sololá	1	Sololá	9	Septiembre	2023-09-28T00:00:00	2024-11-08T03:00:00	4	Temperatura máxima	14.5
49795	7	Sololá	701	Sololá	1	Sololá	9	Septiembre	2023-09-28T00:00:00	2024-11-08T03:00:00	3	Temperatura mínima	14.3
49796	7	Sololá	701	Sololá	1	Sololá	9	Septiembre	2023-09-28T00:00:00	2024-11-08T03:00:00	5	Humedad	95
49797	7	Sololá	701	Sololá	1	Sololá	9	Septiembre	2023-09-28T00:00:00	2024-11-08T03:00:00	6	Velocidad del viento	0
49798	7	Sololá	701	Sololá	1	Sololá	9	Septiembre	2023-09-28T00:00:00	2024-11-08T03:00:00	7	Dirección del viento	0
49799	7	Sololá	701	Sololá	1	Sololá	9	Septiembre	2023-09-28T00:00:00	2024-11-08T03:00:00	1	Precipitación	0
49800	7	Sololá	701	Sololá	1	Sololá	9	Septiembre	2023-09-28T00:00:00	2024-11-08T03:00:00	8	Radiación solar	0
49801	7	Sololá	701	Sololá	1	Sololá	9	Septiembre	2023-09-28T00:00:00	2024-11-08T04:00:00	2	Temperatura media	14.2
49802	7	Sololá	701	Sololá	1	Sololá	9	Septiembre	2023-09-28T00:00:00	2024-11-08T04:00:00	4	Temperatura máxima	14.4
49803	7	Sololá	701	Sololá	1	Sololá	9	Septiembre	2023-09-28T00:00:00	2024-11-08T04:00:00	3	Temperatura mínima	14.2
49804	7	Sololá	701	Sololá	1	Sololá	9	Septiembre	2023-09-28T00:00:00	2024-11-08T04:00:00	5	Humedad	95
49805	7	Sololá	701	Sololá	1	Sololá	9	Septiembre	2023-09-28T00:00:00	2024-11-08T04:00:00	6	Velocidad del viento	0
49806	7	Sololá	701	Sololá	1	Sololá	9	Septiembre	2023-09-28T00:00:00	2024-11-08T04:00:00	7	Dirección del viento	0
49807	7	Sololá	701	Sololá	1	Sololá	9	Septiembre	2023-09-28T00:00:00	2024-11-08T04:00:00	1	Precipitación	0
49808	7	Sololá	701	Sololá	1	Sololá	9	Septiembre	2023-09-28T00:00:00	2024-11-08T04:00:00	8	Radiación solar	0
49809	7	Sololá	701	Sololá	1	Sololá	9	Septiembre	2023-09-28T00:00:00	2024-11-08T05:00:00	2	Temperatura media	13.8
49810	7	Sololá	701	Sololá	1	Sololá	9	Septiembre	2023-09-28T00:00:00	2024-11-08T05:00:00	4	Temperatura máxima	14.2
49811	7	Sololá	701	Sololá	1	Sololá	9	Septiembre	2023-09-28T00:00:00	2024-11-08T05:00:00	3	Temperatura mínima	13.8
49812	7	Sololá	701	Sololá	1	Sololá	9	Septiembre	2023-09-28T00:00:00	2024-11-08T05:00:00	5	Humedad	94
49813	7	Sololá	701	Sololá	1	Sololá	9	Septiembre	2023-09-28T00:00:00	2024-11-08T05:00:00	6	Velocidad del viento	0
49814	7	Sololá	701	Sololá	1	Sololá	9	Septiembre	2023-09-28T00:00:00	2024-11-08T05:00:00	7	Dirección del viento	0
49815	7	Sololá	701	Sololá	1	Sololá	9	Septiembre	2023-09-28T00:00:00	2024-11-08T05:00:00	1	Precipitación	0
49816	7	Sololá	701	Sololá	1	Sololá	9	Septiembre	2023-09-28T00:00:00	2024-11-08T05:00:00	8	Radiación solar	0
49817	7	Sololá	701	Sololá	1	Sololá	9	Septiembre	2023-09-28T00:00:00	2024-11-08T06:00:00	2	Temperatura media	13.6
49818	7	Sololá	701	Sololá	1	Sololá	9	Septiembre	2023-09-28T00:00:00	2024-11-08T06:00:00	4	Temperatura máxima	13.8
49819	7	Sololá	701	Sololá	1	Sololá	9	Septiembre	2023-09-28T00:00:00	2024-11-08T06:00:00	3	Temperatura mínima	13.6
49820	7	Sololá	701	Sololá	1	Sololá	9	Septiembre	2023-09-28T00:00:00	2024-11-08T06:00:00	5	Humedad	94
49821	7	Sololá	701	Sololá	1	Sololá	9	Septiembre	2023-09-28T00:00:00	2024-11-08T06:00:00	6	Velocidad del viento	0
49822	7	Sololá	701	Sololá	1	Sololá	9	Septiembre	2023-09-28T00:00:00	2024-11-08T06:00:00	7	Dirección del viento	0
49823	7	Sololá	701	Sololá	1	Sololá	9	Septiembre	2023-09-28T00:00:00	2024-11-08T06:00:00	1	Precipitación	0
49824	7	Sololá	701	Sololá	1	Sololá	9	Septiembre	2023-09-28T00:00:00	2024-11-08T06:00:00	8	Radiación solar	0
49825	7	Sololá	701	Sololá	1	Sololá	9	Septiembre	2023-09-28T00:00:00	2024-11-08T07:00:00	2	Temperatura media	14
49826	7	Sololá	701	Sololá	1	Sololá	9	Septiembre	2023-09-28T00:00:00	2024-11-08T07:00:00	4	Temperatura máxima	14
49827	7	Sololá	701	Sololá	1	Sololá	9	Septiembre	2023-09-28T00:00:00	2024-11-08T07:00:00	3	Temperatura mínima	13.6
49828	7	Sololá	701	Sololá	1	Sololá	9	Septiembre	2023-09-28T00:00:00	2024-11-08T07:00:00	5	Humedad	93
49829	7	Sololá	701	Sololá	1	Sololá	9	Septiembre	2023-09-28T00:00:00	2024-11-08T07:00:00	6	Velocidad del viento	0
49830	7	Sololá	701	Sololá	1	Sololá	9	Septiembre	2023-09-28T00:00:00	2024-11-08T07:00:00	7	Dirección del viento	0
49831	7	Sololá	701	Sololá	1	Sololá	9	Septiembre	2023-09-28T00:00:00	2024-11-08T07:00:00	1	Precipitación	0
49832	7	Sololá	701	Sololá	1	Sololá	9	Septiembre	2023-09-28T00:00:00	2024-11-08T07:00:00	8	Radiación solar	17
49833	7	Sololá	701	Sololá	1	Sololá	9	Septiembre	2023-09-28T00:00:00	2024-11-08T08:00:00	2	Temperatura media	16.8
49834	7	Sololá	701	Sololá	1	Sololá	9	Septiembre	2023-09-28T00:00:00	2024-11-08T08:00:00	4	Temperatura máxima	16.8
49835	7	Sololá	701	Sololá	1	Sololá	9	Septiembre	2023-09-28T00:00:00	2024-11-08T08:00:00	3	Temperatura mínima	14
49836	7	Sololá	701	Sololá	1	Sololá	9	Septiembre	2023-09-28T00:00:00	2024-11-08T08:00:00	5	Humedad	88
49837	7	Sololá	701	Sololá	1	Sololá	9	Septiembre	2023-09-28T00:00:00	2024-11-08T08:00:00	6	Velocidad del viento	0
49838	7	Sololá	701	Sololá	1	Sololá	9	Septiembre	2023-09-28T00:00:00	2024-11-08T08:00:00	7	Dirección del viento	0
49839	7	Sololá	701	Sololá	1	Sololá	9	Septiembre	2023-09-28T00:00:00	2024-11-08T08:00:00	1	Precipitación	0
49840	7	Sololá	701	Sololá	1	Sololá	9	Septiembre	2023-09-28T00:00:00	2024-11-08T08:00:00	8	Radiación solar	111
49841	7	Sololá	701	Sololá	1	Sololá	9	Septiembre	2023-09-28T00:00:00	2024-11-08T09:00:00	2	Temperatura media	21.3
49842	7	Sololá	701	Sololá	1	Sololá	9	Septiembre	2023-09-28T00:00:00	2024-11-08T09:00:00	4	Temperatura máxima	21.3
49843	7	Sololá	701	Sololá	1	Sololá	9	Septiembre	2023-09-28T00:00:00	2024-11-08T09:00:00	3	Temperatura mínima	16.8
49844	7	Sololá	701	Sololá	1	Sololá	9	Septiembre	2023-09-28T00:00:00	2024-11-08T09:00:00	5	Humedad	76
49845	7	Sololá	701	Sololá	1	Sololá	9	Septiembre	2023-09-28T00:00:00	2024-11-08T09:00:00	6	Velocidad del viento	0
49846	7	Sololá	701	Sololá	1	Sololá	9	Septiembre	2023-09-28T00:00:00	2024-11-08T09:00:00	7	Dirección del viento	0
49847	7	Sololá	701	Sololá	1	Sololá	9	Septiembre	2023-09-28T00:00:00	2024-11-08T09:00:00	1	Precipitación	0
49848	7	Sololá	701	Sololá	1	Sololá	9	Septiembre	2023-09-28T00:00:00	2024-11-08T09:00:00	8	Radiación solar	571
49849	7	Sololá	701	Sololá	1	Sololá	9	Septiembre	2023-09-28T00:00:00	2024-11-08T10:00:00	2	Temperatura media	22.5
49850	7	Sololá	701	Sololá	1	Sololá	9	Septiembre	2023-09-28T00:00:00	2024-11-08T10:00:00	4	Temperatura máxima	22.5
49851	7	Sololá	701	Sololá	1	Sololá	9	Septiembre	2023-09-28T00:00:00	2024-11-08T10:00:00	3	Temperatura mínima	21.3
49852	7	Sololá	701	Sololá	1	Sololá	9	Septiembre	2023-09-28T00:00:00	2024-11-08T10:00:00	5	Humedad	70
49853	7	Sololá	701	Sololá	1	Sololá	9	Septiembre	2023-09-28T00:00:00	2024-11-08T10:00:00	6	Velocidad del viento	0
49854	7	Sololá	701	Sololá	1	Sololá	9	Septiembre	2023-09-28T00:00:00	2024-11-08T10:00:00	7	Dirección del viento	0
49855	7	Sololá	701	Sololá	1	Sololá	9	Septiembre	2023-09-28T00:00:00	2024-11-08T10:00:00	1	Precipitación	0
49856	7	Sololá	701	Sololá	1	Sololá	9	Septiembre	2023-09-28T00:00:00	2024-11-08T10:00:00	8	Radiación solar	718
49857	7	Sololá	701	Sololá	1	Sololá	9	Septiembre	2023-09-28T00:00:00	2024-11-08T11:00:00	2	Temperatura media	21.8
49858	7	Sololá	701	Sololá	1	Sololá	9	Septiembre	2023-09-28T00:00:00	2024-11-08T11:00:00	4	Temperatura máxima	22.6
49859	7	Sololá	701	Sololá	1	Sololá	9	Septiembre	2023-09-28T00:00:00	2024-11-08T11:00:00	3	Temperatura mínima	21.8
49860	7	Sololá	701	Sololá	1	Sololá	9	Septiembre	2023-09-28T00:00:00	2024-11-08T11:00:00	5	Humedad	81
49861	7	Sololá	701	Sololá	1	Sololá	9	Septiembre	2023-09-28T00:00:00	2024-11-08T11:00:00	6	Velocidad del viento	0
49862	7	Sololá	701	Sololá	1	Sololá	9	Septiembre	2023-09-28T00:00:00	2024-11-08T11:00:00	7	Dirección del viento	0
49863	7	Sololá	701	Sololá	1	Sololá	9	Septiembre	2023-09-28T00:00:00	2024-11-08T11:00:00	1	Precipitación	0
49864	7	Sololá	701	Sololá	1	Sololá	9	Septiembre	2023-09-28T00:00:00	2024-11-08T11:00:00	8	Radiación solar	895
49865	7	Sololá	701	Sololá	1	Sololá	9	Septiembre	2023-09-28T00:00:00	2024-11-08T12:00:00	2	Temperatura media	21.7
49866	7	Sololá	701	Sololá	1	Sololá	9	Septiembre	2023-09-28T00:00:00	2024-11-08T12:00:00	4	Temperatura máxima	21.8
49867	7	Sololá	701	Sololá	1	Sololá	9	Septiembre	2023-09-28T00:00:00	2024-11-08T12:00:00	3	Temperatura mínima	21.4
49868	7	Sololá	701	Sololá	1	Sololá	9	Septiembre	2023-09-28T00:00:00	2024-11-08T12:00:00	5	Humedad	79
49869	7	Sololá	701	Sololá	1	Sololá	9	Septiembre	2023-09-28T00:00:00	2024-11-08T12:00:00	6	Velocidad del viento	0
49870	7	Sololá	701	Sololá	1	Sololá	9	Septiembre	2023-09-28T00:00:00	2024-11-08T12:00:00	7	Dirección del viento	0
49871	7	Sololá	701	Sololá	1	Sololá	9	Septiembre	2023-09-28T00:00:00	2024-11-08T12:00:00	1	Precipitación	0
49872	7	Sololá	701	Sololá	1	Sololá	9	Septiembre	2023-09-28T00:00:00	2024-11-08T12:00:00	8	Radiación solar	626
49873	7	Sololá	701	Sololá	1	Sololá	9	Septiembre	2023-09-28T00:00:00	2024-11-08T13:00:00	2	Temperatura media	22.3
49874	7	Sololá	701	Sololá	1	Sololá	9	Septiembre	2023-09-28T00:00:00	2024-11-08T13:00:00	4	Temperatura máxima	22.6
49875	7	Sololá	701	Sololá	1	Sololá	9	Septiembre	2023-09-28T00:00:00	2024-11-08T13:00:00	3	Temperatura mínima	21.7
49876	7	Sololá	701	Sololá	1	Sololá	9	Septiembre	2023-09-28T00:00:00	2024-11-08T13:00:00	5	Humedad	81
49877	7	Sololá	701	Sololá	1	Sololá	9	Septiembre	2023-09-28T00:00:00	2024-11-08T13:00:00	6	Velocidad del viento	0
49878	7	Sololá	701	Sololá	1	Sololá	9	Septiembre	2023-09-28T00:00:00	2024-11-08T13:00:00	7	Dirección del viento	0
49879	7	Sololá	701	Sololá	1	Sololá	9	Septiembre	2023-09-28T00:00:00	2024-11-08T13:00:00	1	Precipitación	0
49880	7	Sololá	701	Sololá	1	Sololá	9	Septiembre	2023-09-28T00:00:00	2024-11-08T13:00:00	8	Radiación solar	182
49881	7	Sololá	701	Sololá	1	Sololá	9	Septiembre	2023-09-28T00:00:00	2024-11-08T14:00:00	2	Temperatura media	20.6
49882	7	Sololá	701	Sololá	1	Sololá	9	Septiembre	2023-09-28T00:00:00	2024-11-08T14:00:00	4	Temperatura máxima	22.3
49883	7	Sololá	701	Sololá	1	Sololá	9	Septiembre	2023-09-28T00:00:00	2024-11-08T14:00:00	3	Temperatura mínima	20.6
49884	7	Sololá	701	Sololá	1	Sololá	9	Septiembre	2023-09-28T00:00:00	2024-11-08T14:00:00	5	Humedad	87
49885	7	Sololá	701	Sololá	1	Sololá	9	Septiembre	2023-09-28T00:00:00	2024-11-08T14:00:00	6	Velocidad del viento	0
49886	7	Sololá	701	Sololá	1	Sololá	9	Septiembre	2023-09-28T00:00:00	2024-11-08T14:00:00	7	Dirección del viento	0
49887	7	Sololá	701	Sololá	1	Sololá	9	Septiembre	2023-09-28T00:00:00	2024-11-08T14:00:00	1	Precipitación	0
49888	7	Sololá	701	Sololá	1	Sololá	9	Septiembre	2023-09-28T00:00:00	2024-11-08T14:00:00	8	Radiación solar	116
49889	7	Sololá	701	Sololá	1	Sololá	9	Septiembre	2023-09-28T00:00:00	2024-11-08T15:00:00	2	Temperatura media	18.5
49890	7	Sololá	701	Sololá	1	Sololá	9	Septiembre	2023-09-28T00:00:00	2024-11-08T15:00:00	4	Temperatura máxima	20.6
49891	7	Sololá	701	Sololá	1	Sololá	9	Septiembre	2023-09-28T00:00:00	2024-11-08T15:00:00	3	Temperatura mínima	18.5
49892	7	Sololá	701	Sololá	1	Sololá	9	Septiembre	2023-09-28T00:00:00	2024-11-08T15:00:00	5	Humedad	90
49893	7	Sololá	701	Sololá	1	Sololá	9	Septiembre	2023-09-28T00:00:00	2024-11-08T15:00:00	6	Velocidad del viento	0
49894	7	Sololá	701	Sololá	1	Sololá	9	Septiembre	2023-09-28T00:00:00	2024-11-08T15:00:00	7	Dirección del viento	0
49895	7	Sololá	701	Sololá	1	Sololá	9	Septiembre	2023-09-28T00:00:00	2024-11-08T15:00:00	1	Precipitación	0.6
49896	7	Sololá	701	Sololá	1	Sololá	9	Septiembre	2023-09-28T00:00:00	2024-11-08T15:00:00	8	Radiación solar	34
49897	7	Sololá	701	Sololá	1	Sololá	9	Septiembre	2023-09-28T00:00:00	2024-11-08T16:00:00	2	Temperatura media	16.8
49898	7	Sololá	701	Sololá	1	Sololá	9	Septiembre	2023-09-28T00:00:00	2024-11-08T16:00:00	4	Temperatura máxima	18.5
49899	7	Sololá	701	Sololá	1	Sololá	9	Septiembre	2023-09-28T00:00:00	2024-11-08T16:00:00	3	Temperatura mínima	16.8
49900	7	Sololá	701	Sololá	1	Sololá	9	Septiembre	2023-09-28T00:00:00	2024-11-08T16:00:00	5	Humedad	94
49901	7	Sololá	701	Sololá	1	Sololá	9	Septiembre	2023-09-28T00:00:00	2024-11-08T16:00:00	6	Velocidad del viento	0
49902	7	Sololá	701	Sololá	1	Sololá	9	Septiembre	2023-09-28T00:00:00	2024-11-08T16:00:00	7	Dirección del viento	0
49903	7	Sololá	701	Sololá	1	Sololá	9	Septiembre	2023-09-28T00:00:00	2024-11-08T16:00:00	1	Precipitación	0.2
49904	7	Sololá	701	Sololá	1	Sololá	9	Septiembre	2023-09-28T00:00:00	2024-11-08T16:00:00	8	Radiación solar	1
49905	7	Sololá	701	Sololá	1	Sololá	9	Septiembre	2023-09-28T00:00:00	2024-11-08T17:00:00	2	Temperatura media	16.9
49906	7	Sololá	701	Sololá	1	Sololá	9	Septiembre	2023-09-28T00:00:00	2024-11-08T17:00:00	4	Temperatura máxima	17.1
49907	7	Sololá	701	Sololá	1	Sololá	9	Septiembre	2023-09-28T00:00:00	2024-11-08T17:00:00	3	Temperatura mínima	16.8
49908	7	Sololá	701	Sololá	1	Sololá	9	Septiembre	2023-09-28T00:00:00	2024-11-08T17:00:00	5	Humedad	95
49909	7	Sololá	701	Sololá	1	Sololá	9	Septiembre	2023-09-28T00:00:00	2024-11-08T17:00:00	6	Velocidad del viento	0
49910	7	Sololá	701	Sololá	1	Sololá	9	Septiembre	2023-09-28T00:00:00	2024-11-08T17:00:00	7	Dirección del viento	0
49911	7	Sololá	701	Sololá	1	Sololá	9	Septiembre	2023-09-28T00:00:00	2024-11-08T17:00:00	1	Precipitación	0
49912	7	Sololá	701	Sololá	1	Sololá	9	Septiembre	2023-09-28T00:00:00	2024-11-08T17:00:00	8	Radiación solar	2
49913	7	Sololá	701	Sololá	1	Sololá	9	Septiembre	2023-09-28T00:00:00	2024-11-08T18:00:00	2	Temperatura media	16.8
49914	7	Sololá	701	Sololá	1	Sololá	9	Septiembre	2023-09-28T00:00:00	2024-11-08T18:00:00	4	Temperatura máxima	16.9
49915	7	Sololá	701	Sololá	1	Sololá	9	Septiembre	2023-09-28T00:00:00	2024-11-08T18:00:00	3	Temperatura mínima	16.7
49916	7	Sololá	701	Sololá	1	Sololá	9	Septiembre	2023-09-28T00:00:00	2024-11-08T18:00:00	5	Humedad	95
49917	7	Sololá	701	Sololá	1	Sololá	9	Septiembre	2023-09-28T00:00:00	2024-11-08T18:00:00	6	Velocidad del viento	0
49918	7	Sololá	701	Sololá	1	Sololá	9	Septiembre	2023-09-28T00:00:00	2024-11-08T18:00:00	7	Dirección del viento	0
49919	7	Sololá	701	Sololá	1	Sololá	9	Septiembre	2023-09-28T00:00:00	2024-11-08T18:00:00	1	Precipitación	0.2
49920	7	Sololá	701	Sololá	1	Sololá	9	Septiembre	2023-09-28T00:00:00	2024-11-08T18:00:00	8	Radiación solar	0
49921	7	Sololá	701	Sololá	1	Sololá	9	Septiembre	2023-09-28T00:00:00	2024-11-08T19:00:00	2	Temperatura media	16.7
49922	7	Sololá	701	Sololá	1	Sololá	9	Septiembre	2023-09-28T00:00:00	2024-11-08T19:00:00	4	Temperatura máxima	16.8
49923	7	Sololá	701	Sololá	1	Sololá	9	Septiembre	2023-09-28T00:00:00	2024-11-08T19:00:00	3	Temperatura mínima	16.6
49924	7	Sololá	701	Sololá	1	Sololá	9	Septiembre	2023-09-28T00:00:00	2024-11-08T19:00:00	5	Humedad	95
49925	7	Sololá	701	Sololá	1	Sololá	9	Septiembre	2023-09-28T00:00:00	2024-11-08T19:00:00	6	Velocidad del viento	0
49926	7	Sololá	701	Sololá	1	Sololá	9	Septiembre	2023-09-28T00:00:00	2024-11-08T19:00:00	7	Dirección del viento	0
49927	7	Sololá	701	Sololá	1	Sololá	9	Septiembre	2023-09-28T00:00:00	2024-11-08T19:00:00	1	Precipitación	0
49928	7	Sololá	701	Sololá	1	Sololá	9	Septiembre	2023-09-28T00:00:00	2024-11-08T19:00:00	8	Radiación solar	0
49929	7	Sololá	701	Sololá	1	Sololá	9	Septiembre	2023-09-28T00:00:00	2024-11-08T20:00:00	2	Temperatura media	16.6
49930	7	Sololá	701	Sololá	1	Sololá	9	Septiembre	2023-09-28T00:00:00	2024-11-08T20:00:00	4	Temperatura máxima	16.7
49931	7	Sololá	701	Sololá	1	Sololá	9	Septiembre	2023-09-28T00:00:00	2024-11-08T20:00:00	3	Temperatura mínima	16.6
49932	7	Sololá	701	Sololá	1	Sololá	9	Septiembre	2023-09-28T00:00:00	2024-11-08T20:00:00	5	Humedad	95
49933	7	Sololá	701	Sololá	1	Sololá	9	Septiembre	2023-09-28T00:00:00	2024-11-08T20:00:00	6	Velocidad del viento	0
49934	7	Sololá	701	Sololá	1	Sololá	9	Septiembre	2023-09-28T00:00:00	2024-11-08T20:00:00	7	Dirección del viento	0
49935	7	Sololá	701	Sololá	1	Sololá	9	Septiembre	2023-09-28T00:00:00	2024-11-08T20:00:00	1	Precipitación	0
49936	7	Sololá	701	Sololá	1	Sololá	9	Septiembre	2023-09-28T00:00:00	2024-11-08T20:00:00	8	Radiación solar	0
49937	7	Sololá	701	Sololá	1	Sololá	9	Septiembre	2023-09-28T00:00:00	2024-11-08T21:00:00	2	Temperatura media	16.4
49938	7	Sololá	701	Sololá	1	Sololá	9	Septiembre	2023-09-28T00:00:00	2024-11-08T21:00:00	4	Temperatura máxima	16.6
49939	7	Sololá	701	Sololá	1	Sololá	9	Septiembre	2023-09-28T00:00:00	2024-11-08T21:00:00	3	Temperatura mínima	16.3
49940	7	Sololá	701	Sololá	1	Sololá	9	Septiembre	2023-09-28T00:00:00	2024-11-08T21:00:00	5	Humedad	95
49941	7	Sololá	701	Sololá	1	Sololá	9	Septiembre	2023-09-28T00:00:00	2024-11-08T21:00:00	6	Velocidad del viento	0
49942	7	Sololá	701	Sololá	1	Sololá	9	Septiembre	2023-09-28T00:00:00	2024-11-08T21:00:00	7	Dirección del viento	0
49943	7	Sololá	701	Sololá	1	Sololá	9	Septiembre	2023-09-28T00:00:00	2024-11-08T21:00:00	1	Precipitación	0
49944	7	Sololá	701	Sololá	1	Sololá	9	Septiembre	2023-09-28T00:00:00	2024-11-08T21:00:00	8	Radiación solar	0
49945	7	Sololá	701	Sololá	1	Sololá	9	Septiembre	2023-09-28T00:00:00	2024-11-08T22:00:00	2	Temperatura media	16.1
49946	7	Sololá	701	Sololá	1	Sololá	9	Septiembre	2023-09-28T00:00:00	2024-11-08T22:00:00	4	Temperatura máxima	16.4
49947	7	Sololá	701	Sololá	1	Sololá	9	Septiembre	2023-09-28T00:00:00	2024-11-08T22:00:00	3	Temperatura mínima	16.1
49948	7	Sololá	701	Sololá	1	Sololá	9	Septiembre	2023-09-28T00:00:00	2024-11-08T22:00:00	5	Humedad	95
49949	7	Sololá	701	Sololá	1	Sololá	9	Septiembre	2023-09-28T00:00:00	2024-11-08T22:00:00	6	Velocidad del viento	0
49950	7	Sololá	701	Sololá	1	Sololá	9	Septiembre	2023-09-28T00:00:00	2024-11-08T22:00:00	7	Dirección del viento	0
49951	7	Sololá	701	Sololá	1	Sololá	9	Septiembre	2023-09-28T00:00:00	2024-11-08T22:00:00	1	Precipitación	0
49952	7	Sololá	701	Sololá	1	Sololá	9	Septiembre	2023-09-28T00:00:00	2024-11-08T22:00:00	8	Radiación solar	0
49953	7	Sololá	701	Sololá	1	Sololá	9	Septiembre	2023-09-28T00:00:00	2024-11-08T23:00:00	2	Temperatura media	15.9
49954	7	Sololá	701	Sololá	1	Sololá	9	Septiembre	2023-09-28T00:00:00	2024-11-08T23:00:00	4	Temperatura máxima	16.1
49955	7	Sololá	701	Sololá	1	Sololá	9	Septiembre	2023-09-28T00:00:00	2024-11-08T23:00:00	3	Temperatura mínima	15.9
49956	7	Sololá	701	Sololá	1	Sololá	9	Septiembre	2023-09-28T00:00:00	2024-11-08T23:00:00	5	Humedad	95
49957	7	Sololá	701	Sololá	1	Sololá	9	Septiembre	2023-09-28T00:00:00	2024-11-08T23:00:00	6	Velocidad del viento	0
49958	7	Sololá	701	Sololá	1	Sololá	9	Septiembre	2023-09-28T00:00:00	2024-11-08T23:00:00	7	Dirección del viento	0
49959	7	Sololá	701	Sololá	1	Sololá	9	Septiembre	2023-09-28T00:00:00	2024-11-08T23:00:00	1	Precipitación	0.4
49960	7	Sololá	701	Sololá	1	Sololá	9	Septiembre	2023-09-28T00:00:00	2024-11-08T23:00:00	8	Radiación solar	0
49961	7	Sololá	701	Sololá	1	Sololá	9	Septiembre	2023-09-29T00:00:00	2024-11-08T00:00:00	2	Temperatura media	15.4
49962	7	Sololá	701	Sololá	1	Sololá	9	Septiembre	2023-09-29T00:00:00	2024-11-08T00:00:00	4	Temperatura máxima	15.9
49963	7	Sololá	701	Sololá	1	Sololá	9	Septiembre	2023-09-29T00:00:00	2024-11-08T00:00:00	3	Temperatura mínima	15.4
49964	7	Sololá	701	Sololá	1	Sololá	9	Septiembre	2023-09-29T00:00:00	2024-11-08T00:00:00	5	Humedad	95
49965	7	Sololá	701	Sololá	1	Sololá	9	Septiembre	2023-09-29T00:00:00	2024-11-08T00:00:00	6	Velocidad del viento	0
49966	7	Sololá	701	Sololá	1	Sololá	9	Septiembre	2023-09-29T00:00:00	2024-11-08T00:00:00	7	Dirección del viento	0
49967	7	Sololá	701	Sololá	1	Sololá	9	Septiembre	2023-09-29T00:00:00	2024-11-08T00:00:00	1	Precipitación	0.2
49968	7	Sololá	701	Sololá	1	Sololá	9	Septiembre	2023-09-29T00:00:00	2024-11-08T00:00:00	8	Radiación solar	0
49969	7	Sololá	701	Sololá	1	Sololá	9	Septiembre	2023-09-29T00:00:00	2024-11-08T01:00:00	2	Temperatura media	14.8
49970	7	Sololá	701	Sololá	1	Sololá	9	Septiembre	2023-09-29T00:00:00	2024-11-08T01:00:00	4	Temperatura máxima	15.4
49971	7	Sololá	701	Sololá	1	Sololá	9	Septiembre	2023-09-29T00:00:00	2024-11-08T01:00:00	3	Temperatura mínima	14.8
49972	7	Sololá	701	Sololá	1	Sololá	9	Septiembre	2023-09-29T00:00:00	2024-11-08T01:00:00	5	Humedad	95
49973	7	Sololá	701	Sololá	1	Sololá	9	Septiembre	2023-09-29T00:00:00	2024-11-08T01:00:00	6	Velocidad del viento	0
49974	7	Sololá	701	Sololá	1	Sololá	9	Septiembre	2023-09-29T00:00:00	2024-11-08T01:00:00	7	Dirección del viento	0
49975	7	Sololá	701	Sololá	1	Sololá	9	Septiembre	2023-09-29T00:00:00	2024-11-08T01:00:00	1	Precipitación	0.2
49976	7	Sololá	701	Sololá	1	Sololá	9	Septiembre	2023-09-29T00:00:00	2024-11-08T01:00:00	8	Radiación solar	0
49977	7	Sololá	701	Sololá	1	Sololá	9	Septiembre	2023-09-29T00:00:00	2024-11-08T02:00:00	2	Temperatura media	14.6
49978	7	Sololá	701	Sololá	1	Sololá	9	Septiembre	2023-09-29T00:00:00	2024-11-08T02:00:00	4	Temperatura máxima	14.8
49979	7	Sololá	701	Sololá	1	Sololá	9	Septiembre	2023-09-29T00:00:00	2024-11-08T02:00:00	3	Temperatura mínima	14.6
49980	7	Sololá	701	Sololá	1	Sololá	9	Septiembre	2023-09-29T00:00:00	2024-11-08T02:00:00	5	Humedad	95
49981	7	Sololá	701	Sololá	1	Sololá	9	Septiembre	2023-09-29T00:00:00	2024-11-08T02:00:00	6	Velocidad del viento	0
49982	7	Sololá	701	Sololá	1	Sololá	9	Septiembre	2023-09-29T00:00:00	2024-11-08T02:00:00	7	Dirección del viento	0
49983	7	Sololá	701	Sololá	1	Sololá	9	Septiembre	2023-09-29T00:00:00	2024-11-08T02:00:00	1	Precipitación	0
49984	7	Sololá	701	Sololá	1	Sololá	9	Septiembre	2023-09-29T00:00:00	2024-11-08T02:00:00	8	Radiación solar	0
49985	7	Sololá	701	Sololá	1	Sololá	9	Septiembre	2023-09-29T00:00:00	2024-11-08T03:00:00	2	Temperatura media	14.4
49986	7	Sololá	701	Sololá	1	Sololá	9	Septiembre	2023-09-29T00:00:00	2024-11-08T03:00:00	4	Temperatura máxima	14.6
49987	7	Sololá	701	Sololá	1	Sololá	9	Septiembre	2023-09-29T00:00:00	2024-11-08T03:00:00	3	Temperatura mínima	14.4
49988	7	Sololá	701	Sololá	1	Sololá	9	Septiembre	2023-09-29T00:00:00	2024-11-08T03:00:00	5	Humedad	95
49989	7	Sololá	701	Sololá	1	Sololá	9	Septiembre	2023-09-29T00:00:00	2024-11-08T03:00:00	6	Velocidad del viento	0
49990	7	Sololá	701	Sololá	1	Sololá	9	Septiembre	2023-09-29T00:00:00	2024-11-08T03:00:00	7	Dirección del viento	0
49991	7	Sololá	701	Sololá	1	Sololá	9	Septiembre	2023-09-29T00:00:00	2024-11-08T03:00:00	1	Precipitación	0
49992	7	Sololá	701	Sololá	1	Sololá	9	Septiembre	2023-09-29T00:00:00	2024-11-08T03:00:00	8	Radiación solar	0
49993	7	Sololá	701	Sololá	1	Sololá	9	Septiembre	2023-09-29T00:00:00	2024-11-08T04:00:00	2	Temperatura media	14.4
49994	7	Sololá	701	Sololá	1	Sololá	9	Septiembre	2023-09-29T00:00:00	2024-11-08T04:00:00	4	Temperatura máxima	14.4
49995	7	Sololá	701	Sololá	1	Sololá	9	Septiembre	2023-09-29T00:00:00	2024-11-08T04:00:00	3	Temperatura mínima	14.3
49996	7	Sololá	701	Sololá	1	Sololá	9	Septiembre	2023-09-29T00:00:00	2024-11-08T04:00:00	5	Humedad	95
49997	7	Sololá	701	Sololá	1	Sololá	9	Septiembre	2023-09-29T00:00:00	2024-11-08T04:00:00	6	Velocidad del viento	0
49998	7	Sololá	701	Sololá	1	Sololá	9	Septiembre	2023-09-29T00:00:00	2024-11-08T04:00:00	7	Dirección del viento	0
49999	7	Sololá	701	Sololá	1	Sololá	9	Septiembre	2023-09-29T00:00:00	2024-11-08T04:00:00	1	Precipitación	0
50000	7	Sololá	701	Sololá	1	Sololá	9	Septiembre	2023-09-29T00:00:00	2024-11-08T04:00:00	8	Radiación solar	0
50001	7	Sololá	701	Sololá	1	Sololá	9	Septiembre	2023-09-29T00:00:00	2024-11-08T05:00:00	2	Temperatura media	14.4
50002	7	Sololá	701	Sololá	1	Sololá	9	Septiembre	2023-09-29T00:00:00	2024-11-08T05:00:00	4	Temperatura máxima	14.4
50003	7	Sololá	701	Sololá	1	Sololá	9	Septiembre	2023-09-29T00:00:00	2024-11-08T05:00:00	3	Temperatura mínima	14.3
50004	7	Sololá	701	Sololá	1	Sololá	9	Septiembre	2023-09-29T00:00:00	2024-11-08T05:00:00	5	Humedad	95
50005	7	Sololá	701	Sololá	1	Sololá	9	Septiembre	2023-09-29T00:00:00	2024-11-08T05:00:00	6	Velocidad del viento	0
50006	7	Sololá	701	Sololá	1	Sololá	9	Septiembre	2023-09-29T00:00:00	2024-11-08T05:00:00	7	Dirección del viento	0
50007	7	Sololá	701	Sololá	1	Sololá	9	Septiembre	2023-09-29T00:00:00	2024-11-08T05:00:00	1	Precipitación	0
50008	7	Sololá	701	Sololá	1	Sololá	9	Septiembre	2023-09-29T00:00:00	2024-11-08T05:00:00	8	Radiación solar	0
50009	7	Sololá	701	Sololá	1	Sololá	9	Septiembre	2023-09-29T00:00:00	2024-11-08T06:00:00	2	Temperatura media	14.1
50010	7	Sololá	701	Sololá	1	Sololá	9	Septiembre	2023-09-29T00:00:00	2024-11-08T06:00:00	4	Temperatura máxima	14.4
50011	7	Sololá	701	Sololá	1	Sololá	9	Septiembre	2023-09-29T00:00:00	2024-11-08T06:00:00	3	Temperatura mínima	14.1
50012	7	Sololá	701	Sololá	1	Sololá	9	Septiembre	2023-09-29T00:00:00	2024-11-08T06:00:00	5	Humedad	95
50013	7	Sololá	701	Sololá	1	Sololá	9	Septiembre	2023-09-29T00:00:00	2024-11-08T06:00:00	6	Velocidad del viento	0
50014	7	Sololá	701	Sololá	1	Sololá	9	Septiembre	2023-09-29T00:00:00	2024-11-08T06:00:00	7	Dirección del viento	0
50015	7	Sololá	701	Sololá	1	Sololá	9	Septiembre	2023-09-29T00:00:00	2024-11-08T06:00:00	1	Precipitación	0
50016	7	Sololá	701	Sololá	1	Sololá	9	Septiembre	2023-09-29T00:00:00	2024-11-08T06:00:00	8	Radiación solar	0
50017	7	Sololá	701	Sololá	1	Sololá	9	Septiembre	2023-09-29T00:00:00	2024-11-08T07:00:00	2	Temperatura media	14.6
50018	7	Sololá	701	Sololá	1	Sololá	9	Septiembre	2023-09-29T00:00:00	2024-11-08T07:00:00	4	Temperatura máxima	14.6
50019	7	Sololá	701	Sololá	1	Sololá	9	Septiembre	2023-09-29T00:00:00	2024-11-08T07:00:00	3	Temperatura mínima	14.1
50020	7	Sololá	701	Sololá	1	Sololá	9	Septiembre	2023-09-29T00:00:00	2024-11-08T07:00:00	5	Humedad	95
50021	7	Sololá	701	Sololá	1	Sololá	9	Septiembre	2023-09-29T00:00:00	2024-11-08T07:00:00	6	Velocidad del viento	0
50022	7	Sololá	701	Sololá	1	Sololá	9	Septiembre	2023-09-29T00:00:00	2024-11-08T07:00:00	7	Dirección del viento	0
50023	7	Sololá	701	Sololá	1	Sololá	9	Septiembre	2023-09-29T00:00:00	2024-11-08T07:00:00	1	Precipitación	0
50024	7	Sololá	701	Sololá	1	Sololá	9	Septiembre	2023-09-29T00:00:00	2024-11-08T07:00:00	8	Radiación solar	11
50025	7	Sololá	701	Sololá	1	Sololá	9	Septiembre	2023-09-29T00:00:00	2024-11-08T08:00:00	2	Temperatura media	15.6
50026	7	Sololá	701	Sololá	1	Sololá	9	Septiembre	2023-09-29T00:00:00	2024-11-08T08:00:00	4	Temperatura máxima	15.6
50027	7	Sololá	701	Sololá	1	Sololá	9	Septiembre	2023-09-29T00:00:00	2024-11-08T08:00:00	3	Temperatura mínima	14.6
50028	7	Sololá	701	Sololá	1	Sololá	9	Septiembre	2023-09-29T00:00:00	2024-11-08T08:00:00	5	Humedad	95
50029	7	Sololá	701	Sololá	1	Sololá	9	Septiembre	2023-09-29T00:00:00	2024-11-08T08:00:00	6	Velocidad del viento	0
50030	7	Sololá	701	Sololá	1	Sololá	9	Septiembre	2023-09-29T00:00:00	2024-11-08T08:00:00	7	Dirección del viento	0
50031	7	Sololá	701	Sololá	1	Sololá	9	Septiembre	2023-09-29T00:00:00	2024-11-08T08:00:00	1	Precipitación	0
50032	7	Sololá	701	Sololá	1	Sololá	9	Septiembre	2023-09-29T00:00:00	2024-11-08T08:00:00	8	Radiación solar	50
50033	7	Sololá	701	Sololá	1	Sololá	9	Septiembre	2023-09-29T00:00:00	2024-11-08T09:00:00	2	Temperatura media	17.1
50034	7	Sololá	701	Sololá	1	Sololá	9	Septiembre	2023-09-29T00:00:00	2024-11-08T09:00:00	4	Temperatura máxima	17.1
50035	7	Sololá	701	Sololá	1	Sololá	9	Septiembre	2023-09-29T00:00:00	2024-11-08T09:00:00	3	Temperatura mínima	15.6
50036	7	Sololá	701	Sololá	1	Sololá	9	Septiembre	2023-09-29T00:00:00	2024-11-08T09:00:00	5	Humedad	89
50037	7	Sololá	701	Sololá	1	Sololá	9	Septiembre	2023-09-29T00:00:00	2024-11-08T09:00:00	6	Velocidad del viento	0
50038	7	Sololá	701	Sololá	1	Sololá	9	Septiembre	2023-09-29T00:00:00	2024-11-08T09:00:00	7	Dirección del viento	0
50039	7	Sololá	701	Sololá	1	Sololá	9	Septiembre	2023-09-29T00:00:00	2024-11-08T09:00:00	1	Precipitación	0
50040	7	Sololá	701	Sololá	1	Sololá	9	Septiembre	2023-09-29T00:00:00	2024-11-08T09:00:00	8	Radiación solar	93
50041	7	Sololá	701	Sololá	1	Sololá	9	Septiembre	2023-09-29T00:00:00	2024-11-08T10:00:00	2	Temperatura media	19.5
50042	7	Sololá	701	Sololá	1	Sololá	9	Septiembre	2023-09-29T00:00:00	2024-11-08T10:00:00	4	Temperatura máxima	19.5
50043	7	Sololá	701	Sololá	1	Sololá	9	Septiembre	2023-09-29T00:00:00	2024-11-08T10:00:00	3	Temperatura mínima	17.1
50044	7	Sololá	701	Sololá	1	Sololá	9	Septiembre	2023-09-29T00:00:00	2024-11-08T10:00:00	5	Humedad	84
50045	7	Sololá	701	Sololá	1	Sololá	9	Septiembre	2023-09-29T00:00:00	2024-11-08T10:00:00	6	Velocidad del viento	0
50046	7	Sololá	701	Sololá	1	Sololá	9	Septiembre	2023-09-29T00:00:00	2024-11-08T10:00:00	7	Dirección del viento	0
50047	7	Sololá	701	Sololá	1	Sololá	9	Septiembre	2023-09-29T00:00:00	2024-11-08T10:00:00	1	Precipitación	0
50048	7	Sololá	701	Sololá	1	Sololá	9	Septiembre	2023-09-29T00:00:00	2024-11-08T10:00:00	8	Radiación solar	207
50049	7	Sololá	701	Sololá	1	Sololá	9	Septiembre	2023-09-29T00:00:00	2024-11-08T11:00:00	2	Temperatura media	22.8
50050	7	Sololá	701	Sololá	1	Sololá	9	Septiembre	2023-09-29T00:00:00	2024-11-08T11:00:00	4	Temperatura máxima	22.8
50051	7	Sololá	701	Sololá	1	Sololá	9	Septiembre	2023-09-29T00:00:00	2024-11-08T11:00:00	3	Temperatura mínima	19.6
50052	7	Sololá	701	Sololá	1	Sololá	9	Septiembre	2023-09-29T00:00:00	2024-11-08T11:00:00	5	Humedad	74
50053	7	Sololá	701	Sololá	1	Sololá	9	Septiembre	2023-09-29T00:00:00	2024-11-08T11:00:00	6	Velocidad del viento	0
50054	7	Sololá	701	Sololá	1	Sololá	9	Septiembre	2023-09-29T00:00:00	2024-11-08T11:00:00	7	Dirección del viento	0
50055	7	Sololá	701	Sololá	1	Sololá	9	Septiembre	2023-09-29T00:00:00	2024-11-08T11:00:00	1	Precipitación	0
50056	7	Sololá	701	Sololá	1	Sololá	9	Septiembre	2023-09-29T00:00:00	2024-11-08T11:00:00	8	Radiación solar	701
50057	7	Sololá	701	Sololá	1	Sololá	9	Septiembre	2023-09-29T00:00:00	2024-11-08T12:00:00	2	Temperatura media	21.7
50058	7	Sololá	701	Sololá	1	Sololá	9	Septiembre	2023-09-29T00:00:00	2024-11-08T12:00:00	4	Temperatura máxima	23
50059	7	Sololá	701	Sololá	1	Sololá	9	Septiembre	2023-09-29T00:00:00	2024-11-08T12:00:00	3	Temperatura mínima	21.7
50060	7	Sololá	701	Sololá	1	Sololá	9	Septiembre	2023-09-29T00:00:00	2024-11-08T12:00:00	5	Humedad	73
50061	7	Sololá	701	Sololá	1	Sololá	9	Septiembre	2023-09-29T00:00:00	2024-11-08T12:00:00	6	Velocidad del viento	0
50062	7	Sololá	701	Sololá	1	Sololá	9	Septiembre	2023-09-29T00:00:00	2024-11-08T12:00:00	7	Dirección del viento	0
50063	7	Sololá	701	Sololá	1	Sololá	9	Septiembre	2023-09-29T00:00:00	2024-11-08T12:00:00	1	Precipitación	0
50064	7	Sololá	701	Sololá	1	Sololá	9	Septiembre	2023-09-29T00:00:00	2024-11-08T12:00:00	8	Radiación solar	172
50065	7	Sololá	701	Sololá	1	Sololá	9	Septiembre	2023-09-29T00:00:00	2024-11-08T13:00:00	2	Temperatura media	19.5
50066	7	Sololá	701	Sololá	1	Sololá	9	Septiembre	2023-09-29T00:00:00	2024-11-08T13:00:00	4	Temperatura máxima	21.7
50067	7	Sololá	701	Sololá	1	Sololá	9	Septiembre	2023-09-29T00:00:00	2024-11-08T13:00:00	3	Temperatura mínima	19.5
50068	7	Sololá	701	Sololá	1	Sololá	9	Septiembre	2023-09-29T00:00:00	2024-11-08T13:00:00	5	Humedad	88
50069	7	Sololá	701	Sololá	1	Sololá	9	Septiembre	2023-09-29T00:00:00	2024-11-08T13:00:00	6	Velocidad del viento	0
50070	7	Sololá	701	Sololá	1	Sololá	9	Septiembre	2023-09-29T00:00:00	2024-11-08T13:00:00	7	Dirección del viento	0
50071	7	Sololá	701	Sololá	1	Sololá	9	Septiembre	2023-09-29T00:00:00	2024-11-08T13:00:00	1	Precipitación	0
50072	7	Sololá	701	Sololá	1	Sololá	9	Septiembre	2023-09-29T00:00:00	2024-11-08T13:00:00	8	Radiación solar	70
50073	7	Sololá	701	Sololá	1	Sololá	9	Septiembre	2023-09-29T00:00:00	2024-11-08T14:00:00	2	Temperatura media	17.4
50074	7	Sololá	701	Sololá	1	Sololá	9	Septiembre	2023-09-29T00:00:00	2024-11-08T14:00:00	4	Temperatura máxima	19.5
50075	7	Sololá	701	Sololá	1	Sololá	9	Septiembre	2023-09-29T00:00:00	2024-11-08T14:00:00	3	Temperatura mínima	17.4
50076	7	Sololá	701	Sololá	1	Sololá	9	Septiembre	2023-09-29T00:00:00	2024-11-08T14:00:00	5	Humedad	94
50077	7	Sololá	701	Sololá	1	Sololá	9	Septiembre	2023-09-29T00:00:00	2024-11-08T14:00:00	6	Velocidad del viento	0
50078	7	Sololá	701	Sololá	1	Sololá	9	Septiembre	2023-09-29T00:00:00	2024-11-08T14:00:00	7	Dirección del viento	0
50079	7	Sololá	701	Sololá	1	Sololá	9	Septiembre	2023-09-29T00:00:00	2024-11-08T14:00:00	1	Precipitación	24.2
50080	7	Sololá	701	Sololá	1	Sololá	9	Septiembre	2023-09-29T00:00:00	2024-11-08T14:00:00	8	Radiación solar	9
50081	7	Sololá	701	Sololá	1	Sololá	9	Septiembre	2023-09-29T00:00:00	2024-11-08T15:00:00	2	Temperatura media	17
50082	7	Sololá	701	Sololá	1	Sololá	9	Septiembre	2023-09-29T00:00:00	2024-11-08T15:00:00	4	Temperatura máxima	17.4
50083	7	Sololá	701	Sololá	1	Sololá	9	Septiembre	2023-09-29T00:00:00	2024-11-08T15:00:00	3	Temperatura mínima	16.8
50084	7	Sololá	701	Sololá	1	Sololá	9	Septiembre	2023-09-29T00:00:00	2024-11-08T15:00:00	5	Humedad	95
50085	7	Sololá	701	Sololá	1	Sololá	9	Septiembre	2023-09-29T00:00:00	2024-11-08T15:00:00	6	Velocidad del viento	0
50086	7	Sololá	701	Sololá	1	Sololá	9	Septiembre	2023-09-29T00:00:00	2024-11-08T15:00:00	7	Dirección del viento	0
50087	7	Sololá	701	Sololá	1	Sololá	9	Septiembre	2023-09-29T00:00:00	2024-11-08T15:00:00	1	Precipitación	4
50088	7	Sololá	701	Sololá	1	Sololá	9	Septiembre	2023-09-29T00:00:00	2024-11-08T15:00:00	8	Radiación solar	43
50089	7	Sololá	701	Sololá	1	Sololá	9	Septiembre	2023-09-29T00:00:00	2024-11-08T16:00:00	2	Temperatura media	16.9
50090	7	Sololá	701	Sololá	1	Sololá	9	Septiembre	2023-09-29T00:00:00	2024-11-08T16:00:00	4	Temperatura máxima	17.2
50091	7	Sololá	701	Sololá	1	Sololá	9	Septiembre	2023-09-29T00:00:00	2024-11-08T16:00:00	3	Temperatura mínima	16.9
50092	7	Sololá	701	Sololá	1	Sololá	9	Septiembre	2023-09-29T00:00:00	2024-11-08T16:00:00	5	Humedad	95
50093	7	Sololá	701	Sololá	1	Sololá	9	Septiembre	2023-09-29T00:00:00	2024-11-08T16:00:00	6	Velocidad del viento	0
50094	7	Sololá	701	Sololá	1	Sololá	9	Septiembre	2023-09-29T00:00:00	2024-11-08T16:00:00	7	Dirección del viento	0
50095	7	Sololá	701	Sololá	1	Sololá	9	Septiembre	2023-09-29T00:00:00	2024-11-08T16:00:00	1	Precipitación	3.2
50096	7	Sololá	701	Sololá	1	Sololá	9	Septiembre	2023-09-29T00:00:00	2024-11-08T16:00:00	8	Radiación solar	13
50097	7	Sololá	701	Sololá	1	Sololá	9	Septiembre	2023-09-29T00:00:00	2024-11-08T17:00:00	2	Temperatura media	16.1
50098	7	Sololá	701	Sololá	1	Sololá	9	Septiembre	2023-09-29T00:00:00	2024-11-08T17:00:00	4	Temperatura máxima	16.9
50099	7	Sololá	701	Sololá	1	Sololá	9	Septiembre	2023-09-29T00:00:00	2024-11-08T17:00:00	3	Temperatura mínima	16.1
50100	7	Sololá	701	Sololá	1	Sololá	9	Septiembre	2023-09-29T00:00:00	2024-11-08T17:00:00	5	Humedad	95
50101	7	Sololá	701	Sololá	1	Sololá	9	Septiembre	2023-09-29T00:00:00	2024-11-08T17:00:00	6	Velocidad del viento	0
50102	7	Sololá	701	Sololá	1	Sololá	9	Septiembre	2023-09-29T00:00:00	2024-11-08T17:00:00	7	Dirección del viento	0
50103	7	Sololá	701	Sololá	1	Sololá	9	Septiembre	2023-09-29T00:00:00	2024-11-08T17:00:00	1	Precipitación	48.4
50104	7	Sololá	701	Sololá	1	Sololá	9	Septiembre	2023-09-29T00:00:00	2024-11-08T17:00:00	8	Radiación solar	0
50105	7	Sololá	701	Sololá	1	Sololá	9	Septiembre	2023-09-29T00:00:00	2024-11-08T18:00:00	2	Temperatura media	15.6
50106	7	Sololá	701	Sololá	1	Sololá	9	Septiembre	2023-09-29T00:00:00	2024-11-08T18:00:00	4	Temperatura máxima	16.1
50107	7	Sololá	701	Sololá	1	Sololá	9	Septiembre	2023-09-29T00:00:00	2024-11-08T18:00:00	3	Temperatura mínima	15.6
50108	7	Sololá	701	Sololá	1	Sololá	9	Septiembre	2023-09-29T00:00:00	2024-11-08T18:00:00	5	Humedad	96
50109	7	Sololá	701	Sololá	1	Sololá	9	Septiembre	2023-09-29T00:00:00	2024-11-08T18:00:00	6	Velocidad del viento	0
50110	7	Sololá	701	Sololá	1	Sololá	9	Septiembre	2023-09-29T00:00:00	2024-11-08T18:00:00	7	Dirección del viento	0
50111	7	Sololá	701	Sololá	1	Sololá	9	Septiembre	2023-09-29T00:00:00	2024-11-08T18:00:00	1	Precipitación	40.2
50112	7	Sololá	701	Sololá	1	Sololá	9	Septiembre	2023-09-29T00:00:00	2024-11-08T18:00:00	8	Radiación solar	0
50113	7	Sololá	701	Sololá	1	Sololá	9	Septiembre	2023-09-29T00:00:00	2024-11-08T19:00:00	2	Temperatura media	15.6
50114	7	Sololá	701	Sololá	1	Sololá	9	Septiembre	2023-09-29T00:00:00	2024-11-08T19:00:00	4	Temperatura máxima	15.7
50115	7	Sololá	701	Sololá	1	Sololá	9	Septiembre	2023-09-29T00:00:00	2024-11-08T19:00:00	3	Temperatura mínima	15.6
50116	7	Sololá	701	Sololá	1	Sololá	9	Septiembre	2023-09-29T00:00:00	2024-11-08T19:00:00	5	Humedad	96
50117	7	Sololá	701	Sololá	1	Sololá	9	Septiembre	2023-09-29T00:00:00	2024-11-08T19:00:00	6	Velocidad del viento	0
50118	7	Sololá	701	Sololá	1	Sololá	9	Septiembre	2023-09-29T00:00:00	2024-11-08T19:00:00	7	Dirección del viento	0
50119	7	Sololá	701	Sololá	1	Sololá	9	Septiembre	2023-09-29T00:00:00	2024-11-08T19:00:00	1	Precipitación	0
50120	7	Sololá	701	Sololá	1	Sololá	9	Septiembre	2023-09-29T00:00:00	2024-11-08T19:00:00	8	Radiación solar	0
50121	7	Sololá	701	Sololá	1	Sololá	9	Septiembre	2023-09-29T00:00:00	2024-11-08T20:00:00	2	Temperatura media	15.5
50122	7	Sololá	701	Sololá	1	Sololá	9	Septiembre	2023-09-29T00:00:00	2024-11-08T20:00:00	4	Temperatura máxima	15.7
50123	7	Sololá	701	Sololá	1	Sololá	9	Septiembre	2023-09-29T00:00:00	2024-11-08T20:00:00	3	Temperatura mínima	15.4
50124	7	Sololá	701	Sololá	1	Sololá	9	Septiembre	2023-09-29T00:00:00	2024-11-08T20:00:00	5	Humedad	96
50125	7	Sololá	701	Sololá	1	Sololá	9	Septiembre	2023-09-29T00:00:00	2024-11-08T20:00:00	6	Velocidad del viento	0
50126	7	Sololá	701	Sololá	1	Sololá	9	Septiembre	2023-09-29T00:00:00	2024-11-08T20:00:00	7	Dirección del viento	0
50127	7	Sololá	701	Sololá	1	Sololá	9	Septiembre	2023-09-29T00:00:00	2024-11-08T20:00:00	1	Precipitación	0.4
50128	7	Sololá	701	Sololá	1	Sololá	9	Septiembre	2023-09-29T00:00:00	2024-11-08T20:00:00	8	Radiación solar	0
50129	7	Sololá	701	Sololá	1	Sololá	9	Septiembre	2023-09-29T00:00:00	2024-11-08T21:00:00	2	Temperatura media	15.5
50130	7	Sololá	701	Sololá	1	Sololá	9	Septiembre	2023-09-29T00:00:00	2024-11-08T21:00:00	4	Temperatura máxima	15.6
50131	7	Sololá	701	Sololá	1	Sololá	9	Septiembre	2023-09-29T00:00:00	2024-11-08T21:00:00	3	Temperatura mínima	15.4
50132	7	Sololá	701	Sololá	1	Sololá	9	Septiembre	2023-09-29T00:00:00	2024-11-08T21:00:00	5	Humedad	96
50133	7	Sololá	701	Sololá	1	Sololá	9	Septiembre	2023-09-29T00:00:00	2024-11-08T21:00:00	6	Velocidad del viento	0
50134	7	Sololá	701	Sololá	1	Sololá	9	Septiembre	2023-09-29T00:00:00	2024-11-08T21:00:00	7	Dirección del viento	0
50135	7	Sololá	701	Sololá	1	Sololá	9	Septiembre	2023-09-29T00:00:00	2024-11-08T21:00:00	1	Precipitación	0
50136	7	Sololá	701	Sololá	1	Sololá	9	Septiembre	2023-09-29T00:00:00	2024-11-08T21:00:00	8	Radiación solar	0
50137	7	Sololá	701	Sololá	1	Sololá	9	Septiembre	2023-09-29T00:00:00	2024-11-08T22:00:00	2	Temperatura media	15.5
50138	7	Sololá	701	Sololá	1	Sololá	9	Septiembre	2023-09-29T00:00:00	2024-11-08T22:00:00	4	Temperatura máxima	15.6
50139	7	Sololá	701	Sololá	1	Sololá	9	Septiembre	2023-09-29T00:00:00	2024-11-08T22:00:00	3	Temperatura mínima	15.4
50140	7	Sololá	701	Sololá	1	Sololá	9	Septiembre	2023-09-29T00:00:00	2024-11-08T22:00:00	5	Humedad	96
50141	7	Sololá	701	Sololá	1	Sololá	9	Septiembre	2023-09-29T00:00:00	2024-11-08T22:00:00	6	Velocidad del viento	0
50142	7	Sololá	701	Sololá	1	Sololá	9	Septiembre	2023-09-29T00:00:00	2024-11-08T22:00:00	7	Dirección del viento	0
50143	7	Sololá	701	Sololá	1	Sololá	9	Septiembre	2023-09-29T00:00:00	2024-11-08T22:00:00	1	Precipitación	1.8
50144	7	Sololá	701	Sololá	1	Sololá	9	Septiembre	2023-09-29T00:00:00	2024-11-08T22:00:00	8	Radiación solar	0
50145	7	Sololá	701	Sololá	1	Sololá	9	Septiembre	2023-09-29T00:00:00	2024-11-08T23:00:00	2	Temperatura media	15.2
50146	7	Sololá	701	Sololá	1	Sololá	9	Septiembre	2023-09-29T00:00:00	2024-11-08T23:00:00	4	Temperatura máxima	15.5
50147	7	Sololá	701	Sololá	1	Sololá	9	Septiembre	2023-09-29T00:00:00	2024-11-08T23:00:00	3	Temperatura mínima	15.2
50148	7	Sololá	701	Sololá	1	Sololá	9	Septiembre	2023-09-29T00:00:00	2024-11-08T23:00:00	5	Humedad	96
50149	7	Sololá	701	Sololá	1	Sololá	9	Septiembre	2023-09-29T00:00:00	2024-11-08T23:00:00	6	Velocidad del viento	0
50150	7	Sololá	701	Sololá	1	Sololá	9	Septiembre	2023-09-29T00:00:00	2024-11-08T23:00:00	7	Dirección del viento	0
50151	7	Sololá	701	Sololá	1	Sololá	9	Septiembre	2023-09-29T00:00:00	2024-11-08T23:00:00	1	Precipitación	0
50152	7	Sololá	701	Sololá	1	Sololá	9	Septiembre	2023-09-29T00:00:00	2024-11-08T23:00:00	8	Radiación solar	0
50153	7	Sololá	701	Sololá	1	Sololá	9	Septiembre	2023-09-30T00:00:00	2024-11-08T00:00:00	2	Temperatura media	14.9
50154	7	Sololá	701	Sololá	1	Sololá	9	Septiembre	2023-09-30T00:00:00	2024-11-08T00:00:00	4	Temperatura máxima	15.2
50155	7	Sololá	701	Sololá	1	Sololá	9	Septiembre	2023-09-30T00:00:00	2024-11-08T00:00:00	3	Temperatura mínima	14.9
50156	7	Sololá	701	Sololá	1	Sololá	9	Septiembre	2023-09-30T00:00:00	2024-11-08T00:00:00	5	Humedad	96
50157	7	Sololá	701	Sololá	1	Sololá	9	Septiembre	2023-09-30T00:00:00	2024-11-08T00:00:00	6	Velocidad del viento	0
50158	7	Sololá	701	Sololá	1	Sololá	9	Septiembre	2023-09-30T00:00:00	2024-11-08T00:00:00	7	Dirección del viento	0
50159	7	Sololá	701	Sololá	1	Sololá	9	Septiembre	2023-09-30T00:00:00	2024-11-08T00:00:00	1	Precipitación	0
50160	7	Sololá	701	Sololá	1	Sololá	9	Septiembre	2023-09-30T00:00:00	2024-11-08T00:00:00	8	Radiación solar	0
50161	7	Sololá	701	Sololá	1	Sololá	9	Septiembre	2023-09-30T00:00:00	2024-11-08T01:00:00	2	Temperatura media	14.8
50162	7	Sololá	701	Sololá	1	Sololá	9	Septiembre	2023-09-30T00:00:00	2024-11-08T01:00:00	4	Temperatura máxima	14.9
50163	7	Sololá	701	Sololá	1	Sololá	9	Septiembre	2023-09-30T00:00:00	2024-11-08T01:00:00	3	Temperatura mínima	14.7
50164	7	Sololá	701	Sololá	1	Sololá	9	Septiembre	2023-09-30T00:00:00	2024-11-08T01:00:00	5	Humedad	96
50165	7	Sololá	701	Sololá	1	Sololá	9	Septiembre	2023-09-30T00:00:00	2024-11-08T01:00:00	6	Velocidad del viento	0
50166	7	Sololá	701	Sololá	1	Sololá	9	Septiembre	2023-09-30T00:00:00	2024-11-08T01:00:00	7	Dirección del viento	0
50167	7	Sololá	701	Sololá	1	Sololá	9	Septiembre	2023-09-30T00:00:00	2024-11-08T01:00:00	1	Precipitación	0
50168	7	Sololá	701	Sololá	1	Sololá	9	Septiembre	2023-09-30T00:00:00	2024-11-08T01:00:00	8	Radiación solar	0
50169	7	Sololá	701	Sololá	1	Sololá	9	Septiembre	2023-09-30T00:00:00	2024-11-08T02:00:00	2	Temperatura media	14.6
50170	7	Sololá	701	Sololá	1	Sololá	9	Septiembre	2023-09-30T00:00:00	2024-11-08T02:00:00	4	Temperatura máxima	14.9
50171	7	Sololá	701	Sololá	1	Sololá	9	Septiembre	2023-09-30T00:00:00	2024-11-08T02:00:00	3	Temperatura mínima	14.6
50172	7	Sololá	701	Sololá	1	Sololá	9	Septiembre	2023-09-30T00:00:00	2024-11-08T02:00:00	5	Humedad	96
50173	7	Sololá	701	Sololá	1	Sololá	9	Septiembre	2023-09-30T00:00:00	2024-11-08T02:00:00	6	Velocidad del viento	0
50174	7	Sololá	701	Sololá	1	Sololá	9	Septiembre	2023-09-30T00:00:00	2024-11-08T02:00:00	7	Dirección del viento	0
50175	7	Sololá	701	Sololá	1	Sololá	9	Septiembre	2023-09-30T00:00:00	2024-11-08T02:00:00	1	Precipitación	0
50176	7	Sololá	701	Sololá	1	Sololá	9	Septiembre	2023-09-30T00:00:00	2024-11-08T02:00:00	8	Radiación solar	0
50177	7	Sololá	701	Sololá	1	Sololá	9	Septiembre	2023-09-30T00:00:00	2024-11-08T03:00:00	2	Temperatura media	14.2
50178	7	Sololá	701	Sololá	1	Sololá	9	Septiembre	2023-09-30T00:00:00	2024-11-08T03:00:00	4	Temperatura máxima	14.6
50179	7	Sololá	701	Sololá	1	Sololá	9	Septiembre	2023-09-30T00:00:00	2024-11-08T03:00:00	3	Temperatura mínima	14.2
50180	7	Sololá	701	Sololá	1	Sololá	9	Septiembre	2023-09-30T00:00:00	2024-11-08T03:00:00	5	Humedad	96
50181	7	Sololá	701	Sololá	1	Sololá	9	Septiembre	2023-09-30T00:00:00	2024-11-08T03:00:00	6	Velocidad del viento	0
50182	7	Sololá	701	Sololá	1	Sololá	9	Septiembre	2023-09-30T00:00:00	2024-11-08T03:00:00	7	Dirección del viento	0
50183	7	Sololá	701	Sololá	1	Sololá	9	Septiembre	2023-09-30T00:00:00	2024-11-08T03:00:00	1	Precipitación	0
50184	7	Sololá	701	Sololá	1	Sololá	9	Septiembre	2023-09-30T00:00:00	2024-11-08T03:00:00	8	Radiación solar	0
50185	7	Sololá	701	Sololá	1	Sololá	9	Septiembre	2023-09-30T00:00:00	2024-11-08T04:00:00	2	Temperatura media	13.6
50186	7	Sololá	701	Sololá	1	Sololá	9	Septiembre	2023-09-30T00:00:00	2024-11-08T04:00:00	4	Temperatura máxima	14.2
50187	7	Sololá	701	Sololá	1	Sololá	9	Septiembre	2023-09-30T00:00:00	2024-11-08T04:00:00	3	Temperatura mínima	13.6
50188	7	Sololá	701	Sololá	1	Sololá	9	Septiembre	2023-09-30T00:00:00	2024-11-08T04:00:00	5	Humedad	96
50189	7	Sololá	701	Sololá	1	Sololá	9	Septiembre	2023-09-30T00:00:00	2024-11-08T04:00:00	6	Velocidad del viento	0
50190	7	Sololá	701	Sololá	1	Sololá	9	Septiembre	2023-09-30T00:00:00	2024-11-08T04:00:00	7	Dirección del viento	0
50191	7	Sololá	701	Sololá	1	Sololá	9	Septiembre	2023-09-30T00:00:00	2024-11-08T04:00:00	1	Precipitación	0
50192	7	Sololá	701	Sololá	1	Sololá	9	Septiembre	2023-09-30T00:00:00	2024-11-08T04:00:00	8	Radiación solar	0
50193	7	Sololá	701	Sololá	1	Sololá	9	Septiembre	2023-09-30T00:00:00	2024-11-08T05:00:00	2	Temperatura media	13.7
50194	7	Sololá	701	Sololá	1	Sololá	9	Septiembre	2023-09-30T00:00:00	2024-11-08T05:00:00	4	Temperatura máxima	13.7
50195	7	Sololá	701	Sololá	1	Sololá	9	Septiembre	2023-09-30T00:00:00	2024-11-08T05:00:00	3	Temperatura mínima	13.4
50196	7	Sololá	701	Sololá	1	Sololá	9	Septiembre	2023-09-30T00:00:00	2024-11-08T05:00:00	5	Humedad	96
50197	7	Sololá	701	Sololá	1	Sololá	9	Septiembre	2023-09-30T00:00:00	2024-11-08T05:00:00	6	Velocidad del viento	0
50198	7	Sololá	701	Sololá	1	Sololá	9	Septiembre	2023-09-30T00:00:00	2024-11-08T05:00:00	7	Dirección del viento	0
50199	7	Sololá	701	Sololá	1	Sololá	9	Septiembre	2023-09-30T00:00:00	2024-11-08T05:00:00	1	Precipitación	0
50200	7	Sololá	701	Sololá	1	Sololá	9	Septiembre	2023-09-30T00:00:00	2024-11-08T05:00:00	8	Radiación solar	0
50201	7	Sololá	701	Sololá	1	Sololá	9	Septiembre	2023-09-30T00:00:00	2024-11-08T06:00:00	2	Temperatura media	13.6
50202	7	Sololá	701	Sololá	1	Sololá	9	Septiembre	2023-09-30T00:00:00	2024-11-08T06:00:00	4	Temperatura máxima	13.7
50203	7	Sololá	701	Sololá	1	Sololá	9	Septiembre	2023-09-30T00:00:00	2024-11-08T06:00:00	3	Temperatura mínima	13.5
50204	7	Sololá	701	Sololá	1	Sololá	9	Septiembre	2023-09-30T00:00:00	2024-11-08T06:00:00	5	Humedad	97
50205	7	Sololá	701	Sololá	1	Sololá	9	Septiembre	2023-09-30T00:00:00	2024-11-08T06:00:00	6	Velocidad del viento	0
50206	7	Sololá	701	Sololá	1	Sololá	9	Septiembre	2023-09-30T00:00:00	2024-11-08T06:00:00	7	Dirección del viento	0
50207	7	Sololá	701	Sololá	1	Sololá	9	Septiembre	2023-09-30T00:00:00	2024-11-08T06:00:00	1	Precipitación	0
50208	7	Sololá	701	Sololá	1	Sololá	9	Septiembre	2023-09-30T00:00:00	2024-11-08T06:00:00	8	Radiación solar	0
50209	7	Sololá	701	Sololá	1	Sololá	9	Septiembre	2023-09-30T00:00:00	2024-11-08T07:00:00	2	Temperatura media	14.4
50210	7	Sololá	701	Sololá	1	Sololá	9	Septiembre	2023-09-30T00:00:00	2024-11-08T07:00:00	4	Temperatura máxima	14.4
50211	7	Sololá	701	Sololá	1	Sololá	9	Septiembre	2023-09-30T00:00:00	2024-11-08T07:00:00	3	Temperatura mínima	13.6
50212	7	Sololá	701	Sololá	1	Sololá	9	Septiembre	2023-09-30T00:00:00	2024-11-08T07:00:00	5	Humedad	97
50213	7	Sololá	701	Sololá	1	Sololá	9	Septiembre	2023-09-30T00:00:00	2024-11-08T07:00:00	6	Velocidad del viento	0
50214	7	Sololá	701	Sololá	1	Sololá	9	Septiembre	2023-09-30T00:00:00	2024-11-08T07:00:00	7	Dirección del viento	0
50215	7	Sololá	701	Sololá	1	Sololá	9	Septiembre	2023-09-30T00:00:00	2024-11-08T07:00:00	1	Precipitación	0
50216	7	Sololá	701	Sololá	1	Sololá	9	Septiembre	2023-09-30T00:00:00	2024-11-08T07:00:00	8	Radiación solar	20
50217	7	Sololá	701	Sololá	1	Sololá	9	Septiembre	2023-09-30T00:00:00	2024-11-08T08:00:00	2	Temperatura media	16.1
50218	7	Sololá	701	Sololá	1	Sololá	9	Septiembre	2023-09-30T00:00:00	2024-11-08T08:00:00	4	Temperatura máxima	16.1
50219	7	Sololá	701	Sololá	1	Sololá	9	Septiembre	2023-09-30T00:00:00	2024-11-08T08:00:00	3	Temperatura mínima	14.4
50220	7	Sololá	701	Sololá	1	Sololá	9	Septiembre	2023-09-30T00:00:00	2024-11-08T08:00:00	5	Humedad	98
50221	7	Sololá	701	Sololá	1	Sololá	9	Septiembre	2023-09-30T00:00:00	2024-11-08T08:00:00	6	Velocidad del viento	0
50222	7	Sololá	701	Sololá	1	Sololá	9	Septiembre	2023-09-30T00:00:00	2024-11-08T08:00:00	7	Dirección del viento	0
50223	7	Sololá	701	Sololá	1	Sololá	9	Septiembre	2023-09-30T00:00:00	2024-11-08T08:00:00	1	Precipitación	0
50224	7	Sololá	701	Sololá	1	Sololá	9	Septiembre	2023-09-30T00:00:00	2024-11-08T08:00:00	8	Radiación solar	89
50225	7	Sololá	701	Sololá	1	Sololá	9	Septiembre	2023-09-30T00:00:00	2024-11-08T09:00:00	2	Temperatura media	18.8
50226	7	Sololá	701	Sololá	1	Sololá	9	Septiembre	2023-09-30T00:00:00	2024-11-08T09:00:00	4	Temperatura máxima	18.8
50227	7	Sololá	701	Sololá	1	Sololá	9	Septiembre	2023-09-30T00:00:00	2024-11-08T09:00:00	3	Temperatura mínima	16.1
50228	7	Sololá	701	Sololá	1	Sololá	9	Septiembre	2023-09-30T00:00:00	2024-11-08T09:00:00	5	Humedad	89
50229	7	Sololá	701	Sololá	1	Sololá	9	Septiembre	2023-09-30T00:00:00	2024-11-08T09:00:00	6	Velocidad del viento	0
50230	7	Sololá	701	Sololá	1	Sololá	9	Septiembre	2023-09-30T00:00:00	2024-11-08T09:00:00	7	Dirección del viento	0
50231	7	Sololá	701	Sololá	1	Sololá	9	Septiembre	2023-09-30T00:00:00	2024-11-08T09:00:00	1	Precipitación	0.2
50232	7	Sololá	701	Sololá	1	Sololá	9	Septiembre	2023-09-30T00:00:00	2024-11-08T09:00:00	8	Radiación solar	283
50233	7	Sololá	701	Sololá	1	Sololá	9	Septiembre	2023-09-30T00:00:00	2024-11-08T10:00:00	2	Temperatura media	21.6
50234	7	Sololá	701	Sololá	1	Sololá	9	Septiembre	2023-09-30T00:00:00	2024-11-08T10:00:00	4	Temperatura máxima	21.6
50235	7	Sololá	701	Sololá	1	Sololá	9	Septiembre	2023-09-30T00:00:00	2024-11-08T10:00:00	3	Temperatura mínima	18.8
50236	7	Sololá	701	Sololá	1	Sololá	9	Septiembre	2023-09-30T00:00:00	2024-11-08T10:00:00	5	Humedad	75
50237	7	Sololá	701	Sololá	1	Sololá	9	Septiembre	2023-09-30T00:00:00	2024-11-08T10:00:00	6	Velocidad del viento	0
50238	7	Sololá	701	Sololá	1	Sololá	9	Septiembre	2023-09-30T00:00:00	2024-11-08T10:00:00	7	Dirección del viento	0
50239	7	Sololá	701	Sololá	1	Sololá	9	Septiembre	2023-09-30T00:00:00	2024-11-08T10:00:00	1	Precipitación	0
50240	7	Sololá	701	Sololá	1	Sololá	9	Septiembre	2023-09-30T00:00:00	2024-11-08T10:00:00	8	Radiación solar	251
50241	7	Sololá	701	Sololá	1	Sololá	9	Septiembre	2023-09-30T00:00:00	2024-11-08T11:00:00	2	Temperatura media	20
50242	7	Sololá	701	Sololá	1	Sololá	9	Septiembre	2023-09-30T00:00:00	2024-11-08T11:00:00	4	Temperatura máxima	22.1
50243	7	Sololá	701	Sololá	1	Sololá	9	Septiembre	2023-09-30T00:00:00	2024-11-08T11:00:00	3	Temperatura mínima	20
50244	7	Sololá	701	Sololá	1	Sololá	9	Septiembre	2023-09-30T00:00:00	2024-11-08T11:00:00	5	Humedad	84
50245	7	Sololá	701	Sololá	1	Sololá	9	Septiembre	2023-09-30T00:00:00	2024-11-08T11:00:00	6	Velocidad del viento	0
50246	7	Sololá	701	Sololá	1	Sololá	9	Septiembre	2023-09-30T00:00:00	2024-11-08T11:00:00	7	Dirección del viento	0
50247	7	Sololá	701	Sololá	1	Sololá	9	Septiembre	2023-09-30T00:00:00	2024-11-08T11:00:00	1	Precipitación	0
50248	7	Sololá	701	Sololá	1	Sololá	9	Septiembre	2023-09-30T00:00:00	2024-11-08T11:00:00	8	Radiación solar	324
50249	7	Sololá	701	Sololá	1	Sololá	9	Septiembre	2023-09-30T00:00:00	2024-11-08T12:00:00	2	Temperatura media	21.6
50250	7	Sololá	701	Sololá	1	Sololá	9	Septiembre	2023-09-30T00:00:00	2024-11-08T12:00:00	4	Temperatura máxima	21.9
50251	7	Sololá	701	Sololá	1	Sololá	9	Septiembre	2023-09-30T00:00:00	2024-11-08T12:00:00	3	Temperatura mínima	19.9
50252	7	Sololá	701	Sololá	1	Sololá	9	Septiembre	2023-09-30T00:00:00	2024-11-08T12:00:00	5	Humedad	84
50253	7	Sololá	701	Sololá	1	Sololá	9	Septiembre	2023-09-30T00:00:00	2024-11-08T12:00:00	6	Velocidad del viento	0
50254	7	Sololá	701	Sololá	1	Sololá	9	Septiembre	2023-09-30T00:00:00	2024-11-08T12:00:00	7	Dirección del viento	0
50255	7	Sololá	701	Sololá	1	Sololá	9	Septiembre	2023-09-30T00:00:00	2024-11-08T12:00:00	1	Precipitación	0
50256	7	Sololá	701	Sololá	1	Sololá	9	Septiembre	2023-09-30T00:00:00	2024-11-08T12:00:00	8	Radiación solar	405
50257	7	Sololá	701	Sololá	1	Sololá	9	Septiembre	2023-09-30T00:00:00	2024-11-08T13:00:00	2	Temperatura media	22.2
50258	7	Sololá	701	Sololá	1	Sololá	9	Septiembre	2023-09-30T00:00:00	2024-11-08T13:00:00	4	Temperatura máxima	22.3
50259	7	Sololá	701	Sololá	1	Sololá	9	Septiembre	2023-09-30T00:00:00	2024-11-08T13:00:00	3	Temperatura mínima	21.5
50260	7	Sololá	701	Sololá	1	Sololá	9	Septiembre	2023-09-30T00:00:00	2024-11-08T13:00:00	5	Humedad	83
50261	7	Sololá	701	Sololá	1	Sololá	9	Septiembre	2023-09-30T00:00:00	2024-11-08T13:00:00	6	Velocidad del viento	0
50262	7	Sololá	701	Sololá	1	Sololá	9	Septiembre	2023-09-30T00:00:00	2024-11-08T13:00:00	7	Dirección del viento	0
50263	7	Sololá	701	Sololá	1	Sololá	9	Septiembre	2023-09-30T00:00:00	2024-11-08T13:00:00	1	Precipitación	0
50264	7	Sololá	701	Sololá	1	Sololá	9	Septiembre	2023-09-30T00:00:00	2024-11-08T13:00:00	8	Radiación solar	242
50265	7	Sololá	701	Sololá	1	Sololá	9	Septiembre	2023-09-30T00:00:00	2024-11-08T14:00:00	2	Temperatura media	19.6
50266	7	Sololá	701	Sololá	1	Sololá	9	Septiembre	2023-09-30T00:00:00	2024-11-08T14:00:00	4	Temperatura máxima	22.2
50267	7	Sololá	701	Sololá	1	Sololá	9	Septiembre	2023-09-30T00:00:00	2024-11-08T14:00:00	3	Temperatura mínima	19.6
50268	7	Sololá	701	Sololá	1	Sololá	9	Septiembre	2023-09-30T00:00:00	2024-11-08T14:00:00	5	Humedad	90
50269	7	Sololá	701	Sololá	1	Sololá	9	Septiembre	2023-09-30T00:00:00	2024-11-08T14:00:00	6	Velocidad del viento	0
50270	7	Sololá	701	Sololá	1	Sololá	9	Septiembre	2023-09-30T00:00:00	2024-11-08T14:00:00	7	Dirección del viento	0
50271	7	Sololá	701	Sololá	1	Sololá	9	Septiembre	2023-09-30T00:00:00	2024-11-08T14:00:00	1	Precipitación	1.2
50272	7	Sololá	701	Sololá	1	Sololá	9	Septiembre	2023-09-30T00:00:00	2024-11-08T14:00:00	8	Radiación solar	68
50273	7	Sololá	701	Sololá	1	Sololá	9	Septiembre	2023-09-30T00:00:00	2024-11-08T15:00:00	2	Temperatura media	17.3
50274	7	Sololá	701	Sololá	1	Sololá	9	Septiembre	2023-09-30T00:00:00	2024-11-08T15:00:00	4	Temperatura máxima	19.6
50275	7	Sololá	701	Sololá	1	Sololá	9	Septiembre	2023-09-30T00:00:00	2024-11-08T15:00:00	3	Temperatura mínima	17.2
50276	7	Sololá	701	Sololá	1	Sololá	9	Septiembre	2023-09-30T00:00:00	2024-11-08T15:00:00	5	Humedad	94
50277	7	Sololá	701	Sololá	1	Sololá	9	Septiembre	2023-09-30T00:00:00	2024-11-08T15:00:00	6	Velocidad del viento	0
50278	7	Sololá	701	Sololá	1	Sololá	9	Septiembre	2023-09-30T00:00:00	2024-11-08T15:00:00	7	Dirección del viento	0
50279	7	Sololá	701	Sololá	1	Sololá	9	Septiembre	2023-09-30T00:00:00	2024-11-08T15:00:00	1	Precipitación	14.6
50280	7	Sololá	701	Sololá	1	Sololá	9	Septiembre	2023-09-30T00:00:00	2024-11-08T15:00:00	8	Radiación solar	10
50281	7	Sololá	701	Sololá	1	Sololá	9	Septiembre	2023-09-30T00:00:00	2024-11-08T16:00:00	2	Temperatura media	17.1
50282	7	Sololá	701	Sololá	1	Sololá	9	Septiembre	2023-09-30T00:00:00	2024-11-08T16:00:00	4	Temperatura máxima	17.3
50283	7	Sololá	701	Sololá	1	Sololá	9	Septiembre	2023-09-30T00:00:00	2024-11-08T16:00:00	3	Temperatura mínima	17
50284	7	Sololá	701	Sololá	1	Sololá	9	Septiembre	2023-09-30T00:00:00	2024-11-08T16:00:00	5	Humedad	95
50285	7	Sololá	701	Sololá	1	Sololá	9	Septiembre	2023-09-30T00:00:00	2024-11-08T16:00:00	6	Velocidad del viento	0
50286	7	Sololá	701	Sololá	1	Sololá	9	Septiembre	2023-09-30T00:00:00	2024-11-08T16:00:00	7	Dirección del viento	0
50287	7	Sololá	701	Sololá	1	Sololá	9	Septiembre	2023-09-30T00:00:00	2024-11-08T16:00:00	1	Precipitación	0
50288	7	Sololá	701	Sololá	1	Sololá	9	Septiembre	2023-09-30T00:00:00	2024-11-08T16:00:00	8	Radiación solar	37
50289	7	Sololá	701	Sololá	1	Sololá	9	Septiembre	2023-09-30T00:00:00	2024-11-08T17:00:00	2	Temperatura media	17.2
50290	7	Sololá	701	Sololá	1	Sololá	9	Septiembre	2023-09-30T00:00:00	2024-11-08T17:00:00	4	Temperatura máxima	17.4
50291	7	Sololá	701	Sololá	1	Sololá	9	Septiembre	2023-09-30T00:00:00	2024-11-08T17:00:00	3	Temperatura mínima	17.1
50292	7	Sololá	701	Sololá	1	Sololá	9	Septiembre	2023-09-30T00:00:00	2024-11-08T17:00:00	5	Humedad	95
50293	7	Sololá	701	Sololá	1	Sololá	9	Septiembre	2023-09-30T00:00:00	2024-11-08T17:00:00	6	Velocidad del viento	0
50294	7	Sololá	701	Sololá	1	Sololá	9	Septiembre	2023-09-30T00:00:00	2024-11-08T17:00:00	7	Dirección del viento	0
50295	7	Sololá	701	Sololá	1	Sololá	9	Septiembre	2023-09-30T00:00:00	2024-11-08T17:00:00	1	Precipitación	0
50296	7	Sololá	701	Sololá	1	Sololá	9	Septiembre	2023-09-30T00:00:00	2024-11-08T17:00:00	8	Radiación solar	29
50297	7	Sololá	701	Sololá	1	Sololá	9	Septiembre	2023-09-30T00:00:00	2024-11-08T18:00:00	2	Temperatura media	17.2
50298	7	Sololá	701	Sololá	1	Sololá	9	Septiembre	2023-09-30T00:00:00	2024-11-08T18:00:00	4	Temperatura máxima	17.4
50299	7	Sololá	701	Sololá	1	Sololá	9	Septiembre	2023-09-30T00:00:00	2024-11-08T18:00:00	3	Temperatura mínima	17.1
50300	7	Sololá	701	Sololá	1	Sololá	9	Septiembre	2023-09-30T00:00:00	2024-11-08T18:00:00	5	Humedad	96
50301	7	Sololá	701	Sololá	1	Sololá	9	Septiembre	2023-09-30T00:00:00	2024-11-08T18:00:00	6	Velocidad del viento	0
50302	7	Sololá	701	Sololá	1	Sololá	9	Septiembre	2023-09-30T00:00:00	2024-11-08T18:00:00	7	Dirección del viento	0
50303	7	Sololá	701	Sololá	1	Sololá	9	Septiembre	2023-09-30T00:00:00	2024-11-08T18:00:00	1	Precipitación	0
50304	7	Sololá	701	Sololá	1	Sololá	9	Septiembre	2023-09-30T00:00:00	2024-11-08T18:00:00	8	Radiación solar	2
50305	7	Sololá	701	Sololá	1	Sololá	9	Septiembre	2023-09-30T00:00:00	2024-11-08T19:00:00	2	Temperatura media	17.1
50306	7	Sololá	701	Sololá	1	Sololá	9	Septiembre	2023-09-30T00:00:00	2024-11-08T19:00:00	4	Temperatura máxima	17.3
50307	7	Sololá	701	Sololá	1	Sololá	9	Septiembre	2023-09-30T00:00:00	2024-11-08T19:00:00	3	Temperatura mínima	17.1
50308	7	Sololá	701	Sololá	1	Sololá	9	Septiembre	2023-09-30T00:00:00	2024-11-08T19:00:00	5	Humedad	96
50309	7	Sololá	701	Sololá	1	Sololá	9	Septiembre	2023-09-30T00:00:00	2024-11-08T19:00:00	6	Velocidad del viento	0
50310	7	Sololá	701	Sololá	1	Sololá	9	Septiembre	2023-09-30T00:00:00	2024-11-08T19:00:00	7	Dirección del viento	0
50311	7	Sololá	701	Sololá	1	Sololá	9	Septiembre	2023-09-30T00:00:00	2024-11-08T19:00:00	1	Precipitación	0
50312	7	Sololá	701	Sololá	1	Sololá	9	Septiembre	2023-09-30T00:00:00	2024-11-08T19:00:00	8	Radiación solar	0
50313	7	Sololá	701	Sololá	1	Sololá	9	Septiembre	2023-09-30T00:00:00	2024-11-08T20:00:00	2	Temperatura media	16.9
50314	7	Sololá	701	Sololá	1	Sololá	9	Septiembre	2023-09-30T00:00:00	2024-11-08T20:00:00	4	Temperatura máxima	17.1
50315	7	Sololá	701	Sololá	1	Sololá	9	Septiembre	2023-09-30T00:00:00	2024-11-08T20:00:00	3	Temperatura mínima	16.8
50316	7	Sololá	701	Sololá	1	Sololá	9	Septiembre	2023-09-30T00:00:00	2024-11-08T20:00:00	5	Humedad	96
50317	7	Sololá	701	Sololá	1	Sololá	9	Septiembre	2023-09-30T00:00:00	2024-11-08T20:00:00	6	Velocidad del viento	0
50318	7	Sololá	701	Sololá	1	Sololá	9	Septiembre	2023-09-30T00:00:00	2024-11-08T20:00:00	7	Dirección del viento	0
50319	7	Sololá	701	Sololá	1	Sololá	9	Septiembre	2023-09-30T00:00:00	2024-11-08T20:00:00	1	Precipitación	0
50320	7	Sololá	701	Sololá	1	Sololá	9	Septiembre	2023-09-30T00:00:00	2024-11-08T20:00:00	8	Radiación solar	0
50321	7	Sololá	701	Sololá	1	Sololá	9	Septiembre	2023-09-30T00:00:00	2024-11-08T21:00:00	2	Temperatura media	15.8
50322	7	Sololá	701	Sololá	1	Sololá	9	Septiembre	2023-09-30T00:00:00	2024-11-08T21:00:00	4	Temperatura máxima	16.9
50323	7	Sololá	701	Sololá	1	Sololá	9	Septiembre	2023-09-30T00:00:00	2024-11-08T21:00:00	3	Temperatura mínima	15.7
50324	7	Sololá	701	Sololá	1	Sololá	9	Septiembre	2023-09-30T00:00:00	2024-11-08T21:00:00	5	Humedad	95
50325	7	Sololá	701	Sololá	1	Sololá	9	Septiembre	2023-09-30T00:00:00	2024-11-08T21:00:00	6	Velocidad del viento	0
50326	7	Sololá	701	Sololá	1	Sololá	9	Septiembre	2023-09-30T00:00:00	2024-11-08T21:00:00	7	Dirección del viento	0
50327	7	Sololá	701	Sololá	1	Sololá	9	Septiembre	2023-09-30T00:00:00	2024-11-08T21:00:00	1	Precipitación	1.4
50328	7	Sololá	701	Sololá	1	Sololá	9	Septiembre	2023-09-30T00:00:00	2024-11-08T21:00:00	8	Radiación solar	0
50329	7	Sololá	701	Sololá	1	Sololá	9	Septiembre	2023-09-30T00:00:00	2024-11-08T22:00:00	2	Temperatura media	14.9
50330	7	Sololá	701	Sololá	1	Sololá	9	Septiembre	2023-09-30T00:00:00	2024-11-08T22:00:00	4	Temperatura máxima	15.8
50331	7	Sololá	701	Sololá	1	Sololá	9	Septiembre	2023-09-30T00:00:00	2024-11-08T22:00:00	3	Temperatura mínima	14.8
50332	7	Sololá	701	Sololá	1	Sololá	9	Septiembre	2023-09-30T00:00:00	2024-11-08T22:00:00	5	Humedad	96
50333	7	Sololá	701	Sololá	1	Sololá	9	Septiembre	2023-09-30T00:00:00	2024-11-08T22:00:00	6	Velocidad del viento	0
50334	7	Sololá	701	Sololá	1	Sololá	9	Septiembre	2023-09-30T00:00:00	2024-11-08T22:00:00	7	Dirección del viento	0
50335	7	Sololá	701	Sololá	1	Sololá	9	Septiembre	2023-09-30T00:00:00	2024-11-08T22:00:00	1	Precipitación	3.6
50336	7	Sololá	701	Sololá	1	Sololá	9	Septiembre	2023-09-30T00:00:00	2024-11-08T22:00:00	8	Radiación solar	0
50337	7	Sololá	701	Sololá	1	Sololá	9	Septiembre	2023-09-30T00:00:00	2024-11-08T23:00:00	2	Temperatura media	15
50338	7	Sololá	701	Sololá	1	Sololá	9	Septiembre	2023-09-30T00:00:00	2024-11-08T23:00:00	4	Temperatura máxima	15.1
50339	7	Sololá	701	Sololá	1	Sololá	9	Septiembre	2023-09-30T00:00:00	2024-11-08T23:00:00	3	Temperatura mínima	14.9
50340	7	Sololá	701	Sololá	1	Sololá	9	Septiembre	2023-09-30T00:00:00	2024-11-08T23:00:00	5	Humedad	96
50341	7	Sololá	701	Sololá	1	Sololá	9	Septiembre	2023-09-30T00:00:00	2024-11-08T23:00:00	6	Velocidad del viento	0
50342	7	Sololá	701	Sololá	1	Sololá	9	Septiembre	2023-09-30T00:00:00	2024-11-08T23:00:00	7	Dirección del viento	0
50343	7	Sololá	701	Sololá	1	Sololá	9	Septiembre	2023-09-30T00:00:00	2024-11-08T23:00:00	1	Precipitación	0.2
50344	7	Sololá	701	Sololá	1	Sololá	9	Septiembre	2023-09-30T00:00:00	2024-11-08T23:00:00	8	Radiación solar	0
50345	7	Sololá	701	Sololá	1	Sololá	10	Octubre	2023-01-10T00:00:00	2024-11-08T00:00:00	2	Temperatura media	14.8
50346	7	Sololá	701	Sololá	1	Sololá	10	Octubre	2023-01-10T00:00:00	2024-11-08T00:00:00	4	Temperatura máxima	15.1
50347	7	Sololá	701	Sololá	1	Sololá	10	Octubre	2023-01-10T00:00:00	2024-11-08T00:00:00	3	Temperatura mínima	14.8
50348	7	Sololá	701	Sololá	1	Sololá	10	Octubre	2023-01-10T00:00:00	2024-11-08T00:00:00	5	Humedad	96
50349	7	Sololá	701	Sololá	1	Sololá	10	Octubre	2023-01-10T00:00:00	2024-11-08T00:00:00	6	Velocidad del viento	0
50350	7	Sololá	701	Sololá	1	Sololá	10	Octubre	2023-01-10T00:00:00	2024-11-08T00:00:00	7	Dirección del viento	0
50351	7	Sololá	701	Sololá	1	Sololá	10	Octubre	2023-01-10T00:00:00	2024-11-08T00:00:00	1	Precipitación	0
50352	7	Sololá	701	Sololá	1	Sololá	10	Octubre	2023-01-10T00:00:00	2024-11-08T00:00:00	8	Radiación solar	0
50353	7	Sololá	701	Sololá	1	Sololá	10	Octubre	2023-01-10T00:00:00	2024-11-08T01:00:00	2	Temperatura media	14.5
50354	7	Sololá	701	Sololá	1	Sololá	10	Octubre	2023-01-10T00:00:00	2024-11-08T01:00:00	4	Temperatura máxima	14.9
50355	7	Sololá	701	Sololá	1	Sololá	10	Octubre	2023-01-10T00:00:00	2024-11-08T01:00:00	3	Temperatura mínima	14.5
50356	7	Sololá	701	Sololá	1	Sololá	10	Octubre	2023-01-10T00:00:00	2024-11-08T01:00:00	5	Humedad	96
50357	7	Sololá	701	Sololá	1	Sololá	10	Octubre	2023-01-10T00:00:00	2024-11-08T01:00:00	6	Velocidad del viento	0
50358	7	Sololá	701	Sololá	1	Sololá	10	Octubre	2023-01-10T00:00:00	2024-11-08T01:00:00	7	Dirección del viento	0
50359	7	Sololá	701	Sololá	1	Sololá	10	Octubre	2023-01-10T00:00:00	2024-11-08T01:00:00	1	Precipitación	0
50360	7	Sololá	701	Sololá	1	Sololá	10	Octubre	2023-01-10T00:00:00	2024-11-08T01:00:00	8	Radiación solar	0
50361	7	Sololá	701	Sololá	1	Sololá	10	Octubre	2023-01-10T00:00:00	2024-11-08T02:00:00	2	Temperatura media	14
50362	7	Sololá	701	Sololá	1	Sololá	10	Octubre	2023-01-10T00:00:00	2024-11-08T02:00:00	4	Temperatura máxima	14.5
50363	7	Sololá	701	Sololá	1	Sololá	10	Octubre	2023-01-10T00:00:00	2024-11-08T02:00:00	3	Temperatura mínima	13.9
50364	7	Sololá	701	Sololá	1	Sololá	10	Octubre	2023-01-10T00:00:00	2024-11-08T02:00:00	5	Humedad	96
50365	7	Sololá	701	Sololá	1	Sololá	10	Octubre	2023-01-10T00:00:00	2024-11-08T02:00:00	6	Velocidad del viento	0
50366	7	Sololá	701	Sololá	1	Sololá	10	Octubre	2023-01-10T00:00:00	2024-11-08T02:00:00	7	Dirección del viento	0
50367	7	Sololá	701	Sololá	1	Sololá	10	Octubre	2023-01-10T00:00:00	2024-11-08T02:00:00	1	Precipitación	0
50368	7	Sololá	701	Sololá	1	Sololá	10	Octubre	2023-01-10T00:00:00	2024-11-08T02:00:00	8	Radiación solar	0
50369	7	Sololá	701	Sololá	1	Sololá	10	Octubre	2023-01-10T00:00:00	2024-11-08T03:00:00	2	Temperatura media	13.6
50370	7	Sololá	701	Sololá	1	Sololá	10	Octubre	2023-01-10T00:00:00	2024-11-08T03:00:00	4	Temperatura máxima	14
50371	7	Sololá	701	Sololá	1	Sololá	10	Octubre	2023-01-10T00:00:00	2024-11-08T03:00:00	3	Temperatura mínima	13.6
50372	7	Sololá	701	Sololá	1	Sololá	10	Octubre	2023-01-10T00:00:00	2024-11-08T03:00:00	5	Humedad	96
50373	7	Sololá	701	Sololá	1	Sololá	10	Octubre	2023-01-10T00:00:00	2024-11-08T03:00:00	6	Velocidad del viento	0
50374	7	Sololá	701	Sololá	1	Sololá	10	Octubre	2023-01-10T00:00:00	2024-11-08T03:00:00	7	Dirección del viento	0
50375	7	Sololá	701	Sololá	1	Sololá	10	Octubre	2023-01-10T00:00:00	2024-11-08T03:00:00	1	Precipitación	0
50376	7	Sololá	701	Sololá	1	Sololá	10	Octubre	2023-01-10T00:00:00	2024-11-08T03:00:00	8	Radiación solar	0
50377	7	Sololá	701	Sololá	1	Sololá	10	Octubre	2023-01-10T00:00:00	2024-11-08T04:00:00	2	Temperatura media	13.4
50378	7	Sololá	701	Sololá	1	Sololá	10	Octubre	2023-01-10T00:00:00	2024-11-08T04:00:00	4	Temperatura máxima	13.6
50379	7	Sololá	701	Sololá	1	Sololá	10	Octubre	2023-01-10T00:00:00	2024-11-08T04:00:00	3	Temperatura mínima	13.4
50380	7	Sololá	701	Sololá	1	Sololá	10	Octubre	2023-01-10T00:00:00	2024-11-08T04:00:00	5	Humedad	96
50381	7	Sololá	701	Sololá	1	Sololá	10	Octubre	2023-01-10T00:00:00	2024-11-08T04:00:00	6	Velocidad del viento	0
50382	7	Sololá	701	Sololá	1	Sololá	10	Octubre	2023-01-10T00:00:00	2024-11-08T04:00:00	7	Dirección del viento	0
50383	7	Sololá	701	Sololá	1	Sololá	10	Octubre	2023-01-10T00:00:00	2024-11-08T04:00:00	1	Precipitación	0
50384	7	Sololá	701	Sololá	1	Sololá	10	Octubre	2023-01-10T00:00:00	2024-11-08T04:00:00	8	Radiación solar	0
50385	7	Sololá	701	Sololá	1	Sololá	10	Octubre	2023-01-10T00:00:00	2024-11-08T05:00:00	2	Temperatura media	13.1
50386	7	Sololá	701	Sololá	1	Sololá	10	Octubre	2023-01-10T00:00:00	2024-11-08T05:00:00	4	Temperatura máxima	13.4
50387	7	Sololá	701	Sololá	1	Sololá	10	Octubre	2023-01-10T00:00:00	2024-11-08T05:00:00	3	Temperatura mínima	13.1
50388	7	Sololá	701	Sololá	1	Sololá	10	Octubre	2023-01-10T00:00:00	2024-11-08T05:00:00	5	Humedad	96
50389	7	Sololá	701	Sololá	1	Sololá	10	Octubre	2023-01-10T00:00:00	2024-11-08T05:00:00	6	Velocidad del viento	0
50390	7	Sololá	701	Sololá	1	Sololá	10	Octubre	2023-01-10T00:00:00	2024-11-08T05:00:00	7	Dirección del viento	0
50391	7	Sololá	701	Sololá	1	Sololá	10	Octubre	2023-01-10T00:00:00	2024-11-08T05:00:00	1	Precipitación	0
50392	7	Sololá	701	Sololá	1	Sololá	10	Octubre	2023-01-10T00:00:00	2024-11-08T05:00:00	8	Radiación solar	0
50393	7	Sololá	701	Sololá	1	Sololá	10	Octubre	2023-01-10T00:00:00	2024-11-08T06:00:00	2	Temperatura media	12.9
50394	7	Sololá	701	Sololá	1	Sololá	10	Octubre	2023-01-10T00:00:00	2024-11-08T06:00:00	4	Temperatura máxima	13.1
50395	7	Sololá	701	Sololá	1	Sololá	10	Octubre	2023-01-10T00:00:00	2024-11-08T06:00:00	3	Temperatura mínima	12.9
50396	7	Sololá	701	Sololá	1	Sololá	10	Octubre	2023-01-10T00:00:00	2024-11-08T06:00:00	5	Humedad	96
50397	7	Sololá	701	Sololá	1	Sololá	10	Octubre	2023-01-10T00:00:00	2024-11-08T06:00:00	6	Velocidad del viento	0
50398	7	Sololá	701	Sololá	1	Sololá	10	Octubre	2023-01-10T00:00:00	2024-11-08T06:00:00	7	Dirección del viento	0
50399	7	Sololá	701	Sololá	1	Sololá	10	Octubre	2023-01-10T00:00:00	2024-11-08T06:00:00	1	Precipitación	0
50400	7	Sololá	701	Sololá	1	Sololá	10	Octubre	2023-01-10T00:00:00	2024-11-08T06:00:00	8	Radiación solar	0
50401	7	Sololá	701	Sololá	1	Sololá	10	Octubre	2023-01-10T00:00:00	2024-11-08T07:00:00	2	Temperatura media	13.3
50402	7	Sololá	701	Sololá	1	Sololá	10	Octubre	2023-01-10T00:00:00	2024-11-08T07:00:00	4	Temperatura máxima	13.3
50403	7	Sololá	701	Sololá	1	Sololá	10	Octubre	2023-01-10T00:00:00	2024-11-08T07:00:00	3	Temperatura mínima	12.9
50404	7	Sololá	701	Sololá	1	Sololá	10	Octubre	2023-01-10T00:00:00	2024-11-08T07:00:00	5	Humedad	96
50405	7	Sololá	701	Sololá	1	Sololá	10	Octubre	2023-01-10T00:00:00	2024-11-08T07:00:00	6	Velocidad del viento	0
50406	7	Sololá	701	Sololá	1	Sololá	10	Octubre	2023-01-10T00:00:00	2024-11-08T07:00:00	7	Dirección del viento	0
50407	7	Sololá	701	Sololá	1	Sololá	10	Octubre	2023-01-10T00:00:00	2024-11-08T07:00:00	1	Precipitación	0
50408	7	Sololá	701	Sololá	1	Sololá	10	Octubre	2023-01-10T00:00:00	2024-11-08T07:00:00	8	Radiación solar	14
50409	7	Sololá	701	Sololá	1	Sololá	10	Octubre	2023-01-10T00:00:00	2024-11-08T08:00:00	2	Temperatura media	15.3
50410	7	Sololá	701	Sololá	1	Sololá	10	Octubre	2023-01-10T00:00:00	2024-11-08T08:00:00	4	Temperatura máxima	15.3
50411	7	Sololá	701	Sololá	1	Sololá	10	Octubre	2023-01-10T00:00:00	2024-11-08T08:00:00	3	Temperatura mínima	13.3
50412	7	Sololá	701	Sololá	1	Sololá	10	Octubre	2023-01-10T00:00:00	2024-11-08T08:00:00	5	Humedad	95
50413	7	Sololá	701	Sololá	1	Sololá	10	Octubre	2023-01-10T00:00:00	2024-11-08T08:00:00	6	Velocidad del viento	0
50414	7	Sololá	701	Sololá	1	Sololá	10	Octubre	2023-01-10T00:00:00	2024-11-08T08:00:00	7	Dirección del viento	0
50415	7	Sololá	701	Sololá	1	Sololá	10	Octubre	2023-01-10T00:00:00	2024-11-08T08:00:00	1	Precipitación	0
50416	7	Sololá	701	Sololá	1	Sololá	10	Octubre	2023-01-10T00:00:00	2024-11-08T08:00:00	8	Radiación solar	126
50417	7	Sololá	701	Sololá	1	Sololá	10	Octubre	2023-01-10T00:00:00	2024-11-08T09:00:00	2	Temperatura media	20.1
50418	7	Sololá	701	Sololá	1	Sololá	10	Octubre	2023-01-10T00:00:00	2024-11-08T09:00:00	4	Temperatura máxima	20.1
50419	7	Sololá	701	Sololá	1	Sololá	10	Octubre	2023-01-10T00:00:00	2024-11-08T09:00:00	3	Temperatura mínima	15.3
50420	7	Sololá	701	Sololá	1	Sololá	10	Octubre	2023-01-10T00:00:00	2024-11-08T09:00:00	5	Humedad	83
50421	7	Sololá	701	Sololá	1	Sololá	10	Octubre	2023-01-10T00:00:00	2024-11-08T09:00:00	6	Velocidad del viento	0
50422	7	Sololá	701	Sololá	1	Sololá	10	Octubre	2023-01-10T00:00:00	2024-11-08T09:00:00	7	Dirección del viento	0
50423	7	Sololá	701	Sololá	1	Sololá	10	Octubre	2023-01-10T00:00:00	2024-11-08T09:00:00	1	Precipitación	0
50424	7	Sololá	701	Sololá	1	Sololá	10	Octubre	2023-01-10T00:00:00	2024-11-08T09:00:00	8	Radiación solar	532
50425	7	Sololá	701	Sololá	1	Sololá	10	Octubre	2023-01-10T00:00:00	2024-11-08T10:00:00	2	Temperatura media	22.4
50426	7	Sololá	701	Sololá	1	Sololá	10	Octubre	2023-01-10T00:00:00	2024-11-08T10:00:00	4	Temperatura máxima	22.4
50427	7	Sololá	701	Sololá	1	Sololá	10	Octubre	2023-01-10T00:00:00	2024-11-08T10:00:00	3	Temperatura mínima	20.1
50428	7	Sololá	701	Sololá	1	Sololá	10	Octubre	2023-01-10T00:00:00	2024-11-08T10:00:00	5	Humedad	69
50429	7	Sololá	701	Sololá	1	Sololá	10	Octubre	2023-01-10T00:00:00	2024-11-08T10:00:00	6	Velocidad del viento	0
50430	7	Sololá	701	Sololá	1	Sololá	10	Octubre	2023-01-10T00:00:00	2024-11-08T10:00:00	7	Dirección del viento	0
50431	7	Sololá	701	Sololá	1	Sololá	10	Octubre	2023-01-10T00:00:00	2024-11-08T10:00:00	1	Precipitación	0
50432	7	Sololá	701	Sololá	1	Sololá	10	Octubre	2023-01-10T00:00:00	2024-11-08T10:00:00	8	Radiación solar	848
50433	7	Sololá	701	Sololá	1	Sololá	10	Octubre	2023-01-10T00:00:00	2024-11-08T11:00:00	2	Temperatura media	21.1
50434	7	Sololá	701	Sololá	1	Sololá	10	Octubre	2023-01-10T00:00:00	2024-11-08T11:00:00	4	Temperatura máxima	22.8
50435	7	Sololá	701	Sololá	1	Sololá	10	Octubre	2023-01-10T00:00:00	2024-11-08T11:00:00	3	Temperatura mínima	20.9
50436	7	Sololá	701	Sololá	1	Sololá	10	Octubre	2023-01-10T00:00:00	2024-11-08T11:00:00	5	Humedad	79
50437	7	Sololá	701	Sololá	1	Sololá	10	Octubre	2023-01-10T00:00:00	2024-11-08T11:00:00	6	Velocidad del viento	0
50438	7	Sololá	701	Sololá	1	Sololá	10	Octubre	2023-01-10T00:00:00	2024-11-08T11:00:00	7	Dirección del viento	0
50439	7	Sololá	701	Sololá	1	Sololá	10	Octubre	2023-01-10T00:00:00	2024-11-08T11:00:00	1	Precipitación	0
50440	7	Sololá	701	Sololá	1	Sololá	10	Octubre	2023-01-10T00:00:00	2024-11-08T11:00:00	8	Radiación solar	702
50441	7	Sololá	701	Sololá	1	Sololá	10	Octubre	2023-01-10T00:00:00	2024-11-08T12:00:00	2	Temperatura media	21.7
50442	7	Sololá	701	Sololá	1	Sololá	10	Octubre	2023-01-10T00:00:00	2024-11-08T12:00:00	4	Temperatura máxima	22.1
50443	7	Sololá	701	Sololá	1	Sololá	10	Octubre	2023-01-10T00:00:00	2024-11-08T12:00:00	3	Temperatura mínima	21.1
50444	7	Sololá	701	Sololá	1	Sololá	10	Octubre	2023-01-10T00:00:00	2024-11-08T12:00:00	5	Humedad	82
50445	7	Sololá	701	Sololá	1	Sololá	10	Octubre	2023-01-10T00:00:00	2024-11-08T12:00:00	6	Velocidad del viento	0
50446	7	Sololá	701	Sololá	1	Sololá	10	Octubre	2023-01-10T00:00:00	2024-11-08T12:00:00	7	Dirección del viento	0
50447	7	Sololá	701	Sololá	1	Sololá	10	Octubre	2023-01-10T00:00:00	2024-11-08T12:00:00	1	Precipitación	0
50448	7	Sololá	701	Sololá	1	Sololá	10	Octubre	2023-01-10T00:00:00	2024-11-08T12:00:00	8	Radiación solar	439
50449	7	Sololá	701	Sololá	1	Sololá	10	Octubre	2023-01-10T00:00:00	2024-11-08T13:00:00	2	Temperatura media	21.4
50450	7	Sololá	701	Sololá	1	Sololá	10	Octubre	2023-01-10T00:00:00	2024-11-08T13:00:00	4	Temperatura máxima	21.8
50451	7	Sololá	701	Sololá	1	Sololá	10	Octubre	2023-01-10T00:00:00	2024-11-08T13:00:00	3	Temperatura mínima	21.3
50452	7	Sololá	701	Sololá	1	Sololá	10	Octubre	2023-01-10T00:00:00	2024-11-08T13:00:00	5	Humedad	82
50453	7	Sololá	701	Sololá	1	Sololá	10	Octubre	2023-01-10T00:00:00	2024-11-08T13:00:00	6	Velocidad del viento	0
50454	7	Sololá	701	Sololá	1	Sololá	10	Octubre	2023-01-10T00:00:00	2024-11-08T13:00:00	7	Dirección del viento	0
50455	7	Sololá	701	Sololá	1	Sololá	10	Octubre	2023-01-10T00:00:00	2024-11-08T13:00:00	1	Precipitación	0
50456	7	Sololá	701	Sololá	1	Sololá	10	Octubre	2023-01-10T00:00:00	2024-11-08T13:00:00	8	Radiación solar	233
50457	7	Sololá	701	Sololá	1	Sololá	10	Octubre	2023-01-10T00:00:00	2024-11-08T14:00:00	2	Temperatura media	21.3
50458	7	Sololá	701	Sololá	1	Sololá	10	Octubre	2023-01-10T00:00:00	2024-11-08T14:00:00	4	Temperatura máxima	22.3
50459	7	Sololá	701	Sololá	1	Sololá	10	Octubre	2023-01-10T00:00:00	2024-11-08T14:00:00	3	Temperatura mínima	21.3
50460	7	Sololá	701	Sololá	1	Sololá	10	Octubre	2023-01-10T00:00:00	2024-11-08T14:00:00	5	Humedad	84
50461	7	Sololá	701	Sololá	1	Sololá	10	Octubre	2023-01-10T00:00:00	2024-11-08T14:00:00	6	Velocidad del viento	0
50462	7	Sololá	701	Sololá	1	Sololá	10	Octubre	2023-01-10T00:00:00	2024-11-08T14:00:00	7	Dirección del viento	0
50463	7	Sololá	701	Sololá	1	Sololá	10	Octubre	2023-01-10T00:00:00	2024-11-08T14:00:00	1	Precipitación	0
50464	7	Sololá	701	Sololá	1	Sololá	10	Octubre	2023-01-10T00:00:00	2024-11-08T14:00:00	8	Radiación solar	153
50465	7	Sololá	701	Sololá	1	Sololá	10	Octubre	2023-01-10T00:00:00	2024-11-08T15:00:00	2	Temperatura media	19.7
50466	7	Sololá	701	Sololá	1	Sololá	10	Octubre	2023-01-10T00:00:00	2024-11-08T15:00:00	4	Temperatura máxima	21.3
50467	7	Sololá	701	Sololá	1	Sololá	10	Octubre	2023-01-10T00:00:00	2024-11-08T15:00:00	3	Temperatura mínima	19.7
50468	7	Sololá	701	Sololá	1	Sololá	10	Octubre	2023-01-10T00:00:00	2024-11-08T15:00:00	5	Humedad	90
50469	7	Sololá	701	Sololá	1	Sololá	10	Octubre	2023-01-10T00:00:00	2024-11-08T15:00:00	6	Velocidad del viento	0
50470	7	Sololá	701	Sololá	1	Sololá	10	Octubre	2023-01-10T00:00:00	2024-11-08T15:00:00	7	Dirección del viento	0
50471	7	Sololá	701	Sololá	1	Sololá	10	Octubre	2023-01-10T00:00:00	2024-11-08T15:00:00	1	Precipitación	0
50472	7	Sololá	701	Sololá	1	Sololá	10	Octubre	2023-01-10T00:00:00	2024-11-08T15:00:00	8	Radiación solar	56
50473	7	Sololá	701	Sololá	1	Sololá	10	Octubre	2023-01-10T00:00:00	2024-11-08T16:00:00	2	Temperatura media	18.8
50474	7	Sololá	701	Sololá	1	Sololá	10	Octubre	2023-01-10T00:00:00	2024-11-08T16:00:00	4	Temperatura máxima	19.7
50475	7	Sololá	701	Sololá	1	Sololá	10	Octubre	2023-01-10T00:00:00	2024-11-08T16:00:00	3	Temperatura mínima	18.8
50476	7	Sololá	701	Sololá	1	Sololá	10	Octubre	2023-01-10T00:00:00	2024-11-08T16:00:00	5	Humedad	92
50477	7	Sololá	701	Sololá	1	Sololá	10	Octubre	2023-01-10T00:00:00	2024-11-08T16:00:00	6	Velocidad del viento	0
50478	7	Sololá	701	Sololá	1	Sololá	10	Octubre	2023-01-10T00:00:00	2024-11-08T16:00:00	7	Dirección del viento	0
50479	7	Sololá	701	Sololá	1	Sololá	10	Octubre	2023-01-10T00:00:00	2024-11-08T16:00:00	1	Precipitación	0
50480	7	Sololá	701	Sololá	1	Sololá	10	Octubre	2023-01-10T00:00:00	2024-11-08T16:00:00	8	Radiación solar	37
50481	7	Sololá	701	Sololá	1	Sololá	10	Octubre	2023-01-10T00:00:00	2024-11-08T17:00:00	2	Temperatura media	18.2
50482	7	Sololá	701	Sololá	1	Sololá	10	Octubre	2023-01-10T00:00:00	2024-11-08T17:00:00	4	Temperatura máxima	18.8
50483	7	Sololá	701	Sololá	1	Sololá	10	Octubre	2023-01-10T00:00:00	2024-11-08T17:00:00	3	Temperatura mínima	18.2
50484	7	Sololá	701	Sololá	1	Sololá	10	Octubre	2023-01-10T00:00:00	2024-11-08T17:00:00	5	Humedad	94
50485	7	Sololá	701	Sololá	1	Sololá	10	Octubre	2023-01-10T00:00:00	2024-11-08T17:00:00	6	Velocidad del viento	0
50486	7	Sololá	701	Sololá	1	Sololá	10	Octubre	2023-01-10T00:00:00	2024-11-08T17:00:00	7	Dirección del viento	0
50487	7	Sololá	701	Sololá	1	Sololá	10	Octubre	2023-01-10T00:00:00	2024-11-08T17:00:00	1	Precipitación	0
50488	7	Sololá	701	Sololá	1	Sololá	10	Octubre	2023-01-10T00:00:00	2024-11-08T17:00:00	8	Radiación solar	10
50489	7	Sololá	701	Sololá	1	Sololá	10	Octubre	2023-01-10T00:00:00	2024-11-08T18:00:00	2	Temperatura media	17.4
50490	7	Sololá	701	Sololá	1	Sololá	10	Octubre	2023-01-10T00:00:00	2024-11-08T18:00:00	4	Temperatura máxima	18.2
50491	7	Sololá	701	Sololá	1	Sololá	10	Octubre	2023-01-10T00:00:00	2024-11-08T18:00:00	3	Temperatura mínima	17.4
50492	7	Sololá	701	Sololá	1	Sololá	10	Octubre	2023-01-10T00:00:00	2024-11-08T18:00:00	5	Humedad	94
50493	7	Sololá	701	Sololá	1	Sololá	10	Octubre	2023-01-10T00:00:00	2024-11-08T18:00:00	6	Velocidad del viento	0
50494	7	Sololá	701	Sololá	1	Sololá	10	Octubre	2023-01-10T00:00:00	2024-11-08T18:00:00	7	Dirección del viento	0
50495	7	Sololá	701	Sololá	1	Sololá	10	Octubre	2023-01-10T00:00:00	2024-11-08T18:00:00	1	Precipitación	0
50496	7	Sololá	701	Sololá	1	Sololá	10	Octubre	2023-01-10T00:00:00	2024-11-08T18:00:00	8	Radiación solar	3
50497	7	Sololá	701	Sololá	1	Sololá	10	Octubre	2023-01-10T00:00:00	2024-11-08T19:00:00	2	Temperatura media	16.7
50498	7	Sololá	701	Sololá	1	Sololá	10	Octubre	2023-01-10T00:00:00	2024-11-08T19:00:00	4	Temperatura máxima	17.4
50499	7	Sololá	701	Sololá	1	Sololá	10	Octubre	2023-01-10T00:00:00	2024-11-08T19:00:00	3	Temperatura mínima	16.7
50500	7	Sololá	701	Sololá	1	Sololá	10	Octubre	2023-01-10T00:00:00	2024-11-08T19:00:00	5	Humedad	95
50501	7	Sololá	701	Sololá	1	Sololá	10	Octubre	2023-01-10T00:00:00	2024-11-08T19:00:00	6	Velocidad del viento	0
50502	7	Sololá	701	Sololá	1	Sololá	10	Octubre	2023-01-10T00:00:00	2024-11-08T19:00:00	7	Dirección del viento	0
50503	7	Sololá	701	Sololá	1	Sololá	10	Octubre	2023-01-10T00:00:00	2024-11-08T19:00:00	1	Precipitación	0
50504	7	Sololá	701	Sololá	1	Sololá	10	Octubre	2023-01-10T00:00:00	2024-11-08T19:00:00	8	Radiación solar	0
50505	7	Sololá	701	Sololá	1	Sololá	10	Octubre	2023-01-10T00:00:00	2024-11-08T20:00:00	2	Temperatura media	16.4
50506	7	Sololá	701	Sololá	1	Sololá	10	Octubre	2023-01-10T00:00:00	2024-11-08T20:00:00	4	Temperatura máxima	16.7
50507	7	Sololá	701	Sololá	1	Sololá	10	Octubre	2023-01-10T00:00:00	2024-11-08T20:00:00	3	Temperatura mínima	16.4
50508	7	Sololá	701	Sololá	1	Sololá	10	Octubre	2023-01-10T00:00:00	2024-11-08T20:00:00	5	Humedad	95
50509	7	Sololá	701	Sololá	1	Sololá	10	Octubre	2023-01-10T00:00:00	2024-11-08T20:00:00	6	Velocidad del viento	0
50510	7	Sololá	701	Sololá	1	Sololá	10	Octubre	2023-01-10T00:00:00	2024-11-08T20:00:00	7	Dirección del viento	0
50511	7	Sololá	701	Sololá	1	Sololá	10	Octubre	2023-01-10T00:00:00	2024-11-08T20:00:00	1	Precipitación	0
50512	7	Sololá	701	Sololá	1	Sololá	10	Octubre	2023-01-10T00:00:00	2024-11-08T20:00:00	8	Radiación solar	0
50513	7	Sololá	701	Sololá	1	Sololá	10	Octubre	2023-01-10T00:00:00	2024-11-08T21:00:00	2	Temperatura media	16.3
50514	7	Sololá	701	Sololá	1	Sololá	10	Octubre	2023-01-10T00:00:00	2024-11-08T21:00:00	4	Temperatura máxima	16.4
50515	7	Sololá	701	Sololá	1	Sololá	10	Octubre	2023-01-10T00:00:00	2024-11-08T21:00:00	3	Temperatura mínima	16.3
50516	7	Sololá	701	Sololá	1	Sololá	10	Octubre	2023-01-10T00:00:00	2024-11-08T21:00:00	5	Humedad	95
50517	7	Sololá	701	Sololá	1	Sololá	10	Octubre	2023-01-10T00:00:00	2024-11-08T21:00:00	6	Velocidad del viento	0
50518	7	Sololá	701	Sololá	1	Sololá	10	Octubre	2023-01-10T00:00:00	2024-11-08T21:00:00	7	Dirección del viento	0
50519	7	Sololá	701	Sololá	1	Sololá	10	Octubre	2023-01-10T00:00:00	2024-11-08T21:00:00	1	Precipitación	11.4
50520	7	Sololá	701	Sololá	1	Sololá	10	Octubre	2023-01-10T00:00:00	2024-11-08T21:00:00	8	Radiación solar	0
50521	7	Sololá	701	Sololá	1	Sololá	10	Octubre	2023-01-10T00:00:00	2024-11-08T22:00:00	2	Temperatura media	16.1
50522	7	Sololá	701	Sololá	1	Sololá	10	Octubre	2023-01-10T00:00:00	2024-11-08T22:00:00	4	Temperatura máxima	16.3
50523	7	Sololá	701	Sololá	1	Sololá	10	Octubre	2023-01-10T00:00:00	2024-11-08T22:00:00	3	Temperatura mínima	16.1
50524	7	Sololá	701	Sololá	1	Sololá	10	Octubre	2023-01-10T00:00:00	2024-11-08T22:00:00	5	Humedad	95
50525	7	Sololá	701	Sololá	1	Sololá	10	Octubre	2023-01-10T00:00:00	2024-11-08T22:00:00	6	Velocidad del viento	0
50526	7	Sololá	701	Sololá	1	Sololá	10	Octubre	2023-01-10T00:00:00	2024-11-08T22:00:00	7	Dirección del viento	0
50527	7	Sololá	701	Sololá	1	Sololá	10	Octubre	2023-01-10T00:00:00	2024-11-08T22:00:00	1	Precipitación	0.4
50528	7	Sololá	701	Sololá	1	Sololá	10	Octubre	2023-01-10T00:00:00	2024-11-08T22:00:00	8	Radiación solar	0
50529	7	Sololá	701	Sololá	1	Sololá	10	Octubre	2023-01-10T00:00:00	2024-11-08T23:00:00	2	Temperatura media	15.7
50530	7	Sololá	701	Sololá	1	Sololá	10	Octubre	2023-01-10T00:00:00	2024-11-08T23:00:00	4	Temperatura máxima	16.1
50531	7	Sololá	701	Sololá	1	Sololá	10	Octubre	2023-01-10T00:00:00	2024-11-08T23:00:00	3	Temperatura mínima	15.7
50532	7	Sololá	701	Sololá	1	Sololá	10	Octubre	2023-01-10T00:00:00	2024-11-08T23:00:00	5	Humedad	95
50533	7	Sololá	701	Sololá	1	Sololá	10	Octubre	2023-01-10T00:00:00	2024-11-08T23:00:00	6	Velocidad del viento	0
50534	7	Sololá	701	Sololá	1	Sololá	10	Octubre	2023-01-10T00:00:00	2024-11-08T23:00:00	7	Dirección del viento	0
50535	7	Sololá	701	Sololá	1	Sololá	10	Octubre	2023-01-10T00:00:00	2024-11-08T23:00:00	1	Precipitación	0
50536	7	Sololá	701	Sololá	1	Sololá	10	Octubre	2023-01-10T00:00:00	2024-11-08T23:00:00	8	Radiación solar	0
50537	7	Sololá	701	Sololá	1	Sololá	10	Octubre	2023-02-10T00:00:00	2024-11-08T00:00:00	2	Temperatura media	15.7
50538	7	Sololá	701	Sololá	1	Sololá	10	Octubre	2023-02-10T00:00:00	2024-11-08T00:00:00	4	Temperatura máxima	15.8
50539	7	Sololá	701	Sololá	1	Sololá	10	Octubre	2023-02-10T00:00:00	2024-11-08T00:00:00	3	Temperatura mínima	15.6
50540	7	Sololá	701	Sololá	1	Sololá	10	Octubre	2023-02-10T00:00:00	2024-11-08T00:00:00	5	Humedad	96
50541	7	Sololá	701	Sololá	1	Sololá	10	Octubre	2023-02-10T00:00:00	2024-11-08T00:00:00	6	Velocidad del viento	0
50542	7	Sololá	701	Sololá	1	Sololá	10	Octubre	2023-02-10T00:00:00	2024-11-08T00:00:00	7	Dirección del viento	0
50543	7	Sololá	701	Sololá	1	Sololá	10	Octubre	2023-02-10T00:00:00	2024-11-08T00:00:00	1	Precipitación	0
50544	7	Sololá	701	Sololá	1	Sololá	10	Octubre	2023-02-10T00:00:00	2024-11-08T00:00:00	8	Radiación solar	0
50545	7	Sololá	701	Sololá	1	Sololá	10	Octubre	2023-02-10T00:00:00	2024-11-08T01:00:00	2	Temperatura media	15.2
50546	7	Sololá	701	Sololá	1	Sololá	10	Octubre	2023-02-10T00:00:00	2024-11-08T01:00:00	4	Temperatura máxima	15.7
50547	7	Sololá	701	Sololá	1	Sololá	10	Octubre	2023-02-10T00:00:00	2024-11-08T01:00:00	3	Temperatura mínima	15.2
50548	7	Sololá	701	Sololá	1	Sololá	10	Octubre	2023-02-10T00:00:00	2024-11-08T01:00:00	5	Humedad	96
50549	7	Sololá	701	Sololá	1	Sololá	10	Octubre	2023-02-10T00:00:00	2024-11-08T01:00:00	6	Velocidad del viento	0
50550	7	Sololá	701	Sololá	1	Sololá	10	Octubre	2023-02-10T00:00:00	2024-11-08T01:00:00	7	Dirección del viento	0
50551	7	Sololá	701	Sololá	1	Sololá	10	Octubre	2023-02-10T00:00:00	2024-11-08T01:00:00	1	Precipitación	0
50552	7	Sololá	701	Sololá	1	Sololá	10	Octubre	2023-02-10T00:00:00	2024-11-08T01:00:00	8	Radiación solar	0
50553	7	Sololá	701	Sololá	1	Sololá	10	Octubre	2023-02-10T00:00:00	2024-11-08T02:00:00	2	Temperatura media	14.8
50554	7	Sololá	701	Sololá	1	Sololá	10	Octubre	2023-02-10T00:00:00	2024-11-08T02:00:00	4	Temperatura máxima	15.2
50555	7	Sololá	701	Sololá	1	Sololá	10	Octubre	2023-02-10T00:00:00	2024-11-08T02:00:00	3	Temperatura mínima	14.8
50556	7	Sololá	701	Sololá	1	Sololá	10	Octubre	2023-02-10T00:00:00	2024-11-08T02:00:00	5	Humedad	95
50557	7	Sololá	701	Sololá	1	Sololá	10	Octubre	2023-02-10T00:00:00	2024-11-08T02:00:00	6	Velocidad del viento	0
50558	7	Sololá	701	Sololá	1	Sololá	10	Octubre	2023-02-10T00:00:00	2024-11-08T02:00:00	7	Dirección del viento	0
50559	7	Sololá	701	Sololá	1	Sololá	10	Octubre	2023-02-10T00:00:00	2024-11-08T02:00:00	1	Precipitación	0
50560	7	Sololá	701	Sololá	1	Sololá	10	Octubre	2023-02-10T00:00:00	2024-11-08T02:00:00	8	Radiación solar	0
50561	7	Sololá	701	Sololá	1	Sololá	10	Octubre	2023-02-10T00:00:00	2024-11-08T03:00:00	2	Temperatura media	14.4
50562	7	Sololá	701	Sololá	1	Sololá	10	Octubre	2023-02-10T00:00:00	2024-11-08T03:00:00	4	Temperatura máxima	14.8
50563	7	Sololá	701	Sololá	1	Sololá	10	Octubre	2023-02-10T00:00:00	2024-11-08T03:00:00	3	Temperatura mínima	14.3
50564	7	Sololá	701	Sololá	1	Sololá	10	Octubre	2023-02-10T00:00:00	2024-11-08T03:00:00	5	Humedad	96
50565	7	Sololá	701	Sololá	1	Sololá	10	Octubre	2023-02-10T00:00:00	2024-11-08T03:00:00	6	Velocidad del viento	0
50566	7	Sololá	701	Sololá	1	Sololá	10	Octubre	2023-02-10T00:00:00	2024-11-08T03:00:00	7	Dirección del viento	0
50567	7	Sololá	701	Sololá	1	Sololá	10	Octubre	2023-02-10T00:00:00	2024-11-08T03:00:00	1	Precipitación	0
50568	7	Sololá	701	Sololá	1	Sololá	10	Octubre	2023-02-10T00:00:00	2024-11-08T03:00:00	8	Radiación solar	0
50569	7	Sololá	701	Sololá	1	Sololá	10	Octubre	2023-02-10T00:00:00	2024-11-08T04:00:00	2	Temperatura media	13.8
50570	7	Sololá	701	Sololá	1	Sololá	10	Octubre	2023-02-10T00:00:00	2024-11-08T04:00:00	4	Temperatura máxima	14.4
50571	7	Sololá	701	Sololá	1	Sololá	10	Octubre	2023-02-10T00:00:00	2024-11-08T04:00:00	3	Temperatura mínima	13.8
50572	7	Sololá	701	Sololá	1	Sololá	10	Octubre	2023-02-10T00:00:00	2024-11-08T04:00:00	5	Humedad	95
50573	7	Sololá	701	Sololá	1	Sololá	10	Octubre	2023-02-10T00:00:00	2024-11-08T04:00:00	6	Velocidad del viento	0
50574	7	Sololá	701	Sololá	1	Sololá	10	Octubre	2023-02-10T00:00:00	2024-11-08T04:00:00	7	Dirección del viento	0
50575	7	Sololá	701	Sololá	1	Sololá	10	Octubre	2023-02-10T00:00:00	2024-11-08T04:00:00	1	Precipitación	0
50576	7	Sololá	701	Sololá	1	Sololá	10	Octubre	2023-02-10T00:00:00	2024-11-08T04:00:00	8	Radiación solar	0
50577	7	Sololá	701	Sololá	1	Sololá	10	Octubre	2023-02-10T00:00:00	2024-11-08T05:00:00	2	Temperatura media	13.4
50578	7	Sololá	701	Sololá	1	Sololá	10	Octubre	2023-02-10T00:00:00	2024-11-08T05:00:00	4	Temperatura máxima	13.9
50579	7	Sololá	701	Sololá	1	Sololá	10	Octubre	2023-02-10T00:00:00	2024-11-08T05:00:00	3	Temperatura mínima	13.4
50580	7	Sololá	701	Sololá	1	Sololá	10	Octubre	2023-02-10T00:00:00	2024-11-08T05:00:00	5	Humedad	96
50581	7	Sololá	701	Sololá	1	Sololá	10	Octubre	2023-02-10T00:00:00	2024-11-08T05:00:00	6	Velocidad del viento	0
50582	7	Sololá	701	Sololá	1	Sololá	10	Octubre	2023-02-10T00:00:00	2024-11-08T05:00:00	7	Dirección del viento	0
50583	7	Sololá	701	Sololá	1	Sololá	10	Octubre	2023-02-10T00:00:00	2024-11-08T05:00:00	1	Precipitación	0
50584	7	Sololá	701	Sololá	1	Sololá	10	Octubre	2023-02-10T00:00:00	2024-11-08T05:00:00	8	Radiación solar	0
50585	7	Sololá	701	Sololá	1	Sololá	10	Octubre	2023-02-10T00:00:00	2024-11-08T06:00:00	2	Temperatura media	13.2
50586	7	Sololá	701	Sololá	1	Sololá	10	Octubre	2023-02-10T00:00:00	2024-11-08T06:00:00	4	Temperatura máxima	13.4
50587	7	Sololá	701	Sololá	1	Sololá	10	Octubre	2023-02-10T00:00:00	2024-11-08T06:00:00	3	Temperatura mínima	13.1
50588	7	Sololá	701	Sololá	1	Sololá	10	Octubre	2023-02-10T00:00:00	2024-11-08T06:00:00	5	Humedad	96
50589	7	Sololá	701	Sololá	1	Sololá	10	Octubre	2023-02-10T00:00:00	2024-11-08T06:00:00	6	Velocidad del viento	0
50590	7	Sololá	701	Sololá	1	Sololá	10	Octubre	2023-02-10T00:00:00	2024-11-08T06:00:00	7	Dirección del viento	0
50591	7	Sololá	701	Sololá	1	Sololá	10	Octubre	2023-02-10T00:00:00	2024-11-08T06:00:00	1	Precipitación	0
50592	7	Sololá	701	Sololá	1	Sololá	10	Octubre	2023-02-10T00:00:00	2024-11-08T06:00:00	8	Radiación solar	0
50593	7	Sololá	701	Sololá	1	Sololá	10	Octubre	2023-02-10T00:00:00	2024-11-08T07:00:00	2	Temperatura media	13.9
50594	7	Sololá	701	Sololá	1	Sololá	10	Octubre	2023-02-10T00:00:00	2024-11-08T07:00:00	4	Temperatura máxima	13.9
50595	7	Sololá	701	Sololá	1	Sololá	10	Octubre	2023-02-10T00:00:00	2024-11-08T07:00:00	3	Temperatura mínima	13.1
50596	7	Sololá	701	Sololá	1	Sololá	10	Octubre	2023-02-10T00:00:00	2024-11-08T07:00:00	5	Humedad	96
50597	7	Sololá	701	Sololá	1	Sololá	10	Octubre	2023-02-10T00:00:00	2024-11-08T07:00:00	6	Velocidad del viento	0
50598	7	Sololá	701	Sololá	1	Sololá	10	Octubre	2023-02-10T00:00:00	2024-11-08T07:00:00	7	Dirección del viento	0
50599	7	Sololá	701	Sololá	1	Sololá	10	Octubre	2023-02-10T00:00:00	2024-11-08T07:00:00	1	Precipitación	0
50600	7	Sololá	701	Sololá	1	Sololá	10	Octubre	2023-02-10T00:00:00	2024-11-08T07:00:00	8	Radiación solar	24
50601	7	Sololá	701	Sololá	1	Sololá	10	Octubre	2023-02-10T00:00:00	2024-11-08T08:00:00	2	Temperatura media	15
50602	7	Sololá	701	Sololá	1	Sololá	10	Octubre	2023-02-10T00:00:00	2024-11-08T08:00:00	4	Temperatura máxima	15
50603	7	Sololá	701	Sololá	1	Sololá	10	Octubre	2023-02-10T00:00:00	2024-11-08T08:00:00	3	Temperatura mínima	13.9
50604	7	Sololá	701	Sololá	1	Sololá	10	Octubre	2023-02-10T00:00:00	2024-11-08T08:00:00	5	Humedad	96
50605	7	Sololá	701	Sololá	1	Sololá	10	Octubre	2023-02-10T00:00:00	2024-11-08T08:00:00	6	Velocidad del viento	0
50606	7	Sololá	701	Sololá	1	Sololá	10	Octubre	2023-02-10T00:00:00	2024-11-08T08:00:00	7	Dirección del viento	0
50607	7	Sololá	701	Sololá	1	Sololá	10	Octubre	2023-02-10T00:00:00	2024-11-08T08:00:00	1	Precipitación	0
50608	7	Sololá	701	Sololá	1	Sololá	10	Octubre	2023-02-10T00:00:00	2024-11-08T08:00:00	8	Radiación solar	102
50609	7	Sololá	701	Sololá	1	Sololá	10	Octubre	2023-02-10T00:00:00	2024-11-08T09:00:00	2	Temperatura media	19.9
50610	7	Sololá	701	Sololá	1	Sololá	10	Octubre	2023-02-10T00:00:00	2024-11-08T09:00:00	4	Temperatura máxima	19.9
50611	7	Sololá	701	Sololá	1	Sololá	10	Octubre	2023-02-10T00:00:00	2024-11-08T09:00:00	3	Temperatura mínima	15
50612	7	Sololá	701	Sololá	1	Sololá	10	Octubre	2023-02-10T00:00:00	2024-11-08T09:00:00	5	Humedad	81
50613	7	Sololá	701	Sololá	1	Sololá	10	Octubre	2023-02-10T00:00:00	2024-11-08T09:00:00	6	Velocidad del viento	0
50614	7	Sololá	701	Sololá	1	Sololá	10	Octubre	2023-02-10T00:00:00	2024-11-08T09:00:00	7	Dirección del viento	0
50615	7	Sololá	701	Sololá	1	Sololá	10	Octubre	2023-02-10T00:00:00	2024-11-08T09:00:00	1	Precipitación	0
50616	7	Sololá	701	Sololá	1	Sololá	10	Octubre	2023-02-10T00:00:00	2024-11-08T09:00:00	8	Radiación solar	523
50617	7	Sololá	701	Sololá	1	Sololá	10	Octubre	2023-02-10T00:00:00	2024-11-08T10:00:00	2	Temperatura media	22.3
50618	7	Sololá	701	Sololá	1	Sololá	10	Octubre	2023-02-10T00:00:00	2024-11-08T10:00:00	4	Temperatura máxima	22.3
50619	7	Sololá	701	Sololá	1	Sololá	10	Octubre	2023-02-10T00:00:00	2024-11-08T10:00:00	3	Temperatura mínima	19.9
50620	7	Sololá	701	Sololá	1	Sololá	10	Octubre	2023-02-10T00:00:00	2024-11-08T10:00:00	5	Humedad	71
50621	7	Sololá	701	Sololá	1	Sololá	10	Octubre	2023-02-10T00:00:00	2024-11-08T10:00:00	6	Velocidad del viento	0
50622	7	Sololá	701	Sololá	1	Sololá	10	Octubre	2023-02-10T00:00:00	2024-11-08T10:00:00	7	Dirección del viento	0
50623	7	Sololá	701	Sololá	1	Sololá	10	Octubre	2023-02-10T00:00:00	2024-11-08T10:00:00	1	Precipitación	0
50624	7	Sololá	701	Sololá	1	Sololá	10	Octubre	2023-02-10T00:00:00	2024-11-08T10:00:00	8	Radiación solar	823
50625	7	Sololá	701	Sololá	1	Sololá	10	Octubre	2023-02-10T00:00:00	2024-11-08T11:00:00	2	Temperatura media	23
50626	7	Sololá	701	Sololá	1	Sololá	10	Octubre	2023-02-10T00:00:00	2024-11-08T11:00:00	4	Temperatura máxima	23.1
50627	7	Sololá	701	Sololá	1	Sololá	10	Octubre	2023-02-10T00:00:00	2024-11-08T11:00:00	3	Temperatura mínima	22.3
50628	7	Sololá	701	Sololá	1	Sololá	10	Octubre	2023-02-10T00:00:00	2024-11-08T11:00:00	5	Humedad	68
50629	7	Sololá	701	Sololá	1	Sololá	10	Octubre	2023-02-10T00:00:00	2024-11-08T11:00:00	6	Velocidad del viento	0
50630	7	Sololá	701	Sololá	1	Sololá	10	Octubre	2023-02-10T00:00:00	2024-11-08T11:00:00	7	Dirección del viento	0
50631	7	Sololá	701	Sololá	1	Sololá	10	Octubre	2023-02-10T00:00:00	2024-11-08T11:00:00	1	Precipitación	0
50632	7	Sololá	701	Sololá	1	Sololá	10	Octubre	2023-02-10T00:00:00	2024-11-08T11:00:00	8	Radiación solar	967
50633	7	Sololá	701	Sololá	1	Sololá	10	Octubre	2023-02-10T00:00:00	2024-11-08T12:00:00	2	Temperatura media	22.9
50634	7	Sololá	701	Sololá	1	Sololá	10	Octubre	2023-02-10T00:00:00	2024-11-08T12:00:00	4	Temperatura máxima	23.6
50635	7	Sololá	701	Sololá	1	Sololá	10	Octubre	2023-02-10T00:00:00	2024-11-08T12:00:00	3	Temperatura mínima	22.9
50636	7	Sololá	701	Sololá	1	Sololá	10	Octubre	2023-02-10T00:00:00	2024-11-08T12:00:00	5	Humedad	73
50637	7	Sololá	701	Sololá	1	Sololá	10	Octubre	2023-02-10T00:00:00	2024-11-08T12:00:00	6	Velocidad del viento	0
50638	7	Sololá	701	Sololá	1	Sololá	10	Octubre	2023-02-10T00:00:00	2024-11-08T12:00:00	7	Dirección del viento	0
50639	7	Sololá	701	Sololá	1	Sololá	10	Octubre	2023-02-10T00:00:00	2024-11-08T12:00:00	1	Precipitación	0
50640	7	Sololá	701	Sololá	1	Sololá	10	Octubre	2023-02-10T00:00:00	2024-11-08T12:00:00	8	Radiación solar	584
50641	7	Sololá	701	Sololá	1	Sololá	10	Octubre	2023-02-10T00:00:00	2024-11-08T13:00:00	2	Temperatura media	21.9
50642	7	Sololá	701	Sololá	1	Sololá	10	Octubre	2023-02-10T00:00:00	2024-11-08T13:00:00	4	Temperatura máxima	23.1
50643	7	Sololá	701	Sololá	1	Sololá	10	Octubre	2023-02-10T00:00:00	2024-11-08T13:00:00	3	Temperatura mínima	21.9
50644	7	Sololá	701	Sololá	1	Sololá	10	Octubre	2023-02-10T00:00:00	2024-11-08T13:00:00	5	Humedad	81
50645	7	Sololá	701	Sololá	1	Sololá	10	Octubre	2023-02-10T00:00:00	2024-11-08T13:00:00	6	Velocidad del viento	0
50646	7	Sololá	701	Sololá	1	Sololá	10	Octubre	2023-02-10T00:00:00	2024-11-08T13:00:00	7	Dirección del viento	0
50647	7	Sololá	701	Sololá	1	Sololá	10	Octubre	2023-02-10T00:00:00	2024-11-08T13:00:00	1	Precipitación	0
50648	7	Sololá	701	Sololá	1	Sololá	10	Octubre	2023-02-10T00:00:00	2024-11-08T13:00:00	8	Radiación solar	311
50649	7	Sololá	701	Sololá	1	Sololá	10	Octubre	2023-02-10T00:00:00	2024-11-08T14:00:00	2	Temperatura media	21
50650	7	Sololá	701	Sololá	1	Sololá	10	Octubre	2023-02-10T00:00:00	2024-11-08T14:00:00	4	Temperatura máxima	22.3
50651	7	Sololá	701	Sololá	1	Sololá	10	Octubre	2023-02-10T00:00:00	2024-11-08T14:00:00	3	Temperatura mínima	21
50652	7	Sololá	701	Sololá	1	Sololá	10	Octubre	2023-02-10T00:00:00	2024-11-08T14:00:00	5	Humedad	86
50653	7	Sololá	701	Sololá	1	Sololá	10	Octubre	2023-02-10T00:00:00	2024-11-08T14:00:00	6	Velocidad del viento	0
50654	7	Sololá	701	Sololá	1	Sololá	10	Octubre	2023-02-10T00:00:00	2024-11-08T14:00:00	7	Dirección del viento	0
50655	7	Sololá	701	Sololá	1	Sololá	10	Octubre	2023-02-10T00:00:00	2024-11-08T14:00:00	1	Precipitación	0
50656	7	Sololá	701	Sololá	1	Sololá	10	Octubre	2023-02-10T00:00:00	2024-11-08T14:00:00	8	Radiación solar	154
50657	7	Sololá	701	Sololá	1	Sololá	10	Octubre	2023-02-10T00:00:00	2024-11-08T15:00:00	2	Temperatura media	20
50658	7	Sololá	701	Sololá	1	Sololá	10	Octubre	2023-02-10T00:00:00	2024-11-08T15:00:00	4	Temperatura máxima	21
50659	7	Sololá	701	Sololá	1	Sololá	10	Octubre	2023-02-10T00:00:00	2024-11-08T15:00:00	3	Temperatura mínima	20
50660	7	Sololá	701	Sololá	1	Sololá	10	Octubre	2023-02-10T00:00:00	2024-11-08T15:00:00	5	Humedad	90
50661	7	Sololá	701	Sololá	1	Sololá	10	Octubre	2023-02-10T00:00:00	2024-11-08T15:00:00	6	Velocidad del viento	0
50662	7	Sololá	701	Sololá	1	Sololá	10	Octubre	2023-02-10T00:00:00	2024-11-08T15:00:00	7	Dirección del viento	0
50663	7	Sololá	701	Sololá	1	Sololá	10	Octubre	2023-02-10T00:00:00	2024-11-08T15:00:00	1	Precipitación	0
50664	7	Sololá	701	Sololá	1	Sololá	10	Octubre	2023-02-10T00:00:00	2024-11-08T15:00:00	8	Radiación solar	72
50665	7	Sololá	701	Sololá	1	Sololá	10	Octubre	2023-02-10T00:00:00	2024-11-08T16:00:00	2	Temperatura media	19.2
50666	7	Sololá	701	Sololá	1	Sololá	10	Octubre	2023-02-10T00:00:00	2024-11-08T16:00:00	4	Temperatura máxima	20
50667	7	Sololá	701	Sololá	1	Sololá	10	Octubre	2023-02-10T00:00:00	2024-11-08T16:00:00	3	Temperatura mínima	19.1
50668	7	Sololá	701	Sololá	1	Sololá	10	Octubre	2023-02-10T00:00:00	2024-11-08T16:00:00	5	Humedad	93
50669	7	Sololá	701	Sololá	1	Sololá	10	Octubre	2023-02-10T00:00:00	2024-11-08T16:00:00	6	Velocidad del viento	0
50670	7	Sololá	701	Sololá	1	Sololá	10	Octubre	2023-02-10T00:00:00	2024-11-08T16:00:00	7	Dirección del viento	0
50671	7	Sololá	701	Sololá	1	Sololá	10	Octubre	2023-02-10T00:00:00	2024-11-08T16:00:00	1	Precipitación	0
50672	7	Sololá	701	Sololá	1	Sololá	10	Octubre	2023-02-10T00:00:00	2024-11-08T16:00:00	8	Radiación solar	62
50673	7	Sololá	701	Sololá	1	Sololá	10	Octubre	2023-02-10T00:00:00	2024-11-08T17:00:00	2	Temperatura media	17.4
50674	7	Sololá	701	Sololá	1	Sololá	10	Octubre	2023-02-10T00:00:00	2024-11-08T17:00:00	4	Temperatura máxima	19.2
50675	7	Sololá	701	Sololá	1	Sololá	10	Octubre	2023-02-10T00:00:00	2024-11-08T17:00:00	3	Temperatura mínima	17.4
50676	7	Sololá	701	Sololá	1	Sololá	10	Octubre	2023-02-10T00:00:00	2024-11-08T17:00:00	5	Humedad	94
50677	7	Sololá	701	Sololá	1	Sololá	10	Octubre	2023-02-10T00:00:00	2024-11-08T17:00:00	6	Velocidad del viento	0
50678	7	Sololá	701	Sololá	1	Sololá	10	Octubre	2023-02-10T00:00:00	2024-11-08T17:00:00	7	Dirección del viento	0
50679	7	Sololá	701	Sololá	1	Sololá	10	Octubre	2023-02-10T00:00:00	2024-11-08T17:00:00	1	Precipitación	0
50680	7	Sololá	701	Sololá	1	Sololá	10	Octubre	2023-02-10T00:00:00	2024-11-08T17:00:00	8	Radiación solar	9
50681	7	Sololá	701	Sololá	1	Sololá	10	Octubre	2023-02-10T00:00:00	2024-11-08T18:00:00	2	Temperatura media	16.8
50682	7	Sololá	701	Sololá	1	Sololá	10	Octubre	2023-02-10T00:00:00	2024-11-08T18:00:00	4	Temperatura máxima	17.4
50683	7	Sololá	701	Sololá	1	Sololá	10	Octubre	2023-02-10T00:00:00	2024-11-08T18:00:00	3	Temperatura mínima	16.8
50684	7	Sololá	701	Sololá	1	Sololá	10	Octubre	2023-02-10T00:00:00	2024-11-08T18:00:00	5	Humedad	95
50685	7	Sololá	701	Sololá	1	Sololá	10	Octubre	2023-02-10T00:00:00	2024-11-08T18:00:00	6	Velocidad del viento	0
50686	7	Sololá	701	Sololá	1	Sololá	10	Octubre	2023-02-10T00:00:00	2024-11-08T18:00:00	7	Dirección del viento	0
50687	7	Sololá	701	Sololá	1	Sololá	10	Octubre	2023-02-10T00:00:00	2024-11-08T18:00:00	1	Precipitación	0.6
50688	7	Sololá	701	Sololá	1	Sololá	10	Octubre	2023-02-10T00:00:00	2024-11-08T18:00:00	8	Radiación solar	0
50689	7	Sololá	701	Sololá	1	Sololá	10	Octubre	2023-02-10T00:00:00	2024-11-08T19:00:00	2	Temperatura media	15.9
50690	7	Sololá	701	Sololá	1	Sololá	10	Octubre	2023-02-10T00:00:00	2024-11-08T19:00:00	4	Temperatura máxima	16.8
50691	7	Sololá	701	Sololá	1	Sololá	10	Octubre	2023-02-10T00:00:00	2024-11-08T19:00:00	3	Temperatura mínima	15.9
50692	7	Sololá	701	Sololá	1	Sololá	10	Octubre	2023-02-10T00:00:00	2024-11-08T19:00:00	5	Humedad	95
50693	7	Sololá	701	Sololá	1	Sololá	10	Octubre	2023-02-10T00:00:00	2024-11-08T19:00:00	6	Velocidad del viento	0
50694	7	Sololá	701	Sololá	1	Sololá	10	Octubre	2023-02-10T00:00:00	2024-11-08T19:00:00	7	Dirección del viento	0
50695	7	Sololá	701	Sololá	1	Sololá	10	Octubre	2023-02-10T00:00:00	2024-11-08T19:00:00	1	Precipitación	9.6
50696	7	Sololá	701	Sololá	1	Sololá	10	Octubre	2023-02-10T00:00:00	2024-11-08T19:00:00	8	Radiación solar	0
50697	7	Sololá	701	Sololá	1	Sololá	10	Octubre	2023-02-10T00:00:00	2024-11-08T20:00:00	2	Temperatura media	15.3
50698	7	Sololá	701	Sololá	1	Sololá	10	Octubre	2023-02-10T00:00:00	2024-11-08T20:00:00	4	Temperatura máxima	15.9
50699	7	Sololá	701	Sololá	1	Sololá	10	Octubre	2023-02-10T00:00:00	2024-11-08T20:00:00	3	Temperatura mínima	15.3
50700	7	Sololá	701	Sololá	1	Sololá	10	Octubre	2023-02-10T00:00:00	2024-11-08T20:00:00	5	Humedad	95
50701	7	Sololá	701	Sololá	1	Sololá	10	Octubre	2023-02-10T00:00:00	2024-11-08T20:00:00	6	Velocidad del viento	0
50702	7	Sololá	701	Sololá	1	Sololá	10	Octubre	2023-02-10T00:00:00	2024-11-08T20:00:00	7	Dirección del viento	0
50703	7	Sololá	701	Sololá	1	Sololá	10	Octubre	2023-02-10T00:00:00	2024-11-08T20:00:00	1	Precipitación	2.4
50704	7	Sololá	701	Sololá	1	Sololá	10	Octubre	2023-02-10T00:00:00	2024-11-08T20:00:00	8	Radiación solar	0
50705	7	Sololá	701	Sololá	1	Sololá	10	Octubre	2023-02-10T00:00:00	2024-11-08T21:00:00	2	Temperatura media	14.4
50706	7	Sololá	701	Sololá	1	Sololá	10	Octubre	2023-02-10T00:00:00	2024-11-08T21:00:00	4	Temperatura máxima	15.3
50707	7	Sololá	701	Sololá	1	Sololá	10	Octubre	2023-02-10T00:00:00	2024-11-08T21:00:00	3	Temperatura mínima	14.4
50708	7	Sololá	701	Sololá	1	Sololá	10	Octubre	2023-02-10T00:00:00	2024-11-08T21:00:00	5	Humedad	95
50709	7	Sololá	701	Sololá	1	Sololá	10	Octubre	2023-02-10T00:00:00	2024-11-08T21:00:00	6	Velocidad del viento	0
50710	7	Sololá	701	Sololá	1	Sololá	10	Octubre	2023-02-10T00:00:00	2024-11-08T21:00:00	7	Dirección del viento	0
50711	7	Sololá	701	Sololá	1	Sololá	10	Octubre	2023-02-10T00:00:00	2024-11-08T21:00:00	1	Precipitación	1.4
50712	7	Sololá	701	Sololá	1	Sololá	10	Octubre	2023-02-10T00:00:00	2024-11-08T21:00:00	8	Radiación solar	0
50713	7	Sololá	701	Sololá	1	Sololá	10	Octubre	2023-02-10T00:00:00	2024-11-08T22:00:00	2	Temperatura media	14.3
50714	7	Sololá	701	Sololá	1	Sololá	10	Octubre	2023-02-10T00:00:00	2024-11-08T22:00:00	4	Temperatura máxima	14.4
50715	7	Sololá	701	Sololá	1	Sololá	10	Octubre	2023-02-10T00:00:00	2024-11-08T22:00:00	3	Temperatura mínima	14.3
50716	7	Sololá	701	Sololá	1	Sololá	10	Octubre	2023-02-10T00:00:00	2024-11-08T22:00:00	5	Humedad	96
50717	7	Sololá	701	Sololá	1	Sololá	10	Octubre	2023-02-10T00:00:00	2024-11-08T22:00:00	6	Velocidad del viento	0
50718	7	Sololá	701	Sololá	1	Sololá	10	Octubre	2023-02-10T00:00:00	2024-11-08T22:00:00	7	Dirección del viento	0
50719	7	Sololá	701	Sololá	1	Sololá	10	Octubre	2023-02-10T00:00:00	2024-11-08T22:00:00	1	Precipitación	0.4
50720	7	Sololá	701	Sololá	1	Sololá	10	Octubre	2023-02-10T00:00:00	2024-11-08T22:00:00	8	Radiación solar	0
50721	7	Sololá	701	Sololá	1	Sololá	10	Octubre	2023-02-10T00:00:00	2024-11-08T23:00:00	2	Temperatura media	14.7
50722	7	Sololá	701	Sololá	1	Sololá	10	Octubre	2023-02-10T00:00:00	2024-11-08T23:00:00	4	Temperatura máxima	14.7
50723	7	Sololá	701	Sololá	1	Sololá	10	Octubre	2023-02-10T00:00:00	2024-11-08T23:00:00	3	Temperatura mínima	14.3
50724	7	Sololá	701	Sololá	1	Sololá	10	Octubre	2023-02-10T00:00:00	2024-11-08T23:00:00	5	Humedad	96
50725	7	Sololá	701	Sololá	1	Sololá	10	Octubre	2023-02-10T00:00:00	2024-11-08T23:00:00	6	Velocidad del viento	0
50726	7	Sololá	701	Sololá	1	Sololá	10	Octubre	2023-02-10T00:00:00	2024-11-08T23:00:00	7	Dirección del viento	0
50727	7	Sololá	701	Sololá	1	Sololá	10	Octubre	2023-02-10T00:00:00	2024-11-08T23:00:00	1	Precipitación	0.2
50728	7	Sololá	701	Sololá	1	Sololá	10	Octubre	2023-02-10T00:00:00	2024-11-08T23:00:00	8	Radiación solar	0
50729	7	Sololá	701	Sololá	1	Sololá	10	Octubre	2023-03-10T00:00:00	2024-11-08T00:00:00	2	Temperatura media	14.6
50730	7	Sololá	701	Sololá	1	Sololá	10	Octubre	2023-03-10T00:00:00	2024-11-08T00:00:00	4	Temperatura máxima	14.8
50731	7	Sololá	701	Sololá	1	Sololá	10	Octubre	2023-03-10T00:00:00	2024-11-08T00:00:00	3	Temperatura mínima	14.6
50732	7	Sololá	701	Sololá	1	Sololá	10	Octubre	2023-03-10T00:00:00	2024-11-08T00:00:00	5	Humedad	96
50733	7	Sololá	701	Sololá	1	Sololá	10	Octubre	2023-03-10T00:00:00	2024-11-08T00:00:00	6	Velocidad del viento	0
50734	7	Sololá	701	Sololá	1	Sololá	10	Octubre	2023-03-10T00:00:00	2024-11-08T00:00:00	7	Dirección del viento	0
50735	7	Sololá	701	Sololá	1	Sololá	10	Octubre	2023-03-10T00:00:00	2024-11-08T00:00:00	1	Precipitación	0
50736	7	Sololá	701	Sololá	1	Sololá	10	Octubre	2023-03-10T00:00:00	2024-11-08T00:00:00	8	Radiación solar	0
50737	7	Sololá	701	Sololá	1	Sololá	10	Octubre	2023-03-10T00:00:00	2024-11-08T01:00:00	2	Temperatura media	14.1
50738	7	Sololá	701	Sololá	1	Sololá	10	Octubre	2023-03-10T00:00:00	2024-11-08T01:00:00	4	Temperatura máxima	14.6
50739	7	Sololá	701	Sololá	1	Sololá	10	Octubre	2023-03-10T00:00:00	2024-11-08T01:00:00	3	Temperatura mínima	14.1
50740	7	Sololá	701	Sololá	1	Sololá	10	Octubre	2023-03-10T00:00:00	2024-11-08T01:00:00	5	Humedad	96
50741	7	Sololá	701	Sololá	1	Sololá	10	Octubre	2023-03-10T00:00:00	2024-11-08T01:00:00	6	Velocidad del viento	0
50742	7	Sololá	701	Sololá	1	Sololá	10	Octubre	2023-03-10T00:00:00	2024-11-08T01:00:00	7	Dirección del viento	0
50743	7	Sololá	701	Sololá	1	Sololá	10	Octubre	2023-03-10T00:00:00	2024-11-08T01:00:00	1	Precipitación	0
50744	7	Sololá	701	Sololá	1	Sololá	10	Octubre	2023-03-10T00:00:00	2024-11-08T01:00:00	8	Radiación solar	0
50745	7	Sololá	701	Sololá	1	Sololá	10	Octubre	2023-03-10T00:00:00	2024-11-08T02:00:00	2	Temperatura media	14.2
50746	7	Sololá	701	Sololá	1	Sololá	10	Octubre	2023-03-10T00:00:00	2024-11-08T02:00:00	4	Temperatura máxima	14.2
50747	7	Sololá	701	Sololá	1	Sololá	10	Octubre	2023-03-10T00:00:00	2024-11-08T02:00:00	3	Temperatura mínima	14.1
50748	7	Sololá	701	Sololá	1	Sololá	10	Octubre	2023-03-10T00:00:00	2024-11-08T02:00:00	5	Humedad	96
50749	7	Sololá	701	Sololá	1	Sololá	10	Octubre	2023-03-10T00:00:00	2024-11-08T02:00:00	6	Velocidad del viento	0
50750	7	Sololá	701	Sololá	1	Sololá	10	Octubre	2023-03-10T00:00:00	2024-11-08T02:00:00	7	Dirección del viento	0
50751	7	Sololá	701	Sololá	1	Sololá	10	Octubre	2023-03-10T00:00:00	2024-11-08T02:00:00	1	Precipitación	0
50752	7	Sololá	701	Sololá	1	Sololá	10	Octubre	2023-03-10T00:00:00	2024-11-08T02:00:00	8	Radiación solar	0
50753	7	Sololá	701	Sololá	1	Sololá	10	Octubre	2023-03-10T00:00:00	2024-11-08T03:00:00	2	Temperatura media	13.8
50754	7	Sololá	701	Sololá	1	Sololá	10	Octubre	2023-03-10T00:00:00	2024-11-08T03:00:00	4	Temperatura máxima	14.2
50755	7	Sololá	701	Sololá	1	Sololá	10	Octubre	2023-03-10T00:00:00	2024-11-08T03:00:00	3	Temperatura mínima	13.8
50756	7	Sololá	701	Sololá	1	Sololá	10	Octubre	2023-03-10T00:00:00	2024-11-08T03:00:00	5	Humedad	95
50757	7	Sololá	701	Sololá	1	Sololá	10	Octubre	2023-03-10T00:00:00	2024-11-08T03:00:00	6	Velocidad del viento	0
50758	7	Sololá	701	Sololá	1	Sololá	10	Octubre	2023-03-10T00:00:00	2024-11-08T03:00:00	7	Dirección del viento	0
50759	7	Sololá	701	Sololá	1	Sololá	10	Octubre	2023-03-10T00:00:00	2024-11-08T03:00:00	1	Precipitación	0
50760	7	Sololá	701	Sololá	1	Sololá	10	Octubre	2023-03-10T00:00:00	2024-11-08T03:00:00	8	Radiación solar	0
50761	7	Sololá	701	Sololá	1	Sololá	10	Octubre	2023-03-10T00:00:00	2024-11-08T04:00:00	2	Temperatura media	13.6
50762	7	Sololá	701	Sololá	1	Sololá	10	Octubre	2023-03-10T00:00:00	2024-11-08T04:00:00	4	Temperatura máxima	13.9
50763	7	Sololá	701	Sololá	1	Sololá	10	Octubre	2023-03-10T00:00:00	2024-11-08T04:00:00	3	Temperatura mínima	13.6
50764	7	Sololá	701	Sololá	1	Sololá	10	Octubre	2023-03-10T00:00:00	2024-11-08T04:00:00	5	Humedad	96
50765	7	Sololá	701	Sololá	1	Sololá	10	Octubre	2023-03-10T00:00:00	2024-11-08T04:00:00	6	Velocidad del viento	0
50766	7	Sololá	701	Sololá	1	Sololá	10	Octubre	2023-03-10T00:00:00	2024-11-08T04:00:00	7	Dirección del viento	0
50767	7	Sololá	701	Sololá	1	Sololá	10	Octubre	2023-03-10T00:00:00	2024-11-08T04:00:00	1	Precipitación	0
50768	7	Sololá	701	Sololá	1	Sololá	10	Octubre	2023-03-10T00:00:00	2024-11-08T04:00:00	8	Radiación solar	0
50769	7	Sololá	701	Sololá	1	Sololá	10	Octubre	2023-03-10T00:00:00	2024-11-08T05:00:00	2	Temperatura media	13.3
50770	7	Sololá	701	Sololá	1	Sololá	10	Octubre	2023-03-10T00:00:00	2024-11-08T05:00:00	4	Temperatura máxima	13.6
50771	7	Sololá	701	Sololá	1	Sololá	10	Octubre	2023-03-10T00:00:00	2024-11-08T05:00:00	3	Temperatura mínima	13.3
50772	7	Sololá	701	Sololá	1	Sololá	10	Octubre	2023-03-10T00:00:00	2024-11-08T05:00:00	5	Humedad	96
50773	7	Sololá	701	Sololá	1	Sololá	10	Octubre	2023-03-10T00:00:00	2024-11-08T05:00:00	6	Velocidad del viento	0
50774	7	Sololá	701	Sololá	1	Sololá	10	Octubre	2023-03-10T00:00:00	2024-11-08T05:00:00	7	Dirección del viento	0
50775	7	Sololá	701	Sololá	1	Sololá	10	Octubre	2023-03-10T00:00:00	2024-11-08T05:00:00	1	Precipitación	0
50776	7	Sololá	701	Sololá	1	Sololá	10	Octubre	2023-03-10T00:00:00	2024-11-08T05:00:00	8	Radiación solar	0
50777	7	Sololá	701	Sololá	1	Sololá	10	Octubre	2023-03-10T00:00:00	2024-11-08T06:00:00	2	Temperatura media	13.3
50778	7	Sololá	701	Sololá	1	Sololá	10	Octubre	2023-03-10T00:00:00	2024-11-08T06:00:00	4	Temperatura máxima	13.4
50779	7	Sololá	701	Sololá	1	Sololá	10	Octubre	2023-03-10T00:00:00	2024-11-08T06:00:00	3	Temperatura mínima	13.2
50780	7	Sololá	701	Sololá	1	Sololá	10	Octubre	2023-03-10T00:00:00	2024-11-08T06:00:00	5	Humedad	96
50781	7	Sololá	701	Sololá	1	Sololá	10	Octubre	2023-03-10T00:00:00	2024-11-08T06:00:00	6	Velocidad del viento	0
50782	7	Sololá	701	Sololá	1	Sololá	10	Octubre	2023-03-10T00:00:00	2024-11-08T06:00:00	7	Dirección del viento	0
50783	7	Sololá	701	Sololá	1	Sololá	10	Octubre	2023-03-10T00:00:00	2024-11-08T06:00:00	1	Precipitación	0
50784	7	Sololá	701	Sololá	1	Sololá	10	Octubre	2023-03-10T00:00:00	2024-11-08T06:00:00	8	Radiación solar	0
50785	7	Sololá	701	Sololá	1	Sololá	10	Octubre	2023-03-10T00:00:00	2024-11-08T07:00:00	2	Temperatura media	13.8
50786	7	Sololá	701	Sololá	1	Sololá	10	Octubre	2023-03-10T00:00:00	2024-11-08T07:00:00	4	Temperatura máxima	13.8
50787	7	Sololá	701	Sololá	1	Sololá	10	Octubre	2023-03-10T00:00:00	2024-11-08T07:00:00	3	Temperatura mínima	13.3
50788	7	Sololá	701	Sololá	1	Sololá	10	Octubre	2023-03-10T00:00:00	2024-11-08T07:00:00	5	Humedad	96
50789	7	Sololá	701	Sololá	1	Sololá	10	Octubre	2023-03-10T00:00:00	2024-11-08T07:00:00	6	Velocidad del viento	0
50790	7	Sololá	701	Sololá	1	Sololá	10	Octubre	2023-03-10T00:00:00	2024-11-08T07:00:00	7	Dirección del viento	0
50791	7	Sololá	701	Sololá	1	Sololá	10	Octubre	2023-03-10T00:00:00	2024-11-08T07:00:00	1	Precipitación	0
50792	7	Sololá	701	Sololá	1	Sololá	10	Octubre	2023-03-10T00:00:00	2024-11-08T07:00:00	8	Radiación solar	14
50793	7	Sololá	701	Sololá	1	Sololá	10	Octubre	2023-03-10T00:00:00	2024-11-08T08:00:00	2	Temperatura media	15.4
50794	7	Sololá	701	Sololá	1	Sololá	10	Octubre	2023-03-10T00:00:00	2024-11-08T08:00:00	4	Temperatura máxima	15.4
50795	7	Sololá	701	Sololá	1	Sololá	10	Octubre	2023-03-10T00:00:00	2024-11-08T08:00:00	3	Temperatura mínima	13.7
50796	7	Sololá	701	Sololá	1	Sololá	10	Octubre	2023-03-10T00:00:00	2024-11-08T08:00:00	5	Humedad	95
50797	7	Sololá	701	Sololá	1	Sololá	10	Octubre	2023-03-10T00:00:00	2024-11-08T08:00:00	6	Velocidad del viento	0
50798	7	Sololá	701	Sololá	1	Sololá	10	Octubre	2023-03-10T00:00:00	2024-11-08T08:00:00	7	Dirección del viento	0
50799	7	Sololá	701	Sololá	1	Sololá	10	Octubre	2023-03-10T00:00:00	2024-11-08T08:00:00	1	Precipitación	0
50800	7	Sololá	701	Sololá	1	Sololá	10	Octubre	2023-03-10T00:00:00	2024-11-08T08:00:00	8	Radiación solar	90
50801	7	Sololá	701	Sololá	1	Sololá	10	Octubre	2023-03-10T00:00:00	2024-11-08T09:00:00	2	Temperatura media	19.8
50802	7	Sololá	701	Sololá	1	Sololá	10	Octubre	2023-03-10T00:00:00	2024-11-08T09:00:00	4	Temperatura máxima	19.8
50803	7	Sololá	701	Sololá	1	Sololá	10	Octubre	2023-03-10T00:00:00	2024-11-08T09:00:00	3	Temperatura mínima	15.4
50804	7	Sololá	701	Sololá	1	Sololá	10	Octubre	2023-03-10T00:00:00	2024-11-08T09:00:00	5	Humedad	86
50805	7	Sololá	701	Sololá	1	Sololá	10	Octubre	2023-03-10T00:00:00	2024-11-08T09:00:00	6	Velocidad del viento	0
50806	7	Sololá	701	Sololá	1	Sololá	10	Octubre	2023-03-10T00:00:00	2024-11-08T09:00:00	7	Dirección del viento	0
50807	7	Sololá	701	Sololá	1	Sololá	10	Octubre	2023-03-10T00:00:00	2024-11-08T09:00:00	1	Precipitación	0.2
50808	7	Sololá	701	Sololá	1	Sololá	10	Octubre	2023-03-10T00:00:00	2024-11-08T09:00:00	8	Radiación solar	576
50809	7	Sololá	701	Sololá	1	Sololá	10	Octubre	2023-03-10T00:00:00	2024-11-08T10:00:00	2	Temperatura media	19.6
50810	7	Sololá	701	Sololá	1	Sololá	10	Octubre	2023-03-10T00:00:00	2024-11-08T10:00:00	4	Temperatura máxima	20.2
50811	7	Sololá	701	Sololá	1	Sololá	10	Octubre	2023-03-10T00:00:00	2024-11-08T10:00:00	3	Temperatura mínima	19.3
50812	7	Sololá	701	Sololá	1	Sololá	10	Octubre	2023-03-10T00:00:00	2024-11-08T10:00:00	5	Humedad	81
50813	7	Sololá	701	Sololá	1	Sololá	10	Octubre	2023-03-10T00:00:00	2024-11-08T10:00:00	6	Velocidad del viento	0
50814	7	Sololá	701	Sololá	1	Sololá	10	Octubre	2023-03-10T00:00:00	2024-11-08T10:00:00	7	Dirección del viento	0
50815	7	Sololá	701	Sololá	1	Sololá	10	Octubre	2023-03-10T00:00:00	2024-11-08T10:00:00	1	Precipitación	0
50816	7	Sololá	701	Sololá	1	Sololá	10	Octubre	2023-03-10T00:00:00	2024-11-08T10:00:00	8	Radiación solar	309
50817	7	Sololá	701	Sololá	1	Sololá	10	Octubre	2023-03-10T00:00:00	2024-11-08T11:00:00	2	Temperatura media	20.5
50818	7	Sololá	701	Sololá	1	Sololá	10	Octubre	2023-03-10T00:00:00	2024-11-08T11:00:00	4	Temperatura máxima	20.6
50819	7	Sololá	701	Sololá	1	Sololá	10	Octubre	2023-03-10T00:00:00	2024-11-08T11:00:00	3	Temperatura mínima	19.6
50820	7	Sololá	701	Sololá	1	Sololá	10	Octubre	2023-03-10T00:00:00	2024-11-08T11:00:00	5	Humedad	79
50821	7	Sololá	701	Sololá	1	Sololá	10	Octubre	2023-03-10T00:00:00	2024-11-08T11:00:00	6	Velocidad del viento	0
50822	7	Sololá	701	Sololá	1	Sololá	10	Octubre	2023-03-10T00:00:00	2024-11-08T11:00:00	7	Dirección del viento	0
50823	7	Sololá	701	Sololá	1	Sololá	10	Octubre	2023-03-10T00:00:00	2024-11-08T11:00:00	1	Precipitación	0
50824	7	Sololá	701	Sololá	1	Sololá	10	Octubre	2023-03-10T00:00:00	2024-11-08T11:00:00	8	Radiación solar	280
50825	7	Sololá	701	Sololá	1	Sololá	10	Octubre	2023-03-10T00:00:00	2024-11-08T12:00:00	2	Temperatura media	20.3
50826	7	Sololá	701	Sololá	1	Sololá	10	Octubre	2023-03-10T00:00:00	2024-11-08T12:00:00	4	Temperatura máxima	20.6
50827	7	Sololá	701	Sololá	1	Sololá	10	Octubre	2023-03-10T00:00:00	2024-11-08T12:00:00	3	Temperatura mínima	20.2
50828	7	Sololá	701	Sololá	1	Sololá	10	Octubre	2023-03-10T00:00:00	2024-11-08T12:00:00	5	Humedad	79
50829	7	Sololá	701	Sololá	1	Sololá	10	Octubre	2023-03-10T00:00:00	2024-11-08T12:00:00	6	Velocidad del viento	0
50830	7	Sololá	701	Sololá	1	Sololá	10	Octubre	2023-03-10T00:00:00	2024-11-08T12:00:00	7	Dirección del viento	0
50831	7	Sololá	701	Sololá	1	Sololá	10	Octubre	2023-03-10T00:00:00	2024-11-08T12:00:00	1	Precipitación	0
50832	7	Sololá	701	Sololá	1	Sololá	10	Octubre	2023-03-10T00:00:00	2024-11-08T12:00:00	8	Radiación solar	251
50833	7	Sololá	701	Sololá	1	Sololá	10	Octubre	2023-03-10T00:00:00	2024-11-08T13:00:00	2	Temperatura media	21.3
50834	7	Sololá	701	Sololá	1	Sololá	10	Octubre	2023-03-10T00:00:00	2024-11-08T13:00:00	4	Temperatura máxima	21.4
50835	7	Sololá	701	Sololá	1	Sololá	10	Octubre	2023-03-10T00:00:00	2024-11-08T13:00:00	3	Temperatura mínima	20.2
50836	7	Sololá	701	Sololá	1	Sololá	10	Octubre	2023-03-10T00:00:00	2024-11-08T13:00:00	5	Humedad	82
50837	7	Sololá	701	Sololá	1	Sololá	10	Octubre	2023-03-10T00:00:00	2024-11-08T13:00:00	6	Velocidad del viento	0
50838	7	Sololá	701	Sololá	1	Sololá	10	Octubre	2023-03-10T00:00:00	2024-11-08T13:00:00	7	Dirección del viento	0
50839	7	Sololá	701	Sololá	1	Sololá	10	Octubre	2023-03-10T00:00:00	2024-11-08T13:00:00	1	Precipitación	0
50840	7	Sololá	701	Sololá	1	Sololá	10	Octubre	2023-03-10T00:00:00	2024-11-08T13:00:00	8	Radiación solar	342
50841	7	Sololá	701	Sololá	1	Sololá	10	Octubre	2023-03-10T00:00:00	2024-11-08T14:00:00	2	Temperatura media	21
50842	7	Sololá	701	Sololá	1	Sololá	10	Octubre	2023-03-10T00:00:00	2024-11-08T14:00:00	4	Temperatura máxima	21.7
50843	7	Sololá	701	Sololá	1	Sololá	10	Octubre	2023-03-10T00:00:00	2024-11-08T14:00:00	3	Temperatura mínima	21
50844	7	Sololá	701	Sololá	1	Sololá	10	Octubre	2023-03-10T00:00:00	2024-11-08T14:00:00	5	Humedad	84
50845	7	Sololá	701	Sololá	1	Sololá	10	Octubre	2023-03-10T00:00:00	2024-11-08T14:00:00	6	Velocidad del viento	0
50846	7	Sololá	701	Sololá	1	Sololá	10	Octubre	2023-03-10T00:00:00	2024-11-08T14:00:00	7	Dirección del viento	0
50847	7	Sololá	701	Sololá	1	Sololá	10	Octubre	2023-03-10T00:00:00	2024-11-08T14:00:00	1	Precipitación	0
50848	7	Sololá	701	Sololá	1	Sololá	10	Octubre	2023-03-10T00:00:00	2024-11-08T14:00:00	8	Radiación solar	232
50849	7	Sololá	701	Sololá	1	Sololá	10	Octubre	2023-03-10T00:00:00	2024-11-08T15:00:00	2	Temperatura media	19.1
50850	7	Sololá	701	Sololá	1	Sololá	10	Octubre	2023-03-10T00:00:00	2024-11-08T15:00:00	4	Temperatura máxima	21
50851	7	Sololá	701	Sololá	1	Sololá	10	Octubre	2023-03-10T00:00:00	2024-11-08T15:00:00	3	Temperatura mínima	18.9
50852	7	Sololá	701	Sololá	1	Sololá	10	Octubre	2023-03-10T00:00:00	2024-11-08T15:00:00	5	Humedad	91
50853	7	Sololá	701	Sololá	1	Sololá	10	Octubre	2023-03-10T00:00:00	2024-11-08T15:00:00	6	Velocidad del viento	0
50854	7	Sololá	701	Sololá	1	Sololá	10	Octubre	2023-03-10T00:00:00	2024-11-08T15:00:00	7	Dirección del viento	0
50855	7	Sololá	701	Sololá	1	Sololá	10	Octubre	2023-03-10T00:00:00	2024-11-08T15:00:00	1	Precipitación	0
50856	7	Sololá	701	Sololá	1	Sololá	10	Octubre	2023-03-10T00:00:00	2024-11-08T15:00:00	8	Radiación solar	113
50857	7	Sololá	701	Sololá	1	Sololá	10	Octubre	2023-03-10T00:00:00	2024-11-08T16:00:00	2	Temperatura media	17.6
50858	7	Sololá	701	Sololá	1	Sololá	10	Octubre	2023-03-10T00:00:00	2024-11-08T16:00:00	4	Temperatura máxima	19.2
50859	7	Sololá	701	Sololá	1	Sololá	10	Octubre	2023-03-10T00:00:00	2024-11-08T16:00:00	3	Temperatura mínima	17.6
50860	7	Sololá	701	Sololá	1	Sololá	10	Octubre	2023-03-10T00:00:00	2024-11-08T16:00:00	5	Humedad	94
50861	7	Sololá	701	Sololá	1	Sololá	10	Octubre	2023-03-10T00:00:00	2024-11-08T16:00:00	6	Velocidad del viento	0
50862	7	Sololá	701	Sololá	1	Sololá	10	Octubre	2023-03-10T00:00:00	2024-11-08T16:00:00	7	Dirección del viento	0
50863	7	Sololá	701	Sololá	1	Sololá	10	Octubre	2023-03-10T00:00:00	2024-11-08T16:00:00	1	Precipitación	0
50864	7	Sololá	701	Sololá	1	Sololá	10	Octubre	2023-03-10T00:00:00	2024-11-08T16:00:00	8	Radiación solar	42
50865	7	Sololá	701	Sololá	1	Sololá	10	Octubre	2023-03-10T00:00:00	2024-11-08T17:00:00	2	Temperatura media	16.6
50866	7	Sololá	701	Sololá	1	Sololá	10	Octubre	2023-03-10T00:00:00	2024-11-08T17:00:00	4	Temperatura máxima	17.6
50867	7	Sololá	701	Sololá	1	Sololá	10	Octubre	2023-03-10T00:00:00	2024-11-08T17:00:00	3	Temperatura mínima	16.6
50868	7	Sololá	701	Sololá	1	Sololá	10	Octubre	2023-03-10T00:00:00	2024-11-08T17:00:00	5	Humedad	95
50869	7	Sololá	701	Sololá	1	Sololá	10	Octubre	2023-03-10T00:00:00	2024-11-08T17:00:00	6	Velocidad del viento	0
50870	7	Sololá	701	Sololá	1	Sololá	10	Octubre	2023-03-10T00:00:00	2024-11-08T17:00:00	7	Dirección del viento	0
50871	7	Sololá	701	Sololá	1	Sololá	10	Octubre	2023-03-10T00:00:00	2024-11-08T17:00:00	1	Precipitación	0
50872	7	Sololá	701	Sololá	1	Sololá	10	Octubre	2023-03-10T00:00:00	2024-11-08T17:00:00	8	Radiación solar	11
50873	7	Sololá	701	Sololá	1	Sololá	10	Octubre	2023-03-10T00:00:00	2024-11-08T18:00:00	2	Temperatura media	16.6
50874	7	Sololá	701	Sololá	1	Sololá	10	Octubre	2023-03-10T00:00:00	2024-11-08T18:00:00	4	Temperatura máxima	16.7
50875	7	Sololá	701	Sololá	1	Sololá	10	Octubre	2023-03-10T00:00:00	2024-11-08T18:00:00	3	Temperatura mínima	16.4
50876	7	Sololá	701	Sololá	1	Sololá	10	Octubre	2023-03-10T00:00:00	2024-11-08T18:00:00	5	Humedad	95
50877	7	Sololá	701	Sololá	1	Sololá	10	Octubre	2023-03-10T00:00:00	2024-11-08T18:00:00	6	Velocidad del viento	0
50878	7	Sololá	701	Sololá	1	Sololá	10	Octubre	2023-03-10T00:00:00	2024-11-08T18:00:00	7	Dirección del viento	0
50879	7	Sololá	701	Sololá	1	Sololá	10	Octubre	2023-03-10T00:00:00	2024-11-08T18:00:00	1	Precipitación	0
50880	7	Sololá	701	Sololá	1	Sololá	10	Octubre	2023-03-10T00:00:00	2024-11-08T18:00:00	8	Radiación solar	2
50881	7	Sololá	701	Sololá	1	Sololá	10	Octubre	2023-03-10T00:00:00	2024-11-08T19:00:00	2	Temperatura media	16.3
50882	7	Sololá	701	Sololá	1	Sololá	10	Octubre	2023-03-10T00:00:00	2024-11-08T19:00:00	4	Temperatura máxima	16.6
50883	7	Sololá	701	Sololá	1	Sololá	10	Octubre	2023-03-10T00:00:00	2024-11-08T19:00:00	3	Temperatura mínima	16.2
50884	7	Sololá	701	Sololá	1	Sololá	10	Octubre	2023-03-10T00:00:00	2024-11-08T19:00:00	5	Humedad	95
50885	7	Sololá	701	Sololá	1	Sololá	10	Octubre	2023-03-10T00:00:00	2024-11-08T19:00:00	6	Velocidad del viento	0
50886	7	Sololá	701	Sololá	1	Sololá	10	Octubre	2023-03-10T00:00:00	2024-11-08T19:00:00	7	Dirección del viento	0
50887	7	Sololá	701	Sololá	1	Sololá	10	Octubre	2023-03-10T00:00:00	2024-11-08T19:00:00	1	Precipitación	0
50888	7	Sololá	701	Sololá	1	Sololá	10	Octubre	2023-03-10T00:00:00	2024-11-08T19:00:00	8	Radiación solar	0
50889	7	Sololá	701	Sololá	1	Sololá	10	Octubre	2023-03-10T00:00:00	2024-11-08T20:00:00	2	Temperatura media	16.1
50890	7	Sololá	701	Sololá	1	Sololá	10	Octubre	2023-03-10T00:00:00	2024-11-08T20:00:00	4	Temperatura máxima	16.3
50891	7	Sololá	701	Sololá	1	Sololá	10	Octubre	2023-03-10T00:00:00	2024-11-08T20:00:00	3	Temperatura mínima	16.1
50892	7	Sololá	701	Sololá	1	Sololá	10	Octubre	2023-03-10T00:00:00	2024-11-08T20:00:00	5	Humedad	95
50893	7	Sololá	701	Sololá	1	Sololá	10	Octubre	2023-03-10T00:00:00	2024-11-08T20:00:00	6	Velocidad del viento	0
50894	7	Sololá	701	Sololá	1	Sololá	10	Octubre	2023-03-10T00:00:00	2024-11-08T20:00:00	7	Dirección del viento	0
50895	7	Sololá	701	Sololá	1	Sololá	10	Octubre	2023-03-10T00:00:00	2024-11-08T20:00:00	1	Precipitación	0
50896	7	Sololá	701	Sololá	1	Sololá	10	Octubre	2023-03-10T00:00:00	2024-11-08T20:00:00	8	Radiación solar	0
50897	7	Sololá	701	Sololá	1	Sololá	10	Octubre	2023-03-10T00:00:00	2024-11-08T21:00:00	2	Temperatura media	15.9
50898	7	Sololá	701	Sololá	1	Sololá	10	Octubre	2023-03-10T00:00:00	2024-11-08T21:00:00	4	Temperatura máxima	16.2
50899	7	Sololá	701	Sololá	1	Sololá	10	Octubre	2023-03-10T00:00:00	2024-11-08T21:00:00	3	Temperatura mínima	15.9
50900	7	Sololá	701	Sololá	1	Sololá	10	Octubre	2023-03-10T00:00:00	2024-11-08T21:00:00	5	Humedad	95
50901	7	Sololá	701	Sololá	1	Sololá	10	Octubre	2023-03-10T00:00:00	2024-11-08T21:00:00	6	Velocidad del viento	0
50902	7	Sololá	701	Sololá	1	Sololá	10	Octubre	2023-03-10T00:00:00	2024-11-08T21:00:00	7	Dirección del viento	0
50903	7	Sololá	701	Sololá	1	Sololá	10	Octubre	2023-03-10T00:00:00	2024-11-08T21:00:00	1	Precipitación	1.4
50904	7	Sololá	701	Sololá	1	Sololá	10	Octubre	2023-03-10T00:00:00	2024-11-08T21:00:00	8	Radiación solar	0
50905	7	Sololá	701	Sololá	1	Sololá	10	Octubre	2023-03-10T00:00:00	2024-11-08T22:00:00	2	Temperatura media	15.6
50906	7	Sololá	701	Sololá	1	Sololá	10	Octubre	2023-03-10T00:00:00	2024-11-08T22:00:00	4	Temperatura máxima	15.9
50907	7	Sololá	701	Sololá	1	Sololá	10	Octubre	2023-03-10T00:00:00	2024-11-08T22:00:00	3	Temperatura mínima	15.6
50908	7	Sololá	701	Sololá	1	Sololá	10	Octubre	2023-03-10T00:00:00	2024-11-08T22:00:00	5	Humedad	95
50909	7	Sololá	701	Sololá	1	Sololá	10	Octubre	2023-03-10T00:00:00	2024-11-08T22:00:00	6	Velocidad del viento	0
50910	7	Sololá	701	Sololá	1	Sololá	10	Octubre	2023-03-10T00:00:00	2024-11-08T22:00:00	7	Dirección del viento	0
50911	7	Sololá	701	Sololá	1	Sololá	10	Octubre	2023-03-10T00:00:00	2024-11-08T22:00:00	1	Precipitación	0.6
50912	7	Sololá	701	Sololá	1	Sololá	10	Octubre	2023-03-10T00:00:00	2024-11-08T22:00:00	8	Radiación solar	0
50913	7	Sololá	701	Sololá	1	Sololá	10	Octubre	2023-03-10T00:00:00	2024-11-08T23:00:00	2	Temperatura media	15.3
50914	7	Sololá	701	Sololá	1	Sololá	10	Octubre	2023-03-10T00:00:00	2024-11-08T23:00:00	4	Temperatura máxima	15.7
50915	7	Sololá	701	Sololá	1	Sololá	10	Octubre	2023-03-10T00:00:00	2024-11-08T23:00:00	3	Temperatura mínima	15.3
50916	7	Sololá	701	Sololá	1	Sololá	10	Octubre	2023-03-10T00:00:00	2024-11-08T23:00:00	5	Humedad	95
50917	7	Sololá	701	Sololá	1	Sololá	10	Octubre	2023-03-10T00:00:00	2024-11-08T23:00:00	6	Velocidad del viento	0
50918	7	Sololá	701	Sololá	1	Sololá	10	Octubre	2023-03-10T00:00:00	2024-11-08T23:00:00	7	Dirección del viento	0
50919	7	Sololá	701	Sololá	1	Sololá	10	Octubre	2023-03-10T00:00:00	2024-11-08T23:00:00	1	Precipitación	0.8
50920	7	Sololá	701	Sololá	1	Sololá	10	Octubre	2023-03-10T00:00:00	2024-11-08T23:00:00	8	Radiación solar	0
50921	7	Sololá	701	Sololá	1	Sololá	10	Octubre	2023-04-10T00:00:00	2024-11-08T00:00:00	2	Temperatura media	14.4
50922	7	Sololá	701	Sololá	1	Sololá	10	Octubre	2023-04-10T00:00:00	2024-11-08T00:00:00	4	Temperatura máxima	15.3
50923	7	Sololá	701	Sololá	1	Sololá	10	Octubre	2023-04-10T00:00:00	2024-11-08T00:00:00	3	Temperatura mínima	14.4
50924	7	Sololá	701	Sololá	1	Sololá	10	Octubre	2023-04-10T00:00:00	2024-11-08T00:00:00	5	Humedad	95
50925	7	Sololá	701	Sololá	1	Sololá	10	Octubre	2023-04-10T00:00:00	2024-11-08T00:00:00	6	Velocidad del viento	0
50926	7	Sololá	701	Sololá	1	Sololá	10	Octubre	2023-04-10T00:00:00	2024-11-08T00:00:00	7	Dirección del viento	0
50927	7	Sololá	701	Sololá	1	Sololá	10	Octubre	2023-04-10T00:00:00	2024-11-08T00:00:00	1	Precipitación	0
50928	7	Sololá	701	Sololá	1	Sololá	10	Octubre	2023-04-10T00:00:00	2024-11-08T00:00:00	8	Radiación solar	0
50929	7	Sololá	701	Sololá	1	Sololá	10	Octubre	2023-04-10T00:00:00	2024-11-08T01:00:00	2	Temperatura media	13.8
50930	7	Sololá	701	Sololá	1	Sololá	10	Octubre	2023-04-10T00:00:00	2024-11-08T01:00:00	4	Temperatura máxima	14.4
50931	7	Sololá	701	Sololá	1	Sololá	10	Octubre	2023-04-10T00:00:00	2024-11-08T01:00:00	3	Temperatura mínima	13.8
50932	7	Sololá	701	Sololá	1	Sololá	10	Octubre	2023-04-10T00:00:00	2024-11-08T01:00:00	5	Humedad	95
50933	7	Sololá	701	Sololá	1	Sololá	10	Octubre	2023-04-10T00:00:00	2024-11-08T01:00:00	6	Velocidad del viento	0
50934	7	Sololá	701	Sololá	1	Sololá	10	Octubre	2023-04-10T00:00:00	2024-11-08T01:00:00	7	Dirección del viento	0
50935	7	Sololá	701	Sololá	1	Sololá	10	Octubre	2023-04-10T00:00:00	2024-11-08T01:00:00	1	Precipitación	0
50936	7	Sololá	701	Sololá	1	Sololá	10	Octubre	2023-04-10T00:00:00	2024-11-08T01:00:00	8	Radiación solar	0
50937	7	Sololá	701	Sololá	1	Sololá	10	Octubre	2023-04-10T00:00:00	2024-11-08T02:00:00	2	Temperatura media	13.8
50938	7	Sololá	701	Sololá	1	Sololá	10	Octubre	2023-04-10T00:00:00	2024-11-08T02:00:00	4	Temperatura máxima	13.9
50939	7	Sololá	701	Sololá	1	Sololá	10	Octubre	2023-04-10T00:00:00	2024-11-08T02:00:00	3	Temperatura mínima	13.7
50940	7	Sololá	701	Sololá	1	Sololá	10	Octubre	2023-04-10T00:00:00	2024-11-08T02:00:00	5	Humedad	96
50941	7	Sololá	701	Sololá	1	Sololá	10	Octubre	2023-04-10T00:00:00	2024-11-08T02:00:00	6	Velocidad del viento	0
50942	7	Sololá	701	Sololá	1	Sololá	10	Octubre	2023-04-10T00:00:00	2024-11-08T02:00:00	7	Dirección del viento	0
50943	7	Sololá	701	Sololá	1	Sololá	10	Octubre	2023-04-10T00:00:00	2024-11-08T02:00:00	1	Precipitación	0
50944	7	Sololá	701	Sololá	1	Sololá	10	Octubre	2023-04-10T00:00:00	2024-11-08T02:00:00	8	Radiación solar	0
50945	7	Sololá	701	Sololá	1	Sololá	10	Octubre	2023-04-10T00:00:00	2024-11-08T03:00:00	2	Temperatura media	13.6
50946	7	Sololá	701	Sololá	1	Sololá	10	Octubre	2023-04-10T00:00:00	2024-11-08T03:00:00	4	Temperatura máxima	13.9
50947	7	Sololá	701	Sololá	1	Sololá	10	Octubre	2023-04-10T00:00:00	2024-11-08T03:00:00	3	Temperatura mínima	13.4
50948	7	Sololá	701	Sololá	1	Sololá	10	Octubre	2023-04-10T00:00:00	2024-11-08T03:00:00	5	Humedad	96
50949	7	Sololá	701	Sololá	1	Sololá	10	Octubre	2023-04-10T00:00:00	2024-11-08T03:00:00	6	Velocidad del viento	0
50950	7	Sololá	701	Sololá	1	Sololá	10	Octubre	2023-04-10T00:00:00	2024-11-08T03:00:00	7	Dirección del viento	0
50951	7	Sololá	701	Sololá	1	Sololá	10	Octubre	2023-04-10T00:00:00	2024-11-08T03:00:00	1	Precipitación	0
50952	7	Sololá	701	Sololá	1	Sololá	10	Octubre	2023-04-10T00:00:00	2024-11-08T03:00:00	8	Radiación solar	0
50953	7	Sololá	701	Sololá	1	Sololá	10	Octubre	2023-04-10T00:00:00	2024-11-08T04:00:00	2	Temperatura media	13
50954	7	Sololá	701	Sololá	1	Sololá	10	Octubre	2023-04-10T00:00:00	2024-11-08T04:00:00	4	Temperatura máxima	13.6
50955	7	Sololá	701	Sololá	1	Sololá	10	Octubre	2023-04-10T00:00:00	2024-11-08T04:00:00	3	Temperatura mínima	13
50956	7	Sololá	701	Sololá	1	Sololá	10	Octubre	2023-04-10T00:00:00	2024-11-08T04:00:00	5	Humedad	95
50957	7	Sololá	701	Sololá	1	Sololá	10	Octubre	2023-04-10T00:00:00	2024-11-08T04:00:00	6	Velocidad del viento	0
50958	7	Sololá	701	Sololá	1	Sololá	10	Octubre	2023-04-10T00:00:00	2024-11-08T04:00:00	7	Dirección del viento	0
50959	7	Sololá	701	Sololá	1	Sololá	10	Octubre	2023-04-10T00:00:00	2024-11-08T04:00:00	1	Precipitación	0
50960	7	Sololá	701	Sololá	1	Sololá	10	Octubre	2023-04-10T00:00:00	2024-11-08T04:00:00	8	Radiación solar	0
50961	7	Sololá	701	Sololá	1	Sololá	10	Octubre	2023-04-10T00:00:00	2024-11-08T05:00:00	2	Temperatura media	13.3
50962	7	Sololá	701	Sololá	1	Sololá	10	Octubre	2023-04-10T00:00:00	2024-11-08T05:00:00	4	Temperatura máxima	13.3
50963	7	Sololá	701	Sololá	1	Sololá	10	Octubre	2023-04-10T00:00:00	2024-11-08T05:00:00	3	Temperatura mínima	12.9
50964	7	Sololá	701	Sololá	1	Sololá	10	Octubre	2023-04-10T00:00:00	2024-11-08T05:00:00	5	Humedad	96
50965	7	Sololá	701	Sololá	1	Sololá	10	Octubre	2023-04-10T00:00:00	2024-11-08T05:00:00	6	Velocidad del viento	0
50966	7	Sololá	701	Sololá	1	Sololá	10	Octubre	2023-04-10T00:00:00	2024-11-08T05:00:00	7	Dirección del viento	0
50967	7	Sololá	701	Sololá	1	Sololá	10	Octubre	2023-04-10T00:00:00	2024-11-08T05:00:00	1	Precipitación	0
50968	7	Sololá	701	Sololá	1	Sololá	10	Octubre	2023-04-10T00:00:00	2024-11-08T05:00:00	8	Radiación solar	0
50969	7	Sololá	701	Sololá	1	Sololá	10	Octubre	2023-04-10T00:00:00	2024-11-08T06:00:00	2	Temperatura media	13.3
50970	7	Sololá	701	Sololá	1	Sololá	10	Octubre	2023-04-10T00:00:00	2024-11-08T06:00:00	4	Temperatura máxima	13.6
50971	7	Sololá	701	Sololá	1	Sololá	10	Octubre	2023-04-10T00:00:00	2024-11-08T06:00:00	3	Temperatura mínima	13.2
50972	7	Sololá	701	Sololá	1	Sololá	10	Octubre	2023-04-10T00:00:00	2024-11-08T06:00:00	5	Humedad	95
50973	7	Sololá	701	Sololá	1	Sololá	10	Octubre	2023-04-10T00:00:00	2024-11-08T06:00:00	6	Velocidad del viento	0
50974	7	Sololá	701	Sololá	1	Sololá	10	Octubre	2023-04-10T00:00:00	2024-11-08T06:00:00	7	Dirección del viento	0
50975	7	Sololá	701	Sololá	1	Sololá	10	Octubre	2023-04-10T00:00:00	2024-11-08T06:00:00	1	Precipitación	0
50976	7	Sololá	701	Sololá	1	Sololá	10	Octubre	2023-04-10T00:00:00	2024-11-08T06:00:00	8	Radiación solar	0
50977	7	Sololá	701	Sololá	1	Sololá	10	Octubre	2023-04-10T00:00:00	2024-11-08T07:00:00	2	Temperatura media	13.7
50978	7	Sololá	701	Sololá	1	Sololá	10	Octubre	2023-04-10T00:00:00	2024-11-08T07:00:00	4	Temperatura máxima	13.7
50979	7	Sololá	701	Sololá	1	Sololá	10	Octubre	2023-04-10T00:00:00	2024-11-08T07:00:00	3	Temperatura mínima	13.2
50980	7	Sololá	701	Sololá	1	Sololá	10	Octubre	2023-04-10T00:00:00	2024-11-08T07:00:00	5	Humedad	96
50981	7	Sololá	701	Sololá	1	Sololá	10	Octubre	2023-04-10T00:00:00	2024-11-08T07:00:00	6	Velocidad del viento	0
50982	7	Sololá	701	Sololá	1	Sololá	10	Octubre	2023-04-10T00:00:00	2024-11-08T07:00:00	7	Dirección del viento	0
50983	7	Sololá	701	Sololá	1	Sololá	10	Octubre	2023-04-10T00:00:00	2024-11-08T07:00:00	1	Precipitación	0
50984	7	Sololá	701	Sololá	1	Sololá	10	Octubre	2023-04-10T00:00:00	2024-11-08T07:00:00	8	Radiación solar	12
50985	7	Sololá	701	Sololá	1	Sololá	10	Octubre	2023-04-10T00:00:00	2024-11-08T08:00:00	2	Temperatura media	15
50986	7	Sololá	701	Sololá	1	Sololá	10	Octubre	2023-04-10T00:00:00	2024-11-08T08:00:00	4	Temperatura máxima	15
50987	7	Sololá	701	Sololá	1	Sololá	10	Octubre	2023-04-10T00:00:00	2024-11-08T08:00:00	3	Temperatura mínima	13.7
50988	7	Sololá	701	Sololá	1	Sololá	10	Octubre	2023-04-10T00:00:00	2024-11-08T08:00:00	5	Humedad	97
50989	7	Sololá	701	Sololá	1	Sololá	10	Octubre	2023-04-10T00:00:00	2024-11-08T08:00:00	6	Velocidad del viento	0
50990	7	Sololá	701	Sololá	1	Sololá	10	Octubre	2023-04-10T00:00:00	2024-11-08T08:00:00	7	Dirección del viento	0
50991	7	Sololá	701	Sololá	1	Sololá	10	Octubre	2023-04-10T00:00:00	2024-11-08T08:00:00	1	Precipitación	0
50992	7	Sololá	701	Sololá	1	Sololá	10	Octubre	2023-04-10T00:00:00	2024-11-08T08:00:00	8	Radiación solar	39
50993	7	Sololá	701	Sololá	1	Sololá	10	Octubre	2023-04-10T00:00:00	2024-11-08T09:00:00	2	Temperatura media	19.9
50994	7	Sololá	701	Sololá	1	Sololá	10	Octubre	2023-04-10T00:00:00	2024-11-08T09:00:00	4	Temperatura máxima	19.9
50995	7	Sololá	701	Sololá	1	Sololá	10	Octubre	2023-04-10T00:00:00	2024-11-08T09:00:00	3	Temperatura mínima	15
50996	7	Sololá	701	Sololá	1	Sololá	10	Octubre	2023-04-10T00:00:00	2024-11-08T09:00:00	5	Humedad	81
50997	7	Sololá	701	Sololá	1	Sololá	10	Octubre	2023-04-10T00:00:00	2024-11-08T09:00:00	6	Velocidad del viento	0
50998	7	Sololá	701	Sololá	1	Sololá	10	Octubre	2023-04-10T00:00:00	2024-11-08T09:00:00	7	Dirección del viento	0
50999	7	Sololá	701	Sololá	1	Sololá	10	Octubre	2023-04-10T00:00:00	2024-11-08T09:00:00	1	Precipitación	0
51000	7	Sololá	701	Sololá	1	Sololá	10	Octubre	2023-04-10T00:00:00	2024-11-08T09:00:00	8	Radiación solar	628
51001	7	Sololá	701	Sololá	1	Sololá	10	Octubre	2023-04-10T00:00:00	2024-11-08T10:00:00	2	Temperatura media	22.5
51002	7	Sololá	701	Sololá	1	Sololá	10	Octubre	2023-04-10T00:00:00	2024-11-08T10:00:00	4	Temperatura máxima	22.5
51003	7	Sololá	701	Sololá	1	Sololá	10	Octubre	2023-04-10T00:00:00	2024-11-08T10:00:00	3	Temperatura mínima	19.9
51004	7	Sololá	701	Sololá	1	Sololá	10	Octubre	2023-04-10T00:00:00	2024-11-08T10:00:00	5	Humedad	71
51005	7	Sololá	701	Sololá	1	Sololá	10	Octubre	2023-04-10T00:00:00	2024-11-08T10:00:00	6	Velocidad del viento	0
51006	7	Sololá	701	Sololá	1	Sololá	10	Octubre	2023-04-10T00:00:00	2024-11-08T10:00:00	7	Dirección del viento	0
51007	7	Sololá	701	Sololá	1	Sololá	10	Octubre	2023-04-10T00:00:00	2024-11-08T10:00:00	1	Precipitación	0
51008	7	Sololá	701	Sololá	1	Sololá	10	Octubre	2023-04-10T00:00:00	2024-11-08T10:00:00	8	Radiación solar	822
51009	7	Sololá	701	Sololá	1	Sololá	10	Octubre	2023-04-10T00:00:00	2024-11-08T11:00:00	2	Temperatura media	23.7
51010	7	Sololá	701	Sololá	1	Sololá	10	Octubre	2023-04-10T00:00:00	2024-11-08T11:00:00	4	Temperatura máxima	24
51011	7	Sololá	701	Sololá	1	Sololá	10	Octubre	2023-04-10T00:00:00	2024-11-08T11:00:00	3	Temperatura mínima	22.6
51012	7	Sololá	701	Sololá	1	Sololá	10	Octubre	2023-04-10T00:00:00	2024-11-08T11:00:00	5	Humedad	72
51013	7	Sololá	701	Sololá	1	Sololá	10	Octubre	2023-04-10T00:00:00	2024-11-08T11:00:00	6	Velocidad del viento	0
51014	7	Sololá	701	Sololá	1	Sololá	10	Octubre	2023-04-10T00:00:00	2024-11-08T11:00:00	7	Dirección del viento	0
51015	7	Sololá	701	Sololá	1	Sololá	10	Octubre	2023-04-10T00:00:00	2024-11-08T11:00:00	1	Precipitación	0
51016	7	Sololá	701	Sololá	1	Sololá	10	Octubre	2023-04-10T00:00:00	2024-11-08T11:00:00	8	Radiación solar	915
51017	7	Sololá	701	Sololá	1	Sololá	10	Octubre	2023-04-10T00:00:00	2024-11-08T12:00:00	2	Temperatura media	22.7
51018	7	Sololá	701	Sololá	1	Sololá	10	Octubre	2023-04-10T00:00:00	2024-11-08T12:00:00	4	Temperatura máxima	23.7
51019	7	Sololá	701	Sololá	1	Sololá	10	Octubre	2023-04-10T00:00:00	2024-11-08T12:00:00	3	Temperatura mínima	22.7
51020	7	Sololá	701	Sololá	1	Sololá	10	Octubre	2023-04-10T00:00:00	2024-11-08T12:00:00	5	Humedad	80
51021	7	Sololá	701	Sololá	1	Sololá	10	Octubre	2023-04-10T00:00:00	2024-11-08T12:00:00	6	Velocidad del viento	0
51022	7	Sololá	701	Sololá	1	Sololá	10	Octubre	2023-04-10T00:00:00	2024-11-08T12:00:00	7	Dirección del viento	0
51023	7	Sololá	701	Sololá	1	Sololá	10	Octubre	2023-04-10T00:00:00	2024-11-08T12:00:00	1	Precipitación	0
51024	7	Sololá	701	Sololá	1	Sololá	10	Octubre	2023-04-10T00:00:00	2024-11-08T12:00:00	8	Radiación solar	863
51025	7	Sololá	701	Sololá	1	Sololá	10	Octubre	2023-04-10T00:00:00	2024-11-08T13:00:00	2	Temperatura media	20.8
51026	7	Sololá	701	Sololá	1	Sololá	10	Octubre	2023-04-10T00:00:00	2024-11-08T13:00:00	4	Temperatura máxima	22.7
51027	7	Sololá	701	Sololá	1	Sololá	10	Octubre	2023-04-10T00:00:00	2024-11-08T13:00:00	3	Temperatura mínima	20.6
51028	7	Sololá	701	Sololá	1	Sololá	10	Octubre	2023-04-10T00:00:00	2024-11-08T13:00:00	5	Humedad	87
51029	7	Sololá	701	Sololá	1	Sololá	10	Octubre	2023-04-10T00:00:00	2024-11-08T13:00:00	6	Velocidad del viento	0
51030	7	Sololá	701	Sololá	1	Sololá	10	Octubre	2023-04-10T00:00:00	2024-11-08T13:00:00	7	Dirección del viento	0
51031	7	Sololá	701	Sololá	1	Sololá	10	Octubre	2023-04-10T00:00:00	2024-11-08T13:00:00	1	Precipitación	0
51032	7	Sololá	701	Sololá	1	Sololá	10	Octubre	2023-04-10T00:00:00	2024-11-08T13:00:00	8	Radiación solar	196
51033	7	Sololá	701	Sololá	1	Sololá	10	Octubre	2023-04-10T00:00:00	2024-11-08T14:00:00	2	Temperatura media	18.9
51034	7	Sololá	701	Sololá	1	Sololá	10	Octubre	2023-04-10T00:00:00	2024-11-08T14:00:00	4	Temperatura máxima	20.8
51035	7	Sololá	701	Sololá	1	Sololá	10	Octubre	2023-04-10T00:00:00	2024-11-08T14:00:00	3	Temperatura mínima	18.9
51036	7	Sololá	701	Sololá	1	Sololá	10	Octubre	2023-04-10T00:00:00	2024-11-08T14:00:00	5	Humedad	94
51037	7	Sololá	701	Sololá	1	Sololá	10	Octubre	2023-04-10T00:00:00	2024-11-08T14:00:00	6	Velocidad del viento	0
51038	7	Sololá	701	Sololá	1	Sololá	10	Octubre	2023-04-10T00:00:00	2024-11-08T14:00:00	7	Dirección del viento	0
51039	7	Sololá	701	Sololá	1	Sololá	10	Octubre	2023-04-10T00:00:00	2024-11-08T14:00:00	1	Precipitación	0.2
51040	7	Sololá	701	Sololá	1	Sololá	10	Octubre	2023-04-10T00:00:00	2024-11-08T14:00:00	8	Radiación solar	51
51041	7	Sololá	701	Sololá	1	Sololá	10	Octubre	2023-04-10T00:00:00	2024-11-08T15:00:00	2	Temperatura media	17.4
51042	7	Sololá	701	Sololá	1	Sololá	10	Octubre	2023-04-10T00:00:00	2024-11-08T15:00:00	4	Temperatura máxima	18.9
51043	7	Sololá	701	Sololá	1	Sololá	10	Octubre	2023-04-10T00:00:00	2024-11-08T15:00:00	3	Temperatura mínima	17.4
51044	7	Sololá	701	Sololá	1	Sololá	10	Octubre	2023-04-10T00:00:00	2024-11-08T15:00:00	5	Humedad	94
51045	7	Sololá	701	Sololá	1	Sololá	10	Octubre	2023-04-10T00:00:00	2024-11-08T15:00:00	6	Velocidad del viento	0
51046	7	Sololá	701	Sololá	1	Sololá	10	Octubre	2023-04-10T00:00:00	2024-11-08T15:00:00	7	Dirección del viento	0
51047	7	Sololá	701	Sololá	1	Sololá	10	Octubre	2023-04-10T00:00:00	2024-11-08T15:00:00	1	Precipitación	0.8
51048	7	Sololá	701	Sololá	1	Sololá	10	Octubre	2023-04-10T00:00:00	2024-11-08T15:00:00	8	Radiación solar	40
51049	7	Sololá	701	Sololá	1	Sololá	10	Octubre	2023-04-10T00:00:00	2024-11-08T16:00:00	2	Temperatura media	16.6
51050	7	Sololá	701	Sololá	1	Sololá	10	Octubre	2023-04-10T00:00:00	2024-11-08T16:00:00	4	Temperatura máxima	17.3
51051	7	Sololá	701	Sololá	1	Sololá	10	Octubre	2023-04-10T00:00:00	2024-11-08T16:00:00	3	Temperatura mínima	16.6
51052	7	Sololá	701	Sololá	1	Sololá	10	Octubre	2023-04-10T00:00:00	2024-11-08T16:00:00	5	Humedad	95
51053	7	Sololá	701	Sololá	1	Sololá	10	Octubre	2023-04-10T00:00:00	2024-11-08T16:00:00	6	Velocidad del viento	0
51054	7	Sololá	701	Sololá	1	Sololá	10	Octubre	2023-04-10T00:00:00	2024-11-08T16:00:00	7	Dirección del viento	0
51055	7	Sololá	701	Sololá	1	Sololá	10	Octubre	2023-04-10T00:00:00	2024-11-08T16:00:00	1	Precipitación	9.4
51056	7	Sololá	701	Sololá	1	Sololá	10	Octubre	2023-04-10T00:00:00	2024-11-08T16:00:00	8	Radiación solar	4
51057	7	Sololá	701	Sololá	1	Sololá	10	Octubre	2023-04-10T00:00:00	2024-11-08T17:00:00	2	Temperatura media	16.3
51058	7	Sololá	701	Sololá	1	Sololá	10	Octubre	2023-04-10T00:00:00	2024-11-08T17:00:00	4	Temperatura máxima	16.6
51059	7	Sololá	701	Sololá	1	Sololá	10	Octubre	2023-04-10T00:00:00	2024-11-08T17:00:00	3	Temperatura mínima	16.2
51060	7	Sololá	701	Sololá	1	Sololá	10	Octubre	2023-04-10T00:00:00	2024-11-08T17:00:00	5	Humedad	96
51061	7	Sololá	701	Sololá	1	Sololá	10	Octubre	2023-04-10T00:00:00	2024-11-08T17:00:00	6	Velocidad del viento	0
51062	7	Sololá	701	Sololá	1	Sololá	10	Octubre	2023-04-10T00:00:00	2024-11-08T17:00:00	7	Dirección del viento	0
51063	7	Sololá	701	Sololá	1	Sololá	10	Octubre	2023-04-10T00:00:00	2024-11-08T17:00:00	1	Precipitación	23.6
51064	7	Sololá	701	Sololá	1	Sololá	10	Octubre	2023-04-10T00:00:00	2024-11-08T17:00:00	8	Radiación solar	1
51065	7	Sololá	701	Sololá	1	Sololá	10	Octubre	2023-04-10T00:00:00	2024-11-08T18:00:00	2	Temperatura media	16.1
51066	7	Sololá	701	Sololá	1	Sololá	10	Octubre	2023-04-10T00:00:00	2024-11-08T18:00:00	4	Temperatura máxima	16.4
51067	7	Sololá	701	Sololá	1	Sololá	10	Octubre	2023-04-10T00:00:00	2024-11-08T18:00:00	3	Temperatura mínima	16.1
51068	7	Sololá	701	Sololá	1	Sololá	10	Octubre	2023-04-10T00:00:00	2024-11-08T18:00:00	5	Humedad	96
51069	7	Sololá	701	Sololá	1	Sololá	10	Octubre	2023-04-10T00:00:00	2024-11-08T18:00:00	6	Velocidad del viento	0
51070	7	Sololá	701	Sololá	1	Sololá	10	Octubre	2023-04-10T00:00:00	2024-11-08T18:00:00	7	Dirección del viento	0
51071	7	Sololá	701	Sololá	1	Sololá	10	Octubre	2023-04-10T00:00:00	2024-11-08T18:00:00	1	Precipitación	1
51072	7	Sololá	701	Sololá	1	Sololá	10	Octubre	2023-04-10T00:00:00	2024-11-08T18:00:00	8	Radiación solar	0
51073	7	Sololá	701	Sololá	1	Sololá	10	Octubre	2023-04-10T00:00:00	2024-11-08T19:00:00	2	Temperatura media	15.5
51074	7	Sololá	701	Sololá	1	Sololá	10	Octubre	2023-04-10T00:00:00	2024-11-08T19:00:00	4	Temperatura máxima	16.1
51075	7	Sololá	701	Sololá	1	Sololá	10	Octubre	2023-04-10T00:00:00	2024-11-08T19:00:00	3	Temperatura mínima	15.5
51076	7	Sololá	701	Sololá	1	Sololá	10	Octubre	2023-04-10T00:00:00	2024-11-08T19:00:00	5	Humedad	96
51077	7	Sololá	701	Sololá	1	Sololá	10	Octubre	2023-04-10T00:00:00	2024-11-08T19:00:00	6	Velocidad del viento	0
51078	7	Sololá	701	Sololá	1	Sololá	10	Octubre	2023-04-10T00:00:00	2024-11-08T19:00:00	7	Dirección del viento	0
51079	7	Sololá	701	Sololá	1	Sololá	10	Octubre	2023-04-10T00:00:00	2024-11-08T19:00:00	1	Precipitación	0
51080	7	Sololá	701	Sololá	1	Sololá	10	Octubre	2023-04-10T00:00:00	2024-11-08T19:00:00	8	Radiación solar	0
51081	7	Sololá	701	Sololá	1	Sololá	10	Octubre	2023-04-10T00:00:00	2024-11-08T20:00:00	2	Temperatura media	14.8
51082	7	Sololá	701	Sololá	1	Sololá	10	Octubre	2023-04-10T00:00:00	2024-11-08T20:00:00	4	Temperatura máxima	15.5
51083	7	Sololá	701	Sololá	1	Sololá	10	Octubre	2023-04-10T00:00:00	2024-11-08T20:00:00	3	Temperatura mínima	14.8
51084	7	Sololá	701	Sololá	1	Sololá	10	Octubre	2023-04-10T00:00:00	2024-11-08T20:00:00	5	Humedad	96
51085	7	Sololá	701	Sololá	1	Sololá	10	Octubre	2023-04-10T00:00:00	2024-11-08T20:00:00	6	Velocidad del viento	0
51086	7	Sololá	701	Sololá	1	Sololá	10	Octubre	2023-04-10T00:00:00	2024-11-08T20:00:00	7	Dirección del viento	0
51087	7	Sololá	701	Sololá	1	Sololá	10	Octubre	2023-04-10T00:00:00	2024-11-08T20:00:00	1	Precipitación	0
51088	7	Sololá	701	Sololá	1	Sololá	10	Octubre	2023-04-10T00:00:00	2024-11-08T20:00:00	8	Radiación solar	0
51089	7	Sololá	701	Sololá	1	Sololá	10	Octubre	2023-04-10T00:00:00	2024-11-08T21:00:00	2	Temperatura media	15.3
51090	7	Sololá	701	Sololá	1	Sololá	10	Octubre	2023-04-10T00:00:00	2024-11-08T21:00:00	4	Temperatura máxima	15.3
51091	7	Sololá	701	Sololá	1	Sololá	10	Octubre	2023-04-10T00:00:00	2024-11-08T21:00:00	3	Temperatura mínima	14.7
51092	7	Sololá	701	Sololá	1	Sololá	10	Octubre	2023-04-10T00:00:00	2024-11-08T21:00:00	5	Humedad	97
51093	7	Sololá	701	Sololá	1	Sololá	10	Octubre	2023-04-10T00:00:00	2024-11-08T21:00:00	6	Velocidad del viento	0
51094	7	Sololá	701	Sololá	1	Sololá	10	Octubre	2023-04-10T00:00:00	2024-11-08T21:00:00	7	Dirección del viento	0
51095	7	Sololá	701	Sololá	1	Sololá	10	Octubre	2023-04-10T00:00:00	2024-11-08T21:00:00	1	Precipitación	0
51096	7	Sololá	701	Sololá	1	Sololá	10	Octubre	2023-04-10T00:00:00	2024-11-08T21:00:00	8	Radiación solar	0
51097	7	Sololá	701	Sololá	1	Sololá	10	Octubre	2023-04-10T00:00:00	2024-11-08T22:00:00	2	Temperatura media	15.6
51098	7	Sololá	701	Sololá	1	Sololá	10	Octubre	2023-04-10T00:00:00	2024-11-08T22:00:00	4	Temperatura máxima	15.6
51099	7	Sololá	701	Sololá	1	Sololá	10	Octubre	2023-04-10T00:00:00	2024-11-08T22:00:00	3	Temperatura mínima	15.2
51100	7	Sololá	701	Sololá	1	Sololá	10	Octubre	2023-04-10T00:00:00	2024-11-08T22:00:00	5	Humedad	97
51101	7	Sololá	701	Sololá	1	Sololá	10	Octubre	2023-04-10T00:00:00	2024-11-08T22:00:00	6	Velocidad del viento	0
51102	7	Sololá	701	Sololá	1	Sololá	10	Octubre	2023-04-10T00:00:00	2024-11-08T22:00:00	7	Dirección del viento	0
51103	7	Sololá	701	Sololá	1	Sololá	10	Octubre	2023-04-10T00:00:00	2024-11-08T22:00:00	1	Precipitación	0
51104	7	Sololá	701	Sololá	1	Sololá	10	Octubre	2023-04-10T00:00:00	2024-11-08T22:00:00	8	Radiación solar	0
51105	7	Sololá	701	Sololá	1	Sololá	10	Octubre	2023-04-10T00:00:00	2024-11-08T23:00:00	2	Temperatura media	15.2
51106	7	Sololá	701	Sololá	1	Sololá	10	Octubre	2023-04-10T00:00:00	2024-11-08T23:00:00	4	Temperatura máxima	15.6
51107	7	Sololá	701	Sololá	1	Sololá	10	Octubre	2023-04-10T00:00:00	2024-11-08T23:00:00	3	Temperatura mínima	15.2
51108	7	Sololá	701	Sololá	1	Sololá	10	Octubre	2023-04-10T00:00:00	2024-11-08T23:00:00	5	Humedad	96
51109	7	Sololá	701	Sololá	1	Sololá	10	Octubre	2023-04-10T00:00:00	2024-11-08T23:00:00	6	Velocidad del viento	0
51110	7	Sololá	701	Sololá	1	Sololá	10	Octubre	2023-04-10T00:00:00	2024-11-08T23:00:00	7	Dirección del viento	0
51111	7	Sololá	701	Sololá	1	Sololá	10	Octubre	2023-04-10T00:00:00	2024-11-08T23:00:00	1	Precipitación	0
51112	7	Sololá	701	Sololá	1	Sololá	10	Octubre	2023-04-10T00:00:00	2024-11-08T23:00:00	8	Radiación solar	0
51113	7	Sololá	701	Sololá	1	Sololá	10	Octubre	2023-05-10T00:00:00	2024-11-08T00:00:00	2	Temperatura media	14.2
51114	7	Sololá	701	Sololá	1	Sololá	10	Octubre	2023-05-10T00:00:00	2024-11-08T00:00:00	4	Temperatura máxima	15.2
51115	7	Sololá	701	Sololá	1	Sololá	10	Octubre	2023-05-10T00:00:00	2024-11-08T00:00:00	3	Temperatura mínima	14.2
51116	7	Sololá	701	Sololá	1	Sololá	10	Octubre	2023-05-10T00:00:00	2024-11-08T00:00:00	5	Humedad	96
51117	7	Sololá	701	Sololá	1	Sololá	10	Octubre	2023-05-10T00:00:00	2024-11-08T00:00:00	6	Velocidad del viento	0
51118	7	Sololá	701	Sololá	1	Sololá	10	Octubre	2023-05-10T00:00:00	2024-11-08T00:00:00	7	Dirección del viento	0
51119	7	Sololá	701	Sololá	1	Sololá	10	Octubre	2023-05-10T00:00:00	2024-11-08T00:00:00	1	Precipitación	0.2
51120	7	Sololá	701	Sololá	1	Sololá	10	Octubre	2023-05-10T00:00:00	2024-11-08T00:00:00	8	Radiación solar	0
51121	7	Sololá	701	Sololá	1	Sololá	10	Octubre	2023-05-10T00:00:00	2024-11-08T01:00:00	2	Temperatura media	14.1
51122	7	Sololá	701	Sololá	1	Sololá	10	Octubre	2023-05-10T00:00:00	2024-11-08T01:00:00	4	Temperatura máxima	14.3
51123	7	Sololá	701	Sololá	1	Sololá	10	Octubre	2023-05-10T00:00:00	2024-11-08T01:00:00	3	Temperatura mínima	14.1
51124	7	Sololá	701	Sololá	1	Sololá	10	Octubre	2023-05-10T00:00:00	2024-11-08T01:00:00	5	Humedad	96
51125	7	Sololá	701	Sololá	1	Sololá	10	Octubre	2023-05-10T00:00:00	2024-11-08T01:00:00	6	Velocidad del viento	0
51126	7	Sololá	701	Sololá	1	Sololá	10	Octubre	2023-05-10T00:00:00	2024-11-08T01:00:00	7	Dirección del viento	0
51127	7	Sololá	701	Sololá	1	Sololá	10	Octubre	2023-05-10T00:00:00	2024-11-08T01:00:00	1	Precipitación	0
51128	7	Sololá	701	Sololá	1	Sololá	10	Octubre	2023-05-10T00:00:00	2024-11-08T01:00:00	8	Radiación solar	0
51129	7	Sololá	701	Sololá	1	Sololá	10	Octubre	2023-05-10T00:00:00	2024-11-08T02:00:00	2	Temperatura media	13.6
51130	7	Sololá	701	Sololá	1	Sololá	10	Octubre	2023-05-10T00:00:00	2024-11-08T02:00:00	4	Temperatura máxima	14.1
51131	7	Sololá	701	Sololá	1	Sololá	10	Octubre	2023-05-10T00:00:00	2024-11-08T02:00:00	3	Temperatura mínima	13.5
51132	7	Sololá	701	Sololá	1	Sololá	10	Octubre	2023-05-10T00:00:00	2024-11-08T02:00:00	5	Humedad	96
51133	7	Sololá	701	Sololá	1	Sololá	10	Octubre	2023-05-10T00:00:00	2024-11-08T02:00:00	6	Velocidad del viento	0
51134	7	Sololá	701	Sololá	1	Sololá	10	Octubre	2023-05-10T00:00:00	2024-11-08T02:00:00	7	Dirección del viento	0
51135	7	Sololá	701	Sololá	1	Sololá	10	Octubre	2023-05-10T00:00:00	2024-11-08T02:00:00	1	Precipitación	0
51136	7	Sololá	701	Sololá	1	Sololá	10	Octubre	2023-05-10T00:00:00	2024-11-08T02:00:00	8	Radiación solar	0
51137	7	Sololá	701	Sololá	1	Sololá	10	Octubre	2023-05-10T00:00:00	2024-11-08T03:00:00	2	Temperatura media	13.2
51138	7	Sololá	701	Sololá	1	Sololá	10	Octubre	2023-05-10T00:00:00	2024-11-08T03:00:00	4	Temperatura máxima	13.6
51139	7	Sololá	701	Sololá	1	Sololá	10	Octubre	2023-05-10T00:00:00	2024-11-08T03:00:00	3	Temperatura mínima	13.2
51140	7	Sololá	701	Sololá	1	Sololá	10	Octubre	2023-05-10T00:00:00	2024-11-08T03:00:00	5	Humedad	96
51141	7	Sololá	701	Sololá	1	Sololá	10	Octubre	2023-05-10T00:00:00	2024-11-08T03:00:00	6	Velocidad del viento	0
51142	7	Sololá	701	Sololá	1	Sololá	10	Octubre	2023-05-10T00:00:00	2024-11-08T03:00:00	7	Dirección del viento	0
51143	7	Sololá	701	Sololá	1	Sololá	10	Octubre	2023-05-10T00:00:00	2024-11-08T03:00:00	1	Precipitación	0
51144	7	Sololá	701	Sololá	1	Sololá	10	Octubre	2023-05-10T00:00:00	2024-11-08T03:00:00	8	Radiación solar	0
51145	7	Sololá	701	Sololá	1	Sololá	10	Octubre	2023-05-10T00:00:00	2024-11-08T04:00:00	2	Temperatura media	12.8
51146	7	Sololá	701	Sololá	1	Sololá	10	Octubre	2023-05-10T00:00:00	2024-11-08T04:00:00	4	Temperatura máxima	13.2
51147	7	Sololá	701	Sololá	1	Sololá	10	Octubre	2023-05-10T00:00:00	2024-11-08T04:00:00	3	Temperatura mínima	12.8
51148	7	Sololá	701	Sololá	1	Sololá	10	Octubre	2023-05-10T00:00:00	2024-11-08T04:00:00	5	Humedad	96
51149	7	Sololá	701	Sololá	1	Sololá	10	Octubre	2023-05-10T00:00:00	2024-11-08T04:00:00	6	Velocidad del viento	0
51150	7	Sololá	701	Sololá	1	Sololá	10	Octubre	2023-05-10T00:00:00	2024-11-08T04:00:00	7	Dirección del viento	0
51151	7	Sololá	701	Sololá	1	Sololá	10	Octubre	2023-05-10T00:00:00	2024-11-08T04:00:00	1	Precipitación	0
51152	7	Sololá	701	Sololá	1	Sololá	10	Octubre	2023-05-10T00:00:00	2024-11-08T04:00:00	8	Radiación solar	0
51153	7	Sololá	701	Sololá	1	Sololá	10	Octubre	2023-05-10T00:00:00	2024-11-08T05:00:00	2	Temperatura media	12.6
51154	7	Sololá	701	Sololá	1	Sololá	10	Octubre	2023-05-10T00:00:00	2024-11-08T05:00:00	4	Temperatura máxima	12.8
51155	7	Sololá	701	Sololá	1	Sololá	10	Octubre	2023-05-10T00:00:00	2024-11-08T05:00:00	3	Temperatura mínima	12.6
51156	7	Sololá	701	Sololá	1	Sololá	10	Octubre	2023-05-10T00:00:00	2024-11-08T05:00:00	5	Humedad	96
51157	7	Sololá	701	Sololá	1	Sololá	10	Octubre	2023-05-10T00:00:00	2024-11-08T05:00:00	6	Velocidad del viento	0
51158	7	Sololá	701	Sololá	1	Sololá	10	Octubre	2023-05-10T00:00:00	2024-11-08T05:00:00	7	Dirección del viento	0
51159	7	Sololá	701	Sololá	1	Sololá	10	Octubre	2023-05-10T00:00:00	2024-11-08T05:00:00	1	Precipitación	0
51160	7	Sololá	701	Sololá	1	Sololá	10	Octubre	2023-05-10T00:00:00	2024-11-08T05:00:00	8	Radiación solar	0
51161	7	Sololá	701	Sololá	1	Sololá	10	Octubre	2023-05-10T00:00:00	2024-11-08T06:00:00	2	Temperatura media	12.3
51162	7	Sololá	701	Sololá	1	Sololá	10	Octubre	2023-05-10T00:00:00	2024-11-08T06:00:00	4	Temperatura máxima	12.6
51163	7	Sololá	701	Sololá	1	Sololá	10	Octubre	2023-05-10T00:00:00	2024-11-08T06:00:00	3	Temperatura mínima	12.3
51164	7	Sololá	701	Sololá	1	Sololá	10	Octubre	2023-05-10T00:00:00	2024-11-08T06:00:00	5	Humedad	96
51165	7	Sololá	701	Sololá	1	Sololá	10	Octubre	2023-05-10T00:00:00	2024-11-08T06:00:00	6	Velocidad del viento	0
51166	7	Sololá	701	Sololá	1	Sololá	10	Octubre	2023-05-10T00:00:00	2024-11-08T06:00:00	7	Dirección del viento	0
51167	7	Sololá	701	Sololá	1	Sololá	10	Octubre	2023-05-10T00:00:00	2024-11-08T06:00:00	1	Precipitación	0
51168	7	Sololá	701	Sololá	1	Sololá	10	Octubre	2023-05-10T00:00:00	2024-11-08T06:00:00	8	Radiación solar	0
51169	7	Sololá	701	Sololá	1	Sololá	10	Octubre	2023-05-10T00:00:00	2024-11-08T07:00:00	2	Temperatura media	12.9
51170	7	Sololá	701	Sololá	1	Sololá	10	Octubre	2023-05-10T00:00:00	2024-11-08T07:00:00	4	Temperatura máxima	12.9
51171	7	Sololá	701	Sololá	1	Sololá	10	Octubre	2023-05-10T00:00:00	2024-11-08T07:00:00	3	Temperatura mínima	12.1
51172	7	Sololá	701	Sololá	1	Sololá	10	Octubre	2023-05-10T00:00:00	2024-11-08T07:00:00	5	Humedad	97
51173	7	Sololá	701	Sololá	1	Sololá	10	Octubre	2023-05-10T00:00:00	2024-11-08T07:00:00	6	Velocidad del viento	0
51174	7	Sololá	701	Sololá	1	Sololá	10	Octubre	2023-05-10T00:00:00	2024-11-08T07:00:00	7	Dirección del viento	0
51175	7	Sololá	701	Sololá	1	Sololá	10	Octubre	2023-05-10T00:00:00	2024-11-08T07:00:00	1	Precipitación	0
51176	7	Sololá	701	Sololá	1	Sololá	10	Octubre	2023-05-10T00:00:00	2024-11-08T07:00:00	8	Radiación solar	11
51177	7	Sololá	701	Sololá	1	Sololá	10	Octubre	2023-05-10T00:00:00	2024-11-08T08:00:00	2	Temperatura media	14.6
51178	7	Sololá	701	Sololá	1	Sololá	10	Octubre	2023-05-10T00:00:00	2024-11-08T08:00:00	4	Temperatura máxima	14.6
51179	7	Sololá	701	Sololá	1	Sololá	10	Octubre	2023-05-10T00:00:00	2024-11-08T08:00:00	3	Temperatura mínima	12.9
51180	7	Sololá	701	Sololá	1	Sololá	10	Octubre	2023-05-10T00:00:00	2024-11-08T08:00:00	5	Humedad	97
51181	7	Sololá	701	Sololá	1	Sololá	10	Octubre	2023-05-10T00:00:00	2024-11-08T08:00:00	6	Velocidad del viento	0
51182	7	Sololá	701	Sololá	1	Sololá	10	Octubre	2023-05-10T00:00:00	2024-11-08T08:00:00	7	Dirección del viento	0
51183	7	Sololá	701	Sololá	1	Sololá	10	Octubre	2023-05-10T00:00:00	2024-11-08T08:00:00	1	Precipitación	0.2
51184	7	Sololá	701	Sololá	1	Sololá	10	Octubre	2023-05-10T00:00:00	2024-11-08T08:00:00	8	Radiación solar	51
51185	7	Sololá	701	Sololá	1	Sololá	10	Octubre	2023-05-10T00:00:00	2024-11-08T09:00:00	2	Temperatura media	18.7
51186	7	Sololá	701	Sololá	1	Sololá	10	Octubre	2023-05-10T00:00:00	2024-11-08T09:00:00	4	Temperatura máxima	18.7
51187	7	Sololá	701	Sololá	1	Sololá	10	Octubre	2023-05-10T00:00:00	2024-11-08T09:00:00	3	Temperatura mínima	14.6
51188	7	Sololá	701	Sololá	1	Sololá	10	Octubre	2023-05-10T00:00:00	2024-11-08T09:00:00	5	Humedad	90
51189	7	Sololá	701	Sololá	1	Sololá	10	Octubre	2023-05-10T00:00:00	2024-11-08T09:00:00	6	Velocidad del viento	0
51190	7	Sololá	701	Sololá	1	Sololá	10	Octubre	2023-05-10T00:00:00	2024-11-08T09:00:00	7	Dirección del viento	0
51191	7	Sololá	701	Sololá	1	Sololá	10	Octubre	2023-05-10T00:00:00	2024-11-08T09:00:00	1	Precipitación	0
51192	7	Sololá	701	Sololá	1	Sololá	10	Octubre	2023-05-10T00:00:00	2024-11-08T09:00:00	8	Radiación solar	635
51193	7	Sololá	701	Sololá	1	Sololá	10	Octubre	2023-05-10T00:00:00	2024-11-08T10:00:00	2	Temperatura media	21.4
51194	7	Sololá	701	Sololá	1	Sololá	10	Octubre	2023-05-10T00:00:00	2024-11-08T10:00:00	4	Temperatura máxima	21.4
51195	7	Sololá	701	Sololá	1	Sololá	10	Octubre	2023-05-10T00:00:00	2024-11-08T10:00:00	3	Temperatura mínima	18.7
51196	7	Sololá	701	Sololá	1	Sololá	10	Octubre	2023-05-10T00:00:00	2024-11-08T10:00:00	5	Humedad	79
51197	7	Sololá	701	Sololá	1	Sololá	10	Octubre	2023-05-10T00:00:00	2024-11-08T10:00:00	6	Velocidad del viento	0
51198	7	Sololá	701	Sololá	1	Sololá	10	Octubre	2023-05-10T00:00:00	2024-11-08T10:00:00	7	Dirección del viento	0
51199	7	Sololá	701	Sololá	1	Sololá	10	Octubre	2023-05-10T00:00:00	2024-11-08T10:00:00	1	Precipitación	0
51200	7	Sololá	701	Sololá	1	Sololá	10	Octubre	2023-05-10T00:00:00	2024-11-08T10:00:00	8	Radiación solar	843
51201	7	Sololá	701	Sololá	1	Sololá	10	Octubre	2023-05-10T00:00:00	2024-11-08T11:00:00	2	Temperatura media	22.2
51202	7	Sololá	701	Sololá	1	Sololá	10	Octubre	2023-05-10T00:00:00	2024-11-08T11:00:00	4	Temperatura máxima	22.3
51203	7	Sololá	701	Sololá	1	Sololá	10	Octubre	2023-05-10T00:00:00	2024-11-08T11:00:00	3	Temperatura mínima	21.4
51204	7	Sololá	701	Sololá	1	Sololá	10	Octubre	2023-05-10T00:00:00	2024-11-08T11:00:00	5	Humedad	78
51205	7	Sololá	701	Sololá	1	Sololá	10	Octubre	2023-05-10T00:00:00	2024-11-08T11:00:00	6	Velocidad del viento	0
51206	7	Sololá	701	Sololá	1	Sololá	10	Octubre	2023-05-10T00:00:00	2024-11-08T11:00:00	7	Dirección del viento	0
51207	7	Sololá	701	Sololá	1	Sololá	10	Octubre	2023-05-10T00:00:00	2024-11-08T11:00:00	1	Precipitación	0
51208	7	Sololá	701	Sololá	1	Sololá	10	Octubre	2023-05-10T00:00:00	2024-11-08T11:00:00	8	Radiación solar	953
51209	7	Sololá	701	Sololá	1	Sololá	10	Octubre	2023-05-10T00:00:00	2024-11-08T12:00:00	2	Temperatura media	22
51210	7	Sololá	701	Sololá	1	Sololá	10	Octubre	2023-05-10T00:00:00	2024-11-08T12:00:00	4	Temperatura máxima	22.6
51211	7	Sololá	701	Sololá	1	Sololá	10	Octubre	2023-05-10T00:00:00	2024-11-08T12:00:00	3	Temperatura mínima	22
51212	7	Sololá	701	Sololá	1	Sololá	10	Octubre	2023-05-10T00:00:00	2024-11-08T12:00:00	5	Humedad	80
51213	7	Sololá	701	Sololá	1	Sololá	10	Octubre	2023-05-10T00:00:00	2024-11-08T12:00:00	6	Velocidad del viento	0
51214	7	Sololá	701	Sololá	1	Sololá	10	Octubre	2023-05-10T00:00:00	2024-11-08T12:00:00	7	Dirección del viento	0
51215	7	Sololá	701	Sololá	1	Sololá	10	Octubre	2023-05-10T00:00:00	2024-11-08T12:00:00	1	Precipitación	0
51216	7	Sololá	701	Sololá	1	Sololá	10	Octubre	2023-05-10T00:00:00	2024-11-08T12:00:00	8	Radiación solar	933
51217	7	Sololá	701	Sololá	1	Sololá	10	Octubre	2023-05-10T00:00:00	2024-11-08T13:00:00	2	Temperatura media	20.4
51218	7	Sololá	701	Sololá	1	Sololá	10	Octubre	2023-05-10T00:00:00	2024-11-08T13:00:00	4	Temperatura máxima	22.2
51219	7	Sololá	701	Sololá	1	Sololá	10	Octubre	2023-05-10T00:00:00	2024-11-08T13:00:00	3	Temperatura mínima	20.4
51220	7	Sololá	701	Sololá	1	Sololá	10	Octubre	2023-05-10T00:00:00	2024-11-08T13:00:00	5	Humedad	88
51221	7	Sololá	701	Sololá	1	Sololá	10	Octubre	2023-05-10T00:00:00	2024-11-08T13:00:00	6	Velocidad del viento	0
51222	7	Sololá	701	Sololá	1	Sololá	10	Octubre	2023-05-10T00:00:00	2024-11-08T13:00:00	7	Dirección del viento	0
51223	7	Sololá	701	Sololá	1	Sololá	10	Octubre	2023-05-10T00:00:00	2024-11-08T13:00:00	1	Precipitación	0
51224	7	Sololá	701	Sololá	1	Sololá	10	Octubre	2023-05-10T00:00:00	2024-11-08T13:00:00	8	Radiación solar	273
51225	7	Sololá	701	Sololá	1	Sololá	10	Octubre	2023-05-10T00:00:00	2024-11-08T14:00:00	2	Temperatura media	19.3
51226	7	Sololá	701	Sololá	1	Sololá	10	Octubre	2023-05-10T00:00:00	2024-11-08T14:00:00	4	Temperatura máxima	20.4
51227	7	Sololá	701	Sololá	1	Sololá	10	Octubre	2023-05-10T00:00:00	2024-11-08T14:00:00	3	Temperatura mínima	19.3
51228	7	Sololá	701	Sololá	1	Sololá	10	Octubre	2023-05-10T00:00:00	2024-11-08T14:00:00	5	Humedad	90
51229	7	Sololá	701	Sololá	1	Sololá	10	Octubre	2023-05-10T00:00:00	2024-11-08T14:00:00	6	Velocidad del viento	0
51230	7	Sololá	701	Sololá	1	Sololá	10	Octubre	2023-05-10T00:00:00	2024-11-08T14:00:00	7	Dirección del viento	0
51231	7	Sololá	701	Sololá	1	Sololá	10	Octubre	2023-05-10T00:00:00	2024-11-08T14:00:00	1	Precipitación	0
51232	7	Sololá	701	Sololá	1	Sololá	10	Octubre	2023-05-10T00:00:00	2024-11-08T14:00:00	8	Radiación solar	130
51233	7	Sololá	701	Sololá	1	Sololá	10	Octubre	2023-05-10T00:00:00	2024-11-08T15:00:00	2	Temperatura media	18.8
51234	7	Sololá	701	Sololá	1	Sololá	10	Octubre	2023-05-10T00:00:00	2024-11-08T15:00:00	4	Temperatura máxima	19.3
51235	7	Sololá	701	Sololá	1	Sololá	10	Octubre	2023-05-10T00:00:00	2024-11-08T15:00:00	3	Temperatura mínima	18.7
51236	7	Sololá	701	Sololá	1	Sololá	10	Octubre	2023-05-10T00:00:00	2024-11-08T15:00:00	5	Humedad	92
51237	7	Sololá	701	Sololá	1	Sololá	10	Octubre	2023-05-10T00:00:00	2024-11-08T15:00:00	6	Velocidad del viento	0
51238	7	Sololá	701	Sololá	1	Sololá	10	Octubre	2023-05-10T00:00:00	2024-11-08T15:00:00	7	Dirección del viento	0
51239	7	Sololá	701	Sololá	1	Sololá	10	Octubre	2023-05-10T00:00:00	2024-11-08T15:00:00	1	Precipitación	0
51240	7	Sololá	701	Sololá	1	Sololá	10	Octubre	2023-05-10T00:00:00	2024-11-08T15:00:00	8	Radiación solar	89
51241	7	Sololá	701	Sololá	1	Sololá	10	Octubre	2023-05-10T00:00:00	2024-11-08T16:00:00	2	Temperatura media	18.1
51242	7	Sololá	701	Sololá	1	Sololá	10	Octubre	2023-05-10T00:00:00	2024-11-08T16:00:00	4	Temperatura máxima	18.8
51243	7	Sololá	701	Sololá	1	Sololá	10	Octubre	2023-05-10T00:00:00	2024-11-08T16:00:00	3	Temperatura mínima	18.1
51244	7	Sololá	701	Sololá	1	Sololá	10	Octubre	2023-05-10T00:00:00	2024-11-08T16:00:00	5	Humedad	93
51245	7	Sololá	701	Sololá	1	Sololá	10	Octubre	2023-05-10T00:00:00	2024-11-08T16:00:00	6	Velocidad del viento	0
51246	7	Sololá	701	Sololá	1	Sololá	10	Octubre	2023-05-10T00:00:00	2024-11-08T16:00:00	7	Dirección del viento	0
51247	7	Sololá	701	Sololá	1	Sololá	10	Octubre	2023-05-10T00:00:00	2024-11-08T16:00:00	1	Precipitación	0
51248	7	Sololá	701	Sololá	1	Sololá	10	Octubre	2023-05-10T00:00:00	2024-11-08T16:00:00	8	Radiación solar	42
51249	7	Sololá	701	Sololá	1	Sololá	10	Octubre	2023-05-10T00:00:00	2024-11-08T17:00:00	2	Temperatura media	17.8
51250	7	Sololá	701	Sololá	1	Sololá	10	Octubre	2023-05-10T00:00:00	2024-11-08T17:00:00	4	Temperatura máxima	18.2
51251	7	Sololá	701	Sololá	1	Sololá	10	Octubre	2023-05-10T00:00:00	2024-11-08T17:00:00	3	Temperatura mínima	17.8
51252	7	Sololá	701	Sololá	1	Sololá	10	Octubre	2023-05-10T00:00:00	2024-11-08T17:00:00	5	Humedad	94
51253	7	Sololá	701	Sololá	1	Sololá	10	Octubre	2023-05-10T00:00:00	2024-11-08T17:00:00	6	Velocidad del viento	0
51254	7	Sololá	701	Sololá	1	Sololá	10	Octubre	2023-05-10T00:00:00	2024-11-08T17:00:00	7	Dirección del viento	0
51255	7	Sololá	701	Sololá	1	Sololá	10	Octubre	2023-05-10T00:00:00	2024-11-08T17:00:00	1	Precipitación	0
51256	7	Sololá	701	Sololá	1	Sololá	10	Octubre	2023-05-10T00:00:00	2024-11-08T17:00:00	8	Radiación solar	24
51257	7	Sololá	701	Sololá	1	Sololá	10	Octubre	2023-05-10T00:00:00	2024-11-08T18:00:00	2	Temperatura media	16.9
51258	7	Sololá	701	Sololá	1	Sololá	10	Octubre	2023-05-10T00:00:00	2024-11-08T18:00:00	4	Temperatura máxima	17.9
51259	7	Sololá	701	Sololá	1	Sololá	10	Octubre	2023-05-10T00:00:00	2024-11-08T18:00:00	3	Temperatura mínima	16.9
51260	7	Sololá	701	Sololá	1	Sololá	10	Octubre	2023-05-10T00:00:00	2024-11-08T18:00:00	5	Humedad	94
51261	7	Sololá	701	Sololá	1	Sololá	10	Octubre	2023-05-10T00:00:00	2024-11-08T18:00:00	6	Velocidad del viento	0
51262	7	Sololá	701	Sololá	1	Sololá	10	Octubre	2023-05-10T00:00:00	2024-11-08T18:00:00	7	Dirección del viento	0
51263	7	Sololá	701	Sololá	1	Sololá	10	Octubre	2023-05-10T00:00:00	2024-11-08T18:00:00	1	Precipitación	0
51264	7	Sololá	701	Sololá	1	Sololá	10	Octubre	2023-05-10T00:00:00	2024-11-08T18:00:00	8	Radiación solar	2
51265	7	Sololá	701	Sololá	1	Sololá	10	Octubre	2023-05-10T00:00:00	2024-11-08T19:00:00	2	Temperatura media	16
51266	7	Sololá	701	Sololá	1	Sololá	10	Octubre	2023-05-10T00:00:00	2024-11-08T19:00:00	4	Temperatura máxima	16.9
51267	7	Sololá	701	Sololá	1	Sololá	10	Octubre	2023-05-10T00:00:00	2024-11-08T19:00:00	3	Temperatura mínima	16
51268	7	Sololá	701	Sololá	1	Sololá	10	Octubre	2023-05-10T00:00:00	2024-11-08T19:00:00	5	Humedad	95
51269	7	Sololá	701	Sololá	1	Sololá	10	Octubre	2023-05-10T00:00:00	2024-11-08T19:00:00	6	Velocidad del viento	0
51270	7	Sololá	701	Sololá	1	Sololá	10	Octubre	2023-05-10T00:00:00	2024-11-08T19:00:00	7	Dirección del viento	0
51271	7	Sololá	701	Sololá	1	Sololá	10	Octubre	2023-05-10T00:00:00	2024-11-08T19:00:00	1	Precipitación	0
51272	7	Sololá	701	Sololá	1	Sololá	10	Octubre	2023-05-10T00:00:00	2024-11-08T19:00:00	8	Radiación solar	0
51273	7	Sololá	701	Sololá	1	Sololá	10	Octubre	2023-05-10T00:00:00	2024-11-08T20:00:00	2	Temperatura media	15.6
51274	7	Sololá	701	Sololá	1	Sololá	10	Octubre	2023-05-10T00:00:00	2024-11-08T20:00:00	4	Temperatura máxima	16
51275	7	Sololá	701	Sololá	1	Sololá	10	Octubre	2023-05-10T00:00:00	2024-11-08T20:00:00	3	Temperatura mínima	15.6
51276	7	Sololá	701	Sololá	1	Sololá	10	Octubre	2023-05-10T00:00:00	2024-11-08T20:00:00	5	Humedad	95
51277	7	Sololá	701	Sololá	1	Sololá	10	Octubre	2023-05-10T00:00:00	2024-11-08T20:00:00	6	Velocidad del viento	0
51278	7	Sololá	701	Sololá	1	Sololá	10	Octubre	2023-05-10T00:00:00	2024-11-08T20:00:00	7	Dirección del viento	0
51279	7	Sololá	701	Sololá	1	Sololá	10	Octubre	2023-05-10T00:00:00	2024-11-08T20:00:00	1	Precipitación	0
51280	7	Sololá	701	Sololá	1	Sololá	10	Octubre	2023-05-10T00:00:00	2024-11-08T20:00:00	8	Radiación solar	0
51281	7	Sololá	701	Sololá	1	Sololá	10	Octubre	2023-05-10T00:00:00	2024-11-08T21:00:00	2	Temperatura media	15.5
51282	7	Sololá	701	Sololá	1	Sololá	10	Octubre	2023-05-10T00:00:00	2024-11-08T21:00:00	4	Temperatura máxima	15.7
51283	7	Sololá	701	Sololá	1	Sololá	10	Octubre	2023-05-10T00:00:00	2024-11-08T21:00:00	3	Temperatura mínima	15.5
51284	7	Sololá	701	Sololá	1	Sololá	10	Octubre	2023-05-10T00:00:00	2024-11-08T21:00:00	5	Humedad	94
51285	7	Sololá	701	Sololá	1	Sololá	10	Octubre	2023-05-10T00:00:00	2024-11-08T21:00:00	6	Velocidad del viento	0
51286	7	Sololá	701	Sololá	1	Sololá	10	Octubre	2023-05-10T00:00:00	2024-11-08T21:00:00	7	Dirección del viento	0
51287	7	Sololá	701	Sololá	1	Sololá	10	Octubre	2023-05-10T00:00:00	2024-11-08T21:00:00	1	Precipitación	0
51288	7	Sololá	701	Sololá	1	Sololá	10	Octubre	2023-05-10T00:00:00	2024-11-08T21:00:00	8	Radiación solar	0
51289	7	Sololá	701	Sololá	1	Sololá	10	Octubre	2023-05-10T00:00:00	2024-11-08T22:00:00	2	Temperatura media	15.2
51290	7	Sololá	701	Sololá	1	Sololá	10	Octubre	2023-05-10T00:00:00	2024-11-08T22:00:00	4	Temperatura máxima	15.5
51291	7	Sololá	701	Sololá	1	Sololá	10	Octubre	2023-05-10T00:00:00	2024-11-08T22:00:00	3	Temperatura mínima	15.1
51292	7	Sololá	701	Sololá	1	Sololá	10	Octubre	2023-05-10T00:00:00	2024-11-08T22:00:00	5	Humedad	94
51293	7	Sololá	701	Sololá	1	Sololá	10	Octubre	2023-05-10T00:00:00	2024-11-08T22:00:00	6	Velocidad del viento	0
51294	7	Sololá	701	Sololá	1	Sololá	10	Octubre	2023-05-10T00:00:00	2024-11-08T22:00:00	7	Dirección del viento	0
51295	7	Sololá	701	Sololá	1	Sololá	10	Octubre	2023-05-10T00:00:00	2024-11-08T22:00:00	1	Precipitación	0
51296	7	Sololá	701	Sololá	1	Sololá	10	Octubre	2023-05-10T00:00:00	2024-11-08T22:00:00	8	Radiación solar	0
51297	7	Sololá	701	Sololá	1	Sololá	10	Octubre	2023-05-10T00:00:00	2024-11-08T23:00:00	2	Temperatura media	15.2
51298	7	Sololá	701	Sololá	1	Sololá	10	Octubre	2023-05-10T00:00:00	2024-11-08T23:00:00	4	Temperatura máxima	15.3
51299	7	Sololá	701	Sololá	1	Sololá	10	Octubre	2023-05-10T00:00:00	2024-11-08T23:00:00	3	Temperatura mínima	15
51300	7	Sololá	701	Sololá	1	Sololá	10	Octubre	2023-05-10T00:00:00	2024-11-08T23:00:00	5	Humedad	93
51301	7	Sololá	701	Sololá	1	Sololá	10	Octubre	2023-05-10T00:00:00	2024-11-08T23:00:00	6	Velocidad del viento	0
51302	7	Sololá	701	Sololá	1	Sololá	10	Octubre	2023-05-10T00:00:00	2024-11-08T23:00:00	7	Dirección del viento	0
51303	7	Sololá	701	Sololá	1	Sololá	10	Octubre	2023-05-10T00:00:00	2024-11-08T23:00:00	1	Precipitación	0
51304	7	Sololá	701	Sololá	1	Sololá	10	Octubre	2023-05-10T00:00:00	2024-11-08T23:00:00	8	Radiación solar	0
51305	7	Sololá	701	Sololá	1	Sololá	10	Octubre	2023-06-10T00:00:00	2024-11-08T00:00:00	2	Temperatura media	15.1
51306	7	Sololá	701	Sololá	1	Sololá	10	Octubre	2023-06-10T00:00:00	2024-11-08T00:00:00	4	Temperatura máxima	15.3
51307	7	Sololá	701	Sololá	1	Sololá	10	Octubre	2023-06-10T00:00:00	2024-11-08T00:00:00	3	Temperatura mínima	15.1
51308	7	Sololá	701	Sololá	1	Sololá	10	Octubre	2023-06-10T00:00:00	2024-11-08T00:00:00	5	Humedad	93
51309	7	Sololá	701	Sololá	1	Sololá	10	Octubre	2023-06-10T00:00:00	2024-11-08T00:00:00	6	Velocidad del viento	0
51310	7	Sololá	701	Sololá	1	Sololá	10	Octubre	2023-06-10T00:00:00	2024-11-08T00:00:00	7	Dirección del viento	0
51311	7	Sololá	701	Sololá	1	Sololá	10	Octubre	2023-06-10T00:00:00	2024-11-08T00:00:00	1	Precipitación	0
51312	7	Sololá	701	Sololá	1	Sololá	10	Octubre	2023-06-10T00:00:00	2024-11-08T00:00:00	8	Radiación solar	0
51313	7	Sololá	701	Sololá	1	Sololá	10	Octubre	2023-06-10T00:00:00	2024-11-08T01:00:00	2	Temperatura media	14.7
51314	7	Sololá	701	Sololá	1	Sololá	10	Octubre	2023-06-10T00:00:00	2024-11-08T01:00:00	4	Temperatura máxima	15.1
51315	7	Sololá	701	Sololá	1	Sololá	10	Octubre	2023-06-10T00:00:00	2024-11-08T01:00:00	3	Temperatura mínima	14.7
51316	7	Sololá	701	Sololá	1	Sololá	10	Octubre	2023-06-10T00:00:00	2024-11-08T01:00:00	5	Humedad	94
51317	7	Sololá	701	Sololá	1	Sololá	10	Octubre	2023-06-10T00:00:00	2024-11-08T01:00:00	6	Velocidad del viento	0
51318	7	Sololá	701	Sololá	1	Sololá	10	Octubre	2023-06-10T00:00:00	2024-11-08T01:00:00	7	Dirección del viento	0
51319	7	Sololá	701	Sololá	1	Sololá	10	Octubre	2023-06-10T00:00:00	2024-11-08T01:00:00	1	Precipitación	0
51320	7	Sololá	701	Sololá	1	Sololá	10	Octubre	2023-06-10T00:00:00	2024-11-08T01:00:00	8	Radiación solar	0
51321	7	Sololá	701	Sololá	1	Sololá	10	Octubre	2023-06-10T00:00:00	2024-11-08T02:00:00	2	Temperatura media	14.3
51322	7	Sololá	701	Sololá	1	Sololá	10	Octubre	2023-06-10T00:00:00	2024-11-08T02:00:00	4	Temperatura máxima	14.8
51323	7	Sololá	701	Sololá	1	Sololá	10	Octubre	2023-06-10T00:00:00	2024-11-08T02:00:00	3	Temperatura mínima	14.3
51324	7	Sololá	701	Sololá	1	Sololá	10	Octubre	2023-06-10T00:00:00	2024-11-08T02:00:00	5	Humedad	94
51325	7	Sololá	701	Sololá	1	Sololá	10	Octubre	2023-06-10T00:00:00	2024-11-08T02:00:00	6	Velocidad del viento	0
51326	7	Sololá	701	Sololá	1	Sololá	10	Octubre	2023-06-10T00:00:00	2024-11-08T02:00:00	7	Dirección del viento	0
51327	7	Sololá	701	Sololá	1	Sololá	10	Octubre	2023-06-10T00:00:00	2024-11-08T02:00:00	1	Precipitación	0
51328	7	Sololá	701	Sololá	1	Sololá	10	Octubre	2023-06-10T00:00:00	2024-11-08T02:00:00	8	Radiación solar	0
51329	7	Sololá	701	Sololá	1	Sololá	10	Octubre	2023-06-10T00:00:00	2024-11-08T03:00:00	2	Temperatura media	13.3
51330	7	Sololá	701	Sololá	1	Sololá	10	Octubre	2023-06-10T00:00:00	2024-11-08T03:00:00	4	Temperatura máxima	14.3
51331	7	Sololá	701	Sololá	1	Sololá	10	Octubre	2023-06-10T00:00:00	2024-11-08T03:00:00	3	Temperatura mínima	13.3
51332	7	Sololá	701	Sololá	1	Sololá	10	Octubre	2023-06-10T00:00:00	2024-11-08T03:00:00	5	Humedad	94
51333	7	Sololá	701	Sololá	1	Sololá	10	Octubre	2023-06-10T00:00:00	2024-11-08T03:00:00	6	Velocidad del viento	0
51334	7	Sololá	701	Sololá	1	Sololá	10	Octubre	2023-06-10T00:00:00	2024-11-08T03:00:00	7	Dirección del viento	0
51335	7	Sololá	701	Sololá	1	Sololá	10	Octubre	2023-06-10T00:00:00	2024-11-08T03:00:00	1	Precipitación	0
51336	7	Sololá	701	Sololá	1	Sololá	10	Octubre	2023-06-10T00:00:00	2024-11-08T03:00:00	8	Radiación solar	0
51337	7	Sololá	701	Sololá	1	Sololá	10	Octubre	2023-06-10T00:00:00	2024-11-08T04:00:00	2	Temperatura media	13
51338	7	Sololá	701	Sololá	1	Sololá	10	Octubre	2023-06-10T00:00:00	2024-11-08T04:00:00	4	Temperatura máxima	13.3
51339	7	Sololá	701	Sololá	1	Sololá	10	Octubre	2023-06-10T00:00:00	2024-11-08T04:00:00	3	Temperatura mínima	12.9
51340	7	Sololá	701	Sololá	1	Sololá	10	Octubre	2023-06-10T00:00:00	2024-11-08T04:00:00	5	Humedad	94
51341	7	Sololá	701	Sololá	1	Sololá	10	Octubre	2023-06-10T00:00:00	2024-11-08T04:00:00	6	Velocidad del viento	0
51342	7	Sololá	701	Sololá	1	Sololá	10	Octubre	2023-06-10T00:00:00	2024-11-08T04:00:00	7	Dirección del viento	0
51343	7	Sololá	701	Sololá	1	Sololá	10	Octubre	2023-06-10T00:00:00	2024-11-08T04:00:00	1	Precipitación	0
51344	7	Sololá	701	Sololá	1	Sololá	10	Octubre	2023-06-10T00:00:00	2024-11-08T04:00:00	8	Radiación solar	0
51345	7	Sololá	701	Sololá	1	Sololá	10	Octubre	2023-06-10T00:00:00	2024-11-08T05:00:00	2	Temperatura media	13.3
51346	7	Sololá	701	Sololá	1	Sololá	10	Octubre	2023-06-10T00:00:00	2024-11-08T05:00:00	4	Temperatura máxima	13.3
51347	7	Sololá	701	Sololá	1	Sololá	10	Octubre	2023-06-10T00:00:00	2024-11-08T05:00:00	3	Temperatura mínima	12.9
51348	7	Sololá	701	Sololá	1	Sololá	10	Octubre	2023-06-10T00:00:00	2024-11-08T05:00:00	5	Humedad	94
51349	7	Sololá	701	Sololá	1	Sololá	10	Octubre	2023-06-10T00:00:00	2024-11-08T05:00:00	6	Velocidad del viento	0
51350	7	Sololá	701	Sololá	1	Sololá	10	Octubre	2023-06-10T00:00:00	2024-11-08T05:00:00	7	Dirección del viento	0
51351	7	Sololá	701	Sololá	1	Sololá	10	Octubre	2023-06-10T00:00:00	2024-11-08T05:00:00	1	Precipitación	0
51352	7	Sololá	701	Sololá	1	Sololá	10	Octubre	2023-06-10T00:00:00	2024-11-08T05:00:00	8	Radiación solar	0
51353	7	Sololá	701	Sololá	1	Sololá	10	Octubre	2023-06-10T00:00:00	2024-11-08T06:00:00	2	Temperatura media	13.2
51354	7	Sololá	701	Sololá	1	Sololá	10	Octubre	2023-06-10T00:00:00	2024-11-08T06:00:00	4	Temperatura máxima	13.3
51355	7	Sololá	701	Sololá	1	Sololá	10	Octubre	2023-06-10T00:00:00	2024-11-08T06:00:00	3	Temperatura mínima	13.2
51356	7	Sololá	701	Sololá	1	Sololá	10	Octubre	2023-06-10T00:00:00	2024-11-08T06:00:00	5	Humedad	95
51357	7	Sololá	701	Sololá	1	Sololá	10	Octubre	2023-06-10T00:00:00	2024-11-08T06:00:00	6	Velocidad del viento	0
51358	7	Sololá	701	Sololá	1	Sololá	10	Octubre	2023-06-10T00:00:00	2024-11-08T06:00:00	7	Dirección del viento	0
51359	7	Sololá	701	Sololá	1	Sololá	10	Octubre	2023-06-10T00:00:00	2024-11-08T06:00:00	1	Precipitación	0
51360	7	Sololá	701	Sololá	1	Sololá	10	Octubre	2023-06-10T00:00:00	2024-11-08T06:00:00	8	Radiación solar	0
51361	7	Sololá	701	Sololá	1	Sololá	10	Octubre	2023-06-10T00:00:00	2024-11-08T07:00:00	2	Temperatura media	13.3
51362	7	Sololá	701	Sololá	1	Sololá	10	Octubre	2023-06-10T00:00:00	2024-11-08T07:00:00	4	Temperatura máxima	13.3
51363	7	Sololá	701	Sololá	1	Sololá	10	Octubre	2023-06-10T00:00:00	2024-11-08T07:00:00	3	Temperatura mínima	12.9
51364	7	Sololá	701	Sololá	1	Sololá	10	Octubre	2023-06-10T00:00:00	2024-11-08T07:00:00	5	Humedad	94
51365	7	Sololá	701	Sololá	1	Sololá	10	Octubre	2023-06-10T00:00:00	2024-11-08T07:00:00	6	Velocidad del viento	0
51366	7	Sololá	701	Sololá	1	Sololá	10	Octubre	2023-06-10T00:00:00	2024-11-08T07:00:00	7	Dirección del viento	0
51367	7	Sololá	701	Sololá	1	Sololá	10	Octubre	2023-06-10T00:00:00	2024-11-08T07:00:00	1	Precipitación	0
51368	7	Sololá	701	Sololá	1	Sololá	10	Octubre	2023-06-10T00:00:00	2024-11-08T07:00:00	8	Radiación solar	16
51369	7	Sololá	701	Sololá	1	Sololá	10	Octubre	2023-06-10T00:00:00	2024-11-08T08:00:00	2	Temperatura media	15.6
51370	7	Sololá	701	Sololá	1	Sololá	10	Octubre	2023-06-10T00:00:00	2024-11-08T08:00:00	4	Temperatura máxima	15.6
51371	7	Sololá	701	Sololá	1	Sololá	10	Octubre	2023-06-10T00:00:00	2024-11-08T08:00:00	3	Temperatura mínima	13.3
51372	7	Sololá	701	Sololá	1	Sololá	10	Octubre	2023-06-10T00:00:00	2024-11-08T08:00:00	5	Humedad	94
51373	7	Sololá	701	Sololá	1	Sololá	10	Octubre	2023-06-10T00:00:00	2024-11-08T08:00:00	6	Velocidad del viento	0
51374	7	Sololá	701	Sololá	1	Sololá	10	Octubre	2023-06-10T00:00:00	2024-11-08T08:00:00	7	Dirección del viento	0
51375	7	Sololá	701	Sololá	1	Sololá	10	Octubre	2023-06-10T00:00:00	2024-11-08T08:00:00	1	Precipitación	0
51376	7	Sololá	701	Sololá	1	Sololá	10	Octubre	2023-06-10T00:00:00	2024-11-08T08:00:00	8	Radiación solar	58
51377	7	Sololá	701	Sololá	1	Sololá	10	Octubre	2023-06-10T00:00:00	2024-11-08T09:00:00	2	Temperatura media	21.3
51378	7	Sololá	701	Sololá	1	Sololá	10	Octubre	2023-06-10T00:00:00	2024-11-08T09:00:00	4	Temperatura máxima	21.3
51379	7	Sololá	701	Sololá	1	Sololá	10	Octubre	2023-06-10T00:00:00	2024-11-08T09:00:00	3	Temperatura mínima	15.6
51380	7	Sololá	701	Sololá	1	Sololá	10	Octubre	2023-06-10T00:00:00	2024-11-08T09:00:00	5	Humedad	78
51381	7	Sololá	701	Sololá	1	Sololá	10	Octubre	2023-06-10T00:00:00	2024-11-08T09:00:00	6	Velocidad del viento	0
51382	7	Sololá	701	Sololá	1	Sololá	10	Octubre	2023-06-10T00:00:00	2024-11-08T09:00:00	7	Dirección del viento	0
51383	7	Sololá	701	Sololá	1	Sololá	10	Octubre	2023-06-10T00:00:00	2024-11-08T09:00:00	1	Precipitación	0
51384	7	Sololá	701	Sololá	1	Sololá	10	Octubre	2023-06-10T00:00:00	2024-11-08T09:00:00	8	Radiación solar	640
51385	7	Sololá	701	Sololá	1	Sololá	10	Octubre	2023-06-10T00:00:00	2024-11-08T10:00:00	2	Temperatura media	22.1
51386	7	Sololá	701	Sololá	1	Sololá	10	Octubre	2023-06-10T00:00:00	2024-11-08T10:00:00	4	Temperatura máxima	22.5
51387	7	Sololá	701	Sololá	1	Sololá	10	Octubre	2023-06-10T00:00:00	2024-11-08T10:00:00	3	Temperatura mínima	21.3
51388	7	Sololá	701	Sololá	1	Sololá	10	Octubre	2023-06-10T00:00:00	2024-11-08T10:00:00	5	Humedad	80
51389	7	Sololá	701	Sololá	1	Sololá	10	Octubre	2023-06-10T00:00:00	2024-11-08T10:00:00	6	Velocidad del viento	0
51390	7	Sololá	701	Sololá	1	Sololá	10	Octubre	2023-06-10T00:00:00	2024-11-08T10:00:00	7	Dirección del viento	0
51391	7	Sololá	701	Sololá	1	Sololá	10	Octubre	2023-06-10T00:00:00	2024-11-08T10:00:00	1	Precipitación	0
51392	7	Sololá	701	Sololá	1	Sololá	10	Octubre	2023-06-10T00:00:00	2024-11-08T10:00:00	8	Radiación solar	876
51393	7	Sololá	701	Sololá	1	Sololá	10	Octubre	2023-06-10T00:00:00	2024-11-08T11:00:00	2	Temperatura media	21.1
51394	7	Sololá	701	Sololá	1	Sololá	10	Octubre	2023-06-10T00:00:00	2024-11-08T11:00:00	4	Temperatura máxima	22.1
51395	7	Sololá	701	Sololá	1	Sololá	10	Octubre	2023-06-10T00:00:00	2024-11-08T11:00:00	3	Temperatura mínima	20.9
51396	7	Sololá	701	Sololá	1	Sololá	10	Octubre	2023-06-10T00:00:00	2024-11-08T11:00:00	5	Humedad	84
51397	7	Sololá	701	Sololá	1	Sololá	10	Octubre	2023-06-10T00:00:00	2024-11-08T11:00:00	6	Velocidad del viento	0
51398	7	Sololá	701	Sololá	1	Sololá	10	Octubre	2023-06-10T00:00:00	2024-11-08T11:00:00	7	Dirección del viento	0
51399	7	Sololá	701	Sololá	1	Sololá	10	Octubre	2023-06-10T00:00:00	2024-11-08T11:00:00	1	Precipitación	0
51400	7	Sololá	701	Sololá	1	Sololá	10	Octubre	2023-06-10T00:00:00	2024-11-08T11:00:00	8	Radiación solar	468
51401	7	Sololá	701	Sololá	1	Sololá	10	Octubre	2023-06-10T00:00:00	2024-11-08T12:00:00	2	Temperatura media	22.6
51402	7	Sololá	701	Sololá	1	Sololá	10	Octubre	2023-06-10T00:00:00	2024-11-08T12:00:00	4	Temperatura máxima	22.6
51403	7	Sololá	701	Sololá	1	Sololá	10	Octubre	2023-06-10T00:00:00	2024-11-08T12:00:00	3	Temperatura mínima	20.8
51404	7	Sololá	701	Sololá	1	Sololá	10	Octubre	2023-06-10T00:00:00	2024-11-08T12:00:00	5	Humedad	84
51405	7	Sololá	701	Sololá	1	Sololá	10	Octubre	2023-06-10T00:00:00	2024-11-08T12:00:00	6	Velocidad del viento	0
51406	7	Sololá	701	Sololá	1	Sololá	10	Octubre	2023-06-10T00:00:00	2024-11-08T12:00:00	7	Dirección del viento	0
51407	7	Sololá	701	Sololá	1	Sololá	10	Octubre	2023-06-10T00:00:00	2024-11-08T12:00:00	1	Precipitación	0
51408	7	Sololá	701	Sololá	1	Sololá	10	Octubre	2023-06-10T00:00:00	2024-11-08T12:00:00	8	Radiación solar	819
51409	7	Sololá	701	Sololá	1	Sololá	10	Octubre	2023-06-10T00:00:00	2024-11-08T13:00:00	2	Temperatura media	20.8
51410	7	Sololá	701	Sololá	1	Sololá	10	Octubre	2023-06-10T00:00:00	2024-11-08T13:00:00	4	Temperatura máxima	22.8
51411	7	Sololá	701	Sololá	1	Sololá	10	Octubre	2023-06-10T00:00:00	2024-11-08T13:00:00	3	Temperatura mínima	20.8
51412	7	Sololá	701	Sololá	1	Sololá	10	Octubre	2023-06-10T00:00:00	2024-11-08T13:00:00	5	Humedad	84
51413	7	Sololá	701	Sololá	1	Sololá	10	Octubre	2023-06-10T00:00:00	2024-11-08T13:00:00	6	Velocidad del viento	0
51414	7	Sololá	701	Sololá	1	Sololá	10	Octubre	2023-06-10T00:00:00	2024-11-08T13:00:00	7	Dirección del viento	0
51415	7	Sololá	701	Sololá	1	Sololá	10	Octubre	2023-06-10T00:00:00	2024-11-08T13:00:00	1	Precipitación	0
51416	7	Sololá	701	Sololá	1	Sololá	10	Octubre	2023-06-10T00:00:00	2024-11-08T13:00:00	8	Radiación solar	186
51417	7	Sololá	701	Sololá	1	Sololá	10	Octubre	2023-06-10T00:00:00	2024-11-08T14:00:00	2	Temperatura media	20.4
51418	7	Sololá	701	Sololá	1	Sololá	10	Octubre	2023-06-10T00:00:00	2024-11-08T14:00:00	4	Temperatura máxima	20.8
51419	7	Sololá	701	Sololá	1	Sololá	10	Octubre	2023-06-10T00:00:00	2024-11-08T14:00:00	3	Temperatura mínima	20.2
51420	7	Sololá	701	Sololá	1	Sololá	10	Octubre	2023-06-10T00:00:00	2024-11-08T14:00:00	5	Humedad	90
51421	7	Sololá	701	Sololá	1	Sololá	10	Octubre	2023-06-10T00:00:00	2024-11-08T14:00:00	6	Velocidad del viento	0
51422	7	Sololá	701	Sololá	1	Sololá	10	Octubre	2023-06-10T00:00:00	2024-11-08T14:00:00	7	Dirección del viento	0
51423	7	Sololá	701	Sololá	1	Sololá	10	Octubre	2023-06-10T00:00:00	2024-11-08T14:00:00	1	Precipitación	0
51424	7	Sololá	701	Sololá	1	Sololá	10	Octubre	2023-06-10T00:00:00	2024-11-08T14:00:00	8	Radiación solar	170
51425	7	Sololá	701	Sololá	1	Sololá	10	Octubre	2023-06-10T00:00:00	2024-11-08T15:00:00	2	Temperatura media	20.1
51426	7	Sololá	701	Sololá	1	Sololá	10	Octubre	2023-06-10T00:00:00	2024-11-08T15:00:00	4	Temperatura máxima	20.6
51427	7	Sololá	701	Sololá	1	Sololá	10	Octubre	2023-06-10T00:00:00	2024-11-08T15:00:00	3	Temperatura mínima	19.8
51428	7	Sololá	701	Sololá	1	Sololá	10	Octubre	2023-06-10T00:00:00	2024-11-08T15:00:00	5	Humedad	89
51429	7	Sololá	701	Sololá	1	Sololá	10	Octubre	2023-06-10T00:00:00	2024-11-08T15:00:00	6	Velocidad del viento	0
51430	7	Sololá	701	Sololá	1	Sololá	10	Octubre	2023-06-10T00:00:00	2024-11-08T15:00:00	7	Dirección del viento	0
51431	7	Sololá	701	Sololá	1	Sololá	10	Octubre	2023-06-10T00:00:00	2024-11-08T15:00:00	1	Precipitación	0
51432	7	Sololá	701	Sololá	1	Sololá	10	Octubre	2023-06-10T00:00:00	2024-11-08T15:00:00	8	Radiación solar	154
51433	7	Sololá	701	Sololá	1	Sololá	10	Octubre	2023-06-10T00:00:00	2024-11-08T16:00:00	2	Temperatura media	19.7
51434	7	Sololá	701	Sololá	1	Sololá	10	Octubre	2023-06-10T00:00:00	2024-11-08T16:00:00	4	Temperatura máxima	20.3
51435	7	Sololá	701	Sololá	1	Sololá	10	Octubre	2023-06-10T00:00:00	2024-11-08T16:00:00	3	Temperatura mínima	19.7
51436	7	Sololá	701	Sololá	1	Sololá	10	Octubre	2023-06-10T00:00:00	2024-11-08T16:00:00	5	Humedad	89
51437	7	Sololá	701	Sololá	1	Sololá	10	Octubre	2023-06-10T00:00:00	2024-11-08T16:00:00	6	Velocidad del viento	0
51438	7	Sololá	701	Sololá	1	Sololá	10	Octubre	2023-06-10T00:00:00	2024-11-08T16:00:00	7	Dirección del viento	0
51439	7	Sololá	701	Sololá	1	Sololá	10	Octubre	2023-06-10T00:00:00	2024-11-08T16:00:00	1	Precipitación	0
51440	7	Sololá	701	Sololá	1	Sololá	10	Octubre	2023-06-10T00:00:00	2024-11-08T16:00:00	8	Radiación solar	82
51441	7	Sololá	701	Sololá	1	Sololá	10	Octubre	2023-06-10T00:00:00	2024-11-08T17:00:00	2	Temperatura media	18.9
51442	7	Sololá	701	Sololá	1	Sololá	10	Octubre	2023-06-10T00:00:00	2024-11-08T17:00:00	4	Temperatura máxima	19.7
51443	7	Sololá	701	Sololá	1	Sololá	10	Octubre	2023-06-10T00:00:00	2024-11-08T17:00:00	3	Temperatura mínima	18.9
51444	7	Sololá	701	Sololá	1	Sololá	10	Octubre	2023-06-10T00:00:00	2024-11-08T17:00:00	5	Humedad	92
51445	7	Sololá	701	Sololá	1	Sololá	10	Octubre	2023-06-10T00:00:00	2024-11-08T17:00:00	6	Velocidad del viento	0
51446	7	Sololá	701	Sololá	1	Sololá	10	Octubre	2023-06-10T00:00:00	2024-11-08T17:00:00	7	Dirección del viento	0
51447	7	Sololá	701	Sololá	1	Sololá	10	Octubre	2023-06-10T00:00:00	2024-11-08T17:00:00	1	Precipitación	0
51448	7	Sololá	701	Sololá	1	Sololá	10	Octubre	2023-06-10T00:00:00	2024-11-08T17:00:00	8	Radiación solar	34
51449	7	Sololá	701	Sololá	1	Sololá	10	Octubre	2023-06-10T00:00:00	2024-11-08T18:00:00	2	Temperatura media	18.2
51450	7	Sololá	701	Sololá	1	Sololá	10	Octubre	2023-06-10T00:00:00	2024-11-08T18:00:00	4	Temperatura máxima	18.9
51451	7	Sololá	701	Sololá	1	Sololá	10	Octubre	2023-06-10T00:00:00	2024-11-08T18:00:00	3	Temperatura mínima	18.1
51452	7	Sololá	701	Sololá	1	Sololá	10	Octubre	2023-06-10T00:00:00	2024-11-08T18:00:00	5	Humedad	94
51453	7	Sololá	701	Sololá	1	Sololá	10	Octubre	2023-06-10T00:00:00	2024-11-08T18:00:00	6	Velocidad del viento	0
51454	7	Sololá	701	Sololá	1	Sololá	10	Octubre	2023-06-10T00:00:00	2024-11-08T18:00:00	7	Dirección del viento	0
51455	7	Sololá	701	Sololá	1	Sololá	10	Octubre	2023-06-10T00:00:00	2024-11-08T18:00:00	1	Precipitación	0
51456	7	Sololá	701	Sololá	1	Sololá	10	Octubre	2023-06-10T00:00:00	2024-11-08T18:00:00	8	Radiación solar	3
51457	7	Sololá	701	Sololá	1	Sololá	10	Octubre	2023-06-10T00:00:00	2024-11-08T19:00:00	2	Temperatura media	17.2
51458	7	Sololá	701	Sololá	1	Sololá	10	Octubre	2023-06-10T00:00:00	2024-11-08T19:00:00	4	Temperatura máxima	18.1
51459	7	Sololá	701	Sololá	1	Sololá	10	Octubre	2023-06-10T00:00:00	2024-11-08T19:00:00	3	Temperatura mínima	17.2
51460	7	Sololá	701	Sololá	1	Sololá	10	Octubre	2023-06-10T00:00:00	2024-11-08T19:00:00	5	Humedad	95
51461	7	Sololá	701	Sololá	1	Sololá	10	Octubre	2023-06-10T00:00:00	2024-11-08T19:00:00	6	Velocidad del viento	0
51462	7	Sololá	701	Sololá	1	Sololá	10	Octubre	2023-06-10T00:00:00	2024-11-08T19:00:00	7	Dirección del viento	0
51463	7	Sololá	701	Sololá	1	Sololá	10	Octubre	2023-06-10T00:00:00	2024-11-08T19:00:00	1	Precipitación	0
51464	7	Sololá	701	Sololá	1	Sololá	10	Octubre	2023-06-10T00:00:00	2024-11-08T19:00:00	8	Radiación solar	0
51465	7	Sololá	701	Sololá	1	Sololá	10	Octubre	2023-06-10T00:00:00	2024-11-08T20:00:00	2	Temperatura media	16.8
51466	7	Sololá	701	Sololá	1	Sololá	10	Octubre	2023-06-10T00:00:00	2024-11-08T20:00:00	4	Temperatura máxima	17.2
51467	7	Sololá	701	Sololá	1	Sololá	10	Octubre	2023-06-10T00:00:00	2024-11-08T20:00:00	3	Temperatura mínima	16.7
51468	7	Sololá	701	Sololá	1	Sololá	10	Octubre	2023-06-10T00:00:00	2024-11-08T20:00:00	5	Humedad	95
51469	7	Sololá	701	Sololá	1	Sololá	10	Octubre	2023-06-10T00:00:00	2024-11-08T20:00:00	6	Velocidad del viento	0
51470	7	Sololá	701	Sololá	1	Sololá	10	Octubre	2023-06-10T00:00:00	2024-11-08T20:00:00	7	Dirección del viento	0
51471	7	Sololá	701	Sololá	1	Sololá	10	Octubre	2023-06-10T00:00:00	2024-11-08T20:00:00	1	Precipitación	0.2
51472	7	Sololá	701	Sololá	1	Sololá	10	Octubre	2023-06-10T00:00:00	2024-11-08T20:00:00	8	Radiación solar	0
51473	7	Sololá	701	Sololá	1	Sololá	10	Octubre	2023-06-10T00:00:00	2024-11-08T21:00:00	2	Temperatura media	16.3
51474	7	Sololá	701	Sololá	1	Sololá	10	Octubre	2023-06-10T00:00:00	2024-11-08T21:00:00	4	Temperatura máxima	16.8
51475	7	Sololá	701	Sololá	1	Sololá	10	Octubre	2023-06-10T00:00:00	2024-11-08T21:00:00	3	Temperatura mínima	16.2
51476	7	Sololá	701	Sololá	1	Sololá	10	Octubre	2023-06-10T00:00:00	2024-11-08T21:00:00	5	Humedad	96
51477	7	Sololá	701	Sololá	1	Sololá	10	Octubre	2023-06-10T00:00:00	2024-11-08T21:00:00	6	Velocidad del viento	0
51478	7	Sololá	701	Sololá	1	Sololá	10	Octubre	2023-06-10T00:00:00	2024-11-08T21:00:00	7	Dirección del viento	0
51479	7	Sololá	701	Sololá	1	Sololá	10	Octubre	2023-06-10T00:00:00	2024-11-08T21:00:00	1	Precipitación	0
51480	7	Sololá	701	Sololá	1	Sololá	10	Octubre	2023-06-10T00:00:00	2024-11-08T21:00:00	8	Radiación solar	0
51481	7	Sololá	701	Sololá	1	Sololá	10	Octubre	2023-06-10T00:00:00	2024-11-08T22:00:00	2	Temperatura media	16.2
51482	7	Sololá	701	Sololá	1	Sololá	10	Octubre	2023-06-10T00:00:00	2024-11-08T22:00:00	4	Temperatura máxima	16.3
51483	7	Sololá	701	Sololá	1	Sololá	10	Octubre	2023-06-10T00:00:00	2024-11-08T22:00:00	3	Temperatura mínima	16.2
51484	7	Sololá	701	Sololá	1	Sololá	10	Octubre	2023-06-10T00:00:00	2024-11-08T22:00:00	5	Humedad	96
51485	7	Sololá	701	Sololá	1	Sololá	10	Octubre	2023-06-10T00:00:00	2024-11-08T22:00:00	6	Velocidad del viento	0
51486	7	Sololá	701	Sololá	1	Sololá	10	Octubre	2023-06-10T00:00:00	2024-11-08T22:00:00	7	Dirección del viento	0
51487	7	Sololá	701	Sololá	1	Sololá	10	Octubre	2023-06-10T00:00:00	2024-11-08T22:00:00	1	Precipitación	0
51488	7	Sololá	701	Sololá	1	Sololá	10	Octubre	2023-06-10T00:00:00	2024-11-08T22:00:00	8	Radiación solar	0
51489	7	Sololá	701	Sololá	1	Sololá	10	Octubre	2023-06-10T00:00:00	2024-11-08T23:00:00	2	Temperatura media	16.1
51490	7	Sololá	701	Sololá	1	Sololá	10	Octubre	2023-06-10T00:00:00	2024-11-08T23:00:00	4	Temperatura máxima	16.3
51491	7	Sololá	701	Sololá	1	Sololá	10	Octubre	2023-06-10T00:00:00	2024-11-08T23:00:00	3	Temperatura mínima	16.1
51492	7	Sololá	701	Sololá	1	Sololá	10	Octubre	2023-06-10T00:00:00	2024-11-08T23:00:00	5	Humedad	96
51493	7	Sololá	701	Sololá	1	Sololá	10	Octubre	2023-06-10T00:00:00	2024-11-08T23:00:00	6	Velocidad del viento	0
51494	7	Sololá	701	Sololá	1	Sololá	10	Octubre	2023-06-10T00:00:00	2024-11-08T23:00:00	7	Dirección del viento	0
51495	7	Sololá	701	Sololá	1	Sololá	10	Octubre	2023-06-10T00:00:00	2024-11-08T23:00:00	1	Precipitación	0
51496	7	Sololá	701	Sololá	1	Sololá	10	Octubre	2023-06-10T00:00:00	2024-11-08T23:00:00	8	Radiación solar	0
51497	7	Sololá	701	Sololá	1	Sololá	10	Octubre	2023-07-10T00:00:00	2024-11-08T00:00:00	2	Temperatura media	15.7
51498	7	Sololá	701	Sololá	1	Sololá	10	Octubre	2023-07-10T00:00:00	2024-11-08T00:00:00	4	Temperatura máxima	16.1
51499	7	Sololá	701	Sololá	1	Sololá	10	Octubre	2023-07-10T00:00:00	2024-11-08T00:00:00	3	Temperatura mínima	15.7
51500	7	Sololá	701	Sololá	1	Sololá	10	Octubre	2023-07-10T00:00:00	2024-11-08T00:00:00	5	Humedad	96
51501	7	Sololá	701	Sololá	1	Sololá	10	Octubre	2023-07-10T00:00:00	2024-11-08T00:00:00	6	Velocidad del viento	0
51502	7	Sololá	701	Sololá	1	Sololá	10	Octubre	2023-07-10T00:00:00	2024-11-08T00:00:00	7	Dirección del viento	0
51503	7	Sololá	701	Sololá	1	Sololá	10	Octubre	2023-07-10T00:00:00	2024-11-08T00:00:00	1	Precipitación	0
51504	7	Sololá	701	Sololá	1	Sololá	10	Octubre	2023-07-10T00:00:00	2024-11-08T00:00:00	8	Radiación solar	0
51505	7	Sololá	701	Sololá	1	Sololá	10	Octubre	2023-07-10T00:00:00	2024-11-08T01:00:00	2	Temperatura media	15.5
51506	7	Sololá	701	Sololá	1	Sololá	10	Octubre	2023-07-10T00:00:00	2024-11-08T01:00:00	4	Temperatura máxima	15.7
51507	7	Sololá	701	Sololá	1	Sololá	10	Octubre	2023-07-10T00:00:00	2024-11-08T01:00:00	3	Temperatura mínima	15.5
51508	7	Sololá	701	Sololá	1	Sololá	10	Octubre	2023-07-10T00:00:00	2024-11-08T01:00:00	5	Humedad	96
51509	7	Sololá	701	Sololá	1	Sololá	10	Octubre	2023-07-10T00:00:00	2024-11-08T01:00:00	6	Velocidad del viento	0
51510	7	Sololá	701	Sololá	1	Sololá	10	Octubre	2023-07-10T00:00:00	2024-11-08T01:00:00	7	Dirección del viento	0
51511	7	Sololá	701	Sololá	1	Sololá	10	Octubre	2023-07-10T00:00:00	2024-11-08T01:00:00	1	Precipitación	0
51512	7	Sololá	701	Sololá	1	Sololá	10	Octubre	2023-07-10T00:00:00	2024-11-08T01:00:00	8	Radiación solar	0
51513	7	Sololá	701	Sololá	1	Sololá	10	Octubre	2023-07-10T00:00:00	2024-11-08T02:00:00	2	Temperatura media	15.3
51514	7	Sololá	701	Sololá	1	Sololá	10	Octubre	2023-07-10T00:00:00	2024-11-08T02:00:00	4	Temperatura máxima	15.5
51515	7	Sololá	701	Sololá	1	Sololá	10	Octubre	2023-07-10T00:00:00	2024-11-08T02:00:00	3	Temperatura mínima	15.3
51516	7	Sololá	701	Sololá	1	Sololá	10	Octubre	2023-07-10T00:00:00	2024-11-08T02:00:00	5	Humedad	96
51517	7	Sololá	701	Sololá	1	Sololá	10	Octubre	2023-07-10T00:00:00	2024-11-08T02:00:00	6	Velocidad del viento	0
51518	7	Sololá	701	Sololá	1	Sololá	10	Octubre	2023-07-10T00:00:00	2024-11-08T02:00:00	7	Dirección del viento	0
51519	7	Sololá	701	Sololá	1	Sololá	10	Octubre	2023-07-10T00:00:00	2024-11-08T02:00:00	1	Precipitación	0
51520	7	Sololá	701	Sololá	1	Sololá	10	Octubre	2023-07-10T00:00:00	2024-11-08T02:00:00	8	Radiación solar	0
51521	7	Sololá	701	Sololá	1	Sololá	10	Octubre	2023-07-10T00:00:00	2024-11-08T03:00:00	2	Temperatura media	14.8
51522	7	Sololá	701	Sololá	1	Sololá	10	Octubre	2023-07-10T00:00:00	2024-11-08T03:00:00	4	Temperatura máxima	15.3
51523	7	Sololá	701	Sololá	1	Sololá	10	Octubre	2023-07-10T00:00:00	2024-11-08T03:00:00	3	Temperatura mínima	14.8
51524	7	Sololá	701	Sololá	1	Sololá	10	Octubre	2023-07-10T00:00:00	2024-11-08T03:00:00	5	Humedad	96
51525	7	Sololá	701	Sololá	1	Sololá	10	Octubre	2023-07-10T00:00:00	2024-11-08T03:00:00	6	Velocidad del viento	0
51526	7	Sololá	701	Sololá	1	Sololá	10	Octubre	2023-07-10T00:00:00	2024-11-08T03:00:00	7	Dirección del viento	0
51527	7	Sololá	701	Sololá	1	Sololá	10	Octubre	2023-07-10T00:00:00	2024-11-08T03:00:00	1	Precipitación	0.2
51528	7	Sololá	701	Sololá	1	Sololá	10	Octubre	2023-07-10T00:00:00	2024-11-08T03:00:00	8	Radiación solar	0
51529	7	Sololá	701	Sololá	1	Sololá	10	Octubre	2023-07-10T00:00:00	2024-11-08T04:00:00	2	Temperatura media	14.4
51530	7	Sololá	701	Sololá	1	Sololá	10	Octubre	2023-07-10T00:00:00	2024-11-08T04:00:00	4	Temperatura máxima	14.8
51531	7	Sololá	701	Sololá	1	Sololá	10	Octubre	2023-07-10T00:00:00	2024-11-08T04:00:00	3	Temperatura mínima	14.4
51532	7	Sololá	701	Sololá	1	Sololá	10	Octubre	2023-07-10T00:00:00	2024-11-08T04:00:00	5	Humedad	96
51533	7	Sololá	701	Sololá	1	Sololá	10	Octubre	2023-07-10T00:00:00	2024-11-08T04:00:00	6	Velocidad del viento	0
51534	7	Sololá	701	Sololá	1	Sololá	10	Octubre	2023-07-10T00:00:00	2024-11-08T04:00:00	7	Dirección del viento	0
51535	7	Sololá	701	Sololá	1	Sololá	10	Octubre	2023-07-10T00:00:00	2024-11-08T04:00:00	1	Precipitación	0
51536	7	Sololá	701	Sololá	1	Sololá	10	Octubre	2023-07-10T00:00:00	2024-11-08T04:00:00	8	Radiación solar	0
51537	7	Sololá	701	Sololá	1	Sololá	10	Octubre	2023-07-10T00:00:00	2024-11-08T05:00:00	2	Temperatura media	14.4
51538	7	Sololá	701	Sololá	1	Sololá	10	Octubre	2023-07-10T00:00:00	2024-11-08T05:00:00	4	Temperatura máxima	14.5
51539	7	Sololá	701	Sololá	1	Sololá	10	Octubre	2023-07-10T00:00:00	2024-11-08T05:00:00	3	Temperatura mínima	14.3
51540	7	Sololá	701	Sololá	1	Sololá	10	Octubre	2023-07-10T00:00:00	2024-11-08T05:00:00	5	Humedad	96
51541	7	Sololá	701	Sololá	1	Sololá	10	Octubre	2023-07-10T00:00:00	2024-11-08T05:00:00	6	Velocidad del viento	0
51542	7	Sololá	701	Sololá	1	Sololá	10	Octubre	2023-07-10T00:00:00	2024-11-08T05:00:00	7	Dirección del viento	0
51543	7	Sololá	701	Sololá	1	Sololá	10	Octubre	2023-07-10T00:00:00	2024-11-08T05:00:00	1	Precipitación	0.2
51544	7	Sololá	701	Sololá	1	Sololá	10	Octubre	2023-07-10T00:00:00	2024-11-08T05:00:00	8	Radiación solar	0
51545	7	Sololá	701	Sololá	1	Sololá	10	Octubre	2023-07-10T00:00:00	2024-11-08T06:00:00	2	Temperatura media	14.6
51546	7	Sololá	701	Sololá	1	Sololá	10	Octubre	2023-07-10T00:00:00	2024-11-08T06:00:00	4	Temperatura máxima	14.7
51547	7	Sololá	701	Sololá	1	Sololá	10	Octubre	2023-07-10T00:00:00	2024-11-08T06:00:00	3	Temperatura mínima	14.3
51548	7	Sololá	701	Sololá	1	Sololá	10	Octubre	2023-07-10T00:00:00	2024-11-08T06:00:00	5	Humedad	96
51549	7	Sololá	701	Sololá	1	Sololá	10	Octubre	2023-07-10T00:00:00	2024-11-08T06:00:00	6	Velocidad del viento	0
51550	7	Sololá	701	Sololá	1	Sololá	10	Octubre	2023-07-10T00:00:00	2024-11-08T06:00:00	7	Dirección del viento	0
51551	7	Sololá	701	Sololá	1	Sololá	10	Octubre	2023-07-10T00:00:00	2024-11-08T06:00:00	1	Precipitación	0
51552	7	Sololá	701	Sololá	1	Sololá	10	Octubre	2023-07-10T00:00:00	2024-11-08T06:00:00	8	Radiación solar	1
51553	7	Sololá	701	Sololá	1	Sololá	10	Octubre	2023-07-10T00:00:00	2024-11-08T07:00:00	2	Temperatura media	15.3
51554	7	Sololá	701	Sololá	1	Sololá	10	Octubre	2023-07-10T00:00:00	2024-11-08T07:00:00	4	Temperatura máxima	15.3
51555	7	Sololá	701	Sololá	1	Sololá	10	Octubre	2023-07-10T00:00:00	2024-11-08T07:00:00	3	Temperatura mínima	14.6
51556	7	Sololá	701	Sololá	1	Sololá	10	Octubre	2023-07-10T00:00:00	2024-11-08T07:00:00	5	Humedad	97
51557	7	Sololá	701	Sololá	1	Sololá	10	Octubre	2023-07-10T00:00:00	2024-11-08T07:00:00	6	Velocidad del viento	0
51558	7	Sololá	701	Sololá	1	Sololá	10	Octubre	2023-07-10T00:00:00	2024-11-08T07:00:00	7	Dirección del viento	0
51559	7	Sololá	701	Sololá	1	Sololá	10	Octubre	2023-07-10T00:00:00	2024-11-08T07:00:00	1	Precipitación	0.2
51560	7	Sololá	701	Sololá	1	Sololá	10	Octubre	2023-07-10T00:00:00	2024-11-08T07:00:00	8	Radiación solar	16
51561	7	Sololá	701	Sololá	1	Sololá	10	Octubre	2023-07-10T00:00:00	2024-11-08T08:00:00	2	Temperatura media	15.9
51562	7	Sololá	701	Sololá	1	Sololá	10	Octubre	2023-07-10T00:00:00	2024-11-08T08:00:00	4	Temperatura máxima	15.9
51563	7	Sololá	701	Sololá	1	Sololá	10	Octubre	2023-07-10T00:00:00	2024-11-08T08:00:00	3	Temperatura mínima	15.3
51564	7	Sololá	701	Sololá	1	Sololá	10	Octubre	2023-07-10T00:00:00	2024-11-08T08:00:00	5	Humedad	97
51565	7	Sololá	701	Sololá	1	Sololá	10	Octubre	2023-07-10T00:00:00	2024-11-08T08:00:00	6	Velocidad del viento	0
51566	7	Sololá	701	Sololá	1	Sololá	10	Octubre	2023-07-10T00:00:00	2024-11-08T08:00:00	7	Dirección del viento	0
51567	7	Sololá	701	Sololá	1	Sololá	10	Octubre	2023-07-10T00:00:00	2024-11-08T08:00:00	1	Precipitación	0
51568	7	Sololá	701	Sololá	1	Sololá	10	Octubre	2023-07-10T00:00:00	2024-11-08T08:00:00	8	Radiación solar	66
51569	7	Sololá	701	Sololá	1	Sololá	10	Octubre	2023-07-10T00:00:00	2024-11-08T09:00:00	2	Temperatura media	17.3
51570	7	Sololá	701	Sololá	1	Sololá	10	Octubre	2023-07-10T00:00:00	2024-11-08T09:00:00	4	Temperatura máxima	17.3
51571	7	Sololá	701	Sololá	1	Sololá	10	Octubre	2023-07-10T00:00:00	2024-11-08T09:00:00	3	Temperatura mínima	15.9
51572	7	Sololá	701	Sololá	1	Sololá	10	Octubre	2023-07-10T00:00:00	2024-11-08T09:00:00	5	Humedad	95
51573	7	Sololá	701	Sololá	1	Sololá	10	Octubre	2023-07-10T00:00:00	2024-11-08T09:00:00	6	Velocidad del viento	0
51574	7	Sololá	701	Sololá	1	Sololá	10	Octubre	2023-07-10T00:00:00	2024-11-08T09:00:00	7	Dirección del viento	0
51575	7	Sololá	701	Sololá	1	Sololá	10	Octubre	2023-07-10T00:00:00	2024-11-08T09:00:00	1	Precipitación	0
51576	7	Sololá	701	Sololá	1	Sololá	10	Octubre	2023-07-10T00:00:00	2024-11-08T09:00:00	8	Radiación solar	149
51577	7	Sololá	701	Sololá	1	Sololá	10	Octubre	2023-07-10T00:00:00	2024-11-08T10:00:00	2	Temperatura media	20.7
51578	7	Sololá	701	Sololá	1	Sololá	10	Octubre	2023-07-10T00:00:00	2024-11-08T10:00:00	4	Temperatura máxima	20.7
51579	7	Sololá	701	Sololá	1	Sololá	10	Octubre	2023-07-10T00:00:00	2024-11-08T10:00:00	3	Temperatura mínima	17.3
51580	7	Sololá	701	Sololá	1	Sololá	10	Octubre	2023-07-10T00:00:00	2024-11-08T10:00:00	5	Humedad	89
51581	7	Sololá	701	Sololá	1	Sololá	10	Octubre	2023-07-10T00:00:00	2024-11-08T10:00:00	6	Velocidad del viento	0
51582	7	Sololá	701	Sololá	1	Sololá	10	Octubre	2023-07-10T00:00:00	2024-11-08T10:00:00	7	Dirección del viento	0
51583	7	Sololá	701	Sololá	1	Sololá	10	Octubre	2023-07-10T00:00:00	2024-11-08T10:00:00	1	Precipitación	0
51584	7	Sololá	701	Sololá	1	Sololá	10	Octubre	2023-07-10T00:00:00	2024-11-08T10:00:00	8	Radiación solar	716
51585	7	Sololá	701	Sololá	1	Sololá	10	Octubre	2023-07-10T00:00:00	2024-11-08T11:00:00	2	Temperatura media	23
51586	7	Sololá	701	Sololá	1	Sololá	10	Octubre	2023-07-10T00:00:00	2024-11-08T11:00:00	4	Temperatura máxima	23.2
51587	7	Sololá	701	Sololá	1	Sololá	10	Octubre	2023-07-10T00:00:00	2024-11-08T11:00:00	3	Temperatura mínima	20.7
51588	7	Sololá	701	Sololá	1	Sololá	10	Octubre	2023-07-10T00:00:00	2024-11-08T11:00:00	5	Humedad	79
51589	7	Sololá	701	Sololá	1	Sololá	10	Octubre	2023-07-10T00:00:00	2024-11-08T11:00:00	6	Velocidad del viento	0
51590	7	Sololá	701	Sololá	1	Sololá	10	Octubre	2023-07-10T00:00:00	2024-11-08T11:00:00	7	Dirección del viento	0
51591	7	Sololá	701	Sololá	1	Sololá	10	Octubre	2023-07-10T00:00:00	2024-11-08T11:00:00	1	Precipitación	0.2
51592	7	Sololá	701	Sololá	1	Sololá	10	Octubre	2023-07-10T00:00:00	2024-11-08T11:00:00	8	Radiación solar	915
51593	7	Sololá	701	Sololá	1	Sololá	10	Octubre	2023-07-10T00:00:00	2024-11-08T12:00:00	2	Temperatura media	22.7
51594	7	Sololá	701	Sololá	1	Sololá	10	Octubre	2023-07-10T00:00:00	2024-11-08T12:00:00	4	Temperatura máxima	23.4
51595	7	Sololá	701	Sololá	1	Sololá	10	Octubre	2023-07-10T00:00:00	2024-11-08T12:00:00	3	Temperatura mínima	22.3
51596	7	Sololá	701	Sololá	1	Sololá	10	Octubre	2023-07-10T00:00:00	2024-11-08T12:00:00	5	Humedad	79
51597	7	Sololá	701	Sololá	1	Sololá	10	Octubre	2023-07-10T00:00:00	2024-11-08T12:00:00	6	Velocidad del viento	0
51598	7	Sololá	701	Sololá	1	Sololá	10	Octubre	2023-07-10T00:00:00	2024-11-08T12:00:00	7	Dirección del viento	0
51599	7	Sololá	701	Sololá	1	Sololá	10	Octubre	2023-07-10T00:00:00	2024-11-08T12:00:00	1	Precipitación	0
51600	7	Sololá	701	Sololá	1	Sololá	10	Octubre	2023-07-10T00:00:00	2024-11-08T12:00:00	8	Radiación solar	374
51601	7	Sololá	701	Sololá	1	Sololá	10	Octubre	2023-07-10T00:00:00	2024-11-08T13:00:00	2	Temperatura media	23.2
51602	7	Sololá	701	Sololá	1	Sololá	10	Octubre	2023-07-10T00:00:00	2024-11-08T13:00:00	4	Temperatura máxima	23.7
51603	7	Sololá	701	Sololá	1	Sololá	10	Octubre	2023-07-10T00:00:00	2024-11-08T13:00:00	3	Temperatura mínima	22.7
51604	7	Sololá	701	Sololá	1	Sololá	10	Octubre	2023-07-10T00:00:00	2024-11-08T13:00:00	5	Humedad	80
51605	7	Sololá	701	Sololá	1	Sololá	10	Octubre	2023-07-10T00:00:00	2024-11-08T13:00:00	6	Velocidad del viento	0
51606	7	Sololá	701	Sololá	1	Sololá	10	Octubre	2023-07-10T00:00:00	2024-11-08T13:00:00	7	Dirección del viento	0
51607	7	Sololá	701	Sololá	1	Sololá	10	Octubre	2023-07-10T00:00:00	2024-11-08T13:00:00	1	Precipitación	0
51608	7	Sololá	701	Sololá	1	Sololá	10	Octubre	2023-07-10T00:00:00	2024-11-08T13:00:00	8	Radiación solar	558
51609	7	Sololá	701	Sololá	1	Sololá	10	Octubre	2023-07-10T00:00:00	2024-11-08T14:00:00	2	Temperatura media	22.9
51610	7	Sololá	701	Sololá	1	Sololá	10	Octubre	2023-07-10T00:00:00	2024-11-08T14:00:00	4	Temperatura máxima	23.2
51611	7	Sololá	701	Sololá	1	Sololá	10	Octubre	2023-07-10T00:00:00	2024-11-08T14:00:00	3	Temperatura mínima	22.6
51612	7	Sololá	701	Sololá	1	Sololá	10	Octubre	2023-07-10T00:00:00	2024-11-08T14:00:00	5	Humedad	85
51613	7	Sololá	701	Sololá	1	Sololá	10	Octubre	2023-07-10T00:00:00	2024-11-08T14:00:00	6	Velocidad del viento	0
51614	7	Sololá	701	Sololá	1	Sololá	10	Octubre	2023-07-10T00:00:00	2024-11-08T14:00:00	7	Dirección del viento	0
51615	7	Sololá	701	Sololá	1	Sololá	10	Octubre	2023-07-10T00:00:00	2024-11-08T14:00:00	1	Precipitación	0
51616	7	Sololá	701	Sololá	1	Sololá	10	Octubre	2023-07-10T00:00:00	2024-11-08T14:00:00	8	Radiación solar	226
51617	7	Sololá	701	Sololá	1	Sololá	10	Octubre	2023-07-10T00:00:00	2024-11-08T15:00:00	2	Temperatura media	19.9
51618	7	Sololá	701	Sololá	1	Sololá	10	Octubre	2023-07-10T00:00:00	2024-11-08T15:00:00	4	Temperatura máxima	23.1
51619	7	Sololá	701	Sololá	1	Sololá	10	Octubre	2023-07-10T00:00:00	2024-11-08T15:00:00	3	Temperatura mínima	19.9
51620	7	Sololá	701	Sololá	1	Sololá	10	Octubre	2023-07-10T00:00:00	2024-11-08T15:00:00	5	Humedad	92
51621	7	Sololá	701	Sololá	1	Sololá	10	Octubre	2023-07-10T00:00:00	2024-11-08T15:00:00	6	Velocidad del viento	0
51622	7	Sololá	701	Sololá	1	Sololá	10	Octubre	2023-07-10T00:00:00	2024-11-08T15:00:00	7	Dirección del viento	0
51623	7	Sololá	701	Sololá	1	Sololá	10	Octubre	2023-07-10T00:00:00	2024-11-08T15:00:00	1	Precipitación	0
51624	7	Sololá	701	Sololá	1	Sololá	10	Octubre	2023-07-10T00:00:00	2024-11-08T15:00:00	8	Radiación solar	56
51625	7	Sololá	701	Sololá	1	Sololá	10	Octubre	2023-07-10T00:00:00	2024-11-08T16:00:00	2	Temperatura media	18.1
51626	7	Sololá	701	Sololá	1	Sololá	10	Octubre	2023-07-10T00:00:00	2024-11-08T16:00:00	4	Temperatura máxima	19.8
51627	7	Sololá	701	Sololá	1	Sololá	10	Octubre	2023-07-10T00:00:00	2024-11-08T16:00:00	3	Temperatura mínima	18.1
51628	7	Sololá	701	Sololá	1	Sololá	10	Octubre	2023-07-10T00:00:00	2024-11-08T16:00:00	5	Humedad	95
51629	7	Sololá	701	Sololá	1	Sololá	10	Octubre	2023-07-10T00:00:00	2024-11-08T16:00:00	6	Velocidad del viento	0
51630	7	Sololá	701	Sololá	1	Sololá	10	Octubre	2023-07-10T00:00:00	2024-11-08T16:00:00	7	Dirección del viento	0
51631	7	Sololá	701	Sololá	1	Sololá	10	Octubre	2023-07-10T00:00:00	2024-11-08T16:00:00	1	Precipitación	7.2
51632	7	Sololá	701	Sololá	1	Sololá	10	Octubre	2023-07-10T00:00:00	2024-11-08T16:00:00	8	Radiación solar	14
51633	7	Sololá	701	Sololá	1	Sololá	10	Octubre	2023-07-10T00:00:00	2024-11-08T17:00:00	2	Temperatura media	17.5
51634	7	Sololá	701	Sololá	1	Sololá	10	Octubre	2023-07-10T00:00:00	2024-11-08T17:00:00	4	Temperatura máxima	18.2
51635	7	Sololá	701	Sololá	1	Sololá	10	Octubre	2023-07-10T00:00:00	2024-11-08T17:00:00	3	Temperatura mínima	17.4
51636	7	Sololá	701	Sololá	1	Sololá	10	Octubre	2023-07-10T00:00:00	2024-11-08T17:00:00	5	Humedad	95
51637	7	Sololá	701	Sololá	1	Sololá	10	Octubre	2023-07-10T00:00:00	2024-11-08T17:00:00	6	Velocidad del viento	0
51638	7	Sololá	701	Sololá	1	Sololá	10	Octubre	2023-07-10T00:00:00	2024-11-08T17:00:00	7	Dirección del viento	0
51639	7	Sololá	701	Sololá	1	Sololá	10	Octubre	2023-07-10T00:00:00	2024-11-08T17:00:00	1	Precipitación	7.8
51640	7	Sololá	701	Sololá	1	Sololá	10	Octubre	2023-07-10T00:00:00	2024-11-08T17:00:00	8	Radiación solar	1
51641	7	Sololá	701	Sololá	1	Sololá	10	Octubre	2023-07-10T00:00:00	2024-11-08T18:00:00	2	Temperatura media	16.9
51642	7	Sololá	701	Sololá	1	Sololá	10	Octubre	2023-07-10T00:00:00	2024-11-08T18:00:00	4	Temperatura máxima	17.5
51643	7	Sololá	701	Sololá	1	Sololá	10	Octubre	2023-07-10T00:00:00	2024-11-08T18:00:00	3	Temperatura mínima	16.9
51644	7	Sololá	701	Sololá	1	Sololá	10	Octubre	2023-07-10T00:00:00	2024-11-08T18:00:00	5	Humedad	96
51645	7	Sololá	701	Sololá	1	Sololá	10	Octubre	2023-07-10T00:00:00	2024-11-08T18:00:00	6	Velocidad del viento	0
51646	7	Sololá	701	Sololá	1	Sololá	10	Octubre	2023-07-10T00:00:00	2024-11-08T18:00:00	7	Dirección del viento	0
51647	7	Sololá	701	Sololá	1	Sololá	10	Octubre	2023-07-10T00:00:00	2024-11-08T18:00:00	1	Precipitación	0
51648	7	Sololá	701	Sololá	1	Sololá	10	Octubre	2023-07-10T00:00:00	2024-11-08T18:00:00	8	Radiación solar	0
51649	7	Sololá	701	Sololá	1	Sololá	10	Octubre	2023-07-10T00:00:00	2024-11-08T19:00:00	2	Temperatura media	16.6
51650	7	Sololá	701	Sololá	1	Sololá	10	Octubre	2023-07-10T00:00:00	2024-11-08T19:00:00	4	Temperatura máxima	17.1
51651	7	Sololá	701	Sololá	1	Sololá	10	Octubre	2023-07-10T00:00:00	2024-11-08T19:00:00	3	Temperatura mínima	16.5
51652	7	Sololá	701	Sololá	1	Sololá	10	Octubre	2023-07-10T00:00:00	2024-11-08T19:00:00	5	Humedad	96
51653	7	Sololá	701	Sololá	1	Sololá	10	Octubre	2023-07-10T00:00:00	2024-11-08T19:00:00	6	Velocidad del viento	0
51654	7	Sololá	701	Sololá	1	Sololá	10	Octubre	2023-07-10T00:00:00	2024-11-08T19:00:00	7	Dirección del viento	0
51655	7	Sololá	701	Sololá	1	Sololá	10	Octubre	2023-07-10T00:00:00	2024-11-08T19:00:00	1	Precipitación	0.4
51656	7	Sololá	701	Sololá	1	Sololá	10	Octubre	2023-07-10T00:00:00	2024-11-08T19:00:00	8	Radiación solar	0
51657	7	Sololá	701	Sololá	1	Sololá	10	Octubre	2023-07-10T00:00:00	2024-11-08T20:00:00	2	Temperatura media	16.1
51658	7	Sololá	701	Sololá	1	Sololá	10	Octubre	2023-07-10T00:00:00	2024-11-08T20:00:00	4	Temperatura máxima	16.6
51659	7	Sololá	701	Sololá	1	Sololá	10	Octubre	2023-07-10T00:00:00	2024-11-08T20:00:00	3	Temperatura mínima	16.1
51660	7	Sololá	701	Sololá	1	Sololá	10	Octubre	2023-07-10T00:00:00	2024-11-08T20:00:00	5	Humedad	95
51661	7	Sololá	701	Sololá	1	Sololá	10	Octubre	2023-07-10T00:00:00	2024-11-08T20:00:00	6	Velocidad del viento	0
51662	7	Sololá	701	Sololá	1	Sololá	10	Octubre	2023-07-10T00:00:00	2024-11-08T20:00:00	7	Dirección del viento	0
51663	7	Sololá	701	Sololá	1	Sololá	10	Octubre	2023-07-10T00:00:00	2024-11-08T20:00:00	1	Precipitación	4
51664	7	Sololá	701	Sololá	1	Sololá	10	Octubre	2023-07-10T00:00:00	2024-11-08T20:00:00	8	Radiación solar	0
51665	7	Sololá	701	Sololá	1	Sololá	10	Octubre	2023-07-10T00:00:00	2024-11-08T21:00:00	2	Temperatura media	15.8
51666	7	Sololá	701	Sololá	1	Sololá	10	Octubre	2023-07-10T00:00:00	2024-11-08T21:00:00	4	Temperatura máxima	16.1
51667	7	Sololá	701	Sololá	1	Sololá	10	Octubre	2023-07-10T00:00:00	2024-11-08T21:00:00	3	Temperatura mínima	15.8
51668	7	Sololá	701	Sololá	1	Sololá	10	Octubre	2023-07-10T00:00:00	2024-11-08T21:00:00	5	Humedad	96
51669	7	Sololá	701	Sololá	1	Sololá	10	Octubre	2023-07-10T00:00:00	2024-11-08T21:00:00	6	Velocidad del viento	0
51670	7	Sololá	701	Sololá	1	Sololá	10	Octubre	2023-07-10T00:00:00	2024-11-08T21:00:00	7	Dirección del viento	0
51671	7	Sololá	701	Sololá	1	Sololá	10	Octubre	2023-07-10T00:00:00	2024-11-08T21:00:00	1	Precipitación	5.6
51672	7	Sololá	701	Sololá	1	Sololá	10	Octubre	2023-07-10T00:00:00	2024-11-08T21:00:00	8	Radiación solar	0
51673	7	Sololá	701	Sololá	1	Sololá	10	Octubre	2023-07-10T00:00:00	2024-11-08T22:00:00	2	Temperatura media	15.4
51674	7	Sololá	701	Sololá	1	Sololá	10	Octubre	2023-07-10T00:00:00	2024-11-08T22:00:00	4	Temperatura máxima	15.8
51675	7	Sololá	701	Sololá	1	Sololá	10	Octubre	2023-07-10T00:00:00	2024-11-08T22:00:00	3	Temperatura mínima	15.4
51676	7	Sololá	701	Sololá	1	Sololá	10	Octubre	2023-07-10T00:00:00	2024-11-08T22:00:00	5	Humedad	96
51677	7	Sololá	701	Sololá	1	Sololá	10	Octubre	2023-07-10T00:00:00	2024-11-08T22:00:00	6	Velocidad del viento	0
51678	7	Sololá	701	Sololá	1	Sololá	10	Octubre	2023-07-10T00:00:00	2024-11-08T22:00:00	7	Dirección del viento	0
51679	7	Sololá	701	Sololá	1	Sololá	10	Octubre	2023-07-10T00:00:00	2024-11-08T22:00:00	1	Precipitación	3.6
51680	7	Sololá	701	Sololá	1	Sololá	10	Octubre	2023-07-10T00:00:00	2024-11-08T22:00:00	8	Radiación solar	0
51681	7	Sololá	701	Sololá	1	Sololá	10	Octubre	2023-07-10T00:00:00	2024-11-08T23:00:00	2	Temperatura media	14.6
51682	7	Sololá	701	Sololá	1	Sololá	10	Octubre	2023-07-10T00:00:00	2024-11-08T23:00:00	4	Temperatura máxima	15.4
51683	7	Sololá	701	Sololá	1	Sololá	10	Octubre	2023-07-10T00:00:00	2024-11-08T23:00:00	3	Temperatura mínima	14.6
51684	7	Sololá	701	Sololá	1	Sololá	10	Octubre	2023-07-10T00:00:00	2024-11-08T23:00:00	5	Humedad	96
51685	7	Sololá	701	Sololá	1	Sololá	10	Octubre	2023-07-10T00:00:00	2024-11-08T23:00:00	6	Velocidad del viento	0
51686	7	Sololá	701	Sololá	1	Sololá	10	Octubre	2023-07-10T00:00:00	2024-11-08T23:00:00	7	Dirección del viento	0
51687	7	Sololá	701	Sololá	1	Sololá	10	Octubre	2023-07-10T00:00:00	2024-11-08T23:00:00	1	Precipitación	2.4
51688	7	Sololá	701	Sololá	1	Sololá	10	Octubre	2023-07-10T00:00:00	2024-11-08T23:00:00	8	Radiación solar	0
51689	7	Sololá	701	Sololá	1	Sololá	10	Octubre	2023-08-10T00:00:00	2024-11-08T00:00:00	2	Temperatura media	14.6
51690	7	Sololá	701	Sololá	1	Sololá	10	Octubre	2023-08-10T00:00:00	2024-11-08T00:00:00	4	Temperatura máxima	14.7
51691	7	Sololá	701	Sololá	1	Sololá	10	Octubre	2023-08-10T00:00:00	2024-11-08T00:00:00	3	Temperatura mínima	14.6
51692	7	Sololá	701	Sololá	1	Sololá	10	Octubre	2023-08-10T00:00:00	2024-11-08T00:00:00	5	Humedad	96
51693	7	Sololá	701	Sololá	1	Sololá	10	Octubre	2023-08-10T00:00:00	2024-11-08T00:00:00	6	Velocidad del viento	0
51694	7	Sololá	701	Sololá	1	Sololá	10	Octubre	2023-08-10T00:00:00	2024-11-08T00:00:00	7	Dirección del viento	0
51695	7	Sololá	701	Sololá	1	Sololá	10	Octubre	2023-08-10T00:00:00	2024-11-08T00:00:00	1	Precipitación	7.8
51696	7	Sololá	701	Sololá	1	Sololá	10	Octubre	2023-08-10T00:00:00	2024-11-08T00:00:00	8	Radiación solar	0
51697	7	Sololá	701	Sololá	1	Sololá	10	Octubre	2023-08-10T00:00:00	2024-11-08T01:00:00	2	Temperatura media	14.4
51698	7	Sololá	701	Sololá	1	Sololá	10	Octubre	2023-08-10T00:00:00	2024-11-08T01:00:00	4	Temperatura máxima	14.7
51699	7	Sololá	701	Sololá	1	Sololá	10	Octubre	2023-08-10T00:00:00	2024-11-08T01:00:00	3	Temperatura mínima	14.4
51700	7	Sololá	701	Sololá	1	Sololá	10	Octubre	2023-08-10T00:00:00	2024-11-08T01:00:00	5	Humedad	96
51701	7	Sololá	701	Sololá	1	Sololá	10	Octubre	2023-08-10T00:00:00	2024-11-08T01:00:00	6	Velocidad del viento	0
51702	7	Sololá	701	Sololá	1	Sololá	10	Octubre	2023-08-10T00:00:00	2024-11-08T01:00:00	7	Dirección del viento	0
51703	7	Sololá	701	Sololá	1	Sololá	10	Octubre	2023-08-10T00:00:00	2024-11-08T01:00:00	1	Precipitación	1
51704	7	Sololá	701	Sololá	1	Sololá	10	Octubre	2023-08-10T00:00:00	2024-11-08T01:00:00	8	Radiación solar	0
51705	7	Sololá	701	Sololá	1	Sololá	10	Octubre	2023-08-10T00:00:00	2024-11-08T02:00:00	2	Temperatura media	14.2
51706	7	Sololá	701	Sololá	1	Sololá	10	Octubre	2023-08-10T00:00:00	2024-11-08T02:00:00	4	Temperatura máxima	14.4
51707	7	Sololá	701	Sololá	1	Sololá	10	Octubre	2023-08-10T00:00:00	2024-11-08T02:00:00	3	Temperatura mínima	14.2
51708	7	Sololá	701	Sololá	1	Sololá	10	Octubre	2023-08-10T00:00:00	2024-11-08T02:00:00	5	Humedad	96
51709	7	Sololá	701	Sololá	1	Sololá	10	Octubre	2023-08-10T00:00:00	2024-11-08T02:00:00	6	Velocidad del viento	0
51710	7	Sololá	701	Sololá	1	Sololá	10	Octubre	2023-08-10T00:00:00	2024-11-08T02:00:00	7	Dirección del viento	0
51711	7	Sololá	701	Sololá	1	Sololá	10	Octubre	2023-08-10T00:00:00	2024-11-08T02:00:00	1	Precipitación	0.6
51712	7	Sololá	701	Sololá	1	Sololá	10	Octubre	2023-08-10T00:00:00	2024-11-08T02:00:00	8	Radiación solar	0
51713	7	Sololá	701	Sololá	1	Sololá	10	Octubre	2023-08-10T00:00:00	2024-11-08T03:00:00	2	Temperatura media	13.8
51714	7	Sololá	701	Sololá	1	Sololá	10	Octubre	2023-08-10T00:00:00	2024-11-08T03:00:00	4	Temperatura máxima	14.2
51715	7	Sololá	701	Sololá	1	Sololá	10	Octubre	2023-08-10T00:00:00	2024-11-08T03:00:00	3	Temperatura mínima	13.8
51716	7	Sololá	701	Sololá	1	Sololá	10	Octubre	2023-08-10T00:00:00	2024-11-08T03:00:00	5	Humedad	96
51717	7	Sololá	701	Sololá	1	Sololá	10	Octubre	2023-08-10T00:00:00	2024-11-08T03:00:00	6	Velocidad del viento	0
51718	7	Sololá	701	Sololá	1	Sololá	10	Octubre	2023-08-10T00:00:00	2024-11-08T03:00:00	7	Dirección del viento	0
51719	7	Sololá	701	Sololá	1	Sololá	10	Octubre	2023-08-10T00:00:00	2024-11-08T03:00:00	1	Precipitación	0.2
51720	7	Sololá	701	Sololá	1	Sololá	10	Octubre	2023-08-10T00:00:00	2024-11-08T03:00:00	8	Radiación solar	0
51721	7	Sololá	701	Sololá	1	Sololá	10	Octubre	2023-08-10T00:00:00	2024-11-08T04:00:00	2	Temperatura media	13.5
51722	7	Sololá	701	Sololá	1	Sololá	10	Octubre	2023-08-10T00:00:00	2024-11-08T04:00:00	4	Temperatura máxima	13.9
51723	7	Sololá	701	Sololá	1	Sololá	10	Octubre	2023-08-10T00:00:00	2024-11-08T04:00:00	3	Temperatura mínima	13.5
51724	7	Sololá	701	Sololá	1	Sololá	10	Octubre	2023-08-10T00:00:00	2024-11-08T04:00:00	5	Humedad	96
51725	7	Sololá	701	Sololá	1	Sololá	10	Octubre	2023-08-10T00:00:00	2024-11-08T04:00:00	6	Velocidad del viento	0
51726	7	Sololá	701	Sololá	1	Sololá	10	Octubre	2023-08-10T00:00:00	2024-11-08T04:00:00	7	Dirección del viento	0
51727	7	Sololá	701	Sololá	1	Sololá	10	Octubre	2023-08-10T00:00:00	2024-11-08T04:00:00	1	Precipitación	0
51728	7	Sololá	701	Sololá	1	Sololá	10	Octubre	2023-08-10T00:00:00	2024-11-08T04:00:00	8	Radiación solar	0
51729	7	Sololá	701	Sololá	1	Sololá	10	Octubre	2023-08-10T00:00:00	2024-11-08T05:00:00	2	Temperatura media	13.5
51730	7	Sololá	701	Sololá	1	Sololá	10	Octubre	2023-08-10T00:00:00	2024-11-08T05:00:00	4	Temperatura máxima	13.6
51731	7	Sololá	701	Sololá	1	Sololá	10	Octubre	2023-08-10T00:00:00	2024-11-08T05:00:00	3	Temperatura mínima	13.4
51732	7	Sololá	701	Sololá	1	Sololá	10	Octubre	2023-08-10T00:00:00	2024-11-08T05:00:00	5	Humedad	96
51733	7	Sololá	701	Sololá	1	Sololá	10	Octubre	2023-08-10T00:00:00	2024-11-08T05:00:00	6	Velocidad del viento	0
51734	7	Sololá	701	Sololá	1	Sololá	10	Octubre	2023-08-10T00:00:00	2024-11-08T05:00:00	7	Dirección del viento	0
51735	7	Sololá	701	Sololá	1	Sololá	10	Octubre	2023-08-10T00:00:00	2024-11-08T05:00:00	1	Precipitación	0
51736	7	Sololá	701	Sololá	1	Sololá	10	Octubre	2023-08-10T00:00:00	2024-11-08T05:00:00	8	Radiación solar	0
51737	7	Sololá	701	Sololá	1	Sololá	10	Octubre	2023-08-10T00:00:00	2024-11-08T06:00:00	2	Temperatura media	13.8
51738	7	Sololá	701	Sololá	1	Sololá	10	Octubre	2023-08-10T00:00:00	2024-11-08T06:00:00	4	Temperatura máxima	13.8
51739	7	Sololá	701	Sololá	1	Sololá	10	Octubre	2023-08-10T00:00:00	2024-11-08T06:00:00	3	Temperatura mínima	13.4
51740	7	Sololá	701	Sololá	1	Sololá	10	Octubre	2023-08-10T00:00:00	2024-11-08T06:00:00	5	Humedad	96
51741	7	Sololá	701	Sololá	1	Sololá	10	Octubre	2023-08-10T00:00:00	2024-11-08T06:00:00	6	Velocidad del viento	0
51742	7	Sololá	701	Sololá	1	Sololá	10	Octubre	2023-08-10T00:00:00	2024-11-08T06:00:00	7	Dirección del viento	0
51743	7	Sololá	701	Sololá	1	Sololá	10	Octubre	2023-08-10T00:00:00	2024-11-08T06:00:00	1	Precipitación	0
51744	7	Sololá	701	Sololá	1	Sololá	10	Octubre	2023-08-10T00:00:00	2024-11-08T06:00:00	8	Radiación solar	0
51745	7	Sololá	701	Sololá	1	Sololá	10	Octubre	2023-08-10T00:00:00	2024-11-08T07:00:00	2	Temperatura media	14.3
51746	7	Sololá	701	Sololá	1	Sololá	10	Octubre	2023-08-10T00:00:00	2024-11-08T07:00:00	4	Temperatura máxima	14.3
51747	7	Sololá	701	Sololá	1	Sololá	10	Octubre	2023-08-10T00:00:00	2024-11-08T07:00:00	3	Temperatura mínima	13.7
51748	7	Sololá	701	Sololá	1	Sololá	10	Octubre	2023-08-10T00:00:00	2024-11-08T07:00:00	5	Humedad	96
51749	7	Sololá	701	Sololá	1	Sololá	10	Octubre	2023-08-10T00:00:00	2024-11-08T07:00:00	6	Velocidad del viento	0
51750	7	Sololá	701	Sololá	1	Sololá	10	Octubre	2023-08-10T00:00:00	2024-11-08T07:00:00	7	Dirección del viento	0
51751	7	Sololá	701	Sololá	1	Sololá	10	Octubre	2023-08-10T00:00:00	2024-11-08T07:00:00	1	Precipitación	0
51752	7	Sololá	701	Sololá	1	Sololá	10	Octubre	2023-08-10T00:00:00	2024-11-08T07:00:00	8	Radiación solar	13
51753	7	Sololá	701	Sololá	1	Sololá	10	Octubre	2023-08-10T00:00:00	2024-11-08T08:00:00	2	Temperatura media	15.9
51754	7	Sololá	701	Sololá	1	Sololá	10	Octubre	2023-08-10T00:00:00	2024-11-08T08:00:00	4	Temperatura máxima	15.9
51755	7	Sololá	701	Sololá	1	Sololá	10	Octubre	2023-08-10T00:00:00	2024-11-08T08:00:00	3	Temperatura mínima	14.3
51756	7	Sololá	701	Sololá	1	Sololá	10	Octubre	2023-08-10T00:00:00	2024-11-08T08:00:00	5	Humedad	97
51757	7	Sololá	701	Sololá	1	Sololá	10	Octubre	2023-08-10T00:00:00	2024-11-08T08:00:00	6	Velocidad del viento	0
51758	7	Sololá	701	Sololá	1	Sololá	10	Octubre	2023-08-10T00:00:00	2024-11-08T08:00:00	7	Dirección del viento	0
51759	7	Sololá	701	Sololá	1	Sololá	10	Octubre	2023-08-10T00:00:00	2024-11-08T08:00:00	1	Precipitación	0
51760	7	Sololá	701	Sololá	1	Sololá	10	Octubre	2023-08-10T00:00:00	2024-11-08T08:00:00	8	Radiación solar	93
51761	7	Sololá	701	Sololá	1	Sololá	10	Octubre	2023-08-10T00:00:00	2024-11-08T09:00:00	2	Temperatura media	17.9
51762	7	Sololá	701	Sololá	1	Sololá	10	Octubre	2023-08-10T00:00:00	2024-11-08T09:00:00	4	Temperatura máxima	17.9
51763	7	Sololá	701	Sololá	1	Sololá	10	Octubre	2023-08-10T00:00:00	2024-11-08T09:00:00	3	Temperatura mínima	15.9
51764	7	Sololá	701	Sololá	1	Sololá	10	Octubre	2023-08-10T00:00:00	2024-11-08T09:00:00	5	Humedad	93
51765	7	Sololá	701	Sololá	1	Sololá	10	Octubre	2023-08-10T00:00:00	2024-11-08T09:00:00	6	Velocidad del viento	0
51766	7	Sololá	701	Sololá	1	Sololá	10	Octubre	2023-08-10T00:00:00	2024-11-08T09:00:00	7	Dirección del viento	0
51767	7	Sololá	701	Sololá	1	Sololá	10	Octubre	2023-08-10T00:00:00	2024-11-08T09:00:00	1	Precipitación	0
51768	7	Sololá	701	Sololá	1	Sololá	10	Octubre	2023-08-10T00:00:00	2024-11-08T09:00:00	8	Radiación solar	318
51769	7	Sololá	701	Sololá	1	Sololá	10	Octubre	2023-08-10T00:00:00	2024-11-08T10:00:00	2	Temperatura media	19.7
51770	7	Sololá	701	Sololá	1	Sololá	10	Octubre	2023-08-10T00:00:00	2024-11-08T10:00:00	4	Temperatura máxima	19.7
51771	7	Sololá	701	Sololá	1	Sololá	10	Octubre	2023-08-10T00:00:00	2024-11-08T10:00:00	3	Temperatura mínima	17.9
51772	7	Sololá	701	Sololá	1	Sololá	10	Octubre	2023-08-10T00:00:00	2024-11-08T10:00:00	5	Humedad	89
51773	7	Sololá	701	Sololá	1	Sololá	10	Octubre	2023-08-10T00:00:00	2024-11-08T10:00:00	6	Velocidad del viento	0
51774	7	Sololá	701	Sololá	1	Sololá	10	Octubre	2023-08-10T00:00:00	2024-11-08T10:00:00	7	Dirección del viento	0
51775	7	Sololá	701	Sololá	1	Sololá	10	Octubre	2023-08-10T00:00:00	2024-11-08T10:00:00	1	Precipitación	0
51776	7	Sololá	701	Sololá	1	Sololá	10	Octubre	2023-08-10T00:00:00	2024-11-08T10:00:00	8	Radiación solar	350
51777	7	Sololá	701	Sololá	1	Sololá	10	Octubre	2023-08-10T00:00:00	2024-11-08T11:00:00	2	Temperatura media	20.6
51778	7	Sololá	701	Sololá	1	Sololá	10	Octubre	2023-08-10T00:00:00	2024-11-08T11:00:00	4	Temperatura máxima	20.7
51779	7	Sololá	701	Sololá	1	Sololá	10	Octubre	2023-08-10T00:00:00	2024-11-08T11:00:00	3	Temperatura mínima	19.6
51780	7	Sololá	701	Sololá	1	Sololá	10	Octubre	2023-08-10T00:00:00	2024-11-08T11:00:00	5	Humedad	83
51781	7	Sololá	701	Sololá	1	Sololá	10	Octubre	2023-08-10T00:00:00	2024-11-08T11:00:00	6	Velocidad del viento	0
51782	7	Sololá	701	Sololá	1	Sololá	10	Octubre	2023-08-10T00:00:00	2024-11-08T11:00:00	7	Dirección del viento	0
51783	7	Sololá	701	Sololá	1	Sololá	10	Octubre	2023-08-10T00:00:00	2024-11-08T11:00:00	1	Precipitación	0
51784	7	Sololá	701	Sololá	1	Sololá	10	Octubre	2023-08-10T00:00:00	2024-11-08T11:00:00	8	Radiación solar	492
51785	7	Sololá	701	Sololá	1	Sololá	10	Octubre	2023-08-10T00:00:00	2024-11-08T12:00:00	2	Temperatura media	21.3
51786	7	Sololá	701	Sololá	1	Sololá	10	Octubre	2023-08-10T00:00:00	2024-11-08T12:00:00	4	Temperatura máxima	21.3
51787	7	Sololá	701	Sololá	1	Sololá	10	Octubre	2023-08-10T00:00:00	2024-11-08T12:00:00	3	Temperatura mínima	20.5
51788	7	Sololá	701	Sololá	1	Sololá	10	Octubre	2023-08-10T00:00:00	2024-11-08T12:00:00	5	Humedad	79
51789	7	Sololá	701	Sololá	1	Sololá	10	Octubre	2023-08-10T00:00:00	2024-11-08T12:00:00	6	Velocidad del viento	0
51790	7	Sololá	701	Sololá	1	Sololá	10	Octubre	2023-08-10T00:00:00	2024-11-08T12:00:00	7	Dirección del viento	0
51791	7	Sololá	701	Sololá	1	Sololá	10	Octubre	2023-08-10T00:00:00	2024-11-08T12:00:00	1	Precipitación	0
51792	7	Sololá	701	Sololá	1	Sololá	10	Octubre	2023-08-10T00:00:00	2024-11-08T12:00:00	8	Radiación solar	449
51793	7	Sololá	701	Sololá	1	Sololá	10	Octubre	2023-08-10T00:00:00	2024-11-08T13:00:00	2	Temperatura media	22.8
51794	7	Sololá	701	Sololá	1	Sololá	10	Octubre	2023-08-10T00:00:00	2024-11-08T13:00:00	4	Temperatura máxima	22.8
51795	7	Sololá	701	Sololá	1	Sololá	10	Octubre	2023-08-10T00:00:00	2024-11-08T13:00:00	3	Temperatura mínima	21.3
51796	7	Sololá	701	Sololá	1	Sololá	10	Octubre	2023-08-10T00:00:00	2024-11-08T13:00:00	5	Humedad	80
51797	7	Sololá	701	Sololá	1	Sololá	10	Octubre	2023-08-10T00:00:00	2024-11-08T13:00:00	6	Velocidad del viento	0
51798	7	Sololá	701	Sololá	1	Sololá	10	Octubre	2023-08-10T00:00:00	2024-11-08T13:00:00	7	Dirección del viento	0
51799	7	Sololá	701	Sololá	1	Sololá	10	Octubre	2023-08-10T00:00:00	2024-11-08T13:00:00	1	Precipitación	0
51800	7	Sololá	701	Sololá	1	Sololá	10	Octubre	2023-08-10T00:00:00	2024-11-08T13:00:00	8	Radiación solar	585
51801	7	Sololá	701	Sololá	1	Sololá	10	Octubre	2023-08-10T00:00:00	2024-11-08T14:00:00	2	Temperatura media	22.7
51802	7	Sololá	701	Sololá	1	Sololá	10	Octubre	2023-08-10T00:00:00	2024-11-08T14:00:00	4	Temperatura máxima	23.3
51803	7	Sololá	701	Sololá	1	Sololá	10	Octubre	2023-08-10T00:00:00	2024-11-08T14:00:00	3	Temperatura mínima	22.4
51804	7	Sololá	701	Sololá	1	Sololá	10	Octubre	2023-08-10T00:00:00	2024-11-08T14:00:00	5	Humedad	76
51805	7	Sololá	701	Sololá	1	Sololá	10	Octubre	2023-08-10T00:00:00	2024-11-08T14:00:00	6	Velocidad del viento	0
51806	7	Sololá	701	Sololá	1	Sololá	10	Octubre	2023-08-10T00:00:00	2024-11-08T14:00:00	7	Dirección del viento	0
51807	7	Sololá	701	Sololá	1	Sololá	10	Octubre	2023-08-10T00:00:00	2024-11-08T14:00:00	1	Precipitación	0
51808	7	Sololá	701	Sololá	1	Sololá	10	Octubre	2023-08-10T00:00:00	2024-11-08T14:00:00	8	Radiación solar	204
51809	7	Sololá	701	Sololá	1	Sololá	10	Octubre	2023-08-10T00:00:00	2024-11-08T15:00:00	2	Temperatura media	23.3
51810	7	Sololá	701	Sololá	1	Sololá	10	Octubre	2023-08-10T00:00:00	2024-11-08T15:00:00	4	Temperatura máxima	23.3
51811	7	Sololá	701	Sololá	1	Sololá	10	Octubre	2023-08-10T00:00:00	2024-11-08T15:00:00	3	Temperatura mínima	22.4
51812	7	Sololá	701	Sololá	1	Sololá	10	Octubre	2023-08-10T00:00:00	2024-11-08T15:00:00	5	Humedad	73
51813	7	Sololá	701	Sololá	1	Sololá	10	Octubre	2023-08-10T00:00:00	2024-11-08T15:00:00	6	Velocidad del viento	0
51814	7	Sololá	701	Sololá	1	Sololá	10	Octubre	2023-08-10T00:00:00	2024-11-08T15:00:00	7	Dirección del viento	0
51815	7	Sololá	701	Sololá	1	Sololá	10	Octubre	2023-08-10T00:00:00	2024-11-08T15:00:00	1	Precipitación	0
51816	7	Sololá	701	Sololá	1	Sololá	10	Octubre	2023-08-10T00:00:00	2024-11-08T15:00:00	8	Radiación solar	301
51817	7	Sololá	701	Sololá	1	Sololá	10	Octubre	2023-08-10T00:00:00	2024-11-08T16:00:00	2	Temperatura media	20.6
51818	7	Sololá	701	Sololá	1	Sololá	10	Octubre	2023-08-10T00:00:00	2024-11-08T16:00:00	4	Temperatura máxima	23.7
51819	7	Sololá	701	Sololá	1	Sololá	10	Octubre	2023-08-10T00:00:00	2024-11-08T16:00:00	3	Temperatura mínima	20.6
51820	7	Sololá	701	Sololá	1	Sololá	10	Octubre	2023-08-10T00:00:00	2024-11-08T16:00:00	5	Humedad	87
51821	7	Sololá	701	Sololá	1	Sololá	10	Octubre	2023-08-10T00:00:00	2024-11-08T16:00:00	6	Velocidad del viento	0
51822	7	Sololá	701	Sololá	1	Sololá	10	Octubre	2023-08-10T00:00:00	2024-11-08T16:00:00	7	Dirección del viento	0
51823	7	Sololá	701	Sololá	1	Sololá	10	Octubre	2023-08-10T00:00:00	2024-11-08T16:00:00	1	Precipitación	0.8
51824	7	Sololá	701	Sololá	1	Sololá	10	Octubre	2023-08-10T00:00:00	2024-11-08T16:00:00	8	Radiación solar	142
51825	7	Sololá	701	Sololá	1	Sololá	10	Octubre	2023-08-10T00:00:00	2024-11-08T17:00:00	2	Temperatura media	16.3
51826	7	Sololá	701	Sololá	1	Sololá	10	Octubre	2023-08-10T00:00:00	2024-11-08T17:00:00	4	Temperatura máxima	20.6
51827	7	Sololá	701	Sololá	1	Sololá	10	Octubre	2023-08-10T00:00:00	2024-11-08T17:00:00	3	Temperatura mínima	16.2
51828	7	Sololá	701	Sololá	1	Sololá	10	Octubre	2023-08-10T00:00:00	2024-11-08T17:00:00	5	Humedad	95
51829	7	Sololá	701	Sololá	1	Sololá	10	Octubre	2023-08-10T00:00:00	2024-11-08T17:00:00	6	Velocidad del viento	0
51830	7	Sololá	701	Sololá	1	Sololá	10	Octubre	2023-08-10T00:00:00	2024-11-08T17:00:00	7	Dirección del viento	0
51831	7	Sololá	701	Sololá	1	Sololá	10	Octubre	2023-08-10T00:00:00	2024-11-08T17:00:00	1	Precipitación	13
51832	7	Sololá	701	Sololá	1	Sololá	10	Octubre	2023-08-10T00:00:00	2024-11-08T17:00:00	8	Radiación solar	0
51833	7	Sololá	701	Sololá	1	Sololá	10	Octubre	2023-08-10T00:00:00	2024-11-08T18:00:00	2	Temperatura media	15.9
51834	7	Sololá	701	Sololá	1	Sololá	10	Octubre	2023-08-10T00:00:00	2024-11-08T18:00:00	4	Temperatura máxima	16.3
51835	7	Sololá	701	Sololá	1	Sololá	10	Octubre	2023-08-10T00:00:00	2024-11-08T18:00:00	3	Temperatura mínima	15.9
51836	7	Sololá	701	Sololá	1	Sololá	10	Octubre	2023-08-10T00:00:00	2024-11-08T18:00:00	5	Humedad	95
51837	7	Sololá	701	Sololá	1	Sololá	10	Octubre	2023-08-10T00:00:00	2024-11-08T18:00:00	6	Velocidad del viento	0
51838	7	Sololá	701	Sololá	1	Sololá	10	Octubre	2023-08-10T00:00:00	2024-11-08T18:00:00	7	Dirección del viento	0
51839	7	Sololá	701	Sololá	1	Sololá	10	Octubre	2023-08-10T00:00:00	2024-11-08T18:00:00	1	Precipitación	0.2
51840	7	Sololá	701	Sololá	1	Sololá	10	Octubre	2023-08-10T00:00:00	2024-11-08T18:00:00	8	Radiación solar	0
51841	7	Sololá	701	Sololá	1	Sololá	10	Octubre	2023-08-10T00:00:00	2024-11-08T19:00:00	2	Temperatura media	15.7
51842	7	Sololá	701	Sololá	1	Sololá	10	Octubre	2023-08-10T00:00:00	2024-11-08T19:00:00	4	Temperatura máxima	15.9
51843	7	Sololá	701	Sololá	1	Sololá	10	Octubre	2023-08-10T00:00:00	2024-11-08T19:00:00	3	Temperatura mínima	15.7
51844	7	Sololá	701	Sololá	1	Sololá	10	Octubre	2023-08-10T00:00:00	2024-11-08T19:00:00	5	Humedad	95
51845	7	Sololá	701	Sololá	1	Sololá	10	Octubre	2023-08-10T00:00:00	2024-11-08T19:00:00	6	Velocidad del viento	0
51846	7	Sololá	701	Sololá	1	Sololá	10	Octubre	2023-08-10T00:00:00	2024-11-08T19:00:00	7	Dirección del viento	0
51847	7	Sololá	701	Sololá	1	Sololá	10	Octubre	2023-08-10T00:00:00	2024-11-08T19:00:00	1	Precipitación	0
51848	7	Sololá	701	Sololá	1	Sololá	10	Octubre	2023-08-10T00:00:00	2024-11-08T19:00:00	8	Radiación solar	0
51849	7	Sololá	701	Sololá	1	Sololá	10	Octubre	2023-08-10T00:00:00	2024-11-08T20:00:00	2	Temperatura media	15.4
51850	7	Sololá	701	Sololá	1	Sololá	10	Octubre	2023-08-10T00:00:00	2024-11-08T20:00:00	4	Temperatura máxima	15.7
51851	7	Sololá	701	Sololá	1	Sololá	10	Octubre	2023-08-10T00:00:00	2024-11-08T20:00:00	3	Temperatura mínima	15.3
51852	7	Sololá	701	Sololá	1	Sololá	10	Octubre	2023-08-10T00:00:00	2024-11-08T20:00:00	5	Humedad	95
51853	7	Sololá	701	Sololá	1	Sololá	10	Octubre	2023-08-10T00:00:00	2024-11-08T20:00:00	6	Velocidad del viento	0
51854	7	Sololá	701	Sololá	1	Sololá	10	Octubre	2023-08-10T00:00:00	2024-11-08T20:00:00	7	Dirección del viento	0
51855	7	Sololá	701	Sololá	1	Sololá	10	Octubre	2023-08-10T00:00:00	2024-11-08T20:00:00	1	Precipitación	0
51856	7	Sololá	701	Sololá	1	Sololá	10	Octubre	2023-08-10T00:00:00	2024-11-08T20:00:00	8	Radiación solar	0
51857	7	Sololá	701	Sololá	1	Sololá	10	Octubre	2023-08-10T00:00:00	2024-11-08T21:00:00	2	Temperatura media	15.4
51858	7	Sololá	701	Sololá	1	Sololá	10	Octubre	2023-08-10T00:00:00	2024-11-08T21:00:00	4	Temperatura máxima	15.4
51859	7	Sololá	701	Sololá	1	Sololá	10	Octubre	2023-08-10T00:00:00	2024-11-08T21:00:00	3	Temperatura mínima	15.3
51860	7	Sololá	701	Sololá	1	Sololá	10	Octubre	2023-08-10T00:00:00	2024-11-08T21:00:00	5	Humedad	96
51861	7	Sololá	701	Sololá	1	Sololá	10	Octubre	2023-08-10T00:00:00	2024-11-08T21:00:00	6	Velocidad del viento	0
51862	7	Sololá	701	Sololá	1	Sololá	10	Octubre	2023-08-10T00:00:00	2024-11-08T21:00:00	7	Dirección del viento	0
51863	7	Sololá	701	Sololá	1	Sololá	10	Octubre	2023-08-10T00:00:00	2024-11-08T21:00:00	1	Precipitación	0
51864	7	Sololá	701	Sololá	1	Sololá	10	Octubre	2023-08-10T00:00:00	2024-11-08T21:00:00	8	Radiación solar	0
51865	7	Sololá	701	Sololá	1	Sololá	10	Octubre	2023-08-10T00:00:00	2024-11-08T22:00:00	2	Temperatura media	15.6
51866	7	Sololá	701	Sololá	1	Sololá	10	Octubre	2023-08-10T00:00:00	2024-11-08T22:00:00	4	Temperatura máxima	15.6
51867	7	Sololá	701	Sololá	1	Sololá	10	Octubre	2023-08-10T00:00:00	2024-11-08T22:00:00	3	Temperatura mínima	15.4
51868	7	Sololá	701	Sololá	1	Sololá	10	Octubre	2023-08-10T00:00:00	2024-11-08T22:00:00	5	Humedad	96
51869	7	Sololá	701	Sololá	1	Sololá	10	Octubre	2023-08-10T00:00:00	2024-11-08T22:00:00	6	Velocidad del viento	0
51870	7	Sololá	701	Sololá	1	Sololá	10	Octubre	2023-08-10T00:00:00	2024-11-08T22:00:00	7	Dirección del viento	0
51871	7	Sololá	701	Sololá	1	Sololá	10	Octubre	2023-08-10T00:00:00	2024-11-08T22:00:00	1	Precipitación	0
51872	7	Sololá	701	Sololá	1	Sololá	10	Octubre	2023-08-10T00:00:00	2024-11-08T22:00:00	8	Radiación solar	0
51873	7	Sololá	701	Sololá	1	Sololá	10	Octubre	2023-08-10T00:00:00	2024-11-08T23:00:00	2	Temperatura media	15.6
51874	7	Sololá	701	Sololá	1	Sololá	10	Octubre	2023-08-10T00:00:00	2024-11-08T23:00:00	4	Temperatura máxima	15.6
51875	7	Sololá	701	Sololá	1	Sololá	10	Octubre	2023-08-10T00:00:00	2024-11-08T23:00:00	3	Temperatura mínima	15.4
51876	7	Sololá	701	Sololá	1	Sololá	10	Octubre	2023-08-10T00:00:00	2024-11-08T23:00:00	5	Humedad	96
51877	7	Sololá	701	Sololá	1	Sololá	10	Octubre	2023-08-10T00:00:00	2024-11-08T23:00:00	6	Velocidad del viento	0
51878	7	Sololá	701	Sololá	1	Sololá	10	Octubre	2023-08-10T00:00:00	2024-11-08T23:00:00	7	Dirección del viento	0
51879	7	Sololá	701	Sololá	1	Sololá	10	Octubre	2023-08-10T00:00:00	2024-11-08T23:00:00	1	Precipitación	0.8
51880	7	Sololá	701	Sololá	1	Sololá	10	Octubre	2023-08-10T00:00:00	2024-11-08T23:00:00	8	Radiación solar	0
51881	7	Sololá	701	Sololá	1	Sololá	10	Octubre	2023-09-10T00:00:00	2024-11-08T00:00:00	2	Temperatura media	15.4
51882	7	Sololá	701	Sololá	1	Sololá	10	Octubre	2023-09-10T00:00:00	2024-11-08T00:00:00	4	Temperatura máxima	15.6
51883	7	Sololá	701	Sololá	1	Sololá	10	Octubre	2023-09-10T00:00:00	2024-11-08T00:00:00	3	Temperatura mínima	15.4
51884	7	Sololá	701	Sololá	1	Sololá	10	Octubre	2023-09-10T00:00:00	2024-11-08T00:00:00	5	Humedad	96
51885	7	Sololá	701	Sololá	1	Sololá	10	Octubre	2023-09-10T00:00:00	2024-11-08T00:00:00	6	Velocidad del viento	0
51886	7	Sololá	701	Sololá	1	Sololá	10	Octubre	2023-09-10T00:00:00	2024-11-08T00:00:00	7	Dirección del viento	0
51887	7	Sololá	701	Sololá	1	Sololá	10	Octubre	2023-09-10T00:00:00	2024-11-08T00:00:00	1	Precipitación	2.2
51888	7	Sololá	701	Sololá	1	Sololá	10	Octubre	2023-09-10T00:00:00	2024-11-08T00:00:00	8	Radiación solar	0
51889	7	Sololá	701	Sololá	1	Sololá	10	Octubre	2023-09-10T00:00:00	2024-11-08T01:00:00	2	Temperatura media	15.3
51890	7	Sololá	701	Sololá	1	Sololá	10	Octubre	2023-09-10T00:00:00	2024-11-08T01:00:00	4	Temperatura máxima	15.4
51891	7	Sololá	701	Sololá	1	Sololá	10	Octubre	2023-09-10T00:00:00	2024-11-08T01:00:00	3	Temperatura mínima	15.3
51892	7	Sololá	701	Sololá	1	Sololá	10	Octubre	2023-09-10T00:00:00	2024-11-08T01:00:00	5	Humedad	96
51893	7	Sololá	701	Sololá	1	Sololá	10	Octubre	2023-09-10T00:00:00	2024-11-08T01:00:00	6	Velocidad del viento	0
51894	7	Sololá	701	Sololá	1	Sololá	10	Octubre	2023-09-10T00:00:00	2024-11-08T01:00:00	7	Dirección del viento	0
51895	7	Sololá	701	Sololá	1	Sololá	10	Octubre	2023-09-10T00:00:00	2024-11-08T01:00:00	1	Precipitación	9.4
51896	7	Sololá	701	Sololá	1	Sololá	10	Octubre	2023-09-10T00:00:00	2024-11-08T01:00:00	8	Radiación solar	0
51897	7	Sololá	701	Sololá	1	Sololá	10	Octubre	2023-09-10T00:00:00	2024-11-08T02:00:00	2	Temperatura media	15.2
51898	7	Sololá	701	Sololá	1	Sololá	10	Octubre	2023-09-10T00:00:00	2024-11-08T02:00:00	4	Temperatura máxima	15.4
51899	7	Sololá	701	Sololá	1	Sololá	10	Octubre	2023-09-10T00:00:00	2024-11-08T02:00:00	3	Temperatura mínima	15.2
51900	7	Sololá	701	Sololá	1	Sololá	10	Octubre	2023-09-10T00:00:00	2024-11-08T02:00:00	5	Humedad	96
51901	7	Sololá	701	Sololá	1	Sololá	10	Octubre	2023-09-10T00:00:00	2024-11-08T02:00:00	6	Velocidad del viento	0
51902	7	Sololá	701	Sololá	1	Sololá	10	Octubre	2023-09-10T00:00:00	2024-11-08T02:00:00	7	Dirección del viento	0
51903	7	Sololá	701	Sololá	1	Sololá	10	Octubre	2023-09-10T00:00:00	2024-11-08T02:00:00	1	Precipitación	0
51904	7	Sololá	701	Sololá	1	Sololá	10	Octubre	2023-09-10T00:00:00	2024-11-08T02:00:00	8	Radiación solar	0
51905	7	Sololá	701	Sololá	1	Sololá	10	Octubre	2023-09-10T00:00:00	2024-11-08T03:00:00	2	Temperatura media	14.7
51906	7	Sololá	701	Sololá	1	Sololá	10	Octubre	2023-09-10T00:00:00	2024-11-08T03:00:00	4	Temperatura máxima	15.2
51907	7	Sololá	701	Sololá	1	Sololá	10	Octubre	2023-09-10T00:00:00	2024-11-08T03:00:00	3	Temperatura mínima	14.7
51908	7	Sololá	701	Sololá	1	Sololá	10	Octubre	2023-09-10T00:00:00	2024-11-08T03:00:00	5	Humedad	96
51909	7	Sololá	701	Sololá	1	Sololá	10	Octubre	2023-09-10T00:00:00	2024-11-08T03:00:00	6	Velocidad del viento	0
51910	7	Sololá	701	Sololá	1	Sololá	10	Octubre	2023-09-10T00:00:00	2024-11-08T03:00:00	7	Dirección del viento	0
51911	7	Sololá	701	Sololá	1	Sololá	10	Octubre	2023-09-10T00:00:00	2024-11-08T03:00:00	1	Precipitación	0
51912	7	Sololá	701	Sololá	1	Sololá	10	Octubre	2023-09-10T00:00:00	2024-11-08T03:00:00	8	Radiación solar	0
51913	7	Sololá	701	Sololá	1	Sololá	10	Octubre	2023-09-10T00:00:00	2024-11-08T04:00:00	2	Temperatura media	13.9
51914	7	Sololá	701	Sololá	1	Sololá	10	Octubre	2023-09-10T00:00:00	2024-11-08T04:00:00	4	Temperatura máxima	14.7
51915	7	Sololá	701	Sololá	1	Sololá	10	Octubre	2023-09-10T00:00:00	2024-11-08T04:00:00	3	Temperatura mínima	13.9
51916	7	Sololá	701	Sololá	1	Sololá	10	Octubre	2023-09-10T00:00:00	2024-11-08T04:00:00	5	Humedad	96
51917	7	Sololá	701	Sololá	1	Sololá	10	Octubre	2023-09-10T00:00:00	2024-11-08T04:00:00	6	Velocidad del viento	0
51918	7	Sololá	701	Sololá	1	Sololá	10	Octubre	2023-09-10T00:00:00	2024-11-08T04:00:00	7	Dirección del viento	0
51919	7	Sololá	701	Sololá	1	Sololá	10	Octubre	2023-09-10T00:00:00	2024-11-08T04:00:00	1	Precipitación	0
51920	7	Sololá	701	Sololá	1	Sololá	10	Octubre	2023-09-10T00:00:00	2024-11-08T04:00:00	8	Radiación solar	0
51921	7	Sololá	701	Sololá	1	Sololá	10	Octubre	2023-09-10T00:00:00	2024-11-08T05:00:00	2	Temperatura media	13.4
51922	7	Sololá	701	Sololá	1	Sololá	10	Octubre	2023-09-10T00:00:00	2024-11-08T05:00:00	4	Temperatura máxima	13.9
51923	7	Sololá	701	Sololá	1	Sololá	10	Octubre	2023-09-10T00:00:00	2024-11-08T05:00:00	3	Temperatura mínima	13.2
51924	7	Sololá	701	Sololá	1	Sololá	10	Octubre	2023-09-10T00:00:00	2024-11-08T05:00:00	5	Humedad	96
51925	7	Sololá	701	Sololá	1	Sololá	10	Octubre	2023-09-10T00:00:00	2024-11-08T05:00:00	6	Velocidad del viento	0
51926	7	Sololá	701	Sololá	1	Sololá	10	Octubre	2023-09-10T00:00:00	2024-11-08T05:00:00	7	Dirección del viento	0
51927	7	Sololá	701	Sololá	1	Sololá	10	Octubre	2023-09-10T00:00:00	2024-11-08T05:00:00	1	Precipitación	0
51928	7	Sololá	701	Sololá	1	Sololá	10	Octubre	2023-09-10T00:00:00	2024-11-08T05:00:00	8	Radiación solar	0
51929	7	Sololá	701	Sololá	1	Sololá	10	Octubre	2023-09-10T00:00:00	2024-11-08T06:00:00	2	Temperatura media	14.4
51930	7	Sololá	701	Sololá	1	Sololá	10	Octubre	2023-09-10T00:00:00	2024-11-08T06:00:00	4	Temperatura máxima	14.4
51931	7	Sololá	701	Sololá	1	Sololá	10	Octubre	2023-09-10T00:00:00	2024-11-08T06:00:00	3	Temperatura mínima	13.4
51932	7	Sololá	701	Sololá	1	Sololá	10	Octubre	2023-09-10T00:00:00	2024-11-08T06:00:00	5	Humedad	96
51933	7	Sololá	701	Sololá	1	Sololá	10	Octubre	2023-09-10T00:00:00	2024-11-08T06:00:00	6	Velocidad del viento	0
51934	7	Sololá	701	Sololá	1	Sololá	10	Octubre	2023-09-10T00:00:00	2024-11-08T06:00:00	7	Dirección del viento	0
51935	7	Sololá	701	Sololá	1	Sololá	10	Octubre	2023-09-10T00:00:00	2024-11-08T06:00:00	1	Precipitación	0
51936	7	Sololá	701	Sololá	1	Sololá	10	Octubre	2023-09-10T00:00:00	2024-11-08T06:00:00	8	Radiación solar	0
51937	7	Sololá	701	Sololá	1	Sololá	10	Octubre	2023-09-10T00:00:00	2024-11-08T07:00:00	2	Temperatura media	14.9
51938	7	Sololá	701	Sololá	1	Sololá	10	Octubre	2023-09-10T00:00:00	2024-11-08T07:00:00	4	Temperatura máxima	14.9
51939	7	Sololá	701	Sololá	1	Sololá	10	Octubre	2023-09-10T00:00:00	2024-11-08T07:00:00	3	Temperatura mínima	14.4
51940	7	Sololá	701	Sololá	1	Sololá	10	Octubre	2023-09-10T00:00:00	2024-11-08T07:00:00	5	Humedad	97
51941	7	Sololá	701	Sololá	1	Sololá	10	Octubre	2023-09-10T00:00:00	2024-11-08T07:00:00	6	Velocidad del viento	0
51942	7	Sololá	701	Sololá	1	Sololá	10	Octubre	2023-09-10T00:00:00	2024-11-08T07:00:00	7	Dirección del viento	0
51943	7	Sololá	701	Sololá	1	Sololá	10	Octubre	2023-09-10T00:00:00	2024-11-08T07:00:00	1	Precipitación	0
51944	7	Sololá	701	Sololá	1	Sololá	10	Octubre	2023-09-10T00:00:00	2024-11-08T07:00:00	8	Radiación solar	1
51945	7	Sololá	701	Sololá	1	Sololá	10	Octubre	2023-09-10T00:00:00	2024-11-08T08:00:00	2	Temperatura media	15.5
51946	7	Sololá	701	Sololá	1	Sololá	10	Octubre	2023-09-10T00:00:00	2024-11-08T08:00:00	4	Temperatura máxima	15.5
51947	7	Sololá	701	Sololá	1	Sololá	10	Octubre	2023-09-10T00:00:00	2024-11-08T08:00:00	3	Temperatura mínima	14.8
51948	7	Sololá	701	Sololá	1	Sololá	10	Octubre	2023-09-10T00:00:00	2024-11-08T08:00:00	5	Humedad	97
51949	7	Sololá	701	Sololá	1	Sololá	10	Octubre	2023-09-10T00:00:00	2024-11-08T08:00:00	6	Velocidad del viento	0
51950	7	Sololá	701	Sololá	1	Sololá	10	Octubre	2023-09-10T00:00:00	2024-11-08T08:00:00	7	Dirección del viento	0
51951	7	Sololá	701	Sololá	1	Sololá	10	Octubre	2023-09-10T00:00:00	2024-11-08T08:00:00	1	Precipitación	0
51952	7	Sololá	701	Sololá	1	Sololá	10	Octubre	2023-09-10T00:00:00	2024-11-08T08:00:00	8	Radiación solar	19
51953	7	Sololá	701	Sololá	1	Sololá	10	Octubre	2023-09-10T00:00:00	2024-11-08T09:00:00	2	Temperatura media	16.4
51954	7	Sololá	701	Sololá	1	Sololá	10	Octubre	2023-09-10T00:00:00	2024-11-08T09:00:00	4	Temperatura máxima	16.4
51955	7	Sololá	701	Sololá	1	Sololá	10	Octubre	2023-09-10T00:00:00	2024-11-08T09:00:00	3	Temperatura mínima	15.4
51956	7	Sololá	701	Sololá	1	Sololá	10	Octubre	2023-09-10T00:00:00	2024-11-08T09:00:00	5	Humedad	96
51957	7	Sololá	701	Sololá	1	Sololá	10	Octubre	2023-09-10T00:00:00	2024-11-08T09:00:00	6	Velocidad del viento	0
51958	7	Sololá	701	Sololá	1	Sololá	10	Octubre	2023-09-10T00:00:00	2024-11-08T09:00:00	7	Dirección del viento	0
51959	7	Sololá	701	Sololá	1	Sololá	10	Octubre	2023-09-10T00:00:00	2024-11-08T09:00:00	1	Precipitación	0
51960	7	Sololá	701	Sololá	1	Sololá	10	Octubre	2023-09-10T00:00:00	2024-11-08T09:00:00	8	Radiación solar	147
51961	7	Sololá	701	Sololá	1	Sololá	10	Octubre	2023-09-10T00:00:00	2024-11-08T10:00:00	2	Temperatura media	18.9
51962	7	Sololá	701	Sololá	1	Sololá	10	Octubre	2023-09-10T00:00:00	2024-11-08T10:00:00	4	Temperatura máxima	18.9
51963	7	Sololá	701	Sololá	1	Sololá	10	Octubre	2023-09-10T00:00:00	2024-11-08T10:00:00	3	Temperatura mínima	16.4
51964	7	Sololá	701	Sololá	1	Sololá	10	Octubre	2023-09-10T00:00:00	2024-11-08T10:00:00	5	Humedad	94
51965	7	Sololá	701	Sololá	1	Sololá	10	Octubre	2023-09-10T00:00:00	2024-11-08T10:00:00	6	Velocidad del viento	0
51966	7	Sololá	701	Sololá	1	Sololá	10	Octubre	2023-09-10T00:00:00	2024-11-08T10:00:00	7	Dirección del viento	0
51967	7	Sololá	701	Sololá	1	Sololá	10	Octubre	2023-09-10T00:00:00	2024-11-08T10:00:00	1	Precipitación	0
51968	7	Sololá	701	Sololá	1	Sololá	10	Octubre	2023-09-10T00:00:00	2024-11-08T10:00:00	8	Radiación solar	250
51969	7	Sololá	701	Sololá	1	Sololá	10	Octubre	2023-09-10T00:00:00	2024-11-08T11:00:00	2	Temperatura media	21.2
51970	7	Sololá	701	Sololá	1	Sololá	10	Octubre	2023-09-10T00:00:00	2024-11-08T11:00:00	4	Temperatura máxima	21.2
51971	7	Sololá	701	Sololá	1	Sololá	10	Octubre	2023-09-10T00:00:00	2024-11-08T11:00:00	3	Temperatura mínima	18.9
51972	7	Sololá	701	Sololá	1	Sololá	10	Octubre	2023-09-10T00:00:00	2024-11-08T11:00:00	5	Humedad	89
51973	7	Sololá	701	Sololá	1	Sololá	10	Octubre	2023-09-10T00:00:00	2024-11-08T11:00:00	6	Velocidad del viento	0
51974	7	Sololá	701	Sololá	1	Sololá	10	Octubre	2023-09-10T00:00:00	2024-11-08T11:00:00	7	Dirección del viento	0
51975	7	Sololá	701	Sololá	1	Sololá	10	Octubre	2023-09-10T00:00:00	2024-11-08T11:00:00	1	Precipitación	0
51976	7	Sololá	701	Sololá	1	Sololá	10	Octubre	2023-09-10T00:00:00	2024-11-08T11:00:00	8	Radiación solar	370
51977	7	Sololá	701	Sololá	1	Sololá	10	Octubre	2023-09-10T00:00:00	2024-11-08T12:00:00	2	Temperatura media	22.6
51978	7	Sololá	701	Sololá	1	Sololá	10	Octubre	2023-09-10T00:00:00	2024-11-08T12:00:00	4	Temperatura máxima	22.8
51979	7	Sololá	701	Sololá	1	Sololá	10	Octubre	2023-09-10T00:00:00	2024-11-08T12:00:00	3	Temperatura mínima	21.2
51980	7	Sololá	701	Sololá	1	Sololá	10	Octubre	2023-09-10T00:00:00	2024-11-08T12:00:00	5	Humedad	85
51981	7	Sololá	701	Sololá	1	Sololá	10	Octubre	2023-09-10T00:00:00	2024-11-08T12:00:00	6	Velocidad del viento	0
51982	7	Sololá	701	Sololá	1	Sololá	10	Octubre	2023-09-10T00:00:00	2024-11-08T12:00:00	7	Dirección del viento	0
51983	7	Sololá	701	Sololá	1	Sololá	10	Octubre	2023-09-10T00:00:00	2024-11-08T12:00:00	1	Precipitación	0
51984	7	Sololá	701	Sololá	1	Sololá	10	Octubre	2023-09-10T00:00:00	2024-11-08T12:00:00	8	Radiación solar	956
51985	7	Sololá	701	Sololá	1	Sololá	10	Octubre	2023-09-10T00:00:00	2024-11-08T13:00:00	2	Temperatura media	19.3
51986	7	Sololá	701	Sololá	1	Sololá	10	Octubre	2023-09-10T00:00:00	2024-11-08T13:00:00	4	Temperatura máxima	22.6
51987	7	Sololá	701	Sololá	1	Sololá	10	Octubre	2023-09-10T00:00:00	2024-11-08T13:00:00	3	Temperatura mínima	19.3
51988	7	Sololá	701	Sololá	1	Sololá	10	Octubre	2023-09-10T00:00:00	2024-11-08T13:00:00	5	Humedad	91
51989	7	Sololá	701	Sololá	1	Sololá	10	Octubre	2023-09-10T00:00:00	2024-11-08T13:00:00	6	Velocidad del viento	0
51990	7	Sololá	701	Sololá	1	Sololá	10	Octubre	2023-09-10T00:00:00	2024-11-08T13:00:00	7	Dirección del viento	0
51991	7	Sololá	701	Sololá	1	Sololá	10	Octubre	2023-09-10T00:00:00	2024-11-08T13:00:00	1	Precipitación	0
51992	7	Sololá	701	Sololá	1	Sololá	10	Octubre	2023-09-10T00:00:00	2024-11-08T13:00:00	8	Radiación solar	183
51993	7	Sololá	701	Sololá	1	Sololá	10	Octubre	2023-09-10T00:00:00	2024-11-08T14:00:00	2	Temperatura media	17.3
51994	7	Sololá	701	Sololá	1	Sololá	10	Octubre	2023-09-10T00:00:00	2024-11-08T14:00:00	4	Temperatura máxima	19.3
51995	7	Sololá	701	Sololá	1	Sololá	10	Octubre	2023-09-10T00:00:00	2024-11-08T14:00:00	3	Temperatura mínima	17.3
51996	7	Sololá	701	Sololá	1	Sololá	10	Octubre	2023-09-10T00:00:00	2024-11-08T14:00:00	5	Humedad	95
51997	7	Sololá	701	Sololá	1	Sololá	10	Octubre	2023-09-10T00:00:00	2024-11-08T14:00:00	6	Velocidad del viento	0
51998	7	Sololá	701	Sololá	1	Sololá	10	Octubre	2023-09-10T00:00:00	2024-11-08T14:00:00	7	Dirección del viento	0
51999	7	Sololá	701	Sololá	1	Sololá	10	Octubre	2023-09-10T00:00:00	2024-11-08T14:00:00	1	Precipitación	4.4
52000	7	Sololá	701	Sololá	1	Sololá	10	Octubre	2023-09-10T00:00:00	2024-11-08T14:00:00	8	Radiación solar	10
52001	7	Sololá	701	Sololá	1	Sololá	10	Octubre	2023-09-10T00:00:00	2024-11-08T15:00:00	2	Temperatura media	16.8
52002	7	Sololá	701	Sololá	1	Sololá	10	Octubre	2023-09-10T00:00:00	2024-11-08T15:00:00	4	Temperatura máxima	17.3
52003	7	Sololá	701	Sololá	1	Sololá	10	Octubre	2023-09-10T00:00:00	2024-11-08T15:00:00	3	Temperatura mínima	16.8
52004	7	Sololá	701	Sololá	1	Sololá	10	Octubre	2023-09-10T00:00:00	2024-11-08T15:00:00	5	Humedad	96
52005	7	Sololá	701	Sololá	1	Sololá	10	Octubre	2023-09-10T00:00:00	2024-11-08T15:00:00	6	Velocidad del viento	0
52006	7	Sololá	701	Sololá	1	Sololá	10	Octubre	2023-09-10T00:00:00	2024-11-08T15:00:00	7	Dirección del viento	0
52007	7	Sololá	701	Sololá	1	Sololá	10	Octubre	2023-09-10T00:00:00	2024-11-08T15:00:00	1	Precipitación	0
52008	7	Sololá	701	Sololá	1	Sololá	10	Octubre	2023-09-10T00:00:00	2024-11-08T15:00:00	8	Radiación solar	12
52009	7	Sololá	701	Sololá	1	Sololá	10	Octubre	2023-09-10T00:00:00	2024-11-08T16:00:00	2	Temperatura media	15.9
52010	7	Sololá	701	Sololá	1	Sololá	10	Octubre	2023-09-10T00:00:00	2024-11-08T16:00:00	4	Temperatura máxima	16.9
52011	7	Sololá	701	Sololá	1	Sololá	10	Octubre	2023-09-10T00:00:00	2024-11-08T16:00:00	3	Temperatura mínima	15.9
52012	7	Sololá	701	Sololá	1	Sololá	10	Octubre	2023-09-10T00:00:00	2024-11-08T16:00:00	5	Humedad	95
52013	7	Sololá	701	Sololá	1	Sololá	10	Octubre	2023-09-10T00:00:00	2024-11-08T16:00:00	6	Velocidad del viento	0
52014	7	Sololá	701	Sololá	1	Sololá	10	Octubre	2023-09-10T00:00:00	2024-11-08T16:00:00	7	Dirección del viento	0
52015	7	Sololá	701	Sololá	1	Sololá	10	Octubre	2023-09-10T00:00:00	2024-11-08T16:00:00	1	Precipitación	0
52016	7	Sololá	701	Sololá	1	Sololá	10	Octubre	2023-09-10T00:00:00	2024-11-08T16:00:00	8	Radiación solar	5
52017	7	Sololá	701	Sololá	1	Sololá	10	Octubre	2023-09-10T00:00:00	2024-11-08T17:00:00	2	Temperatura media	16.3
52018	7	Sololá	701	Sololá	1	Sololá	10	Octubre	2023-09-10T00:00:00	2024-11-08T17:00:00	4	Temperatura máxima	16.3
52019	7	Sololá	701	Sololá	1	Sololá	10	Octubre	2023-09-10T00:00:00	2024-11-08T17:00:00	3	Temperatura mínima	15.8
52020	7	Sololá	701	Sololá	1	Sololá	10	Octubre	2023-09-10T00:00:00	2024-11-08T17:00:00	5	Humedad	96
52021	7	Sololá	701	Sololá	1	Sololá	10	Octubre	2023-09-10T00:00:00	2024-11-08T17:00:00	6	Velocidad del viento	0
52022	7	Sololá	701	Sololá	1	Sololá	10	Octubre	2023-09-10T00:00:00	2024-11-08T17:00:00	7	Dirección del viento	0
52023	7	Sololá	701	Sololá	1	Sololá	10	Octubre	2023-09-10T00:00:00	2024-11-08T17:00:00	1	Precipitación	1.4
52024	7	Sololá	701	Sololá	1	Sololá	10	Octubre	2023-09-10T00:00:00	2024-11-08T17:00:00	8	Radiación solar	9
52025	7	Sololá	701	Sololá	1	Sololá	10	Octubre	2023-09-10T00:00:00	2024-11-08T18:00:00	2	Temperatura media	16.4
52026	7	Sololá	701	Sololá	1	Sololá	10	Octubre	2023-09-10T00:00:00	2024-11-08T18:00:00	4	Temperatura máxima	16.4
52027	7	Sololá	701	Sololá	1	Sololá	10	Octubre	2023-09-10T00:00:00	2024-11-08T18:00:00	3	Temperatura mínima	16.2
52028	7	Sololá	701	Sololá	1	Sololá	10	Octubre	2023-09-10T00:00:00	2024-11-08T18:00:00	5	Humedad	96
52029	7	Sololá	701	Sololá	1	Sololá	10	Octubre	2023-09-10T00:00:00	2024-11-08T18:00:00	6	Velocidad del viento	0
52030	7	Sololá	701	Sololá	1	Sololá	10	Octubre	2023-09-10T00:00:00	2024-11-08T18:00:00	7	Dirección del viento	0
52031	7	Sololá	701	Sololá	1	Sololá	10	Octubre	2023-09-10T00:00:00	2024-11-08T18:00:00	1	Precipitación	0
52032	7	Sololá	701	Sololá	1	Sololá	10	Octubre	2023-09-10T00:00:00	2024-11-08T18:00:00	8	Radiación solar	1
52033	7	Sololá	701	Sololá	1	Sololá	10	Octubre	2023-09-10T00:00:00	2024-11-08T19:00:00	2	Temperatura media	16.2
52034	7	Sololá	701	Sololá	1	Sololá	10	Octubre	2023-09-10T00:00:00	2024-11-08T19:00:00	4	Temperatura máxima	16.4
52035	7	Sololá	701	Sololá	1	Sololá	10	Octubre	2023-09-10T00:00:00	2024-11-08T19:00:00	3	Temperatura mínima	16.2
52036	7	Sololá	701	Sololá	1	Sololá	10	Octubre	2023-09-10T00:00:00	2024-11-08T19:00:00	5	Humedad	96
52037	7	Sololá	701	Sololá	1	Sololá	10	Octubre	2023-09-10T00:00:00	2024-11-08T19:00:00	6	Velocidad del viento	0
52038	7	Sololá	701	Sololá	1	Sololá	10	Octubre	2023-09-10T00:00:00	2024-11-08T19:00:00	7	Dirección del viento	0
52039	7	Sololá	701	Sololá	1	Sololá	10	Octubre	2023-09-10T00:00:00	2024-11-08T19:00:00	1	Precipitación	0
52040	7	Sololá	701	Sololá	1	Sololá	10	Octubre	2023-09-10T00:00:00	2024-11-08T19:00:00	8	Radiación solar	0
52041	7	Sololá	701	Sololá	1	Sololá	10	Octubre	2023-09-10T00:00:00	2024-11-08T20:00:00	2	Temperatura media	16.1
52042	7	Sololá	701	Sololá	1	Sololá	10	Octubre	2023-09-10T00:00:00	2024-11-08T20:00:00	4	Temperatura máxima	16.2
52043	7	Sololá	701	Sololá	1	Sololá	10	Octubre	2023-09-10T00:00:00	2024-11-08T20:00:00	3	Temperatura mínima	16.1
52044	7	Sololá	701	Sololá	1	Sololá	10	Octubre	2023-09-10T00:00:00	2024-11-08T20:00:00	5	Humedad	96
52045	7	Sololá	701	Sololá	1	Sololá	10	Octubre	2023-09-10T00:00:00	2024-11-08T20:00:00	6	Velocidad del viento	0
52046	7	Sololá	701	Sololá	1	Sololá	10	Octubre	2023-09-10T00:00:00	2024-11-08T20:00:00	7	Dirección del viento	0
52047	7	Sololá	701	Sololá	1	Sololá	10	Octubre	2023-09-10T00:00:00	2024-11-08T20:00:00	1	Precipitación	0
52048	7	Sololá	701	Sololá	1	Sololá	10	Octubre	2023-09-10T00:00:00	2024-11-08T20:00:00	8	Radiación solar	0
52049	7	Sololá	701	Sololá	1	Sololá	10	Octubre	2023-09-10T00:00:00	2024-11-08T21:00:00	2	Temperatura media	15.4
52050	7	Sololá	701	Sololá	1	Sololá	10	Octubre	2023-09-10T00:00:00	2024-11-08T21:00:00	4	Temperatura máxima	16.1
52051	7	Sololá	701	Sololá	1	Sololá	10	Octubre	2023-09-10T00:00:00	2024-11-08T21:00:00	3	Temperatura mínima	15.4
52052	7	Sololá	701	Sololá	1	Sololá	10	Octubre	2023-09-10T00:00:00	2024-11-08T21:00:00	5	Humedad	96
52053	7	Sololá	701	Sololá	1	Sololá	10	Octubre	2023-09-10T00:00:00	2024-11-08T21:00:00	6	Velocidad del viento	0
52054	7	Sololá	701	Sololá	1	Sololá	10	Octubre	2023-09-10T00:00:00	2024-11-08T21:00:00	7	Dirección del viento	0
52055	7	Sololá	701	Sololá	1	Sololá	10	Octubre	2023-09-10T00:00:00	2024-11-08T21:00:00	1	Precipitación	0
52056	7	Sololá	701	Sololá	1	Sololá	10	Octubre	2023-09-10T00:00:00	2024-11-08T21:00:00	8	Radiación solar	0
52057	7	Sololá	701	Sololá	1	Sololá	10	Octubre	2023-09-10T00:00:00	2024-11-08T22:00:00	2	Temperatura media	14.9
52058	7	Sololá	701	Sololá	1	Sololá	10	Octubre	2023-09-10T00:00:00	2024-11-08T22:00:00	4	Temperatura máxima	15.4
52059	7	Sololá	701	Sololá	1	Sololá	10	Octubre	2023-09-10T00:00:00	2024-11-08T22:00:00	3	Temperatura mínima	14.9
52060	7	Sololá	701	Sololá	1	Sololá	10	Octubre	2023-09-10T00:00:00	2024-11-08T22:00:00	5	Humedad	96
52061	7	Sololá	701	Sololá	1	Sololá	10	Octubre	2023-09-10T00:00:00	2024-11-08T22:00:00	6	Velocidad del viento	0
52062	7	Sololá	701	Sololá	1	Sololá	10	Octubre	2023-09-10T00:00:00	2024-11-08T22:00:00	7	Dirección del viento	0
52063	7	Sololá	701	Sololá	1	Sololá	10	Octubre	2023-09-10T00:00:00	2024-11-08T22:00:00	1	Precipitación	0
52064	7	Sololá	701	Sololá	1	Sololá	10	Octubre	2023-09-10T00:00:00	2024-11-08T22:00:00	8	Radiación solar	0
52065	7	Sololá	701	Sololá	1	Sololá	10	Octubre	2023-09-10T00:00:00	2024-11-08T23:00:00	2	Temperatura media	15.1
52066	7	Sololá	701	Sololá	1	Sololá	10	Octubre	2023-09-10T00:00:00	2024-11-08T23:00:00	4	Temperatura máxima	15.1
52067	7	Sololá	701	Sololá	1	Sololá	10	Octubre	2023-09-10T00:00:00	2024-11-08T23:00:00	3	Temperatura mínima	14.9
52068	7	Sololá	701	Sololá	1	Sololá	10	Octubre	2023-09-10T00:00:00	2024-11-08T23:00:00	5	Humedad	96
52069	7	Sololá	701	Sololá	1	Sololá	10	Octubre	2023-09-10T00:00:00	2024-11-08T23:00:00	6	Velocidad del viento	0
52070	7	Sololá	701	Sololá	1	Sololá	10	Octubre	2023-09-10T00:00:00	2024-11-08T23:00:00	7	Dirección del viento	0
52071	7	Sololá	701	Sololá	1	Sololá	10	Octubre	2023-09-10T00:00:00	2024-11-08T23:00:00	1	Precipitación	0.6
52072	7	Sololá	701	Sololá	1	Sololá	10	Octubre	2023-09-10T00:00:00	2024-11-08T23:00:00	8	Radiación solar	0
52073	7	Sololá	701	Sololá	1	Sololá	10	Octubre	2023-10-10T00:00:00	2024-11-08T00:00:00	2	Temperatura media	15.2
52074	7	Sololá	701	Sololá	1	Sololá	10	Octubre	2023-10-10T00:00:00	2024-11-08T00:00:00	4	Temperatura máxima	15.2
52075	7	Sololá	701	Sololá	1	Sololá	10	Octubre	2023-10-10T00:00:00	2024-11-08T00:00:00	3	Temperatura mínima	14.9
52076	7	Sololá	701	Sololá	1	Sololá	10	Octubre	2023-10-10T00:00:00	2024-11-08T00:00:00	5	Humedad	96
52077	7	Sololá	701	Sololá	1	Sololá	10	Octubre	2023-10-10T00:00:00	2024-11-08T00:00:00	6	Velocidad del viento	0
52078	7	Sololá	701	Sololá	1	Sololá	10	Octubre	2023-10-10T00:00:00	2024-11-08T00:00:00	7	Dirección del viento	0
52079	7	Sololá	701	Sololá	1	Sololá	10	Octubre	2023-10-10T00:00:00	2024-11-08T00:00:00	1	Precipitación	1.6
52080	7	Sololá	701	Sololá	1	Sololá	10	Octubre	2023-10-10T00:00:00	2024-11-08T00:00:00	8	Radiación solar	0
52081	7	Sololá	701	Sololá	1	Sololá	10	Octubre	2023-10-10T00:00:00	2024-11-08T01:00:00	2	Temperatura media	15.1
52082	7	Sololá	701	Sololá	1	Sololá	10	Octubre	2023-10-10T00:00:00	2024-11-08T01:00:00	4	Temperatura máxima	15.2
52083	7	Sololá	701	Sololá	1	Sololá	10	Octubre	2023-10-10T00:00:00	2024-11-08T01:00:00	3	Temperatura mínima	15.1
52084	7	Sololá	701	Sololá	1	Sololá	10	Octubre	2023-10-10T00:00:00	2024-11-08T01:00:00	5	Humedad	96
52085	7	Sololá	701	Sololá	1	Sololá	10	Octubre	2023-10-10T00:00:00	2024-11-08T01:00:00	6	Velocidad del viento	0
52086	7	Sololá	701	Sololá	1	Sololá	10	Octubre	2023-10-10T00:00:00	2024-11-08T01:00:00	7	Dirección del viento	0
52087	7	Sololá	701	Sololá	1	Sololá	10	Octubre	2023-10-10T00:00:00	2024-11-08T01:00:00	1	Precipitación	0
52088	7	Sololá	701	Sololá	1	Sololá	10	Octubre	2023-10-10T00:00:00	2024-11-08T01:00:00	8	Radiación solar	0
52089	7	Sololá	701	Sololá	1	Sololá	10	Octubre	2023-10-10T00:00:00	2024-11-08T02:00:00	2	Temperatura media	14.6
52090	7	Sololá	701	Sololá	1	Sololá	10	Octubre	2023-10-10T00:00:00	2024-11-08T02:00:00	4	Temperatura máxima	15.1
52091	7	Sololá	701	Sololá	1	Sololá	10	Octubre	2023-10-10T00:00:00	2024-11-08T02:00:00	3	Temperatura mínima	14.6
52092	7	Sololá	701	Sololá	1	Sololá	10	Octubre	2023-10-10T00:00:00	2024-11-08T02:00:00	5	Humedad	96
52093	7	Sololá	701	Sololá	1	Sololá	10	Octubre	2023-10-10T00:00:00	2024-11-08T02:00:00	6	Velocidad del viento	0
52094	7	Sololá	701	Sololá	1	Sololá	10	Octubre	2023-10-10T00:00:00	2024-11-08T02:00:00	7	Dirección del viento	0
52095	7	Sololá	701	Sololá	1	Sololá	10	Octubre	2023-10-10T00:00:00	2024-11-08T02:00:00	1	Precipitación	0
52096	7	Sololá	701	Sololá	1	Sololá	10	Octubre	2023-10-10T00:00:00	2024-11-08T02:00:00	8	Radiación solar	0
52097	7	Sololá	701	Sololá	1	Sololá	10	Octubre	2023-10-10T00:00:00	2024-11-08T03:00:00	2	Temperatura media	13.9
52098	7	Sololá	701	Sololá	1	Sololá	10	Octubre	2023-10-10T00:00:00	2024-11-08T03:00:00	4	Temperatura máxima	14.7
52099	7	Sololá	701	Sololá	1	Sololá	10	Octubre	2023-10-10T00:00:00	2024-11-08T03:00:00	3	Temperatura mínima	13.9
52100	7	Sololá	701	Sololá	1	Sololá	10	Octubre	2023-10-10T00:00:00	2024-11-08T03:00:00	5	Humedad	96
52101	7	Sololá	701	Sololá	1	Sololá	10	Octubre	2023-10-10T00:00:00	2024-11-08T03:00:00	6	Velocidad del viento	0
52102	7	Sololá	701	Sololá	1	Sololá	10	Octubre	2023-10-10T00:00:00	2024-11-08T03:00:00	7	Dirección del viento	0
52103	7	Sololá	701	Sololá	1	Sololá	10	Octubre	2023-10-10T00:00:00	2024-11-08T03:00:00	1	Precipitación	0
52104	7	Sololá	701	Sololá	1	Sololá	10	Octubre	2023-10-10T00:00:00	2024-11-08T03:00:00	8	Radiación solar	0
52105	7	Sololá	701	Sololá	1	Sololá	10	Octubre	2023-10-10T00:00:00	2024-11-08T04:00:00	2	Temperatura media	13.4
52106	7	Sololá	701	Sololá	1	Sololá	10	Octubre	2023-10-10T00:00:00	2024-11-08T04:00:00	4	Temperatura máxima	13.9
52107	7	Sololá	701	Sololá	1	Sololá	10	Octubre	2023-10-10T00:00:00	2024-11-08T04:00:00	3	Temperatura mínima	13.3
52108	7	Sololá	701	Sololá	1	Sololá	10	Octubre	2023-10-10T00:00:00	2024-11-08T04:00:00	5	Humedad	96
52109	7	Sololá	701	Sololá	1	Sololá	10	Octubre	2023-10-10T00:00:00	2024-11-08T04:00:00	6	Velocidad del viento	0
52110	7	Sololá	701	Sololá	1	Sololá	10	Octubre	2023-10-10T00:00:00	2024-11-08T04:00:00	7	Dirección del viento	0
52111	7	Sololá	701	Sololá	1	Sololá	10	Octubre	2023-10-10T00:00:00	2024-11-08T04:00:00	1	Precipitación	0
52112	7	Sololá	701	Sololá	1	Sololá	10	Octubre	2023-10-10T00:00:00	2024-11-08T04:00:00	8	Radiación solar	0
52113	7	Sololá	701	Sololá	1	Sololá	10	Octubre	2023-10-10T00:00:00	2024-11-08T05:00:00	2	Temperatura media	13.1
52114	7	Sololá	701	Sololá	1	Sololá	10	Octubre	2023-10-10T00:00:00	2024-11-08T05:00:00	4	Temperatura máxima	13.4
52115	7	Sololá	701	Sololá	1	Sololá	10	Octubre	2023-10-10T00:00:00	2024-11-08T05:00:00	3	Temperatura mínima	13.1
52116	7	Sololá	701	Sololá	1	Sololá	10	Octubre	2023-10-10T00:00:00	2024-11-08T05:00:00	5	Humedad	96
52117	7	Sololá	701	Sololá	1	Sololá	10	Octubre	2023-10-10T00:00:00	2024-11-08T05:00:00	6	Velocidad del viento	0
52118	7	Sololá	701	Sololá	1	Sololá	10	Octubre	2023-10-10T00:00:00	2024-11-08T05:00:00	7	Dirección del viento	0
52119	7	Sololá	701	Sololá	1	Sololá	10	Octubre	2023-10-10T00:00:00	2024-11-08T05:00:00	1	Precipitación	0
52120	7	Sololá	701	Sololá	1	Sololá	10	Octubre	2023-10-10T00:00:00	2024-11-08T05:00:00	8	Radiación solar	0
52121	7	Sololá	701	Sololá	1	Sololá	10	Octubre	2023-10-10T00:00:00	2024-11-08T06:00:00	2	Temperatura media	12.9
52122	7	Sololá	701	Sololá	1	Sololá	10	Octubre	2023-10-10T00:00:00	2024-11-08T06:00:00	4	Temperatura máxima	13.1
52123	7	Sololá	701	Sololá	1	Sololá	10	Octubre	2023-10-10T00:00:00	2024-11-08T06:00:00	3	Temperatura mínima	12.9
52124	7	Sololá	701	Sololá	1	Sololá	10	Octubre	2023-10-10T00:00:00	2024-11-08T06:00:00	5	Humedad	96
52125	7	Sololá	701	Sololá	1	Sololá	10	Octubre	2023-10-10T00:00:00	2024-11-08T06:00:00	6	Velocidad del viento	0
52126	7	Sololá	701	Sololá	1	Sololá	10	Octubre	2023-10-10T00:00:00	2024-11-08T06:00:00	7	Dirección del viento	0
52127	7	Sololá	701	Sololá	1	Sololá	10	Octubre	2023-10-10T00:00:00	2024-11-08T06:00:00	1	Precipitación	0
52128	7	Sololá	701	Sololá	1	Sololá	10	Octubre	2023-10-10T00:00:00	2024-11-08T06:00:00	8	Radiación solar	0
52129	7	Sololá	701	Sololá	1	Sololá	10	Octubre	2023-10-10T00:00:00	2024-11-08T07:00:00	2	Temperatura media	13.8
52130	7	Sololá	701	Sololá	1	Sololá	10	Octubre	2023-10-10T00:00:00	2024-11-08T07:00:00	4	Temperatura máxima	13.8
52131	7	Sololá	701	Sololá	1	Sololá	10	Octubre	2023-10-10T00:00:00	2024-11-08T07:00:00	3	Temperatura mínima	12.9
52132	7	Sololá	701	Sololá	1	Sololá	10	Octubre	2023-10-10T00:00:00	2024-11-08T07:00:00	5	Humedad	96
52133	7	Sololá	701	Sololá	1	Sololá	10	Octubre	2023-10-10T00:00:00	2024-11-08T07:00:00	6	Velocidad del viento	0
52134	7	Sololá	701	Sololá	1	Sololá	10	Octubre	2023-10-10T00:00:00	2024-11-08T07:00:00	7	Dirección del viento	0
52135	7	Sololá	701	Sololá	1	Sololá	10	Octubre	2023-10-10T00:00:00	2024-11-08T07:00:00	1	Precipitación	0
52136	7	Sololá	701	Sololá	1	Sololá	10	Octubre	2023-10-10T00:00:00	2024-11-08T07:00:00	8	Radiación solar	18
52137	7	Sololá	701	Sololá	1	Sololá	10	Octubre	2023-10-10T00:00:00	2024-11-08T08:00:00	2	Temperatura media	15.3
52138	7	Sololá	701	Sololá	1	Sololá	10	Octubre	2023-10-10T00:00:00	2024-11-08T08:00:00	4	Temperatura máxima	15.3
52139	7	Sololá	701	Sololá	1	Sololá	10	Octubre	2023-10-10T00:00:00	2024-11-08T08:00:00	3	Temperatura mínima	13.8
52140	7	Sololá	701	Sololá	1	Sololá	10	Octubre	2023-10-10T00:00:00	2024-11-08T08:00:00	5	Humedad	98
52141	7	Sololá	701	Sololá	1	Sololá	10	Octubre	2023-10-10T00:00:00	2024-11-08T08:00:00	6	Velocidad del viento	0
52142	7	Sololá	701	Sololá	1	Sololá	10	Octubre	2023-10-10T00:00:00	2024-11-08T08:00:00	7	Dirección del viento	0
52143	7	Sololá	701	Sololá	1	Sololá	10	Octubre	2023-10-10T00:00:00	2024-11-08T08:00:00	1	Precipitación	0
52144	7	Sololá	701	Sololá	1	Sololá	10	Octubre	2023-10-10T00:00:00	2024-11-08T08:00:00	8	Radiación solar	81
52145	7	Sololá	701	Sololá	1	Sololá	10	Octubre	2023-10-10T00:00:00	2024-11-08T09:00:00	2	Temperatura media	19.1
52146	7	Sololá	701	Sololá	1	Sololá	10	Octubre	2023-10-10T00:00:00	2024-11-08T09:00:00	4	Temperatura máxima	19.1
52147	7	Sololá	701	Sololá	1	Sololá	10	Octubre	2023-10-10T00:00:00	2024-11-08T09:00:00	3	Temperatura mínima	15.3
52148	7	Sololá	701	Sololá	1	Sololá	10	Octubre	2023-10-10T00:00:00	2024-11-08T09:00:00	5	Humedad	92
52149	7	Sololá	701	Sololá	1	Sololá	10	Octubre	2023-10-10T00:00:00	2024-11-08T09:00:00	6	Velocidad del viento	0
52150	7	Sololá	701	Sololá	1	Sololá	10	Octubre	2023-10-10T00:00:00	2024-11-08T09:00:00	7	Dirección del viento	0
52151	7	Sololá	701	Sololá	1	Sololá	10	Octubre	2023-10-10T00:00:00	2024-11-08T09:00:00	1	Precipitación	0
52152	7	Sololá	701	Sololá	1	Sololá	10	Octubre	2023-10-10T00:00:00	2024-11-08T09:00:00	8	Radiación solar	460
52153	7	Sololá	701	Sololá	1	Sololá	10	Octubre	2023-10-10T00:00:00	2024-11-08T10:00:00	2	Temperatura media	21.3
52154	7	Sololá	701	Sololá	1	Sololá	10	Octubre	2023-10-10T00:00:00	2024-11-08T10:00:00	4	Temperatura máxima	21.3
52155	7	Sololá	701	Sololá	1	Sololá	10	Octubre	2023-10-10T00:00:00	2024-11-08T10:00:00	3	Temperatura mínima	19.1
52156	7	Sololá	701	Sololá	1	Sololá	10	Octubre	2023-10-10T00:00:00	2024-11-08T10:00:00	5	Humedad	83
52157	7	Sololá	701	Sololá	1	Sololá	10	Octubre	2023-10-10T00:00:00	2024-11-08T10:00:00	6	Velocidad del viento	0
52158	7	Sololá	701	Sololá	1	Sololá	10	Octubre	2023-10-10T00:00:00	2024-11-08T10:00:00	7	Dirección del viento	0
52159	7	Sololá	701	Sololá	1	Sololá	10	Octubre	2023-10-10T00:00:00	2024-11-08T10:00:00	1	Precipitación	0
52160	7	Sololá	701	Sololá	1	Sololá	10	Octubre	2023-10-10T00:00:00	2024-11-08T10:00:00	8	Radiación solar	820
52161	7	Sololá	701	Sololá	1	Sololá	10	Octubre	2023-10-10T00:00:00	2024-11-08T11:00:00	2	Temperatura media	22.1
52162	7	Sololá	701	Sololá	1	Sololá	10	Octubre	2023-10-10T00:00:00	2024-11-08T11:00:00	4	Temperatura máxima	22.3
52163	7	Sololá	701	Sololá	1	Sololá	10	Octubre	2023-10-10T00:00:00	2024-11-08T11:00:00	3	Temperatura mínima	21.3
52164	7	Sololá	701	Sololá	1	Sololá	10	Octubre	2023-10-10T00:00:00	2024-11-08T11:00:00	5	Humedad	77
52165	7	Sololá	701	Sololá	1	Sololá	10	Octubre	2023-10-10T00:00:00	2024-11-08T11:00:00	6	Velocidad del viento	0
52166	7	Sololá	701	Sololá	1	Sololá	10	Octubre	2023-10-10T00:00:00	2024-11-08T11:00:00	7	Dirección del viento	0
52167	7	Sololá	701	Sololá	1	Sololá	10	Octubre	2023-10-10T00:00:00	2024-11-08T11:00:00	1	Precipitación	0
52168	7	Sololá	701	Sololá	1	Sololá	10	Octubre	2023-10-10T00:00:00	2024-11-08T11:00:00	8	Radiación solar	886
52169	7	Sololá	701	Sololá	1	Sololá	10	Octubre	2023-10-10T00:00:00	2024-11-08T12:00:00	2	Temperatura media	22.2
52170	7	Sololá	701	Sololá	1	Sololá	10	Octubre	2023-10-10T00:00:00	2024-11-08T12:00:00	4	Temperatura máxima	22.4
52171	7	Sololá	701	Sololá	1	Sololá	10	Octubre	2023-10-10T00:00:00	2024-11-08T12:00:00	3	Temperatura mínima	21.9
52172	7	Sololá	701	Sololá	1	Sololá	10	Octubre	2023-10-10T00:00:00	2024-11-08T12:00:00	5	Humedad	80
52173	7	Sololá	701	Sololá	1	Sololá	10	Octubre	2023-10-10T00:00:00	2024-11-08T12:00:00	6	Velocidad del viento	0
52174	7	Sololá	701	Sololá	1	Sololá	10	Octubre	2023-10-10T00:00:00	2024-11-08T12:00:00	7	Dirección del viento	0
52175	7	Sololá	701	Sololá	1	Sololá	10	Octubre	2023-10-10T00:00:00	2024-11-08T12:00:00	1	Precipitación	0
52176	7	Sololá	701	Sololá	1	Sololá	10	Octubre	2023-10-10T00:00:00	2024-11-08T12:00:00	8	Radiación solar	961
52177	7	Sololá	701	Sololá	1	Sololá	10	Octubre	2023-10-10T00:00:00	2024-11-08T13:00:00	2	Temperatura media	20.5
52178	7	Sololá	701	Sololá	1	Sololá	10	Octubre	2023-10-10T00:00:00	2024-11-08T13:00:00	4	Temperatura máxima	22.1
52179	7	Sololá	701	Sololá	1	Sololá	10	Octubre	2023-10-10T00:00:00	2024-11-08T13:00:00	3	Temperatura mínima	20.3
52180	7	Sololá	701	Sololá	1	Sololá	10	Octubre	2023-10-10T00:00:00	2024-11-08T13:00:00	5	Humedad	86
52181	7	Sololá	701	Sololá	1	Sololá	10	Octubre	2023-10-10T00:00:00	2024-11-08T13:00:00	6	Velocidad del viento	0
52182	7	Sololá	701	Sololá	1	Sololá	10	Octubre	2023-10-10T00:00:00	2024-11-08T13:00:00	7	Dirección del viento	0
52183	7	Sololá	701	Sololá	1	Sololá	10	Octubre	2023-10-10T00:00:00	2024-11-08T13:00:00	1	Precipitación	0
52184	7	Sololá	701	Sololá	1	Sololá	10	Octubre	2023-10-10T00:00:00	2024-11-08T13:00:00	8	Radiación solar	223
52185	7	Sololá	701	Sololá	1	Sololá	10	Octubre	2023-10-10T00:00:00	2024-11-08T14:00:00	2	Temperatura media	19.8
52186	7	Sololá	701	Sololá	1	Sololá	10	Octubre	2023-10-10T00:00:00	2024-11-08T14:00:00	4	Temperatura máxima	20.5
52187	7	Sololá	701	Sololá	1	Sololá	10	Octubre	2023-10-10T00:00:00	2024-11-08T14:00:00	3	Temperatura mínima	19.3
52188	7	Sololá	701	Sololá	1	Sololá	10	Octubre	2023-10-10T00:00:00	2024-11-08T14:00:00	5	Humedad	89
52189	7	Sololá	701	Sololá	1	Sololá	10	Octubre	2023-10-10T00:00:00	2024-11-08T14:00:00	6	Velocidad del viento	0
52190	7	Sololá	701	Sololá	1	Sololá	10	Octubre	2023-10-10T00:00:00	2024-11-08T14:00:00	7	Dirección del viento	0
52191	7	Sololá	701	Sololá	1	Sololá	10	Octubre	2023-10-10T00:00:00	2024-11-08T14:00:00	1	Precipitación	0
52192	7	Sololá	701	Sololá	1	Sololá	10	Octubre	2023-10-10T00:00:00	2024-11-08T14:00:00	8	Radiación solar	167
52193	7	Sololá	701	Sololá	1	Sololá	10	Octubre	2023-10-10T00:00:00	2024-11-08T15:00:00	2	Temperatura media	18.9
52194	7	Sololá	701	Sololá	1	Sololá	10	Octubre	2023-10-10T00:00:00	2024-11-08T15:00:00	4	Temperatura máxima	19.8
52195	7	Sololá	701	Sololá	1	Sololá	10	Octubre	2023-10-10T00:00:00	2024-11-08T15:00:00	3	Temperatura mínima	18.9
52196	7	Sololá	701	Sololá	1	Sololá	10	Octubre	2023-10-10T00:00:00	2024-11-08T15:00:00	5	Humedad	91
52197	7	Sololá	701	Sololá	1	Sololá	10	Octubre	2023-10-10T00:00:00	2024-11-08T15:00:00	6	Velocidad del viento	0
52198	7	Sololá	701	Sololá	1	Sololá	10	Octubre	2023-10-10T00:00:00	2024-11-08T15:00:00	7	Dirección del viento	0
52199	7	Sololá	701	Sololá	1	Sololá	10	Octubre	2023-10-10T00:00:00	2024-11-08T15:00:00	1	Precipitación	0
52200	7	Sololá	701	Sololá	1	Sololá	10	Octubre	2023-10-10T00:00:00	2024-11-08T15:00:00	8	Radiación solar	92
52201	7	Sololá	701	Sololá	1	Sololá	10	Octubre	2023-10-10T00:00:00	2024-11-08T16:00:00	2	Temperatura media	17.7
52202	7	Sololá	701	Sololá	1	Sololá	10	Octubre	2023-10-10T00:00:00	2024-11-08T16:00:00	4	Temperatura máxima	18.9
52203	7	Sololá	701	Sololá	1	Sololá	10	Octubre	2023-10-10T00:00:00	2024-11-08T16:00:00	3	Temperatura mínima	17.7
52204	7	Sololá	701	Sololá	1	Sololá	10	Octubre	2023-10-10T00:00:00	2024-11-08T16:00:00	5	Humedad	94
52205	7	Sololá	701	Sololá	1	Sololá	10	Octubre	2023-10-10T00:00:00	2024-11-08T16:00:00	6	Velocidad del viento	0
52206	7	Sololá	701	Sololá	1	Sololá	10	Octubre	2023-10-10T00:00:00	2024-11-08T16:00:00	7	Dirección del viento	0
52207	7	Sololá	701	Sololá	1	Sololá	10	Octubre	2023-10-10T00:00:00	2024-11-08T16:00:00	1	Precipitación	0.2
52208	7	Sololá	701	Sololá	1	Sololá	10	Octubre	2023-10-10T00:00:00	2024-11-08T16:00:00	8	Radiación solar	46
52209	7	Sololá	701	Sololá	1	Sololá	10	Octubre	2023-10-10T00:00:00	2024-11-08T17:00:00	2	Temperatura media	17.4
52210	7	Sololá	701	Sololá	1	Sololá	10	Octubre	2023-10-10T00:00:00	2024-11-08T17:00:00	4	Temperatura máxima	17.8
52211	7	Sololá	701	Sololá	1	Sololá	10	Octubre	2023-10-10T00:00:00	2024-11-08T17:00:00	3	Temperatura mínima	17.4
52212	7	Sololá	701	Sololá	1	Sololá	10	Octubre	2023-10-10T00:00:00	2024-11-08T17:00:00	5	Humedad	95
52213	7	Sololá	701	Sololá	1	Sololá	10	Octubre	2023-10-10T00:00:00	2024-11-08T17:00:00	6	Velocidad del viento	0
52214	7	Sololá	701	Sololá	1	Sololá	10	Octubre	2023-10-10T00:00:00	2024-11-08T17:00:00	7	Dirección del viento	0
52215	7	Sololá	701	Sololá	1	Sololá	10	Octubre	2023-10-10T00:00:00	2024-11-08T17:00:00	1	Precipitación	0
52216	7	Sololá	701	Sololá	1	Sololá	10	Octubre	2023-10-10T00:00:00	2024-11-08T17:00:00	8	Radiación solar	26
52217	7	Sololá	701	Sololá	1	Sololá	10	Octubre	2023-10-10T00:00:00	2024-11-08T18:00:00	2	Temperatura media	16.4
52218	7	Sololá	701	Sololá	1	Sololá	10	Octubre	2023-10-10T00:00:00	2024-11-08T18:00:00	4	Temperatura máxima	17.4
52219	7	Sololá	701	Sololá	1	Sololá	10	Octubre	2023-10-10T00:00:00	2024-11-08T18:00:00	3	Temperatura mínima	16.4
52220	7	Sololá	701	Sololá	1	Sololá	10	Octubre	2023-10-10T00:00:00	2024-11-08T18:00:00	5	Humedad	95
52221	7	Sololá	701	Sololá	1	Sololá	10	Octubre	2023-10-10T00:00:00	2024-11-08T18:00:00	6	Velocidad del viento	0
52222	7	Sololá	701	Sololá	1	Sololá	10	Octubre	2023-10-10T00:00:00	2024-11-08T18:00:00	7	Dirección del viento	0
52223	7	Sololá	701	Sololá	1	Sololá	10	Octubre	2023-10-10T00:00:00	2024-11-08T18:00:00	1	Precipitación	7.6
52224	7	Sololá	701	Sololá	1	Sololá	10	Octubre	2023-10-10T00:00:00	2024-11-08T18:00:00	8	Radiación solar	0
52225	7	Sololá	701	Sololá	1	Sololá	10	Octubre	2023-10-10T00:00:00	2024-11-08T19:00:00	2	Temperatura media	16.3
52226	7	Sololá	701	Sololá	1	Sololá	10	Octubre	2023-10-10T00:00:00	2024-11-08T19:00:00	4	Temperatura máxima	16.4
52227	7	Sololá	701	Sololá	1	Sololá	10	Octubre	2023-10-10T00:00:00	2024-11-08T19:00:00	3	Temperatura mínima	16.2
52228	7	Sololá	701	Sololá	1	Sololá	10	Octubre	2023-10-10T00:00:00	2024-11-08T19:00:00	5	Humedad	96
52229	7	Sololá	701	Sololá	1	Sololá	10	Octubre	2023-10-10T00:00:00	2024-11-08T19:00:00	6	Velocidad del viento	0
52230	7	Sololá	701	Sololá	1	Sololá	10	Octubre	2023-10-10T00:00:00	2024-11-08T19:00:00	7	Dirección del viento	0
52231	7	Sololá	701	Sololá	1	Sololá	10	Octubre	2023-10-10T00:00:00	2024-11-08T19:00:00	1	Precipitación	4.6
52232	7	Sololá	701	Sololá	1	Sololá	10	Octubre	2023-10-10T00:00:00	2024-11-08T19:00:00	8	Radiación solar	0
52233	7	Sololá	701	Sololá	1	Sololá	10	Octubre	2023-10-10T00:00:00	2024-11-08T20:00:00	2	Temperatura media	15.9
52234	7	Sololá	701	Sololá	1	Sololá	10	Octubre	2023-10-10T00:00:00	2024-11-08T20:00:00	4	Temperatura máxima	16.3
52235	7	Sololá	701	Sololá	1	Sololá	10	Octubre	2023-10-10T00:00:00	2024-11-08T20:00:00	3	Temperatura mínima	15.9
52236	7	Sololá	701	Sololá	1	Sololá	10	Octubre	2023-10-10T00:00:00	2024-11-08T20:00:00	5	Humedad	96
52237	7	Sololá	701	Sololá	1	Sololá	10	Octubre	2023-10-10T00:00:00	2024-11-08T20:00:00	6	Velocidad del viento	0
52238	7	Sololá	701	Sololá	1	Sololá	10	Octubre	2023-10-10T00:00:00	2024-11-08T20:00:00	7	Dirección del viento	0
52239	7	Sololá	701	Sololá	1	Sololá	10	Octubre	2023-10-10T00:00:00	2024-11-08T20:00:00	1	Precipitación	0
52240	7	Sololá	701	Sololá	1	Sololá	10	Octubre	2023-10-10T00:00:00	2024-11-08T20:00:00	8	Radiación solar	0
52241	7	Sololá	701	Sololá	1	Sololá	10	Octubre	2023-10-10T00:00:00	2024-11-08T21:00:00	2	Temperatura media	16
52242	7	Sololá	701	Sololá	1	Sololá	10	Octubre	2023-10-10T00:00:00	2024-11-08T21:00:00	4	Temperatura máxima	16.1
52243	7	Sololá	701	Sololá	1	Sololá	10	Octubre	2023-10-10T00:00:00	2024-11-08T21:00:00	3	Temperatura mínima	15.9
52244	7	Sololá	701	Sololá	1	Sololá	10	Octubre	2023-10-10T00:00:00	2024-11-08T21:00:00	5	Humedad	96
52245	7	Sololá	701	Sololá	1	Sololá	10	Octubre	2023-10-10T00:00:00	2024-11-08T21:00:00	6	Velocidad del viento	0
52246	7	Sololá	701	Sololá	1	Sololá	10	Octubre	2023-10-10T00:00:00	2024-11-08T21:00:00	7	Dirección del viento	0
52247	7	Sololá	701	Sololá	1	Sololá	10	Octubre	2023-10-10T00:00:00	2024-11-08T21:00:00	1	Precipitación	1
52248	7	Sololá	701	Sololá	1	Sololá	10	Octubre	2023-10-10T00:00:00	2024-11-08T21:00:00	8	Radiación solar	0
52249	7	Sololá	701	Sololá	1	Sololá	10	Octubre	2023-10-10T00:00:00	2024-11-08T22:00:00	2	Temperatura media	15.9
52250	7	Sololá	701	Sololá	1	Sololá	10	Octubre	2023-10-10T00:00:00	2024-11-08T22:00:00	4	Temperatura máxima	16.1
52251	7	Sololá	701	Sololá	1	Sololá	10	Octubre	2023-10-10T00:00:00	2024-11-08T22:00:00	3	Temperatura mínima	15.9
52252	7	Sololá	701	Sololá	1	Sololá	10	Octubre	2023-10-10T00:00:00	2024-11-08T22:00:00	5	Humedad	96
52253	7	Sololá	701	Sololá	1	Sololá	10	Octubre	2023-10-10T00:00:00	2024-11-08T22:00:00	6	Velocidad del viento	0
52254	7	Sololá	701	Sololá	1	Sololá	10	Octubre	2023-10-10T00:00:00	2024-11-08T22:00:00	7	Dirección del viento	0
52255	7	Sololá	701	Sololá	1	Sololá	10	Octubre	2023-10-10T00:00:00	2024-11-08T22:00:00	1	Precipitación	4.2
52256	7	Sololá	701	Sololá	1	Sololá	10	Octubre	2023-10-10T00:00:00	2024-11-08T22:00:00	8	Radiación solar	0
52257	7	Sololá	701	Sololá	1	Sololá	10	Octubre	2023-10-10T00:00:00	2024-11-08T23:00:00	2	Temperatura media	15.7
52258	7	Sololá	701	Sololá	1	Sololá	10	Octubre	2023-10-10T00:00:00	2024-11-08T23:00:00	4	Temperatura máxima	15.9
52259	7	Sololá	701	Sololá	1	Sololá	10	Octubre	2023-10-10T00:00:00	2024-11-08T23:00:00	3	Temperatura mínima	15.7
52260	7	Sololá	701	Sololá	1	Sololá	10	Octubre	2023-10-10T00:00:00	2024-11-08T23:00:00	5	Humedad	96
52261	7	Sololá	701	Sololá	1	Sololá	10	Octubre	2023-10-10T00:00:00	2024-11-08T23:00:00	6	Velocidad del viento	0
52262	7	Sololá	701	Sololá	1	Sololá	10	Octubre	2023-10-10T00:00:00	2024-11-08T23:00:00	7	Dirección del viento	0
52263	7	Sololá	701	Sololá	1	Sololá	10	Octubre	2023-10-10T00:00:00	2024-11-08T23:00:00	1	Precipitación	4
52264	7	Sololá	701	Sololá	1	Sololá	10	Octubre	2023-10-10T00:00:00	2024-11-08T23:00:00	8	Radiación solar	0
52265	7	Sololá	701	Sololá	1	Sololá	10	Octubre	2023-11-10T00:00:00	2024-11-08T00:00:00	2	Temperatura media	15.6
52266	7	Sololá	701	Sololá	1	Sololá	10	Octubre	2023-11-10T00:00:00	2024-11-08T00:00:00	4	Temperatura máxima	15.7
52267	7	Sololá	701	Sololá	1	Sololá	10	Octubre	2023-11-10T00:00:00	2024-11-08T00:00:00	3	Temperatura mínima	15.5
52268	7	Sololá	701	Sololá	1	Sololá	10	Octubre	2023-11-10T00:00:00	2024-11-08T00:00:00	5	Humedad	96
52269	7	Sololá	701	Sololá	1	Sololá	10	Octubre	2023-11-10T00:00:00	2024-11-08T00:00:00	6	Velocidad del viento	0
52270	7	Sololá	701	Sololá	1	Sololá	10	Octubre	2023-11-10T00:00:00	2024-11-08T00:00:00	7	Dirección del viento	0
52271	7	Sololá	701	Sololá	1	Sololá	10	Octubre	2023-11-10T00:00:00	2024-11-08T00:00:00	1	Precipitación	8.2
52272	7	Sololá	701	Sololá	1	Sololá	10	Octubre	2023-11-10T00:00:00	2024-11-08T00:00:00	8	Radiación solar	0
52273	7	Sololá	701	Sololá	1	Sololá	10	Octubre	2023-11-10T00:00:00	2024-11-08T01:00:00	2	Temperatura media	15.4
52274	7	Sololá	701	Sololá	1	Sololá	10	Octubre	2023-11-10T00:00:00	2024-11-08T01:00:00	4	Temperatura máxima	15.6
52275	7	Sololá	701	Sololá	1	Sololá	10	Octubre	2023-11-10T00:00:00	2024-11-08T01:00:00	3	Temperatura mínima	15.3
52276	7	Sololá	701	Sololá	1	Sololá	10	Octubre	2023-11-10T00:00:00	2024-11-08T01:00:00	5	Humedad	96
52277	7	Sololá	701	Sololá	1	Sololá	10	Octubre	2023-11-10T00:00:00	2024-11-08T01:00:00	6	Velocidad del viento	0
52278	7	Sololá	701	Sololá	1	Sololá	10	Octubre	2023-11-10T00:00:00	2024-11-08T01:00:00	7	Dirección del viento	0
52279	7	Sololá	701	Sololá	1	Sololá	10	Octubre	2023-11-10T00:00:00	2024-11-08T01:00:00	1	Precipitación	0
52280	7	Sololá	701	Sololá	1	Sololá	10	Octubre	2023-11-10T00:00:00	2024-11-08T01:00:00	8	Radiación solar	0
52281	7	Sololá	701	Sololá	1	Sololá	10	Octubre	2023-11-10T00:00:00	2024-11-08T02:00:00	2	Temperatura media	15.3
52282	7	Sololá	701	Sololá	1	Sololá	10	Octubre	2023-11-10T00:00:00	2024-11-08T02:00:00	4	Temperatura máxima	15.4
52283	7	Sololá	701	Sololá	1	Sololá	10	Octubre	2023-11-10T00:00:00	2024-11-08T02:00:00	3	Temperatura mínima	15.3
52284	7	Sololá	701	Sololá	1	Sololá	10	Octubre	2023-11-10T00:00:00	2024-11-08T02:00:00	5	Humedad	96
52285	7	Sololá	701	Sololá	1	Sololá	10	Octubre	2023-11-10T00:00:00	2024-11-08T02:00:00	6	Velocidad del viento	0
52286	7	Sololá	701	Sololá	1	Sololá	10	Octubre	2023-11-10T00:00:00	2024-11-08T02:00:00	7	Dirección del viento	0
52287	7	Sololá	701	Sololá	1	Sololá	10	Octubre	2023-11-10T00:00:00	2024-11-08T02:00:00	1	Precipitación	0
52288	7	Sololá	701	Sololá	1	Sololá	10	Octubre	2023-11-10T00:00:00	2024-11-08T02:00:00	8	Radiación solar	0
52289	7	Sololá	701	Sololá	1	Sololá	10	Octubre	2023-11-10T00:00:00	2024-11-08T03:00:00	2	Temperatura media	15.1
52290	7	Sololá	701	Sololá	1	Sololá	10	Octubre	2023-11-10T00:00:00	2024-11-08T03:00:00	4	Temperatura máxima	15.3
52291	7	Sololá	701	Sololá	1	Sololá	10	Octubre	2023-11-10T00:00:00	2024-11-08T03:00:00	3	Temperatura mínima	15.1
52292	7	Sololá	701	Sololá	1	Sololá	10	Octubre	2023-11-10T00:00:00	2024-11-08T03:00:00	5	Humedad	96
52293	7	Sololá	701	Sololá	1	Sololá	10	Octubre	2023-11-10T00:00:00	2024-11-08T03:00:00	6	Velocidad del viento	0
52294	7	Sololá	701	Sololá	1	Sololá	10	Octubre	2023-11-10T00:00:00	2024-11-08T03:00:00	7	Dirección del viento	0
52295	7	Sololá	701	Sololá	1	Sololá	10	Octubre	2023-11-10T00:00:00	2024-11-08T03:00:00	1	Precipitación	0
52296	7	Sololá	701	Sololá	1	Sololá	10	Octubre	2023-11-10T00:00:00	2024-11-08T03:00:00	8	Radiación solar	0
52297	7	Sololá	701	Sololá	1	Sololá	10	Octubre	2023-11-10T00:00:00	2024-11-08T04:00:00	2	Temperatura media	15.2
52298	7	Sololá	701	Sololá	1	Sololá	10	Octubre	2023-11-10T00:00:00	2024-11-08T04:00:00	4	Temperatura máxima	15.2
52299	7	Sololá	701	Sololá	1	Sololá	10	Octubre	2023-11-10T00:00:00	2024-11-08T04:00:00	3	Temperatura mínima	15
52300	7	Sololá	701	Sololá	1	Sololá	10	Octubre	2023-11-10T00:00:00	2024-11-08T04:00:00	5	Humedad	97
52301	7	Sololá	701	Sololá	1	Sololá	10	Octubre	2023-11-10T00:00:00	2024-11-08T04:00:00	6	Velocidad del viento	0
52302	7	Sololá	701	Sololá	1	Sololá	10	Octubre	2023-11-10T00:00:00	2024-11-08T04:00:00	7	Dirección del viento	0
52303	7	Sololá	701	Sololá	1	Sololá	10	Octubre	2023-11-10T00:00:00	2024-11-08T04:00:00	1	Precipitación	0
52304	7	Sololá	701	Sololá	1	Sololá	10	Octubre	2023-11-10T00:00:00	2024-11-08T04:00:00	8	Radiación solar	0
52305	7	Sololá	701	Sololá	1	Sololá	10	Octubre	2023-11-10T00:00:00	2024-11-08T05:00:00	2	Temperatura media	15.2
52306	7	Sololá	701	Sololá	1	Sololá	10	Octubre	2023-11-10T00:00:00	2024-11-08T05:00:00	4	Temperatura máxima	15.2
52307	7	Sololá	701	Sololá	1	Sololá	10	Octubre	2023-11-10T00:00:00	2024-11-08T05:00:00	3	Temperatura mínima	15.1
52308	7	Sololá	701	Sololá	1	Sololá	10	Octubre	2023-11-10T00:00:00	2024-11-08T05:00:00	5	Humedad	97
52309	7	Sololá	701	Sololá	1	Sololá	10	Octubre	2023-11-10T00:00:00	2024-11-08T05:00:00	6	Velocidad del viento	0
52310	7	Sololá	701	Sololá	1	Sololá	10	Octubre	2023-11-10T00:00:00	2024-11-08T05:00:00	7	Dirección del viento	0
52311	7	Sololá	701	Sololá	1	Sololá	10	Octubre	2023-11-10T00:00:00	2024-11-08T05:00:00	1	Precipitación	0
52312	7	Sololá	701	Sololá	1	Sololá	10	Octubre	2023-11-10T00:00:00	2024-11-08T05:00:00	8	Radiación solar	0
52313	7	Sololá	701	Sololá	1	Sololá	10	Octubre	2023-11-10T00:00:00	2024-11-08T06:00:00	2	Temperatura media	14.6
52314	7	Sololá	701	Sololá	1	Sololá	10	Octubre	2023-11-10T00:00:00	2024-11-08T06:00:00	4	Temperatura máxima	15.2
52315	7	Sololá	701	Sololá	1	Sololá	10	Octubre	2023-11-10T00:00:00	2024-11-08T06:00:00	3	Temperatura mínima	14.6
52316	7	Sololá	701	Sololá	1	Sololá	10	Octubre	2023-11-10T00:00:00	2024-11-08T06:00:00	5	Humedad	96
52317	7	Sololá	701	Sololá	1	Sololá	10	Octubre	2023-11-10T00:00:00	2024-11-08T06:00:00	6	Velocidad del viento	0
52318	7	Sololá	701	Sololá	1	Sololá	10	Octubre	2023-11-10T00:00:00	2024-11-08T06:00:00	7	Dirección del viento	0
52319	7	Sololá	701	Sololá	1	Sololá	10	Octubre	2023-11-10T00:00:00	2024-11-08T06:00:00	1	Precipitación	0
52320	7	Sololá	701	Sololá	1	Sololá	10	Octubre	2023-11-10T00:00:00	2024-11-08T06:00:00	8	Radiación solar	0
52321	7	Sololá	701	Sololá	1	Sololá	10	Octubre	2023-11-10T00:00:00	2024-11-08T07:00:00	2	Temperatura media	14.7
52322	7	Sololá	701	Sololá	1	Sololá	10	Octubre	2023-11-10T00:00:00	2024-11-08T07:00:00	4	Temperatura máxima	14.7
52323	7	Sololá	701	Sololá	1	Sololá	10	Octubre	2023-11-10T00:00:00	2024-11-08T07:00:00	3	Temperatura mínima	14.4
52324	7	Sololá	701	Sololá	1	Sololá	10	Octubre	2023-11-10T00:00:00	2024-11-08T07:00:00	5	Humedad	96
52325	7	Sololá	701	Sololá	1	Sololá	10	Octubre	2023-11-10T00:00:00	2024-11-08T07:00:00	6	Velocidad del viento	0
52326	7	Sololá	701	Sololá	1	Sololá	10	Octubre	2023-11-10T00:00:00	2024-11-08T07:00:00	7	Dirección del viento	0
52327	7	Sololá	701	Sololá	1	Sololá	10	Octubre	2023-11-10T00:00:00	2024-11-08T07:00:00	1	Precipitación	0
52328	7	Sololá	701	Sololá	1	Sololá	10	Octubre	2023-11-10T00:00:00	2024-11-08T07:00:00	8	Radiación solar	27
52329	7	Sololá	701	Sololá	1	Sololá	10	Octubre	2023-11-10T00:00:00	2024-11-08T08:00:00	2	Temperatura media	15.5
52330	7	Sololá	701	Sololá	1	Sololá	10	Octubre	2023-11-10T00:00:00	2024-11-08T08:00:00	4	Temperatura máxima	15.6
52331	7	Sololá	701	Sololá	1	Sololá	10	Octubre	2023-11-10T00:00:00	2024-11-08T08:00:00	3	Temperatura mínima	14.7
52332	7	Sololá	701	Sololá	1	Sololá	10	Octubre	2023-11-10T00:00:00	2024-11-08T08:00:00	5	Humedad	97
52333	7	Sololá	701	Sololá	1	Sololá	10	Octubre	2023-11-10T00:00:00	2024-11-08T08:00:00	6	Velocidad del viento	0
52334	7	Sololá	701	Sololá	1	Sololá	10	Octubre	2023-11-10T00:00:00	2024-11-08T08:00:00	7	Dirección del viento	0
52335	7	Sololá	701	Sololá	1	Sololá	10	Octubre	2023-11-10T00:00:00	2024-11-08T08:00:00	1	Precipitación	0
52336	7	Sololá	701	Sololá	1	Sololá	10	Octubre	2023-11-10T00:00:00	2024-11-08T08:00:00	8	Radiación solar	106
52337	7	Sololá	701	Sololá	1	Sololá	10	Octubre	2023-11-10T00:00:00	2024-11-08T09:00:00	2	Temperatura media	17.7
52338	7	Sololá	701	Sololá	1	Sololá	10	Octubre	2023-11-10T00:00:00	2024-11-08T09:00:00	4	Temperatura máxima	17.7
52339	7	Sololá	701	Sololá	1	Sololá	10	Octubre	2023-11-10T00:00:00	2024-11-08T09:00:00	3	Temperatura mínima	15.5
52340	7	Sololá	701	Sololá	1	Sololá	10	Octubre	2023-11-10T00:00:00	2024-11-08T09:00:00	5	Humedad	96
52341	7	Sololá	701	Sololá	1	Sololá	10	Octubre	2023-11-10T00:00:00	2024-11-08T09:00:00	6	Velocidad del viento	0
52342	7	Sololá	701	Sololá	1	Sololá	10	Octubre	2023-11-10T00:00:00	2024-11-08T09:00:00	7	Dirección del viento	0
52343	7	Sololá	701	Sololá	1	Sololá	10	Octubre	2023-11-10T00:00:00	2024-11-08T09:00:00	1	Precipitación	0
52344	7	Sololá	701	Sololá	1	Sololá	10	Octubre	2023-11-10T00:00:00	2024-11-08T09:00:00	8	Radiación solar	476
52345	7	Sololá	701	Sololá	1	Sololá	10	Octubre	2023-11-10T00:00:00	2024-11-08T10:00:00	2	Temperatura media	19.7
52346	7	Sololá	701	Sololá	1	Sololá	10	Octubre	2023-11-10T00:00:00	2024-11-08T10:00:00	4	Temperatura máxima	19.7
52347	7	Sololá	701	Sololá	1	Sololá	10	Octubre	2023-11-10T00:00:00	2024-11-08T10:00:00	3	Temperatura mínima	17.6
52348	7	Sololá	701	Sololá	1	Sololá	10	Octubre	2023-11-10T00:00:00	2024-11-08T10:00:00	5	Humedad	87
52349	7	Sololá	701	Sololá	1	Sololá	10	Octubre	2023-11-10T00:00:00	2024-11-08T10:00:00	6	Velocidad del viento	0
52350	7	Sololá	701	Sololá	1	Sololá	10	Octubre	2023-11-10T00:00:00	2024-11-08T10:00:00	7	Dirección del viento	0
52351	7	Sololá	701	Sololá	1	Sololá	10	Octubre	2023-11-10T00:00:00	2024-11-08T10:00:00	1	Precipitación	0
52352	7	Sololá	701	Sololá	1	Sololá	10	Octubre	2023-11-10T00:00:00	2024-11-08T10:00:00	8	Radiación solar	517
52353	7	Sololá	701	Sololá	1	Sololá	10	Octubre	2023-11-10T00:00:00	2024-11-08T11:00:00	2	Temperatura media	18.5
52354	7	Sololá	701	Sololá	1	Sololá	10	Octubre	2023-11-10T00:00:00	2024-11-08T11:00:00	4	Temperatura máxima	19.8
52355	7	Sololá	701	Sololá	1	Sololá	10	Octubre	2023-11-10T00:00:00	2024-11-08T11:00:00	3	Temperatura mínima	18.5
52356	7	Sololá	701	Sololá	1	Sololá	10	Octubre	2023-11-10T00:00:00	2024-11-08T11:00:00	5	Humedad	91
52357	7	Sololá	701	Sololá	1	Sololá	10	Octubre	2023-11-10T00:00:00	2024-11-08T11:00:00	6	Velocidad del viento	0
52358	7	Sololá	701	Sololá	1	Sololá	10	Octubre	2023-11-10T00:00:00	2024-11-08T11:00:00	7	Dirección del viento	0
52359	7	Sololá	701	Sololá	1	Sololá	10	Octubre	2023-11-10T00:00:00	2024-11-08T11:00:00	1	Precipitación	0
52360	7	Sololá	701	Sololá	1	Sololá	10	Octubre	2023-11-10T00:00:00	2024-11-08T11:00:00	8	Radiación solar	221
52361	7	Sololá	701	Sololá	1	Sololá	10	Octubre	2023-11-10T00:00:00	2024-11-08T12:00:00	2	Temperatura media	18.2
52362	7	Sololá	701	Sololá	1	Sololá	10	Octubre	2023-11-10T00:00:00	2024-11-08T12:00:00	4	Temperatura máxima	18.5
52363	7	Sololá	701	Sololá	1	Sololá	10	Octubre	2023-11-10T00:00:00	2024-11-08T12:00:00	3	Temperatura mínima	18.1
52364	7	Sololá	701	Sololá	1	Sololá	10	Octubre	2023-11-10T00:00:00	2024-11-08T12:00:00	5	Humedad	93
52365	7	Sololá	701	Sololá	1	Sololá	10	Octubre	2023-11-10T00:00:00	2024-11-08T12:00:00	6	Velocidad del viento	0
52366	7	Sololá	701	Sololá	1	Sololá	10	Octubre	2023-11-10T00:00:00	2024-11-08T12:00:00	7	Dirección del viento	0
52367	7	Sololá	701	Sololá	1	Sololá	10	Octubre	2023-11-10T00:00:00	2024-11-08T12:00:00	1	Precipitación	0
52368	7	Sololá	701	Sololá	1	Sololá	10	Octubre	2023-11-10T00:00:00	2024-11-08T12:00:00	8	Radiación solar	156
52369	7	Sololá	701	Sololá	1	Sololá	10	Octubre	2023-11-10T00:00:00	2024-11-08T13:00:00	2	Temperatura media	18.3
52370	7	Sololá	701	Sololá	1	Sololá	10	Octubre	2023-11-10T00:00:00	2024-11-08T13:00:00	4	Temperatura máxima	18.6
52371	7	Sololá	701	Sololá	1	Sololá	10	Octubre	2023-11-10T00:00:00	2024-11-08T13:00:00	3	Temperatura mínima	18.2
52372	7	Sololá	701	Sololá	1	Sololá	10	Octubre	2023-11-10T00:00:00	2024-11-08T13:00:00	5	Humedad	93
52373	7	Sololá	701	Sololá	1	Sololá	10	Octubre	2023-11-10T00:00:00	2024-11-08T13:00:00	6	Velocidad del viento	0
52374	7	Sololá	701	Sololá	1	Sololá	10	Octubre	2023-11-10T00:00:00	2024-11-08T13:00:00	7	Dirección del viento	0
52375	7	Sololá	701	Sololá	1	Sololá	10	Octubre	2023-11-10T00:00:00	2024-11-08T13:00:00	1	Precipitación	0
52376	7	Sololá	701	Sololá	1	Sololá	10	Octubre	2023-11-10T00:00:00	2024-11-08T13:00:00	8	Radiación solar	149
52377	7	Sololá	701	Sololá	1	Sololá	10	Octubre	2023-11-10T00:00:00	2024-11-08T14:00:00	2	Temperatura media	18.2
52378	7	Sololá	701	Sololá	1	Sololá	10	Octubre	2023-11-10T00:00:00	2024-11-08T14:00:00	4	Temperatura máxima	18.4
52379	7	Sololá	701	Sololá	1	Sololá	10	Octubre	2023-11-10T00:00:00	2024-11-08T14:00:00	3	Temperatura mínima	18.2
52380	7	Sololá	701	Sololá	1	Sololá	10	Octubre	2023-11-10T00:00:00	2024-11-08T14:00:00	5	Humedad	93
52381	7	Sololá	701	Sololá	1	Sololá	10	Octubre	2023-11-10T00:00:00	2024-11-08T14:00:00	6	Velocidad del viento	0
52382	7	Sololá	701	Sololá	1	Sololá	10	Octubre	2023-11-10T00:00:00	2024-11-08T14:00:00	7	Dirección del viento	0
52383	7	Sololá	701	Sololá	1	Sololá	10	Octubre	2023-11-10T00:00:00	2024-11-08T14:00:00	1	Precipitación	0
52384	7	Sololá	701	Sololá	1	Sololá	10	Octubre	2023-11-10T00:00:00	2024-11-08T14:00:00	8	Radiación solar	134
52385	7	Sololá	701	Sololá	1	Sololá	10	Octubre	2023-11-10T00:00:00	2024-11-08T15:00:00	2	Temperatura media	17.7
52386	7	Sololá	701	Sololá	1	Sololá	10	Octubre	2023-11-10T00:00:00	2024-11-08T15:00:00	4	Temperatura máxima	18.2
52387	7	Sololá	701	Sololá	1	Sololá	10	Octubre	2023-11-10T00:00:00	2024-11-08T15:00:00	3	Temperatura mínima	17.4
52388	7	Sololá	701	Sololá	1	Sololá	10	Octubre	2023-11-10T00:00:00	2024-11-08T15:00:00	5	Humedad	95
52389	7	Sololá	701	Sololá	1	Sololá	10	Octubre	2023-11-10T00:00:00	2024-11-08T15:00:00	6	Velocidad del viento	0
52390	7	Sololá	701	Sololá	1	Sololá	10	Octubre	2023-11-10T00:00:00	2024-11-08T15:00:00	7	Dirección del viento	0
52391	7	Sololá	701	Sololá	1	Sololá	10	Octubre	2023-11-10T00:00:00	2024-11-08T15:00:00	1	Precipitación	0
52392	7	Sololá	701	Sololá	1	Sololá	10	Octubre	2023-11-10T00:00:00	2024-11-08T15:00:00	8	Radiación solar	61
52393	7	Sololá	701	Sololá	1	Sololá	10	Octubre	2023-11-10T00:00:00	2024-11-08T16:00:00	2	Temperatura media	17
52394	7	Sololá	701	Sololá	1	Sololá	10	Octubre	2023-11-10T00:00:00	2024-11-08T16:00:00	4	Temperatura máxima	17.7
52395	7	Sololá	701	Sololá	1	Sololá	10	Octubre	2023-11-10T00:00:00	2024-11-08T16:00:00	3	Temperatura mínima	16.9
52396	7	Sololá	701	Sololá	1	Sololá	10	Octubre	2023-11-10T00:00:00	2024-11-08T16:00:00	5	Humedad	95
52397	7	Sololá	701	Sololá	1	Sololá	10	Octubre	2023-11-10T00:00:00	2024-11-08T16:00:00	6	Velocidad del viento	0
52398	7	Sololá	701	Sololá	1	Sololá	10	Octubre	2023-11-10T00:00:00	2024-11-08T16:00:00	7	Dirección del viento	0
52399	7	Sololá	701	Sololá	1	Sololá	10	Octubre	2023-11-10T00:00:00	2024-11-08T16:00:00	1	Precipitación	0
52400	7	Sololá	701	Sololá	1	Sololá	10	Octubre	2023-11-10T00:00:00	2024-11-08T16:00:00	8	Radiación solar	10
52401	7	Sololá	701	Sololá	1	Sololá	10	Octubre	2023-11-10T00:00:00	2024-11-08T17:00:00	2	Temperatura media	16.8
52402	7	Sololá	701	Sololá	1	Sololá	10	Octubre	2023-11-10T00:00:00	2024-11-08T17:00:00	4	Temperatura máxima	17
52403	7	Sololá	701	Sololá	1	Sololá	10	Octubre	2023-11-10T00:00:00	2024-11-08T17:00:00	3	Temperatura mínima	16.7
52404	7	Sololá	701	Sololá	1	Sololá	10	Octubre	2023-11-10T00:00:00	2024-11-08T17:00:00	5	Humedad	95
52405	7	Sololá	701	Sololá	1	Sololá	10	Octubre	2023-11-10T00:00:00	2024-11-08T17:00:00	6	Velocidad del viento	0
52406	7	Sololá	701	Sololá	1	Sololá	10	Octubre	2023-11-10T00:00:00	2024-11-08T17:00:00	7	Dirección del viento	0
52407	7	Sololá	701	Sololá	1	Sololá	10	Octubre	2023-11-10T00:00:00	2024-11-08T17:00:00	1	Precipitación	0
52408	7	Sololá	701	Sololá	1	Sololá	10	Octubre	2023-11-10T00:00:00	2024-11-08T17:00:00	8	Radiación solar	7
52409	7	Sololá	701	Sololá	1	Sololá	10	Octubre	2023-11-10T00:00:00	2024-11-08T18:00:00	2	Temperatura media	16.4
52410	7	Sololá	701	Sololá	1	Sololá	10	Octubre	2023-11-10T00:00:00	2024-11-08T18:00:00	4	Temperatura máxima	16.8
52411	7	Sololá	701	Sololá	1	Sololá	10	Octubre	2023-11-10T00:00:00	2024-11-08T18:00:00	3	Temperatura mínima	16.4
52412	7	Sololá	701	Sololá	1	Sololá	10	Octubre	2023-11-10T00:00:00	2024-11-08T18:00:00	5	Humedad	96
52413	7	Sololá	701	Sololá	1	Sololá	10	Octubre	2023-11-10T00:00:00	2024-11-08T18:00:00	6	Velocidad del viento	0
52414	7	Sololá	701	Sololá	1	Sololá	10	Octubre	2023-11-10T00:00:00	2024-11-08T18:00:00	7	Dirección del viento	0
52415	7	Sololá	701	Sololá	1	Sololá	10	Octubre	2023-11-10T00:00:00	2024-11-08T18:00:00	1	Precipitación	1.2
52416	7	Sololá	701	Sololá	1	Sololá	10	Octubre	2023-11-10T00:00:00	2024-11-08T18:00:00	8	Radiación solar	0
52417	7	Sololá	701	Sololá	1	Sololá	10	Octubre	2023-11-10T00:00:00	2024-11-08T19:00:00	2	Temperatura media	16.1
52418	7	Sololá	701	Sololá	1	Sololá	10	Octubre	2023-11-10T00:00:00	2024-11-08T19:00:00	4	Temperatura máxima	16.4
52419	7	Sololá	701	Sololá	1	Sololá	10	Octubre	2023-11-10T00:00:00	2024-11-08T19:00:00	3	Temperatura mínima	16
52420	7	Sololá	701	Sololá	1	Sololá	10	Octubre	2023-11-10T00:00:00	2024-11-08T19:00:00	5	Humedad	96
52421	7	Sololá	701	Sololá	1	Sololá	10	Octubre	2023-11-10T00:00:00	2024-11-08T19:00:00	6	Velocidad del viento	0
52422	7	Sololá	701	Sololá	1	Sololá	10	Octubre	2023-11-10T00:00:00	2024-11-08T19:00:00	7	Dirección del viento	0
52423	7	Sololá	701	Sololá	1	Sololá	10	Octubre	2023-11-10T00:00:00	2024-11-08T19:00:00	1	Precipitación	0.4
52424	7	Sololá	701	Sololá	1	Sololá	10	Octubre	2023-11-10T00:00:00	2024-11-08T19:00:00	8	Radiación solar	0
52425	7	Sololá	701	Sololá	1	Sololá	10	Octubre	2023-11-10T00:00:00	2024-11-08T20:00:00	2	Temperatura media	16.1
52426	7	Sololá	701	Sololá	1	Sololá	10	Octubre	2023-11-10T00:00:00	2024-11-08T20:00:00	4	Temperatura máxima	16.2
52427	7	Sololá	701	Sololá	1	Sololá	10	Octubre	2023-11-10T00:00:00	2024-11-08T20:00:00	3	Temperatura mínima	16.1
52428	7	Sololá	701	Sololá	1	Sololá	10	Octubre	2023-11-10T00:00:00	2024-11-08T20:00:00	5	Humedad	96
52429	7	Sololá	701	Sololá	1	Sololá	10	Octubre	2023-11-10T00:00:00	2024-11-08T20:00:00	6	Velocidad del viento	0
52430	7	Sololá	701	Sololá	1	Sololá	10	Octubre	2023-11-10T00:00:00	2024-11-08T20:00:00	7	Dirección del viento	0
52431	7	Sololá	701	Sololá	1	Sololá	10	Octubre	2023-11-10T00:00:00	2024-11-08T20:00:00	1	Precipitación	0.2
52432	7	Sololá	701	Sololá	1	Sololá	10	Octubre	2023-11-10T00:00:00	2024-11-08T20:00:00	8	Radiación solar	0
52433	7	Sololá	701	Sololá	1	Sololá	10	Octubre	2023-11-10T00:00:00	2024-11-08T21:00:00	2	Temperatura media	16.1
52434	7	Sololá	701	Sololá	1	Sololá	10	Octubre	2023-11-10T00:00:00	2024-11-08T21:00:00	4	Temperatura máxima	16.2
52435	7	Sololá	701	Sololá	1	Sololá	10	Octubre	2023-11-10T00:00:00	2024-11-08T21:00:00	3	Temperatura mínima	16
52436	7	Sololá	701	Sololá	1	Sololá	10	Octubre	2023-11-10T00:00:00	2024-11-08T21:00:00	5	Humedad	96
52437	7	Sololá	701	Sololá	1	Sololá	10	Octubre	2023-11-10T00:00:00	2024-11-08T21:00:00	6	Velocidad del viento	0
52438	7	Sololá	701	Sololá	1	Sololá	10	Octubre	2023-11-10T00:00:00	2024-11-08T21:00:00	7	Dirección del viento	0
52439	7	Sololá	701	Sololá	1	Sololá	10	Octubre	2023-11-10T00:00:00	2024-11-08T21:00:00	1	Precipitación	2.2
52440	7	Sololá	701	Sololá	1	Sololá	10	Octubre	2023-11-10T00:00:00	2024-11-08T21:00:00	8	Radiación solar	0
52441	7	Sololá	701	Sololá	1	Sololá	10	Octubre	2023-11-10T00:00:00	2024-11-08T22:00:00	2	Temperatura media	16.1
52442	7	Sololá	701	Sololá	1	Sololá	10	Octubre	2023-11-10T00:00:00	2024-11-08T22:00:00	4	Temperatura máxima	16.1
52443	7	Sololá	701	Sololá	1	Sololá	10	Octubre	2023-11-10T00:00:00	2024-11-08T22:00:00	3	Temperatura mínima	15.9
52444	7	Sololá	701	Sololá	1	Sololá	10	Octubre	2023-11-10T00:00:00	2024-11-08T22:00:00	5	Humedad	96
52445	7	Sololá	701	Sololá	1	Sololá	10	Octubre	2023-11-10T00:00:00	2024-11-08T22:00:00	6	Velocidad del viento	0
52446	7	Sololá	701	Sololá	1	Sololá	10	Octubre	2023-11-10T00:00:00	2024-11-08T22:00:00	7	Dirección del viento	0
52447	7	Sololá	701	Sololá	1	Sololá	10	Octubre	2023-11-10T00:00:00	2024-11-08T22:00:00	1	Precipitación	0
52448	7	Sololá	701	Sololá	1	Sololá	10	Octubre	2023-11-10T00:00:00	2024-11-08T22:00:00	8	Radiación solar	0
52449	7	Sololá	701	Sololá	1	Sololá	10	Octubre	2023-11-10T00:00:00	2024-11-08T23:00:00	2	Temperatura media	15.9
52450	7	Sololá	701	Sololá	1	Sololá	10	Octubre	2023-11-10T00:00:00	2024-11-08T23:00:00	4	Temperatura máxima	16.1
52451	7	Sololá	701	Sololá	1	Sololá	10	Octubre	2023-11-10T00:00:00	2024-11-08T23:00:00	3	Temperatura mínima	15.9
52452	7	Sololá	701	Sololá	1	Sololá	10	Octubre	2023-11-10T00:00:00	2024-11-08T23:00:00	5	Humedad	96
52453	7	Sololá	701	Sololá	1	Sololá	10	Octubre	2023-11-10T00:00:00	2024-11-08T23:00:00	6	Velocidad del viento	0
52454	7	Sololá	701	Sololá	1	Sololá	10	Octubre	2023-11-10T00:00:00	2024-11-08T23:00:00	7	Dirección del viento	0
52455	7	Sololá	701	Sololá	1	Sololá	10	Octubre	2023-11-10T00:00:00	2024-11-08T23:00:00	1	Precipitación	0
52456	7	Sololá	701	Sololá	1	Sololá	10	Octubre	2023-11-10T00:00:00	2024-11-08T23:00:00	8	Radiación solar	0
52457	7	Sololá	701	Sololá	1	Sololá	10	Octubre	2023-12-10T00:00:00	2024-11-08T00:00:00	2	Temperatura media	15.8
52458	7	Sololá	701	Sololá	1	Sololá	10	Octubre	2023-12-10T00:00:00	2024-11-08T00:00:00	4	Temperatura máxima	15.9
52459	7	Sololá	701	Sololá	1	Sololá	10	Octubre	2023-12-10T00:00:00	2024-11-08T00:00:00	3	Temperatura mínima	15.7
52460	7	Sololá	701	Sololá	1	Sololá	10	Octubre	2023-12-10T00:00:00	2024-11-08T00:00:00	5	Humedad	96
52461	7	Sololá	701	Sololá	1	Sololá	10	Octubre	2023-12-10T00:00:00	2024-11-08T00:00:00	6	Velocidad del viento	0
52462	7	Sololá	701	Sololá	1	Sololá	10	Octubre	2023-12-10T00:00:00	2024-11-08T00:00:00	7	Dirección del viento	0
52463	7	Sololá	701	Sololá	1	Sololá	10	Octubre	2023-12-10T00:00:00	2024-11-08T00:00:00	1	Precipitación	0.2
52464	7	Sololá	701	Sololá	1	Sololá	10	Octubre	2023-12-10T00:00:00	2024-11-08T00:00:00	8	Radiación solar	0
52465	7	Sololá	701	Sololá	1	Sololá	10	Octubre	2023-12-10T00:00:00	2024-11-08T01:00:00	2	Temperatura media	15.8
52466	7	Sololá	701	Sololá	1	Sololá	10	Octubre	2023-12-10T00:00:00	2024-11-08T01:00:00	4	Temperatura máxima	15.9
52467	7	Sololá	701	Sololá	1	Sololá	10	Octubre	2023-12-10T00:00:00	2024-11-08T01:00:00	3	Temperatura mínima	15.8
52468	7	Sololá	701	Sololá	1	Sololá	10	Octubre	2023-12-10T00:00:00	2024-11-08T01:00:00	5	Humedad	96
52469	7	Sololá	701	Sololá	1	Sololá	10	Octubre	2023-12-10T00:00:00	2024-11-08T01:00:00	6	Velocidad del viento	0
52470	7	Sololá	701	Sololá	1	Sololá	10	Octubre	2023-12-10T00:00:00	2024-11-08T01:00:00	7	Dirección del viento	0
52471	7	Sololá	701	Sololá	1	Sololá	10	Octubre	2023-12-10T00:00:00	2024-11-08T01:00:00	1	Precipitación	1.2
52472	7	Sololá	701	Sololá	1	Sololá	10	Octubre	2023-12-10T00:00:00	2024-11-08T01:00:00	8	Radiación solar	0
52473	7	Sololá	701	Sololá	1	Sololá	10	Octubre	2023-12-10T00:00:00	2024-11-08T02:00:00	2	Temperatura media	15.6
52474	7	Sololá	701	Sololá	1	Sololá	10	Octubre	2023-12-10T00:00:00	2024-11-08T02:00:00	4	Temperatura máxima	15.8
52475	7	Sololá	701	Sololá	1	Sololá	10	Octubre	2023-12-10T00:00:00	2024-11-08T02:00:00	3	Temperatura mínima	15.6
52476	7	Sololá	701	Sololá	1	Sololá	10	Octubre	2023-12-10T00:00:00	2024-11-08T02:00:00	5	Humedad	97
52477	7	Sololá	701	Sololá	1	Sololá	10	Octubre	2023-12-10T00:00:00	2024-11-08T02:00:00	6	Velocidad del viento	0
52478	7	Sololá	701	Sololá	1	Sololá	10	Octubre	2023-12-10T00:00:00	2024-11-08T02:00:00	7	Dirección del viento	0
52479	7	Sololá	701	Sololá	1	Sololá	10	Octubre	2023-12-10T00:00:00	2024-11-08T02:00:00	1	Precipitación	0
52480	7	Sololá	701	Sololá	1	Sololá	10	Octubre	2023-12-10T00:00:00	2024-11-08T02:00:00	8	Radiación solar	0
52481	7	Sololá	701	Sololá	1	Sololá	10	Octubre	2023-12-10T00:00:00	2024-11-08T03:00:00	2	Temperatura media	15.6
52482	7	Sololá	701	Sololá	1	Sololá	10	Octubre	2023-12-10T00:00:00	2024-11-08T03:00:00	4	Temperatura máxima	15.6
52483	7	Sololá	701	Sololá	1	Sololá	10	Octubre	2023-12-10T00:00:00	2024-11-08T03:00:00	3	Temperatura mínima	15.5
52484	7	Sololá	701	Sololá	1	Sololá	10	Octubre	2023-12-10T00:00:00	2024-11-08T03:00:00	5	Humedad	97
52485	7	Sololá	701	Sololá	1	Sololá	10	Octubre	2023-12-10T00:00:00	2024-11-08T03:00:00	6	Velocidad del viento	0
52486	7	Sololá	701	Sololá	1	Sololá	10	Octubre	2023-12-10T00:00:00	2024-11-08T03:00:00	7	Dirección del viento	0
52487	7	Sololá	701	Sololá	1	Sololá	10	Octubre	2023-12-10T00:00:00	2024-11-08T03:00:00	1	Precipitación	0.4
52488	7	Sololá	701	Sololá	1	Sololá	10	Octubre	2023-12-10T00:00:00	2024-11-08T03:00:00	8	Radiación solar	0
52489	7	Sololá	701	Sololá	1	Sololá	10	Octubre	2023-12-10T00:00:00	2024-11-08T04:00:00	2	Temperatura media	15.7
52490	7	Sololá	701	Sololá	1	Sololá	10	Octubre	2023-12-10T00:00:00	2024-11-08T04:00:00	4	Temperatura máxima	15.7
52491	7	Sololá	701	Sololá	1	Sololá	10	Octubre	2023-12-10T00:00:00	2024-11-08T04:00:00	3	Temperatura mínima	15.6
52492	7	Sololá	701	Sololá	1	Sololá	10	Octubre	2023-12-10T00:00:00	2024-11-08T04:00:00	5	Humedad	97
52493	7	Sololá	701	Sololá	1	Sololá	10	Octubre	2023-12-10T00:00:00	2024-11-08T04:00:00	6	Velocidad del viento	0
52494	7	Sololá	701	Sololá	1	Sololá	10	Octubre	2023-12-10T00:00:00	2024-11-08T04:00:00	7	Dirección del viento	0
52495	7	Sololá	701	Sololá	1	Sololá	10	Octubre	2023-12-10T00:00:00	2024-11-08T04:00:00	1	Precipitación	0
52496	7	Sololá	701	Sololá	1	Sololá	10	Octubre	2023-12-10T00:00:00	2024-11-08T04:00:00	8	Radiación solar	0
52497	7	Sololá	701	Sololá	1	Sololá	10	Octubre	2023-12-10T00:00:00	2024-11-08T05:00:00	2	Temperatura media	15.5
52498	7	Sololá	701	Sololá	1	Sololá	10	Octubre	2023-12-10T00:00:00	2024-11-08T05:00:00	4	Temperatura máxima	15.7
52499	7	Sololá	701	Sololá	1	Sololá	10	Octubre	2023-12-10T00:00:00	2024-11-08T05:00:00	3	Temperatura mínima	15.5
52500	7	Sololá	701	Sololá	1	Sololá	10	Octubre	2023-12-10T00:00:00	2024-11-08T05:00:00	5	Humedad	97
52501	7	Sololá	701	Sololá	1	Sololá	10	Octubre	2023-12-10T00:00:00	2024-11-08T05:00:00	6	Velocidad del viento	0
52502	7	Sololá	701	Sololá	1	Sololá	10	Octubre	2023-12-10T00:00:00	2024-11-08T05:00:00	7	Dirección del viento	0
52503	7	Sololá	701	Sololá	1	Sololá	10	Octubre	2023-12-10T00:00:00	2024-11-08T05:00:00	1	Precipitación	0
52504	7	Sololá	701	Sololá	1	Sololá	10	Octubre	2023-12-10T00:00:00	2024-11-08T05:00:00	8	Radiación solar	0
52505	7	Sololá	701	Sololá	1	Sololá	10	Octubre	2023-12-10T00:00:00	2024-11-08T06:00:00	2	Temperatura media	14.7
52506	7	Sololá	701	Sololá	1	Sololá	10	Octubre	2023-12-10T00:00:00	2024-11-08T06:00:00	4	Temperatura máxima	15.5
52507	7	Sololá	701	Sololá	1	Sololá	10	Octubre	2023-12-10T00:00:00	2024-11-08T06:00:00	3	Temperatura mínima	14.6
52508	7	Sololá	701	Sololá	1	Sololá	10	Octubre	2023-12-10T00:00:00	2024-11-08T06:00:00	5	Humedad	96
52509	7	Sololá	701	Sololá	1	Sololá	10	Octubre	2023-12-10T00:00:00	2024-11-08T06:00:00	6	Velocidad del viento	0
52510	7	Sololá	701	Sololá	1	Sololá	10	Octubre	2023-12-10T00:00:00	2024-11-08T06:00:00	7	Dirección del viento	0
52511	7	Sololá	701	Sololá	1	Sololá	10	Octubre	2023-12-10T00:00:00	2024-11-08T06:00:00	1	Precipitación	0
52512	7	Sololá	701	Sololá	1	Sololá	10	Octubre	2023-12-10T00:00:00	2024-11-08T06:00:00	8	Radiación solar	0
52513	7	Sololá	701	Sololá	1	Sololá	10	Octubre	2023-12-10T00:00:00	2024-11-08T07:00:00	2	Temperatura media	13.8
52514	7	Sololá	701	Sololá	1	Sololá	10	Octubre	2023-12-10T00:00:00	2024-11-08T07:00:00	4	Temperatura máxima	14.7
52515	7	Sololá	701	Sololá	1	Sololá	10	Octubre	2023-12-10T00:00:00	2024-11-08T07:00:00	3	Temperatura mínima	13.8
52516	7	Sololá	701	Sololá	1	Sololá	10	Octubre	2023-12-10T00:00:00	2024-11-08T07:00:00	5	Humedad	96
52517	7	Sololá	701	Sololá	1	Sololá	10	Octubre	2023-12-10T00:00:00	2024-11-08T07:00:00	6	Velocidad del viento	0
52518	7	Sololá	701	Sololá	1	Sololá	10	Octubre	2023-12-10T00:00:00	2024-11-08T07:00:00	7	Dirección del viento	0
52519	7	Sololá	701	Sololá	1	Sololá	10	Octubre	2023-12-10T00:00:00	2024-11-08T07:00:00	1	Precipitación	0
52520	7	Sololá	701	Sololá	1	Sololá	10	Octubre	2023-12-10T00:00:00	2024-11-08T07:00:00	8	Radiación solar	18
52521	7	Sololá	701	Sololá	1	Sololá	10	Octubre	2023-12-10T00:00:00	2024-11-08T08:00:00	2	Temperatura media	15.5
52522	7	Sololá	701	Sololá	1	Sololá	10	Octubre	2023-12-10T00:00:00	2024-11-08T08:00:00	4	Temperatura máxima	15.5
52523	7	Sololá	701	Sololá	1	Sololá	10	Octubre	2023-12-10T00:00:00	2024-11-08T08:00:00	3	Temperatura mínima	13.9
52524	7	Sololá	701	Sololá	1	Sololá	10	Octubre	2023-12-10T00:00:00	2024-11-08T08:00:00	5	Humedad	98
52525	7	Sololá	701	Sololá	1	Sololá	10	Octubre	2023-12-10T00:00:00	2024-11-08T08:00:00	6	Velocidad del viento	0
52526	7	Sololá	701	Sololá	1	Sololá	10	Octubre	2023-12-10T00:00:00	2024-11-08T08:00:00	7	Dirección del viento	0
52527	7	Sololá	701	Sololá	1	Sololá	10	Octubre	2023-12-10T00:00:00	2024-11-08T08:00:00	1	Precipitación	0
52528	7	Sololá	701	Sololá	1	Sololá	10	Octubre	2023-12-10T00:00:00	2024-11-08T08:00:00	8	Radiación solar	48
52529	7	Sololá	701	Sololá	1	Sololá	10	Octubre	2023-12-10T00:00:00	2024-11-08T09:00:00	2	Temperatura media	16.8
52530	7	Sololá	701	Sololá	1	Sololá	10	Octubre	2023-12-10T00:00:00	2024-11-08T09:00:00	4	Temperatura máxima	17.1
52531	7	Sololá	701	Sololá	1	Sololá	10	Octubre	2023-12-10T00:00:00	2024-11-08T09:00:00	3	Temperatura mínima	15.4
52532	7	Sololá	701	Sololá	1	Sololá	10	Octubre	2023-12-10T00:00:00	2024-11-08T09:00:00	5	Humedad	96
52533	7	Sololá	701	Sololá	1	Sololá	10	Octubre	2023-12-10T00:00:00	2024-11-08T09:00:00	6	Velocidad del viento	0
52534	7	Sololá	701	Sololá	1	Sololá	10	Octubre	2023-12-10T00:00:00	2024-11-08T09:00:00	7	Dirección del viento	0
52535	7	Sololá	701	Sololá	1	Sololá	10	Octubre	2023-12-10T00:00:00	2024-11-08T09:00:00	1	Precipitación	0.2
52536	7	Sololá	701	Sololá	1	Sololá	10	Octubre	2023-12-10T00:00:00	2024-11-08T09:00:00	8	Radiación solar	282
52537	7	Sololá	701	Sololá	1	Sololá	10	Octubre	2023-12-10T00:00:00	2024-11-08T10:00:00	2	Temperatura media	16.9
52538	7	Sololá	701	Sololá	1	Sololá	10	Octubre	2023-12-10T00:00:00	2024-11-08T10:00:00	4	Temperatura máxima	16.9
52539	7	Sololá	701	Sololá	1	Sololá	10	Octubre	2023-12-10T00:00:00	2024-11-08T10:00:00	3	Temperatura mínima	16.3
52540	7	Sololá	701	Sololá	1	Sololá	10	Octubre	2023-12-10T00:00:00	2024-11-08T10:00:00	5	Humedad	96
52541	7	Sololá	701	Sololá	1	Sololá	10	Octubre	2023-12-10T00:00:00	2024-11-08T10:00:00	6	Velocidad del viento	0
52542	7	Sololá	701	Sololá	1	Sololá	10	Octubre	2023-12-10T00:00:00	2024-11-08T10:00:00	7	Dirección del viento	0
52543	7	Sololá	701	Sololá	1	Sololá	10	Octubre	2023-12-10T00:00:00	2024-11-08T10:00:00	1	Precipitación	0
52544	7	Sololá	701	Sololá	1	Sololá	10	Octubre	2023-12-10T00:00:00	2024-11-08T10:00:00	8	Radiación solar	225
52545	7	Sololá	701	Sololá	1	Sololá	10	Octubre	2023-12-10T00:00:00	2024-11-08T11:00:00	2	Temperatura media	20.7
52546	7	Sololá	701	Sololá	1	Sololá	10	Octubre	2023-12-10T00:00:00	2024-11-08T11:00:00	4	Temperatura máxima	20.7
52547	7	Sololá	701	Sololá	1	Sololá	10	Octubre	2023-12-10T00:00:00	2024-11-08T11:00:00	3	Temperatura mínima	16.9
52548	7	Sololá	701	Sololá	1	Sololá	10	Octubre	2023-12-10T00:00:00	2024-11-08T11:00:00	5	Humedad	88
52549	7	Sololá	701	Sololá	1	Sololá	10	Octubre	2023-12-10T00:00:00	2024-11-08T11:00:00	6	Velocidad del viento	0
52550	7	Sololá	701	Sololá	1	Sololá	10	Octubre	2023-12-10T00:00:00	2024-11-08T11:00:00	7	Dirección del viento	0
52551	7	Sololá	701	Sololá	1	Sololá	10	Octubre	2023-12-10T00:00:00	2024-11-08T11:00:00	1	Precipitación	0
52552	7	Sololá	701	Sololá	1	Sololá	10	Octubre	2023-12-10T00:00:00	2024-11-08T11:00:00	8	Radiación solar	646
52553	7	Sololá	701	Sololá	1	Sololá	10	Octubre	2023-12-10T00:00:00	2024-11-08T12:00:00	2	Temperatura media	21.6
52554	7	Sololá	701	Sololá	1	Sololá	10	Octubre	2023-12-10T00:00:00	2024-11-08T12:00:00	4	Temperatura máxima	21.6
52555	7	Sololá	701	Sololá	1	Sololá	10	Octubre	2023-12-10T00:00:00	2024-11-08T12:00:00	3	Temperatura mínima	20.7
52556	7	Sololá	701	Sololá	1	Sololá	10	Octubre	2023-12-10T00:00:00	2024-11-08T12:00:00	5	Humedad	87
52557	7	Sololá	701	Sololá	1	Sololá	10	Octubre	2023-12-10T00:00:00	2024-11-08T12:00:00	6	Velocidad del viento	0
52558	7	Sololá	701	Sololá	1	Sololá	10	Octubre	2023-12-10T00:00:00	2024-11-08T12:00:00	7	Dirección del viento	0
52559	7	Sololá	701	Sololá	1	Sololá	10	Octubre	2023-12-10T00:00:00	2024-11-08T12:00:00	1	Precipitación	0
52560	7	Sololá	701	Sololá	1	Sololá	10	Octubre	2023-12-10T00:00:00	2024-11-08T12:00:00	8	Radiación solar	551
52561	7	Sololá	701	Sololá	1	Sololá	10	Octubre	2023-12-10T00:00:00	2024-11-08T13:00:00	2	Temperatura media	21.8
52562	7	Sololá	701	Sololá	1	Sololá	10	Octubre	2023-12-10T00:00:00	2024-11-08T13:00:00	4	Temperatura máxima	21.8
52563	7	Sololá	701	Sololá	1	Sololá	10	Octubre	2023-12-10T00:00:00	2024-11-08T13:00:00	3	Temperatura mínima	21.3
52564	7	Sololá	701	Sololá	1	Sololá	10	Octubre	2023-12-10T00:00:00	2024-11-08T13:00:00	5	Humedad	85
52565	7	Sololá	701	Sololá	1	Sololá	10	Octubre	2023-12-10T00:00:00	2024-11-08T13:00:00	6	Velocidad del viento	0
52566	7	Sololá	701	Sololá	1	Sololá	10	Octubre	2023-12-10T00:00:00	2024-11-08T13:00:00	7	Dirección del viento	0
52567	7	Sololá	701	Sololá	1	Sololá	10	Octubre	2023-12-10T00:00:00	2024-11-08T13:00:00	1	Precipitación	0
52568	7	Sololá	701	Sololá	1	Sololá	10	Octubre	2023-12-10T00:00:00	2024-11-08T13:00:00	8	Radiación solar	352
52569	7	Sololá	701	Sololá	1	Sololá	10	Octubre	2023-12-10T00:00:00	2024-11-08T14:00:00	2	Temperatura media	21.1
52570	7	Sololá	701	Sololá	1	Sololá	10	Octubre	2023-12-10T00:00:00	2024-11-08T14:00:00	4	Temperatura máxima	22.3
52571	7	Sololá	701	Sololá	1	Sololá	10	Octubre	2023-12-10T00:00:00	2024-11-08T14:00:00	3	Temperatura mínima	21
52572	7	Sololá	701	Sololá	1	Sololá	10	Octubre	2023-12-10T00:00:00	2024-11-08T14:00:00	5	Humedad	86
52573	7	Sololá	701	Sololá	1	Sololá	10	Octubre	2023-12-10T00:00:00	2024-11-08T14:00:00	6	Velocidad del viento	0
52574	7	Sololá	701	Sololá	1	Sololá	10	Octubre	2023-12-10T00:00:00	2024-11-08T14:00:00	7	Dirección del viento	0
52575	7	Sololá	701	Sololá	1	Sololá	10	Octubre	2023-12-10T00:00:00	2024-11-08T14:00:00	1	Precipitación	0
52576	7	Sololá	701	Sololá	1	Sololá	10	Octubre	2023-12-10T00:00:00	2024-11-08T14:00:00	8	Radiación solar	245
52577	7	Sololá	701	Sololá	1	Sololá	10	Octubre	2023-12-10T00:00:00	2024-11-08T15:00:00	2	Temperatura media	18.2
52578	7	Sololá	701	Sololá	1	Sololá	10	Octubre	2023-12-10T00:00:00	2024-11-08T15:00:00	4	Temperatura máxima	21
52579	7	Sololá	701	Sololá	1	Sololá	10	Octubre	2023-12-10T00:00:00	2024-11-08T15:00:00	3	Temperatura mínima	18.2
52580	7	Sololá	701	Sololá	1	Sololá	10	Octubre	2023-12-10T00:00:00	2024-11-08T15:00:00	5	Humedad	94
52581	7	Sololá	701	Sololá	1	Sololá	10	Octubre	2023-12-10T00:00:00	2024-11-08T15:00:00	6	Velocidad del viento	0
52582	7	Sololá	701	Sololá	1	Sololá	10	Octubre	2023-12-10T00:00:00	2024-11-08T15:00:00	7	Dirección del viento	0
52583	7	Sololá	701	Sololá	1	Sololá	10	Octubre	2023-12-10T00:00:00	2024-11-08T15:00:00	1	Precipitación	0
52584	7	Sololá	701	Sololá	1	Sololá	10	Octubre	2023-12-10T00:00:00	2024-11-08T15:00:00	8	Radiación solar	49
52585	7	Sololá	701	Sololá	1	Sololá	10	Octubre	2023-12-10T00:00:00	2024-11-08T16:00:00	2	Temperatura media	17.2
52586	7	Sololá	701	Sololá	1	Sololá	10	Octubre	2023-12-10T00:00:00	2024-11-08T16:00:00	4	Temperatura máxima	18.2
52587	7	Sololá	701	Sololá	1	Sololá	10	Octubre	2023-12-10T00:00:00	2024-11-08T16:00:00	3	Temperatura mínima	17.1
52588	7	Sololá	701	Sololá	1	Sololá	10	Octubre	2023-12-10T00:00:00	2024-11-08T16:00:00	5	Humedad	95
52589	7	Sololá	701	Sololá	1	Sololá	10	Octubre	2023-12-10T00:00:00	2024-11-08T16:00:00	6	Velocidad del viento	0
52590	7	Sololá	701	Sololá	1	Sololá	10	Octubre	2023-12-10T00:00:00	2024-11-08T16:00:00	7	Dirección del viento	0
52591	7	Sololá	701	Sololá	1	Sololá	10	Octubre	2023-12-10T00:00:00	2024-11-08T16:00:00	1	Precipitación	0
52592	7	Sololá	701	Sololá	1	Sololá	10	Octubre	2023-12-10T00:00:00	2024-11-08T16:00:00	8	Radiación solar	21
52593	7	Sololá	701	Sololá	1	Sololá	10	Octubre	2023-12-10T00:00:00	2024-11-08T17:00:00	2	Temperatura media	17.2
52594	7	Sololá	701	Sololá	1	Sololá	10	Octubre	2023-12-10T00:00:00	2024-11-08T17:00:00	4	Temperatura máxima	17.4
52595	7	Sololá	701	Sololá	1	Sololá	10	Octubre	2023-12-10T00:00:00	2024-11-08T17:00:00	3	Temperatura mínima	17.1
52596	7	Sololá	701	Sololá	1	Sololá	10	Octubre	2023-12-10T00:00:00	2024-11-08T17:00:00	5	Humedad	95
52597	7	Sololá	701	Sololá	1	Sololá	10	Octubre	2023-12-10T00:00:00	2024-11-08T17:00:00	6	Velocidad del viento	0
52598	7	Sololá	701	Sololá	1	Sololá	10	Octubre	2023-12-10T00:00:00	2024-11-08T17:00:00	7	Dirección del viento	0
52599	7	Sololá	701	Sololá	1	Sololá	10	Octubre	2023-12-10T00:00:00	2024-11-08T17:00:00	1	Precipitación	0
52600	7	Sololá	701	Sololá	1	Sololá	10	Octubre	2023-12-10T00:00:00	2024-11-08T17:00:00	8	Radiación solar	12
52601	7	Sololá	701	Sololá	1	Sololá	10	Octubre	2023-12-10T00:00:00	2024-11-08T18:00:00	2	Temperatura media	17.2
52602	7	Sololá	701	Sololá	1	Sololá	10	Octubre	2023-12-10T00:00:00	2024-11-08T18:00:00	4	Temperatura máxima	17.2
52603	7	Sololá	701	Sololá	1	Sololá	10	Octubre	2023-12-10T00:00:00	2024-11-08T18:00:00	3	Temperatura mínima	17.1
52604	7	Sololá	701	Sololá	1	Sololá	10	Octubre	2023-12-10T00:00:00	2024-11-08T18:00:00	5	Humedad	95
52605	7	Sololá	701	Sololá	1	Sololá	10	Octubre	2023-12-10T00:00:00	2024-11-08T18:00:00	6	Velocidad del viento	0
52606	7	Sololá	701	Sololá	1	Sololá	10	Octubre	2023-12-10T00:00:00	2024-11-08T18:00:00	7	Dirección del viento	0
52607	7	Sololá	701	Sololá	1	Sololá	10	Octubre	2023-12-10T00:00:00	2024-11-08T18:00:00	1	Precipitación	0
52608	7	Sololá	701	Sololá	1	Sololá	10	Octubre	2023-12-10T00:00:00	2024-11-08T18:00:00	8	Radiación solar	0
52609	7	Sololá	701	Sololá	1	Sololá	10	Octubre	2023-12-10T00:00:00	2024-11-08T19:00:00	2	Temperatura media	17.1
52610	7	Sololá	701	Sololá	1	Sololá	10	Octubre	2023-12-10T00:00:00	2024-11-08T19:00:00	4	Temperatura máxima	17.2
52611	7	Sololá	701	Sololá	1	Sololá	10	Octubre	2023-12-10T00:00:00	2024-11-08T19:00:00	3	Temperatura mínima	17
52612	7	Sololá	701	Sololá	1	Sololá	10	Octubre	2023-12-10T00:00:00	2024-11-08T19:00:00	5	Humedad	95
52613	7	Sololá	701	Sololá	1	Sololá	10	Octubre	2023-12-10T00:00:00	2024-11-08T19:00:00	6	Velocidad del viento	0
52614	7	Sololá	701	Sololá	1	Sololá	10	Octubre	2023-12-10T00:00:00	2024-11-08T19:00:00	7	Dirección del viento	0
52615	7	Sololá	701	Sololá	1	Sololá	10	Octubre	2023-12-10T00:00:00	2024-11-08T19:00:00	1	Precipitación	0
52616	7	Sololá	701	Sololá	1	Sololá	10	Octubre	2023-12-10T00:00:00	2024-11-08T19:00:00	8	Radiación solar	0
52617	7	Sololá	701	Sololá	1	Sololá	10	Octubre	2023-12-10T00:00:00	2024-11-08T20:00:00	2	Temperatura media	16.7
52618	7	Sololá	701	Sololá	1	Sololá	10	Octubre	2023-12-10T00:00:00	2024-11-08T20:00:00	4	Temperatura máxima	17.1
52619	7	Sololá	701	Sololá	1	Sololá	10	Octubre	2023-12-10T00:00:00	2024-11-08T20:00:00	3	Temperatura mínima	16.7
52620	7	Sololá	701	Sololá	1	Sololá	10	Octubre	2023-12-10T00:00:00	2024-11-08T20:00:00	5	Humedad	95
52621	7	Sololá	701	Sololá	1	Sololá	10	Octubre	2023-12-10T00:00:00	2024-11-08T20:00:00	6	Velocidad del viento	0
52622	7	Sololá	701	Sololá	1	Sololá	10	Octubre	2023-12-10T00:00:00	2024-11-08T20:00:00	7	Dirección del viento	0
52623	7	Sololá	701	Sololá	1	Sololá	10	Octubre	2023-12-10T00:00:00	2024-11-08T20:00:00	1	Precipitación	0
52624	7	Sololá	701	Sololá	1	Sololá	10	Octubre	2023-12-10T00:00:00	2024-11-08T20:00:00	8	Radiación solar	0
52625	7	Sololá	701	Sololá	1	Sololá	10	Octubre	2023-12-10T00:00:00	2024-11-08T21:00:00	2	Temperatura media	16.7
52626	7	Sololá	701	Sololá	1	Sololá	10	Octubre	2023-12-10T00:00:00	2024-11-08T21:00:00	4	Temperatura máxima	16.8
52627	7	Sololá	701	Sololá	1	Sololá	10	Octubre	2023-12-10T00:00:00	2024-11-08T21:00:00	3	Temperatura mínima	16.6
52628	7	Sololá	701	Sololá	1	Sololá	10	Octubre	2023-12-10T00:00:00	2024-11-08T21:00:00	5	Humedad	95
52629	7	Sololá	701	Sololá	1	Sololá	10	Octubre	2023-12-10T00:00:00	2024-11-08T21:00:00	6	Velocidad del viento	0
52630	7	Sololá	701	Sololá	1	Sololá	10	Octubre	2023-12-10T00:00:00	2024-11-08T21:00:00	7	Dirección del viento	0
52631	7	Sololá	701	Sololá	1	Sololá	10	Octubre	2023-12-10T00:00:00	2024-11-08T21:00:00	1	Precipitación	0
52632	7	Sololá	701	Sololá	1	Sololá	10	Octubre	2023-12-10T00:00:00	2024-11-08T21:00:00	8	Radiación solar	0
52633	7	Sololá	701	Sololá	1	Sololá	10	Octubre	2023-12-10T00:00:00	2024-11-08T22:00:00	2	Temperatura media	16.3
52634	7	Sololá	701	Sololá	1	Sololá	10	Octubre	2023-12-10T00:00:00	2024-11-08T22:00:00	4	Temperatura máxima	16.8
52635	7	Sololá	701	Sololá	1	Sololá	10	Octubre	2023-12-10T00:00:00	2024-11-08T22:00:00	3	Temperatura mínima	16.3
52636	7	Sololá	701	Sololá	1	Sololá	10	Octubre	2023-12-10T00:00:00	2024-11-08T22:00:00	5	Humedad	95
52637	7	Sololá	701	Sololá	1	Sololá	10	Octubre	2023-12-10T00:00:00	2024-11-08T22:00:00	6	Velocidad del viento	0
52638	7	Sololá	701	Sololá	1	Sololá	10	Octubre	2023-12-10T00:00:00	2024-11-08T22:00:00	7	Dirección del viento	0
52639	7	Sololá	701	Sololá	1	Sololá	10	Octubre	2023-12-10T00:00:00	2024-11-08T22:00:00	1	Precipitación	0
52640	7	Sololá	701	Sololá	1	Sololá	10	Octubre	2023-12-10T00:00:00	2024-11-08T22:00:00	8	Radiación solar	0
52641	7	Sololá	701	Sololá	1	Sololá	10	Octubre	2023-12-10T00:00:00	2024-11-08T23:00:00	2	Temperatura media	15.9
52642	7	Sololá	701	Sololá	1	Sololá	10	Octubre	2023-12-10T00:00:00	2024-11-08T23:00:00	4	Temperatura máxima	16.3
52643	7	Sololá	701	Sololá	1	Sololá	10	Octubre	2023-12-10T00:00:00	2024-11-08T23:00:00	3	Temperatura mínima	15.9
52644	7	Sololá	701	Sololá	1	Sololá	10	Octubre	2023-12-10T00:00:00	2024-11-08T23:00:00	5	Humedad	95
52645	7	Sololá	701	Sololá	1	Sololá	10	Octubre	2023-12-10T00:00:00	2024-11-08T23:00:00	6	Velocidad del viento	0
52646	7	Sololá	701	Sololá	1	Sololá	10	Octubre	2023-12-10T00:00:00	2024-11-08T23:00:00	7	Dirección del viento	0
52647	7	Sololá	701	Sololá	1	Sololá	10	Octubre	2023-12-10T00:00:00	2024-11-08T23:00:00	1	Precipitación	0
52648	7	Sololá	701	Sololá	1	Sololá	10	Octubre	2023-12-10T00:00:00	2024-11-08T23:00:00	8	Radiación solar	0
52649	7	Sololá	701	Sololá	1	Sololá	10	Octubre	2023-10-13T00:00:00	2024-11-08T00:00:00	2	Temperatura media	15.4
52650	7	Sololá	701	Sololá	1	Sololá	10	Octubre	2023-10-13T00:00:00	2024-11-08T00:00:00	4	Temperatura máxima	15.9
52651	7	Sololá	701	Sololá	1	Sololá	10	Octubre	2023-10-13T00:00:00	2024-11-08T00:00:00	3	Temperatura mínima	15.4
52652	7	Sololá	701	Sololá	1	Sololá	10	Octubre	2023-10-13T00:00:00	2024-11-08T00:00:00	5	Humedad	96
52653	7	Sololá	701	Sololá	1	Sololá	10	Octubre	2023-10-13T00:00:00	2024-11-08T00:00:00	6	Velocidad del viento	0
52654	7	Sololá	701	Sololá	1	Sololá	10	Octubre	2023-10-13T00:00:00	2024-11-08T00:00:00	7	Dirección del viento	0
52655	7	Sololá	701	Sololá	1	Sololá	10	Octubre	2023-10-13T00:00:00	2024-11-08T00:00:00	1	Precipitación	0
52656	7	Sololá	701	Sololá	1	Sololá	10	Octubre	2023-10-13T00:00:00	2024-11-08T00:00:00	8	Radiación solar	0
52657	7	Sololá	701	Sololá	1	Sololá	10	Octubre	2023-10-13T00:00:00	2024-11-08T01:00:00	2	Temperatura media	15.9
52658	7	Sololá	701	Sololá	1	Sololá	10	Octubre	2023-10-13T00:00:00	2024-11-08T01:00:00	4	Temperatura máxima	15.9
52659	7	Sololá	701	Sololá	1	Sololá	10	Octubre	2023-10-13T00:00:00	2024-11-08T01:00:00	3	Temperatura mínima	15.4
52660	7	Sololá	701	Sololá	1	Sololá	10	Octubre	2023-10-13T00:00:00	2024-11-08T01:00:00	5	Humedad	96
52661	7	Sololá	701	Sololá	1	Sololá	10	Octubre	2023-10-13T00:00:00	2024-11-08T01:00:00	6	Velocidad del viento	0
52662	7	Sololá	701	Sololá	1	Sololá	10	Octubre	2023-10-13T00:00:00	2024-11-08T01:00:00	7	Dirección del viento	0
52663	7	Sololá	701	Sololá	1	Sololá	10	Octubre	2023-10-13T00:00:00	2024-11-08T01:00:00	1	Precipitación	0
52664	7	Sololá	701	Sololá	1	Sololá	10	Octubre	2023-10-13T00:00:00	2024-11-08T01:00:00	8	Radiación solar	0
52665	7	Sololá	701	Sololá	1	Sololá	10	Octubre	2023-10-13T00:00:00	2024-11-08T02:00:00	2	Temperatura media	14.9
52666	7	Sololá	701	Sololá	1	Sololá	10	Octubre	2023-10-13T00:00:00	2024-11-08T02:00:00	4	Temperatura máxima	15.9
52667	7	Sololá	701	Sololá	1	Sololá	10	Octubre	2023-10-13T00:00:00	2024-11-08T02:00:00	3	Temperatura mínima	14.9
52668	7	Sololá	701	Sololá	1	Sololá	10	Octubre	2023-10-13T00:00:00	2024-11-08T02:00:00	5	Humedad	95
52669	7	Sololá	701	Sololá	1	Sololá	10	Octubre	2023-10-13T00:00:00	2024-11-08T02:00:00	6	Velocidad del viento	0
52670	7	Sololá	701	Sololá	1	Sololá	10	Octubre	2023-10-13T00:00:00	2024-11-08T02:00:00	7	Dirección del viento	0
52671	7	Sololá	701	Sololá	1	Sololá	10	Octubre	2023-10-13T00:00:00	2024-11-08T02:00:00	1	Precipitación	0
52672	7	Sololá	701	Sololá	1	Sololá	10	Octubre	2023-10-13T00:00:00	2024-11-08T02:00:00	8	Radiación solar	0
52673	7	Sololá	701	Sololá	1	Sololá	10	Octubre	2023-10-13T00:00:00	2024-11-08T03:00:00	2	Temperatura media	14.3
52674	7	Sololá	701	Sololá	1	Sololá	10	Octubre	2023-10-13T00:00:00	2024-11-08T03:00:00	4	Temperatura máxima	14.9
52675	7	Sololá	701	Sololá	1	Sololá	10	Octubre	2023-10-13T00:00:00	2024-11-08T03:00:00	3	Temperatura mínima	14.3
52676	7	Sololá	701	Sololá	1	Sololá	10	Octubre	2023-10-13T00:00:00	2024-11-08T03:00:00	5	Humedad	95
52677	7	Sololá	701	Sololá	1	Sololá	10	Octubre	2023-10-13T00:00:00	2024-11-08T03:00:00	6	Velocidad del viento	0
52678	7	Sololá	701	Sololá	1	Sololá	10	Octubre	2023-10-13T00:00:00	2024-11-08T03:00:00	7	Dirección del viento	0
52679	7	Sololá	701	Sololá	1	Sololá	10	Octubre	2023-10-13T00:00:00	2024-11-08T03:00:00	1	Precipitación	0
52680	7	Sololá	701	Sololá	1	Sololá	10	Octubre	2023-10-13T00:00:00	2024-11-08T03:00:00	8	Radiación solar	0
52681	7	Sololá	701	Sololá	1	Sololá	10	Octubre	2023-10-13T00:00:00	2024-11-08T04:00:00	2	Temperatura media	13.9
52682	7	Sololá	701	Sololá	1	Sololá	10	Octubre	2023-10-13T00:00:00	2024-11-08T04:00:00	4	Temperatura máxima	14.4
52683	7	Sololá	701	Sololá	1	Sololá	10	Octubre	2023-10-13T00:00:00	2024-11-08T04:00:00	3	Temperatura mínima	13.8
52684	7	Sololá	701	Sololá	1	Sololá	10	Octubre	2023-10-13T00:00:00	2024-11-08T04:00:00	5	Humedad	95
52685	7	Sololá	701	Sololá	1	Sololá	10	Octubre	2023-10-13T00:00:00	2024-11-08T04:00:00	6	Velocidad del viento	0
52686	7	Sololá	701	Sololá	1	Sololá	10	Octubre	2023-10-13T00:00:00	2024-11-08T04:00:00	7	Dirección del viento	0
52687	7	Sololá	701	Sololá	1	Sololá	10	Octubre	2023-10-13T00:00:00	2024-11-08T04:00:00	1	Precipitación	0
52688	7	Sololá	701	Sololá	1	Sololá	10	Octubre	2023-10-13T00:00:00	2024-11-08T04:00:00	8	Radiación solar	0
52689	7	Sololá	701	Sololá	1	Sololá	10	Octubre	2023-10-13T00:00:00	2024-11-08T05:00:00	2	Temperatura media	13.8
52690	7	Sololá	701	Sololá	1	Sololá	10	Octubre	2023-10-13T00:00:00	2024-11-08T05:00:00	4	Temperatura máxima	13.9
52691	7	Sololá	701	Sololá	1	Sololá	10	Octubre	2023-10-13T00:00:00	2024-11-08T05:00:00	3	Temperatura mínima	13.8
52692	7	Sololá	701	Sololá	1	Sololá	10	Octubre	2023-10-13T00:00:00	2024-11-08T05:00:00	5	Humedad	95
52693	7	Sololá	701	Sololá	1	Sololá	10	Octubre	2023-10-13T00:00:00	2024-11-08T05:00:00	6	Velocidad del viento	0
52694	7	Sololá	701	Sololá	1	Sololá	10	Octubre	2023-10-13T00:00:00	2024-11-08T05:00:00	7	Dirección del viento	0
52695	7	Sololá	701	Sololá	1	Sololá	10	Octubre	2023-10-13T00:00:00	2024-11-08T05:00:00	1	Precipitación	0
52696	7	Sololá	701	Sololá	1	Sololá	10	Octubre	2023-10-13T00:00:00	2024-11-08T05:00:00	8	Radiación solar	0
52697	7	Sololá	701	Sololá	1	Sololá	10	Octubre	2023-10-13T00:00:00	2024-11-08T06:00:00	2	Temperatura media	14.1
52698	7	Sololá	701	Sololá	1	Sololá	10	Octubre	2023-10-13T00:00:00	2024-11-08T06:00:00	4	Temperatura máxima	14.1
52699	7	Sololá	701	Sololá	1	Sololá	10	Octubre	2023-10-13T00:00:00	2024-11-08T06:00:00	3	Temperatura mínima	13.8
52700	7	Sololá	701	Sololá	1	Sololá	10	Octubre	2023-10-13T00:00:00	2024-11-08T06:00:00	5	Humedad	96
52701	7	Sololá	701	Sololá	1	Sololá	10	Octubre	2023-10-13T00:00:00	2024-11-08T06:00:00	6	Velocidad del viento	0
52702	7	Sololá	701	Sololá	1	Sololá	10	Octubre	2023-10-13T00:00:00	2024-11-08T06:00:00	7	Dirección del viento	0
52703	7	Sololá	701	Sololá	1	Sololá	10	Octubre	2023-10-13T00:00:00	2024-11-08T06:00:00	1	Precipitación	0
52704	7	Sololá	701	Sololá	1	Sololá	10	Octubre	2023-10-13T00:00:00	2024-11-08T06:00:00	8	Radiación solar	0
52705	7	Sololá	701	Sololá	1	Sololá	10	Octubre	2023-10-13T00:00:00	2024-11-08T07:00:00	2	Temperatura media	14.6
52706	7	Sololá	701	Sololá	1	Sololá	10	Octubre	2023-10-13T00:00:00	2024-11-08T07:00:00	4	Temperatura máxima	14.6
52707	7	Sololá	701	Sololá	1	Sololá	10	Octubre	2023-10-13T00:00:00	2024-11-08T07:00:00	3	Temperatura mínima	14
52708	7	Sololá	701	Sololá	1	Sololá	10	Octubre	2023-10-13T00:00:00	2024-11-08T07:00:00	5	Humedad	95
52709	7	Sololá	701	Sololá	1	Sololá	10	Octubre	2023-10-13T00:00:00	2024-11-08T07:00:00	6	Velocidad del viento	0
52710	7	Sololá	701	Sololá	1	Sololá	10	Octubre	2023-10-13T00:00:00	2024-11-08T07:00:00	7	Dirección del viento	0
52711	7	Sololá	701	Sololá	1	Sololá	10	Octubre	2023-10-13T00:00:00	2024-11-08T07:00:00	1	Precipitación	0
52712	7	Sololá	701	Sololá	1	Sololá	10	Octubre	2023-10-13T00:00:00	2024-11-08T07:00:00	8	Radiación solar	17
52713	7	Sololá	701	Sololá	1	Sololá	10	Octubre	2023-10-13T00:00:00	2024-11-08T08:00:00	2	Temperatura media	16.4
52714	7	Sololá	701	Sololá	1	Sololá	10	Octubre	2023-10-13T00:00:00	2024-11-08T08:00:00	4	Temperatura máxima	16.4
52715	7	Sololá	701	Sololá	1	Sololá	10	Octubre	2023-10-13T00:00:00	2024-11-08T08:00:00	3	Temperatura mínima	14.6
52716	7	Sololá	701	Sololá	1	Sololá	10	Octubre	2023-10-13T00:00:00	2024-11-08T08:00:00	5	Humedad	95
52717	7	Sololá	701	Sololá	1	Sololá	10	Octubre	2023-10-13T00:00:00	2024-11-08T08:00:00	6	Velocidad del viento	0
52718	7	Sololá	701	Sololá	1	Sololá	10	Octubre	2023-10-13T00:00:00	2024-11-08T08:00:00	7	Dirección del viento	0
52719	7	Sololá	701	Sololá	1	Sololá	10	Octubre	2023-10-13T00:00:00	2024-11-08T08:00:00	1	Precipitación	0
52720	7	Sololá	701	Sololá	1	Sololá	10	Octubre	2023-10-13T00:00:00	2024-11-08T08:00:00	8	Radiación solar	45
52721	7	Sololá	701	Sololá	1	Sololá	10	Octubre	2023-10-13T00:00:00	2024-11-08T09:00:00	2	Temperatura media	21.3
52722	7	Sololá	701	Sololá	1	Sololá	10	Octubre	2023-10-13T00:00:00	2024-11-08T09:00:00	4	Temperatura máxima	21.3
52723	7	Sololá	701	Sololá	1	Sololá	10	Octubre	2023-10-13T00:00:00	2024-11-08T09:00:00	3	Temperatura mínima	16.4
52724	7	Sololá	701	Sololá	1	Sololá	10	Octubre	2023-10-13T00:00:00	2024-11-08T09:00:00	5	Humedad	83
52725	7	Sololá	701	Sololá	1	Sololá	10	Octubre	2023-10-13T00:00:00	2024-11-08T09:00:00	6	Velocidad del viento	0
52726	7	Sololá	701	Sololá	1	Sololá	10	Octubre	2023-10-13T00:00:00	2024-11-08T09:00:00	7	Dirección del viento	0
52727	7	Sololá	701	Sololá	1	Sololá	10	Octubre	2023-10-13T00:00:00	2024-11-08T09:00:00	1	Precipitación	0
52728	7	Sololá	701	Sololá	1	Sololá	10	Octubre	2023-10-13T00:00:00	2024-11-08T09:00:00	8	Radiación solar	598
52729	7	Sololá	701	Sololá	1	Sololá	10	Octubre	2023-10-13T00:00:00	2024-11-08T10:00:00	2	Temperatura media	22.8
52730	7	Sololá	701	Sololá	1	Sololá	10	Octubre	2023-10-13T00:00:00	2024-11-08T10:00:00	4	Temperatura máxima	22.8
52731	7	Sololá	701	Sololá	1	Sololá	10	Octubre	2023-10-13T00:00:00	2024-11-08T10:00:00	3	Temperatura mínima	21.3
52732	7	Sololá	701	Sololá	1	Sololá	10	Octubre	2023-10-13T00:00:00	2024-11-08T10:00:00	5	Humedad	80
52733	7	Sololá	701	Sololá	1	Sololá	10	Octubre	2023-10-13T00:00:00	2024-11-08T10:00:00	6	Velocidad del viento	0
52734	7	Sololá	701	Sololá	1	Sololá	10	Octubre	2023-10-13T00:00:00	2024-11-08T10:00:00	7	Dirección del viento	0
52735	7	Sololá	701	Sololá	1	Sololá	10	Octubre	2023-10-13T00:00:00	2024-11-08T10:00:00	1	Precipitación	0
52736	7	Sololá	701	Sololá	1	Sololá	10	Octubre	2023-10-13T00:00:00	2024-11-08T10:00:00	8	Radiación solar	830
52737	7	Sololá	701	Sololá	1	Sololá	10	Octubre	2023-10-13T00:00:00	2024-11-08T11:00:00	2	Temperatura media	22.9
52738	7	Sololá	701	Sololá	1	Sololá	10	Octubre	2023-10-13T00:00:00	2024-11-08T11:00:00	4	Temperatura máxima	22.9
52739	7	Sololá	701	Sololá	1	Sololá	10	Octubre	2023-10-13T00:00:00	2024-11-08T11:00:00	3	Temperatura mínima	22.7
52740	7	Sololá	701	Sololá	1	Sololá	10	Octubre	2023-10-13T00:00:00	2024-11-08T11:00:00	5	Humedad	81
52741	7	Sololá	701	Sololá	1	Sololá	10	Octubre	2023-10-13T00:00:00	2024-11-08T11:00:00	6	Velocidad del viento	0
52742	7	Sololá	701	Sololá	1	Sololá	10	Octubre	2023-10-13T00:00:00	2024-11-08T11:00:00	7	Dirección del viento	0
52743	7	Sololá	701	Sololá	1	Sololá	10	Octubre	2023-10-13T00:00:00	2024-11-08T11:00:00	1	Precipitación	0
52744	7	Sololá	701	Sololá	1	Sololá	10	Octubre	2023-10-13T00:00:00	2024-11-08T11:00:00	8	Radiación solar	938
52745	7	Sololá	701	Sololá	1	Sololá	10	Octubre	2023-10-13T00:00:00	2024-11-08T12:00:00	2	Temperatura media	20.2
52746	7	Sololá	701	Sololá	1	Sololá	10	Octubre	2023-10-13T00:00:00	2024-11-08T12:00:00	4	Temperatura máxima	23
52747	7	Sololá	701	Sololá	1	Sololá	10	Octubre	2023-10-13T00:00:00	2024-11-08T12:00:00	3	Temperatura mínima	20.2
52748	7	Sololá	701	Sololá	1	Sololá	10	Octubre	2023-10-13T00:00:00	2024-11-08T12:00:00	5	Humedad	90
52749	7	Sololá	701	Sololá	1	Sololá	10	Octubre	2023-10-13T00:00:00	2024-11-08T12:00:00	6	Velocidad del viento	0
52750	7	Sololá	701	Sololá	1	Sololá	10	Octubre	2023-10-13T00:00:00	2024-11-08T12:00:00	7	Dirección del viento	0
52751	7	Sololá	701	Sololá	1	Sololá	10	Octubre	2023-10-13T00:00:00	2024-11-08T12:00:00	1	Precipitación	0
52752	7	Sololá	701	Sololá	1	Sololá	10	Octubre	2023-10-13T00:00:00	2024-11-08T12:00:00	8	Radiación solar	234
52753	7	Sololá	701	Sololá	1	Sololá	10	Octubre	2023-10-13T00:00:00	2024-11-08T13:00:00	2	Temperatura media	18.8
52754	7	Sololá	701	Sololá	1	Sololá	10	Octubre	2023-10-13T00:00:00	2024-11-08T13:00:00	4	Temperatura máxima	20.3
52755	7	Sololá	701	Sololá	1	Sololá	10	Octubre	2023-10-13T00:00:00	2024-11-08T13:00:00	3	Temperatura mínima	18.8
52756	7	Sololá	701	Sololá	1	Sololá	10	Octubre	2023-10-13T00:00:00	2024-11-08T13:00:00	5	Humedad	92
52757	7	Sololá	701	Sololá	1	Sololá	10	Octubre	2023-10-13T00:00:00	2024-11-08T13:00:00	6	Velocidad del viento	0
52758	7	Sololá	701	Sololá	1	Sololá	10	Octubre	2023-10-13T00:00:00	2024-11-08T13:00:00	7	Dirección del viento	0
52759	7	Sololá	701	Sololá	1	Sololá	10	Octubre	2023-10-13T00:00:00	2024-11-08T13:00:00	1	Precipitación	0
52760	7	Sololá	701	Sololá	1	Sololá	10	Octubre	2023-10-13T00:00:00	2024-11-08T13:00:00	8	Radiación solar	92
52761	7	Sololá	701	Sololá	1	Sololá	10	Octubre	2023-10-13T00:00:00	2024-11-08T14:00:00	2	Temperatura media	18.9
52762	7	Sololá	701	Sololá	1	Sololá	10	Octubre	2023-10-13T00:00:00	2024-11-08T14:00:00	4	Temperatura máxima	19
52763	7	Sololá	701	Sololá	1	Sololá	10	Octubre	2023-10-13T00:00:00	2024-11-08T14:00:00	3	Temperatura mínima	18.6
52764	7	Sololá	701	Sololá	1	Sololá	10	Octubre	2023-10-13T00:00:00	2024-11-08T14:00:00	5	Humedad	94
52765	7	Sololá	701	Sololá	1	Sololá	10	Octubre	2023-10-13T00:00:00	2024-11-08T14:00:00	6	Velocidad del viento	0
52766	7	Sololá	701	Sololá	1	Sololá	10	Octubre	2023-10-13T00:00:00	2024-11-08T14:00:00	7	Dirección del viento	0
52767	7	Sololá	701	Sololá	1	Sololá	10	Octubre	2023-10-13T00:00:00	2024-11-08T14:00:00	1	Precipitación	0
52768	7	Sololá	701	Sololá	1	Sololá	10	Octubre	2023-10-13T00:00:00	2024-11-08T14:00:00	8	Radiación solar	122
52769	7	Sololá	701	Sololá	1	Sololá	10	Octubre	2023-10-13T00:00:00	2024-11-08T15:00:00	2	Temperatura media	17.9
52770	7	Sololá	701	Sololá	1	Sololá	10	Octubre	2023-10-13T00:00:00	2024-11-08T15:00:00	4	Temperatura máxima	18.9
52771	7	Sololá	701	Sololá	1	Sololá	10	Octubre	2023-10-13T00:00:00	2024-11-08T15:00:00	3	Temperatura mínima	17.9
52772	7	Sololá	701	Sololá	1	Sololá	10	Octubre	2023-10-13T00:00:00	2024-11-08T15:00:00	5	Humedad	94
52773	7	Sololá	701	Sololá	1	Sololá	10	Octubre	2023-10-13T00:00:00	2024-11-08T15:00:00	6	Velocidad del viento	0
52774	7	Sololá	701	Sololá	1	Sololá	10	Octubre	2023-10-13T00:00:00	2024-11-08T15:00:00	7	Dirección del viento	0
52775	7	Sololá	701	Sololá	1	Sololá	10	Octubre	2023-10-13T00:00:00	2024-11-08T15:00:00	1	Precipitación	0
52776	7	Sololá	701	Sololá	1	Sololá	10	Octubre	2023-10-13T00:00:00	2024-11-08T15:00:00	8	Radiación solar	68
52777	7	Sololá	701	Sololá	1	Sololá	10	Octubre	2023-10-13T00:00:00	2024-11-08T16:00:00	2	Temperatura media	17.6
52778	7	Sololá	701	Sololá	1	Sololá	10	Octubre	2023-10-13T00:00:00	2024-11-08T16:00:00	4	Temperatura máxima	18
52779	7	Sololá	701	Sololá	1	Sololá	10	Octubre	2023-10-13T00:00:00	2024-11-08T16:00:00	3	Temperatura mínima	17.6
52780	7	Sololá	701	Sololá	1	Sololá	10	Octubre	2023-10-13T00:00:00	2024-11-08T16:00:00	5	Humedad	95
52781	7	Sololá	701	Sololá	1	Sololá	10	Octubre	2023-10-13T00:00:00	2024-11-08T16:00:00	6	Velocidad del viento	0
52782	7	Sololá	701	Sololá	1	Sololá	10	Octubre	2023-10-13T00:00:00	2024-11-08T16:00:00	7	Dirección del viento	0
52783	7	Sololá	701	Sololá	1	Sololá	10	Octubre	2023-10-13T00:00:00	2024-11-08T16:00:00	1	Precipitación	0
52784	7	Sololá	701	Sololá	1	Sololá	10	Octubre	2023-10-13T00:00:00	2024-11-08T16:00:00	8	Radiación solar	15
52785	7	Sololá	701	Sololá	1	Sololá	10	Octubre	2023-10-13T00:00:00	2024-11-08T17:00:00	2	Temperatura media	17.5
52786	7	Sololá	701	Sololá	1	Sololá	10	Octubre	2023-10-13T00:00:00	2024-11-08T17:00:00	4	Temperatura máxima	17.6
52787	7	Sololá	701	Sololá	1	Sololá	10	Octubre	2023-10-13T00:00:00	2024-11-08T17:00:00	3	Temperatura mínima	17.4
52788	7	Sololá	701	Sololá	1	Sololá	10	Octubre	2023-10-13T00:00:00	2024-11-08T17:00:00	5	Humedad	95
52789	7	Sololá	701	Sololá	1	Sololá	10	Octubre	2023-10-13T00:00:00	2024-11-08T17:00:00	6	Velocidad del viento	0
52790	7	Sololá	701	Sololá	1	Sololá	10	Octubre	2023-10-13T00:00:00	2024-11-08T17:00:00	7	Dirección del viento	0
52791	7	Sololá	701	Sololá	1	Sololá	10	Octubre	2023-10-13T00:00:00	2024-11-08T17:00:00	1	Precipitación	0
52792	7	Sololá	701	Sololá	1	Sololá	10	Octubre	2023-10-13T00:00:00	2024-11-08T17:00:00	8	Radiación solar	17
52793	7	Sololá	701	Sololá	1	Sololá	10	Octubre	2023-10-13T00:00:00	2024-11-08T18:00:00	2	Temperatura media	17.3
52794	7	Sololá	701	Sololá	1	Sololá	10	Octubre	2023-10-13T00:00:00	2024-11-08T18:00:00	4	Temperatura máxima	17.5
52795	7	Sololá	701	Sololá	1	Sololá	10	Octubre	2023-10-13T00:00:00	2024-11-08T18:00:00	3	Temperatura mínima	17.2
52796	7	Sololá	701	Sololá	1	Sololá	10	Octubre	2023-10-13T00:00:00	2024-11-08T18:00:00	5	Humedad	95
52797	7	Sololá	701	Sololá	1	Sololá	10	Octubre	2023-10-13T00:00:00	2024-11-08T18:00:00	6	Velocidad del viento	0
52798	7	Sololá	701	Sololá	1	Sololá	10	Octubre	2023-10-13T00:00:00	2024-11-08T18:00:00	7	Dirección del viento	0
52799	7	Sololá	701	Sololá	1	Sololá	10	Octubre	2023-10-13T00:00:00	2024-11-08T18:00:00	1	Precipitación	0
52800	7	Sololá	701	Sololá	1	Sololá	10	Octubre	2023-10-13T00:00:00	2024-11-08T18:00:00	8	Radiación solar	2
52801	7	Sololá	701	Sololá	1	Sololá	10	Octubre	2023-10-13T00:00:00	2024-11-08T19:00:00	2	Temperatura media	16.8
52802	7	Sololá	701	Sololá	1	Sololá	10	Octubre	2023-10-13T00:00:00	2024-11-08T19:00:00	4	Temperatura máxima	17.3
52803	7	Sololá	701	Sololá	1	Sololá	10	Octubre	2023-10-13T00:00:00	2024-11-08T19:00:00	3	Temperatura mínima	16.8
52804	7	Sololá	701	Sololá	1	Sololá	10	Octubre	2023-10-13T00:00:00	2024-11-08T19:00:00	5	Humedad	95
52805	7	Sololá	701	Sololá	1	Sololá	10	Octubre	2023-10-13T00:00:00	2024-11-08T19:00:00	6	Velocidad del viento	0
52806	7	Sololá	701	Sololá	1	Sololá	10	Octubre	2023-10-13T00:00:00	2024-11-08T19:00:00	7	Dirección del viento	0
52807	7	Sololá	701	Sololá	1	Sololá	10	Octubre	2023-10-13T00:00:00	2024-11-08T19:00:00	1	Precipitación	0
52808	7	Sololá	701	Sololá	1	Sololá	10	Octubre	2023-10-13T00:00:00	2024-11-08T19:00:00	8	Radiación solar	0
52809	7	Sololá	701	Sololá	1	Sololá	10	Octubre	2023-10-13T00:00:00	2024-11-08T20:00:00	2	Temperatura media	16.6
52810	7	Sololá	701	Sololá	1	Sololá	10	Octubre	2023-10-13T00:00:00	2024-11-08T20:00:00	4	Temperatura máxima	16.8
52811	7	Sololá	701	Sololá	1	Sololá	10	Octubre	2023-10-13T00:00:00	2024-11-08T20:00:00	3	Temperatura mínima	16.4
52812	7	Sololá	701	Sololá	1	Sololá	10	Octubre	2023-10-13T00:00:00	2024-11-08T20:00:00	5	Humedad	95
52813	7	Sololá	701	Sololá	1	Sololá	10	Octubre	2023-10-13T00:00:00	2024-11-08T20:00:00	6	Velocidad del viento	0
52814	7	Sololá	701	Sololá	1	Sololá	10	Octubre	2023-10-13T00:00:00	2024-11-08T20:00:00	7	Dirección del viento	0
52815	7	Sololá	701	Sololá	1	Sololá	10	Octubre	2023-10-13T00:00:00	2024-11-08T20:00:00	1	Precipitación	0
52816	7	Sololá	701	Sololá	1	Sololá	10	Octubre	2023-10-13T00:00:00	2024-11-08T20:00:00	8	Radiación solar	0
52817	7	Sololá	701	Sololá	1	Sololá	10	Octubre	2023-10-13T00:00:00	2024-11-08T21:00:00	2	Temperatura media	16.7
52818	7	Sololá	701	Sololá	1	Sololá	10	Octubre	2023-10-13T00:00:00	2024-11-08T21:00:00	4	Temperatura máxima	16.8
52819	7	Sololá	701	Sololá	1	Sololá	10	Octubre	2023-10-13T00:00:00	2024-11-08T21:00:00	3	Temperatura mínima	16.6
52820	7	Sololá	701	Sololá	1	Sololá	10	Octubre	2023-10-13T00:00:00	2024-11-08T21:00:00	5	Humedad	95
52821	7	Sololá	701	Sololá	1	Sololá	10	Octubre	2023-10-13T00:00:00	2024-11-08T21:00:00	6	Velocidad del viento	0
52822	7	Sololá	701	Sololá	1	Sololá	10	Octubre	2023-10-13T00:00:00	2024-11-08T21:00:00	7	Dirección del viento	0
52823	7	Sololá	701	Sololá	1	Sololá	10	Octubre	2023-10-13T00:00:00	2024-11-08T21:00:00	1	Precipitación	0
52824	7	Sololá	701	Sololá	1	Sololá	10	Octubre	2023-10-13T00:00:00	2024-11-08T21:00:00	8	Radiación solar	0
52825	7	Sololá	701	Sololá	1	Sololá	10	Octubre	2023-10-13T00:00:00	2024-11-08T22:00:00	2	Temperatura media	16.2
52826	7	Sololá	701	Sololá	1	Sololá	10	Octubre	2023-10-13T00:00:00	2024-11-08T22:00:00	4	Temperatura máxima	16.7
52827	7	Sololá	701	Sololá	1	Sololá	10	Octubre	2023-10-13T00:00:00	2024-11-08T22:00:00	3	Temperatura mínima	16.2
52828	7	Sololá	701	Sololá	1	Sololá	10	Octubre	2023-10-13T00:00:00	2024-11-08T22:00:00	5	Humedad	95
52829	7	Sololá	701	Sololá	1	Sololá	10	Octubre	2023-10-13T00:00:00	2024-11-08T22:00:00	6	Velocidad del viento	0
52830	7	Sololá	701	Sololá	1	Sololá	10	Octubre	2023-10-13T00:00:00	2024-11-08T22:00:00	7	Dirección del viento	0
52831	7	Sololá	701	Sololá	1	Sololá	10	Octubre	2023-10-13T00:00:00	2024-11-08T22:00:00	1	Precipitación	0
52832	7	Sololá	701	Sololá	1	Sololá	10	Octubre	2023-10-13T00:00:00	2024-11-08T22:00:00	8	Radiación solar	0
52833	7	Sololá	701	Sololá	1	Sololá	10	Octubre	2023-10-13T00:00:00	2024-11-08T23:00:00	2	Temperatura media	15.3
52834	7	Sololá	701	Sololá	1	Sololá	10	Octubre	2023-10-13T00:00:00	2024-11-08T23:00:00	4	Temperatura máxima	16.2
52835	7	Sololá	701	Sololá	1	Sololá	10	Octubre	2023-10-13T00:00:00	2024-11-08T23:00:00	3	Temperatura mínima	15.3
52836	7	Sololá	701	Sololá	1	Sololá	10	Octubre	2023-10-13T00:00:00	2024-11-08T23:00:00	5	Humedad	95
52837	7	Sololá	701	Sololá	1	Sololá	10	Octubre	2023-10-13T00:00:00	2024-11-08T23:00:00	6	Velocidad del viento	0
52838	7	Sololá	701	Sololá	1	Sololá	10	Octubre	2023-10-13T00:00:00	2024-11-08T23:00:00	7	Dirección del viento	0
52839	7	Sololá	701	Sololá	1	Sololá	10	Octubre	2023-10-13T00:00:00	2024-11-08T23:00:00	1	Precipitación	0
52840	7	Sololá	701	Sololá	1	Sololá	10	Octubre	2023-10-13T00:00:00	2024-11-08T23:00:00	8	Radiación solar	0
52841	7	Sololá	701	Sololá	1	Sololá	10	Octubre	2023-10-14T00:00:00	2024-11-08T00:00:00	2	Temperatura media	14.7
52842	7	Sololá	701	Sololá	1	Sololá	10	Octubre	2023-10-14T00:00:00	2024-11-08T00:00:00	4	Temperatura máxima	15.3
52843	7	Sololá	701	Sololá	1	Sololá	10	Octubre	2023-10-14T00:00:00	2024-11-08T00:00:00	3	Temperatura mínima	14.6
52844	7	Sololá	701	Sololá	1	Sololá	10	Octubre	2023-10-14T00:00:00	2024-11-08T00:00:00	5	Humedad	94
52845	7	Sololá	701	Sololá	1	Sololá	10	Octubre	2023-10-14T00:00:00	2024-11-08T00:00:00	6	Velocidad del viento	0
52846	7	Sololá	701	Sololá	1	Sololá	10	Octubre	2023-10-14T00:00:00	2024-11-08T00:00:00	7	Dirección del viento	0
52847	7	Sololá	701	Sololá	1	Sololá	10	Octubre	2023-10-14T00:00:00	2024-11-08T00:00:00	1	Precipitación	0
52848	7	Sololá	701	Sololá	1	Sololá	10	Octubre	2023-10-14T00:00:00	2024-11-08T00:00:00	8	Radiación solar	0
52849	7	Sololá	701	Sololá	1	Sololá	10	Octubre	2023-10-14T00:00:00	2024-11-08T01:00:00	2	Temperatura media	14.2
52850	7	Sololá	701	Sololá	1	Sololá	10	Octubre	2023-10-14T00:00:00	2024-11-08T01:00:00	4	Temperatura máxima	14.7
52851	7	Sololá	701	Sololá	1	Sololá	10	Octubre	2023-10-14T00:00:00	2024-11-08T01:00:00	3	Temperatura mínima	14.2
52852	7	Sololá	701	Sololá	1	Sololá	10	Octubre	2023-10-14T00:00:00	2024-11-08T01:00:00	5	Humedad	95
52853	7	Sololá	701	Sololá	1	Sololá	10	Octubre	2023-10-14T00:00:00	2024-11-08T01:00:00	6	Velocidad del viento	0
52854	7	Sololá	701	Sololá	1	Sololá	10	Octubre	2023-10-14T00:00:00	2024-11-08T01:00:00	7	Dirección del viento	0
52855	7	Sololá	701	Sololá	1	Sololá	10	Octubre	2023-10-14T00:00:00	2024-11-08T01:00:00	1	Precipitación	0.2
52856	7	Sololá	701	Sololá	1	Sololá	10	Octubre	2023-10-14T00:00:00	2024-11-08T01:00:00	8	Radiación solar	0
52857	7	Sololá	701	Sololá	1	Sololá	10	Octubre	2023-10-14T00:00:00	2024-11-08T02:00:00	2	Temperatura media	14.1
52858	7	Sololá	701	Sololá	1	Sololá	10	Octubre	2023-10-14T00:00:00	2024-11-08T02:00:00	4	Temperatura máxima	14.2
52859	7	Sololá	701	Sololá	1	Sololá	10	Octubre	2023-10-14T00:00:00	2024-11-08T02:00:00	3	Temperatura mínima	14
52860	7	Sololá	701	Sololá	1	Sololá	10	Octubre	2023-10-14T00:00:00	2024-11-08T02:00:00	5	Humedad	95
52861	7	Sololá	701	Sololá	1	Sololá	10	Octubre	2023-10-14T00:00:00	2024-11-08T02:00:00	6	Velocidad del viento	0
52862	7	Sololá	701	Sololá	1	Sololá	10	Octubre	2023-10-14T00:00:00	2024-11-08T02:00:00	7	Dirección del viento	0
52863	7	Sololá	701	Sololá	1	Sololá	10	Octubre	2023-10-14T00:00:00	2024-11-08T02:00:00	1	Precipitación	0
52864	7	Sololá	701	Sololá	1	Sololá	10	Octubre	2023-10-14T00:00:00	2024-11-08T02:00:00	8	Radiación solar	0
52865	7	Sololá	701	Sololá	1	Sololá	10	Octubre	2023-10-14T00:00:00	2024-11-08T03:00:00	2	Temperatura media	13.8
52866	7	Sololá	701	Sololá	1	Sololá	10	Octubre	2023-10-14T00:00:00	2024-11-08T03:00:00	4	Temperatura máxima	14.1
52867	7	Sololá	701	Sololá	1	Sololá	10	Octubre	2023-10-14T00:00:00	2024-11-08T03:00:00	3	Temperatura mínima	13.8
52868	7	Sololá	701	Sololá	1	Sololá	10	Octubre	2023-10-14T00:00:00	2024-11-08T03:00:00	5	Humedad	95
52869	7	Sololá	701	Sololá	1	Sololá	10	Octubre	2023-10-14T00:00:00	2024-11-08T03:00:00	6	Velocidad del viento	0
52870	7	Sololá	701	Sololá	1	Sololá	10	Octubre	2023-10-14T00:00:00	2024-11-08T03:00:00	7	Dirección del viento	0
52871	7	Sololá	701	Sololá	1	Sololá	10	Octubre	2023-10-14T00:00:00	2024-11-08T03:00:00	1	Precipitación	0
52872	7	Sololá	701	Sololá	1	Sololá	10	Octubre	2023-10-14T00:00:00	2024-11-08T03:00:00	8	Radiación solar	0
52873	7	Sololá	701	Sololá	1	Sololá	10	Octubre	2023-10-14T00:00:00	2024-11-08T04:00:00	2	Temperatura media	13.6
52874	7	Sololá	701	Sololá	1	Sololá	10	Octubre	2023-10-14T00:00:00	2024-11-08T04:00:00	4	Temperatura máxima	13.8
52875	7	Sololá	701	Sololá	1	Sololá	10	Octubre	2023-10-14T00:00:00	2024-11-08T04:00:00	3	Temperatura mínima	13.5
52876	7	Sololá	701	Sololá	1	Sololá	10	Octubre	2023-10-14T00:00:00	2024-11-08T04:00:00	5	Humedad	95
52877	7	Sololá	701	Sololá	1	Sololá	10	Octubre	2023-10-14T00:00:00	2024-11-08T04:00:00	6	Velocidad del viento	0
52878	7	Sololá	701	Sololá	1	Sololá	10	Octubre	2023-10-14T00:00:00	2024-11-08T04:00:00	7	Dirección del viento	0
52879	7	Sololá	701	Sololá	1	Sololá	10	Octubre	2023-10-14T00:00:00	2024-11-08T04:00:00	1	Precipitación	0
52880	7	Sololá	701	Sololá	1	Sololá	10	Octubre	2023-10-14T00:00:00	2024-11-08T04:00:00	8	Radiación solar	0
52881	7	Sololá	701	Sololá	1	Sololá	10	Octubre	2023-10-14T00:00:00	2024-11-08T05:00:00	2	Temperatura media	13.1
52882	7	Sololá	701	Sololá	1	Sololá	10	Octubre	2023-10-14T00:00:00	2024-11-08T05:00:00	4	Temperatura máxima	13.6
52883	7	Sololá	701	Sololá	1	Sololá	10	Octubre	2023-10-14T00:00:00	2024-11-08T05:00:00	3	Temperatura mínima	13.1
52884	7	Sololá	701	Sololá	1	Sololá	10	Octubre	2023-10-14T00:00:00	2024-11-08T05:00:00	5	Humedad	95
52885	7	Sololá	701	Sololá	1	Sololá	10	Octubre	2023-10-14T00:00:00	2024-11-08T05:00:00	6	Velocidad del viento	0
52886	7	Sololá	701	Sololá	1	Sololá	10	Octubre	2023-10-14T00:00:00	2024-11-08T05:00:00	7	Dirección del viento	0
52887	7	Sololá	701	Sololá	1	Sololá	10	Octubre	2023-10-14T00:00:00	2024-11-08T05:00:00	1	Precipitación	0
52888	7	Sololá	701	Sololá	1	Sololá	10	Octubre	2023-10-14T00:00:00	2024-11-08T05:00:00	8	Radiación solar	0
52889	7	Sololá	701	Sololá	1	Sololá	10	Octubre	2023-10-14T00:00:00	2024-11-08T06:00:00	2	Temperatura media	13.5
52890	7	Sololá	701	Sololá	1	Sololá	10	Octubre	2023-10-14T00:00:00	2024-11-08T06:00:00	4	Temperatura máxima	13.5
52891	7	Sololá	701	Sololá	1	Sololá	10	Octubre	2023-10-14T00:00:00	2024-11-08T06:00:00	3	Temperatura mínima	12.9
52892	7	Sololá	701	Sololá	1	Sololá	10	Octubre	2023-10-14T00:00:00	2024-11-08T06:00:00	5	Humedad	94
52893	7	Sololá	701	Sololá	1	Sololá	10	Octubre	2023-10-14T00:00:00	2024-11-08T06:00:00	6	Velocidad del viento	0
52894	7	Sololá	701	Sololá	1	Sololá	10	Octubre	2023-10-14T00:00:00	2024-11-08T06:00:00	7	Dirección del viento	0
52895	7	Sololá	701	Sololá	1	Sololá	10	Octubre	2023-10-14T00:00:00	2024-11-08T06:00:00	1	Precipitación	0
52896	7	Sololá	701	Sololá	1	Sololá	10	Octubre	2023-10-14T00:00:00	2024-11-08T06:00:00	8	Radiación solar	0
52897	7	Sololá	701	Sololá	1	Sololá	10	Octubre	2023-10-14T00:00:00	2024-11-08T07:00:00	2	Temperatura media	13.7
52898	7	Sololá	701	Sololá	1	Sololá	10	Octubre	2023-10-14T00:00:00	2024-11-08T07:00:00	4	Temperatura máxima	13.7
52899	7	Sololá	701	Sololá	1	Sololá	10	Octubre	2023-10-14T00:00:00	2024-11-08T07:00:00	3	Temperatura mínima	13.3
52900	7	Sololá	701	Sololá	1	Sololá	10	Octubre	2023-10-14T00:00:00	2024-11-08T07:00:00	5	Humedad	95
52901	7	Sololá	701	Sololá	1	Sololá	10	Octubre	2023-10-14T00:00:00	2024-11-08T07:00:00	6	Velocidad del viento	0
52902	7	Sololá	701	Sololá	1	Sololá	10	Octubre	2023-10-14T00:00:00	2024-11-08T07:00:00	7	Dirección del viento	0
52903	7	Sololá	701	Sololá	1	Sololá	10	Octubre	2023-10-14T00:00:00	2024-11-08T07:00:00	1	Precipitación	0
52904	7	Sololá	701	Sololá	1	Sololá	10	Octubre	2023-10-14T00:00:00	2024-11-08T07:00:00	8	Radiación solar	12
52905	7	Sololá	701	Sololá	1	Sololá	10	Octubre	2023-10-14T00:00:00	2024-11-08T08:00:00	2	Temperatura media	16.4
52906	7	Sololá	701	Sololá	1	Sololá	10	Octubre	2023-10-14T00:00:00	2024-11-08T08:00:00	4	Temperatura máxima	16.5
52907	7	Sololá	701	Sololá	1	Sololá	10	Octubre	2023-10-14T00:00:00	2024-11-08T08:00:00	3	Temperatura mínima	13.7
52908	7	Sololá	701	Sololá	1	Sololá	10	Octubre	2023-10-14T00:00:00	2024-11-08T08:00:00	5	Humedad	90
52909	7	Sololá	701	Sololá	1	Sololá	10	Octubre	2023-10-14T00:00:00	2024-11-08T08:00:00	6	Velocidad del viento	0
52910	7	Sololá	701	Sololá	1	Sololá	10	Octubre	2023-10-14T00:00:00	2024-11-08T08:00:00	7	Dirección del viento	0
52911	7	Sololá	701	Sololá	1	Sololá	10	Octubre	2023-10-14T00:00:00	2024-11-08T08:00:00	1	Precipitación	0
52912	7	Sololá	701	Sololá	1	Sololá	10	Octubre	2023-10-14T00:00:00	2024-11-08T08:00:00	8	Radiación solar	49
52913	7	Sololá	701	Sololá	1	Sololá	10	Octubre	2023-10-14T00:00:00	2024-11-08T09:00:00	2	Temperatura media	22.7
52914	7	Sololá	701	Sololá	1	Sololá	10	Octubre	2023-10-14T00:00:00	2024-11-08T09:00:00	4	Temperatura máxima	22.7
52915	7	Sololá	701	Sololá	1	Sololá	10	Octubre	2023-10-14T00:00:00	2024-11-08T09:00:00	3	Temperatura mínima	16.5
52916	7	Sololá	701	Sololá	1	Sololá	10	Octubre	2023-10-14T00:00:00	2024-11-08T09:00:00	5	Humedad	68
52917	7	Sololá	701	Sololá	1	Sololá	10	Octubre	2023-10-14T00:00:00	2024-11-08T09:00:00	6	Velocidad del viento	0
52918	7	Sololá	701	Sololá	1	Sololá	10	Octubre	2023-10-14T00:00:00	2024-11-08T09:00:00	7	Dirección del viento	0
52919	7	Sololá	701	Sololá	1	Sololá	10	Octubre	2023-10-14T00:00:00	2024-11-08T09:00:00	1	Precipitación	0
52920	7	Sololá	701	Sololá	1	Sololá	10	Octubre	2023-10-14T00:00:00	2024-11-08T09:00:00	8	Radiación solar	595
52921	7	Sololá	701	Sololá	1	Sololá	10	Octubre	2023-10-14T00:00:00	2024-11-08T10:00:00	2	Temperatura media	23.8
52922	7	Sololá	701	Sololá	1	Sololá	10	Octubre	2023-10-14T00:00:00	2024-11-08T10:00:00	4	Temperatura máxima	23.8
52923	7	Sololá	701	Sololá	1	Sololá	10	Octubre	2023-10-14T00:00:00	2024-11-08T10:00:00	3	Temperatura mínima	22.7
52924	7	Sololá	701	Sololá	1	Sololá	10	Octubre	2023-10-14T00:00:00	2024-11-08T10:00:00	5	Humedad	71
52925	7	Sololá	701	Sololá	1	Sololá	10	Octubre	2023-10-14T00:00:00	2024-11-08T10:00:00	6	Velocidad del viento	0
52926	7	Sololá	701	Sololá	1	Sololá	10	Octubre	2023-10-14T00:00:00	2024-11-08T10:00:00	7	Dirección del viento	0
52927	7	Sololá	701	Sololá	1	Sololá	10	Octubre	2023-10-14T00:00:00	2024-11-08T10:00:00	1	Precipitación	0
52928	7	Sololá	701	Sololá	1	Sololá	10	Octubre	2023-10-14T00:00:00	2024-11-08T10:00:00	8	Radiación solar	780
52929	7	Sololá	701	Sololá	1	Sololá	10	Octubre	2023-10-14T00:00:00	2024-11-08T11:00:00	2	Temperatura media	22.4
52930	7	Sololá	701	Sololá	1	Sololá	10	Octubre	2023-10-14T00:00:00	2024-11-08T11:00:00	4	Temperatura máxima	24.1
52931	7	Sololá	701	Sololá	1	Sololá	10	Octubre	2023-10-14T00:00:00	2024-11-08T11:00:00	3	Temperatura mínima	22.4
52932	7	Sololá	701	Sololá	1	Sololá	10	Octubre	2023-10-14T00:00:00	2024-11-08T11:00:00	5	Humedad	71
52933	7	Sololá	701	Sololá	1	Sololá	10	Octubre	2023-10-14T00:00:00	2024-11-08T11:00:00	6	Velocidad del viento	0
52934	7	Sololá	701	Sololá	1	Sololá	10	Octubre	2023-10-14T00:00:00	2024-11-08T11:00:00	7	Dirección del viento	0
52935	7	Sololá	701	Sololá	1	Sololá	10	Octubre	2023-10-14T00:00:00	2024-11-08T11:00:00	1	Precipitación	0
52936	7	Sololá	701	Sololá	1	Sololá	10	Octubre	2023-10-14T00:00:00	2024-11-08T11:00:00	8	Radiación solar	382
52937	7	Sololá	701	Sololá	1	Sololá	10	Octubre	2023-10-14T00:00:00	2024-11-08T12:00:00	2	Temperatura media	20.1
52938	7	Sololá	701	Sololá	1	Sololá	10	Octubre	2023-10-14T00:00:00	2024-11-08T12:00:00	4	Temperatura máxima	22.4
52939	7	Sololá	701	Sololá	1	Sololá	10	Octubre	2023-10-14T00:00:00	2024-11-08T12:00:00	3	Temperatura mínima	20.1
52940	7	Sololá	701	Sololá	1	Sololá	10	Octubre	2023-10-14T00:00:00	2024-11-08T12:00:00	5	Humedad	87
52941	7	Sololá	701	Sololá	1	Sololá	10	Octubre	2023-10-14T00:00:00	2024-11-08T12:00:00	6	Velocidad del viento	0
52942	7	Sololá	701	Sololá	1	Sololá	10	Octubre	2023-10-14T00:00:00	2024-11-08T12:00:00	7	Dirección del viento	0
52943	7	Sololá	701	Sololá	1	Sololá	10	Octubre	2023-10-14T00:00:00	2024-11-08T12:00:00	1	Precipitación	0
52944	7	Sololá	701	Sololá	1	Sololá	10	Octubre	2023-10-14T00:00:00	2024-11-08T12:00:00	8	Radiación solar	213
52945	7	Sololá	701	Sololá	1	Sololá	10	Octubre	2023-10-14T00:00:00	2024-11-08T13:00:00	2	Temperatura media	21.3
52946	7	Sololá	701	Sololá	1	Sololá	10	Octubre	2023-10-14T00:00:00	2024-11-08T13:00:00	4	Temperatura máxima	21.3
52947	7	Sololá	701	Sololá	1	Sololá	10	Octubre	2023-10-14T00:00:00	2024-11-08T13:00:00	3	Temperatura mínima	19.7
52948	7	Sololá	701	Sololá	1	Sololá	10	Octubre	2023-10-14T00:00:00	2024-11-08T13:00:00	5	Humedad	87
52949	7	Sololá	701	Sololá	1	Sololá	10	Octubre	2023-10-14T00:00:00	2024-11-08T13:00:00	6	Velocidad del viento	0
52950	7	Sololá	701	Sololá	1	Sololá	10	Octubre	2023-10-14T00:00:00	2024-11-08T13:00:00	7	Dirección del viento	0
52951	7	Sololá	701	Sololá	1	Sololá	10	Octubre	2023-10-14T00:00:00	2024-11-08T13:00:00	1	Precipitación	0
52952	7	Sololá	701	Sololá	1	Sololá	10	Octubre	2023-10-14T00:00:00	2024-11-08T13:00:00	8	Radiación solar	244
52953	7	Sololá	701	Sololá	1	Sololá	10	Octubre	2023-10-14T00:00:00	2024-11-08T14:00:00	2	Temperatura media	21.1
52954	7	Sololá	701	Sololá	1	Sololá	10	Octubre	2023-10-14T00:00:00	2024-11-08T14:00:00	4	Temperatura máxima	21.7
52955	7	Sololá	701	Sololá	1	Sololá	10	Octubre	2023-10-14T00:00:00	2024-11-08T14:00:00	3	Temperatura mínima	21.1
52956	7	Sololá	701	Sololá	1	Sololá	10	Octubre	2023-10-14T00:00:00	2024-11-08T14:00:00	5	Humedad	87
52957	7	Sololá	701	Sololá	1	Sololá	10	Octubre	2023-10-14T00:00:00	2024-11-08T14:00:00	6	Velocidad del viento	0
52958	7	Sololá	701	Sololá	1	Sololá	10	Octubre	2023-10-14T00:00:00	2024-11-08T14:00:00	7	Dirección del viento	0
52959	7	Sololá	701	Sololá	1	Sololá	10	Octubre	2023-10-14T00:00:00	2024-11-08T14:00:00	1	Precipitación	0
52960	7	Sololá	701	Sololá	1	Sololá	10	Octubre	2023-10-14T00:00:00	2024-11-08T14:00:00	8	Radiación solar	198
52961	7	Sololá	701	Sololá	1	Sololá	10	Octubre	2023-10-14T00:00:00	2024-11-08T15:00:00	2	Temperatura media	20.6
52962	7	Sololá	701	Sololá	1	Sololá	10	Octubre	2023-10-14T00:00:00	2024-11-08T15:00:00	4	Temperatura máxima	21.4
52963	7	Sololá	701	Sololá	1	Sololá	10	Octubre	2023-10-14T00:00:00	2024-11-08T15:00:00	3	Temperatura mínima	20.6
52964	7	Sololá	701	Sololá	1	Sololá	10	Octubre	2023-10-14T00:00:00	2024-11-08T15:00:00	5	Humedad	88
52965	7	Sololá	701	Sololá	1	Sololá	10	Octubre	2023-10-14T00:00:00	2024-11-08T15:00:00	6	Velocidad del viento	0
52966	7	Sololá	701	Sololá	1	Sololá	10	Octubre	2023-10-14T00:00:00	2024-11-08T15:00:00	7	Dirección del viento	0
52967	7	Sololá	701	Sololá	1	Sololá	10	Octubre	2023-10-14T00:00:00	2024-11-08T15:00:00	1	Precipitación	0
52968	7	Sololá	701	Sololá	1	Sololá	10	Octubre	2023-10-14T00:00:00	2024-11-08T15:00:00	8	Radiación solar	173
52969	7	Sololá	701	Sololá	1	Sololá	10	Octubre	2023-10-14T00:00:00	2024-11-08T16:00:00	2	Temperatura media	19.4
52970	7	Sololá	701	Sololá	1	Sololá	10	Octubre	2023-10-14T00:00:00	2024-11-08T16:00:00	4	Temperatura máxima	20.6
52971	7	Sololá	701	Sololá	1	Sololá	10	Octubre	2023-10-14T00:00:00	2024-11-08T16:00:00	3	Temperatura mínima	19.4
52972	7	Sololá	701	Sololá	1	Sololá	10	Octubre	2023-10-14T00:00:00	2024-11-08T16:00:00	5	Humedad	91
52973	7	Sololá	701	Sololá	1	Sololá	10	Octubre	2023-10-14T00:00:00	2024-11-08T16:00:00	6	Velocidad del viento	0
52974	7	Sololá	701	Sololá	1	Sololá	10	Octubre	2023-10-14T00:00:00	2024-11-08T16:00:00	7	Dirección del viento	0
52975	7	Sololá	701	Sololá	1	Sololá	10	Octubre	2023-10-14T00:00:00	2024-11-08T16:00:00	1	Precipitación	0
52976	7	Sololá	701	Sololá	1	Sololá	10	Octubre	2023-10-14T00:00:00	2024-11-08T16:00:00	8	Radiación solar	99
52977	7	Sololá	701	Sololá	1	Sololá	10	Octubre	2023-10-14T00:00:00	2024-11-08T17:00:00	2	Temperatura media	19.3
52978	7	Sololá	701	Sololá	1	Sololá	10	Octubre	2023-10-14T00:00:00	2024-11-08T17:00:00	4	Temperatura máxima	19.6
52979	7	Sololá	701	Sololá	1	Sololá	10	Octubre	2023-10-14T00:00:00	2024-11-08T17:00:00	3	Temperatura mínima	19.3
52980	7	Sololá	701	Sololá	1	Sololá	10	Octubre	2023-10-14T00:00:00	2024-11-08T17:00:00	5	Humedad	85
52981	7	Sololá	701	Sololá	1	Sololá	10	Octubre	2023-10-14T00:00:00	2024-11-08T17:00:00	6	Velocidad del viento	0
52982	7	Sololá	701	Sololá	1	Sololá	10	Octubre	2023-10-14T00:00:00	2024-11-08T17:00:00	7	Dirección del viento	0
52983	7	Sololá	701	Sololá	1	Sololá	10	Octubre	2023-10-14T00:00:00	2024-11-08T17:00:00	1	Precipitación	0
52984	7	Sololá	701	Sololá	1	Sololá	10	Octubre	2023-10-14T00:00:00	2024-11-08T17:00:00	8	Radiación solar	39
52985	7	Sololá	701	Sololá	1	Sololá	10	Octubre	2023-10-14T00:00:00	2024-11-08T18:00:00	2	Temperatura media	17.9
52986	7	Sololá	701	Sololá	1	Sololá	10	Octubre	2023-10-14T00:00:00	2024-11-08T18:00:00	4	Temperatura máxima	19.3
52987	7	Sololá	701	Sololá	1	Sololá	10	Octubre	2023-10-14T00:00:00	2024-11-08T18:00:00	3	Temperatura mínima	17.9
52988	7	Sololá	701	Sololá	1	Sololá	10	Octubre	2023-10-14T00:00:00	2024-11-08T18:00:00	5	Humedad	86
52989	7	Sololá	701	Sololá	1	Sololá	10	Octubre	2023-10-14T00:00:00	2024-11-08T18:00:00	6	Velocidad del viento	0
52990	7	Sololá	701	Sololá	1	Sololá	10	Octubre	2023-10-14T00:00:00	2024-11-08T18:00:00	7	Dirección del viento	0
52991	7	Sololá	701	Sololá	1	Sololá	10	Octubre	2023-10-14T00:00:00	2024-11-08T18:00:00	1	Precipitación	0
52992	7	Sololá	701	Sololá	1	Sololá	10	Octubre	2023-10-14T00:00:00	2024-11-08T18:00:00	8	Radiación solar	8
52993	7	Sololá	701	Sololá	1	Sololá	10	Octubre	2023-10-14T00:00:00	2024-11-08T19:00:00	2	Temperatura media	16.8
52994	7	Sololá	701	Sololá	1	Sololá	10	Octubre	2023-10-14T00:00:00	2024-11-08T19:00:00	4	Temperatura máxima	17.9
52995	7	Sololá	701	Sololá	1	Sololá	10	Octubre	2023-10-14T00:00:00	2024-11-08T19:00:00	3	Temperatura mínima	16.8
52996	7	Sololá	701	Sololá	1	Sololá	10	Octubre	2023-10-14T00:00:00	2024-11-08T19:00:00	5	Humedad	88
52997	7	Sololá	701	Sololá	1	Sololá	10	Octubre	2023-10-14T00:00:00	2024-11-08T19:00:00	6	Velocidad del viento	0
52998	7	Sololá	701	Sololá	1	Sololá	10	Octubre	2023-10-14T00:00:00	2024-11-08T19:00:00	7	Dirección del viento	0
52999	7	Sololá	701	Sololá	1	Sololá	10	Octubre	2023-10-14T00:00:00	2024-11-08T19:00:00	1	Precipitación	0
53000	7	Sololá	701	Sololá	1	Sololá	10	Octubre	2023-10-14T00:00:00	2024-11-08T19:00:00	8	Radiación solar	0
53001	7	Sololá	701	Sololá	1	Sololá	10	Octubre	2023-10-14T00:00:00	2024-11-08T20:00:00	2	Temperatura media	16.7
53002	7	Sololá	701	Sololá	1	Sololá	10	Octubre	2023-10-14T00:00:00	2024-11-08T20:00:00	4	Temperatura máxima	16.8
53003	7	Sololá	701	Sololá	1	Sololá	10	Octubre	2023-10-14T00:00:00	2024-11-08T20:00:00	3	Temperatura mínima	16.6
53004	7	Sololá	701	Sololá	1	Sololá	10	Octubre	2023-10-14T00:00:00	2024-11-08T20:00:00	5	Humedad	89
53005	7	Sololá	701	Sololá	1	Sololá	10	Octubre	2023-10-14T00:00:00	2024-11-08T20:00:00	6	Velocidad del viento	0
53006	7	Sololá	701	Sololá	1	Sololá	10	Octubre	2023-10-14T00:00:00	2024-11-08T20:00:00	7	Dirección del viento	0
53007	7	Sololá	701	Sololá	1	Sololá	10	Octubre	2023-10-14T00:00:00	2024-11-08T20:00:00	1	Precipitación	0
53008	7	Sololá	701	Sololá	1	Sololá	10	Octubre	2023-10-14T00:00:00	2024-11-08T20:00:00	8	Radiación solar	0
53009	7	Sololá	701	Sololá	1	Sololá	10	Octubre	2023-10-14T00:00:00	2024-11-08T21:00:00	2	Temperatura media	16.6
53010	7	Sololá	701	Sololá	1	Sololá	10	Octubre	2023-10-14T00:00:00	2024-11-08T21:00:00	4	Temperatura máxima	16.8
53011	7	Sololá	701	Sololá	1	Sololá	10	Octubre	2023-10-14T00:00:00	2024-11-08T21:00:00	3	Temperatura mínima	16.6
53012	7	Sololá	701	Sololá	1	Sololá	10	Octubre	2023-10-14T00:00:00	2024-11-08T21:00:00	5	Humedad	89
53013	7	Sololá	701	Sololá	1	Sololá	10	Octubre	2023-10-14T00:00:00	2024-11-08T21:00:00	6	Velocidad del viento	0
53014	7	Sololá	701	Sololá	1	Sololá	10	Octubre	2023-10-14T00:00:00	2024-11-08T21:00:00	7	Dirección del viento	0
53015	7	Sololá	701	Sololá	1	Sololá	10	Octubre	2023-10-14T00:00:00	2024-11-08T21:00:00	1	Precipitación	0
53016	7	Sololá	701	Sololá	1	Sololá	10	Octubre	2023-10-14T00:00:00	2024-11-08T21:00:00	8	Radiación solar	0
53017	7	Sololá	701	Sololá	1	Sololá	10	Octubre	2023-10-14T00:00:00	2024-11-08T22:00:00	2	Temperatura media	16
53018	7	Sololá	701	Sololá	1	Sololá	10	Octubre	2023-10-14T00:00:00	2024-11-08T22:00:00	4	Temperatura máxima	16.6
53019	7	Sololá	701	Sololá	1	Sololá	10	Octubre	2023-10-14T00:00:00	2024-11-08T22:00:00	3	Temperatura mínima	15.9
53020	7	Sololá	701	Sololá	1	Sololá	10	Octubre	2023-10-14T00:00:00	2024-11-08T22:00:00	5	Humedad	91
53021	7	Sololá	701	Sololá	1	Sololá	10	Octubre	2023-10-14T00:00:00	2024-11-08T22:00:00	6	Velocidad del viento	0
53022	7	Sololá	701	Sololá	1	Sololá	10	Octubre	2023-10-14T00:00:00	2024-11-08T22:00:00	7	Dirección del viento	0
53023	7	Sololá	701	Sololá	1	Sololá	10	Octubre	2023-10-14T00:00:00	2024-11-08T22:00:00	1	Precipitación	0
53024	7	Sololá	701	Sololá	1	Sololá	10	Octubre	2023-10-14T00:00:00	2024-11-08T22:00:00	8	Radiación solar	0
53025	7	Sololá	701	Sololá	1	Sololá	10	Octubre	2023-10-14T00:00:00	2024-11-08T23:00:00	2	Temperatura media	15.7
53026	7	Sololá	701	Sololá	1	Sololá	10	Octubre	2023-10-14T00:00:00	2024-11-08T23:00:00	4	Temperatura máxima	16
53027	7	Sololá	701	Sololá	1	Sololá	10	Octubre	2023-10-14T00:00:00	2024-11-08T23:00:00	3	Temperatura mínima	15.7
53028	7	Sololá	701	Sololá	1	Sololá	10	Octubre	2023-10-14T00:00:00	2024-11-08T23:00:00	5	Humedad	92
53029	7	Sololá	701	Sololá	1	Sololá	10	Octubre	2023-10-14T00:00:00	2024-11-08T23:00:00	6	Velocidad del viento	0
53030	7	Sololá	701	Sololá	1	Sololá	10	Octubre	2023-10-14T00:00:00	2024-11-08T23:00:00	7	Dirección del viento	0
53031	7	Sololá	701	Sololá	1	Sololá	10	Octubre	2023-10-14T00:00:00	2024-11-08T23:00:00	1	Precipitación	0
53032	7	Sololá	701	Sololá	1	Sololá	10	Octubre	2023-10-14T00:00:00	2024-11-08T23:00:00	8	Radiación solar	0
53033	7	Sololá	701	Sololá	1	Sololá	10	Octubre	2023-10-15T00:00:00	2024-11-08T00:00:00	2	Temperatura media	15.2
53034	7	Sololá	701	Sololá	1	Sololá	10	Octubre	2023-10-15T00:00:00	2024-11-08T00:00:00	4	Temperatura máxima	15.7
53035	7	Sololá	701	Sololá	1	Sololá	10	Octubre	2023-10-15T00:00:00	2024-11-08T00:00:00	3	Temperatura mínima	15.2
53036	7	Sololá	701	Sololá	1	Sololá	10	Octubre	2023-10-15T00:00:00	2024-11-08T00:00:00	5	Humedad	93
53037	7	Sololá	701	Sololá	1	Sololá	10	Octubre	2023-10-15T00:00:00	2024-11-08T00:00:00	6	Velocidad del viento	0
53038	7	Sololá	701	Sololá	1	Sololá	10	Octubre	2023-10-15T00:00:00	2024-11-08T00:00:00	7	Dirección del viento	0
53039	7	Sololá	701	Sololá	1	Sololá	10	Octubre	2023-10-15T00:00:00	2024-11-08T00:00:00	1	Precipitación	0
53040	7	Sololá	701	Sololá	1	Sololá	10	Octubre	2023-10-15T00:00:00	2024-11-08T00:00:00	8	Radiación solar	0
53041	7	Sololá	701	Sololá	1	Sololá	10	Octubre	2023-10-15T00:00:00	2024-11-08T01:00:00	2	Temperatura media	14.9
53042	7	Sololá	701	Sololá	1	Sololá	10	Octubre	2023-10-15T00:00:00	2024-11-08T01:00:00	4	Temperatura máxima	15.2
53043	7	Sololá	701	Sololá	1	Sololá	10	Octubre	2023-10-15T00:00:00	2024-11-08T01:00:00	3	Temperatura mínima	14.9
53044	7	Sololá	701	Sololá	1	Sololá	10	Octubre	2023-10-15T00:00:00	2024-11-08T01:00:00	5	Humedad	92
53045	7	Sololá	701	Sololá	1	Sololá	10	Octubre	2023-10-15T00:00:00	2024-11-08T01:00:00	6	Velocidad del viento	0
53046	7	Sololá	701	Sololá	1	Sololá	10	Octubre	2023-10-15T00:00:00	2024-11-08T01:00:00	7	Dirección del viento	0
53047	7	Sololá	701	Sololá	1	Sololá	10	Octubre	2023-10-15T00:00:00	2024-11-08T01:00:00	1	Precipitación	0
53048	7	Sololá	701	Sololá	1	Sololá	10	Octubre	2023-10-15T00:00:00	2024-11-08T01:00:00	8	Radiación solar	0
53049	7	Sololá	701	Sololá	1	Sololá	10	Octubre	2023-10-15T00:00:00	2024-11-08T02:00:00	2	Temperatura media	15.1
53050	7	Sololá	701	Sololá	1	Sololá	10	Octubre	2023-10-15T00:00:00	2024-11-08T02:00:00	4	Temperatura máxima	15.1
53051	7	Sololá	701	Sololá	1	Sololá	10	Octubre	2023-10-15T00:00:00	2024-11-08T02:00:00	3	Temperatura mínima	14.8
53052	7	Sololá	701	Sololá	1	Sololá	10	Octubre	2023-10-15T00:00:00	2024-11-08T02:00:00	5	Humedad	92
53053	7	Sololá	701	Sololá	1	Sololá	10	Octubre	2023-10-15T00:00:00	2024-11-08T02:00:00	6	Velocidad del viento	0
53054	7	Sololá	701	Sololá	1	Sololá	10	Octubre	2023-10-15T00:00:00	2024-11-08T02:00:00	7	Dirección del viento	0
53055	7	Sololá	701	Sololá	1	Sololá	10	Octubre	2023-10-15T00:00:00	2024-11-08T02:00:00	1	Precipitación	0
53056	7	Sololá	701	Sololá	1	Sololá	10	Octubre	2023-10-15T00:00:00	2024-11-08T02:00:00	8	Radiación solar	0
53057	7	Sololá	701	Sololá	1	Sololá	10	Octubre	2023-10-15T00:00:00	2024-11-08T03:00:00	2	Temperatura media	14.9
53058	7	Sololá	701	Sololá	1	Sololá	10	Octubre	2023-10-15T00:00:00	2024-11-08T03:00:00	4	Temperatura máxima	15.2
53059	7	Sololá	701	Sololá	1	Sololá	10	Octubre	2023-10-15T00:00:00	2024-11-08T03:00:00	3	Temperatura mínima	14.9
53060	7	Sololá	701	Sololá	1	Sololá	10	Octubre	2023-10-15T00:00:00	2024-11-08T03:00:00	5	Humedad	91
53061	7	Sololá	701	Sololá	1	Sololá	10	Octubre	2023-10-15T00:00:00	2024-11-08T03:00:00	6	Velocidad del viento	0
53062	7	Sololá	701	Sololá	1	Sololá	10	Octubre	2023-10-15T00:00:00	2024-11-08T03:00:00	7	Dirección del viento	0
53063	7	Sololá	701	Sololá	1	Sololá	10	Octubre	2023-10-15T00:00:00	2024-11-08T03:00:00	1	Precipitación	0
53064	7	Sololá	701	Sololá	1	Sololá	10	Octubre	2023-10-15T00:00:00	2024-11-08T03:00:00	8	Radiación solar	0
53065	7	Sololá	701	Sololá	1	Sololá	10	Octubre	2023-10-15T00:00:00	2024-11-08T04:00:00	2	Temperatura media	14.8
53066	7	Sololá	701	Sololá	1	Sololá	10	Octubre	2023-10-15T00:00:00	2024-11-08T04:00:00	4	Temperatura máxima	14.9
53067	7	Sololá	701	Sololá	1	Sololá	10	Octubre	2023-10-15T00:00:00	2024-11-08T04:00:00	3	Temperatura mínima	14.7
53068	7	Sololá	701	Sololá	1	Sololá	10	Octubre	2023-10-15T00:00:00	2024-11-08T04:00:00	5	Humedad	91
53069	7	Sololá	701	Sololá	1	Sololá	10	Octubre	2023-10-15T00:00:00	2024-11-08T04:00:00	6	Velocidad del viento	0
53070	7	Sololá	701	Sololá	1	Sololá	10	Octubre	2023-10-15T00:00:00	2024-11-08T04:00:00	7	Dirección del viento	0
53071	7	Sololá	701	Sololá	1	Sololá	10	Octubre	2023-10-15T00:00:00	2024-11-08T04:00:00	1	Precipitación	0
53072	7	Sololá	701	Sololá	1	Sololá	10	Octubre	2023-10-15T00:00:00	2024-11-08T04:00:00	8	Radiación solar	0
53073	7	Sololá	701	Sololá	1	Sololá	10	Octubre	2023-10-15T00:00:00	2024-11-08T05:00:00	2	Temperatura media	14.4
53074	7	Sololá	701	Sololá	1	Sololá	10	Octubre	2023-10-15T00:00:00	2024-11-08T05:00:00	4	Temperatura máxima	14.8
53075	7	Sololá	701	Sololá	1	Sololá	10	Octubre	2023-10-15T00:00:00	2024-11-08T05:00:00	3	Temperatura mínima	14.4
53076	7	Sololá	701	Sololá	1	Sololá	10	Octubre	2023-10-15T00:00:00	2024-11-08T05:00:00	5	Humedad	91
53077	7	Sololá	701	Sololá	1	Sololá	10	Octubre	2023-10-15T00:00:00	2024-11-08T05:00:00	6	Velocidad del viento	0
53078	7	Sololá	701	Sololá	1	Sololá	10	Octubre	2023-10-15T00:00:00	2024-11-08T05:00:00	7	Dirección del viento	0
53079	7	Sololá	701	Sololá	1	Sololá	10	Octubre	2023-10-15T00:00:00	2024-11-08T05:00:00	1	Precipitación	0
53080	7	Sololá	701	Sololá	1	Sololá	10	Octubre	2023-10-15T00:00:00	2024-11-08T05:00:00	8	Radiación solar	0
53081	7	Sololá	701	Sololá	1	Sololá	10	Octubre	2023-10-15T00:00:00	2024-11-08T06:00:00	2	Temperatura media	14.1
53082	7	Sololá	701	Sololá	1	Sololá	10	Octubre	2023-10-15T00:00:00	2024-11-08T06:00:00	4	Temperatura máxima	14.4
53083	7	Sololá	701	Sololá	1	Sololá	10	Octubre	2023-10-15T00:00:00	2024-11-08T06:00:00	3	Temperatura mínima	14.1
53084	7	Sololá	701	Sololá	1	Sololá	10	Octubre	2023-10-15T00:00:00	2024-11-08T06:00:00	5	Humedad	91
53085	7	Sololá	701	Sololá	1	Sololá	10	Octubre	2023-10-15T00:00:00	2024-11-08T06:00:00	6	Velocidad del viento	0
53086	7	Sololá	701	Sololá	1	Sololá	10	Octubre	2023-10-15T00:00:00	2024-11-08T06:00:00	7	Dirección del viento	0
53087	7	Sololá	701	Sololá	1	Sololá	10	Octubre	2023-10-15T00:00:00	2024-11-08T06:00:00	1	Precipitación	0
53088	7	Sololá	701	Sololá	1	Sololá	10	Octubre	2023-10-15T00:00:00	2024-11-08T06:00:00	8	Radiación solar	0
53089	7	Sololá	701	Sololá	1	Sololá	10	Octubre	2023-10-15T00:00:00	2024-11-08T07:00:00	2	Temperatura media	14.5
53090	7	Sololá	701	Sololá	1	Sololá	10	Octubre	2023-10-15T00:00:00	2024-11-08T07:00:00	4	Temperatura máxima	14.6
53091	7	Sololá	701	Sololá	1	Sololá	10	Octubre	2023-10-15T00:00:00	2024-11-08T07:00:00	3	Temperatura mínima	14.1
53092	7	Sololá	701	Sololá	1	Sololá	10	Octubre	2023-10-15T00:00:00	2024-11-08T07:00:00	5	Humedad	91
53093	7	Sololá	701	Sololá	1	Sololá	10	Octubre	2023-10-15T00:00:00	2024-11-08T07:00:00	6	Velocidad del viento	0
53094	7	Sololá	701	Sololá	1	Sololá	10	Octubre	2023-10-15T00:00:00	2024-11-08T07:00:00	7	Dirección del viento	0
53095	7	Sololá	701	Sololá	1	Sololá	10	Octubre	2023-10-15T00:00:00	2024-11-08T07:00:00	1	Precipitación	0
53096	7	Sololá	701	Sololá	1	Sololá	10	Octubre	2023-10-15T00:00:00	2024-11-08T07:00:00	8	Radiación solar	15
53097	7	Sololá	701	Sololá	1	Sololá	10	Octubre	2023-10-15T00:00:00	2024-11-08T08:00:00	2	Temperatura media	16.8
53098	7	Sololá	701	Sololá	1	Sololá	10	Octubre	2023-10-15T00:00:00	2024-11-08T08:00:00	4	Temperatura máxima	16.8
53099	7	Sololá	701	Sololá	1	Sololá	10	Octubre	2023-10-15T00:00:00	2024-11-08T08:00:00	3	Temperatura mínima	14.5
53100	7	Sololá	701	Sololá	1	Sololá	10	Octubre	2023-10-15T00:00:00	2024-11-08T08:00:00	5	Humedad	86
53101	7	Sololá	701	Sololá	1	Sololá	10	Octubre	2023-10-15T00:00:00	2024-11-08T08:00:00	6	Velocidad del viento	0
53102	7	Sololá	701	Sololá	1	Sololá	10	Octubre	2023-10-15T00:00:00	2024-11-08T08:00:00	7	Dirección del viento	0
53103	7	Sololá	701	Sololá	1	Sololá	10	Octubre	2023-10-15T00:00:00	2024-11-08T08:00:00	1	Precipitación	0
53104	7	Sololá	701	Sololá	1	Sololá	10	Octubre	2023-10-15T00:00:00	2024-11-08T08:00:00	8	Radiación solar	49
53105	7	Sololá	701	Sololá	1	Sololá	10	Octubre	2023-10-15T00:00:00	2024-11-08T09:00:00	2	Temperatura media	21.1
53106	7	Sololá	701	Sololá	1	Sololá	10	Octubre	2023-10-15T00:00:00	2024-11-08T09:00:00	4	Temperatura máxima	21.1
53107	7	Sololá	701	Sololá	1	Sololá	10	Octubre	2023-10-15T00:00:00	2024-11-08T09:00:00	3	Temperatura mínima	16.8
53108	7	Sololá	701	Sololá	1	Sololá	10	Octubre	2023-10-15T00:00:00	2024-11-08T09:00:00	5	Humedad	80
53109	7	Sololá	701	Sololá	1	Sololá	10	Octubre	2023-10-15T00:00:00	2024-11-08T09:00:00	6	Velocidad del viento	0
53110	7	Sololá	701	Sololá	1	Sololá	10	Octubre	2023-10-15T00:00:00	2024-11-08T09:00:00	7	Dirección del viento	0
53111	7	Sololá	701	Sololá	1	Sololá	10	Octubre	2023-10-15T00:00:00	2024-11-08T09:00:00	1	Precipitación	0
53112	7	Sololá	701	Sololá	1	Sololá	10	Octubre	2023-10-15T00:00:00	2024-11-08T09:00:00	8	Radiación solar	607
53113	7	Sololá	701	Sololá	1	Sololá	10	Octubre	2023-10-15T00:00:00	2024-11-08T10:00:00	2	Temperatura media	20.9
53114	7	Sololá	701	Sololá	1	Sololá	10	Octubre	2023-10-15T00:00:00	2024-11-08T10:00:00	4	Temperatura máxima	21.6
53115	7	Sololá	701	Sololá	1	Sololá	10	Octubre	2023-10-15T00:00:00	2024-11-08T10:00:00	3	Temperatura mínima	20.5
53116	7	Sololá	701	Sololá	1	Sololá	10	Octubre	2023-10-15T00:00:00	2024-11-08T10:00:00	5	Humedad	80
53117	7	Sololá	701	Sololá	1	Sololá	10	Octubre	2023-10-15T00:00:00	2024-11-08T10:00:00	6	Velocidad del viento	0
53118	7	Sololá	701	Sololá	1	Sololá	10	Octubre	2023-10-15T00:00:00	2024-11-08T10:00:00	7	Dirección del viento	0
53119	7	Sololá	701	Sololá	1	Sololá	10	Octubre	2023-10-15T00:00:00	2024-11-08T10:00:00	1	Precipitación	0
53120	7	Sololá	701	Sololá	1	Sololá	10	Octubre	2023-10-15T00:00:00	2024-11-08T10:00:00	8	Radiación solar	652
53121	7	Sololá	701	Sololá	1	Sololá	10	Octubre	2023-10-15T00:00:00	2024-11-08T11:00:00	2	Temperatura media	22.9
53122	7	Sololá	701	Sololá	1	Sololá	10	Octubre	2023-10-15T00:00:00	2024-11-08T11:00:00	4	Temperatura máxima	22.9
53123	7	Sololá	701	Sololá	1	Sololá	10	Octubre	2023-10-15T00:00:00	2024-11-08T11:00:00	3	Temperatura mínima	20.9
53124	7	Sololá	701	Sololá	1	Sololá	10	Octubre	2023-10-15T00:00:00	2024-11-08T11:00:00	5	Humedad	76
53125	7	Sololá	701	Sololá	1	Sololá	10	Octubre	2023-10-15T00:00:00	2024-11-08T11:00:00	6	Velocidad del viento	0
53126	7	Sololá	701	Sololá	1	Sololá	10	Octubre	2023-10-15T00:00:00	2024-11-08T11:00:00	7	Dirección del viento	0
53127	7	Sololá	701	Sololá	1	Sololá	10	Octubre	2023-10-15T00:00:00	2024-11-08T11:00:00	1	Precipitación	0
53128	7	Sololá	701	Sololá	1	Sololá	10	Octubre	2023-10-15T00:00:00	2024-11-08T11:00:00	8	Radiación solar	976
53129	7	Sololá	701	Sololá	1	Sololá	10	Octubre	2023-10-15T00:00:00	2024-11-08T12:00:00	2	Temperatura media	21
53130	7	Sololá	701	Sololá	1	Sololá	10	Octubre	2023-10-15T00:00:00	2024-11-08T12:00:00	4	Temperatura máxima	23.1
53131	7	Sololá	701	Sololá	1	Sololá	10	Octubre	2023-10-15T00:00:00	2024-11-08T12:00:00	3	Temperatura mínima	21
53132	7	Sololá	701	Sololá	1	Sololá	10	Octubre	2023-10-15T00:00:00	2024-11-08T12:00:00	5	Humedad	81
53133	7	Sololá	701	Sololá	1	Sololá	10	Octubre	2023-10-15T00:00:00	2024-11-08T12:00:00	6	Velocidad del viento	0
53134	7	Sololá	701	Sololá	1	Sololá	10	Octubre	2023-10-15T00:00:00	2024-11-08T12:00:00	7	Dirección del viento	0
53135	7	Sololá	701	Sololá	1	Sololá	10	Octubre	2023-10-15T00:00:00	2024-11-08T12:00:00	1	Precipitación	0
53136	7	Sololá	701	Sololá	1	Sololá	10	Octubre	2023-10-15T00:00:00	2024-11-08T12:00:00	8	Radiación solar	525
53137	7	Sololá	701	Sololá	1	Sololá	10	Octubre	2023-10-15T00:00:00	2024-11-08T13:00:00	2	Temperatura media	19.8
53138	7	Sololá	701	Sololá	1	Sololá	10	Octubre	2023-10-15T00:00:00	2024-11-08T13:00:00	4	Temperatura máxima	20.9
53139	7	Sololá	701	Sololá	1	Sololá	10	Octubre	2023-10-15T00:00:00	2024-11-08T13:00:00	3	Temperatura mínima	19.8
53140	7	Sololá	701	Sololá	1	Sololá	10	Octubre	2023-10-15T00:00:00	2024-11-08T13:00:00	5	Humedad	88
53141	7	Sololá	701	Sololá	1	Sololá	10	Octubre	2023-10-15T00:00:00	2024-11-08T13:00:00	6	Velocidad del viento	0
53142	7	Sololá	701	Sololá	1	Sololá	10	Octubre	2023-10-15T00:00:00	2024-11-08T13:00:00	7	Dirección del viento	0
53143	7	Sololá	701	Sololá	1	Sololá	10	Octubre	2023-10-15T00:00:00	2024-11-08T13:00:00	1	Precipitación	0
53144	7	Sololá	701	Sololá	1	Sololá	10	Octubre	2023-10-15T00:00:00	2024-11-08T13:00:00	8	Radiación solar	177
53145	7	Sololá	701	Sololá	1	Sololá	10	Octubre	2023-10-15T00:00:00	2024-11-08T14:00:00	2	Temperatura media	19.4
53146	7	Sololá	701	Sololá	1	Sololá	10	Octubre	2023-10-15T00:00:00	2024-11-08T14:00:00	4	Temperatura máxima	19.8
53147	7	Sololá	701	Sololá	1	Sololá	10	Octubre	2023-10-15T00:00:00	2024-11-08T14:00:00	3	Temperatura mínima	19
53148	7	Sololá	701	Sololá	1	Sololá	10	Octubre	2023-10-15T00:00:00	2024-11-08T14:00:00	5	Humedad	89
53149	7	Sololá	701	Sololá	1	Sololá	10	Octubre	2023-10-15T00:00:00	2024-11-08T14:00:00	6	Velocidad del viento	0
53150	7	Sololá	701	Sololá	1	Sololá	10	Octubre	2023-10-15T00:00:00	2024-11-08T14:00:00	7	Dirección del viento	0
53151	7	Sololá	701	Sololá	1	Sololá	10	Octubre	2023-10-15T00:00:00	2024-11-08T14:00:00	1	Precipitación	0
53152	7	Sololá	701	Sololá	1	Sololá	10	Octubre	2023-10-15T00:00:00	2024-11-08T14:00:00	8	Radiación solar	135
53153	7	Sololá	701	Sololá	1	Sololá	10	Octubre	2023-10-15T00:00:00	2024-11-08T15:00:00	2	Temperatura media	18.2
53154	7	Sololá	701	Sololá	1	Sololá	10	Octubre	2023-10-15T00:00:00	2024-11-08T15:00:00	4	Temperatura máxima	19.4
53155	7	Sololá	701	Sololá	1	Sololá	10	Octubre	2023-10-15T00:00:00	2024-11-08T15:00:00	3	Temperatura mínima	18.2
53156	7	Sololá	701	Sololá	1	Sololá	10	Octubre	2023-10-15T00:00:00	2024-11-08T15:00:00	5	Humedad	93
53157	7	Sololá	701	Sololá	1	Sololá	10	Octubre	2023-10-15T00:00:00	2024-11-08T15:00:00	6	Velocidad del viento	0
53158	7	Sololá	701	Sololá	1	Sololá	10	Octubre	2023-10-15T00:00:00	2024-11-08T15:00:00	7	Dirección del viento	0
53159	7	Sololá	701	Sololá	1	Sololá	10	Octubre	2023-10-15T00:00:00	2024-11-08T15:00:00	1	Precipitación	0
53160	7	Sololá	701	Sololá	1	Sololá	10	Octubre	2023-10-15T00:00:00	2024-11-08T15:00:00	8	Radiación solar	80
53161	7	Sololá	701	Sololá	1	Sololá	10	Octubre	2023-10-15T00:00:00	2024-11-08T16:00:00	2	Temperatura media	17.2
53162	7	Sololá	701	Sololá	1	Sololá	10	Octubre	2023-10-15T00:00:00	2024-11-08T16:00:00	4	Temperatura máxima	18.2
53163	7	Sololá	701	Sololá	1	Sololá	10	Octubre	2023-10-15T00:00:00	2024-11-08T16:00:00	3	Temperatura mínima	17.2
53164	7	Sololá	701	Sololá	1	Sololá	10	Octubre	2023-10-15T00:00:00	2024-11-08T16:00:00	5	Humedad	95
53165	7	Sololá	701	Sololá	1	Sololá	10	Octubre	2023-10-15T00:00:00	2024-11-08T16:00:00	6	Velocidad del viento	0
53166	7	Sololá	701	Sololá	1	Sololá	10	Octubre	2023-10-15T00:00:00	2024-11-08T16:00:00	7	Dirección del viento	0
53167	7	Sololá	701	Sololá	1	Sololá	10	Octubre	2023-10-15T00:00:00	2024-11-08T16:00:00	1	Precipitación	3.6
53168	7	Sololá	701	Sololá	1	Sololá	10	Octubre	2023-10-15T00:00:00	2024-11-08T16:00:00	8	Radiación solar	23
53169	7	Sololá	701	Sololá	1	Sololá	10	Octubre	2023-10-15T00:00:00	2024-11-08T17:00:00	2	Temperatura media	16.9
53170	7	Sololá	701	Sololá	1	Sololá	10	Octubre	2023-10-15T00:00:00	2024-11-08T17:00:00	4	Temperatura máxima	17.2
53171	7	Sololá	701	Sololá	1	Sololá	10	Octubre	2023-10-15T00:00:00	2024-11-08T17:00:00	3	Temperatura mínima	16.8
53172	7	Sololá	701	Sololá	1	Sololá	10	Octubre	2023-10-15T00:00:00	2024-11-08T17:00:00	5	Humedad	95
53173	7	Sololá	701	Sololá	1	Sololá	10	Octubre	2023-10-15T00:00:00	2024-11-08T17:00:00	6	Velocidad del viento	0
53174	7	Sololá	701	Sololá	1	Sololá	10	Octubre	2023-10-15T00:00:00	2024-11-08T17:00:00	7	Dirección del viento	0
53175	7	Sololá	701	Sololá	1	Sololá	10	Octubre	2023-10-15T00:00:00	2024-11-08T17:00:00	1	Precipitación	1.4
53176	7	Sololá	701	Sololá	1	Sololá	10	Octubre	2023-10-15T00:00:00	2024-11-08T17:00:00	8	Radiación solar	15
53177	7	Sololá	701	Sololá	1	Sololá	10	Octubre	2023-10-15T00:00:00	2024-11-08T18:00:00	2	Temperatura media	16.4
53178	7	Sololá	701	Sololá	1	Sololá	10	Octubre	2023-10-15T00:00:00	2024-11-08T18:00:00	4	Temperatura máxima	16.9
53179	7	Sololá	701	Sololá	1	Sololá	10	Octubre	2023-10-15T00:00:00	2024-11-08T18:00:00	3	Temperatura mínima	16.4
53180	7	Sololá	701	Sololá	1	Sololá	10	Octubre	2023-10-15T00:00:00	2024-11-08T18:00:00	5	Humedad	95
53181	7	Sololá	701	Sololá	1	Sololá	10	Octubre	2023-10-15T00:00:00	2024-11-08T18:00:00	6	Velocidad del viento	0
53182	7	Sololá	701	Sololá	1	Sololá	10	Octubre	2023-10-15T00:00:00	2024-11-08T18:00:00	7	Dirección del viento	0
53183	7	Sololá	701	Sololá	1	Sololá	10	Octubre	2023-10-15T00:00:00	2024-11-08T18:00:00	1	Precipitación	0
53184	7	Sololá	701	Sololá	1	Sololá	10	Octubre	2023-10-15T00:00:00	2024-11-08T18:00:00	8	Radiación solar	3
53185	7	Sololá	701	Sololá	1	Sololá	10	Octubre	2023-10-15T00:00:00	2024-11-08T19:00:00	2	Temperatura media	16.4
53186	7	Sololá	701	Sololá	1	Sololá	10	Octubre	2023-10-15T00:00:00	2024-11-08T19:00:00	4	Temperatura máxima	16.5
53187	7	Sololá	701	Sololá	1	Sololá	10	Octubre	2023-10-15T00:00:00	2024-11-08T19:00:00	3	Temperatura mínima	16.4
53188	7	Sololá	701	Sololá	1	Sololá	10	Octubre	2023-10-15T00:00:00	2024-11-08T19:00:00	5	Humedad	95
53189	7	Sololá	701	Sololá	1	Sololá	10	Octubre	2023-10-15T00:00:00	2024-11-08T19:00:00	6	Velocidad del viento	0
53190	7	Sololá	701	Sololá	1	Sololá	10	Octubre	2023-10-15T00:00:00	2024-11-08T19:00:00	7	Dirección del viento	0
53191	7	Sololá	701	Sololá	1	Sololá	10	Octubre	2023-10-15T00:00:00	2024-11-08T19:00:00	1	Precipitación	0
53192	7	Sololá	701	Sololá	1	Sololá	10	Octubre	2023-10-15T00:00:00	2024-11-08T19:00:00	8	Radiación solar	0
53193	7	Sololá	701	Sololá	1	Sololá	10	Octubre	2023-10-15T00:00:00	2024-11-08T20:00:00	2	Temperatura media	16.1
53194	7	Sololá	701	Sololá	1	Sololá	10	Octubre	2023-10-15T00:00:00	2024-11-08T20:00:00	4	Temperatura máxima	16.4
53195	7	Sololá	701	Sololá	1	Sololá	10	Octubre	2023-10-15T00:00:00	2024-11-08T20:00:00	3	Temperatura mínima	16.1
53196	7	Sololá	701	Sololá	1	Sololá	10	Octubre	2023-10-15T00:00:00	2024-11-08T20:00:00	5	Humedad	96
53197	7	Sololá	701	Sololá	1	Sololá	10	Octubre	2023-10-15T00:00:00	2024-11-08T20:00:00	6	Velocidad del viento	0
53198	7	Sololá	701	Sololá	1	Sololá	10	Octubre	2023-10-15T00:00:00	2024-11-08T20:00:00	7	Dirección del viento	0
53199	7	Sololá	701	Sololá	1	Sololá	10	Octubre	2023-10-15T00:00:00	2024-11-08T20:00:00	1	Precipitación	0
53200	7	Sololá	701	Sololá	1	Sololá	10	Octubre	2023-10-15T00:00:00	2024-11-08T20:00:00	8	Radiación solar	0
53201	7	Sololá	701	Sololá	1	Sololá	10	Octubre	2023-10-15T00:00:00	2024-11-08T21:00:00	2	Temperatura media	15.9
53202	7	Sololá	701	Sololá	1	Sololá	10	Octubre	2023-10-15T00:00:00	2024-11-08T21:00:00	4	Temperatura máxima	16.2
53203	7	Sololá	701	Sololá	1	Sololá	10	Octubre	2023-10-15T00:00:00	2024-11-08T21:00:00	3	Temperatura mínima	15.9
53204	7	Sololá	701	Sololá	1	Sololá	10	Octubre	2023-10-15T00:00:00	2024-11-08T21:00:00	5	Humedad	95
53205	7	Sololá	701	Sololá	1	Sololá	10	Octubre	2023-10-15T00:00:00	2024-11-08T21:00:00	6	Velocidad del viento	0
53206	7	Sololá	701	Sololá	1	Sololá	10	Octubre	2023-10-15T00:00:00	2024-11-08T21:00:00	7	Dirección del viento	0
53207	7	Sololá	701	Sololá	1	Sololá	10	Octubre	2023-10-15T00:00:00	2024-11-08T21:00:00	1	Precipitación	0
53208	7	Sololá	701	Sololá	1	Sololá	10	Octubre	2023-10-15T00:00:00	2024-11-08T21:00:00	8	Radiación solar	0
53209	7	Sololá	701	Sololá	1	Sololá	10	Octubre	2023-10-15T00:00:00	2024-11-08T22:00:00	2	Temperatura media	15.6
53210	7	Sololá	701	Sololá	1	Sololá	10	Octubre	2023-10-15T00:00:00	2024-11-08T22:00:00	4	Temperatura máxima	15.9
53211	7	Sololá	701	Sololá	1	Sololá	10	Octubre	2023-10-15T00:00:00	2024-11-08T22:00:00	3	Temperatura mínima	15.6
53212	7	Sololá	701	Sololá	1	Sololá	10	Octubre	2023-10-15T00:00:00	2024-11-08T22:00:00	5	Humedad	96
53213	7	Sololá	701	Sololá	1	Sololá	10	Octubre	2023-10-15T00:00:00	2024-11-08T22:00:00	6	Velocidad del viento	0
53214	7	Sololá	701	Sololá	1	Sololá	10	Octubre	2023-10-15T00:00:00	2024-11-08T22:00:00	7	Dirección del viento	0
53215	7	Sololá	701	Sololá	1	Sololá	10	Octubre	2023-10-15T00:00:00	2024-11-08T22:00:00	1	Precipitación	0.2
53216	7	Sololá	701	Sololá	1	Sololá	10	Octubre	2023-10-15T00:00:00	2024-11-08T22:00:00	8	Radiación solar	0
53217	7	Sololá	701	Sololá	1	Sololá	10	Octubre	2023-10-15T00:00:00	2024-11-08T23:00:00	2	Temperatura media	14.9
53218	7	Sololá	701	Sololá	1	Sololá	10	Octubre	2023-10-15T00:00:00	2024-11-08T23:00:00	4	Temperatura máxima	15.6
53219	7	Sololá	701	Sololá	1	Sololá	10	Octubre	2023-10-15T00:00:00	2024-11-08T23:00:00	3	Temperatura mínima	14.9
53220	7	Sololá	701	Sololá	1	Sololá	10	Octubre	2023-10-15T00:00:00	2024-11-08T23:00:00	5	Humedad	95
53221	7	Sololá	701	Sololá	1	Sololá	10	Octubre	2023-10-15T00:00:00	2024-11-08T23:00:00	6	Velocidad del viento	0
53222	7	Sololá	701	Sololá	1	Sololá	10	Octubre	2023-10-15T00:00:00	2024-11-08T23:00:00	7	Dirección del viento	0
53223	7	Sololá	701	Sololá	1	Sololá	10	Octubre	2023-10-15T00:00:00	2024-11-08T23:00:00	1	Precipitación	1.8
53224	7	Sololá	701	Sololá	1	Sololá	10	Octubre	2023-10-15T00:00:00	2024-11-08T23:00:00	8	Radiación solar	0
53225	7	Sololá	701	Sololá	1	Sololá	10	Octubre	2023-10-16T00:00:00	2024-11-08T00:00:00	2	Temperatura media	14.6
53226	7	Sololá	701	Sololá	1	Sololá	10	Octubre	2023-10-16T00:00:00	2024-11-08T00:00:00	4	Temperatura máxima	14.9
53227	7	Sololá	701	Sololá	1	Sololá	10	Octubre	2023-10-16T00:00:00	2024-11-08T00:00:00	3	Temperatura mínima	14.6
53228	7	Sololá	701	Sololá	1	Sololá	10	Octubre	2023-10-16T00:00:00	2024-11-08T00:00:00	5	Humedad	96
53229	7	Sololá	701	Sololá	1	Sololá	10	Octubre	2023-10-16T00:00:00	2024-11-08T00:00:00	6	Velocidad del viento	0
53230	7	Sololá	701	Sololá	1	Sololá	10	Octubre	2023-10-16T00:00:00	2024-11-08T00:00:00	7	Dirección del viento	0
53231	7	Sololá	701	Sololá	1	Sololá	10	Octubre	2023-10-16T00:00:00	2024-11-08T00:00:00	1	Precipitación	1.8
53232	7	Sololá	701	Sololá	1	Sololá	10	Octubre	2023-10-16T00:00:00	2024-11-08T00:00:00	8	Radiación solar	0
53233	7	Sololá	701	Sololá	1	Sololá	10	Octubre	2023-10-16T00:00:00	2024-11-08T01:00:00	2	Temperatura media	14.1
53234	7	Sololá	701	Sololá	1	Sololá	10	Octubre	2023-10-16T00:00:00	2024-11-08T01:00:00	4	Temperatura máxima	14.7
53235	7	Sololá	701	Sololá	1	Sololá	10	Octubre	2023-10-16T00:00:00	2024-11-08T01:00:00	3	Temperatura mínima	14.1
53236	7	Sololá	701	Sololá	1	Sololá	10	Octubre	2023-10-16T00:00:00	2024-11-08T01:00:00	5	Humedad	96
53237	7	Sololá	701	Sololá	1	Sololá	10	Octubre	2023-10-16T00:00:00	2024-11-08T01:00:00	6	Velocidad del viento	0
53238	7	Sololá	701	Sololá	1	Sololá	10	Octubre	2023-10-16T00:00:00	2024-11-08T01:00:00	7	Dirección del viento	0
53239	7	Sololá	701	Sololá	1	Sololá	10	Octubre	2023-10-16T00:00:00	2024-11-08T01:00:00	1	Precipitación	1
53240	7	Sololá	701	Sololá	1	Sololá	10	Octubre	2023-10-16T00:00:00	2024-11-08T01:00:00	8	Radiación solar	0
53241	7	Sololá	701	Sololá	1	Sololá	10	Octubre	2023-10-16T00:00:00	2024-11-08T02:00:00	2	Temperatura media	13.1
53242	7	Sololá	701	Sololá	1	Sololá	10	Octubre	2023-10-16T00:00:00	2024-11-08T02:00:00	4	Temperatura máxima	14.1
53243	7	Sololá	701	Sololá	1	Sololá	10	Octubre	2023-10-16T00:00:00	2024-11-08T02:00:00	3	Temperatura mínima	13.1
53244	7	Sololá	701	Sololá	1	Sololá	10	Octubre	2023-10-16T00:00:00	2024-11-08T02:00:00	5	Humedad	95
53245	7	Sololá	701	Sololá	1	Sololá	10	Octubre	2023-10-16T00:00:00	2024-11-08T02:00:00	6	Velocidad del viento	0
53246	7	Sololá	701	Sololá	1	Sololá	10	Octubre	2023-10-16T00:00:00	2024-11-08T02:00:00	7	Dirección del viento	0
53247	7	Sololá	701	Sololá	1	Sololá	10	Octubre	2023-10-16T00:00:00	2024-11-08T02:00:00	1	Precipitación	0.6
53248	7	Sololá	701	Sololá	1	Sololá	10	Octubre	2023-10-16T00:00:00	2024-11-08T02:00:00	8	Radiación solar	0
53249	7	Sololá	701	Sololá	1	Sololá	10	Octubre	2023-10-16T00:00:00	2024-11-08T03:00:00	2	Temperatura media	12.6
53250	7	Sololá	701	Sololá	1	Sololá	10	Octubre	2023-10-16T00:00:00	2024-11-08T03:00:00	4	Temperatura máxima	13.1
53251	7	Sololá	701	Sololá	1	Sololá	10	Octubre	2023-10-16T00:00:00	2024-11-08T03:00:00	3	Temperatura mínima	12.5
53252	7	Sololá	701	Sololá	1	Sololá	10	Octubre	2023-10-16T00:00:00	2024-11-08T03:00:00	5	Humedad	94
53253	7	Sololá	701	Sololá	1	Sololá	10	Octubre	2023-10-16T00:00:00	2024-11-08T03:00:00	6	Velocidad del viento	0
53254	7	Sololá	701	Sololá	1	Sololá	10	Octubre	2023-10-16T00:00:00	2024-11-08T03:00:00	7	Dirección del viento	0
53255	7	Sololá	701	Sololá	1	Sololá	10	Octubre	2023-10-16T00:00:00	2024-11-08T03:00:00	1	Precipitación	0.4
53256	7	Sololá	701	Sololá	1	Sololá	10	Octubre	2023-10-16T00:00:00	2024-11-08T03:00:00	8	Radiación solar	0
53257	7	Sololá	701	Sololá	1	Sololá	10	Octubre	2023-10-16T00:00:00	2024-11-08T04:00:00	2	Temperatura media	12.9
53258	7	Sololá	701	Sololá	1	Sololá	10	Octubre	2023-10-16T00:00:00	2024-11-08T04:00:00	4	Temperatura máxima	12.9
53259	7	Sololá	701	Sololá	1	Sololá	10	Octubre	2023-10-16T00:00:00	2024-11-08T04:00:00	3	Temperatura mínima	12.5
53260	7	Sololá	701	Sololá	1	Sololá	10	Octubre	2023-10-16T00:00:00	2024-11-08T04:00:00	5	Humedad	91
53261	7	Sololá	701	Sololá	1	Sololá	10	Octubre	2023-10-16T00:00:00	2024-11-08T04:00:00	6	Velocidad del viento	0
53262	7	Sololá	701	Sololá	1	Sololá	10	Octubre	2023-10-16T00:00:00	2024-11-08T04:00:00	7	Dirección del viento	0
53263	7	Sololá	701	Sololá	1	Sololá	10	Octubre	2023-10-16T00:00:00	2024-11-08T04:00:00	1	Precipitación	0.4
53264	7	Sololá	701	Sololá	1	Sololá	10	Octubre	2023-10-16T00:00:00	2024-11-08T04:00:00	8	Radiación solar	0
53265	7	Sololá	701	Sololá	1	Sololá	10	Octubre	2023-10-16T00:00:00	2024-11-08T05:00:00	2	Temperatura media	13
53266	7	Sololá	701	Sololá	1	Sololá	10	Octubre	2023-10-16T00:00:00	2024-11-08T05:00:00	4	Temperatura máxima	13.2
53267	7	Sololá	701	Sololá	1	Sololá	10	Octubre	2023-10-16T00:00:00	2024-11-08T05:00:00	3	Temperatura mínima	12.9
53268	7	Sololá	701	Sololá	1	Sololá	10	Octubre	2023-10-16T00:00:00	2024-11-08T05:00:00	5	Humedad	91
53269	7	Sololá	701	Sololá	1	Sololá	10	Octubre	2023-10-16T00:00:00	2024-11-08T05:00:00	6	Velocidad del viento	0
53270	7	Sololá	701	Sololá	1	Sololá	10	Octubre	2023-10-16T00:00:00	2024-11-08T05:00:00	7	Dirección del viento	0
53271	7	Sololá	701	Sololá	1	Sololá	10	Octubre	2023-10-16T00:00:00	2024-11-08T05:00:00	1	Precipitación	0
53272	7	Sololá	701	Sololá	1	Sololá	10	Octubre	2023-10-16T00:00:00	2024-11-08T05:00:00	8	Radiación solar	0
53273	7	Sololá	701	Sololá	1	Sololá	10	Octubre	2023-10-16T00:00:00	2024-11-08T06:00:00	2	Temperatura media	13.2
53274	7	Sololá	701	Sololá	1	Sololá	10	Octubre	2023-10-16T00:00:00	2024-11-08T06:00:00	4	Temperatura máxima	13.3
53275	7	Sololá	701	Sololá	1	Sololá	10	Octubre	2023-10-16T00:00:00	2024-11-08T06:00:00	3	Temperatura mínima	13
53276	7	Sololá	701	Sololá	1	Sololá	10	Octubre	2023-10-16T00:00:00	2024-11-08T06:00:00	5	Humedad	89
53277	7	Sololá	701	Sololá	1	Sololá	10	Octubre	2023-10-16T00:00:00	2024-11-08T06:00:00	6	Velocidad del viento	0
53278	7	Sololá	701	Sololá	1	Sololá	10	Octubre	2023-10-16T00:00:00	2024-11-08T06:00:00	7	Dirección del viento	0
53279	7	Sololá	701	Sololá	1	Sololá	10	Octubre	2023-10-16T00:00:00	2024-11-08T06:00:00	1	Precipitación	0.2
53280	7	Sololá	701	Sololá	1	Sololá	10	Octubre	2023-10-16T00:00:00	2024-11-08T06:00:00	8	Radiación solar	0
53281	7	Sololá	701	Sololá	1	Sololá	10	Octubre	2023-10-16T00:00:00	2024-11-08T07:00:00	2	Temperatura media	13.7
53282	7	Sololá	701	Sololá	1	Sololá	10	Octubre	2023-10-16T00:00:00	2024-11-08T07:00:00	4	Temperatura máxima	13.7
53283	7	Sololá	701	Sololá	1	Sololá	10	Octubre	2023-10-16T00:00:00	2024-11-08T07:00:00	3	Temperatura mínima	13.2
53284	7	Sololá	701	Sololá	1	Sololá	10	Octubre	2023-10-16T00:00:00	2024-11-08T07:00:00	5	Humedad	87
53285	7	Sololá	701	Sololá	1	Sololá	10	Octubre	2023-10-16T00:00:00	2024-11-08T07:00:00	6	Velocidad del viento	0
53286	7	Sololá	701	Sololá	1	Sololá	10	Octubre	2023-10-16T00:00:00	2024-11-08T07:00:00	7	Dirección del viento	0
53287	7	Sololá	701	Sololá	1	Sololá	10	Octubre	2023-10-16T00:00:00	2024-11-08T07:00:00	1	Precipitación	0.2
53288	7	Sololá	701	Sololá	1	Sololá	10	Octubre	2023-10-16T00:00:00	2024-11-08T07:00:00	8	Radiación solar	19
53289	7	Sololá	701	Sololá	1	Sololá	10	Octubre	2023-10-16T00:00:00	2024-11-08T08:00:00	2	Temperatura media	15.1
53290	7	Sololá	701	Sololá	1	Sololá	10	Octubre	2023-10-16T00:00:00	2024-11-08T08:00:00	4	Temperatura máxima	15.1
53291	7	Sololá	701	Sololá	1	Sololá	10	Octubre	2023-10-16T00:00:00	2024-11-08T08:00:00	3	Temperatura mínima	13.7
53292	7	Sololá	701	Sololá	1	Sololá	10	Octubre	2023-10-16T00:00:00	2024-11-08T08:00:00	5	Humedad	87
53293	7	Sololá	701	Sololá	1	Sololá	10	Octubre	2023-10-16T00:00:00	2024-11-08T08:00:00	6	Velocidad del viento	0
53294	7	Sololá	701	Sololá	1	Sololá	10	Octubre	2023-10-16T00:00:00	2024-11-08T08:00:00	7	Dirección del viento	0
53295	7	Sololá	701	Sololá	1	Sololá	10	Octubre	2023-10-16T00:00:00	2024-11-08T08:00:00	1	Precipitación	0.2
53296	7	Sololá	701	Sololá	1	Sololá	10	Octubre	2023-10-16T00:00:00	2024-11-08T08:00:00	8	Radiación solar	76
53297	7	Sololá	701	Sololá	1	Sololá	10	Octubre	2023-10-16T00:00:00	2024-11-08T09:00:00	2	Temperatura media	18.7
53298	7	Sololá	701	Sololá	1	Sololá	10	Octubre	2023-10-16T00:00:00	2024-11-08T09:00:00	4	Temperatura máxima	18.7
53299	7	Sololá	701	Sololá	1	Sololá	10	Octubre	2023-10-16T00:00:00	2024-11-08T09:00:00	3	Temperatura mínima	15.1
53300	7	Sololá	701	Sololá	1	Sololá	10	Octubre	2023-10-16T00:00:00	2024-11-08T09:00:00	5	Humedad	80
53301	7	Sololá	701	Sololá	1	Sololá	10	Octubre	2023-10-16T00:00:00	2024-11-08T09:00:00	6	Velocidad del viento	0
53302	7	Sololá	701	Sololá	1	Sololá	10	Octubre	2023-10-16T00:00:00	2024-11-08T09:00:00	7	Dirección del viento	0
53303	7	Sololá	701	Sololá	1	Sololá	10	Octubre	2023-10-16T00:00:00	2024-11-08T09:00:00	1	Precipitación	0.4
53304	7	Sololá	701	Sololá	1	Sololá	10	Octubre	2023-10-16T00:00:00	2024-11-08T09:00:00	8	Radiación solar	434
53305	7	Sololá	701	Sololá	1	Sololá	10	Octubre	2023-10-16T00:00:00	2024-11-08T10:00:00	2	Temperatura media	21.4
53306	7	Sololá	701	Sololá	1	Sololá	10	Octubre	2023-10-16T00:00:00	2024-11-08T10:00:00	4	Temperatura máxima	21.4
53307	7	Sololá	701	Sololá	1	Sololá	10	Octubre	2023-10-16T00:00:00	2024-11-08T10:00:00	3	Temperatura mínima	18.7
53308	7	Sololá	701	Sololá	1	Sololá	10	Octubre	2023-10-16T00:00:00	2024-11-08T10:00:00	5	Humedad	74
53309	7	Sololá	701	Sololá	1	Sololá	10	Octubre	2023-10-16T00:00:00	2024-11-08T10:00:00	6	Velocidad del viento	0
53310	7	Sololá	701	Sololá	1	Sololá	10	Octubre	2023-10-16T00:00:00	2024-11-08T10:00:00	7	Dirección del viento	0
53311	7	Sololá	701	Sololá	1	Sololá	10	Octubre	2023-10-16T00:00:00	2024-11-08T10:00:00	1	Precipitación	0.4
53312	7	Sololá	701	Sololá	1	Sololá	10	Octubre	2023-10-16T00:00:00	2024-11-08T10:00:00	8	Radiación solar	739
53313	7	Sololá	701	Sololá	1	Sololá	10	Octubre	2023-10-16T00:00:00	2024-11-08T11:00:00	2	Temperatura media	21.2
53314	7	Sololá	701	Sololá	1	Sololá	10	Octubre	2023-10-16T00:00:00	2024-11-08T11:00:00	4	Temperatura máxima	21.8
53315	7	Sololá	701	Sololá	1	Sololá	10	Octubre	2023-10-16T00:00:00	2024-11-08T11:00:00	3	Temperatura mínima	21.1
53316	7	Sololá	701	Sololá	1	Sololá	10	Octubre	2023-10-16T00:00:00	2024-11-08T11:00:00	5	Humedad	70
53317	7	Sololá	701	Sololá	1	Sololá	10	Octubre	2023-10-16T00:00:00	2024-11-08T11:00:00	6	Velocidad del viento	0
53318	7	Sololá	701	Sololá	1	Sololá	10	Octubre	2023-10-16T00:00:00	2024-11-08T11:00:00	7	Dirección del viento	0
53319	7	Sololá	701	Sololá	1	Sololá	10	Octubre	2023-10-16T00:00:00	2024-11-08T11:00:00	1	Precipitación	0.2
53320	7	Sololá	701	Sololá	1	Sololá	10	Octubre	2023-10-16T00:00:00	2024-11-08T11:00:00	8	Radiación solar	683
53321	7	Sololá	701	Sololá	1	Sololá	10	Octubre	2023-10-16T00:00:00	2024-11-08T12:00:00	2	Temperatura media	20.6
53322	7	Sololá	701	Sololá	1	Sololá	10	Octubre	2023-10-16T00:00:00	2024-11-08T12:00:00	4	Temperatura máxima	21.2
53323	7	Sololá	701	Sololá	1	Sololá	10	Octubre	2023-10-16T00:00:00	2024-11-08T12:00:00	3	Temperatura mínima	20.1
53324	7	Sololá	701	Sololá	1	Sololá	10	Octubre	2023-10-16T00:00:00	2024-11-08T12:00:00	5	Humedad	74
53325	7	Sololá	701	Sololá	1	Sololá	10	Octubre	2023-10-16T00:00:00	2024-11-08T12:00:00	6	Velocidad del viento	0
53326	7	Sololá	701	Sololá	1	Sololá	10	Octubre	2023-10-16T00:00:00	2024-11-08T12:00:00	7	Dirección del viento	0
53327	7	Sololá	701	Sololá	1	Sololá	10	Octubre	2023-10-16T00:00:00	2024-11-08T12:00:00	1	Precipitación	0
53328	7	Sololá	701	Sololá	1	Sololá	10	Octubre	2023-10-16T00:00:00	2024-11-08T12:00:00	8	Radiación solar	459
53329	7	Sololá	701	Sololá	1	Sololá	10	Octubre	2023-10-16T00:00:00	2024-11-08T13:00:00	2	Temperatura media	22.3
53330	7	Sololá	701	Sololá	1	Sololá	10	Octubre	2023-10-16T00:00:00	2024-11-08T13:00:00	4	Temperatura máxima	22.9
53331	7	Sololá	701	Sololá	1	Sololá	10	Octubre	2023-10-16T00:00:00	2024-11-08T13:00:00	3	Temperatura mínima	20.7
53332	7	Sololá	701	Sololá	1	Sololá	10	Octubre	2023-10-16T00:00:00	2024-11-08T13:00:00	5	Humedad	70
53333	7	Sololá	701	Sololá	1	Sololá	10	Octubre	2023-10-16T00:00:00	2024-11-08T13:00:00	6	Velocidad del viento	1.6
53334	7	Sololá	701	Sololá	1	Sololá	10	Octubre	2023-10-16T00:00:00	2024-11-08T13:00:00	7	Dirección del viento	1.61
53335	7	Sololá	701	Sololá	1	Sololá	10	Octubre	2023-10-16T00:00:00	2024-11-08T13:00:00	1	Precipitación	0.2
53336	7	Sololá	701	Sololá	1	Sololá	10	Octubre	2023-10-16T00:00:00	2024-11-08T13:00:00	8	Radiación solar	636
53337	7	Sololá	701	Sololá	1	Sololá	10	Octubre	2023-10-16T00:00:00	2024-11-08T14:00:00	2	Temperatura media	21.9
53338	7	Sololá	701	Sololá	1	Sololá	10	Octubre	2023-10-16T00:00:00	2024-11-08T14:00:00	4	Temperatura máxima	22.8
53339	7	Sololá	701	Sololá	1	Sololá	10	Octubre	2023-10-16T00:00:00	2024-11-08T14:00:00	3	Temperatura mínima	21.9
53340	7	Sololá	701	Sololá	1	Sololá	10	Octubre	2023-10-16T00:00:00	2024-11-08T14:00:00	5	Humedad	67
53341	7	Sololá	701	Sololá	1	Sololá	10	Octubre	2023-10-16T00:00:00	2024-11-08T14:00:00	6	Velocidad del viento	1.6
53342	7	Sololá	701	Sololá	1	Sololá	10	Octubre	2023-10-16T00:00:00	2024-11-08T14:00:00	7	Dirección del viento	1.61
53343	7	Sololá	701	Sololá	1	Sololá	10	Octubre	2023-10-16T00:00:00	2024-11-08T14:00:00	1	Precipitación	0
53344	7	Sololá	701	Sololá	1	Sololá	10	Octubre	2023-10-16T00:00:00	2024-11-08T14:00:00	8	Radiación solar	211
53345	7	Sololá	701	Sololá	1	Sololá	10	Octubre	2023-10-16T00:00:00	2024-11-08T15:00:00	2	Temperatura media	20.8
53346	7	Sololá	701	Sololá	1	Sololá	10	Octubre	2023-10-16T00:00:00	2024-11-08T15:00:00	4	Temperatura máxima	21.9
53347	7	Sololá	701	Sololá	1	Sololá	10	Octubre	2023-10-16T00:00:00	2024-11-08T15:00:00	3	Temperatura mínima	20.6
53348	7	Sololá	701	Sololá	1	Sololá	10	Octubre	2023-10-16T00:00:00	2024-11-08T15:00:00	5	Humedad	70
53349	7	Sololá	701	Sololá	1	Sololá	10	Octubre	2023-10-16T00:00:00	2024-11-08T15:00:00	6	Velocidad del viento	0
53350	7	Sololá	701	Sololá	1	Sololá	10	Octubre	2023-10-16T00:00:00	2024-11-08T15:00:00	7	Dirección del viento	0
53351	7	Sololá	701	Sololá	1	Sololá	10	Octubre	2023-10-16T00:00:00	2024-11-08T15:00:00	1	Precipitación	0.2
53352	7	Sololá	701	Sololá	1	Sololá	10	Octubre	2023-10-16T00:00:00	2024-11-08T15:00:00	8	Radiación solar	163
53353	7	Sololá	701	Sololá	1	Sololá	10	Octubre	2023-10-16T00:00:00	2024-11-08T16:00:00	2	Temperatura media	19.9
53354	7	Sololá	701	Sololá	1	Sololá	10	Octubre	2023-10-16T00:00:00	2024-11-08T16:00:00	4	Temperatura máxima	20.8
53355	7	Sololá	701	Sololá	1	Sololá	10	Octubre	2023-10-16T00:00:00	2024-11-08T16:00:00	3	Temperatura mínima	19.9
53356	7	Sololá	701	Sololá	1	Sololá	10	Octubre	2023-10-16T00:00:00	2024-11-08T16:00:00	5	Humedad	74
53357	7	Sololá	701	Sololá	1	Sololá	10	Octubre	2023-10-16T00:00:00	2024-11-08T16:00:00	6	Velocidad del viento	0
53358	7	Sololá	701	Sololá	1	Sololá	10	Octubre	2023-10-16T00:00:00	2024-11-08T16:00:00	7	Dirección del viento	0
53359	7	Sololá	701	Sololá	1	Sololá	10	Octubre	2023-10-16T00:00:00	2024-11-08T16:00:00	1	Precipitación	0
53360	7	Sololá	701	Sololá	1	Sololá	10	Octubre	2023-10-16T00:00:00	2024-11-08T16:00:00	8	Radiación solar	129
53361	7	Sololá	701	Sololá	1	Sololá	10	Octubre	2023-10-16T00:00:00	2024-11-08T17:00:00	2	Temperatura media	18.3
53362	7	Sololá	701	Sololá	1	Sololá	10	Octubre	2023-10-16T00:00:00	2024-11-08T17:00:00	4	Temperatura máxima	20
53363	7	Sololá	701	Sololá	1	Sololá	10	Octubre	2023-10-16T00:00:00	2024-11-08T17:00:00	3	Temperatura mínima	18.3
53364	7	Sololá	701	Sololá	1	Sololá	10	Octubre	2023-10-16T00:00:00	2024-11-08T17:00:00	5	Humedad	77
53365	7	Sololá	701	Sololá	1	Sololá	10	Octubre	2023-10-16T00:00:00	2024-11-08T17:00:00	6	Velocidad del viento	0
53366	7	Sololá	701	Sololá	1	Sololá	10	Octubre	2023-10-16T00:00:00	2024-11-08T17:00:00	7	Dirección del viento	0
53367	7	Sololá	701	Sololá	1	Sololá	10	Octubre	2023-10-16T00:00:00	2024-11-08T17:00:00	1	Precipitación	0
53368	7	Sololá	701	Sololá	1	Sololá	10	Octubre	2023-10-16T00:00:00	2024-11-08T17:00:00	8	Radiación solar	41
53369	7	Sololá	701	Sololá	1	Sololá	10	Octubre	2023-10-16T00:00:00	2024-11-08T18:00:00	2	Temperatura media	16.7
53370	7	Sololá	701	Sololá	1	Sololá	10	Octubre	2023-10-16T00:00:00	2024-11-08T18:00:00	4	Temperatura máxima	18.3
53371	7	Sololá	701	Sololá	1	Sololá	10	Octubre	2023-10-16T00:00:00	2024-11-08T18:00:00	3	Temperatura mínima	16.7
53372	7	Sololá	701	Sololá	1	Sololá	10	Octubre	2023-10-16T00:00:00	2024-11-08T18:00:00	5	Humedad	82
53373	7	Sololá	701	Sololá	1	Sololá	10	Octubre	2023-10-16T00:00:00	2024-11-08T18:00:00	6	Velocidad del viento	0
53374	7	Sololá	701	Sololá	1	Sololá	10	Octubre	2023-10-16T00:00:00	2024-11-08T18:00:00	7	Dirección del viento	0
53375	7	Sololá	701	Sololá	1	Sololá	10	Octubre	2023-10-16T00:00:00	2024-11-08T18:00:00	1	Precipitación	0
53376	7	Sololá	701	Sololá	1	Sololá	10	Octubre	2023-10-16T00:00:00	2024-11-08T18:00:00	8	Radiación solar	3
53377	7	Sololá	701	Sololá	1	Sololá	10	Octubre	2023-10-16T00:00:00	2024-11-08T19:00:00	2	Temperatura media	15.9
53378	7	Sololá	701	Sololá	1	Sololá	10	Octubre	2023-10-16T00:00:00	2024-11-08T19:00:00	4	Temperatura máxima	16.7
53379	7	Sololá	701	Sololá	1	Sololá	10	Octubre	2023-10-16T00:00:00	2024-11-08T19:00:00	3	Temperatura mínima	15.9
53380	7	Sololá	701	Sololá	1	Sololá	10	Octubre	2023-10-16T00:00:00	2024-11-08T19:00:00	5	Humedad	82
53381	7	Sololá	701	Sololá	1	Sololá	10	Octubre	2023-10-16T00:00:00	2024-11-08T19:00:00	6	Velocidad del viento	0
53382	7	Sololá	701	Sololá	1	Sololá	10	Octubre	2023-10-16T00:00:00	2024-11-08T19:00:00	7	Dirección del viento	0
53383	7	Sololá	701	Sololá	1	Sololá	10	Octubre	2023-10-16T00:00:00	2024-11-08T19:00:00	1	Precipitación	0.2
53384	7	Sololá	701	Sololá	1	Sololá	10	Octubre	2023-10-16T00:00:00	2024-11-08T19:00:00	8	Radiación solar	0
53385	7	Sololá	701	Sololá	1	Sololá	10	Octubre	2023-10-16T00:00:00	2024-11-08T20:00:00	2	Temperatura media	16.2
53386	7	Sololá	701	Sololá	1	Sololá	10	Octubre	2023-10-16T00:00:00	2024-11-08T20:00:00	4	Temperatura máxima	16.2
53387	7	Sololá	701	Sololá	1	Sololá	10	Octubre	2023-10-16T00:00:00	2024-11-08T20:00:00	3	Temperatura mínima	15.8
53388	7	Sololá	701	Sololá	1	Sololá	10	Octubre	2023-10-16T00:00:00	2024-11-08T20:00:00	5	Humedad	80
53389	7	Sololá	701	Sololá	1	Sololá	10	Octubre	2023-10-16T00:00:00	2024-11-08T20:00:00	6	Velocidad del viento	0
53390	7	Sololá	701	Sololá	1	Sololá	10	Octubre	2023-10-16T00:00:00	2024-11-08T20:00:00	7	Dirección del viento	0
53391	7	Sololá	701	Sololá	1	Sololá	10	Octubre	2023-10-16T00:00:00	2024-11-08T20:00:00	1	Precipitación	0
53392	7	Sololá	701	Sololá	1	Sololá	10	Octubre	2023-10-16T00:00:00	2024-11-08T20:00:00	8	Radiación solar	0
53393	7	Sololá	701	Sololá	1	Sololá	10	Octubre	2023-10-16T00:00:00	2024-11-08T21:00:00	2	Temperatura media	15.8
53394	7	Sololá	701	Sololá	1	Sololá	10	Octubre	2023-10-16T00:00:00	2024-11-08T21:00:00	4	Temperatura máxima	16.2
53395	7	Sololá	701	Sololá	1	Sololá	10	Octubre	2023-10-16T00:00:00	2024-11-08T21:00:00	3	Temperatura mínima	15.8
53396	7	Sololá	701	Sololá	1	Sololá	10	Octubre	2023-10-16T00:00:00	2024-11-08T21:00:00	5	Humedad	82
53397	7	Sololá	701	Sololá	1	Sololá	10	Octubre	2023-10-16T00:00:00	2024-11-08T21:00:00	6	Velocidad del viento	0
53398	7	Sololá	701	Sololá	1	Sololá	10	Octubre	2023-10-16T00:00:00	2024-11-08T21:00:00	7	Dirección del viento	0
53399	7	Sololá	701	Sololá	1	Sololá	10	Octubre	2023-10-16T00:00:00	2024-11-08T21:00:00	1	Precipitación	0
53400	7	Sololá	701	Sololá	1	Sololá	10	Octubre	2023-10-16T00:00:00	2024-11-08T21:00:00	8	Radiación solar	0
53401	7	Sololá	701	Sololá	1	Sololá	10	Octubre	2023-10-16T00:00:00	2024-11-08T22:00:00	2	Temperatura media	15.1
53402	7	Sololá	701	Sololá	1	Sololá	10	Octubre	2023-10-16T00:00:00	2024-11-08T22:00:00	4	Temperatura máxima	15.8
53403	7	Sololá	701	Sololá	1	Sololá	10	Octubre	2023-10-16T00:00:00	2024-11-08T22:00:00	3	Temperatura mínima	15.1
53404	7	Sololá	701	Sololá	1	Sololá	10	Octubre	2023-10-16T00:00:00	2024-11-08T22:00:00	5	Humedad	84
53405	7	Sololá	701	Sololá	1	Sololá	10	Octubre	2023-10-16T00:00:00	2024-11-08T22:00:00	6	Velocidad del viento	0
53406	7	Sololá	701	Sololá	1	Sololá	10	Octubre	2023-10-16T00:00:00	2024-11-08T22:00:00	7	Dirección del viento	0
53407	7	Sololá	701	Sololá	1	Sololá	10	Octubre	2023-10-16T00:00:00	2024-11-08T22:00:00	1	Precipitación	0
53408	7	Sololá	701	Sololá	1	Sololá	10	Octubre	2023-10-16T00:00:00	2024-11-08T22:00:00	8	Radiación solar	0
53409	7	Sololá	701	Sololá	1	Sololá	10	Octubre	2023-10-16T00:00:00	2024-11-08T23:00:00	2	Temperatura media	14.8
53410	7	Sololá	701	Sololá	1	Sololá	10	Octubre	2023-10-16T00:00:00	2024-11-08T23:00:00	4	Temperatura máxima	15.2
53411	7	Sololá	701	Sololá	1	Sololá	10	Octubre	2023-10-16T00:00:00	2024-11-08T23:00:00	3	Temperatura mínima	14.8
53412	7	Sololá	701	Sololá	1	Sololá	10	Octubre	2023-10-16T00:00:00	2024-11-08T23:00:00	5	Humedad	84
53413	7	Sololá	701	Sololá	1	Sololá	10	Octubre	2023-10-16T00:00:00	2024-11-08T23:00:00	6	Velocidad del viento	0
53414	7	Sololá	701	Sololá	1	Sololá	10	Octubre	2023-10-16T00:00:00	2024-11-08T23:00:00	7	Dirección del viento	0
53415	7	Sololá	701	Sololá	1	Sololá	10	Octubre	2023-10-16T00:00:00	2024-11-08T23:00:00	1	Precipitación	0
53416	7	Sololá	701	Sololá	1	Sololá	10	Octubre	2023-10-16T00:00:00	2024-11-08T23:00:00	8	Radiación solar	0
53417	7	Sololá	701	Sololá	1	Sololá	10	Octubre	2023-10-17T00:00:00	2024-11-08T00:00:00	2	Temperatura media	14.2
53418	7	Sololá	701	Sololá	1	Sololá	10	Octubre	2023-10-17T00:00:00	2024-11-08T00:00:00	4	Temperatura máxima	14.8
53419	7	Sololá	701	Sololá	1	Sololá	10	Octubre	2023-10-17T00:00:00	2024-11-08T00:00:00	3	Temperatura mínima	14.2
53420	7	Sololá	701	Sololá	1	Sololá	10	Octubre	2023-10-17T00:00:00	2024-11-08T00:00:00	5	Humedad	87
53421	7	Sololá	701	Sololá	1	Sololá	10	Octubre	2023-10-17T00:00:00	2024-11-08T00:00:00	6	Velocidad del viento	0
53422	7	Sololá	701	Sololá	1	Sololá	10	Octubre	2023-10-17T00:00:00	2024-11-08T00:00:00	7	Dirección del viento	0
53423	7	Sololá	701	Sololá	1	Sololá	10	Octubre	2023-10-17T00:00:00	2024-11-08T00:00:00	1	Precipitación	0.2
53424	7	Sololá	701	Sololá	1	Sololá	10	Octubre	2023-10-17T00:00:00	2024-11-08T00:00:00	8	Radiación solar	0
53425	7	Sololá	701	Sololá	1	Sololá	10	Octubre	2023-10-17T00:00:00	2024-11-08T01:00:00	2	Temperatura media	14.3
53426	7	Sololá	701	Sololá	1	Sololá	10	Octubre	2023-10-17T00:00:00	2024-11-08T01:00:00	4	Temperatura máxima	14.3
53427	7	Sololá	701	Sololá	1	Sololá	10	Octubre	2023-10-17T00:00:00	2024-11-08T01:00:00	3	Temperatura mínima	14
53428	7	Sololá	701	Sololá	1	Sololá	10	Octubre	2023-10-17T00:00:00	2024-11-08T01:00:00	5	Humedad	84
53429	7	Sololá	701	Sololá	1	Sololá	10	Octubre	2023-10-17T00:00:00	2024-11-08T01:00:00	6	Velocidad del viento	0
53430	7	Sololá	701	Sololá	1	Sololá	10	Octubre	2023-10-17T00:00:00	2024-11-08T01:00:00	7	Dirección del viento	0
53431	7	Sololá	701	Sololá	1	Sololá	10	Octubre	2023-10-17T00:00:00	2024-11-08T01:00:00	1	Precipitación	0
53432	7	Sololá	701	Sololá	1	Sololá	10	Octubre	2023-10-17T00:00:00	2024-11-08T01:00:00	8	Radiación solar	0
53433	7	Sololá	701	Sololá	1	Sololá	10	Octubre	2023-10-17T00:00:00	2024-11-08T02:00:00	2	Temperatura media	13.7
53434	7	Sololá	701	Sololá	1	Sololá	10	Octubre	2023-10-17T00:00:00	2024-11-08T02:00:00	4	Temperatura máxima	14.3
53435	7	Sololá	701	Sololá	1	Sololá	10	Octubre	2023-10-17T00:00:00	2024-11-08T02:00:00	3	Temperatura mínima	13.7
53436	7	Sololá	701	Sololá	1	Sololá	10	Octubre	2023-10-17T00:00:00	2024-11-08T02:00:00	5	Humedad	85
53437	7	Sololá	701	Sololá	1	Sololá	10	Octubre	2023-10-17T00:00:00	2024-11-08T02:00:00	6	Velocidad del viento	0
53438	7	Sololá	701	Sololá	1	Sololá	10	Octubre	2023-10-17T00:00:00	2024-11-08T02:00:00	7	Dirección del viento	0
53439	7	Sololá	701	Sololá	1	Sololá	10	Octubre	2023-10-17T00:00:00	2024-11-08T02:00:00	1	Precipitación	0
53440	7	Sololá	701	Sololá	1	Sololá	10	Octubre	2023-10-17T00:00:00	2024-11-08T02:00:00	8	Radiación solar	0
53441	7	Sololá	701	Sololá	1	Sololá	10	Octubre	2023-10-17T00:00:00	2024-11-08T03:00:00	2	Temperatura media	13.2
53442	7	Sololá	701	Sololá	1	Sololá	10	Octubre	2023-10-17T00:00:00	2024-11-08T03:00:00	4	Temperatura máxima	13.7
53443	7	Sololá	701	Sololá	1	Sololá	10	Octubre	2023-10-17T00:00:00	2024-11-08T03:00:00	3	Temperatura mínima	13.2
53444	7	Sololá	701	Sololá	1	Sololá	10	Octubre	2023-10-17T00:00:00	2024-11-08T03:00:00	5	Humedad	86
53445	7	Sololá	701	Sololá	1	Sololá	10	Octubre	2023-10-17T00:00:00	2024-11-08T03:00:00	6	Velocidad del viento	0
53446	7	Sololá	701	Sololá	1	Sololá	10	Octubre	2023-10-17T00:00:00	2024-11-08T03:00:00	7	Dirección del viento	0
53447	7	Sololá	701	Sololá	1	Sololá	10	Octubre	2023-10-17T00:00:00	2024-11-08T03:00:00	1	Precipitación	0
53448	7	Sololá	701	Sololá	1	Sololá	10	Octubre	2023-10-17T00:00:00	2024-11-08T03:00:00	8	Radiación solar	0
53449	7	Sololá	701	Sololá	1	Sololá	10	Octubre	2023-10-17T00:00:00	2024-11-08T04:00:00	2	Temperatura media	13.3
53450	7	Sololá	701	Sololá	1	Sololá	10	Octubre	2023-10-17T00:00:00	2024-11-08T04:00:00	4	Temperatura máxima	13.3
53451	7	Sololá	701	Sololá	1	Sololá	10	Octubre	2023-10-17T00:00:00	2024-11-08T04:00:00	3	Temperatura mínima	13.1
53452	7	Sololá	701	Sololá	1	Sololá	10	Octubre	2023-10-17T00:00:00	2024-11-08T04:00:00	5	Humedad	84
53453	7	Sololá	701	Sololá	1	Sololá	10	Octubre	2023-10-17T00:00:00	2024-11-08T04:00:00	6	Velocidad del viento	0
53454	7	Sololá	701	Sololá	1	Sololá	10	Octubre	2023-10-17T00:00:00	2024-11-08T04:00:00	7	Dirección del viento	0
53455	7	Sololá	701	Sololá	1	Sololá	10	Octubre	2023-10-17T00:00:00	2024-11-08T04:00:00	1	Precipitación	0
53456	7	Sololá	701	Sololá	1	Sololá	10	Octubre	2023-10-17T00:00:00	2024-11-08T04:00:00	8	Radiación solar	0
53457	7	Sololá	701	Sololá	1	Sololá	10	Octubre	2023-10-17T00:00:00	2024-11-08T05:00:00	2	Temperatura media	13.6
53458	7	Sololá	701	Sololá	1	Sololá	10	Octubre	2023-10-17T00:00:00	2024-11-08T05:00:00	4	Temperatura máxima	13.6
53459	7	Sololá	701	Sololá	1	Sololá	10	Octubre	2023-10-17T00:00:00	2024-11-08T05:00:00	3	Temperatura mínima	13.3
53460	7	Sololá	701	Sololá	1	Sololá	10	Octubre	2023-10-17T00:00:00	2024-11-08T05:00:00	5	Humedad	82
53461	7	Sololá	701	Sololá	1	Sololá	10	Octubre	2023-10-17T00:00:00	2024-11-08T05:00:00	6	Velocidad del viento	0
53462	7	Sololá	701	Sololá	1	Sololá	10	Octubre	2023-10-17T00:00:00	2024-11-08T05:00:00	7	Dirección del viento	0
53463	7	Sololá	701	Sololá	1	Sololá	10	Octubre	2023-10-17T00:00:00	2024-11-08T05:00:00	1	Precipitación	0
53464	7	Sololá	701	Sololá	1	Sololá	10	Octubre	2023-10-17T00:00:00	2024-11-08T05:00:00	8	Radiación solar	0
53465	7	Sololá	701	Sololá	1	Sololá	10	Octubre	2023-10-17T00:00:00	2024-11-08T06:00:00	2	Temperatura media	13.1
53466	7	Sololá	701	Sololá	1	Sololá	10	Octubre	2023-10-17T00:00:00	2024-11-08T06:00:00	4	Temperatura máxima	13.6
53467	7	Sololá	701	Sololá	1	Sololá	10	Octubre	2023-10-17T00:00:00	2024-11-08T06:00:00	3	Temperatura mínima	13
53468	7	Sololá	701	Sololá	1	Sololá	10	Octubre	2023-10-17T00:00:00	2024-11-08T06:00:00	5	Humedad	83
53469	7	Sololá	701	Sololá	1	Sololá	10	Octubre	2023-10-17T00:00:00	2024-11-08T06:00:00	6	Velocidad del viento	0
53470	7	Sololá	701	Sololá	1	Sololá	10	Octubre	2023-10-17T00:00:00	2024-11-08T06:00:00	7	Dirección del viento	0
53471	7	Sololá	701	Sololá	1	Sololá	10	Octubre	2023-10-17T00:00:00	2024-11-08T06:00:00	1	Precipitación	0
53472	7	Sololá	701	Sololá	1	Sololá	10	Octubre	2023-10-17T00:00:00	2024-11-08T06:00:00	8	Radiación solar	0
53473	7	Sololá	701	Sololá	1	Sololá	10	Octubre	2023-10-17T00:00:00	2024-11-08T07:00:00	2	Temperatura media	13.8
53474	7	Sololá	701	Sololá	1	Sololá	10	Octubre	2023-10-17T00:00:00	2024-11-08T07:00:00	4	Temperatura máxima	13.8
53475	7	Sololá	701	Sololá	1	Sololá	10	Octubre	2023-10-17T00:00:00	2024-11-08T07:00:00	3	Temperatura mínima	13.1
53476	7	Sololá	701	Sololá	1	Sololá	10	Octubre	2023-10-17T00:00:00	2024-11-08T07:00:00	5	Humedad	81
53477	7	Sololá	701	Sololá	1	Sololá	10	Octubre	2023-10-17T00:00:00	2024-11-08T07:00:00	6	Velocidad del viento	0
53478	7	Sololá	701	Sololá	1	Sololá	10	Octubre	2023-10-17T00:00:00	2024-11-08T07:00:00	7	Dirección del viento	0
53479	7	Sololá	701	Sololá	1	Sololá	10	Octubre	2023-10-17T00:00:00	2024-11-08T07:00:00	1	Precipitación	0.2
53480	7	Sololá	701	Sololá	1	Sololá	10	Octubre	2023-10-17T00:00:00	2024-11-08T07:00:00	8	Radiación solar	32
53481	7	Sololá	701	Sololá	1	Sololá	10	Octubre	2023-10-17T00:00:00	2024-11-08T08:00:00	2	Temperatura media	16.1
53482	7	Sololá	701	Sololá	1	Sololá	10	Octubre	2023-10-17T00:00:00	2024-11-08T08:00:00	4	Temperatura máxima	16.1
53483	7	Sololá	701	Sololá	1	Sololá	10	Octubre	2023-10-17T00:00:00	2024-11-08T08:00:00	3	Temperatura mínima	13.8
53484	7	Sololá	701	Sololá	1	Sololá	10	Octubre	2023-10-17T00:00:00	2024-11-08T08:00:00	5	Humedad	78
53485	7	Sololá	701	Sololá	1	Sololá	10	Octubre	2023-10-17T00:00:00	2024-11-08T08:00:00	6	Velocidad del viento	0
53486	7	Sololá	701	Sololá	1	Sololá	10	Octubre	2023-10-17T00:00:00	2024-11-08T08:00:00	7	Dirección del viento	0
53487	7	Sololá	701	Sololá	1	Sololá	10	Octubre	2023-10-17T00:00:00	2024-11-08T08:00:00	1	Precipitación	0
53488	7	Sololá	701	Sololá	1	Sololá	10	Octubre	2023-10-17T00:00:00	2024-11-08T08:00:00	8	Radiación solar	124
53489	7	Sololá	701	Sololá	1	Sololá	10	Octubre	2023-10-17T00:00:00	2024-11-08T09:00:00	2	Temperatura media	19.4
53490	7	Sololá	701	Sololá	1	Sololá	10	Octubre	2023-10-17T00:00:00	2024-11-08T09:00:00	4	Temperatura máxima	19.4
53491	7	Sololá	701	Sololá	1	Sololá	10	Octubre	2023-10-17T00:00:00	2024-11-08T09:00:00	3	Temperatura mínima	16.1
53492	7	Sololá	701	Sololá	1	Sololá	10	Octubre	2023-10-17T00:00:00	2024-11-08T09:00:00	5	Humedad	69
53493	7	Sololá	701	Sololá	1	Sololá	10	Octubre	2023-10-17T00:00:00	2024-11-08T09:00:00	6	Velocidad del viento	0
53494	7	Sololá	701	Sololá	1	Sololá	10	Octubre	2023-10-17T00:00:00	2024-11-08T09:00:00	7	Dirección del viento	0
53495	7	Sololá	701	Sololá	1	Sololá	10	Octubre	2023-10-17T00:00:00	2024-11-08T09:00:00	1	Precipitación	0
53496	7	Sololá	701	Sololá	1	Sololá	10	Octubre	2023-10-17T00:00:00	2024-11-08T09:00:00	8	Radiación solar	528
53497	7	Sololá	701	Sololá	1	Sololá	10	Octubre	2023-10-17T00:00:00	2024-11-08T10:00:00	2	Temperatura media	18.1
53498	7	Sololá	701	Sololá	1	Sololá	10	Octubre	2023-10-17T00:00:00	2024-11-08T10:00:00	4	Temperatura máxima	19.7
53499	7	Sololá	701	Sololá	1	Sololá	10	Octubre	2023-10-17T00:00:00	2024-11-08T10:00:00	3	Temperatura mínima	18.1
53500	7	Sololá	701	Sololá	1	Sololá	10	Octubre	2023-10-17T00:00:00	2024-11-08T10:00:00	5	Humedad	72
53501	7	Sololá	701	Sololá	1	Sololá	10	Octubre	2023-10-17T00:00:00	2024-11-08T10:00:00	6	Velocidad del viento	0
53502	7	Sololá	701	Sololá	1	Sololá	10	Octubre	2023-10-17T00:00:00	2024-11-08T10:00:00	7	Dirección del viento	0
53503	7	Sololá	701	Sololá	1	Sololá	10	Octubre	2023-10-17T00:00:00	2024-11-08T10:00:00	1	Precipitación	0
53504	7	Sololá	701	Sololá	1	Sololá	10	Octubre	2023-10-17T00:00:00	2024-11-08T10:00:00	8	Radiación solar	315
53505	7	Sololá	701	Sololá	1	Sololá	10	Octubre	2023-10-17T00:00:00	2024-11-08T11:00:00	2	Temperatura media	17.2
53506	7	Sololá	701	Sololá	1	Sololá	10	Octubre	2023-10-17T00:00:00	2024-11-08T11:00:00	4	Temperatura máxima	18.2
53507	7	Sololá	701	Sololá	1	Sololá	10	Octubre	2023-10-17T00:00:00	2024-11-08T11:00:00	3	Temperatura mínima	17.2
53508	7	Sololá	701	Sololá	1	Sololá	10	Octubre	2023-10-17T00:00:00	2024-11-08T11:00:00	5	Humedad	76
53509	7	Sololá	701	Sololá	1	Sololá	10	Octubre	2023-10-17T00:00:00	2024-11-08T11:00:00	6	Velocidad del viento	0
53510	7	Sololá	701	Sololá	1	Sololá	10	Octubre	2023-10-17T00:00:00	2024-11-08T11:00:00	7	Dirección del viento	0
53511	7	Sololá	701	Sololá	1	Sololá	10	Octubre	2023-10-17T00:00:00	2024-11-08T11:00:00	1	Precipitación	0
53512	7	Sololá	701	Sololá	1	Sololá	10	Octubre	2023-10-17T00:00:00	2024-11-08T11:00:00	8	Radiación solar	221
53513	7	Sololá	701	Sololá	1	Sololá	10	Octubre	2023-10-17T00:00:00	2024-11-08T12:00:00	2	Temperatura media	19.3
53514	7	Sololá	701	Sololá	1	Sololá	10	Octubre	2023-10-17T00:00:00	2024-11-08T12:00:00	4	Temperatura máxima	20.7
53515	7	Sololá	701	Sololá	1	Sololá	10	Octubre	2023-10-17T00:00:00	2024-11-08T12:00:00	3	Temperatura mínima	17.2
53516	7	Sololá	701	Sololá	1	Sololá	10	Octubre	2023-10-17T00:00:00	2024-11-08T12:00:00	5	Humedad	69
53517	7	Sololá	701	Sololá	1	Sololá	10	Octubre	2023-10-17T00:00:00	2024-11-08T12:00:00	6	Velocidad del viento	1.6
53518	7	Sololá	701	Sololá	1	Sololá	10	Octubre	2023-10-17T00:00:00	2024-11-08T12:00:00	7	Dirección del viento	1.61
53519	7	Sololá	701	Sololá	1	Sololá	10	Octubre	2023-10-17T00:00:00	2024-11-08T12:00:00	1	Precipitación	0
53520	7	Sololá	701	Sololá	1	Sololá	10	Octubre	2023-10-17T00:00:00	2024-11-08T12:00:00	8	Radiación solar	457
53521	7	Sololá	701	Sololá	1	Sololá	10	Octubre	2023-10-17T00:00:00	2024-11-08T13:00:00	2	Temperatura media	18.3
53522	7	Sololá	701	Sololá	1	Sololá	10	Octubre	2023-10-17T00:00:00	2024-11-08T13:00:00	4	Temperatura máxima	19.2
53523	7	Sololá	701	Sololá	1	Sololá	10	Octubre	2023-10-17T00:00:00	2024-11-08T13:00:00	3	Temperatura mínima	18.1
53524	7	Sololá	701	Sololá	1	Sololá	10	Octubre	2023-10-17T00:00:00	2024-11-08T13:00:00	5	Humedad	73
53525	7	Sololá	701	Sololá	1	Sololá	10	Octubre	2023-10-17T00:00:00	2024-11-08T13:00:00	6	Velocidad del viento	0
53526	7	Sololá	701	Sololá	1	Sololá	10	Octubre	2023-10-17T00:00:00	2024-11-08T13:00:00	7	Dirección del viento	0
53527	7	Sololá	701	Sololá	1	Sololá	10	Octubre	2023-10-17T00:00:00	2024-11-08T13:00:00	1	Precipitación	0
53528	7	Sololá	701	Sololá	1	Sololá	10	Octubre	2023-10-17T00:00:00	2024-11-08T13:00:00	8	Radiación solar	162
53529	7	Sololá	701	Sololá	1	Sololá	10	Octubre	2023-10-17T00:00:00	2024-11-08T14:00:00	2	Temperatura media	19.4
53530	7	Sololá	701	Sololá	1	Sololá	10	Octubre	2023-10-17T00:00:00	2024-11-08T14:00:00	4	Temperatura máxima	19.6
53531	7	Sololá	701	Sololá	1	Sololá	10	Octubre	2023-10-17T00:00:00	2024-11-08T14:00:00	3	Temperatura mínima	18.3
53532	7	Sololá	701	Sololá	1	Sololá	10	Octubre	2023-10-17T00:00:00	2024-11-08T14:00:00	5	Humedad	69
53533	7	Sololá	701	Sololá	1	Sololá	10	Octubre	2023-10-17T00:00:00	2024-11-08T14:00:00	6	Velocidad del viento	0
53534	7	Sololá	701	Sololá	1	Sololá	10	Octubre	2023-10-17T00:00:00	2024-11-08T14:00:00	7	Dirección del viento	0
53535	7	Sololá	701	Sololá	1	Sololá	10	Octubre	2023-10-17T00:00:00	2024-11-08T14:00:00	1	Precipitación	0
53536	7	Sololá	701	Sololá	1	Sololá	10	Octubre	2023-10-17T00:00:00	2024-11-08T14:00:00	8	Radiación solar	248
53537	7	Sololá	701	Sololá	1	Sololá	10	Octubre	2023-10-17T00:00:00	2024-11-08T15:00:00	2	Temperatura media	17.9
53538	7	Sololá	701	Sololá	1	Sololá	10	Octubre	2023-10-17T00:00:00	2024-11-08T15:00:00	4	Temperatura máxima	19.4
53539	7	Sololá	701	Sololá	1	Sololá	10	Octubre	2023-10-17T00:00:00	2024-11-08T15:00:00	3	Temperatura mínima	17.9
53540	7	Sololá	701	Sololá	1	Sololá	10	Octubre	2023-10-17T00:00:00	2024-11-08T15:00:00	5	Humedad	74
53541	7	Sololá	701	Sololá	1	Sololá	10	Octubre	2023-10-17T00:00:00	2024-11-08T15:00:00	6	Velocidad del viento	0
53542	7	Sololá	701	Sololá	1	Sololá	10	Octubre	2023-10-17T00:00:00	2024-11-08T15:00:00	7	Dirección del viento	0
53543	7	Sololá	701	Sololá	1	Sololá	10	Octubre	2023-10-17T00:00:00	2024-11-08T15:00:00	1	Precipitación	0
53544	7	Sololá	701	Sololá	1	Sololá	10	Octubre	2023-10-17T00:00:00	2024-11-08T15:00:00	8	Radiación solar	123
53545	7	Sololá	701	Sololá	1	Sololá	10	Octubre	2023-10-17T00:00:00	2024-11-08T16:00:00	2	Temperatura media	17.9
53546	7	Sololá	701	Sololá	1	Sololá	10	Octubre	2023-10-17T00:00:00	2024-11-08T16:00:00	4	Temperatura máxima	18.3
53547	7	Sololá	701	Sololá	1	Sololá	10	Octubre	2023-10-17T00:00:00	2024-11-08T16:00:00	3	Temperatura mínima	17.8
53548	7	Sololá	701	Sololá	1	Sololá	10	Octubre	2023-10-17T00:00:00	2024-11-08T16:00:00	5	Humedad	76
53549	7	Sololá	701	Sololá	1	Sololá	10	Octubre	2023-10-17T00:00:00	2024-11-08T16:00:00	6	Velocidad del viento	0
53550	7	Sololá	701	Sololá	1	Sololá	10	Octubre	2023-10-17T00:00:00	2024-11-08T16:00:00	7	Dirección del viento	0
53551	7	Sololá	701	Sololá	1	Sololá	10	Octubre	2023-10-17T00:00:00	2024-11-08T16:00:00	1	Precipitación	0
53552	7	Sololá	701	Sololá	1	Sololá	10	Octubre	2023-10-17T00:00:00	2024-11-08T16:00:00	8	Radiación solar	106
53553	7	Sololá	701	Sololá	1	Sololá	10	Octubre	2023-10-17T00:00:00	2024-11-08T17:00:00	2	Temperatura media	17.2
53554	7	Sololá	701	Sololá	1	Sololá	10	Octubre	2023-10-17T00:00:00	2024-11-08T17:00:00	4	Temperatura máxima	17.9
53555	7	Sololá	701	Sololá	1	Sololá	10	Octubre	2023-10-17T00:00:00	2024-11-08T17:00:00	3	Temperatura mínima	17.2
53556	7	Sololá	701	Sololá	1	Sololá	10	Octubre	2023-10-17T00:00:00	2024-11-08T17:00:00	5	Humedad	78
53557	7	Sololá	701	Sololá	1	Sololá	10	Octubre	2023-10-17T00:00:00	2024-11-08T17:00:00	6	Velocidad del viento	0
53558	7	Sololá	701	Sololá	1	Sololá	10	Octubre	2023-10-17T00:00:00	2024-11-08T17:00:00	7	Dirección del viento	0
53559	7	Sololá	701	Sololá	1	Sololá	10	Octubre	2023-10-17T00:00:00	2024-11-08T17:00:00	1	Precipitación	0
53560	7	Sololá	701	Sololá	1	Sololá	10	Octubre	2023-10-17T00:00:00	2024-11-08T17:00:00	8	Radiación solar	58
53561	7	Sololá	701	Sololá	1	Sololá	10	Octubre	2023-10-17T00:00:00	2024-11-08T18:00:00	2	Temperatura media	15.7
53562	7	Sololá	701	Sololá	1	Sololá	10	Octubre	2023-10-17T00:00:00	2024-11-08T18:00:00	4	Temperatura máxima	17.2
53563	7	Sololá	701	Sololá	1	Sololá	10	Octubre	2023-10-17T00:00:00	2024-11-08T18:00:00	3	Temperatura mínima	15.7
53564	7	Sololá	701	Sololá	1	Sololá	10	Octubre	2023-10-17T00:00:00	2024-11-08T18:00:00	5	Humedad	81
53565	7	Sololá	701	Sololá	1	Sololá	10	Octubre	2023-10-17T00:00:00	2024-11-08T18:00:00	6	Velocidad del viento	0
53566	7	Sololá	701	Sololá	1	Sololá	10	Octubre	2023-10-17T00:00:00	2024-11-08T18:00:00	7	Dirección del viento	0
53567	7	Sololá	701	Sololá	1	Sololá	10	Octubre	2023-10-17T00:00:00	2024-11-08T18:00:00	1	Precipitación	0
53568	7	Sololá	701	Sololá	1	Sololá	10	Octubre	2023-10-17T00:00:00	2024-11-08T18:00:00	8	Radiación solar	11
53569	7	Sololá	701	Sololá	1	Sololá	10	Octubre	2023-10-17T00:00:00	2024-11-08T19:00:00	2	Temperatura media	14.8
53570	7	Sololá	701	Sololá	1	Sololá	10	Octubre	2023-10-17T00:00:00	2024-11-08T19:00:00	4	Temperatura máxima	15.8
53571	7	Sololá	701	Sololá	1	Sololá	10	Octubre	2023-10-17T00:00:00	2024-11-08T19:00:00	3	Temperatura mínima	14.8
53572	7	Sololá	701	Sololá	1	Sololá	10	Octubre	2023-10-17T00:00:00	2024-11-08T19:00:00	5	Humedad	83
53573	7	Sololá	701	Sololá	1	Sololá	10	Octubre	2023-10-17T00:00:00	2024-11-08T19:00:00	6	Velocidad del viento	0
53574	7	Sololá	701	Sololá	1	Sololá	10	Octubre	2023-10-17T00:00:00	2024-11-08T19:00:00	7	Dirección del viento	0
53575	7	Sololá	701	Sololá	1	Sololá	10	Octubre	2023-10-17T00:00:00	2024-11-08T19:00:00	1	Precipitación	0
53576	7	Sololá	701	Sololá	1	Sololá	10	Octubre	2023-10-17T00:00:00	2024-11-08T19:00:00	8	Radiación solar	0
53577	7	Sololá	701	Sololá	1	Sololá	10	Octubre	2023-10-17T00:00:00	2024-11-08T20:00:00	2	Temperatura media	14.5
53578	7	Sololá	701	Sololá	1	Sololá	10	Octubre	2023-10-17T00:00:00	2024-11-08T20:00:00	4	Temperatura máxima	14.9
53579	7	Sololá	701	Sololá	1	Sololá	10	Octubre	2023-10-17T00:00:00	2024-11-08T20:00:00	3	Temperatura mínima	14.5
53580	7	Sololá	701	Sololá	1	Sololá	10	Octubre	2023-10-17T00:00:00	2024-11-08T20:00:00	5	Humedad	85
53581	7	Sololá	701	Sololá	1	Sololá	10	Octubre	2023-10-17T00:00:00	2024-11-08T20:00:00	6	Velocidad del viento	0
53582	7	Sololá	701	Sololá	1	Sololá	10	Octubre	2023-10-17T00:00:00	2024-11-08T20:00:00	7	Dirección del viento	0
53583	7	Sololá	701	Sololá	1	Sololá	10	Octubre	2023-10-17T00:00:00	2024-11-08T20:00:00	1	Precipitación	0
53584	7	Sololá	701	Sololá	1	Sololá	10	Octubre	2023-10-17T00:00:00	2024-11-08T20:00:00	8	Radiación solar	0
53585	7	Sololá	701	Sololá	1	Sololá	10	Octubre	2023-10-17T00:00:00	2024-11-08T21:00:00	2	Temperatura media	14.4
53586	7	Sololá	701	Sololá	1	Sololá	10	Octubre	2023-10-17T00:00:00	2024-11-08T21:00:00	4	Temperatura máxima	14.6
53587	7	Sololá	701	Sololá	1	Sololá	10	Octubre	2023-10-17T00:00:00	2024-11-08T21:00:00	3	Temperatura mínima	14.4
53588	7	Sololá	701	Sololá	1	Sololá	10	Octubre	2023-10-17T00:00:00	2024-11-08T21:00:00	5	Humedad	84
53589	7	Sololá	701	Sololá	1	Sololá	10	Octubre	2023-10-17T00:00:00	2024-11-08T21:00:00	6	Velocidad del viento	0
53590	7	Sololá	701	Sololá	1	Sololá	10	Octubre	2023-10-17T00:00:00	2024-11-08T21:00:00	7	Dirección del viento	0
53591	7	Sololá	701	Sololá	1	Sololá	10	Octubre	2023-10-17T00:00:00	2024-11-08T21:00:00	1	Precipitación	0
53592	7	Sololá	701	Sololá	1	Sololá	10	Octubre	2023-10-17T00:00:00	2024-11-08T21:00:00	8	Radiación solar	0
53593	7	Sololá	701	Sololá	1	Sololá	10	Octubre	2023-10-17T00:00:00	2024-11-08T22:00:00	2	Temperatura media	14.2
53594	7	Sololá	701	Sololá	1	Sololá	10	Octubre	2023-10-17T00:00:00	2024-11-08T22:00:00	4	Temperatura máxima	14.5
53595	7	Sololá	701	Sololá	1	Sololá	10	Octubre	2023-10-17T00:00:00	2024-11-08T22:00:00	3	Temperatura mínima	14.2
53596	7	Sololá	701	Sololá	1	Sololá	10	Octubre	2023-10-17T00:00:00	2024-11-08T22:00:00	5	Humedad	85
53597	7	Sololá	701	Sololá	1	Sololá	10	Octubre	2023-10-17T00:00:00	2024-11-08T22:00:00	6	Velocidad del viento	0
53598	7	Sololá	701	Sololá	1	Sololá	10	Octubre	2023-10-17T00:00:00	2024-11-08T22:00:00	7	Dirección del viento	0
53599	7	Sololá	701	Sololá	1	Sololá	10	Octubre	2023-10-17T00:00:00	2024-11-08T22:00:00	1	Precipitación	0
53600	7	Sololá	701	Sololá	1	Sololá	10	Octubre	2023-10-17T00:00:00	2024-11-08T22:00:00	8	Radiación solar	0
53601	7	Sololá	701	Sololá	1	Sololá	10	Octubre	2023-10-17T00:00:00	2024-11-08T23:00:00	2	Temperatura media	13.8
53602	7	Sololá	701	Sololá	1	Sololá	10	Octubre	2023-10-17T00:00:00	2024-11-08T23:00:00	4	Temperatura máxima	14.2
53603	7	Sololá	701	Sololá	1	Sololá	10	Octubre	2023-10-17T00:00:00	2024-11-08T23:00:00	3	Temperatura mínima	13.8
53604	7	Sololá	701	Sololá	1	Sololá	10	Octubre	2023-10-17T00:00:00	2024-11-08T23:00:00	5	Humedad	87
53605	7	Sololá	701	Sololá	1	Sololá	10	Octubre	2023-10-17T00:00:00	2024-11-08T23:00:00	6	Velocidad del viento	0
53606	7	Sololá	701	Sololá	1	Sololá	10	Octubre	2023-10-17T00:00:00	2024-11-08T23:00:00	7	Dirección del viento	0
53607	7	Sololá	701	Sololá	1	Sololá	10	Octubre	2023-10-17T00:00:00	2024-11-08T23:00:00	1	Precipitación	0
53608	7	Sololá	701	Sololá	1	Sololá	10	Octubre	2023-10-17T00:00:00	2024-11-08T23:00:00	8	Radiación solar	0
53609	7	Sololá	701	Sololá	1	Sololá	10	Octubre	2023-10-18T00:00:00	2024-11-08T00:00:00	2	Temperatura media	13.6
53610	7	Sololá	701	Sololá	1	Sololá	10	Octubre	2023-10-18T00:00:00	2024-11-08T00:00:00	4	Temperatura máxima	13.8
53611	7	Sololá	701	Sololá	1	Sololá	10	Octubre	2023-10-18T00:00:00	2024-11-08T00:00:00	3	Temperatura mínima	13.6
53612	7	Sololá	701	Sololá	1	Sololá	10	Octubre	2023-10-18T00:00:00	2024-11-08T00:00:00	5	Humedad	86
53613	7	Sololá	701	Sololá	1	Sololá	10	Octubre	2023-10-18T00:00:00	2024-11-08T00:00:00	6	Velocidad del viento	0
53614	7	Sololá	701	Sololá	1	Sololá	10	Octubre	2023-10-18T00:00:00	2024-11-08T00:00:00	7	Dirección del viento	0
53615	7	Sololá	701	Sololá	1	Sololá	10	Octubre	2023-10-18T00:00:00	2024-11-08T00:00:00	1	Precipitación	0
53616	7	Sololá	701	Sololá	1	Sololá	10	Octubre	2023-10-18T00:00:00	2024-11-08T00:00:00	8	Radiación solar	0
53617	7	Sololá	701	Sololá	1	Sololá	10	Octubre	2023-10-18T00:00:00	2024-11-08T01:00:00	2	Temperatura media	13.4
53618	7	Sololá	701	Sololá	1	Sololá	10	Octubre	2023-10-18T00:00:00	2024-11-08T01:00:00	4	Temperatura máxima	13.6
53619	7	Sololá	701	Sololá	1	Sololá	10	Octubre	2023-10-18T00:00:00	2024-11-08T01:00:00	3	Temperatura mínima	13.4
53620	7	Sololá	701	Sololá	1	Sololá	10	Octubre	2023-10-18T00:00:00	2024-11-08T01:00:00	5	Humedad	85
53621	7	Sololá	701	Sololá	1	Sololá	10	Octubre	2023-10-18T00:00:00	2024-11-08T01:00:00	6	Velocidad del viento	0
53622	7	Sololá	701	Sololá	1	Sololá	10	Octubre	2023-10-18T00:00:00	2024-11-08T01:00:00	7	Dirección del viento	0
53623	7	Sololá	701	Sololá	1	Sololá	10	Octubre	2023-10-18T00:00:00	2024-11-08T01:00:00	1	Precipitación	0
53624	7	Sololá	701	Sololá	1	Sololá	10	Octubre	2023-10-18T00:00:00	2024-11-08T01:00:00	8	Radiación solar	0
53625	7	Sololá	701	Sololá	1	Sololá	10	Octubre	2023-10-18T00:00:00	2024-11-08T02:00:00	2	Temperatura media	13.2
53626	7	Sololá	701	Sololá	1	Sololá	10	Octubre	2023-10-18T00:00:00	2024-11-08T02:00:00	4	Temperatura máxima	13.4
53627	7	Sololá	701	Sololá	1	Sololá	10	Octubre	2023-10-18T00:00:00	2024-11-08T02:00:00	3	Temperatura mínima	13.2
53628	7	Sololá	701	Sololá	1	Sololá	10	Octubre	2023-10-18T00:00:00	2024-11-08T02:00:00	5	Humedad	86
53629	7	Sololá	701	Sololá	1	Sololá	10	Octubre	2023-10-18T00:00:00	2024-11-08T02:00:00	6	Velocidad del viento	0
53630	7	Sololá	701	Sololá	1	Sololá	10	Octubre	2023-10-18T00:00:00	2024-11-08T02:00:00	7	Dirección del viento	0
53631	7	Sololá	701	Sololá	1	Sololá	10	Octubre	2023-10-18T00:00:00	2024-11-08T02:00:00	1	Precipitación	0
53632	7	Sololá	701	Sololá	1	Sololá	10	Octubre	2023-10-18T00:00:00	2024-11-08T02:00:00	8	Radiación solar	0
53633	7	Sololá	701	Sololá	1	Sololá	10	Octubre	2023-10-18T00:00:00	2024-11-08T03:00:00	2	Temperatura media	12.6
53634	7	Sololá	701	Sololá	1	Sololá	10	Octubre	2023-10-18T00:00:00	2024-11-08T03:00:00	4	Temperatura máxima	13.2
53635	7	Sololá	701	Sololá	1	Sololá	10	Octubre	2023-10-18T00:00:00	2024-11-08T03:00:00	3	Temperatura mínima	12.6
53636	7	Sololá	701	Sololá	1	Sololá	10	Octubre	2023-10-18T00:00:00	2024-11-08T03:00:00	5	Humedad	87
53637	7	Sololá	701	Sololá	1	Sololá	10	Octubre	2023-10-18T00:00:00	2024-11-08T03:00:00	6	Velocidad del viento	0
53638	7	Sololá	701	Sololá	1	Sololá	10	Octubre	2023-10-18T00:00:00	2024-11-08T03:00:00	7	Dirección del viento	0
53639	7	Sololá	701	Sololá	1	Sololá	10	Octubre	2023-10-18T00:00:00	2024-11-08T03:00:00	1	Precipitación	0
53640	7	Sololá	701	Sololá	1	Sololá	10	Octubre	2023-10-18T00:00:00	2024-11-08T03:00:00	8	Radiación solar	0
53641	7	Sololá	701	Sololá	1	Sololá	10	Octubre	2023-10-18T00:00:00	2024-11-08T04:00:00	2	Temperatura media	12.4
53642	7	Sololá	701	Sololá	1	Sololá	10	Octubre	2023-10-18T00:00:00	2024-11-08T04:00:00	4	Temperatura máxima	12.6
53643	7	Sololá	701	Sololá	1	Sololá	10	Octubre	2023-10-18T00:00:00	2024-11-08T04:00:00	3	Temperatura mínima	12.3
53644	7	Sololá	701	Sololá	1	Sololá	10	Octubre	2023-10-18T00:00:00	2024-11-08T04:00:00	5	Humedad	87
53645	7	Sololá	701	Sololá	1	Sololá	10	Octubre	2023-10-18T00:00:00	2024-11-08T04:00:00	6	Velocidad del viento	0
53646	7	Sololá	701	Sololá	1	Sololá	10	Octubre	2023-10-18T00:00:00	2024-11-08T04:00:00	7	Dirección del viento	0
53647	7	Sololá	701	Sololá	1	Sololá	10	Octubre	2023-10-18T00:00:00	2024-11-08T04:00:00	1	Precipitación	0
53648	7	Sololá	701	Sololá	1	Sololá	10	Octubre	2023-10-18T00:00:00	2024-11-08T04:00:00	8	Radiación solar	0
53649	7	Sololá	701	Sololá	1	Sololá	10	Octubre	2023-10-18T00:00:00	2024-11-08T05:00:00	2	Temperatura media	12.2
53650	7	Sololá	701	Sololá	1	Sololá	10	Octubre	2023-10-18T00:00:00	2024-11-08T05:00:00	4	Temperatura máxima	12.4
53651	7	Sololá	701	Sololá	1	Sololá	10	Octubre	2023-10-18T00:00:00	2024-11-08T05:00:00	3	Temperatura mínima	12.1
53652	7	Sololá	701	Sololá	1	Sololá	10	Octubre	2023-10-18T00:00:00	2024-11-08T05:00:00	5	Humedad	86
53653	7	Sololá	701	Sololá	1	Sololá	10	Octubre	2023-10-18T00:00:00	2024-11-08T05:00:00	6	Velocidad del viento	0
53654	7	Sololá	701	Sololá	1	Sololá	10	Octubre	2023-10-18T00:00:00	2024-11-08T05:00:00	7	Dirección del viento	0
53655	7	Sololá	701	Sololá	1	Sololá	10	Octubre	2023-10-18T00:00:00	2024-11-08T05:00:00	1	Precipitación	0
53656	7	Sololá	701	Sololá	1	Sololá	10	Octubre	2023-10-18T00:00:00	2024-11-08T05:00:00	8	Radiación solar	0
53657	7	Sololá	701	Sololá	1	Sololá	10	Octubre	2023-10-18T00:00:00	2024-11-08T06:00:00	2	Temperatura media	11.9
53658	7	Sololá	701	Sololá	1	Sololá	10	Octubre	2023-10-18T00:00:00	2024-11-08T06:00:00	4	Temperatura máxima	12.3
53659	7	Sololá	701	Sololá	1	Sololá	10	Octubre	2023-10-18T00:00:00	2024-11-08T06:00:00	3	Temperatura mínima	11.8
53660	7	Sololá	701	Sololá	1	Sololá	10	Octubre	2023-10-18T00:00:00	2024-11-08T06:00:00	5	Humedad	89
53661	7	Sololá	701	Sololá	1	Sololá	10	Octubre	2023-10-18T00:00:00	2024-11-08T06:00:00	6	Velocidad del viento	0
53662	7	Sololá	701	Sololá	1	Sololá	10	Octubre	2023-10-18T00:00:00	2024-11-08T06:00:00	7	Dirección del viento	0
53663	7	Sololá	701	Sololá	1	Sololá	10	Octubre	2023-10-18T00:00:00	2024-11-08T06:00:00	1	Precipitación	0
53664	7	Sololá	701	Sololá	1	Sololá	10	Octubre	2023-10-18T00:00:00	2024-11-08T06:00:00	8	Radiación solar	0
53665	7	Sololá	701	Sololá	1	Sololá	10	Octubre	2023-10-18T00:00:00	2024-11-08T07:00:00	2	Temperatura media	12.6
53666	7	Sololá	701	Sololá	1	Sololá	10	Octubre	2023-10-18T00:00:00	2024-11-08T07:00:00	4	Temperatura máxima	12.6
53667	7	Sololá	701	Sololá	1	Sololá	10	Octubre	2023-10-18T00:00:00	2024-11-08T07:00:00	3	Temperatura mínima	11.7
53668	7	Sololá	701	Sololá	1	Sololá	10	Octubre	2023-10-18T00:00:00	2024-11-08T07:00:00	5	Humedad	87
53669	7	Sololá	701	Sololá	1	Sololá	10	Octubre	2023-10-18T00:00:00	2024-11-08T07:00:00	6	Velocidad del viento	0
53670	7	Sololá	701	Sololá	1	Sololá	10	Octubre	2023-10-18T00:00:00	2024-11-08T07:00:00	7	Dirección del viento	0
53671	7	Sololá	701	Sololá	1	Sololá	10	Octubre	2023-10-18T00:00:00	2024-11-08T07:00:00	1	Precipitación	0
53672	7	Sololá	701	Sololá	1	Sololá	10	Octubre	2023-10-18T00:00:00	2024-11-08T07:00:00	8	Radiación solar	21
53673	7	Sololá	701	Sololá	1	Sololá	10	Octubre	2023-10-18T00:00:00	2024-11-08T08:00:00	2	Temperatura media	15.6
53674	7	Sololá	701	Sololá	1	Sololá	10	Octubre	2023-10-18T00:00:00	2024-11-08T08:00:00	4	Temperatura máxima	15.6
53675	7	Sololá	701	Sololá	1	Sololá	10	Octubre	2023-10-18T00:00:00	2024-11-08T08:00:00	3	Temperatura mínima	12.6
53676	7	Sololá	701	Sololá	1	Sololá	10	Octubre	2023-10-18T00:00:00	2024-11-08T08:00:00	5	Humedad	81
53677	7	Sololá	701	Sololá	1	Sololá	10	Octubre	2023-10-18T00:00:00	2024-11-08T08:00:00	6	Velocidad del viento	0
53678	7	Sololá	701	Sololá	1	Sololá	10	Octubre	2023-10-18T00:00:00	2024-11-08T08:00:00	7	Dirección del viento	0
53679	7	Sololá	701	Sololá	1	Sololá	10	Octubre	2023-10-18T00:00:00	2024-11-08T08:00:00	1	Precipitación	0
53680	7	Sololá	701	Sololá	1	Sololá	10	Octubre	2023-10-18T00:00:00	2024-11-08T08:00:00	8	Radiación solar	71
53681	7	Sololá	701	Sololá	1	Sololá	10	Octubre	2023-10-18T00:00:00	2024-11-08T09:00:00	2	Temperatura media	20.2
53682	7	Sololá	701	Sololá	1	Sololá	10	Octubre	2023-10-18T00:00:00	2024-11-08T09:00:00	4	Temperatura máxima	20.3
53683	7	Sololá	701	Sololá	1	Sololá	10	Octubre	2023-10-18T00:00:00	2024-11-08T09:00:00	3	Temperatura mínima	15.7
53684	7	Sololá	701	Sololá	1	Sololá	10	Octubre	2023-10-18T00:00:00	2024-11-08T09:00:00	5	Humedad	72
53685	7	Sololá	701	Sololá	1	Sololá	10	Octubre	2023-10-18T00:00:00	2024-11-08T09:00:00	6	Velocidad del viento	0
53686	7	Sololá	701	Sololá	1	Sololá	10	Octubre	2023-10-18T00:00:00	2024-11-08T09:00:00	7	Dirección del viento	0
53687	7	Sololá	701	Sololá	1	Sololá	10	Octubre	2023-10-18T00:00:00	2024-11-08T09:00:00	1	Precipitación	0
53688	7	Sololá	701	Sololá	1	Sololá	10	Octubre	2023-10-18T00:00:00	2024-11-08T09:00:00	8	Radiación solar	514
53689	7	Sololá	701	Sololá	1	Sololá	10	Octubre	2023-10-18T00:00:00	2024-11-08T10:00:00	2	Temperatura media	21.4
53690	7	Sololá	701	Sololá	1	Sololá	10	Octubre	2023-10-18T00:00:00	2024-11-08T10:00:00	4	Temperatura máxima	21.8
53691	7	Sololá	701	Sololá	1	Sololá	10	Octubre	2023-10-18T00:00:00	2024-11-08T10:00:00	3	Temperatura mínima	20.1
53692	7	Sololá	701	Sololá	1	Sololá	10	Octubre	2023-10-18T00:00:00	2024-11-08T10:00:00	5	Humedad	67
53693	7	Sololá	701	Sololá	1	Sololá	10	Octubre	2023-10-18T00:00:00	2024-11-08T10:00:00	6	Velocidad del viento	0
53694	7	Sololá	701	Sololá	1	Sololá	10	Octubre	2023-10-18T00:00:00	2024-11-08T10:00:00	7	Dirección del viento	0
53695	7	Sololá	701	Sololá	1	Sololá	10	Octubre	2023-10-18T00:00:00	2024-11-08T10:00:00	1	Precipitación	0
53696	7	Sololá	701	Sololá	1	Sololá	10	Octubre	2023-10-18T00:00:00	2024-11-08T10:00:00	8	Radiación solar	654
53697	7	Sololá	701	Sololá	1	Sololá	10	Octubre	2023-10-18T00:00:00	2024-11-08T11:00:00	2	Temperatura media	20.1
53698	7	Sololá	701	Sololá	1	Sololá	10	Octubre	2023-10-18T00:00:00	2024-11-08T11:00:00	4	Temperatura máxima	21.8
53699	7	Sololá	701	Sololá	1	Sololá	10	Octubre	2023-10-18T00:00:00	2024-11-08T11:00:00	3	Temperatura mínima	20.1
53700	7	Sololá	701	Sololá	1	Sololá	10	Octubre	2023-10-18T00:00:00	2024-11-08T11:00:00	5	Humedad	70
53701	7	Sololá	701	Sololá	1	Sololá	10	Octubre	2023-10-18T00:00:00	2024-11-08T11:00:00	6	Velocidad del viento	0
53702	7	Sololá	701	Sololá	1	Sololá	10	Octubre	2023-10-18T00:00:00	2024-11-08T11:00:00	7	Dirección del viento	0
53703	7	Sololá	701	Sololá	1	Sololá	10	Octubre	2023-10-18T00:00:00	2024-11-08T11:00:00	1	Precipitación	0
53704	7	Sololá	701	Sololá	1	Sololá	10	Octubre	2023-10-18T00:00:00	2024-11-08T11:00:00	8	Radiación solar	229
53705	7	Sololá	701	Sololá	1	Sololá	10	Octubre	2023-10-18T00:00:00	2024-11-08T12:00:00	2	Temperatura media	21.5
53706	7	Sololá	701	Sololá	1	Sololá	10	Octubre	2023-10-18T00:00:00	2024-11-08T12:00:00	4	Temperatura máxima	21.5
53707	7	Sololá	701	Sololá	1	Sololá	10	Octubre	2023-10-18T00:00:00	2024-11-08T12:00:00	3	Temperatura mínima	19.7
53708	7	Sololá	701	Sololá	1	Sololá	10	Octubre	2023-10-18T00:00:00	2024-11-08T12:00:00	5	Humedad	72
53709	7	Sololá	701	Sololá	1	Sololá	10	Octubre	2023-10-18T00:00:00	2024-11-08T12:00:00	6	Velocidad del viento	0
53710	7	Sololá	701	Sololá	1	Sololá	10	Octubre	2023-10-18T00:00:00	2024-11-08T12:00:00	7	Dirección del viento	0
53711	7	Sololá	701	Sololá	1	Sololá	10	Octubre	2023-10-18T00:00:00	2024-11-08T12:00:00	1	Precipitación	0
53712	7	Sololá	701	Sololá	1	Sololá	10	Octubre	2023-10-18T00:00:00	2024-11-08T12:00:00	8	Radiación solar	325
53713	7	Sololá	701	Sololá	1	Sololá	10	Octubre	2023-10-18T00:00:00	2024-11-08T13:00:00	2	Temperatura media	21.1
53714	7	Sololá	701	Sololá	1	Sololá	10	Octubre	2023-10-18T00:00:00	2024-11-08T13:00:00	4	Temperatura máxima	21.6
53715	7	Sololá	701	Sololá	1	Sololá	10	Octubre	2023-10-18T00:00:00	2024-11-08T13:00:00	3	Temperatura mínima	20.9
53716	7	Sololá	701	Sololá	1	Sololá	10	Octubre	2023-10-18T00:00:00	2024-11-08T13:00:00	5	Humedad	68
53717	7	Sololá	701	Sololá	1	Sololá	10	Octubre	2023-10-18T00:00:00	2024-11-08T13:00:00	6	Velocidad del viento	0
53718	7	Sololá	701	Sololá	1	Sololá	10	Octubre	2023-10-18T00:00:00	2024-11-08T13:00:00	7	Dirección del viento	0
53719	7	Sololá	701	Sololá	1	Sololá	10	Octubre	2023-10-18T00:00:00	2024-11-08T13:00:00	1	Precipitación	0
53720	7	Sololá	701	Sololá	1	Sololá	10	Octubre	2023-10-18T00:00:00	2024-11-08T13:00:00	8	Radiación solar	324
53721	7	Sololá	701	Sololá	1	Sololá	10	Octubre	2023-10-18T00:00:00	2024-11-08T14:00:00	2	Temperatura media	19.7
53722	7	Sololá	701	Sololá	1	Sololá	10	Octubre	2023-10-18T00:00:00	2024-11-08T14:00:00	4	Temperatura máxima	21.3
53723	7	Sololá	701	Sololá	1	Sololá	10	Octubre	2023-10-18T00:00:00	2024-11-08T14:00:00	3	Temperatura mínima	19.7
53724	7	Sololá	701	Sololá	1	Sololá	10	Octubre	2023-10-18T00:00:00	2024-11-08T14:00:00	5	Humedad	72
53725	7	Sololá	701	Sololá	1	Sololá	10	Octubre	2023-10-18T00:00:00	2024-11-08T14:00:00	6	Velocidad del viento	0
53726	7	Sololá	701	Sololá	1	Sololá	10	Octubre	2023-10-18T00:00:00	2024-11-08T14:00:00	7	Dirección del viento	0
53727	7	Sololá	701	Sololá	1	Sololá	10	Octubre	2023-10-18T00:00:00	2024-11-08T14:00:00	1	Precipitación	0
53728	7	Sololá	701	Sololá	1	Sololá	10	Octubre	2023-10-18T00:00:00	2024-11-08T14:00:00	8	Radiación solar	139
53729	7	Sololá	701	Sololá	1	Sololá	10	Octubre	2023-10-18T00:00:00	2024-11-08T15:00:00	2	Temperatura media	19.2
53730	7	Sololá	701	Sololá	1	Sololá	10	Octubre	2023-10-18T00:00:00	2024-11-08T15:00:00	4	Temperatura máxima	19.9
53731	7	Sololá	701	Sololá	1	Sololá	10	Octubre	2023-10-18T00:00:00	2024-11-08T15:00:00	3	Temperatura mínima	19.2
53732	7	Sololá	701	Sololá	1	Sololá	10	Octubre	2023-10-18T00:00:00	2024-11-08T15:00:00	5	Humedad	83
53733	7	Sololá	701	Sololá	1	Sololá	10	Octubre	2023-10-18T00:00:00	2024-11-08T15:00:00	6	Velocidad del viento	0
53734	7	Sololá	701	Sololá	1	Sololá	10	Octubre	2023-10-18T00:00:00	2024-11-08T15:00:00	7	Dirección del viento	0
53735	7	Sololá	701	Sololá	1	Sololá	10	Octubre	2023-10-18T00:00:00	2024-11-08T15:00:00	1	Precipitación	0
53736	7	Sololá	701	Sololá	1	Sololá	10	Octubre	2023-10-18T00:00:00	2024-11-08T15:00:00	8	Radiación solar	85
53737	7	Sololá	701	Sololá	1	Sololá	10	Octubre	2023-10-18T00:00:00	2024-11-08T16:00:00	2	Temperatura media	19.6
53738	7	Sololá	701	Sololá	1	Sololá	10	Octubre	2023-10-18T00:00:00	2024-11-08T16:00:00	4	Temperatura máxima	20.2
53739	7	Sololá	701	Sololá	1	Sololá	10	Octubre	2023-10-18T00:00:00	2024-11-08T16:00:00	3	Temperatura mínima	19
53740	7	Sololá	701	Sololá	1	Sololá	10	Octubre	2023-10-18T00:00:00	2024-11-08T16:00:00	5	Humedad	77
53741	7	Sololá	701	Sololá	1	Sololá	10	Octubre	2023-10-18T00:00:00	2024-11-08T16:00:00	6	Velocidad del viento	0
53742	7	Sololá	701	Sololá	1	Sololá	10	Octubre	2023-10-18T00:00:00	2024-11-08T16:00:00	7	Dirección del viento	0
53743	7	Sololá	701	Sololá	1	Sololá	10	Octubre	2023-10-18T00:00:00	2024-11-08T16:00:00	1	Precipitación	0
53744	7	Sololá	701	Sololá	1	Sololá	10	Octubre	2023-10-18T00:00:00	2024-11-08T16:00:00	8	Radiación solar	98
53745	7	Sololá	701	Sololá	1	Sololá	10	Octubre	2023-10-18T00:00:00	2024-11-08T17:00:00	2	Temperatura media	18.2
53746	7	Sololá	701	Sololá	1	Sololá	10	Octubre	2023-10-18T00:00:00	2024-11-08T17:00:00	4	Temperatura máxima	19.6
53747	7	Sololá	701	Sololá	1	Sololá	10	Octubre	2023-10-18T00:00:00	2024-11-08T17:00:00	3	Temperatura mínima	18.1
53748	7	Sololá	701	Sololá	1	Sololá	10	Octubre	2023-10-18T00:00:00	2024-11-08T17:00:00	5	Humedad	78
53749	7	Sololá	701	Sololá	1	Sololá	10	Octubre	2023-10-18T00:00:00	2024-11-08T17:00:00	6	Velocidad del viento	0
53750	7	Sololá	701	Sololá	1	Sololá	10	Octubre	2023-10-18T00:00:00	2024-11-08T17:00:00	7	Dirección del viento	0
53751	7	Sololá	701	Sololá	1	Sololá	10	Octubre	2023-10-18T00:00:00	2024-11-08T17:00:00	1	Precipitación	0
53752	7	Sololá	701	Sololá	1	Sololá	10	Octubre	2023-10-18T00:00:00	2024-11-08T17:00:00	8	Radiación solar	26
53753	7	Sololá	701	Sololá	1	Sololá	10	Octubre	2023-10-18T00:00:00	2024-11-08T18:00:00	2	Temperatura media	16.5
53754	7	Sololá	701	Sololá	1	Sololá	10	Octubre	2023-10-18T00:00:00	2024-11-08T18:00:00	4	Temperatura máxima	18.1
53755	7	Sololá	701	Sololá	1	Sololá	10	Octubre	2023-10-18T00:00:00	2024-11-08T18:00:00	3	Temperatura mínima	16.5
53756	7	Sololá	701	Sololá	1	Sololá	10	Octubre	2023-10-18T00:00:00	2024-11-08T18:00:00	5	Humedad	83
53757	7	Sololá	701	Sololá	1	Sololá	10	Octubre	2023-10-18T00:00:00	2024-11-08T18:00:00	6	Velocidad del viento	0
53758	7	Sololá	701	Sololá	1	Sololá	10	Octubre	2023-10-18T00:00:00	2024-11-08T18:00:00	7	Dirección del viento	0
53759	7	Sololá	701	Sololá	1	Sololá	10	Octubre	2023-10-18T00:00:00	2024-11-08T18:00:00	1	Precipitación	0
53760	7	Sololá	701	Sololá	1	Sololá	10	Octubre	2023-10-18T00:00:00	2024-11-08T18:00:00	8	Radiación solar	6
53761	7	Sololá	701	Sololá	1	Sololá	10	Octubre	2023-10-18T00:00:00	2024-11-08T19:00:00	2	Temperatura media	15.9
53762	7	Sololá	701	Sololá	1	Sololá	10	Octubre	2023-10-18T00:00:00	2024-11-08T19:00:00	4	Temperatura máxima	16.5
53763	7	Sololá	701	Sololá	1	Sololá	10	Octubre	2023-10-18T00:00:00	2024-11-08T19:00:00	3	Temperatura mínima	15.9
53764	7	Sololá	701	Sololá	1	Sololá	10	Octubre	2023-10-18T00:00:00	2024-11-08T19:00:00	5	Humedad	85
53765	7	Sololá	701	Sololá	1	Sololá	10	Octubre	2023-10-18T00:00:00	2024-11-08T19:00:00	6	Velocidad del viento	0
53766	7	Sololá	701	Sololá	1	Sololá	10	Octubre	2023-10-18T00:00:00	2024-11-08T19:00:00	7	Dirección del viento	0
53767	7	Sololá	701	Sololá	1	Sololá	10	Octubre	2023-10-18T00:00:00	2024-11-08T19:00:00	1	Precipitación	0
53768	7	Sololá	701	Sololá	1	Sololá	10	Octubre	2023-10-18T00:00:00	2024-11-08T19:00:00	8	Radiación solar	0
53769	7	Sololá	701	Sololá	1	Sololá	10	Octubre	2023-10-18T00:00:00	2024-11-08T20:00:00	2	Temperatura media	15.7
53770	7	Sololá	701	Sololá	1	Sololá	10	Octubre	2023-10-18T00:00:00	2024-11-08T20:00:00	4	Temperatura máxima	15.9
53771	7	Sololá	701	Sololá	1	Sololá	10	Octubre	2023-10-18T00:00:00	2024-11-08T20:00:00	3	Temperatura mínima	15.7
53772	7	Sololá	701	Sololá	1	Sololá	10	Octubre	2023-10-18T00:00:00	2024-11-08T20:00:00	5	Humedad	86
53773	7	Sololá	701	Sololá	1	Sololá	10	Octubre	2023-10-18T00:00:00	2024-11-08T20:00:00	6	Velocidad del viento	0
53774	7	Sololá	701	Sololá	1	Sololá	10	Octubre	2023-10-18T00:00:00	2024-11-08T20:00:00	7	Dirección del viento	0
53775	7	Sololá	701	Sololá	1	Sololá	10	Octubre	2023-10-18T00:00:00	2024-11-08T20:00:00	1	Precipitación	0
53776	7	Sololá	701	Sololá	1	Sololá	10	Octubre	2023-10-18T00:00:00	2024-11-08T20:00:00	8	Radiación solar	0
53777	7	Sololá	701	Sololá	1	Sololá	10	Octubre	2023-10-18T00:00:00	2024-11-08T21:00:00	2	Temperatura media	15.3
53778	7	Sololá	701	Sololá	1	Sololá	10	Octubre	2023-10-18T00:00:00	2024-11-08T21:00:00	4	Temperatura máxima	15.7
53779	7	Sololá	701	Sololá	1	Sololá	10	Octubre	2023-10-18T00:00:00	2024-11-08T21:00:00	3	Temperatura mínima	15.3
53780	7	Sololá	701	Sololá	1	Sololá	10	Octubre	2023-10-18T00:00:00	2024-11-08T21:00:00	5	Humedad	87
53781	7	Sololá	701	Sololá	1	Sololá	10	Octubre	2023-10-18T00:00:00	2024-11-08T21:00:00	6	Velocidad del viento	0
53782	7	Sololá	701	Sololá	1	Sololá	10	Octubre	2023-10-18T00:00:00	2024-11-08T21:00:00	7	Dirección del viento	0
53783	7	Sololá	701	Sololá	1	Sololá	10	Octubre	2023-10-18T00:00:00	2024-11-08T21:00:00	1	Precipitación	0
53784	7	Sololá	701	Sololá	1	Sololá	10	Octubre	2023-10-18T00:00:00	2024-11-08T21:00:00	8	Radiación solar	0
53785	7	Sololá	701	Sololá	1	Sololá	10	Octubre	2023-10-18T00:00:00	2024-11-08T22:00:00	2	Temperatura media	14.4
53786	7	Sololá	701	Sololá	1	Sololá	10	Octubre	2023-10-18T00:00:00	2024-11-08T22:00:00	4	Temperatura máxima	15.3
53787	7	Sololá	701	Sololá	1	Sololá	10	Octubre	2023-10-18T00:00:00	2024-11-08T22:00:00	3	Temperatura mínima	14.4
53788	7	Sololá	701	Sololá	1	Sololá	10	Octubre	2023-10-18T00:00:00	2024-11-08T22:00:00	5	Humedad	89
53789	7	Sololá	701	Sololá	1	Sololá	10	Octubre	2023-10-18T00:00:00	2024-11-08T22:00:00	6	Velocidad del viento	0
53790	7	Sololá	701	Sololá	1	Sololá	10	Octubre	2023-10-18T00:00:00	2024-11-08T22:00:00	7	Dirección del viento	0
53791	7	Sololá	701	Sololá	1	Sololá	10	Octubre	2023-10-18T00:00:00	2024-11-08T22:00:00	1	Precipitación	0
53792	7	Sololá	701	Sololá	1	Sololá	10	Octubre	2023-10-18T00:00:00	2024-11-08T22:00:00	8	Radiación solar	0
53793	7	Sololá	701	Sololá	1	Sololá	10	Octubre	2023-10-18T00:00:00	2024-11-08T23:00:00	2	Temperatura media	13.9
53794	7	Sololá	701	Sololá	1	Sololá	10	Octubre	2023-10-18T00:00:00	2024-11-08T23:00:00	4	Temperatura máxima	14.4
53795	7	Sololá	701	Sololá	1	Sololá	10	Octubre	2023-10-18T00:00:00	2024-11-08T23:00:00	3	Temperatura mínima	13.9
53796	7	Sololá	701	Sololá	1	Sololá	10	Octubre	2023-10-18T00:00:00	2024-11-08T23:00:00	5	Humedad	89
53797	7	Sololá	701	Sololá	1	Sololá	10	Octubre	2023-10-18T00:00:00	2024-11-08T23:00:00	6	Velocidad del viento	0
53798	7	Sololá	701	Sololá	1	Sololá	10	Octubre	2023-10-18T00:00:00	2024-11-08T23:00:00	7	Dirección del viento	0
53799	7	Sololá	701	Sololá	1	Sololá	10	Octubre	2023-10-18T00:00:00	2024-11-08T23:00:00	1	Precipitación	0
53800	7	Sololá	701	Sololá	1	Sololá	10	Octubre	2023-10-18T00:00:00	2024-11-08T23:00:00	8	Radiación solar	0
53801	7	Sololá	701	Sololá	1	Sololá	10	Octubre	2023-10-19T00:00:00	2024-11-08T00:00:00	2	Temperatura media	13.4
53802	7	Sololá	701	Sololá	1	Sololá	10	Octubre	2023-10-19T00:00:00	2024-11-08T00:00:00	4	Temperatura máxima	13.9
53803	7	Sololá	701	Sololá	1	Sololá	10	Octubre	2023-10-19T00:00:00	2024-11-08T00:00:00	3	Temperatura mínima	13.4
53804	7	Sololá	701	Sololá	1	Sololá	10	Octubre	2023-10-19T00:00:00	2024-11-08T00:00:00	5	Humedad	90
53805	7	Sololá	701	Sololá	1	Sololá	10	Octubre	2023-10-19T00:00:00	2024-11-08T00:00:00	6	Velocidad del viento	0
53806	7	Sololá	701	Sololá	1	Sololá	10	Octubre	2023-10-19T00:00:00	2024-11-08T00:00:00	7	Dirección del viento	0
53807	7	Sololá	701	Sololá	1	Sololá	10	Octubre	2023-10-19T00:00:00	2024-11-08T00:00:00	1	Precipitación	0
53808	7	Sololá	701	Sololá	1	Sololá	10	Octubre	2023-10-19T00:00:00	2024-11-08T00:00:00	8	Radiación solar	0
53809	7	Sololá	701	Sololá	1	Sololá	10	Octubre	2023-10-19T00:00:00	2024-11-08T01:00:00	2	Temperatura media	12.9
53810	7	Sololá	701	Sololá	1	Sololá	10	Octubre	2023-10-19T00:00:00	2024-11-08T01:00:00	4	Temperatura máxima	13.5
53811	7	Sololá	701	Sololá	1	Sololá	10	Octubre	2023-10-19T00:00:00	2024-11-08T01:00:00	3	Temperatura mínima	12.9
53812	7	Sololá	701	Sololá	1	Sololá	10	Octubre	2023-10-19T00:00:00	2024-11-08T01:00:00	5	Humedad	91
53813	7	Sololá	701	Sololá	1	Sololá	10	Octubre	2023-10-19T00:00:00	2024-11-08T01:00:00	6	Velocidad del viento	0
53814	7	Sololá	701	Sololá	1	Sololá	10	Octubre	2023-10-19T00:00:00	2024-11-08T01:00:00	7	Dirección del viento	0
53815	7	Sololá	701	Sololá	1	Sololá	10	Octubre	2023-10-19T00:00:00	2024-11-08T01:00:00	1	Precipitación	0
53816	7	Sololá	701	Sololá	1	Sololá	10	Octubre	2023-10-19T00:00:00	2024-11-08T01:00:00	8	Radiación solar	0
53817	7	Sololá	701	Sololá	1	Sololá	10	Octubre	2023-10-19T00:00:00	2024-11-08T02:00:00	2	Temperatura media	13.2
53818	7	Sololá	701	Sololá	1	Sololá	10	Octubre	2023-10-19T00:00:00	2024-11-08T02:00:00	4	Temperatura máxima	13.3
53819	7	Sololá	701	Sololá	1	Sololá	10	Octubre	2023-10-19T00:00:00	2024-11-08T02:00:00	3	Temperatura mínima	12.9
53820	7	Sololá	701	Sololá	1	Sololá	10	Octubre	2023-10-19T00:00:00	2024-11-08T02:00:00	5	Humedad	91
53821	7	Sololá	701	Sololá	1	Sololá	10	Octubre	2023-10-19T00:00:00	2024-11-08T02:00:00	6	Velocidad del viento	0
53822	7	Sololá	701	Sololá	1	Sololá	10	Octubre	2023-10-19T00:00:00	2024-11-08T02:00:00	7	Dirección del viento	0
53823	7	Sololá	701	Sololá	1	Sololá	10	Octubre	2023-10-19T00:00:00	2024-11-08T02:00:00	1	Precipitación	0
53824	7	Sololá	701	Sololá	1	Sololá	10	Octubre	2023-10-19T00:00:00	2024-11-08T02:00:00	8	Radiación solar	0
53825	7	Sololá	701	Sololá	1	Sololá	10	Octubre	2023-10-19T00:00:00	2024-11-08T03:00:00	2	Temperatura media	13.1
53826	7	Sololá	701	Sololá	1	Sololá	10	Octubre	2023-10-19T00:00:00	2024-11-08T03:00:00	4	Temperatura máxima	13.3
53827	7	Sololá	701	Sololá	1	Sololá	10	Octubre	2023-10-19T00:00:00	2024-11-08T03:00:00	3	Temperatura mínima	13.1
53828	7	Sololá	701	Sololá	1	Sololá	10	Octubre	2023-10-19T00:00:00	2024-11-08T03:00:00	5	Humedad	91
53829	7	Sololá	701	Sololá	1	Sololá	10	Octubre	2023-10-19T00:00:00	2024-11-08T03:00:00	6	Velocidad del viento	0
53830	7	Sololá	701	Sololá	1	Sololá	10	Octubre	2023-10-19T00:00:00	2024-11-08T03:00:00	7	Dirección del viento	0
53831	7	Sololá	701	Sololá	1	Sololá	10	Octubre	2023-10-19T00:00:00	2024-11-08T03:00:00	1	Precipitación	0
53832	7	Sololá	701	Sololá	1	Sololá	10	Octubre	2023-10-19T00:00:00	2024-11-08T03:00:00	8	Radiación solar	0
53833	7	Sololá	701	Sololá	1	Sololá	10	Octubre	2023-10-19T00:00:00	2024-11-08T04:00:00	2	Temperatura media	12.8
53834	7	Sololá	701	Sololá	1	Sololá	10	Octubre	2023-10-19T00:00:00	2024-11-08T04:00:00	4	Temperatura máxima	13.1
53835	7	Sololá	701	Sololá	1	Sololá	10	Octubre	2023-10-19T00:00:00	2024-11-08T04:00:00	3	Temperatura mínima	12.8
53836	7	Sololá	701	Sololá	1	Sololá	10	Octubre	2023-10-19T00:00:00	2024-11-08T04:00:00	5	Humedad	92
53837	7	Sololá	701	Sololá	1	Sololá	10	Octubre	2023-10-19T00:00:00	2024-11-08T04:00:00	6	Velocidad del viento	0
53838	7	Sololá	701	Sololá	1	Sololá	10	Octubre	2023-10-19T00:00:00	2024-11-08T04:00:00	7	Dirección del viento	0
53839	7	Sololá	701	Sololá	1	Sololá	10	Octubre	2023-10-19T00:00:00	2024-11-08T04:00:00	1	Precipitación	0
53840	7	Sololá	701	Sololá	1	Sololá	10	Octubre	2023-10-19T00:00:00	2024-11-08T04:00:00	8	Radiación solar	0
53841	7	Sololá	701	Sololá	1	Sololá	10	Octubre	2023-10-19T00:00:00	2024-11-08T05:00:00	2	Temperatura media	12.7
53842	7	Sololá	701	Sololá	1	Sololá	10	Octubre	2023-10-19T00:00:00	2024-11-08T05:00:00	4	Temperatura máxima	12.9
53843	7	Sololá	701	Sololá	1	Sololá	10	Octubre	2023-10-19T00:00:00	2024-11-08T05:00:00	3	Temperatura mínima	12.6
53844	7	Sololá	701	Sololá	1	Sololá	10	Octubre	2023-10-19T00:00:00	2024-11-08T05:00:00	5	Humedad	92
53845	7	Sololá	701	Sololá	1	Sololá	10	Octubre	2023-10-19T00:00:00	2024-11-08T05:00:00	6	Velocidad del viento	0
53846	7	Sololá	701	Sololá	1	Sololá	10	Octubre	2023-10-19T00:00:00	2024-11-08T05:00:00	7	Dirección del viento	0
53847	7	Sololá	701	Sololá	1	Sololá	10	Octubre	2023-10-19T00:00:00	2024-11-08T05:00:00	1	Precipitación	0
53848	7	Sololá	701	Sololá	1	Sololá	10	Octubre	2023-10-19T00:00:00	2024-11-08T05:00:00	8	Radiación solar	0
53849	7	Sololá	701	Sololá	1	Sololá	10	Octubre	2023-10-19T00:00:00	2024-11-08T06:00:00	2	Temperatura media	12.9
53850	7	Sololá	701	Sololá	1	Sololá	10	Octubre	2023-10-19T00:00:00	2024-11-08T06:00:00	4	Temperatura máxima	13
53851	7	Sololá	701	Sololá	1	Sololá	10	Octubre	2023-10-19T00:00:00	2024-11-08T06:00:00	3	Temperatura mínima	12.4
53852	7	Sololá	701	Sololá	1	Sololá	10	Octubre	2023-10-19T00:00:00	2024-11-08T06:00:00	5	Humedad	92
53853	7	Sololá	701	Sololá	1	Sololá	10	Octubre	2023-10-19T00:00:00	2024-11-08T06:00:00	6	Velocidad del viento	0
53854	7	Sololá	701	Sololá	1	Sololá	10	Octubre	2023-10-19T00:00:00	2024-11-08T06:00:00	7	Dirección del viento	0
53855	7	Sololá	701	Sololá	1	Sololá	10	Octubre	2023-10-19T00:00:00	2024-11-08T06:00:00	1	Precipitación	0
53856	7	Sololá	701	Sololá	1	Sololá	10	Octubre	2023-10-19T00:00:00	2024-11-08T06:00:00	8	Radiación solar	0
53857	7	Sololá	701	Sololá	1	Sololá	10	Octubre	2023-10-19T00:00:00	2024-11-08T07:00:00	2	Temperatura media	13.6
53858	7	Sololá	701	Sololá	1	Sololá	10	Octubre	2023-10-19T00:00:00	2024-11-08T07:00:00	4	Temperatura máxima	13.6
53859	7	Sololá	701	Sololá	1	Sololá	10	Octubre	2023-10-19T00:00:00	2024-11-08T07:00:00	3	Temperatura mínima	12.9
53860	7	Sololá	701	Sololá	1	Sololá	10	Octubre	2023-10-19T00:00:00	2024-11-08T07:00:00	5	Humedad	92
53861	7	Sololá	701	Sololá	1	Sololá	10	Octubre	2023-10-19T00:00:00	2024-11-08T07:00:00	6	Velocidad del viento	0
53862	7	Sololá	701	Sololá	1	Sololá	10	Octubre	2023-10-19T00:00:00	2024-11-08T07:00:00	7	Dirección del viento	0
53863	7	Sololá	701	Sololá	1	Sololá	10	Octubre	2023-10-19T00:00:00	2024-11-08T07:00:00	1	Precipitación	0
53864	7	Sololá	701	Sololá	1	Sololá	10	Octubre	2023-10-19T00:00:00	2024-11-08T07:00:00	8	Radiación solar	20
53865	7	Sololá	701	Sololá	1	Sololá	10	Octubre	2023-10-19T00:00:00	2024-11-08T08:00:00	2	Temperatura media	16.3
53866	7	Sololá	701	Sololá	1	Sololá	10	Octubre	2023-10-19T00:00:00	2024-11-08T08:00:00	4	Temperatura máxima	16.3
53867	7	Sololá	701	Sololá	1	Sololá	10	Octubre	2023-10-19T00:00:00	2024-11-08T08:00:00	3	Temperatura mínima	13.6
53868	7	Sololá	701	Sololá	1	Sololá	10	Octubre	2023-10-19T00:00:00	2024-11-08T08:00:00	5	Humedad	85
53869	7	Sololá	701	Sololá	1	Sololá	10	Octubre	2023-10-19T00:00:00	2024-11-08T08:00:00	6	Velocidad del viento	0
53870	7	Sololá	701	Sololá	1	Sololá	10	Octubre	2023-10-19T00:00:00	2024-11-08T08:00:00	7	Dirección del viento	0
53871	7	Sololá	701	Sololá	1	Sololá	10	Octubre	2023-10-19T00:00:00	2024-11-08T08:00:00	1	Precipitación	0
53872	7	Sololá	701	Sololá	1	Sololá	10	Octubre	2023-10-19T00:00:00	2024-11-08T08:00:00	8	Radiación solar	68
53873	7	Sololá	701	Sololá	1	Sololá	10	Octubre	2023-10-19T00:00:00	2024-11-08T09:00:00	2	Temperatura media	21.8
53874	7	Sololá	701	Sololá	1	Sololá	10	Octubre	2023-10-19T00:00:00	2024-11-08T09:00:00	4	Temperatura máxima	21.9
53875	7	Sololá	701	Sololá	1	Sololá	10	Octubre	2023-10-19T00:00:00	2024-11-08T09:00:00	3	Temperatura mínima	16.3
53876	7	Sololá	701	Sololá	1	Sololá	10	Octubre	2023-10-19T00:00:00	2024-11-08T09:00:00	5	Humedad	71
53877	7	Sololá	701	Sololá	1	Sololá	10	Octubre	2023-10-19T00:00:00	2024-11-08T09:00:00	6	Velocidad del viento	0
53878	7	Sololá	701	Sololá	1	Sololá	10	Octubre	2023-10-19T00:00:00	2024-11-08T09:00:00	7	Dirección del viento	0
53879	7	Sololá	701	Sololá	1	Sololá	10	Octubre	2023-10-19T00:00:00	2024-11-08T09:00:00	1	Precipitación	0
53880	7	Sololá	701	Sololá	1	Sololá	10	Octubre	2023-10-19T00:00:00	2024-11-08T09:00:00	8	Radiación solar	606
53881	7	Sololá	701	Sololá	1	Sololá	10	Octubre	2023-10-19T00:00:00	2024-11-08T10:00:00	2	Temperatura media	22.1
53882	7	Sololá	701	Sololá	1	Sololá	10	Octubre	2023-10-19T00:00:00	2024-11-08T10:00:00	4	Temperatura máxima	23
53883	7	Sololá	701	Sololá	1	Sololá	10	Octubre	2023-10-19T00:00:00	2024-11-08T10:00:00	3	Temperatura mínima	21.9
53884	7	Sololá	701	Sololá	1	Sololá	10	Octubre	2023-10-19T00:00:00	2024-11-08T10:00:00	5	Humedad	70
53885	7	Sololá	701	Sololá	1	Sololá	10	Octubre	2023-10-19T00:00:00	2024-11-08T10:00:00	6	Velocidad del viento	0
53886	7	Sololá	701	Sololá	1	Sololá	10	Octubre	2023-10-19T00:00:00	2024-11-08T10:00:00	7	Dirección del viento	0
53887	7	Sololá	701	Sololá	1	Sololá	10	Octubre	2023-10-19T00:00:00	2024-11-08T10:00:00	1	Precipitación	0
53888	7	Sololá	701	Sololá	1	Sololá	10	Octubre	2023-10-19T00:00:00	2024-11-08T10:00:00	8	Radiación solar	565
53889	7	Sololá	701	Sololá	1	Sololá	10	Octubre	2023-10-19T00:00:00	2024-11-08T11:00:00	2	Temperatura media	20
53890	7	Sololá	701	Sololá	1	Sololá	10	Octubre	2023-10-19T00:00:00	2024-11-08T11:00:00	4	Temperatura máxima	22.1
53891	7	Sololá	701	Sololá	1	Sololá	10	Octubre	2023-10-19T00:00:00	2024-11-08T11:00:00	3	Temperatura mínima	19.8
53892	7	Sololá	701	Sololá	1	Sololá	10	Octubre	2023-10-19T00:00:00	2024-11-08T11:00:00	5	Humedad	77
53893	7	Sololá	701	Sololá	1	Sololá	10	Octubre	2023-10-19T00:00:00	2024-11-08T11:00:00	6	Velocidad del viento	0
53894	7	Sololá	701	Sololá	1	Sololá	10	Octubre	2023-10-19T00:00:00	2024-11-08T11:00:00	7	Dirección del viento	0
53895	7	Sololá	701	Sololá	1	Sololá	10	Octubre	2023-10-19T00:00:00	2024-11-08T11:00:00	1	Precipitación	0
53896	7	Sololá	701	Sololá	1	Sololá	10	Octubre	2023-10-19T00:00:00	2024-11-08T11:00:00	8	Radiación solar	205
53897	7	Sololá	701	Sololá	1	Sololá	10	Octubre	2023-10-19T00:00:00	2024-11-08T12:00:00	2	Temperatura media	18.5
53898	7	Sololá	701	Sololá	1	Sololá	10	Octubre	2023-10-19T00:00:00	2024-11-08T12:00:00	4	Temperatura máxima	20
53899	7	Sololá	701	Sololá	1	Sololá	10	Octubre	2023-10-19T00:00:00	2024-11-08T12:00:00	3	Temperatura mínima	18.5
53900	7	Sololá	701	Sololá	1	Sololá	10	Octubre	2023-10-19T00:00:00	2024-11-08T12:00:00	5	Humedad	84
53901	7	Sololá	701	Sololá	1	Sololá	10	Octubre	2023-10-19T00:00:00	2024-11-08T12:00:00	6	Velocidad del viento	0
53902	7	Sololá	701	Sololá	1	Sololá	10	Octubre	2023-10-19T00:00:00	2024-11-08T12:00:00	7	Dirección del viento	0
53903	7	Sololá	701	Sololá	1	Sololá	10	Octubre	2023-10-19T00:00:00	2024-11-08T12:00:00	1	Precipitación	0
53904	7	Sololá	701	Sololá	1	Sololá	10	Octubre	2023-10-19T00:00:00	2024-11-08T12:00:00	8	Radiación solar	64
53905	7	Sololá	701	Sololá	1	Sololá	10	Octubre	2023-10-19T00:00:00	2024-11-08T13:00:00	2	Temperatura media	18.2
53906	7	Sololá	701	Sololá	1	Sololá	10	Octubre	2023-10-19T00:00:00	2024-11-08T13:00:00	4	Temperatura máxima	18.5
53907	7	Sololá	701	Sololá	1	Sololá	10	Octubre	2023-10-19T00:00:00	2024-11-08T13:00:00	3	Temperatura mínima	18.2
53908	7	Sololá	701	Sololá	1	Sololá	10	Octubre	2023-10-19T00:00:00	2024-11-08T13:00:00	5	Humedad	90
53909	7	Sololá	701	Sololá	1	Sololá	10	Octubre	2023-10-19T00:00:00	2024-11-08T13:00:00	6	Velocidad del viento	0
53910	7	Sololá	701	Sololá	1	Sololá	10	Octubre	2023-10-19T00:00:00	2024-11-08T13:00:00	7	Dirección del viento	0
53911	7	Sololá	701	Sololá	1	Sololá	10	Octubre	2023-10-19T00:00:00	2024-11-08T13:00:00	1	Precipitación	0
53912	7	Sololá	701	Sololá	1	Sololá	10	Octubre	2023-10-19T00:00:00	2024-11-08T13:00:00	8	Radiación solar	91
53913	7	Sololá	701	Sololá	1	Sololá	10	Octubre	2023-10-19T00:00:00	2024-11-08T14:00:00	2	Temperatura media	17.9
53914	7	Sololá	701	Sololá	1	Sololá	10	Octubre	2023-10-19T00:00:00	2024-11-08T14:00:00	4	Temperatura máxima	18.2
53915	7	Sololá	701	Sololá	1	Sololá	10	Octubre	2023-10-19T00:00:00	2024-11-08T14:00:00	3	Temperatura mínima	17.7
53916	7	Sololá	701	Sololá	1	Sololá	10	Octubre	2023-10-19T00:00:00	2024-11-08T14:00:00	5	Humedad	91
53917	7	Sololá	701	Sololá	1	Sololá	10	Octubre	2023-10-19T00:00:00	2024-11-08T14:00:00	6	Velocidad del viento	0
53918	7	Sololá	701	Sololá	1	Sololá	10	Octubre	2023-10-19T00:00:00	2024-11-08T14:00:00	7	Dirección del viento	0
53919	7	Sololá	701	Sololá	1	Sololá	10	Octubre	2023-10-19T00:00:00	2024-11-08T14:00:00	1	Precipitación	0
53920	7	Sololá	701	Sololá	1	Sololá	10	Octubre	2023-10-19T00:00:00	2024-11-08T14:00:00	8	Radiación solar	86
53921	7	Sololá	701	Sololá	1	Sololá	10	Octubre	2023-10-19T00:00:00	2024-11-08T15:00:00	2	Temperatura media	18.3
53922	7	Sololá	701	Sololá	1	Sololá	10	Octubre	2023-10-19T00:00:00	2024-11-08T15:00:00	4	Temperatura máxima	18.7
53923	7	Sololá	701	Sololá	1	Sololá	10	Octubre	2023-10-19T00:00:00	2024-11-08T15:00:00	3	Temperatura mínima	17.9
53924	7	Sololá	701	Sololá	1	Sololá	10	Octubre	2023-10-19T00:00:00	2024-11-08T15:00:00	5	Humedad	90
53925	7	Sololá	701	Sololá	1	Sololá	10	Octubre	2023-10-19T00:00:00	2024-11-08T15:00:00	6	Velocidad del viento	0
53926	7	Sololá	701	Sololá	1	Sololá	10	Octubre	2023-10-19T00:00:00	2024-11-08T15:00:00	7	Dirección del viento	0
53927	7	Sololá	701	Sololá	1	Sololá	10	Octubre	2023-10-19T00:00:00	2024-11-08T15:00:00	1	Precipitación	0
53928	7	Sololá	701	Sololá	1	Sololá	10	Octubre	2023-10-19T00:00:00	2024-11-08T15:00:00	8	Radiación solar	122
53929	7	Sololá	701	Sololá	1	Sololá	10	Octubre	2023-10-19T00:00:00	2024-11-08T16:00:00	2	Temperatura media	17.1
53930	7	Sololá	701	Sololá	1	Sololá	10	Octubre	2023-10-19T00:00:00	2024-11-08T16:00:00	4	Temperatura máxima	18.3
53931	7	Sololá	701	Sololá	1	Sololá	10	Octubre	2023-10-19T00:00:00	2024-11-08T16:00:00	3	Temperatura mínima	17
53932	7	Sololá	701	Sololá	1	Sololá	10	Octubre	2023-10-19T00:00:00	2024-11-08T16:00:00	5	Humedad	94
53933	7	Sololá	701	Sololá	1	Sololá	10	Octubre	2023-10-19T00:00:00	2024-11-08T16:00:00	6	Velocidad del viento	0
53934	7	Sololá	701	Sololá	1	Sololá	10	Octubre	2023-10-19T00:00:00	2024-11-08T16:00:00	7	Dirección del viento	0
53935	7	Sololá	701	Sololá	1	Sololá	10	Octubre	2023-10-19T00:00:00	2024-11-08T16:00:00	1	Precipitación	0
53936	7	Sololá	701	Sololá	1	Sololá	10	Octubre	2023-10-19T00:00:00	2024-11-08T16:00:00	8	Radiación solar	14
53937	7	Sololá	701	Sololá	1	Sololá	10	Octubre	2023-10-19T00:00:00	2024-11-08T17:00:00	2	Temperatura media	16.8
53938	7	Sololá	701	Sololá	1	Sololá	10	Octubre	2023-10-19T00:00:00	2024-11-08T17:00:00	4	Temperatura máxima	17.1
53939	7	Sololá	701	Sololá	1	Sololá	10	Octubre	2023-10-19T00:00:00	2024-11-08T17:00:00	3	Temperatura mínima	16.8
53940	7	Sololá	701	Sololá	1	Sololá	10	Octubre	2023-10-19T00:00:00	2024-11-08T17:00:00	5	Humedad	94
53941	7	Sololá	701	Sololá	1	Sololá	10	Octubre	2023-10-19T00:00:00	2024-11-08T17:00:00	6	Velocidad del viento	0
53942	7	Sololá	701	Sololá	1	Sololá	10	Octubre	2023-10-19T00:00:00	2024-11-08T17:00:00	7	Dirección del viento	0
53943	7	Sololá	701	Sololá	1	Sololá	10	Octubre	2023-10-19T00:00:00	2024-11-08T17:00:00	1	Precipitación	0
53944	7	Sololá	701	Sololá	1	Sololá	10	Octubre	2023-10-19T00:00:00	2024-11-08T17:00:00	8	Radiación solar	23
53945	7	Sololá	701	Sololá	1	Sololá	10	Octubre	2023-10-19T00:00:00	2024-11-08T18:00:00	2	Temperatura media	16.4
53946	7	Sololá	701	Sololá	1	Sololá	10	Octubre	2023-10-19T00:00:00	2024-11-08T18:00:00	4	Temperatura máxima	16.8
53947	7	Sololá	701	Sololá	1	Sololá	10	Octubre	2023-10-19T00:00:00	2024-11-08T18:00:00	3	Temperatura mínima	16.4
53948	7	Sololá	701	Sololá	1	Sololá	10	Octubre	2023-10-19T00:00:00	2024-11-08T18:00:00	5	Humedad	94
53949	7	Sololá	701	Sololá	1	Sololá	10	Octubre	2023-10-19T00:00:00	2024-11-08T18:00:00	6	Velocidad del viento	0
53950	7	Sololá	701	Sololá	1	Sololá	10	Octubre	2023-10-19T00:00:00	2024-11-08T18:00:00	7	Dirección del viento	0
53951	7	Sololá	701	Sololá	1	Sololá	10	Octubre	2023-10-19T00:00:00	2024-11-08T18:00:00	1	Precipitación	0
53952	7	Sololá	701	Sololá	1	Sololá	10	Octubre	2023-10-19T00:00:00	2024-11-08T18:00:00	8	Radiación solar	2
53953	7	Sololá	701	Sololá	1	Sololá	10	Octubre	2023-10-19T00:00:00	2024-11-08T19:00:00	2	Temperatura media	15.4
53954	7	Sololá	701	Sololá	1	Sololá	10	Octubre	2023-10-19T00:00:00	2024-11-08T19:00:00	4	Temperatura máxima	16.4
53955	7	Sololá	701	Sololá	1	Sololá	10	Octubre	2023-10-19T00:00:00	2024-11-08T19:00:00	3	Temperatura mínima	15.4
53956	7	Sololá	701	Sololá	1	Sololá	10	Octubre	2023-10-19T00:00:00	2024-11-08T19:00:00	5	Humedad	94
53957	7	Sololá	701	Sololá	1	Sololá	10	Octubre	2023-10-19T00:00:00	2024-11-08T19:00:00	6	Velocidad del viento	0
53958	7	Sololá	701	Sololá	1	Sololá	10	Octubre	2023-10-19T00:00:00	2024-11-08T19:00:00	7	Dirección del viento	0
53959	7	Sololá	701	Sololá	1	Sololá	10	Octubre	2023-10-19T00:00:00	2024-11-08T19:00:00	1	Precipitación	0
53960	7	Sololá	701	Sololá	1	Sololá	10	Octubre	2023-10-19T00:00:00	2024-11-08T19:00:00	8	Radiación solar	0
53961	7	Sololá	701	Sololá	1	Sololá	10	Octubre	2023-10-19T00:00:00	2024-11-08T20:00:00	2	Temperatura media	15.3
53962	7	Sololá	701	Sololá	1	Sololá	10	Octubre	2023-10-19T00:00:00	2024-11-08T20:00:00	4	Temperatura máxima	15.5
53963	7	Sololá	701	Sololá	1	Sololá	10	Octubre	2023-10-19T00:00:00	2024-11-08T20:00:00	3	Temperatura mínima	15.3
53964	7	Sololá	701	Sololá	1	Sololá	10	Octubre	2023-10-19T00:00:00	2024-11-08T20:00:00	5	Humedad	94
53965	7	Sololá	701	Sololá	1	Sololá	10	Octubre	2023-10-19T00:00:00	2024-11-08T20:00:00	6	Velocidad del viento	0
53966	7	Sololá	701	Sololá	1	Sololá	10	Octubre	2023-10-19T00:00:00	2024-11-08T20:00:00	7	Dirección del viento	0
53967	7	Sololá	701	Sololá	1	Sololá	10	Octubre	2023-10-19T00:00:00	2024-11-08T20:00:00	1	Precipitación	0
53968	7	Sololá	701	Sololá	1	Sololá	10	Octubre	2023-10-19T00:00:00	2024-11-08T20:00:00	8	Radiación solar	0
53969	7	Sololá	701	Sololá	1	Sololá	10	Octubre	2023-10-19T00:00:00	2024-11-08T21:00:00	2	Temperatura media	15.2
53970	7	Sololá	701	Sololá	1	Sololá	10	Octubre	2023-10-19T00:00:00	2024-11-08T21:00:00	4	Temperatura máxima	15.4
53971	7	Sololá	701	Sololá	1	Sololá	10	Octubre	2023-10-19T00:00:00	2024-11-08T21:00:00	3	Temperatura mínima	15.1
53972	7	Sololá	701	Sololá	1	Sololá	10	Octubre	2023-10-19T00:00:00	2024-11-08T21:00:00	5	Humedad	94
53973	7	Sololá	701	Sololá	1	Sololá	10	Octubre	2023-10-19T00:00:00	2024-11-08T21:00:00	6	Velocidad del viento	0
53974	7	Sololá	701	Sololá	1	Sololá	10	Octubre	2023-10-19T00:00:00	2024-11-08T21:00:00	7	Dirección del viento	0
53975	7	Sololá	701	Sololá	1	Sololá	10	Octubre	2023-10-19T00:00:00	2024-11-08T21:00:00	1	Precipitación	0
53976	7	Sololá	701	Sololá	1	Sololá	10	Octubre	2023-10-19T00:00:00	2024-11-08T21:00:00	8	Radiación solar	0
53977	7	Sololá	701	Sololá	1	Sololá	10	Octubre	2023-10-19T00:00:00	2024-11-08T22:00:00	2	Temperatura media	15.3
53978	7	Sololá	701	Sololá	1	Sololá	10	Octubre	2023-10-19T00:00:00	2024-11-08T22:00:00	4	Temperatura máxima	15.3
53979	7	Sololá	701	Sololá	1	Sololá	10	Octubre	2023-10-19T00:00:00	2024-11-08T22:00:00	3	Temperatura mínima	15.1
53980	7	Sololá	701	Sololá	1	Sololá	10	Octubre	2023-10-19T00:00:00	2024-11-08T22:00:00	5	Humedad	92
53981	7	Sololá	701	Sololá	1	Sololá	10	Octubre	2023-10-19T00:00:00	2024-11-08T22:00:00	6	Velocidad del viento	0
53982	7	Sololá	701	Sololá	1	Sololá	10	Octubre	2023-10-19T00:00:00	2024-11-08T22:00:00	7	Dirección del viento	0
53983	7	Sololá	701	Sololá	1	Sololá	10	Octubre	2023-10-19T00:00:00	2024-11-08T22:00:00	1	Precipitación	0
53984	7	Sololá	701	Sololá	1	Sololá	10	Octubre	2023-10-19T00:00:00	2024-11-08T22:00:00	8	Radiación solar	0
53985	7	Sololá	701	Sololá	1	Sololá	10	Octubre	2023-10-19T00:00:00	2024-11-08T23:00:00	2	Temperatura media	14.6
53986	7	Sololá	701	Sololá	1	Sololá	10	Octubre	2023-10-19T00:00:00	2024-11-08T23:00:00	4	Temperatura máxima	15.3
53987	7	Sololá	701	Sololá	1	Sololá	10	Octubre	2023-10-19T00:00:00	2024-11-08T23:00:00	3	Temperatura mínima	14.6
53988	7	Sololá	701	Sololá	1	Sololá	10	Octubre	2023-10-19T00:00:00	2024-11-08T23:00:00	5	Humedad	92
53989	7	Sololá	701	Sololá	1	Sololá	10	Octubre	2023-10-19T00:00:00	2024-11-08T23:00:00	6	Velocidad del viento	0
53990	7	Sololá	701	Sololá	1	Sololá	10	Octubre	2023-10-19T00:00:00	2024-11-08T23:00:00	7	Dirección del viento	0
53991	7	Sololá	701	Sololá	1	Sololá	10	Octubre	2023-10-19T00:00:00	2024-11-08T23:00:00	1	Precipitación	0
53992	7	Sololá	701	Sololá	1	Sololá	10	Octubre	2023-10-19T00:00:00	2024-11-08T23:00:00	8	Radiación solar	0
53993	7	Sololá	701	Sololá	1	Sololá	10	Octubre	2023-10-20T00:00:00	2024-11-08T00:00:00	2	Temperatura media	14.2
53994	7	Sololá	701	Sololá	1	Sololá	10	Octubre	2023-10-20T00:00:00	2024-11-08T00:00:00	4	Temperatura máxima	14.6
53995	7	Sololá	701	Sololá	1	Sololá	10	Octubre	2023-10-20T00:00:00	2024-11-08T00:00:00	3	Temperatura mínima	14.2
53996	7	Sololá	701	Sololá	1	Sololá	10	Octubre	2023-10-20T00:00:00	2024-11-08T00:00:00	5	Humedad	94
53997	7	Sololá	701	Sololá	1	Sololá	10	Octubre	2023-10-20T00:00:00	2024-11-08T00:00:00	6	Velocidad del viento	0
53998	7	Sololá	701	Sololá	1	Sololá	10	Octubre	2023-10-20T00:00:00	2024-11-08T00:00:00	7	Dirección del viento	0
53999	7	Sololá	701	Sololá	1	Sololá	10	Octubre	2023-10-20T00:00:00	2024-11-08T00:00:00	1	Precipitación	0
54000	7	Sololá	701	Sololá	1	Sololá	10	Octubre	2023-10-20T00:00:00	2024-11-08T00:00:00	8	Radiación solar	0
54001	7	Sololá	701	Sololá	1	Sololá	10	Octubre	2023-10-20T00:00:00	2024-11-08T01:00:00	2	Temperatura media	14.4
54002	7	Sololá	701	Sololá	1	Sololá	10	Octubre	2023-10-20T00:00:00	2024-11-08T01:00:00	4	Temperatura máxima	14.4
54003	7	Sololá	701	Sololá	1	Sololá	10	Octubre	2023-10-20T00:00:00	2024-11-08T01:00:00	3	Temperatura mínima	14.2
54004	7	Sololá	701	Sololá	1	Sololá	10	Octubre	2023-10-20T00:00:00	2024-11-08T01:00:00	5	Humedad	92
54005	7	Sololá	701	Sololá	1	Sololá	10	Octubre	2023-10-20T00:00:00	2024-11-08T01:00:00	6	Velocidad del viento	0
54006	7	Sololá	701	Sololá	1	Sololá	10	Octubre	2023-10-20T00:00:00	2024-11-08T01:00:00	7	Dirección del viento	0
54007	7	Sololá	701	Sololá	1	Sololá	10	Octubre	2023-10-20T00:00:00	2024-11-08T01:00:00	1	Precipitación	0
54008	7	Sololá	701	Sololá	1	Sololá	10	Octubre	2023-10-20T00:00:00	2024-11-08T01:00:00	8	Radiación solar	0
54009	7	Sololá	701	Sololá	1	Sololá	10	Octubre	2023-10-20T00:00:00	2024-11-08T02:00:00	2	Temperatura media	13.8
54010	7	Sololá	701	Sololá	1	Sololá	10	Octubre	2023-10-20T00:00:00	2024-11-08T02:00:00	4	Temperatura máxima	14.4
54011	7	Sololá	701	Sololá	1	Sololá	10	Octubre	2023-10-20T00:00:00	2024-11-08T02:00:00	3	Temperatura mínima	13.8
54012	7	Sololá	701	Sololá	1	Sololá	10	Octubre	2023-10-20T00:00:00	2024-11-08T02:00:00	5	Humedad	92
54013	7	Sololá	701	Sololá	1	Sololá	10	Octubre	2023-10-20T00:00:00	2024-11-08T02:00:00	6	Velocidad del viento	0
54014	7	Sololá	701	Sololá	1	Sololá	10	Octubre	2023-10-20T00:00:00	2024-11-08T02:00:00	7	Dirección del viento	0
54015	7	Sololá	701	Sololá	1	Sololá	10	Octubre	2023-10-20T00:00:00	2024-11-08T02:00:00	1	Precipitación	0
54016	7	Sololá	701	Sololá	1	Sololá	10	Octubre	2023-10-20T00:00:00	2024-11-08T02:00:00	8	Radiación solar	0
54017	7	Sololá	701	Sololá	1	Sololá	10	Octubre	2023-10-20T00:00:00	2024-11-08T03:00:00	2	Temperatura media	13.2
54018	7	Sololá	701	Sololá	1	Sololá	10	Octubre	2023-10-20T00:00:00	2024-11-08T03:00:00	4	Temperatura máxima	13.9
54019	7	Sololá	701	Sololá	1	Sololá	10	Octubre	2023-10-20T00:00:00	2024-11-08T03:00:00	3	Temperatura mínima	13.2
54020	7	Sololá	701	Sololá	1	Sololá	10	Octubre	2023-10-20T00:00:00	2024-11-08T03:00:00	5	Humedad	93
54021	7	Sololá	701	Sololá	1	Sololá	10	Octubre	2023-10-20T00:00:00	2024-11-08T03:00:00	6	Velocidad del viento	0
54022	7	Sololá	701	Sololá	1	Sololá	10	Octubre	2023-10-20T00:00:00	2024-11-08T03:00:00	7	Dirección del viento	0
54023	7	Sololá	701	Sololá	1	Sololá	10	Octubre	2023-10-20T00:00:00	2024-11-08T03:00:00	1	Precipitación	0
54024	7	Sololá	701	Sololá	1	Sololá	10	Octubre	2023-10-20T00:00:00	2024-11-08T03:00:00	8	Radiación solar	0
54025	7	Sololá	701	Sololá	1	Sololá	10	Octubre	2023-10-20T00:00:00	2024-11-08T04:00:00	2	Temperatura media	12.7
54026	7	Sololá	701	Sololá	1	Sololá	10	Octubre	2023-10-20T00:00:00	2024-11-08T04:00:00	4	Temperatura máxima	13.2
54027	7	Sololá	701	Sololá	1	Sololá	10	Octubre	2023-10-20T00:00:00	2024-11-08T04:00:00	3	Temperatura mínima	12.7
54028	7	Sololá	701	Sololá	1	Sololá	10	Octubre	2023-10-20T00:00:00	2024-11-08T04:00:00	5	Humedad	93
54029	7	Sololá	701	Sololá	1	Sololá	10	Octubre	2023-10-20T00:00:00	2024-11-08T04:00:00	6	Velocidad del viento	0
54030	7	Sololá	701	Sololá	1	Sololá	10	Octubre	2023-10-20T00:00:00	2024-11-08T04:00:00	7	Dirección del viento	0
54031	7	Sololá	701	Sololá	1	Sololá	10	Octubre	2023-10-20T00:00:00	2024-11-08T04:00:00	1	Precipitación	0
54032	7	Sololá	701	Sololá	1	Sololá	10	Octubre	2023-10-20T00:00:00	2024-11-08T04:00:00	8	Radiación solar	0
54033	7	Sololá	701	Sololá	1	Sololá	10	Octubre	2023-10-20T00:00:00	2024-11-08T05:00:00	2	Temperatura media	12.5
54034	7	Sololá	701	Sololá	1	Sololá	10	Octubre	2023-10-20T00:00:00	2024-11-08T05:00:00	4	Temperatura máxima	12.7
54035	7	Sololá	701	Sololá	1	Sololá	10	Octubre	2023-10-20T00:00:00	2024-11-08T05:00:00	3	Temperatura mínima	12.3
54036	7	Sololá	701	Sololá	1	Sololá	10	Octubre	2023-10-20T00:00:00	2024-11-08T05:00:00	5	Humedad	93
54037	7	Sololá	701	Sololá	1	Sololá	10	Octubre	2023-10-20T00:00:00	2024-11-08T05:00:00	6	Velocidad del viento	0
54038	7	Sololá	701	Sololá	1	Sololá	10	Octubre	2023-10-20T00:00:00	2024-11-08T05:00:00	7	Dirección del viento	0
54039	7	Sololá	701	Sololá	1	Sololá	10	Octubre	2023-10-20T00:00:00	2024-11-08T05:00:00	1	Precipitación	0
54040	7	Sololá	701	Sololá	1	Sololá	10	Octubre	2023-10-20T00:00:00	2024-11-08T05:00:00	8	Radiación solar	0
54041	7	Sololá	701	Sololá	1	Sololá	10	Octubre	2023-10-20T00:00:00	2024-11-08T06:00:00	2	Temperatura media	12.1
54042	7	Sololá	701	Sololá	1	Sololá	10	Octubre	2023-10-20T00:00:00	2024-11-08T06:00:00	4	Temperatura máxima	12.5
54043	7	Sololá	701	Sololá	1	Sololá	10	Octubre	2023-10-20T00:00:00	2024-11-08T06:00:00	3	Temperatura mínima	12.1
54044	7	Sololá	701	Sololá	1	Sololá	10	Octubre	2023-10-20T00:00:00	2024-11-08T06:00:00	5	Humedad	94
54045	7	Sololá	701	Sololá	1	Sololá	10	Octubre	2023-10-20T00:00:00	2024-11-08T06:00:00	6	Velocidad del viento	0
54046	7	Sololá	701	Sololá	1	Sololá	10	Octubre	2023-10-20T00:00:00	2024-11-08T06:00:00	7	Dirección del viento	0
54047	7	Sololá	701	Sololá	1	Sololá	10	Octubre	2023-10-20T00:00:00	2024-11-08T06:00:00	1	Precipitación	0
54048	7	Sololá	701	Sololá	1	Sololá	10	Octubre	2023-10-20T00:00:00	2024-11-08T06:00:00	8	Radiación solar	0
54049	7	Sololá	701	Sololá	1	Sololá	10	Octubre	2023-10-20T00:00:00	2024-11-08T07:00:00	2	Temperatura media	12.5
54050	7	Sololá	701	Sololá	1	Sololá	10	Octubre	2023-10-20T00:00:00	2024-11-08T07:00:00	4	Temperatura máxima	12.6
54051	7	Sololá	701	Sololá	1	Sololá	10	Octubre	2023-10-20T00:00:00	2024-11-08T07:00:00	3	Temperatura mínima	12.1
54052	7	Sololá	701	Sololá	1	Sololá	10	Octubre	2023-10-20T00:00:00	2024-11-08T07:00:00	5	Humedad	93
54053	7	Sololá	701	Sololá	1	Sololá	10	Octubre	2023-10-20T00:00:00	2024-11-08T07:00:00	6	Velocidad del viento	0
54054	7	Sololá	701	Sololá	1	Sololá	10	Octubre	2023-10-20T00:00:00	2024-11-08T07:00:00	7	Dirección del viento	0
54055	7	Sololá	701	Sololá	1	Sololá	10	Octubre	2023-10-20T00:00:00	2024-11-08T07:00:00	1	Precipitación	0
54056	7	Sololá	701	Sololá	1	Sololá	10	Octubre	2023-10-20T00:00:00	2024-11-08T07:00:00	8	Radiación solar	20
54057	7	Sololá	701	Sololá	1	Sololá	10	Octubre	2023-10-20T00:00:00	2024-11-08T08:00:00	2	Temperatura media	14.8
54058	7	Sololá	701	Sololá	1	Sololá	10	Octubre	2023-10-20T00:00:00	2024-11-08T08:00:00	4	Temperatura máxima	14.8
54059	7	Sololá	701	Sololá	1	Sololá	10	Octubre	2023-10-20T00:00:00	2024-11-08T08:00:00	3	Temperatura mínima	12.5
54060	7	Sololá	701	Sololá	1	Sololá	10	Octubre	2023-10-20T00:00:00	2024-11-08T08:00:00	5	Humedad	90
54061	7	Sololá	701	Sololá	1	Sololá	10	Octubre	2023-10-20T00:00:00	2024-11-08T08:00:00	6	Velocidad del viento	0
54062	7	Sololá	701	Sololá	1	Sololá	10	Octubre	2023-10-20T00:00:00	2024-11-08T08:00:00	7	Dirección del viento	0
54063	7	Sololá	701	Sololá	1	Sololá	10	Octubre	2023-10-20T00:00:00	2024-11-08T08:00:00	1	Precipitación	0
54064	7	Sololá	701	Sololá	1	Sololá	10	Octubre	2023-10-20T00:00:00	2024-11-08T08:00:00	8	Radiación solar	80
54065	7	Sololá	701	Sololá	1	Sololá	10	Octubre	2023-10-20T00:00:00	2024-11-08T09:00:00	2	Temperatura media	20.3
54066	7	Sololá	701	Sololá	1	Sololá	10	Octubre	2023-10-20T00:00:00	2024-11-08T09:00:00	4	Temperatura máxima	20.3
54067	7	Sololá	701	Sololá	1	Sololá	10	Octubre	2023-10-20T00:00:00	2024-11-08T09:00:00	3	Temperatura mínima	14.8
54068	7	Sololá	701	Sololá	1	Sololá	10	Octubre	2023-10-20T00:00:00	2024-11-08T09:00:00	5	Humedad	78
54069	7	Sololá	701	Sololá	1	Sololá	10	Octubre	2023-10-20T00:00:00	2024-11-08T09:00:00	6	Velocidad del viento	0
54070	7	Sololá	701	Sololá	1	Sololá	10	Octubre	2023-10-20T00:00:00	2024-11-08T09:00:00	7	Dirección del viento	0
54071	7	Sololá	701	Sololá	1	Sololá	10	Octubre	2023-10-20T00:00:00	2024-11-08T09:00:00	1	Precipitación	0
54072	7	Sololá	701	Sololá	1	Sololá	10	Octubre	2023-10-20T00:00:00	2024-11-08T09:00:00	8	Radiación solar	504
54073	7	Sololá	701	Sololá	1	Sololá	10	Octubre	2023-10-20T00:00:00	2024-11-08T10:00:00	2	Temperatura media	21.3
54074	7	Sololá	701	Sololá	1	Sololá	10	Octubre	2023-10-20T00:00:00	2024-11-08T10:00:00	4	Temperatura máxima	21.3
54075	7	Sololá	701	Sololá	1	Sololá	10	Octubre	2023-10-20T00:00:00	2024-11-08T10:00:00	3	Temperatura mínima	20.3
54076	7	Sololá	701	Sololá	1	Sololá	10	Octubre	2023-10-20T00:00:00	2024-11-08T10:00:00	5	Humedad	79
54077	7	Sololá	701	Sololá	1	Sololá	10	Octubre	2023-10-20T00:00:00	2024-11-08T10:00:00	6	Velocidad del viento	0
54078	7	Sololá	701	Sololá	1	Sololá	10	Octubre	2023-10-20T00:00:00	2024-11-08T10:00:00	7	Dirección del viento	0
54079	7	Sololá	701	Sololá	1	Sololá	10	Octubre	2023-10-20T00:00:00	2024-11-08T10:00:00	1	Precipitación	0
54080	7	Sololá	701	Sololá	1	Sololá	10	Octubre	2023-10-20T00:00:00	2024-11-08T10:00:00	8	Radiación solar	724
54081	7	Sololá	701	Sololá	1	Sololá	10	Octubre	2023-10-20T00:00:00	2024-11-08T11:00:00	2	Temperatura media	21.8
54082	7	Sololá	701	Sololá	1	Sololá	10	Octubre	2023-10-20T00:00:00	2024-11-08T11:00:00	4	Temperatura máxima	21.9
54083	7	Sololá	701	Sololá	1	Sololá	10	Octubre	2023-10-20T00:00:00	2024-11-08T11:00:00	3	Temperatura mínima	21.3
54084	7	Sololá	701	Sololá	1	Sololá	10	Octubre	2023-10-20T00:00:00	2024-11-08T11:00:00	5	Humedad	74
54085	7	Sololá	701	Sololá	1	Sololá	10	Octubre	2023-10-20T00:00:00	2024-11-08T11:00:00	6	Velocidad del viento	0
54086	7	Sololá	701	Sololá	1	Sololá	10	Octubre	2023-10-20T00:00:00	2024-11-08T11:00:00	7	Dirección del viento	0
54087	7	Sololá	701	Sololá	1	Sololá	10	Octubre	2023-10-20T00:00:00	2024-11-08T11:00:00	1	Precipitación	0
54088	7	Sololá	701	Sololá	1	Sololá	10	Octubre	2023-10-20T00:00:00	2024-11-08T11:00:00	8	Radiación solar	923
54089	7	Sololá	701	Sololá	1	Sololá	10	Octubre	2023-10-20T00:00:00	2024-11-08T12:00:00	2	Temperatura media	21.6
54090	7	Sololá	701	Sololá	1	Sololá	10	Octubre	2023-10-20T00:00:00	2024-11-08T12:00:00	4	Temperatura máxima	22.4
54091	7	Sololá	701	Sololá	1	Sololá	10	Octubre	2023-10-20T00:00:00	2024-11-08T12:00:00	3	Temperatura mínima	21.5
54092	7	Sololá	701	Sololá	1	Sololá	10	Octubre	2023-10-20T00:00:00	2024-11-08T12:00:00	5	Humedad	78
54093	7	Sololá	701	Sololá	1	Sololá	10	Octubre	2023-10-20T00:00:00	2024-11-08T12:00:00	6	Velocidad del viento	0
54094	7	Sololá	701	Sololá	1	Sololá	10	Octubre	2023-10-20T00:00:00	2024-11-08T12:00:00	7	Dirección del viento	0
54095	7	Sololá	701	Sololá	1	Sololá	10	Octubre	2023-10-20T00:00:00	2024-11-08T12:00:00	1	Precipitación	0
54096	7	Sololá	701	Sololá	1	Sololá	10	Octubre	2023-10-20T00:00:00	2024-11-08T12:00:00	8	Radiación solar	874
54097	7	Sololá	701	Sololá	1	Sololá	10	Octubre	2023-10-20T00:00:00	2024-11-08T13:00:00	2	Temperatura media	20
54098	7	Sololá	701	Sololá	1	Sololá	10	Octubre	2023-10-20T00:00:00	2024-11-08T13:00:00	4	Temperatura máxima	21.6
54099	7	Sololá	701	Sololá	1	Sololá	10	Octubre	2023-10-20T00:00:00	2024-11-08T13:00:00	3	Temperatura mínima	19.9
54100	7	Sololá	701	Sololá	1	Sololá	10	Octubre	2023-10-20T00:00:00	2024-11-08T13:00:00	5	Humedad	85
54101	7	Sololá	701	Sololá	1	Sololá	10	Octubre	2023-10-20T00:00:00	2024-11-08T13:00:00	6	Velocidad del viento	0
54102	7	Sololá	701	Sololá	1	Sololá	10	Octubre	2023-10-20T00:00:00	2024-11-08T13:00:00	7	Dirección del viento	0
54103	7	Sololá	701	Sololá	1	Sololá	10	Octubre	2023-10-20T00:00:00	2024-11-08T13:00:00	1	Precipitación	0
54104	7	Sololá	701	Sololá	1	Sololá	10	Octubre	2023-10-20T00:00:00	2024-11-08T13:00:00	8	Radiación solar	204
54105	7	Sololá	701	Sololá	1	Sololá	10	Octubre	2023-10-20T00:00:00	2024-11-08T14:00:00	2	Temperatura media	19.5
54106	7	Sololá	701	Sololá	1	Sololá	10	Octubre	2023-10-20T00:00:00	2024-11-08T14:00:00	4	Temperatura máxima	20.7
54107	7	Sololá	701	Sololá	1	Sololá	10	Octubre	2023-10-20T00:00:00	2024-11-08T14:00:00	3	Temperatura mínima	19.5
54108	7	Sololá	701	Sololá	1	Sololá	10	Octubre	2023-10-20T00:00:00	2024-11-08T14:00:00	5	Humedad	84
54109	7	Sololá	701	Sololá	1	Sololá	10	Octubre	2023-10-20T00:00:00	2024-11-08T14:00:00	6	Velocidad del viento	0
54110	7	Sololá	701	Sololá	1	Sololá	10	Octubre	2023-10-20T00:00:00	2024-11-08T14:00:00	7	Dirección del viento	0
54111	7	Sololá	701	Sololá	1	Sololá	10	Octubre	2023-10-20T00:00:00	2024-11-08T14:00:00	1	Precipitación	0
54112	7	Sololá	701	Sololá	1	Sololá	10	Octubre	2023-10-20T00:00:00	2024-11-08T14:00:00	8	Radiación solar	204
54113	7	Sololá	701	Sololá	1	Sololá	10	Octubre	2023-10-20T00:00:00	2024-11-08T15:00:00	2	Temperatura media	17.9
54114	7	Sololá	701	Sololá	1	Sololá	10	Octubre	2023-10-20T00:00:00	2024-11-08T15:00:00	4	Temperatura máxima	19.5
54115	7	Sololá	701	Sololá	1	Sololá	10	Octubre	2023-10-20T00:00:00	2024-11-08T15:00:00	3	Temperatura mínima	17.9
54116	7	Sololá	701	Sololá	1	Sololá	10	Octubre	2023-10-20T00:00:00	2024-11-08T15:00:00	5	Humedad	88
54117	7	Sololá	701	Sololá	1	Sololá	10	Octubre	2023-10-20T00:00:00	2024-11-08T15:00:00	6	Velocidad del viento	0
54118	7	Sololá	701	Sololá	1	Sololá	10	Octubre	2023-10-20T00:00:00	2024-11-08T15:00:00	7	Dirección del viento	0
54119	7	Sololá	701	Sololá	1	Sololá	10	Octubre	2023-10-20T00:00:00	2024-11-08T15:00:00	1	Precipitación	0
54120	7	Sololá	701	Sololá	1	Sololá	10	Octubre	2023-10-20T00:00:00	2024-11-08T15:00:00	8	Radiación solar	58
54121	7	Sololá	701	Sololá	1	Sololá	10	Octubre	2023-10-20T00:00:00	2024-11-08T16:00:00	2	Temperatura media	18.4
54122	7	Sololá	701	Sololá	1	Sololá	10	Octubre	2023-10-20T00:00:00	2024-11-08T16:00:00	4	Temperatura máxima	18.5
54123	7	Sololá	701	Sololá	1	Sololá	10	Octubre	2023-10-20T00:00:00	2024-11-08T16:00:00	3	Temperatura mínima	17.8
54124	7	Sololá	701	Sololá	1	Sololá	10	Octubre	2023-10-20T00:00:00	2024-11-08T16:00:00	5	Humedad	89
54125	7	Sololá	701	Sololá	1	Sololá	10	Octubre	2023-10-20T00:00:00	2024-11-08T16:00:00	6	Velocidad del viento	0
54126	7	Sololá	701	Sololá	1	Sololá	10	Octubre	2023-10-20T00:00:00	2024-11-08T16:00:00	7	Dirección del viento	0
54127	7	Sololá	701	Sololá	1	Sololá	10	Octubre	2023-10-20T00:00:00	2024-11-08T16:00:00	1	Precipitación	0
54128	7	Sololá	701	Sololá	1	Sololá	10	Octubre	2023-10-20T00:00:00	2024-11-08T16:00:00	8	Radiación solar	93
54129	7	Sololá	701	Sololá	1	Sololá	10	Octubre	2023-10-20T00:00:00	2024-11-08T17:00:00	2	Temperatura media	18.7
54130	7	Sololá	701	Sololá	1	Sololá	10	Octubre	2023-10-20T00:00:00	2024-11-08T17:00:00	4	Temperatura máxima	19.4
54131	7	Sololá	701	Sololá	1	Sololá	10	Octubre	2023-10-20T00:00:00	2024-11-08T17:00:00	3	Temperatura mínima	18.4
54132	7	Sololá	701	Sololá	1	Sololá	10	Octubre	2023-10-20T00:00:00	2024-11-08T17:00:00	5	Humedad	89
54133	7	Sololá	701	Sololá	1	Sololá	10	Octubre	2023-10-20T00:00:00	2024-11-08T17:00:00	6	Velocidad del viento	0
54134	7	Sololá	701	Sololá	1	Sololá	10	Octubre	2023-10-20T00:00:00	2024-11-08T17:00:00	7	Dirección del viento	0
54135	7	Sololá	701	Sololá	1	Sololá	10	Octubre	2023-10-20T00:00:00	2024-11-08T17:00:00	1	Precipitación	0
54136	7	Sololá	701	Sololá	1	Sololá	10	Octubre	2023-10-20T00:00:00	2024-11-08T17:00:00	8	Radiación solar	86
54137	7	Sololá	701	Sololá	1	Sololá	10	Octubre	2023-10-20T00:00:00	2024-11-08T18:00:00	2	Temperatura media	16.9
54138	7	Sololá	701	Sololá	1	Sololá	10	Octubre	2023-10-20T00:00:00	2024-11-08T18:00:00	4	Temperatura máxima	18.7
54139	7	Sololá	701	Sololá	1	Sololá	10	Octubre	2023-10-20T00:00:00	2024-11-08T18:00:00	3	Temperatura mínima	16.9
54140	7	Sololá	701	Sololá	1	Sololá	10	Octubre	2023-10-20T00:00:00	2024-11-08T18:00:00	5	Humedad	87
54141	7	Sololá	701	Sololá	1	Sololá	10	Octubre	2023-10-20T00:00:00	2024-11-08T18:00:00	6	Velocidad del viento	0
54142	7	Sololá	701	Sololá	1	Sololá	10	Octubre	2023-10-20T00:00:00	2024-11-08T18:00:00	7	Dirección del viento	0
54143	7	Sololá	701	Sololá	1	Sololá	10	Octubre	2023-10-20T00:00:00	2024-11-08T18:00:00	1	Precipitación	0
54144	7	Sololá	701	Sololá	1	Sololá	10	Octubre	2023-10-20T00:00:00	2024-11-08T18:00:00	8	Radiación solar	8
54145	7	Sololá	701	Sololá	1	Sololá	10	Octubre	2023-10-20T00:00:00	2024-11-08T19:00:00	2	Temperatura media	15.5
54146	7	Sololá	701	Sololá	1	Sololá	10	Octubre	2023-10-20T00:00:00	2024-11-08T19:00:00	4	Temperatura máxima	16.9
54147	7	Sololá	701	Sololá	1	Sololá	10	Octubre	2023-10-20T00:00:00	2024-11-08T19:00:00	3	Temperatura mínima	15.5
54148	7	Sololá	701	Sololá	1	Sololá	10	Octubre	2023-10-20T00:00:00	2024-11-08T19:00:00	5	Humedad	88
54149	7	Sololá	701	Sololá	1	Sololá	10	Octubre	2023-10-20T00:00:00	2024-11-08T19:00:00	6	Velocidad del viento	0
54150	7	Sololá	701	Sololá	1	Sololá	10	Octubre	2023-10-20T00:00:00	2024-11-08T19:00:00	7	Dirección del viento	0
54151	7	Sololá	701	Sololá	1	Sololá	10	Octubre	2023-10-20T00:00:00	2024-11-08T19:00:00	1	Precipitación	0
54152	7	Sololá	701	Sololá	1	Sololá	10	Octubre	2023-10-20T00:00:00	2024-11-08T19:00:00	8	Radiación solar	0
54153	7	Sololá	701	Sololá	1	Sololá	10	Octubre	2023-10-20T00:00:00	2024-11-08T20:00:00	2	Temperatura media	14.8
54154	7	Sololá	701	Sololá	1	Sololá	10	Octubre	2023-10-20T00:00:00	2024-11-08T20:00:00	4	Temperatura máxima	15.5
54155	7	Sololá	701	Sololá	1	Sololá	10	Octubre	2023-10-20T00:00:00	2024-11-08T20:00:00	3	Temperatura mínima	14.7
54156	7	Sololá	701	Sololá	1	Sololá	10	Octubre	2023-10-20T00:00:00	2024-11-08T20:00:00	5	Humedad	91
54157	7	Sololá	701	Sololá	1	Sololá	10	Octubre	2023-10-20T00:00:00	2024-11-08T20:00:00	6	Velocidad del viento	0
54158	7	Sololá	701	Sololá	1	Sololá	10	Octubre	2023-10-20T00:00:00	2024-11-08T20:00:00	7	Dirección del viento	0
54159	7	Sololá	701	Sololá	1	Sololá	10	Octubre	2023-10-20T00:00:00	2024-11-08T20:00:00	1	Precipitación	0
54160	7	Sololá	701	Sololá	1	Sololá	10	Octubre	2023-10-20T00:00:00	2024-11-08T20:00:00	8	Radiación solar	0
54161	7	Sololá	701	Sololá	1	Sololá	10	Octubre	2023-10-20T00:00:00	2024-11-08T21:00:00	2	Temperatura media	14.5
54162	7	Sololá	701	Sololá	1	Sololá	10	Octubre	2023-10-20T00:00:00	2024-11-08T21:00:00	4	Temperatura máxima	14.8
54163	7	Sololá	701	Sololá	1	Sololá	10	Octubre	2023-10-20T00:00:00	2024-11-08T21:00:00	3	Temperatura mínima	14.4
54164	7	Sololá	701	Sololá	1	Sololá	10	Octubre	2023-10-20T00:00:00	2024-11-08T21:00:00	5	Humedad	91
54165	7	Sololá	701	Sololá	1	Sololá	10	Octubre	2023-10-20T00:00:00	2024-11-08T21:00:00	6	Velocidad del viento	0
54166	7	Sololá	701	Sololá	1	Sololá	10	Octubre	2023-10-20T00:00:00	2024-11-08T21:00:00	7	Dirección del viento	0
54167	7	Sololá	701	Sololá	1	Sololá	10	Octubre	2023-10-20T00:00:00	2024-11-08T21:00:00	1	Precipitación	0
54168	7	Sololá	701	Sololá	1	Sololá	10	Octubre	2023-10-20T00:00:00	2024-11-08T21:00:00	8	Radiación solar	0
54169	7	Sololá	701	Sololá	1	Sololá	10	Octubre	2023-10-20T00:00:00	2024-11-08T22:00:00	2	Temperatura media	14.6
54170	7	Sololá	701	Sololá	1	Sololá	10	Octubre	2023-10-20T00:00:00	2024-11-08T22:00:00	4	Temperatura máxima	14.6
54171	7	Sololá	701	Sololá	1	Sololá	10	Octubre	2023-10-20T00:00:00	2024-11-08T22:00:00	3	Temperatura mínima	14.4
54172	7	Sololá	701	Sololá	1	Sololá	10	Octubre	2023-10-20T00:00:00	2024-11-08T22:00:00	5	Humedad	90
54173	7	Sololá	701	Sololá	1	Sololá	10	Octubre	2023-10-20T00:00:00	2024-11-08T22:00:00	6	Velocidad del viento	0
54174	7	Sololá	701	Sololá	1	Sololá	10	Octubre	2023-10-20T00:00:00	2024-11-08T22:00:00	7	Dirección del viento	0
54175	7	Sololá	701	Sololá	1	Sololá	10	Octubre	2023-10-20T00:00:00	2024-11-08T22:00:00	1	Precipitación	0
54176	7	Sololá	701	Sololá	1	Sololá	10	Octubre	2023-10-20T00:00:00	2024-11-08T22:00:00	8	Radiación solar	0
54177	7	Sololá	701	Sololá	1	Sololá	10	Octubre	2023-10-20T00:00:00	2024-11-08T23:00:00	2	Temperatura media	13.6
54178	7	Sololá	701	Sololá	1	Sololá	10	Octubre	2023-10-20T00:00:00	2024-11-08T23:00:00	4	Temperatura máxima	14.6
54179	7	Sololá	701	Sololá	1	Sololá	10	Octubre	2023-10-20T00:00:00	2024-11-08T23:00:00	3	Temperatura mínima	13.6
54180	7	Sololá	701	Sololá	1	Sololá	10	Octubre	2023-10-20T00:00:00	2024-11-08T23:00:00	5	Humedad	91
54181	7	Sololá	701	Sololá	1	Sololá	10	Octubre	2023-10-20T00:00:00	2024-11-08T23:00:00	6	Velocidad del viento	0
54182	7	Sololá	701	Sololá	1	Sololá	10	Octubre	2023-10-20T00:00:00	2024-11-08T23:00:00	7	Dirección del viento	0
54183	7	Sololá	701	Sololá	1	Sololá	10	Octubre	2023-10-20T00:00:00	2024-11-08T23:00:00	1	Precipitación	0
54184	7	Sololá	701	Sololá	1	Sololá	10	Octubre	2023-10-20T00:00:00	2024-11-08T23:00:00	8	Radiación solar	0
54185	7	Sololá	701	Sololá	1	Sololá	10	Octubre	2023-10-21T00:00:00	2024-11-08T00:00:00	2	Temperatura media	12.9
54186	7	Sololá	701	Sololá	1	Sololá	10	Octubre	2023-10-21T00:00:00	2024-11-08T00:00:00	4	Temperatura máxima	13.6
54187	7	Sololá	701	Sololá	1	Sololá	10	Octubre	2023-10-21T00:00:00	2024-11-08T00:00:00	3	Temperatura mínima	12.8
54188	7	Sololá	701	Sololá	1	Sololá	10	Octubre	2023-10-21T00:00:00	2024-11-08T00:00:00	5	Humedad	93
54189	7	Sololá	701	Sololá	1	Sololá	10	Octubre	2023-10-21T00:00:00	2024-11-08T00:00:00	6	Velocidad del viento	0
54190	7	Sololá	701	Sololá	1	Sololá	10	Octubre	2023-10-21T00:00:00	2024-11-08T00:00:00	7	Dirección del viento	0
54191	7	Sololá	701	Sololá	1	Sololá	10	Octubre	2023-10-21T00:00:00	2024-11-08T00:00:00	1	Precipitación	0
54192	7	Sololá	701	Sololá	1	Sololá	10	Octubre	2023-10-21T00:00:00	2024-11-08T00:00:00	8	Radiación solar	0
54193	7	Sololá	701	Sololá	1	Sololá	10	Octubre	2023-10-21T00:00:00	2024-11-08T01:00:00	2	Temperatura media	12.7
54194	7	Sololá	701	Sololá	1	Sololá	10	Octubre	2023-10-21T00:00:00	2024-11-08T01:00:00	4	Temperatura máxima	12.9
54195	7	Sololá	701	Sololá	1	Sololá	10	Octubre	2023-10-21T00:00:00	2024-11-08T01:00:00	3	Temperatura mínima	12.6
54196	7	Sololá	701	Sololá	1	Sololá	10	Octubre	2023-10-21T00:00:00	2024-11-08T01:00:00	5	Humedad	94
54197	7	Sololá	701	Sololá	1	Sololá	10	Octubre	2023-10-21T00:00:00	2024-11-08T01:00:00	6	Velocidad del viento	0
54198	7	Sololá	701	Sololá	1	Sololá	10	Octubre	2023-10-21T00:00:00	2024-11-08T01:00:00	7	Dirección del viento	0
54199	7	Sololá	701	Sololá	1	Sololá	10	Octubre	2023-10-21T00:00:00	2024-11-08T01:00:00	1	Precipitación	0
54200	7	Sololá	701	Sololá	1	Sololá	10	Octubre	2023-10-21T00:00:00	2024-11-08T01:00:00	8	Radiación solar	0
54201	7	Sololá	701	Sololá	1	Sololá	10	Octubre	2023-10-21T00:00:00	2024-11-08T02:00:00	2	Temperatura media	12.4
54202	7	Sololá	701	Sololá	1	Sololá	10	Octubre	2023-10-21T00:00:00	2024-11-08T02:00:00	4	Temperatura máxima	12.7
54203	7	Sololá	701	Sololá	1	Sololá	10	Octubre	2023-10-21T00:00:00	2024-11-08T02:00:00	3	Temperatura mínima	12.4
54204	7	Sololá	701	Sololá	1	Sololá	10	Octubre	2023-10-21T00:00:00	2024-11-08T02:00:00	5	Humedad	94
54205	7	Sololá	701	Sololá	1	Sololá	10	Octubre	2023-10-21T00:00:00	2024-11-08T02:00:00	6	Velocidad del viento	0
54206	7	Sololá	701	Sololá	1	Sololá	10	Octubre	2023-10-21T00:00:00	2024-11-08T02:00:00	7	Dirección del viento	0
54207	7	Sololá	701	Sololá	1	Sololá	10	Octubre	2023-10-21T00:00:00	2024-11-08T02:00:00	1	Precipitación	0
54208	7	Sololá	701	Sololá	1	Sololá	10	Octubre	2023-10-21T00:00:00	2024-11-08T02:00:00	8	Radiación solar	0
54209	7	Sololá	701	Sololá	1	Sololá	10	Octubre	2023-10-21T00:00:00	2024-11-08T03:00:00	2	Temperatura media	11.8
54210	7	Sololá	701	Sololá	1	Sololá	10	Octubre	2023-10-21T00:00:00	2024-11-08T03:00:00	4	Temperatura máxima	12.4
54211	7	Sololá	701	Sololá	1	Sololá	10	Octubre	2023-10-21T00:00:00	2024-11-08T03:00:00	3	Temperatura mínima	11.8
54212	7	Sololá	701	Sololá	1	Sololá	10	Octubre	2023-10-21T00:00:00	2024-11-08T03:00:00	5	Humedad	93
54213	7	Sololá	701	Sololá	1	Sololá	10	Octubre	2023-10-21T00:00:00	2024-11-08T03:00:00	6	Velocidad del viento	0
54214	7	Sololá	701	Sololá	1	Sololá	10	Octubre	2023-10-21T00:00:00	2024-11-08T03:00:00	7	Dirección del viento	0
54215	7	Sololá	701	Sololá	1	Sololá	10	Octubre	2023-10-21T00:00:00	2024-11-08T03:00:00	1	Precipitación	0
54216	7	Sololá	701	Sololá	1	Sololá	10	Octubre	2023-10-21T00:00:00	2024-11-08T03:00:00	8	Radiación solar	0
54217	7	Sololá	701	Sololá	1	Sololá	10	Octubre	2023-10-21T00:00:00	2024-11-08T04:00:00	2	Temperatura media	11.9
54218	7	Sololá	701	Sololá	1	Sololá	10	Octubre	2023-10-21T00:00:00	2024-11-08T04:00:00	4	Temperatura máxima	12
54219	7	Sololá	701	Sololá	1	Sololá	10	Octubre	2023-10-21T00:00:00	2024-11-08T04:00:00	3	Temperatura mínima	11.8
54220	7	Sololá	701	Sololá	1	Sololá	10	Octubre	2023-10-21T00:00:00	2024-11-08T04:00:00	5	Humedad	92
54221	7	Sololá	701	Sololá	1	Sololá	10	Octubre	2023-10-21T00:00:00	2024-11-08T04:00:00	6	Velocidad del viento	0
54222	7	Sololá	701	Sololá	1	Sololá	10	Octubre	2023-10-21T00:00:00	2024-11-08T04:00:00	7	Dirección del viento	0
54223	7	Sololá	701	Sololá	1	Sololá	10	Octubre	2023-10-21T00:00:00	2024-11-08T04:00:00	1	Precipitación	0
54224	7	Sololá	701	Sololá	1	Sololá	10	Octubre	2023-10-21T00:00:00	2024-11-08T04:00:00	8	Radiación solar	0
54225	7	Sololá	701	Sololá	1	Sololá	10	Octubre	2023-10-21T00:00:00	2024-11-08T05:00:00	2	Temperatura media	11.9
54226	7	Sololá	701	Sololá	1	Sololá	10	Octubre	2023-10-21T00:00:00	2024-11-08T05:00:00	4	Temperatura máxima	12
54227	7	Sololá	701	Sololá	1	Sololá	10	Octubre	2023-10-21T00:00:00	2024-11-08T05:00:00	3	Temperatura mínima	11.7
54228	7	Sololá	701	Sololá	1	Sololá	10	Octubre	2023-10-21T00:00:00	2024-11-08T05:00:00	5	Humedad	90
54229	7	Sololá	701	Sololá	1	Sololá	10	Octubre	2023-10-21T00:00:00	2024-11-08T05:00:00	6	Velocidad del viento	0
54230	7	Sololá	701	Sololá	1	Sololá	10	Octubre	2023-10-21T00:00:00	2024-11-08T05:00:00	7	Dirección del viento	0
54231	7	Sololá	701	Sololá	1	Sololá	10	Octubre	2023-10-21T00:00:00	2024-11-08T05:00:00	1	Precipitación	0
54232	7	Sololá	701	Sololá	1	Sololá	10	Octubre	2023-10-21T00:00:00	2024-11-08T05:00:00	8	Radiación solar	0
54233	7	Sololá	701	Sololá	1	Sololá	10	Octubre	2023-10-21T00:00:00	2024-11-08T06:00:00	2	Temperatura media	12
54234	7	Sololá	701	Sololá	1	Sololá	10	Octubre	2023-10-21T00:00:00	2024-11-08T06:00:00	4	Temperatura máxima	12.1
54235	7	Sololá	701	Sololá	1	Sololá	10	Octubre	2023-10-21T00:00:00	2024-11-08T06:00:00	3	Temperatura mínima	11.9
54236	7	Sololá	701	Sololá	1	Sololá	10	Octubre	2023-10-21T00:00:00	2024-11-08T06:00:00	5	Humedad	89
54237	7	Sololá	701	Sololá	1	Sololá	10	Octubre	2023-10-21T00:00:00	2024-11-08T06:00:00	6	Velocidad del viento	0
54238	7	Sololá	701	Sololá	1	Sololá	10	Octubre	2023-10-21T00:00:00	2024-11-08T06:00:00	7	Dirección del viento	0
54239	7	Sololá	701	Sololá	1	Sololá	10	Octubre	2023-10-21T00:00:00	2024-11-08T06:00:00	1	Precipitación	0
54240	7	Sololá	701	Sololá	1	Sololá	10	Octubre	2023-10-21T00:00:00	2024-11-08T06:00:00	8	Radiación solar	0
54241	7	Sololá	701	Sololá	1	Sololá	10	Octubre	2023-10-21T00:00:00	2024-11-08T07:00:00	2	Temperatura media	11.9
54242	7	Sololá	701	Sololá	1	Sololá	10	Octubre	2023-10-21T00:00:00	2024-11-08T07:00:00	4	Temperatura máxima	12.1
54243	7	Sololá	701	Sololá	1	Sololá	10	Octubre	2023-10-21T00:00:00	2024-11-08T07:00:00	3	Temperatura mínima	11.8
54244	7	Sololá	701	Sololá	1	Sololá	10	Octubre	2023-10-21T00:00:00	2024-11-08T07:00:00	5	Humedad	93
54245	7	Sololá	701	Sololá	1	Sololá	10	Octubre	2023-10-21T00:00:00	2024-11-08T07:00:00	6	Velocidad del viento	0
54246	7	Sololá	701	Sololá	1	Sololá	10	Octubre	2023-10-21T00:00:00	2024-11-08T07:00:00	7	Dirección del viento	0
54247	7	Sololá	701	Sololá	1	Sololá	10	Octubre	2023-10-21T00:00:00	2024-11-08T07:00:00	1	Precipitación	0
54248	7	Sololá	701	Sololá	1	Sololá	10	Octubre	2023-10-21T00:00:00	2024-11-08T07:00:00	8	Radiación solar	13
54249	7	Sololá	701	Sololá	1	Sololá	10	Octubre	2023-10-21T00:00:00	2024-11-08T08:00:00	2	Temperatura media	14.2
54250	7	Sololá	701	Sololá	1	Sololá	10	Octubre	2023-10-21T00:00:00	2024-11-08T08:00:00	4	Temperatura máxima	14.2
54251	7	Sololá	701	Sololá	1	Sololá	10	Octubre	2023-10-21T00:00:00	2024-11-08T08:00:00	3	Temperatura mínima	11.9
54252	7	Sololá	701	Sololá	1	Sololá	10	Octubre	2023-10-21T00:00:00	2024-11-08T08:00:00	5	Humedad	91
54253	7	Sololá	701	Sololá	1	Sololá	10	Octubre	2023-10-21T00:00:00	2024-11-08T08:00:00	6	Velocidad del viento	0
54254	7	Sololá	701	Sololá	1	Sololá	10	Octubre	2023-10-21T00:00:00	2024-11-08T08:00:00	7	Dirección del viento	0
54255	7	Sololá	701	Sololá	1	Sololá	10	Octubre	2023-10-21T00:00:00	2024-11-08T08:00:00	1	Precipitación	0
54256	7	Sololá	701	Sololá	1	Sololá	10	Octubre	2023-10-21T00:00:00	2024-11-08T08:00:00	8	Radiación solar	63
54257	7	Sololá	701	Sololá	1	Sololá	10	Octubre	2023-10-21T00:00:00	2024-11-08T09:00:00	2	Temperatura media	16.6
54258	7	Sololá	701	Sololá	1	Sololá	10	Octubre	2023-10-21T00:00:00	2024-11-08T09:00:00	4	Temperatura máxima	16.6
54259	7	Sololá	701	Sololá	1	Sololá	10	Octubre	2023-10-21T00:00:00	2024-11-08T09:00:00	3	Temperatura mínima	14.2
54260	7	Sololá	701	Sololá	1	Sololá	10	Octubre	2023-10-21T00:00:00	2024-11-08T09:00:00	5	Humedad	82
54261	7	Sololá	701	Sololá	1	Sololá	10	Octubre	2023-10-21T00:00:00	2024-11-08T09:00:00	6	Velocidad del viento	0
54262	7	Sololá	701	Sololá	1	Sololá	10	Octubre	2023-10-21T00:00:00	2024-11-08T09:00:00	7	Dirección del viento	0
54263	7	Sololá	701	Sololá	1	Sololá	10	Octubre	2023-10-21T00:00:00	2024-11-08T09:00:00	1	Precipitación	0
54264	7	Sololá	701	Sololá	1	Sololá	10	Octubre	2023-10-21T00:00:00	2024-11-08T09:00:00	8	Radiación solar	131
54265	7	Sololá	701	Sololá	1	Sololá	10	Octubre	2023-10-21T00:00:00	2024-11-08T10:00:00	2	Temperatura media	18.3
54266	7	Sololá	701	Sololá	1	Sololá	10	Octubre	2023-10-21T00:00:00	2024-11-08T10:00:00	4	Temperatura máxima	18.3
54267	7	Sololá	701	Sololá	1	Sololá	10	Octubre	2023-10-21T00:00:00	2024-11-08T10:00:00	3	Temperatura mínima	16.5
54268	7	Sololá	701	Sololá	1	Sololá	10	Octubre	2023-10-21T00:00:00	2024-11-08T10:00:00	5	Humedad	82
54269	7	Sololá	701	Sololá	1	Sololá	10	Octubre	2023-10-21T00:00:00	2024-11-08T10:00:00	6	Velocidad del viento	0
54270	7	Sololá	701	Sololá	1	Sololá	10	Octubre	2023-10-21T00:00:00	2024-11-08T10:00:00	7	Dirección del viento	0
54271	7	Sololá	701	Sololá	1	Sololá	10	Octubre	2023-10-21T00:00:00	2024-11-08T10:00:00	1	Precipitación	0
54272	7	Sololá	701	Sololá	1	Sololá	10	Octubre	2023-10-21T00:00:00	2024-11-08T10:00:00	8	Radiación solar	285
54273	7	Sololá	701	Sololá	1	Sololá	10	Octubre	2023-10-21T00:00:00	2024-11-08T11:00:00	2	Temperatura media	20.6
54274	7	Sololá	701	Sololá	1	Sololá	10	Octubre	2023-10-21T00:00:00	2024-11-08T11:00:00	4	Temperatura máxima	20.6
54275	7	Sololá	701	Sololá	1	Sololá	10	Octubre	2023-10-21T00:00:00	2024-11-08T11:00:00	3	Temperatura mínima	18.3
54276	7	Sololá	701	Sololá	1	Sololá	10	Octubre	2023-10-21T00:00:00	2024-11-08T11:00:00	5	Humedad	76
54277	7	Sololá	701	Sololá	1	Sololá	10	Octubre	2023-10-21T00:00:00	2024-11-08T11:00:00	6	Velocidad del viento	0
54278	7	Sololá	701	Sololá	1	Sololá	10	Octubre	2023-10-21T00:00:00	2024-11-08T11:00:00	7	Dirección del viento	0
54279	7	Sololá	701	Sololá	1	Sololá	10	Octubre	2023-10-21T00:00:00	2024-11-08T11:00:00	1	Precipitación	0
54280	7	Sololá	701	Sololá	1	Sololá	10	Octubre	2023-10-21T00:00:00	2024-11-08T11:00:00	8	Radiación solar	584
54281	7	Sololá	701	Sololá	1	Sololá	10	Octubre	2023-10-21T00:00:00	2024-11-08T12:00:00	2	Temperatura media	21.8
54282	7	Sololá	701	Sololá	1	Sololá	10	Octubre	2023-10-21T00:00:00	2024-11-08T12:00:00	4	Temperatura máxima	21.8
54283	7	Sololá	701	Sololá	1	Sololá	10	Octubre	2023-10-21T00:00:00	2024-11-08T12:00:00	3	Temperatura mínima	20.6
54284	7	Sololá	701	Sololá	1	Sololá	10	Octubre	2023-10-21T00:00:00	2024-11-08T12:00:00	5	Humedad	68
54285	7	Sololá	701	Sololá	1	Sololá	10	Octubre	2023-10-21T00:00:00	2024-11-08T12:00:00	6	Velocidad del viento	0
54286	7	Sololá	701	Sololá	1	Sololá	10	Octubre	2023-10-21T00:00:00	2024-11-08T12:00:00	7	Dirección del viento	0
54287	7	Sololá	701	Sololá	1	Sololá	10	Octubre	2023-10-21T00:00:00	2024-11-08T12:00:00	1	Precipitación	0
54288	7	Sololá	701	Sololá	1	Sololá	10	Octubre	2023-10-21T00:00:00	2024-11-08T12:00:00	8	Radiación solar	492
54289	7	Sololá	701	Sololá	1	Sololá	10	Octubre	2023-10-21T00:00:00	2024-11-08T13:00:00	2	Temperatura media	22.4
54290	7	Sololá	701	Sololá	1	Sololá	10	Octubre	2023-10-21T00:00:00	2024-11-08T13:00:00	4	Temperatura máxima	22.7
54291	7	Sololá	701	Sololá	1	Sololá	10	Octubre	2023-10-21T00:00:00	2024-11-08T13:00:00	3	Temperatura mínima	21.8
54292	7	Sololá	701	Sololá	1	Sololá	10	Octubre	2023-10-21T00:00:00	2024-11-08T13:00:00	5	Humedad	68
54293	7	Sololá	701	Sololá	1	Sololá	10	Octubre	2023-10-21T00:00:00	2024-11-08T13:00:00	6	Velocidad del viento	0
54294	7	Sololá	701	Sololá	1	Sololá	10	Octubre	2023-10-21T00:00:00	2024-11-08T13:00:00	7	Dirección del viento	0
54295	7	Sololá	701	Sololá	1	Sololá	10	Octubre	2023-10-21T00:00:00	2024-11-08T13:00:00	1	Precipitación	0
54296	7	Sololá	701	Sololá	1	Sololá	10	Octubre	2023-10-21T00:00:00	2024-11-08T13:00:00	8	Radiación solar	422
54297	7	Sololá	701	Sololá	1	Sololá	10	Octubre	2023-10-21T00:00:00	2024-11-08T14:00:00	2	Temperatura media	20.4
54298	7	Sololá	701	Sololá	1	Sololá	10	Octubre	2023-10-21T00:00:00	2024-11-08T14:00:00	4	Temperatura máxima	22.5
54299	7	Sololá	701	Sololá	1	Sololá	10	Octubre	2023-10-21T00:00:00	2024-11-08T14:00:00	3	Temperatura mínima	20.4
54300	7	Sololá	701	Sololá	1	Sololá	10	Octubre	2023-10-21T00:00:00	2024-11-08T14:00:00	5	Humedad	81
54301	7	Sololá	701	Sololá	1	Sololá	10	Octubre	2023-10-21T00:00:00	2024-11-08T14:00:00	6	Velocidad del viento	0
54302	7	Sololá	701	Sololá	1	Sololá	10	Octubre	2023-10-21T00:00:00	2024-11-08T14:00:00	7	Dirección del viento	0
54303	7	Sololá	701	Sololá	1	Sololá	10	Octubre	2023-10-21T00:00:00	2024-11-08T14:00:00	1	Precipitación	0
54304	7	Sololá	701	Sololá	1	Sololá	10	Octubre	2023-10-21T00:00:00	2024-11-08T14:00:00	8	Radiación solar	213
54305	7	Sololá	701	Sololá	1	Sololá	10	Octubre	2023-10-21T00:00:00	2024-11-08T15:00:00	2	Temperatura media	19.9
54306	7	Sololá	701	Sololá	1	Sololá	10	Octubre	2023-10-21T00:00:00	2024-11-08T15:00:00	4	Temperatura máxima	20.4
54307	7	Sololá	701	Sololá	1	Sololá	10	Octubre	2023-10-21T00:00:00	2024-11-08T15:00:00	3	Temperatura mínima	19.2
54308	7	Sololá	701	Sololá	1	Sololá	10	Octubre	2023-10-21T00:00:00	2024-11-08T15:00:00	5	Humedad	81
54309	7	Sololá	701	Sololá	1	Sololá	10	Octubre	2023-10-21T00:00:00	2024-11-08T15:00:00	6	Velocidad del viento	0
54310	7	Sololá	701	Sololá	1	Sololá	10	Octubre	2023-10-21T00:00:00	2024-11-08T15:00:00	7	Dirección del viento	0
54311	7	Sololá	701	Sololá	1	Sololá	10	Octubre	2023-10-21T00:00:00	2024-11-08T15:00:00	1	Precipitación	0
54312	7	Sololá	701	Sololá	1	Sololá	10	Octubre	2023-10-21T00:00:00	2024-11-08T15:00:00	8	Radiación solar	175
54313	7	Sololá	701	Sololá	1	Sololá	10	Octubre	2023-10-21T00:00:00	2024-11-08T16:00:00	2	Temperatura media	18.4
54314	7	Sololá	701	Sololá	1	Sololá	10	Octubre	2023-10-21T00:00:00	2024-11-08T16:00:00	4	Temperatura máxima	20.8
54315	7	Sololá	701	Sololá	1	Sololá	10	Octubre	2023-10-21T00:00:00	2024-11-08T16:00:00	3	Temperatura mínima	18.4
54316	7	Sololá	701	Sololá	1	Sololá	10	Octubre	2023-10-21T00:00:00	2024-11-08T16:00:00	5	Humedad	88
54317	7	Sololá	701	Sololá	1	Sololá	10	Octubre	2023-10-21T00:00:00	2024-11-08T16:00:00	6	Velocidad del viento	0
54318	7	Sololá	701	Sololá	1	Sololá	10	Octubre	2023-10-21T00:00:00	2024-11-08T16:00:00	7	Dirección del viento	0
54319	7	Sololá	701	Sololá	1	Sololá	10	Octubre	2023-10-21T00:00:00	2024-11-08T16:00:00	1	Precipitación	0
54320	7	Sololá	701	Sololá	1	Sololá	10	Octubre	2023-10-21T00:00:00	2024-11-08T16:00:00	8	Radiación solar	90
54321	7	Sololá	701	Sololá	1	Sololá	10	Octubre	2023-10-21T00:00:00	2024-11-08T17:00:00	2	Temperatura media	16.2
54322	7	Sololá	701	Sololá	1	Sololá	10	Octubre	2023-10-21T00:00:00	2024-11-08T17:00:00	4	Temperatura máxima	18.4
54323	7	Sololá	701	Sololá	1	Sololá	10	Octubre	2023-10-21T00:00:00	2024-11-08T17:00:00	3	Temperatura mínima	16.2
54324	7	Sololá	701	Sololá	1	Sololá	10	Octubre	2023-10-21T00:00:00	2024-11-08T17:00:00	5	Humedad	93
54325	7	Sololá	701	Sololá	1	Sololá	10	Octubre	2023-10-21T00:00:00	2024-11-08T17:00:00	6	Velocidad del viento	0
54326	7	Sololá	701	Sololá	1	Sololá	10	Octubre	2023-10-21T00:00:00	2024-11-08T17:00:00	7	Dirección del viento	0
54327	7	Sololá	701	Sololá	1	Sololá	10	Octubre	2023-10-21T00:00:00	2024-11-08T17:00:00	1	Precipitación	0.4
54328	7	Sololá	701	Sololá	1	Sololá	10	Octubre	2023-10-21T00:00:00	2024-11-08T17:00:00	8	Radiación solar	9
54329	7	Sololá	701	Sololá	1	Sololá	10	Octubre	2023-10-21T00:00:00	2024-11-08T18:00:00	2	Temperatura media	14.5
54330	7	Sololá	701	Sololá	1	Sololá	10	Octubre	2023-10-21T00:00:00	2024-11-08T18:00:00	4	Temperatura máxima	16.2
54331	7	Sololá	701	Sololá	1	Sololá	10	Octubre	2023-10-21T00:00:00	2024-11-08T18:00:00	3	Temperatura mínima	14.5
54332	7	Sololá	701	Sololá	1	Sololá	10	Octubre	2023-10-21T00:00:00	2024-11-08T18:00:00	5	Humedad	93
54333	7	Sololá	701	Sololá	1	Sololá	10	Octubre	2023-10-21T00:00:00	2024-11-08T18:00:00	6	Velocidad del viento	0
54334	7	Sololá	701	Sololá	1	Sololá	10	Octubre	2023-10-21T00:00:00	2024-11-08T18:00:00	7	Dirección del viento	0
54335	7	Sololá	701	Sololá	1	Sololá	10	Octubre	2023-10-21T00:00:00	2024-11-08T18:00:00	1	Precipitación	10.4
54336	7	Sololá	701	Sololá	1	Sololá	10	Octubre	2023-10-21T00:00:00	2024-11-08T18:00:00	8	Radiación solar	0
54337	7	Sololá	701	Sololá	1	Sololá	10	Octubre	2023-10-21T00:00:00	2024-11-08T19:00:00	2	Temperatura media	13.6
54338	7	Sololá	701	Sololá	1	Sololá	10	Octubre	2023-10-21T00:00:00	2024-11-08T19:00:00	4	Temperatura máxima	14.5
54339	7	Sololá	701	Sololá	1	Sololá	10	Octubre	2023-10-21T00:00:00	2024-11-08T19:00:00	3	Temperatura mínima	13.5
54340	7	Sololá	701	Sololá	1	Sololá	10	Octubre	2023-10-21T00:00:00	2024-11-08T19:00:00	5	Humedad	94
54341	7	Sololá	701	Sololá	1	Sololá	10	Octubre	2023-10-21T00:00:00	2024-11-08T19:00:00	6	Velocidad del viento	0
54342	7	Sololá	701	Sololá	1	Sololá	10	Octubre	2023-10-21T00:00:00	2024-11-08T19:00:00	7	Dirección del viento	0
54343	7	Sololá	701	Sololá	1	Sololá	10	Octubre	2023-10-21T00:00:00	2024-11-08T19:00:00	1	Precipitación	5.8
54344	7	Sololá	701	Sololá	1	Sololá	10	Octubre	2023-10-21T00:00:00	2024-11-08T19:00:00	8	Radiación solar	0
54345	7	Sololá	701	Sololá	1	Sololá	10	Octubre	2023-10-21T00:00:00	2024-11-08T20:00:00	2	Temperatura media	13.7
54346	7	Sololá	701	Sololá	1	Sololá	10	Octubre	2023-10-21T00:00:00	2024-11-08T20:00:00	4	Temperatura máxima	13.7
54347	7	Sololá	701	Sololá	1	Sololá	10	Octubre	2023-10-21T00:00:00	2024-11-08T20:00:00	3	Temperatura mínima	13.4
54348	7	Sololá	701	Sololá	1	Sololá	10	Octubre	2023-10-21T00:00:00	2024-11-08T20:00:00	5	Humedad	95
54349	7	Sololá	701	Sololá	1	Sololá	10	Octubre	2023-10-21T00:00:00	2024-11-08T20:00:00	6	Velocidad del viento	0
54350	7	Sololá	701	Sololá	1	Sololá	10	Octubre	2023-10-21T00:00:00	2024-11-08T20:00:00	7	Dirección del viento	0
54351	7	Sololá	701	Sololá	1	Sololá	10	Octubre	2023-10-21T00:00:00	2024-11-08T20:00:00	1	Precipitación	0.6
54352	7	Sololá	701	Sololá	1	Sololá	10	Octubre	2023-10-21T00:00:00	2024-11-08T20:00:00	8	Radiación solar	0
54353	7	Sololá	701	Sololá	1	Sololá	10	Octubre	2023-10-21T00:00:00	2024-11-08T21:00:00	2	Temperatura media	13.7
54354	7	Sololá	701	Sololá	1	Sololá	10	Octubre	2023-10-21T00:00:00	2024-11-08T21:00:00	4	Temperatura máxima	13.8
54355	7	Sololá	701	Sololá	1	Sololá	10	Octubre	2023-10-21T00:00:00	2024-11-08T21:00:00	3	Temperatura mínima	13.7
54356	7	Sololá	701	Sololá	1	Sololá	10	Octubre	2023-10-21T00:00:00	2024-11-08T21:00:00	5	Humedad	95
54357	7	Sololá	701	Sololá	1	Sololá	10	Octubre	2023-10-21T00:00:00	2024-11-08T21:00:00	6	Velocidad del viento	0
54358	7	Sololá	701	Sololá	1	Sololá	10	Octubre	2023-10-21T00:00:00	2024-11-08T21:00:00	7	Dirección del viento	0
54359	7	Sololá	701	Sololá	1	Sololá	10	Octubre	2023-10-21T00:00:00	2024-11-08T21:00:00	1	Precipitación	0.2
54360	7	Sololá	701	Sololá	1	Sololá	10	Octubre	2023-10-21T00:00:00	2024-11-08T21:00:00	8	Radiación solar	0
54361	7	Sololá	701	Sololá	1	Sololá	10	Octubre	2023-10-21T00:00:00	2024-11-08T22:00:00	2	Temperatura media	14
54362	7	Sololá	701	Sololá	1	Sololá	10	Octubre	2023-10-21T00:00:00	2024-11-08T22:00:00	4	Temperatura máxima	14.1
54363	7	Sololá	701	Sololá	1	Sololá	10	Octubre	2023-10-21T00:00:00	2024-11-08T22:00:00	3	Temperatura mínima	13.7
54364	7	Sololá	701	Sololá	1	Sololá	10	Octubre	2023-10-21T00:00:00	2024-11-08T22:00:00	5	Humedad	96
54365	7	Sololá	701	Sololá	1	Sololá	10	Octubre	2023-10-21T00:00:00	2024-11-08T22:00:00	6	Velocidad del viento	0
54366	7	Sololá	701	Sololá	1	Sololá	10	Octubre	2023-10-21T00:00:00	2024-11-08T22:00:00	7	Dirección del viento	0
54367	7	Sololá	701	Sololá	1	Sololá	10	Octubre	2023-10-21T00:00:00	2024-11-08T22:00:00	1	Precipitación	0
54368	7	Sololá	701	Sololá	1	Sololá	10	Octubre	2023-10-21T00:00:00	2024-11-08T22:00:00	8	Radiación solar	0
54369	7	Sololá	701	Sololá	1	Sololá	10	Octubre	2023-10-21T00:00:00	2024-11-08T23:00:00	2	Temperatura media	13.6
54370	7	Sololá	701	Sololá	1	Sololá	10	Octubre	2023-10-21T00:00:00	2024-11-08T23:00:00	4	Temperatura máxima	14.1
54371	7	Sololá	701	Sololá	1	Sololá	10	Octubre	2023-10-21T00:00:00	2024-11-08T23:00:00	3	Temperatura mínima	13.6
54372	7	Sololá	701	Sololá	1	Sololá	10	Octubre	2023-10-21T00:00:00	2024-11-08T23:00:00	5	Humedad	95
54373	7	Sololá	701	Sololá	1	Sololá	10	Octubre	2023-10-21T00:00:00	2024-11-08T23:00:00	6	Velocidad del viento	0
54374	7	Sololá	701	Sololá	1	Sololá	10	Octubre	2023-10-21T00:00:00	2024-11-08T23:00:00	7	Dirección del viento	0
54375	7	Sololá	701	Sololá	1	Sololá	10	Octubre	2023-10-21T00:00:00	2024-11-08T23:00:00	1	Precipitación	0
54376	7	Sololá	701	Sololá	1	Sololá	10	Octubre	2023-10-21T00:00:00	2024-11-08T23:00:00	8	Radiación solar	0
54377	7	Sololá	701	Sololá	1	Sololá	10	Octubre	2023-10-22T00:00:00	2024-11-08T00:00:00	2	Temperatura media	13.6
54378	7	Sololá	701	Sololá	1	Sololá	10	Octubre	2023-10-22T00:00:00	2024-11-08T00:00:00	4	Temperatura máxima	13.6
54379	7	Sololá	701	Sololá	1	Sololá	10	Octubre	2023-10-22T00:00:00	2024-11-08T00:00:00	3	Temperatura mínima	13.3
54380	7	Sololá	701	Sololá	1	Sololá	10	Octubre	2023-10-22T00:00:00	2024-11-08T00:00:00	5	Humedad	96
54381	7	Sololá	701	Sololá	1	Sololá	10	Octubre	2023-10-22T00:00:00	2024-11-08T00:00:00	6	Velocidad del viento	0
54382	7	Sololá	701	Sololá	1	Sololá	10	Octubre	2023-10-22T00:00:00	2024-11-08T00:00:00	7	Dirección del viento	0
54383	7	Sololá	701	Sololá	1	Sololá	10	Octubre	2023-10-22T00:00:00	2024-11-08T00:00:00	1	Precipitación	0
54384	7	Sololá	701	Sololá	1	Sololá	10	Octubre	2023-10-22T00:00:00	2024-11-08T00:00:00	8	Radiación solar	0
54385	7	Sololá	701	Sololá	1	Sololá	10	Octubre	2023-10-22T00:00:00	2024-11-08T01:00:00	2	Temperatura media	13.8
54386	7	Sololá	701	Sololá	1	Sololá	10	Octubre	2023-10-22T00:00:00	2024-11-08T01:00:00	4	Temperatura máxima	13.8
54387	7	Sololá	701	Sololá	1	Sololá	10	Octubre	2023-10-22T00:00:00	2024-11-08T01:00:00	3	Temperatura mínima	13.6
54388	7	Sololá	701	Sololá	1	Sololá	10	Octubre	2023-10-22T00:00:00	2024-11-08T01:00:00	5	Humedad	96
54389	7	Sololá	701	Sololá	1	Sololá	10	Octubre	2023-10-22T00:00:00	2024-11-08T01:00:00	6	Velocidad del viento	0
54390	7	Sololá	701	Sololá	1	Sololá	10	Octubre	2023-10-22T00:00:00	2024-11-08T01:00:00	7	Dirección del viento	0
54391	7	Sololá	701	Sololá	1	Sololá	10	Octubre	2023-10-22T00:00:00	2024-11-08T01:00:00	1	Precipitación	0
54392	7	Sololá	701	Sololá	1	Sololá	10	Octubre	2023-10-22T00:00:00	2024-11-08T01:00:00	8	Radiación solar	0
54393	7	Sololá	701	Sololá	1	Sololá	10	Octubre	2023-10-22T00:00:00	2024-11-08T02:00:00	2	Temperatura media	13.8
54394	7	Sololá	701	Sololá	1	Sololá	10	Octubre	2023-10-22T00:00:00	2024-11-08T02:00:00	4	Temperatura máxima	13.8
54395	7	Sololá	701	Sololá	1	Sololá	10	Octubre	2023-10-22T00:00:00	2024-11-08T02:00:00	3	Temperatura mínima	13.7
54396	7	Sololá	701	Sololá	1	Sololá	10	Octubre	2023-10-22T00:00:00	2024-11-08T02:00:00	5	Humedad	96
54397	7	Sololá	701	Sololá	1	Sololá	10	Octubre	2023-10-22T00:00:00	2024-11-08T02:00:00	6	Velocidad del viento	0
54398	7	Sololá	701	Sololá	1	Sololá	10	Octubre	2023-10-22T00:00:00	2024-11-08T02:00:00	7	Dirección del viento	0
54399	7	Sololá	701	Sololá	1	Sololá	10	Octubre	2023-10-22T00:00:00	2024-11-08T02:00:00	1	Precipitación	0
54400	7	Sololá	701	Sololá	1	Sololá	10	Octubre	2023-10-22T00:00:00	2024-11-08T02:00:00	8	Radiación solar	0
54401	7	Sololá	701	Sololá	1	Sololá	10	Octubre	2023-10-22T00:00:00	2024-11-08T03:00:00	2	Temperatura media	13.6
54402	7	Sololá	701	Sololá	1	Sololá	10	Octubre	2023-10-22T00:00:00	2024-11-08T03:00:00	4	Temperatura máxima	13.8
54403	7	Sololá	701	Sololá	1	Sololá	10	Octubre	2023-10-22T00:00:00	2024-11-08T03:00:00	3	Temperatura mínima	13.6
54404	7	Sololá	701	Sololá	1	Sololá	10	Octubre	2023-10-22T00:00:00	2024-11-08T03:00:00	5	Humedad	95
54405	7	Sololá	701	Sololá	1	Sololá	10	Octubre	2023-10-22T00:00:00	2024-11-08T03:00:00	6	Velocidad del viento	0
54406	7	Sololá	701	Sololá	1	Sololá	10	Octubre	2023-10-22T00:00:00	2024-11-08T03:00:00	7	Dirección del viento	0
54407	7	Sololá	701	Sololá	1	Sololá	10	Octubre	2023-10-22T00:00:00	2024-11-08T03:00:00	1	Precipitación	0
54408	7	Sololá	701	Sololá	1	Sololá	10	Octubre	2023-10-22T00:00:00	2024-11-08T03:00:00	8	Radiación solar	0
54409	7	Sololá	701	Sololá	1	Sololá	10	Octubre	2023-10-22T00:00:00	2024-11-08T04:00:00	2	Temperatura media	13.4
54410	7	Sololá	701	Sololá	1	Sololá	10	Octubre	2023-10-22T00:00:00	2024-11-08T04:00:00	4	Temperatura máxima	13.6
54411	7	Sololá	701	Sololá	1	Sololá	10	Octubre	2023-10-22T00:00:00	2024-11-08T04:00:00	3	Temperatura mínima	13.4
54412	7	Sololá	701	Sololá	1	Sololá	10	Octubre	2023-10-22T00:00:00	2024-11-08T04:00:00	5	Humedad	95
54413	7	Sololá	701	Sololá	1	Sololá	10	Octubre	2023-10-22T00:00:00	2024-11-08T04:00:00	6	Velocidad del viento	0
54414	7	Sololá	701	Sololá	1	Sololá	10	Octubre	2023-10-22T00:00:00	2024-11-08T04:00:00	7	Dirección del viento	0
54415	7	Sololá	701	Sololá	1	Sololá	10	Octubre	2023-10-22T00:00:00	2024-11-08T04:00:00	1	Precipitación	0
54416	7	Sololá	701	Sololá	1	Sololá	10	Octubre	2023-10-22T00:00:00	2024-11-08T04:00:00	8	Radiación solar	0
54417	7	Sololá	701	Sololá	1	Sololá	10	Octubre	2023-10-22T00:00:00	2024-11-08T05:00:00	2	Temperatura media	12.9
54418	7	Sololá	701	Sololá	1	Sololá	10	Octubre	2023-10-22T00:00:00	2024-11-08T05:00:00	4	Temperatura máxima	13.4
54419	7	Sololá	701	Sololá	1	Sololá	10	Octubre	2023-10-22T00:00:00	2024-11-08T05:00:00	3	Temperatura mínima	12.9
54420	7	Sololá	701	Sololá	1	Sololá	10	Octubre	2023-10-22T00:00:00	2024-11-08T05:00:00	5	Humedad	95
54421	7	Sololá	701	Sololá	1	Sololá	10	Octubre	2023-10-22T00:00:00	2024-11-08T05:00:00	6	Velocidad del viento	0
54422	7	Sololá	701	Sololá	1	Sololá	10	Octubre	2023-10-22T00:00:00	2024-11-08T05:00:00	7	Dirección del viento	0
54423	7	Sololá	701	Sololá	1	Sololá	10	Octubre	2023-10-22T00:00:00	2024-11-08T05:00:00	1	Precipitación	0
54424	7	Sololá	701	Sololá	1	Sololá	10	Octubre	2023-10-22T00:00:00	2024-11-08T05:00:00	8	Radiación solar	0
54425	7	Sololá	701	Sololá	1	Sololá	10	Octubre	2023-10-22T00:00:00	2024-11-08T06:00:00	2	Temperatura media	12.4
54426	7	Sololá	701	Sololá	1	Sololá	10	Octubre	2023-10-22T00:00:00	2024-11-08T06:00:00	4	Temperatura máxima	12.9
54427	7	Sololá	701	Sololá	1	Sololá	10	Octubre	2023-10-22T00:00:00	2024-11-08T06:00:00	3	Temperatura mínima	12.3
54428	7	Sololá	701	Sololá	1	Sololá	10	Octubre	2023-10-22T00:00:00	2024-11-08T06:00:00	5	Humedad	95
54429	7	Sololá	701	Sololá	1	Sololá	10	Octubre	2023-10-22T00:00:00	2024-11-08T06:00:00	6	Velocidad del viento	0
54430	7	Sololá	701	Sololá	1	Sololá	10	Octubre	2023-10-22T00:00:00	2024-11-08T06:00:00	7	Dirección del viento	0
54431	7	Sololá	701	Sololá	1	Sololá	10	Octubre	2023-10-22T00:00:00	2024-11-08T06:00:00	1	Precipitación	0
54432	7	Sololá	701	Sololá	1	Sololá	10	Octubre	2023-10-22T00:00:00	2024-11-08T06:00:00	8	Radiación solar	0
54433	7	Sololá	701	Sololá	1	Sololá	10	Octubre	2023-10-22T00:00:00	2024-11-08T07:00:00	2	Temperatura media	12.6
54434	7	Sololá	701	Sololá	1	Sololá	10	Octubre	2023-10-22T00:00:00	2024-11-08T07:00:00	4	Temperatura máxima	12.7
54435	7	Sololá	701	Sololá	1	Sololá	10	Octubre	2023-10-22T00:00:00	2024-11-08T07:00:00	3	Temperatura mínima	12.2
54436	7	Sololá	701	Sololá	1	Sololá	10	Octubre	2023-10-22T00:00:00	2024-11-08T07:00:00	5	Humedad	95
54437	7	Sololá	701	Sololá	1	Sololá	10	Octubre	2023-10-22T00:00:00	2024-11-08T07:00:00	6	Velocidad del viento	0
54438	7	Sololá	701	Sololá	1	Sololá	10	Octubre	2023-10-22T00:00:00	2024-11-08T07:00:00	7	Dirección del viento	0
54439	7	Sololá	701	Sololá	1	Sololá	10	Octubre	2023-10-22T00:00:00	2024-11-08T07:00:00	1	Precipitación	0
54440	7	Sololá	701	Sololá	1	Sololá	10	Octubre	2023-10-22T00:00:00	2024-11-08T07:00:00	8	Radiación solar	17
54441	7	Sololá	701	Sololá	1	Sololá	10	Octubre	2023-10-22T00:00:00	2024-11-08T08:00:00	2	Temperatura media	14.4
54442	7	Sololá	701	Sololá	1	Sololá	10	Octubre	2023-10-22T00:00:00	2024-11-08T08:00:00	4	Temperatura máxima	14.4
54443	7	Sololá	701	Sololá	1	Sololá	10	Octubre	2023-10-22T00:00:00	2024-11-08T08:00:00	3	Temperatura mínima	12.6
54444	7	Sololá	701	Sololá	1	Sololá	10	Octubre	2023-10-22T00:00:00	2024-11-08T08:00:00	5	Humedad	96
54445	7	Sololá	701	Sololá	1	Sololá	10	Octubre	2023-10-22T00:00:00	2024-11-08T08:00:00	6	Velocidad del viento	0
54446	7	Sololá	701	Sololá	1	Sololá	10	Octubre	2023-10-22T00:00:00	2024-11-08T08:00:00	7	Dirección del viento	0
54447	7	Sololá	701	Sololá	1	Sololá	10	Octubre	2023-10-22T00:00:00	2024-11-08T08:00:00	1	Precipitación	0
54448	7	Sololá	701	Sololá	1	Sololá	10	Octubre	2023-10-22T00:00:00	2024-11-08T08:00:00	8	Radiación solar	71
54449	7	Sololá	701	Sololá	1	Sololá	10	Octubre	2023-10-22T00:00:00	2024-11-08T09:00:00	2	Temperatura media	19.6
54450	7	Sololá	701	Sololá	1	Sololá	10	Octubre	2023-10-22T00:00:00	2024-11-08T09:00:00	4	Temperatura máxima	19.6
54451	7	Sololá	701	Sololá	1	Sololá	10	Octubre	2023-10-22T00:00:00	2024-11-08T09:00:00	3	Temperatura mínima	14.4
54452	7	Sololá	701	Sololá	1	Sololá	10	Octubre	2023-10-22T00:00:00	2024-11-08T09:00:00	5	Humedad	83
54453	7	Sololá	701	Sololá	1	Sololá	10	Octubre	2023-10-22T00:00:00	2024-11-08T09:00:00	6	Velocidad del viento	0
54454	7	Sololá	701	Sololá	1	Sololá	10	Octubre	2023-10-22T00:00:00	2024-11-08T09:00:00	7	Dirección del viento	0
54455	7	Sololá	701	Sololá	1	Sololá	10	Octubre	2023-10-22T00:00:00	2024-11-08T09:00:00	1	Precipitación	0
54456	7	Sololá	701	Sololá	1	Sololá	10	Octubre	2023-10-22T00:00:00	2024-11-08T09:00:00	8	Radiación solar	585
54457	7	Sololá	701	Sololá	1	Sololá	10	Octubre	2023-10-22T00:00:00	2024-11-08T10:00:00	2	Temperatura media	21.1
54458	7	Sololá	701	Sololá	1	Sololá	10	Octubre	2023-10-22T00:00:00	2024-11-08T10:00:00	4	Temperatura máxima	21.1
54459	7	Sololá	701	Sololá	1	Sololá	10	Octubre	2023-10-22T00:00:00	2024-11-08T10:00:00	3	Temperatura mínima	19.6
54460	7	Sololá	701	Sololá	1	Sololá	10	Octubre	2023-10-22T00:00:00	2024-11-08T10:00:00	5	Humedad	80
54461	7	Sololá	701	Sololá	1	Sololá	10	Octubre	2023-10-22T00:00:00	2024-11-08T10:00:00	6	Velocidad del viento	0
54462	7	Sololá	701	Sololá	1	Sololá	10	Octubre	2023-10-22T00:00:00	2024-11-08T10:00:00	7	Dirección del viento	0
54463	7	Sololá	701	Sololá	1	Sololá	10	Octubre	2023-10-22T00:00:00	2024-11-08T10:00:00	1	Precipitación	0
54464	7	Sololá	701	Sololá	1	Sololá	10	Octubre	2023-10-22T00:00:00	2024-11-08T10:00:00	8	Radiación solar	790
54465	7	Sololá	701	Sololá	1	Sololá	10	Octubre	2023-10-22T00:00:00	2024-11-08T11:00:00	2	Temperatura media	21.4
54466	7	Sololá	701	Sololá	1	Sololá	10	Octubre	2023-10-22T00:00:00	2024-11-08T11:00:00	4	Temperatura máxima	21.8
54467	7	Sololá	701	Sololá	1	Sololá	10	Octubre	2023-10-22T00:00:00	2024-11-08T11:00:00	3	Temperatura mínima	21.1
54468	7	Sololá	701	Sololá	1	Sololá	10	Octubre	2023-10-22T00:00:00	2024-11-08T11:00:00	5	Humedad	77
54469	7	Sololá	701	Sololá	1	Sololá	10	Octubre	2023-10-22T00:00:00	2024-11-08T11:00:00	6	Velocidad del viento	0
54470	7	Sololá	701	Sololá	1	Sololá	10	Octubre	2023-10-22T00:00:00	2024-11-08T11:00:00	7	Dirección del viento	0
54471	7	Sololá	701	Sololá	1	Sololá	10	Octubre	2023-10-22T00:00:00	2024-11-08T11:00:00	1	Precipitación	0
54472	7	Sololá	701	Sololá	1	Sololá	10	Octubre	2023-10-22T00:00:00	2024-11-08T11:00:00	8	Radiación solar	925
54473	7	Sololá	701	Sololá	1	Sololá	10	Octubre	2023-10-22T00:00:00	2024-11-08T12:00:00	2	Temperatura media	21.8
54474	7	Sololá	701	Sololá	1	Sololá	10	Octubre	2023-10-22T00:00:00	2024-11-08T12:00:00	4	Temperatura máxima	21.9
54475	7	Sololá	701	Sololá	1	Sololá	10	Octubre	2023-10-22T00:00:00	2024-11-08T12:00:00	3	Temperatura mínima	21.3
54476	7	Sololá	701	Sololá	1	Sololá	10	Octubre	2023-10-22T00:00:00	2024-11-08T12:00:00	5	Humedad	78
54477	7	Sololá	701	Sololá	1	Sololá	10	Octubre	2023-10-22T00:00:00	2024-11-08T12:00:00	6	Velocidad del viento	1.6
54478	7	Sololá	701	Sololá	1	Sololá	10	Octubre	2023-10-22T00:00:00	2024-11-08T12:00:00	7	Dirección del viento	1.61
54479	7	Sololá	701	Sololá	1	Sololá	10	Octubre	2023-10-22T00:00:00	2024-11-08T12:00:00	1	Precipitación	0
54480	7	Sololá	701	Sololá	1	Sololá	10	Octubre	2023-10-22T00:00:00	2024-11-08T12:00:00	8	Radiación solar	950
54481	7	Sololá	701	Sololá	1	Sololá	10	Octubre	2023-10-22T00:00:00	2024-11-08T13:00:00	2	Temperatura media	22.2
54482	7	Sololá	701	Sololá	1	Sololá	10	Octubre	2023-10-22T00:00:00	2024-11-08T13:00:00	4	Temperatura máxima	22.4
54483	7	Sololá	701	Sololá	1	Sololá	10	Octubre	2023-10-22T00:00:00	2024-11-08T13:00:00	3	Temperatura mínima	21.7
54484	7	Sololá	701	Sololá	1	Sololá	10	Octubre	2023-10-22T00:00:00	2024-11-08T13:00:00	5	Humedad	75
54485	7	Sololá	701	Sololá	1	Sololá	10	Octubre	2023-10-22T00:00:00	2024-11-08T13:00:00	6	Velocidad del viento	1.6
54486	7	Sololá	701	Sololá	1	Sololá	10	Octubre	2023-10-22T00:00:00	2024-11-08T13:00:00	7	Dirección del viento	1.61
54487	7	Sololá	701	Sololá	1	Sololá	10	Octubre	2023-10-22T00:00:00	2024-11-08T13:00:00	1	Precipitación	0
54488	7	Sololá	701	Sololá	1	Sololá	10	Octubre	2023-10-22T00:00:00	2024-11-08T13:00:00	8	Radiación solar	401
54489	7	Sololá	701	Sololá	1	Sololá	10	Octubre	2023-10-22T00:00:00	2024-11-08T14:00:00	2	Temperatura media	19.6
54490	7	Sololá	701	Sololá	1	Sololá	10	Octubre	2023-10-22T00:00:00	2024-11-08T14:00:00	4	Temperatura máxima	22.2
54491	7	Sololá	701	Sololá	1	Sololá	10	Octubre	2023-10-22T00:00:00	2024-11-08T14:00:00	3	Temperatura mínima	19.6
54492	7	Sololá	701	Sololá	1	Sololá	10	Octubre	2023-10-22T00:00:00	2024-11-08T14:00:00	5	Humedad	86
54493	7	Sololá	701	Sololá	1	Sololá	10	Octubre	2023-10-22T00:00:00	2024-11-08T14:00:00	6	Velocidad del viento	0
54494	7	Sololá	701	Sololá	1	Sololá	10	Octubre	2023-10-22T00:00:00	2024-11-08T14:00:00	7	Dirección del viento	0
54495	7	Sololá	701	Sololá	1	Sololá	10	Octubre	2023-10-22T00:00:00	2024-11-08T14:00:00	1	Precipitación	0
54496	7	Sololá	701	Sololá	1	Sololá	10	Octubre	2023-10-22T00:00:00	2024-11-08T14:00:00	8	Radiación solar	148
54497	7	Sololá	701	Sololá	1	Sololá	10	Octubre	2023-10-22T00:00:00	2024-11-08T15:00:00	2	Temperatura media	17.4
54498	7	Sololá	701	Sololá	1	Sololá	10	Octubre	2023-10-22T00:00:00	2024-11-08T15:00:00	4	Temperatura máxima	19.6
54499	7	Sololá	701	Sololá	1	Sololá	10	Octubre	2023-10-22T00:00:00	2024-11-08T15:00:00	3	Temperatura mínima	17.1
54500	7	Sololá	701	Sololá	1	Sololá	10	Octubre	2023-10-22T00:00:00	2024-11-08T15:00:00	5	Humedad	90
54501	7	Sololá	701	Sololá	1	Sololá	10	Octubre	2023-10-22T00:00:00	2024-11-08T15:00:00	6	Velocidad del viento	0
54502	7	Sololá	701	Sololá	1	Sololá	10	Octubre	2023-10-22T00:00:00	2024-11-08T15:00:00	7	Dirección del viento	0
54503	7	Sololá	701	Sololá	1	Sololá	10	Octubre	2023-10-22T00:00:00	2024-11-08T15:00:00	1	Precipitación	0
54504	7	Sololá	701	Sololá	1	Sololá	10	Octubre	2023-10-22T00:00:00	2024-11-08T15:00:00	8	Radiación solar	86
54505	7	Sololá	701	Sololá	1	Sololá	10	Octubre	2023-10-22T00:00:00	2024-11-08T16:00:00	2	Temperatura media	17.8
54506	7	Sololá	701	Sololá	1	Sololá	10	Octubre	2023-10-22T00:00:00	2024-11-08T16:00:00	4	Temperatura máxima	18.1
54507	7	Sololá	701	Sololá	1	Sololá	10	Octubre	2023-10-22T00:00:00	2024-11-08T16:00:00	3	Temperatura mínima	17.4
54508	7	Sololá	701	Sololá	1	Sololá	10	Octubre	2023-10-22T00:00:00	2024-11-08T16:00:00	5	Humedad	90
54509	7	Sololá	701	Sololá	1	Sololá	10	Octubre	2023-10-22T00:00:00	2024-11-08T16:00:00	6	Velocidad del viento	0
54510	7	Sololá	701	Sololá	1	Sololá	10	Octubre	2023-10-22T00:00:00	2024-11-08T16:00:00	7	Dirección del viento	0
54511	7	Sololá	701	Sololá	1	Sololá	10	Octubre	2023-10-22T00:00:00	2024-11-08T16:00:00	1	Precipitación	0
54512	7	Sololá	701	Sololá	1	Sololá	10	Octubre	2023-10-22T00:00:00	2024-11-08T16:00:00	8	Radiación solar	95
54513	7	Sololá	701	Sololá	1	Sololá	10	Octubre	2023-10-22T00:00:00	2024-11-08T17:00:00	2	Temperatura media	17.4
54514	7	Sololá	701	Sololá	1	Sololá	10	Octubre	2023-10-22T00:00:00	2024-11-08T17:00:00	4	Temperatura máxima	17.9
54515	7	Sololá	701	Sololá	1	Sololá	10	Octubre	2023-10-22T00:00:00	2024-11-08T17:00:00	3	Temperatura mínima	17.4
54516	7	Sololá	701	Sololá	1	Sololá	10	Octubre	2023-10-22T00:00:00	2024-11-08T17:00:00	5	Humedad	91
54517	7	Sololá	701	Sololá	1	Sololá	10	Octubre	2023-10-22T00:00:00	2024-11-08T17:00:00	6	Velocidad del viento	0
54518	7	Sololá	701	Sololá	1	Sololá	10	Octubre	2023-10-22T00:00:00	2024-11-08T17:00:00	7	Dirección del viento	0
54519	7	Sololá	701	Sololá	1	Sololá	10	Octubre	2023-10-22T00:00:00	2024-11-08T17:00:00	1	Precipitación	0
54520	7	Sololá	701	Sololá	1	Sololá	10	Octubre	2023-10-22T00:00:00	2024-11-08T17:00:00	8	Radiación solar	34
54521	7	Sololá	701	Sololá	1	Sololá	10	Octubre	2023-10-22T00:00:00	2024-11-08T18:00:00	2	Temperatura media	16.6
54522	7	Sololá	701	Sololá	1	Sololá	10	Octubre	2023-10-22T00:00:00	2024-11-08T18:00:00	4	Temperatura máxima	17.4
54523	7	Sololá	701	Sololá	1	Sololá	10	Octubre	2023-10-22T00:00:00	2024-11-08T18:00:00	3	Temperatura mínima	16.6
54524	7	Sololá	701	Sololá	1	Sololá	10	Octubre	2023-10-22T00:00:00	2024-11-08T18:00:00	5	Humedad	92
54525	7	Sololá	701	Sololá	1	Sololá	10	Octubre	2023-10-22T00:00:00	2024-11-08T18:00:00	6	Velocidad del viento	0
54526	7	Sololá	701	Sololá	1	Sololá	10	Octubre	2023-10-22T00:00:00	2024-11-08T18:00:00	7	Dirección del viento	0
54527	7	Sololá	701	Sololá	1	Sololá	10	Octubre	2023-10-22T00:00:00	2024-11-08T18:00:00	1	Precipitación	0
54528	7	Sololá	701	Sololá	1	Sololá	10	Octubre	2023-10-22T00:00:00	2024-11-08T18:00:00	8	Radiación solar	0
54529	7	Sololá	701	Sololá	1	Sololá	10	Octubre	2023-10-22T00:00:00	2024-11-08T19:00:00	2	Temperatura media	15.9
54530	7	Sololá	701	Sololá	1	Sololá	10	Octubre	2023-10-22T00:00:00	2024-11-08T19:00:00	4	Temperatura máxima	16.6
54531	7	Sololá	701	Sololá	1	Sololá	10	Octubre	2023-10-22T00:00:00	2024-11-08T19:00:00	3	Temperatura mínima	15.9
54532	7	Sololá	701	Sololá	1	Sololá	10	Octubre	2023-10-22T00:00:00	2024-11-08T19:00:00	5	Humedad	94
54533	7	Sololá	701	Sololá	1	Sololá	10	Octubre	2023-10-22T00:00:00	2024-11-08T19:00:00	6	Velocidad del viento	0
54534	7	Sololá	701	Sololá	1	Sololá	10	Octubre	2023-10-22T00:00:00	2024-11-08T19:00:00	7	Dirección del viento	0
54535	7	Sololá	701	Sololá	1	Sololá	10	Octubre	2023-10-22T00:00:00	2024-11-08T19:00:00	1	Precipitación	3.8
54536	7	Sololá	701	Sololá	1	Sololá	10	Octubre	2023-10-22T00:00:00	2024-11-08T19:00:00	8	Radiación solar	0
54537	7	Sololá	701	Sololá	1	Sololá	10	Octubre	2023-10-22T00:00:00	2024-11-08T20:00:00	2	Temperatura media	15.3
54538	7	Sololá	701	Sololá	1	Sololá	10	Octubre	2023-10-22T00:00:00	2024-11-08T20:00:00	4	Temperatura máxima	15.9
54539	7	Sololá	701	Sololá	1	Sololá	10	Octubre	2023-10-22T00:00:00	2024-11-08T20:00:00	3	Temperatura mínima	15.3
54540	7	Sololá	701	Sololá	1	Sololá	10	Octubre	2023-10-22T00:00:00	2024-11-08T20:00:00	5	Humedad	95
54541	7	Sololá	701	Sololá	1	Sololá	10	Octubre	2023-10-22T00:00:00	2024-11-08T20:00:00	6	Velocidad del viento	0
54542	7	Sololá	701	Sololá	1	Sololá	10	Octubre	2023-10-22T00:00:00	2024-11-08T20:00:00	7	Dirección del viento	0
54543	7	Sololá	701	Sololá	1	Sololá	10	Octubre	2023-10-22T00:00:00	2024-11-08T20:00:00	1	Precipitación	1.4
54544	7	Sololá	701	Sololá	1	Sololá	10	Octubre	2023-10-22T00:00:00	2024-11-08T20:00:00	8	Radiación solar	0
54545	7	Sololá	701	Sololá	1	Sololá	10	Octubre	2023-10-22T00:00:00	2024-11-08T21:00:00	2	Temperatura media	15.2
54546	7	Sololá	701	Sololá	1	Sololá	10	Octubre	2023-10-22T00:00:00	2024-11-08T21:00:00	4	Temperatura máxima	15.4
54547	7	Sololá	701	Sololá	1	Sololá	10	Octubre	2023-10-22T00:00:00	2024-11-08T21:00:00	3	Temperatura mínima	15.2
54548	7	Sololá	701	Sololá	1	Sololá	10	Octubre	2023-10-22T00:00:00	2024-11-08T21:00:00	5	Humedad	95
54549	7	Sololá	701	Sololá	1	Sololá	10	Octubre	2023-10-22T00:00:00	2024-11-08T21:00:00	6	Velocidad del viento	0
54550	7	Sololá	701	Sololá	1	Sololá	10	Octubre	2023-10-22T00:00:00	2024-11-08T21:00:00	7	Dirección del viento	0
54551	7	Sololá	701	Sololá	1	Sololá	10	Octubre	2023-10-22T00:00:00	2024-11-08T21:00:00	1	Precipitación	0.2
54552	7	Sololá	701	Sololá	1	Sololá	10	Octubre	2023-10-22T00:00:00	2024-11-08T21:00:00	8	Radiación solar	0
54553	7	Sololá	701	Sololá	1	Sololá	10	Octubre	2023-10-22T00:00:00	2024-11-08T22:00:00	2	Temperatura media	15
54554	7	Sololá	701	Sololá	1	Sololá	10	Octubre	2023-10-22T00:00:00	2024-11-08T22:00:00	4	Temperatura máxima	15.3
54555	7	Sololá	701	Sololá	1	Sololá	10	Octubre	2023-10-22T00:00:00	2024-11-08T22:00:00	3	Temperatura mínima	14.9
54556	7	Sololá	701	Sololá	1	Sololá	10	Octubre	2023-10-22T00:00:00	2024-11-08T22:00:00	5	Humedad	95
54557	7	Sololá	701	Sololá	1	Sololá	10	Octubre	2023-10-22T00:00:00	2024-11-08T22:00:00	6	Velocidad del viento	0
54558	7	Sololá	701	Sololá	1	Sololá	10	Octubre	2023-10-22T00:00:00	2024-11-08T22:00:00	7	Dirección del viento	0
54559	7	Sololá	701	Sololá	1	Sololá	10	Octubre	2023-10-22T00:00:00	2024-11-08T22:00:00	1	Precipitación	0.4
54560	7	Sololá	701	Sololá	1	Sololá	10	Octubre	2023-10-22T00:00:00	2024-11-08T22:00:00	8	Radiación solar	0
54561	7	Sololá	701	Sololá	1	Sololá	10	Octubre	2023-10-22T00:00:00	2024-11-08T23:00:00	2	Temperatura media	14.4
54562	7	Sololá	701	Sololá	1	Sololá	10	Octubre	2023-10-22T00:00:00	2024-11-08T23:00:00	4	Temperatura máxima	15.1
54563	7	Sololá	701	Sololá	1	Sololá	10	Octubre	2023-10-22T00:00:00	2024-11-08T23:00:00	3	Temperatura mínima	14.4
54564	7	Sololá	701	Sololá	1	Sololá	10	Octubre	2023-10-22T00:00:00	2024-11-08T23:00:00	5	Humedad	95
54565	7	Sololá	701	Sololá	1	Sololá	10	Octubre	2023-10-22T00:00:00	2024-11-08T23:00:00	6	Velocidad del viento	0
54566	7	Sololá	701	Sololá	1	Sololá	10	Octubre	2023-10-22T00:00:00	2024-11-08T23:00:00	7	Dirección del viento	0
54567	7	Sololá	701	Sololá	1	Sololá	10	Octubre	2023-10-22T00:00:00	2024-11-08T23:00:00	1	Precipitación	0
54568	7	Sololá	701	Sololá	1	Sololá	10	Octubre	2023-10-22T00:00:00	2024-11-08T23:00:00	8	Radiación solar	0
54569	7	Sololá	701	Sololá	1	Sololá	10	Octubre	2023-10-23T00:00:00	2024-11-08T00:00:00	2	Temperatura media	13.6
54570	7	Sololá	701	Sololá	1	Sololá	10	Octubre	2023-10-23T00:00:00	2024-11-08T00:00:00	4	Temperatura máxima	14.4
54571	7	Sololá	701	Sololá	1	Sololá	10	Octubre	2023-10-23T00:00:00	2024-11-08T00:00:00	3	Temperatura mínima	13.6
54572	7	Sololá	701	Sololá	1	Sololá	10	Octubre	2023-10-23T00:00:00	2024-11-08T00:00:00	5	Humedad	95
54573	7	Sololá	701	Sololá	1	Sololá	10	Octubre	2023-10-23T00:00:00	2024-11-08T00:00:00	6	Velocidad del viento	0
54574	7	Sololá	701	Sololá	1	Sololá	10	Octubre	2023-10-23T00:00:00	2024-11-08T00:00:00	7	Dirección del viento	0
54575	7	Sololá	701	Sololá	1	Sololá	10	Octubre	2023-10-23T00:00:00	2024-11-08T00:00:00	1	Precipitación	0
54576	7	Sololá	701	Sololá	1	Sololá	10	Octubre	2023-10-23T00:00:00	2024-11-08T00:00:00	8	Radiación solar	0
54577	7	Sololá	701	Sololá	1	Sololá	10	Octubre	2023-10-23T00:00:00	2024-11-08T01:00:00	2	Temperatura media	13.3
54578	7	Sololá	701	Sololá	1	Sololá	10	Octubre	2023-10-23T00:00:00	2024-11-08T01:00:00	4	Temperatura máxima	13.6
54579	7	Sololá	701	Sololá	1	Sololá	10	Octubre	2023-10-23T00:00:00	2024-11-08T01:00:00	3	Temperatura mínima	13.3
54580	7	Sololá	701	Sololá	1	Sololá	10	Octubre	2023-10-23T00:00:00	2024-11-08T01:00:00	5	Humedad	95
54581	7	Sololá	701	Sololá	1	Sololá	10	Octubre	2023-10-23T00:00:00	2024-11-08T01:00:00	6	Velocidad del viento	0
54582	7	Sololá	701	Sololá	1	Sololá	10	Octubre	2023-10-23T00:00:00	2024-11-08T01:00:00	7	Dirección del viento	0
54583	7	Sololá	701	Sololá	1	Sololá	10	Octubre	2023-10-23T00:00:00	2024-11-08T01:00:00	1	Precipitación	0
54584	7	Sololá	701	Sololá	1	Sololá	10	Octubre	2023-10-23T00:00:00	2024-11-08T01:00:00	8	Radiación solar	0
54585	7	Sololá	701	Sololá	1	Sololá	10	Octubre	2023-10-23T00:00:00	2024-11-08T02:00:00	2	Temperatura media	12.8
54586	7	Sololá	701	Sololá	1	Sololá	10	Octubre	2023-10-23T00:00:00	2024-11-08T02:00:00	4	Temperatura máxima	13.3
54587	7	Sololá	701	Sololá	1	Sololá	10	Octubre	2023-10-23T00:00:00	2024-11-08T02:00:00	3	Temperatura mínima	12.7
54588	7	Sololá	701	Sololá	1	Sololá	10	Octubre	2023-10-23T00:00:00	2024-11-08T02:00:00	5	Humedad	95
54589	7	Sololá	701	Sololá	1	Sololá	10	Octubre	2023-10-23T00:00:00	2024-11-08T02:00:00	6	Velocidad del viento	0
54590	7	Sololá	701	Sololá	1	Sololá	10	Octubre	2023-10-23T00:00:00	2024-11-08T02:00:00	7	Dirección del viento	0
54591	7	Sololá	701	Sololá	1	Sololá	10	Octubre	2023-10-23T00:00:00	2024-11-08T02:00:00	1	Precipitación	0
54592	7	Sololá	701	Sololá	1	Sololá	10	Octubre	2023-10-23T00:00:00	2024-11-08T02:00:00	8	Radiación solar	0
54593	7	Sololá	701	Sololá	1	Sololá	10	Octubre	2023-10-23T00:00:00	2024-11-08T03:00:00	2	Temperatura media	12.4
54594	7	Sololá	701	Sololá	1	Sololá	10	Octubre	2023-10-23T00:00:00	2024-11-08T03:00:00	4	Temperatura máxima	12.8
54595	7	Sololá	701	Sololá	1	Sololá	10	Octubre	2023-10-23T00:00:00	2024-11-08T03:00:00	3	Temperatura mínima	12.4
54596	7	Sololá	701	Sololá	1	Sololá	10	Octubre	2023-10-23T00:00:00	2024-11-08T03:00:00	5	Humedad	95
54597	7	Sololá	701	Sololá	1	Sololá	10	Octubre	2023-10-23T00:00:00	2024-11-08T03:00:00	6	Velocidad del viento	0
54598	7	Sololá	701	Sololá	1	Sololá	10	Octubre	2023-10-23T00:00:00	2024-11-08T03:00:00	7	Dirección del viento	0
54599	7	Sololá	701	Sololá	1	Sololá	10	Octubre	2023-10-23T00:00:00	2024-11-08T03:00:00	1	Precipitación	0
54600	7	Sololá	701	Sololá	1	Sololá	10	Octubre	2023-10-23T00:00:00	2024-11-08T03:00:00	8	Radiación solar	0
54601	7	Sololá	701	Sololá	1	Sololá	10	Octubre	2023-10-23T00:00:00	2024-11-08T04:00:00	2	Temperatura media	12.1
54602	7	Sololá	701	Sololá	1	Sololá	10	Octubre	2023-10-23T00:00:00	2024-11-08T04:00:00	4	Temperatura máxima	12.4
54603	7	Sololá	701	Sololá	1	Sololá	10	Octubre	2023-10-23T00:00:00	2024-11-08T04:00:00	3	Temperatura mínima	12
54604	7	Sololá	701	Sololá	1	Sololá	10	Octubre	2023-10-23T00:00:00	2024-11-08T04:00:00	5	Humedad	95
54605	7	Sololá	701	Sololá	1	Sololá	10	Octubre	2023-10-23T00:00:00	2024-11-08T04:00:00	6	Velocidad del viento	0
54606	7	Sololá	701	Sololá	1	Sololá	10	Octubre	2023-10-23T00:00:00	2024-11-08T04:00:00	7	Dirección del viento	0
54607	7	Sololá	701	Sololá	1	Sololá	10	Octubre	2023-10-23T00:00:00	2024-11-08T04:00:00	1	Precipitación	0
54608	7	Sololá	701	Sololá	1	Sololá	10	Octubre	2023-10-23T00:00:00	2024-11-08T04:00:00	8	Radiación solar	0
54609	7	Sololá	701	Sololá	1	Sololá	10	Octubre	2023-10-23T00:00:00	2024-11-08T05:00:00	2	Temperatura media	12.1
54610	7	Sololá	701	Sololá	1	Sololá	10	Octubre	2023-10-23T00:00:00	2024-11-08T05:00:00	4	Temperatura máxima	12.2
54611	7	Sololá	701	Sololá	1	Sololá	10	Octubre	2023-10-23T00:00:00	2024-11-08T05:00:00	3	Temperatura mínima	12.1
54612	7	Sololá	701	Sololá	1	Sololá	10	Octubre	2023-10-23T00:00:00	2024-11-08T05:00:00	5	Humedad	95
54613	7	Sololá	701	Sololá	1	Sololá	10	Octubre	2023-10-23T00:00:00	2024-11-08T05:00:00	6	Velocidad del viento	0
54614	7	Sololá	701	Sololá	1	Sololá	10	Octubre	2023-10-23T00:00:00	2024-11-08T05:00:00	7	Dirección del viento	0
54615	7	Sololá	701	Sololá	1	Sololá	10	Octubre	2023-10-23T00:00:00	2024-11-08T05:00:00	1	Precipitación	0
54616	7	Sololá	701	Sololá	1	Sololá	10	Octubre	2023-10-23T00:00:00	2024-11-08T05:00:00	8	Radiación solar	0
54617	7	Sololá	701	Sololá	1	Sololá	10	Octubre	2023-10-23T00:00:00	2024-11-08T06:00:00	2	Temperatura media	12.1
54618	7	Sololá	701	Sololá	1	Sololá	10	Octubre	2023-10-23T00:00:00	2024-11-08T06:00:00	4	Temperatura máxima	12.1
54619	7	Sololá	701	Sololá	1	Sololá	10	Octubre	2023-10-23T00:00:00	2024-11-08T06:00:00	3	Temperatura mínima	12
54620	7	Sololá	701	Sololá	1	Sololá	10	Octubre	2023-10-23T00:00:00	2024-11-08T06:00:00	5	Humedad	95
54621	7	Sololá	701	Sololá	1	Sololá	10	Octubre	2023-10-23T00:00:00	2024-11-08T06:00:00	6	Velocidad del viento	0
54622	7	Sololá	701	Sololá	1	Sololá	10	Octubre	2023-10-23T00:00:00	2024-11-08T06:00:00	7	Dirección del viento	0
54623	7	Sololá	701	Sololá	1	Sololá	10	Octubre	2023-10-23T00:00:00	2024-11-08T06:00:00	1	Precipitación	0.2
54624	7	Sololá	701	Sololá	1	Sololá	10	Octubre	2023-10-23T00:00:00	2024-11-08T06:00:00	8	Radiación solar	0
54625	7	Sololá	701	Sololá	1	Sololá	10	Octubre	2023-10-23T00:00:00	2024-11-08T07:00:00	2	Temperatura media	12.7
54626	7	Sololá	701	Sololá	1	Sololá	10	Octubre	2023-10-23T00:00:00	2024-11-08T07:00:00	4	Temperatura máxima	12.7
54627	7	Sololá	701	Sololá	1	Sololá	10	Octubre	2023-10-23T00:00:00	2024-11-08T07:00:00	3	Temperatura mínima	11.9
54628	7	Sololá	701	Sololá	1	Sololá	10	Octubre	2023-10-23T00:00:00	2024-11-08T07:00:00	5	Humedad	95
54629	7	Sololá	701	Sololá	1	Sololá	10	Octubre	2023-10-23T00:00:00	2024-11-08T07:00:00	6	Velocidad del viento	0
54630	7	Sololá	701	Sololá	1	Sololá	10	Octubre	2023-10-23T00:00:00	2024-11-08T07:00:00	7	Dirección del viento	0
54631	7	Sololá	701	Sololá	1	Sololá	10	Octubre	2023-10-23T00:00:00	2024-11-08T07:00:00	1	Precipitación	0
54632	7	Sololá	701	Sololá	1	Sololá	10	Octubre	2023-10-23T00:00:00	2024-11-08T07:00:00	8	Radiación solar	15
54633	7	Sololá	701	Sololá	1	Sololá	10	Octubre	2023-10-23T00:00:00	2024-11-08T08:00:00	2	Temperatura media	14.7
54634	7	Sololá	701	Sololá	1	Sololá	10	Octubre	2023-10-23T00:00:00	2024-11-08T08:00:00	4	Temperatura máxima	14.7
54635	7	Sololá	701	Sololá	1	Sololá	10	Octubre	2023-10-23T00:00:00	2024-11-08T08:00:00	3	Temperatura mínima	12.7
54636	7	Sololá	701	Sololá	1	Sololá	10	Octubre	2023-10-23T00:00:00	2024-11-08T08:00:00	5	Humedad	95
54637	7	Sololá	701	Sololá	1	Sololá	10	Octubre	2023-10-23T00:00:00	2024-11-08T08:00:00	6	Velocidad del viento	0
54638	7	Sololá	701	Sololá	1	Sololá	10	Octubre	2023-10-23T00:00:00	2024-11-08T08:00:00	7	Dirección del viento	0
54639	7	Sololá	701	Sololá	1	Sololá	10	Octubre	2023-10-23T00:00:00	2024-11-08T08:00:00	1	Precipitación	0
54640	7	Sololá	701	Sololá	1	Sololá	10	Octubre	2023-10-23T00:00:00	2024-11-08T08:00:00	8	Radiación solar	72
54641	7	Sololá	701	Sololá	1	Sololá	10	Octubre	2023-10-23T00:00:00	2024-11-08T09:00:00	2	Temperatura media	18.3
54642	7	Sololá	701	Sololá	1	Sololá	10	Octubre	2023-10-23T00:00:00	2024-11-08T09:00:00	4	Temperatura máxima	18.3
54643	7	Sololá	701	Sololá	1	Sololá	10	Octubre	2023-10-23T00:00:00	2024-11-08T09:00:00	3	Temperatura mínima	14.7
54644	7	Sololá	701	Sololá	1	Sololá	10	Octubre	2023-10-23T00:00:00	2024-11-08T09:00:00	5	Humedad	87
54645	7	Sololá	701	Sololá	1	Sololá	10	Octubre	2023-10-23T00:00:00	2024-11-08T09:00:00	6	Velocidad del viento	0
54646	7	Sololá	701	Sololá	1	Sololá	10	Octubre	2023-10-23T00:00:00	2024-11-08T09:00:00	7	Dirección del viento	0
54647	7	Sololá	701	Sololá	1	Sololá	10	Octubre	2023-10-23T00:00:00	2024-11-08T09:00:00	1	Precipitación	0
54648	7	Sololá	701	Sololá	1	Sololá	10	Octubre	2023-10-23T00:00:00	2024-11-08T09:00:00	8	Radiación solar	506
54649	7	Sololá	701	Sololá	1	Sololá	10	Octubre	2023-10-23T00:00:00	2024-11-08T10:00:00	2	Temperatura media	21.2
54650	7	Sololá	701	Sololá	1	Sololá	10	Octubre	2023-10-23T00:00:00	2024-11-08T10:00:00	4	Temperatura máxima	21.2
54651	7	Sololá	701	Sololá	1	Sololá	10	Octubre	2023-10-23T00:00:00	2024-11-08T10:00:00	3	Temperatura mínima	18.3
54652	7	Sololá	701	Sololá	1	Sololá	10	Octubre	2023-10-23T00:00:00	2024-11-08T10:00:00	5	Humedad	74
54653	7	Sololá	701	Sololá	1	Sololá	10	Octubre	2023-10-23T00:00:00	2024-11-08T10:00:00	6	Velocidad del viento	0
54654	7	Sololá	701	Sololá	1	Sololá	10	Octubre	2023-10-23T00:00:00	2024-11-08T10:00:00	7	Dirección del viento	0
54655	7	Sololá	701	Sololá	1	Sololá	10	Octubre	2023-10-23T00:00:00	2024-11-08T10:00:00	1	Precipitación	0
54656	7	Sololá	701	Sololá	1	Sololá	10	Octubre	2023-10-23T00:00:00	2024-11-08T10:00:00	8	Radiación solar	811
54657	7	Sololá	701	Sololá	1	Sololá	10	Octubre	2023-10-23T00:00:00	2024-11-08T11:00:00	2	Temperatura media	21.4
54658	7	Sololá	701	Sololá	1	Sololá	10	Octubre	2023-10-23T00:00:00	2024-11-08T11:00:00	4	Temperatura máxima	21.8
54659	7	Sololá	701	Sololá	1	Sololá	10	Octubre	2023-10-23T00:00:00	2024-11-08T11:00:00	3	Temperatura mínima	21.2
54660	7	Sololá	701	Sololá	1	Sololá	10	Octubre	2023-10-23T00:00:00	2024-11-08T11:00:00	5	Humedad	71
54661	7	Sololá	701	Sololá	1	Sololá	10	Octubre	2023-10-23T00:00:00	2024-11-08T11:00:00	6	Velocidad del viento	0
54662	7	Sololá	701	Sololá	1	Sololá	10	Octubre	2023-10-23T00:00:00	2024-11-08T11:00:00	7	Dirección del viento	0
54663	7	Sololá	701	Sololá	1	Sololá	10	Octubre	2023-10-23T00:00:00	2024-11-08T11:00:00	1	Precipitación	0
54664	7	Sololá	701	Sololá	1	Sololá	10	Octubre	2023-10-23T00:00:00	2024-11-08T11:00:00	8	Radiación solar	919
54665	7	Sololá	701	Sololá	1	Sololá	10	Octubre	2023-10-23T00:00:00	2024-11-08T12:00:00	2	Temperatura media	22.4
54666	7	Sololá	701	Sololá	1	Sololá	10	Octubre	2023-10-23T00:00:00	2024-11-08T12:00:00	4	Temperatura máxima	22.5
54667	7	Sololá	701	Sololá	1	Sololá	10	Octubre	2023-10-23T00:00:00	2024-11-08T12:00:00	3	Temperatura mínima	21.4
54668	7	Sololá	701	Sololá	1	Sololá	10	Octubre	2023-10-23T00:00:00	2024-11-08T12:00:00	5	Humedad	73
54669	7	Sololá	701	Sololá	1	Sololá	10	Octubre	2023-10-23T00:00:00	2024-11-08T12:00:00	6	Velocidad del viento	1.6
54670	7	Sololá	701	Sololá	1	Sololá	10	Octubre	2023-10-23T00:00:00	2024-11-08T12:00:00	7	Dirección del viento	1.61
54671	7	Sololá	701	Sololá	1	Sololá	10	Octubre	2023-10-23T00:00:00	2024-11-08T12:00:00	1	Precipitación	0
54672	7	Sololá	701	Sololá	1	Sololá	10	Octubre	2023-10-23T00:00:00	2024-11-08T12:00:00	8	Radiación solar	935
54673	7	Sololá	701	Sololá	1	Sololá	10	Octubre	2023-10-23T00:00:00	2024-11-08T13:00:00	2	Temperatura media	22.2
54674	7	Sololá	701	Sololá	1	Sololá	10	Octubre	2023-10-23T00:00:00	2024-11-08T13:00:00	4	Temperatura máxima	22.4
54675	7	Sololá	701	Sololá	1	Sololá	10	Octubre	2023-10-23T00:00:00	2024-11-08T13:00:00	3	Temperatura mínima	21.9
54676	7	Sololá	701	Sololá	1	Sololá	10	Octubre	2023-10-23T00:00:00	2024-11-08T13:00:00	5	Humedad	78
54677	7	Sololá	701	Sololá	1	Sololá	10	Octubre	2023-10-23T00:00:00	2024-11-08T13:00:00	6	Velocidad del viento	1.6
54678	7	Sololá	701	Sololá	1	Sololá	10	Octubre	2023-10-23T00:00:00	2024-11-08T13:00:00	7	Dirección del viento	1.61
54679	7	Sololá	701	Sololá	1	Sololá	10	Octubre	2023-10-23T00:00:00	2024-11-08T13:00:00	1	Precipitación	0
54680	7	Sololá	701	Sololá	1	Sololá	10	Octubre	2023-10-23T00:00:00	2024-11-08T13:00:00	8	Radiación solar	260
54681	7	Sololá	701	Sololá	1	Sololá	10	Octubre	2023-10-23T00:00:00	2024-11-08T14:00:00	2	Temperatura media	20.9
54682	7	Sololá	701	Sololá	1	Sololá	10	Octubre	2023-10-23T00:00:00	2024-11-08T14:00:00	4	Temperatura máxima	22.2
54683	7	Sololá	701	Sololá	1	Sololá	10	Octubre	2023-10-23T00:00:00	2024-11-08T14:00:00	3	Temperatura mínima	20.9
54684	7	Sololá	701	Sololá	1	Sololá	10	Octubre	2023-10-23T00:00:00	2024-11-08T14:00:00	5	Humedad	82
54685	7	Sololá	701	Sololá	1	Sololá	10	Octubre	2023-10-23T00:00:00	2024-11-08T14:00:00	6	Velocidad del viento	1.6
54686	7	Sololá	701	Sololá	1	Sololá	10	Octubre	2023-10-23T00:00:00	2024-11-08T14:00:00	7	Dirección del viento	1.61
54687	7	Sololá	701	Sololá	1	Sololá	10	Octubre	2023-10-23T00:00:00	2024-11-08T14:00:00	1	Precipitación	0
54688	7	Sololá	701	Sololá	1	Sololá	10	Octubre	2023-10-23T00:00:00	2024-11-08T14:00:00	8	Radiación solar	326
54689	7	Sololá	701	Sololá	1	Sololá	10	Octubre	2023-10-23T00:00:00	2024-11-08T15:00:00	2	Temperatura media	19.6
54690	7	Sololá	701	Sololá	1	Sololá	10	Octubre	2023-10-23T00:00:00	2024-11-08T15:00:00	4	Temperatura máxima	20.8
54691	7	Sololá	701	Sololá	1	Sololá	10	Octubre	2023-10-23T00:00:00	2024-11-08T15:00:00	3	Temperatura mínima	19.6
54692	7	Sololá	701	Sololá	1	Sololá	10	Octubre	2023-10-23T00:00:00	2024-11-08T15:00:00	5	Humedad	86
54693	7	Sololá	701	Sololá	1	Sololá	10	Octubre	2023-10-23T00:00:00	2024-11-08T15:00:00	6	Velocidad del viento	0
54694	7	Sololá	701	Sololá	1	Sololá	10	Octubre	2023-10-23T00:00:00	2024-11-08T15:00:00	7	Dirección del viento	0
54695	7	Sololá	701	Sololá	1	Sololá	10	Octubre	2023-10-23T00:00:00	2024-11-08T15:00:00	1	Precipitación	0
54696	7	Sololá	701	Sololá	1	Sololá	10	Octubre	2023-10-23T00:00:00	2024-11-08T15:00:00	8	Radiación solar	187
54697	7	Sololá	701	Sololá	1	Sololá	10	Octubre	2023-10-23T00:00:00	2024-11-08T16:00:00	2	Temperatura media	18.1
54698	7	Sololá	701	Sololá	1	Sololá	10	Octubre	2023-10-23T00:00:00	2024-11-08T16:00:00	4	Temperatura máxima	19.6
54699	7	Sololá	701	Sololá	1	Sololá	10	Octubre	2023-10-23T00:00:00	2024-11-08T16:00:00	3	Temperatura mínima	18
54700	7	Sololá	701	Sololá	1	Sololá	10	Octubre	2023-10-23T00:00:00	2024-11-08T16:00:00	5	Humedad	92
54701	7	Sololá	701	Sololá	1	Sololá	10	Octubre	2023-10-23T00:00:00	2024-11-08T16:00:00	6	Velocidad del viento	0
54702	7	Sololá	701	Sololá	1	Sololá	10	Octubre	2023-10-23T00:00:00	2024-11-08T16:00:00	7	Dirección del viento	0
54703	7	Sololá	701	Sololá	1	Sololá	10	Octubre	2023-10-23T00:00:00	2024-11-08T16:00:00	1	Precipitación	0
54704	7	Sololá	701	Sololá	1	Sololá	10	Octubre	2023-10-23T00:00:00	2024-11-08T16:00:00	8	Radiación solar	73
54705	7	Sololá	701	Sololá	1	Sololá	10	Octubre	2023-10-23T00:00:00	2024-11-08T17:00:00	2	Temperatura media	18.8
54706	7	Sololá	701	Sololá	1	Sololá	10	Octubre	2023-10-23T00:00:00	2024-11-08T17:00:00	4	Temperatura máxima	19.2
54707	7	Sololá	701	Sololá	1	Sololá	10	Octubre	2023-10-23T00:00:00	2024-11-08T17:00:00	3	Temperatura mínima	18.1
54708	7	Sololá	701	Sololá	1	Sololá	10	Octubre	2023-10-23T00:00:00	2024-11-08T17:00:00	5	Humedad	86
54709	7	Sololá	701	Sololá	1	Sololá	10	Octubre	2023-10-23T00:00:00	2024-11-08T17:00:00	6	Velocidad del viento	0
54710	7	Sololá	701	Sololá	1	Sololá	10	Octubre	2023-10-23T00:00:00	2024-11-08T17:00:00	7	Dirección del viento	0
54711	7	Sololá	701	Sololá	1	Sololá	10	Octubre	2023-10-23T00:00:00	2024-11-08T17:00:00	1	Precipitación	0
54712	7	Sololá	701	Sololá	1	Sololá	10	Octubre	2023-10-23T00:00:00	2024-11-08T17:00:00	8	Radiación solar	59
54713	7	Sololá	701	Sololá	1	Sololá	10	Octubre	2023-10-23T00:00:00	2024-11-08T18:00:00	2	Temperatura media	17.2
54714	7	Sololá	701	Sololá	1	Sololá	10	Octubre	2023-10-23T00:00:00	2024-11-08T18:00:00	4	Temperatura máxima	18.8
54715	7	Sololá	701	Sololá	1	Sololá	10	Octubre	2023-10-23T00:00:00	2024-11-08T18:00:00	3	Temperatura mínima	17.1
54716	7	Sololá	701	Sololá	1	Sololá	10	Octubre	2023-10-23T00:00:00	2024-11-08T18:00:00	5	Humedad	91
54717	7	Sololá	701	Sololá	1	Sololá	10	Octubre	2023-10-23T00:00:00	2024-11-08T18:00:00	6	Velocidad del viento	0
54718	7	Sololá	701	Sololá	1	Sololá	10	Octubre	2023-10-23T00:00:00	2024-11-08T18:00:00	7	Dirección del viento	0
54719	7	Sololá	701	Sololá	1	Sololá	10	Octubre	2023-10-23T00:00:00	2024-11-08T18:00:00	1	Precipitación	0
54720	7	Sololá	701	Sololá	1	Sololá	10	Octubre	2023-10-23T00:00:00	2024-11-08T18:00:00	8	Radiación solar	5
54721	7	Sololá	701	Sololá	1	Sololá	10	Octubre	2023-10-23T00:00:00	2024-11-08T19:00:00	2	Temperatura media	16.9
54722	7	Sololá	701	Sololá	1	Sololá	10	Octubre	2023-10-23T00:00:00	2024-11-08T19:00:00	4	Temperatura máxima	17.1
54723	7	Sololá	701	Sololá	1	Sololá	10	Octubre	2023-10-23T00:00:00	2024-11-08T19:00:00	3	Temperatura mínima	16.8
54724	7	Sololá	701	Sololá	1	Sololá	10	Octubre	2023-10-23T00:00:00	2024-11-08T19:00:00	5	Humedad	94
54725	7	Sololá	701	Sololá	1	Sololá	10	Octubre	2023-10-23T00:00:00	2024-11-08T19:00:00	6	Velocidad del viento	0
54726	7	Sololá	701	Sololá	1	Sololá	10	Octubre	2023-10-23T00:00:00	2024-11-08T19:00:00	7	Dirección del viento	0
54727	7	Sololá	701	Sololá	1	Sololá	10	Octubre	2023-10-23T00:00:00	2024-11-08T19:00:00	1	Precipitación	0.8
54728	7	Sololá	701	Sololá	1	Sololá	10	Octubre	2023-10-23T00:00:00	2024-11-08T19:00:00	8	Radiación solar	0
54729	7	Sololá	701	Sololá	1	Sololá	10	Octubre	2023-10-23T00:00:00	2024-11-08T20:00:00	2	Temperatura media	16.4
54730	7	Sololá	701	Sololá	1	Sololá	10	Octubre	2023-10-23T00:00:00	2024-11-08T20:00:00	4	Temperatura máxima	16.9
54731	7	Sololá	701	Sololá	1	Sololá	10	Octubre	2023-10-23T00:00:00	2024-11-08T20:00:00	3	Temperatura mínima	16.4
54732	7	Sololá	701	Sololá	1	Sololá	10	Octubre	2023-10-23T00:00:00	2024-11-08T20:00:00	5	Humedad	94
54733	7	Sololá	701	Sololá	1	Sololá	10	Octubre	2023-10-23T00:00:00	2024-11-08T20:00:00	6	Velocidad del viento	0
54734	7	Sololá	701	Sololá	1	Sololá	10	Octubre	2023-10-23T00:00:00	2024-11-08T20:00:00	7	Dirección del viento	0
54735	7	Sololá	701	Sololá	1	Sololá	10	Octubre	2023-10-23T00:00:00	2024-11-08T20:00:00	1	Precipitación	0.4
54736	7	Sololá	701	Sololá	1	Sololá	10	Octubre	2023-10-23T00:00:00	2024-11-08T20:00:00	8	Radiación solar	0
54737	7	Sololá	701	Sololá	1	Sololá	10	Octubre	2023-10-23T00:00:00	2024-11-08T21:00:00	2	Temperatura media	16.1
54738	7	Sololá	701	Sololá	1	Sololá	10	Octubre	2023-10-23T00:00:00	2024-11-08T21:00:00	4	Temperatura máxima	16.4
54739	7	Sololá	701	Sololá	1	Sololá	10	Octubre	2023-10-23T00:00:00	2024-11-08T21:00:00	3	Temperatura mínima	16.1
54740	7	Sololá	701	Sololá	1	Sololá	10	Octubre	2023-10-23T00:00:00	2024-11-08T21:00:00	5	Humedad	95
54741	7	Sololá	701	Sololá	1	Sololá	10	Octubre	2023-10-23T00:00:00	2024-11-08T21:00:00	6	Velocidad del viento	0
54742	7	Sololá	701	Sololá	1	Sololá	10	Octubre	2023-10-23T00:00:00	2024-11-08T21:00:00	7	Dirección del viento	0
54743	7	Sololá	701	Sololá	1	Sololá	10	Octubre	2023-10-23T00:00:00	2024-11-08T21:00:00	1	Precipitación	0.2
54744	7	Sololá	701	Sololá	1	Sololá	10	Octubre	2023-10-23T00:00:00	2024-11-08T21:00:00	8	Radiación solar	0
54745	7	Sololá	701	Sololá	1	Sololá	10	Octubre	2023-10-23T00:00:00	2024-11-08T22:00:00	2	Temperatura media	15.7
54746	7	Sololá	701	Sololá	1	Sololá	10	Octubre	2023-10-23T00:00:00	2024-11-08T22:00:00	4	Temperatura máxima	16.1
54747	7	Sololá	701	Sololá	1	Sololá	10	Octubre	2023-10-23T00:00:00	2024-11-08T22:00:00	3	Temperatura mínima	15.7
54748	7	Sololá	701	Sololá	1	Sololá	10	Octubre	2023-10-23T00:00:00	2024-11-08T22:00:00	5	Humedad	95
54749	7	Sololá	701	Sololá	1	Sololá	10	Octubre	2023-10-23T00:00:00	2024-11-08T22:00:00	6	Velocidad del viento	0
54750	7	Sololá	701	Sololá	1	Sololá	10	Octubre	2023-10-23T00:00:00	2024-11-08T22:00:00	7	Dirección del viento	0
54751	7	Sololá	701	Sololá	1	Sololá	10	Octubre	2023-10-23T00:00:00	2024-11-08T22:00:00	1	Precipitación	4.8
54752	7	Sololá	701	Sololá	1	Sololá	10	Octubre	2023-10-23T00:00:00	2024-11-08T22:00:00	8	Radiación solar	0
54753	7	Sololá	701	Sololá	1	Sololá	10	Octubre	2023-10-23T00:00:00	2024-11-08T23:00:00	2	Temperatura media	15.1
54754	7	Sololá	701	Sololá	1	Sololá	10	Octubre	2023-10-23T00:00:00	2024-11-08T23:00:00	4	Temperatura máxima	15.7
54755	7	Sololá	701	Sololá	1	Sololá	10	Octubre	2023-10-23T00:00:00	2024-11-08T23:00:00	3	Temperatura mínima	15.1
54756	7	Sololá	701	Sololá	1	Sololá	10	Octubre	2023-10-23T00:00:00	2024-11-08T23:00:00	5	Humedad	95
54757	7	Sololá	701	Sololá	1	Sololá	10	Octubre	2023-10-23T00:00:00	2024-11-08T23:00:00	6	Velocidad del viento	0
54758	7	Sololá	701	Sololá	1	Sololá	10	Octubre	2023-10-23T00:00:00	2024-11-08T23:00:00	7	Dirección del viento	0
54759	7	Sololá	701	Sololá	1	Sololá	10	Octubre	2023-10-23T00:00:00	2024-11-08T23:00:00	1	Precipitación	5.2
54760	7	Sololá	701	Sololá	1	Sololá	10	Octubre	2023-10-23T00:00:00	2024-11-08T23:00:00	8	Radiación solar	0
54761	7	Sololá	701	Sololá	1	Sololá	10	Octubre	2023-10-24T00:00:00	2024-11-08T00:00:00	2	Temperatura media	14.9
54762	7	Sololá	701	Sololá	1	Sololá	10	Octubre	2023-10-24T00:00:00	2024-11-08T00:00:00	4	Temperatura máxima	15.1
54763	7	Sololá	701	Sololá	1	Sololá	10	Octubre	2023-10-24T00:00:00	2024-11-08T00:00:00	3	Temperatura mínima	14.8
54764	7	Sololá	701	Sololá	1	Sololá	10	Octubre	2023-10-24T00:00:00	2024-11-08T00:00:00	5	Humedad	95
54765	7	Sololá	701	Sololá	1	Sololá	10	Octubre	2023-10-24T00:00:00	2024-11-08T00:00:00	6	Velocidad del viento	0
54766	7	Sololá	701	Sololá	1	Sololá	10	Octubre	2023-10-24T00:00:00	2024-11-08T00:00:00	7	Dirección del viento	0
54767	7	Sololá	701	Sololá	1	Sololá	10	Octubre	2023-10-24T00:00:00	2024-11-08T00:00:00	1	Precipitación	3.8
54768	7	Sololá	701	Sololá	1	Sololá	10	Octubre	2023-10-24T00:00:00	2024-11-08T00:00:00	8	Radiación solar	0
54769	7	Sololá	701	Sololá	1	Sololá	10	Octubre	2023-10-24T00:00:00	2024-11-08T01:00:00	2	Temperatura media	14.6
54770	7	Sololá	701	Sololá	1	Sololá	10	Octubre	2023-10-24T00:00:00	2024-11-08T01:00:00	4	Temperatura máxima	14.9
54771	7	Sololá	701	Sololá	1	Sololá	10	Octubre	2023-10-24T00:00:00	2024-11-08T01:00:00	3	Temperatura mínima	14.6
54772	7	Sololá	701	Sololá	1	Sololá	10	Octubre	2023-10-24T00:00:00	2024-11-08T01:00:00	5	Humedad	96
54773	7	Sololá	701	Sololá	1	Sololá	10	Octubre	2023-10-24T00:00:00	2024-11-08T01:00:00	6	Velocidad del viento	0
54774	7	Sololá	701	Sololá	1	Sololá	10	Octubre	2023-10-24T00:00:00	2024-11-08T01:00:00	7	Dirección del viento	0
54775	7	Sololá	701	Sololá	1	Sololá	10	Octubre	2023-10-24T00:00:00	2024-11-08T01:00:00	1	Precipitación	2.4
54776	7	Sololá	701	Sololá	1	Sololá	10	Octubre	2023-10-24T00:00:00	2024-11-08T01:00:00	8	Radiación solar	0
54777	7	Sololá	701	Sololá	1	Sololá	10	Octubre	2023-10-24T00:00:00	2024-11-08T02:00:00	2	Temperatura media	14.2
54778	7	Sololá	701	Sololá	1	Sololá	10	Octubre	2023-10-24T00:00:00	2024-11-08T02:00:00	4	Temperatura máxima	14.7
54779	7	Sololá	701	Sololá	1	Sololá	10	Octubre	2023-10-24T00:00:00	2024-11-08T02:00:00	3	Temperatura mínima	14.2
54780	7	Sololá	701	Sololá	1	Sololá	10	Octubre	2023-10-24T00:00:00	2024-11-08T02:00:00	5	Humedad	95
54781	7	Sololá	701	Sololá	1	Sololá	10	Octubre	2023-10-24T00:00:00	2024-11-08T02:00:00	6	Velocidad del viento	0
54782	7	Sololá	701	Sololá	1	Sololá	10	Octubre	2023-10-24T00:00:00	2024-11-08T02:00:00	7	Dirección del viento	0
54783	7	Sololá	701	Sololá	1	Sololá	10	Octubre	2023-10-24T00:00:00	2024-11-08T02:00:00	1	Precipitación	2.2
54784	7	Sololá	701	Sololá	1	Sololá	10	Octubre	2023-10-24T00:00:00	2024-11-08T02:00:00	8	Radiación solar	0
54785	7	Sololá	701	Sololá	1	Sololá	10	Octubre	2023-10-24T00:00:00	2024-11-08T03:00:00	2	Temperatura media	13.6
54786	7	Sololá	701	Sololá	1	Sololá	10	Octubre	2023-10-24T00:00:00	2024-11-08T03:00:00	4	Temperatura máxima	14.2
54787	7	Sololá	701	Sololá	1	Sololá	10	Octubre	2023-10-24T00:00:00	2024-11-08T03:00:00	3	Temperatura mínima	13.6
54788	7	Sololá	701	Sololá	1	Sololá	10	Octubre	2023-10-24T00:00:00	2024-11-08T03:00:00	5	Humedad	95
54789	7	Sololá	701	Sololá	1	Sololá	10	Octubre	2023-10-24T00:00:00	2024-11-08T03:00:00	6	Velocidad del viento	0
54790	7	Sololá	701	Sololá	1	Sololá	10	Octubre	2023-10-24T00:00:00	2024-11-08T03:00:00	7	Dirección del viento	0
54791	7	Sololá	701	Sololá	1	Sololá	10	Octubre	2023-10-24T00:00:00	2024-11-08T03:00:00	1	Precipitación	2
54792	7	Sololá	701	Sololá	1	Sololá	10	Octubre	2023-10-24T00:00:00	2024-11-08T03:00:00	8	Radiación solar	0
54793	7	Sololá	701	Sololá	1	Sololá	10	Octubre	2023-10-24T00:00:00	2024-11-08T04:00:00	2	Temperatura media	13.3
54794	7	Sololá	701	Sololá	1	Sololá	10	Octubre	2023-10-24T00:00:00	2024-11-08T04:00:00	4	Temperatura máxima	13.7
54795	7	Sololá	701	Sololá	1	Sololá	10	Octubre	2023-10-24T00:00:00	2024-11-08T04:00:00	3	Temperatura mínima	13.2
54796	7	Sololá	701	Sololá	1	Sololá	10	Octubre	2023-10-24T00:00:00	2024-11-08T04:00:00	5	Humedad	96
54797	7	Sololá	701	Sololá	1	Sololá	10	Octubre	2023-10-24T00:00:00	2024-11-08T04:00:00	6	Velocidad del viento	0
54798	7	Sololá	701	Sololá	1	Sololá	10	Octubre	2023-10-24T00:00:00	2024-11-08T04:00:00	7	Dirección del viento	0
54799	7	Sololá	701	Sololá	1	Sololá	10	Octubre	2023-10-24T00:00:00	2024-11-08T04:00:00	1	Precipitación	1.6
54800	7	Sololá	701	Sololá	1	Sololá	10	Octubre	2023-10-24T00:00:00	2024-11-08T04:00:00	8	Radiación solar	0
54801	7	Sololá	701	Sololá	1	Sololá	10	Octubre	2023-10-24T00:00:00	2024-11-08T05:00:00	2	Temperatura media	13
54802	7	Sololá	701	Sololá	1	Sololá	10	Octubre	2023-10-24T00:00:00	2024-11-08T05:00:00	4	Temperatura máxima	13.3
54803	7	Sololá	701	Sololá	1	Sololá	10	Octubre	2023-10-24T00:00:00	2024-11-08T05:00:00	3	Temperatura mínima	12.9
54804	7	Sololá	701	Sololá	1	Sololá	10	Octubre	2023-10-24T00:00:00	2024-11-08T05:00:00	5	Humedad	96
54805	7	Sololá	701	Sololá	1	Sololá	10	Octubre	2023-10-24T00:00:00	2024-11-08T05:00:00	6	Velocidad del viento	0
54806	7	Sololá	701	Sololá	1	Sololá	10	Octubre	2023-10-24T00:00:00	2024-11-08T05:00:00	7	Dirección del viento	0
54807	7	Sololá	701	Sololá	1	Sololá	10	Octubre	2023-10-24T00:00:00	2024-11-08T05:00:00	1	Precipitación	1.2
54808	7	Sololá	701	Sololá	1	Sololá	10	Octubre	2023-10-24T00:00:00	2024-11-08T05:00:00	8	Radiación solar	0
54809	7	Sololá	701	Sololá	1	Sololá	10	Octubre	2023-10-24T00:00:00	2024-11-08T06:00:00	2	Temperatura media	13.3
54810	7	Sololá	701	Sololá	1	Sololá	10	Octubre	2023-10-24T00:00:00	2024-11-08T06:00:00	4	Temperatura máxima	13.3
54811	7	Sololá	701	Sololá	1	Sololá	10	Octubre	2023-10-24T00:00:00	2024-11-08T06:00:00	3	Temperatura mínima	13
54812	7	Sololá	701	Sololá	1	Sololá	10	Octubre	2023-10-24T00:00:00	2024-11-08T06:00:00	5	Humedad	96
54813	7	Sololá	701	Sololá	1	Sololá	10	Octubre	2023-10-24T00:00:00	2024-11-08T06:00:00	6	Velocidad del viento	0
54814	7	Sololá	701	Sololá	1	Sololá	10	Octubre	2023-10-24T00:00:00	2024-11-08T06:00:00	7	Dirección del viento	0
54815	7	Sololá	701	Sololá	1	Sololá	10	Octubre	2023-10-24T00:00:00	2024-11-08T06:00:00	1	Precipitación	1.2
54816	7	Sololá	701	Sololá	1	Sololá	10	Octubre	2023-10-24T00:00:00	2024-11-08T06:00:00	8	Radiación solar	0
54817	7	Sololá	701	Sololá	1	Sololá	10	Octubre	2023-10-24T00:00:00	2024-11-08T07:00:00	2	Temperatura media	14.1
54818	7	Sololá	701	Sololá	1	Sololá	10	Octubre	2023-10-24T00:00:00	2024-11-08T07:00:00	4	Temperatura máxima	14.1
54819	7	Sololá	701	Sololá	1	Sololá	10	Octubre	2023-10-24T00:00:00	2024-11-08T07:00:00	3	Temperatura mínima	13.3
54820	7	Sololá	701	Sololá	1	Sololá	10	Octubre	2023-10-24T00:00:00	2024-11-08T07:00:00	5	Humedad	97
54821	7	Sololá	701	Sololá	1	Sololá	10	Octubre	2023-10-24T00:00:00	2024-11-08T07:00:00	6	Velocidad del viento	0
54822	7	Sololá	701	Sololá	1	Sololá	10	Octubre	2023-10-24T00:00:00	2024-11-08T07:00:00	7	Dirección del viento	0
54823	7	Sololá	701	Sololá	1	Sololá	10	Octubre	2023-10-24T00:00:00	2024-11-08T07:00:00	1	Precipitación	1
54824	7	Sololá	701	Sololá	1	Sololá	10	Octubre	2023-10-24T00:00:00	2024-11-08T07:00:00	8	Radiación solar	39
54825	7	Sololá	701	Sololá	1	Sololá	10	Octubre	2023-10-24T00:00:00	2024-11-08T08:00:00	2	Temperatura media	14.9
54826	7	Sololá	701	Sololá	1	Sololá	10	Octubre	2023-10-24T00:00:00	2024-11-08T08:00:00	4	Temperatura máxima	14.9
54827	7	Sololá	701	Sololá	1	Sololá	10	Octubre	2023-10-24T00:00:00	2024-11-08T08:00:00	3	Temperatura mínima	14
54828	7	Sololá	701	Sololá	1	Sololá	10	Octubre	2023-10-24T00:00:00	2024-11-08T08:00:00	5	Humedad	96
54829	7	Sololá	701	Sololá	1	Sololá	10	Octubre	2023-10-24T00:00:00	2024-11-08T08:00:00	6	Velocidad del viento	0
54830	7	Sololá	701	Sololá	1	Sololá	10	Octubre	2023-10-24T00:00:00	2024-11-08T08:00:00	7	Dirección del viento	0
54831	7	Sololá	701	Sololá	1	Sololá	10	Octubre	2023-10-24T00:00:00	2024-11-08T08:00:00	1	Precipitación	0.8
54832	7	Sololá	701	Sololá	1	Sololá	10	Octubre	2023-10-24T00:00:00	2024-11-08T08:00:00	8	Radiación solar	102
54833	7	Sololá	701	Sololá	1	Sololá	10	Octubre	2023-10-24T00:00:00	2024-11-08T09:00:00	2	Temperatura media	18.4
54834	7	Sololá	701	Sololá	1	Sololá	10	Octubre	2023-10-24T00:00:00	2024-11-08T09:00:00	4	Temperatura máxima	18.4
54835	7	Sololá	701	Sololá	1	Sololá	10	Octubre	2023-10-24T00:00:00	2024-11-08T09:00:00	3	Temperatura mínima	14.9
54836	7	Sololá	701	Sololá	1	Sololá	10	Octubre	2023-10-24T00:00:00	2024-11-08T09:00:00	5	Humedad	94
54837	7	Sololá	701	Sololá	1	Sololá	10	Octubre	2023-10-24T00:00:00	2024-11-08T09:00:00	6	Velocidad del viento	0
54838	7	Sololá	701	Sololá	1	Sololá	10	Octubre	2023-10-24T00:00:00	2024-11-08T09:00:00	7	Dirección del viento	0
54839	7	Sololá	701	Sololá	1	Sololá	10	Octubre	2023-10-24T00:00:00	2024-11-08T09:00:00	1	Precipitación	0.8
54840	7	Sololá	701	Sololá	1	Sololá	10	Octubre	2023-10-24T00:00:00	2024-11-08T09:00:00	8	Radiación solar	593
54841	7	Sololá	701	Sololá	1	Sololá	10	Octubre	2023-10-24T00:00:00	2024-11-08T10:00:00	2	Temperatura media	20
54842	7	Sololá	701	Sololá	1	Sololá	10	Octubre	2023-10-24T00:00:00	2024-11-08T10:00:00	4	Temperatura máxima	20
54843	7	Sololá	701	Sololá	1	Sololá	10	Octubre	2023-10-24T00:00:00	2024-11-08T10:00:00	3	Temperatura mínima	18.4
54844	7	Sololá	701	Sololá	1	Sololá	10	Octubre	2023-10-24T00:00:00	2024-11-08T10:00:00	5	Humedad	88
54845	7	Sololá	701	Sololá	1	Sololá	10	Octubre	2023-10-24T00:00:00	2024-11-08T10:00:00	6	Velocidad del viento	0
54846	7	Sololá	701	Sololá	1	Sololá	10	Octubre	2023-10-24T00:00:00	2024-11-08T10:00:00	7	Dirección del viento	0
54847	7	Sololá	701	Sololá	1	Sololá	10	Octubre	2023-10-24T00:00:00	2024-11-08T10:00:00	1	Precipitación	0.8
54848	7	Sololá	701	Sololá	1	Sololá	10	Octubre	2023-10-24T00:00:00	2024-11-08T10:00:00	8	Radiación solar	774
54849	7	Sololá	701	Sololá	1	Sololá	10	Octubre	2023-10-24T00:00:00	2024-11-08T11:00:00	2	Temperatura media	20.7
54850	7	Sololá	701	Sololá	1	Sololá	10	Octubre	2023-10-24T00:00:00	2024-11-08T11:00:00	4	Temperatura máxima	21.3
54851	7	Sololá	701	Sololá	1	Sololá	10	Octubre	2023-10-24T00:00:00	2024-11-08T11:00:00	3	Temperatura mínima	20.1
54852	7	Sololá	701	Sololá	1	Sololá	10	Octubre	2023-10-24T00:00:00	2024-11-08T11:00:00	5	Humedad	83
54853	7	Sololá	701	Sololá	1	Sololá	10	Octubre	2023-10-24T00:00:00	2024-11-08T11:00:00	6	Velocidad del viento	0
54854	7	Sololá	701	Sololá	1	Sololá	10	Octubre	2023-10-24T00:00:00	2024-11-08T11:00:00	7	Dirección del viento	0
54855	7	Sololá	701	Sololá	1	Sololá	10	Octubre	2023-10-24T00:00:00	2024-11-08T11:00:00	1	Precipitación	0.6
54856	7	Sololá	701	Sololá	1	Sololá	10	Octubre	2023-10-24T00:00:00	2024-11-08T11:00:00	8	Radiación solar	812
54857	7	Sololá	701	Sololá	1	Sololá	10	Octubre	2023-10-24T00:00:00	2024-11-08T12:00:00	2	Temperatura media	19.6
54858	7	Sololá	701	Sololá	1	Sololá	10	Octubre	2023-10-24T00:00:00	2024-11-08T12:00:00	4	Temperatura máxima	21.2
54859	7	Sololá	701	Sololá	1	Sololá	10	Octubre	2023-10-24T00:00:00	2024-11-08T12:00:00	3	Temperatura mínima	19.6
54860	7	Sololá	701	Sololá	1	Sololá	10	Octubre	2023-10-24T00:00:00	2024-11-08T12:00:00	5	Humedad	89
54861	7	Sololá	701	Sololá	1	Sololá	10	Octubre	2023-10-24T00:00:00	2024-11-08T12:00:00	6	Velocidad del viento	0
54862	7	Sololá	701	Sololá	1	Sololá	10	Octubre	2023-10-24T00:00:00	2024-11-08T12:00:00	7	Dirección del viento	0
54863	7	Sololá	701	Sololá	1	Sololá	10	Octubre	2023-10-24T00:00:00	2024-11-08T12:00:00	1	Precipitación	0.4
54864	7	Sololá	701	Sololá	1	Sololá	10	Octubre	2023-10-24T00:00:00	2024-11-08T12:00:00	8	Radiación solar	506
54865	7	Sololá	701	Sololá	1	Sololá	10	Octubre	2023-10-24T00:00:00	2024-11-08T13:00:00	2	Temperatura media	17.9
54866	7	Sololá	701	Sololá	1	Sololá	10	Octubre	2023-10-24T00:00:00	2024-11-08T13:00:00	4	Temperatura máxima	19.6
54867	7	Sololá	701	Sololá	1	Sololá	10	Octubre	2023-10-24T00:00:00	2024-11-08T13:00:00	3	Temperatura mínima	17.9
54868	7	Sololá	701	Sololá	1	Sololá	10	Octubre	2023-10-24T00:00:00	2024-11-08T13:00:00	5	Humedad	93
54869	7	Sololá	701	Sololá	1	Sololá	10	Octubre	2023-10-24T00:00:00	2024-11-08T13:00:00	6	Velocidad del viento	0
54870	7	Sololá	701	Sololá	1	Sololá	10	Octubre	2023-10-24T00:00:00	2024-11-08T13:00:00	7	Dirección del viento	0
54871	7	Sololá	701	Sololá	1	Sololá	10	Octubre	2023-10-24T00:00:00	2024-11-08T13:00:00	1	Precipitación	0.2
54872	7	Sololá	701	Sololá	1	Sololá	10	Octubre	2023-10-24T00:00:00	2024-11-08T13:00:00	8	Radiación solar	119
54873	7	Sololá	701	Sololá	1	Sololá	10	Octubre	2023-10-24T00:00:00	2024-11-08T14:00:00	2	Temperatura media	16.7
54874	7	Sololá	701	Sololá	1	Sololá	10	Octubre	2023-10-24T00:00:00	2024-11-08T14:00:00	4	Temperatura máxima	17.9
54875	7	Sololá	701	Sololá	1	Sololá	10	Octubre	2023-10-24T00:00:00	2024-11-08T14:00:00	3	Temperatura mínima	16.6
54876	7	Sololá	701	Sololá	1	Sololá	10	Octubre	2023-10-24T00:00:00	2024-11-08T14:00:00	5	Humedad	95
54877	7	Sololá	701	Sololá	1	Sololá	10	Octubre	2023-10-24T00:00:00	2024-11-08T14:00:00	6	Velocidad del viento	0
54878	7	Sololá	701	Sololá	1	Sololá	10	Octubre	2023-10-24T00:00:00	2024-11-08T14:00:00	7	Dirección del viento	0
54879	7	Sololá	701	Sololá	1	Sololá	10	Octubre	2023-10-24T00:00:00	2024-11-08T14:00:00	1	Precipitación	0.2
54880	7	Sololá	701	Sololá	1	Sololá	10	Octubre	2023-10-24T00:00:00	2024-11-08T14:00:00	8	Radiación solar	34
54881	7	Sololá	701	Sololá	1	Sololá	10	Octubre	2023-10-24T00:00:00	2024-11-08T15:00:00	2	Temperatura media	16.4
54882	7	Sololá	701	Sololá	1	Sololá	10	Octubre	2023-10-24T00:00:00	2024-11-08T15:00:00	4	Temperatura máxima	16.7
54883	7	Sololá	701	Sololá	1	Sololá	10	Octubre	2023-10-24T00:00:00	2024-11-08T15:00:00	3	Temperatura mínima	16.4
54884	7	Sololá	701	Sololá	1	Sololá	10	Octubre	2023-10-24T00:00:00	2024-11-08T15:00:00	5	Humedad	95
54885	7	Sololá	701	Sololá	1	Sololá	10	Octubre	2023-10-24T00:00:00	2024-11-08T15:00:00	6	Velocidad del viento	0
54886	7	Sololá	701	Sololá	1	Sololá	10	Octubre	2023-10-24T00:00:00	2024-11-08T15:00:00	7	Dirección del viento	0
54887	7	Sololá	701	Sololá	1	Sololá	10	Octubre	2023-10-24T00:00:00	2024-11-08T15:00:00	1	Precipitación	0.4
54888	7	Sololá	701	Sololá	1	Sololá	10	Octubre	2023-10-24T00:00:00	2024-11-08T15:00:00	8	Radiación solar	25
54889	7	Sololá	701	Sololá	1	Sololá	10	Octubre	2023-10-24T00:00:00	2024-11-08T16:00:00	2	Temperatura media	16.9
54890	7	Sololá	701	Sololá	1	Sololá	10	Octubre	2023-10-24T00:00:00	2024-11-08T16:00:00	4	Temperatura máxima	16.9
54891	7	Sololá	701	Sololá	1	Sololá	10	Octubre	2023-10-24T00:00:00	2024-11-08T16:00:00	3	Temperatura mínima	16.4
54892	7	Sololá	701	Sololá	1	Sololá	10	Octubre	2023-10-24T00:00:00	2024-11-08T16:00:00	5	Humedad	95
54893	7	Sololá	701	Sololá	1	Sololá	10	Octubre	2023-10-24T00:00:00	2024-11-08T16:00:00	6	Velocidad del viento	0
54894	7	Sololá	701	Sololá	1	Sololá	10	Octubre	2023-10-24T00:00:00	2024-11-08T16:00:00	7	Dirección del viento	0
54895	7	Sololá	701	Sololá	1	Sololá	10	Octubre	2023-10-24T00:00:00	2024-11-08T16:00:00	1	Precipitación	0
54896	7	Sololá	701	Sololá	1	Sololá	10	Octubre	2023-10-24T00:00:00	2024-11-08T16:00:00	8	Radiación solar	53
54897	7	Sololá	701	Sololá	1	Sololá	10	Octubre	2023-10-24T00:00:00	2024-11-08T17:00:00	2	Temperatura media	16.8
54898	7	Sololá	701	Sololá	1	Sololá	10	Octubre	2023-10-24T00:00:00	2024-11-08T17:00:00	4	Temperatura máxima	17.1
54899	7	Sololá	701	Sololá	1	Sololá	10	Octubre	2023-10-24T00:00:00	2024-11-08T17:00:00	3	Temperatura mínima	16.8
54900	7	Sololá	701	Sololá	1	Sololá	10	Octubre	2023-10-24T00:00:00	2024-11-08T17:00:00	5	Humedad	95
54901	7	Sololá	701	Sololá	1	Sololá	10	Octubre	2023-10-24T00:00:00	2024-11-08T17:00:00	6	Velocidad del viento	0
54902	7	Sololá	701	Sololá	1	Sololá	10	Octubre	2023-10-24T00:00:00	2024-11-08T17:00:00	7	Dirección del viento	0
54903	7	Sololá	701	Sololá	1	Sololá	10	Octubre	2023-10-24T00:00:00	2024-11-08T17:00:00	1	Precipitación	0.2
54904	7	Sololá	701	Sololá	1	Sololá	10	Octubre	2023-10-24T00:00:00	2024-11-08T17:00:00	8	Radiación solar	29
54905	7	Sololá	701	Sololá	1	Sololá	10	Octubre	2023-10-24T00:00:00	2024-11-08T18:00:00	2	Temperatura media	16.3
54906	7	Sololá	701	Sololá	1	Sololá	10	Octubre	2023-10-24T00:00:00	2024-11-08T18:00:00	4	Temperatura máxima	16.8
54907	7	Sololá	701	Sololá	1	Sololá	10	Octubre	2023-10-24T00:00:00	2024-11-08T18:00:00	3	Temperatura mínima	16.3
54908	7	Sololá	701	Sololá	1	Sololá	10	Octubre	2023-10-24T00:00:00	2024-11-08T18:00:00	5	Humedad	95
54909	7	Sololá	701	Sololá	1	Sololá	10	Octubre	2023-10-24T00:00:00	2024-11-08T18:00:00	6	Velocidad del viento	0
54910	7	Sololá	701	Sololá	1	Sololá	10	Octubre	2023-10-24T00:00:00	2024-11-08T18:00:00	7	Dirección del viento	0
54911	7	Sololá	701	Sololá	1	Sololá	10	Octubre	2023-10-24T00:00:00	2024-11-08T18:00:00	1	Precipitación	0.2
54912	7	Sololá	701	Sololá	1	Sololá	10	Octubre	2023-10-24T00:00:00	2024-11-08T18:00:00	8	Radiación solar	3
54913	7	Sololá	701	Sololá	1	Sololá	10	Octubre	2023-10-24T00:00:00	2024-11-08T19:00:00	2	Temperatura media	15.8
54914	7	Sololá	701	Sololá	1	Sololá	10	Octubre	2023-10-24T00:00:00	2024-11-08T19:00:00	4	Temperatura máxima	16.3
54915	7	Sololá	701	Sololá	1	Sololá	10	Octubre	2023-10-24T00:00:00	2024-11-08T19:00:00	3	Temperatura mínima	15.8
54916	7	Sololá	701	Sololá	1	Sololá	10	Octubre	2023-10-24T00:00:00	2024-11-08T19:00:00	5	Humedad	95
54917	7	Sololá	701	Sololá	1	Sololá	10	Octubre	2023-10-24T00:00:00	2024-11-08T19:00:00	6	Velocidad del viento	0
54918	7	Sololá	701	Sololá	1	Sololá	10	Octubre	2023-10-24T00:00:00	2024-11-08T19:00:00	7	Dirección del viento	0
54919	7	Sololá	701	Sololá	1	Sololá	10	Octubre	2023-10-24T00:00:00	2024-11-08T19:00:00	1	Precipitación	0.2
54920	7	Sololá	701	Sololá	1	Sololá	10	Octubre	2023-10-24T00:00:00	2024-11-08T19:00:00	8	Radiación solar	0
54921	7	Sololá	701	Sololá	1	Sololá	10	Octubre	2023-10-24T00:00:00	2024-11-08T20:00:00	2	Temperatura media	15.4
54922	7	Sololá	701	Sololá	1	Sololá	10	Octubre	2023-10-24T00:00:00	2024-11-08T20:00:00	4	Temperatura máxima	15.8
54923	7	Sololá	701	Sololá	1	Sololá	10	Octubre	2023-10-24T00:00:00	2024-11-08T20:00:00	3	Temperatura mínima	15.3
54924	7	Sololá	701	Sololá	1	Sololá	10	Octubre	2023-10-24T00:00:00	2024-11-08T20:00:00	5	Humedad	95
54925	7	Sololá	701	Sololá	1	Sololá	10	Octubre	2023-10-24T00:00:00	2024-11-08T20:00:00	6	Velocidad del viento	0
54926	7	Sololá	701	Sololá	1	Sololá	10	Octubre	2023-10-24T00:00:00	2024-11-08T20:00:00	7	Dirección del viento	0
54927	7	Sololá	701	Sololá	1	Sololá	10	Octubre	2023-10-24T00:00:00	2024-11-08T20:00:00	1	Precipitación	0.2
54928	7	Sololá	701	Sololá	1	Sololá	10	Octubre	2023-10-24T00:00:00	2024-11-08T20:00:00	8	Radiación solar	0
54929	7	Sololá	701	Sololá	1	Sololá	10	Octubre	2023-10-24T00:00:00	2024-11-08T21:00:00	2	Temperatura media	14.8
54930	7	Sololá	701	Sololá	1	Sololá	10	Octubre	2023-10-24T00:00:00	2024-11-08T21:00:00	4	Temperatura máxima	15.4
54931	7	Sololá	701	Sololá	1	Sololá	10	Octubre	2023-10-24T00:00:00	2024-11-08T21:00:00	3	Temperatura mínima	14.7
54932	7	Sololá	701	Sololá	1	Sololá	10	Octubre	2023-10-24T00:00:00	2024-11-08T21:00:00	5	Humedad	95
54933	7	Sololá	701	Sololá	1	Sololá	10	Octubre	2023-10-24T00:00:00	2024-11-08T21:00:00	6	Velocidad del viento	0
54934	7	Sololá	701	Sololá	1	Sololá	10	Octubre	2023-10-24T00:00:00	2024-11-08T21:00:00	7	Dirección del viento	0
54935	7	Sololá	701	Sololá	1	Sololá	10	Octubre	2023-10-24T00:00:00	2024-11-08T21:00:00	1	Precipitación	0.2
54936	7	Sololá	701	Sololá	1	Sololá	10	Octubre	2023-10-24T00:00:00	2024-11-08T21:00:00	8	Radiación solar	0
54937	7	Sololá	701	Sololá	1	Sololá	10	Octubre	2023-10-24T00:00:00	2024-11-08T22:00:00	2	Temperatura media	14.6
54938	7	Sololá	701	Sololá	1	Sololá	10	Octubre	2023-10-24T00:00:00	2024-11-08T22:00:00	4	Temperatura máxima	14.8
54939	7	Sololá	701	Sololá	1	Sololá	10	Octubre	2023-10-24T00:00:00	2024-11-08T22:00:00	3	Temperatura mínima	14.5
54940	7	Sololá	701	Sololá	1	Sololá	10	Octubre	2023-10-24T00:00:00	2024-11-08T22:00:00	5	Humedad	95
54941	7	Sololá	701	Sololá	1	Sololá	10	Octubre	2023-10-24T00:00:00	2024-11-08T22:00:00	6	Velocidad del viento	0
54942	7	Sololá	701	Sololá	1	Sololá	10	Octubre	2023-10-24T00:00:00	2024-11-08T22:00:00	7	Dirección del viento	0
54943	7	Sololá	701	Sololá	1	Sololá	10	Octubre	2023-10-24T00:00:00	2024-11-08T22:00:00	1	Precipitación	0
54944	7	Sololá	701	Sololá	1	Sololá	10	Octubre	2023-10-24T00:00:00	2024-11-08T22:00:00	8	Radiación solar	0
54945	7	Sololá	701	Sololá	1	Sololá	10	Octubre	2023-10-24T00:00:00	2024-11-08T23:00:00	2	Temperatura media	14.2
54946	7	Sololá	701	Sololá	1	Sololá	10	Octubre	2023-10-24T00:00:00	2024-11-08T23:00:00	4	Temperatura máxima	14.6
54947	7	Sololá	701	Sololá	1	Sololá	10	Octubre	2023-10-24T00:00:00	2024-11-08T23:00:00	3	Temperatura mínima	14.2
54948	7	Sololá	701	Sololá	1	Sololá	10	Octubre	2023-10-24T00:00:00	2024-11-08T23:00:00	5	Humedad	95
54949	7	Sololá	701	Sololá	1	Sololá	10	Octubre	2023-10-24T00:00:00	2024-11-08T23:00:00	6	Velocidad del viento	0
54950	7	Sololá	701	Sololá	1	Sololá	10	Octubre	2023-10-24T00:00:00	2024-11-08T23:00:00	7	Dirección del viento	0
54951	7	Sololá	701	Sololá	1	Sololá	10	Octubre	2023-10-24T00:00:00	2024-11-08T23:00:00	1	Precipitación	0.2
54952	7	Sololá	701	Sololá	1	Sololá	10	Octubre	2023-10-24T00:00:00	2024-11-08T23:00:00	8	Radiación solar	0
54953	7	Sololá	701	Sololá	1	Sololá	10	Octubre	2023-10-25T00:00:00	2024-11-08T00:00:00	2	Temperatura media	14.6
54954	7	Sololá	701	Sololá	1	Sololá	10	Octubre	2023-10-25T00:00:00	2024-11-08T00:00:00	4	Temperatura máxima	14.6
54955	7	Sololá	701	Sololá	1	Sololá	10	Octubre	2023-10-25T00:00:00	2024-11-08T00:00:00	3	Temperatura mínima	14.1
54956	7	Sololá	701	Sololá	1	Sololá	10	Octubre	2023-10-25T00:00:00	2024-11-08T00:00:00	5	Humedad	95
54957	7	Sololá	701	Sololá	1	Sololá	10	Octubre	2023-10-25T00:00:00	2024-11-08T00:00:00	6	Velocidad del viento	0
54958	7	Sololá	701	Sololá	1	Sololá	10	Octubre	2023-10-25T00:00:00	2024-11-08T00:00:00	7	Dirección del viento	0
54959	7	Sololá	701	Sololá	1	Sololá	10	Octubre	2023-10-25T00:00:00	2024-11-08T00:00:00	1	Precipitación	0.2
54960	7	Sololá	701	Sololá	1	Sololá	10	Octubre	2023-10-25T00:00:00	2024-11-08T00:00:00	8	Radiación solar	0
54961	7	Sololá	701	Sololá	1	Sololá	10	Octubre	2023-10-25T00:00:00	2024-11-08T01:00:00	2	Temperatura media	14.7
54962	7	Sololá	701	Sololá	1	Sololá	10	Octubre	2023-10-25T00:00:00	2024-11-08T01:00:00	4	Temperatura máxima	14.8
54963	7	Sololá	701	Sololá	1	Sololá	10	Octubre	2023-10-25T00:00:00	2024-11-08T01:00:00	3	Temperatura mínima	14.6
54964	7	Sololá	701	Sololá	1	Sololá	10	Octubre	2023-10-25T00:00:00	2024-11-08T01:00:00	5	Humedad	95
54965	7	Sololá	701	Sololá	1	Sololá	10	Octubre	2023-10-25T00:00:00	2024-11-08T01:00:00	6	Velocidad del viento	0
54966	7	Sololá	701	Sololá	1	Sololá	10	Octubre	2023-10-25T00:00:00	2024-11-08T01:00:00	7	Dirección del viento	0
54967	7	Sololá	701	Sololá	1	Sololá	10	Octubre	2023-10-25T00:00:00	2024-11-08T01:00:00	1	Precipitación	0
54968	7	Sololá	701	Sololá	1	Sololá	10	Octubre	2023-10-25T00:00:00	2024-11-08T01:00:00	8	Radiación solar	0
54969	7	Sololá	701	Sololá	1	Sololá	10	Octubre	2023-10-25T00:00:00	2024-11-08T02:00:00	2	Temperatura media	14.5
54970	7	Sololá	701	Sololá	1	Sololá	10	Octubre	2023-10-25T00:00:00	2024-11-08T02:00:00	4	Temperatura máxima	14.8
54971	7	Sololá	701	Sololá	1	Sololá	10	Octubre	2023-10-25T00:00:00	2024-11-08T02:00:00	3	Temperatura mínima	14.4
54972	7	Sololá	701	Sololá	1	Sololá	10	Octubre	2023-10-25T00:00:00	2024-11-08T02:00:00	5	Humedad	94
54973	7	Sololá	701	Sololá	1	Sololá	10	Octubre	2023-10-25T00:00:00	2024-11-08T02:00:00	6	Velocidad del viento	0
54974	7	Sololá	701	Sololá	1	Sololá	10	Octubre	2023-10-25T00:00:00	2024-11-08T02:00:00	7	Dirección del viento	0
54975	7	Sololá	701	Sololá	1	Sololá	10	Octubre	2023-10-25T00:00:00	2024-11-08T02:00:00	1	Precipitación	0.2
54976	7	Sololá	701	Sololá	1	Sololá	10	Octubre	2023-10-25T00:00:00	2024-11-08T02:00:00	8	Radiación solar	0
54977	7	Sololá	701	Sololá	1	Sololá	10	Octubre	2023-10-25T00:00:00	2024-11-08T03:00:00	2	Temperatura media	14
54978	7	Sololá	701	Sololá	1	Sololá	10	Octubre	2023-10-25T00:00:00	2024-11-08T03:00:00	4	Temperatura máxima	14.5
54979	7	Sololá	701	Sololá	1	Sololá	10	Octubre	2023-10-25T00:00:00	2024-11-08T03:00:00	3	Temperatura mínima	13.9
54980	7	Sololá	701	Sololá	1	Sololá	10	Octubre	2023-10-25T00:00:00	2024-11-08T03:00:00	5	Humedad	95
54981	7	Sololá	701	Sololá	1	Sololá	10	Octubre	2023-10-25T00:00:00	2024-11-08T03:00:00	6	Velocidad del viento	0
54982	7	Sololá	701	Sololá	1	Sololá	10	Octubre	2023-10-25T00:00:00	2024-11-08T03:00:00	7	Dirección del viento	0
54983	7	Sololá	701	Sololá	1	Sololá	10	Octubre	2023-10-25T00:00:00	2024-11-08T03:00:00	1	Precipitación	0.2
54984	7	Sololá	701	Sololá	1	Sololá	10	Octubre	2023-10-25T00:00:00	2024-11-08T03:00:00	8	Radiación solar	0
54985	7	Sololá	701	Sololá	1	Sololá	10	Octubre	2023-10-25T00:00:00	2024-11-08T04:00:00	2	Temperatura media	13.5
54986	7	Sololá	701	Sololá	1	Sololá	10	Octubre	2023-10-25T00:00:00	2024-11-08T04:00:00	4	Temperatura máxima	14
54987	7	Sololá	701	Sololá	1	Sololá	10	Octubre	2023-10-25T00:00:00	2024-11-08T04:00:00	3	Temperatura mínima	13.5
54988	7	Sololá	701	Sololá	1	Sololá	10	Octubre	2023-10-25T00:00:00	2024-11-08T04:00:00	5	Humedad	95
54989	7	Sololá	701	Sololá	1	Sololá	10	Octubre	2023-10-25T00:00:00	2024-11-08T04:00:00	6	Velocidad del viento	0
54990	7	Sololá	701	Sololá	1	Sololá	10	Octubre	2023-10-25T00:00:00	2024-11-08T04:00:00	7	Dirección del viento	0
54991	7	Sololá	701	Sololá	1	Sololá	10	Octubre	2023-10-25T00:00:00	2024-11-08T04:00:00	1	Precipitación	0
54992	7	Sololá	701	Sololá	1	Sololá	10	Octubre	2023-10-25T00:00:00	2024-11-08T04:00:00	8	Radiación solar	0
54993	7	Sololá	701	Sololá	1	Sololá	10	Octubre	2023-10-25T00:00:00	2024-11-08T05:00:00	2	Temperatura media	13.2
54994	7	Sololá	701	Sololá	1	Sololá	10	Octubre	2023-10-25T00:00:00	2024-11-08T05:00:00	4	Temperatura máxima	13.6
54995	7	Sololá	701	Sololá	1	Sololá	10	Octubre	2023-10-25T00:00:00	2024-11-08T05:00:00	3	Temperatura mínima	13.2
54996	7	Sololá	701	Sololá	1	Sololá	10	Octubre	2023-10-25T00:00:00	2024-11-08T05:00:00	5	Humedad	95
54997	7	Sololá	701	Sololá	1	Sololá	10	Octubre	2023-10-25T00:00:00	2024-11-08T05:00:00	6	Velocidad del viento	0
54998	7	Sololá	701	Sololá	1	Sololá	10	Octubre	2023-10-25T00:00:00	2024-11-08T05:00:00	7	Dirección del viento	0
54999	7	Sololá	701	Sololá	1	Sololá	10	Octubre	2023-10-25T00:00:00	2024-11-08T05:00:00	1	Precipitación	0.2
55000	7	Sololá	701	Sololá	1	Sololá	10	Octubre	2023-10-25T00:00:00	2024-11-08T05:00:00	8	Radiación solar	0
55001	7	Sololá	701	Sololá	1	Sololá	10	Octubre	2023-10-25T00:00:00	2024-11-08T06:00:00	2	Temperatura media	13.8
55002	7	Sololá	701	Sololá	1	Sololá	10	Octubre	2023-10-25T00:00:00	2024-11-08T06:00:00	4	Temperatura máxima	13.8
55003	7	Sololá	701	Sololá	1	Sololá	10	Octubre	2023-10-25T00:00:00	2024-11-08T06:00:00	3	Temperatura mínima	13.2
55004	7	Sololá	701	Sololá	1	Sololá	10	Octubre	2023-10-25T00:00:00	2024-11-08T06:00:00	5	Humedad	94
55005	7	Sololá	701	Sololá	1	Sololá	10	Octubre	2023-10-25T00:00:00	2024-11-08T06:00:00	6	Velocidad del viento	0
55006	7	Sololá	701	Sololá	1	Sololá	10	Octubre	2023-10-25T00:00:00	2024-11-08T06:00:00	7	Dirección del viento	0
55007	7	Sololá	701	Sololá	1	Sololá	10	Octubre	2023-10-25T00:00:00	2024-11-08T06:00:00	1	Precipitación	0.2
55008	7	Sololá	701	Sololá	1	Sololá	10	Octubre	2023-10-25T00:00:00	2024-11-08T06:00:00	8	Radiación solar	0
55009	7	Sololá	701	Sololá	1	Sololá	10	Octubre	2023-10-25T00:00:00	2024-11-08T07:00:00	2	Temperatura media	14.4
55010	7	Sololá	701	Sololá	1	Sololá	10	Octubre	2023-10-25T00:00:00	2024-11-08T07:00:00	4	Temperatura máxima	14.4
55011	7	Sololá	701	Sololá	1	Sololá	10	Octubre	2023-10-25T00:00:00	2024-11-08T07:00:00	3	Temperatura mínima	13.7
55012	7	Sololá	701	Sololá	1	Sololá	10	Octubre	2023-10-25T00:00:00	2024-11-08T07:00:00	5	Humedad	94
55013	7	Sololá	701	Sololá	1	Sololá	10	Octubre	2023-10-25T00:00:00	2024-11-08T07:00:00	6	Velocidad del viento	0
55014	7	Sololá	701	Sololá	1	Sololá	10	Octubre	2023-10-25T00:00:00	2024-11-08T07:00:00	7	Dirección del viento	0
55015	7	Sololá	701	Sololá	1	Sololá	10	Octubre	2023-10-25T00:00:00	2024-11-08T07:00:00	1	Precipitación	0
55016	7	Sololá	701	Sololá	1	Sololá	10	Octubre	2023-10-25T00:00:00	2024-11-08T07:00:00	8	Radiación solar	26
55017	7	Sololá	701	Sololá	1	Sololá	10	Octubre	2023-10-25T00:00:00	2024-11-08T08:00:00	2	Temperatura media	16.3
55018	7	Sololá	701	Sololá	1	Sololá	10	Octubre	2023-10-25T00:00:00	2024-11-08T08:00:00	4	Temperatura máxima	16.3
55019	7	Sololá	701	Sololá	1	Sololá	10	Octubre	2023-10-25T00:00:00	2024-11-08T08:00:00	3	Temperatura mínima	14.4
55020	7	Sololá	701	Sololá	1	Sololá	10	Octubre	2023-10-25T00:00:00	2024-11-08T08:00:00	5	Humedad	92
55021	7	Sololá	701	Sololá	1	Sololá	10	Octubre	2023-10-25T00:00:00	2024-11-08T08:00:00	6	Velocidad del viento	0
55022	7	Sololá	701	Sololá	1	Sololá	10	Octubre	2023-10-25T00:00:00	2024-11-08T08:00:00	7	Dirección del viento	0
55023	7	Sololá	701	Sololá	1	Sololá	10	Octubre	2023-10-25T00:00:00	2024-11-08T08:00:00	1	Precipitación	0.2
55024	7	Sololá	701	Sololá	1	Sololá	10	Octubre	2023-10-25T00:00:00	2024-11-08T08:00:00	8	Radiación solar	150
55025	7	Sololá	701	Sololá	1	Sololá	10	Octubre	2023-10-25T00:00:00	2024-11-08T09:00:00	2	Temperatura media	17.4
55026	7	Sololá	701	Sololá	1	Sololá	10	Octubre	2023-10-25T00:00:00	2024-11-08T09:00:00	4	Temperatura máxima	17.5
55027	7	Sololá	701	Sololá	1	Sololá	10	Octubre	2023-10-25T00:00:00	2024-11-08T09:00:00	3	Temperatura mínima	16.3
55028	7	Sololá	701	Sololá	1	Sololá	10	Octubre	2023-10-25T00:00:00	2024-11-08T09:00:00	5	Humedad	85
55029	7	Sololá	701	Sololá	1	Sololá	10	Octubre	2023-10-25T00:00:00	2024-11-08T09:00:00	6	Velocidad del viento	0
55030	7	Sololá	701	Sololá	1	Sololá	10	Octubre	2023-10-25T00:00:00	2024-11-08T09:00:00	7	Dirección del viento	0
55031	7	Sololá	701	Sololá	1	Sololá	10	Octubre	2023-10-25T00:00:00	2024-11-08T09:00:00	1	Precipitación	0
55032	7	Sololá	701	Sololá	1	Sololá	10	Octubre	2023-10-25T00:00:00	2024-11-08T09:00:00	8	Radiación solar	246
55033	7	Sololá	701	Sololá	1	Sololá	10	Octubre	2023-10-25T00:00:00	2024-11-08T10:00:00	2	Temperatura media	19.3
55034	7	Sololá	701	Sololá	1	Sololá	10	Octubre	2023-10-25T00:00:00	2024-11-08T10:00:00	4	Temperatura máxima	19.7
55035	7	Sololá	701	Sololá	1	Sololá	10	Octubre	2023-10-25T00:00:00	2024-11-08T10:00:00	3	Temperatura mínima	17.4
55036	7	Sololá	701	Sololá	1	Sololá	10	Octubre	2023-10-25T00:00:00	2024-11-08T10:00:00	5	Humedad	79
55037	7	Sololá	701	Sololá	1	Sololá	10	Octubre	2023-10-25T00:00:00	2024-11-08T10:00:00	6	Velocidad del viento	0
55038	7	Sololá	701	Sololá	1	Sololá	10	Octubre	2023-10-25T00:00:00	2024-11-08T10:00:00	7	Dirección del viento	0
55039	7	Sololá	701	Sololá	1	Sololá	10	Octubre	2023-10-25T00:00:00	2024-11-08T10:00:00	1	Precipitación	0.2
55040	7	Sololá	701	Sololá	1	Sololá	10	Octubre	2023-10-25T00:00:00	2024-11-08T10:00:00	8	Radiación solar	479
55041	7	Sololá	701	Sololá	1	Sololá	10	Octubre	2023-10-25T00:00:00	2024-11-08T11:00:00	2	Temperatura media	20.2
55042	7	Sololá	701	Sololá	1	Sololá	10	Octubre	2023-10-25T00:00:00	2024-11-08T11:00:00	4	Temperatura máxima	20.2
55043	7	Sololá	701	Sololá	1	Sololá	10	Octubre	2023-10-25T00:00:00	2024-11-08T11:00:00	3	Temperatura mínima	19.2
55044	7	Sololá	701	Sololá	1	Sololá	10	Octubre	2023-10-25T00:00:00	2024-11-08T11:00:00	5	Humedad	81
55045	7	Sololá	701	Sololá	1	Sololá	10	Octubre	2023-10-25T00:00:00	2024-11-08T11:00:00	6	Velocidad del viento	0
55046	7	Sololá	701	Sololá	1	Sololá	10	Octubre	2023-10-25T00:00:00	2024-11-08T11:00:00	7	Dirección del viento	0
55047	7	Sololá	701	Sololá	1	Sololá	10	Octubre	2023-10-25T00:00:00	2024-11-08T11:00:00	1	Precipitación	0.2
55048	7	Sololá	701	Sololá	1	Sololá	10	Octubre	2023-10-25T00:00:00	2024-11-08T11:00:00	8	Radiación solar	374
55049	7	Sololá	701	Sololá	1	Sololá	10	Octubre	2023-10-25T00:00:00	2024-11-08T12:00:00	2	Temperatura media	22.5
55050	7	Sololá	701	Sololá	1	Sololá	10	Octubre	2023-10-25T00:00:00	2024-11-08T12:00:00	4	Temperatura máxima	22.6
55051	7	Sololá	701	Sololá	1	Sololá	10	Octubre	2023-10-25T00:00:00	2024-11-08T12:00:00	3	Temperatura mínima	20.2
55052	7	Sololá	701	Sololá	1	Sololá	10	Octubre	2023-10-25T00:00:00	2024-11-08T12:00:00	5	Humedad	69
55053	7	Sololá	701	Sololá	1	Sololá	10	Octubre	2023-10-25T00:00:00	2024-11-08T12:00:00	6	Velocidad del viento	0
55054	7	Sololá	701	Sololá	1	Sololá	10	Octubre	2023-10-25T00:00:00	2024-11-08T12:00:00	7	Dirección del viento	0
55055	7	Sololá	701	Sololá	1	Sololá	10	Octubre	2023-10-25T00:00:00	2024-11-08T12:00:00	1	Precipitación	0.2
55056	7	Sololá	701	Sololá	1	Sololá	10	Octubre	2023-10-25T00:00:00	2024-11-08T12:00:00	8	Radiación solar	648
55057	7	Sololá	701	Sololá	1	Sololá	10	Octubre	2023-10-25T00:00:00	2024-11-08T13:00:00	2	Temperatura media	21.8
55058	7	Sololá	701	Sololá	1	Sololá	10	Octubre	2023-10-25T00:00:00	2024-11-08T13:00:00	4	Temperatura máxima	22.6
55059	7	Sololá	701	Sololá	1	Sololá	10	Octubre	2023-10-25T00:00:00	2024-11-08T13:00:00	3	Temperatura mínima	21.6
55060	7	Sololá	701	Sololá	1	Sololá	10	Octubre	2023-10-25T00:00:00	2024-11-08T13:00:00	5	Humedad	71
55061	7	Sololá	701	Sololá	1	Sololá	10	Octubre	2023-10-25T00:00:00	2024-11-08T13:00:00	6	Velocidad del viento	0
55062	7	Sololá	701	Sololá	1	Sololá	10	Octubre	2023-10-25T00:00:00	2024-11-08T13:00:00	7	Dirección del viento	0
55063	7	Sololá	701	Sololá	1	Sololá	10	Octubre	2023-10-25T00:00:00	2024-11-08T13:00:00	1	Precipitación	0.2
55064	7	Sololá	701	Sololá	1	Sololá	10	Octubre	2023-10-25T00:00:00	2024-11-08T13:00:00	8	Radiación solar	227
55065	7	Sololá	701	Sololá	1	Sololá	10	Octubre	2023-10-25T00:00:00	2024-11-08T14:00:00	2	Temperatura media	22.5
55066	7	Sololá	701	Sololá	1	Sololá	10	Octubre	2023-10-25T00:00:00	2024-11-08T14:00:00	4	Temperatura máxima	22.7
55067	7	Sololá	701	Sololá	1	Sololá	10	Octubre	2023-10-25T00:00:00	2024-11-08T14:00:00	3	Temperatura mínima	21.4
55068	7	Sololá	701	Sololá	1	Sololá	10	Octubre	2023-10-25T00:00:00	2024-11-08T14:00:00	5	Humedad	70
55069	7	Sololá	701	Sololá	1	Sololá	10	Octubre	2023-10-25T00:00:00	2024-11-08T14:00:00	6	Velocidad del viento	0
55070	7	Sololá	701	Sololá	1	Sololá	10	Octubre	2023-10-25T00:00:00	2024-11-08T14:00:00	7	Dirección del viento	0
55071	7	Sololá	701	Sololá	1	Sololá	10	Octubre	2023-10-25T00:00:00	2024-11-08T14:00:00	1	Precipitación	0
55072	7	Sololá	701	Sololá	1	Sololá	10	Octubre	2023-10-25T00:00:00	2024-11-08T14:00:00	8	Radiación solar	292
55073	7	Sololá	701	Sololá	1	Sololá	10	Octubre	2023-10-25T00:00:00	2024-11-08T15:00:00	2	Temperatura media	20
55074	7	Sololá	701	Sololá	1	Sololá	10	Octubre	2023-10-25T00:00:00	2024-11-08T15:00:00	4	Temperatura máxima	22.5
55075	7	Sololá	701	Sololá	1	Sololá	10	Octubre	2023-10-25T00:00:00	2024-11-08T15:00:00	3	Temperatura mínima	19.9
55076	7	Sololá	701	Sololá	1	Sololá	10	Octubre	2023-10-25T00:00:00	2024-11-08T15:00:00	5	Humedad	78
55077	7	Sololá	701	Sololá	1	Sololá	10	Octubre	2023-10-25T00:00:00	2024-11-08T15:00:00	6	Velocidad del viento	0
55078	7	Sololá	701	Sololá	1	Sololá	10	Octubre	2023-10-25T00:00:00	2024-11-08T15:00:00	7	Dirección del viento	0
55079	7	Sololá	701	Sololá	1	Sololá	10	Octubre	2023-10-25T00:00:00	2024-11-08T15:00:00	1	Precipitación	0.2
55080	7	Sololá	701	Sololá	1	Sololá	10	Octubre	2023-10-25T00:00:00	2024-11-08T15:00:00	8	Radiación solar	109
55081	7	Sololá	701	Sololá	1	Sololá	10	Octubre	2023-10-25T00:00:00	2024-11-08T16:00:00	2	Temperatura media	19.3
55082	7	Sololá	701	Sololá	1	Sololá	10	Octubre	2023-10-25T00:00:00	2024-11-08T16:00:00	4	Temperatura máxima	19.9
55083	7	Sololá	701	Sololá	1	Sololá	10	Octubre	2023-10-25T00:00:00	2024-11-08T16:00:00	3	Temperatura mínima	19.2
55084	7	Sololá	701	Sololá	1	Sololá	10	Octubre	2023-10-25T00:00:00	2024-11-08T16:00:00	5	Humedad	89
55085	7	Sololá	701	Sololá	1	Sololá	10	Octubre	2023-10-25T00:00:00	2024-11-08T16:00:00	6	Velocidad del viento	0
55086	7	Sololá	701	Sololá	1	Sololá	10	Octubre	2023-10-25T00:00:00	2024-11-08T16:00:00	7	Dirección del viento	0
55087	7	Sololá	701	Sololá	1	Sololá	10	Octubre	2023-10-25T00:00:00	2024-11-08T16:00:00	1	Precipitación	0.2
55088	7	Sololá	701	Sololá	1	Sololá	10	Octubre	2023-10-25T00:00:00	2024-11-08T16:00:00	8	Radiación solar	104
55089	7	Sololá	701	Sololá	1	Sololá	10	Octubre	2023-10-25T00:00:00	2024-11-08T17:00:00	2	Temperatura media	18.3
55090	7	Sololá	701	Sololá	1	Sololá	10	Octubre	2023-10-25T00:00:00	2024-11-08T17:00:00	4	Temperatura máxima	19.3
55091	7	Sololá	701	Sololá	1	Sololá	10	Octubre	2023-10-25T00:00:00	2024-11-08T17:00:00	3	Temperatura mínima	18.3
55092	7	Sololá	701	Sololá	1	Sololá	10	Octubre	2023-10-25T00:00:00	2024-11-08T17:00:00	5	Humedad	83
55093	7	Sololá	701	Sololá	1	Sololá	10	Octubre	2023-10-25T00:00:00	2024-11-08T17:00:00	6	Velocidad del viento	0
55094	7	Sololá	701	Sololá	1	Sololá	10	Octubre	2023-10-25T00:00:00	2024-11-08T17:00:00	7	Dirección del viento	0
55095	7	Sololá	701	Sololá	1	Sololá	10	Octubre	2023-10-25T00:00:00	2024-11-08T17:00:00	1	Precipitación	0
55096	7	Sololá	701	Sololá	1	Sololá	10	Octubre	2023-10-25T00:00:00	2024-11-08T17:00:00	8	Radiación solar	45
55097	7	Sololá	701	Sololá	1	Sololá	10	Octubre	2023-10-25T00:00:00	2024-11-08T18:00:00	2	Temperatura media	17.2
55098	7	Sololá	701	Sololá	1	Sololá	10	Octubre	2023-10-25T00:00:00	2024-11-08T18:00:00	4	Temperatura máxima	18.3
55099	7	Sololá	701	Sololá	1	Sololá	10	Octubre	2023-10-25T00:00:00	2024-11-08T18:00:00	3	Temperatura mínima	17.2
55100	7	Sololá	701	Sololá	1	Sololá	10	Octubre	2023-10-25T00:00:00	2024-11-08T18:00:00	5	Humedad	85
55101	7	Sololá	701	Sololá	1	Sololá	10	Octubre	2023-10-25T00:00:00	2024-11-08T18:00:00	6	Velocidad del viento	0
55102	7	Sololá	701	Sololá	1	Sololá	10	Octubre	2023-10-25T00:00:00	2024-11-08T18:00:00	7	Dirección del viento	0
55103	7	Sololá	701	Sololá	1	Sololá	10	Octubre	2023-10-25T00:00:00	2024-11-08T18:00:00	1	Precipitación	0.2
55104	7	Sololá	701	Sololá	1	Sololá	10	Octubre	2023-10-25T00:00:00	2024-11-08T18:00:00	8	Radiación solar	6
55105	7	Sololá	701	Sololá	1	Sololá	10	Octubre	2023-10-25T00:00:00	2024-11-08T19:00:00	2	Temperatura media	16.2
55106	7	Sololá	701	Sololá	1	Sololá	10	Octubre	2023-10-25T00:00:00	2024-11-08T19:00:00	4	Temperatura máxima	17.2
55107	7	Sololá	701	Sololá	1	Sololá	10	Octubre	2023-10-25T00:00:00	2024-11-08T19:00:00	3	Temperatura mínima	16.2
55108	7	Sololá	701	Sololá	1	Sololá	10	Octubre	2023-10-25T00:00:00	2024-11-08T19:00:00	5	Humedad	89
55109	7	Sololá	701	Sololá	1	Sololá	10	Octubre	2023-10-25T00:00:00	2024-11-08T19:00:00	6	Velocidad del viento	0
55110	7	Sololá	701	Sololá	1	Sololá	10	Octubre	2023-10-25T00:00:00	2024-11-08T19:00:00	7	Dirección del viento	0
55111	7	Sololá	701	Sololá	1	Sololá	10	Octubre	2023-10-25T00:00:00	2024-11-08T19:00:00	1	Precipitación	0
55112	7	Sololá	701	Sololá	1	Sololá	10	Octubre	2023-10-25T00:00:00	2024-11-08T19:00:00	8	Radiación solar	0
55113	7	Sololá	701	Sololá	1	Sololá	10	Octubre	2023-10-25T00:00:00	2024-11-08T20:00:00	2	Temperatura media	15.9
55114	7	Sololá	701	Sololá	1	Sololá	10	Octubre	2023-10-25T00:00:00	2024-11-08T20:00:00	4	Temperatura máxima	16.2
55115	7	Sololá	701	Sololá	1	Sololá	10	Octubre	2023-10-25T00:00:00	2024-11-08T20:00:00	3	Temperatura mínima	15.8
55116	7	Sololá	701	Sololá	1	Sololá	10	Octubre	2023-10-25T00:00:00	2024-11-08T20:00:00	5	Humedad	91
55117	7	Sololá	701	Sololá	1	Sololá	10	Octubre	2023-10-25T00:00:00	2024-11-08T20:00:00	6	Velocidad del viento	0
55118	7	Sololá	701	Sololá	1	Sololá	10	Octubre	2023-10-25T00:00:00	2024-11-08T20:00:00	7	Dirección del viento	0
55119	7	Sololá	701	Sololá	1	Sololá	10	Octubre	2023-10-25T00:00:00	2024-11-08T20:00:00	1	Precipitación	0.2
55120	7	Sololá	701	Sololá	1	Sololá	10	Octubre	2023-10-25T00:00:00	2024-11-08T20:00:00	8	Radiación solar	0
55121	7	Sololá	701	Sololá	1	Sololá	10	Octubre	2023-10-25T00:00:00	2024-11-08T21:00:00	2	Temperatura media	15.9
55122	7	Sololá	701	Sololá	1	Sololá	10	Octubre	2023-10-25T00:00:00	2024-11-08T21:00:00	4	Temperatura máxima	16.2
55123	7	Sololá	701	Sololá	1	Sololá	10	Octubre	2023-10-25T00:00:00	2024-11-08T21:00:00	3	Temperatura mínima	15.9
55124	7	Sololá	701	Sololá	1	Sololá	10	Octubre	2023-10-25T00:00:00	2024-11-08T21:00:00	5	Humedad	91
55125	7	Sololá	701	Sololá	1	Sololá	10	Octubre	2023-10-25T00:00:00	2024-11-08T21:00:00	6	Velocidad del viento	0
55126	7	Sololá	701	Sololá	1	Sololá	10	Octubre	2023-10-25T00:00:00	2024-11-08T21:00:00	7	Dirección del viento	0
55127	7	Sololá	701	Sololá	1	Sololá	10	Octubre	2023-10-25T00:00:00	2024-11-08T21:00:00	1	Precipitación	0
55128	7	Sololá	701	Sololá	1	Sololá	10	Octubre	2023-10-25T00:00:00	2024-11-08T21:00:00	8	Radiación solar	0
55129	7	Sololá	701	Sololá	1	Sololá	10	Octubre	2023-10-25T00:00:00	2024-11-08T22:00:00	2	Temperatura media	15.4
55130	7	Sololá	701	Sololá	1	Sololá	10	Octubre	2023-10-25T00:00:00	2024-11-08T22:00:00	4	Temperatura máxima	15.9
55131	7	Sololá	701	Sololá	1	Sololá	10	Octubre	2023-10-25T00:00:00	2024-11-08T22:00:00	3	Temperatura mínima	15.4
55132	7	Sololá	701	Sololá	1	Sololá	10	Octubre	2023-10-25T00:00:00	2024-11-08T22:00:00	5	Humedad	91
55133	7	Sololá	701	Sololá	1	Sololá	10	Octubre	2023-10-25T00:00:00	2024-11-08T22:00:00	6	Velocidad del viento	0
55134	7	Sololá	701	Sololá	1	Sololá	10	Octubre	2023-10-25T00:00:00	2024-11-08T22:00:00	7	Dirección del viento	0
55135	7	Sololá	701	Sololá	1	Sololá	10	Octubre	2023-10-25T00:00:00	2024-11-08T22:00:00	1	Precipitación	0.2
55136	7	Sololá	701	Sololá	1	Sololá	10	Octubre	2023-10-25T00:00:00	2024-11-08T22:00:00	8	Radiación solar	0
55137	7	Sololá	701	Sololá	1	Sololá	10	Octubre	2023-10-25T00:00:00	2024-11-08T23:00:00	2	Temperatura media	14.7
55138	7	Sololá	701	Sololá	1	Sololá	10	Octubre	2023-10-25T00:00:00	2024-11-08T23:00:00	4	Temperatura máxima	15.4
55139	7	Sololá	701	Sololá	1	Sololá	10	Octubre	2023-10-25T00:00:00	2024-11-08T23:00:00	3	Temperatura mínima	14.7
55140	7	Sololá	701	Sololá	1	Sololá	10	Octubre	2023-10-25T00:00:00	2024-11-08T23:00:00	5	Humedad	92
55141	7	Sololá	701	Sololá	1	Sololá	10	Octubre	2023-10-25T00:00:00	2024-11-08T23:00:00	6	Velocidad del viento	0
55142	7	Sololá	701	Sololá	1	Sololá	10	Octubre	2023-10-25T00:00:00	2024-11-08T23:00:00	7	Dirección del viento	0
55143	7	Sololá	701	Sololá	1	Sololá	10	Octubre	2023-10-25T00:00:00	2024-11-08T23:00:00	1	Precipitación	0
55144	7	Sololá	701	Sololá	1	Sololá	10	Octubre	2023-10-25T00:00:00	2024-11-08T23:00:00	8	Radiación solar	0
55145	7	Sololá	701	Sololá	1	Sololá	10	Octubre	2023-10-26T00:00:00	2024-11-08T00:00:00	2	Temperatura media	14.3
55146	7	Sololá	701	Sololá	1	Sololá	10	Octubre	2023-10-26T00:00:00	2024-11-08T00:00:00	4	Temperatura máxima	14.7
55147	7	Sololá	701	Sololá	1	Sololá	10	Octubre	2023-10-26T00:00:00	2024-11-08T00:00:00	3	Temperatura mínima	14.2
55148	7	Sololá	701	Sololá	1	Sololá	10	Octubre	2023-10-26T00:00:00	2024-11-08T00:00:00	5	Humedad	93
55149	7	Sololá	701	Sololá	1	Sololá	10	Octubre	2023-10-26T00:00:00	2024-11-08T00:00:00	6	Velocidad del viento	0
55150	7	Sololá	701	Sololá	1	Sololá	10	Octubre	2023-10-26T00:00:00	2024-11-08T00:00:00	7	Dirección del viento	0
55151	7	Sololá	701	Sololá	1	Sololá	10	Octubre	2023-10-26T00:00:00	2024-11-08T00:00:00	1	Precipitación	0.2
55152	7	Sololá	701	Sololá	1	Sololá	10	Octubre	2023-10-26T00:00:00	2024-11-08T00:00:00	8	Radiación solar	0
55153	7	Sololá	701	Sololá	1	Sololá	10	Octubre	2023-10-26T00:00:00	2024-11-08T01:00:00	2	Temperatura media	14
55154	7	Sololá	701	Sololá	1	Sololá	10	Octubre	2023-10-26T00:00:00	2024-11-08T01:00:00	4	Temperatura máxima	14.3
55155	7	Sololá	701	Sololá	1	Sololá	10	Octubre	2023-10-26T00:00:00	2024-11-08T01:00:00	3	Temperatura mínima	14
55156	7	Sololá	701	Sololá	1	Sololá	10	Octubre	2023-10-26T00:00:00	2024-11-08T01:00:00	5	Humedad	93
55157	7	Sololá	701	Sololá	1	Sololá	10	Octubre	2023-10-26T00:00:00	2024-11-08T01:00:00	6	Velocidad del viento	0
55158	7	Sololá	701	Sololá	1	Sololá	10	Octubre	2023-10-26T00:00:00	2024-11-08T01:00:00	7	Dirección del viento	0
55159	7	Sololá	701	Sololá	1	Sololá	10	Octubre	2023-10-26T00:00:00	2024-11-08T01:00:00	1	Precipitación	0
55160	7	Sololá	701	Sololá	1	Sololá	10	Octubre	2023-10-26T00:00:00	2024-11-08T01:00:00	8	Radiación solar	0
55161	7	Sololá	701	Sololá	1	Sololá	10	Octubre	2023-10-26T00:00:00	2024-11-08T02:00:00	2	Temperatura media	13.9
55162	7	Sololá	701	Sololá	1	Sololá	10	Octubre	2023-10-26T00:00:00	2024-11-08T02:00:00	4	Temperatura máxima	14
55163	7	Sololá	701	Sololá	1	Sololá	10	Octubre	2023-10-26T00:00:00	2024-11-08T02:00:00	3	Temperatura mínima	13.9
55164	7	Sololá	701	Sololá	1	Sololá	10	Octubre	2023-10-26T00:00:00	2024-11-08T02:00:00	5	Humedad	93
55165	7	Sololá	701	Sololá	1	Sololá	10	Octubre	2023-10-26T00:00:00	2024-11-08T02:00:00	6	Velocidad del viento	0
55166	7	Sololá	701	Sololá	1	Sololá	10	Octubre	2023-10-26T00:00:00	2024-11-08T02:00:00	7	Dirección del viento	0
55167	7	Sololá	701	Sololá	1	Sololá	10	Octubre	2023-10-26T00:00:00	2024-11-08T02:00:00	1	Precipitación	0
55168	7	Sololá	701	Sololá	1	Sololá	10	Octubre	2023-10-26T00:00:00	2024-11-08T02:00:00	8	Radiación solar	0
55169	7	Sololá	701	Sololá	1	Sololá	10	Octubre	2023-10-26T00:00:00	2024-11-08T03:00:00	2	Temperatura media	13.6
55170	7	Sololá	701	Sololá	1	Sololá	10	Octubre	2023-10-26T00:00:00	2024-11-08T03:00:00	4	Temperatura máxima	13.9
55171	7	Sololá	701	Sololá	1	Sololá	10	Octubre	2023-10-26T00:00:00	2024-11-08T03:00:00	3	Temperatura mínima	13.6
55172	7	Sololá	701	Sololá	1	Sololá	10	Octubre	2023-10-26T00:00:00	2024-11-08T03:00:00	5	Humedad	93
55173	7	Sololá	701	Sololá	1	Sololá	10	Octubre	2023-10-26T00:00:00	2024-11-08T03:00:00	6	Velocidad del viento	0
55174	7	Sololá	701	Sololá	1	Sololá	10	Octubre	2023-10-26T00:00:00	2024-11-08T03:00:00	7	Dirección del viento	0
55175	7	Sololá	701	Sololá	1	Sololá	10	Octubre	2023-10-26T00:00:00	2024-11-08T03:00:00	1	Precipitación	0
55176	7	Sololá	701	Sololá	1	Sololá	10	Octubre	2023-10-26T00:00:00	2024-11-08T03:00:00	8	Radiación solar	0
55177	7	Sololá	701	Sololá	1	Sololá	10	Octubre	2023-10-26T00:00:00	2024-11-08T04:00:00	2	Temperatura media	13.7
55178	7	Sololá	701	Sololá	1	Sololá	10	Octubre	2023-10-26T00:00:00	2024-11-08T04:00:00	4	Temperatura máxima	13.7
55179	7	Sololá	701	Sololá	1	Sololá	10	Octubre	2023-10-26T00:00:00	2024-11-08T04:00:00	3	Temperatura mínima	13.6
55180	7	Sololá	701	Sololá	1	Sololá	10	Octubre	2023-10-26T00:00:00	2024-11-08T04:00:00	5	Humedad	93
55181	7	Sololá	701	Sololá	1	Sololá	10	Octubre	2023-10-26T00:00:00	2024-11-08T04:00:00	6	Velocidad del viento	0
55182	7	Sololá	701	Sololá	1	Sololá	10	Octubre	2023-10-26T00:00:00	2024-11-08T04:00:00	7	Dirección del viento	0
55183	7	Sololá	701	Sololá	1	Sololá	10	Octubre	2023-10-26T00:00:00	2024-11-08T04:00:00	1	Precipitación	0
55184	7	Sololá	701	Sololá	1	Sololá	10	Octubre	2023-10-26T00:00:00	2024-11-08T04:00:00	8	Radiación solar	0
55185	7	Sololá	701	Sololá	1	Sololá	10	Octubre	2023-10-26T00:00:00	2024-11-08T05:00:00	2	Temperatura media	13.7
55186	7	Sololá	701	Sololá	1	Sololá	10	Octubre	2023-10-26T00:00:00	2024-11-08T05:00:00	4	Temperatura máxima	13.7
55187	7	Sololá	701	Sololá	1	Sololá	10	Octubre	2023-10-26T00:00:00	2024-11-08T05:00:00	3	Temperatura mínima	13.5
55188	7	Sololá	701	Sololá	1	Sololá	10	Octubre	2023-10-26T00:00:00	2024-11-08T05:00:00	5	Humedad	92
55189	7	Sololá	701	Sololá	1	Sololá	10	Octubre	2023-10-26T00:00:00	2024-11-08T05:00:00	6	Velocidad del viento	0
55190	7	Sololá	701	Sololá	1	Sololá	10	Octubre	2023-10-26T00:00:00	2024-11-08T05:00:00	7	Dirección del viento	0
55191	7	Sololá	701	Sololá	1	Sololá	10	Octubre	2023-10-26T00:00:00	2024-11-08T05:00:00	1	Precipitación	0
55192	7	Sololá	701	Sololá	1	Sololá	10	Octubre	2023-10-26T00:00:00	2024-11-08T05:00:00	8	Radiación solar	0
55193	7	Sololá	701	Sololá	1	Sololá	10	Octubre	2023-10-26T00:00:00	2024-11-08T06:00:00	2	Temperatura media	13.7
55194	7	Sololá	701	Sololá	1	Sololá	10	Octubre	2023-10-26T00:00:00	2024-11-08T06:00:00	4	Temperatura máxima	13.7
55195	7	Sololá	701	Sololá	1	Sololá	10	Octubre	2023-10-26T00:00:00	2024-11-08T06:00:00	3	Temperatura mínima	13.7
55196	7	Sololá	701	Sololá	1	Sololá	10	Octubre	2023-10-26T00:00:00	2024-11-08T06:00:00	5	Humedad	92
55197	7	Sololá	701	Sololá	1	Sololá	10	Octubre	2023-10-26T00:00:00	2024-11-08T06:00:00	6	Velocidad del viento	0
55198	7	Sololá	701	Sololá	1	Sololá	10	Octubre	2023-10-26T00:00:00	2024-11-08T06:00:00	7	Dirección del viento	0
55199	7	Sololá	701	Sololá	1	Sololá	10	Octubre	2023-10-26T00:00:00	2024-11-08T06:00:00	1	Precipitación	0
55200	7	Sololá	701	Sololá	1	Sololá	10	Octubre	2023-10-26T00:00:00	2024-11-08T06:00:00	8	Radiación solar	0
55201	7	Sololá	701	Sololá	1	Sololá	10	Octubre	2023-10-26T00:00:00	2024-11-08T07:00:00	2	Temperatura media	14.5
55202	7	Sololá	701	Sololá	1	Sololá	10	Octubre	2023-10-26T00:00:00	2024-11-08T07:00:00	4	Temperatura máxima	14.5
55203	7	Sololá	701	Sololá	1	Sololá	10	Octubre	2023-10-26T00:00:00	2024-11-08T07:00:00	3	Temperatura mínima	13.7
55204	7	Sololá	701	Sololá	1	Sololá	10	Octubre	2023-10-26T00:00:00	2024-11-08T07:00:00	5	Humedad	91
55205	7	Sololá	701	Sololá	1	Sololá	10	Octubre	2023-10-26T00:00:00	2024-11-08T07:00:00	6	Velocidad del viento	0
55206	7	Sololá	701	Sololá	1	Sololá	10	Octubre	2023-10-26T00:00:00	2024-11-08T07:00:00	7	Dirección del viento	0
55207	7	Sololá	701	Sololá	1	Sololá	10	Octubre	2023-10-26T00:00:00	2024-11-08T07:00:00	1	Precipitación	0
55208	7	Sololá	701	Sololá	1	Sololá	10	Octubre	2023-10-26T00:00:00	2024-11-08T07:00:00	8	Radiación solar	25
55209	7	Sololá	701	Sololá	1	Sololá	10	Octubre	2023-10-26T00:00:00	2024-11-08T08:00:00	2	Temperatura media	16.4
55210	7	Sololá	701	Sololá	1	Sololá	10	Octubre	2023-10-26T00:00:00	2024-11-08T08:00:00	4	Temperatura máxima	16.4
55211	7	Sololá	701	Sololá	1	Sololá	10	Octubre	2023-10-26T00:00:00	2024-11-08T08:00:00	3	Temperatura mínima	14.4
55212	7	Sololá	701	Sololá	1	Sololá	10	Octubre	2023-10-26T00:00:00	2024-11-08T08:00:00	5	Humedad	88
55213	7	Sololá	701	Sololá	1	Sololá	10	Octubre	2023-10-26T00:00:00	2024-11-08T08:00:00	6	Velocidad del viento	0
55214	7	Sololá	701	Sololá	1	Sololá	10	Octubre	2023-10-26T00:00:00	2024-11-08T08:00:00	7	Dirección del viento	0
55215	7	Sololá	701	Sololá	1	Sololá	10	Octubre	2023-10-26T00:00:00	2024-11-08T08:00:00	1	Precipitación	0
55216	7	Sololá	701	Sololá	1	Sololá	10	Octubre	2023-10-26T00:00:00	2024-11-08T08:00:00	8	Radiación solar	109
55217	7	Sololá	701	Sololá	1	Sololá	10	Octubre	2023-10-26T00:00:00	2024-11-08T09:00:00	2	Temperatura media	20.7
55218	7	Sololá	701	Sololá	1	Sololá	10	Octubre	2023-10-26T00:00:00	2024-11-08T09:00:00	4	Temperatura máxima	20.7
55219	7	Sololá	701	Sololá	1	Sololá	10	Octubre	2023-10-26T00:00:00	2024-11-08T09:00:00	3	Temperatura mínima	16.4
55220	7	Sololá	701	Sololá	1	Sololá	10	Octubre	2023-10-26T00:00:00	2024-11-08T09:00:00	5	Humedad	72
55221	7	Sololá	701	Sololá	1	Sololá	10	Octubre	2023-10-26T00:00:00	2024-11-08T09:00:00	6	Velocidad del viento	0
55222	7	Sololá	701	Sololá	1	Sololá	10	Octubre	2023-10-26T00:00:00	2024-11-08T09:00:00	7	Dirección del viento	0
55223	7	Sololá	701	Sololá	1	Sololá	10	Octubre	2023-10-26T00:00:00	2024-11-08T09:00:00	1	Precipitación	0
55224	7	Sololá	701	Sololá	1	Sololá	10	Octubre	2023-10-26T00:00:00	2024-11-08T09:00:00	8	Radiación solar	544
55225	7	Sololá	701	Sololá	1	Sololá	10	Octubre	2023-10-26T00:00:00	2024-11-08T10:00:00	2	Temperatura media	22.1
55226	7	Sololá	701	Sololá	1	Sololá	10	Octubre	2023-10-26T00:00:00	2024-11-08T10:00:00	4	Temperatura máxima	22.1
55227	7	Sololá	701	Sololá	1	Sololá	10	Octubre	2023-10-26T00:00:00	2024-11-08T10:00:00	3	Temperatura mínima	20.8
55228	7	Sololá	701	Sololá	1	Sololá	10	Octubre	2023-10-26T00:00:00	2024-11-08T10:00:00	5	Humedad	72
55229	7	Sololá	701	Sololá	1	Sololá	10	Octubre	2023-10-26T00:00:00	2024-11-08T10:00:00	6	Velocidad del viento	0
55230	7	Sololá	701	Sololá	1	Sololá	10	Octubre	2023-10-26T00:00:00	2024-11-08T10:00:00	7	Dirección del viento	0
55231	7	Sololá	701	Sololá	1	Sololá	10	Octubre	2023-10-26T00:00:00	2024-11-08T10:00:00	1	Precipitación	0
55232	7	Sololá	701	Sololá	1	Sololá	10	Octubre	2023-10-26T00:00:00	2024-11-08T10:00:00	8	Radiación solar	664
55233	7	Sololá	701	Sololá	1	Sololá	10	Octubre	2023-10-26T00:00:00	2024-11-08T11:00:00	2	Temperatura media	22.1
55234	7	Sololá	701	Sololá	1	Sololá	10	Octubre	2023-10-26T00:00:00	2024-11-08T11:00:00	4	Temperatura máxima	22.2
55235	7	Sololá	701	Sololá	1	Sololá	10	Octubre	2023-10-26T00:00:00	2024-11-08T11:00:00	3	Temperatura mínima	21.1
55236	7	Sololá	701	Sololá	1	Sololá	10	Octubre	2023-10-26T00:00:00	2024-11-08T11:00:00	5	Humedad	69
55237	7	Sololá	701	Sololá	1	Sololá	10	Octubre	2023-10-26T00:00:00	2024-11-08T11:00:00	6	Velocidad del viento	0
55238	7	Sololá	701	Sololá	1	Sololá	10	Octubre	2023-10-26T00:00:00	2024-11-08T11:00:00	7	Dirección del viento	0
55239	7	Sololá	701	Sololá	1	Sololá	10	Octubre	2023-10-26T00:00:00	2024-11-08T11:00:00	1	Precipitación	0
55240	7	Sololá	701	Sololá	1	Sololá	10	Octubre	2023-10-26T00:00:00	2024-11-08T11:00:00	8	Radiación solar	418
55241	7	Sololá	701	Sololá	1	Sololá	10	Octubre	2023-10-26T00:00:00	2024-11-08T12:00:00	2	Temperatura media	21
55242	7	Sololá	701	Sololá	1	Sololá	10	Octubre	2023-10-26T00:00:00	2024-11-08T12:00:00	4	Temperatura máxima	22.7
55243	7	Sololá	701	Sololá	1	Sololá	10	Octubre	2023-10-26T00:00:00	2024-11-08T12:00:00	3	Temperatura mínima	21
55244	7	Sololá	701	Sololá	1	Sololá	10	Octubre	2023-10-26T00:00:00	2024-11-08T12:00:00	5	Humedad	74
55245	7	Sololá	701	Sololá	1	Sololá	10	Octubre	2023-10-26T00:00:00	2024-11-08T12:00:00	6	Velocidad del viento	0
55246	7	Sololá	701	Sololá	1	Sololá	10	Octubre	2023-10-26T00:00:00	2024-11-08T12:00:00	7	Dirección del viento	0
55247	7	Sololá	701	Sololá	1	Sololá	10	Octubre	2023-10-26T00:00:00	2024-11-08T12:00:00	1	Precipitación	0
55248	7	Sololá	701	Sololá	1	Sololá	10	Octubre	2023-10-26T00:00:00	2024-11-08T12:00:00	8	Radiación solar	256
55249	7	Sololá	701	Sololá	1	Sololá	10	Octubre	2023-10-26T00:00:00	2024-11-08T13:00:00	2	Temperatura media	20.4
55250	7	Sololá	701	Sololá	1	Sololá	10	Octubre	2023-10-26T00:00:00	2024-11-08T13:00:00	4	Temperatura máxima	21
55251	7	Sololá	701	Sololá	1	Sololá	10	Octubre	2023-10-26T00:00:00	2024-11-08T13:00:00	3	Temperatura mínima	19.9
55252	7	Sololá	701	Sololá	1	Sololá	10	Octubre	2023-10-26T00:00:00	2024-11-08T13:00:00	5	Humedad	78
55253	7	Sololá	701	Sololá	1	Sololá	10	Octubre	2023-10-26T00:00:00	2024-11-08T13:00:00	6	Velocidad del viento	0
55254	7	Sololá	701	Sololá	1	Sololá	10	Octubre	2023-10-26T00:00:00	2024-11-08T13:00:00	7	Dirección del viento	0
55255	7	Sololá	701	Sololá	1	Sololá	10	Octubre	2023-10-26T00:00:00	2024-11-08T13:00:00	1	Precipitación	0
55256	7	Sololá	701	Sololá	1	Sololá	10	Octubre	2023-10-26T00:00:00	2024-11-08T13:00:00	8	Radiación solar	225
55257	7	Sololá	701	Sololá	1	Sololá	10	Octubre	2023-10-26T00:00:00	2024-11-08T14:00:00	2	Temperatura media	22.2
55258	7	Sololá	701	Sololá	1	Sololá	10	Octubre	2023-10-26T00:00:00	2024-11-08T14:00:00	4	Temperatura máxima	22.2
55259	7	Sololá	701	Sololá	1	Sololá	10	Octubre	2023-10-26T00:00:00	2024-11-08T14:00:00	3	Temperatura mínima	20.4
55260	7	Sololá	701	Sololá	1	Sololá	10	Octubre	2023-10-26T00:00:00	2024-11-08T14:00:00	5	Humedad	79
55261	7	Sololá	701	Sololá	1	Sololá	10	Octubre	2023-10-26T00:00:00	2024-11-08T14:00:00	6	Velocidad del viento	0
55262	7	Sololá	701	Sololá	1	Sololá	10	Octubre	2023-10-26T00:00:00	2024-11-08T14:00:00	7	Dirección del viento	0
55263	7	Sololá	701	Sololá	1	Sololá	10	Octubre	2023-10-26T00:00:00	2024-11-08T14:00:00	1	Precipitación	0
55264	7	Sololá	701	Sololá	1	Sololá	10	Octubre	2023-10-26T00:00:00	2024-11-08T14:00:00	8	Radiación solar	216
55265	7	Sololá	701	Sololá	1	Sololá	10	Octubre	2023-10-26T00:00:00	2024-11-08T15:00:00	2	Temperatura media	21.5
55266	7	Sololá	701	Sololá	1	Sololá	10	Octubre	2023-10-26T00:00:00	2024-11-08T15:00:00	4	Temperatura máxima	22.2
55267	7	Sololá	701	Sololá	1	Sololá	10	Octubre	2023-10-26T00:00:00	2024-11-08T15:00:00	3	Temperatura mínima	21.4
55268	7	Sololá	701	Sololá	1	Sololá	10	Octubre	2023-10-26T00:00:00	2024-11-08T15:00:00	5	Humedad	82
55269	7	Sololá	701	Sololá	1	Sololá	10	Octubre	2023-10-26T00:00:00	2024-11-08T15:00:00	6	Velocidad del viento	0
55270	7	Sololá	701	Sololá	1	Sololá	10	Octubre	2023-10-26T00:00:00	2024-11-08T15:00:00	7	Dirección del viento	0
55271	7	Sololá	701	Sololá	1	Sololá	10	Octubre	2023-10-26T00:00:00	2024-11-08T15:00:00	1	Precipitación	0
55272	7	Sololá	701	Sololá	1	Sololá	10	Octubre	2023-10-26T00:00:00	2024-11-08T15:00:00	8	Radiación solar	157
55273	7	Sololá	701	Sololá	1	Sololá	10	Octubre	2023-10-26T00:00:00	2024-11-08T16:00:00	2	Temperatura media	20.3
55274	7	Sololá	701	Sololá	1	Sololá	10	Octubre	2023-10-26T00:00:00	2024-11-08T16:00:00	4	Temperatura máxima	21.6
55275	7	Sololá	701	Sololá	1	Sololá	10	Octubre	2023-10-26T00:00:00	2024-11-08T16:00:00	3	Temperatura mínima	20.3
55276	7	Sololá	701	Sololá	1	Sololá	10	Octubre	2023-10-26T00:00:00	2024-11-08T16:00:00	5	Humedad	86
55277	7	Sololá	701	Sololá	1	Sololá	10	Octubre	2023-10-26T00:00:00	2024-11-08T16:00:00	6	Velocidad del viento	0
55278	7	Sololá	701	Sololá	1	Sololá	10	Octubre	2023-10-26T00:00:00	2024-11-08T16:00:00	7	Dirección del viento	0
55279	7	Sololá	701	Sololá	1	Sololá	10	Octubre	2023-10-26T00:00:00	2024-11-08T16:00:00	1	Precipitación	0
55280	7	Sololá	701	Sololá	1	Sololá	10	Octubre	2023-10-26T00:00:00	2024-11-08T16:00:00	8	Radiación solar	102
55281	7	Sololá	701	Sololá	1	Sololá	10	Octubre	2023-10-26T00:00:00	2024-11-08T17:00:00	2	Temperatura media	18.7
55282	7	Sololá	701	Sololá	1	Sololá	10	Octubre	2023-10-26T00:00:00	2024-11-08T17:00:00	4	Temperatura máxima	20.3
55283	7	Sololá	701	Sololá	1	Sololá	10	Octubre	2023-10-26T00:00:00	2024-11-08T17:00:00	3	Temperatura mínima	18.7
55284	7	Sololá	701	Sololá	1	Sololá	10	Octubre	2023-10-26T00:00:00	2024-11-08T17:00:00	5	Humedad	90
55285	7	Sololá	701	Sololá	1	Sololá	10	Octubre	2023-10-26T00:00:00	2024-11-08T17:00:00	6	Velocidad del viento	0
55286	7	Sololá	701	Sololá	1	Sololá	10	Octubre	2023-10-26T00:00:00	2024-11-08T17:00:00	7	Dirección del viento	0
55287	7	Sololá	701	Sololá	1	Sololá	10	Octubre	2023-10-26T00:00:00	2024-11-08T17:00:00	1	Precipitación	0
55288	7	Sololá	701	Sololá	1	Sololá	10	Octubre	2023-10-26T00:00:00	2024-11-08T17:00:00	8	Radiación solar	62
55289	7	Sololá	701	Sololá	1	Sololá	10	Octubre	2023-10-26T00:00:00	2024-11-08T18:00:00	2	Temperatura media	17.4
55290	7	Sololá	701	Sololá	1	Sololá	10	Octubre	2023-10-26T00:00:00	2024-11-08T18:00:00	4	Temperatura máxima	18.7
55291	7	Sololá	701	Sololá	1	Sololá	10	Octubre	2023-10-26T00:00:00	2024-11-08T18:00:00	3	Temperatura mínima	17.4
55292	7	Sololá	701	Sololá	1	Sololá	10	Octubre	2023-10-26T00:00:00	2024-11-08T18:00:00	5	Humedad	86
55293	7	Sololá	701	Sololá	1	Sololá	10	Octubre	2023-10-26T00:00:00	2024-11-08T18:00:00	6	Velocidad del viento	0
55294	7	Sololá	701	Sololá	1	Sololá	10	Octubre	2023-10-26T00:00:00	2024-11-08T18:00:00	7	Dirección del viento	0
55295	7	Sololá	701	Sololá	1	Sololá	10	Octubre	2023-10-26T00:00:00	2024-11-08T18:00:00	1	Precipitación	0
55296	7	Sololá	701	Sololá	1	Sololá	10	Octubre	2023-10-26T00:00:00	2024-11-08T18:00:00	8	Radiación solar	1
55297	7	Sololá	701	Sololá	1	Sololá	10	Octubre	2023-10-26T00:00:00	2024-11-08T19:00:00	2	Temperatura media	16.1
55298	7	Sololá	701	Sololá	1	Sololá	10	Octubre	2023-10-26T00:00:00	2024-11-08T19:00:00	4	Temperatura máxima	17.4
55299	7	Sololá	701	Sololá	1	Sololá	10	Octubre	2023-10-26T00:00:00	2024-11-08T19:00:00	3	Temperatura mínima	16
55300	7	Sololá	701	Sololá	1	Sololá	10	Octubre	2023-10-26T00:00:00	2024-11-08T19:00:00	5	Humedad	88
55301	7	Sololá	701	Sololá	1	Sololá	10	Octubre	2023-10-26T00:00:00	2024-11-08T19:00:00	6	Velocidad del viento	0
55302	7	Sololá	701	Sololá	1	Sololá	10	Octubre	2023-10-26T00:00:00	2024-11-08T19:00:00	7	Dirección del viento	0
55303	7	Sololá	701	Sololá	1	Sololá	10	Octubre	2023-10-26T00:00:00	2024-11-08T19:00:00	1	Precipitación	0
55304	7	Sololá	701	Sololá	1	Sololá	10	Octubre	2023-10-26T00:00:00	2024-11-08T19:00:00	8	Radiación solar	0
55305	7	Sololá	701	Sololá	1	Sololá	10	Octubre	2023-10-26T00:00:00	2024-11-08T20:00:00	2	Temperatura media	15.7
55306	7	Sololá	701	Sololá	1	Sololá	10	Octubre	2023-10-26T00:00:00	2024-11-08T20:00:00	4	Temperatura máxima	16.1
55307	7	Sololá	701	Sololá	1	Sololá	10	Octubre	2023-10-26T00:00:00	2024-11-08T20:00:00	3	Temperatura mínima	15.6
55308	7	Sololá	701	Sololá	1	Sololá	10	Octubre	2023-10-26T00:00:00	2024-11-08T20:00:00	5	Humedad	89
55309	7	Sololá	701	Sololá	1	Sololá	10	Octubre	2023-10-26T00:00:00	2024-11-08T20:00:00	6	Velocidad del viento	0
55310	7	Sololá	701	Sololá	1	Sololá	10	Octubre	2023-10-26T00:00:00	2024-11-08T20:00:00	7	Dirección del viento	0
55311	7	Sololá	701	Sololá	1	Sololá	10	Octubre	2023-10-26T00:00:00	2024-11-08T20:00:00	1	Precipitación	0
55312	7	Sololá	701	Sololá	1	Sololá	10	Octubre	2023-10-26T00:00:00	2024-11-08T20:00:00	8	Radiación solar	0
55313	7	Sololá	701	Sololá	1	Sololá	10	Octubre	2023-10-26T00:00:00	2024-11-08T21:00:00	2	Temperatura media	15.3
55314	7	Sololá	701	Sololá	1	Sololá	10	Octubre	2023-10-26T00:00:00	2024-11-08T21:00:00	4	Temperatura máxima	15.8
55315	7	Sololá	701	Sololá	1	Sololá	10	Octubre	2023-10-26T00:00:00	2024-11-08T21:00:00	3	Temperatura mínima	15.3
55316	7	Sololá	701	Sololá	1	Sololá	10	Octubre	2023-10-26T00:00:00	2024-11-08T21:00:00	5	Humedad	91
55317	7	Sololá	701	Sololá	1	Sololá	10	Octubre	2023-10-26T00:00:00	2024-11-08T21:00:00	6	Velocidad del viento	0
55318	7	Sololá	701	Sololá	1	Sololá	10	Octubre	2023-10-26T00:00:00	2024-11-08T21:00:00	7	Dirección del viento	0
55319	7	Sololá	701	Sololá	1	Sololá	10	Octubre	2023-10-26T00:00:00	2024-11-08T21:00:00	1	Precipitación	0
55320	7	Sololá	701	Sololá	1	Sololá	10	Octubre	2023-10-26T00:00:00	2024-11-08T21:00:00	8	Radiación solar	0
55321	7	Sololá	701	Sololá	1	Sololá	10	Octubre	2023-10-26T00:00:00	2024-11-08T22:00:00	2	Temperatura media	15.5
55322	7	Sololá	701	Sololá	1	Sololá	10	Octubre	2023-10-26T00:00:00	2024-11-08T22:00:00	4	Temperatura máxima	15.5
55323	7	Sololá	701	Sololá	1	Sololá	10	Octubre	2023-10-26T00:00:00	2024-11-08T22:00:00	3	Temperatura mínima	15.1
55324	7	Sololá	701	Sololá	1	Sololá	10	Octubre	2023-10-26T00:00:00	2024-11-08T22:00:00	5	Humedad	90
55325	7	Sololá	701	Sololá	1	Sololá	10	Octubre	2023-10-26T00:00:00	2024-11-08T22:00:00	6	Velocidad del viento	0
55326	7	Sololá	701	Sololá	1	Sololá	10	Octubre	2023-10-26T00:00:00	2024-11-08T22:00:00	7	Dirección del viento	0
55327	7	Sololá	701	Sololá	1	Sololá	10	Octubre	2023-10-26T00:00:00	2024-11-08T22:00:00	1	Precipitación	0
55328	7	Sololá	701	Sololá	1	Sololá	10	Octubre	2023-10-26T00:00:00	2024-11-08T22:00:00	8	Radiación solar	0
55329	7	Sololá	701	Sololá	1	Sololá	10	Octubre	2023-10-26T00:00:00	2024-11-08T23:00:00	2	Temperatura media	15.6
55330	7	Sololá	701	Sololá	1	Sololá	10	Octubre	2023-10-26T00:00:00	2024-11-08T23:00:00	4	Temperatura máxima	15.7
55331	7	Sololá	701	Sololá	1	Sololá	10	Octubre	2023-10-26T00:00:00	2024-11-08T23:00:00	3	Temperatura mínima	15.5
55332	7	Sololá	701	Sololá	1	Sololá	10	Octubre	2023-10-26T00:00:00	2024-11-08T23:00:00	5	Humedad	90
55333	7	Sololá	701	Sololá	1	Sololá	10	Octubre	2023-10-26T00:00:00	2024-11-08T23:00:00	6	Velocidad del viento	0
55334	7	Sololá	701	Sololá	1	Sololá	10	Octubre	2023-10-26T00:00:00	2024-11-08T23:00:00	7	Dirección del viento	0
55335	7	Sololá	701	Sololá	1	Sololá	10	Octubre	2023-10-26T00:00:00	2024-11-08T23:00:00	1	Precipitación	0
55336	7	Sololá	701	Sololá	1	Sololá	10	Octubre	2023-10-26T00:00:00	2024-11-08T23:00:00	8	Radiación solar	0
55337	7	Sololá	701	Sololá	1	Sololá	10	Octubre	2023-10-27T00:00:00	2024-11-08T00:00:00	2	Temperatura media	15.4
55338	7	Sololá	701	Sololá	1	Sololá	10	Octubre	2023-10-27T00:00:00	2024-11-08T00:00:00	4	Temperatura máxima	15.6
55339	7	Sololá	701	Sololá	1	Sololá	10	Octubre	2023-10-27T00:00:00	2024-11-08T00:00:00	3	Temperatura mínima	15.3
55340	7	Sololá	701	Sololá	1	Sololá	10	Octubre	2023-10-27T00:00:00	2024-11-08T00:00:00	5	Humedad	90
55341	7	Sololá	701	Sololá	1	Sololá	10	Octubre	2023-10-27T00:00:00	2024-11-08T00:00:00	6	Velocidad del viento	0
55342	7	Sololá	701	Sololá	1	Sololá	10	Octubre	2023-10-27T00:00:00	2024-11-08T00:00:00	7	Dirección del viento	0
55343	7	Sololá	701	Sololá	1	Sololá	10	Octubre	2023-10-27T00:00:00	2024-11-08T00:00:00	1	Precipitación	0
55344	7	Sololá	701	Sololá	1	Sololá	10	Octubre	2023-10-27T00:00:00	2024-11-08T00:00:00	8	Radiación solar	0
55345	7	Sololá	701	Sololá	1	Sololá	10	Octubre	2023-10-27T00:00:00	2024-11-08T01:00:00	2	Temperatura media	15.7
55346	7	Sololá	701	Sololá	1	Sololá	10	Octubre	2023-10-27T00:00:00	2024-11-08T01:00:00	4	Temperatura máxima	15.7
55347	7	Sololá	701	Sololá	1	Sololá	10	Octubre	2023-10-27T00:00:00	2024-11-08T01:00:00	3	Temperatura mínima	15.3
55348	7	Sololá	701	Sololá	1	Sololá	10	Octubre	2023-10-27T00:00:00	2024-11-08T01:00:00	5	Humedad	89
55349	7	Sololá	701	Sololá	1	Sololá	10	Octubre	2023-10-27T00:00:00	2024-11-08T01:00:00	6	Velocidad del viento	0
55350	7	Sololá	701	Sololá	1	Sololá	10	Octubre	2023-10-27T00:00:00	2024-11-08T01:00:00	7	Dirección del viento	0
55351	7	Sololá	701	Sololá	1	Sololá	10	Octubre	2023-10-27T00:00:00	2024-11-08T01:00:00	1	Precipitación	0
55352	7	Sololá	701	Sololá	1	Sololá	10	Octubre	2023-10-27T00:00:00	2024-11-08T01:00:00	8	Radiación solar	0
55353	7	Sololá	701	Sololá	1	Sololá	10	Octubre	2023-10-27T00:00:00	2024-11-08T02:00:00	2	Temperatura media	15.4
55354	7	Sololá	701	Sololá	1	Sololá	10	Octubre	2023-10-27T00:00:00	2024-11-08T02:00:00	4	Temperatura máxima	15.7
55355	7	Sololá	701	Sololá	1	Sololá	10	Octubre	2023-10-27T00:00:00	2024-11-08T02:00:00	3	Temperatura mínima	15.4
55356	7	Sololá	701	Sololá	1	Sololá	10	Octubre	2023-10-27T00:00:00	2024-11-08T02:00:00	5	Humedad	89
55357	7	Sololá	701	Sololá	1	Sololá	10	Octubre	2023-10-27T00:00:00	2024-11-08T02:00:00	6	Velocidad del viento	0
55358	7	Sololá	701	Sololá	1	Sololá	10	Octubre	2023-10-27T00:00:00	2024-11-08T02:00:00	7	Dirección del viento	0
55359	7	Sololá	701	Sololá	1	Sololá	10	Octubre	2023-10-27T00:00:00	2024-11-08T02:00:00	1	Precipitación	0
55360	7	Sololá	701	Sololá	1	Sololá	10	Octubre	2023-10-27T00:00:00	2024-11-08T02:00:00	8	Radiación solar	0
55361	7	Sololá	701	Sololá	1	Sololá	10	Octubre	2023-10-27T00:00:00	2024-11-08T03:00:00	2	Temperatura media	15.1
55362	7	Sololá	701	Sololá	1	Sololá	10	Octubre	2023-10-27T00:00:00	2024-11-08T03:00:00	4	Temperatura máxima	15.4
55363	7	Sololá	701	Sololá	1	Sololá	10	Octubre	2023-10-27T00:00:00	2024-11-08T03:00:00	3	Temperatura mínima	15.1
55364	7	Sololá	701	Sololá	1	Sololá	10	Octubre	2023-10-27T00:00:00	2024-11-08T03:00:00	5	Humedad	90
55365	7	Sololá	701	Sololá	1	Sololá	10	Octubre	2023-10-27T00:00:00	2024-11-08T03:00:00	6	Velocidad del viento	0
55366	7	Sololá	701	Sololá	1	Sololá	10	Octubre	2023-10-27T00:00:00	2024-11-08T03:00:00	7	Dirección del viento	0
55367	7	Sololá	701	Sololá	1	Sololá	10	Octubre	2023-10-27T00:00:00	2024-11-08T03:00:00	1	Precipitación	0
55368	7	Sololá	701	Sololá	1	Sololá	10	Octubre	2023-10-27T00:00:00	2024-11-08T03:00:00	8	Radiación solar	0
55369	7	Sololá	701	Sololá	1	Sololá	10	Octubre	2023-10-27T00:00:00	2024-11-08T04:00:00	2	Temperatura media	14.8
55370	7	Sololá	701	Sololá	1	Sololá	10	Octubre	2023-10-27T00:00:00	2024-11-08T04:00:00	4	Temperatura máxima	15.1
55371	7	Sololá	701	Sololá	1	Sololá	10	Octubre	2023-10-27T00:00:00	2024-11-08T04:00:00	3	Temperatura mínima	14.8
55372	7	Sololá	701	Sololá	1	Sololá	10	Octubre	2023-10-27T00:00:00	2024-11-08T04:00:00	5	Humedad	89
55373	7	Sololá	701	Sololá	1	Sololá	10	Octubre	2023-10-27T00:00:00	2024-11-08T04:00:00	6	Velocidad del viento	0
55374	7	Sololá	701	Sololá	1	Sololá	10	Octubre	2023-10-27T00:00:00	2024-11-08T04:00:00	7	Dirección del viento	0
55375	7	Sololá	701	Sololá	1	Sololá	10	Octubre	2023-10-27T00:00:00	2024-11-08T04:00:00	1	Precipitación	0
55376	7	Sololá	701	Sololá	1	Sololá	10	Octubre	2023-10-27T00:00:00	2024-11-08T04:00:00	8	Radiación solar	0
55377	7	Sololá	701	Sololá	1	Sololá	10	Octubre	2023-10-27T00:00:00	2024-11-08T05:00:00	2	Temperatura media	14.6
55378	7	Sololá	701	Sololá	1	Sololá	10	Octubre	2023-10-27T00:00:00	2024-11-08T05:00:00	4	Temperatura máxima	14.8
55379	7	Sololá	701	Sololá	1	Sololá	10	Octubre	2023-10-27T00:00:00	2024-11-08T05:00:00	3	Temperatura mínima	14.6
55380	7	Sololá	701	Sololá	1	Sololá	10	Octubre	2023-10-27T00:00:00	2024-11-08T05:00:00	5	Humedad	90
55381	7	Sololá	701	Sololá	1	Sololá	10	Octubre	2023-10-27T00:00:00	2024-11-08T05:00:00	6	Velocidad del viento	0
55382	7	Sololá	701	Sololá	1	Sololá	10	Octubre	2023-10-27T00:00:00	2024-11-08T05:00:00	7	Dirección del viento	0
55383	7	Sololá	701	Sololá	1	Sololá	10	Octubre	2023-10-27T00:00:00	2024-11-08T05:00:00	1	Precipitación	0
55384	7	Sololá	701	Sololá	1	Sololá	10	Octubre	2023-10-27T00:00:00	2024-11-08T05:00:00	8	Radiación solar	0
55385	7	Sololá	701	Sololá	1	Sololá	10	Octubre	2023-10-27T00:00:00	2024-11-08T06:00:00	2	Temperatura media	14.3
55386	7	Sololá	701	Sololá	1	Sololá	10	Octubre	2023-10-27T00:00:00	2024-11-08T06:00:00	4	Temperatura máxima	14.7
55387	7	Sololá	701	Sololá	1	Sololá	10	Octubre	2023-10-27T00:00:00	2024-11-08T06:00:00	3	Temperatura mínima	14.3
55388	7	Sololá	701	Sololá	1	Sololá	10	Octubre	2023-10-27T00:00:00	2024-11-08T06:00:00	5	Humedad	90
55389	7	Sololá	701	Sololá	1	Sololá	10	Octubre	2023-10-27T00:00:00	2024-11-08T06:00:00	6	Velocidad del viento	0
55390	7	Sololá	701	Sololá	1	Sololá	10	Octubre	2023-10-27T00:00:00	2024-11-08T06:00:00	7	Dirección del viento	0
55391	7	Sololá	701	Sololá	1	Sololá	10	Octubre	2023-10-27T00:00:00	2024-11-08T06:00:00	1	Precipitación	0
55392	7	Sololá	701	Sololá	1	Sololá	10	Octubre	2023-10-27T00:00:00	2024-11-08T06:00:00	8	Radiación solar	0
55393	7	Sololá	701	Sololá	1	Sololá	10	Octubre	2023-10-27T00:00:00	2024-11-08T07:00:00	2	Temperatura media	15.3
55394	7	Sololá	701	Sololá	1	Sololá	10	Octubre	2023-10-27T00:00:00	2024-11-08T07:00:00	4	Temperatura máxima	15.3
55395	7	Sololá	701	Sololá	1	Sololá	10	Octubre	2023-10-27T00:00:00	2024-11-08T07:00:00	3	Temperatura mínima	14.3
55396	7	Sololá	701	Sololá	1	Sololá	10	Octubre	2023-10-27T00:00:00	2024-11-08T07:00:00	5	Humedad	91
55397	7	Sololá	701	Sololá	1	Sololá	10	Octubre	2023-10-27T00:00:00	2024-11-08T07:00:00	6	Velocidad del viento	0
55398	7	Sololá	701	Sololá	1	Sololá	10	Octubre	2023-10-27T00:00:00	2024-11-08T07:00:00	7	Dirección del viento	0
55399	7	Sololá	701	Sololá	1	Sololá	10	Octubre	2023-10-27T00:00:00	2024-11-08T07:00:00	1	Precipitación	0
55400	7	Sololá	701	Sololá	1	Sololá	10	Octubre	2023-10-27T00:00:00	2024-11-08T07:00:00	8	Radiación solar	34
55401	7	Sololá	701	Sololá	1	Sololá	10	Octubre	2023-10-27T00:00:00	2024-11-08T08:00:00	2	Temperatura media	17.7
55402	7	Sololá	701	Sololá	1	Sololá	10	Octubre	2023-10-27T00:00:00	2024-11-08T08:00:00	4	Temperatura máxima	17.7
55403	7	Sololá	701	Sololá	1	Sololá	10	Octubre	2023-10-27T00:00:00	2024-11-08T08:00:00	3	Temperatura mínima	15.3
55404	7	Sololá	701	Sololá	1	Sololá	10	Octubre	2023-10-27T00:00:00	2024-11-08T08:00:00	5	Humedad	85
55405	7	Sololá	701	Sololá	1	Sololá	10	Octubre	2023-10-27T00:00:00	2024-11-08T08:00:00	6	Velocidad del viento	0
55406	7	Sololá	701	Sololá	1	Sololá	10	Octubre	2023-10-27T00:00:00	2024-11-08T08:00:00	7	Dirección del viento	0
55407	7	Sololá	701	Sololá	1	Sololá	10	Octubre	2023-10-27T00:00:00	2024-11-08T08:00:00	1	Precipitación	0
55408	7	Sololá	701	Sololá	1	Sololá	10	Octubre	2023-10-27T00:00:00	2024-11-08T08:00:00	8	Radiación solar	129
55409	7	Sololá	701	Sololá	1	Sololá	10	Octubre	2023-10-27T00:00:00	2024-11-08T09:00:00	2	Temperatura media	20.7
55410	7	Sololá	701	Sololá	1	Sololá	10	Octubre	2023-10-27T00:00:00	2024-11-08T09:00:00	4	Temperatura máxima	20.8
55411	7	Sololá	701	Sololá	1	Sololá	10	Octubre	2023-10-27T00:00:00	2024-11-08T09:00:00	3	Temperatura mínima	17.7
55412	7	Sololá	701	Sololá	1	Sololá	10	Octubre	2023-10-27T00:00:00	2024-11-08T09:00:00	5	Humedad	79
55413	7	Sololá	701	Sololá	1	Sololá	10	Octubre	2023-10-27T00:00:00	2024-11-08T09:00:00	6	Velocidad del viento	0
55414	7	Sololá	701	Sololá	1	Sololá	10	Octubre	2023-10-27T00:00:00	2024-11-08T09:00:00	7	Dirección del viento	0
55415	7	Sololá	701	Sololá	1	Sololá	10	Octubre	2023-10-27T00:00:00	2024-11-08T09:00:00	1	Precipitación	0
55416	7	Sololá	701	Sololá	1	Sololá	10	Octubre	2023-10-27T00:00:00	2024-11-08T09:00:00	8	Radiación solar	391
55417	7	Sololá	701	Sololá	1	Sololá	10	Octubre	2023-10-27T00:00:00	2024-11-08T10:00:00	2	Temperatura media	20.6
55418	7	Sololá	701	Sololá	1	Sololá	10	Octubre	2023-10-27T00:00:00	2024-11-08T10:00:00	4	Temperatura máxima	20.8
55419	7	Sololá	701	Sololá	1	Sololá	10	Octubre	2023-10-27T00:00:00	2024-11-08T10:00:00	3	Temperatura mínima	19.9
55420	7	Sololá	701	Sololá	1	Sololá	10	Octubre	2023-10-27T00:00:00	2024-11-08T10:00:00	5	Humedad	75
55421	7	Sololá	701	Sololá	1	Sololá	10	Octubre	2023-10-27T00:00:00	2024-11-08T10:00:00	6	Velocidad del viento	0
55422	7	Sololá	701	Sololá	1	Sololá	10	Octubre	2023-10-27T00:00:00	2024-11-08T10:00:00	7	Dirección del viento	0
55423	7	Sololá	701	Sololá	1	Sololá	10	Octubre	2023-10-27T00:00:00	2024-11-08T10:00:00	1	Precipitación	0
55424	7	Sololá	701	Sololá	1	Sololá	10	Octubre	2023-10-27T00:00:00	2024-11-08T10:00:00	8	Radiación solar	318
55425	7	Sololá	701	Sololá	1	Sololá	10	Octubre	2023-10-27T00:00:00	2024-11-08T11:00:00	2	Temperatura media	20.7
55426	7	Sololá	701	Sololá	1	Sololá	10	Octubre	2023-10-27T00:00:00	2024-11-08T11:00:00	4	Temperatura máxima	20.7
55427	7	Sololá	701	Sololá	1	Sololá	10	Octubre	2023-10-27T00:00:00	2024-11-08T11:00:00	3	Temperatura mínima	19.5
55428	7	Sololá	701	Sololá	1	Sololá	10	Octubre	2023-10-27T00:00:00	2024-11-08T11:00:00	5	Humedad	72
55429	7	Sololá	701	Sololá	1	Sololá	10	Octubre	2023-10-27T00:00:00	2024-11-08T11:00:00	6	Velocidad del viento	0
55430	7	Sololá	701	Sololá	1	Sololá	10	Octubre	2023-10-27T00:00:00	2024-11-08T11:00:00	7	Dirección del viento	0
55431	7	Sololá	701	Sololá	1	Sololá	10	Octubre	2023-10-27T00:00:00	2024-11-08T11:00:00	1	Precipitación	0
55432	7	Sololá	701	Sololá	1	Sololá	10	Octubre	2023-10-27T00:00:00	2024-11-08T11:00:00	8	Radiación solar	319
55433	7	Sololá	701	Sololá	1	Sololá	10	Octubre	2023-10-27T00:00:00	2024-11-08T12:00:00	2	Temperatura media	21.2
55434	7	Sololá	701	Sololá	1	Sololá	10	Octubre	2023-10-27T00:00:00	2024-11-08T12:00:00	4	Temperatura máxima	21.2
55435	7	Sololá	701	Sololá	1	Sololá	10	Octubre	2023-10-27T00:00:00	2024-11-08T12:00:00	3	Temperatura mínima	20.7
55436	7	Sololá	701	Sololá	1	Sololá	10	Octubre	2023-10-27T00:00:00	2024-11-08T12:00:00	5	Humedad	72
55437	7	Sololá	701	Sololá	1	Sololá	10	Octubre	2023-10-27T00:00:00	2024-11-08T12:00:00	6	Velocidad del viento	0
55438	7	Sololá	701	Sololá	1	Sololá	10	Octubre	2023-10-27T00:00:00	2024-11-08T12:00:00	7	Dirección del viento	0
55439	7	Sololá	701	Sololá	1	Sololá	10	Octubre	2023-10-27T00:00:00	2024-11-08T12:00:00	1	Precipitación	0
55440	7	Sololá	701	Sololá	1	Sololá	10	Octubre	2023-10-27T00:00:00	2024-11-08T12:00:00	8	Radiación solar	351
55441	7	Sololá	701	Sololá	1	Sololá	10	Octubre	2023-10-27T00:00:00	2024-11-08T13:00:00	2	Temperatura media	21
55442	7	Sololá	701	Sololá	1	Sololá	10	Octubre	2023-10-27T00:00:00	2024-11-08T13:00:00	4	Temperatura máxima	21.3
55443	7	Sololá	701	Sololá	1	Sololá	10	Octubre	2023-10-27T00:00:00	2024-11-08T13:00:00	3	Temperatura mínima	20.4
55444	7	Sololá	701	Sololá	1	Sololá	10	Octubre	2023-10-27T00:00:00	2024-11-08T13:00:00	5	Humedad	74
55445	7	Sololá	701	Sololá	1	Sololá	10	Octubre	2023-10-27T00:00:00	2024-11-08T13:00:00	6	Velocidad del viento	0
55446	7	Sololá	701	Sololá	1	Sololá	10	Octubre	2023-10-27T00:00:00	2024-11-08T13:00:00	7	Dirección del viento	0
55447	7	Sololá	701	Sololá	1	Sololá	10	Octubre	2023-10-27T00:00:00	2024-11-08T13:00:00	1	Precipitación	0
55448	7	Sololá	701	Sololá	1	Sololá	10	Octubre	2023-10-27T00:00:00	2024-11-08T13:00:00	8	Radiación solar	235
55449	7	Sololá	701	Sololá	1	Sololá	10	Octubre	2023-10-27T00:00:00	2024-11-08T14:00:00	2	Temperatura media	17.9
55450	7	Sololá	701	Sololá	1	Sololá	10	Octubre	2023-10-27T00:00:00	2024-11-08T14:00:00	4	Temperatura máxima	21
55451	7	Sololá	701	Sololá	1	Sololá	10	Octubre	2023-10-27T00:00:00	2024-11-08T14:00:00	3	Temperatura mínima	17.9
55452	7	Sololá	701	Sololá	1	Sololá	10	Octubre	2023-10-27T00:00:00	2024-11-08T14:00:00	5	Humedad	83
55453	7	Sololá	701	Sololá	1	Sololá	10	Octubre	2023-10-27T00:00:00	2024-11-08T14:00:00	6	Velocidad del viento	0
55454	7	Sololá	701	Sololá	1	Sololá	10	Octubre	2023-10-27T00:00:00	2024-11-08T14:00:00	7	Dirección del viento	0
55455	7	Sololá	701	Sololá	1	Sololá	10	Octubre	2023-10-27T00:00:00	2024-11-08T14:00:00	1	Precipitación	0.2
55456	7	Sololá	701	Sololá	1	Sololá	10	Octubre	2023-10-27T00:00:00	2024-11-08T14:00:00	8	Radiación solar	137
55457	7	Sololá	701	Sololá	1	Sololá	10	Octubre	2023-10-27T00:00:00	2024-11-08T15:00:00	2	Temperatura media	18.4
55458	7	Sololá	701	Sololá	1	Sololá	10	Octubre	2023-10-27T00:00:00	2024-11-08T15:00:00	4	Temperatura máxima	18.4
55459	7	Sololá	701	Sololá	1	Sololá	10	Octubre	2023-10-27T00:00:00	2024-11-08T15:00:00	3	Temperatura mínima	17.4
55460	7	Sololá	701	Sololá	1	Sololá	10	Octubre	2023-10-27T00:00:00	2024-11-08T15:00:00	5	Humedad	84
55461	7	Sololá	701	Sololá	1	Sololá	10	Octubre	2023-10-27T00:00:00	2024-11-08T15:00:00	6	Velocidad del viento	0
55462	7	Sololá	701	Sololá	1	Sololá	10	Octubre	2023-10-27T00:00:00	2024-11-08T15:00:00	7	Dirección del viento	0
55463	7	Sololá	701	Sololá	1	Sololá	10	Octubre	2023-10-27T00:00:00	2024-11-08T15:00:00	1	Precipitación	0
55464	7	Sololá	701	Sololá	1	Sololá	10	Octubre	2023-10-27T00:00:00	2024-11-08T15:00:00	8	Radiación solar	147
55465	7	Sololá	701	Sololá	1	Sololá	10	Octubre	2023-10-27T00:00:00	2024-11-08T16:00:00	2	Temperatura media	18.2
55466	7	Sololá	701	Sololá	1	Sololá	10	Octubre	2023-10-27T00:00:00	2024-11-08T16:00:00	4	Temperatura máxima	18.9
55467	7	Sololá	701	Sololá	1	Sololá	10	Octubre	2023-10-27T00:00:00	2024-11-08T16:00:00	3	Temperatura mínima	18.2
55468	7	Sololá	701	Sololá	1	Sololá	10	Octubre	2023-10-27T00:00:00	2024-11-08T16:00:00	5	Humedad	79
55469	7	Sololá	701	Sololá	1	Sololá	10	Octubre	2023-10-27T00:00:00	2024-11-08T16:00:00	6	Velocidad del viento	0
55470	7	Sololá	701	Sololá	1	Sololá	10	Octubre	2023-10-27T00:00:00	2024-11-08T16:00:00	7	Dirección del viento	0
55471	7	Sololá	701	Sololá	1	Sololá	10	Octubre	2023-10-27T00:00:00	2024-11-08T16:00:00	1	Precipitación	0
55472	7	Sololá	701	Sololá	1	Sololá	10	Octubre	2023-10-27T00:00:00	2024-11-08T16:00:00	8	Radiación solar	74
55473	7	Sololá	701	Sololá	1	Sololá	10	Octubre	2023-10-27T00:00:00	2024-11-08T17:00:00	2	Temperatura media	17.7
55474	7	Sololá	701	Sololá	1	Sololá	10	Octubre	2023-10-27T00:00:00	2024-11-08T17:00:00	4	Temperatura máxima	18.4
55475	7	Sololá	701	Sololá	1	Sololá	10	Octubre	2023-10-27T00:00:00	2024-11-08T17:00:00	3	Temperatura mínima	17.7
55476	7	Sololá	701	Sololá	1	Sololá	10	Octubre	2023-10-27T00:00:00	2024-11-08T17:00:00	5	Humedad	82
55477	7	Sololá	701	Sololá	1	Sololá	10	Octubre	2023-10-27T00:00:00	2024-11-08T17:00:00	6	Velocidad del viento	0
55478	7	Sololá	701	Sololá	1	Sololá	10	Octubre	2023-10-27T00:00:00	2024-11-08T17:00:00	7	Dirección del viento	0
55479	7	Sololá	701	Sololá	1	Sololá	10	Octubre	2023-10-27T00:00:00	2024-11-08T17:00:00	1	Precipitación	0
55480	7	Sololá	701	Sololá	1	Sololá	10	Octubre	2023-10-27T00:00:00	2024-11-08T17:00:00	8	Radiación solar	51
55481	7	Sololá	701	Sololá	1	Sololá	10	Octubre	2023-10-27T00:00:00	2024-11-08T18:00:00	2	Temperatura media	15.9
55482	7	Sololá	701	Sololá	1	Sololá	10	Octubre	2023-10-27T00:00:00	2024-11-08T18:00:00	4	Temperatura máxima	17.7
55483	7	Sololá	701	Sololá	1	Sololá	10	Octubre	2023-10-27T00:00:00	2024-11-08T18:00:00	3	Temperatura mínima	15.9
55484	7	Sololá	701	Sololá	1	Sololá	10	Octubre	2023-10-27T00:00:00	2024-11-08T18:00:00	5	Humedad	90
55485	7	Sololá	701	Sololá	1	Sololá	10	Octubre	2023-10-27T00:00:00	2024-11-08T18:00:00	6	Velocidad del viento	0
55486	7	Sololá	701	Sololá	1	Sololá	10	Octubre	2023-10-27T00:00:00	2024-11-08T18:00:00	7	Dirección del viento	0
55487	7	Sololá	701	Sololá	1	Sololá	10	Octubre	2023-10-27T00:00:00	2024-11-08T18:00:00	1	Precipitación	0.2
55488	7	Sololá	701	Sololá	1	Sololá	10	Octubre	2023-10-27T00:00:00	2024-11-08T18:00:00	8	Radiación solar	1
55489	7	Sololá	701	Sololá	1	Sololá	10	Octubre	2023-10-27T00:00:00	2024-11-08T19:00:00	2	Temperatura media	15.6
55490	7	Sololá	701	Sololá	1	Sololá	10	Octubre	2023-10-27T00:00:00	2024-11-08T19:00:00	4	Temperatura máxima	16
55491	7	Sololá	701	Sololá	1	Sololá	10	Octubre	2023-10-27T00:00:00	2024-11-08T19:00:00	3	Temperatura mínima	15.4
55492	7	Sololá	701	Sololá	1	Sololá	10	Octubre	2023-10-27T00:00:00	2024-11-08T19:00:00	5	Humedad	91
55493	7	Sololá	701	Sololá	1	Sololá	10	Octubre	2023-10-27T00:00:00	2024-11-08T19:00:00	6	Velocidad del viento	0
55494	7	Sololá	701	Sololá	1	Sololá	10	Octubre	2023-10-27T00:00:00	2024-11-08T19:00:00	7	Dirección del viento	0
55495	7	Sololá	701	Sololá	1	Sololá	10	Octubre	2023-10-27T00:00:00	2024-11-08T19:00:00	1	Precipitación	0
55496	7	Sololá	701	Sololá	1	Sololá	10	Octubre	2023-10-27T00:00:00	2024-11-08T19:00:00	8	Radiación solar	0
55497	7	Sololá	701	Sololá	1	Sololá	10	Octubre	2023-10-27T00:00:00	2024-11-08T20:00:00	2	Temperatura media	15.3
55498	7	Sololá	701	Sololá	1	Sololá	10	Octubre	2023-10-27T00:00:00	2024-11-08T20:00:00	4	Temperatura máxima	15.6
55499	7	Sololá	701	Sololá	1	Sololá	10	Octubre	2023-10-27T00:00:00	2024-11-08T20:00:00	3	Temperatura mínima	15.3
55500	7	Sololá	701	Sololá	1	Sololá	10	Octubre	2023-10-27T00:00:00	2024-11-08T20:00:00	5	Humedad	92
55501	7	Sololá	701	Sololá	1	Sololá	10	Octubre	2023-10-27T00:00:00	2024-11-08T20:00:00	6	Velocidad del viento	0
55502	7	Sololá	701	Sololá	1	Sololá	10	Octubre	2023-10-27T00:00:00	2024-11-08T20:00:00	7	Dirección del viento	0
55503	7	Sololá	701	Sololá	1	Sololá	10	Octubre	2023-10-27T00:00:00	2024-11-08T20:00:00	1	Precipitación	0
55504	7	Sololá	701	Sololá	1	Sololá	10	Octubre	2023-10-27T00:00:00	2024-11-08T20:00:00	8	Radiación solar	0
55505	7	Sololá	701	Sololá	1	Sololá	10	Octubre	2023-10-27T00:00:00	2024-11-08T21:00:00	2	Temperatura media	15.1
55506	7	Sololá	701	Sololá	1	Sololá	10	Octubre	2023-10-27T00:00:00	2024-11-08T21:00:00	4	Temperatura máxima	15.3
55507	7	Sololá	701	Sololá	1	Sololá	10	Octubre	2023-10-27T00:00:00	2024-11-08T21:00:00	3	Temperatura mínima	15
55508	7	Sololá	701	Sololá	1	Sololá	10	Octubre	2023-10-27T00:00:00	2024-11-08T21:00:00	5	Humedad	92
55509	7	Sololá	701	Sololá	1	Sololá	10	Octubre	2023-10-27T00:00:00	2024-11-08T21:00:00	6	Velocidad del viento	0
55510	7	Sololá	701	Sololá	1	Sololá	10	Octubre	2023-10-27T00:00:00	2024-11-08T21:00:00	7	Dirección del viento	0
55511	7	Sololá	701	Sololá	1	Sololá	10	Octubre	2023-10-27T00:00:00	2024-11-08T21:00:00	1	Precipitación	0
55512	7	Sololá	701	Sololá	1	Sololá	10	Octubre	2023-10-27T00:00:00	2024-11-08T21:00:00	8	Radiación solar	0
55513	7	Sololá	701	Sololá	1	Sololá	10	Octubre	2023-10-27T00:00:00	2024-11-08T22:00:00	2	Temperatura media	14.9
55514	7	Sololá	701	Sololá	1	Sololá	10	Octubre	2023-10-27T00:00:00	2024-11-08T22:00:00	4	Temperatura máxima	15.1
55515	7	Sololá	701	Sololá	1	Sololá	10	Octubre	2023-10-27T00:00:00	2024-11-08T22:00:00	3	Temperatura mínima	14.9
55516	7	Sololá	701	Sololá	1	Sololá	10	Octubre	2023-10-27T00:00:00	2024-11-08T22:00:00	5	Humedad	92
55517	7	Sololá	701	Sololá	1	Sololá	10	Octubre	2023-10-27T00:00:00	2024-11-08T22:00:00	6	Velocidad del viento	0
55518	7	Sololá	701	Sololá	1	Sololá	10	Octubre	2023-10-27T00:00:00	2024-11-08T22:00:00	7	Dirección del viento	0
55519	7	Sololá	701	Sololá	1	Sololá	10	Octubre	2023-10-27T00:00:00	2024-11-08T22:00:00	1	Precipitación	0
55520	7	Sololá	701	Sololá	1	Sololá	10	Octubre	2023-10-27T00:00:00	2024-11-08T22:00:00	8	Radiación solar	0
55521	7	Sololá	701	Sololá	1	Sololá	10	Octubre	2023-10-27T00:00:00	2024-11-08T23:00:00	2	Temperatura media	14.9
55522	7	Sololá	701	Sololá	1	Sololá	10	Octubre	2023-10-27T00:00:00	2024-11-08T23:00:00	4	Temperatura máxima	14.9
55523	7	Sololá	701	Sololá	1	Sololá	10	Octubre	2023-10-27T00:00:00	2024-11-08T23:00:00	3	Temperatura mínima	14.7
55524	7	Sololá	701	Sololá	1	Sololá	10	Octubre	2023-10-27T00:00:00	2024-11-08T23:00:00	5	Humedad	94
55525	7	Sololá	701	Sololá	1	Sololá	10	Octubre	2023-10-27T00:00:00	2024-11-08T23:00:00	6	Velocidad del viento	0
55526	7	Sololá	701	Sololá	1	Sololá	10	Octubre	2023-10-27T00:00:00	2024-11-08T23:00:00	7	Dirección del viento	0
55527	7	Sololá	701	Sololá	1	Sololá	10	Octubre	2023-10-27T00:00:00	2024-11-08T23:00:00	1	Precipitación	0
55528	7	Sololá	701	Sololá	1	Sololá	10	Octubre	2023-10-27T00:00:00	2024-11-08T23:00:00	8	Radiación solar	0
55529	7	Sololá	701	Sololá	1	Sololá	10	Octubre	2023-10-28T00:00:00	2024-11-08T00:00:00	2	Temperatura media	14.7
55530	7	Sololá	701	Sololá	1	Sololá	10	Octubre	2023-10-28T00:00:00	2024-11-08T00:00:00	4	Temperatura máxima	14.9
55531	7	Sololá	701	Sololá	1	Sololá	10	Octubre	2023-10-28T00:00:00	2024-11-08T00:00:00	3	Temperatura mínima	14.7
55532	7	Sololá	701	Sololá	1	Sololá	10	Octubre	2023-10-28T00:00:00	2024-11-08T00:00:00	5	Humedad	94
55533	7	Sololá	701	Sololá	1	Sololá	10	Octubre	2023-10-28T00:00:00	2024-11-08T00:00:00	6	Velocidad del viento	0
55534	7	Sololá	701	Sololá	1	Sololá	10	Octubre	2023-10-28T00:00:00	2024-11-08T00:00:00	7	Dirección del viento	0
55535	7	Sololá	701	Sololá	1	Sololá	10	Octubre	2023-10-28T00:00:00	2024-11-08T00:00:00	1	Precipitación	0
55536	7	Sololá	701	Sololá	1	Sololá	10	Octubre	2023-10-28T00:00:00	2024-11-08T00:00:00	8	Radiación solar	0
55537	7	Sololá	701	Sololá	1	Sololá	10	Octubre	2023-10-28T00:00:00	2024-11-08T01:00:00	2	Temperatura media	14.4
55538	7	Sololá	701	Sololá	1	Sololá	10	Octubre	2023-10-28T00:00:00	2024-11-08T01:00:00	4	Temperatura máxima	14.7
55539	7	Sololá	701	Sololá	1	Sololá	10	Octubre	2023-10-28T00:00:00	2024-11-08T01:00:00	3	Temperatura mínima	14.4
55540	7	Sololá	701	Sololá	1	Sololá	10	Octubre	2023-10-28T00:00:00	2024-11-08T01:00:00	5	Humedad	92
55541	7	Sololá	701	Sololá	1	Sololá	10	Octubre	2023-10-28T00:00:00	2024-11-08T01:00:00	6	Velocidad del viento	0
55542	7	Sololá	701	Sololá	1	Sololá	10	Octubre	2023-10-28T00:00:00	2024-11-08T01:00:00	7	Dirección del viento	0
55543	7	Sololá	701	Sololá	1	Sololá	10	Octubre	2023-10-28T00:00:00	2024-11-08T01:00:00	1	Precipitación	0
55544	7	Sololá	701	Sololá	1	Sololá	10	Octubre	2023-10-28T00:00:00	2024-11-08T01:00:00	8	Radiación solar	0
55545	7	Sololá	701	Sololá	1	Sololá	10	Octubre	2023-10-28T00:00:00	2024-11-08T02:00:00	2	Temperatura media	14.3
55546	7	Sololá	701	Sololá	1	Sololá	10	Octubre	2023-10-28T00:00:00	2024-11-08T02:00:00	4	Temperatura máxima	14.4
55547	7	Sololá	701	Sololá	1	Sololá	10	Octubre	2023-10-28T00:00:00	2024-11-08T02:00:00	3	Temperatura mínima	14.3
55548	7	Sololá	701	Sololá	1	Sololá	10	Octubre	2023-10-28T00:00:00	2024-11-08T02:00:00	5	Humedad	91
55549	7	Sololá	701	Sololá	1	Sololá	10	Octubre	2023-10-28T00:00:00	2024-11-08T02:00:00	6	Velocidad del viento	0
55550	7	Sololá	701	Sololá	1	Sololá	10	Octubre	2023-10-28T00:00:00	2024-11-08T02:00:00	7	Dirección del viento	0
55551	7	Sololá	701	Sololá	1	Sololá	10	Octubre	2023-10-28T00:00:00	2024-11-08T02:00:00	1	Precipitación	0
55552	7	Sololá	701	Sololá	1	Sololá	10	Octubre	2023-10-28T00:00:00	2024-11-08T02:00:00	8	Radiación solar	0
55553	7	Sololá	701	Sololá	1	Sololá	10	Octubre	2023-10-28T00:00:00	2024-11-08T03:00:00	2	Temperatura media	14.2
55554	7	Sololá	701	Sololá	1	Sololá	10	Octubre	2023-10-28T00:00:00	2024-11-08T03:00:00	4	Temperatura máxima	14.3
55555	7	Sololá	701	Sololá	1	Sololá	10	Octubre	2023-10-28T00:00:00	2024-11-08T03:00:00	3	Temperatura mínima	14
55556	7	Sololá	701	Sololá	1	Sololá	10	Octubre	2023-10-28T00:00:00	2024-11-08T03:00:00	5	Humedad	92
55557	7	Sololá	701	Sololá	1	Sololá	10	Octubre	2023-10-28T00:00:00	2024-11-08T03:00:00	6	Velocidad del viento	0
55558	7	Sololá	701	Sololá	1	Sololá	10	Octubre	2023-10-28T00:00:00	2024-11-08T03:00:00	7	Dirección del viento	0
55559	7	Sololá	701	Sololá	1	Sololá	10	Octubre	2023-10-28T00:00:00	2024-11-08T03:00:00	1	Precipitación	0
55560	7	Sololá	701	Sololá	1	Sololá	10	Octubre	2023-10-28T00:00:00	2024-11-08T03:00:00	8	Radiación solar	0
55561	7	Sololá	701	Sololá	1	Sololá	10	Octubre	2023-10-28T00:00:00	2024-11-08T04:00:00	2	Temperatura media	14.2
55562	7	Sololá	701	Sololá	1	Sololá	10	Octubre	2023-10-28T00:00:00	2024-11-08T04:00:00	4	Temperatura máxima	14.2
55563	7	Sololá	701	Sololá	1	Sololá	10	Octubre	2023-10-28T00:00:00	2024-11-08T04:00:00	3	Temperatura mínima	14.1
55564	7	Sololá	701	Sololá	1	Sololá	10	Octubre	2023-10-28T00:00:00	2024-11-08T04:00:00	5	Humedad	93
55565	7	Sololá	701	Sololá	1	Sololá	10	Octubre	2023-10-28T00:00:00	2024-11-08T04:00:00	6	Velocidad del viento	0
55566	7	Sololá	701	Sololá	1	Sololá	10	Octubre	2023-10-28T00:00:00	2024-11-08T04:00:00	7	Dirección del viento	0
55567	7	Sololá	701	Sololá	1	Sololá	10	Octubre	2023-10-28T00:00:00	2024-11-08T04:00:00	1	Precipitación	0
55568	7	Sololá	701	Sololá	1	Sololá	10	Octubre	2023-10-28T00:00:00	2024-11-08T04:00:00	8	Radiación solar	0
55569	7	Sololá	701	Sololá	1	Sololá	10	Octubre	2023-10-28T00:00:00	2024-11-08T05:00:00	2	Temperatura media	14
55570	7	Sololá	701	Sololá	1	Sololá	10	Octubre	2023-10-28T00:00:00	2024-11-08T05:00:00	4	Temperatura máxima	14.2
55571	7	Sololá	701	Sololá	1	Sololá	10	Octubre	2023-10-28T00:00:00	2024-11-08T05:00:00	3	Temperatura mínima	13.9
55572	7	Sololá	701	Sololá	1	Sololá	10	Octubre	2023-10-28T00:00:00	2024-11-08T05:00:00	5	Humedad	90
55573	7	Sololá	701	Sololá	1	Sololá	10	Octubre	2023-10-28T00:00:00	2024-11-08T05:00:00	6	Velocidad del viento	0
55574	7	Sololá	701	Sololá	1	Sololá	10	Octubre	2023-10-28T00:00:00	2024-11-08T05:00:00	7	Dirección del viento	0
55575	7	Sololá	701	Sololá	1	Sololá	10	Octubre	2023-10-28T00:00:00	2024-11-08T05:00:00	1	Precipitación	0
55576	7	Sololá	701	Sololá	1	Sololá	10	Octubre	2023-10-28T00:00:00	2024-11-08T05:00:00	8	Radiación solar	0
55577	7	Sololá	701	Sololá	1	Sololá	10	Octubre	2023-10-28T00:00:00	2024-11-08T06:00:00	2	Temperatura media	13.3
55578	7	Sololá	701	Sololá	1	Sololá	10	Octubre	2023-10-28T00:00:00	2024-11-08T06:00:00	4	Temperatura máxima	14
55579	7	Sololá	701	Sololá	1	Sololá	10	Octubre	2023-10-28T00:00:00	2024-11-08T06:00:00	3	Temperatura mínima	13.3
55580	7	Sololá	701	Sololá	1	Sololá	10	Octubre	2023-10-28T00:00:00	2024-11-08T06:00:00	5	Humedad	87
55581	7	Sololá	701	Sololá	1	Sololá	10	Octubre	2023-10-28T00:00:00	2024-11-08T06:00:00	6	Velocidad del viento	0
55582	7	Sololá	701	Sololá	1	Sololá	10	Octubre	2023-10-28T00:00:00	2024-11-08T06:00:00	7	Dirección del viento	0
55583	7	Sololá	701	Sololá	1	Sololá	10	Octubre	2023-10-28T00:00:00	2024-11-08T06:00:00	1	Precipitación	0
55584	7	Sololá	701	Sololá	1	Sololá	10	Octubre	2023-10-28T00:00:00	2024-11-08T06:00:00	8	Radiación solar	0
55585	7	Sololá	701	Sololá	1	Sololá	10	Octubre	2023-10-28T00:00:00	2024-11-08T07:00:00	2	Temperatura media	13.4
55586	7	Sololá	701	Sololá	1	Sololá	10	Octubre	2023-10-28T00:00:00	2024-11-08T07:00:00	4	Temperatura máxima	13.4
55587	7	Sololá	701	Sololá	1	Sololá	10	Octubre	2023-10-28T00:00:00	2024-11-08T07:00:00	3	Temperatura mínima	13.2
55588	7	Sololá	701	Sololá	1	Sololá	10	Octubre	2023-10-28T00:00:00	2024-11-08T07:00:00	5	Humedad	88
55589	7	Sololá	701	Sololá	1	Sololá	10	Octubre	2023-10-28T00:00:00	2024-11-08T07:00:00	6	Velocidad del viento	0
55590	7	Sololá	701	Sololá	1	Sololá	10	Octubre	2023-10-28T00:00:00	2024-11-08T07:00:00	7	Dirección del viento	0
55591	7	Sololá	701	Sololá	1	Sololá	10	Octubre	2023-10-28T00:00:00	2024-11-08T07:00:00	1	Precipitación	0
55592	7	Sololá	701	Sololá	1	Sololá	10	Octubre	2023-10-28T00:00:00	2024-11-08T07:00:00	8	Radiación solar	12
55593	7	Sololá	701	Sololá	1	Sololá	10	Octubre	2023-10-28T00:00:00	2024-11-08T08:00:00	2	Temperatura media	15.2
55594	7	Sololá	701	Sololá	1	Sololá	10	Octubre	2023-10-28T00:00:00	2024-11-08T08:00:00	4	Temperatura máxima	15.2
55595	7	Sololá	701	Sololá	1	Sololá	10	Octubre	2023-10-28T00:00:00	2024-11-08T08:00:00	3	Temperatura mínima	13.4
55596	7	Sololá	701	Sololá	1	Sololá	10	Octubre	2023-10-28T00:00:00	2024-11-08T08:00:00	5	Humedad	86
55597	7	Sololá	701	Sololá	1	Sololá	10	Octubre	2023-10-28T00:00:00	2024-11-08T08:00:00	6	Velocidad del viento	0
55598	7	Sololá	701	Sololá	1	Sololá	10	Octubre	2023-10-28T00:00:00	2024-11-08T08:00:00	7	Dirección del viento	0
55599	7	Sololá	701	Sololá	1	Sololá	10	Octubre	2023-10-28T00:00:00	2024-11-08T08:00:00	1	Precipitación	0
55600	7	Sololá	701	Sololá	1	Sololá	10	Octubre	2023-10-28T00:00:00	2024-11-08T08:00:00	8	Radiación solar	55
55601	7	Sololá	701	Sololá	1	Sololá	10	Octubre	2023-10-28T00:00:00	2024-11-08T09:00:00	2	Temperatura media	19.7
55602	7	Sololá	701	Sololá	1	Sololá	10	Octubre	2023-10-28T00:00:00	2024-11-08T09:00:00	4	Temperatura máxima	19.7
55603	7	Sololá	701	Sololá	1	Sololá	10	Octubre	2023-10-28T00:00:00	2024-11-08T09:00:00	3	Temperatura mínima	15.2
55604	7	Sololá	701	Sololá	1	Sololá	10	Octubre	2023-10-28T00:00:00	2024-11-08T09:00:00	5	Humedad	77
55605	7	Sololá	701	Sololá	1	Sololá	10	Octubre	2023-10-28T00:00:00	2024-11-08T09:00:00	6	Velocidad del viento	0
55606	7	Sololá	701	Sololá	1	Sololá	10	Octubre	2023-10-28T00:00:00	2024-11-08T09:00:00	7	Dirección del viento	0
55607	7	Sololá	701	Sololá	1	Sololá	10	Octubre	2023-10-28T00:00:00	2024-11-08T09:00:00	1	Precipitación	0
55608	7	Sololá	701	Sololá	1	Sololá	10	Octubre	2023-10-28T00:00:00	2024-11-08T09:00:00	8	Radiación solar	619
55609	7	Sololá	701	Sololá	1	Sololá	10	Octubre	2023-10-28T00:00:00	2024-11-08T10:00:00	2	Temperatura media	21.2
55610	7	Sololá	701	Sololá	1	Sololá	10	Octubre	2023-10-28T00:00:00	2024-11-08T10:00:00	4	Temperatura máxima	21.4
55611	7	Sololá	701	Sololá	1	Sololá	10	Octubre	2023-10-28T00:00:00	2024-11-08T10:00:00	3	Temperatura mínima	19.7
55612	7	Sololá	701	Sololá	1	Sololá	10	Octubre	2023-10-28T00:00:00	2024-11-08T10:00:00	5	Humedad	70
55613	7	Sololá	701	Sololá	1	Sololá	10	Octubre	2023-10-28T00:00:00	2024-11-08T10:00:00	6	Velocidad del viento	0
55614	7	Sololá	701	Sololá	1	Sololá	10	Octubre	2023-10-28T00:00:00	2024-11-08T10:00:00	7	Dirección del viento	0
55615	7	Sololá	701	Sololá	1	Sololá	10	Octubre	2023-10-28T00:00:00	2024-11-08T10:00:00	1	Precipitación	0
55616	7	Sololá	701	Sololá	1	Sololá	10	Octubre	2023-10-28T00:00:00	2024-11-08T10:00:00	8	Radiación solar	727
55617	7	Sololá	701	Sololá	1	Sololá	10	Octubre	2023-10-28T00:00:00	2024-11-08T11:00:00	2	Temperatura media	21.3
55618	7	Sololá	701	Sololá	1	Sololá	10	Octubre	2023-10-28T00:00:00	2024-11-08T11:00:00	4	Temperatura máxima	21.3
55619	7	Sololá	701	Sololá	1	Sololá	10	Octubre	2023-10-28T00:00:00	2024-11-08T11:00:00	3	Temperatura mínima	20.2
55620	7	Sololá	701	Sololá	1	Sololá	10	Octubre	2023-10-28T00:00:00	2024-11-08T11:00:00	5	Humedad	71
55621	7	Sololá	701	Sololá	1	Sololá	10	Octubre	2023-10-28T00:00:00	2024-11-08T11:00:00	6	Velocidad del viento	0
55622	7	Sololá	701	Sololá	1	Sololá	10	Octubre	2023-10-28T00:00:00	2024-11-08T11:00:00	7	Dirección del viento	0
55623	7	Sololá	701	Sololá	1	Sololá	10	Octubre	2023-10-28T00:00:00	2024-11-08T11:00:00	1	Precipitación	0
55624	7	Sololá	701	Sololá	1	Sololá	10	Octubre	2023-10-28T00:00:00	2024-11-08T11:00:00	8	Radiación solar	861
55625	7	Sololá	701	Sololá	1	Sololá	10	Octubre	2023-10-28T00:00:00	2024-11-08T12:00:00	2	Temperatura media	22.8
55626	7	Sololá	701	Sololá	1	Sololá	10	Octubre	2023-10-28T00:00:00	2024-11-08T12:00:00	4	Temperatura máxima	23
55627	7	Sololá	701	Sololá	1	Sololá	10	Octubre	2023-10-28T00:00:00	2024-11-08T12:00:00	3	Temperatura mínima	21.3
55628	7	Sololá	701	Sololá	1	Sololá	10	Octubre	2023-10-28T00:00:00	2024-11-08T12:00:00	5	Humedad	68
55629	7	Sololá	701	Sololá	1	Sololá	10	Octubre	2023-10-28T00:00:00	2024-11-08T12:00:00	6	Velocidad del viento	0
55630	7	Sololá	701	Sololá	1	Sololá	10	Octubre	2023-10-28T00:00:00	2024-11-08T12:00:00	7	Dirección del viento	0
55631	7	Sololá	701	Sololá	1	Sololá	10	Octubre	2023-10-28T00:00:00	2024-11-08T12:00:00	1	Precipitación	0
55632	7	Sololá	701	Sololá	1	Sololá	10	Octubre	2023-10-28T00:00:00	2024-11-08T12:00:00	8	Radiación solar	956
55633	7	Sololá	701	Sololá	1	Sololá	10	Octubre	2023-10-28T00:00:00	2024-11-08T13:00:00	2	Temperatura media	21.4
55634	7	Sololá	701	Sololá	1	Sololá	10	Octubre	2023-10-28T00:00:00	2024-11-08T13:00:00	4	Temperatura máxima	23.6
55635	7	Sololá	701	Sololá	1	Sololá	10	Octubre	2023-10-28T00:00:00	2024-11-08T13:00:00	3	Temperatura mínima	21.4
55636	7	Sololá	701	Sololá	1	Sololá	10	Octubre	2023-10-28T00:00:00	2024-11-08T13:00:00	5	Humedad	67
55637	7	Sololá	701	Sololá	1	Sololá	10	Octubre	2023-10-28T00:00:00	2024-11-08T13:00:00	6	Velocidad del viento	0
55638	7	Sololá	701	Sololá	1	Sololá	10	Octubre	2023-10-28T00:00:00	2024-11-08T13:00:00	7	Dirección del viento	0
55639	7	Sololá	701	Sololá	1	Sololá	10	Octubre	2023-10-28T00:00:00	2024-11-08T13:00:00	1	Precipitación	0
55640	7	Sololá	701	Sololá	1	Sololá	10	Octubre	2023-10-28T00:00:00	2024-11-08T13:00:00	8	Radiación solar	217
55641	7	Sololá	701	Sololá	1	Sololá	10	Octubre	2023-10-28T00:00:00	2024-11-08T14:00:00	2	Temperatura media	20.9
55642	7	Sololá	701	Sololá	1	Sololá	10	Octubre	2023-10-28T00:00:00	2024-11-08T14:00:00	4	Temperatura máxima	21.4
55643	7	Sololá	701	Sololá	1	Sololá	10	Octubre	2023-10-28T00:00:00	2024-11-08T14:00:00	3	Temperatura mínima	20.5
55644	7	Sololá	701	Sololá	1	Sololá	10	Octubre	2023-10-28T00:00:00	2024-11-08T14:00:00	5	Humedad	70
55645	7	Sololá	701	Sololá	1	Sololá	10	Octubre	2023-10-28T00:00:00	2024-11-08T14:00:00	6	Velocidad del viento	0
55646	7	Sololá	701	Sololá	1	Sololá	10	Octubre	2023-10-28T00:00:00	2024-11-08T14:00:00	7	Dirección del viento	0
55647	7	Sololá	701	Sololá	1	Sololá	10	Octubre	2023-10-28T00:00:00	2024-11-08T14:00:00	1	Precipitación	0
55648	7	Sololá	701	Sololá	1	Sololá	10	Octubre	2023-10-28T00:00:00	2024-11-08T14:00:00	8	Radiación solar	160
55649	7	Sololá	701	Sololá	1	Sololá	10	Octubre	2023-10-28T00:00:00	2024-11-08T15:00:00	2	Temperatura media	22
55650	7	Sololá	701	Sololá	1	Sololá	10	Octubre	2023-10-28T00:00:00	2024-11-08T15:00:00	4	Temperatura máxima	22
55651	7	Sololá	701	Sololá	1	Sololá	10	Octubre	2023-10-28T00:00:00	2024-11-08T15:00:00	3	Temperatura mínima	20.9
55652	7	Sololá	701	Sololá	1	Sololá	10	Octubre	2023-10-28T00:00:00	2024-11-08T15:00:00	5	Humedad	69
55653	7	Sololá	701	Sololá	1	Sololá	10	Octubre	2023-10-28T00:00:00	2024-11-08T15:00:00	6	Velocidad del viento	0
55654	7	Sololá	701	Sololá	1	Sololá	10	Octubre	2023-10-28T00:00:00	2024-11-08T15:00:00	7	Dirección del viento	0
55655	7	Sololá	701	Sololá	1	Sololá	10	Octubre	2023-10-28T00:00:00	2024-11-08T15:00:00	1	Precipitación	0
55656	7	Sololá	701	Sololá	1	Sololá	10	Octubre	2023-10-28T00:00:00	2024-11-08T15:00:00	8	Radiación solar	129
55657	7	Sololá	701	Sololá	1	Sololá	10	Octubre	2023-10-28T00:00:00	2024-11-08T16:00:00	2	Temperatura media	20.1
55658	7	Sololá	701	Sololá	1	Sololá	10	Octubre	2023-10-28T00:00:00	2024-11-08T16:00:00	4	Temperatura máxima	22.1
55659	7	Sololá	701	Sololá	1	Sololá	10	Octubre	2023-10-28T00:00:00	2024-11-08T16:00:00	3	Temperatura mínima	20.1
55660	7	Sololá	701	Sololá	1	Sololá	10	Octubre	2023-10-28T00:00:00	2024-11-08T16:00:00	5	Humedad	75
55661	7	Sololá	701	Sololá	1	Sololá	10	Octubre	2023-10-28T00:00:00	2024-11-08T16:00:00	6	Velocidad del viento	0
55662	7	Sololá	701	Sololá	1	Sololá	10	Octubre	2023-10-28T00:00:00	2024-11-08T16:00:00	7	Dirección del viento	0
55663	7	Sololá	701	Sololá	1	Sololá	10	Octubre	2023-10-28T00:00:00	2024-11-08T16:00:00	1	Precipitación	0
55664	7	Sololá	701	Sololá	1	Sololá	10	Octubre	2023-10-28T00:00:00	2024-11-08T16:00:00	8	Radiación solar	71
55665	7	Sololá	701	Sololá	1	Sololá	10	Octubre	2023-10-28T00:00:00	2024-11-08T17:00:00	2	Temperatura media	17.7
55666	7	Sololá	701	Sololá	1	Sololá	10	Octubre	2023-10-28T00:00:00	2024-11-08T17:00:00	4	Temperatura máxima	20.1
55667	7	Sololá	701	Sololá	1	Sololá	10	Octubre	2023-10-28T00:00:00	2024-11-08T17:00:00	3	Temperatura mínima	17.7
55668	7	Sololá	701	Sololá	1	Sololá	10	Octubre	2023-10-28T00:00:00	2024-11-08T17:00:00	5	Humedad	83
55669	7	Sololá	701	Sololá	1	Sololá	10	Octubre	2023-10-28T00:00:00	2024-11-08T17:00:00	6	Velocidad del viento	0
55670	7	Sololá	701	Sololá	1	Sololá	10	Octubre	2023-10-28T00:00:00	2024-11-08T17:00:00	7	Dirección del viento	0
55671	7	Sololá	701	Sololá	1	Sololá	10	Octubre	2023-10-28T00:00:00	2024-11-08T17:00:00	1	Precipitación	0
55672	7	Sololá	701	Sololá	1	Sololá	10	Octubre	2023-10-28T00:00:00	2024-11-08T17:00:00	8	Radiación solar	21
55673	7	Sololá	701	Sololá	1	Sololá	10	Octubre	2023-10-28T00:00:00	2024-11-08T18:00:00	2	Temperatura media	16.5
55674	7	Sololá	701	Sololá	1	Sololá	10	Octubre	2023-10-28T00:00:00	2024-11-08T18:00:00	4	Temperatura máxima	17.7
55675	7	Sololá	701	Sololá	1	Sololá	10	Octubre	2023-10-28T00:00:00	2024-11-08T18:00:00	3	Temperatura mínima	16.5
55676	7	Sololá	701	Sololá	1	Sololá	10	Octubre	2023-10-28T00:00:00	2024-11-08T18:00:00	5	Humedad	86
55677	7	Sololá	701	Sololá	1	Sololá	10	Octubre	2023-10-28T00:00:00	2024-11-08T18:00:00	6	Velocidad del viento	0
55678	7	Sololá	701	Sololá	1	Sololá	10	Octubre	2023-10-28T00:00:00	2024-11-08T18:00:00	7	Dirección del viento	0
55679	7	Sololá	701	Sololá	1	Sololá	10	Octubre	2023-10-28T00:00:00	2024-11-08T18:00:00	1	Precipitación	0
55680	7	Sololá	701	Sololá	1	Sololá	10	Octubre	2023-10-28T00:00:00	2024-11-08T18:00:00	8	Radiación solar	5
55681	7	Sololá	701	Sololá	1	Sololá	10	Octubre	2023-10-28T00:00:00	2024-11-08T19:00:00	2	Temperatura media	15.9
55682	7	Sololá	701	Sololá	1	Sololá	10	Octubre	2023-10-28T00:00:00	2024-11-08T19:00:00	4	Temperatura máxima	16.6
55683	7	Sololá	701	Sololá	1	Sololá	10	Octubre	2023-10-28T00:00:00	2024-11-08T19:00:00	3	Temperatura mínima	15.9
55684	7	Sololá	701	Sololá	1	Sololá	10	Octubre	2023-10-28T00:00:00	2024-11-08T19:00:00	5	Humedad	87
55685	7	Sololá	701	Sololá	1	Sololá	10	Octubre	2023-10-28T00:00:00	2024-11-08T19:00:00	6	Velocidad del viento	0
55686	7	Sololá	701	Sololá	1	Sololá	10	Octubre	2023-10-28T00:00:00	2024-11-08T19:00:00	7	Dirección del viento	0
55687	7	Sololá	701	Sololá	1	Sololá	10	Octubre	2023-10-28T00:00:00	2024-11-08T19:00:00	1	Precipitación	0
55688	7	Sololá	701	Sololá	1	Sololá	10	Octubre	2023-10-28T00:00:00	2024-11-08T19:00:00	8	Radiación solar	0
55689	7	Sololá	701	Sololá	1	Sololá	10	Octubre	2023-10-28T00:00:00	2024-11-08T20:00:00	2	Temperatura media	16.1
55690	7	Sololá	701	Sololá	1	Sololá	10	Octubre	2023-10-28T00:00:00	2024-11-08T20:00:00	4	Temperatura máxima	16.1
55691	7	Sololá	701	Sololá	1	Sololá	10	Octubre	2023-10-28T00:00:00	2024-11-08T20:00:00	3	Temperatura mínima	15.8
55692	7	Sololá	701	Sololá	1	Sololá	10	Octubre	2023-10-28T00:00:00	2024-11-08T20:00:00	5	Humedad	89
55693	7	Sololá	701	Sololá	1	Sololá	10	Octubre	2023-10-28T00:00:00	2024-11-08T20:00:00	6	Velocidad del viento	0
55694	7	Sololá	701	Sololá	1	Sololá	10	Octubre	2023-10-28T00:00:00	2024-11-08T20:00:00	7	Dirección del viento	0
55695	7	Sololá	701	Sololá	1	Sololá	10	Octubre	2023-10-28T00:00:00	2024-11-08T20:00:00	1	Precipitación	0
55696	7	Sololá	701	Sololá	1	Sololá	10	Octubre	2023-10-28T00:00:00	2024-11-08T20:00:00	8	Radiación solar	0
55697	7	Sololá	701	Sololá	1	Sololá	10	Octubre	2023-10-28T00:00:00	2024-11-08T21:00:00	2	Temperatura media	15.8
55698	7	Sololá	701	Sololá	1	Sololá	10	Octubre	2023-10-28T00:00:00	2024-11-08T21:00:00	4	Temperatura máxima	16.2
55699	7	Sololá	701	Sololá	1	Sololá	10	Octubre	2023-10-28T00:00:00	2024-11-08T21:00:00	3	Temperatura mínima	15.8
55700	7	Sololá	701	Sololá	1	Sololá	10	Octubre	2023-10-28T00:00:00	2024-11-08T21:00:00	5	Humedad	90
55701	7	Sololá	701	Sololá	1	Sololá	10	Octubre	2023-10-28T00:00:00	2024-11-08T21:00:00	6	Velocidad del viento	0
55702	7	Sololá	701	Sololá	1	Sololá	10	Octubre	2023-10-28T00:00:00	2024-11-08T21:00:00	7	Dirección del viento	0
55703	7	Sololá	701	Sololá	1	Sololá	10	Octubre	2023-10-28T00:00:00	2024-11-08T21:00:00	1	Precipitación	0
55704	7	Sololá	701	Sololá	1	Sololá	10	Octubre	2023-10-28T00:00:00	2024-11-08T21:00:00	8	Radiación solar	0
55705	7	Sololá	701	Sololá	1	Sololá	10	Octubre	2023-10-28T00:00:00	2024-11-08T22:00:00	2	Temperatura media	15.4
55706	7	Sololá	701	Sololá	1	Sololá	10	Octubre	2023-10-28T00:00:00	2024-11-08T22:00:00	4	Temperatura máxima	15.8
55707	7	Sololá	701	Sololá	1	Sololá	10	Octubre	2023-10-28T00:00:00	2024-11-08T22:00:00	3	Temperatura mínima	15.4
55708	7	Sololá	701	Sololá	1	Sololá	10	Octubre	2023-10-28T00:00:00	2024-11-08T22:00:00	5	Humedad	90
55709	7	Sololá	701	Sololá	1	Sololá	10	Octubre	2023-10-28T00:00:00	2024-11-08T22:00:00	6	Velocidad del viento	0
55710	7	Sololá	701	Sololá	1	Sololá	10	Octubre	2023-10-28T00:00:00	2024-11-08T22:00:00	7	Dirección del viento	0
55711	7	Sololá	701	Sololá	1	Sololá	10	Octubre	2023-10-28T00:00:00	2024-11-08T22:00:00	1	Precipitación	0
55712	7	Sololá	701	Sololá	1	Sololá	10	Octubre	2023-10-28T00:00:00	2024-11-08T22:00:00	8	Radiación solar	0
55713	7	Sololá	701	Sololá	1	Sololá	10	Octubre	2023-10-28T00:00:00	2024-11-08T23:00:00	2	Temperatura media	15.5
55714	7	Sololá	701	Sololá	1	Sololá	10	Octubre	2023-10-28T00:00:00	2024-11-08T23:00:00	4	Temperatura máxima	15.5
55715	7	Sololá	701	Sololá	1	Sololá	10	Octubre	2023-10-28T00:00:00	2024-11-08T23:00:00	3	Temperatura mínima	15.3
55716	7	Sololá	701	Sololá	1	Sololá	10	Octubre	2023-10-28T00:00:00	2024-11-08T23:00:00	5	Humedad	88
55717	7	Sololá	701	Sololá	1	Sololá	10	Octubre	2023-10-28T00:00:00	2024-11-08T23:00:00	6	Velocidad del viento	0
55718	7	Sololá	701	Sololá	1	Sololá	10	Octubre	2023-10-28T00:00:00	2024-11-08T23:00:00	7	Dirección del viento	0
55719	7	Sololá	701	Sololá	1	Sololá	10	Octubre	2023-10-28T00:00:00	2024-11-08T23:00:00	1	Precipitación	0
55720	7	Sololá	701	Sololá	1	Sololá	10	Octubre	2023-10-28T00:00:00	2024-11-08T23:00:00	8	Radiación solar	0
55721	7	Sololá	701	Sololá	1	Sololá	10	Octubre	2023-10-29T00:00:00	2024-11-08T00:00:00	2	Temperatura media	15.1
55722	7	Sololá	701	Sololá	1	Sololá	10	Octubre	2023-10-29T00:00:00	2024-11-08T00:00:00	4	Temperatura máxima	15.5
55723	7	Sololá	701	Sololá	1	Sololá	10	Octubre	2023-10-29T00:00:00	2024-11-08T00:00:00	3	Temperatura mínima	15.1
55724	7	Sololá	701	Sololá	1	Sololá	10	Octubre	2023-10-29T00:00:00	2024-11-08T00:00:00	5	Humedad	89
55725	7	Sololá	701	Sololá	1	Sololá	10	Octubre	2023-10-29T00:00:00	2024-11-08T00:00:00	6	Velocidad del viento	0
55726	7	Sololá	701	Sololá	1	Sololá	10	Octubre	2023-10-29T00:00:00	2024-11-08T00:00:00	7	Dirección del viento	0
55727	7	Sololá	701	Sololá	1	Sololá	10	Octubre	2023-10-29T00:00:00	2024-11-08T00:00:00	1	Precipitación	0
55728	7	Sololá	701	Sololá	1	Sololá	10	Octubre	2023-10-29T00:00:00	2024-11-08T00:00:00	8	Radiación solar	0
55729	7	Sololá	701	Sololá	1	Sololá	10	Octubre	2023-10-29T00:00:00	2024-11-08T01:00:00	2	Temperatura media	14.6
55730	7	Sololá	701	Sololá	1	Sololá	10	Octubre	2023-10-29T00:00:00	2024-11-08T01:00:00	4	Temperatura máxima	15.1
55731	7	Sololá	701	Sololá	1	Sololá	10	Octubre	2023-10-29T00:00:00	2024-11-08T01:00:00	3	Temperatura mínima	14.4
55732	7	Sololá	701	Sololá	1	Sololá	10	Octubre	2023-10-29T00:00:00	2024-11-08T01:00:00	5	Humedad	92
55733	7	Sololá	701	Sololá	1	Sololá	10	Octubre	2023-10-29T00:00:00	2024-11-08T01:00:00	6	Velocidad del viento	0
55734	7	Sololá	701	Sololá	1	Sololá	10	Octubre	2023-10-29T00:00:00	2024-11-08T01:00:00	7	Dirección del viento	0
55735	7	Sololá	701	Sololá	1	Sololá	10	Octubre	2023-10-29T00:00:00	2024-11-08T01:00:00	1	Precipitación	0
55736	7	Sololá	701	Sololá	1	Sololá	10	Octubre	2023-10-29T00:00:00	2024-11-08T01:00:00	8	Radiación solar	0
55737	7	Sololá	701	Sololá	1	Sololá	10	Octubre	2023-10-29T00:00:00	2024-11-08T02:00:00	2	Temperatura media	14.7
55738	7	Sololá	701	Sololá	1	Sololá	10	Octubre	2023-10-29T00:00:00	2024-11-08T02:00:00	4	Temperatura máxima	14.8
55739	7	Sololá	701	Sololá	1	Sololá	10	Octubre	2023-10-29T00:00:00	2024-11-08T02:00:00	3	Temperatura mínima	14.5
55740	7	Sololá	701	Sololá	1	Sololá	10	Octubre	2023-10-29T00:00:00	2024-11-08T02:00:00	5	Humedad	91
55741	7	Sololá	701	Sololá	1	Sololá	10	Octubre	2023-10-29T00:00:00	2024-11-08T02:00:00	6	Velocidad del viento	0
55742	7	Sololá	701	Sololá	1	Sololá	10	Octubre	2023-10-29T00:00:00	2024-11-08T02:00:00	7	Dirección del viento	0
55743	7	Sololá	701	Sololá	1	Sololá	10	Octubre	2023-10-29T00:00:00	2024-11-08T02:00:00	1	Precipitación	0
55744	7	Sololá	701	Sololá	1	Sololá	10	Octubre	2023-10-29T00:00:00	2024-11-08T02:00:00	8	Radiación solar	0
55745	7	Sololá	701	Sololá	1	Sololá	10	Octubre	2023-10-29T00:00:00	2024-11-08T03:00:00	2	Temperatura media	14.3
55746	7	Sololá	701	Sololá	1	Sololá	10	Octubre	2023-10-29T00:00:00	2024-11-08T03:00:00	4	Temperatura máxima	14.7
55747	7	Sololá	701	Sololá	1	Sololá	10	Octubre	2023-10-29T00:00:00	2024-11-08T03:00:00	3	Temperatura mínima	14.3
55748	7	Sololá	701	Sololá	1	Sololá	10	Octubre	2023-10-29T00:00:00	2024-11-08T03:00:00	5	Humedad	90
55749	7	Sololá	701	Sololá	1	Sololá	10	Octubre	2023-10-29T00:00:00	2024-11-08T03:00:00	6	Velocidad del viento	0
55750	7	Sololá	701	Sololá	1	Sololá	10	Octubre	2023-10-29T00:00:00	2024-11-08T03:00:00	7	Dirección del viento	0
55751	7	Sololá	701	Sololá	1	Sololá	10	Octubre	2023-10-29T00:00:00	2024-11-08T03:00:00	1	Precipitación	0
55752	7	Sololá	701	Sololá	1	Sololá	10	Octubre	2023-10-29T00:00:00	2024-11-08T03:00:00	8	Radiación solar	0
55753	7	Sololá	701	Sololá	1	Sololá	10	Octubre	2023-10-29T00:00:00	2024-11-08T04:00:00	2	Temperatura media	14.2
55754	7	Sololá	701	Sololá	1	Sololá	10	Octubre	2023-10-29T00:00:00	2024-11-08T04:00:00	4	Temperatura máxima	14.3
55755	7	Sololá	701	Sololá	1	Sololá	10	Octubre	2023-10-29T00:00:00	2024-11-08T04:00:00	3	Temperatura mínima	14.1
55756	7	Sololá	701	Sololá	1	Sololá	10	Octubre	2023-10-29T00:00:00	2024-11-08T04:00:00	5	Humedad	92
55757	7	Sololá	701	Sololá	1	Sololá	10	Octubre	2023-10-29T00:00:00	2024-11-08T04:00:00	6	Velocidad del viento	0
55758	7	Sololá	701	Sololá	1	Sololá	10	Octubre	2023-10-29T00:00:00	2024-11-08T04:00:00	7	Dirección del viento	0
55759	7	Sololá	701	Sololá	1	Sololá	10	Octubre	2023-10-29T00:00:00	2024-11-08T04:00:00	1	Precipitación	0
55760	7	Sololá	701	Sololá	1	Sololá	10	Octubre	2023-10-29T00:00:00	2024-11-08T04:00:00	8	Radiación solar	0
55761	7	Sololá	701	Sololá	1	Sololá	10	Octubre	2023-10-29T00:00:00	2024-11-08T05:00:00	2	Temperatura media	14.1
55762	7	Sololá	701	Sololá	1	Sololá	10	Octubre	2023-10-29T00:00:00	2024-11-08T05:00:00	4	Temperatura máxima	14.3
55763	7	Sololá	701	Sololá	1	Sololá	10	Octubre	2023-10-29T00:00:00	2024-11-08T05:00:00	3	Temperatura mínima	14.1
55764	7	Sololá	701	Sololá	1	Sololá	10	Octubre	2023-10-29T00:00:00	2024-11-08T05:00:00	5	Humedad	90
55765	7	Sololá	701	Sololá	1	Sololá	10	Octubre	2023-10-29T00:00:00	2024-11-08T05:00:00	6	Velocidad del viento	0
55766	7	Sololá	701	Sololá	1	Sololá	10	Octubre	2023-10-29T00:00:00	2024-11-08T05:00:00	7	Dirección del viento	0
55767	7	Sololá	701	Sololá	1	Sololá	10	Octubre	2023-10-29T00:00:00	2024-11-08T05:00:00	1	Precipitación	0
55768	7	Sololá	701	Sololá	1	Sololá	10	Octubre	2023-10-29T00:00:00	2024-11-08T05:00:00	8	Radiación solar	0
55769	7	Sololá	701	Sololá	1	Sololá	10	Octubre	2023-10-29T00:00:00	2024-11-08T06:00:00	2	Temperatura media	14
55770	7	Sololá	701	Sololá	1	Sololá	10	Octubre	2023-10-29T00:00:00	2024-11-08T06:00:00	4	Temperatura máxima	14.2
55771	7	Sololá	701	Sololá	1	Sololá	10	Octubre	2023-10-29T00:00:00	2024-11-08T06:00:00	3	Temperatura mínima	14
55772	7	Sololá	701	Sololá	1	Sololá	10	Octubre	2023-10-29T00:00:00	2024-11-08T06:00:00	5	Humedad	91
55773	7	Sololá	701	Sololá	1	Sololá	10	Octubre	2023-10-29T00:00:00	2024-11-08T06:00:00	6	Velocidad del viento	0
55774	7	Sololá	701	Sololá	1	Sololá	10	Octubre	2023-10-29T00:00:00	2024-11-08T06:00:00	7	Dirección del viento	0
55775	7	Sololá	701	Sololá	1	Sololá	10	Octubre	2023-10-29T00:00:00	2024-11-08T06:00:00	1	Precipitación	0
55776	7	Sololá	701	Sololá	1	Sololá	10	Octubre	2023-10-29T00:00:00	2024-11-08T06:00:00	8	Radiación solar	0
55777	7	Sololá	701	Sololá	1	Sololá	10	Octubre	2023-10-29T00:00:00	2024-11-08T07:00:00	2	Temperatura media	15.1
55778	7	Sololá	701	Sololá	1	Sololá	10	Octubre	2023-10-29T00:00:00	2024-11-08T07:00:00	4	Temperatura máxima	15.1
55779	7	Sololá	701	Sololá	1	Sololá	10	Octubre	2023-10-29T00:00:00	2024-11-08T07:00:00	3	Temperatura mínima	14
55780	7	Sololá	701	Sololá	1	Sololá	10	Octubre	2023-10-29T00:00:00	2024-11-08T07:00:00	5	Humedad	88
55781	7	Sololá	701	Sololá	1	Sololá	10	Octubre	2023-10-29T00:00:00	2024-11-08T07:00:00	6	Velocidad del viento	0
55782	7	Sololá	701	Sololá	1	Sololá	10	Octubre	2023-10-29T00:00:00	2024-11-08T07:00:00	7	Dirección del viento	0
55783	7	Sololá	701	Sololá	1	Sololá	10	Octubre	2023-10-29T00:00:00	2024-11-08T07:00:00	1	Precipitación	0
55784	7	Sololá	701	Sololá	1	Sololá	10	Octubre	2023-10-29T00:00:00	2024-11-08T07:00:00	8	Radiación solar	32
55785	7	Sololá	701	Sololá	1	Sololá	10	Octubre	2023-10-29T00:00:00	2024-11-08T08:00:00	2	Temperatura media	16.5
55786	7	Sololá	701	Sololá	1	Sololá	10	Octubre	2023-10-29T00:00:00	2024-11-08T08:00:00	4	Temperatura máxima	16.5
55787	7	Sololá	701	Sololá	1	Sololá	10	Octubre	2023-10-29T00:00:00	2024-11-08T08:00:00	3	Temperatura mínima	15.1
55788	7	Sololá	701	Sololá	1	Sololá	10	Octubre	2023-10-29T00:00:00	2024-11-08T08:00:00	5	Humedad	86
55789	7	Sololá	701	Sololá	1	Sololá	10	Octubre	2023-10-29T00:00:00	2024-11-08T08:00:00	6	Velocidad del viento	0
55790	7	Sololá	701	Sololá	1	Sololá	10	Octubre	2023-10-29T00:00:00	2024-11-08T08:00:00	7	Dirección del viento	0
55791	7	Sololá	701	Sololá	1	Sololá	10	Octubre	2023-10-29T00:00:00	2024-11-08T08:00:00	1	Precipitación	0
55792	7	Sololá	701	Sololá	1	Sololá	10	Octubre	2023-10-29T00:00:00	2024-11-08T08:00:00	8	Radiación solar	91
55793	7	Sololá	701	Sololá	1	Sololá	10	Octubre	2023-10-29T00:00:00	2024-11-08T09:00:00	2	Temperatura media	20.8
55794	7	Sololá	701	Sololá	1	Sololá	10	Octubre	2023-10-29T00:00:00	2024-11-08T09:00:00	4	Temperatura máxima	20.8
55795	7	Sololá	701	Sololá	1	Sololá	10	Octubre	2023-10-29T00:00:00	2024-11-08T09:00:00	3	Temperatura mínima	16.4
55796	7	Sololá	701	Sololá	1	Sololá	10	Octubre	2023-10-29T00:00:00	2024-11-08T09:00:00	5	Humedad	74
55797	7	Sololá	701	Sololá	1	Sololá	10	Octubre	2023-10-29T00:00:00	2024-11-08T09:00:00	6	Velocidad del viento	0
55798	7	Sololá	701	Sololá	1	Sololá	10	Octubre	2023-10-29T00:00:00	2024-11-08T09:00:00	7	Dirección del viento	0
55799	7	Sololá	701	Sololá	1	Sololá	10	Octubre	2023-10-29T00:00:00	2024-11-08T09:00:00	1	Precipitación	0
55800	7	Sololá	701	Sololá	1	Sololá	10	Octubre	2023-10-29T00:00:00	2024-11-08T09:00:00	8	Radiación solar	621
55801	7	Sololá	701	Sololá	1	Sololá	10	Octubre	2023-10-29T00:00:00	2024-11-08T10:00:00	2	Temperatura media	21
55802	7	Sololá	701	Sololá	1	Sololá	10	Octubre	2023-10-29T00:00:00	2024-11-08T10:00:00	4	Temperatura máxima	21.5
55803	7	Sololá	701	Sololá	1	Sololá	10	Octubre	2023-10-29T00:00:00	2024-11-08T10:00:00	3	Temperatura mínima	20.4
55804	7	Sololá	701	Sololá	1	Sololá	10	Octubre	2023-10-29T00:00:00	2024-11-08T10:00:00	5	Humedad	71
55805	7	Sololá	701	Sololá	1	Sololá	10	Octubre	2023-10-29T00:00:00	2024-11-08T10:00:00	6	Velocidad del viento	0
55806	7	Sololá	701	Sololá	1	Sololá	10	Octubre	2023-10-29T00:00:00	2024-11-08T10:00:00	7	Dirección del viento	0
55807	7	Sololá	701	Sololá	1	Sololá	10	Octubre	2023-10-29T00:00:00	2024-11-08T10:00:00	1	Precipitación	0
55808	7	Sololá	701	Sololá	1	Sololá	10	Octubre	2023-10-29T00:00:00	2024-11-08T10:00:00	8	Radiación solar	623
55809	7	Sololá	701	Sololá	1	Sololá	10	Octubre	2023-10-29T00:00:00	2024-11-08T11:00:00	2	Temperatura media	21.8
55810	7	Sololá	701	Sololá	1	Sololá	10	Octubre	2023-10-29T00:00:00	2024-11-08T11:00:00	4	Temperatura máxima	22.1
55811	7	Sololá	701	Sololá	1	Sololá	10	Octubre	2023-10-29T00:00:00	2024-11-08T11:00:00	3	Temperatura mínima	20.9
55812	7	Sololá	701	Sololá	1	Sololá	10	Octubre	2023-10-29T00:00:00	2024-11-08T11:00:00	5	Humedad	69
55813	7	Sololá	701	Sololá	1	Sololá	10	Octubre	2023-10-29T00:00:00	2024-11-08T11:00:00	6	Velocidad del viento	0
55814	7	Sololá	701	Sololá	1	Sololá	10	Octubre	2023-10-29T00:00:00	2024-11-08T11:00:00	7	Dirección del viento	0
55815	7	Sololá	701	Sololá	1	Sololá	10	Octubre	2023-10-29T00:00:00	2024-11-08T11:00:00	1	Precipitación	0
55816	7	Sololá	701	Sololá	1	Sololá	10	Octubre	2023-10-29T00:00:00	2024-11-08T11:00:00	8	Radiación solar	612
55817	7	Sololá	701	Sololá	1	Sololá	10	Octubre	2023-10-29T00:00:00	2024-11-08T12:00:00	2	Temperatura media	22.4
55818	7	Sololá	701	Sololá	1	Sololá	10	Octubre	2023-10-29T00:00:00	2024-11-08T12:00:00	4	Temperatura máxima	22.9
55819	7	Sololá	701	Sololá	1	Sololá	10	Octubre	2023-10-29T00:00:00	2024-11-08T12:00:00	3	Temperatura mínima	21.6
55820	7	Sololá	701	Sololá	1	Sololá	10	Octubre	2023-10-29T00:00:00	2024-11-08T12:00:00	5	Humedad	64
55821	7	Sololá	701	Sololá	1	Sololá	10	Octubre	2023-10-29T00:00:00	2024-11-08T12:00:00	6	Velocidad del viento	0
55822	7	Sololá	701	Sololá	1	Sololá	10	Octubre	2023-10-29T00:00:00	2024-11-08T12:00:00	7	Dirección del viento	0
55823	7	Sololá	701	Sololá	1	Sololá	10	Octubre	2023-10-29T00:00:00	2024-11-08T12:00:00	1	Precipitación	0
55824	7	Sololá	701	Sololá	1	Sololá	10	Octubre	2023-10-29T00:00:00	2024-11-08T12:00:00	8	Radiación solar	425
55825	7	Sololá	701	Sololá	1	Sololá	10	Octubre	2023-10-29T00:00:00	2024-11-08T13:00:00	2	Temperatura media	21.9
55826	7	Sololá	701	Sololá	1	Sololá	10	Octubre	2023-10-29T00:00:00	2024-11-08T13:00:00	4	Temperatura máxima	22.4
55827	7	Sololá	701	Sololá	1	Sololá	10	Octubre	2023-10-29T00:00:00	2024-11-08T13:00:00	3	Temperatura mínima	21.9
55828	7	Sololá	701	Sololá	1	Sololá	10	Octubre	2023-10-29T00:00:00	2024-11-08T13:00:00	5	Humedad	69
55829	7	Sololá	701	Sololá	1	Sololá	10	Octubre	2023-10-29T00:00:00	2024-11-08T13:00:00	6	Velocidad del viento	0
55830	7	Sololá	701	Sololá	1	Sololá	10	Octubre	2023-10-29T00:00:00	2024-11-08T13:00:00	7	Dirección del viento	0
55831	7	Sololá	701	Sololá	1	Sololá	10	Octubre	2023-10-29T00:00:00	2024-11-08T13:00:00	1	Precipitación	0
55832	7	Sololá	701	Sololá	1	Sololá	10	Octubre	2023-10-29T00:00:00	2024-11-08T13:00:00	8	Radiación solar	288
55833	7	Sololá	701	Sololá	1	Sololá	10	Octubre	2023-10-29T00:00:00	2024-11-08T14:00:00	2	Temperatura media	21.7
55834	7	Sololá	701	Sololá	1	Sololá	10	Octubre	2023-10-29T00:00:00	2024-11-08T14:00:00	4	Temperatura máxima	22.2
55835	7	Sololá	701	Sololá	1	Sololá	10	Octubre	2023-10-29T00:00:00	2024-11-08T14:00:00	3	Temperatura mínima	21.6
55836	7	Sololá	701	Sololá	1	Sololá	10	Octubre	2023-10-29T00:00:00	2024-11-08T14:00:00	5	Humedad	72
55837	7	Sololá	701	Sololá	1	Sololá	10	Octubre	2023-10-29T00:00:00	2024-11-08T14:00:00	6	Velocidad del viento	0
55838	7	Sololá	701	Sololá	1	Sololá	10	Octubre	2023-10-29T00:00:00	2024-11-08T14:00:00	7	Dirección del viento	0
55839	7	Sololá	701	Sololá	1	Sololá	10	Octubre	2023-10-29T00:00:00	2024-11-08T14:00:00	1	Precipitación	0
55840	7	Sololá	701	Sololá	1	Sololá	10	Octubre	2023-10-29T00:00:00	2024-11-08T14:00:00	8	Radiación solar	276
55841	7	Sololá	701	Sololá	1	Sololá	10	Octubre	2023-10-29T00:00:00	2024-11-08T15:00:00	2	Temperatura media	20.3
55842	7	Sololá	701	Sololá	1	Sololá	10	Octubre	2023-10-29T00:00:00	2024-11-08T15:00:00	4	Temperatura máxima	22.1
55843	7	Sololá	701	Sololá	1	Sololá	10	Octubre	2023-10-29T00:00:00	2024-11-08T15:00:00	3	Temperatura mínima	20.3
55844	7	Sololá	701	Sololá	1	Sololá	10	Octubre	2023-10-29T00:00:00	2024-11-08T15:00:00	5	Humedad	75
55845	7	Sololá	701	Sololá	1	Sololá	10	Octubre	2023-10-29T00:00:00	2024-11-08T15:00:00	6	Velocidad del viento	0
55846	7	Sololá	701	Sololá	1	Sololá	10	Octubre	2023-10-29T00:00:00	2024-11-08T15:00:00	7	Dirección del viento	0
55847	7	Sololá	701	Sololá	1	Sololá	10	Octubre	2023-10-29T00:00:00	2024-11-08T15:00:00	1	Precipitación	0
55848	7	Sololá	701	Sololá	1	Sololá	10	Octubre	2023-10-29T00:00:00	2024-11-08T15:00:00	8	Radiación solar	184
55849	7	Sololá	701	Sololá	1	Sololá	10	Octubre	2023-10-29T00:00:00	2024-11-08T16:00:00	2	Temperatura media	18
55850	7	Sololá	701	Sololá	1	Sololá	10	Octubre	2023-10-29T00:00:00	2024-11-08T16:00:00	4	Temperatura máxima	20.4
55851	7	Sololá	701	Sololá	1	Sololá	10	Octubre	2023-10-29T00:00:00	2024-11-08T16:00:00	3	Temperatura mínima	18
55852	7	Sololá	701	Sololá	1	Sololá	10	Octubre	2023-10-29T00:00:00	2024-11-08T16:00:00	5	Humedad	79
55853	7	Sololá	701	Sololá	1	Sololá	10	Octubre	2023-10-29T00:00:00	2024-11-08T16:00:00	6	Velocidad del viento	0
55854	7	Sololá	701	Sololá	1	Sololá	10	Octubre	2023-10-29T00:00:00	2024-11-08T16:00:00	7	Dirección del viento	0
55855	7	Sololá	701	Sololá	1	Sololá	10	Octubre	2023-10-29T00:00:00	2024-11-08T16:00:00	1	Precipitación	0
55856	7	Sololá	701	Sololá	1	Sololá	10	Octubre	2023-10-29T00:00:00	2024-11-08T16:00:00	8	Radiación solar	66
55857	7	Sololá	701	Sololá	1	Sololá	10	Octubre	2023-10-29T00:00:00	2024-11-08T17:00:00	2	Temperatura media	17
55858	7	Sololá	701	Sololá	1	Sololá	10	Octubre	2023-10-29T00:00:00	2024-11-08T17:00:00	4	Temperatura máxima	18
55859	7	Sololá	701	Sololá	1	Sololá	10	Octubre	2023-10-29T00:00:00	2024-11-08T17:00:00	3	Temperatura mínima	17
55860	7	Sololá	701	Sololá	1	Sololá	10	Octubre	2023-10-29T00:00:00	2024-11-08T17:00:00	5	Humedad	82
55861	7	Sololá	701	Sololá	1	Sololá	10	Octubre	2023-10-29T00:00:00	2024-11-08T17:00:00	6	Velocidad del viento	0
55862	7	Sololá	701	Sololá	1	Sololá	10	Octubre	2023-10-29T00:00:00	2024-11-08T17:00:00	7	Dirección del viento	0
55863	7	Sololá	701	Sololá	1	Sololá	10	Octubre	2023-10-29T00:00:00	2024-11-08T17:00:00	1	Precipitación	0
55864	7	Sololá	701	Sololá	1	Sololá	10	Octubre	2023-10-29T00:00:00	2024-11-08T17:00:00	8	Radiación solar	28
55865	7	Sololá	701	Sololá	1	Sololá	10	Octubre	2023-10-29T00:00:00	2024-11-08T18:00:00	2	Temperatura media	16.2
55866	7	Sololá	701	Sololá	1	Sololá	10	Octubre	2023-10-29T00:00:00	2024-11-08T18:00:00	4	Temperatura máxima	17.1
55867	7	Sololá	701	Sololá	1	Sololá	10	Octubre	2023-10-29T00:00:00	2024-11-08T18:00:00	3	Temperatura mínima	16.2
55868	7	Sololá	701	Sololá	1	Sololá	10	Octubre	2023-10-29T00:00:00	2024-11-08T18:00:00	5	Humedad	84
55869	7	Sololá	701	Sololá	1	Sololá	10	Octubre	2023-10-29T00:00:00	2024-11-08T18:00:00	6	Velocidad del viento	0
55870	7	Sololá	701	Sololá	1	Sololá	10	Octubre	2023-10-29T00:00:00	2024-11-08T18:00:00	7	Dirección del viento	0
55871	7	Sololá	701	Sololá	1	Sololá	10	Octubre	2023-10-29T00:00:00	2024-11-08T18:00:00	1	Precipitación	0
55872	7	Sololá	701	Sololá	1	Sololá	10	Octubre	2023-10-29T00:00:00	2024-11-08T18:00:00	8	Radiación solar	1
55873	7	Sololá	701	Sololá	1	Sololá	10	Octubre	2023-10-29T00:00:00	2024-11-08T19:00:00	2	Temperatura media	15.9
55874	7	Sololá	701	Sololá	1	Sololá	10	Octubre	2023-10-29T00:00:00	2024-11-08T19:00:00	4	Temperatura máxima	16.2
55875	7	Sololá	701	Sololá	1	Sololá	10	Octubre	2023-10-29T00:00:00	2024-11-08T19:00:00	3	Temperatura mínima	15.9
55876	7	Sololá	701	Sololá	1	Sololá	10	Octubre	2023-10-29T00:00:00	2024-11-08T19:00:00	5	Humedad	85
55877	7	Sololá	701	Sololá	1	Sololá	10	Octubre	2023-10-29T00:00:00	2024-11-08T19:00:00	6	Velocidad del viento	0
55878	7	Sololá	701	Sololá	1	Sololá	10	Octubre	2023-10-29T00:00:00	2024-11-08T19:00:00	7	Dirección del viento	0
55879	7	Sololá	701	Sololá	1	Sololá	10	Octubre	2023-10-29T00:00:00	2024-11-08T19:00:00	1	Precipitación	0
55880	7	Sololá	701	Sololá	1	Sololá	10	Octubre	2023-10-29T00:00:00	2024-11-08T19:00:00	8	Radiación solar	0
55881	7	Sololá	701	Sololá	1	Sololá	10	Octubre	2023-10-29T00:00:00	2024-11-08T20:00:00	2	Temperatura media	15.6
55882	7	Sololá	701	Sololá	1	Sololá	10	Octubre	2023-10-29T00:00:00	2024-11-08T20:00:00	4	Temperatura máxima	15.9
55883	7	Sololá	701	Sololá	1	Sololá	10	Octubre	2023-10-29T00:00:00	2024-11-08T20:00:00	3	Temperatura mínima	15.6
55884	7	Sololá	701	Sololá	1	Sololá	10	Octubre	2023-10-29T00:00:00	2024-11-08T20:00:00	5	Humedad	88
55885	7	Sololá	701	Sololá	1	Sololá	10	Octubre	2023-10-29T00:00:00	2024-11-08T20:00:00	6	Velocidad del viento	0
55886	7	Sololá	701	Sololá	1	Sololá	10	Octubre	2023-10-29T00:00:00	2024-11-08T20:00:00	7	Dirección del viento	0
55887	7	Sololá	701	Sololá	1	Sololá	10	Octubre	2023-10-29T00:00:00	2024-11-08T20:00:00	1	Precipitación	0
55888	7	Sololá	701	Sololá	1	Sololá	10	Octubre	2023-10-29T00:00:00	2024-11-08T20:00:00	8	Radiación solar	0
55889	7	Sololá	701	Sololá	1	Sololá	10	Octubre	2023-10-29T00:00:00	2024-11-08T21:00:00	2	Temperatura media	15.3
55890	7	Sololá	701	Sololá	1	Sololá	10	Octubre	2023-10-29T00:00:00	2024-11-08T21:00:00	4	Temperatura máxima	15.6
55891	7	Sololá	701	Sololá	1	Sololá	10	Octubre	2023-10-29T00:00:00	2024-11-08T21:00:00	3	Temperatura mínima	15.3
55892	7	Sololá	701	Sololá	1	Sololá	10	Octubre	2023-10-29T00:00:00	2024-11-08T21:00:00	5	Humedad	88
55893	7	Sololá	701	Sololá	1	Sololá	10	Octubre	2023-10-29T00:00:00	2024-11-08T21:00:00	6	Velocidad del viento	0
55894	7	Sololá	701	Sololá	1	Sololá	10	Octubre	2023-10-29T00:00:00	2024-11-08T21:00:00	7	Dirección del viento	0
55895	7	Sololá	701	Sololá	1	Sololá	10	Octubre	2023-10-29T00:00:00	2024-11-08T21:00:00	1	Precipitación	0
55896	7	Sololá	701	Sololá	1	Sololá	10	Octubre	2023-10-29T00:00:00	2024-11-08T21:00:00	8	Radiación solar	0
55897	7	Sololá	701	Sololá	1	Sololá	10	Octubre	2023-10-29T00:00:00	2024-11-08T22:00:00	2	Temperatura media	15.2
55898	7	Sololá	701	Sololá	1	Sololá	10	Octubre	2023-10-29T00:00:00	2024-11-08T22:00:00	4	Temperatura máxima	15.3
55899	7	Sololá	701	Sololá	1	Sololá	10	Octubre	2023-10-29T00:00:00	2024-11-08T22:00:00	3	Temperatura mínima	15.2
55900	7	Sololá	701	Sololá	1	Sololá	10	Octubre	2023-10-29T00:00:00	2024-11-08T22:00:00	5	Humedad	88
55901	7	Sololá	701	Sololá	1	Sololá	10	Octubre	2023-10-29T00:00:00	2024-11-08T22:00:00	6	Velocidad del viento	0
55902	7	Sololá	701	Sololá	1	Sololá	10	Octubre	2023-10-29T00:00:00	2024-11-08T22:00:00	7	Dirección del viento	0
55903	7	Sololá	701	Sololá	1	Sololá	10	Octubre	2023-10-29T00:00:00	2024-11-08T22:00:00	1	Precipitación	0
55904	7	Sololá	701	Sololá	1	Sololá	10	Octubre	2023-10-29T00:00:00	2024-11-08T22:00:00	8	Radiación solar	0
55905	7	Sololá	701	Sololá	1	Sololá	10	Octubre	2023-10-29T00:00:00	2024-11-08T23:00:00	2	Temperatura media	15.4
55906	7	Sololá	701	Sololá	1	Sololá	10	Octubre	2023-10-29T00:00:00	2024-11-08T23:00:00	4	Temperatura máxima	15.4
55907	7	Sololá	701	Sololá	1	Sololá	10	Octubre	2023-10-29T00:00:00	2024-11-08T23:00:00	3	Temperatura mínima	15.2
55908	7	Sololá	701	Sololá	1	Sololá	10	Octubre	2023-10-29T00:00:00	2024-11-08T23:00:00	5	Humedad	87
55909	7	Sololá	701	Sololá	1	Sololá	10	Octubre	2023-10-29T00:00:00	2024-11-08T23:00:00	6	Velocidad del viento	0
55910	7	Sololá	701	Sololá	1	Sololá	10	Octubre	2023-10-29T00:00:00	2024-11-08T23:00:00	7	Dirección del viento	0
55911	7	Sololá	701	Sololá	1	Sololá	10	Octubre	2023-10-29T00:00:00	2024-11-08T23:00:00	1	Precipitación	0
55912	7	Sololá	701	Sololá	1	Sololá	10	Octubre	2023-10-29T00:00:00	2024-11-08T23:00:00	8	Radiación solar	0
55913	7	Sololá	701	Sololá	1	Sololá	10	Octubre	2023-10-30T00:00:00	2024-11-08T00:00:00	2	Temperatura media	15.6
55914	7	Sololá	701	Sololá	1	Sololá	10	Octubre	2023-10-30T00:00:00	2024-11-08T00:00:00	4	Temperatura máxima	15.6
55915	7	Sololá	701	Sololá	1	Sololá	10	Octubre	2023-10-30T00:00:00	2024-11-08T00:00:00	3	Temperatura mínima	15.4
55916	7	Sololá	701	Sololá	1	Sololá	10	Octubre	2023-10-30T00:00:00	2024-11-08T00:00:00	5	Humedad	88
55917	7	Sololá	701	Sololá	1	Sololá	10	Octubre	2023-10-30T00:00:00	2024-11-08T00:00:00	6	Velocidad del viento	0
55918	7	Sololá	701	Sololá	1	Sololá	10	Octubre	2023-10-30T00:00:00	2024-11-08T00:00:00	7	Dirección del viento	0
55919	7	Sololá	701	Sololá	1	Sololá	10	Octubre	2023-10-30T00:00:00	2024-11-08T00:00:00	1	Precipitación	0
55920	7	Sololá	701	Sololá	1	Sololá	10	Octubre	2023-10-30T00:00:00	2024-11-08T00:00:00	8	Radiación solar	0
55921	7	Sololá	701	Sololá	1	Sololá	10	Octubre	2023-10-30T00:00:00	2024-11-08T01:00:00	2	Temperatura media	14.8
55922	7	Sololá	701	Sololá	1	Sololá	10	Octubre	2023-10-30T00:00:00	2024-11-08T01:00:00	4	Temperatura máxima	15.6
55923	7	Sololá	701	Sololá	1	Sololá	10	Octubre	2023-10-30T00:00:00	2024-11-08T01:00:00	3	Temperatura mínima	14.8
55924	7	Sololá	701	Sololá	1	Sololá	10	Octubre	2023-10-30T00:00:00	2024-11-08T01:00:00	5	Humedad	92
55925	7	Sololá	701	Sololá	1	Sololá	10	Octubre	2023-10-30T00:00:00	2024-11-08T01:00:00	6	Velocidad del viento	0
55926	7	Sololá	701	Sololá	1	Sololá	10	Octubre	2023-10-30T00:00:00	2024-11-08T01:00:00	7	Dirección del viento	0
55927	7	Sololá	701	Sololá	1	Sololá	10	Octubre	2023-10-30T00:00:00	2024-11-08T01:00:00	1	Precipitación	0
55928	7	Sololá	701	Sololá	1	Sololá	10	Octubre	2023-10-30T00:00:00	2024-11-08T01:00:00	8	Radiación solar	0
55929	7	Sololá	701	Sololá	1	Sololá	10	Octubre	2023-10-30T00:00:00	2024-11-08T02:00:00	2	Temperatura media	14.7
55930	7	Sololá	701	Sololá	1	Sololá	10	Octubre	2023-10-30T00:00:00	2024-11-08T02:00:00	4	Temperatura máxima	14.9
55931	7	Sololá	701	Sololá	1	Sololá	10	Octubre	2023-10-30T00:00:00	2024-11-08T02:00:00	3	Temperatura mínima	14.7
55932	7	Sololá	701	Sololá	1	Sololá	10	Octubre	2023-10-30T00:00:00	2024-11-08T02:00:00	5	Humedad	90
55933	7	Sololá	701	Sololá	1	Sololá	10	Octubre	2023-10-30T00:00:00	2024-11-08T02:00:00	6	Velocidad del viento	0
55934	7	Sololá	701	Sololá	1	Sololá	10	Octubre	2023-10-30T00:00:00	2024-11-08T02:00:00	7	Dirección del viento	0
55935	7	Sololá	701	Sololá	1	Sololá	10	Octubre	2023-10-30T00:00:00	2024-11-08T02:00:00	1	Precipitación	0
55936	7	Sololá	701	Sololá	1	Sololá	10	Octubre	2023-10-30T00:00:00	2024-11-08T02:00:00	8	Radiación solar	0
55937	7	Sololá	701	Sololá	1	Sololá	10	Octubre	2023-10-30T00:00:00	2024-11-08T03:00:00	2	Temperatura media	14.7
55938	7	Sololá	701	Sololá	1	Sololá	10	Octubre	2023-10-30T00:00:00	2024-11-08T03:00:00	4	Temperatura máxima	14.7
55939	7	Sololá	701	Sololá	1	Sololá	10	Octubre	2023-10-30T00:00:00	2024-11-08T03:00:00	3	Temperatura mínima	14.6
55940	7	Sololá	701	Sololá	1	Sololá	10	Octubre	2023-10-30T00:00:00	2024-11-08T03:00:00	5	Humedad	89
55941	7	Sololá	701	Sololá	1	Sololá	10	Octubre	2023-10-30T00:00:00	2024-11-08T03:00:00	6	Velocidad del viento	0
55942	7	Sololá	701	Sololá	1	Sololá	10	Octubre	2023-10-30T00:00:00	2024-11-08T03:00:00	7	Dirección del viento	0
55943	7	Sololá	701	Sololá	1	Sololá	10	Octubre	2023-10-30T00:00:00	2024-11-08T03:00:00	1	Precipitación	0
55944	7	Sololá	701	Sololá	1	Sololá	10	Octubre	2023-10-30T00:00:00	2024-11-08T03:00:00	8	Radiación solar	0
55945	7	Sololá	701	Sololá	1	Sololá	10	Octubre	2023-10-30T00:00:00	2024-11-08T04:00:00	2	Temperatura media	14.6
55946	7	Sololá	701	Sololá	1	Sololá	10	Octubre	2023-10-30T00:00:00	2024-11-08T04:00:00	4	Temperatura máxima	14.7
55947	7	Sololá	701	Sololá	1	Sololá	10	Octubre	2023-10-30T00:00:00	2024-11-08T04:00:00	3	Temperatura mínima	14.6
55948	7	Sololá	701	Sololá	1	Sololá	10	Octubre	2023-10-30T00:00:00	2024-11-08T04:00:00	5	Humedad	89
55949	7	Sololá	701	Sololá	1	Sololá	10	Octubre	2023-10-30T00:00:00	2024-11-08T04:00:00	6	Velocidad del viento	0
55950	7	Sololá	701	Sololá	1	Sololá	10	Octubre	2023-10-30T00:00:00	2024-11-08T04:00:00	7	Dirección del viento	0
55951	7	Sololá	701	Sololá	1	Sololá	10	Octubre	2023-10-30T00:00:00	2024-11-08T04:00:00	1	Precipitación	0
55952	7	Sololá	701	Sololá	1	Sololá	10	Octubre	2023-10-30T00:00:00	2024-11-08T04:00:00	8	Radiación solar	0
55953	7	Sololá	701	Sololá	1	Sololá	10	Octubre	2023-10-30T00:00:00	2024-11-08T05:00:00	2	Temperatura media	14.2
55954	7	Sololá	701	Sololá	1	Sololá	10	Octubre	2023-10-30T00:00:00	2024-11-08T05:00:00	4	Temperatura máxima	14.7
55955	7	Sololá	701	Sololá	1	Sololá	10	Octubre	2023-10-30T00:00:00	2024-11-08T05:00:00	3	Temperatura mínima	14.2
55956	7	Sololá	701	Sololá	1	Sololá	10	Octubre	2023-10-30T00:00:00	2024-11-08T05:00:00	5	Humedad	90
55957	7	Sololá	701	Sololá	1	Sololá	10	Octubre	2023-10-30T00:00:00	2024-11-08T05:00:00	6	Velocidad del viento	0
55958	7	Sololá	701	Sololá	1	Sololá	10	Octubre	2023-10-30T00:00:00	2024-11-08T05:00:00	7	Dirección del viento	0
55959	7	Sololá	701	Sololá	1	Sololá	10	Octubre	2023-10-30T00:00:00	2024-11-08T05:00:00	1	Precipitación	0
55960	7	Sololá	701	Sololá	1	Sololá	10	Octubre	2023-10-30T00:00:00	2024-11-08T05:00:00	8	Radiación solar	0
55961	7	Sololá	701	Sololá	1	Sololá	10	Octubre	2023-10-30T00:00:00	2024-11-08T06:00:00	2	Temperatura media	13.9
55962	7	Sololá	701	Sololá	1	Sololá	10	Octubre	2023-10-30T00:00:00	2024-11-08T06:00:00	4	Temperatura máxima	14.2
55963	7	Sololá	701	Sololá	1	Sololá	10	Octubre	2023-10-30T00:00:00	2024-11-08T06:00:00	3	Temperatura mínima	13.9
55964	7	Sololá	701	Sololá	1	Sololá	10	Octubre	2023-10-30T00:00:00	2024-11-08T06:00:00	5	Humedad	91
55965	7	Sololá	701	Sololá	1	Sololá	10	Octubre	2023-10-30T00:00:00	2024-11-08T06:00:00	6	Velocidad del viento	0
55966	7	Sololá	701	Sololá	1	Sololá	10	Octubre	2023-10-30T00:00:00	2024-11-08T06:00:00	7	Dirección del viento	0
55967	7	Sololá	701	Sololá	1	Sololá	10	Octubre	2023-10-30T00:00:00	2024-11-08T06:00:00	1	Precipitación	0
55968	7	Sololá	701	Sololá	1	Sololá	10	Octubre	2023-10-30T00:00:00	2024-11-08T06:00:00	8	Radiación solar	0
55969	7	Sololá	701	Sololá	1	Sololá	10	Octubre	2023-10-30T00:00:00	2024-11-08T07:00:00	2	Temperatura media	14.4
55970	7	Sololá	701	Sololá	1	Sololá	10	Octubre	2023-10-30T00:00:00	2024-11-08T07:00:00	4	Temperatura máxima	14.4
55971	7	Sololá	701	Sololá	1	Sololá	10	Octubre	2023-10-30T00:00:00	2024-11-08T07:00:00	3	Temperatura mínima	13.9
55972	7	Sololá	701	Sololá	1	Sololá	10	Octubre	2023-10-30T00:00:00	2024-11-08T07:00:00	5	Humedad	90
55973	7	Sololá	701	Sololá	1	Sololá	10	Octubre	2023-10-30T00:00:00	2024-11-08T07:00:00	6	Velocidad del viento	0
55974	7	Sololá	701	Sololá	1	Sololá	10	Octubre	2023-10-30T00:00:00	2024-11-08T07:00:00	7	Dirección del viento	0
55975	7	Sololá	701	Sololá	1	Sololá	10	Octubre	2023-10-30T00:00:00	2024-11-08T07:00:00	1	Precipitación	0
55976	7	Sololá	701	Sololá	1	Sololá	10	Octubre	2023-10-30T00:00:00	2024-11-08T07:00:00	8	Radiación solar	20
55977	7	Sololá	701	Sololá	1	Sololá	10	Octubre	2023-10-30T00:00:00	2024-11-08T08:00:00	2	Temperatura media	16.2
55978	7	Sololá	701	Sololá	1	Sololá	10	Octubre	2023-10-30T00:00:00	2024-11-08T08:00:00	4	Temperatura máxima	16.2
55979	7	Sololá	701	Sololá	1	Sololá	10	Octubre	2023-10-30T00:00:00	2024-11-08T08:00:00	3	Temperatura mínima	14.4
55980	7	Sololá	701	Sololá	1	Sololá	10	Octubre	2023-10-30T00:00:00	2024-11-08T08:00:00	5	Humedad	85
55981	7	Sololá	701	Sololá	1	Sololá	10	Octubre	2023-10-30T00:00:00	2024-11-08T08:00:00	6	Velocidad del viento	0
55982	7	Sololá	701	Sololá	1	Sololá	10	Octubre	2023-10-30T00:00:00	2024-11-08T08:00:00	7	Dirección del viento	0
55983	7	Sololá	701	Sololá	1	Sololá	10	Octubre	2023-10-30T00:00:00	2024-11-08T08:00:00	1	Precipitación	0
55984	7	Sololá	701	Sololá	1	Sololá	10	Octubre	2023-10-30T00:00:00	2024-11-08T08:00:00	8	Radiación solar	85
55985	7	Sololá	701	Sololá	1	Sololá	10	Octubre	2023-10-30T00:00:00	2024-11-08T09:00:00	2	Temperatura media	20.8
55986	7	Sololá	701	Sololá	1	Sololá	10	Octubre	2023-10-30T00:00:00	2024-11-08T09:00:00	4	Temperatura máxima	20.8
55987	7	Sololá	701	Sololá	1	Sololá	10	Octubre	2023-10-30T00:00:00	2024-11-08T09:00:00	3	Temperatura mínima	16.2
55988	7	Sololá	701	Sololá	1	Sololá	10	Octubre	2023-10-30T00:00:00	2024-11-08T09:00:00	5	Humedad	68
55989	7	Sololá	701	Sololá	1	Sololá	10	Octubre	2023-10-30T00:00:00	2024-11-08T09:00:00	6	Velocidad del viento	0
55990	7	Sololá	701	Sololá	1	Sololá	10	Octubre	2023-10-30T00:00:00	2024-11-08T09:00:00	7	Dirección del viento	0
55991	7	Sololá	701	Sololá	1	Sololá	10	Octubre	2023-10-30T00:00:00	2024-11-08T09:00:00	1	Precipitación	0
55992	7	Sololá	701	Sololá	1	Sololá	10	Octubre	2023-10-30T00:00:00	2024-11-08T09:00:00	8	Radiación solar	618
55993	7	Sololá	701	Sololá	1	Sololá	10	Octubre	2023-10-30T00:00:00	2024-11-08T10:00:00	2	Temperatura media	22.6
55994	7	Sololá	701	Sololá	1	Sololá	10	Octubre	2023-10-30T00:00:00	2024-11-08T10:00:00	4	Temperatura máxima	22.6
55995	7	Sololá	701	Sololá	1	Sololá	10	Octubre	2023-10-30T00:00:00	2024-11-08T10:00:00	3	Temperatura mínima	20.8
55996	7	Sololá	701	Sololá	1	Sololá	10	Octubre	2023-10-30T00:00:00	2024-11-08T10:00:00	5	Humedad	66
55997	7	Sololá	701	Sololá	1	Sololá	10	Octubre	2023-10-30T00:00:00	2024-11-08T10:00:00	6	Velocidad del viento	0
55998	7	Sololá	701	Sololá	1	Sololá	10	Octubre	2023-10-30T00:00:00	2024-11-08T10:00:00	7	Dirección del viento	0
55999	7	Sololá	701	Sololá	1	Sololá	10	Octubre	2023-10-30T00:00:00	2024-11-08T10:00:00	1	Precipitación	0
56000	7	Sololá	701	Sololá	1	Sololá	10	Octubre	2023-10-30T00:00:00	2024-11-08T10:00:00	8	Radiación solar	782
56001	7	Sololá	701	Sololá	1	Sololá	10	Octubre	2023-10-30T00:00:00	2024-11-08T11:00:00	2	Temperatura media	23.2
56002	7	Sololá	701	Sololá	1	Sololá	10	Octubre	2023-10-30T00:00:00	2024-11-08T11:00:00	4	Temperatura máxima	23.2
56003	7	Sololá	701	Sololá	1	Sololá	10	Octubre	2023-10-30T00:00:00	2024-11-08T11:00:00	3	Temperatura mínima	22.5
56004	7	Sololá	701	Sololá	1	Sololá	10	Octubre	2023-10-30T00:00:00	2024-11-08T11:00:00	5	Humedad	64
56005	7	Sololá	701	Sololá	1	Sololá	10	Octubre	2023-10-30T00:00:00	2024-11-08T11:00:00	6	Velocidad del viento	0
56006	7	Sololá	701	Sololá	1	Sololá	10	Octubre	2023-10-30T00:00:00	2024-11-08T11:00:00	7	Dirección del viento	0
56007	7	Sololá	701	Sololá	1	Sololá	10	Octubre	2023-10-30T00:00:00	2024-11-08T11:00:00	1	Precipitación	0
56008	7	Sololá	701	Sololá	1	Sololá	10	Octubre	2023-10-30T00:00:00	2024-11-08T11:00:00	8	Radiación solar	928
56009	7	Sololá	701	Sololá	1	Sololá	10	Octubre	2023-10-30T00:00:00	2024-11-08T12:00:00	2	Temperatura media	23.3
56010	7	Sololá	701	Sololá	1	Sololá	10	Octubre	2023-10-30T00:00:00	2024-11-08T12:00:00	4	Temperatura máxima	23.4
56011	7	Sololá	701	Sololá	1	Sololá	10	Octubre	2023-10-30T00:00:00	2024-11-08T12:00:00	3	Temperatura mínima	22.7
56012	7	Sololá	701	Sololá	1	Sololá	10	Octubre	2023-10-30T00:00:00	2024-11-08T12:00:00	5	Humedad	58
56013	7	Sololá	701	Sololá	1	Sololá	10	Octubre	2023-10-30T00:00:00	2024-11-08T12:00:00	6	Velocidad del viento	0
56014	7	Sololá	701	Sololá	1	Sololá	10	Octubre	2023-10-30T00:00:00	2024-11-08T12:00:00	7	Dirección del viento	0
56015	7	Sololá	701	Sololá	1	Sololá	10	Octubre	2023-10-30T00:00:00	2024-11-08T12:00:00	1	Precipitación	0
56016	7	Sololá	701	Sololá	1	Sololá	10	Octubre	2023-10-30T00:00:00	2024-11-08T12:00:00	8	Radiación solar	895
56017	7	Sololá	701	Sololá	1	Sololá	10	Octubre	2023-10-30T00:00:00	2024-11-08T13:00:00	2	Temperatura media	23.4
56018	7	Sololá	701	Sololá	1	Sololá	10	Octubre	2023-10-30T00:00:00	2024-11-08T13:00:00	4	Temperatura máxima	23.7
56019	7	Sololá	701	Sololá	1	Sololá	10	Octubre	2023-10-30T00:00:00	2024-11-08T13:00:00	3	Temperatura mínima	23.1
56020	7	Sololá	701	Sololá	1	Sololá	10	Octubre	2023-10-30T00:00:00	2024-11-08T13:00:00	5	Humedad	58
56021	7	Sololá	701	Sololá	1	Sololá	10	Octubre	2023-10-30T00:00:00	2024-11-08T13:00:00	6	Velocidad del viento	0
56022	7	Sololá	701	Sololá	1	Sololá	10	Octubre	2023-10-30T00:00:00	2024-11-08T13:00:00	7	Dirección del viento	0
56023	7	Sololá	701	Sololá	1	Sololá	10	Octubre	2023-10-30T00:00:00	2024-11-08T13:00:00	1	Precipitación	0
56024	7	Sololá	701	Sololá	1	Sololá	10	Octubre	2023-10-30T00:00:00	2024-11-08T13:00:00	8	Radiación solar	395
56025	7	Sololá	701	Sololá	1	Sololá	10	Octubre	2023-10-30T00:00:00	2024-11-08T14:00:00	2	Temperatura media	23.4
56026	7	Sololá	701	Sololá	1	Sololá	10	Octubre	2023-10-30T00:00:00	2024-11-08T14:00:00	4	Temperatura máxima	24
56027	7	Sololá	701	Sololá	1	Sololá	10	Octubre	2023-10-30T00:00:00	2024-11-08T14:00:00	3	Temperatura mínima	22.8
56028	7	Sololá	701	Sololá	1	Sololá	10	Octubre	2023-10-30T00:00:00	2024-11-08T14:00:00	5	Humedad	53
56029	7	Sololá	701	Sololá	1	Sololá	10	Octubre	2023-10-30T00:00:00	2024-11-08T14:00:00	6	Velocidad del viento	0
56030	7	Sololá	701	Sololá	1	Sololá	10	Octubre	2023-10-30T00:00:00	2024-11-08T14:00:00	7	Dirección del viento	0
56031	7	Sololá	701	Sololá	1	Sololá	10	Octubre	2023-10-30T00:00:00	2024-11-08T14:00:00	1	Precipitación	0
56032	7	Sololá	701	Sololá	1	Sololá	10	Octubre	2023-10-30T00:00:00	2024-11-08T14:00:00	8	Radiación solar	245
56033	7	Sololá	701	Sololá	1	Sololá	10	Octubre	2023-10-30T00:00:00	2024-11-08T15:00:00	2	Temperatura media	20.3
56034	7	Sololá	701	Sololá	1	Sololá	10	Octubre	2023-10-30T00:00:00	2024-11-08T15:00:00	4	Temperatura máxima	23.4
56035	7	Sololá	701	Sololá	1	Sololá	10	Octubre	2023-10-30T00:00:00	2024-11-08T15:00:00	3	Temperatura mínima	20.3
56036	7	Sololá	701	Sololá	1	Sololá	10	Octubre	2023-10-30T00:00:00	2024-11-08T15:00:00	5	Humedad	66
56037	7	Sololá	701	Sololá	1	Sololá	10	Octubre	2023-10-30T00:00:00	2024-11-08T15:00:00	6	Velocidad del viento	0
56038	7	Sololá	701	Sololá	1	Sololá	10	Octubre	2023-10-30T00:00:00	2024-11-08T15:00:00	7	Dirección del viento	0
56039	7	Sololá	701	Sololá	1	Sololá	10	Octubre	2023-10-30T00:00:00	2024-11-08T15:00:00	1	Precipitación	0
56040	7	Sololá	701	Sololá	1	Sololá	10	Octubre	2023-10-30T00:00:00	2024-11-08T15:00:00	8	Radiación solar	120
56041	7	Sololá	701	Sololá	1	Sololá	10	Octubre	2023-10-30T00:00:00	2024-11-08T16:00:00	2	Temperatura media	18.9
56042	7	Sololá	701	Sololá	1	Sololá	10	Octubre	2023-10-30T00:00:00	2024-11-08T16:00:00	4	Temperatura máxima	20.3
56043	7	Sololá	701	Sololá	1	Sololá	10	Octubre	2023-10-30T00:00:00	2024-11-08T16:00:00	3	Temperatura mínima	18.9
56044	7	Sololá	701	Sololá	1	Sololá	10	Octubre	2023-10-30T00:00:00	2024-11-08T16:00:00	5	Humedad	71
56045	7	Sololá	701	Sololá	1	Sololá	10	Octubre	2023-10-30T00:00:00	2024-11-08T16:00:00	6	Velocidad del viento	0
56046	7	Sololá	701	Sololá	1	Sololá	10	Octubre	2023-10-30T00:00:00	2024-11-08T16:00:00	7	Dirección del viento	0
56047	7	Sololá	701	Sololá	1	Sololá	10	Octubre	2023-10-30T00:00:00	2024-11-08T16:00:00	1	Precipitación	0
56048	7	Sololá	701	Sololá	1	Sololá	10	Octubre	2023-10-30T00:00:00	2024-11-08T16:00:00	8	Radiación solar	78
56049	7	Sololá	701	Sololá	1	Sololá	10	Octubre	2023-10-30T00:00:00	2024-11-08T17:00:00	2	Temperatura media	17.3
56050	7	Sololá	701	Sololá	1	Sololá	10	Octubre	2023-10-30T00:00:00	2024-11-08T17:00:00	4	Temperatura máxima	18.9
56051	7	Sololá	701	Sololá	1	Sololá	10	Octubre	2023-10-30T00:00:00	2024-11-08T17:00:00	3	Temperatura mínima	17.3
56052	7	Sololá	701	Sololá	1	Sololá	10	Octubre	2023-10-30T00:00:00	2024-11-08T17:00:00	5	Humedad	77
56053	7	Sololá	701	Sololá	1	Sololá	10	Octubre	2023-10-30T00:00:00	2024-11-08T17:00:00	6	Velocidad del viento	0
56054	7	Sololá	701	Sololá	1	Sololá	10	Octubre	2023-10-30T00:00:00	2024-11-08T17:00:00	7	Dirección del viento	0
56055	7	Sololá	701	Sololá	1	Sololá	10	Octubre	2023-10-30T00:00:00	2024-11-08T17:00:00	1	Precipitación	0
56056	7	Sololá	701	Sololá	1	Sololá	10	Octubre	2023-10-30T00:00:00	2024-11-08T17:00:00	8	Radiación solar	18
56057	7	Sololá	701	Sololá	1	Sololá	10	Octubre	2023-10-30T00:00:00	2024-11-08T18:00:00	2	Temperatura media	16.1
56058	7	Sololá	701	Sololá	1	Sololá	10	Octubre	2023-10-30T00:00:00	2024-11-08T18:00:00	4	Temperatura máxima	17.3
56059	7	Sololá	701	Sololá	1	Sololá	10	Octubre	2023-10-30T00:00:00	2024-11-08T18:00:00	3	Temperatura mínima	16.1
56060	7	Sololá	701	Sololá	1	Sololá	10	Octubre	2023-10-30T00:00:00	2024-11-08T18:00:00	5	Humedad	78
56061	7	Sololá	701	Sololá	1	Sololá	10	Octubre	2023-10-30T00:00:00	2024-11-08T18:00:00	6	Velocidad del viento	0
56062	7	Sololá	701	Sololá	1	Sololá	10	Octubre	2023-10-30T00:00:00	2024-11-08T18:00:00	7	Dirección del viento	0
56063	7	Sololá	701	Sololá	1	Sololá	10	Octubre	2023-10-30T00:00:00	2024-11-08T18:00:00	1	Precipitación	0
56064	7	Sololá	701	Sololá	1	Sololá	10	Octubre	2023-10-30T00:00:00	2024-11-08T18:00:00	8	Radiación solar	2
56065	7	Sololá	701	Sololá	1	Sololá	10	Octubre	2023-10-30T00:00:00	2024-11-08T19:00:00	2	Temperatura media	15.3
56066	7	Sololá	701	Sololá	1	Sololá	10	Octubre	2023-10-30T00:00:00	2024-11-08T19:00:00	4	Temperatura máxima	16.1
56067	7	Sololá	701	Sololá	1	Sololá	10	Octubre	2023-10-30T00:00:00	2024-11-08T19:00:00	3	Temperatura mínima	15.3
56068	7	Sololá	701	Sololá	1	Sololá	10	Octubre	2023-10-30T00:00:00	2024-11-08T19:00:00	5	Humedad	77
56069	7	Sololá	701	Sololá	1	Sololá	10	Octubre	2023-10-30T00:00:00	2024-11-08T19:00:00	6	Velocidad del viento	0
56070	7	Sololá	701	Sololá	1	Sololá	10	Octubre	2023-10-30T00:00:00	2024-11-08T19:00:00	7	Dirección del viento	0
56071	7	Sololá	701	Sololá	1	Sololá	10	Octubre	2023-10-30T00:00:00	2024-11-08T19:00:00	1	Precipitación	0
56072	7	Sololá	701	Sololá	1	Sololá	10	Octubre	2023-10-30T00:00:00	2024-11-08T19:00:00	8	Radiación solar	0
56073	7	Sololá	701	Sololá	1	Sololá	10	Octubre	2023-10-30T00:00:00	2024-11-08T20:00:00	2	Temperatura media	14.9
56074	7	Sololá	701	Sololá	1	Sololá	10	Octubre	2023-10-30T00:00:00	2024-11-08T20:00:00	4	Temperatura máxima	15.4
56075	7	Sololá	701	Sololá	1	Sololá	10	Octubre	2023-10-30T00:00:00	2024-11-08T20:00:00	3	Temperatura mínima	14.9
56076	7	Sololá	701	Sololá	1	Sololá	10	Octubre	2023-10-30T00:00:00	2024-11-08T20:00:00	5	Humedad	81
56077	7	Sololá	701	Sololá	1	Sololá	10	Octubre	2023-10-30T00:00:00	2024-11-08T20:00:00	6	Velocidad del viento	0
56078	7	Sololá	701	Sololá	1	Sololá	10	Octubre	2023-10-30T00:00:00	2024-11-08T20:00:00	7	Dirección del viento	0
56079	7	Sololá	701	Sololá	1	Sololá	10	Octubre	2023-10-30T00:00:00	2024-11-08T20:00:00	1	Precipitación	0
56080	7	Sololá	701	Sololá	1	Sololá	10	Octubre	2023-10-30T00:00:00	2024-11-08T20:00:00	8	Radiación solar	0
56081	7	Sololá	701	Sololá	1	Sololá	10	Octubre	2023-10-30T00:00:00	2024-11-08T21:00:00	2	Temperatura media	14.9
56082	7	Sololá	701	Sololá	1	Sololá	10	Octubre	2023-10-30T00:00:00	2024-11-08T21:00:00	4	Temperatura máxima	15.1
56083	7	Sololá	701	Sololá	1	Sololá	10	Octubre	2023-10-30T00:00:00	2024-11-08T21:00:00	3	Temperatura mínima	14.9
56084	7	Sololá	701	Sololá	1	Sololá	10	Octubre	2023-10-30T00:00:00	2024-11-08T21:00:00	5	Humedad	82
56085	7	Sololá	701	Sololá	1	Sololá	10	Octubre	2023-10-30T00:00:00	2024-11-08T21:00:00	6	Velocidad del viento	0
56086	7	Sololá	701	Sololá	1	Sololá	10	Octubre	2023-10-30T00:00:00	2024-11-08T21:00:00	7	Dirección del viento	0
56087	7	Sololá	701	Sololá	1	Sololá	10	Octubre	2023-10-30T00:00:00	2024-11-08T21:00:00	1	Precipitación	0
56088	7	Sololá	701	Sololá	1	Sololá	10	Octubre	2023-10-30T00:00:00	2024-11-08T21:00:00	8	Radiación solar	0
56089	7	Sololá	701	Sololá	1	Sololá	10	Octubre	2023-10-30T00:00:00	2024-11-08T22:00:00	2	Temperatura media	14.7
56090	7	Sololá	701	Sololá	1	Sololá	10	Octubre	2023-10-30T00:00:00	2024-11-08T22:00:00	4	Temperatura máxima	14.9
56091	7	Sololá	701	Sololá	1	Sololá	10	Octubre	2023-10-30T00:00:00	2024-11-08T22:00:00	3	Temperatura mínima	14.6
56092	7	Sololá	701	Sololá	1	Sololá	10	Octubre	2023-10-30T00:00:00	2024-11-08T22:00:00	5	Humedad	83
56093	7	Sololá	701	Sololá	1	Sololá	10	Octubre	2023-10-30T00:00:00	2024-11-08T22:00:00	6	Velocidad del viento	0
56094	7	Sololá	701	Sololá	1	Sololá	10	Octubre	2023-10-30T00:00:00	2024-11-08T22:00:00	7	Dirección del viento	0
56095	7	Sololá	701	Sololá	1	Sololá	10	Octubre	2023-10-30T00:00:00	2024-11-08T22:00:00	1	Precipitación	0
56096	7	Sololá	701	Sololá	1	Sololá	10	Octubre	2023-10-30T00:00:00	2024-11-08T22:00:00	8	Radiación solar	0
56097	7	Sololá	701	Sololá	1	Sololá	10	Octubre	2023-10-30T00:00:00	2024-11-08T23:00:00	2	Temperatura media	14.7
56098	7	Sololá	701	Sololá	1	Sololá	10	Octubre	2023-10-30T00:00:00	2024-11-08T23:00:00	4	Temperatura máxima	14.8
56099	7	Sololá	701	Sololá	1	Sololá	10	Octubre	2023-10-30T00:00:00	2024-11-08T23:00:00	3	Temperatura mínima	14.7
56100	7	Sololá	701	Sololá	1	Sololá	10	Octubre	2023-10-30T00:00:00	2024-11-08T23:00:00	5	Humedad	82
56101	7	Sololá	701	Sololá	1	Sololá	10	Octubre	2023-10-30T00:00:00	2024-11-08T23:00:00	6	Velocidad del viento	0
56102	7	Sololá	701	Sololá	1	Sololá	10	Octubre	2023-10-30T00:00:00	2024-11-08T23:00:00	7	Dirección del viento	0
56103	7	Sololá	701	Sololá	1	Sololá	10	Octubre	2023-10-30T00:00:00	2024-11-08T23:00:00	1	Precipitación	0
56104	7	Sololá	701	Sololá	1	Sololá	10	Octubre	2023-10-30T00:00:00	2024-11-08T23:00:00	8	Radiación solar	0
56105	7	Sololá	701	Sololá	1	Sololá	10	Octubre	2023-10-31T00:00:00	2024-11-08T00:00:00	2	Temperatura media	14.7
56106	7	Sololá	701	Sololá	1	Sololá	10	Octubre	2023-10-31T00:00:00	2024-11-08T00:00:00	4	Temperatura máxima	14.7
56107	7	Sololá	701	Sololá	1	Sololá	10	Octubre	2023-10-31T00:00:00	2024-11-08T00:00:00	3	Temperatura mínima	14.5
56108	7	Sololá	701	Sololá	1	Sololá	10	Octubre	2023-10-31T00:00:00	2024-11-08T00:00:00	5	Humedad	80
56109	7	Sololá	701	Sololá	1	Sololá	10	Octubre	2023-10-31T00:00:00	2024-11-08T00:00:00	6	Velocidad del viento	0
56110	7	Sololá	701	Sololá	1	Sololá	10	Octubre	2023-10-31T00:00:00	2024-11-08T00:00:00	7	Dirección del viento	0
56111	7	Sololá	701	Sololá	1	Sololá	10	Octubre	2023-10-31T00:00:00	2024-11-08T00:00:00	1	Precipitación	0
56112	7	Sololá	701	Sololá	1	Sololá	10	Octubre	2023-10-31T00:00:00	2024-11-08T00:00:00	8	Radiación solar	0
56113	7	Sololá	701	Sololá	1	Sololá	10	Octubre	2023-10-31T00:00:00	2024-11-08T01:00:00	2	Temperatura media	14.1
56114	7	Sololá	701	Sololá	1	Sololá	10	Octubre	2023-10-31T00:00:00	2024-11-08T01:00:00	4	Temperatura máxima	14.6
56115	7	Sololá	701	Sololá	1	Sololá	10	Octubre	2023-10-31T00:00:00	2024-11-08T01:00:00	3	Temperatura mínima	14.1
56116	7	Sololá	701	Sololá	1	Sololá	10	Octubre	2023-10-31T00:00:00	2024-11-08T01:00:00	5	Humedad	82
56117	7	Sololá	701	Sololá	1	Sololá	10	Octubre	2023-10-31T00:00:00	2024-11-08T01:00:00	6	Velocidad del viento	0
56118	7	Sololá	701	Sololá	1	Sololá	10	Octubre	2023-10-31T00:00:00	2024-11-08T01:00:00	7	Dirección del viento	0
56119	7	Sololá	701	Sololá	1	Sololá	10	Octubre	2023-10-31T00:00:00	2024-11-08T01:00:00	1	Precipitación	0
56120	7	Sololá	701	Sololá	1	Sololá	10	Octubre	2023-10-31T00:00:00	2024-11-08T01:00:00	8	Radiación solar	0
56121	7	Sololá	701	Sololá	1	Sololá	10	Octubre	2023-10-31T00:00:00	2024-11-08T02:00:00	2	Temperatura media	14.1
56122	7	Sololá	701	Sololá	1	Sololá	10	Octubre	2023-10-31T00:00:00	2024-11-08T02:00:00	4	Temperatura máxima	14.2
56123	7	Sololá	701	Sololá	1	Sololá	10	Octubre	2023-10-31T00:00:00	2024-11-08T02:00:00	3	Temperatura mínima	13.9
56124	7	Sololá	701	Sololá	1	Sololá	10	Octubre	2023-10-31T00:00:00	2024-11-08T02:00:00	5	Humedad	82
56125	7	Sololá	701	Sololá	1	Sololá	10	Octubre	2023-10-31T00:00:00	2024-11-08T02:00:00	6	Velocidad del viento	0
56126	7	Sololá	701	Sololá	1	Sololá	10	Octubre	2023-10-31T00:00:00	2024-11-08T02:00:00	7	Dirección del viento	0
56127	7	Sololá	701	Sololá	1	Sololá	10	Octubre	2023-10-31T00:00:00	2024-11-08T02:00:00	1	Precipitación	0
56128	7	Sololá	701	Sololá	1	Sololá	10	Octubre	2023-10-31T00:00:00	2024-11-08T02:00:00	8	Radiación solar	0
56129	7	Sololá	701	Sololá	1	Sololá	10	Octubre	2023-10-31T00:00:00	2024-11-08T03:00:00	2	Temperatura media	14.1
56130	7	Sololá	701	Sololá	1	Sololá	10	Octubre	2023-10-31T00:00:00	2024-11-08T03:00:00	4	Temperatura máxima	14.2
56131	7	Sololá	701	Sololá	1	Sololá	10	Octubre	2023-10-31T00:00:00	2024-11-08T03:00:00	3	Temperatura mínima	13.9
56132	7	Sololá	701	Sololá	1	Sololá	10	Octubre	2023-10-31T00:00:00	2024-11-08T03:00:00	5	Humedad	80
56133	7	Sololá	701	Sololá	1	Sololá	10	Octubre	2023-10-31T00:00:00	2024-11-08T03:00:00	6	Velocidad del viento	0
56134	7	Sololá	701	Sololá	1	Sololá	10	Octubre	2023-10-31T00:00:00	2024-11-08T03:00:00	7	Dirección del viento	0
56135	7	Sololá	701	Sololá	1	Sololá	10	Octubre	2023-10-31T00:00:00	2024-11-08T03:00:00	1	Precipitación	0
56136	7	Sololá	701	Sololá	1	Sololá	10	Octubre	2023-10-31T00:00:00	2024-11-08T03:00:00	8	Radiación solar	0
56137	7	Sololá	701	Sololá	1	Sololá	10	Octubre	2023-10-31T00:00:00	2024-11-08T04:00:00	2	Temperatura media	14.4
56138	7	Sololá	701	Sololá	1	Sololá	10	Octubre	2023-10-31T00:00:00	2024-11-08T04:00:00	4	Temperatura máxima	14.4
56139	7	Sololá	701	Sololá	1	Sololá	10	Octubre	2023-10-31T00:00:00	2024-11-08T04:00:00	3	Temperatura mínima	14.1
56140	7	Sololá	701	Sololá	1	Sololá	10	Octubre	2023-10-31T00:00:00	2024-11-08T04:00:00	5	Humedad	78
56141	7	Sololá	701	Sololá	1	Sololá	10	Octubre	2023-10-31T00:00:00	2024-11-08T04:00:00	6	Velocidad del viento	0
56142	7	Sololá	701	Sololá	1	Sololá	10	Octubre	2023-10-31T00:00:00	2024-11-08T04:00:00	7	Dirección del viento	0
56143	7	Sololá	701	Sololá	1	Sololá	10	Octubre	2023-10-31T00:00:00	2024-11-08T04:00:00	1	Precipitación	0
56144	7	Sololá	701	Sololá	1	Sololá	10	Octubre	2023-10-31T00:00:00	2024-11-08T04:00:00	8	Radiación solar	0
56145	7	Sololá	701	Sololá	1	Sololá	10	Octubre	2023-10-31T00:00:00	2024-11-08T05:00:00	2	Temperatura media	14.5
56146	7	Sololá	701	Sololá	1	Sololá	10	Octubre	2023-10-31T00:00:00	2024-11-08T05:00:00	4	Temperatura máxima	14.6
56147	7	Sololá	701	Sololá	1	Sololá	10	Octubre	2023-10-31T00:00:00	2024-11-08T05:00:00	3	Temperatura mínima	14.4
56148	7	Sololá	701	Sololá	1	Sololá	10	Octubre	2023-10-31T00:00:00	2024-11-08T05:00:00	5	Humedad	76
56149	7	Sololá	701	Sololá	1	Sololá	10	Octubre	2023-10-31T00:00:00	2024-11-08T05:00:00	6	Velocidad del viento	0
56150	7	Sololá	701	Sololá	1	Sololá	10	Octubre	2023-10-31T00:00:00	2024-11-08T05:00:00	7	Dirección del viento	0
56151	7	Sololá	701	Sololá	1	Sololá	10	Octubre	2023-10-31T00:00:00	2024-11-08T05:00:00	1	Precipitación	0
56152	7	Sololá	701	Sololá	1	Sololá	10	Octubre	2023-10-31T00:00:00	2024-11-08T05:00:00	8	Radiación solar	0
56153	7	Sololá	701	Sololá	1	Sololá	10	Octubre	2023-10-31T00:00:00	2024-11-08T06:00:00	2	Temperatura media	14.4
56154	7	Sololá	701	Sololá	1	Sololá	10	Octubre	2023-10-31T00:00:00	2024-11-08T06:00:00	4	Temperatura máxima	14.6
56155	7	Sololá	701	Sololá	1	Sololá	10	Octubre	2023-10-31T00:00:00	2024-11-08T06:00:00	3	Temperatura mínima	14.4
56156	7	Sololá	701	Sololá	1	Sololá	10	Octubre	2023-10-31T00:00:00	2024-11-08T06:00:00	5	Humedad	76
56157	7	Sololá	701	Sololá	1	Sololá	10	Octubre	2023-10-31T00:00:00	2024-11-08T06:00:00	6	Velocidad del viento	0
56158	7	Sololá	701	Sololá	1	Sololá	10	Octubre	2023-10-31T00:00:00	2024-11-08T06:00:00	7	Dirección del viento	0
56159	7	Sololá	701	Sololá	1	Sololá	10	Octubre	2023-10-31T00:00:00	2024-11-08T06:00:00	1	Precipitación	0
56160	7	Sololá	701	Sololá	1	Sololá	10	Octubre	2023-10-31T00:00:00	2024-11-08T06:00:00	8	Radiación solar	0
56161	7	Sololá	701	Sololá	1	Sololá	10	Octubre	2023-10-31T00:00:00	2024-11-08T07:00:00	2	Temperatura media	14.3
56162	7	Sololá	701	Sololá	1	Sololá	10	Octubre	2023-10-31T00:00:00	2024-11-08T07:00:00	4	Temperatura máxima	14.5
56163	7	Sololá	701	Sololá	1	Sololá	10	Octubre	2023-10-31T00:00:00	2024-11-08T07:00:00	3	Temperatura mínima	14.3
56164	7	Sololá	701	Sololá	1	Sololá	10	Octubre	2023-10-31T00:00:00	2024-11-08T07:00:00	5	Humedad	78
56165	7	Sololá	701	Sololá	1	Sololá	10	Octubre	2023-10-31T00:00:00	2024-11-08T07:00:00	6	Velocidad del viento	0
56166	7	Sololá	701	Sololá	1	Sololá	10	Octubre	2023-10-31T00:00:00	2024-11-08T07:00:00	7	Dirección del viento	0
56167	7	Sololá	701	Sololá	1	Sololá	10	Octubre	2023-10-31T00:00:00	2024-11-08T07:00:00	1	Precipitación	0
56168	7	Sololá	701	Sololá	1	Sololá	10	Octubre	2023-10-31T00:00:00	2024-11-08T07:00:00	8	Radiación solar	5
56169	7	Sololá	701	Sololá	1	Sololá	10	Octubre	2023-10-31T00:00:00	2024-11-08T08:00:00	2	Temperatura media	15.6
56170	7	Sololá	701	Sololá	1	Sololá	10	Octubre	2023-10-31T00:00:00	2024-11-08T08:00:00	4	Temperatura máxima	15.6
56171	7	Sololá	701	Sololá	1	Sololá	10	Octubre	2023-10-31T00:00:00	2024-11-08T08:00:00	3	Temperatura mínima	14.3
56172	7	Sololá	701	Sololá	1	Sololá	10	Octubre	2023-10-31T00:00:00	2024-11-08T08:00:00	5	Humedad	75
56173	7	Sololá	701	Sololá	1	Sololá	10	Octubre	2023-10-31T00:00:00	2024-11-08T08:00:00	6	Velocidad del viento	0
56174	7	Sololá	701	Sololá	1	Sololá	10	Octubre	2023-10-31T00:00:00	2024-11-08T08:00:00	7	Dirección del viento	0
56175	7	Sololá	701	Sololá	1	Sololá	10	Octubre	2023-10-31T00:00:00	2024-11-08T08:00:00	1	Precipitación	0
56176	7	Sololá	701	Sololá	1	Sololá	10	Octubre	2023-10-31T00:00:00	2024-11-08T08:00:00	8	Radiación solar	56
56177	7	Sololá	701	Sololá	1	Sololá	10	Octubre	2023-10-31T00:00:00	2024-11-08T09:00:00	2	Temperatura media	16.8
56178	7	Sololá	701	Sololá	1	Sololá	10	Octubre	2023-10-31T00:00:00	2024-11-08T09:00:00	4	Temperatura máxima	16.8
56179	7	Sololá	701	Sololá	1	Sololá	10	Octubre	2023-10-31T00:00:00	2024-11-08T09:00:00	3	Temperatura mínima	15.6
56180	7	Sololá	701	Sololá	1	Sololá	10	Octubre	2023-10-31T00:00:00	2024-11-08T09:00:00	5	Humedad	72
56181	7	Sololá	701	Sololá	1	Sololá	10	Octubre	2023-10-31T00:00:00	2024-11-08T09:00:00	6	Velocidad del viento	0
56182	7	Sololá	701	Sololá	1	Sololá	10	Octubre	2023-10-31T00:00:00	2024-11-08T09:00:00	7	Dirección del viento	0
56183	7	Sololá	701	Sololá	1	Sololá	10	Octubre	2023-10-31T00:00:00	2024-11-08T09:00:00	1	Precipitación	0
56184	7	Sololá	701	Sololá	1	Sololá	10	Octubre	2023-10-31T00:00:00	2024-11-08T09:00:00	8	Radiación solar	128
56185	7	Sololá	701	Sololá	1	Sololá	10	Octubre	2023-10-31T00:00:00	2024-11-08T10:00:00	2	Temperatura media	17
56186	7	Sololá	701	Sololá	1	Sololá	10	Octubre	2023-10-31T00:00:00	2024-11-08T10:00:00	4	Temperatura máxima	17.2
56187	7	Sololá	701	Sololá	1	Sololá	10	Octubre	2023-10-31T00:00:00	2024-11-08T10:00:00	3	Temperatura mínima	16.7
56188	7	Sololá	701	Sololá	1	Sololá	10	Octubre	2023-10-31T00:00:00	2024-11-08T10:00:00	5	Humedad	72
56189	7	Sololá	701	Sololá	1	Sololá	10	Octubre	2023-10-31T00:00:00	2024-11-08T10:00:00	6	Velocidad del viento	0
56190	7	Sololá	701	Sololá	1	Sololá	10	Octubre	2023-10-31T00:00:00	2024-11-08T10:00:00	7	Dirección del viento	0
56191	7	Sololá	701	Sololá	1	Sololá	10	Octubre	2023-10-31T00:00:00	2024-11-08T10:00:00	1	Precipitación	0
56192	7	Sololá	701	Sololá	1	Sololá	10	Octubre	2023-10-31T00:00:00	2024-11-08T10:00:00	8	Radiación solar	115
56193	7	Sololá	701	Sololá	1	Sololá	10	Octubre	2023-10-31T00:00:00	2024-11-08T11:00:00	2	Temperatura media	18.2
56194	7	Sololá	701	Sololá	1	Sololá	10	Octubre	2023-10-31T00:00:00	2024-11-08T11:00:00	4	Temperatura máxima	18.2
56195	7	Sololá	701	Sololá	1	Sololá	10	Octubre	2023-10-31T00:00:00	2024-11-08T11:00:00	3	Temperatura mínima	16.7
56196	7	Sololá	701	Sololá	1	Sololá	10	Octubre	2023-10-31T00:00:00	2024-11-08T11:00:00	5	Humedad	71
56197	7	Sololá	701	Sololá	1	Sololá	10	Octubre	2023-10-31T00:00:00	2024-11-08T11:00:00	6	Velocidad del viento	0
56198	7	Sololá	701	Sololá	1	Sololá	10	Octubre	2023-10-31T00:00:00	2024-11-08T11:00:00	7	Dirección del viento	0
56199	7	Sololá	701	Sololá	1	Sololá	10	Octubre	2023-10-31T00:00:00	2024-11-08T11:00:00	1	Precipitación	0
56200	7	Sololá	701	Sololá	1	Sololá	10	Octubre	2023-10-31T00:00:00	2024-11-08T11:00:00	8	Radiación solar	180
56201	7	Sololá	701	Sololá	1	Sololá	10	Octubre	2023-10-31T00:00:00	2024-11-08T12:00:00	2	Temperatura media	17.3
56202	7	Sololá	701	Sololá	1	Sololá	10	Octubre	2023-10-31T00:00:00	2024-11-08T12:00:00	4	Temperatura máxima	18.3
56203	7	Sololá	701	Sololá	1	Sololá	10	Octubre	2023-10-31T00:00:00	2024-11-08T12:00:00	3	Temperatura mínima	17.3
56204	7	Sololá	701	Sololá	1	Sololá	10	Octubre	2023-10-31T00:00:00	2024-11-08T12:00:00	5	Humedad	79
56205	7	Sololá	701	Sololá	1	Sololá	10	Octubre	2023-10-31T00:00:00	2024-11-08T12:00:00	6	Velocidad del viento	0
56206	7	Sololá	701	Sololá	1	Sololá	10	Octubre	2023-10-31T00:00:00	2024-11-08T12:00:00	7	Dirección del viento	0
56207	7	Sololá	701	Sololá	1	Sololá	10	Octubre	2023-10-31T00:00:00	2024-11-08T12:00:00	1	Precipitación	0
56208	7	Sololá	701	Sololá	1	Sololá	10	Octubre	2023-10-31T00:00:00	2024-11-08T12:00:00	8	Radiación solar	163
56209	7	Sololá	701	Sololá	1	Sololá	10	Octubre	2023-10-31T00:00:00	2024-11-08T13:00:00	2	Temperatura media	16.7
56210	7	Sololá	701	Sololá	1	Sololá	10	Octubre	2023-10-31T00:00:00	2024-11-08T13:00:00	4	Temperatura máxima	17.3
56211	7	Sololá	701	Sololá	1	Sololá	10	Octubre	2023-10-31T00:00:00	2024-11-08T13:00:00	3	Temperatura mínima	16.7
56212	7	Sololá	701	Sololá	1	Sololá	10	Octubre	2023-10-31T00:00:00	2024-11-08T13:00:00	5	Humedad	81
56213	7	Sololá	701	Sololá	1	Sololá	10	Octubre	2023-10-31T00:00:00	2024-11-08T13:00:00	6	Velocidad del viento	0
56214	7	Sololá	701	Sololá	1	Sololá	10	Octubre	2023-10-31T00:00:00	2024-11-08T13:00:00	7	Dirección del viento	0
56215	7	Sololá	701	Sololá	1	Sololá	10	Octubre	2023-10-31T00:00:00	2024-11-08T13:00:00	1	Precipitación	0
56216	7	Sololá	701	Sololá	1	Sololá	10	Octubre	2023-10-31T00:00:00	2024-11-08T13:00:00	8	Radiación solar	109
56217	7	Sololá	701	Sololá	1	Sololá	10	Octubre	2023-10-31T00:00:00	2024-11-08T14:00:00	2	Temperatura media	15.9
56218	7	Sololá	701	Sololá	1	Sololá	10	Octubre	2023-10-31T00:00:00	2024-11-08T14:00:00	4	Temperatura máxima	16.8
56219	7	Sololá	701	Sololá	1	Sololá	10	Octubre	2023-10-31T00:00:00	2024-11-08T14:00:00	3	Temperatura mínima	15.9
56220	7	Sololá	701	Sololá	1	Sololá	10	Octubre	2023-10-31T00:00:00	2024-11-08T14:00:00	5	Humedad	84
56221	7	Sololá	701	Sololá	1	Sololá	10	Octubre	2023-10-31T00:00:00	2024-11-08T14:00:00	6	Velocidad del viento	0
56222	7	Sololá	701	Sololá	1	Sololá	10	Octubre	2023-10-31T00:00:00	2024-11-08T14:00:00	7	Dirección del viento	0
56223	7	Sololá	701	Sololá	1	Sololá	10	Octubre	2023-10-31T00:00:00	2024-11-08T14:00:00	1	Precipitación	0
56224	7	Sololá	701	Sololá	1	Sololá	10	Octubre	2023-10-31T00:00:00	2024-11-08T14:00:00	8	Radiación solar	74
56225	7	Sololá	701	Sololá	1	Sololá	10	Octubre	2023-10-31T00:00:00	2024-11-08T15:00:00	2	Temperatura media	14.7
56226	7	Sololá	701	Sololá	1	Sololá	10	Octubre	2023-10-31T00:00:00	2024-11-08T15:00:00	4	Temperatura máxima	15.9
56227	7	Sololá	701	Sololá	1	Sololá	10	Octubre	2023-10-31T00:00:00	2024-11-08T15:00:00	3	Temperatura mínima	14.7
56228	7	Sololá	701	Sololá	1	Sololá	10	Octubre	2023-10-31T00:00:00	2024-11-08T15:00:00	5	Humedad	90
56229	7	Sololá	701	Sololá	1	Sololá	10	Octubre	2023-10-31T00:00:00	2024-11-08T15:00:00	6	Velocidad del viento	0
56230	7	Sololá	701	Sololá	1	Sololá	10	Octubre	2023-10-31T00:00:00	2024-11-08T15:00:00	7	Dirección del viento	0
56231	7	Sololá	701	Sololá	1	Sololá	10	Octubre	2023-10-31T00:00:00	2024-11-08T15:00:00	1	Precipitación	0.2
56232	7	Sololá	701	Sololá	1	Sololá	10	Octubre	2023-10-31T00:00:00	2024-11-08T15:00:00	8	Radiación solar	43
56233	7	Sololá	701	Sololá	1	Sololá	10	Octubre	2023-10-31T00:00:00	2024-11-08T16:00:00	2	Temperatura media	14
56234	7	Sololá	701	Sololá	1	Sololá	10	Octubre	2023-10-31T00:00:00	2024-11-08T16:00:00	4	Temperatura máxima	14.7
56235	7	Sololá	701	Sololá	1	Sololá	10	Octubre	2023-10-31T00:00:00	2024-11-08T16:00:00	3	Temperatura mínima	13.9
56236	7	Sololá	701	Sololá	1	Sololá	10	Octubre	2023-10-31T00:00:00	2024-11-08T16:00:00	5	Humedad	92
56237	7	Sololá	701	Sololá	1	Sololá	10	Octubre	2023-10-31T00:00:00	2024-11-08T16:00:00	6	Velocidad del viento	0
56238	7	Sololá	701	Sololá	1	Sololá	10	Octubre	2023-10-31T00:00:00	2024-11-08T16:00:00	7	Dirección del viento	0
56239	7	Sololá	701	Sololá	1	Sololá	10	Octubre	2023-10-31T00:00:00	2024-11-08T16:00:00	1	Precipitación	0.4
56240	7	Sololá	701	Sololá	1	Sololá	10	Octubre	2023-10-31T00:00:00	2024-11-08T16:00:00	8	Radiación solar	27
56241	7	Sololá	701	Sololá	1	Sololá	10	Octubre	2023-10-31T00:00:00	2024-11-08T17:00:00	2	Temperatura media	13.6
56242	7	Sololá	701	Sololá	1	Sololá	10	Octubre	2023-10-31T00:00:00	2024-11-08T17:00:00	4	Temperatura máxima	14
56243	7	Sololá	701	Sololá	1	Sololá	10	Octubre	2023-10-31T00:00:00	2024-11-08T17:00:00	3	Temperatura mínima	13.6
56244	7	Sololá	701	Sololá	1	Sololá	10	Octubre	2023-10-31T00:00:00	2024-11-08T17:00:00	5	Humedad	93
56245	7	Sololá	701	Sololá	1	Sololá	10	Octubre	2023-10-31T00:00:00	2024-11-08T17:00:00	6	Velocidad del viento	0
56246	7	Sololá	701	Sololá	1	Sololá	10	Octubre	2023-10-31T00:00:00	2024-11-08T17:00:00	7	Dirección del viento	0
56247	7	Sololá	701	Sololá	1	Sololá	10	Octubre	2023-10-31T00:00:00	2024-11-08T17:00:00	1	Precipitación	0.4
56248	7	Sololá	701	Sololá	1	Sololá	10	Octubre	2023-10-31T00:00:00	2024-11-08T17:00:00	8	Radiación solar	10
56249	7	Sololá	701	Sololá	1	Sololá	10	Octubre	2023-10-31T00:00:00	2024-11-08T18:00:00	2	Temperatura media	13
56250	7	Sololá	701	Sololá	1	Sololá	10	Octubre	2023-10-31T00:00:00	2024-11-08T18:00:00	4	Temperatura máxima	13.6
56251	7	Sololá	701	Sololá	1	Sololá	10	Octubre	2023-10-31T00:00:00	2024-11-08T18:00:00	3	Temperatura mínima	13
56252	7	Sololá	701	Sololá	1	Sololá	10	Octubre	2023-10-31T00:00:00	2024-11-08T18:00:00	5	Humedad	93
56253	7	Sololá	701	Sololá	1	Sololá	10	Octubre	2023-10-31T00:00:00	2024-11-08T18:00:00	6	Velocidad del viento	0
56254	7	Sololá	701	Sololá	1	Sololá	10	Octubre	2023-10-31T00:00:00	2024-11-08T18:00:00	7	Dirección del viento	0
56255	7	Sololá	701	Sololá	1	Sololá	10	Octubre	2023-10-31T00:00:00	2024-11-08T18:00:00	1	Precipitación	0.2
56256	7	Sololá	701	Sololá	1	Sololá	10	Octubre	2023-10-31T00:00:00	2024-11-08T18:00:00	8	Radiación solar	1
56257	7	Sololá	701	Sololá	1	Sololá	10	Octubre	2023-10-31T00:00:00	2024-11-08T19:00:00	2	Temperatura media	12.7
56258	7	Sololá	701	Sololá	1	Sololá	10	Octubre	2023-10-31T00:00:00	2024-11-08T19:00:00	4	Temperatura máxima	13
56259	7	Sololá	701	Sololá	1	Sololá	10	Octubre	2023-10-31T00:00:00	2024-11-08T19:00:00	3	Temperatura mínima	12.7
56260	7	Sololá	701	Sololá	1	Sololá	10	Octubre	2023-10-31T00:00:00	2024-11-08T19:00:00	5	Humedad	91
56261	7	Sololá	701	Sololá	1	Sololá	10	Octubre	2023-10-31T00:00:00	2024-11-08T19:00:00	6	Velocidad del viento	0
56262	7	Sololá	701	Sololá	1	Sololá	10	Octubre	2023-10-31T00:00:00	2024-11-08T19:00:00	7	Dirección del viento	0
56263	7	Sololá	701	Sololá	1	Sololá	10	Octubre	2023-10-31T00:00:00	2024-11-08T19:00:00	1	Precipitación	0.2
56264	7	Sololá	701	Sololá	1	Sololá	10	Octubre	2023-10-31T00:00:00	2024-11-08T19:00:00	8	Radiación solar	0
56265	7	Sololá	701	Sololá	1	Sololá	10	Octubre	2023-10-31T00:00:00	2024-11-08T20:00:00	2	Temperatura media	12.8
56266	7	Sololá	701	Sololá	1	Sololá	10	Octubre	2023-10-31T00:00:00	2024-11-08T20:00:00	4	Temperatura máxima	12.8
56267	7	Sololá	701	Sololá	1	Sololá	10	Octubre	2023-10-31T00:00:00	2024-11-08T20:00:00	3	Temperatura mínima	12.7
56268	7	Sololá	701	Sololá	1	Sololá	10	Octubre	2023-10-31T00:00:00	2024-11-08T20:00:00	5	Humedad	92
56269	7	Sololá	701	Sololá	1	Sololá	10	Octubre	2023-10-31T00:00:00	2024-11-08T20:00:00	6	Velocidad del viento	0
56270	7	Sololá	701	Sololá	1	Sololá	10	Octubre	2023-10-31T00:00:00	2024-11-08T20:00:00	7	Dirección del viento	0
56271	7	Sololá	701	Sololá	1	Sololá	10	Octubre	2023-10-31T00:00:00	2024-11-08T20:00:00	1	Precipitación	0
56272	7	Sololá	701	Sololá	1	Sololá	10	Octubre	2023-10-31T00:00:00	2024-11-08T20:00:00	8	Radiación solar	0
56273	7	Sololá	701	Sololá	1	Sololá	10	Octubre	2023-10-31T00:00:00	2024-11-08T21:00:00	2	Temperatura media	12.6
56274	7	Sololá	701	Sololá	1	Sololá	10	Octubre	2023-10-31T00:00:00	2024-11-08T21:00:00	4	Temperatura máxima	12.8
56275	7	Sololá	701	Sololá	1	Sololá	10	Octubre	2023-10-31T00:00:00	2024-11-08T21:00:00	3	Temperatura mínima	12.6
56276	7	Sololá	701	Sololá	1	Sololá	10	Octubre	2023-10-31T00:00:00	2024-11-08T21:00:00	5	Humedad	93
56277	7	Sololá	701	Sololá	1	Sololá	10	Octubre	2023-10-31T00:00:00	2024-11-08T21:00:00	6	Velocidad del viento	0
56278	7	Sololá	701	Sololá	1	Sololá	10	Octubre	2023-10-31T00:00:00	2024-11-08T21:00:00	7	Dirección del viento	0
56279	7	Sololá	701	Sololá	1	Sololá	10	Octubre	2023-10-31T00:00:00	2024-11-08T21:00:00	1	Precipitación	0.2
56280	7	Sololá	701	Sololá	1	Sololá	10	Octubre	2023-10-31T00:00:00	2024-11-08T21:00:00	8	Radiación solar	0
56281	7	Sololá	701	Sololá	1	Sololá	10	Octubre	2023-10-31T00:00:00	2024-11-08T22:00:00	2	Temperatura media	12.3
56282	7	Sololá	701	Sololá	1	Sololá	10	Octubre	2023-10-31T00:00:00	2024-11-08T22:00:00	4	Temperatura máxima	12.6
56283	7	Sololá	701	Sololá	1	Sololá	10	Octubre	2023-10-31T00:00:00	2024-11-08T22:00:00	3	Temperatura mínima	12.3
56284	7	Sololá	701	Sololá	1	Sololá	10	Octubre	2023-10-31T00:00:00	2024-11-08T22:00:00	5	Humedad	93
56285	7	Sololá	701	Sololá	1	Sololá	10	Octubre	2023-10-31T00:00:00	2024-11-08T22:00:00	6	Velocidad del viento	0
56286	7	Sololá	701	Sololá	1	Sololá	10	Octubre	2023-10-31T00:00:00	2024-11-08T22:00:00	7	Dirección del viento	0
56287	7	Sololá	701	Sololá	1	Sololá	10	Octubre	2023-10-31T00:00:00	2024-11-08T22:00:00	1	Precipitación	0
56288	7	Sololá	701	Sololá	1	Sololá	10	Octubre	2023-10-31T00:00:00	2024-11-08T22:00:00	8	Radiación solar	0
56289	7	Sololá	701	Sololá	1	Sololá	10	Octubre	2023-10-31T00:00:00	2024-11-08T23:00:00	2	Temperatura media	12.7
56290	7	Sololá	701	Sololá	1	Sololá	10	Octubre	2023-10-31T00:00:00	2024-11-08T23:00:00	4	Temperatura máxima	12.7
56291	7	Sololá	701	Sololá	1	Sololá	10	Octubre	2023-10-31T00:00:00	2024-11-08T23:00:00	3	Temperatura mínima	12.3
56292	7	Sololá	701	Sololá	1	Sololá	10	Octubre	2023-10-31T00:00:00	2024-11-08T23:00:00	5	Humedad	90
56293	7	Sololá	701	Sololá	1	Sololá	10	Octubre	2023-10-31T00:00:00	2024-11-08T23:00:00	6	Velocidad del viento	0
56294	7	Sololá	701	Sololá	1	Sololá	10	Octubre	2023-10-31T00:00:00	2024-11-08T23:00:00	7	Dirección del viento	0
56295	7	Sololá	701	Sololá	1	Sololá	10	Octubre	2023-10-31T00:00:00	2024-11-08T23:00:00	1	Precipitación	0.2
56296	7	Sololá	701	Sololá	1	Sololá	10	Octubre	2023-10-31T00:00:00	2024-11-08T23:00:00	8	Radiación solar	0
56297	7	Sololá	701	Sololá	1	Sololá	11	Noviembre	2023-01-11T00:00:00	2024-11-08T00:00:00	2	Temperatura media	12.6
56298	7	Sololá	701	Sololá	1	Sololá	11	Noviembre	2023-01-11T00:00:00	2024-11-08T00:00:00	4	Temperatura máxima	12.8
56299	7	Sololá	701	Sololá	1	Sololá	11	Noviembre	2023-01-11T00:00:00	2024-11-08T00:00:00	3	Temperatura mínima	12.5
56300	7	Sololá	701	Sololá	1	Sololá	11	Noviembre	2023-01-11T00:00:00	2024-11-08T00:00:00	5	Humedad	89
56301	7	Sololá	701	Sololá	1	Sololá	11	Noviembre	2023-01-11T00:00:00	2024-11-08T00:00:00	6	Velocidad del viento	0
56302	7	Sololá	701	Sololá	1	Sololá	11	Noviembre	2023-01-11T00:00:00	2024-11-08T00:00:00	7	Dirección del viento	0
56303	7	Sololá	701	Sololá	1	Sololá	11	Noviembre	2023-01-11T00:00:00	2024-11-08T00:00:00	1	Precipitación	0
56304	7	Sololá	701	Sololá	1	Sololá	11	Noviembre	2023-01-11T00:00:00	2024-11-08T00:00:00	8	Radiación solar	0
56305	7	Sololá	701	Sololá	1	Sololá	11	Noviembre	2023-01-11T00:00:00	2024-11-08T01:00:00	2	Temperatura media	12.2
56306	7	Sololá	701	Sololá	1	Sololá	11	Noviembre	2023-01-11T00:00:00	2024-11-08T01:00:00	4	Temperatura máxima	12.6
56307	7	Sololá	701	Sololá	1	Sololá	11	Noviembre	2023-01-11T00:00:00	2024-11-08T01:00:00	3	Temperatura mínima	12.2
56308	7	Sololá	701	Sololá	1	Sololá	11	Noviembre	2023-01-11T00:00:00	2024-11-08T01:00:00	5	Humedad	87
56309	7	Sololá	701	Sololá	1	Sololá	11	Noviembre	2023-01-11T00:00:00	2024-11-08T01:00:00	6	Velocidad del viento	0
56310	7	Sololá	701	Sololá	1	Sololá	11	Noviembre	2023-01-11T00:00:00	2024-11-08T01:00:00	7	Dirección del viento	0
56311	7	Sololá	701	Sololá	1	Sololá	11	Noviembre	2023-01-11T00:00:00	2024-11-08T01:00:00	1	Precipitación	0
56312	7	Sololá	701	Sololá	1	Sololá	11	Noviembre	2023-01-11T00:00:00	2024-11-08T01:00:00	8	Radiación solar	0
56313	7	Sololá	701	Sololá	1	Sololá	11	Noviembre	2023-01-11T00:00:00	2024-11-08T02:00:00	2	Temperatura media	12.6
56314	7	Sololá	701	Sololá	1	Sololá	11	Noviembre	2023-01-11T00:00:00	2024-11-08T02:00:00	4	Temperatura máxima	12.6
56315	7	Sololá	701	Sololá	1	Sololá	11	Noviembre	2023-01-11T00:00:00	2024-11-08T02:00:00	3	Temperatura mínima	12.1
56316	7	Sololá	701	Sololá	1	Sololá	11	Noviembre	2023-01-11T00:00:00	2024-11-08T02:00:00	5	Humedad	85
56317	7	Sololá	701	Sololá	1	Sololá	11	Noviembre	2023-01-11T00:00:00	2024-11-08T02:00:00	6	Velocidad del viento	0
56318	7	Sololá	701	Sololá	1	Sololá	11	Noviembre	2023-01-11T00:00:00	2024-11-08T02:00:00	7	Dirección del viento	0
56319	7	Sololá	701	Sololá	1	Sololá	11	Noviembre	2023-01-11T00:00:00	2024-11-08T02:00:00	1	Precipitación	0
56320	7	Sololá	701	Sololá	1	Sololá	11	Noviembre	2023-01-11T00:00:00	2024-11-08T02:00:00	8	Radiación solar	0
56321	7	Sololá	701	Sololá	1	Sololá	11	Noviembre	2023-01-11T00:00:00	2024-11-08T03:00:00	2	Temperatura media	12.9
56322	7	Sololá	701	Sololá	1	Sololá	11	Noviembre	2023-01-11T00:00:00	2024-11-08T03:00:00	4	Temperatura máxima	13
56323	7	Sololá	701	Sololá	1	Sololá	11	Noviembre	2023-01-11T00:00:00	2024-11-08T03:00:00	3	Temperatura mínima	12.5
56324	7	Sololá	701	Sololá	1	Sololá	11	Noviembre	2023-01-11T00:00:00	2024-11-08T03:00:00	5	Humedad	83
56325	7	Sololá	701	Sololá	1	Sololá	11	Noviembre	2023-01-11T00:00:00	2024-11-08T03:00:00	6	Velocidad del viento	0
56326	7	Sololá	701	Sololá	1	Sololá	11	Noviembre	2023-01-11T00:00:00	2024-11-08T03:00:00	7	Dirección del viento	0
56327	7	Sololá	701	Sololá	1	Sololá	11	Noviembre	2023-01-11T00:00:00	2024-11-08T03:00:00	1	Precipitación	0
56328	7	Sololá	701	Sololá	1	Sololá	11	Noviembre	2023-01-11T00:00:00	2024-11-08T03:00:00	8	Radiación solar	0
56329	7	Sololá	701	Sololá	1	Sololá	11	Noviembre	2023-01-11T00:00:00	2024-11-08T04:00:00	2	Temperatura media	13.2
56330	7	Sololá	701	Sololá	1	Sololá	11	Noviembre	2023-01-11T00:00:00	2024-11-08T04:00:00	4	Temperatura máxima	13.3
56331	7	Sololá	701	Sololá	1	Sololá	11	Noviembre	2023-01-11T00:00:00	2024-11-08T04:00:00	3	Temperatura mínima	12.9
56332	7	Sololá	701	Sololá	1	Sololá	11	Noviembre	2023-01-11T00:00:00	2024-11-08T04:00:00	5	Humedad	85
56333	7	Sololá	701	Sololá	1	Sololá	11	Noviembre	2023-01-11T00:00:00	2024-11-08T04:00:00	6	Velocidad del viento	0
56334	7	Sololá	701	Sololá	1	Sololá	11	Noviembre	2023-01-11T00:00:00	2024-11-08T04:00:00	7	Dirección del viento	0
56335	7	Sololá	701	Sololá	1	Sololá	11	Noviembre	2023-01-11T00:00:00	2024-11-08T04:00:00	1	Precipitación	0
56336	7	Sololá	701	Sololá	1	Sololá	11	Noviembre	2023-01-11T00:00:00	2024-11-08T04:00:00	8	Radiación solar	0
56337	7	Sololá	701	Sololá	1	Sololá	11	Noviembre	2023-01-11T00:00:00	2024-11-08T05:00:00	2	Temperatura media	13.7
56338	7	Sololá	701	Sololá	1	Sololá	11	Noviembre	2023-01-11T00:00:00	2024-11-08T05:00:00	4	Temperatura máxima	13.7
56339	7	Sololá	701	Sololá	1	Sololá	11	Noviembre	2023-01-11T00:00:00	2024-11-08T05:00:00	3	Temperatura mínima	13.1
56340	7	Sololá	701	Sololá	1	Sololá	11	Noviembre	2023-01-11T00:00:00	2024-11-08T05:00:00	5	Humedad	86
56341	7	Sololá	701	Sololá	1	Sololá	11	Noviembre	2023-01-11T00:00:00	2024-11-08T05:00:00	6	Velocidad del viento	0
56342	7	Sololá	701	Sololá	1	Sololá	11	Noviembre	2023-01-11T00:00:00	2024-11-08T05:00:00	7	Dirección del viento	0
56343	7	Sololá	701	Sololá	1	Sololá	11	Noviembre	2023-01-11T00:00:00	2024-11-08T05:00:00	1	Precipitación	0
56344	7	Sololá	701	Sololá	1	Sololá	11	Noviembre	2023-01-11T00:00:00	2024-11-08T05:00:00	8	Radiación solar	0
56345	7	Sololá	701	Sololá	1	Sololá	11	Noviembre	2023-01-11T00:00:00	2024-11-08T06:00:00	2	Temperatura media	13.8
56346	7	Sololá	701	Sololá	1	Sololá	11	Noviembre	2023-01-11T00:00:00	2024-11-08T06:00:00	4	Temperatura máxima	13.8
56347	7	Sololá	701	Sololá	1	Sololá	11	Noviembre	2023-01-11T00:00:00	2024-11-08T06:00:00	3	Temperatura mínima	13.7
56348	7	Sololá	701	Sololá	1	Sololá	11	Noviembre	2023-01-11T00:00:00	2024-11-08T06:00:00	5	Humedad	86
56349	7	Sololá	701	Sololá	1	Sololá	11	Noviembre	2023-01-11T00:00:00	2024-11-08T06:00:00	6	Velocidad del viento	0
56350	7	Sololá	701	Sololá	1	Sololá	11	Noviembre	2023-01-11T00:00:00	2024-11-08T06:00:00	7	Dirección del viento	0
56351	7	Sololá	701	Sololá	1	Sololá	11	Noviembre	2023-01-11T00:00:00	2024-11-08T06:00:00	1	Precipitación	0
56352	7	Sololá	701	Sololá	1	Sololá	11	Noviembre	2023-01-11T00:00:00	2024-11-08T06:00:00	8	Radiación solar	0
56353	7	Sololá	701	Sololá	1	Sololá	11	Noviembre	2023-01-11T00:00:00	2024-11-08T07:00:00	2	Temperatura media	14.3
56354	7	Sololá	701	Sololá	1	Sololá	11	Noviembre	2023-01-11T00:00:00	2024-11-08T07:00:00	4	Temperatura máxima	14.3
56355	7	Sololá	701	Sololá	1	Sololá	11	Noviembre	2023-01-11T00:00:00	2024-11-08T07:00:00	3	Temperatura mínima	13.8
56356	7	Sololá	701	Sololá	1	Sololá	11	Noviembre	2023-01-11T00:00:00	2024-11-08T07:00:00	5	Humedad	85
56357	7	Sololá	701	Sololá	1	Sololá	11	Noviembre	2023-01-11T00:00:00	2024-11-08T07:00:00	6	Velocidad del viento	0
56358	7	Sololá	701	Sololá	1	Sololá	11	Noviembre	2023-01-11T00:00:00	2024-11-08T07:00:00	7	Dirección del viento	0
56359	7	Sololá	701	Sololá	1	Sololá	11	Noviembre	2023-01-11T00:00:00	2024-11-08T07:00:00	1	Precipitación	0.2
56360	7	Sololá	701	Sololá	1	Sololá	11	Noviembre	2023-01-11T00:00:00	2024-11-08T07:00:00	8	Radiación solar	11
56361	7	Sololá	701	Sololá	1	Sololá	11	Noviembre	2023-01-11T00:00:00	2024-11-08T08:00:00	2	Temperatura media	14.6
56362	7	Sololá	701	Sololá	1	Sololá	11	Noviembre	2023-01-11T00:00:00	2024-11-08T08:00:00	4	Temperatura máxima	14.6
56363	7	Sololá	701	Sololá	1	Sololá	11	Noviembre	2023-01-11T00:00:00	2024-11-08T08:00:00	3	Temperatura mínima	14.2
56364	7	Sololá	701	Sololá	1	Sololá	11	Noviembre	2023-01-11T00:00:00	2024-11-08T08:00:00	5	Humedad	84
56365	7	Sololá	701	Sololá	1	Sololá	11	Noviembre	2023-01-11T00:00:00	2024-11-08T08:00:00	6	Velocidad del viento	0
56366	7	Sololá	701	Sololá	1	Sololá	11	Noviembre	2023-01-11T00:00:00	2024-11-08T08:00:00	7	Dirección del viento	0
56367	7	Sololá	701	Sololá	1	Sololá	11	Noviembre	2023-01-11T00:00:00	2024-11-08T08:00:00	1	Precipitación	0
56368	7	Sololá	701	Sololá	1	Sololá	11	Noviembre	2023-01-11T00:00:00	2024-11-08T08:00:00	8	Radiación solar	49
56369	7	Sololá	701	Sololá	1	Sololá	11	Noviembre	2023-01-11T00:00:00	2024-11-08T09:00:00	2	Temperatura media	14.9
56370	7	Sololá	701	Sololá	1	Sololá	11	Noviembre	2023-01-11T00:00:00	2024-11-08T09:00:00	4	Temperatura máxima	14.9
56371	7	Sololá	701	Sololá	1	Sololá	11	Noviembre	2023-01-11T00:00:00	2024-11-08T09:00:00	3	Temperatura mínima	14.5
56372	7	Sololá	701	Sololá	1	Sololá	11	Noviembre	2023-01-11T00:00:00	2024-11-08T09:00:00	5	Humedad	83
56373	7	Sololá	701	Sololá	1	Sololá	11	Noviembre	2023-01-11T00:00:00	2024-11-08T09:00:00	6	Velocidad del viento	0
56374	7	Sololá	701	Sololá	1	Sololá	11	Noviembre	2023-01-11T00:00:00	2024-11-08T09:00:00	7	Dirección del viento	0
56375	7	Sololá	701	Sololá	1	Sololá	11	Noviembre	2023-01-11T00:00:00	2024-11-08T09:00:00	1	Precipitación	0
56376	7	Sololá	701	Sololá	1	Sololá	11	Noviembre	2023-01-11T00:00:00	2024-11-08T09:00:00	8	Radiación solar	92
56377	7	Sololá	701	Sololá	1	Sololá	11	Noviembre	2023-01-11T00:00:00	2024-11-08T10:00:00	2	Temperatura media	15.9
56378	7	Sololá	701	Sololá	1	Sololá	11	Noviembre	2023-01-11T00:00:00	2024-11-08T10:00:00	4	Temperatura máxima	15.9
56379	7	Sololá	701	Sololá	1	Sololá	11	Noviembre	2023-01-11T00:00:00	2024-11-08T10:00:00	3	Temperatura mínima	14.9
56380	7	Sololá	701	Sololá	1	Sololá	11	Noviembre	2023-01-11T00:00:00	2024-11-08T10:00:00	5	Humedad	82
56381	7	Sololá	701	Sololá	1	Sololá	11	Noviembre	2023-01-11T00:00:00	2024-11-08T10:00:00	6	Velocidad del viento	0
56382	7	Sololá	701	Sololá	1	Sololá	11	Noviembre	2023-01-11T00:00:00	2024-11-08T10:00:00	7	Dirección del viento	0
56383	7	Sololá	701	Sololá	1	Sololá	11	Noviembre	2023-01-11T00:00:00	2024-11-08T10:00:00	1	Precipitación	0
56384	7	Sololá	701	Sololá	1	Sololá	11	Noviembre	2023-01-11T00:00:00	2024-11-08T10:00:00	8	Radiación solar	159
56385	7	Sololá	701	Sololá	1	Sololá	11	Noviembre	2023-01-11T00:00:00	2024-11-08T11:00:00	2	Temperatura media	16.7
56386	7	Sololá	701	Sololá	1	Sololá	11	Noviembre	2023-01-11T00:00:00	2024-11-08T11:00:00	4	Temperatura máxima	16.7
56387	7	Sololá	701	Sololá	1	Sololá	11	Noviembre	2023-01-11T00:00:00	2024-11-08T11:00:00	3	Temperatura mínima	15.9
56388	7	Sololá	701	Sololá	1	Sololá	11	Noviembre	2023-01-11T00:00:00	2024-11-08T11:00:00	5	Humedad	81
56389	7	Sololá	701	Sololá	1	Sololá	11	Noviembre	2023-01-11T00:00:00	2024-11-08T11:00:00	6	Velocidad del viento	0
56390	7	Sololá	701	Sololá	1	Sololá	11	Noviembre	2023-01-11T00:00:00	2024-11-08T11:00:00	7	Dirección del viento	0
56391	7	Sololá	701	Sololá	1	Sololá	11	Noviembre	2023-01-11T00:00:00	2024-11-08T11:00:00	1	Precipitación	0
56392	7	Sololá	701	Sololá	1	Sololá	11	Noviembre	2023-01-11T00:00:00	2024-11-08T11:00:00	8	Radiación solar	205
56393	7	Sololá	701	Sololá	1	Sololá	11	Noviembre	2023-01-11T00:00:00	2024-11-08T12:00:00	2	Temperatura media	17
56394	7	Sololá	701	Sololá	1	Sololá	11	Noviembre	2023-01-11T00:00:00	2024-11-08T12:00:00	4	Temperatura máxima	17.1
56395	7	Sololá	701	Sololá	1	Sololá	11	Noviembre	2023-01-11T00:00:00	2024-11-08T12:00:00	3	Temperatura mínima	16.6
56396	7	Sololá	701	Sololá	1	Sololá	11	Noviembre	2023-01-11T00:00:00	2024-11-08T12:00:00	5	Humedad	80
56397	7	Sololá	701	Sololá	1	Sololá	11	Noviembre	2023-01-11T00:00:00	2024-11-08T12:00:00	6	Velocidad del viento	0
56398	7	Sololá	701	Sololá	1	Sololá	11	Noviembre	2023-01-11T00:00:00	2024-11-08T12:00:00	7	Dirección del viento	0
56399	7	Sololá	701	Sololá	1	Sololá	11	Noviembre	2023-01-11T00:00:00	2024-11-08T12:00:00	1	Precipitación	0
56400	7	Sololá	701	Sololá	1	Sololá	11	Noviembre	2023-01-11T00:00:00	2024-11-08T12:00:00	8	Radiación solar	177
56401	7	Sololá	701	Sololá	1	Sololá	11	Noviembre	2023-01-11T00:00:00	2024-11-08T13:00:00	2	Temperatura media	16.4
56402	7	Sololá	701	Sololá	1	Sololá	11	Noviembre	2023-01-11T00:00:00	2024-11-08T13:00:00	4	Temperatura máxima	17
56403	7	Sololá	701	Sololá	1	Sololá	11	Noviembre	2023-01-11T00:00:00	2024-11-08T13:00:00	3	Temperatura mínima	16.1
56404	7	Sololá	701	Sololá	1	Sololá	11	Noviembre	2023-01-11T00:00:00	2024-11-08T13:00:00	5	Humedad	82
56405	7	Sololá	701	Sololá	1	Sololá	11	Noviembre	2023-01-11T00:00:00	2024-11-08T13:00:00	6	Velocidad del viento	0
56406	7	Sololá	701	Sololá	1	Sololá	11	Noviembre	2023-01-11T00:00:00	2024-11-08T13:00:00	7	Dirección del viento	0
56407	7	Sololá	701	Sololá	1	Sololá	11	Noviembre	2023-01-11T00:00:00	2024-11-08T13:00:00	1	Precipitación	0
56408	7	Sololá	701	Sololá	1	Sololá	11	Noviembre	2023-01-11T00:00:00	2024-11-08T13:00:00	8	Radiación solar	178
56409	7	Sololá	701	Sololá	1	Sololá	11	Noviembre	2023-01-11T00:00:00	2024-11-08T14:00:00	2	Temperatura media	15.5
56410	7	Sololá	701	Sololá	1	Sololá	11	Noviembre	2023-01-11T00:00:00	2024-11-08T14:00:00	4	Temperatura máxima	16.4
56411	7	Sololá	701	Sololá	1	Sololá	11	Noviembre	2023-01-11T00:00:00	2024-11-08T14:00:00	3	Temperatura mínima	15.5
56412	7	Sololá	701	Sololá	1	Sololá	11	Noviembre	2023-01-11T00:00:00	2024-11-08T14:00:00	5	Humedad	81
56413	7	Sololá	701	Sololá	1	Sololá	11	Noviembre	2023-01-11T00:00:00	2024-11-08T14:00:00	6	Velocidad del viento	0
56414	7	Sololá	701	Sololá	1	Sololá	11	Noviembre	2023-01-11T00:00:00	2024-11-08T14:00:00	7	Dirección del viento	0
56415	7	Sololá	701	Sololá	1	Sololá	11	Noviembre	2023-01-11T00:00:00	2024-11-08T14:00:00	1	Precipitación	0
56416	7	Sololá	701	Sololá	1	Sololá	11	Noviembre	2023-01-11T00:00:00	2024-11-08T14:00:00	8	Radiación solar	120
56417	7	Sololá	701	Sololá	1	Sololá	11	Noviembre	2023-01-11T00:00:00	2024-11-08T15:00:00	2	Temperatura media	15.1
56418	7	Sololá	701	Sololá	1	Sololá	11	Noviembre	2023-01-11T00:00:00	2024-11-08T15:00:00	4	Temperatura máxima	15.6
56419	7	Sololá	701	Sololá	1	Sololá	11	Noviembre	2023-01-11T00:00:00	2024-11-08T15:00:00	3	Temperatura mínima	15.1
56420	7	Sololá	701	Sololá	1	Sololá	11	Noviembre	2023-01-11T00:00:00	2024-11-08T15:00:00	5	Humedad	80
56421	7	Sololá	701	Sololá	1	Sololá	11	Noviembre	2023-01-11T00:00:00	2024-11-08T15:00:00	6	Velocidad del viento	0
56422	7	Sololá	701	Sololá	1	Sololá	11	Noviembre	2023-01-11T00:00:00	2024-11-08T15:00:00	7	Dirección del viento	0
56423	7	Sololá	701	Sololá	1	Sololá	11	Noviembre	2023-01-11T00:00:00	2024-11-08T15:00:00	1	Precipitación	0
56424	7	Sololá	701	Sololá	1	Sololá	11	Noviembre	2023-01-11T00:00:00	2024-11-08T15:00:00	8	Radiación solar	91
56425	7	Sololá	701	Sololá	1	Sololá	11	Noviembre	2023-01-11T00:00:00	2024-11-08T16:00:00	2	Temperatura media	15.4
56426	7	Sololá	701	Sololá	1	Sololá	11	Noviembre	2023-01-11T00:00:00	2024-11-08T16:00:00	4	Temperatura máxima	15.4
56427	7	Sololá	701	Sololá	1	Sololá	11	Noviembre	2023-01-11T00:00:00	2024-11-08T16:00:00	3	Temperatura mínima	15.1
56428	7	Sololá	701	Sololá	1	Sololá	11	Noviembre	2023-01-11T00:00:00	2024-11-08T16:00:00	5	Humedad	80
56429	7	Sololá	701	Sololá	1	Sololá	11	Noviembre	2023-01-11T00:00:00	2024-11-08T16:00:00	6	Velocidad del viento	0
56430	7	Sololá	701	Sololá	1	Sololá	11	Noviembre	2023-01-11T00:00:00	2024-11-08T16:00:00	7	Dirección del viento	0
56431	7	Sololá	701	Sololá	1	Sololá	11	Noviembre	2023-01-11T00:00:00	2024-11-08T16:00:00	1	Precipitación	0
56432	7	Sololá	701	Sololá	1	Sololá	11	Noviembre	2023-01-11T00:00:00	2024-11-08T16:00:00	8	Radiación solar	74
56433	7	Sololá	701	Sololá	1	Sololá	11	Noviembre	2023-01-11T00:00:00	2024-11-08T17:00:00	2	Temperatura media	14.7
56434	7	Sololá	701	Sololá	1	Sololá	11	Noviembre	2023-01-11T00:00:00	2024-11-08T17:00:00	4	Temperatura máxima	15.4
56435	7	Sololá	701	Sololá	1	Sololá	11	Noviembre	2023-01-11T00:00:00	2024-11-08T17:00:00	3	Temperatura mínima	14.7
56436	7	Sololá	701	Sololá	1	Sololá	11	Noviembre	2023-01-11T00:00:00	2024-11-08T17:00:00	5	Humedad	83
56437	7	Sololá	701	Sololá	1	Sololá	11	Noviembre	2023-01-11T00:00:00	2024-11-08T17:00:00	6	Velocidad del viento	0
56438	7	Sololá	701	Sololá	1	Sololá	11	Noviembre	2023-01-11T00:00:00	2024-11-08T17:00:00	7	Dirección del viento	0
56439	7	Sololá	701	Sololá	1	Sololá	11	Noviembre	2023-01-11T00:00:00	2024-11-08T17:00:00	1	Precipitación	0
56440	7	Sololá	701	Sololá	1	Sololá	11	Noviembre	2023-01-11T00:00:00	2024-11-08T17:00:00	8	Radiación solar	36
56441	7	Sololá	701	Sololá	1	Sololá	11	Noviembre	2023-01-11T00:00:00	2024-11-08T18:00:00	2	Temperatura media	13.9
56442	7	Sololá	701	Sololá	1	Sololá	11	Noviembre	2023-01-11T00:00:00	2024-11-08T18:00:00	4	Temperatura máxima	14.7
56443	7	Sololá	701	Sololá	1	Sololá	11	Noviembre	2023-01-11T00:00:00	2024-11-08T18:00:00	3	Temperatura mínima	13.9
56444	7	Sololá	701	Sololá	1	Sololá	11	Noviembre	2023-01-11T00:00:00	2024-11-08T18:00:00	5	Humedad	84
56445	7	Sololá	701	Sololá	1	Sololá	11	Noviembre	2023-01-11T00:00:00	2024-11-08T18:00:00	6	Velocidad del viento	0
56446	7	Sololá	701	Sololá	1	Sololá	11	Noviembre	2023-01-11T00:00:00	2024-11-08T18:00:00	7	Dirección del viento	0
56447	7	Sololá	701	Sololá	1	Sololá	11	Noviembre	2023-01-11T00:00:00	2024-11-08T18:00:00	1	Precipitación	0
56448	7	Sololá	701	Sololá	1	Sololá	11	Noviembre	2023-01-11T00:00:00	2024-11-08T18:00:00	8	Radiación solar	8
56449	7	Sololá	701	Sololá	1	Sololá	11	Noviembre	2023-01-11T00:00:00	2024-11-08T19:00:00	2	Temperatura media	14.1
56450	7	Sololá	701	Sololá	1	Sololá	11	Noviembre	2023-01-11T00:00:00	2024-11-08T19:00:00	4	Temperatura máxima	14.1
56451	7	Sololá	701	Sololá	1	Sololá	11	Noviembre	2023-01-11T00:00:00	2024-11-08T19:00:00	3	Temperatura mínima	13.9
56452	7	Sololá	701	Sololá	1	Sololá	11	Noviembre	2023-01-11T00:00:00	2024-11-08T19:00:00	5	Humedad	85
56453	7	Sololá	701	Sololá	1	Sololá	11	Noviembre	2023-01-11T00:00:00	2024-11-08T19:00:00	6	Velocidad del viento	0
56454	7	Sololá	701	Sololá	1	Sololá	11	Noviembre	2023-01-11T00:00:00	2024-11-08T19:00:00	7	Dirección del viento	0
56455	7	Sololá	701	Sololá	1	Sololá	11	Noviembre	2023-01-11T00:00:00	2024-11-08T19:00:00	1	Precipitación	0
56456	7	Sololá	701	Sololá	1	Sololá	11	Noviembre	2023-01-11T00:00:00	2024-11-08T19:00:00	8	Radiación solar	0
56457	7	Sololá	701	Sololá	1	Sololá	11	Noviembre	2023-01-11T00:00:00	2024-11-08T20:00:00	2	Temperatura media	14.4
56458	7	Sololá	701	Sololá	1	Sololá	11	Noviembre	2023-01-11T00:00:00	2024-11-08T20:00:00	4	Temperatura máxima	14.4
56459	7	Sololá	701	Sololá	1	Sololá	11	Noviembre	2023-01-11T00:00:00	2024-11-08T20:00:00	3	Temperatura mínima	14.1
56460	7	Sololá	701	Sololá	1	Sololá	11	Noviembre	2023-01-11T00:00:00	2024-11-08T20:00:00	5	Humedad	83
56461	7	Sololá	701	Sololá	1	Sololá	11	Noviembre	2023-01-11T00:00:00	2024-11-08T20:00:00	6	Velocidad del viento	0
56462	7	Sololá	701	Sololá	1	Sololá	11	Noviembre	2023-01-11T00:00:00	2024-11-08T20:00:00	7	Dirección del viento	0
56463	7	Sololá	701	Sololá	1	Sololá	11	Noviembre	2023-01-11T00:00:00	2024-11-08T20:00:00	1	Precipitación	0
56464	7	Sololá	701	Sololá	1	Sololá	11	Noviembre	2023-01-11T00:00:00	2024-11-08T20:00:00	8	Radiación solar	0
56465	7	Sololá	701	Sololá	1	Sololá	11	Noviembre	2023-01-11T00:00:00	2024-11-08T21:00:00	2	Temperatura media	14.6
56466	7	Sololá	701	Sololá	1	Sololá	11	Noviembre	2023-01-11T00:00:00	2024-11-08T21:00:00	4	Temperatura máxima	14.7
56467	7	Sololá	701	Sololá	1	Sololá	11	Noviembre	2023-01-11T00:00:00	2024-11-08T21:00:00	3	Temperatura mínima	14.4
56468	7	Sololá	701	Sololá	1	Sololá	11	Noviembre	2023-01-11T00:00:00	2024-11-08T21:00:00	5	Humedad	84
56469	7	Sololá	701	Sololá	1	Sololá	11	Noviembre	2023-01-11T00:00:00	2024-11-08T21:00:00	6	Velocidad del viento	0
56470	7	Sololá	701	Sololá	1	Sololá	11	Noviembre	2023-01-11T00:00:00	2024-11-08T21:00:00	7	Dirección del viento	0
56471	7	Sololá	701	Sololá	1	Sololá	11	Noviembre	2023-01-11T00:00:00	2024-11-08T21:00:00	1	Precipitación	0
56472	7	Sololá	701	Sololá	1	Sololá	11	Noviembre	2023-01-11T00:00:00	2024-11-08T21:00:00	8	Radiación solar	0
56473	7	Sololá	701	Sololá	1	Sololá	11	Noviembre	2023-01-11T00:00:00	2024-11-08T22:00:00	2	Temperatura media	14.2
56474	7	Sololá	701	Sololá	1	Sololá	11	Noviembre	2023-01-11T00:00:00	2024-11-08T22:00:00	4	Temperatura máxima	14.6
56475	7	Sololá	701	Sololá	1	Sololá	11	Noviembre	2023-01-11T00:00:00	2024-11-08T22:00:00	3	Temperatura mínima	14.2
56476	7	Sololá	701	Sololá	1	Sololá	11	Noviembre	2023-01-11T00:00:00	2024-11-08T22:00:00	5	Humedad	83
56477	7	Sololá	701	Sololá	1	Sololá	11	Noviembre	2023-01-11T00:00:00	2024-11-08T22:00:00	6	Velocidad del viento	0
56478	7	Sololá	701	Sololá	1	Sololá	11	Noviembre	2023-01-11T00:00:00	2024-11-08T22:00:00	7	Dirección del viento	0
56479	7	Sololá	701	Sololá	1	Sololá	11	Noviembre	2023-01-11T00:00:00	2024-11-08T22:00:00	1	Precipitación	0
56480	7	Sololá	701	Sololá	1	Sololá	11	Noviembre	2023-01-11T00:00:00	2024-11-08T22:00:00	8	Radiación solar	0
56481	7	Sololá	701	Sololá	1	Sololá	11	Noviembre	2023-01-11T00:00:00	2024-11-08T23:00:00	2	Temperatura media	13.9
56482	7	Sololá	701	Sololá	1	Sololá	11	Noviembre	2023-01-11T00:00:00	2024-11-08T23:00:00	4	Temperatura máxima	14.2
56483	7	Sololá	701	Sololá	1	Sololá	11	Noviembre	2023-01-11T00:00:00	2024-11-08T23:00:00	3	Temperatura mínima	13.9
56484	7	Sololá	701	Sololá	1	Sololá	11	Noviembre	2023-01-11T00:00:00	2024-11-08T23:00:00	5	Humedad	82
56485	7	Sololá	701	Sololá	1	Sololá	11	Noviembre	2023-01-11T00:00:00	2024-11-08T23:00:00	6	Velocidad del viento	0
56486	7	Sololá	701	Sololá	1	Sololá	11	Noviembre	2023-01-11T00:00:00	2024-11-08T23:00:00	7	Dirección del viento	0
56487	7	Sololá	701	Sololá	1	Sololá	11	Noviembre	2023-01-11T00:00:00	2024-11-08T23:00:00	1	Precipitación	0
56488	7	Sololá	701	Sololá	1	Sololá	11	Noviembre	2023-01-11T00:00:00	2024-11-08T23:00:00	8	Radiación solar	0
56489	7	Sololá	701	Sololá	1	Sololá	11	Noviembre	2023-02-11T00:00:00	2024-11-08T00:00:00	2	Temperatura media	13.7
56490	7	Sololá	701	Sololá	1	Sololá	11	Noviembre	2023-02-11T00:00:00	2024-11-08T00:00:00	4	Temperatura máxima	13.9
56491	7	Sololá	701	Sololá	1	Sololá	11	Noviembre	2023-02-11T00:00:00	2024-11-08T00:00:00	3	Temperatura mínima	13.6
56492	7	Sololá	701	Sololá	1	Sololá	11	Noviembre	2023-02-11T00:00:00	2024-11-08T00:00:00	5	Humedad	82
56493	7	Sololá	701	Sololá	1	Sololá	11	Noviembre	2023-02-11T00:00:00	2024-11-08T00:00:00	6	Velocidad del viento	0
56494	7	Sololá	701	Sololá	1	Sololá	11	Noviembre	2023-02-11T00:00:00	2024-11-08T00:00:00	7	Dirección del viento	0
56495	7	Sololá	701	Sololá	1	Sololá	11	Noviembre	2023-02-11T00:00:00	2024-11-08T00:00:00	1	Precipitación	0
56496	7	Sololá	701	Sololá	1	Sololá	11	Noviembre	2023-02-11T00:00:00	2024-11-08T00:00:00	8	Radiación solar	0
56497	7	Sololá	701	Sololá	1	Sololá	11	Noviembre	2023-02-11T00:00:00	2024-11-08T01:00:00	2	Temperatura media	13.7
56498	7	Sololá	701	Sololá	1	Sololá	11	Noviembre	2023-02-11T00:00:00	2024-11-08T01:00:00	4	Temperatura máxima	13.8
56499	7	Sololá	701	Sololá	1	Sololá	11	Noviembre	2023-02-11T00:00:00	2024-11-08T01:00:00	3	Temperatura mínima	13.6
56500	7	Sololá	701	Sololá	1	Sololá	11	Noviembre	2023-02-11T00:00:00	2024-11-08T01:00:00	5	Humedad	88
56501	7	Sololá	701	Sololá	1	Sololá	11	Noviembre	2023-02-11T00:00:00	2024-11-08T01:00:00	6	Velocidad del viento	0
56502	7	Sololá	701	Sololá	1	Sololá	11	Noviembre	2023-02-11T00:00:00	2024-11-08T01:00:00	7	Dirección del viento	0
56503	7	Sololá	701	Sololá	1	Sololá	11	Noviembre	2023-02-11T00:00:00	2024-11-08T01:00:00	1	Precipitación	0
56504	7	Sololá	701	Sololá	1	Sololá	11	Noviembre	2023-02-11T00:00:00	2024-11-08T01:00:00	8	Radiación solar	0
56505	7	Sololá	701	Sololá	1	Sololá	11	Noviembre	2023-02-11T00:00:00	2024-11-08T02:00:00	2	Temperatura media	13.8
56506	7	Sololá	701	Sololá	1	Sololá	11	Noviembre	2023-02-11T00:00:00	2024-11-08T02:00:00	4	Temperatura máxima	13.9
56507	7	Sololá	701	Sololá	1	Sololá	11	Noviembre	2023-02-11T00:00:00	2024-11-08T02:00:00	3	Temperatura mínima	13.6
56508	7	Sololá	701	Sololá	1	Sololá	11	Noviembre	2023-02-11T00:00:00	2024-11-08T02:00:00	5	Humedad	87
56509	7	Sololá	701	Sololá	1	Sololá	11	Noviembre	2023-02-11T00:00:00	2024-11-08T02:00:00	6	Velocidad del viento	0
56510	7	Sololá	701	Sololá	1	Sololá	11	Noviembre	2023-02-11T00:00:00	2024-11-08T02:00:00	7	Dirección del viento	0
56511	7	Sololá	701	Sololá	1	Sololá	11	Noviembre	2023-02-11T00:00:00	2024-11-08T02:00:00	1	Precipitación	0
56512	7	Sololá	701	Sololá	1	Sololá	11	Noviembre	2023-02-11T00:00:00	2024-11-08T02:00:00	8	Radiación solar	0
56513	7	Sololá	701	Sololá	1	Sololá	11	Noviembre	2023-02-11T00:00:00	2024-11-08T03:00:00	2	Temperatura media	14.1
56514	7	Sololá	701	Sololá	1	Sololá	11	Noviembre	2023-02-11T00:00:00	2024-11-08T03:00:00	4	Temperatura máxima	14.1
56515	7	Sololá	701	Sololá	1	Sololá	11	Noviembre	2023-02-11T00:00:00	2024-11-08T03:00:00	3	Temperatura mínima	13.8
56516	7	Sololá	701	Sololá	1	Sololá	11	Noviembre	2023-02-11T00:00:00	2024-11-08T03:00:00	5	Humedad	87
56517	7	Sololá	701	Sololá	1	Sololá	11	Noviembre	2023-02-11T00:00:00	2024-11-08T03:00:00	6	Velocidad del viento	0
56518	7	Sololá	701	Sololá	1	Sololá	11	Noviembre	2023-02-11T00:00:00	2024-11-08T03:00:00	7	Dirección del viento	0
56519	7	Sololá	701	Sololá	1	Sololá	11	Noviembre	2023-02-11T00:00:00	2024-11-08T03:00:00	1	Precipitación	0
56520	7	Sololá	701	Sololá	1	Sololá	11	Noviembre	2023-02-11T00:00:00	2024-11-08T03:00:00	8	Radiación solar	0
56521	7	Sololá	701	Sololá	1	Sololá	11	Noviembre	2023-02-11T00:00:00	2024-11-08T04:00:00	2	Temperatura media	14.2
56522	7	Sololá	701	Sololá	1	Sololá	11	Noviembre	2023-02-11T00:00:00	2024-11-08T04:00:00	4	Temperatura máxima	14.2
56523	7	Sololá	701	Sololá	1	Sololá	11	Noviembre	2023-02-11T00:00:00	2024-11-08T04:00:00	3	Temperatura mínima	14
56524	7	Sololá	701	Sololá	1	Sololá	11	Noviembre	2023-02-11T00:00:00	2024-11-08T04:00:00	5	Humedad	87
56525	7	Sololá	701	Sololá	1	Sololá	11	Noviembre	2023-02-11T00:00:00	2024-11-08T04:00:00	6	Velocidad del viento	0
56526	7	Sololá	701	Sololá	1	Sololá	11	Noviembre	2023-02-11T00:00:00	2024-11-08T04:00:00	7	Dirección del viento	0
56527	7	Sololá	701	Sololá	1	Sololá	11	Noviembre	2023-02-11T00:00:00	2024-11-08T04:00:00	1	Precipitación	0
56528	7	Sololá	701	Sololá	1	Sololá	11	Noviembre	2023-02-11T00:00:00	2024-11-08T04:00:00	8	Radiación solar	0
56529	7	Sololá	701	Sololá	1	Sololá	11	Noviembre	2023-02-11T00:00:00	2024-11-08T05:00:00	2	Temperatura media	14.4
56530	7	Sololá	701	Sololá	1	Sololá	11	Noviembre	2023-02-11T00:00:00	2024-11-08T05:00:00	4	Temperatura máxima	14.6
56531	7	Sololá	701	Sololá	1	Sololá	11	Noviembre	2023-02-11T00:00:00	2024-11-08T05:00:00	3	Temperatura mínima	14.1
56532	7	Sololá	701	Sololá	1	Sololá	11	Noviembre	2023-02-11T00:00:00	2024-11-08T05:00:00	5	Humedad	86
56533	7	Sololá	701	Sololá	1	Sololá	11	Noviembre	2023-02-11T00:00:00	2024-11-08T05:00:00	6	Velocidad del viento	0
56534	7	Sololá	701	Sololá	1	Sololá	11	Noviembre	2023-02-11T00:00:00	2024-11-08T05:00:00	7	Dirección del viento	0
56535	7	Sololá	701	Sololá	1	Sololá	11	Noviembre	2023-02-11T00:00:00	2024-11-08T05:00:00	1	Precipitación	0
56536	7	Sololá	701	Sololá	1	Sololá	11	Noviembre	2023-02-11T00:00:00	2024-11-08T05:00:00	8	Radiación solar	0
56537	7	Sololá	701	Sololá	1	Sololá	11	Noviembre	2023-02-11T00:00:00	2024-11-08T06:00:00	2	Temperatura media	14.5
56538	7	Sololá	701	Sololá	1	Sololá	11	Noviembre	2023-02-11T00:00:00	2024-11-08T06:00:00	4	Temperatura máxima	14.5
56539	7	Sololá	701	Sololá	1	Sololá	11	Noviembre	2023-02-11T00:00:00	2024-11-08T06:00:00	3	Temperatura mínima	14.3
56540	7	Sololá	701	Sololá	1	Sololá	11	Noviembre	2023-02-11T00:00:00	2024-11-08T06:00:00	5	Humedad	86
56541	7	Sololá	701	Sololá	1	Sololá	11	Noviembre	2023-02-11T00:00:00	2024-11-08T06:00:00	6	Velocidad del viento	0
56542	7	Sololá	701	Sololá	1	Sololá	11	Noviembre	2023-02-11T00:00:00	2024-11-08T06:00:00	7	Dirección del viento	0
56543	7	Sololá	701	Sololá	1	Sololá	11	Noviembre	2023-02-11T00:00:00	2024-11-08T06:00:00	1	Precipitación	0
56544	7	Sololá	701	Sololá	1	Sololá	11	Noviembre	2023-02-11T00:00:00	2024-11-08T06:00:00	8	Radiación solar	0
56545	7	Sololá	701	Sololá	1	Sololá	11	Noviembre	2023-02-11T00:00:00	2024-11-08T07:00:00	2	Temperatura media	15.1
56546	7	Sololá	701	Sololá	1	Sololá	11	Noviembre	2023-02-11T00:00:00	2024-11-08T07:00:00	4	Temperatura máxima	15.1
56547	7	Sololá	701	Sololá	1	Sololá	11	Noviembre	2023-02-11T00:00:00	2024-11-08T07:00:00	3	Temperatura mínima	14.5
56548	7	Sololá	701	Sololá	1	Sololá	11	Noviembre	2023-02-11T00:00:00	2024-11-08T07:00:00	5	Humedad	86
56549	7	Sololá	701	Sololá	1	Sololá	11	Noviembre	2023-02-11T00:00:00	2024-11-08T07:00:00	6	Velocidad del viento	0
56550	7	Sololá	701	Sololá	1	Sololá	11	Noviembre	2023-02-11T00:00:00	2024-11-08T07:00:00	7	Dirección del viento	0
56551	7	Sololá	701	Sololá	1	Sololá	11	Noviembre	2023-02-11T00:00:00	2024-11-08T07:00:00	1	Precipitación	0
56552	7	Sololá	701	Sololá	1	Sololá	11	Noviembre	2023-02-11T00:00:00	2024-11-08T07:00:00	8	Radiación solar	31
56553	7	Sololá	701	Sololá	1	Sololá	11	Noviembre	2023-02-11T00:00:00	2024-11-08T08:00:00	2	Temperatura media	16.7
56554	7	Sololá	701	Sololá	1	Sololá	11	Noviembre	2023-02-11T00:00:00	2024-11-08T08:00:00	4	Temperatura máxima	16.7
56555	7	Sololá	701	Sololá	1	Sololá	11	Noviembre	2023-02-11T00:00:00	2024-11-08T08:00:00	3	Temperatura mínima	15.1
56556	7	Sololá	701	Sololá	1	Sololá	11	Noviembre	2023-02-11T00:00:00	2024-11-08T08:00:00	5	Humedad	84
56557	7	Sololá	701	Sololá	1	Sololá	11	Noviembre	2023-02-11T00:00:00	2024-11-08T08:00:00	6	Velocidad del viento	0
56558	7	Sololá	701	Sololá	1	Sololá	11	Noviembre	2023-02-11T00:00:00	2024-11-08T08:00:00	7	Dirección del viento	0
56559	7	Sololá	701	Sololá	1	Sololá	11	Noviembre	2023-02-11T00:00:00	2024-11-08T08:00:00	1	Precipitación	0
56560	7	Sololá	701	Sololá	1	Sololá	11	Noviembre	2023-02-11T00:00:00	2024-11-08T08:00:00	8	Radiación solar	126
56561	7	Sololá	701	Sololá	1	Sololá	11	Noviembre	2023-02-11T00:00:00	2024-11-08T09:00:00	2	Temperatura media	18
56562	7	Sololá	701	Sololá	1	Sololá	11	Noviembre	2023-02-11T00:00:00	2024-11-08T09:00:00	4	Temperatura máxima	18.2
56563	7	Sololá	701	Sololá	1	Sololá	11	Noviembre	2023-02-11T00:00:00	2024-11-08T09:00:00	3	Temperatura mínima	16.7
56564	7	Sololá	701	Sololá	1	Sololá	11	Noviembre	2023-02-11T00:00:00	2024-11-08T09:00:00	5	Humedad	80
56565	7	Sololá	701	Sololá	1	Sololá	11	Noviembre	2023-02-11T00:00:00	2024-11-08T09:00:00	6	Velocidad del viento	0
56566	7	Sololá	701	Sololá	1	Sololá	11	Noviembre	2023-02-11T00:00:00	2024-11-08T09:00:00	7	Dirección del viento	0
56567	7	Sololá	701	Sololá	1	Sololá	11	Noviembre	2023-02-11T00:00:00	2024-11-08T09:00:00	1	Precipitación	0
56568	7	Sololá	701	Sololá	1	Sololá	11	Noviembre	2023-02-11T00:00:00	2024-11-08T09:00:00	8	Radiación solar	313
56569	7	Sololá	701	Sololá	1	Sololá	11	Noviembre	2023-02-11T00:00:00	2024-11-08T10:00:00	2	Temperatura media	19.6
56570	7	Sololá	701	Sololá	1	Sololá	11	Noviembre	2023-02-11T00:00:00	2024-11-08T10:00:00	4	Temperatura máxima	19.6
56571	7	Sololá	701	Sololá	1	Sololá	11	Noviembre	2023-02-11T00:00:00	2024-11-08T10:00:00	3	Temperatura mínima	17.9
56572	7	Sololá	701	Sololá	1	Sololá	11	Noviembre	2023-02-11T00:00:00	2024-11-08T10:00:00	5	Humedad	75
56573	7	Sololá	701	Sololá	1	Sololá	11	Noviembre	2023-02-11T00:00:00	2024-11-08T10:00:00	6	Velocidad del viento	0
56574	7	Sololá	701	Sololá	1	Sololá	11	Noviembre	2023-02-11T00:00:00	2024-11-08T10:00:00	7	Dirección del viento	0
56575	7	Sololá	701	Sololá	1	Sololá	11	Noviembre	2023-02-11T00:00:00	2024-11-08T10:00:00	1	Precipitación	0
56576	7	Sololá	701	Sololá	1	Sololá	11	Noviembre	2023-02-11T00:00:00	2024-11-08T10:00:00	8	Radiación solar	374
56577	7	Sololá	701	Sololá	1	Sololá	11	Noviembre	2023-02-11T00:00:00	2024-11-08T11:00:00	2	Temperatura media	19.9
56578	7	Sololá	701	Sololá	1	Sololá	11	Noviembre	2023-02-11T00:00:00	2024-11-08T11:00:00	4	Temperatura máxima	21.7
56579	7	Sololá	701	Sololá	1	Sololá	11	Noviembre	2023-02-11T00:00:00	2024-11-08T11:00:00	3	Temperatura mínima	19.6
56580	7	Sololá	701	Sololá	1	Sololá	11	Noviembre	2023-02-11T00:00:00	2024-11-08T11:00:00	5	Humedad	72
56581	7	Sololá	701	Sololá	1	Sololá	11	Noviembre	2023-02-11T00:00:00	2024-11-08T11:00:00	6	Velocidad del viento	0
56582	7	Sololá	701	Sololá	1	Sololá	11	Noviembre	2023-02-11T00:00:00	2024-11-08T11:00:00	7	Dirección del viento	0
56583	7	Sololá	701	Sololá	1	Sololá	11	Noviembre	2023-02-11T00:00:00	2024-11-08T11:00:00	1	Precipitación	0
56584	7	Sololá	701	Sololá	1	Sololá	11	Noviembre	2023-02-11T00:00:00	2024-11-08T11:00:00	8	Radiación solar	386
56585	7	Sololá	701	Sololá	1	Sololá	11	Noviembre	2023-02-11T00:00:00	2024-11-08T12:00:00	2	Temperatura media	21.6
56586	7	Sololá	701	Sololá	1	Sololá	11	Noviembre	2023-02-11T00:00:00	2024-11-08T12:00:00	4	Temperatura máxima	22.2
56587	7	Sololá	701	Sololá	1	Sololá	11	Noviembre	2023-02-11T00:00:00	2024-11-08T12:00:00	3	Temperatura mínima	19.9
56588	7	Sololá	701	Sololá	1	Sololá	11	Noviembre	2023-02-11T00:00:00	2024-11-08T12:00:00	5	Humedad	67
56589	7	Sololá	701	Sololá	1	Sololá	11	Noviembre	2023-02-11T00:00:00	2024-11-08T12:00:00	6	Velocidad del viento	0
56590	7	Sololá	701	Sololá	1	Sololá	11	Noviembre	2023-02-11T00:00:00	2024-11-08T12:00:00	7	Dirección del viento	0
56591	7	Sololá	701	Sololá	1	Sololá	11	Noviembre	2023-02-11T00:00:00	2024-11-08T12:00:00	1	Precipitación	0
56592	7	Sololá	701	Sololá	1	Sololá	11	Noviembre	2023-02-11T00:00:00	2024-11-08T12:00:00	8	Radiación solar	457
56593	7	Sololá	701	Sololá	1	Sololá	11	Noviembre	2023-02-11T00:00:00	2024-11-08T13:00:00	2	Temperatura media	19.8
56594	7	Sololá	701	Sololá	1	Sololá	11	Noviembre	2023-02-11T00:00:00	2024-11-08T13:00:00	4	Temperatura máxima	21.6
56595	7	Sololá	701	Sololá	1	Sololá	11	Noviembre	2023-02-11T00:00:00	2024-11-08T13:00:00	3	Temperatura mínima	19.6
56596	7	Sololá	701	Sololá	1	Sololá	11	Noviembre	2023-02-11T00:00:00	2024-11-08T13:00:00	5	Humedad	77
56597	7	Sololá	701	Sololá	1	Sololá	11	Noviembre	2023-02-11T00:00:00	2024-11-08T13:00:00	6	Velocidad del viento	0
56598	7	Sololá	701	Sololá	1	Sololá	11	Noviembre	2023-02-11T00:00:00	2024-11-08T13:00:00	7	Dirección del viento	0
56599	7	Sololá	701	Sololá	1	Sololá	11	Noviembre	2023-02-11T00:00:00	2024-11-08T13:00:00	1	Precipitación	0
56600	7	Sololá	701	Sololá	1	Sololá	11	Noviembre	2023-02-11T00:00:00	2024-11-08T13:00:00	8	Radiación solar	287
56601	7	Sololá	701	Sololá	1	Sololá	11	Noviembre	2023-02-11T00:00:00	2024-11-08T14:00:00	2	Temperatura media	18.9
56602	7	Sololá	701	Sololá	1	Sololá	11	Noviembre	2023-02-11T00:00:00	2024-11-08T14:00:00	4	Temperatura máxima	20.3
56603	7	Sololá	701	Sololá	1	Sololá	11	Noviembre	2023-02-11T00:00:00	2024-11-08T14:00:00	3	Temperatura mínima	18.9
56604	7	Sololá	701	Sololá	1	Sololá	11	Noviembre	2023-02-11T00:00:00	2024-11-08T14:00:00	5	Humedad	77
56605	7	Sololá	701	Sololá	1	Sololá	11	Noviembre	2023-02-11T00:00:00	2024-11-08T14:00:00	6	Velocidad del viento	0
56606	7	Sololá	701	Sololá	1	Sololá	11	Noviembre	2023-02-11T00:00:00	2024-11-08T14:00:00	7	Dirección del viento	0
56607	7	Sololá	701	Sololá	1	Sololá	11	Noviembre	2023-02-11T00:00:00	2024-11-08T14:00:00	1	Precipitación	0
56608	7	Sololá	701	Sololá	1	Sololá	11	Noviembre	2023-02-11T00:00:00	2024-11-08T14:00:00	8	Radiación solar	200
56609	7	Sololá	701	Sololá	1	Sololá	11	Noviembre	2023-02-11T00:00:00	2024-11-08T15:00:00	2	Temperatura media	18.3
56610	7	Sololá	701	Sololá	1	Sololá	11	Noviembre	2023-02-11T00:00:00	2024-11-08T15:00:00	4	Temperatura máxima	18.9
56611	7	Sololá	701	Sololá	1	Sololá	11	Noviembre	2023-02-11T00:00:00	2024-11-08T15:00:00	3	Temperatura mínima	18.2
56612	7	Sololá	701	Sololá	1	Sololá	11	Noviembre	2023-02-11T00:00:00	2024-11-08T15:00:00	5	Humedad	77
56613	7	Sololá	701	Sololá	1	Sololá	11	Noviembre	2023-02-11T00:00:00	2024-11-08T15:00:00	6	Velocidad del viento	0
56614	7	Sololá	701	Sololá	1	Sololá	11	Noviembre	2023-02-11T00:00:00	2024-11-08T15:00:00	7	Dirección del viento	0
56615	7	Sololá	701	Sololá	1	Sololá	11	Noviembre	2023-02-11T00:00:00	2024-11-08T15:00:00	1	Precipitación	0
56616	7	Sololá	701	Sololá	1	Sololá	11	Noviembre	2023-02-11T00:00:00	2024-11-08T15:00:00	8	Radiación solar	170
56617	7	Sololá	701	Sololá	1	Sololá	11	Noviembre	2023-02-11T00:00:00	2024-11-08T16:00:00	2	Temperatura media	17.4
56618	7	Sololá	701	Sololá	1	Sololá	11	Noviembre	2023-02-11T00:00:00	2024-11-08T16:00:00	4	Temperatura máxima	18.3
56619	7	Sololá	701	Sololá	1	Sololá	11	Noviembre	2023-02-11T00:00:00	2024-11-08T16:00:00	3	Temperatura mínima	17.3
56620	7	Sololá	701	Sololá	1	Sololá	11	Noviembre	2023-02-11T00:00:00	2024-11-08T16:00:00	5	Humedad	78
56621	7	Sololá	701	Sololá	1	Sololá	11	Noviembre	2023-02-11T00:00:00	2024-11-08T16:00:00	6	Velocidad del viento	0
56622	7	Sololá	701	Sololá	1	Sololá	11	Noviembre	2023-02-11T00:00:00	2024-11-08T16:00:00	7	Dirección del viento	0
56623	7	Sololá	701	Sololá	1	Sololá	11	Noviembre	2023-02-11T00:00:00	2024-11-08T16:00:00	1	Precipitación	0
56624	7	Sololá	701	Sololá	1	Sololá	11	Noviembre	2023-02-11T00:00:00	2024-11-08T16:00:00	8	Radiación solar	73
56625	7	Sololá	701	Sololá	1	Sololá	11	Noviembre	2023-02-11T00:00:00	2024-11-08T17:00:00	2	Temperatura media	16.7
56626	7	Sololá	701	Sololá	1	Sololá	11	Noviembre	2023-02-11T00:00:00	2024-11-08T17:00:00	4	Temperatura máxima	17.4
56627	7	Sololá	701	Sololá	1	Sololá	11	Noviembre	2023-02-11T00:00:00	2024-11-08T17:00:00	3	Temperatura mínima	16.7
56628	7	Sololá	701	Sololá	1	Sololá	11	Noviembre	2023-02-11T00:00:00	2024-11-08T17:00:00	5	Humedad	81
56629	7	Sololá	701	Sololá	1	Sololá	11	Noviembre	2023-02-11T00:00:00	2024-11-08T17:00:00	6	Velocidad del viento	0
56630	7	Sololá	701	Sololá	1	Sololá	11	Noviembre	2023-02-11T00:00:00	2024-11-08T17:00:00	7	Dirección del viento	0
56631	7	Sololá	701	Sololá	1	Sololá	11	Noviembre	2023-02-11T00:00:00	2024-11-08T17:00:00	1	Precipitación	0
56632	7	Sololá	701	Sololá	1	Sololá	11	Noviembre	2023-02-11T00:00:00	2024-11-08T17:00:00	8	Radiación solar	41
56633	7	Sololá	701	Sololá	1	Sololá	11	Noviembre	2023-02-11T00:00:00	2024-11-08T18:00:00	2	Temperatura media	15.7
56634	7	Sololá	701	Sololá	1	Sololá	11	Noviembre	2023-02-11T00:00:00	2024-11-08T18:00:00	4	Temperatura máxima	16.7
56635	7	Sololá	701	Sololá	1	Sololá	11	Noviembre	2023-02-11T00:00:00	2024-11-08T18:00:00	3	Temperatura mínima	15.7
56636	7	Sololá	701	Sololá	1	Sololá	11	Noviembre	2023-02-11T00:00:00	2024-11-08T18:00:00	5	Humedad	82
56637	7	Sololá	701	Sololá	1	Sololá	11	Noviembre	2023-02-11T00:00:00	2024-11-08T18:00:00	6	Velocidad del viento	0
56638	7	Sololá	701	Sololá	1	Sololá	11	Noviembre	2023-02-11T00:00:00	2024-11-08T18:00:00	7	Dirección del viento	0
56639	7	Sololá	701	Sololá	1	Sololá	11	Noviembre	2023-02-11T00:00:00	2024-11-08T18:00:00	1	Precipitación	0
56640	7	Sololá	701	Sololá	1	Sololá	11	Noviembre	2023-02-11T00:00:00	2024-11-08T18:00:00	8	Radiación solar	4
56641	7	Sololá	701	Sololá	1	Sololá	11	Noviembre	2023-02-11T00:00:00	2024-11-08T19:00:00	2	Temperatura media	15.2
56642	7	Sololá	701	Sololá	1	Sololá	11	Noviembre	2023-02-11T00:00:00	2024-11-08T19:00:00	4	Temperatura máxima	15.7
56643	7	Sololá	701	Sololá	1	Sololá	11	Noviembre	2023-02-11T00:00:00	2024-11-08T19:00:00	3	Temperatura mínima	15.2
56644	7	Sololá	701	Sololá	1	Sololá	11	Noviembre	2023-02-11T00:00:00	2024-11-08T19:00:00	5	Humedad	83
56645	7	Sololá	701	Sololá	1	Sololá	11	Noviembre	2023-02-11T00:00:00	2024-11-08T19:00:00	6	Velocidad del viento	0
56646	7	Sololá	701	Sololá	1	Sololá	11	Noviembre	2023-02-11T00:00:00	2024-11-08T19:00:00	7	Dirección del viento	0
56647	7	Sololá	701	Sololá	1	Sololá	11	Noviembre	2023-02-11T00:00:00	2024-11-08T19:00:00	1	Precipitación	0
56648	7	Sololá	701	Sololá	1	Sololá	11	Noviembre	2023-02-11T00:00:00	2024-11-08T19:00:00	8	Radiación solar	0
56649	7	Sololá	701	Sololá	1	Sololá	11	Noviembre	2023-02-11T00:00:00	2024-11-08T20:00:00	2	Temperatura media	15.4
56650	7	Sololá	701	Sololá	1	Sololá	11	Noviembre	2023-02-11T00:00:00	2024-11-08T20:00:00	4	Temperatura máxima	15.4
56651	7	Sololá	701	Sololá	1	Sololá	11	Noviembre	2023-02-11T00:00:00	2024-11-08T20:00:00	3	Temperatura mínima	15.2
56652	7	Sololá	701	Sololá	1	Sololá	11	Noviembre	2023-02-11T00:00:00	2024-11-08T20:00:00	5	Humedad	83
56653	7	Sololá	701	Sololá	1	Sololá	11	Noviembre	2023-02-11T00:00:00	2024-11-08T20:00:00	6	Velocidad del viento	0
56654	7	Sololá	701	Sololá	1	Sololá	11	Noviembre	2023-02-11T00:00:00	2024-11-08T20:00:00	7	Dirección del viento	0
56655	7	Sololá	701	Sololá	1	Sololá	11	Noviembre	2023-02-11T00:00:00	2024-11-08T20:00:00	1	Precipitación	0
56656	7	Sololá	701	Sololá	1	Sololá	11	Noviembre	2023-02-11T00:00:00	2024-11-08T20:00:00	8	Radiación solar	0
56657	7	Sololá	701	Sololá	1	Sololá	11	Noviembre	2023-02-11T00:00:00	2024-11-08T21:00:00	2	Temperatura media	15.6
56658	7	Sololá	701	Sololá	1	Sololá	11	Noviembre	2023-02-11T00:00:00	2024-11-08T21:00:00	4	Temperatura máxima	15.6
56659	7	Sololá	701	Sololá	1	Sololá	11	Noviembre	2023-02-11T00:00:00	2024-11-08T21:00:00	3	Temperatura mínima	15.3
56660	7	Sololá	701	Sololá	1	Sololá	11	Noviembre	2023-02-11T00:00:00	2024-11-08T21:00:00	5	Humedad	82
56661	7	Sololá	701	Sololá	1	Sololá	11	Noviembre	2023-02-11T00:00:00	2024-11-08T21:00:00	6	Velocidad del viento	0
56662	7	Sololá	701	Sololá	1	Sololá	11	Noviembre	2023-02-11T00:00:00	2024-11-08T21:00:00	7	Dirección del viento	0
56663	7	Sololá	701	Sololá	1	Sololá	11	Noviembre	2023-02-11T00:00:00	2024-11-08T21:00:00	1	Precipitación	0
56664	7	Sololá	701	Sololá	1	Sololá	11	Noviembre	2023-02-11T00:00:00	2024-11-08T21:00:00	8	Radiación solar	0
56665	7	Sololá	701	Sololá	1	Sololá	11	Noviembre	2023-02-11T00:00:00	2024-11-08T22:00:00	2	Temperatura media	15.3
56666	7	Sololá	701	Sololá	1	Sololá	11	Noviembre	2023-02-11T00:00:00	2024-11-08T22:00:00	4	Temperatura máxima	15.6
56667	7	Sololá	701	Sololá	1	Sololá	11	Noviembre	2023-02-11T00:00:00	2024-11-08T22:00:00	3	Temperatura mínima	15.3
56668	7	Sololá	701	Sololá	1	Sololá	11	Noviembre	2023-02-11T00:00:00	2024-11-08T22:00:00	5	Humedad	83
56669	7	Sololá	701	Sololá	1	Sololá	11	Noviembre	2023-02-11T00:00:00	2024-11-08T22:00:00	6	Velocidad del viento	0
56670	7	Sololá	701	Sololá	1	Sololá	11	Noviembre	2023-02-11T00:00:00	2024-11-08T22:00:00	7	Dirección del viento	0
56671	7	Sololá	701	Sololá	1	Sololá	11	Noviembre	2023-02-11T00:00:00	2024-11-08T22:00:00	1	Precipitación	0
56672	7	Sololá	701	Sololá	1	Sololá	11	Noviembre	2023-02-11T00:00:00	2024-11-08T22:00:00	8	Radiación solar	0
56673	7	Sololá	701	Sololá	1	Sololá	11	Noviembre	2023-02-11T00:00:00	2024-11-08T23:00:00	2	Temperatura media	15.1
56674	7	Sololá	701	Sololá	1	Sololá	11	Noviembre	2023-02-11T00:00:00	2024-11-08T23:00:00	4	Temperatura máxima	15.4
56675	7	Sololá	701	Sololá	1	Sololá	11	Noviembre	2023-02-11T00:00:00	2024-11-08T23:00:00	3	Temperatura mínima	15.1
56676	7	Sololá	701	Sololá	1	Sololá	11	Noviembre	2023-02-11T00:00:00	2024-11-08T23:00:00	5	Humedad	83
56677	7	Sololá	701	Sololá	1	Sololá	11	Noviembre	2023-02-11T00:00:00	2024-11-08T23:00:00	6	Velocidad del viento	0
56678	7	Sololá	701	Sololá	1	Sololá	11	Noviembre	2023-02-11T00:00:00	2024-11-08T23:00:00	7	Dirección del viento	0
56679	7	Sololá	701	Sololá	1	Sololá	11	Noviembre	2023-02-11T00:00:00	2024-11-08T23:00:00	1	Precipitación	0
56680	7	Sololá	701	Sololá	1	Sololá	11	Noviembre	2023-02-11T00:00:00	2024-11-08T23:00:00	8	Radiación solar	0
56681	7	Sololá	701	Sololá	1	Sololá	11	Noviembre	2023-03-11T00:00:00	2024-11-08T00:00:00	2	Temperatura media	14.8
56682	7	Sololá	701	Sololá	1	Sololá	11	Noviembre	2023-03-11T00:00:00	2024-11-08T00:00:00	4	Temperatura máxima	15.1
56683	7	Sololá	701	Sololá	1	Sololá	11	Noviembre	2023-03-11T00:00:00	2024-11-08T00:00:00	3	Temperatura mínima	14.8
56684	7	Sololá	701	Sololá	1	Sololá	11	Noviembre	2023-03-11T00:00:00	2024-11-08T00:00:00	5	Humedad	82
56685	7	Sololá	701	Sololá	1	Sololá	11	Noviembre	2023-03-11T00:00:00	2024-11-08T00:00:00	6	Velocidad del viento	0
56686	7	Sololá	701	Sololá	1	Sololá	11	Noviembre	2023-03-11T00:00:00	2024-11-08T00:00:00	7	Dirección del viento	0
56687	7	Sololá	701	Sololá	1	Sololá	11	Noviembre	2023-03-11T00:00:00	2024-11-08T00:00:00	1	Precipitación	0
56688	7	Sololá	701	Sololá	1	Sololá	11	Noviembre	2023-03-11T00:00:00	2024-11-08T00:00:00	8	Radiación solar	0
56689	7	Sololá	701	Sololá	1	Sololá	11	Noviembre	2023-03-11T00:00:00	2024-11-08T01:00:00	2	Temperatura media	14.3
56690	7	Sololá	701	Sololá	1	Sololá	11	Noviembre	2023-03-11T00:00:00	2024-11-08T01:00:00	4	Temperatura máxima	14.8
56691	7	Sololá	701	Sololá	1	Sololá	11	Noviembre	2023-03-11T00:00:00	2024-11-08T01:00:00	3	Temperatura mínima	14.3
56692	7	Sololá	701	Sololá	1	Sololá	11	Noviembre	2023-03-11T00:00:00	2024-11-08T01:00:00	5	Humedad	84
56693	7	Sololá	701	Sololá	1	Sololá	11	Noviembre	2023-03-11T00:00:00	2024-11-08T01:00:00	6	Velocidad del viento	0
56694	7	Sololá	701	Sololá	1	Sololá	11	Noviembre	2023-03-11T00:00:00	2024-11-08T01:00:00	7	Dirección del viento	0
56695	7	Sololá	701	Sololá	1	Sololá	11	Noviembre	2023-03-11T00:00:00	2024-11-08T01:00:00	1	Precipitación	0
56696	7	Sololá	701	Sololá	1	Sololá	11	Noviembre	2023-03-11T00:00:00	2024-11-08T01:00:00	8	Radiación solar	0
56697	7	Sololá	701	Sololá	1	Sololá	11	Noviembre	2023-03-11T00:00:00	2024-11-08T02:00:00	2	Temperatura media	14.1
56698	7	Sololá	701	Sololá	1	Sololá	11	Noviembre	2023-03-11T00:00:00	2024-11-08T02:00:00	4	Temperatura máxima	14.3
56699	7	Sololá	701	Sololá	1	Sololá	11	Noviembre	2023-03-11T00:00:00	2024-11-08T02:00:00	3	Temperatura mínima	14.1
56700	7	Sololá	701	Sololá	1	Sololá	11	Noviembre	2023-03-11T00:00:00	2024-11-08T02:00:00	5	Humedad	82
56701	7	Sololá	701	Sololá	1	Sololá	11	Noviembre	2023-03-11T00:00:00	2024-11-08T02:00:00	6	Velocidad del viento	1.6
56702	7	Sololá	701	Sololá	1	Sololá	11	Noviembre	2023-03-11T00:00:00	2024-11-08T02:00:00	7	Dirección del viento	1.61
56703	7	Sololá	701	Sololá	1	Sololá	11	Noviembre	2023-03-11T00:00:00	2024-11-08T02:00:00	1	Precipitación	0
56704	7	Sololá	701	Sololá	1	Sololá	11	Noviembre	2023-03-11T00:00:00	2024-11-08T02:00:00	8	Radiación solar	0
56705	7	Sololá	701	Sololá	1	Sololá	11	Noviembre	2023-03-11T00:00:00	2024-11-08T03:00:00	2	Temperatura media	13.8
56706	7	Sololá	701	Sololá	1	Sololá	11	Noviembre	2023-03-11T00:00:00	2024-11-08T03:00:00	4	Temperatura máxima	14.2
56707	7	Sololá	701	Sololá	1	Sololá	11	Noviembre	2023-03-11T00:00:00	2024-11-08T03:00:00	3	Temperatura mínima	13.8
56708	7	Sololá	701	Sololá	1	Sololá	11	Noviembre	2023-03-11T00:00:00	2024-11-08T03:00:00	5	Humedad	83
56709	7	Sololá	701	Sololá	1	Sololá	11	Noviembre	2023-03-11T00:00:00	2024-11-08T03:00:00	6	Velocidad del viento	1.6
56710	7	Sololá	701	Sololá	1	Sololá	11	Noviembre	2023-03-11T00:00:00	2024-11-08T03:00:00	7	Dirección del viento	1.61
56711	7	Sololá	701	Sololá	1	Sololá	11	Noviembre	2023-03-11T00:00:00	2024-11-08T03:00:00	1	Precipitación	0
56712	7	Sololá	701	Sololá	1	Sololá	11	Noviembre	2023-03-11T00:00:00	2024-11-08T03:00:00	8	Radiación solar	0
56713	7	Sololá	701	Sololá	1	Sololá	11	Noviembre	2023-03-11T00:00:00	2024-11-08T04:00:00	2	Temperatura media	13.7
56714	7	Sololá	701	Sololá	1	Sololá	11	Noviembre	2023-03-11T00:00:00	2024-11-08T04:00:00	4	Temperatura máxima	13.8
56715	7	Sololá	701	Sololá	1	Sololá	11	Noviembre	2023-03-11T00:00:00	2024-11-08T04:00:00	3	Temperatura mínima	13.6
56716	7	Sololá	701	Sololá	1	Sololá	11	Noviembre	2023-03-11T00:00:00	2024-11-08T04:00:00	5	Humedad	83
56717	7	Sololá	701	Sololá	1	Sololá	11	Noviembre	2023-03-11T00:00:00	2024-11-08T04:00:00	6	Velocidad del viento	0
56718	7	Sololá	701	Sololá	1	Sololá	11	Noviembre	2023-03-11T00:00:00	2024-11-08T04:00:00	7	Dirección del viento	0
56719	7	Sololá	701	Sololá	1	Sololá	11	Noviembre	2023-03-11T00:00:00	2024-11-08T04:00:00	1	Precipitación	0
56720	7	Sololá	701	Sololá	1	Sololá	11	Noviembre	2023-03-11T00:00:00	2024-11-08T04:00:00	8	Radiación solar	0
56721	7	Sololá	701	Sololá	1	Sololá	11	Noviembre	2023-03-11T00:00:00	2024-11-08T05:00:00	2	Temperatura media	13.6
56722	7	Sololá	701	Sololá	1	Sololá	11	Noviembre	2023-03-11T00:00:00	2024-11-08T05:00:00	4	Temperatura máxima	13.7
56723	7	Sololá	701	Sololá	1	Sololá	11	Noviembre	2023-03-11T00:00:00	2024-11-08T05:00:00	3	Temperatura mínima	13.6
56724	7	Sololá	701	Sololá	1	Sololá	11	Noviembre	2023-03-11T00:00:00	2024-11-08T05:00:00	5	Humedad	82
56725	7	Sololá	701	Sololá	1	Sololá	11	Noviembre	2023-03-11T00:00:00	2024-11-08T05:00:00	6	Velocidad del viento	1.6
56726	7	Sololá	701	Sololá	1	Sololá	11	Noviembre	2023-03-11T00:00:00	2024-11-08T05:00:00	7	Dirección del viento	1.61
56727	7	Sololá	701	Sololá	1	Sololá	11	Noviembre	2023-03-11T00:00:00	2024-11-08T05:00:00	1	Precipitación	0
56728	7	Sololá	701	Sololá	1	Sololá	11	Noviembre	2023-03-11T00:00:00	2024-11-08T05:00:00	8	Radiación solar	0
56729	7	Sololá	701	Sololá	1	Sololá	11	Noviembre	2023-03-11T00:00:00	2024-11-08T06:00:00	2	Temperatura media	13.9
56730	7	Sololá	701	Sololá	1	Sololá	11	Noviembre	2023-03-11T00:00:00	2024-11-08T06:00:00	4	Temperatura máxima	14
56731	7	Sololá	701	Sololá	1	Sololá	11	Noviembre	2023-03-11T00:00:00	2024-11-08T06:00:00	3	Temperatura mínima	13.6
56732	7	Sololá	701	Sololá	1	Sololá	11	Noviembre	2023-03-11T00:00:00	2024-11-08T06:00:00	5	Humedad	80
56733	7	Sololá	701	Sololá	1	Sololá	11	Noviembre	2023-03-11T00:00:00	2024-11-08T06:00:00	6	Velocidad del viento	1.6
56734	7	Sololá	701	Sololá	1	Sololá	11	Noviembre	2023-03-11T00:00:00	2024-11-08T06:00:00	7	Dirección del viento	1.61
56735	7	Sololá	701	Sololá	1	Sololá	11	Noviembre	2023-03-11T00:00:00	2024-11-08T06:00:00	1	Precipitación	0
56736	7	Sololá	701	Sololá	1	Sololá	11	Noviembre	2023-03-11T00:00:00	2024-11-08T06:00:00	8	Radiación solar	0
56737	7	Sololá	701	Sololá	1	Sololá	11	Noviembre	2023-03-11T00:00:00	2024-11-08T07:00:00	2	Temperatura media	14.1
56738	7	Sololá	701	Sololá	1	Sololá	11	Noviembre	2023-03-11T00:00:00	2024-11-08T07:00:00	4	Temperatura máxima	14.2
56739	7	Sololá	701	Sololá	1	Sololá	11	Noviembre	2023-03-11T00:00:00	2024-11-08T07:00:00	3	Temperatura mínima	13.8
56740	7	Sololá	701	Sololá	1	Sololá	11	Noviembre	2023-03-11T00:00:00	2024-11-08T07:00:00	5	Humedad	79
56741	7	Sololá	701	Sololá	1	Sololá	11	Noviembre	2023-03-11T00:00:00	2024-11-08T07:00:00	6	Velocidad del viento	1.6
56742	7	Sololá	701	Sololá	1	Sololá	11	Noviembre	2023-03-11T00:00:00	2024-11-08T07:00:00	7	Dirección del viento	1.61
56743	7	Sololá	701	Sololá	1	Sololá	11	Noviembre	2023-03-11T00:00:00	2024-11-08T07:00:00	1	Precipitación	0
56744	7	Sololá	701	Sololá	1	Sololá	11	Noviembre	2023-03-11T00:00:00	2024-11-08T07:00:00	8	Radiación solar	7
56745	7	Sololá	701	Sololá	1	Sololá	11	Noviembre	2023-03-11T00:00:00	2024-11-08T08:00:00	2	Temperatura media	15.2
56746	7	Sololá	701	Sololá	1	Sololá	11	Noviembre	2023-03-11T00:00:00	2024-11-08T08:00:00	4	Temperatura máxima	15.2
56747	7	Sololá	701	Sololá	1	Sololá	11	Noviembre	2023-03-11T00:00:00	2024-11-08T08:00:00	3	Temperatura mínima	14.1
56748	7	Sololá	701	Sololá	1	Sololá	11	Noviembre	2023-03-11T00:00:00	2024-11-08T08:00:00	5	Humedad	77
56749	7	Sololá	701	Sololá	1	Sololá	11	Noviembre	2023-03-11T00:00:00	2024-11-08T08:00:00	6	Velocidad del viento	1.6
56750	7	Sololá	701	Sololá	1	Sololá	11	Noviembre	2023-03-11T00:00:00	2024-11-08T08:00:00	7	Dirección del viento	1.61
56751	7	Sololá	701	Sololá	1	Sololá	11	Noviembre	2023-03-11T00:00:00	2024-11-08T08:00:00	1	Precipitación	0
56752	7	Sololá	701	Sololá	1	Sololá	11	Noviembre	2023-03-11T00:00:00	2024-11-08T08:00:00	8	Radiación solar	53
56753	7	Sololá	701	Sololá	1	Sololá	11	Noviembre	2023-03-11T00:00:00	2024-11-08T09:00:00	2	Temperatura media	17.3
56754	7	Sololá	701	Sololá	1	Sololá	11	Noviembre	2023-03-11T00:00:00	2024-11-08T09:00:00	4	Temperatura máxima	17.6
56755	7	Sololá	701	Sololá	1	Sololá	11	Noviembre	2023-03-11T00:00:00	2024-11-08T09:00:00	3	Temperatura mínima	15.2
56756	7	Sololá	701	Sololá	1	Sololá	11	Noviembre	2023-03-11T00:00:00	2024-11-08T09:00:00	5	Humedad	72
56757	7	Sololá	701	Sololá	1	Sololá	11	Noviembre	2023-03-11T00:00:00	2024-11-08T09:00:00	6	Velocidad del viento	1.6
56758	7	Sololá	701	Sololá	1	Sololá	11	Noviembre	2023-03-11T00:00:00	2024-11-08T09:00:00	7	Dirección del viento	1.61
56759	7	Sololá	701	Sololá	1	Sololá	11	Noviembre	2023-03-11T00:00:00	2024-11-08T09:00:00	1	Precipitación	0
56760	7	Sololá	701	Sololá	1	Sololá	11	Noviembre	2023-03-11T00:00:00	2024-11-08T09:00:00	8	Radiación solar	198
56761	7	Sololá	701	Sololá	1	Sololá	11	Noviembre	2023-03-11T00:00:00	2024-11-08T10:00:00	2	Temperatura media	16.8
56762	7	Sololá	701	Sololá	1	Sololá	11	Noviembre	2023-03-11T00:00:00	2024-11-08T10:00:00	4	Temperatura máxima	17.3
56763	7	Sololá	701	Sololá	1	Sololá	11	Noviembre	2023-03-11T00:00:00	2024-11-08T10:00:00	3	Temperatura mínima	16.5
56764	7	Sololá	701	Sololá	1	Sololá	11	Noviembre	2023-03-11T00:00:00	2024-11-08T10:00:00	5	Humedad	73
56765	7	Sololá	701	Sololá	1	Sololá	11	Noviembre	2023-03-11T00:00:00	2024-11-08T10:00:00	6	Velocidad del viento	0
56766	7	Sololá	701	Sololá	1	Sololá	11	Noviembre	2023-03-11T00:00:00	2024-11-08T10:00:00	7	Dirección del viento	0
56767	7	Sololá	701	Sololá	1	Sololá	11	Noviembre	2023-03-11T00:00:00	2024-11-08T10:00:00	1	Precipitación	0
56768	7	Sololá	701	Sololá	1	Sololá	11	Noviembre	2023-03-11T00:00:00	2024-11-08T10:00:00	8	Radiación solar	99
56769	7	Sololá	701	Sololá	1	Sololá	11	Noviembre	2023-03-11T00:00:00	2024-11-08T11:00:00	2	Temperatura media	17.8
56770	7	Sololá	701	Sololá	1	Sololá	11	Noviembre	2023-03-11T00:00:00	2024-11-08T11:00:00	4	Temperatura máxima	17.8
56771	7	Sololá	701	Sololá	1	Sololá	11	Noviembre	2023-03-11T00:00:00	2024-11-08T11:00:00	3	Temperatura mínima	16.8
56772	7	Sololá	701	Sololá	1	Sololá	11	Noviembre	2023-03-11T00:00:00	2024-11-08T11:00:00	5	Humedad	74
56773	7	Sololá	701	Sololá	1	Sololá	11	Noviembre	2023-03-11T00:00:00	2024-11-08T11:00:00	6	Velocidad del viento	0
56774	7	Sololá	701	Sololá	1	Sololá	11	Noviembre	2023-03-11T00:00:00	2024-11-08T11:00:00	7	Dirección del viento	0
56775	7	Sololá	701	Sololá	1	Sololá	11	Noviembre	2023-03-11T00:00:00	2024-11-08T11:00:00	1	Precipitación	0
56776	7	Sololá	701	Sololá	1	Sololá	11	Noviembre	2023-03-11T00:00:00	2024-11-08T11:00:00	8	Radiación solar	155
56777	7	Sololá	701	Sololá	1	Sololá	11	Noviembre	2023-03-11T00:00:00	2024-11-08T12:00:00	2	Temperatura media	18.7
56778	7	Sololá	701	Sololá	1	Sololá	11	Noviembre	2023-03-11T00:00:00	2024-11-08T12:00:00	4	Temperatura máxima	18.8
56779	7	Sololá	701	Sololá	1	Sololá	11	Noviembre	2023-03-11T00:00:00	2024-11-08T12:00:00	3	Temperatura mínima	17.8
56780	7	Sololá	701	Sololá	1	Sololá	11	Noviembre	2023-03-11T00:00:00	2024-11-08T12:00:00	5	Humedad	72
56781	7	Sololá	701	Sololá	1	Sololá	11	Noviembre	2023-03-11T00:00:00	2024-11-08T12:00:00	6	Velocidad del viento	1.6
56782	7	Sololá	701	Sololá	1	Sololá	11	Noviembre	2023-03-11T00:00:00	2024-11-08T12:00:00	7	Dirección del viento	1.61
56783	7	Sololá	701	Sololá	1	Sololá	11	Noviembre	2023-03-11T00:00:00	2024-11-08T12:00:00	1	Precipitación	0
56784	7	Sololá	701	Sololá	1	Sololá	11	Noviembre	2023-03-11T00:00:00	2024-11-08T12:00:00	8	Radiación solar	246
56785	7	Sololá	701	Sololá	1	Sololá	11	Noviembre	2023-03-11T00:00:00	2024-11-08T13:00:00	2	Temperatura media	18.7
56786	7	Sololá	701	Sololá	1	Sololá	11	Noviembre	2023-03-11T00:00:00	2024-11-08T13:00:00	4	Temperatura máxima	18.8
56787	7	Sololá	701	Sololá	1	Sololá	11	Noviembre	2023-03-11T00:00:00	2024-11-08T13:00:00	3	Temperatura mínima	18.6
56788	7	Sololá	701	Sololá	1	Sololá	11	Noviembre	2023-03-11T00:00:00	2024-11-08T13:00:00	5	Humedad	73
56789	7	Sololá	701	Sololá	1	Sololá	11	Noviembre	2023-03-11T00:00:00	2024-11-08T13:00:00	6	Velocidad del viento	0
56790	7	Sololá	701	Sololá	1	Sololá	11	Noviembre	2023-03-11T00:00:00	2024-11-08T13:00:00	7	Dirección del viento	0
56791	7	Sololá	701	Sololá	1	Sololá	11	Noviembre	2023-03-11T00:00:00	2024-11-08T13:00:00	1	Precipitación	0
56792	7	Sololá	701	Sololá	1	Sololá	11	Noviembre	2023-03-11T00:00:00	2024-11-08T13:00:00	8	Radiación solar	204
56793	7	Sololá	701	Sololá	1	Sololá	11	Noviembre	2023-03-11T00:00:00	2024-11-08T14:00:00	2	Temperatura media	17.6
56794	7	Sololá	701	Sololá	1	Sololá	11	Noviembre	2023-03-11T00:00:00	2024-11-08T14:00:00	4	Temperatura máxima	18.7
56795	7	Sololá	701	Sololá	1	Sololá	11	Noviembre	2023-03-11T00:00:00	2024-11-08T14:00:00	3	Temperatura mínima	17.6
56796	7	Sololá	701	Sololá	1	Sololá	11	Noviembre	2023-03-11T00:00:00	2024-11-08T14:00:00	5	Humedad	75
56797	7	Sololá	701	Sololá	1	Sololá	11	Noviembre	2023-03-11T00:00:00	2024-11-08T14:00:00	6	Velocidad del viento	0
56798	7	Sololá	701	Sololá	1	Sololá	11	Noviembre	2023-03-11T00:00:00	2024-11-08T14:00:00	7	Dirección del viento	0
56799	7	Sololá	701	Sololá	1	Sololá	11	Noviembre	2023-03-11T00:00:00	2024-11-08T14:00:00	1	Precipitación	0
56800	7	Sololá	701	Sololá	1	Sololá	11	Noviembre	2023-03-11T00:00:00	2024-11-08T14:00:00	8	Radiación solar	113
56801	7	Sololá	701	Sololá	1	Sololá	11	Noviembre	2023-03-11T00:00:00	2024-11-08T15:00:00	2	Temperatura media	17.5
56802	7	Sololá	701	Sololá	1	Sololá	11	Noviembre	2023-03-11T00:00:00	2024-11-08T15:00:00	4	Temperatura máxima	17.6
56803	7	Sololá	701	Sololá	1	Sololá	11	Noviembre	2023-03-11T00:00:00	2024-11-08T15:00:00	3	Temperatura mínima	17.1
56804	7	Sololá	701	Sololá	1	Sololá	11	Noviembre	2023-03-11T00:00:00	2024-11-08T15:00:00	5	Humedad	75
56805	7	Sololá	701	Sololá	1	Sololá	11	Noviembre	2023-03-11T00:00:00	2024-11-08T15:00:00	6	Velocidad del viento	0
56806	7	Sololá	701	Sololá	1	Sololá	11	Noviembre	2023-03-11T00:00:00	2024-11-08T15:00:00	7	Dirección del viento	0
56807	7	Sololá	701	Sololá	1	Sololá	11	Noviembre	2023-03-11T00:00:00	2024-11-08T15:00:00	1	Precipitación	0
56808	7	Sololá	701	Sololá	1	Sololá	11	Noviembre	2023-03-11T00:00:00	2024-11-08T15:00:00	8	Radiación solar	77
56809	7	Sololá	701	Sololá	1	Sololá	11	Noviembre	2023-03-11T00:00:00	2024-11-08T16:00:00	2	Temperatura media	17.4
56810	7	Sololá	701	Sololá	1	Sololá	11	Noviembre	2023-03-11T00:00:00	2024-11-08T16:00:00	4	Temperatura máxima	17.6
56811	7	Sololá	701	Sololá	1	Sololá	11	Noviembre	2023-03-11T00:00:00	2024-11-08T16:00:00	3	Temperatura mínima	17.4
56812	7	Sololá	701	Sololá	1	Sololá	11	Noviembre	2023-03-11T00:00:00	2024-11-08T16:00:00	5	Humedad	76
56813	7	Sololá	701	Sololá	1	Sololá	11	Noviembre	2023-03-11T00:00:00	2024-11-08T16:00:00	6	Velocidad del viento	0
56814	7	Sololá	701	Sololá	1	Sololá	11	Noviembre	2023-03-11T00:00:00	2024-11-08T16:00:00	7	Dirección del viento	0
56815	7	Sololá	701	Sololá	1	Sololá	11	Noviembre	2023-03-11T00:00:00	2024-11-08T16:00:00	1	Precipitación	0
56816	7	Sololá	701	Sololá	1	Sololá	11	Noviembre	2023-03-11T00:00:00	2024-11-08T16:00:00	8	Radiación solar	81
56817	7	Sololá	701	Sololá	1	Sololá	11	Noviembre	2023-03-11T00:00:00	2024-11-08T17:00:00	2	Temperatura media	16.5
56818	7	Sololá	701	Sololá	1	Sololá	11	Noviembre	2023-03-11T00:00:00	2024-11-08T17:00:00	4	Temperatura máxima	17.5
56819	7	Sololá	701	Sololá	1	Sololá	11	Noviembre	2023-03-11T00:00:00	2024-11-08T17:00:00	3	Temperatura mínima	16.4
56820	7	Sololá	701	Sololá	1	Sololá	11	Noviembre	2023-03-11T00:00:00	2024-11-08T17:00:00	5	Humedad	79
56821	7	Sololá	701	Sololá	1	Sololá	11	Noviembre	2023-03-11T00:00:00	2024-11-08T17:00:00	6	Velocidad del viento	0
56822	7	Sololá	701	Sololá	1	Sololá	11	Noviembre	2023-03-11T00:00:00	2024-11-08T17:00:00	7	Dirección del viento	0
56823	7	Sololá	701	Sololá	1	Sololá	11	Noviembre	2023-03-11T00:00:00	2024-11-08T17:00:00	1	Precipitación	0
56824	7	Sololá	701	Sololá	1	Sololá	11	Noviembre	2023-03-11T00:00:00	2024-11-08T17:00:00	8	Radiación solar	56
56825	7	Sololá	701	Sololá	1	Sololá	11	Noviembre	2023-03-11T00:00:00	2024-11-08T18:00:00	2	Temperatura media	15.2
56826	7	Sololá	701	Sololá	1	Sololá	11	Noviembre	2023-03-11T00:00:00	2024-11-08T18:00:00	4	Temperatura máxima	16.5
56827	7	Sololá	701	Sololá	1	Sololá	11	Noviembre	2023-03-11T00:00:00	2024-11-08T18:00:00	3	Temperatura mínima	15.2
56828	7	Sololá	701	Sololá	1	Sololá	11	Noviembre	2023-03-11T00:00:00	2024-11-08T18:00:00	5	Humedad	77
56829	7	Sololá	701	Sololá	1	Sololá	11	Noviembre	2023-03-11T00:00:00	2024-11-08T18:00:00	6	Velocidad del viento	0
56830	7	Sololá	701	Sololá	1	Sololá	11	Noviembre	2023-03-11T00:00:00	2024-11-08T18:00:00	7	Dirección del viento	0
56831	7	Sololá	701	Sololá	1	Sololá	11	Noviembre	2023-03-11T00:00:00	2024-11-08T18:00:00	1	Precipitación	0
56832	7	Sololá	701	Sololá	1	Sololá	11	Noviembre	2023-03-11T00:00:00	2024-11-08T18:00:00	8	Radiación solar	9
56833	7	Sololá	701	Sololá	1	Sololá	11	Noviembre	2023-03-11T00:00:00	2024-11-08T19:00:00	2	Temperatura media	14.9
56834	7	Sololá	701	Sololá	1	Sololá	11	Noviembre	2023-03-11T00:00:00	2024-11-08T19:00:00	4	Temperatura máxima	15.2
56835	7	Sololá	701	Sololá	1	Sololá	11	Noviembre	2023-03-11T00:00:00	2024-11-08T19:00:00	3	Temperatura mínima	14.9
56836	7	Sololá	701	Sololá	1	Sololá	11	Noviembre	2023-03-11T00:00:00	2024-11-08T19:00:00	5	Humedad	77
56837	7	Sololá	701	Sololá	1	Sololá	11	Noviembre	2023-03-11T00:00:00	2024-11-08T19:00:00	6	Velocidad del viento	0
56838	7	Sololá	701	Sololá	1	Sololá	11	Noviembre	2023-03-11T00:00:00	2024-11-08T19:00:00	7	Dirección del viento	0
56839	7	Sololá	701	Sololá	1	Sololá	11	Noviembre	2023-03-11T00:00:00	2024-11-08T19:00:00	1	Precipitación	0
56840	7	Sololá	701	Sololá	1	Sololá	11	Noviembre	2023-03-11T00:00:00	2024-11-08T19:00:00	8	Radiación solar	0
56841	7	Sololá	701	Sololá	1	Sololá	11	Noviembre	2023-03-11T00:00:00	2024-11-08T20:00:00	2	Temperatura media	15.4
56842	7	Sololá	701	Sololá	1	Sololá	11	Noviembre	2023-03-11T00:00:00	2024-11-08T20:00:00	4	Temperatura máxima	15.4
56843	7	Sololá	701	Sololá	1	Sololá	11	Noviembre	2023-03-11T00:00:00	2024-11-08T20:00:00	3	Temperatura mínima	14.9
56844	7	Sololá	701	Sololá	1	Sololá	11	Noviembre	2023-03-11T00:00:00	2024-11-08T20:00:00	5	Humedad	74
56845	7	Sololá	701	Sololá	1	Sololá	11	Noviembre	2023-03-11T00:00:00	2024-11-08T20:00:00	6	Velocidad del viento	0
56846	7	Sololá	701	Sololá	1	Sololá	11	Noviembre	2023-03-11T00:00:00	2024-11-08T20:00:00	7	Dirección del viento	0
56847	7	Sololá	701	Sololá	1	Sololá	11	Noviembre	2023-03-11T00:00:00	2024-11-08T20:00:00	1	Precipitación	0
56848	7	Sololá	701	Sololá	1	Sololá	11	Noviembre	2023-03-11T00:00:00	2024-11-08T20:00:00	8	Radiación solar	0
56849	7	Sololá	701	Sololá	1	Sololá	11	Noviembre	2023-03-11T00:00:00	2024-11-08T21:00:00	2	Temperatura media	15.6
56850	7	Sololá	701	Sololá	1	Sololá	11	Noviembre	2023-03-11T00:00:00	2024-11-08T21:00:00	4	Temperatura máxima	15.7
56851	7	Sololá	701	Sololá	1	Sololá	11	Noviembre	2023-03-11T00:00:00	2024-11-08T21:00:00	3	Temperatura mínima	15.4
56852	7	Sololá	701	Sololá	1	Sololá	11	Noviembre	2023-03-11T00:00:00	2024-11-08T21:00:00	5	Humedad	75
56853	7	Sololá	701	Sololá	1	Sololá	11	Noviembre	2023-03-11T00:00:00	2024-11-08T21:00:00	6	Velocidad del viento	1.6
56854	7	Sololá	701	Sololá	1	Sololá	11	Noviembre	2023-03-11T00:00:00	2024-11-08T21:00:00	7	Dirección del viento	1.61
56855	7	Sololá	701	Sololá	1	Sololá	11	Noviembre	2023-03-11T00:00:00	2024-11-08T21:00:00	1	Precipitación	0
56856	7	Sololá	701	Sololá	1	Sololá	11	Noviembre	2023-03-11T00:00:00	2024-11-08T21:00:00	8	Radiación solar	0
56857	7	Sololá	701	Sololá	1	Sololá	11	Noviembre	2023-03-11T00:00:00	2024-11-08T22:00:00	2	Temperatura media	14.9
56858	7	Sololá	701	Sololá	1	Sololá	11	Noviembre	2023-03-11T00:00:00	2024-11-08T22:00:00	4	Temperatura máxima	15.7
56859	7	Sololá	701	Sololá	1	Sololá	11	Noviembre	2023-03-11T00:00:00	2024-11-08T22:00:00	3	Temperatura mínima	14.9
56860	7	Sololá	701	Sololá	1	Sololá	11	Noviembre	2023-03-11T00:00:00	2024-11-08T22:00:00	5	Humedad	80
56861	7	Sololá	701	Sololá	1	Sololá	11	Noviembre	2023-03-11T00:00:00	2024-11-08T22:00:00	6	Velocidad del viento	0
56862	7	Sololá	701	Sololá	1	Sololá	11	Noviembre	2023-03-11T00:00:00	2024-11-08T22:00:00	7	Dirección del viento	0
56863	7	Sololá	701	Sololá	1	Sololá	11	Noviembre	2023-03-11T00:00:00	2024-11-08T22:00:00	1	Precipitación	0
56864	7	Sololá	701	Sololá	1	Sololá	11	Noviembre	2023-03-11T00:00:00	2024-11-08T22:00:00	8	Radiación solar	0
56865	7	Sololá	701	Sololá	1	Sololá	11	Noviembre	2023-03-11T00:00:00	2024-11-08T23:00:00	2	Temperatura media	15.2
56866	7	Sololá	701	Sololá	1	Sololá	11	Noviembre	2023-03-11T00:00:00	2024-11-08T23:00:00	4	Temperatura máxima	15.3
56867	7	Sololá	701	Sololá	1	Sololá	11	Noviembre	2023-03-11T00:00:00	2024-11-08T23:00:00	3	Temperatura mínima	14.8
56868	7	Sololá	701	Sololá	1	Sololá	11	Noviembre	2023-03-11T00:00:00	2024-11-08T23:00:00	5	Humedad	80
56869	7	Sololá	701	Sololá	1	Sololá	11	Noviembre	2023-03-11T00:00:00	2024-11-08T23:00:00	6	Velocidad del viento	1.6
56870	7	Sololá	701	Sololá	1	Sololá	11	Noviembre	2023-03-11T00:00:00	2024-11-08T23:00:00	7	Dirección del viento	1.61
56871	7	Sololá	701	Sololá	1	Sololá	11	Noviembre	2023-03-11T00:00:00	2024-11-08T23:00:00	1	Precipitación	0
56872	7	Sololá	701	Sololá	1	Sololá	11	Noviembre	2023-03-11T00:00:00	2024-11-08T23:00:00	8	Radiación solar	0
56873	7	Sololá	701	Sololá	1	Sololá	11	Noviembre	2023-04-11T00:00:00	2024-11-08T00:00:00	2	Temperatura media	15.4
56874	7	Sololá	701	Sololá	1	Sololá	11	Noviembre	2023-04-11T00:00:00	2024-11-08T00:00:00	4	Temperatura máxima	15.5
56875	7	Sololá	701	Sololá	1	Sololá	11	Noviembre	2023-04-11T00:00:00	2024-11-08T00:00:00	3	Temperatura mínima	15.2
56876	7	Sololá	701	Sololá	1	Sololá	11	Noviembre	2023-04-11T00:00:00	2024-11-08T00:00:00	5	Humedad	81
56877	7	Sololá	701	Sololá	1	Sololá	11	Noviembre	2023-04-11T00:00:00	2024-11-08T00:00:00	6	Velocidad del viento	0
56878	7	Sololá	701	Sololá	1	Sololá	11	Noviembre	2023-04-11T00:00:00	2024-11-08T00:00:00	7	Dirección del viento	0
56879	7	Sololá	701	Sololá	1	Sololá	11	Noviembre	2023-04-11T00:00:00	2024-11-08T00:00:00	1	Precipitación	0
56880	7	Sololá	701	Sololá	1	Sololá	11	Noviembre	2023-04-11T00:00:00	2024-11-08T00:00:00	8	Radiación solar	0
56881	7	Sololá	701	Sololá	1	Sololá	11	Noviembre	2023-04-11T00:00:00	2024-11-08T01:00:00	2	Temperatura media	15.6
56882	7	Sololá	701	Sololá	1	Sololá	11	Noviembre	2023-04-11T00:00:00	2024-11-08T01:00:00	4	Temperatura máxima	15.6
56883	7	Sololá	701	Sololá	1	Sololá	11	Noviembre	2023-04-11T00:00:00	2024-11-08T01:00:00	3	Temperatura mínima	15.2
56884	7	Sololá	701	Sololá	1	Sololá	11	Noviembre	2023-04-11T00:00:00	2024-11-08T01:00:00	5	Humedad	81
56885	7	Sololá	701	Sololá	1	Sololá	11	Noviembre	2023-04-11T00:00:00	2024-11-08T01:00:00	6	Velocidad del viento	0
56886	7	Sololá	701	Sololá	1	Sololá	11	Noviembre	2023-04-11T00:00:00	2024-11-08T01:00:00	7	Dirección del viento	0
56887	7	Sololá	701	Sololá	1	Sololá	11	Noviembre	2023-04-11T00:00:00	2024-11-08T01:00:00	1	Precipitación	0
56888	7	Sololá	701	Sololá	1	Sololá	11	Noviembre	2023-04-11T00:00:00	2024-11-08T01:00:00	8	Radiación solar	0
56889	7	Sololá	701	Sololá	1	Sololá	11	Noviembre	2023-04-11T00:00:00	2024-11-08T02:00:00	2	Temperatura media	15.3
56890	7	Sololá	701	Sololá	1	Sololá	11	Noviembre	2023-04-11T00:00:00	2024-11-08T02:00:00	4	Temperatura máxima	15.6
56891	7	Sololá	701	Sololá	1	Sololá	11	Noviembre	2023-04-11T00:00:00	2024-11-08T02:00:00	3	Temperatura mínima	15.3
56892	7	Sololá	701	Sololá	1	Sololá	11	Noviembre	2023-04-11T00:00:00	2024-11-08T02:00:00	5	Humedad	81
56893	7	Sololá	701	Sololá	1	Sololá	11	Noviembre	2023-04-11T00:00:00	2024-11-08T02:00:00	6	Velocidad del viento	0
56894	7	Sololá	701	Sololá	1	Sololá	11	Noviembre	2023-04-11T00:00:00	2024-11-08T02:00:00	7	Dirección del viento	0
56895	7	Sololá	701	Sololá	1	Sololá	11	Noviembre	2023-04-11T00:00:00	2024-11-08T02:00:00	1	Precipitación	0
56896	7	Sololá	701	Sololá	1	Sololá	11	Noviembre	2023-04-11T00:00:00	2024-11-08T02:00:00	8	Radiación solar	0
56897	7	Sololá	701	Sololá	1	Sololá	11	Noviembre	2023-04-11T00:00:00	2024-11-08T03:00:00	2	Temperatura media	15.3
56898	7	Sololá	701	Sololá	1	Sololá	11	Noviembre	2023-04-11T00:00:00	2024-11-08T03:00:00	4	Temperatura máxima	15.4
56899	7	Sololá	701	Sololá	1	Sololá	11	Noviembre	2023-04-11T00:00:00	2024-11-08T03:00:00	3	Temperatura mínima	15.2
56900	7	Sololá	701	Sololá	1	Sololá	11	Noviembre	2023-04-11T00:00:00	2024-11-08T03:00:00	5	Humedad	83
56901	7	Sololá	701	Sololá	1	Sololá	11	Noviembre	2023-04-11T00:00:00	2024-11-08T03:00:00	6	Velocidad del viento	0
56902	7	Sololá	701	Sololá	1	Sololá	11	Noviembre	2023-04-11T00:00:00	2024-11-08T03:00:00	7	Dirección del viento	0
56903	7	Sololá	701	Sololá	1	Sololá	11	Noviembre	2023-04-11T00:00:00	2024-11-08T03:00:00	1	Precipitación	0
56904	7	Sololá	701	Sololá	1	Sololá	11	Noviembre	2023-04-11T00:00:00	2024-11-08T03:00:00	8	Radiación solar	0
56905	7	Sololá	701	Sololá	1	Sololá	11	Noviembre	2023-04-11T00:00:00	2024-11-08T04:00:00	2	Temperatura media	15.2
56906	7	Sololá	701	Sololá	1	Sololá	11	Noviembre	2023-04-11T00:00:00	2024-11-08T04:00:00	4	Temperatura máxima	15.4
56907	7	Sololá	701	Sololá	1	Sololá	11	Noviembre	2023-04-11T00:00:00	2024-11-08T04:00:00	3	Temperatura mínima	15.2
56908	7	Sololá	701	Sololá	1	Sololá	11	Noviembre	2023-04-11T00:00:00	2024-11-08T04:00:00	5	Humedad	82
56909	7	Sololá	701	Sololá	1	Sololá	11	Noviembre	2023-04-11T00:00:00	2024-11-08T04:00:00	6	Velocidad del viento	0
56910	7	Sololá	701	Sololá	1	Sololá	11	Noviembre	2023-04-11T00:00:00	2024-11-08T04:00:00	7	Dirección del viento	0
56911	7	Sololá	701	Sololá	1	Sololá	11	Noviembre	2023-04-11T00:00:00	2024-11-08T04:00:00	1	Precipitación	0
56912	7	Sololá	701	Sololá	1	Sololá	11	Noviembre	2023-04-11T00:00:00	2024-11-08T04:00:00	8	Radiación solar	0
56913	7	Sololá	701	Sololá	1	Sololá	11	Noviembre	2023-04-11T00:00:00	2024-11-08T05:00:00	2	Temperatura media	15.4
56914	7	Sololá	701	Sololá	1	Sololá	11	Noviembre	2023-04-11T00:00:00	2024-11-08T05:00:00	4	Temperatura máxima	15.4
56915	7	Sololá	701	Sololá	1	Sololá	11	Noviembre	2023-04-11T00:00:00	2024-11-08T05:00:00	3	Temperatura mínima	15.2
56916	7	Sololá	701	Sololá	1	Sololá	11	Noviembre	2023-04-11T00:00:00	2024-11-08T05:00:00	5	Humedad	82
56917	7	Sololá	701	Sololá	1	Sololá	11	Noviembre	2023-04-11T00:00:00	2024-11-08T05:00:00	6	Velocidad del viento	0
56918	7	Sololá	701	Sololá	1	Sololá	11	Noviembre	2023-04-11T00:00:00	2024-11-08T05:00:00	7	Dirección del viento	0
56919	7	Sololá	701	Sololá	1	Sololá	11	Noviembre	2023-04-11T00:00:00	2024-11-08T05:00:00	1	Precipitación	0
56920	7	Sololá	701	Sololá	1	Sololá	11	Noviembre	2023-04-11T00:00:00	2024-11-08T05:00:00	8	Radiación solar	0
56921	7	Sololá	701	Sololá	1	Sololá	11	Noviembre	2023-04-11T00:00:00	2024-11-08T06:00:00	2	Temperatura media	15.3
56922	7	Sololá	701	Sololá	1	Sololá	11	Noviembre	2023-04-11T00:00:00	2024-11-08T06:00:00	4	Temperatura máxima	15.5
56923	7	Sololá	701	Sololá	1	Sololá	11	Noviembre	2023-04-11T00:00:00	2024-11-08T06:00:00	3	Temperatura mínima	15.2
56924	7	Sololá	701	Sololá	1	Sololá	11	Noviembre	2023-04-11T00:00:00	2024-11-08T06:00:00	5	Humedad	84
56925	7	Sololá	701	Sololá	1	Sololá	11	Noviembre	2023-04-11T00:00:00	2024-11-08T06:00:00	6	Velocidad del viento	0
56926	7	Sololá	701	Sololá	1	Sololá	11	Noviembre	2023-04-11T00:00:00	2024-11-08T06:00:00	7	Dirección del viento	0
56927	7	Sololá	701	Sololá	1	Sololá	11	Noviembre	2023-04-11T00:00:00	2024-11-08T06:00:00	1	Precipitación	0
56928	7	Sololá	701	Sololá	1	Sololá	11	Noviembre	2023-04-11T00:00:00	2024-11-08T06:00:00	8	Radiación solar	0
56929	7	Sololá	701	Sololá	1	Sololá	11	Noviembre	2023-04-11T00:00:00	2024-11-08T07:00:00	2	Temperatura media	15.9
56930	7	Sololá	701	Sololá	1	Sololá	11	Noviembre	2023-04-11T00:00:00	2024-11-08T07:00:00	4	Temperatura máxima	15.9
56931	7	Sololá	701	Sololá	1	Sololá	11	Noviembre	2023-04-11T00:00:00	2024-11-08T07:00:00	3	Temperatura mínima	15.3
56932	7	Sololá	701	Sololá	1	Sololá	11	Noviembre	2023-04-11T00:00:00	2024-11-08T07:00:00	5	Humedad	83
56933	7	Sololá	701	Sololá	1	Sololá	11	Noviembre	2023-04-11T00:00:00	2024-11-08T07:00:00	6	Velocidad del viento	0
56934	7	Sololá	701	Sololá	1	Sololá	11	Noviembre	2023-04-11T00:00:00	2024-11-08T07:00:00	7	Dirección del viento	0
56935	7	Sololá	701	Sololá	1	Sololá	11	Noviembre	2023-04-11T00:00:00	2024-11-08T07:00:00	1	Precipitación	0
56936	7	Sololá	701	Sololá	1	Sololá	11	Noviembre	2023-04-11T00:00:00	2024-11-08T07:00:00	8	Radiación solar	22
56937	7	Sololá	701	Sololá	1	Sololá	11	Noviembre	2023-04-11T00:00:00	2024-11-08T08:00:00	2	Temperatura media	16.8
56938	7	Sololá	701	Sololá	1	Sololá	11	Noviembre	2023-04-11T00:00:00	2024-11-08T08:00:00	4	Temperatura máxima	16.8
56939	7	Sololá	701	Sololá	1	Sololá	11	Noviembre	2023-04-11T00:00:00	2024-11-08T08:00:00	3	Temperatura mínima	15.9
56940	7	Sololá	701	Sololá	1	Sololá	11	Noviembre	2023-04-11T00:00:00	2024-11-08T08:00:00	5	Humedad	84
56941	7	Sololá	701	Sololá	1	Sololá	11	Noviembre	2023-04-11T00:00:00	2024-11-08T08:00:00	6	Velocidad del viento	0
56942	7	Sololá	701	Sololá	1	Sololá	11	Noviembre	2023-04-11T00:00:00	2024-11-08T08:00:00	7	Dirección del viento	0
56943	7	Sololá	701	Sololá	1	Sololá	11	Noviembre	2023-04-11T00:00:00	2024-11-08T08:00:00	1	Precipitación	0
56944	7	Sololá	701	Sololá	1	Sololá	11	Noviembre	2023-04-11T00:00:00	2024-11-08T08:00:00	8	Radiación solar	66
56945	7	Sololá	701	Sololá	1	Sololá	11	Noviembre	2023-04-11T00:00:00	2024-11-08T09:00:00	2	Temperatura media	17.1
56946	7	Sololá	701	Sololá	1	Sololá	11	Noviembre	2023-04-11T00:00:00	2024-11-08T09:00:00	4	Temperatura máxima	17.1
56947	7	Sololá	701	Sololá	1	Sololá	11	Noviembre	2023-04-11T00:00:00	2024-11-08T09:00:00	3	Temperatura mínima	16.8
56948	7	Sololá	701	Sololá	1	Sololá	11	Noviembre	2023-04-11T00:00:00	2024-11-08T09:00:00	5	Humedad	82
56949	7	Sololá	701	Sololá	1	Sololá	11	Noviembre	2023-04-11T00:00:00	2024-11-08T09:00:00	6	Velocidad del viento	0
56950	7	Sololá	701	Sololá	1	Sololá	11	Noviembre	2023-04-11T00:00:00	2024-11-08T09:00:00	7	Dirección del viento	0
56951	7	Sololá	701	Sololá	1	Sololá	11	Noviembre	2023-04-11T00:00:00	2024-11-08T09:00:00	1	Precipitación	0
56952	7	Sololá	701	Sololá	1	Sololá	11	Noviembre	2023-04-11T00:00:00	2024-11-08T09:00:00	8	Radiación solar	101
56953	7	Sololá	701	Sololá	1	Sololá	11	Noviembre	2023-04-11T00:00:00	2024-11-08T10:00:00	2	Temperatura media	17.1
56954	7	Sololá	701	Sololá	1	Sololá	11	Noviembre	2023-04-11T00:00:00	2024-11-08T10:00:00	4	Temperatura máxima	17.2
56955	7	Sololá	701	Sololá	1	Sololá	11	Noviembre	2023-04-11T00:00:00	2024-11-08T10:00:00	3	Temperatura mínima	17
56956	7	Sololá	701	Sololá	1	Sololá	11	Noviembre	2023-04-11T00:00:00	2024-11-08T10:00:00	5	Humedad	87
56957	7	Sololá	701	Sololá	1	Sololá	11	Noviembre	2023-04-11T00:00:00	2024-11-08T10:00:00	6	Velocidad del viento	0
56958	7	Sololá	701	Sololá	1	Sololá	11	Noviembre	2023-04-11T00:00:00	2024-11-08T10:00:00	7	Dirección del viento	0
56959	7	Sololá	701	Sololá	1	Sololá	11	Noviembre	2023-04-11T00:00:00	2024-11-08T10:00:00	1	Precipitación	0
56960	7	Sololá	701	Sololá	1	Sololá	11	Noviembre	2023-04-11T00:00:00	2024-11-08T10:00:00	8	Radiación solar	111
56961	7	Sololá	701	Sololá	1	Sololá	11	Noviembre	2023-04-11T00:00:00	2024-11-08T11:00:00	2	Temperatura media	19.6
56962	7	Sololá	701	Sololá	1	Sololá	11	Noviembre	2023-04-11T00:00:00	2024-11-08T11:00:00	4	Temperatura máxima	19.6
56963	7	Sololá	701	Sololá	1	Sololá	11	Noviembre	2023-04-11T00:00:00	2024-11-08T11:00:00	3	Temperatura mínima	17.1
56964	7	Sololá	701	Sololá	1	Sololá	11	Noviembre	2023-04-11T00:00:00	2024-11-08T11:00:00	5	Humedad	83
56965	7	Sololá	701	Sololá	1	Sololá	11	Noviembre	2023-04-11T00:00:00	2024-11-08T11:00:00	6	Velocidad del viento	0
56966	7	Sololá	701	Sololá	1	Sololá	11	Noviembre	2023-04-11T00:00:00	2024-11-08T11:00:00	7	Dirección del viento	0
56967	7	Sololá	701	Sololá	1	Sololá	11	Noviembre	2023-04-11T00:00:00	2024-11-08T11:00:00	1	Precipitación	0
56968	7	Sololá	701	Sololá	1	Sololá	11	Noviembre	2023-04-11T00:00:00	2024-11-08T11:00:00	8	Radiación solar	210
56969	7	Sololá	701	Sololá	1	Sololá	11	Noviembre	2023-04-11T00:00:00	2024-11-08T12:00:00	2	Temperatura media	23.3
56970	7	Sololá	701	Sololá	1	Sololá	11	Noviembre	2023-04-11T00:00:00	2024-11-08T12:00:00	4	Temperatura máxima	23.3
56971	7	Sololá	701	Sololá	1	Sololá	11	Noviembre	2023-04-11T00:00:00	2024-11-08T12:00:00	3	Temperatura mínima	19.6
56972	7	Sololá	701	Sololá	1	Sololá	11	Noviembre	2023-04-11T00:00:00	2024-11-08T12:00:00	5	Humedad	69
56973	7	Sololá	701	Sololá	1	Sololá	11	Noviembre	2023-04-11T00:00:00	2024-11-08T12:00:00	6	Velocidad del viento	0
56974	7	Sololá	701	Sololá	1	Sololá	11	Noviembre	2023-04-11T00:00:00	2024-11-08T12:00:00	7	Dirección del viento	0
56975	7	Sololá	701	Sololá	1	Sololá	11	Noviembre	2023-04-11T00:00:00	2024-11-08T12:00:00	1	Precipitación	0
56976	7	Sololá	701	Sololá	1	Sololá	11	Noviembre	2023-04-11T00:00:00	2024-11-08T12:00:00	8	Radiación solar	893
56977	7	Sololá	701	Sololá	1	Sololá	11	Noviembre	2023-04-11T00:00:00	2024-11-08T13:00:00	2	Temperatura media	18.9
56978	7	Sololá	701	Sololá	1	Sololá	11	Noviembre	2023-04-11T00:00:00	2024-11-08T13:00:00	4	Temperatura máxima	23.3
56979	7	Sololá	701	Sololá	1	Sololá	11	Noviembre	2023-04-11T00:00:00	2024-11-08T13:00:00	3	Temperatura mínima	18.9
56980	7	Sololá	701	Sololá	1	Sololá	11	Noviembre	2023-04-11T00:00:00	2024-11-08T13:00:00	5	Humedad	84
56981	7	Sololá	701	Sololá	1	Sololá	11	Noviembre	2023-04-11T00:00:00	2024-11-08T13:00:00	6	Velocidad del viento	0
56982	7	Sololá	701	Sololá	1	Sololá	11	Noviembre	2023-04-11T00:00:00	2024-11-08T13:00:00	7	Dirección del viento	0
56983	7	Sololá	701	Sololá	1	Sololá	11	Noviembre	2023-04-11T00:00:00	2024-11-08T13:00:00	1	Precipitación	0.2
56984	7	Sololá	701	Sololá	1	Sololá	11	Noviembre	2023-04-11T00:00:00	2024-11-08T13:00:00	8	Radiación solar	186
56985	7	Sololá	701	Sololá	1	Sololá	11	Noviembre	2023-04-11T00:00:00	2024-11-08T14:00:00	2	Temperatura media	17.4
56986	7	Sololá	701	Sololá	1	Sololá	11	Noviembre	2023-04-11T00:00:00	2024-11-08T14:00:00	4	Temperatura máxima	18.9
56987	7	Sololá	701	Sololá	1	Sololá	11	Noviembre	2023-04-11T00:00:00	2024-11-08T14:00:00	3	Temperatura mínima	17.4
56988	7	Sololá	701	Sololá	1	Sololá	11	Noviembre	2023-04-11T00:00:00	2024-11-08T14:00:00	5	Humedad	89
56989	7	Sololá	701	Sololá	1	Sololá	11	Noviembre	2023-04-11T00:00:00	2024-11-08T14:00:00	6	Velocidad del viento	0
56990	7	Sololá	701	Sololá	1	Sololá	11	Noviembre	2023-04-11T00:00:00	2024-11-08T14:00:00	7	Dirección del viento	0
56991	7	Sololá	701	Sololá	1	Sololá	11	Noviembre	2023-04-11T00:00:00	2024-11-08T14:00:00	1	Precipitación	0
56992	7	Sololá	701	Sololá	1	Sololá	11	Noviembre	2023-04-11T00:00:00	2024-11-08T14:00:00	8	Radiación solar	137
56993	7	Sololá	701	Sololá	1	Sololá	11	Noviembre	2023-04-11T00:00:00	2024-11-08T15:00:00	2	Temperatura media	16.9
56994	7	Sololá	701	Sololá	1	Sololá	11	Noviembre	2023-04-11T00:00:00	2024-11-08T15:00:00	4	Temperatura máxima	17.5
56995	7	Sololá	701	Sololá	1	Sololá	11	Noviembre	2023-04-11T00:00:00	2024-11-08T15:00:00	3	Temperatura mínima	16.8
56996	7	Sololá	701	Sololá	1	Sololá	11	Noviembre	2023-04-11T00:00:00	2024-11-08T15:00:00	5	Humedad	87
56997	7	Sololá	701	Sololá	1	Sololá	11	Noviembre	2023-04-11T00:00:00	2024-11-08T15:00:00	6	Velocidad del viento	0
56998	7	Sololá	701	Sololá	1	Sololá	11	Noviembre	2023-04-11T00:00:00	2024-11-08T15:00:00	7	Dirección del viento	0
56999	7	Sololá	701	Sololá	1	Sololá	11	Noviembre	2023-04-11T00:00:00	2024-11-08T15:00:00	1	Precipitación	0
57000	7	Sololá	701	Sololá	1	Sololá	11	Noviembre	2023-04-11T00:00:00	2024-11-08T15:00:00	8	Radiación solar	132
57001	7	Sololá	701	Sololá	1	Sololá	11	Noviembre	2023-04-11T00:00:00	2024-11-08T16:00:00	2	Temperatura media	16.7
57002	7	Sololá	701	Sololá	1	Sololá	11	Noviembre	2023-04-11T00:00:00	2024-11-08T16:00:00	4	Temperatura máxima	17.2
57003	7	Sololá	701	Sololá	1	Sololá	11	Noviembre	2023-04-11T00:00:00	2024-11-08T16:00:00	3	Temperatura mínima	16.7
57004	7	Sololá	701	Sololá	1	Sololá	11	Noviembre	2023-04-11T00:00:00	2024-11-08T16:00:00	5	Humedad	88
57005	7	Sololá	701	Sololá	1	Sololá	11	Noviembre	2023-04-11T00:00:00	2024-11-08T16:00:00	6	Velocidad del viento	0
57006	7	Sololá	701	Sololá	1	Sololá	11	Noviembre	2023-04-11T00:00:00	2024-11-08T16:00:00	7	Dirección del viento	0
57007	7	Sololá	701	Sololá	1	Sololá	11	Noviembre	2023-04-11T00:00:00	2024-11-08T16:00:00	1	Precipitación	0
57008	7	Sololá	701	Sololá	1	Sololá	11	Noviembre	2023-04-11T00:00:00	2024-11-08T16:00:00	8	Radiación solar	72
57009	7	Sololá	701	Sololá	1	Sololá	11	Noviembre	2023-04-11T00:00:00	2024-11-08T17:00:00	2	Temperatura media	16.1
57010	7	Sololá	701	Sololá	1	Sololá	11	Noviembre	2023-04-11T00:00:00	2024-11-08T17:00:00	4	Temperatura máxima	16.7
57011	7	Sololá	701	Sololá	1	Sololá	11	Noviembre	2023-04-11T00:00:00	2024-11-08T17:00:00	3	Temperatura mínima	16.1
57012	7	Sololá	701	Sololá	1	Sololá	11	Noviembre	2023-04-11T00:00:00	2024-11-08T17:00:00	5	Humedad	88
57013	7	Sololá	701	Sololá	1	Sololá	11	Noviembre	2023-04-11T00:00:00	2024-11-08T17:00:00	6	Velocidad del viento	0
57014	7	Sololá	701	Sololá	1	Sololá	11	Noviembre	2023-04-11T00:00:00	2024-11-08T17:00:00	7	Dirección del viento	0
57015	7	Sololá	701	Sololá	1	Sololá	11	Noviembre	2023-04-11T00:00:00	2024-11-08T17:00:00	1	Precipitación	0
57016	7	Sololá	701	Sololá	1	Sololá	11	Noviembre	2023-04-11T00:00:00	2024-11-08T17:00:00	8	Radiación solar	32
57017	7	Sololá	701	Sololá	1	Sololá	11	Noviembre	2023-04-11T00:00:00	2024-11-08T18:00:00	2	Temperatura media	15.7
57018	7	Sololá	701	Sololá	1	Sololá	11	Noviembre	2023-04-11T00:00:00	2024-11-08T18:00:00	4	Temperatura máxima	16.1
57019	7	Sololá	701	Sololá	1	Sololá	11	Noviembre	2023-04-11T00:00:00	2024-11-08T18:00:00	3	Temperatura mínima	15.7
57020	7	Sololá	701	Sololá	1	Sololá	11	Noviembre	2023-04-11T00:00:00	2024-11-08T18:00:00	5	Humedad	89
57021	7	Sololá	701	Sololá	1	Sololá	11	Noviembre	2023-04-11T00:00:00	2024-11-08T18:00:00	6	Velocidad del viento	0
57022	7	Sololá	701	Sololá	1	Sololá	11	Noviembre	2023-04-11T00:00:00	2024-11-08T18:00:00	7	Dirección del viento	0
57023	7	Sololá	701	Sololá	1	Sololá	11	Noviembre	2023-04-11T00:00:00	2024-11-08T18:00:00	1	Precipitación	0
57024	7	Sololá	701	Sololá	1	Sololá	11	Noviembre	2023-04-11T00:00:00	2024-11-08T18:00:00	8	Radiación solar	4
57025	7	Sololá	701	Sololá	1	Sololá	11	Noviembre	2023-04-11T00:00:00	2024-11-08T19:00:00	2	Temperatura media	15.8
57026	7	Sololá	701	Sololá	1	Sololá	11	Noviembre	2023-04-11T00:00:00	2024-11-08T19:00:00	4	Temperatura máxima	15.8
57027	7	Sololá	701	Sololá	1	Sololá	11	Noviembre	2023-04-11T00:00:00	2024-11-08T19:00:00	3	Temperatura mínima	15.7
57028	7	Sololá	701	Sololá	1	Sololá	11	Noviembre	2023-04-11T00:00:00	2024-11-08T19:00:00	5	Humedad	89
57029	7	Sololá	701	Sololá	1	Sololá	11	Noviembre	2023-04-11T00:00:00	2024-11-08T19:00:00	6	Velocidad del viento	0
57030	7	Sololá	701	Sololá	1	Sololá	11	Noviembre	2023-04-11T00:00:00	2024-11-08T19:00:00	7	Dirección del viento	0
57031	7	Sololá	701	Sololá	1	Sololá	11	Noviembre	2023-04-11T00:00:00	2024-11-08T19:00:00	1	Precipitación	0
57032	7	Sololá	701	Sololá	1	Sololá	11	Noviembre	2023-04-11T00:00:00	2024-11-08T19:00:00	8	Radiación solar	0
57033	7	Sololá	701	Sololá	1	Sololá	11	Noviembre	2023-04-11T00:00:00	2024-11-08T20:00:00	2	Temperatura media	15.7
57034	7	Sololá	701	Sololá	1	Sololá	11	Noviembre	2023-04-11T00:00:00	2024-11-08T20:00:00	4	Temperatura máxima	15.8
57035	7	Sololá	701	Sololá	1	Sololá	11	Noviembre	2023-04-11T00:00:00	2024-11-08T20:00:00	3	Temperatura mínima	15.6
57036	7	Sololá	701	Sololá	1	Sololá	11	Noviembre	2023-04-11T00:00:00	2024-11-08T20:00:00	5	Humedad	90
57037	7	Sololá	701	Sololá	1	Sololá	11	Noviembre	2023-04-11T00:00:00	2024-11-08T20:00:00	6	Velocidad del viento	0
57038	7	Sololá	701	Sololá	1	Sololá	11	Noviembre	2023-04-11T00:00:00	2024-11-08T20:00:00	7	Dirección del viento	0
57039	7	Sololá	701	Sololá	1	Sololá	11	Noviembre	2023-04-11T00:00:00	2024-11-08T20:00:00	1	Precipitación	0
57040	7	Sololá	701	Sololá	1	Sololá	11	Noviembre	2023-04-11T00:00:00	2024-11-08T20:00:00	8	Radiación solar	0
57041	7	Sololá	701	Sololá	1	Sololá	11	Noviembre	2023-04-11T00:00:00	2024-11-08T21:00:00	2	Temperatura media	15.3
57042	7	Sololá	701	Sololá	1	Sololá	11	Noviembre	2023-04-11T00:00:00	2024-11-08T21:00:00	4	Temperatura máxima	15.7
57043	7	Sololá	701	Sololá	1	Sololá	11	Noviembre	2023-04-11T00:00:00	2024-11-08T21:00:00	3	Temperatura mínima	15.3
57044	7	Sololá	701	Sololá	1	Sololá	11	Noviembre	2023-04-11T00:00:00	2024-11-08T21:00:00	5	Humedad	91
57045	7	Sololá	701	Sololá	1	Sololá	11	Noviembre	2023-04-11T00:00:00	2024-11-08T21:00:00	6	Velocidad del viento	0
57046	7	Sololá	701	Sololá	1	Sololá	11	Noviembre	2023-04-11T00:00:00	2024-11-08T21:00:00	7	Dirección del viento	0
57047	7	Sololá	701	Sololá	1	Sololá	11	Noviembre	2023-04-11T00:00:00	2024-11-08T21:00:00	1	Precipitación	0
57048	7	Sololá	701	Sololá	1	Sololá	11	Noviembre	2023-04-11T00:00:00	2024-11-08T21:00:00	8	Radiación solar	0
57049	7	Sololá	701	Sololá	1	Sololá	11	Noviembre	2023-04-11T00:00:00	2024-11-08T22:00:00	2	Temperatura media	15.1
57050	7	Sololá	701	Sololá	1	Sololá	11	Noviembre	2023-04-11T00:00:00	2024-11-08T22:00:00	4	Temperatura máxima	15.3
57051	7	Sololá	701	Sololá	1	Sololá	11	Noviembre	2023-04-11T00:00:00	2024-11-08T22:00:00	3	Temperatura mínima	15.1
57052	7	Sololá	701	Sololá	1	Sololá	11	Noviembre	2023-04-11T00:00:00	2024-11-08T22:00:00	5	Humedad	91
57053	7	Sololá	701	Sololá	1	Sololá	11	Noviembre	2023-04-11T00:00:00	2024-11-08T22:00:00	6	Velocidad del viento	0
57054	7	Sololá	701	Sololá	1	Sololá	11	Noviembre	2023-04-11T00:00:00	2024-11-08T22:00:00	7	Dirección del viento	0
57055	7	Sololá	701	Sololá	1	Sololá	11	Noviembre	2023-04-11T00:00:00	2024-11-08T22:00:00	1	Precipitación	0
57056	7	Sololá	701	Sololá	1	Sololá	11	Noviembre	2023-04-11T00:00:00	2024-11-08T22:00:00	8	Radiación solar	0
57057	7	Sololá	701	Sololá	1	Sololá	11	Noviembre	2023-04-11T00:00:00	2024-11-08T23:00:00	2	Temperatura media	15.2
57058	7	Sololá	701	Sololá	1	Sololá	11	Noviembre	2023-04-11T00:00:00	2024-11-08T23:00:00	4	Temperatura máxima	15.2
57059	7	Sololá	701	Sololá	1	Sololá	11	Noviembre	2023-04-11T00:00:00	2024-11-08T23:00:00	3	Temperatura mínima	15.1
57060	7	Sololá	701	Sololá	1	Sololá	11	Noviembre	2023-04-11T00:00:00	2024-11-08T23:00:00	5	Humedad	91
57061	7	Sololá	701	Sololá	1	Sololá	11	Noviembre	2023-04-11T00:00:00	2024-11-08T23:00:00	6	Velocidad del viento	0
57062	7	Sololá	701	Sololá	1	Sololá	11	Noviembre	2023-04-11T00:00:00	2024-11-08T23:00:00	7	Dirección del viento	0
57063	7	Sololá	701	Sololá	1	Sololá	11	Noviembre	2023-04-11T00:00:00	2024-11-08T23:00:00	1	Precipitación	0
57064	7	Sololá	701	Sololá	1	Sololá	11	Noviembre	2023-04-11T00:00:00	2024-11-08T23:00:00	8	Radiación solar	0
57065	7	Sololá	701	Sololá	1	Sololá	11	Noviembre	2023-05-11T00:00:00	2024-11-08T00:00:00	2	Temperatura media	15.1
57066	7	Sololá	701	Sololá	1	Sololá	11	Noviembre	2023-05-11T00:00:00	2024-11-08T00:00:00	4	Temperatura máxima	15.2
57067	7	Sololá	701	Sololá	1	Sololá	11	Noviembre	2023-05-11T00:00:00	2024-11-08T00:00:00	3	Temperatura mínima	15.1
57068	7	Sololá	701	Sololá	1	Sololá	11	Noviembre	2023-05-11T00:00:00	2024-11-08T00:00:00	5	Humedad	89
57069	7	Sololá	701	Sololá	1	Sololá	11	Noviembre	2023-05-11T00:00:00	2024-11-08T00:00:00	6	Velocidad del viento	0
57070	7	Sololá	701	Sololá	1	Sololá	11	Noviembre	2023-05-11T00:00:00	2024-11-08T00:00:00	7	Dirección del viento	0
57071	7	Sololá	701	Sololá	1	Sololá	11	Noviembre	2023-05-11T00:00:00	2024-11-08T00:00:00	1	Precipitación	0
57072	7	Sololá	701	Sololá	1	Sololá	11	Noviembre	2023-05-11T00:00:00	2024-11-08T00:00:00	8	Radiación solar	0
57073	7	Sololá	701	Sololá	1	Sololá	11	Noviembre	2023-05-11T00:00:00	2024-11-08T01:00:00	2	Temperatura media	15.2
57074	7	Sololá	701	Sololá	1	Sololá	11	Noviembre	2023-05-11T00:00:00	2024-11-08T01:00:00	4	Temperatura máxima	15.2
57075	7	Sololá	701	Sololá	1	Sololá	11	Noviembre	2023-05-11T00:00:00	2024-11-08T01:00:00	3	Temperatura mínima	15.1
57076	7	Sololá	701	Sololá	1	Sololá	11	Noviembre	2023-05-11T00:00:00	2024-11-08T01:00:00	5	Humedad	88
57077	7	Sololá	701	Sololá	1	Sololá	11	Noviembre	2023-05-11T00:00:00	2024-11-08T01:00:00	6	Velocidad del viento	0
57078	7	Sololá	701	Sololá	1	Sololá	11	Noviembre	2023-05-11T00:00:00	2024-11-08T01:00:00	7	Dirección del viento	0
57079	7	Sololá	701	Sololá	1	Sololá	11	Noviembre	2023-05-11T00:00:00	2024-11-08T01:00:00	1	Precipitación	0
57080	7	Sololá	701	Sololá	1	Sololá	11	Noviembre	2023-05-11T00:00:00	2024-11-08T01:00:00	8	Radiación solar	0
57081	7	Sololá	701	Sololá	1	Sololá	11	Noviembre	2023-05-11T00:00:00	2024-11-08T02:00:00	2	Temperatura media	15.2
57082	7	Sololá	701	Sololá	1	Sololá	11	Noviembre	2023-05-11T00:00:00	2024-11-08T02:00:00	4	Temperatura máxima	15.3
57083	7	Sololá	701	Sololá	1	Sololá	11	Noviembre	2023-05-11T00:00:00	2024-11-08T02:00:00	3	Temperatura mínima	14.9
57084	7	Sololá	701	Sololá	1	Sololá	11	Noviembre	2023-05-11T00:00:00	2024-11-08T02:00:00	5	Humedad	89
57085	7	Sololá	701	Sololá	1	Sololá	11	Noviembre	2023-05-11T00:00:00	2024-11-08T02:00:00	6	Velocidad del viento	0
57086	7	Sololá	701	Sololá	1	Sololá	11	Noviembre	2023-05-11T00:00:00	2024-11-08T02:00:00	7	Dirección del viento	0
57087	7	Sololá	701	Sololá	1	Sololá	11	Noviembre	2023-05-11T00:00:00	2024-11-08T02:00:00	1	Precipitación	0
57088	7	Sololá	701	Sololá	1	Sololá	11	Noviembre	2023-05-11T00:00:00	2024-11-08T02:00:00	8	Radiación solar	0
57089	7	Sololá	701	Sololá	1	Sololá	11	Noviembre	2023-05-11T00:00:00	2024-11-08T03:00:00	2	Temperatura media	15.1
57090	7	Sololá	701	Sololá	1	Sololá	11	Noviembre	2023-05-11T00:00:00	2024-11-08T03:00:00	4	Temperatura máxima	15.2
57091	7	Sololá	701	Sololá	1	Sololá	11	Noviembre	2023-05-11T00:00:00	2024-11-08T03:00:00	3	Temperatura mínima	15.1
57092	7	Sololá	701	Sololá	1	Sololá	11	Noviembre	2023-05-11T00:00:00	2024-11-08T03:00:00	5	Humedad	90
57093	7	Sololá	701	Sololá	1	Sololá	11	Noviembre	2023-05-11T00:00:00	2024-11-08T03:00:00	6	Velocidad del viento	0
57094	7	Sololá	701	Sololá	1	Sololá	11	Noviembre	2023-05-11T00:00:00	2024-11-08T03:00:00	7	Dirección del viento	0
57095	7	Sololá	701	Sololá	1	Sololá	11	Noviembre	2023-05-11T00:00:00	2024-11-08T03:00:00	1	Precipitación	0
57096	7	Sololá	701	Sololá	1	Sololá	11	Noviembre	2023-05-11T00:00:00	2024-11-08T03:00:00	8	Radiación solar	0
57097	7	Sololá	701	Sololá	1	Sololá	11	Noviembre	2023-05-11T00:00:00	2024-11-08T04:00:00	2	Temperatura media	14.7
57098	7	Sololá	701	Sololá	1	Sololá	11	Noviembre	2023-05-11T00:00:00	2024-11-08T04:00:00	4	Temperatura máxima	15.1
57099	7	Sololá	701	Sololá	1	Sololá	11	Noviembre	2023-05-11T00:00:00	2024-11-08T04:00:00	3	Temperatura mínima	14.7
57100	7	Sololá	701	Sololá	1	Sololá	11	Noviembre	2023-05-11T00:00:00	2024-11-08T04:00:00	5	Humedad	93
57101	7	Sololá	701	Sololá	1	Sololá	11	Noviembre	2023-05-11T00:00:00	2024-11-08T04:00:00	6	Velocidad del viento	0
57102	7	Sololá	701	Sololá	1	Sololá	11	Noviembre	2023-05-11T00:00:00	2024-11-08T04:00:00	7	Dirección del viento	0
57103	7	Sololá	701	Sololá	1	Sololá	11	Noviembre	2023-05-11T00:00:00	2024-11-08T04:00:00	1	Precipitación	0
57104	7	Sololá	701	Sololá	1	Sololá	11	Noviembre	2023-05-11T00:00:00	2024-11-08T04:00:00	8	Radiación solar	0
57105	7	Sololá	701	Sololá	1	Sololá	11	Noviembre	2023-05-11T00:00:00	2024-11-08T05:00:00	2	Temperatura media	14.9
57106	7	Sololá	701	Sololá	1	Sololá	11	Noviembre	2023-05-11T00:00:00	2024-11-08T05:00:00	4	Temperatura máxima	14.9
57107	7	Sololá	701	Sololá	1	Sololá	11	Noviembre	2023-05-11T00:00:00	2024-11-08T05:00:00	3	Temperatura mínima	14.7
57108	7	Sololá	701	Sololá	1	Sololá	11	Noviembre	2023-05-11T00:00:00	2024-11-08T05:00:00	5	Humedad	92
57109	7	Sololá	701	Sololá	1	Sololá	11	Noviembre	2023-05-11T00:00:00	2024-11-08T05:00:00	6	Velocidad del viento	0
57110	7	Sololá	701	Sololá	1	Sololá	11	Noviembre	2023-05-11T00:00:00	2024-11-08T05:00:00	7	Dirección del viento	0
57111	7	Sololá	701	Sololá	1	Sololá	11	Noviembre	2023-05-11T00:00:00	2024-11-08T05:00:00	1	Precipitación	0
57112	7	Sololá	701	Sololá	1	Sololá	11	Noviembre	2023-05-11T00:00:00	2024-11-08T05:00:00	8	Radiación solar	0
57113	7	Sololá	701	Sololá	1	Sololá	11	Noviembre	2023-05-11T00:00:00	2024-11-08T06:00:00	2	Temperatura media	15.2
57114	7	Sololá	701	Sololá	1	Sololá	11	Noviembre	2023-05-11T00:00:00	2024-11-08T06:00:00	4	Temperatura máxima	15.3
57115	7	Sololá	701	Sololá	1	Sololá	11	Noviembre	2023-05-11T00:00:00	2024-11-08T06:00:00	3	Temperatura mínima	14.8
57116	7	Sololá	701	Sololá	1	Sololá	11	Noviembre	2023-05-11T00:00:00	2024-11-08T06:00:00	5	Humedad	91
57117	7	Sololá	701	Sololá	1	Sololá	11	Noviembre	2023-05-11T00:00:00	2024-11-08T06:00:00	6	Velocidad del viento	0
57118	7	Sololá	701	Sololá	1	Sololá	11	Noviembre	2023-05-11T00:00:00	2024-11-08T06:00:00	7	Dirección del viento	0
57119	7	Sololá	701	Sololá	1	Sololá	11	Noviembre	2023-05-11T00:00:00	2024-11-08T06:00:00	1	Precipitación	0
57120	7	Sololá	701	Sololá	1	Sololá	11	Noviembre	2023-05-11T00:00:00	2024-11-08T06:00:00	8	Radiación solar	11
57121	7	Sololá	701	Sololá	1	Sololá	11	Noviembre	2023-05-11T00:00:00	2024-11-08T07:00:00	2	Temperatura media	16.1
57122	7	Sololá	701	Sololá	1	Sololá	11	Noviembre	2023-05-11T00:00:00	2024-11-08T07:00:00	4	Temperatura máxima	16.1
57123	7	Sololá	701	Sololá	1	Sololá	11	Noviembre	2023-05-11T00:00:00	2024-11-08T07:00:00	3	Temperatura mínima	15.2
57124	7	Sololá	701	Sololá	1	Sololá	11	Noviembre	2023-05-11T00:00:00	2024-11-08T07:00:00	5	Humedad	89
57125	7	Sololá	701	Sololá	1	Sololá	11	Noviembre	2023-05-11T00:00:00	2024-11-08T07:00:00	6	Velocidad del viento	0
57126	7	Sololá	701	Sololá	1	Sololá	11	Noviembre	2023-05-11T00:00:00	2024-11-08T07:00:00	7	Dirección del viento	0
57127	7	Sololá	701	Sololá	1	Sololá	11	Noviembre	2023-05-11T00:00:00	2024-11-08T07:00:00	1	Precipitación	0
57128	7	Sololá	701	Sololá	1	Sololá	11	Noviembre	2023-05-11T00:00:00	2024-11-08T07:00:00	8	Radiación solar	37
57129	7	Sololá	701	Sololá	1	Sololá	11	Noviembre	2023-05-11T00:00:00	2024-11-08T08:00:00	2	Temperatura media	16.8
57130	7	Sololá	701	Sololá	1	Sololá	11	Noviembre	2023-05-11T00:00:00	2024-11-08T08:00:00	4	Temperatura máxima	16.9
57131	7	Sololá	701	Sololá	1	Sololá	11	Noviembre	2023-05-11T00:00:00	2024-11-08T08:00:00	3	Temperatura mínima	16.1
57132	7	Sololá	701	Sololá	1	Sololá	11	Noviembre	2023-05-11T00:00:00	2024-11-08T08:00:00	5	Humedad	89
57133	7	Sololá	701	Sololá	1	Sololá	11	Noviembre	2023-05-11T00:00:00	2024-11-08T08:00:00	6	Velocidad del viento	0
57134	7	Sololá	701	Sololá	1	Sololá	11	Noviembre	2023-05-11T00:00:00	2024-11-08T08:00:00	7	Dirección del viento	0
57135	7	Sololá	701	Sololá	1	Sololá	11	Noviembre	2023-05-11T00:00:00	2024-11-08T08:00:00	1	Precipitación	0
57136	7	Sololá	701	Sololá	1	Sololá	11	Noviembre	2023-05-11T00:00:00	2024-11-08T08:00:00	8	Radiación solar	103
57137	7	Sololá	701	Sololá	1	Sololá	11	Noviembre	2023-05-11T00:00:00	2024-11-08T09:00:00	2	Temperatura media	18.7
57138	7	Sololá	701	Sololá	1	Sololá	11	Noviembre	2023-05-11T00:00:00	2024-11-08T09:00:00	4	Temperatura máxima	18.8
57139	7	Sololá	701	Sololá	1	Sololá	11	Noviembre	2023-05-11T00:00:00	2024-11-08T09:00:00	3	Temperatura mínima	16.8
57140	7	Sololá	701	Sololá	1	Sololá	11	Noviembre	2023-05-11T00:00:00	2024-11-08T09:00:00	5	Humedad	84
57141	7	Sololá	701	Sololá	1	Sololá	11	Noviembre	2023-05-11T00:00:00	2024-11-08T09:00:00	6	Velocidad del viento	0
57142	7	Sololá	701	Sololá	1	Sololá	11	Noviembre	2023-05-11T00:00:00	2024-11-08T09:00:00	7	Dirección del viento	0
57143	7	Sololá	701	Sololá	1	Sololá	11	Noviembre	2023-05-11T00:00:00	2024-11-08T09:00:00	1	Precipitación	0
57144	7	Sololá	701	Sololá	1	Sololá	11	Noviembre	2023-05-11T00:00:00	2024-11-08T09:00:00	8	Radiación solar	210
57145	7	Sololá	701	Sololá	1	Sololá	11	Noviembre	2023-05-11T00:00:00	2024-11-08T10:00:00	2	Temperatura media	18.8
57146	7	Sololá	701	Sololá	1	Sololá	11	Noviembre	2023-05-11T00:00:00	2024-11-08T10:00:00	4	Temperatura máxima	19.1
57147	7	Sololá	701	Sololá	1	Sololá	11	Noviembre	2023-05-11T00:00:00	2024-11-08T10:00:00	3	Temperatura mínima	18.4
57148	7	Sololá	701	Sololá	1	Sololá	11	Noviembre	2023-05-11T00:00:00	2024-11-08T10:00:00	5	Humedad	83
57149	7	Sololá	701	Sololá	1	Sololá	11	Noviembre	2023-05-11T00:00:00	2024-11-08T10:00:00	6	Velocidad del viento	0
57150	7	Sololá	701	Sololá	1	Sololá	11	Noviembre	2023-05-11T00:00:00	2024-11-08T10:00:00	7	Dirección del viento	0
57151	7	Sololá	701	Sololá	1	Sololá	11	Noviembre	2023-05-11T00:00:00	2024-11-08T10:00:00	1	Precipitación	0
57152	7	Sololá	701	Sololá	1	Sololá	11	Noviembre	2023-05-11T00:00:00	2024-11-08T10:00:00	8	Radiación solar	229
57153	7	Sololá	701	Sololá	1	Sololá	11	Noviembre	2023-05-11T00:00:00	2024-11-08T11:00:00	2	Temperatura media	18.6
57154	7	Sololá	701	Sololá	1	Sololá	11	Noviembre	2023-05-11T00:00:00	2024-11-08T11:00:00	4	Temperatura máxima	18.8
57155	7	Sololá	701	Sololá	1	Sololá	11	Noviembre	2023-05-11T00:00:00	2024-11-08T11:00:00	3	Temperatura mínima	18.6
57156	7	Sololá	701	Sololá	1	Sololá	11	Noviembre	2023-05-11T00:00:00	2024-11-08T11:00:00	5	Humedad	83
57157	7	Sololá	701	Sololá	1	Sololá	11	Noviembre	2023-05-11T00:00:00	2024-11-08T11:00:00	6	Velocidad del viento	0
57158	7	Sololá	701	Sololá	1	Sololá	11	Noviembre	2023-05-11T00:00:00	2024-11-08T11:00:00	7	Dirección del viento	0
57159	7	Sololá	701	Sololá	1	Sololá	11	Noviembre	2023-05-11T00:00:00	2024-11-08T11:00:00	1	Precipitación	0
57160	7	Sololá	701	Sololá	1	Sololá	11	Noviembre	2023-05-11T00:00:00	2024-11-08T11:00:00	8	Radiación solar	179
57161	7	Sololá	701	Sololá	1	Sololá	11	Noviembre	2023-05-11T00:00:00	2024-11-08T12:00:00	2	Temperatura media	19.2
57162	7	Sololá	701	Sololá	1	Sololá	11	Noviembre	2023-05-11T00:00:00	2024-11-08T12:00:00	4	Temperatura máxima	19.2
57163	7	Sololá	701	Sololá	1	Sololá	11	Noviembre	2023-05-11T00:00:00	2024-11-08T12:00:00	3	Temperatura mínima	18.5
57164	7	Sololá	701	Sololá	1	Sololá	11	Noviembre	2023-05-11T00:00:00	2024-11-08T12:00:00	5	Humedad	81
57165	7	Sololá	701	Sololá	1	Sololá	11	Noviembre	2023-05-11T00:00:00	2024-11-08T12:00:00	6	Velocidad del viento	0
57166	7	Sololá	701	Sololá	1	Sololá	11	Noviembre	2023-05-11T00:00:00	2024-11-08T12:00:00	7	Dirección del viento	0
57167	7	Sololá	701	Sololá	1	Sololá	11	Noviembre	2023-05-11T00:00:00	2024-11-08T12:00:00	1	Precipitación	0
57168	7	Sololá	701	Sololá	1	Sololá	11	Noviembre	2023-05-11T00:00:00	2024-11-08T12:00:00	8	Radiación solar	226
57169	7	Sololá	701	Sololá	1	Sololá	11	Noviembre	2023-05-11T00:00:00	2024-11-08T13:00:00	2	Temperatura media	19.9
57170	7	Sololá	701	Sololá	1	Sololá	11	Noviembre	2023-05-11T00:00:00	2024-11-08T13:00:00	4	Temperatura máxima	20.4
57171	7	Sololá	701	Sololá	1	Sololá	11	Noviembre	2023-05-11T00:00:00	2024-11-08T13:00:00	3	Temperatura mínima	19.2
57172	7	Sololá	701	Sololá	1	Sololá	11	Noviembre	2023-05-11T00:00:00	2024-11-08T13:00:00	5	Humedad	80
57173	7	Sololá	701	Sololá	1	Sololá	11	Noviembre	2023-05-11T00:00:00	2024-11-08T13:00:00	6	Velocidad del viento	0
57174	7	Sololá	701	Sololá	1	Sololá	11	Noviembre	2023-05-11T00:00:00	2024-11-08T13:00:00	7	Dirección del viento	0
57175	7	Sololá	701	Sololá	1	Sololá	11	Noviembre	2023-05-11T00:00:00	2024-11-08T13:00:00	1	Precipitación	0
57176	7	Sololá	701	Sololá	1	Sololá	11	Noviembre	2023-05-11T00:00:00	2024-11-08T13:00:00	8	Radiación solar	226
57177	7	Sololá	701	Sololá	1	Sololá	11	Noviembre	2023-05-11T00:00:00	2024-11-08T14:00:00	2	Temperatura media	20.2
57178	7	Sololá	701	Sololá	1	Sololá	11	Noviembre	2023-05-11T00:00:00	2024-11-08T14:00:00	4	Temperatura máxima	20.7
57179	7	Sololá	701	Sololá	1	Sololá	11	Noviembre	2023-05-11T00:00:00	2024-11-08T14:00:00	3	Temperatura mínima	19.6
57180	7	Sololá	701	Sololá	1	Sololá	11	Noviembre	2023-05-11T00:00:00	2024-11-08T14:00:00	5	Humedad	78
57181	7	Sololá	701	Sololá	1	Sololá	11	Noviembre	2023-05-11T00:00:00	2024-11-08T14:00:00	6	Velocidad del viento	0
57182	7	Sololá	701	Sololá	1	Sololá	11	Noviembre	2023-05-11T00:00:00	2024-11-08T14:00:00	7	Dirección del viento	0
57183	7	Sololá	701	Sololá	1	Sololá	11	Noviembre	2023-05-11T00:00:00	2024-11-08T14:00:00	1	Precipitación	0
57184	7	Sololá	701	Sololá	1	Sololá	11	Noviembre	2023-05-11T00:00:00	2024-11-08T14:00:00	8	Radiación solar	143
57185	7	Sololá	701	Sololá	1	Sololá	11	Noviembre	2023-05-11T00:00:00	2024-11-08T15:00:00	2	Temperatura media	18.9
57186	7	Sololá	701	Sololá	1	Sololá	11	Noviembre	2023-05-11T00:00:00	2024-11-08T15:00:00	4	Temperatura máxima	21.1
57187	7	Sololá	701	Sololá	1	Sololá	11	Noviembre	2023-05-11T00:00:00	2024-11-08T15:00:00	3	Temperatura mínima	18.9
57188	7	Sololá	701	Sololá	1	Sololá	11	Noviembre	2023-05-11T00:00:00	2024-11-08T15:00:00	5	Humedad	81
57189	7	Sololá	701	Sololá	1	Sololá	11	Noviembre	2023-05-11T00:00:00	2024-11-08T15:00:00	6	Velocidad del viento	0
57190	7	Sololá	701	Sololá	1	Sololá	11	Noviembre	2023-05-11T00:00:00	2024-11-08T15:00:00	7	Dirección del viento	0
57191	7	Sololá	701	Sololá	1	Sololá	11	Noviembre	2023-05-11T00:00:00	2024-11-08T15:00:00	1	Precipitación	0
57192	7	Sololá	701	Sololá	1	Sololá	11	Noviembre	2023-05-11T00:00:00	2024-11-08T15:00:00	8	Radiación solar	120
57193	7	Sololá	701	Sololá	1	Sololá	11	Noviembre	2023-05-11T00:00:00	2024-11-08T16:00:00	2	Temperatura media	17.7
57194	7	Sololá	701	Sololá	1	Sololá	11	Noviembre	2023-05-11T00:00:00	2024-11-08T16:00:00	4	Temperatura máxima	18.9
57195	7	Sololá	701	Sololá	1	Sololá	11	Noviembre	2023-05-11T00:00:00	2024-11-08T16:00:00	3	Temperatura mínima	17.7
57196	7	Sololá	701	Sololá	1	Sololá	11	Noviembre	2023-05-11T00:00:00	2024-11-08T16:00:00	5	Humedad	85
57197	7	Sololá	701	Sololá	1	Sololá	11	Noviembre	2023-05-11T00:00:00	2024-11-08T16:00:00	6	Velocidad del viento	0
57198	7	Sololá	701	Sololá	1	Sololá	11	Noviembre	2023-05-11T00:00:00	2024-11-08T16:00:00	7	Dirección del viento	0
57199	7	Sololá	701	Sololá	1	Sololá	11	Noviembre	2023-05-11T00:00:00	2024-11-08T16:00:00	1	Precipitación	0
57200	7	Sololá	701	Sololá	1	Sololá	11	Noviembre	2023-05-11T00:00:00	2024-11-08T16:00:00	8	Radiación solar	49
57201	7	Sololá	701	Sololá	1	Sololá	11	Noviembre	2023-05-11T00:00:00	2024-11-08T17:00:00	2	Temperatura media	16.6
57202	7	Sololá	701	Sololá	1	Sololá	11	Noviembre	2023-05-11T00:00:00	2024-11-08T17:00:00	4	Temperatura máxima	17.7
57203	7	Sololá	701	Sololá	1	Sololá	11	Noviembre	2023-05-11T00:00:00	2024-11-08T17:00:00	3	Temperatura mínima	16.6
57204	7	Sololá	701	Sololá	1	Sololá	11	Noviembre	2023-05-11T00:00:00	2024-11-08T17:00:00	5	Humedad	89
57205	7	Sololá	701	Sololá	1	Sololá	11	Noviembre	2023-05-11T00:00:00	2024-11-08T17:00:00	6	Velocidad del viento	0
57206	7	Sololá	701	Sololá	1	Sololá	11	Noviembre	2023-05-11T00:00:00	2024-11-08T17:00:00	7	Dirección del viento	0
57207	7	Sololá	701	Sololá	1	Sololá	11	Noviembre	2023-05-11T00:00:00	2024-11-08T17:00:00	1	Precipitación	0
57208	7	Sololá	701	Sololá	1	Sololá	11	Noviembre	2023-05-11T00:00:00	2024-11-08T17:00:00	8	Radiación solar	10
57209	7	Sololá	701	Sololá	1	Sololá	11	Noviembre	2023-05-11T00:00:00	2024-11-08T18:00:00	2	Temperatura media	15.7
57210	7	Sololá	701	Sololá	1	Sololá	11	Noviembre	2023-05-11T00:00:00	2024-11-08T18:00:00	4	Temperatura máxima	16.6
57211	7	Sololá	701	Sololá	1	Sololá	11	Noviembre	2023-05-11T00:00:00	2024-11-08T18:00:00	3	Temperatura mínima	15.7
57212	7	Sololá	701	Sololá	1	Sololá	11	Noviembre	2023-05-11T00:00:00	2024-11-08T18:00:00	5	Humedad	91
57213	7	Sololá	701	Sololá	1	Sololá	11	Noviembre	2023-05-11T00:00:00	2024-11-08T18:00:00	6	Velocidad del viento	0
57214	7	Sololá	701	Sololá	1	Sololá	11	Noviembre	2023-05-11T00:00:00	2024-11-08T18:00:00	7	Dirección del viento	0
57215	7	Sololá	701	Sololá	1	Sololá	11	Noviembre	2023-05-11T00:00:00	2024-11-08T18:00:00	1	Precipitación	0
57216	7	Sololá	701	Sololá	1	Sololá	11	Noviembre	2023-05-11T00:00:00	2024-11-08T18:00:00	8	Radiación solar	0
57217	7	Sololá	701	Sololá	1	Sololá	11	Noviembre	2023-05-11T00:00:00	2024-11-08T19:00:00	2	Temperatura media	15.4
57218	7	Sololá	701	Sololá	1	Sololá	11	Noviembre	2023-05-11T00:00:00	2024-11-08T19:00:00	4	Temperatura máxima	15.7
57219	7	Sololá	701	Sololá	1	Sololá	11	Noviembre	2023-05-11T00:00:00	2024-11-08T19:00:00	3	Temperatura mínima	15.4
57220	7	Sololá	701	Sololá	1	Sololá	11	Noviembre	2023-05-11T00:00:00	2024-11-08T19:00:00	5	Humedad	93
57221	7	Sololá	701	Sololá	1	Sololá	11	Noviembre	2023-05-11T00:00:00	2024-11-08T19:00:00	6	Velocidad del viento	0
57222	7	Sololá	701	Sololá	1	Sololá	11	Noviembre	2023-05-11T00:00:00	2024-11-08T19:00:00	7	Dirección del viento	0
57223	7	Sololá	701	Sololá	1	Sololá	11	Noviembre	2023-05-11T00:00:00	2024-11-08T19:00:00	1	Precipitación	0.2
57224	7	Sololá	701	Sololá	1	Sololá	11	Noviembre	2023-05-11T00:00:00	2024-11-08T19:00:00	8	Radiación solar	0
57225	7	Sololá	701	Sololá	1	Sololá	11	Noviembre	2023-05-11T00:00:00	2024-11-08T20:00:00	2	Temperatura media	15.3
57226	7	Sololá	701	Sololá	1	Sololá	11	Noviembre	2023-05-11T00:00:00	2024-11-08T20:00:00	4	Temperatura máxima	15.4
57227	7	Sololá	701	Sololá	1	Sololá	11	Noviembre	2023-05-11T00:00:00	2024-11-08T20:00:00	3	Temperatura mínima	15.3
57228	7	Sololá	701	Sololá	1	Sololá	11	Noviembre	2023-05-11T00:00:00	2024-11-08T20:00:00	5	Humedad	93
57229	7	Sololá	701	Sololá	1	Sololá	11	Noviembre	2023-05-11T00:00:00	2024-11-08T20:00:00	6	Velocidad del viento	0
57230	7	Sololá	701	Sololá	1	Sololá	11	Noviembre	2023-05-11T00:00:00	2024-11-08T20:00:00	7	Dirección del viento	0
57231	7	Sololá	701	Sololá	1	Sololá	11	Noviembre	2023-05-11T00:00:00	2024-11-08T20:00:00	1	Precipitación	0
57232	7	Sololá	701	Sololá	1	Sololá	11	Noviembre	2023-05-11T00:00:00	2024-11-08T20:00:00	8	Radiación solar	0
57233	7	Sololá	701	Sololá	1	Sololá	11	Noviembre	2023-05-11T00:00:00	2024-11-08T21:00:00	2	Temperatura media	14.8
57234	7	Sololá	701	Sololá	1	Sololá	11	Noviembre	2023-05-11T00:00:00	2024-11-08T21:00:00	4	Temperatura máxima	15.3
57235	7	Sololá	701	Sololá	1	Sololá	11	Noviembre	2023-05-11T00:00:00	2024-11-08T21:00:00	3	Temperatura mínima	14.8
57236	7	Sololá	701	Sololá	1	Sololá	11	Noviembre	2023-05-11T00:00:00	2024-11-08T21:00:00	5	Humedad	92
57237	7	Sololá	701	Sololá	1	Sololá	11	Noviembre	2023-05-11T00:00:00	2024-11-08T21:00:00	6	Velocidad del viento	0
57238	7	Sololá	701	Sololá	1	Sololá	11	Noviembre	2023-05-11T00:00:00	2024-11-08T21:00:00	7	Dirección del viento	0
57239	7	Sololá	701	Sololá	1	Sololá	11	Noviembre	2023-05-11T00:00:00	2024-11-08T21:00:00	1	Precipitación	0
57240	7	Sololá	701	Sololá	1	Sololá	11	Noviembre	2023-05-11T00:00:00	2024-11-08T21:00:00	8	Radiación solar	0
57241	7	Sololá	701	Sololá	1	Sololá	11	Noviembre	2023-05-11T00:00:00	2024-11-08T22:00:00	2	Temperatura media	14.9
57242	7	Sololá	701	Sololá	1	Sololá	11	Noviembre	2023-05-11T00:00:00	2024-11-08T22:00:00	4	Temperatura máxima	14.9
57243	7	Sololá	701	Sololá	1	Sololá	11	Noviembre	2023-05-11T00:00:00	2024-11-08T22:00:00	3	Temperatura mínima	14.7
57244	7	Sololá	701	Sololá	1	Sololá	11	Noviembre	2023-05-11T00:00:00	2024-11-08T22:00:00	5	Humedad	92
57245	7	Sololá	701	Sololá	1	Sololá	11	Noviembre	2023-05-11T00:00:00	2024-11-08T22:00:00	6	Velocidad del viento	0
57246	7	Sololá	701	Sololá	1	Sololá	11	Noviembre	2023-05-11T00:00:00	2024-11-08T22:00:00	7	Dirección del viento	0
57247	7	Sololá	701	Sololá	1	Sololá	11	Noviembre	2023-05-11T00:00:00	2024-11-08T22:00:00	1	Precipitación	0.2
57248	7	Sololá	701	Sololá	1	Sololá	11	Noviembre	2023-05-11T00:00:00	2024-11-08T22:00:00	8	Radiación solar	0
57249	7	Sololá	701	Sololá	1	Sololá	11	Noviembre	2023-05-11T00:00:00	2024-11-08T23:00:00	2	Temperatura media	14.9
57250	7	Sololá	701	Sololá	1	Sololá	11	Noviembre	2023-05-11T00:00:00	2024-11-08T23:00:00	4	Temperatura máxima	15
57251	7	Sololá	701	Sololá	1	Sololá	11	Noviembre	2023-05-11T00:00:00	2024-11-08T23:00:00	3	Temperatura mínima	14.8
57252	7	Sololá	701	Sololá	1	Sololá	11	Noviembre	2023-05-11T00:00:00	2024-11-08T23:00:00	5	Humedad	92
57253	7	Sololá	701	Sololá	1	Sololá	11	Noviembre	2023-05-11T00:00:00	2024-11-08T23:00:00	6	Velocidad del viento	0
57254	7	Sololá	701	Sololá	1	Sololá	11	Noviembre	2023-05-11T00:00:00	2024-11-08T23:00:00	7	Dirección del viento	0
57255	7	Sololá	701	Sololá	1	Sololá	11	Noviembre	2023-05-11T00:00:00	2024-11-08T23:00:00	1	Precipitación	0
57256	7	Sololá	701	Sololá	1	Sololá	11	Noviembre	2023-05-11T00:00:00	2024-11-08T23:00:00	8	Radiación solar	0
57257	7	Sololá	701	Sololá	1	Sololá	11	Noviembre	2023-06-11T00:00:00	2024-11-08T00:00:00	2	Temperatura media	14.9
57258	7	Sololá	701	Sololá	1	Sololá	11	Noviembre	2023-06-11T00:00:00	2024-11-08T00:00:00	4	Temperatura máxima	14.9
57259	7	Sololá	701	Sololá	1	Sololá	11	Noviembre	2023-06-11T00:00:00	2024-11-08T00:00:00	3	Temperatura mínima	14.8
57260	7	Sololá	701	Sololá	1	Sololá	11	Noviembre	2023-06-11T00:00:00	2024-11-08T00:00:00	5	Humedad	93
57261	7	Sololá	701	Sololá	1	Sololá	11	Noviembre	2023-06-11T00:00:00	2024-11-08T00:00:00	6	Velocidad del viento	0
57262	7	Sololá	701	Sololá	1	Sololá	11	Noviembre	2023-06-11T00:00:00	2024-11-08T00:00:00	7	Dirección del viento	0
57263	7	Sololá	701	Sololá	1	Sololá	11	Noviembre	2023-06-11T00:00:00	2024-11-08T00:00:00	1	Precipitación	0
57264	7	Sololá	701	Sololá	1	Sololá	11	Noviembre	2023-06-11T00:00:00	2024-11-08T00:00:00	8	Radiación solar	0
57265	7	Sololá	701	Sololá	1	Sololá	11	Noviembre	2023-06-11T00:00:00	2024-11-08T01:00:00	2	Temperatura media	15.1
57266	7	Sololá	701	Sololá	1	Sololá	11	Noviembre	2023-06-11T00:00:00	2024-11-08T01:00:00	4	Temperatura máxima	15.1
57267	7	Sololá	701	Sololá	1	Sololá	11	Noviembre	2023-06-11T00:00:00	2024-11-08T01:00:00	3	Temperatura mínima	14.8
57268	7	Sololá	701	Sololá	1	Sololá	11	Noviembre	2023-06-11T00:00:00	2024-11-08T01:00:00	5	Humedad	92
57269	7	Sololá	701	Sololá	1	Sololá	11	Noviembre	2023-06-11T00:00:00	2024-11-08T01:00:00	6	Velocidad del viento	0
57270	7	Sololá	701	Sololá	1	Sololá	11	Noviembre	2023-06-11T00:00:00	2024-11-08T01:00:00	7	Dirección del viento	0
57271	7	Sololá	701	Sololá	1	Sololá	11	Noviembre	2023-06-11T00:00:00	2024-11-08T01:00:00	1	Precipitación	0
57272	7	Sololá	701	Sololá	1	Sololá	11	Noviembre	2023-06-11T00:00:00	2024-11-08T01:00:00	8	Radiación solar	0
57273	7	Sololá	701	Sololá	1	Sololá	11	Noviembre	2023-06-11T00:00:00	2024-11-08T02:00:00	2	Temperatura media	15.1
57274	7	Sololá	701	Sololá	1	Sololá	11	Noviembre	2023-06-11T00:00:00	2024-11-08T02:00:00	4	Temperatura máxima	15.2
57275	7	Sololá	701	Sololá	1	Sololá	11	Noviembre	2023-06-11T00:00:00	2024-11-08T02:00:00	3	Temperatura mínima	15
57276	7	Sololá	701	Sololá	1	Sololá	11	Noviembre	2023-06-11T00:00:00	2024-11-08T02:00:00	5	Humedad	91
57277	7	Sololá	701	Sololá	1	Sololá	11	Noviembre	2023-06-11T00:00:00	2024-11-08T02:00:00	6	Velocidad del viento	0
57278	7	Sololá	701	Sololá	1	Sololá	11	Noviembre	2023-06-11T00:00:00	2024-11-08T02:00:00	7	Dirección del viento	0
57279	7	Sololá	701	Sololá	1	Sololá	11	Noviembre	2023-06-11T00:00:00	2024-11-08T02:00:00	1	Precipitación	0
57280	7	Sololá	701	Sololá	1	Sololá	11	Noviembre	2023-06-11T00:00:00	2024-11-08T02:00:00	8	Radiación solar	0
57281	7	Sololá	701	Sololá	1	Sololá	11	Noviembre	2023-06-11T00:00:00	2024-11-08T03:00:00	2	Temperatura media	15.2
57282	7	Sololá	701	Sololá	1	Sololá	11	Noviembre	2023-06-11T00:00:00	2024-11-08T03:00:00	4	Temperatura máxima	15.2
57283	7	Sololá	701	Sololá	1	Sololá	11	Noviembre	2023-06-11T00:00:00	2024-11-08T03:00:00	3	Temperatura mínima	15.1
57284	7	Sololá	701	Sololá	1	Sololá	11	Noviembre	2023-06-11T00:00:00	2024-11-08T03:00:00	5	Humedad	92
57285	7	Sololá	701	Sololá	1	Sololá	11	Noviembre	2023-06-11T00:00:00	2024-11-08T03:00:00	6	Velocidad del viento	0
57286	7	Sololá	701	Sololá	1	Sololá	11	Noviembre	2023-06-11T00:00:00	2024-11-08T03:00:00	7	Dirección del viento	0
57287	7	Sololá	701	Sololá	1	Sololá	11	Noviembre	2023-06-11T00:00:00	2024-11-08T03:00:00	1	Precipitación	0
57288	7	Sololá	701	Sololá	1	Sololá	11	Noviembre	2023-06-11T00:00:00	2024-11-08T03:00:00	8	Radiación solar	0
57289	7	Sololá	701	Sololá	1	Sololá	11	Noviembre	2023-06-11T00:00:00	2024-11-08T04:00:00	2	Temperatura media	14.9
57290	7	Sololá	701	Sololá	1	Sololá	11	Noviembre	2023-06-11T00:00:00	2024-11-08T04:00:00	4	Temperatura máxima	15.2
57291	7	Sololá	701	Sololá	1	Sololá	11	Noviembre	2023-06-11T00:00:00	2024-11-08T04:00:00	3	Temperatura mínima	14.9
57292	7	Sololá	701	Sololá	1	Sololá	11	Noviembre	2023-06-11T00:00:00	2024-11-08T04:00:00	5	Humedad	93
57293	7	Sololá	701	Sololá	1	Sololá	11	Noviembre	2023-06-11T00:00:00	2024-11-08T04:00:00	6	Velocidad del viento	0
57294	7	Sololá	701	Sololá	1	Sololá	11	Noviembre	2023-06-11T00:00:00	2024-11-08T04:00:00	7	Dirección del viento	0
57295	7	Sololá	701	Sololá	1	Sololá	11	Noviembre	2023-06-11T00:00:00	2024-11-08T04:00:00	1	Precipitación	0
57296	7	Sololá	701	Sololá	1	Sololá	11	Noviembre	2023-06-11T00:00:00	2024-11-08T04:00:00	8	Radiación solar	0
57297	7	Sololá	701	Sololá	1	Sololá	11	Noviembre	2023-06-11T00:00:00	2024-11-08T05:00:00	2	Temperatura media	14.9
57298	7	Sololá	701	Sololá	1	Sololá	11	Noviembre	2023-06-11T00:00:00	2024-11-08T05:00:00	4	Temperatura máxima	15.1
57299	7	Sololá	701	Sololá	1	Sololá	11	Noviembre	2023-06-11T00:00:00	2024-11-08T05:00:00	3	Temperatura mínima	14.9
57300	7	Sololá	701	Sololá	1	Sololá	11	Noviembre	2023-06-11T00:00:00	2024-11-08T05:00:00	5	Humedad	93
57301	7	Sololá	701	Sololá	1	Sololá	11	Noviembre	2023-06-11T00:00:00	2024-11-08T05:00:00	6	Velocidad del viento	0
57302	7	Sololá	701	Sololá	1	Sololá	11	Noviembre	2023-06-11T00:00:00	2024-11-08T05:00:00	7	Dirección del viento	0
57303	7	Sololá	701	Sololá	1	Sololá	11	Noviembre	2023-06-11T00:00:00	2024-11-08T05:00:00	1	Precipitación	0
57304	7	Sololá	701	Sololá	1	Sololá	11	Noviembre	2023-06-11T00:00:00	2024-11-08T05:00:00	8	Radiación solar	0
57305	7	Sololá	701	Sololá	1	Sololá	11	Noviembre	2023-06-11T00:00:00	2024-11-08T06:00:00	2	Temperatura media	15.3
57306	7	Sololá	701	Sololá	1	Sololá	11	Noviembre	2023-06-11T00:00:00	2024-11-08T06:00:00	4	Temperatura máxima	15.3
57307	7	Sololá	701	Sololá	1	Sololá	11	Noviembre	2023-06-11T00:00:00	2024-11-08T06:00:00	3	Temperatura mínima	14.9
57308	7	Sololá	701	Sololá	1	Sololá	11	Noviembre	2023-06-11T00:00:00	2024-11-08T06:00:00	5	Humedad	92
57309	7	Sololá	701	Sololá	1	Sololá	11	Noviembre	2023-06-11T00:00:00	2024-11-08T06:00:00	6	Velocidad del viento	0
57310	7	Sololá	701	Sololá	1	Sololá	11	Noviembre	2023-06-11T00:00:00	2024-11-08T06:00:00	7	Dirección del viento	0
57311	7	Sololá	701	Sololá	1	Sololá	11	Noviembre	2023-06-11T00:00:00	2024-11-08T06:00:00	1	Precipitación	0
57312	7	Sololá	701	Sololá	1	Sololá	11	Noviembre	2023-06-11T00:00:00	2024-11-08T06:00:00	8	Radiación solar	25
57313	7	Sololá	701	Sololá	1	Sololá	11	Noviembre	2023-06-11T00:00:00	2024-11-08T07:00:00	2	Temperatura media	16.1
57314	7	Sololá	701	Sololá	1	Sololá	11	Noviembre	2023-06-11T00:00:00	2024-11-08T07:00:00	4	Temperatura máxima	16.1
57315	7	Sololá	701	Sololá	1	Sololá	11	Noviembre	2023-06-11T00:00:00	2024-11-08T07:00:00	3	Temperatura mínima	15.3
57316	7	Sololá	701	Sololá	1	Sololá	11	Noviembre	2023-06-11T00:00:00	2024-11-08T07:00:00	5	Humedad	89
57317	7	Sololá	701	Sololá	1	Sololá	11	Noviembre	2023-06-11T00:00:00	2024-11-08T07:00:00	6	Velocidad del viento	0
57318	7	Sololá	701	Sololá	1	Sololá	11	Noviembre	2023-06-11T00:00:00	2024-11-08T07:00:00	7	Dirección del viento	0
57319	7	Sololá	701	Sololá	1	Sololá	11	Noviembre	2023-06-11T00:00:00	2024-11-08T07:00:00	1	Precipitación	0
57320	7	Sololá	701	Sololá	1	Sololá	11	Noviembre	2023-06-11T00:00:00	2024-11-08T07:00:00	8	Radiación solar	49
57321	7	Sololá	701	Sololá	1	Sololá	11	Noviembre	2023-06-11T00:00:00	2024-11-08T08:00:00	2	Temperatura media	16.9
57322	7	Sololá	701	Sololá	1	Sololá	11	Noviembre	2023-06-11T00:00:00	2024-11-08T08:00:00	4	Temperatura máxima	16.9
57323	7	Sololá	701	Sololá	1	Sololá	11	Noviembre	2023-06-11T00:00:00	2024-11-08T08:00:00	3	Temperatura mínima	16.1
57324	7	Sololá	701	Sololá	1	Sololá	11	Noviembre	2023-06-11T00:00:00	2024-11-08T08:00:00	5	Humedad	85
57325	7	Sololá	701	Sololá	1	Sololá	11	Noviembre	2023-06-11T00:00:00	2024-11-08T08:00:00	6	Velocidad del viento	0
57326	7	Sololá	701	Sololá	1	Sololá	11	Noviembre	2023-06-11T00:00:00	2024-11-08T08:00:00	7	Dirección del viento	0
57327	7	Sololá	701	Sololá	1	Sololá	11	Noviembre	2023-06-11T00:00:00	2024-11-08T08:00:00	1	Precipitación	0
57328	7	Sololá	701	Sololá	1	Sololá	11	Noviembre	2023-06-11T00:00:00	2024-11-08T08:00:00	8	Radiación solar	92
57329	7	Sololá	701	Sololá	1	Sololá	11	Noviembre	2023-06-11T00:00:00	2024-11-08T09:00:00	2	Temperatura media	20.7
57330	7	Sololá	701	Sololá	1	Sololá	11	Noviembre	2023-06-11T00:00:00	2024-11-08T09:00:00	4	Temperatura máxima	20.7
57331	7	Sololá	701	Sololá	1	Sololá	11	Noviembre	2023-06-11T00:00:00	2024-11-08T09:00:00	3	Temperatura mínima	16.9
57332	7	Sololá	701	Sololá	1	Sololá	11	Noviembre	2023-06-11T00:00:00	2024-11-08T09:00:00	5	Humedad	80
57333	7	Sololá	701	Sololá	1	Sololá	11	Noviembre	2023-06-11T00:00:00	2024-11-08T09:00:00	6	Velocidad del viento	0
57334	7	Sololá	701	Sololá	1	Sololá	11	Noviembre	2023-06-11T00:00:00	2024-11-08T09:00:00	7	Dirección del viento	0
57335	7	Sololá	701	Sololá	1	Sololá	11	Noviembre	2023-06-11T00:00:00	2024-11-08T09:00:00	1	Precipitación	0
57336	7	Sololá	701	Sololá	1	Sololá	11	Noviembre	2023-06-11T00:00:00	2024-11-08T09:00:00	8	Radiación solar	328
57337	7	Sololá	701	Sololá	1	Sololá	11	Noviembre	2023-06-11T00:00:00	2024-11-08T10:00:00	2	Temperatura media	19.9
57338	7	Sololá	701	Sololá	1	Sololá	11	Noviembre	2023-06-11T00:00:00	2024-11-08T10:00:00	4	Temperatura máxima	21.1
57339	7	Sololá	701	Sololá	1	Sololá	11	Noviembre	2023-06-11T00:00:00	2024-11-08T10:00:00	3	Temperatura mínima	19.8
57340	7	Sololá	701	Sololá	1	Sololá	11	Noviembre	2023-06-11T00:00:00	2024-11-08T10:00:00	5	Humedad	80
57341	7	Sololá	701	Sololá	1	Sololá	11	Noviembre	2023-06-11T00:00:00	2024-11-08T10:00:00	6	Velocidad del viento	0
57342	7	Sololá	701	Sololá	1	Sololá	11	Noviembre	2023-06-11T00:00:00	2024-11-08T10:00:00	7	Dirección del viento	0
57343	7	Sololá	701	Sololá	1	Sololá	11	Noviembre	2023-06-11T00:00:00	2024-11-08T10:00:00	1	Precipitación	0
57344	7	Sololá	701	Sololá	1	Sololá	11	Noviembre	2023-06-11T00:00:00	2024-11-08T10:00:00	8	Radiación solar	345
57345	7	Sololá	701	Sololá	1	Sololá	11	Noviembre	2023-06-11T00:00:00	2024-11-08T11:00:00	2	Temperatura media	20.6
57346	7	Sololá	701	Sololá	1	Sololá	11	Noviembre	2023-06-11T00:00:00	2024-11-08T11:00:00	4	Temperatura máxima	20.8
57347	7	Sololá	701	Sololá	1	Sololá	11	Noviembre	2023-06-11T00:00:00	2024-11-08T11:00:00	3	Temperatura mínima	19.9
57348	7	Sololá	701	Sololá	1	Sololá	11	Noviembre	2023-06-11T00:00:00	2024-11-08T11:00:00	5	Humedad	78
57349	7	Sololá	701	Sololá	1	Sololá	11	Noviembre	2023-06-11T00:00:00	2024-11-08T11:00:00	6	Velocidad del viento	0
57350	7	Sololá	701	Sololá	1	Sololá	11	Noviembre	2023-06-11T00:00:00	2024-11-08T11:00:00	7	Dirección del viento	0
57351	7	Sololá	701	Sololá	1	Sololá	11	Noviembre	2023-06-11T00:00:00	2024-11-08T11:00:00	1	Precipitación	0
57352	7	Sololá	701	Sololá	1	Sololá	11	Noviembre	2023-06-11T00:00:00	2024-11-08T11:00:00	8	Radiación solar	328
57353	7	Sololá	701	Sololá	1	Sololá	11	Noviembre	2023-06-11T00:00:00	2024-11-08T12:00:00	2	Temperatura media	20.1
57354	7	Sololá	701	Sololá	1	Sololá	11	Noviembre	2023-06-11T00:00:00	2024-11-08T12:00:00	4	Temperatura máxima	20.7
57355	7	Sololá	701	Sololá	1	Sololá	11	Noviembre	2023-06-11T00:00:00	2024-11-08T12:00:00	3	Temperatura mínima	20.1
57356	7	Sololá	701	Sololá	1	Sololá	11	Noviembre	2023-06-11T00:00:00	2024-11-08T12:00:00	5	Humedad	80
57357	7	Sololá	701	Sololá	1	Sololá	11	Noviembre	2023-06-11T00:00:00	2024-11-08T12:00:00	6	Velocidad del viento	0
57358	7	Sololá	701	Sololá	1	Sololá	11	Noviembre	2023-06-11T00:00:00	2024-11-08T12:00:00	7	Dirección del viento	0
57359	7	Sololá	701	Sololá	1	Sololá	11	Noviembre	2023-06-11T00:00:00	2024-11-08T12:00:00	1	Precipitación	0
57360	7	Sololá	701	Sololá	1	Sololá	11	Noviembre	2023-06-11T00:00:00	2024-11-08T12:00:00	8	Radiación solar	193
57361	7	Sololá	701	Sololá	1	Sololá	11	Noviembre	2023-06-11T00:00:00	2024-11-08T13:00:00	2	Temperatura media	20.9
57362	7	Sololá	701	Sololá	1	Sololá	11	Noviembre	2023-06-11T00:00:00	2024-11-08T13:00:00	4	Temperatura máxima	21.6
57363	7	Sololá	701	Sololá	1	Sololá	11	Noviembre	2023-06-11T00:00:00	2024-11-08T13:00:00	3	Temperatura mínima	20.1
57364	7	Sololá	701	Sololá	1	Sololá	11	Noviembre	2023-06-11T00:00:00	2024-11-08T13:00:00	5	Humedad	75
57365	7	Sololá	701	Sololá	1	Sololá	11	Noviembre	2023-06-11T00:00:00	2024-11-08T13:00:00	6	Velocidad del viento	0
57366	7	Sololá	701	Sololá	1	Sololá	11	Noviembre	2023-06-11T00:00:00	2024-11-08T13:00:00	7	Dirección del viento	0
57367	7	Sololá	701	Sololá	1	Sololá	11	Noviembre	2023-06-11T00:00:00	2024-11-08T13:00:00	1	Precipitación	0
57368	7	Sololá	701	Sololá	1	Sololá	11	Noviembre	2023-06-11T00:00:00	2024-11-08T13:00:00	8	Radiación solar	208
57369	7	Sololá	701	Sololá	1	Sololá	11	Noviembre	2023-06-11T00:00:00	2024-11-08T14:00:00	2	Temperatura media	20.1
57370	7	Sololá	701	Sololá	1	Sololá	11	Noviembre	2023-06-11T00:00:00	2024-11-08T14:00:00	4	Temperatura máxima	21.1
57371	7	Sololá	701	Sololá	1	Sololá	11	Noviembre	2023-06-11T00:00:00	2024-11-08T14:00:00	3	Temperatura mínima	20.1
57372	7	Sololá	701	Sololá	1	Sololá	11	Noviembre	2023-06-11T00:00:00	2024-11-08T14:00:00	5	Humedad	77
57373	7	Sololá	701	Sololá	1	Sololá	11	Noviembre	2023-06-11T00:00:00	2024-11-08T14:00:00	6	Velocidad del viento	0
57374	7	Sololá	701	Sololá	1	Sololá	11	Noviembre	2023-06-11T00:00:00	2024-11-08T14:00:00	7	Dirección del viento	0
57375	7	Sololá	701	Sololá	1	Sololá	11	Noviembre	2023-06-11T00:00:00	2024-11-08T14:00:00	1	Precipitación	0
57376	7	Sololá	701	Sololá	1	Sololá	11	Noviembre	2023-06-11T00:00:00	2024-11-08T14:00:00	8	Radiación solar	130
57377	7	Sololá	701	Sololá	1	Sololá	11	Noviembre	2023-06-11T00:00:00	2024-11-08T15:00:00	2	Temperatura media	20.3
57378	7	Sololá	701	Sololá	1	Sololá	11	Noviembre	2023-06-11T00:00:00	2024-11-08T15:00:00	4	Temperatura máxima	20.3
57379	7	Sololá	701	Sololá	1	Sololá	11	Noviembre	2023-06-11T00:00:00	2024-11-08T15:00:00	3	Temperatura mínima	19.6
57380	7	Sololá	701	Sololá	1	Sololá	11	Noviembre	2023-06-11T00:00:00	2024-11-08T15:00:00	5	Humedad	75
57381	7	Sololá	701	Sololá	1	Sololá	11	Noviembre	2023-06-11T00:00:00	2024-11-08T15:00:00	6	Velocidad del viento	0
57382	7	Sololá	701	Sololá	1	Sololá	11	Noviembre	2023-06-11T00:00:00	2024-11-08T15:00:00	7	Dirección del viento	0
57383	7	Sololá	701	Sololá	1	Sololá	11	Noviembre	2023-06-11T00:00:00	2024-11-08T15:00:00	1	Precipitación	0
57384	7	Sololá	701	Sololá	1	Sololá	11	Noviembre	2023-06-11T00:00:00	2024-11-08T15:00:00	8	Radiación solar	95
57385	7	Sololá	701	Sololá	1	Sololá	11	Noviembre	2023-06-11T00:00:00	2024-11-08T16:00:00	2	Temperatura media	18.1
57386	7	Sololá	701	Sololá	1	Sololá	11	Noviembre	2023-06-11T00:00:00	2024-11-08T16:00:00	4	Temperatura máxima	20.4
57387	7	Sololá	701	Sololá	1	Sololá	11	Noviembre	2023-06-11T00:00:00	2024-11-08T16:00:00	3	Temperatura mínima	18.1
57388	7	Sololá	701	Sololá	1	Sololá	11	Noviembre	2023-06-11T00:00:00	2024-11-08T16:00:00	5	Humedad	83
57389	7	Sololá	701	Sololá	1	Sololá	11	Noviembre	2023-06-11T00:00:00	2024-11-08T16:00:00	6	Velocidad del viento	0
57390	7	Sololá	701	Sololá	1	Sololá	11	Noviembre	2023-06-11T00:00:00	2024-11-08T16:00:00	7	Dirección del viento	0
57391	7	Sololá	701	Sololá	1	Sololá	11	Noviembre	2023-06-11T00:00:00	2024-11-08T16:00:00	1	Precipitación	0
57392	7	Sololá	701	Sololá	1	Sololá	11	Noviembre	2023-06-11T00:00:00	2024-11-08T16:00:00	8	Radiación solar	24
57393	7	Sololá	701	Sololá	1	Sololá	11	Noviembre	2023-06-11T00:00:00	2024-11-08T17:00:00	2	Temperatura media	17.1
57394	7	Sololá	701	Sololá	1	Sololá	11	Noviembre	2023-06-11T00:00:00	2024-11-08T17:00:00	4	Temperatura máxima	18.1
57395	7	Sololá	701	Sololá	1	Sololá	11	Noviembre	2023-06-11T00:00:00	2024-11-08T17:00:00	3	Temperatura mínima	17.1
57396	7	Sololá	701	Sololá	1	Sololá	11	Noviembre	2023-06-11T00:00:00	2024-11-08T17:00:00	5	Humedad	85
57397	7	Sololá	701	Sololá	1	Sololá	11	Noviembre	2023-06-11T00:00:00	2024-11-08T17:00:00	6	Velocidad del viento	0
57398	7	Sololá	701	Sololá	1	Sololá	11	Noviembre	2023-06-11T00:00:00	2024-11-08T17:00:00	7	Dirección del viento	0
57399	7	Sololá	701	Sololá	1	Sololá	11	Noviembre	2023-06-11T00:00:00	2024-11-08T17:00:00	1	Precipitación	0
57400	7	Sololá	701	Sololá	1	Sololá	11	Noviembre	2023-06-11T00:00:00	2024-11-08T17:00:00	8	Radiación solar	1
57401	7	Sololá	701	Sololá	1	Sololá	11	Noviembre	2023-06-11T00:00:00	2024-11-08T18:00:00	2	Temperatura media	16.8
57402	7	Sololá	701	Sololá	1	Sololá	11	Noviembre	2023-06-11T00:00:00	2024-11-08T18:00:00	4	Temperatura máxima	17.1
57403	7	Sololá	701	Sololá	1	Sololá	11	Noviembre	2023-06-11T00:00:00	2024-11-08T18:00:00	3	Temperatura mínima	16.8
57404	7	Sololá	701	Sololá	1	Sololá	11	Noviembre	2023-06-11T00:00:00	2024-11-08T18:00:00	5	Humedad	86
57405	7	Sololá	701	Sololá	1	Sololá	11	Noviembre	2023-06-11T00:00:00	2024-11-08T18:00:00	6	Velocidad del viento	0
57406	7	Sololá	701	Sololá	1	Sololá	11	Noviembre	2023-06-11T00:00:00	2024-11-08T18:00:00	7	Dirección del viento	0
57407	7	Sololá	701	Sololá	1	Sololá	11	Noviembre	2023-06-11T00:00:00	2024-11-08T18:00:00	1	Precipitación	0
57408	7	Sololá	701	Sololá	1	Sololá	11	Noviembre	2023-06-11T00:00:00	2024-11-08T18:00:00	8	Radiación solar	0
57409	7	Sololá	701	Sololá	1	Sololá	11	Noviembre	2023-06-11T00:00:00	2024-11-08T19:00:00	2	Temperatura media	16.6
57410	7	Sololá	701	Sololá	1	Sololá	11	Noviembre	2023-06-11T00:00:00	2024-11-08T19:00:00	4	Temperatura máxima	16.8
57411	7	Sololá	701	Sololá	1	Sololá	11	Noviembre	2023-06-11T00:00:00	2024-11-08T19:00:00	3	Temperatura mínima	16.5
57412	7	Sololá	701	Sololá	1	Sololá	11	Noviembre	2023-06-11T00:00:00	2024-11-08T19:00:00	5	Humedad	87
57413	7	Sololá	701	Sololá	1	Sololá	11	Noviembre	2023-06-11T00:00:00	2024-11-08T19:00:00	6	Velocidad del viento	0
57414	7	Sololá	701	Sololá	1	Sololá	11	Noviembre	2023-06-11T00:00:00	2024-11-08T19:00:00	7	Dirección del viento	0
57415	7	Sololá	701	Sololá	1	Sololá	11	Noviembre	2023-06-11T00:00:00	2024-11-08T19:00:00	1	Precipitación	0
57416	7	Sololá	701	Sololá	1	Sololá	11	Noviembre	2023-06-11T00:00:00	2024-11-08T19:00:00	8	Radiación solar	0
57417	7	Sololá	701	Sololá	1	Sololá	11	Noviembre	2023-06-11T00:00:00	2024-11-08T20:00:00	2	Temperatura media	15.9
57418	7	Sololá	701	Sololá	1	Sololá	11	Noviembre	2023-06-11T00:00:00	2024-11-08T20:00:00	4	Temperatura máxima	16.6
57419	7	Sololá	701	Sololá	1	Sololá	11	Noviembre	2023-06-11T00:00:00	2024-11-08T20:00:00	3	Temperatura mínima	15.9
57420	7	Sololá	701	Sololá	1	Sololá	11	Noviembre	2023-06-11T00:00:00	2024-11-08T20:00:00	5	Humedad	90
57421	7	Sololá	701	Sololá	1	Sololá	11	Noviembre	2023-06-11T00:00:00	2024-11-08T20:00:00	6	Velocidad del viento	0
57422	7	Sololá	701	Sololá	1	Sololá	11	Noviembre	2023-06-11T00:00:00	2024-11-08T20:00:00	7	Dirección del viento	0
57423	7	Sololá	701	Sololá	1	Sololá	11	Noviembre	2023-06-11T00:00:00	2024-11-08T20:00:00	1	Precipitación	0
57424	7	Sololá	701	Sololá	1	Sololá	11	Noviembre	2023-06-11T00:00:00	2024-11-08T20:00:00	8	Radiación solar	0
57425	7	Sololá	701	Sololá	1	Sololá	11	Noviembre	2023-06-11T00:00:00	2024-11-08T21:00:00	2	Temperatura media	16.1
57426	7	Sololá	701	Sololá	1	Sololá	11	Noviembre	2023-06-11T00:00:00	2024-11-08T21:00:00	4	Temperatura máxima	16.2
57427	7	Sololá	701	Sololá	1	Sololá	11	Noviembre	2023-06-11T00:00:00	2024-11-08T21:00:00	3	Temperatura mínima	15.9
57428	7	Sololá	701	Sololá	1	Sololá	11	Noviembre	2023-06-11T00:00:00	2024-11-08T21:00:00	5	Humedad	89
57429	7	Sololá	701	Sololá	1	Sololá	11	Noviembre	2023-06-11T00:00:00	2024-11-08T21:00:00	6	Velocidad del viento	0
57430	7	Sololá	701	Sololá	1	Sololá	11	Noviembre	2023-06-11T00:00:00	2024-11-08T21:00:00	7	Dirección del viento	0
57431	7	Sololá	701	Sololá	1	Sololá	11	Noviembre	2023-06-11T00:00:00	2024-11-08T21:00:00	1	Precipitación	0
57432	7	Sololá	701	Sololá	1	Sololá	11	Noviembre	2023-06-11T00:00:00	2024-11-08T21:00:00	8	Radiación solar	0
57433	7	Sololá	701	Sololá	1	Sololá	11	Noviembre	2023-06-11T00:00:00	2024-11-08T22:00:00	2	Temperatura media	16.2
57434	7	Sololá	701	Sololá	1	Sololá	11	Noviembre	2023-06-11T00:00:00	2024-11-08T22:00:00	4	Temperatura máxima	16.2
57435	7	Sololá	701	Sololá	1	Sololá	11	Noviembre	2023-06-11T00:00:00	2024-11-08T22:00:00	3	Temperatura mínima	16.1
57436	7	Sololá	701	Sololá	1	Sololá	11	Noviembre	2023-06-11T00:00:00	2024-11-08T22:00:00	5	Humedad	88
57437	7	Sololá	701	Sololá	1	Sololá	11	Noviembre	2023-06-11T00:00:00	2024-11-08T22:00:00	6	Velocidad del viento	0
57438	7	Sololá	701	Sololá	1	Sololá	11	Noviembre	2023-06-11T00:00:00	2024-11-08T22:00:00	7	Dirección del viento	0
57439	7	Sololá	701	Sololá	1	Sololá	11	Noviembre	2023-06-11T00:00:00	2024-11-08T22:00:00	1	Precipitación	0
57440	7	Sololá	701	Sololá	1	Sololá	11	Noviembre	2023-06-11T00:00:00	2024-11-08T22:00:00	8	Radiación solar	0
57441	7	Sololá	701	Sololá	1	Sololá	11	Noviembre	2023-06-11T00:00:00	2024-11-08T23:00:00	2	Temperatura media	16.2
57442	7	Sololá	701	Sololá	1	Sololá	11	Noviembre	2023-06-11T00:00:00	2024-11-08T23:00:00	4	Temperatura máxima	16.2
57443	7	Sololá	701	Sololá	1	Sololá	11	Noviembre	2023-06-11T00:00:00	2024-11-08T23:00:00	3	Temperatura mínima	16.1
57444	7	Sololá	701	Sololá	1	Sololá	11	Noviembre	2023-06-11T00:00:00	2024-11-08T23:00:00	5	Humedad	89
57445	7	Sololá	701	Sololá	1	Sololá	11	Noviembre	2023-06-11T00:00:00	2024-11-08T23:00:00	6	Velocidad del viento	0
57446	7	Sololá	701	Sololá	1	Sololá	11	Noviembre	2023-06-11T00:00:00	2024-11-08T23:00:00	7	Dirección del viento	0
57447	7	Sololá	701	Sololá	1	Sololá	11	Noviembre	2023-06-11T00:00:00	2024-11-08T23:00:00	1	Precipitación	0
57448	7	Sololá	701	Sololá	1	Sololá	11	Noviembre	2023-06-11T00:00:00	2024-11-08T23:00:00	8	Radiación solar	0
57449	7	Sololá	701	Sololá	1	Sololá	11	Noviembre	2023-07-11T00:00:00	2024-11-08T00:00:00	2	Temperatura media	15.7
57450	7	Sololá	701	Sololá	1	Sololá	11	Noviembre	2023-07-11T00:00:00	2024-11-08T00:00:00	4	Temperatura máxima	16.2
57451	7	Sololá	701	Sololá	1	Sololá	11	Noviembre	2023-07-11T00:00:00	2024-11-08T00:00:00	3	Temperatura mínima	15.7
57452	7	Sololá	701	Sololá	1	Sololá	11	Noviembre	2023-07-11T00:00:00	2024-11-08T00:00:00	5	Humedad	89
57453	7	Sololá	701	Sololá	1	Sololá	11	Noviembre	2023-07-11T00:00:00	2024-11-08T00:00:00	6	Velocidad del viento	0
57454	7	Sololá	701	Sololá	1	Sololá	11	Noviembre	2023-07-11T00:00:00	2024-11-08T00:00:00	7	Dirección del viento	0
57455	7	Sololá	701	Sololá	1	Sololá	11	Noviembre	2023-07-11T00:00:00	2024-11-08T00:00:00	1	Precipitación	0
57456	7	Sololá	701	Sololá	1	Sololá	11	Noviembre	2023-07-11T00:00:00	2024-11-08T00:00:00	8	Radiación solar	0
57457	7	Sololá	701	Sololá	1	Sololá	11	Noviembre	2023-07-11T00:00:00	2024-11-08T01:00:00	2	Temperatura media	15.4
57458	7	Sololá	701	Sololá	1	Sololá	11	Noviembre	2023-07-11T00:00:00	2024-11-08T01:00:00	4	Temperatura máxima	15.9
57459	7	Sololá	701	Sololá	1	Sololá	11	Noviembre	2023-07-11T00:00:00	2024-11-08T01:00:00	3	Temperatura mínima	15.4
57460	7	Sololá	701	Sololá	1	Sololá	11	Noviembre	2023-07-11T00:00:00	2024-11-08T01:00:00	5	Humedad	89
57461	7	Sololá	701	Sololá	1	Sololá	11	Noviembre	2023-07-11T00:00:00	2024-11-08T01:00:00	6	Velocidad del viento	0
57462	7	Sololá	701	Sololá	1	Sololá	11	Noviembre	2023-07-11T00:00:00	2024-11-08T01:00:00	7	Dirección del viento	0
57463	7	Sololá	701	Sololá	1	Sololá	11	Noviembre	2023-07-11T00:00:00	2024-11-08T01:00:00	1	Precipitación	0
57464	7	Sololá	701	Sololá	1	Sololá	11	Noviembre	2023-07-11T00:00:00	2024-11-08T01:00:00	8	Radiación solar	0
57465	7	Sololá	701	Sololá	1	Sololá	11	Noviembre	2023-07-11T00:00:00	2024-11-08T02:00:00	2	Temperatura media	15.1
57466	7	Sololá	701	Sololá	1	Sololá	11	Noviembre	2023-07-11T00:00:00	2024-11-08T02:00:00	4	Temperatura máxima	15.5
57467	7	Sololá	701	Sololá	1	Sololá	11	Noviembre	2023-07-11T00:00:00	2024-11-08T02:00:00	3	Temperatura mínima	15.1
57468	7	Sololá	701	Sololá	1	Sololá	11	Noviembre	2023-07-11T00:00:00	2024-11-08T02:00:00	5	Humedad	91
57469	7	Sololá	701	Sololá	1	Sololá	11	Noviembre	2023-07-11T00:00:00	2024-11-08T02:00:00	6	Velocidad del viento	0
57470	7	Sololá	701	Sololá	1	Sololá	11	Noviembre	2023-07-11T00:00:00	2024-11-08T02:00:00	7	Dirección del viento	0
57471	7	Sololá	701	Sololá	1	Sololá	11	Noviembre	2023-07-11T00:00:00	2024-11-08T02:00:00	1	Precipitación	0
57472	7	Sololá	701	Sololá	1	Sololá	11	Noviembre	2023-07-11T00:00:00	2024-11-08T02:00:00	8	Radiación solar	0
57473	7	Sololá	701	Sololá	1	Sololá	11	Noviembre	2023-07-11T00:00:00	2024-11-08T03:00:00	2	Temperatura media	15.4
57474	7	Sololá	701	Sololá	1	Sololá	11	Noviembre	2023-07-11T00:00:00	2024-11-08T03:00:00	4	Temperatura máxima	15.4
57475	7	Sololá	701	Sololá	1	Sololá	11	Noviembre	2023-07-11T00:00:00	2024-11-08T03:00:00	3	Temperatura mínima	15.1
57476	7	Sololá	701	Sololá	1	Sololá	11	Noviembre	2023-07-11T00:00:00	2024-11-08T03:00:00	5	Humedad	89
57477	7	Sololá	701	Sololá	1	Sololá	11	Noviembre	2023-07-11T00:00:00	2024-11-08T03:00:00	6	Velocidad del viento	0
57478	7	Sololá	701	Sololá	1	Sololá	11	Noviembre	2023-07-11T00:00:00	2024-11-08T03:00:00	7	Dirección del viento	0
57479	7	Sololá	701	Sololá	1	Sololá	11	Noviembre	2023-07-11T00:00:00	2024-11-08T03:00:00	1	Precipitación	0
57480	7	Sololá	701	Sololá	1	Sololá	11	Noviembre	2023-07-11T00:00:00	2024-11-08T03:00:00	8	Radiación solar	0
57481	7	Sololá	701	Sololá	1	Sololá	11	Noviembre	2023-07-11T00:00:00	2024-11-08T04:00:00	2	Temperatura media	15.3
57482	7	Sololá	701	Sololá	1	Sololá	11	Noviembre	2023-07-11T00:00:00	2024-11-08T04:00:00	4	Temperatura máxima	15.4
57483	7	Sololá	701	Sololá	1	Sololá	11	Noviembre	2023-07-11T00:00:00	2024-11-08T04:00:00	3	Temperatura mínima	15.3
57484	7	Sololá	701	Sololá	1	Sololá	11	Noviembre	2023-07-11T00:00:00	2024-11-08T04:00:00	5	Humedad	89
57485	7	Sololá	701	Sololá	1	Sololá	11	Noviembre	2023-07-11T00:00:00	2024-11-08T04:00:00	6	Velocidad del viento	0
57486	7	Sololá	701	Sololá	1	Sololá	11	Noviembre	2023-07-11T00:00:00	2024-11-08T04:00:00	7	Dirección del viento	0
57487	7	Sololá	701	Sololá	1	Sololá	11	Noviembre	2023-07-11T00:00:00	2024-11-08T04:00:00	1	Precipitación	0
57488	7	Sololá	701	Sololá	1	Sololá	11	Noviembre	2023-07-11T00:00:00	2024-11-08T04:00:00	8	Radiación solar	0
57489	7	Sololá	701	Sololá	1	Sololá	11	Noviembre	2023-07-11T00:00:00	2024-11-08T05:00:00	2	Temperatura media	15.5
57490	7	Sololá	701	Sololá	1	Sololá	11	Noviembre	2023-07-11T00:00:00	2024-11-08T05:00:00	4	Temperatura máxima	15.7
57491	7	Sololá	701	Sololá	1	Sololá	11	Noviembre	2023-07-11T00:00:00	2024-11-08T05:00:00	3	Temperatura mínima	15.3
57492	7	Sololá	701	Sololá	1	Sololá	11	Noviembre	2023-07-11T00:00:00	2024-11-08T05:00:00	5	Humedad	89
57493	7	Sololá	701	Sololá	1	Sololá	11	Noviembre	2023-07-11T00:00:00	2024-11-08T05:00:00	6	Velocidad del viento	0
57494	7	Sololá	701	Sololá	1	Sololá	11	Noviembre	2023-07-11T00:00:00	2024-11-08T05:00:00	7	Dirección del viento	0
57495	7	Sololá	701	Sololá	1	Sololá	11	Noviembre	2023-07-11T00:00:00	2024-11-08T05:00:00	1	Precipitación	0
57496	7	Sololá	701	Sololá	1	Sololá	11	Noviembre	2023-07-11T00:00:00	2024-11-08T05:00:00	8	Radiación solar	0
57497	7	Sololá	701	Sololá	1	Sololá	11	Noviembre	2023-07-11T00:00:00	2024-11-08T06:00:00	2	Temperatura media	15.7
57498	7	Sololá	701	Sololá	1	Sololá	11	Noviembre	2023-07-11T00:00:00	2024-11-08T06:00:00	4	Temperatura máxima	15.7
57499	7	Sololá	701	Sololá	1	Sololá	11	Noviembre	2023-07-11T00:00:00	2024-11-08T06:00:00	3	Temperatura mínima	15.5
57500	7	Sololá	701	Sololá	1	Sololá	11	Noviembre	2023-07-11T00:00:00	2024-11-08T06:00:00	5	Humedad	89
57501	7	Sololá	701	Sololá	1	Sololá	11	Noviembre	2023-07-11T00:00:00	2024-11-08T06:00:00	6	Velocidad del viento	0
57502	7	Sololá	701	Sololá	1	Sololá	11	Noviembre	2023-07-11T00:00:00	2024-11-08T06:00:00	7	Dirección del viento	0
57503	7	Sololá	701	Sololá	1	Sololá	11	Noviembre	2023-07-11T00:00:00	2024-11-08T06:00:00	1	Precipitación	0
57504	7	Sololá	701	Sololá	1	Sololá	11	Noviembre	2023-07-11T00:00:00	2024-11-08T06:00:00	8	Radiación solar	13
57505	7	Sololá	701	Sololá	1	Sololá	11	Noviembre	2023-07-11T00:00:00	2024-11-08T07:00:00	2	Temperatura media	17.2
57506	7	Sololá	701	Sololá	1	Sololá	11	Noviembre	2023-07-11T00:00:00	2024-11-08T07:00:00	4	Temperatura máxima	17.2
57507	7	Sololá	701	Sololá	1	Sololá	11	Noviembre	2023-07-11T00:00:00	2024-11-08T07:00:00	3	Temperatura mínima	15.7
57508	7	Sololá	701	Sololá	1	Sololá	11	Noviembre	2023-07-11T00:00:00	2024-11-08T07:00:00	5	Humedad	86
57509	7	Sololá	701	Sololá	1	Sololá	11	Noviembre	2023-07-11T00:00:00	2024-11-08T07:00:00	6	Velocidad del viento	0
57510	7	Sololá	701	Sololá	1	Sololá	11	Noviembre	2023-07-11T00:00:00	2024-11-08T07:00:00	7	Dirección del viento	0
57511	7	Sololá	701	Sololá	1	Sololá	11	Noviembre	2023-07-11T00:00:00	2024-11-08T07:00:00	1	Precipitación	0
57512	7	Sololá	701	Sololá	1	Sololá	11	Noviembre	2023-07-11T00:00:00	2024-11-08T07:00:00	8	Radiación solar	75
57513	7	Sololá	701	Sololá	1	Sololá	11	Noviembre	2023-07-11T00:00:00	2024-11-08T08:00:00	2	Temperatura media	20.6
57514	7	Sololá	701	Sololá	1	Sololá	11	Noviembre	2023-07-11T00:00:00	2024-11-08T08:00:00	4	Temperatura máxima	20.6
57515	7	Sololá	701	Sololá	1	Sololá	11	Noviembre	2023-07-11T00:00:00	2024-11-08T08:00:00	3	Temperatura mínima	17.2
57516	7	Sololá	701	Sololá	1	Sololá	11	Noviembre	2023-07-11T00:00:00	2024-11-08T08:00:00	5	Humedad	75
57517	7	Sololá	701	Sololá	1	Sololá	11	Noviembre	2023-07-11T00:00:00	2024-11-08T08:00:00	6	Velocidad del viento	0
57518	7	Sololá	701	Sololá	1	Sololá	11	Noviembre	2023-07-11T00:00:00	2024-11-08T08:00:00	7	Dirección del viento	0
57519	7	Sololá	701	Sololá	1	Sololá	11	Noviembre	2023-07-11T00:00:00	2024-11-08T08:00:00	1	Precipitación	0
57520	7	Sololá	701	Sololá	1	Sololá	11	Noviembre	2023-07-11T00:00:00	2024-11-08T08:00:00	8	Radiación solar	604
57521	7	Sololá	701	Sololá	1	Sololá	11	Noviembre	2023-07-11T00:00:00	2024-11-08T09:00:00	2	Temperatura media	22.4
57522	7	Sololá	701	Sololá	1	Sololá	11	Noviembre	2023-07-11T00:00:00	2024-11-08T09:00:00	4	Temperatura máxima	22.6
57523	7	Sololá	701	Sololá	1	Sololá	11	Noviembre	2023-07-11T00:00:00	2024-11-08T09:00:00	3	Temperatura mínima	20.6
57524	7	Sololá	701	Sololá	1	Sololá	11	Noviembre	2023-07-11T00:00:00	2024-11-08T09:00:00	5	Humedad	70
57525	7	Sololá	701	Sololá	1	Sololá	11	Noviembre	2023-07-11T00:00:00	2024-11-08T09:00:00	6	Velocidad del viento	0
57526	7	Sololá	701	Sololá	1	Sololá	11	Noviembre	2023-07-11T00:00:00	2024-11-08T09:00:00	7	Dirección del viento	0
57527	7	Sololá	701	Sololá	1	Sololá	11	Noviembre	2023-07-11T00:00:00	2024-11-08T09:00:00	1	Precipitación	0
57528	7	Sololá	701	Sololá	1	Sololá	11	Noviembre	2023-07-11T00:00:00	2024-11-08T09:00:00	8	Radiación solar	735
57529	7	Sololá	701	Sololá	1	Sololá	11	Noviembre	2023-07-11T00:00:00	2024-11-08T10:00:00	2	Temperatura media	22.9
57530	7	Sololá	701	Sololá	1	Sololá	11	Noviembre	2023-07-11T00:00:00	2024-11-08T10:00:00	4	Temperatura máxima	23.2
57531	7	Sololá	701	Sololá	1	Sololá	11	Noviembre	2023-07-11T00:00:00	2024-11-08T10:00:00	3	Temperatura mínima	21.9
57532	7	Sololá	701	Sololá	1	Sololá	11	Noviembre	2023-07-11T00:00:00	2024-11-08T10:00:00	5	Humedad	70
57533	7	Sololá	701	Sololá	1	Sololá	11	Noviembre	2023-07-11T00:00:00	2024-11-08T10:00:00	6	Velocidad del viento	0
57534	7	Sololá	701	Sololá	1	Sololá	11	Noviembre	2023-07-11T00:00:00	2024-11-08T10:00:00	7	Dirección del viento	0
57535	7	Sololá	701	Sololá	1	Sololá	11	Noviembre	2023-07-11T00:00:00	2024-11-08T10:00:00	1	Precipitación	0
57536	7	Sololá	701	Sololá	1	Sololá	11	Noviembre	2023-07-11T00:00:00	2024-11-08T10:00:00	8	Radiación solar	769
57537	7	Sololá	701	Sololá	1	Sololá	11	Noviembre	2023-07-11T00:00:00	2024-11-08T11:00:00	2	Temperatura media	24.4
57538	7	Sololá	701	Sololá	1	Sololá	11	Noviembre	2023-07-11T00:00:00	2024-11-08T11:00:00	4	Temperatura máxima	24.6
57539	7	Sololá	701	Sololá	1	Sololá	11	Noviembre	2023-07-11T00:00:00	2024-11-08T11:00:00	3	Temperatura mínima	22.7
57540	7	Sololá	701	Sololá	1	Sololá	11	Noviembre	2023-07-11T00:00:00	2024-11-08T11:00:00	5	Humedad	63
57541	7	Sololá	701	Sololá	1	Sololá	11	Noviembre	2023-07-11T00:00:00	2024-11-08T11:00:00	6	Velocidad del viento	0
57542	7	Sololá	701	Sololá	1	Sololá	11	Noviembre	2023-07-11T00:00:00	2024-11-08T11:00:00	7	Dirección del viento	0
57543	7	Sololá	701	Sololá	1	Sololá	11	Noviembre	2023-07-11T00:00:00	2024-11-08T11:00:00	1	Precipitación	0
57544	7	Sololá	701	Sololá	1	Sololá	11	Noviembre	2023-07-11T00:00:00	2024-11-08T11:00:00	8	Radiación solar	1002
57545	7	Sololá	701	Sololá	1	Sololá	11	Noviembre	2023-07-11T00:00:00	2024-11-08T12:00:00	2	Temperatura media	22.7
57546	7	Sololá	701	Sololá	1	Sololá	11	Noviembre	2023-07-11T00:00:00	2024-11-08T12:00:00	4	Temperatura máxima	24.5
57547	7	Sololá	701	Sololá	1	Sololá	11	Noviembre	2023-07-11T00:00:00	2024-11-08T12:00:00	3	Temperatura mínima	22.7
57548	7	Sololá	701	Sololá	1	Sololá	11	Noviembre	2023-07-11T00:00:00	2024-11-08T12:00:00	5	Humedad	67
57549	7	Sololá	701	Sololá	1	Sololá	11	Noviembre	2023-07-11T00:00:00	2024-11-08T12:00:00	6	Velocidad del viento	0
57550	7	Sololá	701	Sololá	1	Sololá	11	Noviembre	2023-07-11T00:00:00	2024-11-08T12:00:00	7	Dirección del viento	0
57551	7	Sololá	701	Sololá	1	Sololá	11	Noviembre	2023-07-11T00:00:00	2024-11-08T12:00:00	1	Precipitación	0
57552	7	Sololá	701	Sololá	1	Sololá	11	Noviembre	2023-07-11T00:00:00	2024-11-08T12:00:00	8	Radiación solar	541
57553	7	Sololá	701	Sololá	1	Sololá	11	Noviembre	2023-07-11T00:00:00	2024-11-08T13:00:00	2	Temperatura media	22.6
57554	7	Sololá	701	Sololá	1	Sololá	11	Noviembre	2023-07-11T00:00:00	2024-11-08T13:00:00	4	Temperatura máxima	22.7
57555	7	Sololá	701	Sololá	1	Sololá	11	Noviembre	2023-07-11T00:00:00	2024-11-08T13:00:00	3	Temperatura mínima	21.6
57556	7	Sololá	701	Sololá	1	Sololá	11	Noviembre	2023-07-11T00:00:00	2024-11-08T13:00:00	5	Humedad	71
57557	7	Sololá	701	Sololá	1	Sololá	11	Noviembre	2023-07-11T00:00:00	2024-11-08T13:00:00	6	Velocidad del viento	0
57558	7	Sololá	701	Sololá	1	Sololá	11	Noviembre	2023-07-11T00:00:00	2024-11-08T13:00:00	7	Dirección del viento	0
57559	7	Sololá	701	Sololá	1	Sololá	11	Noviembre	2023-07-11T00:00:00	2024-11-08T13:00:00	1	Precipitación	0
57560	7	Sololá	701	Sololá	1	Sololá	11	Noviembre	2023-07-11T00:00:00	2024-11-08T13:00:00	8	Radiación solar	161
57561	7	Sololá	701	Sololá	1	Sololá	11	Noviembre	2023-07-11T00:00:00	2024-11-08T14:00:00	2	Temperatura media	22.4
57562	7	Sololá	701	Sololá	1	Sololá	11	Noviembre	2023-07-11T00:00:00	2024-11-08T14:00:00	4	Temperatura máxima	23.4
57563	7	Sololá	701	Sololá	1	Sololá	11	Noviembre	2023-07-11T00:00:00	2024-11-08T14:00:00	3	Temperatura mínima	22.4
57564	7	Sololá	701	Sololá	1	Sololá	11	Noviembre	2023-07-11T00:00:00	2024-11-08T14:00:00	5	Humedad	70
57565	7	Sololá	701	Sololá	1	Sololá	11	Noviembre	2023-07-11T00:00:00	2024-11-08T14:00:00	6	Velocidad del viento	0
57566	7	Sololá	701	Sololá	1	Sololá	11	Noviembre	2023-07-11T00:00:00	2024-11-08T14:00:00	7	Dirección del viento	0
57567	7	Sololá	701	Sololá	1	Sololá	11	Noviembre	2023-07-11T00:00:00	2024-11-08T14:00:00	1	Precipitación	0
57568	7	Sololá	701	Sololá	1	Sololá	11	Noviembre	2023-07-11T00:00:00	2024-11-08T14:00:00	8	Radiación solar	153
57569	7	Sololá	701	Sololá	1	Sololá	11	Noviembre	2023-07-11T00:00:00	2024-11-08T15:00:00	2	Temperatura media	21.1
57570	7	Sololá	701	Sololá	1	Sololá	11	Noviembre	2023-07-11T00:00:00	2024-11-08T15:00:00	4	Temperatura máxima	22.5
57571	7	Sololá	701	Sololá	1	Sololá	11	Noviembre	2023-07-11T00:00:00	2024-11-08T15:00:00	3	Temperatura mínima	21
57572	7	Sololá	701	Sololá	1	Sololá	11	Noviembre	2023-07-11T00:00:00	2024-11-08T15:00:00	5	Humedad	73
57573	7	Sololá	701	Sololá	1	Sololá	11	Noviembre	2023-07-11T00:00:00	2024-11-08T15:00:00	6	Velocidad del viento	0
57574	7	Sololá	701	Sololá	1	Sololá	11	Noviembre	2023-07-11T00:00:00	2024-11-08T15:00:00	7	Dirección del viento	0
57575	7	Sololá	701	Sololá	1	Sololá	11	Noviembre	2023-07-11T00:00:00	2024-11-08T15:00:00	1	Precipitación	0
57576	7	Sololá	701	Sololá	1	Sololá	11	Noviembre	2023-07-11T00:00:00	2024-11-08T15:00:00	8	Radiación solar	93
57577	7	Sololá	701	Sololá	1	Sololá	11	Noviembre	2023-07-11T00:00:00	2024-11-08T16:00:00	2	Temperatura media	20.9
57578	7	Sololá	701	Sololá	1	Sololá	11	Noviembre	2023-07-11T00:00:00	2024-11-08T16:00:00	4	Temperatura máxima	21.3
57579	7	Sololá	701	Sololá	1	Sololá	11	Noviembre	2023-07-11T00:00:00	2024-11-08T16:00:00	3	Temperatura mínima	20.9
57580	7	Sololá	701	Sololá	1	Sololá	11	Noviembre	2023-07-11T00:00:00	2024-11-08T16:00:00	5	Humedad	72
57581	7	Sololá	701	Sololá	1	Sololá	11	Noviembre	2023-07-11T00:00:00	2024-11-08T16:00:00	6	Velocidad del viento	0
57582	7	Sololá	701	Sololá	1	Sololá	11	Noviembre	2023-07-11T00:00:00	2024-11-08T16:00:00	7	Dirección del viento	0
57583	7	Sololá	701	Sololá	1	Sololá	11	Noviembre	2023-07-11T00:00:00	2024-11-08T16:00:00	1	Precipitación	0
57584	7	Sololá	701	Sololá	1	Sololá	11	Noviembre	2023-07-11T00:00:00	2024-11-08T16:00:00	8	Radiación solar	47
57585	7	Sololá	701	Sololá	1	Sololá	11	Noviembre	2023-07-11T00:00:00	2024-11-08T17:00:00	2	Temperatura media	18.1
57586	7	Sololá	701	Sololá	1	Sololá	11	Noviembre	2023-07-11T00:00:00	2024-11-08T17:00:00	4	Temperatura máxima	20.9
57587	7	Sololá	701	Sololá	1	Sololá	11	Noviembre	2023-07-11T00:00:00	2024-11-08T17:00:00	3	Temperatura mínima	18.1
57588	7	Sololá	701	Sololá	1	Sololá	11	Noviembre	2023-07-11T00:00:00	2024-11-08T17:00:00	5	Humedad	79
57589	7	Sololá	701	Sololá	1	Sololá	11	Noviembre	2023-07-11T00:00:00	2024-11-08T17:00:00	6	Velocidad del viento	0
57590	7	Sololá	701	Sololá	1	Sololá	11	Noviembre	2023-07-11T00:00:00	2024-11-08T17:00:00	7	Dirección del viento	0
57591	7	Sololá	701	Sololá	1	Sololá	11	Noviembre	2023-07-11T00:00:00	2024-11-08T17:00:00	1	Precipitación	0
57592	7	Sololá	701	Sololá	1	Sololá	11	Noviembre	2023-07-11T00:00:00	2024-11-08T17:00:00	8	Radiación solar	9
57593	7	Sololá	701	Sololá	1	Sololá	11	Noviembre	2023-07-11T00:00:00	2024-11-08T18:00:00	2	Temperatura media	17
57594	7	Sololá	701	Sololá	1	Sololá	11	Noviembre	2023-07-11T00:00:00	2024-11-08T18:00:00	4	Temperatura máxima	18.1
57595	7	Sololá	701	Sololá	1	Sololá	11	Noviembre	2023-07-11T00:00:00	2024-11-08T18:00:00	3	Temperatura mínima	17
57596	7	Sololá	701	Sololá	1	Sololá	11	Noviembre	2023-07-11T00:00:00	2024-11-08T18:00:00	5	Humedad	82
57597	7	Sololá	701	Sololá	1	Sololá	11	Noviembre	2023-07-11T00:00:00	2024-11-08T18:00:00	6	Velocidad del viento	0
57598	7	Sololá	701	Sololá	1	Sololá	11	Noviembre	2023-07-11T00:00:00	2024-11-08T18:00:00	7	Dirección del viento	0
57599	7	Sololá	701	Sololá	1	Sololá	11	Noviembre	2023-07-11T00:00:00	2024-11-08T18:00:00	1	Precipitación	0
57600	7	Sololá	701	Sololá	1	Sololá	11	Noviembre	2023-07-11T00:00:00	2024-11-08T18:00:00	8	Radiación solar	0
57601	7	Sololá	701	Sololá	1	Sololá	11	Noviembre	2023-07-11T00:00:00	2024-11-08T19:00:00	2	Temperatura media	16.8
57602	7	Sololá	701	Sololá	1	Sololá	11	Noviembre	2023-07-11T00:00:00	2024-11-08T19:00:00	4	Temperatura máxima	17
57603	7	Sololá	701	Sololá	1	Sololá	11	Noviembre	2023-07-11T00:00:00	2024-11-08T19:00:00	3	Temperatura mínima	16.7
57604	7	Sololá	701	Sololá	1	Sololá	11	Noviembre	2023-07-11T00:00:00	2024-11-08T19:00:00	5	Humedad	84
57605	7	Sololá	701	Sololá	1	Sololá	11	Noviembre	2023-07-11T00:00:00	2024-11-08T19:00:00	6	Velocidad del viento	0
57606	7	Sololá	701	Sololá	1	Sololá	11	Noviembre	2023-07-11T00:00:00	2024-11-08T19:00:00	7	Dirección del viento	0
57607	7	Sololá	701	Sololá	1	Sololá	11	Noviembre	2023-07-11T00:00:00	2024-11-08T19:00:00	1	Precipitación	0
57608	7	Sololá	701	Sololá	1	Sololá	11	Noviembre	2023-07-11T00:00:00	2024-11-08T19:00:00	8	Radiación solar	0
57609	7	Sololá	701	Sololá	1	Sololá	11	Noviembre	2023-07-11T00:00:00	2024-11-08T20:00:00	2	Temperatura media	16.7
57610	7	Sololá	701	Sololá	1	Sololá	11	Noviembre	2023-07-11T00:00:00	2024-11-08T20:00:00	4	Temperatura máxima	16.8
57611	7	Sololá	701	Sololá	1	Sololá	11	Noviembre	2023-07-11T00:00:00	2024-11-08T20:00:00	3	Temperatura mínima	16.7
57612	7	Sololá	701	Sololá	1	Sololá	11	Noviembre	2023-07-11T00:00:00	2024-11-08T20:00:00	5	Humedad	84
57613	7	Sololá	701	Sololá	1	Sololá	11	Noviembre	2023-07-11T00:00:00	2024-11-08T20:00:00	6	Velocidad del viento	0
57614	7	Sololá	701	Sololá	1	Sololá	11	Noviembre	2023-07-11T00:00:00	2024-11-08T20:00:00	7	Dirección del viento	0
57615	7	Sololá	701	Sololá	1	Sololá	11	Noviembre	2023-07-11T00:00:00	2024-11-08T20:00:00	1	Precipitación	0
57616	7	Sololá	701	Sololá	1	Sololá	11	Noviembre	2023-07-11T00:00:00	2024-11-08T20:00:00	8	Radiación solar	0
57617	7	Sololá	701	Sololá	1	Sololá	11	Noviembre	2023-07-11T00:00:00	2024-11-08T21:00:00	2	Temperatura media	16.7
57618	7	Sololá	701	Sololá	1	Sololá	11	Noviembre	2023-07-11T00:00:00	2024-11-08T21:00:00	4	Temperatura máxima	16.7
57619	7	Sololá	701	Sololá	1	Sololá	11	Noviembre	2023-07-11T00:00:00	2024-11-08T21:00:00	3	Temperatura mínima	16.6
57620	7	Sololá	701	Sololá	1	Sololá	11	Noviembre	2023-07-11T00:00:00	2024-11-08T21:00:00	5	Humedad	85
57621	7	Sololá	701	Sololá	1	Sololá	11	Noviembre	2023-07-11T00:00:00	2024-11-08T21:00:00	6	Velocidad del viento	0
57622	7	Sololá	701	Sololá	1	Sololá	11	Noviembre	2023-07-11T00:00:00	2024-11-08T21:00:00	7	Dirección del viento	0
57623	7	Sololá	701	Sololá	1	Sololá	11	Noviembre	2023-07-11T00:00:00	2024-11-08T21:00:00	1	Precipitación	0
57624	7	Sololá	701	Sololá	1	Sololá	11	Noviembre	2023-07-11T00:00:00	2024-11-08T21:00:00	8	Radiación solar	0
57625	7	Sololá	701	Sololá	1	Sololá	11	Noviembre	2023-07-11T00:00:00	2024-11-08T22:00:00	2	Temperatura media	16.4
57626	7	Sololá	701	Sololá	1	Sololá	11	Noviembre	2023-07-11T00:00:00	2024-11-08T22:00:00	4	Temperatura máxima	16.7
57627	7	Sololá	701	Sololá	1	Sololá	11	Noviembre	2023-07-11T00:00:00	2024-11-08T22:00:00	3	Temperatura mínima	16.4
57628	7	Sololá	701	Sololá	1	Sololá	11	Noviembre	2023-07-11T00:00:00	2024-11-08T22:00:00	5	Humedad	85
57629	7	Sololá	701	Sololá	1	Sololá	11	Noviembre	2023-07-11T00:00:00	2024-11-08T22:00:00	6	Velocidad del viento	0
57630	7	Sololá	701	Sololá	1	Sololá	11	Noviembre	2023-07-11T00:00:00	2024-11-08T22:00:00	7	Dirección del viento	0
57631	7	Sololá	701	Sololá	1	Sololá	11	Noviembre	2023-07-11T00:00:00	2024-11-08T22:00:00	1	Precipitación	0
57632	7	Sololá	701	Sololá	1	Sololá	11	Noviembre	2023-07-11T00:00:00	2024-11-08T22:00:00	8	Radiación solar	0
57633	7	Sololá	701	Sololá	1	Sololá	11	Noviembre	2023-07-11T00:00:00	2024-11-08T23:00:00	2	Temperatura media	16.1
57634	7	Sololá	701	Sololá	1	Sololá	11	Noviembre	2023-07-11T00:00:00	2024-11-08T23:00:00	4	Temperatura máxima	16.4
57635	7	Sololá	701	Sololá	1	Sololá	11	Noviembre	2023-07-11T00:00:00	2024-11-08T23:00:00	3	Temperatura mínima	16.1
57636	7	Sololá	701	Sololá	1	Sololá	11	Noviembre	2023-07-11T00:00:00	2024-11-08T23:00:00	5	Humedad	86
57637	7	Sololá	701	Sololá	1	Sololá	11	Noviembre	2023-07-11T00:00:00	2024-11-08T23:00:00	6	Velocidad del viento	0
57638	7	Sololá	701	Sololá	1	Sololá	11	Noviembre	2023-07-11T00:00:00	2024-11-08T23:00:00	7	Dirección del viento	0
57639	7	Sololá	701	Sololá	1	Sololá	11	Noviembre	2023-07-11T00:00:00	2024-11-08T23:00:00	1	Precipitación	0
57640	7	Sololá	701	Sololá	1	Sololá	11	Noviembre	2023-07-11T00:00:00	2024-11-08T23:00:00	8	Radiación solar	0
57641	7	Sololá	701	Sololá	1	Sololá	11	Noviembre	2023-08-11T00:00:00	2024-11-08T00:00:00	2	Temperatura media	15.8
57642	7	Sololá	701	Sololá	1	Sololá	11	Noviembre	2023-08-11T00:00:00	2024-11-08T00:00:00	4	Temperatura máxima	16.1
57643	7	Sololá	701	Sololá	1	Sololá	11	Noviembre	2023-08-11T00:00:00	2024-11-08T00:00:00	3	Temperatura mínima	15.8
57644	7	Sololá	701	Sololá	1	Sololá	11	Noviembre	2023-08-11T00:00:00	2024-11-08T00:00:00	5	Humedad	86
57645	7	Sololá	701	Sololá	1	Sololá	11	Noviembre	2023-08-11T00:00:00	2024-11-08T00:00:00	6	Velocidad del viento	0
57646	7	Sololá	701	Sololá	1	Sololá	11	Noviembre	2023-08-11T00:00:00	2024-11-08T00:00:00	7	Dirección del viento	0
57647	7	Sololá	701	Sololá	1	Sololá	11	Noviembre	2023-08-11T00:00:00	2024-11-08T00:00:00	1	Precipitación	0
57648	7	Sololá	701	Sololá	1	Sololá	11	Noviembre	2023-08-11T00:00:00	2024-11-08T00:00:00	8	Radiación solar	0
57649	7	Sololá	701	Sololá	1	Sololá	11	Noviembre	2023-08-11T00:00:00	2024-11-08T01:00:00	2	Temperatura media	15.8
57650	7	Sololá	701	Sololá	1	Sololá	11	Noviembre	2023-08-11T00:00:00	2024-11-08T01:00:00	4	Temperatura máxima	15.9
57651	7	Sololá	701	Sololá	1	Sololá	11	Noviembre	2023-08-11T00:00:00	2024-11-08T01:00:00	3	Temperatura mínima	15.7
57652	7	Sololá	701	Sololá	1	Sololá	11	Noviembre	2023-08-11T00:00:00	2024-11-08T01:00:00	5	Humedad	85
57653	7	Sololá	701	Sololá	1	Sololá	11	Noviembre	2023-08-11T00:00:00	2024-11-08T01:00:00	6	Velocidad del viento	0
57654	7	Sololá	701	Sololá	1	Sololá	11	Noviembre	2023-08-11T00:00:00	2024-11-08T01:00:00	7	Dirección del viento	0
57655	7	Sololá	701	Sololá	1	Sololá	11	Noviembre	2023-08-11T00:00:00	2024-11-08T01:00:00	1	Precipitación	0
57656	7	Sololá	701	Sololá	1	Sololá	11	Noviembre	2023-08-11T00:00:00	2024-11-08T01:00:00	8	Radiación solar	0
57657	7	Sololá	701	Sololá	1	Sololá	11	Noviembre	2023-08-11T00:00:00	2024-11-08T02:00:00	2	Temperatura media	16.1
57658	7	Sololá	701	Sololá	1	Sololá	11	Noviembre	2023-08-11T00:00:00	2024-11-08T02:00:00	4	Temperatura máxima	16.2
57659	7	Sololá	701	Sololá	1	Sololá	11	Noviembre	2023-08-11T00:00:00	2024-11-08T02:00:00	3	Temperatura mínima	15.8
57660	7	Sololá	701	Sololá	1	Sololá	11	Noviembre	2023-08-11T00:00:00	2024-11-08T02:00:00	5	Humedad	81
57661	7	Sololá	701	Sololá	1	Sololá	11	Noviembre	2023-08-11T00:00:00	2024-11-08T02:00:00	6	Velocidad del viento	0
57662	7	Sololá	701	Sololá	1	Sololá	11	Noviembre	2023-08-11T00:00:00	2024-11-08T02:00:00	7	Dirección del viento	0
57663	7	Sololá	701	Sololá	1	Sololá	11	Noviembre	2023-08-11T00:00:00	2024-11-08T02:00:00	1	Precipitación	0
57664	7	Sololá	701	Sololá	1	Sololá	11	Noviembre	2023-08-11T00:00:00	2024-11-08T02:00:00	8	Radiación solar	0
57665	7	Sololá	701	Sololá	1	Sololá	11	Noviembre	2023-08-11T00:00:00	2024-11-08T03:00:00	2	Temperatura media	15.8
57666	7	Sololá	701	Sololá	1	Sololá	11	Noviembre	2023-08-11T00:00:00	2024-11-08T03:00:00	4	Temperatura máxima	16.1
57667	7	Sololá	701	Sololá	1	Sololá	11	Noviembre	2023-08-11T00:00:00	2024-11-08T03:00:00	3	Temperatura mínima	15.7
57668	7	Sololá	701	Sololá	1	Sololá	11	Noviembre	2023-08-11T00:00:00	2024-11-08T03:00:00	5	Humedad	82
57669	7	Sololá	701	Sololá	1	Sololá	11	Noviembre	2023-08-11T00:00:00	2024-11-08T03:00:00	6	Velocidad del viento	0
57670	7	Sololá	701	Sololá	1	Sololá	11	Noviembre	2023-08-11T00:00:00	2024-11-08T03:00:00	7	Dirección del viento	0
57671	7	Sololá	701	Sololá	1	Sololá	11	Noviembre	2023-08-11T00:00:00	2024-11-08T03:00:00	1	Precipitación	0
57672	7	Sololá	701	Sololá	1	Sololá	11	Noviembre	2023-08-11T00:00:00	2024-11-08T03:00:00	8	Radiación solar	0
57673	7	Sololá	701	Sololá	1	Sololá	11	Noviembre	2023-08-11T00:00:00	2024-11-08T04:00:00	2	Temperatura media	15.3
57674	7	Sololá	701	Sololá	1	Sololá	11	Noviembre	2023-08-11T00:00:00	2024-11-08T04:00:00	4	Temperatura máxima	15.8
57675	7	Sololá	701	Sololá	1	Sololá	11	Noviembre	2023-08-11T00:00:00	2024-11-08T04:00:00	3	Temperatura mínima	15.3
57676	7	Sololá	701	Sololá	1	Sololá	11	Noviembre	2023-08-11T00:00:00	2024-11-08T04:00:00	5	Humedad	84
57677	7	Sololá	701	Sololá	1	Sololá	11	Noviembre	2023-08-11T00:00:00	2024-11-08T04:00:00	6	Velocidad del viento	0
57678	7	Sololá	701	Sololá	1	Sololá	11	Noviembre	2023-08-11T00:00:00	2024-11-08T04:00:00	7	Dirección del viento	0
57679	7	Sololá	701	Sololá	1	Sololá	11	Noviembre	2023-08-11T00:00:00	2024-11-08T04:00:00	1	Precipitación	0
57680	7	Sololá	701	Sololá	1	Sololá	11	Noviembre	2023-08-11T00:00:00	2024-11-08T04:00:00	8	Radiación solar	0
57681	7	Sololá	701	Sololá	1	Sololá	11	Noviembre	2023-08-11T00:00:00	2024-11-08T05:00:00	2	Temperatura media	15.2
57682	7	Sololá	701	Sololá	1	Sololá	11	Noviembre	2023-08-11T00:00:00	2024-11-08T05:00:00	4	Temperatura máxima	15.3
57683	7	Sololá	701	Sololá	1	Sololá	11	Noviembre	2023-08-11T00:00:00	2024-11-08T05:00:00	3	Temperatura mínima	15.1
57684	7	Sololá	701	Sololá	1	Sololá	11	Noviembre	2023-08-11T00:00:00	2024-11-08T05:00:00	5	Humedad	83
57685	7	Sololá	701	Sololá	1	Sololá	11	Noviembre	2023-08-11T00:00:00	2024-11-08T05:00:00	6	Velocidad del viento	0
57686	7	Sololá	701	Sololá	1	Sololá	11	Noviembre	2023-08-11T00:00:00	2024-11-08T05:00:00	7	Dirección del viento	0
57687	7	Sololá	701	Sololá	1	Sololá	11	Noviembre	2023-08-11T00:00:00	2024-11-08T05:00:00	1	Precipitación	0
57688	7	Sololá	701	Sololá	1	Sololá	11	Noviembre	2023-08-11T00:00:00	2024-11-08T05:00:00	8	Radiación solar	0
57689	7	Sololá	701	Sololá	1	Sololá	11	Noviembre	2023-08-11T00:00:00	2024-11-08T06:00:00	2	Temperatura media	15.7
57690	7	Sololá	701	Sololá	1	Sololá	11	Noviembre	2023-08-11T00:00:00	2024-11-08T06:00:00	4	Temperatura máxima	15.7
57691	7	Sololá	701	Sololá	1	Sololá	11	Noviembre	2023-08-11T00:00:00	2024-11-08T06:00:00	3	Temperatura mínima	15.1
57692	7	Sololá	701	Sololá	1	Sololá	11	Noviembre	2023-08-11T00:00:00	2024-11-08T06:00:00	5	Humedad	85
57693	7	Sololá	701	Sololá	1	Sololá	11	Noviembre	2023-08-11T00:00:00	2024-11-08T06:00:00	6	Velocidad del viento	0
57694	7	Sololá	701	Sololá	1	Sololá	11	Noviembre	2023-08-11T00:00:00	2024-11-08T06:00:00	7	Dirección del viento	0
57695	7	Sololá	701	Sololá	1	Sololá	11	Noviembre	2023-08-11T00:00:00	2024-11-08T06:00:00	1	Precipitación	0
57696	7	Sololá	701	Sololá	1	Sololá	11	Noviembre	2023-08-11T00:00:00	2024-11-08T06:00:00	8	Radiación solar	24
57697	7	Sololá	701	Sololá	1	Sololá	11	Noviembre	2023-08-11T00:00:00	2024-11-08T07:00:00	2	Temperatura media	16.7
57698	7	Sololá	701	Sololá	1	Sololá	11	Noviembre	2023-08-11T00:00:00	2024-11-08T07:00:00	4	Temperatura máxima	16.7
57699	7	Sololá	701	Sololá	1	Sololá	11	Noviembre	2023-08-11T00:00:00	2024-11-08T07:00:00	3	Temperatura mínima	15.7
57700	7	Sololá	701	Sololá	1	Sololá	11	Noviembre	2023-08-11T00:00:00	2024-11-08T07:00:00	5	Humedad	84
57701	7	Sololá	701	Sololá	1	Sololá	11	Noviembre	2023-08-11T00:00:00	2024-11-08T07:00:00	6	Velocidad del viento	0
57702	7	Sololá	701	Sololá	1	Sololá	11	Noviembre	2023-08-11T00:00:00	2024-11-08T07:00:00	7	Dirección del viento	0
57703	7	Sololá	701	Sololá	1	Sololá	11	Noviembre	2023-08-11T00:00:00	2024-11-08T07:00:00	1	Precipitación	0
57704	7	Sololá	701	Sololá	1	Sololá	11	Noviembre	2023-08-11T00:00:00	2024-11-08T07:00:00	8	Radiación solar	82
57705	7	Sololá	701	Sololá	1	Sololá	11	Noviembre	2023-08-11T00:00:00	2024-11-08T08:00:00	2	Temperatura media	19.2
57706	7	Sololá	701	Sololá	1	Sololá	11	Noviembre	2023-08-11T00:00:00	2024-11-08T08:00:00	4	Temperatura máxima	19.4
57707	7	Sololá	701	Sololá	1	Sololá	11	Noviembre	2023-08-11T00:00:00	2024-11-08T08:00:00	3	Temperatura mínima	16.7
57708	7	Sololá	701	Sololá	1	Sololá	11	Noviembre	2023-08-11T00:00:00	2024-11-08T08:00:00	5	Humedad	76
57709	7	Sololá	701	Sololá	1	Sololá	11	Noviembre	2023-08-11T00:00:00	2024-11-08T08:00:00	6	Velocidad del viento	0
57710	7	Sololá	701	Sololá	1	Sololá	11	Noviembre	2023-08-11T00:00:00	2024-11-08T08:00:00	7	Dirección del viento	0
57711	7	Sololá	701	Sololá	1	Sololá	11	Noviembre	2023-08-11T00:00:00	2024-11-08T08:00:00	1	Precipitación	0
57712	7	Sololá	701	Sololá	1	Sololá	11	Noviembre	2023-08-11T00:00:00	2024-11-08T08:00:00	8	Radiación solar	249
57713	7	Sololá	701	Sololá	1	Sololá	11	Noviembre	2023-08-11T00:00:00	2024-11-08T09:00:00	2	Temperatura media	22.8
57714	7	Sololá	701	Sololá	1	Sololá	11	Noviembre	2023-08-11T00:00:00	2024-11-08T09:00:00	4	Temperatura máxima	22.8
57715	7	Sololá	701	Sololá	1	Sololá	11	Noviembre	2023-08-11T00:00:00	2024-11-08T09:00:00	3	Temperatura mínima	19.2
57716	7	Sololá	701	Sololá	1	Sololá	11	Noviembre	2023-08-11T00:00:00	2024-11-08T09:00:00	5	Humedad	66
57717	7	Sololá	701	Sololá	1	Sololá	11	Noviembre	2023-08-11T00:00:00	2024-11-08T09:00:00	6	Velocidad del viento	0
57718	7	Sololá	701	Sololá	1	Sololá	11	Noviembre	2023-08-11T00:00:00	2024-11-08T09:00:00	7	Dirección del viento	0
57719	7	Sololá	701	Sololá	1	Sololá	11	Noviembre	2023-08-11T00:00:00	2024-11-08T09:00:00	1	Precipitación	0
57720	7	Sololá	701	Sololá	1	Sololá	11	Noviembre	2023-08-11T00:00:00	2024-11-08T09:00:00	8	Radiación solar	677
57721	7	Sololá	701	Sololá	1	Sololá	11	Noviembre	2023-08-11T00:00:00	2024-11-08T10:00:00	2	Temperatura media	23.1
57722	7	Sololá	701	Sololá	1	Sololá	11	Noviembre	2023-08-11T00:00:00	2024-11-08T10:00:00	4	Temperatura máxima	23.7
57723	7	Sololá	701	Sololá	1	Sololá	11	Noviembre	2023-08-11T00:00:00	2024-11-08T10:00:00	3	Temperatura mínima	22.8
57724	7	Sololá	701	Sololá	1	Sololá	11	Noviembre	2023-08-11T00:00:00	2024-11-08T10:00:00	5	Humedad	66
57725	7	Sololá	701	Sololá	1	Sololá	11	Noviembre	2023-08-11T00:00:00	2024-11-08T10:00:00	6	Velocidad del viento	0
57726	7	Sololá	701	Sololá	1	Sololá	11	Noviembre	2023-08-11T00:00:00	2024-11-08T10:00:00	7	Dirección del viento	0
57727	7	Sololá	701	Sololá	1	Sololá	11	Noviembre	2023-08-11T00:00:00	2024-11-08T10:00:00	1	Precipitación	0
57728	7	Sololá	701	Sololá	1	Sololá	11	Noviembre	2023-08-11T00:00:00	2024-11-08T10:00:00	8	Radiación solar	671
57729	7	Sololá	701	Sololá	1	Sololá	11	Noviembre	2023-08-11T00:00:00	2024-11-08T11:00:00	2	Temperatura media	24.2
57730	7	Sololá	701	Sololá	1	Sololá	11	Noviembre	2023-08-11T00:00:00	2024-11-08T11:00:00	4	Temperatura máxima	24.9
57731	7	Sololá	701	Sololá	1	Sololá	11	Noviembre	2023-08-11T00:00:00	2024-11-08T11:00:00	3	Temperatura mínima	23.1
57732	7	Sololá	701	Sololá	1	Sololá	11	Noviembre	2023-08-11T00:00:00	2024-11-08T11:00:00	5	Humedad	63
57733	7	Sololá	701	Sololá	1	Sololá	11	Noviembre	2023-08-11T00:00:00	2024-11-08T11:00:00	6	Velocidad del viento	0
57734	7	Sololá	701	Sololá	1	Sololá	11	Noviembre	2023-08-11T00:00:00	2024-11-08T11:00:00	7	Dirección del viento	0
57735	7	Sololá	701	Sololá	1	Sololá	11	Noviembre	2023-08-11T00:00:00	2024-11-08T11:00:00	1	Precipitación	0
57736	7	Sololá	701	Sololá	1	Sololá	11	Noviembre	2023-08-11T00:00:00	2024-11-08T11:00:00	8	Radiación solar	767
57737	7	Sololá	701	Sololá	1	Sololá	11	Noviembre	2023-08-11T00:00:00	2024-11-08T12:00:00	2	Temperatura media	23.4
57738	7	Sololá	701	Sololá	1	Sololá	11	Noviembre	2023-08-11T00:00:00	2024-11-08T12:00:00	4	Temperatura máxima	24.2
57739	7	Sololá	701	Sololá	1	Sololá	11	Noviembre	2023-08-11T00:00:00	2024-11-08T12:00:00	3	Temperatura mínima	23.3
57740	7	Sololá	701	Sololá	1	Sololá	11	Noviembre	2023-08-11T00:00:00	2024-11-08T12:00:00	5	Humedad	64
57741	7	Sololá	701	Sololá	1	Sololá	11	Noviembre	2023-08-11T00:00:00	2024-11-08T12:00:00	6	Velocidad del viento	0
57742	7	Sololá	701	Sololá	1	Sololá	11	Noviembre	2023-08-11T00:00:00	2024-11-08T12:00:00	7	Dirección del viento	0
57743	7	Sololá	701	Sololá	1	Sololá	11	Noviembre	2023-08-11T00:00:00	2024-11-08T12:00:00	1	Precipitación	0
57744	7	Sololá	701	Sololá	1	Sololá	11	Noviembre	2023-08-11T00:00:00	2024-11-08T12:00:00	8	Radiación solar	345
57745	7	Sololá	701	Sololá	1	Sololá	11	Noviembre	2023-08-11T00:00:00	2024-11-08T13:00:00	2	Temperatura media	23.1
57746	7	Sololá	701	Sololá	1	Sololá	11	Noviembre	2023-08-11T00:00:00	2024-11-08T13:00:00	4	Temperatura máxima	23.4
57747	7	Sololá	701	Sololá	1	Sololá	11	Noviembre	2023-08-11T00:00:00	2024-11-08T13:00:00	3	Temperatura mínima	22.8
57748	7	Sololá	701	Sololá	1	Sololá	11	Noviembre	2023-08-11T00:00:00	2024-11-08T13:00:00	5	Humedad	66
57749	7	Sololá	701	Sololá	1	Sololá	11	Noviembre	2023-08-11T00:00:00	2024-11-08T13:00:00	6	Velocidad del viento	0
57750	7	Sololá	701	Sololá	1	Sololá	11	Noviembre	2023-08-11T00:00:00	2024-11-08T13:00:00	7	Dirección del viento	0
57751	7	Sololá	701	Sololá	1	Sololá	11	Noviembre	2023-08-11T00:00:00	2024-11-08T13:00:00	1	Precipitación	0
57752	7	Sololá	701	Sololá	1	Sololá	11	Noviembre	2023-08-11T00:00:00	2024-11-08T13:00:00	8	Radiación solar	201
57753	7	Sololá	701	Sololá	1	Sololá	11	Noviembre	2023-08-11T00:00:00	2024-11-08T14:00:00	2	Temperatura media	21.6
57754	7	Sololá	701	Sololá	1	Sololá	11	Noviembre	2023-08-11T00:00:00	2024-11-08T14:00:00	4	Temperatura máxima	23.2
57755	7	Sololá	701	Sololá	1	Sololá	11	Noviembre	2023-08-11T00:00:00	2024-11-08T14:00:00	3	Temperatura mínima	21.6
57756	7	Sololá	701	Sololá	1	Sololá	11	Noviembre	2023-08-11T00:00:00	2024-11-08T14:00:00	5	Humedad	74
57757	7	Sololá	701	Sololá	1	Sololá	11	Noviembre	2023-08-11T00:00:00	2024-11-08T14:00:00	6	Velocidad del viento	0
57758	7	Sololá	701	Sololá	1	Sololá	11	Noviembre	2023-08-11T00:00:00	2024-11-08T14:00:00	7	Dirección del viento	0
57759	7	Sololá	701	Sololá	1	Sololá	11	Noviembre	2023-08-11T00:00:00	2024-11-08T14:00:00	1	Precipitación	0
57760	7	Sololá	701	Sololá	1	Sololá	11	Noviembre	2023-08-11T00:00:00	2024-11-08T14:00:00	8	Radiación solar	152
57761	7	Sololá	701	Sololá	1	Sololá	11	Noviembre	2023-08-11T00:00:00	2024-11-08T15:00:00	2	Temperatura media	21.2
57762	7	Sololá	701	Sololá	1	Sololá	11	Noviembre	2023-08-11T00:00:00	2024-11-08T15:00:00	4	Temperatura máxima	21.6
57763	7	Sololá	701	Sololá	1	Sololá	11	Noviembre	2023-08-11T00:00:00	2024-11-08T15:00:00	3	Temperatura mínima	21.1
57764	7	Sololá	701	Sololá	1	Sololá	11	Noviembre	2023-08-11T00:00:00	2024-11-08T15:00:00	5	Humedad	74
57765	7	Sololá	701	Sololá	1	Sololá	11	Noviembre	2023-08-11T00:00:00	2024-11-08T15:00:00	6	Velocidad del viento	0
57766	7	Sololá	701	Sololá	1	Sololá	11	Noviembre	2023-08-11T00:00:00	2024-11-08T15:00:00	7	Dirección del viento	0
57767	7	Sololá	701	Sololá	1	Sololá	11	Noviembre	2023-08-11T00:00:00	2024-11-08T15:00:00	1	Precipitación	0
57768	7	Sololá	701	Sololá	1	Sololá	11	Noviembre	2023-08-11T00:00:00	2024-11-08T15:00:00	8	Radiación solar	82
57769	7	Sololá	701	Sololá	1	Sololá	11	Noviembre	2023-08-11T00:00:00	2024-11-08T16:00:00	2	Temperatura media	19.9
57770	7	Sololá	701	Sololá	1	Sololá	11	Noviembre	2023-08-11T00:00:00	2024-11-08T16:00:00	4	Temperatura máxima	21.2
57771	7	Sololá	701	Sololá	1	Sololá	11	Noviembre	2023-08-11T00:00:00	2024-11-08T16:00:00	3	Temperatura mínima	19.8
57772	7	Sololá	701	Sololá	1	Sololá	11	Noviembre	2023-08-11T00:00:00	2024-11-08T16:00:00	5	Humedad	77
57773	7	Sololá	701	Sololá	1	Sololá	11	Noviembre	2023-08-11T00:00:00	2024-11-08T16:00:00	6	Velocidad del viento	0
57774	7	Sololá	701	Sololá	1	Sololá	11	Noviembre	2023-08-11T00:00:00	2024-11-08T16:00:00	7	Dirección del viento	0
57775	7	Sololá	701	Sololá	1	Sololá	11	Noviembre	2023-08-11T00:00:00	2024-11-08T16:00:00	1	Precipitación	0
57776	7	Sololá	701	Sololá	1	Sololá	11	Noviembre	2023-08-11T00:00:00	2024-11-08T16:00:00	8	Radiación solar	41
57777	7	Sololá	701	Sololá	1	Sololá	11	Noviembre	2023-08-11T00:00:00	2024-11-08T17:00:00	2	Temperatura media	18.3
57778	7	Sololá	701	Sololá	1	Sololá	11	Noviembre	2023-08-11T00:00:00	2024-11-08T17:00:00	4	Temperatura máxima	19.9
57779	7	Sololá	701	Sololá	1	Sololá	11	Noviembre	2023-08-11T00:00:00	2024-11-08T17:00:00	3	Temperatura mínima	18.3
57780	7	Sololá	701	Sololá	1	Sololá	11	Noviembre	2023-08-11T00:00:00	2024-11-08T17:00:00	5	Humedad	82
57781	7	Sololá	701	Sololá	1	Sololá	11	Noviembre	2023-08-11T00:00:00	2024-11-08T17:00:00	6	Velocidad del viento	0
57782	7	Sololá	701	Sololá	1	Sololá	11	Noviembre	2023-08-11T00:00:00	2024-11-08T17:00:00	7	Dirección del viento	0
57783	7	Sololá	701	Sololá	1	Sololá	11	Noviembre	2023-08-11T00:00:00	2024-11-08T17:00:00	1	Precipitación	0
57784	7	Sololá	701	Sololá	1	Sololá	11	Noviembre	2023-08-11T00:00:00	2024-11-08T17:00:00	8	Radiación solar	7
57785	7	Sololá	701	Sololá	1	Sololá	11	Noviembre	2023-08-11T00:00:00	2024-11-08T18:00:00	2	Temperatura media	17
57786	7	Sololá	701	Sololá	1	Sololá	11	Noviembre	2023-08-11T00:00:00	2024-11-08T18:00:00	4	Temperatura máxima	18.3
57787	7	Sololá	701	Sololá	1	Sololá	11	Noviembre	2023-08-11T00:00:00	2024-11-08T18:00:00	3	Temperatura mínima	17
57788	7	Sololá	701	Sololá	1	Sololá	11	Noviembre	2023-08-11T00:00:00	2024-11-08T18:00:00	5	Humedad	86
57789	7	Sololá	701	Sololá	1	Sololá	11	Noviembre	2023-08-11T00:00:00	2024-11-08T18:00:00	6	Velocidad del viento	0
57790	7	Sololá	701	Sololá	1	Sololá	11	Noviembre	2023-08-11T00:00:00	2024-11-08T18:00:00	7	Dirección del viento	0
57791	7	Sololá	701	Sololá	1	Sololá	11	Noviembre	2023-08-11T00:00:00	2024-11-08T18:00:00	1	Precipitación	0
57792	7	Sololá	701	Sololá	1	Sololá	11	Noviembre	2023-08-11T00:00:00	2024-11-08T18:00:00	8	Radiación solar	0
57793	7	Sololá	701	Sololá	1	Sololá	11	Noviembre	2023-08-11T00:00:00	2024-11-08T19:00:00	2	Temperatura media	16.9
57794	7	Sololá	701	Sololá	1	Sololá	11	Noviembre	2023-08-11T00:00:00	2024-11-08T19:00:00	4	Temperatura máxima	17
57795	7	Sololá	701	Sololá	1	Sololá	11	Noviembre	2023-08-11T00:00:00	2024-11-08T19:00:00	3	Temperatura mínima	16.8
57796	7	Sololá	701	Sololá	1	Sololá	11	Noviembre	2023-08-11T00:00:00	2024-11-08T19:00:00	5	Humedad	86
57797	7	Sololá	701	Sololá	1	Sololá	11	Noviembre	2023-08-11T00:00:00	2024-11-08T19:00:00	6	Velocidad del viento	0
57798	7	Sololá	701	Sololá	1	Sololá	11	Noviembre	2023-08-11T00:00:00	2024-11-08T19:00:00	7	Dirección del viento	0
57799	7	Sololá	701	Sololá	1	Sololá	11	Noviembre	2023-08-11T00:00:00	2024-11-08T19:00:00	1	Precipitación	0
57800	7	Sololá	701	Sololá	1	Sololá	11	Noviembre	2023-08-11T00:00:00	2024-11-08T19:00:00	8	Radiación solar	0
57801	7	Sololá	701	Sololá	1	Sololá	11	Noviembre	2023-08-11T00:00:00	2024-11-08T20:00:00	2	Temperatura media	16.1
57802	7	Sololá	701	Sololá	1	Sololá	11	Noviembre	2023-08-11T00:00:00	2024-11-08T20:00:00	4	Temperatura máxima	16.9
57803	7	Sololá	701	Sololá	1	Sololá	11	Noviembre	2023-08-11T00:00:00	2024-11-08T20:00:00	3	Temperatura mínima	16.1
57804	7	Sololá	701	Sololá	1	Sololá	11	Noviembre	2023-08-11T00:00:00	2024-11-08T20:00:00	5	Humedad	87
57805	7	Sololá	701	Sololá	1	Sololá	11	Noviembre	2023-08-11T00:00:00	2024-11-08T20:00:00	6	Velocidad del viento	0
57806	7	Sololá	701	Sololá	1	Sololá	11	Noviembre	2023-08-11T00:00:00	2024-11-08T20:00:00	7	Dirección del viento	0
57807	7	Sololá	701	Sololá	1	Sololá	11	Noviembre	2023-08-11T00:00:00	2024-11-08T20:00:00	1	Precipitación	0
57808	7	Sololá	701	Sololá	1	Sololá	11	Noviembre	2023-08-11T00:00:00	2024-11-08T20:00:00	8	Radiación solar	0
57809	7	Sololá	701	Sololá	1	Sololá	11	Noviembre	2023-08-11T00:00:00	2024-11-08T21:00:00	2	Temperatura media	16.7
57810	7	Sololá	701	Sololá	1	Sololá	11	Noviembre	2023-08-11T00:00:00	2024-11-08T21:00:00	4	Temperatura máxima	16.7
57811	7	Sololá	701	Sololá	1	Sololá	11	Noviembre	2023-08-11T00:00:00	2024-11-08T21:00:00	3	Temperatura mínima	16.1
57812	7	Sololá	701	Sololá	1	Sololá	11	Noviembre	2023-08-11T00:00:00	2024-11-08T21:00:00	5	Humedad	88
57813	7	Sololá	701	Sololá	1	Sololá	11	Noviembre	2023-08-11T00:00:00	2024-11-08T21:00:00	6	Velocidad del viento	0
57814	7	Sololá	701	Sololá	1	Sololá	11	Noviembre	2023-08-11T00:00:00	2024-11-08T21:00:00	7	Dirección del viento	0
57815	7	Sololá	701	Sololá	1	Sololá	11	Noviembre	2023-08-11T00:00:00	2024-11-08T21:00:00	1	Precipitación	0
57816	7	Sololá	701	Sololá	1	Sololá	11	Noviembre	2023-08-11T00:00:00	2024-11-08T21:00:00	8	Radiación solar	0
57817	7	Sololá	701	Sololá	1	Sololá	11	Noviembre	2023-08-11T00:00:00	2024-11-08T22:00:00	2	Temperatura media	16.2
57818	7	Sololá	701	Sololá	1	Sololá	11	Noviembre	2023-08-11T00:00:00	2024-11-08T22:00:00	4	Temperatura máxima	16.7
57819	7	Sololá	701	Sololá	1	Sololá	11	Noviembre	2023-08-11T00:00:00	2024-11-08T22:00:00	3	Temperatura mínima	16.2
57820	7	Sololá	701	Sololá	1	Sololá	11	Noviembre	2023-08-11T00:00:00	2024-11-08T22:00:00	5	Humedad	88
57821	7	Sololá	701	Sololá	1	Sololá	11	Noviembre	2023-08-11T00:00:00	2024-11-08T22:00:00	6	Velocidad del viento	0
57822	7	Sololá	701	Sololá	1	Sololá	11	Noviembre	2023-08-11T00:00:00	2024-11-08T22:00:00	7	Dirección del viento	0
57823	7	Sololá	701	Sololá	1	Sololá	11	Noviembre	2023-08-11T00:00:00	2024-11-08T22:00:00	1	Precipitación	0
57824	7	Sololá	701	Sololá	1	Sololá	11	Noviembre	2023-08-11T00:00:00	2024-11-08T22:00:00	8	Radiación solar	0
57825	7	Sololá	701	Sololá	1	Sololá	11	Noviembre	2023-08-11T00:00:00	2024-11-08T23:00:00	2	Temperatura media	15.4
57826	7	Sololá	701	Sololá	1	Sololá	11	Noviembre	2023-08-11T00:00:00	2024-11-08T23:00:00	4	Temperatura máxima	16.2
57827	7	Sololá	701	Sololá	1	Sololá	11	Noviembre	2023-08-11T00:00:00	2024-11-08T23:00:00	3	Temperatura mínima	15.3
57828	7	Sololá	701	Sololá	1	Sololá	11	Noviembre	2023-08-11T00:00:00	2024-11-08T23:00:00	5	Humedad	90
57829	7	Sololá	701	Sololá	1	Sololá	11	Noviembre	2023-08-11T00:00:00	2024-11-08T23:00:00	6	Velocidad del viento	0
57830	7	Sololá	701	Sololá	1	Sololá	11	Noviembre	2023-08-11T00:00:00	2024-11-08T23:00:00	7	Dirección del viento	0
57831	7	Sololá	701	Sololá	1	Sololá	11	Noviembre	2023-08-11T00:00:00	2024-11-08T23:00:00	1	Precipitación	0
57832	7	Sololá	701	Sololá	1	Sololá	11	Noviembre	2023-08-11T00:00:00	2024-11-08T23:00:00	8	Radiación solar	0
57833	7	Sololá	701	Sololá	1	Sololá	11	Noviembre	2023-09-11T00:00:00	2024-11-08T00:00:00	2	Temperatura media	14.7
57834	7	Sololá	701	Sololá	1	Sololá	11	Noviembre	2023-09-11T00:00:00	2024-11-08T00:00:00	4	Temperatura máxima	15.4
57835	7	Sololá	701	Sololá	1	Sololá	11	Noviembre	2023-09-11T00:00:00	2024-11-08T00:00:00	3	Temperatura mínima	14.7
57836	7	Sololá	701	Sololá	1	Sololá	11	Noviembre	2023-09-11T00:00:00	2024-11-08T00:00:00	5	Humedad	88
57837	7	Sololá	701	Sololá	1	Sololá	11	Noviembre	2023-09-11T00:00:00	2024-11-08T00:00:00	6	Velocidad del viento	0
57838	7	Sololá	701	Sololá	1	Sololá	11	Noviembre	2023-09-11T00:00:00	2024-11-08T00:00:00	7	Dirección del viento	0
57839	7	Sololá	701	Sololá	1	Sololá	11	Noviembre	2023-09-11T00:00:00	2024-11-08T00:00:00	1	Precipitación	0
57840	7	Sololá	701	Sololá	1	Sololá	11	Noviembre	2023-09-11T00:00:00	2024-11-08T00:00:00	8	Radiación solar	0
57841	7	Sololá	701	Sololá	1	Sololá	11	Noviembre	2023-09-11T00:00:00	2024-11-08T01:00:00	2	Temperatura media	14.1
57842	7	Sololá	701	Sololá	1	Sololá	11	Noviembre	2023-09-11T00:00:00	2024-11-08T01:00:00	4	Temperatura máxima	14.7
57843	7	Sololá	701	Sololá	1	Sololá	11	Noviembre	2023-09-11T00:00:00	2024-11-08T01:00:00	3	Temperatura mínima	13.9
57844	7	Sololá	701	Sololá	1	Sololá	11	Noviembre	2023-09-11T00:00:00	2024-11-08T01:00:00	5	Humedad	93
57845	7	Sololá	701	Sololá	1	Sololá	11	Noviembre	2023-09-11T00:00:00	2024-11-08T01:00:00	6	Velocidad del viento	0
57846	7	Sololá	701	Sololá	1	Sololá	11	Noviembre	2023-09-11T00:00:00	2024-11-08T01:00:00	7	Dirección del viento	0
57847	7	Sololá	701	Sololá	1	Sololá	11	Noviembre	2023-09-11T00:00:00	2024-11-08T01:00:00	1	Precipitación	0
57848	7	Sololá	701	Sololá	1	Sololá	11	Noviembre	2023-09-11T00:00:00	2024-11-08T01:00:00	8	Radiación solar	0
57849	7	Sololá	701	Sololá	1	Sololá	11	Noviembre	2023-09-11T00:00:00	2024-11-08T02:00:00	2	Temperatura media	13.7
57850	7	Sololá	701	Sololá	1	Sololá	11	Noviembre	2023-09-11T00:00:00	2024-11-08T02:00:00	4	Temperatura máxima	14.1
57851	7	Sololá	701	Sololá	1	Sololá	11	Noviembre	2023-09-11T00:00:00	2024-11-08T02:00:00	3	Temperatura mínima	13.7
57852	7	Sololá	701	Sololá	1	Sololá	11	Noviembre	2023-09-11T00:00:00	2024-11-08T02:00:00	5	Humedad	91
57853	7	Sololá	701	Sololá	1	Sololá	11	Noviembre	2023-09-11T00:00:00	2024-11-08T02:00:00	6	Velocidad del viento	0
57854	7	Sololá	701	Sololá	1	Sololá	11	Noviembre	2023-09-11T00:00:00	2024-11-08T02:00:00	7	Dirección del viento	0
57855	7	Sololá	701	Sololá	1	Sololá	11	Noviembre	2023-09-11T00:00:00	2024-11-08T02:00:00	1	Precipitación	0
57856	7	Sololá	701	Sololá	1	Sololá	11	Noviembre	2023-09-11T00:00:00	2024-11-08T02:00:00	8	Radiación solar	0
57857	7	Sololá	701	Sololá	1	Sololá	11	Noviembre	2023-09-11T00:00:00	2024-11-08T03:00:00	2	Temperatura media	13.3
57858	7	Sololá	701	Sololá	1	Sololá	11	Noviembre	2023-09-11T00:00:00	2024-11-08T03:00:00	4	Temperatura máxima	13.7
57859	7	Sololá	701	Sololá	1	Sololá	11	Noviembre	2023-09-11T00:00:00	2024-11-08T03:00:00	3	Temperatura mínima	12.9
57860	7	Sololá	701	Sololá	1	Sololá	11	Noviembre	2023-09-11T00:00:00	2024-11-08T03:00:00	5	Humedad	91
57861	7	Sololá	701	Sololá	1	Sololá	11	Noviembre	2023-09-11T00:00:00	2024-11-08T03:00:00	6	Velocidad del viento	0
57862	7	Sololá	701	Sololá	1	Sololá	11	Noviembre	2023-09-11T00:00:00	2024-11-08T03:00:00	7	Dirección del viento	0
57863	7	Sololá	701	Sololá	1	Sololá	11	Noviembre	2023-09-11T00:00:00	2024-11-08T03:00:00	1	Precipitación	0
57864	7	Sololá	701	Sololá	1	Sololá	11	Noviembre	2023-09-11T00:00:00	2024-11-08T03:00:00	8	Radiación solar	0
57865	7	Sololá	701	Sololá	1	Sololá	11	Noviembre	2023-09-11T00:00:00	2024-11-08T04:00:00	2	Temperatura media	12.7
57866	7	Sololá	701	Sololá	1	Sololá	11	Noviembre	2023-09-11T00:00:00	2024-11-08T04:00:00	4	Temperatura máxima	13.4
57867	7	Sololá	701	Sololá	1	Sololá	11	Noviembre	2023-09-11T00:00:00	2024-11-08T04:00:00	3	Temperatura mínima	12.7
57868	7	Sololá	701	Sololá	1	Sololá	11	Noviembre	2023-09-11T00:00:00	2024-11-08T04:00:00	5	Humedad	86
57869	7	Sololá	701	Sololá	1	Sololá	11	Noviembre	2023-09-11T00:00:00	2024-11-08T04:00:00	6	Velocidad del viento	0
57870	7	Sololá	701	Sololá	1	Sololá	11	Noviembre	2023-09-11T00:00:00	2024-11-08T04:00:00	7	Dirección del viento	0
57871	7	Sololá	701	Sololá	1	Sololá	11	Noviembre	2023-09-11T00:00:00	2024-11-08T04:00:00	1	Precipitación	0
57872	7	Sololá	701	Sololá	1	Sololá	11	Noviembre	2023-09-11T00:00:00	2024-11-08T04:00:00	8	Radiación solar	0
57873	7	Sololá	701	Sololá	1	Sololá	11	Noviembre	2023-09-11T00:00:00	2024-11-08T05:00:00	2	Temperatura media	12.9
57874	7	Sololá	701	Sololá	1	Sololá	11	Noviembre	2023-09-11T00:00:00	2024-11-08T05:00:00	4	Temperatura máxima	12.9
57875	7	Sololá	701	Sololá	1	Sololá	11	Noviembre	2023-09-11T00:00:00	2024-11-08T05:00:00	3	Temperatura mínima	12.2
57876	7	Sololá	701	Sololá	1	Sololá	11	Noviembre	2023-09-11T00:00:00	2024-11-08T05:00:00	5	Humedad	87
57877	7	Sololá	701	Sololá	1	Sololá	11	Noviembre	2023-09-11T00:00:00	2024-11-08T05:00:00	6	Velocidad del viento	0
57878	7	Sololá	701	Sololá	1	Sololá	11	Noviembre	2023-09-11T00:00:00	2024-11-08T05:00:00	7	Dirección del viento	0
57879	7	Sololá	701	Sololá	1	Sololá	11	Noviembre	2023-09-11T00:00:00	2024-11-08T05:00:00	1	Precipitación	0
57880	7	Sololá	701	Sololá	1	Sololá	11	Noviembre	2023-09-11T00:00:00	2024-11-08T05:00:00	8	Radiación solar	0
57881	7	Sololá	701	Sololá	1	Sololá	11	Noviembre	2023-09-11T00:00:00	2024-11-08T06:00:00	2	Temperatura media	13.5
57882	7	Sololá	701	Sololá	1	Sololá	11	Noviembre	2023-09-11T00:00:00	2024-11-08T06:00:00	4	Temperatura máxima	13.5
57883	7	Sololá	701	Sololá	1	Sololá	11	Noviembre	2023-09-11T00:00:00	2024-11-08T06:00:00	3	Temperatura mínima	12.8
57884	7	Sololá	701	Sololá	1	Sololá	11	Noviembre	2023-09-11T00:00:00	2024-11-08T06:00:00	5	Humedad	82
57885	7	Sololá	701	Sololá	1	Sololá	11	Noviembre	2023-09-11T00:00:00	2024-11-08T06:00:00	6	Velocidad del viento	0
57886	7	Sololá	701	Sololá	1	Sololá	11	Noviembre	2023-09-11T00:00:00	2024-11-08T06:00:00	7	Dirección del viento	0
57887	7	Sololá	701	Sololá	1	Sololá	11	Noviembre	2023-09-11T00:00:00	2024-11-08T06:00:00	1	Precipitación	0
57888	7	Sololá	701	Sololá	1	Sololá	11	Noviembre	2023-09-11T00:00:00	2024-11-08T06:00:00	8	Radiación solar	8
57889	7	Sololá	701	Sololá	1	Sololá	11	Noviembre	2023-09-11T00:00:00	2024-11-08T07:00:00	2	Temperatura media	15.4
57890	7	Sololá	701	Sololá	1	Sololá	11	Noviembre	2023-09-11T00:00:00	2024-11-08T07:00:00	4	Temperatura máxima	15.4
57891	7	Sololá	701	Sololá	1	Sololá	11	Noviembre	2023-09-11T00:00:00	2024-11-08T07:00:00	3	Temperatura mínima	13.5
57892	7	Sololá	701	Sololá	1	Sololá	11	Noviembre	2023-09-11T00:00:00	2024-11-08T07:00:00	5	Humedad	89
57893	7	Sololá	701	Sololá	1	Sololá	11	Noviembre	2023-09-11T00:00:00	2024-11-08T07:00:00	6	Velocidad del viento	0
57894	7	Sololá	701	Sololá	1	Sololá	11	Noviembre	2023-09-11T00:00:00	2024-11-08T07:00:00	7	Dirección del viento	0
57895	7	Sololá	701	Sololá	1	Sololá	11	Noviembre	2023-09-11T00:00:00	2024-11-08T07:00:00	1	Precipitación	0
57896	7	Sololá	701	Sololá	1	Sololá	11	Noviembre	2023-09-11T00:00:00	2024-11-08T07:00:00	8	Radiación solar	104
57897	7	Sololá	701	Sololá	1	Sololá	11	Noviembre	2023-09-11T00:00:00	2024-11-08T08:00:00	2	Temperatura media	20.1
57898	7	Sololá	701	Sololá	1	Sololá	11	Noviembre	2023-09-11T00:00:00	2024-11-08T08:00:00	4	Temperatura máxima	20.1
57899	7	Sololá	701	Sololá	1	Sololá	11	Noviembre	2023-09-11T00:00:00	2024-11-08T08:00:00	3	Temperatura mínima	15.5
57900	7	Sololá	701	Sololá	1	Sololá	11	Noviembre	2023-09-11T00:00:00	2024-11-08T08:00:00	5	Humedad	79
57901	7	Sololá	701	Sololá	1	Sololá	11	Noviembre	2023-09-11T00:00:00	2024-11-08T08:00:00	6	Velocidad del viento	0
57902	7	Sololá	701	Sololá	1	Sololá	11	Noviembre	2023-09-11T00:00:00	2024-11-08T08:00:00	7	Dirección del viento	0
57903	7	Sololá	701	Sololá	1	Sololá	11	Noviembre	2023-09-11T00:00:00	2024-11-08T08:00:00	1	Precipitación	0
57904	7	Sololá	701	Sololá	1	Sololá	11	Noviembre	2023-09-11T00:00:00	2024-11-08T08:00:00	8	Radiación solar	582
57905	7	Sololá	701	Sololá	1	Sololá	11	Noviembre	2023-09-11T00:00:00	2024-11-08T09:00:00	2	Temperatura media	21.1
57906	7	Sololá	701	Sololá	1	Sololá	11	Noviembre	2023-09-11T00:00:00	2024-11-08T09:00:00	4	Temperatura máxima	21.1
57907	7	Sololá	701	Sololá	1	Sololá	11	Noviembre	2023-09-11T00:00:00	2024-11-08T09:00:00	3	Temperatura mínima	20.1
57908	7	Sololá	701	Sololá	1	Sololá	11	Noviembre	2023-09-11T00:00:00	2024-11-08T09:00:00	5	Humedad	75
57909	7	Sololá	701	Sololá	1	Sololá	11	Noviembre	2023-09-11T00:00:00	2024-11-08T09:00:00	6	Velocidad del viento	0
57910	7	Sololá	701	Sololá	1	Sololá	11	Noviembre	2023-09-11T00:00:00	2024-11-08T09:00:00	7	Dirección del viento	0
57911	7	Sololá	701	Sololá	1	Sololá	11	Noviembre	2023-09-11T00:00:00	2024-11-08T09:00:00	1	Precipitación	0
57912	7	Sololá	701	Sololá	1	Sololá	11	Noviembre	2023-09-11T00:00:00	2024-11-08T09:00:00	8	Radiación solar	719
57913	7	Sololá	701	Sololá	1	Sololá	11	Noviembre	2023-09-11T00:00:00	2024-11-08T10:00:00	2	Temperatura media	22.2
57914	7	Sololá	701	Sololá	1	Sololá	11	Noviembre	2023-09-11T00:00:00	2024-11-08T10:00:00	4	Temperatura máxima	22.2
57915	7	Sololá	701	Sololá	1	Sololá	11	Noviembre	2023-09-11T00:00:00	2024-11-08T10:00:00	3	Temperatura mínima	20.8
57916	7	Sololá	701	Sololá	1	Sololá	11	Noviembre	2023-09-11T00:00:00	2024-11-08T10:00:00	5	Humedad	74
57917	7	Sololá	701	Sololá	1	Sololá	11	Noviembre	2023-09-11T00:00:00	2024-11-08T10:00:00	6	Velocidad del viento	0
57918	7	Sololá	701	Sololá	1	Sololá	11	Noviembre	2023-09-11T00:00:00	2024-11-08T10:00:00	7	Dirección del viento	0
57919	7	Sololá	701	Sololá	1	Sololá	11	Noviembre	2023-09-11T00:00:00	2024-11-08T10:00:00	1	Precipitación	0
57920	7	Sololá	701	Sololá	1	Sololá	11	Noviembre	2023-09-11T00:00:00	2024-11-08T10:00:00	8	Radiación solar	723
57921	7	Sololá	701	Sololá	1	Sololá	11	Noviembre	2023-09-11T00:00:00	2024-11-08T11:00:00	2	Temperatura media	23.3
57922	7	Sololá	701	Sololá	1	Sololá	11	Noviembre	2023-09-11T00:00:00	2024-11-08T11:00:00	4	Temperatura máxima	23.3
57923	7	Sololá	701	Sololá	1	Sololá	11	Noviembre	2023-09-11T00:00:00	2024-11-08T11:00:00	3	Temperatura mínima	22.2
57924	7	Sololá	701	Sololá	1	Sololá	11	Noviembre	2023-09-11T00:00:00	2024-11-08T11:00:00	5	Humedad	70
57925	7	Sololá	701	Sololá	1	Sololá	11	Noviembre	2023-09-11T00:00:00	2024-11-08T11:00:00	6	Velocidad del viento	0
57926	7	Sololá	701	Sololá	1	Sololá	11	Noviembre	2023-09-11T00:00:00	2024-11-08T11:00:00	7	Dirección del viento	0
57927	7	Sololá	701	Sololá	1	Sololá	11	Noviembre	2023-09-11T00:00:00	2024-11-08T11:00:00	1	Precipitación	0
57928	7	Sololá	701	Sololá	1	Sololá	11	Noviembre	2023-09-11T00:00:00	2024-11-08T11:00:00	8	Radiación solar	877
57929	7	Sololá	701	Sololá	1	Sololá	11	Noviembre	2023-09-11T00:00:00	2024-11-08T12:00:00	2	Temperatura media	23.3
57930	7	Sololá	701	Sololá	1	Sololá	11	Noviembre	2023-09-11T00:00:00	2024-11-08T12:00:00	4	Temperatura máxima	23.4
57931	7	Sololá	701	Sololá	1	Sololá	11	Noviembre	2023-09-11T00:00:00	2024-11-08T12:00:00	3	Temperatura mínima	23.1
57932	7	Sololá	701	Sololá	1	Sololá	11	Noviembre	2023-09-11T00:00:00	2024-11-08T12:00:00	5	Humedad	71
57933	7	Sololá	701	Sololá	1	Sololá	11	Noviembre	2023-09-11T00:00:00	2024-11-08T12:00:00	6	Velocidad del viento	0
57934	7	Sololá	701	Sololá	1	Sololá	11	Noviembre	2023-09-11T00:00:00	2024-11-08T12:00:00	7	Dirección del viento	0
57935	7	Sololá	701	Sololá	1	Sololá	11	Noviembre	2023-09-11T00:00:00	2024-11-08T12:00:00	1	Precipitación	0
57936	7	Sololá	701	Sololá	1	Sololá	11	Noviembre	2023-09-11T00:00:00	2024-11-08T12:00:00	8	Radiación solar	914
57937	7	Sololá	701	Sololá	1	Sololá	11	Noviembre	2023-09-11T00:00:00	2024-11-08T13:00:00	2	Temperatura media	23.2
57938	7	Sololá	701	Sololá	1	Sololá	11	Noviembre	2023-09-11T00:00:00	2024-11-08T13:00:00	4	Temperatura máxima	23.4
57939	7	Sololá	701	Sololá	1	Sololá	11	Noviembre	2023-09-11T00:00:00	2024-11-08T13:00:00	3	Temperatura mínima	22.9
57940	7	Sololá	701	Sololá	1	Sololá	11	Noviembre	2023-09-11T00:00:00	2024-11-08T13:00:00	5	Humedad	73
57941	7	Sololá	701	Sololá	1	Sololá	11	Noviembre	2023-09-11T00:00:00	2024-11-08T13:00:00	6	Velocidad del viento	0
57942	7	Sololá	701	Sololá	1	Sololá	11	Noviembre	2023-09-11T00:00:00	2024-11-08T13:00:00	7	Dirección del viento	0
57943	7	Sololá	701	Sololá	1	Sololá	11	Noviembre	2023-09-11T00:00:00	2024-11-08T13:00:00	1	Precipitación	0
57944	7	Sololá	701	Sololá	1	Sololá	11	Noviembre	2023-09-11T00:00:00	2024-11-08T13:00:00	8	Radiación solar	467
57945	7	Sololá	701	Sololá	1	Sololá	11	Noviembre	2023-09-11T00:00:00	2024-11-08T14:00:00	2	Temperatura media	22.9
57946	7	Sololá	701	Sololá	1	Sololá	11	Noviembre	2023-09-11T00:00:00	2024-11-08T14:00:00	4	Temperatura máxima	23.3
57947	7	Sololá	701	Sololá	1	Sololá	11	Noviembre	2023-09-11T00:00:00	2024-11-08T14:00:00	3	Temperatura mínima	22.9
57948	7	Sololá	701	Sololá	1	Sololá	11	Noviembre	2023-09-11T00:00:00	2024-11-08T14:00:00	5	Humedad	76
57949	7	Sololá	701	Sololá	1	Sololá	11	Noviembre	2023-09-11T00:00:00	2024-11-08T14:00:00	6	Velocidad del viento	0
57950	7	Sololá	701	Sololá	1	Sololá	11	Noviembre	2023-09-11T00:00:00	2024-11-08T14:00:00	7	Dirección del viento	0
57951	7	Sololá	701	Sololá	1	Sololá	11	Noviembre	2023-09-11T00:00:00	2024-11-08T14:00:00	1	Precipitación	0
57952	7	Sololá	701	Sololá	1	Sololá	11	Noviembre	2023-09-11T00:00:00	2024-11-08T14:00:00	8	Radiación solar	239
57953	7	Sololá	701	Sololá	1	Sololá	11	Noviembre	2023-09-11T00:00:00	2024-11-08T15:00:00	2	Temperatura media	20.9
57954	7	Sololá	701	Sololá	1	Sololá	11	Noviembre	2023-09-11T00:00:00	2024-11-08T15:00:00	4	Temperatura máxima	22.9
57955	7	Sololá	701	Sololá	1	Sololá	11	Noviembre	2023-09-11T00:00:00	2024-11-08T15:00:00	3	Temperatura mínima	20.9
57956	7	Sololá	701	Sololá	1	Sololá	11	Noviembre	2023-09-11T00:00:00	2024-11-08T15:00:00	5	Humedad	83
57957	7	Sololá	701	Sololá	1	Sololá	11	Noviembre	2023-09-11T00:00:00	2024-11-08T15:00:00	6	Velocidad del viento	0
57958	7	Sololá	701	Sololá	1	Sololá	11	Noviembre	2023-09-11T00:00:00	2024-11-08T15:00:00	7	Dirección del viento	0
57959	7	Sololá	701	Sololá	1	Sololá	11	Noviembre	2023-09-11T00:00:00	2024-11-08T15:00:00	1	Precipitación	0
57960	7	Sololá	701	Sololá	1	Sololá	11	Noviembre	2023-09-11T00:00:00	2024-11-08T15:00:00	8	Radiación solar	122
57961	7	Sololá	701	Sololá	1	Sololá	11	Noviembre	2023-09-11T00:00:00	2024-11-08T16:00:00	2	Temperatura media	19.1
57962	7	Sololá	701	Sololá	1	Sololá	11	Noviembre	2023-09-11T00:00:00	2024-11-08T16:00:00	4	Temperatura máxima	20.9
57963	7	Sololá	701	Sololá	1	Sololá	11	Noviembre	2023-09-11T00:00:00	2024-11-08T16:00:00	3	Temperatura mínima	19.1
57964	7	Sololá	701	Sololá	1	Sololá	11	Noviembre	2023-09-11T00:00:00	2024-11-08T16:00:00	5	Humedad	87
57965	7	Sololá	701	Sololá	1	Sololá	11	Noviembre	2023-09-11T00:00:00	2024-11-08T16:00:00	6	Velocidad del viento	0
57966	7	Sololá	701	Sololá	1	Sololá	11	Noviembre	2023-09-11T00:00:00	2024-11-08T16:00:00	7	Dirección del viento	0
57967	7	Sololá	701	Sololá	1	Sololá	11	Noviembre	2023-09-11T00:00:00	2024-11-08T16:00:00	1	Precipitación	0
57968	7	Sololá	701	Sololá	1	Sololá	11	Noviembre	2023-09-11T00:00:00	2024-11-08T16:00:00	8	Radiación solar	37
57969	7	Sololá	701	Sololá	1	Sololá	11	Noviembre	2023-09-11T00:00:00	2024-11-08T17:00:00	2	Temperatura media	17.9
57970	7	Sololá	701	Sololá	1	Sololá	11	Noviembre	2023-09-11T00:00:00	2024-11-08T17:00:00	4	Temperatura máxima	19.1
57971	7	Sololá	701	Sololá	1	Sololá	11	Noviembre	2023-09-11T00:00:00	2024-11-08T17:00:00	3	Temperatura mínima	17.9
57972	7	Sololá	701	Sololá	1	Sololá	11	Noviembre	2023-09-11T00:00:00	2024-11-08T17:00:00	5	Humedad	92
57973	7	Sololá	701	Sololá	1	Sololá	11	Noviembre	2023-09-11T00:00:00	2024-11-08T17:00:00	6	Velocidad del viento	0
57974	7	Sololá	701	Sololá	1	Sololá	11	Noviembre	2023-09-11T00:00:00	2024-11-08T17:00:00	7	Dirección del viento	0
57975	7	Sololá	701	Sololá	1	Sololá	11	Noviembre	2023-09-11T00:00:00	2024-11-08T17:00:00	1	Precipitación	0
57976	7	Sololá	701	Sololá	1	Sololá	11	Noviembre	2023-09-11T00:00:00	2024-11-08T17:00:00	8	Radiación solar	3
57977	7	Sololá	701	Sololá	1	Sololá	11	Noviembre	2023-09-11T00:00:00	2024-11-08T18:00:00	2	Temperatura media	15.4
57978	7	Sololá	701	Sololá	1	Sololá	11	Noviembre	2023-09-11T00:00:00	2024-11-08T18:00:00	4	Temperatura máxima	17.9
57979	7	Sololá	701	Sololá	1	Sololá	11	Noviembre	2023-09-11T00:00:00	2024-11-08T18:00:00	3	Temperatura mínima	15.4
57980	7	Sololá	701	Sololá	1	Sololá	11	Noviembre	2023-09-11T00:00:00	2024-11-08T18:00:00	5	Humedad	86
57981	7	Sololá	701	Sololá	1	Sololá	11	Noviembre	2023-09-11T00:00:00	2024-11-08T18:00:00	6	Velocidad del viento	0
57982	7	Sololá	701	Sololá	1	Sololá	11	Noviembre	2023-09-11T00:00:00	2024-11-08T18:00:00	7	Dirección del viento	0
57983	7	Sololá	701	Sololá	1	Sololá	11	Noviembre	2023-09-11T00:00:00	2024-11-08T18:00:00	1	Precipitación	0
57984	7	Sololá	701	Sololá	1	Sololá	11	Noviembre	2023-09-11T00:00:00	2024-11-08T18:00:00	8	Radiación solar	0
57985	7	Sololá	701	Sololá	1	Sololá	11	Noviembre	2023-09-11T00:00:00	2024-11-08T19:00:00	2	Temperatura media	14.6
57986	7	Sololá	701	Sololá	1	Sololá	11	Noviembre	2023-09-11T00:00:00	2024-11-08T19:00:00	4	Temperatura máxima	15.4
57987	7	Sololá	701	Sololá	1	Sololá	11	Noviembre	2023-09-11T00:00:00	2024-11-08T19:00:00	3	Temperatura mínima	14.6
57988	7	Sololá	701	Sololá	1	Sololá	11	Noviembre	2023-09-11T00:00:00	2024-11-08T19:00:00	5	Humedad	88
57989	7	Sololá	701	Sololá	1	Sololá	11	Noviembre	2023-09-11T00:00:00	2024-11-08T19:00:00	6	Velocidad del viento	0
57990	7	Sololá	701	Sololá	1	Sololá	11	Noviembre	2023-09-11T00:00:00	2024-11-08T19:00:00	7	Dirección del viento	0
57991	7	Sololá	701	Sololá	1	Sololá	11	Noviembre	2023-09-11T00:00:00	2024-11-08T19:00:00	1	Precipitación	0
57992	7	Sololá	701	Sololá	1	Sololá	11	Noviembre	2023-09-11T00:00:00	2024-11-08T19:00:00	8	Radiación solar	0
57993	7	Sololá	701	Sololá	1	Sololá	11	Noviembre	2023-09-11T00:00:00	2024-11-08T20:00:00	2	Temperatura media	13.9
57994	7	Sololá	701	Sololá	1	Sololá	11	Noviembre	2023-09-11T00:00:00	2024-11-08T20:00:00	4	Temperatura máxima	14.6
57995	7	Sololá	701	Sololá	1	Sololá	11	Noviembre	2023-09-11T00:00:00	2024-11-08T20:00:00	3	Temperatura mínima	13.9
57996	7	Sololá	701	Sololá	1	Sololá	11	Noviembre	2023-09-11T00:00:00	2024-11-08T20:00:00	5	Humedad	90
57997	7	Sololá	701	Sololá	1	Sololá	11	Noviembre	2023-09-11T00:00:00	2024-11-08T20:00:00	6	Velocidad del viento	0
57998	7	Sololá	701	Sololá	1	Sololá	11	Noviembre	2023-09-11T00:00:00	2024-11-08T20:00:00	7	Dirección del viento	0
57999	7	Sololá	701	Sololá	1	Sololá	11	Noviembre	2023-09-11T00:00:00	2024-11-08T20:00:00	1	Precipitación	0
58000	7	Sololá	701	Sololá	1	Sololá	11	Noviembre	2023-09-11T00:00:00	2024-11-08T20:00:00	8	Radiación solar	0
58001	7	Sololá	701	Sololá	1	Sololá	11	Noviembre	2023-09-11T00:00:00	2024-11-08T21:00:00	2	Temperatura media	13.2
58002	7	Sololá	701	Sololá	1	Sololá	11	Noviembre	2023-09-11T00:00:00	2024-11-08T21:00:00	4	Temperatura máxima	13.9
58003	7	Sololá	701	Sololá	1	Sololá	11	Noviembre	2023-09-11T00:00:00	2024-11-08T21:00:00	3	Temperatura mínima	13.2
58004	7	Sololá	701	Sololá	1	Sololá	11	Noviembre	2023-09-11T00:00:00	2024-11-08T21:00:00	5	Humedad	89
58005	7	Sololá	701	Sololá	1	Sololá	11	Noviembre	2023-09-11T00:00:00	2024-11-08T21:00:00	6	Velocidad del viento	0
58006	7	Sololá	701	Sololá	1	Sololá	11	Noviembre	2023-09-11T00:00:00	2024-11-08T21:00:00	7	Dirección del viento	0
58007	7	Sololá	701	Sololá	1	Sololá	11	Noviembre	2023-09-11T00:00:00	2024-11-08T21:00:00	1	Precipitación	0
58008	7	Sololá	701	Sololá	1	Sololá	11	Noviembre	2023-09-11T00:00:00	2024-11-08T21:00:00	8	Radiación solar	0
58009	7	Sololá	701	Sololá	1	Sololá	11	Noviembre	2023-09-11T00:00:00	2024-11-08T22:00:00	2	Temperatura media	12.6
58010	7	Sololá	701	Sololá	1	Sololá	11	Noviembre	2023-09-11T00:00:00	2024-11-08T22:00:00	4	Temperatura máxima	13.2
58011	7	Sololá	701	Sololá	1	Sololá	11	Noviembre	2023-09-11T00:00:00	2024-11-08T22:00:00	3	Temperatura mínima	12.6
58012	7	Sololá	701	Sololá	1	Sololá	11	Noviembre	2023-09-11T00:00:00	2024-11-08T22:00:00	5	Humedad	87
58013	7	Sololá	701	Sololá	1	Sololá	11	Noviembre	2023-09-11T00:00:00	2024-11-08T22:00:00	6	Velocidad del viento	1.6
58014	7	Sololá	701	Sololá	1	Sololá	11	Noviembre	2023-09-11T00:00:00	2024-11-08T22:00:00	7	Dirección del viento	1.61
58015	7	Sololá	701	Sololá	1	Sololá	11	Noviembre	2023-09-11T00:00:00	2024-11-08T22:00:00	1	Precipitación	0
58016	7	Sololá	701	Sololá	1	Sololá	11	Noviembre	2023-09-11T00:00:00	2024-11-08T22:00:00	8	Radiación solar	0
58017	7	Sololá	701	Sololá	1	Sololá	11	Noviembre	2023-09-11T00:00:00	2024-11-08T23:00:00	2	Temperatura media	12.5
58018	7	Sololá	701	Sololá	1	Sololá	11	Noviembre	2023-09-11T00:00:00	2024-11-08T23:00:00	4	Temperatura máxima	12.6
58019	7	Sololá	701	Sololá	1	Sololá	11	Noviembre	2023-09-11T00:00:00	2024-11-08T23:00:00	3	Temperatura mínima	12.4
58020	7	Sololá	701	Sololá	1	Sololá	11	Noviembre	2023-09-11T00:00:00	2024-11-08T23:00:00	5	Humedad	87
58021	7	Sololá	701	Sololá	1	Sololá	11	Noviembre	2023-09-11T00:00:00	2024-11-08T23:00:00	6	Velocidad del viento	1.6
58022	7	Sololá	701	Sololá	1	Sololá	11	Noviembre	2023-09-11T00:00:00	2024-11-08T23:00:00	7	Dirección del viento	1.61
58023	7	Sololá	701	Sololá	1	Sololá	11	Noviembre	2023-09-11T00:00:00	2024-11-08T23:00:00	1	Precipitación	0
58024	7	Sololá	701	Sololá	1	Sololá	11	Noviembre	2023-09-11T00:00:00	2024-11-08T23:00:00	8	Radiación solar	0
58025	7	Sololá	701	Sololá	1	Sololá	11	Noviembre	2023-10-11T00:00:00	2024-11-08T00:00:00	2	Temperatura media	12.1
58026	7	Sololá	701	Sololá	1	Sololá	11	Noviembre	2023-10-11T00:00:00	2024-11-08T00:00:00	4	Temperatura máxima	12.6
58027	7	Sololá	701	Sololá	1	Sololá	11	Noviembre	2023-10-11T00:00:00	2024-11-08T00:00:00	3	Temperatura mínima	12
58028	7	Sololá	701	Sololá	1	Sololá	11	Noviembre	2023-10-11T00:00:00	2024-11-08T00:00:00	5	Humedad	89
58029	7	Sololá	701	Sololá	1	Sololá	11	Noviembre	2023-10-11T00:00:00	2024-11-08T00:00:00	6	Velocidad del viento	1.6
58030	7	Sololá	701	Sololá	1	Sololá	11	Noviembre	2023-10-11T00:00:00	2024-11-08T00:00:00	7	Dirección del viento	1.61
58031	7	Sololá	701	Sololá	1	Sololá	11	Noviembre	2023-10-11T00:00:00	2024-11-08T00:00:00	1	Precipitación	0
58032	7	Sololá	701	Sololá	1	Sololá	11	Noviembre	2023-10-11T00:00:00	2024-11-08T00:00:00	8	Radiación solar	0
58033	7	Sololá	701	Sololá	1	Sololá	11	Noviembre	2023-10-11T00:00:00	2024-11-08T01:00:00	2	Temperatura media	11.3
58034	7	Sololá	701	Sololá	1	Sololá	11	Noviembre	2023-10-11T00:00:00	2024-11-08T01:00:00	4	Temperatura máxima	12.9
58035	7	Sololá	701	Sololá	1	Sololá	11	Noviembre	2023-10-11T00:00:00	2024-11-08T01:00:00	3	Temperatura mínima	11.3
58036	7	Sololá	701	Sololá	1	Sololá	11	Noviembre	2023-10-11T00:00:00	2024-11-08T01:00:00	5	Humedad	85
58037	7	Sololá	701	Sololá	1	Sololá	11	Noviembre	2023-10-11T00:00:00	2024-11-08T01:00:00	6	Velocidad del viento	4.8
58038	7	Sololá	701	Sololá	1	Sololá	11	Noviembre	2023-10-11T00:00:00	2024-11-08T01:00:00	7	Dirección del viento	4.83
58039	7	Sololá	701	Sololá	1	Sololá	11	Noviembre	2023-10-11T00:00:00	2024-11-08T01:00:00	1	Precipitación	0
58040	7	Sololá	701	Sololá	1	Sololá	11	Noviembre	2023-10-11T00:00:00	2024-11-08T01:00:00	8	Radiación solar	0
58041	7	Sololá	701	Sololá	1	Sololá	11	Noviembre	2023-10-11T00:00:00	2024-11-08T02:00:00	2	Temperatura media	10.8
58042	7	Sololá	701	Sololá	1	Sololá	11	Noviembre	2023-10-11T00:00:00	2024-11-08T02:00:00	4	Temperatura máxima	11.3
58043	7	Sololá	701	Sololá	1	Sololá	11	Noviembre	2023-10-11T00:00:00	2024-11-08T02:00:00	3	Temperatura mínima	10.7
58044	7	Sololá	701	Sololá	1	Sololá	11	Noviembre	2023-10-11T00:00:00	2024-11-08T02:00:00	5	Humedad	83
58045	7	Sololá	701	Sololá	1	Sololá	11	Noviembre	2023-10-11T00:00:00	2024-11-08T02:00:00	6	Velocidad del viento	8
58046	7	Sololá	701	Sololá	1	Sololá	11	Noviembre	2023-10-11T00:00:00	2024-11-08T02:00:00	7	Dirección del viento	8.05
58047	7	Sololá	701	Sololá	1	Sololá	11	Noviembre	2023-10-11T00:00:00	2024-11-08T02:00:00	1	Precipitación	0
58048	7	Sololá	701	Sololá	1	Sololá	11	Noviembre	2023-10-11T00:00:00	2024-11-08T02:00:00	8	Radiación solar	0
58049	7	Sololá	701	Sololá	1	Sololá	11	Noviembre	2023-10-11T00:00:00	2024-11-08T03:00:00	2	Temperatura media	10.4
58050	7	Sololá	701	Sololá	1	Sololá	11	Noviembre	2023-10-11T00:00:00	2024-11-08T03:00:00	4	Temperatura máxima	11
58051	7	Sololá	701	Sololá	1	Sololá	11	Noviembre	2023-10-11T00:00:00	2024-11-08T03:00:00	3	Temperatura mínima	10.2
58052	7	Sololá	701	Sololá	1	Sololá	11	Noviembre	2023-10-11T00:00:00	2024-11-08T03:00:00	5	Humedad	86
58053	7	Sololá	701	Sololá	1	Sololá	11	Noviembre	2023-10-11T00:00:00	2024-11-08T03:00:00	6	Velocidad del viento	8
58054	7	Sololá	701	Sololá	1	Sololá	11	Noviembre	2023-10-11T00:00:00	2024-11-08T03:00:00	7	Dirección del viento	8.05
58055	7	Sololá	701	Sololá	1	Sololá	11	Noviembre	2023-10-11T00:00:00	2024-11-08T03:00:00	1	Precipitación	0
58056	7	Sololá	701	Sololá	1	Sololá	11	Noviembre	2023-10-11T00:00:00	2024-11-08T03:00:00	8	Radiación solar	0
58057	7	Sololá	701	Sololá	1	Sololá	11	Noviembre	2023-10-11T00:00:00	2024-11-08T04:00:00	2	Temperatura media	9.5
58058	7	Sololá	701	Sololá	1	Sololá	11	Noviembre	2023-10-11T00:00:00	2024-11-08T04:00:00	4	Temperatura máxima	10.6
58059	7	Sololá	701	Sololá	1	Sololá	11	Noviembre	2023-10-11T00:00:00	2024-11-08T04:00:00	3	Temperatura mínima	9.5
58060	7	Sololá	701	Sololá	1	Sololá	11	Noviembre	2023-10-11T00:00:00	2024-11-08T04:00:00	5	Humedad	84
58061	7	Sololá	701	Sololá	1	Sololá	11	Noviembre	2023-10-11T00:00:00	2024-11-08T04:00:00	6	Velocidad del viento	8
58062	7	Sololá	701	Sololá	1	Sololá	11	Noviembre	2023-10-11T00:00:00	2024-11-08T04:00:00	7	Dirección del viento	8.05
58063	7	Sololá	701	Sololá	1	Sololá	11	Noviembre	2023-10-11T00:00:00	2024-11-08T04:00:00	1	Precipitación	0
58064	7	Sololá	701	Sololá	1	Sololá	11	Noviembre	2023-10-11T00:00:00	2024-11-08T04:00:00	8	Radiación solar	0
58065	7	Sololá	701	Sololá	1	Sololá	11	Noviembre	2023-10-11T00:00:00	2024-11-08T05:00:00	2	Temperatura media	10
58066	7	Sololá	701	Sololá	1	Sololá	11	Noviembre	2023-10-11T00:00:00	2024-11-08T05:00:00	4	Temperatura máxima	10.3
58067	7	Sololá	701	Sololá	1	Sololá	11	Noviembre	2023-10-11T00:00:00	2024-11-08T05:00:00	3	Temperatura mínima	9.1
58068	7	Sololá	701	Sololá	1	Sololá	11	Noviembre	2023-10-11T00:00:00	2024-11-08T05:00:00	5	Humedad	83
58069	7	Sololá	701	Sololá	1	Sololá	11	Noviembre	2023-10-11T00:00:00	2024-11-08T05:00:00	6	Velocidad del viento	8
58070	7	Sololá	701	Sololá	1	Sololá	11	Noviembre	2023-10-11T00:00:00	2024-11-08T05:00:00	7	Dirección del viento	8.05
58071	7	Sololá	701	Sololá	1	Sololá	11	Noviembre	2023-10-11T00:00:00	2024-11-08T05:00:00	1	Precipitación	0
58072	7	Sololá	701	Sololá	1	Sololá	11	Noviembre	2023-10-11T00:00:00	2024-11-08T05:00:00	8	Radiación solar	0
58073	7	Sololá	701	Sololá	1	Sololá	11	Noviembre	2023-10-11T00:00:00	2024-11-08T06:00:00	2	Temperatura media	12.2
58074	7	Sololá	701	Sololá	1	Sololá	11	Noviembre	2023-10-11T00:00:00	2024-11-08T06:00:00	4	Temperatura máxima	12.3
58075	7	Sololá	701	Sololá	1	Sololá	11	Noviembre	2023-10-11T00:00:00	2024-11-08T06:00:00	3	Temperatura mínima	9.5
58076	7	Sololá	701	Sololá	1	Sololá	11	Noviembre	2023-10-11T00:00:00	2024-11-08T06:00:00	5	Humedad	67
58077	7	Sololá	701	Sololá	1	Sololá	11	Noviembre	2023-10-11T00:00:00	2024-11-08T06:00:00	6	Velocidad del viento	4.8
58078	7	Sololá	701	Sololá	1	Sololá	11	Noviembre	2023-10-11T00:00:00	2024-11-08T06:00:00	7	Dirección del viento	4.83
58079	7	Sololá	701	Sololá	1	Sololá	11	Noviembre	2023-10-11T00:00:00	2024-11-08T06:00:00	1	Precipitación	0
58080	7	Sololá	701	Sololá	1	Sololá	11	Noviembre	2023-10-11T00:00:00	2024-11-08T06:00:00	8	Radiación solar	0
58081	7	Sololá	701	Sololá	1	Sololá	11	Noviembre	2023-10-11T00:00:00	2024-11-08T07:00:00	2	Temperatura media	15.1
58082	7	Sololá	701	Sololá	1	Sololá	11	Noviembre	2023-10-11T00:00:00	2024-11-08T07:00:00	4	Temperatura máxima	15.1
58083	7	Sololá	701	Sololá	1	Sololá	11	Noviembre	2023-10-11T00:00:00	2024-11-08T07:00:00	3	Temperatura mínima	11.2
58084	7	Sololá	701	Sololá	1	Sololá	11	Noviembre	2023-10-11T00:00:00	2024-11-08T07:00:00	5	Humedad	53
58085	7	Sololá	701	Sololá	1	Sololá	11	Noviembre	2023-10-11T00:00:00	2024-11-08T07:00:00	6	Velocidad del viento	6.4
58086	7	Sololá	701	Sololá	1	Sololá	11	Noviembre	2023-10-11T00:00:00	2024-11-08T07:00:00	7	Dirección del viento	6.44
58087	7	Sololá	701	Sololá	1	Sololá	11	Noviembre	2023-10-11T00:00:00	2024-11-08T07:00:00	1	Precipitación	0
58088	7	Sololá	701	Sololá	1	Sololá	11	Noviembre	2023-10-11T00:00:00	2024-11-08T07:00:00	8	Radiación solar	9
58089	7	Sololá	701	Sololá	1	Sololá	11	Noviembre	2023-10-11T00:00:00	2024-11-08T08:00:00	2	Temperatura media	19.4
58090	7	Sololá	701	Sololá	1	Sololá	11	Noviembre	2023-10-11T00:00:00	2024-11-08T08:00:00	4	Temperatura máxima	19.4
58091	7	Sololá	701	Sololá	1	Sololá	11	Noviembre	2023-10-11T00:00:00	2024-11-08T08:00:00	3	Temperatura mínima	15.2
58092	7	Sololá	701	Sololá	1	Sololá	11	Noviembre	2023-10-11T00:00:00	2024-11-08T08:00:00	5	Humedad	43
58093	7	Sololá	701	Sololá	1	Sololá	11	Noviembre	2023-10-11T00:00:00	2024-11-08T08:00:00	6	Velocidad del viento	3.2
58094	7	Sololá	701	Sololá	1	Sololá	11	Noviembre	2023-10-11T00:00:00	2024-11-08T08:00:00	7	Dirección del viento	3.22
58095	7	Sololá	701	Sololá	1	Sololá	11	Noviembre	2023-10-11T00:00:00	2024-11-08T08:00:00	1	Precipitación	0
58096	7	Sololá	701	Sololá	1	Sololá	11	Noviembre	2023-10-11T00:00:00	2024-11-08T08:00:00	8	Radiación solar	26
58097	7	Sololá	701	Sololá	1	Sololá	11	Noviembre	2023-10-11T00:00:00	2024-11-08T09:00:00	2	Temperatura media	21.2
58098	7	Sololá	701	Sololá	1	Sololá	11	Noviembre	2023-10-11T00:00:00	2024-11-08T09:00:00	4	Temperatura máxima	21.2
58099	7	Sololá	701	Sololá	1	Sololá	11	Noviembre	2023-10-11T00:00:00	2024-11-08T09:00:00	3	Temperatura mínima	19.4
58100	7	Sololá	701	Sololá	1	Sololá	11	Noviembre	2023-10-11T00:00:00	2024-11-08T09:00:00	5	Humedad	55
58101	7	Sololá	701	Sololá	1	Sololá	11	Noviembre	2023-10-11T00:00:00	2024-11-08T09:00:00	6	Velocidad del viento	3.2
58102	7	Sololá	701	Sololá	1	Sololá	11	Noviembre	2023-10-11T00:00:00	2024-11-08T09:00:00	7	Dirección del viento	3.22
58103	7	Sololá	701	Sololá	1	Sololá	11	Noviembre	2023-10-11T00:00:00	2024-11-08T09:00:00	1	Precipitación	0
58104	7	Sololá	701	Sololá	1	Sololá	11	Noviembre	2023-10-11T00:00:00	2024-11-08T09:00:00	8	Radiación solar	31
58105	7	Sololá	701	Sololá	1	Sololá	11	Noviembre	2023-10-11T00:00:00	2024-11-08T10:00:00	2	Temperatura media	21.9
58106	7	Sololá	701	Sololá	1	Sololá	11	Noviembre	2023-10-11T00:00:00	2024-11-08T10:00:00	4	Temperatura máxima	21.9
58107	7	Sololá	701	Sololá	1	Sololá	11	Noviembre	2023-10-11T00:00:00	2024-11-08T10:00:00	3	Temperatura mínima	21.2
58108	7	Sololá	701	Sololá	1	Sololá	11	Noviembre	2023-10-11T00:00:00	2024-11-08T10:00:00	5	Humedad	41
58109	7	Sololá	701	Sololá	1	Sololá	11	Noviembre	2023-10-11T00:00:00	2024-11-08T10:00:00	6	Velocidad del viento	6.4
58110	7	Sololá	701	Sololá	1	Sololá	11	Noviembre	2023-10-11T00:00:00	2024-11-08T10:00:00	7	Dirección del viento	6.44
58111	7	Sololá	701	Sololá	1	Sololá	11	Noviembre	2023-10-11T00:00:00	2024-11-08T10:00:00	1	Precipitación	0
58112	7	Sololá	701	Sololá	1	Sololá	11	Noviembre	2023-10-11T00:00:00	2024-11-08T10:00:00	8	Radiación solar	65
58113	7	Sololá	701	Sololá	1	Sololá	11	Noviembre	2023-10-11T00:00:00	2024-11-08T11:00:00	2	Temperatura media	21.9
58114	7	Sololá	701	Sololá	1	Sololá	11	Noviembre	2023-10-11T00:00:00	2024-11-08T11:00:00	4	Temperatura máxima	22.7
58115	7	Sololá	701	Sololá	1	Sololá	11	Noviembre	2023-10-11T00:00:00	2024-11-08T11:00:00	3	Temperatura mínima	21.9
58116	7	Sololá	701	Sololá	1	Sololá	11	Noviembre	2023-10-11T00:00:00	2024-11-08T11:00:00	5	Humedad	50
58117	7	Sololá	701	Sololá	1	Sololá	11	Noviembre	2023-10-11T00:00:00	2024-11-08T11:00:00	6	Velocidad del viento	6.4
58118	7	Sololá	701	Sololá	1	Sololá	11	Noviembre	2023-10-11T00:00:00	2024-11-08T11:00:00	7	Dirección del viento	6.44
58119	7	Sololá	701	Sololá	1	Sololá	11	Noviembre	2023-10-11T00:00:00	2024-11-08T11:00:00	1	Precipitación	0
58120	7	Sololá	701	Sololá	1	Sololá	11	Noviembre	2023-10-11T00:00:00	2024-11-08T11:00:00	8	Radiación solar	54
58121	7	Sololá	701	Sololá	1	Sololá	11	Noviembre	2023-10-11T00:00:00	2024-11-08T12:00:00	2	Temperatura media	22.7
58122	7	Sololá	701	Sololá	1	Sololá	11	Noviembre	2023-10-11T00:00:00	2024-11-08T12:00:00	4	Temperatura máxima	22.7
58123	7	Sololá	701	Sololá	1	Sololá	11	Noviembre	2023-10-11T00:00:00	2024-11-08T12:00:00	3	Temperatura mínima	21.9
58124	7	Sololá	701	Sololá	1	Sololá	11	Noviembre	2023-10-11T00:00:00	2024-11-08T12:00:00	5	Humedad	54
58125	7	Sololá	701	Sololá	1	Sololá	11	Noviembre	2023-10-11T00:00:00	2024-11-08T12:00:00	6	Velocidad del viento	4.8
58126	7	Sololá	701	Sololá	1	Sololá	11	Noviembre	2023-10-11T00:00:00	2024-11-08T12:00:00	7	Dirección del viento	4.83
58127	7	Sololá	701	Sololá	1	Sololá	11	Noviembre	2023-10-11T00:00:00	2024-11-08T12:00:00	1	Precipitación	0
58128	7	Sololá	701	Sololá	1	Sololá	11	Noviembre	2023-10-11T00:00:00	2024-11-08T12:00:00	8	Radiación solar	110
58129	7	Sololá	701	Sololá	1	Sololá	11	Noviembre	2023-10-11T00:00:00	2024-11-08T13:00:00	2	Temperatura media	22.9
58130	7	Sololá	701	Sololá	1	Sololá	11	Noviembre	2023-10-11T00:00:00	2024-11-08T13:00:00	4	Temperatura máxima	23
58131	7	Sololá	701	Sololá	1	Sololá	11	Noviembre	2023-10-11T00:00:00	2024-11-08T13:00:00	3	Temperatura mínima	22.6
58132	7	Sololá	701	Sololá	1	Sololá	11	Noviembre	2023-10-11T00:00:00	2024-11-08T13:00:00	5	Humedad	61
58133	7	Sololá	701	Sololá	1	Sololá	11	Noviembre	2023-10-11T00:00:00	2024-11-08T13:00:00	6	Velocidad del viento	4.8
58134	7	Sololá	701	Sololá	1	Sololá	11	Noviembre	2023-10-11T00:00:00	2024-11-08T13:00:00	7	Dirección del viento	4.83
58135	7	Sololá	701	Sololá	1	Sololá	11	Noviembre	2023-10-11T00:00:00	2024-11-08T13:00:00	1	Precipitación	0
58136	7	Sololá	701	Sololá	1	Sololá	11	Noviembre	2023-10-11T00:00:00	2024-11-08T13:00:00	8	Radiación solar	63
58137	7	Sololá	701	Sololá	1	Sololá	11	Noviembre	2023-10-11T00:00:00	2024-11-08T14:00:00	2	Temperatura media	22.2
58138	7	Sololá	701	Sololá	1	Sololá	11	Noviembre	2023-10-11T00:00:00	2024-11-08T14:00:00	4	Temperatura máxima	22.9
58139	7	Sololá	701	Sololá	1	Sololá	11	Noviembre	2023-10-11T00:00:00	2024-11-08T14:00:00	3	Temperatura mínima	22.1
58140	7	Sololá	701	Sololá	1	Sololá	11	Noviembre	2023-10-11T00:00:00	2024-11-08T14:00:00	5	Humedad	75
58141	7	Sololá	701	Sololá	1	Sololá	11	Noviembre	2023-10-11T00:00:00	2024-11-08T14:00:00	6	Velocidad del viento	6.4
58142	7	Sololá	701	Sololá	1	Sololá	11	Noviembre	2023-10-11T00:00:00	2024-11-08T14:00:00	7	Dirección del viento	6.44
58143	7	Sololá	701	Sololá	1	Sololá	11	Noviembre	2023-10-11T00:00:00	2024-11-08T14:00:00	1	Precipitación	0
58144	7	Sololá	701	Sololá	1	Sololá	11	Noviembre	2023-10-11T00:00:00	2024-11-08T14:00:00	8	Radiación solar	76
58145	7	Sololá	701	Sololá	1	Sololá	11	Noviembre	2023-10-11T00:00:00	2024-11-08T15:00:00	2	Temperatura media	21.3
58146	7	Sololá	701	Sololá	1	Sololá	11	Noviembre	2023-10-11T00:00:00	2024-11-08T15:00:00	4	Temperatura máxima	22.3
58147	7	Sololá	701	Sololá	1	Sololá	11	Noviembre	2023-10-11T00:00:00	2024-11-08T15:00:00	3	Temperatura mínima	21.2
58148	7	Sololá	701	Sololá	1	Sololá	11	Noviembre	2023-10-11T00:00:00	2024-11-08T15:00:00	5	Humedad	79
58149	7	Sololá	701	Sololá	1	Sololá	11	Noviembre	2023-10-11T00:00:00	2024-11-08T15:00:00	6	Velocidad del viento	4.8
58150	7	Sololá	701	Sololá	1	Sololá	11	Noviembre	2023-10-11T00:00:00	2024-11-08T15:00:00	7	Dirección del viento	4.83
58151	7	Sololá	701	Sololá	1	Sololá	11	Noviembre	2023-10-11T00:00:00	2024-11-08T15:00:00	1	Precipitación	0
58152	7	Sololá	701	Sololá	1	Sololá	11	Noviembre	2023-10-11T00:00:00	2024-11-08T15:00:00	8	Radiación solar	84
58153	7	Sololá	701	Sololá	1	Sololá	11	Noviembre	2023-10-11T00:00:00	2024-11-08T16:00:00	2	Temperatura media	20
58154	7	Sololá	701	Sololá	1	Sololá	11	Noviembre	2023-10-11T00:00:00	2024-11-08T16:00:00	4	Temperatura máxima	21.6
58155	7	Sololá	701	Sololá	1	Sololá	11	Noviembre	2023-10-11T00:00:00	2024-11-08T16:00:00	3	Temperatura mínima	19.9
58156	7	Sololá	701	Sololá	1	Sololá	11	Noviembre	2023-10-11T00:00:00	2024-11-08T16:00:00	5	Humedad	86
58157	7	Sololá	701	Sololá	1	Sololá	11	Noviembre	2023-10-11T00:00:00	2024-11-08T16:00:00	6	Velocidad del viento	3.2
58158	7	Sololá	701	Sololá	1	Sololá	11	Noviembre	2023-10-11T00:00:00	2024-11-08T16:00:00	7	Dirección del viento	3.22
58159	7	Sololá	701	Sololá	1	Sololá	11	Noviembre	2023-10-11T00:00:00	2024-11-08T16:00:00	1	Precipitación	0
58160	7	Sololá	701	Sololá	1	Sololá	11	Noviembre	2023-10-11T00:00:00	2024-11-08T16:00:00	8	Radiación solar	64
58161	7	Sololá	701	Sololá	1	Sololá	11	Noviembre	2023-10-11T00:00:00	2024-11-08T17:00:00	2	Temperatura media	18.9
58162	7	Sololá	701	Sololá	1	Sololá	11	Noviembre	2023-10-11T00:00:00	2024-11-08T17:00:00	4	Temperatura máxima	20
58163	7	Sololá	701	Sololá	1	Sololá	11	Noviembre	2023-10-11T00:00:00	2024-11-08T17:00:00	3	Temperatura mínima	18.9
58164	7	Sololá	701	Sololá	1	Sololá	11	Noviembre	2023-10-11T00:00:00	2024-11-08T17:00:00	5	Humedad	73
58165	7	Sololá	701	Sololá	1	Sololá	11	Noviembre	2023-10-11T00:00:00	2024-11-08T17:00:00	6	Velocidad del viento	3.2
58166	7	Sololá	701	Sololá	1	Sololá	11	Noviembre	2023-10-11T00:00:00	2024-11-08T17:00:00	7	Dirección del viento	3.22
58167	7	Sololá	701	Sololá	1	Sololá	11	Noviembre	2023-10-11T00:00:00	2024-11-08T17:00:00	1	Precipitación	0
58168	7	Sololá	701	Sololá	1	Sololá	11	Noviembre	2023-10-11T00:00:00	2024-11-08T17:00:00	8	Radiación solar	16
58169	7	Sololá	701	Sololá	1	Sololá	11	Noviembre	2023-10-11T00:00:00	2024-11-08T18:00:00	2	Temperatura media	17.9
58170	7	Sololá	701	Sololá	1	Sololá	11	Noviembre	2023-10-11T00:00:00	2024-11-08T18:00:00	4	Temperatura máxima	18.9
58171	7	Sololá	701	Sololá	1	Sololá	11	Noviembre	2023-10-11T00:00:00	2024-11-08T18:00:00	3	Temperatura mínima	17.9
58172	7	Sololá	701	Sololá	1	Sololá	11	Noviembre	2023-10-11T00:00:00	2024-11-08T18:00:00	5	Humedad	77
58173	7	Sololá	701	Sololá	1	Sololá	11	Noviembre	2023-10-11T00:00:00	2024-11-08T18:00:00	6	Velocidad del viento	3.2
58174	7	Sololá	701	Sololá	1	Sololá	11	Noviembre	2023-10-11T00:00:00	2024-11-08T18:00:00	7	Dirección del viento	3.22
58175	7	Sololá	701	Sololá	1	Sololá	11	Noviembre	2023-10-11T00:00:00	2024-11-08T18:00:00	1	Precipitación	0
58176	7	Sololá	701	Sololá	1	Sololá	11	Noviembre	2023-10-11T00:00:00	2024-11-08T18:00:00	8	Radiación solar	1
58177	7	Sololá	701	Sololá	1	Sololá	11	Noviembre	2023-10-11T00:00:00	2024-11-08T19:00:00	2	Temperatura media	17.9
58178	7	Sololá	701	Sololá	1	Sololá	11	Noviembre	2023-10-11T00:00:00	2024-11-08T19:00:00	4	Temperatura máxima	17.9
58179	7	Sololá	701	Sololá	1	Sololá	11	Noviembre	2023-10-11T00:00:00	2024-11-08T19:00:00	3	Temperatura mínima	17.7
58180	7	Sololá	701	Sololá	1	Sololá	11	Noviembre	2023-10-11T00:00:00	2024-11-08T19:00:00	5	Humedad	78
58181	7	Sololá	701	Sololá	1	Sololá	11	Noviembre	2023-10-11T00:00:00	2024-11-08T19:00:00	6	Velocidad del viento	11.3
58182	7	Sololá	701	Sololá	1	Sololá	11	Noviembre	2023-10-11T00:00:00	2024-11-08T19:00:00	7	Dirección del viento	11.27
58183	7	Sololá	701	Sololá	1	Sololá	11	Noviembre	2023-10-11T00:00:00	2024-11-08T19:00:00	1	Precipitación	0
58184	7	Sololá	701	Sololá	1	Sololá	11	Noviembre	2023-10-11T00:00:00	2024-11-08T19:00:00	8	Radiación solar	0
58185	7	Sololá	701	Sololá	1	Sololá	11	Noviembre	2023-10-11T00:00:00	2024-11-08T20:00:00	2	Temperatura media	17.5
58186	7	Sololá	701	Sololá	1	Sololá	11	Noviembre	2023-10-11T00:00:00	2024-11-08T20:00:00	4	Temperatura máxima	18.5
58187	7	Sololá	701	Sololá	1	Sololá	11	Noviembre	2023-10-11T00:00:00	2024-11-08T20:00:00	3	Temperatura mínima	17.5
58188	7	Sololá	701	Sololá	1	Sololá	11	Noviembre	2023-10-11T00:00:00	2024-11-08T20:00:00	5	Humedad	81
58189	7	Sololá	701	Sololá	1	Sololá	11	Noviembre	2023-10-11T00:00:00	2024-11-08T20:00:00	6	Velocidad del viento	17.7
58190	7	Sololá	701	Sololá	1	Sololá	11	Noviembre	2023-10-11T00:00:00	2024-11-08T20:00:00	7	Dirección del viento	17.7
58191	7	Sololá	701	Sololá	1	Sololá	11	Noviembre	2023-10-11T00:00:00	2024-11-08T20:00:00	1	Precipitación	0
58192	7	Sololá	701	Sololá	1	Sololá	11	Noviembre	2023-10-11T00:00:00	2024-11-08T20:00:00	8	Radiación solar	0
58193	7	Sololá	701	Sololá	1	Sololá	11	Noviembre	2023-10-11T00:00:00	2024-11-08T21:00:00	2	Temperatura media	17.4
58194	7	Sololá	701	Sololá	1	Sololá	11	Noviembre	2023-10-11T00:00:00	2024-11-08T21:00:00	4	Temperatura máxima	17.7
58195	7	Sololá	701	Sololá	1	Sololá	11	Noviembre	2023-10-11T00:00:00	2024-11-08T21:00:00	3	Temperatura mínima	17.4
58196	7	Sololá	701	Sololá	1	Sololá	11	Noviembre	2023-10-11T00:00:00	2024-11-08T21:00:00	5	Humedad	81
58197	7	Sololá	701	Sololá	1	Sololá	11	Noviembre	2023-10-11T00:00:00	2024-11-08T21:00:00	6	Velocidad del viento	20.9
58198	7	Sololá	701	Sololá	1	Sololá	11	Noviembre	2023-10-11T00:00:00	2024-11-08T21:00:00	7	Dirección del viento	20.92
58199	7	Sololá	701	Sololá	1	Sololá	11	Noviembre	2023-10-11T00:00:00	2024-11-08T21:00:00	1	Precipitación	0
58200	7	Sololá	701	Sololá	1	Sololá	11	Noviembre	2023-10-11T00:00:00	2024-11-08T21:00:00	8	Radiación solar	0
58201	7	Sololá	701	Sololá	1	Sololá	11	Noviembre	2023-10-11T00:00:00	2024-11-08T22:00:00	2	Temperatura media	17.7
58202	7	Sololá	701	Sololá	1	Sololá	11	Noviembre	2023-10-11T00:00:00	2024-11-08T22:00:00	4	Temperatura máxima	17.7
58203	7	Sololá	701	Sololá	1	Sololá	11	Noviembre	2023-10-11T00:00:00	2024-11-08T22:00:00	3	Temperatura mínima	17.4
58204	7	Sololá	701	Sololá	1	Sololá	11	Noviembre	2023-10-11T00:00:00	2024-11-08T22:00:00	5	Humedad	81
58205	7	Sololá	701	Sololá	1	Sololá	11	Noviembre	2023-10-11T00:00:00	2024-11-08T22:00:00	6	Velocidad del viento	19.3
58206	7	Sololá	701	Sololá	1	Sololá	11	Noviembre	2023-10-11T00:00:00	2024-11-08T22:00:00	7	Dirección del viento	19.31
58207	7	Sololá	701	Sololá	1	Sololá	11	Noviembre	2023-10-11T00:00:00	2024-11-08T22:00:00	1	Precipitación	0
58208	7	Sololá	701	Sololá	1	Sololá	11	Noviembre	2023-10-11T00:00:00	2024-11-08T22:00:00	8	Radiación solar	0
58209	7	Sololá	701	Sololá	1	Sololá	11	Noviembre	2023-10-11T00:00:00	2024-11-08T23:00:00	2	Temperatura media	17.4
58210	7	Sololá	701	Sololá	1	Sololá	11	Noviembre	2023-10-11T00:00:00	2024-11-08T23:00:00	4	Temperatura máxima	17.7
58211	7	Sololá	701	Sololá	1	Sololá	11	Noviembre	2023-10-11T00:00:00	2024-11-08T23:00:00	3	Temperatura mínima	17.4
58212	7	Sololá	701	Sololá	1	Sololá	11	Noviembre	2023-10-11T00:00:00	2024-11-08T23:00:00	5	Humedad	82
58213	7	Sololá	701	Sololá	1	Sololá	11	Noviembre	2023-10-11T00:00:00	2024-11-08T23:00:00	6	Velocidad del viento	14.5
58214	7	Sololá	701	Sololá	1	Sololá	11	Noviembre	2023-10-11T00:00:00	2024-11-08T23:00:00	7	Dirección del viento	14.48
58215	7	Sololá	701	Sololá	1	Sololá	11	Noviembre	2023-10-11T00:00:00	2024-11-08T23:00:00	1	Precipitación	0
58216	7	Sololá	701	Sololá	1	Sololá	11	Noviembre	2023-10-11T00:00:00	2024-11-08T23:00:00	8	Radiación solar	0
58217	7	Sololá	701	Sololá	1	Sololá	11	Noviembre	2023-11-11T00:00:00	2024-11-08T00:00:00	2	Temperatura media	17.5
58218	7	Sololá	701	Sololá	1	Sololá	11	Noviembre	2023-11-11T00:00:00	2024-11-08T00:00:00	4	Temperatura máxima	17.7
58219	7	Sololá	701	Sololá	1	Sololá	11	Noviembre	2023-11-11T00:00:00	2024-11-08T00:00:00	3	Temperatura mínima	17.4
58220	7	Sololá	701	Sololá	1	Sololá	11	Noviembre	2023-11-11T00:00:00	2024-11-08T00:00:00	5	Humedad	80
58221	7	Sololá	701	Sololá	1	Sololá	11	Noviembre	2023-11-11T00:00:00	2024-11-08T00:00:00	6	Velocidad del viento	19.3
58222	7	Sololá	701	Sololá	1	Sololá	11	Noviembre	2023-11-11T00:00:00	2024-11-08T00:00:00	7	Dirección del viento	19.31
58223	7	Sololá	701	Sololá	1	Sololá	11	Noviembre	2023-11-11T00:00:00	2024-11-08T00:00:00	1	Precipitación	0
58224	7	Sololá	701	Sololá	1	Sololá	11	Noviembre	2023-11-11T00:00:00	2024-11-08T00:00:00	8	Radiación solar	0
58225	7	Sololá	701	Sololá	1	Sololá	11	Noviembre	2023-11-11T00:00:00	2024-11-08T01:00:00	2	Temperatura media	16.9
58226	7	Sololá	701	Sololá	1	Sololá	11	Noviembre	2023-11-11T00:00:00	2024-11-08T01:00:00	4	Temperatura máxima	17.5
58227	7	Sololá	701	Sololá	1	Sololá	11	Noviembre	2023-11-11T00:00:00	2024-11-08T01:00:00	3	Temperatura mínima	16.9
58228	7	Sololá	701	Sololá	1	Sololá	11	Noviembre	2023-11-11T00:00:00	2024-11-08T01:00:00	5	Humedad	82
58229	7	Sololá	701	Sololá	1	Sololá	11	Noviembre	2023-11-11T00:00:00	2024-11-08T01:00:00	6	Velocidad del viento	8
58230	7	Sololá	701	Sololá	1	Sololá	11	Noviembre	2023-11-11T00:00:00	2024-11-08T01:00:00	7	Dirección del viento	8.05
58231	7	Sololá	701	Sololá	1	Sololá	11	Noviembre	2023-11-11T00:00:00	2024-11-08T01:00:00	1	Precipitación	0
58232	7	Sololá	701	Sololá	1	Sololá	11	Noviembre	2023-11-11T00:00:00	2024-11-08T01:00:00	8	Radiación solar	0
58233	7	Sololá	701	Sololá	1	Sololá	11	Noviembre	2023-11-11T00:00:00	2024-11-08T02:00:00	2	Temperatura media	17.1
58234	7	Sololá	701	Sololá	1	Sololá	11	Noviembre	2023-11-11T00:00:00	2024-11-08T02:00:00	4	Temperatura máxima	17.2
58235	7	Sololá	701	Sololá	1	Sololá	11	Noviembre	2023-11-11T00:00:00	2024-11-08T02:00:00	3	Temperatura mínima	16.9
58236	7	Sololá	701	Sololá	1	Sololá	11	Noviembre	2023-11-11T00:00:00	2024-11-08T02:00:00	5	Humedad	80
58237	7	Sololá	701	Sololá	1	Sololá	11	Noviembre	2023-11-11T00:00:00	2024-11-08T02:00:00	6	Velocidad del viento	8
58238	7	Sololá	701	Sololá	1	Sololá	11	Noviembre	2023-11-11T00:00:00	2024-11-08T02:00:00	7	Dirección del viento	8.05
58239	7	Sololá	701	Sololá	1	Sololá	11	Noviembre	2023-11-11T00:00:00	2024-11-08T02:00:00	1	Precipitación	0
58240	7	Sololá	701	Sololá	1	Sololá	11	Noviembre	2023-11-11T00:00:00	2024-11-08T02:00:00	8	Radiación solar	0
58241	7	Sololá	701	Sololá	1	Sololá	11	Noviembre	2023-11-11T00:00:00	2024-11-08T03:00:00	2	Temperatura media	17.1
58242	7	Sololá	701	Sololá	1	Sololá	11	Noviembre	2023-11-11T00:00:00	2024-11-08T03:00:00	4	Temperatura máxima	17.2
58243	7	Sololá	701	Sololá	1	Sololá	11	Noviembre	2023-11-11T00:00:00	2024-11-08T03:00:00	3	Temperatura mínima	16.7
58244	7	Sololá	701	Sololá	1	Sololá	11	Noviembre	2023-11-11T00:00:00	2024-11-08T03:00:00	5	Humedad	80
58245	7	Sololá	701	Sololá	1	Sololá	11	Noviembre	2023-11-11T00:00:00	2024-11-08T03:00:00	6	Velocidad del viento	12.9
58246	7	Sololá	701	Sololá	1	Sololá	11	Noviembre	2023-11-11T00:00:00	2024-11-08T03:00:00	7	Dirección del viento	12.87
58247	7	Sololá	701	Sololá	1	Sololá	11	Noviembre	2023-11-11T00:00:00	2024-11-08T03:00:00	1	Precipitación	0
58248	7	Sololá	701	Sololá	1	Sololá	11	Noviembre	2023-11-11T00:00:00	2024-11-08T03:00:00	8	Radiación solar	0
58249	7	Sololá	701	Sololá	1	Sololá	11	Noviembre	2023-11-11T00:00:00	2024-11-08T04:00:00	2	Temperatura media	16.6
58250	7	Sololá	701	Sololá	1	Sololá	11	Noviembre	2023-11-11T00:00:00	2024-11-08T04:00:00	4	Temperatura máxima	17.2
58251	7	Sololá	701	Sololá	1	Sololá	11	Noviembre	2023-11-11T00:00:00	2024-11-08T04:00:00	3	Temperatura mínima	16.4
58252	7	Sololá	701	Sololá	1	Sololá	11	Noviembre	2023-11-11T00:00:00	2024-11-08T04:00:00	5	Humedad	82
58253	7	Sololá	701	Sololá	1	Sololá	11	Noviembre	2023-11-11T00:00:00	2024-11-08T04:00:00	6	Velocidad del viento	6.4
58254	7	Sololá	701	Sololá	1	Sololá	11	Noviembre	2023-11-11T00:00:00	2024-11-08T04:00:00	7	Dirección del viento	6.44
58255	7	Sololá	701	Sololá	1	Sololá	11	Noviembre	2023-11-11T00:00:00	2024-11-08T04:00:00	1	Precipitación	0
58256	7	Sololá	701	Sololá	1	Sololá	11	Noviembre	2023-11-11T00:00:00	2024-11-08T04:00:00	8	Radiación solar	0
58257	7	Sololá	701	Sololá	1	Sololá	11	Noviembre	2023-11-11T00:00:00	2024-11-08T05:00:00	2	Temperatura media	16.5
58258	7	Sololá	701	Sololá	1	Sololá	11	Noviembre	2023-11-11T00:00:00	2024-11-08T05:00:00	4	Temperatura máxima	16.7
58259	7	Sololá	701	Sololá	1	Sololá	11	Noviembre	2023-11-11T00:00:00	2024-11-08T05:00:00	3	Temperatura mínima	16.4
58260	7	Sololá	701	Sololá	1	Sololá	11	Noviembre	2023-11-11T00:00:00	2024-11-08T05:00:00	5	Humedad	83
58261	7	Sololá	701	Sololá	1	Sololá	11	Noviembre	2023-11-11T00:00:00	2024-11-08T05:00:00	6	Velocidad del viento	4.8
58262	7	Sololá	701	Sololá	1	Sololá	11	Noviembre	2023-11-11T00:00:00	2024-11-08T05:00:00	7	Dirección del viento	4.83
58263	7	Sololá	701	Sololá	1	Sololá	11	Noviembre	2023-11-11T00:00:00	2024-11-08T05:00:00	1	Precipitación	0
58264	7	Sololá	701	Sololá	1	Sololá	11	Noviembre	2023-11-11T00:00:00	2024-11-08T05:00:00	8	Radiación solar	0
58265	7	Sololá	701	Sololá	1	Sololá	11	Noviembre	2023-11-11T00:00:00	2024-11-08T06:00:00	2	Temperatura media	17.2
58266	7	Sololá	701	Sololá	1	Sololá	11	Noviembre	2023-11-11T00:00:00	2024-11-08T06:00:00	4	Temperatura máxima	17.2
58267	7	Sololá	701	Sololá	1	Sololá	11	Noviembre	2023-11-11T00:00:00	2024-11-08T06:00:00	3	Temperatura mínima	16.4
58268	7	Sololá	701	Sololá	1	Sololá	11	Noviembre	2023-11-11T00:00:00	2024-11-08T06:00:00	5	Humedad	81
58269	7	Sololá	701	Sololá	1	Sololá	11	Noviembre	2023-11-11T00:00:00	2024-11-08T06:00:00	6	Velocidad del viento	8
58270	7	Sololá	701	Sololá	1	Sololá	11	Noviembre	2023-11-11T00:00:00	2024-11-08T06:00:00	7	Dirección del viento	8.05
58271	7	Sololá	701	Sololá	1	Sololá	11	Noviembre	2023-11-11T00:00:00	2024-11-08T06:00:00	1	Precipitación	0
58272	7	Sololá	701	Sololá	1	Sololá	11	Noviembre	2023-11-11T00:00:00	2024-11-08T06:00:00	8	Radiación solar	0
58273	7	Sololá	701	Sololá	1	Sololá	11	Noviembre	2023-11-11T00:00:00	2024-11-08T07:00:00	2	Temperatura media	19
58274	7	Sololá	701	Sololá	1	Sololá	11	Noviembre	2023-11-11T00:00:00	2024-11-08T07:00:00	4	Temperatura máxima	19
58275	7	Sololá	701	Sololá	1	Sololá	11	Noviembre	2023-11-11T00:00:00	2024-11-08T07:00:00	3	Temperatura mínima	17.2
58276	7	Sololá	701	Sololá	1	Sololá	11	Noviembre	2023-11-11T00:00:00	2024-11-08T07:00:00	5	Humedad	72
58277	7	Sololá	701	Sololá	1	Sololá	11	Noviembre	2023-11-11T00:00:00	2024-11-08T07:00:00	6	Velocidad del viento	14.5
58278	7	Sololá	701	Sololá	1	Sololá	11	Noviembre	2023-11-11T00:00:00	2024-11-08T07:00:00	7	Dirección del viento	14.48
58279	7	Sololá	701	Sololá	1	Sololá	11	Noviembre	2023-11-11T00:00:00	2024-11-08T07:00:00	1	Precipitación	0
58280	7	Sololá	701	Sololá	1	Sololá	11	Noviembre	2023-11-11T00:00:00	2024-11-08T07:00:00	8	Radiación solar	6
58281	7	Sololá	701	Sololá	1	Sololá	11	Noviembre	2023-11-11T00:00:00	2024-11-08T08:00:00	2	Temperatura media	19.6
58282	7	Sololá	701	Sololá	1	Sololá	11	Noviembre	2023-11-11T00:00:00	2024-11-08T08:00:00	4	Temperatura máxima	19.7
58283	7	Sololá	701	Sololá	1	Sololá	11	Noviembre	2023-11-11T00:00:00	2024-11-08T08:00:00	3	Temperatura mínima	18.9
58284	7	Sololá	701	Sololá	1	Sololá	11	Noviembre	2023-11-11T00:00:00	2024-11-08T08:00:00	5	Humedad	72
58285	7	Sololá	701	Sololá	1	Sololá	11	Noviembre	2023-11-11T00:00:00	2024-11-08T08:00:00	6	Velocidad del viento	14.5
58286	7	Sololá	701	Sololá	1	Sololá	11	Noviembre	2023-11-11T00:00:00	2024-11-08T08:00:00	7	Dirección del viento	14.48
58287	7	Sololá	701	Sololá	1	Sololá	11	Noviembre	2023-11-11T00:00:00	2024-11-08T08:00:00	1	Precipitación	0
58288	7	Sololá	701	Sololá	1	Sololá	11	Noviembre	2023-11-11T00:00:00	2024-11-08T08:00:00	8	Radiación solar	34
58289	7	Sololá	701	Sololá	1	Sololá	11	Noviembre	2023-11-11T00:00:00	2024-11-08T09:00:00	2	Temperatura media	20.7
58290	7	Sololá	701	Sololá	1	Sololá	11	Noviembre	2023-11-11T00:00:00	2024-11-08T09:00:00	4	Temperatura máxima	20.7
58291	7	Sololá	701	Sololá	1	Sololá	11	Noviembre	2023-11-11T00:00:00	2024-11-08T09:00:00	3	Temperatura mínima	19.6
58292	7	Sololá	701	Sololá	1	Sololá	11	Noviembre	2023-11-11T00:00:00	2024-11-08T09:00:00	5	Humedad	70
58293	7	Sololá	701	Sololá	1	Sololá	11	Noviembre	2023-11-11T00:00:00	2024-11-08T09:00:00	6	Velocidad del viento	12.9
58294	7	Sololá	701	Sololá	1	Sololá	11	Noviembre	2023-11-11T00:00:00	2024-11-08T09:00:00	7	Dirección del viento	12.87
58295	7	Sololá	701	Sololá	1	Sololá	11	Noviembre	2023-11-11T00:00:00	2024-11-08T09:00:00	1	Precipitación	0
58296	7	Sololá	701	Sololá	1	Sololá	11	Noviembre	2023-11-11T00:00:00	2024-11-08T09:00:00	8	Radiación solar	101
58297	7	Sololá	701	Sololá	1	Sololá	11	Noviembre	2023-11-11T00:00:00	2024-11-08T10:00:00	2	Temperatura media	21.1
58298	7	Sololá	701	Sololá	1	Sololá	11	Noviembre	2023-11-11T00:00:00	2024-11-08T10:00:00	4	Temperatura máxima	21.8
58299	7	Sololá	701	Sololá	1	Sololá	11	Noviembre	2023-11-11T00:00:00	2024-11-08T10:00:00	3	Temperatura mínima	20.7
58300	7	Sololá	701	Sololá	1	Sololá	11	Noviembre	2023-11-11T00:00:00	2024-11-08T10:00:00	5	Humedad	68
58301	7	Sololá	701	Sololá	1	Sololá	11	Noviembre	2023-11-11T00:00:00	2024-11-08T10:00:00	6	Velocidad del viento	12.9
58302	7	Sololá	701	Sololá	1	Sololá	11	Noviembre	2023-11-11T00:00:00	2024-11-08T10:00:00	7	Dirección del viento	12.87
58303	7	Sololá	701	Sololá	1	Sololá	11	Noviembre	2023-11-11T00:00:00	2024-11-08T10:00:00	1	Precipitación	0
58304	7	Sololá	701	Sololá	1	Sololá	11	Noviembre	2023-11-11T00:00:00	2024-11-08T10:00:00	8	Radiación solar	149
58305	7	Sololá	701	Sololá	1	Sololá	11	Noviembre	2023-11-11T00:00:00	2024-11-08T11:00:00	2	Temperatura media	21.8
58306	7	Sololá	701	Sololá	1	Sololá	11	Noviembre	2023-11-11T00:00:00	2024-11-08T11:00:00	4	Temperatura máxima	22.6
58307	7	Sololá	701	Sololá	1	Sololá	11	Noviembre	2023-11-11T00:00:00	2024-11-08T11:00:00	3	Temperatura mínima	20.7
58308	7	Sololá	701	Sololá	1	Sololá	11	Noviembre	2023-11-11T00:00:00	2024-11-08T11:00:00	5	Humedad	67
58309	7	Sololá	701	Sololá	1	Sololá	11	Noviembre	2023-11-11T00:00:00	2024-11-08T11:00:00	6	Velocidad del viento	12.9
58310	7	Sololá	701	Sololá	1	Sololá	11	Noviembre	2023-11-11T00:00:00	2024-11-08T11:00:00	7	Dirección del viento	12.87
58311	7	Sololá	701	Sololá	1	Sololá	11	Noviembre	2023-11-11T00:00:00	2024-11-08T11:00:00	1	Precipitación	0
58312	7	Sololá	701	Sololá	1	Sololá	11	Noviembre	2023-11-11T00:00:00	2024-11-08T11:00:00	8	Radiación solar	241
58313	7	Sololá	701	Sololá	1	Sololá	11	Noviembre	2023-11-11T00:00:00	2024-11-08T12:00:00	2	Temperatura media	22.8
58314	7	Sololá	701	Sololá	1	Sololá	11	Noviembre	2023-11-11T00:00:00	2024-11-08T12:00:00	4	Temperatura máxima	22.8
58315	7	Sololá	701	Sololá	1	Sololá	11	Noviembre	2023-11-11T00:00:00	2024-11-08T12:00:00	3	Temperatura mínima	20
58316	7	Sololá	701	Sololá	1	Sololá	11	Noviembre	2023-11-11T00:00:00	2024-11-08T12:00:00	5	Humedad	61
58317	7	Sololá	701	Sololá	1	Sololá	11	Noviembre	2023-11-11T00:00:00	2024-11-08T12:00:00	6	Velocidad del viento	11.3
58318	7	Sololá	701	Sololá	1	Sololá	11	Noviembre	2023-11-11T00:00:00	2024-11-08T12:00:00	7	Dirección del viento	11.27
58319	7	Sololá	701	Sololá	1	Sololá	11	Noviembre	2023-11-11T00:00:00	2024-11-08T12:00:00	1	Precipitación	0
58320	7	Sololá	701	Sololá	1	Sololá	11	Noviembre	2023-11-11T00:00:00	2024-11-08T12:00:00	8	Radiación solar	122
58321	7	Sololá	701	Sololá	1	Sololá	11	Noviembre	2023-11-11T00:00:00	2024-11-08T13:00:00	2	Temperatura media	22.6
58322	7	Sololá	701	Sololá	1	Sololá	11	Noviembre	2023-11-11T00:00:00	2024-11-08T13:00:00	4	Temperatura máxima	23.3
58323	7	Sololá	701	Sololá	1	Sololá	11	Noviembre	2023-11-11T00:00:00	2024-11-08T13:00:00	3	Temperatura mínima	22.6
58324	7	Sololá	701	Sololá	1	Sololá	11	Noviembre	2023-11-11T00:00:00	2024-11-08T13:00:00	5	Humedad	61
58325	7	Sololá	701	Sololá	1	Sololá	11	Noviembre	2023-11-11T00:00:00	2024-11-08T13:00:00	6	Velocidad del viento	11.3
58326	7	Sololá	701	Sololá	1	Sololá	11	Noviembre	2023-11-11T00:00:00	2024-11-08T13:00:00	7	Dirección del viento	11.27
58327	7	Sololá	701	Sololá	1	Sololá	11	Noviembre	2023-11-11T00:00:00	2024-11-08T13:00:00	1	Precipitación	0
58328	7	Sololá	701	Sololá	1	Sololá	11	Noviembre	2023-11-11T00:00:00	2024-11-08T13:00:00	8	Radiación solar	172
58329	7	Sololá	701	Sololá	1	Sololá	11	Noviembre	2023-11-11T00:00:00	2024-11-08T14:00:00	2	Temperatura media	22.3
58330	7	Sololá	701	Sololá	1	Sololá	11	Noviembre	2023-11-11T00:00:00	2024-11-08T14:00:00	4	Temperatura máxima	23.1
58331	7	Sololá	701	Sololá	1	Sololá	11	Noviembre	2023-11-11T00:00:00	2024-11-08T14:00:00	3	Temperatura mínima	21.8
58332	7	Sololá	701	Sololá	1	Sololá	11	Noviembre	2023-11-11T00:00:00	2024-11-08T14:00:00	5	Humedad	66
58333	7	Sololá	701	Sololá	1	Sololá	11	Noviembre	2023-11-11T00:00:00	2024-11-08T14:00:00	6	Velocidad del viento	12.9
58334	7	Sololá	701	Sololá	1	Sololá	11	Noviembre	2023-11-11T00:00:00	2024-11-08T14:00:00	7	Dirección del viento	12.87
58335	7	Sololá	701	Sololá	1	Sololá	11	Noviembre	2023-11-11T00:00:00	2024-11-08T14:00:00	1	Precipitación	0
58336	7	Sololá	701	Sololá	1	Sololá	11	Noviembre	2023-11-11T00:00:00	2024-11-08T14:00:00	8	Radiación solar	72
58337	7	Sololá	701	Sololá	1	Sololá	11	Noviembre	2023-11-11T00:00:00	2024-11-08T15:00:00	2	Temperatura media	21.3
58338	7	Sololá	701	Sololá	1	Sololá	11	Noviembre	2023-11-11T00:00:00	2024-11-08T15:00:00	4	Temperatura máxima	22.8
58339	7	Sololá	701	Sololá	1	Sololá	11	Noviembre	2023-11-11T00:00:00	2024-11-08T15:00:00	3	Temperatura mínima	21.1
58340	7	Sololá	701	Sololá	1	Sololá	11	Noviembre	2023-11-11T00:00:00	2024-11-08T15:00:00	5	Humedad	71
58341	7	Sololá	701	Sololá	1	Sololá	11	Noviembre	2023-11-11T00:00:00	2024-11-08T15:00:00	6	Velocidad del viento	12.9
58342	7	Sololá	701	Sololá	1	Sololá	11	Noviembre	2023-11-11T00:00:00	2024-11-08T15:00:00	7	Dirección del viento	12.87
58343	7	Sololá	701	Sololá	1	Sololá	11	Noviembre	2023-11-11T00:00:00	2024-11-08T15:00:00	1	Precipitación	0
58344	7	Sololá	701	Sololá	1	Sololá	11	Noviembre	2023-11-11T00:00:00	2024-11-08T15:00:00	8	Radiación solar	67
58345	7	Sololá	701	Sololá	1	Sololá	11	Noviembre	2023-11-11T00:00:00	2024-11-08T16:00:00	2	Temperatura media	19.6
58346	7	Sololá	701	Sololá	1	Sololá	11	Noviembre	2023-11-11T00:00:00	2024-11-08T16:00:00	4	Temperatura máxima	21.4
58347	7	Sololá	701	Sololá	1	Sololá	11	Noviembre	2023-11-11T00:00:00	2024-11-08T16:00:00	3	Temperatura mínima	19.6
58348	7	Sololá	701	Sololá	1	Sololá	11	Noviembre	2023-11-11T00:00:00	2024-11-08T16:00:00	5	Humedad	73
58349	7	Sololá	701	Sololá	1	Sololá	11	Noviembre	2023-11-11T00:00:00	2024-11-08T16:00:00	6	Velocidad del viento	16.1
58350	7	Sololá	701	Sololá	1	Sololá	11	Noviembre	2023-11-11T00:00:00	2024-11-08T16:00:00	7	Dirección del viento	16.09
58351	7	Sololá	701	Sololá	1	Sololá	11	Noviembre	2023-11-11T00:00:00	2024-11-08T16:00:00	1	Precipitación	0
58352	7	Sololá	701	Sololá	1	Sololá	11	Noviembre	2023-11-11T00:00:00	2024-11-08T16:00:00	8	Radiación solar	40
58353	7	Sololá	701	Sololá	1	Sololá	11	Noviembre	2023-11-11T00:00:00	2024-11-08T17:00:00	2	Temperatura media	18.6
58354	7	Sololá	701	Sololá	1	Sololá	11	Noviembre	2023-11-11T00:00:00	2024-11-08T17:00:00	4	Temperatura máxima	19.6
58355	7	Sololá	701	Sololá	1	Sololá	11	Noviembre	2023-11-11T00:00:00	2024-11-08T17:00:00	3	Temperatura mínima	18.5
58356	7	Sololá	701	Sololá	1	Sololá	11	Noviembre	2023-11-11T00:00:00	2024-11-08T17:00:00	5	Humedad	79
58357	7	Sololá	701	Sololá	1	Sololá	11	Noviembre	2023-11-11T00:00:00	2024-11-08T17:00:00	6	Velocidad del viento	9.7
58358	7	Sololá	701	Sololá	1	Sololá	11	Noviembre	2023-11-11T00:00:00	2024-11-08T17:00:00	7	Dirección del viento	9.66
58359	7	Sololá	701	Sololá	1	Sololá	11	Noviembre	2023-11-11T00:00:00	2024-11-08T17:00:00	1	Precipitación	0
58360	7	Sololá	701	Sololá	1	Sololá	11	Noviembre	2023-11-11T00:00:00	2024-11-08T17:00:00	8	Radiación solar	54
58361	7	Sololá	701	Sololá	1	Sololá	11	Noviembre	2023-11-11T00:00:00	2024-11-08T18:00:00	2	Temperatura media	17.7
58362	7	Sololá	701	Sololá	1	Sololá	11	Noviembre	2023-11-11T00:00:00	2024-11-08T18:00:00	4	Temperatura máxima	18.6
58363	7	Sololá	701	Sololá	1	Sololá	11	Noviembre	2023-11-11T00:00:00	2024-11-08T18:00:00	3	Temperatura mínima	17.7
58364	7	Sololá	701	Sololá	1	Sololá	11	Noviembre	2023-11-11T00:00:00	2024-11-08T18:00:00	5	Humedad	79
58365	7	Sololá	701	Sololá	1	Sololá	11	Noviembre	2023-11-11T00:00:00	2024-11-08T18:00:00	6	Velocidad del viento	11.3
58366	7	Sololá	701	Sololá	1	Sololá	11	Noviembre	2023-11-11T00:00:00	2024-11-08T18:00:00	7	Dirección del viento	11.27
58367	7	Sololá	701	Sololá	1	Sololá	11	Noviembre	2023-11-11T00:00:00	2024-11-08T18:00:00	1	Precipitación	0
58368	7	Sololá	701	Sololá	1	Sololá	11	Noviembre	2023-11-11T00:00:00	2024-11-08T18:00:00	8	Radiación solar	7
58369	7	Sololá	701	Sololá	1	Sololá	11	Noviembre	2023-11-11T00:00:00	2024-11-08T19:00:00	2	Temperatura media	17.4
58370	7	Sololá	701	Sololá	1	Sololá	11	Noviembre	2023-11-11T00:00:00	2024-11-08T19:00:00	4	Temperatura máxima	17.7
58371	7	Sololá	701	Sololá	1	Sololá	11	Noviembre	2023-11-11T00:00:00	2024-11-08T19:00:00	3	Temperatura mínima	17.3
58372	7	Sololá	701	Sololá	1	Sololá	11	Noviembre	2023-11-11T00:00:00	2024-11-08T19:00:00	5	Humedad	80
58373	7	Sololá	701	Sololá	1	Sololá	11	Noviembre	2023-11-11T00:00:00	2024-11-08T19:00:00	6	Velocidad del viento	6.4
58374	7	Sololá	701	Sololá	1	Sololá	11	Noviembre	2023-11-11T00:00:00	2024-11-08T19:00:00	7	Dirección del viento	6.44
58375	7	Sololá	701	Sololá	1	Sololá	11	Noviembre	2023-11-11T00:00:00	2024-11-08T19:00:00	1	Precipitación	0
58376	7	Sololá	701	Sololá	1	Sololá	11	Noviembre	2023-11-11T00:00:00	2024-11-08T19:00:00	8	Radiación solar	0
58377	7	Sololá	701	Sololá	1	Sololá	11	Noviembre	2023-11-11T00:00:00	2024-11-08T20:00:00	2	Temperatura media	17.5
58378	7	Sololá	701	Sololá	1	Sololá	11	Noviembre	2023-11-11T00:00:00	2024-11-08T20:00:00	4	Temperatura máxima	17.7
58379	7	Sololá	701	Sololá	1	Sololá	11	Noviembre	2023-11-11T00:00:00	2024-11-08T20:00:00	3	Temperatura mínima	17.3
58380	7	Sololá	701	Sololá	1	Sololá	11	Noviembre	2023-11-11T00:00:00	2024-11-08T20:00:00	5	Humedad	79
58381	7	Sololá	701	Sololá	1	Sololá	11	Noviembre	2023-11-11T00:00:00	2024-11-08T20:00:00	6	Velocidad del viento	8
58382	7	Sololá	701	Sololá	1	Sololá	11	Noviembre	2023-11-11T00:00:00	2024-11-08T20:00:00	7	Dirección del viento	8.05
58383	7	Sololá	701	Sololá	1	Sololá	11	Noviembre	2023-11-11T00:00:00	2024-11-08T20:00:00	1	Precipitación	0
58384	7	Sololá	701	Sololá	1	Sololá	11	Noviembre	2023-11-11T00:00:00	2024-11-08T20:00:00	8	Radiación solar	0
58385	7	Sololá	701	Sololá	1	Sololá	11	Noviembre	2023-11-11T00:00:00	2024-11-08T21:00:00	2	Temperatura media	17.1
58386	7	Sololá	701	Sololá	1	Sololá	11	Noviembre	2023-11-11T00:00:00	2024-11-08T21:00:00	4	Temperatura máxima	17.5
58387	7	Sololá	701	Sololá	1	Sololá	11	Noviembre	2023-11-11T00:00:00	2024-11-08T21:00:00	3	Temperatura mínima	17
58388	7	Sololá	701	Sololá	1	Sololá	11	Noviembre	2023-11-11T00:00:00	2024-11-08T21:00:00	5	Humedad	82
58389	7	Sololá	701	Sololá	1	Sololá	11	Noviembre	2023-11-11T00:00:00	2024-11-08T21:00:00	6	Velocidad del viento	6.4
58390	7	Sololá	701	Sololá	1	Sololá	11	Noviembre	2023-11-11T00:00:00	2024-11-08T21:00:00	7	Dirección del viento	6.44
58391	7	Sololá	701	Sololá	1	Sololá	11	Noviembre	2023-11-11T00:00:00	2024-11-08T21:00:00	1	Precipitación	0
58392	7	Sololá	701	Sololá	1	Sololá	11	Noviembre	2023-11-11T00:00:00	2024-11-08T21:00:00	8	Radiación solar	0
58393	7	Sololá	701	Sololá	1	Sololá	11	Noviembre	2023-11-11T00:00:00	2024-11-08T22:00:00	2	Temperatura media	16.9
58394	7	Sololá	701	Sololá	1	Sololá	11	Noviembre	2023-11-11T00:00:00	2024-11-08T22:00:00	4	Temperatura máxima	17.2
58395	7	Sololá	701	Sololá	1	Sololá	11	Noviembre	2023-11-11T00:00:00	2024-11-08T22:00:00	3	Temperatura mínima	16.9
58396	7	Sololá	701	Sololá	1	Sololá	11	Noviembre	2023-11-11T00:00:00	2024-11-08T22:00:00	5	Humedad	83
58397	7	Sololá	701	Sololá	1	Sololá	11	Noviembre	2023-11-11T00:00:00	2024-11-08T22:00:00	6	Velocidad del viento	9.7
58398	7	Sololá	701	Sololá	1	Sololá	11	Noviembre	2023-11-11T00:00:00	2024-11-08T22:00:00	7	Dirección del viento	9.66
58399	7	Sololá	701	Sololá	1	Sololá	11	Noviembre	2023-11-11T00:00:00	2024-11-08T22:00:00	1	Precipitación	0
58400	7	Sololá	701	Sololá	1	Sololá	11	Noviembre	2023-11-11T00:00:00	2024-11-08T22:00:00	8	Radiación solar	0
58401	7	Sololá	701	Sololá	1	Sololá	11	Noviembre	2023-11-11T00:00:00	2024-11-08T23:00:00	2	Temperatura media	16.9
58402	7	Sololá	701	Sololá	1	Sololá	11	Noviembre	2023-11-11T00:00:00	2024-11-08T23:00:00	4	Temperatura máxima	17
58403	7	Sololá	701	Sololá	1	Sololá	11	Noviembre	2023-11-11T00:00:00	2024-11-08T23:00:00	3	Temperatura mínima	16.8
58404	7	Sololá	701	Sololá	1	Sololá	11	Noviembre	2023-11-11T00:00:00	2024-11-08T23:00:00	5	Humedad	84
58405	7	Sololá	701	Sololá	1	Sololá	11	Noviembre	2023-11-11T00:00:00	2024-11-08T23:00:00	6	Velocidad del viento	6.4
58406	7	Sololá	701	Sololá	1	Sololá	11	Noviembre	2023-11-11T00:00:00	2024-11-08T23:00:00	7	Dirección del viento	6.44
58407	7	Sololá	701	Sololá	1	Sololá	11	Noviembre	2023-11-11T00:00:00	2024-11-08T23:00:00	1	Precipitación	0
58408	7	Sololá	701	Sololá	1	Sololá	11	Noviembre	2023-11-11T00:00:00	2024-11-08T23:00:00	8	Radiación solar	0
58409	7	Sololá	701	Sololá	1	Sololá	11	Noviembre	2023-12-11T00:00:00	2024-11-08T00:00:00	2	Temperatura media	16.7
58410	7	Sololá	701	Sololá	1	Sololá	11	Noviembre	2023-12-11T00:00:00	2024-11-08T00:00:00	4	Temperatura máxima	16.9
58411	7	Sololá	701	Sololá	1	Sololá	11	Noviembre	2023-12-11T00:00:00	2024-11-08T00:00:00	3	Temperatura mínima	16.6
58412	7	Sololá	701	Sololá	1	Sololá	11	Noviembre	2023-12-11T00:00:00	2024-11-08T00:00:00	5	Humedad	85
58413	7	Sololá	701	Sololá	1	Sololá	11	Noviembre	2023-12-11T00:00:00	2024-11-08T00:00:00	6	Velocidad del viento	9.7
58414	7	Sololá	701	Sololá	1	Sololá	11	Noviembre	2023-12-11T00:00:00	2024-11-08T00:00:00	7	Dirección del viento	9.66
58415	7	Sololá	701	Sololá	1	Sololá	11	Noviembre	2023-12-11T00:00:00	2024-11-08T00:00:00	1	Precipitación	0
58416	7	Sololá	701	Sololá	1	Sololá	11	Noviembre	2023-12-11T00:00:00	2024-11-08T00:00:00	8	Radiación solar	0
58417	7	Sololá	701	Sololá	1	Sololá	11	Noviembre	2023-12-11T00:00:00	2024-11-08T01:00:00	2	Temperatura media	16.8
58418	7	Sololá	701	Sololá	1	Sololá	11	Noviembre	2023-12-11T00:00:00	2024-11-08T01:00:00	4	Temperatura máxima	16.9
58419	7	Sololá	701	Sololá	1	Sololá	11	Noviembre	2023-12-11T00:00:00	2024-11-08T01:00:00	3	Temperatura mínima	16.7
58420	7	Sololá	701	Sololá	1	Sololá	11	Noviembre	2023-12-11T00:00:00	2024-11-08T01:00:00	5	Humedad	84
58421	7	Sololá	701	Sololá	1	Sololá	11	Noviembre	2023-12-11T00:00:00	2024-11-08T01:00:00	6	Velocidad del viento	8
58422	7	Sololá	701	Sololá	1	Sololá	11	Noviembre	2023-12-11T00:00:00	2024-11-08T01:00:00	7	Dirección del viento	8.05
58423	7	Sololá	701	Sololá	1	Sololá	11	Noviembre	2023-12-11T00:00:00	2024-11-08T01:00:00	1	Precipitación	0
58424	7	Sololá	701	Sololá	1	Sololá	11	Noviembre	2023-12-11T00:00:00	2024-11-08T01:00:00	8	Radiación solar	0
58425	7	Sololá	701	Sololá	1	Sololá	11	Noviembre	2023-12-11T00:00:00	2024-11-08T02:00:00	2	Temperatura media	16.9
58426	7	Sololá	701	Sololá	1	Sololá	11	Noviembre	2023-12-11T00:00:00	2024-11-08T02:00:00	4	Temperatura máxima	16.9
58427	7	Sololá	701	Sololá	1	Sololá	11	Noviembre	2023-12-11T00:00:00	2024-11-08T02:00:00	3	Temperatura mínima	16.5
58428	7	Sololá	701	Sololá	1	Sololá	11	Noviembre	2023-12-11T00:00:00	2024-11-08T02:00:00	5	Humedad	83
58429	7	Sololá	701	Sololá	1	Sololá	11	Noviembre	2023-12-11T00:00:00	2024-11-08T02:00:00	6	Velocidad del viento	11.3
58430	7	Sololá	701	Sololá	1	Sololá	11	Noviembre	2023-12-11T00:00:00	2024-11-08T02:00:00	7	Dirección del viento	11.27
58431	7	Sololá	701	Sololá	1	Sololá	11	Noviembre	2023-12-11T00:00:00	2024-11-08T02:00:00	1	Precipitación	0
58432	7	Sololá	701	Sololá	1	Sololá	11	Noviembre	2023-12-11T00:00:00	2024-11-08T02:00:00	8	Radiación solar	0
58433	7	Sololá	701	Sololá	1	Sololá	11	Noviembre	2023-12-11T00:00:00	2024-11-08T03:00:00	2	Temperatura media	16.7
58434	7	Sololá	701	Sololá	1	Sololá	11	Noviembre	2023-12-11T00:00:00	2024-11-08T03:00:00	4	Temperatura máxima	16.9
58435	7	Sololá	701	Sololá	1	Sololá	11	Noviembre	2023-12-11T00:00:00	2024-11-08T03:00:00	3	Temperatura mínima	16.7
58436	7	Sololá	701	Sololá	1	Sololá	11	Noviembre	2023-12-11T00:00:00	2024-11-08T03:00:00	5	Humedad	83
58437	7	Sololá	701	Sololá	1	Sololá	11	Noviembre	2023-12-11T00:00:00	2024-11-08T03:00:00	6	Velocidad del viento	9.7
58438	7	Sololá	701	Sololá	1	Sololá	11	Noviembre	2023-12-11T00:00:00	2024-11-08T03:00:00	7	Dirección del viento	9.66
58439	7	Sololá	701	Sololá	1	Sololá	11	Noviembre	2023-12-11T00:00:00	2024-11-08T03:00:00	1	Precipitación	0
58440	7	Sololá	701	Sololá	1	Sololá	11	Noviembre	2023-12-11T00:00:00	2024-11-08T03:00:00	8	Radiación solar	0
58441	7	Sololá	701	Sololá	1	Sololá	11	Noviembre	2023-12-11T00:00:00	2024-11-08T04:00:00	2	Temperatura media	16.6
58442	7	Sololá	701	Sololá	1	Sololá	11	Noviembre	2023-12-11T00:00:00	2024-11-08T04:00:00	4	Temperatura máxima	16.8
58443	7	Sololá	701	Sololá	1	Sololá	11	Noviembre	2023-12-11T00:00:00	2024-11-08T04:00:00	3	Temperatura mínima	16.6
58444	7	Sololá	701	Sololá	1	Sololá	11	Noviembre	2023-12-11T00:00:00	2024-11-08T04:00:00	5	Humedad	84
58445	7	Sololá	701	Sololá	1	Sololá	11	Noviembre	2023-12-11T00:00:00	2024-11-08T04:00:00	6	Velocidad del viento	9.7
58446	7	Sololá	701	Sololá	1	Sololá	11	Noviembre	2023-12-11T00:00:00	2024-11-08T04:00:00	7	Dirección del viento	9.66
58447	7	Sololá	701	Sololá	1	Sololá	11	Noviembre	2023-12-11T00:00:00	2024-11-08T04:00:00	1	Precipitación	0
58448	7	Sololá	701	Sololá	1	Sololá	11	Noviembre	2023-12-11T00:00:00	2024-11-08T04:00:00	8	Radiación solar	0
58449	7	Sololá	701	Sololá	1	Sololá	11	Noviembre	2023-12-11T00:00:00	2024-11-08T05:00:00	2	Temperatura media	16.4
58450	7	Sololá	701	Sololá	1	Sololá	11	Noviembre	2023-12-11T00:00:00	2024-11-08T05:00:00	4	Temperatura máxima	16.6
58451	7	Sololá	701	Sololá	1	Sololá	11	Noviembre	2023-12-11T00:00:00	2024-11-08T05:00:00	3	Temperatura mínima	16.2
58452	7	Sololá	701	Sololá	1	Sololá	11	Noviembre	2023-12-11T00:00:00	2024-11-08T05:00:00	5	Humedad	82
58453	7	Sololá	701	Sololá	1	Sololá	11	Noviembre	2023-12-11T00:00:00	2024-11-08T05:00:00	6	Velocidad del viento	8
58454	7	Sololá	701	Sololá	1	Sololá	11	Noviembre	2023-12-11T00:00:00	2024-11-08T05:00:00	7	Dirección del viento	8.05
58455	7	Sololá	701	Sololá	1	Sololá	11	Noviembre	2023-12-11T00:00:00	2024-11-08T05:00:00	1	Precipitación	0
58456	7	Sololá	701	Sololá	1	Sololá	11	Noviembre	2023-12-11T00:00:00	2024-11-08T05:00:00	8	Radiación solar	0
58457	7	Sololá	701	Sololá	1	Sololá	11	Noviembre	2023-12-11T00:00:00	2024-11-08T06:00:00	2	Temperatura media	17.1
58458	7	Sololá	701	Sololá	1	Sololá	11	Noviembre	2023-12-11T00:00:00	2024-11-08T06:00:00	4	Temperatura máxima	17.1
58459	7	Sololá	701	Sololá	1	Sololá	11	Noviembre	2023-12-11T00:00:00	2024-11-08T06:00:00	3	Temperatura mínima	16.4
58460	7	Sololá	701	Sololá	1	Sololá	11	Noviembre	2023-12-11T00:00:00	2024-11-08T06:00:00	5	Humedad	81
58461	7	Sololá	701	Sololá	1	Sololá	11	Noviembre	2023-12-11T00:00:00	2024-11-08T06:00:00	6	Velocidad del viento	9.7
58462	7	Sololá	701	Sololá	1	Sololá	11	Noviembre	2023-12-11T00:00:00	2024-11-08T06:00:00	7	Dirección del viento	9.66
58463	7	Sololá	701	Sololá	1	Sololá	11	Noviembre	2023-12-11T00:00:00	2024-11-08T06:00:00	1	Precipitación	0
58464	7	Sololá	701	Sololá	1	Sololá	11	Noviembre	2023-12-11T00:00:00	2024-11-08T06:00:00	8	Radiación solar	0
58465	7	Sololá	701	Sololá	1	Sololá	11	Noviembre	2023-12-11T00:00:00	2024-11-08T07:00:00	2	Temperatura media	18.5
58466	7	Sololá	701	Sololá	1	Sololá	11	Noviembre	2023-12-11T00:00:00	2024-11-08T07:00:00	4	Temperatura máxima	18.5
58467	7	Sololá	701	Sololá	1	Sololá	11	Noviembre	2023-12-11T00:00:00	2024-11-08T07:00:00	3	Temperatura mínima	17.1
58468	7	Sololá	701	Sololá	1	Sololá	11	Noviembre	2023-12-11T00:00:00	2024-11-08T07:00:00	5	Humedad	75
58469	7	Sololá	701	Sololá	1	Sololá	11	Noviembre	2023-12-11T00:00:00	2024-11-08T07:00:00	6	Velocidad del viento	8
58470	7	Sololá	701	Sololá	1	Sololá	11	Noviembre	2023-12-11T00:00:00	2024-11-08T07:00:00	7	Dirección del viento	8.05
58471	7	Sololá	701	Sololá	1	Sololá	11	Noviembre	2023-12-11T00:00:00	2024-11-08T07:00:00	1	Precipitación	0
58472	7	Sololá	701	Sololá	1	Sololá	11	Noviembre	2023-12-11T00:00:00	2024-11-08T07:00:00	8	Radiación solar	19
58473	7	Sololá	701	Sololá	1	Sololá	11	Noviembre	2023-12-11T00:00:00	2024-11-08T08:00:00	2	Temperatura media	19.9
58474	7	Sololá	701	Sololá	1	Sololá	11	Noviembre	2023-12-11T00:00:00	2024-11-08T08:00:00	4	Temperatura máxima	19.9
58475	7	Sololá	701	Sololá	1	Sololá	11	Noviembre	2023-12-11T00:00:00	2024-11-08T08:00:00	3	Temperatura mínima	18.5
58476	7	Sololá	701	Sololá	1	Sololá	11	Noviembre	2023-12-11T00:00:00	2024-11-08T08:00:00	5	Humedad	71
58477	7	Sololá	701	Sololá	1	Sololá	11	Noviembre	2023-12-11T00:00:00	2024-11-08T08:00:00	6	Velocidad del viento	9.7
58478	7	Sololá	701	Sololá	1	Sololá	11	Noviembre	2023-12-11T00:00:00	2024-11-08T08:00:00	7	Dirección del viento	9.66
58479	7	Sololá	701	Sololá	1	Sololá	11	Noviembre	2023-12-11T00:00:00	2024-11-08T08:00:00	1	Precipitación	0
58480	7	Sololá	701	Sololá	1	Sololá	11	Noviembre	2023-12-11T00:00:00	2024-11-08T08:00:00	8	Radiación solar	60
58481	7	Sololá	701	Sololá	1	Sololá	11	Noviembre	2023-12-11T00:00:00	2024-11-08T09:00:00	2	Temperatura media	21
58482	7	Sololá	701	Sololá	1	Sololá	11	Noviembre	2023-12-11T00:00:00	2024-11-08T09:00:00	4	Temperatura máxima	21.1
58483	7	Sololá	701	Sololá	1	Sololá	11	Noviembre	2023-12-11T00:00:00	2024-11-08T09:00:00	3	Temperatura mínima	19.7
58484	7	Sololá	701	Sololá	1	Sololá	11	Noviembre	2023-12-11T00:00:00	2024-11-08T09:00:00	5	Humedad	64
58485	7	Sololá	701	Sololá	1	Sololá	11	Noviembre	2023-12-11T00:00:00	2024-11-08T09:00:00	6	Velocidad del viento	11.3
58486	7	Sololá	701	Sololá	1	Sololá	11	Noviembre	2023-12-11T00:00:00	2024-11-08T09:00:00	7	Dirección del viento	11.27
58487	7	Sololá	701	Sololá	1	Sololá	11	Noviembre	2023-12-11T00:00:00	2024-11-08T09:00:00	1	Precipitación	0
58488	7	Sololá	701	Sololá	1	Sololá	11	Noviembre	2023-12-11T00:00:00	2024-11-08T09:00:00	8	Radiación solar	486
58489	7	Sololá	701	Sololá	1	Sololá	11	Noviembre	2023-12-11T00:00:00	2024-11-08T10:00:00	2	Temperatura media	21.1
58490	7	Sololá	701	Sololá	1	Sololá	11	Noviembre	2023-12-11T00:00:00	2024-11-08T10:00:00	4	Temperatura máxima	22.1
58491	7	Sololá	701	Sololá	1	Sololá	11	Noviembre	2023-12-11T00:00:00	2024-11-08T10:00:00	3	Temperatura mínima	20.8
58492	7	Sololá	701	Sololá	1	Sololá	11	Noviembre	2023-12-11T00:00:00	2024-11-08T10:00:00	5	Humedad	61
58493	7	Sololá	701	Sololá	1	Sololá	11	Noviembre	2023-12-11T00:00:00	2024-11-08T10:00:00	6	Velocidad del viento	11.3
58494	7	Sololá	701	Sololá	1	Sololá	11	Noviembre	2023-12-11T00:00:00	2024-11-08T10:00:00	7	Dirección del viento	11.27
58495	7	Sololá	701	Sololá	1	Sololá	11	Noviembre	2023-12-11T00:00:00	2024-11-08T10:00:00	1	Precipitación	0
58496	7	Sololá	701	Sololá	1	Sololá	11	Noviembre	2023-12-11T00:00:00	2024-11-08T10:00:00	8	Radiación solar	686
58497	7	Sololá	701	Sololá	1	Sololá	11	Noviembre	2023-12-11T00:00:00	2024-11-08T11:00:00	2	Temperatura media	22.1
58498	7	Sololá	701	Sololá	1	Sololá	11	Noviembre	2023-12-11T00:00:00	2024-11-08T11:00:00	4	Temperatura máxima	22.3
58499	7	Sololá	701	Sololá	1	Sololá	11	Noviembre	2023-12-11T00:00:00	2024-11-08T11:00:00	3	Temperatura mínima	21.1
58500	7	Sololá	701	Sololá	1	Sololá	11	Noviembre	2023-12-11T00:00:00	2024-11-08T11:00:00	5	Humedad	60
58501	7	Sololá	701	Sololá	1	Sololá	11	Noviembre	2023-12-11T00:00:00	2024-11-08T11:00:00	6	Velocidad del viento	11.3
58502	7	Sololá	701	Sololá	1	Sololá	11	Noviembre	2023-12-11T00:00:00	2024-11-08T11:00:00	7	Dirección del viento	11.27
58503	7	Sololá	701	Sololá	1	Sololá	11	Noviembre	2023-12-11T00:00:00	2024-11-08T11:00:00	1	Precipitación	0
58504	7	Sololá	701	Sololá	1	Sololá	11	Noviembre	2023-12-11T00:00:00	2024-11-08T11:00:00	8	Radiación solar	747
58505	7	Sololá	701	Sololá	1	Sololá	11	Noviembre	2023-12-11T00:00:00	2024-11-08T12:00:00	2	Temperatura media	22.3
58506	7	Sololá	701	Sololá	1	Sololá	11	Noviembre	2023-12-11T00:00:00	2024-11-08T12:00:00	4	Temperatura máxima	22.8
58507	7	Sololá	701	Sololá	1	Sololá	11	Noviembre	2023-12-11T00:00:00	2024-11-08T12:00:00	3	Temperatura mínima	21.8
58508	7	Sololá	701	Sololá	1	Sololá	11	Noviembre	2023-12-11T00:00:00	2024-11-08T12:00:00	5	Humedad	58
58509	7	Sololá	701	Sololá	1	Sololá	11	Noviembre	2023-12-11T00:00:00	2024-11-08T12:00:00	6	Velocidad del viento	12.9
58510	7	Sololá	701	Sololá	1	Sololá	11	Noviembre	2023-12-11T00:00:00	2024-11-08T12:00:00	7	Dirección del viento	12.87
58511	7	Sololá	701	Sololá	1	Sololá	11	Noviembre	2023-12-11T00:00:00	2024-11-08T12:00:00	1	Precipitación	0
58512	7	Sololá	701	Sololá	1	Sololá	11	Noviembre	2023-12-11T00:00:00	2024-11-08T12:00:00	8	Radiación solar	797
58513	7	Sololá	701	Sololá	1	Sololá	11	Noviembre	2023-12-11T00:00:00	2024-11-08T13:00:00	2	Temperatura media	22.4
58514	7	Sololá	701	Sololá	1	Sololá	11	Noviembre	2023-12-11T00:00:00	2024-11-08T13:00:00	4	Temperatura máxima	22.8
58515	7	Sololá	701	Sololá	1	Sololá	11	Noviembre	2023-12-11T00:00:00	2024-11-08T13:00:00	3	Temperatura mínima	22.2
58516	7	Sololá	701	Sololá	1	Sololá	11	Noviembre	2023-12-11T00:00:00	2024-11-08T13:00:00	5	Humedad	58
58517	7	Sololá	701	Sololá	1	Sololá	11	Noviembre	2023-12-11T00:00:00	2024-11-08T13:00:00	6	Velocidad del viento	11.3
58518	7	Sololá	701	Sololá	1	Sololá	11	Noviembre	2023-12-11T00:00:00	2024-11-08T13:00:00	7	Dirección del viento	11.27
58519	7	Sololá	701	Sololá	1	Sololá	11	Noviembre	2023-12-11T00:00:00	2024-11-08T13:00:00	1	Precipitación	0
58520	7	Sololá	701	Sololá	1	Sololá	11	Noviembre	2023-12-11T00:00:00	2024-11-08T13:00:00	8	Radiación solar	890
58521	7	Sololá	701	Sololá	1	Sololá	11	Noviembre	2023-12-11T00:00:00	2024-11-08T14:00:00	2	Temperatura media	22.4
58522	7	Sololá	701	Sololá	1	Sololá	11	Noviembre	2023-12-11T00:00:00	2024-11-08T14:00:00	4	Temperatura máxima	22.6
58523	7	Sololá	701	Sololá	1	Sololá	11	Noviembre	2023-12-11T00:00:00	2024-11-08T14:00:00	3	Temperatura mínima	21.6
58524	7	Sololá	701	Sololá	1	Sololá	11	Noviembre	2023-12-11T00:00:00	2024-11-08T14:00:00	5	Humedad	60
58525	7	Sololá	701	Sololá	1	Sololá	11	Noviembre	2023-12-11T00:00:00	2024-11-08T14:00:00	6	Velocidad del viento	11.3
58526	7	Sololá	701	Sololá	1	Sololá	11	Noviembre	2023-12-11T00:00:00	2024-11-08T14:00:00	7	Dirección del viento	11.27
58527	7	Sololá	701	Sololá	1	Sololá	11	Noviembre	2023-12-11T00:00:00	2024-11-08T14:00:00	1	Precipitación	0
58528	7	Sololá	701	Sololá	1	Sololá	11	Noviembre	2023-12-11T00:00:00	2024-11-08T14:00:00	8	Radiación solar	564
58529	7	Sololá	701	Sololá	1	Sololá	11	Noviembre	2023-12-11T00:00:00	2024-11-08T15:00:00	2	Temperatura media	20
58530	7	Sololá	701	Sololá	1	Sololá	11	Noviembre	2023-12-11T00:00:00	2024-11-08T15:00:00	4	Temperatura máxima	22.7
58531	7	Sololá	701	Sololá	1	Sololá	11	Noviembre	2023-12-11T00:00:00	2024-11-08T15:00:00	3	Temperatura mínima	19.9
58532	7	Sololá	701	Sololá	1	Sololá	11	Noviembre	2023-12-11T00:00:00	2024-11-08T15:00:00	5	Humedad	70
58533	7	Sololá	701	Sololá	1	Sololá	11	Noviembre	2023-12-11T00:00:00	2024-11-08T15:00:00	6	Velocidad del viento	11.3
58534	7	Sololá	701	Sololá	1	Sololá	11	Noviembre	2023-12-11T00:00:00	2024-11-08T15:00:00	7	Dirección del viento	11.27
58535	7	Sololá	701	Sololá	1	Sololá	11	Noviembre	2023-12-11T00:00:00	2024-11-08T15:00:00	1	Precipitación	0
58536	7	Sololá	701	Sololá	1	Sololá	11	Noviembre	2023-12-11T00:00:00	2024-11-08T15:00:00	8	Radiación solar	178
58537	7	Sololá	701	Sololá	1	Sololá	11	Noviembre	2023-12-11T00:00:00	2024-11-08T16:00:00	2	Temperatura media	19.3
58538	7	Sololá	701	Sololá	1	Sololá	11	Noviembre	2023-12-11T00:00:00	2024-11-08T16:00:00	4	Temperatura máxima	20.6
58539	7	Sololá	701	Sololá	1	Sololá	11	Noviembre	2023-12-11T00:00:00	2024-11-08T16:00:00	3	Temperatura mínima	19.2
58540	7	Sololá	701	Sololá	1	Sololá	11	Noviembre	2023-12-11T00:00:00	2024-11-08T16:00:00	5	Humedad	74
58541	7	Sololá	701	Sololá	1	Sololá	11	Noviembre	2023-12-11T00:00:00	2024-11-08T16:00:00	6	Velocidad del viento	11.3
58542	7	Sololá	701	Sololá	1	Sololá	11	Noviembre	2023-12-11T00:00:00	2024-11-08T16:00:00	7	Dirección del viento	11.27
58543	7	Sololá	701	Sololá	1	Sololá	11	Noviembre	2023-12-11T00:00:00	2024-11-08T16:00:00	1	Precipitación	0
58544	7	Sololá	701	Sololá	1	Sololá	11	Noviembre	2023-12-11T00:00:00	2024-11-08T16:00:00	8	Radiación solar	44
58545	7	Sololá	701	Sololá	1	Sololá	11	Noviembre	2023-12-11T00:00:00	2024-11-08T17:00:00	2	Temperatura media	18
58546	7	Sololá	701	Sololá	1	Sololá	11	Noviembre	2023-12-11T00:00:00	2024-11-08T17:00:00	4	Temperatura máxima	19.3
58547	7	Sololá	701	Sololá	1	Sololá	11	Noviembre	2023-12-11T00:00:00	2024-11-08T17:00:00	3	Temperatura mínima	18
58548	7	Sololá	701	Sololá	1	Sololá	11	Noviembre	2023-12-11T00:00:00	2024-11-08T17:00:00	5	Humedad	78
58549	7	Sololá	701	Sololá	1	Sololá	11	Noviembre	2023-12-11T00:00:00	2024-11-08T17:00:00	6	Velocidad del viento	12.9
58550	7	Sololá	701	Sololá	1	Sololá	11	Noviembre	2023-12-11T00:00:00	2024-11-08T17:00:00	7	Dirección del viento	12.87
58551	7	Sololá	701	Sololá	1	Sololá	11	Noviembre	2023-12-11T00:00:00	2024-11-08T17:00:00	1	Precipitación	0
58552	7	Sololá	701	Sololá	1	Sololá	11	Noviembre	2023-12-11T00:00:00	2024-11-08T17:00:00	8	Radiación solar	22
58553	7	Sololá	701	Sololá	1	Sololá	11	Noviembre	2023-12-11T00:00:00	2024-11-08T18:00:00	2	Temperatura media	17.6
58554	7	Sololá	701	Sololá	1	Sololá	11	Noviembre	2023-12-11T00:00:00	2024-11-08T18:00:00	4	Temperatura máxima	18
58555	7	Sololá	701	Sololá	1	Sololá	11	Noviembre	2023-12-11T00:00:00	2024-11-08T18:00:00	3	Temperatura mínima	17.4
58556	7	Sololá	701	Sololá	1	Sololá	11	Noviembre	2023-12-11T00:00:00	2024-11-08T18:00:00	5	Humedad	78
58557	7	Sololá	701	Sololá	1	Sololá	11	Noviembre	2023-12-11T00:00:00	2024-11-08T18:00:00	6	Velocidad del viento	9.7
58558	7	Sololá	701	Sololá	1	Sololá	11	Noviembre	2023-12-11T00:00:00	2024-11-08T18:00:00	7	Dirección del viento	9.66
58559	7	Sololá	701	Sololá	1	Sololá	11	Noviembre	2023-12-11T00:00:00	2024-11-08T18:00:00	1	Precipitación	0
58560	7	Sololá	701	Sololá	1	Sololá	11	Noviembre	2023-12-11T00:00:00	2024-11-08T18:00:00	8	Radiación solar	7
58561	7	Sololá	701	Sololá	1	Sololá	11	Noviembre	2023-12-11T00:00:00	2024-11-08T19:00:00	2	Temperatura media	16.8
58562	7	Sololá	701	Sololá	1	Sololá	11	Noviembre	2023-12-11T00:00:00	2024-11-08T19:00:00	4	Temperatura máxima	17.6
58563	7	Sololá	701	Sololá	1	Sololá	11	Noviembre	2023-12-11T00:00:00	2024-11-08T19:00:00	3	Temperatura mínima	16.8
58564	7	Sololá	701	Sololá	1	Sololá	11	Noviembre	2023-12-11T00:00:00	2024-11-08T19:00:00	5	Humedad	78
58565	7	Sololá	701	Sololá	1	Sololá	11	Noviembre	2023-12-11T00:00:00	2024-11-08T19:00:00	6	Velocidad del viento	11.3
58566	7	Sololá	701	Sololá	1	Sololá	11	Noviembre	2023-12-11T00:00:00	2024-11-08T19:00:00	7	Dirección del viento	11.27
58567	7	Sololá	701	Sololá	1	Sololá	11	Noviembre	2023-12-11T00:00:00	2024-11-08T19:00:00	1	Precipitación	0
58568	7	Sololá	701	Sololá	1	Sololá	11	Noviembre	2023-12-11T00:00:00	2024-11-08T19:00:00	8	Radiación solar	0
58569	7	Sololá	701	Sololá	1	Sololá	11	Noviembre	2023-12-11T00:00:00	2024-11-08T20:00:00	2	Temperatura media	16.4
58570	7	Sololá	701	Sololá	1	Sololá	11	Noviembre	2023-12-11T00:00:00	2024-11-08T20:00:00	4	Temperatura máxima	16.8
58571	7	Sololá	701	Sololá	1	Sololá	11	Noviembre	2023-12-11T00:00:00	2024-11-08T20:00:00	3	Temperatura mínima	16.4
58572	7	Sololá	701	Sololá	1	Sololá	11	Noviembre	2023-12-11T00:00:00	2024-11-08T20:00:00	5	Humedad	82
58573	7	Sololá	701	Sololá	1	Sololá	11	Noviembre	2023-12-11T00:00:00	2024-11-08T20:00:00	6	Velocidad del viento	11.3
58574	7	Sololá	701	Sololá	1	Sololá	11	Noviembre	2023-12-11T00:00:00	2024-11-08T20:00:00	7	Dirección del viento	11.27
58575	7	Sololá	701	Sololá	1	Sololá	11	Noviembre	2023-12-11T00:00:00	2024-11-08T20:00:00	1	Precipitación	0
58576	7	Sololá	701	Sololá	1	Sololá	11	Noviembre	2023-12-11T00:00:00	2024-11-08T20:00:00	8	Radiación solar	0
58577	7	Sololá	701	Sololá	1	Sololá	11	Noviembre	2023-12-11T00:00:00	2024-11-08T21:00:00	2	Temperatura media	16.1
58578	7	Sololá	701	Sololá	1	Sololá	11	Noviembre	2023-12-11T00:00:00	2024-11-08T21:00:00	4	Temperatura máxima	16.4
58579	7	Sololá	701	Sololá	1	Sololá	11	Noviembre	2023-12-11T00:00:00	2024-11-08T21:00:00	3	Temperatura mínima	16
58580	7	Sololá	701	Sololá	1	Sololá	11	Noviembre	2023-12-11T00:00:00	2024-11-08T21:00:00	5	Humedad	84
58581	7	Sololá	701	Sololá	1	Sololá	11	Noviembre	2023-12-11T00:00:00	2024-11-08T21:00:00	6	Velocidad del viento	11.3
58582	7	Sololá	701	Sololá	1	Sololá	11	Noviembre	2023-12-11T00:00:00	2024-11-08T21:00:00	7	Dirección del viento	11.27
58583	7	Sololá	701	Sololá	1	Sololá	11	Noviembre	2023-12-11T00:00:00	2024-11-08T21:00:00	1	Precipitación	0
58584	7	Sololá	701	Sololá	1	Sololá	11	Noviembre	2023-12-11T00:00:00	2024-11-08T21:00:00	8	Radiación solar	0
58585	7	Sololá	701	Sololá	1	Sololá	11	Noviembre	2023-12-11T00:00:00	2024-11-08T22:00:00	2	Temperatura media	16.1
58586	7	Sololá	701	Sololá	1	Sololá	11	Noviembre	2023-12-11T00:00:00	2024-11-08T22:00:00	4	Temperatura máxima	16.2
58587	7	Sololá	701	Sololá	1	Sololá	11	Noviembre	2023-12-11T00:00:00	2024-11-08T22:00:00	3	Temperatura mínima	16.1
58588	7	Sololá	701	Sololá	1	Sololá	11	Noviembre	2023-12-11T00:00:00	2024-11-08T22:00:00	5	Humedad	84
58589	7	Sololá	701	Sololá	1	Sololá	11	Noviembre	2023-12-11T00:00:00	2024-11-08T22:00:00	6	Velocidad del viento	14.5
58590	7	Sololá	701	Sololá	1	Sololá	11	Noviembre	2023-12-11T00:00:00	2024-11-08T22:00:00	7	Dirección del viento	14.48
58591	7	Sololá	701	Sololá	1	Sololá	11	Noviembre	2023-12-11T00:00:00	2024-11-08T22:00:00	1	Precipitación	0
58592	7	Sololá	701	Sololá	1	Sololá	11	Noviembre	2023-12-11T00:00:00	2024-11-08T22:00:00	8	Radiación solar	0
58593	7	Sololá	701	Sololá	1	Sololá	11	Noviembre	2023-12-11T00:00:00	2024-11-08T23:00:00	2	Temperatura media	16
58594	7	Sololá	701	Sololá	1	Sololá	11	Noviembre	2023-12-11T00:00:00	2024-11-08T23:00:00	4	Temperatura máxima	16.2
58595	7	Sololá	701	Sololá	1	Sololá	11	Noviembre	2023-12-11T00:00:00	2024-11-08T23:00:00	3	Temperatura mínima	15.9
58596	7	Sololá	701	Sololá	1	Sololá	11	Noviembre	2023-12-11T00:00:00	2024-11-08T23:00:00	5	Humedad	82
58597	7	Sololá	701	Sololá	1	Sololá	11	Noviembre	2023-12-11T00:00:00	2024-11-08T23:00:00	6	Velocidad del viento	11.3
58598	7	Sololá	701	Sololá	1	Sololá	11	Noviembre	2023-12-11T00:00:00	2024-11-08T23:00:00	7	Dirección del viento	11.27
58599	7	Sololá	701	Sololá	1	Sololá	11	Noviembre	2023-12-11T00:00:00	2024-11-08T23:00:00	1	Precipitación	0
58600	7	Sololá	701	Sololá	1	Sololá	11	Noviembre	2023-12-11T00:00:00	2024-11-08T23:00:00	8	Radiación solar	0
58601	7	Sololá	701	Sololá	1	Sololá	11	Noviembre	2023-11-13T00:00:00	2024-11-08T00:00:00	2	Temperatura media	15.8
58602	7	Sololá	701	Sololá	1	Sololá	11	Noviembre	2023-11-13T00:00:00	2024-11-08T00:00:00	4	Temperatura máxima	16.2
58603	7	Sololá	701	Sololá	1	Sololá	11	Noviembre	2023-11-13T00:00:00	2024-11-08T00:00:00	3	Temperatura mínima	15.8
58604	7	Sololá	701	Sololá	1	Sololá	11	Noviembre	2023-11-13T00:00:00	2024-11-08T00:00:00	5	Humedad	84
58605	7	Sololá	701	Sololá	1	Sololá	11	Noviembre	2023-11-13T00:00:00	2024-11-08T00:00:00	6	Velocidad del viento	12.9
58606	7	Sololá	701	Sololá	1	Sololá	11	Noviembre	2023-11-13T00:00:00	2024-11-08T00:00:00	7	Dirección del viento	12.87
58607	7	Sololá	701	Sololá	1	Sololá	11	Noviembre	2023-11-13T00:00:00	2024-11-08T00:00:00	1	Precipitación	0
58608	7	Sololá	701	Sololá	1	Sololá	11	Noviembre	2023-11-13T00:00:00	2024-11-08T00:00:00	8	Radiación solar	0
58609	7	Sololá	701	Sololá	1	Sololá	11	Noviembre	2023-11-13T00:00:00	2024-11-08T01:00:00	2	Temperatura media	14.8
58610	7	Sololá	701	Sololá	1	Sololá	11	Noviembre	2023-11-13T00:00:00	2024-11-08T01:00:00	4	Temperatura máxima	15.8
58611	7	Sololá	701	Sololá	1	Sololá	11	Noviembre	2023-11-13T00:00:00	2024-11-08T01:00:00	3	Temperatura mínima	14.8
58612	7	Sololá	701	Sololá	1	Sololá	11	Noviembre	2023-11-13T00:00:00	2024-11-08T01:00:00	5	Humedad	86
58613	7	Sololá	701	Sololá	1	Sololá	11	Noviembre	2023-11-13T00:00:00	2024-11-08T01:00:00	6	Velocidad del viento	0
58614	7	Sololá	701	Sololá	1	Sololá	11	Noviembre	2023-11-13T00:00:00	2024-11-08T01:00:00	7	Dirección del viento	0
58615	7	Sololá	701	Sololá	1	Sololá	11	Noviembre	2023-11-13T00:00:00	2024-11-08T01:00:00	1	Precipitación	0
58616	7	Sololá	701	Sololá	1	Sololá	11	Noviembre	2023-11-13T00:00:00	2024-11-08T01:00:00	8	Radiación solar	0
58617	7	Sololá	701	Sololá	1	Sololá	11	Noviembre	2023-11-13T00:00:00	2024-11-08T02:00:00	2	Temperatura media	14.4
58618	7	Sololá	701	Sololá	1	Sololá	11	Noviembre	2023-11-13T00:00:00	2024-11-08T02:00:00	4	Temperatura máxima	14.8
58619	7	Sololá	701	Sololá	1	Sololá	11	Noviembre	2023-11-13T00:00:00	2024-11-08T02:00:00	3	Temperatura mínima	14.3
58620	7	Sololá	701	Sololá	1	Sololá	11	Noviembre	2023-11-13T00:00:00	2024-11-08T02:00:00	5	Humedad	83
58621	7	Sololá	701	Sololá	1	Sololá	11	Noviembre	2023-11-13T00:00:00	2024-11-08T02:00:00	6	Velocidad del viento	0
58622	7	Sololá	701	Sololá	1	Sololá	11	Noviembre	2023-11-13T00:00:00	2024-11-08T02:00:00	7	Dirección del viento	0
58623	7	Sololá	701	Sololá	1	Sololá	11	Noviembre	2023-11-13T00:00:00	2024-11-08T02:00:00	1	Precipitación	0
58624	7	Sololá	701	Sololá	1	Sololá	11	Noviembre	2023-11-13T00:00:00	2024-11-08T02:00:00	8	Radiación solar	0
58625	7	Sololá	701	Sololá	1	Sololá	11	Noviembre	2023-11-13T00:00:00	2024-11-08T03:00:00	2	Temperatura media	14.1
58626	7	Sololá	701	Sololá	1	Sololá	11	Noviembre	2023-11-13T00:00:00	2024-11-08T03:00:00	4	Temperatura máxima	14.4
58627	7	Sololá	701	Sololá	1	Sololá	11	Noviembre	2023-11-13T00:00:00	2024-11-08T03:00:00	3	Temperatura mínima	14.1
58628	7	Sololá	701	Sololá	1	Sololá	11	Noviembre	2023-11-13T00:00:00	2024-11-08T03:00:00	5	Humedad	84
58629	7	Sololá	701	Sololá	1	Sololá	11	Noviembre	2023-11-13T00:00:00	2024-11-08T03:00:00	6	Velocidad del viento	0
58630	7	Sololá	701	Sololá	1	Sololá	11	Noviembre	2023-11-13T00:00:00	2024-11-08T03:00:00	7	Dirección del viento	0
58631	7	Sololá	701	Sololá	1	Sololá	11	Noviembre	2023-11-13T00:00:00	2024-11-08T03:00:00	1	Precipitación	0
58632	7	Sololá	701	Sololá	1	Sololá	11	Noviembre	2023-11-13T00:00:00	2024-11-08T03:00:00	8	Radiación solar	0
58633	7	Sololá	701	Sololá	1	Sololá	11	Noviembre	2023-11-13T00:00:00	2024-11-08T04:00:00	2	Temperatura media	14.3
58634	7	Sololá	701	Sololá	1	Sololá	11	Noviembre	2023-11-13T00:00:00	2024-11-08T04:00:00	4	Temperatura máxima	14.3
58635	7	Sololá	701	Sololá	1	Sololá	11	Noviembre	2023-11-13T00:00:00	2024-11-08T04:00:00	3	Temperatura mínima	14
58636	7	Sololá	701	Sololá	1	Sololá	11	Noviembre	2023-11-13T00:00:00	2024-11-08T04:00:00	5	Humedad	85
58637	7	Sololá	701	Sololá	1	Sololá	11	Noviembre	2023-11-13T00:00:00	2024-11-08T04:00:00	6	Velocidad del viento	0
58638	7	Sololá	701	Sololá	1	Sololá	11	Noviembre	2023-11-13T00:00:00	2024-11-08T04:00:00	7	Dirección del viento	0
58639	7	Sololá	701	Sololá	1	Sololá	11	Noviembre	2023-11-13T00:00:00	2024-11-08T04:00:00	1	Precipitación	0
58640	7	Sololá	701	Sololá	1	Sololá	11	Noviembre	2023-11-13T00:00:00	2024-11-08T04:00:00	8	Radiación solar	0
58641	7	Sololá	701	Sololá	1	Sololá	11	Noviembre	2023-11-13T00:00:00	2024-11-08T05:00:00	2	Temperatura media	14.6
58642	7	Sololá	701	Sololá	1	Sololá	11	Noviembre	2023-11-13T00:00:00	2024-11-08T05:00:00	4	Temperatura máxima	14.6
58643	7	Sololá	701	Sololá	1	Sololá	11	Noviembre	2023-11-13T00:00:00	2024-11-08T05:00:00	3	Temperatura mínima	14.3
58644	7	Sololá	701	Sololá	1	Sololá	11	Noviembre	2023-11-13T00:00:00	2024-11-08T05:00:00	5	Humedad	87
58645	7	Sololá	701	Sololá	1	Sololá	11	Noviembre	2023-11-13T00:00:00	2024-11-08T05:00:00	6	Velocidad del viento	0
58646	7	Sololá	701	Sololá	1	Sololá	11	Noviembre	2023-11-13T00:00:00	2024-11-08T05:00:00	7	Dirección del viento	0
58647	7	Sololá	701	Sololá	1	Sololá	11	Noviembre	2023-11-13T00:00:00	2024-11-08T05:00:00	1	Precipitación	0
58648	7	Sololá	701	Sololá	1	Sololá	11	Noviembre	2023-11-13T00:00:00	2024-11-08T05:00:00	8	Radiación solar	0
58649	7	Sololá	701	Sololá	1	Sololá	11	Noviembre	2023-11-13T00:00:00	2024-11-08T06:00:00	2	Temperatura media	15.5
58650	7	Sololá	701	Sololá	1	Sololá	11	Noviembre	2023-11-13T00:00:00	2024-11-08T06:00:00	4	Temperatura máxima	15.5
58651	7	Sololá	701	Sololá	1	Sololá	11	Noviembre	2023-11-13T00:00:00	2024-11-08T06:00:00	3	Temperatura mínima	14.6
58652	7	Sololá	701	Sololá	1	Sololá	11	Noviembre	2023-11-13T00:00:00	2024-11-08T06:00:00	5	Humedad	85
58653	7	Sololá	701	Sololá	1	Sololá	11	Noviembre	2023-11-13T00:00:00	2024-11-08T06:00:00	6	Velocidad del viento	0
58654	7	Sololá	701	Sololá	1	Sololá	11	Noviembre	2023-11-13T00:00:00	2024-11-08T06:00:00	7	Dirección del viento	0
58655	7	Sololá	701	Sololá	1	Sololá	11	Noviembre	2023-11-13T00:00:00	2024-11-08T06:00:00	1	Precipitación	0
58656	7	Sololá	701	Sololá	1	Sololá	11	Noviembre	2023-11-13T00:00:00	2024-11-08T06:00:00	8	Radiación solar	16
58657	7	Sololá	701	Sololá	1	Sololá	11	Noviembre	2023-11-13T00:00:00	2024-11-08T07:00:00	2	Temperatura media	17.1
58658	7	Sololá	701	Sololá	1	Sololá	11	Noviembre	2023-11-13T00:00:00	2024-11-08T07:00:00	4	Temperatura máxima	17.1
58659	7	Sololá	701	Sololá	1	Sololá	11	Noviembre	2023-11-13T00:00:00	2024-11-08T07:00:00	3	Temperatura mínima	15.5
58660	7	Sololá	701	Sololá	1	Sololá	11	Noviembre	2023-11-13T00:00:00	2024-11-08T07:00:00	5	Humedad	81
58661	7	Sololá	701	Sololá	1	Sololá	11	Noviembre	2023-11-13T00:00:00	2024-11-08T07:00:00	6	Velocidad del viento	1.6
58662	7	Sololá	701	Sololá	1	Sololá	11	Noviembre	2023-11-13T00:00:00	2024-11-08T07:00:00	7	Dirección del viento	1.61
58663	7	Sololá	701	Sololá	1	Sololá	11	Noviembre	2023-11-13T00:00:00	2024-11-08T07:00:00	1	Precipitación	0
58664	7	Sololá	701	Sololá	1	Sololá	11	Noviembre	2023-11-13T00:00:00	2024-11-08T07:00:00	8	Radiación solar	108
58665	7	Sololá	701	Sololá	1	Sololá	11	Noviembre	2023-11-13T00:00:00	2024-11-08T08:00:00	2	Temperatura media	20.7
58666	7	Sololá	701	Sololá	1	Sololá	11	Noviembre	2023-11-13T00:00:00	2024-11-08T08:00:00	4	Temperatura máxima	20.7
58667	7	Sololá	701	Sololá	1	Sololá	11	Noviembre	2023-11-13T00:00:00	2024-11-08T08:00:00	3	Temperatura mínima	17.1
58668	7	Sololá	701	Sololá	1	Sololá	11	Noviembre	2023-11-13T00:00:00	2024-11-08T08:00:00	5	Humedad	72
58669	7	Sololá	701	Sololá	1	Sololá	11	Noviembre	2023-11-13T00:00:00	2024-11-08T08:00:00	6	Velocidad del viento	0
58670	7	Sololá	701	Sololá	1	Sololá	11	Noviembre	2023-11-13T00:00:00	2024-11-08T08:00:00	7	Dirección del viento	0
58671	7	Sololá	701	Sololá	1	Sololá	11	Noviembre	2023-11-13T00:00:00	2024-11-08T08:00:00	1	Precipitación	0
58672	7	Sololá	701	Sololá	1	Sololá	11	Noviembre	2023-11-13T00:00:00	2024-11-08T08:00:00	8	Radiación solar	536
58673	7	Sololá	701	Sololá	1	Sololá	11	Noviembre	2023-11-13T00:00:00	2024-11-08T09:00:00	2	Temperatura media	22.3
58674	7	Sololá	701	Sololá	1	Sololá	11	Noviembre	2023-11-13T00:00:00	2024-11-08T09:00:00	4	Temperatura máxima	22.3
58675	7	Sololá	701	Sololá	1	Sololá	11	Noviembre	2023-11-13T00:00:00	2024-11-08T09:00:00	3	Temperatura mínima	20.7
58676	7	Sololá	701	Sololá	1	Sololá	11	Noviembre	2023-11-13T00:00:00	2024-11-08T09:00:00	5	Humedad	68
58677	7	Sololá	701	Sololá	1	Sololá	11	Noviembre	2023-11-13T00:00:00	2024-11-08T09:00:00	6	Velocidad del viento	0
58678	7	Sololá	701	Sololá	1	Sololá	11	Noviembre	2023-11-13T00:00:00	2024-11-08T09:00:00	7	Dirección del viento	0
58679	7	Sololá	701	Sololá	1	Sololá	11	Noviembre	2023-11-13T00:00:00	2024-11-08T09:00:00	1	Precipitación	0
58680	7	Sololá	701	Sololá	1	Sololá	11	Noviembre	2023-11-13T00:00:00	2024-11-08T09:00:00	8	Radiación solar	735
58681	7	Sololá	701	Sololá	1	Sololá	11	Noviembre	2023-11-13T00:00:00	2024-11-08T10:00:00	2	Temperatura media	23.2
58682	7	Sololá	701	Sololá	1	Sololá	11	Noviembre	2023-11-13T00:00:00	2024-11-08T10:00:00	4	Temperatura máxima	23.4
58683	7	Sololá	701	Sololá	1	Sololá	11	Noviembre	2023-11-13T00:00:00	2024-11-08T10:00:00	3	Temperatura mínima	22.3
58684	7	Sololá	701	Sololá	1	Sololá	11	Noviembre	2023-11-13T00:00:00	2024-11-08T10:00:00	5	Humedad	65
58685	7	Sololá	701	Sololá	1	Sololá	11	Noviembre	2023-11-13T00:00:00	2024-11-08T10:00:00	6	Velocidad del viento	0
58686	7	Sololá	701	Sololá	1	Sololá	11	Noviembre	2023-11-13T00:00:00	2024-11-08T10:00:00	7	Dirección del viento	0
58687	7	Sololá	701	Sololá	1	Sololá	11	Noviembre	2023-11-13T00:00:00	2024-11-08T10:00:00	1	Precipitación	0
58688	7	Sololá	701	Sololá	1	Sololá	11	Noviembre	2023-11-13T00:00:00	2024-11-08T10:00:00	8	Radiación solar	666
58689	7	Sololá	701	Sololá	1	Sololá	11	Noviembre	2023-11-13T00:00:00	2024-11-08T11:00:00	2	Temperatura media	24.5
58690	7	Sololá	701	Sololá	1	Sololá	11	Noviembre	2023-11-13T00:00:00	2024-11-08T11:00:00	4	Temperatura máxima	25.4
58691	7	Sololá	701	Sololá	1	Sololá	11	Noviembre	2023-11-13T00:00:00	2024-11-08T11:00:00	3	Temperatura mínima	23.2
58692	7	Sololá	701	Sololá	1	Sololá	11	Noviembre	2023-11-13T00:00:00	2024-11-08T11:00:00	5	Humedad	61
58693	7	Sololá	701	Sololá	1	Sololá	11	Noviembre	2023-11-13T00:00:00	2024-11-08T11:00:00	6	Velocidad del viento	0
58694	7	Sololá	701	Sololá	1	Sololá	11	Noviembre	2023-11-13T00:00:00	2024-11-08T11:00:00	7	Dirección del viento	0
58695	7	Sololá	701	Sololá	1	Sololá	11	Noviembre	2023-11-13T00:00:00	2024-11-08T11:00:00	1	Precipitación	0
58696	7	Sololá	701	Sololá	1	Sololá	11	Noviembre	2023-11-13T00:00:00	2024-11-08T11:00:00	8	Radiación solar	916
58697	7	Sololá	701	Sololá	1	Sololá	11	Noviembre	2023-11-13T00:00:00	2024-11-08T12:00:00	2	Temperatura media	25.1
58698	7	Sololá	701	Sololá	1	Sololá	11	Noviembre	2023-11-13T00:00:00	2024-11-08T12:00:00	4	Temperatura máxima	25.6
58699	7	Sololá	701	Sololá	1	Sololá	11	Noviembre	2023-11-13T00:00:00	2024-11-08T12:00:00	3	Temperatura mínima	24.4
58700	7	Sololá	701	Sololá	1	Sololá	11	Noviembre	2023-11-13T00:00:00	2024-11-08T12:00:00	5	Humedad	60
58701	7	Sololá	701	Sololá	1	Sololá	11	Noviembre	2023-11-13T00:00:00	2024-11-08T12:00:00	6	Velocidad del viento	0
58702	7	Sololá	701	Sololá	1	Sololá	11	Noviembre	2023-11-13T00:00:00	2024-11-08T12:00:00	7	Dirección del viento	0
58703	7	Sololá	701	Sololá	1	Sololá	11	Noviembre	2023-11-13T00:00:00	2024-11-08T12:00:00	1	Precipitación	0
58704	7	Sololá	701	Sololá	1	Sololá	11	Noviembre	2023-11-13T00:00:00	2024-11-08T12:00:00	8	Radiación solar	497
58705	7	Sololá	701	Sololá	1	Sololá	11	Noviembre	2023-11-13T00:00:00	2024-11-08T13:00:00	2	Temperatura media	24.2
58706	7	Sololá	701	Sololá	1	Sololá	11	Noviembre	2023-11-13T00:00:00	2024-11-08T13:00:00	4	Temperatura máxima	25
58707	7	Sololá	701	Sololá	1	Sololá	11	Noviembre	2023-11-13T00:00:00	2024-11-08T13:00:00	3	Temperatura mínima	24.2
58708	7	Sololá	701	Sololá	1	Sololá	11	Noviembre	2023-11-13T00:00:00	2024-11-08T13:00:00	5	Humedad	64
58709	7	Sololá	701	Sololá	1	Sololá	11	Noviembre	2023-11-13T00:00:00	2024-11-08T13:00:00	6	Velocidad del viento	0
58710	7	Sololá	701	Sololá	1	Sololá	11	Noviembre	2023-11-13T00:00:00	2024-11-08T13:00:00	7	Dirección del viento	0
58711	7	Sololá	701	Sololá	1	Sololá	11	Noviembre	2023-11-13T00:00:00	2024-11-08T13:00:00	1	Precipitación	0
58712	7	Sololá	701	Sololá	1	Sololá	11	Noviembre	2023-11-13T00:00:00	2024-11-08T13:00:00	8	Radiación solar	262
58713	7	Sololá	701	Sololá	1	Sololá	11	Noviembre	2023-11-13T00:00:00	2024-11-08T14:00:00	2	Temperatura media	22.6
58714	7	Sololá	701	Sololá	1	Sololá	11	Noviembre	2023-11-13T00:00:00	2024-11-08T14:00:00	4	Temperatura máxima	24.2
58715	7	Sololá	701	Sololá	1	Sololá	11	Noviembre	2023-11-13T00:00:00	2024-11-08T14:00:00	3	Temperatura mínima	22
58716	7	Sololá	701	Sololá	1	Sololá	11	Noviembre	2023-11-13T00:00:00	2024-11-08T14:00:00	5	Humedad	67
58717	7	Sololá	701	Sololá	1	Sololá	11	Noviembre	2023-11-13T00:00:00	2024-11-08T14:00:00	6	Velocidad del viento	0
58718	7	Sololá	701	Sololá	1	Sololá	11	Noviembre	2023-11-13T00:00:00	2024-11-08T14:00:00	7	Dirección del viento	0
58719	7	Sololá	701	Sololá	1	Sololá	11	Noviembre	2023-11-13T00:00:00	2024-11-08T14:00:00	1	Precipitación	0
58720	7	Sololá	701	Sololá	1	Sololá	11	Noviembre	2023-11-13T00:00:00	2024-11-08T14:00:00	8	Radiación solar	140
58721	7	Sololá	701	Sololá	1	Sololá	11	Noviembre	2023-11-13T00:00:00	2024-11-08T15:00:00	2	Temperatura media	21.8
58722	7	Sololá	701	Sololá	1	Sololá	11	Noviembre	2023-11-13T00:00:00	2024-11-08T15:00:00	4	Temperatura máxima	23.5
58723	7	Sololá	701	Sololá	1	Sololá	11	Noviembre	2023-11-13T00:00:00	2024-11-08T15:00:00	3	Temperatura mínima	21.8
58724	7	Sololá	701	Sololá	1	Sololá	11	Noviembre	2023-11-13T00:00:00	2024-11-08T15:00:00	5	Humedad	68
58725	7	Sololá	701	Sololá	1	Sololá	11	Noviembre	2023-11-13T00:00:00	2024-11-08T15:00:00	6	Velocidad del viento	0
58726	7	Sololá	701	Sololá	1	Sololá	11	Noviembre	2023-11-13T00:00:00	2024-11-08T15:00:00	7	Dirección del viento	0
58727	7	Sololá	701	Sololá	1	Sololá	11	Noviembre	2023-11-13T00:00:00	2024-11-08T15:00:00	1	Precipitación	0
58728	7	Sololá	701	Sololá	1	Sololá	11	Noviembre	2023-11-13T00:00:00	2024-11-08T15:00:00	8	Radiación solar	96
58729	7	Sololá	701	Sololá	1	Sololá	11	Noviembre	2023-11-13T00:00:00	2024-11-08T16:00:00	2	Temperatura media	19.7
58730	7	Sololá	701	Sololá	1	Sololá	11	Noviembre	2023-11-13T00:00:00	2024-11-08T16:00:00	4	Temperatura máxima	21.8
58731	7	Sololá	701	Sololá	1	Sololá	11	Noviembre	2023-11-13T00:00:00	2024-11-08T16:00:00	3	Temperatura mínima	19.7
58732	7	Sololá	701	Sololá	1	Sololá	11	Noviembre	2023-11-13T00:00:00	2024-11-08T16:00:00	5	Humedad	76
58733	7	Sololá	701	Sololá	1	Sololá	11	Noviembre	2023-11-13T00:00:00	2024-11-08T16:00:00	6	Velocidad del viento	0
58734	7	Sololá	701	Sololá	1	Sololá	11	Noviembre	2023-11-13T00:00:00	2024-11-08T16:00:00	7	Dirección del viento	0
58735	7	Sololá	701	Sololá	1	Sololá	11	Noviembre	2023-11-13T00:00:00	2024-11-08T16:00:00	1	Precipitación	0
58736	7	Sololá	701	Sololá	1	Sololá	11	Noviembre	2023-11-13T00:00:00	2024-11-08T16:00:00	8	Radiación solar	13
58737	7	Sololá	701	Sololá	1	Sololá	11	Noviembre	2023-11-13T00:00:00	2024-11-08T17:00:00	2	Temperatura media	18.4
58738	7	Sololá	701	Sololá	1	Sololá	11	Noviembre	2023-11-13T00:00:00	2024-11-08T17:00:00	4	Temperatura máxima	19.7
58739	7	Sololá	701	Sololá	1	Sololá	11	Noviembre	2023-11-13T00:00:00	2024-11-08T17:00:00	3	Temperatura mínima	18.4
58740	7	Sololá	701	Sololá	1	Sololá	11	Noviembre	2023-11-13T00:00:00	2024-11-08T17:00:00	5	Humedad	80
58741	7	Sololá	701	Sololá	1	Sololá	11	Noviembre	2023-11-13T00:00:00	2024-11-08T17:00:00	6	Velocidad del viento	0
58742	7	Sololá	701	Sololá	1	Sololá	11	Noviembre	2023-11-13T00:00:00	2024-11-08T17:00:00	7	Dirección del viento	0
58743	7	Sololá	701	Sololá	1	Sololá	11	Noviembre	2023-11-13T00:00:00	2024-11-08T17:00:00	1	Precipitación	0
58744	7	Sololá	701	Sololá	1	Sololá	11	Noviembre	2023-11-13T00:00:00	2024-11-08T17:00:00	8	Radiación solar	4
58745	7	Sololá	701	Sololá	1	Sololá	11	Noviembre	2023-11-13T00:00:00	2024-11-08T18:00:00	2	Temperatura media	18.2
58746	7	Sololá	701	Sololá	1	Sololá	11	Noviembre	2023-11-13T00:00:00	2024-11-08T18:00:00	4	Temperatura máxima	18.2
58747	7	Sololá	701	Sololá	1	Sololá	11	Noviembre	2023-11-13T00:00:00	2024-11-08T18:00:00	3	Temperatura mínima	18.2
58748	7	Sololá	701	Sololá	1	Sololá	11	Noviembre	2023-11-13T00:00:00	2024-11-08T18:00:00	5	Humedad	80
58749	7	Sololá	701	Sololá	1	Sololá	11	Noviembre	2023-11-13T00:00:00	2024-11-08T18:00:00	6	Velocidad del viento	17.7
58750	7	Sololá	701	Sololá	1	Sololá	11	Noviembre	2023-11-13T00:00:00	2024-11-08T18:00:00	7	Dirección del viento	0.3
58751	7	Sololá	701	Sololá	1	Sololá	11	Noviembre	2023-11-13T00:00:00	2024-11-08T18:00:00	1	Precipitación	0
58752	7	Sololá	701	Sololá	1	Sololá	11	Noviembre	2023-11-13T00:00:00	2024-11-08T18:00:00	8	Radiación solar	0
58753	7	Sololá	701	Sololá	1	Sololá	11	Noviembre	2023-11-13T00:00:00	2024-11-08T19:00:00	2	Temperatura media	17.6
58754	7	Sololá	701	Sololá	1	Sololá	11	Noviembre	2023-11-13T00:00:00	2024-11-08T19:00:00	4	Temperatura máxima	17.6
58755	7	Sololá	701	Sololá	1	Sololá	11	Noviembre	2023-11-13T00:00:00	2024-11-08T19:00:00	3	Temperatura mínima	17.6
58756	7	Sololá	701	Sololá	1	Sololá	11	Noviembre	2023-11-13T00:00:00	2024-11-08T19:00:00	5	Humedad	83
58757	7	Sololá	701	Sololá	1	Sololá	11	Noviembre	2023-11-13T00:00:00	2024-11-08T19:00:00	6	Velocidad del viento	0
58758	7	Sololá	701	Sololá	1	Sololá	11	Noviembre	2023-11-13T00:00:00	2024-11-08T19:00:00	7	Dirección del viento	0
58759	7	Sololá	701	Sololá	1	Sololá	11	Noviembre	2023-11-13T00:00:00	2024-11-08T19:00:00	1	Precipitación	0
58760	7	Sololá	701	Sololá	1	Sololá	11	Noviembre	2023-11-13T00:00:00	2024-11-08T19:00:00	8	Radiación solar	0
58761	7	Sololá	701	Sololá	1	Sololá	11	Noviembre	2023-11-13T00:00:00	2024-11-08T20:00:00	2	Temperatura media	17.3
58762	7	Sololá	701	Sololá	1	Sololá	11	Noviembre	2023-11-13T00:00:00	2024-11-08T20:00:00	4	Temperatura máxima	17.6
58763	7	Sololá	701	Sololá	1	Sololá	11	Noviembre	2023-11-13T00:00:00	2024-11-08T20:00:00	3	Temperatura mínima	17.3
58764	7	Sololá	701	Sololá	1	Sololá	11	Noviembre	2023-11-13T00:00:00	2024-11-08T20:00:00	5	Humedad	82
58765	7	Sololá	701	Sololá	1	Sololá	11	Noviembre	2023-11-13T00:00:00	2024-11-08T20:00:00	6	Velocidad del viento	0
58766	7	Sololá	701	Sololá	1	Sololá	11	Noviembre	2023-11-13T00:00:00	2024-11-08T20:00:00	7	Dirección del viento	0
58767	7	Sololá	701	Sololá	1	Sololá	11	Noviembre	2023-11-13T00:00:00	2024-11-08T20:00:00	1	Precipitación	0
58768	7	Sololá	701	Sololá	1	Sololá	11	Noviembre	2023-11-13T00:00:00	2024-11-08T20:00:00	8	Radiación solar	0
58769	7	Sololá	701	Sololá	1	Sololá	11	Noviembre	2023-11-13T00:00:00	2024-11-08T21:00:00	2	Temperatura media	17.2
58770	7	Sololá	701	Sololá	1	Sololá	11	Noviembre	2023-11-13T00:00:00	2024-11-08T21:00:00	4	Temperatura máxima	17.3
58771	7	Sololá	701	Sololá	1	Sololá	11	Noviembre	2023-11-13T00:00:00	2024-11-08T21:00:00	3	Temperatura mínima	17.2
58772	7	Sololá	701	Sololá	1	Sololá	11	Noviembre	2023-11-13T00:00:00	2024-11-08T21:00:00	5	Humedad	84
58773	7	Sololá	701	Sololá	1	Sololá	11	Noviembre	2023-11-13T00:00:00	2024-11-08T21:00:00	6	Velocidad del viento	0
58774	7	Sololá	701	Sololá	1	Sololá	11	Noviembre	2023-11-13T00:00:00	2024-11-08T21:00:00	7	Dirección del viento	0
58775	7	Sololá	701	Sololá	1	Sololá	11	Noviembre	2023-11-13T00:00:00	2024-11-08T21:00:00	1	Precipitación	0
58776	7	Sololá	701	Sololá	1	Sololá	11	Noviembre	2023-11-13T00:00:00	2024-11-08T21:00:00	8	Radiación solar	0
58777	7	Sololá	701	Sololá	1	Sololá	11	Noviembre	2023-11-13T00:00:00	2024-11-08T22:00:00	2	Temperatura media	16.9
58778	7	Sololá	701	Sololá	1	Sololá	11	Noviembre	2023-11-13T00:00:00	2024-11-08T22:00:00	4	Temperatura máxima	17.2
58779	7	Sololá	701	Sololá	1	Sololá	11	Noviembre	2023-11-13T00:00:00	2024-11-08T22:00:00	3	Temperatura mínima	16.8
58780	7	Sololá	701	Sololá	1	Sololá	11	Noviembre	2023-11-13T00:00:00	2024-11-08T22:00:00	5	Humedad	86
58781	7	Sololá	701	Sololá	1	Sololá	11	Noviembre	2023-11-13T00:00:00	2024-11-08T22:00:00	6	Velocidad del viento	0
58782	7	Sololá	701	Sololá	1	Sololá	11	Noviembre	2023-11-13T00:00:00	2024-11-08T22:00:00	7	Dirección del viento	0
58783	7	Sololá	701	Sololá	1	Sololá	11	Noviembre	2023-11-13T00:00:00	2024-11-08T22:00:00	1	Precipitación	0
58784	7	Sololá	701	Sololá	1	Sololá	11	Noviembre	2023-11-13T00:00:00	2024-11-08T22:00:00	8	Radiación solar	0
58785	7	Sololá	701	Sololá	1	Sololá	11	Noviembre	2023-11-13T00:00:00	2024-11-08T23:00:00	2	Temperatura media	16.4
58786	7	Sololá	701	Sololá	1	Sololá	11	Noviembre	2023-11-13T00:00:00	2024-11-08T23:00:00	4	Temperatura máxima	16.8
58787	7	Sololá	701	Sololá	1	Sololá	11	Noviembre	2023-11-13T00:00:00	2024-11-08T23:00:00	3	Temperatura mínima	16.4
58788	7	Sololá	701	Sololá	1	Sololá	11	Noviembre	2023-11-13T00:00:00	2024-11-08T23:00:00	5	Humedad	88
58789	7	Sololá	701	Sololá	1	Sololá	11	Noviembre	2023-11-13T00:00:00	2024-11-08T23:00:00	6	Velocidad del viento	0
58790	7	Sololá	701	Sololá	1	Sololá	11	Noviembre	2023-11-13T00:00:00	2024-11-08T23:00:00	7	Dirección del viento	0
58791	7	Sololá	701	Sololá	1	Sololá	11	Noviembre	2023-11-13T00:00:00	2024-11-08T23:00:00	1	Precipitación	0
58792	7	Sololá	701	Sololá	1	Sololá	11	Noviembre	2023-11-13T00:00:00	2024-11-08T23:00:00	8	Radiación solar	0
58793	7	Sololá	701	Sololá	1	Sololá	11	Noviembre	2023-11-14T00:00:00	2024-11-08T00:00:00	2	Temperatura media	16.1
58794	7	Sololá	701	Sololá	1	Sololá	11	Noviembre	2023-11-14T00:00:00	2024-11-08T00:00:00	4	Temperatura máxima	16.5
58795	7	Sololá	701	Sololá	1	Sololá	11	Noviembre	2023-11-14T00:00:00	2024-11-08T00:00:00	3	Temperatura mínima	16.1
58796	7	Sololá	701	Sololá	1	Sololá	11	Noviembre	2023-11-14T00:00:00	2024-11-08T00:00:00	5	Humedad	90
58797	7	Sololá	701	Sololá	1	Sololá	11	Noviembre	2023-11-14T00:00:00	2024-11-08T00:00:00	6	Velocidad del viento	0
58798	7	Sololá	701	Sololá	1	Sololá	11	Noviembre	2023-11-14T00:00:00	2024-11-08T00:00:00	7	Dirección del viento	0
58799	7	Sololá	701	Sololá	1	Sololá	11	Noviembre	2023-11-14T00:00:00	2024-11-08T00:00:00	1	Precipitación	0
58800	7	Sololá	701	Sololá	1	Sololá	11	Noviembre	2023-11-14T00:00:00	2024-11-08T00:00:00	8	Radiación solar	0
58801	7	Sololá	701	Sololá	1	Sololá	11	Noviembre	2023-11-14T00:00:00	2024-11-08T01:00:00	2	Temperatura media	15.8
58802	7	Sololá	701	Sololá	1	Sololá	11	Noviembre	2023-11-14T00:00:00	2024-11-08T01:00:00	4	Temperatura máxima	16.2
58803	7	Sololá	701	Sololá	1	Sololá	11	Noviembre	2023-11-14T00:00:00	2024-11-08T01:00:00	3	Temperatura mínima	15.8
58804	7	Sololá	701	Sololá	1	Sololá	11	Noviembre	2023-11-14T00:00:00	2024-11-08T01:00:00	5	Humedad	90
58805	7	Sololá	701	Sololá	1	Sololá	11	Noviembre	2023-11-14T00:00:00	2024-11-08T01:00:00	6	Velocidad del viento	0
58806	7	Sololá	701	Sololá	1	Sololá	11	Noviembre	2023-11-14T00:00:00	2024-11-08T01:00:00	7	Dirección del viento	0
58807	7	Sololá	701	Sololá	1	Sololá	11	Noviembre	2023-11-14T00:00:00	2024-11-08T01:00:00	1	Precipitación	0
58808	7	Sololá	701	Sololá	1	Sololá	11	Noviembre	2023-11-14T00:00:00	2024-11-08T01:00:00	8	Radiación solar	0
58809	7	Sololá	701	Sololá	1	Sololá	11	Noviembre	2023-11-14T00:00:00	2024-11-08T02:00:00	2	Temperatura media	15.6
58810	7	Sololá	701	Sololá	1	Sololá	11	Noviembre	2023-11-14T00:00:00	2024-11-08T02:00:00	4	Temperatura máxima	15.8
58811	7	Sololá	701	Sololá	1	Sololá	11	Noviembre	2023-11-14T00:00:00	2024-11-08T02:00:00	3	Temperatura mínima	15.6
58812	7	Sololá	701	Sololá	1	Sololá	11	Noviembre	2023-11-14T00:00:00	2024-11-08T02:00:00	5	Humedad	90
58813	7	Sololá	701	Sololá	1	Sololá	11	Noviembre	2023-11-14T00:00:00	2024-11-08T02:00:00	6	Velocidad del viento	0
58814	7	Sololá	701	Sololá	1	Sololá	11	Noviembre	2023-11-14T00:00:00	2024-11-08T02:00:00	7	Dirección del viento	0
58815	7	Sololá	701	Sololá	1	Sololá	11	Noviembre	2023-11-14T00:00:00	2024-11-08T02:00:00	1	Precipitación	0
58816	7	Sololá	701	Sololá	1	Sololá	11	Noviembre	2023-11-14T00:00:00	2024-11-08T02:00:00	8	Radiación solar	0
58817	7	Sololá	701	Sololá	1	Sololá	11	Noviembre	2023-11-14T00:00:00	2024-11-08T03:00:00	2	Temperatura media	15.4
58818	7	Sololá	701	Sololá	1	Sololá	11	Noviembre	2023-11-14T00:00:00	2024-11-08T03:00:00	4	Temperatura máxima	15.6
58819	7	Sololá	701	Sololá	1	Sololá	11	Noviembre	2023-11-14T00:00:00	2024-11-08T03:00:00	3	Temperatura mínima	15.4
58820	7	Sololá	701	Sololá	1	Sololá	11	Noviembre	2023-11-14T00:00:00	2024-11-08T03:00:00	5	Humedad	90
58821	7	Sololá	701	Sololá	1	Sololá	11	Noviembre	2023-11-14T00:00:00	2024-11-08T03:00:00	6	Velocidad del viento	0
58822	7	Sololá	701	Sololá	1	Sololá	11	Noviembre	2023-11-14T00:00:00	2024-11-08T03:00:00	7	Dirección del viento	0
58823	7	Sololá	701	Sololá	1	Sololá	11	Noviembre	2023-11-14T00:00:00	2024-11-08T03:00:00	1	Precipitación	0
58824	7	Sololá	701	Sololá	1	Sololá	11	Noviembre	2023-11-14T00:00:00	2024-11-08T03:00:00	8	Radiación solar	0
58825	7	Sololá	701	Sololá	1	Sololá	11	Noviembre	2023-11-14T00:00:00	2024-11-08T04:00:00	2	Temperatura media	15.6
58826	7	Sololá	701	Sololá	1	Sololá	11	Noviembre	2023-11-14T00:00:00	2024-11-08T04:00:00	4	Temperatura máxima	15.6
58827	7	Sololá	701	Sololá	1	Sololá	11	Noviembre	2023-11-14T00:00:00	2024-11-08T04:00:00	3	Temperatura mínima	15.4
58828	7	Sololá	701	Sololá	1	Sololá	11	Noviembre	2023-11-14T00:00:00	2024-11-08T04:00:00	5	Humedad	88
58829	7	Sololá	701	Sololá	1	Sololá	11	Noviembre	2023-11-14T00:00:00	2024-11-08T04:00:00	6	Velocidad del viento	0
58830	7	Sololá	701	Sololá	1	Sololá	11	Noviembre	2023-11-14T00:00:00	2024-11-08T04:00:00	7	Dirección del viento	0
58831	7	Sololá	701	Sololá	1	Sololá	11	Noviembre	2023-11-14T00:00:00	2024-11-08T04:00:00	1	Precipitación	0
58832	7	Sololá	701	Sololá	1	Sololá	11	Noviembre	2023-11-14T00:00:00	2024-11-08T04:00:00	8	Radiación solar	0
58833	7	Sololá	701	Sololá	1	Sololá	11	Noviembre	2023-11-14T00:00:00	2024-11-08T05:00:00	2	Temperatura media	15.9
58834	7	Sololá	701	Sololá	1	Sololá	11	Noviembre	2023-11-14T00:00:00	2024-11-08T05:00:00	4	Temperatura máxima	16
58835	7	Sololá	701	Sololá	1	Sololá	11	Noviembre	2023-11-14T00:00:00	2024-11-08T05:00:00	3	Temperatura mínima	15.6
58836	7	Sololá	701	Sololá	1	Sololá	11	Noviembre	2023-11-14T00:00:00	2024-11-08T05:00:00	5	Humedad	85
58837	7	Sololá	701	Sololá	1	Sololá	11	Noviembre	2023-11-14T00:00:00	2024-11-08T05:00:00	6	Velocidad del viento	0
58838	7	Sololá	701	Sololá	1	Sololá	11	Noviembre	2023-11-14T00:00:00	2024-11-08T05:00:00	7	Dirección del viento	0
58839	7	Sololá	701	Sololá	1	Sololá	11	Noviembre	2023-11-14T00:00:00	2024-11-08T05:00:00	1	Precipitación	0
58840	7	Sololá	701	Sololá	1	Sololá	11	Noviembre	2023-11-14T00:00:00	2024-11-08T05:00:00	8	Radiación solar	0
58841	7	Sololá	701	Sololá	1	Sololá	11	Noviembre	2023-11-14T00:00:00	2024-11-08T06:00:00	2	Temperatura media	15.7
58842	7	Sololá	701	Sololá	1	Sololá	11	Noviembre	2023-11-14T00:00:00	2024-11-08T06:00:00	4	Temperatura máxima	15.9
58843	7	Sololá	701	Sololá	1	Sololá	11	Noviembre	2023-11-14T00:00:00	2024-11-08T06:00:00	3	Temperatura mínima	15.6
58844	7	Sololá	701	Sololá	1	Sololá	11	Noviembre	2023-11-14T00:00:00	2024-11-08T06:00:00	5	Humedad	86
58845	7	Sololá	701	Sololá	1	Sololá	11	Noviembre	2023-11-14T00:00:00	2024-11-08T06:00:00	6	Velocidad del viento	0
58846	7	Sololá	701	Sololá	1	Sololá	11	Noviembre	2023-11-14T00:00:00	2024-11-08T06:00:00	7	Dirección del viento	0
58847	7	Sololá	701	Sololá	1	Sololá	11	Noviembre	2023-11-14T00:00:00	2024-11-08T06:00:00	1	Precipitación	0
58848	7	Sololá	701	Sololá	1	Sololá	11	Noviembre	2023-11-14T00:00:00	2024-11-08T06:00:00	8	Radiación solar	0
58849	7	Sololá	701	Sololá	1	Sololá	11	Noviembre	2023-11-14T00:00:00	2024-11-08T07:00:00	2	Temperatura media	15.8
58850	7	Sololá	701	Sololá	1	Sololá	11	Noviembre	2023-11-14T00:00:00	2024-11-08T07:00:00	4	Temperatura máxima	15.9
58851	7	Sololá	701	Sololá	1	Sololá	11	Noviembre	2023-11-14T00:00:00	2024-11-08T07:00:00	3	Temperatura mínima	15.7
58852	7	Sololá	701	Sololá	1	Sololá	11	Noviembre	2023-11-14T00:00:00	2024-11-08T07:00:00	5	Humedad	86
58853	7	Sololá	701	Sololá	1	Sololá	11	Noviembre	2023-11-14T00:00:00	2024-11-08T07:00:00	6	Velocidad del viento	0
58854	7	Sololá	701	Sololá	1	Sololá	11	Noviembre	2023-11-14T00:00:00	2024-11-08T07:00:00	7	Dirección del viento	0
58855	7	Sololá	701	Sololá	1	Sololá	11	Noviembre	2023-11-14T00:00:00	2024-11-08T07:00:00	1	Precipitación	0
58856	7	Sololá	701	Sololá	1	Sololá	11	Noviembre	2023-11-14T00:00:00	2024-11-08T07:00:00	8	Radiación solar	11
58857	7	Sololá	701	Sololá	1	Sololá	11	Noviembre	2023-11-14T00:00:00	2024-11-08T08:00:00	2	Temperatura media	17.6
58858	7	Sololá	701	Sololá	1	Sololá	11	Noviembre	2023-11-14T00:00:00	2024-11-08T08:00:00	4	Temperatura máxima	17.6
58859	7	Sololá	701	Sololá	1	Sololá	11	Noviembre	2023-11-14T00:00:00	2024-11-08T08:00:00	3	Temperatura mínima	15.8
58860	7	Sololá	701	Sololá	1	Sololá	11	Noviembre	2023-11-14T00:00:00	2024-11-08T08:00:00	5	Humedad	83
58861	7	Sololá	701	Sololá	1	Sololá	11	Noviembre	2023-11-14T00:00:00	2024-11-08T08:00:00	6	Velocidad del viento	0
58862	7	Sololá	701	Sololá	1	Sololá	11	Noviembre	2023-11-14T00:00:00	2024-11-08T08:00:00	7	Dirección del viento	0
58863	7	Sololá	701	Sololá	1	Sololá	11	Noviembre	2023-11-14T00:00:00	2024-11-08T08:00:00	1	Precipitación	0
58864	7	Sololá	701	Sololá	1	Sololá	11	Noviembre	2023-11-14T00:00:00	2024-11-08T08:00:00	8	Radiación solar	90
58865	7	Sololá	701	Sololá	1	Sololá	11	Noviembre	2023-11-14T00:00:00	2024-11-08T09:00:00	2	Temperatura media	21.1
58866	7	Sololá	701	Sololá	1	Sololá	11	Noviembre	2023-11-14T00:00:00	2024-11-08T09:00:00	4	Temperatura máxima	21.1
58867	7	Sololá	701	Sololá	1	Sololá	11	Noviembre	2023-11-14T00:00:00	2024-11-08T09:00:00	3	Temperatura mínima	17.6
58868	7	Sololá	701	Sololá	1	Sololá	11	Noviembre	2023-11-14T00:00:00	2024-11-08T09:00:00	5	Humedad	72
58869	7	Sololá	701	Sololá	1	Sololá	11	Noviembre	2023-11-14T00:00:00	2024-11-08T09:00:00	6	Velocidad del viento	0
58870	7	Sololá	701	Sololá	1	Sololá	11	Noviembre	2023-11-14T00:00:00	2024-11-08T09:00:00	7	Dirección del viento	0
58871	7	Sololá	701	Sololá	1	Sololá	11	Noviembre	2023-11-14T00:00:00	2024-11-08T09:00:00	1	Precipitación	0
58872	7	Sololá	701	Sololá	1	Sololá	11	Noviembre	2023-11-14T00:00:00	2024-11-08T09:00:00	8	Radiación solar	378
58873	7	Sololá	701	Sololá	1	Sololá	11	Noviembre	2023-11-14T00:00:00	2024-11-08T10:00:00	2	Temperatura media	22
58874	7	Sololá	701	Sololá	1	Sololá	11	Noviembre	2023-11-14T00:00:00	2024-11-08T10:00:00	4	Temperatura máxima	22
58875	7	Sololá	701	Sololá	1	Sololá	11	Noviembre	2023-11-14T00:00:00	2024-11-08T10:00:00	3	Temperatura mínima	21.1
58876	7	Sololá	701	Sololá	1	Sololá	11	Noviembre	2023-11-14T00:00:00	2024-11-08T10:00:00	5	Humedad	70
58877	7	Sololá	701	Sololá	1	Sololá	11	Noviembre	2023-11-14T00:00:00	2024-11-08T10:00:00	6	Velocidad del viento	0
58878	7	Sololá	701	Sololá	1	Sololá	11	Noviembre	2023-11-14T00:00:00	2024-11-08T10:00:00	7	Dirección del viento	0
58879	7	Sololá	701	Sololá	1	Sololá	11	Noviembre	2023-11-14T00:00:00	2024-11-08T10:00:00	1	Precipitación	0
58880	7	Sololá	701	Sololá	1	Sololá	11	Noviembre	2023-11-14T00:00:00	2024-11-08T10:00:00	8	Radiación solar	259
58881	7	Sololá	701	Sololá	1	Sololá	11	Noviembre	2023-11-14T00:00:00	2024-11-08T11:00:00	2	Temperatura media	22.7
58882	7	Sololá	701	Sololá	1	Sololá	11	Noviembre	2023-11-14T00:00:00	2024-11-08T11:00:00	4	Temperatura máxima	22.9
58883	7	Sololá	701	Sololá	1	Sololá	11	Noviembre	2023-11-14T00:00:00	2024-11-08T11:00:00	3	Temperatura mínima	22
58884	7	Sololá	701	Sololá	1	Sololá	11	Noviembre	2023-11-14T00:00:00	2024-11-08T11:00:00	5	Humedad	65
58885	7	Sololá	701	Sololá	1	Sololá	11	Noviembre	2023-11-14T00:00:00	2024-11-08T11:00:00	6	Velocidad del viento	0
58886	7	Sololá	701	Sololá	1	Sololá	11	Noviembre	2023-11-14T00:00:00	2024-11-08T11:00:00	7	Dirección del viento	0
58887	7	Sololá	701	Sololá	1	Sololá	11	Noviembre	2023-11-14T00:00:00	2024-11-08T11:00:00	1	Precipitación	0
58888	7	Sololá	701	Sololá	1	Sololá	11	Noviembre	2023-11-14T00:00:00	2024-11-08T11:00:00	8	Radiación solar	326
58889	7	Sololá	701	Sololá	1	Sololá	11	Noviembre	2023-11-14T00:00:00	2024-11-08T12:00:00	2	Temperatura media	23.9
58890	7	Sololá	701	Sololá	1	Sololá	11	Noviembre	2023-11-14T00:00:00	2024-11-08T12:00:00	4	Temperatura máxima	24.9
58891	7	Sololá	701	Sololá	1	Sololá	11	Noviembre	2023-11-14T00:00:00	2024-11-08T12:00:00	3	Temperatura mínima	22.7
58892	7	Sololá	701	Sololá	1	Sololá	11	Noviembre	2023-11-14T00:00:00	2024-11-08T12:00:00	5	Humedad	64
58893	7	Sololá	701	Sololá	1	Sololá	11	Noviembre	2023-11-14T00:00:00	2024-11-08T12:00:00	6	Velocidad del viento	0
58894	7	Sololá	701	Sololá	1	Sololá	11	Noviembre	2023-11-14T00:00:00	2024-11-08T12:00:00	7	Dirección del viento	0
58895	7	Sololá	701	Sololá	1	Sololá	11	Noviembre	2023-11-14T00:00:00	2024-11-08T12:00:00	1	Precipitación	0
58896	7	Sololá	701	Sololá	1	Sololá	11	Noviembre	2023-11-14T00:00:00	2024-11-08T12:00:00	8	Radiación solar	496
58897	7	Sololá	701	Sololá	1	Sololá	11	Noviembre	2023-11-14T00:00:00	2024-11-08T13:00:00	2	Temperatura media	22.9
58898	7	Sololá	701	Sololá	1	Sololá	11	Noviembre	2023-11-14T00:00:00	2024-11-08T13:00:00	4	Temperatura máxima	23.9
58899	7	Sololá	701	Sololá	1	Sololá	11	Noviembre	2023-11-14T00:00:00	2024-11-08T13:00:00	3	Temperatura mínima	22.9
58900	7	Sololá	701	Sololá	1	Sololá	11	Noviembre	2023-11-14T00:00:00	2024-11-08T13:00:00	5	Humedad	66
58901	7	Sololá	701	Sololá	1	Sololá	11	Noviembre	2023-11-14T00:00:00	2024-11-08T13:00:00	6	Velocidad del viento	0
58902	7	Sololá	701	Sololá	1	Sololá	11	Noviembre	2023-11-14T00:00:00	2024-11-08T13:00:00	7	Dirección del viento	0
58903	7	Sololá	701	Sololá	1	Sololá	11	Noviembre	2023-11-14T00:00:00	2024-11-08T13:00:00	1	Precipitación	0
58904	7	Sololá	701	Sololá	1	Sololá	11	Noviembre	2023-11-14T00:00:00	2024-11-08T13:00:00	8	Radiación solar	273
58905	7	Sololá	701	Sololá	1	Sololá	11	Noviembre	2023-11-14T00:00:00	2024-11-08T14:00:00	2	Temperatura media	21.2
58906	7	Sololá	701	Sololá	1	Sololá	11	Noviembre	2023-11-14T00:00:00	2024-11-08T14:00:00	4	Temperatura máxima	22.9
58907	7	Sololá	701	Sololá	1	Sololá	11	Noviembre	2023-11-14T00:00:00	2024-11-08T14:00:00	3	Temperatura mínima	21.2
58908	7	Sololá	701	Sololá	1	Sololá	11	Noviembre	2023-11-14T00:00:00	2024-11-08T14:00:00	5	Humedad	72
58909	7	Sololá	701	Sololá	1	Sololá	11	Noviembre	2023-11-14T00:00:00	2024-11-08T14:00:00	6	Velocidad del viento	0
58910	7	Sololá	701	Sololá	1	Sololá	11	Noviembre	2023-11-14T00:00:00	2024-11-08T14:00:00	7	Dirección del viento	0
58911	7	Sololá	701	Sololá	1	Sololá	11	Noviembre	2023-11-14T00:00:00	2024-11-08T14:00:00	1	Precipitación	0
58912	7	Sololá	701	Sololá	1	Sololá	11	Noviembre	2023-11-14T00:00:00	2024-11-08T14:00:00	8	Radiación solar	130
58913	7	Sololá	701	Sololá	1	Sololá	11	Noviembre	2023-11-14T00:00:00	2024-11-08T15:00:00	2	Temperatura media	20.1
58914	7	Sololá	701	Sololá	1	Sololá	11	Noviembre	2023-11-14T00:00:00	2024-11-08T15:00:00	4	Temperatura máxima	21.2
58915	7	Sololá	701	Sololá	1	Sololá	11	Noviembre	2023-11-14T00:00:00	2024-11-08T15:00:00	3	Temperatura mínima	20.1
58916	7	Sololá	701	Sololá	1	Sololá	11	Noviembre	2023-11-14T00:00:00	2024-11-08T15:00:00	5	Humedad	76
58917	7	Sololá	701	Sololá	1	Sololá	11	Noviembre	2023-11-14T00:00:00	2024-11-08T15:00:00	6	Velocidad del viento	0
58918	7	Sololá	701	Sololá	1	Sololá	11	Noviembre	2023-11-14T00:00:00	2024-11-08T15:00:00	7	Dirección del viento	0
58919	7	Sololá	701	Sololá	1	Sololá	11	Noviembre	2023-11-14T00:00:00	2024-11-08T15:00:00	1	Precipitación	0
58920	7	Sololá	701	Sololá	1	Sololá	11	Noviembre	2023-11-14T00:00:00	2024-11-08T15:00:00	8	Radiación solar	88
58921	7	Sololá	701	Sololá	1	Sololá	11	Noviembre	2023-11-14T00:00:00	2024-11-08T16:00:00	2	Temperatura media	19.2
58922	7	Sololá	701	Sololá	1	Sololá	11	Noviembre	2023-11-14T00:00:00	2024-11-08T16:00:00	4	Temperatura máxima	20.1
58923	7	Sololá	701	Sololá	1	Sololá	11	Noviembre	2023-11-14T00:00:00	2024-11-08T16:00:00	3	Temperatura mínima	19.2
58924	7	Sololá	701	Sololá	1	Sololá	11	Noviembre	2023-11-14T00:00:00	2024-11-08T16:00:00	5	Humedad	77
58925	7	Sololá	701	Sololá	1	Sololá	11	Noviembre	2023-11-14T00:00:00	2024-11-08T16:00:00	6	Velocidad del viento	0
58926	7	Sololá	701	Sololá	1	Sololá	11	Noviembre	2023-11-14T00:00:00	2024-11-08T16:00:00	7	Dirección del viento	0
58927	7	Sololá	701	Sololá	1	Sololá	11	Noviembre	2023-11-14T00:00:00	2024-11-08T16:00:00	1	Precipitación	0
58928	7	Sololá	701	Sololá	1	Sololá	11	Noviembre	2023-11-14T00:00:00	2024-11-08T16:00:00	8	Radiación solar	56
58929	7	Sololá	701	Sololá	1	Sololá	11	Noviembre	2023-11-14T00:00:00	2024-11-08T17:00:00	2	Temperatura media	17.9
58930	7	Sololá	701	Sololá	1	Sololá	11	Noviembre	2023-11-14T00:00:00	2024-11-08T17:00:00	4	Temperatura máxima	19.2
58931	7	Sololá	701	Sololá	1	Sololá	11	Noviembre	2023-11-14T00:00:00	2024-11-08T17:00:00	3	Temperatura mínima	17.9
58932	7	Sololá	701	Sololá	1	Sololá	11	Noviembre	2023-11-14T00:00:00	2024-11-08T17:00:00	5	Humedad	80
58933	7	Sololá	701	Sololá	1	Sololá	11	Noviembre	2023-11-14T00:00:00	2024-11-08T17:00:00	6	Velocidad del viento	0
58934	7	Sololá	701	Sololá	1	Sololá	11	Noviembre	2023-11-14T00:00:00	2024-11-08T17:00:00	7	Dirección del viento	0
58935	7	Sololá	701	Sololá	1	Sololá	11	Noviembre	2023-11-14T00:00:00	2024-11-08T17:00:00	1	Precipitación	0
58936	7	Sololá	701	Sololá	1	Sololá	11	Noviembre	2023-11-14T00:00:00	2024-11-08T17:00:00	8	Radiación solar	24
58937	7	Sololá	701	Sololá	1	Sololá	11	Noviembre	2023-11-14T00:00:00	2024-11-08T18:00:00	2	Temperatura media	17.2
58938	7	Sololá	701	Sololá	1	Sololá	11	Noviembre	2023-11-14T00:00:00	2024-11-08T18:00:00	4	Temperatura máxima	17.9
58939	7	Sololá	701	Sololá	1	Sololá	11	Noviembre	2023-11-14T00:00:00	2024-11-08T18:00:00	3	Temperatura mínima	17.2
58940	7	Sololá	701	Sololá	1	Sololá	11	Noviembre	2023-11-14T00:00:00	2024-11-08T18:00:00	5	Humedad	82
58941	7	Sololá	701	Sololá	1	Sololá	11	Noviembre	2023-11-14T00:00:00	2024-11-08T18:00:00	6	Velocidad del viento	0
58942	7	Sololá	701	Sololá	1	Sololá	11	Noviembre	2023-11-14T00:00:00	2024-11-08T18:00:00	7	Dirección del viento	0
58943	7	Sololá	701	Sololá	1	Sololá	11	Noviembre	2023-11-14T00:00:00	2024-11-08T18:00:00	1	Precipitación	0
58944	7	Sololá	701	Sololá	1	Sololá	11	Noviembre	2023-11-14T00:00:00	2024-11-08T18:00:00	8	Radiación solar	2
58945	7	Sololá	701	Sololá	1	Sololá	11	Noviembre	2023-11-14T00:00:00	2024-11-08T19:00:00	2	Temperatura media	16.8
58946	7	Sololá	701	Sololá	1	Sololá	11	Noviembre	2023-11-14T00:00:00	2024-11-08T19:00:00	4	Temperatura máxima	17.2
58947	7	Sololá	701	Sololá	1	Sololá	11	Noviembre	2023-11-14T00:00:00	2024-11-08T19:00:00	3	Temperatura mínima	16.8
58948	7	Sololá	701	Sololá	1	Sololá	11	Noviembre	2023-11-14T00:00:00	2024-11-08T19:00:00	5	Humedad	83
58949	7	Sololá	701	Sololá	1	Sololá	11	Noviembre	2023-11-14T00:00:00	2024-11-08T19:00:00	6	Velocidad del viento	0
58950	7	Sololá	701	Sololá	1	Sololá	11	Noviembre	2023-11-14T00:00:00	2024-11-08T19:00:00	7	Dirección del viento	0
58951	7	Sololá	701	Sololá	1	Sololá	11	Noviembre	2023-11-14T00:00:00	2024-11-08T19:00:00	1	Precipitación	0
58952	7	Sololá	701	Sololá	1	Sololá	11	Noviembre	2023-11-14T00:00:00	2024-11-08T19:00:00	8	Radiación solar	0
58953	7	Sololá	701	Sololá	1	Sololá	11	Noviembre	2023-11-14T00:00:00	2024-11-08T20:00:00	2	Temperatura media	16.8
58954	7	Sololá	701	Sololá	1	Sololá	11	Noviembre	2023-11-14T00:00:00	2024-11-08T20:00:00	4	Temperatura máxima	16.8
58955	7	Sololá	701	Sololá	1	Sololá	11	Noviembre	2023-11-14T00:00:00	2024-11-08T20:00:00	3	Temperatura mínima	16.7
58956	7	Sololá	701	Sololá	1	Sololá	11	Noviembre	2023-11-14T00:00:00	2024-11-08T20:00:00	5	Humedad	81
58957	7	Sololá	701	Sololá	1	Sololá	11	Noviembre	2023-11-14T00:00:00	2024-11-08T20:00:00	6	Velocidad del viento	0
58958	7	Sololá	701	Sololá	1	Sololá	11	Noviembre	2023-11-14T00:00:00	2024-11-08T20:00:00	7	Dirección del viento	0
58959	7	Sololá	701	Sololá	1	Sololá	11	Noviembre	2023-11-14T00:00:00	2024-11-08T20:00:00	1	Precipitación	0
58960	7	Sololá	701	Sololá	1	Sololá	11	Noviembre	2023-11-14T00:00:00	2024-11-08T20:00:00	8	Radiación solar	0
58961	7	Sololá	701	Sololá	1	Sololá	11	Noviembre	2023-11-14T00:00:00	2024-11-08T21:00:00	2	Temperatura media	16.7
58962	7	Sololá	701	Sololá	1	Sololá	11	Noviembre	2023-11-14T00:00:00	2024-11-08T21:00:00	4	Temperatura máxima	16.9
58963	7	Sololá	701	Sololá	1	Sololá	11	Noviembre	2023-11-14T00:00:00	2024-11-08T21:00:00	3	Temperatura mínima	16.7
58964	7	Sololá	701	Sololá	1	Sololá	11	Noviembre	2023-11-14T00:00:00	2024-11-08T21:00:00	5	Humedad	82
58965	7	Sololá	701	Sololá	1	Sololá	11	Noviembre	2023-11-14T00:00:00	2024-11-08T21:00:00	6	Velocidad del viento	0
58966	7	Sololá	701	Sololá	1	Sololá	11	Noviembre	2023-11-14T00:00:00	2024-11-08T21:00:00	7	Dirección del viento	0
58967	7	Sololá	701	Sololá	1	Sololá	11	Noviembre	2023-11-14T00:00:00	2024-11-08T21:00:00	1	Precipitación	0
58968	7	Sololá	701	Sololá	1	Sololá	11	Noviembre	2023-11-14T00:00:00	2024-11-08T21:00:00	8	Radiación solar	0
58969	7	Sololá	701	Sololá	1	Sololá	11	Noviembre	2023-11-14T00:00:00	2024-11-08T22:00:00	2	Temperatura media	16.5
58970	7	Sololá	701	Sololá	1	Sololá	11	Noviembre	2023-11-14T00:00:00	2024-11-08T22:00:00	4	Temperatura máxima	16.7
58971	7	Sololá	701	Sololá	1	Sololá	11	Noviembre	2023-11-14T00:00:00	2024-11-08T22:00:00	3	Temperatura mínima	16.4
58972	7	Sololá	701	Sololá	1	Sololá	11	Noviembre	2023-11-14T00:00:00	2024-11-08T22:00:00	5	Humedad	81
58973	7	Sololá	701	Sololá	1	Sololá	11	Noviembre	2023-11-14T00:00:00	2024-11-08T22:00:00	6	Velocidad del viento	0
58974	7	Sololá	701	Sololá	1	Sololá	11	Noviembre	2023-11-14T00:00:00	2024-11-08T22:00:00	7	Dirección del viento	0
58975	7	Sololá	701	Sololá	1	Sololá	11	Noviembre	2023-11-14T00:00:00	2024-11-08T22:00:00	1	Precipitación	0
58976	7	Sololá	701	Sololá	1	Sololá	11	Noviembre	2023-11-14T00:00:00	2024-11-08T22:00:00	8	Radiación solar	0
58977	7	Sololá	701	Sololá	1	Sololá	11	Noviembre	2023-11-14T00:00:00	2024-11-08T23:00:00	2	Temperatura media	16.4
58978	7	Sololá	701	Sololá	1	Sololá	11	Noviembre	2023-11-14T00:00:00	2024-11-08T23:00:00	4	Temperatura máxima	16.6
58979	7	Sololá	701	Sololá	1	Sololá	11	Noviembre	2023-11-14T00:00:00	2024-11-08T23:00:00	3	Temperatura mínima	16.4
58980	7	Sololá	701	Sololá	1	Sololá	11	Noviembre	2023-11-14T00:00:00	2024-11-08T23:00:00	5	Humedad	80
58981	7	Sololá	701	Sololá	1	Sololá	11	Noviembre	2023-11-14T00:00:00	2024-11-08T23:00:00	6	Velocidad del viento	0
58982	7	Sololá	701	Sololá	1	Sololá	11	Noviembre	2023-11-14T00:00:00	2024-11-08T23:00:00	7	Dirección del viento	0
58983	7	Sololá	701	Sololá	1	Sololá	11	Noviembre	2023-11-14T00:00:00	2024-11-08T23:00:00	1	Precipitación	0
58984	7	Sololá	701	Sololá	1	Sololá	11	Noviembre	2023-11-14T00:00:00	2024-11-08T23:00:00	8	Radiación solar	0
58985	7	Sololá	701	Sololá	1	Sololá	11	Noviembre	2023-11-15T00:00:00	2024-11-08T00:00:00	2	Temperatura media	15.9
58986	7	Sololá	701	Sololá	1	Sololá	11	Noviembre	2023-11-15T00:00:00	2024-11-08T00:00:00	4	Temperatura máxima	16.4
58987	7	Sololá	701	Sololá	1	Sololá	11	Noviembre	2023-11-15T00:00:00	2024-11-08T00:00:00	3	Temperatura mínima	15.9
58988	7	Sololá	701	Sololá	1	Sololá	11	Noviembre	2023-11-15T00:00:00	2024-11-08T00:00:00	5	Humedad	82
58989	7	Sololá	701	Sololá	1	Sololá	11	Noviembre	2023-11-15T00:00:00	2024-11-08T00:00:00	6	Velocidad del viento	0
58990	7	Sololá	701	Sololá	1	Sololá	11	Noviembre	2023-11-15T00:00:00	2024-11-08T00:00:00	7	Dirección del viento	0
58991	7	Sololá	701	Sololá	1	Sololá	11	Noviembre	2023-11-15T00:00:00	2024-11-08T00:00:00	1	Precipitación	0
58992	7	Sololá	701	Sololá	1	Sololá	11	Noviembre	2023-11-15T00:00:00	2024-11-08T00:00:00	8	Radiación solar	0
58993	7	Sololá	701	Sololá	1	Sololá	11	Noviembre	2023-11-15T00:00:00	2024-11-08T01:00:00	2	Temperatura media	16.1
58994	7	Sololá	701	Sololá	1	Sololá	11	Noviembre	2023-11-15T00:00:00	2024-11-08T01:00:00	4	Temperatura máxima	16.2
58995	7	Sololá	701	Sololá	1	Sololá	11	Noviembre	2023-11-15T00:00:00	2024-11-08T01:00:00	3	Temperatura mínima	15.9
58996	7	Sololá	701	Sololá	1	Sololá	11	Noviembre	2023-11-15T00:00:00	2024-11-08T01:00:00	5	Humedad	82
58997	7	Sololá	701	Sololá	1	Sololá	11	Noviembre	2023-11-15T00:00:00	2024-11-08T01:00:00	6	Velocidad del viento	0
58998	7	Sololá	701	Sololá	1	Sololá	11	Noviembre	2023-11-15T00:00:00	2024-11-08T01:00:00	7	Dirección del viento	0
58999	7	Sololá	701	Sololá	1	Sololá	11	Noviembre	2023-11-15T00:00:00	2024-11-08T01:00:00	1	Precipitación	0
59000	7	Sololá	701	Sololá	1	Sololá	11	Noviembre	2023-11-15T00:00:00	2024-11-08T01:00:00	8	Radiación solar	0
59001	7	Sololá	701	Sololá	1	Sololá	11	Noviembre	2023-11-15T00:00:00	2024-11-08T02:00:00	2	Temperatura media	16
59002	7	Sololá	701	Sololá	1	Sololá	11	Noviembre	2023-11-15T00:00:00	2024-11-08T02:00:00	4	Temperatura máxima	16.2
59003	7	Sololá	701	Sololá	1	Sololá	11	Noviembre	2023-11-15T00:00:00	2024-11-08T02:00:00	3	Temperatura mínima	15.9
59004	7	Sololá	701	Sololá	1	Sololá	11	Noviembre	2023-11-15T00:00:00	2024-11-08T02:00:00	5	Humedad	82
59005	7	Sololá	701	Sololá	1	Sololá	11	Noviembre	2023-11-15T00:00:00	2024-11-08T02:00:00	6	Velocidad del viento	0
59006	7	Sololá	701	Sololá	1	Sololá	11	Noviembre	2023-11-15T00:00:00	2024-11-08T02:00:00	7	Dirección del viento	0
59007	7	Sololá	701	Sololá	1	Sololá	11	Noviembre	2023-11-15T00:00:00	2024-11-08T02:00:00	1	Precipitación	0
59008	7	Sololá	701	Sololá	1	Sololá	11	Noviembre	2023-11-15T00:00:00	2024-11-08T02:00:00	8	Radiación solar	0
59009	7	Sololá	701	Sololá	1	Sololá	11	Noviembre	2023-11-15T00:00:00	2024-11-08T03:00:00	2	Temperatura media	16.4
59010	7	Sololá	701	Sololá	1	Sololá	11	Noviembre	2023-11-15T00:00:00	2024-11-08T03:00:00	4	Temperatura máxima	16.4
59011	7	Sololá	701	Sololá	1	Sololá	11	Noviembre	2023-11-15T00:00:00	2024-11-08T03:00:00	3	Temperatura mínima	15.9
59012	7	Sololá	701	Sololá	1	Sololá	11	Noviembre	2023-11-15T00:00:00	2024-11-08T03:00:00	5	Humedad	81
59013	7	Sololá	701	Sololá	1	Sololá	11	Noviembre	2023-11-15T00:00:00	2024-11-08T03:00:00	6	Velocidad del viento	0
59014	7	Sololá	701	Sololá	1	Sololá	11	Noviembre	2023-11-15T00:00:00	2024-11-08T03:00:00	7	Dirección del viento	0
59015	7	Sololá	701	Sololá	1	Sololá	11	Noviembre	2023-11-15T00:00:00	2024-11-08T03:00:00	1	Precipitación	0
59016	7	Sololá	701	Sololá	1	Sololá	11	Noviembre	2023-11-15T00:00:00	2024-11-08T03:00:00	8	Radiación solar	0
59017	7	Sololá	701	Sololá	1	Sololá	11	Noviembre	2023-11-15T00:00:00	2024-11-08T04:00:00	2	Temperatura media	16.3
59018	7	Sololá	701	Sololá	1	Sololá	11	Noviembre	2023-11-15T00:00:00	2024-11-08T04:00:00	4	Temperatura máxima	16.4
59019	7	Sololá	701	Sololá	1	Sololá	11	Noviembre	2023-11-15T00:00:00	2024-11-08T04:00:00	3	Temperatura mínima	16.2
59020	7	Sololá	701	Sololá	1	Sololá	11	Noviembre	2023-11-15T00:00:00	2024-11-08T04:00:00	5	Humedad	82
59021	7	Sololá	701	Sololá	1	Sololá	11	Noviembre	2023-11-15T00:00:00	2024-11-08T04:00:00	6	Velocidad del viento	0
59022	7	Sololá	701	Sololá	1	Sololá	11	Noviembre	2023-11-15T00:00:00	2024-11-08T04:00:00	7	Dirección del viento	0
59023	7	Sololá	701	Sololá	1	Sololá	11	Noviembre	2023-11-15T00:00:00	2024-11-08T04:00:00	1	Precipitación	0
59024	7	Sololá	701	Sololá	1	Sololá	11	Noviembre	2023-11-15T00:00:00	2024-11-08T04:00:00	8	Radiación solar	0
59025	7	Sololá	701	Sololá	1	Sololá	11	Noviembre	2023-11-15T00:00:00	2024-11-08T05:00:00	2	Temperatura media	16.1
59026	7	Sololá	701	Sololá	1	Sololá	11	Noviembre	2023-11-15T00:00:00	2024-11-08T05:00:00	4	Temperatura máxima	16.3
59027	7	Sololá	701	Sololá	1	Sololá	11	Noviembre	2023-11-15T00:00:00	2024-11-08T05:00:00	3	Temperatura mínima	16.1
59028	7	Sololá	701	Sololá	1	Sololá	11	Noviembre	2023-11-15T00:00:00	2024-11-08T05:00:00	5	Humedad	82
59029	7	Sololá	701	Sololá	1	Sololá	11	Noviembre	2023-11-15T00:00:00	2024-11-08T05:00:00	6	Velocidad del viento	0
59030	7	Sololá	701	Sololá	1	Sololá	11	Noviembre	2023-11-15T00:00:00	2024-11-08T05:00:00	7	Dirección del viento	0
59031	7	Sololá	701	Sololá	1	Sololá	11	Noviembre	2023-11-15T00:00:00	2024-11-08T05:00:00	1	Precipitación	0
59032	7	Sololá	701	Sololá	1	Sololá	11	Noviembre	2023-11-15T00:00:00	2024-11-08T05:00:00	8	Radiación solar	0
59033	7	Sololá	701	Sololá	1	Sololá	11	Noviembre	2023-11-15T00:00:00	2024-11-08T06:00:00	2	Temperatura media	15.9
59034	7	Sololá	701	Sololá	1	Sololá	11	Noviembre	2023-11-15T00:00:00	2024-11-08T06:00:00	4	Temperatura máxima	16.1
59035	7	Sololá	701	Sololá	1	Sololá	11	Noviembre	2023-11-15T00:00:00	2024-11-08T06:00:00	3	Temperatura mínima	15.9
59036	7	Sololá	701	Sololá	1	Sololá	11	Noviembre	2023-11-15T00:00:00	2024-11-08T06:00:00	5	Humedad	82
59037	7	Sololá	701	Sololá	1	Sololá	11	Noviembre	2023-11-15T00:00:00	2024-11-08T06:00:00	6	Velocidad del viento	0
59038	7	Sololá	701	Sololá	1	Sololá	11	Noviembre	2023-11-15T00:00:00	2024-11-08T06:00:00	7	Dirección del viento	0
59039	7	Sololá	701	Sololá	1	Sololá	11	Noviembre	2023-11-15T00:00:00	2024-11-08T06:00:00	1	Precipitación	0
59040	7	Sololá	701	Sololá	1	Sololá	11	Noviembre	2023-11-15T00:00:00	2024-11-08T06:00:00	8	Radiación solar	0
59041	7	Sololá	701	Sololá	1	Sololá	11	Noviembre	2023-11-15T00:00:00	2024-11-08T07:00:00	2	Temperatura media	16.2
59042	7	Sololá	701	Sololá	1	Sololá	11	Noviembre	2023-11-15T00:00:00	2024-11-08T07:00:00	4	Temperatura máxima	16.2
59043	7	Sololá	701	Sololá	1	Sololá	11	Noviembre	2023-11-15T00:00:00	2024-11-08T07:00:00	3	Temperatura mínima	15.8
59044	7	Sololá	701	Sololá	1	Sololá	11	Noviembre	2023-11-15T00:00:00	2024-11-08T07:00:00	5	Humedad	80
59045	7	Sololá	701	Sololá	1	Sololá	11	Noviembre	2023-11-15T00:00:00	2024-11-08T07:00:00	6	Velocidad del viento	0
59046	7	Sololá	701	Sololá	1	Sololá	11	Noviembre	2023-11-15T00:00:00	2024-11-08T07:00:00	7	Dirección del viento	0
59047	7	Sololá	701	Sololá	1	Sololá	11	Noviembre	2023-11-15T00:00:00	2024-11-08T07:00:00	1	Precipitación	0
59048	7	Sololá	701	Sololá	1	Sololá	11	Noviembre	2023-11-15T00:00:00	2024-11-08T07:00:00	8	Radiación solar	18
59049	7	Sololá	701	Sololá	1	Sololá	11	Noviembre	2023-11-15T00:00:00	2024-11-08T08:00:00	2	Temperatura media	18
59050	7	Sololá	701	Sololá	1	Sololá	11	Noviembre	2023-11-15T00:00:00	2024-11-08T08:00:00	4	Temperatura máxima	18
59051	7	Sololá	701	Sololá	1	Sololá	11	Noviembre	2023-11-15T00:00:00	2024-11-08T08:00:00	3	Temperatura mínima	16.2
59052	7	Sololá	701	Sololá	1	Sololá	11	Noviembre	2023-11-15T00:00:00	2024-11-08T08:00:00	5	Humedad	77
59053	7	Sololá	701	Sololá	1	Sololá	11	Noviembre	2023-11-15T00:00:00	2024-11-08T08:00:00	6	Velocidad del viento	0
59054	7	Sololá	701	Sololá	1	Sololá	11	Noviembre	2023-11-15T00:00:00	2024-11-08T08:00:00	7	Dirección del viento	0
59055	7	Sololá	701	Sololá	1	Sololá	11	Noviembre	2023-11-15T00:00:00	2024-11-08T08:00:00	1	Precipitación	0
59056	7	Sololá	701	Sololá	1	Sololá	11	Noviembre	2023-11-15T00:00:00	2024-11-08T08:00:00	8	Radiación solar	128
59057	7	Sololá	701	Sololá	1	Sololá	11	Noviembre	2023-11-15T00:00:00	2024-11-08T09:00:00	2	Temperatura media	21.8
59058	7	Sololá	701	Sololá	1	Sololá	11	Noviembre	2023-11-15T00:00:00	2024-11-08T09:00:00	4	Temperatura máxima	21.9
59059	7	Sololá	701	Sololá	1	Sololá	11	Noviembre	2023-11-15T00:00:00	2024-11-08T09:00:00	3	Temperatura mínima	18
59060	7	Sololá	701	Sololá	1	Sololá	11	Noviembre	2023-11-15T00:00:00	2024-11-08T09:00:00	5	Humedad	66
59061	7	Sololá	701	Sololá	1	Sololá	11	Noviembre	2023-11-15T00:00:00	2024-11-08T09:00:00	6	Velocidad del viento	0
59062	7	Sololá	701	Sololá	1	Sololá	11	Noviembre	2023-11-15T00:00:00	2024-11-08T09:00:00	7	Dirección del viento	0
59063	7	Sololá	701	Sololá	1	Sololá	11	Noviembre	2023-11-15T00:00:00	2024-11-08T09:00:00	1	Precipitación	0
59064	7	Sololá	701	Sololá	1	Sololá	11	Noviembre	2023-11-15T00:00:00	2024-11-08T09:00:00	8	Radiación solar	479
59065	7	Sololá	701	Sololá	1	Sololá	11	Noviembre	2023-11-15T00:00:00	2024-11-08T10:00:00	2	Temperatura media	23.1
59066	7	Sololá	701	Sololá	1	Sololá	11	Noviembre	2023-11-15T00:00:00	2024-11-08T10:00:00	4	Temperatura máxima	23.1
59067	7	Sololá	701	Sololá	1	Sololá	11	Noviembre	2023-11-15T00:00:00	2024-11-08T10:00:00	3	Temperatura mínima	21.8
59068	7	Sololá	701	Sololá	1	Sololá	11	Noviembre	2023-11-15T00:00:00	2024-11-08T10:00:00	5	Humedad	63
59069	7	Sololá	701	Sololá	1	Sololá	11	Noviembre	2023-11-15T00:00:00	2024-11-08T10:00:00	6	Velocidad del viento	0
59070	7	Sololá	701	Sololá	1	Sololá	11	Noviembre	2023-11-15T00:00:00	2024-11-08T10:00:00	7	Dirección del viento	0
59071	7	Sololá	701	Sololá	1	Sololá	11	Noviembre	2023-11-15T00:00:00	2024-11-08T10:00:00	1	Precipitación	0
59072	7	Sololá	701	Sololá	1	Sololá	11	Noviembre	2023-11-15T00:00:00	2024-11-08T10:00:00	8	Radiación solar	640
59073	7	Sololá	701	Sololá	1	Sololá	11	Noviembre	2023-11-15T00:00:00	2024-11-08T11:00:00	2	Temperatura media	23.9
59074	7	Sololá	701	Sololá	1	Sololá	11	Noviembre	2023-11-15T00:00:00	2024-11-08T11:00:00	4	Temperatura máxima	24.4
59075	7	Sololá	701	Sololá	1	Sololá	11	Noviembre	2023-11-15T00:00:00	2024-11-08T11:00:00	3	Temperatura mínima	23.1
59076	7	Sololá	701	Sololá	1	Sololá	11	Noviembre	2023-11-15T00:00:00	2024-11-08T11:00:00	5	Humedad	62
59077	7	Sololá	701	Sololá	1	Sololá	11	Noviembre	2023-11-15T00:00:00	2024-11-08T11:00:00	6	Velocidad del viento	0
59078	7	Sololá	701	Sololá	1	Sololá	11	Noviembre	2023-11-15T00:00:00	2024-11-08T11:00:00	7	Dirección del viento	0
59079	7	Sololá	701	Sololá	1	Sololá	11	Noviembre	2023-11-15T00:00:00	2024-11-08T11:00:00	1	Precipitación	0
59080	7	Sololá	701	Sololá	1	Sololá	11	Noviembre	2023-11-15T00:00:00	2024-11-08T11:00:00	8	Radiación solar	762
59081	7	Sololá	701	Sololá	1	Sololá	11	Noviembre	2023-11-15T00:00:00	2024-11-08T12:00:00	2	Temperatura media	23.7
59082	7	Sololá	701	Sololá	1	Sololá	11	Noviembre	2023-11-15T00:00:00	2024-11-08T12:00:00	4	Temperatura máxima	24.4
59083	7	Sololá	701	Sololá	1	Sololá	11	Noviembre	2023-11-15T00:00:00	2024-11-08T12:00:00	3	Temperatura mínima	23.7
59084	7	Sololá	701	Sololá	1	Sololá	11	Noviembre	2023-11-15T00:00:00	2024-11-08T12:00:00	5	Humedad	61
59085	7	Sololá	701	Sololá	1	Sololá	11	Noviembre	2023-11-15T00:00:00	2024-11-08T12:00:00	6	Velocidad del viento	0
59086	7	Sololá	701	Sololá	1	Sololá	11	Noviembre	2023-11-15T00:00:00	2024-11-08T12:00:00	7	Dirección del viento	0
59087	7	Sololá	701	Sololá	1	Sololá	11	Noviembre	2023-11-15T00:00:00	2024-11-08T12:00:00	1	Precipitación	0
59088	7	Sololá	701	Sololá	1	Sololá	11	Noviembre	2023-11-15T00:00:00	2024-11-08T12:00:00	8	Radiación solar	710
59089	7	Sololá	701	Sololá	1	Sololá	11	Noviembre	2023-11-15T00:00:00	2024-11-08T13:00:00	2	Temperatura media	24.7
59090	7	Sololá	701	Sololá	1	Sololá	11	Noviembre	2023-11-15T00:00:00	2024-11-08T13:00:00	4	Temperatura máxima	24.7
59091	7	Sololá	701	Sololá	1	Sololá	11	Noviembre	2023-11-15T00:00:00	2024-11-08T13:00:00	3	Temperatura mínima	23.2
59092	7	Sololá	701	Sololá	1	Sololá	11	Noviembre	2023-11-15T00:00:00	2024-11-08T13:00:00	5	Humedad	59
59093	7	Sololá	701	Sololá	1	Sololá	11	Noviembre	2023-11-15T00:00:00	2024-11-08T13:00:00	6	Velocidad del viento	0
59094	7	Sololá	701	Sololá	1	Sololá	11	Noviembre	2023-11-15T00:00:00	2024-11-08T13:00:00	7	Dirección del viento	0
59095	7	Sololá	701	Sololá	1	Sololá	11	Noviembre	2023-11-15T00:00:00	2024-11-08T13:00:00	1	Precipitación	0
59096	7	Sololá	701	Sololá	1	Sololá	11	Noviembre	2023-11-15T00:00:00	2024-11-08T13:00:00	8	Radiación solar	385
59097	7	Sololá	701	Sololá	1	Sololá	11	Noviembre	2023-11-15T00:00:00	2024-11-08T14:00:00	2	Temperatura media	24.2
59098	7	Sololá	701	Sololá	1	Sololá	11	Noviembre	2023-11-15T00:00:00	2024-11-08T14:00:00	4	Temperatura máxima	24.8
59099	7	Sololá	701	Sololá	1	Sololá	11	Noviembre	2023-11-15T00:00:00	2024-11-08T14:00:00	3	Temperatura mínima	24.2
59100	7	Sololá	701	Sololá	1	Sololá	11	Noviembre	2023-11-15T00:00:00	2024-11-08T14:00:00	5	Humedad	58
59101	7	Sololá	701	Sololá	1	Sololá	11	Noviembre	2023-11-15T00:00:00	2024-11-08T14:00:00	6	Velocidad del viento	0
59102	7	Sololá	701	Sololá	1	Sololá	11	Noviembre	2023-11-15T00:00:00	2024-11-08T14:00:00	7	Dirección del viento	0
59103	7	Sololá	701	Sololá	1	Sololá	11	Noviembre	2023-11-15T00:00:00	2024-11-08T14:00:00	1	Precipitación	0
59104	7	Sololá	701	Sololá	1	Sololá	11	Noviembre	2023-11-15T00:00:00	2024-11-08T14:00:00	8	Radiación solar	515
59105	7	Sololá	701	Sololá	1	Sololá	11	Noviembre	2023-11-15T00:00:00	2024-11-08T15:00:00	2	Temperatura media	23.6
59106	7	Sololá	701	Sololá	1	Sololá	11	Noviembre	2023-11-15T00:00:00	2024-11-08T15:00:00	4	Temperatura máxima	24.2
59107	7	Sololá	701	Sololá	1	Sololá	11	Noviembre	2023-11-15T00:00:00	2024-11-08T15:00:00	3	Temperatura mínima	23.3
59108	7	Sololá	701	Sololá	1	Sololá	11	Noviembre	2023-11-15T00:00:00	2024-11-08T15:00:00	5	Humedad	60
59109	7	Sololá	701	Sololá	1	Sololá	11	Noviembre	2023-11-15T00:00:00	2024-11-08T15:00:00	6	Velocidad del viento	0
59110	7	Sololá	701	Sololá	1	Sololá	11	Noviembre	2023-11-15T00:00:00	2024-11-08T15:00:00	7	Dirección del viento	0
59111	7	Sololá	701	Sololá	1	Sololá	11	Noviembre	2023-11-15T00:00:00	2024-11-08T15:00:00	1	Precipitación	0
59112	7	Sololá	701	Sololá	1	Sololá	11	Noviembre	2023-11-15T00:00:00	2024-11-08T15:00:00	8	Radiación solar	94
59113	7	Sololá	701	Sololá	1	Sololá	11	Noviembre	2023-11-15T00:00:00	2024-11-08T16:00:00	2	Temperatura media	21.1
59114	7	Sololá	701	Sololá	1	Sololá	11	Noviembre	2023-11-15T00:00:00	2024-11-08T16:00:00	4	Temperatura máxima	23.6
59115	7	Sololá	701	Sololá	1	Sololá	11	Noviembre	2023-11-15T00:00:00	2024-11-08T16:00:00	3	Temperatura mínima	21.1
59116	7	Sololá	701	Sololá	1	Sololá	11	Noviembre	2023-11-15T00:00:00	2024-11-08T16:00:00	5	Humedad	69
59117	7	Sololá	701	Sololá	1	Sololá	11	Noviembre	2023-11-15T00:00:00	2024-11-08T16:00:00	6	Velocidad del viento	0
59118	7	Sololá	701	Sololá	1	Sololá	11	Noviembre	2023-11-15T00:00:00	2024-11-08T16:00:00	7	Dirección del viento	0
59119	7	Sololá	701	Sololá	1	Sololá	11	Noviembre	2023-11-15T00:00:00	2024-11-08T16:00:00	1	Precipitación	0
59120	7	Sololá	701	Sololá	1	Sololá	11	Noviembre	2023-11-15T00:00:00	2024-11-08T16:00:00	8	Radiación solar	64
59121	7	Sololá	701	Sololá	1	Sololá	11	Noviembre	2023-11-15T00:00:00	2024-11-08T17:00:00	2	Temperatura media	20.4
59122	7	Sololá	701	Sololá	1	Sololá	11	Noviembre	2023-11-15T00:00:00	2024-11-08T17:00:00	4	Temperatura máxima	21.1
59123	7	Sololá	701	Sololá	1	Sololá	11	Noviembre	2023-11-15T00:00:00	2024-11-08T17:00:00	3	Temperatura mínima	20.4
59124	7	Sololá	701	Sololá	1	Sololá	11	Noviembre	2023-11-15T00:00:00	2024-11-08T17:00:00	5	Humedad	72
59125	7	Sololá	701	Sololá	1	Sololá	11	Noviembre	2023-11-15T00:00:00	2024-11-08T17:00:00	6	Velocidad del viento	0
59126	7	Sololá	701	Sololá	1	Sololá	11	Noviembre	2023-11-15T00:00:00	2024-11-08T17:00:00	7	Dirección del viento	0
59127	7	Sololá	701	Sololá	1	Sololá	11	Noviembre	2023-11-15T00:00:00	2024-11-08T17:00:00	1	Precipitación	0
59128	7	Sololá	701	Sololá	1	Sololá	11	Noviembre	2023-11-15T00:00:00	2024-11-08T17:00:00	8	Radiación solar	43
59129	7	Sololá	701	Sololá	1	Sololá	11	Noviembre	2023-11-15T00:00:00	2024-11-08T18:00:00	2	Temperatura media	17.7
59130	7	Sololá	701	Sololá	1	Sololá	11	Noviembre	2023-11-15T00:00:00	2024-11-08T18:00:00	4	Temperatura máxima	20.4
59131	7	Sololá	701	Sololá	1	Sololá	11	Noviembre	2023-11-15T00:00:00	2024-11-08T18:00:00	3	Temperatura mínima	17.6
59132	7	Sololá	701	Sololá	1	Sololá	11	Noviembre	2023-11-15T00:00:00	2024-11-08T18:00:00	5	Humedad	79
59133	7	Sololá	701	Sololá	1	Sololá	11	Noviembre	2023-11-15T00:00:00	2024-11-08T18:00:00	6	Velocidad del viento	0
59134	7	Sololá	701	Sololá	1	Sololá	11	Noviembre	2023-11-15T00:00:00	2024-11-08T18:00:00	7	Dirección del viento	0
59135	7	Sololá	701	Sololá	1	Sololá	11	Noviembre	2023-11-15T00:00:00	2024-11-08T18:00:00	1	Precipitación	0
59136	7	Sololá	701	Sololá	1	Sololá	11	Noviembre	2023-11-15T00:00:00	2024-11-08T18:00:00	8	Radiación solar	4
59137	7	Sololá	701	Sololá	1	Sololá	11	Noviembre	2023-11-15T00:00:00	2024-11-08T19:00:00	2	Temperatura media	16.6
59138	7	Sololá	701	Sololá	1	Sololá	11	Noviembre	2023-11-15T00:00:00	2024-11-08T19:00:00	4	Temperatura máxima	17.7
59139	7	Sololá	701	Sololá	1	Sololá	11	Noviembre	2023-11-15T00:00:00	2024-11-08T19:00:00	3	Temperatura mínima	16.5
59140	7	Sololá	701	Sololá	1	Sololá	11	Noviembre	2023-11-15T00:00:00	2024-11-08T19:00:00	5	Humedad	79
59141	7	Sololá	701	Sololá	1	Sololá	11	Noviembre	2023-11-15T00:00:00	2024-11-08T19:00:00	6	Velocidad del viento	0
59142	7	Sololá	701	Sololá	1	Sololá	11	Noviembre	2023-11-15T00:00:00	2024-11-08T19:00:00	7	Dirección del viento	0
59143	7	Sololá	701	Sololá	1	Sololá	11	Noviembre	2023-11-15T00:00:00	2024-11-08T19:00:00	1	Precipitación	0
59144	7	Sololá	701	Sololá	1	Sololá	11	Noviembre	2023-11-15T00:00:00	2024-11-08T19:00:00	8	Radiación solar	0
59145	7	Sololá	701	Sololá	1	Sololá	11	Noviembre	2023-11-15T00:00:00	2024-11-08T20:00:00	2	Temperatura media	16.5
59146	7	Sololá	701	Sololá	1	Sololá	11	Noviembre	2023-11-15T00:00:00	2024-11-08T20:00:00	4	Temperatura máxima	16.6
59147	7	Sololá	701	Sololá	1	Sololá	11	Noviembre	2023-11-15T00:00:00	2024-11-08T20:00:00	3	Temperatura mínima	16.5
59148	7	Sololá	701	Sololá	1	Sololá	11	Noviembre	2023-11-15T00:00:00	2024-11-08T20:00:00	5	Humedad	79
59149	7	Sololá	701	Sololá	1	Sololá	11	Noviembre	2023-11-15T00:00:00	2024-11-08T20:00:00	6	Velocidad del viento	0
59150	7	Sololá	701	Sololá	1	Sololá	11	Noviembre	2023-11-15T00:00:00	2024-11-08T20:00:00	7	Dirección del viento	0
59151	7	Sololá	701	Sololá	1	Sololá	11	Noviembre	2023-11-15T00:00:00	2024-11-08T20:00:00	1	Precipitación	0
59152	7	Sololá	701	Sololá	1	Sololá	11	Noviembre	2023-11-15T00:00:00	2024-11-08T20:00:00	8	Radiación solar	0
59153	7	Sololá	701	Sololá	1	Sololá	11	Noviembre	2023-11-15T00:00:00	2024-11-08T21:00:00	2	Temperatura media	16.1
59154	7	Sololá	701	Sololá	1	Sololá	11	Noviembre	2023-11-15T00:00:00	2024-11-08T21:00:00	4	Temperatura máxima	16.5
59155	7	Sololá	701	Sololá	1	Sololá	11	Noviembre	2023-11-15T00:00:00	2024-11-08T21:00:00	3	Temperatura mínima	16.1
59156	7	Sololá	701	Sololá	1	Sololá	11	Noviembre	2023-11-15T00:00:00	2024-11-08T21:00:00	5	Humedad	79
59157	7	Sololá	701	Sololá	1	Sololá	11	Noviembre	2023-11-15T00:00:00	2024-11-08T21:00:00	6	Velocidad del viento	0
59158	7	Sololá	701	Sololá	1	Sololá	11	Noviembre	2023-11-15T00:00:00	2024-11-08T21:00:00	7	Dirección del viento	0
59159	7	Sololá	701	Sololá	1	Sololá	11	Noviembre	2023-11-15T00:00:00	2024-11-08T21:00:00	1	Precipitación	0
59160	7	Sololá	701	Sololá	1	Sololá	11	Noviembre	2023-11-15T00:00:00	2024-11-08T21:00:00	8	Radiación solar	0
59161	7	Sololá	701	Sololá	1	Sololá	11	Noviembre	2023-11-15T00:00:00	2024-11-08T22:00:00	2	Temperatura media	15.6
59162	7	Sololá	701	Sololá	1	Sololá	11	Noviembre	2023-11-15T00:00:00	2024-11-08T22:00:00	4	Temperatura máxima	16.2
59163	7	Sololá	701	Sololá	1	Sololá	11	Noviembre	2023-11-15T00:00:00	2024-11-08T22:00:00	3	Temperatura mínima	15.6
59164	7	Sololá	701	Sololá	1	Sololá	11	Noviembre	2023-11-15T00:00:00	2024-11-08T22:00:00	5	Humedad	78
59165	7	Sololá	701	Sololá	1	Sololá	11	Noviembre	2023-11-15T00:00:00	2024-11-08T22:00:00	6	Velocidad del viento	0
59166	7	Sololá	701	Sololá	1	Sololá	11	Noviembre	2023-11-15T00:00:00	2024-11-08T22:00:00	7	Dirección del viento	0
59167	7	Sololá	701	Sololá	1	Sololá	11	Noviembre	2023-11-15T00:00:00	2024-11-08T22:00:00	1	Precipitación	0
59168	7	Sololá	701	Sololá	1	Sololá	11	Noviembre	2023-11-15T00:00:00	2024-11-08T22:00:00	8	Radiación solar	0
59169	7	Sololá	701	Sololá	1	Sololá	11	Noviembre	2023-11-15T00:00:00	2024-11-08T23:00:00	2	Temperatura media	15.1
59170	7	Sololá	701	Sololá	1	Sololá	11	Noviembre	2023-11-15T00:00:00	2024-11-08T23:00:00	4	Temperatura máxima	15.7
59171	7	Sololá	701	Sololá	1	Sololá	11	Noviembre	2023-11-15T00:00:00	2024-11-08T23:00:00	3	Temperatura mínima	15.1
59172	7	Sololá	701	Sololá	1	Sololá	11	Noviembre	2023-11-15T00:00:00	2024-11-08T23:00:00	5	Humedad	78
59173	7	Sololá	701	Sololá	1	Sololá	11	Noviembre	2023-11-15T00:00:00	2024-11-08T23:00:00	6	Velocidad del viento	0
59174	7	Sololá	701	Sololá	1	Sololá	11	Noviembre	2023-11-15T00:00:00	2024-11-08T23:00:00	7	Dirección del viento	0
59175	7	Sololá	701	Sololá	1	Sololá	11	Noviembre	2023-11-15T00:00:00	2024-11-08T23:00:00	1	Precipitación	0
59176	7	Sololá	701	Sololá	1	Sololá	11	Noviembre	2023-11-15T00:00:00	2024-11-08T23:00:00	8	Radiación solar	0
59177	7	Sololá	701	Sololá	1	Sololá	11	Noviembre	2023-11-16T00:00:00	2024-11-08T00:00:00	2	Temperatura media	14.3
59178	7	Sololá	701	Sololá	1	Sololá	11	Noviembre	2023-11-16T00:00:00	2024-11-08T00:00:00	4	Temperatura máxima	15.1
59179	7	Sololá	701	Sololá	1	Sololá	11	Noviembre	2023-11-16T00:00:00	2024-11-08T00:00:00	3	Temperatura mínima	14.3
59180	7	Sololá	701	Sololá	1	Sololá	11	Noviembre	2023-11-16T00:00:00	2024-11-08T00:00:00	5	Humedad	79
59181	7	Sololá	701	Sololá	1	Sololá	11	Noviembre	2023-11-16T00:00:00	2024-11-08T00:00:00	6	Velocidad del viento	0
59182	7	Sololá	701	Sololá	1	Sololá	11	Noviembre	2023-11-16T00:00:00	2024-11-08T00:00:00	7	Dirección del viento	0
59183	7	Sololá	701	Sololá	1	Sololá	11	Noviembre	2023-11-16T00:00:00	2024-11-08T00:00:00	1	Precipitación	0
59184	7	Sololá	701	Sololá	1	Sololá	11	Noviembre	2023-11-16T00:00:00	2024-11-08T00:00:00	8	Radiación solar	0
59185	7	Sololá	701	Sololá	1	Sololá	11	Noviembre	2023-11-16T00:00:00	2024-11-08T01:00:00	2	Temperatura media	14.6
59186	7	Sololá	701	Sololá	1	Sololá	11	Noviembre	2023-11-16T00:00:00	2024-11-08T01:00:00	4	Temperatura máxima	14.6
59187	7	Sololá	701	Sololá	1	Sololá	11	Noviembre	2023-11-16T00:00:00	2024-11-08T01:00:00	3	Temperatura mínima	14.3
59188	7	Sololá	701	Sololá	1	Sololá	11	Noviembre	2023-11-16T00:00:00	2024-11-08T01:00:00	5	Humedad	79
59189	7	Sololá	701	Sololá	1	Sololá	11	Noviembre	2023-11-16T00:00:00	2024-11-08T01:00:00	6	Velocidad del viento	0
59190	7	Sololá	701	Sololá	1	Sololá	11	Noviembre	2023-11-16T00:00:00	2024-11-08T01:00:00	7	Dirección del viento	0
59191	7	Sololá	701	Sololá	1	Sololá	11	Noviembre	2023-11-16T00:00:00	2024-11-08T01:00:00	1	Precipitación	0
59192	7	Sololá	701	Sololá	1	Sololá	11	Noviembre	2023-11-16T00:00:00	2024-11-08T01:00:00	8	Radiación solar	0
59193	7	Sololá	701	Sololá	1	Sololá	11	Noviembre	2023-11-16T00:00:00	2024-11-08T02:00:00	2	Temperatura media	13.9
59194	7	Sololá	701	Sololá	1	Sololá	11	Noviembre	2023-11-16T00:00:00	2024-11-08T02:00:00	4	Temperatura máxima	14.6
59195	7	Sololá	701	Sololá	1	Sololá	11	Noviembre	2023-11-16T00:00:00	2024-11-08T02:00:00	3	Temperatura mínima	13.9
59196	7	Sololá	701	Sololá	1	Sololá	11	Noviembre	2023-11-16T00:00:00	2024-11-08T02:00:00	5	Humedad	79
59197	7	Sololá	701	Sololá	1	Sololá	11	Noviembre	2023-11-16T00:00:00	2024-11-08T02:00:00	6	Velocidad del viento	0
59198	7	Sololá	701	Sololá	1	Sololá	11	Noviembre	2023-11-16T00:00:00	2024-11-08T02:00:00	7	Dirección del viento	0
59199	7	Sololá	701	Sololá	1	Sololá	11	Noviembre	2023-11-16T00:00:00	2024-11-08T02:00:00	1	Precipitación	0
59200	7	Sololá	701	Sololá	1	Sololá	11	Noviembre	2023-11-16T00:00:00	2024-11-08T02:00:00	8	Radiación solar	0
59201	7	Sololá	701	Sololá	1	Sololá	11	Noviembre	2023-11-16T00:00:00	2024-11-08T03:00:00	2	Temperatura media	14.1
59202	7	Sololá	701	Sololá	1	Sololá	11	Noviembre	2023-11-16T00:00:00	2024-11-08T03:00:00	4	Temperatura máxima	14.3
59203	7	Sololá	701	Sololá	1	Sololá	11	Noviembre	2023-11-16T00:00:00	2024-11-08T03:00:00	3	Temperatura mínima	13.8
59204	7	Sololá	701	Sololá	1	Sololá	11	Noviembre	2023-11-16T00:00:00	2024-11-08T03:00:00	5	Humedad	81
59205	7	Sololá	701	Sololá	1	Sololá	11	Noviembre	2023-11-16T00:00:00	2024-11-08T03:00:00	6	Velocidad del viento	0
59206	7	Sololá	701	Sololá	1	Sololá	11	Noviembre	2023-11-16T00:00:00	2024-11-08T03:00:00	7	Dirección del viento	0
59207	7	Sololá	701	Sololá	1	Sololá	11	Noviembre	2023-11-16T00:00:00	2024-11-08T03:00:00	1	Precipitación	0
59208	7	Sololá	701	Sololá	1	Sololá	11	Noviembre	2023-11-16T00:00:00	2024-11-08T03:00:00	8	Radiación solar	0
59209	7	Sololá	701	Sololá	1	Sololá	11	Noviembre	2023-11-16T00:00:00	2024-11-08T04:00:00	2	Temperatura media	14.6
59210	7	Sololá	701	Sololá	1	Sololá	11	Noviembre	2023-11-16T00:00:00	2024-11-08T04:00:00	4	Temperatura máxima	14.6
59211	7	Sololá	701	Sololá	1	Sololá	11	Noviembre	2023-11-16T00:00:00	2024-11-08T04:00:00	3	Temperatura mínima	14
59212	7	Sololá	701	Sololá	1	Sololá	11	Noviembre	2023-11-16T00:00:00	2024-11-08T04:00:00	5	Humedad	80
59213	7	Sololá	701	Sololá	1	Sololá	11	Noviembre	2023-11-16T00:00:00	2024-11-08T04:00:00	6	Velocidad del viento	0
59214	7	Sololá	701	Sololá	1	Sololá	11	Noviembre	2023-11-16T00:00:00	2024-11-08T04:00:00	7	Dirección del viento	0
59215	7	Sololá	701	Sololá	1	Sololá	11	Noviembre	2023-11-16T00:00:00	2024-11-08T04:00:00	1	Precipitación	0
59216	7	Sololá	701	Sololá	1	Sololá	11	Noviembre	2023-11-16T00:00:00	2024-11-08T04:00:00	8	Radiación solar	0
59217	7	Sololá	701	Sololá	1	Sololá	11	Noviembre	2023-11-16T00:00:00	2024-11-08T05:00:00	2	Temperatura media	14.6
59218	7	Sololá	701	Sololá	1	Sololá	11	Noviembre	2023-11-16T00:00:00	2024-11-08T05:00:00	4	Temperatura máxima	14.6
59219	7	Sololá	701	Sololá	1	Sololá	11	Noviembre	2023-11-16T00:00:00	2024-11-08T05:00:00	3	Temperatura mínima	14.3
59220	7	Sololá	701	Sololá	1	Sololá	11	Noviembre	2023-11-16T00:00:00	2024-11-08T05:00:00	5	Humedad	78
59221	7	Sololá	701	Sololá	1	Sololá	11	Noviembre	2023-11-16T00:00:00	2024-11-08T05:00:00	6	Velocidad del viento	0
59222	7	Sololá	701	Sololá	1	Sololá	11	Noviembre	2023-11-16T00:00:00	2024-11-08T05:00:00	7	Dirección del viento	0
59223	7	Sololá	701	Sololá	1	Sololá	11	Noviembre	2023-11-16T00:00:00	2024-11-08T05:00:00	1	Precipitación	0
59224	7	Sololá	701	Sololá	1	Sololá	11	Noviembre	2023-11-16T00:00:00	2024-11-08T05:00:00	8	Radiación solar	0
59225	7	Sololá	701	Sololá	1	Sololá	11	Noviembre	2023-11-16T00:00:00	2024-11-08T06:00:00	2	Temperatura media	14.2
59226	7	Sololá	701	Sololá	1	Sololá	11	Noviembre	2023-11-16T00:00:00	2024-11-08T06:00:00	4	Temperatura máxima	14.6
59227	7	Sololá	701	Sololá	1	Sololá	11	Noviembre	2023-11-16T00:00:00	2024-11-08T06:00:00	3	Temperatura mínima	14.1
59228	7	Sololá	701	Sololá	1	Sololá	11	Noviembre	2023-11-16T00:00:00	2024-11-08T06:00:00	5	Humedad	79
59229	7	Sololá	701	Sololá	1	Sololá	11	Noviembre	2023-11-16T00:00:00	2024-11-08T06:00:00	6	Velocidad del viento	0
59230	7	Sololá	701	Sololá	1	Sololá	11	Noviembre	2023-11-16T00:00:00	2024-11-08T06:00:00	7	Dirección del viento	0
59231	7	Sololá	701	Sololá	1	Sololá	11	Noviembre	2023-11-16T00:00:00	2024-11-08T06:00:00	1	Precipitación	0
59232	7	Sololá	701	Sololá	1	Sololá	11	Noviembre	2023-11-16T00:00:00	2024-11-08T06:00:00	8	Radiación solar	0
59233	7	Sololá	701	Sololá	1	Sololá	11	Noviembre	2023-11-16T00:00:00	2024-11-08T07:00:00	2	Temperatura media	14.8
59234	7	Sololá	701	Sololá	1	Sololá	11	Noviembre	2023-11-16T00:00:00	2024-11-08T07:00:00	4	Temperatura máxima	14.8
59235	7	Sololá	701	Sololá	1	Sololá	11	Noviembre	2023-11-16T00:00:00	2024-11-08T07:00:00	3	Temperatura mínima	14.2
59236	7	Sololá	701	Sololá	1	Sololá	11	Noviembre	2023-11-16T00:00:00	2024-11-08T07:00:00	5	Humedad	79
59237	7	Sololá	701	Sololá	1	Sololá	11	Noviembre	2023-11-16T00:00:00	2024-11-08T07:00:00	6	Velocidad del viento	0
59238	7	Sololá	701	Sololá	1	Sololá	11	Noviembre	2023-11-16T00:00:00	2024-11-08T07:00:00	7	Dirección del viento	0
59239	7	Sololá	701	Sololá	1	Sololá	11	Noviembre	2023-11-16T00:00:00	2024-11-08T07:00:00	1	Precipitación	0
59240	7	Sololá	701	Sololá	1	Sololá	11	Noviembre	2023-11-16T00:00:00	2024-11-08T07:00:00	8	Radiación solar	7
59241	7	Sololá	701	Sololá	1	Sololá	11	Noviembre	2023-11-16T00:00:00	2024-11-08T08:00:00	2	Temperatura media	16.5
59242	7	Sololá	701	Sololá	1	Sololá	11	Noviembre	2023-11-16T00:00:00	2024-11-08T08:00:00	4	Temperatura máxima	16.5
59243	7	Sololá	701	Sololá	1	Sololá	11	Noviembre	2023-11-16T00:00:00	2024-11-08T08:00:00	3	Temperatura mínima	14.8
59244	7	Sololá	701	Sololá	1	Sololá	11	Noviembre	2023-11-16T00:00:00	2024-11-08T08:00:00	5	Humedad	76
59245	7	Sololá	701	Sololá	1	Sololá	11	Noviembre	2023-11-16T00:00:00	2024-11-08T08:00:00	6	Velocidad del viento	0
59246	7	Sololá	701	Sololá	1	Sololá	11	Noviembre	2023-11-16T00:00:00	2024-11-08T08:00:00	7	Dirección del viento	0
59247	7	Sololá	701	Sololá	1	Sololá	11	Noviembre	2023-11-16T00:00:00	2024-11-08T08:00:00	1	Precipitación	0
59248	7	Sololá	701	Sololá	1	Sololá	11	Noviembre	2023-11-16T00:00:00	2024-11-08T08:00:00	8	Radiación solar	109
59249	7	Sololá	701	Sololá	1	Sololá	11	Noviembre	2023-11-16T00:00:00	2024-11-08T09:00:00	2	Temperatura media	21.8
59250	7	Sololá	701	Sololá	1	Sololá	11	Noviembre	2023-11-16T00:00:00	2024-11-08T09:00:00	4	Temperatura máxima	21.8
59251	7	Sololá	701	Sololá	1	Sololá	11	Noviembre	2023-11-16T00:00:00	2024-11-08T09:00:00	3	Temperatura mínima	16.5
59252	7	Sololá	701	Sololá	1	Sololá	11	Noviembre	2023-11-16T00:00:00	2024-11-08T09:00:00	5	Humedad	59
59253	7	Sololá	701	Sololá	1	Sololá	11	Noviembre	2023-11-16T00:00:00	2024-11-08T09:00:00	6	Velocidad del viento	0
59254	7	Sololá	701	Sololá	1	Sololá	11	Noviembre	2023-11-16T00:00:00	2024-11-08T09:00:00	7	Dirección del viento	0
59255	7	Sololá	701	Sololá	1	Sololá	11	Noviembre	2023-11-16T00:00:00	2024-11-08T09:00:00	1	Precipitación	0
59256	7	Sololá	701	Sololá	1	Sololá	11	Noviembre	2023-11-16T00:00:00	2024-11-08T09:00:00	8	Radiación solar	581
59257	7	Sololá	701	Sololá	1	Sololá	11	Noviembre	2023-11-16T00:00:00	2024-11-08T10:00:00	2	Temperatura media	22.7
59258	7	Sololá	701	Sololá	1	Sololá	11	Noviembre	2023-11-16T00:00:00	2024-11-08T10:00:00	4	Temperatura máxima	22.9
59259	7	Sololá	701	Sololá	1	Sololá	11	Noviembre	2023-11-16T00:00:00	2024-11-08T10:00:00	3	Temperatura mínima	21.8
59260	7	Sololá	701	Sololá	1	Sololá	11	Noviembre	2023-11-16T00:00:00	2024-11-08T10:00:00	5	Humedad	58
59261	7	Sololá	701	Sololá	1	Sololá	11	Noviembre	2023-11-16T00:00:00	2024-11-08T10:00:00	6	Velocidad del viento	0
59262	7	Sololá	701	Sololá	1	Sololá	11	Noviembre	2023-11-16T00:00:00	2024-11-08T10:00:00	7	Dirección del viento	0
59263	7	Sololá	701	Sololá	1	Sololá	11	Noviembre	2023-11-16T00:00:00	2024-11-08T10:00:00	1	Precipitación	0
59264	7	Sololá	701	Sololá	1	Sololá	11	Noviembre	2023-11-16T00:00:00	2024-11-08T10:00:00	8	Radiación solar	760
59265	7	Sololá	701	Sololá	1	Sololá	11	Noviembre	2023-11-16T00:00:00	2024-11-08T11:00:00	2	Temperatura media	23.4
59266	7	Sololá	701	Sololá	1	Sololá	11	Noviembre	2023-11-16T00:00:00	2024-11-08T11:00:00	4	Temperatura máxima	23.7
59267	7	Sololá	701	Sololá	1	Sololá	11	Noviembre	2023-11-16T00:00:00	2024-11-08T11:00:00	3	Temperatura mínima	22.7
59268	7	Sololá	701	Sololá	1	Sololá	11	Noviembre	2023-11-16T00:00:00	2024-11-08T11:00:00	5	Humedad	57
59269	7	Sololá	701	Sololá	1	Sololá	11	Noviembre	2023-11-16T00:00:00	2024-11-08T11:00:00	6	Velocidad del viento	0
59270	7	Sololá	701	Sololá	1	Sololá	11	Noviembre	2023-11-16T00:00:00	2024-11-08T11:00:00	7	Dirección del viento	0
59271	7	Sololá	701	Sololá	1	Sololá	11	Noviembre	2023-11-16T00:00:00	2024-11-08T11:00:00	1	Precipitación	0
59272	7	Sololá	701	Sololá	1	Sololá	11	Noviembre	2023-11-16T00:00:00	2024-11-08T11:00:00	8	Radiación solar	872
59273	7	Sololá	701	Sololá	1	Sololá	11	Noviembre	2023-11-16T00:00:00	2024-11-08T12:00:00	2	Temperatura media	24.6
59274	7	Sololá	701	Sololá	1	Sololá	11	Noviembre	2023-11-16T00:00:00	2024-11-08T12:00:00	4	Temperatura máxima	24.6
59275	7	Sololá	701	Sololá	1	Sololá	11	Noviembre	2023-11-16T00:00:00	2024-11-08T12:00:00	3	Temperatura mínima	23.3
59276	7	Sololá	701	Sololá	1	Sololá	11	Noviembre	2023-11-16T00:00:00	2024-11-08T12:00:00	5	Humedad	54
59277	7	Sololá	701	Sololá	1	Sololá	11	Noviembre	2023-11-16T00:00:00	2024-11-08T12:00:00	6	Velocidad del viento	0
59278	7	Sololá	701	Sololá	1	Sololá	11	Noviembre	2023-11-16T00:00:00	2024-11-08T12:00:00	7	Dirección del viento	0
59279	7	Sololá	701	Sololá	1	Sololá	11	Noviembre	2023-11-16T00:00:00	2024-11-08T12:00:00	1	Precipitación	0
59280	7	Sololá	701	Sololá	1	Sololá	11	Noviembre	2023-11-16T00:00:00	2024-11-08T12:00:00	8	Radiación solar	912
59281	7	Sololá	701	Sololá	1	Sololá	11	Noviembre	2023-11-16T00:00:00	2024-11-08T13:00:00	2	Temperatura media	24.9
59282	7	Sololá	701	Sololá	1	Sololá	11	Noviembre	2023-11-16T00:00:00	2024-11-08T13:00:00	4	Temperatura máxima	25
59283	7	Sololá	701	Sololá	1	Sololá	11	Noviembre	2023-11-16T00:00:00	2024-11-08T13:00:00	3	Temperatura mínima	23.9
59284	7	Sololá	701	Sololá	1	Sololá	11	Noviembre	2023-11-16T00:00:00	2024-11-08T13:00:00	5	Humedad	54
59285	7	Sololá	701	Sololá	1	Sololá	11	Noviembre	2023-11-16T00:00:00	2024-11-08T13:00:00	6	Velocidad del viento	0
59286	7	Sololá	701	Sololá	1	Sololá	11	Noviembre	2023-11-16T00:00:00	2024-11-08T13:00:00	7	Dirección del viento	0
59287	7	Sololá	701	Sololá	1	Sololá	11	Noviembre	2023-11-16T00:00:00	2024-11-08T13:00:00	1	Precipitación	0
59288	7	Sololá	701	Sololá	1	Sololá	11	Noviembre	2023-11-16T00:00:00	2024-11-08T13:00:00	8	Radiación solar	816
59289	7	Sololá	701	Sololá	1	Sololá	11	Noviembre	2023-11-16T00:00:00	2024-11-08T14:00:00	2	Temperatura media	23.3
59290	7	Sololá	701	Sololá	1	Sololá	11	Noviembre	2023-11-16T00:00:00	2024-11-08T14:00:00	4	Temperatura máxima	25.2
59291	7	Sololá	701	Sololá	1	Sololá	11	Noviembre	2023-11-16T00:00:00	2024-11-08T14:00:00	3	Temperatura mínima	23.3
59292	7	Sololá	701	Sololá	1	Sololá	11	Noviembre	2023-11-16T00:00:00	2024-11-08T14:00:00	5	Humedad	71
59293	7	Sololá	701	Sololá	1	Sololá	11	Noviembre	2023-11-16T00:00:00	2024-11-08T14:00:00	6	Velocidad del viento	0
59294	7	Sololá	701	Sololá	1	Sololá	11	Noviembre	2023-11-16T00:00:00	2024-11-08T14:00:00	7	Dirección del viento	0
59295	7	Sololá	701	Sololá	1	Sololá	11	Noviembre	2023-11-16T00:00:00	2024-11-08T14:00:00	1	Precipitación	0
59296	7	Sololá	701	Sololá	1	Sololá	11	Noviembre	2023-11-16T00:00:00	2024-11-08T14:00:00	8	Radiación solar	524
59297	7	Sololá	701	Sololá	1	Sololá	11	Noviembre	2023-11-16T00:00:00	2024-11-08T15:00:00	2	Temperatura media	20.8
59298	7	Sololá	701	Sololá	1	Sololá	11	Noviembre	2023-11-16T00:00:00	2024-11-08T15:00:00	4	Temperatura máxima	23.3
59299	7	Sololá	701	Sololá	1	Sololá	11	Noviembre	2023-11-16T00:00:00	2024-11-08T15:00:00	3	Temperatura mínima	20.8
59300	7	Sololá	701	Sololá	1	Sololá	11	Noviembre	2023-11-16T00:00:00	2024-11-08T15:00:00	5	Humedad	81
59301	7	Sololá	701	Sololá	1	Sololá	11	Noviembre	2023-11-16T00:00:00	2024-11-08T15:00:00	6	Velocidad del viento	0
59302	7	Sololá	701	Sololá	1	Sololá	11	Noviembre	2023-11-16T00:00:00	2024-11-08T15:00:00	7	Dirección del viento	0
59303	7	Sololá	701	Sololá	1	Sololá	11	Noviembre	2023-11-16T00:00:00	2024-11-08T15:00:00	1	Precipitación	0
59304	7	Sololá	701	Sololá	1	Sololá	11	Noviembre	2023-11-16T00:00:00	2024-11-08T15:00:00	8	Radiación solar	140
59305	7	Sololá	701	Sololá	1	Sololá	11	Noviembre	2023-11-16T00:00:00	2024-11-08T16:00:00	2	Temperatura media	19.3
59306	7	Sololá	701	Sololá	1	Sololá	11	Noviembre	2023-11-16T00:00:00	2024-11-08T16:00:00	4	Temperatura máxima	20.8
59307	7	Sololá	701	Sololá	1	Sololá	11	Noviembre	2023-11-16T00:00:00	2024-11-08T16:00:00	3	Temperatura mínima	19.3
59308	7	Sololá	701	Sololá	1	Sololá	11	Noviembre	2023-11-16T00:00:00	2024-11-08T16:00:00	5	Humedad	86
59309	7	Sololá	701	Sololá	1	Sololá	11	Noviembre	2023-11-16T00:00:00	2024-11-08T16:00:00	6	Velocidad del viento	0
59310	7	Sololá	701	Sololá	1	Sololá	11	Noviembre	2023-11-16T00:00:00	2024-11-08T16:00:00	7	Dirección del viento	0
59311	7	Sololá	701	Sololá	1	Sololá	11	Noviembre	2023-11-16T00:00:00	2024-11-08T16:00:00	1	Precipitación	0
59312	7	Sololá	701	Sololá	1	Sololá	11	Noviembre	2023-11-16T00:00:00	2024-11-08T16:00:00	8	Radiación solar	97
59313	7	Sololá	701	Sololá	1	Sololá	11	Noviembre	2023-11-16T00:00:00	2024-11-08T17:00:00	2	Temperatura media	18.1
59314	7	Sololá	701	Sololá	1	Sololá	11	Noviembre	2023-11-16T00:00:00	2024-11-08T17:00:00	4	Temperatura máxima	19.2
59315	7	Sololá	701	Sololá	1	Sololá	11	Noviembre	2023-11-16T00:00:00	2024-11-08T17:00:00	3	Temperatura mínima	18.1
59316	7	Sololá	701	Sololá	1	Sololá	11	Noviembre	2023-11-16T00:00:00	2024-11-08T17:00:00	5	Humedad	90
59317	7	Sololá	701	Sololá	1	Sololá	11	Noviembre	2023-11-16T00:00:00	2024-11-08T17:00:00	6	Velocidad del viento	0
59318	7	Sololá	701	Sololá	1	Sololá	11	Noviembre	2023-11-16T00:00:00	2024-11-08T17:00:00	7	Dirección del viento	0
59319	7	Sololá	701	Sololá	1	Sololá	11	Noviembre	2023-11-16T00:00:00	2024-11-08T17:00:00	1	Precipitación	0
59320	7	Sololá	701	Sololá	1	Sololá	11	Noviembre	2023-11-16T00:00:00	2024-11-08T17:00:00	8	Radiación solar	43
59321	7	Sololá	701	Sololá	1	Sololá	11	Noviembre	2023-11-16T00:00:00	2024-11-08T18:00:00	2	Temperatura media	17.3
59322	7	Sololá	701	Sololá	1	Sololá	11	Noviembre	2023-11-16T00:00:00	2024-11-08T18:00:00	4	Temperatura máxima	18.2
59323	7	Sololá	701	Sololá	1	Sololá	11	Noviembre	2023-11-16T00:00:00	2024-11-08T18:00:00	3	Temperatura mínima	17.3
59324	7	Sololá	701	Sololá	1	Sololá	11	Noviembre	2023-11-16T00:00:00	2024-11-08T18:00:00	5	Humedad	82
59325	7	Sololá	701	Sololá	1	Sololá	11	Noviembre	2023-11-16T00:00:00	2024-11-08T18:00:00	6	Velocidad del viento	0
59326	7	Sololá	701	Sololá	1	Sololá	11	Noviembre	2023-11-16T00:00:00	2024-11-08T18:00:00	7	Dirección del viento	0
59327	7	Sololá	701	Sololá	1	Sololá	11	Noviembre	2023-11-16T00:00:00	2024-11-08T18:00:00	1	Precipitación	0
59328	7	Sololá	701	Sololá	1	Sololá	11	Noviembre	2023-11-16T00:00:00	2024-11-08T18:00:00	8	Radiación solar	4
59329	7	Sololá	701	Sololá	1	Sololá	11	Noviembre	2023-11-16T00:00:00	2024-11-08T19:00:00	2	Temperatura media	17
59330	7	Sololá	701	Sololá	1	Sololá	11	Noviembre	2023-11-16T00:00:00	2024-11-08T19:00:00	4	Temperatura máxima	17.3
59331	7	Sololá	701	Sololá	1	Sololá	11	Noviembre	2023-11-16T00:00:00	2024-11-08T19:00:00	3	Temperatura mínima	16.9
59332	7	Sololá	701	Sololá	1	Sololá	11	Noviembre	2023-11-16T00:00:00	2024-11-08T19:00:00	5	Humedad	81
59333	7	Sololá	701	Sololá	1	Sololá	11	Noviembre	2023-11-16T00:00:00	2024-11-08T19:00:00	6	Velocidad del viento	0
59334	7	Sololá	701	Sololá	1	Sololá	11	Noviembre	2023-11-16T00:00:00	2024-11-08T19:00:00	7	Dirección del viento	0
59335	7	Sololá	701	Sololá	1	Sololá	11	Noviembre	2023-11-16T00:00:00	2024-11-08T19:00:00	1	Precipitación	0
59336	7	Sololá	701	Sololá	1	Sololá	11	Noviembre	2023-11-16T00:00:00	2024-11-08T19:00:00	8	Radiación solar	0
59337	7	Sololá	701	Sololá	1	Sololá	11	Noviembre	2023-11-16T00:00:00	2024-11-08T20:00:00	2	Temperatura media	16.3
59338	7	Sololá	701	Sololá	1	Sololá	11	Noviembre	2023-11-16T00:00:00	2024-11-08T20:00:00	4	Temperatura máxima	17
59339	7	Sololá	701	Sololá	1	Sololá	11	Noviembre	2023-11-16T00:00:00	2024-11-08T20:00:00	3	Temperatura mínima	16.3
59340	7	Sololá	701	Sololá	1	Sololá	11	Noviembre	2023-11-16T00:00:00	2024-11-08T20:00:00	5	Humedad	83
59341	7	Sololá	701	Sololá	1	Sololá	11	Noviembre	2023-11-16T00:00:00	2024-11-08T20:00:00	6	Velocidad del viento	0
59342	7	Sololá	701	Sololá	1	Sololá	11	Noviembre	2023-11-16T00:00:00	2024-11-08T20:00:00	7	Dirección del viento	0
59343	7	Sololá	701	Sololá	1	Sololá	11	Noviembre	2023-11-16T00:00:00	2024-11-08T20:00:00	1	Precipitación	0
59344	7	Sololá	701	Sololá	1	Sololá	11	Noviembre	2023-11-16T00:00:00	2024-11-08T20:00:00	8	Radiación solar	0
59345	7	Sololá	701	Sololá	1	Sololá	11	Noviembre	2023-11-16T00:00:00	2024-11-08T21:00:00	2	Temperatura media	15.9
59346	7	Sololá	701	Sololá	1	Sololá	11	Noviembre	2023-11-16T00:00:00	2024-11-08T21:00:00	4	Temperatura máxima	16.3
59347	7	Sololá	701	Sololá	1	Sololá	11	Noviembre	2023-11-16T00:00:00	2024-11-08T21:00:00	3	Temperatura mínima	15.9
59348	7	Sololá	701	Sololá	1	Sololá	11	Noviembre	2023-11-16T00:00:00	2024-11-08T21:00:00	5	Humedad	84
59349	7	Sololá	701	Sololá	1	Sololá	11	Noviembre	2023-11-16T00:00:00	2024-11-08T21:00:00	6	Velocidad del viento	0
59350	7	Sololá	701	Sololá	1	Sololá	11	Noviembre	2023-11-16T00:00:00	2024-11-08T21:00:00	7	Dirección del viento	0
59351	7	Sololá	701	Sololá	1	Sololá	11	Noviembre	2023-11-16T00:00:00	2024-11-08T21:00:00	1	Precipitación	0
59352	7	Sololá	701	Sololá	1	Sololá	11	Noviembre	2023-11-16T00:00:00	2024-11-08T21:00:00	8	Radiación solar	0
59353	7	Sololá	701	Sololá	1	Sololá	11	Noviembre	2023-11-16T00:00:00	2024-11-08T22:00:00	2	Temperatura media	15.4
59354	7	Sololá	701	Sololá	1	Sololá	11	Noviembre	2023-11-16T00:00:00	2024-11-08T22:00:00	4	Temperatura máxima	15.9
59355	7	Sololá	701	Sololá	1	Sololá	11	Noviembre	2023-11-16T00:00:00	2024-11-08T22:00:00	3	Temperatura mínima	15.4
59356	7	Sololá	701	Sololá	1	Sololá	11	Noviembre	2023-11-16T00:00:00	2024-11-08T22:00:00	5	Humedad	85
59357	7	Sololá	701	Sololá	1	Sololá	11	Noviembre	2023-11-16T00:00:00	2024-11-08T22:00:00	6	Velocidad del viento	0
59358	7	Sololá	701	Sololá	1	Sololá	11	Noviembre	2023-11-16T00:00:00	2024-11-08T22:00:00	7	Dirección del viento	0
59359	7	Sololá	701	Sololá	1	Sololá	11	Noviembre	2023-11-16T00:00:00	2024-11-08T22:00:00	1	Precipitación	0
59360	7	Sololá	701	Sololá	1	Sololá	11	Noviembre	2023-11-16T00:00:00	2024-11-08T22:00:00	8	Radiación solar	0
59361	7	Sololá	701	Sololá	1	Sololá	11	Noviembre	2023-11-16T00:00:00	2024-11-08T23:00:00	2	Temperatura media	15.6
59362	7	Sololá	701	Sololá	1	Sololá	11	Noviembre	2023-11-16T00:00:00	2024-11-08T23:00:00	4	Temperatura máxima	15.6
59363	7	Sololá	701	Sololá	1	Sololá	11	Noviembre	2023-11-16T00:00:00	2024-11-08T23:00:00	3	Temperatura mínima	15.3
59364	7	Sololá	701	Sololá	1	Sololá	11	Noviembre	2023-11-16T00:00:00	2024-11-08T23:00:00	5	Humedad	86
59365	7	Sololá	701	Sololá	1	Sololá	11	Noviembre	2023-11-16T00:00:00	2024-11-08T23:00:00	6	Velocidad del viento	0
59366	7	Sololá	701	Sololá	1	Sololá	11	Noviembre	2023-11-16T00:00:00	2024-11-08T23:00:00	7	Dirección del viento	0
59367	7	Sololá	701	Sololá	1	Sololá	11	Noviembre	2023-11-16T00:00:00	2024-11-08T23:00:00	1	Precipitación	0
59368	7	Sololá	701	Sololá	1	Sololá	11	Noviembre	2023-11-16T00:00:00	2024-11-08T23:00:00	8	Radiación solar	0
59369	7	Sololá	701	Sololá	1	Sololá	11	Noviembre	2023-11-17T00:00:00	2024-11-08T00:00:00	2	Temperatura media	15.4
59370	7	Sololá	701	Sololá	1	Sololá	11	Noviembre	2023-11-17T00:00:00	2024-11-08T00:00:00	4	Temperatura máxima	15.7
59371	7	Sololá	701	Sololá	1	Sololá	11	Noviembre	2023-11-17T00:00:00	2024-11-08T00:00:00	3	Temperatura mínima	15.4
59372	7	Sololá	701	Sololá	1	Sololá	11	Noviembre	2023-11-17T00:00:00	2024-11-08T00:00:00	5	Humedad	88
59373	7	Sololá	701	Sololá	1	Sololá	11	Noviembre	2023-11-17T00:00:00	2024-11-08T00:00:00	6	Velocidad del viento	0
59374	7	Sololá	701	Sololá	1	Sololá	11	Noviembre	2023-11-17T00:00:00	2024-11-08T00:00:00	7	Dirección del viento	0
59375	7	Sololá	701	Sololá	1	Sololá	11	Noviembre	2023-11-17T00:00:00	2024-11-08T00:00:00	1	Precipitación	0
59376	7	Sololá	701	Sololá	1	Sololá	11	Noviembre	2023-11-17T00:00:00	2024-11-08T00:00:00	8	Radiación solar	0
59377	7	Sololá	701	Sololá	1	Sololá	11	Noviembre	2023-11-17T00:00:00	2024-11-08T01:00:00	2	Temperatura media	15.2
59378	7	Sololá	701	Sololá	1	Sololá	11	Noviembre	2023-11-17T00:00:00	2024-11-08T01:00:00	4	Temperatura máxima	15.4
59379	7	Sololá	701	Sololá	1	Sololá	11	Noviembre	2023-11-17T00:00:00	2024-11-08T01:00:00	3	Temperatura mínima	15.1
59380	7	Sololá	701	Sololá	1	Sololá	11	Noviembre	2023-11-17T00:00:00	2024-11-08T01:00:00	5	Humedad	91
59381	7	Sololá	701	Sololá	1	Sololá	11	Noviembre	2023-11-17T00:00:00	2024-11-08T01:00:00	6	Velocidad del viento	0
59382	7	Sololá	701	Sololá	1	Sololá	11	Noviembre	2023-11-17T00:00:00	2024-11-08T01:00:00	7	Dirección del viento	0
59383	7	Sololá	701	Sololá	1	Sololá	11	Noviembre	2023-11-17T00:00:00	2024-11-08T01:00:00	1	Precipitación	0
59384	7	Sololá	701	Sololá	1	Sololá	11	Noviembre	2023-11-17T00:00:00	2024-11-08T01:00:00	8	Radiación solar	0
59385	7	Sololá	701	Sololá	1	Sololá	11	Noviembre	2023-11-17T00:00:00	2024-11-08T02:00:00	2	Temperatura media	14.7
59386	7	Sololá	701	Sololá	1	Sololá	11	Noviembre	2023-11-17T00:00:00	2024-11-08T02:00:00	4	Temperatura máxima	15.2
59387	7	Sololá	701	Sololá	1	Sololá	11	Noviembre	2023-11-17T00:00:00	2024-11-08T02:00:00	3	Temperatura mínima	14.7
59388	7	Sololá	701	Sololá	1	Sololá	11	Noviembre	2023-11-17T00:00:00	2024-11-08T02:00:00	5	Humedad	92
59389	7	Sololá	701	Sololá	1	Sololá	11	Noviembre	2023-11-17T00:00:00	2024-11-08T02:00:00	6	Velocidad del viento	0
59390	7	Sololá	701	Sololá	1	Sololá	11	Noviembre	2023-11-17T00:00:00	2024-11-08T02:00:00	7	Dirección del viento	0
59391	7	Sololá	701	Sololá	1	Sololá	11	Noviembre	2023-11-17T00:00:00	2024-11-08T02:00:00	1	Precipitación	0
59392	7	Sololá	701	Sololá	1	Sololá	11	Noviembre	2023-11-17T00:00:00	2024-11-08T02:00:00	8	Radiación solar	0
59393	7	Sololá	701	Sololá	1	Sololá	11	Noviembre	2023-11-17T00:00:00	2024-11-08T03:00:00	2	Temperatura media	13.6
59394	7	Sololá	701	Sololá	1	Sololá	11	Noviembre	2023-11-17T00:00:00	2024-11-08T03:00:00	4	Temperatura máxima	14.7
59395	7	Sololá	701	Sololá	1	Sololá	11	Noviembre	2023-11-17T00:00:00	2024-11-08T03:00:00	3	Temperatura mínima	13.6
59396	7	Sololá	701	Sololá	1	Sololá	11	Noviembre	2023-11-17T00:00:00	2024-11-08T03:00:00	5	Humedad	92
59397	7	Sololá	701	Sololá	1	Sololá	11	Noviembre	2023-11-17T00:00:00	2024-11-08T03:00:00	6	Velocidad del viento	0
59398	7	Sololá	701	Sololá	1	Sololá	11	Noviembre	2023-11-17T00:00:00	2024-11-08T03:00:00	7	Dirección del viento	0
59399	7	Sololá	701	Sololá	1	Sololá	11	Noviembre	2023-11-17T00:00:00	2024-11-08T03:00:00	1	Precipitación	0
59400	7	Sololá	701	Sololá	1	Sololá	11	Noviembre	2023-11-17T00:00:00	2024-11-08T03:00:00	8	Radiación solar	0
59401	7	Sololá	701	Sololá	1	Sololá	11	Noviembre	2023-11-17T00:00:00	2024-11-08T04:00:00	2	Temperatura media	12.9
59402	7	Sololá	701	Sololá	1	Sololá	11	Noviembre	2023-11-17T00:00:00	2024-11-08T04:00:00	4	Temperatura máxima	13.6
59403	7	Sololá	701	Sololá	1	Sololá	11	Noviembre	2023-11-17T00:00:00	2024-11-08T04:00:00	3	Temperatura mínima	12.9
59404	7	Sololá	701	Sololá	1	Sololá	11	Noviembre	2023-11-17T00:00:00	2024-11-08T04:00:00	5	Humedad	92
59405	7	Sololá	701	Sololá	1	Sololá	11	Noviembre	2023-11-17T00:00:00	2024-11-08T04:00:00	6	Velocidad del viento	0
59406	7	Sololá	701	Sololá	1	Sololá	11	Noviembre	2023-11-17T00:00:00	2024-11-08T04:00:00	7	Dirección del viento	0
59407	7	Sololá	701	Sololá	1	Sololá	11	Noviembre	2023-11-17T00:00:00	2024-11-08T04:00:00	1	Precipitación	0
59408	7	Sololá	701	Sololá	1	Sololá	11	Noviembre	2023-11-17T00:00:00	2024-11-08T04:00:00	8	Radiación solar	0
59409	7	Sololá	701	Sololá	1	Sololá	11	Noviembre	2023-11-17T00:00:00	2024-11-08T05:00:00	2	Temperatura media	11.9
59410	7	Sololá	701	Sololá	1	Sololá	11	Noviembre	2023-11-17T00:00:00	2024-11-08T05:00:00	4	Temperatura máxima	12.9
59411	7	Sololá	701	Sololá	1	Sololá	11	Noviembre	2023-11-17T00:00:00	2024-11-08T05:00:00	3	Temperatura mínima	11.9
59412	7	Sololá	701	Sololá	1	Sololá	11	Noviembre	2023-11-17T00:00:00	2024-11-08T05:00:00	5	Humedad	90
59413	7	Sololá	701	Sololá	1	Sololá	11	Noviembre	2023-11-17T00:00:00	2024-11-08T05:00:00	6	Velocidad del viento	0
59414	7	Sololá	701	Sololá	1	Sololá	11	Noviembre	2023-11-17T00:00:00	2024-11-08T05:00:00	7	Dirección del viento	0
59415	7	Sololá	701	Sololá	1	Sololá	11	Noviembre	2023-11-17T00:00:00	2024-11-08T05:00:00	1	Precipitación	0
59416	7	Sololá	701	Sololá	1	Sololá	11	Noviembre	2023-11-17T00:00:00	2024-11-08T05:00:00	8	Radiación solar	0
59417	7	Sololá	701	Sololá	1	Sololá	11	Noviembre	2023-11-17T00:00:00	2024-11-08T06:00:00	2	Temperatura media	11.7
59418	7	Sololá	701	Sololá	1	Sololá	11	Noviembre	2023-11-17T00:00:00	2024-11-08T06:00:00	4	Temperatura máxima	12
59419	7	Sololá	701	Sololá	1	Sololá	11	Noviembre	2023-11-17T00:00:00	2024-11-08T06:00:00	3	Temperatura mínima	11.7
59420	7	Sololá	701	Sololá	1	Sololá	11	Noviembre	2023-11-17T00:00:00	2024-11-08T06:00:00	5	Humedad	90
59421	7	Sololá	701	Sololá	1	Sololá	11	Noviembre	2023-11-17T00:00:00	2024-11-08T06:00:00	6	Velocidad del viento	0
59422	7	Sololá	701	Sololá	1	Sololá	11	Noviembre	2023-11-17T00:00:00	2024-11-08T06:00:00	7	Dirección del viento	0
59423	7	Sololá	701	Sololá	1	Sololá	11	Noviembre	2023-11-17T00:00:00	2024-11-08T06:00:00	1	Precipitación	0
59424	7	Sololá	701	Sololá	1	Sololá	11	Noviembre	2023-11-17T00:00:00	2024-11-08T06:00:00	8	Radiación solar	0
59425	7	Sololá	701	Sololá	1	Sololá	11	Noviembre	2023-11-17T00:00:00	2024-11-08T07:00:00	2	Temperatura media	12.3
59426	7	Sololá	701	Sololá	1	Sololá	11	Noviembre	2023-11-17T00:00:00	2024-11-08T07:00:00	4	Temperatura máxima	12.3
59427	7	Sololá	701	Sololá	1	Sololá	11	Noviembre	2023-11-17T00:00:00	2024-11-08T07:00:00	3	Temperatura mínima	11.7
59428	7	Sololá	701	Sololá	1	Sololá	11	Noviembre	2023-11-17T00:00:00	2024-11-08T07:00:00	5	Humedad	88
59429	7	Sololá	701	Sololá	1	Sololá	11	Noviembre	2023-11-17T00:00:00	2024-11-08T07:00:00	6	Velocidad del viento	0
59430	7	Sololá	701	Sololá	1	Sololá	11	Noviembre	2023-11-17T00:00:00	2024-11-08T07:00:00	7	Dirección del viento	0
59431	7	Sololá	701	Sololá	1	Sololá	11	Noviembre	2023-11-17T00:00:00	2024-11-08T07:00:00	1	Precipitación	0
59432	7	Sololá	701	Sololá	1	Sololá	11	Noviembre	2023-11-17T00:00:00	2024-11-08T07:00:00	8	Radiación solar	10
59433	7	Sololá	701	Sololá	1	Sololá	11	Noviembre	2023-11-17T00:00:00	2024-11-08T08:00:00	2	Temperatura media	15.1
59434	7	Sololá	701	Sololá	1	Sololá	11	Noviembre	2023-11-17T00:00:00	2024-11-08T08:00:00	4	Temperatura máxima	15.1
59435	7	Sololá	701	Sololá	1	Sololá	11	Noviembre	2023-11-17T00:00:00	2024-11-08T08:00:00	3	Temperatura mínima	12.3
59436	7	Sololá	701	Sololá	1	Sololá	11	Noviembre	2023-11-17T00:00:00	2024-11-08T08:00:00	5	Humedad	83
59437	7	Sololá	701	Sololá	1	Sololá	11	Noviembre	2023-11-17T00:00:00	2024-11-08T08:00:00	6	Velocidad del viento	0
59438	7	Sololá	701	Sololá	1	Sololá	11	Noviembre	2023-11-17T00:00:00	2024-11-08T08:00:00	7	Dirección del viento	0
59439	7	Sololá	701	Sololá	1	Sololá	11	Noviembre	2023-11-17T00:00:00	2024-11-08T08:00:00	1	Precipitación	0
59440	7	Sololá	701	Sololá	1	Sololá	11	Noviembre	2023-11-17T00:00:00	2024-11-08T08:00:00	8	Radiación solar	111
59441	7	Sololá	701	Sololá	1	Sololá	11	Noviembre	2023-11-17T00:00:00	2024-11-08T09:00:00	2	Temperatura media	18.7
59442	7	Sololá	701	Sololá	1	Sololá	11	Noviembre	2023-11-17T00:00:00	2024-11-08T09:00:00	4	Temperatura máxima	19.1
59443	7	Sololá	701	Sololá	1	Sololá	11	Noviembre	2023-11-17T00:00:00	2024-11-08T09:00:00	3	Temperatura mínima	15.1
59444	7	Sololá	701	Sololá	1	Sololá	11	Noviembre	2023-11-17T00:00:00	2024-11-08T09:00:00	5	Humedad	80
59445	7	Sololá	701	Sololá	1	Sololá	11	Noviembre	2023-11-17T00:00:00	2024-11-08T09:00:00	6	Velocidad del viento	0
59446	7	Sololá	701	Sololá	1	Sololá	11	Noviembre	2023-11-17T00:00:00	2024-11-08T09:00:00	7	Dirección del viento	0
59447	7	Sololá	701	Sololá	1	Sololá	11	Noviembre	2023-11-17T00:00:00	2024-11-08T09:00:00	1	Precipitación	0
59448	7	Sololá	701	Sololá	1	Sololá	11	Noviembre	2023-11-17T00:00:00	2024-11-08T09:00:00	8	Radiación solar	495
59449	7	Sololá	701	Sololá	1	Sololá	11	Noviembre	2023-11-17T00:00:00	2024-11-08T10:00:00	2	Temperatura media	20.7
59450	7	Sololá	701	Sololá	1	Sololá	11	Noviembre	2023-11-17T00:00:00	2024-11-08T10:00:00	4	Temperatura máxima	20.7
59451	7	Sololá	701	Sololá	1	Sololá	11	Noviembre	2023-11-17T00:00:00	2024-11-08T10:00:00	3	Temperatura mínima	18.7
59452	7	Sololá	701	Sololá	1	Sololá	11	Noviembre	2023-11-17T00:00:00	2024-11-08T10:00:00	5	Humedad	74
59453	7	Sololá	701	Sololá	1	Sololá	11	Noviembre	2023-11-17T00:00:00	2024-11-08T10:00:00	6	Velocidad del viento	0
59454	7	Sololá	701	Sololá	1	Sololá	11	Noviembre	2023-11-17T00:00:00	2024-11-08T10:00:00	7	Dirección del viento	0
59455	7	Sololá	701	Sololá	1	Sololá	11	Noviembre	2023-11-17T00:00:00	2024-11-08T10:00:00	1	Precipitación	0
59456	7	Sololá	701	Sololá	1	Sololá	11	Noviembre	2023-11-17T00:00:00	2024-11-08T10:00:00	8	Radiación solar	720
59457	7	Sololá	701	Sololá	1	Sololá	11	Noviembre	2023-11-17T00:00:00	2024-11-08T11:00:00	2	Temperatura media	21.5
59458	7	Sololá	701	Sololá	1	Sololá	11	Noviembre	2023-11-17T00:00:00	2024-11-08T11:00:00	4	Temperatura máxima	21.5
59459	7	Sololá	701	Sololá	1	Sololá	11	Noviembre	2023-11-17T00:00:00	2024-11-08T11:00:00	3	Temperatura mínima	20.7
59460	7	Sololá	701	Sololá	1	Sololá	11	Noviembre	2023-11-17T00:00:00	2024-11-08T11:00:00	5	Humedad	72
59461	7	Sololá	701	Sololá	1	Sololá	11	Noviembre	2023-11-17T00:00:00	2024-11-08T11:00:00	6	Velocidad del viento	0
59462	7	Sololá	701	Sololá	1	Sololá	11	Noviembre	2023-11-17T00:00:00	2024-11-08T11:00:00	7	Dirección del viento	0
59463	7	Sololá	701	Sololá	1	Sololá	11	Noviembre	2023-11-17T00:00:00	2024-11-08T11:00:00	1	Precipitación	0
59464	7	Sololá	701	Sololá	1	Sololá	11	Noviembre	2023-11-17T00:00:00	2024-11-08T11:00:00	8	Radiación solar	867
59465	7	Sololá	701	Sololá	1	Sololá	11	Noviembre	2023-11-17T00:00:00	2024-11-08T12:00:00	2	Temperatura media	21.9
59466	7	Sololá	701	Sololá	1	Sololá	11	Noviembre	2023-11-17T00:00:00	2024-11-08T12:00:00	4	Temperatura máxima	22.4
59467	7	Sololá	701	Sololá	1	Sololá	11	Noviembre	2023-11-17T00:00:00	2024-11-08T12:00:00	3	Temperatura mínima	21.5
59468	7	Sololá	701	Sololá	1	Sololá	11	Noviembre	2023-11-17T00:00:00	2024-11-08T12:00:00	5	Humedad	72
59469	7	Sololá	701	Sololá	1	Sololá	11	Noviembre	2023-11-17T00:00:00	2024-11-08T12:00:00	6	Velocidad del viento	0
59470	7	Sololá	701	Sololá	1	Sololá	11	Noviembre	2023-11-17T00:00:00	2024-11-08T12:00:00	7	Dirección del viento	0
59471	7	Sololá	701	Sololá	1	Sololá	11	Noviembre	2023-11-17T00:00:00	2024-11-08T12:00:00	1	Precipitación	0
59472	7	Sololá	701	Sololá	1	Sololá	11	Noviembre	2023-11-17T00:00:00	2024-11-08T12:00:00	8	Radiación solar	909
59473	7	Sololá	701	Sololá	1	Sololá	11	Noviembre	2023-11-17T00:00:00	2024-11-08T13:00:00	2	Temperatura media	18.8
59474	7	Sololá	701	Sololá	1	Sololá	11	Noviembre	2023-11-17T00:00:00	2024-11-08T13:00:00	4	Temperatura máxima	21.9
59475	7	Sololá	701	Sololá	1	Sololá	11	Noviembre	2023-11-17T00:00:00	2024-11-08T13:00:00	3	Temperatura mínima	18.8
59476	7	Sololá	701	Sololá	1	Sololá	11	Noviembre	2023-11-17T00:00:00	2024-11-08T13:00:00	5	Humedad	83
59477	7	Sololá	701	Sololá	1	Sololá	11	Noviembre	2023-11-17T00:00:00	2024-11-08T13:00:00	6	Velocidad del viento	0
59478	7	Sololá	701	Sololá	1	Sololá	11	Noviembre	2023-11-17T00:00:00	2024-11-08T13:00:00	7	Dirección del viento	0
59479	7	Sololá	701	Sololá	1	Sololá	11	Noviembre	2023-11-17T00:00:00	2024-11-08T13:00:00	1	Precipitación	0
59480	7	Sololá	701	Sololá	1	Sololá	11	Noviembre	2023-11-17T00:00:00	2024-11-08T13:00:00	8	Radiación solar	195
59481	7	Sololá	701	Sololá	1	Sololá	11	Noviembre	2023-11-17T00:00:00	2024-11-08T14:00:00	2	Temperatura media	18.7
59482	7	Sololá	701	Sololá	1	Sololá	11	Noviembre	2023-11-17T00:00:00	2024-11-08T14:00:00	4	Temperatura máxima	18.8
59483	7	Sololá	701	Sololá	1	Sololá	11	Noviembre	2023-11-17T00:00:00	2024-11-08T14:00:00	3	Temperatura mínima	18.2
59484	7	Sololá	701	Sololá	1	Sololá	11	Noviembre	2023-11-17T00:00:00	2024-11-08T14:00:00	5	Humedad	83
59485	7	Sololá	701	Sololá	1	Sololá	11	Noviembre	2023-11-17T00:00:00	2024-11-08T14:00:00	6	Velocidad del viento	0
59486	7	Sololá	701	Sololá	1	Sololá	11	Noviembre	2023-11-17T00:00:00	2024-11-08T14:00:00	7	Dirección del viento	0
59487	7	Sololá	701	Sololá	1	Sololá	11	Noviembre	2023-11-17T00:00:00	2024-11-08T14:00:00	1	Precipitación	0
59488	7	Sololá	701	Sololá	1	Sololá	11	Noviembre	2023-11-17T00:00:00	2024-11-08T14:00:00	8	Radiación solar	139
59489	7	Sololá	701	Sololá	1	Sololá	11	Noviembre	2023-11-17T00:00:00	2024-11-08T15:00:00	2	Temperatura media	18.3
59490	7	Sololá	701	Sololá	1	Sololá	11	Noviembre	2023-11-17T00:00:00	2024-11-08T15:00:00	4	Temperatura máxima	19.7
59491	7	Sololá	701	Sololá	1	Sololá	11	Noviembre	2023-11-17T00:00:00	2024-11-08T15:00:00	3	Temperatura mínima	18.3
59492	7	Sololá	701	Sololá	1	Sololá	11	Noviembre	2023-11-17T00:00:00	2024-11-08T15:00:00	5	Humedad	86
59493	7	Sololá	701	Sololá	1	Sololá	11	Noviembre	2023-11-17T00:00:00	2024-11-08T15:00:00	6	Velocidad del viento	0
59494	7	Sololá	701	Sololá	1	Sololá	11	Noviembre	2023-11-17T00:00:00	2024-11-08T15:00:00	7	Dirección del viento	0
59495	7	Sololá	701	Sololá	1	Sololá	11	Noviembre	2023-11-17T00:00:00	2024-11-08T15:00:00	1	Precipitación	0
59496	7	Sololá	701	Sololá	1	Sololá	11	Noviembre	2023-11-17T00:00:00	2024-11-08T15:00:00	8	Radiación solar	147
59497	7	Sololá	701	Sololá	1	Sololá	11	Noviembre	2023-11-17T00:00:00	2024-11-08T16:00:00	2	Temperatura media	17.1
59498	7	Sololá	701	Sololá	1	Sololá	11	Noviembre	2023-11-17T00:00:00	2024-11-08T16:00:00	4	Temperatura máxima	18.3
59499	7	Sololá	701	Sololá	1	Sololá	11	Noviembre	2023-11-17T00:00:00	2024-11-08T16:00:00	3	Temperatura mínima	17
59500	7	Sololá	701	Sololá	1	Sololá	11	Noviembre	2023-11-17T00:00:00	2024-11-08T16:00:00	5	Humedad	91
59501	7	Sololá	701	Sololá	1	Sololá	11	Noviembre	2023-11-17T00:00:00	2024-11-08T16:00:00	6	Velocidad del viento	0
59502	7	Sololá	701	Sololá	1	Sololá	11	Noviembre	2023-11-17T00:00:00	2024-11-08T16:00:00	7	Dirección del viento	0
59503	7	Sololá	701	Sololá	1	Sololá	11	Noviembre	2023-11-17T00:00:00	2024-11-08T16:00:00	1	Precipitación	0
59504	7	Sololá	701	Sololá	1	Sololá	11	Noviembre	2023-11-17T00:00:00	2024-11-08T16:00:00	8	Radiación solar	33
59505	7	Sololá	701	Sololá	1	Sololá	11	Noviembre	2023-11-17T00:00:00	2024-11-08T17:00:00	2	Temperatura media	16.8
59506	7	Sololá	701	Sololá	1	Sololá	11	Noviembre	2023-11-17T00:00:00	2024-11-08T17:00:00	4	Temperatura máxima	17.1
59507	7	Sololá	701	Sololá	1	Sololá	11	Noviembre	2023-11-17T00:00:00	2024-11-08T17:00:00	3	Temperatura mínima	16.8
59508	7	Sololá	701	Sololá	1	Sololá	11	Noviembre	2023-11-17T00:00:00	2024-11-08T17:00:00	5	Humedad	92
59509	7	Sololá	701	Sololá	1	Sololá	11	Noviembre	2023-11-17T00:00:00	2024-11-08T17:00:00	6	Velocidad del viento	0
59510	7	Sololá	701	Sololá	1	Sololá	11	Noviembre	2023-11-17T00:00:00	2024-11-08T17:00:00	7	Dirección del viento	0
59511	7	Sololá	701	Sololá	1	Sololá	11	Noviembre	2023-11-17T00:00:00	2024-11-08T17:00:00	1	Precipitación	0
59512	7	Sololá	701	Sololá	1	Sololá	11	Noviembre	2023-11-17T00:00:00	2024-11-08T17:00:00	8	Radiación solar	14
59513	7	Sololá	701	Sololá	1	Sololá	11	Noviembre	2023-11-17T00:00:00	2024-11-08T18:00:00	2	Temperatura media	16.5
59514	7	Sololá	701	Sololá	1	Sololá	11	Noviembre	2023-11-17T00:00:00	2024-11-08T18:00:00	4	Temperatura máxima	16.8
59515	7	Sololá	701	Sololá	1	Sololá	11	Noviembre	2023-11-17T00:00:00	2024-11-08T18:00:00	3	Temperatura mínima	16.5
59516	7	Sololá	701	Sololá	1	Sololá	11	Noviembre	2023-11-17T00:00:00	2024-11-08T18:00:00	5	Humedad	93
59517	7	Sololá	701	Sololá	1	Sololá	11	Noviembre	2023-11-17T00:00:00	2024-11-08T18:00:00	6	Velocidad del viento	0
59518	7	Sololá	701	Sololá	1	Sololá	11	Noviembre	2023-11-17T00:00:00	2024-11-08T18:00:00	7	Dirección del viento	0
59519	7	Sololá	701	Sololá	1	Sololá	11	Noviembre	2023-11-17T00:00:00	2024-11-08T18:00:00	1	Precipitación	0
59520	7	Sololá	701	Sololá	1	Sololá	11	Noviembre	2023-11-17T00:00:00	2024-11-08T18:00:00	8	Radiación solar	0
59521	7	Sololá	701	Sololá	1	Sololá	11	Noviembre	2023-11-17T00:00:00	2024-11-08T19:00:00	2	Temperatura media	16.4
59522	7	Sololá	701	Sololá	1	Sololá	11	Noviembre	2023-11-17T00:00:00	2024-11-08T19:00:00	4	Temperatura máxima	16.6
59523	7	Sololá	701	Sololá	1	Sololá	11	Noviembre	2023-11-17T00:00:00	2024-11-08T19:00:00	3	Temperatura mínima	16.3
59524	7	Sololá	701	Sololá	1	Sololá	11	Noviembre	2023-11-17T00:00:00	2024-11-08T19:00:00	5	Humedad	94
59525	7	Sololá	701	Sololá	1	Sololá	11	Noviembre	2023-11-17T00:00:00	2024-11-08T19:00:00	6	Velocidad del viento	0
59526	7	Sololá	701	Sololá	1	Sololá	11	Noviembre	2023-11-17T00:00:00	2024-11-08T19:00:00	7	Dirección del viento	0
59527	7	Sololá	701	Sololá	1	Sololá	11	Noviembre	2023-11-17T00:00:00	2024-11-08T19:00:00	1	Precipitación	0
59528	7	Sololá	701	Sololá	1	Sololá	11	Noviembre	2023-11-17T00:00:00	2024-11-08T19:00:00	8	Radiación solar	0
59529	7	Sololá	701	Sololá	1	Sololá	11	Noviembre	2023-11-17T00:00:00	2024-11-08T20:00:00	2	Temperatura media	16
59530	7	Sololá	701	Sololá	1	Sololá	11	Noviembre	2023-11-17T00:00:00	2024-11-08T20:00:00	4	Temperatura máxima	16.4
59531	7	Sololá	701	Sololá	1	Sololá	11	Noviembre	2023-11-17T00:00:00	2024-11-08T20:00:00	3	Temperatura mínima	16
59532	7	Sololá	701	Sololá	1	Sololá	11	Noviembre	2023-11-17T00:00:00	2024-11-08T20:00:00	5	Humedad	95
59533	7	Sololá	701	Sololá	1	Sololá	11	Noviembre	2023-11-17T00:00:00	2024-11-08T20:00:00	6	Velocidad del viento	0
59534	7	Sololá	701	Sololá	1	Sololá	11	Noviembre	2023-11-17T00:00:00	2024-11-08T20:00:00	7	Dirección del viento	0
59535	7	Sololá	701	Sololá	1	Sololá	11	Noviembre	2023-11-17T00:00:00	2024-11-08T20:00:00	1	Precipitación	0
59536	7	Sololá	701	Sololá	1	Sololá	11	Noviembre	2023-11-17T00:00:00	2024-11-08T20:00:00	8	Radiación solar	0
59537	7	Sololá	701	Sololá	1	Sololá	11	Noviembre	2023-11-17T00:00:00	2024-11-08T21:00:00	2	Temperatura media	14.9
59538	7	Sololá	701	Sololá	1	Sololá	11	Noviembre	2023-11-17T00:00:00	2024-11-08T21:00:00	4	Temperatura máxima	16.1
59539	7	Sololá	701	Sololá	1	Sololá	11	Noviembre	2023-11-17T00:00:00	2024-11-08T21:00:00	3	Temperatura mínima	14.9
59540	7	Sololá	701	Sololá	1	Sololá	11	Noviembre	2023-11-17T00:00:00	2024-11-08T21:00:00	5	Humedad	95
59541	7	Sololá	701	Sololá	1	Sololá	11	Noviembre	2023-11-17T00:00:00	2024-11-08T21:00:00	6	Velocidad del viento	0
59542	7	Sololá	701	Sololá	1	Sololá	11	Noviembre	2023-11-17T00:00:00	2024-11-08T21:00:00	7	Dirección del viento	0
59543	7	Sololá	701	Sololá	1	Sololá	11	Noviembre	2023-11-17T00:00:00	2024-11-08T21:00:00	1	Precipitación	0
59544	7	Sololá	701	Sololá	1	Sololá	11	Noviembre	2023-11-17T00:00:00	2024-11-08T21:00:00	8	Radiación solar	0
59545	7	Sololá	701	Sololá	1	Sololá	11	Noviembre	2023-11-17T00:00:00	2024-11-08T22:00:00	2	Temperatura media	14.9
59546	7	Sololá	701	Sololá	1	Sololá	11	Noviembre	2023-11-17T00:00:00	2024-11-08T22:00:00	4	Temperatura máxima	15
59547	7	Sololá	701	Sololá	1	Sololá	11	Noviembre	2023-11-17T00:00:00	2024-11-08T22:00:00	3	Temperatura mínima	14.8
59548	7	Sololá	701	Sololá	1	Sololá	11	Noviembre	2023-11-17T00:00:00	2024-11-08T22:00:00	5	Humedad	95
59549	7	Sololá	701	Sololá	1	Sololá	11	Noviembre	2023-11-17T00:00:00	2024-11-08T22:00:00	6	Velocidad del viento	0
59550	7	Sololá	701	Sololá	1	Sololá	11	Noviembre	2023-11-17T00:00:00	2024-11-08T22:00:00	7	Dirección del viento	0
59551	7	Sololá	701	Sololá	1	Sololá	11	Noviembre	2023-11-17T00:00:00	2024-11-08T22:00:00	1	Precipitación	1
59552	7	Sololá	701	Sololá	1	Sololá	11	Noviembre	2023-11-17T00:00:00	2024-11-08T22:00:00	8	Radiación solar	0
59553	7	Sololá	701	Sololá	1	Sololá	11	Noviembre	2023-11-17T00:00:00	2024-11-08T23:00:00	2	Temperatura media	15
59554	7	Sololá	701	Sololá	1	Sololá	11	Noviembre	2023-11-17T00:00:00	2024-11-08T23:00:00	4	Temperatura máxima	15.1
59555	7	Sololá	701	Sololá	1	Sololá	11	Noviembre	2023-11-17T00:00:00	2024-11-08T23:00:00	3	Temperatura mínima	14.9
59556	7	Sololá	701	Sololá	1	Sololá	11	Noviembre	2023-11-17T00:00:00	2024-11-08T23:00:00	5	Humedad	95
59557	7	Sololá	701	Sololá	1	Sololá	11	Noviembre	2023-11-17T00:00:00	2024-11-08T23:00:00	6	Velocidad del viento	0
59558	7	Sololá	701	Sololá	1	Sololá	11	Noviembre	2023-11-17T00:00:00	2024-11-08T23:00:00	7	Dirección del viento	0
59559	7	Sololá	701	Sololá	1	Sololá	11	Noviembre	2023-11-17T00:00:00	2024-11-08T23:00:00	1	Precipitación	0.4
59560	7	Sololá	701	Sololá	1	Sololá	11	Noviembre	2023-11-17T00:00:00	2024-11-08T23:00:00	8	Radiación solar	0
59561	7	Sololá	701	Sololá	1	Sololá	11	Noviembre	2023-11-18T00:00:00	2024-11-08T00:00:00	2	Temperatura media	15.1
59562	7	Sololá	701	Sololá	1	Sololá	11	Noviembre	2023-11-18T00:00:00	2024-11-08T00:00:00	4	Temperatura máxima	15.1
59563	7	Sololá	701	Sololá	1	Sololá	11	Noviembre	2023-11-18T00:00:00	2024-11-08T00:00:00	3	Temperatura mínima	14.9
59564	7	Sololá	701	Sololá	1	Sololá	11	Noviembre	2023-11-18T00:00:00	2024-11-08T00:00:00	5	Humedad	96
59565	7	Sololá	701	Sololá	1	Sololá	11	Noviembre	2023-11-18T00:00:00	2024-11-08T00:00:00	6	Velocidad del viento	0
59566	7	Sololá	701	Sololá	1	Sololá	11	Noviembre	2023-11-18T00:00:00	2024-11-08T00:00:00	7	Dirección del viento	0
59567	7	Sololá	701	Sololá	1	Sololá	11	Noviembre	2023-11-18T00:00:00	2024-11-08T00:00:00	1	Precipitación	0.4
59568	7	Sololá	701	Sololá	1	Sololá	11	Noviembre	2023-11-18T00:00:00	2024-11-08T00:00:00	8	Radiación solar	0
59569	7	Sololá	701	Sololá	1	Sololá	11	Noviembre	2023-11-18T00:00:00	2024-11-08T01:00:00	2	Temperatura media	14.7
59570	7	Sololá	701	Sololá	1	Sololá	11	Noviembre	2023-11-18T00:00:00	2024-11-08T01:00:00	4	Temperatura máxima	15.1
59571	7	Sololá	701	Sololá	1	Sololá	11	Noviembre	2023-11-18T00:00:00	2024-11-08T01:00:00	3	Temperatura mínima	14.7
59572	7	Sololá	701	Sololá	1	Sololá	11	Noviembre	2023-11-18T00:00:00	2024-11-08T01:00:00	5	Humedad	95
59573	7	Sololá	701	Sololá	1	Sololá	11	Noviembre	2023-11-18T00:00:00	2024-11-08T01:00:00	6	Velocidad del viento	0
59574	7	Sololá	701	Sololá	1	Sololá	11	Noviembre	2023-11-18T00:00:00	2024-11-08T01:00:00	7	Dirección del viento	0
59575	7	Sololá	701	Sololá	1	Sololá	11	Noviembre	2023-11-18T00:00:00	2024-11-08T01:00:00	1	Precipitación	0.2
59576	7	Sololá	701	Sololá	1	Sololá	11	Noviembre	2023-11-18T00:00:00	2024-11-08T01:00:00	8	Radiación solar	0
59577	7	Sololá	701	Sololá	1	Sololá	11	Noviembre	2023-11-18T00:00:00	2024-11-08T02:00:00	2	Temperatura media	14.5
59578	7	Sololá	701	Sololá	1	Sololá	11	Noviembre	2023-11-18T00:00:00	2024-11-08T02:00:00	4	Temperatura máxima	14.7
59579	7	Sololá	701	Sololá	1	Sololá	11	Noviembre	2023-11-18T00:00:00	2024-11-08T02:00:00	3	Temperatura mínima	14.5
59580	7	Sololá	701	Sololá	1	Sololá	11	Noviembre	2023-11-18T00:00:00	2024-11-08T02:00:00	5	Humedad	96
59581	7	Sololá	701	Sololá	1	Sololá	11	Noviembre	2023-11-18T00:00:00	2024-11-08T02:00:00	6	Velocidad del viento	0
59582	7	Sololá	701	Sololá	1	Sololá	11	Noviembre	2023-11-18T00:00:00	2024-11-08T02:00:00	7	Dirección del viento	0
59583	7	Sololá	701	Sololá	1	Sololá	11	Noviembre	2023-11-18T00:00:00	2024-11-08T02:00:00	1	Precipitación	0.4
59584	7	Sololá	701	Sololá	1	Sololá	11	Noviembre	2023-11-18T00:00:00	2024-11-08T02:00:00	8	Radiación solar	0
59585	7	Sololá	701	Sololá	1	Sololá	11	Noviembre	2023-11-18T00:00:00	2024-11-08T03:00:00	2	Temperatura media	14.4
59586	7	Sololá	701	Sololá	1	Sololá	11	Noviembre	2023-11-18T00:00:00	2024-11-08T03:00:00	4	Temperatura máxima	14.6
59587	7	Sololá	701	Sololá	1	Sololá	11	Noviembre	2023-11-18T00:00:00	2024-11-08T03:00:00	3	Temperatura mínima	14.4
59588	7	Sololá	701	Sololá	1	Sololá	11	Noviembre	2023-11-18T00:00:00	2024-11-08T03:00:00	5	Humedad	96
59589	7	Sololá	701	Sololá	1	Sololá	11	Noviembre	2023-11-18T00:00:00	2024-11-08T03:00:00	6	Velocidad del viento	0
59590	7	Sololá	701	Sololá	1	Sololá	11	Noviembre	2023-11-18T00:00:00	2024-11-08T03:00:00	7	Dirección del viento	0
59591	7	Sololá	701	Sololá	1	Sololá	11	Noviembre	2023-11-18T00:00:00	2024-11-08T03:00:00	1	Precipitación	0.4
59592	7	Sololá	701	Sololá	1	Sololá	11	Noviembre	2023-11-18T00:00:00	2024-11-08T03:00:00	8	Radiación solar	0
59593	7	Sololá	701	Sololá	1	Sololá	11	Noviembre	2023-11-18T00:00:00	2024-11-08T04:00:00	2	Temperatura media	14.3
59594	7	Sololá	701	Sololá	1	Sololá	11	Noviembre	2023-11-18T00:00:00	2024-11-08T04:00:00	4	Temperatura máxima	14.4
59595	7	Sololá	701	Sololá	1	Sololá	11	Noviembre	2023-11-18T00:00:00	2024-11-08T04:00:00	3	Temperatura mínima	14.3
59596	7	Sololá	701	Sololá	1	Sololá	11	Noviembre	2023-11-18T00:00:00	2024-11-08T04:00:00	5	Humedad	96
59597	7	Sololá	701	Sololá	1	Sololá	11	Noviembre	2023-11-18T00:00:00	2024-11-08T04:00:00	6	Velocidad del viento	0
59598	7	Sololá	701	Sololá	1	Sololá	11	Noviembre	2023-11-18T00:00:00	2024-11-08T04:00:00	7	Dirección del viento	0
59599	7	Sololá	701	Sololá	1	Sololá	11	Noviembre	2023-11-18T00:00:00	2024-11-08T04:00:00	1	Precipitación	0.2
59600	7	Sololá	701	Sololá	1	Sololá	11	Noviembre	2023-11-18T00:00:00	2024-11-08T04:00:00	8	Radiación solar	0
59601	7	Sololá	701	Sololá	1	Sololá	11	Noviembre	2023-11-18T00:00:00	2024-11-08T05:00:00	2	Temperatura media	14.3
59602	7	Sololá	701	Sololá	1	Sololá	11	Noviembre	2023-11-18T00:00:00	2024-11-08T05:00:00	4	Temperatura máxima	14.4
59603	7	Sololá	701	Sololá	1	Sololá	11	Noviembre	2023-11-18T00:00:00	2024-11-08T05:00:00	3	Temperatura mínima	14.2
59604	7	Sololá	701	Sololá	1	Sololá	11	Noviembre	2023-11-18T00:00:00	2024-11-08T05:00:00	5	Humedad	96
59605	7	Sololá	701	Sololá	1	Sololá	11	Noviembre	2023-11-18T00:00:00	2024-11-08T05:00:00	6	Velocidad del viento	0
59606	7	Sololá	701	Sololá	1	Sololá	11	Noviembre	2023-11-18T00:00:00	2024-11-08T05:00:00	7	Dirección del viento	0
59607	7	Sololá	701	Sololá	1	Sololá	11	Noviembre	2023-11-18T00:00:00	2024-11-08T05:00:00	1	Precipitación	0.4
59608	7	Sololá	701	Sololá	1	Sololá	11	Noviembre	2023-11-18T00:00:00	2024-11-08T05:00:00	8	Radiación solar	0
59609	7	Sololá	701	Sololá	1	Sololá	11	Noviembre	2023-11-18T00:00:00	2024-11-08T06:00:00	2	Temperatura media	13.9
59610	7	Sololá	701	Sololá	1	Sololá	11	Noviembre	2023-11-18T00:00:00	2024-11-08T06:00:00	4	Temperatura máxima	14.3
59611	7	Sololá	701	Sololá	1	Sololá	11	Noviembre	2023-11-18T00:00:00	2024-11-08T06:00:00	3	Temperatura mínima	13.9
59612	7	Sololá	701	Sololá	1	Sololá	11	Noviembre	2023-11-18T00:00:00	2024-11-08T06:00:00	5	Humedad	96
59613	7	Sololá	701	Sololá	1	Sololá	11	Noviembre	2023-11-18T00:00:00	2024-11-08T06:00:00	6	Velocidad del viento	0
59614	7	Sololá	701	Sololá	1	Sololá	11	Noviembre	2023-11-18T00:00:00	2024-11-08T06:00:00	7	Dirección del viento	0
59615	7	Sololá	701	Sololá	1	Sololá	11	Noviembre	2023-11-18T00:00:00	2024-11-08T06:00:00	1	Precipitación	0.2
59616	7	Sololá	701	Sololá	1	Sololá	11	Noviembre	2023-11-18T00:00:00	2024-11-08T06:00:00	8	Radiación solar	0
59617	7	Sololá	701	Sololá	1	Sololá	11	Noviembre	2023-11-18T00:00:00	2024-11-08T07:00:00	2	Temperatura media	13.3
59618	7	Sololá	701	Sololá	1	Sololá	11	Noviembre	2023-11-18T00:00:00	2024-11-08T07:00:00	4	Temperatura máxima	13.9
59619	7	Sololá	701	Sololá	1	Sololá	11	Noviembre	2023-11-18T00:00:00	2024-11-08T07:00:00	3	Temperatura mínima	13.3
59620	7	Sololá	701	Sololá	1	Sololá	11	Noviembre	2023-11-18T00:00:00	2024-11-08T07:00:00	5	Humedad	95
59621	7	Sololá	701	Sololá	1	Sololá	11	Noviembre	2023-11-18T00:00:00	2024-11-08T07:00:00	6	Velocidad del viento	0
59622	7	Sololá	701	Sololá	1	Sololá	11	Noviembre	2023-11-18T00:00:00	2024-11-08T07:00:00	7	Dirección del viento	0
59623	7	Sololá	701	Sololá	1	Sololá	11	Noviembre	2023-11-18T00:00:00	2024-11-08T07:00:00	1	Precipitación	0.2
59624	7	Sololá	701	Sololá	1	Sololá	11	Noviembre	2023-11-18T00:00:00	2024-11-08T07:00:00	8	Radiación solar	14
59625	7	Sololá	701	Sololá	1	Sololá	11	Noviembre	2023-11-18T00:00:00	2024-11-08T08:00:00	2	Temperatura media	14.2
59626	7	Sololá	701	Sololá	1	Sololá	11	Noviembre	2023-11-18T00:00:00	2024-11-08T08:00:00	4	Temperatura máxima	14.2
59627	7	Sololá	701	Sololá	1	Sololá	11	Noviembre	2023-11-18T00:00:00	2024-11-08T08:00:00	3	Temperatura mínima	13.3
59628	7	Sololá	701	Sololá	1	Sololá	11	Noviembre	2023-11-18T00:00:00	2024-11-08T08:00:00	5	Humedad	97
59629	7	Sololá	701	Sololá	1	Sololá	11	Noviembre	2023-11-18T00:00:00	2024-11-08T08:00:00	6	Velocidad del viento	0
59630	7	Sololá	701	Sololá	1	Sololá	11	Noviembre	2023-11-18T00:00:00	2024-11-08T08:00:00	7	Dirección del viento	0
59631	7	Sololá	701	Sololá	1	Sololá	11	Noviembre	2023-11-18T00:00:00	2024-11-08T08:00:00	1	Precipitación	0.2
59632	7	Sololá	701	Sololá	1	Sololá	11	Noviembre	2023-11-18T00:00:00	2024-11-08T08:00:00	8	Radiación solar	98
59633	7	Sololá	701	Sololá	1	Sololá	11	Noviembre	2023-11-18T00:00:00	2024-11-08T09:00:00	2	Temperatura media	14.3
59634	7	Sololá	701	Sololá	1	Sololá	11	Noviembre	2023-11-18T00:00:00	2024-11-08T09:00:00	4	Temperatura máxima	14.3
59635	7	Sololá	701	Sololá	1	Sololá	11	Noviembre	2023-11-18T00:00:00	2024-11-08T09:00:00	3	Temperatura mínima	13.6
59636	7	Sololá	701	Sololá	1	Sololá	11	Noviembre	2023-11-18T00:00:00	2024-11-08T09:00:00	5	Humedad	96
59637	7	Sololá	701	Sololá	1	Sololá	11	Noviembre	2023-11-18T00:00:00	2024-11-08T09:00:00	6	Velocidad del viento	0
59638	7	Sololá	701	Sololá	1	Sololá	11	Noviembre	2023-11-18T00:00:00	2024-11-08T09:00:00	7	Dirección del viento	0
59639	7	Sololá	701	Sololá	1	Sololá	11	Noviembre	2023-11-18T00:00:00	2024-11-08T09:00:00	1	Precipitación	0.2
59640	7	Sololá	701	Sololá	1	Sololá	11	Noviembre	2023-11-18T00:00:00	2024-11-08T09:00:00	8	Radiación solar	122
59641	7	Sololá	701	Sololá	1	Sololá	11	Noviembre	2023-11-18T00:00:00	2024-11-08T10:00:00	2	Temperatura media	16.6
59642	7	Sololá	701	Sololá	1	Sololá	11	Noviembre	2023-11-18T00:00:00	2024-11-08T10:00:00	4	Temperatura máxima	16.6
59643	7	Sololá	701	Sololá	1	Sololá	11	Noviembre	2023-11-18T00:00:00	2024-11-08T10:00:00	3	Temperatura mínima	14.3
59644	7	Sololá	701	Sololá	1	Sololá	11	Noviembre	2023-11-18T00:00:00	2024-11-08T10:00:00	5	Humedad	94
59645	7	Sololá	701	Sololá	1	Sololá	11	Noviembre	2023-11-18T00:00:00	2024-11-08T10:00:00	6	Velocidad del viento	0
59646	7	Sololá	701	Sololá	1	Sololá	11	Noviembre	2023-11-18T00:00:00	2024-11-08T10:00:00	7	Dirección del viento	0
59647	7	Sololá	701	Sololá	1	Sololá	11	Noviembre	2023-11-18T00:00:00	2024-11-08T10:00:00	1	Precipitación	0.2
59648	7	Sololá	701	Sololá	1	Sololá	11	Noviembre	2023-11-18T00:00:00	2024-11-08T10:00:00	8	Radiación solar	389
59649	7	Sololá	701	Sololá	1	Sololá	11	Noviembre	2023-11-18T00:00:00	2024-11-08T11:00:00	2	Temperatura media	18.9
59650	7	Sololá	701	Sololá	1	Sololá	11	Noviembre	2023-11-18T00:00:00	2024-11-08T11:00:00	4	Temperatura máxima	18.9
59651	7	Sololá	701	Sololá	1	Sololá	11	Noviembre	2023-11-18T00:00:00	2024-11-08T11:00:00	3	Temperatura mínima	16.6
59652	7	Sololá	701	Sololá	1	Sololá	11	Noviembre	2023-11-18T00:00:00	2024-11-08T11:00:00	5	Humedad	82
59653	7	Sololá	701	Sololá	1	Sololá	11	Noviembre	2023-11-18T00:00:00	2024-11-08T11:00:00	6	Velocidad del viento	0
59654	7	Sololá	701	Sololá	1	Sololá	11	Noviembre	2023-11-18T00:00:00	2024-11-08T11:00:00	7	Dirección del viento	0
59655	7	Sololá	701	Sololá	1	Sololá	11	Noviembre	2023-11-18T00:00:00	2024-11-08T11:00:00	1	Precipitación	0.2
59656	7	Sololá	701	Sololá	1	Sololá	11	Noviembre	2023-11-18T00:00:00	2024-11-08T11:00:00	8	Radiación solar	916
59657	7	Sololá	701	Sololá	1	Sololá	11	Noviembre	2023-11-18T00:00:00	2024-11-08T12:00:00	2	Temperatura media	20.5
59658	7	Sololá	701	Sololá	1	Sololá	11	Noviembre	2023-11-18T00:00:00	2024-11-08T12:00:00	4	Temperatura máxima	20.6
59659	7	Sololá	701	Sololá	1	Sololá	11	Noviembre	2023-11-18T00:00:00	2024-11-08T12:00:00	3	Temperatura mínima	18.9
59660	7	Sololá	701	Sololá	1	Sololá	11	Noviembre	2023-11-18T00:00:00	2024-11-08T12:00:00	5	Humedad	74
59661	7	Sololá	701	Sololá	1	Sololá	11	Noviembre	2023-11-18T00:00:00	2024-11-08T12:00:00	6	Velocidad del viento	0
59662	7	Sololá	701	Sololá	1	Sololá	11	Noviembre	2023-11-18T00:00:00	2024-11-08T12:00:00	7	Dirección del viento	0
59663	7	Sololá	701	Sololá	1	Sololá	11	Noviembre	2023-11-18T00:00:00	2024-11-08T12:00:00	1	Precipitación	0.2
59664	7	Sololá	701	Sololá	1	Sololá	11	Noviembre	2023-11-18T00:00:00	2024-11-08T12:00:00	8	Radiación solar	890
59665	7	Sololá	701	Sololá	1	Sololá	11	Noviembre	2023-11-18T00:00:00	2024-11-08T13:00:00	2	Temperatura media	21
59666	7	Sololá	701	Sololá	1	Sololá	11	Noviembre	2023-11-18T00:00:00	2024-11-08T13:00:00	4	Temperatura máxima	21.1
59667	7	Sololá	701	Sololá	1	Sololá	11	Noviembre	2023-11-18T00:00:00	2024-11-08T13:00:00	3	Temperatura mínima	20.4
59668	7	Sololá	701	Sololá	1	Sololá	11	Noviembre	2023-11-18T00:00:00	2024-11-08T13:00:00	5	Humedad	72
59669	7	Sololá	701	Sololá	1	Sololá	11	Noviembre	2023-11-18T00:00:00	2024-11-08T13:00:00	6	Velocidad del viento	0
59670	7	Sololá	701	Sololá	1	Sololá	11	Noviembre	2023-11-18T00:00:00	2024-11-08T13:00:00	7	Dirección del viento	0
59671	7	Sololá	701	Sololá	1	Sololá	11	Noviembre	2023-11-18T00:00:00	2024-11-08T13:00:00	1	Precipitación	0
59672	7	Sololá	701	Sololá	1	Sololá	11	Noviembre	2023-11-18T00:00:00	2024-11-08T13:00:00	8	Radiación solar	452
59673	7	Sololá	701	Sololá	1	Sololá	11	Noviembre	2023-11-18T00:00:00	2024-11-08T14:00:00	2	Temperatura media	21.3
59674	7	Sololá	701	Sololá	1	Sololá	11	Noviembre	2023-11-18T00:00:00	2024-11-08T14:00:00	4	Temperatura máxima	21.5
59675	7	Sololá	701	Sololá	1	Sololá	11	Noviembre	2023-11-18T00:00:00	2024-11-08T14:00:00	3	Temperatura mínima	20.9
59676	7	Sololá	701	Sololá	1	Sololá	11	Noviembre	2023-11-18T00:00:00	2024-11-08T14:00:00	5	Humedad	75
59677	7	Sololá	701	Sololá	1	Sololá	11	Noviembre	2023-11-18T00:00:00	2024-11-08T14:00:00	6	Velocidad del viento	0
59678	7	Sololá	701	Sololá	1	Sololá	11	Noviembre	2023-11-18T00:00:00	2024-11-08T14:00:00	7	Dirección del viento	0
59679	7	Sololá	701	Sololá	1	Sololá	11	Noviembre	2023-11-18T00:00:00	2024-11-08T14:00:00	1	Precipitación	0
59680	7	Sololá	701	Sololá	1	Sololá	11	Noviembre	2023-11-18T00:00:00	2024-11-08T14:00:00	8	Radiación solar	790
59681	7	Sololá	701	Sololá	1	Sololá	11	Noviembre	2023-11-18T00:00:00	2024-11-08T15:00:00	2	Temperatura media	20.9
59682	7	Sololá	701	Sololá	1	Sololá	11	Noviembre	2023-11-18T00:00:00	2024-11-08T15:00:00	4	Temperatura máxima	21.3
59683	7	Sololá	701	Sololá	1	Sololá	11	Noviembre	2023-11-18T00:00:00	2024-11-08T15:00:00	3	Temperatura mínima	20.8
59684	7	Sololá	701	Sololá	1	Sololá	11	Noviembre	2023-11-18T00:00:00	2024-11-08T15:00:00	5	Humedad	77
59685	7	Sololá	701	Sololá	1	Sololá	11	Noviembre	2023-11-18T00:00:00	2024-11-08T15:00:00	6	Velocidad del viento	0
59686	7	Sololá	701	Sololá	1	Sololá	11	Noviembre	2023-11-18T00:00:00	2024-11-08T15:00:00	7	Dirección del viento	0
59687	7	Sololá	701	Sololá	1	Sololá	11	Noviembre	2023-11-18T00:00:00	2024-11-08T15:00:00	1	Precipitación	0
59688	7	Sololá	701	Sololá	1	Sololá	11	Noviembre	2023-11-18T00:00:00	2024-11-08T15:00:00	8	Radiación solar	294
59689	7	Sololá	701	Sololá	1	Sololá	11	Noviembre	2023-11-18T00:00:00	2024-11-08T16:00:00	2	Temperatura media	19.4
59690	7	Sololá	701	Sololá	1	Sololá	11	Noviembre	2023-11-18T00:00:00	2024-11-08T16:00:00	4	Temperatura máxima	20.9
59691	7	Sololá	701	Sololá	1	Sololá	11	Noviembre	2023-11-18T00:00:00	2024-11-08T16:00:00	3	Temperatura mínima	19.4
59692	7	Sololá	701	Sololá	1	Sololá	11	Noviembre	2023-11-18T00:00:00	2024-11-08T16:00:00	5	Humedad	82
59693	7	Sololá	701	Sololá	1	Sololá	11	Noviembre	2023-11-18T00:00:00	2024-11-08T16:00:00	6	Velocidad del viento	0
59694	7	Sololá	701	Sololá	1	Sololá	11	Noviembre	2023-11-18T00:00:00	2024-11-08T16:00:00	7	Dirección del viento	0
59695	7	Sololá	701	Sololá	1	Sololá	11	Noviembre	2023-11-18T00:00:00	2024-11-08T16:00:00	1	Precipitación	0
59696	7	Sololá	701	Sololá	1	Sololá	11	Noviembre	2023-11-18T00:00:00	2024-11-08T16:00:00	8	Radiación solar	173
59697	7	Sololá	701	Sololá	1	Sololá	11	Noviembre	2023-11-18T00:00:00	2024-11-08T17:00:00	2	Temperatura media	17.4
59698	7	Sololá	701	Sololá	1	Sololá	11	Noviembre	2023-11-18T00:00:00	2024-11-08T17:00:00	4	Temperatura máxima	19.4
59699	7	Sololá	701	Sololá	1	Sololá	11	Noviembre	2023-11-18T00:00:00	2024-11-08T17:00:00	3	Temperatura mínima	17.4
59700	7	Sololá	701	Sololá	1	Sololá	11	Noviembre	2023-11-18T00:00:00	2024-11-08T17:00:00	5	Humedad	91
59701	7	Sololá	701	Sololá	1	Sololá	11	Noviembre	2023-11-18T00:00:00	2024-11-08T17:00:00	6	Velocidad del viento	0
59702	7	Sololá	701	Sololá	1	Sololá	11	Noviembre	2023-11-18T00:00:00	2024-11-08T17:00:00	7	Dirección del viento	0
59703	7	Sololá	701	Sololá	1	Sololá	11	Noviembre	2023-11-18T00:00:00	2024-11-08T17:00:00	1	Precipitación	0
59704	7	Sololá	701	Sololá	1	Sololá	11	Noviembre	2023-11-18T00:00:00	2024-11-08T17:00:00	8	Radiación solar	25
59705	7	Sololá	701	Sololá	1	Sololá	11	Noviembre	2023-11-18T00:00:00	2024-11-08T18:00:00	2	Temperatura media	16.6
59706	7	Sololá	701	Sololá	1	Sololá	11	Noviembre	2023-11-18T00:00:00	2024-11-08T18:00:00	4	Temperatura máxima	17.4
59707	7	Sololá	701	Sololá	1	Sololá	11	Noviembre	2023-11-18T00:00:00	2024-11-08T18:00:00	3	Temperatura mínima	16.6
59708	7	Sololá	701	Sololá	1	Sololá	11	Noviembre	2023-11-18T00:00:00	2024-11-08T18:00:00	5	Humedad	92
59709	7	Sololá	701	Sololá	1	Sololá	11	Noviembre	2023-11-18T00:00:00	2024-11-08T18:00:00	6	Velocidad del viento	0
59710	7	Sololá	701	Sololá	1	Sololá	11	Noviembre	2023-11-18T00:00:00	2024-11-08T18:00:00	7	Dirección del viento	0
59711	7	Sololá	701	Sololá	1	Sololá	11	Noviembre	2023-11-18T00:00:00	2024-11-08T18:00:00	1	Precipitación	0
59712	7	Sololá	701	Sololá	1	Sololá	11	Noviembre	2023-11-18T00:00:00	2024-11-08T18:00:00	8	Radiación solar	4
59713	7	Sololá	701	Sololá	1	Sololá	11	Noviembre	2023-11-18T00:00:00	2024-11-08T19:00:00	2	Temperatura media	16.4
59714	7	Sololá	701	Sololá	1	Sololá	11	Noviembre	2023-11-18T00:00:00	2024-11-08T19:00:00	4	Temperatura máxima	16.6
59715	7	Sololá	701	Sololá	1	Sololá	11	Noviembre	2023-11-18T00:00:00	2024-11-08T19:00:00	3	Temperatura mínima	16.3
59716	7	Sololá	701	Sololá	1	Sololá	11	Noviembre	2023-11-18T00:00:00	2024-11-08T19:00:00	5	Humedad	92
59717	7	Sololá	701	Sololá	1	Sololá	11	Noviembre	2023-11-18T00:00:00	2024-11-08T19:00:00	6	Velocidad del viento	0
59718	7	Sololá	701	Sololá	1	Sololá	11	Noviembre	2023-11-18T00:00:00	2024-11-08T19:00:00	7	Dirección del viento	0
59719	7	Sololá	701	Sololá	1	Sololá	11	Noviembre	2023-11-18T00:00:00	2024-11-08T19:00:00	1	Precipitación	0
59720	7	Sololá	701	Sololá	1	Sololá	11	Noviembre	2023-11-18T00:00:00	2024-11-08T19:00:00	8	Radiación solar	0
59721	7	Sololá	701	Sololá	1	Sololá	11	Noviembre	2023-11-18T00:00:00	2024-11-08T20:00:00	2	Temperatura media	14.3
59722	7	Sololá	701	Sololá	1	Sololá	11	Noviembre	2023-11-18T00:00:00	2024-11-08T20:00:00	4	Temperatura máxima	16.4
59723	7	Sololá	701	Sololá	1	Sololá	11	Noviembre	2023-11-18T00:00:00	2024-11-08T20:00:00	3	Temperatura mínima	14.3
59724	7	Sololá	701	Sololá	1	Sololá	11	Noviembre	2023-11-18T00:00:00	2024-11-08T20:00:00	5	Humedad	89
59725	7	Sololá	701	Sololá	1	Sololá	11	Noviembre	2023-11-18T00:00:00	2024-11-08T20:00:00	6	Velocidad del viento	0
59726	7	Sololá	701	Sololá	1	Sololá	11	Noviembre	2023-11-18T00:00:00	2024-11-08T20:00:00	7	Dirección del viento	0
59727	7	Sololá	701	Sololá	1	Sololá	11	Noviembre	2023-11-18T00:00:00	2024-11-08T20:00:00	1	Precipitación	0
59728	7	Sololá	701	Sololá	1	Sololá	11	Noviembre	2023-11-18T00:00:00	2024-11-08T20:00:00	8	Radiación solar	0
59729	7	Sololá	701	Sololá	1	Sololá	11	Noviembre	2023-11-18T00:00:00	2024-11-08T21:00:00	2	Temperatura media	13.4
59730	7	Sololá	701	Sololá	1	Sololá	11	Noviembre	2023-11-18T00:00:00	2024-11-08T21:00:00	4	Temperatura máxima	14.3
59731	7	Sololá	701	Sololá	1	Sololá	11	Noviembre	2023-11-18T00:00:00	2024-11-08T21:00:00	3	Temperatura mínima	13.4
59732	7	Sololá	701	Sololá	1	Sololá	11	Noviembre	2023-11-18T00:00:00	2024-11-08T21:00:00	5	Humedad	88
59733	7	Sololá	701	Sololá	1	Sololá	11	Noviembre	2023-11-18T00:00:00	2024-11-08T21:00:00	6	Velocidad del viento	0
59734	7	Sololá	701	Sololá	1	Sololá	11	Noviembre	2023-11-18T00:00:00	2024-11-08T21:00:00	7	Dirección del viento	0
59735	7	Sololá	701	Sololá	1	Sololá	11	Noviembre	2023-11-18T00:00:00	2024-11-08T21:00:00	1	Precipitación	0
59736	7	Sololá	701	Sololá	1	Sololá	11	Noviembre	2023-11-18T00:00:00	2024-11-08T21:00:00	8	Radiación solar	0
59737	7	Sololá	701	Sololá	1	Sololá	11	Noviembre	2023-11-18T00:00:00	2024-11-08T22:00:00	2	Temperatura media	13
59738	7	Sololá	701	Sololá	1	Sololá	11	Noviembre	2023-11-18T00:00:00	2024-11-08T22:00:00	4	Temperatura máxima	13.4
59739	7	Sololá	701	Sololá	1	Sololá	11	Noviembre	2023-11-18T00:00:00	2024-11-08T22:00:00	3	Temperatura mínima	13
59740	7	Sololá	701	Sololá	1	Sololá	11	Noviembre	2023-11-18T00:00:00	2024-11-08T22:00:00	5	Humedad	88
59741	7	Sololá	701	Sololá	1	Sololá	11	Noviembre	2023-11-18T00:00:00	2024-11-08T22:00:00	6	Velocidad del viento	0
59742	7	Sololá	701	Sololá	1	Sololá	11	Noviembre	2023-11-18T00:00:00	2024-11-08T22:00:00	7	Dirección del viento	0
59743	7	Sololá	701	Sololá	1	Sololá	11	Noviembre	2023-11-18T00:00:00	2024-11-08T22:00:00	1	Precipitación	0
59744	7	Sololá	701	Sololá	1	Sololá	11	Noviembre	2023-11-18T00:00:00	2024-11-08T22:00:00	8	Radiación solar	0
59745	7	Sololá	701	Sololá	1	Sololá	11	Noviembre	2023-11-18T00:00:00	2024-11-08T23:00:00	2	Temperatura media	12.6
59746	7	Sololá	701	Sololá	1	Sololá	11	Noviembre	2023-11-18T00:00:00	2024-11-08T23:00:00	4	Temperatura máxima	13.1
59747	7	Sololá	701	Sololá	1	Sololá	11	Noviembre	2023-11-18T00:00:00	2024-11-08T23:00:00	3	Temperatura mínima	12.6
59748	7	Sololá	701	Sololá	1	Sololá	11	Noviembre	2023-11-18T00:00:00	2024-11-08T23:00:00	5	Humedad	87
59749	7	Sololá	701	Sololá	1	Sololá	11	Noviembre	2023-11-18T00:00:00	2024-11-08T23:00:00	6	Velocidad del viento	0
59750	7	Sololá	701	Sololá	1	Sololá	11	Noviembre	2023-11-18T00:00:00	2024-11-08T23:00:00	7	Dirección del viento	0
59751	7	Sololá	701	Sololá	1	Sololá	11	Noviembre	2023-11-18T00:00:00	2024-11-08T23:00:00	1	Precipitación	0
59752	7	Sololá	701	Sololá	1	Sololá	11	Noviembre	2023-11-18T00:00:00	2024-11-08T23:00:00	8	Radiación solar	0
59753	7	Sololá	701	Sololá	1	Sololá	11	Noviembre	2023-11-19T00:00:00	2024-11-08T00:00:00	2	Temperatura media	11.7
59754	7	Sololá	701	Sololá	1	Sololá	11	Noviembre	2023-11-19T00:00:00	2024-11-08T00:00:00	4	Temperatura máxima	12.6
59755	7	Sololá	701	Sololá	1	Sololá	11	Noviembre	2023-11-19T00:00:00	2024-11-08T00:00:00	3	Temperatura mínima	11.6
59756	7	Sololá	701	Sololá	1	Sololá	11	Noviembre	2023-11-19T00:00:00	2024-11-08T00:00:00	5	Humedad	89
59757	7	Sololá	701	Sololá	1	Sololá	11	Noviembre	2023-11-19T00:00:00	2024-11-08T00:00:00	6	Velocidad del viento	0
59758	7	Sololá	701	Sololá	1	Sololá	11	Noviembre	2023-11-19T00:00:00	2024-11-08T00:00:00	7	Dirección del viento	0
59759	7	Sololá	701	Sololá	1	Sololá	11	Noviembre	2023-11-19T00:00:00	2024-11-08T00:00:00	1	Precipitación	0
59760	7	Sololá	701	Sololá	1	Sololá	11	Noviembre	2023-11-19T00:00:00	2024-11-08T00:00:00	8	Radiación solar	0
59761	7	Sololá	701	Sololá	1	Sololá	11	Noviembre	2023-11-19T00:00:00	2024-11-08T01:00:00	2	Temperatura media	10.8
59762	7	Sololá	701	Sololá	1	Sololá	11	Noviembre	2023-11-19T00:00:00	2024-11-08T01:00:00	4	Temperatura máxima	11.7
59763	7	Sololá	701	Sololá	1	Sololá	11	Noviembre	2023-11-19T00:00:00	2024-11-08T01:00:00	3	Temperatura mínima	10.8
59764	7	Sololá	701	Sololá	1	Sololá	11	Noviembre	2023-11-19T00:00:00	2024-11-08T01:00:00	5	Humedad	87
59765	7	Sololá	701	Sololá	1	Sololá	11	Noviembre	2023-11-19T00:00:00	2024-11-08T01:00:00	6	Velocidad del viento	0
59766	7	Sololá	701	Sololá	1	Sololá	11	Noviembre	2023-11-19T00:00:00	2024-11-08T01:00:00	7	Dirección del viento	0
59767	7	Sololá	701	Sololá	1	Sololá	11	Noviembre	2023-11-19T00:00:00	2024-11-08T01:00:00	1	Precipitación	0
59768	7	Sololá	701	Sololá	1	Sololá	11	Noviembre	2023-11-19T00:00:00	2024-11-08T01:00:00	8	Radiación solar	0
59769	7	Sololá	701	Sololá	1	Sololá	11	Noviembre	2023-11-19T00:00:00	2024-11-08T02:00:00	2	Temperatura media	11.1
59770	7	Sololá	701	Sololá	1	Sololá	11	Noviembre	2023-11-19T00:00:00	2024-11-08T02:00:00	4	Temperatura máxima	11.1
59771	7	Sololá	701	Sololá	1	Sololá	11	Noviembre	2023-11-19T00:00:00	2024-11-08T02:00:00	3	Temperatura mínima	10.1
59772	7	Sololá	701	Sololá	1	Sololá	11	Noviembre	2023-11-19T00:00:00	2024-11-08T02:00:00	5	Humedad	89
59773	7	Sololá	701	Sololá	1	Sololá	11	Noviembre	2023-11-19T00:00:00	2024-11-08T02:00:00	6	Velocidad del viento	0
59774	7	Sololá	701	Sololá	1	Sololá	11	Noviembre	2023-11-19T00:00:00	2024-11-08T02:00:00	7	Dirección del viento	0
59775	7	Sololá	701	Sololá	1	Sololá	11	Noviembre	2023-11-19T00:00:00	2024-11-08T02:00:00	1	Precipitación	0
59776	7	Sololá	701	Sololá	1	Sololá	11	Noviembre	2023-11-19T00:00:00	2024-11-08T02:00:00	8	Radiación solar	0
59777	7	Sololá	701	Sololá	1	Sololá	11	Noviembre	2023-11-19T00:00:00	2024-11-08T03:00:00	2	Temperatura media	10.8
59778	7	Sololá	701	Sololá	1	Sololá	11	Noviembre	2023-11-19T00:00:00	2024-11-08T03:00:00	4	Temperatura máxima	11.4
59779	7	Sololá	701	Sololá	1	Sololá	11	Noviembre	2023-11-19T00:00:00	2024-11-08T03:00:00	3	Temperatura mínima	10.8
59780	7	Sololá	701	Sololá	1	Sololá	11	Noviembre	2023-11-19T00:00:00	2024-11-08T03:00:00	5	Humedad	88
59781	7	Sololá	701	Sololá	1	Sololá	11	Noviembre	2023-11-19T00:00:00	2024-11-08T03:00:00	6	Velocidad del viento	0
59782	7	Sololá	701	Sololá	1	Sololá	11	Noviembre	2023-11-19T00:00:00	2024-11-08T03:00:00	7	Dirección del viento	0
59783	7	Sololá	701	Sololá	1	Sololá	11	Noviembre	2023-11-19T00:00:00	2024-11-08T03:00:00	1	Precipitación	0
59784	7	Sololá	701	Sololá	1	Sololá	11	Noviembre	2023-11-19T00:00:00	2024-11-08T03:00:00	8	Radiación solar	0
59785	7	Sololá	701	Sololá	1	Sololá	11	Noviembre	2023-11-19T00:00:00	2024-11-08T04:00:00	2	Temperatura media	10.9
59786	7	Sololá	701	Sololá	1	Sololá	11	Noviembre	2023-11-19T00:00:00	2024-11-08T04:00:00	4	Temperatura máxima	10.9
59787	7	Sololá	701	Sololá	1	Sololá	11	Noviembre	2023-11-19T00:00:00	2024-11-08T04:00:00	3	Temperatura mínima	10.6
59788	7	Sololá	701	Sololá	1	Sololá	11	Noviembre	2023-11-19T00:00:00	2024-11-08T04:00:00	5	Humedad	88
59789	7	Sololá	701	Sololá	1	Sololá	11	Noviembre	2023-11-19T00:00:00	2024-11-08T04:00:00	6	Velocidad del viento	0
59790	7	Sololá	701	Sololá	1	Sololá	11	Noviembre	2023-11-19T00:00:00	2024-11-08T04:00:00	7	Dirección del viento	0
59791	7	Sololá	701	Sololá	1	Sololá	11	Noviembre	2023-11-19T00:00:00	2024-11-08T04:00:00	1	Precipitación	0
59792	7	Sololá	701	Sololá	1	Sololá	11	Noviembre	2023-11-19T00:00:00	2024-11-08T04:00:00	8	Radiación solar	0
59793	7	Sololá	701	Sololá	1	Sololá	11	Noviembre	2023-11-19T00:00:00	2024-11-08T05:00:00	2	Temperatura media	10.1
59794	7	Sololá	701	Sololá	1	Sololá	11	Noviembre	2023-11-19T00:00:00	2024-11-08T05:00:00	4	Temperatura máxima	10.9
59795	7	Sololá	701	Sololá	1	Sololá	11	Noviembre	2023-11-19T00:00:00	2024-11-08T05:00:00	3	Temperatura mínima	10.1
59796	7	Sololá	701	Sololá	1	Sololá	11	Noviembre	2023-11-19T00:00:00	2024-11-08T05:00:00	5	Humedad	89
59797	7	Sololá	701	Sololá	1	Sololá	11	Noviembre	2023-11-19T00:00:00	2024-11-08T05:00:00	6	Velocidad del viento	0
59798	7	Sololá	701	Sololá	1	Sololá	11	Noviembre	2023-11-19T00:00:00	2024-11-08T05:00:00	7	Dirección del viento	0
59799	7	Sololá	701	Sololá	1	Sololá	11	Noviembre	2023-11-19T00:00:00	2024-11-08T05:00:00	1	Precipitación	0
59800	7	Sololá	701	Sololá	1	Sololá	11	Noviembre	2023-11-19T00:00:00	2024-11-08T05:00:00	8	Radiación solar	0
59801	7	Sololá	701	Sololá	1	Sololá	11	Noviembre	2023-11-19T00:00:00	2024-11-08T06:00:00	2	Temperatura media	10.1
59802	7	Sololá	701	Sololá	1	Sololá	11	Noviembre	2023-11-19T00:00:00	2024-11-08T06:00:00	4	Temperatura máxima	10.1
59803	7	Sololá	701	Sololá	1	Sololá	11	Noviembre	2023-11-19T00:00:00	2024-11-08T06:00:00	3	Temperatura mínima	9.8
59804	7	Sololá	701	Sololá	1	Sololá	11	Noviembre	2023-11-19T00:00:00	2024-11-08T06:00:00	5	Humedad	82
59805	7	Sololá	701	Sololá	1	Sololá	11	Noviembre	2023-11-19T00:00:00	2024-11-08T06:00:00	6	Velocidad del viento	0
59806	7	Sololá	701	Sololá	1	Sololá	11	Noviembre	2023-11-19T00:00:00	2024-11-08T06:00:00	7	Dirección del viento	0
59807	7	Sololá	701	Sololá	1	Sololá	11	Noviembre	2023-11-19T00:00:00	2024-11-08T06:00:00	1	Precipitación	0
59808	7	Sololá	701	Sololá	1	Sololá	11	Noviembre	2023-11-19T00:00:00	2024-11-08T06:00:00	8	Radiación solar	0
59809	7	Sololá	701	Sololá	1	Sololá	11	Noviembre	2023-11-19T00:00:00	2024-11-08T07:00:00	2	Temperatura media	11.1
59810	7	Sololá	701	Sololá	1	Sololá	11	Noviembre	2023-11-19T00:00:00	2024-11-08T07:00:00	4	Temperatura máxima	11.1
59811	7	Sololá	701	Sololá	1	Sololá	11	Noviembre	2023-11-19T00:00:00	2024-11-08T07:00:00	3	Temperatura mínima	10
59812	7	Sololá	701	Sololá	1	Sololá	11	Noviembre	2023-11-19T00:00:00	2024-11-08T07:00:00	5	Humedad	76
59813	7	Sololá	701	Sololá	1	Sololá	11	Noviembre	2023-11-19T00:00:00	2024-11-08T07:00:00	6	Velocidad del viento	1.6
59814	7	Sololá	701	Sololá	1	Sololá	11	Noviembre	2023-11-19T00:00:00	2024-11-08T07:00:00	7	Dirección del viento	1.61
59815	7	Sololá	701	Sololá	1	Sololá	11	Noviembre	2023-11-19T00:00:00	2024-11-08T07:00:00	1	Precipitación	0
59816	7	Sololá	701	Sololá	1	Sololá	11	Noviembre	2023-11-19T00:00:00	2024-11-08T07:00:00	8	Radiación solar	9
59817	7	Sololá	701	Sololá	1	Sololá	11	Noviembre	2023-11-19T00:00:00	2024-11-08T08:00:00	2	Temperatura media	14.1
59818	7	Sololá	701	Sololá	1	Sololá	11	Noviembre	2023-11-19T00:00:00	2024-11-08T08:00:00	4	Temperatura máxima	14.1
59819	7	Sololá	701	Sololá	1	Sololá	11	Noviembre	2023-11-19T00:00:00	2024-11-08T08:00:00	3	Temperatura mínima	11.1
59820	7	Sololá	701	Sololá	1	Sololá	11	Noviembre	2023-11-19T00:00:00	2024-11-08T08:00:00	5	Humedad	86
59821	7	Sololá	701	Sololá	1	Sololá	11	Noviembre	2023-11-19T00:00:00	2024-11-08T08:00:00	6	Velocidad del viento	0
59822	7	Sololá	701	Sololá	1	Sololá	11	Noviembre	2023-11-19T00:00:00	2024-11-08T08:00:00	7	Dirección del viento	0
59823	7	Sololá	701	Sololá	1	Sololá	11	Noviembre	2023-11-19T00:00:00	2024-11-08T08:00:00	1	Precipitación	0
59824	7	Sololá	701	Sololá	1	Sololá	11	Noviembre	2023-11-19T00:00:00	2024-11-08T08:00:00	8	Radiación solar	93
59825	7	Sololá	701	Sololá	1	Sololá	11	Noviembre	2023-11-19T00:00:00	2024-11-08T09:00:00	2	Temperatura media	19.3
59826	7	Sololá	701	Sololá	1	Sololá	11	Noviembre	2023-11-19T00:00:00	2024-11-08T09:00:00	4	Temperatura máxima	19.3
59827	7	Sololá	701	Sololá	1	Sololá	11	Noviembre	2023-11-19T00:00:00	2024-11-08T09:00:00	3	Temperatura mínima	14.1
59828	7	Sololá	701	Sololá	1	Sololá	11	Noviembre	2023-11-19T00:00:00	2024-11-08T09:00:00	5	Humedad	71
59829	7	Sololá	701	Sololá	1	Sololá	11	Noviembre	2023-11-19T00:00:00	2024-11-08T09:00:00	6	Velocidad del viento	0
59830	7	Sololá	701	Sololá	1	Sololá	11	Noviembre	2023-11-19T00:00:00	2024-11-08T09:00:00	7	Dirección del viento	0
59831	7	Sololá	701	Sololá	1	Sololá	11	Noviembre	2023-11-19T00:00:00	2024-11-08T09:00:00	1	Precipitación	0
59832	7	Sololá	701	Sololá	1	Sololá	11	Noviembre	2023-11-19T00:00:00	2024-11-08T09:00:00	8	Radiación solar	573
59833	7	Sololá	701	Sololá	1	Sololá	11	Noviembre	2023-11-19T00:00:00	2024-11-08T10:00:00	2	Temperatura media	20.1
59834	7	Sololá	701	Sololá	1	Sololá	11	Noviembre	2023-11-19T00:00:00	2024-11-08T10:00:00	4	Temperatura máxima	20.2
59835	7	Sololá	701	Sololá	1	Sololá	11	Noviembre	2023-11-19T00:00:00	2024-11-08T10:00:00	3	Temperatura mínima	19.3
59836	7	Sololá	701	Sololá	1	Sololá	11	Noviembre	2023-11-19T00:00:00	2024-11-08T10:00:00	5	Humedad	71
59837	7	Sololá	701	Sololá	1	Sololá	11	Noviembre	2023-11-19T00:00:00	2024-11-08T10:00:00	6	Velocidad del viento	0
59838	7	Sololá	701	Sololá	1	Sololá	11	Noviembre	2023-11-19T00:00:00	2024-11-08T10:00:00	7	Dirección del viento	0
59839	7	Sololá	701	Sololá	1	Sololá	11	Noviembre	2023-11-19T00:00:00	2024-11-08T10:00:00	1	Precipitación	0
59840	7	Sololá	701	Sololá	1	Sololá	11	Noviembre	2023-11-19T00:00:00	2024-11-08T10:00:00	8	Radiación solar	759
59841	7	Sololá	701	Sololá	1	Sololá	11	Noviembre	2023-11-19T00:00:00	2024-11-08T11:00:00	2	Temperatura media	20.8
59842	7	Sololá	701	Sololá	1	Sololá	11	Noviembre	2023-11-19T00:00:00	2024-11-08T11:00:00	4	Temperatura máxima	20.8
59843	7	Sololá	701	Sololá	1	Sololá	11	Noviembre	2023-11-19T00:00:00	2024-11-08T11:00:00	3	Temperatura mínima	20.1
59844	7	Sololá	701	Sololá	1	Sololá	11	Noviembre	2023-11-19T00:00:00	2024-11-08T11:00:00	5	Humedad	69
59845	7	Sololá	701	Sololá	1	Sololá	11	Noviembre	2023-11-19T00:00:00	2024-11-08T11:00:00	6	Velocidad del viento	0
59846	7	Sololá	701	Sololá	1	Sololá	11	Noviembre	2023-11-19T00:00:00	2024-11-08T11:00:00	7	Dirección del viento	0
59847	7	Sololá	701	Sololá	1	Sololá	11	Noviembre	2023-11-19T00:00:00	2024-11-08T11:00:00	1	Precipitación	0
59848	7	Sololá	701	Sololá	1	Sololá	11	Noviembre	2023-11-19T00:00:00	2024-11-08T11:00:00	8	Radiación solar	866
59849	7	Sololá	701	Sololá	1	Sololá	11	Noviembre	2023-11-19T00:00:00	2024-11-08T12:00:00	2	Temperatura media	21.3
59850	7	Sololá	701	Sololá	1	Sololá	11	Noviembre	2023-11-19T00:00:00	2024-11-08T12:00:00	4	Temperatura máxima	21.6
59851	7	Sololá	701	Sololá	1	Sololá	11	Noviembre	2023-11-19T00:00:00	2024-11-08T12:00:00	3	Temperatura mínima	20.8
59852	7	Sololá	701	Sololá	1	Sololá	11	Noviembre	2023-11-19T00:00:00	2024-11-08T12:00:00	5	Humedad	69
59853	7	Sololá	701	Sololá	1	Sololá	11	Noviembre	2023-11-19T00:00:00	2024-11-08T12:00:00	6	Velocidad del viento	0
59854	7	Sololá	701	Sololá	1	Sololá	11	Noviembre	2023-11-19T00:00:00	2024-11-08T12:00:00	7	Dirección del viento	0
59855	7	Sololá	701	Sololá	1	Sololá	11	Noviembre	2023-11-19T00:00:00	2024-11-08T12:00:00	1	Precipitación	0
59856	7	Sololá	701	Sololá	1	Sololá	11	Noviembre	2023-11-19T00:00:00	2024-11-08T12:00:00	8	Radiación solar	897
59857	7	Sololá	701	Sololá	1	Sololá	11	Noviembre	2023-11-19T00:00:00	2024-11-08T13:00:00	2	Temperatura media	19.9
59858	7	Sololá	701	Sololá	1	Sololá	11	Noviembre	2023-11-19T00:00:00	2024-11-08T13:00:00	4	Temperatura máxima	21.4
59859	7	Sololá	701	Sololá	1	Sololá	11	Noviembre	2023-11-19T00:00:00	2024-11-08T13:00:00	3	Temperatura mínima	19.8
59860	7	Sololá	701	Sololá	1	Sololá	11	Noviembre	2023-11-19T00:00:00	2024-11-08T13:00:00	5	Humedad	78
59861	7	Sololá	701	Sololá	1	Sololá	11	Noviembre	2023-11-19T00:00:00	2024-11-08T13:00:00	6	Velocidad del viento	0
59862	7	Sololá	701	Sololá	1	Sololá	11	Noviembre	2023-11-19T00:00:00	2024-11-08T13:00:00	7	Dirección del viento	0
59863	7	Sololá	701	Sololá	1	Sololá	11	Noviembre	2023-11-19T00:00:00	2024-11-08T13:00:00	1	Precipitación	0
59864	7	Sololá	701	Sololá	1	Sololá	11	Noviembre	2023-11-19T00:00:00	2024-11-08T13:00:00	8	Radiación solar	304
59865	7	Sololá	701	Sololá	1	Sololá	11	Noviembre	2023-11-19T00:00:00	2024-11-08T14:00:00	2	Temperatura media	20.2
59866	7	Sololá	701	Sololá	1	Sololá	11	Noviembre	2023-11-19T00:00:00	2024-11-08T14:00:00	4	Temperatura máxima	20.2
59867	7	Sololá	701	Sololá	1	Sololá	11	Noviembre	2023-11-19T00:00:00	2024-11-08T14:00:00	3	Temperatura mínima	19
59868	7	Sololá	701	Sololá	1	Sololá	11	Noviembre	2023-11-19T00:00:00	2024-11-08T14:00:00	5	Humedad	78
59869	7	Sololá	701	Sololá	1	Sololá	11	Noviembre	2023-11-19T00:00:00	2024-11-08T14:00:00	6	Velocidad del viento	0
59870	7	Sololá	701	Sololá	1	Sololá	11	Noviembre	2023-11-19T00:00:00	2024-11-08T14:00:00	7	Dirección del viento	0
59871	7	Sololá	701	Sololá	1	Sololá	11	Noviembre	2023-11-19T00:00:00	2024-11-08T14:00:00	1	Precipitación	0
59872	7	Sololá	701	Sololá	1	Sololá	11	Noviembre	2023-11-19T00:00:00	2024-11-08T14:00:00	8	Radiación solar	301
59873	7	Sololá	701	Sololá	1	Sololá	11	Noviembre	2023-11-19T00:00:00	2024-11-08T15:00:00	2	Temperatura media	16.9
59874	7	Sololá	701	Sololá	1	Sololá	11	Noviembre	2023-11-19T00:00:00	2024-11-08T15:00:00	4	Temperatura máxima	20.2
59875	7	Sololá	701	Sololá	1	Sololá	11	Noviembre	2023-11-19T00:00:00	2024-11-08T15:00:00	3	Temperatura mínima	16.9
59876	7	Sololá	701	Sololá	1	Sololá	11	Noviembre	2023-11-19T00:00:00	2024-11-08T15:00:00	5	Humedad	89
59877	7	Sololá	701	Sololá	1	Sololá	11	Noviembre	2023-11-19T00:00:00	2024-11-08T15:00:00	6	Velocidad del viento	0
59878	7	Sololá	701	Sololá	1	Sololá	11	Noviembre	2023-11-19T00:00:00	2024-11-08T15:00:00	7	Dirección del viento	0
59879	7	Sololá	701	Sololá	1	Sololá	11	Noviembre	2023-11-19T00:00:00	2024-11-08T15:00:00	1	Precipitación	0
59880	7	Sololá	701	Sololá	1	Sololá	11	Noviembre	2023-11-19T00:00:00	2024-11-08T15:00:00	8	Radiación solar	79
59881	7	Sololá	701	Sololá	1	Sololá	11	Noviembre	2023-11-19T00:00:00	2024-11-08T16:00:00	2	Temperatura media	16.3
59882	7	Sololá	701	Sololá	1	Sololá	11	Noviembre	2023-11-19T00:00:00	2024-11-08T16:00:00	4	Temperatura máxima	16.9
59883	7	Sololá	701	Sololá	1	Sololá	11	Noviembre	2023-11-19T00:00:00	2024-11-08T16:00:00	3	Temperatura mínima	16.3
59884	7	Sololá	701	Sololá	1	Sololá	11	Noviembre	2023-11-19T00:00:00	2024-11-08T16:00:00	5	Humedad	92
59885	7	Sololá	701	Sololá	1	Sololá	11	Noviembre	2023-11-19T00:00:00	2024-11-08T16:00:00	6	Velocidad del viento	0
59886	7	Sololá	701	Sololá	1	Sololá	11	Noviembre	2023-11-19T00:00:00	2024-11-08T16:00:00	7	Dirección del viento	0
59887	7	Sololá	701	Sololá	1	Sololá	11	Noviembre	2023-11-19T00:00:00	2024-11-08T16:00:00	1	Precipitación	0
59888	7	Sololá	701	Sololá	1	Sololá	11	Noviembre	2023-11-19T00:00:00	2024-11-08T16:00:00	8	Radiación solar	45
59889	7	Sololá	701	Sololá	1	Sololá	11	Noviembre	2023-11-19T00:00:00	2024-11-08T17:00:00	2	Temperatura media	15.8
59890	7	Sololá	701	Sololá	1	Sololá	11	Noviembre	2023-11-19T00:00:00	2024-11-08T17:00:00	4	Temperatura máxima	16.4
59891	7	Sololá	701	Sololá	1	Sololá	11	Noviembre	2023-11-19T00:00:00	2024-11-08T17:00:00	3	Temperatura mínima	15.8
59892	7	Sololá	701	Sololá	1	Sololá	11	Noviembre	2023-11-19T00:00:00	2024-11-08T17:00:00	5	Humedad	93
59893	7	Sololá	701	Sololá	1	Sololá	11	Noviembre	2023-11-19T00:00:00	2024-11-08T17:00:00	6	Velocidad del viento	0
59894	7	Sololá	701	Sololá	1	Sololá	11	Noviembre	2023-11-19T00:00:00	2024-11-08T17:00:00	7	Dirección del viento	0
59895	7	Sololá	701	Sololá	1	Sololá	11	Noviembre	2023-11-19T00:00:00	2024-11-08T17:00:00	1	Precipitación	0
59896	7	Sololá	701	Sololá	1	Sololá	11	Noviembre	2023-11-19T00:00:00	2024-11-08T17:00:00	8	Radiación solar	13
59897	7	Sololá	701	Sololá	1	Sololá	11	Noviembre	2023-11-19T00:00:00	2024-11-08T18:00:00	2	Temperatura media	15.5
59898	7	Sololá	701	Sololá	1	Sololá	11	Noviembre	2023-11-19T00:00:00	2024-11-08T18:00:00	4	Temperatura máxima	15.9
59899	7	Sololá	701	Sololá	1	Sololá	11	Noviembre	2023-11-19T00:00:00	2024-11-08T18:00:00	3	Temperatura mínima	15.5
59900	7	Sololá	701	Sololá	1	Sololá	11	Noviembre	2023-11-19T00:00:00	2024-11-08T18:00:00	5	Humedad	94
59901	7	Sololá	701	Sololá	1	Sololá	11	Noviembre	2023-11-19T00:00:00	2024-11-08T18:00:00	6	Velocidad del viento	0
59902	7	Sololá	701	Sololá	1	Sololá	11	Noviembre	2023-11-19T00:00:00	2024-11-08T18:00:00	7	Dirección del viento	0
59903	7	Sololá	701	Sololá	1	Sololá	11	Noviembre	2023-11-19T00:00:00	2024-11-08T18:00:00	1	Precipitación	0
59904	7	Sololá	701	Sololá	1	Sololá	11	Noviembre	2023-11-19T00:00:00	2024-11-08T18:00:00	8	Radiación solar	1
59905	7	Sololá	701	Sololá	1	Sololá	11	Noviembre	2023-11-19T00:00:00	2024-11-08T19:00:00	2	Temperatura media	15.2
59906	7	Sololá	701	Sololá	1	Sololá	11	Noviembre	2023-11-19T00:00:00	2024-11-08T19:00:00	4	Temperatura máxima	15.5
59907	7	Sololá	701	Sololá	1	Sololá	11	Noviembre	2023-11-19T00:00:00	2024-11-08T19:00:00	3	Temperatura mínima	15.2
59908	7	Sololá	701	Sololá	1	Sololá	11	Noviembre	2023-11-19T00:00:00	2024-11-08T19:00:00	5	Humedad	94
59909	7	Sololá	701	Sololá	1	Sololá	11	Noviembre	2023-11-19T00:00:00	2024-11-08T19:00:00	6	Velocidad del viento	0
59910	7	Sololá	701	Sololá	1	Sololá	11	Noviembre	2023-11-19T00:00:00	2024-11-08T19:00:00	7	Dirección del viento	0
59911	7	Sololá	701	Sololá	1	Sololá	11	Noviembre	2023-11-19T00:00:00	2024-11-08T19:00:00	1	Precipitación	0
59912	7	Sololá	701	Sololá	1	Sololá	11	Noviembre	2023-11-19T00:00:00	2024-11-08T19:00:00	8	Radiación solar	0
59913	7	Sololá	701	Sololá	1	Sololá	11	Noviembre	2023-11-19T00:00:00	2024-11-08T20:00:00	2	Temperatura media	15
59914	7	Sololá	701	Sololá	1	Sololá	11	Noviembre	2023-11-19T00:00:00	2024-11-08T20:00:00	4	Temperatura máxima	15.3
59915	7	Sololá	701	Sololá	1	Sololá	11	Noviembre	2023-11-19T00:00:00	2024-11-08T20:00:00	3	Temperatura mínima	14.9
59916	7	Sololá	701	Sololá	1	Sololá	11	Noviembre	2023-11-19T00:00:00	2024-11-08T20:00:00	5	Humedad	94
59917	7	Sololá	701	Sololá	1	Sololá	11	Noviembre	2023-11-19T00:00:00	2024-11-08T20:00:00	6	Velocidad del viento	0
59918	7	Sololá	701	Sololá	1	Sololá	11	Noviembre	2023-11-19T00:00:00	2024-11-08T20:00:00	7	Dirección del viento	0
59919	7	Sololá	701	Sololá	1	Sololá	11	Noviembre	2023-11-19T00:00:00	2024-11-08T20:00:00	1	Precipitación	0
59920	7	Sololá	701	Sololá	1	Sololá	11	Noviembre	2023-11-19T00:00:00	2024-11-08T20:00:00	8	Radiación solar	0
59921	7	Sololá	701	Sololá	1	Sololá	11	Noviembre	2023-11-19T00:00:00	2024-11-08T21:00:00	2	Temperatura media	14.7
59922	7	Sololá	701	Sololá	1	Sololá	11	Noviembre	2023-11-19T00:00:00	2024-11-08T21:00:00	4	Temperatura máxima	15.1
59923	7	Sololá	701	Sololá	1	Sololá	11	Noviembre	2023-11-19T00:00:00	2024-11-08T21:00:00	3	Temperatura mínima	14.7
59924	7	Sololá	701	Sololá	1	Sololá	11	Noviembre	2023-11-19T00:00:00	2024-11-08T21:00:00	5	Humedad	94
59925	7	Sololá	701	Sololá	1	Sololá	11	Noviembre	2023-11-19T00:00:00	2024-11-08T21:00:00	6	Velocidad del viento	0
59926	7	Sololá	701	Sololá	1	Sololá	11	Noviembre	2023-11-19T00:00:00	2024-11-08T21:00:00	7	Dirección del viento	0
59927	7	Sololá	701	Sololá	1	Sololá	11	Noviembre	2023-11-19T00:00:00	2024-11-08T21:00:00	1	Precipitación	0
59928	7	Sololá	701	Sololá	1	Sololá	11	Noviembre	2023-11-19T00:00:00	2024-11-08T21:00:00	8	Radiación solar	0
59929	7	Sololá	701	Sololá	1	Sololá	11	Noviembre	2023-11-19T00:00:00	2024-11-08T22:00:00	2	Temperatura media	14.3
59930	7	Sololá	701	Sololá	1	Sololá	11	Noviembre	2023-11-19T00:00:00	2024-11-08T22:00:00	4	Temperatura máxima	14.7
59931	7	Sololá	701	Sololá	1	Sololá	11	Noviembre	2023-11-19T00:00:00	2024-11-08T22:00:00	3	Temperatura mínima	14.3
59932	7	Sololá	701	Sololá	1	Sololá	11	Noviembre	2023-11-19T00:00:00	2024-11-08T22:00:00	5	Humedad	94
59933	7	Sololá	701	Sololá	1	Sololá	11	Noviembre	2023-11-19T00:00:00	2024-11-08T22:00:00	6	Velocidad del viento	0
59934	7	Sololá	701	Sololá	1	Sololá	11	Noviembre	2023-11-19T00:00:00	2024-11-08T22:00:00	7	Dirección del viento	0
59935	7	Sololá	701	Sololá	1	Sololá	11	Noviembre	2023-11-19T00:00:00	2024-11-08T22:00:00	1	Precipitación	0
59936	7	Sololá	701	Sololá	1	Sololá	11	Noviembre	2023-11-19T00:00:00	2024-11-08T22:00:00	8	Radiación solar	0
59937	7	Sololá	701	Sololá	1	Sololá	11	Noviembre	2023-11-19T00:00:00	2024-11-08T23:00:00	2	Temperatura media	14.2
59938	7	Sololá	701	Sololá	1	Sololá	11	Noviembre	2023-11-19T00:00:00	2024-11-08T23:00:00	4	Temperatura máxima	14.3
59939	7	Sololá	701	Sololá	1	Sololá	11	Noviembre	2023-11-19T00:00:00	2024-11-08T23:00:00	3	Temperatura mínima	14.1
59940	7	Sololá	701	Sololá	1	Sololá	11	Noviembre	2023-11-19T00:00:00	2024-11-08T23:00:00	5	Humedad	94
59941	7	Sololá	701	Sololá	1	Sololá	11	Noviembre	2023-11-19T00:00:00	2024-11-08T23:00:00	6	Velocidad del viento	0
59942	7	Sololá	701	Sololá	1	Sololá	11	Noviembre	2023-11-19T00:00:00	2024-11-08T23:00:00	7	Dirección del viento	0
59943	7	Sololá	701	Sololá	1	Sololá	11	Noviembre	2023-11-19T00:00:00	2024-11-08T23:00:00	1	Precipitación	0
59944	7	Sololá	701	Sololá	1	Sololá	11	Noviembre	2023-11-19T00:00:00	2024-11-08T23:00:00	8	Radiación solar	0
59945	7	Sololá	701	Sololá	1	Sololá	11	Noviembre	2023-11-20T00:00:00	2024-11-08T00:00:00	2	Temperatura media	13.8
59946	7	Sololá	701	Sololá	1	Sololá	11	Noviembre	2023-11-20T00:00:00	2024-11-08T00:00:00	4	Temperatura máxima	14.2
59947	7	Sololá	701	Sololá	1	Sololá	11	Noviembre	2023-11-20T00:00:00	2024-11-08T00:00:00	3	Temperatura mínima	13.8
59948	7	Sololá	701	Sololá	1	Sololá	11	Noviembre	2023-11-20T00:00:00	2024-11-08T00:00:00	5	Humedad	94
59949	7	Sololá	701	Sololá	1	Sololá	11	Noviembre	2023-11-20T00:00:00	2024-11-08T00:00:00	6	Velocidad del viento	0
59950	7	Sololá	701	Sololá	1	Sololá	11	Noviembre	2023-11-20T00:00:00	2024-11-08T00:00:00	7	Dirección del viento	0
59951	7	Sololá	701	Sololá	1	Sololá	11	Noviembre	2023-11-20T00:00:00	2024-11-08T00:00:00	1	Precipitación	0
59952	7	Sololá	701	Sololá	1	Sololá	11	Noviembre	2023-11-20T00:00:00	2024-11-08T00:00:00	8	Radiación solar	0
59953	7	Sololá	701	Sololá	1	Sololá	11	Noviembre	2023-11-20T00:00:00	2024-11-08T01:00:00	2	Temperatura media	13.5
59954	7	Sololá	701	Sololá	1	Sololá	11	Noviembre	2023-11-20T00:00:00	2024-11-08T01:00:00	4	Temperatura máxima	13.8
59955	7	Sololá	701	Sololá	1	Sololá	11	Noviembre	2023-11-20T00:00:00	2024-11-08T01:00:00	3	Temperatura mínima	13.3
59956	7	Sololá	701	Sololá	1	Sololá	11	Noviembre	2023-11-20T00:00:00	2024-11-08T01:00:00	5	Humedad	87
59957	7	Sololá	701	Sololá	1	Sololá	11	Noviembre	2023-11-20T00:00:00	2024-11-08T01:00:00	6	Velocidad del viento	1.6
59958	7	Sololá	701	Sololá	1	Sololá	11	Noviembre	2023-11-20T00:00:00	2024-11-08T01:00:00	7	Dirección del viento	1.61
59959	7	Sololá	701	Sololá	1	Sololá	11	Noviembre	2023-11-20T00:00:00	2024-11-08T01:00:00	1	Precipitación	0
59960	7	Sololá	701	Sololá	1	Sololá	11	Noviembre	2023-11-20T00:00:00	2024-11-08T01:00:00	8	Radiación solar	0
59961	7	Sololá	701	Sololá	1	Sololá	11	Noviembre	2023-11-20T00:00:00	2024-11-08T02:00:00	2	Temperatura media	13
59962	7	Sololá	701	Sololá	1	Sololá	11	Noviembre	2023-11-20T00:00:00	2024-11-08T02:00:00	4	Temperatura máxima	13.6
59963	7	Sololá	701	Sololá	1	Sololá	11	Noviembre	2023-11-20T00:00:00	2024-11-08T02:00:00	3	Temperatura mínima	12.9
59964	7	Sololá	701	Sololá	1	Sololá	11	Noviembre	2023-11-20T00:00:00	2024-11-08T02:00:00	5	Humedad	87
59965	7	Sololá	701	Sololá	1	Sololá	11	Noviembre	2023-11-20T00:00:00	2024-11-08T02:00:00	6	Velocidad del viento	0
59966	7	Sololá	701	Sololá	1	Sololá	11	Noviembre	2023-11-20T00:00:00	2024-11-08T02:00:00	7	Dirección del viento	0
59967	7	Sololá	701	Sololá	1	Sololá	11	Noviembre	2023-11-20T00:00:00	2024-11-08T02:00:00	1	Precipitación	0
59968	7	Sololá	701	Sololá	1	Sololá	11	Noviembre	2023-11-20T00:00:00	2024-11-08T02:00:00	8	Radiación solar	0
59969	7	Sololá	701	Sololá	1	Sololá	11	Noviembre	2023-11-20T00:00:00	2024-11-08T03:00:00	2	Temperatura media	11.9
59970	7	Sololá	701	Sololá	1	Sololá	11	Noviembre	2023-11-20T00:00:00	2024-11-08T03:00:00	4	Temperatura máxima	13
59971	7	Sololá	701	Sololá	1	Sololá	11	Noviembre	2023-11-20T00:00:00	2024-11-08T03:00:00	3	Temperatura mínima	11.9
59972	7	Sololá	701	Sololá	1	Sololá	11	Noviembre	2023-11-20T00:00:00	2024-11-08T03:00:00	5	Humedad	87
59973	7	Sololá	701	Sololá	1	Sololá	11	Noviembre	2023-11-20T00:00:00	2024-11-08T03:00:00	6	Velocidad del viento	1.6
59974	7	Sololá	701	Sololá	1	Sololá	11	Noviembre	2023-11-20T00:00:00	2024-11-08T03:00:00	7	Dirección del viento	1.61
59975	7	Sololá	701	Sololá	1	Sololá	11	Noviembre	2023-11-20T00:00:00	2024-11-08T03:00:00	1	Precipitación	0
59976	7	Sololá	701	Sololá	1	Sololá	11	Noviembre	2023-11-20T00:00:00	2024-11-08T03:00:00	8	Radiación solar	0
59977	7	Sololá	701	Sololá	1	Sololá	11	Noviembre	2023-11-20T00:00:00	2024-11-08T04:00:00	2	Temperatura media	11.2
59978	7	Sololá	701	Sololá	1	Sololá	11	Noviembre	2023-11-20T00:00:00	2024-11-08T04:00:00	4	Temperatura máxima	12
59979	7	Sololá	701	Sololá	1	Sololá	11	Noviembre	2023-11-20T00:00:00	2024-11-08T04:00:00	3	Temperatura mínima	10.8
59980	7	Sololá	701	Sololá	1	Sololá	11	Noviembre	2023-11-20T00:00:00	2024-11-08T04:00:00	5	Humedad	89
59981	7	Sololá	701	Sololá	1	Sololá	11	Noviembre	2023-11-20T00:00:00	2024-11-08T04:00:00	6	Velocidad del viento	3.2
59982	7	Sololá	701	Sololá	1	Sololá	11	Noviembre	2023-11-20T00:00:00	2024-11-08T04:00:00	7	Dirección del viento	3.22
59983	7	Sololá	701	Sololá	1	Sololá	11	Noviembre	2023-11-20T00:00:00	2024-11-08T04:00:00	1	Precipitación	0
59984	7	Sololá	701	Sololá	1	Sololá	11	Noviembre	2023-11-20T00:00:00	2024-11-08T04:00:00	8	Radiación solar	0
59985	7	Sololá	701	Sololá	1	Sololá	11	Noviembre	2023-11-20T00:00:00	2024-11-08T05:00:00	2	Temperatura media	9.8
59986	7	Sololá	701	Sololá	1	Sololá	11	Noviembre	2023-11-20T00:00:00	2024-11-08T05:00:00	4	Temperatura máxima	11.2
59987	7	Sololá	701	Sololá	1	Sololá	11	Noviembre	2023-11-20T00:00:00	2024-11-08T05:00:00	3	Temperatura mínima	9.3
59988	7	Sololá	701	Sololá	1	Sololá	11	Noviembre	2023-11-20T00:00:00	2024-11-08T05:00:00	5	Humedad	86
59989	7	Sololá	701	Sololá	1	Sololá	11	Noviembre	2023-11-20T00:00:00	2024-11-08T05:00:00	6	Velocidad del viento	6.4
59990	7	Sololá	701	Sololá	1	Sololá	11	Noviembre	2023-11-20T00:00:00	2024-11-08T05:00:00	7	Dirección del viento	6.44
59991	7	Sololá	701	Sololá	1	Sololá	11	Noviembre	2023-11-20T00:00:00	2024-11-08T05:00:00	1	Precipitación	0
59992	7	Sololá	701	Sololá	1	Sololá	11	Noviembre	2023-11-20T00:00:00	2024-11-08T05:00:00	8	Radiación solar	0
59993	7	Sololá	701	Sololá	1	Sololá	11	Noviembre	2023-11-20T00:00:00	2024-11-08T06:00:00	2	Temperatura media	10.1
59994	7	Sololá	701	Sololá	1	Sololá	11	Noviembre	2023-11-20T00:00:00	2024-11-08T06:00:00	4	Temperatura máxima	10.1
59995	7	Sololá	701	Sololá	1	Sololá	11	Noviembre	2023-11-20T00:00:00	2024-11-08T06:00:00	3	Temperatura mínima	9.3
59996	7	Sololá	701	Sololá	1	Sololá	11	Noviembre	2023-11-20T00:00:00	2024-11-08T06:00:00	5	Humedad	86
59997	7	Sololá	701	Sololá	1	Sololá	11	Noviembre	2023-11-20T00:00:00	2024-11-08T06:00:00	6	Velocidad del viento	3.2
59998	7	Sololá	701	Sololá	1	Sololá	11	Noviembre	2023-11-20T00:00:00	2024-11-08T06:00:00	7	Dirección del viento	3.22
59999	7	Sololá	701	Sololá	1	Sololá	11	Noviembre	2023-11-20T00:00:00	2024-11-08T06:00:00	1	Precipitación	0
60000	7	Sololá	701	Sololá	1	Sololá	11	Noviembre	2023-11-20T00:00:00	2024-11-08T06:00:00	8	Radiación solar	0
60001	7	Sololá	701	Sololá	1	Sololá	11	Noviembre	2023-11-20T00:00:00	2024-11-08T07:00:00	2	Temperatura media	11.6
60002	7	Sololá	701	Sololá	1	Sololá	11	Noviembre	2023-11-20T00:00:00	2024-11-08T07:00:00	4	Temperatura máxima	11.6
60003	7	Sololá	701	Sololá	1	Sololá	11	Noviembre	2023-11-20T00:00:00	2024-11-08T07:00:00	3	Temperatura mínima	10
60004	7	Sololá	701	Sololá	1	Sololá	11	Noviembre	2023-11-20T00:00:00	2024-11-08T07:00:00	5	Humedad	80
60005	7	Sololá	701	Sololá	1	Sololá	11	Noviembre	2023-11-20T00:00:00	2024-11-08T07:00:00	6	Velocidad del viento	1.6
60006	7	Sololá	701	Sololá	1	Sololá	11	Noviembre	2023-11-20T00:00:00	2024-11-08T07:00:00	7	Dirección del viento	1.61
60007	7	Sololá	701	Sololá	1	Sololá	11	Noviembre	2023-11-20T00:00:00	2024-11-08T07:00:00	1	Precipitación	0
60008	7	Sololá	701	Sololá	1	Sololá	11	Noviembre	2023-11-20T00:00:00	2024-11-08T07:00:00	8	Radiación solar	15
60009	7	Sololá	701	Sololá	1	Sololá	11	Noviembre	2023-11-20T00:00:00	2024-11-08T08:00:00	2	Temperatura media	15
60010	7	Sololá	701	Sololá	1	Sololá	11	Noviembre	2023-11-20T00:00:00	2024-11-08T08:00:00	4	Temperatura máxima	15
60011	7	Sololá	701	Sololá	1	Sololá	11	Noviembre	2023-11-20T00:00:00	2024-11-08T08:00:00	3	Temperatura mínima	11.6
60012	7	Sololá	701	Sololá	1	Sololá	11	Noviembre	2023-11-20T00:00:00	2024-11-08T08:00:00	5	Humedad	68
60013	7	Sololá	701	Sololá	1	Sololá	11	Noviembre	2023-11-20T00:00:00	2024-11-08T08:00:00	6	Velocidad del viento	1.6
60014	7	Sololá	701	Sololá	1	Sololá	11	Noviembre	2023-11-20T00:00:00	2024-11-08T08:00:00	7	Dirección del viento	1.61
60015	7	Sololá	701	Sololá	1	Sololá	11	Noviembre	2023-11-20T00:00:00	2024-11-08T08:00:00	1	Precipitación	0
60016	7	Sololá	701	Sololá	1	Sololá	11	Noviembre	2023-11-20T00:00:00	2024-11-08T08:00:00	8	Radiación solar	62
60017	7	Sololá	701	Sololá	1	Sololá	11	Noviembre	2023-11-20T00:00:00	2024-11-08T09:00:00	2	Temperatura media	17.1
60018	7	Sololá	701	Sololá	1	Sololá	11	Noviembre	2023-11-20T00:00:00	2024-11-08T09:00:00	4	Temperatura máxima	17.1
60019	7	Sololá	701	Sololá	1	Sololá	11	Noviembre	2023-11-20T00:00:00	2024-11-08T09:00:00	3	Temperatura mínima	15
60020	7	Sololá	701	Sololá	1	Sololá	11	Noviembre	2023-11-20T00:00:00	2024-11-08T09:00:00	5	Humedad	75
60021	7	Sololá	701	Sololá	1	Sololá	11	Noviembre	2023-11-20T00:00:00	2024-11-08T09:00:00	6	Velocidad del viento	1.6
60022	7	Sololá	701	Sololá	1	Sololá	11	Noviembre	2023-11-20T00:00:00	2024-11-08T09:00:00	7	Dirección del viento	1.61
60023	7	Sololá	701	Sololá	1	Sololá	11	Noviembre	2023-11-20T00:00:00	2024-11-08T09:00:00	1	Precipitación	0
60024	7	Sololá	701	Sololá	1	Sololá	11	Noviembre	2023-11-20T00:00:00	2024-11-08T09:00:00	8	Radiación solar	523
60025	7	Sololá	701	Sololá	1	Sololá	11	Noviembre	2023-11-20T00:00:00	2024-11-08T10:00:00	2	Temperatura media	18.1
60026	7	Sololá	701	Sololá	1	Sololá	11	Noviembre	2023-11-20T00:00:00	2024-11-08T10:00:00	4	Temperatura máxima	18.1
60027	7	Sololá	701	Sololá	1	Sololá	11	Noviembre	2023-11-20T00:00:00	2024-11-08T10:00:00	3	Temperatura mínima	16.8
60028	7	Sololá	701	Sololá	1	Sololá	11	Noviembre	2023-11-20T00:00:00	2024-11-08T10:00:00	5	Humedad	74
60029	7	Sololá	701	Sololá	1	Sololá	11	Noviembre	2023-11-20T00:00:00	2024-11-08T10:00:00	6	Velocidad del viento	4.8
60030	7	Sololá	701	Sololá	1	Sololá	11	Noviembre	2023-11-20T00:00:00	2024-11-08T10:00:00	7	Dirección del viento	4.83
60031	7	Sololá	701	Sololá	1	Sololá	11	Noviembre	2023-11-20T00:00:00	2024-11-08T10:00:00	1	Precipitación	0
60032	7	Sololá	701	Sololá	1	Sololá	11	Noviembre	2023-11-20T00:00:00	2024-11-08T10:00:00	8	Radiación solar	749
60033	7	Sololá	701	Sololá	1	Sololá	11	Noviembre	2023-11-20T00:00:00	2024-11-08T11:00:00	2	Temperatura media	18.6
60034	7	Sololá	701	Sololá	1	Sololá	11	Noviembre	2023-11-20T00:00:00	2024-11-08T11:00:00	4	Temperatura máxima	18.8
60035	7	Sololá	701	Sololá	1	Sololá	11	Noviembre	2023-11-20T00:00:00	2024-11-08T11:00:00	3	Temperatura mínima	18.1
60036	7	Sololá	701	Sololá	1	Sololá	11	Noviembre	2023-11-20T00:00:00	2024-11-08T11:00:00	5	Humedad	70
60037	7	Sololá	701	Sololá	1	Sololá	11	Noviembre	2023-11-20T00:00:00	2024-11-08T11:00:00	6	Velocidad del viento	4.8
60038	7	Sololá	701	Sololá	1	Sololá	11	Noviembre	2023-11-20T00:00:00	2024-11-08T11:00:00	7	Dirección del viento	4.83
60039	7	Sololá	701	Sololá	1	Sololá	11	Noviembre	2023-11-20T00:00:00	2024-11-08T11:00:00	1	Precipitación	0
60040	7	Sololá	701	Sololá	1	Sololá	11	Noviembre	2023-11-20T00:00:00	2024-11-08T11:00:00	8	Radiación solar	899
60041	7	Sololá	701	Sololá	1	Sololá	11	Noviembre	2023-11-20T00:00:00	2024-11-08T12:00:00	2	Temperatura media	19.7
60042	7	Sololá	701	Sololá	1	Sololá	11	Noviembre	2023-11-20T00:00:00	2024-11-08T12:00:00	4	Temperatura máxima	19.8
60043	7	Sololá	701	Sololá	1	Sololá	11	Noviembre	2023-11-20T00:00:00	2024-11-08T12:00:00	3	Temperatura mínima	18.4
60044	7	Sololá	701	Sololá	1	Sololá	11	Noviembre	2023-11-20T00:00:00	2024-11-08T12:00:00	5	Humedad	72
60045	7	Sololá	701	Sololá	1	Sololá	11	Noviembre	2023-11-20T00:00:00	2024-11-08T12:00:00	6	Velocidad del viento	4.8
60046	7	Sololá	701	Sololá	1	Sololá	11	Noviembre	2023-11-20T00:00:00	2024-11-08T12:00:00	7	Dirección del viento	4.83
60047	7	Sololá	701	Sololá	1	Sololá	11	Noviembre	2023-11-20T00:00:00	2024-11-08T12:00:00	1	Precipitación	0
60048	7	Sololá	701	Sololá	1	Sololá	11	Noviembre	2023-11-20T00:00:00	2024-11-08T12:00:00	8	Radiación solar	281
60049	7	Sololá	701	Sololá	1	Sololá	11	Noviembre	2023-11-20T00:00:00	2024-11-08T13:00:00	2	Temperatura media	20.1
60050	7	Sololá	701	Sololá	1	Sololá	11	Noviembre	2023-11-20T00:00:00	2024-11-08T13:00:00	4	Temperatura máxima	20.1
60051	7	Sololá	701	Sololá	1	Sololá	11	Noviembre	2023-11-20T00:00:00	2024-11-08T13:00:00	3	Temperatura mínima	19.4
60052	7	Sololá	701	Sololá	1	Sololá	11	Noviembre	2023-11-20T00:00:00	2024-11-08T13:00:00	5	Humedad	74
60053	7	Sololá	701	Sololá	1	Sololá	11	Noviembre	2023-11-20T00:00:00	2024-11-08T13:00:00	6	Velocidad del viento	6.4
60054	7	Sololá	701	Sololá	1	Sololá	11	Noviembre	2023-11-20T00:00:00	2024-11-08T13:00:00	7	Dirección del viento	6.44
60055	7	Sololá	701	Sololá	1	Sololá	11	Noviembre	2023-11-20T00:00:00	2024-11-08T13:00:00	1	Precipitación	0
60056	7	Sololá	701	Sololá	1	Sololá	11	Noviembre	2023-11-20T00:00:00	2024-11-08T13:00:00	8	Radiación solar	123
60057	7	Sololá	701	Sololá	1	Sololá	11	Noviembre	2023-11-20T00:00:00	2024-11-08T14:00:00	2	Temperatura media	18.1
60058	7	Sololá	701	Sololá	1	Sololá	11	Noviembre	2023-11-20T00:00:00	2024-11-08T14:00:00	4	Temperatura máxima	20.1
60059	7	Sololá	701	Sololá	1	Sololá	11	Noviembre	2023-11-20T00:00:00	2024-11-08T14:00:00	3	Temperatura mínima	18
60060	7	Sololá	701	Sololá	1	Sololá	11	Noviembre	2023-11-20T00:00:00	2024-11-08T14:00:00	5	Humedad	85
60061	7	Sololá	701	Sololá	1	Sololá	11	Noviembre	2023-11-20T00:00:00	2024-11-08T14:00:00	6	Velocidad del viento	6.4
60062	7	Sololá	701	Sololá	1	Sololá	11	Noviembre	2023-11-20T00:00:00	2024-11-08T14:00:00	7	Dirección del viento	6.44
60063	7	Sololá	701	Sololá	1	Sololá	11	Noviembre	2023-11-20T00:00:00	2024-11-08T14:00:00	1	Precipitación	0
60064	7	Sololá	701	Sololá	1	Sololá	11	Noviembre	2023-11-20T00:00:00	2024-11-08T14:00:00	8	Radiación solar	178
60065	7	Sololá	701	Sololá	1	Sololá	11	Noviembre	2023-11-20T00:00:00	2024-11-08T15:00:00	2	Temperatura media	18.3
60066	7	Sololá	701	Sololá	1	Sololá	11	Noviembre	2023-11-20T00:00:00	2024-11-08T15:00:00	4	Temperatura máxima	18.4
60067	7	Sololá	701	Sololá	1	Sololá	11	Noviembre	2023-11-20T00:00:00	2024-11-08T15:00:00	3	Temperatura mínima	18
60068	7	Sololá	701	Sololá	1	Sololá	11	Noviembre	2023-11-20T00:00:00	2024-11-08T15:00:00	5	Humedad	85
60069	7	Sololá	701	Sololá	1	Sololá	11	Noviembre	2023-11-20T00:00:00	2024-11-08T15:00:00	6	Velocidad del viento	4.8
60070	7	Sololá	701	Sololá	1	Sololá	11	Noviembre	2023-11-20T00:00:00	2024-11-08T15:00:00	7	Dirección del viento	4.83
60071	7	Sololá	701	Sololá	1	Sololá	11	Noviembre	2023-11-20T00:00:00	2024-11-08T15:00:00	1	Precipitación	0
60072	7	Sololá	701	Sololá	1	Sololá	11	Noviembre	2023-11-20T00:00:00	2024-11-08T15:00:00	8	Radiación solar	251
60073	7	Sololá	701	Sololá	1	Sololá	11	Noviembre	2023-11-20T00:00:00	2024-11-08T16:00:00	2	Temperatura media	17.4
60074	7	Sololá	701	Sololá	1	Sololá	11	Noviembre	2023-11-20T00:00:00	2024-11-08T16:00:00	4	Temperatura máxima	18.3
60075	7	Sololá	701	Sololá	1	Sololá	11	Noviembre	2023-11-20T00:00:00	2024-11-08T16:00:00	3	Temperatura mínima	17.3
60076	7	Sololá	701	Sololá	1	Sololá	11	Noviembre	2023-11-20T00:00:00	2024-11-08T16:00:00	5	Humedad	88
60077	7	Sololá	701	Sololá	1	Sololá	11	Noviembre	2023-11-20T00:00:00	2024-11-08T16:00:00	6	Velocidad del viento	4.8
60078	7	Sololá	701	Sololá	1	Sololá	11	Noviembre	2023-11-20T00:00:00	2024-11-08T16:00:00	7	Dirección del viento	4.83
60079	7	Sololá	701	Sololá	1	Sololá	11	Noviembre	2023-11-20T00:00:00	2024-11-08T16:00:00	1	Precipitación	0
60080	7	Sololá	701	Sololá	1	Sololá	11	Noviembre	2023-11-20T00:00:00	2024-11-08T16:00:00	8	Radiación solar	70
60081	7	Sololá	701	Sololá	1	Sololá	11	Noviembre	2023-11-20T00:00:00	2024-11-08T17:00:00	2	Temperatura media	17.3
60082	7	Sololá	701	Sololá	1	Sololá	11	Noviembre	2023-11-20T00:00:00	2024-11-08T17:00:00	4	Temperatura máxima	17.4
60083	7	Sololá	701	Sololá	1	Sololá	11	Noviembre	2023-11-20T00:00:00	2024-11-08T17:00:00	3	Temperatura mínima	16.8
60084	7	Sololá	701	Sololá	1	Sololá	11	Noviembre	2023-11-20T00:00:00	2024-11-08T17:00:00	5	Humedad	89
60085	7	Sololá	701	Sololá	1	Sololá	11	Noviembre	2023-11-20T00:00:00	2024-11-08T17:00:00	6	Velocidad del viento	3.2
60086	7	Sololá	701	Sololá	1	Sololá	11	Noviembre	2023-11-20T00:00:00	2024-11-08T17:00:00	7	Dirección del viento	3.22
60087	7	Sololá	701	Sololá	1	Sololá	11	Noviembre	2023-11-20T00:00:00	2024-11-08T17:00:00	1	Precipitación	0
60088	7	Sololá	701	Sololá	1	Sololá	11	Noviembre	2023-11-20T00:00:00	2024-11-08T17:00:00	8	Radiación solar	37
60089	7	Sololá	701	Sololá	1	Sololá	11	Noviembre	2023-11-20T00:00:00	2024-11-08T18:00:00	2	Temperatura media	16.3
60090	7	Sololá	701	Sololá	1	Sololá	11	Noviembre	2023-11-20T00:00:00	2024-11-08T18:00:00	4	Temperatura máxima	17.3
60091	7	Sololá	701	Sololá	1	Sololá	11	Noviembre	2023-11-20T00:00:00	2024-11-08T18:00:00	3	Temperatura mínima	16.3
60092	7	Sololá	701	Sololá	1	Sololá	11	Noviembre	2023-11-20T00:00:00	2024-11-08T18:00:00	5	Humedad	92
60093	7	Sololá	701	Sololá	1	Sololá	11	Noviembre	2023-11-20T00:00:00	2024-11-08T18:00:00	6	Velocidad del viento	1.6
60094	7	Sololá	701	Sololá	1	Sololá	11	Noviembre	2023-11-20T00:00:00	2024-11-08T18:00:00	7	Dirección del viento	1.61
60095	7	Sololá	701	Sololá	1	Sololá	11	Noviembre	2023-11-20T00:00:00	2024-11-08T18:00:00	1	Precipitación	0
60096	7	Sololá	701	Sololá	1	Sololá	11	Noviembre	2023-11-20T00:00:00	2024-11-08T18:00:00	8	Radiación solar	5
60097	7	Sololá	701	Sololá	1	Sololá	11	Noviembre	2023-11-20T00:00:00	2024-11-08T19:00:00	2	Temperatura media	15.8
60098	7	Sololá	701	Sololá	1	Sololá	11	Noviembre	2023-11-20T00:00:00	2024-11-08T19:00:00	4	Temperatura máxima	16.3
60099	7	Sololá	701	Sololá	1	Sololá	11	Noviembre	2023-11-20T00:00:00	2024-11-08T19:00:00	3	Temperatura mínima	15.8
60100	7	Sololá	701	Sololá	1	Sololá	11	Noviembre	2023-11-20T00:00:00	2024-11-08T19:00:00	5	Humedad	93
60101	7	Sololá	701	Sololá	1	Sololá	11	Noviembre	2023-11-20T00:00:00	2024-11-08T19:00:00	6	Velocidad del viento	1.6
60102	7	Sololá	701	Sololá	1	Sololá	11	Noviembre	2023-11-20T00:00:00	2024-11-08T19:00:00	7	Dirección del viento	1.61
60103	7	Sololá	701	Sololá	1	Sololá	11	Noviembre	2023-11-20T00:00:00	2024-11-08T19:00:00	1	Precipitación	0
60104	7	Sololá	701	Sololá	1	Sololá	11	Noviembre	2023-11-20T00:00:00	2024-11-08T19:00:00	8	Radiación solar	0
60105	7	Sololá	701	Sololá	1	Sololá	11	Noviembre	2023-11-20T00:00:00	2024-11-08T20:00:00	2	Temperatura media	15.2
60106	7	Sololá	701	Sololá	1	Sololá	11	Noviembre	2023-11-20T00:00:00	2024-11-08T20:00:00	4	Temperatura máxima	15.9
60107	7	Sololá	701	Sololá	1	Sololá	11	Noviembre	2023-11-20T00:00:00	2024-11-08T20:00:00	3	Temperatura mínima	15.2
60108	7	Sololá	701	Sololá	1	Sololá	11	Noviembre	2023-11-20T00:00:00	2024-11-08T20:00:00	5	Humedad	90
60109	7	Sololá	701	Sololá	1	Sololá	11	Noviembre	2023-11-20T00:00:00	2024-11-08T20:00:00	6	Velocidad del viento	1.6
60110	7	Sololá	701	Sololá	1	Sololá	11	Noviembre	2023-11-20T00:00:00	2024-11-08T20:00:00	7	Dirección del viento	1.61
60111	7	Sololá	701	Sololá	1	Sololá	11	Noviembre	2023-11-20T00:00:00	2024-11-08T20:00:00	1	Precipitación	0
60112	7	Sololá	701	Sololá	1	Sololá	11	Noviembre	2023-11-20T00:00:00	2024-11-08T20:00:00	8	Radiación solar	0
60113	7	Sololá	701	Sololá	1	Sololá	11	Noviembre	2023-11-20T00:00:00	2024-11-08T21:00:00	2	Temperatura media	14.8
60114	7	Sololá	701	Sololá	1	Sololá	11	Noviembre	2023-11-20T00:00:00	2024-11-08T21:00:00	4	Temperatura máxima	15.2
60115	7	Sololá	701	Sololá	1	Sololá	11	Noviembre	2023-11-20T00:00:00	2024-11-08T21:00:00	3	Temperatura mínima	14.6
60116	7	Sololá	701	Sololá	1	Sololá	11	Noviembre	2023-11-20T00:00:00	2024-11-08T21:00:00	5	Humedad	91
60117	7	Sololá	701	Sololá	1	Sololá	11	Noviembre	2023-11-20T00:00:00	2024-11-08T21:00:00	6	Velocidad del viento	0
60118	7	Sololá	701	Sololá	1	Sololá	11	Noviembre	2023-11-20T00:00:00	2024-11-08T21:00:00	7	Dirección del viento	0
60119	7	Sololá	701	Sololá	1	Sololá	11	Noviembre	2023-11-20T00:00:00	2024-11-08T21:00:00	1	Precipitación	0
60120	7	Sololá	701	Sololá	1	Sololá	11	Noviembre	2023-11-20T00:00:00	2024-11-08T21:00:00	8	Radiación solar	0
60121	7	Sololá	701	Sololá	1	Sololá	11	Noviembre	2023-11-20T00:00:00	2024-11-08T22:00:00	2	Temperatura media	14.9
60122	7	Sololá	701	Sololá	1	Sololá	11	Noviembre	2023-11-20T00:00:00	2024-11-08T22:00:00	4	Temperatura máxima	14.9
60123	7	Sololá	701	Sololá	1	Sololá	11	Noviembre	2023-11-20T00:00:00	2024-11-08T22:00:00	3	Temperatura mínima	14.5
60124	7	Sololá	701	Sololá	1	Sololá	11	Noviembre	2023-11-20T00:00:00	2024-11-08T22:00:00	5	Humedad	85
60125	7	Sololá	701	Sololá	1	Sololá	11	Noviembre	2023-11-20T00:00:00	2024-11-08T22:00:00	6	Velocidad del viento	1.6
60126	7	Sololá	701	Sololá	1	Sololá	11	Noviembre	2023-11-20T00:00:00	2024-11-08T22:00:00	7	Dirección del viento	1.61
60127	7	Sololá	701	Sololá	1	Sololá	11	Noviembre	2023-11-20T00:00:00	2024-11-08T22:00:00	1	Precipitación	0
60128	7	Sololá	701	Sololá	1	Sololá	11	Noviembre	2023-11-20T00:00:00	2024-11-08T22:00:00	8	Radiación solar	0
60129	7	Sololá	701	Sololá	1	Sololá	11	Noviembre	2023-11-20T00:00:00	2024-11-08T23:00:00	2	Temperatura media	14.8
60130	7	Sololá	701	Sololá	1	Sololá	11	Noviembre	2023-11-20T00:00:00	2024-11-08T23:00:00	4	Temperatura máxima	14.9
60131	7	Sololá	701	Sololá	1	Sololá	11	Noviembre	2023-11-20T00:00:00	2024-11-08T23:00:00	3	Temperatura mínima	14.8
60132	7	Sololá	701	Sololá	1	Sololá	11	Noviembre	2023-11-20T00:00:00	2024-11-08T23:00:00	5	Humedad	82
60133	7	Sololá	701	Sololá	1	Sololá	11	Noviembre	2023-11-20T00:00:00	2024-11-08T23:00:00	6	Velocidad del viento	4.8
60134	7	Sololá	701	Sololá	1	Sololá	11	Noviembre	2023-11-20T00:00:00	2024-11-08T23:00:00	7	Dirección del viento	4.83
60135	7	Sololá	701	Sololá	1	Sololá	11	Noviembre	2023-11-20T00:00:00	2024-11-08T23:00:00	1	Precipitación	0
60136	7	Sololá	701	Sololá	1	Sololá	11	Noviembre	2023-11-20T00:00:00	2024-11-08T23:00:00	8	Radiación solar	0
60137	7	Sololá	701	Sololá	1	Sololá	11	Noviembre	2023-11-21T00:00:00	2024-11-08T00:00:00	2	Temperatura media	14.4
60138	7	Sololá	701	Sololá	1	Sololá	11	Noviembre	2023-11-21T00:00:00	2024-11-08T00:00:00	4	Temperatura máxima	14.8
60139	7	Sololá	701	Sololá	1	Sololá	11	Noviembre	2023-11-21T00:00:00	2024-11-08T00:00:00	3	Temperatura mínima	14.4
60140	7	Sololá	701	Sololá	1	Sololá	11	Noviembre	2023-11-21T00:00:00	2024-11-08T00:00:00	5	Humedad	81
60141	7	Sololá	701	Sololá	1	Sololá	11	Noviembre	2023-11-21T00:00:00	2024-11-08T00:00:00	6	Velocidad del viento	4.8
60142	7	Sololá	701	Sololá	1	Sololá	11	Noviembre	2023-11-21T00:00:00	2024-11-08T00:00:00	7	Dirección del viento	4.83
60143	7	Sololá	701	Sololá	1	Sololá	11	Noviembre	2023-11-21T00:00:00	2024-11-08T00:00:00	1	Precipitación	0
60144	7	Sololá	701	Sololá	1	Sololá	11	Noviembre	2023-11-21T00:00:00	2024-11-08T00:00:00	8	Radiación solar	0
60145	7	Sololá	701	Sololá	1	Sololá	11	Noviembre	2023-11-21T00:00:00	2024-11-08T01:00:00	2	Temperatura media	13.7
60146	7	Sololá	701	Sololá	1	Sololá	11	Noviembre	2023-11-21T00:00:00	2024-11-08T01:00:00	4	Temperatura máxima	14.5
60147	7	Sololá	701	Sololá	1	Sololá	11	Noviembre	2023-11-21T00:00:00	2024-11-08T01:00:00	3	Temperatura mínima	13.7
60148	7	Sololá	701	Sololá	1	Sololá	11	Noviembre	2023-11-21T00:00:00	2024-11-08T01:00:00	5	Humedad	83
60149	7	Sololá	701	Sololá	1	Sololá	11	Noviembre	2023-11-21T00:00:00	2024-11-08T01:00:00	6	Velocidad del viento	6.4
60150	7	Sololá	701	Sololá	1	Sololá	11	Noviembre	2023-11-21T00:00:00	2024-11-08T01:00:00	7	Dirección del viento	6.44
60151	7	Sololá	701	Sololá	1	Sololá	11	Noviembre	2023-11-21T00:00:00	2024-11-08T01:00:00	1	Precipitación	0
60152	7	Sololá	701	Sololá	1	Sololá	11	Noviembre	2023-11-21T00:00:00	2024-11-08T01:00:00	8	Radiación solar	0
60153	7	Sololá	701	Sololá	1	Sololá	11	Noviembre	2023-11-21T00:00:00	2024-11-08T02:00:00	2	Temperatura media	13.6
60154	7	Sololá	701	Sololá	1	Sololá	11	Noviembre	2023-11-21T00:00:00	2024-11-08T02:00:00	4	Temperatura máxima	13.6
60155	7	Sololá	701	Sololá	1	Sololá	11	Noviembre	2023-11-21T00:00:00	2024-11-08T02:00:00	3	Temperatura mínima	13
60156	7	Sololá	701	Sololá	1	Sololá	11	Noviembre	2023-11-21T00:00:00	2024-11-08T02:00:00	5	Humedad	86
60157	7	Sololá	701	Sololá	1	Sololá	11	Noviembre	2023-11-21T00:00:00	2024-11-08T02:00:00	6	Velocidad del viento	3.2
60158	7	Sololá	701	Sololá	1	Sololá	11	Noviembre	2023-11-21T00:00:00	2024-11-08T02:00:00	7	Dirección del viento	3.22
60159	7	Sololá	701	Sololá	1	Sololá	11	Noviembre	2023-11-21T00:00:00	2024-11-08T02:00:00	1	Precipitación	0
60160	7	Sololá	701	Sololá	1	Sololá	11	Noviembre	2023-11-21T00:00:00	2024-11-08T02:00:00	8	Radiación solar	0
60161	7	Sololá	701	Sololá	1	Sololá	11	Noviembre	2023-11-21T00:00:00	2024-11-08T03:00:00	2	Temperatura media	12.1
60162	7	Sololá	701	Sololá	1	Sololá	11	Noviembre	2023-11-21T00:00:00	2024-11-08T03:00:00	4	Temperatura máxima	13.9
60163	7	Sololá	701	Sololá	1	Sololá	11	Noviembre	2023-11-21T00:00:00	2024-11-08T03:00:00	3	Temperatura mínima	12.1
60164	7	Sololá	701	Sololá	1	Sololá	11	Noviembre	2023-11-21T00:00:00	2024-11-08T03:00:00	5	Humedad	83
60165	7	Sololá	701	Sololá	1	Sololá	11	Noviembre	2023-11-21T00:00:00	2024-11-08T03:00:00	6	Velocidad del viento	4.8
60166	7	Sololá	701	Sololá	1	Sololá	11	Noviembre	2023-11-21T00:00:00	2024-11-08T03:00:00	7	Dirección del viento	4.83
60167	7	Sololá	701	Sololá	1	Sololá	11	Noviembre	2023-11-21T00:00:00	2024-11-08T03:00:00	1	Precipitación	0
60168	7	Sololá	701	Sololá	1	Sololá	11	Noviembre	2023-11-21T00:00:00	2024-11-08T03:00:00	8	Radiación solar	0
60169	7	Sololá	701	Sololá	1	Sololá	11	Noviembre	2023-11-21T00:00:00	2024-11-08T04:00:00	2	Temperatura media	11.2
60170	7	Sololá	701	Sololá	1	Sololá	11	Noviembre	2023-11-21T00:00:00	2024-11-08T04:00:00	4	Temperatura máxima	12.1
60171	7	Sololá	701	Sololá	1	Sololá	11	Noviembre	2023-11-21T00:00:00	2024-11-08T04:00:00	3	Temperatura mínima	10.3
60172	7	Sololá	701	Sololá	1	Sololá	11	Noviembre	2023-11-21T00:00:00	2024-11-08T04:00:00	5	Humedad	79
60173	7	Sololá	701	Sololá	1	Sololá	11	Noviembre	2023-11-21T00:00:00	2024-11-08T04:00:00	6	Velocidad del viento	4.8
60174	7	Sololá	701	Sololá	1	Sololá	11	Noviembre	2023-11-21T00:00:00	2024-11-08T04:00:00	7	Dirección del viento	4.83
60175	7	Sololá	701	Sololá	1	Sololá	11	Noviembre	2023-11-21T00:00:00	2024-11-08T04:00:00	1	Precipitación	0
60176	7	Sololá	701	Sololá	1	Sololá	11	Noviembre	2023-11-21T00:00:00	2024-11-08T04:00:00	8	Radiación solar	0
60177	7	Sololá	701	Sololá	1	Sololá	11	Noviembre	2023-11-21T00:00:00	2024-11-08T05:00:00	2	Temperatura media	11.1
60178	7	Sololá	701	Sololá	1	Sololá	11	Noviembre	2023-11-21T00:00:00	2024-11-08T05:00:00	4	Temperatura máxima	11.6
60179	7	Sololá	701	Sololá	1	Sololá	11	Noviembre	2023-11-21T00:00:00	2024-11-08T05:00:00	3	Temperatura mínima	10.9
60180	7	Sololá	701	Sololá	1	Sololá	11	Noviembre	2023-11-21T00:00:00	2024-11-08T05:00:00	5	Humedad	70
60181	7	Sololá	701	Sololá	1	Sololá	11	Noviembre	2023-11-21T00:00:00	2024-11-08T05:00:00	6	Velocidad del viento	1.6
60182	7	Sololá	701	Sololá	1	Sololá	11	Noviembre	2023-11-21T00:00:00	2024-11-08T05:00:00	7	Dirección del viento	1.61
60183	7	Sololá	701	Sololá	1	Sololá	11	Noviembre	2023-11-21T00:00:00	2024-11-08T05:00:00	1	Precipitación	0
60184	7	Sololá	701	Sololá	1	Sololá	11	Noviembre	2023-11-21T00:00:00	2024-11-08T05:00:00	8	Radiación solar	0
60185	7	Sololá	701	Sololá	1	Sololá	11	Noviembre	2023-11-21T00:00:00	2024-11-08T06:00:00	2	Temperatura media	10.6
60186	7	Sololá	701	Sololá	1	Sololá	11	Noviembre	2023-11-21T00:00:00	2024-11-08T06:00:00	4	Temperatura máxima	11.1
60187	7	Sololá	701	Sololá	1	Sololá	11	Noviembre	2023-11-21T00:00:00	2024-11-08T06:00:00	3	Temperatura mínima	10.6
60188	7	Sololá	701	Sololá	1	Sololá	11	Noviembre	2023-11-21T00:00:00	2024-11-08T06:00:00	5	Humedad	78
60189	7	Sololá	701	Sololá	1	Sololá	11	Noviembre	2023-11-21T00:00:00	2024-11-08T06:00:00	6	Velocidad del viento	0
60190	7	Sololá	701	Sololá	1	Sololá	11	Noviembre	2023-11-21T00:00:00	2024-11-08T06:00:00	7	Dirección del viento	0
60191	7	Sololá	701	Sololá	1	Sololá	11	Noviembre	2023-11-21T00:00:00	2024-11-08T06:00:00	1	Precipitación	0
60192	7	Sololá	701	Sololá	1	Sololá	11	Noviembre	2023-11-21T00:00:00	2024-11-08T06:00:00	8	Radiación solar	0
60193	7	Sololá	701	Sololá	1	Sololá	11	Noviembre	2023-11-21T00:00:00	2024-11-08T07:00:00	2	Temperatura media	12.4
60194	7	Sololá	701	Sololá	1	Sololá	11	Noviembre	2023-11-21T00:00:00	2024-11-08T07:00:00	4	Temperatura máxima	12.4
60195	7	Sololá	701	Sololá	1	Sololá	11	Noviembre	2023-11-21T00:00:00	2024-11-08T07:00:00	3	Temperatura mínima	10.3
60196	7	Sololá	701	Sololá	1	Sololá	11	Noviembre	2023-11-21T00:00:00	2024-11-08T07:00:00	5	Humedad	67
60197	7	Sololá	701	Sololá	1	Sololá	11	Noviembre	2023-11-21T00:00:00	2024-11-08T07:00:00	6	Velocidad del viento	1.6
60198	7	Sololá	701	Sololá	1	Sololá	11	Noviembre	2023-11-21T00:00:00	2024-11-08T07:00:00	7	Dirección del viento	1.61
60199	7	Sololá	701	Sololá	1	Sololá	11	Noviembre	2023-11-21T00:00:00	2024-11-08T07:00:00	1	Precipitación	0
60200	7	Sololá	701	Sololá	1	Sololá	11	Noviembre	2023-11-21T00:00:00	2024-11-08T07:00:00	8	Radiación solar	27
60201	7	Sololá	701	Sololá	1	Sololá	11	Noviembre	2023-11-21T00:00:00	2024-11-08T08:00:00	2	Temperatura media	15.5
60202	7	Sololá	701	Sololá	1	Sololá	11	Noviembre	2023-11-21T00:00:00	2024-11-08T08:00:00	4	Temperatura máxima	15.5
60203	7	Sololá	701	Sololá	1	Sololá	11	Noviembre	2023-11-21T00:00:00	2024-11-08T08:00:00	3	Temperatura mínima	12.4
60204	7	Sololá	701	Sololá	1	Sololá	11	Noviembre	2023-11-21T00:00:00	2024-11-08T08:00:00	5	Humedad	60
60205	7	Sololá	701	Sololá	1	Sololá	11	Noviembre	2023-11-21T00:00:00	2024-11-08T08:00:00	6	Velocidad del viento	0
60206	7	Sololá	701	Sololá	1	Sololá	11	Noviembre	2023-11-21T00:00:00	2024-11-08T08:00:00	7	Dirección del viento	0
60207	7	Sololá	701	Sololá	1	Sololá	11	Noviembre	2023-11-21T00:00:00	2024-11-08T08:00:00	1	Precipitación	0
60208	7	Sololá	701	Sololá	1	Sololá	11	Noviembre	2023-11-21T00:00:00	2024-11-08T08:00:00	8	Radiación solar	124
60209	7	Sololá	701	Sololá	1	Sololá	11	Noviembre	2023-11-21T00:00:00	2024-11-08T09:00:00	2	Temperatura media	17.1
60210	7	Sololá	701	Sololá	1	Sololá	11	Noviembre	2023-11-21T00:00:00	2024-11-08T09:00:00	4	Temperatura máxima	17.1
60211	7	Sololá	701	Sololá	1	Sololá	11	Noviembre	2023-11-21T00:00:00	2024-11-08T09:00:00	3	Temperatura mínima	15.5
60212	7	Sololá	701	Sololá	1	Sololá	11	Noviembre	2023-11-21T00:00:00	2024-11-08T09:00:00	5	Humedad	80
60213	7	Sololá	701	Sololá	1	Sololá	11	Noviembre	2023-11-21T00:00:00	2024-11-08T09:00:00	6	Velocidad del viento	1.6
60214	7	Sololá	701	Sololá	1	Sololá	11	Noviembre	2023-11-21T00:00:00	2024-11-08T09:00:00	7	Dirección del viento	1.61
60215	7	Sololá	701	Sololá	1	Sololá	11	Noviembre	2023-11-21T00:00:00	2024-11-08T09:00:00	1	Precipitación	0
60216	7	Sololá	701	Sololá	1	Sololá	11	Noviembre	2023-11-21T00:00:00	2024-11-08T09:00:00	8	Radiación solar	279
60217	7	Sololá	701	Sololá	1	Sololá	11	Noviembre	2023-11-21T00:00:00	2024-11-08T10:00:00	2	Temperatura media	18.4
60218	7	Sololá	701	Sololá	1	Sololá	11	Noviembre	2023-11-21T00:00:00	2024-11-08T10:00:00	4	Temperatura máxima	18.4
60219	7	Sololá	701	Sololá	1	Sololá	11	Noviembre	2023-11-21T00:00:00	2024-11-08T10:00:00	3	Temperatura mínima	17.1
60220	7	Sololá	701	Sololá	1	Sololá	11	Noviembre	2023-11-21T00:00:00	2024-11-08T10:00:00	5	Humedad	80
60221	7	Sololá	701	Sololá	1	Sololá	11	Noviembre	2023-11-21T00:00:00	2024-11-08T10:00:00	6	Velocidad del viento	3.2
60222	7	Sololá	701	Sololá	1	Sololá	11	Noviembre	2023-11-21T00:00:00	2024-11-08T10:00:00	7	Dirección del viento	3.22
60223	7	Sololá	701	Sololá	1	Sololá	11	Noviembre	2023-11-21T00:00:00	2024-11-08T10:00:00	1	Precipitación	0
60224	7	Sololá	701	Sololá	1	Sololá	11	Noviembre	2023-11-21T00:00:00	2024-11-08T10:00:00	8	Radiación solar	577
60225	7	Sololá	701	Sololá	1	Sololá	11	Noviembre	2023-11-21T00:00:00	2024-11-08T11:00:00	2	Temperatura media	19.1
60226	7	Sololá	701	Sololá	1	Sololá	11	Noviembre	2023-11-21T00:00:00	2024-11-08T11:00:00	4	Temperatura máxima	19.4
60227	7	Sololá	701	Sololá	1	Sololá	11	Noviembre	2023-11-21T00:00:00	2024-11-08T11:00:00	3	Temperatura mínima	18.4
60228	7	Sololá	701	Sololá	1	Sololá	11	Noviembre	2023-11-21T00:00:00	2024-11-08T11:00:00	5	Humedad	77
60229	7	Sololá	701	Sololá	1	Sololá	11	Noviembre	2023-11-21T00:00:00	2024-11-08T11:00:00	6	Velocidad del viento	4.8
60230	7	Sololá	701	Sololá	1	Sololá	11	Noviembre	2023-11-21T00:00:00	2024-11-08T11:00:00	7	Dirección del viento	4.83
60231	7	Sololá	701	Sololá	1	Sololá	11	Noviembre	2023-11-21T00:00:00	2024-11-08T11:00:00	1	Precipitación	0
60232	7	Sololá	701	Sololá	1	Sololá	11	Noviembre	2023-11-21T00:00:00	2024-11-08T11:00:00	8	Radiación solar	524
60233	7	Sololá	701	Sololá	1	Sololá	11	Noviembre	2023-11-21T00:00:00	2024-11-08T12:00:00	2	Temperatura media	19.8
60234	7	Sololá	701	Sololá	1	Sololá	11	Noviembre	2023-11-21T00:00:00	2024-11-08T12:00:00	4	Temperatura máxima	19.8
60235	7	Sololá	701	Sololá	1	Sololá	11	Noviembre	2023-11-21T00:00:00	2024-11-08T12:00:00	3	Temperatura mínima	19.2
60236	7	Sololá	701	Sololá	1	Sololá	11	Noviembre	2023-11-21T00:00:00	2024-11-08T12:00:00	5	Humedad	77
60237	7	Sololá	701	Sololá	1	Sololá	11	Noviembre	2023-11-21T00:00:00	2024-11-08T12:00:00	6	Velocidad del viento	6.4
60238	7	Sololá	701	Sololá	1	Sololá	11	Noviembre	2023-11-21T00:00:00	2024-11-08T12:00:00	7	Dirección del viento	6.44
60239	7	Sololá	701	Sololá	1	Sololá	11	Noviembre	2023-11-21T00:00:00	2024-11-08T12:00:00	1	Precipitación	0
60240	7	Sololá	701	Sololá	1	Sololá	11	Noviembre	2023-11-21T00:00:00	2024-11-08T12:00:00	8	Radiación solar	552
60241	7	Sololá	701	Sololá	1	Sololá	11	Noviembre	2023-11-21T00:00:00	2024-11-08T13:00:00	2	Temperatura media	19.8
60242	7	Sololá	701	Sololá	1	Sololá	11	Noviembre	2023-11-21T00:00:00	2024-11-08T13:00:00	4	Temperatura máxima	20.5
60243	7	Sololá	701	Sololá	1	Sololá	11	Noviembre	2023-11-21T00:00:00	2024-11-08T13:00:00	3	Temperatura mínima	19.5
60244	7	Sololá	701	Sololá	1	Sololá	11	Noviembre	2023-11-21T00:00:00	2024-11-08T13:00:00	5	Humedad	80
60245	7	Sololá	701	Sololá	1	Sololá	11	Noviembre	2023-11-21T00:00:00	2024-11-08T13:00:00	6	Velocidad del viento	4.8
60246	7	Sololá	701	Sololá	1	Sololá	11	Noviembre	2023-11-21T00:00:00	2024-11-08T13:00:00	7	Dirección del viento	4.83
60247	7	Sololá	701	Sololá	1	Sololá	11	Noviembre	2023-11-21T00:00:00	2024-11-08T13:00:00	1	Precipitación	0
60248	7	Sololá	701	Sololá	1	Sololá	11	Noviembre	2023-11-21T00:00:00	2024-11-08T13:00:00	8	Radiación solar	343
60249	7	Sololá	701	Sololá	1	Sololá	11	Noviembre	2023-11-21T00:00:00	2024-11-08T14:00:00	2	Temperatura media	20.1
60250	7	Sololá	701	Sololá	1	Sololá	11	Noviembre	2023-11-21T00:00:00	2024-11-08T14:00:00	4	Temperatura máxima	20.7
60251	7	Sololá	701	Sololá	1	Sololá	11	Noviembre	2023-11-21T00:00:00	2024-11-08T14:00:00	3	Temperatura mínima	19.8
60252	7	Sololá	701	Sololá	1	Sololá	11	Noviembre	2023-11-21T00:00:00	2024-11-08T14:00:00	5	Humedad	82
60253	7	Sololá	701	Sololá	1	Sololá	11	Noviembre	2023-11-21T00:00:00	2024-11-08T14:00:00	6	Velocidad del viento	6.4
60254	7	Sololá	701	Sololá	1	Sololá	11	Noviembre	2023-11-21T00:00:00	2024-11-08T14:00:00	7	Dirección del viento	6.44
60255	7	Sololá	701	Sololá	1	Sololá	11	Noviembre	2023-11-21T00:00:00	2024-11-08T14:00:00	1	Precipitación	0
60256	7	Sololá	701	Sololá	1	Sololá	11	Noviembre	2023-11-21T00:00:00	2024-11-08T14:00:00	8	Radiación solar	180
60257	7	Sololá	701	Sololá	1	Sololá	11	Noviembre	2023-11-21T00:00:00	2024-11-08T15:00:00	2	Temperatura media	19.7
60258	7	Sololá	701	Sololá	1	Sololá	11	Noviembre	2023-11-21T00:00:00	2024-11-08T15:00:00	4	Temperatura máxima	20.1
60259	7	Sololá	701	Sololá	1	Sololá	11	Noviembre	2023-11-21T00:00:00	2024-11-08T15:00:00	3	Temperatura mínima	19.2
60260	7	Sololá	701	Sololá	1	Sololá	11	Noviembre	2023-11-21T00:00:00	2024-11-08T15:00:00	5	Humedad	84
60261	7	Sololá	701	Sololá	1	Sololá	11	Noviembre	2023-11-21T00:00:00	2024-11-08T15:00:00	6	Velocidad del viento	4.8
60262	7	Sololá	701	Sololá	1	Sololá	11	Noviembre	2023-11-21T00:00:00	2024-11-08T15:00:00	7	Dirección del viento	4.83
60263	7	Sololá	701	Sololá	1	Sololá	11	Noviembre	2023-11-21T00:00:00	2024-11-08T15:00:00	1	Precipitación	0
60264	7	Sololá	701	Sololá	1	Sololá	11	Noviembre	2023-11-21T00:00:00	2024-11-08T15:00:00	8	Radiación solar	57
60265	7	Sololá	701	Sololá	1	Sololá	11	Noviembre	2023-11-21T00:00:00	2024-11-08T16:00:00	2	Temperatura media	18.9
60266	7	Sololá	701	Sololá	1	Sololá	11	Noviembre	2023-11-21T00:00:00	2024-11-08T16:00:00	4	Temperatura máxima	20.1
60267	7	Sololá	701	Sololá	1	Sololá	11	Noviembre	2023-11-21T00:00:00	2024-11-08T16:00:00	3	Temperatura mínima	18.9
60268	7	Sololá	701	Sololá	1	Sololá	11	Noviembre	2023-11-21T00:00:00	2024-11-08T16:00:00	5	Humedad	86
60269	7	Sololá	701	Sololá	1	Sololá	11	Noviembre	2023-11-21T00:00:00	2024-11-08T16:00:00	6	Velocidad del viento	4.8
60270	7	Sololá	701	Sololá	1	Sololá	11	Noviembre	2023-11-21T00:00:00	2024-11-08T16:00:00	7	Dirección del viento	4.83
60271	7	Sololá	701	Sololá	1	Sololá	11	Noviembre	2023-11-21T00:00:00	2024-11-08T16:00:00	1	Precipitación	0
60272	7	Sololá	701	Sololá	1	Sololá	11	Noviembre	2023-11-21T00:00:00	2024-11-08T16:00:00	8	Radiación solar	35
60273	7	Sololá	701	Sololá	1	Sololá	11	Noviembre	2023-11-21T00:00:00	2024-11-08T17:00:00	2	Temperatura media	19.9
60274	7	Sololá	701	Sololá	1	Sololá	11	Noviembre	2023-11-21T00:00:00	2024-11-08T17:00:00	4	Temperatura máxima	20.8
60275	7	Sololá	701	Sololá	1	Sololá	11	Noviembre	2023-11-21T00:00:00	2024-11-08T17:00:00	3	Temperatura mínima	18.8
60276	7	Sololá	701	Sololá	1	Sololá	11	Noviembre	2023-11-21T00:00:00	2024-11-08T17:00:00	5	Humedad	56
60277	7	Sololá	701	Sololá	1	Sololá	11	Noviembre	2023-11-21T00:00:00	2024-11-08T17:00:00	6	Velocidad del viento	9.7
60278	7	Sololá	701	Sololá	1	Sololá	11	Noviembre	2023-11-21T00:00:00	2024-11-08T17:00:00	7	Dirección del viento	9.66
60279	7	Sololá	701	Sololá	1	Sololá	11	Noviembre	2023-11-21T00:00:00	2024-11-08T17:00:00	1	Precipitación	0
60280	7	Sololá	701	Sololá	1	Sololá	11	Noviembre	2023-11-21T00:00:00	2024-11-08T17:00:00	8	Radiación solar	53
60281	7	Sololá	701	Sololá	1	Sololá	11	Noviembre	2023-11-21T00:00:00	2024-11-08T18:00:00	2	Temperatura media	17.4
60282	7	Sololá	701	Sololá	1	Sololá	11	Noviembre	2023-11-21T00:00:00	2024-11-08T18:00:00	4	Temperatura máxima	19.9
60283	7	Sololá	701	Sololá	1	Sololá	11	Noviembre	2023-11-21T00:00:00	2024-11-08T18:00:00	3	Temperatura mínima	17.4
60284	7	Sololá	701	Sololá	1	Sololá	11	Noviembre	2023-11-21T00:00:00	2024-11-08T18:00:00	5	Humedad	63
60285	7	Sololá	701	Sololá	1	Sololá	11	Noviembre	2023-11-21T00:00:00	2024-11-08T18:00:00	6	Velocidad del viento	11.3
60286	7	Sololá	701	Sololá	1	Sololá	11	Noviembre	2023-11-21T00:00:00	2024-11-08T18:00:00	7	Dirección del viento	11.27
60287	7	Sololá	701	Sololá	1	Sololá	11	Noviembre	2023-11-21T00:00:00	2024-11-08T18:00:00	1	Precipitación	0
60288	7	Sololá	701	Sololá	1	Sololá	11	Noviembre	2023-11-21T00:00:00	2024-11-08T18:00:00	8	Radiación solar	0
60289	7	Sololá	701	Sololá	1	Sololá	11	Noviembre	2023-11-21T00:00:00	2024-11-08T19:00:00	2	Temperatura media	16.1
60290	7	Sololá	701	Sololá	1	Sololá	11	Noviembre	2023-11-21T00:00:00	2024-11-08T19:00:00	4	Temperatura máxima	17.4
60291	7	Sololá	701	Sololá	1	Sololá	11	Noviembre	2023-11-21T00:00:00	2024-11-08T19:00:00	3	Temperatura mínima	16.1
60292	7	Sololá	701	Sololá	1	Sololá	11	Noviembre	2023-11-21T00:00:00	2024-11-08T19:00:00	5	Humedad	64
60293	7	Sololá	701	Sololá	1	Sololá	11	Noviembre	2023-11-21T00:00:00	2024-11-08T19:00:00	6	Velocidad del viento	9.7
60294	7	Sololá	701	Sololá	1	Sololá	11	Noviembre	2023-11-21T00:00:00	2024-11-08T19:00:00	7	Dirección del viento	9.66
60295	7	Sololá	701	Sololá	1	Sololá	11	Noviembre	2023-11-21T00:00:00	2024-11-08T19:00:00	1	Precipitación	0
60296	7	Sololá	701	Sololá	1	Sololá	11	Noviembre	2023-11-21T00:00:00	2024-11-08T19:00:00	8	Radiación solar	0
60297	7	Sololá	701	Sololá	1	Sololá	11	Noviembre	2023-11-21T00:00:00	2024-11-08T20:00:00	2	Temperatura media	15.2
60298	7	Sololá	701	Sololá	1	Sololá	11	Noviembre	2023-11-21T00:00:00	2024-11-08T20:00:00	4	Temperatura máxima	16.1
60299	7	Sololá	701	Sololá	1	Sololá	11	Noviembre	2023-11-21T00:00:00	2024-11-08T20:00:00	3	Temperatura mínima	15.2
60300	7	Sololá	701	Sololá	1	Sololá	11	Noviembre	2023-11-21T00:00:00	2024-11-08T20:00:00	5	Humedad	73
60301	7	Sololá	701	Sololá	1	Sololá	11	Noviembre	2023-11-21T00:00:00	2024-11-08T20:00:00	6	Velocidad del viento	9.7
60302	7	Sololá	701	Sololá	1	Sololá	11	Noviembre	2023-11-21T00:00:00	2024-11-08T20:00:00	7	Dirección del viento	9.66
60303	7	Sololá	701	Sololá	1	Sololá	11	Noviembre	2023-11-21T00:00:00	2024-11-08T20:00:00	1	Precipitación	0
60304	7	Sololá	701	Sololá	1	Sololá	11	Noviembre	2023-11-21T00:00:00	2024-11-08T20:00:00	8	Radiación solar	0
60305	7	Sololá	701	Sololá	1	Sololá	11	Noviembre	2023-11-21T00:00:00	2024-11-08T21:00:00	2	Temperatura media	15
60306	7	Sololá	701	Sololá	1	Sololá	11	Noviembre	2023-11-21T00:00:00	2024-11-08T21:00:00	4	Temperatura máxima	15.2
60307	7	Sololá	701	Sololá	1	Sololá	11	Noviembre	2023-11-21T00:00:00	2024-11-08T21:00:00	3	Temperatura mínima	14.9
60308	7	Sololá	701	Sololá	1	Sololá	11	Noviembre	2023-11-21T00:00:00	2024-11-08T21:00:00	5	Humedad	75
60309	7	Sololá	701	Sololá	1	Sololá	11	Noviembre	2023-11-21T00:00:00	2024-11-08T21:00:00	6	Velocidad del viento	12.9
60310	7	Sololá	701	Sololá	1	Sololá	11	Noviembre	2023-11-21T00:00:00	2024-11-08T21:00:00	7	Dirección del viento	12.87
60311	7	Sololá	701	Sololá	1	Sololá	11	Noviembre	2023-11-21T00:00:00	2024-11-08T21:00:00	1	Precipitación	0
60312	7	Sololá	701	Sololá	1	Sololá	11	Noviembre	2023-11-21T00:00:00	2024-11-08T21:00:00	8	Radiación solar	0
60313	7	Sololá	701	Sololá	1	Sololá	11	Noviembre	2023-11-21T00:00:00	2024-11-08T22:00:00	2	Temperatura media	14.8
60314	7	Sololá	701	Sololá	1	Sololá	11	Noviembre	2023-11-21T00:00:00	2024-11-08T22:00:00	4	Temperatura máxima	15.1
60315	7	Sololá	701	Sololá	1	Sololá	11	Noviembre	2023-11-21T00:00:00	2024-11-08T22:00:00	3	Temperatura mínima	14.8
60316	7	Sololá	701	Sololá	1	Sololá	11	Noviembre	2023-11-21T00:00:00	2024-11-08T22:00:00	5	Humedad	73
60317	7	Sololá	701	Sololá	1	Sololá	11	Noviembre	2023-11-21T00:00:00	2024-11-08T22:00:00	6	Velocidad del viento	12.9
60318	7	Sololá	701	Sololá	1	Sololá	11	Noviembre	2023-11-21T00:00:00	2024-11-08T22:00:00	7	Dirección del viento	12.87
60319	7	Sololá	701	Sololá	1	Sololá	11	Noviembre	2023-11-21T00:00:00	2024-11-08T22:00:00	1	Precipitación	0
60320	7	Sololá	701	Sololá	1	Sololá	11	Noviembre	2023-11-21T00:00:00	2024-11-08T22:00:00	8	Radiación solar	0
60321	7	Sololá	701	Sololá	1	Sololá	11	Noviembre	2023-11-21T00:00:00	2024-11-08T23:00:00	2	Temperatura media	14.2
60322	7	Sololá	701	Sololá	1	Sololá	11	Noviembre	2023-11-21T00:00:00	2024-11-08T23:00:00	4	Temperatura máxima	14.9
60323	7	Sololá	701	Sololá	1	Sololá	11	Noviembre	2023-11-21T00:00:00	2024-11-08T23:00:00	3	Temperatura mínima	14.1
60324	7	Sololá	701	Sololá	1	Sololá	11	Noviembre	2023-11-21T00:00:00	2024-11-08T23:00:00	5	Humedad	75
60325	7	Sololá	701	Sololá	1	Sololá	11	Noviembre	2023-11-21T00:00:00	2024-11-08T23:00:00	6	Velocidad del viento	3.2
60326	7	Sololá	701	Sololá	1	Sololá	11	Noviembre	2023-11-21T00:00:00	2024-11-08T23:00:00	7	Dirección del viento	3.22
60327	7	Sololá	701	Sololá	1	Sololá	11	Noviembre	2023-11-21T00:00:00	2024-11-08T23:00:00	1	Precipitación	0
60328	7	Sololá	701	Sololá	1	Sololá	11	Noviembre	2023-11-21T00:00:00	2024-11-08T23:00:00	8	Radiación solar	0
60329	7	Sololá	701	Sololá	1	Sololá	11	Noviembre	2023-11-22T00:00:00	2024-11-08T00:00:00	2	Temperatura media	14.2
60330	7	Sololá	701	Sololá	1	Sololá	11	Noviembre	2023-11-22T00:00:00	2024-11-08T00:00:00	4	Temperatura máxima	14.7
60331	7	Sololá	701	Sololá	1	Sololá	11	Noviembre	2023-11-22T00:00:00	2024-11-08T00:00:00	3	Temperatura mínima	14.1
60332	7	Sololá	701	Sololá	1	Sololá	11	Noviembre	2023-11-22T00:00:00	2024-11-08T00:00:00	5	Humedad	69
60333	7	Sololá	701	Sololá	1	Sololá	11	Noviembre	2023-11-22T00:00:00	2024-11-08T00:00:00	6	Velocidad del viento	3.2
60334	7	Sololá	701	Sololá	1	Sololá	11	Noviembre	2023-11-22T00:00:00	2024-11-08T00:00:00	7	Dirección del viento	3.22
60335	7	Sololá	701	Sololá	1	Sololá	11	Noviembre	2023-11-22T00:00:00	2024-11-08T00:00:00	1	Precipitación	0
60336	7	Sololá	701	Sololá	1	Sololá	11	Noviembre	2023-11-22T00:00:00	2024-11-08T00:00:00	8	Radiación solar	0
60337	7	Sololá	701	Sololá	1	Sololá	11	Noviembre	2023-11-22T00:00:00	2024-11-08T01:00:00	2	Temperatura media	15.3
60338	7	Sololá	701	Sololá	1	Sololá	11	Noviembre	2023-11-22T00:00:00	2024-11-08T01:00:00	4	Temperatura máxima	15.3
60339	7	Sololá	701	Sololá	1	Sololá	11	Noviembre	2023-11-22T00:00:00	2024-11-08T01:00:00	3	Temperatura mínima	14.2
60340	7	Sololá	701	Sololá	1	Sololá	11	Noviembre	2023-11-22T00:00:00	2024-11-08T01:00:00	5	Humedad	61
60341	7	Sololá	701	Sololá	1	Sololá	11	Noviembre	2023-11-22T00:00:00	2024-11-08T01:00:00	6	Velocidad del viento	4.8
60342	7	Sololá	701	Sololá	1	Sololá	11	Noviembre	2023-11-22T00:00:00	2024-11-08T01:00:00	7	Dirección del viento	4.83
60343	7	Sololá	701	Sololá	1	Sololá	11	Noviembre	2023-11-22T00:00:00	2024-11-08T01:00:00	1	Precipitación	0
60344	7	Sololá	701	Sololá	1	Sololá	11	Noviembre	2023-11-22T00:00:00	2024-11-08T01:00:00	8	Radiación solar	0
60345	7	Sololá	701	Sololá	1	Sololá	11	Noviembre	2023-11-22T00:00:00	2024-11-08T02:00:00	2	Temperatura media	16.3
60346	7	Sololá	701	Sololá	1	Sololá	11	Noviembre	2023-11-22T00:00:00	2024-11-08T02:00:00	4	Temperatura máxima	16.3
60347	7	Sololá	701	Sololá	1	Sololá	11	Noviembre	2023-11-22T00:00:00	2024-11-08T02:00:00	3	Temperatura mínima	14.9
60348	7	Sololá	701	Sololá	1	Sololá	11	Noviembre	2023-11-22T00:00:00	2024-11-08T02:00:00	5	Humedad	56
60349	7	Sololá	701	Sololá	1	Sololá	11	Noviembre	2023-11-22T00:00:00	2024-11-08T02:00:00	6	Velocidad del viento	11.3
60350	7	Sololá	701	Sololá	1	Sololá	11	Noviembre	2023-11-22T00:00:00	2024-11-08T02:00:00	7	Dirección del viento	11.27
60351	7	Sololá	701	Sololá	1	Sololá	11	Noviembre	2023-11-22T00:00:00	2024-11-08T02:00:00	1	Precipitación	0
60352	7	Sololá	701	Sololá	1	Sololá	11	Noviembre	2023-11-22T00:00:00	2024-11-08T02:00:00	8	Radiación solar	0
60353	7	Sololá	701	Sololá	1	Sololá	11	Noviembre	2023-11-22T00:00:00	2024-11-08T03:00:00	2	Temperatura media	16.3
60354	7	Sololá	701	Sololá	1	Sololá	11	Noviembre	2023-11-22T00:00:00	2024-11-08T03:00:00	4	Temperatura máxima	16.4
60355	7	Sololá	701	Sololá	1	Sololá	11	Noviembre	2023-11-22T00:00:00	2024-11-08T03:00:00	3	Temperatura mínima	15.9
60356	7	Sololá	701	Sololá	1	Sololá	11	Noviembre	2023-11-22T00:00:00	2024-11-08T03:00:00	5	Humedad	65
60357	7	Sololá	701	Sololá	1	Sololá	11	Noviembre	2023-11-22T00:00:00	2024-11-08T03:00:00	6	Velocidad del viento	8
60358	7	Sololá	701	Sololá	1	Sololá	11	Noviembre	2023-11-22T00:00:00	2024-11-08T03:00:00	7	Dirección del viento	8.05
60359	7	Sololá	701	Sololá	1	Sololá	11	Noviembre	2023-11-22T00:00:00	2024-11-08T03:00:00	1	Precipitación	0
60360	7	Sololá	701	Sololá	1	Sololá	11	Noviembre	2023-11-22T00:00:00	2024-11-08T03:00:00	8	Radiación solar	0
60361	7	Sololá	701	Sololá	1	Sololá	11	Noviembre	2023-11-22T00:00:00	2024-11-08T04:00:00	2	Temperatura media	16.4
60362	7	Sololá	701	Sololá	1	Sololá	11	Noviembre	2023-11-22T00:00:00	2024-11-08T04:00:00	4	Temperatura máxima	16.4
60363	7	Sololá	701	Sololá	1	Sololá	11	Noviembre	2023-11-22T00:00:00	2024-11-08T04:00:00	3	Temperatura mínima	15.9
60364	7	Sololá	701	Sololá	1	Sololá	11	Noviembre	2023-11-22T00:00:00	2024-11-08T04:00:00	5	Humedad	66
60365	7	Sololá	701	Sololá	1	Sololá	11	Noviembre	2023-11-22T00:00:00	2024-11-08T04:00:00	6	Velocidad del viento	11.3
60366	7	Sololá	701	Sololá	1	Sololá	11	Noviembre	2023-11-22T00:00:00	2024-11-08T04:00:00	7	Dirección del viento	11.27
60367	7	Sololá	701	Sololá	1	Sololá	11	Noviembre	2023-11-22T00:00:00	2024-11-08T04:00:00	1	Precipitación	0
60368	7	Sololá	701	Sololá	1	Sololá	11	Noviembre	2023-11-22T00:00:00	2024-11-08T04:00:00	8	Radiación solar	0
60369	7	Sololá	701	Sololá	1	Sololá	11	Noviembre	2023-11-22T00:00:00	2024-11-08T05:00:00	2	Temperatura media	16.4
60370	7	Sololá	701	Sololá	1	Sololá	11	Noviembre	2023-11-22T00:00:00	2024-11-08T05:00:00	4	Temperatura máxima	16.6
60371	7	Sololá	701	Sololá	1	Sololá	11	Noviembre	2023-11-22T00:00:00	2024-11-08T05:00:00	3	Temperatura mínima	15.9
60372	7	Sololá	701	Sololá	1	Sololá	11	Noviembre	2023-11-22T00:00:00	2024-11-08T05:00:00	5	Humedad	70
60373	7	Sololá	701	Sololá	1	Sololá	11	Noviembre	2023-11-22T00:00:00	2024-11-08T05:00:00	6	Velocidad del viento	6.4
60374	7	Sololá	701	Sololá	1	Sololá	11	Noviembre	2023-11-22T00:00:00	2024-11-08T05:00:00	7	Dirección del viento	6.44
60375	7	Sololá	701	Sololá	1	Sololá	11	Noviembre	2023-11-22T00:00:00	2024-11-08T05:00:00	1	Precipitación	0
60376	7	Sololá	701	Sololá	1	Sololá	11	Noviembre	2023-11-22T00:00:00	2024-11-08T05:00:00	8	Radiación solar	0
60377	7	Sololá	701	Sololá	1	Sololá	11	Noviembre	2023-11-22T00:00:00	2024-11-08T06:00:00	2	Temperatura media	16.7
60378	7	Sololá	701	Sololá	1	Sololá	11	Noviembre	2023-11-22T00:00:00	2024-11-08T06:00:00	4	Temperatura máxima	16.7
60379	7	Sololá	701	Sololá	1	Sololá	11	Noviembre	2023-11-22T00:00:00	2024-11-08T06:00:00	3	Temperatura mínima	16.4
60380	7	Sololá	701	Sololá	1	Sololá	11	Noviembre	2023-11-22T00:00:00	2024-11-08T06:00:00	5	Humedad	69
60381	7	Sololá	701	Sololá	1	Sololá	11	Noviembre	2023-11-22T00:00:00	2024-11-08T06:00:00	6	Velocidad del viento	11.3
60382	7	Sololá	701	Sololá	1	Sololá	11	Noviembre	2023-11-22T00:00:00	2024-11-08T06:00:00	7	Dirección del viento	11.27
60383	7	Sololá	701	Sololá	1	Sololá	11	Noviembre	2023-11-22T00:00:00	2024-11-08T06:00:00	1	Precipitación	0
60384	7	Sololá	701	Sololá	1	Sololá	11	Noviembre	2023-11-22T00:00:00	2024-11-08T06:00:00	8	Radiación solar	0
60385	7	Sololá	701	Sololá	1	Sololá	11	Noviembre	2023-11-22T00:00:00	2024-11-08T07:00:00	2	Temperatura media	17.4
60386	7	Sololá	701	Sololá	1	Sololá	11	Noviembre	2023-11-22T00:00:00	2024-11-08T07:00:00	4	Temperatura máxima	17.4
60387	7	Sololá	701	Sololá	1	Sololá	11	Noviembre	2023-11-22T00:00:00	2024-11-08T07:00:00	3	Temperatura mínima	16.7
60388	7	Sololá	701	Sololá	1	Sololá	11	Noviembre	2023-11-22T00:00:00	2024-11-08T07:00:00	5	Humedad	70
60389	7	Sololá	701	Sololá	1	Sololá	11	Noviembre	2023-11-22T00:00:00	2024-11-08T07:00:00	6	Velocidad del viento	6.4
60390	7	Sololá	701	Sololá	1	Sololá	11	Noviembre	2023-11-22T00:00:00	2024-11-08T07:00:00	7	Dirección del viento	6.44
60391	7	Sololá	701	Sololá	1	Sololá	11	Noviembre	2023-11-22T00:00:00	2024-11-08T07:00:00	1	Precipitación	0
60392	7	Sololá	701	Sololá	1	Sololá	11	Noviembre	2023-11-22T00:00:00	2024-11-08T07:00:00	8	Radiación solar	13
60393	7	Sololá	701	Sololá	1	Sololá	11	Noviembre	2023-11-22T00:00:00	2024-11-08T08:00:00	2	Temperatura media	18.4
60394	7	Sololá	701	Sololá	1	Sololá	11	Noviembre	2023-11-22T00:00:00	2024-11-08T08:00:00	4	Temperatura máxima	18.4
60395	7	Sololá	701	Sololá	1	Sololá	11	Noviembre	2023-11-22T00:00:00	2024-11-08T08:00:00	3	Temperatura mínima	17.4
60396	7	Sololá	701	Sololá	1	Sololá	11	Noviembre	2023-11-22T00:00:00	2024-11-08T08:00:00	5	Humedad	68
60397	7	Sololá	701	Sololá	1	Sololá	11	Noviembre	2023-11-22T00:00:00	2024-11-08T08:00:00	6	Velocidad del viento	11.3
60398	7	Sololá	701	Sololá	1	Sololá	11	Noviembre	2023-11-22T00:00:00	2024-11-08T08:00:00	7	Dirección del viento	11.27
60399	7	Sololá	701	Sololá	1	Sololá	11	Noviembre	2023-11-22T00:00:00	2024-11-08T08:00:00	1	Precipitación	0
60400	7	Sololá	701	Sololá	1	Sololá	11	Noviembre	2023-11-22T00:00:00	2024-11-08T08:00:00	8	Radiación solar	49
60401	7	Sololá	701	Sololá	1	Sololá	11	Noviembre	2023-11-22T00:00:00	2024-11-08T09:00:00	2	Temperatura media	19.8
60402	7	Sololá	701	Sololá	1	Sololá	11	Noviembre	2023-11-22T00:00:00	2024-11-08T09:00:00	4	Temperatura máxima	19.8
60403	7	Sololá	701	Sololá	1	Sololá	11	Noviembre	2023-11-22T00:00:00	2024-11-08T09:00:00	3	Temperatura mínima	18.4
60404	7	Sololá	701	Sololá	1	Sololá	11	Noviembre	2023-11-22T00:00:00	2024-11-08T09:00:00	5	Humedad	65
60405	7	Sololá	701	Sololá	1	Sololá	11	Noviembre	2023-11-22T00:00:00	2024-11-08T09:00:00	6	Velocidad del viento	11.3
60406	7	Sololá	701	Sololá	1	Sololá	11	Noviembre	2023-11-22T00:00:00	2024-11-08T09:00:00	7	Dirección del viento	11.27
60407	7	Sololá	701	Sololá	1	Sololá	11	Noviembre	2023-11-22T00:00:00	2024-11-08T09:00:00	1	Precipitación	0
60408	7	Sololá	701	Sololá	1	Sololá	11	Noviembre	2023-11-22T00:00:00	2024-11-08T09:00:00	8	Radiación solar	549
60409	7	Sololá	701	Sololá	1	Sololá	11	Noviembre	2023-11-22T00:00:00	2024-11-08T10:00:00	2	Temperatura media	19.8
60410	7	Sololá	701	Sololá	1	Sololá	11	Noviembre	2023-11-22T00:00:00	2024-11-08T10:00:00	4	Temperatura máxima	20.3
60411	7	Sololá	701	Sololá	1	Sololá	11	Noviembre	2023-11-22T00:00:00	2024-11-08T10:00:00	3	Temperatura mínima	19.6
60412	7	Sololá	701	Sololá	1	Sololá	11	Noviembre	2023-11-22T00:00:00	2024-11-08T10:00:00	5	Humedad	65
60413	7	Sololá	701	Sololá	1	Sololá	11	Noviembre	2023-11-22T00:00:00	2024-11-08T10:00:00	6	Velocidad del viento	16.1
60414	7	Sololá	701	Sololá	1	Sololá	11	Noviembre	2023-11-22T00:00:00	2024-11-08T10:00:00	7	Dirección del viento	16.09
60415	7	Sololá	701	Sololá	1	Sololá	11	Noviembre	2023-11-22T00:00:00	2024-11-08T10:00:00	1	Precipitación	0
60416	7	Sololá	701	Sololá	1	Sololá	11	Noviembre	2023-11-22T00:00:00	2024-11-08T10:00:00	8	Radiación solar	758
60417	7	Sololá	701	Sololá	1	Sololá	11	Noviembre	2023-11-22T00:00:00	2024-11-08T11:00:00	2	Temperatura media	23.1
60418	7	Sololá	701	Sololá	1	Sololá	11	Noviembre	2023-11-22T00:00:00	2024-11-08T11:00:00	4	Temperatura máxima	23.1
60419	7	Sololá	701	Sololá	1	Sololá	11	Noviembre	2023-11-22T00:00:00	2024-11-08T11:00:00	3	Temperatura mínima	23
60420	7	Sololá	701	Sololá	1	Sololá	11	Noviembre	2023-11-22T00:00:00	2024-11-08T11:00:00	5	Humedad	60
60421	7	Sololá	701	Sololá	1	Sololá	11	Noviembre	2023-11-22T00:00:00	2024-11-08T11:00:00	6	Velocidad del viento	0
60422	7	Sololá	701	Sololá	1	Sololá	11	Noviembre	2023-11-22T00:00:00	2024-11-08T11:00:00	7	Dirección del viento	0
60423	7	Sololá	701	Sololá	1	Sololá	11	Noviembre	2023-11-22T00:00:00	2024-11-08T11:00:00	1	Precipitación	0
60424	7	Sololá	701	Sololá	1	Sololá	11	Noviembre	2023-11-22T00:00:00	2024-11-08T11:00:00	8	Radiación solar	893
60425	7	Sololá	701	Sololá	1	Sololá	11	Noviembre	2023-11-22T00:00:00	2024-11-08T12:00:00	2	Temperatura media	23.7
60426	7	Sololá	701	Sololá	1	Sololá	11	Noviembre	2023-11-22T00:00:00	2024-11-08T12:00:00	4	Temperatura máxima	23.7
60427	7	Sololá	701	Sololá	1	Sololá	11	Noviembre	2023-11-22T00:00:00	2024-11-08T12:00:00	3	Temperatura mínima	22.9
60428	7	Sololá	701	Sololá	1	Sololá	11	Noviembre	2023-11-22T00:00:00	2024-11-08T12:00:00	5	Humedad	57
60429	7	Sololá	701	Sololá	1	Sololá	11	Noviembre	2023-11-22T00:00:00	2024-11-08T12:00:00	6	Velocidad del viento	0
60430	7	Sololá	701	Sololá	1	Sololá	11	Noviembre	2023-11-22T00:00:00	2024-11-08T12:00:00	7	Dirección del viento	0
60431	7	Sololá	701	Sololá	1	Sololá	11	Noviembre	2023-11-22T00:00:00	2024-11-08T12:00:00	1	Precipitación	0
60432	7	Sololá	701	Sololá	1	Sololá	11	Noviembre	2023-11-22T00:00:00	2024-11-08T12:00:00	8	Radiación solar	886
60433	7	Sololá	701	Sololá	1	Sololá	11	Noviembre	2023-11-22T00:00:00	2024-11-08T13:00:00	2	Temperatura media	24.3
60434	7	Sololá	701	Sololá	1	Sololá	11	Noviembre	2023-11-22T00:00:00	2024-11-08T13:00:00	4	Temperatura máxima	24.4
60435	7	Sololá	701	Sololá	1	Sololá	11	Noviembre	2023-11-22T00:00:00	2024-11-08T13:00:00	3	Temperatura mínima	23.3
60436	7	Sololá	701	Sololá	1	Sololá	11	Noviembre	2023-11-22T00:00:00	2024-11-08T13:00:00	5	Humedad	56
60437	7	Sololá	701	Sololá	1	Sololá	11	Noviembre	2023-11-22T00:00:00	2024-11-08T13:00:00	6	Velocidad del viento	0
60438	7	Sololá	701	Sololá	1	Sololá	11	Noviembre	2023-11-22T00:00:00	2024-11-08T13:00:00	7	Dirección del viento	0
60439	7	Sololá	701	Sololá	1	Sololá	11	Noviembre	2023-11-22T00:00:00	2024-11-08T13:00:00	1	Precipitación	0
60440	7	Sololá	701	Sololá	1	Sololá	11	Noviembre	2023-11-22T00:00:00	2024-11-08T13:00:00	8	Radiación solar	848
60441	7	Sololá	701	Sololá	1	Sololá	11	Noviembre	2023-11-22T00:00:00	2024-11-08T14:00:00	2	Temperatura media	23.2
60442	7	Sololá	701	Sololá	1	Sololá	11	Noviembre	2023-11-22T00:00:00	2024-11-08T14:00:00	4	Temperatura máxima	24.4
60443	7	Sololá	701	Sololá	1	Sololá	11	Noviembre	2023-11-22T00:00:00	2024-11-08T14:00:00	3	Temperatura mínima	22.6
60444	7	Sololá	701	Sololá	1	Sololá	11	Noviembre	2023-11-22T00:00:00	2024-11-08T14:00:00	5	Humedad	61
60445	7	Sololá	701	Sololá	1	Sololá	11	Noviembre	2023-11-22T00:00:00	2024-11-08T14:00:00	6	Velocidad del viento	0
60446	7	Sololá	701	Sololá	1	Sololá	11	Noviembre	2023-11-22T00:00:00	2024-11-08T14:00:00	7	Dirección del viento	0
60447	7	Sololá	701	Sololá	1	Sololá	11	Noviembre	2023-11-22T00:00:00	2024-11-08T14:00:00	1	Precipitación	0
60448	7	Sololá	701	Sololá	1	Sololá	11	Noviembre	2023-11-22T00:00:00	2024-11-08T14:00:00	8	Radiación solar	708
60449	7	Sololá	701	Sololá	1	Sololá	11	Noviembre	2023-11-22T00:00:00	2024-11-08T15:00:00	2	Temperatura media	22.1
60450	7	Sololá	701	Sololá	1	Sololá	11	Noviembre	2023-11-22T00:00:00	2024-11-08T15:00:00	4	Temperatura máxima	23.7
60451	7	Sololá	701	Sololá	1	Sololá	11	Noviembre	2023-11-22T00:00:00	2024-11-08T15:00:00	3	Temperatura mínima	22
60452	7	Sololá	701	Sololá	1	Sololá	11	Noviembre	2023-11-22T00:00:00	2024-11-08T15:00:00	5	Humedad	64
60453	7	Sololá	701	Sololá	1	Sololá	11	Noviembre	2023-11-22T00:00:00	2024-11-08T15:00:00	6	Velocidad del viento	0
60454	7	Sololá	701	Sololá	1	Sololá	11	Noviembre	2023-11-22T00:00:00	2024-11-08T15:00:00	7	Dirección del viento	0
60455	7	Sololá	701	Sololá	1	Sololá	11	Noviembre	2023-11-22T00:00:00	2024-11-08T15:00:00	1	Precipitación	0
60456	7	Sololá	701	Sololá	1	Sololá	11	Noviembre	2023-11-22T00:00:00	2024-11-08T15:00:00	8	Radiación solar	199
60457	7	Sololá	701	Sololá	1	Sololá	11	Noviembre	2023-11-22T00:00:00	2024-11-08T16:00:00	2	Temperatura media	21
60458	7	Sololá	701	Sololá	1	Sololá	11	Noviembre	2023-11-22T00:00:00	2024-11-08T16:00:00	4	Temperatura máxima	22.1
60459	7	Sololá	701	Sololá	1	Sololá	11	Noviembre	2023-11-22T00:00:00	2024-11-08T16:00:00	3	Temperatura mínima	21
60460	7	Sololá	701	Sololá	1	Sololá	11	Noviembre	2023-11-22T00:00:00	2024-11-08T16:00:00	5	Humedad	65
60461	7	Sololá	701	Sololá	1	Sololá	11	Noviembre	2023-11-22T00:00:00	2024-11-08T16:00:00	6	Velocidad del viento	0
60462	7	Sololá	701	Sololá	1	Sololá	11	Noviembre	2023-11-22T00:00:00	2024-11-08T16:00:00	7	Dirección del viento	0
60463	7	Sololá	701	Sololá	1	Sololá	11	Noviembre	2023-11-22T00:00:00	2024-11-08T16:00:00	1	Precipitación	0
60464	7	Sololá	701	Sololá	1	Sololá	11	Noviembre	2023-11-22T00:00:00	2024-11-08T16:00:00	8	Radiación solar	81
60465	7	Sololá	701	Sololá	1	Sololá	11	Noviembre	2023-11-22T00:00:00	2024-11-08T17:00:00	2	Temperatura media	18.8
60466	7	Sololá	701	Sololá	1	Sololá	11	Noviembre	2023-11-22T00:00:00	2024-11-08T17:00:00	4	Temperatura máxima	21.1
60467	7	Sololá	701	Sololá	1	Sololá	11	Noviembre	2023-11-22T00:00:00	2024-11-08T17:00:00	3	Temperatura mínima	18.8
60468	7	Sololá	701	Sololá	1	Sololá	11	Noviembre	2023-11-22T00:00:00	2024-11-08T17:00:00	5	Humedad	72
60469	7	Sololá	701	Sololá	1	Sololá	11	Noviembre	2023-11-22T00:00:00	2024-11-08T17:00:00	6	Velocidad del viento	0
60470	7	Sololá	701	Sololá	1	Sololá	11	Noviembre	2023-11-22T00:00:00	2024-11-08T17:00:00	7	Dirección del viento	0
60471	7	Sololá	701	Sololá	1	Sololá	11	Noviembre	2023-11-22T00:00:00	2024-11-08T17:00:00	1	Precipitación	0
60472	7	Sololá	701	Sololá	1	Sololá	11	Noviembre	2023-11-22T00:00:00	2024-11-08T17:00:00	8	Radiación solar	37
60473	7	Sololá	701	Sololá	1	Sololá	11	Noviembre	2023-11-22T00:00:00	2024-11-08T18:00:00	2	Temperatura media	16.2
60474	7	Sololá	701	Sololá	1	Sololá	11	Noviembre	2023-11-22T00:00:00	2024-11-08T18:00:00	4	Temperatura máxima	18.8
60475	7	Sololá	701	Sololá	1	Sololá	11	Noviembre	2023-11-22T00:00:00	2024-11-08T18:00:00	3	Temperatura mínima	16.2
60476	7	Sololá	701	Sololá	1	Sololá	11	Noviembre	2023-11-22T00:00:00	2024-11-08T18:00:00	5	Humedad	80
60477	7	Sololá	701	Sololá	1	Sololá	11	Noviembre	2023-11-22T00:00:00	2024-11-08T18:00:00	6	Velocidad del viento	0
60478	7	Sololá	701	Sololá	1	Sololá	11	Noviembre	2023-11-22T00:00:00	2024-11-08T18:00:00	7	Dirección del viento	0
60479	7	Sololá	701	Sololá	1	Sololá	11	Noviembre	2023-11-22T00:00:00	2024-11-08T18:00:00	1	Precipitación	0
60480	7	Sololá	701	Sololá	1	Sololá	11	Noviembre	2023-11-22T00:00:00	2024-11-08T18:00:00	8	Radiación solar	5
60481	7	Sololá	701	Sololá	1	Sololá	11	Noviembre	2023-11-22T00:00:00	2024-11-08T19:00:00	2	Temperatura media	15.1
60482	7	Sololá	701	Sololá	1	Sololá	11	Noviembre	2023-11-22T00:00:00	2024-11-08T19:00:00	4	Temperatura máxima	16.2
60483	7	Sololá	701	Sololá	1	Sololá	11	Noviembre	2023-11-22T00:00:00	2024-11-08T19:00:00	3	Temperatura mínima	15.1
60484	7	Sololá	701	Sololá	1	Sololá	11	Noviembre	2023-11-22T00:00:00	2024-11-08T19:00:00	5	Humedad	84
60485	7	Sololá	701	Sololá	1	Sololá	11	Noviembre	2023-11-22T00:00:00	2024-11-08T19:00:00	6	Velocidad del viento	0
60486	7	Sololá	701	Sololá	1	Sololá	11	Noviembre	2023-11-22T00:00:00	2024-11-08T19:00:00	7	Dirección del viento	0
60487	7	Sololá	701	Sololá	1	Sololá	11	Noviembre	2023-11-22T00:00:00	2024-11-08T19:00:00	1	Precipitación	0
60488	7	Sololá	701	Sololá	1	Sololá	11	Noviembre	2023-11-22T00:00:00	2024-11-08T19:00:00	8	Radiación solar	0
60489	7	Sololá	701	Sololá	1	Sololá	11	Noviembre	2023-11-22T00:00:00	2024-11-08T20:00:00	2	Temperatura media	14.5
60490	7	Sololá	701	Sololá	1	Sololá	11	Noviembre	2023-11-22T00:00:00	2024-11-08T20:00:00	4	Temperatura máxima	15.1
60491	7	Sololá	701	Sololá	1	Sololá	11	Noviembre	2023-11-22T00:00:00	2024-11-08T20:00:00	3	Temperatura mínima	14.4
60492	7	Sololá	701	Sololá	1	Sololá	11	Noviembre	2023-11-22T00:00:00	2024-11-08T20:00:00	5	Humedad	86
60493	7	Sololá	701	Sololá	1	Sololá	11	Noviembre	2023-11-22T00:00:00	2024-11-08T20:00:00	6	Velocidad del viento	0
60494	7	Sololá	701	Sololá	1	Sololá	11	Noviembre	2023-11-22T00:00:00	2024-11-08T20:00:00	7	Dirección del viento	0
60495	7	Sololá	701	Sololá	1	Sololá	11	Noviembre	2023-11-22T00:00:00	2024-11-08T20:00:00	1	Precipitación	0
60496	7	Sololá	701	Sololá	1	Sololá	11	Noviembre	2023-11-22T00:00:00	2024-11-08T20:00:00	8	Radiación solar	0
60497	7	Sololá	701	Sololá	1	Sololá	11	Noviembre	2023-11-22T00:00:00	2024-11-08T21:00:00	2	Temperatura media	14.8
60498	7	Sololá	701	Sololá	1	Sololá	11	Noviembre	2023-11-22T00:00:00	2024-11-08T21:00:00	4	Temperatura máxima	14.8
60499	7	Sololá	701	Sololá	1	Sololá	11	Noviembre	2023-11-22T00:00:00	2024-11-08T21:00:00	3	Temperatura mínima	14.3
60500	7	Sololá	701	Sololá	1	Sololá	11	Noviembre	2023-11-22T00:00:00	2024-11-08T21:00:00	5	Humedad	86
60501	7	Sololá	701	Sololá	1	Sololá	11	Noviembre	2023-11-22T00:00:00	2024-11-08T21:00:00	6	Velocidad del viento	0
60502	7	Sololá	701	Sololá	1	Sololá	11	Noviembre	2023-11-22T00:00:00	2024-11-08T21:00:00	7	Dirección del viento	0
60503	7	Sololá	701	Sololá	1	Sololá	11	Noviembre	2023-11-22T00:00:00	2024-11-08T21:00:00	1	Precipitación	0
60504	7	Sololá	701	Sololá	1	Sololá	11	Noviembre	2023-11-22T00:00:00	2024-11-08T21:00:00	8	Radiación solar	0
60505	7	Sololá	701	Sololá	1	Sololá	11	Noviembre	2023-11-22T00:00:00	2024-11-08T22:00:00	2	Temperatura media	14.6
60506	7	Sololá	701	Sololá	1	Sololá	11	Noviembre	2023-11-22T00:00:00	2024-11-08T22:00:00	4	Temperatura máxima	14.8
60507	7	Sololá	701	Sololá	1	Sololá	11	Noviembre	2023-11-22T00:00:00	2024-11-08T22:00:00	3	Temperatura mínima	14.5
60508	7	Sololá	701	Sololá	1	Sololá	11	Noviembre	2023-11-22T00:00:00	2024-11-08T22:00:00	5	Humedad	85
60509	7	Sololá	701	Sololá	1	Sololá	11	Noviembre	2023-11-22T00:00:00	2024-11-08T22:00:00	6	Velocidad del viento	0
60510	7	Sololá	701	Sololá	1	Sololá	11	Noviembre	2023-11-22T00:00:00	2024-11-08T22:00:00	7	Dirección del viento	0
60511	7	Sololá	701	Sololá	1	Sololá	11	Noviembre	2023-11-22T00:00:00	2024-11-08T22:00:00	1	Precipitación	0
60512	7	Sololá	701	Sololá	1	Sololá	11	Noviembre	2023-11-22T00:00:00	2024-11-08T22:00:00	8	Radiación solar	0
60513	7	Sololá	701	Sololá	1	Sololá	11	Noviembre	2023-11-22T00:00:00	2024-11-08T23:00:00	2	Temperatura media	14.7
60514	7	Sololá	701	Sololá	1	Sololá	11	Noviembre	2023-11-22T00:00:00	2024-11-08T23:00:00	4	Temperatura máxima	14.8
60515	7	Sololá	701	Sololá	1	Sololá	11	Noviembre	2023-11-22T00:00:00	2024-11-08T23:00:00	3	Temperatura mínima	14.5
60516	7	Sololá	701	Sololá	1	Sololá	11	Noviembre	2023-11-22T00:00:00	2024-11-08T23:00:00	5	Humedad	84
60517	7	Sololá	701	Sololá	1	Sololá	11	Noviembre	2023-11-22T00:00:00	2024-11-08T23:00:00	6	Velocidad del viento	0
60518	7	Sololá	701	Sololá	1	Sololá	11	Noviembre	2023-11-22T00:00:00	2024-11-08T23:00:00	7	Dirección del viento	0
60519	7	Sololá	701	Sololá	1	Sololá	11	Noviembre	2023-11-22T00:00:00	2024-11-08T23:00:00	1	Precipitación	0
60520	7	Sololá	701	Sololá	1	Sololá	11	Noviembre	2023-11-22T00:00:00	2024-11-08T23:00:00	8	Radiación solar	0
60521	7	Sololá	701	Sololá	1	Sololá	11	Noviembre	2023-11-23T00:00:00	2024-11-08T00:00:00	2	Temperatura media	14.9
60522	7	Sololá	701	Sololá	1	Sololá	11	Noviembre	2023-11-23T00:00:00	2024-11-08T00:00:00	4	Temperatura máxima	14.9
60523	7	Sololá	701	Sololá	1	Sololá	11	Noviembre	2023-11-23T00:00:00	2024-11-08T00:00:00	3	Temperatura mínima	14.6
60524	7	Sololá	701	Sololá	1	Sololá	11	Noviembre	2023-11-23T00:00:00	2024-11-08T00:00:00	5	Humedad	83
60525	7	Sololá	701	Sololá	1	Sololá	11	Noviembre	2023-11-23T00:00:00	2024-11-08T00:00:00	6	Velocidad del viento	0
60526	7	Sololá	701	Sololá	1	Sololá	11	Noviembre	2023-11-23T00:00:00	2024-11-08T00:00:00	7	Dirección del viento	0
60527	7	Sololá	701	Sololá	1	Sololá	11	Noviembre	2023-11-23T00:00:00	2024-11-08T00:00:00	1	Precipitación	0
60528	7	Sololá	701	Sololá	1	Sololá	11	Noviembre	2023-11-23T00:00:00	2024-11-08T00:00:00	8	Radiación solar	0
60529	7	Sololá	701	Sololá	1	Sololá	11	Noviembre	2023-11-23T00:00:00	2024-11-08T01:00:00	2	Temperatura media	14.2
60530	7	Sololá	701	Sololá	1	Sololá	11	Noviembre	2023-11-23T00:00:00	2024-11-08T01:00:00	4	Temperatura máxima	14.9
60531	7	Sololá	701	Sololá	1	Sololá	11	Noviembre	2023-11-23T00:00:00	2024-11-08T01:00:00	3	Temperatura mínima	14.2
60532	7	Sololá	701	Sololá	1	Sololá	11	Noviembre	2023-11-23T00:00:00	2024-11-08T01:00:00	5	Humedad	86
60533	7	Sololá	701	Sololá	1	Sololá	11	Noviembre	2023-11-23T00:00:00	2024-11-08T01:00:00	6	Velocidad del viento	0
60534	7	Sololá	701	Sololá	1	Sololá	11	Noviembre	2023-11-23T00:00:00	2024-11-08T01:00:00	7	Dirección del viento	0
60535	7	Sololá	701	Sololá	1	Sololá	11	Noviembre	2023-11-23T00:00:00	2024-11-08T01:00:00	1	Precipitación	0
60536	7	Sololá	701	Sololá	1	Sololá	11	Noviembre	2023-11-23T00:00:00	2024-11-08T01:00:00	8	Radiación solar	0
60537	7	Sololá	701	Sololá	1	Sololá	11	Noviembre	2023-11-23T00:00:00	2024-11-08T02:00:00	2	Temperatura media	13.6
60538	7	Sololá	701	Sololá	1	Sololá	11	Noviembre	2023-11-23T00:00:00	2024-11-08T02:00:00	4	Temperatura máxima	14.2
60539	7	Sololá	701	Sololá	1	Sololá	11	Noviembre	2023-11-23T00:00:00	2024-11-08T02:00:00	3	Temperatura mínima	13.5
60540	7	Sololá	701	Sololá	1	Sololá	11	Noviembre	2023-11-23T00:00:00	2024-11-08T02:00:00	5	Humedad	87
60541	7	Sololá	701	Sololá	1	Sololá	11	Noviembre	2023-11-23T00:00:00	2024-11-08T02:00:00	6	Velocidad del viento	0
60542	7	Sololá	701	Sololá	1	Sololá	11	Noviembre	2023-11-23T00:00:00	2024-11-08T02:00:00	7	Dirección del viento	0
60543	7	Sololá	701	Sololá	1	Sololá	11	Noviembre	2023-11-23T00:00:00	2024-11-08T02:00:00	1	Precipitación	0
60544	7	Sololá	701	Sololá	1	Sololá	11	Noviembre	2023-11-23T00:00:00	2024-11-08T02:00:00	8	Radiación solar	0
60545	7	Sololá	701	Sololá	1	Sololá	11	Noviembre	2023-11-23T00:00:00	2024-11-08T03:00:00	2	Temperatura media	13.2
60546	7	Sololá	701	Sololá	1	Sololá	11	Noviembre	2023-11-23T00:00:00	2024-11-08T03:00:00	4	Temperatura máxima	13.5
60547	7	Sololá	701	Sololá	1	Sololá	11	Noviembre	2023-11-23T00:00:00	2024-11-08T03:00:00	3	Temperatura mínima	13.1
60548	7	Sololá	701	Sololá	1	Sololá	11	Noviembre	2023-11-23T00:00:00	2024-11-08T03:00:00	5	Humedad	86
60549	7	Sololá	701	Sololá	1	Sololá	11	Noviembre	2023-11-23T00:00:00	2024-11-08T03:00:00	6	Velocidad del viento	0
60550	7	Sololá	701	Sololá	1	Sololá	11	Noviembre	2023-11-23T00:00:00	2024-11-08T03:00:00	7	Dirección del viento	0
60551	7	Sololá	701	Sololá	1	Sololá	11	Noviembre	2023-11-23T00:00:00	2024-11-08T03:00:00	1	Precipitación	0
60552	7	Sololá	701	Sololá	1	Sololá	11	Noviembre	2023-11-23T00:00:00	2024-11-08T03:00:00	8	Radiación solar	0
60553	7	Sololá	701	Sololá	1	Sololá	11	Noviembre	2023-11-23T00:00:00	2024-11-08T04:00:00	2	Temperatura media	12.7
60554	7	Sololá	701	Sololá	1	Sololá	11	Noviembre	2023-11-23T00:00:00	2024-11-08T04:00:00	4	Temperatura máxima	13.2
60555	7	Sololá	701	Sololá	1	Sololá	11	Noviembre	2023-11-23T00:00:00	2024-11-08T04:00:00	3	Temperatura mínima	12.7
60556	7	Sololá	701	Sololá	1	Sololá	11	Noviembre	2023-11-23T00:00:00	2024-11-08T04:00:00	5	Humedad	87
60557	7	Sololá	701	Sololá	1	Sololá	11	Noviembre	2023-11-23T00:00:00	2024-11-08T04:00:00	6	Velocidad del viento	0
60558	7	Sololá	701	Sololá	1	Sololá	11	Noviembre	2023-11-23T00:00:00	2024-11-08T04:00:00	7	Dirección del viento	0
60559	7	Sololá	701	Sololá	1	Sololá	11	Noviembre	2023-11-23T00:00:00	2024-11-08T04:00:00	1	Precipitación	0
60560	7	Sololá	701	Sololá	1	Sololá	11	Noviembre	2023-11-23T00:00:00	2024-11-08T04:00:00	8	Radiación solar	0
60561	7	Sololá	701	Sololá	1	Sololá	11	Noviembre	2023-11-23T00:00:00	2024-11-08T05:00:00	2	Temperatura media	12.4
60562	7	Sololá	701	Sololá	1	Sololá	11	Noviembre	2023-11-23T00:00:00	2024-11-08T05:00:00	4	Temperatura máxima	12.7
60563	7	Sololá	701	Sololá	1	Sololá	11	Noviembre	2023-11-23T00:00:00	2024-11-08T05:00:00	3	Temperatura mínima	12.3
60564	7	Sololá	701	Sololá	1	Sololá	11	Noviembre	2023-11-23T00:00:00	2024-11-08T05:00:00	5	Humedad	88
60565	7	Sololá	701	Sololá	1	Sololá	11	Noviembre	2023-11-23T00:00:00	2024-11-08T05:00:00	6	Velocidad del viento	0
60566	7	Sololá	701	Sololá	1	Sololá	11	Noviembre	2023-11-23T00:00:00	2024-11-08T05:00:00	7	Dirección del viento	0
60567	7	Sololá	701	Sololá	1	Sololá	11	Noviembre	2023-11-23T00:00:00	2024-11-08T05:00:00	1	Precipitación	0
60568	7	Sololá	701	Sololá	1	Sololá	11	Noviembre	2023-11-23T00:00:00	2024-11-08T05:00:00	8	Radiación solar	0
60569	7	Sololá	701	Sololá	1	Sololá	11	Noviembre	2023-11-23T00:00:00	2024-11-08T06:00:00	2	Temperatura media	12.2
60570	7	Sololá	701	Sololá	1	Sololá	11	Noviembre	2023-11-23T00:00:00	2024-11-08T06:00:00	4	Temperatura máxima	12.6
60571	7	Sololá	701	Sololá	1	Sololá	11	Noviembre	2023-11-23T00:00:00	2024-11-08T06:00:00	3	Temperatura mínima	12.2
60572	7	Sololá	701	Sololá	1	Sololá	11	Noviembre	2023-11-23T00:00:00	2024-11-08T06:00:00	5	Humedad	89
60573	7	Sololá	701	Sololá	1	Sololá	11	Noviembre	2023-11-23T00:00:00	2024-11-08T06:00:00	6	Velocidad del viento	0
60574	7	Sololá	701	Sololá	1	Sololá	11	Noviembre	2023-11-23T00:00:00	2024-11-08T06:00:00	7	Dirección del viento	0
60575	7	Sololá	701	Sololá	1	Sololá	11	Noviembre	2023-11-23T00:00:00	2024-11-08T06:00:00	1	Precipitación	0
60576	7	Sololá	701	Sololá	1	Sololá	11	Noviembre	2023-11-23T00:00:00	2024-11-08T06:00:00	8	Radiación solar	0
60577	7	Sololá	701	Sololá	1	Sololá	11	Noviembre	2023-11-23T00:00:00	2024-11-08T07:00:00	2	Temperatura media	12.4
60578	7	Sololá	701	Sololá	1	Sololá	11	Noviembre	2023-11-23T00:00:00	2024-11-08T07:00:00	4	Temperatura máxima	12.4
60579	7	Sololá	701	Sololá	1	Sololá	11	Noviembre	2023-11-23T00:00:00	2024-11-08T07:00:00	3	Temperatura mínima	11.9
60580	7	Sololá	701	Sololá	1	Sololá	11	Noviembre	2023-11-23T00:00:00	2024-11-08T07:00:00	5	Humedad	89
60581	7	Sololá	701	Sololá	1	Sololá	11	Noviembre	2023-11-23T00:00:00	2024-11-08T07:00:00	6	Velocidad del viento	0
60582	7	Sololá	701	Sololá	1	Sololá	11	Noviembre	2023-11-23T00:00:00	2024-11-08T07:00:00	7	Dirección del viento	0
60583	7	Sololá	701	Sololá	1	Sololá	11	Noviembre	2023-11-23T00:00:00	2024-11-08T07:00:00	1	Precipitación	0
60584	7	Sololá	701	Sololá	1	Sololá	11	Noviembre	2023-11-23T00:00:00	2024-11-08T07:00:00	8	Radiación solar	7
60585	7	Sololá	701	Sololá	1	Sololá	11	Noviembre	2023-11-23T00:00:00	2024-11-08T08:00:00	2	Temperatura media	14.5
60586	7	Sololá	701	Sololá	1	Sololá	11	Noviembre	2023-11-23T00:00:00	2024-11-08T08:00:00	4	Temperatura máxima	14.5
60587	7	Sololá	701	Sololá	1	Sololá	11	Noviembre	2023-11-23T00:00:00	2024-11-08T08:00:00	3	Temperatura mínima	12.4
60588	7	Sololá	701	Sololá	1	Sololá	11	Noviembre	2023-11-23T00:00:00	2024-11-08T08:00:00	5	Humedad	86
60589	7	Sololá	701	Sololá	1	Sololá	11	Noviembre	2023-11-23T00:00:00	2024-11-08T08:00:00	6	Velocidad del viento	0
60590	7	Sololá	701	Sololá	1	Sololá	11	Noviembre	2023-11-23T00:00:00	2024-11-08T08:00:00	7	Dirección del viento	0
60591	7	Sololá	701	Sololá	1	Sololá	11	Noviembre	2023-11-23T00:00:00	2024-11-08T08:00:00	1	Precipitación	0
60592	7	Sololá	701	Sololá	1	Sololá	11	Noviembre	2023-11-23T00:00:00	2024-11-08T08:00:00	8	Radiación solar	78
60593	7	Sololá	701	Sololá	1	Sololá	11	Noviembre	2023-11-23T00:00:00	2024-11-08T09:00:00	2	Temperatura media	20.1
60594	7	Sololá	701	Sololá	1	Sololá	11	Noviembre	2023-11-23T00:00:00	2024-11-08T09:00:00	4	Temperatura máxima	20.1
60595	7	Sololá	701	Sololá	1	Sololá	11	Noviembre	2023-11-23T00:00:00	2024-11-08T09:00:00	3	Temperatura mínima	14.5
60596	7	Sololá	701	Sololá	1	Sololá	11	Noviembre	2023-11-23T00:00:00	2024-11-08T09:00:00	5	Humedad	70
60597	7	Sololá	701	Sololá	1	Sololá	11	Noviembre	2023-11-23T00:00:00	2024-11-08T09:00:00	6	Velocidad del viento	0
60598	7	Sololá	701	Sololá	1	Sololá	11	Noviembre	2023-11-23T00:00:00	2024-11-08T09:00:00	7	Dirección del viento	0
60599	7	Sololá	701	Sololá	1	Sololá	11	Noviembre	2023-11-23T00:00:00	2024-11-08T09:00:00	1	Precipitación	0
60600	7	Sololá	701	Sololá	1	Sololá	11	Noviembre	2023-11-23T00:00:00	2024-11-08T09:00:00	8	Radiación solar	549
60601	7	Sololá	701	Sololá	1	Sololá	11	Noviembre	2023-11-23T00:00:00	2024-11-08T10:00:00	2	Temperatura media	21.6
60602	7	Sololá	701	Sololá	1	Sololá	11	Noviembre	2023-11-23T00:00:00	2024-11-08T10:00:00	4	Temperatura máxima	21.6
60603	7	Sololá	701	Sololá	1	Sololá	11	Noviembre	2023-11-23T00:00:00	2024-11-08T10:00:00	3	Temperatura mínima	20.1
60604	7	Sololá	701	Sololá	1	Sololá	11	Noviembre	2023-11-23T00:00:00	2024-11-08T10:00:00	5	Humedad	70
60605	7	Sololá	701	Sololá	1	Sololá	11	Noviembre	2023-11-23T00:00:00	2024-11-08T10:00:00	6	Velocidad del viento	0
60606	7	Sololá	701	Sololá	1	Sololá	11	Noviembre	2023-11-23T00:00:00	2024-11-08T10:00:00	7	Dirección del viento	0
60607	7	Sololá	701	Sololá	1	Sololá	11	Noviembre	2023-11-23T00:00:00	2024-11-08T10:00:00	1	Precipitación	0
60608	7	Sololá	701	Sololá	1	Sololá	11	Noviembre	2023-11-23T00:00:00	2024-11-08T10:00:00	8	Radiación solar	723
60609	7	Sololá	701	Sololá	1	Sololá	11	Noviembre	2023-11-23T00:00:00	2024-11-08T11:00:00	2	Temperatura media	21.7
60610	7	Sololá	701	Sololá	1	Sololá	11	Noviembre	2023-11-23T00:00:00	2024-11-08T11:00:00	4	Temperatura máxima	22.2
60611	7	Sololá	701	Sololá	1	Sololá	11	Noviembre	2023-11-23T00:00:00	2024-11-08T11:00:00	3	Temperatura mínima	21.6
60612	7	Sololá	701	Sololá	1	Sololá	11	Noviembre	2023-11-23T00:00:00	2024-11-08T11:00:00	5	Humedad	67
60613	7	Sololá	701	Sololá	1	Sololá	11	Noviembre	2023-11-23T00:00:00	2024-11-08T11:00:00	6	Velocidad del viento	0
60614	7	Sololá	701	Sololá	1	Sololá	11	Noviembre	2023-11-23T00:00:00	2024-11-08T11:00:00	7	Dirección del viento	0
60615	7	Sololá	701	Sololá	1	Sololá	11	Noviembre	2023-11-23T00:00:00	2024-11-08T11:00:00	1	Precipitación	0
60616	7	Sololá	701	Sololá	1	Sololá	11	Noviembre	2023-11-23T00:00:00	2024-11-08T11:00:00	8	Radiación solar	828
60617	7	Sololá	701	Sololá	1	Sololá	11	Noviembre	2023-11-23T00:00:00	2024-11-08T12:00:00	2	Temperatura media	22.3
60618	7	Sololá	701	Sololá	1	Sololá	11	Noviembre	2023-11-23T00:00:00	2024-11-08T12:00:00	4	Temperatura máxima	22.9
60619	7	Sololá	701	Sololá	1	Sololá	11	Noviembre	2023-11-23T00:00:00	2024-11-08T12:00:00	3	Temperatura mínima	21.7
60620	7	Sololá	701	Sololá	1	Sololá	11	Noviembre	2023-11-23T00:00:00	2024-11-08T12:00:00	5	Humedad	65
60621	7	Sololá	701	Sololá	1	Sololá	11	Noviembre	2023-11-23T00:00:00	2024-11-08T12:00:00	6	Velocidad del viento	0
60622	7	Sololá	701	Sololá	1	Sololá	11	Noviembre	2023-11-23T00:00:00	2024-11-08T12:00:00	7	Dirección del viento	0
60623	7	Sololá	701	Sololá	1	Sololá	11	Noviembre	2023-11-23T00:00:00	2024-11-08T12:00:00	1	Precipitación	0
60624	7	Sololá	701	Sololá	1	Sololá	11	Noviembre	2023-11-23T00:00:00	2024-11-08T12:00:00	8	Radiación solar	907
60625	7	Sololá	701	Sololá	1	Sololá	11	Noviembre	2023-11-23T00:00:00	2024-11-08T13:00:00	2	Temperatura media	22.5
60626	7	Sololá	701	Sololá	1	Sololá	11	Noviembre	2023-11-23T00:00:00	2024-11-08T13:00:00	4	Temperatura máxima	22.8
60627	7	Sololá	701	Sololá	1	Sololá	11	Noviembre	2023-11-23T00:00:00	2024-11-08T13:00:00	3	Temperatura mínima	21.7
60628	7	Sololá	701	Sololá	1	Sololá	11	Noviembre	2023-11-23T00:00:00	2024-11-08T13:00:00	5	Humedad	65
60629	7	Sololá	701	Sololá	1	Sololá	11	Noviembre	2023-11-23T00:00:00	2024-11-08T13:00:00	6	Velocidad del viento	0
60630	7	Sololá	701	Sololá	1	Sololá	11	Noviembre	2023-11-23T00:00:00	2024-11-08T13:00:00	7	Dirección del viento	0
60631	7	Sololá	701	Sololá	1	Sololá	11	Noviembre	2023-11-23T00:00:00	2024-11-08T13:00:00	1	Precipitación	0
60632	7	Sololá	701	Sololá	1	Sololá	11	Noviembre	2023-11-23T00:00:00	2024-11-08T13:00:00	8	Radiación solar	582
60633	7	Sololá	701	Sololá	1	Sololá	11	Noviembre	2023-11-23T00:00:00	2024-11-08T14:00:00	2	Temperatura media	21.7
60634	7	Sololá	701	Sololá	1	Sololá	11	Noviembre	2023-11-23T00:00:00	2024-11-08T14:00:00	4	Temperatura máxima	23.1
60635	7	Sololá	701	Sololá	1	Sololá	11	Noviembre	2023-11-23T00:00:00	2024-11-08T14:00:00	3	Temperatura mínima	21.7
60636	7	Sololá	701	Sololá	1	Sololá	11	Noviembre	2023-11-23T00:00:00	2024-11-08T14:00:00	5	Humedad	75
60637	7	Sololá	701	Sololá	1	Sololá	11	Noviembre	2023-11-23T00:00:00	2024-11-08T14:00:00	6	Velocidad del viento	0
60638	7	Sololá	701	Sololá	1	Sololá	11	Noviembre	2023-11-23T00:00:00	2024-11-08T14:00:00	7	Dirección del viento	0
60639	7	Sololá	701	Sololá	1	Sololá	11	Noviembre	2023-11-23T00:00:00	2024-11-08T14:00:00	1	Precipitación	0
60640	7	Sololá	701	Sololá	1	Sololá	11	Noviembre	2023-11-23T00:00:00	2024-11-08T14:00:00	8	Radiación solar	503
60641	7	Sololá	701	Sololá	1	Sololá	11	Noviembre	2023-11-23T00:00:00	2024-11-08T15:00:00	2	Temperatura media	19.4
60642	7	Sololá	701	Sololá	1	Sololá	11	Noviembre	2023-11-23T00:00:00	2024-11-08T15:00:00	4	Temperatura máxima	21.7
60643	7	Sololá	701	Sololá	1	Sololá	11	Noviembre	2023-11-23T00:00:00	2024-11-08T15:00:00	3	Temperatura mínima	19.4
60644	7	Sololá	701	Sololá	1	Sololá	11	Noviembre	2023-11-23T00:00:00	2024-11-08T15:00:00	5	Humedad	83
60645	7	Sololá	701	Sololá	1	Sololá	11	Noviembre	2023-11-23T00:00:00	2024-11-08T15:00:00	6	Velocidad del viento	0
60646	7	Sololá	701	Sololá	1	Sololá	11	Noviembre	2023-11-23T00:00:00	2024-11-08T15:00:00	7	Dirección del viento	0
60647	7	Sololá	701	Sololá	1	Sololá	11	Noviembre	2023-11-23T00:00:00	2024-11-08T15:00:00	1	Precipitación	0
60648	7	Sololá	701	Sololá	1	Sololá	11	Noviembre	2023-11-23T00:00:00	2024-11-08T15:00:00	8	Radiación solar	114
60649	7	Sololá	701	Sololá	1	Sololá	11	Noviembre	2023-11-23T00:00:00	2024-11-08T16:00:00	2	Temperatura media	18.6
60650	7	Sololá	701	Sololá	1	Sololá	11	Noviembre	2023-11-23T00:00:00	2024-11-08T16:00:00	4	Temperatura máxima	19.5
60651	7	Sololá	701	Sololá	1	Sololá	11	Noviembre	2023-11-23T00:00:00	2024-11-08T16:00:00	3	Temperatura mínima	18.6
60652	7	Sololá	701	Sololá	1	Sololá	11	Noviembre	2023-11-23T00:00:00	2024-11-08T16:00:00	5	Humedad	86
60653	7	Sololá	701	Sololá	1	Sololá	11	Noviembre	2023-11-23T00:00:00	2024-11-08T16:00:00	6	Velocidad del viento	0
60654	7	Sololá	701	Sololá	1	Sololá	11	Noviembre	2023-11-23T00:00:00	2024-11-08T16:00:00	7	Dirección del viento	0
60655	7	Sololá	701	Sololá	1	Sololá	11	Noviembre	2023-11-23T00:00:00	2024-11-08T16:00:00	1	Precipitación	0
60656	7	Sololá	701	Sololá	1	Sololá	11	Noviembre	2023-11-23T00:00:00	2024-11-08T16:00:00	8	Radiación solar	93
60657	7	Sololá	701	Sololá	1	Sololá	11	Noviembre	2023-11-23T00:00:00	2024-11-08T17:00:00	2	Temperatura media	17.6
60658	7	Sololá	701	Sololá	1	Sololá	11	Noviembre	2023-11-23T00:00:00	2024-11-08T17:00:00	4	Temperatura máxima	18.6
60659	7	Sololá	701	Sololá	1	Sololá	11	Noviembre	2023-11-23T00:00:00	2024-11-08T17:00:00	3	Temperatura mínima	17.6
60660	7	Sololá	701	Sololá	1	Sololá	11	Noviembre	2023-11-23T00:00:00	2024-11-08T17:00:00	5	Humedad	89
60661	7	Sololá	701	Sololá	1	Sololá	11	Noviembre	2023-11-23T00:00:00	2024-11-08T17:00:00	6	Velocidad del viento	0
60662	7	Sololá	701	Sololá	1	Sololá	11	Noviembre	2023-11-23T00:00:00	2024-11-08T17:00:00	7	Dirección del viento	0
60663	7	Sololá	701	Sololá	1	Sololá	11	Noviembre	2023-11-23T00:00:00	2024-11-08T17:00:00	1	Precipitación	0
60664	7	Sololá	701	Sololá	1	Sololá	11	Noviembre	2023-11-23T00:00:00	2024-11-08T17:00:00	8	Radiación solar	22
60665	7	Sololá	701	Sololá	1	Sololá	11	Noviembre	2023-11-23T00:00:00	2024-11-08T18:00:00	2	Temperatura media	16.6
60666	7	Sololá	701	Sololá	1	Sololá	11	Noviembre	2023-11-23T00:00:00	2024-11-08T18:00:00	4	Temperatura máxima	17.6
60667	7	Sololá	701	Sololá	1	Sololá	11	Noviembre	2023-11-23T00:00:00	2024-11-08T18:00:00	3	Temperatura mínima	16.5
60668	7	Sololá	701	Sololá	1	Sololá	11	Noviembre	2023-11-23T00:00:00	2024-11-08T18:00:00	5	Humedad	92
60669	7	Sololá	701	Sololá	1	Sololá	11	Noviembre	2023-11-23T00:00:00	2024-11-08T18:00:00	6	Velocidad del viento	0
60670	7	Sololá	701	Sololá	1	Sololá	11	Noviembre	2023-11-23T00:00:00	2024-11-08T18:00:00	7	Dirección del viento	0
60671	7	Sololá	701	Sololá	1	Sololá	11	Noviembre	2023-11-23T00:00:00	2024-11-08T18:00:00	1	Precipitación	0
60672	7	Sololá	701	Sololá	1	Sololá	11	Noviembre	2023-11-23T00:00:00	2024-11-08T18:00:00	8	Radiación solar	2
60673	7	Sololá	701	Sololá	1	Sololá	11	Noviembre	2023-11-23T00:00:00	2024-11-08T19:00:00	2	Temperatura media	15.7
60674	7	Sololá	701	Sololá	1	Sololá	11	Noviembre	2023-11-23T00:00:00	2024-11-08T19:00:00	4	Temperatura máxima	16.5
60675	7	Sololá	701	Sololá	1	Sololá	11	Noviembre	2023-11-23T00:00:00	2024-11-08T19:00:00	3	Temperatura mínima	15.7
60676	7	Sololá	701	Sololá	1	Sololá	11	Noviembre	2023-11-23T00:00:00	2024-11-08T19:00:00	5	Humedad	91
60677	7	Sololá	701	Sololá	1	Sololá	11	Noviembre	2023-11-23T00:00:00	2024-11-08T19:00:00	6	Velocidad del viento	0
60678	7	Sololá	701	Sololá	1	Sololá	11	Noviembre	2023-11-23T00:00:00	2024-11-08T19:00:00	7	Dirección del viento	0
60679	7	Sololá	701	Sololá	1	Sololá	11	Noviembre	2023-11-23T00:00:00	2024-11-08T19:00:00	1	Precipitación	0
60680	7	Sololá	701	Sololá	1	Sololá	11	Noviembre	2023-11-23T00:00:00	2024-11-08T19:00:00	8	Radiación solar	0
60681	7	Sololá	701	Sololá	1	Sololá	11	Noviembre	2023-11-23T00:00:00	2024-11-08T20:00:00	2	Temperatura media	14.6
60682	7	Sololá	701	Sololá	1	Sololá	11	Noviembre	2023-11-23T00:00:00	2024-11-08T20:00:00	4	Temperatura máxima	15.7
60683	7	Sololá	701	Sololá	1	Sololá	11	Noviembre	2023-11-23T00:00:00	2024-11-08T20:00:00	3	Temperatura mínima	14.6
60684	7	Sololá	701	Sololá	1	Sololá	11	Noviembre	2023-11-23T00:00:00	2024-11-08T20:00:00	5	Humedad	88
60685	7	Sololá	701	Sololá	1	Sololá	11	Noviembre	2023-11-23T00:00:00	2024-11-08T20:00:00	6	Velocidad del viento	0
60686	7	Sololá	701	Sololá	1	Sololá	11	Noviembre	2023-11-23T00:00:00	2024-11-08T20:00:00	7	Dirección del viento	0
60687	7	Sololá	701	Sololá	1	Sololá	11	Noviembre	2023-11-23T00:00:00	2024-11-08T20:00:00	1	Precipitación	0
60688	7	Sololá	701	Sololá	1	Sololá	11	Noviembre	2023-11-23T00:00:00	2024-11-08T20:00:00	8	Radiación solar	0
60689	7	Sololá	701	Sololá	1	Sololá	11	Noviembre	2023-11-23T00:00:00	2024-11-08T21:00:00	2	Temperatura media	13.7
60690	7	Sololá	701	Sololá	1	Sololá	11	Noviembre	2023-11-23T00:00:00	2024-11-08T21:00:00	4	Temperatura máxima	14.6
60691	7	Sololá	701	Sololá	1	Sololá	11	Noviembre	2023-11-23T00:00:00	2024-11-08T21:00:00	3	Temperatura mínima	13.7
60692	7	Sololá	701	Sololá	1	Sololá	11	Noviembre	2023-11-23T00:00:00	2024-11-08T21:00:00	5	Humedad	87
60693	7	Sololá	701	Sololá	1	Sololá	11	Noviembre	2023-11-23T00:00:00	2024-11-08T21:00:00	6	Velocidad del viento	0
60694	7	Sololá	701	Sololá	1	Sololá	11	Noviembre	2023-11-23T00:00:00	2024-11-08T21:00:00	7	Dirección del viento	0
60695	7	Sololá	701	Sololá	1	Sololá	11	Noviembre	2023-11-23T00:00:00	2024-11-08T21:00:00	1	Precipitación	0
60696	7	Sololá	701	Sololá	1	Sololá	11	Noviembre	2023-11-23T00:00:00	2024-11-08T21:00:00	8	Radiación solar	0
60697	7	Sololá	701	Sololá	1	Sololá	11	Noviembre	2023-11-23T00:00:00	2024-11-08T22:00:00	2	Temperatura media	13.3
60698	7	Sololá	701	Sololá	1	Sololá	11	Noviembre	2023-11-23T00:00:00	2024-11-08T22:00:00	4	Temperatura máxima	13.8
60699	7	Sololá	701	Sololá	1	Sololá	11	Noviembre	2023-11-23T00:00:00	2024-11-08T22:00:00	3	Temperatura mínima	13.3
60700	7	Sololá	701	Sololá	1	Sololá	11	Noviembre	2023-11-23T00:00:00	2024-11-08T22:00:00	5	Humedad	88
60701	7	Sololá	701	Sololá	1	Sololá	11	Noviembre	2023-11-23T00:00:00	2024-11-08T22:00:00	6	Velocidad del viento	0
60702	7	Sololá	701	Sololá	1	Sololá	11	Noviembre	2023-11-23T00:00:00	2024-11-08T22:00:00	7	Dirección del viento	0
60703	7	Sololá	701	Sololá	1	Sololá	11	Noviembre	2023-11-23T00:00:00	2024-11-08T22:00:00	1	Precipitación	0
60704	7	Sololá	701	Sololá	1	Sololá	11	Noviembre	2023-11-23T00:00:00	2024-11-08T22:00:00	8	Radiación solar	0
60705	7	Sololá	701	Sololá	1	Sololá	11	Noviembre	2023-11-23T00:00:00	2024-11-08T23:00:00	2	Temperatura media	13.1
60706	7	Sololá	701	Sololá	1	Sololá	11	Noviembre	2023-11-23T00:00:00	2024-11-08T23:00:00	4	Temperatura máxima	13.4
60707	7	Sololá	701	Sololá	1	Sololá	11	Noviembre	2023-11-23T00:00:00	2024-11-08T23:00:00	3	Temperatura mínima	13.1
60708	7	Sololá	701	Sololá	1	Sololá	11	Noviembre	2023-11-23T00:00:00	2024-11-08T23:00:00	5	Humedad	88
60709	7	Sololá	701	Sololá	1	Sololá	11	Noviembre	2023-11-23T00:00:00	2024-11-08T23:00:00	6	Velocidad del viento	0
60710	7	Sololá	701	Sololá	1	Sololá	11	Noviembre	2023-11-23T00:00:00	2024-11-08T23:00:00	7	Dirección del viento	0
60711	7	Sololá	701	Sololá	1	Sololá	11	Noviembre	2023-11-23T00:00:00	2024-11-08T23:00:00	1	Precipitación	0
60712	7	Sololá	701	Sololá	1	Sololá	11	Noviembre	2023-11-23T00:00:00	2024-11-08T23:00:00	8	Radiación solar	0
60713	7	Sololá	701	Sololá	1	Sololá	11	Noviembre	2023-11-24T00:00:00	2024-11-08T00:00:00	2	Temperatura media	13
60714	7	Sololá	701	Sololá	1	Sololá	11	Noviembre	2023-11-24T00:00:00	2024-11-08T00:00:00	4	Temperatura máxima	13.2
60715	7	Sololá	701	Sololá	1	Sololá	11	Noviembre	2023-11-24T00:00:00	2024-11-08T00:00:00	3	Temperatura mínima	13
60716	7	Sololá	701	Sololá	1	Sololá	11	Noviembre	2023-11-24T00:00:00	2024-11-08T00:00:00	5	Humedad	87
60717	7	Sololá	701	Sololá	1	Sololá	11	Noviembre	2023-11-24T00:00:00	2024-11-08T00:00:00	6	Velocidad del viento	0
60718	7	Sololá	701	Sololá	1	Sololá	11	Noviembre	2023-11-24T00:00:00	2024-11-08T00:00:00	7	Dirección del viento	0
60719	7	Sololá	701	Sololá	1	Sololá	11	Noviembre	2023-11-24T00:00:00	2024-11-08T00:00:00	1	Precipitación	0
60720	7	Sololá	701	Sololá	1	Sololá	11	Noviembre	2023-11-24T00:00:00	2024-11-08T00:00:00	8	Radiación solar	0
60721	7	Sololá	701	Sololá	1	Sololá	11	Noviembre	2023-11-24T00:00:00	2024-11-08T01:00:00	2	Temperatura media	13.1
60722	7	Sololá	701	Sololá	1	Sololá	11	Noviembre	2023-11-24T00:00:00	2024-11-08T01:00:00	4	Temperatura máxima	13.2
60723	7	Sololá	701	Sololá	1	Sololá	11	Noviembre	2023-11-24T00:00:00	2024-11-08T01:00:00	3	Temperatura mínima	12.9
60724	7	Sololá	701	Sololá	1	Sololá	11	Noviembre	2023-11-24T00:00:00	2024-11-08T01:00:00	5	Humedad	87
60725	7	Sololá	701	Sololá	1	Sololá	11	Noviembre	2023-11-24T00:00:00	2024-11-08T01:00:00	6	Velocidad del viento	0
60726	7	Sololá	701	Sololá	1	Sololá	11	Noviembre	2023-11-24T00:00:00	2024-11-08T01:00:00	7	Dirección del viento	0
60727	7	Sololá	701	Sololá	1	Sololá	11	Noviembre	2023-11-24T00:00:00	2024-11-08T01:00:00	1	Precipitación	0
60728	7	Sololá	701	Sololá	1	Sololá	11	Noviembre	2023-11-24T00:00:00	2024-11-08T01:00:00	8	Radiación solar	0
60729	7	Sololá	701	Sololá	1	Sololá	11	Noviembre	2023-11-24T00:00:00	2024-11-08T02:00:00	2	Temperatura media	12.9
60730	7	Sololá	701	Sololá	1	Sololá	11	Noviembre	2023-11-24T00:00:00	2024-11-08T02:00:00	4	Temperatura máxima	13.1
60731	7	Sololá	701	Sololá	1	Sololá	11	Noviembre	2023-11-24T00:00:00	2024-11-08T02:00:00	3	Temperatura mínima	12.8
60732	7	Sololá	701	Sololá	1	Sololá	11	Noviembre	2023-11-24T00:00:00	2024-11-08T02:00:00	5	Humedad	87
60733	7	Sololá	701	Sololá	1	Sololá	11	Noviembre	2023-11-24T00:00:00	2024-11-08T02:00:00	6	Velocidad del viento	0
60734	7	Sololá	701	Sololá	1	Sololá	11	Noviembre	2023-11-24T00:00:00	2024-11-08T02:00:00	7	Dirección del viento	0
60735	7	Sololá	701	Sololá	1	Sololá	11	Noviembre	2023-11-24T00:00:00	2024-11-08T02:00:00	1	Precipitación	0
60736	7	Sololá	701	Sololá	1	Sololá	11	Noviembre	2023-11-24T00:00:00	2024-11-08T02:00:00	8	Radiación solar	0
60737	7	Sololá	701	Sololá	1	Sololá	11	Noviembre	2023-11-24T00:00:00	2024-11-08T03:00:00	2	Temperatura media	12.8
60738	7	Sololá	701	Sololá	1	Sololá	11	Noviembre	2023-11-24T00:00:00	2024-11-08T03:00:00	4	Temperatura máxima	12.9
60739	7	Sololá	701	Sololá	1	Sololá	11	Noviembre	2023-11-24T00:00:00	2024-11-08T03:00:00	3	Temperatura mínima	12.7
60740	7	Sololá	701	Sololá	1	Sololá	11	Noviembre	2023-11-24T00:00:00	2024-11-08T03:00:00	5	Humedad	87
60741	7	Sololá	701	Sololá	1	Sololá	11	Noviembre	2023-11-24T00:00:00	2024-11-08T03:00:00	6	Velocidad del viento	0
60742	7	Sololá	701	Sololá	1	Sololá	11	Noviembre	2023-11-24T00:00:00	2024-11-08T03:00:00	7	Dirección del viento	0
60743	7	Sololá	701	Sololá	1	Sololá	11	Noviembre	2023-11-24T00:00:00	2024-11-08T03:00:00	1	Precipitación	0
60744	7	Sololá	701	Sololá	1	Sololá	11	Noviembre	2023-11-24T00:00:00	2024-11-08T03:00:00	8	Radiación solar	0
60745	7	Sololá	701	Sololá	1	Sololá	11	Noviembre	2023-11-24T00:00:00	2024-11-08T04:00:00	2	Temperatura media	12.5
60746	7	Sololá	701	Sololá	1	Sololá	11	Noviembre	2023-11-24T00:00:00	2024-11-08T04:00:00	4	Temperatura máxima	12.8
60747	7	Sololá	701	Sololá	1	Sololá	11	Noviembre	2023-11-24T00:00:00	2024-11-08T04:00:00	3	Temperatura mínima	12.5
60748	7	Sololá	701	Sololá	1	Sololá	11	Noviembre	2023-11-24T00:00:00	2024-11-08T04:00:00	5	Humedad	87
60749	7	Sololá	701	Sololá	1	Sololá	11	Noviembre	2023-11-24T00:00:00	2024-11-08T04:00:00	6	Velocidad del viento	0
60750	7	Sololá	701	Sololá	1	Sololá	11	Noviembre	2023-11-24T00:00:00	2024-11-08T04:00:00	7	Dirección del viento	0
60751	7	Sololá	701	Sololá	1	Sololá	11	Noviembre	2023-11-24T00:00:00	2024-11-08T04:00:00	1	Precipitación	0
60752	7	Sololá	701	Sololá	1	Sololá	11	Noviembre	2023-11-24T00:00:00	2024-11-08T04:00:00	8	Radiación solar	0
60753	7	Sololá	701	Sololá	1	Sololá	11	Noviembre	2023-11-24T00:00:00	2024-11-08T05:00:00	2	Temperatura media	12.2
60754	7	Sololá	701	Sololá	1	Sololá	11	Noviembre	2023-11-24T00:00:00	2024-11-08T05:00:00	4	Temperatura máxima	12.5
60755	7	Sololá	701	Sololá	1	Sololá	11	Noviembre	2023-11-24T00:00:00	2024-11-08T05:00:00	3	Temperatura mínima	12.2
60756	7	Sololá	701	Sololá	1	Sololá	11	Noviembre	2023-11-24T00:00:00	2024-11-08T05:00:00	5	Humedad	87
60757	7	Sololá	701	Sololá	1	Sololá	11	Noviembre	2023-11-24T00:00:00	2024-11-08T05:00:00	6	Velocidad del viento	0
60758	7	Sololá	701	Sololá	1	Sololá	11	Noviembre	2023-11-24T00:00:00	2024-11-08T05:00:00	7	Dirección del viento	0
60759	7	Sololá	701	Sololá	1	Sololá	11	Noviembre	2023-11-24T00:00:00	2024-11-08T05:00:00	1	Precipitación	0
60760	7	Sololá	701	Sololá	1	Sololá	11	Noviembre	2023-11-24T00:00:00	2024-11-08T05:00:00	8	Radiación solar	0
60761	7	Sololá	701	Sololá	1	Sololá	11	Noviembre	2023-11-24T00:00:00	2024-11-08T06:00:00	2	Temperatura media	12.1
60762	7	Sololá	701	Sololá	1	Sololá	11	Noviembre	2023-11-24T00:00:00	2024-11-08T06:00:00	4	Temperatura máxima	12.3
60763	7	Sololá	701	Sololá	1	Sololá	11	Noviembre	2023-11-24T00:00:00	2024-11-08T06:00:00	3	Temperatura mínima	12
60764	7	Sololá	701	Sololá	1	Sololá	11	Noviembre	2023-11-24T00:00:00	2024-11-08T06:00:00	5	Humedad	87
60765	7	Sololá	701	Sololá	1	Sololá	11	Noviembre	2023-11-24T00:00:00	2024-11-08T06:00:00	6	Velocidad del viento	0
60766	7	Sololá	701	Sololá	1	Sololá	11	Noviembre	2023-11-24T00:00:00	2024-11-08T06:00:00	7	Dirección del viento	0
60767	7	Sololá	701	Sololá	1	Sololá	11	Noviembre	2023-11-24T00:00:00	2024-11-08T06:00:00	1	Precipitación	0
60768	7	Sololá	701	Sololá	1	Sololá	11	Noviembre	2023-11-24T00:00:00	2024-11-08T06:00:00	8	Radiación solar	0
60769	7	Sololá	701	Sololá	1	Sololá	11	Noviembre	2023-11-24T00:00:00	2024-11-08T07:00:00	2	Temperatura media	12.6
60770	7	Sololá	701	Sololá	1	Sololá	11	Noviembre	2023-11-24T00:00:00	2024-11-08T07:00:00	4	Temperatura máxima	12.7
60771	7	Sololá	701	Sololá	1	Sololá	11	Noviembre	2023-11-24T00:00:00	2024-11-08T07:00:00	3	Temperatura mínima	11.9
60772	7	Sololá	701	Sololá	1	Sololá	11	Noviembre	2023-11-24T00:00:00	2024-11-08T07:00:00	5	Humedad	87
60773	7	Sololá	701	Sololá	1	Sololá	11	Noviembre	2023-11-24T00:00:00	2024-11-08T07:00:00	6	Velocidad del viento	0
60774	7	Sololá	701	Sololá	1	Sololá	11	Noviembre	2023-11-24T00:00:00	2024-11-08T07:00:00	7	Dirección del viento	0
60775	7	Sololá	701	Sololá	1	Sololá	11	Noviembre	2023-11-24T00:00:00	2024-11-08T07:00:00	1	Precipitación	0
60776	7	Sololá	701	Sololá	1	Sololá	11	Noviembre	2023-11-24T00:00:00	2024-11-08T07:00:00	8	Radiación solar	8
60777	7	Sololá	701	Sololá	1	Sololá	11	Noviembre	2023-11-24T00:00:00	2024-11-08T08:00:00	2	Temperatura media	14.9
60778	7	Sololá	701	Sololá	1	Sololá	11	Noviembre	2023-11-24T00:00:00	2024-11-08T08:00:00	4	Temperatura máxima	14.9
60779	7	Sololá	701	Sololá	1	Sololá	11	Noviembre	2023-11-24T00:00:00	2024-11-08T08:00:00	3	Temperatura mínima	12.7
60780	7	Sololá	701	Sololá	1	Sololá	11	Noviembre	2023-11-24T00:00:00	2024-11-08T08:00:00	5	Humedad	86
60781	7	Sololá	701	Sololá	1	Sololá	11	Noviembre	2023-11-24T00:00:00	2024-11-08T08:00:00	6	Velocidad del viento	0
60782	7	Sololá	701	Sololá	1	Sololá	11	Noviembre	2023-11-24T00:00:00	2024-11-08T08:00:00	7	Dirección del viento	0
60783	7	Sololá	701	Sololá	1	Sololá	11	Noviembre	2023-11-24T00:00:00	2024-11-08T08:00:00	1	Precipitación	0
60784	7	Sololá	701	Sololá	1	Sololá	11	Noviembre	2023-11-24T00:00:00	2024-11-08T08:00:00	8	Radiación solar	72
60785	7	Sololá	701	Sololá	1	Sololá	11	Noviembre	2023-11-24T00:00:00	2024-11-08T09:00:00	2	Temperatura media	20.9
60786	7	Sololá	701	Sololá	1	Sololá	11	Noviembre	2023-11-24T00:00:00	2024-11-08T09:00:00	4	Temperatura máxima	20.9
60787	7	Sololá	701	Sololá	1	Sololá	11	Noviembre	2023-11-24T00:00:00	2024-11-08T09:00:00	3	Temperatura mínima	14.9
60788	7	Sololá	701	Sololá	1	Sololá	11	Noviembre	2023-11-24T00:00:00	2024-11-08T09:00:00	5	Humedad	72
60789	7	Sololá	701	Sololá	1	Sololá	11	Noviembre	2023-11-24T00:00:00	2024-11-08T09:00:00	6	Velocidad del viento	0
60790	7	Sololá	701	Sololá	1	Sololá	11	Noviembre	2023-11-24T00:00:00	2024-11-08T09:00:00	7	Dirección del viento	0
60791	7	Sololá	701	Sololá	1	Sololá	11	Noviembre	2023-11-24T00:00:00	2024-11-08T09:00:00	1	Precipitación	0
60792	7	Sololá	701	Sololá	1	Sololá	11	Noviembre	2023-11-24T00:00:00	2024-11-08T09:00:00	8	Radiación solar	542
60793	7	Sololá	701	Sololá	1	Sololá	11	Noviembre	2023-11-24T00:00:00	2024-11-08T10:00:00	2	Temperatura media	23.3
60794	7	Sololá	701	Sololá	1	Sololá	11	Noviembre	2023-11-24T00:00:00	2024-11-08T10:00:00	4	Temperatura máxima	23.3
60795	7	Sololá	701	Sololá	1	Sololá	11	Noviembre	2023-11-24T00:00:00	2024-11-08T10:00:00	3	Temperatura mínima	20.9
60796	7	Sololá	701	Sololá	1	Sololá	11	Noviembre	2023-11-24T00:00:00	2024-11-08T10:00:00	5	Humedad	67
60797	7	Sololá	701	Sololá	1	Sololá	11	Noviembre	2023-11-24T00:00:00	2024-11-08T10:00:00	6	Velocidad del viento	0
60798	7	Sololá	701	Sololá	1	Sololá	11	Noviembre	2023-11-24T00:00:00	2024-11-08T10:00:00	7	Dirección del viento	0
60799	7	Sololá	701	Sololá	1	Sololá	11	Noviembre	2023-11-24T00:00:00	2024-11-08T10:00:00	1	Precipitación	0
60800	7	Sololá	701	Sololá	1	Sololá	11	Noviembre	2023-11-24T00:00:00	2024-11-08T10:00:00	8	Radiación solar	722
60801	7	Sololá	701	Sololá	1	Sololá	11	Noviembre	2023-11-24T00:00:00	2024-11-08T11:00:00	2	Temperatura media	24.1
60802	7	Sololá	701	Sololá	1	Sololá	11	Noviembre	2023-11-24T00:00:00	2024-11-08T11:00:00	4	Temperatura máxima	24.1
60803	7	Sololá	701	Sololá	1	Sololá	11	Noviembre	2023-11-24T00:00:00	2024-11-08T11:00:00	3	Temperatura mínima	23.2
60804	7	Sololá	701	Sololá	1	Sololá	11	Noviembre	2023-11-24T00:00:00	2024-11-08T11:00:00	5	Humedad	60
60805	7	Sololá	701	Sololá	1	Sololá	11	Noviembre	2023-11-24T00:00:00	2024-11-08T11:00:00	6	Velocidad del viento	0
60806	7	Sololá	701	Sololá	1	Sololá	11	Noviembre	2023-11-24T00:00:00	2024-11-08T11:00:00	7	Dirección del viento	0
60807	7	Sololá	701	Sololá	1	Sololá	11	Noviembre	2023-11-24T00:00:00	2024-11-08T11:00:00	1	Precipitación	0
60808	7	Sololá	701	Sololá	1	Sololá	11	Noviembre	2023-11-24T00:00:00	2024-11-08T11:00:00	8	Radiación solar	836
60809	7	Sololá	701	Sololá	1	Sololá	11	Noviembre	2023-11-24T00:00:00	2024-11-08T12:00:00	2	Temperatura media	24.3
60810	7	Sololá	701	Sololá	1	Sololá	11	Noviembre	2023-11-24T00:00:00	2024-11-08T12:00:00	4	Temperatura máxima	24.4
60811	7	Sololá	701	Sololá	1	Sololá	11	Noviembre	2023-11-24T00:00:00	2024-11-08T12:00:00	3	Temperatura mínima	24
60812	7	Sololá	701	Sololá	1	Sololá	11	Noviembre	2023-11-24T00:00:00	2024-11-08T12:00:00	5	Humedad	59
60813	7	Sololá	701	Sololá	1	Sololá	11	Noviembre	2023-11-24T00:00:00	2024-11-08T12:00:00	6	Velocidad del viento	0
60814	7	Sololá	701	Sololá	1	Sololá	11	Noviembre	2023-11-24T00:00:00	2024-11-08T12:00:00	7	Dirección del viento	0
60815	7	Sololá	701	Sololá	1	Sololá	11	Noviembre	2023-11-24T00:00:00	2024-11-08T12:00:00	1	Precipitación	0
60816	7	Sololá	701	Sololá	1	Sololá	11	Noviembre	2023-11-24T00:00:00	2024-11-08T12:00:00	8	Radiación solar	878
60817	7	Sololá	701	Sololá	1	Sololá	11	Noviembre	2023-11-24T00:00:00	2024-11-08T13:00:00	2	Temperatura media	23.5
60818	7	Sololá	701	Sololá	1	Sololá	11	Noviembre	2023-11-24T00:00:00	2024-11-08T13:00:00	4	Temperatura máxima	24.4
60819	7	Sololá	701	Sololá	1	Sololá	11	Noviembre	2023-11-24T00:00:00	2024-11-08T13:00:00	3	Temperatura mínima	23.3
60820	7	Sololá	701	Sololá	1	Sololá	11	Noviembre	2023-11-24T00:00:00	2024-11-08T13:00:00	5	Humedad	71
60821	7	Sololá	701	Sololá	1	Sololá	11	Noviembre	2023-11-24T00:00:00	2024-11-08T13:00:00	6	Velocidad del viento	0
60822	7	Sololá	701	Sololá	1	Sololá	11	Noviembre	2023-11-24T00:00:00	2024-11-08T13:00:00	7	Dirección del viento	0
60823	7	Sololá	701	Sololá	1	Sololá	11	Noviembre	2023-11-24T00:00:00	2024-11-08T13:00:00	1	Precipitación	0
60824	7	Sololá	701	Sololá	1	Sololá	11	Noviembre	2023-11-24T00:00:00	2024-11-08T13:00:00	8	Radiación solar	563
60825	7	Sololá	701	Sololá	1	Sololá	11	Noviembre	2023-11-24T00:00:00	2024-11-08T14:00:00	2	Temperatura media	21.9
60826	7	Sololá	701	Sololá	1	Sololá	11	Noviembre	2023-11-24T00:00:00	2024-11-08T14:00:00	4	Temperatura máxima	23.9
60827	7	Sololá	701	Sololá	1	Sololá	11	Noviembre	2023-11-24T00:00:00	2024-11-08T14:00:00	3	Temperatura mínima	21.9
60828	7	Sololá	701	Sololá	1	Sololá	11	Noviembre	2023-11-24T00:00:00	2024-11-08T14:00:00	5	Humedad	75
60829	7	Sololá	701	Sololá	1	Sololá	11	Noviembre	2023-11-24T00:00:00	2024-11-08T14:00:00	6	Velocidad del viento	0
60830	7	Sololá	701	Sololá	1	Sololá	11	Noviembre	2023-11-24T00:00:00	2024-11-08T14:00:00	7	Dirección del viento	0
60831	7	Sololá	701	Sololá	1	Sololá	11	Noviembre	2023-11-24T00:00:00	2024-11-08T14:00:00	1	Precipitación	0
60832	7	Sololá	701	Sololá	1	Sololá	11	Noviembre	2023-11-24T00:00:00	2024-11-08T14:00:00	8	Radiación solar	567
60833	7	Sololá	701	Sololá	1	Sololá	11	Noviembre	2023-11-24T00:00:00	2024-11-08T15:00:00	2	Temperatura media	19.6
60834	7	Sololá	701	Sololá	1	Sololá	11	Noviembre	2023-11-24T00:00:00	2024-11-08T15:00:00	4	Temperatura máxima	21.9
60835	7	Sololá	701	Sololá	1	Sololá	11	Noviembre	2023-11-24T00:00:00	2024-11-08T15:00:00	3	Temperatura mínima	19.6
60836	7	Sololá	701	Sololá	1	Sololá	11	Noviembre	2023-11-24T00:00:00	2024-11-08T15:00:00	5	Humedad	83
60837	7	Sololá	701	Sololá	1	Sololá	11	Noviembre	2023-11-24T00:00:00	2024-11-08T15:00:00	6	Velocidad del viento	0
60838	7	Sololá	701	Sololá	1	Sololá	11	Noviembre	2023-11-24T00:00:00	2024-11-08T15:00:00	7	Dirección del viento	0
60839	7	Sololá	701	Sololá	1	Sololá	11	Noviembre	2023-11-24T00:00:00	2024-11-08T15:00:00	1	Precipitación	0
60840	7	Sololá	701	Sololá	1	Sololá	11	Noviembre	2023-11-24T00:00:00	2024-11-08T15:00:00	8	Radiación solar	172
60841	7	Sololá	701	Sololá	1	Sololá	11	Noviembre	2023-11-24T00:00:00	2024-11-08T16:00:00	2	Temperatura media	18
60842	7	Sololá	701	Sololá	1	Sololá	11	Noviembre	2023-11-24T00:00:00	2024-11-08T16:00:00	4	Temperatura máxima	19.7
60843	7	Sololá	701	Sololá	1	Sololá	11	Noviembre	2023-11-24T00:00:00	2024-11-08T16:00:00	3	Temperatura mínima	18
60844	7	Sololá	701	Sololá	1	Sololá	11	Noviembre	2023-11-24T00:00:00	2024-11-08T16:00:00	5	Humedad	89
60845	7	Sololá	701	Sololá	1	Sololá	11	Noviembre	2023-11-24T00:00:00	2024-11-08T16:00:00	6	Velocidad del viento	0
60846	7	Sololá	701	Sololá	1	Sololá	11	Noviembre	2023-11-24T00:00:00	2024-11-08T16:00:00	7	Dirección del viento	0
60847	7	Sololá	701	Sololá	1	Sololá	11	Noviembre	2023-11-24T00:00:00	2024-11-08T16:00:00	1	Precipitación	0
60848	7	Sololá	701	Sololá	1	Sololá	11	Noviembre	2023-11-24T00:00:00	2024-11-08T16:00:00	8	Radiación solar	52
60849	7	Sololá	701	Sololá	1	Sololá	11	Noviembre	2023-11-24T00:00:00	2024-11-08T17:00:00	2	Temperatura media	17.2
60850	7	Sololá	701	Sololá	1	Sololá	11	Noviembre	2023-11-24T00:00:00	2024-11-08T17:00:00	4	Temperatura máxima	18
60851	7	Sololá	701	Sololá	1	Sololá	11	Noviembre	2023-11-24T00:00:00	2024-11-08T17:00:00	3	Temperatura mínima	17.2
60852	7	Sololá	701	Sololá	1	Sololá	11	Noviembre	2023-11-24T00:00:00	2024-11-08T17:00:00	5	Humedad	92
60853	7	Sololá	701	Sololá	1	Sololá	11	Noviembre	2023-11-24T00:00:00	2024-11-08T17:00:00	6	Velocidad del viento	0
60854	7	Sololá	701	Sololá	1	Sololá	11	Noviembre	2023-11-24T00:00:00	2024-11-08T17:00:00	7	Dirección del viento	0
60855	7	Sololá	701	Sololá	1	Sololá	11	Noviembre	2023-11-24T00:00:00	2024-11-08T17:00:00	1	Precipitación	0
60856	7	Sololá	701	Sololá	1	Sololá	11	Noviembre	2023-11-24T00:00:00	2024-11-08T17:00:00	8	Radiación solar	10
60857	7	Sololá	701	Sololá	1	Sololá	11	Noviembre	2023-11-24T00:00:00	2024-11-08T18:00:00	2	Temperatura media	17
60858	7	Sololá	701	Sololá	1	Sololá	11	Noviembre	2023-11-24T00:00:00	2024-11-08T18:00:00	4	Temperatura máxima	17.3
60859	7	Sololá	701	Sololá	1	Sololá	11	Noviembre	2023-11-24T00:00:00	2024-11-08T18:00:00	3	Temperatura mínima	17
60860	7	Sololá	701	Sololá	1	Sololá	11	Noviembre	2023-11-24T00:00:00	2024-11-08T18:00:00	5	Humedad	92
60861	7	Sololá	701	Sololá	1	Sololá	11	Noviembre	2023-11-24T00:00:00	2024-11-08T18:00:00	6	Velocidad del viento	0
60862	7	Sololá	701	Sololá	1	Sololá	11	Noviembre	2023-11-24T00:00:00	2024-11-08T18:00:00	7	Dirección del viento	0
60863	7	Sololá	701	Sololá	1	Sololá	11	Noviembre	2023-11-24T00:00:00	2024-11-08T18:00:00	1	Precipitación	0
60864	7	Sololá	701	Sololá	1	Sololá	11	Noviembre	2023-11-24T00:00:00	2024-11-08T18:00:00	8	Radiación solar	2
60865	7	Sololá	701	Sololá	1	Sololá	11	Noviembre	2023-11-24T00:00:00	2024-11-08T19:00:00	2	Temperatura media	16.6
60866	7	Sololá	701	Sololá	1	Sololá	11	Noviembre	2023-11-24T00:00:00	2024-11-08T19:00:00	4	Temperatura máxima	17.1
60867	7	Sololá	701	Sololá	1	Sololá	11	Noviembre	2023-11-24T00:00:00	2024-11-08T19:00:00	3	Temperatura mínima	16.6
60868	7	Sololá	701	Sololá	1	Sololá	11	Noviembre	2023-11-24T00:00:00	2024-11-08T19:00:00	5	Humedad	92
60869	7	Sololá	701	Sololá	1	Sololá	11	Noviembre	2023-11-24T00:00:00	2024-11-08T19:00:00	6	Velocidad del viento	0
60870	7	Sololá	701	Sololá	1	Sololá	11	Noviembre	2023-11-24T00:00:00	2024-11-08T19:00:00	7	Dirección del viento	0
60871	7	Sololá	701	Sololá	1	Sololá	11	Noviembre	2023-11-24T00:00:00	2024-11-08T19:00:00	1	Precipitación	0
60872	7	Sololá	701	Sololá	1	Sololá	11	Noviembre	2023-11-24T00:00:00	2024-11-08T19:00:00	8	Radiación solar	0
60873	7	Sololá	701	Sololá	1	Sololá	11	Noviembre	2023-11-24T00:00:00	2024-11-08T20:00:00	2	Temperatura media	16.8
60874	7	Sololá	701	Sololá	1	Sololá	11	Noviembre	2023-11-24T00:00:00	2024-11-08T20:00:00	4	Temperatura máxima	16.9
60875	7	Sololá	701	Sololá	1	Sololá	11	Noviembre	2023-11-24T00:00:00	2024-11-08T20:00:00	3	Temperatura mínima	16.6
60876	7	Sololá	701	Sololá	1	Sololá	11	Noviembre	2023-11-24T00:00:00	2024-11-08T20:00:00	5	Humedad	92
60877	7	Sololá	701	Sololá	1	Sololá	11	Noviembre	2023-11-24T00:00:00	2024-11-08T20:00:00	6	Velocidad del viento	0
60878	7	Sololá	701	Sololá	1	Sololá	11	Noviembre	2023-11-24T00:00:00	2024-11-08T20:00:00	7	Dirección del viento	0
60879	7	Sololá	701	Sololá	1	Sololá	11	Noviembre	2023-11-24T00:00:00	2024-11-08T20:00:00	1	Precipitación	0
60880	7	Sololá	701	Sololá	1	Sololá	11	Noviembre	2023-11-24T00:00:00	2024-11-08T20:00:00	8	Radiación solar	0
60881	7	Sololá	701	Sololá	1	Sololá	11	Noviembre	2023-11-24T00:00:00	2024-11-08T21:00:00	2	Temperatura media	16.5
60882	7	Sololá	701	Sololá	1	Sololá	11	Noviembre	2023-11-24T00:00:00	2024-11-08T21:00:00	4	Temperatura máxima	16.9
60883	7	Sololá	701	Sololá	1	Sololá	11	Noviembre	2023-11-24T00:00:00	2024-11-08T21:00:00	3	Temperatura mínima	16.5
60884	7	Sololá	701	Sololá	1	Sololá	11	Noviembre	2023-11-24T00:00:00	2024-11-08T21:00:00	5	Humedad	91
60885	7	Sololá	701	Sololá	1	Sololá	11	Noviembre	2023-11-24T00:00:00	2024-11-08T21:00:00	6	Velocidad del viento	0
60886	7	Sololá	701	Sololá	1	Sololá	11	Noviembre	2023-11-24T00:00:00	2024-11-08T21:00:00	7	Dirección del viento	0
60887	7	Sololá	701	Sololá	1	Sololá	11	Noviembre	2023-11-24T00:00:00	2024-11-08T21:00:00	1	Precipitación	0
60888	7	Sololá	701	Sololá	1	Sololá	11	Noviembre	2023-11-24T00:00:00	2024-11-08T21:00:00	8	Radiación solar	0
60889	7	Sololá	701	Sololá	1	Sololá	11	Noviembre	2023-11-24T00:00:00	2024-11-08T22:00:00	2	Temperatura media	15.6
60890	7	Sololá	701	Sololá	1	Sololá	11	Noviembre	2023-11-24T00:00:00	2024-11-08T22:00:00	4	Temperatura máxima	16.6
60891	7	Sololá	701	Sololá	1	Sololá	11	Noviembre	2023-11-24T00:00:00	2024-11-08T22:00:00	3	Temperatura mínima	15.6
60892	7	Sololá	701	Sololá	1	Sololá	11	Noviembre	2023-11-24T00:00:00	2024-11-08T22:00:00	5	Humedad	92
60893	7	Sololá	701	Sololá	1	Sololá	11	Noviembre	2023-11-24T00:00:00	2024-11-08T22:00:00	6	Velocidad del viento	0
60894	7	Sololá	701	Sololá	1	Sololá	11	Noviembre	2023-11-24T00:00:00	2024-11-08T22:00:00	7	Dirección del viento	0
60895	7	Sololá	701	Sololá	1	Sololá	11	Noviembre	2023-11-24T00:00:00	2024-11-08T22:00:00	1	Precipitación	0
60896	7	Sololá	701	Sololá	1	Sololá	11	Noviembre	2023-11-24T00:00:00	2024-11-08T22:00:00	8	Radiación solar	0
60897	7	Sololá	701	Sololá	1	Sololá	11	Noviembre	2023-11-24T00:00:00	2024-11-08T23:00:00	2	Temperatura media	15.8
60898	7	Sololá	701	Sololá	1	Sololá	11	Noviembre	2023-11-24T00:00:00	2024-11-08T23:00:00	4	Temperatura máxima	15.8
60899	7	Sololá	701	Sololá	1	Sololá	11	Noviembre	2023-11-24T00:00:00	2024-11-08T23:00:00	3	Temperatura mínima	15.6
60900	7	Sololá	701	Sololá	1	Sololá	11	Noviembre	2023-11-24T00:00:00	2024-11-08T23:00:00	5	Humedad	92
60901	7	Sololá	701	Sololá	1	Sololá	11	Noviembre	2023-11-24T00:00:00	2024-11-08T23:00:00	6	Velocidad del viento	0
60902	7	Sololá	701	Sololá	1	Sololá	11	Noviembre	2023-11-24T00:00:00	2024-11-08T23:00:00	7	Dirección del viento	0
60903	7	Sololá	701	Sololá	1	Sololá	11	Noviembre	2023-11-24T00:00:00	2024-11-08T23:00:00	1	Precipitación	0
60904	7	Sololá	701	Sololá	1	Sololá	11	Noviembre	2023-11-24T00:00:00	2024-11-08T23:00:00	8	Radiación solar	0
60905	7	Sololá	701	Sololá	1	Sololá	11	Noviembre	2023-11-25T00:00:00	2024-11-08T00:00:00	2	Temperatura media	14.8
60906	7	Sololá	701	Sololá	1	Sololá	11	Noviembre	2023-11-25T00:00:00	2024-11-08T00:00:00	4	Temperatura máxima	15.9
60907	7	Sololá	701	Sololá	1	Sololá	11	Noviembre	2023-11-25T00:00:00	2024-11-08T00:00:00	3	Temperatura mínima	14.8
60908	7	Sololá	701	Sololá	1	Sololá	11	Noviembre	2023-11-25T00:00:00	2024-11-08T00:00:00	5	Humedad	91
60909	7	Sololá	701	Sololá	1	Sololá	11	Noviembre	2023-11-25T00:00:00	2024-11-08T00:00:00	6	Velocidad del viento	0
60910	7	Sololá	701	Sololá	1	Sololá	11	Noviembre	2023-11-25T00:00:00	2024-11-08T00:00:00	7	Dirección del viento	0
60911	7	Sololá	701	Sololá	1	Sololá	11	Noviembre	2023-11-25T00:00:00	2024-11-08T00:00:00	1	Precipitación	0
60912	7	Sololá	701	Sololá	1	Sololá	11	Noviembre	2023-11-25T00:00:00	2024-11-08T00:00:00	8	Radiación solar	0
60913	7	Sololá	701	Sololá	1	Sololá	11	Noviembre	2023-11-25T00:00:00	2024-11-08T01:00:00	2	Temperatura media	13.8
60914	7	Sololá	701	Sololá	1	Sololá	11	Noviembre	2023-11-25T00:00:00	2024-11-08T01:00:00	4	Temperatura máxima	14.8
60915	7	Sololá	701	Sololá	1	Sololá	11	Noviembre	2023-11-25T00:00:00	2024-11-08T01:00:00	3	Temperatura mínima	13.8
60916	7	Sololá	701	Sololá	1	Sololá	11	Noviembre	2023-11-25T00:00:00	2024-11-08T01:00:00	5	Humedad	92
60917	7	Sololá	701	Sololá	1	Sololá	11	Noviembre	2023-11-25T00:00:00	2024-11-08T01:00:00	6	Velocidad del viento	0
60918	7	Sololá	701	Sololá	1	Sololá	11	Noviembre	2023-11-25T00:00:00	2024-11-08T01:00:00	7	Dirección del viento	0
60919	7	Sololá	701	Sololá	1	Sololá	11	Noviembre	2023-11-25T00:00:00	2024-11-08T01:00:00	1	Precipitación	0
60920	7	Sololá	701	Sololá	1	Sololá	11	Noviembre	2023-11-25T00:00:00	2024-11-08T01:00:00	8	Radiación solar	0
60921	7	Sololá	701	Sololá	1	Sololá	11	Noviembre	2023-11-25T00:00:00	2024-11-08T02:00:00	2	Temperatura media	13.7
60922	7	Sololá	701	Sololá	1	Sololá	11	Noviembre	2023-11-25T00:00:00	2024-11-08T02:00:00	4	Temperatura máxima	13.9
60923	7	Sololá	701	Sololá	1	Sololá	11	Noviembre	2023-11-25T00:00:00	2024-11-08T02:00:00	3	Temperatura mínima	13.6
60924	7	Sololá	701	Sololá	1	Sololá	11	Noviembre	2023-11-25T00:00:00	2024-11-08T02:00:00	5	Humedad	91
60925	7	Sololá	701	Sololá	1	Sololá	11	Noviembre	2023-11-25T00:00:00	2024-11-08T02:00:00	6	Velocidad del viento	0
60926	7	Sololá	701	Sololá	1	Sololá	11	Noviembre	2023-11-25T00:00:00	2024-11-08T02:00:00	7	Dirección del viento	0
60927	7	Sololá	701	Sololá	1	Sololá	11	Noviembre	2023-11-25T00:00:00	2024-11-08T02:00:00	1	Precipitación	0
60928	7	Sololá	701	Sololá	1	Sololá	11	Noviembre	2023-11-25T00:00:00	2024-11-08T02:00:00	8	Radiación solar	0
60929	7	Sololá	701	Sololá	1	Sololá	11	Noviembre	2023-11-25T00:00:00	2024-11-08T03:00:00	2	Temperatura media	13.6
60930	7	Sololá	701	Sololá	1	Sololá	11	Noviembre	2023-11-25T00:00:00	2024-11-08T03:00:00	4	Temperatura máxima	13.7
60931	7	Sololá	701	Sololá	1	Sololá	11	Noviembre	2023-11-25T00:00:00	2024-11-08T03:00:00	3	Temperatura mínima	13.3
60932	7	Sololá	701	Sololá	1	Sololá	11	Noviembre	2023-11-25T00:00:00	2024-11-08T03:00:00	5	Humedad	93
60933	7	Sololá	701	Sololá	1	Sololá	11	Noviembre	2023-11-25T00:00:00	2024-11-08T03:00:00	6	Velocidad del viento	0
60934	7	Sololá	701	Sololá	1	Sololá	11	Noviembre	2023-11-25T00:00:00	2024-11-08T03:00:00	7	Dirección del viento	0
60935	7	Sololá	701	Sololá	1	Sololá	11	Noviembre	2023-11-25T00:00:00	2024-11-08T03:00:00	1	Precipitación	0
60936	7	Sololá	701	Sololá	1	Sololá	11	Noviembre	2023-11-25T00:00:00	2024-11-08T03:00:00	8	Radiación solar	0
60937	7	Sololá	701	Sololá	1	Sololá	11	Noviembre	2023-11-25T00:00:00	2024-11-08T04:00:00	2	Temperatura media	14.3
60938	7	Sololá	701	Sololá	1	Sololá	11	Noviembre	2023-11-25T00:00:00	2024-11-08T04:00:00	4	Temperatura máxima	14.3
60939	7	Sololá	701	Sololá	1	Sololá	11	Noviembre	2023-11-25T00:00:00	2024-11-08T04:00:00	3	Temperatura mínima	13.5
60940	7	Sololá	701	Sololá	1	Sololá	11	Noviembre	2023-11-25T00:00:00	2024-11-08T04:00:00	5	Humedad	91
60941	7	Sololá	701	Sololá	1	Sololá	11	Noviembre	2023-11-25T00:00:00	2024-11-08T04:00:00	6	Velocidad del viento	0
60942	7	Sololá	701	Sololá	1	Sololá	11	Noviembre	2023-11-25T00:00:00	2024-11-08T04:00:00	7	Dirección del viento	0
60943	7	Sololá	701	Sololá	1	Sololá	11	Noviembre	2023-11-25T00:00:00	2024-11-08T04:00:00	1	Precipitación	0
60944	7	Sololá	701	Sololá	1	Sololá	11	Noviembre	2023-11-25T00:00:00	2024-11-08T04:00:00	8	Radiación solar	0
60945	7	Sololá	701	Sololá	1	Sololá	11	Noviembre	2023-11-25T00:00:00	2024-11-08T05:00:00	2	Temperatura media	14
60946	7	Sololá	701	Sololá	1	Sololá	11	Noviembre	2023-11-25T00:00:00	2024-11-08T05:00:00	4	Temperatura máxima	14.5
60947	7	Sololá	701	Sololá	1	Sololá	11	Noviembre	2023-11-25T00:00:00	2024-11-08T05:00:00	3	Temperatura mínima	14
60948	7	Sololá	701	Sololá	1	Sololá	11	Noviembre	2023-11-25T00:00:00	2024-11-08T05:00:00	5	Humedad	90
60949	7	Sololá	701	Sololá	1	Sololá	11	Noviembre	2023-11-25T00:00:00	2024-11-08T05:00:00	6	Velocidad del viento	0
60950	7	Sololá	701	Sololá	1	Sololá	11	Noviembre	2023-11-25T00:00:00	2024-11-08T05:00:00	7	Dirección del viento	0
60951	7	Sololá	701	Sololá	1	Sololá	11	Noviembre	2023-11-25T00:00:00	2024-11-08T05:00:00	1	Precipitación	0
60952	7	Sololá	701	Sololá	1	Sololá	11	Noviembre	2023-11-25T00:00:00	2024-11-08T05:00:00	8	Radiación solar	0
60953	7	Sololá	701	Sololá	1	Sololá	11	Noviembre	2023-11-25T00:00:00	2024-11-08T06:00:00	2	Temperatura media	13.3
60954	7	Sololá	701	Sololá	1	Sololá	11	Noviembre	2023-11-25T00:00:00	2024-11-08T06:00:00	4	Temperatura máxima	14
60955	7	Sololá	701	Sololá	1	Sololá	11	Noviembre	2023-11-25T00:00:00	2024-11-08T06:00:00	3	Temperatura mínima	13.3
60956	7	Sololá	701	Sololá	1	Sololá	11	Noviembre	2023-11-25T00:00:00	2024-11-08T06:00:00	5	Humedad	90
60957	7	Sololá	701	Sololá	1	Sololá	11	Noviembre	2023-11-25T00:00:00	2024-11-08T06:00:00	6	Velocidad del viento	0
60958	7	Sololá	701	Sololá	1	Sololá	11	Noviembre	2023-11-25T00:00:00	2024-11-08T06:00:00	7	Dirección del viento	0
60959	7	Sololá	701	Sololá	1	Sololá	11	Noviembre	2023-11-25T00:00:00	2024-11-08T06:00:00	1	Precipitación	0
60960	7	Sololá	701	Sololá	1	Sololá	11	Noviembre	2023-11-25T00:00:00	2024-11-08T06:00:00	8	Radiación solar	0
60961	7	Sololá	701	Sololá	1	Sololá	11	Noviembre	2023-11-25T00:00:00	2024-11-08T07:00:00	2	Temperatura media	13.5
60962	7	Sololá	701	Sololá	1	Sololá	11	Noviembre	2023-11-25T00:00:00	2024-11-08T07:00:00	4	Temperatura máxima	13.5
60963	7	Sololá	701	Sololá	1	Sololá	11	Noviembre	2023-11-25T00:00:00	2024-11-08T07:00:00	3	Temperatura mínima	13.3
60964	7	Sololá	701	Sololá	1	Sololá	11	Noviembre	2023-11-25T00:00:00	2024-11-08T07:00:00	5	Humedad	91
60965	7	Sololá	701	Sololá	1	Sololá	11	Noviembre	2023-11-25T00:00:00	2024-11-08T07:00:00	6	Velocidad del viento	0
60966	7	Sololá	701	Sololá	1	Sololá	11	Noviembre	2023-11-25T00:00:00	2024-11-08T07:00:00	7	Dirección del viento	0
60967	7	Sololá	701	Sololá	1	Sololá	11	Noviembre	2023-11-25T00:00:00	2024-11-08T07:00:00	1	Precipitación	0
60968	7	Sololá	701	Sololá	1	Sololá	11	Noviembre	2023-11-25T00:00:00	2024-11-08T07:00:00	8	Radiación solar	11
60969	7	Sololá	701	Sololá	1	Sololá	11	Noviembre	2023-11-25T00:00:00	2024-11-08T08:00:00	2	Temperatura media	15.7
60970	7	Sololá	701	Sololá	1	Sololá	11	Noviembre	2023-11-25T00:00:00	2024-11-08T08:00:00	4	Temperatura máxima	15.7
60971	7	Sololá	701	Sololá	1	Sololá	11	Noviembre	2023-11-25T00:00:00	2024-11-08T08:00:00	3	Temperatura mínima	13.5
60972	7	Sololá	701	Sololá	1	Sololá	11	Noviembre	2023-11-25T00:00:00	2024-11-08T08:00:00	5	Humedad	87
60973	7	Sololá	701	Sololá	1	Sololá	11	Noviembre	2023-11-25T00:00:00	2024-11-08T08:00:00	6	Velocidad del viento	0
60974	7	Sololá	701	Sololá	1	Sololá	11	Noviembre	2023-11-25T00:00:00	2024-11-08T08:00:00	7	Dirección del viento	0
60975	7	Sololá	701	Sololá	1	Sololá	11	Noviembre	2023-11-25T00:00:00	2024-11-08T08:00:00	1	Precipitación	0
60976	7	Sololá	701	Sololá	1	Sololá	11	Noviembre	2023-11-25T00:00:00	2024-11-08T08:00:00	8	Radiación solar	88
60977	7	Sololá	701	Sololá	1	Sololá	11	Noviembre	2023-11-25T00:00:00	2024-11-08T09:00:00	2	Temperatura media	20.6
60978	7	Sololá	701	Sololá	1	Sololá	11	Noviembre	2023-11-25T00:00:00	2024-11-08T09:00:00	4	Temperatura máxima	20.6
60979	7	Sololá	701	Sololá	1	Sololá	11	Noviembre	2023-11-25T00:00:00	2024-11-08T09:00:00	3	Temperatura mínima	15.7
60980	7	Sololá	701	Sololá	1	Sololá	11	Noviembre	2023-11-25T00:00:00	2024-11-08T09:00:00	5	Humedad	71
60981	7	Sololá	701	Sololá	1	Sololá	11	Noviembre	2023-11-25T00:00:00	2024-11-08T09:00:00	6	Velocidad del viento	0
60982	7	Sololá	701	Sololá	1	Sololá	11	Noviembre	2023-11-25T00:00:00	2024-11-08T09:00:00	7	Dirección del viento	0
60983	7	Sololá	701	Sololá	1	Sololá	11	Noviembre	2023-11-25T00:00:00	2024-11-08T09:00:00	1	Precipitación	0
60984	7	Sololá	701	Sololá	1	Sololá	11	Noviembre	2023-11-25T00:00:00	2024-11-08T09:00:00	8	Radiación solar	499
60985	7	Sololá	701	Sololá	1	Sololá	11	Noviembre	2023-11-25T00:00:00	2024-11-08T10:00:00	2	Temperatura media	22.1
60986	7	Sololá	701	Sololá	1	Sololá	11	Noviembre	2023-11-25T00:00:00	2024-11-08T10:00:00	4	Temperatura máxima	22.2
60987	7	Sololá	701	Sololá	1	Sololá	11	Noviembre	2023-11-25T00:00:00	2024-11-08T10:00:00	3	Temperatura mínima	20.6
60988	7	Sololá	701	Sololá	1	Sololá	11	Noviembre	2023-11-25T00:00:00	2024-11-08T10:00:00	5	Humedad	65
60989	7	Sololá	701	Sololá	1	Sololá	11	Noviembre	2023-11-25T00:00:00	2024-11-08T10:00:00	6	Velocidad del viento	0
60990	7	Sololá	701	Sololá	1	Sololá	11	Noviembre	2023-11-25T00:00:00	2024-11-08T10:00:00	7	Dirección del viento	0
60991	7	Sololá	701	Sololá	1	Sololá	11	Noviembre	2023-11-25T00:00:00	2024-11-08T10:00:00	1	Precipitación	0
60992	7	Sololá	701	Sololá	1	Sololá	11	Noviembre	2023-11-25T00:00:00	2024-11-08T10:00:00	8	Radiación solar	707
60993	7	Sololá	701	Sololá	1	Sololá	11	Noviembre	2023-11-25T00:00:00	2024-11-08T11:00:00	2	Temperatura media	24.5
60994	7	Sololá	701	Sololá	1	Sololá	11	Noviembre	2023-11-25T00:00:00	2024-11-08T11:00:00	4	Temperatura máxima	24.5
60995	7	Sololá	701	Sololá	1	Sololá	11	Noviembre	2023-11-25T00:00:00	2024-11-08T11:00:00	3	Temperatura mínima	22.1
60996	7	Sololá	701	Sololá	1	Sololá	11	Noviembre	2023-11-25T00:00:00	2024-11-08T11:00:00	5	Humedad	61
60997	7	Sololá	701	Sololá	1	Sololá	11	Noviembre	2023-11-25T00:00:00	2024-11-08T11:00:00	6	Velocidad del viento	0
60998	7	Sololá	701	Sololá	1	Sololá	11	Noviembre	2023-11-25T00:00:00	2024-11-08T11:00:00	7	Dirección del viento	0
60999	7	Sololá	701	Sololá	1	Sololá	11	Noviembre	2023-11-25T00:00:00	2024-11-08T11:00:00	1	Precipitación	0
61000	7	Sololá	701	Sololá	1	Sololá	11	Noviembre	2023-11-25T00:00:00	2024-11-08T11:00:00	8	Radiación solar	826
61001	7	Sololá	701	Sololá	1	Sololá	11	Noviembre	2023-11-25T00:00:00	2024-11-08T12:00:00	2	Temperatura media	23.1
61002	7	Sololá	701	Sololá	1	Sololá	11	Noviembre	2023-11-25T00:00:00	2024-11-08T12:00:00	4	Temperatura máxima	25.6
61003	7	Sololá	701	Sololá	1	Sololá	11	Noviembre	2023-11-25T00:00:00	2024-11-08T12:00:00	3	Temperatura mínima	23.1
61004	7	Sololá	701	Sololá	1	Sololá	11	Noviembre	2023-11-25T00:00:00	2024-11-08T12:00:00	5	Humedad	70
61005	7	Sololá	701	Sololá	1	Sololá	11	Noviembre	2023-11-25T00:00:00	2024-11-08T12:00:00	6	Velocidad del viento	0
61006	7	Sololá	701	Sololá	1	Sololá	11	Noviembre	2023-11-25T00:00:00	2024-11-08T12:00:00	7	Dirección del viento	0
61007	7	Sololá	701	Sololá	1	Sololá	11	Noviembre	2023-11-25T00:00:00	2024-11-08T12:00:00	1	Precipitación	0
61008	7	Sololá	701	Sololá	1	Sololá	11	Noviembre	2023-11-25T00:00:00	2024-11-08T12:00:00	8	Radiación solar	580
61009	7	Sololá	701	Sololá	1	Sololá	11	Noviembre	2023-11-25T00:00:00	2024-11-08T13:00:00	2	Temperatura media	21.7
61010	7	Sololá	701	Sololá	1	Sololá	11	Noviembre	2023-11-25T00:00:00	2024-11-08T13:00:00	4	Temperatura máxima	23.1
61011	7	Sololá	701	Sololá	1	Sololá	11	Noviembre	2023-11-25T00:00:00	2024-11-08T13:00:00	3	Temperatura mínima	21.7
61012	7	Sololá	701	Sololá	1	Sololá	11	Noviembre	2023-11-25T00:00:00	2024-11-08T13:00:00	5	Humedad	77
61013	7	Sololá	701	Sololá	1	Sololá	11	Noviembre	2023-11-25T00:00:00	2024-11-08T13:00:00	6	Velocidad del viento	0
61014	7	Sololá	701	Sololá	1	Sololá	11	Noviembre	2023-11-25T00:00:00	2024-11-08T13:00:00	7	Dirección del viento	0
61015	7	Sololá	701	Sololá	1	Sololá	11	Noviembre	2023-11-25T00:00:00	2024-11-08T13:00:00	1	Precipitación	0
61016	7	Sololá	701	Sololá	1	Sololá	11	Noviembre	2023-11-25T00:00:00	2024-11-08T13:00:00	8	Radiación solar	309
61017	7	Sololá	701	Sololá	1	Sololá	11	Noviembre	2023-11-25T00:00:00	2024-11-08T14:00:00	2	Temperatura media	23.2
61018	7	Sololá	701	Sololá	1	Sololá	11	Noviembre	2023-11-25T00:00:00	2024-11-08T14:00:00	4	Temperatura máxima	23.2
61019	7	Sololá	701	Sololá	1	Sololá	11	Noviembre	2023-11-25T00:00:00	2024-11-08T14:00:00	3	Temperatura mínima	21.4
61020	7	Sololá	701	Sololá	1	Sololá	11	Noviembre	2023-11-25T00:00:00	2024-11-08T14:00:00	5	Humedad	76
61021	7	Sololá	701	Sololá	1	Sololá	11	Noviembre	2023-11-25T00:00:00	2024-11-08T14:00:00	6	Velocidad del viento	0
61022	7	Sololá	701	Sololá	1	Sololá	11	Noviembre	2023-11-25T00:00:00	2024-11-08T14:00:00	7	Dirección del viento	0
61023	7	Sololá	701	Sololá	1	Sololá	11	Noviembre	2023-11-25T00:00:00	2024-11-08T14:00:00	1	Precipitación	0
61024	7	Sololá	701	Sololá	1	Sololá	11	Noviembre	2023-11-25T00:00:00	2024-11-08T14:00:00	8	Radiación solar	407
61025	7	Sololá	701	Sololá	1	Sololá	11	Noviembre	2023-11-25T00:00:00	2024-11-08T15:00:00	2	Temperatura media	20.8
61026	7	Sololá	701	Sololá	1	Sololá	11	Noviembre	2023-11-25T00:00:00	2024-11-08T15:00:00	4	Temperatura máxima	23.2
61027	7	Sololá	701	Sololá	1	Sololá	11	Noviembre	2023-11-25T00:00:00	2024-11-08T15:00:00	3	Temperatura mínima	20.8
61028	7	Sololá	701	Sololá	1	Sololá	11	Noviembre	2023-11-25T00:00:00	2024-11-08T15:00:00	5	Humedad	81
61029	7	Sololá	701	Sololá	1	Sololá	11	Noviembre	2023-11-25T00:00:00	2024-11-08T15:00:00	6	Velocidad del viento	0
61030	7	Sololá	701	Sololá	1	Sololá	11	Noviembre	2023-11-25T00:00:00	2024-11-08T15:00:00	7	Dirección del viento	0
61031	7	Sololá	701	Sololá	1	Sololá	11	Noviembre	2023-11-25T00:00:00	2024-11-08T15:00:00	1	Precipitación	0
61032	7	Sololá	701	Sololá	1	Sololá	11	Noviembre	2023-11-25T00:00:00	2024-11-08T15:00:00	8	Radiación solar	255
61033	7	Sololá	701	Sololá	1	Sololá	11	Noviembre	2023-11-25T00:00:00	2024-11-08T16:00:00	2	Temperatura media	19.5
61034	7	Sololá	701	Sololá	1	Sololá	11	Noviembre	2023-11-25T00:00:00	2024-11-08T16:00:00	4	Temperatura máxima	20.8
61035	7	Sololá	701	Sololá	1	Sololá	11	Noviembre	2023-11-25T00:00:00	2024-11-08T16:00:00	3	Temperatura mínima	19.4
61036	7	Sololá	701	Sololá	1	Sololá	11	Noviembre	2023-11-25T00:00:00	2024-11-08T16:00:00	5	Humedad	86
61037	7	Sololá	701	Sololá	1	Sololá	11	Noviembre	2023-11-25T00:00:00	2024-11-08T16:00:00	6	Velocidad del viento	0
61038	7	Sololá	701	Sololá	1	Sololá	11	Noviembre	2023-11-25T00:00:00	2024-11-08T16:00:00	7	Dirección del viento	0
61039	7	Sololá	701	Sololá	1	Sololá	11	Noviembre	2023-11-25T00:00:00	2024-11-08T16:00:00	1	Precipitación	0
61040	7	Sololá	701	Sololá	1	Sololá	11	Noviembre	2023-11-25T00:00:00	2024-11-08T16:00:00	8	Radiación solar	59
61041	7	Sololá	701	Sololá	1	Sololá	11	Noviembre	2023-11-25T00:00:00	2024-11-08T17:00:00	2	Temperatura media	18.6
61042	7	Sololá	701	Sololá	1	Sololá	11	Noviembre	2023-11-25T00:00:00	2024-11-08T17:00:00	4	Temperatura máxima	19.5
61043	7	Sololá	701	Sololá	1	Sololá	11	Noviembre	2023-11-25T00:00:00	2024-11-08T17:00:00	3	Temperatura mínima	18.6
61044	7	Sololá	701	Sololá	1	Sololá	11	Noviembre	2023-11-25T00:00:00	2024-11-08T17:00:00	5	Humedad	89
61045	7	Sololá	701	Sololá	1	Sololá	11	Noviembre	2023-11-25T00:00:00	2024-11-08T17:00:00	6	Velocidad del viento	0
61046	7	Sololá	701	Sololá	1	Sololá	11	Noviembre	2023-11-25T00:00:00	2024-11-08T17:00:00	7	Dirección del viento	0
61047	7	Sololá	701	Sololá	1	Sololá	11	Noviembre	2023-11-25T00:00:00	2024-11-08T17:00:00	1	Precipitación	0
61048	7	Sololá	701	Sololá	1	Sololá	11	Noviembre	2023-11-25T00:00:00	2024-11-08T17:00:00	8	Radiación solar	48
61049	7	Sololá	701	Sololá	1	Sololá	11	Noviembre	2023-11-25T00:00:00	2024-11-08T18:00:00	2	Temperatura media	17.2
61050	7	Sololá	701	Sololá	1	Sololá	11	Noviembre	2023-11-25T00:00:00	2024-11-08T18:00:00	4	Temperatura máxima	18.7
61051	7	Sololá	701	Sololá	1	Sololá	11	Noviembre	2023-11-25T00:00:00	2024-11-08T18:00:00	3	Temperatura mínima	17.2
61052	7	Sololá	701	Sololá	1	Sololá	11	Noviembre	2023-11-25T00:00:00	2024-11-08T18:00:00	5	Humedad	91
61053	7	Sololá	701	Sololá	1	Sololá	11	Noviembre	2023-11-25T00:00:00	2024-11-08T18:00:00	6	Velocidad del viento	0
61054	7	Sololá	701	Sololá	1	Sololá	11	Noviembre	2023-11-25T00:00:00	2024-11-08T18:00:00	7	Dirección del viento	0
61055	7	Sololá	701	Sololá	1	Sololá	11	Noviembre	2023-11-25T00:00:00	2024-11-08T18:00:00	1	Precipitación	0
61056	7	Sololá	701	Sololá	1	Sololá	11	Noviembre	2023-11-25T00:00:00	2024-11-08T18:00:00	8	Radiación solar	2
61057	7	Sololá	701	Sololá	1	Sololá	11	Noviembre	2023-11-25T00:00:00	2024-11-08T19:00:00	2	Temperatura media	15.8
61058	7	Sololá	701	Sololá	1	Sololá	11	Noviembre	2023-11-25T00:00:00	2024-11-08T19:00:00	4	Temperatura máxima	17.3
61059	7	Sololá	701	Sololá	1	Sololá	11	Noviembre	2023-11-25T00:00:00	2024-11-08T19:00:00	3	Temperatura mínima	15.8
61060	7	Sololá	701	Sololá	1	Sololá	11	Noviembre	2023-11-25T00:00:00	2024-11-08T19:00:00	5	Humedad	86
61061	7	Sololá	701	Sololá	1	Sololá	11	Noviembre	2023-11-25T00:00:00	2024-11-08T19:00:00	6	Velocidad del viento	0
61062	7	Sololá	701	Sololá	1	Sololá	11	Noviembre	2023-11-25T00:00:00	2024-11-08T19:00:00	7	Dirección del viento	0
61063	7	Sololá	701	Sololá	1	Sololá	11	Noviembre	2023-11-25T00:00:00	2024-11-08T19:00:00	1	Precipitación	0
61064	7	Sololá	701	Sololá	1	Sololá	11	Noviembre	2023-11-25T00:00:00	2024-11-08T19:00:00	8	Radiación solar	0
61065	7	Sololá	701	Sololá	1	Sololá	11	Noviembre	2023-11-25T00:00:00	2024-11-08T20:00:00	2	Temperatura media	15.2
61066	7	Sololá	701	Sololá	1	Sololá	11	Noviembre	2023-11-25T00:00:00	2024-11-08T20:00:00	4	Temperatura máxima	15.8
61067	7	Sololá	701	Sololá	1	Sololá	11	Noviembre	2023-11-25T00:00:00	2024-11-08T20:00:00	3	Temperatura mínima	15.2
61068	7	Sololá	701	Sololá	1	Sololá	11	Noviembre	2023-11-25T00:00:00	2024-11-08T20:00:00	5	Humedad	87
61069	7	Sololá	701	Sololá	1	Sololá	11	Noviembre	2023-11-25T00:00:00	2024-11-08T20:00:00	6	Velocidad del viento	0
61070	7	Sololá	701	Sololá	1	Sololá	11	Noviembre	2023-11-25T00:00:00	2024-11-08T20:00:00	7	Dirección del viento	0
61071	7	Sololá	701	Sololá	1	Sololá	11	Noviembre	2023-11-25T00:00:00	2024-11-08T20:00:00	1	Precipitación	0
61072	7	Sololá	701	Sololá	1	Sololá	11	Noviembre	2023-11-25T00:00:00	2024-11-08T20:00:00	8	Radiación solar	0
61073	7	Sololá	701	Sololá	1	Sololá	11	Noviembre	2023-11-25T00:00:00	2024-11-08T21:00:00	2	Temperatura media	15
61074	7	Sololá	701	Sololá	1	Sololá	11	Noviembre	2023-11-25T00:00:00	2024-11-08T21:00:00	4	Temperatura máxima	15.2
61075	7	Sololá	701	Sololá	1	Sololá	11	Noviembre	2023-11-25T00:00:00	2024-11-08T21:00:00	3	Temperatura mínima	14.9
61076	7	Sololá	701	Sololá	1	Sololá	11	Noviembre	2023-11-25T00:00:00	2024-11-08T21:00:00	5	Humedad	87
61077	7	Sololá	701	Sololá	1	Sololá	11	Noviembre	2023-11-25T00:00:00	2024-11-08T21:00:00	6	Velocidad del viento	0
61078	7	Sololá	701	Sololá	1	Sololá	11	Noviembre	2023-11-25T00:00:00	2024-11-08T21:00:00	7	Dirección del viento	0
61079	7	Sololá	701	Sololá	1	Sololá	11	Noviembre	2023-11-25T00:00:00	2024-11-08T21:00:00	1	Precipitación	0
61080	7	Sololá	701	Sololá	1	Sololá	11	Noviembre	2023-11-25T00:00:00	2024-11-08T21:00:00	8	Radiación solar	0
61081	7	Sololá	701	Sololá	1	Sololá	11	Noviembre	2023-11-25T00:00:00	2024-11-08T22:00:00	2	Temperatura media	14.7
61082	7	Sololá	701	Sololá	1	Sololá	11	Noviembre	2023-11-25T00:00:00	2024-11-08T22:00:00	4	Temperatura máxima	15.1
61083	7	Sololá	701	Sololá	1	Sololá	11	Noviembre	2023-11-25T00:00:00	2024-11-08T22:00:00	3	Temperatura mínima	14.7
61084	7	Sololá	701	Sololá	1	Sololá	11	Noviembre	2023-11-25T00:00:00	2024-11-08T22:00:00	5	Humedad	86
61085	7	Sololá	701	Sololá	1	Sololá	11	Noviembre	2023-11-25T00:00:00	2024-11-08T22:00:00	6	Velocidad del viento	0
61086	7	Sololá	701	Sololá	1	Sololá	11	Noviembre	2023-11-25T00:00:00	2024-11-08T22:00:00	7	Dirección del viento	0
61087	7	Sololá	701	Sololá	1	Sololá	11	Noviembre	2023-11-25T00:00:00	2024-11-08T22:00:00	1	Precipitación	0
61088	7	Sololá	701	Sololá	1	Sololá	11	Noviembre	2023-11-25T00:00:00	2024-11-08T22:00:00	8	Radiación solar	0
61089	7	Sololá	701	Sololá	1	Sololá	11	Noviembre	2023-11-25T00:00:00	2024-11-08T23:00:00	2	Temperatura media	14.3
61090	7	Sololá	701	Sololá	1	Sololá	11	Noviembre	2023-11-25T00:00:00	2024-11-08T23:00:00	4	Temperatura máxima	14.7
61091	7	Sololá	701	Sololá	1	Sololá	11	Noviembre	2023-11-25T00:00:00	2024-11-08T23:00:00	3	Temperatura mínima	14.3
61092	7	Sololá	701	Sololá	1	Sololá	11	Noviembre	2023-11-25T00:00:00	2024-11-08T23:00:00	5	Humedad	88
61093	7	Sololá	701	Sololá	1	Sololá	11	Noviembre	2023-11-25T00:00:00	2024-11-08T23:00:00	6	Velocidad del viento	0
61094	7	Sololá	701	Sololá	1	Sololá	11	Noviembre	2023-11-25T00:00:00	2024-11-08T23:00:00	7	Dirección del viento	0
61095	7	Sololá	701	Sololá	1	Sololá	11	Noviembre	2023-11-25T00:00:00	2024-11-08T23:00:00	1	Precipitación	0
61096	7	Sololá	701	Sololá	1	Sololá	11	Noviembre	2023-11-25T00:00:00	2024-11-08T23:00:00	8	Radiación solar	0
61097	7	Sololá	701	Sololá	1	Sololá	11	Noviembre	2023-11-26T00:00:00	2024-11-08T00:00:00	2	Temperatura media	14
61098	7	Sololá	701	Sololá	1	Sololá	11	Noviembre	2023-11-26T00:00:00	2024-11-08T00:00:00	4	Temperatura máxima	14.4
61099	7	Sololá	701	Sololá	1	Sololá	11	Noviembre	2023-11-26T00:00:00	2024-11-08T00:00:00	3	Temperatura mínima	14
61100	7	Sololá	701	Sololá	1	Sololá	11	Noviembre	2023-11-26T00:00:00	2024-11-08T00:00:00	5	Humedad	89
61101	7	Sololá	701	Sololá	1	Sololá	11	Noviembre	2023-11-26T00:00:00	2024-11-08T00:00:00	6	Velocidad del viento	0
61102	7	Sololá	701	Sololá	1	Sololá	11	Noviembre	2023-11-26T00:00:00	2024-11-08T00:00:00	7	Dirección del viento	0
61103	7	Sololá	701	Sololá	1	Sololá	11	Noviembre	2023-11-26T00:00:00	2024-11-08T00:00:00	1	Precipitación	0
61104	7	Sololá	701	Sololá	1	Sololá	11	Noviembre	2023-11-26T00:00:00	2024-11-08T00:00:00	8	Radiación solar	0
61105	7	Sololá	701	Sololá	1	Sololá	11	Noviembre	2023-11-26T00:00:00	2024-11-08T01:00:00	2	Temperatura media	13.3
61106	7	Sololá	701	Sololá	1	Sololá	11	Noviembre	2023-11-26T00:00:00	2024-11-08T01:00:00	4	Temperatura máxima	14
61107	7	Sololá	701	Sololá	1	Sololá	11	Noviembre	2023-11-26T00:00:00	2024-11-08T01:00:00	3	Temperatura mínima	13.3
61108	7	Sololá	701	Sololá	1	Sololá	11	Noviembre	2023-11-26T00:00:00	2024-11-08T01:00:00	5	Humedad	89
61109	7	Sololá	701	Sololá	1	Sololá	11	Noviembre	2023-11-26T00:00:00	2024-11-08T01:00:00	6	Velocidad del viento	0
61110	7	Sololá	701	Sololá	1	Sololá	11	Noviembre	2023-11-26T00:00:00	2024-11-08T01:00:00	7	Dirección del viento	0
61111	7	Sololá	701	Sololá	1	Sololá	11	Noviembre	2023-11-26T00:00:00	2024-11-08T01:00:00	1	Precipitación	0
61112	7	Sololá	701	Sololá	1	Sololá	11	Noviembre	2023-11-26T00:00:00	2024-11-08T01:00:00	8	Radiación solar	0
61113	7	Sololá	701	Sololá	1	Sololá	11	Noviembre	2023-11-26T00:00:00	2024-11-08T02:00:00	2	Temperatura media	12.8
61114	7	Sololá	701	Sololá	1	Sololá	11	Noviembre	2023-11-26T00:00:00	2024-11-08T02:00:00	4	Temperatura máxima	13.3
61115	7	Sololá	701	Sololá	1	Sololá	11	Noviembre	2023-11-26T00:00:00	2024-11-08T02:00:00	3	Temperatura mínima	12.7
61116	7	Sololá	701	Sololá	1	Sololá	11	Noviembre	2023-11-26T00:00:00	2024-11-08T02:00:00	5	Humedad	90
61117	7	Sololá	701	Sololá	1	Sololá	11	Noviembre	2023-11-26T00:00:00	2024-11-08T02:00:00	6	Velocidad del viento	0
61118	7	Sololá	701	Sololá	1	Sololá	11	Noviembre	2023-11-26T00:00:00	2024-11-08T02:00:00	7	Dirección del viento	0
61119	7	Sololá	701	Sololá	1	Sololá	11	Noviembre	2023-11-26T00:00:00	2024-11-08T02:00:00	1	Precipitación	0
61120	7	Sololá	701	Sololá	1	Sololá	11	Noviembre	2023-11-26T00:00:00	2024-11-08T02:00:00	8	Radiación solar	0
61121	7	Sololá	701	Sololá	1	Sololá	11	Noviembre	2023-11-26T00:00:00	2024-11-08T03:00:00	2	Temperatura media	12.9
61122	7	Sololá	701	Sololá	1	Sololá	11	Noviembre	2023-11-26T00:00:00	2024-11-08T03:00:00	4	Temperatura máxima	12.9
61123	7	Sololá	701	Sololá	1	Sololá	11	Noviembre	2023-11-26T00:00:00	2024-11-08T03:00:00	3	Temperatura mínima	12.7
61124	7	Sololá	701	Sololá	1	Sololá	11	Noviembre	2023-11-26T00:00:00	2024-11-08T03:00:00	5	Humedad	88
61125	7	Sololá	701	Sololá	1	Sololá	11	Noviembre	2023-11-26T00:00:00	2024-11-08T03:00:00	6	Velocidad del viento	0
61126	7	Sololá	701	Sololá	1	Sololá	11	Noviembre	2023-11-26T00:00:00	2024-11-08T03:00:00	7	Dirección del viento	0
61127	7	Sololá	701	Sololá	1	Sololá	11	Noviembre	2023-11-26T00:00:00	2024-11-08T03:00:00	1	Precipitación	0
61128	7	Sololá	701	Sololá	1	Sololá	11	Noviembre	2023-11-26T00:00:00	2024-11-08T03:00:00	8	Radiación solar	0
61129	7	Sololá	701	Sololá	1	Sololá	11	Noviembre	2023-11-26T00:00:00	2024-11-08T04:00:00	2	Temperatura media	12.1
61130	7	Sololá	701	Sololá	1	Sololá	11	Noviembre	2023-11-26T00:00:00	2024-11-08T04:00:00	4	Temperatura máxima	12.9
61131	7	Sololá	701	Sololá	1	Sololá	11	Noviembre	2023-11-26T00:00:00	2024-11-08T04:00:00	3	Temperatura mínima	12.1
61132	7	Sololá	701	Sololá	1	Sololá	11	Noviembre	2023-11-26T00:00:00	2024-11-08T04:00:00	5	Humedad	91
61133	7	Sololá	701	Sololá	1	Sololá	11	Noviembre	2023-11-26T00:00:00	2024-11-08T04:00:00	6	Velocidad del viento	0
61134	7	Sololá	701	Sololá	1	Sololá	11	Noviembre	2023-11-26T00:00:00	2024-11-08T04:00:00	7	Dirección del viento	0
61135	7	Sololá	701	Sololá	1	Sololá	11	Noviembre	2023-11-26T00:00:00	2024-11-08T04:00:00	1	Precipitación	0
61136	7	Sololá	701	Sololá	1	Sololá	11	Noviembre	2023-11-26T00:00:00	2024-11-08T04:00:00	8	Radiación solar	0
61137	7	Sololá	701	Sololá	1	Sololá	11	Noviembre	2023-11-26T00:00:00	2024-11-08T05:00:00	2	Temperatura media	11.9
61138	7	Sololá	701	Sololá	1	Sololá	11	Noviembre	2023-11-26T00:00:00	2024-11-08T05:00:00	4	Temperatura máxima	12.1
61139	7	Sololá	701	Sololá	1	Sololá	11	Noviembre	2023-11-26T00:00:00	2024-11-08T05:00:00	3	Temperatura mínima	11.8
61140	7	Sololá	701	Sololá	1	Sololá	11	Noviembre	2023-11-26T00:00:00	2024-11-08T05:00:00	5	Humedad	90
61141	7	Sololá	701	Sololá	1	Sololá	11	Noviembre	2023-11-26T00:00:00	2024-11-08T05:00:00	6	Velocidad del viento	0
61142	7	Sololá	701	Sololá	1	Sololá	11	Noviembre	2023-11-26T00:00:00	2024-11-08T05:00:00	7	Dirección del viento	0
61143	7	Sololá	701	Sololá	1	Sololá	11	Noviembre	2023-11-26T00:00:00	2024-11-08T05:00:00	1	Precipitación	0
61144	7	Sololá	701	Sololá	1	Sololá	11	Noviembre	2023-11-26T00:00:00	2024-11-08T05:00:00	8	Radiación solar	0
61145	7	Sololá	701	Sololá	1	Sololá	11	Noviembre	2023-11-26T00:00:00	2024-11-08T06:00:00	2	Temperatura media	11.2
61146	7	Sololá	701	Sololá	1	Sololá	11	Noviembre	2023-11-26T00:00:00	2024-11-08T06:00:00	4	Temperatura máxima	11.9
61147	7	Sololá	701	Sololá	1	Sololá	11	Noviembre	2023-11-26T00:00:00	2024-11-08T06:00:00	3	Temperatura mínima	11.2
61148	7	Sololá	701	Sololá	1	Sololá	11	Noviembre	2023-11-26T00:00:00	2024-11-08T06:00:00	5	Humedad	92
61149	7	Sololá	701	Sololá	1	Sololá	11	Noviembre	2023-11-26T00:00:00	2024-11-08T06:00:00	6	Velocidad del viento	0
61150	7	Sololá	701	Sololá	1	Sololá	11	Noviembre	2023-11-26T00:00:00	2024-11-08T06:00:00	7	Dirección del viento	0
61151	7	Sololá	701	Sololá	1	Sololá	11	Noviembre	2023-11-26T00:00:00	2024-11-08T06:00:00	1	Precipitación	0
61152	7	Sololá	701	Sololá	1	Sololá	11	Noviembre	2023-11-26T00:00:00	2024-11-08T06:00:00	8	Radiación solar	0
61153	7	Sololá	701	Sololá	1	Sololá	11	Noviembre	2023-11-26T00:00:00	2024-11-08T07:00:00	2	Temperatura media	11.9
61154	7	Sololá	701	Sololá	1	Sololá	11	Noviembre	2023-11-26T00:00:00	2024-11-08T07:00:00	4	Temperatura máxima	11.9
61155	7	Sololá	701	Sololá	1	Sololá	11	Noviembre	2023-11-26T00:00:00	2024-11-08T07:00:00	3	Temperatura mínima	11.2
61156	7	Sololá	701	Sololá	1	Sololá	11	Noviembre	2023-11-26T00:00:00	2024-11-08T07:00:00	5	Humedad	92
61157	7	Sololá	701	Sololá	1	Sololá	11	Noviembre	2023-11-26T00:00:00	2024-11-08T07:00:00	6	Velocidad del viento	0
61158	7	Sololá	701	Sololá	1	Sololá	11	Noviembre	2023-11-26T00:00:00	2024-11-08T07:00:00	7	Dirección del viento	0
61159	7	Sololá	701	Sololá	1	Sololá	11	Noviembre	2023-11-26T00:00:00	2024-11-08T07:00:00	1	Precipitación	0
61160	7	Sololá	701	Sololá	1	Sololá	11	Noviembre	2023-11-26T00:00:00	2024-11-08T07:00:00	8	Radiación solar	7
61161	7	Sololá	701	Sololá	1	Sololá	11	Noviembre	2023-11-26T00:00:00	2024-11-08T08:00:00	2	Temperatura media	14.6
61162	7	Sololá	701	Sololá	1	Sololá	11	Noviembre	2023-11-26T00:00:00	2024-11-08T08:00:00	4	Temperatura máxima	14.6
61163	7	Sololá	701	Sololá	1	Sololá	11	Noviembre	2023-11-26T00:00:00	2024-11-08T08:00:00	3	Temperatura mínima	11.9
61164	7	Sololá	701	Sololá	1	Sololá	11	Noviembre	2023-11-26T00:00:00	2024-11-08T08:00:00	5	Humedad	85
61165	7	Sololá	701	Sololá	1	Sololá	11	Noviembre	2023-11-26T00:00:00	2024-11-08T08:00:00	6	Velocidad del viento	0
61166	7	Sololá	701	Sololá	1	Sololá	11	Noviembre	2023-11-26T00:00:00	2024-11-08T08:00:00	7	Dirección del viento	0
61167	7	Sololá	701	Sololá	1	Sololá	11	Noviembre	2023-11-26T00:00:00	2024-11-08T08:00:00	1	Precipitación	0
61168	7	Sololá	701	Sololá	1	Sololá	11	Noviembre	2023-11-26T00:00:00	2024-11-08T08:00:00	8	Radiación solar	70
61169	7	Sololá	701	Sololá	1	Sololá	11	Noviembre	2023-11-26T00:00:00	2024-11-08T09:00:00	2	Temperatura media	20.4
61170	7	Sololá	701	Sololá	1	Sololá	11	Noviembre	2023-11-26T00:00:00	2024-11-08T09:00:00	4	Temperatura máxima	20.4
61171	7	Sololá	701	Sololá	1	Sololá	11	Noviembre	2023-11-26T00:00:00	2024-11-08T09:00:00	3	Temperatura mínima	14.6
61172	7	Sololá	701	Sololá	1	Sololá	11	Noviembre	2023-11-26T00:00:00	2024-11-08T09:00:00	5	Humedad	64
61173	7	Sololá	701	Sololá	1	Sololá	11	Noviembre	2023-11-26T00:00:00	2024-11-08T09:00:00	6	Velocidad del viento	0
61174	7	Sololá	701	Sololá	1	Sololá	11	Noviembre	2023-11-26T00:00:00	2024-11-08T09:00:00	7	Dirección del viento	0
61175	7	Sololá	701	Sololá	1	Sololá	11	Noviembre	2023-11-26T00:00:00	2024-11-08T09:00:00	1	Precipitación	0
61176	7	Sololá	701	Sololá	1	Sololá	11	Noviembre	2023-11-26T00:00:00	2024-11-08T09:00:00	8	Radiación solar	529
61177	7	Sololá	701	Sololá	1	Sololá	11	Noviembre	2023-11-26T00:00:00	2024-11-08T10:00:00	2	Temperatura media	22.5
61178	7	Sololá	701	Sololá	1	Sololá	11	Noviembre	2023-11-26T00:00:00	2024-11-08T10:00:00	4	Temperatura máxima	22.5
61179	7	Sololá	701	Sololá	1	Sololá	11	Noviembre	2023-11-26T00:00:00	2024-11-08T10:00:00	3	Temperatura mínima	20.4
61180	7	Sololá	701	Sololá	1	Sololá	11	Noviembre	2023-11-26T00:00:00	2024-11-08T10:00:00	5	Humedad	60
61181	7	Sololá	701	Sololá	1	Sololá	11	Noviembre	2023-11-26T00:00:00	2024-11-08T10:00:00	6	Velocidad del viento	0
61182	7	Sololá	701	Sololá	1	Sololá	11	Noviembre	2023-11-26T00:00:00	2024-11-08T10:00:00	7	Dirección del viento	0
61183	7	Sololá	701	Sololá	1	Sololá	11	Noviembre	2023-11-26T00:00:00	2024-11-08T10:00:00	1	Precipitación	0
61184	7	Sololá	701	Sololá	1	Sololá	11	Noviembre	2023-11-26T00:00:00	2024-11-08T10:00:00	8	Radiación solar	730
61185	7	Sololá	701	Sololá	1	Sololá	11	Noviembre	2023-11-26T00:00:00	2024-11-08T11:00:00	2	Temperatura media	23.1
61186	7	Sololá	701	Sololá	1	Sololá	11	Noviembre	2023-11-26T00:00:00	2024-11-08T11:00:00	4	Temperatura máxima	23.4
61187	7	Sololá	701	Sololá	1	Sololá	11	Noviembre	2023-11-26T00:00:00	2024-11-08T11:00:00	3	Temperatura mínima	22.5
61188	7	Sololá	701	Sololá	1	Sololá	11	Noviembre	2023-11-26T00:00:00	2024-11-08T11:00:00	5	Humedad	58
61189	7	Sololá	701	Sololá	1	Sololá	11	Noviembre	2023-11-26T00:00:00	2024-11-08T11:00:00	6	Velocidad del viento	0
61190	7	Sololá	701	Sololá	1	Sololá	11	Noviembre	2023-11-26T00:00:00	2024-11-08T11:00:00	7	Dirección del viento	0
61191	7	Sololá	701	Sololá	1	Sololá	11	Noviembre	2023-11-26T00:00:00	2024-11-08T11:00:00	1	Precipitación	0
61192	7	Sololá	701	Sololá	1	Sololá	11	Noviembre	2023-11-26T00:00:00	2024-11-08T11:00:00	8	Radiación solar	835
61193	7	Sololá	701	Sololá	1	Sololá	11	Noviembre	2023-11-26T00:00:00	2024-11-08T12:00:00	2	Temperatura media	23.2
61194	7	Sololá	701	Sololá	1	Sololá	11	Noviembre	2023-11-26T00:00:00	2024-11-08T12:00:00	4	Temperatura máxima	23.9
61195	7	Sololá	701	Sololá	1	Sololá	11	Noviembre	2023-11-26T00:00:00	2024-11-08T12:00:00	3	Temperatura mínima	23
61196	7	Sololá	701	Sololá	1	Sololá	11	Noviembre	2023-11-26T00:00:00	2024-11-08T12:00:00	5	Humedad	61
61197	7	Sololá	701	Sololá	1	Sololá	11	Noviembre	2023-11-26T00:00:00	2024-11-08T12:00:00	6	Velocidad del viento	0
61198	7	Sololá	701	Sololá	1	Sololá	11	Noviembre	2023-11-26T00:00:00	2024-11-08T12:00:00	7	Dirección del viento	0
61199	7	Sololá	701	Sololá	1	Sololá	11	Noviembre	2023-11-26T00:00:00	2024-11-08T12:00:00	1	Precipitación	0
61200	7	Sololá	701	Sololá	1	Sololá	11	Noviembre	2023-11-26T00:00:00	2024-11-08T12:00:00	8	Radiación solar	940
61201	7	Sololá	701	Sololá	1	Sololá	11	Noviembre	2023-11-26T00:00:00	2024-11-08T13:00:00	2	Temperatura media	23.5
61202	7	Sololá	701	Sololá	1	Sololá	11	Noviembre	2023-11-26T00:00:00	2024-11-08T13:00:00	4	Temperatura máxima	23.8
61203	7	Sololá	701	Sololá	1	Sololá	11	Noviembre	2023-11-26T00:00:00	2024-11-08T13:00:00	3	Temperatura mínima	23
61204	7	Sololá	701	Sololá	1	Sololá	11	Noviembre	2023-11-26T00:00:00	2024-11-08T13:00:00	5	Humedad	67
61205	7	Sololá	701	Sololá	1	Sololá	11	Noviembre	2023-11-26T00:00:00	2024-11-08T13:00:00	6	Velocidad del viento	0
61206	7	Sololá	701	Sololá	1	Sololá	11	Noviembre	2023-11-26T00:00:00	2024-11-08T13:00:00	7	Dirección del viento	0
61207	7	Sololá	701	Sololá	1	Sololá	11	Noviembre	2023-11-26T00:00:00	2024-11-08T13:00:00	1	Precipitación	0
61208	7	Sololá	701	Sololá	1	Sololá	11	Noviembre	2023-11-26T00:00:00	2024-11-08T13:00:00	8	Radiación solar	535
61209	7	Sololá	701	Sololá	1	Sololá	11	Noviembre	2023-11-26T00:00:00	2024-11-08T14:00:00	2	Temperatura media	22.9
61210	7	Sololá	701	Sololá	1	Sololá	11	Noviembre	2023-11-26T00:00:00	2024-11-08T14:00:00	4	Temperatura máxima	23.6
61211	7	Sololá	701	Sololá	1	Sololá	11	Noviembre	2023-11-26T00:00:00	2024-11-08T14:00:00	3	Temperatura mínima	22.9
61212	7	Sololá	701	Sololá	1	Sololá	11	Noviembre	2023-11-26T00:00:00	2024-11-08T14:00:00	5	Humedad	66
61213	7	Sololá	701	Sololá	1	Sololá	11	Noviembre	2023-11-26T00:00:00	2024-11-08T14:00:00	6	Velocidad del viento	0
61214	7	Sololá	701	Sololá	1	Sololá	11	Noviembre	2023-11-26T00:00:00	2024-11-08T14:00:00	7	Dirección del viento	0
61215	7	Sololá	701	Sololá	1	Sololá	11	Noviembre	2023-11-26T00:00:00	2024-11-08T14:00:00	1	Precipitación	0
61216	7	Sololá	701	Sololá	1	Sololá	11	Noviembre	2023-11-26T00:00:00	2024-11-08T14:00:00	8	Radiación solar	669
61217	7	Sololá	701	Sololá	1	Sololá	11	Noviembre	2023-11-26T00:00:00	2024-11-08T15:00:00	2	Temperatura media	22.2
61218	7	Sololá	701	Sololá	1	Sololá	11	Noviembre	2023-11-26T00:00:00	2024-11-08T15:00:00	4	Temperatura máxima	23.1
61219	7	Sololá	701	Sololá	1	Sololá	11	Noviembre	2023-11-26T00:00:00	2024-11-08T15:00:00	3	Temperatura mínima	22.2
61220	7	Sololá	701	Sololá	1	Sololá	11	Noviembre	2023-11-26T00:00:00	2024-11-08T15:00:00	5	Humedad	71
61221	7	Sololá	701	Sololá	1	Sololá	11	Noviembre	2023-11-26T00:00:00	2024-11-08T15:00:00	6	Velocidad del viento	0
61222	7	Sololá	701	Sololá	1	Sololá	11	Noviembre	2023-11-26T00:00:00	2024-11-08T15:00:00	7	Dirección del viento	0
61223	7	Sololá	701	Sololá	1	Sololá	11	Noviembre	2023-11-26T00:00:00	2024-11-08T15:00:00	1	Precipitación	0
61224	7	Sololá	701	Sololá	1	Sololá	11	Noviembre	2023-11-26T00:00:00	2024-11-08T15:00:00	8	Radiación solar	187
61225	7	Sololá	701	Sololá	1	Sololá	11	Noviembre	2023-11-26T00:00:00	2024-11-08T16:00:00	2	Temperatura media	22.3
61226	7	Sololá	701	Sololá	1	Sololá	11	Noviembre	2023-11-26T00:00:00	2024-11-08T16:00:00	4	Temperatura máxima	22.4
61227	7	Sololá	701	Sololá	1	Sololá	11	Noviembre	2023-11-26T00:00:00	2024-11-08T16:00:00	3	Temperatura mínima	21.8
61228	7	Sololá	701	Sololá	1	Sololá	11	Noviembre	2023-11-26T00:00:00	2024-11-08T16:00:00	5	Humedad	71
61229	7	Sololá	701	Sololá	1	Sololá	11	Noviembre	2023-11-26T00:00:00	2024-11-08T16:00:00	6	Velocidad del viento	0
61230	7	Sololá	701	Sololá	1	Sololá	11	Noviembre	2023-11-26T00:00:00	2024-11-08T16:00:00	7	Dirección del viento	0
61231	7	Sololá	701	Sololá	1	Sololá	11	Noviembre	2023-11-26T00:00:00	2024-11-08T16:00:00	1	Precipitación	0
61232	7	Sololá	701	Sololá	1	Sololá	11	Noviembre	2023-11-26T00:00:00	2024-11-08T16:00:00	8	Radiación solar	104
61233	7	Sololá	701	Sololá	1	Sololá	11	Noviembre	2023-11-26T00:00:00	2024-11-08T17:00:00	2	Temperatura media	21.3
61234	7	Sololá	701	Sololá	1	Sololá	11	Noviembre	2023-11-26T00:00:00	2024-11-08T17:00:00	4	Temperatura máxima	22.2
61235	7	Sololá	701	Sololá	1	Sololá	11	Noviembre	2023-11-26T00:00:00	2024-11-08T17:00:00	3	Temperatura mínima	21.3
61236	7	Sololá	701	Sololá	1	Sololá	11	Noviembre	2023-11-26T00:00:00	2024-11-08T17:00:00	5	Humedad	57
61237	7	Sololá	701	Sololá	1	Sololá	11	Noviembre	2023-11-26T00:00:00	2024-11-08T17:00:00	6	Velocidad del viento	0
61238	7	Sololá	701	Sololá	1	Sololá	11	Noviembre	2023-11-26T00:00:00	2024-11-08T17:00:00	7	Dirección del viento	0
61239	7	Sololá	701	Sololá	1	Sololá	11	Noviembre	2023-11-26T00:00:00	2024-11-08T17:00:00	1	Precipitación	0
61240	7	Sololá	701	Sololá	1	Sololá	11	Noviembre	2023-11-26T00:00:00	2024-11-08T17:00:00	8	Radiación solar	78
61241	7	Sololá	701	Sololá	1	Sololá	11	Noviembre	2023-11-26T00:00:00	2024-11-08T18:00:00	2	Temperatura media	18.1
61242	7	Sololá	701	Sololá	1	Sololá	11	Noviembre	2023-11-26T00:00:00	2024-11-08T18:00:00	4	Temperatura máxima	21.3
61243	7	Sololá	701	Sololá	1	Sololá	11	Noviembre	2023-11-26T00:00:00	2024-11-08T18:00:00	3	Temperatura mínima	18.1
61244	7	Sololá	701	Sololá	1	Sololá	11	Noviembre	2023-11-26T00:00:00	2024-11-08T18:00:00	5	Humedad	70
61245	7	Sololá	701	Sololá	1	Sololá	11	Noviembre	2023-11-26T00:00:00	2024-11-08T18:00:00	6	Velocidad del viento	0
61246	7	Sololá	701	Sololá	1	Sololá	11	Noviembre	2023-11-26T00:00:00	2024-11-08T18:00:00	7	Dirección del viento	0
61247	7	Sololá	701	Sololá	1	Sololá	11	Noviembre	2023-11-26T00:00:00	2024-11-08T18:00:00	1	Precipitación	0
61248	7	Sololá	701	Sololá	1	Sololá	11	Noviembre	2023-11-26T00:00:00	2024-11-08T18:00:00	8	Radiación solar	7
61249	7	Sololá	701	Sololá	1	Sololá	11	Noviembre	2023-11-26T00:00:00	2024-11-08T19:00:00	2	Temperatura media	16
61250	7	Sololá	701	Sololá	1	Sololá	11	Noviembre	2023-11-26T00:00:00	2024-11-08T19:00:00	4	Temperatura máxima	18.1
61251	7	Sololá	701	Sololá	1	Sololá	11	Noviembre	2023-11-26T00:00:00	2024-11-08T19:00:00	3	Temperatura mínima	16
61252	7	Sololá	701	Sololá	1	Sololá	11	Noviembre	2023-11-26T00:00:00	2024-11-08T19:00:00	5	Humedad	80
61253	7	Sololá	701	Sololá	1	Sololá	11	Noviembre	2023-11-26T00:00:00	2024-11-08T19:00:00	6	Velocidad del viento	0
61254	7	Sololá	701	Sololá	1	Sololá	11	Noviembre	2023-11-26T00:00:00	2024-11-08T19:00:00	7	Dirección del viento	0
61255	7	Sololá	701	Sololá	1	Sololá	11	Noviembre	2023-11-26T00:00:00	2024-11-08T19:00:00	1	Precipitación	0
61256	7	Sololá	701	Sololá	1	Sololá	11	Noviembre	2023-11-26T00:00:00	2024-11-08T19:00:00	8	Radiación solar	0
61257	7	Sololá	701	Sololá	1	Sololá	11	Noviembre	2023-11-26T00:00:00	2024-11-08T20:00:00	2	Temperatura media	16.1
61258	7	Sololá	701	Sololá	1	Sololá	11	Noviembre	2023-11-26T00:00:00	2024-11-08T20:00:00	4	Temperatura máxima	16.2
61259	7	Sololá	701	Sololá	1	Sololá	11	Noviembre	2023-11-26T00:00:00	2024-11-08T20:00:00	3	Temperatura mínima	16
61260	7	Sololá	701	Sololá	1	Sololá	11	Noviembre	2023-11-26T00:00:00	2024-11-08T20:00:00	5	Humedad	83
61261	7	Sololá	701	Sololá	1	Sololá	11	Noviembre	2023-11-26T00:00:00	2024-11-08T20:00:00	6	Velocidad del viento	0
61262	7	Sololá	701	Sololá	1	Sololá	11	Noviembre	2023-11-26T00:00:00	2024-11-08T20:00:00	7	Dirección del viento	0
61263	7	Sololá	701	Sololá	1	Sololá	11	Noviembre	2023-11-26T00:00:00	2024-11-08T20:00:00	1	Precipitación	0
61264	7	Sololá	701	Sololá	1	Sololá	11	Noviembre	2023-11-26T00:00:00	2024-11-08T20:00:00	8	Radiación solar	0
61265	7	Sololá	701	Sololá	1	Sololá	11	Noviembre	2023-11-26T00:00:00	2024-11-08T21:00:00	2	Temperatura media	15.9
61266	7	Sololá	701	Sololá	1	Sololá	11	Noviembre	2023-11-26T00:00:00	2024-11-08T21:00:00	4	Temperatura máxima	16.2
61267	7	Sololá	701	Sololá	1	Sololá	11	Noviembre	2023-11-26T00:00:00	2024-11-08T21:00:00	3	Temperatura mínima	15.9
61268	7	Sololá	701	Sololá	1	Sololá	11	Noviembre	2023-11-26T00:00:00	2024-11-08T21:00:00	5	Humedad	82
61269	7	Sololá	701	Sololá	1	Sololá	11	Noviembre	2023-11-26T00:00:00	2024-11-08T21:00:00	6	Velocidad del viento	0
61270	7	Sololá	701	Sololá	1	Sololá	11	Noviembre	2023-11-26T00:00:00	2024-11-08T21:00:00	7	Dirección del viento	0
61271	7	Sololá	701	Sololá	1	Sololá	11	Noviembre	2023-11-26T00:00:00	2024-11-08T21:00:00	1	Precipitación	0
61272	7	Sololá	701	Sololá	1	Sololá	11	Noviembre	2023-11-26T00:00:00	2024-11-08T21:00:00	8	Radiación solar	0
61273	7	Sololá	701	Sololá	1	Sololá	11	Noviembre	2023-11-26T00:00:00	2024-11-08T22:00:00	2	Temperatura media	15.5
61274	7	Sololá	701	Sololá	1	Sololá	11	Noviembre	2023-11-26T00:00:00	2024-11-08T22:00:00	4	Temperatura máxima	16
61275	7	Sololá	701	Sololá	1	Sololá	11	Noviembre	2023-11-26T00:00:00	2024-11-08T22:00:00	3	Temperatura mínima	15.4
61276	7	Sololá	701	Sololá	1	Sololá	11	Noviembre	2023-11-26T00:00:00	2024-11-08T22:00:00	5	Humedad	79
61277	7	Sololá	701	Sololá	1	Sololá	11	Noviembre	2023-11-26T00:00:00	2024-11-08T22:00:00	6	Velocidad del viento	0
61278	7	Sololá	701	Sololá	1	Sololá	11	Noviembre	2023-11-26T00:00:00	2024-11-08T22:00:00	7	Dirección del viento	0
61279	7	Sololá	701	Sololá	1	Sololá	11	Noviembre	2023-11-26T00:00:00	2024-11-08T22:00:00	1	Precipitación	0
61280	7	Sololá	701	Sololá	1	Sololá	11	Noviembre	2023-11-26T00:00:00	2024-11-08T22:00:00	8	Radiación solar	0
61281	7	Sololá	701	Sololá	1	Sololá	11	Noviembre	2023-11-26T00:00:00	2024-11-08T23:00:00	2	Temperatura media	14.9
61282	7	Sololá	701	Sololá	1	Sololá	11	Noviembre	2023-11-26T00:00:00	2024-11-08T23:00:00	4	Temperatura máxima	15.5
61283	7	Sololá	701	Sololá	1	Sololá	11	Noviembre	2023-11-26T00:00:00	2024-11-08T23:00:00	3	Temperatura mínima	14.9
61284	7	Sololá	701	Sololá	1	Sololá	11	Noviembre	2023-11-26T00:00:00	2024-11-08T23:00:00	5	Humedad	78
61285	7	Sololá	701	Sololá	1	Sololá	11	Noviembre	2023-11-26T00:00:00	2024-11-08T23:00:00	6	Velocidad del viento	0
61286	7	Sololá	701	Sololá	1	Sololá	11	Noviembre	2023-11-26T00:00:00	2024-11-08T23:00:00	7	Dirección del viento	0
61287	7	Sololá	701	Sololá	1	Sololá	11	Noviembre	2023-11-26T00:00:00	2024-11-08T23:00:00	1	Precipitación	0
61288	7	Sololá	701	Sololá	1	Sololá	11	Noviembre	2023-11-26T00:00:00	2024-11-08T23:00:00	8	Radiación solar	0
61289	7	Sololá	701	Sololá	1	Sololá	11	Noviembre	2023-11-27T00:00:00	2024-11-08T00:00:00	2	Temperatura media	14.6
61290	7	Sololá	701	Sololá	1	Sololá	11	Noviembre	2023-11-27T00:00:00	2024-11-08T00:00:00	4	Temperatura máxima	14.9
61291	7	Sololá	701	Sololá	1	Sololá	11	Noviembre	2023-11-27T00:00:00	2024-11-08T00:00:00	3	Temperatura mínima	14.6
61292	7	Sololá	701	Sololá	1	Sololá	11	Noviembre	2023-11-27T00:00:00	2024-11-08T00:00:00	5	Humedad	81
61293	7	Sololá	701	Sololá	1	Sololá	11	Noviembre	2023-11-27T00:00:00	2024-11-08T00:00:00	6	Velocidad del viento	0
61294	7	Sololá	701	Sololá	1	Sololá	11	Noviembre	2023-11-27T00:00:00	2024-11-08T00:00:00	7	Dirección del viento	0
61295	7	Sololá	701	Sololá	1	Sololá	11	Noviembre	2023-11-27T00:00:00	2024-11-08T00:00:00	1	Precipitación	0
61296	7	Sololá	701	Sololá	1	Sololá	11	Noviembre	2023-11-27T00:00:00	2024-11-08T00:00:00	8	Radiación solar	0
61297	7	Sololá	701	Sololá	1	Sololá	11	Noviembre	2023-11-27T00:00:00	2024-11-08T01:00:00	2	Temperatura media	14.3
61298	7	Sololá	701	Sololá	1	Sololá	11	Noviembre	2023-11-27T00:00:00	2024-11-08T01:00:00	4	Temperatura máxima	14.6
61299	7	Sololá	701	Sololá	1	Sololá	11	Noviembre	2023-11-27T00:00:00	2024-11-08T01:00:00	3	Temperatura mínima	14.2
61300	7	Sololá	701	Sololá	1	Sololá	11	Noviembre	2023-11-27T00:00:00	2024-11-08T01:00:00	5	Humedad	79
61301	7	Sololá	701	Sololá	1	Sololá	11	Noviembre	2023-11-27T00:00:00	2024-11-08T01:00:00	6	Velocidad del viento	0
61302	7	Sololá	701	Sololá	1	Sololá	11	Noviembre	2023-11-27T00:00:00	2024-11-08T01:00:00	7	Dirección del viento	0
61303	7	Sololá	701	Sololá	1	Sololá	11	Noviembre	2023-11-27T00:00:00	2024-11-08T01:00:00	1	Precipitación	0
61304	7	Sololá	701	Sololá	1	Sololá	11	Noviembre	2023-11-27T00:00:00	2024-11-08T01:00:00	8	Radiación solar	0
61305	7	Sololá	701	Sololá	1	Sololá	11	Noviembre	2023-11-27T00:00:00	2024-11-08T02:00:00	2	Temperatura media	13.9
61306	7	Sololá	701	Sololá	1	Sololá	11	Noviembre	2023-11-27T00:00:00	2024-11-08T02:00:00	4	Temperatura máxima	14.3
61307	7	Sololá	701	Sololá	1	Sololá	11	Noviembre	2023-11-27T00:00:00	2024-11-08T02:00:00	3	Temperatura mínima	13.9
61308	7	Sololá	701	Sololá	1	Sololá	11	Noviembre	2023-11-27T00:00:00	2024-11-08T02:00:00	5	Humedad	79
61309	7	Sololá	701	Sololá	1	Sololá	11	Noviembre	2023-11-27T00:00:00	2024-11-08T02:00:00	6	Velocidad del viento	0
61310	7	Sololá	701	Sololá	1	Sololá	11	Noviembre	2023-11-27T00:00:00	2024-11-08T02:00:00	7	Dirección del viento	0
61311	7	Sololá	701	Sololá	1	Sololá	11	Noviembre	2023-11-27T00:00:00	2024-11-08T02:00:00	1	Precipitación	0
61312	7	Sololá	701	Sololá	1	Sololá	11	Noviembre	2023-11-27T00:00:00	2024-11-08T02:00:00	8	Radiación solar	0
61313	7	Sololá	701	Sololá	1	Sololá	11	Noviembre	2023-11-27T00:00:00	2024-11-08T03:00:00	2	Temperatura media	14
61314	7	Sololá	701	Sololá	1	Sololá	11	Noviembre	2023-11-27T00:00:00	2024-11-08T03:00:00	4	Temperatura máxima	14
61315	7	Sololá	701	Sololá	1	Sololá	11	Noviembre	2023-11-27T00:00:00	2024-11-08T03:00:00	3	Temperatura mínima	13.9
61316	7	Sololá	701	Sololá	1	Sololá	11	Noviembre	2023-11-27T00:00:00	2024-11-08T03:00:00	5	Humedad	80
61317	7	Sololá	701	Sololá	1	Sololá	11	Noviembre	2023-11-27T00:00:00	2024-11-08T03:00:00	6	Velocidad del viento	0
61318	7	Sololá	701	Sololá	1	Sololá	11	Noviembre	2023-11-27T00:00:00	2024-11-08T03:00:00	7	Dirección del viento	0
61319	7	Sololá	701	Sololá	1	Sololá	11	Noviembre	2023-11-27T00:00:00	2024-11-08T03:00:00	1	Precipitación	0
61320	7	Sololá	701	Sololá	1	Sololá	11	Noviembre	2023-11-27T00:00:00	2024-11-08T03:00:00	8	Radiación solar	0
61321	7	Sololá	701	Sololá	1	Sololá	11	Noviembre	2023-11-27T00:00:00	2024-11-08T04:00:00	2	Temperatura media	14.1
61322	7	Sololá	701	Sololá	1	Sololá	11	Noviembre	2023-11-27T00:00:00	2024-11-08T04:00:00	4	Temperatura máxima	14.2
61323	7	Sololá	701	Sololá	1	Sololá	11	Noviembre	2023-11-27T00:00:00	2024-11-08T04:00:00	3	Temperatura mínima	14
61324	7	Sololá	701	Sololá	1	Sololá	11	Noviembre	2023-11-27T00:00:00	2024-11-08T04:00:00	5	Humedad	77
61325	7	Sololá	701	Sololá	1	Sololá	11	Noviembre	2023-11-27T00:00:00	2024-11-08T04:00:00	6	Velocidad del viento	0
61326	7	Sololá	701	Sololá	1	Sololá	11	Noviembre	2023-11-27T00:00:00	2024-11-08T04:00:00	7	Dirección del viento	0
61327	7	Sololá	701	Sololá	1	Sololá	11	Noviembre	2023-11-27T00:00:00	2024-11-08T04:00:00	1	Precipitación	0
61328	7	Sololá	701	Sololá	1	Sololá	11	Noviembre	2023-11-27T00:00:00	2024-11-08T04:00:00	8	Radiación solar	0
61329	7	Sololá	701	Sololá	1	Sololá	11	Noviembre	2023-11-27T00:00:00	2024-11-08T05:00:00	2	Temperatura media	14.1
61330	7	Sololá	701	Sololá	1	Sololá	11	Noviembre	2023-11-27T00:00:00	2024-11-08T05:00:00	4	Temperatura máxima	14.2
61331	7	Sololá	701	Sololá	1	Sololá	11	Noviembre	2023-11-27T00:00:00	2024-11-08T05:00:00	3	Temperatura mínima	14
61332	7	Sololá	701	Sololá	1	Sololá	11	Noviembre	2023-11-27T00:00:00	2024-11-08T05:00:00	5	Humedad	70
61333	7	Sololá	701	Sololá	1	Sololá	11	Noviembre	2023-11-27T00:00:00	2024-11-08T05:00:00	6	Velocidad del viento	1.6
61334	7	Sololá	701	Sololá	1	Sololá	11	Noviembre	2023-11-27T00:00:00	2024-11-08T05:00:00	7	Dirección del viento	1.61
61335	7	Sololá	701	Sololá	1	Sololá	11	Noviembre	2023-11-27T00:00:00	2024-11-08T05:00:00	1	Precipitación	0
61336	7	Sololá	701	Sololá	1	Sololá	11	Noviembre	2023-11-27T00:00:00	2024-11-08T05:00:00	8	Radiación solar	0
61337	7	Sololá	701	Sololá	1	Sololá	11	Noviembre	2023-11-27T00:00:00	2024-11-08T06:00:00	2	Temperatura media	13.8
61338	7	Sololá	701	Sololá	1	Sololá	11	Noviembre	2023-11-27T00:00:00	2024-11-08T06:00:00	4	Temperatura máxima	14.1
61339	7	Sololá	701	Sololá	1	Sololá	11	Noviembre	2023-11-27T00:00:00	2024-11-08T06:00:00	3	Temperatura mínima	13.8
61340	7	Sololá	701	Sololá	1	Sololá	11	Noviembre	2023-11-27T00:00:00	2024-11-08T06:00:00	5	Humedad	77
61341	7	Sololá	701	Sololá	1	Sololá	11	Noviembre	2023-11-27T00:00:00	2024-11-08T06:00:00	6	Velocidad del viento	1.6
61342	7	Sololá	701	Sololá	1	Sololá	11	Noviembre	2023-11-27T00:00:00	2024-11-08T06:00:00	7	Dirección del viento	1.61
61343	7	Sololá	701	Sololá	1	Sololá	11	Noviembre	2023-11-27T00:00:00	2024-11-08T06:00:00	1	Precipitación	0
61344	7	Sololá	701	Sololá	1	Sololá	11	Noviembre	2023-11-27T00:00:00	2024-11-08T06:00:00	8	Radiación solar	0
61345	7	Sololá	701	Sololá	1	Sololá	11	Noviembre	2023-11-27T00:00:00	2024-11-08T07:00:00	2	Temperatura media	13.8
61346	7	Sololá	701	Sololá	1	Sololá	11	Noviembre	2023-11-27T00:00:00	2024-11-08T07:00:00	4	Temperatura máxima	13.8
61347	7	Sololá	701	Sololá	1	Sololá	11	Noviembre	2023-11-27T00:00:00	2024-11-08T07:00:00	3	Temperatura mínima	13.6
61348	7	Sololá	701	Sololá	1	Sololá	11	Noviembre	2023-11-27T00:00:00	2024-11-08T07:00:00	5	Humedad	81
61349	7	Sololá	701	Sololá	1	Sololá	11	Noviembre	2023-11-27T00:00:00	2024-11-08T07:00:00	6	Velocidad del viento	1.6
61350	7	Sololá	701	Sololá	1	Sololá	11	Noviembre	2023-11-27T00:00:00	2024-11-08T07:00:00	7	Dirección del viento	1.61
61351	7	Sololá	701	Sololá	1	Sololá	11	Noviembre	2023-11-27T00:00:00	2024-11-08T07:00:00	1	Precipitación	0
61352	7	Sololá	701	Sololá	1	Sololá	11	Noviembre	2023-11-27T00:00:00	2024-11-08T07:00:00	8	Radiación solar	6
61353	7	Sololá	701	Sololá	1	Sololá	11	Noviembre	2023-11-27T00:00:00	2024-11-08T08:00:00	2	Temperatura media	15.7
61354	7	Sololá	701	Sololá	1	Sololá	11	Noviembre	2023-11-27T00:00:00	2024-11-08T08:00:00	4	Temperatura máxima	15.7
61355	7	Sololá	701	Sololá	1	Sololá	11	Noviembre	2023-11-27T00:00:00	2024-11-08T08:00:00	3	Temperatura mínima	13.7
61356	7	Sololá	701	Sololá	1	Sololá	11	Noviembre	2023-11-27T00:00:00	2024-11-08T08:00:00	5	Humedad	78
61357	7	Sololá	701	Sololá	1	Sololá	11	Noviembre	2023-11-27T00:00:00	2024-11-08T08:00:00	6	Velocidad del viento	1.6
61358	7	Sololá	701	Sololá	1	Sololá	11	Noviembre	2023-11-27T00:00:00	2024-11-08T08:00:00	7	Dirección del viento	1.61
61359	7	Sololá	701	Sololá	1	Sololá	11	Noviembre	2023-11-27T00:00:00	2024-11-08T08:00:00	1	Precipitación	0
61360	7	Sololá	701	Sololá	1	Sololá	11	Noviembre	2023-11-27T00:00:00	2024-11-08T08:00:00	8	Radiación solar	73
61361	7	Sololá	701	Sololá	1	Sololá	11	Noviembre	2023-11-27T00:00:00	2024-11-08T09:00:00	2	Temperatura media	18.7
61362	7	Sololá	701	Sololá	1	Sololá	11	Noviembre	2023-11-27T00:00:00	2024-11-08T09:00:00	4	Temperatura máxima	18.7
61363	7	Sololá	701	Sololá	1	Sololá	11	Noviembre	2023-11-27T00:00:00	2024-11-08T09:00:00	3	Temperatura mínima	15.7
61364	7	Sololá	701	Sololá	1	Sololá	11	Noviembre	2023-11-27T00:00:00	2024-11-08T09:00:00	5	Humedad	73
61365	7	Sololá	701	Sololá	1	Sololá	11	Noviembre	2023-11-27T00:00:00	2024-11-08T09:00:00	6	Velocidad del viento	0
61366	7	Sololá	701	Sololá	1	Sololá	11	Noviembre	2023-11-27T00:00:00	2024-11-08T09:00:00	7	Dirección del viento	0
61367	7	Sololá	701	Sololá	1	Sololá	11	Noviembre	2023-11-27T00:00:00	2024-11-08T09:00:00	1	Precipitación	0
61368	7	Sololá	701	Sololá	1	Sololá	11	Noviembre	2023-11-27T00:00:00	2024-11-08T09:00:00	8	Radiación solar	542
61369	7	Sololá	701	Sololá	1	Sololá	11	Noviembre	2023-11-27T00:00:00	2024-11-08T10:00:00	2	Temperatura media	21.2
61370	7	Sololá	701	Sololá	1	Sololá	11	Noviembre	2023-11-27T00:00:00	2024-11-08T10:00:00	4	Temperatura máxima	21.2
61371	7	Sololá	701	Sololá	1	Sololá	11	Noviembre	2023-11-27T00:00:00	2024-11-08T10:00:00	3	Temperatura mínima	18.7
61372	7	Sololá	701	Sololá	1	Sololá	11	Noviembre	2023-11-27T00:00:00	2024-11-08T10:00:00	5	Humedad	66
61373	7	Sololá	701	Sololá	1	Sololá	11	Noviembre	2023-11-27T00:00:00	2024-11-08T10:00:00	6	Velocidad del viento	0
61374	7	Sololá	701	Sololá	1	Sololá	11	Noviembre	2023-11-27T00:00:00	2024-11-08T10:00:00	7	Dirección del viento	0
61375	7	Sololá	701	Sololá	1	Sololá	11	Noviembre	2023-11-27T00:00:00	2024-11-08T10:00:00	1	Precipitación	0
61376	7	Sololá	701	Sololá	1	Sololá	11	Noviembre	2023-11-27T00:00:00	2024-11-08T10:00:00	8	Radiación solar	723
61377	7	Sololá	701	Sololá	1	Sololá	11	Noviembre	2023-11-27T00:00:00	2024-11-08T11:00:00	2	Temperatura media	22.3
61378	7	Sololá	701	Sololá	1	Sololá	11	Noviembre	2023-11-27T00:00:00	2024-11-08T11:00:00	4	Temperatura máxima	22.3
61379	7	Sololá	701	Sololá	1	Sololá	11	Noviembre	2023-11-27T00:00:00	2024-11-08T11:00:00	3	Temperatura mínima	21.2
61380	7	Sololá	701	Sololá	1	Sololá	11	Noviembre	2023-11-27T00:00:00	2024-11-08T11:00:00	5	Humedad	65
61381	7	Sololá	701	Sololá	1	Sololá	11	Noviembre	2023-11-27T00:00:00	2024-11-08T11:00:00	6	Velocidad del viento	0
61382	7	Sololá	701	Sololá	1	Sololá	11	Noviembre	2023-11-27T00:00:00	2024-11-08T11:00:00	7	Dirección del viento	0
61383	7	Sololá	701	Sololá	1	Sololá	11	Noviembre	2023-11-27T00:00:00	2024-11-08T11:00:00	1	Precipitación	0
61384	7	Sololá	701	Sololá	1	Sololá	11	Noviembre	2023-11-27T00:00:00	2024-11-08T11:00:00	8	Radiación solar	842
61385	7	Sololá	701	Sololá	1	Sololá	11	Noviembre	2023-11-27T00:00:00	2024-11-08T12:00:00	2	Temperatura media	22.6
61386	7	Sololá	701	Sololá	1	Sololá	11	Noviembre	2023-11-27T00:00:00	2024-11-08T12:00:00	4	Temperatura máxima	22.8
61387	7	Sololá	701	Sololá	1	Sololá	11	Noviembre	2023-11-27T00:00:00	2024-11-08T12:00:00	3	Temperatura mínima	22.3
61388	7	Sololá	701	Sololá	1	Sololá	11	Noviembre	2023-11-27T00:00:00	2024-11-08T12:00:00	5	Humedad	62
61389	7	Sololá	701	Sololá	1	Sololá	11	Noviembre	2023-11-27T00:00:00	2024-11-08T12:00:00	6	Velocidad del viento	0
61390	7	Sololá	701	Sololá	1	Sololá	11	Noviembre	2023-11-27T00:00:00	2024-11-08T12:00:00	7	Dirección del viento	0
61391	7	Sololá	701	Sololá	1	Sololá	11	Noviembre	2023-11-27T00:00:00	2024-11-08T12:00:00	1	Precipitación	0
61392	7	Sololá	701	Sololá	1	Sololá	11	Noviembre	2023-11-27T00:00:00	2024-11-08T12:00:00	8	Radiación solar	901
61393	7	Sololá	701	Sololá	1	Sololá	11	Noviembre	2023-11-27T00:00:00	2024-11-08T13:00:00	2	Temperatura media	23.4
61394	7	Sololá	701	Sololá	1	Sololá	11	Noviembre	2023-11-27T00:00:00	2024-11-08T13:00:00	4	Temperatura máxima	23.7
61395	7	Sololá	701	Sololá	1	Sololá	11	Noviembre	2023-11-27T00:00:00	2024-11-08T13:00:00	3	Temperatura mínima	22.5
61396	7	Sololá	701	Sololá	1	Sololá	11	Noviembre	2023-11-27T00:00:00	2024-11-08T13:00:00	5	Humedad	61
61397	7	Sololá	701	Sololá	1	Sololá	11	Noviembre	2023-11-27T00:00:00	2024-11-08T13:00:00	6	Velocidad del viento	0
61398	7	Sololá	701	Sololá	1	Sololá	11	Noviembre	2023-11-27T00:00:00	2024-11-08T13:00:00	7	Dirección del viento	0
61399	7	Sololá	701	Sololá	1	Sololá	11	Noviembre	2023-11-27T00:00:00	2024-11-08T13:00:00	1	Precipitación	0
61400	7	Sololá	701	Sololá	1	Sololá	11	Noviembre	2023-11-27T00:00:00	2024-11-08T13:00:00	8	Radiación solar	882
61401	7	Sololá	701	Sololá	1	Sololá	11	Noviembre	2023-11-27T00:00:00	2024-11-08T14:00:00	2	Temperatura media	23
61402	7	Sololá	701	Sololá	1	Sololá	11	Noviembre	2023-11-27T00:00:00	2024-11-08T14:00:00	4	Temperatura máxima	23.4
61403	7	Sololá	701	Sololá	1	Sololá	11	Noviembre	2023-11-27T00:00:00	2024-11-08T14:00:00	3	Temperatura mínima	22.3
61404	7	Sololá	701	Sololá	1	Sololá	11	Noviembre	2023-11-27T00:00:00	2024-11-08T14:00:00	5	Humedad	62
61405	7	Sololá	701	Sololá	1	Sololá	11	Noviembre	2023-11-27T00:00:00	2024-11-08T14:00:00	6	Velocidad del viento	0
61406	7	Sololá	701	Sololá	1	Sololá	11	Noviembre	2023-11-27T00:00:00	2024-11-08T14:00:00	7	Dirección del viento	0
61407	7	Sololá	701	Sololá	1	Sololá	11	Noviembre	2023-11-27T00:00:00	2024-11-08T14:00:00	1	Precipitación	0
61408	7	Sololá	701	Sololá	1	Sololá	11	Noviembre	2023-11-27T00:00:00	2024-11-08T14:00:00	8	Radiación solar	690
61409	7	Sololá	701	Sololá	1	Sololá	11	Noviembre	2023-11-27T00:00:00	2024-11-08T15:00:00	2	Temperatura media	20.2
61410	7	Sololá	701	Sololá	1	Sololá	11	Noviembre	2023-11-27T00:00:00	2024-11-08T15:00:00	4	Temperatura máxima	23.3
61411	7	Sololá	701	Sololá	1	Sololá	11	Noviembre	2023-11-27T00:00:00	2024-11-08T15:00:00	3	Temperatura mínima	20.2
61412	7	Sololá	701	Sololá	1	Sololá	11	Noviembre	2023-11-27T00:00:00	2024-11-08T15:00:00	5	Humedad	68
61413	7	Sololá	701	Sololá	1	Sololá	11	Noviembre	2023-11-27T00:00:00	2024-11-08T15:00:00	6	Velocidad del viento	0
61414	7	Sololá	701	Sololá	1	Sololá	11	Noviembre	2023-11-27T00:00:00	2024-11-08T15:00:00	7	Dirección del viento	0
61415	7	Sololá	701	Sololá	1	Sololá	11	Noviembre	2023-11-27T00:00:00	2024-11-08T15:00:00	1	Precipitación	0
61416	7	Sololá	701	Sololá	1	Sololá	11	Noviembre	2023-11-27T00:00:00	2024-11-08T15:00:00	8	Radiación solar	156
61417	7	Sololá	701	Sololá	1	Sololá	11	Noviembre	2023-11-27T00:00:00	2024-11-08T16:00:00	2	Temperatura media	20.8
61418	7	Sololá	701	Sololá	1	Sololá	11	Noviembre	2023-11-27T00:00:00	2024-11-08T16:00:00	4	Temperatura máxima	20.9
61419	7	Sololá	701	Sololá	1	Sololá	11	Noviembre	2023-11-27T00:00:00	2024-11-08T16:00:00	3	Temperatura mínima	20.1
61420	7	Sololá	701	Sololá	1	Sololá	11	Noviembre	2023-11-27T00:00:00	2024-11-08T16:00:00	5	Humedad	65
61421	7	Sololá	701	Sololá	1	Sololá	11	Noviembre	2023-11-27T00:00:00	2024-11-08T16:00:00	6	Velocidad del viento	0
61422	7	Sololá	701	Sololá	1	Sololá	11	Noviembre	2023-11-27T00:00:00	2024-11-08T16:00:00	7	Dirección del viento	0
61423	7	Sololá	701	Sololá	1	Sololá	11	Noviembre	2023-11-27T00:00:00	2024-11-08T16:00:00	1	Precipitación	0
61424	7	Sololá	701	Sololá	1	Sololá	11	Noviembre	2023-11-27T00:00:00	2024-11-08T16:00:00	8	Radiación solar	68
61425	7	Sololá	701	Sololá	1	Sololá	11	Noviembre	2023-11-27T00:00:00	2024-11-08T17:00:00	2	Temperatura media	19.7
61426	7	Sololá	701	Sololá	1	Sololá	11	Noviembre	2023-11-27T00:00:00	2024-11-08T17:00:00	4	Temperatura máxima	21.1
61427	7	Sololá	701	Sololá	1	Sololá	11	Noviembre	2023-11-27T00:00:00	2024-11-08T17:00:00	3	Temperatura mínima	19.7
61428	7	Sololá	701	Sololá	1	Sololá	11	Noviembre	2023-11-27T00:00:00	2024-11-08T17:00:00	5	Humedad	66
61429	7	Sololá	701	Sololá	1	Sololá	11	Noviembre	2023-11-27T00:00:00	2024-11-08T17:00:00	6	Velocidad del viento	0
61430	7	Sololá	701	Sololá	1	Sololá	11	Noviembre	2023-11-27T00:00:00	2024-11-08T17:00:00	7	Dirección del viento	0
61431	7	Sololá	701	Sololá	1	Sololá	11	Noviembre	2023-11-27T00:00:00	2024-11-08T17:00:00	1	Precipitación	0
61432	7	Sololá	701	Sololá	1	Sololá	11	Noviembre	2023-11-27T00:00:00	2024-11-08T17:00:00	8	Radiación solar	48
61433	7	Sololá	701	Sololá	1	Sololá	11	Noviembre	2023-11-27T00:00:00	2024-11-08T18:00:00	2	Temperatura media	16.9
61434	7	Sololá	701	Sololá	1	Sololá	11	Noviembre	2023-11-27T00:00:00	2024-11-08T18:00:00	4	Temperatura máxima	19.7
61435	7	Sololá	701	Sololá	1	Sololá	11	Noviembre	2023-11-27T00:00:00	2024-11-08T18:00:00	3	Temperatura mínima	16.9
61436	7	Sololá	701	Sololá	1	Sololá	11	Noviembre	2023-11-27T00:00:00	2024-11-08T18:00:00	5	Humedad	75
61437	7	Sololá	701	Sololá	1	Sololá	11	Noviembre	2023-11-27T00:00:00	2024-11-08T18:00:00	6	Velocidad del viento	0
61438	7	Sololá	701	Sololá	1	Sololá	11	Noviembre	2023-11-27T00:00:00	2024-11-08T18:00:00	7	Dirección del viento	0
61439	7	Sololá	701	Sololá	1	Sololá	11	Noviembre	2023-11-27T00:00:00	2024-11-08T18:00:00	1	Precipitación	0
61440	7	Sololá	701	Sololá	1	Sololá	11	Noviembre	2023-11-27T00:00:00	2024-11-08T18:00:00	8	Radiación solar	5
61441	7	Sololá	701	Sololá	1	Sololá	11	Noviembre	2023-11-27T00:00:00	2024-11-08T19:00:00	2	Temperatura media	15.8
61442	7	Sololá	701	Sololá	1	Sololá	11	Noviembre	2023-11-27T00:00:00	2024-11-08T19:00:00	4	Temperatura máxima	16.9
61443	7	Sololá	701	Sololá	1	Sololá	11	Noviembre	2023-11-27T00:00:00	2024-11-08T19:00:00	3	Temperatura mínima	15.8
61444	7	Sololá	701	Sololá	1	Sololá	11	Noviembre	2023-11-27T00:00:00	2024-11-08T19:00:00	5	Humedad	80
61445	7	Sololá	701	Sololá	1	Sololá	11	Noviembre	2023-11-27T00:00:00	2024-11-08T19:00:00	6	Velocidad del viento	0
61446	7	Sololá	701	Sololá	1	Sololá	11	Noviembre	2023-11-27T00:00:00	2024-11-08T19:00:00	7	Dirección del viento	0
61447	7	Sololá	701	Sololá	1	Sololá	11	Noviembre	2023-11-27T00:00:00	2024-11-08T19:00:00	1	Precipitación	0
61448	7	Sololá	701	Sololá	1	Sololá	11	Noviembre	2023-11-27T00:00:00	2024-11-08T19:00:00	8	Radiación solar	0
61449	7	Sololá	701	Sololá	1	Sololá	11	Noviembre	2023-11-27T00:00:00	2024-11-08T20:00:00	2	Temperatura media	15.2
61450	7	Sololá	701	Sololá	1	Sololá	11	Noviembre	2023-11-27T00:00:00	2024-11-08T20:00:00	4	Temperatura máxima	15.8
61451	7	Sololá	701	Sololá	1	Sololá	11	Noviembre	2023-11-27T00:00:00	2024-11-08T20:00:00	3	Temperatura mínima	15.2
61452	7	Sololá	701	Sololá	1	Sololá	11	Noviembre	2023-11-27T00:00:00	2024-11-08T20:00:00	5	Humedad	79
61453	7	Sololá	701	Sololá	1	Sololá	11	Noviembre	2023-11-27T00:00:00	2024-11-08T20:00:00	6	Velocidad del viento	0
61454	7	Sololá	701	Sololá	1	Sololá	11	Noviembre	2023-11-27T00:00:00	2024-11-08T20:00:00	7	Dirección del viento	0
61455	7	Sololá	701	Sololá	1	Sololá	11	Noviembre	2023-11-27T00:00:00	2024-11-08T20:00:00	1	Precipitación	0
61456	7	Sololá	701	Sololá	1	Sololá	11	Noviembre	2023-11-27T00:00:00	2024-11-08T20:00:00	8	Radiación solar	0
61457	7	Sololá	701	Sololá	1	Sololá	11	Noviembre	2023-11-27T00:00:00	2024-11-08T21:00:00	2	Temperatura media	14.9
61458	7	Sololá	701	Sololá	1	Sololá	11	Noviembre	2023-11-27T00:00:00	2024-11-08T21:00:00	4	Temperatura máxima	15.2
61459	7	Sololá	701	Sololá	1	Sololá	11	Noviembre	2023-11-27T00:00:00	2024-11-08T21:00:00	3	Temperatura mínima	14.8
61460	7	Sololá	701	Sololá	1	Sololá	11	Noviembre	2023-11-27T00:00:00	2024-11-08T21:00:00	5	Humedad	80
61461	7	Sololá	701	Sololá	1	Sololá	11	Noviembre	2023-11-27T00:00:00	2024-11-08T21:00:00	6	Velocidad del viento	0
61462	7	Sololá	701	Sololá	1	Sololá	11	Noviembre	2023-11-27T00:00:00	2024-11-08T21:00:00	7	Dirección del viento	0
61463	7	Sololá	701	Sololá	1	Sololá	11	Noviembre	2023-11-27T00:00:00	2024-11-08T21:00:00	1	Precipitación	0
61464	7	Sololá	701	Sololá	1	Sololá	11	Noviembre	2023-11-27T00:00:00	2024-11-08T21:00:00	8	Radiación solar	0
61465	7	Sololá	701	Sololá	1	Sololá	11	Noviembre	2023-11-27T00:00:00	2024-11-08T22:00:00	2	Temperatura media	14.5
61466	7	Sololá	701	Sololá	1	Sololá	11	Noviembre	2023-11-27T00:00:00	2024-11-08T22:00:00	4	Temperatura máxima	14.9
61467	7	Sololá	701	Sololá	1	Sololá	11	Noviembre	2023-11-27T00:00:00	2024-11-08T22:00:00	3	Temperatura mínima	14.4
61468	7	Sololá	701	Sololá	1	Sololá	11	Noviembre	2023-11-27T00:00:00	2024-11-08T22:00:00	5	Humedad	80
61469	7	Sololá	701	Sololá	1	Sololá	11	Noviembre	2023-11-27T00:00:00	2024-11-08T22:00:00	6	Velocidad del viento	0
61470	7	Sololá	701	Sololá	1	Sololá	11	Noviembre	2023-11-27T00:00:00	2024-11-08T22:00:00	7	Dirección del viento	0
61471	7	Sololá	701	Sololá	1	Sololá	11	Noviembre	2023-11-27T00:00:00	2024-11-08T22:00:00	1	Precipitación	0
61472	7	Sololá	701	Sololá	1	Sololá	11	Noviembre	2023-11-27T00:00:00	2024-11-08T22:00:00	8	Radiación solar	0
61473	7	Sololá	701	Sololá	1	Sololá	11	Noviembre	2023-11-27T00:00:00	2024-11-08T23:00:00	2	Temperatura media	14.4
61474	7	Sololá	701	Sololá	1	Sololá	11	Noviembre	2023-11-27T00:00:00	2024-11-08T23:00:00	4	Temperatura máxima	14.5
61475	7	Sololá	701	Sololá	1	Sololá	11	Noviembre	2023-11-27T00:00:00	2024-11-08T23:00:00	3	Temperatura mínima	14.4
61476	7	Sololá	701	Sololá	1	Sololá	11	Noviembre	2023-11-27T00:00:00	2024-11-08T23:00:00	5	Humedad	78
61477	7	Sololá	701	Sololá	1	Sololá	11	Noviembre	2023-11-27T00:00:00	2024-11-08T23:00:00	6	Velocidad del viento	0
61478	7	Sololá	701	Sololá	1	Sololá	11	Noviembre	2023-11-27T00:00:00	2024-11-08T23:00:00	7	Dirección del viento	0
61479	7	Sololá	701	Sololá	1	Sololá	11	Noviembre	2023-11-27T00:00:00	2024-11-08T23:00:00	1	Precipitación	0
61480	7	Sololá	701	Sololá	1	Sololá	11	Noviembre	2023-11-27T00:00:00	2024-11-08T23:00:00	8	Radiación solar	0
61481	7	Sololá	701	Sololá	1	Sololá	11	Noviembre	2023-11-28T00:00:00	2024-11-08T00:00:00	2	Temperatura media	14.3
61482	7	Sololá	701	Sololá	1	Sololá	11	Noviembre	2023-11-28T00:00:00	2024-11-08T00:00:00	4	Temperatura máxima	14.5
61483	7	Sololá	701	Sololá	1	Sololá	11	Noviembre	2023-11-28T00:00:00	2024-11-08T00:00:00	3	Temperatura mínima	14.3
61484	7	Sololá	701	Sololá	1	Sololá	11	Noviembre	2023-11-28T00:00:00	2024-11-08T00:00:00	5	Humedad	80
61485	7	Sololá	701	Sololá	1	Sololá	11	Noviembre	2023-11-28T00:00:00	2024-11-08T00:00:00	6	Velocidad del viento	0
61486	7	Sololá	701	Sololá	1	Sololá	11	Noviembre	2023-11-28T00:00:00	2024-11-08T00:00:00	7	Dirección del viento	0
61487	7	Sololá	701	Sololá	1	Sololá	11	Noviembre	2023-11-28T00:00:00	2024-11-08T00:00:00	1	Precipitación	0
61488	7	Sololá	701	Sololá	1	Sololá	11	Noviembre	2023-11-28T00:00:00	2024-11-08T00:00:00	8	Radiación solar	0
61489	7	Sololá	701	Sololá	1	Sololá	11	Noviembre	2023-11-28T00:00:00	2024-11-08T01:00:00	2	Temperatura media	13.8
61490	7	Sololá	701	Sololá	1	Sololá	11	Noviembre	2023-11-28T00:00:00	2024-11-08T01:00:00	4	Temperatura máxima	14.3
61491	7	Sololá	701	Sololá	1	Sololá	11	Noviembre	2023-11-28T00:00:00	2024-11-08T01:00:00	3	Temperatura mínima	13.8
61492	7	Sololá	701	Sololá	1	Sololá	11	Noviembre	2023-11-28T00:00:00	2024-11-08T01:00:00	5	Humedad	83
61493	7	Sololá	701	Sololá	1	Sololá	11	Noviembre	2023-11-28T00:00:00	2024-11-08T01:00:00	6	Velocidad del viento	0
61494	7	Sololá	701	Sololá	1	Sololá	11	Noviembre	2023-11-28T00:00:00	2024-11-08T01:00:00	7	Dirección del viento	0
61495	7	Sololá	701	Sololá	1	Sololá	11	Noviembre	2023-11-28T00:00:00	2024-11-08T01:00:00	1	Precipitación	0
61496	7	Sololá	701	Sololá	1	Sololá	11	Noviembre	2023-11-28T00:00:00	2024-11-08T01:00:00	8	Radiación solar	0
61497	7	Sololá	701	Sololá	1	Sololá	11	Noviembre	2023-11-28T00:00:00	2024-11-08T02:00:00	2	Temperatura media	13.3
61498	7	Sololá	701	Sololá	1	Sololá	11	Noviembre	2023-11-28T00:00:00	2024-11-08T02:00:00	4	Temperatura máxima	13.9
61499	7	Sololá	701	Sololá	1	Sololá	11	Noviembre	2023-11-28T00:00:00	2024-11-08T02:00:00	3	Temperatura mínima	13.3
61500	7	Sololá	701	Sololá	1	Sololá	11	Noviembre	2023-11-28T00:00:00	2024-11-08T02:00:00	5	Humedad	84
61501	7	Sololá	701	Sololá	1	Sololá	11	Noviembre	2023-11-28T00:00:00	2024-11-08T02:00:00	6	Velocidad del viento	0
61502	7	Sololá	701	Sololá	1	Sololá	11	Noviembre	2023-11-28T00:00:00	2024-11-08T02:00:00	7	Dirección del viento	0
61503	7	Sololá	701	Sololá	1	Sololá	11	Noviembre	2023-11-28T00:00:00	2024-11-08T02:00:00	1	Precipitación	0
61504	7	Sololá	701	Sololá	1	Sololá	11	Noviembre	2023-11-28T00:00:00	2024-11-08T02:00:00	8	Radiación solar	0
61505	7	Sololá	701	Sololá	1	Sololá	11	Noviembre	2023-11-28T00:00:00	2024-11-08T03:00:00	2	Temperatura media	13.3
61506	7	Sololá	701	Sololá	1	Sololá	11	Noviembre	2023-11-28T00:00:00	2024-11-08T03:00:00	4	Temperatura máxima	13.4
61507	7	Sololá	701	Sololá	1	Sololá	11	Noviembre	2023-11-28T00:00:00	2024-11-08T03:00:00	3	Temperatura mínima	13.3
61508	7	Sololá	701	Sololá	1	Sololá	11	Noviembre	2023-11-28T00:00:00	2024-11-08T03:00:00	5	Humedad	86
61509	7	Sololá	701	Sololá	1	Sololá	11	Noviembre	2023-11-28T00:00:00	2024-11-08T03:00:00	6	Velocidad del viento	0
61510	7	Sololá	701	Sololá	1	Sololá	11	Noviembre	2023-11-28T00:00:00	2024-11-08T03:00:00	7	Dirección del viento	0
61511	7	Sololá	701	Sololá	1	Sololá	11	Noviembre	2023-11-28T00:00:00	2024-11-08T03:00:00	1	Precipitación	0
61512	7	Sololá	701	Sololá	1	Sololá	11	Noviembre	2023-11-28T00:00:00	2024-11-08T03:00:00	8	Radiación solar	0
61513	7	Sololá	701	Sololá	1	Sololá	11	Noviembre	2023-11-28T00:00:00	2024-11-08T04:00:00	2	Temperatura media	13.7
61514	7	Sololá	701	Sololá	1	Sololá	11	Noviembre	2023-11-28T00:00:00	2024-11-08T04:00:00	4	Temperatura máxima	13.7
61515	7	Sololá	701	Sololá	1	Sololá	11	Noviembre	2023-11-28T00:00:00	2024-11-08T04:00:00	3	Temperatura mínima	13.3
61516	7	Sololá	701	Sololá	1	Sololá	11	Noviembre	2023-11-28T00:00:00	2024-11-08T04:00:00	5	Humedad	86
61517	7	Sololá	701	Sololá	1	Sololá	11	Noviembre	2023-11-28T00:00:00	2024-11-08T04:00:00	6	Velocidad del viento	0
61518	7	Sololá	701	Sololá	1	Sololá	11	Noviembre	2023-11-28T00:00:00	2024-11-08T04:00:00	7	Dirección del viento	0
61519	7	Sololá	701	Sololá	1	Sololá	11	Noviembre	2023-11-28T00:00:00	2024-11-08T04:00:00	1	Precipitación	0
61520	7	Sololá	701	Sololá	1	Sololá	11	Noviembre	2023-11-28T00:00:00	2024-11-08T04:00:00	8	Radiación solar	0
61521	7	Sololá	701	Sololá	1	Sololá	11	Noviembre	2023-11-28T00:00:00	2024-11-08T05:00:00	2	Temperatura media	14.2
61522	7	Sololá	701	Sololá	1	Sololá	11	Noviembre	2023-11-28T00:00:00	2024-11-08T05:00:00	4	Temperatura máxima	14.3
61523	7	Sololá	701	Sololá	1	Sololá	11	Noviembre	2023-11-28T00:00:00	2024-11-08T05:00:00	3	Temperatura mínima	13.7
61524	7	Sololá	701	Sololá	1	Sololá	11	Noviembre	2023-11-28T00:00:00	2024-11-08T05:00:00	5	Humedad	85
61525	7	Sololá	701	Sololá	1	Sololá	11	Noviembre	2023-11-28T00:00:00	2024-11-08T05:00:00	6	Velocidad del viento	0
61526	7	Sololá	701	Sololá	1	Sololá	11	Noviembre	2023-11-28T00:00:00	2024-11-08T05:00:00	7	Dirección del viento	0
61527	7	Sololá	701	Sololá	1	Sololá	11	Noviembre	2023-11-28T00:00:00	2024-11-08T05:00:00	1	Precipitación	0
61528	7	Sololá	701	Sololá	1	Sololá	11	Noviembre	2023-11-28T00:00:00	2024-11-08T05:00:00	8	Radiación solar	0
61529	7	Sololá	701	Sololá	1	Sololá	11	Noviembre	2023-11-28T00:00:00	2024-11-08T06:00:00	2	Temperatura media	14.6
61530	7	Sololá	701	Sololá	1	Sololá	11	Noviembre	2023-11-28T00:00:00	2024-11-08T06:00:00	4	Temperatura máxima	14.6
61531	7	Sololá	701	Sololá	1	Sololá	11	Noviembre	2023-11-28T00:00:00	2024-11-08T06:00:00	3	Temperatura mínima	14.2
61532	7	Sololá	701	Sololá	1	Sololá	11	Noviembre	2023-11-28T00:00:00	2024-11-08T06:00:00	5	Humedad	86
61533	7	Sololá	701	Sololá	1	Sololá	11	Noviembre	2023-11-28T00:00:00	2024-11-08T06:00:00	6	Velocidad del viento	0
61534	7	Sololá	701	Sololá	1	Sololá	11	Noviembre	2023-11-28T00:00:00	2024-11-08T06:00:00	7	Dirección del viento	0
61535	7	Sololá	701	Sololá	1	Sololá	11	Noviembre	2023-11-28T00:00:00	2024-11-08T06:00:00	1	Precipitación	0
61536	7	Sololá	701	Sololá	1	Sololá	11	Noviembre	2023-11-28T00:00:00	2024-11-08T06:00:00	8	Radiación solar	0
61537	7	Sololá	701	Sololá	1	Sololá	11	Noviembre	2023-11-28T00:00:00	2024-11-08T07:00:00	2	Temperatura media	15.3
61538	7	Sololá	701	Sololá	1	Sololá	11	Noviembre	2023-11-28T00:00:00	2024-11-08T07:00:00	4	Temperatura máxima	15.3
61539	7	Sololá	701	Sololá	1	Sololá	11	Noviembre	2023-11-28T00:00:00	2024-11-08T07:00:00	3	Temperatura mínima	14.5
61540	7	Sololá	701	Sololá	1	Sololá	11	Noviembre	2023-11-28T00:00:00	2024-11-08T07:00:00	5	Humedad	83
61541	7	Sololá	701	Sololá	1	Sololá	11	Noviembre	2023-11-28T00:00:00	2024-11-08T07:00:00	6	Velocidad del viento	0
61542	7	Sololá	701	Sololá	1	Sololá	11	Noviembre	2023-11-28T00:00:00	2024-11-08T07:00:00	7	Dirección del viento	0
61543	7	Sololá	701	Sololá	1	Sololá	11	Noviembre	2023-11-28T00:00:00	2024-11-08T07:00:00	1	Precipitación	0
61544	7	Sololá	701	Sololá	1	Sololá	11	Noviembre	2023-11-28T00:00:00	2024-11-08T07:00:00	8	Radiación solar	19
61545	7	Sololá	701	Sololá	1	Sololá	11	Noviembre	2023-11-28T00:00:00	2024-11-08T08:00:00	2	Temperatura media	16.8
61546	7	Sololá	701	Sololá	1	Sololá	11	Noviembre	2023-11-28T00:00:00	2024-11-08T08:00:00	4	Temperatura máxima	16.8
61547	7	Sololá	701	Sololá	1	Sololá	11	Noviembre	2023-11-28T00:00:00	2024-11-08T08:00:00	3	Temperatura mínima	15.3
61548	7	Sololá	701	Sololá	1	Sololá	11	Noviembre	2023-11-28T00:00:00	2024-11-08T08:00:00	5	Humedad	82
61549	7	Sololá	701	Sololá	1	Sololá	11	Noviembre	2023-11-28T00:00:00	2024-11-08T08:00:00	6	Velocidad del viento	0
61550	7	Sololá	701	Sololá	1	Sololá	11	Noviembre	2023-11-28T00:00:00	2024-11-08T08:00:00	7	Dirección del viento	0
61551	7	Sololá	701	Sololá	1	Sololá	11	Noviembre	2023-11-28T00:00:00	2024-11-08T08:00:00	1	Precipitación	0
61552	7	Sololá	701	Sololá	1	Sololá	11	Noviembre	2023-11-28T00:00:00	2024-11-08T08:00:00	8	Radiación solar	104
61553	7	Sololá	701	Sololá	1	Sololá	11	Noviembre	2023-11-28T00:00:00	2024-11-08T09:00:00	2	Temperatura media	20.4
61554	7	Sololá	701	Sololá	1	Sololá	11	Noviembre	2023-11-28T00:00:00	2024-11-08T09:00:00	4	Temperatura máxima	20.4
61555	7	Sololá	701	Sololá	1	Sololá	11	Noviembre	2023-11-28T00:00:00	2024-11-08T09:00:00	3	Temperatura mínima	16.8
61556	7	Sololá	701	Sololá	1	Sololá	11	Noviembre	2023-11-28T00:00:00	2024-11-08T09:00:00	5	Humedad	69
61557	7	Sololá	701	Sololá	1	Sololá	11	Noviembre	2023-11-28T00:00:00	2024-11-08T09:00:00	6	Velocidad del viento	0
61558	7	Sololá	701	Sololá	1	Sololá	11	Noviembre	2023-11-28T00:00:00	2024-11-08T09:00:00	7	Dirección del viento	0
61559	7	Sololá	701	Sololá	1	Sololá	11	Noviembre	2023-11-28T00:00:00	2024-11-08T09:00:00	1	Precipitación	0
61560	7	Sololá	701	Sololá	1	Sololá	11	Noviembre	2023-11-28T00:00:00	2024-11-08T09:00:00	8	Radiación solar	543
61561	7	Sololá	701	Sololá	1	Sololá	11	Noviembre	2023-11-28T00:00:00	2024-11-08T10:00:00	2	Temperatura media	21.5
61562	7	Sololá	701	Sololá	1	Sololá	11	Noviembre	2023-11-28T00:00:00	2024-11-08T10:00:00	4	Temperatura máxima	21.9
61563	7	Sololá	701	Sololá	1	Sololá	11	Noviembre	2023-11-28T00:00:00	2024-11-08T10:00:00	3	Temperatura mínima	20.3
61564	7	Sololá	701	Sololá	1	Sololá	11	Noviembre	2023-11-28T00:00:00	2024-11-08T10:00:00	5	Humedad	68
61565	7	Sololá	701	Sololá	1	Sololá	11	Noviembre	2023-11-28T00:00:00	2024-11-08T10:00:00	6	Velocidad del viento	0
61566	7	Sololá	701	Sololá	1	Sololá	11	Noviembre	2023-11-28T00:00:00	2024-11-08T10:00:00	7	Dirección del viento	0
61567	7	Sololá	701	Sololá	1	Sololá	11	Noviembre	2023-11-28T00:00:00	2024-11-08T10:00:00	1	Precipitación	0
61568	7	Sololá	701	Sololá	1	Sololá	11	Noviembre	2023-11-28T00:00:00	2024-11-08T10:00:00	8	Radiación solar	720
61569	7	Sololá	701	Sololá	1	Sololá	11	Noviembre	2023-11-28T00:00:00	2024-11-08T11:00:00	2	Temperatura media	22.7
61570	7	Sololá	701	Sololá	1	Sololá	11	Noviembre	2023-11-28T00:00:00	2024-11-08T11:00:00	4	Temperatura máxima	22.7
61571	7	Sololá	701	Sololá	1	Sololá	11	Noviembre	2023-11-28T00:00:00	2024-11-08T11:00:00	3	Temperatura mínima	21.5
61572	7	Sololá	701	Sololá	1	Sololá	11	Noviembre	2023-11-28T00:00:00	2024-11-08T11:00:00	5	Humedad	65
61573	7	Sololá	701	Sololá	1	Sololá	11	Noviembre	2023-11-28T00:00:00	2024-11-08T11:00:00	6	Velocidad del viento	0
61574	7	Sololá	701	Sololá	1	Sololá	11	Noviembre	2023-11-28T00:00:00	2024-11-08T11:00:00	7	Dirección del viento	0
61575	7	Sololá	701	Sololá	1	Sololá	11	Noviembre	2023-11-28T00:00:00	2024-11-08T11:00:00	1	Precipitación	0
61576	7	Sololá	701	Sololá	1	Sololá	11	Noviembre	2023-11-28T00:00:00	2024-11-08T11:00:00	8	Radiación solar	897
61577	7	Sololá	701	Sololá	1	Sololá	11	Noviembre	2023-11-28T00:00:00	2024-11-08T12:00:00	2	Temperatura media	23.8
61578	7	Sololá	701	Sololá	1	Sololá	11	Noviembre	2023-11-28T00:00:00	2024-11-08T12:00:00	4	Temperatura máxima	23.8
61579	7	Sololá	701	Sololá	1	Sololá	11	Noviembre	2023-11-28T00:00:00	2024-11-08T12:00:00	3	Temperatura mínima	22.7
61580	7	Sololá	701	Sololá	1	Sololá	11	Noviembre	2023-11-28T00:00:00	2024-11-08T12:00:00	5	Humedad	66
61581	7	Sololá	701	Sololá	1	Sololá	11	Noviembre	2023-11-28T00:00:00	2024-11-08T12:00:00	6	Velocidad del viento	0
61582	7	Sololá	701	Sololá	1	Sololá	11	Noviembre	2023-11-28T00:00:00	2024-11-08T12:00:00	7	Dirección del viento	0
61583	7	Sololá	701	Sololá	1	Sololá	11	Noviembre	2023-11-28T00:00:00	2024-11-08T12:00:00	1	Precipitación	0
61584	7	Sololá	701	Sololá	1	Sololá	11	Noviembre	2023-11-28T00:00:00	2024-11-08T12:00:00	8	Radiación solar	790
61585	7	Sololá	701	Sololá	1	Sololá	11	Noviembre	2023-11-28T00:00:00	2024-11-08T13:00:00	2	Temperatura media	23.2
61586	7	Sololá	701	Sololá	1	Sololá	11	Noviembre	2023-11-28T00:00:00	2024-11-08T13:00:00	4	Temperatura máxima	24.1
61587	7	Sololá	701	Sololá	1	Sololá	11	Noviembre	2023-11-28T00:00:00	2024-11-08T13:00:00	3	Temperatura mínima	23.2
61588	7	Sololá	701	Sololá	1	Sololá	11	Noviembre	2023-11-28T00:00:00	2024-11-08T13:00:00	5	Humedad	66
61589	7	Sololá	701	Sololá	1	Sololá	11	Noviembre	2023-11-28T00:00:00	2024-11-08T13:00:00	6	Velocidad del viento	0
61590	7	Sololá	701	Sololá	1	Sololá	11	Noviembre	2023-11-28T00:00:00	2024-11-08T13:00:00	7	Dirección del viento	0
61591	7	Sololá	701	Sololá	1	Sololá	11	Noviembre	2023-11-28T00:00:00	2024-11-08T13:00:00	1	Precipitación	0
61592	7	Sololá	701	Sololá	1	Sololá	11	Noviembre	2023-11-28T00:00:00	2024-11-08T13:00:00	8	Radiación solar	503
61593	7	Sololá	701	Sololá	1	Sololá	11	Noviembre	2023-11-28T00:00:00	2024-11-08T14:00:00	2	Temperatura media	21.3
61594	7	Sololá	701	Sololá	1	Sololá	11	Noviembre	2023-11-28T00:00:00	2024-11-08T14:00:00	4	Temperatura máxima	23.8
61595	7	Sololá	701	Sololá	1	Sololá	11	Noviembre	2023-11-28T00:00:00	2024-11-08T14:00:00	3	Temperatura mínima	21.2
61596	7	Sololá	701	Sololá	1	Sololá	11	Noviembre	2023-11-28T00:00:00	2024-11-08T14:00:00	5	Humedad	69
61597	7	Sololá	701	Sololá	1	Sololá	11	Noviembre	2023-11-28T00:00:00	2024-11-08T14:00:00	6	Velocidad del viento	0
61598	7	Sololá	701	Sololá	1	Sololá	11	Noviembre	2023-11-28T00:00:00	2024-11-08T14:00:00	7	Dirección del viento	0
61599	7	Sololá	701	Sololá	1	Sololá	11	Noviembre	2023-11-28T00:00:00	2024-11-08T14:00:00	1	Precipitación	0
61600	7	Sololá	701	Sololá	1	Sololá	11	Noviembre	2023-11-28T00:00:00	2024-11-08T14:00:00	8	Radiación solar	333
61601	7	Sololá	701	Sololá	1	Sololá	11	Noviembre	2023-11-28T00:00:00	2024-11-08T15:00:00	2	Temperatura media	20
61602	7	Sololá	701	Sololá	1	Sololá	11	Noviembre	2023-11-28T00:00:00	2024-11-08T15:00:00	4	Temperatura máxima	21.3
61603	7	Sololá	701	Sololá	1	Sololá	11	Noviembre	2023-11-28T00:00:00	2024-11-08T15:00:00	3	Temperatura mínima	19.8
61604	7	Sololá	701	Sololá	1	Sololá	11	Noviembre	2023-11-28T00:00:00	2024-11-08T15:00:00	5	Humedad	73
61605	7	Sololá	701	Sololá	1	Sololá	11	Noviembre	2023-11-28T00:00:00	2024-11-08T15:00:00	6	Velocidad del viento	0
61606	7	Sololá	701	Sololá	1	Sololá	11	Noviembre	2023-11-28T00:00:00	2024-11-08T15:00:00	7	Dirección del viento	0
61607	7	Sololá	701	Sololá	1	Sololá	11	Noviembre	2023-11-28T00:00:00	2024-11-08T15:00:00	1	Precipitación	0
61608	7	Sololá	701	Sololá	1	Sololá	11	Noviembre	2023-11-28T00:00:00	2024-11-08T15:00:00	8	Radiación solar	104
61609	7	Sololá	701	Sololá	1	Sololá	11	Noviembre	2023-11-28T00:00:00	2024-11-08T16:00:00	2	Temperatura media	20.3
61610	7	Sololá	701	Sololá	1	Sololá	11	Noviembre	2023-11-28T00:00:00	2024-11-08T16:00:00	4	Temperatura máxima	20.3
61611	7	Sololá	701	Sololá	1	Sololá	11	Noviembre	2023-11-28T00:00:00	2024-11-08T16:00:00	3	Temperatura mínima	18.8
61612	7	Sololá	701	Sololá	1	Sololá	11	Noviembre	2023-11-28T00:00:00	2024-11-08T16:00:00	5	Humedad	71
61613	7	Sololá	701	Sololá	1	Sololá	11	Noviembre	2023-11-28T00:00:00	2024-11-08T16:00:00	6	Velocidad del viento	0
61614	7	Sololá	701	Sololá	1	Sololá	11	Noviembre	2023-11-28T00:00:00	2024-11-08T16:00:00	7	Dirección del viento	0
61615	7	Sololá	701	Sololá	1	Sololá	11	Noviembre	2023-11-28T00:00:00	2024-11-08T16:00:00	1	Precipitación	0
61616	7	Sololá	701	Sololá	1	Sololá	11	Noviembre	2023-11-28T00:00:00	2024-11-08T16:00:00	8	Radiación solar	51
61617	7	Sololá	701	Sololá	1	Sololá	11	Noviembre	2023-11-28T00:00:00	2024-11-08T17:00:00	2	Temperatura media	18.9
61618	7	Sololá	701	Sololá	1	Sololá	11	Noviembre	2023-11-28T00:00:00	2024-11-08T17:00:00	4	Temperatura máxima	20.3
61619	7	Sololá	701	Sololá	1	Sololá	11	Noviembre	2023-11-28T00:00:00	2024-11-08T17:00:00	3	Temperatura mínima	18.9
61620	7	Sololá	701	Sololá	1	Sololá	11	Noviembre	2023-11-28T00:00:00	2024-11-08T17:00:00	5	Humedad	75
61621	7	Sololá	701	Sololá	1	Sololá	11	Noviembre	2023-11-28T00:00:00	2024-11-08T17:00:00	6	Velocidad del viento	0
61622	7	Sololá	701	Sololá	1	Sololá	11	Noviembre	2023-11-28T00:00:00	2024-11-08T17:00:00	7	Dirección del viento	0
61623	7	Sololá	701	Sololá	1	Sololá	11	Noviembre	2023-11-28T00:00:00	2024-11-08T17:00:00	1	Precipitación	0
61624	7	Sololá	701	Sololá	1	Sololá	11	Noviembre	2023-11-28T00:00:00	2024-11-08T17:00:00	8	Radiación solar	44
61625	7	Sololá	701	Sololá	1	Sololá	11	Noviembre	2023-11-28T00:00:00	2024-11-08T18:00:00	2	Temperatura media	16.7
61626	7	Sololá	701	Sololá	1	Sololá	11	Noviembre	2023-11-28T00:00:00	2024-11-08T18:00:00	4	Temperatura máxima	18.9
61627	7	Sololá	701	Sololá	1	Sololá	11	Noviembre	2023-11-28T00:00:00	2024-11-08T18:00:00	3	Temperatura mínima	16.7
61628	7	Sololá	701	Sololá	1	Sololá	11	Noviembre	2023-11-28T00:00:00	2024-11-08T18:00:00	5	Humedad	81
61629	7	Sololá	701	Sololá	1	Sololá	11	Noviembre	2023-11-28T00:00:00	2024-11-08T18:00:00	6	Velocidad del viento	0
61630	7	Sololá	701	Sololá	1	Sololá	11	Noviembre	2023-11-28T00:00:00	2024-11-08T18:00:00	7	Dirección del viento	0
61631	7	Sololá	701	Sololá	1	Sololá	11	Noviembre	2023-11-28T00:00:00	2024-11-08T18:00:00	1	Precipitación	0
61632	7	Sololá	701	Sololá	1	Sololá	11	Noviembre	2023-11-28T00:00:00	2024-11-08T18:00:00	8	Radiación solar	6
61633	7	Sololá	701	Sololá	1	Sololá	11	Noviembre	2023-11-28T00:00:00	2024-11-08T19:00:00	2	Temperatura media	16.1
61634	7	Sololá	701	Sololá	1	Sololá	11	Noviembre	2023-11-28T00:00:00	2024-11-08T19:00:00	4	Temperatura máxima	16.7
61635	7	Sololá	701	Sololá	1	Sololá	11	Noviembre	2023-11-28T00:00:00	2024-11-08T19:00:00	3	Temperatura mínima	16.1
61636	7	Sololá	701	Sololá	1	Sololá	11	Noviembre	2023-11-28T00:00:00	2024-11-08T19:00:00	5	Humedad	85
61637	7	Sololá	701	Sololá	1	Sololá	11	Noviembre	2023-11-28T00:00:00	2024-11-08T19:00:00	6	Velocidad del viento	0
61638	7	Sololá	701	Sololá	1	Sololá	11	Noviembre	2023-11-28T00:00:00	2024-11-08T19:00:00	7	Dirección del viento	0
61639	7	Sololá	701	Sololá	1	Sololá	11	Noviembre	2023-11-28T00:00:00	2024-11-08T19:00:00	1	Precipitación	0
61640	7	Sololá	701	Sololá	1	Sololá	11	Noviembre	2023-11-28T00:00:00	2024-11-08T19:00:00	8	Radiación solar	0
61641	7	Sololá	701	Sololá	1	Sololá	11	Noviembre	2023-11-28T00:00:00	2024-11-08T20:00:00	2	Temperatura media	15.7
61642	7	Sololá	701	Sololá	1	Sololá	11	Noviembre	2023-11-28T00:00:00	2024-11-08T20:00:00	4	Temperatura máxima	16.1
61643	7	Sololá	701	Sololá	1	Sololá	11	Noviembre	2023-11-28T00:00:00	2024-11-08T20:00:00	3	Temperatura mínima	15.7
61644	7	Sololá	701	Sololá	1	Sololá	11	Noviembre	2023-11-28T00:00:00	2024-11-08T20:00:00	5	Humedad	87
61645	7	Sololá	701	Sololá	1	Sololá	11	Noviembre	2023-11-28T00:00:00	2024-11-08T20:00:00	6	Velocidad del viento	0
61646	7	Sololá	701	Sololá	1	Sololá	11	Noviembre	2023-11-28T00:00:00	2024-11-08T20:00:00	7	Dirección del viento	0
61647	7	Sololá	701	Sololá	1	Sololá	11	Noviembre	2023-11-28T00:00:00	2024-11-08T20:00:00	1	Precipitación	0
61648	7	Sololá	701	Sololá	1	Sololá	11	Noviembre	2023-11-28T00:00:00	2024-11-08T20:00:00	8	Radiación solar	0
61649	7	Sololá	701	Sololá	1	Sololá	11	Noviembre	2023-11-28T00:00:00	2024-11-08T21:00:00	2	Temperatura media	15.3
61650	7	Sololá	701	Sololá	1	Sololá	11	Noviembre	2023-11-28T00:00:00	2024-11-08T21:00:00	4	Temperatura máxima	15.7
61651	7	Sololá	701	Sololá	1	Sololá	11	Noviembre	2023-11-28T00:00:00	2024-11-08T21:00:00	3	Temperatura mínima	15.3
61652	7	Sololá	701	Sololá	1	Sololá	11	Noviembre	2023-11-28T00:00:00	2024-11-08T21:00:00	5	Humedad	86
61653	7	Sololá	701	Sololá	1	Sololá	11	Noviembre	2023-11-28T00:00:00	2024-11-08T21:00:00	6	Velocidad del viento	0
61654	7	Sololá	701	Sololá	1	Sololá	11	Noviembre	2023-11-28T00:00:00	2024-11-08T21:00:00	7	Dirección del viento	0
61655	7	Sololá	701	Sololá	1	Sololá	11	Noviembre	2023-11-28T00:00:00	2024-11-08T21:00:00	1	Precipitación	0
61656	7	Sololá	701	Sololá	1	Sololá	11	Noviembre	2023-11-28T00:00:00	2024-11-08T21:00:00	8	Radiación solar	0
61657	7	Sololá	701	Sololá	1	Sololá	11	Noviembre	2023-11-28T00:00:00	2024-11-08T22:00:00	2	Temperatura media	14.8
61658	7	Sololá	701	Sololá	1	Sololá	11	Noviembre	2023-11-28T00:00:00	2024-11-08T22:00:00	4	Temperatura máxima	15.3
61659	7	Sololá	701	Sololá	1	Sololá	11	Noviembre	2023-11-28T00:00:00	2024-11-08T22:00:00	3	Temperatura mínima	14.7
61660	7	Sololá	701	Sololá	1	Sololá	11	Noviembre	2023-11-28T00:00:00	2024-11-08T22:00:00	5	Humedad	85
61661	7	Sololá	701	Sololá	1	Sololá	11	Noviembre	2023-11-28T00:00:00	2024-11-08T22:00:00	6	Velocidad del viento	0
61662	7	Sololá	701	Sololá	1	Sololá	11	Noviembre	2023-11-28T00:00:00	2024-11-08T22:00:00	7	Dirección del viento	0
61663	7	Sololá	701	Sololá	1	Sololá	11	Noviembre	2023-11-28T00:00:00	2024-11-08T22:00:00	1	Precipitación	0
61664	7	Sololá	701	Sololá	1	Sololá	11	Noviembre	2023-11-28T00:00:00	2024-11-08T22:00:00	8	Radiación solar	0
61665	7	Sololá	701	Sololá	1	Sololá	11	Noviembre	2023-11-28T00:00:00	2024-11-08T23:00:00	2	Temperatura media	14.6
61666	7	Sololá	701	Sololá	1	Sololá	11	Noviembre	2023-11-28T00:00:00	2024-11-08T23:00:00	4	Temperatura máxima	14.7
61667	7	Sololá	701	Sololá	1	Sololá	11	Noviembre	2023-11-28T00:00:00	2024-11-08T23:00:00	3	Temperatura mínima	14.5
61668	7	Sololá	701	Sololá	1	Sololá	11	Noviembre	2023-11-28T00:00:00	2024-11-08T23:00:00	5	Humedad	81
61669	7	Sololá	701	Sololá	1	Sololá	11	Noviembre	2023-11-28T00:00:00	2024-11-08T23:00:00	6	Velocidad del viento	0
61670	7	Sololá	701	Sololá	1	Sololá	11	Noviembre	2023-11-28T00:00:00	2024-11-08T23:00:00	7	Dirección del viento	0
61671	7	Sololá	701	Sololá	1	Sololá	11	Noviembre	2023-11-28T00:00:00	2024-11-08T23:00:00	1	Precipitación	0
61672	7	Sololá	701	Sololá	1	Sololá	11	Noviembre	2023-11-28T00:00:00	2024-11-08T23:00:00	8	Radiación solar	0
61673	7	Sololá	701	Sololá	1	Sololá	11	Noviembre	2023-11-29T00:00:00	2024-11-08T00:00:00	2	Temperatura media	14.3
61674	7	Sololá	701	Sololá	1	Sololá	11	Noviembre	2023-11-29T00:00:00	2024-11-08T00:00:00	4	Temperatura máxima	14.7
61675	7	Sololá	701	Sololá	1	Sololá	11	Noviembre	2023-11-29T00:00:00	2024-11-08T00:00:00	3	Temperatura mínima	14.3
61676	7	Sololá	701	Sololá	1	Sololá	11	Noviembre	2023-11-29T00:00:00	2024-11-08T00:00:00	5	Humedad	83
61677	7	Sololá	701	Sololá	1	Sololá	11	Noviembre	2023-11-29T00:00:00	2024-11-08T00:00:00	6	Velocidad del viento	0
61678	7	Sololá	701	Sololá	1	Sololá	11	Noviembre	2023-11-29T00:00:00	2024-11-08T00:00:00	7	Dirección del viento	0
61679	7	Sololá	701	Sololá	1	Sololá	11	Noviembre	2023-11-29T00:00:00	2024-11-08T00:00:00	1	Precipitación	0
61680	7	Sololá	701	Sololá	1	Sololá	11	Noviembre	2023-11-29T00:00:00	2024-11-08T00:00:00	8	Radiación solar	0
61681	7	Sololá	701	Sololá	1	Sololá	11	Noviembre	2023-11-29T00:00:00	2024-11-08T01:00:00	2	Temperatura media	14
61682	7	Sololá	701	Sololá	1	Sololá	11	Noviembre	2023-11-29T00:00:00	2024-11-08T01:00:00	4	Temperatura máxima	14.3
61683	7	Sololá	701	Sololá	1	Sololá	11	Noviembre	2023-11-29T00:00:00	2024-11-08T01:00:00	3	Temperatura mínima	13.9
61684	7	Sololá	701	Sololá	1	Sololá	11	Noviembre	2023-11-29T00:00:00	2024-11-08T01:00:00	5	Humedad	84
61685	7	Sololá	701	Sololá	1	Sololá	11	Noviembre	2023-11-29T00:00:00	2024-11-08T01:00:00	6	Velocidad del viento	0
61686	7	Sololá	701	Sololá	1	Sololá	11	Noviembre	2023-11-29T00:00:00	2024-11-08T01:00:00	7	Dirección del viento	0
61687	7	Sololá	701	Sololá	1	Sololá	11	Noviembre	2023-11-29T00:00:00	2024-11-08T01:00:00	1	Precipitación	0
61688	7	Sololá	701	Sololá	1	Sololá	11	Noviembre	2023-11-29T00:00:00	2024-11-08T01:00:00	8	Radiación solar	0
61689	7	Sololá	701	Sololá	1	Sololá	11	Noviembre	2023-11-29T00:00:00	2024-11-08T02:00:00	2	Temperatura media	13.8
61690	7	Sololá	701	Sololá	1	Sololá	11	Noviembre	2023-11-29T00:00:00	2024-11-08T02:00:00	4	Temperatura máxima	14.1
61691	7	Sololá	701	Sololá	1	Sololá	11	Noviembre	2023-11-29T00:00:00	2024-11-08T02:00:00	3	Temperatura mínima	13.8
61692	7	Sololá	701	Sololá	1	Sololá	11	Noviembre	2023-11-29T00:00:00	2024-11-08T02:00:00	5	Humedad	84
61693	7	Sololá	701	Sololá	1	Sololá	11	Noviembre	2023-11-29T00:00:00	2024-11-08T02:00:00	6	Velocidad del viento	0
61694	7	Sololá	701	Sololá	1	Sololá	11	Noviembre	2023-11-29T00:00:00	2024-11-08T02:00:00	7	Dirección del viento	0
61695	7	Sololá	701	Sololá	1	Sololá	11	Noviembre	2023-11-29T00:00:00	2024-11-08T02:00:00	1	Precipitación	0
61696	7	Sololá	701	Sololá	1	Sololá	11	Noviembre	2023-11-29T00:00:00	2024-11-08T02:00:00	8	Radiación solar	0
61697	7	Sololá	701	Sololá	1	Sololá	11	Noviembre	2023-11-29T00:00:00	2024-11-08T03:00:00	2	Temperatura media	13.6
61698	7	Sololá	701	Sololá	1	Sololá	11	Noviembre	2023-11-29T00:00:00	2024-11-08T03:00:00	4	Temperatura máxima	13.8
61699	7	Sololá	701	Sololá	1	Sololá	11	Noviembre	2023-11-29T00:00:00	2024-11-08T03:00:00	3	Temperatura mínima	13.6
61700	7	Sololá	701	Sololá	1	Sololá	11	Noviembre	2023-11-29T00:00:00	2024-11-08T03:00:00	5	Humedad	84
61701	7	Sololá	701	Sololá	1	Sololá	11	Noviembre	2023-11-29T00:00:00	2024-11-08T03:00:00	6	Velocidad del viento	0
61702	7	Sololá	701	Sololá	1	Sololá	11	Noviembre	2023-11-29T00:00:00	2024-11-08T03:00:00	7	Dirección del viento	0
61703	7	Sololá	701	Sololá	1	Sololá	11	Noviembre	2023-11-29T00:00:00	2024-11-08T03:00:00	1	Precipitación	0
61704	7	Sololá	701	Sololá	1	Sololá	11	Noviembre	2023-11-29T00:00:00	2024-11-08T03:00:00	8	Radiación solar	0
61705	7	Sololá	701	Sololá	1	Sololá	11	Noviembre	2023-11-29T00:00:00	2024-11-08T04:00:00	2	Temperatura media	13.1
61706	7	Sololá	701	Sololá	1	Sololá	11	Noviembre	2023-11-29T00:00:00	2024-11-08T04:00:00	4	Temperatura máxima	13.7
61707	7	Sololá	701	Sololá	1	Sololá	11	Noviembre	2023-11-29T00:00:00	2024-11-08T04:00:00	3	Temperatura mínima	13.1
61708	7	Sololá	701	Sololá	1	Sololá	11	Noviembre	2023-11-29T00:00:00	2024-11-08T04:00:00	5	Humedad	85
61709	7	Sololá	701	Sololá	1	Sololá	11	Noviembre	2023-11-29T00:00:00	2024-11-08T04:00:00	6	Velocidad del viento	0
61710	7	Sololá	701	Sololá	1	Sololá	11	Noviembre	2023-11-29T00:00:00	2024-11-08T04:00:00	7	Dirección del viento	0
61711	7	Sololá	701	Sololá	1	Sololá	11	Noviembre	2023-11-29T00:00:00	2024-11-08T04:00:00	1	Precipitación	0
61712	7	Sololá	701	Sololá	1	Sololá	11	Noviembre	2023-11-29T00:00:00	2024-11-08T04:00:00	8	Radiación solar	0
61713	7	Sololá	701	Sololá	1	Sololá	11	Noviembre	2023-11-29T00:00:00	2024-11-08T05:00:00	2	Temperatura media	12.7
61714	7	Sololá	701	Sololá	1	Sololá	11	Noviembre	2023-11-29T00:00:00	2024-11-08T05:00:00	4	Temperatura máxima	13.1
61715	7	Sololá	701	Sololá	1	Sololá	11	Noviembre	2023-11-29T00:00:00	2024-11-08T05:00:00	3	Temperatura mínima	12.7
61716	7	Sololá	701	Sololá	1	Sololá	11	Noviembre	2023-11-29T00:00:00	2024-11-08T05:00:00	5	Humedad	85
61717	7	Sololá	701	Sololá	1	Sololá	11	Noviembre	2023-11-29T00:00:00	2024-11-08T05:00:00	6	Velocidad del viento	0
61718	7	Sololá	701	Sololá	1	Sololá	11	Noviembre	2023-11-29T00:00:00	2024-11-08T05:00:00	7	Dirección del viento	0
61719	7	Sololá	701	Sololá	1	Sololá	11	Noviembre	2023-11-29T00:00:00	2024-11-08T05:00:00	1	Precipitación	0
61720	7	Sololá	701	Sololá	1	Sololá	11	Noviembre	2023-11-29T00:00:00	2024-11-08T05:00:00	8	Radiación solar	0
61721	7	Sololá	701	Sololá	1	Sololá	11	Noviembre	2023-11-29T00:00:00	2024-11-08T06:00:00	2	Temperatura media	12.7
61722	7	Sololá	701	Sololá	1	Sololá	11	Noviembre	2023-11-29T00:00:00	2024-11-08T06:00:00	4	Temperatura máxima	12.7
61723	7	Sololá	701	Sololá	1	Sololá	11	Noviembre	2023-11-29T00:00:00	2024-11-08T06:00:00	3	Temperatura mínima	12.5
61724	7	Sololá	701	Sololá	1	Sololá	11	Noviembre	2023-11-29T00:00:00	2024-11-08T06:00:00	5	Humedad	81
61725	7	Sololá	701	Sololá	1	Sololá	11	Noviembre	2023-11-29T00:00:00	2024-11-08T06:00:00	6	Velocidad del viento	0
61726	7	Sololá	701	Sololá	1	Sololá	11	Noviembre	2023-11-29T00:00:00	2024-11-08T06:00:00	7	Dirección del viento	0
61727	7	Sololá	701	Sololá	1	Sololá	11	Noviembre	2023-11-29T00:00:00	2024-11-08T06:00:00	1	Precipitación	0
61728	7	Sololá	701	Sololá	1	Sololá	11	Noviembre	2023-11-29T00:00:00	2024-11-08T06:00:00	8	Radiación solar	0
61729	7	Sololá	701	Sololá	1	Sololá	11	Noviembre	2023-11-29T00:00:00	2024-11-08T07:00:00	2	Temperatura media	13.1
61730	7	Sololá	701	Sololá	1	Sololá	11	Noviembre	2023-11-29T00:00:00	2024-11-08T07:00:00	4	Temperatura máxima	13.1
61731	7	Sololá	701	Sololá	1	Sololá	11	Noviembre	2023-11-29T00:00:00	2024-11-08T07:00:00	3	Temperatura mínima	12.7
61732	7	Sololá	701	Sololá	1	Sololá	11	Noviembre	2023-11-29T00:00:00	2024-11-08T07:00:00	5	Humedad	75
61733	7	Sololá	701	Sololá	1	Sololá	11	Noviembre	2023-11-29T00:00:00	2024-11-08T07:00:00	6	Velocidad del viento	0
61734	7	Sololá	701	Sololá	1	Sololá	11	Noviembre	2023-11-29T00:00:00	2024-11-08T07:00:00	7	Dirección del viento	0
61735	7	Sololá	701	Sololá	1	Sololá	11	Noviembre	2023-11-29T00:00:00	2024-11-08T07:00:00	1	Precipitación	0
61736	7	Sololá	701	Sololá	1	Sololá	11	Noviembre	2023-11-29T00:00:00	2024-11-08T07:00:00	8	Radiación solar	10
61737	7	Sololá	701	Sololá	1	Sololá	11	Noviembre	2023-11-29T00:00:00	2024-11-08T08:00:00	2	Temperatura media	15.1
61738	7	Sololá	701	Sololá	1	Sololá	11	Noviembre	2023-11-29T00:00:00	2024-11-08T08:00:00	4	Temperatura máxima	15.1
61739	7	Sololá	701	Sololá	1	Sololá	11	Noviembre	2023-11-29T00:00:00	2024-11-08T08:00:00	3	Temperatura mínima	13.1
61740	7	Sololá	701	Sololá	1	Sololá	11	Noviembre	2023-11-29T00:00:00	2024-11-08T08:00:00	5	Humedad	62
61741	7	Sololá	701	Sololá	1	Sololá	11	Noviembre	2023-11-29T00:00:00	2024-11-08T08:00:00	6	Velocidad del viento	0
61742	7	Sololá	701	Sololá	1	Sololá	11	Noviembre	2023-11-29T00:00:00	2024-11-08T08:00:00	7	Dirección del viento	0
61743	7	Sololá	701	Sololá	1	Sololá	11	Noviembre	2023-11-29T00:00:00	2024-11-08T08:00:00	1	Precipitación	0
61744	7	Sololá	701	Sololá	1	Sololá	11	Noviembre	2023-11-29T00:00:00	2024-11-08T08:00:00	8	Radiación solar	100
61745	7	Sololá	701	Sololá	1	Sololá	11	Noviembre	2023-11-29T00:00:00	2024-11-08T09:00:00	2	Temperatura media	19.9
61746	7	Sololá	701	Sololá	1	Sololá	11	Noviembre	2023-11-29T00:00:00	2024-11-08T09:00:00	4	Temperatura máxima	19.9
61747	7	Sololá	701	Sololá	1	Sololá	11	Noviembre	2023-11-29T00:00:00	2024-11-08T09:00:00	3	Temperatura mínima	15.1
61748	7	Sololá	701	Sololá	1	Sololá	11	Noviembre	2023-11-29T00:00:00	2024-11-08T09:00:00	5	Humedad	56
61749	7	Sololá	701	Sololá	1	Sololá	11	Noviembre	2023-11-29T00:00:00	2024-11-08T09:00:00	6	Velocidad del viento	0
61750	7	Sololá	701	Sololá	1	Sololá	11	Noviembre	2023-11-29T00:00:00	2024-11-08T09:00:00	7	Dirección del viento	0
61751	7	Sololá	701	Sololá	1	Sololá	11	Noviembre	2023-11-29T00:00:00	2024-11-08T09:00:00	1	Precipitación	0
61752	7	Sololá	701	Sololá	1	Sololá	11	Noviembre	2023-11-29T00:00:00	2024-11-08T09:00:00	8	Radiación solar	525
61753	7	Sololá	701	Sololá	1	Sololá	11	Noviembre	2023-11-29T00:00:00	2024-11-08T10:00:00	2	Temperatura media	21.2
61754	7	Sololá	701	Sololá	1	Sololá	11	Noviembre	2023-11-29T00:00:00	2024-11-08T10:00:00	4	Temperatura máxima	21.3
61755	7	Sololá	701	Sololá	1	Sololá	11	Noviembre	2023-11-29T00:00:00	2024-11-08T10:00:00	3	Temperatura mínima	19.9
61756	7	Sololá	701	Sololá	1	Sololá	11	Noviembre	2023-11-29T00:00:00	2024-11-08T10:00:00	5	Humedad	58
61757	7	Sololá	701	Sololá	1	Sololá	11	Noviembre	2023-11-29T00:00:00	2024-11-08T10:00:00	6	Velocidad del viento	0
61758	7	Sololá	701	Sololá	1	Sololá	11	Noviembre	2023-11-29T00:00:00	2024-11-08T10:00:00	7	Dirección del viento	0
61759	7	Sololá	701	Sololá	1	Sololá	11	Noviembre	2023-11-29T00:00:00	2024-11-08T10:00:00	1	Precipitación	0
61760	7	Sololá	701	Sololá	1	Sololá	11	Noviembre	2023-11-29T00:00:00	2024-11-08T10:00:00	8	Radiación solar	689
61761	7	Sololá	701	Sololá	1	Sololá	11	Noviembre	2023-11-29T00:00:00	2024-11-08T11:00:00	2	Temperatura media	22.2
61762	7	Sololá	701	Sololá	1	Sololá	11	Noviembre	2023-11-29T00:00:00	2024-11-08T11:00:00	4	Temperatura máxima	22.2
61763	7	Sololá	701	Sololá	1	Sololá	11	Noviembre	2023-11-29T00:00:00	2024-11-08T11:00:00	3	Temperatura mínima	21.2
61764	7	Sololá	701	Sololá	1	Sololá	11	Noviembre	2023-11-29T00:00:00	2024-11-08T11:00:00	5	Humedad	55
61765	7	Sololá	701	Sololá	1	Sololá	11	Noviembre	2023-11-29T00:00:00	2024-11-08T11:00:00	6	Velocidad del viento	0
61766	7	Sololá	701	Sololá	1	Sololá	11	Noviembre	2023-11-29T00:00:00	2024-11-08T11:00:00	7	Dirección del viento	0
61767	7	Sololá	701	Sololá	1	Sololá	11	Noviembre	2023-11-29T00:00:00	2024-11-08T11:00:00	1	Precipitación	0
61768	7	Sololá	701	Sololá	1	Sololá	11	Noviembre	2023-11-29T00:00:00	2024-11-08T11:00:00	8	Radiación solar	782
61769	7	Sololá	701	Sololá	1	Sololá	11	Noviembre	2023-11-29T00:00:00	2024-11-08T12:00:00	2	Temperatura media	23.8
61770	7	Sololá	701	Sololá	1	Sololá	11	Noviembre	2023-11-29T00:00:00	2024-11-08T12:00:00	4	Temperatura máxima	23.8
61771	7	Sololá	701	Sololá	1	Sololá	11	Noviembre	2023-11-29T00:00:00	2024-11-08T12:00:00	3	Temperatura mínima	22.1
61772	7	Sololá	701	Sololá	1	Sololá	11	Noviembre	2023-11-29T00:00:00	2024-11-08T12:00:00	5	Humedad	53
61773	7	Sololá	701	Sololá	1	Sololá	11	Noviembre	2023-11-29T00:00:00	2024-11-08T12:00:00	6	Velocidad del viento	0
61774	7	Sololá	701	Sololá	1	Sololá	11	Noviembre	2023-11-29T00:00:00	2024-11-08T12:00:00	7	Dirección del viento	0
61775	7	Sololá	701	Sololá	1	Sololá	11	Noviembre	2023-11-29T00:00:00	2024-11-08T12:00:00	1	Precipitación	0
61776	7	Sololá	701	Sololá	1	Sololá	11	Noviembre	2023-11-29T00:00:00	2024-11-08T12:00:00	8	Radiación solar	858
61777	7	Sololá	701	Sololá	1	Sololá	11	Noviembre	2023-11-29T00:00:00	2024-11-08T13:00:00	2	Temperatura media	23.6
61778	7	Sololá	701	Sololá	1	Sololá	11	Noviembre	2023-11-29T00:00:00	2024-11-08T13:00:00	4	Temperatura máxima	24.3
61779	7	Sololá	701	Sololá	1	Sololá	11	Noviembre	2023-11-29T00:00:00	2024-11-08T13:00:00	3	Temperatura mínima	23.5
61780	7	Sololá	701	Sololá	1	Sololá	11	Noviembre	2023-11-29T00:00:00	2024-11-08T13:00:00	5	Humedad	60
61781	7	Sololá	701	Sololá	1	Sololá	11	Noviembre	2023-11-29T00:00:00	2024-11-08T13:00:00	6	Velocidad del viento	0
61782	7	Sololá	701	Sololá	1	Sololá	11	Noviembre	2023-11-29T00:00:00	2024-11-08T13:00:00	7	Dirección del viento	0
61783	7	Sololá	701	Sololá	1	Sololá	11	Noviembre	2023-11-29T00:00:00	2024-11-08T13:00:00	1	Precipitación	0
61784	7	Sololá	701	Sololá	1	Sololá	11	Noviembre	2023-11-29T00:00:00	2024-11-08T13:00:00	8	Radiación solar	813
61785	7	Sololá	701	Sololá	1	Sololá	11	Noviembre	2023-11-29T00:00:00	2024-11-08T14:00:00	2	Temperatura media	23.2
61786	7	Sololá	701	Sololá	1	Sololá	11	Noviembre	2023-11-29T00:00:00	2024-11-08T14:00:00	4	Temperatura máxima	23.9
61787	7	Sololá	701	Sololá	1	Sololá	11	Noviembre	2023-11-29T00:00:00	2024-11-08T14:00:00	3	Temperatura mínima	23.2
61788	7	Sololá	701	Sololá	1	Sololá	11	Noviembre	2023-11-29T00:00:00	2024-11-08T14:00:00	5	Humedad	55
61789	7	Sololá	701	Sololá	1	Sololá	11	Noviembre	2023-11-29T00:00:00	2024-11-08T14:00:00	6	Velocidad del viento	0
61790	7	Sololá	701	Sololá	1	Sololá	11	Noviembre	2023-11-29T00:00:00	2024-11-08T14:00:00	7	Dirección del viento	0
61791	7	Sololá	701	Sololá	1	Sololá	11	Noviembre	2023-11-29T00:00:00	2024-11-08T14:00:00	1	Precipitación	0
61792	7	Sololá	701	Sololá	1	Sololá	11	Noviembre	2023-11-29T00:00:00	2024-11-08T14:00:00	8	Radiación solar	544
61793	7	Sololá	701	Sololá	1	Sololá	11	Noviembre	2023-11-29T00:00:00	2024-11-08T15:00:00	2	Temperatura media	22.4
61794	7	Sololá	701	Sololá	1	Sololá	11	Noviembre	2023-11-29T00:00:00	2024-11-08T15:00:00	4	Temperatura máxima	23.2
61795	7	Sololá	701	Sololá	1	Sololá	11	Noviembre	2023-11-29T00:00:00	2024-11-08T15:00:00	3	Temperatura mínima	22.4
61796	7	Sololá	701	Sololá	1	Sololá	11	Noviembre	2023-11-29T00:00:00	2024-11-08T15:00:00	5	Humedad	55
61797	7	Sololá	701	Sololá	1	Sololá	11	Noviembre	2023-11-29T00:00:00	2024-11-08T15:00:00	6	Velocidad del viento	0
61798	7	Sololá	701	Sololá	1	Sololá	11	Noviembre	2023-11-29T00:00:00	2024-11-08T15:00:00	7	Dirección del viento	0
61799	7	Sololá	701	Sololá	1	Sololá	11	Noviembre	2023-11-29T00:00:00	2024-11-08T15:00:00	1	Precipitación	0
61800	7	Sololá	701	Sololá	1	Sololá	11	Noviembre	2023-11-29T00:00:00	2024-11-08T15:00:00	8	Radiación solar	267
61801	7	Sololá	701	Sololá	1	Sololá	11	Noviembre	2023-11-29T00:00:00	2024-11-08T16:00:00	2	Temperatura media	22.2
61802	7	Sololá	701	Sololá	1	Sololá	11	Noviembre	2023-11-29T00:00:00	2024-11-08T16:00:00	4	Temperatura máxima	22.6
61803	7	Sololá	701	Sololá	1	Sololá	11	Noviembre	2023-11-29T00:00:00	2024-11-08T16:00:00	3	Temperatura mínima	22.2
61804	7	Sololá	701	Sololá	1	Sololá	11	Noviembre	2023-11-29T00:00:00	2024-11-08T16:00:00	5	Humedad	56
61805	7	Sololá	701	Sololá	1	Sololá	11	Noviembre	2023-11-29T00:00:00	2024-11-08T16:00:00	6	Velocidad del viento	0
61806	7	Sololá	701	Sololá	1	Sololá	11	Noviembre	2023-11-29T00:00:00	2024-11-08T16:00:00	7	Dirección del viento	0
61807	7	Sololá	701	Sololá	1	Sololá	11	Noviembre	2023-11-29T00:00:00	2024-11-08T16:00:00	1	Precipitación	0
61808	7	Sololá	701	Sololá	1	Sololá	11	Noviembre	2023-11-29T00:00:00	2024-11-08T16:00:00	8	Radiación solar	99
61809	7	Sololá	701	Sololá	1	Sololá	11	Noviembre	2023-11-29T00:00:00	2024-11-08T17:00:00	2	Temperatura media	20.1
61810	7	Sololá	701	Sololá	1	Sololá	11	Noviembre	2023-11-29T00:00:00	2024-11-08T17:00:00	4	Temperatura máxima	22.2
61811	7	Sololá	701	Sololá	1	Sololá	11	Noviembre	2023-11-29T00:00:00	2024-11-08T17:00:00	3	Temperatura mínima	20.1
61812	7	Sololá	701	Sololá	1	Sololá	11	Noviembre	2023-11-29T00:00:00	2024-11-08T17:00:00	5	Humedad	64
61813	7	Sololá	701	Sololá	1	Sololá	11	Noviembre	2023-11-29T00:00:00	2024-11-08T17:00:00	6	Velocidad del viento	0
61814	7	Sololá	701	Sololá	1	Sololá	11	Noviembre	2023-11-29T00:00:00	2024-11-08T17:00:00	7	Dirección del viento	0
61815	7	Sololá	701	Sololá	1	Sololá	11	Noviembre	2023-11-29T00:00:00	2024-11-08T17:00:00	1	Precipitación	0
61816	7	Sololá	701	Sololá	1	Sololá	11	Noviembre	2023-11-29T00:00:00	2024-11-08T17:00:00	8	Radiación solar	69
61817	7	Sololá	701	Sololá	1	Sololá	11	Noviembre	2023-11-29T00:00:00	2024-11-08T18:00:00	2	Temperatura media	17.2
61818	7	Sololá	701	Sololá	1	Sololá	11	Noviembre	2023-11-29T00:00:00	2024-11-08T18:00:00	4	Temperatura máxima	20.2
61819	7	Sololá	701	Sololá	1	Sololá	11	Noviembre	2023-11-29T00:00:00	2024-11-08T18:00:00	3	Temperatura mínima	17.2
61820	7	Sololá	701	Sololá	1	Sololá	11	Noviembre	2023-11-29T00:00:00	2024-11-08T18:00:00	5	Humedad	73
61821	7	Sololá	701	Sololá	1	Sololá	11	Noviembre	2023-11-29T00:00:00	2024-11-08T18:00:00	6	Velocidad del viento	0
61822	7	Sololá	701	Sololá	1	Sololá	11	Noviembre	2023-11-29T00:00:00	2024-11-08T18:00:00	7	Dirección del viento	0
61823	7	Sololá	701	Sololá	1	Sololá	11	Noviembre	2023-11-29T00:00:00	2024-11-08T18:00:00	1	Precipitación	0
61824	7	Sololá	701	Sololá	1	Sololá	11	Noviembre	2023-11-29T00:00:00	2024-11-08T18:00:00	8	Radiación solar	6
61825	7	Sololá	701	Sololá	1	Sololá	11	Noviembre	2023-11-29T00:00:00	2024-11-08T19:00:00	2	Temperatura media	15.6
61826	7	Sololá	701	Sololá	1	Sololá	11	Noviembre	2023-11-29T00:00:00	2024-11-08T19:00:00	4	Temperatura máxima	17.3
61827	7	Sololá	701	Sololá	1	Sololá	11	Noviembre	2023-11-29T00:00:00	2024-11-08T19:00:00	3	Temperatura mínima	15.6
61828	7	Sololá	701	Sololá	1	Sololá	11	Noviembre	2023-11-29T00:00:00	2024-11-08T19:00:00	5	Humedad	80
61829	7	Sololá	701	Sololá	1	Sololá	11	Noviembre	2023-11-29T00:00:00	2024-11-08T19:00:00	6	Velocidad del viento	0
61830	7	Sololá	701	Sololá	1	Sololá	11	Noviembre	2023-11-29T00:00:00	2024-11-08T19:00:00	7	Dirección del viento	0
61831	7	Sololá	701	Sololá	1	Sololá	11	Noviembre	2023-11-29T00:00:00	2024-11-08T19:00:00	1	Precipitación	0
61832	7	Sololá	701	Sololá	1	Sololá	11	Noviembre	2023-11-29T00:00:00	2024-11-08T19:00:00	8	Radiación solar	0
61833	7	Sololá	701	Sololá	1	Sololá	11	Noviembre	2023-11-29T00:00:00	2024-11-08T20:00:00	2	Temperatura media	14.8
61834	7	Sololá	701	Sololá	1	Sololá	11	Noviembre	2023-11-29T00:00:00	2024-11-08T20:00:00	4	Temperatura máxima	15.6
61835	7	Sololá	701	Sololá	1	Sololá	11	Noviembre	2023-11-29T00:00:00	2024-11-08T20:00:00	3	Temperatura mínima	14.8
61836	7	Sololá	701	Sololá	1	Sololá	11	Noviembre	2023-11-29T00:00:00	2024-11-08T20:00:00	5	Humedad	82
61837	7	Sololá	701	Sololá	1	Sololá	11	Noviembre	2023-11-29T00:00:00	2024-11-08T20:00:00	6	Velocidad del viento	0
61838	7	Sololá	701	Sololá	1	Sololá	11	Noviembre	2023-11-29T00:00:00	2024-11-08T20:00:00	7	Dirección del viento	0
61839	7	Sololá	701	Sololá	1	Sololá	11	Noviembre	2023-11-29T00:00:00	2024-11-08T20:00:00	1	Precipitación	0
61840	7	Sololá	701	Sololá	1	Sololá	11	Noviembre	2023-11-29T00:00:00	2024-11-08T20:00:00	8	Radiación solar	0
61841	7	Sololá	701	Sololá	1	Sololá	11	Noviembre	2023-11-29T00:00:00	2024-11-08T21:00:00	2	Temperatura media	14.3
61842	7	Sololá	701	Sololá	1	Sololá	11	Noviembre	2023-11-29T00:00:00	2024-11-08T21:00:00	4	Temperatura máxima	14.8
61843	7	Sololá	701	Sololá	1	Sololá	11	Noviembre	2023-11-29T00:00:00	2024-11-08T21:00:00	3	Temperatura mínima	14.3
61844	7	Sololá	701	Sololá	1	Sololá	11	Noviembre	2023-11-29T00:00:00	2024-11-08T21:00:00	5	Humedad	83
61845	7	Sololá	701	Sololá	1	Sololá	11	Noviembre	2023-11-29T00:00:00	2024-11-08T21:00:00	6	Velocidad del viento	0
61846	7	Sololá	701	Sololá	1	Sololá	11	Noviembre	2023-11-29T00:00:00	2024-11-08T21:00:00	7	Dirección del viento	0
61847	7	Sololá	701	Sololá	1	Sololá	11	Noviembre	2023-11-29T00:00:00	2024-11-08T21:00:00	1	Precipitación	0
61848	7	Sololá	701	Sololá	1	Sololá	11	Noviembre	2023-11-29T00:00:00	2024-11-08T21:00:00	8	Radiación solar	0
61849	7	Sololá	701	Sololá	1	Sololá	11	Noviembre	2023-11-29T00:00:00	2024-11-08T22:00:00	2	Temperatura media	13.9
61850	7	Sololá	701	Sololá	1	Sololá	11	Noviembre	2023-11-29T00:00:00	2024-11-08T22:00:00	4	Temperatura máxima	14.3
61851	7	Sololá	701	Sololá	1	Sololá	11	Noviembre	2023-11-29T00:00:00	2024-11-08T22:00:00	3	Temperatura mínima	13.9
61852	7	Sololá	701	Sololá	1	Sololá	11	Noviembre	2023-11-29T00:00:00	2024-11-08T22:00:00	5	Humedad	84
61853	7	Sololá	701	Sololá	1	Sololá	11	Noviembre	2023-11-29T00:00:00	2024-11-08T22:00:00	6	Velocidad del viento	0
61854	7	Sololá	701	Sololá	1	Sololá	11	Noviembre	2023-11-29T00:00:00	2024-11-08T22:00:00	7	Dirección del viento	0
61855	7	Sololá	701	Sololá	1	Sololá	11	Noviembre	2023-11-29T00:00:00	2024-11-08T22:00:00	1	Precipitación	0
61856	7	Sololá	701	Sololá	1	Sololá	11	Noviembre	2023-11-29T00:00:00	2024-11-08T22:00:00	8	Radiación solar	0
61857	7	Sololá	701	Sololá	1	Sololá	11	Noviembre	2023-11-29T00:00:00	2024-11-08T23:00:00	2	Temperatura media	14.1
61858	7	Sololá	701	Sololá	1	Sololá	11	Noviembre	2023-11-29T00:00:00	2024-11-08T23:00:00	4	Temperatura máxima	14.1
61859	7	Sololá	701	Sololá	1	Sololá	11	Noviembre	2023-11-29T00:00:00	2024-11-08T23:00:00	3	Temperatura mínima	13.8
61860	7	Sololá	701	Sololá	1	Sololá	11	Noviembre	2023-11-29T00:00:00	2024-11-08T23:00:00	5	Humedad	84
61861	7	Sololá	701	Sololá	1	Sololá	11	Noviembre	2023-11-29T00:00:00	2024-11-08T23:00:00	6	Velocidad del viento	0
61862	7	Sololá	701	Sololá	1	Sololá	11	Noviembre	2023-11-29T00:00:00	2024-11-08T23:00:00	7	Dirección del viento	0
61863	7	Sololá	701	Sololá	1	Sololá	11	Noviembre	2023-11-29T00:00:00	2024-11-08T23:00:00	1	Precipitación	0
61864	7	Sololá	701	Sololá	1	Sololá	11	Noviembre	2023-11-29T00:00:00	2024-11-08T23:00:00	8	Radiación solar	0
61865	7	Sololá	701	Sololá	1	Sololá	11	Noviembre	2023-11-30T00:00:00	2024-11-08T00:00:00	2	Temperatura media	13.7
61866	7	Sololá	701	Sololá	1	Sololá	11	Noviembre	2023-11-30T00:00:00	2024-11-08T00:00:00	4	Temperatura máxima	14.1
61867	7	Sololá	701	Sololá	1	Sololá	11	Noviembre	2023-11-30T00:00:00	2024-11-08T00:00:00	3	Temperatura mínima	13.7
61868	7	Sololá	701	Sololá	1	Sololá	11	Noviembre	2023-11-30T00:00:00	2024-11-08T00:00:00	5	Humedad	85
61869	7	Sololá	701	Sololá	1	Sololá	11	Noviembre	2023-11-30T00:00:00	2024-11-08T00:00:00	6	Velocidad del viento	0
61870	7	Sololá	701	Sololá	1	Sololá	11	Noviembre	2023-11-30T00:00:00	2024-11-08T00:00:00	7	Dirección del viento	0
61871	7	Sololá	701	Sololá	1	Sololá	11	Noviembre	2023-11-30T00:00:00	2024-11-08T00:00:00	1	Precipitación	0
61872	7	Sololá	701	Sololá	1	Sololá	11	Noviembre	2023-11-30T00:00:00	2024-11-08T00:00:00	8	Radiación solar	0
61873	7	Sololá	701	Sololá	1	Sololá	11	Noviembre	2023-11-30T00:00:00	2024-11-08T01:00:00	2	Temperatura media	13.3
61874	7	Sololá	701	Sololá	1	Sololá	11	Noviembre	2023-11-30T00:00:00	2024-11-08T01:00:00	4	Temperatura máxima	13.8
61875	7	Sololá	701	Sololá	1	Sololá	11	Noviembre	2023-11-30T00:00:00	2024-11-08T01:00:00	3	Temperatura mínima	13.2
61876	7	Sololá	701	Sololá	1	Sololá	11	Noviembre	2023-11-30T00:00:00	2024-11-08T01:00:00	5	Humedad	83
61877	7	Sololá	701	Sololá	1	Sololá	11	Noviembre	2023-11-30T00:00:00	2024-11-08T01:00:00	6	Velocidad del viento	0
61878	7	Sololá	701	Sololá	1	Sololá	11	Noviembre	2023-11-30T00:00:00	2024-11-08T01:00:00	7	Dirección del viento	0
61879	7	Sololá	701	Sololá	1	Sololá	11	Noviembre	2023-11-30T00:00:00	2024-11-08T01:00:00	1	Precipitación	0
61880	7	Sololá	701	Sololá	1	Sololá	11	Noviembre	2023-11-30T00:00:00	2024-11-08T01:00:00	8	Radiación solar	0
61881	7	Sololá	701	Sololá	1	Sololá	11	Noviembre	2023-11-30T00:00:00	2024-11-08T02:00:00	2	Temperatura media	12.7
61882	7	Sololá	701	Sololá	1	Sololá	11	Noviembre	2023-11-30T00:00:00	2024-11-08T02:00:00	4	Temperatura máxima	13.3
61883	7	Sololá	701	Sololá	1	Sololá	11	Noviembre	2023-11-30T00:00:00	2024-11-08T02:00:00	3	Temperatura mínima	12.6
61884	7	Sololá	701	Sololá	1	Sololá	11	Noviembre	2023-11-30T00:00:00	2024-11-08T02:00:00	5	Humedad	88
61885	7	Sololá	701	Sololá	1	Sololá	11	Noviembre	2023-11-30T00:00:00	2024-11-08T02:00:00	6	Velocidad del viento	0
61886	7	Sololá	701	Sololá	1	Sololá	11	Noviembre	2023-11-30T00:00:00	2024-11-08T02:00:00	7	Dirección del viento	0
61887	7	Sololá	701	Sololá	1	Sololá	11	Noviembre	2023-11-30T00:00:00	2024-11-08T02:00:00	1	Precipitación	0
61888	7	Sololá	701	Sololá	1	Sololá	11	Noviembre	2023-11-30T00:00:00	2024-11-08T02:00:00	8	Radiación solar	0
61889	7	Sololá	701	Sololá	1	Sololá	11	Noviembre	2023-11-30T00:00:00	2024-11-08T03:00:00	2	Temperatura media	12.2
61890	7	Sololá	701	Sololá	1	Sololá	11	Noviembre	2023-11-30T00:00:00	2024-11-08T03:00:00	4	Temperatura máxima	12.7
61891	7	Sololá	701	Sololá	1	Sololá	11	Noviembre	2023-11-30T00:00:00	2024-11-08T03:00:00	3	Temperatura mínima	12.1
61892	7	Sololá	701	Sololá	1	Sololá	11	Noviembre	2023-11-30T00:00:00	2024-11-08T03:00:00	5	Humedad	88
61893	7	Sololá	701	Sololá	1	Sololá	11	Noviembre	2023-11-30T00:00:00	2024-11-08T03:00:00	6	Velocidad del viento	0
61894	7	Sololá	701	Sololá	1	Sololá	11	Noviembre	2023-11-30T00:00:00	2024-11-08T03:00:00	7	Dirección del viento	0
61895	7	Sololá	701	Sololá	1	Sololá	11	Noviembre	2023-11-30T00:00:00	2024-11-08T03:00:00	1	Precipitación	0
61896	7	Sololá	701	Sololá	1	Sololá	11	Noviembre	2023-11-30T00:00:00	2024-11-08T03:00:00	8	Radiación solar	0
61897	7	Sololá	701	Sololá	1	Sololá	11	Noviembre	2023-11-30T00:00:00	2024-11-08T04:00:00	2	Temperatura media	12
61898	7	Sololá	701	Sololá	1	Sololá	11	Noviembre	2023-11-30T00:00:00	2024-11-08T04:00:00	4	Temperatura máxima	12.3
61899	7	Sololá	701	Sololá	1	Sololá	11	Noviembre	2023-11-30T00:00:00	2024-11-08T04:00:00	3	Temperatura mínima	12
61900	7	Sololá	701	Sololá	1	Sololá	11	Noviembre	2023-11-30T00:00:00	2024-11-08T04:00:00	5	Humedad	88
61901	7	Sololá	701	Sololá	1	Sololá	11	Noviembre	2023-11-30T00:00:00	2024-11-08T04:00:00	6	Velocidad del viento	0
61902	7	Sololá	701	Sololá	1	Sololá	11	Noviembre	2023-11-30T00:00:00	2024-11-08T04:00:00	7	Dirección del viento	0
61903	7	Sololá	701	Sololá	1	Sololá	11	Noviembre	2023-11-30T00:00:00	2024-11-08T04:00:00	1	Precipitación	0
61904	7	Sololá	701	Sololá	1	Sololá	11	Noviembre	2023-11-30T00:00:00	2024-11-08T04:00:00	8	Radiación solar	0
61905	7	Sololá	701	Sololá	1	Sololá	11	Noviembre	2023-11-30T00:00:00	2024-11-08T05:00:00	2	Temperatura media	11.7
61906	7	Sololá	701	Sololá	1	Sololá	11	Noviembre	2023-11-30T00:00:00	2024-11-08T05:00:00	4	Temperatura máxima	12.1
61907	7	Sololá	701	Sololá	1	Sololá	11	Noviembre	2023-11-30T00:00:00	2024-11-08T05:00:00	3	Temperatura mínima	11.7
61908	7	Sololá	701	Sololá	1	Sololá	11	Noviembre	2023-11-30T00:00:00	2024-11-08T05:00:00	5	Humedad	88
61909	7	Sololá	701	Sololá	1	Sololá	11	Noviembre	2023-11-30T00:00:00	2024-11-08T05:00:00	6	Velocidad del viento	0
61910	7	Sololá	701	Sololá	1	Sololá	11	Noviembre	2023-11-30T00:00:00	2024-11-08T05:00:00	7	Dirección del viento	0
61911	7	Sololá	701	Sololá	1	Sololá	11	Noviembre	2023-11-30T00:00:00	2024-11-08T05:00:00	1	Precipitación	0
61912	7	Sololá	701	Sololá	1	Sololá	11	Noviembre	2023-11-30T00:00:00	2024-11-08T05:00:00	8	Radiación solar	0
61913	7	Sololá	701	Sololá	1	Sololá	11	Noviembre	2023-11-30T00:00:00	2024-11-08T06:00:00	2	Temperatura media	11.9
61914	7	Sololá	701	Sololá	1	Sololá	11	Noviembre	2023-11-30T00:00:00	2024-11-08T06:00:00	4	Temperatura máxima	12.2
61915	7	Sololá	701	Sololá	1	Sololá	11	Noviembre	2023-11-30T00:00:00	2024-11-08T06:00:00	3	Temperatura mínima	11.6
61916	7	Sololá	701	Sololá	1	Sololá	11	Noviembre	2023-11-30T00:00:00	2024-11-08T06:00:00	5	Humedad	88
61917	7	Sololá	701	Sololá	1	Sololá	11	Noviembre	2023-11-30T00:00:00	2024-11-08T06:00:00	6	Velocidad del viento	0
61918	7	Sololá	701	Sololá	1	Sololá	11	Noviembre	2023-11-30T00:00:00	2024-11-08T06:00:00	7	Dirección del viento	0
61919	7	Sololá	701	Sololá	1	Sololá	11	Noviembre	2023-11-30T00:00:00	2024-11-08T06:00:00	1	Precipitación	0
61920	7	Sololá	701	Sololá	1	Sololá	11	Noviembre	2023-11-30T00:00:00	2024-11-08T06:00:00	8	Radiación solar	0
61921	7	Sololá	701	Sololá	1	Sololá	11	Noviembre	2023-11-30T00:00:00	2024-11-08T07:00:00	2	Temperatura media	12.3
61922	7	Sololá	701	Sololá	1	Sololá	11	Noviembre	2023-11-30T00:00:00	2024-11-08T07:00:00	4	Temperatura máxima	12.4
61923	7	Sololá	701	Sololá	1	Sololá	11	Noviembre	2023-11-30T00:00:00	2024-11-08T07:00:00	3	Temperatura mínima	11.8
61924	7	Sololá	701	Sololá	1	Sololá	11	Noviembre	2023-11-30T00:00:00	2024-11-08T07:00:00	5	Humedad	89
61925	7	Sololá	701	Sololá	1	Sololá	11	Noviembre	2023-11-30T00:00:00	2024-11-08T07:00:00	6	Velocidad del viento	0
61926	7	Sololá	701	Sololá	1	Sololá	11	Noviembre	2023-11-30T00:00:00	2024-11-08T07:00:00	7	Dirección del viento	0
61927	7	Sololá	701	Sololá	1	Sololá	11	Noviembre	2023-11-30T00:00:00	2024-11-08T07:00:00	1	Precipitación	0
61928	7	Sololá	701	Sololá	1	Sololá	11	Noviembre	2023-11-30T00:00:00	2024-11-08T07:00:00	8	Radiación solar	6
61929	7	Sololá	701	Sololá	1	Sololá	11	Noviembre	2023-11-30T00:00:00	2024-11-08T08:00:00	2	Temperatura media	14.9
61930	7	Sololá	701	Sololá	1	Sololá	11	Noviembre	2023-11-30T00:00:00	2024-11-08T08:00:00	4	Temperatura máxima	14.9
61931	7	Sololá	701	Sololá	1	Sololá	11	Noviembre	2023-11-30T00:00:00	2024-11-08T08:00:00	3	Temperatura mínima	12.3
61932	7	Sololá	701	Sololá	1	Sololá	11	Noviembre	2023-11-30T00:00:00	2024-11-08T08:00:00	5	Humedad	85
61933	7	Sololá	701	Sololá	1	Sololá	11	Noviembre	2023-11-30T00:00:00	2024-11-08T08:00:00	6	Velocidad del viento	0
61934	7	Sololá	701	Sololá	1	Sololá	11	Noviembre	2023-11-30T00:00:00	2024-11-08T08:00:00	7	Dirección del viento	0
61935	7	Sololá	701	Sololá	1	Sololá	11	Noviembre	2023-11-30T00:00:00	2024-11-08T08:00:00	1	Precipitación	0
61936	7	Sololá	701	Sololá	1	Sololá	11	Noviembre	2023-11-30T00:00:00	2024-11-08T08:00:00	8	Radiación solar	105
61937	7	Sololá	701	Sololá	1	Sololá	11	Noviembre	2023-11-30T00:00:00	2024-11-08T09:00:00	2	Temperatura media	21.2
61938	7	Sololá	701	Sololá	1	Sololá	11	Noviembre	2023-11-30T00:00:00	2024-11-08T09:00:00	4	Temperatura máxima	21.2
61939	7	Sololá	701	Sololá	1	Sololá	11	Noviembre	2023-11-30T00:00:00	2024-11-08T09:00:00	3	Temperatura mínima	15
61940	7	Sololá	701	Sololá	1	Sololá	11	Noviembre	2023-11-30T00:00:00	2024-11-08T09:00:00	5	Humedad	64
61941	7	Sololá	701	Sololá	1	Sololá	11	Noviembre	2023-11-30T00:00:00	2024-11-08T09:00:00	6	Velocidad del viento	0
61942	7	Sololá	701	Sololá	1	Sololá	11	Noviembre	2023-11-30T00:00:00	2024-11-08T09:00:00	7	Dirección del viento	0
61943	7	Sololá	701	Sololá	1	Sololá	11	Noviembre	2023-11-30T00:00:00	2024-11-08T09:00:00	1	Precipitación	0
61944	7	Sololá	701	Sololá	1	Sololá	11	Noviembre	2023-11-30T00:00:00	2024-11-08T09:00:00	8	Radiación solar	531
61945	7	Sololá	701	Sololá	1	Sololá	11	Noviembre	2023-11-30T00:00:00	2024-11-08T10:00:00	2	Temperatura media	21.7
61946	7	Sololá	701	Sololá	1	Sololá	11	Noviembre	2023-11-30T00:00:00	2024-11-08T10:00:00	4	Temperatura máxima	21.9
61947	7	Sololá	701	Sololá	1	Sololá	11	Noviembre	2023-11-30T00:00:00	2024-11-08T10:00:00	3	Temperatura mínima	21.3
61948	7	Sololá	701	Sololá	1	Sololá	11	Noviembre	2023-11-30T00:00:00	2024-11-08T10:00:00	5	Humedad	65
61949	7	Sololá	701	Sololá	1	Sololá	11	Noviembre	2023-11-30T00:00:00	2024-11-08T10:00:00	6	Velocidad del viento	0
61950	7	Sololá	701	Sololá	1	Sololá	11	Noviembre	2023-11-30T00:00:00	2024-11-08T10:00:00	7	Dirección del viento	0
61951	7	Sololá	701	Sololá	1	Sololá	11	Noviembre	2023-11-30T00:00:00	2024-11-08T10:00:00	1	Precipitación	0
61952	7	Sololá	701	Sololá	1	Sololá	11	Noviembre	2023-11-30T00:00:00	2024-11-08T10:00:00	8	Radiación solar	641
61953	7	Sololá	701	Sololá	1	Sololá	11	Noviembre	2023-11-30T00:00:00	2024-11-08T11:00:00	2	Temperatura media	22.7
61954	7	Sololá	701	Sololá	1	Sololá	11	Noviembre	2023-11-30T00:00:00	2024-11-08T11:00:00	4	Temperatura máxima	22.7
61955	7	Sololá	701	Sololá	1	Sololá	11	Noviembre	2023-11-30T00:00:00	2024-11-08T11:00:00	3	Temperatura mínima	21.6
61956	7	Sololá	701	Sololá	1	Sololá	11	Noviembre	2023-11-30T00:00:00	2024-11-08T11:00:00	5	Humedad	63
61957	7	Sololá	701	Sololá	1	Sololá	11	Noviembre	2023-11-30T00:00:00	2024-11-08T11:00:00	6	Velocidad del viento	0
61958	7	Sololá	701	Sololá	1	Sololá	11	Noviembre	2023-11-30T00:00:00	2024-11-08T11:00:00	7	Dirección del viento	0
61959	7	Sololá	701	Sololá	1	Sololá	11	Noviembre	2023-11-30T00:00:00	2024-11-08T11:00:00	1	Precipitación	0
61960	7	Sololá	701	Sololá	1	Sololá	11	Noviembre	2023-11-30T00:00:00	2024-11-08T11:00:00	8	Radiación solar	834
61961	7	Sololá	701	Sololá	1	Sololá	11	Noviembre	2023-11-30T00:00:00	2024-11-08T12:00:00	2	Temperatura media	23.2
61962	7	Sololá	701	Sololá	1	Sololá	11	Noviembre	2023-11-30T00:00:00	2024-11-08T12:00:00	4	Temperatura máxima	23.5
61963	7	Sololá	701	Sololá	1	Sololá	11	Noviembre	2023-11-30T00:00:00	2024-11-08T12:00:00	3	Temperatura mínima	22.7
61964	7	Sololá	701	Sololá	1	Sololá	11	Noviembre	2023-11-30T00:00:00	2024-11-08T12:00:00	5	Humedad	60
61965	7	Sololá	701	Sololá	1	Sololá	11	Noviembre	2023-11-30T00:00:00	2024-11-08T12:00:00	6	Velocidad del viento	0
61966	7	Sololá	701	Sololá	1	Sololá	11	Noviembre	2023-11-30T00:00:00	2024-11-08T12:00:00	7	Dirección del viento	0
61967	7	Sololá	701	Sololá	1	Sololá	11	Noviembre	2023-11-30T00:00:00	2024-11-08T12:00:00	1	Precipitación	0
61968	7	Sololá	701	Sololá	1	Sololá	11	Noviembre	2023-11-30T00:00:00	2024-11-08T12:00:00	8	Radiación solar	866
61969	7	Sololá	701	Sololá	1	Sololá	11	Noviembre	2023-11-30T00:00:00	2024-11-08T13:00:00	2	Temperatura media	22.9
61970	7	Sololá	701	Sololá	1	Sololá	11	Noviembre	2023-11-30T00:00:00	2024-11-08T13:00:00	4	Temperatura máxima	23.6
61971	7	Sololá	701	Sololá	1	Sololá	11	Noviembre	2023-11-30T00:00:00	2024-11-08T13:00:00	3	Temperatura mínima	22.6
61972	7	Sololá	701	Sololá	1	Sololá	11	Noviembre	2023-11-30T00:00:00	2024-11-08T13:00:00	5	Humedad	66
61973	7	Sololá	701	Sololá	1	Sololá	11	Noviembre	2023-11-30T00:00:00	2024-11-08T13:00:00	6	Velocidad del viento	0
61974	7	Sololá	701	Sololá	1	Sololá	11	Noviembre	2023-11-30T00:00:00	2024-11-08T13:00:00	7	Dirección del viento	0
61975	7	Sololá	701	Sololá	1	Sololá	11	Noviembre	2023-11-30T00:00:00	2024-11-08T13:00:00	1	Precipitación	0
61976	7	Sololá	701	Sololá	1	Sololá	11	Noviembre	2023-11-30T00:00:00	2024-11-08T13:00:00	8	Radiación solar	638
61977	7	Sololá	701	Sololá	1	Sololá	11	Noviembre	2023-11-30T00:00:00	2024-11-08T14:00:00	2	Temperatura media	23
61978	7	Sololá	701	Sololá	1	Sololá	11	Noviembre	2023-11-30T00:00:00	2024-11-08T14:00:00	4	Temperatura máxima	23.6
61979	7	Sololá	701	Sololá	1	Sololá	11	Noviembre	2023-11-30T00:00:00	2024-11-08T14:00:00	3	Temperatura mínima	22.6
61980	7	Sololá	701	Sololá	1	Sololá	11	Noviembre	2023-11-30T00:00:00	2024-11-08T14:00:00	5	Humedad	69
61981	7	Sololá	701	Sololá	1	Sololá	11	Noviembre	2023-11-30T00:00:00	2024-11-08T14:00:00	6	Velocidad del viento	0
61982	7	Sololá	701	Sololá	1	Sololá	11	Noviembre	2023-11-30T00:00:00	2024-11-08T14:00:00	7	Dirección del viento	0
61983	7	Sololá	701	Sololá	1	Sololá	11	Noviembre	2023-11-30T00:00:00	2024-11-08T14:00:00	1	Precipitación	0
61984	7	Sololá	701	Sololá	1	Sololá	11	Noviembre	2023-11-30T00:00:00	2024-11-08T14:00:00	8	Radiación solar	218
61985	7	Sololá	701	Sololá	1	Sololá	11	Noviembre	2023-11-30T00:00:00	2024-11-08T15:00:00	2	Temperatura media	22.3
61986	7	Sololá	701	Sololá	1	Sololá	11	Noviembre	2023-11-30T00:00:00	2024-11-08T15:00:00	4	Temperatura máxima	23.2
61987	7	Sololá	701	Sololá	1	Sololá	11	Noviembre	2023-11-30T00:00:00	2024-11-08T15:00:00	3	Temperatura mínima	22.2
61988	7	Sololá	701	Sololá	1	Sololá	11	Noviembre	2023-11-30T00:00:00	2024-11-08T15:00:00	5	Humedad	71
61989	7	Sololá	701	Sololá	1	Sololá	11	Noviembre	2023-11-30T00:00:00	2024-11-08T15:00:00	6	Velocidad del viento	0
61990	7	Sololá	701	Sololá	1	Sololá	11	Noviembre	2023-11-30T00:00:00	2024-11-08T15:00:00	7	Dirección del viento	0
61991	7	Sololá	701	Sololá	1	Sololá	11	Noviembre	2023-11-30T00:00:00	2024-11-08T15:00:00	1	Precipitación	0
61992	7	Sololá	701	Sololá	1	Sololá	11	Noviembre	2023-11-30T00:00:00	2024-11-08T15:00:00	8	Radiación solar	371
61993	7	Sololá	701	Sololá	1	Sololá	11	Noviembre	2023-11-30T00:00:00	2024-11-08T16:00:00	2	Temperatura media	21.1
61994	7	Sololá	701	Sololá	1	Sololá	11	Noviembre	2023-11-30T00:00:00	2024-11-08T16:00:00	4	Temperatura máxima	22.4
61995	7	Sololá	701	Sololá	1	Sololá	11	Noviembre	2023-11-30T00:00:00	2024-11-08T16:00:00	3	Temperatura mínima	21.1
61996	7	Sololá	701	Sololá	1	Sololá	11	Noviembre	2023-11-30T00:00:00	2024-11-08T16:00:00	5	Humedad	78
61997	7	Sololá	701	Sololá	1	Sololá	11	Noviembre	2023-11-30T00:00:00	2024-11-08T16:00:00	6	Velocidad del viento	0
61998	7	Sololá	701	Sololá	1	Sololá	11	Noviembre	2023-11-30T00:00:00	2024-11-08T16:00:00	7	Dirección del viento	0
61999	7	Sololá	701	Sololá	1	Sololá	11	Noviembre	2023-11-30T00:00:00	2024-11-08T16:00:00	1	Precipitación	0
62000	7	Sololá	701	Sololá	1	Sololá	11	Noviembre	2023-11-30T00:00:00	2024-11-08T16:00:00	8	Radiación solar	131
62001	7	Sololá	701	Sololá	1	Sololá	11	Noviembre	2023-11-30T00:00:00	2024-11-08T17:00:00	2	Temperatura media	19
62002	7	Sololá	701	Sololá	1	Sololá	11	Noviembre	2023-11-30T00:00:00	2024-11-08T17:00:00	4	Temperatura máxima	21.1
62003	7	Sololá	701	Sololá	1	Sololá	11	Noviembre	2023-11-30T00:00:00	2024-11-08T17:00:00	3	Temperatura mínima	19
62004	7	Sololá	701	Sololá	1	Sololá	11	Noviembre	2023-11-30T00:00:00	2024-11-08T17:00:00	5	Humedad	85
62005	7	Sololá	701	Sololá	1	Sololá	11	Noviembre	2023-11-30T00:00:00	2024-11-08T17:00:00	6	Velocidad del viento	0
62006	7	Sololá	701	Sololá	1	Sololá	11	Noviembre	2023-11-30T00:00:00	2024-11-08T17:00:00	7	Dirección del viento	0
62007	7	Sololá	701	Sololá	1	Sololá	11	Noviembre	2023-11-30T00:00:00	2024-11-08T17:00:00	1	Precipitación	0
62008	7	Sololá	701	Sololá	1	Sololá	11	Noviembre	2023-11-30T00:00:00	2024-11-08T17:00:00	8	Radiación solar	77
62009	7	Sololá	701	Sololá	1	Sololá	11	Noviembre	2023-11-30T00:00:00	2024-11-08T18:00:00	2	Temperatura media	17.6
62010	7	Sololá	701	Sololá	1	Sololá	11	Noviembre	2023-11-30T00:00:00	2024-11-08T18:00:00	4	Temperatura máxima	19
62011	7	Sololá	701	Sololá	1	Sololá	11	Noviembre	2023-11-30T00:00:00	2024-11-08T18:00:00	3	Temperatura mínima	17.6
62012	7	Sololá	701	Sololá	1	Sololá	11	Noviembre	2023-11-30T00:00:00	2024-11-08T18:00:00	5	Humedad	89
62013	7	Sololá	701	Sololá	1	Sololá	11	Noviembre	2023-11-30T00:00:00	2024-11-08T18:00:00	6	Velocidad del viento	0
62014	7	Sololá	701	Sololá	1	Sololá	11	Noviembre	2023-11-30T00:00:00	2024-11-08T18:00:00	7	Dirección del viento	0
62015	7	Sololá	701	Sololá	1	Sololá	11	Noviembre	2023-11-30T00:00:00	2024-11-08T18:00:00	1	Precipitación	0
62016	7	Sololá	701	Sololá	1	Sololá	11	Noviembre	2023-11-30T00:00:00	2024-11-08T18:00:00	8	Radiación solar	9
62017	7	Sololá	701	Sololá	1	Sololá	11	Noviembre	2023-11-30T00:00:00	2024-11-08T19:00:00	2	Temperatura media	17
62018	7	Sololá	701	Sololá	1	Sololá	11	Noviembre	2023-11-30T00:00:00	2024-11-08T19:00:00	4	Temperatura máxima	17.6
62019	7	Sololá	701	Sololá	1	Sololá	11	Noviembre	2023-11-30T00:00:00	2024-11-08T19:00:00	3	Temperatura mínima	17
62020	7	Sololá	701	Sololá	1	Sololá	11	Noviembre	2023-11-30T00:00:00	2024-11-08T19:00:00	5	Humedad	91
62021	7	Sololá	701	Sololá	1	Sololá	11	Noviembre	2023-11-30T00:00:00	2024-11-08T19:00:00	6	Velocidad del viento	0
62022	7	Sololá	701	Sololá	1	Sololá	11	Noviembre	2023-11-30T00:00:00	2024-11-08T19:00:00	7	Dirección del viento	0
62023	7	Sololá	701	Sololá	1	Sololá	11	Noviembre	2023-11-30T00:00:00	2024-11-08T19:00:00	1	Precipitación	0
62024	7	Sololá	701	Sololá	1	Sololá	11	Noviembre	2023-11-30T00:00:00	2024-11-08T19:00:00	8	Radiación solar	0
62025	7	Sololá	701	Sololá	1	Sololá	11	Noviembre	2023-11-30T00:00:00	2024-11-08T20:00:00	2	Temperatura media	16.7
62026	7	Sololá	701	Sololá	1	Sololá	11	Noviembre	2023-11-30T00:00:00	2024-11-08T20:00:00	4	Temperatura máxima	17
62027	7	Sololá	701	Sololá	1	Sololá	11	Noviembre	2023-11-30T00:00:00	2024-11-08T20:00:00	3	Temperatura mínima	16.7
62028	7	Sololá	701	Sololá	1	Sololá	11	Noviembre	2023-11-30T00:00:00	2024-11-08T20:00:00	5	Humedad	88
62029	7	Sololá	701	Sololá	1	Sololá	11	Noviembre	2023-11-30T00:00:00	2024-11-08T20:00:00	6	Velocidad del viento	0
62030	7	Sololá	701	Sololá	1	Sololá	11	Noviembre	2023-11-30T00:00:00	2024-11-08T20:00:00	7	Dirección del viento	0
62031	7	Sololá	701	Sololá	1	Sololá	11	Noviembre	2023-11-30T00:00:00	2024-11-08T20:00:00	1	Precipitación	0
62032	7	Sololá	701	Sololá	1	Sololá	11	Noviembre	2023-11-30T00:00:00	2024-11-08T20:00:00	8	Radiación solar	0
62033	7	Sololá	701	Sololá	1	Sololá	11	Noviembre	2023-11-30T00:00:00	2024-11-08T21:00:00	2	Temperatura media	15.3
62034	7	Sololá	701	Sololá	1	Sololá	11	Noviembre	2023-11-30T00:00:00	2024-11-08T21:00:00	4	Temperatura máxima	16.8
62035	7	Sololá	701	Sololá	1	Sololá	11	Noviembre	2023-11-30T00:00:00	2024-11-08T21:00:00	3	Temperatura mínima	15.3
62036	7	Sololá	701	Sololá	1	Sololá	11	Noviembre	2023-11-30T00:00:00	2024-11-08T21:00:00	5	Humedad	86
62037	7	Sololá	701	Sololá	1	Sololá	11	Noviembre	2023-11-30T00:00:00	2024-11-08T21:00:00	6	Velocidad del viento	0
62038	7	Sololá	701	Sololá	1	Sololá	11	Noviembre	2023-11-30T00:00:00	2024-11-08T21:00:00	7	Dirección del viento	0
62039	7	Sololá	701	Sololá	1	Sololá	11	Noviembre	2023-11-30T00:00:00	2024-11-08T21:00:00	1	Precipitación	0
62040	7	Sololá	701	Sololá	1	Sololá	11	Noviembre	2023-11-30T00:00:00	2024-11-08T21:00:00	8	Radiación solar	0
62041	7	Sololá	701	Sololá	1	Sololá	11	Noviembre	2023-11-30T00:00:00	2024-11-08T22:00:00	2	Temperatura media	13.8
62042	7	Sololá	701	Sololá	1	Sololá	11	Noviembre	2023-11-30T00:00:00	2024-11-08T22:00:00	4	Temperatura máxima	15.3
62043	7	Sololá	701	Sololá	1	Sololá	11	Noviembre	2023-11-30T00:00:00	2024-11-08T22:00:00	3	Temperatura mínima	13.8
62044	7	Sololá	701	Sololá	1	Sololá	11	Noviembre	2023-11-30T00:00:00	2024-11-08T22:00:00	5	Humedad	88
62045	7	Sololá	701	Sololá	1	Sololá	11	Noviembre	2023-11-30T00:00:00	2024-11-08T22:00:00	6	Velocidad del viento	0
62046	7	Sololá	701	Sololá	1	Sololá	11	Noviembre	2023-11-30T00:00:00	2024-11-08T22:00:00	7	Dirección del viento	0
62047	7	Sololá	701	Sololá	1	Sololá	11	Noviembre	2023-11-30T00:00:00	2024-11-08T22:00:00	1	Precipitación	0
62048	7	Sololá	701	Sololá	1	Sololá	11	Noviembre	2023-11-30T00:00:00	2024-11-08T22:00:00	8	Radiación solar	0
62049	7	Sololá	701	Sololá	1	Sololá	11	Noviembre	2023-11-30T00:00:00	2024-11-08T23:00:00	2	Temperatura media	13.1
62050	7	Sololá	701	Sololá	1	Sololá	11	Noviembre	2023-11-30T00:00:00	2024-11-08T23:00:00	4	Temperatura máxima	13.8
62051	7	Sololá	701	Sololá	1	Sololá	11	Noviembre	2023-11-30T00:00:00	2024-11-08T23:00:00	3	Temperatura mínima	13.1
62052	7	Sololá	701	Sololá	1	Sololá	11	Noviembre	2023-11-30T00:00:00	2024-11-08T23:00:00	5	Humedad	87
62053	7	Sololá	701	Sololá	1	Sololá	11	Noviembre	2023-11-30T00:00:00	2024-11-08T23:00:00	6	Velocidad del viento	0
62054	7	Sololá	701	Sololá	1	Sololá	11	Noviembre	2023-11-30T00:00:00	2024-11-08T23:00:00	7	Dirección del viento	0
62055	7	Sololá	701	Sololá	1	Sololá	11	Noviembre	2023-11-30T00:00:00	2024-11-08T23:00:00	1	Precipitación	0
62056	7	Sololá	701	Sololá	1	Sololá	11	Noviembre	2023-11-30T00:00:00	2024-11-08T23:00:00	8	Radiación solar	0
62057	7	Sololá	701	Sololá	1	Sololá	12	Diciembre	2023-01-12T00:00:00	2024-11-08T00:00:00	2	Temperatura media	12.7
62058	7	Sololá	701	Sololá	1	Sololá	12	Diciembre	2023-01-12T00:00:00	2024-11-08T00:00:00	4	Temperatura máxima	13.1
62059	7	Sololá	701	Sololá	1	Sololá	12	Diciembre	2023-01-12T00:00:00	2024-11-08T00:00:00	3	Temperatura mínima	12.7
62060	7	Sololá	701	Sololá	1	Sololá	12	Diciembre	2023-01-12T00:00:00	2024-11-08T00:00:00	5	Humedad	85
62061	7	Sololá	701	Sololá	1	Sololá	12	Diciembre	2023-01-12T00:00:00	2024-11-08T00:00:00	6	Velocidad del viento	0
62062	7	Sololá	701	Sololá	1	Sololá	12	Diciembre	2023-01-12T00:00:00	2024-11-08T00:00:00	7	Dirección del viento	0
62063	7	Sololá	701	Sololá	1	Sololá	12	Diciembre	2023-01-12T00:00:00	2024-11-08T00:00:00	1	Precipitación	0
62064	7	Sololá	701	Sololá	1	Sololá	12	Diciembre	2023-01-12T00:00:00	2024-11-08T00:00:00	8	Radiación solar	0
62065	7	Sololá	701	Sololá	1	Sololá	12	Diciembre	2023-01-12T00:00:00	2024-11-08T01:00:00	2	Temperatura media	12.8
62066	7	Sololá	701	Sololá	1	Sololá	12	Diciembre	2023-01-12T00:00:00	2024-11-08T01:00:00	4	Temperatura máxima	12.9
62067	7	Sololá	701	Sololá	1	Sololá	12	Diciembre	2023-01-12T00:00:00	2024-11-08T01:00:00	3	Temperatura mínima	12.7
62068	7	Sololá	701	Sololá	1	Sololá	12	Diciembre	2023-01-12T00:00:00	2024-11-08T01:00:00	5	Humedad	78
62069	7	Sololá	701	Sololá	1	Sololá	12	Diciembre	2023-01-12T00:00:00	2024-11-08T01:00:00	6	Velocidad del viento	0
62070	7	Sololá	701	Sololá	1	Sololá	12	Diciembre	2023-01-12T00:00:00	2024-11-08T01:00:00	7	Dirección del viento	0
62071	7	Sololá	701	Sololá	1	Sololá	12	Diciembre	2023-01-12T00:00:00	2024-11-08T01:00:00	1	Precipitación	0
62072	7	Sololá	701	Sololá	1	Sololá	12	Diciembre	2023-01-12T00:00:00	2024-11-08T01:00:00	8	Radiación solar	0
62073	7	Sololá	701	Sololá	1	Sololá	12	Diciembre	2023-01-12T00:00:00	2024-11-08T02:00:00	2	Temperatura media	12.1
62074	7	Sololá	701	Sololá	1	Sololá	12	Diciembre	2023-01-12T00:00:00	2024-11-08T02:00:00	4	Temperatura máxima	12.8
62075	7	Sololá	701	Sololá	1	Sololá	12	Diciembre	2023-01-12T00:00:00	2024-11-08T02:00:00	3	Temperatura mínima	12.1
62076	7	Sololá	701	Sololá	1	Sololá	12	Diciembre	2023-01-12T00:00:00	2024-11-08T02:00:00	5	Humedad	76
62077	7	Sololá	701	Sololá	1	Sololá	12	Diciembre	2023-01-12T00:00:00	2024-11-08T02:00:00	6	Velocidad del viento	0
62078	7	Sololá	701	Sololá	1	Sololá	12	Diciembre	2023-01-12T00:00:00	2024-11-08T02:00:00	7	Dirección del viento	0
62079	7	Sololá	701	Sololá	1	Sololá	12	Diciembre	2023-01-12T00:00:00	2024-11-08T02:00:00	1	Precipitación	0
62080	7	Sololá	701	Sololá	1	Sololá	12	Diciembre	2023-01-12T00:00:00	2024-11-08T02:00:00	8	Radiación solar	0
62081	7	Sololá	701	Sololá	1	Sololá	12	Diciembre	2023-01-12T00:00:00	2024-11-08T03:00:00	2	Temperatura media	12.2
62082	7	Sololá	701	Sololá	1	Sololá	12	Diciembre	2023-01-12T00:00:00	2024-11-08T03:00:00	4	Temperatura máxima	12.2
62083	7	Sololá	701	Sololá	1	Sololá	12	Diciembre	2023-01-12T00:00:00	2024-11-08T03:00:00	3	Temperatura mínima	11.9
62084	7	Sololá	701	Sololá	1	Sololá	12	Diciembre	2023-01-12T00:00:00	2024-11-08T03:00:00	5	Humedad	74
62085	7	Sololá	701	Sololá	1	Sololá	12	Diciembre	2023-01-12T00:00:00	2024-11-08T03:00:00	6	Velocidad del viento	0
62086	7	Sololá	701	Sololá	1	Sololá	12	Diciembre	2023-01-12T00:00:00	2024-11-08T03:00:00	7	Dirección del viento	0
62087	7	Sololá	701	Sololá	1	Sololá	12	Diciembre	2023-01-12T00:00:00	2024-11-08T03:00:00	1	Precipitación	0
62088	7	Sololá	701	Sololá	1	Sololá	12	Diciembre	2023-01-12T00:00:00	2024-11-08T03:00:00	8	Radiación solar	0
62089	7	Sololá	701	Sololá	1	Sololá	12	Diciembre	2023-01-12T00:00:00	2024-11-08T04:00:00	2	Temperatura media	11.4
62090	7	Sololá	701	Sololá	1	Sololá	12	Diciembre	2023-01-12T00:00:00	2024-11-08T04:00:00	4	Temperatura máxima	12.2
62091	7	Sololá	701	Sololá	1	Sololá	12	Diciembre	2023-01-12T00:00:00	2024-11-08T04:00:00	3	Temperatura mínima	11.2
62092	7	Sololá	701	Sololá	1	Sololá	12	Diciembre	2023-01-12T00:00:00	2024-11-08T04:00:00	5	Humedad	74
62093	7	Sololá	701	Sololá	1	Sololá	12	Diciembre	2023-01-12T00:00:00	2024-11-08T04:00:00	6	Velocidad del viento	0
62094	7	Sololá	701	Sololá	1	Sololá	12	Diciembre	2023-01-12T00:00:00	2024-11-08T04:00:00	7	Dirección del viento	0
62095	7	Sololá	701	Sololá	1	Sololá	12	Diciembre	2023-01-12T00:00:00	2024-11-08T04:00:00	1	Precipitación	0
62096	7	Sololá	701	Sololá	1	Sololá	12	Diciembre	2023-01-12T00:00:00	2024-11-08T04:00:00	8	Radiación solar	0
62097	7	Sololá	701	Sololá	1	Sololá	12	Diciembre	2023-01-12T00:00:00	2024-11-08T05:00:00	2	Temperatura media	12.3
62098	7	Sololá	701	Sololá	1	Sololá	12	Diciembre	2023-01-12T00:00:00	2024-11-08T05:00:00	4	Temperatura máxima	12.3
62099	7	Sololá	701	Sololá	1	Sololá	12	Diciembre	2023-01-12T00:00:00	2024-11-08T05:00:00	3	Temperatura mínima	11.5
62100	7	Sololá	701	Sololá	1	Sololá	12	Diciembre	2023-01-12T00:00:00	2024-11-08T05:00:00	5	Humedad	67
62101	7	Sololá	701	Sololá	1	Sololá	12	Diciembre	2023-01-12T00:00:00	2024-11-08T05:00:00	6	Velocidad del viento	0
62102	7	Sololá	701	Sololá	1	Sololá	12	Diciembre	2023-01-12T00:00:00	2024-11-08T05:00:00	7	Dirección del viento	0
62103	7	Sololá	701	Sololá	1	Sololá	12	Diciembre	2023-01-12T00:00:00	2024-11-08T05:00:00	1	Precipitación	0
62104	7	Sololá	701	Sololá	1	Sololá	12	Diciembre	2023-01-12T00:00:00	2024-11-08T05:00:00	8	Radiación solar	0
62105	7	Sololá	701	Sololá	1	Sololá	12	Diciembre	2023-01-12T00:00:00	2024-11-08T06:00:00	2	Temperatura media	12.2
62106	7	Sololá	701	Sololá	1	Sololá	12	Diciembre	2023-01-12T00:00:00	2024-11-08T06:00:00	4	Temperatura máxima	12.3
62107	7	Sololá	701	Sololá	1	Sololá	12	Diciembre	2023-01-12T00:00:00	2024-11-08T06:00:00	3	Temperatura mínima	12
62108	7	Sololá	701	Sololá	1	Sololá	12	Diciembre	2023-01-12T00:00:00	2024-11-08T06:00:00	5	Humedad	73
62109	7	Sololá	701	Sololá	1	Sololá	12	Diciembre	2023-01-12T00:00:00	2024-11-08T06:00:00	6	Velocidad del viento	1.6
62110	7	Sololá	701	Sololá	1	Sololá	12	Diciembre	2023-01-12T00:00:00	2024-11-08T06:00:00	7	Dirección del viento	1.61
62111	7	Sololá	701	Sololá	1	Sololá	12	Diciembre	2023-01-12T00:00:00	2024-11-08T06:00:00	1	Precipitación	0
62112	7	Sololá	701	Sololá	1	Sololá	12	Diciembre	2023-01-12T00:00:00	2024-11-08T06:00:00	8	Radiación solar	0
62113	7	Sololá	701	Sololá	1	Sololá	12	Diciembre	2023-01-12T00:00:00	2024-11-08T07:00:00	2	Temperatura media	12.4
62114	7	Sololá	701	Sololá	1	Sololá	12	Diciembre	2023-01-12T00:00:00	2024-11-08T07:00:00	4	Temperatura máxima	12.4
62115	7	Sololá	701	Sololá	1	Sololá	12	Diciembre	2023-01-12T00:00:00	2024-11-08T07:00:00	3	Temperatura mínima	12
62116	7	Sololá	701	Sololá	1	Sololá	12	Diciembre	2023-01-12T00:00:00	2024-11-08T07:00:00	5	Humedad	77
62117	7	Sololá	701	Sololá	1	Sololá	12	Diciembre	2023-01-12T00:00:00	2024-11-08T07:00:00	6	Velocidad del viento	0
62118	7	Sololá	701	Sololá	1	Sololá	12	Diciembre	2023-01-12T00:00:00	2024-11-08T07:00:00	7	Dirección del viento	0
62119	7	Sololá	701	Sololá	1	Sololá	12	Diciembre	2023-01-12T00:00:00	2024-11-08T07:00:00	1	Precipitación	0
62120	7	Sololá	701	Sololá	1	Sololá	12	Diciembre	2023-01-12T00:00:00	2024-11-08T07:00:00	8	Radiación solar	6
62121	7	Sololá	701	Sololá	1	Sololá	12	Diciembre	2023-01-12T00:00:00	2024-11-08T08:00:00	2	Temperatura media	15.2
62122	7	Sololá	701	Sololá	1	Sololá	12	Diciembre	2023-01-12T00:00:00	2024-11-08T08:00:00	4	Temperatura máxima	15.2
62123	7	Sololá	701	Sololá	1	Sololá	12	Diciembre	2023-01-12T00:00:00	2024-11-08T08:00:00	3	Temperatura mínima	12.3
62124	7	Sololá	701	Sololá	1	Sololá	12	Diciembre	2023-01-12T00:00:00	2024-11-08T08:00:00	5	Humedad	71
62125	7	Sololá	701	Sololá	1	Sololá	12	Diciembre	2023-01-12T00:00:00	2024-11-08T08:00:00	6	Velocidad del viento	0
62126	7	Sololá	701	Sololá	1	Sololá	12	Diciembre	2023-01-12T00:00:00	2024-11-08T08:00:00	7	Dirección del viento	0
62127	7	Sololá	701	Sololá	1	Sololá	12	Diciembre	2023-01-12T00:00:00	2024-11-08T08:00:00	1	Precipitación	0
62128	7	Sololá	701	Sololá	1	Sololá	12	Diciembre	2023-01-12T00:00:00	2024-11-08T08:00:00	8	Radiación solar	100
62129	7	Sololá	701	Sololá	1	Sololá	12	Diciembre	2023-01-12T00:00:00	2024-11-08T09:00:00	2	Temperatura media	21.1
62130	7	Sololá	701	Sololá	1	Sololá	12	Diciembre	2023-01-12T00:00:00	2024-11-08T09:00:00	4	Temperatura máxima	21.1
62131	7	Sololá	701	Sololá	1	Sololá	12	Diciembre	2023-01-12T00:00:00	2024-11-08T09:00:00	3	Temperatura mínima	15.3
62132	7	Sololá	701	Sololá	1	Sololá	12	Diciembre	2023-01-12T00:00:00	2024-11-08T09:00:00	5	Humedad	60
62133	7	Sololá	701	Sololá	1	Sololá	12	Diciembre	2023-01-12T00:00:00	2024-11-08T09:00:00	6	Velocidad del viento	0
62134	7	Sololá	701	Sololá	1	Sololá	12	Diciembre	2023-01-12T00:00:00	2024-11-08T09:00:00	7	Dirección del viento	0
62135	7	Sololá	701	Sololá	1	Sololá	12	Diciembre	2023-01-12T00:00:00	2024-11-08T09:00:00	1	Precipitación	0
62136	7	Sololá	701	Sololá	1	Sololá	12	Diciembre	2023-01-12T00:00:00	2024-11-08T09:00:00	8	Radiación solar	526
62137	7	Sololá	701	Sololá	1	Sololá	12	Diciembre	2023-01-12T00:00:00	2024-11-08T10:00:00	2	Temperatura media	21.8
62138	7	Sololá	701	Sololá	1	Sololá	12	Diciembre	2023-01-12T00:00:00	2024-11-08T10:00:00	4	Temperatura máxima	21.8
62139	7	Sololá	701	Sololá	1	Sololá	12	Diciembre	2023-01-12T00:00:00	2024-11-08T10:00:00	3	Temperatura mínima	21
62140	7	Sololá	701	Sololá	1	Sololá	12	Diciembre	2023-01-12T00:00:00	2024-11-08T10:00:00	5	Humedad	62
62141	7	Sololá	701	Sololá	1	Sololá	12	Diciembre	2023-01-12T00:00:00	2024-11-08T10:00:00	6	Velocidad del viento	0
62142	7	Sololá	701	Sololá	1	Sololá	12	Diciembre	2023-01-12T00:00:00	2024-11-08T10:00:00	7	Dirección del viento	0
62143	7	Sololá	701	Sololá	1	Sololá	12	Diciembre	2023-01-12T00:00:00	2024-11-08T10:00:00	1	Precipitación	0
62144	7	Sololá	701	Sololá	1	Sololá	12	Diciembre	2023-01-12T00:00:00	2024-11-08T10:00:00	8	Radiación solar	698
62145	7	Sololá	701	Sololá	1	Sololá	12	Diciembre	2023-01-12T00:00:00	2024-11-08T11:00:00	2	Temperatura media	22.6
62146	7	Sololá	701	Sololá	1	Sololá	12	Diciembre	2023-01-12T00:00:00	2024-11-08T11:00:00	4	Temperatura máxima	22.9
62147	7	Sololá	701	Sololá	1	Sololá	12	Diciembre	2023-01-12T00:00:00	2024-11-08T11:00:00	3	Temperatura mínima	21.8
62148	7	Sololá	701	Sololá	1	Sololá	12	Diciembre	2023-01-12T00:00:00	2024-11-08T11:00:00	5	Humedad	57
62149	7	Sololá	701	Sololá	1	Sololá	12	Diciembre	2023-01-12T00:00:00	2024-11-08T11:00:00	6	Velocidad del viento	0
62150	7	Sololá	701	Sololá	1	Sololá	12	Diciembre	2023-01-12T00:00:00	2024-11-08T11:00:00	7	Dirección del viento	0
62151	7	Sololá	701	Sololá	1	Sololá	12	Diciembre	2023-01-12T00:00:00	2024-11-08T11:00:00	1	Precipitación	0
62152	7	Sololá	701	Sololá	1	Sololá	12	Diciembre	2023-01-12T00:00:00	2024-11-08T11:00:00	8	Radiación solar	811
62153	7	Sololá	701	Sololá	1	Sololá	12	Diciembre	2023-01-12T00:00:00	2024-11-08T12:00:00	2	Temperatura media	22.3
62154	7	Sololá	701	Sololá	1	Sololá	12	Diciembre	2023-01-12T00:00:00	2024-11-08T12:00:00	4	Temperatura máxima	23
62155	7	Sololá	701	Sololá	1	Sololá	12	Diciembre	2023-01-12T00:00:00	2024-11-08T12:00:00	3	Temperatura mínima	22.3
62156	7	Sololá	701	Sololá	1	Sololá	12	Diciembre	2023-01-12T00:00:00	2024-11-08T12:00:00	5	Humedad	65
62157	7	Sololá	701	Sololá	1	Sololá	12	Diciembre	2023-01-12T00:00:00	2024-11-08T12:00:00	6	Velocidad del viento	0
62158	7	Sololá	701	Sololá	1	Sololá	12	Diciembre	2023-01-12T00:00:00	2024-11-08T12:00:00	7	Dirección del viento	0
62159	7	Sololá	701	Sololá	1	Sololá	12	Diciembre	2023-01-12T00:00:00	2024-11-08T12:00:00	1	Precipitación	0
62160	7	Sololá	701	Sololá	1	Sololá	12	Diciembre	2023-01-12T00:00:00	2024-11-08T12:00:00	8	Radiación solar	846
62161	7	Sololá	701	Sololá	1	Sololá	12	Diciembre	2023-01-12T00:00:00	2024-11-08T13:00:00	2	Temperatura media	22.2
62162	7	Sololá	701	Sololá	1	Sololá	12	Diciembre	2023-01-12T00:00:00	2024-11-08T13:00:00	4	Temperatura máxima	22.4
62163	7	Sololá	701	Sololá	1	Sololá	12	Diciembre	2023-01-12T00:00:00	2024-11-08T13:00:00	3	Temperatura mínima	21.6
62164	7	Sololá	701	Sololá	1	Sololá	12	Diciembre	2023-01-12T00:00:00	2024-11-08T13:00:00	5	Humedad	70
62165	7	Sololá	701	Sololá	1	Sololá	12	Diciembre	2023-01-12T00:00:00	2024-11-08T13:00:00	6	Velocidad del viento	0
62166	7	Sololá	701	Sololá	1	Sololá	12	Diciembre	2023-01-12T00:00:00	2024-11-08T13:00:00	7	Dirección del viento	0
62167	7	Sololá	701	Sololá	1	Sololá	12	Diciembre	2023-01-12T00:00:00	2024-11-08T13:00:00	1	Precipitación	0
62168	7	Sololá	701	Sololá	1	Sololá	12	Diciembre	2023-01-12T00:00:00	2024-11-08T13:00:00	8	Radiación solar	541
62169	7	Sololá	701	Sololá	1	Sololá	12	Diciembre	2023-01-12T00:00:00	2024-11-08T14:00:00	2	Temperatura media	22.6
62170	7	Sololá	701	Sololá	1	Sololá	12	Diciembre	2023-01-12T00:00:00	2024-11-08T14:00:00	4	Temperatura máxima	22.8
62171	7	Sololá	701	Sololá	1	Sololá	12	Diciembre	2023-01-12T00:00:00	2024-11-08T14:00:00	3	Temperatura mínima	22.1
62172	7	Sololá	701	Sololá	1	Sololá	12	Diciembre	2023-01-12T00:00:00	2024-11-08T14:00:00	5	Humedad	73
62173	7	Sololá	701	Sololá	1	Sololá	12	Diciembre	2023-01-12T00:00:00	2024-11-08T14:00:00	6	Velocidad del viento	0
62174	7	Sololá	701	Sololá	1	Sololá	12	Diciembre	2023-01-12T00:00:00	2024-11-08T14:00:00	7	Dirección del viento	0
62175	7	Sololá	701	Sololá	1	Sololá	12	Diciembre	2023-01-12T00:00:00	2024-11-08T14:00:00	1	Precipitación	0
62176	7	Sololá	701	Sololá	1	Sololá	12	Diciembre	2023-01-12T00:00:00	2024-11-08T14:00:00	8	Radiación solar	163
62177	7	Sololá	701	Sololá	1	Sololá	12	Diciembre	2023-01-12T00:00:00	2024-11-08T15:00:00	2	Temperatura media	21.6
62178	7	Sololá	701	Sololá	1	Sololá	12	Diciembre	2023-01-12T00:00:00	2024-11-08T15:00:00	4	Temperatura máxima	22.8
62179	7	Sololá	701	Sololá	1	Sololá	12	Diciembre	2023-01-12T00:00:00	2024-11-08T15:00:00	3	Temperatura mínima	21.6
62180	7	Sololá	701	Sololá	1	Sololá	12	Diciembre	2023-01-12T00:00:00	2024-11-08T15:00:00	5	Humedad	78
62181	7	Sololá	701	Sololá	1	Sololá	12	Diciembre	2023-01-12T00:00:00	2024-11-08T15:00:00	6	Velocidad del viento	0
62182	7	Sololá	701	Sololá	1	Sololá	12	Diciembre	2023-01-12T00:00:00	2024-11-08T15:00:00	7	Dirección del viento	0
62183	7	Sololá	701	Sololá	1	Sololá	12	Diciembre	2023-01-12T00:00:00	2024-11-08T15:00:00	1	Precipitación	0
62184	7	Sololá	701	Sololá	1	Sololá	12	Diciembre	2023-01-12T00:00:00	2024-11-08T15:00:00	8	Radiación solar	410
62185	7	Sololá	701	Sololá	1	Sololá	12	Diciembre	2023-01-12T00:00:00	2024-11-08T16:00:00	2	Temperatura media	19.1
62186	7	Sololá	701	Sololá	1	Sololá	12	Diciembre	2023-01-12T00:00:00	2024-11-08T16:00:00	4	Temperatura máxima	21.7
62187	7	Sololá	701	Sololá	1	Sololá	12	Diciembre	2023-01-12T00:00:00	2024-11-08T16:00:00	3	Temperatura mínima	19.1
62188	7	Sololá	701	Sololá	1	Sololá	12	Diciembre	2023-01-12T00:00:00	2024-11-08T16:00:00	5	Humedad	84
62189	7	Sololá	701	Sololá	1	Sololá	12	Diciembre	2023-01-12T00:00:00	2024-11-08T16:00:00	6	Velocidad del viento	0
62190	7	Sololá	701	Sololá	1	Sololá	12	Diciembre	2023-01-12T00:00:00	2024-11-08T16:00:00	7	Dirección del viento	0
62191	7	Sololá	701	Sololá	1	Sololá	12	Diciembre	2023-01-12T00:00:00	2024-11-08T16:00:00	1	Precipitación	0
62192	7	Sololá	701	Sololá	1	Sololá	12	Diciembre	2023-01-12T00:00:00	2024-11-08T16:00:00	8	Radiación solar	131
62193	7	Sololá	701	Sololá	1	Sololá	12	Diciembre	2023-01-12T00:00:00	2024-11-08T17:00:00	2	Temperatura media	18
62194	7	Sololá	701	Sololá	1	Sololá	12	Diciembre	2023-01-12T00:00:00	2024-11-08T17:00:00	4	Temperatura máxima	19.1
62195	7	Sololá	701	Sololá	1	Sololá	12	Diciembre	2023-01-12T00:00:00	2024-11-08T17:00:00	3	Temperatura mínima	18
62196	7	Sololá	701	Sololá	1	Sololá	12	Diciembre	2023-01-12T00:00:00	2024-11-08T17:00:00	5	Humedad	88
62197	7	Sololá	701	Sololá	1	Sololá	12	Diciembre	2023-01-12T00:00:00	2024-11-08T17:00:00	6	Velocidad del viento	0
62198	7	Sololá	701	Sololá	1	Sololá	12	Diciembre	2023-01-12T00:00:00	2024-11-08T17:00:00	7	Dirección del viento	0
62199	7	Sololá	701	Sololá	1	Sololá	12	Diciembre	2023-01-12T00:00:00	2024-11-08T17:00:00	1	Precipitación	0
62200	7	Sololá	701	Sololá	1	Sololá	12	Diciembre	2023-01-12T00:00:00	2024-11-08T17:00:00	8	Radiación solar	55
62201	7	Sololá	701	Sololá	1	Sololá	12	Diciembre	2023-01-12T00:00:00	2024-11-08T18:00:00	2	Temperatura media	17.4
62202	7	Sololá	701	Sololá	1	Sololá	12	Diciembre	2023-01-12T00:00:00	2024-11-08T18:00:00	4	Temperatura máxima	18
62203	7	Sololá	701	Sololá	1	Sololá	12	Diciembre	2023-01-12T00:00:00	2024-11-08T18:00:00	3	Temperatura mínima	17.4
62204	7	Sololá	701	Sololá	1	Sololá	12	Diciembre	2023-01-12T00:00:00	2024-11-08T18:00:00	5	Humedad	91
62205	7	Sololá	701	Sololá	1	Sololá	12	Diciembre	2023-01-12T00:00:00	2024-11-08T18:00:00	6	Velocidad del viento	0
62206	7	Sololá	701	Sololá	1	Sololá	12	Diciembre	2023-01-12T00:00:00	2024-11-08T18:00:00	7	Dirección del viento	0
62207	7	Sololá	701	Sololá	1	Sololá	12	Diciembre	2023-01-12T00:00:00	2024-11-08T18:00:00	1	Precipitación	0
62208	7	Sololá	701	Sololá	1	Sololá	12	Diciembre	2023-01-12T00:00:00	2024-11-08T18:00:00	8	Radiación solar	2
62209	7	Sololá	701	Sololá	1	Sololá	12	Diciembre	2023-01-12T00:00:00	2024-11-08T19:00:00	2	Temperatura media	16.8
62210	7	Sololá	701	Sololá	1	Sololá	12	Diciembre	2023-01-12T00:00:00	2024-11-08T19:00:00	4	Temperatura máxima	17.4
62211	7	Sololá	701	Sololá	1	Sololá	12	Diciembre	2023-01-12T00:00:00	2024-11-08T19:00:00	3	Temperatura mínima	16.8
62212	7	Sololá	701	Sololá	1	Sololá	12	Diciembre	2023-01-12T00:00:00	2024-11-08T19:00:00	5	Humedad	91
62213	7	Sololá	701	Sololá	1	Sololá	12	Diciembre	2023-01-12T00:00:00	2024-11-08T19:00:00	6	Velocidad del viento	0
62214	7	Sololá	701	Sololá	1	Sololá	12	Diciembre	2023-01-12T00:00:00	2024-11-08T19:00:00	7	Dirección del viento	0
62215	7	Sololá	701	Sololá	1	Sololá	12	Diciembre	2023-01-12T00:00:00	2024-11-08T19:00:00	1	Precipitación	0
62216	7	Sololá	701	Sololá	1	Sololá	12	Diciembre	2023-01-12T00:00:00	2024-11-08T19:00:00	8	Radiación solar	0
62217	7	Sololá	701	Sololá	1	Sololá	12	Diciembre	2023-01-12T00:00:00	2024-11-08T20:00:00	2	Temperatura media	15.3
62218	7	Sololá	701	Sololá	1	Sololá	12	Diciembre	2023-01-12T00:00:00	2024-11-08T20:00:00	4	Temperatura máxima	16.8
62219	7	Sololá	701	Sololá	1	Sololá	12	Diciembre	2023-01-12T00:00:00	2024-11-08T20:00:00	3	Temperatura mínima	15.3
62220	7	Sololá	701	Sololá	1	Sololá	12	Diciembre	2023-01-12T00:00:00	2024-11-08T20:00:00	5	Humedad	91
62221	7	Sololá	701	Sololá	1	Sololá	12	Diciembre	2023-01-12T00:00:00	2024-11-08T20:00:00	6	Velocidad del viento	0
62222	7	Sololá	701	Sololá	1	Sololá	12	Diciembre	2023-01-12T00:00:00	2024-11-08T20:00:00	7	Dirección del viento	0
62223	7	Sololá	701	Sololá	1	Sololá	12	Diciembre	2023-01-12T00:00:00	2024-11-08T20:00:00	1	Precipitación	0
62224	7	Sololá	701	Sololá	1	Sololá	12	Diciembre	2023-01-12T00:00:00	2024-11-08T20:00:00	8	Radiación solar	0
62225	7	Sololá	701	Sololá	1	Sololá	12	Diciembre	2023-01-12T00:00:00	2024-11-08T21:00:00	2	Temperatura media	14.3
62226	7	Sololá	701	Sololá	1	Sololá	12	Diciembre	2023-01-12T00:00:00	2024-11-08T21:00:00	4	Temperatura máxima	15.4
62227	7	Sololá	701	Sololá	1	Sololá	12	Diciembre	2023-01-12T00:00:00	2024-11-08T21:00:00	3	Temperatura mínima	14.3
62228	7	Sololá	701	Sololá	1	Sololá	12	Diciembre	2023-01-12T00:00:00	2024-11-08T21:00:00	5	Humedad	91
62229	7	Sololá	701	Sololá	1	Sololá	12	Diciembre	2023-01-12T00:00:00	2024-11-08T21:00:00	6	Velocidad del viento	0
62230	7	Sololá	701	Sololá	1	Sololá	12	Diciembre	2023-01-12T00:00:00	2024-11-08T21:00:00	7	Dirección del viento	0
62231	7	Sololá	701	Sololá	1	Sololá	12	Diciembre	2023-01-12T00:00:00	2024-11-08T21:00:00	1	Precipitación	0
62232	7	Sololá	701	Sololá	1	Sololá	12	Diciembre	2023-01-12T00:00:00	2024-11-08T21:00:00	8	Radiación solar	0
62233	7	Sololá	701	Sololá	1	Sololá	12	Diciembre	2023-01-12T00:00:00	2024-11-08T22:00:00	2	Temperatura media	14.1
62234	7	Sololá	701	Sololá	1	Sololá	12	Diciembre	2023-01-12T00:00:00	2024-11-08T22:00:00	4	Temperatura máxima	14.4
62235	7	Sololá	701	Sololá	1	Sololá	12	Diciembre	2023-01-12T00:00:00	2024-11-08T22:00:00	3	Temperatura mínima	13.9
62236	7	Sololá	701	Sololá	1	Sololá	12	Diciembre	2023-01-12T00:00:00	2024-11-08T22:00:00	5	Humedad	90
62237	7	Sololá	701	Sololá	1	Sololá	12	Diciembre	2023-01-12T00:00:00	2024-11-08T22:00:00	6	Velocidad del viento	0
62238	7	Sololá	701	Sololá	1	Sololá	12	Diciembre	2023-01-12T00:00:00	2024-11-08T22:00:00	7	Dirección del viento	0
62239	7	Sololá	701	Sololá	1	Sololá	12	Diciembre	2023-01-12T00:00:00	2024-11-08T22:00:00	1	Precipitación	0
62240	7	Sololá	701	Sololá	1	Sololá	12	Diciembre	2023-01-12T00:00:00	2024-11-08T22:00:00	8	Radiación solar	0
62241	7	Sololá	701	Sololá	1	Sololá	12	Diciembre	2023-01-12T00:00:00	2024-11-08T23:00:00	2	Temperatura media	13.6
62242	7	Sololá	701	Sololá	1	Sololá	12	Diciembre	2023-01-12T00:00:00	2024-11-08T23:00:00	4	Temperatura máxima	14.1
62243	7	Sololá	701	Sololá	1	Sololá	12	Diciembre	2023-01-12T00:00:00	2024-11-08T23:00:00	3	Temperatura mínima	13.6
62244	7	Sololá	701	Sololá	1	Sololá	12	Diciembre	2023-01-12T00:00:00	2024-11-08T23:00:00	5	Humedad	89
62245	7	Sololá	701	Sololá	1	Sololá	12	Diciembre	2023-01-12T00:00:00	2024-11-08T23:00:00	6	Velocidad del viento	0
62246	7	Sololá	701	Sololá	1	Sololá	12	Diciembre	2023-01-12T00:00:00	2024-11-08T23:00:00	7	Dirección del viento	0
62247	7	Sololá	701	Sololá	1	Sololá	12	Diciembre	2023-01-12T00:00:00	2024-11-08T23:00:00	1	Precipitación	0
62248	7	Sololá	701	Sololá	1	Sololá	12	Diciembre	2023-01-12T00:00:00	2024-11-08T23:00:00	8	Radiación solar	0
62249	7	Sololá	701	Sololá	1	Sololá	12	Diciembre	2023-02-12T00:00:00	2024-11-08T00:00:00	2	Temperatura media	12.9
62250	7	Sololá	701	Sololá	1	Sololá	12	Diciembre	2023-02-12T00:00:00	2024-11-08T00:00:00	4	Temperatura máxima	13.6
62251	7	Sololá	701	Sololá	1	Sololá	12	Diciembre	2023-02-12T00:00:00	2024-11-08T00:00:00	3	Temperatura mínima	12.9
62252	7	Sololá	701	Sololá	1	Sololá	12	Diciembre	2023-02-12T00:00:00	2024-11-08T00:00:00	5	Humedad	86
62253	7	Sololá	701	Sololá	1	Sololá	12	Diciembre	2023-02-12T00:00:00	2024-11-08T00:00:00	6	Velocidad del viento	0
62254	7	Sololá	701	Sololá	1	Sololá	12	Diciembre	2023-02-12T00:00:00	2024-11-08T00:00:00	7	Dirección del viento	0
62255	7	Sololá	701	Sololá	1	Sololá	12	Diciembre	2023-02-12T00:00:00	2024-11-08T00:00:00	1	Precipitación	0
62256	7	Sololá	701	Sololá	1	Sololá	12	Diciembre	2023-02-12T00:00:00	2024-11-08T00:00:00	8	Radiación solar	0
62257	7	Sololá	701	Sololá	1	Sololá	12	Diciembre	2023-02-12T00:00:00	2024-11-08T01:00:00	2	Temperatura media	12.6
62258	7	Sololá	701	Sololá	1	Sololá	12	Diciembre	2023-02-12T00:00:00	2024-11-08T01:00:00	4	Temperatura máxima	12.9
62259	7	Sololá	701	Sololá	1	Sololá	12	Diciembre	2023-02-12T00:00:00	2024-11-08T01:00:00	3	Temperatura mínima	12.6
62260	7	Sololá	701	Sololá	1	Sololá	12	Diciembre	2023-02-12T00:00:00	2024-11-08T01:00:00	5	Humedad	84
62261	7	Sololá	701	Sololá	1	Sololá	12	Diciembre	2023-02-12T00:00:00	2024-11-08T01:00:00	6	Velocidad del viento	0
62262	7	Sololá	701	Sololá	1	Sololá	12	Diciembre	2023-02-12T00:00:00	2024-11-08T01:00:00	7	Dirección del viento	0
62263	7	Sololá	701	Sololá	1	Sololá	12	Diciembre	2023-02-12T00:00:00	2024-11-08T01:00:00	1	Precipitación	0
62264	7	Sololá	701	Sololá	1	Sololá	12	Diciembre	2023-02-12T00:00:00	2024-11-08T01:00:00	8	Radiación solar	0
62265	7	Sololá	701	Sololá	1	Sololá	12	Diciembre	2023-02-12T00:00:00	2024-11-08T02:00:00	2	Temperatura media	12.1
62266	7	Sololá	701	Sololá	1	Sololá	12	Diciembre	2023-02-12T00:00:00	2024-11-08T02:00:00	4	Temperatura máxima	12.6
62267	7	Sololá	701	Sololá	1	Sololá	12	Diciembre	2023-02-12T00:00:00	2024-11-08T02:00:00	3	Temperatura mínima	12.1
62268	7	Sololá	701	Sololá	1	Sololá	12	Diciembre	2023-02-12T00:00:00	2024-11-08T02:00:00	5	Humedad	78
62269	7	Sololá	701	Sololá	1	Sololá	12	Diciembre	2023-02-12T00:00:00	2024-11-08T02:00:00	6	Velocidad del viento	0
62270	7	Sololá	701	Sololá	1	Sololá	12	Diciembre	2023-02-12T00:00:00	2024-11-08T02:00:00	7	Dirección del viento	0
62271	7	Sololá	701	Sololá	1	Sololá	12	Diciembre	2023-02-12T00:00:00	2024-11-08T02:00:00	1	Precipitación	0
62272	7	Sololá	701	Sololá	1	Sololá	12	Diciembre	2023-02-12T00:00:00	2024-11-08T02:00:00	8	Radiación solar	0
62273	7	Sololá	701	Sololá	1	Sololá	12	Diciembre	2023-02-12T00:00:00	2024-11-08T03:00:00	2	Temperatura media	11.4
62274	7	Sololá	701	Sololá	1	Sololá	12	Diciembre	2023-02-12T00:00:00	2024-11-08T03:00:00	4	Temperatura máxima	12.1
62275	7	Sololá	701	Sololá	1	Sololá	12	Diciembre	2023-02-12T00:00:00	2024-11-08T03:00:00	3	Temperatura mínima	11.3
62276	7	Sololá	701	Sololá	1	Sololá	12	Diciembre	2023-02-12T00:00:00	2024-11-08T03:00:00	5	Humedad	74
62277	7	Sololá	701	Sololá	1	Sololá	12	Diciembre	2023-02-12T00:00:00	2024-11-08T03:00:00	6	Velocidad del viento	0
62278	7	Sololá	701	Sololá	1	Sololá	12	Diciembre	2023-02-12T00:00:00	2024-11-08T03:00:00	7	Dirección del viento	0
62279	7	Sololá	701	Sololá	1	Sololá	12	Diciembre	2023-02-12T00:00:00	2024-11-08T03:00:00	1	Precipitación	0
62280	7	Sololá	701	Sololá	1	Sololá	12	Diciembre	2023-02-12T00:00:00	2024-11-08T03:00:00	8	Radiación solar	0
62281	7	Sololá	701	Sololá	1	Sololá	12	Diciembre	2023-02-12T00:00:00	2024-11-08T04:00:00	2	Temperatura media	11.4
62282	7	Sololá	701	Sololá	1	Sololá	12	Diciembre	2023-02-12T00:00:00	2024-11-08T04:00:00	4	Temperatura máxima	11.5
62283	7	Sololá	701	Sololá	1	Sololá	12	Diciembre	2023-02-12T00:00:00	2024-11-08T04:00:00	3	Temperatura mínima	11.3
62284	7	Sololá	701	Sololá	1	Sololá	12	Diciembre	2023-02-12T00:00:00	2024-11-08T04:00:00	5	Humedad	70
62285	7	Sololá	701	Sololá	1	Sololá	12	Diciembre	2023-02-12T00:00:00	2024-11-08T04:00:00	6	Velocidad del viento	0
62286	7	Sololá	701	Sololá	1	Sololá	12	Diciembre	2023-02-12T00:00:00	2024-11-08T04:00:00	7	Dirección del viento	0
62287	7	Sololá	701	Sololá	1	Sololá	12	Diciembre	2023-02-12T00:00:00	2024-11-08T04:00:00	1	Precipitación	0
62288	7	Sololá	701	Sololá	1	Sololá	12	Diciembre	2023-02-12T00:00:00	2024-11-08T04:00:00	8	Radiación solar	0
62289	7	Sololá	701	Sololá	1	Sololá	12	Diciembre	2023-02-12T00:00:00	2024-11-08T05:00:00	2	Temperatura media	11.6
62290	7	Sololá	701	Sololá	1	Sololá	12	Diciembre	2023-02-12T00:00:00	2024-11-08T05:00:00	4	Temperatura máxima	11.6
62291	7	Sololá	701	Sololá	1	Sololá	12	Diciembre	2023-02-12T00:00:00	2024-11-08T05:00:00	3	Temperatura mínima	11.4
62292	7	Sololá	701	Sololá	1	Sololá	12	Diciembre	2023-02-12T00:00:00	2024-11-08T05:00:00	5	Humedad	66
62293	7	Sololá	701	Sololá	1	Sololá	12	Diciembre	2023-02-12T00:00:00	2024-11-08T05:00:00	6	Velocidad del viento	0
62294	7	Sololá	701	Sololá	1	Sololá	12	Diciembre	2023-02-12T00:00:00	2024-11-08T05:00:00	7	Dirección del viento	0
62295	7	Sololá	701	Sololá	1	Sololá	12	Diciembre	2023-02-12T00:00:00	2024-11-08T05:00:00	1	Precipitación	0
62296	7	Sololá	701	Sololá	1	Sololá	12	Diciembre	2023-02-12T00:00:00	2024-11-08T05:00:00	8	Radiación solar	0
62297	7	Sololá	701	Sololá	1	Sololá	12	Diciembre	2023-02-12T00:00:00	2024-11-08T06:00:00	2	Temperatura media	10.3
62298	7	Sololá	701	Sololá	1	Sololá	12	Diciembre	2023-02-12T00:00:00	2024-11-08T06:00:00	4	Temperatura máxima	11.6
62299	7	Sololá	701	Sololá	1	Sololá	12	Diciembre	2023-02-12T00:00:00	2024-11-08T06:00:00	3	Temperatura mínima	10.3
62300	7	Sololá	701	Sololá	1	Sololá	12	Diciembre	2023-02-12T00:00:00	2024-11-08T06:00:00	5	Humedad	69
62301	7	Sololá	701	Sololá	1	Sololá	12	Diciembre	2023-02-12T00:00:00	2024-11-08T06:00:00	6	Velocidad del viento	0
62302	7	Sololá	701	Sololá	1	Sololá	12	Diciembre	2023-02-12T00:00:00	2024-11-08T06:00:00	7	Dirección del viento	0
62303	7	Sololá	701	Sololá	1	Sololá	12	Diciembre	2023-02-12T00:00:00	2024-11-08T06:00:00	1	Precipitación	0
62304	7	Sololá	701	Sololá	1	Sololá	12	Diciembre	2023-02-12T00:00:00	2024-11-08T06:00:00	8	Radiación solar	0
62305	7	Sololá	701	Sololá	1	Sololá	12	Diciembre	2023-02-12T00:00:00	2024-11-08T07:00:00	2	Temperatura media	12.1
62306	7	Sololá	701	Sololá	1	Sololá	12	Diciembre	2023-02-12T00:00:00	2024-11-08T07:00:00	4	Temperatura máxima	12.1
62307	7	Sololá	701	Sololá	1	Sololá	12	Diciembre	2023-02-12T00:00:00	2024-11-08T07:00:00	3	Temperatura mínima	10.2
62308	7	Sololá	701	Sololá	1	Sololá	12	Diciembre	2023-02-12T00:00:00	2024-11-08T07:00:00	5	Humedad	60
62309	7	Sololá	701	Sololá	1	Sololá	12	Diciembre	2023-02-12T00:00:00	2024-11-08T07:00:00	6	Velocidad del viento	0
62310	7	Sololá	701	Sololá	1	Sololá	12	Diciembre	2023-02-12T00:00:00	2024-11-08T07:00:00	7	Dirección del viento	0
62311	7	Sololá	701	Sololá	1	Sololá	12	Diciembre	2023-02-12T00:00:00	2024-11-08T07:00:00	1	Precipitación	0
62312	7	Sololá	701	Sololá	1	Sololá	12	Diciembre	2023-02-12T00:00:00	2024-11-08T07:00:00	8	Radiación solar	8
62313	7	Sololá	701	Sololá	1	Sololá	12	Diciembre	2023-02-12T00:00:00	2024-11-08T08:00:00	2	Temperatura media	15.1
62314	7	Sololá	701	Sololá	1	Sololá	12	Diciembre	2023-02-12T00:00:00	2024-11-08T08:00:00	4	Temperatura máxima	15.1
62315	7	Sololá	701	Sololá	1	Sololá	12	Diciembre	2023-02-12T00:00:00	2024-11-08T08:00:00	3	Temperatura mínima	12.1
62316	7	Sololá	701	Sololá	1	Sololá	12	Diciembre	2023-02-12T00:00:00	2024-11-08T08:00:00	5	Humedad	63
62317	7	Sololá	701	Sololá	1	Sololá	12	Diciembre	2023-02-12T00:00:00	2024-11-08T08:00:00	6	Velocidad del viento	0
62318	7	Sololá	701	Sololá	1	Sololá	12	Diciembre	2023-02-12T00:00:00	2024-11-08T08:00:00	7	Dirección del viento	0
62319	7	Sololá	701	Sololá	1	Sololá	12	Diciembre	2023-02-12T00:00:00	2024-11-08T08:00:00	1	Precipitación	0
62320	7	Sololá	701	Sololá	1	Sololá	12	Diciembre	2023-02-12T00:00:00	2024-11-08T08:00:00	8	Radiación solar	97
62321	7	Sololá	701	Sololá	1	Sololá	12	Diciembre	2023-02-12T00:00:00	2024-11-08T09:00:00	2	Temperatura media	21.3
62322	7	Sololá	701	Sololá	1	Sololá	12	Diciembre	2023-02-12T00:00:00	2024-11-08T09:00:00	4	Temperatura máxima	21.3
62323	7	Sololá	701	Sololá	1	Sololá	12	Diciembre	2023-02-12T00:00:00	2024-11-08T09:00:00	3	Temperatura mínima	15.1
62324	7	Sololá	701	Sololá	1	Sololá	12	Diciembre	2023-02-12T00:00:00	2024-11-08T09:00:00	5	Humedad	48
62325	7	Sololá	701	Sololá	1	Sololá	12	Diciembre	2023-02-12T00:00:00	2024-11-08T09:00:00	6	Velocidad del viento	0
62326	7	Sololá	701	Sololá	1	Sololá	12	Diciembre	2023-02-12T00:00:00	2024-11-08T09:00:00	7	Dirección del viento	0
62327	7	Sololá	701	Sololá	1	Sololá	12	Diciembre	2023-02-12T00:00:00	2024-11-08T09:00:00	1	Precipitación	0
62328	7	Sololá	701	Sololá	1	Sololá	12	Diciembre	2023-02-12T00:00:00	2024-11-08T09:00:00	8	Radiación solar	544
62329	7	Sololá	701	Sololá	1	Sololá	12	Diciembre	2023-02-12T00:00:00	2024-11-08T10:00:00	2	Temperatura media	21.7
62330	7	Sololá	701	Sololá	1	Sololá	12	Diciembre	2023-02-12T00:00:00	2024-11-08T10:00:00	4	Temperatura máxima	21.9
62331	7	Sololá	701	Sololá	1	Sololá	12	Diciembre	2023-02-12T00:00:00	2024-11-08T10:00:00	3	Temperatura mínima	21.3
62332	7	Sololá	701	Sololá	1	Sololá	12	Diciembre	2023-02-12T00:00:00	2024-11-08T10:00:00	5	Humedad	56
62333	7	Sololá	701	Sololá	1	Sololá	12	Diciembre	2023-02-12T00:00:00	2024-11-08T10:00:00	6	Velocidad del viento	0
62334	7	Sololá	701	Sololá	1	Sololá	12	Diciembre	2023-02-12T00:00:00	2024-11-08T10:00:00	7	Dirección del viento	0
62335	7	Sololá	701	Sololá	1	Sololá	12	Diciembre	2023-02-12T00:00:00	2024-11-08T10:00:00	1	Precipitación	0
62336	7	Sololá	701	Sololá	1	Sololá	12	Diciembre	2023-02-12T00:00:00	2024-11-08T10:00:00	8	Radiación solar	720
62337	7	Sololá	701	Sololá	1	Sololá	12	Diciembre	2023-02-12T00:00:00	2024-11-08T11:00:00	2	Temperatura media	23.3
62338	7	Sololá	701	Sololá	1	Sololá	12	Diciembre	2023-02-12T00:00:00	2024-11-08T11:00:00	4	Temperatura máxima	23.3
62339	7	Sololá	701	Sololá	1	Sololá	12	Diciembre	2023-02-12T00:00:00	2024-11-08T11:00:00	3	Temperatura mínima	21.7
62340	7	Sololá	701	Sololá	1	Sololá	12	Diciembre	2023-02-12T00:00:00	2024-11-08T11:00:00	5	Humedad	56
62341	7	Sololá	701	Sololá	1	Sololá	12	Diciembre	2023-02-12T00:00:00	2024-11-08T11:00:00	6	Velocidad del viento	0
62342	7	Sololá	701	Sololá	1	Sololá	12	Diciembre	2023-02-12T00:00:00	2024-11-08T11:00:00	7	Dirección del viento	0
62343	7	Sololá	701	Sololá	1	Sololá	12	Diciembre	2023-02-12T00:00:00	2024-11-08T11:00:00	1	Precipitación	0
62344	7	Sololá	701	Sololá	1	Sololá	12	Diciembre	2023-02-12T00:00:00	2024-11-08T11:00:00	8	Radiación solar	826
62345	7	Sololá	701	Sololá	1	Sololá	12	Diciembre	2023-02-12T00:00:00	2024-11-08T12:00:00	2	Temperatura media	23.6
62346	7	Sololá	701	Sololá	1	Sololá	12	Diciembre	2023-02-12T00:00:00	2024-11-08T12:00:00	4	Temperatura máxima	23.7
62347	7	Sololá	701	Sololá	1	Sololá	12	Diciembre	2023-02-12T00:00:00	2024-11-08T12:00:00	3	Temperatura mínima	23.2
62348	7	Sololá	701	Sololá	1	Sololá	12	Diciembre	2023-02-12T00:00:00	2024-11-08T12:00:00	5	Humedad	55
62349	7	Sololá	701	Sololá	1	Sololá	12	Diciembre	2023-02-12T00:00:00	2024-11-08T12:00:00	6	Velocidad del viento	0
62350	7	Sololá	701	Sololá	1	Sololá	12	Diciembre	2023-02-12T00:00:00	2024-11-08T12:00:00	7	Dirección del viento	0
62351	7	Sololá	701	Sololá	1	Sololá	12	Diciembre	2023-02-12T00:00:00	2024-11-08T12:00:00	1	Precipitación	0
62352	7	Sololá	701	Sololá	1	Sololá	12	Diciembre	2023-02-12T00:00:00	2024-11-08T12:00:00	8	Radiación solar	865
62353	7	Sololá	701	Sololá	1	Sololá	12	Diciembre	2023-02-12T00:00:00	2024-11-08T13:00:00	2	Temperatura media	24
62354	7	Sololá	701	Sololá	1	Sololá	12	Diciembre	2023-02-12T00:00:00	2024-11-08T13:00:00	4	Temperatura máxima	24.1
62355	7	Sololá	701	Sololá	1	Sololá	12	Diciembre	2023-02-12T00:00:00	2024-11-08T13:00:00	3	Temperatura mínima	23.6
62356	7	Sololá	701	Sololá	1	Sololá	12	Diciembre	2023-02-12T00:00:00	2024-11-08T13:00:00	5	Humedad	59
62357	7	Sololá	701	Sololá	1	Sololá	12	Diciembre	2023-02-12T00:00:00	2024-11-08T13:00:00	6	Velocidad del viento	0
62358	7	Sololá	701	Sololá	1	Sololá	12	Diciembre	2023-02-12T00:00:00	2024-11-08T13:00:00	7	Dirección del viento	0
62359	7	Sololá	701	Sololá	1	Sololá	12	Diciembre	2023-02-12T00:00:00	2024-11-08T13:00:00	1	Precipitación	0
62360	7	Sololá	701	Sololá	1	Sololá	12	Diciembre	2023-02-12T00:00:00	2024-11-08T13:00:00	8	Radiación solar	740
62361	7	Sololá	701	Sololá	1	Sololá	12	Diciembre	2023-02-12T00:00:00	2024-11-08T14:00:00	2	Temperatura media	23.5
62362	7	Sololá	701	Sololá	1	Sololá	12	Diciembre	2023-02-12T00:00:00	2024-11-08T14:00:00	4	Temperatura máxima	23.9
62363	7	Sololá	701	Sololá	1	Sololá	12	Diciembre	2023-02-12T00:00:00	2024-11-08T14:00:00	3	Temperatura mínima	23.3
62364	7	Sololá	701	Sololá	1	Sololá	12	Diciembre	2023-02-12T00:00:00	2024-11-08T14:00:00	5	Humedad	61
62365	7	Sololá	701	Sololá	1	Sololá	12	Diciembre	2023-02-12T00:00:00	2024-11-08T14:00:00	6	Velocidad del viento	0
62366	7	Sololá	701	Sololá	1	Sololá	12	Diciembre	2023-02-12T00:00:00	2024-11-08T14:00:00	7	Dirección del viento	0
62367	7	Sololá	701	Sololá	1	Sololá	12	Diciembre	2023-02-12T00:00:00	2024-11-08T14:00:00	1	Precipitación	0
62368	7	Sololá	701	Sololá	1	Sololá	12	Diciembre	2023-02-12T00:00:00	2024-11-08T14:00:00	8	Radiación solar	472
62369	7	Sololá	701	Sololá	1	Sololá	12	Diciembre	2023-02-12T00:00:00	2024-11-08T15:00:00	2	Temperatura media	22.2
62370	7	Sololá	701	Sololá	1	Sololá	12	Diciembre	2023-02-12T00:00:00	2024-11-08T15:00:00	4	Temperatura máxima	23.5
62371	7	Sololá	701	Sololá	1	Sololá	12	Diciembre	2023-02-12T00:00:00	2024-11-08T15:00:00	3	Temperatura mínima	22.2
62372	7	Sololá	701	Sololá	1	Sololá	12	Diciembre	2023-02-12T00:00:00	2024-11-08T15:00:00	5	Humedad	74
62373	7	Sololá	701	Sololá	1	Sololá	12	Diciembre	2023-02-12T00:00:00	2024-11-08T15:00:00	6	Velocidad del viento	0
62374	7	Sololá	701	Sololá	1	Sololá	12	Diciembre	2023-02-12T00:00:00	2024-11-08T15:00:00	7	Dirección del viento	0
62375	7	Sololá	701	Sololá	1	Sololá	12	Diciembre	2023-02-12T00:00:00	2024-11-08T15:00:00	1	Precipitación	0
62376	7	Sololá	701	Sololá	1	Sololá	12	Diciembre	2023-02-12T00:00:00	2024-11-08T15:00:00	8	Radiación solar	249
62377	7	Sololá	701	Sololá	1	Sololá	12	Diciembre	2023-02-12T00:00:00	2024-11-08T16:00:00	2	Temperatura media	21.8
62378	7	Sololá	701	Sololá	1	Sololá	12	Diciembre	2023-02-12T00:00:00	2024-11-08T16:00:00	4	Temperatura máxima	22.2
62379	7	Sololá	701	Sololá	1	Sololá	12	Diciembre	2023-02-12T00:00:00	2024-11-08T16:00:00	3	Temperatura mínima	21.7
62380	7	Sololá	701	Sololá	1	Sololá	12	Diciembre	2023-02-12T00:00:00	2024-11-08T16:00:00	5	Humedad	77
62381	7	Sololá	701	Sololá	1	Sololá	12	Diciembre	2023-02-12T00:00:00	2024-11-08T16:00:00	6	Velocidad del viento	0
62382	7	Sololá	701	Sololá	1	Sololá	12	Diciembre	2023-02-12T00:00:00	2024-11-08T16:00:00	7	Dirección del viento	0
62383	7	Sololá	701	Sololá	1	Sololá	12	Diciembre	2023-02-12T00:00:00	2024-11-08T16:00:00	1	Precipitación	0
62384	7	Sololá	701	Sololá	1	Sololá	12	Diciembre	2023-02-12T00:00:00	2024-11-08T16:00:00	8	Radiación solar	140
62385	7	Sololá	701	Sololá	1	Sololá	12	Diciembre	2023-02-12T00:00:00	2024-11-08T17:00:00	2	Temperatura media	20.2
62386	7	Sololá	701	Sololá	1	Sololá	12	Diciembre	2023-02-12T00:00:00	2024-11-08T17:00:00	4	Temperatura máxima	21.8
62387	7	Sololá	701	Sololá	1	Sololá	12	Diciembre	2023-02-12T00:00:00	2024-11-08T17:00:00	3	Temperatura mínima	20.2
62388	7	Sololá	701	Sololá	1	Sololá	12	Diciembre	2023-02-12T00:00:00	2024-11-08T17:00:00	5	Humedad	81
62389	7	Sololá	701	Sololá	1	Sololá	12	Diciembre	2023-02-12T00:00:00	2024-11-08T17:00:00	6	Velocidad del viento	0
62390	7	Sololá	701	Sololá	1	Sololá	12	Diciembre	2023-02-12T00:00:00	2024-11-08T17:00:00	7	Dirección del viento	0
62391	7	Sololá	701	Sololá	1	Sololá	12	Diciembre	2023-02-12T00:00:00	2024-11-08T17:00:00	1	Precipitación	0
62392	7	Sololá	701	Sololá	1	Sololá	12	Diciembre	2023-02-12T00:00:00	2024-11-08T17:00:00	8	Radiación solar	100
62393	7	Sololá	701	Sololá	1	Sololá	12	Diciembre	2023-02-12T00:00:00	2024-11-08T18:00:00	2	Temperatura media	18.2
62394	7	Sololá	701	Sololá	1	Sololá	12	Diciembre	2023-02-12T00:00:00	2024-11-08T18:00:00	4	Temperatura máxima	20.2
62395	7	Sololá	701	Sololá	1	Sololá	12	Diciembre	2023-02-12T00:00:00	2024-11-08T18:00:00	3	Temperatura mínima	18.1
62396	7	Sololá	701	Sololá	1	Sololá	12	Diciembre	2023-02-12T00:00:00	2024-11-08T18:00:00	5	Humedad	88
62397	7	Sololá	701	Sololá	1	Sololá	12	Diciembre	2023-02-12T00:00:00	2024-11-08T18:00:00	6	Velocidad del viento	0
62398	7	Sololá	701	Sololá	1	Sololá	12	Diciembre	2023-02-12T00:00:00	2024-11-08T18:00:00	7	Dirección del viento	0
62399	7	Sololá	701	Sololá	1	Sololá	12	Diciembre	2023-02-12T00:00:00	2024-11-08T18:00:00	1	Precipitación	0
62400	7	Sololá	701	Sololá	1	Sololá	12	Diciembre	2023-02-12T00:00:00	2024-11-08T18:00:00	8	Radiación solar	3
62401	7	Sololá	701	Sololá	1	Sololá	12	Diciembre	2023-02-12T00:00:00	2024-11-08T19:00:00	2	Temperatura media	15.2
62402	7	Sololá	701	Sololá	1	Sololá	12	Diciembre	2023-02-12T00:00:00	2024-11-08T19:00:00	4	Temperatura máxima	18.2
62403	7	Sololá	701	Sololá	1	Sololá	12	Diciembre	2023-02-12T00:00:00	2024-11-08T19:00:00	3	Temperatura mínima	15.2
62404	7	Sololá	701	Sololá	1	Sololá	12	Diciembre	2023-02-12T00:00:00	2024-11-08T19:00:00	5	Humedad	79
62405	7	Sololá	701	Sololá	1	Sololá	12	Diciembre	2023-02-12T00:00:00	2024-11-08T19:00:00	6	Velocidad del viento	0
62406	7	Sololá	701	Sololá	1	Sololá	12	Diciembre	2023-02-12T00:00:00	2024-11-08T19:00:00	7	Dirección del viento	0
62407	7	Sololá	701	Sololá	1	Sololá	12	Diciembre	2023-02-12T00:00:00	2024-11-08T19:00:00	1	Precipitación	0
62408	7	Sololá	701	Sololá	1	Sololá	12	Diciembre	2023-02-12T00:00:00	2024-11-08T19:00:00	8	Radiación solar	0
62409	7	Sololá	701	Sololá	1	Sololá	12	Diciembre	2023-02-12T00:00:00	2024-11-08T20:00:00	2	Temperatura media	13.8
62410	7	Sololá	701	Sololá	1	Sololá	12	Diciembre	2023-02-12T00:00:00	2024-11-08T20:00:00	4	Temperatura máxima	15.2
62411	7	Sololá	701	Sololá	1	Sololá	12	Diciembre	2023-02-12T00:00:00	2024-11-08T20:00:00	3	Temperatura mínima	13.8
62412	7	Sololá	701	Sololá	1	Sololá	12	Diciembre	2023-02-12T00:00:00	2024-11-08T20:00:00	5	Humedad	75
62413	7	Sololá	701	Sololá	1	Sololá	12	Diciembre	2023-02-12T00:00:00	2024-11-08T20:00:00	6	Velocidad del viento	0
62414	7	Sololá	701	Sololá	1	Sololá	12	Diciembre	2023-02-12T00:00:00	2024-11-08T20:00:00	7	Dirección del viento	0
62415	7	Sololá	701	Sololá	1	Sololá	12	Diciembre	2023-02-12T00:00:00	2024-11-08T20:00:00	1	Precipitación	0
62416	7	Sololá	701	Sololá	1	Sololá	12	Diciembre	2023-02-12T00:00:00	2024-11-08T20:00:00	8	Radiación solar	0
62417	7	Sololá	701	Sololá	1	Sololá	12	Diciembre	2023-02-12T00:00:00	2024-11-08T21:00:00	2	Temperatura media	13.9
62418	7	Sololá	701	Sololá	1	Sololá	12	Diciembre	2023-02-12T00:00:00	2024-11-08T21:00:00	4	Temperatura máxima	14
62419	7	Sololá	701	Sololá	1	Sololá	12	Diciembre	2023-02-12T00:00:00	2024-11-08T21:00:00	3	Temperatura mínima	13.8
62420	7	Sololá	701	Sololá	1	Sololá	12	Diciembre	2023-02-12T00:00:00	2024-11-08T21:00:00	5	Humedad	81
62421	7	Sololá	701	Sololá	1	Sololá	12	Diciembre	2023-02-12T00:00:00	2024-11-08T21:00:00	6	Velocidad del viento	0
62422	7	Sololá	701	Sololá	1	Sololá	12	Diciembre	2023-02-12T00:00:00	2024-11-08T21:00:00	7	Dirección del viento	0
62423	7	Sololá	701	Sololá	1	Sololá	12	Diciembre	2023-02-12T00:00:00	2024-11-08T21:00:00	1	Precipitación	0
62424	7	Sololá	701	Sololá	1	Sololá	12	Diciembre	2023-02-12T00:00:00	2024-11-08T21:00:00	8	Radiación solar	0
62425	7	Sololá	701	Sololá	1	Sololá	12	Diciembre	2023-02-12T00:00:00	2024-11-08T22:00:00	2	Temperatura media	13.7
62426	7	Sololá	701	Sololá	1	Sololá	12	Diciembre	2023-02-12T00:00:00	2024-11-08T22:00:00	4	Temperatura máxima	14
62427	7	Sololá	701	Sololá	1	Sololá	12	Diciembre	2023-02-12T00:00:00	2024-11-08T22:00:00	3	Temperatura mínima	13.7
62428	7	Sololá	701	Sololá	1	Sololá	12	Diciembre	2023-02-12T00:00:00	2024-11-08T22:00:00	5	Humedad	83
62429	7	Sololá	701	Sololá	1	Sololá	12	Diciembre	2023-02-12T00:00:00	2024-11-08T22:00:00	6	Velocidad del viento	0
62430	7	Sololá	701	Sololá	1	Sololá	12	Diciembre	2023-02-12T00:00:00	2024-11-08T22:00:00	7	Dirección del viento	0
62431	7	Sololá	701	Sololá	1	Sololá	12	Diciembre	2023-02-12T00:00:00	2024-11-08T22:00:00	1	Precipitación	0
62432	7	Sololá	701	Sololá	1	Sololá	12	Diciembre	2023-02-12T00:00:00	2024-11-08T22:00:00	8	Radiación solar	0
62433	7	Sololá	701	Sololá	1	Sololá	12	Diciembre	2023-02-12T00:00:00	2024-11-08T23:00:00	2	Temperatura media	12.9
62434	7	Sololá	701	Sololá	1	Sololá	12	Diciembre	2023-02-12T00:00:00	2024-11-08T23:00:00	4	Temperatura máxima	13.7
62435	7	Sololá	701	Sololá	1	Sololá	12	Diciembre	2023-02-12T00:00:00	2024-11-08T23:00:00	3	Temperatura mínima	12.8
62436	7	Sololá	701	Sololá	1	Sololá	12	Diciembre	2023-02-12T00:00:00	2024-11-08T23:00:00	5	Humedad	78
62437	7	Sololá	701	Sololá	1	Sololá	12	Diciembre	2023-02-12T00:00:00	2024-11-08T23:00:00	6	Velocidad del viento	0
62438	7	Sololá	701	Sololá	1	Sololá	12	Diciembre	2023-02-12T00:00:00	2024-11-08T23:00:00	7	Dirección del viento	0
62439	7	Sololá	701	Sololá	1	Sololá	12	Diciembre	2023-02-12T00:00:00	2024-11-08T23:00:00	1	Precipitación	0
62440	7	Sololá	701	Sololá	1	Sololá	12	Diciembre	2023-02-12T00:00:00	2024-11-08T23:00:00	8	Radiación solar	0
62441	7	Sololá	701	Sololá	1	Sololá	12	Diciembre	2023-03-12T00:00:00	2024-11-08T00:00:00	2	Temperatura media	12.4
62442	7	Sololá	701	Sololá	1	Sololá	12	Diciembre	2023-03-12T00:00:00	2024-11-08T00:00:00	4	Temperatura máxima	12.9
62443	7	Sololá	701	Sololá	1	Sololá	12	Diciembre	2023-03-12T00:00:00	2024-11-08T00:00:00	3	Temperatura mínima	12.4
62444	7	Sololá	701	Sololá	1	Sololá	12	Diciembre	2023-03-12T00:00:00	2024-11-08T00:00:00	5	Humedad	83
62445	7	Sololá	701	Sololá	1	Sololá	12	Diciembre	2023-03-12T00:00:00	2024-11-08T00:00:00	6	Velocidad del viento	0
62446	7	Sololá	701	Sololá	1	Sololá	12	Diciembre	2023-03-12T00:00:00	2024-11-08T00:00:00	7	Dirección del viento	0
62447	7	Sololá	701	Sololá	1	Sololá	12	Diciembre	2023-03-12T00:00:00	2024-11-08T00:00:00	1	Precipitación	0
62448	7	Sololá	701	Sololá	1	Sololá	12	Diciembre	2023-03-12T00:00:00	2024-11-08T00:00:00	8	Radiación solar	0
62449	7	Sololá	701	Sololá	1	Sololá	12	Diciembre	2023-03-12T00:00:00	2024-11-08T01:00:00	2	Temperatura media	11.4
62450	7	Sololá	701	Sololá	1	Sololá	12	Diciembre	2023-03-12T00:00:00	2024-11-08T01:00:00	4	Temperatura máxima	12.5
62451	7	Sololá	701	Sololá	1	Sololá	12	Diciembre	2023-03-12T00:00:00	2024-11-08T01:00:00	3	Temperatura mínima	11.4
62452	7	Sololá	701	Sololá	1	Sololá	12	Diciembre	2023-03-12T00:00:00	2024-11-08T01:00:00	5	Humedad	77
62453	7	Sololá	701	Sololá	1	Sololá	12	Diciembre	2023-03-12T00:00:00	2024-11-08T01:00:00	6	Velocidad del viento	0
62454	7	Sololá	701	Sololá	1	Sololá	12	Diciembre	2023-03-12T00:00:00	2024-11-08T01:00:00	7	Dirección del viento	0
62455	7	Sololá	701	Sololá	1	Sololá	12	Diciembre	2023-03-12T00:00:00	2024-11-08T01:00:00	1	Precipitación	0
62456	7	Sololá	701	Sololá	1	Sololá	12	Diciembre	2023-03-12T00:00:00	2024-11-08T01:00:00	8	Radiación solar	0
62457	7	Sololá	701	Sololá	1	Sololá	12	Diciembre	2023-03-12T00:00:00	2024-11-08T02:00:00	2	Temperatura media	11.5
62458	7	Sololá	701	Sololá	1	Sololá	12	Diciembre	2023-03-12T00:00:00	2024-11-08T02:00:00	4	Temperatura máxima	11.5
62459	7	Sololá	701	Sololá	1	Sololá	12	Diciembre	2023-03-12T00:00:00	2024-11-08T02:00:00	3	Temperatura mínima	11.1
62460	7	Sololá	701	Sololá	1	Sololá	12	Diciembre	2023-03-12T00:00:00	2024-11-08T02:00:00	5	Humedad	87
62461	7	Sololá	701	Sololá	1	Sololá	12	Diciembre	2023-03-12T00:00:00	2024-11-08T02:00:00	6	Velocidad del viento	0
62462	7	Sololá	701	Sololá	1	Sololá	12	Diciembre	2023-03-12T00:00:00	2024-11-08T02:00:00	7	Dirección del viento	0
62463	7	Sololá	701	Sololá	1	Sololá	12	Diciembre	2023-03-12T00:00:00	2024-11-08T02:00:00	1	Precipitación	0
62464	7	Sololá	701	Sololá	1	Sololá	12	Diciembre	2023-03-12T00:00:00	2024-11-08T02:00:00	8	Radiación solar	0
62465	7	Sololá	701	Sololá	1	Sololá	12	Diciembre	2023-03-12T00:00:00	2024-11-08T03:00:00	2	Temperatura media	11.9
62466	7	Sololá	701	Sololá	1	Sololá	12	Diciembre	2023-03-12T00:00:00	2024-11-08T03:00:00	4	Temperatura máxima	11.9
62467	7	Sololá	701	Sololá	1	Sololá	12	Diciembre	2023-03-12T00:00:00	2024-11-08T03:00:00	3	Temperatura mínima	11.5
62468	7	Sololá	701	Sololá	1	Sololá	12	Diciembre	2023-03-12T00:00:00	2024-11-08T03:00:00	5	Humedad	77
62469	7	Sololá	701	Sololá	1	Sololá	12	Diciembre	2023-03-12T00:00:00	2024-11-08T03:00:00	6	Velocidad del viento	0
62470	7	Sololá	701	Sololá	1	Sololá	12	Diciembre	2023-03-12T00:00:00	2024-11-08T03:00:00	7	Dirección del viento	0
62471	7	Sololá	701	Sololá	1	Sololá	12	Diciembre	2023-03-12T00:00:00	2024-11-08T03:00:00	1	Precipitación	0
62472	7	Sololá	701	Sololá	1	Sololá	12	Diciembre	2023-03-12T00:00:00	2024-11-08T03:00:00	8	Radiación solar	0
62473	7	Sololá	701	Sololá	1	Sololá	12	Diciembre	2023-03-12T00:00:00	2024-11-08T04:00:00	2	Temperatura media	11.6
62474	7	Sololá	701	Sololá	1	Sololá	12	Diciembre	2023-03-12T00:00:00	2024-11-08T04:00:00	4	Temperatura máxima	12.1
62475	7	Sololá	701	Sololá	1	Sololá	12	Diciembre	2023-03-12T00:00:00	2024-11-08T04:00:00	3	Temperatura mínima	11.5
62476	7	Sololá	701	Sololá	1	Sololá	12	Diciembre	2023-03-12T00:00:00	2024-11-08T04:00:00	5	Humedad	73
62477	7	Sololá	701	Sololá	1	Sololá	12	Diciembre	2023-03-12T00:00:00	2024-11-08T04:00:00	6	Velocidad del viento	0
62478	7	Sololá	701	Sololá	1	Sololá	12	Diciembre	2023-03-12T00:00:00	2024-11-08T04:00:00	7	Dirección del viento	0
62479	7	Sololá	701	Sololá	1	Sololá	12	Diciembre	2023-03-12T00:00:00	2024-11-08T04:00:00	1	Precipitación	0
62480	7	Sololá	701	Sololá	1	Sololá	12	Diciembre	2023-03-12T00:00:00	2024-11-08T04:00:00	8	Radiación solar	0
62481	7	Sololá	701	Sololá	1	Sololá	12	Diciembre	2023-03-12T00:00:00	2024-11-08T05:00:00	2	Temperatura media	11.8
62482	7	Sololá	701	Sololá	1	Sololá	12	Diciembre	2023-03-12T00:00:00	2024-11-08T05:00:00	4	Temperatura máxima	11.9
62483	7	Sololá	701	Sololá	1	Sololá	12	Diciembre	2023-03-12T00:00:00	2024-11-08T05:00:00	3	Temperatura mínima	11.5
62484	7	Sololá	701	Sololá	1	Sololá	12	Diciembre	2023-03-12T00:00:00	2024-11-08T05:00:00	5	Humedad	70
62485	7	Sololá	701	Sololá	1	Sololá	12	Diciembre	2023-03-12T00:00:00	2024-11-08T05:00:00	6	Velocidad del viento	0
62486	7	Sololá	701	Sololá	1	Sololá	12	Diciembre	2023-03-12T00:00:00	2024-11-08T05:00:00	7	Dirección del viento	0
62487	7	Sololá	701	Sololá	1	Sololá	12	Diciembre	2023-03-12T00:00:00	2024-11-08T05:00:00	1	Precipitación	0
62488	7	Sololá	701	Sololá	1	Sololá	12	Diciembre	2023-03-12T00:00:00	2024-11-08T05:00:00	8	Radiación solar	0
62489	7	Sololá	701	Sololá	1	Sololá	12	Diciembre	2023-03-12T00:00:00	2024-11-08T06:00:00	2	Temperatura media	11.4
62490	7	Sololá	701	Sololá	1	Sololá	12	Diciembre	2023-03-12T00:00:00	2024-11-08T06:00:00	4	Temperatura máxima	12
62491	7	Sololá	701	Sololá	1	Sololá	12	Diciembre	2023-03-12T00:00:00	2024-11-08T06:00:00	3	Temperatura mínima	11.4
62492	7	Sololá	701	Sololá	1	Sololá	12	Diciembre	2023-03-12T00:00:00	2024-11-08T06:00:00	5	Humedad	71
62493	7	Sololá	701	Sololá	1	Sololá	12	Diciembre	2023-03-12T00:00:00	2024-11-08T06:00:00	6	Velocidad del viento	0
62494	7	Sololá	701	Sololá	1	Sololá	12	Diciembre	2023-03-12T00:00:00	2024-11-08T06:00:00	7	Dirección del viento	0
62495	7	Sololá	701	Sololá	1	Sololá	12	Diciembre	2023-03-12T00:00:00	2024-11-08T06:00:00	1	Precipitación	0
62496	7	Sololá	701	Sololá	1	Sololá	12	Diciembre	2023-03-12T00:00:00	2024-11-08T06:00:00	8	Radiación solar	0
62497	7	Sololá	701	Sololá	1	Sololá	12	Diciembre	2023-03-12T00:00:00	2024-11-08T07:00:00	2	Temperatura media	11.6
62498	7	Sololá	701	Sololá	1	Sololá	12	Diciembre	2023-03-12T00:00:00	2024-11-08T07:00:00	4	Temperatura máxima	11.7
62499	7	Sololá	701	Sololá	1	Sololá	12	Diciembre	2023-03-12T00:00:00	2024-11-08T07:00:00	3	Temperatura mínima	11.4
62500	7	Sololá	701	Sololá	1	Sololá	12	Diciembre	2023-03-12T00:00:00	2024-11-08T07:00:00	5	Humedad	72
62501	7	Sololá	701	Sololá	1	Sololá	12	Diciembre	2023-03-12T00:00:00	2024-11-08T07:00:00	6	Velocidad del viento	0
62502	7	Sololá	701	Sololá	1	Sololá	12	Diciembre	2023-03-12T00:00:00	2024-11-08T07:00:00	7	Dirección del viento	0
62503	7	Sololá	701	Sololá	1	Sololá	12	Diciembre	2023-03-12T00:00:00	2024-11-08T07:00:00	1	Precipitación	0
62504	7	Sololá	701	Sololá	1	Sololá	12	Diciembre	2023-03-12T00:00:00	2024-11-08T07:00:00	8	Radiación solar	6
62505	7	Sololá	701	Sololá	1	Sololá	12	Diciembre	2023-03-12T00:00:00	2024-11-08T08:00:00	2	Temperatura media	15.4
62506	7	Sololá	701	Sololá	1	Sololá	12	Diciembre	2023-03-12T00:00:00	2024-11-08T08:00:00	4	Temperatura máxima	15.4
62507	7	Sololá	701	Sololá	1	Sololá	12	Diciembre	2023-03-12T00:00:00	2024-11-08T08:00:00	3	Temperatura mínima	11.6
62508	7	Sololá	701	Sololá	1	Sololá	12	Diciembre	2023-03-12T00:00:00	2024-11-08T08:00:00	5	Humedad	72
62509	7	Sololá	701	Sololá	1	Sololá	12	Diciembre	2023-03-12T00:00:00	2024-11-08T08:00:00	6	Velocidad del viento	0
62510	7	Sololá	701	Sololá	1	Sololá	12	Diciembre	2023-03-12T00:00:00	2024-11-08T08:00:00	7	Dirección del viento	0
62511	7	Sololá	701	Sololá	1	Sololá	12	Diciembre	2023-03-12T00:00:00	2024-11-08T08:00:00	1	Precipitación	0
62512	7	Sololá	701	Sololá	1	Sololá	12	Diciembre	2023-03-12T00:00:00	2024-11-08T08:00:00	8	Radiación solar	88
62513	7	Sololá	701	Sololá	1	Sololá	12	Diciembre	2023-03-12T00:00:00	2024-11-08T09:00:00	2	Temperatura media	21.8
62514	7	Sololá	701	Sololá	1	Sololá	12	Diciembre	2023-03-12T00:00:00	2024-11-08T09:00:00	4	Temperatura máxima	21.8
62515	7	Sololá	701	Sololá	1	Sololá	12	Diciembre	2023-03-12T00:00:00	2024-11-08T09:00:00	3	Temperatura mínima	15.4
62516	7	Sololá	701	Sololá	1	Sololá	12	Diciembre	2023-03-12T00:00:00	2024-11-08T09:00:00	5	Humedad	52
62517	7	Sololá	701	Sololá	1	Sololá	12	Diciembre	2023-03-12T00:00:00	2024-11-08T09:00:00	6	Velocidad del viento	0
62518	7	Sololá	701	Sololá	1	Sololá	12	Diciembre	2023-03-12T00:00:00	2024-11-08T09:00:00	7	Dirección del viento	0
62519	7	Sololá	701	Sololá	1	Sololá	12	Diciembre	2023-03-12T00:00:00	2024-11-08T09:00:00	1	Precipitación	0
62520	7	Sololá	701	Sololá	1	Sololá	12	Diciembre	2023-03-12T00:00:00	2024-11-08T09:00:00	8	Radiación solar	540
62521	7	Sololá	701	Sololá	1	Sololá	12	Diciembre	2023-03-12T00:00:00	2024-11-08T10:00:00	2	Temperatura media	23.1
62522	7	Sololá	701	Sololá	1	Sololá	12	Diciembre	2023-03-12T00:00:00	2024-11-08T10:00:00	4	Temperatura máxima	23.1
62523	7	Sololá	701	Sololá	1	Sololá	12	Diciembre	2023-03-12T00:00:00	2024-11-08T10:00:00	3	Temperatura mínima	21.8
62524	7	Sololá	701	Sololá	1	Sololá	12	Diciembre	2023-03-12T00:00:00	2024-11-08T10:00:00	5	Humedad	53
62525	7	Sololá	701	Sololá	1	Sololá	12	Diciembre	2023-03-12T00:00:00	2024-11-08T10:00:00	6	Velocidad del viento	0
62526	7	Sololá	701	Sololá	1	Sololá	12	Diciembre	2023-03-12T00:00:00	2024-11-08T10:00:00	7	Dirección del viento	0
62527	7	Sololá	701	Sololá	1	Sololá	12	Diciembre	2023-03-12T00:00:00	2024-11-08T10:00:00	1	Precipitación	0
62528	7	Sololá	701	Sololá	1	Sololá	12	Diciembre	2023-03-12T00:00:00	2024-11-08T10:00:00	8	Radiación solar	715
62529	7	Sololá	701	Sololá	1	Sololá	12	Diciembre	2023-03-12T00:00:00	2024-11-08T11:00:00	2	Temperatura media	23.6
62530	7	Sololá	701	Sololá	1	Sololá	12	Diciembre	2023-03-12T00:00:00	2024-11-08T11:00:00	4	Temperatura máxima	23.7
62531	7	Sololá	701	Sololá	1	Sololá	12	Diciembre	2023-03-12T00:00:00	2024-11-08T11:00:00	3	Temperatura mínima	22.9
62532	7	Sololá	701	Sololá	1	Sololá	12	Diciembre	2023-03-12T00:00:00	2024-11-08T11:00:00	5	Humedad	56
62533	7	Sololá	701	Sololá	1	Sololá	12	Diciembre	2023-03-12T00:00:00	2024-11-08T11:00:00	6	Velocidad del viento	0
62534	7	Sololá	701	Sololá	1	Sololá	12	Diciembre	2023-03-12T00:00:00	2024-11-08T11:00:00	7	Dirección del viento	0
62535	7	Sololá	701	Sololá	1	Sololá	12	Diciembre	2023-03-12T00:00:00	2024-11-08T11:00:00	1	Precipitación	0
62536	7	Sololá	701	Sololá	1	Sololá	12	Diciembre	2023-03-12T00:00:00	2024-11-08T11:00:00	8	Radiación solar	824
62537	7	Sololá	701	Sololá	1	Sololá	12	Diciembre	2023-03-12T00:00:00	2024-11-08T12:00:00	2	Temperatura media	24.4
62538	7	Sololá	701	Sololá	1	Sololá	12	Diciembre	2023-03-12T00:00:00	2024-11-08T12:00:00	4	Temperatura máxima	24.4
62539	7	Sololá	701	Sololá	1	Sololá	12	Diciembre	2023-03-12T00:00:00	2024-11-08T12:00:00	3	Temperatura mínima	23.6
62540	7	Sololá	701	Sololá	1	Sololá	12	Diciembre	2023-03-12T00:00:00	2024-11-08T12:00:00	5	Humedad	55
62541	7	Sololá	701	Sololá	1	Sololá	12	Diciembre	2023-03-12T00:00:00	2024-11-08T12:00:00	6	Velocidad del viento	0
62542	7	Sololá	701	Sololá	1	Sololá	12	Diciembre	2023-03-12T00:00:00	2024-11-08T12:00:00	7	Dirección del viento	0
62543	7	Sololá	701	Sololá	1	Sololá	12	Diciembre	2023-03-12T00:00:00	2024-11-08T12:00:00	1	Precipitación	0
62544	7	Sololá	701	Sololá	1	Sololá	12	Diciembre	2023-03-12T00:00:00	2024-11-08T12:00:00	8	Radiación solar	868
62545	7	Sololá	701	Sololá	1	Sololá	12	Diciembre	2023-03-12T00:00:00	2024-11-08T13:00:00	2	Temperatura media	25
62546	7	Sololá	701	Sololá	1	Sololá	12	Diciembre	2023-03-12T00:00:00	2024-11-08T13:00:00	4	Temperatura máxima	25.3
62547	7	Sololá	701	Sololá	1	Sololá	12	Diciembre	2023-03-12T00:00:00	2024-11-08T13:00:00	3	Temperatura mínima	24.4
62548	7	Sololá	701	Sololá	1	Sololá	12	Diciembre	2023-03-12T00:00:00	2024-11-08T13:00:00	5	Humedad	48
62549	7	Sololá	701	Sololá	1	Sololá	12	Diciembre	2023-03-12T00:00:00	2024-11-08T13:00:00	6	Velocidad del viento	0
62550	7	Sololá	701	Sololá	1	Sololá	12	Diciembre	2023-03-12T00:00:00	2024-11-08T13:00:00	7	Dirección del viento	0
62551	7	Sololá	701	Sololá	1	Sololá	12	Diciembre	2023-03-12T00:00:00	2024-11-08T13:00:00	1	Precipitación	0
62552	7	Sololá	701	Sololá	1	Sololá	12	Diciembre	2023-03-12T00:00:00	2024-11-08T13:00:00	8	Radiación solar	805
62553	7	Sololá	701	Sololá	1	Sololá	12	Diciembre	2023-03-12T00:00:00	2024-11-08T14:00:00	2	Temperatura media	24.5
62554	7	Sololá	701	Sololá	1	Sololá	12	Diciembre	2023-03-12T00:00:00	2024-11-08T14:00:00	4	Temperatura máxima	25
62555	7	Sololá	701	Sololá	1	Sololá	12	Diciembre	2023-03-12T00:00:00	2024-11-08T14:00:00	3	Temperatura mínima	24.5
62556	7	Sololá	701	Sololá	1	Sololá	12	Diciembre	2023-03-12T00:00:00	2024-11-08T14:00:00	5	Humedad	51
62557	7	Sololá	701	Sololá	1	Sololá	12	Diciembre	2023-03-12T00:00:00	2024-11-08T14:00:00	6	Velocidad del viento	0
62558	7	Sololá	701	Sololá	1	Sololá	12	Diciembre	2023-03-12T00:00:00	2024-11-08T14:00:00	7	Dirección del viento	0
62559	7	Sololá	701	Sololá	1	Sololá	12	Diciembre	2023-03-12T00:00:00	2024-11-08T14:00:00	1	Precipitación	0
62560	7	Sololá	701	Sololá	1	Sololá	12	Diciembre	2023-03-12T00:00:00	2024-11-08T14:00:00	8	Radiación solar	702
62561	7	Sololá	701	Sololá	1	Sololá	12	Diciembre	2023-03-12T00:00:00	2024-11-08T15:00:00	2	Temperatura media	23.3
62562	7	Sololá	701	Sololá	1	Sololá	12	Diciembre	2023-03-12T00:00:00	2024-11-08T15:00:00	4	Temperatura máxima	24.5
62563	7	Sololá	701	Sololá	1	Sololá	12	Diciembre	2023-03-12T00:00:00	2024-11-08T15:00:00	3	Temperatura mínima	23.3
62564	7	Sololá	701	Sololá	1	Sololá	12	Diciembre	2023-03-12T00:00:00	2024-11-08T15:00:00	5	Humedad	53
62565	7	Sololá	701	Sololá	1	Sololá	12	Diciembre	2023-03-12T00:00:00	2024-11-08T15:00:00	6	Velocidad del viento	0
62566	7	Sololá	701	Sololá	1	Sololá	12	Diciembre	2023-03-12T00:00:00	2024-11-08T15:00:00	7	Dirección del viento	0
62567	7	Sololá	701	Sololá	1	Sololá	12	Diciembre	2023-03-12T00:00:00	2024-11-08T15:00:00	1	Precipitación	0
62568	7	Sololá	701	Sololá	1	Sololá	12	Diciembre	2023-03-12T00:00:00	2024-11-08T15:00:00	8	Radiación solar	141
62569	7	Sololá	701	Sololá	1	Sololá	12	Diciembre	2023-03-12T00:00:00	2024-11-08T16:00:00	2	Temperatura media	23.3
62570	7	Sololá	701	Sololá	1	Sololá	12	Diciembre	2023-03-12T00:00:00	2024-11-08T16:00:00	4	Temperatura máxima	23.7
62571	7	Sololá	701	Sololá	1	Sololá	12	Diciembre	2023-03-12T00:00:00	2024-11-08T16:00:00	3	Temperatura mínima	23.1
62572	7	Sololá	701	Sololá	1	Sololá	12	Diciembre	2023-03-12T00:00:00	2024-11-08T16:00:00	5	Humedad	52
62573	7	Sololá	701	Sololá	1	Sololá	12	Diciembre	2023-03-12T00:00:00	2024-11-08T16:00:00	6	Velocidad del viento	0
62574	7	Sololá	701	Sololá	1	Sololá	12	Diciembre	2023-03-12T00:00:00	2024-11-08T16:00:00	7	Dirección del viento	0
62575	7	Sololá	701	Sololá	1	Sololá	12	Diciembre	2023-03-12T00:00:00	2024-11-08T16:00:00	1	Precipitación	0
62576	7	Sololá	701	Sololá	1	Sololá	12	Diciembre	2023-03-12T00:00:00	2024-11-08T16:00:00	8	Radiación solar	69
62577	7	Sololá	701	Sololá	1	Sololá	12	Diciembre	2023-03-12T00:00:00	2024-11-08T17:00:00	2	Temperatura media	20.7
62578	7	Sololá	701	Sololá	1	Sololá	12	Diciembre	2023-03-12T00:00:00	2024-11-08T17:00:00	4	Temperatura máxima	23.3
62579	7	Sololá	701	Sololá	1	Sololá	12	Diciembre	2023-03-12T00:00:00	2024-11-08T17:00:00	3	Temperatura mínima	20.7
62580	7	Sololá	701	Sololá	1	Sololá	12	Diciembre	2023-03-12T00:00:00	2024-11-08T17:00:00	5	Humedad	63
62581	7	Sololá	701	Sololá	1	Sololá	12	Diciembre	2023-03-12T00:00:00	2024-11-08T17:00:00	6	Velocidad del viento	0
62582	7	Sololá	701	Sololá	1	Sololá	12	Diciembre	2023-03-12T00:00:00	2024-11-08T17:00:00	7	Dirección del viento	0
62583	7	Sololá	701	Sololá	1	Sololá	12	Diciembre	2023-03-12T00:00:00	2024-11-08T17:00:00	1	Precipitación	0
62584	7	Sololá	701	Sololá	1	Sololá	12	Diciembre	2023-03-12T00:00:00	2024-11-08T17:00:00	8	Radiación solar	53
62585	7	Sololá	701	Sololá	1	Sololá	12	Diciembre	2023-03-12T00:00:00	2024-11-08T18:00:00	2	Temperatura media	17.8
62586	7	Sololá	701	Sololá	1	Sololá	12	Diciembre	2023-03-12T00:00:00	2024-11-08T18:00:00	4	Temperatura máxima	20.7
62587	7	Sololá	701	Sololá	1	Sololá	12	Diciembre	2023-03-12T00:00:00	2024-11-08T18:00:00	3	Temperatura mínima	17.8
62588	7	Sololá	701	Sololá	1	Sololá	12	Diciembre	2023-03-12T00:00:00	2024-11-08T18:00:00	5	Humedad	74
62589	7	Sololá	701	Sololá	1	Sololá	12	Diciembre	2023-03-12T00:00:00	2024-11-08T18:00:00	6	Velocidad del viento	0
62590	7	Sololá	701	Sololá	1	Sololá	12	Diciembre	2023-03-12T00:00:00	2024-11-08T18:00:00	7	Dirección del viento	0
62591	7	Sololá	701	Sololá	1	Sololá	12	Diciembre	2023-03-12T00:00:00	2024-11-08T18:00:00	1	Precipitación	0
62592	7	Sololá	701	Sololá	1	Sololá	12	Diciembre	2023-03-12T00:00:00	2024-11-08T18:00:00	8	Radiación solar	6
62593	7	Sololá	701	Sololá	1	Sololá	12	Diciembre	2023-03-12T00:00:00	2024-11-08T19:00:00	2	Temperatura media	16.5
62594	7	Sololá	701	Sololá	1	Sololá	12	Diciembre	2023-03-12T00:00:00	2024-11-08T19:00:00	4	Temperatura máxima	17.8
62595	7	Sololá	701	Sololá	1	Sololá	12	Diciembre	2023-03-12T00:00:00	2024-11-08T19:00:00	3	Temperatura mínima	16.5
62596	7	Sololá	701	Sololá	1	Sololá	12	Diciembre	2023-03-12T00:00:00	2024-11-08T19:00:00	5	Humedad	79
62597	7	Sololá	701	Sololá	1	Sololá	12	Diciembre	2023-03-12T00:00:00	2024-11-08T19:00:00	6	Velocidad del viento	0
62598	7	Sololá	701	Sololá	1	Sololá	12	Diciembre	2023-03-12T00:00:00	2024-11-08T19:00:00	7	Dirección del viento	0
62599	7	Sololá	701	Sololá	1	Sololá	12	Diciembre	2023-03-12T00:00:00	2024-11-08T19:00:00	1	Precipitación	0
62600	7	Sololá	701	Sololá	1	Sololá	12	Diciembre	2023-03-12T00:00:00	2024-11-08T19:00:00	8	Radiación solar	0
62601	7	Sololá	701	Sololá	1	Sololá	12	Diciembre	2023-03-12T00:00:00	2024-11-08T20:00:00	2	Temperatura media	15.8
62602	7	Sololá	701	Sololá	1	Sololá	12	Diciembre	2023-03-12T00:00:00	2024-11-08T20:00:00	4	Temperatura máxima	16.5
62603	7	Sololá	701	Sololá	1	Sololá	12	Diciembre	2023-03-12T00:00:00	2024-11-08T20:00:00	3	Temperatura mínima	15.8
62604	7	Sololá	701	Sololá	1	Sololá	12	Diciembre	2023-03-12T00:00:00	2024-11-08T20:00:00	5	Humedad	80
62605	7	Sololá	701	Sololá	1	Sololá	12	Diciembre	2023-03-12T00:00:00	2024-11-08T20:00:00	6	Velocidad del viento	0
62606	7	Sololá	701	Sololá	1	Sololá	12	Diciembre	2023-03-12T00:00:00	2024-11-08T20:00:00	7	Dirección del viento	0
62607	7	Sololá	701	Sololá	1	Sololá	12	Diciembre	2023-03-12T00:00:00	2024-11-08T20:00:00	1	Precipitación	0
62608	7	Sololá	701	Sololá	1	Sololá	12	Diciembre	2023-03-12T00:00:00	2024-11-08T20:00:00	8	Radiación solar	0
62609	7	Sololá	701	Sololá	1	Sololá	12	Diciembre	2023-03-12T00:00:00	2024-11-08T21:00:00	2	Temperatura media	15.4
62610	7	Sololá	701	Sololá	1	Sololá	12	Diciembre	2023-03-12T00:00:00	2024-11-08T21:00:00	4	Temperatura máxima	15.8
62611	7	Sololá	701	Sololá	1	Sololá	12	Diciembre	2023-03-12T00:00:00	2024-11-08T21:00:00	3	Temperatura mínima	15.4
62612	7	Sololá	701	Sololá	1	Sololá	12	Diciembre	2023-03-12T00:00:00	2024-11-08T21:00:00	5	Humedad	81
62613	7	Sololá	701	Sololá	1	Sololá	12	Diciembre	2023-03-12T00:00:00	2024-11-08T21:00:00	6	Velocidad del viento	0
62614	7	Sololá	701	Sololá	1	Sololá	12	Diciembre	2023-03-12T00:00:00	2024-11-08T21:00:00	7	Dirección del viento	0
62615	7	Sololá	701	Sololá	1	Sololá	12	Diciembre	2023-03-12T00:00:00	2024-11-08T21:00:00	1	Precipitación	0
62616	7	Sololá	701	Sololá	1	Sololá	12	Diciembre	2023-03-12T00:00:00	2024-11-08T21:00:00	8	Radiación solar	0
62617	7	Sololá	701	Sololá	1	Sololá	12	Diciembre	2023-03-12T00:00:00	2024-11-08T22:00:00	2	Temperatura media	15.1
62618	7	Sololá	701	Sololá	1	Sololá	12	Diciembre	2023-03-12T00:00:00	2024-11-08T22:00:00	4	Temperatura máxima	15.4
62619	7	Sololá	701	Sololá	1	Sololá	12	Diciembre	2023-03-12T00:00:00	2024-11-08T22:00:00	3	Temperatura mínima	15.1
62620	7	Sololá	701	Sololá	1	Sololá	12	Diciembre	2023-03-12T00:00:00	2024-11-08T22:00:00	5	Humedad	82
62621	7	Sololá	701	Sololá	1	Sololá	12	Diciembre	2023-03-12T00:00:00	2024-11-08T22:00:00	6	Velocidad del viento	0
62622	7	Sololá	701	Sololá	1	Sololá	12	Diciembre	2023-03-12T00:00:00	2024-11-08T22:00:00	7	Dirección del viento	0
62623	7	Sololá	701	Sololá	1	Sololá	12	Diciembre	2023-03-12T00:00:00	2024-11-08T22:00:00	1	Precipitación	0
62624	7	Sololá	701	Sololá	1	Sololá	12	Diciembre	2023-03-12T00:00:00	2024-11-08T22:00:00	8	Radiación solar	0
62625	7	Sololá	701	Sololá	1	Sololá	12	Diciembre	2023-03-12T00:00:00	2024-11-08T23:00:00	2	Temperatura media	14.6
62626	7	Sololá	701	Sololá	1	Sololá	12	Diciembre	2023-03-12T00:00:00	2024-11-08T23:00:00	4	Temperatura máxima	15.1
62627	7	Sololá	701	Sololá	1	Sololá	12	Diciembre	2023-03-12T00:00:00	2024-11-08T23:00:00	3	Temperatura mínima	14.6
62628	7	Sololá	701	Sololá	1	Sololá	12	Diciembre	2023-03-12T00:00:00	2024-11-08T23:00:00	5	Humedad	84
62629	7	Sololá	701	Sololá	1	Sololá	12	Diciembre	2023-03-12T00:00:00	2024-11-08T23:00:00	6	Velocidad del viento	0
62630	7	Sololá	701	Sololá	1	Sololá	12	Diciembre	2023-03-12T00:00:00	2024-11-08T23:00:00	7	Dirección del viento	0
62631	7	Sololá	701	Sololá	1	Sololá	12	Diciembre	2023-03-12T00:00:00	2024-11-08T23:00:00	1	Precipitación	0
62632	7	Sololá	701	Sololá	1	Sololá	12	Diciembre	2023-03-12T00:00:00	2024-11-08T23:00:00	8	Radiación solar	0
62633	7	Sololá	701	Sololá	1	Sololá	12	Diciembre	2023-04-12T00:00:00	2024-11-08T00:00:00	2	Temperatura media	14.6
62634	7	Sololá	701	Sololá	1	Sololá	12	Diciembre	2023-04-12T00:00:00	2024-11-08T00:00:00	4	Temperatura máxima	14.7
62635	7	Sololá	701	Sololá	1	Sololá	12	Diciembre	2023-04-12T00:00:00	2024-11-08T00:00:00	3	Temperatura mínima	14.4
62636	7	Sololá	701	Sololá	1	Sololá	12	Diciembre	2023-04-12T00:00:00	2024-11-08T00:00:00	5	Humedad	81
62637	7	Sololá	701	Sololá	1	Sololá	12	Diciembre	2023-04-12T00:00:00	2024-11-08T00:00:00	6	Velocidad del viento	0
62638	7	Sololá	701	Sololá	1	Sololá	12	Diciembre	2023-04-12T00:00:00	2024-11-08T00:00:00	7	Dirección del viento	0
62639	7	Sololá	701	Sololá	1	Sololá	12	Diciembre	2023-04-12T00:00:00	2024-11-08T00:00:00	1	Precipitación	0
62640	7	Sololá	701	Sololá	1	Sololá	12	Diciembre	2023-04-12T00:00:00	2024-11-08T00:00:00	8	Radiación solar	0
62641	7	Sololá	701	Sololá	1	Sololá	12	Diciembre	2023-04-12T00:00:00	2024-11-08T01:00:00	2	Temperatura media	14.7
62642	7	Sololá	701	Sololá	1	Sololá	12	Diciembre	2023-04-12T00:00:00	2024-11-08T01:00:00	4	Temperatura máxima	14.7
62643	7	Sololá	701	Sololá	1	Sololá	12	Diciembre	2023-04-12T00:00:00	2024-11-08T01:00:00	3	Temperatura mínima	14.6
62644	7	Sololá	701	Sololá	1	Sololá	12	Diciembre	2023-04-12T00:00:00	2024-11-08T01:00:00	5	Humedad	79
62645	7	Sololá	701	Sololá	1	Sololá	12	Diciembre	2023-04-12T00:00:00	2024-11-08T01:00:00	6	Velocidad del viento	0
62646	7	Sololá	701	Sololá	1	Sololá	12	Diciembre	2023-04-12T00:00:00	2024-11-08T01:00:00	7	Dirección del viento	0
62647	7	Sololá	701	Sololá	1	Sololá	12	Diciembre	2023-04-12T00:00:00	2024-11-08T01:00:00	1	Precipitación	0
62648	7	Sololá	701	Sololá	1	Sololá	12	Diciembre	2023-04-12T00:00:00	2024-11-08T01:00:00	8	Radiación solar	0
62649	7	Sololá	701	Sololá	1	Sololá	12	Diciembre	2023-04-12T00:00:00	2024-11-08T02:00:00	2	Temperatura media	14.6
62650	7	Sololá	701	Sololá	1	Sololá	12	Diciembre	2023-04-12T00:00:00	2024-11-08T02:00:00	4	Temperatura máxima	14.7
62651	7	Sololá	701	Sololá	1	Sololá	12	Diciembre	2023-04-12T00:00:00	2024-11-08T02:00:00	3	Temperatura mínima	14.6
62652	7	Sololá	701	Sololá	1	Sololá	12	Diciembre	2023-04-12T00:00:00	2024-11-08T02:00:00	5	Humedad	79
62653	7	Sololá	701	Sololá	1	Sololá	12	Diciembre	2023-04-12T00:00:00	2024-11-08T02:00:00	6	Velocidad del viento	0
62654	7	Sololá	701	Sololá	1	Sololá	12	Diciembre	2023-04-12T00:00:00	2024-11-08T02:00:00	7	Dirección del viento	0
62655	7	Sololá	701	Sololá	1	Sololá	12	Diciembre	2023-04-12T00:00:00	2024-11-08T02:00:00	1	Precipitación	0
62656	7	Sololá	701	Sololá	1	Sololá	12	Diciembre	2023-04-12T00:00:00	2024-11-08T02:00:00	8	Radiación solar	0
62657	7	Sololá	701	Sololá	1	Sololá	12	Diciembre	2023-04-12T00:00:00	2024-11-08T03:00:00	2	Temperatura media	14.4
62658	7	Sololá	701	Sololá	1	Sololá	12	Diciembre	2023-04-12T00:00:00	2024-11-08T03:00:00	4	Temperatura máxima	14.7
62659	7	Sololá	701	Sololá	1	Sololá	12	Diciembre	2023-04-12T00:00:00	2024-11-08T03:00:00	3	Temperatura mínima	14.4
62660	7	Sololá	701	Sololá	1	Sololá	12	Diciembre	2023-04-12T00:00:00	2024-11-08T03:00:00	5	Humedad	80
62661	7	Sololá	701	Sololá	1	Sololá	12	Diciembre	2023-04-12T00:00:00	2024-11-08T03:00:00	6	Velocidad del viento	0
62662	7	Sololá	701	Sololá	1	Sololá	12	Diciembre	2023-04-12T00:00:00	2024-11-08T03:00:00	7	Dirección del viento	0
62663	7	Sololá	701	Sololá	1	Sololá	12	Diciembre	2023-04-12T00:00:00	2024-11-08T03:00:00	1	Precipitación	0
62664	7	Sololá	701	Sololá	1	Sololá	12	Diciembre	2023-04-12T00:00:00	2024-11-08T03:00:00	8	Radiación solar	0
62665	7	Sololá	701	Sololá	1	Sololá	12	Diciembre	2023-04-12T00:00:00	2024-11-08T04:00:00	2	Temperatura media	14
62666	7	Sololá	701	Sololá	1	Sololá	12	Diciembre	2023-04-12T00:00:00	2024-11-08T04:00:00	4	Temperatura máxima	14.4
62667	7	Sololá	701	Sololá	1	Sololá	12	Diciembre	2023-04-12T00:00:00	2024-11-08T04:00:00	3	Temperatura mínima	13.9
62668	7	Sololá	701	Sololá	1	Sololá	12	Diciembre	2023-04-12T00:00:00	2024-11-08T04:00:00	5	Humedad	80
62669	7	Sololá	701	Sololá	1	Sololá	12	Diciembre	2023-04-12T00:00:00	2024-11-08T04:00:00	6	Velocidad del viento	0
62670	7	Sololá	701	Sololá	1	Sololá	12	Diciembre	2023-04-12T00:00:00	2024-11-08T04:00:00	7	Dirección del viento	0
62671	7	Sololá	701	Sololá	1	Sololá	12	Diciembre	2023-04-12T00:00:00	2024-11-08T04:00:00	1	Precipitación	0
62672	7	Sololá	701	Sololá	1	Sololá	12	Diciembre	2023-04-12T00:00:00	2024-11-08T04:00:00	8	Radiación solar	0
62673	7	Sololá	701	Sololá	1	Sololá	12	Diciembre	2023-04-12T00:00:00	2024-11-08T05:00:00	2	Temperatura media	14.4
62674	7	Sololá	701	Sololá	1	Sololá	12	Diciembre	2023-04-12T00:00:00	2024-11-08T05:00:00	4	Temperatura máxima	14.4
62675	7	Sololá	701	Sololá	1	Sololá	12	Diciembre	2023-04-12T00:00:00	2024-11-08T05:00:00	3	Temperatura mínima	13.9
62676	7	Sololá	701	Sololá	1	Sololá	12	Diciembre	2023-04-12T00:00:00	2024-11-08T05:00:00	5	Humedad	82
62677	7	Sololá	701	Sololá	1	Sololá	12	Diciembre	2023-04-12T00:00:00	2024-11-08T05:00:00	6	Velocidad del viento	0
62678	7	Sololá	701	Sololá	1	Sololá	12	Diciembre	2023-04-12T00:00:00	2024-11-08T05:00:00	7	Dirección del viento	0
62679	7	Sololá	701	Sololá	1	Sololá	12	Diciembre	2023-04-12T00:00:00	2024-11-08T05:00:00	1	Precipitación	0
62680	7	Sololá	701	Sololá	1	Sololá	12	Diciembre	2023-04-12T00:00:00	2024-11-08T05:00:00	8	Radiación solar	0
62681	7	Sololá	701	Sololá	1	Sololá	12	Diciembre	2023-04-12T00:00:00	2024-11-08T06:00:00	2	Temperatura media	14.5
62682	7	Sololá	701	Sololá	1	Sololá	12	Diciembre	2023-04-12T00:00:00	2024-11-08T06:00:00	4	Temperatura máxima	14.6
62683	7	Sololá	701	Sololá	1	Sololá	12	Diciembre	2023-04-12T00:00:00	2024-11-08T06:00:00	3	Temperatura mínima	14.4
62684	7	Sololá	701	Sololá	1	Sololá	12	Diciembre	2023-04-12T00:00:00	2024-11-08T06:00:00	5	Humedad	82
62685	7	Sololá	701	Sololá	1	Sololá	12	Diciembre	2023-04-12T00:00:00	2024-11-08T06:00:00	6	Velocidad del viento	0
62686	7	Sololá	701	Sololá	1	Sololá	12	Diciembre	2023-04-12T00:00:00	2024-11-08T06:00:00	7	Dirección del viento	0
62687	7	Sololá	701	Sololá	1	Sololá	12	Diciembre	2023-04-12T00:00:00	2024-11-08T06:00:00	1	Precipitación	0
62688	7	Sololá	701	Sololá	1	Sololá	12	Diciembre	2023-04-12T00:00:00	2024-11-08T06:00:00	8	Radiación solar	0
62689	7	Sololá	701	Sololá	1	Sololá	12	Diciembre	2023-04-12T00:00:00	2024-11-08T07:00:00	2	Temperatura media	15
62690	7	Sololá	701	Sololá	1	Sololá	12	Diciembre	2023-04-12T00:00:00	2024-11-08T07:00:00	4	Temperatura máxima	15
62691	7	Sololá	701	Sololá	1	Sololá	12	Diciembre	2023-04-12T00:00:00	2024-11-08T07:00:00	3	Temperatura mínima	14.4
62692	7	Sololá	701	Sololá	1	Sololá	12	Diciembre	2023-04-12T00:00:00	2024-11-08T07:00:00	5	Humedad	81
62693	7	Sololá	701	Sololá	1	Sololá	12	Diciembre	2023-04-12T00:00:00	2024-11-08T07:00:00	6	Velocidad del viento	0
62694	7	Sololá	701	Sololá	1	Sololá	12	Diciembre	2023-04-12T00:00:00	2024-11-08T07:00:00	7	Dirección del viento	0
62695	7	Sololá	701	Sololá	1	Sololá	12	Diciembre	2023-04-12T00:00:00	2024-11-08T07:00:00	1	Precipitación	0
62696	7	Sololá	701	Sololá	1	Sololá	12	Diciembre	2023-04-12T00:00:00	2024-11-08T07:00:00	8	Radiación solar	11
62697	7	Sololá	701	Sololá	1	Sololá	12	Diciembre	2023-04-12T00:00:00	2024-11-08T08:00:00	2	Temperatura media	16.8
62698	7	Sololá	701	Sololá	1	Sololá	12	Diciembre	2023-04-12T00:00:00	2024-11-08T08:00:00	4	Temperatura máxima	16.8
62699	7	Sololá	701	Sololá	1	Sololá	12	Diciembre	2023-04-12T00:00:00	2024-11-08T08:00:00	3	Temperatura mínima	14.9
62700	7	Sololá	701	Sololá	1	Sololá	12	Diciembre	2023-04-12T00:00:00	2024-11-08T08:00:00	5	Humedad	81
62701	7	Sololá	701	Sololá	1	Sololá	12	Diciembre	2023-04-12T00:00:00	2024-11-08T08:00:00	6	Velocidad del viento	0
62702	7	Sololá	701	Sololá	1	Sololá	12	Diciembre	2023-04-12T00:00:00	2024-11-08T08:00:00	7	Dirección del viento	0
62703	7	Sololá	701	Sololá	1	Sololá	12	Diciembre	2023-04-12T00:00:00	2024-11-08T08:00:00	1	Precipitación	0
62704	7	Sololá	701	Sololá	1	Sololá	12	Diciembre	2023-04-12T00:00:00	2024-11-08T08:00:00	8	Radiación solar	92
62705	7	Sololá	701	Sololá	1	Sololá	12	Diciembre	2023-04-12T00:00:00	2024-11-08T09:00:00	2	Temperatura media	20.1
62706	7	Sololá	701	Sololá	1	Sololá	12	Diciembre	2023-04-12T00:00:00	2024-11-08T09:00:00	4	Temperatura máxima	20.1
62707	7	Sololá	701	Sololá	1	Sololá	12	Diciembre	2023-04-12T00:00:00	2024-11-08T09:00:00	3	Temperatura mínima	16.8
62708	7	Sololá	701	Sololá	1	Sololá	12	Diciembre	2023-04-12T00:00:00	2024-11-08T09:00:00	5	Humedad	73
62709	7	Sololá	701	Sololá	1	Sololá	12	Diciembre	2023-04-12T00:00:00	2024-11-08T09:00:00	6	Velocidad del viento	0
62710	7	Sololá	701	Sololá	1	Sololá	12	Diciembre	2023-04-12T00:00:00	2024-11-08T09:00:00	7	Dirección del viento	0
62711	7	Sololá	701	Sololá	1	Sololá	12	Diciembre	2023-04-12T00:00:00	2024-11-08T09:00:00	1	Precipitación	0
62712	7	Sololá	701	Sololá	1	Sololá	12	Diciembre	2023-04-12T00:00:00	2024-11-08T09:00:00	8	Radiación solar	513
62713	7	Sololá	701	Sololá	1	Sololá	12	Diciembre	2023-04-12T00:00:00	2024-11-08T10:00:00	2	Temperatura media	21.8
62714	7	Sololá	701	Sololá	1	Sololá	12	Diciembre	2023-04-12T00:00:00	2024-11-08T10:00:00	4	Temperatura máxima	22.2
62715	7	Sololá	701	Sololá	1	Sololá	12	Diciembre	2023-04-12T00:00:00	2024-11-08T10:00:00	3	Temperatura mínima	20.1
62716	7	Sololá	701	Sololá	1	Sololá	12	Diciembre	2023-04-12T00:00:00	2024-11-08T10:00:00	5	Humedad	68
62717	7	Sololá	701	Sololá	1	Sololá	12	Diciembre	2023-04-12T00:00:00	2024-11-08T10:00:00	6	Velocidad del viento	0
62718	7	Sololá	701	Sololá	1	Sololá	12	Diciembre	2023-04-12T00:00:00	2024-11-08T10:00:00	7	Dirección del viento	0
62719	7	Sololá	701	Sololá	1	Sololá	12	Diciembre	2023-04-12T00:00:00	2024-11-08T10:00:00	1	Precipitación	0
62720	7	Sololá	701	Sololá	1	Sololá	12	Diciembre	2023-04-12T00:00:00	2024-11-08T10:00:00	8	Radiación solar	696
62721	7	Sololá	701	Sololá	1	Sololá	12	Diciembre	2023-04-12T00:00:00	2024-11-08T11:00:00	2	Temperatura media	21.6
62722	7	Sololá	701	Sololá	1	Sololá	12	Diciembre	2023-04-12T00:00:00	2024-11-08T11:00:00	4	Temperatura máxima	21.8
62723	7	Sololá	701	Sololá	1	Sololá	12	Diciembre	2023-04-12T00:00:00	2024-11-08T11:00:00	3	Temperatura mínima	20.4
62724	7	Sololá	701	Sololá	1	Sololá	12	Diciembre	2023-04-12T00:00:00	2024-11-08T11:00:00	5	Humedad	71
62725	7	Sololá	701	Sololá	1	Sololá	12	Diciembre	2023-04-12T00:00:00	2024-11-08T11:00:00	6	Velocidad del viento	0
62726	7	Sololá	701	Sololá	1	Sololá	12	Diciembre	2023-04-12T00:00:00	2024-11-08T11:00:00	7	Dirección del viento	0
62727	7	Sololá	701	Sololá	1	Sololá	12	Diciembre	2023-04-12T00:00:00	2024-11-08T11:00:00	1	Precipitación	0
62728	7	Sololá	701	Sololá	1	Sololá	12	Diciembre	2023-04-12T00:00:00	2024-11-08T11:00:00	8	Radiación solar	601
62729	7	Sololá	701	Sololá	1	Sololá	12	Diciembre	2023-04-12T00:00:00	2024-11-08T12:00:00	2	Temperatura media	23.6
62730	7	Sololá	701	Sololá	1	Sololá	12	Diciembre	2023-04-12T00:00:00	2024-11-08T12:00:00	4	Temperatura máxima	23.7
62731	7	Sololá	701	Sololá	1	Sololá	12	Diciembre	2023-04-12T00:00:00	2024-11-08T12:00:00	3	Temperatura mínima	21.6
62732	7	Sololá	701	Sololá	1	Sololá	12	Diciembre	2023-04-12T00:00:00	2024-11-08T12:00:00	5	Humedad	64
62733	7	Sololá	701	Sololá	1	Sololá	12	Diciembre	2023-04-12T00:00:00	2024-11-08T12:00:00	6	Velocidad del viento	0
62734	7	Sololá	701	Sololá	1	Sololá	12	Diciembre	2023-04-12T00:00:00	2024-11-08T12:00:00	7	Dirección del viento	0
62735	7	Sololá	701	Sololá	1	Sololá	12	Diciembre	2023-04-12T00:00:00	2024-11-08T12:00:00	1	Precipitación	0
62736	7	Sololá	701	Sololá	1	Sololá	12	Diciembre	2023-04-12T00:00:00	2024-11-08T12:00:00	8	Radiación solar	842
62737	7	Sololá	701	Sololá	1	Sololá	12	Diciembre	2023-04-12T00:00:00	2024-11-08T13:00:00	2	Temperatura media	24.1
62738	7	Sololá	701	Sololá	1	Sololá	12	Diciembre	2023-04-12T00:00:00	2024-11-08T13:00:00	4	Temperatura máxima	24.1
62739	7	Sololá	701	Sololá	1	Sololá	12	Diciembre	2023-04-12T00:00:00	2024-11-08T13:00:00	3	Temperatura mínima	23.4
62740	7	Sololá	701	Sololá	1	Sololá	12	Diciembre	2023-04-12T00:00:00	2024-11-08T13:00:00	5	Humedad	61
62741	7	Sololá	701	Sololá	1	Sololá	12	Diciembre	2023-04-12T00:00:00	2024-11-08T13:00:00	6	Velocidad del viento	0
62742	7	Sololá	701	Sololá	1	Sololá	12	Diciembre	2023-04-12T00:00:00	2024-11-08T13:00:00	7	Dirección del viento	0
62743	7	Sololá	701	Sololá	1	Sololá	12	Diciembre	2023-04-12T00:00:00	2024-11-08T13:00:00	1	Precipitación	0
62744	7	Sololá	701	Sololá	1	Sololá	12	Diciembre	2023-04-12T00:00:00	2024-11-08T13:00:00	8	Radiación solar	720
62745	7	Sololá	701	Sololá	1	Sololá	12	Diciembre	2023-04-12T00:00:00	2024-11-08T14:00:00	2	Temperatura media	23.8
62746	7	Sololá	701	Sololá	1	Sololá	12	Diciembre	2023-04-12T00:00:00	2024-11-08T14:00:00	4	Temperatura máxima	24.1
62747	7	Sololá	701	Sololá	1	Sololá	12	Diciembre	2023-04-12T00:00:00	2024-11-08T14:00:00	3	Temperatura mínima	23.2
62748	7	Sololá	701	Sololá	1	Sololá	12	Diciembre	2023-04-12T00:00:00	2024-11-08T14:00:00	5	Humedad	59
62749	7	Sololá	701	Sololá	1	Sololá	12	Diciembre	2023-04-12T00:00:00	2024-11-08T14:00:00	6	Velocidad del viento	0
62750	7	Sololá	701	Sololá	1	Sololá	12	Diciembre	2023-04-12T00:00:00	2024-11-08T14:00:00	7	Dirección del viento	0
62751	7	Sololá	701	Sololá	1	Sololá	12	Diciembre	2023-04-12T00:00:00	2024-11-08T14:00:00	1	Precipitación	0
62752	7	Sololá	701	Sololá	1	Sololá	12	Diciembre	2023-04-12T00:00:00	2024-11-08T14:00:00	8	Radiación solar	617
62753	7	Sololá	701	Sololá	1	Sololá	12	Diciembre	2023-04-12T00:00:00	2024-11-08T15:00:00	2	Temperatura media	23.4
62754	7	Sololá	701	Sololá	1	Sololá	12	Diciembre	2023-04-12T00:00:00	2024-11-08T15:00:00	4	Temperatura máxima	23.9
62755	7	Sololá	701	Sololá	1	Sololá	12	Diciembre	2023-04-12T00:00:00	2024-11-08T15:00:00	3	Temperatura mínima	23.1
62756	7	Sololá	701	Sololá	1	Sololá	12	Diciembre	2023-04-12T00:00:00	2024-11-08T15:00:00	5	Humedad	63
62757	7	Sololá	701	Sololá	1	Sololá	12	Diciembre	2023-04-12T00:00:00	2024-11-08T15:00:00	6	Velocidad del viento	0
62758	7	Sololá	701	Sololá	1	Sololá	12	Diciembre	2023-04-12T00:00:00	2024-11-08T15:00:00	7	Dirección del viento	0
62759	7	Sololá	701	Sololá	1	Sololá	12	Diciembre	2023-04-12T00:00:00	2024-11-08T15:00:00	1	Precipitación	0
62760	7	Sololá	701	Sololá	1	Sololá	12	Diciembre	2023-04-12T00:00:00	2024-11-08T15:00:00	8	Radiación solar	145
62761	7	Sololá	701	Sololá	1	Sololá	12	Diciembre	2023-04-12T00:00:00	2024-11-08T16:00:00	2	Temperatura media	22.6
62762	7	Sololá	701	Sololá	1	Sololá	12	Diciembre	2023-04-12T00:00:00	2024-11-08T16:00:00	4	Temperatura máxima	23.4
62763	7	Sololá	701	Sololá	1	Sololá	12	Diciembre	2023-04-12T00:00:00	2024-11-08T16:00:00	3	Temperatura mínima	22.1
62764	7	Sololá	701	Sololá	1	Sololá	12	Diciembre	2023-04-12T00:00:00	2024-11-08T16:00:00	5	Humedad	63
62765	7	Sololá	701	Sololá	1	Sololá	12	Diciembre	2023-04-12T00:00:00	2024-11-08T16:00:00	6	Velocidad del viento	0
62766	7	Sololá	701	Sololá	1	Sololá	12	Diciembre	2023-04-12T00:00:00	2024-11-08T16:00:00	7	Dirección del viento	0
62767	7	Sololá	701	Sololá	1	Sololá	12	Diciembre	2023-04-12T00:00:00	2024-11-08T16:00:00	1	Precipitación	0
62768	7	Sololá	701	Sololá	1	Sololá	12	Diciembre	2023-04-12T00:00:00	2024-11-08T16:00:00	8	Radiación solar	101
62769	7	Sololá	701	Sololá	1	Sololá	12	Diciembre	2023-04-12T00:00:00	2024-11-08T17:00:00	2	Temperatura media	21.2
62770	7	Sololá	701	Sololá	1	Sololá	12	Diciembre	2023-04-12T00:00:00	2024-11-08T17:00:00	4	Temperatura máxima	22.7
62771	7	Sololá	701	Sololá	1	Sololá	12	Diciembre	2023-04-12T00:00:00	2024-11-08T17:00:00	3	Temperatura mínima	21.2
62772	7	Sololá	701	Sololá	1	Sololá	12	Diciembre	2023-04-12T00:00:00	2024-11-08T17:00:00	5	Humedad	66
62773	7	Sololá	701	Sololá	1	Sololá	12	Diciembre	2023-04-12T00:00:00	2024-11-08T17:00:00	6	Velocidad del viento	0
62774	7	Sololá	701	Sololá	1	Sololá	12	Diciembre	2023-04-12T00:00:00	2024-11-08T17:00:00	7	Dirección del viento	0
62775	7	Sololá	701	Sololá	1	Sololá	12	Diciembre	2023-04-12T00:00:00	2024-11-08T17:00:00	1	Precipitación	0
62776	7	Sololá	701	Sololá	1	Sololá	12	Diciembre	2023-04-12T00:00:00	2024-11-08T17:00:00	8	Radiación solar	92
62777	7	Sololá	701	Sololá	1	Sololá	12	Diciembre	2023-04-12T00:00:00	2024-11-08T18:00:00	2	Temperatura media	18.1
62778	7	Sololá	701	Sololá	1	Sololá	12	Diciembre	2023-04-12T00:00:00	2024-11-08T18:00:00	4	Temperatura máxima	21.2
62779	7	Sololá	701	Sololá	1	Sololá	12	Diciembre	2023-04-12T00:00:00	2024-11-08T18:00:00	3	Temperatura mínima	18.1
62780	7	Sololá	701	Sololá	1	Sololá	12	Diciembre	2023-04-12T00:00:00	2024-11-08T18:00:00	5	Humedad	76
62781	7	Sololá	701	Sololá	1	Sololá	12	Diciembre	2023-04-12T00:00:00	2024-11-08T18:00:00	6	Velocidad del viento	0
62782	7	Sololá	701	Sololá	1	Sololá	12	Diciembre	2023-04-12T00:00:00	2024-11-08T18:00:00	7	Dirección del viento	0
62783	7	Sololá	701	Sololá	1	Sololá	12	Diciembre	2023-04-12T00:00:00	2024-11-08T18:00:00	1	Precipitación	0
62784	7	Sololá	701	Sololá	1	Sololá	12	Diciembre	2023-04-12T00:00:00	2024-11-08T18:00:00	8	Radiación solar	8
62785	7	Sololá	701	Sololá	1	Sololá	12	Diciembre	2023-04-12T00:00:00	2024-11-08T19:00:00	2	Temperatura media	17.4
62786	7	Sololá	701	Sololá	1	Sololá	12	Diciembre	2023-04-12T00:00:00	2024-11-08T19:00:00	4	Temperatura máxima	18.2
62787	7	Sololá	701	Sololá	1	Sololá	12	Diciembre	2023-04-12T00:00:00	2024-11-08T19:00:00	3	Temperatura mínima	17.4
62788	7	Sololá	701	Sololá	1	Sololá	12	Diciembre	2023-04-12T00:00:00	2024-11-08T19:00:00	5	Humedad	79
62789	7	Sololá	701	Sololá	1	Sololá	12	Diciembre	2023-04-12T00:00:00	2024-11-08T19:00:00	6	Velocidad del viento	0
62790	7	Sololá	701	Sololá	1	Sololá	12	Diciembre	2023-04-12T00:00:00	2024-11-08T19:00:00	7	Dirección del viento	0
62791	7	Sololá	701	Sololá	1	Sololá	12	Diciembre	2023-04-12T00:00:00	2024-11-08T19:00:00	1	Precipitación	0
62792	7	Sololá	701	Sololá	1	Sololá	12	Diciembre	2023-04-12T00:00:00	2024-11-08T19:00:00	8	Radiación solar	0
62793	7	Sololá	701	Sololá	1	Sololá	12	Diciembre	2023-04-12T00:00:00	2024-11-08T20:00:00	2	Temperatura media	16.8
62794	7	Sololá	701	Sololá	1	Sololá	12	Diciembre	2023-04-12T00:00:00	2024-11-08T20:00:00	4	Temperatura máxima	17.4
62795	7	Sololá	701	Sololá	1	Sololá	12	Diciembre	2023-04-12T00:00:00	2024-11-08T20:00:00	3	Temperatura mínima	16.8
62796	7	Sololá	701	Sololá	1	Sololá	12	Diciembre	2023-04-12T00:00:00	2024-11-08T20:00:00	5	Humedad	81
62797	7	Sololá	701	Sololá	1	Sololá	12	Diciembre	2023-04-12T00:00:00	2024-11-08T20:00:00	6	Velocidad del viento	0
62798	7	Sololá	701	Sololá	1	Sololá	12	Diciembre	2023-04-12T00:00:00	2024-11-08T20:00:00	7	Dirección del viento	0
62799	7	Sololá	701	Sololá	1	Sololá	12	Diciembre	2023-04-12T00:00:00	2024-11-08T20:00:00	1	Precipitación	0
62800	7	Sololá	701	Sololá	1	Sololá	12	Diciembre	2023-04-12T00:00:00	2024-11-08T20:00:00	8	Radiación solar	0
62801	7	Sololá	701	Sololá	1	Sololá	12	Diciembre	2023-04-12T00:00:00	2024-11-08T21:00:00	2	Temperatura media	16.6
62802	7	Sololá	701	Sololá	1	Sololá	12	Diciembre	2023-04-12T00:00:00	2024-11-08T21:00:00	4	Temperatura máxima	16.9
62803	7	Sololá	701	Sololá	1	Sololá	12	Diciembre	2023-04-12T00:00:00	2024-11-08T21:00:00	3	Temperatura mínima	16.6
62804	7	Sololá	701	Sololá	1	Sololá	12	Diciembre	2023-04-12T00:00:00	2024-11-08T21:00:00	5	Humedad	84
62805	7	Sololá	701	Sololá	1	Sololá	12	Diciembre	2023-04-12T00:00:00	2024-11-08T21:00:00	6	Velocidad del viento	0
62806	7	Sololá	701	Sololá	1	Sololá	12	Diciembre	2023-04-12T00:00:00	2024-11-08T21:00:00	7	Dirección del viento	0
62807	7	Sololá	701	Sololá	1	Sololá	12	Diciembre	2023-04-12T00:00:00	2024-11-08T21:00:00	1	Precipitación	0
62808	7	Sololá	701	Sololá	1	Sololá	12	Diciembre	2023-04-12T00:00:00	2024-11-08T21:00:00	8	Radiación solar	0
62809	7	Sololá	701	Sololá	1	Sololá	12	Diciembre	2023-04-12T00:00:00	2024-11-08T22:00:00	2	Temperatura media	16.1
62810	7	Sololá	701	Sololá	1	Sololá	12	Diciembre	2023-04-12T00:00:00	2024-11-08T22:00:00	4	Temperatura máxima	16.7
62811	7	Sololá	701	Sololá	1	Sololá	12	Diciembre	2023-04-12T00:00:00	2024-11-08T22:00:00	3	Temperatura mínima	16.1
62812	7	Sololá	701	Sololá	1	Sololá	12	Diciembre	2023-04-12T00:00:00	2024-11-08T22:00:00	5	Humedad	86
62813	7	Sololá	701	Sololá	1	Sololá	12	Diciembre	2023-04-12T00:00:00	2024-11-08T22:00:00	6	Velocidad del viento	0
62814	7	Sololá	701	Sololá	1	Sololá	12	Diciembre	2023-04-12T00:00:00	2024-11-08T22:00:00	7	Dirección del viento	0
62815	7	Sololá	701	Sololá	1	Sololá	12	Diciembre	2023-04-12T00:00:00	2024-11-08T22:00:00	1	Precipitación	0
62816	7	Sololá	701	Sololá	1	Sololá	12	Diciembre	2023-04-12T00:00:00	2024-11-08T22:00:00	8	Radiación solar	0
62817	7	Sololá	701	Sololá	1	Sololá	12	Diciembre	2023-04-12T00:00:00	2024-11-08T23:00:00	2	Temperatura media	16.1
62818	7	Sololá	701	Sololá	1	Sololá	12	Diciembre	2023-04-12T00:00:00	2024-11-08T23:00:00	4	Temperatura máxima	16.1
62819	7	Sololá	701	Sololá	1	Sololá	12	Diciembre	2023-04-12T00:00:00	2024-11-08T23:00:00	3	Temperatura mínima	15.9
62820	7	Sololá	701	Sololá	1	Sololá	12	Diciembre	2023-04-12T00:00:00	2024-11-08T23:00:00	5	Humedad	86
62821	7	Sololá	701	Sololá	1	Sololá	12	Diciembre	2023-04-12T00:00:00	2024-11-08T23:00:00	6	Velocidad del viento	0
62822	7	Sololá	701	Sololá	1	Sololá	12	Diciembre	2023-04-12T00:00:00	2024-11-08T23:00:00	7	Dirección del viento	0
62823	7	Sololá	701	Sololá	1	Sololá	12	Diciembre	2023-04-12T00:00:00	2024-11-08T23:00:00	1	Precipitación	0
62824	7	Sololá	701	Sololá	1	Sololá	12	Diciembre	2023-04-12T00:00:00	2024-11-08T23:00:00	8	Radiación solar	0
62825	7	Sololá	701	Sololá	1	Sololá	12	Diciembre	2023-05-12T00:00:00	2024-11-08T00:00:00	2	Temperatura media	16.2
62826	7	Sololá	701	Sololá	1	Sololá	12	Diciembre	2023-05-12T00:00:00	2024-11-08T00:00:00	4	Temperatura máxima	16.4
62827	7	Sololá	701	Sololá	1	Sololá	12	Diciembre	2023-05-12T00:00:00	2024-11-08T00:00:00	3	Temperatura mínima	16.1
62828	7	Sololá	701	Sololá	1	Sololá	12	Diciembre	2023-05-12T00:00:00	2024-11-08T00:00:00	5	Humedad	86
62829	7	Sololá	701	Sololá	1	Sololá	12	Diciembre	2023-05-12T00:00:00	2024-11-08T00:00:00	6	Velocidad del viento	0
62830	7	Sololá	701	Sololá	1	Sololá	12	Diciembre	2023-05-12T00:00:00	2024-11-08T00:00:00	7	Dirección del viento	0
62831	7	Sololá	701	Sololá	1	Sololá	12	Diciembre	2023-05-12T00:00:00	2024-11-08T00:00:00	1	Precipitación	0
62832	7	Sololá	701	Sololá	1	Sololá	12	Diciembre	2023-05-12T00:00:00	2024-11-08T00:00:00	8	Radiación solar	0
62833	7	Sololá	701	Sololá	1	Sololá	12	Diciembre	2023-05-12T00:00:00	2024-11-08T01:00:00	2	Temperatura media	15.4
62834	7	Sololá	701	Sololá	1	Sololá	12	Diciembre	2023-05-12T00:00:00	2024-11-08T01:00:00	4	Temperatura máxima	16.2
62835	7	Sololá	701	Sololá	1	Sololá	12	Diciembre	2023-05-12T00:00:00	2024-11-08T01:00:00	3	Temperatura mínima	15.3
62836	7	Sololá	701	Sololá	1	Sololá	12	Diciembre	2023-05-12T00:00:00	2024-11-08T01:00:00	5	Humedad	90
62837	7	Sololá	701	Sololá	1	Sololá	12	Diciembre	2023-05-12T00:00:00	2024-11-08T01:00:00	6	Velocidad del viento	0
62838	7	Sololá	701	Sololá	1	Sololá	12	Diciembre	2023-05-12T00:00:00	2024-11-08T01:00:00	7	Dirección del viento	0
62839	7	Sololá	701	Sololá	1	Sololá	12	Diciembre	2023-05-12T00:00:00	2024-11-08T01:00:00	1	Precipitación	0
62840	7	Sololá	701	Sololá	1	Sololá	12	Diciembre	2023-05-12T00:00:00	2024-11-08T01:00:00	8	Radiación solar	0
62841	7	Sololá	701	Sololá	1	Sololá	12	Diciembre	2023-05-12T00:00:00	2024-11-08T02:00:00	2	Temperatura media	14.6
62842	7	Sololá	701	Sololá	1	Sololá	12	Diciembre	2023-05-12T00:00:00	2024-11-08T02:00:00	4	Temperatura máxima	15.4
62843	7	Sololá	701	Sololá	1	Sololá	12	Diciembre	2023-05-12T00:00:00	2024-11-08T02:00:00	3	Temperatura mínima	14.6
62844	7	Sololá	701	Sololá	1	Sololá	12	Diciembre	2023-05-12T00:00:00	2024-11-08T02:00:00	5	Humedad	91
62845	7	Sololá	701	Sololá	1	Sololá	12	Diciembre	2023-05-12T00:00:00	2024-11-08T02:00:00	6	Velocidad del viento	0
62846	7	Sololá	701	Sololá	1	Sololá	12	Diciembre	2023-05-12T00:00:00	2024-11-08T02:00:00	7	Dirección del viento	0
62847	7	Sololá	701	Sololá	1	Sololá	12	Diciembre	2023-05-12T00:00:00	2024-11-08T02:00:00	1	Precipitación	0
62848	7	Sololá	701	Sololá	1	Sololá	12	Diciembre	2023-05-12T00:00:00	2024-11-08T02:00:00	8	Radiación solar	0
62849	7	Sololá	701	Sololá	1	Sololá	12	Diciembre	2023-05-12T00:00:00	2024-11-08T03:00:00	2	Temperatura media	14.4
62850	7	Sololá	701	Sololá	1	Sololá	12	Diciembre	2023-05-12T00:00:00	2024-11-08T03:00:00	4	Temperatura máxima	14.6
62851	7	Sololá	701	Sololá	1	Sololá	12	Diciembre	2023-05-12T00:00:00	2024-11-08T03:00:00	3	Temperatura mínima	14.4
62852	7	Sololá	701	Sololá	1	Sololá	12	Diciembre	2023-05-12T00:00:00	2024-11-08T03:00:00	5	Humedad	90
62853	7	Sololá	701	Sololá	1	Sololá	12	Diciembre	2023-05-12T00:00:00	2024-11-08T03:00:00	6	Velocidad del viento	0
62854	7	Sololá	701	Sololá	1	Sololá	12	Diciembre	2023-05-12T00:00:00	2024-11-08T03:00:00	7	Dirección del viento	0
62855	7	Sololá	701	Sololá	1	Sololá	12	Diciembre	2023-05-12T00:00:00	2024-11-08T03:00:00	1	Precipitación	0
62856	7	Sololá	701	Sololá	1	Sololá	12	Diciembre	2023-05-12T00:00:00	2024-11-08T03:00:00	8	Radiación solar	0
62857	7	Sololá	701	Sololá	1	Sololá	12	Diciembre	2023-05-12T00:00:00	2024-11-08T04:00:00	2	Temperatura media	14.2
62858	7	Sololá	701	Sololá	1	Sololá	12	Diciembre	2023-05-12T00:00:00	2024-11-08T04:00:00	4	Temperatura máxima	14.4
62859	7	Sololá	701	Sololá	1	Sololá	12	Diciembre	2023-05-12T00:00:00	2024-11-08T04:00:00	3	Temperatura mínima	14.2
62860	7	Sololá	701	Sololá	1	Sololá	12	Diciembre	2023-05-12T00:00:00	2024-11-08T04:00:00	5	Humedad	90
62861	7	Sololá	701	Sololá	1	Sololá	12	Diciembre	2023-05-12T00:00:00	2024-11-08T04:00:00	6	Velocidad del viento	0
62862	7	Sololá	701	Sololá	1	Sololá	12	Diciembre	2023-05-12T00:00:00	2024-11-08T04:00:00	7	Dirección del viento	0
62863	7	Sololá	701	Sololá	1	Sololá	12	Diciembre	2023-05-12T00:00:00	2024-11-08T04:00:00	1	Precipitación	0
62864	7	Sololá	701	Sololá	1	Sololá	12	Diciembre	2023-05-12T00:00:00	2024-11-08T04:00:00	8	Radiación solar	0
62865	7	Sololá	701	Sololá	1	Sololá	12	Diciembre	2023-05-12T00:00:00	2024-11-08T05:00:00	2	Temperatura media	13.9
62866	7	Sololá	701	Sololá	1	Sololá	12	Diciembre	2023-05-12T00:00:00	2024-11-08T05:00:00	4	Temperatura máxima	14.2
62867	7	Sololá	701	Sololá	1	Sololá	12	Diciembre	2023-05-12T00:00:00	2024-11-08T05:00:00	3	Temperatura mínima	13.8
62868	7	Sololá	701	Sololá	1	Sololá	12	Diciembre	2023-05-12T00:00:00	2024-11-08T05:00:00	5	Humedad	92
62869	7	Sololá	701	Sololá	1	Sololá	12	Diciembre	2023-05-12T00:00:00	2024-11-08T05:00:00	6	Velocidad del viento	0
62870	7	Sololá	701	Sololá	1	Sololá	12	Diciembre	2023-05-12T00:00:00	2024-11-08T05:00:00	7	Dirección del viento	0
62871	7	Sololá	701	Sololá	1	Sololá	12	Diciembre	2023-05-12T00:00:00	2024-11-08T05:00:00	1	Precipitación	0
62872	7	Sololá	701	Sololá	1	Sololá	12	Diciembre	2023-05-12T00:00:00	2024-11-08T05:00:00	8	Radiación solar	0
62873	7	Sololá	701	Sololá	1	Sololá	12	Diciembre	2023-05-12T00:00:00	2024-11-08T06:00:00	2	Temperatura media	14.4
62874	7	Sololá	701	Sololá	1	Sololá	12	Diciembre	2023-05-12T00:00:00	2024-11-08T06:00:00	4	Temperatura máxima	14.4
62875	7	Sololá	701	Sololá	1	Sololá	12	Diciembre	2023-05-12T00:00:00	2024-11-08T06:00:00	3	Temperatura mínima	13.9
62876	7	Sololá	701	Sololá	1	Sololá	12	Diciembre	2023-05-12T00:00:00	2024-11-08T06:00:00	5	Humedad	91
62877	7	Sololá	701	Sololá	1	Sololá	12	Diciembre	2023-05-12T00:00:00	2024-11-08T06:00:00	6	Velocidad del viento	0
62878	7	Sololá	701	Sololá	1	Sololá	12	Diciembre	2023-05-12T00:00:00	2024-11-08T06:00:00	7	Dirección del viento	0
62879	7	Sololá	701	Sololá	1	Sololá	12	Diciembre	2023-05-12T00:00:00	2024-11-08T06:00:00	1	Precipitación	0
62880	7	Sololá	701	Sololá	1	Sololá	12	Diciembre	2023-05-12T00:00:00	2024-11-08T06:00:00	8	Radiación solar	0
62881	7	Sololá	701	Sololá	1	Sololá	12	Diciembre	2023-05-12T00:00:00	2024-11-08T07:00:00	2	Temperatura media	14.7
62882	7	Sololá	701	Sololá	1	Sololá	12	Diciembre	2023-05-12T00:00:00	2024-11-08T07:00:00	4	Temperatura máxima	14.8
62883	7	Sololá	701	Sololá	1	Sololá	12	Diciembre	2023-05-12T00:00:00	2024-11-08T07:00:00	3	Temperatura mínima	14.4
62884	7	Sololá	701	Sololá	1	Sololá	12	Diciembre	2023-05-12T00:00:00	2024-11-08T07:00:00	5	Humedad	90
62885	7	Sololá	701	Sololá	1	Sololá	12	Diciembre	2023-05-12T00:00:00	2024-11-08T07:00:00	6	Velocidad del viento	0
62886	7	Sololá	701	Sololá	1	Sololá	12	Diciembre	2023-05-12T00:00:00	2024-11-08T07:00:00	7	Dirección del viento	0
62887	7	Sololá	701	Sololá	1	Sololá	12	Diciembre	2023-05-12T00:00:00	2024-11-08T07:00:00	1	Precipitación	0
62888	7	Sololá	701	Sololá	1	Sololá	12	Diciembre	2023-05-12T00:00:00	2024-11-08T07:00:00	8	Radiación solar	8
62889	7	Sololá	701	Sololá	1	Sololá	12	Diciembre	2023-05-12T00:00:00	2024-11-08T08:00:00	2	Temperatura media	16.9
62890	7	Sololá	701	Sololá	1	Sololá	12	Diciembre	2023-05-12T00:00:00	2024-11-08T08:00:00	4	Temperatura máxima	16.9
62891	7	Sololá	701	Sololá	1	Sololá	12	Diciembre	2023-05-12T00:00:00	2024-11-08T08:00:00	3	Temperatura mínima	14.7
62892	7	Sololá	701	Sololá	1	Sololá	12	Diciembre	2023-05-12T00:00:00	2024-11-08T08:00:00	5	Humedad	85
62893	7	Sololá	701	Sololá	1	Sololá	12	Diciembre	2023-05-12T00:00:00	2024-11-08T08:00:00	6	Velocidad del viento	0
62894	7	Sololá	701	Sololá	1	Sololá	12	Diciembre	2023-05-12T00:00:00	2024-11-08T08:00:00	7	Dirección del viento	0
62895	7	Sololá	701	Sololá	1	Sololá	12	Diciembre	2023-05-12T00:00:00	2024-11-08T08:00:00	1	Precipitación	0
62896	7	Sololá	701	Sololá	1	Sololá	12	Diciembre	2023-05-12T00:00:00	2024-11-08T08:00:00	8	Radiación solar	99
62897	7	Sololá	701	Sololá	1	Sololá	12	Diciembre	2023-05-12T00:00:00	2024-11-08T09:00:00	2	Temperatura media	20.7
62898	7	Sololá	701	Sololá	1	Sololá	12	Diciembre	2023-05-12T00:00:00	2024-11-08T09:00:00	4	Temperatura máxima	20.7
62899	7	Sololá	701	Sololá	1	Sololá	12	Diciembre	2023-05-12T00:00:00	2024-11-08T09:00:00	3	Temperatura mínima	16.9
62900	7	Sololá	701	Sololá	1	Sololá	12	Diciembre	2023-05-12T00:00:00	2024-11-08T09:00:00	5	Humedad	74
62901	7	Sololá	701	Sololá	1	Sololá	12	Diciembre	2023-05-12T00:00:00	2024-11-08T09:00:00	6	Velocidad del viento	0
62902	7	Sololá	701	Sololá	1	Sololá	12	Diciembre	2023-05-12T00:00:00	2024-11-08T09:00:00	7	Dirección del viento	0
62903	7	Sololá	701	Sololá	1	Sololá	12	Diciembre	2023-05-12T00:00:00	2024-11-08T09:00:00	1	Precipitación	0
62904	7	Sololá	701	Sololá	1	Sololá	12	Diciembre	2023-05-12T00:00:00	2024-11-08T09:00:00	8	Radiación solar	528
62905	7	Sololá	701	Sololá	1	Sololá	12	Diciembre	2023-05-12T00:00:00	2024-11-08T10:00:00	2	Temperatura media	21
62906	7	Sololá	701	Sololá	1	Sololá	12	Diciembre	2023-05-12T00:00:00	2024-11-08T10:00:00	4	Temperatura máxima	21.5
62907	7	Sololá	701	Sololá	1	Sololá	12	Diciembre	2023-05-12T00:00:00	2024-11-08T10:00:00	3	Temperatura mínima	20.7
62908	7	Sololá	701	Sololá	1	Sololá	12	Diciembre	2023-05-12T00:00:00	2024-11-08T10:00:00	5	Humedad	71
62909	7	Sololá	701	Sololá	1	Sololá	12	Diciembre	2023-05-12T00:00:00	2024-11-08T10:00:00	6	Velocidad del viento	0
62910	7	Sololá	701	Sololá	1	Sololá	12	Diciembre	2023-05-12T00:00:00	2024-11-08T10:00:00	7	Dirección del viento	0
62911	7	Sololá	701	Sololá	1	Sololá	12	Diciembre	2023-05-12T00:00:00	2024-11-08T10:00:00	1	Precipitación	0
62912	7	Sololá	701	Sololá	1	Sololá	12	Diciembre	2023-05-12T00:00:00	2024-11-08T10:00:00	8	Radiación solar	537
62913	7	Sololá	701	Sololá	1	Sololá	12	Diciembre	2023-05-12T00:00:00	2024-11-08T11:00:00	2	Temperatura media	23.7
62914	7	Sololá	701	Sololá	1	Sololá	12	Diciembre	2023-05-12T00:00:00	2024-11-08T11:00:00	4	Temperatura máxima	23.8
62915	7	Sololá	701	Sololá	1	Sololá	12	Diciembre	2023-05-12T00:00:00	2024-11-08T11:00:00	3	Temperatura mínima	21
62916	7	Sololá	701	Sololá	1	Sololá	12	Diciembre	2023-05-12T00:00:00	2024-11-08T11:00:00	5	Humedad	63
62917	7	Sololá	701	Sololá	1	Sololá	12	Diciembre	2023-05-12T00:00:00	2024-11-08T11:00:00	6	Velocidad del viento	0
62918	7	Sololá	701	Sololá	1	Sololá	12	Diciembre	2023-05-12T00:00:00	2024-11-08T11:00:00	7	Dirección del viento	0
62919	7	Sololá	701	Sololá	1	Sololá	12	Diciembre	2023-05-12T00:00:00	2024-11-08T11:00:00	1	Precipitación	0
62920	7	Sololá	701	Sololá	1	Sololá	12	Diciembre	2023-05-12T00:00:00	2024-11-08T11:00:00	8	Radiación solar	870
62921	7	Sololá	701	Sololá	1	Sololá	12	Diciembre	2023-05-12T00:00:00	2024-11-08T12:00:00	2	Temperatura media	23
62922	7	Sololá	701	Sololá	1	Sololá	12	Diciembre	2023-05-12T00:00:00	2024-11-08T12:00:00	4	Temperatura máxima	23.8
62923	7	Sololá	701	Sololá	1	Sololá	12	Diciembre	2023-05-12T00:00:00	2024-11-08T12:00:00	3	Temperatura mínima	23
62924	7	Sololá	701	Sololá	1	Sololá	12	Diciembre	2023-05-12T00:00:00	2024-11-08T12:00:00	5	Humedad	64
62925	7	Sololá	701	Sololá	1	Sololá	12	Diciembre	2023-05-12T00:00:00	2024-11-08T12:00:00	6	Velocidad del viento	0
62926	7	Sololá	701	Sololá	1	Sololá	12	Diciembre	2023-05-12T00:00:00	2024-11-08T12:00:00	7	Dirección del viento	0
62927	7	Sololá	701	Sololá	1	Sololá	12	Diciembre	2023-05-12T00:00:00	2024-11-08T12:00:00	1	Precipitación	0
62928	7	Sololá	701	Sololá	1	Sololá	12	Diciembre	2023-05-12T00:00:00	2024-11-08T12:00:00	8	Radiación solar	857
62929	7	Sololá	701	Sololá	1	Sololá	12	Diciembre	2023-05-12T00:00:00	2024-11-08T13:00:00	2	Temperatura media	23.3
62930	7	Sololá	701	Sololá	1	Sololá	12	Diciembre	2023-05-12T00:00:00	2024-11-08T13:00:00	4	Temperatura máxima	23.3
62931	7	Sololá	701	Sololá	1	Sololá	12	Diciembre	2023-05-12T00:00:00	2024-11-08T13:00:00	3	Temperatura mínima	21.9
62932	7	Sololá	701	Sololá	1	Sololá	12	Diciembre	2023-05-12T00:00:00	2024-11-08T13:00:00	5	Humedad	59
62933	7	Sololá	701	Sololá	1	Sololá	12	Diciembre	2023-05-12T00:00:00	2024-11-08T13:00:00	6	Velocidad del viento	0
62934	7	Sololá	701	Sololá	1	Sololá	12	Diciembre	2023-05-12T00:00:00	2024-11-08T13:00:00	7	Dirección del viento	0
62935	7	Sololá	701	Sololá	1	Sololá	12	Diciembre	2023-05-12T00:00:00	2024-11-08T13:00:00	1	Precipitación	0
62936	7	Sololá	701	Sololá	1	Sololá	12	Diciembre	2023-05-12T00:00:00	2024-11-08T13:00:00	8	Radiación solar	698
62937	7	Sololá	701	Sololá	1	Sololá	12	Diciembre	2023-05-12T00:00:00	2024-11-08T14:00:00	2	Temperatura media	23.8
62938	7	Sololá	701	Sololá	1	Sololá	12	Diciembre	2023-05-12T00:00:00	2024-11-08T14:00:00	4	Temperatura máxima	24.1
62939	7	Sololá	701	Sololá	1	Sololá	12	Diciembre	2023-05-12T00:00:00	2024-11-08T14:00:00	3	Temperatura mínima	23.3
62940	7	Sololá	701	Sololá	1	Sololá	12	Diciembre	2023-05-12T00:00:00	2024-11-08T14:00:00	5	Humedad	55
62941	7	Sololá	701	Sololá	1	Sololá	12	Diciembre	2023-05-12T00:00:00	2024-11-08T14:00:00	6	Velocidad del viento	0
62942	7	Sololá	701	Sololá	1	Sololá	12	Diciembre	2023-05-12T00:00:00	2024-11-08T14:00:00	7	Dirección del viento	0
62943	7	Sololá	701	Sololá	1	Sololá	12	Diciembre	2023-05-12T00:00:00	2024-11-08T14:00:00	1	Precipitación	0
62944	7	Sololá	701	Sololá	1	Sololá	12	Diciembre	2023-05-12T00:00:00	2024-11-08T14:00:00	8	Radiación solar	736
62945	7	Sololá	701	Sololá	1	Sololá	12	Diciembre	2023-05-12T00:00:00	2024-11-08T15:00:00	2	Temperatura media	22.6
62946	7	Sololá	701	Sololá	1	Sololá	12	Diciembre	2023-05-12T00:00:00	2024-11-08T15:00:00	4	Temperatura máxima	23.8
62947	7	Sololá	701	Sololá	1	Sololá	12	Diciembre	2023-05-12T00:00:00	2024-11-08T15:00:00	3	Temperatura mínima	22.6
62948	7	Sololá	701	Sololá	1	Sololá	12	Diciembre	2023-05-12T00:00:00	2024-11-08T15:00:00	5	Humedad	59
62949	7	Sololá	701	Sololá	1	Sololá	12	Diciembre	2023-05-12T00:00:00	2024-11-08T15:00:00	6	Velocidad del viento	0
62950	7	Sololá	701	Sololá	1	Sololá	12	Diciembre	2023-05-12T00:00:00	2024-11-08T15:00:00	7	Dirección del viento	0
62951	7	Sololá	701	Sololá	1	Sololá	12	Diciembre	2023-05-12T00:00:00	2024-11-08T15:00:00	1	Precipitación	0
62952	7	Sololá	701	Sololá	1	Sololá	12	Diciembre	2023-05-12T00:00:00	2024-11-08T15:00:00	8	Radiación solar	130
62953	7	Sololá	701	Sololá	1	Sololá	12	Diciembre	2023-05-12T00:00:00	2024-11-08T16:00:00	2	Temperatura media	23.2
62954	7	Sololá	701	Sololá	1	Sololá	12	Diciembre	2023-05-12T00:00:00	2024-11-08T16:00:00	4	Temperatura máxima	23.3
62955	7	Sololá	701	Sololá	1	Sololá	12	Diciembre	2023-05-12T00:00:00	2024-11-08T16:00:00	3	Temperatura mínima	22.3
62956	7	Sololá	701	Sololá	1	Sololá	12	Diciembre	2023-05-12T00:00:00	2024-11-08T16:00:00	5	Humedad	56
62957	7	Sololá	701	Sololá	1	Sololá	12	Diciembre	2023-05-12T00:00:00	2024-11-08T16:00:00	6	Velocidad del viento	0
62958	7	Sololá	701	Sololá	1	Sololá	12	Diciembre	2023-05-12T00:00:00	2024-11-08T16:00:00	7	Dirección del viento	0
62959	7	Sololá	701	Sololá	1	Sololá	12	Diciembre	2023-05-12T00:00:00	2024-11-08T16:00:00	1	Precipitación	0
62960	7	Sololá	701	Sololá	1	Sololá	12	Diciembre	2023-05-12T00:00:00	2024-11-08T16:00:00	8	Radiación solar	76
62961	7	Sololá	701	Sololá	1	Sololá	12	Diciembre	2023-05-12T00:00:00	2024-11-08T17:00:00	2	Temperatura media	20.4
62962	7	Sololá	701	Sololá	1	Sololá	12	Diciembre	2023-05-12T00:00:00	2024-11-08T17:00:00	4	Temperatura máxima	23.1
62963	7	Sololá	701	Sololá	1	Sololá	12	Diciembre	2023-05-12T00:00:00	2024-11-08T17:00:00	3	Temperatura mínima	20.4
62964	7	Sololá	701	Sololá	1	Sololá	12	Diciembre	2023-05-12T00:00:00	2024-11-08T17:00:00	5	Humedad	65
62965	7	Sololá	701	Sololá	1	Sololá	12	Diciembre	2023-05-12T00:00:00	2024-11-08T17:00:00	6	Velocidad del viento	0
62966	7	Sololá	701	Sololá	1	Sololá	12	Diciembre	2023-05-12T00:00:00	2024-11-08T17:00:00	7	Dirección del viento	0
62967	7	Sololá	701	Sololá	1	Sololá	12	Diciembre	2023-05-12T00:00:00	2024-11-08T17:00:00	1	Precipitación	0
62968	7	Sololá	701	Sololá	1	Sololá	12	Diciembre	2023-05-12T00:00:00	2024-11-08T17:00:00	8	Radiación solar	80
62969	7	Sololá	701	Sololá	1	Sololá	12	Diciembre	2023-05-12T00:00:00	2024-11-08T18:00:00	2	Temperatura media	17.1
62970	7	Sololá	701	Sololá	1	Sololá	12	Diciembre	2023-05-12T00:00:00	2024-11-08T18:00:00	4	Temperatura máxima	20.4
62971	7	Sololá	701	Sololá	1	Sololá	12	Diciembre	2023-05-12T00:00:00	2024-11-08T18:00:00	3	Temperatura mínima	17.1
62972	7	Sololá	701	Sololá	1	Sololá	12	Diciembre	2023-05-12T00:00:00	2024-11-08T18:00:00	5	Humedad	74
62973	7	Sololá	701	Sololá	1	Sololá	12	Diciembre	2023-05-12T00:00:00	2024-11-08T18:00:00	6	Velocidad del viento	0
62974	7	Sololá	701	Sololá	1	Sololá	12	Diciembre	2023-05-12T00:00:00	2024-11-08T18:00:00	7	Dirección del viento	0
62975	7	Sololá	701	Sololá	1	Sololá	12	Diciembre	2023-05-12T00:00:00	2024-11-08T18:00:00	1	Precipitación	0
62976	7	Sololá	701	Sololá	1	Sololá	12	Diciembre	2023-05-12T00:00:00	2024-11-08T18:00:00	8	Radiación solar	5
62977	7	Sololá	701	Sololá	1	Sololá	12	Diciembre	2023-05-12T00:00:00	2024-11-08T19:00:00	2	Temperatura media	15.9
62978	7	Sololá	701	Sololá	1	Sololá	12	Diciembre	2023-05-12T00:00:00	2024-11-08T19:00:00	4	Temperatura máxima	17.1
62979	7	Sololá	701	Sololá	1	Sololá	12	Diciembre	2023-05-12T00:00:00	2024-11-08T19:00:00	3	Temperatura mínima	15.9
62980	7	Sololá	701	Sololá	1	Sololá	12	Diciembre	2023-05-12T00:00:00	2024-11-08T19:00:00	5	Humedad	79
62981	7	Sololá	701	Sololá	1	Sololá	12	Diciembre	2023-05-12T00:00:00	2024-11-08T19:00:00	6	Velocidad del viento	0
62982	7	Sololá	701	Sololá	1	Sololá	12	Diciembre	2023-05-12T00:00:00	2024-11-08T19:00:00	7	Dirección del viento	0
62983	7	Sololá	701	Sololá	1	Sololá	12	Diciembre	2023-05-12T00:00:00	2024-11-08T19:00:00	1	Precipitación	0
62984	7	Sololá	701	Sololá	1	Sololá	12	Diciembre	2023-05-12T00:00:00	2024-11-08T19:00:00	8	Radiación solar	0
62985	7	Sololá	701	Sololá	1	Sololá	12	Diciembre	2023-05-12T00:00:00	2024-11-08T20:00:00	2	Temperatura media	15.3
62986	7	Sololá	701	Sololá	1	Sololá	12	Diciembre	2023-05-12T00:00:00	2024-11-08T20:00:00	4	Temperatura máxima	15.9
62987	7	Sololá	701	Sololá	1	Sololá	12	Diciembre	2023-05-12T00:00:00	2024-11-08T20:00:00	3	Temperatura mínima	15.3
62988	7	Sololá	701	Sololá	1	Sololá	12	Diciembre	2023-05-12T00:00:00	2024-11-08T20:00:00	5	Humedad	81
62989	7	Sololá	701	Sololá	1	Sololá	12	Diciembre	2023-05-12T00:00:00	2024-11-08T20:00:00	6	Velocidad del viento	0
62990	7	Sololá	701	Sololá	1	Sololá	12	Diciembre	2023-05-12T00:00:00	2024-11-08T20:00:00	7	Dirección del viento	0
62991	7	Sololá	701	Sololá	1	Sololá	12	Diciembre	2023-05-12T00:00:00	2024-11-08T20:00:00	1	Precipitación	0
62992	7	Sololá	701	Sololá	1	Sololá	12	Diciembre	2023-05-12T00:00:00	2024-11-08T20:00:00	8	Radiación solar	0
62993	7	Sololá	701	Sololá	1	Sololá	12	Diciembre	2023-05-12T00:00:00	2024-11-08T21:00:00	2	Temperatura media	15.1
62994	7	Sololá	701	Sololá	1	Sololá	12	Diciembre	2023-05-12T00:00:00	2024-11-08T21:00:00	4	Temperatura máxima	15.3
62995	7	Sololá	701	Sololá	1	Sololá	12	Diciembre	2023-05-12T00:00:00	2024-11-08T21:00:00	3	Temperatura mínima	15
62996	7	Sololá	701	Sololá	1	Sololá	12	Diciembre	2023-05-12T00:00:00	2024-11-08T21:00:00	5	Humedad	84
62997	7	Sololá	701	Sololá	1	Sololá	12	Diciembre	2023-05-12T00:00:00	2024-11-08T21:00:00	6	Velocidad del viento	0
62998	7	Sololá	701	Sololá	1	Sololá	12	Diciembre	2023-05-12T00:00:00	2024-11-08T21:00:00	7	Dirección del viento	0
62999	7	Sololá	701	Sololá	1	Sololá	12	Diciembre	2023-05-12T00:00:00	2024-11-08T21:00:00	1	Precipitación	0
63000	7	Sololá	701	Sololá	1	Sololá	12	Diciembre	2023-05-12T00:00:00	2024-11-08T21:00:00	8	Radiación solar	0
63001	7	Sololá	701	Sololá	1	Sololá	12	Diciembre	2023-05-12T00:00:00	2024-11-08T22:00:00	2	Temperatura media	14.8
63002	7	Sololá	701	Sololá	1	Sololá	12	Diciembre	2023-05-12T00:00:00	2024-11-08T22:00:00	4	Temperatura máxima	15.1
63003	7	Sololá	701	Sololá	1	Sololá	12	Diciembre	2023-05-12T00:00:00	2024-11-08T22:00:00	3	Temperatura mínima	14.7
63004	7	Sololá	701	Sololá	1	Sololá	12	Diciembre	2023-05-12T00:00:00	2024-11-08T22:00:00	5	Humedad	83
63005	7	Sololá	701	Sololá	1	Sololá	12	Diciembre	2023-05-12T00:00:00	2024-11-08T22:00:00	6	Velocidad del viento	0
63006	7	Sololá	701	Sololá	1	Sololá	12	Diciembre	2023-05-12T00:00:00	2024-11-08T22:00:00	7	Dirección del viento	0
63007	7	Sololá	701	Sololá	1	Sololá	12	Diciembre	2023-05-12T00:00:00	2024-11-08T22:00:00	1	Precipitación	0
63008	7	Sololá	701	Sololá	1	Sololá	12	Diciembre	2023-05-12T00:00:00	2024-11-08T22:00:00	8	Radiación solar	0
63009	7	Sololá	701	Sololá	1	Sololá	12	Diciembre	2023-05-12T00:00:00	2024-11-08T23:00:00	2	Temperatura media	14.5
63010	7	Sololá	701	Sololá	1	Sololá	12	Diciembre	2023-05-12T00:00:00	2024-11-08T23:00:00	4	Temperatura máxima	14.8
63011	7	Sololá	701	Sololá	1	Sololá	12	Diciembre	2023-05-12T00:00:00	2024-11-08T23:00:00	3	Temperatura mínima	14.4
63012	7	Sololá	701	Sololá	1	Sololá	12	Diciembre	2023-05-12T00:00:00	2024-11-08T23:00:00	5	Humedad	79
63013	7	Sololá	701	Sololá	1	Sololá	12	Diciembre	2023-05-12T00:00:00	2024-11-08T23:00:00	6	Velocidad del viento	0
63014	7	Sololá	701	Sololá	1	Sololá	12	Diciembre	2023-05-12T00:00:00	2024-11-08T23:00:00	7	Dirección del viento	0
63015	7	Sololá	701	Sololá	1	Sololá	12	Diciembre	2023-05-12T00:00:00	2024-11-08T23:00:00	1	Precipitación	0
63016	7	Sololá	701	Sololá	1	Sololá	12	Diciembre	2023-05-12T00:00:00	2024-11-08T23:00:00	8	Radiación solar	0
63017	7	Sololá	701	Sololá	1	Sololá	12	Diciembre	2023-06-12T00:00:00	2024-11-08T00:00:00	2	Temperatura media	14.4
63018	7	Sololá	701	Sololá	1	Sololá	12	Diciembre	2023-06-12T00:00:00	2024-11-08T00:00:00	4	Temperatura máxima	14.6
63019	7	Sololá	701	Sololá	1	Sololá	12	Diciembre	2023-06-12T00:00:00	2024-11-08T00:00:00	3	Temperatura mínima	14.4
63020	7	Sololá	701	Sololá	1	Sololá	12	Diciembre	2023-06-12T00:00:00	2024-11-08T00:00:00	5	Humedad	79
63021	7	Sololá	701	Sololá	1	Sololá	12	Diciembre	2023-06-12T00:00:00	2024-11-08T00:00:00	6	Velocidad del viento	1.6
63022	7	Sololá	701	Sololá	1	Sololá	12	Diciembre	2023-06-12T00:00:00	2024-11-08T00:00:00	7	Dirección del viento	1.61
63023	7	Sololá	701	Sololá	1	Sololá	12	Diciembre	2023-06-12T00:00:00	2024-11-08T00:00:00	1	Precipitación	0
63024	7	Sololá	701	Sololá	1	Sololá	12	Diciembre	2023-06-12T00:00:00	2024-11-08T00:00:00	8	Radiación solar	0
63025	7	Sololá	701	Sololá	1	Sololá	12	Diciembre	2023-06-12T00:00:00	2024-11-08T01:00:00	2	Temperatura media	14.6
63026	7	Sololá	701	Sololá	1	Sololá	12	Diciembre	2023-06-12T00:00:00	2024-11-08T01:00:00	4	Temperatura máxima	14.6
63027	7	Sololá	701	Sololá	1	Sololá	12	Diciembre	2023-06-12T00:00:00	2024-11-08T01:00:00	3	Temperatura mínima	14.4
63028	7	Sololá	701	Sololá	1	Sololá	12	Diciembre	2023-06-12T00:00:00	2024-11-08T01:00:00	5	Humedad	82
63029	7	Sololá	701	Sololá	1	Sololá	12	Diciembre	2023-06-12T00:00:00	2024-11-08T01:00:00	6	Velocidad del viento	0
63030	7	Sololá	701	Sololá	1	Sololá	12	Diciembre	2023-06-12T00:00:00	2024-11-08T01:00:00	7	Dirección del viento	0
63031	7	Sololá	701	Sololá	1	Sololá	12	Diciembre	2023-06-12T00:00:00	2024-11-08T01:00:00	1	Precipitación	0
63032	7	Sololá	701	Sololá	1	Sololá	12	Diciembre	2023-06-12T00:00:00	2024-11-08T01:00:00	8	Radiación solar	0
63033	7	Sololá	701	Sololá	1	Sololá	12	Diciembre	2023-06-12T00:00:00	2024-11-08T02:00:00	2	Temperatura media	14.4
63034	7	Sololá	701	Sololá	1	Sololá	12	Diciembre	2023-06-12T00:00:00	2024-11-08T02:00:00	4	Temperatura máxima	14.7
63035	7	Sololá	701	Sololá	1	Sololá	12	Diciembre	2023-06-12T00:00:00	2024-11-08T02:00:00	3	Temperatura mínima	14.4
63036	7	Sololá	701	Sololá	1	Sololá	12	Diciembre	2023-06-12T00:00:00	2024-11-08T02:00:00	5	Humedad	84
63037	7	Sololá	701	Sololá	1	Sololá	12	Diciembre	2023-06-12T00:00:00	2024-11-08T02:00:00	6	Velocidad del viento	0
63038	7	Sololá	701	Sololá	1	Sololá	12	Diciembre	2023-06-12T00:00:00	2024-11-08T02:00:00	7	Dirección del viento	0
63039	7	Sololá	701	Sololá	1	Sololá	12	Diciembre	2023-06-12T00:00:00	2024-11-08T02:00:00	1	Precipitación	0
63040	7	Sololá	701	Sololá	1	Sololá	12	Diciembre	2023-06-12T00:00:00	2024-11-08T02:00:00	8	Radiación solar	0
63041	7	Sololá	701	Sololá	1	Sololá	12	Diciembre	2023-06-12T00:00:00	2024-11-08T03:00:00	2	Temperatura media	14.1
63042	7	Sololá	701	Sololá	1	Sololá	12	Diciembre	2023-06-12T00:00:00	2024-11-08T03:00:00	4	Temperatura máxima	14.4
63043	7	Sololá	701	Sololá	1	Sololá	12	Diciembre	2023-06-12T00:00:00	2024-11-08T03:00:00	3	Temperatura mínima	14.1
63044	7	Sololá	701	Sololá	1	Sololá	12	Diciembre	2023-06-12T00:00:00	2024-11-08T03:00:00	5	Humedad	86
63045	7	Sololá	701	Sololá	1	Sololá	12	Diciembre	2023-06-12T00:00:00	2024-11-08T03:00:00	6	Velocidad del viento	0
63046	7	Sololá	701	Sololá	1	Sololá	12	Diciembre	2023-06-12T00:00:00	2024-11-08T03:00:00	7	Dirección del viento	0
63047	7	Sololá	701	Sololá	1	Sololá	12	Diciembre	2023-06-12T00:00:00	2024-11-08T03:00:00	1	Precipitación	0
63048	7	Sololá	701	Sololá	1	Sololá	12	Diciembre	2023-06-12T00:00:00	2024-11-08T03:00:00	8	Radiación solar	0
63049	7	Sololá	701	Sololá	1	Sololá	12	Diciembre	2023-06-12T00:00:00	2024-11-08T04:00:00	2	Temperatura media	14
63050	7	Sololá	701	Sololá	1	Sololá	12	Diciembre	2023-06-12T00:00:00	2024-11-08T04:00:00	4	Temperatura máxima	14.3
63051	7	Sololá	701	Sololá	1	Sololá	12	Diciembre	2023-06-12T00:00:00	2024-11-08T04:00:00	3	Temperatura mínima	14
63052	7	Sololá	701	Sololá	1	Sololá	12	Diciembre	2023-06-12T00:00:00	2024-11-08T04:00:00	5	Humedad	88
63053	7	Sololá	701	Sololá	1	Sololá	12	Diciembre	2023-06-12T00:00:00	2024-11-08T04:00:00	6	Velocidad del viento	0
63054	7	Sololá	701	Sololá	1	Sololá	12	Diciembre	2023-06-12T00:00:00	2024-11-08T04:00:00	7	Dirección del viento	0
63055	7	Sololá	701	Sololá	1	Sololá	12	Diciembre	2023-06-12T00:00:00	2024-11-08T04:00:00	1	Precipitación	0
63056	7	Sololá	701	Sololá	1	Sololá	12	Diciembre	2023-06-12T00:00:00	2024-11-08T04:00:00	8	Radiación solar	0
63057	7	Sololá	701	Sololá	1	Sololá	12	Diciembre	2023-06-12T00:00:00	2024-11-08T05:00:00	2	Temperatura media	13.8
63058	7	Sololá	701	Sololá	1	Sololá	12	Diciembre	2023-06-12T00:00:00	2024-11-08T05:00:00	4	Temperatura máxima	14.1
63059	7	Sololá	701	Sololá	1	Sololá	12	Diciembre	2023-06-12T00:00:00	2024-11-08T05:00:00	3	Temperatura mínima	13.7
63060	7	Sololá	701	Sololá	1	Sololá	12	Diciembre	2023-06-12T00:00:00	2024-11-08T05:00:00	5	Humedad	89
63061	7	Sololá	701	Sololá	1	Sololá	12	Diciembre	2023-06-12T00:00:00	2024-11-08T05:00:00	6	Velocidad del viento	0
63062	7	Sololá	701	Sololá	1	Sololá	12	Diciembre	2023-06-12T00:00:00	2024-11-08T05:00:00	7	Dirección del viento	0
63063	7	Sololá	701	Sololá	1	Sololá	12	Diciembre	2023-06-12T00:00:00	2024-11-08T05:00:00	1	Precipitación	0
63064	7	Sololá	701	Sololá	1	Sololá	12	Diciembre	2023-06-12T00:00:00	2024-11-08T05:00:00	8	Radiación solar	0
63065	7	Sololá	701	Sololá	1	Sololá	12	Diciembre	2023-06-12T00:00:00	2024-11-08T06:00:00	2	Temperatura media	14
63066	7	Sololá	701	Sololá	1	Sololá	12	Diciembre	2023-06-12T00:00:00	2024-11-08T06:00:00	4	Temperatura máxima	14.2
63067	7	Sololá	701	Sololá	1	Sololá	12	Diciembre	2023-06-12T00:00:00	2024-11-08T06:00:00	3	Temperatura mínima	13.8
63068	7	Sololá	701	Sololá	1	Sololá	12	Diciembre	2023-06-12T00:00:00	2024-11-08T06:00:00	5	Humedad	87
63069	7	Sololá	701	Sololá	1	Sololá	12	Diciembre	2023-06-12T00:00:00	2024-11-08T06:00:00	6	Velocidad del viento	0
63070	7	Sololá	701	Sololá	1	Sololá	12	Diciembre	2023-06-12T00:00:00	2024-11-08T06:00:00	7	Dirección del viento	0
63071	7	Sololá	701	Sololá	1	Sololá	12	Diciembre	2023-06-12T00:00:00	2024-11-08T06:00:00	1	Precipitación	0
63072	7	Sololá	701	Sololá	1	Sololá	12	Diciembre	2023-06-12T00:00:00	2024-11-08T06:00:00	8	Radiación solar	0
63073	7	Sololá	701	Sololá	1	Sololá	12	Diciembre	2023-06-12T00:00:00	2024-11-08T07:00:00	2	Temperatura media	14.2
63074	7	Sololá	701	Sololá	1	Sololá	12	Diciembre	2023-06-12T00:00:00	2024-11-08T07:00:00	4	Temperatura máxima	14.2
63075	7	Sololá	701	Sololá	1	Sololá	12	Diciembre	2023-06-12T00:00:00	2024-11-08T07:00:00	3	Temperatura mínima	14
63076	7	Sololá	701	Sololá	1	Sololá	12	Diciembre	2023-06-12T00:00:00	2024-11-08T07:00:00	5	Humedad	86
63077	7	Sololá	701	Sololá	1	Sololá	12	Diciembre	2023-06-12T00:00:00	2024-11-08T07:00:00	6	Velocidad del viento	0
63078	7	Sololá	701	Sololá	1	Sololá	12	Diciembre	2023-06-12T00:00:00	2024-11-08T07:00:00	7	Dirección del viento	0
63079	7	Sololá	701	Sololá	1	Sololá	12	Diciembre	2023-06-12T00:00:00	2024-11-08T07:00:00	1	Precipitación	0
63080	7	Sololá	701	Sololá	1	Sololá	12	Diciembre	2023-06-12T00:00:00	2024-11-08T07:00:00	8	Radiación solar	14
63081	7	Sololá	701	Sololá	1	Sololá	12	Diciembre	2023-06-12T00:00:00	2024-11-08T08:00:00	2	Temperatura media	15.2
63082	7	Sololá	701	Sololá	1	Sololá	12	Diciembre	2023-06-12T00:00:00	2024-11-08T08:00:00	4	Temperatura máxima	15.2
63083	7	Sololá	701	Sololá	1	Sololá	12	Diciembre	2023-06-12T00:00:00	2024-11-08T08:00:00	3	Temperatura mínima	14.2
63084	7	Sololá	701	Sololá	1	Sololá	12	Diciembre	2023-06-12T00:00:00	2024-11-08T08:00:00	5	Humedad	86
63085	7	Sololá	701	Sololá	1	Sololá	12	Diciembre	2023-06-12T00:00:00	2024-11-08T08:00:00	6	Velocidad del viento	0
63086	7	Sololá	701	Sololá	1	Sololá	12	Diciembre	2023-06-12T00:00:00	2024-11-08T08:00:00	7	Dirección del viento	0
63087	7	Sololá	701	Sololá	1	Sololá	12	Diciembre	2023-06-12T00:00:00	2024-11-08T08:00:00	1	Precipitación	0
63088	7	Sololá	701	Sololá	1	Sololá	12	Diciembre	2023-06-12T00:00:00	2024-11-08T08:00:00	8	Radiación solar	83
63089	7	Sololá	701	Sololá	1	Sololá	12	Diciembre	2023-06-12T00:00:00	2024-11-08T09:00:00	2	Temperatura media	17.1
63090	7	Sololá	701	Sololá	1	Sololá	12	Diciembre	2023-06-12T00:00:00	2024-11-08T09:00:00	4	Temperatura máxima	17.1
63091	7	Sololá	701	Sololá	1	Sololá	12	Diciembre	2023-06-12T00:00:00	2024-11-08T09:00:00	3	Temperatura mínima	15.2
63092	7	Sololá	701	Sololá	1	Sololá	12	Diciembre	2023-06-12T00:00:00	2024-11-08T09:00:00	5	Humedad	78
63093	7	Sololá	701	Sololá	1	Sololá	12	Diciembre	2023-06-12T00:00:00	2024-11-08T09:00:00	6	Velocidad del viento	0
63094	7	Sololá	701	Sololá	1	Sololá	12	Diciembre	2023-06-12T00:00:00	2024-11-08T09:00:00	7	Dirección del viento	0
63095	7	Sololá	701	Sololá	1	Sololá	12	Diciembre	2023-06-12T00:00:00	2024-11-08T09:00:00	1	Precipitación	0
63096	7	Sololá	701	Sololá	1	Sololá	12	Diciembre	2023-06-12T00:00:00	2024-11-08T09:00:00	8	Radiación solar	213
63097	7	Sololá	701	Sololá	1	Sololá	12	Diciembre	2023-06-12T00:00:00	2024-11-08T10:00:00	2	Temperatura media	17.2
63098	7	Sololá	701	Sololá	1	Sololá	12	Diciembre	2023-06-12T00:00:00	2024-11-08T10:00:00	4	Temperatura máxima	17.4
63099	7	Sololá	701	Sololá	1	Sololá	12	Diciembre	2023-06-12T00:00:00	2024-11-08T10:00:00	3	Temperatura mínima	16.7
63100	7	Sololá	701	Sololá	1	Sololá	12	Diciembre	2023-06-12T00:00:00	2024-11-08T10:00:00	5	Humedad	79
63101	7	Sololá	701	Sololá	1	Sololá	12	Diciembre	2023-06-12T00:00:00	2024-11-08T10:00:00	6	Velocidad del viento	0
63102	7	Sololá	701	Sololá	1	Sololá	12	Diciembre	2023-06-12T00:00:00	2024-11-08T10:00:00	7	Dirección del viento	0
63103	7	Sololá	701	Sololá	1	Sololá	12	Diciembre	2023-06-12T00:00:00	2024-11-08T10:00:00	1	Precipitación	0
63104	7	Sololá	701	Sololá	1	Sololá	12	Diciembre	2023-06-12T00:00:00	2024-11-08T10:00:00	8	Radiación solar	209
63105	7	Sololá	701	Sololá	1	Sololá	12	Diciembre	2023-06-12T00:00:00	2024-11-08T11:00:00	2	Temperatura media	17.6
63106	7	Sololá	701	Sololá	1	Sololá	12	Diciembre	2023-06-12T00:00:00	2024-11-08T11:00:00	4	Temperatura máxima	19.1
63107	7	Sololá	701	Sololá	1	Sololá	12	Diciembre	2023-06-12T00:00:00	2024-11-08T11:00:00	3	Temperatura mínima	17.1
63108	7	Sololá	701	Sololá	1	Sololá	12	Diciembre	2023-06-12T00:00:00	2024-11-08T11:00:00	5	Humedad	77
63109	7	Sololá	701	Sololá	1	Sololá	12	Diciembre	2023-06-12T00:00:00	2024-11-08T11:00:00	6	Velocidad del viento	0
63110	7	Sololá	701	Sololá	1	Sololá	12	Diciembre	2023-06-12T00:00:00	2024-11-08T11:00:00	7	Dirección del viento	0
63111	7	Sololá	701	Sololá	1	Sololá	12	Diciembre	2023-06-12T00:00:00	2024-11-08T11:00:00	1	Precipitación	0
63112	7	Sololá	701	Sololá	1	Sololá	12	Diciembre	2023-06-12T00:00:00	2024-11-08T11:00:00	8	Radiación solar	251
63113	7	Sololá	701	Sololá	1	Sololá	12	Diciembre	2023-06-12T00:00:00	2024-11-08T12:00:00	2	Temperatura media	20.4
63114	7	Sololá	701	Sololá	1	Sololá	12	Diciembre	2023-06-12T00:00:00	2024-11-08T12:00:00	4	Temperatura máxima	20.4
63115	7	Sololá	701	Sololá	1	Sololá	12	Diciembre	2023-06-12T00:00:00	2024-11-08T12:00:00	3	Temperatura mínima	17.3
63116	7	Sololá	701	Sololá	1	Sololá	12	Diciembre	2023-06-12T00:00:00	2024-11-08T12:00:00	5	Humedad	65
63117	7	Sololá	701	Sololá	1	Sololá	12	Diciembre	2023-06-12T00:00:00	2024-11-08T12:00:00	6	Velocidad del viento	0
63118	7	Sololá	701	Sololá	1	Sololá	12	Diciembre	2023-06-12T00:00:00	2024-11-08T12:00:00	7	Dirección del viento	0
63119	7	Sololá	701	Sololá	1	Sololá	12	Diciembre	2023-06-12T00:00:00	2024-11-08T12:00:00	1	Precipitación	0
63120	7	Sololá	701	Sololá	1	Sololá	12	Diciembre	2023-06-12T00:00:00	2024-11-08T12:00:00	8	Radiación solar	657
63121	7	Sololá	701	Sololá	1	Sololá	12	Diciembre	2023-06-12T00:00:00	2024-11-08T13:00:00	2	Temperatura media	20.8
63122	7	Sololá	701	Sololá	1	Sololá	12	Diciembre	2023-06-12T00:00:00	2024-11-08T13:00:00	4	Temperatura máxima	20.8
63123	7	Sololá	701	Sololá	1	Sololá	12	Diciembre	2023-06-12T00:00:00	2024-11-08T13:00:00	3	Temperatura mínima	19.9
63124	7	Sololá	701	Sololá	1	Sololá	12	Diciembre	2023-06-12T00:00:00	2024-11-08T13:00:00	5	Humedad	61
63125	7	Sololá	701	Sololá	1	Sololá	12	Diciembre	2023-06-12T00:00:00	2024-11-08T13:00:00	6	Velocidad del viento	0
63126	7	Sololá	701	Sololá	1	Sololá	12	Diciembre	2023-06-12T00:00:00	2024-11-08T13:00:00	7	Dirección del viento	0
63127	7	Sololá	701	Sololá	1	Sololá	12	Diciembre	2023-06-12T00:00:00	2024-11-08T13:00:00	1	Precipitación	0
63128	7	Sololá	701	Sololá	1	Sololá	12	Diciembre	2023-06-12T00:00:00	2024-11-08T13:00:00	8	Radiación solar	733
63129	7	Sololá	701	Sololá	1	Sololá	12	Diciembre	2023-06-12T00:00:00	2024-11-08T14:00:00	2	Temperatura media	18.3
63130	7	Sololá	701	Sololá	1	Sololá	12	Diciembre	2023-06-12T00:00:00	2024-11-08T14:00:00	4	Temperatura máxima	21.1
63131	7	Sololá	701	Sololá	1	Sololá	12	Diciembre	2023-06-12T00:00:00	2024-11-08T14:00:00	3	Temperatura mínima	18.3
63132	7	Sololá	701	Sololá	1	Sololá	12	Diciembre	2023-06-12T00:00:00	2024-11-08T14:00:00	5	Humedad	65
63133	7	Sololá	701	Sololá	1	Sololá	12	Diciembre	2023-06-12T00:00:00	2024-11-08T14:00:00	6	Velocidad del viento	0
63134	7	Sololá	701	Sololá	1	Sololá	12	Diciembre	2023-06-12T00:00:00	2024-11-08T14:00:00	7	Dirección del viento	0
63135	7	Sololá	701	Sololá	1	Sololá	12	Diciembre	2023-06-12T00:00:00	2024-11-08T14:00:00	1	Precipitación	0
63136	7	Sololá	701	Sololá	1	Sololá	12	Diciembre	2023-06-12T00:00:00	2024-11-08T14:00:00	8	Radiación solar	178
63137	7	Sololá	701	Sololá	1	Sololá	12	Diciembre	2023-06-12T00:00:00	2024-11-08T15:00:00	2	Temperatura media	19.3
63138	7	Sololá	701	Sololá	1	Sololá	12	Diciembre	2023-06-12T00:00:00	2024-11-08T15:00:00	4	Temperatura máxima	19.4
63139	7	Sololá	701	Sololá	1	Sololá	12	Diciembre	2023-06-12T00:00:00	2024-11-08T15:00:00	3	Temperatura mínima	17.9
63140	7	Sololá	701	Sololá	1	Sololá	12	Diciembre	2023-06-12T00:00:00	2024-11-08T15:00:00	5	Humedad	65
63141	7	Sololá	701	Sololá	1	Sololá	12	Diciembre	2023-06-12T00:00:00	2024-11-08T15:00:00	6	Velocidad del viento	0
63142	7	Sololá	701	Sololá	1	Sololá	12	Diciembre	2023-06-12T00:00:00	2024-11-08T15:00:00	7	Dirección del viento	0
63143	7	Sololá	701	Sololá	1	Sololá	12	Diciembre	2023-06-12T00:00:00	2024-11-08T15:00:00	1	Precipitación	0
63144	7	Sololá	701	Sololá	1	Sololá	12	Diciembre	2023-06-12T00:00:00	2024-11-08T15:00:00	8	Radiación solar	106
63145	7	Sololá	701	Sololá	1	Sololá	12	Diciembre	2023-06-12T00:00:00	2024-11-08T16:00:00	2	Temperatura media	17.9
63146	7	Sololá	701	Sololá	1	Sololá	12	Diciembre	2023-06-12T00:00:00	2024-11-08T16:00:00	4	Temperatura máxima	19.7
63147	7	Sololá	701	Sololá	1	Sololá	12	Diciembre	2023-06-12T00:00:00	2024-11-08T16:00:00	3	Temperatura mínima	17.9
63148	7	Sololá	701	Sololá	1	Sololá	12	Diciembre	2023-06-12T00:00:00	2024-11-08T16:00:00	5	Humedad	65
63149	7	Sololá	701	Sololá	1	Sololá	12	Diciembre	2023-06-12T00:00:00	2024-11-08T16:00:00	6	Velocidad del viento	0
63150	7	Sololá	701	Sololá	1	Sololá	12	Diciembre	2023-06-12T00:00:00	2024-11-08T16:00:00	7	Dirección del viento	0
63151	7	Sololá	701	Sololá	1	Sololá	12	Diciembre	2023-06-12T00:00:00	2024-11-08T16:00:00	1	Precipitación	0
63152	7	Sololá	701	Sololá	1	Sololá	12	Diciembre	2023-06-12T00:00:00	2024-11-08T16:00:00	8	Radiación solar	55
63153	7	Sololá	701	Sololá	1	Sololá	12	Diciembre	2023-06-12T00:00:00	2024-11-08T17:00:00	2	Temperatura media	16.1
63154	7	Sololá	701	Sololá	1	Sololá	12	Diciembre	2023-06-12T00:00:00	2024-11-08T17:00:00	4	Temperatura máxima	17.9
63155	7	Sololá	701	Sololá	1	Sololá	12	Diciembre	2023-06-12T00:00:00	2024-11-08T17:00:00	3	Temperatura mínima	16.1
63156	7	Sololá	701	Sololá	1	Sololá	12	Diciembre	2023-06-12T00:00:00	2024-11-08T17:00:00	5	Humedad	72
63157	7	Sololá	701	Sololá	1	Sololá	12	Diciembre	2023-06-12T00:00:00	2024-11-08T17:00:00	6	Velocidad del viento	0
63158	7	Sololá	701	Sololá	1	Sololá	12	Diciembre	2023-06-12T00:00:00	2024-11-08T17:00:00	7	Dirección del viento	0
63159	7	Sololá	701	Sololá	1	Sololá	12	Diciembre	2023-06-12T00:00:00	2024-11-08T17:00:00	1	Precipitación	0
63160	7	Sololá	701	Sololá	1	Sololá	12	Diciembre	2023-06-12T00:00:00	2024-11-08T17:00:00	8	Radiación solar	29
63161	7	Sololá	701	Sololá	1	Sololá	12	Diciembre	2023-06-12T00:00:00	2024-11-08T18:00:00	2	Temperatura media	14.7
63162	7	Sololá	701	Sololá	1	Sololá	12	Diciembre	2023-06-12T00:00:00	2024-11-08T18:00:00	4	Temperatura máxima	16.1
63163	7	Sololá	701	Sololá	1	Sololá	12	Diciembre	2023-06-12T00:00:00	2024-11-08T18:00:00	3	Temperatura mínima	14.7
63164	7	Sololá	701	Sololá	1	Sololá	12	Diciembre	2023-06-12T00:00:00	2024-11-08T18:00:00	5	Humedad	76
63165	7	Sololá	701	Sololá	1	Sololá	12	Diciembre	2023-06-12T00:00:00	2024-11-08T18:00:00	6	Velocidad del viento	0
63166	7	Sololá	701	Sololá	1	Sololá	12	Diciembre	2023-06-12T00:00:00	2024-11-08T18:00:00	7	Dirección del viento	0
63167	7	Sololá	701	Sololá	1	Sololá	12	Diciembre	2023-06-12T00:00:00	2024-11-08T18:00:00	1	Precipitación	0
63168	7	Sololá	701	Sololá	1	Sololá	12	Diciembre	2023-06-12T00:00:00	2024-11-08T18:00:00	8	Radiación solar	10
63169	7	Sololá	701	Sololá	1	Sololá	12	Diciembre	2023-06-12T00:00:00	2024-11-08T19:00:00	2	Temperatura media	13.9
63170	7	Sololá	701	Sololá	1	Sololá	12	Diciembre	2023-06-12T00:00:00	2024-11-08T19:00:00	4	Temperatura máxima	14.7
63171	7	Sololá	701	Sololá	1	Sololá	12	Diciembre	2023-06-12T00:00:00	2024-11-08T19:00:00	3	Temperatura mínima	13.9
63172	7	Sololá	701	Sololá	1	Sololá	12	Diciembre	2023-06-12T00:00:00	2024-11-08T19:00:00	5	Humedad	77
63173	7	Sololá	701	Sololá	1	Sololá	12	Diciembre	2023-06-12T00:00:00	2024-11-08T19:00:00	6	Velocidad del viento	1.6
63174	7	Sololá	701	Sololá	1	Sololá	12	Diciembre	2023-06-12T00:00:00	2024-11-08T19:00:00	7	Dirección del viento	1.61
63175	7	Sololá	701	Sololá	1	Sololá	12	Diciembre	2023-06-12T00:00:00	2024-11-08T19:00:00	1	Precipitación	0
63176	7	Sololá	701	Sololá	1	Sololá	12	Diciembre	2023-06-12T00:00:00	2024-11-08T19:00:00	8	Radiación solar	0
63177	7	Sololá	701	Sololá	1	Sololá	12	Diciembre	2023-06-12T00:00:00	2024-11-08T20:00:00	2	Temperatura media	13.7
63178	7	Sololá	701	Sololá	1	Sololá	12	Diciembre	2023-06-12T00:00:00	2024-11-08T20:00:00	4	Temperatura máxima	14
63179	7	Sololá	701	Sololá	1	Sololá	12	Diciembre	2023-06-12T00:00:00	2024-11-08T20:00:00	3	Temperatura mínima	13.7
63180	7	Sololá	701	Sololá	1	Sololá	12	Diciembre	2023-06-12T00:00:00	2024-11-08T20:00:00	5	Humedad	81
63181	7	Sololá	701	Sololá	1	Sololá	12	Diciembre	2023-06-12T00:00:00	2024-11-08T20:00:00	6	Velocidad del viento	0
63182	7	Sololá	701	Sololá	1	Sololá	12	Diciembre	2023-06-12T00:00:00	2024-11-08T20:00:00	7	Dirección del viento	0
63183	7	Sololá	701	Sololá	1	Sololá	12	Diciembre	2023-06-12T00:00:00	2024-11-08T20:00:00	1	Precipitación	0
63184	7	Sololá	701	Sololá	1	Sololá	12	Diciembre	2023-06-12T00:00:00	2024-11-08T20:00:00	8	Radiación solar	0
63185	7	Sololá	701	Sololá	1	Sololá	12	Diciembre	2023-06-12T00:00:00	2024-11-08T21:00:00	2	Temperatura media	13.6
63186	7	Sololá	701	Sololá	1	Sololá	12	Diciembre	2023-06-12T00:00:00	2024-11-08T21:00:00	4	Temperatura máxima	13.7
63187	7	Sololá	701	Sololá	1	Sololá	12	Diciembre	2023-06-12T00:00:00	2024-11-08T21:00:00	3	Temperatura mínima	13.5
63188	7	Sololá	701	Sololá	1	Sololá	12	Diciembre	2023-06-12T00:00:00	2024-11-08T21:00:00	5	Humedad	80
63189	7	Sololá	701	Sololá	1	Sololá	12	Diciembre	2023-06-12T00:00:00	2024-11-08T21:00:00	6	Velocidad del viento	1.6
63190	7	Sololá	701	Sololá	1	Sololá	12	Diciembre	2023-06-12T00:00:00	2024-11-08T21:00:00	7	Dirección del viento	1.61
63191	7	Sololá	701	Sololá	1	Sololá	12	Diciembre	2023-06-12T00:00:00	2024-11-08T21:00:00	1	Precipitación	0
63192	7	Sololá	701	Sololá	1	Sololá	12	Diciembre	2023-06-12T00:00:00	2024-11-08T21:00:00	8	Radiación solar	0
63193	7	Sololá	701	Sololá	1	Sololá	12	Diciembre	2023-06-12T00:00:00	2024-11-08T22:00:00	2	Temperatura media	13.8
63194	7	Sololá	701	Sololá	1	Sololá	12	Diciembre	2023-06-12T00:00:00	2024-11-08T22:00:00	4	Temperatura máxima	13.8
63195	7	Sololá	701	Sololá	1	Sololá	12	Diciembre	2023-06-12T00:00:00	2024-11-08T22:00:00	3	Temperatura mínima	13.6
63196	7	Sololá	701	Sololá	1	Sololá	12	Diciembre	2023-06-12T00:00:00	2024-11-08T22:00:00	5	Humedad	78
63197	7	Sololá	701	Sololá	1	Sololá	12	Diciembre	2023-06-12T00:00:00	2024-11-08T22:00:00	6	Velocidad del viento	1.6
63198	7	Sololá	701	Sololá	1	Sololá	12	Diciembre	2023-06-12T00:00:00	2024-11-08T22:00:00	7	Dirección del viento	1.61
63199	7	Sololá	701	Sololá	1	Sololá	12	Diciembre	2023-06-12T00:00:00	2024-11-08T22:00:00	1	Precipitación	0
63200	7	Sololá	701	Sololá	1	Sololá	12	Diciembre	2023-06-12T00:00:00	2024-11-08T22:00:00	8	Radiación solar	0
63201	7	Sololá	701	Sololá	1	Sololá	12	Diciembre	2023-06-12T00:00:00	2024-11-08T23:00:00	2	Temperatura media	13.6
63202	7	Sololá	701	Sololá	1	Sololá	12	Diciembre	2023-06-12T00:00:00	2024-11-08T23:00:00	4	Temperatura máxima	13.8
63203	7	Sololá	701	Sololá	1	Sololá	12	Diciembre	2023-06-12T00:00:00	2024-11-08T23:00:00	3	Temperatura mínima	13.5
63204	7	Sololá	701	Sololá	1	Sololá	12	Diciembre	2023-06-12T00:00:00	2024-11-08T23:00:00	5	Humedad	79
63205	7	Sololá	701	Sololá	1	Sololá	12	Diciembre	2023-06-12T00:00:00	2024-11-08T23:00:00	6	Velocidad del viento	1.6
63206	7	Sololá	701	Sololá	1	Sololá	12	Diciembre	2023-06-12T00:00:00	2024-11-08T23:00:00	7	Dirección del viento	1.61
63207	7	Sololá	701	Sololá	1	Sololá	12	Diciembre	2023-06-12T00:00:00	2024-11-08T23:00:00	1	Precipitación	0
63208	7	Sololá	701	Sololá	1	Sololá	12	Diciembre	2023-06-12T00:00:00	2024-11-08T23:00:00	8	Radiación solar	0
63209	7	Sololá	701	Sololá	1	Sololá	12	Diciembre	2023-07-12T00:00:00	2024-11-08T00:00:00	2	Temperatura media	13.3
63210	7	Sololá	701	Sololá	1	Sololá	12	Diciembre	2023-07-12T00:00:00	2024-11-08T00:00:00	4	Temperatura máxima	13.6
63211	7	Sololá	701	Sololá	1	Sololá	12	Diciembre	2023-07-12T00:00:00	2024-11-08T00:00:00	3	Temperatura mínima	13.3
63212	7	Sololá	701	Sololá	1	Sololá	12	Diciembre	2023-07-12T00:00:00	2024-11-08T00:00:00	5	Humedad	81
63213	7	Sololá	701	Sololá	1	Sololá	12	Diciembre	2023-07-12T00:00:00	2024-11-08T00:00:00	6	Velocidad del viento	1.6
63214	7	Sololá	701	Sololá	1	Sololá	12	Diciembre	2023-07-12T00:00:00	2024-11-08T00:00:00	7	Dirección del viento	1.61
63215	7	Sololá	701	Sololá	1	Sololá	12	Diciembre	2023-07-12T00:00:00	2024-11-08T00:00:00	1	Precipitación	0
63216	7	Sololá	701	Sololá	1	Sololá	12	Diciembre	2023-07-12T00:00:00	2024-11-08T00:00:00	8	Radiación solar	0
63217	7	Sololá	701	Sololá	1	Sololá	12	Diciembre	2023-07-12T00:00:00	2024-11-08T01:00:00	2	Temperatura media	13.8
63218	7	Sololá	701	Sololá	1	Sololá	12	Diciembre	2023-07-12T00:00:00	2024-11-08T01:00:00	4	Temperatura máxima	13.8
63219	7	Sololá	701	Sololá	1	Sololá	12	Diciembre	2023-07-12T00:00:00	2024-11-08T01:00:00	3	Temperatura mínima	13.3
63220	7	Sololá	701	Sololá	1	Sololá	12	Diciembre	2023-07-12T00:00:00	2024-11-08T01:00:00	5	Humedad	82
63221	7	Sololá	701	Sololá	1	Sololá	12	Diciembre	2023-07-12T00:00:00	2024-11-08T01:00:00	6	Velocidad del viento	0
63222	7	Sololá	701	Sololá	1	Sololá	12	Diciembre	2023-07-12T00:00:00	2024-11-08T01:00:00	7	Dirección del viento	0
63223	7	Sololá	701	Sololá	1	Sololá	12	Diciembre	2023-07-12T00:00:00	2024-11-08T01:00:00	1	Precipitación	0
63224	7	Sololá	701	Sololá	1	Sololá	12	Diciembre	2023-07-12T00:00:00	2024-11-08T01:00:00	8	Radiación solar	0
63225	7	Sololá	701	Sololá	1	Sololá	12	Diciembre	2023-07-12T00:00:00	2024-11-08T02:00:00	2	Temperatura media	13.8
63226	7	Sololá	701	Sololá	1	Sololá	12	Diciembre	2023-07-12T00:00:00	2024-11-08T02:00:00	4	Temperatura máxima	13.8
63227	7	Sololá	701	Sololá	1	Sololá	12	Diciembre	2023-07-12T00:00:00	2024-11-08T02:00:00	3	Temperatura mínima	13.7
63228	7	Sololá	701	Sololá	1	Sololá	12	Diciembre	2023-07-12T00:00:00	2024-11-08T02:00:00	5	Humedad	84
63229	7	Sololá	701	Sololá	1	Sololá	12	Diciembre	2023-07-12T00:00:00	2024-11-08T02:00:00	6	Velocidad del viento	1.6
63230	7	Sololá	701	Sololá	1	Sololá	12	Diciembre	2023-07-12T00:00:00	2024-11-08T02:00:00	7	Dirección del viento	1.61
63231	7	Sololá	701	Sololá	1	Sololá	12	Diciembre	2023-07-12T00:00:00	2024-11-08T02:00:00	1	Precipitación	0
63232	7	Sololá	701	Sololá	1	Sololá	12	Diciembre	2023-07-12T00:00:00	2024-11-08T02:00:00	8	Radiación solar	0
63233	7	Sololá	701	Sololá	1	Sololá	12	Diciembre	2023-07-12T00:00:00	2024-11-08T03:00:00	2	Temperatura media	13.6
63234	7	Sololá	701	Sololá	1	Sololá	12	Diciembre	2023-07-12T00:00:00	2024-11-08T03:00:00	4	Temperatura máxima	13.8
63235	7	Sololá	701	Sololá	1	Sololá	12	Diciembre	2023-07-12T00:00:00	2024-11-08T03:00:00	3	Temperatura mínima	13.6
63236	7	Sololá	701	Sololá	1	Sololá	12	Diciembre	2023-07-12T00:00:00	2024-11-08T03:00:00	5	Humedad	85
63237	7	Sololá	701	Sololá	1	Sololá	12	Diciembre	2023-07-12T00:00:00	2024-11-08T03:00:00	6	Velocidad del viento	1.6
63238	7	Sololá	701	Sololá	1	Sololá	12	Diciembre	2023-07-12T00:00:00	2024-11-08T03:00:00	7	Dirección del viento	1.61
63239	7	Sololá	701	Sololá	1	Sololá	12	Diciembre	2023-07-12T00:00:00	2024-11-08T03:00:00	1	Precipitación	0
63240	7	Sololá	701	Sololá	1	Sololá	12	Diciembre	2023-07-12T00:00:00	2024-11-08T03:00:00	8	Radiación solar	0
63241	7	Sololá	701	Sololá	1	Sololá	12	Diciembre	2023-07-12T00:00:00	2024-11-08T04:00:00	2	Temperatura media	13.3
63242	7	Sololá	701	Sololá	1	Sololá	12	Diciembre	2023-07-12T00:00:00	2024-11-08T04:00:00	4	Temperatura máxima	13.7
63243	7	Sololá	701	Sololá	1	Sololá	12	Diciembre	2023-07-12T00:00:00	2024-11-08T04:00:00	3	Temperatura mínima	13.3
63244	7	Sololá	701	Sololá	1	Sololá	12	Diciembre	2023-07-12T00:00:00	2024-11-08T04:00:00	5	Humedad	86
63245	7	Sololá	701	Sololá	1	Sololá	12	Diciembre	2023-07-12T00:00:00	2024-11-08T04:00:00	6	Velocidad del viento	1.6
63246	7	Sololá	701	Sololá	1	Sololá	12	Diciembre	2023-07-12T00:00:00	2024-11-08T04:00:00	7	Dirección del viento	1.61
63247	7	Sololá	701	Sololá	1	Sololá	12	Diciembre	2023-07-12T00:00:00	2024-11-08T04:00:00	1	Precipitación	0
63248	7	Sololá	701	Sololá	1	Sololá	12	Diciembre	2023-07-12T00:00:00	2024-11-08T04:00:00	8	Radiación solar	0
63249	7	Sololá	701	Sololá	1	Sololá	12	Diciembre	2023-07-12T00:00:00	2024-11-08T05:00:00	2	Temperatura media	13.3
63250	7	Sololá	701	Sololá	1	Sololá	12	Diciembre	2023-07-12T00:00:00	2024-11-08T05:00:00	4	Temperatura máxima	13.3
63251	7	Sololá	701	Sololá	1	Sololá	12	Diciembre	2023-07-12T00:00:00	2024-11-08T05:00:00	3	Temperatura mínima	13.1
63252	7	Sololá	701	Sololá	1	Sololá	12	Diciembre	2023-07-12T00:00:00	2024-11-08T05:00:00	5	Humedad	87
63253	7	Sololá	701	Sololá	1	Sololá	12	Diciembre	2023-07-12T00:00:00	2024-11-08T05:00:00	6	Velocidad del viento	0
63254	7	Sololá	701	Sololá	1	Sololá	12	Diciembre	2023-07-12T00:00:00	2024-11-08T05:00:00	7	Dirección del viento	0
63255	7	Sololá	701	Sololá	1	Sololá	12	Diciembre	2023-07-12T00:00:00	2024-11-08T05:00:00	1	Precipitación	0
63256	7	Sololá	701	Sololá	1	Sololá	12	Diciembre	2023-07-12T00:00:00	2024-11-08T05:00:00	8	Radiación solar	0
63257	7	Sololá	701	Sololá	1	Sololá	12	Diciembre	2023-07-12T00:00:00	2024-11-08T06:00:00	2	Temperatura media	13
63258	7	Sololá	701	Sololá	1	Sololá	12	Diciembre	2023-07-12T00:00:00	2024-11-08T06:00:00	4	Temperatura máxima	13.3
63259	7	Sololá	701	Sololá	1	Sololá	12	Diciembre	2023-07-12T00:00:00	2024-11-08T06:00:00	3	Temperatura mínima	13
63260	7	Sololá	701	Sololá	1	Sololá	12	Diciembre	2023-07-12T00:00:00	2024-11-08T06:00:00	5	Humedad	88
63261	7	Sololá	701	Sololá	1	Sololá	12	Diciembre	2023-07-12T00:00:00	2024-11-08T06:00:00	6	Velocidad del viento	0
63262	7	Sololá	701	Sololá	1	Sololá	12	Diciembre	2023-07-12T00:00:00	2024-11-08T06:00:00	7	Dirección del viento	0
63263	7	Sololá	701	Sololá	1	Sololá	12	Diciembre	2023-07-12T00:00:00	2024-11-08T06:00:00	1	Precipitación	0
63264	7	Sololá	701	Sololá	1	Sololá	12	Diciembre	2023-07-12T00:00:00	2024-11-08T06:00:00	8	Radiación solar	0
63265	7	Sololá	701	Sololá	1	Sololá	12	Diciembre	2023-07-12T00:00:00	2024-11-08T07:00:00	2	Temperatura media	13.2
63266	7	Sololá	701	Sololá	1	Sololá	12	Diciembre	2023-07-12T00:00:00	2024-11-08T07:00:00	4	Temperatura máxima	13.2
63267	7	Sololá	701	Sololá	1	Sololá	12	Diciembre	2023-07-12T00:00:00	2024-11-08T07:00:00	3	Temperatura mínima	12.9
63268	7	Sololá	701	Sololá	1	Sololá	12	Diciembre	2023-07-12T00:00:00	2024-11-08T07:00:00	5	Humedad	87
63269	7	Sololá	701	Sololá	1	Sololá	12	Diciembre	2023-07-12T00:00:00	2024-11-08T07:00:00	6	Velocidad del viento	0
63270	7	Sololá	701	Sololá	1	Sololá	12	Diciembre	2023-07-12T00:00:00	2024-11-08T07:00:00	7	Dirección del viento	0
63271	7	Sololá	701	Sololá	1	Sololá	12	Diciembre	2023-07-12T00:00:00	2024-11-08T07:00:00	1	Precipitación	0
63272	7	Sololá	701	Sololá	1	Sololá	12	Diciembre	2023-07-12T00:00:00	2024-11-08T07:00:00	8	Radiación solar	14
63273	7	Sololá	701	Sololá	1	Sololá	12	Diciembre	2023-07-12T00:00:00	2024-11-08T08:00:00	2	Temperatura media	15.1
63274	7	Sololá	701	Sololá	1	Sololá	12	Diciembre	2023-07-12T00:00:00	2024-11-08T08:00:00	4	Temperatura máxima	15.1
63275	7	Sololá	701	Sololá	1	Sololá	12	Diciembre	2023-07-12T00:00:00	2024-11-08T08:00:00	3	Temperatura mínima	13.2
63276	7	Sololá	701	Sololá	1	Sololá	12	Diciembre	2023-07-12T00:00:00	2024-11-08T08:00:00	5	Humedad	82
63277	7	Sololá	701	Sololá	1	Sololá	12	Diciembre	2023-07-12T00:00:00	2024-11-08T08:00:00	6	Velocidad del viento	0
63278	7	Sololá	701	Sololá	1	Sololá	12	Diciembre	2023-07-12T00:00:00	2024-11-08T08:00:00	7	Dirección del viento	0
63279	7	Sololá	701	Sololá	1	Sololá	12	Diciembre	2023-07-12T00:00:00	2024-11-08T08:00:00	1	Precipitación	0
63280	7	Sololá	701	Sololá	1	Sololá	12	Diciembre	2023-07-12T00:00:00	2024-11-08T08:00:00	8	Radiación solar	143
63281	7	Sololá	701	Sololá	1	Sololá	12	Diciembre	2023-07-12T00:00:00	2024-11-08T09:00:00	2	Temperatura media	17.3
63282	7	Sololá	701	Sololá	1	Sololá	12	Diciembre	2023-07-12T00:00:00	2024-11-08T09:00:00	4	Temperatura máxima	18.3
63283	7	Sololá	701	Sololá	1	Sololá	12	Diciembre	2023-07-12T00:00:00	2024-11-08T09:00:00	3	Temperatura mínima	15.1
63284	7	Sololá	701	Sololá	1	Sololá	12	Diciembre	2023-07-12T00:00:00	2024-11-08T09:00:00	5	Humedad	74
63285	7	Sololá	701	Sololá	1	Sololá	12	Diciembre	2023-07-12T00:00:00	2024-11-08T09:00:00	6	Velocidad del viento	0
63286	7	Sololá	701	Sololá	1	Sololá	12	Diciembre	2023-07-12T00:00:00	2024-11-08T09:00:00	7	Dirección del viento	0
63287	7	Sololá	701	Sololá	1	Sololá	12	Diciembre	2023-07-12T00:00:00	2024-11-08T09:00:00	1	Precipitación	0
63288	7	Sololá	701	Sololá	1	Sololá	12	Diciembre	2023-07-12T00:00:00	2024-11-08T09:00:00	8	Radiación solar	453
63289	7	Sololá	701	Sololá	1	Sololá	12	Diciembre	2023-07-12T00:00:00	2024-11-08T10:00:00	2	Temperatura media	19.3
63290	7	Sololá	701	Sololá	1	Sololá	12	Diciembre	2023-07-12T00:00:00	2024-11-08T10:00:00	4	Temperatura máxima	19.3
63291	7	Sololá	701	Sololá	1	Sololá	12	Diciembre	2023-07-12T00:00:00	2024-11-08T10:00:00	3	Temperatura mínima	16.6
63292	7	Sololá	701	Sololá	1	Sololá	12	Diciembre	2023-07-12T00:00:00	2024-11-08T10:00:00	5	Humedad	69
63293	7	Sololá	701	Sololá	1	Sololá	12	Diciembre	2023-07-12T00:00:00	2024-11-08T10:00:00	6	Velocidad del viento	0
63294	7	Sololá	701	Sololá	1	Sololá	12	Diciembre	2023-07-12T00:00:00	2024-11-08T10:00:00	7	Dirección del viento	0
63295	7	Sololá	701	Sololá	1	Sololá	12	Diciembre	2023-07-12T00:00:00	2024-11-08T10:00:00	1	Precipitación	0
63296	7	Sololá	701	Sololá	1	Sololá	12	Diciembre	2023-07-12T00:00:00	2024-11-08T10:00:00	8	Radiación solar	558
63297	7	Sololá	701	Sololá	1	Sololá	12	Diciembre	2023-07-12T00:00:00	2024-11-08T11:00:00	2	Temperatura media	20.7
63298	7	Sololá	701	Sololá	1	Sololá	12	Diciembre	2023-07-12T00:00:00	2024-11-08T11:00:00	4	Temperatura máxima	21.1
63299	7	Sololá	701	Sololá	1	Sololá	12	Diciembre	2023-07-12T00:00:00	2024-11-08T11:00:00	3	Temperatura mínima	19.3
63300	7	Sololá	701	Sololá	1	Sololá	12	Diciembre	2023-07-12T00:00:00	2024-11-08T11:00:00	5	Humedad	65
63301	7	Sololá	701	Sololá	1	Sololá	12	Diciembre	2023-07-12T00:00:00	2024-11-08T11:00:00	6	Velocidad del viento	0
63302	7	Sololá	701	Sololá	1	Sololá	12	Diciembre	2023-07-12T00:00:00	2024-11-08T11:00:00	7	Dirección del viento	0
63303	7	Sololá	701	Sololá	1	Sololá	12	Diciembre	2023-07-12T00:00:00	2024-11-08T11:00:00	1	Precipitación	0
63304	7	Sololá	701	Sololá	1	Sololá	12	Diciembre	2023-07-12T00:00:00	2024-11-08T11:00:00	8	Radiación solar	812
63305	7	Sololá	701	Sololá	1	Sololá	12	Diciembre	2023-07-12T00:00:00	2024-11-08T12:00:00	2	Temperatura media	21.6
63306	7	Sololá	701	Sololá	1	Sololá	12	Diciembre	2023-07-12T00:00:00	2024-11-08T12:00:00	4	Temperatura máxima	21.6
63307	7	Sololá	701	Sololá	1	Sololá	12	Diciembre	2023-07-12T00:00:00	2024-11-08T12:00:00	3	Temperatura mínima	20.7
63308	7	Sololá	701	Sololá	1	Sololá	12	Diciembre	2023-07-12T00:00:00	2024-11-08T12:00:00	5	Humedad	63
63309	7	Sololá	701	Sololá	1	Sololá	12	Diciembre	2023-07-12T00:00:00	2024-11-08T12:00:00	6	Velocidad del viento	0
63310	7	Sololá	701	Sololá	1	Sololá	12	Diciembre	2023-07-12T00:00:00	2024-11-08T12:00:00	7	Dirección del viento	0
63311	7	Sololá	701	Sololá	1	Sololá	12	Diciembre	2023-07-12T00:00:00	2024-11-08T12:00:00	1	Precipitación	0
63312	7	Sololá	701	Sololá	1	Sololá	12	Diciembre	2023-07-12T00:00:00	2024-11-08T12:00:00	8	Radiación solar	875
63313	7	Sololá	701	Sololá	1	Sololá	12	Diciembre	2023-07-12T00:00:00	2024-11-08T13:00:00	2	Temperatura media	22.3
63314	7	Sololá	701	Sololá	1	Sololá	12	Diciembre	2023-07-12T00:00:00	2024-11-08T13:00:00	4	Temperatura máxima	22.3
63315	7	Sololá	701	Sololá	1	Sololá	12	Diciembre	2023-07-12T00:00:00	2024-11-08T13:00:00	3	Temperatura mínima	21.6
63316	7	Sololá	701	Sololá	1	Sololá	12	Diciembre	2023-07-12T00:00:00	2024-11-08T13:00:00	5	Humedad	60
63317	7	Sololá	701	Sololá	1	Sololá	12	Diciembre	2023-07-12T00:00:00	2024-11-08T13:00:00	6	Velocidad del viento	0
63318	7	Sololá	701	Sololá	1	Sololá	12	Diciembre	2023-07-12T00:00:00	2024-11-08T13:00:00	7	Dirección del viento	0
63319	7	Sololá	701	Sololá	1	Sololá	12	Diciembre	2023-07-12T00:00:00	2024-11-08T13:00:00	1	Precipitación	0
63320	7	Sololá	701	Sololá	1	Sololá	12	Diciembre	2023-07-12T00:00:00	2024-11-08T13:00:00	8	Radiación solar	785
63321	7	Sololá	701	Sololá	1	Sololá	12	Diciembre	2023-07-12T00:00:00	2024-11-08T14:00:00	2	Temperatura media	22.1
63322	7	Sololá	701	Sololá	1	Sololá	12	Diciembre	2023-07-12T00:00:00	2024-11-08T14:00:00	4	Temperatura máxima	22.4
63323	7	Sololá	701	Sololá	1	Sololá	12	Diciembre	2023-07-12T00:00:00	2024-11-08T14:00:00	3	Temperatura mínima	21.8
63324	7	Sololá	701	Sololá	1	Sololá	12	Diciembre	2023-07-12T00:00:00	2024-11-08T14:00:00	5	Humedad	63
63325	7	Sololá	701	Sololá	1	Sololá	12	Diciembre	2023-07-12T00:00:00	2024-11-08T14:00:00	6	Velocidad del viento	0
63326	7	Sololá	701	Sololá	1	Sololá	12	Diciembre	2023-07-12T00:00:00	2024-11-08T14:00:00	7	Dirección del viento	0
63327	7	Sololá	701	Sololá	1	Sololá	12	Diciembre	2023-07-12T00:00:00	2024-11-08T14:00:00	1	Precipitación	0
63328	7	Sololá	701	Sololá	1	Sololá	12	Diciembre	2023-07-12T00:00:00	2024-11-08T14:00:00	8	Radiación solar	682
63329	7	Sololá	701	Sololá	1	Sololá	12	Diciembre	2023-07-12T00:00:00	2024-11-08T15:00:00	2	Temperatura media	22.1
63330	7	Sololá	701	Sololá	1	Sololá	12	Diciembre	2023-07-12T00:00:00	2024-11-08T15:00:00	4	Temperatura máxima	22.6
63331	7	Sololá	701	Sololá	1	Sololá	12	Diciembre	2023-07-12T00:00:00	2024-11-08T15:00:00	3	Temperatura mínima	21.8
63332	7	Sololá	701	Sololá	1	Sololá	12	Diciembre	2023-07-12T00:00:00	2024-11-08T15:00:00	5	Humedad	61
63333	7	Sololá	701	Sololá	1	Sololá	12	Diciembre	2023-07-12T00:00:00	2024-11-08T15:00:00	6	Velocidad del viento	0
63334	7	Sololá	701	Sololá	1	Sololá	12	Diciembre	2023-07-12T00:00:00	2024-11-08T15:00:00	7	Dirección del viento	0
63335	7	Sololá	701	Sololá	1	Sololá	12	Diciembre	2023-07-12T00:00:00	2024-11-08T15:00:00	1	Precipitación	0
63336	7	Sololá	701	Sololá	1	Sololá	12	Diciembre	2023-07-12T00:00:00	2024-11-08T15:00:00	8	Radiación solar	89
63337	7	Sololá	701	Sololá	1	Sololá	12	Diciembre	2023-07-12T00:00:00	2024-11-08T16:00:00	2	Temperatura media	20.4
63338	7	Sololá	701	Sololá	1	Sololá	12	Diciembre	2023-07-12T00:00:00	2024-11-08T16:00:00	4	Temperatura máxima	22.3
63339	7	Sololá	701	Sololá	1	Sololá	12	Diciembre	2023-07-12T00:00:00	2024-11-08T16:00:00	3	Temperatura mínima	20.4
63340	7	Sololá	701	Sololá	1	Sololá	12	Diciembre	2023-07-12T00:00:00	2024-11-08T16:00:00	5	Humedad	66
63341	7	Sololá	701	Sololá	1	Sololá	12	Diciembre	2023-07-12T00:00:00	2024-11-08T16:00:00	6	Velocidad del viento	0
63342	7	Sololá	701	Sololá	1	Sololá	12	Diciembre	2023-07-12T00:00:00	2024-11-08T16:00:00	7	Dirección del viento	0
63343	7	Sololá	701	Sololá	1	Sololá	12	Diciembre	2023-07-12T00:00:00	2024-11-08T16:00:00	1	Precipitación	0
63344	7	Sololá	701	Sololá	1	Sololá	12	Diciembre	2023-07-12T00:00:00	2024-11-08T16:00:00	8	Radiación solar	70
63345	7	Sololá	701	Sololá	1	Sololá	12	Diciembre	2023-07-12T00:00:00	2024-11-08T17:00:00	2	Temperatura media	19.4
63346	7	Sololá	701	Sololá	1	Sololá	12	Diciembre	2023-07-12T00:00:00	2024-11-08T17:00:00	4	Temperatura máxima	20.7
63347	7	Sololá	701	Sololá	1	Sololá	12	Diciembre	2023-07-12T00:00:00	2024-11-08T17:00:00	3	Temperatura mínima	19.4
63348	7	Sololá	701	Sololá	1	Sololá	12	Diciembre	2023-07-12T00:00:00	2024-11-08T17:00:00	5	Humedad	68
63349	7	Sololá	701	Sololá	1	Sololá	12	Diciembre	2023-07-12T00:00:00	2024-11-08T17:00:00	6	Velocidad del viento	0
63350	7	Sololá	701	Sololá	1	Sololá	12	Diciembre	2023-07-12T00:00:00	2024-11-08T17:00:00	7	Dirección del viento	0
63351	7	Sololá	701	Sololá	1	Sololá	12	Diciembre	2023-07-12T00:00:00	2024-11-08T17:00:00	1	Precipitación	0
63352	7	Sololá	701	Sololá	1	Sololá	12	Diciembre	2023-07-12T00:00:00	2024-11-08T17:00:00	8	Radiación solar	78
63353	7	Sololá	701	Sololá	1	Sololá	12	Diciembre	2023-07-12T00:00:00	2024-11-08T18:00:00	2	Temperatura media	16.4
63354	7	Sololá	701	Sololá	1	Sololá	12	Diciembre	2023-07-12T00:00:00	2024-11-08T18:00:00	4	Temperatura máxima	19.4
63355	7	Sololá	701	Sololá	1	Sololá	12	Diciembre	2023-07-12T00:00:00	2024-11-08T18:00:00	3	Temperatura mínima	16.4
63356	7	Sololá	701	Sololá	1	Sololá	12	Diciembre	2023-07-12T00:00:00	2024-11-08T18:00:00	5	Humedad	77
63357	7	Sololá	701	Sololá	1	Sololá	12	Diciembre	2023-07-12T00:00:00	2024-11-08T18:00:00	6	Velocidad del viento	0
63358	7	Sololá	701	Sololá	1	Sololá	12	Diciembre	2023-07-12T00:00:00	2024-11-08T18:00:00	7	Dirección del viento	0
63359	7	Sololá	701	Sololá	1	Sololá	12	Diciembre	2023-07-12T00:00:00	2024-11-08T18:00:00	1	Precipitación	0
63360	7	Sololá	701	Sololá	1	Sololá	12	Diciembre	2023-07-12T00:00:00	2024-11-08T18:00:00	8	Radiación solar	6
63361	7	Sololá	701	Sololá	1	Sololá	12	Diciembre	2023-07-12T00:00:00	2024-11-08T19:00:00	2	Temperatura media	15.3
63362	7	Sololá	701	Sololá	1	Sololá	12	Diciembre	2023-07-12T00:00:00	2024-11-08T19:00:00	4	Temperatura máxima	16.4
63363	7	Sololá	701	Sololá	1	Sololá	12	Diciembre	2023-07-12T00:00:00	2024-11-08T19:00:00	3	Temperatura mínima	15.3
63364	7	Sololá	701	Sololá	1	Sololá	12	Diciembre	2023-07-12T00:00:00	2024-11-08T19:00:00	5	Humedad	81
63365	7	Sololá	701	Sololá	1	Sololá	12	Diciembre	2023-07-12T00:00:00	2024-11-08T19:00:00	6	Velocidad del viento	0
63366	7	Sololá	701	Sololá	1	Sololá	12	Diciembre	2023-07-12T00:00:00	2024-11-08T19:00:00	7	Dirección del viento	0
63367	7	Sololá	701	Sololá	1	Sololá	12	Diciembre	2023-07-12T00:00:00	2024-11-08T19:00:00	1	Precipitación	0
63368	7	Sololá	701	Sololá	1	Sololá	12	Diciembre	2023-07-12T00:00:00	2024-11-08T19:00:00	8	Radiación solar	0
63369	7	Sololá	701	Sololá	1	Sololá	12	Diciembre	2023-07-12T00:00:00	2024-11-08T20:00:00	2	Temperatura media	14.8
63370	7	Sololá	701	Sololá	1	Sololá	12	Diciembre	2023-07-12T00:00:00	2024-11-08T20:00:00	4	Temperatura máxima	15.4
63371	7	Sololá	701	Sololá	1	Sololá	12	Diciembre	2023-07-12T00:00:00	2024-11-08T20:00:00	3	Temperatura mínima	14.8
63372	7	Sololá	701	Sololá	1	Sololá	12	Diciembre	2023-07-12T00:00:00	2024-11-08T20:00:00	5	Humedad	81
63373	7	Sololá	701	Sololá	1	Sololá	12	Diciembre	2023-07-12T00:00:00	2024-11-08T20:00:00	6	Velocidad del viento	0
63374	7	Sololá	701	Sololá	1	Sololá	12	Diciembre	2023-07-12T00:00:00	2024-11-08T20:00:00	7	Dirección del viento	0
63375	7	Sololá	701	Sololá	1	Sololá	12	Diciembre	2023-07-12T00:00:00	2024-11-08T20:00:00	1	Precipitación	0
63376	7	Sololá	701	Sololá	1	Sololá	12	Diciembre	2023-07-12T00:00:00	2024-11-08T20:00:00	8	Radiación solar	0
63377	7	Sololá	701	Sololá	1	Sololá	12	Diciembre	2023-07-12T00:00:00	2024-11-08T21:00:00	2	Temperatura media	14.4
63378	7	Sololá	701	Sololá	1	Sololá	12	Diciembre	2023-07-12T00:00:00	2024-11-08T21:00:00	4	Temperatura máxima	14.9
63379	7	Sololá	701	Sololá	1	Sololá	12	Diciembre	2023-07-12T00:00:00	2024-11-08T21:00:00	3	Temperatura mínima	14.4
63380	7	Sololá	701	Sololá	1	Sololá	12	Diciembre	2023-07-12T00:00:00	2024-11-08T21:00:00	5	Humedad	84
63381	7	Sololá	701	Sololá	1	Sololá	12	Diciembre	2023-07-12T00:00:00	2024-11-08T21:00:00	6	Velocidad del viento	0
63382	7	Sololá	701	Sololá	1	Sololá	12	Diciembre	2023-07-12T00:00:00	2024-11-08T21:00:00	7	Dirección del viento	0
63383	7	Sololá	701	Sololá	1	Sololá	12	Diciembre	2023-07-12T00:00:00	2024-11-08T21:00:00	1	Precipitación	0
63384	7	Sololá	701	Sololá	1	Sololá	12	Diciembre	2023-07-12T00:00:00	2024-11-08T21:00:00	8	Radiación solar	0
63385	7	Sololá	701	Sololá	1	Sololá	12	Diciembre	2023-07-12T00:00:00	2024-11-08T22:00:00	2	Temperatura media	14.2
63386	7	Sololá	701	Sololá	1	Sololá	12	Diciembre	2023-07-12T00:00:00	2024-11-08T22:00:00	4	Temperatura máxima	14.4
63387	7	Sololá	701	Sololá	1	Sololá	12	Diciembre	2023-07-12T00:00:00	2024-11-08T22:00:00	3	Temperatura mínima	14.1
63388	7	Sololá	701	Sololá	1	Sololá	12	Diciembre	2023-07-12T00:00:00	2024-11-08T22:00:00	5	Humedad	85
63389	7	Sololá	701	Sololá	1	Sololá	12	Diciembre	2023-07-12T00:00:00	2024-11-08T22:00:00	6	Velocidad del viento	0
63390	7	Sololá	701	Sololá	1	Sololá	12	Diciembre	2023-07-12T00:00:00	2024-11-08T22:00:00	7	Dirección del viento	0
63391	7	Sololá	701	Sololá	1	Sololá	12	Diciembre	2023-07-12T00:00:00	2024-11-08T22:00:00	1	Precipitación	0
63392	7	Sololá	701	Sololá	1	Sololá	12	Diciembre	2023-07-12T00:00:00	2024-11-08T22:00:00	8	Radiación solar	0
63393	7	Sololá	701	Sololá	1	Sololá	12	Diciembre	2023-07-12T00:00:00	2024-11-08T23:00:00	2	Temperatura media	14.1
63394	7	Sololá	701	Sololá	1	Sololá	12	Diciembre	2023-07-12T00:00:00	2024-11-08T23:00:00	4	Temperatura máxima	14.2
63395	7	Sololá	701	Sololá	1	Sololá	12	Diciembre	2023-07-12T00:00:00	2024-11-08T23:00:00	3	Temperatura mínima	14.1
63396	7	Sololá	701	Sololá	1	Sololá	12	Diciembre	2023-07-12T00:00:00	2024-11-08T23:00:00	5	Humedad	84
63397	7	Sololá	701	Sololá	1	Sololá	12	Diciembre	2023-07-12T00:00:00	2024-11-08T23:00:00	6	Velocidad del viento	0
63398	7	Sololá	701	Sololá	1	Sololá	12	Diciembre	2023-07-12T00:00:00	2024-11-08T23:00:00	7	Dirección del viento	0
63399	7	Sololá	701	Sololá	1	Sololá	12	Diciembre	2023-07-12T00:00:00	2024-11-08T23:00:00	1	Precipitación	0
63400	7	Sololá	701	Sololá	1	Sololá	12	Diciembre	2023-07-12T00:00:00	2024-11-08T23:00:00	8	Radiación solar	0
63401	7	Sololá	701	Sololá	1	Sololá	12	Diciembre	2023-08-12T00:00:00	2024-11-08T00:00:00	2	Temperatura media	13.9
63402	7	Sololá	701	Sololá	1	Sololá	12	Diciembre	2023-08-12T00:00:00	2024-11-08T00:00:00	4	Temperatura máxima	14.1
63403	7	Sololá	701	Sololá	1	Sololá	12	Diciembre	2023-08-12T00:00:00	2024-11-08T00:00:00	3	Temperatura mínima	13.9
63404	7	Sololá	701	Sololá	1	Sololá	12	Diciembre	2023-08-12T00:00:00	2024-11-08T00:00:00	5	Humedad	85
63405	7	Sololá	701	Sololá	1	Sololá	12	Diciembre	2023-08-12T00:00:00	2024-11-08T00:00:00	6	Velocidad del viento	0
63406	7	Sololá	701	Sololá	1	Sololá	12	Diciembre	2023-08-12T00:00:00	2024-11-08T00:00:00	7	Dirección del viento	0
63407	7	Sololá	701	Sololá	1	Sololá	12	Diciembre	2023-08-12T00:00:00	2024-11-08T00:00:00	1	Precipitación	0
63408	7	Sololá	701	Sololá	1	Sololá	12	Diciembre	2023-08-12T00:00:00	2024-11-08T00:00:00	8	Radiación solar	0
63409	7	Sololá	701	Sololá	1	Sololá	12	Diciembre	2023-08-12T00:00:00	2024-11-08T01:00:00	2	Temperatura media	13.9
63410	7	Sololá	701	Sololá	1	Sololá	12	Diciembre	2023-08-12T00:00:00	2024-11-08T01:00:00	4	Temperatura máxima	13.9
63411	7	Sololá	701	Sololá	1	Sololá	12	Diciembre	2023-08-12T00:00:00	2024-11-08T01:00:00	3	Temperatura mínima	13.8
63412	7	Sololá	701	Sololá	1	Sololá	12	Diciembre	2023-08-12T00:00:00	2024-11-08T01:00:00	5	Humedad	85
63413	7	Sololá	701	Sololá	1	Sololá	12	Diciembre	2023-08-12T00:00:00	2024-11-08T01:00:00	6	Velocidad del viento	0
63414	7	Sololá	701	Sololá	1	Sololá	12	Diciembre	2023-08-12T00:00:00	2024-11-08T01:00:00	7	Dirección del viento	0
63415	7	Sololá	701	Sololá	1	Sololá	12	Diciembre	2023-08-12T00:00:00	2024-11-08T01:00:00	1	Precipitación	0
63416	7	Sololá	701	Sololá	1	Sololá	12	Diciembre	2023-08-12T00:00:00	2024-11-08T01:00:00	8	Radiación solar	0
63417	7	Sololá	701	Sololá	1	Sololá	12	Diciembre	2023-08-12T00:00:00	2024-11-08T02:00:00	2	Temperatura media	13.9
63418	7	Sololá	701	Sololá	1	Sololá	12	Diciembre	2023-08-12T00:00:00	2024-11-08T02:00:00	4	Temperatura máxima	13.9
63419	7	Sololá	701	Sololá	1	Sololá	12	Diciembre	2023-08-12T00:00:00	2024-11-08T02:00:00	3	Temperatura mínima	13.8
63420	7	Sololá	701	Sololá	1	Sololá	12	Diciembre	2023-08-12T00:00:00	2024-11-08T02:00:00	5	Humedad	85
63421	7	Sololá	701	Sololá	1	Sololá	12	Diciembre	2023-08-12T00:00:00	2024-11-08T02:00:00	6	Velocidad del viento	0
63422	7	Sololá	701	Sololá	1	Sololá	12	Diciembre	2023-08-12T00:00:00	2024-11-08T02:00:00	7	Dirección del viento	0
63423	7	Sololá	701	Sololá	1	Sololá	12	Diciembre	2023-08-12T00:00:00	2024-11-08T02:00:00	1	Precipitación	0
63424	7	Sololá	701	Sololá	1	Sololá	12	Diciembre	2023-08-12T00:00:00	2024-11-08T02:00:00	8	Radiación solar	0
63425	7	Sololá	701	Sololá	1	Sololá	12	Diciembre	2023-08-12T00:00:00	2024-11-08T03:00:00	2	Temperatura media	13.7
63426	7	Sololá	701	Sololá	1	Sololá	12	Diciembre	2023-08-12T00:00:00	2024-11-08T03:00:00	4	Temperatura máxima	14.1
63427	7	Sololá	701	Sololá	1	Sololá	12	Diciembre	2023-08-12T00:00:00	2024-11-08T03:00:00	3	Temperatura mínima	13.7
63428	7	Sololá	701	Sololá	1	Sololá	12	Diciembre	2023-08-12T00:00:00	2024-11-08T03:00:00	5	Humedad	84
63429	7	Sololá	701	Sololá	1	Sololá	12	Diciembre	2023-08-12T00:00:00	2024-11-08T03:00:00	6	Velocidad del viento	0
63430	7	Sololá	701	Sololá	1	Sololá	12	Diciembre	2023-08-12T00:00:00	2024-11-08T03:00:00	7	Dirección del viento	0
63431	7	Sololá	701	Sololá	1	Sololá	12	Diciembre	2023-08-12T00:00:00	2024-11-08T03:00:00	1	Precipitación	0
63432	7	Sololá	701	Sololá	1	Sololá	12	Diciembre	2023-08-12T00:00:00	2024-11-08T03:00:00	8	Radiación solar	0
63433	7	Sololá	701	Sololá	1	Sololá	12	Diciembre	2023-08-12T00:00:00	2024-11-08T04:00:00	2	Temperatura media	13.5
63434	7	Sololá	701	Sololá	1	Sololá	12	Diciembre	2023-08-12T00:00:00	2024-11-08T04:00:00	4	Temperatura máxima	13.8
63435	7	Sololá	701	Sololá	1	Sololá	12	Diciembre	2023-08-12T00:00:00	2024-11-08T04:00:00	3	Temperatura mínima	13.5
63436	7	Sololá	701	Sololá	1	Sololá	12	Diciembre	2023-08-12T00:00:00	2024-11-08T04:00:00	5	Humedad	84
63437	7	Sololá	701	Sololá	1	Sololá	12	Diciembre	2023-08-12T00:00:00	2024-11-08T04:00:00	6	Velocidad del viento	0
63438	7	Sololá	701	Sololá	1	Sololá	12	Diciembre	2023-08-12T00:00:00	2024-11-08T04:00:00	7	Dirección del viento	0
63439	7	Sololá	701	Sololá	1	Sololá	12	Diciembre	2023-08-12T00:00:00	2024-11-08T04:00:00	1	Precipitación	0
63440	7	Sololá	701	Sololá	1	Sololá	12	Diciembre	2023-08-12T00:00:00	2024-11-08T04:00:00	8	Radiación solar	0
63441	7	Sololá	701	Sololá	1	Sololá	12	Diciembre	2023-08-12T00:00:00	2024-11-08T05:00:00	2	Temperatura media	13.4
63442	7	Sololá	701	Sololá	1	Sololá	12	Diciembre	2023-08-12T00:00:00	2024-11-08T05:00:00	4	Temperatura máxima	13.6
63443	7	Sololá	701	Sololá	1	Sololá	12	Diciembre	2023-08-12T00:00:00	2024-11-08T05:00:00	3	Temperatura mínima	13.4
63444	7	Sololá	701	Sololá	1	Sololá	12	Diciembre	2023-08-12T00:00:00	2024-11-08T05:00:00	5	Humedad	85
63445	7	Sololá	701	Sololá	1	Sololá	12	Diciembre	2023-08-12T00:00:00	2024-11-08T05:00:00	6	Velocidad del viento	0
63446	7	Sololá	701	Sololá	1	Sololá	12	Diciembre	2023-08-12T00:00:00	2024-11-08T05:00:00	7	Dirección del viento	0
63447	7	Sololá	701	Sololá	1	Sololá	12	Diciembre	2023-08-12T00:00:00	2024-11-08T05:00:00	1	Precipitación	0
63448	7	Sololá	701	Sololá	1	Sololá	12	Diciembre	2023-08-12T00:00:00	2024-11-08T05:00:00	8	Radiación solar	0
63449	7	Sololá	701	Sololá	1	Sololá	12	Diciembre	2023-08-12T00:00:00	2024-11-08T06:00:00	2	Temperatura media	13.5
63450	7	Sololá	701	Sololá	1	Sololá	12	Diciembre	2023-08-12T00:00:00	2024-11-08T06:00:00	4	Temperatura máxima	13.5
63451	7	Sololá	701	Sololá	1	Sololá	12	Diciembre	2023-08-12T00:00:00	2024-11-08T06:00:00	3	Temperatura mínima	13.3
63452	7	Sololá	701	Sololá	1	Sololá	12	Diciembre	2023-08-12T00:00:00	2024-11-08T06:00:00	5	Humedad	83
63453	7	Sololá	701	Sololá	1	Sololá	12	Diciembre	2023-08-12T00:00:00	2024-11-08T06:00:00	6	Velocidad del viento	0
63454	7	Sololá	701	Sololá	1	Sololá	12	Diciembre	2023-08-12T00:00:00	2024-11-08T06:00:00	7	Dirección del viento	0
63455	7	Sololá	701	Sololá	1	Sololá	12	Diciembre	2023-08-12T00:00:00	2024-11-08T06:00:00	1	Precipitación	0
63456	7	Sololá	701	Sololá	1	Sololá	12	Diciembre	2023-08-12T00:00:00	2024-11-08T06:00:00	8	Radiación solar	0
63457	7	Sololá	701	Sololá	1	Sololá	12	Diciembre	2023-08-12T00:00:00	2024-11-08T07:00:00	2	Temperatura media	13.8
63458	7	Sololá	701	Sololá	1	Sololá	12	Diciembre	2023-08-12T00:00:00	2024-11-08T07:00:00	4	Temperatura máxima	13.8
63459	7	Sololá	701	Sololá	1	Sololá	12	Diciembre	2023-08-12T00:00:00	2024-11-08T07:00:00	3	Temperatura mínima	13.5
63460	7	Sololá	701	Sololá	1	Sololá	12	Diciembre	2023-08-12T00:00:00	2024-11-08T07:00:00	5	Humedad	84
63461	7	Sololá	701	Sololá	1	Sololá	12	Diciembre	2023-08-12T00:00:00	2024-11-08T07:00:00	6	Velocidad del viento	0
63462	7	Sololá	701	Sololá	1	Sololá	12	Diciembre	2023-08-12T00:00:00	2024-11-08T07:00:00	7	Dirección del viento	0
63463	7	Sololá	701	Sololá	1	Sololá	12	Diciembre	2023-08-12T00:00:00	2024-11-08T07:00:00	1	Precipitación	0
63464	7	Sololá	701	Sololá	1	Sololá	12	Diciembre	2023-08-12T00:00:00	2024-11-08T07:00:00	8	Radiación solar	5
63465	7	Sololá	701	Sololá	1	Sololá	12	Diciembre	2023-08-12T00:00:00	2024-11-08T08:00:00	2	Temperatura media	15.8
63466	7	Sololá	701	Sololá	1	Sololá	12	Diciembre	2023-08-12T00:00:00	2024-11-08T08:00:00	4	Temperatura máxima	15.8
63467	7	Sololá	701	Sololá	1	Sololá	12	Diciembre	2023-08-12T00:00:00	2024-11-08T08:00:00	3	Temperatura mínima	13.7
63468	7	Sololá	701	Sololá	1	Sololá	12	Diciembre	2023-08-12T00:00:00	2024-11-08T08:00:00	5	Humedad	80
63469	7	Sololá	701	Sololá	1	Sololá	12	Diciembre	2023-08-12T00:00:00	2024-11-08T08:00:00	6	Velocidad del viento	0
63470	7	Sololá	701	Sololá	1	Sololá	12	Diciembre	2023-08-12T00:00:00	2024-11-08T08:00:00	7	Dirección del viento	0
63471	7	Sololá	701	Sololá	1	Sololá	12	Diciembre	2023-08-12T00:00:00	2024-11-08T08:00:00	1	Precipitación	0
63472	7	Sololá	701	Sololá	1	Sololá	12	Diciembre	2023-08-12T00:00:00	2024-11-08T08:00:00	8	Radiación solar	111
63473	7	Sololá	701	Sololá	1	Sololá	12	Diciembre	2023-08-12T00:00:00	2024-11-08T09:00:00	2	Temperatura media	19.8
63474	7	Sololá	701	Sololá	1	Sololá	12	Diciembre	2023-08-12T00:00:00	2024-11-08T09:00:00	4	Temperatura máxima	19.8
63475	7	Sololá	701	Sololá	1	Sololá	12	Diciembre	2023-08-12T00:00:00	2024-11-08T09:00:00	3	Temperatura mínima	15.8
63476	7	Sololá	701	Sololá	1	Sololá	12	Diciembre	2023-08-12T00:00:00	2024-11-08T09:00:00	5	Humedad	68
63477	7	Sololá	701	Sololá	1	Sololá	12	Diciembre	2023-08-12T00:00:00	2024-11-08T09:00:00	6	Velocidad del viento	0
63478	7	Sololá	701	Sololá	1	Sololá	12	Diciembre	2023-08-12T00:00:00	2024-11-08T09:00:00	7	Dirección del viento	0
63479	7	Sololá	701	Sololá	1	Sololá	12	Diciembre	2023-08-12T00:00:00	2024-11-08T09:00:00	1	Precipitación	0
63480	7	Sololá	701	Sololá	1	Sololá	12	Diciembre	2023-08-12T00:00:00	2024-11-08T09:00:00	8	Radiación solar	525
63481	7	Sololá	701	Sololá	1	Sololá	12	Diciembre	2023-08-12T00:00:00	2024-11-08T10:00:00	2	Temperatura media	22
63482	7	Sololá	701	Sololá	1	Sololá	12	Diciembre	2023-08-12T00:00:00	2024-11-08T10:00:00	4	Temperatura máxima	22
63483	7	Sololá	701	Sololá	1	Sololá	12	Diciembre	2023-08-12T00:00:00	2024-11-08T10:00:00	3	Temperatura mínima	19.8
63484	7	Sololá	701	Sololá	1	Sololá	12	Diciembre	2023-08-12T00:00:00	2024-11-08T10:00:00	5	Humedad	61
63485	7	Sololá	701	Sololá	1	Sololá	12	Diciembre	2023-08-12T00:00:00	2024-11-08T10:00:00	6	Velocidad del viento	0
63486	7	Sololá	701	Sololá	1	Sololá	12	Diciembre	2023-08-12T00:00:00	2024-11-08T10:00:00	7	Dirección del viento	0
63487	7	Sololá	701	Sololá	1	Sololá	12	Diciembre	2023-08-12T00:00:00	2024-11-08T10:00:00	1	Precipitación	0
63488	7	Sololá	701	Sololá	1	Sololá	12	Diciembre	2023-08-12T00:00:00	2024-11-08T10:00:00	8	Radiación solar	698
63489	7	Sololá	701	Sololá	1	Sololá	12	Diciembre	2023-08-12T00:00:00	2024-11-08T11:00:00	2	Temperatura media	21.3
63490	7	Sololá	701	Sololá	1	Sololá	12	Diciembre	2023-08-12T00:00:00	2024-11-08T11:00:00	4	Temperatura máxima	22.8
63491	7	Sololá	701	Sololá	1	Sololá	12	Diciembre	2023-08-12T00:00:00	2024-11-08T11:00:00	3	Temperatura mínima	21.3
63492	7	Sololá	701	Sololá	1	Sololá	12	Diciembre	2023-08-12T00:00:00	2024-11-08T11:00:00	5	Humedad	61
63493	7	Sololá	701	Sololá	1	Sololá	12	Diciembre	2023-08-12T00:00:00	2024-11-08T11:00:00	6	Velocidad del viento	0
63494	7	Sololá	701	Sololá	1	Sololá	12	Diciembre	2023-08-12T00:00:00	2024-11-08T11:00:00	7	Dirección del viento	0
63495	7	Sololá	701	Sololá	1	Sololá	12	Diciembre	2023-08-12T00:00:00	2024-11-08T11:00:00	1	Precipitación	0
63496	7	Sololá	701	Sololá	1	Sololá	12	Diciembre	2023-08-12T00:00:00	2024-11-08T11:00:00	8	Radiación solar	413
63497	7	Sololá	701	Sololá	1	Sololá	12	Diciembre	2023-08-12T00:00:00	2024-11-08T12:00:00	2	Temperatura media	21.2
63498	7	Sololá	701	Sololá	1	Sololá	12	Diciembre	2023-08-12T00:00:00	2024-11-08T12:00:00	4	Temperatura máxima	21.8
63499	7	Sololá	701	Sololá	1	Sololá	12	Diciembre	2023-08-12T00:00:00	2024-11-08T12:00:00	3	Temperatura mínima	20.9
63500	7	Sololá	701	Sololá	1	Sololá	12	Diciembre	2023-08-12T00:00:00	2024-11-08T12:00:00	5	Humedad	62
63501	7	Sololá	701	Sololá	1	Sololá	12	Diciembre	2023-08-12T00:00:00	2024-11-08T12:00:00	6	Velocidad del viento	0
63502	7	Sololá	701	Sololá	1	Sololá	12	Diciembre	2023-08-12T00:00:00	2024-11-08T12:00:00	7	Dirección del viento	0
63503	7	Sololá	701	Sololá	1	Sololá	12	Diciembre	2023-08-12T00:00:00	2024-11-08T12:00:00	1	Precipitación	0
63504	7	Sololá	701	Sololá	1	Sololá	12	Diciembre	2023-08-12T00:00:00	2024-11-08T12:00:00	8	Radiación solar	300
63505	7	Sololá	701	Sololá	1	Sololá	12	Diciembre	2023-08-12T00:00:00	2024-11-08T13:00:00	2	Temperatura media	21.7
63506	7	Sololá	701	Sololá	1	Sololá	12	Diciembre	2023-08-12T00:00:00	2024-11-08T13:00:00	4	Temperatura máxima	21.9
63507	7	Sololá	701	Sololá	1	Sololá	12	Diciembre	2023-08-12T00:00:00	2024-11-08T13:00:00	3	Temperatura mínima	20.6
63508	7	Sololá	701	Sololá	1	Sololá	12	Diciembre	2023-08-12T00:00:00	2024-11-08T13:00:00	5	Humedad	59
63509	7	Sololá	701	Sololá	1	Sololá	12	Diciembre	2023-08-12T00:00:00	2024-11-08T13:00:00	6	Velocidad del viento	0
63510	7	Sololá	701	Sololá	1	Sololá	12	Diciembre	2023-08-12T00:00:00	2024-11-08T13:00:00	7	Dirección del viento	0
63511	7	Sololá	701	Sololá	1	Sololá	12	Diciembre	2023-08-12T00:00:00	2024-11-08T13:00:00	1	Precipitación	0
63512	7	Sololá	701	Sololá	1	Sololá	12	Diciembre	2023-08-12T00:00:00	2024-11-08T13:00:00	8	Radiación solar	196
63513	7	Sololá	701	Sololá	1	Sololá	12	Diciembre	2023-08-12T00:00:00	2024-11-08T14:00:00	2	Temperatura media	23.8
63514	7	Sololá	701	Sololá	1	Sololá	12	Diciembre	2023-08-12T00:00:00	2024-11-08T14:00:00	4	Temperatura máxima	23.9
63515	7	Sololá	701	Sololá	1	Sololá	12	Diciembre	2023-08-12T00:00:00	2024-11-08T14:00:00	3	Temperatura mínima	21.5
63516	7	Sololá	701	Sololá	1	Sololá	12	Diciembre	2023-08-12T00:00:00	2024-11-08T14:00:00	5	Humedad	51
63517	7	Sololá	701	Sololá	1	Sololá	12	Diciembre	2023-08-12T00:00:00	2024-11-08T14:00:00	6	Velocidad del viento	0
63518	7	Sololá	701	Sololá	1	Sololá	12	Diciembre	2023-08-12T00:00:00	2024-11-08T14:00:00	7	Dirección del viento	0
63519	7	Sololá	701	Sololá	1	Sololá	12	Diciembre	2023-08-12T00:00:00	2024-11-08T14:00:00	1	Precipitación	0
63520	7	Sololá	701	Sololá	1	Sololá	12	Diciembre	2023-08-12T00:00:00	2024-11-08T14:00:00	8	Radiación solar	665
63521	7	Sololá	701	Sololá	1	Sololá	12	Diciembre	2023-08-12T00:00:00	2024-11-08T15:00:00	2	Temperatura media	22.6
63522	7	Sololá	701	Sololá	1	Sololá	12	Diciembre	2023-08-12T00:00:00	2024-11-08T15:00:00	4	Temperatura máxima	24.4
63523	7	Sololá	701	Sololá	1	Sololá	12	Diciembre	2023-08-12T00:00:00	2024-11-08T15:00:00	3	Temperatura mínima	22.6
63524	7	Sololá	701	Sololá	1	Sololá	12	Diciembre	2023-08-12T00:00:00	2024-11-08T15:00:00	5	Humedad	55
63525	7	Sololá	701	Sololá	1	Sololá	12	Diciembre	2023-08-12T00:00:00	2024-11-08T15:00:00	6	Velocidad del viento	0
63526	7	Sololá	701	Sololá	1	Sololá	12	Diciembre	2023-08-12T00:00:00	2024-11-08T15:00:00	7	Dirección del viento	0
63527	7	Sololá	701	Sololá	1	Sololá	12	Diciembre	2023-08-12T00:00:00	2024-11-08T15:00:00	1	Precipitación	0
63528	7	Sololá	701	Sololá	1	Sololá	12	Diciembre	2023-08-12T00:00:00	2024-11-08T15:00:00	8	Radiación solar	114
63529	7	Sololá	701	Sololá	1	Sololá	12	Diciembre	2023-08-12T00:00:00	2024-11-08T16:00:00	2	Temperatura media	21.2
63530	7	Sololá	701	Sololá	1	Sololá	12	Diciembre	2023-08-12T00:00:00	2024-11-08T16:00:00	4	Temperatura máxima	22.6
63531	7	Sololá	701	Sololá	1	Sololá	12	Diciembre	2023-08-12T00:00:00	2024-11-08T16:00:00	3	Temperatura mínima	21.2
63532	7	Sololá	701	Sololá	1	Sololá	12	Diciembre	2023-08-12T00:00:00	2024-11-08T16:00:00	5	Humedad	59
63533	7	Sololá	701	Sololá	1	Sololá	12	Diciembre	2023-08-12T00:00:00	2024-11-08T16:00:00	6	Velocidad del viento	0
63534	7	Sololá	701	Sololá	1	Sololá	12	Diciembre	2023-08-12T00:00:00	2024-11-08T16:00:00	7	Dirección del viento	0
63535	7	Sololá	701	Sololá	1	Sololá	12	Diciembre	2023-08-12T00:00:00	2024-11-08T16:00:00	1	Precipitación	0
63536	7	Sololá	701	Sololá	1	Sololá	12	Diciembre	2023-08-12T00:00:00	2024-11-08T16:00:00	8	Radiación solar	48
63537	7	Sololá	701	Sololá	1	Sololá	12	Diciembre	2023-08-12T00:00:00	2024-11-08T17:00:00	2	Temperatura media	19.2
63538	7	Sololá	701	Sololá	1	Sololá	12	Diciembre	2023-08-12T00:00:00	2024-11-08T17:00:00	4	Temperatura máxima	21.2
63539	7	Sololá	701	Sololá	1	Sololá	12	Diciembre	2023-08-12T00:00:00	2024-11-08T17:00:00	3	Temperatura mínima	19.2
63540	7	Sololá	701	Sololá	1	Sololá	12	Diciembre	2023-08-12T00:00:00	2024-11-08T17:00:00	5	Humedad	67
63541	7	Sololá	701	Sololá	1	Sololá	12	Diciembre	2023-08-12T00:00:00	2024-11-08T17:00:00	6	Velocidad del viento	0
63542	7	Sololá	701	Sololá	1	Sololá	12	Diciembre	2023-08-12T00:00:00	2024-11-08T17:00:00	7	Dirección del viento	0
63543	7	Sololá	701	Sololá	1	Sololá	12	Diciembre	2023-08-12T00:00:00	2024-11-08T17:00:00	1	Precipitación	0
63544	7	Sololá	701	Sololá	1	Sololá	12	Diciembre	2023-08-12T00:00:00	2024-11-08T17:00:00	8	Radiación solar	25
63545	7	Sololá	701	Sololá	1	Sololá	12	Diciembre	2023-08-12T00:00:00	2024-11-08T18:00:00	2	Temperatura media	17
63546	7	Sololá	701	Sololá	1	Sololá	12	Diciembre	2023-08-12T00:00:00	2024-11-08T18:00:00	4	Temperatura máxima	19.2
63547	7	Sololá	701	Sololá	1	Sololá	12	Diciembre	2023-08-12T00:00:00	2024-11-08T18:00:00	3	Temperatura mínima	17
63548	7	Sololá	701	Sololá	1	Sololá	12	Diciembre	2023-08-12T00:00:00	2024-11-08T18:00:00	5	Humedad	75
63549	7	Sololá	701	Sololá	1	Sololá	12	Diciembre	2023-08-12T00:00:00	2024-11-08T18:00:00	6	Velocidad del viento	0
63550	7	Sololá	701	Sololá	1	Sololá	12	Diciembre	2023-08-12T00:00:00	2024-11-08T18:00:00	7	Dirección del viento	0
63551	7	Sololá	701	Sololá	1	Sololá	12	Diciembre	2023-08-12T00:00:00	2024-11-08T18:00:00	1	Precipitación	0
63552	7	Sololá	701	Sololá	1	Sololá	12	Diciembre	2023-08-12T00:00:00	2024-11-08T18:00:00	8	Radiación solar	3
63553	7	Sololá	701	Sololá	1	Sololá	12	Diciembre	2023-08-12T00:00:00	2024-11-08T19:00:00	2	Temperatura media	15.5
63554	7	Sololá	701	Sololá	1	Sololá	12	Diciembre	2023-08-12T00:00:00	2024-11-08T19:00:00	4	Temperatura máxima	17
63555	7	Sololá	701	Sololá	1	Sololá	12	Diciembre	2023-08-12T00:00:00	2024-11-08T19:00:00	3	Temperatura mínima	15.5
63556	7	Sololá	701	Sololá	1	Sololá	12	Diciembre	2023-08-12T00:00:00	2024-11-08T19:00:00	5	Humedad	81
63557	7	Sololá	701	Sololá	1	Sololá	12	Diciembre	2023-08-12T00:00:00	2024-11-08T19:00:00	6	Velocidad del viento	0
63558	7	Sololá	701	Sololá	1	Sololá	12	Diciembre	2023-08-12T00:00:00	2024-11-08T19:00:00	7	Dirección del viento	0
63559	7	Sololá	701	Sololá	1	Sololá	12	Diciembre	2023-08-12T00:00:00	2024-11-08T19:00:00	1	Precipitación	0
63560	7	Sololá	701	Sololá	1	Sololá	12	Diciembre	2023-08-12T00:00:00	2024-11-08T19:00:00	8	Radiación solar	0
63561	7	Sololá	701	Sololá	1	Sololá	12	Diciembre	2023-08-12T00:00:00	2024-11-08T20:00:00	2	Temperatura media	15.1
63562	7	Sololá	701	Sololá	1	Sololá	12	Diciembre	2023-08-12T00:00:00	2024-11-08T20:00:00	4	Temperatura máxima	15.5
63563	7	Sololá	701	Sololá	1	Sololá	12	Diciembre	2023-08-12T00:00:00	2024-11-08T20:00:00	3	Temperatura mínima	15
63564	7	Sololá	701	Sololá	1	Sololá	12	Diciembre	2023-08-12T00:00:00	2024-11-08T20:00:00	5	Humedad	83
63565	7	Sololá	701	Sololá	1	Sololá	12	Diciembre	2023-08-12T00:00:00	2024-11-08T20:00:00	6	Velocidad del viento	0
63566	7	Sololá	701	Sololá	1	Sololá	12	Diciembre	2023-08-12T00:00:00	2024-11-08T20:00:00	7	Dirección del viento	0
63567	7	Sololá	701	Sololá	1	Sololá	12	Diciembre	2023-08-12T00:00:00	2024-11-08T20:00:00	1	Precipitación	0
63568	7	Sololá	701	Sololá	1	Sololá	12	Diciembre	2023-08-12T00:00:00	2024-11-08T20:00:00	8	Radiación solar	0
63569	7	Sololá	701	Sololá	1	Sololá	12	Diciembre	2023-08-12T00:00:00	2024-11-08T21:00:00	2	Temperatura media	14.7
63570	7	Sololá	701	Sololá	1	Sololá	12	Diciembre	2023-08-12T00:00:00	2024-11-08T21:00:00	4	Temperatura máxima	15.1
63571	7	Sololá	701	Sololá	1	Sololá	12	Diciembre	2023-08-12T00:00:00	2024-11-08T21:00:00	3	Temperatura mínima	14.7
63572	7	Sololá	701	Sololá	1	Sololá	12	Diciembre	2023-08-12T00:00:00	2024-11-08T21:00:00	5	Humedad	83
63573	7	Sololá	701	Sololá	1	Sololá	12	Diciembre	2023-08-12T00:00:00	2024-11-08T21:00:00	6	Velocidad del viento	0
63574	7	Sololá	701	Sololá	1	Sololá	12	Diciembre	2023-08-12T00:00:00	2024-11-08T21:00:00	7	Dirección del viento	0
63575	7	Sololá	701	Sololá	1	Sololá	12	Diciembre	2023-08-12T00:00:00	2024-11-08T21:00:00	1	Precipitación	0
63576	7	Sololá	701	Sololá	1	Sololá	12	Diciembre	2023-08-12T00:00:00	2024-11-08T21:00:00	8	Radiación solar	0
63577	7	Sololá	701	Sololá	1	Sololá	12	Diciembre	2023-08-12T00:00:00	2024-11-08T22:00:00	2	Temperatura media	13.7
63578	7	Sololá	701	Sololá	1	Sololá	12	Diciembre	2023-08-12T00:00:00	2024-11-08T22:00:00	4	Temperatura máxima	14.7
63579	7	Sololá	701	Sololá	1	Sololá	12	Diciembre	2023-08-12T00:00:00	2024-11-08T22:00:00	3	Temperatura mínima	13.7
63580	7	Sololá	701	Sololá	1	Sololá	12	Diciembre	2023-08-12T00:00:00	2024-11-08T22:00:00	5	Humedad	86
63581	7	Sololá	701	Sololá	1	Sololá	12	Diciembre	2023-08-12T00:00:00	2024-11-08T22:00:00	6	Velocidad del viento	0
63582	7	Sololá	701	Sololá	1	Sololá	12	Diciembre	2023-08-12T00:00:00	2024-11-08T22:00:00	7	Dirección del viento	0
63583	7	Sololá	701	Sololá	1	Sololá	12	Diciembre	2023-08-12T00:00:00	2024-11-08T22:00:00	1	Precipitación	0
63584	7	Sololá	701	Sololá	1	Sololá	12	Diciembre	2023-08-12T00:00:00	2024-11-08T22:00:00	8	Radiación solar	0
63585	7	Sololá	701	Sololá	1	Sololá	12	Diciembre	2023-08-12T00:00:00	2024-11-08T23:00:00	2	Temperatura media	13.2
63586	7	Sololá	701	Sololá	1	Sololá	12	Diciembre	2023-08-12T00:00:00	2024-11-08T23:00:00	4	Temperatura máxima	13.7
63587	7	Sololá	701	Sololá	1	Sololá	12	Diciembre	2023-08-12T00:00:00	2024-11-08T23:00:00	3	Temperatura mínima	13.2
63588	7	Sololá	701	Sololá	1	Sololá	12	Diciembre	2023-08-12T00:00:00	2024-11-08T23:00:00	5	Humedad	87
63589	7	Sololá	701	Sololá	1	Sololá	12	Diciembre	2023-08-12T00:00:00	2024-11-08T23:00:00	6	Velocidad del viento	0
63590	7	Sololá	701	Sololá	1	Sololá	12	Diciembre	2023-08-12T00:00:00	2024-11-08T23:00:00	7	Dirección del viento	0
63591	7	Sololá	701	Sololá	1	Sololá	12	Diciembre	2023-08-12T00:00:00	2024-11-08T23:00:00	1	Precipitación	0
63592	7	Sololá	701	Sololá	1	Sololá	12	Diciembre	2023-08-12T00:00:00	2024-11-08T23:00:00	8	Radiación solar	0
63593	7	Sololá	701	Sololá	1	Sololá	12	Diciembre	2023-09-12T00:00:00	2024-11-08T00:00:00	2	Temperatura media	13.3
63594	7	Sololá	701	Sololá	1	Sololá	12	Diciembre	2023-09-12T00:00:00	2024-11-08T00:00:00	4	Temperatura máxima	13.3
63595	7	Sololá	701	Sololá	1	Sololá	12	Diciembre	2023-09-12T00:00:00	2024-11-08T00:00:00	3	Temperatura mínima	13.2
63596	7	Sololá	701	Sololá	1	Sololá	12	Diciembre	2023-09-12T00:00:00	2024-11-08T00:00:00	5	Humedad	87
63597	7	Sololá	701	Sololá	1	Sololá	12	Diciembre	2023-09-12T00:00:00	2024-11-08T00:00:00	6	Velocidad del viento	0
63598	7	Sololá	701	Sololá	1	Sololá	12	Diciembre	2023-09-12T00:00:00	2024-11-08T00:00:00	7	Dirección del viento	0
63599	7	Sololá	701	Sololá	1	Sololá	12	Diciembre	2023-09-12T00:00:00	2024-11-08T00:00:00	1	Precipitación	0
63600	7	Sololá	701	Sololá	1	Sololá	12	Diciembre	2023-09-12T00:00:00	2024-11-08T00:00:00	8	Radiación solar	0
63601	7	Sololá	701	Sololá	1	Sololá	12	Diciembre	2023-09-12T00:00:00	2024-11-08T01:00:00	2	Temperatura media	13.3
63602	7	Sololá	701	Sololá	1	Sololá	12	Diciembre	2023-09-12T00:00:00	2024-11-08T01:00:00	4	Temperatura máxima	13.3
63603	7	Sololá	701	Sololá	1	Sololá	12	Diciembre	2023-09-12T00:00:00	2024-11-08T01:00:00	3	Temperatura mínima	13.2
63604	7	Sololá	701	Sololá	1	Sololá	12	Diciembre	2023-09-12T00:00:00	2024-11-08T01:00:00	5	Humedad	86
63605	7	Sololá	701	Sololá	1	Sololá	12	Diciembre	2023-09-12T00:00:00	2024-11-08T01:00:00	6	Velocidad del viento	0
63606	7	Sololá	701	Sololá	1	Sololá	12	Diciembre	2023-09-12T00:00:00	2024-11-08T01:00:00	7	Dirección del viento	0
63607	7	Sololá	701	Sololá	1	Sololá	12	Diciembre	2023-09-12T00:00:00	2024-11-08T01:00:00	1	Precipitación	0
63608	7	Sololá	701	Sololá	1	Sololá	12	Diciembre	2023-09-12T00:00:00	2024-11-08T01:00:00	8	Radiación solar	0
63609	7	Sololá	701	Sololá	1	Sololá	12	Diciembre	2023-09-12T00:00:00	2024-11-08T02:00:00	2	Temperatura media	12.9
63610	7	Sololá	701	Sololá	1	Sololá	12	Diciembre	2023-09-12T00:00:00	2024-11-08T02:00:00	4	Temperatura máxima	13.3
63611	7	Sololá	701	Sololá	1	Sololá	12	Diciembre	2023-09-12T00:00:00	2024-11-08T02:00:00	3	Temperatura mínima	12.8
63612	7	Sololá	701	Sololá	1	Sololá	12	Diciembre	2023-09-12T00:00:00	2024-11-08T02:00:00	5	Humedad	85
63613	7	Sololá	701	Sololá	1	Sololá	12	Diciembre	2023-09-12T00:00:00	2024-11-08T02:00:00	6	Velocidad del viento	0
63614	7	Sololá	701	Sololá	1	Sololá	12	Diciembre	2023-09-12T00:00:00	2024-11-08T02:00:00	7	Dirección del viento	0
63615	7	Sololá	701	Sololá	1	Sololá	12	Diciembre	2023-09-12T00:00:00	2024-11-08T02:00:00	1	Precipitación	0
63616	7	Sololá	701	Sololá	1	Sololá	12	Diciembre	2023-09-12T00:00:00	2024-11-08T02:00:00	8	Radiación solar	0
63617	7	Sololá	701	Sololá	1	Sololá	12	Diciembre	2023-09-12T00:00:00	2024-11-08T03:00:00	2	Temperatura media	12.4
63618	7	Sololá	701	Sololá	1	Sololá	12	Diciembre	2023-09-12T00:00:00	2024-11-08T03:00:00	4	Temperatura máxima	12.9
63619	7	Sololá	701	Sololá	1	Sololá	12	Diciembre	2023-09-12T00:00:00	2024-11-08T03:00:00	3	Temperatura mínima	12.4
63620	7	Sololá	701	Sololá	1	Sololá	12	Diciembre	2023-09-12T00:00:00	2024-11-08T03:00:00	5	Humedad	85
63621	7	Sololá	701	Sololá	1	Sololá	12	Diciembre	2023-09-12T00:00:00	2024-11-08T03:00:00	6	Velocidad del viento	0
63622	7	Sololá	701	Sololá	1	Sololá	12	Diciembre	2023-09-12T00:00:00	2024-11-08T03:00:00	7	Dirección del viento	0
63623	7	Sololá	701	Sololá	1	Sololá	12	Diciembre	2023-09-12T00:00:00	2024-11-08T03:00:00	1	Precipitación	0
63624	7	Sololá	701	Sololá	1	Sololá	12	Diciembre	2023-09-12T00:00:00	2024-11-08T03:00:00	8	Radiación solar	0
63625	7	Sololá	701	Sololá	1	Sololá	12	Diciembre	2023-09-12T00:00:00	2024-11-08T04:00:00	2	Temperatura media	11.8
63626	7	Sololá	701	Sololá	1	Sololá	12	Diciembre	2023-09-12T00:00:00	2024-11-08T04:00:00	4	Temperatura máxima	12.4
63627	7	Sololá	701	Sololá	1	Sololá	12	Diciembre	2023-09-12T00:00:00	2024-11-08T04:00:00	3	Temperatura mínima	11.8
63628	7	Sololá	701	Sololá	1	Sololá	12	Diciembre	2023-09-12T00:00:00	2024-11-08T04:00:00	5	Humedad	85
63629	7	Sololá	701	Sololá	1	Sololá	12	Diciembre	2023-09-12T00:00:00	2024-11-08T04:00:00	6	Velocidad del viento	0
63630	7	Sololá	701	Sololá	1	Sololá	12	Diciembre	2023-09-12T00:00:00	2024-11-08T04:00:00	7	Dirección del viento	0
63631	7	Sololá	701	Sololá	1	Sololá	12	Diciembre	2023-09-12T00:00:00	2024-11-08T04:00:00	1	Precipitación	0
63632	7	Sololá	701	Sololá	1	Sololá	12	Diciembre	2023-09-12T00:00:00	2024-11-08T04:00:00	8	Radiación solar	0
63633	7	Sololá	701	Sololá	1	Sololá	12	Diciembre	2023-09-12T00:00:00	2024-11-08T05:00:00	2	Temperatura media	10.7
63634	7	Sololá	701	Sololá	1	Sololá	12	Diciembre	2023-09-12T00:00:00	2024-11-08T05:00:00	4	Temperatura máxima	11.8
63635	7	Sololá	701	Sololá	1	Sololá	12	Diciembre	2023-09-12T00:00:00	2024-11-08T05:00:00	3	Temperatura mínima	10.7
63636	7	Sololá	701	Sololá	1	Sololá	12	Diciembre	2023-09-12T00:00:00	2024-11-08T05:00:00	5	Humedad	84
63637	7	Sololá	701	Sololá	1	Sololá	12	Diciembre	2023-09-12T00:00:00	2024-11-08T05:00:00	6	Velocidad del viento	0
63638	7	Sololá	701	Sololá	1	Sololá	12	Diciembre	2023-09-12T00:00:00	2024-11-08T05:00:00	7	Dirección del viento	0
63639	7	Sololá	701	Sololá	1	Sololá	12	Diciembre	2023-09-12T00:00:00	2024-11-08T05:00:00	1	Precipitación	0
63640	7	Sololá	701	Sololá	1	Sololá	12	Diciembre	2023-09-12T00:00:00	2024-11-08T05:00:00	8	Radiación solar	0
63641	7	Sololá	701	Sololá	1	Sololá	12	Diciembre	2023-09-12T00:00:00	2024-11-08T06:00:00	2	Temperatura media	10.8
63642	7	Sololá	701	Sololá	1	Sololá	12	Diciembre	2023-09-12T00:00:00	2024-11-08T06:00:00	4	Temperatura máxima	10.9
63643	7	Sololá	701	Sololá	1	Sololá	12	Diciembre	2023-09-12T00:00:00	2024-11-08T06:00:00	3	Temperatura mínima	10.4
63644	7	Sololá	701	Sololá	1	Sololá	12	Diciembre	2023-09-12T00:00:00	2024-11-08T06:00:00	5	Humedad	83
63645	7	Sololá	701	Sololá	1	Sololá	12	Diciembre	2023-09-12T00:00:00	2024-11-08T06:00:00	6	Velocidad del viento	0
63646	7	Sololá	701	Sololá	1	Sololá	12	Diciembre	2023-09-12T00:00:00	2024-11-08T06:00:00	7	Dirección del viento	0
63647	7	Sololá	701	Sololá	1	Sololá	12	Diciembre	2023-09-12T00:00:00	2024-11-08T06:00:00	1	Precipitación	0
63648	7	Sololá	701	Sololá	1	Sololá	12	Diciembre	2023-09-12T00:00:00	2024-11-08T06:00:00	8	Radiación solar	0
63649	7	Sololá	701	Sololá	1	Sololá	12	Diciembre	2023-09-12T00:00:00	2024-11-08T07:00:00	2	Temperatura media	10.6
63650	7	Sololá	701	Sololá	1	Sololá	12	Diciembre	2023-09-12T00:00:00	2024-11-08T07:00:00	4	Temperatura máxima	10.8
63651	7	Sololá	701	Sololá	1	Sololá	12	Diciembre	2023-09-12T00:00:00	2024-11-08T07:00:00	3	Temperatura mínima	10.4
63652	7	Sololá	701	Sololá	1	Sololá	12	Diciembre	2023-09-12T00:00:00	2024-11-08T07:00:00	5	Humedad	86
63653	7	Sololá	701	Sololá	1	Sololá	12	Diciembre	2023-09-12T00:00:00	2024-11-08T07:00:00	6	Velocidad del viento	0
63654	7	Sololá	701	Sololá	1	Sololá	12	Diciembre	2023-09-12T00:00:00	2024-11-08T07:00:00	7	Dirección del viento	0
63655	7	Sololá	701	Sololá	1	Sololá	12	Diciembre	2023-09-12T00:00:00	2024-11-08T07:00:00	1	Precipitación	0
63656	7	Sololá	701	Sololá	1	Sololá	12	Diciembre	2023-09-12T00:00:00	2024-11-08T07:00:00	8	Radiación solar	6
63657	7	Sololá	701	Sololá	1	Sololá	12	Diciembre	2023-09-12T00:00:00	2024-11-08T08:00:00	2	Temperatura media	14.7
63658	7	Sololá	701	Sololá	1	Sololá	12	Diciembre	2023-09-12T00:00:00	2024-11-08T08:00:00	4	Temperatura máxima	14.7
63659	7	Sololá	701	Sololá	1	Sololá	12	Diciembre	2023-09-12T00:00:00	2024-11-08T08:00:00	3	Temperatura mínima	10.6
63660	7	Sololá	701	Sololá	1	Sololá	12	Diciembre	2023-09-12T00:00:00	2024-11-08T08:00:00	5	Humedad	80
63661	7	Sololá	701	Sololá	1	Sololá	12	Diciembre	2023-09-12T00:00:00	2024-11-08T08:00:00	6	Velocidad del viento	0
63662	7	Sololá	701	Sololá	1	Sololá	12	Diciembre	2023-09-12T00:00:00	2024-11-08T08:00:00	7	Dirección del viento	0
63663	7	Sololá	701	Sololá	1	Sololá	12	Diciembre	2023-09-12T00:00:00	2024-11-08T08:00:00	1	Precipitación	0
63664	7	Sololá	701	Sololá	1	Sololá	12	Diciembre	2023-09-12T00:00:00	2024-11-08T08:00:00	8	Radiación solar	109
63665	7	Sololá	701	Sololá	1	Sololá	12	Diciembre	2023-09-12T00:00:00	2024-11-08T09:00:00	2	Temperatura media	21.7
63666	7	Sololá	701	Sololá	1	Sololá	12	Diciembre	2023-09-12T00:00:00	2024-11-08T09:00:00	4	Temperatura máxima	21.8
63667	7	Sololá	701	Sololá	1	Sololá	12	Diciembre	2023-09-12T00:00:00	2024-11-08T09:00:00	3	Temperatura mínima	14.7
63668	7	Sololá	701	Sololá	1	Sololá	12	Diciembre	2023-09-12T00:00:00	2024-11-08T09:00:00	5	Humedad	51
63669	7	Sololá	701	Sololá	1	Sololá	12	Diciembre	2023-09-12T00:00:00	2024-11-08T09:00:00	6	Velocidad del viento	0
63670	7	Sololá	701	Sololá	1	Sololá	12	Diciembre	2023-09-12T00:00:00	2024-11-08T09:00:00	7	Dirección del viento	0
63671	7	Sololá	701	Sololá	1	Sololá	12	Diciembre	2023-09-12T00:00:00	2024-11-08T09:00:00	1	Precipitación	0
63672	7	Sololá	701	Sololá	1	Sololá	12	Diciembre	2023-09-12T00:00:00	2024-11-08T09:00:00	8	Radiación solar	508
63673	7	Sololá	701	Sololá	1	Sololá	12	Diciembre	2023-09-12T00:00:00	2024-11-08T10:00:00	2	Temperatura media	23.1
63674	7	Sololá	701	Sololá	1	Sololá	12	Diciembre	2023-09-12T00:00:00	2024-11-08T10:00:00	4	Temperatura máxima	23.1
63675	7	Sololá	701	Sololá	1	Sololá	12	Diciembre	2023-09-12T00:00:00	2024-11-08T10:00:00	3	Temperatura mínima	21.7
63676	7	Sololá	701	Sololá	1	Sololá	12	Diciembre	2023-09-12T00:00:00	2024-11-08T10:00:00	5	Humedad	50
63677	7	Sololá	701	Sololá	1	Sololá	12	Diciembre	2023-09-12T00:00:00	2024-11-08T10:00:00	6	Velocidad del viento	0
63678	7	Sololá	701	Sololá	1	Sololá	12	Diciembre	2023-09-12T00:00:00	2024-11-08T10:00:00	7	Dirección del viento	0
63679	7	Sololá	701	Sololá	1	Sololá	12	Diciembre	2023-09-12T00:00:00	2024-11-08T10:00:00	1	Precipitación	0
63680	7	Sololá	701	Sololá	1	Sololá	12	Diciembre	2023-09-12T00:00:00	2024-11-08T10:00:00	8	Radiación solar	677
63681	7	Sololá	701	Sololá	1	Sololá	12	Diciembre	2023-09-12T00:00:00	2024-11-08T11:00:00	2	Temperatura media	24.2
63682	7	Sololá	701	Sololá	1	Sololá	12	Diciembre	2023-09-12T00:00:00	2024-11-08T11:00:00	4	Temperatura máxima	24.2
63683	7	Sololá	701	Sololá	1	Sololá	12	Diciembre	2023-09-12T00:00:00	2024-11-08T11:00:00	3	Temperatura mínima	23.1
63684	7	Sololá	701	Sololá	1	Sololá	12	Diciembre	2023-09-12T00:00:00	2024-11-08T11:00:00	5	Humedad	41
63685	7	Sololá	701	Sololá	1	Sololá	12	Diciembre	2023-09-12T00:00:00	2024-11-08T11:00:00	6	Velocidad del viento	0
63686	7	Sololá	701	Sololá	1	Sololá	12	Diciembre	2023-09-12T00:00:00	2024-11-08T11:00:00	7	Dirección del viento	0
63687	7	Sololá	701	Sololá	1	Sololá	12	Diciembre	2023-09-12T00:00:00	2024-11-08T11:00:00	1	Precipitación	0
63688	7	Sololá	701	Sololá	1	Sololá	12	Diciembre	2023-09-12T00:00:00	2024-11-08T11:00:00	8	Radiación solar	822
63689	7	Sololá	701	Sololá	1	Sololá	12	Diciembre	2023-09-12T00:00:00	2024-11-08T12:00:00	2	Temperatura media	24.8
63690	7	Sololá	701	Sololá	1	Sololá	12	Diciembre	2023-09-12T00:00:00	2024-11-08T12:00:00	4	Temperatura máxima	25.2
63691	7	Sololá	701	Sololá	1	Sololá	12	Diciembre	2023-09-12T00:00:00	2024-11-08T12:00:00	3	Temperatura mínima	24.1
63692	7	Sololá	701	Sololá	1	Sololá	12	Diciembre	2023-09-12T00:00:00	2024-11-08T12:00:00	5	Humedad	44
63693	7	Sololá	701	Sololá	1	Sololá	12	Diciembre	2023-09-12T00:00:00	2024-11-08T12:00:00	6	Velocidad del viento	0
63694	7	Sololá	701	Sololá	1	Sololá	12	Diciembre	2023-09-12T00:00:00	2024-11-08T12:00:00	7	Dirección del viento	0
63695	7	Sololá	701	Sololá	1	Sololá	12	Diciembre	2023-09-12T00:00:00	2024-11-08T12:00:00	1	Precipitación	0
63696	7	Sololá	701	Sololá	1	Sololá	12	Diciembre	2023-09-12T00:00:00	2024-11-08T12:00:00	8	Radiación solar	871
63697	7	Sololá	701	Sololá	1	Sololá	12	Diciembre	2023-09-12T00:00:00	2024-11-08T13:00:00	2	Temperatura media	25.3
63698	7	Sololá	701	Sololá	1	Sololá	12	Diciembre	2023-09-12T00:00:00	2024-11-08T13:00:00	4	Temperatura máxima	25.4
63699	7	Sololá	701	Sololá	1	Sololá	12	Diciembre	2023-09-12T00:00:00	2024-11-08T13:00:00	3	Temperatura mínima	24.8
63700	7	Sololá	701	Sololá	1	Sololá	12	Diciembre	2023-09-12T00:00:00	2024-11-08T13:00:00	5	Humedad	42
63701	7	Sololá	701	Sololá	1	Sololá	12	Diciembre	2023-09-12T00:00:00	2024-11-08T13:00:00	6	Velocidad del viento	0
63702	7	Sololá	701	Sololá	1	Sololá	12	Diciembre	2023-09-12T00:00:00	2024-11-08T13:00:00	7	Dirección del viento	0
63703	7	Sololá	701	Sololá	1	Sololá	12	Diciembre	2023-09-12T00:00:00	2024-11-08T13:00:00	1	Precipitación	0
63704	7	Sololá	701	Sololá	1	Sololá	12	Diciembre	2023-09-12T00:00:00	2024-11-08T13:00:00	8	Radiación solar	808
63705	7	Sololá	701	Sololá	1	Sololá	12	Diciembre	2023-09-12T00:00:00	2024-11-08T14:00:00	2	Temperatura media	24.3
63706	7	Sololá	701	Sololá	1	Sololá	12	Diciembre	2023-09-12T00:00:00	2024-11-08T14:00:00	4	Temperatura máxima	26.1
63707	7	Sololá	701	Sololá	1	Sololá	12	Diciembre	2023-09-12T00:00:00	2024-11-08T14:00:00	3	Temperatura mínima	24.1
63708	7	Sololá	701	Sololá	1	Sololá	12	Diciembre	2023-09-12T00:00:00	2024-11-08T14:00:00	5	Humedad	53
63709	7	Sololá	701	Sololá	1	Sololá	12	Diciembre	2023-09-12T00:00:00	2024-11-08T14:00:00	6	Velocidad del viento	0
63710	7	Sololá	701	Sololá	1	Sololá	12	Diciembre	2023-09-12T00:00:00	2024-11-08T14:00:00	7	Dirección del viento	0
63711	7	Sololá	701	Sololá	1	Sololá	12	Diciembre	2023-09-12T00:00:00	2024-11-08T14:00:00	1	Precipitación	0
63712	7	Sololá	701	Sololá	1	Sololá	12	Diciembre	2023-09-12T00:00:00	2024-11-08T14:00:00	8	Radiación solar	695
63713	7	Sololá	701	Sololá	1	Sololá	12	Diciembre	2023-09-12T00:00:00	2024-11-08T15:00:00	2	Temperatura media	22.4
63714	7	Sololá	701	Sololá	1	Sololá	12	Diciembre	2023-09-12T00:00:00	2024-11-08T15:00:00	4	Temperatura máxima	24.4
63715	7	Sololá	701	Sololá	1	Sololá	12	Diciembre	2023-09-12T00:00:00	2024-11-08T15:00:00	3	Temperatura mínima	22.4
63716	7	Sololá	701	Sololá	1	Sololá	12	Diciembre	2023-09-12T00:00:00	2024-11-08T15:00:00	5	Humedad	66
63717	7	Sololá	701	Sololá	1	Sololá	12	Diciembre	2023-09-12T00:00:00	2024-11-08T15:00:00	6	Velocidad del viento	0
63718	7	Sololá	701	Sololá	1	Sololá	12	Diciembre	2023-09-12T00:00:00	2024-11-08T15:00:00	7	Dirección del viento	0
63719	7	Sololá	701	Sololá	1	Sololá	12	Diciembre	2023-09-12T00:00:00	2024-11-08T15:00:00	1	Precipitación	0
63720	7	Sololá	701	Sololá	1	Sololá	12	Diciembre	2023-09-12T00:00:00	2024-11-08T15:00:00	8	Radiación solar	109
63721	7	Sololá	701	Sololá	1	Sololá	12	Diciembre	2023-09-12T00:00:00	2024-11-08T16:00:00	2	Temperatura media	22.8
63722	7	Sololá	701	Sololá	1	Sololá	12	Diciembre	2023-09-12T00:00:00	2024-11-08T16:00:00	4	Temperatura máxima	22.9
63723	7	Sololá	701	Sololá	1	Sololá	12	Diciembre	2023-09-12T00:00:00	2024-11-08T16:00:00	3	Temperatura mínima	22.3
63724	7	Sololá	701	Sololá	1	Sololá	12	Diciembre	2023-09-12T00:00:00	2024-11-08T16:00:00	5	Humedad	68
63725	7	Sololá	701	Sololá	1	Sololá	12	Diciembre	2023-09-12T00:00:00	2024-11-08T16:00:00	6	Velocidad del viento	0
63726	7	Sololá	701	Sololá	1	Sololá	12	Diciembre	2023-09-12T00:00:00	2024-11-08T16:00:00	7	Dirección del viento	0
63727	7	Sololá	701	Sololá	1	Sololá	12	Diciembre	2023-09-12T00:00:00	2024-11-08T16:00:00	1	Precipitación	0
63728	7	Sololá	701	Sololá	1	Sololá	12	Diciembre	2023-09-12T00:00:00	2024-11-08T16:00:00	8	Radiación solar	80
63729	7	Sololá	701	Sololá	1	Sololá	12	Diciembre	2023-09-12T00:00:00	2024-11-08T17:00:00	2	Temperatura media	20.9
63730	7	Sololá	701	Sololá	1	Sololá	12	Diciembre	2023-09-12T00:00:00	2024-11-08T17:00:00	4	Temperatura máxima	22.8
63731	7	Sololá	701	Sololá	1	Sololá	12	Diciembre	2023-09-12T00:00:00	2024-11-08T17:00:00	3	Temperatura mínima	20.9
63732	7	Sololá	701	Sololá	1	Sololá	12	Diciembre	2023-09-12T00:00:00	2024-11-08T17:00:00	5	Humedad	45
63733	7	Sololá	701	Sololá	1	Sololá	12	Diciembre	2023-09-12T00:00:00	2024-11-08T17:00:00	6	Velocidad del viento	0
63734	7	Sololá	701	Sololá	1	Sololá	12	Diciembre	2023-09-12T00:00:00	2024-11-08T17:00:00	7	Dirección del viento	0
63735	7	Sololá	701	Sololá	1	Sololá	12	Diciembre	2023-09-12T00:00:00	2024-11-08T17:00:00	1	Precipitación	0
63736	7	Sololá	701	Sololá	1	Sololá	12	Diciembre	2023-09-12T00:00:00	2024-11-08T17:00:00	8	Radiación solar	80
63737	7	Sololá	701	Sololá	1	Sololá	12	Diciembre	2023-09-12T00:00:00	2024-11-08T18:00:00	2	Temperatura media	17.2
63738	7	Sololá	701	Sololá	1	Sololá	12	Diciembre	2023-09-12T00:00:00	2024-11-08T18:00:00	4	Temperatura máxima	20.9
63739	7	Sololá	701	Sololá	1	Sololá	12	Diciembre	2023-09-12T00:00:00	2024-11-08T18:00:00	3	Temperatura mínima	17.2
63740	7	Sololá	701	Sololá	1	Sololá	12	Diciembre	2023-09-12T00:00:00	2024-11-08T18:00:00	5	Humedad	60
63741	7	Sololá	701	Sololá	1	Sololá	12	Diciembre	2023-09-12T00:00:00	2024-11-08T18:00:00	6	Velocidad del viento	0
63742	7	Sololá	701	Sololá	1	Sololá	12	Diciembre	2023-09-12T00:00:00	2024-11-08T18:00:00	7	Dirección del viento	0
63743	7	Sololá	701	Sololá	1	Sololá	12	Diciembre	2023-09-12T00:00:00	2024-11-08T18:00:00	1	Precipitación	0
63744	7	Sololá	701	Sololá	1	Sololá	12	Diciembre	2023-09-12T00:00:00	2024-11-08T18:00:00	8	Radiación solar	7
63745	7	Sololá	701	Sololá	1	Sololá	12	Diciembre	2023-09-12T00:00:00	2024-11-08T19:00:00	2	Temperatura media	16.4
63746	7	Sololá	701	Sololá	1	Sololá	12	Diciembre	2023-09-12T00:00:00	2024-11-08T19:00:00	4	Temperatura máxima	17.1
63747	7	Sololá	701	Sololá	1	Sololá	12	Diciembre	2023-09-12T00:00:00	2024-11-08T19:00:00	3	Temperatura mínima	16.2
63748	7	Sololá	701	Sololá	1	Sololá	12	Diciembre	2023-09-12T00:00:00	2024-11-08T19:00:00	5	Humedad	76
63749	7	Sololá	701	Sololá	1	Sololá	12	Diciembre	2023-09-12T00:00:00	2024-11-08T19:00:00	6	Velocidad del viento	0
63750	7	Sololá	701	Sololá	1	Sololá	12	Diciembre	2023-09-12T00:00:00	2024-11-08T19:00:00	7	Dirección del viento	0
63751	7	Sololá	701	Sololá	1	Sololá	12	Diciembre	2023-09-12T00:00:00	2024-11-08T19:00:00	1	Precipitación	0
63752	7	Sololá	701	Sololá	1	Sololá	12	Diciembre	2023-09-12T00:00:00	2024-11-08T19:00:00	8	Radiación solar	0
63753	7	Sololá	701	Sololá	1	Sololá	12	Diciembre	2023-09-12T00:00:00	2024-11-08T20:00:00	2	Temperatura media	15.8
63754	7	Sololá	701	Sololá	1	Sololá	12	Diciembre	2023-09-12T00:00:00	2024-11-08T20:00:00	4	Temperatura máxima	16.4
63755	7	Sololá	701	Sololá	1	Sololá	12	Diciembre	2023-09-12T00:00:00	2024-11-08T20:00:00	3	Temperatura mínima	15.7
63756	7	Sololá	701	Sololá	1	Sololá	12	Diciembre	2023-09-12T00:00:00	2024-11-08T20:00:00	5	Humedad	80
63757	7	Sololá	701	Sololá	1	Sololá	12	Diciembre	2023-09-12T00:00:00	2024-11-08T20:00:00	6	Velocidad del viento	0
63758	7	Sololá	701	Sololá	1	Sololá	12	Diciembre	2023-09-12T00:00:00	2024-11-08T20:00:00	7	Dirección del viento	0
63759	7	Sololá	701	Sololá	1	Sololá	12	Diciembre	2023-09-12T00:00:00	2024-11-08T20:00:00	1	Precipitación	0
63760	7	Sololá	701	Sololá	1	Sololá	12	Diciembre	2023-09-12T00:00:00	2024-11-08T20:00:00	8	Radiación solar	0
63761	7	Sololá	701	Sololá	1	Sololá	12	Diciembre	2023-09-12T00:00:00	2024-11-08T21:00:00	2	Temperatura media	14.6
63762	7	Sololá	701	Sololá	1	Sololá	12	Diciembre	2023-09-12T00:00:00	2024-11-08T21:00:00	4	Temperatura máxima	15.8
63763	7	Sololá	701	Sololá	1	Sololá	12	Diciembre	2023-09-12T00:00:00	2024-11-08T21:00:00	3	Temperatura mínima	14.5
63764	7	Sololá	701	Sololá	1	Sololá	12	Diciembre	2023-09-12T00:00:00	2024-11-08T21:00:00	5	Humedad	82
63765	7	Sololá	701	Sololá	1	Sololá	12	Diciembre	2023-09-12T00:00:00	2024-11-08T21:00:00	6	Velocidad del viento	0
63766	7	Sololá	701	Sololá	1	Sololá	12	Diciembre	2023-09-12T00:00:00	2024-11-08T21:00:00	7	Dirección del viento	0
63767	7	Sololá	701	Sololá	1	Sololá	12	Diciembre	2023-09-12T00:00:00	2024-11-08T21:00:00	1	Precipitación	0
63768	7	Sololá	701	Sololá	1	Sololá	12	Diciembre	2023-09-12T00:00:00	2024-11-08T21:00:00	8	Radiación solar	0
63769	7	Sololá	701	Sololá	1	Sololá	12	Diciembre	2023-09-12T00:00:00	2024-11-08T22:00:00	2	Temperatura media	13.4
63770	7	Sololá	701	Sololá	1	Sololá	12	Diciembre	2023-09-12T00:00:00	2024-11-08T22:00:00	4	Temperatura máxima	14.6
63771	7	Sololá	701	Sololá	1	Sololá	12	Diciembre	2023-09-12T00:00:00	2024-11-08T22:00:00	3	Temperatura mínima	13.4
63772	7	Sololá	701	Sololá	1	Sololá	12	Diciembre	2023-09-12T00:00:00	2024-11-08T22:00:00	5	Humedad	84
63773	7	Sololá	701	Sololá	1	Sololá	12	Diciembre	2023-09-12T00:00:00	2024-11-08T22:00:00	6	Velocidad del viento	0
63774	7	Sololá	701	Sololá	1	Sololá	12	Diciembre	2023-09-12T00:00:00	2024-11-08T22:00:00	7	Dirección del viento	0
63775	7	Sololá	701	Sololá	1	Sololá	12	Diciembre	2023-09-12T00:00:00	2024-11-08T22:00:00	1	Precipitación	0
63776	7	Sololá	701	Sololá	1	Sololá	12	Diciembre	2023-09-12T00:00:00	2024-11-08T22:00:00	8	Radiación solar	0
63777	7	Sololá	701	Sololá	1	Sololá	12	Diciembre	2023-09-12T00:00:00	2024-11-08T23:00:00	2	Temperatura media	13.2
63778	7	Sololá	701	Sololá	1	Sololá	12	Diciembre	2023-09-12T00:00:00	2024-11-08T23:00:00	4	Temperatura máxima	13.6
63779	7	Sololá	701	Sololá	1	Sololá	12	Diciembre	2023-09-12T00:00:00	2024-11-08T23:00:00	3	Temperatura mínima	13.2
63780	7	Sololá	701	Sololá	1	Sololá	12	Diciembre	2023-09-12T00:00:00	2024-11-08T23:00:00	5	Humedad	83
63781	7	Sololá	701	Sololá	1	Sololá	12	Diciembre	2023-09-12T00:00:00	2024-11-08T23:00:00	6	Velocidad del viento	0
63782	7	Sololá	701	Sololá	1	Sololá	12	Diciembre	2023-09-12T00:00:00	2024-11-08T23:00:00	7	Dirección del viento	0
63783	7	Sololá	701	Sololá	1	Sololá	12	Diciembre	2023-09-12T00:00:00	2024-11-08T23:00:00	1	Precipitación	0
63784	7	Sololá	701	Sololá	1	Sololá	12	Diciembre	2023-09-12T00:00:00	2024-11-08T23:00:00	8	Radiación solar	0
63785	7	Sololá	701	Sololá	1	Sololá	12	Diciembre	2023-10-12T00:00:00	2024-11-08T00:00:00	2	Temperatura media	11.8
63786	7	Sololá	701	Sololá	1	Sololá	12	Diciembre	2023-10-12T00:00:00	2024-11-08T00:00:00	4	Temperatura máxima	13.2
63787	7	Sololá	701	Sololá	1	Sololá	12	Diciembre	2023-10-12T00:00:00	2024-11-08T00:00:00	3	Temperatura mínima	11.8
63788	7	Sololá	701	Sololá	1	Sololá	12	Diciembre	2023-10-12T00:00:00	2024-11-08T00:00:00	5	Humedad	80
63789	7	Sololá	701	Sololá	1	Sololá	12	Diciembre	2023-10-12T00:00:00	2024-11-08T00:00:00	6	Velocidad del viento	0
63790	7	Sololá	701	Sololá	1	Sololá	12	Diciembre	2023-10-12T00:00:00	2024-11-08T00:00:00	7	Dirección del viento	0
63791	7	Sololá	701	Sololá	1	Sololá	12	Diciembre	2023-10-12T00:00:00	2024-11-08T00:00:00	1	Precipitación	0
63792	7	Sololá	701	Sololá	1	Sololá	12	Diciembre	2023-10-12T00:00:00	2024-11-08T00:00:00	8	Radiación solar	0
63793	7	Sololá	701	Sololá	1	Sololá	12	Diciembre	2023-10-12T00:00:00	2024-11-08T01:00:00	2	Temperatura media	11.6
63794	7	Sololá	701	Sololá	1	Sololá	12	Diciembre	2023-10-12T00:00:00	2024-11-08T01:00:00	4	Temperatura máxima	11.8
63795	7	Sololá	701	Sololá	1	Sololá	12	Diciembre	2023-10-12T00:00:00	2024-11-08T01:00:00	3	Temperatura mínima	11.6
63796	7	Sololá	701	Sololá	1	Sololá	12	Diciembre	2023-10-12T00:00:00	2024-11-08T01:00:00	5	Humedad	83
63797	7	Sololá	701	Sololá	1	Sololá	12	Diciembre	2023-10-12T00:00:00	2024-11-08T01:00:00	6	Velocidad del viento	0
63798	7	Sololá	701	Sololá	1	Sololá	12	Diciembre	2023-10-12T00:00:00	2024-11-08T01:00:00	7	Dirección del viento	0
63799	7	Sololá	701	Sololá	1	Sololá	12	Diciembre	2023-10-12T00:00:00	2024-11-08T01:00:00	1	Precipitación	0
63800	7	Sololá	701	Sololá	1	Sololá	12	Diciembre	2023-10-12T00:00:00	2024-11-08T01:00:00	8	Radiación solar	0
63801	7	Sololá	701	Sololá	1	Sololá	12	Diciembre	2023-10-12T00:00:00	2024-11-08T02:00:00	2	Temperatura media	11.1
63802	7	Sololá	701	Sololá	1	Sololá	12	Diciembre	2023-10-12T00:00:00	2024-11-08T02:00:00	4	Temperatura máxima	11.6
63803	7	Sololá	701	Sololá	1	Sololá	12	Diciembre	2023-10-12T00:00:00	2024-11-08T02:00:00	3	Temperatura mínima	11.1
63804	7	Sololá	701	Sololá	1	Sololá	12	Diciembre	2023-10-12T00:00:00	2024-11-08T02:00:00	5	Humedad	83
63805	7	Sololá	701	Sololá	1	Sololá	12	Diciembre	2023-10-12T00:00:00	2024-11-08T02:00:00	6	Velocidad del viento	0
63806	7	Sololá	701	Sololá	1	Sololá	12	Diciembre	2023-10-12T00:00:00	2024-11-08T02:00:00	7	Dirección del viento	0
63807	7	Sololá	701	Sololá	1	Sololá	12	Diciembre	2023-10-12T00:00:00	2024-11-08T02:00:00	1	Precipitación	0
63808	7	Sololá	701	Sololá	1	Sololá	12	Diciembre	2023-10-12T00:00:00	2024-11-08T02:00:00	8	Radiación solar	0
63809	7	Sololá	701	Sololá	1	Sololá	12	Diciembre	2023-10-12T00:00:00	2024-11-08T03:00:00	2	Temperatura media	10.7
63810	7	Sololá	701	Sololá	1	Sololá	12	Diciembre	2023-10-12T00:00:00	2024-11-08T03:00:00	4	Temperatura máxima	11.1
63811	7	Sololá	701	Sololá	1	Sololá	12	Diciembre	2023-10-12T00:00:00	2024-11-08T03:00:00	3	Temperatura mínima	10.7
63812	7	Sololá	701	Sololá	1	Sololá	12	Diciembre	2023-10-12T00:00:00	2024-11-08T03:00:00	5	Humedad	81
63813	7	Sololá	701	Sololá	1	Sololá	12	Diciembre	2023-10-12T00:00:00	2024-11-08T03:00:00	6	Velocidad del viento	0
63814	7	Sololá	701	Sololá	1	Sololá	12	Diciembre	2023-10-12T00:00:00	2024-11-08T03:00:00	7	Dirección del viento	0
63815	7	Sololá	701	Sololá	1	Sololá	12	Diciembre	2023-10-12T00:00:00	2024-11-08T03:00:00	1	Precipitación	0
63816	7	Sololá	701	Sololá	1	Sololá	12	Diciembre	2023-10-12T00:00:00	2024-11-08T03:00:00	8	Radiación solar	0
63817	7	Sololá	701	Sololá	1	Sololá	12	Diciembre	2023-10-12T00:00:00	2024-11-08T04:00:00	2	Temperatura media	10.8
63818	7	Sololá	701	Sololá	1	Sololá	12	Diciembre	2023-10-12T00:00:00	2024-11-08T04:00:00	4	Temperatura máxima	10.8
63819	7	Sololá	701	Sololá	1	Sololá	12	Diciembre	2023-10-12T00:00:00	2024-11-08T04:00:00	3	Temperatura mínima	10.6
63820	7	Sololá	701	Sololá	1	Sololá	12	Diciembre	2023-10-12T00:00:00	2024-11-08T04:00:00	5	Humedad	80
63821	7	Sololá	701	Sololá	1	Sololá	12	Diciembre	2023-10-12T00:00:00	2024-11-08T04:00:00	6	Velocidad del viento	0
63822	7	Sololá	701	Sololá	1	Sololá	12	Diciembre	2023-10-12T00:00:00	2024-11-08T04:00:00	7	Dirección del viento	0
63823	7	Sololá	701	Sololá	1	Sololá	12	Diciembre	2023-10-12T00:00:00	2024-11-08T04:00:00	1	Precipitación	0
63824	7	Sololá	701	Sololá	1	Sololá	12	Diciembre	2023-10-12T00:00:00	2024-11-08T04:00:00	8	Radiación solar	0
63825	7	Sololá	701	Sololá	1	Sololá	12	Diciembre	2023-10-12T00:00:00	2024-11-08T05:00:00	2	Temperatura media	11.5
63826	7	Sololá	701	Sololá	1	Sololá	12	Diciembre	2023-10-12T00:00:00	2024-11-08T05:00:00	4	Temperatura máxima	11.5
63827	7	Sololá	701	Sololá	1	Sololá	12	Diciembre	2023-10-12T00:00:00	2024-11-08T05:00:00	3	Temperatura mínima	10.8
63828	7	Sololá	701	Sololá	1	Sololá	12	Diciembre	2023-10-12T00:00:00	2024-11-08T05:00:00	5	Humedad	74
63829	7	Sololá	701	Sololá	1	Sololá	12	Diciembre	2023-10-12T00:00:00	2024-11-08T05:00:00	6	Velocidad del viento	0
63830	7	Sololá	701	Sololá	1	Sololá	12	Diciembre	2023-10-12T00:00:00	2024-11-08T05:00:00	7	Dirección del viento	0
63831	7	Sololá	701	Sololá	1	Sololá	12	Diciembre	2023-10-12T00:00:00	2024-11-08T05:00:00	1	Precipitación	0
63832	7	Sololá	701	Sololá	1	Sololá	12	Diciembre	2023-10-12T00:00:00	2024-11-08T05:00:00	8	Radiación solar	0
63833	7	Sololá	701	Sololá	1	Sololá	12	Diciembre	2023-10-12T00:00:00	2024-11-08T06:00:00	2	Temperatura media	10.7
63834	7	Sololá	701	Sololá	1	Sololá	12	Diciembre	2023-10-12T00:00:00	2024-11-08T06:00:00	4	Temperatura máxima	11.5
63835	7	Sololá	701	Sololá	1	Sololá	12	Diciembre	2023-10-12T00:00:00	2024-11-08T06:00:00	3	Temperatura mínima	10.7
63836	7	Sololá	701	Sololá	1	Sololá	12	Diciembre	2023-10-12T00:00:00	2024-11-08T06:00:00	5	Humedad	78
63837	7	Sololá	701	Sololá	1	Sololá	12	Diciembre	2023-10-12T00:00:00	2024-11-08T06:00:00	6	Velocidad del viento	0
63838	7	Sololá	701	Sololá	1	Sololá	12	Diciembre	2023-10-12T00:00:00	2024-11-08T06:00:00	7	Dirección del viento	0
63839	7	Sololá	701	Sololá	1	Sololá	12	Diciembre	2023-10-12T00:00:00	2024-11-08T06:00:00	1	Precipitación	0
63840	7	Sololá	701	Sololá	1	Sololá	12	Diciembre	2023-10-12T00:00:00	2024-11-08T06:00:00	8	Radiación solar	0
63841	7	Sololá	701	Sololá	1	Sololá	12	Diciembre	2023-10-12T00:00:00	2024-11-08T07:00:00	2	Temperatura media	10.9
63842	7	Sololá	701	Sololá	1	Sololá	12	Diciembre	2023-10-12T00:00:00	2024-11-08T07:00:00	4	Temperatura máxima	10.9
63843	7	Sololá	701	Sololá	1	Sololá	12	Diciembre	2023-10-12T00:00:00	2024-11-08T07:00:00	3	Temperatura mínima	10.7
63844	7	Sololá	701	Sololá	1	Sololá	12	Diciembre	2023-10-12T00:00:00	2024-11-08T07:00:00	5	Humedad	82
63845	7	Sololá	701	Sololá	1	Sololá	12	Diciembre	2023-10-12T00:00:00	2024-11-08T07:00:00	6	Velocidad del viento	0
63846	7	Sololá	701	Sololá	1	Sololá	12	Diciembre	2023-10-12T00:00:00	2024-11-08T07:00:00	7	Dirección del viento	0
63847	7	Sololá	701	Sololá	1	Sololá	12	Diciembre	2023-10-12T00:00:00	2024-11-08T07:00:00	1	Precipitación	0
63848	7	Sololá	701	Sololá	1	Sololá	12	Diciembre	2023-10-12T00:00:00	2024-11-08T07:00:00	8	Radiación solar	6
63849	7	Sololá	701	Sololá	1	Sololá	12	Diciembre	2023-10-12T00:00:00	2024-11-08T08:00:00	2	Temperatura media	14.1
63850	7	Sololá	701	Sololá	1	Sololá	12	Diciembre	2023-10-12T00:00:00	2024-11-08T08:00:00	4	Temperatura máxima	14.1
63851	7	Sololá	701	Sololá	1	Sololá	12	Diciembre	2023-10-12T00:00:00	2024-11-08T08:00:00	3	Temperatura mínima	10.9
63852	7	Sololá	701	Sololá	1	Sololá	12	Diciembre	2023-10-12T00:00:00	2024-11-08T08:00:00	5	Humedad	83
63853	7	Sololá	701	Sololá	1	Sololá	12	Diciembre	2023-10-12T00:00:00	2024-11-08T08:00:00	6	Velocidad del viento	0
63854	7	Sololá	701	Sololá	1	Sololá	12	Diciembre	2023-10-12T00:00:00	2024-11-08T08:00:00	7	Dirección del viento	0
63855	7	Sololá	701	Sololá	1	Sololá	12	Diciembre	2023-10-12T00:00:00	2024-11-08T08:00:00	1	Precipitación	0
63856	7	Sololá	701	Sololá	1	Sololá	12	Diciembre	2023-10-12T00:00:00	2024-11-08T08:00:00	8	Radiación solar	99
63857	7	Sololá	701	Sololá	1	Sololá	12	Diciembre	2023-10-12T00:00:00	2024-11-08T09:00:00	2	Temperatura media	21.3
63858	7	Sololá	701	Sololá	1	Sololá	12	Diciembre	2023-10-12T00:00:00	2024-11-08T09:00:00	4	Temperatura máxima	21.3
63859	7	Sololá	701	Sololá	1	Sololá	12	Diciembre	2023-10-12T00:00:00	2024-11-08T09:00:00	3	Temperatura mínima	14.1
63860	7	Sololá	701	Sololá	1	Sololá	12	Diciembre	2023-10-12T00:00:00	2024-11-08T09:00:00	5	Humedad	58
63861	7	Sololá	701	Sololá	1	Sololá	12	Diciembre	2023-10-12T00:00:00	2024-11-08T09:00:00	6	Velocidad del viento	0
63862	7	Sololá	701	Sololá	1	Sololá	12	Diciembre	2023-10-12T00:00:00	2024-11-08T09:00:00	7	Dirección del viento	0
63863	7	Sololá	701	Sololá	1	Sololá	12	Diciembre	2023-10-12T00:00:00	2024-11-08T09:00:00	1	Precipitación	0
63864	7	Sololá	701	Sololá	1	Sololá	12	Diciembre	2023-10-12T00:00:00	2024-11-08T09:00:00	8	Radiación solar	523
63865	7	Sololá	701	Sololá	1	Sololá	12	Diciembre	2023-10-12T00:00:00	2024-11-08T10:00:00	2	Temperatura media	22.5
63866	7	Sololá	701	Sololá	1	Sololá	12	Diciembre	2023-10-12T00:00:00	2024-11-08T10:00:00	4	Temperatura máxima	22.7
63867	7	Sololá	701	Sololá	1	Sololá	12	Diciembre	2023-10-12T00:00:00	2024-11-08T10:00:00	3	Temperatura mínima	21.3
63868	7	Sololá	701	Sololá	1	Sololá	12	Diciembre	2023-10-12T00:00:00	2024-11-08T10:00:00	5	Humedad	54
63869	7	Sololá	701	Sololá	1	Sololá	12	Diciembre	2023-10-12T00:00:00	2024-11-08T10:00:00	6	Velocidad del viento	0
63870	7	Sololá	701	Sololá	1	Sololá	12	Diciembre	2023-10-12T00:00:00	2024-11-08T10:00:00	7	Dirección del viento	0
63871	7	Sololá	701	Sololá	1	Sololá	12	Diciembre	2023-10-12T00:00:00	2024-11-08T10:00:00	1	Precipitación	0
63872	7	Sololá	701	Sololá	1	Sololá	12	Diciembre	2023-10-12T00:00:00	2024-11-08T10:00:00	8	Radiación solar	699
63873	7	Sololá	701	Sololá	1	Sololá	12	Diciembre	2023-10-12T00:00:00	2024-11-08T11:00:00	2	Temperatura media	23.6
63874	7	Sololá	701	Sololá	1	Sololá	12	Diciembre	2023-10-12T00:00:00	2024-11-08T11:00:00	4	Temperatura máxima	23.9
63875	7	Sololá	701	Sololá	1	Sololá	12	Diciembre	2023-10-12T00:00:00	2024-11-08T11:00:00	3	Temperatura mínima	22.3
63876	7	Sololá	701	Sololá	1	Sololá	12	Diciembre	2023-10-12T00:00:00	2024-11-08T11:00:00	5	Humedad	58
63877	7	Sololá	701	Sololá	1	Sololá	12	Diciembre	2023-10-12T00:00:00	2024-11-08T11:00:00	6	Velocidad del viento	0
63878	7	Sololá	701	Sololá	1	Sololá	12	Diciembre	2023-10-12T00:00:00	2024-11-08T11:00:00	7	Dirección del viento	0
63879	7	Sololá	701	Sololá	1	Sololá	12	Diciembre	2023-10-12T00:00:00	2024-11-08T11:00:00	1	Precipitación	0
63880	7	Sololá	701	Sololá	1	Sololá	12	Diciembre	2023-10-12T00:00:00	2024-11-08T11:00:00	8	Radiación solar	812
63881	7	Sololá	701	Sololá	1	Sololá	12	Diciembre	2023-10-12T00:00:00	2024-11-08T12:00:00	2	Temperatura media	23.3
63882	7	Sololá	701	Sololá	1	Sololá	12	Diciembre	2023-10-12T00:00:00	2024-11-08T12:00:00	4	Temperatura máxima	23.9
63883	7	Sololá	701	Sololá	1	Sololá	12	Diciembre	2023-10-12T00:00:00	2024-11-08T12:00:00	3	Temperatura mínima	23.2
63884	7	Sololá	701	Sololá	1	Sololá	12	Diciembre	2023-10-12T00:00:00	2024-11-08T12:00:00	5	Humedad	52
63885	7	Sololá	701	Sololá	1	Sololá	12	Diciembre	2023-10-12T00:00:00	2024-11-08T12:00:00	6	Velocidad del viento	0
63886	7	Sololá	701	Sololá	1	Sololá	12	Diciembre	2023-10-12T00:00:00	2024-11-08T12:00:00	7	Dirección del viento	0
63887	7	Sololá	701	Sololá	1	Sololá	12	Diciembre	2023-10-12T00:00:00	2024-11-08T12:00:00	1	Precipitación	0
63888	7	Sololá	701	Sololá	1	Sololá	12	Diciembre	2023-10-12T00:00:00	2024-11-08T12:00:00	8	Radiación solar	882
63889	7	Sololá	701	Sololá	1	Sololá	12	Diciembre	2023-10-12T00:00:00	2024-11-08T13:00:00	2	Temperatura media	23.7
63890	7	Sololá	701	Sololá	1	Sololá	12	Diciembre	2023-10-12T00:00:00	2024-11-08T13:00:00	4	Temperatura máxima	24
63891	7	Sololá	701	Sololá	1	Sololá	12	Diciembre	2023-10-12T00:00:00	2024-11-08T13:00:00	3	Temperatura mínima	23.2
63892	7	Sololá	701	Sololá	1	Sololá	12	Diciembre	2023-10-12T00:00:00	2024-11-08T13:00:00	5	Humedad	58
63893	7	Sololá	701	Sololá	1	Sololá	12	Diciembre	2023-10-12T00:00:00	2024-11-08T13:00:00	6	Velocidad del viento	0
63894	7	Sololá	701	Sololá	1	Sololá	12	Diciembre	2023-10-12T00:00:00	2024-11-08T13:00:00	7	Dirección del viento	0
63895	7	Sololá	701	Sololá	1	Sololá	12	Diciembre	2023-10-12T00:00:00	2024-11-08T13:00:00	1	Precipitación	0
63896	7	Sololá	701	Sololá	1	Sololá	12	Diciembre	2023-10-12T00:00:00	2024-11-08T13:00:00	8	Radiación solar	683
63897	7	Sololá	701	Sololá	1	Sololá	12	Diciembre	2023-10-12T00:00:00	2024-11-08T14:00:00	2	Temperatura media	23.2
63898	7	Sololá	701	Sololá	1	Sololá	12	Diciembre	2023-10-12T00:00:00	2024-11-08T14:00:00	4	Temperatura máxima	24
63899	7	Sololá	701	Sololá	1	Sololá	12	Diciembre	2023-10-12T00:00:00	2024-11-08T14:00:00	3	Temperatura mínima	23.2
63900	7	Sololá	701	Sololá	1	Sololá	12	Diciembre	2023-10-12T00:00:00	2024-11-08T14:00:00	5	Humedad	65
63901	7	Sololá	701	Sololá	1	Sololá	12	Diciembre	2023-10-12T00:00:00	2024-11-08T14:00:00	6	Velocidad del viento	0
63902	7	Sololá	701	Sololá	1	Sololá	12	Diciembre	2023-10-12T00:00:00	2024-11-08T14:00:00	7	Dirección del viento	0
63903	7	Sololá	701	Sololá	1	Sololá	12	Diciembre	2023-10-12T00:00:00	2024-11-08T14:00:00	1	Precipitación	0
63904	7	Sololá	701	Sololá	1	Sololá	12	Diciembre	2023-10-12T00:00:00	2024-11-08T14:00:00	8	Radiación solar	699
63905	7	Sololá	701	Sololá	1	Sololá	12	Diciembre	2023-10-12T00:00:00	2024-11-08T15:00:00	2	Temperatura media	22.5
63906	7	Sololá	701	Sololá	1	Sololá	12	Diciembre	2023-10-12T00:00:00	2024-11-08T15:00:00	4	Temperatura máxima	23.3
63907	7	Sololá	701	Sololá	1	Sololá	12	Diciembre	2023-10-12T00:00:00	2024-11-08T15:00:00	3	Temperatura mínima	22.4
63908	7	Sololá	701	Sololá	1	Sololá	12	Diciembre	2023-10-12T00:00:00	2024-11-08T15:00:00	5	Humedad	69
63909	7	Sololá	701	Sololá	1	Sololá	12	Diciembre	2023-10-12T00:00:00	2024-11-08T15:00:00	6	Velocidad del viento	0
63910	7	Sololá	701	Sololá	1	Sololá	12	Diciembre	2023-10-12T00:00:00	2024-11-08T15:00:00	7	Dirección del viento	0
63911	7	Sololá	701	Sololá	1	Sololá	12	Diciembre	2023-10-12T00:00:00	2024-11-08T15:00:00	1	Precipitación	0
63912	7	Sololá	701	Sololá	1	Sololá	12	Diciembre	2023-10-12T00:00:00	2024-11-08T15:00:00	8	Radiación solar	166
63913	7	Sololá	701	Sololá	1	Sololá	12	Diciembre	2023-10-12T00:00:00	2024-11-08T16:00:00	2	Temperatura media	21.9
63914	7	Sololá	701	Sololá	1	Sololá	12	Diciembre	2023-10-12T00:00:00	2024-11-08T16:00:00	4	Temperatura máxima	22.5
63915	7	Sololá	701	Sololá	1	Sololá	12	Diciembre	2023-10-12T00:00:00	2024-11-08T16:00:00	3	Temperatura mínima	21.6
63916	7	Sololá	701	Sololá	1	Sololá	12	Diciembre	2023-10-12T00:00:00	2024-11-08T16:00:00	5	Humedad	72
63917	7	Sololá	701	Sololá	1	Sololá	12	Diciembre	2023-10-12T00:00:00	2024-11-08T16:00:00	6	Velocidad del viento	0
63918	7	Sololá	701	Sololá	1	Sololá	12	Diciembre	2023-10-12T00:00:00	2024-11-08T16:00:00	7	Dirección del viento	0
63919	7	Sololá	701	Sololá	1	Sololá	12	Diciembre	2023-10-12T00:00:00	2024-11-08T16:00:00	1	Precipitación	0
63920	7	Sololá	701	Sololá	1	Sololá	12	Diciembre	2023-10-12T00:00:00	2024-11-08T16:00:00	8	Radiación solar	80
63921	7	Sololá	701	Sololá	1	Sololá	12	Diciembre	2023-10-12T00:00:00	2024-11-08T17:00:00	2	Temperatura media	20.4
63922	7	Sololá	701	Sololá	1	Sololá	12	Diciembre	2023-10-12T00:00:00	2024-11-08T17:00:00	4	Temperatura máxima	21.9
63923	7	Sololá	701	Sololá	1	Sololá	12	Diciembre	2023-10-12T00:00:00	2024-11-08T17:00:00	3	Temperatura mínima	20.4
63924	7	Sololá	701	Sololá	1	Sololá	12	Diciembre	2023-10-12T00:00:00	2024-11-08T17:00:00	5	Humedad	67
63925	7	Sololá	701	Sololá	1	Sololá	12	Diciembre	2023-10-12T00:00:00	2024-11-08T17:00:00	6	Velocidad del viento	0
63926	7	Sololá	701	Sololá	1	Sololá	12	Diciembre	2023-10-12T00:00:00	2024-11-08T17:00:00	7	Dirección del viento	0
63927	7	Sololá	701	Sololá	1	Sololá	12	Diciembre	2023-10-12T00:00:00	2024-11-08T17:00:00	1	Precipitación	0
63928	7	Sololá	701	Sololá	1	Sololá	12	Diciembre	2023-10-12T00:00:00	2024-11-08T17:00:00	8	Radiación solar	90
63929	7	Sololá	701	Sololá	1	Sololá	12	Diciembre	2023-10-12T00:00:00	2024-11-08T18:00:00	2	Temperatura media	17.8
63930	7	Sololá	701	Sololá	1	Sololá	12	Diciembre	2023-10-12T00:00:00	2024-11-08T18:00:00	4	Temperatura máxima	20.4
63931	7	Sololá	701	Sololá	1	Sololá	12	Diciembre	2023-10-12T00:00:00	2024-11-08T18:00:00	3	Temperatura mínima	17.8
63932	7	Sololá	701	Sololá	1	Sololá	12	Diciembre	2023-10-12T00:00:00	2024-11-08T18:00:00	5	Humedad	75
63933	7	Sololá	701	Sololá	1	Sololá	12	Diciembre	2023-10-12T00:00:00	2024-11-08T18:00:00	6	Velocidad del viento	0
63934	7	Sololá	701	Sololá	1	Sololá	12	Diciembre	2023-10-12T00:00:00	2024-11-08T18:00:00	7	Dirección del viento	0
63935	7	Sololá	701	Sololá	1	Sololá	12	Diciembre	2023-10-12T00:00:00	2024-11-08T18:00:00	1	Precipitación	0
63936	7	Sololá	701	Sololá	1	Sololá	12	Diciembre	2023-10-12T00:00:00	2024-11-08T18:00:00	8	Radiación solar	5
63937	7	Sololá	701	Sololá	1	Sololá	12	Diciembre	2023-10-12T00:00:00	2024-11-08T19:00:00	2	Temperatura media	16.6
63938	7	Sololá	701	Sololá	1	Sololá	12	Diciembre	2023-10-12T00:00:00	2024-11-08T19:00:00	4	Temperatura máxima	17.8
63939	7	Sololá	701	Sololá	1	Sololá	12	Diciembre	2023-10-12T00:00:00	2024-11-08T19:00:00	3	Temperatura mínima	16.6
63940	7	Sololá	701	Sololá	1	Sololá	12	Diciembre	2023-10-12T00:00:00	2024-11-08T19:00:00	5	Humedad	81
63941	7	Sololá	701	Sololá	1	Sololá	12	Diciembre	2023-10-12T00:00:00	2024-11-08T19:00:00	6	Velocidad del viento	0
63942	7	Sololá	701	Sololá	1	Sololá	12	Diciembre	2023-10-12T00:00:00	2024-11-08T19:00:00	7	Dirección del viento	0
63943	7	Sololá	701	Sololá	1	Sololá	12	Diciembre	2023-10-12T00:00:00	2024-11-08T19:00:00	1	Precipitación	0
63944	7	Sololá	701	Sololá	1	Sololá	12	Diciembre	2023-10-12T00:00:00	2024-11-08T19:00:00	8	Radiación solar	0
63945	7	Sololá	701	Sololá	1	Sololá	12	Diciembre	2023-10-12T00:00:00	2024-11-08T20:00:00	2	Temperatura media	15.8
63946	7	Sololá	701	Sololá	1	Sololá	12	Diciembre	2023-10-12T00:00:00	2024-11-08T20:00:00	4	Temperatura máxima	16.6
63947	7	Sololá	701	Sololá	1	Sololá	12	Diciembre	2023-10-12T00:00:00	2024-11-08T20:00:00	3	Temperatura mínima	15.8
63948	7	Sololá	701	Sololá	1	Sololá	12	Diciembre	2023-10-12T00:00:00	2024-11-08T20:00:00	5	Humedad	80
63949	7	Sololá	701	Sololá	1	Sololá	12	Diciembre	2023-10-12T00:00:00	2024-11-08T20:00:00	6	Velocidad del viento	0
63950	7	Sololá	701	Sololá	1	Sololá	12	Diciembre	2023-10-12T00:00:00	2024-11-08T20:00:00	7	Dirección del viento	0
63951	7	Sololá	701	Sololá	1	Sololá	12	Diciembre	2023-10-12T00:00:00	2024-11-08T20:00:00	1	Precipitación	0
63952	7	Sololá	701	Sololá	1	Sololá	12	Diciembre	2023-10-12T00:00:00	2024-11-08T20:00:00	8	Radiación solar	0
63953	7	Sololá	701	Sololá	1	Sololá	12	Diciembre	2023-10-12T00:00:00	2024-11-08T21:00:00	2	Temperatura media	15.3
63954	7	Sololá	701	Sololá	1	Sololá	12	Diciembre	2023-10-12T00:00:00	2024-11-08T21:00:00	4	Temperatura máxima	15.8
63955	7	Sololá	701	Sololá	1	Sololá	12	Diciembre	2023-10-12T00:00:00	2024-11-08T21:00:00	3	Temperatura mínima	15.2
63956	7	Sololá	701	Sololá	1	Sololá	12	Diciembre	2023-10-12T00:00:00	2024-11-08T21:00:00	5	Humedad	82
63957	7	Sololá	701	Sololá	1	Sololá	12	Diciembre	2023-10-12T00:00:00	2024-11-08T21:00:00	6	Velocidad del viento	0
63958	7	Sololá	701	Sololá	1	Sololá	12	Diciembre	2023-10-12T00:00:00	2024-11-08T21:00:00	7	Dirección del viento	0
63959	7	Sololá	701	Sololá	1	Sololá	12	Diciembre	2023-10-12T00:00:00	2024-11-08T21:00:00	1	Precipitación	0
63960	7	Sololá	701	Sololá	1	Sololá	12	Diciembre	2023-10-12T00:00:00	2024-11-08T21:00:00	8	Radiación solar	0
63961	7	Sololá	701	Sololá	1	Sololá	12	Diciembre	2023-10-12T00:00:00	2024-11-08T22:00:00	2	Temperatura media	15
63962	7	Sololá	701	Sololá	1	Sololá	12	Diciembre	2023-10-12T00:00:00	2024-11-08T22:00:00	4	Temperatura máxima	15.3
63963	7	Sololá	701	Sololá	1	Sololá	12	Diciembre	2023-10-12T00:00:00	2024-11-08T22:00:00	3	Temperatura mínima	14.9
63964	7	Sololá	701	Sololá	1	Sololá	12	Diciembre	2023-10-12T00:00:00	2024-11-08T22:00:00	5	Humedad	84
63965	7	Sololá	701	Sololá	1	Sololá	12	Diciembre	2023-10-12T00:00:00	2024-11-08T22:00:00	6	Velocidad del viento	0
63966	7	Sololá	701	Sololá	1	Sololá	12	Diciembre	2023-10-12T00:00:00	2024-11-08T22:00:00	7	Dirección del viento	0
63967	7	Sololá	701	Sololá	1	Sololá	12	Diciembre	2023-10-12T00:00:00	2024-11-08T22:00:00	1	Precipitación	0
63968	7	Sololá	701	Sololá	1	Sololá	12	Diciembre	2023-10-12T00:00:00	2024-11-08T22:00:00	8	Radiación solar	0
63969	7	Sololá	701	Sololá	1	Sololá	12	Diciembre	2023-10-12T00:00:00	2024-11-08T23:00:00	2	Temperatura media	14.9
63970	7	Sololá	701	Sololá	1	Sololá	12	Diciembre	2023-10-12T00:00:00	2024-11-08T23:00:00	4	Temperatura máxima	15.1
63971	7	Sololá	701	Sololá	1	Sololá	12	Diciembre	2023-10-12T00:00:00	2024-11-08T23:00:00	3	Temperatura mínima	14.9
63972	7	Sololá	701	Sololá	1	Sololá	12	Diciembre	2023-10-12T00:00:00	2024-11-08T23:00:00	5	Humedad	83
63973	7	Sololá	701	Sololá	1	Sololá	12	Diciembre	2023-10-12T00:00:00	2024-11-08T23:00:00	6	Velocidad del viento	0
63974	7	Sololá	701	Sololá	1	Sololá	12	Diciembre	2023-10-12T00:00:00	2024-11-08T23:00:00	7	Dirección del viento	0
63975	7	Sololá	701	Sololá	1	Sololá	12	Diciembre	2023-10-12T00:00:00	2024-11-08T23:00:00	1	Precipitación	0
63976	7	Sololá	701	Sololá	1	Sololá	12	Diciembre	2023-10-12T00:00:00	2024-11-08T23:00:00	8	Radiación solar	0
63977	7	Sololá	701	Sololá	1	Sololá	12	Diciembre	2023-11-12T00:00:00	2024-11-08T00:00:00	2	Temperatura media	14.9
63978	7	Sololá	701	Sololá	1	Sololá	12	Diciembre	2023-11-12T00:00:00	2024-11-08T00:00:00	4	Temperatura máxima	14.9
63979	7	Sololá	701	Sololá	1	Sololá	12	Diciembre	2023-11-12T00:00:00	2024-11-08T00:00:00	3	Temperatura mínima	14.8
63980	7	Sololá	701	Sololá	1	Sololá	12	Diciembre	2023-11-12T00:00:00	2024-11-08T00:00:00	5	Humedad	83
63981	7	Sololá	701	Sololá	1	Sololá	12	Diciembre	2023-11-12T00:00:00	2024-11-08T00:00:00	6	Velocidad del viento	0
63982	7	Sololá	701	Sololá	1	Sololá	12	Diciembre	2023-11-12T00:00:00	2024-11-08T00:00:00	7	Dirección del viento	0
63983	7	Sololá	701	Sololá	1	Sololá	12	Diciembre	2023-11-12T00:00:00	2024-11-08T00:00:00	1	Precipitación	0
63984	7	Sololá	701	Sololá	1	Sololá	12	Diciembre	2023-11-12T00:00:00	2024-11-08T00:00:00	8	Radiación solar	0
63985	7	Sololá	701	Sololá	1	Sololá	12	Diciembre	2023-11-12T00:00:00	2024-11-08T01:00:00	2	Temperatura media	14.4
63986	7	Sololá	701	Sololá	1	Sololá	12	Diciembre	2023-11-12T00:00:00	2024-11-08T01:00:00	4	Temperatura máxima	14.9
63987	7	Sololá	701	Sololá	1	Sololá	12	Diciembre	2023-11-12T00:00:00	2024-11-08T01:00:00	3	Temperatura mínima	14.4
63988	7	Sololá	701	Sololá	1	Sololá	12	Diciembre	2023-11-12T00:00:00	2024-11-08T01:00:00	5	Humedad	85
63989	7	Sololá	701	Sololá	1	Sololá	12	Diciembre	2023-11-12T00:00:00	2024-11-08T01:00:00	6	Velocidad del viento	0
63990	7	Sololá	701	Sololá	1	Sololá	12	Diciembre	2023-11-12T00:00:00	2024-11-08T01:00:00	7	Dirección del viento	0
63991	7	Sololá	701	Sololá	1	Sololá	12	Diciembre	2023-11-12T00:00:00	2024-11-08T01:00:00	1	Precipitación	0
63992	7	Sololá	701	Sololá	1	Sololá	12	Diciembre	2023-11-12T00:00:00	2024-11-08T01:00:00	8	Radiación solar	0
63993	7	Sololá	701	Sololá	1	Sololá	12	Diciembre	2023-11-12T00:00:00	2024-11-08T02:00:00	2	Temperatura media	14.4
63994	7	Sololá	701	Sololá	1	Sololá	12	Diciembre	2023-11-12T00:00:00	2024-11-08T02:00:00	4	Temperatura máxima	14.4
63995	7	Sololá	701	Sololá	1	Sololá	12	Diciembre	2023-11-12T00:00:00	2024-11-08T02:00:00	3	Temperatura mínima	14.2
63996	7	Sololá	701	Sololá	1	Sololá	12	Diciembre	2023-11-12T00:00:00	2024-11-08T02:00:00	5	Humedad	83
63997	7	Sololá	701	Sololá	1	Sololá	12	Diciembre	2023-11-12T00:00:00	2024-11-08T02:00:00	6	Velocidad del viento	0
63998	7	Sololá	701	Sololá	1	Sololá	12	Diciembre	2023-11-12T00:00:00	2024-11-08T02:00:00	7	Dirección del viento	0
63999	7	Sololá	701	Sololá	1	Sololá	12	Diciembre	2023-11-12T00:00:00	2024-11-08T02:00:00	1	Precipitación	0
64000	7	Sololá	701	Sololá	1	Sololá	12	Diciembre	2023-11-12T00:00:00	2024-11-08T02:00:00	8	Radiación solar	0
64001	7	Sololá	701	Sololá	1	Sololá	12	Diciembre	2023-11-12T00:00:00	2024-11-08T03:00:00	2	Temperatura media	14.7
64002	7	Sololá	701	Sololá	1	Sololá	12	Diciembre	2023-11-12T00:00:00	2024-11-08T03:00:00	4	Temperatura máxima	14.7
64003	7	Sololá	701	Sololá	1	Sololá	12	Diciembre	2023-11-12T00:00:00	2024-11-08T03:00:00	3	Temperatura mínima	14.3
64004	7	Sololá	701	Sololá	1	Sololá	12	Diciembre	2023-11-12T00:00:00	2024-11-08T03:00:00	5	Humedad	83
64005	7	Sololá	701	Sololá	1	Sololá	12	Diciembre	2023-11-12T00:00:00	2024-11-08T03:00:00	6	Velocidad del viento	0
64006	7	Sololá	701	Sololá	1	Sololá	12	Diciembre	2023-11-12T00:00:00	2024-11-08T03:00:00	7	Dirección del viento	0
64007	7	Sololá	701	Sololá	1	Sololá	12	Diciembre	2023-11-12T00:00:00	2024-11-08T03:00:00	1	Precipitación	0
64008	7	Sololá	701	Sololá	1	Sololá	12	Diciembre	2023-11-12T00:00:00	2024-11-08T03:00:00	8	Radiación solar	0
64009	7	Sololá	701	Sololá	1	Sololá	12	Diciembre	2023-11-12T00:00:00	2024-11-08T04:00:00	2	Temperatura media	14.6
64010	7	Sololá	701	Sololá	1	Sololá	12	Diciembre	2023-11-12T00:00:00	2024-11-08T04:00:00	4	Temperatura máxima	14.7
64011	7	Sololá	701	Sololá	1	Sololá	12	Diciembre	2023-11-12T00:00:00	2024-11-08T04:00:00	3	Temperatura mínima	14.5
64012	7	Sololá	701	Sololá	1	Sololá	12	Diciembre	2023-11-12T00:00:00	2024-11-08T04:00:00	5	Humedad	84
64013	7	Sololá	701	Sololá	1	Sololá	12	Diciembre	2023-11-12T00:00:00	2024-11-08T04:00:00	6	Velocidad del viento	0
64014	7	Sololá	701	Sololá	1	Sololá	12	Diciembre	2023-11-12T00:00:00	2024-11-08T04:00:00	7	Dirección del viento	0
64015	7	Sololá	701	Sololá	1	Sololá	12	Diciembre	2023-11-12T00:00:00	2024-11-08T04:00:00	1	Precipitación	0
64016	7	Sololá	701	Sololá	1	Sololá	12	Diciembre	2023-11-12T00:00:00	2024-11-08T04:00:00	8	Radiación solar	0
64017	7	Sololá	701	Sololá	1	Sololá	12	Diciembre	2023-11-12T00:00:00	2024-11-08T05:00:00	2	Temperatura media	13.9
64018	7	Sololá	701	Sololá	1	Sololá	12	Diciembre	2023-11-12T00:00:00	2024-11-08T05:00:00	4	Temperatura máxima	14.6
64019	7	Sololá	701	Sololá	1	Sololá	12	Diciembre	2023-11-12T00:00:00	2024-11-08T05:00:00	3	Temperatura mínima	13.9
64020	7	Sololá	701	Sololá	1	Sololá	12	Diciembre	2023-11-12T00:00:00	2024-11-08T05:00:00	5	Humedad	86
64021	7	Sololá	701	Sololá	1	Sololá	12	Diciembre	2023-11-12T00:00:00	2024-11-08T05:00:00	6	Velocidad del viento	1.6
64022	7	Sololá	701	Sololá	1	Sololá	12	Diciembre	2023-11-12T00:00:00	2024-11-08T05:00:00	7	Dirección del viento	1.61
64023	7	Sololá	701	Sololá	1	Sololá	12	Diciembre	2023-11-12T00:00:00	2024-11-08T05:00:00	1	Precipitación	0
64024	7	Sololá	701	Sololá	1	Sololá	12	Diciembre	2023-11-12T00:00:00	2024-11-08T05:00:00	8	Radiación solar	0
64025	7	Sololá	701	Sololá	1	Sololá	12	Diciembre	2023-11-12T00:00:00	2024-11-08T06:00:00	2	Temperatura media	13.5
64026	7	Sololá	701	Sololá	1	Sololá	12	Diciembre	2023-11-12T00:00:00	2024-11-08T06:00:00	4	Temperatura máxima	13.9
64027	7	Sololá	701	Sololá	1	Sololá	12	Diciembre	2023-11-12T00:00:00	2024-11-08T06:00:00	3	Temperatura mínima	13.5
64028	7	Sololá	701	Sololá	1	Sololá	12	Diciembre	2023-11-12T00:00:00	2024-11-08T06:00:00	5	Humedad	86
64029	7	Sololá	701	Sololá	1	Sololá	12	Diciembre	2023-11-12T00:00:00	2024-11-08T06:00:00	6	Velocidad del viento	1.6
64030	7	Sololá	701	Sololá	1	Sololá	12	Diciembre	2023-11-12T00:00:00	2024-11-08T06:00:00	7	Dirección del viento	1.61
64031	7	Sololá	701	Sololá	1	Sololá	12	Diciembre	2023-11-12T00:00:00	2024-11-08T06:00:00	1	Precipitación	0
64032	7	Sololá	701	Sololá	1	Sololá	12	Diciembre	2023-11-12T00:00:00	2024-11-08T06:00:00	8	Radiación solar	0
64033	7	Sololá	701	Sololá	1	Sololá	12	Diciembre	2023-11-12T00:00:00	2024-11-08T07:00:00	2	Temperatura media	13.6
64034	7	Sololá	701	Sololá	1	Sololá	12	Diciembre	2023-11-12T00:00:00	2024-11-08T07:00:00	4	Temperatura máxima	13.6
64035	7	Sololá	701	Sololá	1	Sololá	12	Diciembre	2023-11-12T00:00:00	2024-11-08T07:00:00	3	Temperatura mínima	13.4
64036	7	Sololá	701	Sololá	1	Sololá	12	Diciembre	2023-11-12T00:00:00	2024-11-08T07:00:00	5	Humedad	85
64037	7	Sololá	701	Sololá	1	Sololá	12	Diciembre	2023-11-12T00:00:00	2024-11-08T07:00:00	6	Velocidad del viento	1.6
64038	7	Sololá	701	Sololá	1	Sololá	12	Diciembre	2023-11-12T00:00:00	2024-11-08T07:00:00	7	Dirección del viento	1.61
64039	7	Sololá	701	Sololá	1	Sololá	12	Diciembre	2023-11-12T00:00:00	2024-11-08T07:00:00	1	Precipitación	0
64040	7	Sololá	701	Sololá	1	Sololá	12	Diciembre	2023-11-12T00:00:00	2024-11-08T07:00:00	8	Radiación solar	6
64041	7	Sololá	701	Sololá	1	Sololá	12	Diciembre	2023-11-12T00:00:00	2024-11-08T08:00:00	2	Temperatura media	14.9
64042	7	Sololá	701	Sololá	1	Sololá	12	Diciembre	2023-11-12T00:00:00	2024-11-08T08:00:00	4	Temperatura máxima	14.9
64043	7	Sololá	701	Sololá	1	Sololá	12	Diciembre	2023-11-12T00:00:00	2024-11-08T08:00:00	3	Temperatura mínima	13.6
64044	7	Sololá	701	Sololá	1	Sololá	12	Diciembre	2023-11-12T00:00:00	2024-11-08T08:00:00	5	Humedad	81
64045	7	Sololá	701	Sololá	1	Sololá	12	Diciembre	2023-11-12T00:00:00	2024-11-08T08:00:00	6	Velocidad del viento	1.6
64046	7	Sololá	701	Sololá	1	Sololá	12	Diciembre	2023-11-12T00:00:00	2024-11-08T08:00:00	7	Dirección del viento	1.61
64047	7	Sololá	701	Sololá	1	Sololá	12	Diciembre	2023-11-12T00:00:00	2024-11-08T08:00:00	1	Precipitación	0
64048	7	Sololá	701	Sololá	1	Sololá	12	Diciembre	2023-11-12T00:00:00	2024-11-08T08:00:00	8	Radiación solar	99
64049	7	Sololá	701	Sololá	1	Sololá	12	Diciembre	2023-11-12T00:00:00	2024-11-08T09:00:00	2	Temperatura media	17.7
64050	7	Sololá	701	Sololá	1	Sololá	12	Diciembre	2023-11-12T00:00:00	2024-11-08T09:00:00	4	Temperatura máxima	17.7
64051	7	Sololá	701	Sololá	1	Sololá	12	Diciembre	2023-11-12T00:00:00	2024-11-08T09:00:00	3	Temperatura mínima	14.9
64052	7	Sololá	701	Sololá	1	Sololá	12	Diciembre	2023-11-12T00:00:00	2024-11-08T09:00:00	5	Humedad	70
64053	7	Sololá	701	Sololá	1	Sololá	12	Diciembre	2023-11-12T00:00:00	2024-11-08T09:00:00	6	Velocidad del viento	1.6
64054	7	Sololá	701	Sololá	1	Sololá	12	Diciembre	2023-11-12T00:00:00	2024-11-08T09:00:00	7	Dirección del viento	1.61
64055	7	Sololá	701	Sololá	1	Sololá	12	Diciembre	2023-11-12T00:00:00	2024-11-08T09:00:00	1	Precipitación	0
64056	7	Sololá	701	Sololá	1	Sololá	12	Diciembre	2023-11-12T00:00:00	2024-11-08T09:00:00	8	Radiación solar	512
64057	7	Sololá	701	Sololá	1	Sololá	12	Diciembre	2023-11-12T00:00:00	2024-11-08T10:00:00	2	Temperatura media	19.1
64058	7	Sololá	701	Sololá	1	Sololá	12	Diciembre	2023-11-12T00:00:00	2024-11-08T10:00:00	4	Temperatura máxima	19.1
64059	7	Sololá	701	Sololá	1	Sololá	12	Diciembre	2023-11-12T00:00:00	2024-11-08T10:00:00	3	Temperatura mínima	17.5
64060	7	Sololá	701	Sololá	1	Sololá	12	Diciembre	2023-11-12T00:00:00	2024-11-08T10:00:00	5	Humedad	68
64061	7	Sololá	701	Sololá	1	Sololá	12	Diciembre	2023-11-12T00:00:00	2024-11-08T10:00:00	6	Velocidad del viento	0
64062	7	Sololá	701	Sololá	1	Sololá	12	Diciembre	2023-11-12T00:00:00	2024-11-08T10:00:00	7	Dirección del viento	0
64063	7	Sololá	701	Sololá	1	Sololá	12	Diciembre	2023-11-12T00:00:00	2024-11-08T10:00:00	1	Precipitación	0
64064	7	Sololá	701	Sololá	1	Sololá	12	Diciembre	2023-11-12T00:00:00	2024-11-08T10:00:00	8	Radiación solar	693
64065	7	Sololá	701	Sololá	1	Sololá	12	Diciembre	2023-11-12T00:00:00	2024-11-08T11:00:00	2	Temperatura media	19.9
64066	7	Sololá	701	Sololá	1	Sololá	12	Diciembre	2023-11-12T00:00:00	2024-11-08T11:00:00	4	Temperatura máxima	19.9
64067	7	Sololá	701	Sololá	1	Sololá	12	Diciembre	2023-11-12T00:00:00	2024-11-08T11:00:00	3	Temperatura mínima	19.1
64068	7	Sololá	701	Sololá	1	Sololá	12	Diciembre	2023-11-12T00:00:00	2024-11-08T11:00:00	5	Humedad	66
64069	7	Sololá	701	Sololá	1	Sololá	12	Diciembre	2023-11-12T00:00:00	2024-11-08T11:00:00	6	Velocidad del viento	0
64070	7	Sololá	701	Sololá	1	Sololá	12	Diciembre	2023-11-12T00:00:00	2024-11-08T11:00:00	7	Dirección del viento	0
64071	7	Sololá	701	Sololá	1	Sololá	12	Diciembre	2023-11-12T00:00:00	2024-11-08T11:00:00	1	Precipitación	0
64072	7	Sololá	701	Sololá	1	Sololá	12	Diciembre	2023-11-12T00:00:00	2024-11-08T11:00:00	8	Radiación solar	809
64073	7	Sololá	701	Sololá	1	Sololá	12	Diciembre	2023-11-12T00:00:00	2024-11-08T12:00:00	2	Temperatura media	21.3
64074	7	Sololá	701	Sololá	1	Sololá	12	Diciembre	2023-11-12T00:00:00	2024-11-08T12:00:00	4	Temperatura máxima	21.3
64075	7	Sololá	701	Sololá	1	Sololá	12	Diciembre	2023-11-12T00:00:00	2024-11-08T12:00:00	3	Temperatura mínima	19.9
64076	7	Sololá	701	Sololá	1	Sololá	12	Diciembre	2023-11-12T00:00:00	2024-11-08T12:00:00	5	Humedad	63
64077	7	Sololá	701	Sololá	1	Sololá	12	Diciembre	2023-11-12T00:00:00	2024-11-08T12:00:00	6	Velocidad del viento	0
64078	7	Sololá	701	Sololá	1	Sololá	12	Diciembre	2023-11-12T00:00:00	2024-11-08T12:00:00	7	Dirección del viento	0
64079	7	Sololá	701	Sololá	1	Sololá	12	Diciembre	2023-11-12T00:00:00	2024-11-08T12:00:00	1	Precipitación	0
64080	7	Sololá	701	Sololá	1	Sololá	12	Diciembre	2023-11-12T00:00:00	2024-11-08T12:00:00	8	Radiación solar	857
64081	7	Sololá	701	Sololá	1	Sololá	12	Diciembre	2023-11-12T00:00:00	2024-11-08T13:00:00	2	Temperatura media	20.3
64082	7	Sololá	701	Sololá	1	Sololá	12	Diciembre	2023-11-12T00:00:00	2024-11-08T13:00:00	4	Temperatura máxima	21.6
64083	7	Sololá	701	Sololá	1	Sololá	12	Diciembre	2023-11-12T00:00:00	2024-11-08T13:00:00	3	Temperatura mínima	20.3
64084	7	Sololá	701	Sololá	1	Sololá	12	Diciembre	2023-11-12T00:00:00	2024-11-08T13:00:00	5	Humedad	65
64085	7	Sololá	701	Sololá	1	Sololá	12	Diciembre	2023-11-12T00:00:00	2024-11-08T13:00:00	6	Velocidad del viento	0
64086	7	Sololá	701	Sololá	1	Sololá	12	Diciembre	2023-11-12T00:00:00	2024-11-08T13:00:00	7	Dirección del viento	0
64087	7	Sololá	701	Sololá	1	Sololá	12	Diciembre	2023-11-12T00:00:00	2024-11-08T13:00:00	1	Precipitación	0
64088	7	Sololá	701	Sololá	1	Sololá	12	Diciembre	2023-11-12T00:00:00	2024-11-08T13:00:00	8	Radiación solar	857
64089	7	Sololá	701	Sololá	1	Sololá	12	Diciembre	2023-11-12T00:00:00	2024-11-08T14:00:00	2	Temperatura media	18.1
64090	7	Sololá	701	Sololá	1	Sololá	12	Diciembre	2023-11-12T00:00:00	2024-11-08T14:00:00	4	Temperatura máxima	20.7
64091	7	Sololá	701	Sololá	1	Sololá	12	Diciembre	2023-11-12T00:00:00	2024-11-08T14:00:00	3	Temperatura mínima	18.1
64092	7	Sololá	701	Sololá	1	Sololá	12	Diciembre	2023-11-12T00:00:00	2024-11-08T14:00:00	5	Humedad	62
64093	7	Sololá	701	Sololá	1	Sololá	12	Diciembre	2023-11-12T00:00:00	2024-11-08T14:00:00	6	Velocidad del viento	0
64094	7	Sololá	701	Sololá	1	Sololá	12	Diciembre	2023-11-12T00:00:00	2024-11-08T14:00:00	7	Dirección del viento	0
64095	7	Sololá	701	Sololá	1	Sololá	12	Diciembre	2023-11-12T00:00:00	2024-11-08T14:00:00	1	Precipitación	0
64096	7	Sololá	701	Sololá	1	Sololá	12	Diciembre	2023-11-12T00:00:00	2024-11-08T14:00:00	8	Radiación solar	445
64097	7	Sololá	701	Sololá	1	Sololá	12	Diciembre	2023-11-12T00:00:00	2024-11-08T15:00:00	2	Temperatura media	18.9
64098	7	Sololá	701	Sololá	1	Sololá	12	Diciembre	2023-11-12T00:00:00	2024-11-08T15:00:00	4	Temperatura máxima	19.9
64099	7	Sololá	701	Sololá	1	Sololá	12	Diciembre	2023-11-12T00:00:00	2024-11-08T15:00:00	3	Temperatura mínima	17.9
64100	7	Sololá	701	Sololá	1	Sololá	12	Diciembre	2023-11-12T00:00:00	2024-11-08T15:00:00	5	Humedad	63
64101	7	Sololá	701	Sololá	1	Sololá	12	Diciembre	2023-11-12T00:00:00	2024-11-08T15:00:00	6	Velocidad del viento	0
64102	7	Sololá	701	Sololá	1	Sololá	12	Diciembre	2023-11-12T00:00:00	2024-11-08T15:00:00	7	Dirección del viento	0
64103	7	Sololá	701	Sololá	1	Sololá	12	Diciembre	2023-11-12T00:00:00	2024-11-08T15:00:00	1	Precipitación	0
64104	7	Sololá	701	Sololá	1	Sololá	12	Diciembre	2023-11-12T00:00:00	2024-11-08T15:00:00	8	Radiación solar	169
64105	7	Sololá	701	Sololá	1	Sololá	12	Diciembre	2023-11-12T00:00:00	2024-11-08T16:00:00	2	Temperatura media	18.7
64106	7	Sololá	701	Sololá	1	Sololá	12	Diciembre	2023-11-12T00:00:00	2024-11-08T16:00:00	4	Temperatura máxima	18.9
64107	7	Sololá	701	Sololá	1	Sololá	12	Diciembre	2023-11-12T00:00:00	2024-11-08T16:00:00	3	Temperatura mínima	18.4
64108	7	Sololá	701	Sololá	1	Sololá	12	Diciembre	2023-11-12T00:00:00	2024-11-08T16:00:00	5	Humedad	65
64109	7	Sololá	701	Sololá	1	Sololá	12	Diciembre	2023-11-12T00:00:00	2024-11-08T16:00:00	6	Velocidad del viento	0
64110	7	Sololá	701	Sololá	1	Sololá	12	Diciembre	2023-11-12T00:00:00	2024-11-08T16:00:00	7	Dirección del viento	0
64111	7	Sololá	701	Sololá	1	Sololá	12	Diciembre	2023-11-12T00:00:00	2024-11-08T16:00:00	1	Precipitación	0
64112	7	Sololá	701	Sololá	1	Sololá	12	Diciembre	2023-11-12T00:00:00	2024-11-08T16:00:00	8	Radiación solar	63
64113	7	Sololá	701	Sololá	1	Sololá	12	Diciembre	2023-11-12T00:00:00	2024-11-08T17:00:00	2	Temperatura media	16.3
64114	7	Sololá	701	Sololá	1	Sololá	12	Diciembre	2023-11-12T00:00:00	2024-11-08T17:00:00	4	Temperatura máxima	18.7
64115	7	Sololá	701	Sololá	1	Sololá	12	Diciembre	2023-11-12T00:00:00	2024-11-08T17:00:00	3	Temperatura mínima	16.3
64116	7	Sololá	701	Sololá	1	Sololá	12	Diciembre	2023-11-12T00:00:00	2024-11-08T17:00:00	5	Humedad	71
64117	7	Sololá	701	Sololá	1	Sololá	12	Diciembre	2023-11-12T00:00:00	2024-11-08T17:00:00	6	Velocidad del viento	0
64118	7	Sololá	701	Sololá	1	Sololá	12	Diciembre	2023-11-12T00:00:00	2024-11-08T17:00:00	7	Dirección del viento	0
64119	7	Sololá	701	Sololá	1	Sololá	12	Diciembre	2023-11-12T00:00:00	2024-11-08T17:00:00	1	Precipitación	0
64120	7	Sololá	701	Sololá	1	Sololá	12	Diciembre	2023-11-12T00:00:00	2024-11-08T17:00:00	8	Radiación solar	54
64121	7	Sololá	701	Sololá	1	Sololá	12	Diciembre	2023-11-12T00:00:00	2024-11-08T18:00:00	2	Temperatura media	14.3
64122	7	Sololá	701	Sololá	1	Sololá	12	Diciembre	2023-11-12T00:00:00	2024-11-08T18:00:00	4	Temperatura máxima	16.3
64123	7	Sololá	701	Sololá	1	Sololá	12	Diciembre	2023-11-12T00:00:00	2024-11-08T18:00:00	3	Temperatura mínima	14.3
64124	7	Sololá	701	Sololá	1	Sololá	12	Diciembre	2023-11-12T00:00:00	2024-11-08T18:00:00	5	Humedad	77
64125	7	Sololá	701	Sololá	1	Sololá	12	Diciembre	2023-11-12T00:00:00	2024-11-08T18:00:00	6	Velocidad del viento	1.6
64126	7	Sololá	701	Sololá	1	Sololá	12	Diciembre	2023-11-12T00:00:00	2024-11-08T18:00:00	7	Dirección del viento	1.61
64127	7	Sololá	701	Sololá	1	Sololá	12	Diciembre	2023-11-12T00:00:00	2024-11-08T18:00:00	1	Precipitación	0
64128	7	Sololá	701	Sololá	1	Sololá	12	Diciembre	2023-11-12T00:00:00	2024-11-08T18:00:00	8	Radiación solar	4
64129	7	Sololá	701	Sololá	1	Sololá	12	Diciembre	2023-11-12T00:00:00	2024-11-08T19:00:00	2	Temperatura media	13.7
64130	7	Sololá	701	Sololá	1	Sololá	12	Diciembre	2023-11-12T00:00:00	2024-11-08T19:00:00	4	Temperatura máxima	14.3
64131	7	Sololá	701	Sololá	1	Sololá	12	Diciembre	2023-11-12T00:00:00	2024-11-08T19:00:00	3	Temperatura mínima	13.7
64132	7	Sololá	701	Sololá	1	Sololá	12	Diciembre	2023-11-12T00:00:00	2024-11-08T19:00:00	5	Humedad	80
64133	7	Sololá	701	Sololá	1	Sololá	12	Diciembre	2023-11-12T00:00:00	2024-11-08T19:00:00	6	Velocidad del viento	1.6
64134	7	Sololá	701	Sololá	1	Sololá	12	Diciembre	2023-11-12T00:00:00	2024-11-08T19:00:00	7	Dirección del viento	1.61
64135	7	Sololá	701	Sololá	1	Sololá	12	Diciembre	2023-11-12T00:00:00	2024-11-08T19:00:00	1	Precipitación	0
64136	7	Sololá	701	Sololá	1	Sololá	12	Diciembre	2023-11-12T00:00:00	2024-11-08T19:00:00	8	Radiación solar	0
64137	7	Sololá	701	Sololá	1	Sololá	12	Diciembre	2023-11-12T00:00:00	2024-11-08T20:00:00	2	Temperatura media	13.7
64138	7	Sololá	701	Sololá	1	Sololá	12	Diciembre	2023-11-12T00:00:00	2024-11-08T20:00:00	4	Temperatura máxima	13.7
64139	7	Sololá	701	Sololá	1	Sololá	12	Diciembre	2023-11-12T00:00:00	2024-11-08T20:00:00	3	Temperatura mínima	13.7
64140	7	Sololá	701	Sololá	1	Sololá	12	Diciembre	2023-11-12T00:00:00	2024-11-08T20:00:00	5	Humedad	79
64141	7	Sololá	701	Sololá	1	Sololá	12	Diciembre	2023-11-12T00:00:00	2024-11-08T20:00:00	6	Velocidad del viento	1.6
64142	7	Sololá	701	Sololá	1	Sololá	12	Diciembre	2023-11-12T00:00:00	2024-11-08T20:00:00	7	Dirección del viento	1.61
64143	7	Sololá	701	Sololá	1	Sololá	12	Diciembre	2023-11-12T00:00:00	2024-11-08T20:00:00	1	Precipitación	0
64144	7	Sololá	701	Sololá	1	Sololá	12	Diciembre	2023-11-12T00:00:00	2024-11-08T20:00:00	8	Radiación solar	0
64145	7	Sololá	701	Sololá	1	Sololá	12	Diciembre	2023-11-12T00:00:00	2024-11-08T21:00:00	2	Temperatura media	13.4
64146	7	Sololá	701	Sololá	1	Sololá	12	Diciembre	2023-11-12T00:00:00	2024-11-08T21:00:00	4	Temperatura máxima	13.7
64147	7	Sololá	701	Sololá	1	Sololá	12	Diciembre	2023-11-12T00:00:00	2024-11-08T21:00:00	3	Temperatura mínima	13.4
64148	7	Sololá	701	Sololá	1	Sololá	12	Diciembre	2023-11-12T00:00:00	2024-11-08T21:00:00	5	Humedad	81
64149	7	Sololá	701	Sololá	1	Sololá	12	Diciembre	2023-11-12T00:00:00	2024-11-08T21:00:00	6	Velocidad del viento	1.6
64150	7	Sololá	701	Sololá	1	Sololá	12	Diciembre	2023-11-12T00:00:00	2024-11-08T21:00:00	7	Dirección del viento	1.61
64151	7	Sololá	701	Sololá	1	Sololá	12	Diciembre	2023-11-12T00:00:00	2024-11-08T21:00:00	1	Precipitación	0
64152	7	Sololá	701	Sololá	1	Sololá	12	Diciembre	2023-11-12T00:00:00	2024-11-08T21:00:00	8	Radiación solar	0
64153	7	Sololá	701	Sololá	1	Sololá	12	Diciembre	2023-11-12T00:00:00	2024-11-08T22:00:00	2	Temperatura media	13.7
64154	7	Sololá	701	Sololá	1	Sololá	12	Diciembre	2023-11-12T00:00:00	2024-11-08T22:00:00	4	Temperatura máxima	13.7
64155	7	Sololá	701	Sololá	1	Sololá	12	Diciembre	2023-11-12T00:00:00	2024-11-08T22:00:00	3	Temperatura mínima	13.4
64156	7	Sololá	701	Sololá	1	Sololá	12	Diciembre	2023-11-12T00:00:00	2024-11-08T22:00:00	5	Humedad	81
64157	7	Sololá	701	Sololá	1	Sololá	12	Diciembre	2023-11-12T00:00:00	2024-11-08T22:00:00	6	Velocidad del viento	1.6
64158	7	Sololá	701	Sololá	1	Sololá	12	Diciembre	2023-11-12T00:00:00	2024-11-08T22:00:00	7	Dirección del viento	1.61
64159	7	Sololá	701	Sololá	1	Sololá	12	Diciembre	2023-11-12T00:00:00	2024-11-08T22:00:00	1	Precipitación	0
64160	7	Sololá	701	Sololá	1	Sololá	12	Diciembre	2023-11-12T00:00:00	2024-11-08T22:00:00	8	Radiación solar	0
64161	7	Sololá	701	Sololá	1	Sololá	12	Diciembre	2023-11-12T00:00:00	2024-11-08T23:00:00	2	Temperatura media	13.7
64162	7	Sololá	701	Sololá	1	Sololá	12	Diciembre	2023-11-12T00:00:00	2024-11-08T23:00:00	4	Temperatura máxima	13.7
64163	7	Sololá	701	Sololá	1	Sololá	12	Diciembre	2023-11-12T00:00:00	2024-11-08T23:00:00	3	Temperatura mínima	13.6
64164	7	Sololá	701	Sololá	1	Sololá	12	Diciembre	2023-11-12T00:00:00	2024-11-08T23:00:00	5	Humedad	81
64165	7	Sololá	701	Sololá	1	Sololá	12	Diciembre	2023-11-12T00:00:00	2024-11-08T23:00:00	6	Velocidad del viento	1.6
64166	7	Sololá	701	Sololá	1	Sololá	12	Diciembre	2023-11-12T00:00:00	2024-11-08T23:00:00	7	Dirección del viento	1.61
64167	7	Sololá	701	Sololá	1	Sololá	12	Diciembre	2023-11-12T00:00:00	2024-11-08T23:00:00	1	Precipitación	0
64168	7	Sololá	701	Sololá	1	Sololá	12	Diciembre	2023-11-12T00:00:00	2024-11-08T23:00:00	8	Radiación solar	0
64169	7	Sololá	701	Sololá	1	Sololá	12	Diciembre	2023-12-12T00:00:00	2024-11-08T00:00:00	2	Temperatura media	13.4
64170	7	Sololá	701	Sololá	1	Sololá	12	Diciembre	2023-12-12T00:00:00	2024-11-08T00:00:00	4	Temperatura máxima	13.7
64171	7	Sololá	701	Sololá	1	Sololá	12	Diciembre	2023-12-12T00:00:00	2024-11-08T00:00:00	3	Temperatura mínima	13.4
64172	7	Sololá	701	Sololá	1	Sololá	12	Diciembre	2023-12-12T00:00:00	2024-11-08T00:00:00	5	Humedad	81
64173	7	Sololá	701	Sololá	1	Sololá	12	Diciembre	2023-12-12T00:00:00	2024-11-08T00:00:00	6	Velocidad del viento	1.6
64174	7	Sololá	701	Sololá	1	Sololá	12	Diciembre	2023-12-12T00:00:00	2024-11-08T00:00:00	7	Dirección del viento	1.61
64175	7	Sololá	701	Sololá	1	Sololá	12	Diciembre	2023-12-12T00:00:00	2024-11-08T00:00:00	1	Precipitación	0
64176	7	Sololá	701	Sololá	1	Sololá	12	Diciembre	2023-12-12T00:00:00	2024-11-08T00:00:00	8	Radiación solar	0
64177	7	Sololá	701	Sololá	1	Sololá	12	Diciembre	2023-12-12T00:00:00	2024-11-08T01:00:00	2	Temperatura media	12.9
64178	7	Sololá	701	Sololá	1	Sololá	12	Diciembre	2023-12-12T00:00:00	2024-11-08T01:00:00	4	Temperatura máxima	13.4
64179	7	Sololá	701	Sololá	1	Sololá	12	Diciembre	2023-12-12T00:00:00	2024-11-08T01:00:00	3	Temperatura mínima	12.9
64180	7	Sololá	701	Sololá	1	Sololá	12	Diciembre	2023-12-12T00:00:00	2024-11-08T01:00:00	5	Humedad	83
64181	7	Sololá	701	Sololá	1	Sololá	12	Diciembre	2023-12-12T00:00:00	2024-11-08T01:00:00	6	Velocidad del viento	1.6
64182	7	Sololá	701	Sololá	1	Sololá	12	Diciembre	2023-12-12T00:00:00	2024-11-08T01:00:00	7	Dirección del viento	1.61
64183	7	Sololá	701	Sololá	1	Sololá	12	Diciembre	2023-12-12T00:00:00	2024-11-08T01:00:00	1	Precipitación	0
64184	7	Sololá	701	Sololá	1	Sololá	12	Diciembre	2023-12-12T00:00:00	2024-11-08T01:00:00	8	Radiación solar	0
64185	7	Sololá	701	Sololá	1	Sololá	12	Diciembre	2023-12-12T00:00:00	2024-11-08T02:00:00	2	Temperatura media	13.6
64186	7	Sololá	701	Sololá	1	Sololá	12	Diciembre	2023-12-12T00:00:00	2024-11-08T02:00:00	4	Temperatura máxima	13.6
64187	7	Sololá	701	Sololá	1	Sololá	12	Diciembre	2023-12-12T00:00:00	2024-11-08T02:00:00	3	Temperatura mínima	12.8
64188	7	Sololá	701	Sololá	1	Sololá	12	Diciembre	2023-12-12T00:00:00	2024-11-08T02:00:00	5	Humedad	78
64189	7	Sololá	701	Sololá	1	Sololá	12	Diciembre	2023-12-12T00:00:00	2024-11-08T02:00:00	6	Velocidad del viento	1.6
64190	7	Sololá	701	Sololá	1	Sololá	12	Diciembre	2023-12-12T00:00:00	2024-11-08T02:00:00	7	Dirección del viento	1.61
64191	7	Sololá	701	Sololá	1	Sololá	12	Diciembre	2023-12-12T00:00:00	2024-11-08T02:00:00	1	Precipitación	0
64192	7	Sololá	701	Sololá	1	Sololá	12	Diciembre	2023-12-12T00:00:00	2024-11-08T02:00:00	8	Radiación solar	0
64193	7	Sololá	701	Sololá	1	Sololá	12	Diciembre	2023-12-12T00:00:00	2024-11-08T03:00:00	2	Temperatura media	13.8
64194	7	Sololá	701	Sololá	1	Sololá	12	Diciembre	2023-12-12T00:00:00	2024-11-08T03:00:00	4	Temperatura máxima	13.9
64195	7	Sololá	701	Sololá	1	Sololá	12	Diciembre	2023-12-12T00:00:00	2024-11-08T03:00:00	3	Temperatura mínima	13.6
64196	7	Sololá	701	Sololá	1	Sololá	12	Diciembre	2023-12-12T00:00:00	2024-11-08T03:00:00	5	Humedad	76
64197	7	Sololá	701	Sololá	1	Sololá	12	Diciembre	2023-12-12T00:00:00	2024-11-08T03:00:00	6	Velocidad del viento	0
64198	7	Sololá	701	Sololá	1	Sololá	12	Diciembre	2023-12-12T00:00:00	2024-11-08T03:00:00	7	Dirección del viento	0
64199	7	Sololá	701	Sololá	1	Sololá	12	Diciembre	2023-12-12T00:00:00	2024-11-08T03:00:00	1	Precipitación	0
64200	7	Sololá	701	Sololá	1	Sololá	12	Diciembre	2023-12-12T00:00:00	2024-11-08T03:00:00	8	Radiación solar	0
64201	7	Sololá	701	Sololá	1	Sololá	12	Diciembre	2023-12-12T00:00:00	2024-11-08T04:00:00	2	Temperatura media	13.9
64202	7	Sololá	701	Sololá	1	Sololá	12	Diciembre	2023-12-12T00:00:00	2024-11-08T04:00:00	4	Temperatura máxima	13.9
64203	7	Sololá	701	Sololá	1	Sololá	12	Diciembre	2023-12-12T00:00:00	2024-11-08T04:00:00	3	Temperatura mínima	13.8
64204	7	Sololá	701	Sololá	1	Sololá	12	Diciembre	2023-12-12T00:00:00	2024-11-08T04:00:00	5	Humedad	76
64205	7	Sololá	701	Sololá	1	Sololá	12	Diciembre	2023-12-12T00:00:00	2024-11-08T04:00:00	6	Velocidad del viento	1.6
64206	7	Sololá	701	Sololá	1	Sololá	12	Diciembre	2023-12-12T00:00:00	2024-11-08T04:00:00	7	Dirección del viento	1.61
64207	7	Sololá	701	Sololá	1	Sololá	12	Diciembre	2023-12-12T00:00:00	2024-11-08T04:00:00	1	Precipitación	0
64208	7	Sololá	701	Sololá	1	Sololá	12	Diciembre	2023-12-12T00:00:00	2024-11-08T04:00:00	8	Radiación solar	0
64209	7	Sololá	701	Sololá	1	Sololá	12	Diciembre	2023-12-12T00:00:00	2024-11-08T05:00:00	2	Temperatura media	13.7
64210	7	Sololá	701	Sololá	1	Sololá	12	Diciembre	2023-12-12T00:00:00	2024-11-08T05:00:00	4	Temperatura máxima	14
64211	7	Sololá	701	Sololá	1	Sololá	12	Diciembre	2023-12-12T00:00:00	2024-11-08T05:00:00	3	Temperatura mínima	13.7
64212	7	Sololá	701	Sololá	1	Sololá	12	Diciembre	2023-12-12T00:00:00	2024-11-08T05:00:00	5	Humedad	77
64213	7	Sololá	701	Sololá	1	Sololá	12	Diciembre	2023-12-12T00:00:00	2024-11-08T05:00:00	6	Velocidad del viento	0
64214	7	Sololá	701	Sololá	1	Sololá	12	Diciembre	2023-12-12T00:00:00	2024-11-08T05:00:00	7	Dirección del viento	0
64215	7	Sololá	701	Sololá	1	Sololá	12	Diciembre	2023-12-12T00:00:00	2024-11-08T05:00:00	1	Precipitación	0
64216	7	Sololá	701	Sololá	1	Sololá	12	Diciembre	2023-12-12T00:00:00	2024-11-08T05:00:00	8	Radiación solar	0
64217	7	Sololá	701	Sololá	1	Sololá	12	Diciembre	2023-12-12T00:00:00	2024-11-08T06:00:00	2	Temperatura media	13.4
64218	7	Sololá	701	Sololá	1	Sololá	12	Diciembre	2023-12-12T00:00:00	2024-11-08T06:00:00	4	Temperatura máxima	13.7
64219	7	Sololá	701	Sololá	1	Sololá	12	Diciembre	2023-12-12T00:00:00	2024-11-08T06:00:00	3	Temperatura mínima	13.3
64220	7	Sololá	701	Sololá	1	Sololá	12	Diciembre	2023-12-12T00:00:00	2024-11-08T06:00:00	5	Humedad	79
64221	7	Sololá	701	Sololá	1	Sololá	12	Diciembre	2023-12-12T00:00:00	2024-11-08T06:00:00	6	Velocidad del viento	0
64222	7	Sololá	701	Sololá	1	Sololá	12	Diciembre	2023-12-12T00:00:00	2024-11-08T06:00:00	7	Dirección del viento	0
64223	7	Sololá	701	Sololá	1	Sololá	12	Diciembre	2023-12-12T00:00:00	2024-11-08T06:00:00	1	Precipitación	0
64224	7	Sololá	701	Sololá	1	Sololá	12	Diciembre	2023-12-12T00:00:00	2024-11-08T06:00:00	8	Radiación solar	0
64225	7	Sololá	701	Sololá	1	Sololá	12	Diciembre	2023-12-12T00:00:00	2024-11-08T07:00:00	2	Temperatura media	13.4
64226	7	Sololá	701	Sololá	1	Sololá	12	Diciembre	2023-12-12T00:00:00	2024-11-08T07:00:00	4	Temperatura máxima	13.5
64227	7	Sololá	701	Sololá	1	Sololá	12	Diciembre	2023-12-12T00:00:00	2024-11-08T07:00:00	3	Temperatura mínima	13.3
64228	7	Sololá	701	Sololá	1	Sololá	12	Diciembre	2023-12-12T00:00:00	2024-11-08T07:00:00	5	Humedad	78
64229	7	Sololá	701	Sololá	1	Sololá	12	Diciembre	2023-12-12T00:00:00	2024-11-08T07:00:00	6	Velocidad del viento	0
64230	7	Sololá	701	Sololá	1	Sololá	12	Diciembre	2023-12-12T00:00:00	2024-11-08T07:00:00	7	Dirección del viento	0
64231	7	Sololá	701	Sololá	1	Sololá	12	Diciembre	2023-12-12T00:00:00	2024-11-08T07:00:00	1	Precipitación	0
64232	7	Sololá	701	Sololá	1	Sololá	12	Diciembre	2023-12-12T00:00:00	2024-11-08T07:00:00	8	Radiación solar	4
64233	7	Sololá	701	Sololá	1	Sololá	12	Diciembre	2023-12-12T00:00:00	2024-11-08T08:00:00	2	Temperatura media	15.2
64234	7	Sololá	701	Sololá	1	Sololá	12	Diciembre	2023-12-12T00:00:00	2024-11-08T08:00:00	4	Temperatura máxima	15.2
64235	7	Sololá	701	Sololá	1	Sololá	12	Diciembre	2023-12-12T00:00:00	2024-11-08T08:00:00	3	Temperatura mínima	13.4
64236	7	Sololá	701	Sololá	1	Sololá	12	Diciembre	2023-12-12T00:00:00	2024-11-08T08:00:00	5	Humedad	75
64237	7	Sololá	701	Sololá	1	Sololá	12	Diciembre	2023-12-12T00:00:00	2024-11-08T08:00:00	6	Velocidad del viento	1.6
64238	7	Sololá	701	Sololá	1	Sololá	12	Diciembre	2023-12-12T00:00:00	2024-11-08T08:00:00	7	Dirección del viento	1.61
64239	7	Sololá	701	Sololá	1	Sololá	12	Diciembre	2023-12-12T00:00:00	2024-11-08T08:00:00	1	Precipitación	0
64240	7	Sololá	701	Sololá	1	Sololá	12	Diciembre	2023-12-12T00:00:00	2024-11-08T08:00:00	8	Radiación solar	89
64241	7	Sololá	701	Sololá	1	Sololá	12	Diciembre	2023-12-12T00:00:00	2024-11-08T09:00:00	2	Temperatura media	17.4
64242	7	Sololá	701	Sololá	1	Sololá	12	Diciembre	2023-12-12T00:00:00	2024-11-08T09:00:00	4	Temperatura máxima	17.4
64243	7	Sololá	701	Sololá	1	Sololá	12	Diciembre	2023-12-12T00:00:00	2024-11-08T09:00:00	3	Temperatura mínima	15.2
64244	7	Sololá	701	Sololá	1	Sololá	12	Diciembre	2023-12-12T00:00:00	2024-11-08T09:00:00	5	Humedad	71
64245	7	Sololá	701	Sololá	1	Sololá	12	Diciembre	2023-12-12T00:00:00	2024-11-08T09:00:00	6	Velocidad del viento	1.6
64246	7	Sololá	701	Sololá	1	Sololá	12	Diciembre	2023-12-12T00:00:00	2024-11-08T09:00:00	7	Dirección del viento	1.61
64247	7	Sololá	701	Sololá	1	Sololá	12	Diciembre	2023-12-12T00:00:00	2024-11-08T09:00:00	1	Precipitación	0
64248	7	Sololá	701	Sololá	1	Sololá	12	Diciembre	2023-12-12T00:00:00	2024-11-08T09:00:00	8	Radiación solar	503
64249	7	Sololá	701	Sololá	1	Sololá	12	Diciembre	2023-12-12T00:00:00	2024-11-08T10:00:00	2	Temperatura media	19.3
64250	7	Sololá	701	Sololá	1	Sololá	12	Diciembre	2023-12-12T00:00:00	2024-11-08T10:00:00	4	Temperatura máxima	19.3
64251	7	Sololá	701	Sololá	1	Sololá	12	Diciembre	2023-12-12T00:00:00	2024-11-08T10:00:00	3	Temperatura mínima	17.4
64252	7	Sololá	701	Sololá	1	Sololá	12	Diciembre	2023-12-12T00:00:00	2024-11-08T10:00:00	5	Humedad	68
64253	7	Sololá	701	Sololá	1	Sololá	12	Diciembre	2023-12-12T00:00:00	2024-11-08T10:00:00	6	Velocidad del viento	0
64254	7	Sololá	701	Sololá	1	Sololá	12	Diciembre	2023-12-12T00:00:00	2024-11-08T10:00:00	7	Dirección del viento	0
64255	7	Sololá	701	Sololá	1	Sololá	12	Diciembre	2023-12-12T00:00:00	2024-11-08T10:00:00	1	Precipitación	0
64256	7	Sololá	701	Sololá	1	Sololá	12	Diciembre	2023-12-12T00:00:00	2024-11-08T10:00:00	8	Radiación solar	677
64257	7	Sololá	701	Sololá	1	Sololá	12	Diciembre	2023-12-12T00:00:00	2024-11-08T11:00:00	2	Temperatura media	20.8
64258	7	Sololá	701	Sololá	1	Sololá	12	Diciembre	2023-12-12T00:00:00	2024-11-08T11:00:00	4	Temperatura máxima	20.9
64259	7	Sololá	701	Sololá	1	Sololá	12	Diciembre	2023-12-12T00:00:00	2024-11-08T11:00:00	3	Temperatura mínima	19.3
64260	7	Sololá	701	Sololá	1	Sololá	12	Diciembre	2023-12-12T00:00:00	2024-11-08T11:00:00	5	Humedad	64
64261	7	Sololá	701	Sololá	1	Sololá	12	Diciembre	2023-12-12T00:00:00	2024-11-08T11:00:00	6	Velocidad del viento	0
64262	7	Sololá	701	Sololá	1	Sololá	12	Diciembre	2023-12-12T00:00:00	2024-11-08T11:00:00	7	Dirección del viento	0
64263	7	Sololá	701	Sololá	1	Sololá	12	Diciembre	2023-12-12T00:00:00	2024-11-08T11:00:00	1	Precipitación	0
64264	7	Sololá	701	Sololá	1	Sololá	12	Diciembre	2023-12-12T00:00:00	2024-11-08T11:00:00	8	Radiación solar	798
64265	7	Sololá	701	Sololá	1	Sololá	12	Diciembre	2023-12-12T00:00:00	2024-11-08T12:00:00	2	Temperatura media	21.7
64266	7	Sololá	701	Sololá	1	Sololá	12	Diciembre	2023-12-12T00:00:00	2024-11-08T12:00:00	4	Temperatura máxima	21.7
64267	7	Sololá	701	Sololá	1	Sololá	12	Diciembre	2023-12-12T00:00:00	2024-11-08T12:00:00	3	Temperatura mínima	20.9
64268	7	Sololá	701	Sololá	1	Sololá	12	Diciembre	2023-12-12T00:00:00	2024-11-08T12:00:00	5	Humedad	62
64269	7	Sololá	701	Sololá	1	Sololá	12	Diciembre	2023-12-12T00:00:00	2024-11-08T12:00:00	6	Velocidad del viento	0
64270	7	Sololá	701	Sololá	1	Sololá	12	Diciembre	2023-12-12T00:00:00	2024-11-08T12:00:00	7	Dirección del viento	0
64271	7	Sololá	701	Sololá	1	Sololá	12	Diciembre	2023-12-12T00:00:00	2024-11-08T12:00:00	1	Precipitación	0
64272	7	Sololá	701	Sololá	1	Sololá	12	Diciembre	2023-12-12T00:00:00	2024-11-08T12:00:00	8	Radiación solar	848
64273	7	Sololá	701	Sololá	1	Sololá	12	Diciembre	2023-12-12T00:00:00	2024-11-08T13:00:00	2	Temperatura media	22.1
64274	7	Sololá	701	Sololá	1	Sololá	12	Diciembre	2023-12-12T00:00:00	2024-11-08T13:00:00	4	Temperatura máxima	22.1
64275	7	Sololá	701	Sololá	1	Sololá	12	Diciembre	2023-12-12T00:00:00	2024-11-08T13:00:00	3	Temperatura mínima	21.2
64276	7	Sololá	701	Sololá	1	Sololá	12	Diciembre	2023-12-12T00:00:00	2024-11-08T13:00:00	5	Humedad	60
64277	7	Sololá	701	Sololá	1	Sololá	12	Diciembre	2023-12-12T00:00:00	2024-11-08T13:00:00	6	Velocidad del viento	0
64278	7	Sololá	701	Sololá	1	Sololá	12	Diciembre	2023-12-12T00:00:00	2024-11-08T13:00:00	7	Dirección del viento	0
64279	7	Sololá	701	Sololá	1	Sololá	12	Diciembre	2023-12-12T00:00:00	2024-11-08T13:00:00	1	Precipitación	0
64280	7	Sololá	701	Sololá	1	Sololá	12	Diciembre	2023-12-12T00:00:00	2024-11-08T13:00:00	8	Radiación solar	796
64281	7	Sololá	701	Sololá	1	Sololá	12	Diciembre	2023-12-12T00:00:00	2024-11-08T14:00:00	2	Temperatura media	22.4
64282	7	Sololá	701	Sololá	1	Sololá	12	Diciembre	2023-12-12T00:00:00	2024-11-08T14:00:00	4	Temperatura máxima	22.7
64283	7	Sololá	701	Sololá	1	Sololá	12	Diciembre	2023-12-12T00:00:00	2024-11-08T14:00:00	3	Temperatura mínima	21.9
64284	7	Sololá	701	Sololá	1	Sololá	12	Diciembre	2023-12-12T00:00:00	2024-11-08T14:00:00	5	Humedad	62
64285	7	Sololá	701	Sololá	1	Sololá	12	Diciembre	2023-12-12T00:00:00	2024-11-08T14:00:00	6	Velocidad del viento	0
64286	7	Sololá	701	Sololá	1	Sololá	12	Diciembre	2023-12-12T00:00:00	2024-11-08T14:00:00	7	Dirección del viento	0
64287	7	Sololá	701	Sololá	1	Sololá	12	Diciembre	2023-12-12T00:00:00	2024-11-08T14:00:00	1	Precipitación	0
64288	7	Sololá	701	Sololá	1	Sololá	12	Diciembre	2023-12-12T00:00:00	2024-11-08T14:00:00	8	Radiación solar	656
64289	7	Sololá	701	Sololá	1	Sololá	12	Diciembre	2023-12-12T00:00:00	2024-11-08T15:00:00	2	Temperatura media	20.6
64290	7	Sololá	701	Sololá	1	Sololá	12	Diciembre	2023-12-12T00:00:00	2024-11-08T15:00:00	4	Temperatura máxima	22.5
64291	7	Sololá	701	Sololá	1	Sololá	12	Diciembre	2023-12-12T00:00:00	2024-11-08T15:00:00	3	Temperatura mínima	20.4
64292	7	Sololá	701	Sololá	1	Sololá	12	Diciembre	2023-12-12T00:00:00	2024-11-08T15:00:00	5	Humedad	66
64293	7	Sololá	701	Sololá	1	Sololá	12	Diciembre	2023-12-12T00:00:00	2024-11-08T15:00:00	6	Velocidad del viento	0
64294	7	Sololá	701	Sololá	1	Sololá	12	Diciembre	2023-12-12T00:00:00	2024-11-08T15:00:00	7	Dirección del viento	0
64295	7	Sololá	701	Sololá	1	Sololá	12	Diciembre	2023-12-12T00:00:00	2024-11-08T15:00:00	1	Precipitación	0
64296	7	Sololá	701	Sololá	1	Sololá	12	Diciembre	2023-12-12T00:00:00	2024-11-08T15:00:00	8	Radiación solar	176
64297	7	Sololá	701	Sololá	1	Sololá	12	Diciembre	2023-12-12T00:00:00	2024-11-08T16:00:00	2	Temperatura media	18.3
64298	7	Sololá	701	Sololá	1	Sololá	12	Diciembre	2023-12-12T00:00:00	2024-11-08T16:00:00	4	Temperatura máxima	20.6
64299	7	Sololá	701	Sololá	1	Sololá	12	Diciembre	2023-12-12T00:00:00	2024-11-08T16:00:00	3	Temperatura mínima	18.3
64300	7	Sololá	701	Sololá	1	Sololá	12	Diciembre	2023-12-12T00:00:00	2024-11-08T16:00:00	5	Humedad	72
64301	7	Sololá	701	Sololá	1	Sololá	12	Diciembre	2023-12-12T00:00:00	2024-11-08T16:00:00	6	Velocidad del viento	0
64302	7	Sololá	701	Sololá	1	Sololá	12	Diciembre	2023-12-12T00:00:00	2024-11-08T16:00:00	7	Dirección del viento	0
64303	7	Sololá	701	Sololá	1	Sololá	12	Diciembre	2023-12-12T00:00:00	2024-11-08T16:00:00	1	Precipitación	0
64304	7	Sololá	701	Sololá	1	Sololá	12	Diciembre	2023-12-12T00:00:00	2024-11-08T16:00:00	8	Radiación solar	74
64305	7	Sololá	701	Sololá	1	Sololá	12	Diciembre	2023-12-12T00:00:00	2024-11-08T17:00:00	2	Temperatura media	16.1
64306	7	Sololá	701	Sololá	1	Sololá	12	Diciembre	2023-12-12T00:00:00	2024-11-08T17:00:00	4	Temperatura máxima	18.3
64307	7	Sololá	701	Sololá	1	Sololá	12	Diciembre	2023-12-12T00:00:00	2024-11-08T17:00:00	3	Temperatura mínima	16.1
64308	7	Sololá	701	Sololá	1	Sololá	12	Diciembre	2023-12-12T00:00:00	2024-11-08T17:00:00	5	Humedad	79
64309	7	Sololá	701	Sololá	1	Sololá	12	Diciembre	2023-12-12T00:00:00	2024-11-08T17:00:00	6	Velocidad del viento	0
64310	7	Sololá	701	Sololá	1	Sololá	12	Diciembre	2023-12-12T00:00:00	2024-11-08T17:00:00	7	Dirección del viento	0
64311	7	Sololá	701	Sololá	1	Sololá	12	Diciembre	2023-12-12T00:00:00	2024-11-08T17:00:00	1	Precipitación	0
64312	7	Sololá	701	Sololá	1	Sololá	12	Diciembre	2023-12-12T00:00:00	2024-11-08T17:00:00	8	Radiación solar	35
64313	7	Sololá	701	Sololá	1	Sololá	12	Diciembre	2023-12-12T00:00:00	2024-11-08T18:00:00	2	Temperatura media	14.6
64314	7	Sololá	701	Sololá	1	Sololá	12	Diciembre	2023-12-12T00:00:00	2024-11-08T18:00:00	4	Temperatura máxima	16.1
64315	7	Sololá	701	Sololá	1	Sololá	12	Diciembre	2023-12-12T00:00:00	2024-11-08T18:00:00	3	Temperatura mínima	14.6
64316	7	Sololá	701	Sololá	1	Sololá	12	Diciembre	2023-12-12T00:00:00	2024-11-08T18:00:00	5	Humedad	83
64317	7	Sololá	701	Sololá	1	Sololá	12	Diciembre	2023-12-12T00:00:00	2024-11-08T18:00:00	6	Velocidad del viento	0
64318	7	Sololá	701	Sololá	1	Sololá	12	Diciembre	2023-12-12T00:00:00	2024-11-08T18:00:00	7	Dirección del viento	0
64319	7	Sololá	701	Sololá	1	Sololá	12	Diciembre	2023-12-12T00:00:00	2024-11-08T18:00:00	1	Precipitación	0
64320	7	Sololá	701	Sololá	1	Sololá	12	Diciembre	2023-12-12T00:00:00	2024-11-08T18:00:00	8	Radiación solar	6
64321	7	Sololá	701	Sololá	1	Sololá	12	Diciembre	2023-12-12T00:00:00	2024-11-08T19:00:00	2	Temperatura media	13.9
64322	7	Sololá	701	Sololá	1	Sololá	12	Diciembre	2023-12-12T00:00:00	2024-11-08T19:00:00	4	Temperatura máxima	14.6
64323	7	Sololá	701	Sololá	1	Sololá	12	Diciembre	2023-12-12T00:00:00	2024-11-08T19:00:00	3	Temperatura mínima	13.9
64324	7	Sololá	701	Sololá	1	Sololá	12	Diciembre	2023-12-12T00:00:00	2024-11-08T19:00:00	5	Humedad	85
64325	7	Sololá	701	Sololá	1	Sololá	12	Diciembre	2023-12-12T00:00:00	2024-11-08T19:00:00	6	Velocidad del viento	0
64326	7	Sololá	701	Sololá	1	Sololá	12	Diciembre	2023-12-12T00:00:00	2024-11-08T19:00:00	7	Dirección del viento	0
64327	7	Sololá	701	Sololá	1	Sololá	12	Diciembre	2023-12-12T00:00:00	2024-11-08T19:00:00	1	Precipitación	0
64328	7	Sololá	701	Sololá	1	Sololá	12	Diciembre	2023-12-12T00:00:00	2024-11-08T19:00:00	8	Radiación solar	0
64329	7	Sololá	701	Sololá	1	Sololá	12	Diciembre	2023-12-12T00:00:00	2024-11-08T20:00:00	2	Temperatura media	13.6
64330	7	Sololá	701	Sololá	1	Sololá	12	Diciembre	2023-12-12T00:00:00	2024-11-08T20:00:00	4	Temperatura máxima	13.9
64331	7	Sololá	701	Sololá	1	Sololá	12	Diciembre	2023-12-12T00:00:00	2024-11-08T20:00:00	3	Temperatura mínima	13.6
64332	7	Sololá	701	Sololá	1	Sololá	12	Diciembre	2023-12-12T00:00:00	2024-11-08T20:00:00	5	Humedad	86
64333	7	Sololá	701	Sololá	1	Sololá	12	Diciembre	2023-12-12T00:00:00	2024-11-08T20:00:00	6	Velocidad del viento	0
64334	7	Sololá	701	Sololá	1	Sololá	12	Diciembre	2023-12-12T00:00:00	2024-11-08T20:00:00	7	Dirección del viento	0
64335	7	Sololá	701	Sololá	1	Sololá	12	Diciembre	2023-12-12T00:00:00	2024-11-08T20:00:00	1	Precipitación	0
64336	7	Sololá	701	Sololá	1	Sololá	12	Diciembre	2023-12-12T00:00:00	2024-11-08T20:00:00	8	Radiación solar	0
64337	7	Sololá	701	Sololá	1	Sololá	12	Diciembre	2023-12-12T00:00:00	2024-11-08T21:00:00	2	Temperatura media	13.3
64338	7	Sololá	701	Sololá	1	Sololá	12	Diciembre	2023-12-12T00:00:00	2024-11-08T21:00:00	4	Temperatura máxima	13.6
64339	7	Sololá	701	Sololá	1	Sololá	12	Diciembre	2023-12-12T00:00:00	2024-11-08T21:00:00	3	Temperatura mínima	13.3
64340	7	Sololá	701	Sololá	1	Sololá	12	Diciembre	2023-12-12T00:00:00	2024-11-08T21:00:00	5	Humedad	87
64341	7	Sololá	701	Sololá	1	Sololá	12	Diciembre	2023-12-12T00:00:00	2024-11-08T21:00:00	6	Velocidad del viento	0
64342	7	Sololá	701	Sololá	1	Sololá	12	Diciembre	2023-12-12T00:00:00	2024-11-08T21:00:00	7	Dirección del viento	0
64343	7	Sololá	701	Sololá	1	Sololá	12	Diciembre	2023-12-12T00:00:00	2024-11-08T21:00:00	1	Precipitación	0
64344	7	Sololá	701	Sololá	1	Sololá	12	Diciembre	2023-12-12T00:00:00	2024-11-08T21:00:00	8	Radiación solar	0
64345	7	Sololá	701	Sololá	1	Sololá	12	Diciembre	2023-12-12T00:00:00	2024-11-08T22:00:00	2	Temperatura media	13
64346	7	Sololá	701	Sololá	1	Sololá	12	Diciembre	2023-12-12T00:00:00	2024-11-08T22:00:00	4	Temperatura máxima	13.3
64347	7	Sololá	701	Sololá	1	Sololá	12	Diciembre	2023-12-12T00:00:00	2024-11-08T22:00:00	3	Temperatura mínima	13
64348	7	Sololá	701	Sololá	1	Sololá	12	Diciembre	2023-12-12T00:00:00	2024-11-08T22:00:00	5	Humedad	87
64349	7	Sololá	701	Sololá	1	Sololá	12	Diciembre	2023-12-12T00:00:00	2024-11-08T22:00:00	6	Velocidad del viento	0
64350	7	Sololá	701	Sololá	1	Sololá	12	Diciembre	2023-12-12T00:00:00	2024-11-08T22:00:00	7	Dirección del viento	0
64351	7	Sololá	701	Sololá	1	Sololá	12	Diciembre	2023-12-12T00:00:00	2024-11-08T22:00:00	1	Precipitación	0
64352	7	Sololá	701	Sololá	1	Sololá	12	Diciembre	2023-12-12T00:00:00	2024-11-08T22:00:00	8	Radiación solar	0
64353	7	Sololá	701	Sololá	1	Sololá	12	Diciembre	2023-12-12T00:00:00	2024-11-08T23:00:00	2	Temperatura media	13.2
64354	7	Sololá	701	Sololá	1	Sololá	12	Diciembre	2023-12-12T00:00:00	2024-11-08T23:00:00	4	Temperatura máxima	13.2
64355	7	Sololá	701	Sololá	1	Sololá	12	Diciembre	2023-12-12T00:00:00	2024-11-08T23:00:00	3	Temperatura mínima	13
64356	7	Sololá	701	Sololá	1	Sololá	12	Diciembre	2023-12-12T00:00:00	2024-11-08T23:00:00	5	Humedad	86
64357	7	Sololá	701	Sololá	1	Sololá	12	Diciembre	2023-12-12T00:00:00	2024-11-08T23:00:00	6	Velocidad del viento	0
64358	7	Sololá	701	Sololá	1	Sololá	12	Diciembre	2023-12-12T00:00:00	2024-11-08T23:00:00	7	Dirección del viento	0
64359	7	Sololá	701	Sololá	1	Sololá	12	Diciembre	2023-12-12T00:00:00	2024-11-08T23:00:00	1	Precipitación	0
64360	7	Sololá	701	Sololá	1	Sololá	12	Diciembre	2023-12-12T00:00:00	2024-11-08T23:00:00	8	Radiación solar	0
64361	7	Sololá	701	Sololá	1	Sololá	12	Diciembre	2023-12-13T00:00:00	2024-11-08T00:00:00	2	Temperatura media	13.3
64362	7	Sololá	701	Sololá	1	Sololá	12	Diciembre	2023-12-13T00:00:00	2024-11-08T00:00:00	4	Temperatura máxima	13.3
64363	7	Sololá	701	Sololá	1	Sololá	12	Diciembre	2023-12-13T00:00:00	2024-11-08T00:00:00	3	Temperatura mínima	13.2
64364	7	Sololá	701	Sololá	1	Sololá	12	Diciembre	2023-12-13T00:00:00	2024-11-08T00:00:00	5	Humedad	86
64365	7	Sololá	701	Sololá	1	Sololá	12	Diciembre	2023-12-13T00:00:00	2024-11-08T00:00:00	6	Velocidad del viento	0
64366	7	Sololá	701	Sololá	1	Sololá	12	Diciembre	2023-12-13T00:00:00	2024-11-08T00:00:00	7	Dirección del viento	0
64367	7	Sololá	701	Sololá	1	Sololá	12	Diciembre	2023-12-13T00:00:00	2024-11-08T00:00:00	1	Precipitación	0
64368	7	Sololá	701	Sololá	1	Sololá	12	Diciembre	2023-12-13T00:00:00	2024-11-08T00:00:00	8	Radiación solar	0
64369	7	Sololá	701	Sololá	1	Sololá	12	Diciembre	2023-12-13T00:00:00	2024-11-08T01:00:00	2	Temperatura media	13.1
64370	7	Sololá	701	Sololá	1	Sololá	12	Diciembre	2023-12-13T00:00:00	2024-11-08T01:00:00	4	Temperatura máxima	13.3
64371	7	Sololá	701	Sololá	1	Sololá	12	Diciembre	2023-12-13T00:00:00	2024-11-08T01:00:00	3	Temperatura mínima	13.1
64372	7	Sololá	701	Sololá	1	Sololá	12	Diciembre	2023-12-13T00:00:00	2024-11-08T01:00:00	5	Humedad	87
64373	7	Sololá	701	Sololá	1	Sololá	12	Diciembre	2023-12-13T00:00:00	2024-11-08T01:00:00	6	Velocidad del viento	0
64374	7	Sololá	701	Sololá	1	Sololá	12	Diciembre	2023-12-13T00:00:00	2024-11-08T01:00:00	7	Dirección del viento	0
64375	7	Sololá	701	Sololá	1	Sololá	12	Diciembre	2023-12-13T00:00:00	2024-11-08T01:00:00	1	Precipitación	0
64376	7	Sololá	701	Sololá	1	Sololá	12	Diciembre	2023-12-13T00:00:00	2024-11-08T01:00:00	8	Radiación solar	0
64377	7	Sololá	701	Sololá	1	Sololá	12	Diciembre	2023-12-13T00:00:00	2024-11-08T02:00:00	2	Temperatura media	12.9
64378	7	Sololá	701	Sololá	1	Sololá	12	Diciembre	2023-12-13T00:00:00	2024-11-08T02:00:00	4	Temperatura máxima	13.2
64379	7	Sololá	701	Sololá	1	Sololá	12	Diciembre	2023-12-13T00:00:00	2024-11-08T02:00:00	3	Temperatura mínima	12.9
64380	7	Sololá	701	Sololá	1	Sololá	12	Diciembre	2023-12-13T00:00:00	2024-11-08T02:00:00	5	Humedad	88
64381	7	Sololá	701	Sololá	1	Sololá	12	Diciembre	2023-12-13T00:00:00	2024-11-08T02:00:00	6	Velocidad del viento	0
64382	7	Sololá	701	Sololá	1	Sololá	12	Diciembre	2023-12-13T00:00:00	2024-11-08T02:00:00	7	Dirección del viento	0
64383	7	Sololá	701	Sololá	1	Sololá	12	Diciembre	2023-12-13T00:00:00	2024-11-08T02:00:00	1	Precipitación	0
64384	7	Sololá	701	Sololá	1	Sololá	12	Diciembre	2023-12-13T00:00:00	2024-11-08T02:00:00	8	Radiación solar	0
64385	7	Sololá	701	Sololá	1	Sololá	12	Diciembre	2023-12-13T00:00:00	2024-11-08T03:00:00	2	Temperatura media	12.8
64386	7	Sololá	701	Sololá	1	Sololá	12	Diciembre	2023-12-13T00:00:00	2024-11-08T03:00:00	4	Temperatura máxima	13
64387	7	Sololá	701	Sololá	1	Sololá	12	Diciembre	2023-12-13T00:00:00	2024-11-08T03:00:00	3	Temperatura mínima	12.8
64388	7	Sololá	701	Sololá	1	Sololá	12	Diciembre	2023-12-13T00:00:00	2024-11-08T03:00:00	5	Humedad	89
64389	7	Sololá	701	Sololá	1	Sololá	12	Diciembre	2023-12-13T00:00:00	2024-11-08T03:00:00	6	Velocidad del viento	0
64390	7	Sololá	701	Sololá	1	Sololá	12	Diciembre	2023-12-13T00:00:00	2024-11-08T03:00:00	7	Dirección del viento	0
64391	7	Sololá	701	Sololá	1	Sololá	12	Diciembre	2023-12-13T00:00:00	2024-11-08T03:00:00	1	Precipitación	0
64392	7	Sololá	701	Sololá	1	Sololá	12	Diciembre	2023-12-13T00:00:00	2024-11-08T03:00:00	8	Radiación solar	0
64393	7	Sololá	701	Sololá	1	Sololá	12	Diciembre	2023-12-13T00:00:00	2024-11-08T04:00:00	2	Temperatura media	12.5
64394	7	Sololá	701	Sololá	1	Sololá	12	Diciembre	2023-12-13T00:00:00	2024-11-08T04:00:00	4	Temperatura máxima	12.9
64395	7	Sololá	701	Sololá	1	Sololá	12	Diciembre	2023-12-13T00:00:00	2024-11-08T04:00:00	3	Temperatura mínima	12.5
64396	7	Sololá	701	Sololá	1	Sololá	12	Diciembre	2023-12-13T00:00:00	2024-11-08T04:00:00	5	Humedad	90
64397	7	Sololá	701	Sololá	1	Sololá	12	Diciembre	2023-12-13T00:00:00	2024-11-08T04:00:00	6	Velocidad del viento	0
64398	7	Sololá	701	Sololá	1	Sololá	12	Diciembre	2023-12-13T00:00:00	2024-11-08T04:00:00	7	Dirección del viento	0
64399	7	Sololá	701	Sololá	1	Sololá	12	Diciembre	2023-12-13T00:00:00	2024-11-08T04:00:00	1	Precipitación	0
64400	7	Sololá	701	Sololá	1	Sololá	12	Diciembre	2023-12-13T00:00:00	2024-11-08T04:00:00	8	Radiación solar	0
64401	7	Sololá	701	Sololá	1	Sololá	12	Diciembre	2023-12-13T00:00:00	2024-11-08T05:00:00	2	Temperatura media	12.6
64402	7	Sololá	701	Sololá	1	Sololá	12	Diciembre	2023-12-13T00:00:00	2024-11-08T05:00:00	4	Temperatura máxima	12.6
64403	7	Sololá	701	Sololá	1	Sololá	12	Diciembre	2023-12-13T00:00:00	2024-11-08T05:00:00	3	Temperatura mínima	12.4
64404	7	Sololá	701	Sololá	1	Sololá	12	Diciembre	2023-12-13T00:00:00	2024-11-08T05:00:00	5	Humedad	89
64405	7	Sololá	701	Sololá	1	Sololá	12	Diciembre	2023-12-13T00:00:00	2024-11-08T05:00:00	6	Velocidad del viento	0
64406	7	Sololá	701	Sololá	1	Sololá	12	Diciembre	2023-12-13T00:00:00	2024-11-08T05:00:00	7	Dirección del viento	0
64407	7	Sololá	701	Sololá	1	Sololá	12	Diciembre	2023-12-13T00:00:00	2024-11-08T05:00:00	1	Precipitación	0
64408	7	Sololá	701	Sololá	1	Sololá	12	Diciembre	2023-12-13T00:00:00	2024-11-08T05:00:00	8	Radiación solar	0
64409	7	Sololá	701	Sololá	1	Sololá	12	Diciembre	2023-12-13T00:00:00	2024-11-08T06:00:00	2	Temperatura media	12.7
64410	7	Sololá	701	Sololá	1	Sololá	12	Diciembre	2023-12-13T00:00:00	2024-11-08T06:00:00	4	Temperatura máxima	12.7
64411	7	Sololá	701	Sololá	1	Sololá	12	Diciembre	2023-12-13T00:00:00	2024-11-08T06:00:00	3	Temperatura mínima	12.4
64412	7	Sololá	701	Sololá	1	Sololá	12	Diciembre	2023-12-13T00:00:00	2024-11-08T06:00:00	5	Humedad	87
64413	7	Sololá	701	Sololá	1	Sololá	12	Diciembre	2023-12-13T00:00:00	2024-11-08T06:00:00	6	Velocidad del viento	1.6
64414	7	Sololá	701	Sololá	1	Sololá	12	Diciembre	2023-12-13T00:00:00	2024-11-08T06:00:00	7	Dirección del viento	1.61
64415	7	Sololá	701	Sololá	1	Sololá	12	Diciembre	2023-12-13T00:00:00	2024-11-08T06:00:00	1	Precipitación	0
64416	7	Sololá	701	Sololá	1	Sololá	12	Diciembre	2023-12-13T00:00:00	2024-11-08T06:00:00	8	Radiación solar	0
64417	7	Sololá	701	Sololá	1	Sololá	12	Diciembre	2023-12-13T00:00:00	2024-11-08T07:00:00	2	Temperatura media	13
64418	7	Sololá	701	Sololá	1	Sololá	12	Diciembre	2023-12-13T00:00:00	2024-11-08T07:00:00	4	Temperatura máxima	13
64419	7	Sololá	701	Sololá	1	Sololá	12	Diciembre	2023-12-13T00:00:00	2024-11-08T07:00:00	3	Temperatura mínima	12.7
64420	7	Sololá	701	Sololá	1	Sololá	12	Diciembre	2023-12-13T00:00:00	2024-11-08T07:00:00	5	Humedad	86
64421	7	Sololá	701	Sololá	1	Sololá	12	Diciembre	2023-12-13T00:00:00	2024-11-08T07:00:00	6	Velocidad del viento	0
64422	7	Sololá	701	Sololá	1	Sololá	12	Diciembre	2023-12-13T00:00:00	2024-11-08T07:00:00	7	Dirección del viento	0
64423	7	Sololá	701	Sololá	1	Sololá	12	Diciembre	2023-12-13T00:00:00	2024-11-08T07:00:00	1	Precipitación	0
64424	7	Sololá	701	Sololá	1	Sololá	12	Diciembre	2023-12-13T00:00:00	2024-11-08T07:00:00	8	Radiación solar	5
64425	7	Sololá	701	Sololá	1	Sololá	12	Diciembre	2023-12-13T00:00:00	2024-11-08T08:00:00	2	Temperatura media	14.2
64426	7	Sololá	701	Sololá	1	Sololá	12	Diciembre	2023-12-13T00:00:00	2024-11-08T08:00:00	4	Temperatura máxima	14.2
64427	7	Sololá	701	Sololá	1	Sololá	12	Diciembre	2023-12-13T00:00:00	2024-11-08T08:00:00	3	Temperatura mínima	13
64428	7	Sololá	701	Sololá	1	Sololá	12	Diciembre	2023-12-13T00:00:00	2024-11-08T08:00:00	5	Humedad	84
64429	7	Sololá	701	Sololá	1	Sololá	12	Diciembre	2023-12-13T00:00:00	2024-11-08T08:00:00	6	Velocidad del viento	0
64430	7	Sololá	701	Sololá	1	Sololá	12	Diciembre	2023-12-13T00:00:00	2024-11-08T08:00:00	7	Dirección del viento	0
64431	7	Sololá	701	Sololá	1	Sololá	12	Diciembre	2023-12-13T00:00:00	2024-11-08T08:00:00	1	Precipitación	0
64432	7	Sololá	701	Sololá	1	Sololá	12	Diciembre	2023-12-13T00:00:00	2024-11-08T08:00:00	8	Radiación solar	76
64433	7	Sololá	701	Sololá	1	Sololá	12	Diciembre	2023-12-13T00:00:00	2024-11-08T09:00:00	2	Temperatura media	17.6
64434	7	Sololá	701	Sololá	1	Sololá	12	Diciembre	2023-12-13T00:00:00	2024-11-08T09:00:00	4	Temperatura máxima	17.6
64435	7	Sololá	701	Sololá	1	Sololá	12	Diciembre	2023-12-13T00:00:00	2024-11-08T09:00:00	3	Temperatura mínima	14.2
64436	7	Sololá	701	Sololá	1	Sololá	12	Diciembre	2023-12-13T00:00:00	2024-11-08T09:00:00	5	Humedad	74
64437	7	Sololá	701	Sololá	1	Sololá	12	Diciembre	2023-12-13T00:00:00	2024-11-08T09:00:00	6	Velocidad del viento	0
64438	7	Sololá	701	Sololá	1	Sololá	12	Diciembre	2023-12-13T00:00:00	2024-11-08T09:00:00	7	Dirección del viento	0
64439	7	Sololá	701	Sololá	1	Sololá	12	Diciembre	2023-12-13T00:00:00	2024-11-08T09:00:00	1	Precipitación	0
64440	7	Sololá	701	Sololá	1	Sololá	12	Diciembre	2023-12-13T00:00:00	2024-11-08T09:00:00	8	Radiación solar	503
64441	7	Sololá	701	Sololá	1	Sololá	12	Diciembre	2023-12-13T00:00:00	2024-11-08T10:00:00	2	Temperatura media	18.3
64442	7	Sololá	701	Sololá	1	Sololá	12	Diciembre	2023-12-13T00:00:00	2024-11-08T10:00:00	4	Temperatura máxima	18.3
64443	7	Sololá	701	Sololá	1	Sololá	12	Diciembre	2023-12-13T00:00:00	2024-11-08T10:00:00	3	Temperatura mínima	17.6
64444	7	Sololá	701	Sololá	1	Sololá	12	Diciembre	2023-12-13T00:00:00	2024-11-08T10:00:00	5	Humedad	75
64445	7	Sololá	701	Sololá	1	Sololá	12	Diciembre	2023-12-13T00:00:00	2024-11-08T10:00:00	6	Velocidad del viento	0
64446	7	Sololá	701	Sololá	1	Sololá	12	Diciembre	2023-12-13T00:00:00	2024-11-08T10:00:00	7	Dirección del viento	0
64447	7	Sololá	701	Sololá	1	Sololá	12	Diciembre	2023-12-13T00:00:00	2024-11-08T10:00:00	1	Precipitación	0
64448	7	Sololá	701	Sololá	1	Sololá	12	Diciembre	2023-12-13T00:00:00	2024-11-08T10:00:00	8	Radiación solar	563
64449	7	Sololá	701	Sololá	1	Sololá	12	Diciembre	2023-12-13T00:00:00	2024-11-08T11:00:00	2	Temperatura media	20.8
64450	7	Sololá	701	Sololá	1	Sololá	12	Diciembre	2023-12-13T00:00:00	2024-11-08T11:00:00	4	Temperatura máxima	20.8
64451	7	Sololá	701	Sololá	1	Sololá	12	Diciembre	2023-12-13T00:00:00	2024-11-08T11:00:00	3	Temperatura mínima	18.3
64452	7	Sololá	701	Sololá	1	Sololá	12	Diciembre	2023-12-13T00:00:00	2024-11-08T11:00:00	5	Humedad	66
64453	7	Sololá	701	Sololá	1	Sololá	12	Diciembre	2023-12-13T00:00:00	2024-11-08T11:00:00	6	Velocidad del viento	0
64454	7	Sololá	701	Sololá	1	Sololá	12	Diciembre	2023-12-13T00:00:00	2024-11-08T11:00:00	7	Dirección del viento	0
64455	7	Sololá	701	Sololá	1	Sololá	12	Diciembre	2023-12-13T00:00:00	2024-11-08T11:00:00	1	Precipitación	0
64456	7	Sololá	701	Sololá	1	Sololá	12	Diciembre	2023-12-13T00:00:00	2024-11-08T11:00:00	8	Radiación solar	822
64457	7	Sololá	701	Sololá	1	Sololá	12	Diciembre	2023-12-13T00:00:00	2024-11-08T12:00:00	2	Temperatura media	21.2
64458	7	Sololá	701	Sololá	1	Sololá	12	Diciembre	2023-12-13T00:00:00	2024-11-08T12:00:00	4	Temperatura máxima	21.7
64459	7	Sololá	701	Sololá	1	Sololá	12	Diciembre	2023-12-13T00:00:00	2024-11-08T12:00:00	3	Temperatura mínima	20.7
64460	7	Sololá	701	Sololá	1	Sololá	12	Diciembre	2023-12-13T00:00:00	2024-11-08T12:00:00	5	Humedad	65
64461	7	Sololá	701	Sololá	1	Sololá	12	Diciembre	2023-12-13T00:00:00	2024-11-08T12:00:00	6	Velocidad del viento	0
64462	7	Sololá	701	Sololá	1	Sololá	12	Diciembre	2023-12-13T00:00:00	2024-11-08T12:00:00	7	Dirección del viento	0
64463	7	Sololá	701	Sololá	1	Sololá	12	Diciembre	2023-12-13T00:00:00	2024-11-08T12:00:00	1	Precipitación	0
64464	7	Sololá	701	Sololá	1	Sololá	12	Diciembre	2023-12-13T00:00:00	2024-11-08T12:00:00	8	Radiación solar	870
64465	7	Sololá	701	Sololá	1	Sololá	12	Diciembre	2023-12-13T00:00:00	2024-11-08T13:00:00	2	Temperatura media	21.1
64466	7	Sololá	701	Sololá	1	Sololá	12	Diciembre	2023-12-13T00:00:00	2024-11-08T13:00:00	4	Temperatura máxima	21.4
64467	7	Sololá	701	Sololá	1	Sololá	12	Diciembre	2023-12-13T00:00:00	2024-11-08T13:00:00	3	Temperatura mínima	20.9
64468	7	Sololá	701	Sololá	1	Sololá	12	Diciembre	2023-12-13T00:00:00	2024-11-08T13:00:00	5	Humedad	65
64469	7	Sololá	701	Sololá	1	Sololá	12	Diciembre	2023-12-13T00:00:00	2024-11-08T13:00:00	6	Velocidad del viento	0
64470	7	Sololá	701	Sololá	1	Sololá	12	Diciembre	2023-12-13T00:00:00	2024-11-08T13:00:00	7	Dirección del viento	0
64471	7	Sololá	701	Sololá	1	Sololá	12	Diciembre	2023-12-13T00:00:00	2024-11-08T13:00:00	1	Precipitación	0
64472	7	Sololá	701	Sololá	1	Sololá	12	Diciembre	2023-12-13T00:00:00	2024-11-08T13:00:00	8	Radiación solar	818
64473	7	Sololá	701	Sololá	1	Sololá	12	Diciembre	2023-12-13T00:00:00	2024-11-08T14:00:00	2	Temperatura media	20.8
64474	7	Sololá	701	Sololá	1	Sololá	12	Diciembre	2023-12-13T00:00:00	2024-11-08T14:00:00	4	Temperatura máxima	21.4
64475	7	Sololá	701	Sololá	1	Sololá	12	Diciembre	2023-12-13T00:00:00	2024-11-08T14:00:00	3	Temperatura mínima	20.8
64476	7	Sololá	701	Sololá	1	Sololá	12	Diciembre	2023-12-13T00:00:00	2024-11-08T14:00:00	5	Humedad	64
64477	7	Sololá	701	Sololá	1	Sololá	12	Diciembre	2023-12-13T00:00:00	2024-11-08T14:00:00	6	Velocidad del viento	0
64478	7	Sololá	701	Sololá	1	Sololá	12	Diciembre	2023-12-13T00:00:00	2024-11-08T14:00:00	7	Dirección del viento	0
64479	7	Sololá	701	Sololá	1	Sololá	12	Diciembre	2023-12-13T00:00:00	2024-11-08T14:00:00	1	Precipitación	0
64480	7	Sololá	701	Sololá	1	Sololá	12	Diciembre	2023-12-13T00:00:00	2024-11-08T14:00:00	8	Radiación solar	744
64481	7	Sololá	701	Sololá	1	Sololá	12	Diciembre	2023-12-13T00:00:00	2024-11-08T15:00:00	2	Temperatura media	20.1
64482	7	Sololá	701	Sololá	1	Sololá	12	Diciembre	2023-12-13T00:00:00	2024-11-08T15:00:00	4	Temperatura máxima	20.9
64483	7	Sololá	701	Sololá	1	Sololá	12	Diciembre	2023-12-13T00:00:00	2024-11-08T15:00:00	3	Temperatura mínima	20.1
64484	7	Sololá	701	Sololá	1	Sololá	12	Diciembre	2023-12-13T00:00:00	2024-11-08T15:00:00	5	Humedad	65
64485	7	Sololá	701	Sololá	1	Sololá	12	Diciembre	2023-12-13T00:00:00	2024-11-08T15:00:00	6	Velocidad del viento	0
64486	7	Sololá	701	Sololá	1	Sololá	12	Diciembre	2023-12-13T00:00:00	2024-11-08T15:00:00	7	Dirección del viento	0
64487	7	Sololá	701	Sololá	1	Sololá	12	Diciembre	2023-12-13T00:00:00	2024-11-08T15:00:00	1	Precipitación	0
64488	7	Sololá	701	Sololá	1	Sololá	12	Diciembre	2023-12-13T00:00:00	2024-11-08T15:00:00	8	Radiación solar	281
64489	7	Sololá	701	Sololá	1	Sololá	12	Diciembre	2023-12-13T00:00:00	2024-11-08T16:00:00	2	Temperatura media	19.9
64490	7	Sololá	701	Sololá	1	Sololá	12	Diciembre	2023-12-13T00:00:00	2024-11-08T16:00:00	4	Temperatura máxima	20.1
64491	7	Sololá	701	Sololá	1	Sololá	12	Diciembre	2023-12-13T00:00:00	2024-11-08T16:00:00	3	Temperatura mínima	19.7
64492	7	Sololá	701	Sololá	1	Sololá	12	Diciembre	2023-12-13T00:00:00	2024-11-08T16:00:00	5	Humedad	68
64493	7	Sololá	701	Sololá	1	Sololá	12	Diciembre	2023-12-13T00:00:00	2024-11-08T16:00:00	6	Velocidad del viento	0
64494	7	Sololá	701	Sololá	1	Sololá	12	Diciembre	2023-12-13T00:00:00	2024-11-08T16:00:00	7	Dirección del viento	0
64495	7	Sololá	701	Sololá	1	Sololá	12	Diciembre	2023-12-13T00:00:00	2024-11-08T16:00:00	1	Precipitación	0
64496	7	Sololá	701	Sololá	1	Sololá	12	Diciembre	2023-12-13T00:00:00	2024-11-08T16:00:00	8	Radiación solar	65
64497	7	Sololá	701	Sololá	1	Sololá	12	Diciembre	2023-12-13T00:00:00	2024-11-08T17:00:00	2	Temperatura media	17.9
64498	7	Sololá	701	Sololá	1	Sololá	12	Diciembre	2023-12-13T00:00:00	2024-11-08T17:00:00	4	Temperatura máxima	19.9
64499	7	Sololá	701	Sololá	1	Sololá	12	Diciembre	2023-12-13T00:00:00	2024-11-08T17:00:00	3	Temperatura mínima	17.9
64500	7	Sololá	701	Sololá	1	Sololá	12	Diciembre	2023-12-13T00:00:00	2024-11-08T17:00:00	5	Humedad	70
64501	7	Sololá	701	Sololá	1	Sololá	12	Diciembre	2023-12-13T00:00:00	2024-11-08T17:00:00	6	Velocidad del viento	0
64502	7	Sololá	701	Sololá	1	Sololá	12	Diciembre	2023-12-13T00:00:00	2024-11-08T17:00:00	7	Dirección del viento	0
64503	7	Sololá	701	Sololá	1	Sololá	12	Diciembre	2023-12-13T00:00:00	2024-11-08T17:00:00	1	Precipitación	0
64504	7	Sololá	701	Sololá	1	Sololá	12	Diciembre	2023-12-13T00:00:00	2024-11-08T17:00:00	8	Radiación solar	60
64505	7	Sololá	701	Sololá	1	Sololá	12	Diciembre	2023-12-13T00:00:00	2024-11-08T18:00:00	2	Temperatura media	15.3
64506	7	Sololá	701	Sololá	1	Sololá	12	Diciembre	2023-12-13T00:00:00	2024-11-08T18:00:00	4	Temperatura máxima	17.9
64507	7	Sololá	701	Sololá	1	Sololá	12	Diciembre	2023-12-13T00:00:00	2024-11-08T18:00:00	3	Temperatura mínima	15.3
64508	7	Sololá	701	Sololá	1	Sololá	12	Diciembre	2023-12-13T00:00:00	2024-11-08T18:00:00	5	Humedad	77
64509	7	Sololá	701	Sololá	1	Sololá	12	Diciembre	2023-12-13T00:00:00	2024-11-08T18:00:00	6	Velocidad del viento	0
64510	7	Sololá	701	Sololá	1	Sololá	12	Diciembre	2023-12-13T00:00:00	2024-11-08T18:00:00	7	Dirección del viento	0
64511	7	Sololá	701	Sololá	1	Sololá	12	Diciembre	2023-12-13T00:00:00	2024-11-08T18:00:00	1	Precipitación	0
64512	7	Sololá	701	Sololá	1	Sololá	12	Diciembre	2023-12-13T00:00:00	2024-11-08T18:00:00	8	Radiación solar	8
64513	7	Sololá	701	Sololá	1	Sololá	12	Diciembre	2023-12-13T00:00:00	2024-11-08T19:00:00	2	Temperatura media	14.7
64514	7	Sololá	701	Sololá	1	Sololá	12	Diciembre	2023-12-13T00:00:00	2024-11-08T19:00:00	4	Temperatura máxima	15.3
64515	7	Sololá	701	Sololá	1	Sololá	12	Diciembre	2023-12-13T00:00:00	2024-11-08T19:00:00	3	Temperatura mínima	14.7
64516	7	Sololá	701	Sololá	1	Sololá	12	Diciembre	2023-12-13T00:00:00	2024-11-08T19:00:00	5	Humedad	81
64517	7	Sololá	701	Sololá	1	Sololá	12	Diciembre	2023-12-13T00:00:00	2024-11-08T19:00:00	6	Velocidad del viento	0
64518	7	Sololá	701	Sololá	1	Sololá	12	Diciembre	2023-12-13T00:00:00	2024-11-08T19:00:00	7	Dirección del viento	0
64519	7	Sololá	701	Sololá	1	Sololá	12	Diciembre	2023-12-13T00:00:00	2024-11-08T19:00:00	1	Precipitación	0
64520	7	Sololá	701	Sololá	1	Sololá	12	Diciembre	2023-12-13T00:00:00	2024-11-08T19:00:00	8	Radiación solar	0
64521	7	Sololá	701	Sololá	1	Sololá	12	Diciembre	2023-12-13T00:00:00	2024-11-08T20:00:00	2	Temperatura media	14.6
64522	7	Sololá	701	Sololá	1	Sololá	12	Diciembre	2023-12-13T00:00:00	2024-11-08T20:00:00	4	Temperatura máxima	14.7
64523	7	Sololá	701	Sololá	1	Sololá	12	Diciembre	2023-12-13T00:00:00	2024-11-08T20:00:00	3	Temperatura mínima	14.6
64524	7	Sololá	701	Sololá	1	Sololá	12	Diciembre	2023-12-13T00:00:00	2024-11-08T20:00:00	5	Humedad	83
64525	7	Sololá	701	Sololá	1	Sololá	12	Diciembre	2023-12-13T00:00:00	2024-11-08T20:00:00	6	Velocidad del viento	0
64526	7	Sololá	701	Sololá	1	Sololá	12	Diciembre	2023-12-13T00:00:00	2024-11-08T20:00:00	7	Dirección del viento	0
64527	7	Sololá	701	Sololá	1	Sololá	12	Diciembre	2023-12-13T00:00:00	2024-11-08T20:00:00	1	Precipitación	0
64528	7	Sololá	701	Sololá	1	Sololá	12	Diciembre	2023-12-13T00:00:00	2024-11-08T20:00:00	8	Radiación solar	0
64529	7	Sololá	701	Sololá	1	Sololá	12	Diciembre	2023-12-13T00:00:00	2024-11-08T21:00:00	2	Temperatura media	14.4
64530	7	Sololá	701	Sololá	1	Sololá	12	Diciembre	2023-12-13T00:00:00	2024-11-08T21:00:00	4	Temperatura máxima	14.6
64531	7	Sololá	701	Sololá	1	Sololá	12	Diciembre	2023-12-13T00:00:00	2024-11-08T21:00:00	3	Temperatura mínima	14.3
64532	7	Sololá	701	Sololá	1	Sololá	12	Diciembre	2023-12-13T00:00:00	2024-11-08T21:00:00	5	Humedad	84
64533	7	Sololá	701	Sololá	1	Sololá	12	Diciembre	2023-12-13T00:00:00	2024-11-08T21:00:00	6	Velocidad del viento	1.6
64534	7	Sololá	701	Sololá	1	Sololá	12	Diciembre	2023-12-13T00:00:00	2024-11-08T21:00:00	7	Dirección del viento	1.61
64535	7	Sololá	701	Sololá	1	Sololá	12	Diciembre	2023-12-13T00:00:00	2024-11-08T21:00:00	1	Precipitación	0
64536	7	Sololá	701	Sololá	1	Sololá	12	Diciembre	2023-12-13T00:00:00	2024-11-08T21:00:00	8	Radiación solar	0
64537	7	Sololá	701	Sololá	1	Sololá	12	Diciembre	2023-12-13T00:00:00	2024-11-08T22:00:00	2	Temperatura media	14.5
64538	7	Sololá	701	Sololá	1	Sololá	12	Diciembre	2023-12-13T00:00:00	2024-11-08T22:00:00	4	Temperatura máxima	14.6
64539	7	Sololá	701	Sololá	1	Sololá	12	Diciembre	2023-12-13T00:00:00	2024-11-08T22:00:00	3	Temperatura mínima	14.4
64540	7	Sololá	701	Sololá	1	Sololá	12	Diciembre	2023-12-13T00:00:00	2024-11-08T22:00:00	5	Humedad	84
64541	7	Sololá	701	Sololá	1	Sololá	12	Diciembre	2023-12-13T00:00:00	2024-11-08T22:00:00	6	Velocidad del viento	0
64542	7	Sololá	701	Sololá	1	Sololá	12	Diciembre	2023-12-13T00:00:00	2024-11-08T22:00:00	7	Dirección del viento	0
64543	7	Sololá	701	Sololá	1	Sololá	12	Diciembre	2023-12-13T00:00:00	2024-11-08T22:00:00	1	Precipitación	0
64544	7	Sololá	701	Sololá	1	Sololá	12	Diciembre	2023-12-13T00:00:00	2024-11-08T22:00:00	8	Radiación solar	0
64545	7	Sololá	701	Sololá	1	Sololá	12	Diciembre	2023-12-13T00:00:00	2024-11-08T23:00:00	2	Temperatura media	14.3
64546	7	Sololá	701	Sololá	1	Sololá	12	Diciembre	2023-12-13T00:00:00	2024-11-08T23:00:00	4	Temperatura máxima	14.5
64547	7	Sololá	701	Sololá	1	Sololá	12	Diciembre	2023-12-13T00:00:00	2024-11-08T23:00:00	3	Temperatura mínima	14.3
64548	7	Sololá	701	Sololá	1	Sololá	12	Diciembre	2023-12-13T00:00:00	2024-11-08T23:00:00	5	Humedad	86
64549	7	Sololá	701	Sololá	1	Sololá	12	Diciembre	2023-12-13T00:00:00	2024-11-08T23:00:00	6	Velocidad del viento	0
64550	7	Sololá	701	Sololá	1	Sololá	12	Diciembre	2023-12-13T00:00:00	2024-11-08T23:00:00	7	Dirección del viento	0
64551	7	Sololá	701	Sololá	1	Sololá	12	Diciembre	2023-12-13T00:00:00	2024-11-08T23:00:00	1	Precipitación	0
64552	7	Sololá	701	Sololá	1	Sololá	12	Diciembre	2023-12-13T00:00:00	2024-11-08T23:00:00	8	Radiación solar	0
64553	7	Sololá	701	Sololá	1	Sololá	12	Diciembre	2023-12-14T00:00:00	2024-11-08T00:00:00	2	Temperatura media	14.3
64554	7	Sololá	701	Sololá	1	Sololá	12	Diciembre	2023-12-14T00:00:00	2024-11-08T00:00:00	4	Temperatura máxima	14.3
64555	7	Sololá	701	Sololá	1	Sololá	12	Diciembre	2023-12-14T00:00:00	2024-11-08T00:00:00	3	Temperatura mínima	14.2
64556	7	Sololá	701	Sololá	1	Sololá	12	Diciembre	2023-12-14T00:00:00	2024-11-08T00:00:00	5	Humedad	84
64557	7	Sololá	701	Sololá	1	Sololá	12	Diciembre	2023-12-14T00:00:00	2024-11-08T00:00:00	6	Velocidad del viento	1.6
64558	7	Sololá	701	Sololá	1	Sololá	12	Diciembre	2023-12-14T00:00:00	2024-11-08T00:00:00	7	Dirección del viento	1.61
64559	7	Sololá	701	Sololá	1	Sololá	12	Diciembre	2023-12-14T00:00:00	2024-11-08T00:00:00	1	Precipitación	0
64560	7	Sololá	701	Sololá	1	Sololá	12	Diciembre	2023-12-14T00:00:00	2024-11-08T00:00:00	8	Radiación solar	0
64561	7	Sololá	701	Sololá	1	Sololá	12	Diciembre	2023-12-14T00:00:00	2024-11-08T01:00:00	2	Temperatura media	14.6
64562	7	Sololá	701	Sololá	1	Sololá	12	Diciembre	2023-12-14T00:00:00	2024-11-08T01:00:00	4	Temperatura máxima	14.7
64563	7	Sololá	701	Sololá	1	Sololá	12	Diciembre	2023-12-14T00:00:00	2024-11-08T01:00:00	3	Temperatura mínima	14.3
64564	7	Sololá	701	Sololá	1	Sololá	12	Diciembre	2023-12-14T00:00:00	2024-11-08T01:00:00	5	Humedad	83
64565	7	Sololá	701	Sololá	1	Sololá	12	Diciembre	2023-12-14T00:00:00	2024-11-08T01:00:00	6	Velocidad del viento	1.6
64566	7	Sololá	701	Sololá	1	Sololá	12	Diciembre	2023-12-14T00:00:00	2024-11-08T01:00:00	7	Dirección del viento	1.61
64567	7	Sololá	701	Sololá	1	Sololá	12	Diciembre	2023-12-14T00:00:00	2024-11-08T01:00:00	1	Precipitación	0
64568	7	Sololá	701	Sololá	1	Sololá	12	Diciembre	2023-12-14T00:00:00	2024-11-08T01:00:00	8	Radiación solar	0
64569	7	Sololá	701	Sololá	1	Sololá	12	Diciembre	2023-12-14T00:00:00	2024-11-08T02:00:00	2	Temperatura media	14.4
64570	7	Sololá	701	Sololá	1	Sololá	12	Diciembre	2023-12-14T00:00:00	2024-11-08T02:00:00	4	Temperatura máxima	14.7
64571	7	Sololá	701	Sololá	1	Sololá	12	Diciembre	2023-12-14T00:00:00	2024-11-08T02:00:00	3	Temperatura mínima	14.3
64572	7	Sololá	701	Sololá	1	Sololá	12	Diciembre	2023-12-14T00:00:00	2024-11-08T02:00:00	5	Humedad	84
64573	7	Sololá	701	Sololá	1	Sololá	12	Diciembre	2023-12-14T00:00:00	2024-11-08T02:00:00	6	Velocidad del viento	1.6
64574	7	Sololá	701	Sololá	1	Sololá	12	Diciembre	2023-12-14T00:00:00	2024-11-08T02:00:00	7	Dirección del viento	1.61
64575	7	Sololá	701	Sololá	1	Sololá	12	Diciembre	2023-12-14T00:00:00	2024-11-08T02:00:00	1	Precipitación	0
64576	7	Sololá	701	Sololá	1	Sololá	12	Diciembre	2023-12-14T00:00:00	2024-11-08T02:00:00	8	Radiación solar	0
64577	7	Sololá	701	Sololá	1	Sololá	12	Diciembre	2023-12-14T00:00:00	2024-11-08T03:00:00	2	Temperatura media	14.3
64578	7	Sololá	701	Sololá	1	Sololá	12	Diciembre	2023-12-14T00:00:00	2024-11-08T03:00:00	4	Temperatura máxima	14.4
64579	7	Sololá	701	Sololá	1	Sololá	12	Diciembre	2023-12-14T00:00:00	2024-11-08T03:00:00	3	Temperatura mínima	14.2
64580	7	Sololá	701	Sololá	1	Sololá	12	Diciembre	2023-12-14T00:00:00	2024-11-08T03:00:00	5	Humedad	84
64581	7	Sololá	701	Sololá	1	Sololá	12	Diciembre	2023-12-14T00:00:00	2024-11-08T03:00:00	6	Velocidad del viento	0
64582	7	Sololá	701	Sololá	1	Sololá	12	Diciembre	2023-12-14T00:00:00	2024-11-08T03:00:00	7	Dirección del viento	0
64583	7	Sololá	701	Sololá	1	Sololá	12	Diciembre	2023-12-14T00:00:00	2024-11-08T03:00:00	1	Precipitación	0
64584	7	Sololá	701	Sololá	1	Sololá	12	Diciembre	2023-12-14T00:00:00	2024-11-08T03:00:00	8	Radiación solar	0
64585	7	Sololá	701	Sololá	1	Sololá	12	Diciembre	2023-12-14T00:00:00	2024-11-08T04:00:00	2	Temperatura media	14.3
64586	7	Sololá	701	Sololá	1	Sololá	12	Diciembre	2023-12-14T00:00:00	2024-11-08T04:00:00	4	Temperatura máxima	14.3
64587	7	Sololá	701	Sololá	1	Sololá	12	Diciembre	2023-12-14T00:00:00	2024-11-08T04:00:00	3	Temperatura mínima	14.2
64588	7	Sololá	701	Sololá	1	Sololá	12	Diciembre	2023-12-14T00:00:00	2024-11-08T04:00:00	5	Humedad	83
64589	7	Sololá	701	Sololá	1	Sololá	12	Diciembre	2023-12-14T00:00:00	2024-11-08T04:00:00	6	Velocidad del viento	0
64590	7	Sololá	701	Sololá	1	Sololá	12	Diciembre	2023-12-14T00:00:00	2024-11-08T04:00:00	7	Dirección del viento	0
64591	7	Sololá	701	Sololá	1	Sololá	12	Diciembre	2023-12-14T00:00:00	2024-11-08T04:00:00	1	Precipitación	0
64592	7	Sololá	701	Sololá	1	Sololá	12	Diciembre	2023-12-14T00:00:00	2024-11-08T04:00:00	8	Radiación solar	0
64593	7	Sololá	701	Sololá	1	Sololá	12	Diciembre	2023-12-14T00:00:00	2024-11-08T05:00:00	2	Temperatura media	14.2
64594	7	Sololá	701	Sololá	1	Sololá	12	Diciembre	2023-12-14T00:00:00	2024-11-08T05:00:00	4	Temperatura máxima	14.3
64595	7	Sololá	701	Sololá	1	Sololá	12	Diciembre	2023-12-14T00:00:00	2024-11-08T05:00:00	3	Temperatura mínima	14.2
64596	7	Sololá	701	Sololá	1	Sololá	12	Diciembre	2023-12-14T00:00:00	2024-11-08T05:00:00	5	Humedad	83
64597	7	Sololá	701	Sololá	1	Sololá	12	Diciembre	2023-12-14T00:00:00	2024-11-08T05:00:00	6	Velocidad del viento	0
64598	7	Sololá	701	Sololá	1	Sololá	12	Diciembre	2023-12-14T00:00:00	2024-11-08T05:00:00	7	Dirección del viento	0
64599	7	Sololá	701	Sololá	1	Sololá	12	Diciembre	2023-12-14T00:00:00	2024-11-08T05:00:00	1	Precipitación	0
64600	7	Sololá	701	Sololá	1	Sololá	12	Diciembre	2023-12-14T00:00:00	2024-11-08T05:00:00	8	Radiación solar	0
64601	7	Sololá	701	Sololá	1	Sololá	12	Diciembre	2023-12-14T00:00:00	2024-11-08T06:00:00	2	Temperatura media	14.3
64602	7	Sololá	701	Sololá	1	Sololá	12	Diciembre	2023-12-14T00:00:00	2024-11-08T06:00:00	4	Temperatura máxima	14.4
64603	7	Sololá	701	Sololá	1	Sololá	12	Diciembre	2023-12-14T00:00:00	2024-11-08T06:00:00	3	Temperatura mínima	14.2
64604	7	Sololá	701	Sololá	1	Sololá	12	Diciembre	2023-12-14T00:00:00	2024-11-08T06:00:00	5	Humedad	81
64605	7	Sololá	701	Sololá	1	Sololá	12	Diciembre	2023-12-14T00:00:00	2024-11-08T06:00:00	6	Velocidad del viento	0
64606	7	Sololá	701	Sololá	1	Sololá	12	Diciembre	2023-12-14T00:00:00	2024-11-08T06:00:00	7	Dirección del viento	0
64607	7	Sololá	701	Sololá	1	Sololá	12	Diciembre	2023-12-14T00:00:00	2024-11-08T06:00:00	1	Precipitación	0
64608	7	Sololá	701	Sololá	1	Sololá	12	Diciembre	2023-12-14T00:00:00	2024-11-08T06:00:00	8	Radiación solar	0
64609	7	Sololá	701	Sololá	1	Sololá	12	Diciembre	2023-12-14T00:00:00	2024-11-08T07:00:00	2	Temperatura media	14.4
64610	7	Sololá	701	Sololá	1	Sololá	12	Diciembre	2023-12-14T00:00:00	2024-11-08T07:00:00	4	Temperatura máxima	14.4
64611	7	Sololá	701	Sololá	1	Sololá	12	Diciembre	2023-12-14T00:00:00	2024-11-08T07:00:00	3	Temperatura mínima	14.3
64612	7	Sololá	701	Sololá	1	Sololá	12	Diciembre	2023-12-14T00:00:00	2024-11-08T07:00:00	5	Humedad	81
64613	7	Sololá	701	Sololá	1	Sololá	12	Diciembre	2023-12-14T00:00:00	2024-11-08T07:00:00	6	Velocidad del viento	0
64614	7	Sololá	701	Sololá	1	Sololá	12	Diciembre	2023-12-14T00:00:00	2024-11-08T07:00:00	7	Dirección del viento	0
64615	7	Sololá	701	Sololá	1	Sololá	12	Diciembre	2023-12-14T00:00:00	2024-11-08T07:00:00	1	Precipitación	0
64616	7	Sololá	701	Sololá	1	Sololá	12	Diciembre	2023-12-14T00:00:00	2024-11-08T07:00:00	8	Radiación solar	4
64617	7	Sololá	701	Sololá	1	Sololá	12	Diciembre	2023-12-14T00:00:00	2024-11-08T08:00:00	2	Temperatura media	15.9
64618	7	Sololá	701	Sololá	1	Sololá	12	Diciembre	2023-12-14T00:00:00	2024-11-08T08:00:00	4	Temperatura máxima	15.9
64619	7	Sololá	701	Sololá	1	Sololá	12	Diciembre	2023-12-14T00:00:00	2024-11-08T08:00:00	3	Temperatura mínima	14.4
64620	7	Sololá	701	Sololá	1	Sololá	12	Diciembre	2023-12-14T00:00:00	2024-11-08T08:00:00	5	Humedad	77
64621	7	Sololá	701	Sololá	1	Sololá	12	Diciembre	2023-12-14T00:00:00	2024-11-08T08:00:00	6	Velocidad del viento	0
64622	7	Sololá	701	Sololá	1	Sololá	12	Diciembre	2023-12-14T00:00:00	2024-11-08T08:00:00	7	Dirección del viento	0
64623	7	Sololá	701	Sololá	1	Sololá	12	Diciembre	2023-12-14T00:00:00	2024-11-08T08:00:00	1	Precipitación	0
64624	7	Sololá	701	Sololá	1	Sololá	12	Diciembre	2023-12-14T00:00:00	2024-11-08T08:00:00	8	Radiación solar	82
64625	7	Sololá	701	Sololá	1	Sololá	12	Diciembre	2023-12-14T00:00:00	2024-11-08T09:00:00	2	Temperatura media	19.4
64626	7	Sololá	701	Sololá	1	Sololá	12	Diciembre	2023-12-14T00:00:00	2024-11-08T09:00:00	4	Temperatura máxima	19.4
64627	7	Sololá	701	Sololá	1	Sololá	12	Diciembre	2023-12-14T00:00:00	2024-11-08T09:00:00	3	Temperatura mínima	15.9
64628	7	Sololá	701	Sololá	1	Sololá	12	Diciembre	2023-12-14T00:00:00	2024-11-08T09:00:00	5	Humedad	68
64629	7	Sololá	701	Sololá	1	Sololá	12	Diciembre	2023-12-14T00:00:00	2024-11-08T09:00:00	6	Velocidad del viento	0
64630	7	Sololá	701	Sololá	1	Sololá	12	Diciembre	2023-12-14T00:00:00	2024-11-08T09:00:00	7	Dirección del viento	0
64631	7	Sololá	701	Sololá	1	Sololá	12	Diciembre	2023-12-14T00:00:00	2024-11-08T09:00:00	1	Precipitación	0
64632	7	Sololá	701	Sololá	1	Sololá	12	Diciembre	2023-12-14T00:00:00	2024-11-08T09:00:00	8	Radiación solar	486
64633	7	Sololá	701	Sololá	1	Sololá	12	Diciembre	2023-12-14T00:00:00	2024-11-08T10:00:00	2	Temperatura media	20.8
64634	7	Sololá	701	Sololá	1	Sololá	12	Diciembre	2023-12-14T00:00:00	2024-11-08T10:00:00	4	Temperatura máxima	20.8
64635	7	Sololá	701	Sololá	1	Sololá	12	Diciembre	2023-12-14T00:00:00	2024-11-08T10:00:00	3	Temperatura mínima	19.4
64636	7	Sololá	701	Sololá	1	Sololá	12	Diciembre	2023-12-14T00:00:00	2024-11-08T10:00:00	5	Humedad	65
64637	7	Sololá	701	Sololá	1	Sololá	12	Diciembre	2023-12-14T00:00:00	2024-11-08T10:00:00	6	Velocidad del viento	1.6
64638	7	Sololá	701	Sololá	1	Sololá	12	Diciembre	2023-12-14T00:00:00	2024-11-08T10:00:00	7	Dirección del viento	1.61
64639	7	Sololá	701	Sololá	1	Sololá	12	Diciembre	2023-12-14T00:00:00	2024-11-08T10:00:00	1	Precipitación	0
64640	7	Sololá	701	Sololá	1	Sololá	12	Diciembre	2023-12-14T00:00:00	2024-11-08T10:00:00	8	Radiación solar	664
64641	7	Sololá	701	Sololá	1	Sololá	12	Diciembre	2023-12-14T00:00:00	2024-11-08T11:00:00	2	Temperatura media	22.6
64642	7	Sololá	701	Sololá	1	Sololá	12	Diciembre	2023-12-14T00:00:00	2024-11-08T11:00:00	4	Temperatura máxima	22.6
64643	7	Sololá	701	Sololá	1	Sololá	12	Diciembre	2023-12-14T00:00:00	2024-11-08T11:00:00	3	Temperatura mínima	20.8
64644	7	Sololá	701	Sololá	1	Sololá	12	Diciembre	2023-12-14T00:00:00	2024-11-08T11:00:00	5	Humedad	60
64645	7	Sololá	701	Sololá	1	Sololá	12	Diciembre	2023-12-14T00:00:00	2024-11-08T11:00:00	6	Velocidad del viento	0
64646	7	Sololá	701	Sololá	1	Sololá	12	Diciembre	2023-12-14T00:00:00	2024-11-08T11:00:00	7	Dirección del viento	0
64647	7	Sololá	701	Sololá	1	Sololá	12	Diciembre	2023-12-14T00:00:00	2024-11-08T11:00:00	1	Precipitación	0
64648	7	Sololá	701	Sololá	1	Sololá	12	Diciembre	2023-12-14T00:00:00	2024-11-08T11:00:00	8	Radiación solar	785
64649	7	Sololá	701	Sololá	1	Sololá	12	Diciembre	2023-12-14T00:00:00	2024-11-08T12:00:00	2	Temperatura media	22.9
64650	7	Sololá	701	Sololá	1	Sololá	12	Diciembre	2023-12-14T00:00:00	2024-11-08T12:00:00	4	Temperatura máxima	23.2
64651	7	Sololá	701	Sololá	1	Sololá	12	Diciembre	2023-12-14T00:00:00	2024-11-08T12:00:00	3	Temperatura mínima	22.5
64652	7	Sololá	701	Sololá	1	Sololá	12	Diciembre	2023-12-14T00:00:00	2024-11-08T12:00:00	5	Humedad	59
64653	7	Sololá	701	Sololá	1	Sololá	12	Diciembre	2023-12-14T00:00:00	2024-11-08T12:00:00	6	Velocidad del viento	0
64654	7	Sololá	701	Sololá	1	Sololá	12	Diciembre	2023-12-14T00:00:00	2024-11-08T12:00:00	7	Dirección del viento	0
64655	7	Sololá	701	Sololá	1	Sololá	12	Diciembre	2023-12-14T00:00:00	2024-11-08T12:00:00	1	Precipitación	0
64656	7	Sololá	701	Sololá	1	Sololá	12	Diciembre	2023-12-14T00:00:00	2024-11-08T12:00:00	8	Radiación solar	850
64657	7	Sololá	701	Sololá	1	Sololá	12	Diciembre	2023-12-14T00:00:00	2024-11-08T13:00:00	2	Temperatura media	23.9
64658	7	Sololá	701	Sololá	1	Sololá	12	Diciembre	2023-12-14T00:00:00	2024-11-08T13:00:00	4	Temperatura máxima	24.1
64659	7	Sololá	701	Sololá	1	Sololá	12	Diciembre	2023-12-14T00:00:00	2024-11-08T13:00:00	3	Temperatura mínima	22.9
64660	7	Sololá	701	Sololá	1	Sololá	12	Diciembre	2023-12-14T00:00:00	2024-11-08T13:00:00	5	Humedad	59
64661	7	Sololá	701	Sololá	1	Sololá	12	Diciembre	2023-12-14T00:00:00	2024-11-08T13:00:00	6	Velocidad del viento	0
64662	7	Sololá	701	Sololá	1	Sololá	12	Diciembre	2023-12-14T00:00:00	2024-11-08T13:00:00	7	Dirección del viento	0
64663	7	Sololá	701	Sololá	1	Sololá	12	Diciembre	2023-12-14T00:00:00	2024-11-08T13:00:00	1	Precipitación	0
64664	7	Sololá	701	Sololá	1	Sololá	12	Diciembre	2023-12-14T00:00:00	2024-11-08T13:00:00	8	Radiación solar	831
64665	7	Sololá	701	Sololá	1	Sololá	12	Diciembre	2023-12-14T00:00:00	2024-11-08T14:00:00	2	Temperatura media	24.3
64666	7	Sololá	701	Sololá	1	Sololá	12	Diciembre	2023-12-14T00:00:00	2024-11-08T14:00:00	4	Temperatura máxima	24.5
64667	7	Sololá	701	Sololá	1	Sololá	12	Diciembre	2023-12-14T00:00:00	2024-11-08T14:00:00	3	Temperatura mínima	23.9
64668	7	Sololá	701	Sololá	1	Sololá	12	Diciembre	2023-12-14T00:00:00	2024-11-08T14:00:00	5	Humedad	56
64669	7	Sololá	701	Sololá	1	Sololá	12	Diciembre	2023-12-14T00:00:00	2024-11-08T14:00:00	6	Velocidad del viento	0
64670	7	Sololá	701	Sololá	1	Sololá	12	Diciembre	2023-12-14T00:00:00	2024-11-08T14:00:00	7	Dirección del viento	0
64671	7	Sololá	701	Sololá	1	Sololá	12	Diciembre	2023-12-14T00:00:00	2024-11-08T14:00:00	1	Precipitación	0
64672	7	Sololá	701	Sololá	1	Sololá	12	Diciembre	2023-12-14T00:00:00	2024-11-08T14:00:00	8	Radiación solar	741
64673	7	Sololá	701	Sololá	1	Sololá	12	Diciembre	2023-12-14T00:00:00	2024-11-08T15:00:00	2	Temperatura media	22.6
64674	7	Sololá	701	Sololá	1	Sololá	12	Diciembre	2023-12-14T00:00:00	2024-11-08T15:00:00	4	Temperatura máxima	24.4
64675	7	Sololá	701	Sololá	1	Sololá	12	Diciembre	2023-12-14T00:00:00	2024-11-08T15:00:00	3	Temperatura mínima	22.6
64676	7	Sololá	701	Sololá	1	Sololá	12	Diciembre	2023-12-14T00:00:00	2024-11-08T15:00:00	5	Humedad	61
64677	7	Sololá	701	Sololá	1	Sololá	12	Diciembre	2023-12-14T00:00:00	2024-11-08T15:00:00	6	Velocidad del viento	0
64678	7	Sololá	701	Sololá	1	Sololá	12	Diciembre	2023-12-14T00:00:00	2024-11-08T15:00:00	7	Dirección del viento	0
64679	7	Sololá	701	Sololá	1	Sololá	12	Diciembre	2023-12-14T00:00:00	2024-11-08T15:00:00	1	Precipitación	0
64680	7	Sololá	701	Sololá	1	Sololá	12	Diciembre	2023-12-14T00:00:00	2024-11-08T15:00:00	8	Radiación solar	334
64681	7	Sololá	701	Sololá	1	Sololá	12	Diciembre	2023-12-14T00:00:00	2024-11-08T16:00:00	2	Temperatura media	22.8
64682	7	Sololá	701	Sololá	1	Sololá	12	Diciembre	2023-12-14T00:00:00	2024-11-08T16:00:00	4	Temperatura máxima	22.8
64683	7	Sololá	701	Sololá	1	Sololá	12	Diciembre	2023-12-14T00:00:00	2024-11-08T16:00:00	3	Temperatura mínima	22.2
64684	7	Sololá	701	Sololá	1	Sololá	12	Diciembre	2023-12-14T00:00:00	2024-11-08T16:00:00	5	Humedad	60
64685	7	Sololá	701	Sololá	1	Sololá	12	Diciembre	2023-12-14T00:00:00	2024-11-08T16:00:00	6	Velocidad del viento	0
64686	7	Sololá	701	Sololá	1	Sololá	12	Diciembre	2023-12-14T00:00:00	2024-11-08T16:00:00	7	Dirección del viento	0
64687	7	Sololá	701	Sololá	1	Sololá	12	Diciembre	2023-12-14T00:00:00	2024-11-08T16:00:00	1	Precipitación	0
64688	7	Sololá	701	Sololá	1	Sololá	12	Diciembre	2023-12-14T00:00:00	2024-11-08T16:00:00	8	Radiación solar	62
64689	7	Sololá	701	Sololá	1	Sololá	12	Diciembre	2023-12-14T00:00:00	2024-11-08T17:00:00	2	Temperatura media	19.5
64690	7	Sololá	701	Sololá	1	Sololá	12	Diciembre	2023-12-14T00:00:00	2024-11-08T17:00:00	4	Temperatura máxima	22.8
64691	7	Sololá	701	Sololá	1	Sololá	12	Diciembre	2023-12-14T00:00:00	2024-11-08T17:00:00	3	Temperatura mínima	19.4
64692	7	Sololá	701	Sololá	1	Sololá	12	Diciembre	2023-12-14T00:00:00	2024-11-08T17:00:00	5	Humedad	68
64693	7	Sololá	701	Sololá	1	Sololá	12	Diciembre	2023-12-14T00:00:00	2024-11-08T17:00:00	6	Velocidad del viento	0
64694	7	Sololá	701	Sololá	1	Sololá	12	Diciembre	2023-12-14T00:00:00	2024-11-08T17:00:00	7	Dirección del viento	0
64695	7	Sololá	701	Sololá	1	Sololá	12	Diciembre	2023-12-14T00:00:00	2024-11-08T17:00:00	1	Precipitación	0
64696	7	Sololá	701	Sololá	1	Sololá	12	Diciembre	2023-12-14T00:00:00	2024-11-08T17:00:00	8	Radiación solar	60
64697	7	Sololá	701	Sololá	1	Sololá	12	Diciembre	2023-12-14T00:00:00	2024-11-08T18:00:00	2	Temperatura media	16.7
64698	7	Sololá	701	Sololá	1	Sololá	12	Diciembre	2023-12-14T00:00:00	2024-11-08T18:00:00	4	Temperatura máxima	19.4
64699	7	Sololá	701	Sololá	1	Sololá	12	Diciembre	2023-12-14T00:00:00	2024-11-08T18:00:00	3	Temperatura mínima	16.7
64700	7	Sololá	701	Sololá	1	Sololá	12	Diciembre	2023-12-14T00:00:00	2024-11-08T18:00:00	5	Humedad	76
64701	7	Sololá	701	Sololá	1	Sololá	12	Diciembre	2023-12-14T00:00:00	2024-11-08T18:00:00	6	Velocidad del viento	0
64702	7	Sololá	701	Sololá	1	Sololá	12	Diciembre	2023-12-14T00:00:00	2024-11-08T18:00:00	7	Dirección del viento	0
64703	7	Sololá	701	Sololá	1	Sololá	12	Diciembre	2023-12-14T00:00:00	2024-11-08T18:00:00	1	Precipitación	0
64704	7	Sololá	701	Sololá	1	Sololá	12	Diciembre	2023-12-14T00:00:00	2024-11-08T18:00:00	8	Radiación solar	4
64705	7	Sololá	701	Sololá	1	Sololá	12	Diciembre	2023-12-14T00:00:00	2024-11-08T19:00:00	2	Temperatura media	15.7
64706	7	Sololá	701	Sololá	1	Sololá	12	Diciembre	2023-12-14T00:00:00	2024-11-08T19:00:00	4	Temperatura máxima	16.7
64707	7	Sololá	701	Sololá	1	Sololá	12	Diciembre	2023-12-14T00:00:00	2024-11-08T19:00:00	3	Temperatura mínima	15.6
64708	7	Sololá	701	Sololá	1	Sololá	12	Diciembre	2023-12-14T00:00:00	2024-11-08T19:00:00	5	Humedad	79
64709	7	Sololá	701	Sololá	1	Sololá	12	Diciembre	2023-12-14T00:00:00	2024-11-08T19:00:00	6	Velocidad del viento	0
64710	7	Sololá	701	Sololá	1	Sololá	12	Diciembre	2023-12-14T00:00:00	2024-11-08T19:00:00	7	Dirección del viento	0
64711	7	Sololá	701	Sololá	1	Sololá	12	Diciembre	2023-12-14T00:00:00	2024-11-08T19:00:00	1	Precipitación	0
64712	7	Sololá	701	Sololá	1	Sololá	12	Diciembre	2023-12-14T00:00:00	2024-11-08T19:00:00	8	Radiación solar	0
64713	7	Sololá	701	Sololá	1	Sololá	12	Diciembre	2023-12-14T00:00:00	2024-11-08T20:00:00	2	Temperatura media	15.2
64714	7	Sololá	701	Sololá	1	Sololá	12	Diciembre	2023-12-14T00:00:00	2024-11-08T20:00:00	4	Temperatura máxima	15.7
64715	7	Sololá	701	Sololá	1	Sololá	12	Diciembre	2023-12-14T00:00:00	2024-11-08T20:00:00	3	Temperatura mínima	15.2
64716	7	Sololá	701	Sololá	1	Sololá	12	Diciembre	2023-12-14T00:00:00	2024-11-08T20:00:00	5	Humedad	80
64717	7	Sololá	701	Sololá	1	Sololá	12	Diciembre	2023-12-14T00:00:00	2024-11-08T20:00:00	6	Velocidad del viento	0
64718	7	Sololá	701	Sololá	1	Sololá	12	Diciembre	2023-12-14T00:00:00	2024-11-08T20:00:00	7	Dirección del viento	0
64719	7	Sololá	701	Sololá	1	Sololá	12	Diciembre	2023-12-14T00:00:00	2024-11-08T20:00:00	1	Precipitación	0
64720	7	Sololá	701	Sololá	1	Sololá	12	Diciembre	2023-12-14T00:00:00	2024-11-08T20:00:00	8	Radiación solar	0
64721	7	Sololá	701	Sololá	1	Sololá	12	Diciembre	2023-12-14T00:00:00	2024-11-08T21:00:00	2	Temperatura media	14.9
64722	7	Sololá	701	Sololá	1	Sololá	12	Diciembre	2023-12-14T00:00:00	2024-11-08T21:00:00	4	Temperatura máxima	15.3
64723	7	Sololá	701	Sololá	1	Sololá	12	Diciembre	2023-12-14T00:00:00	2024-11-08T21:00:00	3	Temperatura mínima	14.9
64724	7	Sololá	701	Sololá	1	Sololá	12	Diciembre	2023-12-14T00:00:00	2024-11-08T21:00:00	5	Humedad	80
64725	7	Sololá	701	Sololá	1	Sololá	12	Diciembre	2023-12-14T00:00:00	2024-11-08T21:00:00	6	Velocidad del viento	0
64726	7	Sololá	701	Sololá	1	Sololá	12	Diciembre	2023-12-14T00:00:00	2024-11-08T21:00:00	7	Dirección del viento	0
64727	7	Sololá	701	Sololá	1	Sololá	12	Diciembre	2023-12-14T00:00:00	2024-11-08T21:00:00	1	Precipitación	0
64728	7	Sololá	701	Sololá	1	Sololá	12	Diciembre	2023-12-14T00:00:00	2024-11-08T21:00:00	8	Radiación solar	0
64729	7	Sololá	701	Sololá	1	Sololá	12	Diciembre	2023-12-14T00:00:00	2024-11-08T22:00:00	2	Temperatura media	14.3
64730	7	Sololá	701	Sololá	1	Sololá	12	Diciembre	2023-12-14T00:00:00	2024-11-08T22:00:00	4	Temperatura máxima	15
64731	7	Sololá	701	Sololá	1	Sololá	12	Diciembre	2023-12-14T00:00:00	2024-11-08T22:00:00	3	Temperatura mínima	14.3
64732	7	Sololá	701	Sololá	1	Sololá	12	Diciembre	2023-12-14T00:00:00	2024-11-08T22:00:00	5	Humedad	81
64733	7	Sololá	701	Sololá	1	Sololá	12	Diciembre	2023-12-14T00:00:00	2024-11-08T22:00:00	6	Velocidad del viento	0
64734	7	Sololá	701	Sololá	1	Sololá	12	Diciembre	2023-12-14T00:00:00	2024-11-08T22:00:00	7	Dirección del viento	0
64735	7	Sololá	701	Sololá	1	Sololá	12	Diciembre	2023-12-14T00:00:00	2024-11-08T22:00:00	1	Precipitación	0
64736	7	Sololá	701	Sololá	1	Sololá	12	Diciembre	2023-12-14T00:00:00	2024-11-08T22:00:00	8	Radiación solar	0
64737	7	Sololá	701	Sololá	1	Sololá	12	Diciembre	2023-12-14T00:00:00	2024-11-08T23:00:00	2	Temperatura media	13.8
64738	7	Sololá	701	Sololá	1	Sololá	12	Diciembre	2023-12-14T00:00:00	2024-11-08T23:00:00	4	Temperatura máxima	14.3
64739	7	Sololá	701	Sololá	1	Sololá	12	Diciembre	2023-12-14T00:00:00	2024-11-08T23:00:00	3	Temperatura mínima	13.8
64740	7	Sololá	701	Sololá	1	Sololá	12	Diciembre	2023-12-14T00:00:00	2024-11-08T23:00:00	5	Humedad	82
64741	7	Sololá	701	Sololá	1	Sololá	12	Diciembre	2023-12-14T00:00:00	2024-11-08T23:00:00	6	Velocidad del viento	0
64742	7	Sololá	701	Sololá	1	Sololá	12	Diciembre	2023-12-14T00:00:00	2024-11-08T23:00:00	7	Dirección del viento	0
64743	7	Sololá	701	Sololá	1	Sololá	12	Diciembre	2023-12-14T00:00:00	2024-11-08T23:00:00	1	Precipitación	0
64744	7	Sololá	701	Sololá	1	Sololá	12	Diciembre	2023-12-14T00:00:00	2024-11-08T23:00:00	8	Radiación solar	0
64745	7	Sololá	701	Sololá	1	Sololá	12	Diciembre	2023-12-15T00:00:00	2024-11-08T00:00:00	2	Temperatura media	13.5
64746	7	Sololá	701	Sololá	1	Sololá	12	Diciembre	2023-12-15T00:00:00	2024-11-08T00:00:00	4	Temperatura máxima	13.9
64747	7	Sololá	701	Sololá	1	Sololá	12	Diciembre	2023-12-15T00:00:00	2024-11-08T00:00:00	3	Temperatura mínima	13.5
64748	7	Sololá	701	Sololá	1	Sololá	12	Diciembre	2023-12-15T00:00:00	2024-11-08T00:00:00	5	Humedad	80
64749	7	Sololá	701	Sololá	1	Sololá	12	Diciembre	2023-12-15T00:00:00	2024-11-08T00:00:00	6	Velocidad del viento	0
64750	7	Sololá	701	Sololá	1	Sololá	12	Diciembre	2023-12-15T00:00:00	2024-11-08T00:00:00	7	Dirección del viento	0
64751	7	Sololá	701	Sololá	1	Sololá	12	Diciembre	2023-12-15T00:00:00	2024-11-08T00:00:00	1	Precipitación	0
64752	7	Sololá	701	Sololá	1	Sololá	12	Diciembre	2023-12-15T00:00:00	2024-11-08T00:00:00	8	Radiación solar	0
64753	7	Sololá	701	Sololá	1	Sololá	12	Diciembre	2023-12-15T00:00:00	2024-11-08T01:00:00	2	Temperatura media	13.5
64754	7	Sololá	701	Sololá	1	Sololá	12	Diciembre	2023-12-15T00:00:00	2024-11-08T01:00:00	4	Temperatura máxima	13.5
64755	7	Sololá	701	Sololá	1	Sololá	12	Diciembre	2023-12-15T00:00:00	2024-11-08T01:00:00	3	Temperatura mínima	13.4
64756	7	Sololá	701	Sololá	1	Sololá	12	Diciembre	2023-12-15T00:00:00	2024-11-08T01:00:00	5	Humedad	78
64757	7	Sololá	701	Sololá	1	Sololá	12	Diciembre	2023-12-15T00:00:00	2024-11-08T01:00:00	6	Velocidad del viento	0
64758	7	Sololá	701	Sololá	1	Sololá	12	Diciembre	2023-12-15T00:00:00	2024-11-08T01:00:00	7	Dirección del viento	0
64759	7	Sololá	701	Sololá	1	Sololá	12	Diciembre	2023-12-15T00:00:00	2024-11-08T01:00:00	1	Precipitación	0
64760	7	Sololá	701	Sololá	1	Sololá	12	Diciembre	2023-12-15T00:00:00	2024-11-08T01:00:00	8	Radiación solar	0
64761	7	Sololá	701	Sololá	1	Sololá	12	Diciembre	2023-12-15T00:00:00	2024-11-08T02:00:00	2	Temperatura media	14.1
64762	7	Sololá	701	Sololá	1	Sololá	12	Diciembre	2023-12-15T00:00:00	2024-11-08T02:00:00	4	Temperatura máxima	14.1
64763	7	Sololá	701	Sololá	1	Sololá	12	Diciembre	2023-12-15T00:00:00	2024-11-08T02:00:00	3	Temperatura mínima	13.5
64764	7	Sololá	701	Sololá	1	Sololá	12	Diciembre	2023-12-15T00:00:00	2024-11-08T02:00:00	5	Humedad	79
64765	7	Sololá	701	Sololá	1	Sololá	12	Diciembre	2023-12-15T00:00:00	2024-11-08T02:00:00	6	Velocidad del viento	0
64766	7	Sololá	701	Sololá	1	Sololá	12	Diciembre	2023-12-15T00:00:00	2024-11-08T02:00:00	7	Dirección del viento	0
64767	7	Sololá	701	Sololá	1	Sololá	12	Diciembre	2023-12-15T00:00:00	2024-11-08T02:00:00	1	Precipitación	0
64768	7	Sololá	701	Sololá	1	Sololá	12	Diciembre	2023-12-15T00:00:00	2024-11-08T02:00:00	8	Radiación solar	0
64769	7	Sololá	701	Sololá	1	Sololá	12	Diciembre	2023-12-15T00:00:00	2024-11-08T03:00:00	2	Temperatura media	13.9
64770	7	Sololá	701	Sololá	1	Sololá	12	Diciembre	2023-12-15T00:00:00	2024-11-08T03:00:00	4	Temperatura máxima	14.2
64771	7	Sololá	701	Sololá	1	Sololá	12	Diciembre	2023-12-15T00:00:00	2024-11-08T03:00:00	3	Temperatura mínima	13.8
64772	7	Sololá	701	Sololá	1	Sololá	12	Diciembre	2023-12-15T00:00:00	2024-11-08T03:00:00	5	Humedad	80
64773	7	Sololá	701	Sololá	1	Sololá	12	Diciembre	2023-12-15T00:00:00	2024-11-08T03:00:00	6	Velocidad del viento	0
64774	7	Sololá	701	Sololá	1	Sololá	12	Diciembre	2023-12-15T00:00:00	2024-11-08T03:00:00	7	Dirección del viento	0
64775	7	Sololá	701	Sololá	1	Sololá	12	Diciembre	2023-12-15T00:00:00	2024-11-08T03:00:00	1	Precipitación	0
64776	7	Sololá	701	Sololá	1	Sololá	12	Diciembre	2023-12-15T00:00:00	2024-11-08T03:00:00	8	Radiación solar	0
64777	7	Sololá	701	Sololá	1	Sololá	12	Diciembre	2023-12-15T00:00:00	2024-11-08T04:00:00	2	Temperatura media	12.7
64778	7	Sololá	701	Sololá	1	Sololá	12	Diciembre	2023-12-15T00:00:00	2024-11-08T04:00:00	4	Temperatura máxima	13.9
64779	7	Sololá	701	Sololá	1	Sololá	12	Diciembre	2023-12-15T00:00:00	2024-11-08T04:00:00	3	Temperatura mínima	12.7
64780	7	Sololá	701	Sololá	1	Sololá	12	Diciembre	2023-12-15T00:00:00	2024-11-08T04:00:00	5	Humedad	81
64781	7	Sololá	701	Sololá	1	Sololá	12	Diciembre	2023-12-15T00:00:00	2024-11-08T04:00:00	6	Velocidad del viento	0
64782	7	Sololá	701	Sololá	1	Sololá	12	Diciembre	2023-12-15T00:00:00	2024-11-08T04:00:00	7	Dirección del viento	0
64783	7	Sololá	701	Sololá	1	Sololá	12	Diciembre	2023-12-15T00:00:00	2024-11-08T04:00:00	1	Precipitación	0
64784	7	Sololá	701	Sololá	1	Sololá	12	Diciembre	2023-12-15T00:00:00	2024-11-08T04:00:00	8	Radiación solar	0
64785	7	Sololá	701	Sololá	1	Sololá	12	Diciembre	2023-12-15T00:00:00	2024-11-08T05:00:00	2	Temperatura media	12.4
64786	7	Sololá	701	Sololá	1	Sololá	12	Diciembre	2023-12-15T00:00:00	2024-11-08T05:00:00	4	Temperatura máxima	12.7
64787	7	Sololá	701	Sololá	1	Sololá	12	Diciembre	2023-12-15T00:00:00	2024-11-08T05:00:00	3	Temperatura mínima	12.1
64788	7	Sololá	701	Sololá	1	Sololá	12	Diciembre	2023-12-15T00:00:00	2024-11-08T05:00:00	5	Humedad	82
64789	7	Sololá	701	Sololá	1	Sololá	12	Diciembre	2023-12-15T00:00:00	2024-11-08T05:00:00	6	Velocidad del viento	0
64790	7	Sololá	701	Sololá	1	Sololá	12	Diciembre	2023-12-15T00:00:00	2024-11-08T05:00:00	7	Dirección del viento	0
64791	7	Sololá	701	Sololá	1	Sololá	12	Diciembre	2023-12-15T00:00:00	2024-11-08T05:00:00	1	Precipitación	0
64792	7	Sololá	701	Sololá	1	Sololá	12	Diciembre	2023-12-15T00:00:00	2024-11-08T05:00:00	8	Radiación solar	0
64793	7	Sololá	701	Sololá	1	Sololá	12	Diciembre	2023-12-15T00:00:00	2024-11-08T06:00:00	2	Temperatura media	13.6
64794	7	Sololá	701	Sololá	1	Sololá	12	Diciembre	2023-12-15T00:00:00	2024-11-08T06:00:00	4	Temperatura máxima	13.6
64795	7	Sololá	701	Sololá	1	Sololá	12	Diciembre	2023-12-15T00:00:00	2024-11-08T06:00:00	3	Temperatura mínima	12.4
64796	7	Sololá	701	Sololá	1	Sololá	12	Diciembre	2023-12-15T00:00:00	2024-11-08T06:00:00	5	Humedad	79
64797	7	Sololá	701	Sololá	1	Sololá	12	Diciembre	2023-12-15T00:00:00	2024-11-08T06:00:00	6	Velocidad del viento	0
64798	7	Sololá	701	Sololá	1	Sololá	12	Diciembre	2023-12-15T00:00:00	2024-11-08T06:00:00	7	Dirección del viento	0
64799	7	Sololá	701	Sololá	1	Sololá	12	Diciembre	2023-12-15T00:00:00	2024-11-08T06:00:00	1	Precipitación	0
64800	7	Sololá	701	Sololá	1	Sololá	12	Diciembre	2023-12-15T00:00:00	2024-11-08T06:00:00	8	Radiación solar	0
64801	7	Sololá	701	Sololá	1	Sololá	12	Diciembre	2023-12-15T00:00:00	2024-11-08T07:00:00	2	Temperatura media	14.3
64802	7	Sololá	701	Sololá	1	Sololá	12	Diciembre	2023-12-15T00:00:00	2024-11-08T07:00:00	4	Temperatura máxima	14.3
64803	7	Sololá	701	Sololá	1	Sololá	12	Diciembre	2023-12-15T00:00:00	2024-11-08T07:00:00	3	Temperatura mínima	13.6
64804	7	Sololá	701	Sololá	1	Sololá	12	Diciembre	2023-12-15T00:00:00	2024-11-08T07:00:00	5	Humedad	79
64805	7	Sololá	701	Sololá	1	Sololá	12	Diciembre	2023-12-15T00:00:00	2024-11-08T07:00:00	6	Velocidad del viento	0
64806	7	Sololá	701	Sololá	1	Sololá	12	Diciembre	2023-12-15T00:00:00	2024-11-08T07:00:00	7	Dirección del viento	0
64807	7	Sololá	701	Sololá	1	Sololá	12	Diciembre	2023-12-15T00:00:00	2024-11-08T07:00:00	1	Precipitación	0
64808	7	Sololá	701	Sololá	1	Sololá	12	Diciembre	2023-12-15T00:00:00	2024-11-08T07:00:00	8	Radiación solar	15
64809	7	Sololá	701	Sololá	1	Sololá	12	Diciembre	2023-12-15T00:00:00	2024-11-08T08:00:00	2	Temperatura media	15.5
64810	7	Sololá	701	Sololá	1	Sololá	12	Diciembre	2023-12-15T00:00:00	2024-11-08T08:00:00	4	Temperatura máxima	15.5
64811	7	Sololá	701	Sololá	1	Sololá	12	Diciembre	2023-12-15T00:00:00	2024-11-08T08:00:00	3	Temperatura mínima	14.2
64812	7	Sololá	701	Sololá	1	Sololá	12	Diciembre	2023-12-15T00:00:00	2024-11-08T08:00:00	5	Humedad	79
64813	7	Sololá	701	Sololá	1	Sololá	12	Diciembre	2023-12-15T00:00:00	2024-11-08T08:00:00	6	Velocidad del viento	0
64814	7	Sololá	701	Sololá	1	Sololá	12	Diciembre	2023-12-15T00:00:00	2024-11-08T08:00:00	7	Dirección del viento	0
64815	7	Sololá	701	Sololá	1	Sololá	12	Diciembre	2023-12-15T00:00:00	2024-11-08T08:00:00	1	Precipitación	0
64816	7	Sololá	701	Sololá	1	Sololá	12	Diciembre	2023-12-15T00:00:00	2024-11-08T08:00:00	8	Radiación solar	84
64817	7	Sololá	701	Sololá	1	Sololá	12	Diciembre	2023-12-15T00:00:00	2024-11-08T09:00:00	2	Temperatura media	19.6
64818	7	Sololá	701	Sololá	1	Sololá	12	Diciembre	2023-12-15T00:00:00	2024-11-08T09:00:00	4	Temperatura máxima	19.6
64819	7	Sololá	701	Sololá	1	Sololá	12	Diciembre	2023-12-15T00:00:00	2024-11-08T09:00:00	3	Temperatura mínima	15.5
64820	7	Sololá	701	Sololá	1	Sololá	12	Diciembre	2023-12-15T00:00:00	2024-11-08T09:00:00	5	Humedad	66
64821	7	Sololá	701	Sololá	1	Sololá	12	Diciembre	2023-12-15T00:00:00	2024-11-08T09:00:00	6	Velocidad del viento	0
64822	7	Sololá	701	Sololá	1	Sololá	12	Diciembre	2023-12-15T00:00:00	2024-11-08T09:00:00	7	Dirección del viento	0
64823	7	Sololá	701	Sololá	1	Sololá	12	Diciembre	2023-12-15T00:00:00	2024-11-08T09:00:00	1	Precipitación	0
64824	7	Sololá	701	Sololá	1	Sololá	12	Diciembre	2023-12-15T00:00:00	2024-11-08T09:00:00	8	Radiación solar	468
64825	7	Sololá	701	Sololá	1	Sololá	12	Diciembre	2023-12-15T00:00:00	2024-11-08T10:00:00	2	Temperatura media	21.3
64826	7	Sololá	701	Sololá	1	Sololá	12	Diciembre	2023-12-15T00:00:00	2024-11-08T10:00:00	4	Temperatura máxima	21.6
64827	7	Sololá	701	Sololá	1	Sololá	12	Diciembre	2023-12-15T00:00:00	2024-11-08T10:00:00	3	Temperatura mínima	19.6
64828	7	Sololá	701	Sololá	1	Sololá	12	Diciembre	2023-12-15T00:00:00	2024-11-08T10:00:00	5	Humedad	61
64829	7	Sololá	701	Sololá	1	Sololá	12	Diciembre	2023-12-15T00:00:00	2024-11-08T10:00:00	6	Velocidad del viento	0
64830	7	Sololá	701	Sololá	1	Sololá	12	Diciembre	2023-12-15T00:00:00	2024-11-08T10:00:00	7	Dirección del viento	0
64831	7	Sololá	701	Sololá	1	Sololá	12	Diciembre	2023-12-15T00:00:00	2024-11-08T10:00:00	1	Precipitación	0
64832	7	Sololá	701	Sololá	1	Sololá	12	Diciembre	2023-12-15T00:00:00	2024-11-08T10:00:00	8	Radiación solar	625
64833	7	Sololá	701	Sololá	1	Sololá	12	Diciembre	2023-12-15T00:00:00	2024-11-08T11:00:00	2	Temperatura media	20.7
64834	7	Sololá	701	Sololá	1	Sololá	12	Diciembre	2023-12-15T00:00:00	2024-11-08T11:00:00	4	Temperatura máxima	22.3
64835	7	Sololá	701	Sololá	1	Sololá	12	Diciembre	2023-12-15T00:00:00	2024-11-08T11:00:00	3	Temperatura mínima	20.7
64836	7	Sololá	701	Sololá	1	Sololá	12	Diciembre	2023-12-15T00:00:00	2024-11-08T11:00:00	5	Humedad	60
64837	7	Sololá	701	Sololá	1	Sololá	12	Diciembre	2023-12-15T00:00:00	2024-11-08T11:00:00	6	Velocidad del viento	0
64838	7	Sololá	701	Sololá	1	Sololá	12	Diciembre	2023-12-15T00:00:00	2024-11-08T11:00:00	7	Dirección del viento	0
64839	7	Sololá	701	Sololá	1	Sololá	12	Diciembre	2023-12-15T00:00:00	2024-11-08T11:00:00	1	Precipitación	0
64840	7	Sololá	701	Sololá	1	Sololá	12	Diciembre	2023-12-15T00:00:00	2024-11-08T11:00:00	8	Radiación solar	472
64841	7	Sololá	701	Sololá	1	Sololá	12	Diciembre	2023-12-15T00:00:00	2024-11-08T12:00:00	2	Temperatura media	21.5
64842	7	Sololá	701	Sololá	1	Sololá	12	Diciembre	2023-12-15T00:00:00	2024-11-08T12:00:00	4	Temperatura máxima	21.6
64843	7	Sololá	701	Sololá	1	Sololá	12	Diciembre	2023-12-15T00:00:00	2024-11-08T12:00:00	3	Temperatura mínima	20.7
64844	7	Sololá	701	Sololá	1	Sololá	12	Diciembre	2023-12-15T00:00:00	2024-11-08T12:00:00	5	Humedad	61
64845	7	Sololá	701	Sololá	1	Sololá	12	Diciembre	2023-12-15T00:00:00	2024-11-08T12:00:00	6	Velocidad del viento	0
64846	7	Sololá	701	Sololá	1	Sololá	12	Diciembre	2023-12-15T00:00:00	2024-11-08T12:00:00	7	Dirección del viento	0
64847	7	Sololá	701	Sololá	1	Sololá	12	Diciembre	2023-12-15T00:00:00	2024-11-08T12:00:00	1	Precipitación	0
64848	7	Sololá	701	Sololá	1	Sololá	12	Diciembre	2023-12-15T00:00:00	2024-11-08T12:00:00	8	Radiación solar	292
64849	7	Sololá	701	Sololá	1	Sololá	12	Diciembre	2023-12-15T00:00:00	2024-11-08T13:00:00	2	Temperatura media	22.3
64850	7	Sololá	701	Sololá	1	Sololá	12	Diciembre	2023-12-15T00:00:00	2024-11-08T13:00:00	4	Temperatura máxima	22.3
64851	7	Sololá	701	Sololá	1	Sololá	12	Diciembre	2023-12-15T00:00:00	2024-11-08T13:00:00	3	Temperatura mínima	20.8
64852	7	Sololá	701	Sololá	1	Sololá	12	Diciembre	2023-12-15T00:00:00	2024-11-08T13:00:00	5	Humedad	63
64853	7	Sololá	701	Sololá	1	Sololá	12	Diciembre	2023-12-15T00:00:00	2024-11-08T13:00:00	6	Velocidad del viento	0
64854	7	Sololá	701	Sololá	1	Sololá	12	Diciembre	2023-12-15T00:00:00	2024-11-08T13:00:00	7	Dirección del viento	0
64855	7	Sololá	701	Sololá	1	Sololá	12	Diciembre	2023-12-15T00:00:00	2024-11-08T13:00:00	1	Precipitación	0
64856	7	Sololá	701	Sololá	1	Sololá	12	Diciembre	2023-12-15T00:00:00	2024-11-08T13:00:00	8	Radiación solar	434
64857	7	Sololá	701	Sololá	1	Sololá	12	Diciembre	2023-12-15T00:00:00	2024-11-08T14:00:00	2	Temperatura media	21.8
64858	7	Sololá	701	Sololá	1	Sololá	12	Diciembre	2023-12-15T00:00:00	2024-11-08T14:00:00	4	Temperatura máxima	22.4
64859	7	Sololá	701	Sololá	1	Sololá	12	Diciembre	2023-12-15T00:00:00	2024-11-08T14:00:00	3	Temperatura mínima	21.8
64860	7	Sololá	701	Sololá	1	Sololá	12	Diciembre	2023-12-15T00:00:00	2024-11-08T14:00:00	5	Humedad	72
64861	7	Sololá	701	Sololá	1	Sololá	12	Diciembre	2023-12-15T00:00:00	2024-11-08T14:00:00	6	Velocidad del viento	0
64862	7	Sololá	701	Sololá	1	Sololá	12	Diciembre	2023-12-15T00:00:00	2024-11-08T14:00:00	7	Dirección del viento	0
64863	7	Sololá	701	Sololá	1	Sololá	12	Diciembre	2023-12-15T00:00:00	2024-11-08T14:00:00	1	Precipitación	0
64864	7	Sololá	701	Sololá	1	Sololá	12	Diciembre	2023-12-15T00:00:00	2024-11-08T14:00:00	8	Radiación solar	499
64865	7	Sololá	701	Sololá	1	Sololá	12	Diciembre	2023-12-15T00:00:00	2024-11-08T15:00:00	2	Temperatura media	21.4
64866	7	Sololá	701	Sololá	1	Sololá	12	Diciembre	2023-12-15T00:00:00	2024-11-08T15:00:00	4	Temperatura máxima	21.8
64867	7	Sololá	701	Sololá	1	Sololá	12	Diciembre	2023-12-15T00:00:00	2024-11-08T15:00:00	3	Temperatura mínima	21.4
64868	7	Sololá	701	Sololá	1	Sololá	12	Diciembre	2023-12-15T00:00:00	2024-11-08T15:00:00	5	Humedad	73
64869	7	Sololá	701	Sololá	1	Sololá	12	Diciembre	2023-12-15T00:00:00	2024-11-08T15:00:00	6	Velocidad del viento	0
64870	7	Sololá	701	Sololá	1	Sololá	12	Diciembre	2023-12-15T00:00:00	2024-11-08T15:00:00	7	Dirección del viento	0
64871	7	Sololá	701	Sololá	1	Sololá	12	Diciembre	2023-12-15T00:00:00	2024-11-08T15:00:00	1	Precipitación	0
64872	7	Sololá	701	Sololá	1	Sololá	12	Diciembre	2023-12-15T00:00:00	2024-11-08T15:00:00	8	Radiación solar	373
64873	7	Sololá	701	Sololá	1	Sololá	12	Diciembre	2023-12-15T00:00:00	2024-11-08T16:00:00	2	Temperatura media	18.1
64874	7	Sololá	701	Sololá	1	Sololá	12	Diciembre	2023-12-15T00:00:00	2024-11-08T16:00:00	4	Temperatura máxima	21.3
64875	7	Sololá	701	Sololá	1	Sololá	12	Diciembre	2023-12-15T00:00:00	2024-11-08T16:00:00	3	Temperatura mínima	18.1
64876	7	Sololá	701	Sololá	1	Sololá	12	Diciembre	2023-12-15T00:00:00	2024-11-08T16:00:00	5	Humedad	87
64877	7	Sololá	701	Sololá	1	Sololá	12	Diciembre	2023-12-15T00:00:00	2024-11-08T16:00:00	6	Velocidad del viento	0
64878	7	Sololá	701	Sololá	1	Sololá	12	Diciembre	2023-12-15T00:00:00	2024-11-08T16:00:00	7	Dirección del viento	0
64879	7	Sololá	701	Sololá	1	Sololá	12	Diciembre	2023-12-15T00:00:00	2024-11-08T16:00:00	1	Precipitación	0
64880	7	Sololá	701	Sololá	1	Sololá	12	Diciembre	2023-12-15T00:00:00	2024-11-08T16:00:00	8	Radiación solar	114
64881	7	Sololá	701	Sololá	1	Sololá	12	Diciembre	2023-12-15T00:00:00	2024-11-08T17:00:00	2	Temperatura media	17.2
64882	7	Sololá	701	Sololá	1	Sololá	12	Diciembre	2023-12-15T00:00:00	2024-11-08T17:00:00	4	Temperatura máxima	18.1
64883	7	Sololá	701	Sololá	1	Sololá	12	Diciembre	2023-12-15T00:00:00	2024-11-08T17:00:00	3	Temperatura mínima	17.2
64884	7	Sololá	701	Sololá	1	Sololá	12	Diciembre	2023-12-15T00:00:00	2024-11-08T17:00:00	5	Humedad	90
64885	7	Sololá	701	Sololá	1	Sololá	12	Diciembre	2023-12-15T00:00:00	2024-11-08T17:00:00	6	Velocidad del viento	0
64886	7	Sololá	701	Sololá	1	Sololá	12	Diciembre	2023-12-15T00:00:00	2024-11-08T17:00:00	7	Dirección del viento	0
64887	7	Sololá	701	Sololá	1	Sololá	12	Diciembre	2023-12-15T00:00:00	2024-11-08T17:00:00	1	Precipitación	0
64888	7	Sololá	701	Sololá	1	Sololá	12	Diciembre	2023-12-15T00:00:00	2024-11-08T17:00:00	8	Radiación solar	32
64889	7	Sololá	701	Sololá	1	Sololá	12	Diciembre	2023-12-15T00:00:00	2024-11-08T18:00:00	2	Temperatura media	16.8
64890	7	Sololá	701	Sololá	1	Sololá	12	Diciembre	2023-12-15T00:00:00	2024-11-08T18:00:00	4	Temperatura máxima	17.2
64891	7	Sololá	701	Sololá	1	Sololá	12	Diciembre	2023-12-15T00:00:00	2024-11-08T18:00:00	3	Temperatura mínima	16.8
64892	7	Sololá	701	Sololá	1	Sololá	12	Diciembre	2023-12-15T00:00:00	2024-11-08T18:00:00	5	Humedad	92
64893	7	Sololá	701	Sololá	1	Sololá	12	Diciembre	2023-12-15T00:00:00	2024-11-08T18:00:00	6	Velocidad del viento	0
64894	7	Sololá	701	Sololá	1	Sololá	12	Diciembre	2023-12-15T00:00:00	2024-11-08T18:00:00	7	Dirección del viento	0
64895	7	Sololá	701	Sololá	1	Sololá	12	Diciembre	2023-12-15T00:00:00	2024-11-08T18:00:00	1	Precipitación	0
64896	7	Sololá	701	Sololá	1	Sololá	12	Diciembre	2023-12-15T00:00:00	2024-11-08T18:00:00	8	Radiación solar	1
64897	7	Sololá	701	Sololá	1	Sololá	12	Diciembre	2023-12-15T00:00:00	2024-11-08T19:00:00	2	Temperatura media	16.4
64898	7	Sololá	701	Sololá	1	Sololá	12	Diciembre	2023-12-15T00:00:00	2024-11-08T19:00:00	4	Temperatura máxima	16.8
64899	7	Sololá	701	Sololá	1	Sololá	12	Diciembre	2023-12-15T00:00:00	2024-11-08T19:00:00	3	Temperatura mínima	16.4
64900	7	Sololá	701	Sololá	1	Sololá	12	Diciembre	2023-12-15T00:00:00	2024-11-08T19:00:00	5	Humedad	93
64901	7	Sololá	701	Sololá	1	Sololá	12	Diciembre	2023-12-15T00:00:00	2024-11-08T19:00:00	6	Velocidad del viento	0
64902	7	Sololá	701	Sololá	1	Sololá	12	Diciembre	2023-12-15T00:00:00	2024-11-08T19:00:00	7	Dirección del viento	0
64903	7	Sololá	701	Sololá	1	Sololá	12	Diciembre	2023-12-15T00:00:00	2024-11-08T19:00:00	1	Precipitación	0
64904	7	Sololá	701	Sololá	1	Sololá	12	Diciembre	2023-12-15T00:00:00	2024-11-08T19:00:00	8	Radiación solar	0
64905	7	Sololá	701	Sololá	1	Sololá	12	Diciembre	2023-12-15T00:00:00	2024-11-08T20:00:00	2	Temperatura media	15.9
64906	7	Sololá	701	Sololá	1	Sololá	12	Diciembre	2023-12-15T00:00:00	2024-11-08T20:00:00	4	Temperatura máxima	16.4
64907	7	Sololá	701	Sololá	1	Sololá	12	Diciembre	2023-12-15T00:00:00	2024-11-08T20:00:00	3	Temperatura mínima	15.9
64908	7	Sololá	701	Sololá	1	Sololá	12	Diciembre	2023-12-15T00:00:00	2024-11-08T20:00:00	5	Humedad	94
64909	7	Sololá	701	Sololá	1	Sololá	12	Diciembre	2023-12-15T00:00:00	2024-11-08T20:00:00	6	Velocidad del viento	0
64910	7	Sololá	701	Sololá	1	Sololá	12	Diciembre	2023-12-15T00:00:00	2024-11-08T20:00:00	7	Dirección del viento	0
64911	7	Sololá	701	Sololá	1	Sololá	12	Diciembre	2023-12-15T00:00:00	2024-11-08T20:00:00	1	Precipitación	0.4
64912	7	Sololá	701	Sololá	1	Sololá	12	Diciembre	2023-12-15T00:00:00	2024-11-08T20:00:00	8	Radiación solar	0
64913	7	Sololá	701	Sololá	1	Sololá	12	Diciembre	2023-12-15T00:00:00	2024-11-08T21:00:00	2	Temperatura media	15.2
64914	7	Sololá	701	Sololá	1	Sololá	12	Diciembre	2023-12-15T00:00:00	2024-11-08T21:00:00	4	Temperatura máxima	15.9
64915	7	Sololá	701	Sololá	1	Sololá	12	Diciembre	2023-12-15T00:00:00	2024-11-08T21:00:00	3	Temperatura mínima	15.2
64916	7	Sololá	701	Sololá	1	Sololá	12	Diciembre	2023-12-15T00:00:00	2024-11-08T21:00:00	5	Humedad	94
64917	7	Sololá	701	Sololá	1	Sololá	12	Diciembre	2023-12-15T00:00:00	2024-11-08T21:00:00	6	Velocidad del viento	0
64918	7	Sololá	701	Sololá	1	Sololá	12	Diciembre	2023-12-15T00:00:00	2024-11-08T21:00:00	7	Dirección del viento	0
64919	7	Sololá	701	Sololá	1	Sololá	12	Diciembre	2023-12-15T00:00:00	2024-11-08T21:00:00	1	Precipitación	0.2
64920	7	Sololá	701	Sololá	1	Sololá	12	Diciembre	2023-12-15T00:00:00	2024-11-08T21:00:00	8	Radiación solar	0
64921	7	Sololá	701	Sololá	1	Sololá	12	Diciembre	2023-12-15T00:00:00	2024-11-08T22:00:00	2	Temperatura media	14.6
64922	7	Sololá	701	Sololá	1	Sololá	12	Diciembre	2023-12-15T00:00:00	2024-11-08T22:00:00	4	Temperatura máxima	15.3
64923	7	Sololá	701	Sololá	1	Sololá	12	Diciembre	2023-12-15T00:00:00	2024-11-08T22:00:00	3	Temperatura mínima	14.6
64924	7	Sololá	701	Sololá	1	Sololá	12	Diciembre	2023-12-15T00:00:00	2024-11-08T22:00:00	5	Humedad	94
64925	7	Sololá	701	Sololá	1	Sololá	12	Diciembre	2023-12-15T00:00:00	2024-11-08T22:00:00	6	Velocidad del viento	0
64926	7	Sololá	701	Sololá	1	Sololá	12	Diciembre	2023-12-15T00:00:00	2024-11-08T22:00:00	7	Dirección del viento	0
64927	7	Sololá	701	Sololá	1	Sololá	12	Diciembre	2023-12-15T00:00:00	2024-11-08T22:00:00	1	Precipitación	0.2
64928	7	Sololá	701	Sololá	1	Sololá	12	Diciembre	2023-12-15T00:00:00	2024-11-08T22:00:00	8	Radiación solar	0
64929	7	Sololá	701	Sololá	1	Sololá	12	Diciembre	2023-12-15T00:00:00	2024-11-08T23:00:00	2	Temperatura media	14.7
64930	7	Sololá	701	Sololá	1	Sololá	12	Diciembre	2023-12-15T00:00:00	2024-11-08T23:00:00	4	Temperatura máxima	14.8
64931	7	Sololá	701	Sololá	1	Sololá	12	Diciembre	2023-12-15T00:00:00	2024-11-08T23:00:00	3	Temperatura mínima	14.5
64932	7	Sololá	701	Sololá	1	Sololá	12	Diciembre	2023-12-15T00:00:00	2024-11-08T23:00:00	5	Humedad	95
64933	7	Sololá	701	Sololá	1	Sololá	12	Diciembre	2023-12-15T00:00:00	2024-11-08T23:00:00	6	Velocidad del viento	0
64934	7	Sololá	701	Sololá	1	Sololá	12	Diciembre	2023-12-15T00:00:00	2024-11-08T23:00:00	7	Dirección del viento	0
64935	7	Sololá	701	Sololá	1	Sololá	12	Diciembre	2023-12-15T00:00:00	2024-11-08T23:00:00	1	Precipitación	0
64936	7	Sololá	701	Sololá	1	Sololá	12	Diciembre	2023-12-15T00:00:00	2024-11-08T23:00:00	8	Radiación solar	0
64937	7	Sololá	701	Sololá	1	Sololá	12	Diciembre	2023-12-16T00:00:00	2024-11-08T00:00:00	2	Temperatura media	13.9
64938	7	Sololá	701	Sololá	1	Sololá	12	Diciembre	2023-12-16T00:00:00	2024-11-08T00:00:00	4	Temperatura máxima	14.7
64939	7	Sololá	701	Sololá	1	Sololá	12	Diciembre	2023-12-16T00:00:00	2024-11-08T00:00:00	3	Temperatura mínima	13.9
64940	7	Sololá	701	Sololá	1	Sololá	12	Diciembre	2023-12-16T00:00:00	2024-11-08T00:00:00	5	Humedad	94
64941	7	Sololá	701	Sololá	1	Sololá	12	Diciembre	2023-12-16T00:00:00	2024-11-08T00:00:00	6	Velocidad del viento	0
64942	7	Sololá	701	Sololá	1	Sololá	12	Diciembre	2023-12-16T00:00:00	2024-11-08T00:00:00	7	Dirección del viento	0
64943	7	Sololá	701	Sololá	1	Sololá	12	Diciembre	2023-12-16T00:00:00	2024-11-08T00:00:00	1	Precipitación	0.2
64944	7	Sololá	701	Sololá	1	Sololá	12	Diciembre	2023-12-16T00:00:00	2024-11-08T00:00:00	8	Radiación solar	0
64945	7	Sololá	701	Sololá	1	Sololá	12	Diciembre	2023-12-16T00:00:00	2024-11-08T01:00:00	2	Temperatura media	13.1
64946	7	Sololá	701	Sololá	1	Sololá	12	Diciembre	2023-12-16T00:00:00	2024-11-08T01:00:00	4	Temperatura máxima	13.9
64947	7	Sololá	701	Sololá	1	Sololá	12	Diciembre	2023-12-16T00:00:00	2024-11-08T01:00:00	3	Temperatura mínima	13.1
64948	7	Sololá	701	Sololá	1	Sololá	12	Diciembre	2023-12-16T00:00:00	2024-11-08T01:00:00	5	Humedad	94
64949	7	Sololá	701	Sololá	1	Sololá	12	Diciembre	2023-12-16T00:00:00	2024-11-08T01:00:00	6	Velocidad del viento	0
64950	7	Sololá	701	Sololá	1	Sololá	12	Diciembre	2023-12-16T00:00:00	2024-11-08T01:00:00	7	Dirección del viento	0
64951	7	Sololá	701	Sololá	1	Sololá	12	Diciembre	2023-12-16T00:00:00	2024-11-08T01:00:00	1	Precipitación	0
64952	7	Sololá	701	Sololá	1	Sololá	12	Diciembre	2023-12-16T00:00:00	2024-11-08T01:00:00	8	Radiación solar	0
64953	7	Sololá	701	Sololá	1	Sololá	12	Diciembre	2023-12-16T00:00:00	2024-11-08T02:00:00	2	Temperatura media	12.6
64954	7	Sololá	701	Sololá	1	Sololá	12	Diciembre	2023-12-16T00:00:00	2024-11-08T02:00:00	4	Temperatura máxima	13.1
64955	7	Sololá	701	Sololá	1	Sololá	12	Diciembre	2023-12-16T00:00:00	2024-11-08T02:00:00	3	Temperatura mínima	12.6
64956	7	Sololá	701	Sololá	1	Sololá	12	Diciembre	2023-12-16T00:00:00	2024-11-08T02:00:00	5	Humedad	94
64957	7	Sololá	701	Sololá	1	Sololá	12	Diciembre	2023-12-16T00:00:00	2024-11-08T02:00:00	6	Velocidad del viento	0
64958	7	Sololá	701	Sololá	1	Sololá	12	Diciembre	2023-12-16T00:00:00	2024-11-08T02:00:00	7	Dirección del viento	0
64959	7	Sololá	701	Sololá	1	Sololá	12	Diciembre	2023-12-16T00:00:00	2024-11-08T02:00:00	1	Precipitación	0
64960	7	Sololá	701	Sololá	1	Sololá	12	Diciembre	2023-12-16T00:00:00	2024-11-08T02:00:00	8	Radiación solar	0
64961	7	Sololá	701	Sololá	1	Sololá	12	Diciembre	2023-12-16T00:00:00	2024-11-08T03:00:00	2	Temperatura media	12.7
64962	7	Sololá	701	Sololá	1	Sololá	12	Diciembre	2023-12-16T00:00:00	2024-11-08T03:00:00	4	Temperatura máxima	12.8
64963	7	Sololá	701	Sololá	1	Sololá	12	Diciembre	2023-12-16T00:00:00	2024-11-08T03:00:00	3	Temperatura mínima	12.5
64964	7	Sololá	701	Sololá	1	Sololá	12	Diciembre	2023-12-16T00:00:00	2024-11-08T03:00:00	5	Humedad	93
64965	7	Sololá	701	Sololá	1	Sololá	12	Diciembre	2023-12-16T00:00:00	2024-11-08T03:00:00	6	Velocidad del viento	0
64966	7	Sololá	701	Sololá	1	Sololá	12	Diciembre	2023-12-16T00:00:00	2024-11-08T03:00:00	7	Dirección del viento	0
64967	7	Sololá	701	Sololá	1	Sololá	12	Diciembre	2023-12-16T00:00:00	2024-11-08T03:00:00	1	Precipitación	0
64968	7	Sololá	701	Sololá	1	Sololá	12	Diciembre	2023-12-16T00:00:00	2024-11-08T03:00:00	8	Radiación solar	0
64969	7	Sololá	701	Sololá	1	Sololá	12	Diciembre	2023-12-16T00:00:00	2024-11-08T04:00:00	2	Temperatura media	12.2
64970	7	Sololá	701	Sololá	1	Sololá	12	Diciembre	2023-12-16T00:00:00	2024-11-08T04:00:00	4	Temperatura máxima	12.8
64971	7	Sololá	701	Sololá	1	Sololá	12	Diciembre	2023-12-16T00:00:00	2024-11-08T04:00:00	3	Temperatura mínima	12.2
64972	7	Sololá	701	Sololá	1	Sololá	12	Diciembre	2023-12-16T00:00:00	2024-11-08T04:00:00	5	Humedad	92
64973	7	Sololá	701	Sololá	1	Sololá	12	Diciembre	2023-12-16T00:00:00	2024-11-08T04:00:00	6	Velocidad del viento	0
64974	7	Sololá	701	Sololá	1	Sololá	12	Diciembre	2023-12-16T00:00:00	2024-11-08T04:00:00	7	Dirección del viento	0
64975	7	Sololá	701	Sololá	1	Sololá	12	Diciembre	2023-12-16T00:00:00	2024-11-08T04:00:00	1	Precipitación	0.2
64976	7	Sololá	701	Sololá	1	Sololá	12	Diciembre	2023-12-16T00:00:00	2024-11-08T04:00:00	8	Radiación solar	0
64977	7	Sololá	701	Sololá	1	Sololá	12	Diciembre	2023-12-16T00:00:00	2024-11-08T05:00:00	2	Temperatura media	11.5
64978	7	Sololá	701	Sololá	1	Sololá	12	Diciembre	2023-12-16T00:00:00	2024-11-08T05:00:00	4	Temperatura máxima	12.2
64979	7	Sololá	701	Sololá	1	Sololá	12	Diciembre	2023-12-16T00:00:00	2024-11-08T05:00:00	3	Temperatura mínima	11.4
64980	7	Sololá	701	Sololá	1	Sololá	12	Diciembre	2023-12-16T00:00:00	2024-11-08T05:00:00	5	Humedad	92
64981	7	Sololá	701	Sololá	1	Sololá	12	Diciembre	2023-12-16T00:00:00	2024-11-08T05:00:00	6	Velocidad del viento	0
64982	7	Sololá	701	Sololá	1	Sololá	12	Diciembre	2023-12-16T00:00:00	2024-11-08T05:00:00	7	Dirección del viento	0
64983	7	Sololá	701	Sololá	1	Sololá	12	Diciembre	2023-12-16T00:00:00	2024-11-08T05:00:00	1	Precipitación	0
64984	7	Sololá	701	Sololá	1	Sololá	12	Diciembre	2023-12-16T00:00:00	2024-11-08T05:00:00	8	Radiación solar	0
64985	7	Sololá	701	Sololá	1	Sololá	12	Diciembre	2023-12-16T00:00:00	2024-11-08T06:00:00	2	Temperatura media	11.3
64986	7	Sololá	701	Sololá	1	Sololá	12	Diciembre	2023-12-16T00:00:00	2024-11-08T06:00:00	4	Temperatura máxima	11.5
64987	7	Sololá	701	Sololá	1	Sololá	12	Diciembre	2023-12-16T00:00:00	2024-11-08T06:00:00	3	Temperatura mínima	11
64988	7	Sololá	701	Sololá	1	Sololá	12	Diciembre	2023-12-16T00:00:00	2024-11-08T06:00:00	5	Humedad	92
64989	7	Sololá	701	Sololá	1	Sololá	12	Diciembre	2023-12-16T00:00:00	2024-11-08T06:00:00	6	Velocidad del viento	0
64990	7	Sololá	701	Sololá	1	Sololá	12	Diciembre	2023-12-16T00:00:00	2024-11-08T06:00:00	7	Dirección del viento	0
64991	7	Sololá	701	Sololá	1	Sololá	12	Diciembre	2023-12-16T00:00:00	2024-11-08T06:00:00	1	Precipitación	0
64992	7	Sololá	701	Sololá	1	Sololá	12	Diciembre	2023-12-16T00:00:00	2024-11-08T06:00:00	8	Radiación solar	0
64993	7	Sololá	701	Sololá	1	Sololá	12	Diciembre	2023-12-16T00:00:00	2024-11-08T07:00:00	2	Temperatura media	11.4
64994	7	Sololá	701	Sololá	1	Sololá	12	Diciembre	2023-12-16T00:00:00	2024-11-08T07:00:00	4	Temperatura máxima	11.5
64995	7	Sololá	701	Sololá	1	Sololá	12	Diciembre	2023-12-16T00:00:00	2024-11-08T07:00:00	3	Temperatura mínima	11.2
64996	7	Sololá	701	Sololá	1	Sololá	12	Diciembre	2023-12-16T00:00:00	2024-11-08T07:00:00	5	Humedad	90
64997	7	Sololá	701	Sololá	1	Sololá	12	Diciembre	2023-12-16T00:00:00	2024-11-08T07:00:00	6	Velocidad del viento	0
64998	7	Sololá	701	Sololá	1	Sololá	12	Diciembre	2023-12-16T00:00:00	2024-11-08T07:00:00	7	Dirección del viento	0
64999	7	Sololá	701	Sololá	1	Sololá	12	Diciembre	2023-12-16T00:00:00	2024-11-08T07:00:00	1	Precipitación	0
65000	7	Sololá	701	Sololá	1	Sololá	12	Diciembre	2023-12-16T00:00:00	2024-11-08T07:00:00	8	Radiación solar	5
65001	7	Sololá	701	Sololá	1	Sololá	12	Diciembre	2023-12-16T00:00:00	2024-11-08T08:00:00	2	Temperatura media	13.6
65002	7	Sololá	701	Sololá	1	Sololá	12	Diciembre	2023-12-16T00:00:00	2024-11-08T08:00:00	4	Temperatura máxima	13.6
65003	7	Sololá	701	Sololá	1	Sololá	12	Diciembre	2023-12-16T00:00:00	2024-11-08T08:00:00	3	Temperatura mínima	11.4
65004	7	Sololá	701	Sololá	1	Sololá	12	Diciembre	2023-12-16T00:00:00	2024-11-08T08:00:00	5	Humedad	90
65005	7	Sololá	701	Sololá	1	Sololá	12	Diciembre	2023-12-16T00:00:00	2024-11-08T08:00:00	6	Velocidad del viento	0
65006	7	Sololá	701	Sololá	1	Sololá	12	Diciembre	2023-12-16T00:00:00	2024-11-08T08:00:00	7	Dirección del viento	0
65007	7	Sololá	701	Sololá	1	Sololá	12	Diciembre	2023-12-16T00:00:00	2024-11-08T08:00:00	1	Precipitación	0
65008	7	Sololá	701	Sololá	1	Sololá	12	Diciembre	2023-12-16T00:00:00	2024-11-08T08:00:00	8	Radiación solar	78
65009	7	Sololá	701	Sololá	1	Sololá	12	Diciembre	2023-12-16T00:00:00	2024-11-08T09:00:00	2	Temperatura media	18.4
65010	7	Sololá	701	Sololá	1	Sololá	12	Diciembre	2023-12-16T00:00:00	2024-11-08T09:00:00	4	Temperatura máxima	18.5
65011	7	Sololá	701	Sololá	1	Sololá	12	Diciembre	2023-12-16T00:00:00	2024-11-08T09:00:00	3	Temperatura mínima	13.6
65012	7	Sololá	701	Sololá	1	Sololá	12	Diciembre	2023-12-16T00:00:00	2024-11-08T09:00:00	5	Humedad	76
65013	7	Sololá	701	Sololá	1	Sololá	12	Diciembre	2023-12-16T00:00:00	2024-11-08T09:00:00	6	Velocidad del viento	0
65014	7	Sololá	701	Sololá	1	Sololá	12	Diciembre	2023-12-16T00:00:00	2024-11-08T09:00:00	7	Dirección del viento	0
65015	7	Sololá	701	Sololá	1	Sololá	12	Diciembre	2023-12-16T00:00:00	2024-11-08T09:00:00	1	Precipitación	0
65016	7	Sololá	701	Sololá	1	Sololá	12	Diciembre	2023-12-16T00:00:00	2024-11-08T09:00:00	8	Radiación solar	471
65017	7	Sololá	701	Sololá	1	Sololá	12	Diciembre	2023-12-16T00:00:00	2024-11-08T10:00:00	2	Temperatura media	19.6
65018	7	Sololá	701	Sololá	1	Sololá	12	Diciembre	2023-12-16T00:00:00	2024-11-08T10:00:00	4	Temperatura máxima	19.6
65019	7	Sololá	701	Sololá	1	Sololá	12	Diciembre	2023-12-16T00:00:00	2024-11-08T10:00:00	3	Temperatura mínima	18.4
65020	7	Sololá	701	Sololá	1	Sololá	12	Diciembre	2023-12-16T00:00:00	2024-11-08T10:00:00	5	Humedad	76
65021	7	Sololá	701	Sololá	1	Sololá	12	Diciembre	2023-12-16T00:00:00	2024-11-08T10:00:00	6	Velocidad del viento	0
65022	7	Sololá	701	Sololá	1	Sololá	12	Diciembre	2023-12-16T00:00:00	2024-11-08T10:00:00	7	Dirección del viento	0
65023	7	Sololá	701	Sololá	1	Sololá	12	Diciembre	2023-12-16T00:00:00	2024-11-08T10:00:00	1	Precipitación	0
65024	7	Sololá	701	Sololá	1	Sololá	12	Diciembre	2023-12-16T00:00:00	2024-11-08T10:00:00	8	Radiación solar	647
65025	7	Sololá	701	Sololá	1	Sololá	12	Diciembre	2023-12-16T00:00:00	2024-11-08T11:00:00	2	Temperatura media	20.8
65026	7	Sololá	701	Sololá	1	Sololá	12	Diciembre	2023-12-16T00:00:00	2024-11-08T11:00:00	4	Temperatura máxima	20.8
65027	7	Sololá	701	Sololá	1	Sololá	12	Diciembre	2023-12-16T00:00:00	2024-11-08T11:00:00	3	Temperatura mínima	19.6
65028	7	Sololá	701	Sololá	1	Sololá	12	Diciembre	2023-12-16T00:00:00	2024-11-08T11:00:00	5	Humedad	71
65029	7	Sololá	701	Sololá	1	Sololá	12	Diciembre	2023-12-16T00:00:00	2024-11-08T11:00:00	6	Velocidad del viento	0
65030	7	Sololá	701	Sololá	1	Sololá	12	Diciembre	2023-12-16T00:00:00	2024-11-08T11:00:00	7	Dirección del viento	0
65031	7	Sololá	701	Sololá	1	Sololá	12	Diciembre	2023-12-16T00:00:00	2024-11-08T11:00:00	1	Precipitación	0
65032	7	Sololá	701	Sololá	1	Sololá	12	Diciembre	2023-12-16T00:00:00	2024-11-08T11:00:00	8	Radiación solar	794
65033	7	Sololá	701	Sololá	1	Sololá	12	Diciembre	2023-12-16T00:00:00	2024-11-08T12:00:00	2	Temperatura media	19.4
65034	7	Sololá	701	Sololá	1	Sololá	12	Diciembre	2023-12-16T00:00:00	2024-11-08T12:00:00	4	Temperatura máxima	20.9
65035	7	Sololá	701	Sololá	1	Sololá	12	Diciembre	2023-12-16T00:00:00	2024-11-08T12:00:00	3	Temperatura mínima	19.4
65036	7	Sololá	701	Sololá	1	Sololá	12	Diciembre	2023-12-16T00:00:00	2024-11-08T12:00:00	5	Humedad	74
65037	7	Sololá	701	Sololá	1	Sololá	12	Diciembre	2023-12-16T00:00:00	2024-11-08T12:00:00	6	Velocidad del viento	0
65038	7	Sololá	701	Sololá	1	Sololá	12	Diciembre	2023-12-16T00:00:00	2024-11-08T12:00:00	7	Dirección del viento	0
65039	7	Sololá	701	Sololá	1	Sololá	12	Diciembre	2023-12-16T00:00:00	2024-11-08T12:00:00	1	Precipitación	0
65040	7	Sololá	701	Sololá	1	Sololá	12	Diciembre	2023-12-16T00:00:00	2024-11-08T12:00:00	8	Radiación solar	330
65041	7	Sololá	701	Sololá	1	Sololá	12	Diciembre	2023-12-16T00:00:00	2024-11-08T13:00:00	2	Temperatura media	19.9
65042	7	Sololá	701	Sololá	1	Sololá	12	Diciembre	2023-12-16T00:00:00	2024-11-08T13:00:00	4	Temperatura máxima	20.3
65043	7	Sololá	701	Sololá	1	Sololá	12	Diciembre	2023-12-16T00:00:00	2024-11-08T13:00:00	3	Temperatura mínima	19.4
65044	7	Sololá	701	Sololá	1	Sololá	12	Diciembre	2023-12-16T00:00:00	2024-11-08T13:00:00	5	Humedad	74
65045	7	Sololá	701	Sololá	1	Sololá	12	Diciembre	2023-12-16T00:00:00	2024-11-08T13:00:00	6	Velocidad del viento	0
65046	7	Sololá	701	Sololá	1	Sololá	12	Diciembre	2023-12-16T00:00:00	2024-11-08T13:00:00	7	Dirección del viento	0
65047	7	Sololá	701	Sololá	1	Sololá	12	Diciembre	2023-12-16T00:00:00	2024-11-08T13:00:00	1	Precipitación	0
65048	7	Sololá	701	Sololá	1	Sololá	12	Diciembre	2023-12-16T00:00:00	2024-11-08T13:00:00	8	Radiación solar	191
65049	7	Sololá	701	Sololá	1	Sololá	12	Diciembre	2023-12-16T00:00:00	2024-11-08T14:00:00	2	Temperatura media	21.8
65050	7	Sololá	701	Sololá	1	Sololá	12	Diciembre	2023-12-16T00:00:00	2024-11-08T14:00:00	4	Temperatura máxima	21.8
65051	7	Sololá	701	Sololá	1	Sololá	12	Diciembre	2023-12-16T00:00:00	2024-11-08T14:00:00	3	Temperatura mínima	19.9
65052	7	Sololá	701	Sololá	1	Sololá	12	Diciembre	2023-12-16T00:00:00	2024-11-08T14:00:00	5	Humedad	74
65053	7	Sololá	701	Sololá	1	Sololá	12	Diciembre	2023-12-16T00:00:00	2024-11-08T14:00:00	6	Velocidad del viento	0
65054	7	Sololá	701	Sololá	1	Sololá	12	Diciembre	2023-12-16T00:00:00	2024-11-08T14:00:00	7	Dirección del viento	0
65055	7	Sololá	701	Sololá	1	Sololá	12	Diciembre	2023-12-16T00:00:00	2024-11-08T14:00:00	1	Precipitación	0.2
65056	7	Sololá	701	Sololá	1	Sololá	12	Diciembre	2023-12-16T00:00:00	2024-11-08T14:00:00	8	Radiación solar	352
65057	7	Sololá	701	Sololá	1	Sololá	12	Diciembre	2023-12-16T00:00:00	2024-11-08T15:00:00	2	Temperatura media	20
65058	7	Sololá	701	Sololá	1	Sololá	12	Diciembre	2023-12-16T00:00:00	2024-11-08T15:00:00	4	Temperatura máxima	21.8
65059	7	Sololá	701	Sololá	1	Sololá	12	Diciembre	2023-12-16T00:00:00	2024-11-08T15:00:00	3	Temperatura mínima	19.8
65060	7	Sololá	701	Sololá	1	Sololá	12	Diciembre	2023-12-16T00:00:00	2024-11-08T15:00:00	5	Humedad	82
65061	7	Sololá	701	Sololá	1	Sololá	12	Diciembre	2023-12-16T00:00:00	2024-11-08T15:00:00	6	Velocidad del viento	0
65062	7	Sololá	701	Sololá	1	Sololá	12	Diciembre	2023-12-16T00:00:00	2024-11-08T15:00:00	7	Dirección del viento	0
65063	7	Sololá	701	Sololá	1	Sololá	12	Diciembre	2023-12-16T00:00:00	2024-11-08T15:00:00	1	Precipitación	0
65064	7	Sololá	701	Sololá	1	Sololá	12	Diciembre	2023-12-16T00:00:00	2024-11-08T15:00:00	8	Radiación solar	199
65065	7	Sololá	701	Sololá	1	Sololá	12	Diciembre	2023-12-16T00:00:00	2024-11-08T16:00:00	2	Temperatura media	17.8
65066	7	Sololá	701	Sololá	1	Sololá	12	Diciembre	2023-12-16T00:00:00	2024-11-08T16:00:00	4	Temperatura máxima	19.9
65067	7	Sololá	701	Sololá	1	Sololá	12	Diciembre	2023-12-16T00:00:00	2024-11-08T16:00:00	3	Temperatura mínima	17.8
65068	7	Sololá	701	Sololá	1	Sololá	12	Diciembre	2023-12-16T00:00:00	2024-11-08T16:00:00	5	Humedad	89
65069	7	Sololá	701	Sololá	1	Sololá	12	Diciembre	2023-12-16T00:00:00	2024-11-08T16:00:00	6	Velocidad del viento	0
65070	7	Sololá	701	Sololá	1	Sololá	12	Diciembre	2023-12-16T00:00:00	2024-11-08T16:00:00	7	Dirección del viento	0
65071	7	Sololá	701	Sololá	1	Sololá	12	Diciembre	2023-12-16T00:00:00	2024-11-08T16:00:00	1	Precipitación	0
65072	7	Sololá	701	Sololá	1	Sololá	12	Diciembre	2023-12-16T00:00:00	2024-11-08T16:00:00	8	Radiación solar	114
65073	7	Sololá	701	Sololá	1	Sololá	12	Diciembre	2023-12-16T00:00:00	2024-11-08T17:00:00	2	Temperatura media	17
65074	7	Sololá	701	Sololá	1	Sololá	12	Diciembre	2023-12-16T00:00:00	2024-11-08T17:00:00	4	Temperatura máxima	17.8
65075	7	Sololá	701	Sololá	1	Sololá	12	Diciembre	2023-12-16T00:00:00	2024-11-08T17:00:00	3	Temperatura mínima	17
65076	7	Sololá	701	Sololá	1	Sololá	12	Diciembre	2023-12-16T00:00:00	2024-11-08T17:00:00	5	Humedad	91
65077	7	Sololá	701	Sololá	1	Sololá	12	Diciembre	2023-12-16T00:00:00	2024-11-08T17:00:00	6	Velocidad del viento	0
65078	7	Sololá	701	Sololá	1	Sololá	12	Diciembre	2023-12-16T00:00:00	2024-11-08T17:00:00	7	Dirección del viento	0
65079	7	Sololá	701	Sololá	1	Sololá	12	Diciembre	2023-12-16T00:00:00	2024-11-08T17:00:00	1	Precipitación	0
65080	7	Sololá	701	Sololá	1	Sololá	12	Diciembre	2023-12-16T00:00:00	2024-11-08T17:00:00	8	Radiación solar	32
65081	7	Sololá	701	Sololá	1	Sololá	12	Diciembre	2023-12-16T00:00:00	2024-11-08T18:00:00	2	Temperatura media	15.9
65082	7	Sololá	701	Sololá	1	Sololá	12	Diciembre	2023-12-16T00:00:00	2024-11-08T18:00:00	4	Temperatura máxima	17
65083	7	Sololá	701	Sololá	1	Sololá	12	Diciembre	2023-12-16T00:00:00	2024-11-08T18:00:00	3	Temperatura mínima	15.9
65084	7	Sololá	701	Sololá	1	Sololá	12	Diciembre	2023-12-16T00:00:00	2024-11-08T18:00:00	5	Humedad	89
65085	7	Sololá	701	Sololá	1	Sololá	12	Diciembre	2023-12-16T00:00:00	2024-11-08T18:00:00	6	Velocidad del viento	0
65086	7	Sololá	701	Sololá	1	Sololá	12	Diciembre	2023-12-16T00:00:00	2024-11-08T18:00:00	7	Dirección del viento	0
65087	7	Sololá	701	Sololá	1	Sololá	12	Diciembre	2023-12-16T00:00:00	2024-11-08T18:00:00	1	Precipitación	0
65088	7	Sololá	701	Sololá	1	Sololá	12	Diciembre	2023-12-16T00:00:00	2024-11-08T18:00:00	8	Radiación solar	3
65089	7	Sololá	701	Sololá	1	Sololá	12	Diciembre	2023-12-16T00:00:00	2024-11-08T19:00:00	2	Temperatura media	15.2
65090	7	Sololá	701	Sololá	1	Sololá	12	Diciembre	2023-12-16T00:00:00	2024-11-08T19:00:00	4	Temperatura máxima	15.8
65091	7	Sololá	701	Sololá	1	Sololá	12	Diciembre	2023-12-16T00:00:00	2024-11-08T19:00:00	3	Temperatura mínima	15.2
65092	7	Sololá	701	Sololá	1	Sololá	12	Diciembre	2023-12-16T00:00:00	2024-11-08T19:00:00	5	Humedad	87
65093	7	Sololá	701	Sololá	1	Sololá	12	Diciembre	2023-12-16T00:00:00	2024-11-08T19:00:00	6	Velocidad del viento	0
65094	7	Sololá	701	Sololá	1	Sololá	12	Diciembre	2023-12-16T00:00:00	2024-11-08T19:00:00	7	Dirección del viento	0
65095	7	Sololá	701	Sololá	1	Sololá	12	Diciembre	2023-12-16T00:00:00	2024-11-08T19:00:00	1	Precipitación	0
65096	7	Sololá	701	Sololá	1	Sololá	12	Diciembre	2023-12-16T00:00:00	2024-11-08T19:00:00	8	Radiación solar	0
65097	7	Sololá	701	Sololá	1	Sololá	12	Diciembre	2023-12-16T00:00:00	2024-11-08T20:00:00	2	Temperatura media	14.7
65098	7	Sololá	701	Sololá	1	Sololá	12	Diciembre	2023-12-16T00:00:00	2024-11-08T20:00:00	4	Temperatura máxima	15.2
65099	7	Sololá	701	Sololá	1	Sololá	12	Diciembre	2023-12-16T00:00:00	2024-11-08T20:00:00	3	Temperatura mínima	14.7
65100	7	Sololá	701	Sololá	1	Sololá	12	Diciembre	2023-12-16T00:00:00	2024-11-08T20:00:00	5	Humedad	87
65101	7	Sololá	701	Sololá	1	Sololá	12	Diciembre	2023-12-16T00:00:00	2024-11-08T20:00:00	6	Velocidad del viento	0
65102	7	Sololá	701	Sololá	1	Sololá	12	Diciembre	2023-12-16T00:00:00	2024-11-08T20:00:00	7	Dirección del viento	0
65103	7	Sololá	701	Sololá	1	Sololá	12	Diciembre	2023-12-16T00:00:00	2024-11-08T20:00:00	1	Precipitación	0
65104	7	Sololá	701	Sololá	1	Sololá	12	Diciembre	2023-12-16T00:00:00	2024-11-08T20:00:00	8	Radiación solar	0
65105	7	Sololá	701	Sololá	1	Sololá	12	Diciembre	2023-12-16T00:00:00	2024-11-08T21:00:00	2	Temperatura media	14.5
65106	7	Sololá	701	Sololá	1	Sololá	12	Diciembre	2023-12-16T00:00:00	2024-11-08T21:00:00	4	Temperatura máxima	14.8
65107	7	Sololá	701	Sololá	1	Sololá	12	Diciembre	2023-12-16T00:00:00	2024-11-08T21:00:00	3	Temperatura mínima	14.4
65108	7	Sololá	701	Sololá	1	Sololá	12	Diciembre	2023-12-16T00:00:00	2024-11-08T21:00:00	5	Humedad	87
65109	7	Sololá	701	Sololá	1	Sololá	12	Diciembre	2023-12-16T00:00:00	2024-11-08T21:00:00	6	Velocidad del viento	0
65110	7	Sololá	701	Sololá	1	Sololá	12	Diciembre	2023-12-16T00:00:00	2024-11-08T21:00:00	7	Dirección del viento	0
65111	7	Sololá	701	Sololá	1	Sololá	12	Diciembre	2023-12-16T00:00:00	2024-11-08T21:00:00	1	Precipitación	0
65112	7	Sololá	701	Sololá	1	Sololá	12	Diciembre	2023-12-16T00:00:00	2024-11-08T21:00:00	8	Radiación solar	0
65113	7	Sololá	701	Sololá	1	Sololá	12	Diciembre	2023-12-16T00:00:00	2024-11-08T22:00:00	2	Temperatura media	14.2
65114	7	Sololá	701	Sololá	1	Sololá	12	Diciembre	2023-12-16T00:00:00	2024-11-08T22:00:00	4	Temperatura máxima	14.5
65115	7	Sololá	701	Sololá	1	Sololá	12	Diciembre	2023-12-16T00:00:00	2024-11-08T22:00:00	3	Temperatura mínima	14.2
65116	7	Sololá	701	Sololá	1	Sololá	12	Diciembre	2023-12-16T00:00:00	2024-11-08T22:00:00	5	Humedad	87
65117	7	Sololá	701	Sololá	1	Sololá	12	Diciembre	2023-12-16T00:00:00	2024-11-08T22:00:00	6	Velocidad del viento	0
65118	7	Sololá	701	Sololá	1	Sololá	12	Diciembre	2023-12-16T00:00:00	2024-11-08T22:00:00	7	Dirección del viento	0
65119	7	Sololá	701	Sololá	1	Sololá	12	Diciembre	2023-12-16T00:00:00	2024-11-08T22:00:00	1	Precipitación	0
65120	7	Sololá	701	Sololá	1	Sololá	12	Diciembre	2023-12-16T00:00:00	2024-11-08T22:00:00	8	Radiación solar	0
65121	7	Sololá	701	Sololá	1	Sololá	12	Diciembre	2023-12-16T00:00:00	2024-11-08T23:00:00	2	Temperatura media	13.9
65122	7	Sololá	701	Sololá	1	Sololá	12	Diciembre	2023-12-16T00:00:00	2024-11-08T23:00:00	4	Temperatura máxima	14.2
65123	7	Sololá	701	Sololá	1	Sololá	12	Diciembre	2023-12-16T00:00:00	2024-11-08T23:00:00	3	Temperatura mínima	13.9
65124	7	Sololá	701	Sololá	1	Sololá	12	Diciembre	2023-12-16T00:00:00	2024-11-08T23:00:00	5	Humedad	88
65125	7	Sololá	701	Sololá	1	Sololá	12	Diciembre	2023-12-16T00:00:00	2024-11-08T23:00:00	6	Velocidad del viento	0
65126	7	Sololá	701	Sololá	1	Sololá	12	Diciembre	2023-12-16T00:00:00	2024-11-08T23:00:00	7	Dirección del viento	0
65127	7	Sololá	701	Sololá	1	Sololá	12	Diciembre	2023-12-16T00:00:00	2024-11-08T23:00:00	1	Precipitación	0
65128	7	Sololá	701	Sololá	1	Sololá	12	Diciembre	2023-12-16T00:00:00	2024-11-08T23:00:00	8	Radiación solar	0
65129	7	Sololá	701	Sololá	1	Sololá	12	Diciembre	2023-12-17T00:00:00	2024-11-08T00:00:00	2	Temperatura media	13.6
65130	7	Sololá	701	Sololá	1	Sololá	12	Diciembre	2023-12-17T00:00:00	2024-11-08T00:00:00	4	Temperatura máxima	13.9
65131	7	Sololá	701	Sololá	1	Sololá	12	Diciembre	2023-12-17T00:00:00	2024-11-08T00:00:00	3	Temperatura mínima	13.6
65132	7	Sololá	701	Sololá	1	Sololá	12	Diciembre	2023-12-17T00:00:00	2024-11-08T00:00:00	5	Humedad	88
65133	7	Sololá	701	Sololá	1	Sololá	12	Diciembre	2023-12-17T00:00:00	2024-11-08T00:00:00	6	Velocidad del viento	0
65134	7	Sololá	701	Sololá	1	Sololá	12	Diciembre	2023-12-17T00:00:00	2024-11-08T00:00:00	7	Dirección del viento	0
65135	7	Sololá	701	Sololá	1	Sololá	12	Diciembre	2023-12-17T00:00:00	2024-11-08T00:00:00	1	Precipitación	0
65136	7	Sololá	701	Sololá	1	Sololá	12	Diciembre	2023-12-17T00:00:00	2024-11-08T00:00:00	8	Radiación solar	0
65137	7	Sololá	701	Sololá	1	Sololá	12	Diciembre	2023-12-17T00:00:00	2024-11-08T01:00:00	2	Temperatura media	13.4
65138	7	Sololá	701	Sololá	1	Sololá	12	Diciembre	2023-12-17T00:00:00	2024-11-08T01:00:00	4	Temperatura máxima	13.6
65139	7	Sololá	701	Sololá	1	Sololá	12	Diciembre	2023-12-17T00:00:00	2024-11-08T01:00:00	3	Temperatura mínima	13.3
65140	7	Sololá	701	Sololá	1	Sololá	12	Diciembre	2023-12-17T00:00:00	2024-11-08T01:00:00	5	Humedad	89
65141	7	Sololá	701	Sololá	1	Sololá	12	Diciembre	2023-12-17T00:00:00	2024-11-08T01:00:00	6	Velocidad del viento	0
65142	7	Sololá	701	Sololá	1	Sololá	12	Diciembre	2023-12-17T00:00:00	2024-11-08T01:00:00	7	Dirección del viento	0
65143	7	Sololá	701	Sololá	1	Sololá	12	Diciembre	2023-12-17T00:00:00	2024-11-08T01:00:00	1	Precipitación	0
65144	7	Sololá	701	Sololá	1	Sololá	12	Diciembre	2023-12-17T00:00:00	2024-11-08T01:00:00	8	Radiación solar	0
65145	7	Sololá	701	Sololá	1	Sololá	12	Diciembre	2023-12-17T00:00:00	2024-11-08T02:00:00	2	Temperatura media	13.1
65146	7	Sololá	701	Sololá	1	Sololá	12	Diciembre	2023-12-17T00:00:00	2024-11-08T02:00:00	4	Temperatura máxima	13.4
65147	7	Sololá	701	Sololá	1	Sololá	12	Diciembre	2023-12-17T00:00:00	2024-11-08T02:00:00	3	Temperatura mínima	13.1
65148	7	Sololá	701	Sololá	1	Sololá	12	Diciembre	2023-12-17T00:00:00	2024-11-08T02:00:00	5	Humedad	88
65149	7	Sololá	701	Sololá	1	Sololá	12	Diciembre	2023-12-17T00:00:00	2024-11-08T02:00:00	6	Velocidad del viento	0
65150	7	Sololá	701	Sololá	1	Sololá	12	Diciembre	2023-12-17T00:00:00	2024-11-08T02:00:00	7	Dirección del viento	0
65151	7	Sololá	701	Sololá	1	Sololá	12	Diciembre	2023-12-17T00:00:00	2024-11-08T02:00:00	1	Precipitación	0
65152	7	Sololá	701	Sololá	1	Sololá	12	Diciembre	2023-12-17T00:00:00	2024-11-08T02:00:00	8	Radiación solar	0
65153	7	Sololá	701	Sololá	1	Sololá	12	Diciembre	2023-12-17T00:00:00	2024-11-08T03:00:00	2	Temperatura media	12.8
65154	7	Sololá	701	Sololá	1	Sololá	12	Diciembre	2023-12-17T00:00:00	2024-11-08T03:00:00	4	Temperatura máxima	13.1
65155	7	Sololá	701	Sololá	1	Sololá	12	Diciembre	2023-12-17T00:00:00	2024-11-08T03:00:00	3	Temperatura mínima	12.8
65156	7	Sololá	701	Sololá	1	Sololá	12	Diciembre	2023-12-17T00:00:00	2024-11-08T03:00:00	5	Humedad	82
65157	7	Sololá	701	Sololá	1	Sololá	12	Diciembre	2023-12-17T00:00:00	2024-11-08T03:00:00	6	Velocidad del viento	0
65158	7	Sololá	701	Sololá	1	Sololá	12	Diciembre	2023-12-17T00:00:00	2024-11-08T03:00:00	7	Dirección del viento	0
65159	7	Sololá	701	Sololá	1	Sololá	12	Diciembre	2023-12-17T00:00:00	2024-11-08T03:00:00	1	Precipitación	0
65160	7	Sololá	701	Sololá	1	Sololá	12	Diciembre	2023-12-17T00:00:00	2024-11-08T03:00:00	8	Radiación solar	0
65161	7	Sololá	701	Sololá	1	Sololá	12	Diciembre	2023-12-17T00:00:00	2024-11-08T04:00:00	2	Temperatura media	12.7
65162	7	Sololá	701	Sololá	1	Sololá	12	Diciembre	2023-12-17T00:00:00	2024-11-08T04:00:00	4	Temperatura máxima	12.8
65163	7	Sololá	701	Sololá	1	Sololá	12	Diciembre	2023-12-17T00:00:00	2024-11-08T04:00:00	3	Temperatura mínima	12.6
65164	7	Sololá	701	Sololá	1	Sololá	12	Diciembre	2023-12-17T00:00:00	2024-11-08T04:00:00	5	Humedad	82
65165	7	Sololá	701	Sololá	1	Sololá	12	Diciembre	2023-12-17T00:00:00	2024-11-08T04:00:00	6	Velocidad del viento	0
65166	7	Sololá	701	Sololá	1	Sololá	12	Diciembre	2023-12-17T00:00:00	2024-11-08T04:00:00	7	Dirección del viento	0
65167	7	Sololá	701	Sololá	1	Sololá	12	Diciembre	2023-12-17T00:00:00	2024-11-08T04:00:00	1	Precipitación	0
65168	7	Sololá	701	Sololá	1	Sololá	12	Diciembre	2023-12-17T00:00:00	2024-11-08T04:00:00	8	Radiación solar	0
65169	7	Sololá	701	Sololá	1	Sololá	12	Diciembre	2023-12-17T00:00:00	2024-11-08T05:00:00	2	Temperatura media	12.3
65170	7	Sololá	701	Sololá	1	Sololá	12	Diciembre	2023-12-17T00:00:00	2024-11-08T05:00:00	4	Temperatura máxima	12.8
65171	7	Sololá	701	Sololá	1	Sololá	12	Diciembre	2023-12-17T00:00:00	2024-11-08T05:00:00	3	Temperatura mínima	12.3
65172	7	Sololá	701	Sololá	1	Sololá	12	Diciembre	2023-12-17T00:00:00	2024-11-08T05:00:00	5	Humedad	85
65173	7	Sololá	701	Sololá	1	Sololá	12	Diciembre	2023-12-17T00:00:00	2024-11-08T05:00:00	6	Velocidad del viento	0
65174	7	Sololá	701	Sololá	1	Sololá	12	Diciembre	2023-12-17T00:00:00	2024-11-08T05:00:00	7	Dirección del viento	0
65175	7	Sololá	701	Sololá	1	Sololá	12	Diciembre	2023-12-17T00:00:00	2024-11-08T05:00:00	1	Precipitación	0
65176	7	Sololá	701	Sololá	1	Sololá	12	Diciembre	2023-12-17T00:00:00	2024-11-08T05:00:00	8	Radiación solar	0
65177	7	Sololá	701	Sololá	1	Sololá	12	Diciembre	2023-12-17T00:00:00	2024-11-08T06:00:00	2	Temperatura media	12.4
65178	7	Sololá	701	Sololá	1	Sololá	12	Diciembre	2023-12-17T00:00:00	2024-11-08T06:00:00	4	Temperatura máxima	12.5
65179	7	Sololá	701	Sololá	1	Sololá	12	Diciembre	2023-12-17T00:00:00	2024-11-08T06:00:00	3	Temperatura mínima	12.2
65180	7	Sololá	701	Sololá	1	Sololá	12	Diciembre	2023-12-17T00:00:00	2024-11-08T06:00:00	5	Humedad	85
65181	7	Sololá	701	Sololá	1	Sololá	12	Diciembre	2023-12-17T00:00:00	2024-11-08T06:00:00	6	Velocidad del viento	0
65182	7	Sololá	701	Sololá	1	Sololá	12	Diciembre	2023-12-17T00:00:00	2024-11-08T06:00:00	7	Dirección del viento	0
65183	7	Sololá	701	Sololá	1	Sololá	12	Diciembre	2023-12-17T00:00:00	2024-11-08T06:00:00	1	Precipitación	0
65184	7	Sololá	701	Sololá	1	Sololá	12	Diciembre	2023-12-17T00:00:00	2024-11-08T06:00:00	8	Radiación solar	0
65185	7	Sololá	701	Sololá	1	Sololá	12	Diciembre	2023-12-17T00:00:00	2024-11-08T07:00:00	2	Temperatura media	12.2
65186	7	Sololá	701	Sololá	1	Sololá	12	Diciembre	2023-12-17T00:00:00	2024-11-08T07:00:00	4	Temperatura máxima	12.4
65187	7	Sololá	701	Sololá	1	Sololá	12	Diciembre	2023-12-17T00:00:00	2024-11-08T07:00:00	3	Temperatura mínima	12.2
65188	7	Sololá	701	Sololá	1	Sololá	12	Diciembre	2023-12-17T00:00:00	2024-11-08T07:00:00	5	Humedad	85
65189	7	Sololá	701	Sololá	1	Sololá	12	Diciembre	2023-12-17T00:00:00	2024-11-08T07:00:00	6	Velocidad del viento	0
65190	7	Sololá	701	Sololá	1	Sololá	12	Diciembre	2023-12-17T00:00:00	2024-11-08T07:00:00	7	Dirección del viento	0
65191	7	Sololá	701	Sololá	1	Sololá	12	Diciembre	2023-12-17T00:00:00	2024-11-08T07:00:00	1	Precipitación	0
65192	7	Sololá	701	Sololá	1	Sololá	12	Diciembre	2023-12-17T00:00:00	2024-11-08T07:00:00	8	Radiación solar	5
65193	7	Sololá	701	Sololá	1	Sololá	12	Diciembre	2023-12-17T00:00:00	2024-11-08T08:00:00	2	Temperatura media	13.9
65194	7	Sololá	701	Sololá	1	Sololá	12	Diciembre	2023-12-17T00:00:00	2024-11-08T08:00:00	4	Temperatura máxima	13.9
65195	7	Sololá	701	Sololá	1	Sololá	12	Diciembre	2023-12-17T00:00:00	2024-11-08T08:00:00	3	Temperatura mínima	12.2
65196	7	Sololá	701	Sololá	1	Sololá	12	Diciembre	2023-12-17T00:00:00	2024-11-08T08:00:00	5	Humedad	82
65197	7	Sololá	701	Sololá	1	Sololá	12	Diciembre	2023-12-17T00:00:00	2024-11-08T08:00:00	6	Velocidad del viento	0
65198	7	Sololá	701	Sololá	1	Sololá	12	Diciembre	2023-12-17T00:00:00	2024-11-08T08:00:00	7	Dirección del viento	0
65199	7	Sololá	701	Sololá	1	Sololá	12	Diciembre	2023-12-17T00:00:00	2024-11-08T08:00:00	1	Precipitación	0
65200	7	Sololá	701	Sololá	1	Sololá	12	Diciembre	2023-12-17T00:00:00	2024-11-08T08:00:00	8	Radiación solar	80
65201	7	Sololá	701	Sololá	1	Sololá	12	Diciembre	2023-12-17T00:00:00	2024-11-08T09:00:00	2	Temperatura media	18.3
65202	7	Sololá	701	Sololá	1	Sololá	12	Diciembre	2023-12-17T00:00:00	2024-11-08T09:00:00	4	Temperatura máxima	18.3
65203	7	Sololá	701	Sololá	1	Sololá	12	Diciembre	2023-12-17T00:00:00	2024-11-08T09:00:00	3	Temperatura mínima	13.9
65204	7	Sololá	701	Sololá	1	Sololá	12	Diciembre	2023-12-17T00:00:00	2024-11-08T09:00:00	5	Humedad	68
65205	7	Sololá	701	Sololá	1	Sololá	12	Diciembre	2023-12-17T00:00:00	2024-11-08T09:00:00	6	Velocidad del viento	0
65206	7	Sololá	701	Sololá	1	Sololá	12	Diciembre	2023-12-17T00:00:00	2024-11-08T09:00:00	7	Dirección del viento	0
65207	7	Sololá	701	Sololá	1	Sololá	12	Diciembre	2023-12-17T00:00:00	2024-11-08T09:00:00	1	Precipitación	0
65208	7	Sololá	701	Sololá	1	Sololá	12	Diciembre	2023-12-17T00:00:00	2024-11-08T09:00:00	8	Radiación solar	490
65209	7	Sololá	701	Sololá	1	Sololá	12	Diciembre	2023-12-17T00:00:00	2024-11-08T10:00:00	2	Temperatura media	20.6
65210	7	Sololá	701	Sololá	1	Sololá	12	Diciembre	2023-12-17T00:00:00	2024-11-08T10:00:00	4	Temperatura máxima	20.6
65211	7	Sololá	701	Sololá	1	Sololá	12	Diciembre	2023-12-17T00:00:00	2024-11-08T10:00:00	3	Temperatura mínima	18.3
65212	7	Sololá	701	Sololá	1	Sololá	12	Diciembre	2023-12-17T00:00:00	2024-11-08T10:00:00	5	Humedad	62
65213	7	Sololá	701	Sololá	1	Sololá	12	Diciembre	2023-12-17T00:00:00	2024-11-08T10:00:00	6	Velocidad del viento	0
65214	7	Sololá	701	Sololá	1	Sololá	12	Diciembre	2023-12-17T00:00:00	2024-11-08T10:00:00	7	Dirección del viento	0
65215	7	Sololá	701	Sololá	1	Sololá	12	Diciembre	2023-12-17T00:00:00	2024-11-08T10:00:00	1	Precipitación	0
65216	7	Sololá	701	Sololá	1	Sololá	12	Diciembre	2023-12-17T00:00:00	2024-11-08T10:00:00	8	Radiación solar	675
65217	7	Sololá	701	Sololá	1	Sololá	12	Diciembre	2023-12-17T00:00:00	2024-11-08T11:00:00	2	Temperatura media	21.3
65218	7	Sololá	701	Sololá	1	Sololá	12	Diciembre	2023-12-17T00:00:00	2024-11-08T11:00:00	4	Temperatura máxima	21.6
65219	7	Sololá	701	Sololá	1	Sololá	12	Diciembre	2023-12-17T00:00:00	2024-11-08T11:00:00	3	Temperatura mínima	20.6
65220	7	Sololá	701	Sololá	1	Sololá	12	Diciembre	2023-12-17T00:00:00	2024-11-08T11:00:00	5	Humedad	60
65221	7	Sololá	701	Sololá	1	Sololá	12	Diciembre	2023-12-17T00:00:00	2024-11-08T11:00:00	6	Velocidad del viento	0
65222	7	Sololá	701	Sololá	1	Sololá	12	Diciembre	2023-12-17T00:00:00	2024-11-08T11:00:00	7	Dirección del viento	0
65223	7	Sololá	701	Sololá	1	Sololá	12	Diciembre	2023-12-17T00:00:00	2024-11-08T11:00:00	1	Precipitación	0
65224	7	Sololá	701	Sololá	1	Sololá	12	Diciembre	2023-12-17T00:00:00	2024-11-08T11:00:00	8	Radiación solar	795
65225	7	Sololá	701	Sololá	1	Sololá	12	Diciembre	2023-12-17T00:00:00	2024-11-08T12:00:00	2	Temperatura media	22.2
65226	7	Sololá	701	Sololá	1	Sololá	12	Diciembre	2023-12-17T00:00:00	2024-11-08T12:00:00	4	Temperatura máxima	22.4
65227	7	Sololá	701	Sololá	1	Sololá	12	Diciembre	2023-12-17T00:00:00	2024-11-08T12:00:00	3	Temperatura mínima	21.1
65228	7	Sololá	701	Sololá	1	Sololá	12	Diciembre	2023-12-17T00:00:00	2024-11-08T12:00:00	5	Humedad	56
65229	7	Sololá	701	Sololá	1	Sololá	12	Diciembre	2023-12-17T00:00:00	2024-11-08T12:00:00	6	Velocidad del viento	0
65230	7	Sololá	701	Sololá	1	Sololá	12	Diciembre	2023-12-17T00:00:00	2024-11-08T12:00:00	7	Dirección del viento	0
65231	7	Sololá	701	Sololá	1	Sololá	12	Diciembre	2023-12-17T00:00:00	2024-11-08T12:00:00	1	Precipitación	0
65232	7	Sololá	701	Sololá	1	Sololá	12	Diciembre	2023-12-17T00:00:00	2024-11-08T12:00:00	8	Radiación solar	846
65233	7	Sololá	701	Sololá	1	Sololá	12	Diciembre	2023-12-17T00:00:00	2024-11-08T13:00:00	2	Temperatura media	22.6
65234	7	Sololá	701	Sololá	1	Sololá	12	Diciembre	2023-12-17T00:00:00	2024-11-08T13:00:00	4	Temperatura máxima	23.1
65235	7	Sololá	701	Sololá	1	Sololá	12	Diciembre	2023-12-17T00:00:00	2024-11-08T13:00:00	3	Temperatura mínima	22.2
65236	7	Sololá	701	Sololá	1	Sololá	12	Diciembre	2023-12-17T00:00:00	2024-11-08T13:00:00	5	Humedad	57
65237	7	Sololá	701	Sololá	1	Sololá	12	Diciembre	2023-12-17T00:00:00	2024-11-08T13:00:00	6	Velocidad del viento	0
65238	7	Sololá	701	Sololá	1	Sololá	12	Diciembre	2023-12-17T00:00:00	2024-11-08T13:00:00	7	Dirección del viento	0
65239	7	Sololá	701	Sololá	1	Sololá	12	Diciembre	2023-12-17T00:00:00	2024-11-08T13:00:00	1	Precipitación	0
65240	7	Sololá	701	Sololá	1	Sololá	12	Diciembre	2023-12-17T00:00:00	2024-11-08T13:00:00	8	Radiación solar	824
65241	7	Sololá	701	Sololá	1	Sololá	12	Diciembre	2023-12-17T00:00:00	2024-11-08T14:00:00	2	Temperatura media	23.7
65242	7	Sololá	701	Sololá	1	Sololá	12	Diciembre	2023-12-17T00:00:00	2024-11-08T14:00:00	4	Temperatura máxima	23.8
65243	7	Sololá	701	Sololá	1	Sololá	12	Diciembre	2023-12-17T00:00:00	2024-11-08T14:00:00	3	Temperatura mínima	22.6
65244	7	Sololá	701	Sololá	1	Sololá	12	Diciembre	2023-12-17T00:00:00	2024-11-08T14:00:00	5	Humedad	52
65245	7	Sololá	701	Sololá	1	Sololá	12	Diciembre	2023-12-17T00:00:00	2024-11-08T14:00:00	6	Velocidad del viento	0
65246	7	Sololá	701	Sololá	1	Sololá	12	Diciembre	2023-12-17T00:00:00	2024-11-08T14:00:00	7	Dirección del viento	0
65247	7	Sololá	701	Sololá	1	Sololá	12	Diciembre	2023-12-17T00:00:00	2024-11-08T14:00:00	1	Precipitación	0
65248	7	Sololá	701	Sololá	1	Sololá	12	Diciembre	2023-12-17T00:00:00	2024-11-08T14:00:00	8	Radiación solar	728
65249	7	Sololá	701	Sololá	1	Sololá	12	Diciembre	2023-12-17T00:00:00	2024-11-08T15:00:00	2	Temperatura media	21.4
65250	7	Sololá	701	Sololá	1	Sololá	12	Diciembre	2023-12-17T00:00:00	2024-11-08T15:00:00	4	Temperatura máxima	23.7
65251	7	Sololá	701	Sololá	1	Sololá	12	Diciembre	2023-12-17T00:00:00	2024-11-08T15:00:00	3	Temperatura mínima	21.4
65252	7	Sololá	701	Sololá	1	Sololá	12	Diciembre	2023-12-17T00:00:00	2024-11-08T15:00:00	5	Humedad	59
65253	7	Sololá	701	Sololá	1	Sololá	12	Diciembre	2023-12-17T00:00:00	2024-11-08T15:00:00	6	Velocidad del viento	0
65254	7	Sololá	701	Sololá	1	Sololá	12	Diciembre	2023-12-17T00:00:00	2024-11-08T15:00:00	7	Dirección del viento	0
65255	7	Sololá	701	Sololá	1	Sololá	12	Diciembre	2023-12-17T00:00:00	2024-11-08T15:00:00	1	Precipitación	0
65256	7	Sololá	701	Sololá	1	Sololá	12	Diciembre	2023-12-17T00:00:00	2024-11-08T15:00:00	8	Radiación solar	293
65257	7	Sololá	701	Sololá	1	Sololá	12	Diciembre	2023-12-17T00:00:00	2024-11-08T16:00:00	2	Temperatura media	17.3
65258	7	Sololá	701	Sololá	1	Sololá	12	Diciembre	2023-12-17T00:00:00	2024-11-08T16:00:00	4	Temperatura máxima	21.4
65259	7	Sololá	701	Sololá	1	Sololá	12	Diciembre	2023-12-17T00:00:00	2024-11-08T16:00:00	3	Temperatura mínima	17.3
65260	7	Sololá	701	Sololá	1	Sololá	12	Diciembre	2023-12-17T00:00:00	2024-11-08T16:00:00	5	Humedad	72
65261	7	Sololá	701	Sololá	1	Sololá	12	Diciembre	2023-12-17T00:00:00	2024-11-08T16:00:00	6	Velocidad del viento	0
65262	7	Sololá	701	Sololá	1	Sololá	12	Diciembre	2023-12-17T00:00:00	2024-11-08T16:00:00	7	Dirección del viento	0
65263	7	Sololá	701	Sololá	1	Sololá	12	Diciembre	2023-12-17T00:00:00	2024-11-08T16:00:00	1	Precipitación	0
65264	7	Sololá	701	Sololá	1	Sololá	12	Diciembre	2023-12-17T00:00:00	2024-11-08T16:00:00	8	Radiación solar	38
65265	7	Sololá	701	Sololá	1	Sololá	12	Diciembre	2023-12-17T00:00:00	2024-11-08T17:00:00	2	Temperatura media	15.6
65266	7	Sololá	701	Sololá	1	Sololá	12	Diciembre	2023-12-17T00:00:00	2024-11-08T17:00:00	4	Temperatura máxima	17.3
65267	7	Sololá	701	Sololá	1	Sololá	12	Diciembre	2023-12-17T00:00:00	2024-11-08T17:00:00	3	Temperatura mínima	15.6
65268	7	Sololá	701	Sololá	1	Sololá	12	Diciembre	2023-12-17T00:00:00	2024-11-08T17:00:00	5	Humedad	75
65269	7	Sololá	701	Sololá	1	Sololá	12	Diciembre	2023-12-17T00:00:00	2024-11-08T17:00:00	6	Velocidad del viento	0
65270	7	Sololá	701	Sololá	1	Sololá	12	Diciembre	2023-12-17T00:00:00	2024-11-08T17:00:00	7	Dirección del viento	0
65271	7	Sololá	701	Sololá	1	Sololá	12	Diciembre	2023-12-17T00:00:00	2024-11-08T17:00:00	1	Precipitación	0
65272	7	Sololá	701	Sololá	1	Sololá	12	Diciembre	2023-12-17T00:00:00	2024-11-08T17:00:00	8	Radiación solar	37
65273	7	Sololá	701	Sololá	1	Sololá	12	Diciembre	2023-12-17T00:00:00	2024-11-08T18:00:00	2	Temperatura media	14.3
65274	7	Sololá	701	Sololá	1	Sololá	12	Diciembre	2023-12-17T00:00:00	2024-11-08T18:00:00	4	Temperatura máxima	15.6
65275	7	Sololá	701	Sololá	1	Sololá	12	Diciembre	2023-12-17T00:00:00	2024-11-08T18:00:00	3	Temperatura mínima	14.3
65276	7	Sololá	701	Sololá	1	Sololá	12	Diciembre	2023-12-17T00:00:00	2024-11-08T18:00:00	5	Humedad	78
65277	7	Sololá	701	Sololá	1	Sololá	12	Diciembre	2023-12-17T00:00:00	2024-11-08T18:00:00	6	Velocidad del viento	0
65278	7	Sololá	701	Sololá	1	Sololá	12	Diciembre	2023-12-17T00:00:00	2024-11-08T18:00:00	7	Dirección del viento	0
65279	7	Sololá	701	Sololá	1	Sololá	12	Diciembre	2023-12-17T00:00:00	2024-11-08T18:00:00	1	Precipitación	0
65280	7	Sololá	701	Sololá	1	Sololá	12	Diciembre	2023-12-17T00:00:00	2024-11-08T18:00:00	8	Radiación solar	4
65281	7	Sololá	701	Sololá	1	Sololá	12	Diciembre	2023-12-17T00:00:00	2024-11-08T19:00:00	2	Temperatura media	13.6
65282	7	Sololá	701	Sololá	1	Sololá	12	Diciembre	2023-12-17T00:00:00	2024-11-08T19:00:00	4	Temperatura máxima	14.3
65283	7	Sololá	701	Sololá	1	Sololá	12	Diciembre	2023-12-17T00:00:00	2024-11-08T19:00:00	3	Temperatura mínima	13.6
65284	7	Sololá	701	Sololá	1	Sololá	12	Diciembre	2023-12-17T00:00:00	2024-11-08T19:00:00	5	Humedad	81
65285	7	Sololá	701	Sololá	1	Sololá	12	Diciembre	2023-12-17T00:00:00	2024-11-08T19:00:00	6	Velocidad del viento	0
65286	7	Sololá	701	Sololá	1	Sololá	12	Diciembre	2023-12-17T00:00:00	2024-11-08T19:00:00	7	Dirección del viento	0
65287	7	Sololá	701	Sololá	1	Sololá	12	Diciembre	2023-12-17T00:00:00	2024-11-08T19:00:00	1	Precipitación	0
65288	7	Sololá	701	Sololá	1	Sololá	12	Diciembre	2023-12-17T00:00:00	2024-11-08T19:00:00	8	Radiación solar	0
65289	7	Sololá	701	Sololá	1	Sololá	12	Diciembre	2023-12-17T00:00:00	2024-11-08T20:00:00	2	Temperatura media	13.3
65290	7	Sololá	701	Sololá	1	Sololá	12	Diciembre	2023-12-17T00:00:00	2024-11-08T20:00:00	4	Temperatura máxima	13.6
65291	7	Sololá	701	Sololá	1	Sololá	12	Diciembre	2023-12-17T00:00:00	2024-11-08T20:00:00	3	Temperatura mínima	13.2
65292	7	Sololá	701	Sololá	1	Sololá	12	Diciembre	2023-12-17T00:00:00	2024-11-08T20:00:00	5	Humedad	82
65293	7	Sololá	701	Sololá	1	Sololá	12	Diciembre	2023-12-17T00:00:00	2024-11-08T20:00:00	6	Velocidad del viento	0
65294	7	Sololá	701	Sololá	1	Sololá	12	Diciembre	2023-12-17T00:00:00	2024-11-08T20:00:00	7	Dirección del viento	0
65295	7	Sololá	701	Sololá	1	Sololá	12	Diciembre	2023-12-17T00:00:00	2024-11-08T20:00:00	1	Precipitación	0
65296	7	Sololá	701	Sololá	1	Sololá	12	Diciembre	2023-12-17T00:00:00	2024-11-08T20:00:00	8	Radiación solar	0
65297	7	Sololá	701	Sololá	1	Sololá	12	Diciembre	2023-12-17T00:00:00	2024-11-08T21:00:00	2	Temperatura media	13
65298	7	Sololá	701	Sololá	1	Sololá	12	Diciembre	2023-12-17T00:00:00	2024-11-08T21:00:00	4	Temperatura máxima	13.3
65299	7	Sololá	701	Sololá	1	Sololá	12	Diciembre	2023-12-17T00:00:00	2024-11-08T21:00:00	3	Temperatura mínima	13
65300	7	Sololá	701	Sololá	1	Sololá	12	Diciembre	2023-12-17T00:00:00	2024-11-08T21:00:00	5	Humedad	82
65301	7	Sololá	701	Sololá	1	Sololá	12	Diciembre	2023-12-17T00:00:00	2024-11-08T21:00:00	6	Velocidad del viento	0
65302	7	Sololá	701	Sololá	1	Sololá	12	Diciembre	2023-12-17T00:00:00	2024-11-08T21:00:00	7	Dirección del viento	0
65303	7	Sololá	701	Sololá	1	Sololá	12	Diciembre	2023-12-17T00:00:00	2024-11-08T21:00:00	1	Precipitación	0
65304	7	Sololá	701	Sololá	1	Sololá	12	Diciembre	2023-12-17T00:00:00	2024-11-08T21:00:00	8	Radiación solar	0
65305	7	Sololá	701	Sololá	1	Sololá	12	Diciembre	2023-12-17T00:00:00	2024-11-08T22:00:00	2	Temperatura media	12.9
65306	7	Sololá	701	Sololá	1	Sololá	12	Diciembre	2023-12-17T00:00:00	2024-11-08T22:00:00	4	Temperatura máxima	13
65307	7	Sololá	701	Sololá	1	Sololá	12	Diciembre	2023-12-17T00:00:00	2024-11-08T22:00:00	3	Temperatura mínima	12.9
65308	7	Sololá	701	Sololá	1	Sololá	12	Diciembre	2023-12-17T00:00:00	2024-11-08T22:00:00	5	Humedad	81
65309	7	Sololá	701	Sololá	1	Sololá	12	Diciembre	2023-12-17T00:00:00	2024-11-08T22:00:00	6	Velocidad del viento	0
65310	7	Sololá	701	Sololá	1	Sololá	12	Diciembre	2023-12-17T00:00:00	2024-11-08T22:00:00	7	Dirección del viento	0
65311	7	Sololá	701	Sololá	1	Sololá	12	Diciembre	2023-12-17T00:00:00	2024-11-08T22:00:00	1	Precipitación	0
65312	7	Sololá	701	Sololá	1	Sololá	12	Diciembre	2023-12-17T00:00:00	2024-11-08T22:00:00	8	Radiación solar	0
65313	7	Sololá	701	Sololá	1	Sololá	12	Diciembre	2023-12-17T00:00:00	2024-11-08T23:00:00	2	Temperatura media	12.4
65314	7	Sololá	701	Sololá	1	Sololá	12	Diciembre	2023-12-17T00:00:00	2024-11-08T23:00:00	4	Temperatura máxima	12.9
65315	7	Sololá	701	Sololá	1	Sololá	12	Diciembre	2023-12-17T00:00:00	2024-11-08T23:00:00	3	Temperatura mínima	12.4
65316	7	Sololá	701	Sololá	1	Sololá	12	Diciembre	2023-12-17T00:00:00	2024-11-08T23:00:00	5	Humedad	80
65317	7	Sololá	701	Sololá	1	Sololá	12	Diciembre	2023-12-17T00:00:00	2024-11-08T23:00:00	6	Velocidad del viento	0
65318	7	Sololá	701	Sololá	1	Sololá	12	Diciembre	2023-12-17T00:00:00	2024-11-08T23:00:00	7	Dirección del viento	0
65319	7	Sololá	701	Sololá	1	Sololá	12	Diciembre	2023-12-17T00:00:00	2024-11-08T23:00:00	1	Precipitación	0
65320	7	Sololá	701	Sololá	1	Sololá	12	Diciembre	2023-12-17T00:00:00	2024-11-08T23:00:00	8	Radiación solar	0
65321	7	Sololá	701	Sololá	1	Sololá	12	Diciembre	2023-12-18T00:00:00	2024-11-08T00:00:00	2	Temperatura media	11.4
65322	7	Sololá	701	Sololá	1	Sololá	12	Diciembre	2023-12-18T00:00:00	2024-11-08T00:00:00	4	Temperatura máxima	12.4
65323	7	Sololá	701	Sololá	1	Sololá	12	Diciembre	2023-12-18T00:00:00	2024-11-08T00:00:00	3	Temperatura mínima	11.3
65324	7	Sololá	701	Sololá	1	Sololá	12	Diciembre	2023-12-18T00:00:00	2024-11-08T00:00:00	5	Humedad	80
65325	7	Sololá	701	Sololá	1	Sololá	12	Diciembre	2023-12-18T00:00:00	2024-11-08T00:00:00	6	Velocidad del viento	0
65326	7	Sololá	701	Sololá	1	Sololá	12	Diciembre	2023-12-18T00:00:00	2024-11-08T00:00:00	7	Dirección del viento	0
65327	7	Sololá	701	Sololá	1	Sololá	12	Diciembre	2023-12-18T00:00:00	2024-11-08T00:00:00	1	Precipitación	0
65328	7	Sololá	701	Sololá	1	Sololá	12	Diciembre	2023-12-18T00:00:00	2024-11-08T00:00:00	8	Radiación solar	0
65329	7	Sololá	701	Sololá	1	Sololá	12	Diciembre	2023-12-18T00:00:00	2024-11-08T01:00:00	2	Temperatura media	10.8
65330	7	Sololá	701	Sololá	1	Sololá	12	Diciembre	2023-12-18T00:00:00	2024-11-08T01:00:00	4	Temperatura máxima	11.3
65331	7	Sololá	701	Sololá	1	Sololá	12	Diciembre	2023-12-18T00:00:00	2024-11-08T01:00:00	3	Temperatura mínima	10.8
65332	7	Sololá	701	Sololá	1	Sololá	12	Diciembre	2023-12-18T00:00:00	2024-11-08T01:00:00	5	Humedad	64
65333	7	Sololá	701	Sololá	1	Sololá	12	Diciembre	2023-12-18T00:00:00	2024-11-08T01:00:00	6	Velocidad del viento	0
65334	7	Sololá	701	Sololá	1	Sololá	12	Diciembre	2023-12-18T00:00:00	2024-11-08T01:00:00	7	Dirección del viento	0
65335	7	Sololá	701	Sololá	1	Sololá	12	Diciembre	2023-12-18T00:00:00	2024-11-08T01:00:00	1	Precipitación	0
65336	7	Sololá	701	Sololá	1	Sololá	12	Diciembre	2023-12-18T00:00:00	2024-11-08T01:00:00	8	Radiación solar	0
65337	7	Sololá	701	Sololá	1	Sololá	12	Diciembre	2023-12-18T00:00:00	2024-11-08T02:00:00	2	Temperatura media	11.5
65338	7	Sololá	701	Sololá	1	Sololá	12	Diciembre	2023-12-18T00:00:00	2024-11-08T02:00:00	4	Temperatura máxima	11.5
65339	7	Sololá	701	Sololá	1	Sololá	12	Diciembre	2023-12-18T00:00:00	2024-11-08T02:00:00	3	Temperatura mínima	10.7
65340	7	Sololá	701	Sololá	1	Sololá	12	Diciembre	2023-12-18T00:00:00	2024-11-08T02:00:00	5	Humedad	53
65341	7	Sololá	701	Sololá	1	Sololá	12	Diciembre	2023-12-18T00:00:00	2024-11-08T02:00:00	6	Velocidad del viento	1.6
65342	7	Sololá	701	Sololá	1	Sololá	12	Diciembre	2023-12-18T00:00:00	2024-11-08T02:00:00	7	Dirección del viento	1.61
65343	7	Sololá	701	Sololá	1	Sololá	12	Diciembre	2023-12-18T00:00:00	2024-11-08T02:00:00	1	Precipitación	0
65344	7	Sololá	701	Sololá	1	Sololá	12	Diciembre	2023-12-18T00:00:00	2024-11-08T02:00:00	8	Radiación solar	0
65345	7	Sololá	701	Sololá	1	Sololá	12	Diciembre	2023-12-18T00:00:00	2024-11-08T03:00:00	2	Temperatura media	10.9
65346	7	Sololá	701	Sololá	1	Sololá	12	Diciembre	2023-12-18T00:00:00	2024-11-08T03:00:00	4	Temperatura máxima	11.7
65347	7	Sololá	701	Sololá	1	Sololá	12	Diciembre	2023-12-18T00:00:00	2024-11-08T03:00:00	3	Temperatura mínima	10.8
65348	7	Sololá	701	Sololá	1	Sololá	12	Diciembre	2023-12-18T00:00:00	2024-11-08T03:00:00	5	Humedad	53
65349	7	Sololá	701	Sololá	1	Sololá	12	Diciembre	2023-12-18T00:00:00	2024-11-08T03:00:00	6	Velocidad del viento	1.6
65350	7	Sololá	701	Sololá	1	Sololá	12	Diciembre	2023-12-18T00:00:00	2024-11-08T03:00:00	7	Dirección del viento	1.61
65351	7	Sololá	701	Sololá	1	Sololá	12	Diciembre	2023-12-18T00:00:00	2024-11-08T03:00:00	1	Precipitación	0
65352	7	Sololá	701	Sololá	1	Sololá	12	Diciembre	2023-12-18T00:00:00	2024-11-08T03:00:00	8	Radiación solar	0
65353	7	Sololá	701	Sololá	1	Sololá	12	Diciembre	2023-12-18T00:00:00	2024-11-08T04:00:00	2	Temperatura media	11.1
65354	7	Sololá	701	Sololá	1	Sololá	12	Diciembre	2023-12-18T00:00:00	2024-11-08T04:00:00	4	Temperatura máxima	11.1
65355	7	Sololá	701	Sololá	1	Sololá	12	Diciembre	2023-12-18T00:00:00	2024-11-08T04:00:00	3	Temperatura mínima	10.7
65356	7	Sololá	701	Sololá	1	Sololá	12	Diciembre	2023-12-18T00:00:00	2024-11-08T04:00:00	5	Humedad	62
65357	7	Sololá	701	Sololá	1	Sololá	12	Diciembre	2023-12-18T00:00:00	2024-11-08T04:00:00	6	Velocidad del viento	1.6
65358	7	Sololá	701	Sololá	1	Sololá	12	Diciembre	2023-12-18T00:00:00	2024-11-08T04:00:00	7	Dirección del viento	1.61
65359	7	Sololá	701	Sololá	1	Sololá	12	Diciembre	2023-12-18T00:00:00	2024-11-08T04:00:00	1	Precipitación	0
65360	7	Sololá	701	Sololá	1	Sololá	12	Diciembre	2023-12-18T00:00:00	2024-11-08T04:00:00	8	Radiación solar	0
65361	7	Sololá	701	Sololá	1	Sololá	12	Diciembre	2023-12-18T00:00:00	2024-11-08T05:00:00	2	Temperatura media	11.1
65362	7	Sololá	701	Sololá	1	Sololá	12	Diciembre	2023-12-18T00:00:00	2024-11-08T05:00:00	4	Temperatura máxima	11.1
65363	7	Sololá	701	Sololá	1	Sololá	12	Diciembre	2023-12-18T00:00:00	2024-11-08T05:00:00	3	Temperatura mínima	11
65364	7	Sololá	701	Sololá	1	Sololá	12	Diciembre	2023-12-18T00:00:00	2024-11-08T05:00:00	5	Humedad	68
65365	7	Sololá	701	Sololá	1	Sololá	12	Diciembre	2023-12-18T00:00:00	2024-11-08T05:00:00	6	Velocidad del viento	1.6
65366	7	Sololá	701	Sololá	1	Sololá	12	Diciembre	2023-12-18T00:00:00	2024-11-08T05:00:00	7	Dirección del viento	1.61
65367	7	Sololá	701	Sololá	1	Sololá	12	Diciembre	2023-12-18T00:00:00	2024-11-08T05:00:00	1	Precipitación	0
65368	7	Sololá	701	Sololá	1	Sololá	12	Diciembre	2023-12-18T00:00:00	2024-11-08T05:00:00	8	Radiación solar	0
65369	7	Sololá	701	Sololá	1	Sololá	12	Diciembre	2023-12-18T00:00:00	2024-11-08T06:00:00	2	Temperatura media	10.3
65370	7	Sololá	701	Sololá	1	Sololá	12	Diciembre	2023-12-18T00:00:00	2024-11-08T06:00:00	4	Temperatura máxima	11.1
65371	7	Sololá	701	Sololá	1	Sololá	12	Diciembre	2023-12-18T00:00:00	2024-11-08T06:00:00	3	Temperatura mínima	10.3
65372	7	Sololá	701	Sololá	1	Sololá	12	Diciembre	2023-12-18T00:00:00	2024-11-08T06:00:00	5	Humedad	57
65373	7	Sololá	701	Sololá	1	Sololá	12	Diciembre	2023-12-18T00:00:00	2024-11-08T06:00:00	6	Velocidad del viento	1.6
65374	7	Sololá	701	Sololá	1	Sololá	12	Diciembre	2023-12-18T00:00:00	2024-11-08T06:00:00	7	Dirección del viento	1.61
65375	7	Sololá	701	Sololá	1	Sololá	12	Diciembre	2023-12-18T00:00:00	2024-11-08T06:00:00	1	Precipitación	0
65376	7	Sololá	701	Sololá	1	Sololá	12	Diciembre	2023-12-18T00:00:00	2024-11-08T06:00:00	8	Radiación solar	0
65377	7	Sololá	701	Sololá	1	Sololá	12	Diciembre	2023-12-18T00:00:00	2024-11-08T07:00:00	2	Temperatura media	10.8
65378	7	Sololá	701	Sololá	1	Sololá	12	Diciembre	2023-12-18T00:00:00	2024-11-08T07:00:00	4	Temperatura máxima	10.8
65379	7	Sololá	701	Sololá	1	Sololá	12	Diciembre	2023-12-18T00:00:00	2024-11-08T07:00:00	3	Temperatura mínima	10.2
65380	7	Sololá	701	Sololá	1	Sololá	12	Diciembre	2023-12-18T00:00:00	2024-11-08T07:00:00	5	Humedad	49
65381	7	Sololá	701	Sololá	1	Sololá	12	Diciembre	2023-12-18T00:00:00	2024-11-08T07:00:00	6	Velocidad del viento	1.6
65382	7	Sololá	701	Sololá	1	Sololá	12	Diciembre	2023-12-18T00:00:00	2024-11-08T07:00:00	7	Dirección del viento	1.61
65383	7	Sololá	701	Sololá	1	Sololá	12	Diciembre	2023-12-18T00:00:00	2024-11-08T07:00:00	1	Precipitación	0
65384	7	Sololá	701	Sololá	1	Sololá	12	Diciembre	2023-12-18T00:00:00	2024-11-08T07:00:00	8	Radiación solar	5
65385	7	Sololá	701	Sololá	1	Sololá	12	Diciembre	2023-12-18T00:00:00	2024-11-08T08:00:00	2	Temperatura media	13.8
65386	7	Sololá	701	Sololá	1	Sololá	12	Diciembre	2023-12-18T00:00:00	2024-11-08T08:00:00	4	Temperatura máxima	13.8
65387	7	Sololá	701	Sololá	1	Sololá	12	Diciembre	2023-12-18T00:00:00	2024-11-08T08:00:00	3	Temperatura mínima	10.8
65388	7	Sololá	701	Sololá	1	Sololá	12	Diciembre	2023-12-18T00:00:00	2024-11-08T08:00:00	5	Humedad	37
65389	7	Sololá	701	Sololá	1	Sololá	12	Diciembre	2023-12-18T00:00:00	2024-11-08T08:00:00	6	Velocidad del viento	1.6
65390	7	Sololá	701	Sololá	1	Sololá	12	Diciembre	2023-12-18T00:00:00	2024-11-08T08:00:00	7	Dirección del viento	1.61
65391	7	Sololá	701	Sololá	1	Sololá	12	Diciembre	2023-12-18T00:00:00	2024-11-08T08:00:00	1	Precipitación	0
65392	7	Sololá	701	Sololá	1	Sololá	12	Diciembre	2023-12-18T00:00:00	2024-11-08T08:00:00	8	Radiación solar	83
65393	7	Sololá	701	Sololá	1	Sololá	12	Diciembre	2023-12-18T00:00:00	2024-11-08T09:00:00	2	Temperatura media	20.7
65394	7	Sololá	701	Sololá	1	Sololá	12	Diciembre	2023-12-18T00:00:00	2024-11-08T09:00:00	4	Temperatura máxima	20.7
65395	7	Sololá	701	Sololá	1	Sololá	12	Diciembre	2023-12-18T00:00:00	2024-11-08T09:00:00	3	Temperatura mínima	13.8
65396	7	Sololá	701	Sololá	1	Sololá	12	Diciembre	2023-12-18T00:00:00	2024-11-08T09:00:00	5	Humedad	30
65397	7	Sololá	701	Sololá	1	Sololá	12	Diciembre	2023-12-18T00:00:00	2024-11-08T09:00:00	6	Velocidad del viento	0
65398	7	Sololá	701	Sololá	1	Sololá	12	Diciembre	2023-12-18T00:00:00	2024-11-08T09:00:00	7	Dirección del viento	0
65399	7	Sololá	701	Sololá	1	Sololá	12	Diciembre	2023-12-18T00:00:00	2024-11-08T09:00:00	1	Precipitación	0
65400	7	Sololá	701	Sololá	1	Sololá	12	Diciembre	2023-12-18T00:00:00	2024-11-08T09:00:00	8	Radiación solar	526
65401	7	Sololá	701	Sololá	1	Sololá	12	Diciembre	2023-12-18T00:00:00	2024-11-08T10:00:00	2	Temperatura media	20.6
65402	7	Sololá	701	Sololá	1	Sololá	12	Diciembre	2023-12-18T00:00:00	2024-11-08T10:00:00	4	Temperatura máxima	21.1
65403	7	Sololá	701	Sololá	1	Sololá	12	Diciembre	2023-12-18T00:00:00	2024-11-08T10:00:00	3	Temperatura mínima	20.1
65404	7	Sololá	701	Sololá	1	Sololá	12	Diciembre	2023-12-18T00:00:00	2024-11-08T10:00:00	5	Humedad	55
65405	7	Sololá	701	Sololá	1	Sololá	12	Diciembre	2023-12-18T00:00:00	2024-11-08T10:00:00	6	Velocidad del viento	0
65406	7	Sololá	701	Sololá	1	Sololá	12	Diciembre	2023-12-18T00:00:00	2024-11-08T10:00:00	7	Dirección del viento	0
65407	7	Sololá	701	Sololá	1	Sololá	12	Diciembre	2023-12-18T00:00:00	2024-11-08T10:00:00	1	Precipitación	0
65408	7	Sololá	701	Sololá	1	Sololá	12	Diciembre	2023-12-18T00:00:00	2024-11-08T10:00:00	8	Radiación solar	718
65409	7	Sololá	701	Sololá	1	Sololá	12	Diciembre	2023-12-18T00:00:00	2024-11-08T11:00:00	2	Temperatura media	20.7
65410	7	Sololá	701	Sololá	1	Sololá	12	Diciembre	2023-12-18T00:00:00	2024-11-08T11:00:00	4	Temperatura máxima	20.7
65411	7	Sololá	701	Sololá	1	Sololá	12	Diciembre	2023-12-18T00:00:00	2024-11-08T11:00:00	3	Temperatura mínima	20.3
65412	7	Sololá	701	Sololá	1	Sololá	12	Diciembre	2023-12-18T00:00:00	2024-11-08T11:00:00	5	Humedad	49
65413	7	Sololá	701	Sololá	1	Sololá	12	Diciembre	2023-12-18T00:00:00	2024-11-08T11:00:00	6	Velocidad del viento	0
65414	7	Sololá	701	Sololá	1	Sololá	12	Diciembre	2023-12-18T00:00:00	2024-11-08T11:00:00	7	Dirección del viento	0
65415	7	Sololá	701	Sololá	1	Sololá	12	Diciembre	2023-12-18T00:00:00	2024-11-08T11:00:00	1	Precipitación	0
65416	7	Sololá	701	Sololá	1	Sololá	12	Diciembre	2023-12-18T00:00:00	2024-11-08T11:00:00	8	Radiación solar	830
65417	7	Sololá	701	Sololá	1	Sololá	12	Diciembre	2023-12-18T00:00:00	2024-11-08T12:00:00	2	Temperatura media	22.6
65418	7	Sololá	701	Sololá	1	Sololá	12	Diciembre	2023-12-18T00:00:00	2024-11-08T12:00:00	4	Temperatura máxima	22.6
65419	7	Sololá	701	Sololá	1	Sololá	12	Diciembre	2023-12-18T00:00:00	2024-11-08T12:00:00	3	Temperatura mínima	20.7
65420	7	Sololá	701	Sololá	1	Sololá	12	Diciembre	2023-12-18T00:00:00	2024-11-08T12:00:00	5	Humedad	29
65421	7	Sololá	701	Sololá	1	Sololá	12	Diciembre	2023-12-18T00:00:00	2024-11-08T12:00:00	6	Velocidad del viento	0
65422	7	Sololá	701	Sololá	1	Sololá	12	Diciembre	2023-12-18T00:00:00	2024-11-08T12:00:00	7	Dirección del viento	0
65423	7	Sololá	701	Sololá	1	Sololá	12	Diciembre	2023-12-18T00:00:00	2024-11-08T12:00:00	1	Precipitación	0
65424	7	Sololá	701	Sololá	1	Sololá	12	Diciembre	2023-12-18T00:00:00	2024-11-08T12:00:00	8	Radiación solar	880
65425	7	Sololá	701	Sololá	1	Sololá	12	Diciembre	2023-12-18T00:00:00	2024-11-08T13:00:00	2	Temperatura media	23.4
65426	7	Sololá	701	Sololá	1	Sololá	12	Diciembre	2023-12-18T00:00:00	2024-11-08T13:00:00	4	Temperatura máxima	23.7
65427	7	Sololá	701	Sololá	1	Sololá	12	Diciembre	2023-12-18T00:00:00	2024-11-08T13:00:00	3	Temperatura mínima	22.6
65428	7	Sololá	701	Sololá	1	Sololá	12	Diciembre	2023-12-18T00:00:00	2024-11-08T13:00:00	5	Humedad	39
65429	7	Sololá	701	Sololá	1	Sololá	12	Diciembre	2023-12-18T00:00:00	2024-11-08T13:00:00	6	Velocidad del viento	0
65430	7	Sololá	701	Sololá	1	Sololá	12	Diciembre	2023-12-18T00:00:00	2024-11-08T13:00:00	7	Dirección del viento	0
65431	7	Sololá	701	Sololá	1	Sololá	12	Diciembre	2023-12-18T00:00:00	2024-11-08T13:00:00	1	Precipitación	0
65432	7	Sololá	701	Sololá	1	Sololá	12	Diciembre	2023-12-18T00:00:00	2024-11-08T13:00:00	8	Radiación solar	856
65433	7	Sololá	701	Sololá	1	Sololá	12	Diciembre	2023-12-18T00:00:00	2024-11-08T14:00:00	2	Temperatura media	22.4
65434	7	Sololá	701	Sololá	1	Sololá	12	Diciembre	2023-12-18T00:00:00	2024-11-08T14:00:00	4	Temperatura máxima	23.5
65435	7	Sololá	701	Sololá	1	Sololá	12	Diciembre	2023-12-18T00:00:00	2024-11-08T14:00:00	3	Temperatura mínima	22.4
65436	7	Sololá	701	Sololá	1	Sololá	12	Diciembre	2023-12-18T00:00:00	2024-11-08T14:00:00	5	Humedad	28
65437	7	Sololá	701	Sololá	1	Sololá	12	Diciembre	2023-12-18T00:00:00	2024-11-08T14:00:00	6	Velocidad del viento	0
65438	7	Sololá	701	Sololá	1	Sololá	12	Diciembre	2023-12-18T00:00:00	2024-11-08T14:00:00	7	Dirección del viento	0
65439	7	Sololá	701	Sololá	1	Sololá	12	Diciembre	2023-12-18T00:00:00	2024-11-08T14:00:00	1	Precipitación	0
65440	7	Sololá	701	Sololá	1	Sololá	12	Diciembre	2023-12-18T00:00:00	2024-11-08T14:00:00	8	Radiación solar	738
65441	7	Sololá	701	Sololá	1	Sololá	12	Diciembre	2023-12-18T00:00:00	2024-11-08T15:00:00	2	Temperatura media	21.6
65442	7	Sololá	701	Sololá	1	Sololá	12	Diciembre	2023-12-18T00:00:00	2024-11-08T15:00:00	4	Temperatura máxima	22.5
65443	7	Sololá	701	Sololá	1	Sololá	12	Diciembre	2023-12-18T00:00:00	2024-11-08T15:00:00	3	Temperatura mínima	21.6
65444	7	Sololá	701	Sololá	1	Sololá	12	Diciembre	2023-12-18T00:00:00	2024-11-08T15:00:00	5	Humedad	33
65445	7	Sololá	701	Sololá	1	Sololá	12	Diciembre	2023-12-18T00:00:00	2024-11-08T15:00:00	6	Velocidad del viento	0
65446	7	Sololá	701	Sololá	1	Sololá	12	Diciembre	2023-12-18T00:00:00	2024-11-08T15:00:00	7	Dirección del viento	0
65447	7	Sololá	701	Sololá	1	Sololá	12	Diciembre	2023-12-18T00:00:00	2024-11-08T15:00:00	1	Precipitación	0
65448	7	Sololá	701	Sololá	1	Sololá	12	Diciembre	2023-12-18T00:00:00	2024-11-08T15:00:00	8	Radiación solar	514
65449	7	Sololá	701	Sololá	1	Sololá	12	Diciembre	2023-12-18T00:00:00	2024-11-08T16:00:00	2	Temperatura media	20.5
65450	7	Sololá	701	Sololá	1	Sololá	12	Diciembre	2023-12-18T00:00:00	2024-11-08T16:00:00	4	Temperatura máxima	21.6
65451	7	Sololá	701	Sololá	1	Sololá	12	Diciembre	2023-12-18T00:00:00	2024-11-08T16:00:00	3	Temperatura mínima	20.4
65452	7	Sololá	701	Sololá	1	Sololá	12	Diciembre	2023-12-18T00:00:00	2024-11-08T16:00:00	5	Humedad	31
65453	7	Sololá	701	Sololá	1	Sololá	12	Diciembre	2023-12-18T00:00:00	2024-11-08T16:00:00	6	Velocidad del viento	0
65454	7	Sololá	701	Sololá	1	Sololá	12	Diciembre	2023-12-18T00:00:00	2024-11-08T16:00:00	7	Dirección del viento	0
65455	7	Sololá	701	Sololá	1	Sololá	12	Diciembre	2023-12-18T00:00:00	2024-11-08T16:00:00	1	Precipitación	0
65456	7	Sololá	701	Sololá	1	Sololá	12	Diciembre	2023-12-18T00:00:00	2024-11-08T16:00:00	8	Radiación solar	72
65457	7	Sololá	701	Sololá	1	Sololá	12	Diciembre	2023-12-18T00:00:00	2024-11-08T17:00:00	2	Temperatura media	18.8
65458	7	Sololá	701	Sololá	1	Sololá	12	Diciembre	2023-12-18T00:00:00	2024-11-08T17:00:00	4	Temperatura máxima	20.5
65459	7	Sololá	701	Sololá	1	Sololá	12	Diciembre	2023-12-18T00:00:00	2024-11-08T17:00:00	3	Temperatura mínima	18.8
65460	7	Sololá	701	Sololá	1	Sololá	12	Diciembre	2023-12-18T00:00:00	2024-11-08T17:00:00	5	Humedad	32
65461	7	Sololá	701	Sololá	1	Sololá	12	Diciembre	2023-12-18T00:00:00	2024-11-08T17:00:00	6	Velocidad del viento	0
65462	7	Sololá	701	Sololá	1	Sololá	12	Diciembre	2023-12-18T00:00:00	2024-11-08T17:00:00	7	Dirección del viento	0
65463	7	Sololá	701	Sololá	1	Sololá	12	Diciembre	2023-12-18T00:00:00	2024-11-08T17:00:00	1	Precipitación	0
65464	7	Sololá	701	Sololá	1	Sololá	12	Diciembre	2023-12-18T00:00:00	2024-11-08T17:00:00	8	Radiación solar	54
65465	7	Sololá	701	Sololá	1	Sololá	12	Diciembre	2023-12-18T00:00:00	2024-11-08T18:00:00	2	Temperatura media	14.1
65466	7	Sololá	701	Sololá	1	Sololá	12	Diciembre	2023-12-18T00:00:00	2024-11-08T18:00:00	4	Temperatura máxima	18.9
65467	7	Sololá	701	Sololá	1	Sololá	12	Diciembre	2023-12-18T00:00:00	2024-11-08T18:00:00	3	Temperatura mínima	14
65468	7	Sololá	701	Sololá	1	Sololá	12	Diciembre	2023-12-18T00:00:00	2024-11-08T18:00:00	5	Humedad	42
65469	7	Sololá	701	Sololá	1	Sololá	12	Diciembre	2023-12-18T00:00:00	2024-11-08T18:00:00	6	Velocidad del viento	1.6
65470	7	Sololá	701	Sololá	1	Sololá	12	Diciembre	2023-12-18T00:00:00	2024-11-08T18:00:00	7	Dirección del viento	1.61
65471	7	Sololá	701	Sololá	1	Sololá	12	Diciembre	2023-12-18T00:00:00	2024-11-08T18:00:00	1	Precipitación	0
65472	7	Sololá	701	Sololá	1	Sololá	12	Diciembre	2023-12-18T00:00:00	2024-11-08T18:00:00	8	Radiación solar	7
65473	7	Sololá	701	Sololá	1	Sololá	12	Diciembre	2023-12-18T00:00:00	2024-11-08T19:00:00	2	Temperatura media	12.1
65474	7	Sololá	701	Sololá	1	Sololá	12	Diciembre	2023-12-18T00:00:00	2024-11-08T19:00:00	4	Temperatura máxima	14
65475	7	Sololá	701	Sololá	1	Sololá	12	Diciembre	2023-12-18T00:00:00	2024-11-08T19:00:00	3	Temperatura mínima	12.1
65476	7	Sololá	701	Sololá	1	Sololá	12	Diciembre	2023-12-18T00:00:00	2024-11-08T19:00:00	5	Humedad	45
65477	7	Sololá	701	Sololá	1	Sololá	12	Diciembre	2023-12-18T00:00:00	2024-11-08T19:00:00	6	Velocidad del viento	1.6
65478	7	Sololá	701	Sololá	1	Sololá	12	Diciembre	2023-12-18T00:00:00	2024-11-08T19:00:00	7	Dirección del viento	1.61
65479	7	Sololá	701	Sololá	1	Sololá	12	Diciembre	2023-12-18T00:00:00	2024-11-08T19:00:00	1	Precipitación	0
65480	7	Sololá	701	Sololá	1	Sololá	12	Diciembre	2023-12-18T00:00:00	2024-11-08T19:00:00	8	Radiación solar	0
65481	7	Sololá	701	Sololá	1	Sololá	12	Diciembre	2023-12-18T00:00:00	2024-11-08T20:00:00	2	Temperatura media	11.2
65482	7	Sololá	701	Sololá	1	Sololá	12	Diciembre	2023-12-18T00:00:00	2024-11-08T20:00:00	4	Temperatura máxima	12.1
65483	7	Sololá	701	Sololá	1	Sololá	12	Diciembre	2023-12-18T00:00:00	2024-11-08T20:00:00	3	Temperatura mínima	11.2
65484	7	Sololá	701	Sololá	1	Sololá	12	Diciembre	2023-12-18T00:00:00	2024-11-08T20:00:00	5	Humedad	35
65485	7	Sololá	701	Sololá	1	Sololá	12	Diciembre	2023-12-18T00:00:00	2024-11-08T20:00:00	6	Velocidad del viento	1.6
65486	7	Sololá	701	Sololá	1	Sololá	12	Diciembre	2023-12-18T00:00:00	2024-11-08T20:00:00	7	Dirección del viento	1.61
65487	7	Sololá	701	Sololá	1	Sololá	12	Diciembre	2023-12-18T00:00:00	2024-11-08T20:00:00	1	Precipitación	0
65488	7	Sololá	701	Sololá	1	Sololá	12	Diciembre	2023-12-18T00:00:00	2024-11-08T20:00:00	8	Radiación solar	0
65489	7	Sololá	701	Sololá	1	Sololá	12	Diciembre	2023-12-18T00:00:00	2024-11-08T21:00:00	2	Temperatura media	11.5
65490	7	Sololá	701	Sololá	1	Sololá	12	Diciembre	2023-12-18T00:00:00	2024-11-08T21:00:00	4	Temperatura máxima	11.6
65491	7	Sololá	701	Sololá	1	Sololá	12	Diciembre	2023-12-18T00:00:00	2024-11-08T21:00:00	3	Temperatura mínima	11.2
65492	7	Sololá	701	Sololá	1	Sololá	12	Diciembre	2023-12-18T00:00:00	2024-11-08T21:00:00	5	Humedad	28
65493	7	Sololá	701	Sololá	1	Sololá	12	Diciembre	2023-12-18T00:00:00	2024-11-08T21:00:00	6	Velocidad del viento	1.6
65494	7	Sololá	701	Sololá	1	Sololá	12	Diciembre	2023-12-18T00:00:00	2024-11-08T21:00:00	7	Dirección del viento	1.61
65495	7	Sololá	701	Sololá	1	Sololá	12	Diciembre	2023-12-18T00:00:00	2024-11-08T21:00:00	1	Precipitación	0
65496	7	Sololá	701	Sololá	1	Sololá	12	Diciembre	2023-12-18T00:00:00	2024-11-08T21:00:00	8	Radiación solar	0
65497	7	Sololá	701	Sololá	1	Sololá	12	Diciembre	2023-12-18T00:00:00	2024-11-08T22:00:00	2	Temperatura media	11.3
65498	7	Sololá	701	Sololá	1	Sololá	12	Diciembre	2023-12-18T00:00:00	2024-11-08T22:00:00	4	Temperatura máxima	11.5
65499	7	Sololá	701	Sololá	1	Sololá	12	Diciembre	2023-12-18T00:00:00	2024-11-08T22:00:00	3	Temperatura mínima	11.3
65500	7	Sololá	701	Sololá	1	Sololá	12	Diciembre	2023-12-18T00:00:00	2024-11-08T22:00:00	5	Humedad	23
65501	7	Sololá	701	Sololá	1	Sololá	12	Diciembre	2023-12-18T00:00:00	2024-11-08T22:00:00	6	Velocidad del viento	1.6
65502	7	Sololá	701	Sololá	1	Sololá	12	Diciembre	2023-12-18T00:00:00	2024-11-08T22:00:00	7	Dirección del viento	1.61
65503	7	Sololá	701	Sololá	1	Sololá	12	Diciembre	2023-12-18T00:00:00	2024-11-08T22:00:00	1	Precipitación	0
65504	7	Sololá	701	Sololá	1	Sololá	12	Diciembre	2023-12-18T00:00:00	2024-11-08T22:00:00	8	Radiación solar	0
65505	7	Sololá	701	Sololá	1	Sololá	12	Diciembre	2023-12-18T00:00:00	2024-11-08T23:00:00	2	Temperatura media	11.1
65506	7	Sololá	701	Sololá	1	Sololá	12	Diciembre	2023-12-18T00:00:00	2024-11-08T23:00:00	4	Temperatura máxima	11.4
65507	7	Sololá	701	Sololá	1	Sololá	12	Diciembre	2023-12-18T00:00:00	2024-11-08T23:00:00	3	Temperatura mínima	11.1
65508	7	Sololá	701	Sololá	1	Sololá	12	Diciembre	2023-12-18T00:00:00	2024-11-08T23:00:00	5	Humedad	23
65509	7	Sololá	701	Sololá	1	Sololá	12	Diciembre	2023-12-18T00:00:00	2024-11-08T23:00:00	6	Velocidad del viento	1.6
65510	7	Sololá	701	Sololá	1	Sololá	12	Diciembre	2023-12-18T00:00:00	2024-11-08T23:00:00	7	Dirección del viento	1.61
65511	7	Sololá	701	Sololá	1	Sololá	12	Diciembre	2023-12-18T00:00:00	2024-11-08T23:00:00	1	Precipitación	0
65512	7	Sololá	701	Sololá	1	Sololá	12	Diciembre	2023-12-18T00:00:00	2024-11-08T23:00:00	8	Radiación solar	0
65513	7	Sololá	701	Sololá	1	Sololá	12	Diciembre	2023-12-19T00:00:00	2024-11-08T00:00:00	2	Temperatura media	10.9
65514	7	Sololá	701	Sololá	1	Sololá	12	Diciembre	2023-12-19T00:00:00	2024-11-08T00:00:00	4	Temperatura máxima	11.1
65515	7	Sololá	701	Sololá	1	Sololá	12	Diciembre	2023-12-19T00:00:00	2024-11-08T00:00:00	3	Temperatura mínima	10.9
65516	7	Sololá	701	Sololá	1	Sololá	12	Diciembre	2023-12-19T00:00:00	2024-11-08T00:00:00	5	Humedad	17
65517	7	Sololá	701	Sololá	1	Sololá	12	Diciembre	2023-12-19T00:00:00	2024-11-08T00:00:00	6	Velocidad del viento	3.2
65518	7	Sololá	701	Sololá	1	Sololá	12	Diciembre	2023-12-19T00:00:00	2024-11-08T00:00:00	7	Dirección del viento	3.22
65519	7	Sololá	701	Sololá	1	Sololá	12	Diciembre	2023-12-19T00:00:00	2024-11-08T00:00:00	1	Precipitación	0
65520	7	Sololá	701	Sololá	1	Sololá	12	Diciembre	2023-12-19T00:00:00	2024-11-08T00:00:00	8	Radiación solar	0
65521	7	Sololá	701	Sololá	1	Sololá	12	Diciembre	2023-12-19T00:00:00	2024-11-08T01:00:00	2	Temperatura media	10.6
65522	7	Sololá	701	Sololá	1	Sololá	12	Diciembre	2023-12-19T00:00:00	2024-11-08T01:00:00	4	Temperatura máxima	11.1
65523	7	Sololá	701	Sololá	1	Sololá	12	Diciembre	2023-12-19T00:00:00	2024-11-08T01:00:00	3	Temperatura mínima	10.5
65524	7	Sololá	701	Sololá	1	Sololá	12	Diciembre	2023-12-19T00:00:00	2024-11-08T01:00:00	5	Humedad	19
65525	7	Sololá	701	Sololá	1	Sololá	12	Diciembre	2023-12-19T00:00:00	2024-11-08T01:00:00	6	Velocidad del viento	1.6
65526	7	Sololá	701	Sololá	1	Sololá	12	Diciembre	2023-12-19T00:00:00	2024-11-08T01:00:00	7	Dirección del viento	1.61
65527	7	Sololá	701	Sololá	1	Sololá	12	Diciembre	2023-12-19T00:00:00	2024-11-08T01:00:00	1	Precipitación	0
65528	7	Sololá	701	Sololá	1	Sololá	12	Diciembre	2023-12-19T00:00:00	2024-11-08T01:00:00	8	Radiación solar	0
65529	7	Sololá	701	Sololá	1	Sololá	12	Diciembre	2023-12-19T00:00:00	2024-11-08T02:00:00	2	Temperatura media	10.8
65530	7	Sololá	701	Sololá	1	Sololá	12	Diciembre	2023-12-19T00:00:00	2024-11-08T02:00:00	4	Temperatura máxima	10.9
65531	7	Sololá	701	Sololá	1	Sololá	12	Diciembre	2023-12-19T00:00:00	2024-11-08T02:00:00	3	Temperatura mínima	10.5
65532	7	Sololá	701	Sololá	1	Sololá	12	Diciembre	2023-12-19T00:00:00	2024-11-08T02:00:00	5	Humedad	16
65533	7	Sololá	701	Sololá	1	Sololá	12	Diciembre	2023-12-19T00:00:00	2024-11-08T02:00:00	6	Velocidad del viento	1.6
65534	7	Sololá	701	Sololá	1	Sololá	12	Diciembre	2023-12-19T00:00:00	2024-11-08T02:00:00	7	Dirección del viento	1.61
65535	7	Sololá	701	Sololá	1	Sololá	12	Diciembre	2023-12-19T00:00:00	2024-11-08T02:00:00	1	Precipitación	0
65536	7	Sololá	701	Sololá	1	Sololá	12	Diciembre	2023-12-19T00:00:00	2024-11-08T02:00:00	8	Radiación solar	0
65537	7	Sololá	701	Sololá	1	Sololá	12	Diciembre	2023-12-19T00:00:00	2024-11-08T03:00:00	2	Temperatura media	11.1
65538	7	Sololá	701	Sololá	1	Sololá	12	Diciembre	2023-12-19T00:00:00	2024-11-08T03:00:00	4	Temperatura máxima	11.1
65539	7	Sololá	701	Sololá	1	Sololá	12	Diciembre	2023-12-19T00:00:00	2024-11-08T03:00:00	3	Temperatura mínima	10.8
65540	7	Sololá	701	Sololá	1	Sololá	12	Diciembre	2023-12-19T00:00:00	2024-11-08T03:00:00	5	Humedad	16
65541	7	Sololá	701	Sololá	1	Sololá	12	Diciembre	2023-12-19T00:00:00	2024-11-08T03:00:00	6	Velocidad del viento	1.6
65542	7	Sololá	701	Sololá	1	Sololá	12	Diciembre	2023-12-19T00:00:00	2024-11-08T03:00:00	7	Dirección del viento	1.61
65543	7	Sololá	701	Sololá	1	Sololá	12	Diciembre	2023-12-19T00:00:00	2024-11-08T03:00:00	1	Precipitación	0
65544	7	Sololá	701	Sololá	1	Sololá	12	Diciembre	2023-12-19T00:00:00	2024-11-08T03:00:00	8	Radiación solar	0
65545	7	Sololá	701	Sololá	1	Sololá	12	Diciembre	2023-12-19T00:00:00	2024-11-08T04:00:00	2	Temperatura media	11.1
65546	7	Sololá	701	Sololá	1	Sololá	12	Diciembre	2023-12-19T00:00:00	2024-11-08T04:00:00	4	Temperatura máxima	11.1
65547	7	Sololá	701	Sololá	1	Sololá	12	Diciembre	2023-12-19T00:00:00	2024-11-08T04:00:00	3	Temperatura mínima	10.9
65548	7	Sololá	701	Sololá	1	Sololá	12	Diciembre	2023-12-19T00:00:00	2024-11-08T04:00:00	5	Humedad	15
65549	7	Sololá	701	Sololá	1	Sololá	12	Diciembre	2023-12-19T00:00:00	2024-11-08T04:00:00	6	Velocidad del viento	1.6
65550	7	Sololá	701	Sololá	1	Sololá	12	Diciembre	2023-12-19T00:00:00	2024-11-08T04:00:00	7	Dirección del viento	1.61
65551	7	Sololá	701	Sololá	1	Sololá	12	Diciembre	2023-12-19T00:00:00	2024-11-08T04:00:00	1	Precipitación	0
65552	7	Sololá	701	Sololá	1	Sololá	12	Diciembre	2023-12-19T00:00:00	2024-11-08T04:00:00	8	Radiación solar	0
65553	7	Sololá	701	Sololá	1	Sololá	12	Diciembre	2023-12-19T00:00:00	2024-11-08T05:00:00	2	Temperatura media	11.6
65554	7	Sololá	701	Sololá	1	Sololá	12	Diciembre	2023-12-19T00:00:00	2024-11-08T05:00:00	4	Temperatura máxima	11.6
65555	7	Sololá	701	Sololá	1	Sololá	12	Diciembre	2023-12-19T00:00:00	2024-11-08T05:00:00	3	Temperatura mínima	11.1
65556	7	Sololá	701	Sololá	1	Sololá	12	Diciembre	2023-12-19T00:00:00	2024-11-08T05:00:00	5	Humedad	13
65557	7	Sololá	701	Sololá	1	Sololá	12	Diciembre	2023-12-19T00:00:00	2024-11-08T05:00:00	6	Velocidad del viento	1.6
65558	7	Sololá	701	Sololá	1	Sololá	12	Diciembre	2023-12-19T00:00:00	2024-11-08T05:00:00	7	Dirección del viento	1.61
65559	7	Sololá	701	Sololá	1	Sololá	12	Diciembre	2023-12-19T00:00:00	2024-11-08T05:00:00	1	Precipitación	0
65560	7	Sololá	701	Sololá	1	Sololá	12	Diciembre	2023-12-19T00:00:00	2024-11-08T05:00:00	8	Radiación solar	0
65561	7	Sololá	701	Sololá	1	Sololá	12	Diciembre	2023-12-19T00:00:00	2024-11-08T06:00:00	2	Temperatura media	11.8
65562	7	Sololá	701	Sololá	1	Sololá	12	Diciembre	2023-12-19T00:00:00	2024-11-08T06:00:00	4	Temperatura máxima	11.8
65563	7	Sololá	701	Sololá	1	Sololá	12	Diciembre	2023-12-19T00:00:00	2024-11-08T06:00:00	3	Temperatura mínima	11.6
65564	7	Sololá	701	Sololá	1	Sololá	12	Diciembre	2023-12-19T00:00:00	2024-11-08T06:00:00	5	Humedad	12
65565	7	Sololá	701	Sololá	1	Sololá	12	Diciembre	2023-12-19T00:00:00	2024-11-08T06:00:00	6	Velocidad del viento	1.6
65566	7	Sololá	701	Sololá	1	Sololá	12	Diciembre	2023-12-19T00:00:00	2024-11-08T06:00:00	7	Dirección del viento	1.61
65567	7	Sololá	701	Sololá	1	Sololá	12	Diciembre	2023-12-19T00:00:00	2024-11-08T06:00:00	1	Precipitación	0
65568	7	Sololá	701	Sololá	1	Sololá	12	Diciembre	2023-12-19T00:00:00	2024-11-08T06:00:00	8	Radiación solar	0
65569	7	Sololá	701	Sololá	1	Sololá	12	Diciembre	2023-12-19T00:00:00	2024-11-08T07:00:00	2	Temperatura media	11.8
65570	7	Sololá	701	Sololá	1	Sololá	12	Diciembre	2023-12-19T00:00:00	2024-11-08T07:00:00	4	Temperatura máxima	11.9
65571	7	Sololá	701	Sololá	1	Sololá	12	Diciembre	2023-12-19T00:00:00	2024-11-08T07:00:00	3	Temperatura mínima	11.8
65572	7	Sololá	701	Sololá	1	Sololá	12	Diciembre	2023-12-19T00:00:00	2024-11-08T07:00:00	5	Humedad	15
65573	7	Sololá	701	Sololá	1	Sololá	12	Diciembre	2023-12-19T00:00:00	2024-11-08T07:00:00	6	Velocidad del viento	1.6
65574	7	Sololá	701	Sololá	1	Sololá	12	Diciembre	2023-12-19T00:00:00	2024-11-08T07:00:00	7	Dirección del viento	1.61
65575	7	Sololá	701	Sololá	1	Sololá	12	Diciembre	2023-12-19T00:00:00	2024-11-08T07:00:00	1	Precipitación	0
65576	7	Sololá	701	Sololá	1	Sololá	12	Diciembre	2023-12-19T00:00:00	2024-11-08T07:00:00	8	Radiación solar	5
65577	7	Sololá	701	Sololá	1	Sololá	12	Diciembre	2023-12-19T00:00:00	2024-11-08T08:00:00	2	Temperatura media	14.1
65578	7	Sololá	701	Sololá	1	Sololá	12	Diciembre	2023-12-19T00:00:00	2024-11-08T08:00:00	4	Temperatura máxima	14.1
65579	7	Sololá	701	Sololá	1	Sololá	12	Diciembre	2023-12-19T00:00:00	2024-11-08T08:00:00	3	Temperatura mínima	11.8
65580	7	Sololá	701	Sololá	1	Sololá	12	Diciembre	2023-12-19T00:00:00	2024-11-08T08:00:00	5	Humedad	19
65581	7	Sololá	701	Sololá	1	Sololá	12	Diciembre	2023-12-19T00:00:00	2024-11-08T08:00:00	6	Velocidad del viento	1.6
65582	7	Sololá	701	Sololá	1	Sololá	12	Diciembre	2023-12-19T00:00:00	2024-11-08T08:00:00	7	Dirección del viento	1.61
65583	7	Sololá	701	Sololá	1	Sololá	12	Diciembre	2023-12-19T00:00:00	2024-11-08T08:00:00	1	Precipitación	0
65584	7	Sololá	701	Sololá	1	Sololá	12	Diciembre	2023-12-19T00:00:00	2024-11-08T08:00:00	8	Radiación solar	83
65585	7	Sololá	701	Sololá	1	Sololá	12	Diciembre	2023-12-19T00:00:00	2024-11-08T09:00:00	2	Temperatura media	18.8
65586	7	Sololá	701	Sololá	1	Sololá	12	Diciembre	2023-12-19T00:00:00	2024-11-08T09:00:00	4	Temperatura máxima	18.8
65587	7	Sololá	701	Sololá	1	Sololá	12	Diciembre	2023-12-19T00:00:00	2024-11-08T09:00:00	3	Temperatura mínima	14.1
65588	7	Sololá	701	Sololá	1	Sololá	12	Diciembre	2023-12-19T00:00:00	2024-11-08T09:00:00	5	Humedad	17
65589	7	Sololá	701	Sololá	1	Sololá	12	Diciembre	2023-12-19T00:00:00	2024-11-08T09:00:00	6	Velocidad del viento	1.6
65590	7	Sololá	701	Sololá	1	Sololá	12	Diciembre	2023-12-19T00:00:00	2024-11-08T09:00:00	7	Dirección del viento	1.61
65591	7	Sololá	701	Sololá	1	Sololá	12	Diciembre	2023-12-19T00:00:00	2024-11-08T09:00:00	1	Precipitación	0
65592	7	Sololá	701	Sololá	1	Sololá	12	Diciembre	2023-12-19T00:00:00	2024-11-08T09:00:00	8	Radiación solar	532
65593	7	Sololá	701	Sololá	1	Sololá	12	Diciembre	2023-12-19T00:00:00	2024-11-08T10:00:00	2	Temperatura media	20.6
65594	7	Sololá	701	Sololá	1	Sololá	12	Diciembre	2023-12-19T00:00:00	2024-11-08T10:00:00	4	Temperatura máxima	20.7
65595	7	Sololá	701	Sololá	1	Sololá	12	Diciembre	2023-12-19T00:00:00	2024-11-08T10:00:00	3	Temperatura mínima	18.8
65596	7	Sololá	701	Sololá	1	Sololá	12	Diciembre	2023-12-19T00:00:00	2024-11-08T10:00:00	5	Humedad	12
65597	7	Sololá	701	Sololá	1	Sololá	12	Diciembre	2023-12-19T00:00:00	2024-11-08T10:00:00	6	Velocidad del viento	0
65598	7	Sololá	701	Sololá	1	Sololá	12	Diciembre	2023-12-19T00:00:00	2024-11-08T10:00:00	7	Dirección del viento	0
65599	7	Sololá	701	Sololá	1	Sololá	12	Diciembre	2023-12-19T00:00:00	2024-11-08T10:00:00	1	Precipitación	0
65600	7	Sololá	701	Sololá	1	Sololá	12	Diciembre	2023-12-19T00:00:00	2024-11-08T10:00:00	8	Radiación solar	719
65601	7	Sololá	701	Sololá	1	Sololá	12	Diciembre	2023-12-19T00:00:00	2024-11-08T11:00:00	2	Temperatura media	21.7
65602	7	Sololá	701	Sololá	1	Sololá	12	Diciembre	2023-12-19T00:00:00	2024-11-08T11:00:00	4	Temperatura máxima	21.8
65603	7	Sololá	701	Sololá	1	Sololá	12	Diciembre	2023-12-19T00:00:00	2024-11-08T11:00:00	3	Temperatura mínima	20.6
65604	7	Sololá	701	Sololá	1	Sololá	12	Diciembre	2023-12-19T00:00:00	2024-11-08T11:00:00	5	Humedad	16
65605	7	Sololá	701	Sololá	1	Sololá	12	Diciembre	2023-12-19T00:00:00	2024-11-08T11:00:00	6	Velocidad del viento	0
65606	7	Sololá	701	Sololá	1	Sololá	12	Diciembre	2023-12-19T00:00:00	2024-11-08T11:00:00	7	Dirección del viento	0
65607	7	Sololá	701	Sololá	1	Sololá	12	Diciembre	2023-12-19T00:00:00	2024-11-08T11:00:00	1	Precipitación	0
65608	7	Sololá	701	Sololá	1	Sololá	12	Diciembre	2023-12-19T00:00:00	2024-11-08T11:00:00	8	Radiación solar	846
65609	7	Sololá	701	Sololá	1	Sololá	12	Diciembre	2023-12-19T00:00:00	2024-11-08T12:00:00	2	Temperatura media	22.8
65610	7	Sololá	701	Sololá	1	Sololá	12	Diciembre	2023-12-19T00:00:00	2024-11-08T12:00:00	4	Temperatura máxima	22.8
65611	7	Sololá	701	Sololá	1	Sololá	12	Diciembre	2023-12-19T00:00:00	2024-11-08T12:00:00	3	Temperatura mínima	21.7
65612	7	Sololá	701	Sololá	1	Sololá	12	Diciembre	2023-12-19T00:00:00	2024-11-08T12:00:00	5	Humedad	20
65613	7	Sololá	701	Sololá	1	Sololá	12	Diciembre	2023-12-19T00:00:00	2024-11-08T12:00:00	6	Velocidad del viento	0
65614	7	Sololá	701	Sololá	1	Sololá	12	Diciembre	2023-12-19T00:00:00	2024-11-08T12:00:00	7	Dirección del viento	0
65615	7	Sololá	701	Sololá	1	Sololá	12	Diciembre	2023-12-19T00:00:00	2024-11-08T12:00:00	1	Precipitación	0
65616	7	Sololá	701	Sololá	1	Sololá	12	Diciembre	2023-12-19T00:00:00	2024-11-08T12:00:00	8	Radiación solar	900
65617	7	Sololá	701	Sololá	1	Sololá	12	Diciembre	2023-12-19T00:00:00	2024-11-08T13:00:00	2	Temperatura media	23.4
65618	7	Sololá	701	Sololá	1	Sololá	12	Diciembre	2023-12-19T00:00:00	2024-11-08T13:00:00	4	Temperatura máxima	23.4
65619	7	Sololá	701	Sololá	1	Sololá	12	Diciembre	2023-12-19T00:00:00	2024-11-08T13:00:00	3	Temperatura mínima	22.8
65620	7	Sololá	701	Sololá	1	Sololá	12	Diciembre	2023-12-19T00:00:00	2024-11-08T13:00:00	5	Humedad	23
65621	7	Sololá	701	Sololá	1	Sololá	12	Diciembre	2023-12-19T00:00:00	2024-11-08T13:00:00	6	Velocidad del viento	0
65622	7	Sololá	701	Sololá	1	Sololá	12	Diciembre	2023-12-19T00:00:00	2024-11-08T13:00:00	7	Dirección del viento	0
65623	7	Sololá	701	Sololá	1	Sololá	12	Diciembre	2023-12-19T00:00:00	2024-11-08T13:00:00	1	Precipitación	0
65624	7	Sololá	701	Sololá	1	Sololá	12	Diciembre	2023-12-19T00:00:00	2024-11-08T13:00:00	8	Radiación solar	881
65625	7	Sololá	701	Sololá	1	Sololá	12	Diciembre	2023-12-19T00:00:00	2024-11-08T14:00:00	2	Temperatura media	24.1
65626	7	Sololá	701	Sololá	1	Sololá	12	Diciembre	2023-12-19T00:00:00	2024-11-08T14:00:00	4	Temperatura máxima	24.5
65627	7	Sololá	701	Sololá	1	Sololá	12	Diciembre	2023-12-19T00:00:00	2024-11-08T14:00:00	3	Temperatura mínima	23.4
65628	7	Sololá	701	Sololá	1	Sololá	12	Diciembre	2023-12-19T00:00:00	2024-11-08T14:00:00	5	Humedad	21
65629	7	Sololá	701	Sololá	1	Sololá	12	Diciembre	2023-12-19T00:00:00	2024-11-08T14:00:00	6	Velocidad del viento	0
65630	7	Sololá	701	Sololá	1	Sololá	12	Diciembre	2023-12-19T00:00:00	2024-11-08T14:00:00	7	Dirección del viento	0
65631	7	Sololá	701	Sololá	1	Sololá	12	Diciembre	2023-12-19T00:00:00	2024-11-08T14:00:00	1	Precipitación	0
65632	7	Sololá	701	Sololá	1	Sololá	12	Diciembre	2023-12-19T00:00:00	2024-11-08T14:00:00	8	Radiación solar	803
65633	7	Sololá	701	Sololá	1	Sololá	12	Diciembre	2023-12-19T00:00:00	2024-11-08T15:00:00	2	Temperatura media	22.3
65634	7	Sololá	701	Sololá	1	Sololá	12	Diciembre	2023-12-19T00:00:00	2024-11-08T15:00:00	4	Temperatura máxima	24.1
65635	7	Sololá	701	Sololá	1	Sololá	12	Diciembre	2023-12-19T00:00:00	2024-11-08T15:00:00	3	Temperatura mínima	22.3
65636	7	Sololá	701	Sololá	1	Sololá	12	Diciembre	2023-12-19T00:00:00	2024-11-08T15:00:00	5	Humedad	31
65637	7	Sololá	701	Sololá	1	Sololá	12	Diciembre	2023-12-19T00:00:00	2024-11-08T15:00:00	6	Velocidad del viento	0
65638	7	Sololá	701	Sololá	1	Sololá	12	Diciembre	2023-12-19T00:00:00	2024-11-08T15:00:00	7	Dirección del viento	0
65639	7	Sololá	701	Sololá	1	Sololá	12	Diciembre	2023-12-19T00:00:00	2024-11-08T15:00:00	1	Precipitación	0
65640	7	Sololá	701	Sololá	1	Sololá	12	Diciembre	2023-12-19T00:00:00	2024-11-08T15:00:00	8	Radiación solar	453
65641	7	Sololá	701	Sololá	1	Sololá	12	Diciembre	2023-12-19T00:00:00	2024-11-08T16:00:00	2	Temperatura media	20.8
65642	7	Sololá	701	Sololá	1	Sololá	12	Diciembre	2023-12-19T00:00:00	2024-11-08T16:00:00	4	Temperatura máxima	22.3
65643	7	Sololá	701	Sololá	1	Sololá	12	Diciembre	2023-12-19T00:00:00	2024-11-08T16:00:00	3	Temperatura mínima	20.8
65644	7	Sololá	701	Sololá	1	Sololá	12	Diciembre	2023-12-19T00:00:00	2024-11-08T16:00:00	5	Humedad	35
65645	7	Sololá	701	Sololá	1	Sololá	12	Diciembre	2023-12-19T00:00:00	2024-11-08T16:00:00	6	Velocidad del viento	0
65646	7	Sololá	701	Sololá	1	Sololá	12	Diciembre	2023-12-19T00:00:00	2024-11-08T16:00:00	7	Dirección del viento	0
65647	7	Sololá	701	Sololá	1	Sololá	12	Diciembre	2023-12-19T00:00:00	2024-11-08T16:00:00	1	Precipitación	0
65648	7	Sololá	701	Sololá	1	Sololá	12	Diciembre	2023-12-19T00:00:00	2024-11-08T16:00:00	8	Radiación solar	65
65649	7	Sololá	701	Sololá	1	Sololá	12	Diciembre	2023-12-19T00:00:00	2024-11-08T17:00:00	2	Temperatura media	17
65650	7	Sololá	701	Sololá	1	Sololá	12	Diciembre	2023-12-19T00:00:00	2024-11-08T17:00:00	4	Temperatura máxima	20.8
65651	7	Sololá	701	Sololá	1	Sololá	12	Diciembre	2023-12-19T00:00:00	2024-11-08T17:00:00	3	Temperatura mínima	17
65652	7	Sololá	701	Sololá	1	Sololá	12	Diciembre	2023-12-19T00:00:00	2024-11-08T17:00:00	5	Humedad	52
65653	7	Sololá	701	Sololá	1	Sololá	12	Diciembre	2023-12-19T00:00:00	2024-11-08T17:00:00	6	Velocidad del viento	0
65654	7	Sololá	701	Sololá	1	Sololá	12	Diciembre	2023-12-19T00:00:00	2024-11-08T17:00:00	7	Dirección del viento	0
65655	7	Sololá	701	Sololá	1	Sololá	12	Diciembre	2023-12-19T00:00:00	2024-11-08T17:00:00	1	Precipitación	0
65656	7	Sololá	701	Sololá	1	Sololá	12	Diciembre	2023-12-19T00:00:00	2024-11-08T17:00:00	8	Radiación solar	64
65657	7	Sololá	701	Sololá	1	Sololá	12	Diciembre	2023-12-19T00:00:00	2024-11-08T18:00:00	2	Temperatura media	13
65658	7	Sololá	701	Sololá	1	Sololá	12	Diciembre	2023-12-19T00:00:00	2024-11-08T18:00:00	4	Temperatura máxima	17.1
65659	7	Sololá	701	Sololá	1	Sololá	12	Diciembre	2023-12-19T00:00:00	2024-11-08T18:00:00	3	Temperatura mínima	13
65660	7	Sololá	701	Sololá	1	Sololá	12	Diciembre	2023-12-19T00:00:00	2024-11-08T18:00:00	5	Humedad	62
65661	7	Sololá	701	Sololá	1	Sololá	12	Diciembre	2023-12-19T00:00:00	2024-11-08T18:00:00	6	Velocidad del viento	1.6
65662	7	Sololá	701	Sololá	1	Sololá	12	Diciembre	2023-12-19T00:00:00	2024-11-08T18:00:00	7	Dirección del viento	1.61
65663	7	Sololá	701	Sololá	1	Sololá	12	Diciembre	2023-12-19T00:00:00	2024-11-08T18:00:00	1	Precipitación	0
65664	7	Sololá	701	Sololá	1	Sololá	12	Diciembre	2023-12-19T00:00:00	2024-11-08T18:00:00	8	Radiación solar	8
65665	7	Sololá	701	Sololá	1	Sololá	12	Diciembre	2023-12-19T00:00:00	2024-11-08T19:00:00	2	Temperatura media	11.1
65666	7	Sololá	701	Sololá	1	Sololá	12	Diciembre	2023-12-19T00:00:00	2024-11-08T19:00:00	4	Temperatura máxima	13
65667	7	Sololá	701	Sololá	1	Sololá	12	Diciembre	2023-12-19T00:00:00	2024-11-08T19:00:00	3	Temperatura mínima	11.1
65668	7	Sololá	701	Sololá	1	Sololá	12	Diciembre	2023-12-19T00:00:00	2024-11-08T19:00:00	5	Humedad	65
65669	7	Sololá	701	Sololá	1	Sololá	12	Diciembre	2023-12-19T00:00:00	2024-11-08T19:00:00	6	Velocidad del viento	0
65670	7	Sololá	701	Sololá	1	Sololá	12	Diciembre	2023-12-19T00:00:00	2024-11-08T19:00:00	7	Dirección del viento	0
65671	7	Sololá	701	Sololá	1	Sololá	12	Diciembre	2023-12-19T00:00:00	2024-11-08T19:00:00	1	Precipitación	0
65672	7	Sololá	701	Sololá	1	Sololá	12	Diciembre	2023-12-19T00:00:00	2024-11-08T19:00:00	8	Radiación solar	0
65673	7	Sololá	701	Sololá	1	Sololá	12	Diciembre	2023-12-19T00:00:00	2024-11-08T20:00:00	2	Temperatura media	10.3
65674	7	Sololá	701	Sololá	1	Sololá	12	Diciembre	2023-12-19T00:00:00	2024-11-08T20:00:00	4	Temperatura máxima	11.1
65675	7	Sololá	701	Sololá	1	Sololá	12	Diciembre	2023-12-19T00:00:00	2024-11-08T20:00:00	3	Temperatura mínima	10.3
65676	7	Sololá	701	Sololá	1	Sololá	12	Diciembre	2023-12-19T00:00:00	2024-11-08T20:00:00	5	Humedad	60
65677	7	Sololá	701	Sololá	1	Sololá	12	Diciembre	2023-12-19T00:00:00	2024-11-08T20:00:00	6	Velocidad del viento	0
65678	7	Sololá	701	Sololá	1	Sololá	12	Diciembre	2023-12-19T00:00:00	2024-11-08T20:00:00	7	Dirección del viento	0
65679	7	Sololá	701	Sololá	1	Sololá	12	Diciembre	2023-12-19T00:00:00	2024-11-08T20:00:00	1	Precipitación	0
65680	7	Sololá	701	Sololá	1	Sololá	12	Diciembre	2023-12-19T00:00:00	2024-11-08T20:00:00	8	Radiación solar	0
65681	7	Sololá	701	Sololá	1	Sololá	12	Diciembre	2023-12-19T00:00:00	2024-11-08T21:00:00	2	Temperatura media	8.7
65682	7	Sololá	701	Sololá	1	Sololá	12	Diciembre	2023-12-19T00:00:00	2024-11-08T21:00:00	4	Temperatura máxima	10.3
65683	7	Sololá	701	Sololá	1	Sololá	12	Diciembre	2023-12-19T00:00:00	2024-11-08T21:00:00	3	Temperatura mínima	8.7
65684	7	Sololá	701	Sololá	1	Sololá	12	Diciembre	2023-12-19T00:00:00	2024-11-08T21:00:00	5	Humedad	61
65685	7	Sololá	701	Sololá	1	Sololá	12	Diciembre	2023-12-19T00:00:00	2024-11-08T21:00:00	6	Velocidad del viento	0
65686	7	Sololá	701	Sololá	1	Sololá	12	Diciembre	2023-12-19T00:00:00	2024-11-08T21:00:00	7	Dirección del viento	0
65687	7	Sololá	701	Sololá	1	Sololá	12	Diciembre	2023-12-19T00:00:00	2024-11-08T21:00:00	1	Precipitación	0
65688	7	Sololá	701	Sololá	1	Sololá	12	Diciembre	2023-12-19T00:00:00	2024-11-08T21:00:00	8	Radiación solar	0
65689	7	Sololá	701	Sololá	1	Sololá	12	Diciembre	2023-12-19T00:00:00	2024-11-08T22:00:00	2	Temperatura media	8.9
65690	7	Sololá	701	Sololá	1	Sololá	12	Diciembre	2023-12-19T00:00:00	2024-11-08T22:00:00	4	Temperatura máxima	9.2
65691	7	Sololá	701	Sololá	1	Sololá	12	Diciembre	2023-12-19T00:00:00	2024-11-08T22:00:00	3	Temperatura mínima	8.7
65692	7	Sololá	701	Sololá	1	Sololá	12	Diciembre	2023-12-19T00:00:00	2024-11-08T22:00:00	5	Humedad	56
65693	7	Sololá	701	Sololá	1	Sololá	12	Diciembre	2023-12-19T00:00:00	2024-11-08T22:00:00	6	Velocidad del viento	1.6
65694	7	Sololá	701	Sololá	1	Sololá	12	Diciembre	2023-12-19T00:00:00	2024-11-08T22:00:00	7	Dirección del viento	1.61
65695	7	Sololá	701	Sololá	1	Sololá	12	Diciembre	2023-12-19T00:00:00	2024-11-08T22:00:00	1	Precipitación	0
65696	7	Sololá	701	Sololá	1	Sololá	12	Diciembre	2023-12-19T00:00:00	2024-11-08T22:00:00	8	Radiación solar	0
65697	7	Sololá	701	Sololá	1	Sololá	12	Diciembre	2023-12-19T00:00:00	2024-11-08T23:00:00	2	Temperatura media	7.7
65698	7	Sololá	701	Sololá	1	Sololá	12	Diciembre	2023-12-19T00:00:00	2024-11-08T23:00:00	4	Temperatura máxima	8.9
65699	7	Sololá	701	Sololá	1	Sololá	12	Diciembre	2023-12-19T00:00:00	2024-11-08T23:00:00	3	Temperatura mínima	7.7
65700	7	Sololá	701	Sololá	1	Sololá	12	Diciembre	2023-12-19T00:00:00	2024-11-08T23:00:00	5	Humedad	60
65701	7	Sololá	701	Sololá	1	Sololá	12	Diciembre	2023-12-19T00:00:00	2024-11-08T23:00:00	6	Velocidad del viento	0
65702	7	Sololá	701	Sololá	1	Sololá	12	Diciembre	2023-12-19T00:00:00	2024-11-08T23:00:00	7	Dirección del viento	0
65703	7	Sololá	701	Sololá	1	Sololá	12	Diciembre	2023-12-19T00:00:00	2024-11-08T23:00:00	1	Precipitación	0
65704	7	Sololá	701	Sololá	1	Sololá	12	Diciembre	2023-12-19T00:00:00	2024-11-08T23:00:00	8	Radiación solar	0
65705	7	Sololá	701	Sololá	1	Sololá	12	Diciembre	2023-12-20T00:00:00	2024-11-08T00:00:00	2	Temperatura media	6.8
65706	7	Sololá	701	Sololá	1	Sololá	12	Diciembre	2023-12-20T00:00:00	2024-11-08T00:00:00	4	Temperatura máxima	7.7
65707	7	Sololá	701	Sololá	1	Sololá	12	Diciembre	2023-12-20T00:00:00	2024-11-08T00:00:00	3	Temperatura mínima	6.8
65708	7	Sololá	701	Sololá	1	Sololá	12	Diciembre	2023-12-20T00:00:00	2024-11-08T00:00:00	5	Humedad	52
65709	7	Sololá	701	Sololá	1	Sololá	12	Diciembre	2023-12-20T00:00:00	2024-11-08T00:00:00	6	Velocidad del viento	0
65710	7	Sololá	701	Sololá	1	Sololá	12	Diciembre	2023-12-20T00:00:00	2024-11-08T00:00:00	7	Dirección del viento	0
65711	7	Sololá	701	Sololá	1	Sololá	12	Diciembre	2023-12-20T00:00:00	2024-11-08T00:00:00	1	Precipitación	0
65712	7	Sololá	701	Sololá	1	Sololá	12	Diciembre	2023-12-20T00:00:00	2024-11-08T00:00:00	8	Radiación solar	0
65713	7	Sololá	701	Sololá	1	Sololá	12	Diciembre	2023-12-20T00:00:00	2024-11-08T01:00:00	2	Temperatura media	7.3
65714	7	Sololá	701	Sololá	1	Sololá	12	Diciembre	2023-12-20T00:00:00	2024-11-08T01:00:00	4	Temperatura máxima	7.3
65715	7	Sololá	701	Sololá	1	Sololá	12	Diciembre	2023-12-20T00:00:00	2024-11-08T01:00:00	3	Temperatura mínima	6.4
65716	7	Sololá	701	Sololá	1	Sololá	12	Diciembre	2023-12-20T00:00:00	2024-11-08T01:00:00	5	Humedad	45
65717	7	Sololá	701	Sololá	1	Sololá	12	Diciembre	2023-12-20T00:00:00	2024-11-08T01:00:00	6	Velocidad del viento	1.6
65718	7	Sololá	701	Sololá	1	Sololá	12	Diciembre	2023-12-20T00:00:00	2024-11-08T01:00:00	7	Dirección del viento	1.61
65719	7	Sololá	701	Sololá	1	Sololá	12	Diciembre	2023-12-20T00:00:00	2024-11-08T01:00:00	1	Precipitación	0
65720	7	Sololá	701	Sololá	1	Sololá	12	Diciembre	2023-12-20T00:00:00	2024-11-08T01:00:00	8	Radiación solar	0
65721	7	Sololá	701	Sololá	1	Sololá	12	Diciembre	2023-12-20T00:00:00	2024-11-08T02:00:00	2	Temperatura media	7.5
65722	7	Sololá	701	Sololá	1	Sololá	12	Diciembre	2023-12-20T00:00:00	2024-11-08T02:00:00	4	Temperatura máxima	7.6
65723	7	Sololá	701	Sololá	1	Sololá	12	Diciembre	2023-12-20T00:00:00	2024-11-08T02:00:00	3	Temperatura mínima	7.3
65724	7	Sololá	701	Sololá	1	Sololá	12	Diciembre	2023-12-20T00:00:00	2024-11-08T02:00:00	5	Humedad	45
65725	7	Sololá	701	Sololá	1	Sololá	12	Diciembre	2023-12-20T00:00:00	2024-11-08T02:00:00	6	Velocidad del viento	3.2
65726	7	Sololá	701	Sololá	1	Sololá	12	Diciembre	2023-12-20T00:00:00	2024-11-08T02:00:00	7	Dirección del viento	3.22
65727	7	Sololá	701	Sololá	1	Sololá	12	Diciembre	2023-12-20T00:00:00	2024-11-08T02:00:00	1	Precipitación	0
65728	7	Sololá	701	Sololá	1	Sololá	12	Diciembre	2023-12-20T00:00:00	2024-11-08T02:00:00	8	Radiación solar	0
65729	7	Sololá	701	Sololá	1	Sololá	12	Diciembre	2023-12-20T00:00:00	2024-11-08T03:00:00	2	Temperatura media	7.3
65730	7	Sololá	701	Sololá	1	Sololá	12	Diciembre	2023-12-20T00:00:00	2024-11-08T03:00:00	4	Temperatura máxima	7.6
65731	7	Sololá	701	Sololá	1	Sololá	12	Diciembre	2023-12-20T00:00:00	2024-11-08T03:00:00	3	Temperatura mínima	7.1
65732	7	Sololá	701	Sololá	1	Sololá	12	Diciembre	2023-12-20T00:00:00	2024-11-08T03:00:00	5	Humedad	48
65733	7	Sololá	701	Sololá	1	Sololá	12	Diciembre	2023-12-20T00:00:00	2024-11-08T03:00:00	6	Velocidad del viento	3.2
65734	7	Sololá	701	Sololá	1	Sololá	12	Diciembre	2023-12-20T00:00:00	2024-11-08T03:00:00	7	Dirección del viento	3.22
65735	7	Sololá	701	Sololá	1	Sololá	12	Diciembre	2023-12-20T00:00:00	2024-11-08T03:00:00	1	Precipitación	0
65736	7	Sololá	701	Sololá	1	Sololá	12	Diciembre	2023-12-20T00:00:00	2024-11-08T03:00:00	8	Radiación solar	0
65737	7	Sololá	701	Sololá	1	Sololá	12	Diciembre	2023-12-20T00:00:00	2024-11-08T04:00:00	2	Temperatura media	8.2
65738	7	Sololá	701	Sololá	1	Sololá	12	Diciembre	2023-12-20T00:00:00	2024-11-08T04:00:00	4	Temperatura máxima	8.2
65739	7	Sololá	701	Sololá	1	Sololá	12	Diciembre	2023-12-20T00:00:00	2024-11-08T04:00:00	3	Temperatura mínima	7.2
65740	7	Sololá	701	Sololá	1	Sololá	12	Diciembre	2023-12-20T00:00:00	2024-11-08T04:00:00	5	Humedad	38
65741	7	Sololá	701	Sololá	1	Sololá	12	Diciembre	2023-12-20T00:00:00	2024-11-08T04:00:00	6	Velocidad del viento	3.2
65742	7	Sololá	701	Sololá	1	Sololá	12	Diciembre	2023-12-20T00:00:00	2024-11-08T04:00:00	7	Dirección del viento	3.22
65743	7	Sololá	701	Sololá	1	Sololá	12	Diciembre	2023-12-20T00:00:00	2024-11-08T04:00:00	1	Precipitación	0
65744	7	Sololá	701	Sololá	1	Sololá	12	Diciembre	2023-12-20T00:00:00	2024-11-08T04:00:00	8	Radiación solar	0
65745	7	Sololá	701	Sololá	1	Sololá	12	Diciembre	2023-12-20T00:00:00	2024-11-08T05:00:00	2	Temperatura media	8.4
65746	7	Sololá	701	Sololá	1	Sololá	12	Diciembre	2023-12-20T00:00:00	2024-11-08T05:00:00	4	Temperatura máxima	8.7
65747	7	Sololá	701	Sololá	1	Sololá	12	Diciembre	2023-12-20T00:00:00	2024-11-08T05:00:00	3	Temperatura mínima	8.1
65748	7	Sololá	701	Sololá	1	Sololá	12	Diciembre	2023-12-20T00:00:00	2024-11-08T05:00:00	5	Humedad	38
65749	7	Sololá	701	Sololá	1	Sololá	12	Diciembre	2023-12-20T00:00:00	2024-11-08T05:00:00	6	Velocidad del viento	1.6
65750	7	Sololá	701	Sololá	1	Sololá	12	Diciembre	2023-12-20T00:00:00	2024-11-08T05:00:00	7	Dirección del viento	1.61
65751	7	Sololá	701	Sololá	1	Sololá	12	Diciembre	2023-12-20T00:00:00	2024-11-08T05:00:00	1	Precipitación	0
65752	7	Sololá	701	Sololá	1	Sololá	12	Diciembre	2023-12-20T00:00:00	2024-11-08T05:00:00	8	Radiación solar	0
65753	7	Sololá	701	Sololá	1	Sololá	12	Diciembre	2023-12-20T00:00:00	2024-11-08T06:00:00	2	Temperatura media	8.7
65754	7	Sololá	701	Sololá	1	Sololá	12	Diciembre	2023-12-20T00:00:00	2024-11-08T06:00:00	4	Temperatura máxima	8.8
65755	7	Sololá	701	Sololá	1	Sololá	12	Diciembre	2023-12-20T00:00:00	2024-11-08T06:00:00	3	Temperatura mínima	8.2
65756	7	Sololá	701	Sololá	1	Sololá	12	Diciembre	2023-12-20T00:00:00	2024-11-08T06:00:00	5	Humedad	50
65757	7	Sololá	701	Sololá	1	Sololá	12	Diciembre	2023-12-20T00:00:00	2024-11-08T06:00:00	6	Velocidad del viento	3.2
65758	7	Sololá	701	Sololá	1	Sololá	12	Diciembre	2023-12-20T00:00:00	2024-11-08T06:00:00	7	Dirección del viento	3.22
65759	7	Sololá	701	Sololá	1	Sololá	12	Diciembre	2023-12-20T00:00:00	2024-11-08T06:00:00	1	Precipitación	0
65760	7	Sololá	701	Sololá	1	Sololá	12	Diciembre	2023-12-20T00:00:00	2024-11-08T06:00:00	8	Radiación solar	0
65761	7	Sololá	701	Sololá	1	Sololá	12	Diciembre	2023-12-20T00:00:00	2024-11-08T07:00:00	2	Temperatura media	8.7
65762	7	Sololá	701	Sololá	1	Sololá	12	Diciembre	2023-12-20T00:00:00	2024-11-08T07:00:00	4	Temperatura máxima	8.8
65763	7	Sololá	701	Sololá	1	Sololá	12	Diciembre	2023-12-20T00:00:00	2024-11-08T07:00:00	3	Temperatura mínima	8.4
65764	7	Sololá	701	Sololá	1	Sololá	12	Diciembre	2023-12-20T00:00:00	2024-11-08T07:00:00	5	Humedad	57
65765	7	Sololá	701	Sololá	1	Sololá	12	Diciembre	2023-12-20T00:00:00	2024-11-08T07:00:00	6	Velocidad del viento	3.2
65766	7	Sololá	701	Sololá	1	Sololá	12	Diciembre	2023-12-20T00:00:00	2024-11-08T07:00:00	7	Dirección del viento	3.22
65767	7	Sololá	701	Sololá	1	Sololá	12	Diciembre	2023-12-20T00:00:00	2024-11-08T07:00:00	1	Precipitación	0
65768	7	Sololá	701	Sololá	1	Sololá	12	Diciembre	2023-12-20T00:00:00	2024-11-08T07:00:00	8	Radiación solar	6
65769	7	Sololá	701	Sololá	1	Sololá	12	Diciembre	2023-12-20T00:00:00	2024-11-08T08:00:00	2	Temperatura media	11.5
65770	7	Sololá	701	Sololá	1	Sololá	12	Diciembre	2023-12-20T00:00:00	2024-11-08T08:00:00	4	Temperatura máxima	11.5
65771	7	Sololá	701	Sololá	1	Sololá	12	Diciembre	2023-12-20T00:00:00	2024-11-08T08:00:00	3	Temperatura mínima	8.7
65772	7	Sololá	701	Sololá	1	Sololá	12	Diciembre	2023-12-20T00:00:00	2024-11-08T08:00:00	5	Humedad	55
65773	7	Sololá	701	Sololá	1	Sololá	12	Diciembre	2023-12-20T00:00:00	2024-11-08T08:00:00	6	Velocidad del viento	1.6
65774	7	Sololá	701	Sololá	1	Sololá	12	Diciembre	2023-12-20T00:00:00	2024-11-08T08:00:00	7	Dirección del viento	1.61
65775	7	Sololá	701	Sololá	1	Sololá	12	Diciembre	2023-12-20T00:00:00	2024-11-08T08:00:00	1	Precipitación	0
65776	7	Sololá	701	Sololá	1	Sololá	12	Diciembre	2023-12-20T00:00:00	2024-11-08T08:00:00	8	Radiación solar	81
65777	7	Sololá	701	Sololá	1	Sololá	12	Diciembre	2023-12-20T00:00:00	2024-11-08T09:00:00	2	Temperatura media	18.4
65778	7	Sololá	701	Sololá	1	Sololá	12	Diciembre	2023-12-20T00:00:00	2024-11-08T09:00:00	4	Temperatura máxima	18.4
65779	7	Sololá	701	Sololá	1	Sololá	12	Diciembre	2023-12-20T00:00:00	2024-11-08T09:00:00	3	Temperatura mínima	11.5
65780	7	Sololá	701	Sololá	1	Sololá	12	Diciembre	2023-12-20T00:00:00	2024-11-08T09:00:00	5	Humedad	37
65781	7	Sololá	701	Sololá	1	Sololá	12	Diciembre	2023-12-20T00:00:00	2024-11-08T09:00:00	6	Velocidad del viento	0
65782	7	Sololá	701	Sololá	1	Sololá	12	Diciembre	2023-12-20T00:00:00	2024-11-08T09:00:00	7	Dirección del viento	0
65783	7	Sololá	701	Sololá	1	Sololá	12	Diciembre	2023-12-20T00:00:00	2024-11-08T09:00:00	1	Precipitación	0
65784	7	Sololá	701	Sololá	1	Sololá	12	Diciembre	2023-12-20T00:00:00	2024-11-08T09:00:00	8	Radiación solar	497
65785	7	Sololá	701	Sololá	1	Sololá	12	Diciembre	2023-12-20T00:00:00	2024-11-08T10:00:00	2	Temperatura media	18.8
65786	7	Sololá	701	Sololá	1	Sololá	12	Diciembre	2023-12-20T00:00:00	2024-11-08T10:00:00	4	Temperatura máxima	18.8
65787	7	Sololá	701	Sololá	1	Sololá	12	Diciembre	2023-12-20T00:00:00	2024-11-08T10:00:00	3	Temperatura mínima	17.9
65788	7	Sololá	701	Sololá	1	Sololá	12	Diciembre	2023-12-20T00:00:00	2024-11-08T10:00:00	5	Humedad	50
65789	7	Sololá	701	Sololá	1	Sololá	12	Diciembre	2023-12-20T00:00:00	2024-11-08T10:00:00	6	Velocidad del viento	0
65790	7	Sololá	701	Sololá	1	Sololá	12	Diciembre	2023-12-20T00:00:00	2024-11-08T10:00:00	7	Dirección del viento	0
65791	7	Sololá	701	Sololá	1	Sololá	12	Diciembre	2023-12-20T00:00:00	2024-11-08T10:00:00	1	Precipitación	0
65792	7	Sololá	701	Sololá	1	Sololá	12	Diciembre	2023-12-20T00:00:00	2024-11-08T10:00:00	8	Radiación solar	684
65793	7	Sololá	701	Sololá	1	Sololá	12	Diciembre	2023-12-20T00:00:00	2024-11-08T11:00:00	2	Temperatura media	20.2
65794	7	Sololá	701	Sololá	1	Sololá	12	Diciembre	2023-12-20T00:00:00	2024-11-08T11:00:00	4	Temperatura máxima	20.2
65795	7	Sololá	701	Sololá	1	Sololá	12	Diciembre	2023-12-20T00:00:00	2024-11-08T11:00:00	3	Temperatura mínima	18.8
65796	7	Sololá	701	Sololá	1	Sololá	12	Diciembre	2023-12-20T00:00:00	2024-11-08T11:00:00	5	Humedad	45
65797	7	Sololá	701	Sololá	1	Sololá	12	Diciembre	2023-12-20T00:00:00	2024-11-08T11:00:00	6	Velocidad del viento	0
65798	7	Sololá	701	Sololá	1	Sololá	12	Diciembre	2023-12-20T00:00:00	2024-11-08T11:00:00	7	Dirección del viento	0
65799	7	Sololá	701	Sololá	1	Sololá	12	Diciembre	2023-12-20T00:00:00	2024-11-08T11:00:00	1	Precipitación	0
65800	7	Sololá	701	Sololá	1	Sololá	12	Diciembre	2023-12-20T00:00:00	2024-11-08T11:00:00	8	Radiación solar	820
65801	7	Sololá	701	Sololá	1	Sololá	12	Diciembre	2023-12-20T00:00:00	2024-11-08T12:00:00	2	Temperatura media	20.2
65802	7	Sololá	701	Sololá	1	Sololá	12	Diciembre	2023-12-20T00:00:00	2024-11-08T12:00:00	4	Temperatura máxima	20.7
65803	7	Sololá	701	Sololá	1	Sololá	12	Diciembre	2023-12-20T00:00:00	2024-11-08T12:00:00	3	Temperatura mínima	20.1
65804	7	Sololá	701	Sololá	1	Sololá	12	Diciembre	2023-12-20T00:00:00	2024-11-08T12:00:00	5	Humedad	52
65805	7	Sololá	701	Sololá	1	Sololá	12	Diciembre	2023-12-20T00:00:00	2024-11-08T12:00:00	6	Velocidad del viento	0
65806	7	Sololá	701	Sololá	1	Sololá	12	Diciembre	2023-12-20T00:00:00	2024-11-08T12:00:00	7	Dirección del viento	0
65807	7	Sololá	701	Sololá	1	Sololá	12	Diciembre	2023-12-20T00:00:00	2024-11-08T12:00:00	1	Precipitación	0
65808	7	Sololá	701	Sololá	1	Sololá	12	Diciembre	2023-12-20T00:00:00	2024-11-08T12:00:00	8	Radiación solar	878
65809	7	Sololá	701	Sololá	1	Sololá	12	Diciembre	2023-12-20T00:00:00	2024-11-08T13:00:00	2	Temperatura media	20.2
65810	7	Sololá	701	Sololá	1	Sololá	12	Diciembre	2023-12-20T00:00:00	2024-11-08T13:00:00	4	Temperatura máxima	20.7
65811	7	Sololá	701	Sololá	1	Sololá	12	Diciembre	2023-12-20T00:00:00	2024-11-08T13:00:00	3	Temperatura mínima	20.1
65812	7	Sololá	701	Sololá	1	Sololá	12	Diciembre	2023-12-20T00:00:00	2024-11-08T13:00:00	5	Humedad	58
65813	7	Sololá	701	Sololá	1	Sololá	12	Diciembre	2023-12-20T00:00:00	2024-11-08T13:00:00	6	Velocidad del viento	0
65814	7	Sololá	701	Sololá	1	Sololá	12	Diciembre	2023-12-20T00:00:00	2024-11-08T13:00:00	7	Dirección del viento	0
65815	7	Sololá	701	Sololá	1	Sololá	12	Diciembre	2023-12-20T00:00:00	2024-11-08T13:00:00	1	Precipitación	0
65816	7	Sololá	701	Sololá	1	Sololá	12	Diciembre	2023-12-20T00:00:00	2024-11-08T13:00:00	8	Radiación solar	857
65817	7	Sololá	701	Sololá	1	Sololá	12	Diciembre	2023-12-20T00:00:00	2024-11-08T14:00:00	2	Temperatura media	21.9
65818	7	Sololá	701	Sololá	1	Sololá	12	Diciembre	2023-12-20T00:00:00	2024-11-08T14:00:00	4	Temperatura máxima	21.9
65819	7	Sololá	701	Sololá	1	Sololá	12	Diciembre	2023-12-20T00:00:00	2024-11-08T14:00:00	3	Temperatura mínima	20.2
65820	7	Sololá	701	Sololá	1	Sololá	12	Diciembre	2023-12-20T00:00:00	2024-11-08T14:00:00	5	Humedad	52
65821	7	Sololá	701	Sololá	1	Sololá	12	Diciembre	2023-12-20T00:00:00	2024-11-08T14:00:00	6	Velocidad del viento	0
65822	7	Sololá	701	Sololá	1	Sololá	12	Diciembre	2023-12-20T00:00:00	2024-11-08T14:00:00	7	Dirección del viento	0
65823	7	Sololá	701	Sololá	1	Sololá	12	Diciembre	2023-12-20T00:00:00	2024-11-08T14:00:00	1	Precipitación	0
65824	7	Sololá	701	Sololá	1	Sololá	12	Diciembre	2023-12-20T00:00:00	2024-11-08T14:00:00	8	Radiación solar	757
65825	7	Sololá	701	Sololá	1	Sololá	12	Diciembre	2023-12-20T00:00:00	2024-11-08T15:00:00	2	Temperatura media	21.2
65826	7	Sololá	701	Sololá	1	Sololá	12	Diciembre	2023-12-20T00:00:00	2024-11-08T15:00:00	4	Temperatura máxima	22
65827	7	Sololá	701	Sololá	1	Sololá	12	Diciembre	2023-12-20T00:00:00	2024-11-08T15:00:00	3	Temperatura mínima	21.1
65828	7	Sololá	701	Sololá	1	Sololá	12	Diciembre	2023-12-20T00:00:00	2024-11-08T15:00:00	5	Humedad	57
65829	7	Sololá	701	Sololá	1	Sololá	12	Diciembre	2023-12-20T00:00:00	2024-11-08T15:00:00	6	Velocidad del viento	0
65830	7	Sololá	701	Sololá	1	Sololá	12	Diciembre	2023-12-20T00:00:00	2024-11-08T15:00:00	7	Dirección del viento	0
65831	7	Sololá	701	Sololá	1	Sololá	12	Diciembre	2023-12-20T00:00:00	2024-11-08T15:00:00	1	Precipitación	0
65832	7	Sololá	701	Sololá	1	Sololá	12	Diciembre	2023-12-20T00:00:00	2024-11-08T15:00:00	8	Radiación solar	519
65833	7	Sololá	701	Sololá	1	Sololá	12	Diciembre	2023-12-20T00:00:00	2024-11-08T16:00:00	2	Temperatura media	19.8
65834	7	Sololá	701	Sololá	1	Sololá	12	Diciembre	2023-12-20T00:00:00	2024-11-08T16:00:00	4	Temperatura máxima	21.2
65835	7	Sololá	701	Sololá	1	Sololá	12	Diciembre	2023-12-20T00:00:00	2024-11-08T16:00:00	3	Temperatura mínima	19.8
65836	7	Sololá	701	Sololá	1	Sololá	12	Diciembre	2023-12-20T00:00:00	2024-11-08T16:00:00	5	Humedad	68
65837	7	Sololá	701	Sololá	1	Sololá	12	Diciembre	2023-12-20T00:00:00	2024-11-08T16:00:00	6	Velocidad del viento	0
65838	7	Sololá	701	Sololá	1	Sololá	12	Diciembre	2023-12-20T00:00:00	2024-11-08T16:00:00	7	Dirección del viento	0
65839	7	Sololá	701	Sololá	1	Sololá	12	Diciembre	2023-12-20T00:00:00	2024-11-08T16:00:00	1	Precipitación	0
65840	7	Sololá	701	Sololá	1	Sololá	12	Diciembre	2023-12-20T00:00:00	2024-11-08T16:00:00	8	Radiación solar	82
65841	7	Sololá	701	Sololá	1	Sololá	12	Diciembre	2023-12-20T00:00:00	2024-11-08T17:00:00	2	Temperatura media	18.5
65842	7	Sololá	701	Sololá	1	Sololá	12	Diciembre	2023-12-20T00:00:00	2024-11-08T17:00:00	4	Temperatura máxima	19.8
65843	7	Sololá	701	Sololá	1	Sololá	12	Diciembre	2023-12-20T00:00:00	2024-11-08T17:00:00	3	Temperatura mínima	18.5
65844	7	Sololá	701	Sololá	1	Sololá	12	Diciembre	2023-12-20T00:00:00	2024-11-08T17:00:00	5	Humedad	75
65845	7	Sololá	701	Sololá	1	Sololá	12	Diciembre	2023-12-20T00:00:00	2024-11-08T17:00:00	6	Velocidad del viento	0
65846	7	Sololá	701	Sololá	1	Sololá	12	Diciembre	2023-12-20T00:00:00	2024-11-08T17:00:00	7	Dirección del viento	0
65847	7	Sololá	701	Sololá	1	Sololá	12	Diciembre	2023-12-20T00:00:00	2024-11-08T17:00:00	1	Precipitación	0
65848	7	Sololá	701	Sololá	1	Sololá	12	Diciembre	2023-12-20T00:00:00	2024-11-08T17:00:00	8	Radiación solar	77
65849	7	Sololá	701	Sololá	1	Sololá	12	Diciembre	2023-12-20T00:00:00	2024-11-08T18:00:00	2	Temperatura media	14.7
65850	7	Sololá	701	Sololá	1	Sololá	12	Diciembre	2023-12-20T00:00:00	2024-11-08T18:00:00	4	Temperatura máxima	18.6
65851	7	Sololá	701	Sololá	1	Sololá	12	Diciembre	2023-12-20T00:00:00	2024-11-08T18:00:00	3	Temperatura mínima	14.7
65852	7	Sololá	701	Sololá	1	Sololá	12	Diciembre	2023-12-20T00:00:00	2024-11-08T18:00:00	5	Humedad	57
65853	7	Sololá	701	Sololá	1	Sololá	12	Diciembre	2023-12-20T00:00:00	2024-11-08T18:00:00	6	Velocidad del viento	0
65854	7	Sololá	701	Sololá	1	Sololá	12	Diciembre	2023-12-20T00:00:00	2024-11-08T18:00:00	7	Dirección del viento	0
65855	7	Sololá	701	Sololá	1	Sololá	12	Diciembre	2023-12-20T00:00:00	2024-11-08T18:00:00	1	Precipitación	0
65856	7	Sololá	701	Sololá	1	Sololá	12	Diciembre	2023-12-20T00:00:00	2024-11-08T18:00:00	8	Radiación solar	9
65857	7	Sololá	701	Sololá	1	Sololá	12	Diciembre	2023-12-20T00:00:00	2024-11-08T19:00:00	2	Temperatura media	12.2
65858	7	Sololá	701	Sololá	1	Sololá	12	Diciembre	2023-12-20T00:00:00	2024-11-08T19:00:00	4	Temperatura máxima	14.6
65859	7	Sololá	701	Sololá	1	Sololá	12	Diciembre	2023-12-20T00:00:00	2024-11-08T19:00:00	3	Temperatura mínima	12.2
65860	7	Sololá	701	Sololá	1	Sololá	12	Diciembre	2023-12-20T00:00:00	2024-11-08T19:00:00	5	Humedad	67
65861	7	Sololá	701	Sololá	1	Sololá	12	Diciembre	2023-12-20T00:00:00	2024-11-08T19:00:00	6	Velocidad del viento	0
65862	7	Sololá	701	Sololá	1	Sololá	12	Diciembre	2023-12-20T00:00:00	2024-11-08T19:00:00	7	Dirección del viento	0
65863	7	Sololá	701	Sololá	1	Sololá	12	Diciembre	2023-12-20T00:00:00	2024-11-08T19:00:00	1	Precipitación	0
65864	7	Sololá	701	Sololá	1	Sololá	12	Diciembre	2023-12-20T00:00:00	2024-11-08T19:00:00	8	Radiación solar	0
65865	7	Sololá	701	Sololá	1	Sololá	12	Diciembre	2023-12-20T00:00:00	2024-11-08T20:00:00	2	Temperatura media	11.2
65866	7	Sololá	701	Sololá	1	Sololá	12	Diciembre	2023-12-20T00:00:00	2024-11-08T20:00:00	4	Temperatura máxima	12.2
65867	7	Sololá	701	Sololá	1	Sololá	12	Diciembre	2023-12-20T00:00:00	2024-11-08T20:00:00	3	Temperatura mínima	11.2
65868	7	Sololá	701	Sololá	1	Sololá	12	Diciembre	2023-12-20T00:00:00	2024-11-08T20:00:00	5	Humedad	72
65869	7	Sololá	701	Sololá	1	Sololá	12	Diciembre	2023-12-20T00:00:00	2024-11-08T20:00:00	6	Velocidad del viento	0
65870	7	Sololá	701	Sololá	1	Sololá	12	Diciembre	2023-12-20T00:00:00	2024-11-08T20:00:00	7	Dirección del viento	0
65871	7	Sololá	701	Sololá	1	Sololá	12	Diciembre	2023-12-20T00:00:00	2024-11-08T20:00:00	1	Precipitación	0
65872	7	Sololá	701	Sololá	1	Sololá	12	Diciembre	2023-12-20T00:00:00	2024-11-08T20:00:00	8	Radiación solar	0
65873	7	Sololá	701	Sololá	1	Sololá	12	Diciembre	2023-12-20T00:00:00	2024-11-08T21:00:00	2	Temperatura media	9.9
65874	7	Sololá	701	Sololá	1	Sololá	12	Diciembre	2023-12-20T00:00:00	2024-11-08T21:00:00	4	Temperatura máxima	11.2
65875	7	Sololá	701	Sololá	1	Sololá	12	Diciembre	2023-12-20T00:00:00	2024-11-08T21:00:00	3	Temperatura mínima	9.9
65876	7	Sololá	701	Sololá	1	Sololá	12	Diciembre	2023-12-20T00:00:00	2024-11-08T21:00:00	5	Humedad	78
65877	7	Sololá	701	Sololá	1	Sololá	12	Diciembre	2023-12-20T00:00:00	2024-11-08T21:00:00	6	Velocidad del viento	0
65878	7	Sololá	701	Sololá	1	Sololá	12	Diciembre	2023-12-20T00:00:00	2024-11-08T21:00:00	7	Dirección del viento	0
65879	7	Sololá	701	Sololá	1	Sololá	12	Diciembre	2023-12-20T00:00:00	2024-11-08T21:00:00	1	Precipitación	0
65880	7	Sololá	701	Sololá	1	Sololá	12	Diciembre	2023-12-20T00:00:00	2024-11-08T21:00:00	8	Radiación solar	0
65881	7	Sololá	701	Sololá	1	Sololá	12	Diciembre	2023-12-20T00:00:00	2024-11-08T22:00:00	2	Temperatura media	9.3
65882	7	Sololá	701	Sololá	1	Sololá	12	Diciembre	2023-12-20T00:00:00	2024-11-08T22:00:00	4	Temperatura máxima	10
65883	7	Sololá	701	Sololá	1	Sololá	12	Diciembre	2023-12-20T00:00:00	2024-11-08T22:00:00	3	Temperatura mínima	9.3
65884	7	Sololá	701	Sololá	1	Sololá	12	Diciembre	2023-12-20T00:00:00	2024-11-08T22:00:00	5	Humedad	79
65885	7	Sololá	701	Sololá	1	Sololá	12	Diciembre	2023-12-20T00:00:00	2024-11-08T22:00:00	6	Velocidad del viento	0
65886	7	Sololá	701	Sololá	1	Sololá	12	Diciembre	2023-12-20T00:00:00	2024-11-08T22:00:00	7	Dirección del viento	0
65887	7	Sololá	701	Sololá	1	Sololá	12	Diciembre	2023-12-20T00:00:00	2024-11-08T22:00:00	1	Precipitación	0
65888	7	Sololá	701	Sololá	1	Sololá	12	Diciembre	2023-12-20T00:00:00	2024-11-08T22:00:00	8	Radiación solar	0
65889	7	Sololá	701	Sololá	1	Sololá	12	Diciembre	2023-12-20T00:00:00	2024-11-08T23:00:00	2	Temperatura media	8.7
65890	7	Sololá	701	Sololá	1	Sololá	12	Diciembre	2023-12-20T00:00:00	2024-11-08T23:00:00	4	Temperatura máxima	9.3
65891	7	Sololá	701	Sololá	1	Sololá	12	Diciembre	2023-12-20T00:00:00	2024-11-08T23:00:00	3	Temperatura mínima	8.7
65892	7	Sololá	701	Sololá	1	Sololá	12	Diciembre	2023-12-20T00:00:00	2024-11-08T23:00:00	5	Humedad	77
65893	7	Sololá	701	Sololá	1	Sololá	12	Diciembre	2023-12-20T00:00:00	2024-11-08T23:00:00	6	Velocidad del viento	1.6
65894	7	Sololá	701	Sololá	1	Sololá	12	Diciembre	2023-12-20T00:00:00	2024-11-08T23:00:00	7	Dirección del viento	1.61
65895	7	Sololá	701	Sololá	1	Sololá	12	Diciembre	2023-12-20T00:00:00	2024-11-08T23:00:00	1	Precipitación	0
65896	7	Sololá	701	Sololá	1	Sololá	12	Diciembre	2023-12-20T00:00:00	2024-11-08T23:00:00	8	Radiación solar	0
65897	7	Sololá	701	Sololá	1	Sololá	12	Diciembre	2023-12-21T00:00:00	2024-11-08T00:00:00	2	Temperatura media	8.3
65898	7	Sololá	701	Sololá	1	Sololá	12	Diciembre	2023-12-21T00:00:00	2024-11-08T00:00:00	4	Temperatura máxima	8.8
65899	7	Sololá	701	Sololá	1	Sololá	12	Diciembre	2023-12-21T00:00:00	2024-11-08T00:00:00	3	Temperatura mínima	8.2
65900	7	Sololá	701	Sololá	1	Sololá	12	Diciembre	2023-12-21T00:00:00	2024-11-08T00:00:00	5	Humedad	77
65901	7	Sololá	701	Sololá	1	Sololá	12	Diciembre	2023-12-21T00:00:00	2024-11-08T00:00:00	6	Velocidad del viento	1.6
65902	7	Sololá	701	Sololá	1	Sololá	12	Diciembre	2023-12-21T00:00:00	2024-11-08T00:00:00	7	Dirección del viento	1.61
65903	7	Sololá	701	Sololá	1	Sololá	12	Diciembre	2023-12-21T00:00:00	2024-11-08T00:00:00	1	Precipitación	0
65904	7	Sololá	701	Sololá	1	Sololá	12	Diciembre	2023-12-21T00:00:00	2024-11-08T00:00:00	8	Radiación solar	0
65905	7	Sololá	701	Sololá	1	Sololá	12	Diciembre	2023-12-21T00:00:00	2024-11-08T01:00:00	2	Temperatura media	7.9
65906	7	Sololá	701	Sololá	1	Sololá	12	Diciembre	2023-12-21T00:00:00	2024-11-08T01:00:00	4	Temperatura máxima	8.3
65907	7	Sololá	701	Sololá	1	Sololá	12	Diciembre	2023-12-21T00:00:00	2024-11-08T01:00:00	3	Temperatura mínima	7.9
65908	7	Sololá	701	Sololá	1	Sololá	12	Diciembre	2023-12-21T00:00:00	2024-11-08T01:00:00	5	Humedad	73
65909	7	Sololá	701	Sololá	1	Sololá	12	Diciembre	2023-12-21T00:00:00	2024-11-08T01:00:00	6	Velocidad del viento	1.6
65910	7	Sololá	701	Sololá	1	Sololá	12	Diciembre	2023-12-21T00:00:00	2024-11-08T01:00:00	7	Dirección del viento	1.61
65911	7	Sololá	701	Sololá	1	Sololá	12	Diciembre	2023-12-21T00:00:00	2024-11-08T01:00:00	1	Precipitación	0
65912	7	Sololá	701	Sololá	1	Sololá	12	Diciembre	2023-12-21T00:00:00	2024-11-08T01:00:00	8	Radiación solar	0
65913	7	Sololá	701	Sololá	1	Sololá	12	Diciembre	2023-12-21T00:00:00	2024-11-08T02:00:00	2	Temperatura media	7.6
65914	7	Sololá	701	Sololá	1	Sololá	12	Diciembre	2023-12-21T00:00:00	2024-11-08T02:00:00	4	Temperatura máxima	7.9
65915	7	Sololá	701	Sololá	1	Sololá	12	Diciembre	2023-12-21T00:00:00	2024-11-08T02:00:00	3	Temperatura mínima	7.6
65916	7	Sololá	701	Sololá	1	Sololá	12	Diciembre	2023-12-21T00:00:00	2024-11-08T02:00:00	5	Humedad	72
65917	7	Sololá	701	Sololá	1	Sololá	12	Diciembre	2023-12-21T00:00:00	2024-11-08T02:00:00	6	Velocidad del viento	1.6
65918	7	Sololá	701	Sololá	1	Sololá	12	Diciembre	2023-12-21T00:00:00	2024-11-08T02:00:00	7	Dirección del viento	1.61
65919	7	Sololá	701	Sololá	1	Sololá	12	Diciembre	2023-12-21T00:00:00	2024-11-08T02:00:00	1	Precipitación	0
65920	7	Sololá	701	Sololá	1	Sololá	12	Diciembre	2023-12-21T00:00:00	2024-11-08T02:00:00	8	Radiación solar	0
65921	7	Sololá	701	Sololá	1	Sololá	12	Diciembre	2023-12-21T00:00:00	2024-11-08T03:00:00	2	Temperatura media	8.1
65922	7	Sololá	701	Sololá	1	Sololá	12	Diciembre	2023-12-21T00:00:00	2024-11-08T03:00:00	4	Temperatura máxima	8.1
65923	7	Sololá	701	Sololá	1	Sololá	12	Diciembre	2023-12-21T00:00:00	2024-11-08T03:00:00	3	Temperatura mínima	7.3
65924	7	Sololá	701	Sololá	1	Sololá	12	Diciembre	2023-12-21T00:00:00	2024-11-08T03:00:00	5	Humedad	65
65925	7	Sololá	701	Sololá	1	Sololá	12	Diciembre	2023-12-21T00:00:00	2024-11-08T03:00:00	6	Velocidad del viento	0
65926	7	Sololá	701	Sololá	1	Sololá	12	Diciembre	2023-12-21T00:00:00	2024-11-08T03:00:00	7	Dirección del viento	0
65927	7	Sololá	701	Sololá	1	Sololá	12	Diciembre	2023-12-21T00:00:00	2024-11-08T03:00:00	1	Precipitación	0
65928	7	Sololá	701	Sololá	1	Sololá	12	Diciembre	2023-12-21T00:00:00	2024-11-08T03:00:00	8	Radiación solar	0
65929	7	Sololá	701	Sololá	1	Sololá	12	Diciembre	2023-12-21T00:00:00	2024-11-08T04:00:00	2	Temperatura media	8.8
65930	7	Sololá	701	Sololá	1	Sololá	12	Diciembre	2023-12-21T00:00:00	2024-11-08T04:00:00	4	Temperatura máxima	8.8
65931	7	Sololá	701	Sololá	1	Sololá	12	Diciembre	2023-12-21T00:00:00	2024-11-08T04:00:00	3	Temperatura mínima	8.1
65932	7	Sololá	701	Sololá	1	Sololá	12	Diciembre	2023-12-21T00:00:00	2024-11-08T04:00:00	5	Humedad	66
65933	7	Sololá	701	Sololá	1	Sololá	12	Diciembre	2023-12-21T00:00:00	2024-11-08T04:00:00	6	Velocidad del viento	1.6
65934	7	Sololá	701	Sololá	1	Sololá	12	Diciembre	2023-12-21T00:00:00	2024-11-08T04:00:00	7	Dirección del viento	1.61
65935	7	Sololá	701	Sololá	1	Sololá	12	Diciembre	2023-12-21T00:00:00	2024-11-08T04:00:00	1	Precipitación	0
65936	7	Sololá	701	Sololá	1	Sololá	12	Diciembre	2023-12-21T00:00:00	2024-11-08T04:00:00	8	Radiación solar	0
65937	7	Sololá	701	Sololá	1	Sololá	12	Diciembre	2023-12-21T00:00:00	2024-11-08T05:00:00	2	Temperatura media	8.4
65938	7	Sololá	701	Sololá	1	Sololá	12	Diciembre	2023-12-21T00:00:00	2024-11-08T05:00:00	4	Temperatura máxima	8.8
65939	7	Sololá	701	Sololá	1	Sololá	12	Diciembre	2023-12-21T00:00:00	2024-11-08T05:00:00	3	Temperatura mínima	8.3
65940	7	Sololá	701	Sololá	1	Sololá	12	Diciembre	2023-12-21T00:00:00	2024-11-08T05:00:00	5	Humedad	67
65941	7	Sololá	701	Sololá	1	Sololá	12	Diciembre	2023-12-21T00:00:00	2024-11-08T05:00:00	6	Velocidad del viento	0
65942	7	Sololá	701	Sololá	1	Sololá	12	Diciembre	2023-12-21T00:00:00	2024-11-08T05:00:00	7	Dirección del viento	0
65943	7	Sololá	701	Sololá	1	Sololá	12	Diciembre	2023-12-21T00:00:00	2024-11-08T05:00:00	1	Precipitación	0
65944	7	Sololá	701	Sololá	1	Sololá	12	Diciembre	2023-12-21T00:00:00	2024-11-08T05:00:00	8	Radiación solar	0
65945	7	Sololá	701	Sololá	1	Sololá	12	Diciembre	2023-12-21T00:00:00	2024-11-08T06:00:00	2	Temperatura media	9.5
65946	7	Sololá	701	Sololá	1	Sololá	12	Diciembre	2023-12-21T00:00:00	2024-11-08T06:00:00	4	Temperatura máxima	9.5
65947	7	Sololá	701	Sololá	1	Sololá	12	Diciembre	2023-12-21T00:00:00	2024-11-08T06:00:00	3	Temperatura mínima	8.3
65948	7	Sololá	701	Sololá	1	Sololá	12	Diciembre	2023-12-21T00:00:00	2024-11-08T06:00:00	5	Humedad	55
65949	7	Sololá	701	Sololá	1	Sololá	12	Diciembre	2023-12-21T00:00:00	2024-11-08T06:00:00	6	Velocidad del viento	1.6
65950	7	Sololá	701	Sololá	1	Sololá	12	Diciembre	2023-12-21T00:00:00	2024-11-08T06:00:00	7	Dirección del viento	1.61
65951	7	Sololá	701	Sololá	1	Sololá	12	Diciembre	2023-12-21T00:00:00	2024-11-08T06:00:00	1	Precipitación	0
65952	7	Sololá	701	Sololá	1	Sololá	12	Diciembre	2023-12-21T00:00:00	2024-11-08T06:00:00	8	Radiación solar	0
65953	7	Sololá	701	Sololá	1	Sololá	12	Diciembre	2023-12-21T00:00:00	2024-11-08T07:00:00	2	Temperatura media	9.7
65954	7	Sololá	701	Sololá	1	Sololá	12	Diciembre	2023-12-21T00:00:00	2024-11-08T07:00:00	4	Temperatura máxima	9.7
65955	7	Sololá	701	Sololá	1	Sololá	12	Diciembre	2023-12-21T00:00:00	2024-11-08T07:00:00	3	Temperatura mínima	9.5
65956	7	Sololá	701	Sololá	1	Sololá	12	Diciembre	2023-12-21T00:00:00	2024-11-08T07:00:00	5	Humedad	49
65957	7	Sololá	701	Sololá	1	Sololá	12	Diciembre	2023-12-21T00:00:00	2024-11-08T07:00:00	6	Velocidad del viento	0
65958	7	Sololá	701	Sololá	1	Sololá	12	Diciembre	2023-12-21T00:00:00	2024-11-08T07:00:00	7	Dirección del viento	0
65959	7	Sololá	701	Sololá	1	Sololá	12	Diciembre	2023-12-21T00:00:00	2024-11-08T07:00:00	1	Precipitación	0
65960	7	Sololá	701	Sololá	1	Sololá	12	Diciembre	2023-12-21T00:00:00	2024-11-08T07:00:00	8	Radiación solar	4
65961	7	Sololá	701	Sololá	1	Sololá	12	Diciembre	2023-12-21T00:00:00	2024-11-08T08:00:00	2	Temperatura media	10.5
65962	7	Sololá	701	Sololá	1	Sololá	12	Diciembre	2023-12-21T00:00:00	2024-11-08T08:00:00	4	Temperatura máxima	10.5
65963	7	Sololá	701	Sololá	1	Sololá	12	Diciembre	2023-12-21T00:00:00	2024-11-08T08:00:00	3	Temperatura mínima	9.7
65964	7	Sololá	701	Sololá	1	Sololá	12	Diciembre	2023-12-21T00:00:00	2024-11-08T08:00:00	5	Humedad	55
65965	7	Sololá	701	Sololá	1	Sololá	12	Diciembre	2023-12-21T00:00:00	2024-11-08T08:00:00	6	Velocidad del viento	0
65966	7	Sololá	701	Sololá	1	Sololá	12	Diciembre	2023-12-21T00:00:00	2024-11-08T08:00:00	7	Dirección del viento	0
65967	7	Sololá	701	Sololá	1	Sololá	12	Diciembre	2023-12-21T00:00:00	2024-11-08T08:00:00	1	Precipitación	0
65968	7	Sololá	701	Sololá	1	Sololá	12	Diciembre	2023-12-21T00:00:00	2024-11-08T08:00:00	8	Radiación solar	79
65969	7	Sololá	701	Sololá	1	Sololá	12	Diciembre	2023-12-21T00:00:00	2024-11-08T09:00:00	2	Temperatura media	16.8
65970	7	Sololá	701	Sololá	1	Sololá	12	Diciembre	2023-12-21T00:00:00	2024-11-08T09:00:00	4	Temperatura máxima	16.8
65971	7	Sololá	701	Sololá	1	Sololá	12	Diciembre	2023-12-21T00:00:00	2024-11-08T09:00:00	3	Temperatura mínima	10.5
65972	7	Sololá	701	Sololá	1	Sololá	12	Diciembre	2023-12-21T00:00:00	2024-11-08T09:00:00	5	Humedad	47
65973	7	Sololá	701	Sololá	1	Sololá	12	Diciembre	2023-12-21T00:00:00	2024-11-08T09:00:00	6	Velocidad del viento	0
65974	7	Sololá	701	Sololá	1	Sololá	12	Diciembre	2023-12-21T00:00:00	2024-11-08T09:00:00	7	Dirección del viento	0
65975	7	Sololá	701	Sololá	1	Sololá	12	Diciembre	2023-12-21T00:00:00	2024-11-08T09:00:00	1	Precipitación	0
65976	7	Sololá	701	Sololá	1	Sololá	12	Diciembre	2023-12-21T00:00:00	2024-11-08T09:00:00	8	Radiación solar	516
65977	7	Sololá	701	Sololá	1	Sololá	12	Diciembre	2023-12-21T00:00:00	2024-11-08T10:00:00	2	Temperatura media	20.6
65978	7	Sololá	701	Sololá	1	Sololá	12	Diciembre	2023-12-21T00:00:00	2024-11-08T10:00:00	4	Temperatura máxima	20.6
65979	7	Sololá	701	Sololá	1	Sololá	12	Diciembre	2023-12-21T00:00:00	2024-11-08T10:00:00	3	Temperatura mínima	16.8
65980	7	Sololá	701	Sololá	1	Sololá	12	Diciembre	2023-12-21T00:00:00	2024-11-08T10:00:00	5	Humedad	38
65981	7	Sololá	701	Sololá	1	Sololá	12	Diciembre	2023-12-21T00:00:00	2024-11-08T10:00:00	6	Velocidad del viento	0
65982	7	Sololá	701	Sololá	1	Sololá	12	Diciembre	2023-12-21T00:00:00	2024-11-08T10:00:00	7	Dirección del viento	0
65983	7	Sololá	701	Sololá	1	Sololá	12	Diciembre	2023-12-21T00:00:00	2024-11-08T10:00:00	1	Precipitación	0
65984	7	Sololá	701	Sololá	1	Sololá	12	Diciembre	2023-12-21T00:00:00	2024-11-08T10:00:00	8	Radiación solar	703
65985	7	Sololá	701	Sololá	1	Sololá	12	Diciembre	2023-12-21T00:00:00	2024-11-08T11:00:00	2	Temperatura media	19.9
65986	7	Sololá	701	Sololá	1	Sololá	12	Diciembre	2023-12-21T00:00:00	2024-11-08T11:00:00	4	Temperatura máxima	20.8
65987	7	Sololá	701	Sololá	1	Sololá	12	Diciembre	2023-12-21T00:00:00	2024-11-08T11:00:00	3	Temperatura mínima	19.8
65988	7	Sololá	701	Sololá	1	Sololá	12	Diciembre	2023-12-21T00:00:00	2024-11-08T11:00:00	5	Humedad	46
65989	7	Sololá	701	Sololá	1	Sololá	12	Diciembre	2023-12-21T00:00:00	2024-11-08T11:00:00	6	Velocidad del viento	0
65990	7	Sololá	701	Sololá	1	Sololá	12	Diciembre	2023-12-21T00:00:00	2024-11-08T11:00:00	7	Dirección del viento	0
65991	7	Sololá	701	Sololá	1	Sololá	12	Diciembre	2023-12-21T00:00:00	2024-11-08T11:00:00	1	Precipitación	0
65992	7	Sololá	701	Sololá	1	Sololá	12	Diciembre	2023-12-21T00:00:00	2024-11-08T11:00:00	8	Radiación solar	818
65993	7	Sololá	701	Sololá	1	Sololá	12	Diciembre	2023-12-21T00:00:00	2024-11-08T12:00:00	2	Temperatura media	20.9
65994	7	Sololá	701	Sololá	1	Sololá	12	Diciembre	2023-12-21T00:00:00	2024-11-08T12:00:00	4	Temperatura máxima	21.2
65995	7	Sololá	701	Sololá	1	Sololá	12	Diciembre	2023-12-21T00:00:00	2024-11-08T12:00:00	3	Temperatura mínima	19.8
65996	7	Sololá	701	Sololá	1	Sololá	12	Diciembre	2023-12-21T00:00:00	2024-11-08T12:00:00	5	Humedad	42
65997	7	Sololá	701	Sololá	1	Sololá	12	Diciembre	2023-12-21T00:00:00	2024-11-08T12:00:00	6	Velocidad del viento	0
65998	7	Sololá	701	Sololá	1	Sololá	12	Diciembre	2023-12-21T00:00:00	2024-11-08T12:00:00	7	Dirección del viento	0
65999	7	Sololá	701	Sololá	1	Sololá	12	Diciembre	2023-12-21T00:00:00	2024-11-08T12:00:00	1	Precipitación	0
66000	7	Sololá	701	Sololá	1	Sololá	12	Diciembre	2023-12-21T00:00:00	2024-11-08T12:00:00	8	Radiación solar	875
66001	7	Sololá	701	Sololá	1	Sololá	12	Diciembre	2023-12-21T00:00:00	2024-11-08T13:00:00	2	Temperatura media	21.2
66002	7	Sololá	701	Sololá	1	Sololá	12	Diciembre	2023-12-21T00:00:00	2024-11-08T13:00:00	4	Temperatura máxima	21.2
66003	7	Sololá	701	Sololá	1	Sololá	12	Diciembre	2023-12-21T00:00:00	2024-11-08T13:00:00	3	Temperatura mínima	20.4
66004	7	Sololá	701	Sololá	1	Sololá	12	Diciembre	2023-12-21T00:00:00	2024-11-08T13:00:00	5	Humedad	46
66005	7	Sololá	701	Sololá	1	Sololá	12	Diciembre	2023-12-21T00:00:00	2024-11-08T13:00:00	6	Velocidad del viento	0
66006	7	Sololá	701	Sololá	1	Sololá	12	Diciembre	2023-12-21T00:00:00	2024-11-08T13:00:00	7	Dirección del viento	0
66007	7	Sololá	701	Sololá	1	Sololá	12	Diciembre	2023-12-21T00:00:00	2024-11-08T13:00:00	1	Precipitación	0
66008	7	Sololá	701	Sololá	1	Sololá	12	Diciembre	2023-12-21T00:00:00	2024-11-08T13:00:00	8	Radiación solar	864
66009	7	Sololá	701	Sololá	1	Sololá	12	Diciembre	2023-12-21T00:00:00	2024-11-08T14:00:00	2	Temperatura media	21.6
66010	7	Sololá	701	Sololá	1	Sololá	12	Diciembre	2023-12-21T00:00:00	2024-11-08T14:00:00	4	Temperatura máxima	21.6
66011	7	Sololá	701	Sololá	1	Sololá	12	Diciembre	2023-12-21T00:00:00	2024-11-08T14:00:00	3	Temperatura mínima	21.2
66012	7	Sololá	701	Sololá	1	Sololá	12	Diciembre	2023-12-21T00:00:00	2024-11-08T14:00:00	5	Humedad	47
66013	7	Sololá	701	Sololá	1	Sololá	12	Diciembre	2023-12-21T00:00:00	2024-11-08T14:00:00	6	Velocidad del viento	0
66014	7	Sololá	701	Sololá	1	Sololá	12	Diciembre	2023-12-21T00:00:00	2024-11-08T14:00:00	7	Dirección del viento	0
66015	7	Sololá	701	Sololá	1	Sololá	12	Diciembre	2023-12-21T00:00:00	2024-11-08T14:00:00	1	Precipitación	0
66016	7	Sololá	701	Sololá	1	Sololá	12	Diciembre	2023-12-21T00:00:00	2024-11-08T14:00:00	8	Radiación solar	753
66017	7	Sololá	701	Sololá	1	Sololá	12	Diciembre	2023-12-21T00:00:00	2024-11-08T15:00:00	2	Temperatura media	21.1
66018	7	Sololá	701	Sololá	1	Sololá	12	Diciembre	2023-12-21T00:00:00	2024-11-08T15:00:00	4	Temperatura máxima	21.6
66019	7	Sololá	701	Sololá	1	Sololá	12	Diciembre	2023-12-21T00:00:00	2024-11-08T15:00:00	3	Temperatura mínima	20.7
66020	7	Sololá	701	Sololá	1	Sololá	12	Diciembre	2023-12-21T00:00:00	2024-11-08T15:00:00	5	Humedad	47
66021	7	Sololá	701	Sololá	1	Sololá	12	Diciembre	2023-12-21T00:00:00	2024-11-08T15:00:00	6	Velocidad del viento	0
66022	7	Sololá	701	Sololá	1	Sololá	12	Diciembre	2023-12-21T00:00:00	2024-11-08T15:00:00	7	Dirección del viento	0
66023	7	Sololá	701	Sololá	1	Sololá	12	Diciembre	2023-12-21T00:00:00	2024-11-08T15:00:00	1	Precipitación	0
66024	7	Sololá	701	Sololá	1	Sololá	12	Diciembre	2023-12-21T00:00:00	2024-11-08T15:00:00	8	Radiación solar	431
66025	7	Sololá	701	Sololá	1	Sololá	12	Diciembre	2023-12-21T00:00:00	2024-11-08T16:00:00	2	Temperatura media	19.7
66026	7	Sololá	701	Sololá	1	Sololá	12	Diciembre	2023-12-21T00:00:00	2024-11-08T16:00:00	4	Temperatura máxima	21.1
66027	7	Sololá	701	Sololá	1	Sololá	12	Diciembre	2023-12-21T00:00:00	2024-11-08T16:00:00	3	Temperatura mínima	19.4
66028	7	Sololá	701	Sololá	1	Sololá	12	Diciembre	2023-12-21T00:00:00	2024-11-08T16:00:00	5	Humedad	54
66029	7	Sololá	701	Sololá	1	Sololá	12	Diciembre	2023-12-21T00:00:00	2024-11-08T16:00:00	6	Velocidad del viento	0
66030	7	Sololá	701	Sololá	1	Sololá	12	Diciembre	2023-12-21T00:00:00	2024-11-08T16:00:00	7	Dirección del viento	0
66031	7	Sololá	701	Sololá	1	Sololá	12	Diciembre	2023-12-21T00:00:00	2024-11-08T16:00:00	1	Precipitación	0
66032	7	Sololá	701	Sololá	1	Sololá	12	Diciembre	2023-12-21T00:00:00	2024-11-08T16:00:00	8	Radiación solar	65
66033	7	Sololá	701	Sololá	1	Sololá	12	Diciembre	2023-12-21T00:00:00	2024-11-08T17:00:00	2	Temperatura media	16.9
66034	7	Sololá	701	Sololá	1	Sololá	12	Diciembre	2023-12-21T00:00:00	2024-11-08T17:00:00	4	Temperatura máxima	19.7
66035	7	Sololá	701	Sololá	1	Sololá	12	Diciembre	2023-12-21T00:00:00	2024-11-08T17:00:00	3	Temperatura mínima	16.9
66036	7	Sololá	701	Sololá	1	Sololá	12	Diciembre	2023-12-21T00:00:00	2024-11-08T17:00:00	5	Humedad	59
66037	7	Sololá	701	Sololá	1	Sololá	12	Diciembre	2023-12-21T00:00:00	2024-11-08T17:00:00	6	Velocidad del viento	0
66038	7	Sololá	701	Sololá	1	Sololá	12	Diciembre	2023-12-21T00:00:00	2024-11-08T17:00:00	7	Dirección del viento	0
66039	7	Sololá	701	Sololá	1	Sololá	12	Diciembre	2023-12-21T00:00:00	2024-11-08T17:00:00	1	Precipitación	0
66040	7	Sololá	701	Sololá	1	Sololá	12	Diciembre	2023-12-21T00:00:00	2024-11-08T17:00:00	8	Radiación solar	60
66041	7	Sololá	701	Sololá	1	Sololá	12	Diciembre	2023-12-21T00:00:00	2024-11-08T18:00:00	2	Temperatura media	12.7
66042	7	Sololá	701	Sololá	1	Sololá	12	Diciembre	2023-12-21T00:00:00	2024-11-08T18:00:00	4	Temperatura máxima	16.8
66043	7	Sololá	701	Sololá	1	Sololá	12	Diciembre	2023-12-21T00:00:00	2024-11-08T18:00:00	3	Temperatura mínima	12.7
66044	7	Sololá	701	Sololá	1	Sololá	12	Diciembre	2023-12-21T00:00:00	2024-11-08T18:00:00	5	Humedad	69
66045	7	Sololá	701	Sololá	1	Sololá	12	Diciembre	2023-12-21T00:00:00	2024-11-08T18:00:00	6	Velocidad del viento	1.6
66046	7	Sololá	701	Sololá	1	Sololá	12	Diciembre	2023-12-21T00:00:00	2024-11-08T18:00:00	7	Dirección del viento	1.61
66047	7	Sololá	701	Sololá	1	Sololá	12	Diciembre	2023-12-21T00:00:00	2024-11-08T18:00:00	1	Precipitación	0
66048	7	Sololá	701	Sololá	1	Sololá	12	Diciembre	2023-12-21T00:00:00	2024-11-08T18:00:00	8	Radiación solar	11
66049	7	Sololá	701	Sololá	1	Sololá	12	Diciembre	2023-12-21T00:00:00	2024-11-08T19:00:00	2	Temperatura media	11.6
66050	7	Sololá	701	Sololá	1	Sololá	12	Diciembre	2023-12-21T00:00:00	2024-11-08T19:00:00	4	Temperatura máxima	12.7
66051	7	Sololá	701	Sololá	1	Sololá	12	Diciembre	2023-12-21T00:00:00	2024-11-08T19:00:00	3	Temperatura mínima	11.6
66052	7	Sololá	701	Sololá	1	Sololá	12	Diciembre	2023-12-21T00:00:00	2024-11-08T19:00:00	5	Humedad	73
66053	7	Sololá	701	Sololá	1	Sololá	12	Diciembre	2023-12-21T00:00:00	2024-11-08T19:00:00	6	Velocidad del viento	3.2
66054	7	Sololá	701	Sololá	1	Sololá	12	Diciembre	2023-12-21T00:00:00	2024-11-08T19:00:00	7	Dirección del viento	3.22
66055	7	Sololá	701	Sololá	1	Sololá	12	Diciembre	2023-12-21T00:00:00	2024-11-08T19:00:00	1	Precipitación	0
66056	7	Sololá	701	Sololá	1	Sololá	12	Diciembre	2023-12-21T00:00:00	2024-11-08T19:00:00	8	Radiación solar	0
66057	7	Sololá	701	Sololá	1	Sololá	12	Diciembre	2023-12-21T00:00:00	2024-11-08T20:00:00	2	Temperatura media	11.3
66058	7	Sololá	701	Sololá	1	Sololá	12	Diciembre	2023-12-21T00:00:00	2024-11-08T20:00:00	4	Temperatura máxima	11.7
66059	7	Sololá	701	Sololá	1	Sololá	12	Diciembre	2023-12-21T00:00:00	2024-11-08T20:00:00	3	Temperatura mínima	11.3
66060	7	Sololá	701	Sololá	1	Sololá	12	Diciembre	2023-12-21T00:00:00	2024-11-08T20:00:00	5	Humedad	73
66061	7	Sololá	701	Sololá	1	Sololá	12	Diciembre	2023-12-21T00:00:00	2024-11-08T20:00:00	6	Velocidad del viento	3.2
66062	7	Sololá	701	Sololá	1	Sololá	12	Diciembre	2023-12-21T00:00:00	2024-11-08T20:00:00	7	Dirección del viento	3.22
66063	7	Sololá	701	Sololá	1	Sololá	12	Diciembre	2023-12-21T00:00:00	2024-11-08T20:00:00	1	Precipitación	0
66064	7	Sololá	701	Sololá	1	Sololá	12	Diciembre	2023-12-21T00:00:00	2024-11-08T20:00:00	8	Radiación solar	0
66065	7	Sololá	701	Sololá	1	Sololá	12	Diciembre	2023-12-21T00:00:00	2024-11-08T21:00:00	2	Temperatura media	11.4
66066	7	Sololá	701	Sololá	1	Sololá	12	Diciembre	2023-12-21T00:00:00	2024-11-08T21:00:00	4	Temperatura máxima	11.4
66067	7	Sololá	701	Sololá	1	Sololá	12	Diciembre	2023-12-21T00:00:00	2024-11-08T21:00:00	3	Temperatura mínima	11.3
66068	7	Sololá	701	Sololá	1	Sololá	12	Diciembre	2023-12-21T00:00:00	2024-11-08T21:00:00	5	Humedad	74
66069	7	Sololá	701	Sololá	1	Sololá	12	Diciembre	2023-12-21T00:00:00	2024-11-08T21:00:00	6	Velocidad del viento	1.6
66070	7	Sololá	701	Sololá	1	Sololá	12	Diciembre	2023-12-21T00:00:00	2024-11-08T21:00:00	7	Dirección del viento	1.61
66071	7	Sololá	701	Sololá	1	Sololá	12	Diciembre	2023-12-21T00:00:00	2024-11-08T21:00:00	1	Precipitación	0
66072	7	Sololá	701	Sololá	1	Sololá	12	Diciembre	2023-12-21T00:00:00	2024-11-08T21:00:00	8	Radiación solar	0
66073	7	Sololá	701	Sololá	1	Sololá	12	Diciembre	2023-12-21T00:00:00	2024-11-08T22:00:00	2	Temperatura media	11.4
66074	7	Sololá	701	Sololá	1	Sololá	12	Diciembre	2023-12-21T00:00:00	2024-11-08T22:00:00	4	Temperatura máxima	11.5
66075	7	Sololá	701	Sololá	1	Sololá	12	Diciembre	2023-12-21T00:00:00	2024-11-08T22:00:00	3	Temperatura mínima	11.3
66076	7	Sololá	701	Sololá	1	Sololá	12	Diciembre	2023-12-21T00:00:00	2024-11-08T22:00:00	5	Humedad	75
66077	7	Sololá	701	Sololá	1	Sololá	12	Diciembre	2023-12-21T00:00:00	2024-11-08T22:00:00	6	Velocidad del viento	1.6
66078	7	Sololá	701	Sololá	1	Sololá	12	Diciembre	2023-12-21T00:00:00	2024-11-08T22:00:00	7	Dirección del viento	1.61
66079	7	Sololá	701	Sololá	1	Sololá	12	Diciembre	2023-12-21T00:00:00	2024-11-08T22:00:00	1	Precipitación	0
66080	7	Sololá	701	Sololá	1	Sololá	12	Diciembre	2023-12-21T00:00:00	2024-11-08T22:00:00	8	Radiación solar	0
66081	7	Sololá	701	Sololá	1	Sololá	12	Diciembre	2023-12-21T00:00:00	2024-11-08T23:00:00	2	Temperatura media	11.3
66082	7	Sololá	701	Sololá	1	Sololá	12	Diciembre	2023-12-21T00:00:00	2024-11-08T23:00:00	4	Temperatura máxima	11.5
66083	7	Sololá	701	Sololá	1	Sololá	12	Diciembre	2023-12-21T00:00:00	2024-11-08T23:00:00	3	Temperatura mínima	11.3
66084	7	Sololá	701	Sololá	1	Sololá	12	Diciembre	2023-12-21T00:00:00	2024-11-08T23:00:00	5	Humedad	76
66085	7	Sololá	701	Sololá	1	Sololá	12	Diciembre	2023-12-21T00:00:00	2024-11-08T23:00:00	6	Velocidad del viento	1.6
66086	7	Sololá	701	Sololá	1	Sololá	12	Diciembre	2023-12-21T00:00:00	2024-11-08T23:00:00	7	Dirección del viento	1.61
66087	7	Sololá	701	Sololá	1	Sololá	12	Diciembre	2023-12-21T00:00:00	2024-11-08T23:00:00	1	Precipitación	0
66088	7	Sololá	701	Sololá	1	Sololá	12	Diciembre	2023-12-21T00:00:00	2024-11-08T23:00:00	8	Radiación solar	0
66089	7	Sololá	701	Sololá	1	Sololá	12	Diciembre	2023-12-22T00:00:00	2024-11-08T00:00:00	2	Temperatura media	11.2
66090	7	Sololá	701	Sololá	1	Sololá	12	Diciembre	2023-12-22T00:00:00	2024-11-08T00:00:00	4	Temperatura máxima	11.3
66091	7	Sololá	701	Sololá	1	Sololá	12	Diciembre	2023-12-22T00:00:00	2024-11-08T00:00:00	3	Temperatura mínima	11.2
66092	7	Sololá	701	Sololá	1	Sololá	12	Diciembre	2023-12-22T00:00:00	2024-11-08T00:00:00	5	Humedad	77
66093	7	Sololá	701	Sololá	1	Sololá	12	Diciembre	2023-12-22T00:00:00	2024-11-08T00:00:00	6	Velocidad del viento	1.6
66094	7	Sololá	701	Sololá	1	Sololá	12	Diciembre	2023-12-22T00:00:00	2024-11-08T00:00:00	7	Dirección del viento	1.61
66095	7	Sololá	701	Sololá	1	Sololá	12	Diciembre	2023-12-22T00:00:00	2024-11-08T00:00:00	1	Precipitación	0
66096	7	Sololá	701	Sololá	1	Sololá	12	Diciembre	2023-12-22T00:00:00	2024-11-08T00:00:00	8	Radiación solar	0
66097	7	Sololá	701	Sololá	1	Sololá	12	Diciembre	2023-12-22T00:00:00	2024-11-08T01:00:00	2	Temperatura media	10.7
66098	7	Sololá	701	Sololá	1	Sololá	12	Diciembre	2023-12-22T00:00:00	2024-11-08T01:00:00	4	Temperatura máxima	11.2
66099	7	Sololá	701	Sololá	1	Sololá	12	Diciembre	2023-12-22T00:00:00	2024-11-08T01:00:00	3	Temperatura mínima	10.7
66100	7	Sololá	701	Sololá	1	Sololá	12	Diciembre	2023-12-22T00:00:00	2024-11-08T01:00:00	5	Humedad	77
66101	7	Sololá	701	Sololá	1	Sololá	12	Diciembre	2023-12-22T00:00:00	2024-11-08T01:00:00	6	Velocidad del viento	1.6
66102	7	Sololá	701	Sololá	1	Sololá	12	Diciembre	2023-12-22T00:00:00	2024-11-08T01:00:00	7	Dirección del viento	1.61
66103	7	Sololá	701	Sololá	1	Sololá	12	Diciembre	2023-12-22T00:00:00	2024-11-08T01:00:00	1	Precipitación	0
66104	7	Sololá	701	Sololá	1	Sololá	12	Diciembre	2023-12-22T00:00:00	2024-11-08T01:00:00	8	Radiación solar	0
66105	7	Sololá	701	Sololá	1	Sololá	12	Diciembre	2023-12-22T00:00:00	2024-11-08T02:00:00	2	Temperatura media	10.2
66106	7	Sololá	701	Sololá	1	Sololá	12	Diciembre	2023-12-22T00:00:00	2024-11-08T02:00:00	4	Temperatura máxima	10.7
66107	7	Sololá	701	Sololá	1	Sololá	12	Diciembre	2023-12-22T00:00:00	2024-11-08T02:00:00	3	Temperatura mínima	10.2
66108	7	Sololá	701	Sololá	1	Sololá	12	Diciembre	2023-12-22T00:00:00	2024-11-08T02:00:00	5	Humedad	79
66109	7	Sololá	701	Sololá	1	Sololá	12	Diciembre	2023-12-22T00:00:00	2024-11-08T02:00:00	6	Velocidad del viento	0
66110	7	Sololá	701	Sololá	1	Sololá	12	Diciembre	2023-12-22T00:00:00	2024-11-08T02:00:00	7	Dirección del viento	0
66111	7	Sololá	701	Sololá	1	Sololá	12	Diciembre	2023-12-22T00:00:00	2024-11-08T02:00:00	1	Precipitación	0
66112	7	Sololá	701	Sololá	1	Sololá	12	Diciembre	2023-12-22T00:00:00	2024-11-08T02:00:00	8	Radiación solar	0
66113	7	Sololá	701	Sololá	1	Sololá	12	Diciembre	2023-12-22T00:00:00	2024-11-08T03:00:00	2	Temperatura media	10
66114	7	Sololá	701	Sololá	1	Sololá	12	Diciembre	2023-12-22T00:00:00	2024-11-08T03:00:00	4	Temperatura máxima	10.2
66115	7	Sololá	701	Sololá	1	Sololá	12	Diciembre	2023-12-22T00:00:00	2024-11-08T03:00:00	3	Temperatura mínima	10
66116	7	Sololá	701	Sololá	1	Sololá	12	Diciembre	2023-12-22T00:00:00	2024-11-08T03:00:00	5	Humedad	81
66117	7	Sololá	701	Sololá	1	Sololá	12	Diciembre	2023-12-22T00:00:00	2024-11-08T03:00:00	6	Velocidad del viento	0
66118	7	Sololá	701	Sololá	1	Sololá	12	Diciembre	2023-12-22T00:00:00	2024-11-08T03:00:00	7	Dirección del viento	0
66119	7	Sololá	701	Sololá	1	Sololá	12	Diciembre	2023-12-22T00:00:00	2024-11-08T03:00:00	1	Precipitación	0
66120	7	Sololá	701	Sololá	1	Sololá	12	Diciembre	2023-12-22T00:00:00	2024-11-08T03:00:00	8	Radiación solar	0
66121	7	Sololá	701	Sololá	1	Sololá	12	Diciembre	2023-12-22T00:00:00	2024-11-08T04:00:00	2	Temperatura media	9.8
66122	7	Sololá	701	Sololá	1	Sololá	12	Diciembre	2023-12-22T00:00:00	2024-11-08T04:00:00	4	Temperatura máxima	10
66123	7	Sololá	701	Sololá	1	Sololá	12	Diciembre	2023-12-22T00:00:00	2024-11-08T04:00:00	3	Temperatura mínima	9.8
66124	7	Sololá	701	Sololá	1	Sololá	12	Diciembre	2023-12-22T00:00:00	2024-11-08T04:00:00	5	Humedad	80
66125	7	Sololá	701	Sololá	1	Sololá	12	Diciembre	2023-12-22T00:00:00	2024-11-08T04:00:00	6	Velocidad del viento	0
66126	7	Sololá	701	Sololá	1	Sololá	12	Diciembre	2023-12-22T00:00:00	2024-11-08T04:00:00	7	Dirección del viento	0
66127	7	Sololá	701	Sololá	1	Sololá	12	Diciembre	2023-12-22T00:00:00	2024-11-08T04:00:00	1	Precipitación	0
66128	7	Sololá	701	Sololá	1	Sololá	12	Diciembre	2023-12-22T00:00:00	2024-11-08T04:00:00	8	Radiación solar	0
66129	7	Sololá	701	Sololá	1	Sololá	12	Diciembre	2023-12-22T00:00:00	2024-11-08T05:00:00	2	Temperatura media	9.8
66130	7	Sololá	701	Sololá	1	Sololá	12	Diciembre	2023-12-22T00:00:00	2024-11-08T05:00:00	4	Temperatura máxima	9.9
66131	7	Sololá	701	Sololá	1	Sololá	12	Diciembre	2023-12-22T00:00:00	2024-11-08T05:00:00	3	Temperatura mínima	9.8
66132	7	Sololá	701	Sololá	1	Sololá	12	Diciembre	2023-12-22T00:00:00	2024-11-08T05:00:00	5	Humedad	78
66133	7	Sololá	701	Sololá	1	Sololá	12	Diciembre	2023-12-22T00:00:00	2024-11-08T05:00:00	6	Velocidad del viento	0
66134	7	Sololá	701	Sololá	1	Sololá	12	Diciembre	2023-12-22T00:00:00	2024-11-08T05:00:00	7	Dirección del viento	0
66135	7	Sololá	701	Sololá	1	Sololá	12	Diciembre	2023-12-22T00:00:00	2024-11-08T05:00:00	1	Precipitación	0
66136	7	Sololá	701	Sololá	1	Sololá	12	Diciembre	2023-12-22T00:00:00	2024-11-08T05:00:00	8	Radiación solar	0
66137	7	Sololá	701	Sololá	1	Sololá	12	Diciembre	2023-12-22T00:00:00	2024-11-08T06:00:00	2	Temperatura media	9.8
66138	7	Sololá	701	Sololá	1	Sololá	12	Diciembre	2023-12-22T00:00:00	2024-11-08T06:00:00	4	Temperatura máxima	9.8
66139	7	Sololá	701	Sololá	1	Sololá	12	Diciembre	2023-12-22T00:00:00	2024-11-08T06:00:00	3	Temperatura mínima	9.7
66140	7	Sololá	701	Sololá	1	Sololá	12	Diciembre	2023-12-22T00:00:00	2024-11-08T06:00:00	5	Humedad	76
66141	7	Sololá	701	Sololá	1	Sololá	12	Diciembre	2023-12-22T00:00:00	2024-11-08T06:00:00	6	Velocidad del viento	0
66142	7	Sololá	701	Sololá	1	Sololá	12	Diciembre	2023-12-22T00:00:00	2024-11-08T06:00:00	7	Dirección del viento	0
66143	7	Sololá	701	Sololá	1	Sololá	12	Diciembre	2023-12-22T00:00:00	2024-11-08T06:00:00	1	Precipitación	0
66144	7	Sololá	701	Sololá	1	Sololá	12	Diciembre	2023-12-22T00:00:00	2024-11-08T06:00:00	8	Radiación solar	0
66145	7	Sololá	701	Sololá	1	Sololá	12	Diciembre	2023-12-22T00:00:00	2024-11-08T07:00:00	2	Temperatura media	10
66146	7	Sololá	701	Sololá	1	Sololá	12	Diciembre	2023-12-22T00:00:00	2024-11-08T07:00:00	4	Temperatura máxima	10
66147	7	Sololá	701	Sololá	1	Sololá	12	Diciembre	2023-12-22T00:00:00	2024-11-08T07:00:00	3	Temperatura mínima	9.6
66148	7	Sololá	701	Sololá	1	Sololá	12	Diciembre	2023-12-22T00:00:00	2024-11-08T07:00:00	5	Humedad	76
66149	7	Sololá	701	Sololá	1	Sololá	12	Diciembre	2023-12-22T00:00:00	2024-11-08T07:00:00	6	Velocidad del viento	0
66150	7	Sololá	701	Sololá	1	Sololá	12	Diciembre	2023-12-22T00:00:00	2024-11-08T07:00:00	7	Dirección del viento	0
66151	7	Sololá	701	Sololá	1	Sololá	12	Diciembre	2023-12-22T00:00:00	2024-11-08T07:00:00	1	Precipitación	0
66152	7	Sololá	701	Sololá	1	Sololá	12	Diciembre	2023-12-22T00:00:00	2024-11-08T07:00:00	8	Radiación solar	5
66153	7	Sololá	701	Sololá	1	Sololá	12	Diciembre	2023-12-22T00:00:00	2024-11-08T08:00:00	2	Temperatura media	13.1
66154	7	Sololá	701	Sololá	1	Sololá	12	Diciembre	2023-12-22T00:00:00	2024-11-08T08:00:00	4	Temperatura máxima	13.1
66155	7	Sololá	701	Sololá	1	Sololá	12	Diciembre	2023-12-22T00:00:00	2024-11-08T08:00:00	3	Temperatura mínima	10
66156	7	Sololá	701	Sololá	1	Sololá	12	Diciembre	2023-12-22T00:00:00	2024-11-08T08:00:00	5	Humedad	70
66157	7	Sololá	701	Sololá	1	Sololá	12	Diciembre	2023-12-22T00:00:00	2024-11-08T08:00:00	6	Velocidad del viento	0
66158	7	Sololá	701	Sololá	1	Sololá	12	Diciembre	2023-12-22T00:00:00	2024-11-08T08:00:00	7	Dirección del viento	0
66159	7	Sololá	701	Sololá	1	Sololá	12	Diciembre	2023-12-22T00:00:00	2024-11-08T08:00:00	1	Precipitación	0
66160	7	Sololá	701	Sololá	1	Sololá	12	Diciembre	2023-12-22T00:00:00	2024-11-08T08:00:00	8	Radiación solar	75
66161	7	Sololá	701	Sololá	1	Sololá	12	Diciembre	2023-12-22T00:00:00	2024-11-08T09:00:00	2	Temperatura media	18.7
66162	7	Sololá	701	Sololá	1	Sololá	12	Diciembre	2023-12-22T00:00:00	2024-11-08T09:00:00	4	Temperatura máxima	18.7
66163	7	Sololá	701	Sololá	1	Sololá	12	Diciembre	2023-12-22T00:00:00	2024-11-08T09:00:00	3	Temperatura mínima	13.1
66164	7	Sololá	701	Sololá	1	Sololá	12	Diciembre	2023-12-22T00:00:00	2024-11-08T09:00:00	5	Humedad	58
66165	7	Sololá	701	Sololá	1	Sololá	12	Diciembre	2023-12-22T00:00:00	2024-11-08T09:00:00	6	Velocidad del viento	0
66166	7	Sololá	701	Sololá	1	Sololá	12	Diciembre	2023-12-22T00:00:00	2024-11-08T09:00:00	7	Dirección del viento	0
66167	7	Sololá	701	Sololá	1	Sololá	12	Diciembre	2023-12-22T00:00:00	2024-11-08T09:00:00	1	Precipitación	0
66168	7	Sololá	701	Sololá	1	Sololá	12	Diciembre	2023-12-22T00:00:00	2024-11-08T09:00:00	8	Radiación solar	490
66169	7	Sololá	701	Sololá	1	Sololá	12	Diciembre	2023-12-22T00:00:00	2024-11-08T10:00:00	2	Temperatura media	21.3
66170	7	Sololá	701	Sololá	1	Sololá	12	Diciembre	2023-12-22T00:00:00	2024-11-08T10:00:00	4	Temperatura máxima	21.3
66171	7	Sololá	701	Sololá	1	Sololá	12	Diciembre	2023-12-22T00:00:00	2024-11-08T10:00:00	3	Temperatura mínima	18.7
66172	7	Sololá	701	Sololá	1	Sololá	12	Diciembre	2023-12-22T00:00:00	2024-11-08T10:00:00	5	Humedad	51
66173	7	Sololá	701	Sololá	1	Sololá	12	Diciembre	2023-12-22T00:00:00	2024-11-08T10:00:00	6	Velocidad del viento	0
66174	7	Sololá	701	Sololá	1	Sololá	12	Diciembre	2023-12-22T00:00:00	2024-11-08T10:00:00	7	Dirección del viento	0
66175	7	Sololá	701	Sololá	1	Sololá	12	Diciembre	2023-12-22T00:00:00	2024-11-08T10:00:00	1	Precipitación	0
66176	7	Sololá	701	Sololá	1	Sololá	12	Diciembre	2023-12-22T00:00:00	2024-11-08T10:00:00	8	Radiación solar	663
66177	7	Sololá	701	Sololá	1	Sololá	12	Diciembre	2023-12-22T00:00:00	2024-11-08T11:00:00	2	Temperatura media	22.2
66178	7	Sololá	701	Sololá	1	Sololá	12	Diciembre	2023-12-22T00:00:00	2024-11-08T11:00:00	4	Temperatura máxima	22.2
66179	7	Sololá	701	Sololá	1	Sololá	12	Diciembre	2023-12-22T00:00:00	2024-11-08T11:00:00	3	Temperatura mínima	21.3
66180	7	Sololá	701	Sololá	1	Sololá	12	Diciembre	2023-12-22T00:00:00	2024-11-08T11:00:00	5	Humedad	49
66181	7	Sololá	701	Sololá	1	Sololá	12	Diciembre	2023-12-22T00:00:00	2024-11-08T11:00:00	6	Velocidad del viento	0
66182	7	Sololá	701	Sololá	1	Sololá	12	Diciembre	2023-12-22T00:00:00	2024-11-08T11:00:00	7	Dirección del viento	0
66183	7	Sololá	701	Sololá	1	Sololá	12	Diciembre	2023-12-22T00:00:00	2024-11-08T11:00:00	1	Precipitación	0
66184	7	Sololá	701	Sololá	1	Sololá	12	Diciembre	2023-12-22T00:00:00	2024-11-08T11:00:00	8	Radiación solar	788
66185	7	Sololá	701	Sololá	1	Sololá	12	Diciembre	2023-12-22T00:00:00	2024-11-08T12:00:00	2	Temperatura media	22.8
66186	7	Sololá	701	Sololá	1	Sololá	12	Diciembre	2023-12-22T00:00:00	2024-11-08T12:00:00	4	Temperatura máxima	23.2
66187	7	Sololá	701	Sololá	1	Sololá	12	Diciembre	2023-12-22T00:00:00	2024-11-08T12:00:00	3	Temperatura mínima	22.1
66188	7	Sololá	701	Sololá	1	Sololá	12	Diciembre	2023-12-22T00:00:00	2024-11-08T12:00:00	5	Humedad	46
66189	7	Sololá	701	Sololá	1	Sololá	12	Diciembre	2023-12-22T00:00:00	2024-11-08T12:00:00	6	Velocidad del viento	0
66190	7	Sololá	701	Sololá	1	Sololá	12	Diciembre	2023-12-22T00:00:00	2024-11-08T12:00:00	7	Dirección del viento	0
66191	7	Sololá	701	Sololá	1	Sololá	12	Diciembre	2023-12-22T00:00:00	2024-11-08T12:00:00	1	Precipitación	0
66192	7	Sololá	701	Sololá	1	Sololá	12	Diciembre	2023-12-22T00:00:00	2024-11-08T12:00:00	8	Radiación solar	854
66193	7	Sololá	701	Sololá	1	Sololá	12	Diciembre	2023-12-22T00:00:00	2024-11-08T13:00:00	2	Temperatura media	22.8
66194	7	Sololá	701	Sololá	1	Sololá	12	Diciembre	2023-12-22T00:00:00	2024-11-08T13:00:00	4	Temperatura máxima	23.2
66195	7	Sololá	701	Sololá	1	Sololá	12	Diciembre	2023-12-22T00:00:00	2024-11-08T13:00:00	3	Temperatura mínima	22.8
66196	7	Sololá	701	Sololá	1	Sololá	12	Diciembre	2023-12-22T00:00:00	2024-11-08T13:00:00	5	Humedad	48
66197	7	Sololá	701	Sololá	1	Sololá	12	Diciembre	2023-12-22T00:00:00	2024-11-08T13:00:00	6	Velocidad del viento	0
66198	7	Sololá	701	Sololá	1	Sololá	12	Diciembre	2023-12-22T00:00:00	2024-11-08T13:00:00	7	Dirección del viento	0
66199	7	Sololá	701	Sololá	1	Sololá	12	Diciembre	2023-12-22T00:00:00	2024-11-08T13:00:00	1	Precipitación	0
66200	7	Sololá	701	Sololá	1	Sololá	12	Diciembre	2023-12-22T00:00:00	2024-11-08T13:00:00	8	Radiación solar	761
66201	7	Sololá	701	Sololá	1	Sololá	12	Diciembre	2023-12-22T00:00:00	2024-11-08T14:00:00	2	Temperatura media	23.8
66202	7	Sololá	701	Sololá	1	Sololá	12	Diciembre	2023-12-22T00:00:00	2024-11-08T14:00:00	4	Temperatura máxima	23.9
66203	7	Sololá	701	Sololá	1	Sololá	12	Diciembre	2023-12-22T00:00:00	2024-11-08T14:00:00	3	Temperatura mínima	22.8
66204	7	Sololá	701	Sololá	1	Sololá	12	Diciembre	2023-12-22T00:00:00	2024-11-08T14:00:00	5	Humedad	45
66205	7	Sololá	701	Sololá	1	Sololá	12	Diciembre	2023-12-22T00:00:00	2024-11-08T14:00:00	6	Velocidad del viento	0
66206	7	Sololá	701	Sololá	1	Sololá	12	Diciembre	2023-12-22T00:00:00	2024-11-08T14:00:00	7	Dirección del viento	0
66207	7	Sololá	701	Sololá	1	Sololá	12	Diciembre	2023-12-22T00:00:00	2024-11-08T14:00:00	1	Precipitación	0
66208	7	Sololá	701	Sololá	1	Sololá	12	Diciembre	2023-12-22T00:00:00	2024-11-08T14:00:00	8	Radiación solar	618
66209	7	Sololá	701	Sololá	1	Sololá	12	Diciembre	2023-12-22T00:00:00	2024-11-08T15:00:00	2	Temperatura media	22.8
66210	7	Sololá	701	Sololá	1	Sololá	12	Diciembre	2023-12-22T00:00:00	2024-11-08T15:00:00	4	Temperatura máxima	23.8
66211	7	Sololá	701	Sololá	1	Sololá	12	Diciembre	2023-12-22T00:00:00	2024-11-08T15:00:00	3	Temperatura mínima	22.8
66212	7	Sololá	701	Sololá	1	Sololá	12	Diciembre	2023-12-22T00:00:00	2024-11-08T15:00:00	5	Humedad	54
66213	7	Sololá	701	Sololá	1	Sololá	12	Diciembre	2023-12-22T00:00:00	2024-11-08T15:00:00	6	Velocidad del viento	0
66214	7	Sololá	701	Sololá	1	Sololá	12	Diciembre	2023-12-22T00:00:00	2024-11-08T15:00:00	7	Dirección del viento	0
66215	7	Sololá	701	Sololá	1	Sololá	12	Diciembre	2023-12-22T00:00:00	2024-11-08T15:00:00	1	Precipitación	0
66216	7	Sololá	701	Sololá	1	Sololá	12	Diciembre	2023-12-22T00:00:00	2024-11-08T15:00:00	8	Radiación solar	328
66217	7	Sololá	701	Sololá	1	Sololá	12	Diciembre	2023-12-22T00:00:00	2024-11-08T16:00:00	2	Temperatura media	22.2
66218	7	Sololá	701	Sololá	1	Sololá	12	Diciembre	2023-12-22T00:00:00	2024-11-08T16:00:00	4	Temperatura máxima	22.8
66219	7	Sololá	701	Sololá	1	Sololá	12	Diciembre	2023-12-22T00:00:00	2024-11-08T16:00:00	3	Temperatura mínima	22.2
66220	7	Sololá	701	Sololá	1	Sololá	12	Diciembre	2023-12-22T00:00:00	2024-11-08T16:00:00	5	Humedad	54
66221	7	Sololá	701	Sololá	1	Sololá	12	Diciembre	2023-12-22T00:00:00	2024-11-08T16:00:00	6	Velocidad del viento	0
66222	7	Sololá	701	Sololá	1	Sololá	12	Diciembre	2023-12-22T00:00:00	2024-11-08T16:00:00	7	Dirección del viento	0
66223	7	Sololá	701	Sololá	1	Sololá	12	Diciembre	2023-12-22T00:00:00	2024-11-08T16:00:00	1	Precipitación	0
66224	7	Sololá	701	Sololá	1	Sololá	12	Diciembre	2023-12-22T00:00:00	2024-11-08T16:00:00	8	Radiación solar	105
66225	7	Sololá	701	Sololá	1	Sololá	12	Diciembre	2023-12-22T00:00:00	2024-11-08T17:00:00	2	Temperatura media	19.8
66226	7	Sololá	701	Sololá	1	Sololá	12	Diciembre	2023-12-22T00:00:00	2024-11-08T17:00:00	4	Temperatura máxima	22.3
66227	7	Sololá	701	Sololá	1	Sololá	12	Diciembre	2023-12-22T00:00:00	2024-11-08T17:00:00	3	Temperatura mínima	19.8
66228	7	Sololá	701	Sololá	1	Sololá	12	Diciembre	2023-12-22T00:00:00	2024-11-08T17:00:00	5	Humedad	62
66229	7	Sololá	701	Sololá	1	Sololá	12	Diciembre	2023-12-22T00:00:00	2024-11-08T17:00:00	6	Velocidad del viento	0
66230	7	Sololá	701	Sololá	1	Sololá	12	Diciembre	2023-12-22T00:00:00	2024-11-08T17:00:00	7	Dirección del viento	0
66231	7	Sololá	701	Sololá	1	Sololá	12	Diciembre	2023-12-22T00:00:00	2024-11-08T17:00:00	1	Precipitación	0
66232	7	Sololá	701	Sololá	1	Sololá	12	Diciembre	2023-12-22T00:00:00	2024-11-08T17:00:00	8	Radiación solar	71
66233	7	Sololá	701	Sololá	1	Sololá	12	Diciembre	2023-12-22T00:00:00	2024-11-08T18:00:00	2	Temperatura media	16.1
66234	7	Sololá	701	Sololá	1	Sololá	12	Diciembre	2023-12-22T00:00:00	2024-11-08T18:00:00	4	Temperatura máxima	19.7
66235	7	Sololá	701	Sololá	1	Sololá	12	Diciembre	2023-12-22T00:00:00	2024-11-08T18:00:00	3	Temperatura mínima	16.1
66236	7	Sololá	701	Sololá	1	Sololá	12	Diciembre	2023-12-22T00:00:00	2024-11-08T18:00:00	5	Humedad	72
66237	7	Sololá	701	Sololá	1	Sololá	12	Diciembre	2023-12-22T00:00:00	2024-11-08T18:00:00	6	Velocidad del viento	0
66238	7	Sololá	701	Sololá	1	Sololá	12	Diciembre	2023-12-22T00:00:00	2024-11-08T18:00:00	7	Dirección del viento	0
66239	7	Sololá	701	Sololá	1	Sololá	12	Diciembre	2023-12-22T00:00:00	2024-11-08T18:00:00	1	Precipitación	0
66240	7	Sololá	701	Sololá	1	Sololá	12	Diciembre	2023-12-22T00:00:00	2024-11-08T18:00:00	8	Radiación solar	15
66241	7	Sololá	701	Sololá	1	Sololá	12	Diciembre	2023-12-22T00:00:00	2024-11-08T19:00:00	2	Temperatura media	14.7
66242	7	Sololá	701	Sololá	1	Sololá	12	Diciembre	2023-12-22T00:00:00	2024-11-08T19:00:00	4	Temperatura máxima	16.1
66243	7	Sololá	701	Sololá	1	Sololá	12	Diciembre	2023-12-22T00:00:00	2024-11-08T19:00:00	3	Temperatura mínima	14.7
66244	7	Sololá	701	Sololá	1	Sololá	12	Diciembre	2023-12-22T00:00:00	2024-11-08T19:00:00	5	Humedad	78
66245	7	Sololá	701	Sololá	1	Sololá	12	Diciembre	2023-12-22T00:00:00	2024-11-08T19:00:00	6	Velocidad del viento	0
66246	7	Sololá	701	Sololá	1	Sololá	12	Diciembre	2023-12-22T00:00:00	2024-11-08T19:00:00	7	Dirección del viento	0
66247	7	Sololá	701	Sololá	1	Sololá	12	Diciembre	2023-12-22T00:00:00	2024-11-08T19:00:00	1	Precipitación	0
66248	7	Sololá	701	Sololá	1	Sololá	12	Diciembre	2023-12-22T00:00:00	2024-11-08T19:00:00	8	Radiación solar	0
66249	7	Sololá	701	Sololá	1	Sololá	12	Diciembre	2023-12-22T00:00:00	2024-11-08T20:00:00	2	Temperatura media	14.1
66250	7	Sololá	701	Sololá	1	Sololá	12	Diciembre	2023-12-22T00:00:00	2024-11-08T20:00:00	4	Temperatura máxima	14.7
66251	7	Sololá	701	Sololá	1	Sololá	12	Diciembre	2023-12-22T00:00:00	2024-11-08T20:00:00	3	Temperatura mínima	14.1
66252	7	Sololá	701	Sololá	1	Sololá	12	Diciembre	2023-12-22T00:00:00	2024-11-08T20:00:00	5	Humedad	80
66253	7	Sololá	701	Sololá	1	Sololá	12	Diciembre	2023-12-22T00:00:00	2024-11-08T20:00:00	6	Velocidad del viento	0
66254	7	Sololá	701	Sololá	1	Sololá	12	Diciembre	2023-12-22T00:00:00	2024-11-08T20:00:00	7	Dirección del viento	0
66255	7	Sololá	701	Sololá	1	Sololá	12	Diciembre	2023-12-22T00:00:00	2024-11-08T20:00:00	1	Precipitación	0
66256	7	Sololá	701	Sololá	1	Sololá	12	Diciembre	2023-12-22T00:00:00	2024-11-08T20:00:00	8	Radiación solar	0
66257	7	Sololá	701	Sololá	1	Sololá	12	Diciembre	2023-12-22T00:00:00	2024-11-08T21:00:00	2	Temperatura media	13.7
66258	7	Sololá	701	Sololá	1	Sololá	12	Diciembre	2023-12-22T00:00:00	2024-11-08T21:00:00	4	Temperatura máxima	14.1
66259	7	Sololá	701	Sololá	1	Sololá	12	Diciembre	2023-12-22T00:00:00	2024-11-08T21:00:00	3	Temperatura mínima	13.6
66260	7	Sololá	701	Sololá	1	Sololá	12	Diciembre	2023-12-22T00:00:00	2024-11-08T21:00:00	5	Humedad	82
66261	7	Sololá	701	Sololá	1	Sololá	12	Diciembre	2023-12-22T00:00:00	2024-11-08T21:00:00	6	Velocidad del viento	0
66262	7	Sololá	701	Sololá	1	Sololá	12	Diciembre	2023-12-22T00:00:00	2024-11-08T21:00:00	7	Dirección del viento	0
66263	7	Sololá	701	Sololá	1	Sololá	12	Diciembre	2023-12-22T00:00:00	2024-11-08T21:00:00	1	Precipitación	0
66264	7	Sololá	701	Sololá	1	Sololá	12	Diciembre	2023-12-22T00:00:00	2024-11-08T21:00:00	8	Radiación solar	0
66265	7	Sololá	701	Sololá	1	Sololá	12	Diciembre	2023-12-22T00:00:00	2024-11-08T22:00:00	2	Temperatura media	13.5
66266	7	Sololá	701	Sololá	1	Sololá	12	Diciembre	2023-12-22T00:00:00	2024-11-08T22:00:00	4	Temperatura máxima	13.7
66267	7	Sololá	701	Sololá	1	Sololá	12	Diciembre	2023-12-22T00:00:00	2024-11-08T22:00:00	3	Temperatura mínima	13.4
66268	7	Sololá	701	Sololá	1	Sololá	12	Diciembre	2023-12-22T00:00:00	2024-11-08T22:00:00	5	Humedad	82
66269	7	Sololá	701	Sololá	1	Sololá	12	Diciembre	2023-12-22T00:00:00	2024-11-08T22:00:00	6	Velocidad del viento	0
66270	7	Sololá	701	Sololá	1	Sololá	12	Diciembre	2023-12-22T00:00:00	2024-11-08T22:00:00	7	Dirección del viento	0
66271	7	Sololá	701	Sololá	1	Sololá	12	Diciembre	2023-12-22T00:00:00	2024-11-08T22:00:00	1	Precipitación	0
66272	7	Sololá	701	Sololá	1	Sololá	12	Diciembre	2023-12-22T00:00:00	2024-11-08T22:00:00	8	Radiación solar	0
66273	7	Sololá	701	Sololá	1	Sololá	12	Diciembre	2023-12-22T00:00:00	2024-11-08T23:00:00	2	Temperatura media	14
66274	7	Sololá	701	Sololá	1	Sololá	12	Diciembre	2023-12-22T00:00:00	2024-11-08T23:00:00	4	Temperatura máxima	14
66275	7	Sololá	701	Sololá	1	Sololá	12	Diciembre	2023-12-22T00:00:00	2024-11-08T23:00:00	3	Temperatura mínima	13.5
66276	7	Sololá	701	Sololá	1	Sololá	12	Diciembre	2023-12-22T00:00:00	2024-11-08T23:00:00	5	Humedad	80
66277	7	Sololá	701	Sololá	1	Sololá	12	Diciembre	2023-12-22T00:00:00	2024-11-08T23:00:00	6	Velocidad del viento	0
66278	7	Sololá	701	Sololá	1	Sololá	12	Diciembre	2023-12-22T00:00:00	2024-11-08T23:00:00	7	Dirección del viento	0
66279	7	Sololá	701	Sololá	1	Sololá	12	Diciembre	2023-12-22T00:00:00	2024-11-08T23:00:00	1	Precipitación	0
66280	7	Sololá	701	Sololá	1	Sololá	12	Diciembre	2023-12-22T00:00:00	2024-11-08T23:00:00	8	Radiación solar	0
66281	7	Sololá	701	Sololá	1	Sololá	12	Diciembre	2023-12-23T00:00:00	2024-11-08T00:00:00	2	Temperatura media	14.1
66282	7	Sololá	701	Sololá	1	Sololá	12	Diciembre	2023-12-23T00:00:00	2024-11-08T00:00:00	4	Temperatura máxima	14.2
66283	7	Sololá	701	Sololá	1	Sololá	12	Diciembre	2023-12-23T00:00:00	2024-11-08T00:00:00	3	Temperatura mínima	13.9
66284	7	Sololá	701	Sololá	1	Sololá	12	Diciembre	2023-12-23T00:00:00	2024-11-08T00:00:00	5	Humedad	78
66285	7	Sololá	701	Sololá	1	Sololá	12	Diciembre	2023-12-23T00:00:00	2024-11-08T00:00:00	6	Velocidad del viento	0
66286	7	Sololá	701	Sololá	1	Sololá	12	Diciembre	2023-12-23T00:00:00	2024-11-08T00:00:00	7	Dirección del viento	0
66287	7	Sololá	701	Sololá	1	Sololá	12	Diciembre	2023-12-23T00:00:00	2024-11-08T00:00:00	1	Precipitación	0
66288	7	Sololá	701	Sololá	1	Sololá	12	Diciembre	2023-12-23T00:00:00	2024-11-08T00:00:00	8	Radiación solar	0
66289	7	Sololá	701	Sololá	1	Sololá	12	Diciembre	2023-12-23T00:00:00	2024-11-08T01:00:00	2	Temperatura media	13.6
66290	7	Sololá	701	Sololá	1	Sololá	12	Diciembre	2023-12-23T00:00:00	2024-11-08T01:00:00	4	Temperatura máxima	14.1
66291	7	Sololá	701	Sololá	1	Sololá	12	Diciembre	2023-12-23T00:00:00	2024-11-08T01:00:00	3	Temperatura mínima	13.6
66292	7	Sololá	701	Sololá	1	Sololá	12	Diciembre	2023-12-23T00:00:00	2024-11-08T01:00:00	5	Humedad	81
66293	7	Sololá	701	Sololá	1	Sololá	12	Diciembre	2023-12-23T00:00:00	2024-11-08T01:00:00	6	Velocidad del viento	0
66294	7	Sololá	701	Sololá	1	Sololá	12	Diciembre	2023-12-23T00:00:00	2024-11-08T01:00:00	7	Dirección del viento	0
66295	7	Sololá	701	Sololá	1	Sololá	12	Diciembre	2023-12-23T00:00:00	2024-11-08T01:00:00	1	Precipitación	0
66296	7	Sololá	701	Sololá	1	Sololá	12	Diciembre	2023-12-23T00:00:00	2024-11-08T01:00:00	8	Radiación solar	0
66297	7	Sololá	701	Sololá	1	Sololá	12	Diciembre	2023-12-23T00:00:00	2024-11-08T02:00:00	2	Temperatura media	12.9
66298	7	Sololá	701	Sololá	1	Sololá	12	Diciembre	2023-12-23T00:00:00	2024-11-08T02:00:00	4	Temperatura máxima	13.6
66299	7	Sololá	701	Sololá	1	Sololá	12	Diciembre	2023-12-23T00:00:00	2024-11-08T02:00:00	3	Temperatura mínima	12.8
66300	7	Sololá	701	Sololá	1	Sololá	12	Diciembre	2023-12-23T00:00:00	2024-11-08T02:00:00	5	Humedad	84
66301	7	Sololá	701	Sololá	1	Sololá	12	Diciembre	2023-12-23T00:00:00	2024-11-08T02:00:00	6	Velocidad del viento	0
66302	7	Sololá	701	Sololá	1	Sololá	12	Diciembre	2023-12-23T00:00:00	2024-11-08T02:00:00	7	Dirección del viento	0
66303	7	Sololá	701	Sololá	1	Sololá	12	Diciembre	2023-12-23T00:00:00	2024-11-08T02:00:00	1	Precipitación	0
66304	7	Sololá	701	Sololá	1	Sololá	12	Diciembre	2023-12-23T00:00:00	2024-11-08T02:00:00	8	Radiación solar	0
66305	7	Sololá	701	Sololá	1	Sololá	12	Diciembre	2023-12-23T00:00:00	2024-11-08T03:00:00	2	Temperatura media	12.6
66306	7	Sololá	701	Sololá	1	Sololá	12	Diciembre	2023-12-23T00:00:00	2024-11-08T03:00:00	4	Temperatura máxima	12.9
66307	7	Sololá	701	Sololá	1	Sololá	12	Diciembre	2023-12-23T00:00:00	2024-11-08T03:00:00	3	Temperatura mínima	12.6
66308	7	Sololá	701	Sololá	1	Sololá	12	Diciembre	2023-12-23T00:00:00	2024-11-08T03:00:00	5	Humedad	84
66309	7	Sololá	701	Sololá	1	Sololá	12	Diciembre	2023-12-23T00:00:00	2024-11-08T03:00:00	6	Velocidad del viento	0
66310	7	Sololá	701	Sololá	1	Sololá	12	Diciembre	2023-12-23T00:00:00	2024-11-08T03:00:00	7	Dirección del viento	0
66311	7	Sololá	701	Sololá	1	Sololá	12	Diciembre	2023-12-23T00:00:00	2024-11-08T03:00:00	1	Precipitación	0
66312	7	Sololá	701	Sololá	1	Sololá	12	Diciembre	2023-12-23T00:00:00	2024-11-08T03:00:00	8	Radiación solar	0
66313	7	Sololá	701	Sololá	1	Sololá	12	Diciembre	2023-12-23T00:00:00	2024-11-08T04:00:00	2	Temperatura media	11.8
66314	7	Sololá	701	Sololá	1	Sololá	12	Diciembre	2023-12-23T00:00:00	2024-11-08T04:00:00	4	Temperatura máxima	12.6
66315	7	Sololá	701	Sololá	1	Sololá	12	Diciembre	2023-12-23T00:00:00	2024-11-08T04:00:00	3	Temperatura mínima	11.8
66316	7	Sololá	701	Sololá	1	Sololá	12	Diciembre	2023-12-23T00:00:00	2024-11-08T04:00:00	5	Humedad	85
66317	7	Sololá	701	Sololá	1	Sololá	12	Diciembre	2023-12-23T00:00:00	2024-11-08T04:00:00	6	Velocidad del viento	0
66318	7	Sololá	701	Sololá	1	Sololá	12	Diciembre	2023-12-23T00:00:00	2024-11-08T04:00:00	7	Dirección del viento	0
66319	7	Sololá	701	Sololá	1	Sololá	12	Diciembre	2023-12-23T00:00:00	2024-11-08T04:00:00	1	Precipitación	0
66320	7	Sololá	701	Sololá	1	Sololá	12	Diciembre	2023-12-23T00:00:00	2024-11-08T04:00:00	8	Radiación solar	0
66321	7	Sololá	701	Sololá	1	Sololá	12	Diciembre	2023-12-23T00:00:00	2024-11-08T05:00:00	2	Temperatura media	12
66322	7	Sololá	701	Sololá	1	Sololá	12	Diciembre	2023-12-23T00:00:00	2024-11-08T05:00:00	4	Temperatura máxima	12
66323	7	Sololá	701	Sololá	1	Sololá	12	Diciembre	2023-12-23T00:00:00	2024-11-08T05:00:00	3	Temperatura mínima	11.6
66324	7	Sololá	701	Sololá	1	Sololá	12	Diciembre	2023-12-23T00:00:00	2024-11-08T05:00:00	5	Humedad	86
66325	7	Sololá	701	Sololá	1	Sololá	12	Diciembre	2023-12-23T00:00:00	2024-11-08T05:00:00	6	Velocidad del viento	0
66326	7	Sololá	701	Sololá	1	Sololá	12	Diciembre	2023-12-23T00:00:00	2024-11-08T05:00:00	7	Dirección del viento	0
66327	7	Sololá	701	Sololá	1	Sololá	12	Diciembre	2023-12-23T00:00:00	2024-11-08T05:00:00	1	Precipitación	0
66328	7	Sololá	701	Sololá	1	Sololá	12	Diciembre	2023-12-23T00:00:00	2024-11-08T05:00:00	8	Radiación solar	0
66329	7	Sololá	701	Sololá	1	Sololá	12	Diciembre	2023-12-23T00:00:00	2024-11-08T06:00:00	2	Temperatura media	11.8
66330	7	Sololá	701	Sololá	1	Sololá	12	Diciembre	2023-12-23T00:00:00	2024-11-08T06:00:00	4	Temperatura máxima	12
66331	7	Sololá	701	Sololá	1	Sololá	12	Diciembre	2023-12-23T00:00:00	2024-11-08T06:00:00	3	Temperatura mínima	11.8
66332	7	Sololá	701	Sololá	1	Sololá	12	Diciembre	2023-12-23T00:00:00	2024-11-08T06:00:00	5	Humedad	87
66333	7	Sololá	701	Sololá	1	Sololá	12	Diciembre	2023-12-23T00:00:00	2024-11-08T06:00:00	6	Velocidad del viento	0
66334	7	Sololá	701	Sololá	1	Sololá	12	Diciembre	2023-12-23T00:00:00	2024-11-08T06:00:00	7	Dirección del viento	0
66335	7	Sololá	701	Sololá	1	Sololá	12	Diciembre	2023-12-23T00:00:00	2024-11-08T06:00:00	1	Precipitación	0
66336	7	Sololá	701	Sololá	1	Sololá	12	Diciembre	2023-12-23T00:00:00	2024-11-08T06:00:00	8	Radiación solar	0
66337	7	Sololá	701	Sololá	1	Sololá	12	Diciembre	2023-12-23T00:00:00	2024-11-08T07:00:00	2	Temperatura media	11.8
66338	7	Sololá	701	Sololá	1	Sololá	12	Diciembre	2023-12-23T00:00:00	2024-11-08T07:00:00	4	Temperatura máxima	11.8
66339	7	Sololá	701	Sololá	1	Sololá	12	Diciembre	2023-12-23T00:00:00	2024-11-08T07:00:00	3	Temperatura mínima	11.7
66340	7	Sololá	701	Sololá	1	Sololá	12	Diciembre	2023-12-23T00:00:00	2024-11-08T07:00:00	5	Humedad	87
66341	7	Sololá	701	Sololá	1	Sololá	12	Diciembre	2023-12-23T00:00:00	2024-11-08T07:00:00	6	Velocidad del viento	0
66342	7	Sololá	701	Sololá	1	Sololá	12	Diciembre	2023-12-23T00:00:00	2024-11-08T07:00:00	7	Dirección del viento	0
66343	7	Sololá	701	Sololá	1	Sololá	12	Diciembre	2023-12-23T00:00:00	2024-11-08T07:00:00	1	Precipitación	0
66344	7	Sololá	701	Sololá	1	Sololá	12	Diciembre	2023-12-23T00:00:00	2024-11-08T07:00:00	8	Radiación solar	4
66345	7	Sololá	701	Sololá	1	Sololá	12	Diciembre	2023-12-23T00:00:00	2024-11-08T08:00:00	2	Temperatura media	14.1
66346	7	Sololá	701	Sololá	1	Sololá	12	Diciembre	2023-12-23T00:00:00	2024-11-08T08:00:00	4	Temperatura máxima	14.1
66347	7	Sololá	701	Sololá	1	Sololá	12	Diciembre	2023-12-23T00:00:00	2024-11-08T08:00:00	3	Temperatura mínima	11.8
66348	7	Sololá	701	Sololá	1	Sololá	12	Diciembre	2023-12-23T00:00:00	2024-11-08T08:00:00	5	Humedad	84
66349	7	Sololá	701	Sololá	1	Sololá	12	Diciembre	2023-12-23T00:00:00	2024-11-08T08:00:00	6	Velocidad del viento	0
66350	7	Sololá	701	Sololá	1	Sololá	12	Diciembre	2023-12-23T00:00:00	2024-11-08T08:00:00	7	Dirección del viento	0
66351	7	Sololá	701	Sololá	1	Sololá	12	Diciembre	2023-12-23T00:00:00	2024-11-08T08:00:00	1	Precipitación	0
66352	7	Sololá	701	Sololá	1	Sololá	12	Diciembre	2023-12-23T00:00:00	2024-11-08T08:00:00	8	Radiación solar	65
66353	7	Sololá	701	Sololá	1	Sololá	12	Diciembre	2023-12-23T00:00:00	2024-11-08T09:00:00	2	Temperatura media	19.8
66354	7	Sololá	701	Sololá	1	Sololá	12	Diciembre	2023-12-23T00:00:00	2024-11-08T09:00:00	4	Temperatura máxima	19.8
66355	7	Sololá	701	Sololá	1	Sololá	12	Diciembre	2023-12-23T00:00:00	2024-11-08T09:00:00	3	Temperatura mínima	14.1
66356	7	Sololá	701	Sololá	1	Sololá	12	Diciembre	2023-12-23T00:00:00	2024-11-08T09:00:00	5	Humedad	66
66357	7	Sololá	701	Sololá	1	Sololá	12	Diciembre	2023-12-23T00:00:00	2024-11-08T09:00:00	6	Velocidad del viento	0
66358	7	Sololá	701	Sololá	1	Sololá	12	Diciembre	2023-12-23T00:00:00	2024-11-08T09:00:00	7	Dirección del viento	0
66359	7	Sololá	701	Sololá	1	Sololá	12	Diciembre	2023-12-23T00:00:00	2024-11-08T09:00:00	1	Precipitación	0
66360	7	Sololá	701	Sololá	1	Sololá	12	Diciembre	2023-12-23T00:00:00	2024-11-08T09:00:00	8	Radiación solar	481
66361	7	Sololá	701	Sololá	1	Sololá	12	Diciembre	2023-12-23T00:00:00	2024-11-08T10:00:00	2	Temperatura media	21.2
66362	7	Sololá	701	Sololá	1	Sololá	12	Diciembre	2023-12-23T00:00:00	2024-11-08T10:00:00	4	Temperatura máxima	21.2
66363	7	Sololá	701	Sololá	1	Sololá	12	Diciembre	2023-12-23T00:00:00	2024-11-08T10:00:00	3	Temperatura mínima	19.8
66364	7	Sololá	701	Sololá	1	Sololá	12	Diciembre	2023-12-23T00:00:00	2024-11-08T10:00:00	5	Humedad	65
66365	7	Sololá	701	Sololá	1	Sololá	12	Diciembre	2023-12-23T00:00:00	2024-11-08T10:00:00	6	Velocidad del viento	0
66366	7	Sololá	701	Sololá	1	Sololá	12	Diciembre	2023-12-23T00:00:00	2024-11-08T10:00:00	7	Dirección del viento	0
66367	7	Sololá	701	Sololá	1	Sololá	12	Diciembre	2023-12-23T00:00:00	2024-11-08T10:00:00	1	Precipitación	0
66368	7	Sololá	701	Sololá	1	Sololá	12	Diciembre	2023-12-23T00:00:00	2024-11-08T10:00:00	8	Radiación solar	660
66369	7	Sololá	701	Sololá	1	Sololá	12	Diciembre	2023-12-23T00:00:00	2024-11-08T11:00:00	2	Temperatura media	22.3
66370	7	Sololá	701	Sololá	1	Sololá	12	Diciembre	2023-12-23T00:00:00	2024-11-08T11:00:00	4	Temperatura máxima	22.3
66371	7	Sololá	701	Sololá	1	Sololá	12	Diciembre	2023-12-23T00:00:00	2024-11-08T11:00:00	3	Temperatura mínima	21.2
66372	7	Sololá	701	Sololá	1	Sololá	12	Diciembre	2023-12-23T00:00:00	2024-11-08T11:00:00	5	Humedad	62
66373	7	Sololá	701	Sololá	1	Sololá	12	Diciembre	2023-12-23T00:00:00	2024-11-08T11:00:00	6	Velocidad del viento	0
66374	7	Sololá	701	Sololá	1	Sololá	12	Diciembre	2023-12-23T00:00:00	2024-11-08T11:00:00	7	Dirección del viento	0
66375	7	Sololá	701	Sololá	1	Sololá	12	Diciembre	2023-12-23T00:00:00	2024-11-08T11:00:00	1	Precipitación	0
66376	7	Sololá	701	Sololá	1	Sololá	12	Diciembre	2023-12-23T00:00:00	2024-11-08T11:00:00	8	Radiación solar	790
66377	7	Sololá	701	Sololá	1	Sololá	12	Diciembre	2023-12-23T00:00:00	2024-11-08T12:00:00	2	Temperatura media	23.1
66378	7	Sololá	701	Sololá	1	Sololá	12	Diciembre	2023-12-23T00:00:00	2024-11-08T12:00:00	4	Temperatura máxima	23.1
66379	7	Sololá	701	Sololá	1	Sololá	12	Diciembre	2023-12-23T00:00:00	2024-11-08T12:00:00	3	Temperatura mínima	22.2
66380	7	Sololá	701	Sololá	1	Sololá	12	Diciembre	2023-12-23T00:00:00	2024-11-08T12:00:00	5	Humedad	57
66381	7	Sololá	701	Sololá	1	Sololá	12	Diciembre	2023-12-23T00:00:00	2024-11-08T12:00:00	6	Velocidad del viento	0
66382	7	Sololá	701	Sololá	1	Sololá	12	Diciembre	2023-12-23T00:00:00	2024-11-08T12:00:00	7	Dirección del viento	0
66383	7	Sololá	701	Sololá	1	Sololá	12	Diciembre	2023-12-23T00:00:00	2024-11-08T12:00:00	1	Precipitación	0
66384	7	Sololá	701	Sololá	1	Sololá	12	Diciembre	2023-12-23T00:00:00	2024-11-08T12:00:00	8	Radiación solar	864
66385	7	Sololá	701	Sololá	1	Sololá	12	Diciembre	2023-12-23T00:00:00	2024-11-08T13:00:00	2	Temperatura media	23.2
66386	7	Sololá	701	Sololá	1	Sololá	12	Diciembre	2023-12-23T00:00:00	2024-11-08T13:00:00	4	Temperatura máxima	23.6
66387	7	Sololá	701	Sololá	1	Sololá	12	Diciembre	2023-12-23T00:00:00	2024-11-08T13:00:00	3	Temperatura mínima	23.2
66388	7	Sololá	701	Sololá	1	Sololá	12	Diciembre	2023-12-23T00:00:00	2024-11-08T13:00:00	5	Humedad	59
66389	7	Sololá	701	Sololá	1	Sololá	12	Diciembre	2023-12-23T00:00:00	2024-11-08T13:00:00	6	Velocidad del viento	0
66390	7	Sololá	701	Sololá	1	Sololá	12	Diciembre	2023-12-23T00:00:00	2024-11-08T13:00:00	7	Dirección del viento	0
66391	7	Sololá	701	Sololá	1	Sololá	12	Diciembre	2023-12-23T00:00:00	2024-11-08T13:00:00	1	Precipitación	0
66392	7	Sololá	701	Sololá	1	Sololá	12	Diciembre	2023-12-23T00:00:00	2024-11-08T13:00:00	8	Radiación solar	765
66393	7	Sololá	701	Sololá	1	Sololá	12	Diciembre	2023-12-23T00:00:00	2024-11-08T14:00:00	2	Temperatura media	22.3
66394	7	Sololá	701	Sololá	1	Sololá	12	Diciembre	2023-12-23T00:00:00	2024-11-08T14:00:00	4	Temperatura máxima	23.3
66395	7	Sololá	701	Sololá	1	Sololá	12	Diciembre	2023-12-23T00:00:00	2024-11-08T14:00:00	3	Temperatura mínima	22.3
66396	7	Sololá	701	Sololá	1	Sololá	12	Diciembre	2023-12-23T00:00:00	2024-11-08T14:00:00	5	Humedad	69
66397	7	Sololá	701	Sololá	1	Sololá	12	Diciembre	2023-12-23T00:00:00	2024-11-08T14:00:00	6	Velocidad del viento	0
66398	7	Sololá	701	Sololá	1	Sololá	12	Diciembre	2023-12-23T00:00:00	2024-11-08T14:00:00	7	Dirección del viento	0
66399	7	Sololá	701	Sololá	1	Sololá	12	Diciembre	2023-12-23T00:00:00	2024-11-08T14:00:00	1	Precipitación	0
66400	7	Sololá	701	Sololá	1	Sololá	12	Diciembre	2023-12-23T00:00:00	2024-11-08T14:00:00	8	Radiación solar	621
66401	7	Sololá	701	Sololá	1	Sololá	12	Diciembre	2023-12-23T00:00:00	2024-11-08T15:00:00	2	Temperatura media	22.1
66402	7	Sololá	701	Sololá	1	Sololá	12	Diciembre	2023-12-23T00:00:00	2024-11-08T15:00:00	4	Temperatura máxima	22.6
66403	7	Sololá	701	Sololá	1	Sololá	12	Diciembre	2023-12-23T00:00:00	2024-11-08T15:00:00	3	Temperatura mínima	22
66404	7	Sololá	701	Sololá	1	Sololá	12	Diciembre	2023-12-23T00:00:00	2024-11-08T15:00:00	5	Humedad	70
66405	7	Sololá	701	Sololá	1	Sololá	12	Diciembre	2023-12-23T00:00:00	2024-11-08T15:00:00	6	Velocidad del viento	0
66406	7	Sololá	701	Sololá	1	Sololá	12	Diciembre	2023-12-23T00:00:00	2024-11-08T15:00:00	7	Dirección del viento	0
66407	7	Sololá	701	Sololá	1	Sololá	12	Diciembre	2023-12-23T00:00:00	2024-11-08T15:00:00	1	Precipitación	0
66408	7	Sololá	701	Sololá	1	Sololá	12	Diciembre	2023-12-23T00:00:00	2024-11-08T15:00:00	8	Radiación solar	602
66409	7	Sololá	701	Sololá	1	Sololá	12	Diciembre	2023-12-23T00:00:00	2024-11-08T16:00:00	2	Temperatura media	19.3
66410	7	Sololá	701	Sololá	1	Sololá	12	Diciembre	2023-12-23T00:00:00	2024-11-08T16:00:00	4	Temperatura máxima	22.1
66411	7	Sololá	701	Sololá	1	Sololá	12	Diciembre	2023-12-23T00:00:00	2024-11-08T16:00:00	3	Temperatura mínima	19.3
66412	7	Sololá	701	Sololá	1	Sololá	12	Diciembre	2023-12-23T00:00:00	2024-11-08T16:00:00	5	Humedad	79
66413	7	Sololá	701	Sololá	1	Sololá	12	Diciembre	2023-12-23T00:00:00	2024-11-08T16:00:00	6	Velocidad del viento	0
66414	7	Sololá	701	Sololá	1	Sololá	12	Diciembre	2023-12-23T00:00:00	2024-11-08T16:00:00	7	Dirección del viento	0
66415	7	Sololá	701	Sololá	1	Sololá	12	Diciembre	2023-12-23T00:00:00	2024-11-08T16:00:00	1	Precipitación	0
66416	7	Sololá	701	Sololá	1	Sololá	12	Diciembre	2023-12-23T00:00:00	2024-11-08T16:00:00	8	Radiación solar	211
66417	7	Sololá	701	Sololá	1	Sololá	12	Diciembre	2023-12-23T00:00:00	2024-11-08T17:00:00	2	Temperatura media	17.1
66418	7	Sololá	701	Sololá	1	Sololá	12	Diciembre	2023-12-23T00:00:00	2024-11-08T17:00:00	4	Temperatura máxima	19.3
66419	7	Sololá	701	Sololá	1	Sololá	12	Diciembre	2023-12-23T00:00:00	2024-11-08T17:00:00	3	Temperatura mínima	17.1
66420	7	Sololá	701	Sololá	1	Sololá	12	Diciembre	2023-12-23T00:00:00	2024-11-08T17:00:00	5	Humedad	79
66421	7	Sololá	701	Sololá	1	Sololá	12	Diciembre	2023-12-23T00:00:00	2024-11-08T17:00:00	6	Velocidad del viento	0
66422	7	Sololá	701	Sololá	1	Sololá	12	Diciembre	2023-12-23T00:00:00	2024-11-08T17:00:00	7	Dirección del viento	0
66423	7	Sololá	701	Sololá	1	Sololá	12	Diciembre	2023-12-23T00:00:00	2024-11-08T17:00:00	1	Precipitación	0
66424	7	Sololá	701	Sololá	1	Sololá	12	Diciembre	2023-12-23T00:00:00	2024-11-08T17:00:00	8	Radiación solar	50
66425	7	Sololá	701	Sololá	1	Sololá	12	Diciembre	2023-12-23T00:00:00	2024-11-08T18:00:00	2	Temperatura media	16.4
66426	7	Sololá	701	Sololá	1	Sololá	12	Diciembre	2023-12-23T00:00:00	2024-11-08T18:00:00	4	Temperatura máxima	17.1
66427	7	Sololá	701	Sololá	1	Sololá	12	Diciembre	2023-12-23T00:00:00	2024-11-08T18:00:00	3	Temperatura mínima	16.4
66428	7	Sololá	701	Sololá	1	Sololá	12	Diciembre	2023-12-23T00:00:00	2024-11-08T18:00:00	5	Humedad	78
66429	7	Sololá	701	Sololá	1	Sololá	12	Diciembre	2023-12-23T00:00:00	2024-11-08T18:00:00	6	Velocidad del viento	0
66430	7	Sololá	701	Sololá	1	Sololá	12	Diciembre	2023-12-23T00:00:00	2024-11-08T18:00:00	7	Dirección del viento	0
66431	7	Sololá	701	Sololá	1	Sololá	12	Diciembre	2023-12-23T00:00:00	2024-11-08T18:00:00	1	Precipitación	0
66432	7	Sololá	701	Sololá	1	Sololá	12	Diciembre	2023-12-23T00:00:00	2024-11-08T18:00:00	8	Radiación solar	5
66433	7	Sololá	701	Sololá	1	Sololá	12	Diciembre	2023-12-23T00:00:00	2024-11-08T19:00:00	2	Temperatura media	14.9
66434	7	Sololá	701	Sololá	1	Sololá	12	Diciembre	2023-12-23T00:00:00	2024-11-08T19:00:00	4	Temperatura máxima	16.4
66435	7	Sololá	701	Sololá	1	Sololá	12	Diciembre	2023-12-23T00:00:00	2024-11-08T19:00:00	3	Temperatura mínima	14.9
66436	7	Sololá	701	Sololá	1	Sololá	12	Diciembre	2023-12-23T00:00:00	2024-11-08T19:00:00	5	Humedad	81
66437	7	Sololá	701	Sololá	1	Sololá	12	Diciembre	2023-12-23T00:00:00	2024-11-08T19:00:00	6	Velocidad del viento	0
66438	7	Sololá	701	Sololá	1	Sololá	12	Diciembre	2023-12-23T00:00:00	2024-11-08T19:00:00	7	Dirección del viento	0
66439	7	Sololá	701	Sololá	1	Sololá	12	Diciembre	2023-12-23T00:00:00	2024-11-08T19:00:00	1	Precipitación	0
66440	7	Sololá	701	Sololá	1	Sololá	12	Diciembre	2023-12-23T00:00:00	2024-11-08T19:00:00	8	Radiación solar	0
66441	7	Sololá	701	Sololá	1	Sololá	12	Diciembre	2023-12-23T00:00:00	2024-11-08T20:00:00	2	Temperatura media	14.8
66442	7	Sololá	701	Sololá	1	Sololá	12	Diciembre	2023-12-23T00:00:00	2024-11-08T20:00:00	4	Temperatura máxima	15
66443	7	Sololá	701	Sololá	1	Sololá	12	Diciembre	2023-12-23T00:00:00	2024-11-08T20:00:00	3	Temperatura mínima	14.7
66444	7	Sololá	701	Sololá	1	Sololá	12	Diciembre	2023-12-23T00:00:00	2024-11-08T20:00:00	5	Humedad	82
66445	7	Sololá	701	Sololá	1	Sololá	12	Diciembre	2023-12-23T00:00:00	2024-11-08T20:00:00	6	Velocidad del viento	0
66446	7	Sololá	701	Sololá	1	Sololá	12	Diciembre	2023-12-23T00:00:00	2024-11-08T20:00:00	7	Dirección del viento	0
66447	7	Sololá	701	Sololá	1	Sololá	12	Diciembre	2023-12-23T00:00:00	2024-11-08T20:00:00	1	Precipitación	0
66448	7	Sololá	701	Sololá	1	Sololá	12	Diciembre	2023-12-23T00:00:00	2024-11-08T20:00:00	8	Radiación solar	0
66449	7	Sololá	701	Sololá	1	Sololá	12	Diciembre	2023-12-23T00:00:00	2024-11-08T21:00:00	2	Temperatura media	13.8
66450	7	Sololá	701	Sololá	1	Sololá	12	Diciembre	2023-12-23T00:00:00	2024-11-08T21:00:00	4	Temperatura máxima	14.8
66451	7	Sololá	701	Sololá	1	Sololá	12	Diciembre	2023-12-23T00:00:00	2024-11-08T21:00:00	3	Temperatura mínima	13.8
66452	7	Sololá	701	Sololá	1	Sololá	12	Diciembre	2023-12-23T00:00:00	2024-11-08T21:00:00	5	Humedad	83
66453	7	Sololá	701	Sololá	1	Sololá	12	Diciembre	2023-12-23T00:00:00	2024-11-08T21:00:00	6	Velocidad del viento	0
66454	7	Sololá	701	Sololá	1	Sololá	12	Diciembre	2023-12-23T00:00:00	2024-11-08T21:00:00	7	Dirección del viento	0
66455	7	Sololá	701	Sololá	1	Sololá	12	Diciembre	2023-12-23T00:00:00	2024-11-08T21:00:00	1	Precipitación	0
66456	7	Sololá	701	Sololá	1	Sololá	12	Diciembre	2023-12-23T00:00:00	2024-11-08T21:00:00	8	Radiación solar	0
66457	7	Sololá	701	Sololá	1	Sololá	12	Diciembre	2023-12-23T00:00:00	2024-11-08T22:00:00	2	Temperatura media	13
66458	7	Sololá	701	Sololá	1	Sololá	12	Diciembre	2023-12-23T00:00:00	2024-11-08T22:00:00	4	Temperatura máxima	13.8
66459	7	Sololá	701	Sololá	1	Sololá	12	Diciembre	2023-12-23T00:00:00	2024-11-08T22:00:00	3	Temperatura mínima	12.9
66460	7	Sololá	701	Sololá	1	Sololá	12	Diciembre	2023-12-23T00:00:00	2024-11-08T22:00:00	5	Humedad	85
66461	7	Sololá	701	Sololá	1	Sololá	12	Diciembre	2023-12-23T00:00:00	2024-11-08T22:00:00	6	Velocidad del viento	0
66462	7	Sololá	701	Sololá	1	Sololá	12	Diciembre	2023-12-23T00:00:00	2024-11-08T22:00:00	7	Dirección del viento	0
66463	7	Sololá	701	Sololá	1	Sololá	12	Diciembre	2023-12-23T00:00:00	2024-11-08T22:00:00	1	Precipitación	0
66464	7	Sololá	701	Sololá	1	Sololá	12	Diciembre	2023-12-23T00:00:00	2024-11-08T22:00:00	8	Radiación solar	0
66465	7	Sololá	701	Sololá	1	Sololá	12	Diciembre	2023-12-23T00:00:00	2024-11-08T23:00:00	2	Temperatura media	12.6
66466	7	Sololá	701	Sololá	1	Sololá	12	Diciembre	2023-12-23T00:00:00	2024-11-08T23:00:00	4	Temperatura máxima	13
66467	7	Sololá	701	Sololá	1	Sololá	12	Diciembre	2023-12-23T00:00:00	2024-11-08T23:00:00	3	Temperatura mínima	12.6
66468	7	Sololá	701	Sololá	1	Sololá	12	Diciembre	2023-12-23T00:00:00	2024-11-08T23:00:00	5	Humedad	86
66469	7	Sololá	701	Sololá	1	Sololá	12	Diciembre	2023-12-23T00:00:00	2024-11-08T23:00:00	6	Velocidad del viento	0
66470	7	Sololá	701	Sololá	1	Sololá	12	Diciembre	2023-12-23T00:00:00	2024-11-08T23:00:00	7	Dirección del viento	0
66471	7	Sololá	701	Sololá	1	Sololá	12	Diciembre	2023-12-23T00:00:00	2024-11-08T23:00:00	1	Precipitación	0
66472	7	Sololá	701	Sololá	1	Sololá	12	Diciembre	2023-12-23T00:00:00	2024-11-08T23:00:00	8	Radiación solar	0
66473	7	Sololá	701	Sololá	1	Sololá	12	Diciembre	2023-12-24T00:00:00	2024-11-08T00:00:00	2	Temperatura media	13.2
66474	7	Sololá	701	Sololá	1	Sololá	12	Diciembre	2023-12-24T00:00:00	2024-11-08T00:00:00	4	Temperatura máxima	13.2
66475	7	Sololá	701	Sololá	1	Sololá	12	Diciembre	2023-12-24T00:00:00	2024-11-08T00:00:00	3	Temperatura mínima	12.3
66476	7	Sololá	701	Sololá	1	Sololá	12	Diciembre	2023-12-24T00:00:00	2024-11-08T00:00:00	5	Humedad	82
66477	7	Sololá	701	Sololá	1	Sololá	12	Diciembre	2023-12-24T00:00:00	2024-11-08T00:00:00	6	Velocidad del viento	0
66478	7	Sololá	701	Sololá	1	Sololá	12	Diciembre	2023-12-24T00:00:00	2024-11-08T00:00:00	7	Dirección del viento	0
66479	7	Sololá	701	Sololá	1	Sololá	12	Diciembre	2023-12-24T00:00:00	2024-11-08T00:00:00	1	Precipitación	0
66480	7	Sololá	701	Sololá	1	Sololá	12	Diciembre	2023-12-24T00:00:00	2024-11-08T00:00:00	8	Radiación solar	0
66481	7	Sololá	701	Sololá	1	Sololá	12	Diciembre	2023-12-24T00:00:00	2024-11-08T01:00:00	2	Temperatura media	12.6
66482	7	Sololá	701	Sololá	1	Sololá	12	Diciembre	2023-12-24T00:00:00	2024-11-08T01:00:00	4	Temperatura máxima	13.3
66483	7	Sololá	701	Sololá	1	Sololá	12	Diciembre	2023-12-24T00:00:00	2024-11-08T01:00:00	3	Temperatura mínima	12.6
66484	7	Sololá	701	Sololá	1	Sololá	12	Diciembre	2023-12-24T00:00:00	2024-11-08T01:00:00	5	Humedad	82
66485	7	Sololá	701	Sololá	1	Sololá	12	Diciembre	2023-12-24T00:00:00	2024-11-08T01:00:00	6	Velocidad del viento	0
66486	7	Sololá	701	Sololá	1	Sololá	12	Diciembre	2023-12-24T00:00:00	2024-11-08T01:00:00	7	Dirección del viento	0
66487	7	Sololá	701	Sololá	1	Sololá	12	Diciembre	2023-12-24T00:00:00	2024-11-08T01:00:00	1	Precipitación	0
66488	7	Sololá	701	Sololá	1	Sololá	12	Diciembre	2023-12-24T00:00:00	2024-11-08T01:00:00	8	Radiación solar	0
66489	7	Sololá	701	Sololá	1	Sololá	12	Diciembre	2023-12-24T00:00:00	2024-11-08T02:00:00	2	Temperatura media	12.4
66490	7	Sololá	701	Sololá	1	Sololá	12	Diciembre	2023-12-24T00:00:00	2024-11-08T02:00:00	4	Temperatura máxima	12.7
66491	7	Sololá	701	Sololá	1	Sololá	12	Diciembre	2023-12-24T00:00:00	2024-11-08T02:00:00	3	Temperatura mínima	12.4
66492	7	Sololá	701	Sololá	1	Sololá	12	Diciembre	2023-12-24T00:00:00	2024-11-08T02:00:00	5	Humedad	81
66493	7	Sololá	701	Sololá	1	Sololá	12	Diciembre	2023-12-24T00:00:00	2024-11-08T02:00:00	6	Velocidad del viento	0
66494	7	Sololá	701	Sololá	1	Sololá	12	Diciembre	2023-12-24T00:00:00	2024-11-08T02:00:00	7	Dirección del viento	0
66495	7	Sololá	701	Sololá	1	Sololá	12	Diciembre	2023-12-24T00:00:00	2024-11-08T02:00:00	1	Precipitación	0
66496	7	Sololá	701	Sololá	1	Sololá	12	Diciembre	2023-12-24T00:00:00	2024-11-08T02:00:00	8	Radiación solar	0
66497	7	Sololá	701	Sololá	1	Sololá	12	Diciembre	2023-12-24T00:00:00	2024-11-08T03:00:00	2	Temperatura media	12.1
66498	7	Sololá	701	Sololá	1	Sololá	12	Diciembre	2023-12-24T00:00:00	2024-11-08T03:00:00	4	Temperatura máxima	12.4
66499	7	Sololá	701	Sololá	1	Sololá	12	Diciembre	2023-12-24T00:00:00	2024-11-08T03:00:00	3	Temperatura mínima	12
66500	7	Sololá	701	Sololá	1	Sololá	12	Diciembre	2023-12-24T00:00:00	2024-11-08T03:00:00	5	Humedad	82
66501	7	Sololá	701	Sololá	1	Sololá	12	Diciembre	2023-12-24T00:00:00	2024-11-08T03:00:00	6	Velocidad del viento	0
66502	7	Sololá	701	Sololá	1	Sololá	12	Diciembre	2023-12-24T00:00:00	2024-11-08T03:00:00	7	Dirección del viento	0
66503	7	Sololá	701	Sololá	1	Sololá	12	Diciembre	2023-12-24T00:00:00	2024-11-08T03:00:00	1	Precipitación	0
66504	7	Sololá	701	Sololá	1	Sololá	12	Diciembre	2023-12-24T00:00:00	2024-11-08T03:00:00	8	Radiación solar	0
66505	7	Sololá	701	Sololá	1	Sololá	12	Diciembre	2023-12-24T00:00:00	2024-11-08T04:00:00	2	Temperatura media	12.2
66506	7	Sololá	701	Sololá	1	Sololá	12	Diciembre	2023-12-24T00:00:00	2024-11-08T04:00:00	4	Temperatura máxima	12.2
66507	7	Sololá	701	Sololá	1	Sololá	12	Diciembre	2023-12-24T00:00:00	2024-11-08T04:00:00	3	Temperatura mínima	12
66508	7	Sololá	701	Sololá	1	Sololá	12	Diciembre	2023-12-24T00:00:00	2024-11-08T04:00:00	5	Humedad	83
66509	7	Sololá	701	Sololá	1	Sololá	12	Diciembre	2023-12-24T00:00:00	2024-11-08T04:00:00	6	Velocidad del viento	0
66510	7	Sololá	701	Sololá	1	Sololá	12	Diciembre	2023-12-24T00:00:00	2024-11-08T04:00:00	7	Dirección del viento	0
66511	7	Sololá	701	Sololá	1	Sololá	12	Diciembre	2023-12-24T00:00:00	2024-11-08T04:00:00	1	Precipitación	0
66512	7	Sololá	701	Sololá	1	Sololá	12	Diciembre	2023-12-24T00:00:00	2024-11-08T04:00:00	8	Radiación solar	0
66513	7	Sololá	701	Sololá	1	Sololá	12	Diciembre	2023-12-24T00:00:00	2024-11-08T05:00:00	2	Temperatura media	12.2
66514	7	Sololá	701	Sololá	1	Sololá	12	Diciembre	2023-12-24T00:00:00	2024-11-08T05:00:00	4	Temperatura máxima	12.3
66515	7	Sololá	701	Sololá	1	Sololá	12	Diciembre	2023-12-24T00:00:00	2024-11-08T05:00:00	3	Temperatura mínima	12.1
66516	7	Sololá	701	Sololá	1	Sololá	12	Diciembre	2023-12-24T00:00:00	2024-11-08T05:00:00	5	Humedad	85
66517	7	Sololá	701	Sololá	1	Sololá	12	Diciembre	2023-12-24T00:00:00	2024-11-08T05:00:00	6	Velocidad del viento	0
66518	7	Sololá	701	Sololá	1	Sololá	12	Diciembre	2023-12-24T00:00:00	2024-11-08T05:00:00	7	Dirección del viento	0
66519	7	Sololá	701	Sololá	1	Sololá	12	Diciembre	2023-12-24T00:00:00	2024-11-08T05:00:00	1	Precipitación	0
66520	7	Sololá	701	Sololá	1	Sololá	12	Diciembre	2023-12-24T00:00:00	2024-11-08T05:00:00	8	Radiación solar	0
66521	7	Sololá	701	Sololá	1	Sololá	12	Diciembre	2023-12-24T00:00:00	2024-11-08T06:00:00	2	Temperatura media	11.8
66522	7	Sololá	701	Sololá	1	Sololá	12	Diciembre	2023-12-24T00:00:00	2024-11-08T06:00:00	4	Temperatura máxima	12.2
66523	7	Sololá	701	Sololá	1	Sololá	12	Diciembre	2023-12-24T00:00:00	2024-11-08T06:00:00	3	Temperatura mínima	11.8
66524	7	Sololá	701	Sololá	1	Sololá	12	Diciembre	2023-12-24T00:00:00	2024-11-08T06:00:00	5	Humedad	86
66525	7	Sololá	701	Sololá	1	Sololá	12	Diciembre	2023-12-24T00:00:00	2024-11-08T06:00:00	6	Velocidad del viento	0
66526	7	Sololá	701	Sololá	1	Sololá	12	Diciembre	2023-12-24T00:00:00	2024-11-08T06:00:00	7	Dirección del viento	0
66527	7	Sololá	701	Sololá	1	Sololá	12	Diciembre	2023-12-24T00:00:00	2024-11-08T06:00:00	1	Precipitación	0
66528	7	Sololá	701	Sololá	1	Sololá	12	Diciembre	2023-12-24T00:00:00	2024-11-08T06:00:00	8	Radiación solar	0
66529	7	Sololá	701	Sololá	1	Sololá	12	Diciembre	2023-12-24T00:00:00	2024-11-08T07:00:00	2	Temperatura media	12
66530	7	Sololá	701	Sololá	1	Sololá	12	Diciembre	2023-12-24T00:00:00	2024-11-08T07:00:00	4	Temperatura máxima	12.1
66531	7	Sololá	701	Sololá	1	Sololá	12	Diciembre	2023-12-24T00:00:00	2024-11-08T07:00:00	3	Temperatura mínima	11.7
66532	7	Sololá	701	Sololá	1	Sololá	12	Diciembre	2023-12-24T00:00:00	2024-11-08T07:00:00	5	Humedad	87
66533	7	Sololá	701	Sololá	1	Sololá	12	Diciembre	2023-12-24T00:00:00	2024-11-08T07:00:00	6	Velocidad del viento	0
66534	7	Sololá	701	Sololá	1	Sololá	12	Diciembre	2023-12-24T00:00:00	2024-11-08T07:00:00	7	Dirección del viento	0
66535	7	Sololá	701	Sololá	1	Sololá	12	Diciembre	2023-12-24T00:00:00	2024-11-08T07:00:00	1	Precipitación	0
66536	7	Sololá	701	Sololá	1	Sololá	12	Diciembre	2023-12-24T00:00:00	2024-11-08T07:00:00	8	Radiación solar	8
66537	7	Sololá	701	Sololá	1	Sololá	12	Diciembre	2023-12-24T00:00:00	2024-11-08T08:00:00	2	Temperatura media	14.1
66538	7	Sololá	701	Sololá	1	Sololá	12	Diciembre	2023-12-24T00:00:00	2024-11-08T08:00:00	4	Temperatura máxima	14.1
66539	7	Sololá	701	Sololá	1	Sololá	12	Diciembre	2023-12-24T00:00:00	2024-11-08T08:00:00	3	Temperatura mínima	12
66540	7	Sololá	701	Sololá	1	Sololá	12	Diciembre	2023-12-24T00:00:00	2024-11-08T08:00:00	5	Humedad	86
66541	7	Sololá	701	Sololá	1	Sololá	12	Diciembre	2023-12-24T00:00:00	2024-11-08T08:00:00	6	Velocidad del viento	0
66542	7	Sololá	701	Sololá	1	Sololá	12	Diciembre	2023-12-24T00:00:00	2024-11-08T08:00:00	7	Dirección del viento	0
66543	7	Sololá	701	Sololá	1	Sololá	12	Diciembre	2023-12-24T00:00:00	2024-11-08T08:00:00	1	Precipitación	0
66544	7	Sololá	701	Sololá	1	Sololá	12	Diciembre	2023-12-24T00:00:00	2024-11-08T08:00:00	8	Radiación solar	66
66545	7	Sololá	701	Sololá	1	Sololá	12	Diciembre	2023-12-24T00:00:00	2024-11-08T09:00:00	2	Temperatura media	19.4
66546	7	Sololá	701	Sololá	1	Sololá	12	Diciembre	2023-12-24T00:00:00	2024-11-08T09:00:00	4	Temperatura máxima	19.4
66547	7	Sololá	701	Sololá	1	Sololá	12	Diciembre	2023-12-24T00:00:00	2024-11-08T09:00:00	3	Temperatura mínima	14.1
66548	7	Sololá	701	Sololá	1	Sololá	12	Diciembre	2023-12-24T00:00:00	2024-11-08T09:00:00	5	Humedad	72
66549	7	Sololá	701	Sololá	1	Sololá	12	Diciembre	2023-12-24T00:00:00	2024-11-08T09:00:00	6	Velocidad del viento	0
66550	7	Sololá	701	Sololá	1	Sololá	12	Diciembre	2023-12-24T00:00:00	2024-11-08T09:00:00	7	Dirección del viento	0
66551	7	Sololá	701	Sololá	1	Sololá	12	Diciembre	2023-12-24T00:00:00	2024-11-08T09:00:00	1	Precipitación	0
66552	7	Sololá	701	Sololá	1	Sololá	12	Diciembre	2023-12-24T00:00:00	2024-11-08T09:00:00	8	Radiación solar	465
66553	7	Sololá	701	Sololá	1	Sololá	12	Diciembre	2023-12-24T00:00:00	2024-11-08T10:00:00	2	Temperatura media	19.7
66554	7	Sololá	701	Sololá	1	Sololá	12	Diciembre	2023-12-24T00:00:00	2024-11-08T10:00:00	4	Temperatura máxima	19.7
66555	7	Sololá	701	Sololá	1	Sololá	12	Diciembre	2023-12-24T00:00:00	2024-11-08T10:00:00	3	Temperatura mínima	19.3
66556	7	Sololá	701	Sololá	1	Sololá	12	Diciembre	2023-12-24T00:00:00	2024-11-08T10:00:00	5	Humedad	71
66557	7	Sololá	701	Sololá	1	Sololá	12	Diciembre	2023-12-24T00:00:00	2024-11-08T10:00:00	6	Velocidad del viento	0
66558	7	Sololá	701	Sololá	1	Sololá	12	Diciembre	2023-12-24T00:00:00	2024-11-08T10:00:00	7	Dirección del viento	0
66559	7	Sololá	701	Sololá	1	Sololá	12	Diciembre	2023-12-24T00:00:00	2024-11-08T10:00:00	1	Precipitación	0
66560	7	Sololá	701	Sololá	1	Sololá	12	Diciembre	2023-12-24T00:00:00	2024-11-08T10:00:00	8	Radiación solar	664
66561	7	Sololá	701	Sololá	1	Sololá	12	Diciembre	2023-12-24T00:00:00	2024-11-08T11:00:00	2	Temperatura media	20.4
66562	7	Sololá	701	Sololá	1	Sololá	12	Diciembre	2023-12-24T00:00:00	2024-11-08T11:00:00	4	Temperatura máxima	20.5
66563	7	Sololá	701	Sololá	1	Sololá	12	Diciembre	2023-12-24T00:00:00	2024-11-08T11:00:00	3	Temperatura mínima	19.7
66564	7	Sololá	701	Sololá	1	Sololá	12	Diciembre	2023-12-24T00:00:00	2024-11-08T11:00:00	5	Humedad	69
66565	7	Sololá	701	Sololá	1	Sololá	12	Diciembre	2023-12-24T00:00:00	2024-11-08T11:00:00	6	Velocidad del viento	0
66566	7	Sololá	701	Sololá	1	Sololá	12	Diciembre	2023-12-24T00:00:00	2024-11-08T11:00:00	7	Dirección del viento	0
66567	7	Sololá	701	Sololá	1	Sololá	12	Diciembre	2023-12-24T00:00:00	2024-11-08T11:00:00	1	Precipitación	0
66568	7	Sololá	701	Sololá	1	Sololá	12	Diciembre	2023-12-24T00:00:00	2024-11-08T11:00:00	8	Radiación solar	793
66569	7	Sololá	701	Sololá	1	Sololá	12	Diciembre	2023-12-24T00:00:00	2024-11-08T12:00:00	2	Temperatura media	21.8
66570	7	Sololá	701	Sololá	1	Sololá	12	Diciembre	2023-12-24T00:00:00	2024-11-08T12:00:00	4	Temperatura máxima	21.9
66571	7	Sololá	701	Sololá	1	Sololá	12	Diciembre	2023-12-24T00:00:00	2024-11-08T12:00:00	3	Temperatura mínima	20.4
66572	7	Sololá	701	Sololá	1	Sololá	12	Diciembre	2023-12-24T00:00:00	2024-11-08T12:00:00	5	Humedad	66
66573	7	Sololá	701	Sololá	1	Sololá	12	Diciembre	2023-12-24T00:00:00	2024-11-08T12:00:00	6	Velocidad del viento	0
66574	7	Sololá	701	Sololá	1	Sololá	12	Diciembre	2023-12-24T00:00:00	2024-11-08T12:00:00	7	Dirección del viento	0
66575	7	Sololá	701	Sololá	1	Sololá	12	Diciembre	2023-12-24T00:00:00	2024-11-08T12:00:00	1	Precipitación	0
66576	7	Sololá	701	Sololá	1	Sololá	12	Diciembre	2023-12-24T00:00:00	2024-11-08T12:00:00	8	Radiación solar	905
66577	7	Sololá	701	Sololá	1	Sololá	12	Diciembre	2023-12-24T00:00:00	2024-11-08T13:00:00	2	Temperatura media	20.8
66578	7	Sololá	701	Sololá	1	Sololá	12	Diciembre	2023-12-24T00:00:00	2024-11-08T13:00:00	4	Temperatura máxima	22.2
66579	7	Sololá	701	Sololá	1	Sololá	12	Diciembre	2023-12-24T00:00:00	2024-11-08T13:00:00	3	Temperatura mínima	20.8
66580	7	Sololá	701	Sololá	1	Sololá	12	Diciembre	2023-12-24T00:00:00	2024-11-08T13:00:00	5	Humedad	71
66581	7	Sololá	701	Sololá	1	Sololá	12	Diciembre	2023-12-24T00:00:00	2024-11-08T13:00:00	6	Velocidad del viento	0
66582	7	Sololá	701	Sololá	1	Sololá	12	Diciembre	2023-12-24T00:00:00	2024-11-08T13:00:00	7	Dirección del viento	0
66583	7	Sololá	701	Sololá	1	Sololá	12	Diciembre	2023-12-24T00:00:00	2024-11-08T13:00:00	1	Precipitación	0
66584	7	Sololá	701	Sololá	1	Sololá	12	Diciembre	2023-12-24T00:00:00	2024-11-08T13:00:00	8	Radiación solar	591
66585	7	Sololá	701	Sololá	1	Sololá	12	Diciembre	2023-12-24T00:00:00	2024-11-08T14:00:00	2	Temperatura media	18.7
66586	7	Sololá	701	Sololá	1	Sololá	12	Diciembre	2023-12-24T00:00:00	2024-11-08T14:00:00	4	Temperatura máxima	20.8
66587	7	Sololá	701	Sololá	1	Sololá	12	Diciembre	2023-12-24T00:00:00	2024-11-08T14:00:00	3	Temperatura mínima	18.7
66588	7	Sololá	701	Sololá	1	Sololá	12	Diciembre	2023-12-24T00:00:00	2024-11-08T14:00:00	5	Humedad	79
66589	7	Sololá	701	Sololá	1	Sololá	12	Diciembre	2023-12-24T00:00:00	2024-11-08T14:00:00	6	Velocidad del viento	0
66590	7	Sololá	701	Sololá	1	Sololá	12	Diciembre	2023-12-24T00:00:00	2024-11-08T14:00:00	7	Dirección del viento	0
66591	7	Sololá	701	Sololá	1	Sololá	12	Diciembre	2023-12-24T00:00:00	2024-11-08T14:00:00	1	Precipitación	0
66592	7	Sololá	701	Sololá	1	Sololá	12	Diciembre	2023-12-24T00:00:00	2024-11-08T14:00:00	8	Radiación solar	171
66593	7	Sololá	701	Sololá	1	Sololá	12	Diciembre	2023-12-24T00:00:00	2024-11-08T15:00:00	2	Temperatura media	18.2
66594	7	Sololá	701	Sololá	1	Sololá	12	Diciembre	2023-12-24T00:00:00	2024-11-08T15:00:00	4	Temperatura máxima	18.8
66595	7	Sololá	701	Sololá	1	Sololá	12	Diciembre	2023-12-24T00:00:00	2024-11-08T15:00:00	3	Temperatura mínima	18.2
66596	7	Sololá	701	Sololá	1	Sololá	12	Diciembre	2023-12-24T00:00:00	2024-11-08T15:00:00	5	Humedad	80
66597	7	Sololá	701	Sololá	1	Sololá	12	Diciembre	2023-12-24T00:00:00	2024-11-08T15:00:00	6	Velocidad del viento	0
66598	7	Sololá	701	Sololá	1	Sololá	12	Diciembre	2023-12-24T00:00:00	2024-11-08T15:00:00	7	Dirección del viento	0
66599	7	Sololá	701	Sololá	1	Sololá	12	Diciembre	2023-12-24T00:00:00	2024-11-08T15:00:00	1	Precipitación	0
66600	7	Sololá	701	Sololá	1	Sololá	12	Diciembre	2023-12-24T00:00:00	2024-11-08T15:00:00	8	Radiación solar	138
66601	7	Sololá	701	Sololá	1	Sololá	12	Diciembre	2023-12-24T00:00:00	2024-11-08T16:00:00	2	Temperatura media	17.5
66602	7	Sololá	701	Sololá	1	Sololá	12	Diciembre	2023-12-24T00:00:00	2024-11-08T16:00:00	4	Temperatura máxima	18.2
66603	7	Sololá	701	Sololá	1	Sololá	12	Diciembre	2023-12-24T00:00:00	2024-11-08T16:00:00	3	Temperatura mínima	17.5
66604	7	Sololá	701	Sololá	1	Sololá	12	Diciembre	2023-12-24T00:00:00	2024-11-08T16:00:00	5	Humedad	84
66605	7	Sololá	701	Sololá	1	Sololá	12	Diciembre	2023-12-24T00:00:00	2024-11-08T16:00:00	6	Velocidad del viento	0
66606	7	Sololá	701	Sololá	1	Sololá	12	Diciembre	2023-12-24T00:00:00	2024-11-08T16:00:00	7	Dirección del viento	0
66607	7	Sololá	701	Sololá	1	Sololá	12	Diciembre	2023-12-24T00:00:00	2024-11-08T16:00:00	1	Precipitación	0
66608	7	Sololá	701	Sololá	1	Sololá	12	Diciembre	2023-12-24T00:00:00	2024-11-08T16:00:00	8	Radiación solar	107
66609	7	Sololá	701	Sololá	1	Sololá	12	Diciembre	2023-12-24T00:00:00	2024-11-08T17:00:00	2	Temperatura media	17.1
66610	7	Sololá	701	Sololá	1	Sololá	12	Diciembre	2023-12-24T00:00:00	2024-11-08T17:00:00	4	Temperatura máxima	17.7
66611	7	Sololá	701	Sololá	1	Sololá	12	Diciembre	2023-12-24T00:00:00	2024-11-08T17:00:00	3	Temperatura mínima	17.1
66612	7	Sololá	701	Sololá	1	Sololá	12	Diciembre	2023-12-24T00:00:00	2024-11-08T17:00:00	5	Humedad	88
66613	7	Sololá	701	Sololá	1	Sololá	12	Diciembre	2023-12-24T00:00:00	2024-11-08T17:00:00	6	Velocidad del viento	0
66614	7	Sololá	701	Sololá	1	Sololá	12	Diciembre	2023-12-24T00:00:00	2024-11-08T17:00:00	7	Dirección del viento	0
66615	7	Sololá	701	Sololá	1	Sololá	12	Diciembre	2023-12-24T00:00:00	2024-11-08T17:00:00	1	Precipitación	0
66616	7	Sololá	701	Sololá	1	Sololá	12	Diciembre	2023-12-24T00:00:00	2024-11-08T17:00:00	8	Radiación solar	45
66617	7	Sololá	701	Sololá	1	Sololá	12	Diciembre	2023-12-24T00:00:00	2024-11-08T18:00:00	2	Temperatura media	16
66618	7	Sololá	701	Sololá	1	Sololá	12	Diciembre	2023-12-24T00:00:00	2024-11-08T18:00:00	4	Temperatura máxima	17.1
66619	7	Sololá	701	Sololá	1	Sololá	12	Diciembre	2023-12-24T00:00:00	2024-11-08T18:00:00	3	Temperatura mínima	16
66620	7	Sololá	701	Sololá	1	Sololá	12	Diciembre	2023-12-24T00:00:00	2024-11-08T18:00:00	5	Humedad	92
66621	7	Sololá	701	Sololá	1	Sololá	12	Diciembre	2023-12-24T00:00:00	2024-11-08T18:00:00	6	Velocidad del viento	0
66622	7	Sololá	701	Sololá	1	Sololá	12	Diciembre	2023-12-24T00:00:00	2024-11-08T18:00:00	7	Dirección del viento	0
66623	7	Sololá	701	Sololá	1	Sololá	12	Diciembre	2023-12-24T00:00:00	2024-11-08T18:00:00	1	Precipitación	0
66624	7	Sololá	701	Sololá	1	Sololá	12	Diciembre	2023-12-24T00:00:00	2024-11-08T18:00:00	8	Radiación solar	9
66625	7	Sololá	701	Sololá	1	Sololá	12	Diciembre	2023-12-24T00:00:00	2024-11-08T19:00:00	2	Temperatura media	15.1
66626	7	Sololá	701	Sololá	1	Sololá	12	Diciembre	2023-12-24T00:00:00	2024-11-08T19:00:00	4	Temperatura máxima	16
66627	7	Sololá	701	Sololá	1	Sololá	12	Diciembre	2023-12-24T00:00:00	2024-11-08T19:00:00	3	Temperatura mínima	15.1
66628	7	Sololá	701	Sololá	1	Sololá	12	Diciembre	2023-12-24T00:00:00	2024-11-08T19:00:00	5	Humedad	92
66629	7	Sololá	701	Sololá	1	Sololá	12	Diciembre	2023-12-24T00:00:00	2024-11-08T19:00:00	6	Velocidad del viento	0
66630	7	Sololá	701	Sololá	1	Sololá	12	Diciembre	2023-12-24T00:00:00	2024-11-08T19:00:00	7	Dirección del viento	0
66631	7	Sololá	701	Sololá	1	Sololá	12	Diciembre	2023-12-24T00:00:00	2024-11-08T19:00:00	1	Precipitación	0
66632	7	Sololá	701	Sololá	1	Sololá	12	Diciembre	2023-12-24T00:00:00	2024-11-08T19:00:00	8	Radiación solar	0
66633	7	Sololá	701	Sololá	1	Sololá	12	Diciembre	2023-12-24T00:00:00	2024-11-08T20:00:00	2	Temperatura media	13.3
66634	7	Sololá	701	Sololá	1	Sololá	12	Diciembre	2023-12-24T00:00:00	2024-11-08T20:00:00	4	Temperatura máxima	15.2
66635	7	Sololá	701	Sololá	1	Sololá	12	Diciembre	2023-12-24T00:00:00	2024-11-08T20:00:00	3	Temperatura mínima	13.3
66636	7	Sololá	701	Sololá	1	Sololá	12	Diciembre	2023-12-24T00:00:00	2024-11-08T20:00:00	5	Humedad	82
66637	7	Sololá	701	Sololá	1	Sololá	12	Diciembre	2023-12-24T00:00:00	2024-11-08T20:00:00	6	Velocidad del viento	0
66638	7	Sololá	701	Sololá	1	Sololá	12	Diciembre	2023-12-24T00:00:00	2024-11-08T20:00:00	7	Dirección del viento	0
66639	7	Sololá	701	Sololá	1	Sololá	12	Diciembre	2023-12-24T00:00:00	2024-11-08T20:00:00	1	Precipitación	0
66640	7	Sololá	701	Sololá	1	Sololá	12	Diciembre	2023-12-24T00:00:00	2024-11-08T20:00:00	8	Radiación solar	0
66641	7	Sololá	701	Sololá	1	Sololá	12	Diciembre	2023-12-24T00:00:00	2024-11-08T21:00:00	2	Temperatura media	12.6
66642	7	Sololá	701	Sololá	1	Sololá	12	Diciembre	2023-12-24T00:00:00	2024-11-08T21:00:00	4	Temperatura máxima	13.3
66643	7	Sololá	701	Sololá	1	Sololá	12	Diciembre	2023-12-24T00:00:00	2024-11-08T21:00:00	3	Temperatura mínima	12.6
66644	7	Sololá	701	Sololá	1	Sololá	12	Diciembre	2023-12-24T00:00:00	2024-11-08T21:00:00	5	Humedad	80
66645	7	Sololá	701	Sololá	1	Sololá	12	Diciembre	2023-12-24T00:00:00	2024-11-08T21:00:00	6	Velocidad del viento	0
66646	7	Sololá	701	Sololá	1	Sololá	12	Diciembre	2023-12-24T00:00:00	2024-11-08T21:00:00	7	Dirección del viento	0
66647	7	Sololá	701	Sololá	1	Sololá	12	Diciembre	2023-12-24T00:00:00	2024-11-08T21:00:00	1	Precipitación	0
66648	7	Sololá	701	Sololá	1	Sololá	12	Diciembre	2023-12-24T00:00:00	2024-11-08T21:00:00	8	Radiación solar	0
66649	7	Sololá	701	Sololá	1	Sololá	12	Diciembre	2023-12-24T00:00:00	2024-11-08T22:00:00	2	Temperatura media	12
66650	7	Sololá	701	Sololá	1	Sololá	12	Diciembre	2023-12-24T00:00:00	2024-11-08T22:00:00	4	Temperatura máxima	12.6
66651	7	Sololá	701	Sololá	1	Sololá	12	Diciembre	2023-12-24T00:00:00	2024-11-08T22:00:00	3	Temperatura mínima	12
66652	7	Sololá	701	Sololá	1	Sololá	12	Diciembre	2023-12-24T00:00:00	2024-11-08T22:00:00	5	Humedad	81
66653	7	Sololá	701	Sololá	1	Sololá	12	Diciembre	2023-12-24T00:00:00	2024-11-08T22:00:00	6	Velocidad del viento	0
66654	7	Sololá	701	Sololá	1	Sololá	12	Diciembre	2023-12-24T00:00:00	2024-11-08T22:00:00	7	Dirección del viento	0
66655	7	Sololá	701	Sololá	1	Sololá	12	Diciembre	2023-12-24T00:00:00	2024-11-08T22:00:00	1	Precipitación	0
66656	7	Sololá	701	Sololá	1	Sololá	12	Diciembre	2023-12-24T00:00:00	2024-11-08T22:00:00	8	Radiación solar	0
66657	7	Sololá	701	Sololá	1	Sololá	12	Diciembre	2023-12-24T00:00:00	2024-11-08T23:00:00	2	Temperatura media	11.4
66658	7	Sololá	701	Sololá	1	Sololá	12	Diciembre	2023-12-24T00:00:00	2024-11-08T23:00:00	4	Temperatura máxima	12
66659	7	Sololá	701	Sololá	1	Sololá	12	Diciembre	2023-12-24T00:00:00	2024-11-08T23:00:00	3	Temperatura mínima	11.3
66660	7	Sololá	701	Sololá	1	Sololá	12	Diciembre	2023-12-24T00:00:00	2024-11-08T23:00:00	5	Humedad	81
66661	7	Sololá	701	Sololá	1	Sololá	12	Diciembre	2023-12-24T00:00:00	2024-11-08T23:00:00	6	Velocidad del viento	0
66662	7	Sololá	701	Sololá	1	Sololá	12	Diciembre	2023-12-24T00:00:00	2024-11-08T23:00:00	7	Dirección del viento	0
66663	7	Sololá	701	Sololá	1	Sololá	12	Diciembre	2023-12-24T00:00:00	2024-11-08T23:00:00	1	Precipitación	0
66664	7	Sololá	701	Sololá	1	Sololá	12	Diciembre	2023-12-24T00:00:00	2024-11-08T23:00:00	8	Radiación solar	0
66665	7	Sololá	701	Sololá	1	Sololá	12	Diciembre	2023-12-25T00:00:00	2024-11-08T00:00:00	2	Temperatura media	11.6
66666	7	Sololá	701	Sololá	1	Sololá	12	Diciembre	2023-12-25T00:00:00	2024-11-08T00:00:00	4	Temperatura máxima	11.8
66667	7	Sololá	701	Sololá	1	Sololá	12	Diciembre	2023-12-25T00:00:00	2024-11-08T00:00:00	3	Temperatura mínima	11.4
66668	7	Sololá	701	Sololá	1	Sololá	12	Diciembre	2023-12-25T00:00:00	2024-11-08T00:00:00	5	Humedad	77
66669	7	Sololá	701	Sololá	1	Sololá	12	Diciembre	2023-12-25T00:00:00	2024-11-08T00:00:00	6	Velocidad del viento	0
66670	7	Sololá	701	Sololá	1	Sololá	12	Diciembre	2023-12-25T00:00:00	2024-11-08T00:00:00	7	Dirección del viento	0
66671	7	Sololá	701	Sololá	1	Sololá	12	Diciembre	2023-12-25T00:00:00	2024-11-08T00:00:00	1	Precipitación	0
66672	7	Sololá	701	Sololá	1	Sololá	12	Diciembre	2023-12-25T00:00:00	2024-11-08T00:00:00	8	Radiación solar	0
66673	7	Sololá	701	Sololá	1	Sololá	12	Diciembre	2023-12-25T00:00:00	2024-11-08T01:00:00	2	Temperatura media	11.2
66674	7	Sololá	701	Sololá	1	Sololá	12	Diciembre	2023-12-25T00:00:00	2024-11-08T01:00:00	4	Temperatura máxima	11.6
66675	7	Sololá	701	Sololá	1	Sololá	12	Diciembre	2023-12-25T00:00:00	2024-11-08T01:00:00	3	Temperatura mínima	11.1
66676	7	Sololá	701	Sololá	1	Sololá	12	Diciembre	2023-12-25T00:00:00	2024-11-08T01:00:00	5	Humedad	76
66677	7	Sololá	701	Sololá	1	Sololá	12	Diciembre	2023-12-25T00:00:00	2024-11-08T01:00:00	6	Velocidad del viento	0
66678	7	Sololá	701	Sololá	1	Sololá	12	Diciembre	2023-12-25T00:00:00	2024-11-08T01:00:00	7	Dirección del viento	0
66679	7	Sololá	701	Sololá	1	Sololá	12	Diciembre	2023-12-25T00:00:00	2024-11-08T01:00:00	1	Precipitación	0
66680	7	Sololá	701	Sololá	1	Sololá	12	Diciembre	2023-12-25T00:00:00	2024-11-08T01:00:00	8	Radiación solar	0
66681	7	Sololá	701	Sololá	1	Sololá	12	Diciembre	2023-12-25T00:00:00	2024-11-08T02:00:00	2	Temperatura media	11.8
66682	7	Sololá	701	Sololá	1	Sololá	12	Diciembre	2023-12-25T00:00:00	2024-11-08T02:00:00	4	Temperatura máxima	11.9
66683	7	Sololá	701	Sololá	1	Sololá	12	Diciembre	2023-12-25T00:00:00	2024-11-08T02:00:00	3	Temperatura mínima	11.2
66684	7	Sololá	701	Sololá	1	Sololá	12	Diciembre	2023-12-25T00:00:00	2024-11-08T02:00:00	5	Humedad	75
66685	7	Sololá	701	Sololá	1	Sololá	12	Diciembre	2023-12-25T00:00:00	2024-11-08T02:00:00	6	Velocidad del viento	0
66686	7	Sololá	701	Sololá	1	Sololá	12	Diciembre	2023-12-25T00:00:00	2024-11-08T02:00:00	7	Dirección del viento	0
66687	7	Sololá	701	Sololá	1	Sololá	12	Diciembre	2023-12-25T00:00:00	2024-11-08T02:00:00	1	Precipitación	0
66688	7	Sololá	701	Sololá	1	Sololá	12	Diciembre	2023-12-25T00:00:00	2024-11-08T02:00:00	8	Radiación solar	0
66689	7	Sololá	701	Sololá	1	Sololá	12	Diciembre	2023-12-25T00:00:00	2024-11-08T03:00:00	2	Temperatura media	11.5
66690	7	Sololá	701	Sololá	1	Sololá	12	Diciembre	2023-12-25T00:00:00	2024-11-08T03:00:00	4	Temperatura máxima	11.8
66691	7	Sololá	701	Sololá	1	Sololá	12	Diciembre	2023-12-25T00:00:00	2024-11-08T03:00:00	3	Temperatura mínima	11.3
66692	7	Sololá	701	Sololá	1	Sololá	12	Diciembre	2023-12-25T00:00:00	2024-11-08T03:00:00	5	Humedad	78
66693	7	Sololá	701	Sololá	1	Sololá	12	Diciembre	2023-12-25T00:00:00	2024-11-08T03:00:00	6	Velocidad del viento	1.6
66694	7	Sololá	701	Sololá	1	Sololá	12	Diciembre	2023-12-25T00:00:00	2024-11-08T03:00:00	7	Dirección del viento	1.61
66695	7	Sololá	701	Sololá	1	Sololá	12	Diciembre	2023-12-25T00:00:00	2024-11-08T03:00:00	1	Precipitación	0
66696	7	Sololá	701	Sololá	1	Sololá	12	Diciembre	2023-12-25T00:00:00	2024-11-08T03:00:00	8	Radiación solar	0
66697	7	Sololá	701	Sololá	1	Sololá	12	Diciembre	2023-12-25T00:00:00	2024-11-08T04:00:00	2	Temperatura media	12.4
66698	7	Sololá	701	Sololá	1	Sololá	12	Diciembre	2023-12-25T00:00:00	2024-11-08T04:00:00	4	Temperatura máxima	12.4
66699	7	Sololá	701	Sololá	1	Sololá	12	Diciembre	2023-12-25T00:00:00	2024-11-08T04:00:00	3	Temperatura mínima	11.5
66700	7	Sololá	701	Sololá	1	Sololá	12	Diciembre	2023-12-25T00:00:00	2024-11-08T04:00:00	5	Humedad	90
66701	7	Sololá	701	Sololá	1	Sololá	12	Diciembre	2023-12-25T00:00:00	2024-11-08T04:00:00	6	Velocidad del viento	0
66702	7	Sololá	701	Sololá	1	Sololá	12	Diciembre	2023-12-25T00:00:00	2024-11-08T04:00:00	7	Dirección del viento	0
66703	7	Sololá	701	Sololá	1	Sololá	12	Diciembre	2023-12-25T00:00:00	2024-11-08T04:00:00	1	Precipitación	0
66704	7	Sololá	701	Sololá	1	Sololá	12	Diciembre	2023-12-25T00:00:00	2024-11-08T04:00:00	8	Radiación solar	0
66705	7	Sololá	701	Sololá	1	Sololá	12	Diciembre	2023-12-25T00:00:00	2024-11-08T05:00:00	2	Temperatura media	11
66706	7	Sololá	701	Sololá	1	Sololá	12	Diciembre	2023-12-25T00:00:00	2024-11-08T05:00:00	4	Temperatura máxima	12.4
66707	7	Sololá	701	Sololá	1	Sololá	12	Diciembre	2023-12-25T00:00:00	2024-11-08T05:00:00	3	Temperatura mínima	11
66708	7	Sololá	701	Sololá	1	Sololá	12	Diciembre	2023-12-25T00:00:00	2024-11-08T05:00:00	5	Humedad	89
66709	7	Sololá	701	Sololá	1	Sololá	12	Diciembre	2023-12-25T00:00:00	2024-11-08T05:00:00	6	Velocidad del viento	0
66710	7	Sololá	701	Sololá	1	Sololá	12	Diciembre	2023-12-25T00:00:00	2024-11-08T05:00:00	7	Dirección del viento	0
66711	7	Sololá	701	Sololá	1	Sololá	12	Diciembre	2023-12-25T00:00:00	2024-11-08T05:00:00	1	Precipitación	0
66712	7	Sololá	701	Sololá	1	Sololá	12	Diciembre	2023-12-25T00:00:00	2024-11-08T05:00:00	8	Radiación solar	0
66713	7	Sololá	701	Sololá	1	Sololá	12	Diciembre	2023-12-25T00:00:00	2024-11-08T06:00:00	2	Temperatura media	10.3
66714	7	Sololá	701	Sololá	1	Sololá	12	Diciembre	2023-12-25T00:00:00	2024-11-08T06:00:00	4	Temperatura máxima	10.9
66715	7	Sololá	701	Sololá	1	Sololá	12	Diciembre	2023-12-25T00:00:00	2024-11-08T06:00:00	3	Temperatura mínima	10.2
66716	7	Sololá	701	Sololá	1	Sololá	12	Diciembre	2023-12-25T00:00:00	2024-11-08T06:00:00	5	Humedad	87
66717	7	Sololá	701	Sololá	1	Sololá	12	Diciembre	2023-12-25T00:00:00	2024-11-08T06:00:00	6	Velocidad del viento	0
66718	7	Sololá	701	Sololá	1	Sololá	12	Diciembre	2023-12-25T00:00:00	2024-11-08T06:00:00	7	Dirección del viento	0
66719	7	Sololá	701	Sololá	1	Sololá	12	Diciembre	2023-12-25T00:00:00	2024-11-08T06:00:00	1	Precipitación	0
66720	7	Sololá	701	Sololá	1	Sololá	12	Diciembre	2023-12-25T00:00:00	2024-11-08T06:00:00	8	Radiación solar	0
66721	7	Sololá	701	Sololá	1	Sololá	12	Diciembre	2023-12-25T00:00:00	2024-11-08T07:00:00	2	Temperatura media	11.2
66722	7	Sololá	701	Sololá	1	Sololá	12	Diciembre	2023-12-25T00:00:00	2024-11-08T07:00:00	4	Temperatura máxima	11.2
66723	7	Sololá	701	Sololá	1	Sololá	12	Diciembre	2023-12-25T00:00:00	2024-11-08T07:00:00	3	Temperatura mínima	10.3
66724	7	Sololá	701	Sololá	1	Sololá	12	Diciembre	2023-12-25T00:00:00	2024-11-08T07:00:00	5	Humedad	91
66725	7	Sololá	701	Sololá	1	Sololá	12	Diciembre	2023-12-25T00:00:00	2024-11-08T07:00:00	6	Velocidad del viento	1.6
66726	7	Sololá	701	Sololá	1	Sololá	12	Diciembre	2023-12-25T00:00:00	2024-11-08T07:00:00	7	Dirección del viento	1.61
66727	7	Sololá	701	Sololá	1	Sololá	12	Diciembre	2023-12-25T00:00:00	2024-11-08T07:00:00	1	Precipitación	0
66728	7	Sololá	701	Sololá	1	Sololá	12	Diciembre	2023-12-25T00:00:00	2024-11-08T07:00:00	8	Radiación solar	4
66729	7	Sololá	701	Sololá	1	Sololá	12	Diciembre	2023-12-25T00:00:00	2024-11-08T08:00:00	2	Temperatura media	12.9
66730	7	Sololá	701	Sololá	1	Sololá	12	Diciembre	2023-12-25T00:00:00	2024-11-08T08:00:00	4	Temperatura máxima	12.9
66731	7	Sololá	701	Sololá	1	Sololá	12	Diciembre	2023-12-25T00:00:00	2024-11-08T08:00:00	3	Temperatura mínima	11.2
66732	7	Sololá	701	Sololá	1	Sololá	12	Diciembre	2023-12-25T00:00:00	2024-11-08T08:00:00	5	Humedad	91
66733	7	Sololá	701	Sololá	1	Sololá	12	Diciembre	2023-12-25T00:00:00	2024-11-08T08:00:00	6	Velocidad del viento	0
66734	7	Sololá	701	Sololá	1	Sololá	12	Diciembre	2023-12-25T00:00:00	2024-11-08T08:00:00	7	Dirección del viento	0
66735	7	Sololá	701	Sololá	1	Sololá	12	Diciembre	2023-12-25T00:00:00	2024-11-08T08:00:00	1	Precipitación	0
66736	7	Sololá	701	Sololá	1	Sololá	12	Diciembre	2023-12-25T00:00:00	2024-11-08T08:00:00	8	Radiación solar	55
66737	7	Sololá	701	Sololá	1	Sololá	12	Diciembre	2023-12-25T00:00:00	2024-11-08T09:00:00	2	Temperatura media	17.6
66738	7	Sololá	701	Sololá	1	Sololá	12	Diciembre	2023-12-25T00:00:00	2024-11-08T09:00:00	4	Temperatura máxima	17.6
66739	7	Sololá	701	Sololá	1	Sololá	12	Diciembre	2023-12-25T00:00:00	2024-11-08T09:00:00	3	Temperatura mínima	12.9
66740	7	Sololá	701	Sololá	1	Sololá	12	Diciembre	2023-12-25T00:00:00	2024-11-08T09:00:00	5	Humedad	78
66741	7	Sololá	701	Sololá	1	Sololá	12	Diciembre	2023-12-25T00:00:00	2024-11-08T09:00:00	6	Velocidad del viento	0
66742	7	Sololá	701	Sololá	1	Sololá	12	Diciembre	2023-12-25T00:00:00	2024-11-08T09:00:00	7	Dirección del viento	0
66743	7	Sololá	701	Sololá	1	Sololá	12	Diciembre	2023-12-25T00:00:00	2024-11-08T09:00:00	1	Precipitación	0
66744	7	Sololá	701	Sololá	1	Sololá	12	Diciembre	2023-12-25T00:00:00	2024-11-08T09:00:00	8	Radiación solar	342
66745	7	Sololá	701	Sololá	1	Sololá	12	Diciembre	2023-12-25T00:00:00	2024-11-08T10:00:00	2	Temperatura media	19.2
66746	7	Sololá	701	Sololá	1	Sololá	12	Diciembre	2023-12-25T00:00:00	2024-11-08T10:00:00	4	Temperatura máxima	19.2
66747	7	Sololá	701	Sololá	1	Sololá	12	Diciembre	2023-12-25T00:00:00	2024-11-08T10:00:00	3	Temperatura mínima	17.6
66748	7	Sololá	701	Sololá	1	Sololá	12	Diciembre	2023-12-25T00:00:00	2024-11-08T10:00:00	5	Humedad	68
66749	7	Sololá	701	Sololá	1	Sololá	12	Diciembre	2023-12-25T00:00:00	2024-11-08T10:00:00	6	Velocidad del viento	0
66750	7	Sololá	701	Sololá	1	Sololá	12	Diciembre	2023-12-25T00:00:00	2024-11-08T10:00:00	7	Dirección del viento	0
66751	7	Sololá	701	Sololá	1	Sololá	12	Diciembre	2023-12-25T00:00:00	2024-11-08T10:00:00	1	Precipitación	0
66752	7	Sololá	701	Sololá	1	Sololá	12	Diciembre	2023-12-25T00:00:00	2024-11-08T10:00:00	8	Radiación solar	671
66753	7	Sololá	701	Sololá	1	Sololá	12	Diciembre	2023-12-25T00:00:00	2024-11-08T11:00:00	2	Temperatura media	20.7
66754	7	Sololá	701	Sololá	1	Sololá	12	Diciembre	2023-12-25T00:00:00	2024-11-08T11:00:00	4	Temperatura máxima	20.7
66755	7	Sololá	701	Sololá	1	Sololá	12	Diciembre	2023-12-25T00:00:00	2024-11-08T11:00:00	3	Temperatura mínima	19.1
66756	7	Sololá	701	Sololá	1	Sololá	12	Diciembre	2023-12-25T00:00:00	2024-11-08T11:00:00	5	Humedad	66
66757	7	Sololá	701	Sololá	1	Sololá	12	Diciembre	2023-12-25T00:00:00	2024-11-08T11:00:00	6	Velocidad del viento	0
66758	7	Sololá	701	Sololá	1	Sololá	12	Diciembre	2023-12-25T00:00:00	2024-11-08T11:00:00	7	Dirección del viento	0
66759	7	Sololá	701	Sololá	1	Sololá	12	Diciembre	2023-12-25T00:00:00	2024-11-08T11:00:00	1	Precipitación	0
66760	7	Sololá	701	Sololá	1	Sololá	12	Diciembre	2023-12-25T00:00:00	2024-11-08T11:00:00	8	Radiación solar	785
66761	7	Sololá	701	Sololá	1	Sololá	12	Diciembre	2023-12-25T00:00:00	2024-11-08T12:00:00	2	Temperatura media	21.2
66762	7	Sololá	701	Sololá	1	Sololá	12	Diciembre	2023-12-25T00:00:00	2024-11-08T12:00:00	4	Temperatura máxima	21.2
66763	7	Sololá	701	Sololá	1	Sololá	12	Diciembre	2023-12-25T00:00:00	2024-11-08T12:00:00	3	Temperatura mínima	20.6
66764	7	Sololá	701	Sololá	1	Sololá	12	Diciembre	2023-12-25T00:00:00	2024-11-08T12:00:00	5	Humedad	64
66765	7	Sololá	701	Sololá	1	Sololá	12	Diciembre	2023-12-25T00:00:00	2024-11-08T12:00:00	6	Velocidad del viento	0
66766	7	Sololá	701	Sololá	1	Sololá	12	Diciembre	2023-12-25T00:00:00	2024-11-08T12:00:00	7	Dirección del viento	0
66767	7	Sololá	701	Sololá	1	Sololá	12	Diciembre	2023-12-25T00:00:00	2024-11-08T12:00:00	1	Precipitación	0
66768	7	Sololá	701	Sololá	1	Sololá	12	Diciembre	2023-12-25T00:00:00	2024-11-08T12:00:00	8	Radiación solar	838
66769	7	Sololá	701	Sololá	1	Sololá	12	Diciembre	2023-12-25T00:00:00	2024-11-08T13:00:00	2	Temperatura media	21.3
66770	7	Sololá	701	Sololá	1	Sololá	12	Diciembre	2023-12-25T00:00:00	2024-11-08T13:00:00	4	Temperatura máxima	21.6
66771	7	Sololá	701	Sololá	1	Sololá	12	Diciembre	2023-12-25T00:00:00	2024-11-08T13:00:00	3	Temperatura mínima	21.2
66772	7	Sololá	701	Sololá	1	Sololá	12	Diciembre	2023-12-25T00:00:00	2024-11-08T13:00:00	5	Humedad	68
66773	7	Sololá	701	Sololá	1	Sololá	12	Diciembre	2023-12-25T00:00:00	2024-11-08T13:00:00	6	Velocidad del viento	0
66774	7	Sololá	701	Sololá	1	Sololá	12	Diciembre	2023-12-25T00:00:00	2024-11-08T13:00:00	7	Dirección del viento	0
66775	7	Sololá	701	Sololá	1	Sololá	12	Diciembre	2023-12-25T00:00:00	2024-11-08T13:00:00	1	Precipitación	0
66776	7	Sololá	701	Sololá	1	Sololá	12	Diciembre	2023-12-25T00:00:00	2024-11-08T13:00:00	8	Radiación solar	723
66777	7	Sololá	701	Sololá	1	Sololá	12	Diciembre	2023-12-25T00:00:00	2024-11-08T14:00:00	2	Temperatura media	22.2
66778	7	Sololá	701	Sololá	1	Sololá	12	Diciembre	2023-12-25T00:00:00	2024-11-08T14:00:00	4	Temperatura máxima	22.3
66779	7	Sololá	701	Sololá	1	Sololá	12	Diciembre	2023-12-25T00:00:00	2024-11-08T14:00:00	3	Temperatura mínima	21.2
66780	7	Sololá	701	Sololá	1	Sololá	12	Diciembre	2023-12-25T00:00:00	2024-11-08T14:00:00	5	Humedad	67
66781	7	Sololá	701	Sololá	1	Sololá	12	Diciembre	2023-12-25T00:00:00	2024-11-08T14:00:00	6	Velocidad del viento	0
66782	7	Sololá	701	Sololá	1	Sololá	12	Diciembre	2023-12-25T00:00:00	2024-11-08T14:00:00	7	Dirección del viento	0
66783	7	Sololá	701	Sololá	1	Sololá	12	Diciembre	2023-12-25T00:00:00	2024-11-08T14:00:00	1	Precipitación	0
66784	7	Sololá	701	Sololá	1	Sololá	12	Diciembre	2023-12-25T00:00:00	2024-11-08T14:00:00	8	Radiación solar	683
66785	7	Sololá	701	Sololá	1	Sololá	12	Diciembre	2023-12-25T00:00:00	2024-11-08T15:00:00	2	Temperatura media	19.6
66786	7	Sololá	701	Sololá	1	Sololá	12	Diciembre	2023-12-25T00:00:00	2024-11-08T15:00:00	4	Temperatura máxima	22.2
66787	7	Sololá	701	Sololá	1	Sololá	12	Diciembre	2023-12-25T00:00:00	2024-11-08T15:00:00	3	Temperatura mínima	19.6
66788	7	Sololá	701	Sololá	1	Sololá	12	Diciembre	2023-12-25T00:00:00	2024-11-08T15:00:00	5	Humedad	75
66789	7	Sololá	701	Sololá	1	Sololá	12	Diciembre	2023-12-25T00:00:00	2024-11-08T15:00:00	6	Velocidad del viento	0
66790	7	Sololá	701	Sololá	1	Sololá	12	Diciembre	2023-12-25T00:00:00	2024-11-08T15:00:00	7	Dirección del viento	0
66791	7	Sololá	701	Sololá	1	Sololá	12	Diciembre	2023-12-25T00:00:00	2024-11-08T15:00:00	1	Precipitación	0
66792	7	Sololá	701	Sololá	1	Sololá	12	Diciembre	2023-12-25T00:00:00	2024-11-08T15:00:00	8	Radiación solar	300
66793	7	Sololá	701	Sololá	1	Sololá	12	Diciembre	2023-12-25T00:00:00	2024-11-08T16:00:00	2	Temperatura media	18.5
66794	7	Sololá	701	Sololá	1	Sololá	12	Diciembre	2023-12-25T00:00:00	2024-11-08T16:00:00	4	Temperatura máxima	19.6
66795	7	Sololá	701	Sololá	1	Sololá	12	Diciembre	2023-12-25T00:00:00	2024-11-08T16:00:00	3	Temperatura mínima	18.5
66796	7	Sololá	701	Sololá	1	Sololá	12	Diciembre	2023-12-25T00:00:00	2024-11-08T16:00:00	5	Humedad	80
66797	7	Sololá	701	Sololá	1	Sololá	12	Diciembre	2023-12-25T00:00:00	2024-11-08T16:00:00	6	Velocidad del viento	0
66798	7	Sololá	701	Sololá	1	Sololá	12	Diciembre	2023-12-25T00:00:00	2024-11-08T16:00:00	7	Dirección del viento	0
66799	7	Sololá	701	Sololá	1	Sololá	12	Diciembre	2023-12-25T00:00:00	2024-11-08T16:00:00	1	Precipitación	0
66800	7	Sololá	701	Sololá	1	Sololá	12	Diciembre	2023-12-25T00:00:00	2024-11-08T16:00:00	8	Radiación solar	145
66801	7	Sololá	701	Sololá	1	Sololá	12	Diciembre	2023-12-25T00:00:00	2024-11-08T17:00:00	2	Temperatura media	16.9
66802	7	Sololá	701	Sololá	1	Sololá	12	Diciembre	2023-12-25T00:00:00	2024-11-08T17:00:00	4	Temperatura máxima	18.5
66803	7	Sololá	701	Sololá	1	Sololá	12	Diciembre	2023-12-25T00:00:00	2024-11-08T17:00:00	3	Temperatura mínima	16.9
66804	7	Sololá	701	Sololá	1	Sololá	12	Diciembre	2023-12-25T00:00:00	2024-11-08T17:00:00	5	Humedad	86
66805	7	Sololá	701	Sololá	1	Sololá	12	Diciembre	2023-12-25T00:00:00	2024-11-08T17:00:00	6	Velocidad del viento	0
66806	7	Sololá	701	Sololá	1	Sololá	12	Diciembre	2023-12-25T00:00:00	2024-11-08T17:00:00	7	Dirección del viento	0
66807	7	Sololá	701	Sololá	1	Sololá	12	Diciembre	2023-12-25T00:00:00	2024-11-08T17:00:00	1	Precipitación	0
66808	7	Sololá	701	Sololá	1	Sololá	12	Diciembre	2023-12-25T00:00:00	2024-11-08T17:00:00	8	Radiación solar	68
66809	7	Sololá	701	Sololá	1	Sololá	12	Diciembre	2023-12-25T00:00:00	2024-11-08T18:00:00	2	Temperatura media	15.8
66810	7	Sololá	701	Sololá	1	Sololá	12	Diciembre	2023-12-25T00:00:00	2024-11-08T18:00:00	4	Temperatura máxima	16.9
66811	7	Sololá	701	Sololá	1	Sololá	12	Diciembre	2023-12-25T00:00:00	2024-11-08T18:00:00	3	Temperatura mínima	15.8
66812	7	Sololá	701	Sololá	1	Sololá	12	Diciembre	2023-12-25T00:00:00	2024-11-08T18:00:00	5	Humedad	89
66813	7	Sololá	701	Sololá	1	Sololá	12	Diciembre	2023-12-25T00:00:00	2024-11-08T18:00:00	6	Velocidad del viento	0
66814	7	Sololá	701	Sololá	1	Sololá	12	Diciembre	2023-12-25T00:00:00	2024-11-08T18:00:00	7	Dirección del viento	0
66815	7	Sololá	701	Sololá	1	Sololá	12	Diciembre	2023-12-25T00:00:00	2024-11-08T18:00:00	1	Precipitación	0
66816	7	Sololá	701	Sololá	1	Sololá	12	Diciembre	2023-12-25T00:00:00	2024-11-08T18:00:00	8	Radiación solar	6
66817	7	Sololá	701	Sololá	1	Sololá	12	Diciembre	2023-12-25T00:00:00	2024-11-08T19:00:00	2	Temperatura media	15.1
66818	7	Sololá	701	Sololá	1	Sololá	12	Diciembre	2023-12-25T00:00:00	2024-11-08T19:00:00	4	Temperatura máxima	15.8
66819	7	Sololá	701	Sololá	1	Sololá	12	Diciembre	2023-12-25T00:00:00	2024-11-08T19:00:00	3	Temperatura mínima	15.1
66820	7	Sololá	701	Sololá	1	Sololá	12	Diciembre	2023-12-25T00:00:00	2024-11-08T19:00:00	5	Humedad	90
66821	7	Sololá	701	Sololá	1	Sololá	12	Diciembre	2023-12-25T00:00:00	2024-11-08T19:00:00	6	Velocidad del viento	0
66822	7	Sololá	701	Sololá	1	Sololá	12	Diciembre	2023-12-25T00:00:00	2024-11-08T19:00:00	7	Dirección del viento	0
66823	7	Sololá	701	Sololá	1	Sololá	12	Diciembre	2023-12-25T00:00:00	2024-11-08T19:00:00	1	Precipitación	0
66824	7	Sololá	701	Sololá	1	Sololá	12	Diciembre	2023-12-25T00:00:00	2024-11-08T19:00:00	8	Radiación solar	0
66825	7	Sololá	701	Sololá	1	Sololá	12	Diciembre	2023-12-25T00:00:00	2024-11-08T20:00:00	2	Temperatura media	13.7
66826	7	Sololá	701	Sololá	1	Sololá	12	Diciembre	2023-12-25T00:00:00	2024-11-08T20:00:00	4	Temperatura máxima	15.1
66827	7	Sololá	701	Sololá	1	Sololá	12	Diciembre	2023-12-25T00:00:00	2024-11-08T20:00:00	3	Temperatura mínima	13.7
66828	7	Sololá	701	Sololá	1	Sololá	12	Diciembre	2023-12-25T00:00:00	2024-11-08T20:00:00	5	Humedad	90
66829	7	Sololá	701	Sololá	1	Sololá	12	Diciembre	2023-12-25T00:00:00	2024-11-08T20:00:00	6	Velocidad del viento	0
66830	7	Sololá	701	Sololá	1	Sololá	12	Diciembre	2023-12-25T00:00:00	2024-11-08T20:00:00	7	Dirección del viento	0
66831	7	Sololá	701	Sololá	1	Sololá	12	Diciembre	2023-12-25T00:00:00	2024-11-08T20:00:00	1	Precipitación	0
66832	7	Sololá	701	Sololá	1	Sololá	12	Diciembre	2023-12-25T00:00:00	2024-11-08T20:00:00	8	Radiación solar	0
66833	7	Sololá	701	Sololá	1	Sololá	12	Diciembre	2023-12-25T00:00:00	2024-11-08T21:00:00	2	Temperatura media	13
66834	7	Sololá	701	Sololá	1	Sololá	12	Diciembre	2023-12-25T00:00:00	2024-11-08T21:00:00	4	Temperatura máxima	13.7
66835	7	Sololá	701	Sololá	1	Sololá	12	Diciembre	2023-12-25T00:00:00	2024-11-08T21:00:00	3	Temperatura mínima	13
66836	7	Sololá	701	Sololá	1	Sololá	12	Diciembre	2023-12-25T00:00:00	2024-11-08T21:00:00	5	Humedad	88
66837	7	Sololá	701	Sololá	1	Sololá	12	Diciembre	2023-12-25T00:00:00	2024-11-08T21:00:00	6	Velocidad del viento	0
66838	7	Sololá	701	Sololá	1	Sololá	12	Diciembre	2023-12-25T00:00:00	2024-11-08T21:00:00	7	Dirección del viento	0
66839	7	Sololá	701	Sololá	1	Sololá	12	Diciembre	2023-12-25T00:00:00	2024-11-08T21:00:00	1	Precipitación	0
66840	7	Sololá	701	Sololá	1	Sololá	12	Diciembre	2023-12-25T00:00:00	2024-11-08T21:00:00	8	Radiación solar	0
66841	7	Sololá	701	Sololá	1	Sololá	12	Diciembre	2023-12-25T00:00:00	2024-11-08T22:00:00	2	Temperatura media	12.5
66842	7	Sololá	701	Sololá	1	Sololá	12	Diciembre	2023-12-25T00:00:00	2024-11-08T22:00:00	4	Temperatura máxima	13
66843	7	Sololá	701	Sololá	1	Sololá	12	Diciembre	2023-12-25T00:00:00	2024-11-08T22:00:00	3	Temperatura mínima	12.5
66844	7	Sololá	701	Sololá	1	Sololá	12	Diciembre	2023-12-25T00:00:00	2024-11-08T22:00:00	5	Humedad	87
66845	7	Sololá	701	Sololá	1	Sololá	12	Diciembre	2023-12-25T00:00:00	2024-11-08T22:00:00	6	Velocidad del viento	0
66846	7	Sololá	701	Sololá	1	Sololá	12	Diciembre	2023-12-25T00:00:00	2024-11-08T22:00:00	7	Dirección del viento	0
66847	7	Sololá	701	Sololá	1	Sololá	12	Diciembre	2023-12-25T00:00:00	2024-11-08T22:00:00	1	Precipitación	0
66848	7	Sololá	701	Sololá	1	Sololá	12	Diciembre	2023-12-25T00:00:00	2024-11-08T22:00:00	8	Radiación solar	0
66849	7	Sololá	701	Sololá	1	Sololá	12	Diciembre	2023-12-25T00:00:00	2024-11-08T23:00:00	2	Temperatura media	12.9
66850	7	Sololá	701	Sololá	1	Sololá	12	Diciembre	2023-12-25T00:00:00	2024-11-08T23:00:00	4	Temperatura máxima	13
66851	7	Sololá	701	Sololá	1	Sololá	12	Diciembre	2023-12-25T00:00:00	2024-11-08T23:00:00	3	Temperatura mínima	12.4
66852	7	Sololá	701	Sololá	1	Sololá	12	Diciembre	2023-12-25T00:00:00	2024-11-08T23:00:00	5	Humedad	84
66853	7	Sololá	701	Sololá	1	Sololá	12	Diciembre	2023-12-25T00:00:00	2024-11-08T23:00:00	6	Velocidad del viento	0
66854	7	Sololá	701	Sololá	1	Sololá	12	Diciembre	2023-12-25T00:00:00	2024-11-08T23:00:00	7	Dirección del viento	0
66855	7	Sololá	701	Sololá	1	Sololá	12	Diciembre	2023-12-25T00:00:00	2024-11-08T23:00:00	1	Precipitación	0
66856	7	Sololá	701	Sololá	1	Sololá	12	Diciembre	2023-12-25T00:00:00	2024-11-08T23:00:00	8	Radiación solar	0
66857	7	Sololá	701	Sololá	1	Sololá	12	Diciembre	2023-12-26T00:00:00	2024-11-08T00:00:00	2	Temperatura media	12.3
66858	7	Sololá	701	Sololá	1	Sololá	12	Diciembre	2023-12-26T00:00:00	2024-11-08T00:00:00	4	Temperatura máxima	12.9
66859	7	Sololá	701	Sololá	1	Sololá	12	Diciembre	2023-12-26T00:00:00	2024-11-08T00:00:00	3	Temperatura mínima	12.3
66860	7	Sololá	701	Sololá	1	Sololá	12	Diciembre	2023-12-26T00:00:00	2024-11-08T00:00:00	5	Humedad	86
66861	7	Sololá	701	Sololá	1	Sololá	12	Diciembre	2023-12-26T00:00:00	2024-11-08T00:00:00	6	Velocidad del viento	0
66862	7	Sololá	701	Sololá	1	Sololá	12	Diciembre	2023-12-26T00:00:00	2024-11-08T00:00:00	7	Dirección del viento	0
66863	7	Sololá	701	Sololá	1	Sololá	12	Diciembre	2023-12-26T00:00:00	2024-11-08T00:00:00	1	Precipitación	0
66864	7	Sololá	701	Sololá	1	Sololá	12	Diciembre	2023-12-26T00:00:00	2024-11-08T00:00:00	8	Radiación solar	0
66865	7	Sololá	701	Sololá	1	Sololá	12	Diciembre	2023-12-26T00:00:00	2024-11-08T01:00:00	2	Temperatura media	11.7
66866	7	Sololá	701	Sololá	1	Sololá	12	Diciembre	2023-12-26T00:00:00	2024-11-08T01:00:00	4	Temperatura máxima	12.3
66867	7	Sololá	701	Sololá	1	Sololá	12	Diciembre	2023-12-26T00:00:00	2024-11-08T01:00:00	3	Temperatura mínima	11.7
66868	7	Sololá	701	Sololá	1	Sololá	12	Diciembre	2023-12-26T00:00:00	2024-11-08T01:00:00	5	Humedad	88
66869	7	Sololá	701	Sololá	1	Sololá	12	Diciembre	2023-12-26T00:00:00	2024-11-08T01:00:00	6	Velocidad del viento	0
66870	7	Sololá	701	Sololá	1	Sololá	12	Diciembre	2023-12-26T00:00:00	2024-11-08T01:00:00	7	Dirección del viento	0
66871	7	Sololá	701	Sololá	1	Sololá	12	Diciembre	2023-12-26T00:00:00	2024-11-08T01:00:00	1	Precipitación	0
66872	7	Sololá	701	Sololá	1	Sololá	12	Diciembre	2023-12-26T00:00:00	2024-11-08T01:00:00	8	Radiación solar	0
66873	7	Sololá	701	Sololá	1	Sololá	12	Diciembre	2023-12-26T00:00:00	2024-11-08T02:00:00	2	Temperatura media	11.7
66874	7	Sololá	701	Sololá	1	Sololá	12	Diciembre	2023-12-26T00:00:00	2024-11-08T02:00:00	4	Temperatura máxima	11.8
66875	7	Sololá	701	Sololá	1	Sololá	12	Diciembre	2023-12-26T00:00:00	2024-11-08T02:00:00	3	Temperatura mínima	11.6
66876	7	Sololá	701	Sololá	1	Sololá	12	Diciembre	2023-12-26T00:00:00	2024-11-08T02:00:00	5	Humedad	88
66877	7	Sololá	701	Sololá	1	Sololá	12	Diciembre	2023-12-26T00:00:00	2024-11-08T02:00:00	6	Velocidad del viento	0
66878	7	Sololá	701	Sololá	1	Sololá	12	Diciembre	2023-12-26T00:00:00	2024-11-08T02:00:00	7	Dirección del viento	0
66879	7	Sololá	701	Sololá	1	Sololá	12	Diciembre	2023-12-26T00:00:00	2024-11-08T02:00:00	1	Precipitación	0
66880	7	Sololá	701	Sololá	1	Sololá	12	Diciembre	2023-12-26T00:00:00	2024-11-08T02:00:00	8	Radiación solar	0
66881	7	Sololá	701	Sololá	1	Sololá	12	Diciembre	2023-12-26T00:00:00	2024-11-08T03:00:00	2	Temperatura media	11.3
66882	7	Sololá	701	Sololá	1	Sololá	12	Diciembre	2023-12-26T00:00:00	2024-11-08T03:00:00	4	Temperatura máxima	11.7
66883	7	Sololá	701	Sololá	1	Sololá	12	Diciembre	2023-12-26T00:00:00	2024-11-08T03:00:00	3	Temperatura mínima	11.3
66884	7	Sololá	701	Sololá	1	Sololá	12	Diciembre	2023-12-26T00:00:00	2024-11-08T03:00:00	5	Humedad	88
66885	7	Sololá	701	Sololá	1	Sololá	12	Diciembre	2023-12-26T00:00:00	2024-11-08T03:00:00	6	Velocidad del viento	0
66886	7	Sololá	701	Sololá	1	Sololá	12	Diciembre	2023-12-26T00:00:00	2024-11-08T03:00:00	7	Dirección del viento	0
66887	7	Sololá	701	Sololá	1	Sololá	12	Diciembre	2023-12-26T00:00:00	2024-11-08T03:00:00	1	Precipitación	0
66888	7	Sololá	701	Sololá	1	Sololá	12	Diciembre	2023-12-26T00:00:00	2024-11-08T03:00:00	8	Radiación solar	0
66889	7	Sololá	701	Sololá	1	Sololá	12	Diciembre	2023-12-26T00:00:00	2024-11-08T04:00:00	2	Temperatura media	10.6
66890	7	Sololá	701	Sololá	1	Sololá	12	Diciembre	2023-12-26T00:00:00	2024-11-08T04:00:00	4	Temperatura máxima	11.3
66891	7	Sololá	701	Sololá	1	Sololá	12	Diciembre	2023-12-26T00:00:00	2024-11-08T04:00:00	3	Temperatura mínima	10.6
66892	7	Sololá	701	Sololá	1	Sololá	12	Diciembre	2023-12-26T00:00:00	2024-11-08T04:00:00	5	Humedad	89
66893	7	Sololá	701	Sololá	1	Sololá	12	Diciembre	2023-12-26T00:00:00	2024-11-08T04:00:00	6	Velocidad del viento	0
66894	7	Sololá	701	Sololá	1	Sololá	12	Diciembre	2023-12-26T00:00:00	2024-11-08T04:00:00	7	Dirección del viento	0
66895	7	Sololá	701	Sololá	1	Sololá	12	Diciembre	2023-12-26T00:00:00	2024-11-08T04:00:00	1	Precipitación	0
66896	7	Sololá	701	Sololá	1	Sololá	12	Diciembre	2023-12-26T00:00:00	2024-11-08T04:00:00	8	Radiación solar	0
66897	7	Sololá	701	Sololá	1	Sololá	12	Diciembre	2023-12-26T00:00:00	2024-11-08T05:00:00	2	Temperatura media	10.6
66898	7	Sololá	701	Sololá	1	Sololá	12	Diciembre	2023-12-26T00:00:00	2024-11-08T05:00:00	4	Temperatura máxima	10.7
66899	7	Sololá	701	Sololá	1	Sololá	12	Diciembre	2023-12-26T00:00:00	2024-11-08T05:00:00	3	Temperatura mínima	10.6
66900	7	Sololá	701	Sololá	1	Sololá	12	Diciembre	2023-12-26T00:00:00	2024-11-08T05:00:00	5	Humedad	89
66901	7	Sololá	701	Sololá	1	Sololá	12	Diciembre	2023-12-26T00:00:00	2024-11-08T05:00:00	6	Velocidad del viento	0
66902	7	Sololá	701	Sololá	1	Sololá	12	Diciembre	2023-12-26T00:00:00	2024-11-08T05:00:00	7	Dirección del viento	0
66903	7	Sololá	701	Sololá	1	Sololá	12	Diciembre	2023-12-26T00:00:00	2024-11-08T05:00:00	1	Precipitación	0
66904	7	Sololá	701	Sololá	1	Sololá	12	Diciembre	2023-12-26T00:00:00	2024-11-08T05:00:00	8	Radiación solar	0
66905	7	Sololá	701	Sololá	1	Sololá	12	Diciembre	2023-12-26T00:00:00	2024-11-08T06:00:00	2	Temperatura media	10.4
66906	7	Sololá	701	Sololá	1	Sololá	12	Diciembre	2023-12-26T00:00:00	2024-11-08T06:00:00	4	Temperatura máxima	10.7
66907	7	Sololá	701	Sololá	1	Sololá	12	Diciembre	2023-12-26T00:00:00	2024-11-08T06:00:00	3	Temperatura mínima	10.4
66908	7	Sololá	701	Sololá	1	Sololá	12	Diciembre	2023-12-26T00:00:00	2024-11-08T06:00:00	5	Humedad	88
66909	7	Sololá	701	Sololá	1	Sololá	12	Diciembre	2023-12-26T00:00:00	2024-11-08T06:00:00	6	Velocidad del viento	0
66910	7	Sololá	701	Sololá	1	Sololá	12	Diciembre	2023-12-26T00:00:00	2024-11-08T06:00:00	7	Dirección del viento	0
66911	7	Sololá	701	Sololá	1	Sololá	12	Diciembre	2023-12-26T00:00:00	2024-11-08T06:00:00	1	Precipitación	0
66912	7	Sololá	701	Sololá	1	Sololá	12	Diciembre	2023-12-26T00:00:00	2024-11-08T06:00:00	8	Radiación solar	0
66913	7	Sololá	701	Sololá	1	Sololá	12	Diciembre	2023-12-26T00:00:00	2024-11-08T07:00:00	2	Temperatura media	10.5
66914	7	Sololá	701	Sololá	1	Sololá	12	Diciembre	2023-12-26T00:00:00	2024-11-08T07:00:00	4	Temperatura máxima	10.5
66915	7	Sololá	701	Sololá	1	Sololá	12	Diciembre	2023-12-26T00:00:00	2024-11-08T07:00:00	3	Temperatura mínima	10.3
66916	7	Sololá	701	Sololá	1	Sololá	12	Diciembre	2023-12-26T00:00:00	2024-11-08T07:00:00	5	Humedad	86
66917	7	Sololá	701	Sololá	1	Sololá	12	Diciembre	2023-12-26T00:00:00	2024-11-08T07:00:00	6	Velocidad del viento	0
66918	7	Sololá	701	Sololá	1	Sololá	12	Diciembre	2023-12-26T00:00:00	2024-11-08T07:00:00	7	Dirección del viento	0
66919	7	Sololá	701	Sololá	1	Sololá	12	Diciembre	2023-12-26T00:00:00	2024-11-08T07:00:00	1	Precipitación	0
66920	7	Sololá	701	Sololá	1	Sololá	12	Diciembre	2023-12-26T00:00:00	2024-11-08T07:00:00	8	Radiación solar	5
66921	7	Sololá	701	Sololá	1	Sololá	12	Diciembre	2023-12-26T00:00:00	2024-11-08T08:00:00	2	Temperatura media	12.6
66922	7	Sololá	701	Sololá	1	Sololá	12	Diciembre	2023-12-26T00:00:00	2024-11-08T08:00:00	4	Temperatura máxima	12.6
66923	7	Sololá	701	Sololá	1	Sololá	12	Diciembre	2023-12-26T00:00:00	2024-11-08T08:00:00	3	Temperatura mínima	10.5
66924	7	Sololá	701	Sololá	1	Sololá	12	Diciembre	2023-12-26T00:00:00	2024-11-08T08:00:00	5	Humedad	84
66925	7	Sololá	701	Sololá	1	Sololá	12	Diciembre	2023-12-26T00:00:00	2024-11-08T08:00:00	6	Velocidad del viento	0
66926	7	Sololá	701	Sololá	1	Sololá	12	Diciembre	2023-12-26T00:00:00	2024-11-08T08:00:00	7	Dirección del viento	0
66927	7	Sololá	701	Sololá	1	Sololá	12	Diciembre	2023-12-26T00:00:00	2024-11-08T08:00:00	1	Precipitación	0
66928	7	Sololá	701	Sololá	1	Sololá	12	Diciembre	2023-12-26T00:00:00	2024-11-08T08:00:00	8	Radiación solar	57
66929	7	Sololá	701	Sololá	1	Sololá	12	Diciembre	2023-12-26T00:00:00	2024-11-08T09:00:00	2	Temperatura media	19.2
66930	7	Sololá	701	Sololá	1	Sololá	12	Diciembre	2023-12-26T00:00:00	2024-11-08T09:00:00	4	Temperatura máxima	19.2
66931	7	Sololá	701	Sololá	1	Sololá	12	Diciembre	2023-12-26T00:00:00	2024-11-08T09:00:00	3	Temperatura mínima	12.6
66932	7	Sololá	701	Sololá	1	Sololá	12	Diciembre	2023-12-26T00:00:00	2024-11-08T09:00:00	5	Humedad	64
66933	7	Sololá	701	Sololá	1	Sololá	12	Diciembre	2023-12-26T00:00:00	2024-11-08T09:00:00	6	Velocidad del viento	0
66934	7	Sololá	701	Sololá	1	Sololá	12	Diciembre	2023-12-26T00:00:00	2024-11-08T09:00:00	7	Dirección del viento	0
66935	7	Sololá	701	Sololá	1	Sololá	12	Diciembre	2023-12-26T00:00:00	2024-11-08T09:00:00	1	Precipitación	0
66936	7	Sololá	701	Sololá	1	Sololá	12	Diciembre	2023-12-26T00:00:00	2024-11-08T09:00:00	8	Radiación solar	477
66937	7	Sololá	701	Sololá	1	Sololá	12	Diciembre	2023-12-26T00:00:00	2024-11-08T10:00:00	2	Temperatura media	19.9
66938	7	Sololá	701	Sololá	1	Sololá	12	Diciembre	2023-12-26T00:00:00	2024-11-08T10:00:00	4	Temperatura máxima	20
66939	7	Sololá	701	Sololá	1	Sololá	12	Diciembre	2023-12-26T00:00:00	2024-11-08T10:00:00	3	Temperatura mínima	19.1
66940	7	Sololá	701	Sololá	1	Sololá	12	Diciembre	2023-12-26T00:00:00	2024-11-08T10:00:00	5	Humedad	63
66941	7	Sololá	701	Sololá	1	Sololá	12	Diciembre	2023-12-26T00:00:00	2024-11-08T10:00:00	6	Velocidad del viento	0
66942	7	Sololá	701	Sololá	1	Sololá	12	Diciembre	2023-12-26T00:00:00	2024-11-08T10:00:00	7	Dirección del viento	0
66943	7	Sololá	701	Sololá	1	Sololá	12	Diciembre	2023-12-26T00:00:00	2024-11-08T10:00:00	1	Precipitación	0
66944	7	Sololá	701	Sololá	1	Sololá	12	Diciembre	2023-12-26T00:00:00	2024-11-08T10:00:00	8	Radiación solar	659
66945	7	Sololá	701	Sololá	1	Sololá	12	Diciembre	2023-12-26T00:00:00	2024-11-08T11:00:00	2	Temperatura media	21.7
66946	7	Sololá	701	Sololá	1	Sololá	12	Diciembre	2023-12-26T00:00:00	2024-11-08T11:00:00	4	Temperatura máxima	21.8
66947	7	Sololá	701	Sololá	1	Sololá	12	Diciembre	2023-12-26T00:00:00	2024-11-08T11:00:00	3	Temperatura mínima	19.9
66948	7	Sololá	701	Sololá	1	Sololá	12	Diciembre	2023-12-26T00:00:00	2024-11-08T11:00:00	5	Humedad	54
66949	7	Sololá	701	Sololá	1	Sololá	12	Diciembre	2023-12-26T00:00:00	2024-11-08T11:00:00	6	Velocidad del viento	0
66950	7	Sololá	701	Sololá	1	Sololá	12	Diciembre	2023-12-26T00:00:00	2024-11-08T11:00:00	7	Dirección del viento	0
66951	7	Sololá	701	Sololá	1	Sololá	12	Diciembre	2023-12-26T00:00:00	2024-11-08T11:00:00	1	Precipitación	0
66952	7	Sololá	701	Sololá	1	Sololá	12	Diciembre	2023-12-26T00:00:00	2024-11-08T11:00:00	8	Radiación solar	791
66953	7	Sololá	701	Sololá	1	Sololá	12	Diciembre	2023-12-26T00:00:00	2024-11-08T12:00:00	2	Temperatura media	21.8
66954	7	Sololá	701	Sololá	1	Sololá	12	Diciembre	2023-12-26T00:00:00	2024-11-08T12:00:00	4	Temperatura máxima	22.2
66955	7	Sololá	701	Sololá	1	Sololá	12	Diciembre	2023-12-26T00:00:00	2024-11-08T12:00:00	3	Temperatura mínima	21.7
66956	7	Sololá	701	Sololá	1	Sololá	12	Diciembre	2023-12-26T00:00:00	2024-11-08T12:00:00	5	Humedad	54
66957	7	Sololá	701	Sololá	1	Sololá	12	Diciembre	2023-12-26T00:00:00	2024-11-08T12:00:00	6	Velocidad del viento	0
66958	7	Sololá	701	Sololá	1	Sololá	12	Diciembre	2023-12-26T00:00:00	2024-11-08T12:00:00	7	Dirección del viento	0
66959	7	Sololá	701	Sololá	1	Sololá	12	Diciembre	2023-12-26T00:00:00	2024-11-08T12:00:00	1	Precipitación	0
66960	7	Sololá	701	Sololá	1	Sololá	12	Diciembre	2023-12-26T00:00:00	2024-11-08T12:00:00	8	Radiación solar	857
66961	7	Sololá	701	Sololá	1	Sololá	12	Diciembre	2023-12-26T00:00:00	2024-11-08T13:00:00	2	Temperatura media	21.7
66962	7	Sololá	701	Sololá	1	Sololá	12	Diciembre	2023-12-26T00:00:00	2024-11-08T13:00:00	4	Temperatura máxima	22.1
66963	7	Sololá	701	Sololá	1	Sololá	12	Diciembre	2023-12-26T00:00:00	2024-11-08T13:00:00	3	Temperatura mínima	21.6
66964	7	Sololá	701	Sololá	1	Sololá	12	Diciembre	2023-12-26T00:00:00	2024-11-08T13:00:00	5	Humedad	62
66965	7	Sololá	701	Sololá	1	Sololá	12	Diciembre	2023-12-26T00:00:00	2024-11-08T13:00:00	6	Velocidad del viento	0
66966	7	Sololá	701	Sololá	1	Sololá	12	Diciembre	2023-12-26T00:00:00	2024-11-08T13:00:00	7	Dirección del viento	0
66967	7	Sololá	701	Sololá	1	Sololá	12	Diciembre	2023-12-26T00:00:00	2024-11-08T13:00:00	1	Precipitación	0
66968	7	Sololá	701	Sololá	1	Sololá	12	Diciembre	2023-12-26T00:00:00	2024-11-08T13:00:00	8	Radiación solar	833
66969	7	Sololá	701	Sololá	1	Sololá	12	Diciembre	2023-12-26T00:00:00	2024-11-08T14:00:00	2	Temperatura media	20.7
66970	7	Sololá	701	Sololá	1	Sololá	12	Diciembre	2023-12-26T00:00:00	2024-11-08T14:00:00	4	Temperatura máxima	22.1
66971	7	Sololá	701	Sololá	1	Sololá	12	Diciembre	2023-12-26T00:00:00	2024-11-08T14:00:00	3	Temperatura mínima	20.7
66972	7	Sololá	701	Sololá	1	Sololá	12	Diciembre	2023-12-26T00:00:00	2024-11-08T14:00:00	5	Humedad	70
66973	7	Sololá	701	Sololá	1	Sololá	12	Diciembre	2023-12-26T00:00:00	2024-11-08T14:00:00	6	Velocidad del viento	0
66974	7	Sololá	701	Sololá	1	Sololá	12	Diciembre	2023-12-26T00:00:00	2024-11-08T14:00:00	7	Dirección del viento	0
66975	7	Sololá	701	Sololá	1	Sololá	12	Diciembre	2023-12-26T00:00:00	2024-11-08T14:00:00	1	Precipitación	0
66976	7	Sololá	701	Sololá	1	Sololá	12	Diciembre	2023-12-26T00:00:00	2024-11-08T14:00:00	8	Radiación solar	600
66977	7	Sololá	701	Sololá	1	Sololá	12	Diciembre	2023-12-26T00:00:00	2024-11-08T15:00:00	2	Temperatura media	18.7
66978	7	Sololá	701	Sololá	1	Sololá	12	Diciembre	2023-12-26T00:00:00	2024-11-08T15:00:00	4	Temperatura máxima	20.7
66979	7	Sololá	701	Sololá	1	Sololá	12	Diciembre	2023-12-26T00:00:00	2024-11-08T15:00:00	3	Temperatura mínima	18.7
66980	7	Sololá	701	Sololá	1	Sololá	12	Diciembre	2023-12-26T00:00:00	2024-11-08T15:00:00	5	Humedad	76
66981	7	Sololá	701	Sololá	1	Sololá	12	Diciembre	2023-12-26T00:00:00	2024-11-08T15:00:00	6	Velocidad del viento	0
66982	7	Sololá	701	Sololá	1	Sololá	12	Diciembre	2023-12-26T00:00:00	2024-11-08T15:00:00	7	Dirección del viento	0
66983	7	Sololá	701	Sololá	1	Sololá	12	Diciembre	2023-12-26T00:00:00	2024-11-08T15:00:00	1	Precipitación	0
66984	7	Sololá	701	Sololá	1	Sololá	12	Diciembre	2023-12-26T00:00:00	2024-11-08T15:00:00	8	Radiación solar	196
66985	7	Sololá	701	Sololá	1	Sololá	12	Diciembre	2023-12-26T00:00:00	2024-11-08T16:00:00	2	Temperatura media	17.8
66986	7	Sololá	701	Sololá	1	Sololá	12	Diciembre	2023-12-26T00:00:00	2024-11-08T16:00:00	4	Temperatura máxima	18.7
66987	7	Sololá	701	Sololá	1	Sololá	12	Diciembre	2023-12-26T00:00:00	2024-11-08T16:00:00	3	Temperatura mínima	17.8
66988	7	Sololá	701	Sololá	1	Sololá	12	Diciembre	2023-12-26T00:00:00	2024-11-08T16:00:00	5	Humedad	83
66989	7	Sololá	701	Sololá	1	Sololá	12	Diciembre	2023-12-26T00:00:00	2024-11-08T16:00:00	6	Velocidad del viento	0
66990	7	Sololá	701	Sololá	1	Sololá	12	Diciembre	2023-12-26T00:00:00	2024-11-08T16:00:00	7	Dirección del viento	0
66991	7	Sololá	701	Sololá	1	Sololá	12	Diciembre	2023-12-26T00:00:00	2024-11-08T16:00:00	1	Precipitación	0
66992	7	Sololá	701	Sololá	1	Sololá	12	Diciembre	2023-12-26T00:00:00	2024-11-08T16:00:00	8	Radiación solar	92
66993	7	Sololá	701	Sololá	1	Sololá	12	Diciembre	2023-12-26T00:00:00	2024-11-08T17:00:00	2	Temperatura media	16.6
66994	7	Sololá	701	Sololá	1	Sololá	12	Diciembre	2023-12-26T00:00:00	2024-11-08T17:00:00	4	Temperatura máxima	17.8
66995	7	Sololá	701	Sololá	1	Sololá	12	Diciembre	2023-12-26T00:00:00	2024-11-08T17:00:00	3	Temperatura mínima	16.6
66996	7	Sololá	701	Sololá	1	Sololá	12	Diciembre	2023-12-26T00:00:00	2024-11-08T17:00:00	5	Humedad	87
66997	7	Sololá	701	Sololá	1	Sololá	12	Diciembre	2023-12-26T00:00:00	2024-11-08T17:00:00	6	Velocidad del viento	0
66998	7	Sololá	701	Sololá	1	Sololá	12	Diciembre	2023-12-26T00:00:00	2024-11-08T17:00:00	7	Dirección del viento	0
66999	7	Sololá	701	Sololá	1	Sololá	12	Diciembre	2023-12-26T00:00:00	2024-11-08T17:00:00	1	Precipitación	0
67000	7	Sololá	701	Sololá	1	Sololá	12	Diciembre	2023-12-26T00:00:00	2024-11-08T17:00:00	8	Radiación solar	67
67001	7	Sololá	701	Sololá	1	Sololá	12	Diciembre	2023-12-26T00:00:00	2024-11-08T18:00:00	2	Temperatura media	16
67002	7	Sololá	701	Sololá	1	Sololá	12	Diciembre	2023-12-26T00:00:00	2024-11-08T18:00:00	4	Temperatura máxima	16.7
67003	7	Sololá	701	Sololá	1	Sololá	12	Diciembre	2023-12-26T00:00:00	2024-11-08T18:00:00	3	Temperatura mínima	16
67004	7	Sololá	701	Sololá	1	Sololá	12	Diciembre	2023-12-26T00:00:00	2024-11-08T18:00:00	5	Humedad	91
67005	7	Sololá	701	Sololá	1	Sololá	12	Diciembre	2023-12-26T00:00:00	2024-11-08T18:00:00	6	Velocidad del viento	0
67006	7	Sololá	701	Sololá	1	Sololá	12	Diciembre	2023-12-26T00:00:00	2024-11-08T18:00:00	7	Dirección del viento	0
67007	7	Sololá	701	Sololá	1	Sololá	12	Diciembre	2023-12-26T00:00:00	2024-11-08T18:00:00	1	Precipitación	0
67008	7	Sololá	701	Sololá	1	Sololá	12	Diciembre	2023-12-26T00:00:00	2024-11-08T18:00:00	8	Radiación solar	9
67009	7	Sololá	701	Sololá	1	Sololá	12	Diciembre	2023-12-26T00:00:00	2024-11-08T19:00:00	2	Temperatura media	15.1
67010	7	Sololá	701	Sololá	1	Sololá	12	Diciembre	2023-12-26T00:00:00	2024-11-08T19:00:00	4	Temperatura máxima	16.1
67011	7	Sololá	701	Sololá	1	Sololá	12	Diciembre	2023-12-26T00:00:00	2024-11-08T19:00:00	3	Temperatura mínima	15.1
67012	7	Sololá	701	Sololá	1	Sololá	12	Diciembre	2023-12-26T00:00:00	2024-11-08T19:00:00	5	Humedad	89
67013	7	Sololá	701	Sololá	1	Sololá	12	Diciembre	2023-12-26T00:00:00	2024-11-08T19:00:00	6	Velocidad del viento	0
67014	7	Sololá	701	Sololá	1	Sololá	12	Diciembre	2023-12-26T00:00:00	2024-11-08T19:00:00	7	Dirección del viento	0
67015	7	Sololá	701	Sololá	1	Sololá	12	Diciembre	2023-12-26T00:00:00	2024-11-08T19:00:00	1	Precipitación	0
67016	7	Sololá	701	Sololá	1	Sololá	12	Diciembre	2023-12-26T00:00:00	2024-11-08T19:00:00	8	Radiación solar	0
67017	7	Sololá	701	Sololá	1	Sololá	12	Diciembre	2023-12-26T00:00:00	2024-11-08T20:00:00	2	Temperatura media	14.1
67018	7	Sololá	701	Sololá	1	Sololá	12	Diciembre	2023-12-26T00:00:00	2024-11-08T20:00:00	4	Temperatura máxima	15.1
67019	7	Sololá	701	Sololá	1	Sololá	12	Diciembre	2023-12-26T00:00:00	2024-11-08T20:00:00	3	Temperatura mínima	14
67020	7	Sololá	701	Sololá	1	Sololá	12	Diciembre	2023-12-26T00:00:00	2024-11-08T20:00:00	5	Humedad	88
67021	7	Sololá	701	Sololá	1	Sololá	12	Diciembre	2023-12-26T00:00:00	2024-11-08T20:00:00	6	Velocidad del viento	0
67022	7	Sololá	701	Sololá	1	Sololá	12	Diciembre	2023-12-26T00:00:00	2024-11-08T20:00:00	7	Dirección del viento	0
67023	7	Sololá	701	Sololá	1	Sololá	12	Diciembre	2023-12-26T00:00:00	2024-11-08T20:00:00	1	Precipitación	0
67024	7	Sololá	701	Sololá	1	Sololá	12	Diciembre	2023-12-26T00:00:00	2024-11-08T20:00:00	8	Radiación solar	0
67025	7	Sololá	701	Sololá	1	Sololá	12	Diciembre	2023-12-26T00:00:00	2024-11-08T21:00:00	2	Temperatura media	13.1
67026	7	Sololá	701	Sololá	1	Sololá	12	Diciembre	2023-12-26T00:00:00	2024-11-08T21:00:00	4	Temperatura máxima	14.1
67027	7	Sololá	701	Sololá	1	Sololá	12	Diciembre	2023-12-26T00:00:00	2024-11-08T21:00:00	3	Temperatura mínima	13.1
67028	7	Sololá	701	Sololá	1	Sololá	12	Diciembre	2023-12-26T00:00:00	2024-11-08T21:00:00	5	Humedad	87
67029	7	Sololá	701	Sololá	1	Sololá	12	Diciembre	2023-12-26T00:00:00	2024-11-08T21:00:00	6	Velocidad del viento	0
67030	7	Sololá	701	Sololá	1	Sololá	12	Diciembre	2023-12-26T00:00:00	2024-11-08T21:00:00	7	Dirección del viento	0
67031	7	Sololá	701	Sololá	1	Sololá	12	Diciembre	2023-12-26T00:00:00	2024-11-08T21:00:00	1	Precipitación	0
67032	7	Sololá	701	Sololá	1	Sololá	12	Diciembre	2023-12-26T00:00:00	2024-11-08T21:00:00	8	Radiación solar	0
67033	7	Sololá	701	Sololá	1	Sololá	12	Diciembre	2023-12-26T00:00:00	2024-11-08T22:00:00	2	Temperatura media	12.8
67034	7	Sololá	701	Sololá	1	Sololá	12	Diciembre	2023-12-26T00:00:00	2024-11-08T22:00:00	4	Temperatura máxima	13.2
67035	7	Sololá	701	Sololá	1	Sololá	12	Diciembre	2023-12-26T00:00:00	2024-11-08T22:00:00	3	Temperatura mínima	12.8
67036	7	Sololá	701	Sololá	1	Sololá	12	Diciembre	2023-12-26T00:00:00	2024-11-08T22:00:00	5	Humedad	87
67037	7	Sololá	701	Sololá	1	Sololá	12	Diciembre	2023-12-26T00:00:00	2024-11-08T22:00:00	6	Velocidad del viento	0
67038	7	Sololá	701	Sololá	1	Sololá	12	Diciembre	2023-12-26T00:00:00	2024-11-08T22:00:00	7	Dirección del viento	0
67039	7	Sololá	701	Sololá	1	Sololá	12	Diciembre	2023-12-26T00:00:00	2024-11-08T22:00:00	1	Precipitación	0
67040	7	Sololá	701	Sololá	1	Sololá	12	Diciembre	2023-12-26T00:00:00	2024-11-08T22:00:00	8	Radiación solar	0
67041	7	Sololá	701	Sololá	1	Sololá	12	Diciembre	2023-12-26T00:00:00	2024-11-08T23:00:00	2	Temperatura media	12.8
67042	7	Sololá	701	Sololá	1	Sololá	12	Diciembre	2023-12-26T00:00:00	2024-11-08T23:00:00	4	Temperatura máxima	13.1
67043	7	Sololá	701	Sololá	1	Sololá	12	Diciembre	2023-12-26T00:00:00	2024-11-08T23:00:00	3	Temperatura mínima	12.8
67044	7	Sololá	701	Sololá	1	Sololá	12	Diciembre	2023-12-26T00:00:00	2024-11-08T23:00:00	5	Humedad	86
67045	7	Sololá	701	Sololá	1	Sololá	12	Diciembre	2023-12-26T00:00:00	2024-11-08T23:00:00	6	Velocidad del viento	0
67046	7	Sololá	701	Sololá	1	Sololá	12	Diciembre	2023-12-26T00:00:00	2024-11-08T23:00:00	7	Dirección del viento	0
67047	7	Sololá	701	Sololá	1	Sololá	12	Diciembre	2023-12-26T00:00:00	2024-11-08T23:00:00	1	Precipitación	0
67048	7	Sololá	701	Sololá	1	Sololá	12	Diciembre	2023-12-26T00:00:00	2024-11-08T23:00:00	8	Radiación solar	0
67049	7	Sololá	701	Sololá	1	Sololá	12	Diciembre	2023-12-27T00:00:00	2024-11-08T00:00:00	2	Temperatura media	12.2
67050	7	Sololá	701	Sololá	1	Sololá	12	Diciembre	2023-12-27T00:00:00	2024-11-08T00:00:00	4	Temperatura máxima	12.8
67051	7	Sololá	701	Sololá	1	Sololá	12	Diciembre	2023-12-27T00:00:00	2024-11-08T00:00:00	3	Temperatura mínima	12
67052	7	Sololá	701	Sololá	1	Sololá	12	Diciembre	2023-12-27T00:00:00	2024-11-08T00:00:00	5	Humedad	89
67053	7	Sololá	701	Sololá	1	Sololá	12	Diciembre	2023-12-27T00:00:00	2024-11-08T00:00:00	6	Velocidad del viento	0
67054	7	Sololá	701	Sololá	1	Sololá	12	Diciembre	2023-12-27T00:00:00	2024-11-08T00:00:00	7	Dirección del viento	0
67055	7	Sololá	701	Sololá	1	Sololá	12	Diciembre	2023-12-27T00:00:00	2024-11-08T00:00:00	1	Precipitación	0
67056	7	Sololá	701	Sololá	1	Sololá	12	Diciembre	2023-12-27T00:00:00	2024-11-08T00:00:00	8	Radiación solar	0
67057	7	Sololá	701	Sololá	1	Sololá	12	Diciembre	2023-12-27T00:00:00	2024-11-08T01:00:00	2	Temperatura media	12.2
67058	7	Sololá	701	Sololá	1	Sololá	12	Diciembre	2023-12-27T00:00:00	2024-11-08T01:00:00	4	Temperatura máxima	12.5
67059	7	Sololá	701	Sololá	1	Sololá	12	Diciembre	2023-12-27T00:00:00	2024-11-08T01:00:00	3	Temperatura mínima	12.2
67060	7	Sololá	701	Sololá	1	Sololá	12	Diciembre	2023-12-27T00:00:00	2024-11-08T01:00:00	5	Humedad	88
67061	7	Sololá	701	Sololá	1	Sololá	12	Diciembre	2023-12-27T00:00:00	2024-11-08T01:00:00	6	Velocidad del viento	0
67062	7	Sololá	701	Sololá	1	Sololá	12	Diciembre	2023-12-27T00:00:00	2024-11-08T01:00:00	7	Dirección del viento	0
67063	7	Sololá	701	Sololá	1	Sololá	12	Diciembre	2023-12-27T00:00:00	2024-11-08T01:00:00	1	Precipitación	0
67064	7	Sololá	701	Sololá	1	Sololá	12	Diciembre	2023-12-27T00:00:00	2024-11-08T01:00:00	8	Radiación solar	0
67065	7	Sololá	701	Sololá	1	Sololá	12	Diciembre	2023-12-27T00:00:00	2024-11-08T02:00:00	2	Temperatura media	11.1
67066	7	Sololá	701	Sololá	1	Sololá	12	Diciembre	2023-12-27T00:00:00	2024-11-08T02:00:00	4	Temperatura máxima	12.2
67067	7	Sololá	701	Sololá	1	Sololá	12	Diciembre	2023-12-27T00:00:00	2024-11-08T02:00:00	3	Temperatura mínima	11.1
67068	7	Sololá	701	Sololá	1	Sololá	12	Diciembre	2023-12-27T00:00:00	2024-11-08T02:00:00	5	Humedad	87
67069	7	Sololá	701	Sololá	1	Sololá	12	Diciembre	2023-12-27T00:00:00	2024-11-08T02:00:00	6	Velocidad del viento	0
67070	7	Sololá	701	Sololá	1	Sololá	12	Diciembre	2023-12-27T00:00:00	2024-11-08T02:00:00	7	Dirección del viento	0
67071	7	Sololá	701	Sololá	1	Sololá	12	Diciembre	2023-12-27T00:00:00	2024-11-08T02:00:00	1	Precipitación	0
67072	7	Sololá	701	Sololá	1	Sololá	12	Diciembre	2023-12-27T00:00:00	2024-11-08T02:00:00	8	Radiación solar	0
67073	7	Sololá	701	Sololá	1	Sololá	12	Diciembre	2023-12-27T00:00:00	2024-11-08T03:00:00	2	Temperatura media	10.3
67074	7	Sololá	701	Sololá	1	Sololá	12	Diciembre	2023-12-27T00:00:00	2024-11-08T03:00:00	4	Temperatura máxima	11.1
67075	7	Sololá	701	Sololá	1	Sololá	12	Diciembre	2023-12-27T00:00:00	2024-11-08T03:00:00	3	Temperatura mínima	10.3
67076	7	Sololá	701	Sololá	1	Sololá	12	Diciembre	2023-12-27T00:00:00	2024-11-08T03:00:00	5	Humedad	85
67077	7	Sololá	701	Sololá	1	Sololá	12	Diciembre	2023-12-27T00:00:00	2024-11-08T03:00:00	6	Velocidad del viento	0
67078	7	Sololá	701	Sololá	1	Sololá	12	Diciembre	2023-12-27T00:00:00	2024-11-08T03:00:00	7	Dirección del viento	0
67079	7	Sololá	701	Sololá	1	Sololá	12	Diciembre	2023-12-27T00:00:00	2024-11-08T03:00:00	1	Precipitación	0
67080	7	Sololá	701	Sololá	1	Sololá	12	Diciembre	2023-12-27T00:00:00	2024-11-08T03:00:00	8	Radiación solar	0
67081	7	Sololá	701	Sololá	1	Sololá	12	Diciembre	2023-12-27T00:00:00	2024-11-08T04:00:00	2	Temperatura media	10.1
67082	7	Sololá	701	Sololá	1	Sololá	12	Diciembre	2023-12-27T00:00:00	2024-11-08T04:00:00	4	Temperatura máxima	10.3
67083	7	Sololá	701	Sololá	1	Sololá	12	Diciembre	2023-12-27T00:00:00	2024-11-08T04:00:00	3	Temperatura mínima	9.9
67084	7	Sololá	701	Sololá	1	Sololá	12	Diciembre	2023-12-27T00:00:00	2024-11-08T04:00:00	5	Humedad	76
67085	7	Sololá	701	Sololá	1	Sololá	12	Diciembre	2023-12-27T00:00:00	2024-11-08T04:00:00	6	Velocidad del viento	1.6
67086	7	Sololá	701	Sololá	1	Sololá	12	Diciembre	2023-12-27T00:00:00	2024-11-08T04:00:00	7	Dirección del viento	1.61
67087	7	Sololá	701	Sololá	1	Sololá	12	Diciembre	2023-12-27T00:00:00	2024-11-08T04:00:00	1	Precipitación	0
67088	7	Sololá	701	Sololá	1	Sololá	12	Diciembre	2023-12-27T00:00:00	2024-11-08T04:00:00	8	Radiación solar	0
67089	7	Sololá	701	Sololá	1	Sololá	12	Diciembre	2023-12-27T00:00:00	2024-11-08T05:00:00	2	Temperatura media	9.8
67090	7	Sololá	701	Sololá	1	Sololá	12	Diciembre	2023-12-27T00:00:00	2024-11-08T05:00:00	4	Temperatura máxima	10.1
67091	7	Sololá	701	Sololá	1	Sololá	12	Diciembre	2023-12-27T00:00:00	2024-11-08T05:00:00	3	Temperatura mínima	9.8
67092	7	Sololá	701	Sololá	1	Sololá	12	Diciembre	2023-12-27T00:00:00	2024-11-08T05:00:00	5	Humedad	74
67093	7	Sololá	701	Sololá	1	Sololá	12	Diciembre	2023-12-27T00:00:00	2024-11-08T05:00:00	6	Velocidad del viento	1.6
67094	7	Sololá	701	Sololá	1	Sololá	12	Diciembre	2023-12-27T00:00:00	2024-11-08T05:00:00	7	Dirección del viento	1.61
67095	7	Sololá	701	Sololá	1	Sololá	12	Diciembre	2023-12-27T00:00:00	2024-11-08T05:00:00	1	Precipitación	0
67096	7	Sololá	701	Sololá	1	Sololá	12	Diciembre	2023-12-27T00:00:00	2024-11-08T05:00:00	8	Radiación solar	0
67097	7	Sololá	701	Sololá	1	Sololá	12	Diciembre	2023-12-27T00:00:00	2024-11-08T06:00:00	2	Temperatura media	9.4
67098	7	Sololá	701	Sololá	1	Sololá	12	Diciembre	2023-12-27T00:00:00	2024-11-08T06:00:00	4	Temperatura máxima	9.8
67099	7	Sololá	701	Sololá	1	Sololá	12	Diciembre	2023-12-27T00:00:00	2024-11-08T06:00:00	3	Temperatura mínima	9.4
67100	7	Sololá	701	Sololá	1	Sololá	12	Diciembre	2023-12-27T00:00:00	2024-11-08T06:00:00	5	Humedad	72
67101	7	Sololá	701	Sololá	1	Sololá	12	Diciembre	2023-12-27T00:00:00	2024-11-08T06:00:00	6	Velocidad del viento	1.6
67102	7	Sololá	701	Sololá	1	Sololá	12	Diciembre	2023-12-27T00:00:00	2024-11-08T06:00:00	7	Dirección del viento	1.61
67103	7	Sololá	701	Sololá	1	Sololá	12	Diciembre	2023-12-27T00:00:00	2024-11-08T06:00:00	1	Precipitación	0
67104	7	Sololá	701	Sololá	1	Sololá	12	Diciembre	2023-12-27T00:00:00	2024-11-08T06:00:00	8	Radiación solar	0
67105	7	Sololá	701	Sololá	1	Sololá	12	Diciembre	2023-12-27T00:00:00	2024-11-08T07:00:00	2	Temperatura media	9.6
67106	7	Sololá	701	Sololá	1	Sololá	12	Diciembre	2023-12-27T00:00:00	2024-11-08T07:00:00	4	Temperatura máxima	9.6
67107	7	Sololá	701	Sololá	1	Sololá	12	Diciembre	2023-12-27T00:00:00	2024-11-08T07:00:00	3	Temperatura mínima	9.3
67108	7	Sololá	701	Sololá	1	Sololá	12	Diciembre	2023-12-27T00:00:00	2024-11-08T07:00:00	5	Humedad	70
67109	7	Sololá	701	Sololá	1	Sololá	12	Diciembre	2023-12-27T00:00:00	2024-11-08T07:00:00	6	Velocidad del viento	1.6
67110	7	Sololá	701	Sololá	1	Sololá	12	Diciembre	2023-12-27T00:00:00	2024-11-08T07:00:00	7	Dirección del viento	1.61
67111	7	Sololá	701	Sololá	1	Sololá	12	Diciembre	2023-12-27T00:00:00	2024-11-08T07:00:00	1	Precipitación	0
67112	7	Sololá	701	Sololá	1	Sololá	12	Diciembre	2023-12-27T00:00:00	2024-11-08T07:00:00	8	Radiación solar	4
67113	7	Sololá	701	Sololá	1	Sololá	12	Diciembre	2023-12-27T00:00:00	2024-11-08T08:00:00	2	Temperatura media	11.9
67114	7	Sololá	701	Sololá	1	Sololá	12	Diciembre	2023-12-27T00:00:00	2024-11-08T08:00:00	4	Temperatura máxima	11.9
67115	7	Sololá	701	Sololá	1	Sololá	12	Diciembre	2023-12-27T00:00:00	2024-11-08T08:00:00	3	Temperatura mínima	9.6
67116	7	Sololá	701	Sololá	1	Sololá	12	Diciembre	2023-12-27T00:00:00	2024-11-08T08:00:00	5	Humedad	70
67117	7	Sololá	701	Sololá	1	Sololá	12	Diciembre	2023-12-27T00:00:00	2024-11-08T08:00:00	6	Velocidad del viento	0
67118	7	Sololá	701	Sololá	1	Sololá	12	Diciembre	2023-12-27T00:00:00	2024-11-08T08:00:00	7	Dirección del viento	0
67119	7	Sololá	701	Sololá	1	Sololá	12	Diciembre	2023-12-27T00:00:00	2024-11-08T08:00:00	1	Precipitación	0
67120	7	Sololá	701	Sololá	1	Sololá	12	Diciembre	2023-12-27T00:00:00	2024-11-08T08:00:00	8	Radiación solar	52
67121	7	Sololá	701	Sololá	1	Sololá	12	Diciembre	2023-12-27T00:00:00	2024-11-08T09:00:00	2	Temperatura media	17.8
67122	7	Sololá	701	Sololá	1	Sololá	12	Diciembre	2023-12-27T00:00:00	2024-11-08T09:00:00	4	Temperatura máxima	17.8
67123	7	Sololá	701	Sololá	1	Sololá	12	Diciembre	2023-12-27T00:00:00	2024-11-08T09:00:00	3	Temperatura mínima	12
67124	7	Sololá	701	Sololá	1	Sololá	12	Diciembre	2023-12-27T00:00:00	2024-11-08T09:00:00	5	Humedad	56
67125	7	Sololá	701	Sololá	1	Sololá	12	Diciembre	2023-12-27T00:00:00	2024-11-08T09:00:00	6	Velocidad del viento	0
67126	7	Sololá	701	Sololá	1	Sololá	12	Diciembre	2023-12-27T00:00:00	2024-11-08T09:00:00	7	Dirección del viento	0
67127	7	Sololá	701	Sololá	1	Sololá	12	Diciembre	2023-12-27T00:00:00	2024-11-08T09:00:00	1	Precipitación	0
67128	7	Sololá	701	Sololá	1	Sololá	12	Diciembre	2023-12-27T00:00:00	2024-11-08T09:00:00	8	Radiación solar	487
67129	7	Sololá	701	Sololá	1	Sololá	12	Diciembre	2023-12-27T00:00:00	2024-11-08T10:00:00	2	Temperatura media	17.9
67130	7	Sololá	701	Sololá	1	Sololá	12	Diciembre	2023-12-27T00:00:00	2024-11-08T10:00:00	4	Temperatura máxima	18.5
67131	7	Sololá	701	Sololá	1	Sololá	12	Diciembre	2023-12-27T00:00:00	2024-11-08T10:00:00	3	Temperatura mínima	17.8
67132	7	Sololá	701	Sololá	1	Sololá	12	Diciembre	2023-12-27T00:00:00	2024-11-08T10:00:00	5	Humedad	61
67133	7	Sololá	701	Sololá	1	Sololá	12	Diciembre	2023-12-27T00:00:00	2024-11-08T10:00:00	6	Velocidad del viento	0
67134	7	Sololá	701	Sololá	1	Sololá	12	Diciembre	2023-12-27T00:00:00	2024-11-08T10:00:00	7	Dirección del viento	0
67135	7	Sololá	701	Sololá	1	Sololá	12	Diciembre	2023-12-27T00:00:00	2024-11-08T10:00:00	1	Precipitación	0
67136	7	Sololá	701	Sololá	1	Sololá	12	Diciembre	2023-12-27T00:00:00	2024-11-08T10:00:00	8	Radiación solar	492
67137	7	Sololá	701	Sololá	1	Sololá	12	Diciembre	2023-12-27T00:00:00	2024-11-08T11:00:00	2	Temperatura media	18.6
67138	7	Sololá	701	Sololá	1	Sololá	12	Diciembre	2023-12-27T00:00:00	2024-11-08T11:00:00	4	Temperatura máxima	18.7
67139	7	Sololá	701	Sololá	1	Sololá	12	Diciembre	2023-12-27T00:00:00	2024-11-08T11:00:00	3	Temperatura mínima	17.8
67140	7	Sololá	701	Sololá	1	Sololá	12	Diciembre	2023-12-27T00:00:00	2024-11-08T11:00:00	5	Humedad	62
67141	7	Sololá	701	Sololá	1	Sololá	12	Diciembre	2023-12-27T00:00:00	2024-11-08T11:00:00	6	Velocidad del viento	0
67142	7	Sololá	701	Sololá	1	Sololá	12	Diciembre	2023-12-27T00:00:00	2024-11-08T11:00:00	7	Dirección del viento	0
67143	7	Sololá	701	Sololá	1	Sololá	12	Diciembre	2023-12-27T00:00:00	2024-11-08T11:00:00	1	Precipitación	0
67144	7	Sololá	701	Sololá	1	Sololá	12	Diciembre	2023-12-27T00:00:00	2024-11-08T11:00:00	8	Radiación solar	441
67145	7	Sololá	701	Sololá	1	Sololá	12	Diciembre	2023-12-27T00:00:00	2024-11-08T12:00:00	2	Temperatura media	20.3
67146	7	Sololá	701	Sololá	1	Sololá	12	Diciembre	2023-12-27T00:00:00	2024-11-08T12:00:00	4	Temperatura máxima	20.3
67147	7	Sololá	701	Sololá	1	Sololá	12	Diciembre	2023-12-27T00:00:00	2024-11-08T12:00:00	3	Temperatura mínima	18.5
67148	7	Sololá	701	Sololá	1	Sololá	12	Diciembre	2023-12-27T00:00:00	2024-11-08T12:00:00	5	Humedad	60
67149	7	Sololá	701	Sololá	1	Sololá	12	Diciembre	2023-12-27T00:00:00	2024-11-08T12:00:00	6	Velocidad del viento	0
67150	7	Sololá	701	Sololá	1	Sololá	12	Diciembre	2023-12-27T00:00:00	2024-11-08T12:00:00	7	Dirección del viento	0
67151	7	Sololá	701	Sololá	1	Sololá	12	Diciembre	2023-12-27T00:00:00	2024-11-08T12:00:00	1	Precipitación	0
67152	7	Sololá	701	Sololá	1	Sololá	12	Diciembre	2023-12-27T00:00:00	2024-11-08T12:00:00	8	Radiación solar	846
67153	7	Sololá	701	Sololá	1	Sololá	12	Diciembre	2023-12-27T00:00:00	2024-11-08T13:00:00	2	Temperatura media	20.8
67154	7	Sololá	701	Sololá	1	Sololá	12	Diciembre	2023-12-27T00:00:00	2024-11-08T13:00:00	4	Temperatura máxima	20.9
67155	7	Sololá	701	Sololá	1	Sololá	12	Diciembre	2023-12-27T00:00:00	2024-11-08T13:00:00	3	Temperatura mínima	20.2
67156	7	Sololá	701	Sololá	1	Sololá	12	Diciembre	2023-12-27T00:00:00	2024-11-08T13:00:00	5	Humedad	59
67157	7	Sololá	701	Sololá	1	Sololá	12	Diciembre	2023-12-27T00:00:00	2024-11-08T13:00:00	6	Velocidad del viento	0
67158	7	Sololá	701	Sololá	1	Sololá	12	Diciembre	2023-12-27T00:00:00	2024-11-08T13:00:00	7	Dirección del viento	0
67159	7	Sololá	701	Sololá	1	Sololá	12	Diciembre	2023-12-27T00:00:00	2024-11-08T13:00:00	1	Precipitación	0
67160	7	Sololá	701	Sololá	1	Sololá	12	Diciembre	2023-12-27T00:00:00	2024-11-08T13:00:00	8	Radiación solar	811
67161	7	Sololá	701	Sololá	1	Sololá	12	Diciembre	2023-12-27T00:00:00	2024-11-08T14:00:00	2	Temperatura media	21.2
67162	7	Sololá	701	Sololá	1	Sololá	12	Diciembre	2023-12-27T00:00:00	2024-11-08T14:00:00	4	Temperatura máxima	21.3
67163	7	Sololá	701	Sololá	1	Sololá	12	Diciembre	2023-12-27T00:00:00	2024-11-08T14:00:00	3	Temperatura mínima	20.8
67164	7	Sololá	701	Sololá	1	Sololá	12	Diciembre	2023-12-27T00:00:00	2024-11-08T14:00:00	5	Humedad	62
67165	7	Sololá	701	Sololá	1	Sololá	12	Diciembre	2023-12-27T00:00:00	2024-11-08T14:00:00	6	Velocidad del viento	0
67166	7	Sololá	701	Sololá	1	Sololá	12	Diciembre	2023-12-27T00:00:00	2024-11-08T14:00:00	7	Dirección del viento	0
67167	7	Sololá	701	Sololá	1	Sololá	12	Diciembre	2023-12-27T00:00:00	2024-11-08T14:00:00	1	Precipitación	0
67168	7	Sololá	701	Sololá	1	Sololá	12	Diciembre	2023-12-27T00:00:00	2024-11-08T14:00:00	8	Radiación solar	710
67169	7	Sololá	701	Sololá	1	Sololá	12	Diciembre	2023-12-27T00:00:00	2024-11-08T15:00:00	2	Temperatura media	20.3
67170	7	Sololá	701	Sololá	1	Sololá	12	Diciembre	2023-12-27T00:00:00	2024-11-08T15:00:00	4	Temperatura máxima	21.3
67171	7	Sololá	701	Sololá	1	Sololá	12	Diciembre	2023-12-27T00:00:00	2024-11-08T15:00:00	3	Temperatura mínima	20.3
67172	7	Sololá	701	Sololá	1	Sololá	12	Diciembre	2023-12-27T00:00:00	2024-11-08T15:00:00	5	Humedad	64
67173	7	Sololá	701	Sololá	1	Sololá	12	Diciembre	2023-12-27T00:00:00	2024-11-08T15:00:00	6	Velocidad del viento	0
67174	7	Sololá	701	Sololá	1	Sololá	12	Diciembre	2023-12-27T00:00:00	2024-11-08T15:00:00	7	Dirección del viento	0
67175	7	Sololá	701	Sololá	1	Sololá	12	Diciembre	2023-12-27T00:00:00	2024-11-08T15:00:00	1	Precipitación	0
67176	7	Sololá	701	Sololá	1	Sololá	12	Diciembre	2023-12-27T00:00:00	2024-11-08T15:00:00	8	Radiación solar	412
67177	7	Sololá	701	Sololá	1	Sololá	12	Diciembre	2023-12-27T00:00:00	2024-11-08T16:00:00	2	Temperatura media	18.6
67178	7	Sololá	701	Sololá	1	Sololá	12	Diciembre	2023-12-27T00:00:00	2024-11-08T16:00:00	4	Temperatura máxima	20.3
67179	7	Sololá	701	Sololá	1	Sololá	12	Diciembre	2023-12-27T00:00:00	2024-11-08T16:00:00	3	Temperatura mínima	18.6
67180	7	Sololá	701	Sololá	1	Sololá	12	Diciembre	2023-12-27T00:00:00	2024-11-08T16:00:00	5	Humedad	74
67181	7	Sololá	701	Sololá	1	Sololá	12	Diciembre	2023-12-27T00:00:00	2024-11-08T16:00:00	6	Velocidad del viento	0
67182	7	Sololá	701	Sololá	1	Sololá	12	Diciembre	2023-12-27T00:00:00	2024-11-08T16:00:00	7	Dirección del viento	0
67183	7	Sololá	701	Sololá	1	Sololá	12	Diciembre	2023-12-27T00:00:00	2024-11-08T16:00:00	1	Precipitación	0
67184	7	Sololá	701	Sololá	1	Sololá	12	Diciembre	2023-12-27T00:00:00	2024-11-08T16:00:00	8	Radiación solar	105
67185	7	Sololá	701	Sololá	1	Sololá	12	Diciembre	2023-12-27T00:00:00	2024-11-08T17:00:00	2	Temperatura media	16.3
67186	7	Sololá	701	Sololá	1	Sololá	12	Diciembre	2023-12-27T00:00:00	2024-11-08T17:00:00	4	Temperatura máxima	18.6
67187	7	Sololá	701	Sololá	1	Sololá	12	Diciembre	2023-12-27T00:00:00	2024-11-08T17:00:00	3	Temperatura mínima	16.2
67188	7	Sololá	701	Sololá	1	Sololá	12	Diciembre	2023-12-27T00:00:00	2024-11-08T17:00:00	5	Humedad	83
67189	7	Sololá	701	Sololá	1	Sololá	12	Diciembre	2023-12-27T00:00:00	2024-11-08T17:00:00	6	Velocidad del viento	0
67190	7	Sololá	701	Sololá	1	Sololá	12	Diciembre	2023-12-27T00:00:00	2024-11-08T17:00:00	7	Dirección del viento	0
67191	7	Sololá	701	Sololá	1	Sololá	12	Diciembre	2023-12-27T00:00:00	2024-11-08T17:00:00	1	Precipitación	0
67192	7	Sololá	701	Sololá	1	Sololá	12	Diciembre	2023-12-27T00:00:00	2024-11-08T17:00:00	8	Radiación solar	35
67193	7	Sololá	701	Sololá	1	Sololá	12	Diciembre	2023-12-27T00:00:00	2024-11-08T18:00:00	2	Temperatura media	15.2
67194	7	Sololá	701	Sololá	1	Sololá	12	Diciembre	2023-12-27T00:00:00	2024-11-08T18:00:00	4	Temperatura máxima	16.3
67195	7	Sololá	701	Sololá	1	Sololá	12	Diciembre	2023-12-27T00:00:00	2024-11-08T18:00:00	3	Temperatura mínima	15.2
67196	7	Sololá	701	Sololá	1	Sololá	12	Diciembre	2023-12-27T00:00:00	2024-11-08T18:00:00	5	Humedad	89
67197	7	Sololá	701	Sololá	1	Sololá	12	Diciembre	2023-12-27T00:00:00	2024-11-08T18:00:00	6	Velocidad del viento	0
67198	7	Sololá	701	Sololá	1	Sololá	12	Diciembre	2023-12-27T00:00:00	2024-11-08T18:00:00	7	Dirección del viento	0
67199	7	Sololá	701	Sololá	1	Sololá	12	Diciembre	2023-12-27T00:00:00	2024-11-08T18:00:00	1	Precipitación	0
67200	7	Sololá	701	Sololá	1	Sololá	12	Diciembre	2023-12-27T00:00:00	2024-11-08T18:00:00	8	Radiación solar	10
67201	7	Sololá	701	Sololá	1	Sololá	12	Diciembre	2023-12-27T00:00:00	2024-11-08T19:00:00	2	Temperatura media	15
67202	7	Sololá	701	Sololá	1	Sololá	12	Diciembre	2023-12-27T00:00:00	2024-11-08T19:00:00	4	Temperatura máxima	15.2
67203	7	Sololá	701	Sololá	1	Sololá	12	Diciembre	2023-12-27T00:00:00	2024-11-08T19:00:00	3	Temperatura mínima	14.8
67204	7	Sololá	701	Sololá	1	Sololá	12	Diciembre	2023-12-27T00:00:00	2024-11-08T19:00:00	5	Humedad	91
67205	7	Sololá	701	Sololá	1	Sololá	12	Diciembre	2023-12-27T00:00:00	2024-11-08T19:00:00	6	Velocidad del viento	0
67206	7	Sololá	701	Sololá	1	Sololá	12	Diciembre	2023-12-27T00:00:00	2024-11-08T19:00:00	7	Dirección del viento	0
67207	7	Sololá	701	Sololá	1	Sololá	12	Diciembre	2023-12-27T00:00:00	2024-11-08T19:00:00	1	Precipitación	0
67208	7	Sololá	701	Sololá	1	Sololá	12	Diciembre	2023-12-27T00:00:00	2024-11-08T19:00:00	8	Radiación solar	0
67209	7	Sololá	701	Sololá	1	Sololá	12	Diciembre	2023-12-27T00:00:00	2024-11-08T20:00:00	2	Temperatura media	14.9
67210	7	Sololá	701	Sololá	1	Sololá	12	Diciembre	2023-12-27T00:00:00	2024-11-08T20:00:00	4	Temperatura máxima	15.1
67211	7	Sololá	701	Sololá	1	Sololá	12	Diciembre	2023-12-27T00:00:00	2024-11-08T20:00:00	3	Temperatura mínima	14.9
67212	7	Sololá	701	Sololá	1	Sololá	12	Diciembre	2023-12-27T00:00:00	2024-11-08T20:00:00	5	Humedad	88
67213	7	Sololá	701	Sololá	1	Sololá	12	Diciembre	2023-12-27T00:00:00	2024-11-08T20:00:00	6	Velocidad del viento	0
67214	7	Sololá	701	Sololá	1	Sololá	12	Diciembre	2023-12-27T00:00:00	2024-11-08T20:00:00	7	Dirección del viento	0
67215	7	Sololá	701	Sololá	1	Sololá	12	Diciembre	2023-12-27T00:00:00	2024-11-08T20:00:00	1	Precipitación	0
67216	7	Sololá	701	Sololá	1	Sololá	12	Diciembre	2023-12-27T00:00:00	2024-11-08T20:00:00	8	Radiación solar	0
67217	7	Sololá	701	Sololá	1	Sololá	12	Diciembre	2023-12-27T00:00:00	2024-11-08T21:00:00	2	Temperatura media	12.7
67218	7	Sololá	701	Sololá	1	Sololá	12	Diciembre	2023-12-27T00:00:00	2024-11-08T21:00:00	4	Temperatura máxima	14.9
67219	7	Sololá	701	Sololá	1	Sololá	12	Diciembre	2023-12-27T00:00:00	2024-11-08T21:00:00	3	Temperatura mínima	12.6
67220	7	Sololá	701	Sololá	1	Sololá	12	Diciembre	2023-12-27T00:00:00	2024-11-08T21:00:00	5	Humedad	87
67221	7	Sololá	701	Sololá	1	Sololá	12	Diciembre	2023-12-27T00:00:00	2024-11-08T21:00:00	6	Velocidad del viento	0
67222	7	Sololá	701	Sololá	1	Sololá	12	Diciembre	2023-12-27T00:00:00	2024-11-08T21:00:00	7	Dirección del viento	0
67223	7	Sololá	701	Sololá	1	Sololá	12	Diciembre	2023-12-27T00:00:00	2024-11-08T21:00:00	1	Precipitación	0
67224	7	Sololá	701	Sololá	1	Sololá	12	Diciembre	2023-12-27T00:00:00	2024-11-08T21:00:00	8	Radiación solar	0
67225	7	Sololá	701	Sololá	1	Sololá	12	Diciembre	2023-12-27T00:00:00	2024-11-08T22:00:00	2	Temperatura media	12
67226	7	Sololá	701	Sololá	1	Sololá	12	Diciembre	2023-12-27T00:00:00	2024-11-08T22:00:00	4	Temperatura máxima	12.7
67227	7	Sololá	701	Sololá	1	Sololá	12	Diciembre	2023-12-27T00:00:00	2024-11-08T22:00:00	3	Temperatura mínima	11.9
67228	7	Sololá	701	Sololá	1	Sololá	12	Diciembre	2023-12-27T00:00:00	2024-11-08T22:00:00	5	Humedad	90
67229	7	Sololá	701	Sololá	1	Sololá	12	Diciembre	2023-12-27T00:00:00	2024-11-08T22:00:00	6	Velocidad del viento	0
67230	7	Sololá	701	Sololá	1	Sololá	12	Diciembre	2023-12-27T00:00:00	2024-11-08T22:00:00	7	Dirección del viento	0
67231	7	Sololá	701	Sololá	1	Sololá	12	Diciembre	2023-12-27T00:00:00	2024-11-08T22:00:00	1	Precipitación	0
67232	7	Sololá	701	Sololá	1	Sololá	12	Diciembre	2023-12-27T00:00:00	2024-11-08T22:00:00	8	Radiación solar	0
67233	7	Sololá	701	Sololá	1	Sololá	12	Diciembre	2023-12-27T00:00:00	2024-11-08T23:00:00	2	Temperatura media	11.2
67234	7	Sololá	701	Sololá	1	Sololá	12	Diciembre	2023-12-27T00:00:00	2024-11-08T23:00:00	4	Temperatura máxima	12
67235	7	Sololá	701	Sololá	1	Sololá	12	Diciembre	2023-12-27T00:00:00	2024-11-08T23:00:00	3	Temperatura mínima	11.2
67236	7	Sololá	701	Sololá	1	Sololá	12	Diciembre	2023-12-27T00:00:00	2024-11-08T23:00:00	5	Humedad	89
67237	7	Sololá	701	Sololá	1	Sololá	12	Diciembre	2023-12-27T00:00:00	2024-11-08T23:00:00	6	Velocidad del viento	0
67238	7	Sololá	701	Sololá	1	Sololá	12	Diciembre	2023-12-27T00:00:00	2024-11-08T23:00:00	7	Dirección del viento	0
67239	7	Sololá	701	Sololá	1	Sololá	12	Diciembre	2023-12-27T00:00:00	2024-11-08T23:00:00	1	Precipitación	0
67240	7	Sololá	701	Sololá	1	Sololá	12	Diciembre	2023-12-27T00:00:00	2024-11-08T23:00:00	8	Radiación solar	0
67241	7	Sololá	701	Sololá	1	Sololá	12	Diciembre	2023-12-28T00:00:00	2024-11-08T00:00:00	2	Temperatura media	10.9
67242	7	Sololá	701	Sololá	1	Sololá	12	Diciembre	2023-12-28T00:00:00	2024-11-08T00:00:00	4	Temperatura máxima	11.3
67243	7	Sololá	701	Sololá	1	Sololá	12	Diciembre	2023-12-28T00:00:00	2024-11-08T00:00:00	3	Temperatura mínima	10.9
67244	7	Sololá	701	Sololá	1	Sololá	12	Diciembre	2023-12-28T00:00:00	2024-11-08T00:00:00	5	Humedad	87
67245	7	Sololá	701	Sololá	1	Sololá	12	Diciembre	2023-12-28T00:00:00	2024-11-08T00:00:00	6	Velocidad del viento	0
67246	7	Sololá	701	Sololá	1	Sololá	12	Diciembre	2023-12-28T00:00:00	2024-11-08T00:00:00	7	Dirección del viento	0
67247	7	Sololá	701	Sololá	1	Sololá	12	Diciembre	2023-12-28T00:00:00	2024-11-08T00:00:00	1	Precipitación	0
67248	7	Sololá	701	Sololá	1	Sololá	12	Diciembre	2023-12-28T00:00:00	2024-11-08T00:00:00	8	Radiación solar	0
67249	7	Sololá	701	Sololá	1	Sololá	12	Diciembre	2023-12-28T00:00:00	2024-11-08T01:00:00	2	Temperatura media	10.5
67250	7	Sololá	701	Sololá	1	Sololá	12	Diciembre	2023-12-28T00:00:00	2024-11-08T01:00:00	4	Temperatura máxima	10.9
67251	7	Sololá	701	Sololá	1	Sololá	12	Diciembre	2023-12-28T00:00:00	2024-11-08T01:00:00	3	Temperatura mínima	10.5
67252	7	Sololá	701	Sololá	1	Sololá	12	Diciembre	2023-12-28T00:00:00	2024-11-08T01:00:00	5	Humedad	86
67253	7	Sololá	701	Sololá	1	Sololá	12	Diciembre	2023-12-28T00:00:00	2024-11-08T01:00:00	6	Velocidad del viento	0
67254	7	Sololá	701	Sololá	1	Sololá	12	Diciembre	2023-12-28T00:00:00	2024-11-08T01:00:00	7	Dirección del viento	0
67255	7	Sololá	701	Sololá	1	Sololá	12	Diciembre	2023-12-28T00:00:00	2024-11-08T01:00:00	1	Precipitación	0
67256	7	Sololá	701	Sololá	1	Sololá	12	Diciembre	2023-12-28T00:00:00	2024-11-08T01:00:00	8	Radiación solar	0
67257	7	Sololá	701	Sololá	1	Sololá	12	Diciembre	2023-12-28T00:00:00	2024-11-08T02:00:00	2	Temperatura media	10.4
67258	7	Sololá	701	Sololá	1	Sololá	12	Diciembre	2023-12-28T00:00:00	2024-11-08T02:00:00	4	Temperatura máxima	10.7
67259	7	Sololá	701	Sololá	1	Sololá	12	Diciembre	2023-12-28T00:00:00	2024-11-08T02:00:00	3	Temperatura mínima	10.3
67260	7	Sololá	701	Sololá	1	Sololá	12	Diciembre	2023-12-28T00:00:00	2024-11-08T02:00:00	5	Humedad	84
67261	7	Sololá	701	Sololá	1	Sololá	12	Diciembre	2023-12-28T00:00:00	2024-11-08T02:00:00	6	Velocidad del viento	0
67262	7	Sololá	701	Sololá	1	Sololá	12	Diciembre	2023-12-28T00:00:00	2024-11-08T02:00:00	7	Dirección del viento	0
67263	7	Sololá	701	Sololá	1	Sololá	12	Diciembre	2023-12-28T00:00:00	2024-11-08T02:00:00	1	Precipitación	0
67264	7	Sololá	701	Sololá	1	Sololá	12	Diciembre	2023-12-28T00:00:00	2024-11-08T02:00:00	8	Radiación solar	0
67265	7	Sololá	701	Sololá	1	Sololá	12	Diciembre	2023-12-28T00:00:00	2024-11-08T03:00:00	2	Temperatura media	9.9
67266	7	Sololá	701	Sololá	1	Sololá	12	Diciembre	2023-12-28T00:00:00	2024-11-08T03:00:00	4	Temperatura máxima	10.4
67267	7	Sololá	701	Sololá	1	Sololá	12	Diciembre	2023-12-28T00:00:00	2024-11-08T03:00:00	3	Temperatura mínima	9.8
67268	7	Sololá	701	Sololá	1	Sololá	12	Diciembre	2023-12-28T00:00:00	2024-11-08T03:00:00	5	Humedad	78
67269	7	Sololá	701	Sololá	1	Sololá	12	Diciembre	2023-12-28T00:00:00	2024-11-08T03:00:00	6	Velocidad del viento	0
67270	7	Sololá	701	Sololá	1	Sololá	12	Diciembre	2023-12-28T00:00:00	2024-11-08T03:00:00	7	Dirección del viento	0
67271	7	Sololá	701	Sololá	1	Sololá	12	Diciembre	2023-12-28T00:00:00	2024-11-08T03:00:00	1	Precipitación	0
67272	7	Sololá	701	Sololá	1	Sololá	12	Diciembre	2023-12-28T00:00:00	2024-11-08T03:00:00	8	Radiación solar	0
67273	7	Sololá	701	Sololá	1	Sololá	12	Diciembre	2023-12-28T00:00:00	2024-11-08T04:00:00	2	Temperatura media	10
67274	7	Sololá	701	Sololá	1	Sololá	12	Diciembre	2023-12-28T00:00:00	2024-11-08T04:00:00	4	Temperatura máxima	10.2
67275	7	Sololá	701	Sololá	1	Sololá	12	Diciembre	2023-12-28T00:00:00	2024-11-08T04:00:00	3	Temperatura mínima	9.8
67276	7	Sololá	701	Sololá	1	Sololá	12	Diciembre	2023-12-28T00:00:00	2024-11-08T04:00:00	5	Humedad	70
67277	7	Sololá	701	Sololá	1	Sololá	12	Diciembre	2023-12-28T00:00:00	2024-11-08T04:00:00	6	Velocidad del viento	1.6
67278	7	Sololá	701	Sololá	1	Sololá	12	Diciembre	2023-12-28T00:00:00	2024-11-08T04:00:00	7	Dirección del viento	1.61
67279	7	Sololá	701	Sololá	1	Sololá	12	Diciembre	2023-12-28T00:00:00	2024-11-08T04:00:00	1	Precipitación	0
67280	7	Sololá	701	Sololá	1	Sololá	12	Diciembre	2023-12-28T00:00:00	2024-11-08T04:00:00	8	Radiación solar	0
67281	7	Sololá	701	Sololá	1	Sololá	12	Diciembre	2023-12-28T00:00:00	2024-11-08T05:00:00	2	Temperatura media	9.9
67282	7	Sololá	701	Sololá	1	Sololá	12	Diciembre	2023-12-28T00:00:00	2024-11-08T05:00:00	4	Temperatura máxima	10
67283	7	Sololá	701	Sololá	1	Sololá	12	Diciembre	2023-12-28T00:00:00	2024-11-08T05:00:00	3	Temperatura mínima	9.7
67284	7	Sololá	701	Sololá	1	Sololá	12	Diciembre	2023-12-28T00:00:00	2024-11-08T05:00:00	5	Humedad	66
67285	7	Sololá	701	Sololá	1	Sololá	12	Diciembre	2023-12-28T00:00:00	2024-11-08T05:00:00	6	Velocidad del viento	1.6
67286	7	Sololá	701	Sololá	1	Sololá	12	Diciembre	2023-12-28T00:00:00	2024-11-08T05:00:00	7	Dirección del viento	1.61
67287	7	Sololá	701	Sololá	1	Sololá	12	Diciembre	2023-12-28T00:00:00	2024-11-08T05:00:00	1	Precipitación	0
67288	7	Sololá	701	Sololá	1	Sololá	12	Diciembre	2023-12-28T00:00:00	2024-11-08T05:00:00	8	Radiación solar	0
67289	7	Sololá	701	Sololá	1	Sololá	12	Diciembre	2023-12-28T00:00:00	2024-11-08T06:00:00	2	Temperatura media	10.3
67290	7	Sololá	701	Sololá	1	Sololá	12	Diciembre	2023-12-28T00:00:00	2024-11-08T06:00:00	4	Temperatura máxima	10.5
67291	7	Sololá	701	Sololá	1	Sololá	12	Diciembre	2023-12-28T00:00:00	2024-11-08T06:00:00	3	Temperatura mínima	9.7
67292	7	Sololá	701	Sololá	1	Sololá	12	Diciembre	2023-12-28T00:00:00	2024-11-08T06:00:00	5	Humedad	59
67293	7	Sololá	701	Sololá	1	Sololá	12	Diciembre	2023-12-28T00:00:00	2024-11-08T06:00:00	6	Velocidad del viento	1.6
67294	7	Sololá	701	Sololá	1	Sololá	12	Diciembre	2023-12-28T00:00:00	2024-11-08T06:00:00	7	Dirección del viento	1.61
67295	7	Sololá	701	Sololá	1	Sololá	12	Diciembre	2023-12-28T00:00:00	2024-11-08T06:00:00	1	Precipitación	0
67296	7	Sololá	701	Sololá	1	Sololá	12	Diciembre	2023-12-28T00:00:00	2024-11-08T06:00:00	8	Radiación solar	0
67297	7	Sololá	701	Sololá	1	Sololá	12	Diciembre	2023-12-28T00:00:00	2024-11-08T07:00:00	2	Temperatura media	10.2
67298	7	Sololá	701	Sololá	1	Sololá	12	Diciembre	2023-12-28T00:00:00	2024-11-08T07:00:00	4	Temperatura máxima	10.4
67299	7	Sololá	701	Sololá	1	Sololá	12	Diciembre	2023-12-28T00:00:00	2024-11-08T07:00:00	3	Temperatura mínima	10.2
67300	7	Sololá	701	Sololá	1	Sololá	12	Diciembre	2023-12-28T00:00:00	2024-11-08T07:00:00	5	Humedad	58
67301	7	Sololá	701	Sololá	1	Sololá	12	Diciembre	2023-12-28T00:00:00	2024-11-08T07:00:00	6	Velocidad del viento	1.6
67302	7	Sololá	701	Sololá	1	Sololá	12	Diciembre	2023-12-28T00:00:00	2024-11-08T07:00:00	7	Dirección del viento	1.61
67303	7	Sololá	701	Sololá	1	Sololá	12	Diciembre	2023-12-28T00:00:00	2024-11-08T07:00:00	1	Precipitación	0
67304	7	Sololá	701	Sololá	1	Sololá	12	Diciembre	2023-12-28T00:00:00	2024-11-08T07:00:00	8	Radiación solar	5
67305	7	Sololá	701	Sololá	1	Sololá	12	Diciembre	2023-12-28T00:00:00	2024-11-08T08:00:00	2	Temperatura media	13.5
67306	7	Sololá	701	Sololá	1	Sololá	12	Diciembre	2023-12-28T00:00:00	2024-11-08T08:00:00	4	Temperatura máxima	13.5
67307	7	Sololá	701	Sololá	1	Sololá	12	Diciembre	2023-12-28T00:00:00	2024-11-08T08:00:00	3	Temperatura mínima	10.2
67308	7	Sololá	701	Sololá	1	Sololá	12	Diciembre	2023-12-28T00:00:00	2024-11-08T08:00:00	5	Humedad	57
67309	7	Sololá	701	Sololá	1	Sololá	12	Diciembre	2023-12-28T00:00:00	2024-11-08T08:00:00	6	Velocidad del viento	0
67310	7	Sololá	701	Sololá	1	Sololá	12	Diciembre	2023-12-28T00:00:00	2024-11-08T08:00:00	7	Dirección del viento	0
67311	7	Sololá	701	Sololá	1	Sololá	12	Diciembre	2023-12-28T00:00:00	2024-11-08T08:00:00	1	Precipitación	0
67312	7	Sololá	701	Sololá	1	Sololá	12	Diciembre	2023-12-28T00:00:00	2024-11-08T08:00:00	8	Radiación solar	48
67313	7	Sololá	701	Sololá	1	Sololá	12	Diciembre	2023-12-28T00:00:00	2024-11-08T09:00:00	2	Temperatura media	20.2
67314	7	Sololá	701	Sololá	1	Sololá	12	Diciembre	2023-12-28T00:00:00	2024-11-08T09:00:00	4	Temperatura máxima	20.2
67315	7	Sololá	701	Sololá	1	Sololá	12	Diciembre	2023-12-28T00:00:00	2024-11-08T09:00:00	3	Temperatura mínima	13.6
67316	7	Sololá	701	Sololá	1	Sololá	12	Diciembre	2023-12-28T00:00:00	2024-11-08T09:00:00	5	Humedad	45
67317	7	Sololá	701	Sololá	1	Sololá	12	Diciembre	2023-12-28T00:00:00	2024-11-08T09:00:00	6	Velocidad del viento	0
67318	7	Sololá	701	Sololá	1	Sololá	12	Diciembre	2023-12-28T00:00:00	2024-11-08T09:00:00	7	Dirección del viento	0
67319	7	Sololá	701	Sololá	1	Sololá	12	Diciembre	2023-12-28T00:00:00	2024-11-08T09:00:00	1	Precipitación	0
67320	7	Sololá	701	Sololá	1	Sololá	12	Diciembre	2023-12-28T00:00:00	2024-11-08T09:00:00	8	Radiación solar	458
67321	7	Sololá	701	Sololá	1	Sololá	12	Diciembre	2023-12-28T00:00:00	2024-11-08T10:00:00	2	Temperatura media	20.4
67322	7	Sololá	701	Sololá	1	Sololá	12	Diciembre	2023-12-28T00:00:00	2024-11-08T10:00:00	4	Temperatura máxima	20.4
67323	7	Sololá	701	Sololá	1	Sololá	12	Diciembre	2023-12-28T00:00:00	2024-11-08T10:00:00	3	Temperatura mínima	20.2
67324	7	Sololá	701	Sololá	1	Sololá	12	Diciembre	2023-12-28T00:00:00	2024-11-08T10:00:00	5	Humedad	47
67325	7	Sololá	701	Sololá	1	Sololá	12	Diciembre	2023-12-28T00:00:00	2024-11-08T10:00:00	6	Velocidad del viento	0
67326	7	Sololá	701	Sololá	1	Sololá	12	Diciembre	2023-12-28T00:00:00	2024-11-08T10:00:00	7	Dirección del viento	0
67327	7	Sololá	701	Sololá	1	Sololá	12	Diciembre	2023-12-28T00:00:00	2024-11-08T10:00:00	1	Precipitación	0
67328	7	Sololá	701	Sololá	1	Sololá	12	Diciembre	2023-12-28T00:00:00	2024-11-08T10:00:00	8	Radiación solar	650
67329	7	Sololá	701	Sololá	1	Sololá	12	Diciembre	2023-12-28T00:00:00	2024-11-08T11:00:00	2	Temperatura media	21.6
67330	7	Sololá	701	Sololá	1	Sololá	12	Diciembre	2023-12-28T00:00:00	2024-11-08T11:00:00	4	Temperatura máxima	21.6
67331	7	Sololá	701	Sololá	1	Sololá	12	Diciembre	2023-12-28T00:00:00	2024-11-08T11:00:00	3	Temperatura mínima	20.4
67332	7	Sololá	701	Sololá	1	Sololá	12	Diciembre	2023-12-28T00:00:00	2024-11-08T11:00:00	5	Humedad	49
67333	7	Sololá	701	Sololá	1	Sololá	12	Diciembre	2023-12-28T00:00:00	2024-11-08T11:00:00	6	Velocidad del viento	0
67334	7	Sololá	701	Sololá	1	Sololá	12	Diciembre	2023-12-28T00:00:00	2024-11-08T11:00:00	7	Dirección del viento	0
67335	7	Sololá	701	Sololá	1	Sololá	12	Diciembre	2023-12-28T00:00:00	2024-11-08T11:00:00	1	Precipitación	0
67336	7	Sololá	701	Sololá	1	Sololá	12	Diciembre	2023-12-28T00:00:00	2024-11-08T11:00:00	8	Radiación solar	781
67337	7	Sololá	701	Sololá	1	Sololá	12	Diciembre	2023-12-28T00:00:00	2024-11-08T12:00:00	2	Temperatura media	21.9
67338	7	Sololá	701	Sololá	1	Sololá	12	Diciembre	2023-12-28T00:00:00	2024-11-08T12:00:00	4	Temperatura máxima	21.9
67339	7	Sololá	701	Sololá	1	Sololá	12	Diciembre	2023-12-28T00:00:00	2024-11-08T12:00:00	3	Temperatura mínima	21.3
67340	7	Sololá	701	Sololá	1	Sololá	12	Diciembre	2023-12-28T00:00:00	2024-11-08T12:00:00	5	Humedad	51
67341	7	Sololá	701	Sololá	1	Sololá	12	Diciembre	2023-12-28T00:00:00	2024-11-08T12:00:00	6	Velocidad del viento	0
67342	7	Sololá	701	Sololá	1	Sololá	12	Diciembre	2023-12-28T00:00:00	2024-11-08T12:00:00	7	Dirección del viento	0
67343	7	Sololá	701	Sololá	1	Sololá	12	Diciembre	2023-12-28T00:00:00	2024-11-08T12:00:00	1	Precipitación	0
67344	7	Sololá	701	Sololá	1	Sololá	12	Diciembre	2023-12-28T00:00:00	2024-11-08T12:00:00	8	Radiación solar	840
67345	7	Sololá	701	Sololá	1	Sololá	12	Diciembre	2023-12-28T00:00:00	2024-11-08T13:00:00	2	Temperatura media	21.3
67346	7	Sololá	701	Sololá	1	Sololá	12	Diciembre	2023-12-28T00:00:00	2024-11-08T13:00:00	4	Temperatura máxima	22.3
67347	7	Sololá	701	Sololá	1	Sololá	12	Diciembre	2023-12-28T00:00:00	2024-11-08T13:00:00	3	Temperatura mínima	21.3
67348	7	Sololá	701	Sololá	1	Sololá	12	Diciembre	2023-12-28T00:00:00	2024-11-08T13:00:00	5	Humedad	61
67349	7	Sololá	701	Sololá	1	Sololá	12	Diciembre	2023-12-28T00:00:00	2024-11-08T13:00:00	6	Velocidad del viento	0
67350	7	Sololá	701	Sololá	1	Sololá	12	Diciembre	2023-12-28T00:00:00	2024-11-08T13:00:00	7	Dirección del viento	0
67351	7	Sololá	701	Sololá	1	Sololá	12	Diciembre	2023-12-28T00:00:00	2024-11-08T13:00:00	1	Precipitación	0
67352	7	Sololá	701	Sololá	1	Sololá	12	Diciembre	2023-12-28T00:00:00	2024-11-08T13:00:00	8	Radiación solar	664
67353	7	Sololá	701	Sololá	1	Sololá	12	Diciembre	2023-12-28T00:00:00	2024-11-08T14:00:00	2	Temperatura media	21.2
67354	7	Sololá	701	Sololá	1	Sololá	12	Diciembre	2023-12-28T00:00:00	2024-11-08T14:00:00	4	Temperatura máxima	21.7
67355	7	Sololá	701	Sololá	1	Sololá	12	Diciembre	2023-12-28T00:00:00	2024-11-08T14:00:00	3	Temperatura mínima	21.2
67356	7	Sololá	701	Sololá	1	Sololá	12	Diciembre	2023-12-28T00:00:00	2024-11-08T14:00:00	5	Humedad	59
67357	7	Sololá	701	Sololá	1	Sololá	12	Diciembre	2023-12-28T00:00:00	2024-11-08T14:00:00	6	Velocidad del viento	0
67358	7	Sololá	701	Sololá	1	Sololá	12	Diciembre	2023-12-28T00:00:00	2024-11-08T14:00:00	7	Dirección del viento	0
67359	7	Sololá	701	Sololá	1	Sololá	12	Diciembre	2023-12-28T00:00:00	2024-11-08T14:00:00	1	Precipitación	0
67360	7	Sololá	701	Sololá	1	Sololá	12	Diciembre	2023-12-28T00:00:00	2024-11-08T14:00:00	8	Radiación solar	584
67361	7	Sololá	701	Sololá	1	Sololá	12	Diciembre	2023-12-28T00:00:00	2024-11-08T15:00:00	2	Temperatura media	20.5
67362	7	Sololá	701	Sololá	1	Sololá	12	Diciembre	2023-12-28T00:00:00	2024-11-08T15:00:00	4	Temperatura máxima	21.6
67363	7	Sololá	701	Sololá	1	Sololá	12	Diciembre	2023-12-28T00:00:00	2024-11-08T15:00:00	3	Temperatura mínima	20.5
67364	7	Sololá	701	Sololá	1	Sololá	12	Diciembre	2023-12-28T00:00:00	2024-11-08T15:00:00	5	Humedad	68
67365	7	Sololá	701	Sololá	1	Sololá	12	Diciembre	2023-12-28T00:00:00	2024-11-08T15:00:00	6	Velocidad del viento	0
67366	7	Sololá	701	Sololá	1	Sololá	12	Diciembre	2023-12-28T00:00:00	2024-11-08T15:00:00	7	Dirección del viento	0
67367	7	Sololá	701	Sololá	1	Sololá	12	Diciembre	2023-12-28T00:00:00	2024-11-08T15:00:00	1	Precipitación	0
67368	7	Sololá	701	Sololá	1	Sololá	12	Diciembre	2023-12-28T00:00:00	2024-11-08T15:00:00	8	Radiación solar	429
67369	7	Sololá	701	Sololá	1	Sololá	12	Diciembre	2023-12-28T00:00:00	2024-11-08T16:00:00	2	Temperatura media	18.4
67370	7	Sololá	701	Sololá	1	Sololá	12	Diciembre	2023-12-28T00:00:00	2024-11-08T16:00:00	4	Temperatura máxima	20.5
67371	7	Sololá	701	Sololá	1	Sololá	12	Diciembre	2023-12-28T00:00:00	2024-11-08T16:00:00	3	Temperatura mínima	18.4
67372	7	Sololá	701	Sololá	1	Sololá	12	Diciembre	2023-12-28T00:00:00	2024-11-08T16:00:00	5	Humedad	77
67373	7	Sololá	701	Sololá	1	Sololá	12	Diciembre	2023-12-28T00:00:00	2024-11-08T16:00:00	6	Velocidad del viento	0
67374	7	Sololá	701	Sololá	1	Sololá	12	Diciembre	2023-12-28T00:00:00	2024-11-08T16:00:00	7	Dirección del viento	0
67375	7	Sololá	701	Sololá	1	Sololá	12	Diciembre	2023-12-28T00:00:00	2024-11-08T16:00:00	1	Precipitación	0
67376	7	Sololá	701	Sololá	1	Sololá	12	Diciembre	2023-12-28T00:00:00	2024-11-08T16:00:00	8	Radiación solar	154
67377	7	Sololá	701	Sololá	1	Sololá	12	Diciembre	2023-12-28T00:00:00	2024-11-08T17:00:00	2	Temperatura media	16.6
67378	7	Sololá	701	Sololá	1	Sololá	12	Diciembre	2023-12-28T00:00:00	2024-11-08T17:00:00	4	Temperatura máxima	18.4
67379	7	Sololá	701	Sololá	1	Sololá	12	Diciembre	2023-12-28T00:00:00	2024-11-08T17:00:00	3	Temperatura mínima	16.6
67380	7	Sololá	701	Sololá	1	Sololá	12	Diciembre	2023-12-28T00:00:00	2024-11-08T17:00:00	5	Humedad	83
67381	7	Sololá	701	Sololá	1	Sololá	12	Diciembre	2023-12-28T00:00:00	2024-11-08T17:00:00	6	Velocidad del viento	0
67382	7	Sololá	701	Sololá	1	Sololá	12	Diciembre	2023-12-28T00:00:00	2024-11-08T17:00:00	7	Dirección del viento	0
67383	7	Sololá	701	Sololá	1	Sololá	12	Diciembre	2023-12-28T00:00:00	2024-11-08T17:00:00	1	Precipitación	0
67384	7	Sololá	701	Sololá	1	Sololá	12	Diciembre	2023-12-28T00:00:00	2024-11-08T17:00:00	8	Radiación solar	61
67385	7	Sololá	701	Sololá	1	Sololá	12	Diciembre	2023-12-28T00:00:00	2024-11-08T18:00:00	2	Temperatura media	15.6
67386	7	Sololá	701	Sololá	1	Sololá	12	Diciembre	2023-12-28T00:00:00	2024-11-08T18:00:00	4	Temperatura máxima	16.6
67387	7	Sololá	701	Sololá	1	Sololá	12	Diciembre	2023-12-28T00:00:00	2024-11-08T18:00:00	3	Temperatura mínima	15.6
67388	7	Sololá	701	Sololá	1	Sololá	12	Diciembre	2023-12-28T00:00:00	2024-11-08T18:00:00	5	Humedad	87
67389	7	Sololá	701	Sololá	1	Sololá	12	Diciembre	2023-12-28T00:00:00	2024-11-08T18:00:00	6	Velocidad del viento	0
67390	7	Sololá	701	Sololá	1	Sololá	12	Diciembre	2023-12-28T00:00:00	2024-11-08T18:00:00	7	Dirección del viento	0
67391	7	Sololá	701	Sololá	1	Sololá	12	Diciembre	2023-12-28T00:00:00	2024-11-08T18:00:00	1	Precipitación	0
67392	7	Sololá	701	Sololá	1	Sololá	12	Diciembre	2023-12-28T00:00:00	2024-11-08T18:00:00	8	Radiación solar	5
67393	7	Sololá	701	Sololá	1	Sololá	12	Diciembre	2023-12-28T00:00:00	2024-11-08T19:00:00	2	Temperatura media	14.9
67394	7	Sololá	701	Sololá	1	Sololá	12	Diciembre	2023-12-28T00:00:00	2024-11-08T19:00:00	4	Temperatura máxima	15.6
67395	7	Sololá	701	Sololá	1	Sololá	12	Diciembre	2023-12-28T00:00:00	2024-11-08T19:00:00	3	Temperatura mínima	14.9
67396	7	Sololá	701	Sololá	1	Sololá	12	Diciembre	2023-12-28T00:00:00	2024-11-08T19:00:00	5	Humedad	90
67397	7	Sololá	701	Sololá	1	Sololá	12	Diciembre	2023-12-28T00:00:00	2024-11-08T19:00:00	6	Velocidad del viento	0
67398	7	Sololá	701	Sololá	1	Sololá	12	Diciembre	2023-12-28T00:00:00	2024-11-08T19:00:00	7	Dirección del viento	0
67399	7	Sololá	701	Sololá	1	Sololá	12	Diciembre	2023-12-28T00:00:00	2024-11-08T19:00:00	1	Precipitación	0
67400	7	Sololá	701	Sololá	1	Sololá	12	Diciembre	2023-12-28T00:00:00	2024-11-08T19:00:00	8	Radiación solar	0
67401	7	Sololá	701	Sololá	1	Sololá	12	Diciembre	2023-12-28T00:00:00	2024-11-08T20:00:00	2	Temperatura media	14.2
67402	7	Sololá	701	Sololá	1	Sololá	12	Diciembre	2023-12-28T00:00:00	2024-11-08T20:00:00	4	Temperatura máxima	15
67403	7	Sololá	701	Sololá	1	Sololá	12	Diciembre	2023-12-28T00:00:00	2024-11-08T20:00:00	3	Temperatura mínima	14.2
67404	7	Sololá	701	Sololá	1	Sololá	12	Diciembre	2023-12-28T00:00:00	2024-11-08T20:00:00	5	Humedad	89
67405	7	Sololá	701	Sololá	1	Sololá	12	Diciembre	2023-12-28T00:00:00	2024-11-08T20:00:00	6	Velocidad del viento	0
67406	7	Sololá	701	Sololá	1	Sololá	12	Diciembre	2023-12-28T00:00:00	2024-11-08T20:00:00	7	Dirección del viento	0
67407	7	Sololá	701	Sololá	1	Sololá	12	Diciembre	2023-12-28T00:00:00	2024-11-08T20:00:00	1	Precipitación	0
67408	7	Sololá	701	Sololá	1	Sololá	12	Diciembre	2023-12-28T00:00:00	2024-11-08T20:00:00	8	Radiación solar	0
67409	7	Sololá	701	Sololá	1	Sololá	12	Diciembre	2023-12-28T00:00:00	2024-11-08T21:00:00	2	Temperatura media	14
67410	7	Sololá	701	Sololá	1	Sololá	12	Diciembre	2023-12-28T00:00:00	2024-11-08T21:00:00	4	Temperatura máxima	14.3
67411	7	Sololá	701	Sololá	1	Sololá	12	Diciembre	2023-12-28T00:00:00	2024-11-08T21:00:00	3	Temperatura mínima	14
67412	7	Sololá	701	Sololá	1	Sololá	12	Diciembre	2023-12-28T00:00:00	2024-11-08T21:00:00	5	Humedad	82
67413	7	Sololá	701	Sololá	1	Sololá	12	Diciembre	2023-12-28T00:00:00	2024-11-08T21:00:00	6	Velocidad del viento	0
67414	7	Sololá	701	Sololá	1	Sololá	12	Diciembre	2023-12-28T00:00:00	2024-11-08T21:00:00	7	Dirección del viento	0
67415	7	Sololá	701	Sololá	1	Sololá	12	Diciembre	2023-12-28T00:00:00	2024-11-08T21:00:00	1	Precipitación	0
67416	7	Sololá	701	Sololá	1	Sololá	12	Diciembre	2023-12-28T00:00:00	2024-11-08T21:00:00	8	Radiación solar	0
67417	7	Sololá	701	Sololá	1	Sololá	12	Diciembre	2023-12-28T00:00:00	2024-11-08T22:00:00	2	Temperatura media	14.1
67418	7	Sololá	701	Sololá	1	Sololá	12	Diciembre	2023-12-28T00:00:00	2024-11-08T22:00:00	4	Temperatura máxima	14.1
67419	7	Sololá	701	Sololá	1	Sololá	12	Diciembre	2023-12-28T00:00:00	2024-11-08T22:00:00	3	Temperatura mínima	13.7
67420	7	Sololá	701	Sololá	1	Sololá	12	Diciembre	2023-12-28T00:00:00	2024-11-08T22:00:00	5	Humedad	83
67421	7	Sololá	701	Sololá	1	Sololá	12	Diciembre	2023-12-28T00:00:00	2024-11-08T22:00:00	6	Velocidad del viento	0
67422	7	Sololá	701	Sololá	1	Sololá	12	Diciembre	2023-12-28T00:00:00	2024-11-08T22:00:00	7	Dirección del viento	0
67423	7	Sololá	701	Sololá	1	Sololá	12	Diciembre	2023-12-28T00:00:00	2024-11-08T22:00:00	1	Precipitación	0
67424	7	Sololá	701	Sololá	1	Sololá	12	Diciembre	2023-12-28T00:00:00	2024-11-08T22:00:00	8	Radiación solar	0
67425	7	Sololá	701	Sololá	1	Sololá	12	Diciembre	2023-12-28T00:00:00	2024-11-08T23:00:00	2	Temperatura media	13.7
67426	7	Sololá	701	Sololá	1	Sololá	12	Diciembre	2023-12-28T00:00:00	2024-11-08T23:00:00	4	Temperatura máxima	14.2
67427	7	Sololá	701	Sololá	1	Sololá	12	Diciembre	2023-12-28T00:00:00	2024-11-08T23:00:00	3	Temperatura mínima	13.7
67428	7	Sololá	701	Sololá	1	Sololá	12	Diciembre	2023-12-28T00:00:00	2024-11-08T23:00:00	5	Humedad	85
67429	7	Sololá	701	Sololá	1	Sololá	12	Diciembre	2023-12-28T00:00:00	2024-11-08T23:00:00	6	Velocidad del viento	0
67430	7	Sololá	701	Sololá	1	Sololá	12	Diciembre	2023-12-28T00:00:00	2024-11-08T23:00:00	7	Dirección del viento	0
67431	7	Sololá	701	Sololá	1	Sololá	12	Diciembre	2023-12-28T00:00:00	2024-11-08T23:00:00	1	Precipitación	0
67432	7	Sololá	701	Sololá	1	Sololá	12	Diciembre	2023-12-28T00:00:00	2024-11-08T23:00:00	8	Radiación solar	0
67433	7	Sololá	701	Sololá	1	Sololá	12	Diciembre	2023-12-29T00:00:00	2024-11-08T00:00:00	2	Temperatura media	13.1
67434	7	Sololá	701	Sololá	1	Sololá	12	Diciembre	2023-12-29T00:00:00	2024-11-08T00:00:00	4	Temperatura máxima	13.7
67435	7	Sololá	701	Sololá	1	Sololá	12	Diciembre	2023-12-29T00:00:00	2024-11-08T00:00:00	3	Temperatura mínima	13.1
67436	7	Sololá	701	Sololá	1	Sololá	12	Diciembre	2023-12-29T00:00:00	2024-11-08T00:00:00	5	Humedad	87
67437	7	Sololá	701	Sololá	1	Sololá	12	Diciembre	2023-12-29T00:00:00	2024-11-08T00:00:00	6	Velocidad del viento	0
67438	7	Sololá	701	Sololá	1	Sololá	12	Diciembre	2023-12-29T00:00:00	2024-11-08T00:00:00	7	Dirección del viento	0
67439	7	Sololá	701	Sololá	1	Sololá	12	Diciembre	2023-12-29T00:00:00	2024-11-08T00:00:00	1	Precipitación	0
67440	7	Sololá	701	Sololá	1	Sololá	12	Diciembre	2023-12-29T00:00:00	2024-11-08T00:00:00	8	Radiación solar	0
67441	7	Sololá	701	Sololá	1	Sololá	12	Diciembre	2023-12-29T00:00:00	2024-11-08T01:00:00	2	Temperatura media	12.9
67442	7	Sololá	701	Sololá	1	Sololá	12	Diciembre	2023-12-29T00:00:00	2024-11-08T01:00:00	4	Temperatura máxima	13.3
67443	7	Sololá	701	Sololá	1	Sololá	12	Diciembre	2023-12-29T00:00:00	2024-11-08T01:00:00	3	Temperatura mínima	12.9
67444	7	Sololá	701	Sololá	1	Sololá	12	Diciembre	2023-12-29T00:00:00	2024-11-08T01:00:00	5	Humedad	88
67445	7	Sololá	701	Sololá	1	Sololá	12	Diciembre	2023-12-29T00:00:00	2024-11-08T01:00:00	6	Velocidad del viento	0
67446	7	Sololá	701	Sololá	1	Sololá	12	Diciembre	2023-12-29T00:00:00	2024-11-08T01:00:00	7	Dirección del viento	0
67447	7	Sololá	701	Sololá	1	Sololá	12	Diciembre	2023-12-29T00:00:00	2024-11-08T01:00:00	1	Precipitación	0
67448	7	Sololá	701	Sololá	1	Sololá	12	Diciembre	2023-12-29T00:00:00	2024-11-08T01:00:00	8	Radiación solar	0
67449	7	Sololá	701	Sololá	1	Sololá	12	Diciembre	2023-12-29T00:00:00	2024-11-08T02:00:00	2	Temperatura media	12.4
67450	7	Sololá	701	Sololá	1	Sololá	12	Diciembre	2023-12-29T00:00:00	2024-11-08T02:00:00	4	Temperatura máxima	12.9
67451	7	Sololá	701	Sololá	1	Sololá	12	Diciembre	2023-12-29T00:00:00	2024-11-08T02:00:00	3	Temperatura mínima	12.4
67452	7	Sololá	701	Sololá	1	Sololá	12	Diciembre	2023-12-29T00:00:00	2024-11-08T02:00:00	5	Humedad	89
67453	7	Sololá	701	Sololá	1	Sololá	12	Diciembre	2023-12-29T00:00:00	2024-11-08T02:00:00	6	Velocidad del viento	0
67454	7	Sololá	701	Sololá	1	Sololá	12	Diciembre	2023-12-29T00:00:00	2024-11-08T02:00:00	7	Dirección del viento	0
67455	7	Sololá	701	Sololá	1	Sololá	12	Diciembre	2023-12-29T00:00:00	2024-11-08T02:00:00	1	Precipitación	0
67456	7	Sololá	701	Sololá	1	Sololá	12	Diciembre	2023-12-29T00:00:00	2024-11-08T02:00:00	8	Radiación solar	0
67457	7	Sololá	701	Sololá	1	Sololá	12	Diciembre	2023-12-29T00:00:00	2024-11-08T03:00:00	2	Temperatura media	12.3
67458	7	Sololá	701	Sololá	1	Sololá	12	Diciembre	2023-12-29T00:00:00	2024-11-08T03:00:00	4	Temperatura máxima	12.4
67459	7	Sololá	701	Sololá	1	Sololá	12	Diciembre	2023-12-29T00:00:00	2024-11-08T03:00:00	3	Temperatura mínima	12.3
67460	7	Sololá	701	Sololá	1	Sololá	12	Diciembre	2023-12-29T00:00:00	2024-11-08T03:00:00	5	Humedad	90
67461	7	Sololá	701	Sololá	1	Sololá	12	Diciembre	2023-12-29T00:00:00	2024-11-08T03:00:00	6	Velocidad del viento	0
67462	7	Sololá	701	Sololá	1	Sololá	12	Diciembre	2023-12-29T00:00:00	2024-11-08T03:00:00	7	Dirección del viento	0
67463	7	Sololá	701	Sololá	1	Sololá	12	Diciembre	2023-12-29T00:00:00	2024-11-08T03:00:00	1	Precipitación	0
67464	7	Sololá	701	Sololá	1	Sololá	12	Diciembre	2023-12-29T00:00:00	2024-11-08T03:00:00	8	Radiación solar	0
67465	7	Sololá	701	Sololá	1	Sololá	12	Diciembre	2023-12-29T00:00:00	2024-11-08T04:00:00	2	Temperatura media	12.1
67466	7	Sololá	701	Sololá	1	Sololá	12	Diciembre	2023-12-29T00:00:00	2024-11-08T04:00:00	4	Temperatura máxima	12.3
67467	7	Sololá	701	Sololá	1	Sololá	12	Diciembre	2023-12-29T00:00:00	2024-11-08T04:00:00	3	Temperatura mínima	12.1
67468	7	Sololá	701	Sololá	1	Sololá	12	Diciembre	2023-12-29T00:00:00	2024-11-08T04:00:00	5	Humedad	89
67469	7	Sololá	701	Sololá	1	Sololá	12	Diciembre	2023-12-29T00:00:00	2024-11-08T04:00:00	6	Velocidad del viento	0
67470	7	Sololá	701	Sololá	1	Sololá	12	Diciembre	2023-12-29T00:00:00	2024-11-08T04:00:00	7	Dirección del viento	0
67471	7	Sololá	701	Sololá	1	Sololá	12	Diciembre	2023-12-29T00:00:00	2024-11-08T04:00:00	1	Precipitación	0
67472	7	Sololá	701	Sololá	1	Sololá	12	Diciembre	2023-12-29T00:00:00	2024-11-08T04:00:00	8	Radiación solar	0
67473	7	Sololá	701	Sololá	1	Sololá	12	Diciembre	2023-12-29T00:00:00	2024-11-08T05:00:00	2	Temperatura media	12.2
67474	7	Sololá	701	Sololá	1	Sololá	12	Diciembre	2023-12-29T00:00:00	2024-11-08T05:00:00	4	Temperatura máxima	12.3
67475	7	Sololá	701	Sololá	1	Sololá	12	Diciembre	2023-12-29T00:00:00	2024-11-08T05:00:00	3	Temperatura mínima	12.1
67476	7	Sololá	701	Sololá	1	Sololá	12	Diciembre	2023-12-29T00:00:00	2024-11-08T05:00:00	5	Humedad	88
67477	7	Sololá	701	Sololá	1	Sololá	12	Diciembre	2023-12-29T00:00:00	2024-11-08T05:00:00	6	Velocidad del viento	0
67478	7	Sololá	701	Sololá	1	Sololá	12	Diciembre	2023-12-29T00:00:00	2024-11-08T05:00:00	7	Dirección del viento	0
67479	7	Sololá	701	Sololá	1	Sololá	12	Diciembre	2023-12-29T00:00:00	2024-11-08T05:00:00	1	Precipitación	0
67480	7	Sololá	701	Sololá	1	Sololá	12	Diciembre	2023-12-29T00:00:00	2024-11-08T05:00:00	8	Radiación solar	0
67481	7	Sololá	701	Sololá	1	Sololá	12	Diciembre	2023-12-29T00:00:00	2024-11-08T06:00:00	2	Temperatura media	11.8
67482	7	Sololá	701	Sololá	1	Sololá	12	Diciembre	2023-12-29T00:00:00	2024-11-08T06:00:00	4	Temperatura máxima	12.4
67483	7	Sololá	701	Sololá	1	Sololá	12	Diciembre	2023-12-29T00:00:00	2024-11-08T06:00:00	3	Temperatura mínima	11.8
67484	7	Sololá	701	Sololá	1	Sololá	12	Diciembre	2023-12-29T00:00:00	2024-11-08T06:00:00	5	Humedad	89
67485	7	Sololá	701	Sololá	1	Sololá	12	Diciembre	2023-12-29T00:00:00	2024-11-08T06:00:00	6	Velocidad del viento	0
67486	7	Sololá	701	Sololá	1	Sololá	12	Diciembre	2023-12-29T00:00:00	2024-11-08T06:00:00	7	Dirección del viento	0
67487	7	Sololá	701	Sololá	1	Sololá	12	Diciembre	2023-12-29T00:00:00	2024-11-08T06:00:00	1	Precipitación	0
67488	7	Sololá	701	Sololá	1	Sololá	12	Diciembre	2023-12-29T00:00:00	2024-11-08T06:00:00	8	Radiación solar	0
67489	7	Sololá	701	Sololá	1	Sololá	12	Diciembre	2023-12-29T00:00:00	2024-11-08T07:00:00	2	Temperatura media	11.8
67490	7	Sololá	701	Sololá	1	Sololá	12	Diciembre	2023-12-29T00:00:00	2024-11-08T07:00:00	4	Temperatura máxima	11.9
67491	7	Sololá	701	Sololá	1	Sololá	12	Diciembre	2023-12-29T00:00:00	2024-11-08T07:00:00	3	Temperatura mínima	11.6
67492	7	Sololá	701	Sololá	1	Sololá	12	Diciembre	2023-12-29T00:00:00	2024-11-08T07:00:00	5	Humedad	90
67493	7	Sololá	701	Sololá	1	Sololá	12	Diciembre	2023-12-29T00:00:00	2024-11-08T07:00:00	6	Velocidad del viento	0
67494	7	Sololá	701	Sololá	1	Sololá	12	Diciembre	2023-12-29T00:00:00	2024-11-08T07:00:00	7	Dirección del viento	0
67495	7	Sololá	701	Sololá	1	Sololá	12	Diciembre	2023-12-29T00:00:00	2024-11-08T07:00:00	1	Precipitación	0
67496	7	Sololá	701	Sololá	1	Sololá	12	Diciembre	2023-12-29T00:00:00	2024-11-08T07:00:00	8	Radiación solar	5
67497	7	Sololá	701	Sololá	1	Sololá	12	Diciembre	2023-12-29T00:00:00	2024-11-08T08:00:00	2	Temperatura media	12.8
67498	7	Sololá	701	Sololá	1	Sololá	12	Diciembre	2023-12-29T00:00:00	2024-11-08T08:00:00	4	Temperatura máxima	12.8
67499	7	Sololá	701	Sololá	1	Sololá	12	Diciembre	2023-12-29T00:00:00	2024-11-08T08:00:00	3	Temperatura mínima	11.7
67500	7	Sololá	701	Sololá	1	Sololá	12	Diciembre	2023-12-29T00:00:00	2024-11-08T08:00:00	5	Humedad	89
67501	7	Sololá	701	Sololá	1	Sololá	12	Diciembre	2023-12-29T00:00:00	2024-11-08T08:00:00	6	Velocidad del viento	0
67502	7	Sololá	701	Sololá	1	Sololá	12	Diciembre	2023-12-29T00:00:00	2024-11-08T08:00:00	7	Dirección del viento	0
67503	7	Sololá	701	Sololá	1	Sololá	12	Diciembre	2023-12-29T00:00:00	2024-11-08T08:00:00	1	Precipitación	0
67504	7	Sololá	701	Sololá	1	Sololá	12	Diciembre	2023-12-29T00:00:00	2024-11-08T08:00:00	8	Radiación solar	54
67505	7	Sololá	701	Sololá	1	Sololá	12	Diciembre	2023-12-29T00:00:00	2024-11-08T09:00:00	2	Temperatura media	16.8
67506	7	Sololá	701	Sololá	1	Sololá	12	Diciembre	2023-12-29T00:00:00	2024-11-08T09:00:00	4	Temperatura máxima	16.8
67507	7	Sololá	701	Sololá	1	Sololá	12	Diciembre	2023-12-29T00:00:00	2024-11-08T09:00:00	3	Temperatura mínima	12.8
67508	7	Sololá	701	Sololá	1	Sololá	12	Diciembre	2023-12-29T00:00:00	2024-11-08T09:00:00	5	Humedad	78
67509	7	Sololá	701	Sololá	1	Sololá	12	Diciembre	2023-12-29T00:00:00	2024-11-08T09:00:00	6	Velocidad del viento	0
67510	7	Sololá	701	Sololá	1	Sololá	12	Diciembre	2023-12-29T00:00:00	2024-11-08T09:00:00	7	Dirección del viento	0
67511	7	Sololá	701	Sololá	1	Sololá	12	Diciembre	2023-12-29T00:00:00	2024-11-08T09:00:00	1	Precipitación	0
67512	7	Sololá	701	Sololá	1	Sololá	12	Diciembre	2023-12-29T00:00:00	2024-11-08T09:00:00	8	Radiación solar	246
67513	7	Sololá	701	Sololá	1	Sololá	12	Diciembre	2023-12-29T00:00:00	2024-11-08T10:00:00	2	Temperatura media	18.3
67514	7	Sololá	701	Sololá	1	Sololá	12	Diciembre	2023-12-29T00:00:00	2024-11-08T10:00:00	4	Temperatura máxima	18.3
67515	7	Sololá	701	Sololá	1	Sololá	12	Diciembre	2023-12-29T00:00:00	2024-11-08T10:00:00	3	Temperatura mínima	16.8
67516	7	Sololá	701	Sololá	1	Sololá	12	Diciembre	2023-12-29T00:00:00	2024-11-08T10:00:00	5	Humedad	74
67517	7	Sololá	701	Sololá	1	Sololá	12	Diciembre	2023-12-29T00:00:00	2024-11-08T10:00:00	6	Velocidad del viento	0
67518	7	Sololá	701	Sololá	1	Sololá	12	Diciembre	2023-12-29T00:00:00	2024-11-08T10:00:00	7	Dirección del viento	0
67519	7	Sololá	701	Sololá	1	Sololá	12	Diciembre	2023-12-29T00:00:00	2024-11-08T10:00:00	1	Precipitación	0
67520	7	Sololá	701	Sololá	1	Sololá	12	Diciembre	2023-12-29T00:00:00	2024-11-08T10:00:00	8	Radiación solar	343
67521	7	Sololá	701	Sololá	1	Sololá	12	Diciembre	2023-12-29T00:00:00	2024-11-08T11:00:00	2	Temperatura media	20.6
67522	7	Sololá	701	Sololá	1	Sololá	12	Diciembre	2023-12-29T00:00:00	2024-11-08T11:00:00	4	Temperatura máxima	20.6
67523	7	Sololá	701	Sololá	1	Sololá	12	Diciembre	2023-12-29T00:00:00	2024-11-08T11:00:00	3	Temperatura mínima	18.2
67524	7	Sololá	701	Sololá	1	Sololá	12	Diciembre	2023-12-29T00:00:00	2024-11-08T11:00:00	5	Humedad	66
67525	7	Sololá	701	Sololá	1	Sololá	12	Diciembre	2023-12-29T00:00:00	2024-11-08T11:00:00	6	Velocidad del viento	0
67526	7	Sololá	701	Sololá	1	Sololá	12	Diciembre	2023-12-29T00:00:00	2024-11-08T11:00:00	7	Dirección del viento	0
67527	7	Sololá	701	Sololá	1	Sololá	12	Diciembre	2023-12-29T00:00:00	2024-11-08T11:00:00	1	Precipitación	0
67528	7	Sololá	701	Sololá	1	Sololá	12	Diciembre	2023-12-29T00:00:00	2024-11-08T11:00:00	8	Radiación solar	567
67529	7	Sololá	701	Sololá	1	Sololá	12	Diciembre	2023-12-29T00:00:00	2024-11-08T12:00:00	2	Temperatura media	20.1
67530	7	Sololá	701	Sololá	1	Sololá	12	Diciembre	2023-12-29T00:00:00	2024-11-08T12:00:00	4	Temperatura máxima	20.7
67531	7	Sololá	701	Sololá	1	Sololá	12	Diciembre	2023-12-29T00:00:00	2024-11-08T12:00:00	3	Temperatura mínima	20
67532	7	Sololá	701	Sololá	1	Sololá	12	Diciembre	2023-12-29T00:00:00	2024-11-08T12:00:00	5	Humedad	69
67533	7	Sololá	701	Sololá	1	Sololá	12	Diciembre	2023-12-29T00:00:00	2024-11-08T12:00:00	6	Velocidad del viento	0
67534	7	Sololá	701	Sololá	1	Sololá	12	Diciembre	2023-12-29T00:00:00	2024-11-08T12:00:00	7	Dirección del viento	0
67535	7	Sololá	701	Sololá	1	Sololá	12	Diciembre	2023-12-29T00:00:00	2024-11-08T12:00:00	1	Precipitación	0
67536	7	Sololá	701	Sololá	1	Sololá	12	Diciembre	2023-12-29T00:00:00	2024-11-08T12:00:00	8	Radiación solar	536
67537	7	Sololá	701	Sololá	1	Sololá	12	Diciembre	2023-12-29T00:00:00	2024-11-08T13:00:00	2	Temperatura media	21.2
67538	7	Sololá	701	Sololá	1	Sololá	12	Diciembre	2023-12-29T00:00:00	2024-11-08T13:00:00	4	Temperatura máxima	21.2
67539	7	Sololá	701	Sololá	1	Sololá	12	Diciembre	2023-12-29T00:00:00	2024-11-08T13:00:00	3	Temperatura mínima	20
67540	7	Sololá	701	Sololá	1	Sololá	12	Diciembre	2023-12-29T00:00:00	2024-11-08T13:00:00	5	Humedad	67
67541	7	Sololá	701	Sololá	1	Sololá	12	Diciembre	2023-12-29T00:00:00	2024-11-08T13:00:00	6	Velocidad del viento	0
67542	7	Sololá	701	Sololá	1	Sololá	12	Diciembre	2023-12-29T00:00:00	2024-11-08T13:00:00	7	Dirección del viento	0
67543	7	Sololá	701	Sololá	1	Sololá	12	Diciembre	2023-12-29T00:00:00	2024-11-08T13:00:00	1	Precipitación	0
67544	7	Sololá	701	Sololá	1	Sololá	12	Diciembre	2023-12-29T00:00:00	2024-11-08T13:00:00	8	Radiación solar	563
67545	7	Sololá	701	Sololá	1	Sololá	12	Diciembre	2023-12-29T00:00:00	2024-11-08T14:00:00	2	Temperatura media	18.8
67546	7	Sololá	701	Sololá	1	Sololá	12	Diciembre	2023-12-29T00:00:00	2024-11-08T14:00:00	4	Temperatura máxima	21.3
67547	7	Sololá	701	Sololá	1	Sololá	12	Diciembre	2023-12-29T00:00:00	2024-11-08T14:00:00	3	Temperatura mínima	18.8
67548	7	Sololá	701	Sololá	1	Sololá	12	Diciembre	2023-12-29T00:00:00	2024-11-08T14:00:00	5	Humedad	75
67549	7	Sololá	701	Sololá	1	Sololá	12	Diciembre	2023-12-29T00:00:00	2024-11-08T14:00:00	6	Velocidad del viento	0
67550	7	Sololá	701	Sololá	1	Sololá	12	Diciembre	2023-12-29T00:00:00	2024-11-08T14:00:00	7	Dirección del viento	0
67551	7	Sololá	701	Sololá	1	Sololá	12	Diciembre	2023-12-29T00:00:00	2024-11-08T14:00:00	1	Precipitación	0
67552	7	Sololá	701	Sololá	1	Sololá	12	Diciembre	2023-12-29T00:00:00	2024-11-08T14:00:00	8	Radiación solar	327
67553	7	Sololá	701	Sololá	1	Sololá	12	Diciembre	2023-12-29T00:00:00	2024-11-08T15:00:00	2	Temperatura media	18.6
67554	7	Sololá	701	Sololá	1	Sololá	12	Diciembre	2023-12-29T00:00:00	2024-11-08T15:00:00	4	Temperatura máxima	19.3
67555	7	Sololá	701	Sololá	1	Sololá	12	Diciembre	2023-12-29T00:00:00	2024-11-08T15:00:00	3	Temperatura mínima	18.5
67556	7	Sololá	701	Sololá	1	Sololá	12	Diciembre	2023-12-29T00:00:00	2024-11-08T15:00:00	5	Humedad	72
67557	7	Sololá	701	Sololá	1	Sololá	12	Diciembre	2023-12-29T00:00:00	2024-11-08T15:00:00	6	Velocidad del viento	0
67558	7	Sololá	701	Sololá	1	Sololá	12	Diciembre	2023-12-29T00:00:00	2024-11-08T15:00:00	7	Dirección del viento	0
67559	7	Sololá	701	Sololá	1	Sololá	12	Diciembre	2023-12-29T00:00:00	2024-11-08T15:00:00	1	Precipitación	0
67560	7	Sololá	701	Sololá	1	Sololá	12	Diciembre	2023-12-29T00:00:00	2024-11-08T15:00:00	8	Radiación solar	231
67561	7	Sololá	701	Sololá	1	Sololá	12	Diciembre	2023-12-29T00:00:00	2024-11-08T16:00:00	2	Temperatura media	17.1
67562	7	Sololá	701	Sololá	1	Sololá	12	Diciembre	2023-12-29T00:00:00	2024-11-08T16:00:00	4	Temperatura máxima	18.5
67563	7	Sololá	701	Sololá	1	Sololá	12	Diciembre	2023-12-29T00:00:00	2024-11-08T16:00:00	3	Temperatura mínima	17.1
67564	7	Sololá	701	Sololá	1	Sololá	12	Diciembre	2023-12-29T00:00:00	2024-11-08T16:00:00	5	Humedad	74
67565	7	Sololá	701	Sololá	1	Sololá	12	Diciembre	2023-12-29T00:00:00	2024-11-08T16:00:00	6	Velocidad del viento	0
67566	7	Sololá	701	Sololá	1	Sololá	12	Diciembre	2023-12-29T00:00:00	2024-11-08T16:00:00	7	Dirección del viento	0
67567	7	Sololá	701	Sololá	1	Sololá	12	Diciembre	2023-12-29T00:00:00	2024-11-08T16:00:00	1	Precipitación	0
67568	7	Sololá	701	Sololá	1	Sololá	12	Diciembre	2023-12-29T00:00:00	2024-11-08T16:00:00	8	Radiación solar	89
67569	7	Sololá	701	Sololá	1	Sololá	12	Diciembre	2023-12-29T00:00:00	2024-11-08T17:00:00	2	Temperatura media	16.9
67570	7	Sololá	701	Sololá	1	Sololá	12	Diciembre	2023-12-29T00:00:00	2024-11-08T17:00:00	4	Temperatura máxima	17.3
67571	7	Sololá	701	Sololá	1	Sololá	12	Diciembre	2023-12-29T00:00:00	2024-11-08T17:00:00	3	Temperatura mínima	16.9
67572	7	Sololá	701	Sololá	1	Sololá	12	Diciembre	2023-12-29T00:00:00	2024-11-08T17:00:00	5	Humedad	78
67573	7	Sololá	701	Sololá	1	Sololá	12	Diciembre	2023-12-29T00:00:00	2024-11-08T17:00:00	6	Velocidad del viento	0
67574	7	Sololá	701	Sololá	1	Sololá	12	Diciembre	2023-12-29T00:00:00	2024-11-08T17:00:00	7	Dirección del viento	0
67575	7	Sololá	701	Sololá	1	Sololá	12	Diciembre	2023-12-29T00:00:00	2024-11-08T17:00:00	1	Precipitación	0
67576	7	Sololá	701	Sololá	1	Sololá	12	Diciembre	2023-12-29T00:00:00	2024-11-08T17:00:00	8	Radiación solar	52
67577	7	Sololá	701	Sololá	1	Sololá	12	Diciembre	2023-12-29T00:00:00	2024-11-08T18:00:00	2	Temperatura media	15.9
67578	7	Sololá	701	Sololá	1	Sololá	12	Diciembre	2023-12-29T00:00:00	2024-11-08T18:00:00	4	Temperatura máxima	16.9
67579	7	Sololá	701	Sololá	1	Sololá	12	Diciembre	2023-12-29T00:00:00	2024-11-08T18:00:00	3	Temperatura mínima	15.9
67580	7	Sololá	701	Sololá	1	Sololá	12	Diciembre	2023-12-29T00:00:00	2024-11-08T18:00:00	5	Humedad	85
67581	7	Sololá	701	Sololá	1	Sololá	12	Diciembre	2023-12-29T00:00:00	2024-11-08T18:00:00	6	Velocidad del viento	0
67582	7	Sololá	701	Sololá	1	Sololá	12	Diciembre	2023-12-29T00:00:00	2024-11-08T18:00:00	7	Dirección del viento	0
67583	7	Sololá	701	Sololá	1	Sololá	12	Diciembre	2023-12-29T00:00:00	2024-11-08T18:00:00	1	Precipitación	0
67584	7	Sololá	701	Sololá	1	Sololá	12	Diciembre	2023-12-29T00:00:00	2024-11-08T18:00:00	8	Radiación solar	12
67585	7	Sololá	701	Sololá	1	Sololá	12	Diciembre	2023-12-29T00:00:00	2024-11-08T19:00:00	2	Temperatura media	15.3
67586	7	Sololá	701	Sololá	1	Sololá	12	Diciembre	2023-12-29T00:00:00	2024-11-08T19:00:00	4	Temperatura máxima	15.9
67587	7	Sololá	701	Sololá	1	Sololá	12	Diciembre	2023-12-29T00:00:00	2024-11-08T19:00:00	3	Temperatura mínima	15.3
67588	7	Sololá	701	Sololá	1	Sololá	12	Diciembre	2023-12-29T00:00:00	2024-11-08T19:00:00	5	Humedad	87
67589	7	Sololá	701	Sololá	1	Sololá	12	Diciembre	2023-12-29T00:00:00	2024-11-08T19:00:00	6	Velocidad del viento	0
67590	7	Sololá	701	Sololá	1	Sololá	12	Diciembre	2023-12-29T00:00:00	2024-11-08T19:00:00	7	Dirección del viento	0
67591	7	Sololá	701	Sololá	1	Sololá	12	Diciembre	2023-12-29T00:00:00	2024-11-08T19:00:00	1	Precipitación	0
67592	7	Sololá	701	Sololá	1	Sololá	12	Diciembre	2023-12-29T00:00:00	2024-11-08T19:00:00	8	Radiación solar	0
67593	7	Sololá	701	Sololá	1	Sololá	12	Diciembre	2023-12-29T00:00:00	2024-11-08T20:00:00	2	Temperatura media	13.6
67594	7	Sololá	701	Sololá	1	Sololá	12	Diciembre	2023-12-29T00:00:00	2024-11-08T20:00:00	4	Temperatura máxima	15.3
67595	7	Sololá	701	Sololá	1	Sololá	12	Diciembre	2023-12-29T00:00:00	2024-11-08T20:00:00	3	Temperatura mínima	13.6
67596	7	Sololá	701	Sololá	1	Sololá	12	Diciembre	2023-12-29T00:00:00	2024-11-08T20:00:00	5	Humedad	89
67597	7	Sololá	701	Sololá	1	Sololá	12	Diciembre	2023-12-29T00:00:00	2024-11-08T20:00:00	6	Velocidad del viento	0
67598	7	Sololá	701	Sololá	1	Sololá	12	Diciembre	2023-12-29T00:00:00	2024-11-08T20:00:00	7	Dirección del viento	0
67599	7	Sololá	701	Sololá	1	Sololá	12	Diciembre	2023-12-29T00:00:00	2024-11-08T20:00:00	1	Precipitación	0
67600	7	Sololá	701	Sololá	1	Sololá	12	Diciembre	2023-12-29T00:00:00	2024-11-08T20:00:00	8	Radiación solar	0
67601	7	Sololá	701	Sololá	1	Sololá	12	Diciembre	2023-12-29T00:00:00	2024-11-08T21:00:00	2	Temperatura media	12.6
67602	7	Sololá	701	Sololá	1	Sololá	12	Diciembre	2023-12-29T00:00:00	2024-11-08T21:00:00	4	Temperatura máxima	13.6
67603	7	Sololá	701	Sololá	1	Sololá	12	Diciembre	2023-12-29T00:00:00	2024-11-08T21:00:00	3	Temperatura mínima	12.6
67604	7	Sololá	701	Sololá	1	Sololá	12	Diciembre	2023-12-29T00:00:00	2024-11-08T21:00:00	5	Humedad	88
67605	7	Sololá	701	Sololá	1	Sololá	12	Diciembre	2023-12-29T00:00:00	2024-11-08T21:00:00	6	Velocidad del viento	0
67606	7	Sololá	701	Sololá	1	Sololá	12	Diciembre	2023-12-29T00:00:00	2024-11-08T21:00:00	7	Dirección del viento	0
67607	7	Sololá	701	Sololá	1	Sololá	12	Diciembre	2023-12-29T00:00:00	2024-11-08T21:00:00	1	Precipitación	0
67608	7	Sololá	701	Sololá	1	Sololá	12	Diciembre	2023-12-29T00:00:00	2024-11-08T21:00:00	8	Radiación solar	0
67609	7	Sololá	701	Sololá	1	Sololá	12	Diciembre	2023-12-29T00:00:00	2024-11-08T22:00:00	2	Temperatura media	11.8
67610	7	Sololá	701	Sololá	1	Sololá	12	Diciembre	2023-12-29T00:00:00	2024-11-08T22:00:00	4	Temperatura máxima	12.6
67611	7	Sololá	701	Sololá	1	Sololá	12	Diciembre	2023-12-29T00:00:00	2024-11-08T22:00:00	3	Temperatura mínima	11.8
67612	7	Sololá	701	Sololá	1	Sololá	12	Diciembre	2023-12-29T00:00:00	2024-11-08T22:00:00	5	Humedad	85
67613	7	Sololá	701	Sololá	1	Sololá	12	Diciembre	2023-12-29T00:00:00	2024-11-08T22:00:00	6	Velocidad del viento	0
67614	7	Sololá	701	Sololá	1	Sololá	12	Diciembre	2023-12-29T00:00:00	2024-11-08T22:00:00	7	Dirección del viento	0
67615	7	Sololá	701	Sololá	1	Sololá	12	Diciembre	2023-12-29T00:00:00	2024-11-08T22:00:00	1	Precipitación	0
67616	7	Sololá	701	Sololá	1	Sololá	12	Diciembre	2023-12-29T00:00:00	2024-11-08T22:00:00	8	Radiación solar	0
67617	7	Sololá	701	Sololá	1	Sololá	12	Diciembre	2023-12-29T00:00:00	2024-11-08T23:00:00	2	Temperatura media	10.9
67618	7	Sololá	701	Sololá	1	Sololá	12	Diciembre	2023-12-29T00:00:00	2024-11-08T23:00:00	4	Temperatura máxima	11.8
67619	7	Sololá	701	Sololá	1	Sololá	12	Diciembre	2023-12-29T00:00:00	2024-11-08T23:00:00	3	Temperatura mínima	10.9
67620	7	Sololá	701	Sololá	1	Sololá	12	Diciembre	2023-12-29T00:00:00	2024-11-08T23:00:00	5	Humedad	80
67621	7	Sololá	701	Sololá	1	Sololá	12	Diciembre	2023-12-29T00:00:00	2024-11-08T23:00:00	6	Velocidad del viento	0
67622	7	Sololá	701	Sololá	1	Sololá	12	Diciembre	2023-12-29T00:00:00	2024-11-08T23:00:00	7	Dirección del viento	0
67623	7	Sololá	701	Sololá	1	Sololá	12	Diciembre	2023-12-29T00:00:00	2024-11-08T23:00:00	1	Precipitación	0
67624	7	Sololá	701	Sololá	1	Sololá	12	Diciembre	2023-12-29T00:00:00	2024-11-08T23:00:00	8	Radiación solar	0
67625	7	Sololá	701	Sololá	1	Sololá	12	Diciembre	2023-12-30T00:00:00	2024-11-08T00:00:00	2	Temperatura media	10.7
67626	7	Sololá	701	Sololá	1	Sololá	12	Diciembre	2023-12-30T00:00:00	2024-11-08T00:00:00	4	Temperatura máxima	11.1
67627	7	Sololá	701	Sololá	1	Sololá	12	Diciembre	2023-12-30T00:00:00	2024-11-08T00:00:00	3	Temperatura mínima	10.7
67628	7	Sololá	701	Sololá	1	Sololá	12	Diciembre	2023-12-30T00:00:00	2024-11-08T00:00:00	5	Humedad	77
67629	7	Sololá	701	Sololá	1	Sololá	12	Diciembre	2023-12-30T00:00:00	2024-11-08T00:00:00	6	Velocidad del viento	0
67630	7	Sololá	701	Sololá	1	Sololá	12	Diciembre	2023-12-30T00:00:00	2024-11-08T00:00:00	7	Dirección del viento	0
67631	7	Sololá	701	Sololá	1	Sololá	12	Diciembre	2023-12-30T00:00:00	2024-11-08T00:00:00	1	Precipitación	0
67632	7	Sololá	701	Sololá	1	Sololá	12	Diciembre	2023-12-30T00:00:00	2024-11-08T00:00:00	8	Radiación solar	0
67633	7	Sololá	701	Sololá	1	Sololá	12	Diciembre	2023-12-30T00:00:00	2024-11-08T01:00:00	2	Temperatura media	10.6
67634	7	Sololá	701	Sololá	1	Sololá	12	Diciembre	2023-12-30T00:00:00	2024-11-08T01:00:00	4	Temperatura máxima	10.7
67635	7	Sololá	701	Sololá	1	Sololá	12	Diciembre	2023-12-30T00:00:00	2024-11-08T01:00:00	3	Temperatura mínima	10.5
67636	7	Sololá	701	Sololá	1	Sololá	12	Diciembre	2023-12-30T00:00:00	2024-11-08T01:00:00	5	Humedad	81
67637	7	Sololá	701	Sololá	1	Sololá	12	Diciembre	2023-12-30T00:00:00	2024-11-08T01:00:00	6	Velocidad del viento	0
67638	7	Sololá	701	Sololá	1	Sololá	12	Diciembre	2023-12-30T00:00:00	2024-11-08T01:00:00	7	Dirección del viento	0
67639	7	Sololá	701	Sololá	1	Sololá	12	Diciembre	2023-12-30T00:00:00	2024-11-08T01:00:00	1	Precipitación	0
67640	7	Sololá	701	Sololá	1	Sololá	12	Diciembre	2023-12-30T00:00:00	2024-11-08T01:00:00	8	Radiación solar	0
67641	7	Sololá	701	Sololá	1	Sololá	12	Diciembre	2023-12-30T00:00:00	2024-11-08T02:00:00	2	Temperatura media	10.4
67642	7	Sololá	701	Sololá	1	Sololá	12	Diciembre	2023-12-30T00:00:00	2024-11-08T02:00:00	4	Temperatura máxima	10.7
67643	7	Sololá	701	Sololá	1	Sololá	12	Diciembre	2023-12-30T00:00:00	2024-11-08T02:00:00	3	Temperatura mínima	10.2
67644	7	Sololá	701	Sololá	1	Sololá	12	Diciembre	2023-12-30T00:00:00	2024-11-08T02:00:00	5	Humedad	81
67645	7	Sololá	701	Sololá	1	Sololá	12	Diciembre	2023-12-30T00:00:00	2024-11-08T02:00:00	6	Velocidad del viento	1.6
67646	7	Sololá	701	Sololá	1	Sololá	12	Diciembre	2023-12-30T00:00:00	2024-11-08T02:00:00	7	Dirección del viento	1.61
67647	7	Sololá	701	Sololá	1	Sololá	12	Diciembre	2023-12-30T00:00:00	2024-11-08T02:00:00	1	Precipitación	0
67648	7	Sololá	701	Sololá	1	Sololá	12	Diciembre	2023-12-30T00:00:00	2024-11-08T02:00:00	8	Radiación solar	0
67649	7	Sololá	701	Sololá	1	Sololá	12	Diciembre	2023-12-30T00:00:00	2024-11-08T03:00:00	2	Temperatura media	10.2
67650	7	Sololá	701	Sololá	1	Sololá	12	Diciembre	2023-12-30T00:00:00	2024-11-08T03:00:00	4	Temperatura máxima	10.4
67651	7	Sololá	701	Sololá	1	Sololá	12	Diciembre	2023-12-30T00:00:00	2024-11-08T03:00:00	3	Temperatura mínima	10.1
67652	7	Sololá	701	Sololá	1	Sololá	12	Diciembre	2023-12-30T00:00:00	2024-11-08T03:00:00	5	Humedad	78
67653	7	Sololá	701	Sololá	1	Sololá	12	Diciembre	2023-12-30T00:00:00	2024-11-08T03:00:00	6	Velocidad del viento	0
67654	7	Sololá	701	Sololá	1	Sololá	12	Diciembre	2023-12-30T00:00:00	2024-11-08T03:00:00	7	Dirección del viento	0
67655	7	Sololá	701	Sololá	1	Sololá	12	Diciembre	2023-12-30T00:00:00	2024-11-08T03:00:00	1	Precipitación	0
67656	7	Sololá	701	Sololá	1	Sololá	12	Diciembre	2023-12-30T00:00:00	2024-11-08T03:00:00	8	Radiación solar	0
67657	7	Sololá	701	Sololá	1	Sololá	12	Diciembre	2023-12-30T00:00:00	2024-11-08T04:00:00	2	Temperatura media	9.8
67658	7	Sololá	701	Sololá	1	Sololá	12	Diciembre	2023-12-30T00:00:00	2024-11-08T04:00:00	4	Temperatura máxima	10.2
67659	7	Sololá	701	Sololá	1	Sololá	12	Diciembre	2023-12-30T00:00:00	2024-11-08T04:00:00	3	Temperatura mínima	9.7
67660	7	Sololá	701	Sololá	1	Sololá	12	Diciembre	2023-12-30T00:00:00	2024-11-08T04:00:00	5	Humedad	82
67661	7	Sololá	701	Sololá	1	Sololá	12	Diciembre	2023-12-30T00:00:00	2024-11-08T04:00:00	6	Velocidad del viento	0
67662	7	Sololá	701	Sololá	1	Sololá	12	Diciembre	2023-12-30T00:00:00	2024-11-08T04:00:00	7	Dirección del viento	0
67663	7	Sololá	701	Sololá	1	Sololá	12	Diciembre	2023-12-30T00:00:00	2024-11-08T04:00:00	1	Precipitación	0
67664	7	Sololá	701	Sololá	1	Sololá	12	Diciembre	2023-12-30T00:00:00	2024-11-08T04:00:00	8	Radiación solar	0
67665	7	Sololá	701	Sololá	1	Sololá	12	Diciembre	2023-12-30T00:00:00	2024-11-08T05:00:00	2	Temperatura media	10.3
67666	7	Sololá	701	Sololá	1	Sololá	12	Diciembre	2023-12-30T00:00:00	2024-11-08T05:00:00	4	Temperatura máxima	10.3
67667	7	Sololá	701	Sololá	1	Sololá	12	Diciembre	2023-12-30T00:00:00	2024-11-08T05:00:00	3	Temperatura mínima	9.8
67668	7	Sololá	701	Sololá	1	Sololá	12	Diciembre	2023-12-30T00:00:00	2024-11-08T05:00:00	5	Humedad	83
67669	7	Sololá	701	Sololá	1	Sololá	12	Diciembre	2023-12-30T00:00:00	2024-11-08T05:00:00	6	Velocidad del viento	0
67670	7	Sololá	701	Sololá	1	Sololá	12	Diciembre	2023-12-30T00:00:00	2024-11-08T05:00:00	7	Dirección del viento	0
67671	7	Sololá	701	Sololá	1	Sololá	12	Diciembre	2023-12-30T00:00:00	2024-11-08T05:00:00	1	Precipitación	0
67672	7	Sololá	701	Sololá	1	Sololá	12	Diciembre	2023-12-30T00:00:00	2024-11-08T05:00:00	8	Radiación solar	0
67673	7	Sololá	701	Sololá	1	Sololá	12	Diciembre	2023-12-30T00:00:00	2024-11-08T06:00:00	2	Temperatura media	9.4
67674	7	Sololá	701	Sololá	1	Sololá	12	Diciembre	2023-12-30T00:00:00	2024-11-08T06:00:00	4	Temperatura máxima	10.3
67675	7	Sololá	701	Sololá	1	Sololá	12	Diciembre	2023-12-30T00:00:00	2024-11-08T06:00:00	3	Temperatura mínima	9.4
67676	7	Sololá	701	Sololá	1	Sololá	12	Diciembre	2023-12-30T00:00:00	2024-11-08T06:00:00	5	Humedad	87
67677	7	Sololá	701	Sololá	1	Sololá	12	Diciembre	2023-12-30T00:00:00	2024-11-08T06:00:00	6	Velocidad del viento	0
67678	7	Sololá	701	Sololá	1	Sololá	12	Diciembre	2023-12-30T00:00:00	2024-11-08T06:00:00	7	Dirección del viento	0
67679	7	Sololá	701	Sololá	1	Sololá	12	Diciembre	2023-12-30T00:00:00	2024-11-08T06:00:00	1	Precipitación	0
67680	7	Sololá	701	Sololá	1	Sololá	12	Diciembre	2023-12-30T00:00:00	2024-11-08T06:00:00	8	Radiación solar	0
67681	7	Sololá	701	Sololá	1	Sololá	12	Diciembre	2023-12-30T00:00:00	2024-11-08T07:00:00	2	Temperatura media	9.6
67682	7	Sololá	701	Sololá	1	Sololá	12	Diciembre	2023-12-30T00:00:00	2024-11-08T07:00:00	4	Temperatura máxima	9.8
67683	7	Sololá	701	Sololá	1	Sololá	12	Diciembre	2023-12-30T00:00:00	2024-11-08T07:00:00	3	Temperatura mínima	9.4
67684	7	Sololá	701	Sololá	1	Sololá	12	Diciembre	2023-12-30T00:00:00	2024-11-08T07:00:00	5	Humedad	89
67685	7	Sololá	701	Sololá	1	Sololá	12	Diciembre	2023-12-30T00:00:00	2024-11-08T07:00:00	6	Velocidad del viento	0
67686	7	Sololá	701	Sololá	1	Sololá	12	Diciembre	2023-12-30T00:00:00	2024-11-08T07:00:00	7	Dirección del viento	0
67687	7	Sololá	701	Sololá	1	Sololá	12	Diciembre	2023-12-30T00:00:00	2024-11-08T07:00:00	1	Precipitación	0
67688	7	Sololá	701	Sololá	1	Sololá	12	Diciembre	2023-12-30T00:00:00	2024-11-08T07:00:00	8	Radiación solar	4
67689	7	Sololá	701	Sololá	1	Sololá	12	Diciembre	2023-12-30T00:00:00	2024-11-08T08:00:00	2	Temperatura media	13.1
67690	7	Sololá	701	Sololá	1	Sololá	12	Diciembre	2023-12-30T00:00:00	2024-11-08T08:00:00	4	Temperatura máxima	13.1
67691	7	Sololá	701	Sololá	1	Sololá	12	Diciembre	2023-12-30T00:00:00	2024-11-08T08:00:00	3	Temperatura mínima	9.6
67692	7	Sololá	701	Sololá	1	Sololá	12	Diciembre	2023-12-30T00:00:00	2024-11-08T08:00:00	5	Humedad	83
67693	7	Sololá	701	Sololá	1	Sololá	12	Diciembre	2023-12-30T00:00:00	2024-11-08T08:00:00	6	Velocidad del viento	0
67694	7	Sololá	701	Sololá	1	Sololá	12	Diciembre	2023-12-30T00:00:00	2024-11-08T08:00:00	7	Dirección del viento	0
67695	7	Sololá	701	Sololá	1	Sololá	12	Diciembre	2023-12-30T00:00:00	2024-11-08T08:00:00	1	Precipitación	0
67696	7	Sololá	701	Sololá	1	Sololá	12	Diciembre	2023-12-30T00:00:00	2024-11-08T08:00:00	8	Radiación solar	37
67697	7	Sololá	701	Sololá	1	Sololá	12	Diciembre	2023-12-30T00:00:00	2024-11-08T09:00:00	2	Temperatura media	18.7
67698	7	Sololá	701	Sololá	1	Sololá	12	Diciembre	2023-12-30T00:00:00	2024-11-08T09:00:00	4	Temperatura máxima	18.7
67699	7	Sololá	701	Sololá	1	Sololá	12	Diciembre	2023-12-30T00:00:00	2024-11-08T09:00:00	3	Temperatura mínima	13.1
67700	7	Sololá	701	Sololá	1	Sololá	12	Diciembre	2023-12-30T00:00:00	2024-11-08T09:00:00	5	Humedad	66
67701	7	Sololá	701	Sololá	1	Sololá	12	Diciembre	2023-12-30T00:00:00	2024-11-08T09:00:00	6	Velocidad del viento	0
67702	7	Sololá	701	Sololá	1	Sololá	12	Diciembre	2023-12-30T00:00:00	2024-11-08T09:00:00	7	Dirección del viento	0
67703	7	Sololá	701	Sololá	1	Sololá	12	Diciembre	2023-12-30T00:00:00	2024-11-08T09:00:00	1	Precipitación	0
67704	7	Sololá	701	Sololá	1	Sololá	12	Diciembre	2023-12-30T00:00:00	2024-11-08T09:00:00	8	Radiación solar	451
67705	7	Sololá	701	Sololá	1	Sololá	12	Diciembre	2023-12-30T00:00:00	2024-11-08T10:00:00	2	Temperatura media	20.9
67706	7	Sololá	701	Sololá	1	Sololá	12	Diciembre	2023-12-30T00:00:00	2024-11-08T10:00:00	4	Temperatura máxima	20.9
67707	7	Sololá	701	Sololá	1	Sololá	12	Diciembre	2023-12-30T00:00:00	2024-11-08T10:00:00	3	Temperatura mínima	18.8
67708	7	Sololá	701	Sololá	1	Sololá	12	Diciembre	2023-12-30T00:00:00	2024-11-08T10:00:00	5	Humedad	56
67709	7	Sololá	701	Sololá	1	Sololá	12	Diciembre	2023-12-30T00:00:00	2024-11-08T10:00:00	6	Velocidad del viento	0
67710	7	Sololá	701	Sololá	1	Sololá	12	Diciembre	2023-12-30T00:00:00	2024-11-08T10:00:00	7	Dirección del viento	0
67711	7	Sololá	701	Sololá	1	Sololá	12	Diciembre	2023-12-30T00:00:00	2024-11-08T10:00:00	1	Precipitación	0
67712	7	Sololá	701	Sololá	1	Sololá	12	Diciembre	2023-12-30T00:00:00	2024-11-08T10:00:00	8	Radiación solar	642
67713	7	Sololá	701	Sololá	1	Sololá	12	Diciembre	2023-12-30T00:00:00	2024-11-08T11:00:00	2	Temperatura media	22.3
67714	7	Sololá	701	Sololá	1	Sololá	12	Diciembre	2023-12-30T00:00:00	2024-11-08T11:00:00	4	Temperatura máxima	22.3
67715	7	Sololá	701	Sololá	1	Sololá	12	Diciembre	2023-12-30T00:00:00	2024-11-08T11:00:00	3	Temperatura mínima	20.8
67716	7	Sololá	701	Sololá	1	Sololá	12	Diciembre	2023-12-30T00:00:00	2024-11-08T11:00:00	5	Humedad	54
67717	7	Sololá	701	Sololá	1	Sololá	12	Diciembre	2023-12-30T00:00:00	2024-11-08T11:00:00	6	Velocidad del viento	0
67718	7	Sololá	701	Sololá	1	Sololá	12	Diciembre	2023-12-30T00:00:00	2024-11-08T11:00:00	7	Dirección del viento	0
67719	7	Sololá	701	Sololá	1	Sololá	12	Diciembre	2023-12-30T00:00:00	2024-11-08T11:00:00	1	Precipitación	0
67720	7	Sololá	701	Sololá	1	Sololá	12	Diciembre	2023-12-30T00:00:00	2024-11-08T11:00:00	8	Radiación solar	767
67721	7	Sololá	701	Sololá	1	Sololá	12	Diciembre	2023-12-30T00:00:00	2024-11-08T12:00:00	2	Temperatura media	23.6
67722	7	Sololá	701	Sololá	1	Sololá	12	Diciembre	2023-12-30T00:00:00	2024-11-08T12:00:00	4	Temperatura máxima	23.6
67723	7	Sololá	701	Sololá	1	Sololá	12	Diciembre	2023-12-30T00:00:00	2024-11-08T12:00:00	3	Temperatura mínima	22.1
67724	7	Sololá	701	Sololá	1	Sololá	12	Diciembre	2023-12-30T00:00:00	2024-11-08T12:00:00	5	Humedad	53
67725	7	Sololá	701	Sololá	1	Sololá	12	Diciembre	2023-12-30T00:00:00	2024-11-08T12:00:00	6	Velocidad del viento	0
67726	7	Sololá	701	Sololá	1	Sololá	12	Diciembre	2023-12-30T00:00:00	2024-11-08T12:00:00	7	Dirección del viento	0
67727	7	Sololá	701	Sololá	1	Sololá	12	Diciembre	2023-12-30T00:00:00	2024-11-08T12:00:00	1	Precipitación	0
67728	7	Sololá	701	Sololá	1	Sololá	12	Diciembre	2023-12-30T00:00:00	2024-11-08T12:00:00	8	Radiación solar	832
67729	7	Sololá	701	Sololá	1	Sololá	12	Diciembre	2023-12-30T00:00:00	2024-11-08T13:00:00	2	Temperatura media	22.4
67730	7	Sololá	701	Sololá	1	Sololá	12	Diciembre	2023-12-30T00:00:00	2024-11-08T13:00:00	4	Temperatura máxima	23.7
67731	7	Sololá	701	Sololá	1	Sololá	12	Diciembre	2023-12-30T00:00:00	2024-11-08T13:00:00	3	Temperatura mínima	22.3
67732	7	Sololá	701	Sololá	1	Sololá	12	Diciembre	2023-12-30T00:00:00	2024-11-08T13:00:00	5	Humedad	63
67733	7	Sololá	701	Sololá	1	Sololá	12	Diciembre	2023-12-30T00:00:00	2024-11-08T13:00:00	6	Velocidad del viento	0
67734	7	Sololá	701	Sololá	1	Sololá	12	Diciembre	2023-12-30T00:00:00	2024-11-08T13:00:00	7	Dirección del viento	0
67735	7	Sololá	701	Sololá	1	Sololá	12	Diciembre	2023-12-30T00:00:00	2024-11-08T13:00:00	1	Precipitación	0
67736	7	Sololá	701	Sololá	1	Sololá	12	Diciembre	2023-12-30T00:00:00	2024-11-08T13:00:00	8	Radiación solar	742
67737	7	Sololá	701	Sololá	1	Sololá	12	Diciembre	2023-12-30T00:00:00	2024-11-08T14:00:00	2	Temperatura media	22.6
67738	7	Sololá	701	Sololá	1	Sololá	12	Diciembre	2023-12-30T00:00:00	2024-11-08T14:00:00	4	Temperatura máxima	22.7
67739	7	Sololá	701	Sololá	1	Sololá	12	Diciembre	2023-12-30T00:00:00	2024-11-08T14:00:00	3	Temperatura mínima	22
67740	7	Sololá	701	Sololá	1	Sololá	12	Diciembre	2023-12-30T00:00:00	2024-11-08T14:00:00	5	Humedad	67
67741	7	Sololá	701	Sololá	1	Sololá	12	Diciembre	2023-12-30T00:00:00	2024-11-08T14:00:00	6	Velocidad del viento	0
67742	7	Sololá	701	Sololá	1	Sololá	12	Diciembre	2023-12-30T00:00:00	2024-11-08T14:00:00	7	Dirección del viento	0
67743	7	Sololá	701	Sololá	1	Sololá	12	Diciembre	2023-12-30T00:00:00	2024-11-08T14:00:00	1	Precipitación	0
67744	7	Sololá	701	Sololá	1	Sololá	12	Diciembre	2023-12-30T00:00:00	2024-11-08T14:00:00	8	Radiación solar	626
67745	7	Sololá	701	Sololá	1	Sololá	12	Diciembre	2023-12-30T00:00:00	2024-11-08T15:00:00	2	Temperatura media	22.6
67746	7	Sololá	701	Sololá	1	Sololá	12	Diciembre	2023-12-30T00:00:00	2024-11-08T15:00:00	4	Temperatura máxima	22.6
67747	7	Sololá	701	Sololá	1	Sololá	12	Diciembre	2023-12-30T00:00:00	2024-11-08T15:00:00	3	Temperatura mínima	22.2
67748	7	Sololá	701	Sololá	1	Sololá	12	Diciembre	2023-12-30T00:00:00	2024-11-08T15:00:00	5	Humedad	66
67749	7	Sololá	701	Sololá	1	Sololá	12	Diciembre	2023-12-30T00:00:00	2024-11-08T15:00:00	6	Velocidad del viento	0
67750	7	Sololá	701	Sololá	1	Sololá	12	Diciembre	2023-12-30T00:00:00	2024-11-08T15:00:00	7	Dirección del viento	0
67751	7	Sololá	701	Sololá	1	Sololá	12	Diciembre	2023-12-30T00:00:00	2024-11-08T15:00:00	1	Precipitación	0
67752	7	Sololá	701	Sololá	1	Sololá	12	Diciembre	2023-12-30T00:00:00	2024-11-08T15:00:00	8	Radiación solar	603
67753	7	Sololá	701	Sololá	1	Sololá	12	Diciembre	2023-12-30T00:00:00	2024-11-08T16:00:00	2	Temperatura media	19.4
67754	7	Sololá	701	Sololá	1	Sololá	12	Diciembre	2023-12-30T00:00:00	2024-11-08T16:00:00	4	Temperatura máxima	22.6
67755	7	Sololá	701	Sololá	1	Sololá	12	Diciembre	2023-12-30T00:00:00	2024-11-08T16:00:00	3	Temperatura mínima	19.4
67756	7	Sololá	701	Sololá	1	Sololá	12	Diciembre	2023-12-30T00:00:00	2024-11-08T16:00:00	5	Humedad	78
67757	7	Sololá	701	Sololá	1	Sololá	12	Diciembre	2023-12-30T00:00:00	2024-11-08T16:00:00	6	Velocidad del viento	0
67758	7	Sololá	701	Sololá	1	Sololá	12	Diciembre	2023-12-30T00:00:00	2024-11-08T16:00:00	7	Dirección del viento	0
67759	7	Sololá	701	Sololá	1	Sololá	12	Diciembre	2023-12-30T00:00:00	2024-11-08T16:00:00	1	Precipitación	0
67760	7	Sololá	701	Sololá	1	Sololá	12	Diciembre	2023-12-30T00:00:00	2024-11-08T16:00:00	8	Radiación solar	182
67761	7	Sololá	701	Sololá	1	Sololá	12	Diciembre	2023-12-30T00:00:00	2024-11-08T17:00:00	2	Temperatura media	18.3
67762	7	Sololá	701	Sololá	1	Sololá	12	Diciembre	2023-12-30T00:00:00	2024-11-08T17:00:00	4	Temperatura máxima	19.4
67763	7	Sololá	701	Sololá	1	Sololá	12	Diciembre	2023-12-30T00:00:00	2024-11-08T17:00:00	3	Temperatura mínima	18.3
67764	7	Sololá	701	Sololá	1	Sololá	12	Diciembre	2023-12-30T00:00:00	2024-11-08T17:00:00	5	Humedad	81
67765	7	Sololá	701	Sololá	1	Sololá	12	Diciembre	2023-12-30T00:00:00	2024-11-08T17:00:00	6	Velocidad del viento	0
67766	7	Sololá	701	Sololá	1	Sololá	12	Diciembre	2023-12-30T00:00:00	2024-11-08T17:00:00	7	Dirección del viento	0
67767	7	Sololá	701	Sololá	1	Sololá	12	Diciembre	2023-12-30T00:00:00	2024-11-08T17:00:00	1	Precipitación	0
67768	7	Sololá	701	Sololá	1	Sololá	12	Diciembre	2023-12-30T00:00:00	2024-11-08T17:00:00	8	Radiación solar	95
67769	7	Sololá	701	Sololá	1	Sololá	12	Diciembre	2023-12-30T00:00:00	2024-11-08T18:00:00	2	Temperatura media	17.1
67770	7	Sololá	701	Sololá	1	Sololá	12	Diciembre	2023-12-30T00:00:00	2024-11-08T18:00:00	4	Temperatura máxima	18.3
67771	7	Sololá	701	Sololá	1	Sololá	12	Diciembre	2023-12-30T00:00:00	2024-11-08T18:00:00	3	Temperatura mínima	17.1
67772	7	Sololá	701	Sololá	1	Sololá	12	Diciembre	2023-12-30T00:00:00	2024-11-08T18:00:00	5	Humedad	77
67773	7	Sololá	701	Sololá	1	Sololá	12	Diciembre	2023-12-30T00:00:00	2024-11-08T18:00:00	6	Velocidad del viento	0
67774	7	Sololá	701	Sololá	1	Sololá	12	Diciembre	2023-12-30T00:00:00	2024-11-08T18:00:00	7	Dirección del viento	0
67775	7	Sololá	701	Sololá	1	Sololá	12	Diciembre	2023-12-30T00:00:00	2024-11-08T18:00:00	1	Precipitación	0
67776	7	Sololá	701	Sololá	1	Sololá	12	Diciembre	2023-12-30T00:00:00	2024-11-08T18:00:00	8	Radiación solar	15
67777	7	Sololá	701	Sololá	1	Sololá	12	Diciembre	2023-12-30T00:00:00	2024-11-08T19:00:00	2	Temperatura media	15.3
67778	7	Sololá	701	Sololá	1	Sololá	12	Diciembre	2023-12-30T00:00:00	2024-11-08T19:00:00	4	Temperatura máxima	17.1
67779	7	Sololá	701	Sololá	1	Sololá	12	Diciembre	2023-12-30T00:00:00	2024-11-08T19:00:00	3	Temperatura mínima	15.3
67780	7	Sololá	701	Sololá	1	Sololá	12	Diciembre	2023-12-30T00:00:00	2024-11-08T19:00:00	5	Humedad	79
67781	7	Sololá	701	Sololá	1	Sololá	12	Diciembre	2023-12-30T00:00:00	2024-11-08T19:00:00	6	Velocidad del viento	0
67782	7	Sololá	701	Sololá	1	Sololá	12	Diciembre	2023-12-30T00:00:00	2024-11-08T19:00:00	7	Dirección del viento	0
67783	7	Sololá	701	Sololá	1	Sololá	12	Diciembre	2023-12-30T00:00:00	2024-11-08T19:00:00	1	Precipitación	0
67784	7	Sololá	701	Sololá	1	Sololá	12	Diciembre	2023-12-30T00:00:00	2024-11-08T19:00:00	8	Radiación solar	0
67785	7	Sololá	701	Sololá	1	Sololá	12	Diciembre	2023-12-30T00:00:00	2024-11-08T20:00:00	2	Temperatura media	14.2
67786	7	Sololá	701	Sololá	1	Sololá	12	Diciembre	2023-12-30T00:00:00	2024-11-08T20:00:00	4	Temperatura máxima	15.3
67787	7	Sololá	701	Sololá	1	Sololá	12	Diciembre	2023-12-30T00:00:00	2024-11-08T20:00:00	3	Temperatura mínima	14.2
67788	7	Sololá	701	Sololá	1	Sololá	12	Diciembre	2023-12-30T00:00:00	2024-11-08T20:00:00	5	Humedad	82
67789	7	Sololá	701	Sololá	1	Sololá	12	Diciembre	2023-12-30T00:00:00	2024-11-08T20:00:00	6	Velocidad del viento	0
67790	7	Sololá	701	Sololá	1	Sololá	12	Diciembre	2023-12-30T00:00:00	2024-11-08T20:00:00	7	Dirección del viento	0
67791	7	Sololá	701	Sololá	1	Sololá	12	Diciembre	2023-12-30T00:00:00	2024-11-08T20:00:00	1	Precipitación	0
67792	7	Sololá	701	Sololá	1	Sololá	12	Diciembre	2023-12-30T00:00:00	2024-11-08T20:00:00	8	Radiación solar	0
67793	7	Sololá	701	Sololá	1	Sololá	12	Diciembre	2023-12-30T00:00:00	2024-11-08T21:00:00	2	Temperatura media	13.6
67794	7	Sololá	701	Sololá	1	Sololá	12	Diciembre	2023-12-30T00:00:00	2024-11-08T21:00:00	4	Temperatura máxima	14.2
67795	7	Sololá	701	Sololá	1	Sololá	12	Diciembre	2023-12-30T00:00:00	2024-11-08T21:00:00	3	Temperatura mínima	13.6
67796	7	Sololá	701	Sololá	1	Sololá	12	Diciembre	2023-12-30T00:00:00	2024-11-08T21:00:00	5	Humedad	83
67797	7	Sololá	701	Sololá	1	Sololá	12	Diciembre	2023-12-30T00:00:00	2024-11-08T21:00:00	6	Velocidad del viento	0
67798	7	Sololá	701	Sololá	1	Sololá	12	Diciembre	2023-12-30T00:00:00	2024-11-08T21:00:00	7	Dirección del viento	0
67799	7	Sololá	701	Sololá	1	Sololá	12	Diciembre	2023-12-30T00:00:00	2024-11-08T21:00:00	1	Precipitación	0
67800	7	Sololá	701	Sololá	1	Sololá	12	Diciembre	2023-12-30T00:00:00	2024-11-08T21:00:00	8	Radiación solar	0
67801	7	Sololá	701	Sololá	1	Sololá	12	Diciembre	2023-12-30T00:00:00	2024-11-08T22:00:00	2	Temperatura media	13.2
67802	7	Sololá	701	Sololá	1	Sololá	12	Diciembre	2023-12-30T00:00:00	2024-11-08T22:00:00	4	Temperatura máxima	13.6
67803	7	Sololá	701	Sololá	1	Sololá	12	Diciembre	2023-12-30T00:00:00	2024-11-08T22:00:00	3	Temperatura mínima	13.2
67804	7	Sololá	701	Sololá	1	Sololá	12	Diciembre	2023-12-30T00:00:00	2024-11-08T22:00:00	5	Humedad	83
67805	7	Sololá	701	Sololá	1	Sololá	12	Diciembre	2023-12-30T00:00:00	2024-11-08T22:00:00	6	Velocidad del viento	0
67806	7	Sololá	701	Sololá	1	Sololá	12	Diciembre	2023-12-30T00:00:00	2024-11-08T22:00:00	7	Dirección del viento	0
67807	7	Sololá	701	Sololá	1	Sololá	12	Diciembre	2023-12-30T00:00:00	2024-11-08T22:00:00	1	Precipitación	0
67808	7	Sololá	701	Sololá	1	Sololá	12	Diciembre	2023-12-30T00:00:00	2024-11-08T22:00:00	8	Radiación solar	0
67809	7	Sololá	701	Sololá	1	Sololá	12	Diciembre	2023-12-30T00:00:00	2024-11-08T23:00:00	2	Temperatura media	12.8
67810	7	Sololá	701	Sololá	1	Sololá	12	Diciembre	2023-12-30T00:00:00	2024-11-08T23:00:00	4	Temperatura máxima	13.2
67811	7	Sololá	701	Sololá	1	Sololá	12	Diciembre	2023-12-30T00:00:00	2024-11-08T23:00:00	3	Temperatura mínima	12.8
67812	7	Sololá	701	Sololá	1	Sololá	12	Diciembre	2023-12-30T00:00:00	2024-11-08T23:00:00	5	Humedad	84
67813	7	Sololá	701	Sololá	1	Sololá	12	Diciembre	2023-12-30T00:00:00	2024-11-08T23:00:00	6	Velocidad del viento	0
67814	7	Sololá	701	Sololá	1	Sololá	12	Diciembre	2023-12-30T00:00:00	2024-11-08T23:00:00	7	Dirección del viento	0
67815	7	Sololá	701	Sololá	1	Sololá	12	Diciembre	2023-12-30T00:00:00	2024-11-08T23:00:00	1	Precipitación	0
67816	7	Sololá	701	Sololá	1	Sololá	12	Diciembre	2023-12-30T00:00:00	2024-11-08T23:00:00	8	Radiación solar	0
67817	7	Sololá	701	Sololá	1	Sololá	12	Diciembre	2023-12-31T00:00:00	2024-11-08T00:00:00	2	Temperatura media	12.3
67818	7	Sololá	701	Sololá	1	Sololá	12	Diciembre	2023-12-31T00:00:00	2024-11-08T00:00:00	4	Temperatura máxima	12.9
67819	7	Sololá	701	Sololá	1	Sololá	12	Diciembre	2023-12-31T00:00:00	2024-11-08T00:00:00	3	Temperatura mínima	12.3
67820	7	Sololá	701	Sololá	1	Sololá	12	Diciembre	2023-12-31T00:00:00	2024-11-08T00:00:00	5	Humedad	83
67821	7	Sololá	701	Sololá	1	Sololá	12	Diciembre	2023-12-31T00:00:00	2024-11-08T00:00:00	6	Velocidad del viento	0
67822	7	Sololá	701	Sololá	1	Sololá	12	Diciembre	2023-12-31T00:00:00	2024-11-08T00:00:00	7	Dirección del viento	0
67823	7	Sololá	701	Sololá	1	Sololá	12	Diciembre	2023-12-31T00:00:00	2024-11-08T00:00:00	1	Precipitación	0
67824	7	Sololá	701	Sololá	1	Sololá	12	Diciembre	2023-12-31T00:00:00	2024-11-08T00:00:00	8	Radiación solar	0
67825	7	Sololá	701	Sololá	1	Sololá	12	Diciembre	2023-12-31T00:00:00	2024-11-08T01:00:00	2	Temperatura media	11.9
67826	7	Sololá	701	Sololá	1	Sololá	12	Diciembre	2023-12-31T00:00:00	2024-11-08T01:00:00	4	Temperatura máxima	12.4
67827	7	Sololá	701	Sololá	1	Sololá	12	Diciembre	2023-12-31T00:00:00	2024-11-08T01:00:00	3	Temperatura mínima	11.8
67828	7	Sololá	701	Sololá	1	Sololá	12	Diciembre	2023-12-31T00:00:00	2024-11-08T01:00:00	5	Humedad	84
67829	7	Sololá	701	Sololá	1	Sololá	12	Diciembre	2023-12-31T00:00:00	2024-11-08T01:00:00	6	Velocidad del viento	0
67830	7	Sololá	701	Sololá	1	Sololá	12	Diciembre	2023-12-31T00:00:00	2024-11-08T01:00:00	7	Dirección del viento	0
67831	7	Sololá	701	Sololá	1	Sololá	12	Diciembre	2023-12-31T00:00:00	2024-11-08T01:00:00	1	Precipitación	0
67832	7	Sololá	701	Sololá	1	Sololá	12	Diciembre	2023-12-31T00:00:00	2024-11-08T01:00:00	8	Radiación solar	0
67833	7	Sololá	701	Sololá	1	Sololá	12	Diciembre	2023-12-31T00:00:00	2024-11-08T02:00:00	2	Temperatura media	11.7
67834	7	Sololá	701	Sololá	1	Sololá	12	Diciembre	2023-12-31T00:00:00	2024-11-08T02:00:00	4	Temperatura máxima	11.9
67835	7	Sololá	701	Sololá	1	Sololá	12	Diciembre	2023-12-31T00:00:00	2024-11-08T02:00:00	3	Temperatura mínima	11.7
67836	7	Sololá	701	Sololá	1	Sololá	12	Diciembre	2023-12-31T00:00:00	2024-11-08T02:00:00	5	Humedad	83
67837	7	Sololá	701	Sololá	1	Sololá	12	Diciembre	2023-12-31T00:00:00	2024-11-08T02:00:00	6	Velocidad del viento	0
67838	7	Sololá	701	Sololá	1	Sololá	12	Diciembre	2023-12-31T00:00:00	2024-11-08T02:00:00	7	Dirección del viento	0
67839	7	Sololá	701	Sololá	1	Sololá	12	Diciembre	2023-12-31T00:00:00	2024-11-08T02:00:00	1	Precipitación	0
67840	7	Sololá	701	Sololá	1	Sololá	12	Diciembre	2023-12-31T00:00:00	2024-11-08T02:00:00	8	Radiación solar	0
67841	7	Sololá	701	Sololá	1	Sololá	12	Diciembre	2023-12-31T00:00:00	2024-11-08T03:00:00	2	Temperatura media	10.9
67842	7	Sololá	701	Sololá	1	Sololá	12	Diciembre	2023-12-31T00:00:00	2024-11-08T03:00:00	4	Temperatura máxima	11.7
67843	7	Sololá	701	Sololá	1	Sololá	12	Diciembre	2023-12-31T00:00:00	2024-11-08T03:00:00	3	Temperatura mínima	10.8
67844	7	Sololá	701	Sololá	1	Sololá	12	Diciembre	2023-12-31T00:00:00	2024-11-08T03:00:00	5	Humedad	84
67845	7	Sololá	701	Sololá	1	Sololá	12	Diciembre	2023-12-31T00:00:00	2024-11-08T03:00:00	6	Velocidad del viento	0
67846	7	Sololá	701	Sololá	1	Sololá	12	Diciembre	2023-12-31T00:00:00	2024-11-08T03:00:00	7	Dirección del viento	0
67847	7	Sololá	701	Sololá	1	Sololá	12	Diciembre	2023-12-31T00:00:00	2024-11-08T03:00:00	1	Precipitación	0
67848	7	Sololá	701	Sololá	1	Sololá	12	Diciembre	2023-12-31T00:00:00	2024-11-08T03:00:00	8	Radiación solar	0
67849	7	Sololá	701	Sololá	1	Sololá	12	Diciembre	2023-12-31T00:00:00	2024-11-08T04:00:00	2	Temperatura media	10.6
67850	7	Sololá	701	Sololá	1	Sololá	12	Diciembre	2023-12-31T00:00:00	2024-11-08T04:00:00	4	Temperatura máxima	10.9
67851	7	Sololá	701	Sololá	1	Sololá	12	Diciembre	2023-12-31T00:00:00	2024-11-08T04:00:00	3	Temperatura mínima	10.6
67852	7	Sololá	701	Sololá	1	Sololá	12	Diciembre	2023-12-31T00:00:00	2024-11-08T04:00:00	5	Humedad	83
67853	7	Sololá	701	Sololá	1	Sololá	12	Diciembre	2023-12-31T00:00:00	2024-11-08T04:00:00	6	Velocidad del viento	0
67854	7	Sololá	701	Sololá	1	Sololá	12	Diciembre	2023-12-31T00:00:00	2024-11-08T04:00:00	7	Dirección del viento	0
67855	7	Sololá	701	Sololá	1	Sololá	12	Diciembre	2023-12-31T00:00:00	2024-11-08T04:00:00	1	Precipitación	0
67856	7	Sololá	701	Sololá	1	Sololá	12	Diciembre	2023-12-31T00:00:00	2024-11-08T04:00:00	8	Radiación solar	0
67857	7	Sololá	701	Sololá	1	Sololá	12	Diciembre	2023-12-31T00:00:00	2024-11-08T05:00:00	2	Temperatura media	10.4
67858	7	Sololá	701	Sololá	1	Sololá	12	Diciembre	2023-12-31T00:00:00	2024-11-08T05:00:00	4	Temperatura máxima	10.7
67859	7	Sololá	701	Sololá	1	Sololá	12	Diciembre	2023-12-31T00:00:00	2024-11-08T05:00:00	3	Temperatura mínima	10.4
67860	7	Sololá	701	Sololá	1	Sololá	12	Diciembre	2023-12-31T00:00:00	2024-11-08T05:00:00	5	Humedad	84
67861	7	Sololá	701	Sololá	1	Sololá	12	Diciembre	2023-12-31T00:00:00	2024-11-08T05:00:00	6	Velocidad del viento	0
67862	7	Sololá	701	Sololá	1	Sololá	12	Diciembre	2023-12-31T00:00:00	2024-11-08T05:00:00	7	Dirección del viento	0
67863	7	Sololá	701	Sololá	1	Sololá	12	Diciembre	2023-12-31T00:00:00	2024-11-08T05:00:00	1	Precipitación	0
67864	7	Sololá	701	Sololá	1	Sololá	12	Diciembre	2023-12-31T00:00:00	2024-11-08T05:00:00	8	Radiación solar	0
67865	7	Sololá	701	Sololá	1	Sololá	12	Diciembre	2023-12-31T00:00:00	2024-11-08T06:00:00	2	Temperatura media	10.3
67866	7	Sololá	701	Sololá	1	Sololá	12	Diciembre	2023-12-31T00:00:00	2024-11-08T06:00:00	4	Temperatura máxima	10.5
67867	7	Sololá	701	Sololá	1	Sololá	12	Diciembre	2023-12-31T00:00:00	2024-11-08T06:00:00	3	Temperatura mínima	10.2
67868	7	Sololá	701	Sololá	1	Sololá	12	Diciembre	2023-12-31T00:00:00	2024-11-08T06:00:00	5	Humedad	85
67869	7	Sololá	701	Sololá	1	Sololá	12	Diciembre	2023-12-31T00:00:00	2024-11-08T06:00:00	6	Velocidad del viento	0
67870	7	Sololá	701	Sololá	1	Sololá	12	Diciembre	2023-12-31T00:00:00	2024-11-08T06:00:00	7	Dirección del viento	0
67871	7	Sololá	701	Sololá	1	Sololá	12	Diciembre	2023-12-31T00:00:00	2024-11-08T06:00:00	1	Precipitación	0
67872	7	Sololá	701	Sololá	1	Sololá	12	Diciembre	2023-12-31T00:00:00	2024-11-08T06:00:00	8	Radiación solar	0
67873	7	Sololá	701	Sololá	1	Sololá	12	Diciembre	2023-12-31T00:00:00	2024-11-08T07:00:00	2	Temperatura media	10.2
67874	7	Sololá	701	Sololá	1	Sololá	12	Diciembre	2023-12-31T00:00:00	2024-11-08T07:00:00	4	Temperatura máxima	10.3
67875	7	Sololá	701	Sololá	1	Sololá	12	Diciembre	2023-12-31T00:00:00	2024-11-08T07:00:00	3	Temperatura mínima	10.1
67876	7	Sololá	701	Sololá	1	Sololá	12	Diciembre	2023-12-31T00:00:00	2024-11-08T07:00:00	5	Humedad	86
67877	7	Sololá	701	Sololá	1	Sololá	12	Diciembre	2023-12-31T00:00:00	2024-11-08T07:00:00	6	Velocidad del viento	0
67878	7	Sololá	701	Sololá	1	Sololá	12	Diciembre	2023-12-31T00:00:00	2024-11-08T07:00:00	7	Dirección del viento	0
67879	7	Sololá	701	Sololá	1	Sololá	12	Diciembre	2023-12-31T00:00:00	2024-11-08T07:00:00	1	Precipitación	0
67880	7	Sololá	701	Sololá	1	Sololá	12	Diciembre	2023-12-31T00:00:00	2024-11-08T07:00:00	8	Radiación solar	3
67881	7	Sololá	701	Sololá	1	Sololá	12	Diciembre	2023-12-31T00:00:00	2024-11-08T08:00:00	2	Temperatura media	12.2
67882	7	Sololá	701	Sololá	1	Sololá	12	Diciembre	2023-12-31T00:00:00	2024-11-08T08:00:00	4	Temperatura máxima	12.2
67883	7	Sololá	701	Sololá	1	Sololá	12	Diciembre	2023-12-31T00:00:00	2024-11-08T08:00:00	3	Temperatura mínima	10.2
67884	7	Sololá	701	Sololá	1	Sololá	12	Diciembre	2023-12-31T00:00:00	2024-11-08T08:00:00	5	Humedad	84
67885	7	Sololá	701	Sololá	1	Sololá	12	Diciembre	2023-12-31T00:00:00	2024-11-08T08:00:00	6	Velocidad del viento	0
67886	7	Sololá	701	Sololá	1	Sololá	12	Diciembre	2023-12-31T00:00:00	2024-11-08T08:00:00	7	Dirección del viento	0
67887	7	Sololá	701	Sololá	1	Sololá	12	Diciembre	2023-12-31T00:00:00	2024-11-08T08:00:00	1	Precipitación	0
67888	7	Sololá	701	Sololá	1	Sololá	12	Diciembre	2023-12-31T00:00:00	2024-11-08T08:00:00	8	Radiación solar	34
67889	7	Sololá	701	Sololá	1	Sololá	12	Diciembre	2023-12-31T00:00:00	2024-11-08T09:00:00	2	Temperatura media	19.1
67890	7	Sololá	701	Sololá	1	Sololá	12	Diciembre	2023-12-31T00:00:00	2024-11-08T09:00:00	4	Temperatura máxima	19.1
67891	7	Sololá	701	Sololá	1	Sololá	12	Diciembre	2023-12-31T00:00:00	2024-11-08T09:00:00	3	Temperatura mínima	12.2
67892	7	Sololá	701	Sololá	1	Sololá	12	Diciembre	2023-12-31T00:00:00	2024-11-08T09:00:00	5	Humedad	64
67893	7	Sololá	701	Sololá	1	Sololá	12	Diciembre	2023-12-31T00:00:00	2024-11-08T09:00:00	6	Velocidad del viento	0
67894	7	Sololá	701	Sololá	1	Sololá	12	Diciembre	2023-12-31T00:00:00	2024-11-08T09:00:00	7	Dirección del viento	0
67895	7	Sololá	701	Sololá	1	Sololá	12	Diciembre	2023-12-31T00:00:00	2024-11-08T09:00:00	1	Precipitación	0
67896	7	Sololá	701	Sololá	1	Sololá	12	Diciembre	2023-12-31T00:00:00	2024-11-08T09:00:00	8	Radiación solar	469
67897	7	Sololá	701	Sololá	1	Sololá	12	Diciembre	2023-12-31T00:00:00	2024-11-08T10:00:00	2	Temperatura media	20.1
67898	7	Sololá	701	Sololá	1	Sololá	12	Diciembre	2023-12-31T00:00:00	2024-11-08T10:00:00	4	Temperatura máxima	20.1
67899	7	Sololá	701	Sololá	1	Sololá	12	Diciembre	2023-12-31T00:00:00	2024-11-08T10:00:00	3	Temperatura mínima	19.1
67900	7	Sololá	701	Sololá	1	Sololá	12	Diciembre	2023-12-31T00:00:00	2024-11-08T10:00:00	5	Humedad	62
67901	7	Sololá	701	Sololá	1	Sololá	12	Diciembre	2023-12-31T00:00:00	2024-11-08T10:00:00	6	Velocidad del viento	0
67902	7	Sololá	701	Sololá	1	Sololá	12	Diciembre	2023-12-31T00:00:00	2024-11-08T10:00:00	7	Dirección del viento	0
67903	7	Sololá	701	Sololá	1	Sololá	12	Diciembre	2023-12-31T00:00:00	2024-11-08T10:00:00	1	Precipitación	0
67904	7	Sololá	701	Sololá	1	Sololá	12	Diciembre	2023-12-31T00:00:00	2024-11-08T10:00:00	8	Radiación solar	651
67905	7	Sololá	701	Sololá	1	Sololá	12	Diciembre	2023-12-31T00:00:00	2024-11-08T11:00:00	2	Temperatura media	21.3
67906	7	Sololá	701	Sololá	1	Sololá	12	Diciembre	2023-12-31T00:00:00	2024-11-08T11:00:00	4	Temperatura máxima	21.6
67907	7	Sololá	701	Sololá	1	Sololá	12	Diciembre	2023-12-31T00:00:00	2024-11-08T11:00:00	3	Temperatura mínima	19.8
67908	7	Sololá	701	Sololá	1	Sololá	12	Diciembre	2023-12-31T00:00:00	2024-11-08T11:00:00	5	Humedad	62
67909	7	Sololá	701	Sololá	1	Sololá	12	Diciembre	2023-12-31T00:00:00	2024-11-08T11:00:00	6	Velocidad del viento	0
67910	7	Sololá	701	Sololá	1	Sololá	12	Diciembre	2023-12-31T00:00:00	2024-11-08T11:00:00	7	Dirección del viento	0
67911	7	Sololá	701	Sololá	1	Sololá	12	Diciembre	2023-12-31T00:00:00	2024-11-08T11:00:00	1	Precipitación	0
67912	7	Sololá	701	Sololá	1	Sololá	12	Diciembre	2023-12-31T00:00:00	2024-11-08T11:00:00	8	Radiación solar	781
67913	7	Sololá	701	Sololá	1	Sololá	12	Diciembre	2023-12-31T00:00:00	2024-11-08T12:00:00	2	Temperatura media	22.2
67914	7	Sololá	701	Sololá	1	Sololá	12	Diciembre	2023-12-31T00:00:00	2024-11-08T12:00:00	4	Temperatura máxima	22.3
67915	7	Sololá	701	Sololá	1	Sololá	12	Diciembre	2023-12-31T00:00:00	2024-11-08T12:00:00	3	Temperatura mínima	20.7
67916	7	Sololá	701	Sololá	1	Sololá	12	Diciembre	2023-12-31T00:00:00	2024-11-08T12:00:00	5	Humedad	54
67917	7	Sololá	701	Sololá	1	Sololá	12	Diciembre	2023-12-31T00:00:00	2024-11-08T12:00:00	6	Velocidad del viento	0
67918	7	Sololá	701	Sololá	1	Sololá	12	Diciembre	2023-12-31T00:00:00	2024-11-08T12:00:00	7	Dirección del viento	0
67919	7	Sololá	701	Sololá	1	Sololá	12	Diciembre	2023-12-31T00:00:00	2024-11-08T12:00:00	1	Precipitación	0
67920	7	Sololá	701	Sololá	1	Sololá	12	Diciembre	2023-12-31T00:00:00	2024-11-08T12:00:00	8	Radiación solar	852
67921	7	Sololá	701	Sololá	1	Sololá	12	Diciembre	2023-12-31T00:00:00	2024-11-08T13:00:00	2	Temperatura media	22.5
67922	7	Sololá	701	Sololá	1	Sololá	12	Diciembre	2023-12-31T00:00:00	2024-11-08T13:00:00	4	Temperatura máxima	22.6
67923	7	Sololá	701	Sololá	1	Sololá	12	Diciembre	2023-12-31T00:00:00	2024-11-08T13:00:00	3	Temperatura mínima	22
67924	7	Sololá	701	Sololá	1	Sololá	12	Diciembre	2023-12-31T00:00:00	2024-11-08T13:00:00	5	Humedad	59
67925	7	Sololá	701	Sololá	1	Sololá	12	Diciembre	2023-12-31T00:00:00	2024-11-08T13:00:00	6	Velocidad del viento	0
67926	7	Sololá	701	Sololá	1	Sololá	12	Diciembre	2023-12-31T00:00:00	2024-11-08T13:00:00	7	Dirección del viento	0
67927	7	Sololá	701	Sololá	1	Sololá	12	Diciembre	2023-12-31T00:00:00	2024-11-08T13:00:00	1	Precipitación	0
67928	7	Sololá	701	Sololá	1	Sololá	12	Diciembre	2023-12-31T00:00:00	2024-11-08T13:00:00	8	Radiación solar	776
67929	7	Sololá	701	Sololá	1	Sololá	12	Diciembre	2023-12-31T00:00:00	2024-11-08T14:00:00	2	Temperatura media	21.8
67930	7	Sololá	701	Sololá	1	Sololá	12	Diciembre	2023-12-31T00:00:00	2024-11-08T14:00:00	4	Temperatura máxima	22.5
67931	7	Sololá	701	Sololá	1	Sololá	12	Diciembre	2023-12-31T00:00:00	2024-11-08T14:00:00	3	Temperatura mínima	21.1
67932	7	Sololá	701	Sololá	1	Sololá	12	Diciembre	2023-12-31T00:00:00	2024-11-08T14:00:00	5	Humedad	68
67933	7	Sololá	701	Sololá	1	Sololá	12	Diciembre	2023-12-31T00:00:00	2024-11-08T14:00:00	6	Velocidad del viento	0
67934	7	Sololá	701	Sololá	1	Sololá	12	Diciembre	2023-12-31T00:00:00	2024-11-08T14:00:00	7	Dirección del viento	0
67935	7	Sololá	701	Sololá	1	Sololá	12	Diciembre	2023-12-31T00:00:00	2024-11-08T14:00:00	1	Precipitación	0
67936	7	Sololá	701	Sololá	1	Sololá	12	Diciembre	2023-12-31T00:00:00	2024-11-08T14:00:00	8	Radiación solar	432
67937	7	Sololá	701	Sololá	1	Sololá	12	Diciembre	2023-12-31T00:00:00	2024-11-08T15:00:00	2	Temperatura media	21.4
67938	7	Sololá	701	Sololá	1	Sololá	12	Diciembre	2023-12-31T00:00:00	2024-11-08T15:00:00	4	Temperatura máxima	22.7
67939	7	Sololá	701	Sololá	1	Sololá	12	Diciembre	2023-12-31T00:00:00	2024-11-08T15:00:00	3	Temperatura mínima	20.9
67940	7	Sololá	701	Sololá	1	Sololá	12	Diciembre	2023-12-31T00:00:00	2024-11-08T15:00:00	5	Humedad	70
67941	7	Sololá	701	Sololá	1	Sololá	12	Diciembre	2023-12-31T00:00:00	2024-11-08T15:00:00	6	Velocidad del viento	0
67942	7	Sololá	701	Sololá	1	Sololá	12	Diciembre	2023-12-31T00:00:00	2024-11-08T15:00:00	7	Dirección del viento	0
67943	7	Sololá	701	Sololá	1	Sololá	12	Diciembre	2023-12-31T00:00:00	2024-11-08T15:00:00	1	Precipitación	0
67944	7	Sololá	701	Sololá	1	Sololá	12	Diciembre	2023-12-31T00:00:00	2024-11-08T15:00:00	8	Radiación solar	382
67945	7	Sololá	701	Sololá	1	Sololá	12	Diciembre	2023-12-31T00:00:00	2024-11-08T16:00:00	2	Temperatura media	18.9
67946	7	Sololá	701	Sololá	1	Sololá	12	Diciembre	2023-12-31T00:00:00	2024-11-08T16:00:00	4	Temperatura máxima	21.8
67947	7	Sololá	701	Sololá	1	Sololá	12	Diciembre	2023-12-31T00:00:00	2024-11-08T16:00:00	3	Temperatura mínima	18.9
67948	7	Sololá	701	Sololá	1	Sololá	12	Diciembre	2023-12-31T00:00:00	2024-11-08T16:00:00	5	Humedad	78
67949	7	Sololá	701	Sololá	1	Sololá	12	Diciembre	2023-12-31T00:00:00	2024-11-08T16:00:00	6	Velocidad del viento	0
67950	7	Sololá	701	Sololá	1	Sololá	12	Diciembre	2023-12-31T00:00:00	2024-11-08T16:00:00	7	Dirección del viento	0
67951	7	Sololá	701	Sololá	1	Sololá	12	Diciembre	2023-12-31T00:00:00	2024-11-08T16:00:00	1	Precipitación	0
67952	7	Sololá	701	Sololá	1	Sololá	12	Diciembre	2023-12-31T00:00:00	2024-11-08T16:00:00	8	Radiación solar	134
67953	7	Sololá	701	Sololá	1	Sololá	12	Diciembre	2023-12-31T00:00:00	2024-11-08T17:00:00	2	Temperatura media	17.3
67954	7	Sololá	701	Sololá	1	Sololá	12	Diciembre	2023-12-31T00:00:00	2024-11-08T17:00:00	4	Temperatura máxima	18.8
67955	7	Sololá	701	Sololá	1	Sololá	12	Diciembre	2023-12-31T00:00:00	2024-11-08T17:00:00	3	Temperatura mínima	17.3
67956	7	Sololá	701	Sololá	1	Sololá	12	Diciembre	2023-12-31T00:00:00	2024-11-08T17:00:00	5	Humedad	85
67957	7	Sololá	701	Sololá	1	Sololá	12	Diciembre	2023-12-31T00:00:00	2024-11-08T17:00:00	6	Velocidad del viento	0
67958	7	Sololá	701	Sololá	1	Sololá	12	Diciembre	2023-12-31T00:00:00	2024-11-08T17:00:00	7	Dirección del viento	0
67959	7	Sololá	701	Sololá	1	Sololá	12	Diciembre	2023-12-31T00:00:00	2024-11-08T17:00:00	1	Precipitación	0
67960	7	Sololá	701	Sololá	1	Sololá	12	Diciembre	2023-12-31T00:00:00	2024-11-08T17:00:00	8	Radiación solar	38
67961	7	Sololá	701	Sololá	1	Sololá	12	Diciembre	2023-12-31T00:00:00	2024-11-08T18:00:00	2	Temperatura media	15.7
67962	7	Sololá	701	Sololá	1	Sololá	12	Diciembre	2023-12-31T00:00:00	2024-11-08T18:00:00	4	Temperatura máxima	17.3
67963	7	Sololá	701	Sololá	1	Sololá	12	Diciembre	2023-12-31T00:00:00	2024-11-08T18:00:00	3	Temperatura mínima	15.7
67964	7	Sololá	701	Sololá	1	Sololá	12	Diciembre	2023-12-31T00:00:00	2024-11-08T18:00:00	5	Humedad	76
67965	7	Sololá	701	Sololá	1	Sololá	12	Diciembre	2023-12-31T00:00:00	2024-11-08T18:00:00	6	Velocidad del viento	0
67966	7	Sololá	701	Sololá	1	Sololá	12	Diciembre	2023-12-31T00:00:00	2024-11-08T18:00:00	7	Dirección del viento	0
67967	7	Sololá	701	Sololá	1	Sololá	12	Diciembre	2023-12-31T00:00:00	2024-11-08T18:00:00	1	Precipitación	0
67968	7	Sololá	701	Sololá	1	Sololá	12	Diciembre	2023-12-31T00:00:00	2024-11-08T18:00:00	8	Radiación solar	8
67969	7	Sololá	701	Sololá	1	Sololá	12	Diciembre	2023-12-31T00:00:00	2024-11-08T19:00:00	2	Temperatura media	13.8
67970	7	Sololá	701	Sololá	1	Sololá	12	Diciembre	2023-12-31T00:00:00	2024-11-08T19:00:00	4	Temperatura máxima	15.7
67971	7	Sololá	701	Sololá	1	Sololá	12	Diciembre	2023-12-31T00:00:00	2024-11-08T19:00:00	3	Temperatura mínima	13.8
67972	7	Sololá	701	Sololá	1	Sololá	12	Diciembre	2023-12-31T00:00:00	2024-11-08T19:00:00	5	Humedad	79
67973	7	Sololá	701	Sololá	1	Sololá	12	Diciembre	2023-12-31T00:00:00	2024-11-08T19:00:00	6	Velocidad del viento	0
67974	7	Sololá	701	Sololá	1	Sololá	12	Diciembre	2023-12-31T00:00:00	2024-11-08T19:00:00	7	Dirección del viento	0
67975	7	Sololá	701	Sololá	1	Sololá	12	Diciembre	2023-12-31T00:00:00	2024-11-08T19:00:00	1	Precipitación	0
67976	7	Sololá	701	Sololá	1	Sololá	12	Diciembre	2023-12-31T00:00:00	2024-11-08T19:00:00	8	Radiación solar	0
67977	7	Sololá	701	Sololá	1	Sololá	12	Diciembre	2023-12-31T00:00:00	2024-11-08T20:00:00	2	Temperatura media	13.2
67978	7	Sololá	701	Sololá	1	Sololá	12	Diciembre	2023-12-31T00:00:00	2024-11-08T20:00:00	4	Temperatura máxima	13.8
67979	7	Sololá	701	Sololá	1	Sololá	12	Diciembre	2023-12-31T00:00:00	2024-11-08T20:00:00	3	Temperatura mínima	13.2
67980	7	Sololá	701	Sololá	1	Sololá	12	Diciembre	2023-12-31T00:00:00	2024-11-08T20:00:00	5	Humedad	82
67981	7	Sololá	701	Sololá	1	Sololá	12	Diciembre	2023-12-31T00:00:00	2024-11-08T20:00:00	6	Velocidad del viento	0
67982	7	Sololá	701	Sololá	1	Sololá	12	Diciembre	2023-12-31T00:00:00	2024-11-08T20:00:00	7	Dirección del viento	0
67983	7	Sololá	701	Sololá	1	Sololá	12	Diciembre	2023-12-31T00:00:00	2024-11-08T20:00:00	1	Precipitación	0
67984	7	Sololá	701	Sololá	1	Sololá	12	Diciembre	2023-12-31T00:00:00	2024-11-08T20:00:00	8	Radiación solar	0
67985	7	Sololá	701	Sololá	1	Sololá	12	Diciembre	2023-12-31T00:00:00	2024-11-08T21:00:00	2	Temperatura media	12.7
67986	7	Sololá	701	Sololá	1	Sololá	12	Diciembre	2023-12-31T00:00:00	2024-11-08T21:00:00	4	Temperatura máxima	13.2
67987	7	Sololá	701	Sololá	1	Sololá	12	Diciembre	2023-12-31T00:00:00	2024-11-08T21:00:00	3	Temperatura mínima	12.7
67988	7	Sololá	701	Sololá	1	Sololá	12	Diciembre	2023-12-31T00:00:00	2024-11-08T21:00:00	5	Humedad	83
67989	7	Sololá	701	Sololá	1	Sololá	12	Diciembre	2023-12-31T00:00:00	2024-11-08T21:00:00	6	Velocidad del viento	0
67990	7	Sololá	701	Sololá	1	Sololá	12	Diciembre	2023-12-31T00:00:00	2024-11-08T21:00:00	7	Dirección del viento	0
67991	7	Sololá	701	Sololá	1	Sololá	12	Diciembre	2023-12-31T00:00:00	2024-11-08T21:00:00	1	Precipitación	0
67992	7	Sololá	701	Sololá	1	Sololá	12	Diciembre	2023-12-31T00:00:00	2024-11-08T21:00:00	8	Radiación solar	0
67993	7	Sololá	701	Sololá	1	Sololá	12	Diciembre	2023-12-31T00:00:00	2024-11-08T22:00:00	2	Temperatura media	12.4
67994	7	Sololá	701	Sololá	1	Sololá	12	Diciembre	2023-12-31T00:00:00	2024-11-08T22:00:00	4	Temperatura máxima	12.7
67995	7	Sololá	701	Sololá	1	Sololá	12	Diciembre	2023-12-31T00:00:00	2024-11-08T22:00:00	3	Temperatura mínima	12.4
67996	7	Sololá	701	Sololá	1	Sololá	12	Diciembre	2023-12-31T00:00:00	2024-11-08T22:00:00	5	Humedad	85
67997	7	Sololá	701	Sololá	1	Sololá	12	Diciembre	2023-12-31T00:00:00	2024-11-08T22:00:00	6	Velocidad del viento	0
67998	7	Sololá	701	Sololá	1	Sololá	12	Diciembre	2023-12-31T00:00:00	2024-11-08T22:00:00	7	Dirección del viento	0
67999	7	Sololá	701	Sololá	1	Sololá	12	Diciembre	2023-12-31T00:00:00	2024-11-08T22:00:00	1	Precipitación	0
68000	7	Sololá	701	Sololá	1	Sololá	12	Diciembre	2023-12-31T00:00:00	2024-11-08T22:00:00	8	Radiación solar	0
68001	7	Sololá	701	Sololá	1	Sololá	12	Diciembre	2023-12-31T00:00:00	2024-11-08T23:00:00	2	Temperatura media	12.1
68002	7	Sololá	701	Sololá	1	Sololá	12	Diciembre	2023-12-31T00:00:00	2024-11-08T23:00:00	4	Temperatura máxima	12.4
68003	7	Sololá	701	Sololá	1	Sololá	12	Diciembre	2023-12-31T00:00:00	2024-11-08T23:00:00	3	Temperatura mínima	12.1
68004	7	Sololá	701	Sololá	1	Sololá	12	Diciembre	2023-12-31T00:00:00	2024-11-08T23:00:00	5	Humedad	84
68005	7	Sololá	701	Sololá	1	Sololá	12	Diciembre	2023-12-31T00:00:00	2024-11-08T23:00:00	6	Velocidad del viento	0
68006	7	Sololá	701	Sololá	1	Sololá	12	Diciembre	2023-12-31T00:00:00	2024-11-08T23:00:00	7	Dirección del viento	0
68007	7	Sololá	701	Sololá	1	Sololá	12	Diciembre	2023-12-31T00:00:00	2024-11-08T23:00:00	1	Precipitación	0
68008	7	Sololá	701	Sololá	1	Sololá	12	Diciembre	2023-12-31T00:00:00	2024-11-08T23:00:00	8	Radiación solar	0
68009	7	Sololá	704	Santa Lucía Utatlán 	7	Santa Rita 	1	Enero	2023-01-01T00:00:00	2024-11-08T00:00:00	2	Temperatura media	16.1
68010	7	Sololá	704	Santa Lucía Utatlán 	7	Santa Rita 	1	Enero	2023-01-01T00:00:00	2024-11-08T00:00:00	4	Temperatura máxima	16.4
68011	7	Sololá	704	Santa Lucía Utatlán 	7	Santa Rita 	1	Enero	2023-01-01T00:00:00	2024-11-08T00:00:00	3	Temperatura mínima	15.9
68012	7	Sololá	704	Santa Lucía Utatlán 	7	Santa Rita 	1	Enero	2023-01-01T00:00:00	2024-11-08T00:00:00	5	Humedad	78
68013	7	Sololá	704	Santa Lucía Utatlán 	7	Santa Rita 	1	Enero	2023-01-01T00:00:00	2024-11-08T00:00:00	6	Velocidad del viento	3.2
68014	7	Sololá	704	Santa Lucía Utatlán 	7	Santa Rita 	1	Enero	2023-01-01T00:00:00	2024-11-08T00:00:00	7	Dirección del viento	3.22
68015	7	Sololá	704	Santa Lucía Utatlán 	7	Santa Rita 	1	Enero	2023-01-01T00:00:00	2024-11-08T00:00:00	1	Precipitación	0
68016	7	Sololá	704	Santa Lucía Utatlán 	7	Santa Rita 	1	Enero	2023-01-01T00:00:00	2024-11-08T00:00:00	8	Radiación solar	0
68017	7	Sololá	704	Santa Lucía Utatlán 	7	Santa Rita 	1	Enero	2023-01-01T00:00:00	2024-11-08T01:00:00	2	Temperatura media	15.4
68018	7	Sololá	704	Santa Lucía Utatlán 	7	Santa Rita 	1	Enero	2023-01-01T00:00:00	2024-11-08T01:00:00	4	Temperatura máxima	16.1
68019	7	Sololá	704	Santa Lucía Utatlán 	7	Santa Rita 	1	Enero	2023-01-01T00:00:00	2024-11-08T01:00:00	3	Temperatura mínima	15.4
68020	7	Sololá	704	Santa Lucía Utatlán 	7	Santa Rita 	1	Enero	2023-01-01T00:00:00	2024-11-08T01:00:00	5	Humedad	80
68021	7	Sololá	704	Santa Lucía Utatlán 	7	Santa Rita 	1	Enero	2023-01-01T00:00:00	2024-11-08T01:00:00	6	Velocidad del viento	4.8
68022	7	Sololá	704	Santa Lucía Utatlán 	7	Santa Rita 	1	Enero	2023-01-01T00:00:00	2024-11-08T01:00:00	7	Dirección del viento	4.83
68023	7	Sololá	704	Santa Lucía Utatlán 	7	Santa Rita 	1	Enero	2023-01-01T00:00:00	2024-11-08T01:00:00	1	Precipitación	0
68024	7	Sololá	704	Santa Lucía Utatlán 	7	Santa Rita 	1	Enero	2023-01-01T00:00:00	2024-11-08T01:00:00	8	Radiación solar	0
68025	7	Sololá	704	Santa Lucía Utatlán 	7	Santa Rita 	1	Enero	2023-01-01T00:00:00	2024-11-08T02:00:00	2	Temperatura media	15.8
68026	7	Sololá	704	Santa Lucía Utatlán 	7	Santa Rita 	1	Enero	2023-01-01T00:00:00	2024-11-08T02:00:00	4	Temperatura máxima	16.3
68027	7	Sololá	704	Santa Lucía Utatlán 	7	Santa Rita 	1	Enero	2023-01-01T00:00:00	2024-11-08T02:00:00	3	Temperatura mínima	15.4
68028	7	Sololá	704	Santa Lucía Utatlán 	7	Santa Rita 	1	Enero	2023-01-01T00:00:00	2024-11-08T02:00:00	5	Humedad	81
68029	7	Sololá	704	Santa Lucía Utatlán 	7	Santa Rita 	1	Enero	2023-01-01T00:00:00	2024-11-08T02:00:00	6	Velocidad del viento	4.8
68030	7	Sololá	704	Santa Lucía Utatlán 	7	Santa Rita 	1	Enero	2023-01-01T00:00:00	2024-11-08T02:00:00	7	Dirección del viento	4.83
68031	7	Sololá	704	Santa Lucía Utatlán 	7	Santa Rita 	1	Enero	2023-01-01T00:00:00	2024-11-08T02:00:00	1	Precipitación	0
68032	7	Sololá	704	Santa Lucía Utatlán 	7	Santa Rita 	1	Enero	2023-01-01T00:00:00	2024-11-08T02:00:00	8	Radiación solar	0
68033	7	Sololá	704	Santa Lucía Utatlán 	7	Santa Rita 	1	Enero	2023-01-01T00:00:00	2024-11-08T03:00:00	2	Temperatura media	15.3
68034	7	Sololá	704	Santa Lucía Utatlán 	7	Santa Rita 	1	Enero	2023-01-01T00:00:00	2024-11-08T03:00:00	4	Temperatura máxima	15.8
68035	7	Sololá	704	Santa Lucía Utatlán 	7	Santa Rita 	1	Enero	2023-01-01T00:00:00	2024-11-08T03:00:00	3	Temperatura mínima	14.6
68036	7	Sololá	704	Santa Lucía Utatlán 	7	Santa Rita 	1	Enero	2023-01-01T00:00:00	2024-11-08T03:00:00	5	Humedad	83
68037	7	Sololá	704	Santa Lucía Utatlán 	7	Santa Rita 	1	Enero	2023-01-01T00:00:00	2024-11-08T03:00:00	6	Velocidad del viento	3.2
68038	7	Sololá	704	Santa Lucía Utatlán 	7	Santa Rita 	1	Enero	2023-01-01T00:00:00	2024-11-08T03:00:00	7	Dirección del viento	3.22
68039	7	Sololá	704	Santa Lucía Utatlán 	7	Santa Rita 	1	Enero	2023-01-01T00:00:00	2024-11-08T03:00:00	1	Precipitación	0
68040	7	Sololá	704	Santa Lucía Utatlán 	7	Santa Rita 	1	Enero	2023-01-01T00:00:00	2024-11-08T03:00:00	8	Radiación solar	0
68041	7	Sololá	704	Santa Lucía Utatlán 	7	Santa Rita 	1	Enero	2023-01-01T00:00:00	2024-11-08T04:00:00	2	Temperatura media	14.6
68042	7	Sololá	704	Santa Lucía Utatlán 	7	Santa Rita 	1	Enero	2023-01-01T00:00:00	2024-11-08T04:00:00	4	Temperatura máxima	15.3
68043	7	Sololá	704	Santa Lucía Utatlán 	7	Santa Rita 	1	Enero	2023-01-01T00:00:00	2024-11-08T04:00:00	3	Temperatura mínima	14.5
68044	7	Sololá	704	Santa Lucía Utatlán 	7	Santa Rita 	1	Enero	2023-01-01T00:00:00	2024-11-08T04:00:00	5	Humedad	86
68045	7	Sololá	704	Santa Lucía Utatlán 	7	Santa Rita 	1	Enero	2023-01-01T00:00:00	2024-11-08T04:00:00	6	Velocidad del viento	3.2
68046	7	Sololá	704	Santa Lucía Utatlán 	7	Santa Rita 	1	Enero	2023-01-01T00:00:00	2024-11-08T04:00:00	7	Dirección del viento	3.22
68047	7	Sololá	704	Santa Lucía Utatlán 	7	Santa Rita 	1	Enero	2023-01-01T00:00:00	2024-11-08T04:00:00	1	Precipitación	0
68048	7	Sololá	704	Santa Lucía Utatlán 	7	Santa Rita 	1	Enero	2023-01-01T00:00:00	2024-11-08T04:00:00	8	Radiación solar	0
68049	7	Sololá	704	Santa Lucía Utatlán 	7	Santa Rita 	1	Enero	2023-01-01T00:00:00	2024-11-08T05:00:00	2	Temperatura media	14.8
68050	7	Sololá	704	Santa Lucía Utatlán 	7	Santa Rita 	1	Enero	2023-01-01T00:00:00	2024-11-08T05:00:00	4	Temperatura máxima	15
68051	7	Sololá	704	Santa Lucía Utatlán 	7	Santa Rita 	1	Enero	2023-01-01T00:00:00	2024-11-08T05:00:00	3	Temperatura mínima	14.5
68052	7	Sololá	704	Santa Lucía Utatlán 	7	Santa Rita 	1	Enero	2023-01-01T00:00:00	2024-11-08T05:00:00	5	Humedad	86
68053	7	Sololá	704	Santa Lucía Utatlán 	7	Santa Rita 	1	Enero	2023-01-01T00:00:00	2024-11-08T05:00:00	6	Velocidad del viento	3.2
68054	7	Sololá	704	Santa Lucía Utatlán 	7	Santa Rita 	1	Enero	2023-01-01T00:00:00	2024-11-08T05:00:00	7	Dirección del viento	3.22
68055	7	Sololá	704	Santa Lucía Utatlán 	7	Santa Rita 	1	Enero	2023-01-01T00:00:00	2024-11-08T05:00:00	1	Precipitación	0
68056	7	Sololá	704	Santa Lucía Utatlán 	7	Santa Rita 	1	Enero	2023-01-01T00:00:00	2024-11-08T05:00:00	8	Radiación solar	0
68057	7	Sololá	704	Santa Lucía Utatlán 	7	Santa Rita 	1	Enero	2023-01-01T00:00:00	2024-11-08T06:00:00	2	Temperatura media	15.2
68058	7	Sololá	704	Santa Lucía Utatlán 	7	Santa Rita 	1	Enero	2023-01-01T00:00:00	2024-11-08T06:00:00	4	Temperatura máxima	15.6
68059	7	Sololá	704	Santa Lucía Utatlán 	7	Santa Rita 	1	Enero	2023-01-01T00:00:00	2024-11-08T06:00:00	3	Temperatura mínima	14.8
68060	7	Sololá	704	Santa Lucía Utatlán 	7	Santa Rita 	1	Enero	2023-01-01T00:00:00	2024-11-08T06:00:00	5	Humedad	83
68061	7	Sololá	704	Santa Lucía Utatlán 	7	Santa Rita 	1	Enero	2023-01-01T00:00:00	2024-11-08T06:00:00	6	Velocidad del viento	4.8
68062	7	Sololá	704	Santa Lucía Utatlán 	7	Santa Rita 	1	Enero	2023-01-01T00:00:00	2024-11-08T06:00:00	7	Dirección del viento	4.83
68063	7	Sololá	704	Santa Lucía Utatlán 	7	Santa Rita 	1	Enero	2023-01-01T00:00:00	2024-11-08T06:00:00	1	Precipitación	0
68064	7	Sololá	704	Santa Lucía Utatlán 	7	Santa Rita 	1	Enero	2023-01-01T00:00:00	2024-11-08T06:00:00	8	Radiación solar	0
68065	7	Sololá	704	Santa Lucía Utatlán 	7	Santa Rita 	1	Enero	2023-01-01T00:00:00	2024-11-08T07:00:00	2	Temperatura media	15.6
68066	7	Sololá	704	Santa Lucía Utatlán 	7	Santa Rita 	1	Enero	2023-01-01T00:00:00	2024-11-08T07:00:00	4	Temperatura máxima	15.6
68067	7	Sololá	704	Santa Lucía Utatlán 	7	Santa Rita 	1	Enero	2023-01-01T00:00:00	2024-11-08T07:00:00	3	Temperatura mínima	15.1
68068	7	Sololá	704	Santa Lucía Utatlán 	7	Santa Rita 	1	Enero	2023-01-01T00:00:00	2024-11-08T07:00:00	5	Humedad	83
68069	7	Sololá	704	Santa Lucía Utatlán 	7	Santa Rita 	1	Enero	2023-01-01T00:00:00	2024-11-08T07:00:00	6	Velocidad del viento	4.8
68070	7	Sololá	704	Santa Lucía Utatlán 	7	Santa Rita 	1	Enero	2023-01-01T00:00:00	2024-11-08T07:00:00	7	Dirección del viento	4.83
68071	7	Sololá	704	Santa Lucía Utatlán 	7	Santa Rita 	1	Enero	2023-01-01T00:00:00	2024-11-08T07:00:00	1	Precipitación	0
68072	7	Sololá	704	Santa Lucía Utatlán 	7	Santa Rita 	1	Enero	2023-01-01T00:00:00	2024-11-08T07:00:00	8	Radiación solar	8
68073	7	Sololá	704	Santa Lucía Utatlán 	7	Santa Rita 	1	Enero	2023-01-01T00:00:00	2024-11-08T08:00:00	2	Temperatura media	19.8
68074	7	Sololá	704	Santa Lucía Utatlán 	7	Santa Rita 	1	Enero	2023-01-01T00:00:00	2024-11-08T08:00:00	4	Temperatura máxima	19.8
68075	7	Sololá	704	Santa Lucía Utatlán 	7	Santa Rita 	1	Enero	2023-01-01T00:00:00	2024-11-08T08:00:00	3	Temperatura mínima	15.7
68076	7	Sololá	704	Santa Lucía Utatlán 	7	Santa Rita 	1	Enero	2023-01-01T00:00:00	2024-11-08T08:00:00	5	Humedad	72
68077	7	Sololá	704	Santa Lucía Utatlán 	7	Santa Rita 	1	Enero	2023-01-01T00:00:00	2024-11-08T08:00:00	6	Velocidad del viento	0
68078	7	Sololá	704	Santa Lucía Utatlán 	7	Santa Rita 	1	Enero	2023-01-01T00:00:00	2024-11-08T08:00:00	7	Dirección del viento	0
68079	7	Sololá	704	Santa Lucía Utatlán 	7	Santa Rita 	1	Enero	2023-01-01T00:00:00	2024-11-08T08:00:00	1	Precipitación	0
68080	7	Sololá	704	Santa Lucía Utatlán 	7	Santa Rita 	1	Enero	2023-01-01T00:00:00	2024-11-08T08:00:00	8	Radiación solar	120
68081	7	Sololá	704	Santa Lucía Utatlán 	7	Santa Rita 	1	Enero	2023-01-01T00:00:00	2024-11-08T09:00:00	2	Temperatura media	21.7
68082	7	Sololá	704	Santa Lucía Utatlán 	7	Santa Rita 	1	Enero	2023-01-01T00:00:00	2024-11-08T09:00:00	4	Temperatura máxima	21.8
68083	7	Sololá	704	Santa Lucía Utatlán 	7	Santa Rita 	1	Enero	2023-01-01T00:00:00	2024-11-08T09:00:00	3	Temperatura mínima	19.8
68084	7	Sololá	704	Santa Lucía Utatlán 	7	Santa Rita 	1	Enero	2023-01-01T00:00:00	2024-11-08T09:00:00	5	Humedad	65
68085	7	Sololá	704	Santa Lucía Utatlán 	7	Santa Rita 	1	Enero	2023-01-01T00:00:00	2024-11-08T09:00:00	6	Velocidad del viento	3.2
68086	7	Sololá	704	Santa Lucía Utatlán 	7	Santa Rita 	1	Enero	2023-01-01T00:00:00	2024-11-08T09:00:00	7	Dirección del viento	3.22
68087	7	Sololá	704	Santa Lucía Utatlán 	7	Santa Rita 	1	Enero	2023-01-01T00:00:00	2024-11-08T09:00:00	1	Precipitación	0
68088	7	Sololá	704	Santa Lucía Utatlán 	7	Santa Rita 	1	Enero	2023-01-01T00:00:00	2024-11-08T09:00:00	8	Radiación solar	363
68089	7	Sololá	704	Santa Lucía Utatlán 	7	Santa Rita 	1	Enero	2023-01-01T00:00:00	2024-11-08T10:00:00	2	Temperatura media	22.9
68090	7	Sololá	704	Santa Lucía Utatlán 	7	Santa Rita 	1	Enero	2023-01-01T00:00:00	2024-11-08T10:00:00	4	Temperatura máxima	23.1
68091	7	Sololá	704	Santa Lucía Utatlán 	7	Santa Rita 	1	Enero	2023-01-01T00:00:00	2024-11-08T10:00:00	3	Temperatura mínima	21.7
68092	7	Sololá	704	Santa Lucía Utatlán 	7	Santa Rita 	1	Enero	2023-01-01T00:00:00	2024-11-08T10:00:00	5	Humedad	60
68093	7	Sololá	704	Santa Lucía Utatlán 	7	Santa Rita 	1	Enero	2023-01-01T00:00:00	2024-11-08T10:00:00	6	Velocidad del viento	6.4
68094	7	Sololá	704	Santa Lucía Utatlán 	7	Santa Rita 	1	Enero	2023-01-01T00:00:00	2024-11-08T10:00:00	7	Dirección del viento	6.44
68095	7	Sololá	704	Santa Lucía Utatlán 	7	Santa Rita 	1	Enero	2023-01-01T00:00:00	2024-11-08T10:00:00	1	Precipitación	0
68096	7	Sololá	704	Santa Lucía Utatlán 	7	Santa Rita 	1	Enero	2023-01-01T00:00:00	2024-11-08T10:00:00	8	Radiación solar	568
68097	7	Sololá	704	Santa Lucía Utatlán 	7	Santa Rita 	1	Enero	2023-01-01T00:00:00	2024-11-08T11:00:00	2	Temperatura media	23.6
68098	7	Sololá	704	Santa Lucía Utatlán 	7	Santa Rita 	1	Enero	2023-01-01T00:00:00	2024-11-08T11:00:00	4	Temperatura máxima	23.6
68099	7	Sololá	704	Santa Lucía Utatlán 	7	Santa Rita 	1	Enero	2023-01-01T00:00:00	2024-11-08T11:00:00	3	Temperatura mínima	22.8
68100	7	Sololá	704	Santa Lucía Utatlán 	7	Santa Rita 	1	Enero	2023-01-01T00:00:00	2024-11-08T11:00:00	5	Humedad	60
68101	7	Sololá	704	Santa Lucía Utatlán 	7	Santa Rita 	1	Enero	2023-01-01T00:00:00	2024-11-08T11:00:00	6	Velocidad del viento	6.4
68102	7	Sololá	704	Santa Lucía Utatlán 	7	Santa Rita 	1	Enero	2023-01-01T00:00:00	2024-11-08T11:00:00	7	Dirección del viento	6.44
68103	7	Sololá	704	Santa Lucía Utatlán 	7	Santa Rita 	1	Enero	2023-01-01T00:00:00	2024-11-08T11:00:00	1	Precipitación	0
68104	7	Sololá	704	Santa Lucía Utatlán 	7	Santa Rita 	1	Enero	2023-01-01T00:00:00	2024-11-08T11:00:00	8	Radiación solar	733
68105	7	Sololá	704	Santa Lucía Utatlán 	7	Santa Rita 	1	Enero	2023-01-01T00:00:00	2024-11-08T12:00:00	2	Temperatura media	23.9
68106	7	Sololá	704	Santa Lucía Utatlán 	7	Santa Rita 	1	Enero	2023-01-01T00:00:00	2024-11-08T12:00:00	4	Temperatura máxima	24.7
68107	7	Sololá	704	Santa Lucía Utatlán 	7	Santa Rita 	1	Enero	2023-01-01T00:00:00	2024-11-08T12:00:00	3	Temperatura mínima	23.5
68108	7	Sololá	704	Santa Lucía Utatlán 	7	Santa Rita 	1	Enero	2023-01-01T00:00:00	2024-11-08T12:00:00	5	Humedad	58
68109	7	Sololá	704	Santa Lucía Utatlán 	7	Santa Rita 	1	Enero	2023-01-01T00:00:00	2024-11-08T12:00:00	6	Velocidad del viento	9.7
68110	7	Sololá	704	Santa Lucía Utatlán 	7	Santa Rita 	1	Enero	2023-01-01T00:00:00	2024-11-08T12:00:00	7	Dirección del viento	9.66
68111	7	Sololá	704	Santa Lucía Utatlán 	7	Santa Rita 	1	Enero	2023-01-01T00:00:00	2024-11-08T12:00:00	1	Precipitación	0
68112	7	Sololá	704	Santa Lucía Utatlán 	7	Santa Rita 	1	Enero	2023-01-01T00:00:00	2024-11-08T12:00:00	8	Radiación solar	835
68113	7	Sololá	704	Santa Lucía Utatlán 	7	Santa Rita 	1	Enero	2023-01-01T00:00:00	2024-11-08T13:00:00	2	Temperatura media	24.1
68114	7	Sololá	704	Santa Lucía Utatlán 	7	Santa Rita 	1	Enero	2023-01-01T00:00:00	2024-11-08T13:00:00	4	Temperatura máxima	24.3
68115	7	Sololá	704	Santa Lucía Utatlán 	7	Santa Rita 	1	Enero	2023-01-01T00:00:00	2024-11-08T13:00:00	3	Temperatura mínima	23.8
68116	7	Sololá	704	Santa Lucía Utatlán 	7	Santa Rita 	1	Enero	2023-01-01T00:00:00	2024-11-08T13:00:00	5	Humedad	60
68117	7	Sololá	704	Santa Lucía Utatlán 	7	Santa Rita 	1	Enero	2023-01-01T00:00:00	2024-11-08T13:00:00	6	Velocidad del viento	9.7
68118	7	Sololá	704	Santa Lucía Utatlán 	7	Santa Rita 	1	Enero	2023-01-01T00:00:00	2024-11-08T13:00:00	7	Dirección del viento	9.66
68119	7	Sololá	704	Santa Lucía Utatlán 	7	Santa Rita 	1	Enero	2023-01-01T00:00:00	2024-11-08T13:00:00	1	Precipitación	0
68120	7	Sololá	704	Santa Lucía Utatlán 	7	Santa Rita 	1	Enero	2023-01-01T00:00:00	2024-11-08T13:00:00	8	Radiación solar	808
68121	7	Sololá	704	Santa Lucía Utatlán 	7	Santa Rita 	1	Enero	2023-01-01T00:00:00	2024-11-08T14:00:00	2	Temperatura media	24.6
68122	7	Sololá	704	Santa Lucía Utatlán 	7	Santa Rita 	1	Enero	2023-01-01T00:00:00	2024-11-08T14:00:00	4	Temperatura máxima	24.9
68123	7	Sololá	704	Santa Lucía Utatlán 	7	Santa Rita 	1	Enero	2023-01-01T00:00:00	2024-11-08T14:00:00	3	Temperatura mínima	24.1
68124	7	Sololá	704	Santa Lucía Utatlán 	7	Santa Rita 	1	Enero	2023-01-01T00:00:00	2024-11-08T14:00:00	5	Humedad	62
68125	7	Sololá	704	Santa Lucía Utatlán 	7	Santa Rita 	1	Enero	2023-01-01T00:00:00	2024-11-08T14:00:00	6	Velocidad del viento	9.7
68126	7	Sololá	704	Santa Lucía Utatlán 	7	Santa Rita 	1	Enero	2023-01-01T00:00:00	2024-11-08T14:00:00	7	Dirección del viento	9.66
68127	7	Sololá	704	Santa Lucía Utatlán 	7	Santa Rita 	1	Enero	2023-01-01T00:00:00	2024-11-08T14:00:00	1	Precipitación	0
68128	7	Sololá	704	Santa Lucía Utatlán 	7	Santa Rita 	1	Enero	2023-01-01T00:00:00	2024-11-08T14:00:00	8	Radiación solar	740
68129	7	Sololá	704	Santa Lucía Utatlán 	7	Santa Rita 	1	Enero	2023-01-01T00:00:00	2024-11-08T15:00:00	2	Temperatura media	23.3
68130	7	Sololá	704	Santa Lucía Utatlán 	7	Santa Rita 	1	Enero	2023-01-01T00:00:00	2024-11-08T15:00:00	4	Temperatura máxima	24.6
68131	7	Sololá	704	Santa Lucía Utatlán 	7	Santa Rita 	1	Enero	2023-01-01T00:00:00	2024-11-08T15:00:00	3	Temperatura mínima	23.3
68132	7	Sololá	704	Santa Lucía Utatlán 	7	Santa Rita 	1	Enero	2023-01-01T00:00:00	2024-11-08T15:00:00	5	Humedad	72
68133	7	Sololá	704	Santa Lucía Utatlán 	7	Santa Rita 	1	Enero	2023-01-01T00:00:00	2024-11-08T15:00:00	6	Velocidad del viento	9.7
68134	7	Sololá	704	Santa Lucía Utatlán 	7	Santa Rita 	1	Enero	2023-01-01T00:00:00	2024-11-08T15:00:00	7	Dirección del viento	9.66
68135	7	Sololá	704	Santa Lucía Utatlán 	7	Santa Rita 	1	Enero	2023-01-01T00:00:00	2024-11-08T15:00:00	1	Precipitación	0
68136	7	Sololá	704	Santa Lucía Utatlán 	7	Santa Rita 	1	Enero	2023-01-01T00:00:00	2024-11-08T15:00:00	8	Radiación solar	528
68137	7	Sololá	704	Santa Lucía Utatlán 	7	Santa Rita 	1	Enero	2023-01-01T00:00:00	2024-11-08T16:00:00	2	Temperatura media	21.7
68138	7	Sololá	704	Santa Lucía Utatlán 	7	Santa Rita 	1	Enero	2023-01-01T00:00:00	2024-11-08T16:00:00	4	Temperatura máxima	23.3
68139	7	Sololá	704	Santa Lucía Utatlán 	7	Santa Rita 	1	Enero	2023-01-01T00:00:00	2024-11-08T16:00:00	3	Temperatura mínima	21.7
68140	7	Sololá	704	Santa Lucía Utatlán 	7	Santa Rita 	1	Enero	2023-01-01T00:00:00	2024-11-08T16:00:00	5	Humedad	80
68141	7	Sololá	704	Santa Lucía Utatlán 	7	Santa Rita 	1	Enero	2023-01-01T00:00:00	2024-11-08T16:00:00	6	Velocidad del viento	8
68142	7	Sololá	704	Santa Lucía Utatlán 	7	Santa Rita 	1	Enero	2023-01-01T00:00:00	2024-11-08T16:00:00	7	Dirección del viento	8.05
68143	7	Sololá	704	Santa Lucía Utatlán 	7	Santa Rita 	1	Enero	2023-01-01T00:00:00	2024-11-08T16:00:00	1	Precipitación	0
68144	7	Sololá	704	Santa Lucía Utatlán 	7	Santa Rita 	1	Enero	2023-01-01T00:00:00	2024-11-08T16:00:00	8	Radiación solar	181
68145	7	Sololá	704	Santa Lucía Utatlán 	7	Santa Rita 	1	Enero	2023-01-01T00:00:00	2024-11-08T17:00:00	2	Temperatura media	20.8
68146	7	Sololá	704	Santa Lucía Utatlán 	7	Santa Rita 	1	Enero	2023-01-01T00:00:00	2024-11-08T17:00:00	4	Temperatura máxima	21.8
68147	7	Sololá	704	Santa Lucía Utatlán 	7	Santa Rita 	1	Enero	2023-01-01T00:00:00	2024-11-08T17:00:00	3	Temperatura mínima	20.7
68148	7	Sololá	704	Santa Lucía Utatlán 	7	Santa Rita 	1	Enero	2023-01-01T00:00:00	2024-11-08T17:00:00	5	Humedad	84
68149	7	Sololá	704	Santa Lucía Utatlán 	7	Santa Rita 	1	Enero	2023-01-01T00:00:00	2024-11-08T17:00:00	6	Velocidad del viento	6.4
68150	7	Sololá	704	Santa Lucía Utatlán 	7	Santa Rita 	1	Enero	2023-01-01T00:00:00	2024-11-08T17:00:00	7	Dirección del viento	6.44
68151	7	Sololá	704	Santa Lucía Utatlán 	7	Santa Rita 	1	Enero	2023-01-01T00:00:00	2024-11-08T17:00:00	1	Precipitación	0
68152	7	Sololá	704	Santa Lucía Utatlán 	7	Santa Rita 	1	Enero	2023-01-01T00:00:00	2024-11-08T17:00:00	8	Radiación solar	86
68153	7	Sololá	704	Santa Lucía Utatlán 	7	Santa Rita 	1	Enero	2023-01-01T00:00:00	2024-11-08T18:00:00	2	Temperatura media	19.7
68154	7	Sololá	704	Santa Lucía Utatlán 	7	Santa Rita 	1	Enero	2023-01-01T00:00:00	2024-11-08T18:00:00	4	Temperatura máxima	20.8
68155	7	Sololá	704	Santa Lucía Utatlán 	7	Santa Rita 	1	Enero	2023-01-01T00:00:00	2024-11-08T18:00:00	3	Temperatura mínima	19.7
68156	7	Sololá	704	Santa Lucía Utatlán 	7	Santa Rita 	1	Enero	2023-01-01T00:00:00	2024-11-08T18:00:00	5	Humedad	88
68157	7	Sololá	704	Santa Lucía Utatlán 	7	Santa Rita 	1	Enero	2023-01-01T00:00:00	2024-11-08T18:00:00	6	Velocidad del viento	3.2
68158	7	Sololá	704	Santa Lucía Utatlán 	7	Santa Rita 	1	Enero	2023-01-01T00:00:00	2024-11-08T18:00:00	7	Dirección del viento	3.22
68159	7	Sololá	704	Santa Lucía Utatlán 	7	Santa Rita 	1	Enero	2023-01-01T00:00:00	2024-11-08T18:00:00	1	Precipitación	0
68160	7	Sololá	704	Santa Lucía Utatlán 	7	Santa Rita 	1	Enero	2023-01-01T00:00:00	2024-11-08T18:00:00	8	Radiación solar	14
68161	7	Sololá	704	Santa Lucía Utatlán 	7	Santa Rita 	1	Enero	2023-01-01T00:00:00	2024-11-08T19:00:00	2	Temperatura media	18.3
68162	7	Sololá	704	Santa Lucía Utatlán 	7	Santa Rita 	1	Enero	2023-01-01T00:00:00	2024-11-08T19:00:00	4	Temperatura máxima	19.7
68163	7	Sololá	704	Santa Lucía Utatlán 	7	Santa Rita 	1	Enero	2023-01-01T00:00:00	2024-11-08T19:00:00	3	Temperatura mínima	18.3
68164	7	Sololá	704	Santa Lucía Utatlán 	7	Santa Rita 	1	Enero	2023-01-01T00:00:00	2024-11-08T19:00:00	5	Humedad	86
68165	7	Sololá	704	Santa Lucía Utatlán 	7	Santa Rita 	1	Enero	2023-01-01T00:00:00	2024-11-08T19:00:00	6	Velocidad del viento	1.6
68166	7	Sololá	704	Santa Lucía Utatlán 	7	Santa Rita 	1	Enero	2023-01-01T00:00:00	2024-11-08T19:00:00	7	Dirección del viento	1.61
68167	7	Sololá	704	Santa Lucía Utatlán 	7	Santa Rita 	1	Enero	2023-01-01T00:00:00	2024-11-08T19:00:00	1	Precipitación	0
68168	7	Sololá	704	Santa Lucía Utatlán 	7	Santa Rita 	1	Enero	2023-01-01T00:00:00	2024-11-08T19:00:00	8	Radiación solar	0
68169	7	Sololá	704	Santa Lucía Utatlán 	7	Santa Rita 	1	Enero	2023-01-01T00:00:00	2024-11-08T20:00:00	2	Temperatura media	16.6
68170	7	Sololá	704	Santa Lucía Utatlán 	7	Santa Rita 	1	Enero	2023-01-01T00:00:00	2024-11-08T20:00:00	4	Temperatura máxima	18.3
68171	7	Sololá	704	Santa Lucía Utatlán 	7	Santa Rita 	1	Enero	2023-01-01T00:00:00	2024-11-08T20:00:00	3	Temperatura mínima	16.6
68172	7	Sololá	704	Santa Lucía Utatlán 	7	Santa Rita 	1	Enero	2023-01-01T00:00:00	2024-11-08T20:00:00	5	Humedad	85
68173	7	Sololá	704	Santa Lucía Utatlán 	7	Santa Rita 	1	Enero	2023-01-01T00:00:00	2024-11-08T20:00:00	6	Velocidad del viento	3.2
68174	7	Sololá	704	Santa Lucía Utatlán 	7	Santa Rita 	1	Enero	2023-01-01T00:00:00	2024-11-08T20:00:00	7	Dirección del viento	3.22
68175	7	Sololá	704	Santa Lucía Utatlán 	7	Santa Rita 	1	Enero	2023-01-01T00:00:00	2024-11-08T20:00:00	1	Precipitación	0
68176	7	Sololá	704	Santa Lucía Utatlán 	7	Santa Rita 	1	Enero	2023-01-01T00:00:00	2024-11-08T20:00:00	8	Radiación solar	0
68177	7	Sololá	704	Santa Lucía Utatlán 	7	Santa Rita 	1	Enero	2023-01-01T00:00:00	2024-11-08T21:00:00	2	Temperatura media	16.1
68178	7	Sololá	704	Santa Lucía Utatlán 	7	Santa Rita 	1	Enero	2023-01-01T00:00:00	2024-11-08T21:00:00	4	Temperatura máxima	16.6
68179	7	Sololá	704	Santa Lucía Utatlán 	7	Santa Rita 	1	Enero	2023-01-01T00:00:00	2024-11-08T21:00:00	3	Temperatura mínima	16.1
68180	7	Sololá	704	Santa Lucía Utatlán 	7	Santa Rita 	1	Enero	2023-01-01T00:00:00	2024-11-08T21:00:00	5	Humedad	84
68181	7	Sololá	704	Santa Lucía Utatlán 	7	Santa Rita 	1	Enero	2023-01-01T00:00:00	2024-11-08T21:00:00	6	Velocidad del viento	3.2
68182	7	Sololá	704	Santa Lucía Utatlán 	7	Santa Rita 	1	Enero	2023-01-01T00:00:00	2024-11-08T21:00:00	7	Dirección del viento	3.22
68183	7	Sololá	704	Santa Lucía Utatlán 	7	Santa Rita 	1	Enero	2023-01-01T00:00:00	2024-11-08T21:00:00	1	Precipitación	0
68184	7	Sololá	704	Santa Lucía Utatlán 	7	Santa Rita 	1	Enero	2023-01-01T00:00:00	2024-11-08T21:00:00	8	Radiación solar	0
68185	7	Sololá	704	Santa Lucía Utatlán 	7	Santa Rita 	1	Enero	2023-01-01T00:00:00	2024-11-08T22:00:00	2	Temperatura media	15.2
68186	7	Sololá	704	Santa Lucía Utatlán 	7	Santa Rita 	1	Enero	2023-01-01T00:00:00	2024-11-08T22:00:00	4	Temperatura máxima	16.1
68187	7	Sololá	704	Santa Lucía Utatlán 	7	Santa Rita 	1	Enero	2023-01-01T00:00:00	2024-11-08T22:00:00	3	Temperatura mínima	15.2
68188	7	Sololá	704	Santa Lucía Utatlán 	7	Santa Rita 	1	Enero	2023-01-01T00:00:00	2024-11-08T22:00:00	5	Humedad	83
68189	7	Sololá	704	Santa Lucía Utatlán 	7	Santa Rita 	1	Enero	2023-01-01T00:00:00	2024-11-08T22:00:00	6	Velocidad del viento	4.8
68190	7	Sololá	704	Santa Lucía Utatlán 	7	Santa Rita 	1	Enero	2023-01-01T00:00:00	2024-11-08T22:00:00	7	Dirección del viento	4.83
68191	7	Sololá	704	Santa Lucía Utatlán 	7	Santa Rita 	1	Enero	2023-01-01T00:00:00	2024-11-08T22:00:00	1	Precipitación	0
68192	7	Sololá	704	Santa Lucía Utatlán 	7	Santa Rita 	1	Enero	2023-01-01T00:00:00	2024-11-08T22:00:00	8	Radiación solar	0
68193	7	Sololá	704	Santa Lucía Utatlán 	7	Santa Rita 	1	Enero	2023-01-01T00:00:00	2024-11-08T23:00:00	2	Temperatura media	15.3
68194	7	Sololá	704	Santa Lucía Utatlán 	7	Santa Rita 	1	Enero	2023-01-01T00:00:00	2024-11-08T23:00:00	4	Temperatura máxima	15.4
68195	7	Sololá	704	Santa Lucía Utatlán 	7	Santa Rita 	1	Enero	2023-01-01T00:00:00	2024-11-08T23:00:00	3	Temperatura mínima	14.8
68196	7	Sololá	704	Santa Lucía Utatlán 	7	Santa Rita 	1	Enero	2023-01-01T00:00:00	2024-11-08T23:00:00	5	Humedad	82
68197	7	Sololá	704	Santa Lucía Utatlán 	7	Santa Rita 	1	Enero	2023-01-01T00:00:00	2024-11-08T23:00:00	6	Velocidad del viento	4.8
68198	7	Sololá	704	Santa Lucía Utatlán 	7	Santa Rita 	1	Enero	2023-01-01T00:00:00	2024-11-08T23:00:00	7	Dirección del viento	4.83
68199	7	Sololá	704	Santa Lucía Utatlán 	7	Santa Rita 	1	Enero	2023-01-01T00:00:00	2024-11-08T23:00:00	1	Precipitación	0
68200	7	Sololá	704	Santa Lucía Utatlán 	7	Santa Rita 	1	Enero	2023-01-01T00:00:00	2024-11-08T23:00:00	8	Radiación solar	0
68201	7	Sololá	704	Santa Lucía Utatlán 	7	Santa Rita 	1	Enero	2023-02-01T00:00:00	2024-11-08T00:00:00	2	Temperatura media	14.7
68202	7	Sololá	704	Santa Lucía Utatlán 	7	Santa Rita 	1	Enero	2023-02-01T00:00:00	2024-11-08T00:00:00	4	Temperatura máxima	15.3
68203	7	Sololá	704	Santa Lucía Utatlán 	7	Santa Rita 	1	Enero	2023-02-01T00:00:00	2024-11-08T00:00:00	3	Temperatura mínima	14.7
68204	7	Sololá	704	Santa Lucía Utatlán 	7	Santa Rita 	1	Enero	2023-02-01T00:00:00	2024-11-08T00:00:00	5	Humedad	85
68205	7	Sololá	704	Santa Lucía Utatlán 	7	Santa Rita 	1	Enero	2023-02-01T00:00:00	2024-11-08T00:00:00	6	Velocidad del viento	4.8
68206	7	Sololá	704	Santa Lucía Utatlán 	7	Santa Rita 	1	Enero	2023-02-01T00:00:00	2024-11-08T00:00:00	7	Dirección del viento	4.83
68207	7	Sololá	704	Santa Lucía Utatlán 	7	Santa Rita 	1	Enero	2023-02-01T00:00:00	2024-11-08T00:00:00	1	Precipitación	0
68208	7	Sololá	704	Santa Lucía Utatlán 	7	Santa Rita 	1	Enero	2023-02-01T00:00:00	2024-11-08T00:00:00	8	Radiación solar	0
68209	7	Sololá	704	Santa Lucía Utatlán 	7	Santa Rita 	1	Enero	2023-02-01T00:00:00	2024-11-08T01:00:00	2	Temperatura media	14.3
68210	7	Sololá	704	Santa Lucía Utatlán 	7	Santa Rita 	1	Enero	2023-02-01T00:00:00	2024-11-08T01:00:00	4	Temperatura máxima	14.7
68211	7	Sololá	704	Santa Lucía Utatlán 	7	Santa Rita 	1	Enero	2023-02-01T00:00:00	2024-11-08T01:00:00	3	Temperatura mínima	14.1
68212	7	Sololá	704	Santa Lucía Utatlán 	7	Santa Rita 	1	Enero	2023-02-01T00:00:00	2024-11-08T01:00:00	5	Humedad	87
68213	7	Sololá	704	Santa Lucía Utatlán 	7	Santa Rita 	1	Enero	2023-02-01T00:00:00	2024-11-08T01:00:00	6	Velocidad del viento	3.2
68214	7	Sololá	704	Santa Lucía Utatlán 	7	Santa Rita 	1	Enero	2023-02-01T00:00:00	2024-11-08T01:00:00	7	Dirección del viento	3.22
68215	7	Sololá	704	Santa Lucía Utatlán 	7	Santa Rita 	1	Enero	2023-02-01T00:00:00	2024-11-08T01:00:00	1	Precipitación	0
68216	7	Sololá	704	Santa Lucía Utatlán 	7	Santa Rita 	1	Enero	2023-02-01T00:00:00	2024-11-08T01:00:00	8	Radiación solar	0
68217	7	Sololá	704	Santa Lucía Utatlán 	7	Santa Rita 	1	Enero	2023-02-01T00:00:00	2024-11-08T02:00:00	2	Temperatura media	14.7
68218	7	Sololá	704	Santa Lucía Utatlán 	7	Santa Rita 	1	Enero	2023-02-01T00:00:00	2024-11-08T02:00:00	4	Temperatura máxima	14.7
68219	7	Sololá	704	Santa Lucía Utatlán 	7	Santa Rita 	1	Enero	2023-02-01T00:00:00	2024-11-08T02:00:00	3	Temperatura mínima	14.3
68220	7	Sololá	704	Santa Lucía Utatlán 	7	Santa Rita 	1	Enero	2023-02-01T00:00:00	2024-11-08T02:00:00	5	Humedad	87
68221	7	Sololá	704	Santa Lucía Utatlán 	7	Santa Rita 	1	Enero	2023-02-01T00:00:00	2024-11-08T02:00:00	6	Velocidad del viento	4.8
68222	7	Sololá	704	Santa Lucía Utatlán 	7	Santa Rita 	1	Enero	2023-02-01T00:00:00	2024-11-08T02:00:00	7	Dirección del viento	4.83
68223	7	Sololá	704	Santa Lucía Utatlán 	7	Santa Rita 	1	Enero	2023-02-01T00:00:00	2024-11-08T02:00:00	1	Precipitación	0
68224	7	Sololá	704	Santa Lucía Utatlán 	7	Santa Rita 	1	Enero	2023-02-01T00:00:00	2024-11-08T02:00:00	8	Radiación solar	0
68225	7	Sololá	704	Santa Lucía Utatlán 	7	Santa Rita 	1	Enero	2023-02-01T00:00:00	2024-11-08T03:00:00	2	Temperatura media	14.8
68226	7	Sololá	704	Santa Lucía Utatlán 	7	Santa Rita 	1	Enero	2023-02-01T00:00:00	2024-11-08T03:00:00	4	Temperatura máxima	14.9
68227	7	Sololá	704	Santa Lucía Utatlán 	7	Santa Rita 	1	Enero	2023-02-01T00:00:00	2024-11-08T03:00:00	3	Temperatura mínima	14.7
68228	7	Sololá	704	Santa Lucía Utatlán 	7	Santa Rita 	1	Enero	2023-02-01T00:00:00	2024-11-08T03:00:00	5	Humedad	85
68229	7	Sololá	704	Santa Lucía Utatlán 	7	Santa Rita 	1	Enero	2023-02-01T00:00:00	2024-11-08T03:00:00	6	Velocidad del viento	4.8
68230	7	Sololá	704	Santa Lucía Utatlán 	7	Santa Rita 	1	Enero	2023-02-01T00:00:00	2024-11-08T03:00:00	7	Dirección del viento	4.83
68231	7	Sololá	704	Santa Lucía Utatlán 	7	Santa Rita 	1	Enero	2023-02-01T00:00:00	2024-11-08T03:00:00	1	Precipitación	0
68232	7	Sololá	704	Santa Lucía Utatlán 	7	Santa Rita 	1	Enero	2023-02-01T00:00:00	2024-11-08T03:00:00	8	Radiación solar	0
68233	7	Sololá	704	Santa Lucía Utatlán 	7	Santa Rita 	1	Enero	2023-02-01T00:00:00	2024-11-08T04:00:00	2	Temperatura media	14.7
68234	7	Sololá	704	Santa Lucía Utatlán 	7	Santa Rita 	1	Enero	2023-02-01T00:00:00	2024-11-08T04:00:00	4	Temperatura máxima	15
68235	7	Sololá	704	Santa Lucía Utatlán 	7	Santa Rita 	1	Enero	2023-02-01T00:00:00	2024-11-08T04:00:00	3	Temperatura mínima	14.6
68236	7	Sololá	704	Santa Lucía Utatlán 	7	Santa Rita 	1	Enero	2023-02-01T00:00:00	2024-11-08T04:00:00	5	Humedad	86
68237	7	Sololá	704	Santa Lucía Utatlán 	7	Santa Rita 	1	Enero	2023-02-01T00:00:00	2024-11-08T04:00:00	6	Velocidad del viento	6.4
68238	7	Sololá	704	Santa Lucía Utatlán 	7	Santa Rita 	1	Enero	2023-02-01T00:00:00	2024-11-08T04:00:00	7	Dirección del viento	6.44
68239	7	Sololá	704	Santa Lucía Utatlán 	7	Santa Rita 	1	Enero	2023-02-01T00:00:00	2024-11-08T04:00:00	1	Precipitación	0
68240	7	Sololá	704	Santa Lucía Utatlán 	7	Santa Rita 	1	Enero	2023-02-01T00:00:00	2024-11-08T04:00:00	8	Radiación solar	0
68241	7	Sololá	704	Santa Lucía Utatlán 	7	Santa Rita 	1	Enero	2023-02-01T00:00:00	2024-11-08T05:00:00	2	Temperatura media	14.5
68242	7	Sololá	704	Santa Lucía Utatlán 	7	Santa Rita 	1	Enero	2023-02-01T00:00:00	2024-11-08T05:00:00	4	Temperatura máxima	14.7
68243	7	Sololá	704	Santa Lucía Utatlán 	7	Santa Rita 	1	Enero	2023-02-01T00:00:00	2024-11-08T05:00:00	3	Temperatura mínima	14.3
68244	7	Sololá	704	Santa Lucía Utatlán 	7	Santa Rita 	1	Enero	2023-02-01T00:00:00	2024-11-08T05:00:00	5	Humedad	86
68245	7	Sololá	704	Santa Lucía Utatlán 	7	Santa Rita 	1	Enero	2023-02-01T00:00:00	2024-11-08T05:00:00	6	Velocidad del viento	4.8
68246	7	Sololá	704	Santa Lucía Utatlán 	7	Santa Rita 	1	Enero	2023-02-01T00:00:00	2024-11-08T05:00:00	7	Dirección del viento	4.83
68247	7	Sololá	704	Santa Lucía Utatlán 	7	Santa Rita 	1	Enero	2023-02-01T00:00:00	2024-11-08T05:00:00	1	Precipitación	0
68248	7	Sololá	704	Santa Lucía Utatlán 	7	Santa Rita 	1	Enero	2023-02-01T00:00:00	2024-11-08T05:00:00	8	Radiación solar	0
68249	7	Sololá	704	Santa Lucía Utatlán 	7	Santa Rita 	1	Enero	2023-02-01T00:00:00	2024-11-08T06:00:00	2	Temperatura media	14.4
68250	7	Sololá	704	Santa Lucía Utatlán 	7	Santa Rita 	1	Enero	2023-02-01T00:00:00	2024-11-08T06:00:00	4	Temperatura máxima	14.6
68251	7	Sololá	704	Santa Lucía Utatlán 	7	Santa Rita 	1	Enero	2023-02-01T00:00:00	2024-11-08T06:00:00	3	Temperatura mínima	14.3
68252	7	Sololá	704	Santa Lucía Utatlán 	7	Santa Rita 	1	Enero	2023-02-01T00:00:00	2024-11-08T06:00:00	5	Humedad	84
68253	7	Sololá	704	Santa Lucía Utatlán 	7	Santa Rita 	1	Enero	2023-02-01T00:00:00	2024-11-08T06:00:00	6	Velocidad del viento	4.8
68254	7	Sololá	704	Santa Lucía Utatlán 	7	Santa Rita 	1	Enero	2023-02-01T00:00:00	2024-11-08T06:00:00	7	Dirección del viento	4.83
68255	7	Sololá	704	Santa Lucía Utatlán 	7	Santa Rita 	1	Enero	2023-02-01T00:00:00	2024-11-08T06:00:00	1	Precipitación	0
68256	7	Sololá	704	Santa Lucía Utatlán 	7	Santa Rita 	1	Enero	2023-02-01T00:00:00	2024-11-08T06:00:00	8	Radiación solar	0
68257	7	Sololá	704	Santa Lucía Utatlán 	7	Santa Rita 	1	Enero	2023-02-01T00:00:00	2024-11-08T07:00:00	2	Temperatura media	15.1
68258	7	Sololá	704	Santa Lucía Utatlán 	7	Santa Rita 	1	Enero	2023-02-01T00:00:00	2024-11-08T07:00:00	4	Temperatura máxima	15.1
68259	7	Sololá	704	Santa Lucía Utatlán 	7	Santa Rita 	1	Enero	2023-02-01T00:00:00	2024-11-08T07:00:00	3	Temperatura mínima	14.3
68260	7	Sololá	704	Santa Lucía Utatlán 	7	Santa Rita 	1	Enero	2023-02-01T00:00:00	2024-11-08T07:00:00	5	Humedad	84
68261	7	Sololá	704	Santa Lucía Utatlán 	7	Santa Rita 	1	Enero	2023-02-01T00:00:00	2024-11-08T07:00:00	6	Velocidad del viento	6.4
68262	7	Sololá	704	Santa Lucía Utatlán 	7	Santa Rita 	1	Enero	2023-02-01T00:00:00	2024-11-08T07:00:00	7	Dirección del viento	6.44
68263	7	Sololá	704	Santa Lucía Utatlán 	7	Santa Rita 	1	Enero	2023-02-01T00:00:00	2024-11-08T07:00:00	1	Precipitación	0
68264	7	Sololá	704	Santa Lucía Utatlán 	7	Santa Rita 	1	Enero	2023-02-01T00:00:00	2024-11-08T07:00:00	8	Radiación solar	7
68265	7	Sololá	704	Santa Lucía Utatlán 	7	Santa Rita 	1	Enero	2023-02-01T00:00:00	2024-11-08T08:00:00	2	Temperatura media	20.3
68266	7	Sololá	704	Santa Lucía Utatlán 	7	Santa Rita 	1	Enero	2023-02-01T00:00:00	2024-11-08T08:00:00	4	Temperatura máxima	20.3
68267	7	Sololá	704	Santa Lucía Utatlán 	7	Santa Rita 	1	Enero	2023-02-01T00:00:00	2024-11-08T08:00:00	3	Temperatura mínima	15.1
68268	7	Sololá	704	Santa Lucía Utatlán 	7	Santa Rita 	1	Enero	2023-02-01T00:00:00	2024-11-08T08:00:00	5	Humedad	71
68269	7	Sololá	704	Santa Lucía Utatlán 	7	Santa Rita 	1	Enero	2023-02-01T00:00:00	2024-11-08T08:00:00	6	Velocidad del viento	0
68270	7	Sololá	704	Santa Lucía Utatlán 	7	Santa Rita 	1	Enero	2023-02-01T00:00:00	2024-11-08T08:00:00	7	Dirección del viento	0
68271	7	Sololá	704	Santa Lucía Utatlán 	7	Santa Rita 	1	Enero	2023-02-01T00:00:00	2024-11-08T08:00:00	1	Precipitación	0
68272	7	Sololá	704	Santa Lucía Utatlán 	7	Santa Rita 	1	Enero	2023-02-01T00:00:00	2024-11-08T08:00:00	8	Radiación solar	159
68273	7	Sololá	704	Santa Lucía Utatlán 	7	Santa Rita 	1	Enero	2023-02-01T00:00:00	2024-11-08T09:00:00	2	Temperatura media	21.6
68274	7	Sololá	704	Santa Lucía Utatlán 	7	Santa Rita 	1	Enero	2023-02-01T00:00:00	2024-11-08T09:00:00	4	Temperatura máxima	21.6
68275	7	Sololá	704	Santa Lucía Utatlán 	7	Santa Rita 	1	Enero	2023-02-01T00:00:00	2024-11-08T09:00:00	3	Temperatura mínima	20.2
68276	7	Sololá	704	Santa Lucía Utatlán 	7	Santa Rita 	1	Enero	2023-02-01T00:00:00	2024-11-08T09:00:00	5	Humedad	59
68277	7	Sololá	704	Santa Lucía Utatlán 	7	Santa Rita 	1	Enero	2023-02-01T00:00:00	2024-11-08T09:00:00	6	Velocidad del viento	4.8
68278	7	Sololá	704	Santa Lucía Utatlán 	7	Santa Rita 	1	Enero	2023-02-01T00:00:00	2024-11-08T09:00:00	7	Dirección del viento	4.83
68279	7	Sololá	704	Santa Lucía Utatlán 	7	Santa Rita 	1	Enero	2023-02-01T00:00:00	2024-11-08T09:00:00	1	Precipitación	0
68280	7	Sololá	704	Santa Lucía Utatlán 	7	Santa Rita 	1	Enero	2023-02-01T00:00:00	2024-11-08T09:00:00	8	Radiación solar	427
68281	7	Sololá	704	Santa Lucía Utatlán 	7	Santa Rita 	1	Enero	2023-02-01T00:00:00	2024-11-08T10:00:00	2	Temperatura media	21.6
68282	7	Sololá	704	Santa Lucía Utatlán 	7	Santa Rita 	1	Enero	2023-02-01T00:00:00	2024-11-08T10:00:00	4	Temperatura máxima	21.9
68283	7	Sololá	704	Santa Lucía Utatlán 	7	Santa Rita 	1	Enero	2023-02-01T00:00:00	2024-11-08T10:00:00	3	Temperatura mínima	21.1
68284	7	Sololá	704	Santa Lucía Utatlán 	7	Santa Rita 	1	Enero	2023-02-01T00:00:00	2024-11-08T10:00:00	5	Humedad	62
68285	7	Sololá	704	Santa Lucía Utatlán 	7	Santa Rita 	1	Enero	2023-02-01T00:00:00	2024-11-08T10:00:00	6	Velocidad del viento	6.4
68286	7	Sololá	704	Santa Lucía Utatlán 	7	Santa Rita 	1	Enero	2023-02-01T00:00:00	2024-11-08T10:00:00	7	Dirección del viento	6.44
68287	7	Sololá	704	Santa Lucía Utatlán 	7	Santa Rita 	1	Enero	2023-02-01T00:00:00	2024-11-08T10:00:00	1	Precipitación	0
68288	7	Sololá	704	Santa Lucía Utatlán 	7	Santa Rita 	1	Enero	2023-02-01T00:00:00	2024-11-08T10:00:00	8	Radiación solar	492
68289	7	Sololá	704	Santa Lucía Utatlán 	7	Santa Rita 	1	Enero	2023-02-01T00:00:00	2024-11-08T11:00:00	2	Temperatura media	21.7
68290	7	Sololá	704	Santa Lucía Utatlán 	7	Santa Rita 	1	Enero	2023-02-01T00:00:00	2024-11-08T11:00:00	4	Temperatura máxima	21.8
68291	7	Sololá	704	Santa Lucía Utatlán 	7	Santa Rita 	1	Enero	2023-02-01T00:00:00	2024-11-08T11:00:00	3	Temperatura mínima	21.2
68292	7	Sololá	704	Santa Lucía Utatlán 	7	Santa Rita 	1	Enero	2023-02-01T00:00:00	2024-11-08T11:00:00	5	Humedad	66
68293	7	Sololá	704	Santa Lucía Utatlán 	7	Santa Rita 	1	Enero	2023-02-01T00:00:00	2024-11-08T11:00:00	6	Velocidad del viento	4.8
68294	7	Sololá	704	Santa Lucía Utatlán 	7	Santa Rita 	1	Enero	2023-02-01T00:00:00	2024-11-08T11:00:00	7	Dirección del viento	4.83
68295	7	Sololá	704	Santa Lucía Utatlán 	7	Santa Rita 	1	Enero	2023-02-01T00:00:00	2024-11-08T11:00:00	1	Precipitación	0
68296	7	Sololá	704	Santa Lucía Utatlán 	7	Santa Rita 	1	Enero	2023-02-01T00:00:00	2024-11-08T11:00:00	8	Radiación solar	468
68297	7	Sololá	704	Santa Lucía Utatlán 	7	Santa Rita 	1	Enero	2023-02-01T00:00:00	2024-11-08T12:00:00	2	Temperatura media	23.2
68298	7	Sololá	704	Santa Lucía Utatlán 	7	Santa Rita 	1	Enero	2023-02-01T00:00:00	2024-11-08T12:00:00	4	Temperatura máxima	23.4
68299	7	Sololá	704	Santa Lucía Utatlán 	7	Santa Rita 	1	Enero	2023-02-01T00:00:00	2024-11-08T12:00:00	3	Temperatura mínima	21.7
68300	7	Sololá	704	Santa Lucía Utatlán 	7	Santa Rita 	1	Enero	2023-02-01T00:00:00	2024-11-08T12:00:00	5	Humedad	54
68301	7	Sololá	704	Santa Lucía Utatlán 	7	Santa Rita 	1	Enero	2023-02-01T00:00:00	2024-11-08T12:00:00	6	Velocidad del viento	6.4
68302	7	Sololá	704	Santa Lucía Utatlán 	7	Santa Rita 	1	Enero	2023-02-01T00:00:00	2024-11-08T12:00:00	7	Dirección del viento	6.44
68303	7	Sololá	704	Santa Lucía Utatlán 	7	Santa Rita 	1	Enero	2023-02-01T00:00:00	2024-11-08T12:00:00	1	Precipitación	0
68304	7	Sololá	704	Santa Lucía Utatlán 	7	Santa Rita 	1	Enero	2023-02-01T00:00:00	2024-11-08T12:00:00	8	Radiación solar	721
68305	7	Sololá	704	Santa Lucía Utatlán 	7	Santa Rita 	1	Enero	2023-02-01T00:00:00	2024-11-08T13:00:00	2	Temperatura media	23.6
68306	7	Sololá	704	Santa Lucía Utatlán 	7	Santa Rita 	1	Enero	2023-02-01T00:00:00	2024-11-08T13:00:00	4	Temperatura máxima	23.6
68307	7	Sololá	704	Santa Lucía Utatlán 	7	Santa Rita 	1	Enero	2023-02-01T00:00:00	2024-11-08T13:00:00	3	Temperatura mínima	22.8
68308	7	Sololá	704	Santa Lucía Utatlán 	7	Santa Rita 	1	Enero	2023-02-01T00:00:00	2024-11-08T13:00:00	5	Humedad	57
68309	7	Sololá	704	Santa Lucía Utatlán 	7	Santa Rita 	1	Enero	2023-02-01T00:00:00	2024-11-08T13:00:00	6	Velocidad del viento	8
68310	7	Sololá	704	Santa Lucía Utatlán 	7	Santa Rita 	1	Enero	2023-02-01T00:00:00	2024-11-08T13:00:00	7	Dirección del viento	8.05
68311	7	Sololá	704	Santa Lucía Utatlán 	7	Santa Rita 	1	Enero	2023-02-01T00:00:00	2024-11-08T13:00:00	1	Precipitación	0
68312	7	Sololá	704	Santa Lucía Utatlán 	7	Santa Rita 	1	Enero	2023-02-01T00:00:00	2024-11-08T13:00:00	8	Radiación solar	697
68313	7	Sololá	704	Santa Lucía Utatlán 	7	Santa Rita 	1	Enero	2023-02-01T00:00:00	2024-11-08T14:00:00	2	Temperatura media	23.3
68314	7	Sololá	704	Santa Lucía Utatlán 	7	Santa Rita 	1	Enero	2023-02-01T00:00:00	2024-11-08T14:00:00	4	Temperatura máxima	23.9
68315	7	Sololá	704	Santa Lucía Utatlán 	7	Santa Rita 	1	Enero	2023-02-01T00:00:00	2024-11-08T14:00:00	3	Temperatura mínima	23.3
68316	7	Sololá	704	Santa Lucía Utatlán 	7	Santa Rita 	1	Enero	2023-02-01T00:00:00	2024-11-08T14:00:00	5	Humedad	64
68317	7	Sololá	704	Santa Lucía Utatlán 	7	Santa Rita 	1	Enero	2023-02-01T00:00:00	2024-11-08T14:00:00	6	Velocidad del viento	6.4
68318	7	Sololá	704	Santa Lucía Utatlán 	7	Santa Rita 	1	Enero	2023-02-01T00:00:00	2024-11-08T14:00:00	7	Dirección del viento	6.44
68319	7	Sololá	704	Santa Lucía Utatlán 	7	Santa Rita 	1	Enero	2023-02-01T00:00:00	2024-11-08T14:00:00	1	Precipitación	0
68320	7	Sololá	704	Santa Lucía Utatlán 	7	Santa Rita 	1	Enero	2023-02-01T00:00:00	2024-11-08T14:00:00	8	Radiación solar	746
68321	7	Sololá	704	Santa Lucía Utatlán 	7	Santa Rita 	1	Enero	2023-02-01T00:00:00	2024-11-08T15:00:00	2	Temperatura media	22.6
68322	7	Sololá	704	Santa Lucía Utatlán 	7	Santa Rita 	1	Enero	2023-02-01T00:00:00	2024-11-08T15:00:00	4	Temperatura máxima	23.6
68323	7	Sololá	704	Santa Lucía Utatlán 	7	Santa Rita 	1	Enero	2023-02-01T00:00:00	2024-11-08T15:00:00	3	Temperatura mínima	22.2
68324	7	Sololá	704	Santa Lucía Utatlán 	7	Santa Rita 	1	Enero	2023-02-01T00:00:00	2024-11-08T15:00:00	5	Humedad	70
68325	7	Sololá	704	Santa Lucía Utatlán 	7	Santa Rita 	1	Enero	2023-02-01T00:00:00	2024-11-08T15:00:00	6	Velocidad del viento	6.4
68326	7	Sololá	704	Santa Lucía Utatlán 	7	Santa Rita 	1	Enero	2023-02-01T00:00:00	2024-11-08T15:00:00	7	Dirección del viento	6.44
68327	7	Sololá	704	Santa Lucía Utatlán 	7	Santa Rita 	1	Enero	2023-02-01T00:00:00	2024-11-08T15:00:00	1	Precipitación	0
68328	7	Sololá	704	Santa Lucía Utatlán 	7	Santa Rita 	1	Enero	2023-02-01T00:00:00	2024-11-08T15:00:00	8	Radiación solar	461
68329	7	Sololá	704	Santa Lucía Utatlán 	7	Santa Rita 	1	Enero	2023-02-01T00:00:00	2024-11-08T16:00:00	2	Temperatura media	21.3
68330	7	Sololá	704	Santa Lucía Utatlán 	7	Santa Rita 	1	Enero	2023-02-01T00:00:00	2024-11-08T16:00:00	4	Temperatura máxima	22.5
68331	7	Sololá	704	Santa Lucía Utatlán 	7	Santa Rita 	1	Enero	2023-02-01T00:00:00	2024-11-08T16:00:00	3	Temperatura mínima	21.3
68332	7	Sololá	704	Santa Lucía Utatlán 	7	Santa Rita 	1	Enero	2023-02-01T00:00:00	2024-11-08T16:00:00	5	Humedad	77
68333	7	Sololá	704	Santa Lucía Utatlán 	7	Santa Rita 	1	Enero	2023-02-01T00:00:00	2024-11-08T16:00:00	6	Velocidad del viento	6.4
68334	7	Sololá	704	Santa Lucía Utatlán 	7	Santa Rita 	1	Enero	2023-02-01T00:00:00	2024-11-08T16:00:00	7	Dirección del viento	6.44
68335	7	Sololá	704	Santa Lucía Utatlán 	7	Santa Rita 	1	Enero	2023-02-01T00:00:00	2024-11-08T16:00:00	1	Precipitación	0
68336	7	Sololá	704	Santa Lucía Utatlán 	7	Santa Rita 	1	Enero	2023-02-01T00:00:00	2024-11-08T16:00:00	8	Radiación solar	384
68337	7	Sololá	704	Santa Lucía Utatlán 	7	Santa Rita 	1	Enero	2023-02-01T00:00:00	2024-11-08T17:00:00	2	Temperatura media	19.8
68338	7	Sololá	704	Santa Lucía Utatlán 	7	Santa Rita 	1	Enero	2023-02-01T00:00:00	2024-11-08T17:00:00	4	Temperatura máxima	21.3
68339	7	Sololá	704	Santa Lucía Utatlán 	7	Santa Rita 	1	Enero	2023-02-01T00:00:00	2024-11-08T17:00:00	3	Temperatura mínima	19.8
68340	7	Sololá	704	Santa Lucía Utatlán 	7	Santa Rita 	1	Enero	2023-02-01T00:00:00	2024-11-08T17:00:00	5	Humedad	85
68341	7	Sololá	704	Santa Lucía Utatlán 	7	Santa Rita 	1	Enero	2023-02-01T00:00:00	2024-11-08T17:00:00	6	Velocidad del viento	4.8
68342	7	Sololá	704	Santa Lucía Utatlán 	7	Santa Rita 	1	Enero	2023-02-01T00:00:00	2024-11-08T17:00:00	7	Dirección del viento	4.83
68343	7	Sololá	704	Santa Lucía Utatlán 	7	Santa Rita 	1	Enero	2023-02-01T00:00:00	2024-11-08T17:00:00	1	Precipitación	0
68344	7	Sololá	704	Santa Lucía Utatlán 	7	Santa Rita 	1	Enero	2023-02-01T00:00:00	2024-11-08T17:00:00	8	Radiación solar	102
68345	7	Sololá	704	Santa Lucía Utatlán 	7	Santa Rita 	1	Enero	2023-02-01T00:00:00	2024-11-08T18:00:00	2	Temperatura media	18.9
68346	7	Sololá	704	Santa Lucía Utatlán 	7	Santa Rita 	1	Enero	2023-02-01T00:00:00	2024-11-08T18:00:00	4	Temperatura máxima	19.8
68347	7	Sololá	704	Santa Lucía Utatlán 	7	Santa Rita 	1	Enero	2023-02-01T00:00:00	2024-11-08T18:00:00	3	Temperatura mínima	18.9
68348	7	Sololá	704	Santa Lucía Utatlán 	7	Santa Rita 	1	Enero	2023-02-01T00:00:00	2024-11-08T18:00:00	5	Humedad	88
68349	7	Sololá	704	Santa Lucía Utatlán 	7	Santa Rita 	1	Enero	2023-02-01T00:00:00	2024-11-08T18:00:00	6	Velocidad del viento	3.2
68350	7	Sololá	704	Santa Lucía Utatlán 	7	Santa Rita 	1	Enero	2023-02-01T00:00:00	2024-11-08T18:00:00	7	Dirección del viento	3.22
68351	7	Sololá	704	Santa Lucía Utatlán 	7	Santa Rita 	1	Enero	2023-02-01T00:00:00	2024-11-08T18:00:00	1	Precipitación	0
68352	7	Sololá	704	Santa Lucía Utatlán 	7	Santa Rita 	1	Enero	2023-02-01T00:00:00	2024-11-08T18:00:00	8	Radiación solar	11
68353	7	Sololá	704	Santa Lucía Utatlán 	7	Santa Rita 	1	Enero	2023-02-01T00:00:00	2024-11-08T19:00:00	2	Temperatura media	16.8
68354	7	Sololá	704	Santa Lucía Utatlán 	7	Santa Rita 	1	Enero	2023-02-01T00:00:00	2024-11-08T19:00:00	4	Temperatura máxima	18.9
68355	7	Sololá	704	Santa Lucía Utatlán 	7	Santa Rita 	1	Enero	2023-02-01T00:00:00	2024-11-08T19:00:00	3	Temperatura mínima	16.8
68356	7	Sololá	704	Santa Lucía Utatlán 	7	Santa Rita 	1	Enero	2023-02-01T00:00:00	2024-11-08T19:00:00	5	Humedad	85
68357	7	Sololá	704	Santa Lucía Utatlán 	7	Santa Rita 	1	Enero	2023-02-01T00:00:00	2024-11-08T19:00:00	6	Velocidad del viento	3.2
68358	7	Sololá	704	Santa Lucía Utatlán 	7	Santa Rita 	1	Enero	2023-02-01T00:00:00	2024-11-08T19:00:00	7	Dirección del viento	3.22
68359	7	Sololá	704	Santa Lucía Utatlán 	7	Santa Rita 	1	Enero	2023-02-01T00:00:00	2024-11-08T19:00:00	1	Precipitación	0
68360	7	Sololá	704	Santa Lucía Utatlán 	7	Santa Rita 	1	Enero	2023-02-01T00:00:00	2024-11-08T19:00:00	8	Radiación solar	0
68361	7	Sololá	704	Santa Lucía Utatlán 	7	Santa Rita 	1	Enero	2023-02-01T00:00:00	2024-11-08T20:00:00	2	Temperatura media	16.1
68362	7	Sololá	704	Santa Lucía Utatlán 	7	Santa Rita 	1	Enero	2023-02-01T00:00:00	2024-11-08T20:00:00	4	Temperatura máxima	16.8
68363	7	Sololá	704	Santa Lucía Utatlán 	7	Santa Rita 	1	Enero	2023-02-01T00:00:00	2024-11-08T20:00:00	3	Temperatura mínima	16.1
68364	7	Sololá	704	Santa Lucía Utatlán 	7	Santa Rita 	1	Enero	2023-02-01T00:00:00	2024-11-08T20:00:00	5	Humedad	84
68365	7	Sololá	704	Santa Lucía Utatlán 	7	Santa Rita 	1	Enero	2023-02-01T00:00:00	2024-11-08T20:00:00	6	Velocidad del viento	4.8
68366	7	Sololá	704	Santa Lucía Utatlán 	7	Santa Rita 	1	Enero	2023-02-01T00:00:00	2024-11-08T20:00:00	7	Dirección del viento	4.83
68367	7	Sololá	704	Santa Lucía Utatlán 	7	Santa Rita 	1	Enero	2023-02-01T00:00:00	2024-11-08T20:00:00	1	Precipitación	0
68368	7	Sololá	704	Santa Lucía Utatlán 	7	Santa Rita 	1	Enero	2023-02-01T00:00:00	2024-11-08T20:00:00	8	Radiación solar	0
68369	7	Sololá	704	Santa Lucía Utatlán 	7	Santa Rita 	1	Enero	2023-02-01T00:00:00	2024-11-08T21:00:00	2	Temperatura media	15.6
68370	7	Sololá	704	Santa Lucía Utatlán 	7	Santa Rita 	1	Enero	2023-02-01T00:00:00	2024-11-08T21:00:00	4	Temperatura máxima	16.2
68371	7	Sololá	704	Santa Lucía Utatlán 	7	Santa Rita 	1	Enero	2023-02-01T00:00:00	2024-11-08T21:00:00	3	Temperatura mínima	15.6
68372	7	Sololá	704	Santa Lucía Utatlán 	7	Santa Rita 	1	Enero	2023-02-01T00:00:00	2024-11-08T21:00:00	5	Humedad	83
68373	7	Sololá	704	Santa Lucía Utatlán 	7	Santa Rita 	1	Enero	2023-02-01T00:00:00	2024-11-08T21:00:00	6	Velocidad del viento	4.8
68374	7	Sololá	704	Santa Lucía Utatlán 	7	Santa Rita 	1	Enero	2023-02-01T00:00:00	2024-11-08T21:00:00	7	Dirección del viento	4.83
68375	7	Sololá	704	Santa Lucía Utatlán 	7	Santa Rita 	1	Enero	2023-02-01T00:00:00	2024-11-08T21:00:00	1	Precipitación	0
68376	7	Sololá	704	Santa Lucía Utatlán 	7	Santa Rita 	1	Enero	2023-02-01T00:00:00	2024-11-08T21:00:00	8	Radiación solar	0
68377	7	Sololá	704	Santa Lucía Utatlán 	7	Santa Rita 	1	Enero	2023-02-01T00:00:00	2024-11-08T22:00:00	2	Temperatura media	15.2
68378	7	Sololá	704	Santa Lucía Utatlán 	7	Santa Rita 	1	Enero	2023-02-01T00:00:00	2024-11-08T22:00:00	4	Temperatura máxima	15.7
68379	7	Sololá	704	Santa Lucía Utatlán 	7	Santa Rita 	1	Enero	2023-02-01T00:00:00	2024-11-08T22:00:00	3	Temperatura mínima	15.1
68380	7	Sololá	704	Santa Lucía Utatlán 	7	Santa Rita 	1	Enero	2023-02-01T00:00:00	2024-11-08T22:00:00	5	Humedad	75
68381	7	Sololá	704	Santa Lucía Utatlán 	7	Santa Rita 	1	Enero	2023-02-01T00:00:00	2024-11-08T22:00:00	6	Velocidad del viento	4.8
68382	7	Sololá	704	Santa Lucía Utatlán 	7	Santa Rita 	1	Enero	2023-02-01T00:00:00	2024-11-08T22:00:00	7	Dirección del viento	4.83
68383	7	Sololá	704	Santa Lucía Utatlán 	7	Santa Rita 	1	Enero	2023-02-01T00:00:00	2024-11-08T22:00:00	1	Precipitación	0
68384	7	Sololá	704	Santa Lucía Utatlán 	7	Santa Rita 	1	Enero	2023-02-01T00:00:00	2024-11-08T22:00:00	8	Radiación solar	0
68385	7	Sololá	704	Santa Lucía Utatlán 	7	Santa Rita 	1	Enero	2023-02-01T00:00:00	2024-11-08T23:00:00	2	Temperatura media	14.8
68386	7	Sololá	704	Santa Lucía Utatlán 	7	Santa Rita 	1	Enero	2023-02-01T00:00:00	2024-11-08T23:00:00	4	Temperatura máxima	15.2
68387	7	Sololá	704	Santa Lucía Utatlán 	7	Santa Rita 	1	Enero	2023-02-01T00:00:00	2024-11-08T23:00:00	3	Temperatura mínima	14.7
68388	7	Sololá	704	Santa Lucía Utatlán 	7	Santa Rita 	1	Enero	2023-02-01T00:00:00	2024-11-08T23:00:00	5	Humedad	75
68389	7	Sololá	704	Santa Lucía Utatlán 	7	Santa Rita 	1	Enero	2023-02-01T00:00:00	2024-11-08T23:00:00	6	Velocidad del viento	4.8
68390	7	Sololá	704	Santa Lucía Utatlán 	7	Santa Rita 	1	Enero	2023-02-01T00:00:00	2024-11-08T23:00:00	7	Dirección del viento	4.83
68391	7	Sololá	704	Santa Lucía Utatlán 	7	Santa Rita 	1	Enero	2023-02-01T00:00:00	2024-11-08T23:00:00	1	Precipitación	0
68392	7	Sololá	704	Santa Lucía Utatlán 	7	Santa Rita 	1	Enero	2023-02-01T00:00:00	2024-11-08T23:00:00	8	Radiación solar	0
68393	7	Sololá	704	Santa Lucía Utatlán 	7	Santa Rita 	1	Enero	2023-03-01T00:00:00	2024-11-08T00:00:00	2	Temperatura media	15.1
68394	7	Sololá	704	Santa Lucía Utatlán 	7	Santa Rita 	1	Enero	2023-03-01T00:00:00	2024-11-08T00:00:00	4	Temperatura máxima	15.1
68395	7	Sololá	704	Santa Lucía Utatlán 	7	Santa Rita 	1	Enero	2023-03-01T00:00:00	2024-11-08T00:00:00	3	Temperatura mínima	14.7
68396	7	Sololá	704	Santa Lucía Utatlán 	7	Santa Rita 	1	Enero	2023-03-01T00:00:00	2024-11-08T00:00:00	5	Humedad	79
68397	7	Sololá	704	Santa Lucía Utatlán 	7	Santa Rita 	1	Enero	2023-03-01T00:00:00	2024-11-08T00:00:00	6	Velocidad del viento	4.8
68398	7	Sololá	704	Santa Lucía Utatlán 	7	Santa Rita 	1	Enero	2023-03-01T00:00:00	2024-11-08T00:00:00	7	Dirección del viento	4.83
68399	7	Sololá	704	Santa Lucía Utatlán 	7	Santa Rita 	1	Enero	2023-03-01T00:00:00	2024-11-08T00:00:00	1	Precipitación	0
68400	7	Sololá	704	Santa Lucía Utatlán 	7	Santa Rita 	1	Enero	2023-03-01T00:00:00	2024-11-08T00:00:00	8	Radiación solar	0
68401	7	Sololá	704	Santa Lucía Utatlán 	7	Santa Rita 	1	Enero	2023-03-01T00:00:00	2024-11-08T01:00:00	2	Temperatura media	14.8
68402	7	Sololá	704	Santa Lucía Utatlán 	7	Santa Rita 	1	Enero	2023-03-01T00:00:00	2024-11-08T01:00:00	4	Temperatura máxima	15.2
68403	7	Sololá	704	Santa Lucía Utatlán 	7	Santa Rita 	1	Enero	2023-03-01T00:00:00	2024-11-08T01:00:00	3	Temperatura mínima	14.8
68404	7	Sololá	704	Santa Lucía Utatlán 	7	Santa Rita 	1	Enero	2023-03-01T00:00:00	2024-11-08T01:00:00	5	Humedad	79
68405	7	Sololá	704	Santa Lucía Utatlán 	7	Santa Rita 	1	Enero	2023-03-01T00:00:00	2024-11-08T01:00:00	6	Velocidad del viento	6.4
68406	7	Sololá	704	Santa Lucía Utatlán 	7	Santa Rita 	1	Enero	2023-03-01T00:00:00	2024-11-08T01:00:00	7	Dirección del viento	6.44
68407	7	Sololá	704	Santa Lucía Utatlán 	7	Santa Rita 	1	Enero	2023-03-01T00:00:00	2024-11-08T01:00:00	1	Precipitación	0
68408	7	Sololá	704	Santa Lucía Utatlán 	7	Santa Rita 	1	Enero	2023-03-01T00:00:00	2024-11-08T01:00:00	8	Radiación solar	0
68409	7	Sololá	704	Santa Lucía Utatlán 	7	Santa Rita 	1	Enero	2023-03-01T00:00:00	2024-11-08T02:00:00	2	Temperatura media	15.7
68410	7	Sololá	704	Santa Lucía Utatlán 	7	Santa Rita 	1	Enero	2023-03-01T00:00:00	2024-11-08T02:00:00	4	Temperatura máxima	15.8
68411	7	Sololá	704	Santa Lucía Utatlán 	7	Santa Rita 	1	Enero	2023-03-01T00:00:00	2024-11-08T02:00:00	3	Temperatura mínima	14.7
68412	7	Sololá	704	Santa Lucía Utatlán 	7	Santa Rita 	1	Enero	2023-03-01T00:00:00	2024-11-08T02:00:00	5	Humedad	72
68413	7	Sololá	704	Santa Lucía Utatlán 	7	Santa Rita 	1	Enero	2023-03-01T00:00:00	2024-11-08T02:00:00	6	Velocidad del viento	4.8
68414	7	Sololá	704	Santa Lucía Utatlán 	7	Santa Rita 	1	Enero	2023-03-01T00:00:00	2024-11-08T02:00:00	7	Dirección del viento	4.83
68415	7	Sololá	704	Santa Lucía Utatlán 	7	Santa Rita 	1	Enero	2023-03-01T00:00:00	2024-11-08T02:00:00	1	Precipitación	0
68416	7	Sololá	704	Santa Lucía Utatlán 	7	Santa Rita 	1	Enero	2023-03-01T00:00:00	2024-11-08T02:00:00	8	Radiación solar	0
68417	7	Sololá	704	Santa Lucía Utatlán 	7	Santa Rita 	1	Enero	2023-03-01T00:00:00	2024-11-08T03:00:00	2	Temperatura media	15.1
68418	7	Sololá	704	Santa Lucía Utatlán 	7	Santa Rita 	1	Enero	2023-03-01T00:00:00	2024-11-08T03:00:00	4	Temperatura máxima	15.7
68419	7	Sololá	704	Santa Lucía Utatlán 	7	Santa Rita 	1	Enero	2023-03-01T00:00:00	2024-11-08T03:00:00	3	Temperatura mínima	15.1
68420	7	Sololá	704	Santa Lucía Utatlán 	7	Santa Rita 	1	Enero	2023-03-01T00:00:00	2024-11-08T03:00:00	5	Humedad	73
68421	7	Sololá	704	Santa Lucía Utatlán 	7	Santa Rita 	1	Enero	2023-03-01T00:00:00	2024-11-08T03:00:00	6	Velocidad del viento	3.2
68422	7	Sololá	704	Santa Lucía Utatlán 	7	Santa Rita 	1	Enero	2023-03-01T00:00:00	2024-11-08T03:00:00	7	Dirección del viento	3.22
68423	7	Sololá	704	Santa Lucía Utatlán 	7	Santa Rita 	1	Enero	2023-03-01T00:00:00	2024-11-08T03:00:00	1	Precipitación	0
68424	7	Sololá	704	Santa Lucía Utatlán 	7	Santa Rita 	1	Enero	2023-03-01T00:00:00	2024-11-08T03:00:00	8	Radiación solar	0
68425	7	Sololá	704	Santa Lucía Utatlán 	7	Santa Rita 	1	Enero	2023-03-01T00:00:00	2024-11-08T04:00:00	2	Temperatura media	14.7
68426	7	Sololá	704	Santa Lucía Utatlán 	7	Santa Rita 	1	Enero	2023-03-01T00:00:00	2024-11-08T04:00:00	4	Temperatura máxima	15.1
68427	7	Sololá	704	Santa Lucía Utatlán 	7	Santa Rita 	1	Enero	2023-03-01T00:00:00	2024-11-08T04:00:00	3	Temperatura mínima	14.7
68428	7	Sololá	704	Santa Lucía Utatlán 	7	Santa Rita 	1	Enero	2023-03-01T00:00:00	2024-11-08T04:00:00	5	Humedad	76
68429	7	Sololá	704	Santa Lucía Utatlán 	7	Santa Rita 	1	Enero	2023-03-01T00:00:00	2024-11-08T04:00:00	6	Velocidad del viento	4.8
68430	7	Sololá	704	Santa Lucía Utatlán 	7	Santa Rita 	1	Enero	2023-03-01T00:00:00	2024-11-08T04:00:00	7	Dirección del viento	4.83
68431	7	Sololá	704	Santa Lucía Utatlán 	7	Santa Rita 	1	Enero	2023-03-01T00:00:00	2024-11-08T04:00:00	1	Precipitación	0
68432	7	Sololá	704	Santa Lucía Utatlán 	7	Santa Rita 	1	Enero	2023-03-01T00:00:00	2024-11-08T04:00:00	8	Radiación solar	0
68433	7	Sololá	704	Santa Lucía Utatlán 	7	Santa Rita 	1	Enero	2023-03-01T00:00:00	2024-11-08T05:00:00	2	Temperatura media	14.3
68434	7	Sololá	704	Santa Lucía Utatlán 	7	Santa Rita 	1	Enero	2023-03-01T00:00:00	2024-11-08T05:00:00	4	Temperatura máxima	14.8
68435	7	Sololá	704	Santa Lucía Utatlán 	7	Santa Rita 	1	Enero	2023-03-01T00:00:00	2024-11-08T05:00:00	3	Temperatura mínima	14.2
68436	7	Sololá	704	Santa Lucía Utatlán 	7	Santa Rita 	1	Enero	2023-03-01T00:00:00	2024-11-08T05:00:00	5	Humedad	75
68437	7	Sololá	704	Santa Lucía Utatlán 	7	Santa Rita 	1	Enero	2023-03-01T00:00:00	2024-11-08T05:00:00	6	Velocidad del viento	6.4
68438	7	Sololá	704	Santa Lucía Utatlán 	7	Santa Rita 	1	Enero	2023-03-01T00:00:00	2024-11-08T05:00:00	7	Dirección del viento	6.44
68439	7	Sololá	704	Santa Lucía Utatlán 	7	Santa Rita 	1	Enero	2023-03-01T00:00:00	2024-11-08T05:00:00	1	Precipitación	0
68440	7	Sololá	704	Santa Lucía Utatlán 	7	Santa Rita 	1	Enero	2023-03-01T00:00:00	2024-11-08T05:00:00	8	Radiación solar	0
68441	7	Sololá	704	Santa Lucía Utatlán 	7	Santa Rita 	1	Enero	2023-03-01T00:00:00	2024-11-08T06:00:00	2	Temperatura media	14.1
68442	7	Sololá	704	Santa Lucía Utatlán 	7	Santa Rita 	1	Enero	2023-03-01T00:00:00	2024-11-08T06:00:00	4	Temperatura máxima	14.4
68443	7	Sololá	704	Santa Lucía Utatlán 	7	Santa Rita 	1	Enero	2023-03-01T00:00:00	2024-11-08T06:00:00	3	Temperatura mínima	13.9
68444	7	Sololá	704	Santa Lucía Utatlán 	7	Santa Rita 	1	Enero	2023-03-01T00:00:00	2024-11-08T06:00:00	5	Humedad	72
68445	7	Sololá	704	Santa Lucía Utatlán 	7	Santa Rita 	1	Enero	2023-03-01T00:00:00	2024-11-08T06:00:00	6	Velocidad del viento	6.4
68446	7	Sololá	704	Santa Lucía Utatlán 	7	Santa Rita 	1	Enero	2023-03-01T00:00:00	2024-11-08T06:00:00	7	Dirección del viento	6.44
68447	7	Sololá	704	Santa Lucía Utatlán 	7	Santa Rita 	1	Enero	2023-03-01T00:00:00	2024-11-08T06:00:00	1	Precipitación	0
68448	7	Sololá	704	Santa Lucía Utatlán 	7	Santa Rita 	1	Enero	2023-03-01T00:00:00	2024-11-08T06:00:00	8	Radiación solar	0
68449	7	Sololá	704	Santa Lucía Utatlán 	7	Santa Rita 	1	Enero	2023-03-01T00:00:00	2024-11-08T07:00:00	2	Temperatura media	14.9
68450	7	Sololá	704	Santa Lucía Utatlán 	7	Santa Rita 	1	Enero	2023-03-01T00:00:00	2024-11-08T07:00:00	4	Temperatura máxima	15.1
68451	7	Sololá	704	Santa Lucía Utatlán 	7	Santa Rita 	1	Enero	2023-03-01T00:00:00	2024-11-08T07:00:00	3	Temperatura mínima	14.1
68452	7	Sololá	704	Santa Lucía Utatlán 	7	Santa Rita 	1	Enero	2023-03-01T00:00:00	2024-11-08T07:00:00	5	Humedad	78
68453	7	Sololá	704	Santa Lucía Utatlán 	7	Santa Rita 	1	Enero	2023-03-01T00:00:00	2024-11-08T07:00:00	6	Velocidad del viento	3.2
68454	7	Sololá	704	Santa Lucía Utatlán 	7	Santa Rita 	1	Enero	2023-03-01T00:00:00	2024-11-08T07:00:00	7	Dirección del viento	3.22
68455	7	Sololá	704	Santa Lucía Utatlán 	7	Santa Rita 	1	Enero	2023-03-01T00:00:00	2024-11-08T07:00:00	1	Precipitación	0
68456	7	Sololá	704	Santa Lucía Utatlán 	7	Santa Rita 	1	Enero	2023-03-01T00:00:00	2024-11-08T07:00:00	8	Radiación solar	8
68457	7	Sololá	704	Santa Lucía Utatlán 	7	Santa Rita 	1	Enero	2023-03-01T00:00:00	2024-11-08T08:00:00	2	Temperatura media	19.3
68458	7	Sololá	704	Santa Lucía Utatlán 	7	Santa Rita 	1	Enero	2023-03-01T00:00:00	2024-11-08T08:00:00	4	Temperatura máxima	19.3
68459	7	Sololá	704	Santa Lucía Utatlán 	7	Santa Rita 	1	Enero	2023-03-01T00:00:00	2024-11-08T08:00:00	3	Temperatura mínima	14.9
68460	7	Sololá	704	Santa Lucía Utatlán 	7	Santa Rita 	1	Enero	2023-03-01T00:00:00	2024-11-08T08:00:00	5	Humedad	70
68461	7	Sololá	704	Santa Lucía Utatlán 	7	Santa Rita 	1	Enero	2023-03-01T00:00:00	2024-11-08T08:00:00	6	Velocidad del viento	1.6
68462	7	Sololá	704	Santa Lucía Utatlán 	7	Santa Rita 	1	Enero	2023-03-01T00:00:00	2024-11-08T08:00:00	7	Dirección del viento	1.61
68463	7	Sololá	704	Santa Lucía Utatlán 	7	Santa Rita 	1	Enero	2023-03-01T00:00:00	2024-11-08T08:00:00	1	Precipitación	0
68464	7	Sololá	704	Santa Lucía Utatlán 	7	Santa Rita 	1	Enero	2023-03-01T00:00:00	2024-11-08T08:00:00	8	Radiación solar	119
68465	7	Sololá	704	Santa Lucía Utatlán 	7	Santa Rita 	1	Enero	2023-03-01T00:00:00	2024-11-08T09:00:00	2	Temperatura media	22.5
68466	7	Sololá	704	Santa Lucía Utatlán 	7	Santa Rita 	1	Enero	2023-03-01T00:00:00	2024-11-08T09:00:00	4	Temperatura máxima	22.5
68467	7	Sololá	704	Santa Lucía Utatlán 	7	Santa Rita 	1	Enero	2023-03-01T00:00:00	2024-11-08T09:00:00	3	Temperatura mínima	19.3
68468	7	Sololá	704	Santa Lucía Utatlán 	7	Santa Rita 	1	Enero	2023-03-01T00:00:00	2024-11-08T09:00:00	5	Humedad	55
68469	7	Sololá	704	Santa Lucía Utatlán 	7	Santa Rita 	1	Enero	2023-03-01T00:00:00	2024-11-08T09:00:00	6	Velocidad del viento	1.6
68470	7	Sololá	704	Santa Lucía Utatlán 	7	Santa Rita 	1	Enero	2023-03-01T00:00:00	2024-11-08T09:00:00	7	Dirección del viento	1.61
68471	7	Sololá	704	Santa Lucía Utatlán 	7	Santa Rita 	1	Enero	2023-03-01T00:00:00	2024-11-08T09:00:00	1	Precipitación	0
68472	7	Sololá	704	Santa Lucía Utatlán 	7	Santa Rita 	1	Enero	2023-03-01T00:00:00	2024-11-08T09:00:00	8	Radiación solar	268
68473	7	Sololá	704	Santa Lucía Utatlán 	7	Santa Rita 	1	Enero	2023-03-01T00:00:00	2024-11-08T10:00:00	2	Temperatura media	23.7
68474	7	Sololá	704	Santa Lucía Utatlán 	7	Santa Rita 	1	Enero	2023-03-01T00:00:00	2024-11-08T10:00:00	4	Temperatura máxima	23.7
68475	7	Sololá	704	Santa Lucía Utatlán 	7	Santa Rita 	1	Enero	2023-03-01T00:00:00	2024-11-08T10:00:00	3	Temperatura mínima	22.4
68476	7	Sololá	704	Santa Lucía Utatlán 	7	Santa Rita 	1	Enero	2023-03-01T00:00:00	2024-11-08T10:00:00	5	Humedad	48
68477	7	Sololá	704	Santa Lucía Utatlán 	7	Santa Rita 	1	Enero	2023-03-01T00:00:00	2024-11-08T10:00:00	6	Velocidad del viento	4.8
68478	7	Sololá	704	Santa Lucía Utatlán 	7	Santa Rita 	1	Enero	2023-03-01T00:00:00	2024-11-08T10:00:00	7	Dirección del viento	4.83
68479	7	Sololá	704	Santa Lucía Utatlán 	7	Santa Rita 	1	Enero	2023-03-01T00:00:00	2024-11-08T10:00:00	1	Precipitación	0
68480	7	Sololá	704	Santa Lucía Utatlán 	7	Santa Rita 	1	Enero	2023-03-01T00:00:00	2024-11-08T10:00:00	8	Radiación solar	573
68481	7	Sololá	704	Santa Lucía Utatlán 	7	Santa Rita 	1	Enero	2023-03-01T00:00:00	2024-11-08T11:00:00	2	Temperatura media	23.5
68482	7	Sololá	704	Santa Lucía Utatlán 	7	Santa Rita 	1	Enero	2023-03-01T00:00:00	2024-11-08T11:00:00	4	Temperatura máxima	24.6
68483	7	Sololá	704	Santa Lucía Utatlán 	7	Santa Rita 	1	Enero	2023-03-01T00:00:00	2024-11-08T11:00:00	3	Temperatura mínima	23.2
68484	7	Sololá	704	Santa Lucía Utatlán 	7	Santa Rita 	1	Enero	2023-03-01T00:00:00	2024-11-08T11:00:00	5	Humedad	57
68485	7	Sololá	704	Santa Lucía Utatlán 	7	Santa Rita 	1	Enero	2023-03-01T00:00:00	2024-11-08T11:00:00	6	Velocidad del viento	4.8
68486	7	Sololá	704	Santa Lucía Utatlán 	7	Santa Rita 	1	Enero	2023-03-01T00:00:00	2024-11-08T11:00:00	7	Dirección del viento	4.83
68487	7	Sololá	704	Santa Lucía Utatlán 	7	Santa Rita 	1	Enero	2023-03-01T00:00:00	2024-11-08T11:00:00	1	Precipitación	0
68488	7	Sololá	704	Santa Lucía Utatlán 	7	Santa Rita 	1	Enero	2023-03-01T00:00:00	2024-11-08T11:00:00	8	Radiación solar	587
68489	7	Sololá	704	Santa Lucía Utatlán 	7	Santa Rita 	1	Enero	2023-03-01T00:00:00	2024-11-08T12:00:00	2	Temperatura media	23.6
68490	7	Sololá	704	Santa Lucía Utatlán 	7	Santa Rita 	1	Enero	2023-03-01T00:00:00	2024-11-08T12:00:00	4	Temperatura máxima	24
68491	7	Sololá	704	Santa Lucía Utatlán 	7	Santa Rita 	1	Enero	2023-03-01T00:00:00	2024-11-08T12:00:00	3	Temperatura mínima	23.2
68492	7	Sololá	704	Santa Lucía Utatlán 	7	Santa Rita 	1	Enero	2023-03-01T00:00:00	2024-11-08T12:00:00	5	Humedad	53
68493	7	Sololá	704	Santa Lucía Utatlán 	7	Santa Rita 	1	Enero	2023-03-01T00:00:00	2024-11-08T12:00:00	6	Velocidad del viento	6.4
68494	7	Sololá	704	Santa Lucía Utatlán 	7	Santa Rita 	1	Enero	2023-03-01T00:00:00	2024-11-08T12:00:00	7	Dirección del viento	6.44
68495	7	Sololá	704	Santa Lucía Utatlán 	7	Santa Rita 	1	Enero	2023-03-01T00:00:00	2024-11-08T12:00:00	1	Precipitación	0
68496	7	Sololá	704	Santa Lucía Utatlán 	7	Santa Rita 	1	Enero	2023-03-01T00:00:00	2024-11-08T12:00:00	8	Radiación solar	657
68497	7	Sololá	704	Santa Lucía Utatlán 	7	Santa Rita 	1	Enero	2023-03-01T00:00:00	2024-11-08T13:00:00	2	Temperatura media	22.6
68498	7	Sololá	704	Santa Lucía Utatlán 	7	Santa Rita 	1	Enero	2023-03-01T00:00:00	2024-11-08T13:00:00	4	Temperatura máxima	23.6
68499	7	Sololá	704	Santa Lucía Utatlán 	7	Santa Rita 	1	Enero	2023-03-01T00:00:00	2024-11-08T13:00:00	3	Temperatura mínima	22.3
68500	7	Sololá	704	Santa Lucía Utatlán 	7	Santa Rita 	1	Enero	2023-03-01T00:00:00	2024-11-08T13:00:00	5	Humedad	61
68501	7	Sololá	704	Santa Lucía Utatlán 	7	Santa Rita 	1	Enero	2023-03-01T00:00:00	2024-11-08T13:00:00	6	Velocidad del viento	6.4
68502	7	Sololá	704	Santa Lucía Utatlán 	7	Santa Rita 	1	Enero	2023-03-01T00:00:00	2024-11-08T13:00:00	7	Dirección del viento	6.44
68503	7	Sololá	704	Santa Lucía Utatlán 	7	Santa Rita 	1	Enero	2023-03-01T00:00:00	2024-11-08T13:00:00	1	Precipitación	0
68504	7	Sololá	704	Santa Lucía Utatlán 	7	Santa Rita 	1	Enero	2023-03-01T00:00:00	2024-11-08T13:00:00	8	Radiación solar	455
68505	7	Sololá	704	Santa Lucía Utatlán 	7	Santa Rita 	1	Enero	2023-03-01T00:00:00	2024-11-08T14:00:00	2	Temperatura media	25.2
68506	7	Sololá	704	Santa Lucía Utatlán 	7	Santa Rita 	1	Enero	2023-03-01T00:00:00	2024-11-08T14:00:00	4	Temperatura máxima	25.2
68507	7	Sololá	704	Santa Lucía Utatlán 	7	Santa Rita 	1	Enero	2023-03-01T00:00:00	2024-11-08T14:00:00	3	Temperatura mínima	22.6
68508	7	Sololá	704	Santa Lucía Utatlán 	7	Santa Rita 	1	Enero	2023-03-01T00:00:00	2024-11-08T14:00:00	5	Humedad	53
68509	7	Sololá	704	Santa Lucía Utatlán 	7	Santa Rita 	1	Enero	2023-03-01T00:00:00	2024-11-08T14:00:00	6	Velocidad del viento	4.8
68510	7	Sololá	704	Santa Lucía Utatlán 	7	Santa Rita 	1	Enero	2023-03-01T00:00:00	2024-11-08T14:00:00	7	Dirección del viento	4.83
68511	7	Sololá	704	Santa Lucía Utatlán 	7	Santa Rita 	1	Enero	2023-03-01T00:00:00	2024-11-08T14:00:00	1	Precipitación	0
68512	7	Sololá	704	Santa Lucía Utatlán 	7	Santa Rita 	1	Enero	2023-03-01T00:00:00	2024-11-08T14:00:00	8	Radiación solar	702
68513	7	Sololá	704	Santa Lucía Utatlán 	7	Santa Rita 	1	Enero	2023-03-01T00:00:00	2024-11-08T15:00:00	2	Temperatura media	22.6
68514	7	Sololá	704	Santa Lucía Utatlán 	7	Santa Rita 	1	Enero	2023-03-01T00:00:00	2024-11-08T15:00:00	4	Temperatura máxima	25.4
68515	7	Sololá	704	Santa Lucía Utatlán 	7	Santa Rita 	1	Enero	2023-03-01T00:00:00	2024-11-08T15:00:00	3	Temperatura mínima	22.6
68516	7	Sololá	704	Santa Lucía Utatlán 	7	Santa Rita 	1	Enero	2023-03-01T00:00:00	2024-11-08T15:00:00	5	Humedad	66
68517	7	Sololá	704	Santa Lucía Utatlán 	7	Santa Rita 	1	Enero	2023-03-01T00:00:00	2024-11-08T15:00:00	6	Velocidad del viento	6.4
68518	7	Sololá	704	Santa Lucía Utatlán 	7	Santa Rita 	1	Enero	2023-03-01T00:00:00	2024-11-08T15:00:00	7	Dirección del viento	6.44
68519	7	Sololá	704	Santa Lucía Utatlán 	7	Santa Rita 	1	Enero	2023-03-01T00:00:00	2024-11-08T15:00:00	1	Precipitación	0
68520	7	Sololá	704	Santa Lucía Utatlán 	7	Santa Rita 	1	Enero	2023-03-01T00:00:00	2024-11-08T15:00:00	8	Radiación solar	268
68521	7	Sololá	704	Santa Lucía Utatlán 	7	Santa Rita 	1	Enero	2023-03-01T00:00:00	2024-11-08T16:00:00	2	Temperatura media	22.2
68522	7	Sololá	704	Santa Lucía Utatlán 	7	Santa Rita 	1	Enero	2023-03-01T00:00:00	2024-11-08T16:00:00	4	Temperatura máxima	22.9
68523	7	Sololá	704	Santa Lucía Utatlán 	7	Santa Rita 	1	Enero	2023-03-01T00:00:00	2024-11-08T16:00:00	3	Temperatura mínima	22.2
68524	7	Sololá	704	Santa Lucía Utatlán 	7	Santa Rita 	1	Enero	2023-03-01T00:00:00	2024-11-08T16:00:00	5	Humedad	69
68525	7	Sololá	704	Santa Lucía Utatlán 	7	Santa Rita 	1	Enero	2023-03-01T00:00:00	2024-11-08T16:00:00	6	Velocidad del viento	3.2
68526	7	Sololá	704	Santa Lucía Utatlán 	7	Santa Rita 	1	Enero	2023-03-01T00:00:00	2024-11-08T16:00:00	7	Dirección del viento	3.22
68527	7	Sololá	704	Santa Lucía Utatlán 	7	Santa Rita 	1	Enero	2023-03-01T00:00:00	2024-11-08T16:00:00	1	Precipitación	0
68528	7	Sololá	704	Santa Lucía Utatlán 	7	Santa Rita 	1	Enero	2023-03-01T00:00:00	2024-11-08T16:00:00	8	Radiación solar	138
68529	7	Sololá	704	Santa Lucía Utatlán 	7	Santa Rita 	1	Enero	2023-03-01T00:00:00	2024-11-08T17:00:00	2	Temperatura media	20.2
68530	7	Sololá	704	Santa Lucía Utatlán 	7	Santa Rita 	1	Enero	2023-03-01T00:00:00	2024-11-08T17:00:00	4	Temperatura máxima	22.4
68531	7	Sololá	704	Santa Lucía Utatlán 	7	Santa Rita 	1	Enero	2023-03-01T00:00:00	2024-11-08T17:00:00	3	Temperatura mínima	20.2
68532	7	Sololá	704	Santa Lucía Utatlán 	7	Santa Rita 	1	Enero	2023-03-01T00:00:00	2024-11-08T17:00:00	5	Humedad	87
68533	7	Sololá	704	Santa Lucía Utatlán 	7	Santa Rita 	1	Enero	2023-03-01T00:00:00	2024-11-08T17:00:00	6	Velocidad del viento	4.8
68534	7	Sololá	704	Santa Lucía Utatlán 	7	Santa Rita 	1	Enero	2023-03-01T00:00:00	2024-11-08T17:00:00	7	Dirección del viento	4.83
68535	7	Sololá	704	Santa Lucía Utatlán 	7	Santa Rita 	1	Enero	2023-03-01T00:00:00	2024-11-08T17:00:00	1	Precipitación	0
68536	7	Sololá	704	Santa Lucía Utatlán 	7	Santa Rita 	1	Enero	2023-03-01T00:00:00	2024-11-08T17:00:00	8	Radiación solar	103
68537	7	Sololá	704	Santa Lucía Utatlán 	7	Santa Rita 	1	Enero	2023-03-01T00:00:00	2024-11-08T18:00:00	2	Temperatura media	19.3
68538	7	Sololá	704	Santa Lucía Utatlán 	7	Santa Rita 	1	Enero	2023-03-01T00:00:00	2024-11-08T18:00:00	4	Temperatura máxima	20.2
68539	7	Sololá	704	Santa Lucía Utatlán 	7	Santa Rita 	1	Enero	2023-03-01T00:00:00	2024-11-08T18:00:00	3	Temperatura mínima	19.2
68540	7	Sololá	704	Santa Lucía Utatlán 	7	Santa Rita 	1	Enero	2023-03-01T00:00:00	2024-11-08T18:00:00	5	Humedad	87
68541	7	Sololá	704	Santa Lucía Utatlán 	7	Santa Rita 	1	Enero	2023-03-01T00:00:00	2024-11-08T18:00:00	6	Velocidad del viento	3.2
68542	7	Sololá	704	Santa Lucía Utatlán 	7	Santa Rita 	1	Enero	2023-03-01T00:00:00	2024-11-08T18:00:00	7	Dirección del viento	3.22
68543	7	Sololá	704	Santa Lucía Utatlán 	7	Santa Rita 	1	Enero	2023-03-01T00:00:00	2024-11-08T18:00:00	1	Precipitación	0
68544	7	Sololá	704	Santa Lucía Utatlán 	7	Santa Rita 	1	Enero	2023-03-01T00:00:00	2024-11-08T18:00:00	8	Radiación solar	13
68545	7	Sololá	704	Santa Lucía Utatlán 	7	Santa Rita 	1	Enero	2023-03-01T00:00:00	2024-11-08T19:00:00	2	Temperatura media	18.9
68546	7	Sololá	704	Santa Lucía Utatlán 	7	Santa Rita 	1	Enero	2023-03-01T00:00:00	2024-11-08T19:00:00	4	Temperatura máxima	19.3
68547	7	Sololá	704	Santa Lucía Utatlán 	7	Santa Rita 	1	Enero	2023-03-01T00:00:00	2024-11-08T19:00:00	3	Temperatura mínima	18.9
68548	7	Sololá	704	Santa Lucía Utatlán 	7	Santa Rita 	1	Enero	2023-03-01T00:00:00	2024-11-08T19:00:00	5	Humedad	89
68549	7	Sololá	704	Santa Lucía Utatlán 	7	Santa Rita 	1	Enero	2023-03-01T00:00:00	2024-11-08T19:00:00	6	Velocidad del viento	1.6
68550	7	Sololá	704	Santa Lucía Utatlán 	7	Santa Rita 	1	Enero	2023-03-01T00:00:00	2024-11-08T19:00:00	7	Dirección del viento	1.61
68551	7	Sololá	704	Santa Lucía Utatlán 	7	Santa Rita 	1	Enero	2023-03-01T00:00:00	2024-11-08T19:00:00	1	Precipitación	0
68552	7	Sololá	704	Santa Lucía Utatlán 	7	Santa Rita 	1	Enero	2023-03-01T00:00:00	2024-11-08T19:00:00	8	Radiación solar	0
68553	7	Sololá	704	Santa Lucía Utatlán 	7	Santa Rita 	1	Enero	2023-03-01T00:00:00	2024-11-08T20:00:00	2	Temperatura media	17
68554	7	Sololá	704	Santa Lucía Utatlán 	7	Santa Rita 	1	Enero	2023-03-01T00:00:00	2024-11-08T20:00:00	4	Temperatura máxima	19
68555	7	Sololá	704	Santa Lucía Utatlán 	7	Santa Rita 	1	Enero	2023-03-01T00:00:00	2024-11-08T20:00:00	3	Temperatura mínima	17
68556	7	Sololá	704	Santa Lucía Utatlán 	7	Santa Rita 	1	Enero	2023-03-01T00:00:00	2024-11-08T20:00:00	5	Humedad	89
68557	7	Sololá	704	Santa Lucía Utatlán 	7	Santa Rita 	1	Enero	2023-03-01T00:00:00	2024-11-08T20:00:00	6	Velocidad del viento	3.2
68558	7	Sololá	704	Santa Lucía Utatlán 	7	Santa Rita 	1	Enero	2023-03-01T00:00:00	2024-11-08T20:00:00	7	Dirección del viento	3.22
68559	7	Sololá	704	Santa Lucía Utatlán 	7	Santa Rita 	1	Enero	2023-03-01T00:00:00	2024-11-08T20:00:00	1	Precipitación	0
68560	7	Sololá	704	Santa Lucía Utatlán 	7	Santa Rita 	1	Enero	2023-03-01T00:00:00	2024-11-08T20:00:00	8	Radiación solar	0
68561	7	Sololá	704	Santa Lucía Utatlán 	7	Santa Rita 	1	Enero	2023-03-01T00:00:00	2024-11-08T21:00:00	2	Temperatura media	16.6
68562	7	Sololá	704	Santa Lucía Utatlán 	7	Santa Rita 	1	Enero	2023-03-01T00:00:00	2024-11-08T21:00:00	4	Temperatura máxima	17.1
68563	7	Sololá	704	Santa Lucía Utatlán 	7	Santa Rita 	1	Enero	2023-03-01T00:00:00	2024-11-08T21:00:00	3	Temperatura mínima	16.5
68564	7	Sololá	704	Santa Lucía Utatlán 	7	Santa Rita 	1	Enero	2023-03-01T00:00:00	2024-11-08T21:00:00	5	Humedad	89
68565	7	Sololá	704	Santa Lucía Utatlán 	7	Santa Rita 	1	Enero	2023-03-01T00:00:00	2024-11-08T21:00:00	6	Velocidad del viento	3.2
68566	7	Sololá	704	Santa Lucía Utatlán 	7	Santa Rita 	1	Enero	2023-03-01T00:00:00	2024-11-08T21:00:00	7	Dirección del viento	3.22
68567	7	Sololá	704	Santa Lucía Utatlán 	7	Santa Rita 	1	Enero	2023-03-01T00:00:00	2024-11-08T21:00:00	1	Precipitación	0
68568	7	Sololá	704	Santa Lucía Utatlán 	7	Santa Rita 	1	Enero	2023-03-01T00:00:00	2024-11-08T21:00:00	8	Radiación solar	0
68569	7	Sololá	704	Santa Lucía Utatlán 	7	Santa Rita 	1	Enero	2023-03-01T00:00:00	2024-11-08T22:00:00	2	Temperatura media	15.9
68570	7	Sololá	704	Santa Lucía Utatlán 	7	Santa Rita 	1	Enero	2023-03-01T00:00:00	2024-11-08T22:00:00	4	Temperatura máxima	16.6
68571	7	Sololá	704	Santa Lucía Utatlán 	7	Santa Rita 	1	Enero	2023-03-01T00:00:00	2024-11-08T22:00:00	3	Temperatura mínima	15.9
68572	7	Sololá	704	Santa Lucía Utatlán 	7	Santa Rita 	1	Enero	2023-03-01T00:00:00	2024-11-08T22:00:00	5	Humedad	90
68573	7	Sololá	704	Santa Lucía Utatlán 	7	Santa Rita 	1	Enero	2023-03-01T00:00:00	2024-11-08T22:00:00	6	Velocidad del viento	3.2
68574	7	Sololá	704	Santa Lucía Utatlán 	7	Santa Rita 	1	Enero	2023-03-01T00:00:00	2024-11-08T22:00:00	7	Dirección del viento	3.22
68575	7	Sololá	704	Santa Lucía Utatlán 	7	Santa Rita 	1	Enero	2023-03-01T00:00:00	2024-11-08T22:00:00	1	Precipitación	0
68576	7	Sololá	704	Santa Lucía Utatlán 	7	Santa Rita 	1	Enero	2023-03-01T00:00:00	2024-11-08T22:00:00	8	Radiación solar	0
68577	7	Sololá	704	Santa Lucía Utatlán 	7	Santa Rita 	1	Enero	2023-03-01T00:00:00	2024-11-08T23:00:00	2	Temperatura media	15.4
68578	7	Sololá	704	Santa Lucía Utatlán 	7	Santa Rita 	1	Enero	2023-03-01T00:00:00	2024-11-08T23:00:00	4	Temperatura máxima	16
68579	7	Sololá	704	Santa Lucía Utatlán 	7	Santa Rita 	1	Enero	2023-03-01T00:00:00	2024-11-08T23:00:00	3	Temperatura mínima	15.4
68580	7	Sololá	704	Santa Lucía Utatlán 	7	Santa Rita 	1	Enero	2023-03-01T00:00:00	2024-11-08T23:00:00	5	Humedad	90
68581	7	Sololá	704	Santa Lucía Utatlán 	7	Santa Rita 	1	Enero	2023-03-01T00:00:00	2024-11-08T23:00:00	6	Velocidad del viento	4.8
68582	7	Sololá	704	Santa Lucía Utatlán 	7	Santa Rita 	1	Enero	2023-03-01T00:00:00	2024-11-08T23:00:00	7	Dirección del viento	4.83
68583	7	Sololá	704	Santa Lucía Utatlán 	7	Santa Rita 	1	Enero	2023-03-01T00:00:00	2024-11-08T23:00:00	1	Precipitación	0
68584	7	Sololá	704	Santa Lucía Utatlán 	7	Santa Rita 	1	Enero	2023-03-01T00:00:00	2024-11-08T23:00:00	8	Radiación solar	0
68585	7	Sololá	704	Santa Lucía Utatlán 	7	Santa Rita 	1	Enero	2023-04-01T00:00:00	2024-11-08T00:00:00	2	Temperatura media	15
68586	7	Sololá	704	Santa Lucía Utatlán 	7	Santa Rita 	1	Enero	2023-04-01T00:00:00	2024-11-08T00:00:00	4	Temperatura máxima	15.6
68587	7	Sololá	704	Santa Lucía Utatlán 	7	Santa Rita 	1	Enero	2023-04-01T00:00:00	2024-11-08T00:00:00	3	Temperatura mínima	14.9
68588	7	Sololá	704	Santa Lucía Utatlán 	7	Santa Rita 	1	Enero	2023-04-01T00:00:00	2024-11-08T00:00:00	5	Humedad	91
68589	7	Sololá	704	Santa Lucía Utatlán 	7	Santa Rita 	1	Enero	2023-04-01T00:00:00	2024-11-08T00:00:00	6	Velocidad del viento	4.8
68590	7	Sololá	704	Santa Lucía Utatlán 	7	Santa Rita 	1	Enero	2023-04-01T00:00:00	2024-11-08T00:00:00	7	Dirección del viento	4.83
68591	7	Sololá	704	Santa Lucía Utatlán 	7	Santa Rita 	1	Enero	2023-04-01T00:00:00	2024-11-08T00:00:00	1	Precipitación	0
68592	7	Sololá	704	Santa Lucía Utatlán 	7	Santa Rita 	1	Enero	2023-04-01T00:00:00	2024-11-08T00:00:00	8	Radiación solar	0
68593	7	Sololá	704	Santa Lucía Utatlán 	7	Santa Rita 	1	Enero	2023-04-01T00:00:00	2024-11-08T01:00:00	2	Temperatura media	14.3
68594	7	Sololá	704	Santa Lucía Utatlán 	7	Santa Rita 	1	Enero	2023-04-01T00:00:00	2024-11-08T01:00:00	4	Temperatura máxima	15
68595	7	Sololá	704	Santa Lucía Utatlán 	7	Santa Rita 	1	Enero	2023-04-01T00:00:00	2024-11-08T01:00:00	3	Temperatura mínima	14.2
68596	7	Sololá	704	Santa Lucía Utatlán 	7	Santa Rita 	1	Enero	2023-04-01T00:00:00	2024-11-08T01:00:00	5	Humedad	92
68597	7	Sololá	704	Santa Lucía Utatlán 	7	Santa Rita 	1	Enero	2023-04-01T00:00:00	2024-11-08T01:00:00	6	Velocidad del viento	3.2
68598	7	Sololá	704	Santa Lucía Utatlán 	7	Santa Rita 	1	Enero	2023-04-01T00:00:00	2024-11-08T01:00:00	7	Dirección del viento	3.22
68599	7	Sololá	704	Santa Lucía Utatlán 	7	Santa Rita 	1	Enero	2023-04-01T00:00:00	2024-11-08T01:00:00	1	Precipitación	0
68600	7	Sololá	704	Santa Lucía Utatlán 	7	Santa Rita 	1	Enero	2023-04-01T00:00:00	2024-11-08T01:00:00	8	Radiación solar	0
68601	7	Sololá	704	Santa Lucía Utatlán 	7	Santa Rita 	1	Enero	2023-04-01T00:00:00	2024-11-08T02:00:00	2	Temperatura media	13.8
68602	7	Sololá	704	Santa Lucía Utatlán 	7	Santa Rita 	1	Enero	2023-04-01T00:00:00	2024-11-08T02:00:00	4	Temperatura máxima	14.3
68603	7	Sololá	704	Santa Lucía Utatlán 	7	Santa Rita 	1	Enero	2023-04-01T00:00:00	2024-11-08T02:00:00	3	Temperatura mínima	13.7
68604	7	Sololá	704	Santa Lucía Utatlán 	7	Santa Rita 	1	Enero	2023-04-01T00:00:00	2024-11-08T02:00:00	5	Humedad	93
68605	7	Sololá	704	Santa Lucía Utatlán 	7	Santa Rita 	1	Enero	2023-04-01T00:00:00	2024-11-08T02:00:00	6	Velocidad del viento	3.2
68606	7	Sololá	704	Santa Lucía Utatlán 	7	Santa Rita 	1	Enero	2023-04-01T00:00:00	2024-11-08T02:00:00	7	Dirección del viento	3.22
68607	7	Sololá	704	Santa Lucía Utatlán 	7	Santa Rita 	1	Enero	2023-04-01T00:00:00	2024-11-08T02:00:00	1	Precipitación	0
68608	7	Sololá	704	Santa Lucía Utatlán 	7	Santa Rita 	1	Enero	2023-04-01T00:00:00	2024-11-08T02:00:00	8	Radiación solar	0
68609	7	Sololá	704	Santa Lucía Utatlán 	7	Santa Rita 	1	Enero	2023-04-01T00:00:00	2024-11-08T03:00:00	2	Temperatura media	13.8
68610	7	Sololá	704	Santa Lucía Utatlán 	7	Santa Rita 	1	Enero	2023-04-01T00:00:00	2024-11-08T03:00:00	4	Temperatura máxima	14
68611	7	Sololá	704	Santa Lucía Utatlán 	7	Santa Rita 	1	Enero	2023-04-01T00:00:00	2024-11-08T03:00:00	3	Temperatura mínima	13.8
68612	7	Sololá	704	Santa Lucía Utatlán 	7	Santa Rita 	1	Enero	2023-04-01T00:00:00	2024-11-08T03:00:00	5	Humedad	89
68613	7	Sololá	704	Santa Lucía Utatlán 	7	Santa Rita 	1	Enero	2023-04-01T00:00:00	2024-11-08T03:00:00	6	Velocidad del viento	4.8
68614	7	Sololá	704	Santa Lucía Utatlán 	7	Santa Rita 	1	Enero	2023-04-01T00:00:00	2024-11-08T03:00:00	7	Dirección del viento	4.83
68615	7	Sololá	704	Santa Lucía Utatlán 	7	Santa Rita 	1	Enero	2023-04-01T00:00:00	2024-11-08T03:00:00	1	Precipitación	0
68616	7	Sololá	704	Santa Lucía Utatlán 	7	Santa Rita 	1	Enero	2023-04-01T00:00:00	2024-11-08T03:00:00	8	Radiación solar	0
68617	7	Sololá	704	Santa Lucía Utatlán 	7	Santa Rita 	1	Enero	2023-04-01T00:00:00	2024-11-08T04:00:00	2	Temperatura media	13.4
68618	7	Sololá	704	Santa Lucía Utatlán 	7	Santa Rita 	1	Enero	2023-04-01T00:00:00	2024-11-08T04:00:00	4	Temperatura máxima	14.1
68619	7	Sololá	704	Santa Lucía Utatlán 	7	Santa Rita 	1	Enero	2023-04-01T00:00:00	2024-11-08T04:00:00	3	Temperatura mínima	13.4
68620	7	Sololá	704	Santa Lucía Utatlán 	7	Santa Rita 	1	Enero	2023-04-01T00:00:00	2024-11-08T04:00:00	5	Humedad	84
68621	7	Sololá	704	Santa Lucía Utatlán 	7	Santa Rita 	1	Enero	2023-04-01T00:00:00	2024-11-08T04:00:00	6	Velocidad del viento	6.4
68622	7	Sololá	704	Santa Lucía Utatlán 	7	Santa Rita 	1	Enero	2023-04-01T00:00:00	2024-11-08T04:00:00	7	Dirección del viento	6.44
68623	7	Sololá	704	Santa Lucía Utatlán 	7	Santa Rita 	1	Enero	2023-04-01T00:00:00	2024-11-08T04:00:00	1	Precipitación	0
68624	7	Sololá	704	Santa Lucía Utatlán 	7	Santa Rita 	1	Enero	2023-04-01T00:00:00	2024-11-08T04:00:00	8	Radiación solar	0
68625	7	Sololá	704	Santa Lucía Utatlán 	7	Santa Rita 	1	Enero	2023-04-01T00:00:00	2024-11-08T05:00:00	2	Temperatura media	13.3
68626	7	Sololá	704	Santa Lucía Utatlán 	7	Santa Rita 	1	Enero	2023-04-01T00:00:00	2024-11-08T05:00:00	4	Temperatura máxima	13.7
68627	7	Sololá	704	Santa Lucía Utatlán 	7	Santa Rita 	1	Enero	2023-04-01T00:00:00	2024-11-08T05:00:00	3	Temperatura mínima	13.3
68628	7	Sololá	704	Santa Lucía Utatlán 	7	Santa Rita 	1	Enero	2023-04-01T00:00:00	2024-11-08T05:00:00	5	Humedad	83
68629	7	Sololá	704	Santa Lucía Utatlán 	7	Santa Rita 	1	Enero	2023-04-01T00:00:00	2024-11-08T05:00:00	6	Velocidad del viento	4.8
68630	7	Sololá	704	Santa Lucía Utatlán 	7	Santa Rita 	1	Enero	2023-04-01T00:00:00	2024-11-08T05:00:00	7	Dirección del viento	4.83
68631	7	Sololá	704	Santa Lucía Utatlán 	7	Santa Rita 	1	Enero	2023-04-01T00:00:00	2024-11-08T05:00:00	1	Precipitación	0
68632	7	Sololá	704	Santa Lucía Utatlán 	7	Santa Rita 	1	Enero	2023-04-01T00:00:00	2024-11-08T05:00:00	8	Radiación solar	0
68633	7	Sololá	704	Santa Lucía Utatlán 	7	Santa Rita 	1	Enero	2023-04-01T00:00:00	2024-11-08T06:00:00	2	Temperatura media	13.2
68634	7	Sololá	704	Santa Lucía Utatlán 	7	Santa Rita 	1	Enero	2023-04-01T00:00:00	2024-11-08T06:00:00	4	Temperatura máxima	13.4
68635	7	Sololá	704	Santa Lucía Utatlán 	7	Santa Rita 	1	Enero	2023-04-01T00:00:00	2024-11-08T06:00:00	3	Temperatura mínima	13.2
68636	7	Sololá	704	Santa Lucía Utatlán 	7	Santa Rita 	1	Enero	2023-04-01T00:00:00	2024-11-08T06:00:00	5	Humedad	81
68637	7	Sololá	704	Santa Lucía Utatlán 	7	Santa Rita 	1	Enero	2023-04-01T00:00:00	2024-11-08T06:00:00	6	Velocidad del viento	6.4
68638	7	Sololá	704	Santa Lucía Utatlán 	7	Santa Rita 	1	Enero	2023-04-01T00:00:00	2024-11-08T06:00:00	7	Dirección del viento	6.44
68639	7	Sololá	704	Santa Lucía Utatlán 	7	Santa Rita 	1	Enero	2023-04-01T00:00:00	2024-11-08T06:00:00	1	Precipitación	0
68640	7	Sololá	704	Santa Lucía Utatlán 	7	Santa Rita 	1	Enero	2023-04-01T00:00:00	2024-11-08T06:00:00	8	Radiación solar	0
68641	7	Sololá	704	Santa Lucía Utatlán 	7	Santa Rita 	1	Enero	2023-04-01T00:00:00	2024-11-08T07:00:00	2	Temperatura media	13.8
68642	7	Sololá	704	Santa Lucía Utatlán 	7	Santa Rita 	1	Enero	2023-04-01T00:00:00	2024-11-08T07:00:00	4	Temperatura máxima	13.8
68643	7	Sololá	704	Santa Lucía Utatlán 	7	Santa Rita 	1	Enero	2023-04-01T00:00:00	2024-11-08T07:00:00	3	Temperatura mínima	13
68644	7	Sololá	704	Santa Lucía Utatlán 	7	Santa Rita 	1	Enero	2023-04-01T00:00:00	2024-11-08T07:00:00	5	Humedad	71
68645	7	Sololá	704	Santa Lucía Utatlán 	7	Santa Rita 	1	Enero	2023-04-01T00:00:00	2024-11-08T07:00:00	6	Velocidad del viento	4.8
68646	7	Sololá	704	Santa Lucía Utatlán 	7	Santa Rita 	1	Enero	2023-04-01T00:00:00	2024-11-08T07:00:00	7	Dirección del viento	4.83
68647	7	Sololá	704	Santa Lucía Utatlán 	7	Santa Rita 	1	Enero	2023-04-01T00:00:00	2024-11-08T07:00:00	1	Precipitación	0
68648	7	Sololá	704	Santa Lucía Utatlán 	7	Santa Rita 	1	Enero	2023-04-01T00:00:00	2024-11-08T07:00:00	8	Radiación solar	6
68649	7	Sololá	704	Santa Lucía Utatlán 	7	Santa Rita 	1	Enero	2023-04-01T00:00:00	2024-11-08T08:00:00	2	Temperatura media	18.3
68650	7	Sololá	704	Santa Lucía Utatlán 	7	Santa Rita 	1	Enero	2023-04-01T00:00:00	2024-11-08T08:00:00	4	Temperatura máxima	18.3
68651	7	Sololá	704	Santa Lucía Utatlán 	7	Santa Rita 	1	Enero	2023-04-01T00:00:00	2024-11-08T08:00:00	3	Temperatura mínima	13.8
68652	7	Sololá	704	Santa Lucía Utatlán 	7	Santa Rita 	1	Enero	2023-04-01T00:00:00	2024-11-08T08:00:00	5	Humedad	71
68653	7	Sololá	704	Santa Lucía Utatlán 	7	Santa Rita 	1	Enero	2023-04-01T00:00:00	2024-11-08T08:00:00	6	Velocidad del viento	0
68654	7	Sololá	704	Santa Lucía Utatlán 	7	Santa Rita 	1	Enero	2023-04-01T00:00:00	2024-11-08T08:00:00	7	Dirección del viento	0
68655	7	Sololá	704	Santa Lucía Utatlán 	7	Santa Rita 	1	Enero	2023-04-01T00:00:00	2024-11-08T08:00:00	1	Precipitación	0
68656	7	Sololá	704	Santa Lucía Utatlán 	7	Santa Rita 	1	Enero	2023-04-01T00:00:00	2024-11-08T08:00:00	8	Radiación solar	137
68657	7	Sololá	704	Santa Lucía Utatlán 	7	Santa Rita 	1	Enero	2023-04-01T00:00:00	2024-11-08T09:00:00	2	Temperatura media	20.4
68658	7	Sololá	704	Santa Lucía Utatlán 	7	Santa Rita 	1	Enero	2023-04-01T00:00:00	2024-11-08T09:00:00	4	Temperatura máxima	20.5
68659	7	Sololá	704	Santa Lucía Utatlán 	7	Santa Rita 	1	Enero	2023-04-01T00:00:00	2024-11-08T09:00:00	3	Temperatura mínima	18.3
68660	7	Sololá	704	Santa Lucía Utatlán 	7	Santa Rita 	1	Enero	2023-04-01T00:00:00	2024-11-08T09:00:00	5	Humedad	61
68661	7	Sololá	704	Santa Lucía Utatlán 	7	Santa Rita 	1	Enero	2023-04-01T00:00:00	2024-11-08T09:00:00	6	Velocidad del viento	3.2
68662	7	Sololá	704	Santa Lucía Utatlán 	7	Santa Rita 	1	Enero	2023-04-01T00:00:00	2024-11-08T09:00:00	7	Dirección del viento	3.22
68663	7	Sololá	704	Santa Lucía Utatlán 	7	Santa Rita 	1	Enero	2023-04-01T00:00:00	2024-11-08T09:00:00	1	Precipitación	0
68664	7	Sololá	704	Santa Lucía Utatlán 	7	Santa Rita 	1	Enero	2023-04-01T00:00:00	2024-11-08T09:00:00	8	Radiación solar	377
68665	7	Sololá	704	Santa Lucía Utatlán 	7	Santa Rita 	1	Enero	2023-04-01T00:00:00	2024-11-08T10:00:00	2	Temperatura media	23
68666	7	Sololá	704	Santa Lucía Utatlán 	7	Santa Rita 	1	Enero	2023-04-01T00:00:00	2024-11-08T10:00:00	4	Temperatura máxima	23.1
68667	7	Sololá	704	Santa Lucía Utatlán 	7	Santa Rita 	1	Enero	2023-04-01T00:00:00	2024-11-08T10:00:00	3	Temperatura mínima	20.4
68668	7	Sololá	704	Santa Lucía Utatlán 	7	Santa Rita 	1	Enero	2023-04-01T00:00:00	2024-11-08T10:00:00	5	Humedad	44
68669	7	Sololá	704	Santa Lucía Utatlán 	7	Santa Rita 	1	Enero	2023-04-01T00:00:00	2024-11-08T10:00:00	6	Velocidad del viento	4.8
68670	7	Sololá	704	Santa Lucía Utatlán 	7	Santa Rita 	1	Enero	2023-04-01T00:00:00	2024-11-08T10:00:00	7	Dirección del viento	4.83
68671	7	Sololá	704	Santa Lucía Utatlán 	7	Santa Rita 	1	Enero	2023-04-01T00:00:00	2024-11-08T10:00:00	1	Precipitación	0
68672	7	Sololá	704	Santa Lucía Utatlán 	7	Santa Rita 	1	Enero	2023-04-01T00:00:00	2024-11-08T10:00:00	8	Radiación solar	564
68673	7	Sololá	704	Santa Lucía Utatlán 	7	Santa Rita 	1	Enero	2023-04-01T00:00:00	2024-11-08T11:00:00	2	Temperatura media	24.4
68674	7	Sololá	704	Santa Lucía Utatlán 	7	Santa Rita 	1	Enero	2023-04-01T00:00:00	2024-11-08T11:00:00	4	Temperatura máxima	24.6
68675	7	Sololá	704	Santa Lucía Utatlán 	7	Santa Rita 	1	Enero	2023-04-01T00:00:00	2024-11-08T11:00:00	3	Temperatura mínima	22.9
68676	7	Sololá	704	Santa Lucía Utatlán 	7	Santa Rita 	1	Enero	2023-04-01T00:00:00	2024-11-08T11:00:00	5	Humedad	40
68677	7	Sololá	704	Santa Lucía Utatlán 	7	Santa Rita 	1	Enero	2023-04-01T00:00:00	2024-11-08T11:00:00	6	Velocidad del viento	6.4
68678	7	Sololá	704	Santa Lucía Utatlán 	7	Santa Rita 	1	Enero	2023-04-01T00:00:00	2024-11-08T11:00:00	7	Dirección del viento	6.44
68679	7	Sololá	704	Santa Lucía Utatlán 	7	Santa Rita 	1	Enero	2023-04-01T00:00:00	2024-11-08T11:00:00	1	Precipitación	0
68680	7	Sololá	704	Santa Lucía Utatlán 	7	Santa Rita 	1	Enero	2023-04-01T00:00:00	2024-11-08T11:00:00	8	Radiación solar	712
68681	7	Sololá	704	Santa Lucía Utatlán 	7	Santa Rita 	1	Enero	2023-04-01T00:00:00	2024-11-08T12:00:00	2	Temperatura media	25.2
68682	7	Sololá	704	Santa Lucía Utatlán 	7	Santa Rita 	1	Enero	2023-04-01T00:00:00	2024-11-08T12:00:00	4	Temperatura máxima	25.2
68683	7	Sololá	704	Santa Lucía Utatlán 	7	Santa Rita 	1	Enero	2023-04-01T00:00:00	2024-11-08T12:00:00	3	Temperatura mínima	24.3
68684	7	Sololá	704	Santa Lucía Utatlán 	7	Santa Rita 	1	Enero	2023-04-01T00:00:00	2024-11-08T12:00:00	5	Humedad	43
68685	7	Sololá	704	Santa Lucía Utatlán 	7	Santa Rita 	1	Enero	2023-04-01T00:00:00	2024-11-08T12:00:00	6	Velocidad del viento	9.7
68686	7	Sololá	704	Santa Lucía Utatlán 	7	Santa Rita 	1	Enero	2023-04-01T00:00:00	2024-11-08T12:00:00	7	Dirección del viento	9.66
68687	7	Sololá	704	Santa Lucía Utatlán 	7	Santa Rita 	1	Enero	2023-04-01T00:00:00	2024-11-08T12:00:00	1	Precipitación	0
68688	7	Sololá	704	Santa Lucía Utatlán 	7	Santa Rita 	1	Enero	2023-04-01T00:00:00	2024-11-08T12:00:00	8	Radiación solar	792
68689	7	Sololá	704	Santa Lucía Utatlán 	7	Santa Rita 	1	Enero	2023-04-01T00:00:00	2024-11-08T13:00:00	2	Temperatura media	25.3
68690	7	Sololá	704	Santa Lucía Utatlán 	7	Santa Rita 	1	Enero	2023-04-01T00:00:00	2024-11-08T13:00:00	4	Temperatura máxima	25.3
68691	7	Sololá	704	Santa Lucía Utatlán 	7	Santa Rita 	1	Enero	2023-04-01T00:00:00	2024-11-08T13:00:00	3	Temperatura mínima	24.4
68692	7	Sololá	704	Santa Lucía Utatlán 	7	Santa Rita 	1	Enero	2023-04-01T00:00:00	2024-11-08T13:00:00	5	Humedad	35
68693	7	Sololá	704	Santa Lucía Utatlán 	7	Santa Rita 	1	Enero	2023-04-01T00:00:00	2024-11-08T13:00:00	6	Velocidad del viento	11.3
68694	7	Sololá	704	Santa Lucía Utatlán 	7	Santa Rita 	1	Enero	2023-04-01T00:00:00	2024-11-08T13:00:00	7	Dirección del viento	11.27
68695	7	Sololá	704	Santa Lucía Utatlán 	7	Santa Rita 	1	Enero	2023-04-01T00:00:00	2024-11-08T13:00:00	1	Precipitación	0
68696	7	Sololá	704	Santa Lucía Utatlán 	7	Santa Rita 	1	Enero	2023-04-01T00:00:00	2024-11-08T13:00:00	8	Radiación solar	801
68697	7	Sololá	704	Santa Lucía Utatlán 	7	Santa Rita 	1	Enero	2023-04-01T00:00:00	2024-11-08T14:00:00	2	Temperatura media	25
68698	7	Sololá	704	Santa Lucía Utatlán 	7	Santa Rita 	1	Enero	2023-04-01T00:00:00	2024-11-08T14:00:00	4	Temperatura máxima	25.3
68699	7	Sololá	704	Santa Lucía Utatlán 	7	Santa Rita 	1	Enero	2023-04-01T00:00:00	2024-11-08T14:00:00	3	Temperatura mínima	24.8
68700	7	Sololá	704	Santa Lucía Utatlán 	7	Santa Rita 	1	Enero	2023-04-01T00:00:00	2024-11-08T14:00:00	5	Humedad	37
68701	7	Sololá	704	Santa Lucía Utatlán 	7	Santa Rita 	1	Enero	2023-04-01T00:00:00	2024-11-08T14:00:00	6	Velocidad del viento	9.7
68702	7	Sololá	704	Santa Lucía Utatlán 	7	Santa Rita 	1	Enero	2023-04-01T00:00:00	2024-11-08T14:00:00	7	Dirección del viento	9.66
68703	7	Sololá	704	Santa Lucía Utatlán 	7	Santa Rita 	1	Enero	2023-04-01T00:00:00	2024-11-08T14:00:00	1	Precipitación	0
68704	7	Sololá	704	Santa Lucía Utatlán 	7	Santa Rita 	1	Enero	2023-04-01T00:00:00	2024-11-08T14:00:00	8	Radiación solar	742
68705	7	Sololá	704	Santa Lucía Utatlán 	7	Santa Rita 	1	Enero	2023-04-01T00:00:00	2024-11-08T15:00:00	2	Temperatura media	24.7
68706	7	Sololá	704	Santa Lucía Utatlán 	7	Santa Rita 	1	Enero	2023-04-01T00:00:00	2024-11-08T15:00:00	4	Temperatura máxima	25.3
68707	7	Sololá	704	Santa Lucía Utatlán 	7	Santa Rita 	1	Enero	2023-04-01T00:00:00	2024-11-08T15:00:00	3	Temperatura mínima	24.6
68708	7	Sololá	704	Santa Lucía Utatlán 	7	Santa Rita 	1	Enero	2023-04-01T00:00:00	2024-11-08T15:00:00	5	Humedad	37
68709	7	Sololá	704	Santa Lucía Utatlán 	7	Santa Rita 	1	Enero	2023-04-01T00:00:00	2024-11-08T15:00:00	6	Velocidad del viento	12.9
68710	7	Sololá	704	Santa Lucía Utatlán 	7	Santa Rita 	1	Enero	2023-04-01T00:00:00	2024-11-08T15:00:00	7	Dirección del viento	12.87
68711	7	Sololá	704	Santa Lucía Utatlán 	7	Santa Rita 	1	Enero	2023-04-01T00:00:00	2024-11-08T15:00:00	1	Precipitación	0
68712	7	Sololá	704	Santa Lucía Utatlán 	7	Santa Rita 	1	Enero	2023-04-01T00:00:00	2024-11-08T15:00:00	8	Radiación solar	617
68713	7	Sololá	704	Santa Lucía Utatlán 	7	Santa Rita 	1	Enero	2023-04-01T00:00:00	2024-11-08T16:00:00	2	Temperatura media	24.1
68714	7	Sololá	704	Santa Lucía Utatlán 	7	Santa Rita 	1	Enero	2023-04-01T00:00:00	2024-11-08T16:00:00	4	Temperatura máxima	24.8
68715	7	Sololá	704	Santa Lucía Utatlán 	7	Santa Rita 	1	Enero	2023-04-01T00:00:00	2024-11-08T16:00:00	3	Temperatura mínima	23.8
68716	7	Sololá	704	Santa Lucía Utatlán 	7	Santa Rita 	1	Enero	2023-04-01T00:00:00	2024-11-08T16:00:00	5	Humedad	44
68717	7	Sololá	704	Santa Lucía Utatlán 	7	Santa Rita 	1	Enero	2023-04-01T00:00:00	2024-11-08T16:00:00	6	Velocidad del viento	11.3
68718	7	Sololá	704	Santa Lucía Utatlán 	7	Santa Rita 	1	Enero	2023-04-01T00:00:00	2024-11-08T16:00:00	7	Dirección del viento	11.27
68719	7	Sololá	704	Santa Lucía Utatlán 	7	Santa Rita 	1	Enero	2023-04-01T00:00:00	2024-11-08T16:00:00	1	Precipitación	0
68720	7	Sololá	704	Santa Lucía Utatlán 	7	Santa Rita 	1	Enero	2023-04-01T00:00:00	2024-11-08T16:00:00	8	Radiación solar	426
68721	7	Sololá	704	Santa Lucía Utatlán 	7	Santa Rita 	1	Enero	2023-04-01T00:00:00	2024-11-08T17:00:00	2	Temperatura media	22.2
68722	7	Sololá	704	Santa Lucía Utatlán 	7	Santa Rita 	1	Enero	2023-04-01T00:00:00	2024-11-08T17:00:00	4	Temperatura máxima	24.1
68723	7	Sololá	704	Santa Lucía Utatlán 	7	Santa Rita 	1	Enero	2023-04-01T00:00:00	2024-11-08T17:00:00	3	Temperatura mínima	22.2
68724	7	Sololá	704	Santa Lucía Utatlán 	7	Santa Rita 	1	Enero	2023-04-01T00:00:00	2024-11-08T17:00:00	5	Humedad	51
68725	7	Sololá	704	Santa Lucía Utatlán 	7	Santa Rita 	1	Enero	2023-04-01T00:00:00	2024-11-08T17:00:00	6	Velocidad del viento	9.7
68726	7	Sololá	704	Santa Lucía Utatlán 	7	Santa Rita 	1	Enero	2023-04-01T00:00:00	2024-11-08T17:00:00	7	Dirección del viento	9.66
68727	7	Sololá	704	Santa Lucía Utatlán 	7	Santa Rita 	1	Enero	2023-04-01T00:00:00	2024-11-08T17:00:00	1	Precipitación	0
68728	7	Sololá	704	Santa Lucía Utatlán 	7	Santa Rita 	1	Enero	2023-04-01T00:00:00	2024-11-08T17:00:00	8	Radiación solar	157
68729	7	Sololá	704	Santa Lucía Utatlán 	7	Santa Rita 	1	Enero	2023-04-01T00:00:00	2024-11-08T18:00:00	2	Temperatura media	19.6
68730	7	Sololá	704	Santa Lucía Utatlán 	7	Santa Rita 	1	Enero	2023-04-01T00:00:00	2024-11-08T18:00:00	4	Temperatura máxima	22.2
68731	7	Sololá	704	Santa Lucía Utatlán 	7	Santa Rita 	1	Enero	2023-04-01T00:00:00	2024-11-08T18:00:00	3	Temperatura mínima	19.6
68732	7	Sololá	704	Santa Lucía Utatlán 	7	Santa Rita 	1	Enero	2023-04-01T00:00:00	2024-11-08T18:00:00	5	Humedad	58
68733	7	Sololá	704	Santa Lucía Utatlán 	7	Santa Rita 	1	Enero	2023-04-01T00:00:00	2024-11-08T18:00:00	6	Velocidad del viento	4.8
68734	7	Sololá	704	Santa Lucía Utatlán 	7	Santa Rita 	1	Enero	2023-04-01T00:00:00	2024-11-08T18:00:00	7	Dirección del viento	4.83
68735	7	Sololá	704	Santa Lucía Utatlán 	7	Santa Rita 	1	Enero	2023-04-01T00:00:00	2024-11-08T18:00:00	1	Precipitación	0
68736	7	Sololá	704	Santa Lucía Utatlán 	7	Santa Rita 	1	Enero	2023-04-01T00:00:00	2024-11-08T18:00:00	8	Radiación solar	12
68737	7	Sololá	704	Santa Lucía Utatlán 	7	Santa Rita 	1	Enero	2023-04-01T00:00:00	2024-11-08T19:00:00	2	Temperatura media	18.3
68738	7	Sololá	704	Santa Lucía Utatlán 	7	Santa Rita 	1	Enero	2023-04-01T00:00:00	2024-11-08T19:00:00	4	Temperatura máxima	19.7
68739	7	Sololá	704	Santa Lucía Utatlán 	7	Santa Rita 	1	Enero	2023-04-01T00:00:00	2024-11-08T19:00:00	3	Temperatura mínima	18.3
68740	7	Sololá	704	Santa Lucía Utatlán 	7	Santa Rita 	1	Enero	2023-04-01T00:00:00	2024-11-08T19:00:00	5	Humedad	58
68741	7	Sololá	704	Santa Lucía Utatlán 	7	Santa Rita 	1	Enero	2023-04-01T00:00:00	2024-11-08T19:00:00	6	Velocidad del viento	3.2
68742	7	Sololá	704	Santa Lucía Utatlán 	7	Santa Rita 	1	Enero	2023-04-01T00:00:00	2024-11-08T19:00:00	7	Dirección del viento	3.22
68743	7	Sololá	704	Santa Lucía Utatlán 	7	Santa Rita 	1	Enero	2023-04-01T00:00:00	2024-11-08T19:00:00	1	Precipitación	0
68744	7	Sololá	704	Santa Lucía Utatlán 	7	Santa Rita 	1	Enero	2023-04-01T00:00:00	2024-11-08T19:00:00	8	Radiación solar	0
68745	7	Sololá	704	Santa Lucía Utatlán 	7	Santa Rita 	1	Enero	2023-04-01T00:00:00	2024-11-08T20:00:00	2	Temperatura media	16.7
68746	7	Sololá	704	Santa Lucía Utatlán 	7	Santa Rita 	1	Enero	2023-04-01T00:00:00	2024-11-08T20:00:00	4	Temperatura máxima	18.8
68747	7	Sololá	704	Santa Lucía Utatlán 	7	Santa Rita 	1	Enero	2023-04-01T00:00:00	2024-11-08T20:00:00	3	Temperatura mínima	16.7
68748	7	Sololá	704	Santa Lucía Utatlán 	7	Santa Rita 	1	Enero	2023-04-01T00:00:00	2024-11-08T20:00:00	5	Humedad	61
68749	7	Sololá	704	Santa Lucía Utatlán 	7	Santa Rita 	1	Enero	2023-04-01T00:00:00	2024-11-08T20:00:00	6	Velocidad del viento	4.8
68750	7	Sololá	704	Santa Lucía Utatlán 	7	Santa Rita 	1	Enero	2023-04-01T00:00:00	2024-11-08T20:00:00	7	Dirección del viento	4.83
68751	7	Sololá	704	Santa Lucía Utatlán 	7	Santa Rita 	1	Enero	2023-04-01T00:00:00	2024-11-08T20:00:00	1	Precipitación	0
68752	7	Sololá	704	Santa Lucía Utatlán 	7	Santa Rita 	1	Enero	2023-04-01T00:00:00	2024-11-08T20:00:00	8	Radiación solar	0
68753	7	Sololá	704	Santa Lucía Utatlán 	7	Santa Rita 	1	Enero	2023-04-01T00:00:00	2024-11-08T21:00:00	2	Temperatura media	15.6
68754	7	Sololá	704	Santa Lucía Utatlán 	7	Santa Rita 	1	Enero	2023-04-01T00:00:00	2024-11-08T21:00:00	4	Temperatura máxima	16.7
68755	7	Sololá	704	Santa Lucía Utatlán 	7	Santa Rita 	1	Enero	2023-04-01T00:00:00	2024-11-08T21:00:00	3	Temperatura mínima	15.6
68756	7	Sololá	704	Santa Lucía Utatlán 	7	Santa Rita 	1	Enero	2023-04-01T00:00:00	2024-11-08T21:00:00	5	Humedad	65
68757	7	Sololá	704	Santa Lucía Utatlán 	7	Santa Rita 	1	Enero	2023-04-01T00:00:00	2024-11-08T21:00:00	6	Velocidad del viento	1.6
68758	7	Sololá	704	Santa Lucía Utatlán 	7	Santa Rita 	1	Enero	2023-04-01T00:00:00	2024-11-08T21:00:00	7	Dirección del viento	1.61
68759	7	Sololá	704	Santa Lucía Utatlán 	7	Santa Rita 	1	Enero	2023-04-01T00:00:00	2024-11-08T21:00:00	1	Precipitación	0
68760	7	Sololá	704	Santa Lucía Utatlán 	7	Santa Rita 	1	Enero	2023-04-01T00:00:00	2024-11-08T21:00:00	8	Radiación solar	0
68761	7	Sololá	704	Santa Lucía Utatlán 	7	Santa Rita 	1	Enero	2023-04-01T00:00:00	2024-11-08T22:00:00	2	Temperatura media	17.9
68762	7	Sololá	704	Santa Lucía Utatlán 	7	Santa Rita 	1	Enero	2023-04-01T00:00:00	2024-11-08T22:00:00	4	Temperatura máxima	18
68763	7	Sololá	704	Santa Lucía Utatlán 	7	Santa Rita 	1	Enero	2023-04-01T00:00:00	2024-11-08T22:00:00	3	Temperatura mínima	15.3
68764	7	Sololá	704	Santa Lucía Utatlán 	7	Santa Rita 	1	Enero	2023-04-01T00:00:00	2024-11-08T22:00:00	5	Humedad	50
68765	7	Sololá	704	Santa Lucía Utatlán 	7	Santa Rita 	1	Enero	2023-04-01T00:00:00	2024-11-08T22:00:00	6	Velocidad del viento	4.8
68766	7	Sololá	704	Santa Lucía Utatlán 	7	Santa Rita 	1	Enero	2023-04-01T00:00:00	2024-11-08T22:00:00	7	Dirección del viento	4.83
68767	7	Sololá	704	Santa Lucía Utatlán 	7	Santa Rita 	1	Enero	2023-04-01T00:00:00	2024-11-08T22:00:00	1	Precipitación	0
68768	7	Sololá	704	Santa Lucía Utatlán 	7	Santa Rita 	1	Enero	2023-04-01T00:00:00	2024-11-08T22:00:00	8	Radiación solar	0
68769	7	Sololá	704	Santa Lucía Utatlán 	7	Santa Rita 	1	Enero	2023-04-01T00:00:00	2024-11-08T23:00:00	2	Temperatura media	16.9
68770	7	Sololá	704	Santa Lucía Utatlán 	7	Santa Rita 	1	Enero	2023-04-01T00:00:00	2024-11-08T23:00:00	4	Temperatura máxima	18.2
68771	7	Sololá	704	Santa Lucía Utatlán 	7	Santa Rita 	1	Enero	2023-04-01T00:00:00	2024-11-08T23:00:00	3	Temperatura mínima	16.9
68772	7	Sololá	704	Santa Lucía Utatlán 	7	Santa Rita 	1	Enero	2023-04-01T00:00:00	2024-11-08T23:00:00	5	Humedad	50
68773	7	Sololá	704	Santa Lucía Utatlán 	7	Santa Rita 	1	Enero	2023-04-01T00:00:00	2024-11-08T23:00:00	6	Velocidad del viento	4.8
68774	7	Sololá	704	Santa Lucía Utatlán 	7	Santa Rita 	1	Enero	2023-04-01T00:00:00	2024-11-08T23:00:00	7	Dirección del viento	4.83
68775	7	Sololá	704	Santa Lucía Utatlán 	7	Santa Rita 	1	Enero	2023-04-01T00:00:00	2024-11-08T23:00:00	1	Precipitación	0
68776	7	Sololá	704	Santa Lucía Utatlán 	7	Santa Rita 	1	Enero	2023-04-01T00:00:00	2024-11-08T23:00:00	8	Radiación solar	0
68777	7	Sololá	704	Santa Lucía Utatlán 	7	Santa Rita 	1	Enero	2023-05-01T00:00:00	2024-11-08T00:00:00	2	Temperatura media	17.8
68778	7	Sololá	704	Santa Lucía Utatlán 	7	Santa Rita 	1	Enero	2023-05-01T00:00:00	2024-11-08T00:00:00	4	Temperatura máxima	18
68779	7	Sololá	704	Santa Lucía Utatlán 	7	Santa Rita 	1	Enero	2023-05-01T00:00:00	2024-11-08T00:00:00	3	Temperatura mínima	17
68780	7	Sololá	704	Santa Lucía Utatlán 	7	Santa Rita 	1	Enero	2023-05-01T00:00:00	2024-11-08T00:00:00	5	Humedad	34
68781	7	Sololá	704	Santa Lucía Utatlán 	7	Santa Rita 	1	Enero	2023-05-01T00:00:00	2024-11-08T00:00:00	6	Velocidad del viento	4.8
68782	7	Sololá	704	Santa Lucía Utatlán 	7	Santa Rita 	1	Enero	2023-05-01T00:00:00	2024-11-08T00:00:00	7	Dirección del viento	4.83
68783	7	Sololá	704	Santa Lucía Utatlán 	7	Santa Rita 	1	Enero	2023-05-01T00:00:00	2024-11-08T00:00:00	1	Precipitación	0
68784	7	Sololá	704	Santa Lucía Utatlán 	7	Santa Rita 	1	Enero	2023-05-01T00:00:00	2024-11-08T00:00:00	8	Radiación solar	0
68785	7	Sololá	704	Santa Lucía Utatlán 	7	Santa Rita 	1	Enero	2023-05-01T00:00:00	2024-11-08T01:00:00	2	Temperatura media	16.1
68786	7	Sololá	704	Santa Lucía Utatlán 	7	Santa Rita 	1	Enero	2023-05-01T00:00:00	2024-11-08T01:00:00	4	Temperatura máxima	18.3
68787	7	Sololá	704	Santa Lucía Utatlán 	7	Santa Rita 	1	Enero	2023-05-01T00:00:00	2024-11-08T01:00:00	3	Temperatura mínima	16.1
68788	7	Sololá	704	Santa Lucía Utatlán 	7	Santa Rita 	1	Enero	2023-05-01T00:00:00	2024-11-08T01:00:00	5	Humedad	51
68789	7	Sololá	704	Santa Lucía Utatlán 	7	Santa Rita 	1	Enero	2023-05-01T00:00:00	2024-11-08T01:00:00	6	Velocidad del viento	4.8
68790	7	Sololá	704	Santa Lucía Utatlán 	7	Santa Rita 	1	Enero	2023-05-01T00:00:00	2024-11-08T01:00:00	7	Dirección del viento	4.83
68791	7	Sololá	704	Santa Lucía Utatlán 	7	Santa Rita 	1	Enero	2023-05-01T00:00:00	2024-11-08T01:00:00	1	Precipitación	0
68792	7	Sololá	704	Santa Lucía Utatlán 	7	Santa Rita 	1	Enero	2023-05-01T00:00:00	2024-11-08T01:00:00	8	Radiación solar	0
68793	7	Sololá	704	Santa Lucía Utatlán 	7	Santa Rita 	1	Enero	2023-05-01T00:00:00	2024-11-08T02:00:00	2	Temperatura media	15.7
68794	7	Sololá	704	Santa Lucía Utatlán 	7	Santa Rita 	1	Enero	2023-05-01T00:00:00	2024-11-08T02:00:00	4	Temperatura máxima	16.3
68795	7	Sololá	704	Santa Lucía Utatlán 	7	Santa Rita 	1	Enero	2023-05-01T00:00:00	2024-11-08T02:00:00	3	Temperatura mínima	15
68796	7	Sololá	704	Santa Lucía Utatlán 	7	Santa Rita 	1	Enero	2023-05-01T00:00:00	2024-11-08T02:00:00	5	Humedad	71
68797	7	Sololá	704	Santa Lucía Utatlán 	7	Santa Rita 	1	Enero	2023-05-01T00:00:00	2024-11-08T02:00:00	6	Velocidad del viento	3.2
68798	7	Sololá	704	Santa Lucía Utatlán 	7	Santa Rita 	1	Enero	2023-05-01T00:00:00	2024-11-08T02:00:00	7	Dirección del viento	3.22
68799	7	Sololá	704	Santa Lucía Utatlán 	7	Santa Rita 	1	Enero	2023-05-01T00:00:00	2024-11-08T02:00:00	1	Precipitación	0
68800	7	Sololá	704	Santa Lucía Utatlán 	7	Santa Rita 	1	Enero	2023-05-01T00:00:00	2024-11-08T02:00:00	8	Radiación solar	0
68801	7	Sololá	704	Santa Lucía Utatlán 	7	Santa Rita 	1	Enero	2023-05-01T00:00:00	2024-11-08T03:00:00	2	Temperatura media	18.3
68802	7	Sololá	704	Santa Lucía Utatlán 	7	Santa Rita 	1	Enero	2023-05-01T00:00:00	2024-11-08T03:00:00	4	Temperatura máxima	18.3
68803	7	Sololá	704	Santa Lucía Utatlán 	7	Santa Rita 	1	Enero	2023-05-01T00:00:00	2024-11-08T03:00:00	3	Temperatura mínima	15.7
68804	7	Sololá	704	Santa Lucía Utatlán 	7	Santa Rita 	1	Enero	2023-05-01T00:00:00	2024-11-08T03:00:00	5	Humedad	69
68805	7	Sololá	704	Santa Lucía Utatlán 	7	Santa Rita 	1	Enero	2023-05-01T00:00:00	2024-11-08T03:00:00	6	Velocidad del viento	8
68806	7	Sololá	704	Santa Lucía Utatlán 	7	Santa Rita 	1	Enero	2023-05-01T00:00:00	2024-11-08T03:00:00	7	Dirección del viento	8.05
68807	7	Sololá	704	Santa Lucía Utatlán 	7	Santa Rita 	1	Enero	2023-05-01T00:00:00	2024-11-08T03:00:00	1	Precipitación	0
68808	7	Sololá	704	Santa Lucía Utatlán 	7	Santa Rita 	1	Enero	2023-05-01T00:00:00	2024-11-08T03:00:00	8	Radiación solar	0
68809	7	Sololá	704	Santa Lucía Utatlán 	7	Santa Rita 	1	Enero	2023-05-01T00:00:00	2024-11-08T04:00:00	2	Temperatura media	18.4
68810	7	Sololá	704	Santa Lucía Utatlán 	7	Santa Rita 	1	Enero	2023-05-01T00:00:00	2024-11-08T04:00:00	4	Temperatura máxima	18.4
68811	7	Sololá	704	Santa Lucía Utatlán 	7	Santa Rita 	1	Enero	2023-05-01T00:00:00	2024-11-08T04:00:00	3	Temperatura mínima	18.1
68812	7	Sololá	704	Santa Lucía Utatlán 	7	Santa Rita 	1	Enero	2023-05-01T00:00:00	2024-11-08T04:00:00	5	Humedad	66
68813	7	Sololá	704	Santa Lucía Utatlán 	7	Santa Rita 	1	Enero	2023-05-01T00:00:00	2024-11-08T04:00:00	6	Velocidad del viento	6.4
68814	7	Sololá	704	Santa Lucía Utatlán 	7	Santa Rita 	1	Enero	2023-05-01T00:00:00	2024-11-08T04:00:00	7	Dirección del viento	6.44
68815	7	Sololá	704	Santa Lucía Utatlán 	7	Santa Rita 	1	Enero	2023-05-01T00:00:00	2024-11-08T04:00:00	1	Precipitación	0
68816	7	Sololá	704	Santa Lucía Utatlán 	7	Santa Rita 	1	Enero	2023-05-01T00:00:00	2024-11-08T04:00:00	8	Radiación solar	0
68817	7	Sololá	704	Santa Lucía Utatlán 	7	Santa Rita 	1	Enero	2023-05-01T00:00:00	2024-11-08T05:00:00	2	Temperatura media	17.9
68818	7	Sololá	704	Santa Lucía Utatlán 	7	Santa Rita 	1	Enero	2023-05-01T00:00:00	2024-11-08T05:00:00	4	Temperatura máxima	18.4
68819	7	Sololá	704	Santa Lucía Utatlán 	7	Santa Rita 	1	Enero	2023-05-01T00:00:00	2024-11-08T05:00:00	3	Temperatura mínima	17.8
68820	7	Sololá	704	Santa Lucía Utatlán 	7	Santa Rita 	1	Enero	2023-05-01T00:00:00	2024-11-08T05:00:00	5	Humedad	73
68821	7	Sololá	704	Santa Lucía Utatlán 	7	Santa Rita 	1	Enero	2023-05-01T00:00:00	2024-11-08T05:00:00	6	Velocidad del viento	4.8
68822	7	Sololá	704	Santa Lucía Utatlán 	7	Santa Rita 	1	Enero	2023-05-01T00:00:00	2024-11-08T05:00:00	7	Dirección del viento	4.83
68823	7	Sololá	704	Santa Lucía Utatlán 	7	Santa Rita 	1	Enero	2023-05-01T00:00:00	2024-11-08T05:00:00	1	Precipitación	0
68824	7	Sololá	704	Santa Lucía Utatlán 	7	Santa Rita 	1	Enero	2023-05-01T00:00:00	2024-11-08T05:00:00	8	Radiación solar	0
68825	7	Sololá	704	Santa Lucía Utatlán 	7	Santa Rita 	1	Enero	2023-05-01T00:00:00	2024-11-08T06:00:00	2	Temperatura media	17.8
68826	7	Sololá	704	Santa Lucía Utatlán 	7	Santa Rita 	1	Enero	2023-05-01T00:00:00	2024-11-08T06:00:00	4	Temperatura máxima	18.2
68827	7	Sololá	704	Santa Lucía Utatlán 	7	Santa Rita 	1	Enero	2023-05-01T00:00:00	2024-11-08T06:00:00	3	Temperatura mínima	17.8
68828	7	Sololá	704	Santa Lucía Utatlán 	7	Santa Rita 	1	Enero	2023-05-01T00:00:00	2024-11-08T06:00:00	5	Humedad	74
68829	7	Sololá	704	Santa Lucía Utatlán 	7	Santa Rita 	1	Enero	2023-05-01T00:00:00	2024-11-08T06:00:00	6	Velocidad del viento	6.4
68830	7	Sololá	704	Santa Lucía Utatlán 	7	Santa Rita 	1	Enero	2023-05-01T00:00:00	2024-11-08T06:00:00	7	Dirección del viento	6.44
68831	7	Sololá	704	Santa Lucía Utatlán 	7	Santa Rita 	1	Enero	2023-05-01T00:00:00	2024-11-08T06:00:00	1	Precipitación	0
68832	7	Sololá	704	Santa Lucía Utatlán 	7	Santa Rita 	1	Enero	2023-05-01T00:00:00	2024-11-08T06:00:00	8	Radiación solar	0
68833	7	Sololá	704	Santa Lucía Utatlán 	7	Santa Rita 	1	Enero	2023-05-01T00:00:00	2024-11-08T07:00:00	2	Temperatura media	17.8
68834	7	Sololá	704	Santa Lucía Utatlán 	7	Santa Rita 	1	Enero	2023-05-01T00:00:00	2024-11-08T07:00:00	4	Temperatura máxima	18
68835	7	Sololá	704	Santa Lucía Utatlán 	7	Santa Rita 	1	Enero	2023-05-01T00:00:00	2024-11-08T07:00:00	3	Temperatura mínima	17.7
68836	7	Sololá	704	Santa Lucía Utatlán 	7	Santa Rita 	1	Enero	2023-05-01T00:00:00	2024-11-08T07:00:00	5	Humedad	77
68837	7	Sololá	704	Santa Lucía Utatlán 	7	Santa Rita 	1	Enero	2023-05-01T00:00:00	2024-11-08T07:00:00	6	Velocidad del viento	6.4
68838	7	Sololá	704	Santa Lucía Utatlán 	7	Santa Rita 	1	Enero	2023-05-01T00:00:00	2024-11-08T07:00:00	7	Dirección del viento	6.44
68839	7	Sololá	704	Santa Lucía Utatlán 	7	Santa Rita 	1	Enero	2023-05-01T00:00:00	2024-11-08T07:00:00	1	Precipitación	0
68840	7	Sololá	704	Santa Lucía Utatlán 	7	Santa Rita 	1	Enero	2023-05-01T00:00:00	2024-11-08T07:00:00	8	Radiación solar	4
68841	7	Sololá	704	Santa Lucía Utatlán 	7	Santa Rita 	1	Enero	2023-05-01T00:00:00	2024-11-08T08:00:00	2	Temperatura media	18.1
68842	7	Sololá	704	Santa Lucía Utatlán 	7	Santa Rita 	1	Enero	2023-05-01T00:00:00	2024-11-08T08:00:00	4	Temperatura máxima	18.4
68843	7	Sololá	704	Santa Lucía Utatlán 	7	Santa Rita 	1	Enero	2023-05-01T00:00:00	2024-11-08T08:00:00	3	Temperatura mínima	17.8
68844	7	Sololá	704	Santa Lucía Utatlán 	7	Santa Rita 	1	Enero	2023-05-01T00:00:00	2024-11-08T08:00:00	5	Humedad	76
68845	7	Sololá	704	Santa Lucía Utatlán 	7	Santa Rita 	1	Enero	2023-05-01T00:00:00	2024-11-08T08:00:00	6	Velocidad del viento	9.7
68846	7	Sololá	704	Santa Lucía Utatlán 	7	Santa Rita 	1	Enero	2023-05-01T00:00:00	2024-11-08T08:00:00	7	Dirección del viento	9.66
68847	7	Sololá	704	Santa Lucía Utatlán 	7	Santa Rita 	1	Enero	2023-05-01T00:00:00	2024-11-08T08:00:00	1	Precipitación	0
68848	7	Sololá	704	Santa Lucía Utatlán 	7	Santa Rita 	1	Enero	2023-05-01T00:00:00	2024-11-08T08:00:00	8	Radiación solar	32
68849	7	Sololá	704	Santa Lucía Utatlán 	7	Santa Rita 	1	Enero	2023-05-01T00:00:00	2024-11-08T09:00:00	2	Temperatura media	18.5
68850	7	Sololá	704	Santa Lucía Utatlán 	7	Santa Rita 	1	Enero	2023-05-01T00:00:00	2024-11-08T09:00:00	4	Temperatura máxima	18.5
68851	7	Sololá	704	Santa Lucía Utatlán 	7	Santa Rita 	1	Enero	2023-05-01T00:00:00	2024-11-08T09:00:00	3	Temperatura mínima	17.3
68852	7	Sololá	704	Santa Lucía Utatlán 	7	Santa Rita 	1	Enero	2023-05-01T00:00:00	2024-11-08T09:00:00	5	Humedad	72
68853	7	Sololá	704	Santa Lucía Utatlán 	7	Santa Rita 	1	Enero	2023-05-01T00:00:00	2024-11-08T09:00:00	6	Velocidad del viento	9.7
68854	7	Sololá	704	Santa Lucía Utatlán 	7	Santa Rita 	1	Enero	2023-05-01T00:00:00	2024-11-08T09:00:00	7	Dirección del viento	9.66
68855	7	Sololá	704	Santa Lucía Utatlán 	7	Santa Rita 	1	Enero	2023-05-01T00:00:00	2024-11-08T09:00:00	1	Precipitación	0
68856	7	Sololá	704	Santa Lucía Utatlán 	7	Santa Rita 	1	Enero	2023-05-01T00:00:00	2024-11-08T09:00:00	8	Radiación solar	133
68857	7	Sololá	704	Santa Lucía Utatlán 	7	Santa Rita 	1	Enero	2023-05-01T00:00:00	2024-11-08T10:00:00	2	Temperatura media	20.4
68858	7	Sololá	704	Santa Lucía Utatlán 	7	Santa Rita 	1	Enero	2023-05-01T00:00:00	2024-11-08T10:00:00	4	Temperatura máxima	20.4
68859	7	Sololá	704	Santa Lucía Utatlán 	7	Santa Rita 	1	Enero	2023-05-01T00:00:00	2024-11-08T10:00:00	3	Temperatura mínima	18.6
68860	7	Sololá	704	Santa Lucía Utatlán 	7	Santa Rita 	1	Enero	2023-05-01T00:00:00	2024-11-08T10:00:00	5	Humedad	56
68861	7	Sololá	704	Santa Lucía Utatlán 	7	Santa Rita 	1	Enero	2023-05-01T00:00:00	2024-11-08T10:00:00	6	Velocidad del viento	12.9
68862	7	Sololá	704	Santa Lucía Utatlán 	7	Santa Rita 	1	Enero	2023-05-01T00:00:00	2024-11-08T10:00:00	7	Dirección del viento	12.87
68863	7	Sololá	704	Santa Lucía Utatlán 	7	Santa Rita 	1	Enero	2023-05-01T00:00:00	2024-11-08T10:00:00	1	Precipitación	0
68864	7	Sololá	704	Santa Lucía Utatlán 	7	Santa Rita 	1	Enero	2023-05-01T00:00:00	2024-11-08T10:00:00	8	Radiación solar	590
68865	7	Sololá	704	Santa Lucía Utatlán 	7	Santa Rita 	1	Enero	2023-05-01T00:00:00	2024-11-08T11:00:00	2	Temperatura media	20.5
68866	7	Sololá	704	Santa Lucía Utatlán 	7	Santa Rita 	1	Enero	2023-05-01T00:00:00	2024-11-08T11:00:00	4	Temperatura máxima	20.6
68867	7	Sololá	704	Santa Lucía Utatlán 	7	Santa Rita 	1	Enero	2023-05-01T00:00:00	2024-11-08T11:00:00	3	Temperatura mínima	19.5
68868	7	Sololá	704	Santa Lucía Utatlán 	7	Santa Rita 	1	Enero	2023-05-01T00:00:00	2024-11-08T11:00:00	5	Humedad	55
68869	7	Sololá	704	Santa Lucía Utatlán 	7	Santa Rita 	1	Enero	2023-05-01T00:00:00	2024-11-08T11:00:00	6	Velocidad del viento	11.3
68870	7	Sololá	704	Santa Lucía Utatlán 	7	Santa Rita 	1	Enero	2023-05-01T00:00:00	2024-11-08T11:00:00	7	Dirección del viento	11.27
68871	7	Sololá	704	Santa Lucía Utatlán 	7	Santa Rita 	1	Enero	2023-05-01T00:00:00	2024-11-08T11:00:00	1	Precipitación	0
68872	7	Sololá	704	Santa Lucía Utatlán 	7	Santa Rita 	1	Enero	2023-05-01T00:00:00	2024-11-08T11:00:00	8	Radiación solar	707
68873	7	Sololá	704	Santa Lucía Utatlán 	7	Santa Rita 	1	Enero	2023-05-01T00:00:00	2024-11-08T12:00:00	2	Temperatura media	21.2
68874	7	Sololá	704	Santa Lucía Utatlán 	7	Santa Rita 	1	Enero	2023-05-01T00:00:00	2024-11-08T12:00:00	4	Temperatura máxima	21.3
68875	7	Sololá	704	Santa Lucía Utatlán 	7	Santa Rita 	1	Enero	2023-05-01T00:00:00	2024-11-08T12:00:00	3	Temperatura mínima	20.4
68876	7	Sololá	704	Santa Lucía Utatlán 	7	Santa Rita 	1	Enero	2023-05-01T00:00:00	2024-11-08T12:00:00	5	Humedad	58
68877	7	Sololá	704	Santa Lucía Utatlán 	7	Santa Rita 	1	Enero	2023-05-01T00:00:00	2024-11-08T12:00:00	6	Velocidad del viento	9.7
68878	7	Sololá	704	Santa Lucía Utatlán 	7	Santa Rita 	1	Enero	2023-05-01T00:00:00	2024-11-08T12:00:00	7	Dirección del viento	9.66
68879	7	Sololá	704	Santa Lucía Utatlán 	7	Santa Rita 	1	Enero	2023-05-01T00:00:00	2024-11-08T12:00:00	1	Precipitación	0
68880	7	Sololá	704	Santa Lucía Utatlán 	7	Santa Rita 	1	Enero	2023-05-01T00:00:00	2024-11-08T12:00:00	8	Radiación solar	863
68881	7	Sololá	704	Santa Lucía Utatlán 	7	Santa Rita 	1	Enero	2023-05-01T00:00:00	2024-11-08T13:00:00	2	Temperatura media	20.8
68882	7	Sololá	704	Santa Lucía Utatlán 	7	Santa Rita 	1	Enero	2023-05-01T00:00:00	2024-11-08T13:00:00	4	Temperatura máxima	21.4
68883	7	Sololá	704	Santa Lucía Utatlán 	7	Santa Rita 	1	Enero	2023-05-01T00:00:00	2024-11-08T13:00:00	3	Temperatura mínima	20.7
68884	7	Sololá	704	Santa Lucía Utatlán 	7	Santa Rita 	1	Enero	2023-05-01T00:00:00	2024-11-08T13:00:00	5	Humedad	58
68885	7	Sololá	704	Santa Lucía Utatlán 	7	Santa Rita 	1	Enero	2023-05-01T00:00:00	2024-11-08T13:00:00	6	Velocidad del viento	11.3
68886	7	Sololá	704	Santa Lucía Utatlán 	7	Santa Rita 	1	Enero	2023-05-01T00:00:00	2024-11-08T13:00:00	7	Dirección del viento	11.27
68887	7	Sololá	704	Santa Lucía Utatlán 	7	Santa Rita 	1	Enero	2023-05-01T00:00:00	2024-11-08T13:00:00	1	Precipitación	0
68888	7	Sololá	704	Santa Lucía Utatlán 	7	Santa Rita 	1	Enero	2023-05-01T00:00:00	2024-11-08T13:00:00	8	Radiación solar	689
68889	7	Sololá	704	Santa Lucía Utatlán 	7	Santa Rita 	1	Enero	2023-05-01T00:00:00	2024-11-08T14:00:00	2	Temperatura media	20.1
68890	7	Sololá	704	Santa Lucía Utatlán 	7	Santa Rita 	1	Enero	2023-05-01T00:00:00	2024-11-08T14:00:00	4	Temperatura máxima	21.3
68891	7	Sololá	704	Santa Lucía Utatlán 	7	Santa Rita 	1	Enero	2023-05-01T00:00:00	2024-11-08T14:00:00	3	Temperatura mínima	19.8
68892	7	Sololá	704	Santa Lucía Utatlán 	7	Santa Rita 	1	Enero	2023-05-01T00:00:00	2024-11-08T14:00:00	5	Humedad	62
68893	7	Sololá	704	Santa Lucía Utatlán 	7	Santa Rita 	1	Enero	2023-05-01T00:00:00	2024-11-08T14:00:00	6	Velocidad del viento	8
68894	7	Sololá	704	Santa Lucía Utatlán 	7	Santa Rita 	1	Enero	2023-05-01T00:00:00	2024-11-08T14:00:00	7	Dirección del viento	8.05
68895	7	Sololá	704	Santa Lucía Utatlán 	7	Santa Rita 	1	Enero	2023-05-01T00:00:00	2024-11-08T14:00:00	1	Precipitación	0
68896	7	Sololá	704	Santa Lucía Utatlán 	7	Santa Rita 	1	Enero	2023-05-01T00:00:00	2024-11-08T14:00:00	8	Radiación solar	375
68897	7	Sololá	704	Santa Lucía Utatlán 	7	Santa Rita 	1	Enero	2023-05-01T00:00:00	2024-11-08T15:00:00	2	Temperatura media	19.4
68898	7	Sololá	704	Santa Lucía Utatlán 	7	Santa Rita 	1	Enero	2023-05-01T00:00:00	2024-11-08T15:00:00	4	Temperatura máxima	20.6
68899	7	Sololá	704	Santa Lucía Utatlán 	7	Santa Rita 	1	Enero	2023-05-01T00:00:00	2024-11-08T15:00:00	3	Temperatura mínima	19.3
68900	7	Sololá	704	Santa Lucía Utatlán 	7	Santa Rita 	1	Enero	2023-05-01T00:00:00	2024-11-08T15:00:00	5	Humedad	66
68901	7	Sololá	704	Santa Lucía Utatlán 	7	Santa Rita 	1	Enero	2023-05-01T00:00:00	2024-11-08T15:00:00	6	Velocidad del viento	4.8
68902	7	Sololá	704	Santa Lucía Utatlán 	7	Santa Rita 	1	Enero	2023-05-01T00:00:00	2024-11-08T15:00:00	7	Dirección del viento	4.83
68903	7	Sololá	704	Santa Lucía Utatlán 	7	Santa Rita 	1	Enero	2023-05-01T00:00:00	2024-11-08T15:00:00	1	Precipitación	0
68904	7	Sololá	704	Santa Lucía Utatlán 	7	Santa Rita 	1	Enero	2023-05-01T00:00:00	2024-11-08T15:00:00	8	Radiación solar	225
68905	7	Sololá	704	Santa Lucía Utatlán 	7	Santa Rita 	1	Enero	2023-05-01T00:00:00	2024-11-08T16:00:00	2	Temperatura media	18.5
68906	7	Sololá	704	Santa Lucía Utatlán 	7	Santa Rita 	1	Enero	2023-05-01T00:00:00	2024-11-08T16:00:00	4	Temperatura máxima	19.8
68907	7	Sololá	704	Santa Lucía Utatlán 	7	Santa Rita 	1	Enero	2023-05-01T00:00:00	2024-11-08T16:00:00	3	Temperatura mínima	18.5
68908	7	Sololá	704	Santa Lucía Utatlán 	7	Santa Rita 	1	Enero	2023-05-01T00:00:00	2024-11-08T16:00:00	5	Humedad	73
68909	7	Sololá	704	Santa Lucía Utatlán 	7	Santa Rita 	1	Enero	2023-05-01T00:00:00	2024-11-08T16:00:00	6	Velocidad del viento	4.8
68910	7	Sololá	704	Santa Lucía Utatlán 	7	Santa Rita 	1	Enero	2023-05-01T00:00:00	2024-11-08T16:00:00	7	Dirección del viento	4.83
68911	7	Sololá	704	Santa Lucía Utatlán 	7	Santa Rita 	1	Enero	2023-05-01T00:00:00	2024-11-08T16:00:00	1	Precipitación	0
68912	7	Sololá	704	Santa Lucía Utatlán 	7	Santa Rita 	1	Enero	2023-05-01T00:00:00	2024-11-08T16:00:00	8	Radiación solar	264
68913	7	Sololá	704	Santa Lucía Utatlán 	7	Santa Rita 	1	Enero	2023-05-01T00:00:00	2024-11-08T17:00:00	2	Temperatura media	17
68914	7	Sololá	704	Santa Lucía Utatlán 	7	Santa Rita 	1	Enero	2023-05-01T00:00:00	2024-11-08T17:00:00	4	Temperatura máxima	18.5
68915	7	Sololá	704	Santa Lucía Utatlán 	7	Santa Rita 	1	Enero	2023-05-01T00:00:00	2024-11-08T17:00:00	3	Temperatura mínima	16.9
68916	7	Sololá	704	Santa Lucía Utatlán 	7	Santa Rita 	1	Enero	2023-05-01T00:00:00	2024-11-08T17:00:00	5	Humedad	84
68917	7	Sololá	704	Santa Lucía Utatlán 	7	Santa Rita 	1	Enero	2023-05-01T00:00:00	2024-11-08T17:00:00	6	Velocidad del viento	4.8
68918	7	Sololá	704	Santa Lucía Utatlán 	7	Santa Rita 	1	Enero	2023-05-01T00:00:00	2024-11-08T17:00:00	7	Dirección del viento	4.83
68919	7	Sololá	704	Santa Lucía Utatlán 	7	Santa Rita 	1	Enero	2023-05-01T00:00:00	2024-11-08T17:00:00	1	Precipitación	0
68920	7	Sololá	704	Santa Lucía Utatlán 	7	Santa Rita 	1	Enero	2023-05-01T00:00:00	2024-11-08T17:00:00	8	Radiación solar	74
68921	7	Sololá	704	Santa Lucía Utatlán 	7	Santa Rita 	1	Enero	2023-05-01T00:00:00	2024-11-08T18:00:00	2	Temperatura media	15.9
68922	7	Sololá	704	Santa Lucía Utatlán 	7	Santa Rita 	1	Enero	2023-05-01T00:00:00	2024-11-08T18:00:00	4	Temperatura máxima	17.1
68923	7	Sololá	704	Santa Lucía Utatlán 	7	Santa Rita 	1	Enero	2023-05-01T00:00:00	2024-11-08T18:00:00	3	Temperatura mínima	15.9
68924	7	Sololá	704	Santa Lucía Utatlán 	7	Santa Rita 	1	Enero	2023-05-01T00:00:00	2024-11-08T18:00:00	5	Humedad	82
68925	7	Sololá	704	Santa Lucía Utatlán 	7	Santa Rita 	1	Enero	2023-05-01T00:00:00	2024-11-08T18:00:00	6	Velocidad del viento	4.8
68926	7	Sololá	704	Santa Lucía Utatlán 	7	Santa Rita 	1	Enero	2023-05-01T00:00:00	2024-11-08T18:00:00	7	Dirección del viento	4.83
68927	7	Sololá	704	Santa Lucía Utatlán 	7	Santa Rita 	1	Enero	2023-05-01T00:00:00	2024-11-08T18:00:00	1	Precipitación	0
68928	7	Sololá	704	Santa Lucía Utatlán 	7	Santa Rita 	1	Enero	2023-05-01T00:00:00	2024-11-08T18:00:00	8	Radiación solar	12
68929	7	Sololá	704	Santa Lucía Utatlán 	7	Santa Rita 	1	Enero	2023-05-01T00:00:00	2024-11-08T19:00:00	2	Temperatura media	16.5
68930	7	Sololá	704	Santa Lucía Utatlán 	7	Santa Rita 	1	Enero	2023-05-01T00:00:00	2024-11-08T19:00:00	4	Temperatura máxima	16.5
68931	7	Sololá	704	Santa Lucía Utatlán 	7	Santa Rita 	1	Enero	2023-05-01T00:00:00	2024-11-08T19:00:00	3	Temperatura mínima	15.9
68932	7	Sololá	704	Santa Lucía Utatlán 	7	Santa Rita 	1	Enero	2023-05-01T00:00:00	2024-11-08T19:00:00	5	Humedad	81
68933	7	Sololá	704	Santa Lucía Utatlán 	7	Santa Rita 	1	Enero	2023-05-01T00:00:00	2024-11-08T19:00:00	6	Velocidad del viento	6.4
68934	7	Sololá	704	Santa Lucía Utatlán 	7	Santa Rita 	1	Enero	2023-05-01T00:00:00	2024-11-08T19:00:00	7	Dirección del viento	6.44
68935	7	Sololá	704	Santa Lucía Utatlán 	7	Santa Rita 	1	Enero	2023-05-01T00:00:00	2024-11-08T19:00:00	1	Precipitación	0
68936	7	Sololá	704	Santa Lucía Utatlán 	7	Santa Rita 	1	Enero	2023-05-01T00:00:00	2024-11-08T19:00:00	8	Radiación solar	0
68937	7	Sololá	704	Santa Lucía Utatlán 	7	Santa Rita 	1	Enero	2023-05-01T00:00:00	2024-11-08T20:00:00	2	Temperatura media	16.4
68938	7	Sololá	704	Santa Lucía Utatlán 	7	Santa Rita 	1	Enero	2023-05-01T00:00:00	2024-11-08T20:00:00	4	Temperatura máxima	16.7
68939	7	Sololá	704	Santa Lucía Utatlán 	7	Santa Rita 	1	Enero	2023-05-01T00:00:00	2024-11-08T20:00:00	3	Temperatura mínima	16.4
68940	7	Sololá	704	Santa Lucía Utatlán 	7	Santa Rita 	1	Enero	2023-05-01T00:00:00	2024-11-08T20:00:00	5	Humedad	81
68941	7	Sololá	704	Santa Lucía Utatlán 	7	Santa Rita 	1	Enero	2023-05-01T00:00:00	2024-11-08T20:00:00	6	Velocidad del viento	4.8
68942	7	Sololá	704	Santa Lucía Utatlán 	7	Santa Rita 	1	Enero	2023-05-01T00:00:00	2024-11-08T20:00:00	7	Dirección del viento	4.83
68943	7	Sololá	704	Santa Lucía Utatlán 	7	Santa Rita 	1	Enero	2023-05-01T00:00:00	2024-11-08T20:00:00	1	Precipitación	0
68944	7	Sololá	704	Santa Lucía Utatlán 	7	Santa Rita 	1	Enero	2023-05-01T00:00:00	2024-11-08T20:00:00	8	Radiación solar	0
68945	7	Sololá	704	Santa Lucía Utatlán 	7	Santa Rita 	1	Enero	2023-05-01T00:00:00	2024-11-08T21:00:00	2	Temperatura media	16.2
68946	7	Sololá	704	Santa Lucía Utatlán 	7	Santa Rita 	1	Enero	2023-05-01T00:00:00	2024-11-08T21:00:00	4	Temperatura máxima	16.4
68947	7	Sololá	704	Santa Lucía Utatlán 	7	Santa Rita 	1	Enero	2023-05-01T00:00:00	2024-11-08T21:00:00	3	Temperatura mínima	16.1
68948	7	Sololá	704	Santa Lucía Utatlán 	7	Santa Rita 	1	Enero	2023-05-01T00:00:00	2024-11-08T21:00:00	5	Humedad	78
68949	7	Sololá	704	Santa Lucía Utatlán 	7	Santa Rita 	1	Enero	2023-05-01T00:00:00	2024-11-08T21:00:00	6	Velocidad del viento	3.2
68950	7	Sololá	704	Santa Lucía Utatlán 	7	Santa Rita 	1	Enero	2023-05-01T00:00:00	2024-11-08T21:00:00	7	Dirección del viento	3.22
68951	7	Sololá	704	Santa Lucía Utatlán 	7	Santa Rita 	1	Enero	2023-05-01T00:00:00	2024-11-08T21:00:00	1	Precipitación	0
68952	7	Sololá	704	Santa Lucía Utatlán 	7	Santa Rita 	1	Enero	2023-05-01T00:00:00	2024-11-08T21:00:00	8	Radiación solar	0
68953	7	Sololá	704	Santa Lucía Utatlán 	7	Santa Rita 	1	Enero	2023-05-01T00:00:00	2024-11-08T22:00:00	2	Temperatura media	16.1
68954	7	Sololá	704	Santa Lucía Utatlán 	7	Santa Rita 	1	Enero	2023-05-01T00:00:00	2024-11-08T22:00:00	4	Temperatura máxima	16.4
68955	7	Sololá	704	Santa Lucía Utatlán 	7	Santa Rita 	1	Enero	2023-05-01T00:00:00	2024-11-08T22:00:00	3	Temperatura mínima	15.9
68956	7	Sololá	704	Santa Lucía Utatlán 	7	Santa Rita 	1	Enero	2023-05-01T00:00:00	2024-11-08T22:00:00	5	Humedad	69
68957	7	Sololá	704	Santa Lucía Utatlán 	7	Santa Rita 	1	Enero	2023-05-01T00:00:00	2024-11-08T22:00:00	6	Velocidad del viento	6.4
68958	7	Sololá	704	Santa Lucía Utatlán 	7	Santa Rita 	1	Enero	2023-05-01T00:00:00	2024-11-08T22:00:00	7	Dirección del viento	6.44
68959	7	Sololá	704	Santa Lucía Utatlán 	7	Santa Rita 	1	Enero	2023-05-01T00:00:00	2024-11-08T22:00:00	1	Precipitación	0
68960	7	Sololá	704	Santa Lucía Utatlán 	7	Santa Rita 	1	Enero	2023-05-01T00:00:00	2024-11-08T22:00:00	8	Radiación solar	0
68961	7	Sololá	704	Santa Lucía Utatlán 	7	Santa Rita 	1	Enero	2023-05-01T00:00:00	2024-11-08T23:00:00	2	Temperatura media	16.4
68962	7	Sololá	704	Santa Lucía Utatlán 	7	Santa Rita 	1	Enero	2023-05-01T00:00:00	2024-11-08T23:00:00	4	Temperatura máxima	16.6
68963	7	Sololá	704	Santa Lucía Utatlán 	7	Santa Rita 	1	Enero	2023-05-01T00:00:00	2024-11-08T23:00:00	3	Temperatura mínima	15.8
68964	7	Sololá	704	Santa Lucía Utatlán 	7	Santa Rita 	1	Enero	2023-05-01T00:00:00	2024-11-08T23:00:00	5	Humedad	59
68965	7	Sololá	704	Santa Lucía Utatlán 	7	Santa Rita 	1	Enero	2023-05-01T00:00:00	2024-11-08T23:00:00	6	Velocidad del viento	6.4
68966	7	Sololá	704	Santa Lucía Utatlán 	7	Santa Rita 	1	Enero	2023-05-01T00:00:00	2024-11-08T23:00:00	7	Dirección del viento	6.44
68967	7	Sololá	704	Santa Lucía Utatlán 	7	Santa Rita 	1	Enero	2023-05-01T00:00:00	2024-11-08T23:00:00	1	Precipitación	0
68968	7	Sololá	704	Santa Lucía Utatlán 	7	Santa Rita 	1	Enero	2023-05-01T00:00:00	2024-11-08T23:00:00	8	Radiación solar	0
68969	7	Sololá	704	Santa Lucía Utatlán 	7	Santa Rita 	1	Enero	2023-06-01T00:00:00	2024-11-08T00:00:00	2	Temperatura media	16.5
68970	7	Sololá	704	Santa Lucía Utatlán 	7	Santa Rita 	1	Enero	2023-06-01T00:00:00	2024-11-08T00:00:00	4	Temperatura máxima	16.6
68971	7	Sololá	704	Santa Lucía Utatlán 	7	Santa Rita 	1	Enero	2023-06-01T00:00:00	2024-11-08T00:00:00	3	Temperatura mínima	16.3
68972	7	Sololá	704	Santa Lucía Utatlán 	7	Santa Rita 	1	Enero	2023-06-01T00:00:00	2024-11-08T00:00:00	5	Humedad	59
68973	7	Sololá	704	Santa Lucía Utatlán 	7	Santa Rita 	1	Enero	2023-06-01T00:00:00	2024-11-08T00:00:00	6	Velocidad del viento	11.3
68974	7	Sololá	704	Santa Lucía Utatlán 	7	Santa Rita 	1	Enero	2023-06-01T00:00:00	2024-11-08T00:00:00	7	Dirección del viento	11.27
68975	7	Sololá	704	Santa Lucía Utatlán 	7	Santa Rita 	1	Enero	2023-06-01T00:00:00	2024-11-08T00:00:00	1	Precipitación	0
68976	7	Sololá	704	Santa Lucía Utatlán 	7	Santa Rita 	1	Enero	2023-06-01T00:00:00	2024-11-08T00:00:00	8	Radiación solar	0
68977	7	Sololá	704	Santa Lucía Utatlán 	7	Santa Rita 	1	Enero	2023-06-01T00:00:00	2024-11-08T01:00:00	2	Temperatura media	15.9
68978	7	Sololá	704	Santa Lucía Utatlán 	7	Santa Rita 	1	Enero	2023-06-01T00:00:00	2024-11-08T01:00:00	4	Temperatura máxima	16.4
68979	7	Sololá	704	Santa Lucía Utatlán 	7	Santa Rita 	1	Enero	2023-06-01T00:00:00	2024-11-08T01:00:00	3	Temperatura mínima	15.9
68980	7	Sololá	704	Santa Lucía Utatlán 	7	Santa Rita 	1	Enero	2023-06-01T00:00:00	2024-11-08T01:00:00	5	Humedad	58
68981	7	Sololá	704	Santa Lucía Utatlán 	7	Santa Rita 	1	Enero	2023-06-01T00:00:00	2024-11-08T01:00:00	6	Velocidad del viento	9.7
68982	7	Sololá	704	Santa Lucía Utatlán 	7	Santa Rita 	1	Enero	2023-06-01T00:00:00	2024-11-08T01:00:00	7	Dirección del viento	9.66
68983	7	Sololá	704	Santa Lucía Utatlán 	7	Santa Rita 	1	Enero	2023-06-01T00:00:00	2024-11-08T01:00:00	1	Precipitación	0
68984	7	Sololá	704	Santa Lucía Utatlán 	7	Santa Rita 	1	Enero	2023-06-01T00:00:00	2024-11-08T01:00:00	8	Radiación solar	0
68985	7	Sololá	704	Santa Lucía Utatlán 	7	Santa Rita 	1	Enero	2023-06-01T00:00:00	2024-11-08T02:00:00	2	Temperatura media	15.8
68986	7	Sololá	704	Santa Lucía Utatlán 	7	Santa Rita 	1	Enero	2023-06-01T00:00:00	2024-11-08T02:00:00	4	Temperatura máxima	16.4
68987	7	Sololá	704	Santa Lucía Utatlán 	7	Santa Rita 	1	Enero	2023-06-01T00:00:00	2024-11-08T02:00:00	3	Temperatura mínima	15.7
68988	7	Sololá	704	Santa Lucía Utatlán 	7	Santa Rita 	1	Enero	2023-06-01T00:00:00	2024-11-08T02:00:00	5	Humedad	56
68989	7	Sololá	704	Santa Lucía Utatlán 	7	Santa Rita 	1	Enero	2023-06-01T00:00:00	2024-11-08T02:00:00	6	Velocidad del viento	8
68990	7	Sololá	704	Santa Lucía Utatlán 	7	Santa Rita 	1	Enero	2023-06-01T00:00:00	2024-11-08T02:00:00	7	Dirección del viento	8.05
68991	7	Sololá	704	Santa Lucía Utatlán 	7	Santa Rita 	1	Enero	2023-06-01T00:00:00	2024-11-08T02:00:00	1	Precipitación	0
68992	7	Sololá	704	Santa Lucía Utatlán 	7	Santa Rita 	1	Enero	2023-06-01T00:00:00	2024-11-08T02:00:00	8	Radiación solar	0
68993	7	Sololá	704	Santa Lucía Utatlán 	7	Santa Rita 	1	Enero	2023-06-01T00:00:00	2024-11-08T03:00:00	2	Temperatura media	16.2
68994	7	Sololá	704	Santa Lucía Utatlán 	7	Santa Rita 	1	Enero	2023-06-01T00:00:00	2024-11-08T03:00:00	4	Temperatura máxima	16.3
68995	7	Sololá	704	Santa Lucía Utatlán 	7	Santa Rita 	1	Enero	2023-06-01T00:00:00	2024-11-08T03:00:00	3	Temperatura mínima	15.8
68996	7	Sololá	704	Santa Lucía Utatlán 	7	Santa Rita 	1	Enero	2023-06-01T00:00:00	2024-11-08T03:00:00	5	Humedad	52
68997	7	Sololá	704	Santa Lucía Utatlán 	7	Santa Rita 	1	Enero	2023-06-01T00:00:00	2024-11-08T03:00:00	6	Velocidad del viento	6.4
68998	7	Sololá	704	Santa Lucía Utatlán 	7	Santa Rita 	1	Enero	2023-06-01T00:00:00	2024-11-08T03:00:00	7	Dirección del viento	6.44
68999	7	Sololá	704	Santa Lucía Utatlán 	7	Santa Rita 	1	Enero	2023-06-01T00:00:00	2024-11-08T03:00:00	1	Precipitación	0
69000	7	Sololá	704	Santa Lucía Utatlán 	7	Santa Rita 	1	Enero	2023-06-01T00:00:00	2024-11-08T03:00:00	8	Radiación solar	0
69001	7	Sololá	704	Santa Lucía Utatlán 	7	Santa Rita 	1	Enero	2023-06-01T00:00:00	2024-11-08T04:00:00	2	Temperatura media	16.2
69002	7	Sololá	704	Santa Lucía Utatlán 	7	Santa Rita 	1	Enero	2023-06-01T00:00:00	2024-11-08T04:00:00	4	Temperatura máxima	16.2
69003	7	Sololá	704	Santa Lucía Utatlán 	7	Santa Rita 	1	Enero	2023-06-01T00:00:00	2024-11-08T04:00:00	3	Temperatura mínima	15.3
69004	7	Sololá	704	Santa Lucía Utatlán 	7	Santa Rita 	1	Enero	2023-06-01T00:00:00	2024-11-08T04:00:00	5	Humedad	51
69005	7	Sololá	704	Santa Lucía Utatlán 	7	Santa Rita 	1	Enero	2023-06-01T00:00:00	2024-11-08T04:00:00	6	Velocidad del viento	4.8
69006	7	Sololá	704	Santa Lucía Utatlán 	7	Santa Rita 	1	Enero	2023-06-01T00:00:00	2024-11-08T04:00:00	7	Dirección del viento	4.83
69007	7	Sololá	704	Santa Lucía Utatlán 	7	Santa Rita 	1	Enero	2023-06-01T00:00:00	2024-11-08T04:00:00	1	Precipitación	0
69008	7	Sololá	704	Santa Lucía Utatlán 	7	Santa Rita 	1	Enero	2023-06-01T00:00:00	2024-11-08T04:00:00	8	Radiación solar	0
69009	7	Sololá	704	Santa Lucía Utatlán 	7	Santa Rita 	1	Enero	2023-06-01T00:00:00	2024-11-08T05:00:00	2	Temperatura media	14.7
69010	7	Sololá	704	Santa Lucía Utatlán 	7	Santa Rita 	1	Enero	2023-06-01T00:00:00	2024-11-08T05:00:00	4	Temperatura máxima	16.3
69011	7	Sololá	704	Santa Lucía Utatlán 	7	Santa Rita 	1	Enero	2023-06-01T00:00:00	2024-11-08T05:00:00	3	Temperatura mínima	13.3
69012	7	Sololá	704	Santa Lucía Utatlán 	7	Santa Rita 	1	Enero	2023-06-01T00:00:00	2024-11-08T05:00:00	5	Humedad	53
69013	7	Sololá	704	Santa Lucía Utatlán 	7	Santa Rita 	1	Enero	2023-06-01T00:00:00	2024-11-08T05:00:00	6	Velocidad del viento	6.4
69014	7	Sololá	704	Santa Lucía Utatlán 	7	Santa Rita 	1	Enero	2023-06-01T00:00:00	2024-11-08T05:00:00	7	Dirección del viento	6.44
69015	7	Sololá	704	Santa Lucía Utatlán 	7	Santa Rita 	1	Enero	2023-06-01T00:00:00	2024-11-08T05:00:00	1	Precipitación	0
69016	7	Sololá	704	Santa Lucía Utatlán 	7	Santa Rita 	1	Enero	2023-06-01T00:00:00	2024-11-08T05:00:00	8	Radiación solar	0
69017	7	Sololá	704	Santa Lucía Utatlán 	7	Santa Rita 	1	Enero	2023-06-01T00:00:00	2024-11-08T06:00:00	2	Temperatura media	12.3
69018	7	Sololá	704	Santa Lucía Utatlán 	7	Santa Rita 	1	Enero	2023-06-01T00:00:00	2024-11-08T06:00:00	4	Temperatura máxima	15.3
69019	7	Sololá	704	Santa Lucía Utatlán 	7	Santa Rita 	1	Enero	2023-06-01T00:00:00	2024-11-08T06:00:00	3	Temperatura mínima	12.2
69020	7	Sololá	704	Santa Lucía Utatlán 	7	Santa Rita 	1	Enero	2023-06-01T00:00:00	2024-11-08T06:00:00	5	Humedad	65
69021	7	Sololá	704	Santa Lucía Utatlán 	7	Santa Rita 	1	Enero	2023-06-01T00:00:00	2024-11-08T06:00:00	6	Velocidad del viento	3.2
69022	7	Sololá	704	Santa Lucía Utatlán 	7	Santa Rita 	1	Enero	2023-06-01T00:00:00	2024-11-08T06:00:00	7	Dirección del viento	3.22
69023	7	Sololá	704	Santa Lucía Utatlán 	7	Santa Rita 	1	Enero	2023-06-01T00:00:00	2024-11-08T06:00:00	1	Precipitación	0
69024	7	Sololá	704	Santa Lucía Utatlán 	7	Santa Rita 	1	Enero	2023-06-01T00:00:00	2024-11-08T06:00:00	8	Radiación solar	0
69025	7	Sololá	704	Santa Lucía Utatlán 	7	Santa Rita 	1	Enero	2023-06-01T00:00:00	2024-11-08T07:00:00	2	Temperatura media	12.4
69026	7	Sololá	704	Santa Lucía Utatlán 	7	Santa Rita 	1	Enero	2023-06-01T00:00:00	2024-11-08T07:00:00	4	Temperatura máxima	13.9
69027	7	Sololá	704	Santa Lucía Utatlán 	7	Santa Rita 	1	Enero	2023-06-01T00:00:00	2024-11-08T07:00:00	3	Temperatura mínima	12.2
69028	7	Sololá	704	Santa Lucía Utatlán 	7	Santa Rita 	1	Enero	2023-06-01T00:00:00	2024-11-08T07:00:00	5	Humedad	65
69029	7	Sololá	704	Santa Lucía Utatlán 	7	Santa Rita 	1	Enero	2023-06-01T00:00:00	2024-11-08T07:00:00	6	Velocidad del viento	3.2
69030	7	Sololá	704	Santa Lucía Utatlán 	7	Santa Rita 	1	Enero	2023-06-01T00:00:00	2024-11-08T07:00:00	7	Dirección del viento	3.22
69031	7	Sololá	704	Santa Lucía Utatlán 	7	Santa Rita 	1	Enero	2023-06-01T00:00:00	2024-11-08T07:00:00	1	Precipitación	0
69032	7	Sololá	704	Santa Lucía Utatlán 	7	Santa Rita 	1	Enero	2023-06-01T00:00:00	2024-11-08T07:00:00	8	Radiación solar	5
69033	7	Sololá	704	Santa Lucía Utatlán 	7	Santa Rita 	1	Enero	2023-06-01T00:00:00	2024-11-08T08:00:00	2	Temperatura media	18.2
69034	7	Sololá	704	Santa Lucía Utatlán 	7	Santa Rita 	1	Enero	2023-06-01T00:00:00	2024-11-08T08:00:00	4	Temperatura máxima	18.2
69035	7	Sololá	704	Santa Lucía Utatlán 	7	Santa Rita 	1	Enero	2023-06-01T00:00:00	2024-11-08T08:00:00	3	Temperatura mínima	12.5
69036	7	Sololá	704	Santa Lucía Utatlán 	7	Santa Rita 	1	Enero	2023-06-01T00:00:00	2024-11-08T08:00:00	5	Humedad	47
69037	7	Sololá	704	Santa Lucía Utatlán 	7	Santa Rita 	1	Enero	2023-06-01T00:00:00	2024-11-08T08:00:00	6	Velocidad del viento	6.4
69038	7	Sololá	704	Santa Lucía Utatlán 	7	Santa Rita 	1	Enero	2023-06-01T00:00:00	2024-11-08T08:00:00	7	Dirección del viento	6.44
69039	7	Sololá	704	Santa Lucía Utatlán 	7	Santa Rita 	1	Enero	2023-06-01T00:00:00	2024-11-08T08:00:00	1	Precipitación	0
69040	7	Sololá	704	Santa Lucía Utatlán 	7	Santa Rita 	1	Enero	2023-06-01T00:00:00	2024-11-08T08:00:00	8	Radiación solar	132
69041	7	Sololá	704	Santa Lucía Utatlán 	7	Santa Rita 	1	Enero	2023-06-01T00:00:00	2024-11-08T09:00:00	2	Temperatura media	19.4
69042	7	Sololá	704	Santa Lucía Utatlán 	7	Santa Rita 	1	Enero	2023-06-01T00:00:00	2024-11-08T09:00:00	4	Temperatura máxima	19.4
69043	7	Sololá	704	Santa Lucía Utatlán 	7	Santa Rita 	1	Enero	2023-06-01T00:00:00	2024-11-08T09:00:00	3	Temperatura mínima	18.2
69044	7	Sololá	704	Santa Lucía Utatlán 	7	Santa Rita 	1	Enero	2023-06-01T00:00:00	2024-11-08T09:00:00	5	Humedad	43
69045	7	Sololá	704	Santa Lucía Utatlán 	7	Santa Rita 	1	Enero	2023-06-01T00:00:00	2024-11-08T09:00:00	6	Velocidad del viento	9.7
69046	7	Sololá	704	Santa Lucía Utatlán 	7	Santa Rita 	1	Enero	2023-06-01T00:00:00	2024-11-08T09:00:00	7	Dirección del viento	9.66
69047	7	Sololá	704	Santa Lucía Utatlán 	7	Santa Rita 	1	Enero	2023-06-01T00:00:00	2024-11-08T09:00:00	1	Precipitación	0
69048	7	Sololá	704	Santa Lucía Utatlán 	7	Santa Rita 	1	Enero	2023-06-01T00:00:00	2024-11-08T09:00:00	8	Radiación solar	367
69049	7	Sololá	704	Santa Lucía Utatlán 	7	Santa Rita 	1	Enero	2023-06-01T00:00:00	2024-11-08T10:00:00	2	Temperatura media	20.9
69050	7	Sololá	704	Santa Lucía Utatlán 	7	Santa Rita 	1	Enero	2023-06-01T00:00:00	2024-11-08T10:00:00	4	Temperatura máxima	20.9
69051	7	Sololá	704	Santa Lucía Utatlán 	7	Santa Rita 	1	Enero	2023-06-01T00:00:00	2024-11-08T10:00:00	3	Temperatura mínima	19.4
69052	7	Sololá	704	Santa Lucía Utatlán 	7	Santa Rita 	1	Enero	2023-06-01T00:00:00	2024-11-08T10:00:00	5	Humedad	50
69053	7	Sololá	704	Santa Lucía Utatlán 	7	Santa Rita 	1	Enero	2023-06-01T00:00:00	2024-11-08T10:00:00	6	Velocidad del viento	8
69054	7	Sololá	704	Santa Lucía Utatlán 	7	Santa Rita 	1	Enero	2023-06-01T00:00:00	2024-11-08T10:00:00	7	Dirección del viento	8.05
69055	7	Sololá	704	Santa Lucía Utatlán 	7	Santa Rita 	1	Enero	2023-06-01T00:00:00	2024-11-08T10:00:00	1	Precipitación	0
69056	7	Sololá	704	Santa Lucía Utatlán 	7	Santa Rita 	1	Enero	2023-06-01T00:00:00	2024-11-08T10:00:00	8	Radiación solar	563
69057	7	Sololá	704	Santa Lucía Utatlán 	7	Santa Rita 	1	Enero	2023-06-01T00:00:00	2024-11-08T11:00:00	2	Temperatura media	22.1
69058	7	Sololá	704	Santa Lucía Utatlán 	7	Santa Rita 	1	Enero	2023-06-01T00:00:00	2024-11-08T11:00:00	4	Temperatura máxima	22.2
69059	7	Sololá	704	Santa Lucía Utatlán 	7	Santa Rita 	1	Enero	2023-06-01T00:00:00	2024-11-08T11:00:00	3	Temperatura mínima	20.9
69060	7	Sololá	704	Santa Lucía Utatlán 	7	Santa Rita 	1	Enero	2023-06-01T00:00:00	2024-11-08T11:00:00	5	Humedad	37
69061	7	Sololá	704	Santa Lucía Utatlán 	7	Santa Rita 	1	Enero	2023-06-01T00:00:00	2024-11-08T11:00:00	6	Velocidad del viento	6.4
69062	7	Sololá	704	Santa Lucía Utatlán 	7	Santa Rita 	1	Enero	2023-06-01T00:00:00	2024-11-08T11:00:00	7	Dirección del viento	6.44
69063	7	Sololá	704	Santa Lucía Utatlán 	7	Santa Rita 	1	Enero	2023-06-01T00:00:00	2024-11-08T11:00:00	1	Precipitación	0
69064	7	Sololá	704	Santa Lucía Utatlán 	7	Santa Rita 	1	Enero	2023-06-01T00:00:00	2024-11-08T11:00:00	8	Radiación solar	710
69065	7	Sololá	704	Santa Lucía Utatlán 	7	Santa Rita 	1	Enero	2023-06-01T00:00:00	2024-11-08T12:00:00	2	Temperatura media	22.8
69066	7	Sololá	704	Santa Lucía Utatlán 	7	Santa Rita 	1	Enero	2023-06-01T00:00:00	2024-11-08T12:00:00	4	Temperatura máxima	22.9
69067	7	Sololá	704	Santa Lucía Utatlán 	7	Santa Rita 	1	Enero	2023-06-01T00:00:00	2024-11-08T12:00:00	3	Temperatura mínima	21.9
69068	7	Sololá	704	Santa Lucía Utatlán 	7	Santa Rita 	1	Enero	2023-06-01T00:00:00	2024-11-08T12:00:00	5	Humedad	34
69069	7	Sololá	704	Santa Lucía Utatlán 	7	Santa Rita 	1	Enero	2023-06-01T00:00:00	2024-11-08T12:00:00	6	Velocidad del viento	8
69070	7	Sololá	704	Santa Lucía Utatlán 	7	Santa Rita 	1	Enero	2023-06-01T00:00:00	2024-11-08T12:00:00	7	Dirección del viento	8.05
69071	7	Sololá	704	Santa Lucía Utatlán 	7	Santa Rita 	1	Enero	2023-06-01T00:00:00	2024-11-08T12:00:00	1	Precipitación	0
69072	7	Sololá	704	Santa Lucía Utatlán 	7	Santa Rita 	1	Enero	2023-06-01T00:00:00	2024-11-08T12:00:00	8	Radiación solar	793
69073	7	Sololá	704	Santa Lucía Utatlán 	7	Santa Rita 	1	Enero	2023-06-01T00:00:00	2024-11-08T13:00:00	2	Temperatura media	23.1
69074	7	Sololá	704	Santa Lucía Utatlán 	7	Santa Rita 	1	Enero	2023-06-01T00:00:00	2024-11-08T13:00:00	4	Temperatura máxima	23.3
69075	7	Sololá	704	Santa Lucía Utatlán 	7	Santa Rita 	1	Enero	2023-06-01T00:00:00	2024-11-08T13:00:00	3	Temperatura mínima	22.5
69076	7	Sololá	704	Santa Lucía Utatlán 	7	Santa Rita 	1	Enero	2023-06-01T00:00:00	2024-11-08T13:00:00	5	Humedad	40
69077	7	Sololá	704	Santa Lucía Utatlán 	7	Santa Rita 	1	Enero	2023-06-01T00:00:00	2024-11-08T13:00:00	6	Velocidad del viento	9.7
69078	7	Sololá	704	Santa Lucía Utatlán 	7	Santa Rita 	1	Enero	2023-06-01T00:00:00	2024-11-08T13:00:00	7	Dirección del viento	9.66
69079	7	Sololá	704	Santa Lucía Utatlán 	7	Santa Rita 	1	Enero	2023-06-01T00:00:00	2024-11-08T13:00:00	1	Precipitación	0
69080	7	Sololá	704	Santa Lucía Utatlán 	7	Santa Rita 	1	Enero	2023-06-01T00:00:00	2024-11-08T13:00:00	8	Radiación solar	806
69081	7	Sololá	704	Santa Lucía Utatlán 	7	Santa Rita 	1	Enero	2023-06-01T00:00:00	2024-11-08T14:00:00	2	Temperatura media	22.6
69082	7	Sololá	704	Santa Lucía Utatlán 	7	Santa Rita 	1	Enero	2023-06-01T00:00:00	2024-11-08T14:00:00	4	Temperatura máxima	23.2
69083	7	Sololá	704	Santa Lucía Utatlán 	7	Santa Rita 	1	Enero	2023-06-01T00:00:00	2024-11-08T14:00:00	3	Temperatura mínima	22.3
69084	7	Sololá	704	Santa Lucía Utatlán 	7	Santa Rita 	1	Enero	2023-06-01T00:00:00	2024-11-08T14:00:00	5	Humedad	44
69085	7	Sololá	704	Santa Lucía Utatlán 	7	Santa Rita 	1	Enero	2023-06-01T00:00:00	2024-11-08T14:00:00	6	Velocidad del viento	8
69086	7	Sololá	704	Santa Lucía Utatlán 	7	Santa Rita 	1	Enero	2023-06-01T00:00:00	2024-11-08T14:00:00	7	Dirección del viento	8.05
69087	7	Sololá	704	Santa Lucía Utatlán 	7	Santa Rita 	1	Enero	2023-06-01T00:00:00	2024-11-08T14:00:00	1	Precipitación	0
69088	7	Sololá	704	Santa Lucía Utatlán 	7	Santa Rita 	1	Enero	2023-06-01T00:00:00	2024-11-08T14:00:00	8	Radiación solar	746
69089	7	Sololá	704	Santa Lucía Utatlán 	7	Santa Rita 	1	Enero	2023-06-01T00:00:00	2024-11-08T15:00:00	2	Temperatura media	21.8
69090	7	Sololá	704	Santa Lucía Utatlán 	7	Santa Rita 	1	Enero	2023-06-01T00:00:00	2024-11-08T15:00:00	4	Temperatura máxima	23.1
69091	7	Sololá	704	Santa Lucía Utatlán 	7	Santa Rita 	1	Enero	2023-06-01T00:00:00	2024-11-08T15:00:00	3	Temperatura mínima	21.7
69092	7	Sololá	704	Santa Lucía Utatlán 	7	Santa Rita 	1	Enero	2023-06-01T00:00:00	2024-11-08T15:00:00	5	Humedad	50
69093	7	Sololá	704	Santa Lucía Utatlán 	7	Santa Rita 	1	Enero	2023-06-01T00:00:00	2024-11-08T15:00:00	6	Velocidad del viento	9.7
69094	7	Sololá	704	Santa Lucía Utatlán 	7	Santa Rita 	1	Enero	2023-06-01T00:00:00	2024-11-08T15:00:00	7	Dirección del viento	9.66
69095	7	Sololá	704	Santa Lucía Utatlán 	7	Santa Rita 	1	Enero	2023-06-01T00:00:00	2024-11-08T15:00:00	1	Precipitación	0
69096	7	Sololá	704	Santa Lucía Utatlán 	7	Santa Rita 	1	Enero	2023-06-01T00:00:00	2024-11-08T15:00:00	8	Radiación solar	622
69097	7	Sololá	704	Santa Lucía Utatlán 	7	Santa Rita 	1	Enero	2023-06-01T00:00:00	2024-11-08T16:00:00	2	Temperatura media	20.6
69098	7	Sololá	704	Santa Lucía Utatlán 	7	Santa Rita 	1	Enero	2023-06-01T00:00:00	2024-11-08T16:00:00	4	Temperatura máxima	22.2
69099	7	Sololá	704	Santa Lucía Utatlán 	7	Santa Rita 	1	Enero	2023-06-01T00:00:00	2024-11-08T16:00:00	3	Temperatura mínima	20.6
69100	7	Sololá	704	Santa Lucía Utatlán 	7	Santa Rita 	1	Enero	2023-06-01T00:00:00	2024-11-08T16:00:00	5	Humedad	56
69101	7	Sololá	704	Santa Lucía Utatlán 	7	Santa Rita 	1	Enero	2023-06-01T00:00:00	2024-11-08T16:00:00	6	Velocidad del viento	8
69102	7	Sololá	704	Santa Lucía Utatlán 	7	Santa Rita 	1	Enero	2023-06-01T00:00:00	2024-11-08T16:00:00	7	Dirección del viento	8.05
69103	7	Sololá	704	Santa Lucía Utatlán 	7	Santa Rita 	1	Enero	2023-06-01T00:00:00	2024-11-08T16:00:00	1	Precipitación	0
69104	7	Sololá	704	Santa Lucía Utatlán 	7	Santa Rita 	1	Enero	2023-06-01T00:00:00	2024-11-08T16:00:00	8	Radiación solar	441
69105	7	Sololá	704	Santa Lucía Utatlán 	7	Santa Rita 	1	Enero	2023-06-01T00:00:00	2024-11-08T17:00:00	2	Temperatura media	19.3
69106	7	Sololá	704	Santa Lucía Utatlán 	7	Santa Rita 	1	Enero	2023-06-01T00:00:00	2024-11-08T17:00:00	4	Temperatura máxima	20.9
69107	7	Sololá	704	Santa Lucía Utatlán 	7	Santa Rita 	1	Enero	2023-06-01T00:00:00	2024-11-08T17:00:00	3	Temperatura mínima	19.3
69108	7	Sololá	704	Santa Lucía Utatlán 	7	Santa Rita 	1	Enero	2023-06-01T00:00:00	2024-11-08T17:00:00	5	Humedad	65
69109	7	Sololá	704	Santa Lucía Utatlán 	7	Santa Rita 	1	Enero	2023-06-01T00:00:00	2024-11-08T17:00:00	6	Velocidad del viento	8
69110	7	Sololá	704	Santa Lucía Utatlán 	7	Santa Rita 	1	Enero	2023-06-01T00:00:00	2024-11-08T17:00:00	7	Dirección del viento	8.05
69111	7	Sololá	704	Santa Lucía Utatlán 	7	Santa Rita 	1	Enero	2023-06-01T00:00:00	2024-11-08T17:00:00	1	Precipitación	0
69112	7	Sololá	704	Santa Lucía Utatlán 	7	Santa Rita 	1	Enero	2023-06-01T00:00:00	2024-11-08T17:00:00	8	Radiación solar	182
69113	7	Sololá	704	Santa Lucía Utatlán 	7	Santa Rita 	1	Enero	2023-06-01T00:00:00	2024-11-08T18:00:00	2	Temperatura media	17.4
69114	7	Sololá	704	Santa Lucía Utatlán 	7	Santa Rita 	1	Enero	2023-06-01T00:00:00	2024-11-08T18:00:00	4	Temperatura máxima	19.3
69115	7	Sololá	704	Santa Lucía Utatlán 	7	Santa Rita 	1	Enero	2023-06-01T00:00:00	2024-11-08T18:00:00	3	Temperatura mínima	17.4
69116	7	Sololá	704	Santa Lucía Utatlán 	7	Santa Rita 	1	Enero	2023-06-01T00:00:00	2024-11-08T18:00:00	5	Humedad	69
69117	7	Sololá	704	Santa Lucía Utatlán 	7	Santa Rita 	1	Enero	2023-06-01T00:00:00	2024-11-08T18:00:00	6	Velocidad del viento	4.8
69118	7	Sololá	704	Santa Lucía Utatlán 	7	Santa Rita 	1	Enero	2023-06-01T00:00:00	2024-11-08T18:00:00	7	Dirección del viento	4.83
69119	7	Sololá	704	Santa Lucía Utatlán 	7	Santa Rita 	1	Enero	2023-06-01T00:00:00	2024-11-08T18:00:00	1	Precipitación	0
69120	7	Sololá	704	Santa Lucía Utatlán 	7	Santa Rita 	1	Enero	2023-06-01T00:00:00	2024-11-08T18:00:00	8	Radiación solar	19
69121	7	Sololá	704	Santa Lucía Utatlán 	7	Santa Rita 	1	Enero	2023-06-01T00:00:00	2024-11-08T19:00:00	2	Temperatura media	17.3
69122	7	Sololá	704	Santa Lucía Utatlán 	7	Santa Rita 	1	Enero	2023-06-01T00:00:00	2024-11-08T19:00:00	4	Temperatura máxima	17.4
69123	7	Sololá	704	Santa Lucía Utatlán 	7	Santa Rita 	1	Enero	2023-06-01T00:00:00	2024-11-08T19:00:00	3	Temperatura mínima	16.9
69124	7	Sololá	704	Santa Lucía Utatlán 	7	Santa Rita 	1	Enero	2023-06-01T00:00:00	2024-11-08T19:00:00	5	Humedad	69
69125	7	Sololá	704	Santa Lucía Utatlán 	7	Santa Rita 	1	Enero	2023-06-01T00:00:00	2024-11-08T19:00:00	6	Velocidad del viento	4.8
69126	7	Sololá	704	Santa Lucía Utatlán 	7	Santa Rita 	1	Enero	2023-06-01T00:00:00	2024-11-08T19:00:00	7	Dirección del viento	4.83
69127	7	Sololá	704	Santa Lucía Utatlán 	7	Santa Rita 	1	Enero	2023-06-01T00:00:00	2024-11-08T19:00:00	1	Precipitación	0
69128	7	Sololá	704	Santa Lucía Utatlán 	7	Santa Rita 	1	Enero	2023-06-01T00:00:00	2024-11-08T19:00:00	8	Radiación solar	0
69129	7	Sololá	704	Santa Lucía Utatlán 	7	Santa Rita 	1	Enero	2023-06-01T00:00:00	2024-11-08T20:00:00	2	Temperatura media	17.2
69130	7	Sololá	704	Santa Lucía Utatlán 	7	Santa Rita 	1	Enero	2023-06-01T00:00:00	2024-11-08T20:00:00	4	Temperatura máxima	17.3
69131	7	Sololá	704	Santa Lucía Utatlán 	7	Santa Rita 	1	Enero	2023-06-01T00:00:00	2024-11-08T20:00:00	3	Temperatura mínima	17.2
69132	7	Sololá	704	Santa Lucía Utatlán 	7	Santa Rita 	1	Enero	2023-06-01T00:00:00	2024-11-08T20:00:00	5	Humedad	68
69133	7	Sololá	704	Santa Lucía Utatlán 	7	Santa Rita 	1	Enero	2023-06-01T00:00:00	2024-11-08T20:00:00	6	Velocidad del viento	4.8
69134	7	Sololá	704	Santa Lucía Utatlán 	7	Santa Rita 	1	Enero	2023-06-01T00:00:00	2024-11-08T20:00:00	7	Dirección del viento	4.83
69135	7	Sololá	704	Santa Lucía Utatlán 	7	Santa Rita 	1	Enero	2023-06-01T00:00:00	2024-11-08T20:00:00	1	Precipitación	0
69136	7	Sololá	704	Santa Lucía Utatlán 	7	Santa Rita 	1	Enero	2023-06-01T00:00:00	2024-11-08T20:00:00	8	Radiación solar	0
69137	7	Sololá	704	Santa Lucía Utatlán 	7	Santa Rita 	1	Enero	2023-06-01T00:00:00	2024-11-08T21:00:00	2	Temperatura media	16
69138	7	Sololá	704	Santa Lucía Utatlán 	7	Santa Rita 	1	Enero	2023-06-01T00:00:00	2024-11-08T21:00:00	4	Temperatura máxima	17.2
69139	7	Sololá	704	Santa Lucía Utatlán 	7	Santa Rita 	1	Enero	2023-06-01T00:00:00	2024-11-08T21:00:00	3	Temperatura mínima	15.6
69140	7	Sololá	704	Santa Lucía Utatlán 	7	Santa Rita 	1	Enero	2023-06-01T00:00:00	2024-11-08T21:00:00	5	Humedad	73
69141	7	Sololá	704	Santa Lucía Utatlán 	7	Santa Rita 	1	Enero	2023-06-01T00:00:00	2024-11-08T21:00:00	6	Velocidad del viento	1.6
69142	7	Sololá	704	Santa Lucía Utatlán 	7	Santa Rita 	1	Enero	2023-06-01T00:00:00	2024-11-08T21:00:00	7	Dirección del viento	1.61
69143	7	Sololá	704	Santa Lucía Utatlán 	7	Santa Rita 	1	Enero	2023-06-01T00:00:00	2024-11-08T21:00:00	1	Precipitación	0
69144	7	Sololá	704	Santa Lucía Utatlán 	7	Santa Rita 	1	Enero	2023-06-01T00:00:00	2024-11-08T21:00:00	8	Radiación solar	0
69145	7	Sololá	704	Santa Lucía Utatlán 	7	Santa Rita 	1	Enero	2023-06-01T00:00:00	2024-11-08T22:00:00	2	Temperatura media	15.7
69146	7	Sololá	704	Santa Lucía Utatlán 	7	Santa Rita 	1	Enero	2023-06-01T00:00:00	2024-11-08T22:00:00	4	Temperatura máxima	16.1
69147	7	Sololá	704	Santa Lucía Utatlán 	7	Santa Rita 	1	Enero	2023-06-01T00:00:00	2024-11-08T22:00:00	3	Temperatura mínima	14.7
69148	7	Sololá	704	Santa Lucía Utatlán 	7	Santa Rita 	1	Enero	2023-06-01T00:00:00	2024-11-08T22:00:00	5	Humedad	76
69149	7	Sololá	704	Santa Lucía Utatlán 	7	Santa Rita 	1	Enero	2023-06-01T00:00:00	2024-11-08T22:00:00	6	Velocidad del viento	3.2
69150	7	Sololá	704	Santa Lucía Utatlán 	7	Santa Rita 	1	Enero	2023-06-01T00:00:00	2024-11-08T22:00:00	7	Dirección del viento	3.22
69151	7	Sololá	704	Santa Lucía Utatlán 	7	Santa Rita 	1	Enero	2023-06-01T00:00:00	2024-11-08T22:00:00	1	Precipitación	0
69152	7	Sololá	704	Santa Lucía Utatlán 	7	Santa Rita 	1	Enero	2023-06-01T00:00:00	2024-11-08T22:00:00	8	Radiación solar	0
69153	7	Sololá	704	Santa Lucía Utatlán 	7	Santa Rita 	1	Enero	2023-06-01T00:00:00	2024-11-08T23:00:00	2	Temperatura media	16.8
69154	7	Sololá	704	Santa Lucía Utatlán 	7	Santa Rita 	1	Enero	2023-06-01T00:00:00	2024-11-08T23:00:00	4	Temperatura máxima	16.9
69155	7	Sololá	704	Santa Lucía Utatlán 	7	Santa Rita 	1	Enero	2023-06-01T00:00:00	2024-11-08T23:00:00	3	Temperatura mínima	15.7
69156	7	Sololá	704	Santa Lucía Utatlán 	7	Santa Rita 	1	Enero	2023-06-01T00:00:00	2024-11-08T23:00:00	5	Humedad	73
69157	7	Sololá	704	Santa Lucía Utatlán 	7	Santa Rita 	1	Enero	2023-06-01T00:00:00	2024-11-08T23:00:00	6	Velocidad del viento	9.7
69158	7	Sololá	704	Santa Lucía Utatlán 	7	Santa Rita 	1	Enero	2023-06-01T00:00:00	2024-11-08T23:00:00	7	Dirección del viento	9.66
69159	7	Sololá	704	Santa Lucía Utatlán 	7	Santa Rita 	1	Enero	2023-06-01T00:00:00	2024-11-08T23:00:00	1	Precipitación	0
69160	7	Sololá	704	Santa Lucía Utatlán 	7	Santa Rita 	1	Enero	2023-06-01T00:00:00	2024-11-08T23:00:00	8	Radiación solar	0
69161	7	Sololá	704	Santa Lucía Utatlán 	7	Santa Rita 	1	Enero	2023-07-01T00:00:00	2024-11-08T00:00:00	2	Temperatura media	16.6
69162	7	Sololá	704	Santa Lucía Utatlán 	7	Santa Rita 	1	Enero	2023-07-01T00:00:00	2024-11-08T00:00:00	4	Temperatura máxima	16.9
69163	7	Sololá	704	Santa Lucía Utatlán 	7	Santa Rita 	1	Enero	2023-07-01T00:00:00	2024-11-08T00:00:00	3	Temperatura mínima	16.6
69164	7	Sololá	704	Santa Lucía Utatlán 	7	Santa Rita 	1	Enero	2023-07-01T00:00:00	2024-11-08T00:00:00	5	Humedad	74
69165	7	Sololá	704	Santa Lucía Utatlán 	7	Santa Rita 	1	Enero	2023-07-01T00:00:00	2024-11-08T00:00:00	6	Velocidad del viento	9.7
69166	7	Sololá	704	Santa Lucía Utatlán 	7	Santa Rita 	1	Enero	2023-07-01T00:00:00	2024-11-08T00:00:00	7	Dirección del viento	9.66
69167	7	Sololá	704	Santa Lucía Utatlán 	7	Santa Rita 	1	Enero	2023-07-01T00:00:00	2024-11-08T00:00:00	1	Precipitación	0
69168	7	Sololá	704	Santa Lucía Utatlán 	7	Santa Rita 	1	Enero	2023-07-01T00:00:00	2024-11-08T00:00:00	8	Radiación solar	0
69169	7	Sololá	704	Santa Lucía Utatlán 	7	Santa Rita 	1	Enero	2023-07-01T00:00:00	2024-11-08T01:00:00	2	Temperatura media	15.3
69170	7	Sololá	704	Santa Lucía Utatlán 	7	Santa Rita 	1	Enero	2023-07-01T00:00:00	2024-11-08T01:00:00	4	Temperatura máxima	16.7
69171	7	Sololá	704	Santa Lucía Utatlán 	7	Santa Rita 	1	Enero	2023-07-01T00:00:00	2024-11-08T01:00:00	3	Temperatura mínima	14.6
69172	7	Sololá	704	Santa Lucía Utatlán 	7	Santa Rita 	1	Enero	2023-07-01T00:00:00	2024-11-08T01:00:00	5	Humedad	77
69173	7	Sololá	704	Santa Lucía Utatlán 	7	Santa Rita 	1	Enero	2023-07-01T00:00:00	2024-11-08T01:00:00	6	Velocidad del viento	4.8
69174	7	Sololá	704	Santa Lucía Utatlán 	7	Santa Rita 	1	Enero	2023-07-01T00:00:00	2024-11-08T01:00:00	7	Dirección del viento	4.83
69175	7	Sololá	704	Santa Lucía Utatlán 	7	Santa Rita 	1	Enero	2023-07-01T00:00:00	2024-11-08T01:00:00	1	Precipitación	0
69176	7	Sololá	704	Santa Lucía Utatlán 	7	Santa Rita 	1	Enero	2023-07-01T00:00:00	2024-11-08T01:00:00	8	Radiación solar	0
69177	7	Sololá	704	Santa Lucía Utatlán 	7	Santa Rita 	1	Enero	2023-07-01T00:00:00	2024-11-08T02:00:00	2	Temperatura media	13.5
69178	7	Sololá	704	Santa Lucía Utatlán 	7	Santa Rita 	1	Enero	2023-07-01T00:00:00	2024-11-08T02:00:00	4	Temperatura máxima	15.4
69179	7	Sololá	704	Santa Lucía Utatlán 	7	Santa Rita 	1	Enero	2023-07-01T00:00:00	2024-11-08T02:00:00	3	Temperatura mínima	13.5
69180	7	Sololá	704	Santa Lucía Utatlán 	7	Santa Rita 	1	Enero	2023-07-01T00:00:00	2024-11-08T02:00:00	5	Humedad	83
69181	7	Sololá	704	Santa Lucía Utatlán 	7	Santa Rita 	1	Enero	2023-07-01T00:00:00	2024-11-08T02:00:00	6	Velocidad del viento	3.2
69182	7	Sololá	704	Santa Lucía Utatlán 	7	Santa Rita 	1	Enero	2023-07-01T00:00:00	2024-11-08T02:00:00	7	Dirección del viento	3.22
69183	7	Sololá	704	Santa Lucía Utatlán 	7	Santa Rita 	1	Enero	2023-07-01T00:00:00	2024-11-08T02:00:00	1	Precipitación	0
69184	7	Sololá	704	Santa Lucía Utatlán 	7	Santa Rita 	1	Enero	2023-07-01T00:00:00	2024-11-08T02:00:00	8	Radiación solar	0
69185	7	Sololá	704	Santa Lucía Utatlán 	7	Santa Rita 	1	Enero	2023-07-01T00:00:00	2024-11-08T03:00:00	2	Temperatura media	14.9
69186	7	Sololá	704	Santa Lucía Utatlán 	7	Santa Rita 	1	Enero	2023-07-01T00:00:00	2024-11-08T03:00:00	4	Temperatura máxima	15.9
69187	7	Sololá	704	Santa Lucía Utatlán 	7	Santa Rita 	1	Enero	2023-07-01T00:00:00	2024-11-08T03:00:00	3	Temperatura mínima	13.4
69188	7	Sololá	704	Santa Lucía Utatlán 	7	Santa Rita 	1	Enero	2023-07-01T00:00:00	2024-11-08T03:00:00	5	Humedad	78
69189	7	Sololá	704	Santa Lucía Utatlán 	7	Santa Rita 	1	Enero	2023-07-01T00:00:00	2024-11-08T03:00:00	6	Velocidad del viento	4.8
69190	7	Sololá	704	Santa Lucía Utatlán 	7	Santa Rita 	1	Enero	2023-07-01T00:00:00	2024-11-08T03:00:00	7	Dirección del viento	4.83
69191	7	Sololá	704	Santa Lucía Utatlán 	7	Santa Rita 	1	Enero	2023-07-01T00:00:00	2024-11-08T03:00:00	1	Precipitación	0
69192	7	Sololá	704	Santa Lucía Utatlán 	7	Santa Rita 	1	Enero	2023-07-01T00:00:00	2024-11-08T03:00:00	8	Radiación solar	0
69193	7	Sololá	704	Santa Lucía Utatlán 	7	Santa Rita 	1	Enero	2023-07-01T00:00:00	2024-11-08T04:00:00	2	Temperatura media	15.2
69194	7	Sololá	704	Santa Lucía Utatlán 	7	Santa Rita 	1	Enero	2023-07-01T00:00:00	2024-11-08T04:00:00	4	Temperatura máxima	16.4
69195	7	Sololá	704	Santa Lucía Utatlán 	7	Santa Rita 	1	Enero	2023-07-01T00:00:00	2024-11-08T04:00:00	3	Temperatura mínima	14.6
69196	7	Sololá	704	Santa Lucía Utatlán 	7	Santa Rita 	1	Enero	2023-07-01T00:00:00	2024-11-08T04:00:00	5	Humedad	78
69197	7	Sololá	704	Santa Lucía Utatlán 	7	Santa Rita 	1	Enero	2023-07-01T00:00:00	2024-11-08T04:00:00	6	Velocidad del viento	3.2
69198	7	Sololá	704	Santa Lucía Utatlán 	7	Santa Rita 	1	Enero	2023-07-01T00:00:00	2024-11-08T04:00:00	7	Dirección del viento	3.22
69199	7	Sololá	704	Santa Lucía Utatlán 	7	Santa Rita 	1	Enero	2023-07-01T00:00:00	2024-11-08T04:00:00	1	Precipitación	0
69200	7	Sololá	704	Santa Lucía Utatlán 	7	Santa Rita 	1	Enero	2023-07-01T00:00:00	2024-11-08T04:00:00	8	Radiación solar	0
69201	7	Sololá	704	Santa Lucía Utatlán 	7	Santa Rita 	1	Enero	2023-07-01T00:00:00	2024-11-08T05:00:00	2	Temperatura media	12.9
69202	7	Sololá	704	Santa Lucía Utatlán 	7	Santa Rita 	1	Enero	2023-07-01T00:00:00	2024-11-08T05:00:00	4	Temperatura máxima	15.2
69203	7	Sololá	704	Santa Lucía Utatlán 	7	Santa Rita 	1	Enero	2023-07-01T00:00:00	2024-11-08T05:00:00	3	Temperatura mínima	12.9
69204	7	Sololá	704	Santa Lucía Utatlán 	7	Santa Rita 	1	Enero	2023-07-01T00:00:00	2024-11-08T05:00:00	5	Humedad	86
69205	7	Sololá	704	Santa Lucía Utatlán 	7	Santa Rita 	1	Enero	2023-07-01T00:00:00	2024-11-08T05:00:00	6	Velocidad del viento	1.6
69206	7	Sololá	704	Santa Lucía Utatlán 	7	Santa Rita 	1	Enero	2023-07-01T00:00:00	2024-11-08T05:00:00	7	Dirección del viento	1.61
69207	7	Sololá	704	Santa Lucía Utatlán 	7	Santa Rita 	1	Enero	2023-07-01T00:00:00	2024-11-08T05:00:00	1	Precipitación	0
69208	7	Sololá	704	Santa Lucía Utatlán 	7	Santa Rita 	1	Enero	2023-07-01T00:00:00	2024-11-08T05:00:00	8	Radiación solar	0
69209	7	Sololá	704	Santa Lucía Utatlán 	7	Santa Rita 	1	Enero	2023-07-01T00:00:00	2024-11-08T06:00:00	2	Temperatura media	12.9
69210	7	Sololá	704	Santa Lucía Utatlán 	7	Santa Rita 	1	Enero	2023-07-01T00:00:00	2024-11-08T06:00:00	4	Temperatura máxima	13
69211	7	Sololá	704	Santa Lucía Utatlán 	7	Santa Rita 	1	Enero	2023-07-01T00:00:00	2024-11-08T06:00:00	3	Temperatura mínima	12.7
69212	7	Sololá	704	Santa Lucía Utatlán 	7	Santa Rita 	1	Enero	2023-07-01T00:00:00	2024-11-08T06:00:00	5	Humedad	86
69213	7	Sololá	704	Santa Lucía Utatlán 	7	Santa Rita 	1	Enero	2023-07-01T00:00:00	2024-11-08T06:00:00	6	Velocidad del viento	3.2
69214	7	Sololá	704	Santa Lucía Utatlán 	7	Santa Rita 	1	Enero	2023-07-01T00:00:00	2024-11-08T06:00:00	7	Dirección del viento	3.22
69215	7	Sololá	704	Santa Lucía Utatlán 	7	Santa Rita 	1	Enero	2023-07-01T00:00:00	2024-11-08T06:00:00	1	Precipitación	0
69216	7	Sololá	704	Santa Lucía Utatlán 	7	Santa Rita 	1	Enero	2023-07-01T00:00:00	2024-11-08T06:00:00	8	Radiación solar	0
69217	7	Sololá	704	Santa Lucía Utatlán 	7	Santa Rita 	1	Enero	2023-07-01T00:00:00	2024-11-08T07:00:00	2	Temperatura media	16.1
69218	7	Sololá	704	Santa Lucía Utatlán 	7	Santa Rita 	1	Enero	2023-07-01T00:00:00	2024-11-08T07:00:00	4	Temperatura máxima	16.1
69219	7	Sololá	704	Santa Lucía Utatlán 	7	Santa Rita 	1	Enero	2023-07-01T00:00:00	2024-11-08T07:00:00	3	Temperatura mínima	12.8
69220	7	Sololá	704	Santa Lucía Utatlán 	7	Santa Rita 	1	Enero	2023-07-01T00:00:00	2024-11-08T07:00:00	5	Humedad	77
69221	7	Sololá	704	Santa Lucía Utatlán 	7	Santa Rita 	1	Enero	2023-07-01T00:00:00	2024-11-08T07:00:00	6	Velocidad del viento	3.2
69222	7	Sololá	704	Santa Lucía Utatlán 	7	Santa Rita 	1	Enero	2023-07-01T00:00:00	2024-11-08T07:00:00	7	Dirección del viento	3.22
69223	7	Sololá	704	Santa Lucía Utatlán 	7	Santa Rita 	1	Enero	2023-07-01T00:00:00	2024-11-08T07:00:00	1	Precipitación	0
69224	7	Sololá	704	Santa Lucía Utatlán 	7	Santa Rita 	1	Enero	2023-07-01T00:00:00	2024-11-08T07:00:00	8	Radiación solar	10
69225	7	Sololá	704	Santa Lucía Utatlán 	7	Santa Rita 	1	Enero	2023-07-01T00:00:00	2024-11-08T08:00:00	2	Temperatura media	19.7
69226	7	Sololá	704	Santa Lucía Utatlán 	7	Santa Rita 	1	Enero	2023-07-01T00:00:00	2024-11-08T08:00:00	4	Temperatura máxima	19.7
69227	7	Sololá	704	Santa Lucía Utatlán 	7	Santa Rita 	1	Enero	2023-07-01T00:00:00	2024-11-08T08:00:00	3	Temperatura mínima	16
69228	7	Sololá	704	Santa Lucía Utatlán 	7	Santa Rita 	1	Enero	2023-07-01T00:00:00	2024-11-08T08:00:00	5	Humedad	67
69229	7	Sololá	704	Santa Lucía Utatlán 	7	Santa Rita 	1	Enero	2023-07-01T00:00:00	2024-11-08T08:00:00	6	Velocidad del viento	3.2
69230	7	Sololá	704	Santa Lucía Utatlán 	7	Santa Rita 	1	Enero	2023-07-01T00:00:00	2024-11-08T08:00:00	7	Dirección del viento	3.22
69231	7	Sololá	704	Santa Lucía Utatlán 	7	Santa Rita 	1	Enero	2023-07-01T00:00:00	2024-11-08T08:00:00	1	Precipitación	0
69232	7	Sololá	704	Santa Lucía Utatlán 	7	Santa Rita 	1	Enero	2023-07-01T00:00:00	2024-11-08T08:00:00	8	Radiación solar	142
69233	7	Sololá	704	Santa Lucía Utatlán 	7	Santa Rita 	1	Enero	2023-07-01T00:00:00	2024-11-08T09:00:00	2	Temperatura media	20.2
69234	7	Sololá	704	Santa Lucía Utatlán 	7	Santa Rita 	1	Enero	2023-07-01T00:00:00	2024-11-08T09:00:00	4	Temperatura máxima	20.2
69235	7	Sololá	704	Santa Lucía Utatlán 	7	Santa Rita 	1	Enero	2023-07-01T00:00:00	2024-11-08T09:00:00	3	Temperatura mínima	18.3
69236	7	Sololá	704	Santa Lucía Utatlán 	7	Santa Rita 	1	Enero	2023-07-01T00:00:00	2024-11-08T09:00:00	5	Humedad	61
69237	7	Sololá	704	Santa Lucía Utatlán 	7	Santa Rita 	1	Enero	2023-07-01T00:00:00	2024-11-08T09:00:00	6	Velocidad del viento	4.8
69238	7	Sololá	704	Santa Lucía Utatlán 	7	Santa Rita 	1	Enero	2023-07-01T00:00:00	2024-11-08T09:00:00	7	Dirección del viento	4.83
69239	7	Sololá	704	Santa Lucía Utatlán 	7	Santa Rita 	1	Enero	2023-07-01T00:00:00	2024-11-08T09:00:00	1	Precipitación	0
69240	7	Sololá	704	Santa Lucía Utatlán 	7	Santa Rita 	1	Enero	2023-07-01T00:00:00	2024-11-08T09:00:00	8	Radiación solar	215
69241	7	Sololá	704	Santa Lucía Utatlán 	7	Santa Rita 	1	Enero	2023-07-01T00:00:00	2024-11-08T10:00:00	2	Temperatura media	21.1
69242	7	Sololá	704	Santa Lucía Utatlán 	7	Santa Rita 	1	Enero	2023-07-01T00:00:00	2024-11-08T10:00:00	4	Temperatura máxima	21.7
69243	7	Sololá	704	Santa Lucía Utatlán 	7	Santa Rita 	1	Enero	2023-07-01T00:00:00	2024-11-08T10:00:00	3	Temperatura mínima	20.1
69244	7	Sololá	704	Santa Lucía Utatlán 	7	Santa Rita 	1	Enero	2023-07-01T00:00:00	2024-11-08T10:00:00	5	Humedad	57
69245	7	Sololá	704	Santa Lucía Utatlán 	7	Santa Rita 	1	Enero	2023-07-01T00:00:00	2024-11-08T10:00:00	6	Velocidad del viento	8
69246	7	Sololá	704	Santa Lucía Utatlán 	7	Santa Rita 	1	Enero	2023-07-01T00:00:00	2024-11-08T10:00:00	7	Dirección del viento	8.05
69247	7	Sololá	704	Santa Lucía Utatlán 	7	Santa Rita 	1	Enero	2023-07-01T00:00:00	2024-11-08T10:00:00	1	Precipitación	0
69248	7	Sololá	704	Santa Lucía Utatlán 	7	Santa Rita 	1	Enero	2023-07-01T00:00:00	2024-11-08T10:00:00	8	Radiación solar	459
69249	7	Sololá	704	Santa Lucía Utatlán 	7	Santa Rita 	1	Enero	2023-07-01T00:00:00	2024-11-08T11:00:00	2	Temperatura media	22.6
69250	7	Sololá	704	Santa Lucía Utatlán 	7	Santa Rita 	1	Enero	2023-07-01T00:00:00	2024-11-08T11:00:00	4	Temperatura máxima	22.6
69251	7	Sololá	704	Santa Lucía Utatlán 	7	Santa Rita 	1	Enero	2023-07-01T00:00:00	2024-11-08T11:00:00	3	Temperatura mínima	21
69252	7	Sololá	704	Santa Lucía Utatlán 	7	Santa Rita 	1	Enero	2023-07-01T00:00:00	2024-11-08T11:00:00	5	Humedad	56
69253	7	Sololá	704	Santa Lucía Utatlán 	7	Santa Rita 	1	Enero	2023-07-01T00:00:00	2024-11-08T11:00:00	6	Velocidad del viento	8
69254	7	Sololá	704	Santa Lucía Utatlán 	7	Santa Rita 	1	Enero	2023-07-01T00:00:00	2024-11-08T11:00:00	7	Dirección del viento	8.05
69255	7	Sololá	704	Santa Lucía Utatlán 	7	Santa Rita 	1	Enero	2023-07-01T00:00:00	2024-11-08T11:00:00	1	Precipitación	0
69256	7	Sololá	704	Santa Lucía Utatlán 	7	Santa Rita 	1	Enero	2023-07-01T00:00:00	2024-11-08T11:00:00	8	Radiación solar	610
69257	7	Sololá	704	Santa Lucía Utatlán 	7	Santa Rita 	1	Enero	2023-07-01T00:00:00	2024-11-08T12:00:00	2	Temperatura media	21.8
69258	7	Sololá	704	Santa Lucía Utatlán 	7	Santa Rita 	1	Enero	2023-07-01T00:00:00	2024-11-08T12:00:00	4	Temperatura máxima	22.7
69259	7	Sololá	704	Santa Lucía Utatlán 	7	Santa Rita 	1	Enero	2023-07-01T00:00:00	2024-11-08T12:00:00	3	Temperatura mínima	21.6
69260	7	Sololá	704	Santa Lucía Utatlán 	7	Santa Rita 	1	Enero	2023-07-01T00:00:00	2024-11-08T12:00:00	5	Humedad	58
69261	7	Sololá	704	Santa Lucía Utatlán 	7	Santa Rita 	1	Enero	2023-07-01T00:00:00	2024-11-08T12:00:00	6	Velocidad del viento	9.7
69262	7	Sololá	704	Santa Lucía Utatlán 	7	Santa Rita 	1	Enero	2023-07-01T00:00:00	2024-11-08T12:00:00	7	Dirección del viento	9.66
69263	7	Sololá	704	Santa Lucía Utatlán 	7	Santa Rita 	1	Enero	2023-07-01T00:00:00	2024-11-08T12:00:00	1	Precipitación	0
69264	7	Sololá	704	Santa Lucía Utatlán 	7	Santa Rita 	1	Enero	2023-07-01T00:00:00	2024-11-08T12:00:00	8	Radiación solar	678
69265	7	Sololá	704	Santa Lucía Utatlán 	7	Santa Rita 	1	Enero	2023-07-01T00:00:00	2024-11-08T13:00:00	2	Temperatura media	21.1
69266	7	Sololá	704	Santa Lucía Utatlán 	7	Santa Rita 	1	Enero	2023-07-01T00:00:00	2024-11-08T13:00:00	4	Temperatura máxima	22.3
69267	7	Sololá	704	Santa Lucía Utatlán 	7	Santa Rita 	1	Enero	2023-07-01T00:00:00	2024-11-08T13:00:00	3	Temperatura mínima	21.1
69268	7	Sololá	704	Santa Lucía Utatlán 	7	Santa Rita 	1	Enero	2023-07-01T00:00:00	2024-11-08T13:00:00	5	Humedad	63
69269	7	Sololá	704	Santa Lucía Utatlán 	7	Santa Rita 	1	Enero	2023-07-01T00:00:00	2024-11-08T13:00:00	6	Velocidad del viento	11.3
69270	7	Sololá	704	Santa Lucía Utatlán 	7	Santa Rita 	1	Enero	2023-07-01T00:00:00	2024-11-08T13:00:00	7	Dirección del viento	11.27
69271	7	Sololá	704	Santa Lucía Utatlán 	7	Santa Rita 	1	Enero	2023-07-01T00:00:00	2024-11-08T13:00:00	1	Precipitación	0
69272	7	Sololá	704	Santa Lucía Utatlán 	7	Santa Rita 	1	Enero	2023-07-01T00:00:00	2024-11-08T13:00:00	8	Radiación solar	490
69273	7	Sololá	704	Santa Lucía Utatlán 	7	Santa Rita 	1	Enero	2023-07-01T00:00:00	2024-11-08T14:00:00	2	Temperatura media	20.3
69274	7	Sololá	704	Santa Lucía Utatlán 	7	Santa Rita 	1	Enero	2023-07-01T00:00:00	2024-11-08T14:00:00	4	Temperatura máxima	21.1
69275	7	Sololá	704	Santa Lucía Utatlán 	7	Santa Rita 	1	Enero	2023-07-01T00:00:00	2024-11-08T14:00:00	3	Temperatura mínima	20.3
69276	7	Sololá	704	Santa Lucía Utatlán 	7	Santa Rita 	1	Enero	2023-07-01T00:00:00	2024-11-08T14:00:00	5	Humedad	66
69277	7	Sololá	704	Santa Lucía Utatlán 	7	Santa Rita 	1	Enero	2023-07-01T00:00:00	2024-11-08T14:00:00	6	Velocidad del viento	9.7
69278	7	Sololá	704	Santa Lucía Utatlán 	7	Santa Rita 	1	Enero	2023-07-01T00:00:00	2024-11-08T14:00:00	7	Dirección del viento	9.66
69279	7	Sololá	704	Santa Lucía Utatlán 	7	Santa Rita 	1	Enero	2023-07-01T00:00:00	2024-11-08T14:00:00	1	Precipitación	0
69280	7	Sololá	704	Santa Lucía Utatlán 	7	Santa Rita 	1	Enero	2023-07-01T00:00:00	2024-11-08T14:00:00	8	Radiación solar	262
69281	7	Sololá	704	Santa Lucía Utatlán 	7	Santa Rita 	1	Enero	2023-07-01T00:00:00	2024-11-08T15:00:00	2	Temperatura media	20.6
69282	7	Sololá	704	Santa Lucía Utatlán 	7	Santa Rita 	1	Enero	2023-07-01T00:00:00	2024-11-08T15:00:00	4	Temperatura máxima	20.6
69283	7	Sololá	704	Santa Lucía Utatlán 	7	Santa Rita 	1	Enero	2023-07-01T00:00:00	2024-11-08T15:00:00	3	Temperatura mínima	19.9
69284	7	Sololá	704	Santa Lucía Utatlán 	7	Santa Rita 	1	Enero	2023-07-01T00:00:00	2024-11-08T15:00:00	5	Humedad	65
69285	7	Sololá	704	Santa Lucía Utatlán 	7	Santa Rita 	1	Enero	2023-07-01T00:00:00	2024-11-08T15:00:00	6	Velocidad del viento	8
69286	7	Sololá	704	Santa Lucía Utatlán 	7	Santa Rita 	1	Enero	2023-07-01T00:00:00	2024-11-08T15:00:00	7	Dirección del viento	8.05
69287	7	Sololá	704	Santa Lucía Utatlán 	7	Santa Rita 	1	Enero	2023-07-01T00:00:00	2024-11-08T15:00:00	1	Precipitación	0
69288	7	Sololá	704	Santa Lucía Utatlán 	7	Santa Rita 	1	Enero	2023-07-01T00:00:00	2024-11-08T15:00:00	8	Radiación solar	250
69289	7	Sololá	704	Santa Lucía Utatlán 	7	Santa Rita 	1	Enero	2023-07-01T00:00:00	2024-11-08T16:00:00	2	Temperatura media	20.2
69290	7	Sololá	704	Santa Lucía Utatlán 	7	Santa Rita 	1	Enero	2023-07-01T00:00:00	2024-11-08T16:00:00	4	Temperatura máxima	20.9
69291	7	Sololá	704	Santa Lucía Utatlán 	7	Santa Rita 	1	Enero	2023-07-01T00:00:00	2024-11-08T16:00:00	3	Temperatura mínima	20.2
69292	7	Sololá	704	Santa Lucía Utatlán 	7	Santa Rita 	1	Enero	2023-07-01T00:00:00	2024-11-08T16:00:00	5	Humedad	66
69293	7	Sololá	704	Santa Lucía Utatlán 	7	Santa Rita 	1	Enero	2023-07-01T00:00:00	2024-11-08T16:00:00	6	Velocidad del viento	6.4
69294	7	Sololá	704	Santa Lucía Utatlán 	7	Santa Rita 	1	Enero	2023-07-01T00:00:00	2024-11-08T16:00:00	7	Dirección del viento	6.44
69295	7	Sololá	704	Santa Lucía Utatlán 	7	Santa Rita 	1	Enero	2023-07-01T00:00:00	2024-11-08T16:00:00	1	Precipitación	0
69296	7	Sololá	704	Santa Lucía Utatlán 	7	Santa Rita 	1	Enero	2023-07-01T00:00:00	2024-11-08T16:00:00	8	Radiación solar	195
69297	7	Sololá	704	Santa Lucía Utatlán 	7	Santa Rita 	1	Enero	2023-07-01T00:00:00	2024-11-08T17:00:00	2	Temperatura media	19.3
69298	7	Sololá	704	Santa Lucía Utatlán 	7	Santa Rita 	1	Enero	2023-07-01T00:00:00	2024-11-08T17:00:00	4	Temperatura máxima	20.3
69299	7	Sololá	704	Santa Lucía Utatlán 	7	Santa Rita 	1	Enero	2023-07-01T00:00:00	2024-11-08T17:00:00	3	Temperatura mínima	19.3
69300	7	Sololá	704	Santa Lucía Utatlán 	7	Santa Rita 	1	Enero	2023-07-01T00:00:00	2024-11-08T17:00:00	5	Humedad	69
69301	7	Sololá	704	Santa Lucía Utatlán 	7	Santa Rita 	1	Enero	2023-07-01T00:00:00	2024-11-08T17:00:00	6	Velocidad del viento	3.2
69302	7	Sololá	704	Santa Lucía Utatlán 	7	Santa Rita 	1	Enero	2023-07-01T00:00:00	2024-11-08T17:00:00	7	Dirección del viento	3.22
69303	7	Sololá	704	Santa Lucía Utatlán 	7	Santa Rita 	1	Enero	2023-07-01T00:00:00	2024-11-08T17:00:00	1	Precipitación	0
69304	7	Sololá	704	Santa Lucía Utatlán 	7	Santa Rita 	1	Enero	2023-07-01T00:00:00	2024-11-08T17:00:00	8	Radiación solar	132
69305	7	Sololá	704	Santa Lucía Utatlán 	7	Santa Rita 	1	Enero	2023-07-01T00:00:00	2024-11-08T18:00:00	2	Temperatura media	17.9
69306	7	Sololá	704	Santa Lucía Utatlán 	7	Santa Rita 	1	Enero	2023-07-01T00:00:00	2024-11-08T18:00:00	4	Temperatura máxima	19.3
69307	7	Sololá	704	Santa Lucía Utatlán 	7	Santa Rita 	1	Enero	2023-07-01T00:00:00	2024-11-08T18:00:00	3	Temperatura mínima	17.9
69308	7	Sololá	704	Santa Lucía Utatlán 	7	Santa Rita 	1	Enero	2023-07-01T00:00:00	2024-11-08T18:00:00	5	Humedad	72
69309	7	Sololá	704	Santa Lucía Utatlán 	7	Santa Rita 	1	Enero	2023-07-01T00:00:00	2024-11-08T18:00:00	6	Velocidad del viento	4.8
69310	7	Sololá	704	Santa Lucía Utatlán 	7	Santa Rita 	1	Enero	2023-07-01T00:00:00	2024-11-08T18:00:00	7	Dirección del viento	4.83
69311	7	Sololá	704	Santa Lucía Utatlán 	7	Santa Rita 	1	Enero	2023-07-01T00:00:00	2024-11-08T18:00:00	1	Precipitación	0
69312	7	Sololá	704	Santa Lucía Utatlán 	7	Santa Rita 	1	Enero	2023-07-01T00:00:00	2024-11-08T18:00:00	8	Radiación solar	20
69313	7	Sololá	704	Santa Lucía Utatlán 	7	Santa Rita 	1	Enero	2023-07-01T00:00:00	2024-11-08T19:00:00	2	Temperatura media	17.5
69314	7	Sololá	704	Santa Lucía Utatlán 	7	Santa Rita 	1	Enero	2023-07-01T00:00:00	2024-11-08T19:00:00	4	Temperatura máxima	17.9
69315	7	Sololá	704	Santa Lucía Utatlán 	7	Santa Rita 	1	Enero	2023-07-01T00:00:00	2024-11-08T19:00:00	3	Temperatura mínima	17.4
69316	7	Sololá	704	Santa Lucía Utatlán 	7	Santa Rita 	1	Enero	2023-07-01T00:00:00	2024-11-08T19:00:00	5	Humedad	77
69317	7	Sololá	704	Santa Lucía Utatlán 	7	Santa Rita 	1	Enero	2023-07-01T00:00:00	2024-11-08T19:00:00	6	Velocidad del viento	1.6
69318	7	Sololá	704	Santa Lucía Utatlán 	7	Santa Rita 	1	Enero	2023-07-01T00:00:00	2024-11-08T19:00:00	7	Dirección del viento	1.61
69319	7	Sololá	704	Santa Lucía Utatlán 	7	Santa Rita 	1	Enero	2023-07-01T00:00:00	2024-11-08T19:00:00	1	Precipitación	0
69320	7	Sololá	704	Santa Lucía Utatlán 	7	Santa Rita 	1	Enero	2023-07-01T00:00:00	2024-11-08T19:00:00	8	Radiación solar	0
69321	7	Sololá	704	Santa Lucía Utatlán 	7	Santa Rita 	1	Enero	2023-07-01T00:00:00	2024-11-08T20:00:00	2	Temperatura media	15.2
69322	7	Sololá	704	Santa Lucía Utatlán 	7	Santa Rita 	1	Enero	2023-07-01T00:00:00	2024-11-08T20:00:00	4	Temperatura máxima	17.6
69323	7	Sololá	704	Santa Lucía Utatlán 	7	Santa Rita 	1	Enero	2023-07-01T00:00:00	2024-11-08T20:00:00	3	Temperatura mínima	15.2
69324	7	Sololá	704	Santa Lucía Utatlán 	7	Santa Rita 	1	Enero	2023-07-01T00:00:00	2024-11-08T20:00:00	5	Humedad	83
69325	7	Sololá	704	Santa Lucía Utatlán 	7	Santa Rita 	1	Enero	2023-07-01T00:00:00	2024-11-08T20:00:00	6	Velocidad del viento	3.2
69326	7	Sololá	704	Santa Lucía Utatlán 	7	Santa Rita 	1	Enero	2023-07-01T00:00:00	2024-11-08T20:00:00	7	Dirección del viento	3.22
69327	7	Sololá	704	Santa Lucía Utatlán 	7	Santa Rita 	1	Enero	2023-07-01T00:00:00	2024-11-08T20:00:00	1	Precipitación	0
69328	7	Sololá	704	Santa Lucía Utatlán 	7	Santa Rita 	1	Enero	2023-07-01T00:00:00	2024-11-08T20:00:00	8	Radiación solar	0
69329	7	Sololá	704	Santa Lucía Utatlán 	7	Santa Rita 	1	Enero	2023-07-01T00:00:00	2024-11-08T21:00:00	2	Temperatura media	15.9
69330	7	Sololá	704	Santa Lucía Utatlán 	7	Santa Rita 	1	Enero	2023-07-01T00:00:00	2024-11-08T21:00:00	4	Temperatura máxima	16.3
69331	7	Sololá	704	Santa Lucía Utatlán 	7	Santa Rita 	1	Enero	2023-07-01T00:00:00	2024-11-08T21:00:00	3	Temperatura mínima	14.8
69332	7	Sololá	704	Santa Lucía Utatlán 	7	Santa Rita 	1	Enero	2023-07-01T00:00:00	2024-11-08T21:00:00	5	Humedad	79
69333	7	Sololá	704	Santa Lucía Utatlán 	7	Santa Rita 	1	Enero	2023-07-01T00:00:00	2024-11-08T21:00:00	6	Velocidad del viento	3.2
69334	7	Sololá	704	Santa Lucía Utatlán 	7	Santa Rita 	1	Enero	2023-07-01T00:00:00	2024-11-08T21:00:00	7	Dirección del viento	3.22
69335	7	Sololá	704	Santa Lucía Utatlán 	7	Santa Rita 	1	Enero	2023-07-01T00:00:00	2024-11-08T21:00:00	1	Precipitación	0
69336	7	Sololá	704	Santa Lucía Utatlán 	7	Santa Rita 	1	Enero	2023-07-01T00:00:00	2024-11-08T21:00:00	8	Radiación solar	0
69337	7	Sololá	704	Santa Lucía Utatlán 	7	Santa Rita 	1	Enero	2023-07-01T00:00:00	2024-11-08T22:00:00	2	Temperatura media	14.6
69338	7	Sololá	704	Santa Lucía Utatlán 	7	Santa Rita 	1	Enero	2023-07-01T00:00:00	2024-11-08T22:00:00	4	Temperatura máxima	16.5
69339	7	Sololá	704	Santa Lucía Utatlán 	7	Santa Rita 	1	Enero	2023-07-01T00:00:00	2024-11-08T22:00:00	3	Temperatura mínima	14.6
69340	7	Sololá	704	Santa Lucía Utatlán 	7	Santa Rita 	1	Enero	2023-07-01T00:00:00	2024-11-08T22:00:00	5	Humedad	82
69341	7	Sololá	704	Santa Lucía Utatlán 	7	Santa Rita 	1	Enero	2023-07-01T00:00:00	2024-11-08T22:00:00	6	Velocidad del viento	3.2
69342	7	Sololá	704	Santa Lucía Utatlán 	7	Santa Rita 	1	Enero	2023-07-01T00:00:00	2024-11-08T22:00:00	7	Dirección del viento	3.22
69343	7	Sololá	704	Santa Lucía Utatlán 	7	Santa Rita 	1	Enero	2023-07-01T00:00:00	2024-11-08T22:00:00	1	Precipitación	0
69344	7	Sololá	704	Santa Lucía Utatlán 	7	Santa Rita 	1	Enero	2023-07-01T00:00:00	2024-11-08T22:00:00	8	Radiación solar	0
69345	7	Sololá	704	Santa Lucía Utatlán 	7	Santa Rita 	1	Enero	2023-07-01T00:00:00	2024-11-08T23:00:00	2	Temperatura media	14.2
69346	7	Sololá	704	Santa Lucía Utatlán 	7	Santa Rita 	1	Enero	2023-07-01T00:00:00	2024-11-08T23:00:00	4	Temperatura máxima	14.6
69347	7	Sololá	704	Santa Lucía Utatlán 	7	Santa Rita 	1	Enero	2023-07-01T00:00:00	2024-11-08T23:00:00	3	Temperatura mínima	13.9
69348	7	Sololá	704	Santa Lucía Utatlán 	7	Santa Rita 	1	Enero	2023-07-01T00:00:00	2024-11-08T23:00:00	5	Humedad	84
69349	7	Sololá	704	Santa Lucía Utatlán 	7	Santa Rita 	1	Enero	2023-07-01T00:00:00	2024-11-08T23:00:00	6	Velocidad del viento	4.8
69350	7	Sololá	704	Santa Lucía Utatlán 	7	Santa Rita 	1	Enero	2023-07-01T00:00:00	2024-11-08T23:00:00	7	Dirección del viento	4.83
69351	7	Sololá	704	Santa Lucía Utatlán 	7	Santa Rita 	1	Enero	2023-07-01T00:00:00	2024-11-08T23:00:00	1	Precipitación	0
69352	7	Sololá	704	Santa Lucía Utatlán 	7	Santa Rita 	1	Enero	2023-07-01T00:00:00	2024-11-08T23:00:00	8	Radiación solar	0
69353	7	Sololá	704	Santa Lucía Utatlán 	7	Santa Rita 	1	Enero	2023-08-01T00:00:00	2024-11-08T00:00:00	2	Temperatura media	16.4
69354	7	Sololá	704	Santa Lucía Utatlán 	7	Santa Rita 	1	Enero	2023-08-01T00:00:00	2024-11-08T00:00:00	4	Temperatura máxima	16.4
69355	7	Sololá	704	Santa Lucía Utatlán 	7	Santa Rita 	1	Enero	2023-08-01T00:00:00	2024-11-08T00:00:00	3	Temperatura mínima	13.8
69356	7	Sololá	704	Santa Lucía Utatlán 	7	Santa Rita 	1	Enero	2023-08-01T00:00:00	2024-11-08T00:00:00	5	Humedad	79
69357	7	Sololá	704	Santa Lucía Utatlán 	7	Santa Rita 	1	Enero	2023-08-01T00:00:00	2024-11-08T00:00:00	6	Velocidad del viento	3.2
69358	7	Sololá	704	Santa Lucía Utatlán 	7	Santa Rita 	1	Enero	2023-08-01T00:00:00	2024-11-08T00:00:00	7	Dirección del viento	3.22
69359	7	Sololá	704	Santa Lucía Utatlán 	7	Santa Rita 	1	Enero	2023-08-01T00:00:00	2024-11-08T00:00:00	1	Precipitación	0
69360	7	Sololá	704	Santa Lucía Utatlán 	7	Santa Rita 	1	Enero	2023-08-01T00:00:00	2024-11-08T00:00:00	8	Radiación solar	0
69361	7	Sololá	704	Santa Lucía Utatlán 	7	Santa Rita 	1	Enero	2023-08-01T00:00:00	2024-11-08T01:00:00	2	Temperatura media	17.4
69362	7	Sololá	704	Santa Lucía Utatlán 	7	Santa Rita 	1	Enero	2023-08-01T00:00:00	2024-11-08T01:00:00	4	Temperatura máxima	17.4
69363	7	Sololá	704	Santa Lucía Utatlán 	7	Santa Rita 	1	Enero	2023-08-01T00:00:00	2024-11-08T01:00:00	3	Temperatura mínima	16.1
69364	7	Sololá	704	Santa Lucía Utatlán 	7	Santa Rita 	1	Enero	2023-08-01T00:00:00	2024-11-08T01:00:00	5	Humedad	74
69365	7	Sololá	704	Santa Lucía Utatlán 	7	Santa Rita 	1	Enero	2023-08-01T00:00:00	2024-11-08T01:00:00	6	Velocidad del viento	3.2
69366	7	Sololá	704	Santa Lucía Utatlán 	7	Santa Rita 	1	Enero	2023-08-01T00:00:00	2024-11-08T01:00:00	7	Dirección del viento	3.22
69367	7	Sololá	704	Santa Lucía Utatlán 	7	Santa Rita 	1	Enero	2023-08-01T00:00:00	2024-11-08T01:00:00	1	Precipitación	0
69368	7	Sololá	704	Santa Lucía Utatlán 	7	Santa Rita 	1	Enero	2023-08-01T00:00:00	2024-11-08T01:00:00	8	Radiación solar	0
69369	7	Sololá	704	Santa Lucía Utatlán 	7	Santa Rita 	1	Enero	2023-08-01T00:00:00	2024-11-08T02:00:00	2	Temperatura media	16.7
69370	7	Sololá	704	Santa Lucía Utatlán 	7	Santa Rita 	1	Enero	2023-08-01T00:00:00	2024-11-08T02:00:00	4	Temperatura máxima	17.5
69371	7	Sololá	704	Santa Lucía Utatlán 	7	Santa Rita 	1	Enero	2023-08-01T00:00:00	2024-11-08T02:00:00	3	Temperatura mínima	16.7
69372	7	Sololá	704	Santa Lucía Utatlán 	7	Santa Rita 	1	Enero	2023-08-01T00:00:00	2024-11-08T02:00:00	5	Humedad	76
69373	7	Sololá	704	Santa Lucía Utatlán 	7	Santa Rita 	1	Enero	2023-08-01T00:00:00	2024-11-08T02:00:00	6	Velocidad del viento	1.6
69374	7	Sololá	704	Santa Lucía Utatlán 	7	Santa Rita 	1	Enero	2023-08-01T00:00:00	2024-11-08T02:00:00	7	Dirección del viento	1.61
69375	7	Sololá	704	Santa Lucía Utatlán 	7	Santa Rita 	1	Enero	2023-08-01T00:00:00	2024-11-08T02:00:00	1	Precipitación	0
69376	7	Sololá	704	Santa Lucía Utatlán 	7	Santa Rita 	1	Enero	2023-08-01T00:00:00	2024-11-08T02:00:00	8	Radiación solar	0
69377	7	Sololá	704	Santa Lucía Utatlán 	7	Santa Rita 	1	Enero	2023-08-01T00:00:00	2024-11-08T03:00:00	2	Temperatura media	14.9
69378	7	Sololá	704	Santa Lucía Utatlán 	7	Santa Rita 	1	Enero	2023-08-01T00:00:00	2024-11-08T03:00:00	4	Temperatura máxima	16.7
69379	7	Sololá	704	Santa Lucía Utatlán 	7	Santa Rita 	1	Enero	2023-08-01T00:00:00	2024-11-08T03:00:00	3	Temperatura mínima	14.9
69380	7	Sololá	704	Santa Lucía Utatlán 	7	Santa Rita 	1	Enero	2023-08-01T00:00:00	2024-11-08T03:00:00	5	Humedad	81
69381	7	Sololá	704	Santa Lucía Utatlán 	7	Santa Rita 	1	Enero	2023-08-01T00:00:00	2024-11-08T03:00:00	6	Velocidad del viento	1.6
69382	7	Sololá	704	Santa Lucía Utatlán 	7	Santa Rita 	1	Enero	2023-08-01T00:00:00	2024-11-08T03:00:00	7	Dirección del viento	1.61
69383	7	Sololá	704	Santa Lucía Utatlán 	7	Santa Rita 	1	Enero	2023-08-01T00:00:00	2024-11-08T03:00:00	1	Precipitación	0
69384	7	Sololá	704	Santa Lucía Utatlán 	7	Santa Rita 	1	Enero	2023-08-01T00:00:00	2024-11-08T03:00:00	8	Radiación solar	0
69385	7	Sololá	704	Santa Lucía Utatlán 	7	Santa Rita 	1	Enero	2023-08-01T00:00:00	2024-11-08T04:00:00	2	Temperatura media	14.1
69386	7	Sololá	704	Santa Lucía Utatlán 	7	Santa Rita 	1	Enero	2023-08-01T00:00:00	2024-11-08T04:00:00	4	Temperatura máxima	14.9
69387	7	Sololá	704	Santa Lucía Utatlán 	7	Santa Rita 	1	Enero	2023-08-01T00:00:00	2024-11-08T04:00:00	3	Temperatura mínima	14
69388	7	Sololá	704	Santa Lucía Utatlán 	7	Santa Rita 	1	Enero	2023-08-01T00:00:00	2024-11-08T04:00:00	5	Humedad	86
69389	7	Sololá	704	Santa Lucía Utatlán 	7	Santa Rita 	1	Enero	2023-08-01T00:00:00	2024-11-08T04:00:00	6	Velocidad del viento	3.2
69390	7	Sololá	704	Santa Lucía Utatlán 	7	Santa Rita 	1	Enero	2023-08-01T00:00:00	2024-11-08T04:00:00	7	Dirección del viento	3.22
69391	7	Sololá	704	Santa Lucía Utatlán 	7	Santa Rita 	1	Enero	2023-08-01T00:00:00	2024-11-08T04:00:00	1	Precipitación	0
69392	7	Sololá	704	Santa Lucía Utatlán 	7	Santa Rita 	1	Enero	2023-08-01T00:00:00	2024-11-08T04:00:00	8	Radiación solar	0
69393	7	Sololá	704	Santa Lucía Utatlán 	7	Santa Rita 	1	Enero	2023-08-01T00:00:00	2024-11-08T05:00:00	2	Temperatura media	14.2
69394	7	Sololá	704	Santa Lucía Utatlán 	7	Santa Rita 	1	Enero	2023-08-01T00:00:00	2024-11-08T05:00:00	4	Temperatura máxima	14.4
69395	7	Sololá	704	Santa Lucía Utatlán 	7	Santa Rita 	1	Enero	2023-08-01T00:00:00	2024-11-08T05:00:00	3	Temperatura mínima	14.1
69396	7	Sololá	704	Santa Lucía Utatlán 	7	Santa Rita 	1	Enero	2023-08-01T00:00:00	2024-11-08T05:00:00	5	Humedad	85
69397	7	Sololá	704	Santa Lucía Utatlán 	7	Santa Rita 	1	Enero	2023-08-01T00:00:00	2024-11-08T05:00:00	6	Velocidad del viento	3.2
69398	7	Sololá	704	Santa Lucía Utatlán 	7	Santa Rita 	1	Enero	2023-08-01T00:00:00	2024-11-08T05:00:00	7	Dirección del viento	3.22
69399	7	Sololá	704	Santa Lucía Utatlán 	7	Santa Rita 	1	Enero	2023-08-01T00:00:00	2024-11-08T05:00:00	1	Precipitación	0
69400	7	Sololá	704	Santa Lucía Utatlán 	7	Santa Rita 	1	Enero	2023-08-01T00:00:00	2024-11-08T05:00:00	8	Radiación solar	0
69401	7	Sololá	704	Santa Lucía Utatlán 	7	Santa Rita 	1	Enero	2023-08-01T00:00:00	2024-11-08T06:00:00	2	Temperatura media	13.8
69402	7	Sololá	704	Santa Lucía Utatlán 	7	Santa Rita 	1	Enero	2023-08-01T00:00:00	2024-11-08T06:00:00	4	Temperatura máxima	14.2
69403	7	Sololá	704	Santa Lucía Utatlán 	7	Santa Rita 	1	Enero	2023-08-01T00:00:00	2024-11-08T06:00:00	3	Temperatura mínima	13.8
69404	7	Sololá	704	Santa Lucía Utatlán 	7	Santa Rita 	1	Enero	2023-08-01T00:00:00	2024-11-08T06:00:00	5	Humedad	85
69405	7	Sololá	704	Santa Lucía Utatlán 	7	Santa Rita 	1	Enero	2023-08-01T00:00:00	2024-11-08T06:00:00	6	Velocidad del viento	3.2
69406	7	Sololá	704	Santa Lucía Utatlán 	7	Santa Rita 	1	Enero	2023-08-01T00:00:00	2024-11-08T06:00:00	7	Dirección del viento	3.22
69407	7	Sololá	704	Santa Lucía Utatlán 	7	Santa Rita 	1	Enero	2023-08-01T00:00:00	2024-11-08T06:00:00	1	Precipitación	0
69408	7	Sololá	704	Santa Lucía Utatlán 	7	Santa Rita 	1	Enero	2023-08-01T00:00:00	2024-11-08T06:00:00	8	Radiación solar	0
69409	7	Sololá	704	Santa Lucía Utatlán 	7	Santa Rita 	1	Enero	2023-08-01T00:00:00	2024-11-08T07:00:00	2	Temperatura media	14.9
69410	7	Sololá	704	Santa Lucía Utatlán 	7	Santa Rita 	1	Enero	2023-08-01T00:00:00	2024-11-08T07:00:00	4	Temperatura máxima	15
69411	7	Sololá	704	Santa Lucía Utatlán 	7	Santa Rita 	1	Enero	2023-08-01T00:00:00	2024-11-08T07:00:00	3	Temperatura mínima	13.7
69412	7	Sololá	704	Santa Lucía Utatlán 	7	Santa Rita 	1	Enero	2023-08-01T00:00:00	2024-11-08T07:00:00	5	Humedad	84
69413	7	Sololá	704	Santa Lucía Utatlán 	7	Santa Rita 	1	Enero	2023-08-01T00:00:00	2024-11-08T07:00:00	6	Velocidad del viento	1.6
69414	7	Sololá	704	Santa Lucía Utatlán 	7	Santa Rita 	1	Enero	2023-08-01T00:00:00	2024-11-08T07:00:00	7	Dirección del viento	1.61
69415	7	Sololá	704	Santa Lucía Utatlán 	7	Santa Rita 	1	Enero	2023-08-01T00:00:00	2024-11-08T07:00:00	1	Precipitación	0
69416	7	Sololá	704	Santa Lucía Utatlán 	7	Santa Rita 	1	Enero	2023-08-01T00:00:00	2024-11-08T07:00:00	8	Radiación solar	6
69417	7	Sololá	704	Santa Lucía Utatlán 	7	Santa Rita 	1	Enero	2023-08-01T00:00:00	2024-11-08T08:00:00	2	Temperatura media	18.6
69418	7	Sololá	704	Santa Lucía Utatlán 	7	Santa Rita 	1	Enero	2023-08-01T00:00:00	2024-11-08T08:00:00	4	Temperatura máxima	18.6
69419	7	Sololá	704	Santa Lucía Utatlán 	7	Santa Rita 	1	Enero	2023-08-01T00:00:00	2024-11-08T08:00:00	3	Temperatura mínima	14.9
69420	7	Sololá	704	Santa Lucía Utatlán 	7	Santa Rita 	1	Enero	2023-08-01T00:00:00	2024-11-08T08:00:00	5	Humedad	74
69421	7	Sololá	704	Santa Lucía Utatlán 	7	Santa Rita 	1	Enero	2023-08-01T00:00:00	2024-11-08T08:00:00	6	Velocidad del viento	1.6
69422	7	Sololá	704	Santa Lucía Utatlán 	7	Santa Rita 	1	Enero	2023-08-01T00:00:00	2024-11-08T08:00:00	7	Dirección del viento	1.61
69423	7	Sololá	704	Santa Lucía Utatlán 	7	Santa Rita 	1	Enero	2023-08-01T00:00:00	2024-11-08T08:00:00	1	Precipitación	0
69424	7	Sololá	704	Santa Lucía Utatlán 	7	Santa Rita 	1	Enero	2023-08-01T00:00:00	2024-11-08T08:00:00	8	Radiación solar	127
69425	7	Sololá	704	Santa Lucía Utatlán 	7	Santa Rita 	1	Enero	2023-08-01T00:00:00	2024-11-08T09:00:00	2	Temperatura media	20.9
69426	7	Sololá	704	Santa Lucía Utatlán 	7	Santa Rita 	1	Enero	2023-08-01T00:00:00	2024-11-08T09:00:00	4	Temperatura máxima	20.9
69427	7	Sololá	704	Santa Lucía Utatlán 	7	Santa Rita 	1	Enero	2023-08-01T00:00:00	2024-11-08T09:00:00	3	Temperatura mínima	18.6
69428	7	Sololá	704	Santa Lucía Utatlán 	7	Santa Rita 	1	Enero	2023-08-01T00:00:00	2024-11-08T09:00:00	5	Humedad	68
69429	7	Sololá	704	Santa Lucía Utatlán 	7	Santa Rita 	1	Enero	2023-08-01T00:00:00	2024-11-08T09:00:00	6	Velocidad del viento	3.2
69430	7	Sololá	704	Santa Lucía Utatlán 	7	Santa Rita 	1	Enero	2023-08-01T00:00:00	2024-11-08T09:00:00	7	Dirección del viento	3.22
69431	7	Sololá	704	Santa Lucía Utatlán 	7	Santa Rita 	1	Enero	2023-08-01T00:00:00	2024-11-08T09:00:00	1	Precipitación	0
69432	7	Sololá	704	Santa Lucía Utatlán 	7	Santa Rita 	1	Enero	2023-08-01T00:00:00	2024-11-08T09:00:00	8	Radiación solar	358
69433	7	Sololá	704	Santa Lucía Utatlán 	7	Santa Rita 	1	Enero	2023-08-01T00:00:00	2024-11-08T10:00:00	2	Temperatura media	22.3
69434	7	Sololá	704	Santa Lucía Utatlán 	7	Santa Rita 	1	Enero	2023-08-01T00:00:00	2024-11-08T10:00:00	4	Temperatura máxima	22.3
69435	7	Sololá	704	Santa Lucía Utatlán 	7	Santa Rita 	1	Enero	2023-08-01T00:00:00	2024-11-08T10:00:00	3	Temperatura mínima	20.9
69436	7	Sololá	704	Santa Lucía Utatlán 	7	Santa Rita 	1	Enero	2023-08-01T00:00:00	2024-11-08T10:00:00	5	Humedad	61
69437	7	Sololá	704	Santa Lucía Utatlán 	7	Santa Rita 	1	Enero	2023-08-01T00:00:00	2024-11-08T10:00:00	6	Velocidad del viento	6.4
69438	7	Sololá	704	Santa Lucía Utatlán 	7	Santa Rita 	1	Enero	2023-08-01T00:00:00	2024-11-08T10:00:00	7	Dirección del viento	6.44
69439	7	Sololá	704	Santa Lucía Utatlán 	7	Santa Rita 	1	Enero	2023-08-01T00:00:00	2024-11-08T10:00:00	1	Precipitación	0
69440	7	Sololá	704	Santa Lucía Utatlán 	7	Santa Rita 	1	Enero	2023-08-01T00:00:00	2024-11-08T10:00:00	8	Radiación solar	524
69441	7	Sololá	704	Santa Lucía Utatlán 	7	Santa Rita 	1	Enero	2023-08-01T00:00:00	2024-11-08T11:00:00	2	Temperatura media	23.5
69442	7	Sololá	704	Santa Lucía Utatlán 	7	Santa Rita 	1	Enero	2023-08-01T00:00:00	2024-11-08T11:00:00	4	Temperatura máxima	23.5
69443	7	Sololá	704	Santa Lucía Utatlán 	7	Santa Rita 	1	Enero	2023-08-01T00:00:00	2024-11-08T11:00:00	3	Temperatura mínima	22.2
69444	7	Sololá	704	Santa Lucía Utatlán 	7	Santa Rita 	1	Enero	2023-08-01T00:00:00	2024-11-08T11:00:00	5	Humedad	54
69445	7	Sololá	704	Santa Lucía Utatlán 	7	Santa Rita 	1	Enero	2023-08-01T00:00:00	2024-11-08T11:00:00	6	Velocidad del viento	9.7
69446	7	Sololá	704	Santa Lucía Utatlán 	7	Santa Rita 	1	Enero	2023-08-01T00:00:00	2024-11-08T11:00:00	7	Dirección del viento	9.66
69447	7	Sololá	704	Santa Lucía Utatlán 	7	Santa Rita 	1	Enero	2023-08-01T00:00:00	2024-11-08T11:00:00	1	Precipitación	0
69448	7	Sololá	704	Santa Lucía Utatlán 	7	Santa Rita 	1	Enero	2023-08-01T00:00:00	2024-11-08T11:00:00	8	Radiación solar	805
69449	7	Sololá	704	Santa Lucía Utatlán 	7	Santa Rita 	1	Enero	2023-08-01T00:00:00	2024-11-08T12:00:00	2	Temperatura media	23.8
69450	7	Sololá	704	Santa Lucía Utatlán 	7	Santa Rita 	1	Enero	2023-08-01T00:00:00	2024-11-08T12:00:00	4	Temperatura máxima	24.2
69451	7	Sololá	704	Santa Lucía Utatlán 	7	Santa Rita 	1	Enero	2023-08-01T00:00:00	2024-11-08T12:00:00	3	Temperatura mínima	22.9
69452	7	Sololá	704	Santa Lucía Utatlán 	7	Santa Rita 	1	Enero	2023-08-01T00:00:00	2024-11-08T12:00:00	5	Humedad	54
69453	7	Sololá	704	Santa Lucía Utatlán 	7	Santa Rita 	1	Enero	2023-08-01T00:00:00	2024-11-08T12:00:00	6	Velocidad del viento	8
69454	7	Sololá	704	Santa Lucía Utatlán 	7	Santa Rita 	1	Enero	2023-08-01T00:00:00	2024-11-08T12:00:00	7	Dirección del viento	8.05
69455	7	Sololá	704	Santa Lucía Utatlán 	7	Santa Rita 	1	Enero	2023-08-01T00:00:00	2024-11-08T12:00:00	1	Precipitación	0
69456	7	Sololá	704	Santa Lucía Utatlán 	7	Santa Rita 	1	Enero	2023-08-01T00:00:00	2024-11-08T12:00:00	8	Radiación solar	853
69457	7	Sololá	704	Santa Lucía Utatlán 	7	Santa Rita 	1	Enero	2023-08-01T00:00:00	2024-11-08T13:00:00	2	Temperatura media	24
69458	7	Sololá	704	Santa Lucía Utatlán 	7	Santa Rita 	1	Enero	2023-08-01T00:00:00	2024-11-08T13:00:00	4	Temperatura máxima	24.1
69459	7	Sololá	704	Santa Lucía Utatlán 	7	Santa Rita 	1	Enero	2023-08-01T00:00:00	2024-11-08T13:00:00	3	Temperatura mínima	23.5
69460	7	Sololá	704	Santa Lucía Utatlán 	7	Santa Rita 	1	Enero	2023-08-01T00:00:00	2024-11-08T13:00:00	5	Humedad	57
69461	7	Sololá	704	Santa Lucía Utatlán 	7	Santa Rita 	1	Enero	2023-08-01T00:00:00	2024-11-08T13:00:00	6	Velocidad del viento	9.7
69462	7	Sololá	704	Santa Lucía Utatlán 	7	Santa Rita 	1	Enero	2023-08-01T00:00:00	2024-11-08T13:00:00	7	Dirección del viento	9.66
69463	7	Sololá	704	Santa Lucía Utatlán 	7	Santa Rita 	1	Enero	2023-08-01T00:00:00	2024-11-08T13:00:00	1	Precipitación	0
69464	7	Sololá	704	Santa Lucía Utatlán 	7	Santa Rita 	1	Enero	2023-08-01T00:00:00	2024-11-08T13:00:00	8	Radiación solar	914
69465	7	Sololá	704	Santa Lucía Utatlán 	7	Santa Rita 	1	Enero	2023-08-01T00:00:00	2024-11-08T14:00:00	2	Temperatura media	23
69466	7	Sololá	704	Santa Lucía Utatlán 	7	Santa Rita 	1	Enero	2023-08-01T00:00:00	2024-11-08T14:00:00	4	Temperatura máxima	24
69467	7	Sololá	704	Santa Lucía Utatlán 	7	Santa Rita 	1	Enero	2023-08-01T00:00:00	2024-11-08T14:00:00	3	Temperatura mínima	22.1
69468	7	Sololá	704	Santa Lucía Utatlán 	7	Santa Rita 	1	Enero	2023-08-01T00:00:00	2024-11-08T14:00:00	5	Humedad	62
69469	7	Sololá	704	Santa Lucía Utatlán 	7	Santa Rita 	1	Enero	2023-08-01T00:00:00	2024-11-08T14:00:00	6	Velocidad del viento	9.7
69470	7	Sololá	704	Santa Lucía Utatlán 	7	Santa Rita 	1	Enero	2023-08-01T00:00:00	2024-11-08T14:00:00	7	Dirección del viento	9.66
69471	7	Sololá	704	Santa Lucía Utatlán 	7	Santa Rita 	1	Enero	2023-08-01T00:00:00	2024-11-08T14:00:00	1	Precipitación	0
69472	7	Sololá	704	Santa Lucía Utatlán 	7	Santa Rita 	1	Enero	2023-08-01T00:00:00	2024-11-08T14:00:00	8	Radiación solar	655
69473	7	Sololá	704	Santa Lucía Utatlán 	7	Santa Rita 	1	Enero	2023-08-01T00:00:00	2024-11-08T15:00:00	2	Temperatura media	21.8
69474	7	Sololá	704	Santa Lucía Utatlán 	7	Santa Rita 	1	Enero	2023-08-01T00:00:00	2024-11-08T15:00:00	4	Temperatura máxima	23.8
69475	7	Sololá	704	Santa Lucía Utatlán 	7	Santa Rita 	1	Enero	2023-08-01T00:00:00	2024-11-08T15:00:00	3	Temperatura mínima	21.8
69476	7	Sololá	704	Santa Lucía Utatlán 	7	Santa Rita 	1	Enero	2023-08-01T00:00:00	2024-11-08T15:00:00	5	Humedad	72
69477	7	Sololá	704	Santa Lucía Utatlán 	7	Santa Rita 	1	Enero	2023-08-01T00:00:00	2024-11-08T15:00:00	6	Velocidad del viento	8
69478	7	Sololá	704	Santa Lucía Utatlán 	7	Santa Rita 	1	Enero	2023-08-01T00:00:00	2024-11-08T15:00:00	7	Dirección del viento	8.05
69479	7	Sololá	704	Santa Lucía Utatlán 	7	Santa Rita 	1	Enero	2023-08-01T00:00:00	2024-11-08T15:00:00	1	Precipitación	0
69480	7	Sololá	704	Santa Lucía Utatlán 	7	Santa Rita 	1	Enero	2023-08-01T00:00:00	2024-11-08T15:00:00	8	Radiación solar	391
69481	7	Sololá	704	Santa Lucía Utatlán 	7	Santa Rita 	1	Enero	2023-08-01T00:00:00	2024-11-08T16:00:00	2	Temperatura media	20.2
69482	7	Sololá	704	Santa Lucía Utatlán 	7	Santa Rita 	1	Enero	2023-08-01T00:00:00	2024-11-08T16:00:00	4	Temperatura máxima	21.8
69483	7	Sololá	704	Santa Lucía Utatlán 	7	Santa Rita 	1	Enero	2023-08-01T00:00:00	2024-11-08T16:00:00	3	Temperatura mínima	20.2
69484	7	Sololá	704	Santa Lucía Utatlán 	7	Santa Rita 	1	Enero	2023-08-01T00:00:00	2024-11-08T16:00:00	5	Humedad	83
69485	7	Sololá	704	Santa Lucía Utatlán 	7	Santa Rita 	1	Enero	2023-08-01T00:00:00	2024-11-08T16:00:00	6	Velocidad del viento	8
69486	7	Sololá	704	Santa Lucía Utatlán 	7	Santa Rita 	1	Enero	2023-08-01T00:00:00	2024-11-08T16:00:00	7	Dirección del viento	8.05
69487	7	Sololá	704	Santa Lucía Utatlán 	7	Santa Rita 	1	Enero	2023-08-01T00:00:00	2024-11-08T16:00:00	1	Precipitación	0
69488	7	Sololá	704	Santa Lucía Utatlán 	7	Santa Rita 	1	Enero	2023-08-01T00:00:00	2024-11-08T16:00:00	8	Radiación solar	69
69489	7	Sololá	704	Santa Lucía Utatlán 	7	Santa Rita 	1	Enero	2023-08-01T00:00:00	2024-11-08T17:00:00	2	Temperatura media	19.6
69490	7	Sololá	704	Santa Lucía Utatlán 	7	Santa Rita 	1	Enero	2023-08-01T00:00:00	2024-11-08T17:00:00	4	Temperatura máxima	20.9
69491	7	Sololá	704	Santa Lucía Utatlán 	7	Santa Rita 	1	Enero	2023-08-01T00:00:00	2024-11-08T17:00:00	3	Temperatura mínima	19.6
69492	7	Sololá	704	Santa Lucía Utatlán 	7	Santa Rita 	1	Enero	2023-08-01T00:00:00	2024-11-08T17:00:00	5	Humedad	87
69493	7	Sololá	704	Santa Lucía Utatlán 	7	Santa Rita 	1	Enero	2023-08-01T00:00:00	2024-11-08T17:00:00	6	Velocidad del viento	3.2
69494	7	Sololá	704	Santa Lucía Utatlán 	7	Santa Rita 	1	Enero	2023-08-01T00:00:00	2024-11-08T17:00:00	7	Dirección del viento	3.22
69495	7	Sololá	704	Santa Lucía Utatlán 	7	Santa Rita 	1	Enero	2023-08-01T00:00:00	2024-11-08T17:00:00	1	Precipitación	0
69496	7	Sololá	704	Santa Lucía Utatlán 	7	Santa Rita 	1	Enero	2023-08-01T00:00:00	2024-11-08T17:00:00	8	Radiación solar	75
69497	7	Sololá	704	Santa Lucía Utatlán 	7	Santa Rita 	1	Enero	2023-08-01T00:00:00	2024-11-08T18:00:00	2	Temperatura media	18.6
69498	7	Sololá	704	Santa Lucía Utatlán 	7	Santa Rita 	1	Enero	2023-08-01T00:00:00	2024-11-08T18:00:00	4	Temperatura máxima	19.6
69499	7	Sololá	704	Santa Lucía Utatlán 	7	Santa Rita 	1	Enero	2023-08-01T00:00:00	2024-11-08T18:00:00	3	Temperatura mínima	18.6
69500	7	Sololá	704	Santa Lucía Utatlán 	7	Santa Rita 	1	Enero	2023-08-01T00:00:00	2024-11-08T18:00:00	5	Humedad	87
69501	7	Sololá	704	Santa Lucía Utatlán 	7	Santa Rita 	1	Enero	2023-08-01T00:00:00	2024-11-08T18:00:00	6	Velocidad del viento	1.6
69502	7	Sololá	704	Santa Lucía Utatlán 	7	Santa Rita 	1	Enero	2023-08-01T00:00:00	2024-11-08T18:00:00	7	Dirección del viento	1.61
69503	7	Sololá	704	Santa Lucía Utatlán 	7	Santa Rita 	1	Enero	2023-08-01T00:00:00	2024-11-08T18:00:00	1	Precipitación	0
69504	7	Sololá	704	Santa Lucía Utatlán 	7	Santa Rita 	1	Enero	2023-08-01T00:00:00	2024-11-08T18:00:00	8	Radiación solar	8
69505	7	Sololá	704	Santa Lucía Utatlán 	7	Santa Rita 	1	Enero	2023-08-01T00:00:00	2024-11-08T19:00:00	2	Temperatura media	17.2
69506	7	Sololá	704	Santa Lucía Utatlán 	7	Santa Rita 	1	Enero	2023-08-01T00:00:00	2024-11-08T19:00:00	4	Temperatura máxima	18.6
69507	7	Sololá	704	Santa Lucía Utatlán 	7	Santa Rita 	1	Enero	2023-08-01T00:00:00	2024-11-08T19:00:00	3	Temperatura mínima	17.1
69508	7	Sololá	704	Santa Lucía Utatlán 	7	Santa Rita 	1	Enero	2023-08-01T00:00:00	2024-11-08T19:00:00	5	Humedad	88
69509	7	Sololá	704	Santa Lucía Utatlán 	7	Santa Rita 	1	Enero	2023-08-01T00:00:00	2024-11-08T19:00:00	6	Velocidad del viento	1.6
69510	7	Sololá	704	Santa Lucía Utatlán 	7	Santa Rita 	1	Enero	2023-08-01T00:00:00	2024-11-08T19:00:00	7	Dirección del viento	1.61
69511	7	Sololá	704	Santa Lucía Utatlán 	7	Santa Rita 	1	Enero	2023-08-01T00:00:00	2024-11-08T19:00:00	1	Precipitación	0
69512	7	Sololá	704	Santa Lucía Utatlán 	7	Santa Rita 	1	Enero	2023-08-01T00:00:00	2024-11-08T19:00:00	8	Radiación solar	0
69513	7	Sololá	704	Santa Lucía Utatlán 	7	Santa Rita 	1	Enero	2023-08-01T00:00:00	2024-11-08T20:00:00	2	Temperatura media	16.5
69514	7	Sololá	704	Santa Lucía Utatlán 	7	Santa Rita 	1	Enero	2023-08-01T00:00:00	2024-11-08T20:00:00	4	Temperatura máxima	17.2
69515	7	Sololá	704	Santa Lucía Utatlán 	7	Santa Rita 	1	Enero	2023-08-01T00:00:00	2024-11-08T20:00:00	3	Temperatura mínima	16.3
69516	7	Sololá	704	Santa Lucía Utatlán 	7	Santa Rita 	1	Enero	2023-08-01T00:00:00	2024-11-08T20:00:00	5	Humedad	85
69517	7	Sololá	704	Santa Lucía Utatlán 	7	Santa Rita 	1	Enero	2023-08-01T00:00:00	2024-11-08T20:00:00	6	Velocidad del viento	3.2
69518	7	Sololá	704	Santa Lucía Utatlán 	7	Santa Rita 	1	Enero	2023-08-01T00:00:00	2024-11-08T20:00:00	7	Dirección del viento	3.22
69519	7	Sololá	704	Santa Lucía Utatlán 	7	Santa Rita 	1	Enero	2023-08-01T00:00:00	2024-11-08T20:00:00	1	Precipitación	0
69520	7	Sololá	704	Santa Lucía Utatlán 	7	Santa Rita 	1	Enero	2023-08-01T00:00:00	2024-11-08T20:00:00	8	Radiación solar	0
69521	7	Sololá	704	Santa Lucía Utatlán 	7	Santa Rita 	1	Enero	2023-08-01T00:00:00	2024-11-08T21:00:00	2	Temperatura media	15.3
69522	7	Sololá	704	Santa Lucía Utatlán 	7	Santa Rita 	1	Enero	2023-08-01T00:00:00	2024-11-08T21:00:00	4	Temperatura máxima	16.4
69523	7	Sololá	704	Santa Lucía Utatlán 	7	Santa Rita 	1	Enero	2023-08-01T00:00:00	2024-11-08T21:00:00	3	Temperatura mínima	15.3
69524	7	Sololá	704	Santa Lucía Utatlán 	7	Santa Rita 	1	Enero	2023-08-01T00:00:00	2024-11-08T21:00:00	5	Humedad	85
69525	7	Sololá	704	Santa Lucía Utatlán 	7	Santa Rita 	1	Enero	2023-08-01T00:00:00	2024-11-08T21:00:00	6	Velocidad del viento	3.2
69526	7	Sololá	704	Santa Lucía Utatlán 	7	Santa Rita 	1	Enero	2023-08-01T00:00:00	2024-11-08T21:00:00	7	Dirección del viento	3.22
69527	7	Sololá	704	Santa Lucía Utatlán 	7	Santa Rita 	1	Enero	2023-08-01T00:00:00	2024-11-08T21:00:00	1	Precipitación	0
69528	7	Sololá	704	Santa Lucía Utatlán 	7	Santa Rita 	1	Enero	2023-08-01T00:00:00	2024-11-08T21:00:00	8	Radiación solar	0
69529	7	Sololá	704	Santa Lucía Utatlán 	7	Santa Rita 	1	Enero	2023-08-01T00:00:00	2024-11-08T22:00:00	2	Temperatura media	15.5
69530	7	Sololá	704	Santa Lucía Utatlán 	7	Santa Rita 	1	Enero	2023-08-01T00:00:00	2024-11-08T22:00:00	4	Temperatura máxima	15.7
69531	7	Sololá	704	Santa Lucía Utatlán 	7	Santa Rita 	1	Enero	2023-08-01T00:00:00	2024-11-08T22:00:00	3	Temperatura mínima	15.2
69532	7	Sololá	704	Santa Lucía Utatlán 	7	Santa Rita 	1	Enero	2023-08-01T00:00:00	2024-11-08T22:00:00	5	Humedad	84
69533	7	Sololá	704	Santa Lucía Utatlán 	7	Santa Rita 	1	Enero	2023-08-01T00:00:00	2024-11-08T22:00:00	6	Velocidad del viento	3.2
69534	7	Sololá	704	Santa Lucía Utatlán 	7	Santa Rita 	1	Enero	2023-08-01T00:00:00	2024-11-08T22:00:00	7	Dirección del viento	3.22
69535	7	Sololá	704	Santa Lucía Utatlán 	7	Santa Rita 	1	Enero	2023-08-01T00:00:00	2024-11-08T22:00:00	1	Precipitación	0
69536	7	Sololá	704	Santa Lucía Utatlán 	7	Santa Rita 	1	Enero	2023-08-01T00:00:00	2024-11-08T22:00:00	8	Radiación solar	0
69537	7	Sololá	704	Santa Lucía Utatlán 	7	Santa Rita 	1	Enero	2023-08-01T00:00:00	2024-11-08T23:00:00	2	Temperatura media	17.7
69538	7	Sololá	704	Santa Lucía Utatlán 	7	Santa Rita 	1	Enero	2023-08-01T00:00:00	2024-11-08T23:00:00	4	Temperatura máxima	18.2
69539	7	Sololá	704	Santa Lucía Utatlán 	7	Santa Rita 	1	Enero	2023-08-01T00:00:00	2024-11-08T23:00:00	3	Temperatura mínima	15.5
69540	7	Sololá	704	Santa Lucía Utatlán 	7	Santa Rita 	1	Enero	2023-08-01T00:00:00	2024-11-08T23:00:00	5	Humedad	74
69541	7	Sololá	704	Santa Lucía Utatlán 	7	Santa Rita 	1	Enero	2023-08-01T00:00:00	2024-11-08T23:00:00	6	Velocidad del viento	4.8
69542	7	Sololá	704	Santa Lucía Utatlán 	7	Santa Rita 	1	Enero	2023-08-01T00:00:00	2024-11-08T23:00:00	7	Dirección del viento	4.83
69543	7	Sololá	704	Santa Lucía Utatlán 	7	Santa Rita 	1	Enero	2023-08-01T00:00:00	2024-11-08T23:00:00	1	Precipitación	0
69544	7	Sololá	704	Santa Lucía Utatlán 	7	Santa Rita 	1	Enero	2023-08-01T00:00:00	2024-11-08T23:00:00	8	Radiación solar	0
69545	7	Sololá	704	Santa Lucía Utatlán 	7	Santa Rita 	1	Enero	2023-09-01T00:00:00	2024-11-08T00:00:00	2	Temperatura media	15.8
69546	7	Sololá	704	Santa Lucía Utatlán 	7	Santa Rita 	1	Enero	2023-09-01T00:00:00	2024-11-08T00:00:00	4	Temperatura máxima	17.7
69547	7	Sololá	704	Santa Lucía Utatlán 	7	Santa Rita 	1	Enero	2023-09-01T00:00:00	2024-11-08T00:00:00	3	Temperatura mínima	15.3
69548	7	Sololá	704	Santa Lucía Utatlán 	7	Santa Rita 	1	Enero	2023-09-01T00:00:00	2024-11-08T00:00:00	5	Humedad	79
69549	7	Sololá	704	Santa Lucía Utatlán 	7	Santa Rita 	1	Enero	2023-09-01T00:00:00	2024-11-08T00:00:00	6	Velocidad del viento	1.6
69550	7	Sololá	704	Santa Lucía Utatlán 	7	Santa Rita 	1	Enero	2023-09-01T00:00:00	2024-11-08T00:00:00	7	Dirección del viento	1.61
69551	7	Sololá	704	Santa Lucía Utatlán 	7	Santa Rita 	1	Enero	2023-09-01T00:00:00	2024-11-08T00:00:00	1	Precipitación	0
69552	7	Sololá	704	Santa Lucía Utatlán 	7	Santa Rita 	1	Enero	2023-09-01T00:00:00	2024-11-08T00:00:00	8	Radiación solar	0
69553	7	Sololá	704	Santa Lucía Utatlán 	7	Santa Rita 	1	Enero	2023-09-01T00:00:00	2024-11-08T01:00:00	2	Temperatura media	16.6
69554	7	Sololá	704	Santa Lucía Utatlán 	7	Santa Rita 	1	Enero	2023-09-01T00:00:00	2024-11-08T01:00:00	4	Temperatura máxima	17.3
69555	7	Sololá	704	Santa Lucía Utatlán 	7	Santa Rita 	1	Enero	2023-09-01T00:00:00	2024-11-08T01:00:00	3	Temperatura mínima	15.7
69556	7	Sololá	704	Santa Lucía Utatlán 	7	Santa Rita 	1	Enero	2023-09-01T00:00:00	2024-11-08T01:00:00	5	Humedad	77
69557	7	Sololá	704	Santa Lucía Utatlán 	7	Santa Rita 	1	Enero	2023-09-01T00:00:00	2024-11-08T01:00:00	6	Velocidad del viento	3.2
69558	7	Sololá	704	Santa Lucía Utatlán 	7	Santa Rita 	1	Enero	2023-09-01T00:00:00	2024-11-08T01:00:00	7	Dirección del viento	3.22
69559	7	Sololá	704	Santa Lucía Utatlán 	7	Santa Rita 	1	Enero	2023-09-01T00:00:00	2024-11-08T01:00:00	1	Precipitación	0
69560	7	Sololá	704	Santa Lucía Utatlán 	7	Santa Rita 	1	Enero	2023-09-01T00:00:00	2024-11-08T01:00:00	8	Radiación solar	0
69561	7	Sololá	704	Santa Lucía Utatlán 	7	Santa Rita 	1	Enero	2023-09-01T00:00:00	2024-11-08T02:00:00	2	Temperatura media	17.2
69562	7	Sololá	704	Santa Lucía Utatlán 	7	Santa Rita 	1	Enero	2023-09-01T00:00:00	2024-11-08T02:00:00	4	Temperatura máxima	17.4
69563	7	Sololá	704	Santa Lucía Utatlán 	7	Santa Rita 	1	Enero	2023-09-01T00:00:00	2024-11-08T02:00:00	3	Temperatura mínima	16.4
69564	7	Sololá	704	Santa Lucía Utatlán 	7	Santa Rita 	1	Enero	2023-09-01T00:00:00	2024-11-08T02:00:00	5	Humedad	73
69565	7	Sololá	704	Santa Lucía Utatlán 	7	Santa Rita 	1	Enero	2023-09-01T00:00:00	2024-11-08T02:00:00	6	Velocidad del viento	3.2
69566	7	Sololá	704	Santa Lucía Utatlán 	7	Santa Rita 	1	Enero	2023-09-01T00:00:00	2024-11-08T02:00:00	7	Dirección del viento	3.22
69567	7	Sololá	704	Santa Lucía Utatlán 	7	Santa Rita 	1	Enero	2023-09-01T00:00:00	2024-11-08T02:00:00	1	Precipitación	0
69568	7	Sololá	704	Santa Lucía Utatlán 	7	Santa Rita 	1	Enero	2023-09-01T00:00:00	2024-11-08T02:00:00	8	Radiación solar	0
69569	7	Sololá	704	Santa Lucía Utatlán 	7	Santa Rita 	1	Enero	2023-09-01T00:00:00	2024-11-08T03:00:00	2	Temperatura media	15.7
69570	7	Sololá	704	Santa Lucía Utatlán 	7	Santa Rita 	1	Enero	2023-09-01T00:00:00	2024-11-08T03:00:00	4	Temperatura máxima	17.2
69571	7	Sololá	704	Santa Lucía Utatlán 	7	Santa Rita 	1	Enero	2023-09-01T00:00:00	2024-11-08T03:00:00	3	Temperatura mínima	15.7
69572	7	Sololá	704	Santa Lucía Utatlán 	7	Santa Rita 	1	Enero	2023-09-01T00:00:00	2024-11-08T03:00:00	5	Humedad	76
69573	7	Sololá	704	Santa Lucía Utatlán 	7	Santa Rita 	1	Enero	2023-09-01T00:00:00	2024-11-08T03:00:00	6	Velocidad del viento	1.6
69574	7	Sololá	704	Santa Lucía Utatlán 	7	Santa Rita 	1	Enero	2023-09-01T00:00:00	2024-11-08T03:00:00	7	Dirección del viento	1.61
69575	7	Sololá	704	Santa Lucía Utatlán 	7	Santa Rita 	1	Enero	2023-09-01T00:00:00	2024-11-08T03:00:00	1	Precipitación	0
69576	7	Sololá	704	Santa Lucía Utatlán 	7	Santa Rita 	1	Enero	2023-09-01T00:00:00	2024-11-08T03:00:00	8	Radiación solar	0
69577	7	Sololá	704	Santa Lucía Utatlán 	7	Santa Rita 	1	Enero	2023-09-01T00:00:00	2024-11-08T04:00:00	2	Temperatura media	13.8
69578	7	Sololá	704	Santa Lucía Utatlán 	7	Santa Rita 	1	Enero	2023-09-01T00:00:00	2024-11-08T04:00:00	4	Temperatura máxima	15.7
69579	7	Sololá	704	Santa Lucía Utatlán 	7	Santa Rita 	1	Enero	2023-09-01T00:00:00	2024-11-08T04:00:00	3	Temperatura mínima	13.8
69580	7	Sololá	704	Santa Lucía Utatlán 	7	Santa Rita 	1	Enero	2023-09-01T00:00:00	2024-11-08T04:00:00	5	Humedad	83
69581	7	Sololá	704	Santa Lucía Utatlán 	7	Santa Rita 	1	Enero	2023-09-01T00:00:00	2024-11-08T04:00:00	6	Velocidad del viento	3.2
69582	7	Sololá	704	Santa Lucía Utatlán 	7	Santa Rita 	1	Enero	2023-09-01T00:00:00	2024-11-08T04:00:00	7	Dirección del viento	3.22
69583	7	Sololá	704	Santa Lucía Utatlán 	7	Santa Rita 	1	Enero	2023-09-01T00:00:00	2024-11-08T04:00:00	1	Precipitación	0
69584	7	Sololá	704	Santa Lucía Utatlán 	7	Santa Rita 	1	Enero	2023-09-01T00:00:00	2024-11-08T04:00:00	8	Radiación solar	0
69585	7	Sololá	704	Santa Lucía Utatlán 	7	Santa Rita 	1	Enero	2023-09-01T00:00:00	2024-11-08T05:00:00	2	Temperatura media	13.9
69586	7	Sololá	704	Santa Lucía Utatlán 	7	Santa Rita 	1	Enero	2023-09-01T00:00:00	2024-11-08T05:00:00	4	Temperatura máxima	14.1
69587	7	Sololá	704	Santa Lucía Utatlán 	7	Santa Rita 	1	Enero	2023-09-01T00:00:00	2024-11-08T05:00:00	3	Temperatura mínima	13.7
69588	7	Sololá	704	Santa Lucía Utatlán 	7	Santa Rita 	1	Enero	2023-09-01T00:00:00	2024-11-08T05:00:00	5	Humedad	82
69589	7	Sololá	704	Santa Lucía Utatlán 	7	Santa Rita 	1	Enero	2023-09-01T00:00:00	2024-11-08T05:00:00	6	Velocidad del viento	4.8
69590	7	Sololá	704	Santa Lucía Utatlán 	7	Santa Rita 	1	Enero	2023-09-01T00:00:00	2024-11-08T05:00:00	7	Dirección del viento	4.83
69591	7	Sololá	704	Santa Lucía Utatlán 	7	Santa Rita 	1	Enero	2023-09-01T00:00:00	2024-11-08T05:00:00	1	Precipitación	0
69592	7	Sololá	704	Santa Lucía Utatlán 	7	Santa Rita 	1	Enero	2023-09-01T00:00:00	2024-11-08T05:00:00	8	Radiación solar	0
69593	7	Sololá	704	Santa Lucía Utatlán 	7	Santa Rita 	1	Enero	2023-09-01T00:00:00	2024-11-08T06:00:00	2	Temperatura media	14.1
69594	7	Sololá	704	Santa Lucía Utatlán 	7	Santa Rita 	1	Enero	2023-09-01T00:00:00	2024-11-08T06:00:00	4	Temperatura máxima	14.4
69595	7	Sololá	704	Santa Lucía Utatlán 	7	Santa Rita 	1	Enero	2023-09-01T00:00:00	2024-11-08T06:00:00	3	Temperatura mínima	13.9
69596	7	Sololá	704	Santa Lucía Utatlán 	7	Santa Rita 	1	Enero	2023-09-01T00:00:00	2024-11-08T06:00:00	5	Humedad	81
69597	7	Sololá	704	Santa Lucía Utatlán 	7	Santa Rita 	1	Enero	2023-09-01T00:00:00	2024-11-08T06:00:00	6	Velocidad del viento	4.8
69598	7	Sololá	704	Santa Lucía Utatlán 	7	Santa Rita 	1	Enero	2023-09-01T00:00:00	2024-11-08T06:00:00	7	Dirección del viento	4.83
69599	7	Sololá	704	Santa Lucía Utatlán 	7	Santa Rita 	1	Enero	2023-09-01T00:00:00	2024-11-08T06:00:00	1	Precipitación	0
69600	7	Sololá	704	Santa Lucía Utatlán 	7	Santa Rita 	1	Enero	2023-09-01T00:00:00	2024-11-08T06:00:00	8	Radiación solar	0
69601	7	Sololá	704	Santa Lucía Utatlán 	7	Santa Rita 	1	Enero	2023-09-01T00:00:00	2024-11-08T07:00:00	2	Temperatura media	14.6
69602	7	Sololá	704	Santa Lucía Utatlán 	7	Santa Rita 	1	Enero	2023-09-01T00:00:00	2024-11-08T07:00:00	4	Temperatura máxima	14.6
69603	7	Sololá	704	Santa Lucía Utatlán 	7	Santa Rita 	1	Enero	2023-09-01T00:00:00	2024-11-08T07:00:00	3	Temperatura mínima	14.1
69604	7	Sololá	704	Santa Lucía Utatlán 	7	Santa Rita 	1	Enero	2023-09-01T00:00:00	2024-11-08T07:00:00	5	Humedad	80
69605	7	Sololá	704	Santa Lucía Utatlán 	7	Santa Rita 	1	Enero	2023-09-01T00:00:00	2024-11-08T07:00:00	6	Velocidad del viento	4.8
69606	7	Sololá	704	Santa Lucía Utatlán 	7	Santa Rita 	1	Enero	2023-09-01T00:00:00	2024-11-08T07:00:00	7	Dirección del viento	4.83
69607	7	Sololá	704	Santa Lucía Utatlán 	7	Santa Rita 	1	Enero	2023-09-01T00:00:00	2024-11-08T07:00:00	1	Precipitación	0
69608	7	Sololá	704	Santa Lucía Utatlán 	7	Santa Rita 	1	Enero	2023-09-01T00:00:00	2024-11-08T07:00:00	8	Radiación solar	5
69609	7	Sololá	704	Santa Lucía Utatlán 	7	Santa Rita 	1	Enero	2023-09-01T00:00:00	2024-11-08T08:00:00	2	Temperatura media	19.2
69610	7	Sololá	704	Santa Lucía Utatlán 	7	Santa Rita 	1	Enero	2023-09-01T00:00:00	2024-11-08T08:00:00	4	Temperatura máxima	19.2
69611	7	Sololá	704	Santa Lucía Utatlán 	7	Santa Rita 	1	Enero	2023-09-01T00:00:00	2024-11-08T08:00:00	3	Temperatura mínima	14.6
69612	7	Sololá	704	Santa Lucía Utatlán 	7	Santa Rita 	1	Enero	2023-09-01T00:00:00	2024-11-08T08:00:00	5	Humedad	68
69613	7	Sololá	704	Santa Lucía Utatlán 	7	Santa Rita 	1	Enero	2023-09-01T00:00:00	2024-11-08T08:00:00	6	Velocidad del viento	0
69614	7	Sololá	704	Santa Lucía Utatlán 	7	Santa Rita 	1	Enero	2023-09-01T00:00:00	2024-11-08T08:00:00	7	Dirección del viento	0
69615	7	Sololá	704	Santa Lucía Utatlán 	7	Santa Rita 	1	Enero	2023-09-01T00:00:00	2024-11-08T08:00:00	1	Precipitación	0
69616	7	Sololá	704	Santa Lucía Utatlán 	7	Santa Rita 	1	Enero	2023-09-01T00:00:00	2024-11-08T08:00:00	8	Radiación solar	124
69617	7	Sololá	704	Santa Lucía Utatlán 	7	Santa Rita 	1	Enero	2023-09-01T00:00:00	2024-11-08T09:00:00	2	Temperatura media	20.9
69618	7	Sololá	704	Santa Lucía Utatlán 	7	Santa Rita 	1	Enero	2023-09-01T00:00:00	2024-11-08T09:00:00	4	Temperatura máxima	20.9
69619	7	Sololá	704	Santa Lucía Utatlán 	7	Santa Rita 	1	Enero	2023-09-01T00:00:00	2024-11-08T09:00:00	3	Temperatura mínima	19.2
69620	7	Sololá	704	Santa Lucía Utatlán 	7	Santa Rita 	1	Enero	2023-09-01T00:00:00	2024-11-08T09:00:00	5	Humedad	65
69621	7	Sololá	704	Santa Lucía Utatlán 	7	Santa Rita 	1	Enero	2023-09-01T00:00:00	2024-11-08T09:00:00	6	Velocidad del viento	3.2
69622	7	Sololá	704	Santa Lucía Utatlán 	7	Santa Rita 	1	Enero	2023-09-01T00:00:00	2024-11-08T09:00:00	7	Dirección del viento	3.22
69623	7	Sololá	704	Santa Lucía Utatlán 	7	Santa Rita 	1	Enero	2023-09-01T00:00:00	2024-11-08T09:00:00	1	Precipitación	0
69624	7	Sololá	704	Santa Lucía Utatlán 	7	Santa Rita 	1	Enero	2023-09-01T00:00:00	2024-11-08T09:00:00	8	Radiación solar	359
69625	7	Sololá	704	Santa Lucía Utatlán 	7	Santa Rita 	1	Enero	2023-09-01T00:00:00	2024-11-08T10:00:00	2	Temperatura media	22.2
69626	7	Sololá	704	Santa Lucía Utatlán 	7	Santa Rita 	1	Enero	2023-09-01T00:00:00	2024-11-08T10:00:00	4	Temperatura máxima	22.4
69627	7	Sololá	704	Santa Lucía Utatlán 	7	Santa Rita 	1	Enero	2023-09-01T00:00:00	2024-11-08T10:00:00	3	Temperatura mínima	20.9
69628	7	Sololá	704	Santa Lucía Utatlán 	7	Santa Rita 	1	Enero	2023-09-01T00:00:00	2024-11-08T10:00:00	5	Humedad	61
69629	7	Sololá	704	Santa Lucía Utatlán 	7	Santa Rita 	1	Enero	2023-09-01T00:00:00	2024-11-08T10:00:00	6	Velocidad del viento	6.4
69630	7	Sololá	704	Santa Lucía Utatlán 	7	Santa Rita 	1	Enero	2023-09-01T00:00:00	2024-11-08T10:00:00	7	Dirección del viento	6.44
69631	7	Sololá	704	Santa Lucía Utatlán 	7	Santa Rita 	1	Enero	2023-09-01T00:00:00	2024-11-08T10:00:00	1	Precipitación	0
69632	7	Sololá	704	Santa Lucía Utatlán 	7	Santa Rita 	1	Enero	2023-09-01T00:00:00	2024-11-08T10:00:00	8	Radiación solar	575
69633	7	Sololá	704	Santa Lucía Utatlán 	7	Santa Rita 	1	Enero	2023-09-01T00:00:00	2024-11-08T11:00:00	2	Temperatura media	22.8
69634	7	Sololá	704	Santa Lucía Utatlán 	7	Santa Rita 	1	Enero	2023-09-01T00:00:00	2024-11-08T11:00:00	4	Temperatura máxima	22.8
69635	7	Sololá	704	Santa Lucía Utatlán 	7	Santa Rita 	1	Enero	2023-09-01T00:00:00	2024-11-08T11:00:00	3	Temperatura mínima	21.7
69636	7	Sololá	704	Santa Lucía Utatlán 	7	Santa Rita 	1	Enero	2023-09-01T00:00:00	2024-11-08T11:00:00	5	Humedad	58
69637	7	Sololá	704	Santa Lucía Utatlán 	7	Santa Rita 	1	Enero	2023-09-01T00:00:00	2024-11-08T11:00:00	6	Velocidad del viento	6.4
69638	7	Sololá	704	Santa Lucía Utatlán 	7	Santa Rita 	1	Enero	2023-09-01T00:00:00	2024-11-08T11:00:00	7	Dirección del viento	6.44
69639	7	Sololá	704	Santa Lucía Utatlán 	7	Santa Rita 	1	Enero	2023-09-01T00:00:00	2024-11-08T11:00:00	1	Precipitación	0
69640	7	Sololá	704	Santa Lucía Utatlán 	7	Santa Rita 	1	Enero	2023-09-01T00:00:00	2024-11-08T11:00:00	8	Radiación solar	383
69641	7	Sololá	704	Santa Lucía Utatlán 	7	Santa Rita 	1	Enero	2023-09-01T00:00:00	2024-11-08T12:00:00	2	Temperatura media	24.1
69642	7	Sololá	704	Santa Lucía Utatlán 	7	Santa Rita 	1	Enero	2023-09-01T00:00:00	2024-11-08T12:00:00	4	Temperatura máxima	24.1
69643	7	Sololá	704	Santa Lucía Utatlán 	7	Santa Rita 	1	Enero	2023-09-01T00:00:00	2024-11-08T12:00:00	3	Temperatura mínima	22.5
69644	7	Sololá	704	Santa Lucía Utatlán 	7	Santa Rita 	1	Enero	2023-09-01T00:00:00	2024-11-08T12:00:00	5	Humedad	54
69645	7	Sololá	704	Santa Lucía Utatlán 	7	Santa Rita 	1	Enero	2023-09-01T00:00:00	2024-11-08T12:00:00	6	Velocidad del viento	8
69646	7	Sololá	704	Santa Lucía Utatlán 	7	Santa Rita 	1	Enero	2023-09-01T00:00:00	2024-11-08T12:00:00	7	Dirección del viento	8.05
69647	7	Sololá	704	Santa Lucía Utatlán 	7	Santa Rita 	1	Enero	2023-09-01T00:00:00	2024-11-08T12:00:00	1	Precipitación	0
69648	7	Sololá	704	Santa Lucía Utatlán 	7	Santa Rita 	1	Enero	2023-09-01T00:00:00	2024-11-08T12:00:00	8	Radiación solar	659
69649	7	Sololá	704	Santa Lucía Utatlán 	7	Santa Rita 	1	Enero	2023-09-01T00:00:00	2024-11-08T13:00:00	2	Temperatura media	23.3
69650	7	Sololá	704	Santa Lucía Utatlán 	7	Santa Rita 	1	Enero	2023-09-01T00:00:00	2024-11-08T13:00:00	4	Temperatura máxima	24.1
69651	7	Sololá	704	Santa Lucía Utatlán 	7	Santa Rita 	1	Enero	2023-09-01T00:00:00	2024-11-08T13:00:00	3	Temperatura mínima	23.3
69652	7	Sololá	704	Santa Lucía Utatlán 	7	Santa Rita 	1	Enero	2023-09-01T00:00:00	2024-11-08T13:00:00	5	Humedad	51
69653	7	Sololá	704	Santa Lucía Utatlán 	7	Santa Rita 	1	Enero	2023-09-01T00:00:00	2024-11-08T13:00:00	6	Velocidad del viento	4.8
69654	7	Sololá	704	Santa Lucía Utatlán 	7	Santa Rita 	1	Enero	2023-09-01T00:00:00	2024-11-08T13:00:00	7	Dirección del viento	4.83
69655	7	Sololá	704	Santa Lucía Utatlán 	7	Santa Rita 	1	Enero	2023-09-01T00:00:00	2024-11-08T13:00:00	1	Precipitación	0
69656	7	Sololá	704	Santa Lucía Utatlán 	7	Santa Rita 	1	Enero	2023-09-01T00:00:00	2024-11-08T13:00:00	8	Radiación solar	334
69657	7	Sololá	704	Santa Lucía Utatlán 	7	Santa Rita 	1	Enero	2023-09-01T00:00:00	2024-11-08T14:00:00	2	Temperatura media	23.1
69658	7	Sololá	704	Santa Lucía Utatlán 	7	Santa Rita 	1	Enero	2023-09-01T00:00:00	2024-11-08T14:00:00	4	Temperatura máxima	24.3
69659	7	Sololá	704	Santa Lucía Utatlán 	7	Santa Rita 	1	Enero	2023-09-01T00:00:00	2024-11-08T14:00:00	3	Temperatura mínima	23.1
69660	7	Sololá	704	Santa Lucía Utatlán 	7	Santa Rita 	1	Enero	2023-09-01T00:00:00	2024-11-08T14:00:00	5	Humedad	62
69661	7	Sololá	704	Santa Lucía Utatlán 	7	Santa Rita 	1	Enero	2023-09-01T00:00:00	2024-11-08T14:00:00	6	Velocidad del viento	11.3
69662	7	Sololá	704	Santa Lucía Utatlán 	7	Santa Rita 	1	Enero	2023-09-01T00:00:00	2024-11-08T14:00:00	7	Dirección del viento	11.27
69663	7	Sololá	704	Santa Lucía Utatlán 	7	Santa Rita 	1	Enero	2023-09-01T00:00:00	2024-11-08T14:00:00	1	Precipitación	0
69664	7	Sololá	704	Santa Lucía Utatlán 	7	Santa Rita 	1	Enero	2023-09-01T00:00:00	2024-11-08T14:00:00	8	Radiación solar	841
69665	7	Sololá	704	Santa Lucía Utatlán 	7	Santa Rita 	1	Enero	2023-09-01T00:00:00	2024-11-08T15:00:00	2	Temperatura media	22.8
69666	7	Sololá	704	Santa Lucía Utatlán 	7	Santa Rita 	1	Enero	2023-09-01T00:00:00	2024-11-08T15:00:00	4	Temperatura máxima	23.2
69667	7	Sololá	704	Santa Lucía Utatlán 	7	Santa Rita 	1	Enero	2023-09-01T00:00:00	2024-11-08T15:00:00	3	Temperatura mínima	22.7
69668	7	Sololá	704	Santa Lucía Utatlán 	7	Santa Rita 	1	Enero	2023-09-01T00:00:00	2024-11-08T15:00:00	5	Humedad	64
69669	7	Sololá	704	Santa Lucía Utatlán 	7	Santa Rita 	1	Enero	2023-09-01T00:00:00	2024-11-08T15:00:00	6	Velocidad del viento	11.3
69670	7	Sololá	704	Santa Lucía Utatlán 	7	Santa Rita 	1	Enero	2023-09-01T00:00:00	2024-11-08T15:00:00	7	Dirección del viento	11.27
69671	7	Sololá	704	Santa Lucía Utatlán 	7	Santa Rita 	1	Enero	2023-09-01T00:00:00	2024-11-08T15:00:00	1	Precipitación	0
69672	7	Sololá	704	Santa Lucía Utatlán 	7	Santa Rita 	1	Enero	2023-09-01T00:00:00	2024-11-08T15:00:00	8	Radiación solar	679
69673	7	Sololá	704	Santa Lucía Utatlán 	7	Santa Rita 	1	Enero	2023-09-01T00:00:00	2024-11-08T16:00:00	2	Temperatura media	21.7
69674	7	Sololá	704	Santa Lucía Utatlán 	7	Santa Rita 	1	Enero	2023-09-01T00:00:00	2024-11-08T16:00:00	4	Temperatura máxima	22.9
69675	7	Sololá	704	Santa Lucía Utatlán 	7	Santa Rita 	1	Enero	2023-09-01T00:00:00	2024-11-08T16:00:00	3	Temperatura mínima	21.7
69676	7	Sololá	704	Santa Lucía Utatlán 	7	Santa Rita 	1	Enero	2023-09-01T00:00:00	2024-11-08T16:00:00	5	Humedad	66
69677	7	Sololá	704	Santa Lucía Utatlán 	7	Santa Rita 	1	Enero	2023-09-01T00:00:00	2024-11-08T16:00:00	6	Velocidad del viento	9.7
69678	7	Sololá	704	Santa Lucía Utatlán 	7	Santa Rita 	1	Enero	2023-09-01T00:00:00	2024-11-08T16:00:00	7	Dirección del viento	9.66
69679	7	Sololá	704	Santa Lucía Utatlán 	7	Santa Rita 	1	Enero	2023-09-01T00:00:00	2024-11-08T16:00:00	1	Precipitación	0
69680	7	Sololá	704	Santa Lucía Utatlán 	7	Santa Rita 	1	Enero	2023-09-01T00:00:00	2024-11-08T16:00:00	8	Radiación solar	292
69681	7	Sololá	704	Santa Lucía Utatlán 	7	Santa Rita 	1	Enero	2023-09-01T00:00:00	2024-11-08T17:00:00	2	Temperatura media	20.6
69682	7	Sololá	704	Santa Lucía Utatlán 	7	Santa Rita 	1	Enero	2023-09-01T00:00:00	2024-11-08T17:00:00	4	Temperatura máxima	21.7
69683	7	Sololá	704	Santa Lucía Utatlán 	7	Santa Rita 	1	Enero	2023-09-01T00:00:00	2024-11-08T17:00:00	3	Temperatura mínima	20.6
69684	7	Sololá	704	Santa Lucía Utatlán 	7	Santa Rita 	1	Enero	2023-09-01T00:00:00	2024-11-08T17:00:00	5	Humedad	71
69685	7	Sololá	704	Santa Lucía Utatlán 	7	Santa Rita 	1	Enero	2023-09-01T00:00:00	2024-11-08T17:00:00	6	Velocidad del viento	8
69686	7	Sololá	704	Santa Lucía Utatlán 	7	Santa Rita 	1	Enero	2023-09-01T00:00:00	2024-11-08T17:00:00	7	Dirección del viento	8.05
69687	7	Sololá	704	Santa Lucía Utatlán 	7	Santa Rita 	1	Enero	2023-09-01T00:00:00	2024-11-08T17:00:00	1	Precipitación	0
69688	7	Sololá	704	Santa Lucía Utatlán 	7	Santa Rita 	1	Enero	2023-09-01T00:00:00	2024-11-08T17:00:00	8	Radiación solar	83
69689	7	Sololá	704	Santa Lucía Utatlán 	7	Santa Rita 	1	Enero	2023-09-01T00:00:00	2024-11-08T18:00:00	2	Temperatura media	19.1
69690	7	Sololá	704	Santa Lucía Utatlán 	7	Santa Rita 	1	Enero	2023-09-01T00:00:00	2024-11-08T18:00:00	4	Temperatura máxima	20.6
69691	7	Sololá	704	Santa Lucía Utatlán 	7	Santa Rita 	1	Enero	2023-09-01T00:00:00	2024-11-08T18:00:00	3	Temperatura mínima	19.1
69692	7	Sololá	704	Santa Lucía Utatlán 	7	Santa Rita 	1	Enero	2023-09-01T00:00:00	2024-11-08T18:00:00	5	Humedad	76
69693	7	Sololá	704	Santa Lucía Utatlán 	7	Santa Rita 	1	Enero	2023-09-01T00:00:00	2024-11-08T18:00:00	6	Velocidad del viento	4.8
69694	7	Sololá	704	Santa Lucía Utatlán 	7	Santa Rita 	1	Enero	2023-09-01T00:00:00	2024-11-08T18:00:00	7	Dirección del viento	4.83
69695	7	Sololá	704	Santa Lucía Utatlán 	7	Santa Rita 	1	Enero	2023-09-01T00:00:00	2024-11-08T18:00:00	1	Precipitación	0
69696	7	Sololá	704	Santa Lucía Utatlán 	7	Santa Rita 	1	Enero	2023-09-01T00:00:00	2024-11-08T18:00:00	8	Radiación solar	17
69697	7	Sololá	704	Santa Lucía Utatlán 	7	Santa Rita 	1	Enero	2023-09-01T00:00:00	2024-11-08T19:00:00	2	Temperatura media	18.1
69698	7	Sololá	704	Santa Lucía Utatlán 	7	Santa Rita 	1	Enero	2023-09-01T00:00:00	2024-11-08T19:00:00	4	Temperatura máxima	19.1
69699	7	Sololá	704	Santa Lucía Utatlán 	7	Santa Rita 	1	Enero	2023-09-01T00:00:00	2024-11-08T19:00:00	3	Temperatura mínima	17.4
69700	7	Sololá	704	Santa Lucía Utatlán 	7	Santa Rita 	1	Enero	2023-09-01T00:00:00	2024-11-08T19:00:00	5	Humedad	79
69701	7	Sololá	704	Santa Lucía Utatlán 	7	Santa Rita 	1	Enero	2023-09-01T00:00:00	2024-11-08T19:00:00	6	Velocidad del viento	3.2
69702	7	Sololá	704	Santa Lucía Utatlán 	7	Santa Rita 	1	Enero	2023-09-01T00:00:00	2024-11-08T19:00:00	7	Dirección del viento	3.22
69703	7	Sololá	704	Santa Lucía Utatlán 	7	Santa Rita 	1	Enero	2023-09-01T00:00:00	2024-11-08T19:00:00	1	Precipitación	0
69704	7	Sololá	704	Santa Lucía Utatlán 	7	Santa Rita 	1	Enero	2023-09-01T00:00:00	2024-11-08T19:00:00	8	Radiación solar	0
69705	7	Sololá	704	Santa Lucía Utatlán 	7	Santa Rita 	1	Enero	2023-09-01T00:00:00	2024-11-08T20:00:00	2	Temperatura media	16.8
69706	7	Sololá	704	Santa Lucía Utatlán 	7	Santa Rita 	1	Enero	2023-09-01T00:00:00	2024-11-08T20:00:00	4	Temperatura máxima	18.3
69707	7	Sololá	704	Santa Lucía Utatlán 	7	Santa Rita 	1	Enero	2023-09-01T00:00:00	2024-11-08T20:00:00	3	Temperatura mínima	16.8
69708	7	Sololá	704	Santa Lucía Utatlán 	7	Santa Rita 	1	Enero	2023-09-01T00:00:00	2024-11-08T20:00:00	5	Humedad	81
69709	7	Sololá	704	Santa Lucía Utatlán 	7	Santa Rita 	1	Enero	2023-09-01T00:00:00	2024-11-08T20:00:00	6	Velocidad del viento	3.2
69710	7	Sololá	704	Santa Lucía Utatlán 	7	Santa Rita 	1	Enero	2023-09-01T00:00:00	2024-11-08T20:00:00	7	Dirección del viento	3.22
69711	7	Sololá	704	Santa Lucía Utatlán 	7	Santa Rita 	1	Enero	2023-09-01T00:00:00	2024-11-08T20:00:00	1	Precipitación	0
69712	7	Sololá	704	Santa Lucía Utatlán 	7	Santa Rita 	1	Enero	2023-09-01T00:00:00	2024-11-08T20:00:00	8	Radiación solar	0
69713	7	Sololá	704	Santa Lucía Utatlán 	7	Santa Rita 	1	Enero	2023-09-01T00:00:00	2024-11-08T21:00:00	2	Temperatura media	17.8
69714	7	Sololá	704	Santa Lucía Utatlán 	7	Santa Rita 	1	Enero	2023-09-01T00:00:00	2024-11-08T21:00:00	4	Temperatura máxima	18.1
69715	7	Sololá	704	Santa Lucía Utatlán 	7	Santa Rita 	1	Enero	2023-09-01T00:00:00	2024-11-08T21:00:00	3	Temperatura mínima	15.8
69716	7	Sololá	704	Santa Lucía Utatlán 	7	Santa Rita 	1	Enero	2023-09-01T00:00:00	2024-11-08T21:00:00	5	Humedad	76
69717	7	Sololá	704	Santa Lucía Utatlán 	7	Santa Rita 	1	Enero	2023-09-01T00:00:00	2024-11-08T21:00:00	6	Velocidad del viento	4.8
69718	7	Sololá	704	Santa Lucía Utatlán 	7	Santa Rita 	1	Enero	2023-09-01T00:00:00	2024-11-08T21:00:00	7	Dirección del viento	4.83
69719	7	Sololá	704	Santa Lucía Utatlán 	7	Santa Rita 	1	Enero	2023-09-01T00:00:00	2024-11-08T21:00:00	1	Precipitación	0
69720	7	Sololá	704	Santa Lucía Utatlán 	7	Santa Rita 	1	Enero	2023-09-01T00:00:00	2024-11-08T21:00:00	8	Radiación solar	0
69721	7	Sololá	704	Santa Lucía Utatlán 	7	Santa Rita 	1	Enero	2023-09-01T00:00:00	2024-11-08T22:00:00	2	Temperatura media	16.8
69722	7	Sololá	704	Santa Lucía Utatlán 	7	Santa Rita 	1	Enero	2023-09-01T00:00:00	2024-11-08T22:00:00	4	Temperatura máxima	18.5
69723	7	Sololá	704	Santa Lucía Utatlán 	7	Santa Rita 	1	Enero	2023-09-01T00:00:00	2024-11-08T22:00:00	3	Temperatura mínima	16.7
69724	7	Sololá	704	Santa Lucía Utatlán 	7	Santa Rita 	1	Enero	2023-09-01T00:00:00	2024-11-08T22:00:00	5	Humedad	79
69725	7	Sololá	704	Santa Lucía Utatlán 	7	Santa Rita 	1	Enero	2023-09-01T00:00:00	2024-11-08T22:00:00	6	Velocidad del viento	4.8
69726	7	Sololá	704	Santa Lucía Utatlán 	7	Santa Rita 	1	Enero	2023-09-01T00:00:00	2024-11-08T22:00:00	7	Dirección del viento	4.83
69727	7	Sololá	704	Santa Lucía Utatlán 	7	Santa Rita 	1	Enero	2023-09-01T00:00:00	2024-11-08T22:00:00	1	Precipitación	0
69728	7	Sololá	704	Santa Lucía Utatlán 	7	Santa Rita 	1	Enero	2023-09-01T00:00:00	2024-11-08T22:00:00	8	Radiación solar	0
69729	7	Sololá	704	Santa Lucía Utatlán 	7	Santa Rita 	1	Enero	2023-09-01T00:00:00	2024-11-08T23:00:00	2	Temperatura media	15
69730	7	Sololá	704	Santa Lucía Utatlán 	7	Santa Rita 	1	Enero	2023-09-01T00:00:00	2024-11-08T23:00:00	4	Temperatura máxima	16.7
69731	7	Sololá	704	Santa Lucía Utatlán 	7	Santa Rita 	1	Enero	2023-09-01T00:00:00	2024-11-08T23:00:00	3	Temperatura mínima	14.9
69732	7	Sololá	704	Santa Lucía Utatlán 	7	Santa Rita 	1	Enero	2023-09-01T00:00:00	2024-11-08T23:00:00	5	Humedad	85
69733	7	Sololá	704	Santa Lucía Utatlán 	7	Santa Rita 	1	Enero	2023-09-01T00:00:00	2024-11-08T23:00:00	6	Velocidad del viento	1.6
69734	7	Sololá	704	Santa Lucía Utatlán 	7	Santa Rita 	1	Enero	2023-09-01T00:00:00	2024-11-08T23:00:00	7	Dirección del viento	1.61
69735	7	Sololá	704	Santa Lucía Utatlán 	7	Santa Rita 	1	Enero	2023-09-01T00:00:00	2024-11-08T23:00:00	1	Precipitación	0
69736	7	Sololá	704	Santa Lucía Utatlán 	7	Santa Rita 	1	Enero	2023-09-01T00:00:00	2024-11-08T23:00:00	8	Radiación solar	0
69737	7	Sololá	704	Santa Lucía Utatlán 	7	Santa Rita 	1	Enero	2023-10-01T00:00:00	2024-11-08T00:00:00	2	Temperatura media	16.6
69738	7	Sololá	704	Santa Lucía Utatlán 	7	Santa Rita 	1	Enero	2023-10-01T00:00:00	2024-11-08T00:00:00	4	Temperatura máxima	16.6
69739	7	Sololá	704	Santa Lucía Utatlán 	7	Santa Rita 	1	Enero	2023-10-01T00:00:00	2024-11-08T00:00:00	3	Temperatura mínima	15
69740	7	Sololá	704	Santa Lucía Utatlán 	7	Santa Rita 	1	Enero	2023-10-01T00:00:00	2024-11-08T00:00:00	5	Humedad	81
69741	7	Sololá	704	Santa Lucía Utatlán 	7	Santa Rita 	1	Enero	2023-10-01T00:00:00	2024-11-08T00:00:00	6	Velocidad del viento	1.6
69742	7	Sololá	704	Santa Lucía Utatlán 	7	Santa Rita 	1	Enero	2023-10-01T00:00:00	2024-11-08T00:00:00	7	Dirección del viento	1.61
69743	7	Sololá	704	Santa Lucía Utatlán 	7	Santa Rita 	1	Enero	2023-10-01T00:00:00	2024-11-08T00:00:00	1	Precipitación	0
69744	7	Sololá	704	Santa Lucía Utatlán 	7	Santa Rita 	1	Enero	2023-10-01T00:00:00	2024-11-08T00:00:00	8	Radiación solar	0
69745	7	Sololá	704	Santa Lucía Utatlán 	7	Santa Rita 	1	Enero	2023-10-01T00:00:00	2024-11-08T01:00:00	2	Temperatura media	17.9
69746	7	Sololá	704	Santa Lucía Utatlán 	7	Santa Rita 	1	Enero	2023-10-01T00:00:00	2024-11-08T01:00:00	4	Temperatura máxima	17.9
69747	7	Sololá	704	Santa Lucía Utatlán 	7	Santa Rita 	1	Enero	2023-10-01T00:00:00	2024-11-08T01:00:00	3	Temperatura mínima	16.3
69748	7	Sololá	704	Santa Lucía Utatlán 	7	Santa Rita 	1	Enero	2023-10-01T00:00:00	2024-11-08T01:00:00	5	Humedad	74
69749	7	Sololá	704	Santa Lucía Utatlán 	7	Santa Rita 	1	Enero	2023-10-01T00:00:00	2024-11-08T01:00:00	6	Velocidad del viento	4.8
69750	7	Sololá	704	Santa Lucía Utatlán 	7	Santa Rita 	1	Enero	2023-10-01T00:00:00	2024-11-08T01:00:00	7	Dirección del viento	4.83
69751	7	Sololá	704	Santa Lucía Utatlán 	7	Santa Rita 	1	Enero	2023-10-01T00:00:00	2024-11-08T01:00:00	1	Precipitación	0
69752	7	Sololá	704	Santa Lucía Utatlán 	7	Santa Rita 	1	Enero	2023-10-01T00:00:00	2024-11-08T01:00:00	8	Radiación solar	0
69753	7	Sololá	704	Santa Lucía Utatlán 	7	Santa Rita 	1	Enero	2023-10-01T00:00:00	2024-11-08T02:00:00	2	Temperatura media	14.9
69754	7	Sololá	704	Santa Lucía Utatlán 	7	Santa Rita 	1	Enero	2023-10-01T00:00:00	2024-11-08T02:00:00	4	Temperatura máxima	17.9
69755	7	Sololá	704	Santa Lucía Utatlán 	7	Santa Rita 	1	Enero	2023-10-01T00:00:00	2024-11-08T02:00:00	3	Temperatura mínima	14.9
69756	7	Sololá	704	Santa Lucía Utatlán 	7	Santa Rita 	1	Enero	2023-10-01T00:00:00	2024-11-08T02:00:00	5	Humedad	84
69757	7	Sololá	704	Santa Lucía Utatlán 	7	Santa Rita 	1	Enero	2023-10-01T00:00:00	2024-11-08T02:00:00	6	Velocidad del viento	3.2
69758	7	Sololá	704	Santa Lucía Utatlán 	7	Santa Rita 	1	Enero	2023-10-01T00:00:00	2024-11-08T02:00:00	7	Dirección del viento	3.22
69759	7	Sololá	704	Santa Lucía Utatlán 	7	Santa Rita 	1	Enero	2023-10-01T00:00:00	2024-11-08T02:00:00	1	Precipitación	0
69760	7	Sololá	704	Santa Lucía Utatlán 	7	Santa Rita 	1	Enero	2023-10-01T00:00:00	2024-11-08T02:00:00	8	Radiación solar	0
69761	7	Sololá	704	Santa Lucía Utatlán 	7	Santa Rita 	1	Enero	2023-10-01T00:00:00	2024-11-08T03:00:00	2	Temperatura media	14.7
69762	7	Sololá	704	Santa Lucía Utatlán 	7	Santa Rita 	1	Enero	2023-10-01T00:00:00	2024-11-08T03:00:00	4	Temperatura máxima	14.9
69763	7	Sololá	704	Santa Lucía Utatlán 	7	Santa Rita 	1	Enero	2023-10-01T00:00:00	2024-11-08T03:00:00	3	Temperatura mínima	14.5
69764	7	Sololá	704	Santa Lucía Utatlán 	7	Santa Rita 	1	Enero	2023-10-01T00:00:00	2024-11-08T03:00:00	5	Humedad	82
69765	7	Sololá	704	Santa Lucía Utatlán 	7	Santa Rita 	1	Enero	2023-10-01T00:00:00	2024-11-08T03:00:00	6	Velocidad del viento	1.6
69766	7	Sololá	704	Santa Lucía Utatlán 	7	Santa Rita 	1	Enero	2023-10-01T00:00:00	2024-11-08T03:00:00	7	Dirección del viento	1.61
69767	7	Sololá	704	Santa Lucía Utatlán 	7	Santa Rita 	1	Enero	2023-10-01T00:00:00	2024-11-08T03:00:00	1	Precipitación	0
69768	7	Sololá	704	Santa Lucía Utatlán 	7	Santa Rita 	1	Enero	2023-10-01T00:00:00	2024-11-08T03:00:00	8	Radiación solar	0
69769	7	Sololá	704	Santa Lucía Utatlán 	7	Santa Rita 	1	Enero	2023-10-01T00:00:00	2024-11-08T04:00:00	2	Temperatura media	14.4
69770	7	Sololá	704	Santa Lucía Utatlán 	7	Santa Rita 	1	Enero	2023-10-01T00:00:00	2024-11-08T04:00:00	4	Temperatura máxima	14.7
69771	7	Sololá	704	Santa Lucía Utatlán 	7	Santa Rita 	1	Enero	2023-10-01T00:00:00	2024-11-08T04:00:00	3	Temperatura mínima	14.1
69772	7	Sololá	704	Santa Lucía Utatlán 	7	Santa Rita 	1	Enero	2023-10-01T00:00:00	2024-11-08T04:00:00	5	Humedad	82
69773	7	Sololá	704	Santa Lucía Utatlán 	7	Santa Rita 	1	Enero	2023-10-01T00:00:00	2024-11-08T04:00:00	6	Velocidad del viento	3.2
69774	7	Sololá	704	Santa Lucía Utatlán 	7	Santa Rita 	1	Enero	2023-10-01T00:00:00	2024-11-08T04:00:00	7	Dirección del viento	3.22
69775	7	Sololá	704	Santa Lucía Utatlán 	7	Santa Rita 	1	Enero	2023-10-01T00:00:00	2024-11-08T04:00:00	1	Precipitación	0
69776	7	Sololá	704	Santa Lucía Utatlán 	7	Santa Rita 	1	Enero	2023-10-01T00:00:00	2024-11-08T04:00:00	8	Radiación solar	0
69777	7	Sololá	704	Santa Lucía Utatlán 	7	Santa Rita 	1	Enero	2023-10-01T00:00:00	2024-11-08T05:00:00	2	Temperatura media	14.5
69778	7	Sololá	704	Santa Lucía Utatlán 	7	Santa Rita 	1	Enero	2023-10-01T00:00:00	2024-11-08T05:00:00	4	Temperatura máxima	14.6
69779	7	Sololá	704	Santa Lucía Utatlán 	7	Santa Rita 	1	Enero	2023-10-01T00:00:00	2024-11-08T05:00:00	3	Temperatura mínima	14.1
69780	7	Sololá	704	Santa Lucía Utatlán 	7	Santa Rita 	1	Enero	2023-10-01T00:00:00	2024-11-08T05:00:00	5	Humedad	80
69781	7	Sololá	704	Santa Lucía Utatlán 	7	Santa Rita 	1	Enero	2023-10-01T00:00:00	2024-11-08T05:00:00	6	Velocidad del viento	3.2
69782	7	Sololá	704	Santa Lucía Utatlán 	7	Santa Rita 	1	Enero	2023-10-01T00:00:00	2024-11-08T05:00:00	7	Dirección del viento	3.22
69783	7	Sololá	704	Santa Lucía Utatlán 	7	Santa Rita 	1	Enero	2023-10-01T00:00:00	2024-11-08T05:00:00	1	Precipitación	0
69784	7	Sololá	704	Santa Lucía Utatlán 	7	Santa Rita 	1	Enero	2023-10-01T00:00:00	2024-11-08T05:00:00	8	Radiación solar	0
69785	7	Sololá	704	Santa Lucía Utatlán 	7	Santa Rita 	1	Enero	2023-10-01T00:00:00	2024-11-08T06:00:00	2	Temperatura media	15.6
69786	7	Sololá	704	Santa Lucía Utatlán 	7	Santa Rita 	1	Enero	2023-10-01T00:00:00	2024-11-08T06:00:00	4	Temperatura máxima	16.8
69787	7	Sololá	704	Santa Lucía Utatlán 	7	Santa Rita 	1	Enero	2023-10-01T00:00:00	2024-11-08T06:00:00	3	Temperatura mínima	14.6
69788	7	Sololá	704	Santa Lucía Utatlán 	7	Santa Rita 	1	Enero	2023-10-01T00:00:00	2024-11-08T06:00:00	5	Humedad	77
69789	7	Sololá	704	Santa Lucía Utatlán 	7	Santa Rita 	1	Enero	2023-10-01T00:00:00	2024-11-08T06:00:00	6	Velocidad del viento	3.2
69790	7	Sololá	704	Santa Lucía Utatlán 	7	Santa Rita 	1	Enero	2023-10-01T00:00:00	2024-11-08T06:00:00	7	Dirección del viento	3.22
69791	7	Sololá	704	Santa Lucía Utatlán 	7	Santa Rita 	1	Enero	2023-10-01T00:00:00	2024-11-08T06:00:00	1	Precipitación	0
69792	7	Sololá	704	Santa Lucía Utatlán 	7	Santa Rita 	1	Enero	2023-10-01T00:00:00	2024-11-08T06:00:00	8	Radiación solar	0
69793	7	Sololá	704	Santa Lucía Utatlán 	7	Santa Rita 	1	Enero	2023-10-01T00:00:00	2024-11-08T07:00:00	2	Temperatura media	15.4
69794	7	Sololá	704	Santa Lucía Utatlán 	7	Santa Rita 	1	Enero	2023-10-01T00:00:00	2024-11-08T07:00:00	4	Temperatura máxima	15.6
69795	7	Sololá	704	Santa Lucía Utatlán 	7	Santa Rita 	1	Enero	2023-10-01T00:00:00	2024-11-08T07:00:00	3	Temperatura mínima	14.7
69796	7	Sololá	704	Santa Lucía Utatlán 	7	Santa Rita 	1	Enero	2023-10-01T00:00:00	2024-11-08T07:00:00	5	Humedad	80
69797	7	Sololá	704	Santa Lucía Utatlán 	7	Santa Rita 	1	Enero	2023-10-01T00:00:00	2024-11-08T07:00:00	6	Velocidad del viento	3.2
69798	7	Sololá	704	Santa Lucía Utatlán 	7	Santa Rita 	1	Enero	2023-10-01T00:00:00	2024-11-08T07:00:00	7	Dirección del viento	3.22
69799	7	Sololá	704	Santa Lucía Utatlán 	7	Santa Rita 	1	Enero	2023-10-01T00:00:00	2024-11-08T07:00:00	1	Precipitación	0
69800	7	Sololá	704	Santa Lucía Utatlán 	7	Santa Rita 	1	Enero	2023-10-01T00:00:00	2024-11-08T07:00:00	8	Radiación solar	5
69801	7	Sololá	704	Santa Lucía Utatlán 	7	Santa Rita 	1	Enero	2023-10-01T00:00:00	2024-11-08T08:00:00	2	Temperatura media	19.9
69802	7	Sololá	704	Santa Lucía Utatlán 	7	Santa Rita 	1	Enero	2023-10-01T00:00:00	2024-11-08T08:00:00	4	Temperatura máxima	19.9
69803	7	Sololá	704	Santa Lucía Utatlán 	7	Santa Rita 	1	Enero	2023-10-01T00:00:00	2024-11-08T08:00:00	3	Temperatura mínima	15.4
69804	7	Sololá	704	Santa Lucía Utatlán 	7	Santa Rita 	1	Enero	2023-10-01T00:00:00	2024-11-08T08:00:00	5	Humedad	69
69805	7	Sololá	704	Santa Lucía Utatlán 	7	Santa Rita 	1	Enero	2023-10-01T00:00:00	2024-11-08T08:00:00	6	Velocidad del viento	1.6
69806	7	Sololá	704	Santa Lucía Utatlán 	7	Santa Rita 	1	Enero	2023-10-01T00:00:00	2024-11-08T08:00:00	7	Dirección del viento	1.61
69807	7	Sololá	704	Santa Lucía Utatlán 	7	Santa Rita 	1	Enero	2023-10-01T00:00:00	2024-11-08T08:00:00	1	Precipitación	0
69808	7	Sololá	704	Santa Lucía Utatlán 	7	Santa Rita 	1	Enero	2023-10-01T00:00:00	2024-11-08T08:00:00	8	Radiación solar	123
69809	7	Sololá	704	Santa Lucía Utatlán 	7	Santa Rita 	1	Enero	2023-10-01T00:00:00	2024-11-08T09:00:00	2	Temperatura media	21.6
69810	7	Sololá	704	Santa Lucía Utatlán 	7	Santa Rita 	1	Enero	2023-10-01T00:00:00	2024-11-08T09:00:00	4	Temperatura máxima	21.6
69811	7	Sololá	704	Santa Lucía Utatlán 	7	Santa Rita 	1	Enero	2023-10-01T00:00:00	2024-11-08T09:00:00	3	Temperatura mínima	19.9
69812	7	Sololá	704	Santa Lucía Utatlán 	7	Santa Rita 	1	Enero	2023-10-01T00:00:00	2024-11-08T09:00:00	5	Humedad	60
69813	7	Sololá	704	Santa Lucía Utatlán 	7	Santa Rita 	1	Enero	2023-10-01T00:00:00	2024-11-08T09:00:00	6	Velocidad del viento	4.8
69814	7	Sololá	704	Santa Lucía Utatlán 	7	Santa Rita 	1	Enero	2023-10-01T00:00:00	2024-11-08T09:00:00	7	Dirección del viento	4.83
69815	7	Sololá	704	Santa Lucía Utatlán 	7	Santa Rita 	1	Enero	2023-10-01T00:00:00	2024-11-08T09:00:00	1	Precipitación	0
69816	7	Sololá	704	Santa Lucía Utatlán 	7	Santa Rita 	1	Enero	2023-10-01T00:00:00	2024-11-08T09:00:00	8	Radiación solar	358
69817	7	Sololá	704	Santa Lucía Utatlán 	7	Santa Rita 	1	Enero	2023-10-01T00:00:00	2024-11-08T10:00:00	2	Temperatura media	23.6
69818	7	Sololá	704	Santa Lucía Utatlán 	7	Santa Rita 	1	Enero	2023-10-01T00:00:00	2024-11-08T10:00:00	4	Temperatura máxima	23.6
69819	7	Sololá	704	Santa Lucía Utatlán 	7	Santa Rita 	1	Enero	2023-10-01T00:00:00	2024-11-08T10:00:00	3	Temperatura mínima	21.6
69820	7	Sololá	704	Santa Lucía Utatlán 	7	Santa Rita 	1	Enero	2023-10-01T00:00:00	2024-11-08T10:00:00	5	Humedad	57
69821	7	Sololá	704	Santa Lucía Utatlán 	7	Santa Rita 	1	Enero	2023-10-01T00:00:00	2024-11-08T10:00:00	6	Velocidad del viento	4.8
69822	7	Sololá	704	Santa Lucía Utatlán 	7	Santa Rita 	1	Enero	2023-10-01T00:00:00	2024-11-08T10:00:00	7	Dirección del viento	4.83
69823	7	Sololá	704	Santa Lucía Utatlán 	7	Santa Rita 	1	Enero	2023-10-01T00:00:00	2024-11-08T10:00:00	1	Precipitación	0
69824	7	Sololá	704	Santa Lucía Utatlán 	7	Santa Rita 	1	Enero	2023-10-01T00:00:00	2024-11-08T10:00:00	8	Radiación solar	574
69825	7	Sololá	704	Santa Lucía Utatlán 	7	Santa Rita 	1	Enero	2023-10-01T00:00:00	2024-11-08T11:00:00	2	Temperatura media	24.3
69826	7	Sololá	704	Santa Lucía Utatlán 	7	Santa Rita 	1	Enero	2023-10-01T00:00:00	2024-11-08T11:00:00	4	Temperatura máxima	24.4
69827	7	Sololá	704	Santa Lucía Utatlán 	7	Santa Rita 	1	Enero	2023-10-01T00:00:00	2024-11-08T11:00:00	3	Temperatura mínima	23.5
69828	7	Sololá	704	Santa Lucía Utatlán 	7	Santa Rita 	1	Enero	2023-10-01T00:00:00	2024-11-08T11:00:00	5	Humedad	53
69829	7	Sololá	704	Santa Lucía Utatlán 	7	Santa Rita 	1	Enero	2023-10-01T00:00:00	2024-11-08T11:00:00	6	Velocidad del viento	9.7
69830	7	Sololá	704	Santa Lucía Utatlán 	7	Santa Rita 	1	Enero	2023-10-01T00:00:00	2024-11-08T11:00:00	7	Dirección del viento	9.66
69831	7	Sololá	704	Santa Lucía Utatlán 	7	Santa Rita 	1	Enero	2023-10-01T00:00:00	2024-11-08T11:00:00	1	Precipitación	0
69832	7	Sololá	704	Santa Lucía Utatlán 	7	Santa Rita 	1	Enero	2023-10-01T00:00:00	2024-11-08T11:00:00	8	Radiación solar	764
69833	7	Sololá	704	Santa Lucía Utatlán 	7	Santa Rita 	1	Enero	2023-10-01T00:00:00	2024-11-08T12:00:00	2	Temperatura media	24.1
69834	7	Sololá	704	Santa Lucía Utatlán 	7	Santa Rita 	1	Enero	2023-10-01T00:00:00	2024-11-08T12:00:00	4	Temperatura máxima	24.8
69835	7	Sololá	704	Santa Lucía Utatlán 	7	Santa Rita 	1	Enero	2023-10-01T00:00:00	2024-11-08T12:00:00	3	Temperatura mínima	24.1
69836	7	Sololá	704	Santa Lucía Utatlán 	7	Santa Rita 	1	Enero	2023-10-01T00:00:00	2024-11-08T12:00:00	5	Humedad	52
69837	7	Sololá	704	Santa Lucía Utatlán 	7	Santa Rita 	1	Enero	2023-10-01T00:00:00	2024-11-08T12:00:00	6	Velocidad del viento	8
69838	7	Sololá	704	Santa Lucía Utatlán 	7	Santa Rita 	1	Enero	2023-10-01T00:00:00	2024-11-08T12:00:00	7	Dirección del viento	8.05
69839	7	Sololá	704	Santa Lucía Utatlán 	7	Santa Rita 	1	Enero	2023-10-01T00:00:00	2024-11-08T12:00:00	1	Precipitación	0
69840	7	Sololá	704	Santa Lucía Utatlán 	7	Santa Rita 	1	Enero	2023-10-01T00:00:00	2024-11-08T12:00:00	8	Radiación solar	882
69841	7	Sololá	704	Santa Lucía Utatlán 	7	Santa Rita 	1	Enero	2023-10-01T00:00:00	2024-11-08T13:00:00	2	Temperatura media	23.4
69842	7	Sololá	704	Santa Lucía Utatlán 	7	Santa Rita 	1	Enero	2023-10-01T00:00:00	2024-11-08T13:00:00	4	Temperatura máxima	24.9
69843	7	Sololá	704	Santa Lucía Utatlán 	7	Santa Rita 	1	Enero	2023-10-01T00:00:00	2024-11-08T13:00:00	3	Temperatura mínima	23.4
69844	7	Sololá	704	Santa Lucía Utatlán 	7	Santa Rita 	1	Enero	2023-10-01T00:00:00	2024-11-08T13:00:00	5	Humedad	61
69845	7	Sololá	704	Santa Lucía Utatlán 	7	Santa Rita 	1	Enero	2023-10-01T00:00:00	2024-11-08T13:00:00	6	Velocidad del viento	8
69846	7	Sololá	704	Santa Lucía Utatlán 	7	Santa Rita 	1	Enero	2023-10-01T00:00:00	2024-11-08T13:00:00	7	Dirección del viento	8.05
69847	7	Sololá	704	Santa Lucía Utatlán 	7	Santa Rita 	1	Enero	2023-10-01T00:00:00	2024-11-08T13:00:00	1	Precipitación	0
69848	7	Sololá	704	Santa Lucía Utatlán 	7	Santa Rita 	1	Enero	2023-10-01T00:00:00	2024-11-08T13:00:00	8	Radiación solar	385
69849	7	Sololá	704	Santa Lucía Utatlán 	7	Santa Rita 	1	Enero	2023-10-01T00:00:00	2024-11-08T14:00:00	2	Temperatura media	22.3
69850	7	Sololá	704	Santa Lucía Utatlán 	7	Santa Rita 	1	Enero	2023-10-01T00:00:00	2024-11-08T14:00:00	4	Temperatura máxima	24
69851	7	Sololá	704	Santa Lucía Utatlán 	7	Santa Rita 	1	Enero	2023-10-01T00:00:00	2024-11-08T14:00:00	3	Temperatura mínima	22.2
69852	7	Sololá	704	Santa Lucía Utatlán 	7	Santa Rita 	1	Enero	2023-10-01T00:00:00	2024-11-08T14:00:00	5	Humedad	72
69853	7	Sololá	704	Santa Lucía Utatlán 	7	Santa Rita 	1	Enero	2023-10-01T00:00:00	2024-11-08T14:00:00	6	Velocidad del viento	12.9
69854	7	Sololá	704	Santa Lucía Utatlán 	7	Santa Rita 	1	Enero	2023-10-01T00:00:00	2024-11-08T14:00:00	7	Dirección del viento	12.87
69855	7	Sololá	704	Santa Lucía Utatlán 	7	Santa Rita 	1	Enero	2023-10-01T00:00:00	2024-11-08T14:00:00	1	Precipitación	0
69856	7	Sololá	704	Santa Lucía Utatlán 	7	Santa Rita 	1	Enero	2023-10-01T00:00:00	2024-11-08T14:00:00	8	Radiación solar	681
69857	7	Sololá	704	Santa Lucía Utatlán 	7	Santa Rita 	1	Enero	2023-10-01T00:00:00	2024-11-08T15:00:00	2	Temperatura media	21.2
69858	7	Sololá	704	Santa Lucía Utatlán 	7	Santa Rita 	1	Enero	2023-10-01T00:00:00	2024-11-08T15:00:00	4	Temperatura máxima	22.8
69859	7	Sololá	704	Santa Lucía Utatlán 	7	Santa Rita 	1	Enero	2023-10-01T00:00:00	2024-11-08T15:00:00	3	Temperatura mínima	21.2
69860	7	Sololá	704	Santa Lucía Utatlán 	7	Santa Rita 	1	Enero	2023-10-01T00:00:00	2024-11-08T15:00:00	5	Humedad	70
69861	7	Sololá	704	Santa Lucía Utatlán 	7	Santa Rita 	1	Enero	2023-10-01T00:00:00	2024-11-08T15:00:00	6	Velocidad del viento	11.3
69862	7	Sololá	704	Santa Lucía Utatlán 	7	Santa Rita 	1	Enero	2023-10-01T00:00:00	2024-11-08T15:00:00	7	Dirección del viento	11.27
69863	7	Sololá	704	Santa Lucía Utatlán 	7	Santa Rita 	1	Enero	2023-10-01T00:00:00	2024-11-08T15:00:00	1	Precipitación	0
69864	7	Sololá	704	Santa Lucía Utatlán 	7	Santa Rita 	1	Enero	2023-10-01T00:00:00	2024-11-08T15:00:00	8	Radiación solar	226
69865	7	Sololá	704	Santa Lucía Utatlán 	7	Santa Rita 	1	Enero	2023-10-01T00:00:00	2024-11-08T16:00:00	2	Temperatura media	21.1
69866	7	Sololá	704	Santa Lucía Utatlán 	7	Santa Rita 	1	Enero	2023-10-01T00:00:00	2024-11-08T16:00:00	4	Temperatura máxima	21.5
69867	7	Sololá	704	Santa Lucía Utatlán 	7	Santa Rita 	1	Enero	2023-10-01T00:00:00	2024-11-08T16:00:00	3	Temperatura mínima	20.9
69868	7	Sololá	704	Santa Lucía Utatlán 	7	Santa Rita 	1	Enero	2023-10-01T00:00:00	2024-11-08T16:00:00	5	Humedad	67
69869	7	Sololá	704	Santa Lucía Utatlán 	7	Santa Rita 	1	Enero	2023-10-01T00:00:00	2024-11-08T16:00:00	6	Velocidad del viento	6.4
69870	7	Sololá	704	Santa Lucía Utatlán 	7	Santa Rita 	1	Enero	2023-10-01T00:00:00	2024-11-08T16:00:00	7	Dirección del viento	6.44
69871	7	Sololá	704	Santa Lucía Utatlán 	7	Santa Rita 	1	Enero	2023-10-01T00:00:00	2024-11-08T16:00:00	1	Precipitación	0
69872	7	Sololá	704	Santa Lucía Utatlán 	7	Santa Rita 	1	Enero	2023-10-01T00:00:00	2024-11-08T16:00:00	8	Radiación solar	109
69873	7	Sololá	704	Santa Lucía Utatlán 	7	Santa Rita 	1	Enero	2023-10-01T00:00:00	2024-11-08T17:00:00	2	Temperatura media	20.4
69874	7	Sololá	704	Santa Lucía Utatlán 	7	Santa Rita 	1	Enero	2023-10-01T00:00:00	2024-11-08T17:00:00	4	Temperatura máxima	21.9
69875	7	Sololá	704	Santa Lucía Utatlán 	7	Santa Rita 	1	Enero	2023-10-01T00:00:00	2024-11-08T17:00:00	3	Temperatura mínima	20.4
69876	7	Sololá	704	Santa Lucía Utatlán 	7	Santa Rita 	1	Enero	2023-10-01T00:00:00	2024-11-08T17:00:00	5	Humedad	67
69877	7	Sololá	704	Santa Lucía Utatlán 	7	Santa Rita 	1	Enero	2023-10-01T00:00:00	2024-11-08T17:00:00	6	Velocidad del viento	6.4
69878	7	Sololá	704	Santa Lucía Utatlán 	7	Santa Rita 	1	Enero	2023-10-01T00:00:00	2024-11-08T17:00:00	7	Dirección del viento	6.44
69879	7	Sololá	704	Santa Lucía Utatlán 	7	Santa Rita 	1	Enero	2023-10-01T00:00:00	2024-11-08T17:00:00	1	Precipitación	0
69880	7	Sololá	704	Santa Lucía Utatlán 	7	Santa Rita 	1	Enero	2023-10-01T00:00:00	2024-11-08T17:00:00	8	Radiación solar	133
69881	7	Sololá	704	Santa Lucía Utatlán 	7	Santa Rita 	1	Enero	2023-10-01T00:00:00	2024-11-08T18:00:00	2	Temperatura media	19.1
69882	7	Sololá	704	Santa Lucía Utatlán 	7	Santa Rita 	1	Enero	2023-10-01T00:00:00	2024-11-08T18:00:00	4	Temperatura máxima	20.5
69883	7	Sololá	704	Santa Lucía Utatlán 	7	Santa Rita 	1	Enero	2023-10-01T00:00:00	2024-11-08T18:00:00	3	Temperatura mínima	19.1
69884	7	Sololá	704	Santa Lucía Utatlán 	7	Santa Rita 	1	Enero	2023-10-01T00:00:00	2024-11-08T18:00:00	5	Humedad	75
69885	7	Sololá	704	Santa Lucía Utatlán 	7	Santa Rita 	1	Enero	2023-10-01T00:00:00	2024-11-08T18:00:00	6	Velocidad del viento	6.4
69886	7	Sololá	704	Santa Lucía Utatlán 	7	Santa Rita 	1	Enero	2023-10-01T00:00:00	2024-11-08T18:00:00	7	Dirección del viento	6.44
69887	7	Sololá	704	Santa Lucía Utatlán 	7	Santa Rita 	1	Enero	2023-10-01T00:00:00	2024-11-08T18:00:00	1	Precipitación	0
69888	7	Sololá	704	Santa Lucía Utatlán 	7	Santa Rita 	1	Enero	2023-10-01T00:00:00	2024-11-08T18:00:00	8	Radiación solar	12
69889	7	Sololá	704	Santa Lucía Utatlán 	7	Santa Rita 	1	Enero	2023-10-01T00:00:00	2024-11-08T19:00:00	2	Temperatura media	18.8
69890	7	Sololá	704	Santa Lucía Utatlán 	7	Santa Rita 	1	Enero	2023-10-01T00:00:00	2024-11-08T19:00:00	4	Temperatura máxima	19.1
69891	7	Sololá	704	Santa Lucía Utatlán 	7	Santa Rita 	1	Enero	2023-10-01T00:00:00	2024-11-08T19:00:00	3	Temperatura mínima	18.8
69892	7	Sololá	704	Santa Lucía Utatlán 	7	Santa Rita 	1	Enero	2023-10-01T00:00:00	2024-11-08T19:00:00	5	Humedad	76
69893	7	Sololá	704	Santa Lucía Utatlán 	7	Santa Rita 	1	Enero	2023-10-01T00:00:00	2024-11-08T19:00:00	6	Velocidad del viento	8
69894	7	Sololá	704	Santa Lucía Utatlán 	7	Santa Rita 	1	Enero	2023-10-01T00:00:00	2024-11-08T19:00:00	7	Dirección del viento	8.05
69895	7	Sololá	704	Santa Lucía Utatlán 	7	Santa Rita 	1	Enero	2023-10-01T00:00:00	2024-11-08T19:00:00	1	Precipitación	0
69896	7	Sololá	704	Santa Lucía Utatlán 	7	Santa Rita 	1	Enero	2023-10-01T00:00:00	2024-11-08T19:00:00	8	Radiación solar	0
69897	7	Sololá	704	Santa Lucía Utatlán 	7	Santa Rita 	1	Enero	2023-10-01T00:00:00	2024-11-08T20:00:00	2	Temperatura media	18.1
69898	7	Sololá	704	Santa Lucía Utatlán 	7	Santa Rita 	1	Enero	2023-10-01T00:00:00	2024-11-08T20:00:00	4	Temperatura máxima	18.9
69899	7	Sololá	704	Santa Lucía Utatlán 	7	Santa Rita 	1	Enero	2023-10-01T00:00:00	2024-11-08T20:00:00	3	Temperatura mínima	18
69900	7	Sololá	704	Santa Lucía Utatlán 	7	Santa Rita 	1	Enero	2023-10-01T00:00:00	2024-11-08T20:00:00	5	Humedad	78
69901	7	Sololá	704	Santa Lucía Utatlán 	7	Santa Rita 	1	Enero	2023-10-01T00:00:00	2024-11-08T20:00:00	6	Velocidad del viento	6.4
69902	7	Sololá	704	Santa Lucía Utatlán 	7	Santa Rita 	1	Enero	2023-10-01T00:00:00	2024-11-08T20:00:00	7	Dirección del viento	6.44
69903	7	Sololá	704	Santa Lucía Utatlán 	7	Santa Rita 	1	Enero	2023-10-01T00:00:00	2024-11-08T20:00:00	1	Precipitación	0
69904	7	Sololá	704	Santa Lucía Utatlán 	7	Santa Rita 	1	Enero	2023-10-01T00:00:00	2024-11-08T20:00:00	8	Radiación solar	0
69905	7	Sololá	704	Santa Lucía Utatlán 	7	Santa Rita 	1	Enero	2023-10-01T00:00:00	2024-11-08T21:00:00	2	Temperatura media	17.3
69906	7	Sololá	704	Santa Lucía Utatlán 	7	Santa Rita 	1	Enero	2023-10-01T00:00:00	2024-11-08T21:00:00	4	Temperatura máxima	18.1
69907	7	Sololá	704	Santa Lucía Utatlán 	7	Santa Rita 	1	Enero	2023-10-01T00:00:00	2024-11-08T21:00:00	3	Temperatura mínima	17.2
69908	7	Sololá	704	Santa Lucía Utatlán 	7	Santa Rita 	1	Enero	2023-10-01T00:00:00	2024-11-08T21:00:00	5	Humedad	77
69909	7	Sololá	704	Santa Lucía Utatlán 	7	Santa Rita 	1	Enero	2023-10-01T00:00:00	2024-11-08T21:00:00	6	Velocidad del viento	1.6
69910	7	Sololá	704	Santa Lucía Utatlán 	7	Santa Rita 	1	Enero	2023-10-01T00:00:00	2024-11-08T21:00:00	7	Dirección del viento	1.61
69911	7	Sololá	704	Santa Lucía Utatlán 	7	Santa Rita 	1	Enero	2023-10-01T00:00:00	2024-11-08T21:00:00	1	Precipitación	0
69912	7	Sololá	704	Santa Lucía Utatlán 	7	Santa Rita 	1	Enero	2023-10-01T00:00:00	2024-11-08T21:00:00	8	Radiación solar	0
69913	7	Sololá	704	Santa Lucía Utatlán 	7	Santa Rita 	1	Enero	2023-10-01T00:00:00	2024-11-08T22:00:00	2	Temperatura media	17.8
69914	7	Sololá	704	Santa Lucía Utatlán 	7	Santa Rita 	1	Enero	2023-10-01T00:00:00	2024-11-08T22:00:00	4	Temperatura máxima	18.3
69915	7	Sololá	704	Santa Lucía Utatlán 	7	Santa Rita 	1	Enero	2023-10-01T00:00:00	2024-11-08T22:00:00	3	Temperatura mínima	17.3
69916	7	Sololá	704	Santa Lucía Utatlán 	7	Santa Rita 	1	Enero	2023-10-01T00:00:00	2024-11-08T22:00:00	5	Humedad	75
69917	7	Sololá	704	Santa Lucía Utatlán 	7	Santa Rita 	1	Enero	2023-10-01T00:00:00	2024-11-08T22:00:00	6	Velocidad del viento	4.8
69918	7	Sololá	704	Santa Lucía Utatlán 	7	Santa Rita 	1	Enero	2023-10-01T00:00:00	2024-11-08T22:00:00	7	Dirección del viento	4.83
69919	7	Sololá	704	Santa Lucía Utatlán 	7	Santa Rita 	1	Enero	2023-10-01T00:00:00	2024-11-08T22:00:00	1	Precipitación	0
69920	7	Sololá	704	Santa Lucía Utatlán 	7	Santa Rita 	1	Enero	2023-10-01T00:00:00	2024-11-08T22:00:00	8	Radiación solar	0
69921	7	Sololá	704	Santa Lucía Utatlán 	7	Santa Rita 	1	Enero	2023-10-01T00:00:00	2024-11-08T23:00:00	2	Temperatura media	17.7
69922	7	Sololá	704	Santa Lucía Utatlán 	7	Santa Rita 	1	Enero	2023-10-01T00:00:00	2024-11-08T23:00:00	4	Temperatura máxima	18.3
69923	7	Sololá	704	Santa Lucía Utatlán 	7	Santa Rita 	1	Enero	2023-10-01T00:00:00	2024-11-08T23:00:00	3	Temperatura mínima	17.7
69924	7	Sololá	704	Santa Lucía Utatlán 	7	Santa Rita 	1	Enero	2023-10-01T00:00:00	2024-11-08T23:00:00	5	Humedad	75
69925	7	Sololá	704	Santa Lucía Utatlán 	7	Santa Rita 	1	Enero	2023-10-01T00:00:00	2024-11-08T23:00:00	6	Velocidad del viento	4.8
69926	7	Sololá	704	Santa Lucía Utatlán 	7	Santa Rita 	1	Enero	2023-10-01T00:00:00	2024-11-08T23:00:00	7	Dirección del viento	4.83
69927	7	Sololá	704	Santa Lucía Utatlán 	7	Santa Rita 	1	Enero	2023-10-01T00:00:00	2024-11-08T23:00:00	1	Precipitación	0
69928	7	Sololá	704	Santa Lucía Utatlán 	7	Santa Rita 	1	Enero	2023-10-01T00:00:00	2024-11-08T23:00:00	8	Radiación solar	0
69929	7	Sololá	704	Santa Lucía Utatlán 	7	Santa Rita 	1	Enero	2023-11-01T00:00:00	2024-11-08T00:00:00	2	Temperatura media	16.4
69930	7	Sololá	704	Santa Lucía Utatlán 	7	Santa Rita 	1	Enero	2023-11-01T00:00:00	2024-11-08T00:00:00	4	Temperatura máxima	17.7
69931	7	Sololá	704	Santa Lucía Utatlán 	7	Santa Rita 	1	Enero	2023-11-01T00:00:00	2024-11-08T00:00:00	3	Temperatura mínima	16.4
69932	7	Sololá	704	Santa Lucía Utatlán 	7	Santa Rita 	1	Enero	2023-11-01T00:00:00	2024-11-08T00:00:00	5	Humedad	81
69933	7	Sololá	704	Santa Lucía Utatlán 	7	Santa Rita 	1	Enero	2023-11-01T00:00:00	2024-11-08T00:00:00	6	Velocidad del viento	3.2
69934	7	Sololá	704	Santa Lucía Utatlán 	7	Santa Rita 	1	Enero	2023-11-01T00:00:00	2024-11-08T00:00:00	7	Dirección del viento	3.22
69935	7	Sololá	704	Santa Lucía Utatlán 	7	Santa Rita 	1	Enero	2023-11-01T00:00:00	2024-11-08T00:00:00	1	Precipitación	0
69936	7	Sololá	704	Santa Lucía Utatlán 	7	Santa Rita 	1	Enero	2023-11-01T00:00:00	2024-11-08T00:00:00	8	Radiación solar	0
69937	7	Sololá	704	Santa Lucía Utatlán 	7	Santa Rita 	1	Enero	2023-11-01T00:00:00	2024-11-08T01:00:00	2	Temperatura media	17.9
69938	7	Sololá	704	Santa Lucía Utatlán 	7	Santa Rita 	1	Enero	2023-11-01T00:00:00	2024-11-08T01:00:00	4	Temperatura máxima	17.9
69939	7	Sololá	704	Santa Lucía Utatlán 	7	Santa Rita 	1	Enero	2023-11-01T00:00:00	2024-11-08T01:00:00	3	Temperatura mínima	16.3
69940	7	Sololá	704	Santa Lucía Utatlán 	7	Santa Rita 	1	Enero	2023-11-01T00:00:00	2024-11-08T01:00:00	5	Humedad	76
69941	7	Sololá	704	Santa Lucía Utatlán 	7	Santa Rita 	1	Enero	2023-11-01T00:00:00	2024-11-08T01:00:00	6	Velocidad del viento	6.4
69942	7	Sololá	704	Santa Lucía Utatlán 	7	Santa Rita 	1	Enero	2023-11-01T00:00:00	2024-11-08T01:00:00	7	Dirección del viento	6.44
69943	7	Sololá	704	Santa Lucía Utatlán 	7	Santa Rita 	1	Enero	2023-11-01T00:00:00	2024-11-08T01:00:00	1	Precipitación	0
69944	7	Sololá	704	Santa Lucía Utatlán 	7	Santa Rita 	1	Enero	2023-11-01T00:00:00	2024-11-08T01:00:00	8	Radiación solar	0
69945	7	Sololá	704	Santa Lucía Utatlán 	7	Santa Rita 	1	Enero	2023-11-01T00:00:00	2024-11-08T02:00:00	2	Temperatura media	18.2
69946	7	Sololá	704	Santa Lucía Utatlán 	7	Santa Rita 	1	Enero	2023-11-01T00:00:00	2024-11-08T02:00:00	4	Temperatura máxima	18.3
69947	7	Sololá	704	Santa Lucía Utatlán 	7	Santa Rita 	1	Enero	2023-11-01T00:00:00	2024-11-08T02:00:00	3	Temperatura mínima	17.4
69948	7	Sololá	704	Santa Lucía Utatlán 	7	Santa Rita 	1	Enero	2023-11-01T00:00:00	2024-11-08T02:00:00	5	Humedad	75
69949	7	Sololá	704	Santa Lucía Utatlán 	7	Santa Rita 	1	Enero	2023-11-01T00:00:00	2024-11-08T02:00:00	6	Velocidad del viento	4.8
69950	7	Sololá	704	Santa Lucía Utatlán 	7	Santa Rita 	1	Enero	2023-11-01T00:00:00	2024-11-08T02:00:00	7	Dirección del viento	4.83
69951	7	Sololá	704	Santa Lucía Utatlán 	7	Santa Rita 	1	Enero	2023-11-01T00:00:00	2024-11-08T02:00:00	1	Precipitación	0
69952	7	Sololá	704	Santa Lucía Utatlán 	7	Santa Rita 	1	Enero	2023-11-01T00:00:00	2024-11-08T02:00:00	8	Radiación solar	0
69953	7	Sololá	704	Santa Lucía Utatlán 	7	Santa Rita 	1	Enero	2023-11-01T00:00:00	2024-11-08T03:00:00	2	Temperatura media	17.9
69954	7	Sololá	704	Santa Lucía Utatlán 	7	Santa Rita 	1	Enero	2023-11-01T00:00:00	2024-11-08T03:00:00	4	Temperatura máxima	18.4
69955	7	Sololá	704	Santa Lucía Utatlán 	7	Santa Rita 	1	Enero	2023-11-01T00:00:00	2024-11-08T03:00:00	3	Temperatura mínima	17.9
69956	7	Sololá	704	Santa Lucía Utatlán 	7	Santa Rita 	1	Enero	2023-11-01T00:00:00	2024-11-08T03:00:00	5	Humedad	77
69957	7	Sololá	704	Santa Lucía Utatlán 	7	Santa Rita 	1	Enero	2023-11-01T00:00:00	2024-11-08T03:00:00	6	Velocidad del viento	8
69958	7	Sololá	704	Santa Lucía Utatlán 	7	Santa Rita 	1	Enero	2023-11-01T00:00:00	2024-11-08T03:00:00	7	Dirección del viento	8.05
69959	7	Sololá	704	Santa Lucía Utatlán 	7	Santa Rita 	1	Enero	2023-11-01T00:00:00	2024-11-08T03:00:00	1	Precipitación	0
69960	7	Sololá	704	Santa Lucía Utatlán 	7	Santa Rita 	1	Enero	2023-11-01T00:00:00	2024-11-08T03:00:00	8	Radiación solar	0
69961	7	Sololá	704	Santa Lucía Utatlán 	7	Santa Rita 	1	Enero	2023-11-01T00:00:00	2024-11-08T04:00:00	2	Temperatura media	15.1
69962	7	Sololá	704	Santa Lucía Utatlán 	7	Santa Rita 	1	Enero	2023-11-01T00:00:00	2024-11-08T04:00:00	4	Temperatura máxima	17.9
69963	7	Sololá	704	Santa Lucía Utatlán 	7	Santa Rita 	1	Enero	2023-11-01T00:00:00	2024-11-08T04:00:00	3	Temperatura mínima	15.1
69964	7	Sololá	704	Santa Lucía Utatlán 	7	Santa Rita 	1	Enero	2023-11-01T00:00:00	2024-11-08T04:00:00	5	Humedad	86
69965	7	Sololá	704	Santa Lucía Utatlán 	7	Santa Rita 	1	Enero	2023-11-01T00:00:00	2024-11-08T04:00:00	6	Velocidad del viento	3.2
69966	7	Sololá	704	Santa Lucía Utatlán 	7	Santa Rita 	1	Enero	2023-11-01T00:00:00	2024-11-08T04:00:00	7	Dirección del viento	3.22
69967	7	Sololá	704	Santa Lucía Utatlán 	7	Santa Rita 	1	Enero	2023-11-01T00:00:00	2024-11-08T04:00:00	1	Precipitación	0
69968	7	Sololá	704	Santa Lucía Utatlán 	7	Santa Rita 	1	Enero	2023-11-01T00:00:00	2024-11-08T04:00:00	8	Radiación solar	0
69969	7	Sololá	704	Santa Lucía Utatlán 	7	Santa Rita 	1	Enero	2023-11-01T00:00:00	2024-11-08T05:00:00	2	Temperatura media	14.2
69970	7	Sololá	704	Santa Lucía Utatlán 	7	Santa Rita 	1	Enero	2023-11-01T00:00:00	2024-11-08T05:00:00	4	Temperatura máxima	15.2
69971	7	Sololá	704	Santa Lucía Utatlán 	7	Santa Rita 	1	Enero	2023-11-01T00:00:00	2024-11-08T05:00:00	3	Temperatura mínima	14.2
69972	7	Sololá	704	Santa Lucía Utatlán 	7	Santa Rita 	1	Enero	2023-11-01T00:00:00	2024-11-08T05:00:00	5	Humedad	89
69973	7	Sololá	704	Santa Lucía Utatlán 	7	Santa Rita 	1	Enero	2023-11-01T00:00:00	2024-11-08T05:00:00	6	Velocidad del viento	3.2
69974	7	Sololá	704	Santa Lucía Utatlán 	7	Santa Rita 	1	Enero	2023-11-01T00:00:00	2024-11-08T05:00:00	7	Dirección del viento	3.22
69975	7	Sololá	704	Santa Lucía Utatlán 	7	Santa Rita 	1	Enero	2023-11-01T00:00:00	2024-11-08T05:00:00	1	Precipitación	0
69976	7	Sololá	704	Santa Lucía Utatlán 	7	Santa Rita 	1	Enero	2023-11-01T00:00:00	2024-11-08T05:00:00	8	Radiación solar	0
69977	7	Sololá	704	Santa Lucía Utatlán 	7	Santa Rita 	1	Enero	2023-11-01T00:00:00	2024-11-08T06:00:00	2	Temperatura media	14.2
69978	7	Sololá	704	Santa Lucía Utatlán 	7	Santa Rita 	1	Enero	2023-11-01T00:00:00	2024-11-08T06:00:00	4	Temperatura máxima	14.2
69979	7	Sololá	704	Santa Lucía Utatlán 	7	Santa Rita 	1	Enero	2023-11-01T00:00:00	2024-11-08T06:00:00	3	Temperatura mínima	14
69980	7	Sololá	704	Santa Lucía Utatlán 	7	Santa Rita 	1	Enero	2023-11-01T00:00:00	2024-11-08T06:00:00	5	Humedad	90
69981	7	Sololá	704	Santa Lucía Utatlán 	7	Santa Rita 	1	Enero	2023-11-01T00:00:00	2024-11-08T06:00:00	6	Velocidad del viento	3.2
69982	7	Sololá	704	Santa Lucía Utatlán 	7	Santa Rita 	1	Enero	2023-11-01T00:00:00	2024-11-08T06:00:00	7	Dirección del viento	3.22
69983	7	Sololá	704	Santa Lucía Utatlán 	7	Santa Rita 	1	Enero	2023-11-01T00:00:00	2024-11-08T06:00:00	1	Precipitación	0
69984	7	Sololá	704	Santa Lucía Utatlán 	7	Santa Rita 	1	Enero	2023-11-01T00:00:00	2024-11-08T06:00:00	8	Radiación solar	0
69985	7	Sololá	704	Santa Lucía Utatlán 	7	Santa Rita 	1	Enero	2023-11-01T00:00:00	2024-11-08T07:00:00	2	Temperatura media	15.2
69986	7	Sololá	704	Santa Lucía Utatlán 	7	Santa Rita 	1	Enero	2023-11-01T00:00:00	2024-11-08T07:00:00	4	Temperatura máxima	15.6
69987	7	Sololá	704	Santa Lucía Utatlán 	7	Santa Rita 	1	Enero	2023-11-01T00:00:00	2024-11-08T07:00:00	3	Temperatura mínima	14.2
69988	7	Sololá	704	Santa Lucía Utatlán 	7	Santa Rita 	1	Enero	2023-11-01T00:00:00	2024-11-08T07:00:00	5	Humedad	88
69989	7	Sololá	704	Santa Lucía Utatlán 	7	Santa Rita 	1	Enero	2023-11-01T00:00:00	2024-11-08T07:00:00	6	Velocidad del viento	3.2
69990	7	Sololá	704	Santa Lucía Utatlán 	7	Santa Rita 	1	Enero	2023-11-01T00:00:00	2024-11-08T07:00:00	7	Dirección del viento	3.22
69991	7	Sololá	704	Santa Lucía Utatlán 	7	Santa Rita 	1	Enero	2023-11-01T00:00:00	2024-11-08T07:00:00	1	Precipitación	0
69992	7	Sololá	704	Santa Lucía Utatlán 	7	Santa Rita 	1	Enero	2023-11-01T00:00:00	2024-11-08T07:00:00	8	Radiación solar	8
69993	7	Sololá	704	Santa Lucía Utatlán 	7	Santa Rita 	1	Enero	2023-11-01T00:00:00	2024-11-08T08:00:00	2	Temperatura media	18.9
69994	7	Sololá	704	Santa Lucía Utatlán 	7	Santa Rita 	1	Enero	2023-11-01T00:00:00	2024-11-08T08:00:00	4	Temperatura máxima	18.9
69995	7	Sololá	704	Santa Lucía Utatlán 	7	Santa Rita 	1	Enero	2023-11-01T00:00:00	2024-11-08T08:00:00	3	Temperatura mínima	15.2
69996	7	Sololá	704	Santa Lucía Utatlán 	7	Santa Rita 	1	Enero	2023-11-01T00:00:00	2024-11-08T08:00:00	5	Humedad	74
69997	7	Sololá	704	Santa Lucía Utatlán 	7	Santa Rita 	1	Enero	2023-11-01T00:00:00	2024-11-08T08:00:00	6	Velocidad del viento	3.2
69998	7	Sololá	704	Santa Lucía Utatlán 	7	Santa Rita 	1	Enero	2023-11-01T00:00:00	2024-11-08T08:00:00	7	Dirección del viento	3.22
69999	7	Sololá	704	Santa Lucía Utatlán 	7	Santa Rita 	1	Enero	2023-11-01T00:00:00	2024-11-08T08:00:00	1	Precipitación	0
70000	7	Sololá	704	Santa Lucía Utatlán 	7	Santa Rita 	1	Enero	2023-11-01T00:00:00	2024-11-08T08:00:00	8	Radiación solar	119
70001	7	Sololá	704	Santa Lucía Utatlán 	7	Santa Rita 	1	Enero	2023-11-01T00:00:00	2024-11-08T09:00:00	2	Temperatura media	20.9
70002	7	Sololá	704	Santa Lucía Utatlán 	7	Santa Rita 	1	Enero	2023-11-01T00:00:00	2024-11-08T09:00:00	4	Temperatura máxima	21
70003	7	Sololá	704	Santa Lucía Utatlán 	7	Santa Rita 	1	Enero	2023-11-01T00:00:00	2024-11-08T09:00:00	3	Temperatura mínima	18.8
70004	7	Sololá	704	Santa Lucía Utatlán 	7	Santa Rita 	1	Enero	2023-11-01T00:00:00	2024-11-08T09:00:00	5	Humedad	66
70005	7	Sololá	704	Santa Lucía Utatlán 	7	Santa Rita 	1	Enero	2023-11-01T00:00:00	2024-11-08T09:00:00	6	Velocidad del viento	6.4
70006	7	Sololá	704	Santa Lucía Utatlán 	7	Santa Rita 	1	Enero	2023-11-01T00:00:00	2024-11-08T09:00:00	7	Dirección del viento	6.44
70007	7	Sololá	704	Santa Lucía Utatlán 	7	Santa Rita 	1	Enero	2023-11-01T00:00:00	2024-11-08T09:00:00	1	Precipitación	0
70008	7	Sololá	704	Santa Lucía Utatlán 	7	Santa Rita 	1	Enero	2023-11-01T00:00:00	2024-11-08T09:00:00	8	Radiación solar	365
70009	7	Sololá	704	Santa Lucía Utatlán 	7	Santa Rita 	1	Enero	2023-11-01T00:00:00	2024-11-08T10:00:00	2	Temperatura media	22.1
70010	7	Sololá	704	Santa Lucía Utatlán 	7	Santa Rita 	1	Enero	2023-11-01T00:00:00	2024-11-08T10:00:00	4	Temperatura máxima	22.7
70011	7	Sololá	704	Santa Lucía Utatlán 	7	Santa Rita 	1	Enero	2023-11-01T00:00:00	2024-11-08T10:00:00	3	Temperatura mínima	20.9
70012	7	Sololá	704	Santa Lucía Utatlán 	7	Santa Rita 	1	Enero	2023-11-01T00:00:00	2024-11-08T10:00:00	5	Humedad	62
70013	7	Sololá	704	Santa Lucía Utatlán 	7	Santa Rita 	1	Enero	2023-11-01T00:00:00	2024-11-08T10:00:00	6	Velocidad del viento	6.4
70014	7	Sololá	704	Santa Lucía Utatlán 	7	Santa Rita 	1	Enero	2023-11-01T00:00:00	2024-11-08T10:00:00	7	Dirección del viento	6.44
70015	7	Sololá	704	Santa Lucía Utatlán 	7	Santa Rita 	1	Enero	2023-11-01T00:00:00	2024-11-08T10:00:00	1	Precipitación	0
70016	7	Sololá	704	Santa Lucía Utatlán 	7	Santa Rita 	1	Enero	2023-11-01T00:00:00	2024-11-08T10:00:00	8	Radiación solar	583
70017	7	Sololá	704	Santa Lucía Utatlán 	7	Santa Rita 	1	Enero	2023-11-01T00:00:00	2024-11-08T11:00:00	2	Temperatura media	22.4
70018	7	Sololá	704	Santa Lucía Utatlán 	7	Santa Rita 	1	Enero	2023-11-01T00:00:00	2024-11-08T11:00:00	4	Temperatura máxima	22.9
70019	7	Sololá	704	Santa Lucía Utatlán 	7	Santa Rita 	1	Enero	2023-11-01T00:00:00	2024-11-08T11:00:00	3	Temperatura mínima	21.9
70020	7	Sololá	704	Santa Lucía Utatlán 	7	Santa Rita 	1	Enero	2023-11-01T00:00:00	2024-11-08T11:00:00	5	Humedad	60
70021	7	Sololá	704	Santa Lucía Utatlán 	7	Santa Rita 	1	Enero	2023-11-01T00:00:00	2024-11-08T11:00:00	6	Velocidad del viento	11.3
70022	7	Sololá	704	Santa Lucía Utatlán 	7	Santa Rita 	1	Enero	2023-11-01T00:00:00	2024-11-08T11:00:00	7	Dirección del viento	11.27
70023	7	Sololá	704	Santa Lucía Utatlán 	7	Santa Rita 	1	Enero	2023-11-01T00:00:00	2024-11-08T11:00:00	1	Precipitación	0
70024	7	Sololá	704	Santa Lucía Utatlán 	7	Santa Rita 	1	Enero	2023-11-01T00:00:00	2024-11-08T11:00:00	8	Radiación solar	744
70025	7	Sololá	704	Santa Lucía Utatlán 	7	Santa Rita 	1	Enero	2023-11-01T00:00:00	2024-11-08T12:00:00	2	Temperatura media	22.9
70026	7	Sololá	704	Santa Lucía Utatlán 	7	Santa Rita 	1	Enero	2023-11-01T00:00:00	2024-11-08T12:00:00	4	Temperatura máxima	23.2
70027	7	Sololá	704	Santa Lucía Utatlán 	7	Santa Rita 	1	Enero	2023-11-01T00:00:00	2024-11-08T12:00:00	3	Temperatura mínima	22.4
70028	7	Sololá	704	Santa Lucía Utatlán 	7	Santa Rita 	1	Enero	2023-11-01T00:00:00	2024-11-08T12:00:00	5	Humedad	58
70029	7	Sololá	704	Santa Lucía Utatlán 	7	Santa Rita 	1	Enero	2023-11-01T00:00:00	2024-11-08T12:00:00	6	Velocidad del viento	12.9
70030	7	Sololá	704	Santa Lucía Utatlán 	7	Santa Rita 	1	Enero	2023-11-01T00:00:00	2024-11-08T12:00:00	7	Dirección del viento	12.87
70031	7	Sololá	704	Santa Lucía Utatlán 	7	Santa Rita 	1	Enero	2023-11-01T00:00:00	2024-11-08T12:00:00	1	Precipitación	0
70032	7	Sololá	704	Santa Lucía Utatlán 	7	Santa Rita 	1	Enero	2023-11-01T00:00:00	2024-11-08T12:00:00	8	Radiación solar	898
70033	7	Sololá	704	Santa Lucía Utatlán 	7	Santa Rita 	1	Enero	2023-11-01T00:00:00	2024-11-08T13:00:00	2	Temperatura media	23.2
70034	7	Sololá	704	Santa Lucía Utatlán 	7	Santa Rita 	1	Enero	2023-11-01T00:00:00	2024-11-08T13:00:00	4	Temperatura máxima	23.7
70035	7	Sololá	704	Santa Lucía Utatlán 	7	Santa Rita 	1	Enero	2023-11-01T00:00:00	2024-11-08T13:00:00	3	Temperatura mínima	22.6
70036	7	Sololá	704	Santa Lucía Utatlán 	7	Santa Rita 	1	Enero	2023-11-01T00:00:00	2024-11-08T13:00:00	5	Humedad	55
70037	7	Sololá	704	Santa Lucía Utatlán 	7	Santa Rita 	1	Enero	2023-11-01T00:00:00	2024-11-08T13:00:00	6	Velocidad del viento	11.3
70038	7	Sololá	704	Santa Lucía Utatlán 	7	Santa Rita 	1	Enero	2023-11-01T00:00:00	2024-11-08T13:00:00	7	Dirección del viento	11.27
70039	7	Sololá	704	Santa Lucía Utatlán 	7	Santa Rita 	1	Enero	2023-11-01T00:00:00	2024-11-08T13:00:00	1	Precipitación	0
70040	7	Sololá	704	Santa Lucía Utatlán 	7	Santa Rita 	1	Enero	2023-11-01T00:00:00	2024-11-08T13:00:00	8	Radiación solar	864
70041	7	Sololá	704	Santa Lucía Utatlán 	7	Santa Rita 	1	Enero	2023-11-01T00:00:00	2024-11-08T14:00:00	2	Temperatura media	22.6
70042	7	Sololá	704	Santa Lucía Utatlán 	7	Santa Rita 	1	Enero	2023-11-01T00:00:00	2024-11-08T14:00:00	4	Temperatura máxima	23.6
70043	7	Sololá	704	Santa Lucía Utatlán 	7	Santa Rita 	1	Enero	2023-11-01T00:00:00	2024-11-08T14:00:00	3	Temperatura mínima	22.3
70044	7	Sololá	704	Santa Lucía Utatlán 	7	Santa Rita 	1	Enero	2023-11-01T00:00:00	2024-11-08T14:00:00	5	Humedad	59
70045	7	Sololá	704	Santa Lucía Utatlán 	7	Santa Rita 	1	Enero	2023-11-01T00:00:00	2024-11-08T14:00:00	6	Velocidad del viento	9.7
70046	7	Sololá	704	Santa Lucía Utatlán 	7	Santa Rita 	1	Enero	2023-11-01T00:00:00	2024-11-08T14:00:00	7	Dirección del viento	9.66
70047	7	Sololá	704	Santa Lucía Utatlán 	7	Santa Rita 	1	Enero	2023-11-01T00:00:00	2024-11-08T14:00:00	1	Precipitación	0
70048	7	Sololá	704	Santa Lucía Utatlán 	7	Santa Rita 	1	Enero	2023-11-01T00:00:00	2024-11-08T14:00:00	8	Radiación solar	410
70049	7	Sololá	704	Santa Lucía Utatlán 	7	Santa Rita 	1	Enero	2023-11-01T00:00:00	2024-11-08T15:00:00	2	Temperatura media	23
70050	7	Sololá	704	Santa Lucía Utatlán 	7	Santa Rita 	1	Enero	2023-11-01T00:00:00	2024-11-08T15:00:00	4	Temperatura máxima	23
70051	7	Sololá	704	Santa Lucía Utatlán 	7	Santa Rita 	1	Enero	2023-11-01T00:00:00	2024-11-08T15:00:00	3	Temperatura mínima	22.2
70052	7	Sololá	704	Santa Lucía Utatlán 	7	Santa Rita 	1	Enero	2023-11-01T00:00:00	2024-11-08T15:00:00	5	Humedad	57
70053	7	Sololá	704	Santa Lucía Utatlán 	7	Santa Rita 	1	Enero	2023-11-01T00:00:00	2024-11-08T15:00:00	6	Velocidad del viento	6.4
70054	7	Sololá	704	Santa Lucía Utatlán 	7	Santa Rita 	1	Enero	2023-11-01T00:00:00	2024-11-08T15:00:00	7	Dirección del viento	6.44
70055	7	Sololá	704	Santa Lucía Utatlán 	7	Santa Rita 	1	Enero	2023-11-01T00:00:00	2024-11-08T15:00:00	1	Precipitación	0
70056	7	Sololá	704	Santa Lucía Utatlán 	7	Santa Rita 	1	Enero	2023-11-01T00:00:00	2024-11-08T15:00:00	8	Radiación solar	257
70057	7	Sololá	704	Santa Lucía Utatlán 	7	Santa Rita 	1	Enero	2023-11-01T00:00:00	2024-11-08T16:00:00	2	Temperatura media	22.2
70058	7	Sololá	704	Santa Lucía Utatlán 	7	Santa Rita 	1	Enero	2023-11-01T00:00:00	2024-11-08T16:00:00	4	Temperatura máxima	23.3
70059	7	Sololá	704	Santa Lucía Utatlán 	7	Santa Rita 	1	Enero	2023-11-01T00:00:00	2024-11-08T16:00:00	3	Temperatura mínima	21.8
70060	7	Sololá	704	Santa Lucía Utatlán 	7	Santa Rita 	1	Enero	2023-11-01T00:00:00	2024-11-08T16:00:00	5	Humedad	64
70061	7	Sololá	704	Santa Lucía Utatlán 	7	Santa Rita 	1	Enero	2023-11-01T00:00:00	2024-11-08T16:00:00	6	Velocidad del viento	11.3
70062	7	Sololá	704	Santa Lucía Utatlán 	7	Santa Rita 	1	Enero	2023-11-01T00:00:00	2024-11-08T16:00:00	7	Dirección del viento	11.27
70063	7	Sololá	704	Santa Lucía Utatlán 	7	Santa Rita 	1	Enero	2023-11-01T00:00:00	2024-11-08T16:00:00	1	Precipitación	0
70064	7	Sololá	704	Santa Lucía Utatlán 	7	Santa Rita 	1	Enero	2023-11-01T00:00:00	2024-11-08T16:00:00	8	Radiación solar	497
70065	7	Sololá	704	Santa Lucía Utatlán 	7	Santa Rita 	1	Enero	2023-11-01T00:00:00	2024-11-08T17:00:00	2	Temperatura media	20.4
70066	7	Sololá	704	Santa Lucía Utatlán 	7	Santa Rita 	1	Enero	2023-11-01T00:00:00	2024-11-08T17:00:00	4	Temperatura máxima	22.2
70067	7	Sololá	704	Santa Lucía Utatlán 	7	Santa Rita 	1	Enero	2023-11-01T00:00:00	2024-11-08T17:00:00	3	Temperatura mínima	20.4
70068	7	Sololá	704	Santa Lucía Utatlán 	7	Santa Rita 	1	Enero	2023-11-01T00:00:00	2024-11-08T17:00:00	5	Humedad	69
70069	7	Sololá	704	Santa Lucía Utatlán 	7	Santa Rita 	1	Enero	2023-11-01T00:00:00	2024-11-08T17:00:00	6	Velocidad del viento	9.7
70070	7	Sololá	704	Santa Lucía Utatlán 	7	Santa Rita 	1	Enero	2023-11-01T00:00:00	2024-11-08T17:00:00	7	Dirección del viento	9.66
70071	7	Sololá	704	Santa Lucía Utatlán 	7	Santa Rita 	1	Enero	2023-11-01T00:00:00	2024-11-08T17:00:00	1	Precipitación	0
70072	7	Sololá	704	Santa Lucía Utatlán 	7	Santa Rita 	1	Enero	2023-11-01T00:00:00	2024-11-08T17:00:00	8	Radiación solar	147
70073	7	Sololá	704	Santa Lucía Utatlán 	7	Santa Rita 	1	Enero	2023-11-01T00:00:00	2024-11-08T18:00:00	2	Temperatura media	18.3
70074	7	Sololá	704	Santa Lucía Utatlán 	7	Santa Rita 	1	Enero	2023-11-01T00:00:00	2024-11-08T18:00:00	4	Temperatura máxima	20.5
70075	7	Sololá	704	Santa Lucía Utatlán 	7	Santa Rita 	1	Enero	2023-11-01T00:00:00	2024-11-08T18:00:00	3	Temperatura mínima	18.3
70076	7	Sololá	704	Santa Lucía Utatlán 	7	Santa Rita 	1	Enero	2023-11-01T00:00:00	2024-11-08T18:00:00	5	Humedad	78
70077	7	Sololá	704	Santa Lucía Utatlán 	7	Santa Rita 	1	Enero	2023-11-01T00:00:00	2024-11-08T18:00:00	6	Velocidad del viento	4.8
70078	7	Sololá	704	Santa Lucía Utatlán 	7	Santa Rita 	1	Enero	2023-11-01T00:00:00	2024-11-08T18:00:00	7	Dirección del viento	4.83
70079	7	Sololá	704	Santa Lucía Utatlán 	7	Santa Rita 	1	Enero	2023-11-01T00:00:00	2024-11-08T18:00:00	1	Precipitación	0
70080	7	Sololá	704	Santa Lucía Utatlán 	7	Santa Rita 	1	Enero	2023-11-01T00:00:00	2024-11-08T18:00:00	8	Radiación solar	15
70081	7	Sololá	704	Santa Lucía Utatlán 	7	Santa Rita 	1	Enero	2023-11-01T00:00:00	2024-11-08T19:00:00	2	Temperatura media	16.2
70082	7	Sololá	704	Santa Lucía Utatlán 	7	Santa Rita 	1	Enero	2023-11-01T00:00:00	2024-11-08T19:00:00	4	Temperatura máxima	18.3
70083	7	Sololá	704	Santa Lucía Utatlán 	7	Santa Rita 	1	Enero	2023-11-01T00:00:00	2024-11-08T19:00:00	3	Temperatura mínima	16.2
70084	7	Sololá	704	Santa Lucía Utatlán 	7	Santa Rita 	1	Enero	2023-11-01T00:00:00	2024-11-08T19:00:00	5	Humedad	83
70085	7	Sololá	704	Santa Lucía Utatlán 	7	Santa Rita 	1	Enero	2023-11-01T00:00:00	2024-11-08T19:00:00	6	Velocidad del viento	3.2
70086	7	Sololá	704	Santa Lucía Utatlán 	7	Santa Rita 	1	Enero	2023-11-01T00:00:00	2024-11-08T19:00:00	7	Dirección del viento	3.22
70087	7	Sololá	704	Santa Lucía Utatlán 	7	Santa Rita 	1	Enero	2023-11-01T00:00:00	2024-11-08T19:00:00	1	Precipitación	0
70088	7	Sololá	704	Santa Lucía Utatlán 	7	Santa Rita 	1	Enero	2023-11-01T00:00:00	2024-11-08T19:00:00	8	Radiación solar	0
70089	7	Sololá	704	Santa Lucía Utatlán 	7	Santa Rita 	1	Enero	2023-11-01T00:00:00	2024-11-08T20:00:00	2	Temperatura media	16
70090	7	Sololá	704	Santa Lucía Utatlán 	7	Santa Rita 	1	Enero	2023-11-01T00:00:00	2024-11-08T20:00:00	4	Temperatura máxima	16.3
70091	7	Sololá	704	Santa Lucía Utatlán 	7	Santa Rita 	1	Enero	2023-11-01T00:00:00	2024-11-08T20:00:00	3	Temperatura mínima	16
70092	7	Sololá	704	Santa Lucía Utatlán 	7	Santa Rita 	1	Enero	2023-11-01T00:00:00	2024-11-08T20:00:00	5	Humedad	84
70093	7	Sololá	704	Santa Lucía Utatlán 	7	Santa Rita 	1	Enero	2023-11-01T00:00:00	2024-11-08T20:00:00	6	Velocidad del viento	1.6
70094	7	Sololá	704	Santa Lucía Utatlán 	7	Santa Rita 	1	Enero	2023-11-01T00:00:00	2024-11-08T20:00:00	7	Dirección del viento	1.61
70095	7	Sololá	704	Santa Lucía Utatlán 	7	Santa Rita 	1	Enero	2023-11-01T00:00:00	2024-11-08T20:00:00	1	Precipitación	0
70096	7	Sololá	704	Santa Lucía Utatlán 	7	Santa Rita 	1	Enero	2023-11-01T00:00:00	2024-11-08T20:00:00	8	Radiación solar	0
70097	7	Sololá	704	Santa Lucía Utatlán 	7	Santa Rita 	1	Enero	2023-11-01T00:00:00	2024-11-08T21:00:00	2	Temperatura media	15.6
70098	7	Sololá	704	Santa Lucía Utatlán 	7	Santa Rita 	1	Enero	2023-11-01T00:00:00	2024-11-08T21:00:00	4	Temperatura máxima	16.2
70099	7	Sololá	704	Santa Lucía Utatlán 	7	Santa Rita 	1	Enero	2023-11-01T00:00:00	2024-11-08T21:00:00	3	Temperatura mínima	15.6
70100	7	Sololá	704	Santa Lucía Utatlán 	7	Santa Rita 	1	Enero	2023-11-01T00:00:00	2024-11-08T21:00:00	5	Humedad	84
70101	7	Sololá	704	Santa Lucía Utatlán 	7	Santa Rita 	1	Enero	2023-11-01T00:00:00	2024-11-08T21:00:00	6	Velocidad del viento	1.6
70102	7	Sololá	704	Santa Lucía Utatlán 	7	Santa Rita 	1	Enero	2023-11-01T00:00:00	2024-11-08T21:00:00	7	Dirección del viento	1.61
70103	7	Sololá	704	Santa Lucía Utatlán 	7	Santa Rita 	1	Enero	2023-11-01T00:00:00	2024-11-08T21:00:00	1	Precipitación	0
70104	7	Sololá	704	Santa Lucía Utatlán 	7	Santa Rita 	1	Enero	2023-11-01T00:00:00	2024-11-08T21:00:00	8	Radiación solar	0
70105	7	Sololá	704	Santa Lucía Utatlán 	7	Santa Rita 	1	Enero	2023-11-01T00:00:00	2024-11-08T22:00:00	2	Temperatura media	14.8
70106	7	Sololá	704	Santa Lucía Utatlán 	7	Santa Rita 	1	Enero	2023-11-01T00:00:00	2024-11-08T22:00:00	4	Temperatura máxima	15.7
70107	7	Sololá	704	Santa Lucía Utatlán 	7	Santa Rita 	1	Enero	2023-11-01T00:00:00	2024-11-08T22:00:00	3	Temperatura mínima	14.8
70108	7	Sololá	704	Santa Lucía Utatlán 	7	Santa Rita 	1	Enero	2023-11-01T00:00:00	2024-11-08T22:00:00	5	Humedad	88
70109	7	Sololá	704	Santa Lucía Utatlán 	7	Santa Rita 	1	Enero	2023-11-01T00:00:00	2024-11-08T22:00:00	6	Velocidad del viento	3.2
70110	7	Sololá	704	Santa Lucía Utatlán 	7	Santa Rita 	1	Enero	2023-11-01T00:00:00	2024-11-08T22:00:00	7	Dirección del viento	3.22
70111	7	Sololá	704	Santa Lucía Utatlán 	7	Santa Rita 	1	Enero	2023-11-01T00:00:00	2024-11-08T22:00:00	1	Precipitación	0
70112	7	Sololá	704	Santa Lucía Utatlán 	7	Santa Rita 	1	Enero	2023-11-01T00:00:00	2024-11-08T22:00:00	8	Radiación solar	0
70113	7	Sololá	704	Santa Lucía Utatlán 	7	Santa Rita 	1	Enero	2023-11-01T00:00:00	2024-11-08T23:00:00	2	Temperatura media	14.8
70114	7	Sololá	704	Santa Lucía Utatlán 	7	Santa Rita 	1	Enero	2023-11-01T00:00:00	2024-11-08T23:00:00	4	Temperatura máxima	14.9
70115	7	Sololá	704	Santa Lucía Utatlán 	7	Santa Rita 	1	Enero	2023-11-01T00:00:00	2024-11-08T23:00:00	3	Temperatura mínima	14.4
70116	7	Sololá	704	Santa Lucía Utatlán 	7	Santa Rita 	1	Enero	2023-11-01T00:00:00	2024-11-08T23:00:00	5	Humedad	85
70117	7	Sololá	704	Santa Lucía Utatlán 	7	Santa Rita 	1	Enero	2023-11-01T00:00:00	2024-11-08T23:00:00	6	Velocidad del viento	3.2
70118	7	Sololá	704	Santa Lucía Utatlán 	7	Santa Rita 	1	Enero	2023-11-01T00:00:00	2024-11-08T23:00:00	7	Dirección del viento	3.22
70119	7	Sololá	704	Santa Lucía Utatlán 	7	Santa Rita 	1	Enero	2023-11-01T00:00:00	2024-11-08T23:00:00	1	Precipitación	0
70120	7	Sololá	704	Santa Lucía Utatlán 	7	Santa Rita 	1	Enero	2023-11-01T00:00:00	2024-11-08T23:00:00	8	Radiación solar	0
70121	7	Sololá	704	Santa Lucía Utatlán 	7	Santa Rita 	1	Enero	2023-12-01T00:00:00	2024-11-08T00:00:00	2	Temperatura media	14.3
70122	7	Sololá	704	Santa Lucía Utatlán 	7	Santa Rita 	1	Enero	2023-12-01T00:00:00	2024-11-08T00:00:00	4	Temperatura máxima	14.8
70123	7	Sololá	704	Santa Lucía Utatlán 	7	Santa Rita 	1	Enero	2023-12-01T00:00:00	2024-11-08T00:00:00	3	Temperatura mínima	14.2
70124	7	Sololá	704	Santa Lucía Utatlán 	7	Santa Rita 	1	Enero	2023-12-01T00:00:00	2024-11-08T00:00:00	5	Humedad	86
70125	7	Sololá	704	Santa Lucía Utatlán 	7	Santa Rita 	1	Enero	2023-12-01T00:00:00	2024-11-08T00:00:00	6	Velocidad del viento	3.2
70126	7	Sololá	704	Santa Lucía Utatlán 	7	Santa Rita 	1	Enero	2023-12-01T00:00:00	2024-11-08T00:00:00	7	Dirección del viento	3.22
70127	7	Sololá	704	Santa Lucía Utatlán 	7	Santa Rita 	1	Enero	2023-12-01T00:00:00	2024-11-08T00:00:00	1	Precipitación	0
70128	7	Sololá	704	Santa Lucía Utatlán 	7	Santa Rita 	1	Enero	2023-12-01T00:00:00	2024-11-08T00:00:00	8	Radiación solar	0
70129	7	Sololá	704	Santa Lucía Utatlán 	7	Santa Rita 	1	Enero	2023-12-01T00:00:00	2024-11-08T01:00:00	2	Temperatura media	13.9
70130	7	Sololá	704	Santa Lucía Utatlán 	7	Santa Rita 	1	Enero	2023-12-01T00:00:00	2024-11-08T01:00:00	4	Temperatura máxima	14.4
70131	7	Sololá	704	Santa Lucía Utatlán 	7	Santa Rita 	1	Enero	2023-12-01T00:00:00	2024-11-08T01:00:00	3	Temperatura mínima	13.8
70132	7	Sololá	704	Santa Lucía Utatlán 	7	Santa Rita 	1	Enero	2023-12-01T00:00:00	2024-11-08T01:00:00	5	Humedad	87
70133	7	Sololá	704	Santa Lucía Utatlán 	7	Santa Rita 	1	Enero	2023-12-01T00:00:00	2024-11-08T01:00:00	6	Velocidad del viento	3.2
70134	7	Sololá	704	Santa Lucía Utatlán 	7	Santa Rita 	1	Enero	2023-12-01T00:00:00	2024-11-08T01:00:00	7	Dirección del viento	3.22
70135	7	Sololá	704	Santa Lucía Utatlán 	7	Santa Rita 	1	Enero	2023-12-01T00:00:00	2024-11-08T01:00:00	1	Precipitación	0
70136	7	Sololá	704	Santa Lucía Utatlán 	7	Santa Rita 	1	Enero	2023-12-01T00:00:00	2024-11-08T01:00:00	8	Radiación solar	0
70137	7	Sololá	704	Santa Lucía Utatlán 	7	Santa Rita 	1	Enero	2023-12-01T00:00:00	2024-11-08T02:00:00	2	Temperatura media	13.8
70138	7	Sololá	704	Santa Lucía Utatlán 	7	Santa Rita 	1	Enero	2023-12-01T00:00:00	2024-11-08T02:00:00	4	Temperatura máxima	13.9
70139	7	Sololá	704	Santa Lucía Utatlán 	7	Santa Rita 	1	Enero	2023-12-01T00:00:00	2024-11-08T02:00:00	3	Temperatura mínima	13.7
70140	7	Sololá	704	Santa Lucía Utatlán 	7	Santa Rita 	1	Enero	2023-12-01T00:00:00	2024-11-08T02:00:00	5	Humedad	87
70141	7	Sololá	704	Santa Lucía Utatlán 	7	Santa Rita 	1	Enero	2023-12-01T00:00:00	2024-11-08T02:00:00	6	Velocidad del viento	3.2
70142	7	Sololá	704	Santa Lucía Utatlán 	7	Santa Rita 	1	Enero	2023-12-01T00:00:00	2024-11-08T02:00:00	7	Dirección del viento	3.22
70143	7	Sololá	704	Santa Lucía Utatlán 	7	Santa Rita 	1	Enero	2023-12-01T00:00:00	2024-11-08T02:00:00	1	Precipitación	0
70144	7	Sololá	704	Santa Lucía Utatlán 	7	Santa Rita 	1	Enero	2023-12-01T00:00:00	2024-11-08T02:00:00	8	Radiación solar	0
70145	7	Sololá	704	Santa Lucía Utatlán 	7	Santa Rita 	1	Enero	2023-12-01T00:00:00	2024-11-08T03:00:00	2	Temperatura media	13.8
70146	7	Sololá	704	Santa Lucía Utatlán 	7	Santa Rita 	1	Enero	2023-12-01T00:00:00	2024-11-08T03:00:00	4	Temperatura máxima	13.9
70147	7	Sololá	704	Santa Lucía Utatlán 	7	Santa Rita 	1	Enero	2023-12-01T00:00:00	2024-11-08T03:00:00	3	Temperatura mínima	13.4
70148	7	Sololá	704	Santa Lucía Utatlán 	7	Santa Rita 	1	Enero	2023-12-01T00:00:00	2024-11-08T03:00:00	5	Humedad	86
70149	7	Sololá	704	Santa Lucía Utatlán 	7	Santa Rita 	1	Enero	2023-12-01T00:00:00	2024-11-08T03:00:00	6	Velocidad del viento	3.2
70150	7	Sololá	704	Santa Lucía Utatlán 	7	Santa Rita 	1	Enero	2023-12-01T00:00:00	2024-11-08T03:00:00	7	Dirección del viento	3.22
70151	7	Sololá	704	Santa Lucía Utatlán 	7	Santa Rita 	1	Enero	2023-12-01T00:00:00	2024-11-08T03:00:00	1	Precipitación	0
70152	7	Sololá	704	Santa Lucía Utatlán 	7	Santa Rita 	1	Enero	2023-12-01T00:00:00	2024-11-08T03:00:00	8	Radiación solar	0
70153	7	Sololá	704	Santa Lucía Utatlán 	7	Santa Rita 	1	Enero	2023-12-01T00:00:00	2024-11-08T04:00:00	2	Temperatura media	13.6
70154	7	Sololá	704	Santa Lucía Utatlán 	7	Santa Rita 	1	Enero	2023-12-01T00:00:00	2024-11-08T04:00:00	4	Temperatura máxima	14
70155	7	Sololá	704	Santa Lucía Utatlán 	7	Santa Rita 	1	Enero	2023-12-01T00:00:00	2024-11-08T04:00:00	3	Temperatura mínima	13.6
70156	7	Sololá	704	Santa Lucía Utatlán 	7	Santa Rita 	1	Enero	2023-12-01T00:00:00	2024-11-08T04:00:00	5	Humedad	85
70157	7	Sololá	704	Santa Lucía Utatlán 	7	Santa Rita 	1	Enero	2023-12-01T00:00:00	2024-11-08T04:00:00	6	Velocidad del viento	3.2
70158	7	Sololá	704	Santa Lucía Utatlán 	7	Santa Rita 	1	Enero	2023-12-01T00:00:00	2024-11-08T04:00:00	7	Dirección del viento	3.22
70159	7	Sololá	704	Santa Lucía Utatlán 	7	Santa Rita 	1	Enero	2023-12-01T00:00:00	2024-11-08T04:00:00	1	Precipitación	0
70160	7	Sololá	704	Santa Lucía Utatlán 	7	Santa Rita 	1	Enero	2023-12-01T00:00:00	2024-11-08T04:00:00	8	Radiación solar	0
70161	7	Sololá	704	Santa Lucía Utatlán 	7	Santa Rita 	1	Enero	2023-12-01T00:00:00	2024-11-08T05:00:00	2	Temperatura media	13.8
70162	7	Sololá	704	Santa Lucía Utatlán 	7	Santa Rita 	1	Enero	2023-12-01T00:00:00	2024-11-08T05:00:00	4	Temperatura máxima	14.1
70163	7	Sololá	704	Santa Lucía Utatlán 	7	Santa Rita 	1	Enero	2023-12-01T00:00:00	2024-11-08T05:00:00	3	Temperatura mínima	13.6
70164	7	Sololá	704	Santa Lucía Utatlán 	7	Santa Rita 	1	Enero	2023-12-01T00:00:00	2024-11-08T05:00:00	5	Humedad	84
70165	7	Sololá	704	Santa Lucía Utatlán 	7	Santa Rita 	1	Enero	2023-12-01T00:00:00	2024-11-08T05:00:00	6	Velocidad del viento	4.8
70166	7	Sololá	704	Santa Lucía Utatlán 	7	Santa Rita 	1	Enero	2023-12-01T00:00:00	2024-11-08T05:00:00	7	Dirección del viento	4.83
70167	7	Sololá	704	Santa Lucía Utatlán 	7	Santa Rita 	1	Enero	2023-12-01T00:00:00	2024-11-08T05:00:00	1	Precipitación	0
70168	7	Sololá	704	Santa Lucía Utatlán 	7	Santa Rita 	1	Enero	2023-12-01T00:00:00	2024-11-08T05:00:00	8	Radiación solar	0
70169	7	Sololá	704	Santa Lucía Utatlán 	7	Santa Rita 	1	Enero	2023-12-01T00:00:00	2024-11-08T06:00:00	2	Temperatura media	13.9
70170	7	Sololá	704	Santa Lucía Utatlán 	7	Santa Rita 	1	Enero	2023-12-01T00:00:00	2024-11-08T06:00:00	4	Temperatura máxima	14.2
70171	7	Sololá	704	Santa Lucía Utatlán 	7	Santa Rita 	1	Enero	2023-12-01T00:00:00	2024-11-08T06:00:00	3	Temperatura mínima	13.8
70172	7	Sololá	704	Santa Lucía Utatlán 	7	Santa Rita 	1	Enero	2023-12-01T00:00:00	2024-11-08T06:00:00	5	Humedad	83
70173	7	Sololá	704	Santa Lucía Utatlán 	7	Santa Rita 	1	Enero	2023-12-01T00:00:00	2024-11-08T06:00:00	6	Velocidad del viento	6.4
70174	7	Sololá	704	Santa Lucía Utatlán 	7	Santa Rita 	1	Enero	2023-12-01T00:00:00	2024-11-08T06:00:00	7	Dirección del viento	6.44
70175	7	Sololá	704	Santa Lucía Utatlán 	7	Santa Rita 	1	Enero	2023-12-01T00:00:00	2024-11-08T06:00:00	1	Precipitación	0
70176	7	Sololá	704	Santa Lucía Utatlán 	7	Santa Rita 	1	Enero	2023-12-01T00:00:00	2024-11-08T06:00:00	8	Radiación solar	0
70177	7	Sololá	704	Santa Lucía Utatlán 	7	Santa Rita 	1	Enero	2023-12-01T00:00:00	2024-11-08T07:00:00	2	Temperatura media	14.2
70178	7	Sololá	704	Santa Lucía Utatlán 	7	Santa Rita 	1	Enero	2023-12-01T00:00:00	2024-11-08T07:00:00	4	Temperatura máxima	14.2
70179	7	Sololá	704	Santa Lucía Utatlán 	7	Santa Rita 	1	Enero	2023-12-01T00:00:00	2024-11-08T07:00:00	3	Temperatura mínima	13.8
70180	7	Sololá	704	Santa Lucía Utatlán 	7	Santa Rita 	1	Enero	2023-12-01T00:00:00	2024-11-08T07:00:00	5	Humedad	85
70181	7	Sololá	704	Santa Lucía Utatlán 	7	Santa Rita 	1	Enero	2023-12-01T00:00:00	2024-11-08T07:00:00	6	Velocidad del viento	4.8
70182	7	Sololá	704	Santa Lucía Utatlán 	7	Santa Rita 	1	Enero	2023-12-01T00:00:00	2024-11-08T07:00:00	7	Dirección del viento	4.83
70183	7	Sololá	704	Santa Lucía Utatlán 	7	Santa Rita 	1	Enero	2023-12-01T00:00:00	2024-11-08T07:00:00	1	Precipitación	0
70184	7	Sololá	704	Santa Lucía Utatlán 	7	Santa Rita 	1	Enero	2023-12-01T00:00:00	2024-11-08T07:00:00	8	Radiación solar	5
70185	7	Sololá	704	Santa Lucía Utatlán 	7	Santa Rita 	1	Enero	2023-12-01T00:00:00	2024-11-08T08:00:00	2	Temperatura media	19.2
70186	7	Sololá	704	Santa Lucía Utatlán 	7	Santa Rita 	1	Enero	2023-12-01T00:00:00	2024-11-08T08:00:00	4	Temperatura máxima	19.2
70187	7	Sololá	704	Santa Lucía Utatlán 	7	Santa Rita 	1	Enero	2023-12-01T00:00:00	2024-11-08T08:00:00	3	Temperatura mínima	14.2
70188	7	Sololá	704	Santa Lucía Utatlán 	7	Santa Rita 	1	Enero	2023-12-01T00:00:00	2024-11-08T08:00:00	5	Humedad	72
70189	7	Sololá	704	Santa Lucía Utatlán 	7	Santa Rita 	1	Enero	2023-12-01T00:00:00	2024-11-08T08:00:00	6	Velocidad del viento	0
70190	7	Sololá	704	Santa Lucía Utatlán 	7	Santa Rita 	1	Enero	2023-12-01T00:00:00	2024-11-08T08:00:00	7	Dirección del viento	0
70191	7	Sololá	704	Santa Lucía Utatlán 	7	Santa Rita 	1	Enero	2023-12-01T00:00:00	2024-11-08T08:00:00	1	Precipitación	0
70192	7	Sololá	704	Santa Lucía Utatlán 	7	Santa Rita 	1	Enero	2023-12-01T00:00:00	2024-11-08T08:00:00	8	Radiación solar	123
70193	7	Sololá	704	Santa Lucía Utatlán 	7	Santa Rita 	1	Enero	2023-12-01T00:00:00	2024-11-08T09:00:00	2	Temperatura media	20.7
70194	7	Sololá	704	Santa Lucía Utatlán 	7	Santa Rita 	1	Enero	2023-12-01T00:00:00	2024-11-08T09:00:00	4	Temperatura máxima	20.7
70195	7	Sololá	704	Santa Lucía Utatlán 	7	Santa Rita 	1	Enero	2023-12-01T00:00:00	2024-11-08T09:00:00	3	Temperatura mínima	19.2
70196	7	Sololá	704	Santa Lucía Utatlán 	7	Santa Rita 	1	Enero	2023-12-01T00:00:00	2024-11-08T09:00:00	5	Humedad	65
70197	7	Sololá	704	Santa Lucía Utatlán 	7	Santa Rita 	1	Enero	2023-12-01T00:00:00	2024-11-08T09:00:00	6	Velocidad del viento	4.8
70198	7	Sololá	704	Santa Lucía Utatlán 	7	Santa Rita 	1	Enero	2023-12-01T00:00:00	2024-11-08T09:00:00	7	Dirección del viento	4.83
70199	7	Sololá	704	Santa Lucía Utatlán 	7	Santa Rita 	1	Enero	2023-12-01T00:00:00	2024-11-08T09:00:00	1	Precipitación	0
70200	7	Sololá	704	Santa Lucía Utatlán 	7	Santa Rita 	1	Enero	2023-12-01T00:00:00	2024-11-08T09:00:00	8	Radiación solar	356
70201	7	Sololá	704	Santa Lucía Utatlán 	7	Santa Rita 	1	Enero	2023-12-01T00:00:00	2024-11-08T10:00:00	2	Temperatura media	22.2
70202	7	Sololá	704	Santa Lucía Utatlán 	7	Santa Rita 	1	Enero	2023-12-01T00:00:00	2024-11-08T10:00:00	4	Temperatura máxima	22.2
70203	7	Sololá	704	Santa Lucía Utatlán 	7	Santa Rita 	1	Enero	2023-12-01T00:00:00	2024-11-08T10:00:00	3	Temperatura mínima	20.7
70204	7	Sololá	704	Santa Lucía Utatlán 	7	Santa Rita 	1	Enero	2023-12-01T00:00:00	2024-11-08T10:00:00	5	Humedad	53
70205	7	Sololá	704	Santa Lucía Utatlán 	7	Santa Rita 	1	Enero	2023-12-01T00:00:00	2024-11-08T10:00:00	6	Velocidad del viento	4.8
70206	7	Sololá	704	Santa Lucía Utatlán 	7	Santa Rita 	1	Enero	2023-12-01T00:00:00	2024-11-08T10:00:00	7	Dirección del viento	4.83
70207	7	Sololá	704	Santa Lucía Utatlán 	7	Santa Rita 	1	Enero	2023-12-01T00:00:00	2024-11-08T10:00:00	1	Precipitación	0
70208	7	Sololá	704	Santa Lucía Utatlán 	7	Santa Rita 	1	Enero	2023-12-01T00:00:00	2024-11-08T10:00:00	8	Radiación solar	546
70209	7	Sololá	704	Santa Lucía Utatlán 	7	Santa Rita 	1	Enero	2023-12-01T00:00:00	2024-11-08T11:00:00	2	Temperatura media	23.5
70210	7	Sololá	704	Santa Lucía Utatlán 	7	Santa Rita 	1	Enero	2023-12-01T00:00:00	2024-11-08T11:00:00	4	Temperatura máxima	23.6
70211	7	Sololá	704	Santa Lucía Utatlán 	7	Santa Rita 	1	Enero	2023-12-01T00:00:00	2024-11-08T11:00:00	3	Temperatura mínima	22.1
70212	7	Sololá	704	Santa Lucía Utatlán 	7	Santa Rita 	1	Enero	2023-12-01T00:00:00	2024-11-08T11:00:00	5	Humedad	51
70213	7	Sololá	704	Santa Lucía Utatlán 	7	Santa Rita 	1	Enero	2023-12-01T00:00:00	2024-11-08T11:00:00	6	Velocidad del viento	9.7
70214	7	Sololá	704	Santa Lucía Utatlán 	7	Santa Rita 	1	Enero	2023-12-01T00:00:00	2024-11-08T11:00:00	7	Dirección del viento	9.66
70215	7	Sololá	704	Santa Lucía Utatlán 	7	Santa Rita 	1	Enero	2023-12-01T00:00:00	2024-11-08T11:00:00	1	Precipitación	0
70216	7	Sololá	704	Santa Lucía Utatlán 	7	Santa Rita 	1	Enero	2023-12-01T00:00:00	2024-11-08T11:00:00	8	Radiación solar	692
70217	7	Sololá	704	Santa Lucía Utatlán 	7	Santa Rita 	1	Enero	2023-12-01T00:00:00	2024-11-08T12:00:00	2	Temperatura media	24.6
70218	7	Sololá	704	Santa Lucía Utatlán 	7	Santa Rita 	1	Enero	2023-12-01T00:00:00	2024-11-08T12:00:00	4	Temperatura máxima	24.6
70219	7	Sololá	704	Santa Lucía Utatlán 	7	Santa Rita 	1	Enero	2023-12-01T00:00:00	2024-11-08T12:00:00	3	Temperatura mínima	23.6
70220	7	Sololá	704	Santa Lucía Utatlán 	7	Santa Rita 	1	Enero	2023-12-01T00:00:00	2024-11-08T12:00:00	5	Humedad	54
70221	7	Sololá	704	Santa Lucía Utatlán 	7	Santa Rita 	1	Enero	2023-12-01T00:00:00	2024-11-08T12:00:00	6	Velocidad del viento	9.7
70222	7	Sololá	704	Santa Lucía Utatlán 	7	Santa Rita 	1	Enero	2023-12-01T00:00:00	2024-11-08T12:00:00	7	Dirección del viento	9.66
70223	7	Sololá	704	Santa Lucía Utatlán 	7	Santa Rita 	1	Enero	2023-12-01T00:00:00	2024-11-08T12:00:00	1	Precipitación	0
70224	7	Sololá	704	Santa Lucía Utatlán 	7	Santa Rita 	1	Enero	2023-12-01T00:00:00	2024-11-08T12:00:00	8	Radiación solar	789
70225	7	Sololá	704	Santa Lucía Utatlán 	7	Santa Rita 	1	Enero	2023-12-01T00:00:00	2024-11-08T13:00:00	2	Temperatura media	24.3
70226	7	Sololá	704	Santa Lucía Utatlán 	7	Santa Rita 	1	Enero	2023-12-01T00:00:00	2024-11-08T13:00:00	4	Temperatura máxima	24.7
70227	7	Sololá	704	Santa Lucía Utatlán 	7	Santa Rita 	1	Enero	2023-12-01T00:00:00	2024-11-08T13:00:00	3	Temperatura mínima	24
70228	7	Sololá	704	Santa Lucía Utatlán 	7	Santa Rita 	1	Enero	2023-12-01T00:00:00	2024-11-08T13:00:00	5	Humedad	53
70229	7	Sololá	704	Santa Lucía Utatlán 	7	Santa Rita 	1	Enero	2023-12-01T00:00:00	2024-11-08T13:00:00	6	Velocidad del viento	9.7
70230	7	Sololá	704	Santa Lucía Utatlán 	7	Santa Rita 	1	Enero	2023-12-01T00:00:00	2024-11-08T13:00:00	7	Dirección del viento	9.66
70231	7	Sololá	704	Santa Lucía Utatlán 	7	Santa Rita 	1	Enero	2023-12-01T00:00:00	2024-11-08T13:00:00	1	Precipitación	0
70232	7	Sololá	704	Santa Lucía Utatlán 	7	Santa Rita 	1	Enero	2023-12-01T00:00:00	2024-11-08T13:00:00	8	Radiación solar	829
70233	7	Sololá	704	Santa Lucía Utatlán 	7	Santa Rita 	1	Enero	2023-12-01T00:00:00	2024-11-08T14:00:00	2	Temperatura media	22.9
70234	7	Sololá	704	Santa Lucía Utatlán 	7	Santa Rita 	1	Enero	2023-12-01T00:00:00	2024-11-08T14:00:00	4	Temperatura máxima	24.6
70235	7	Sololá	704	Santa Lucía Utatlán 	7	Santa Rita 	1	Enero	2023-12-01T00:00:00	2024-11-08T14:00:00	3	Temperatura mínima	22.7
70236	7	Sololá	704	Santa Lucía Utatlán 	7	Santa Rita 	1	Enero	2023-12-01T00:00:00	2024-11-08T14:00:00	5	Humedad	69
70237	7	Sololá	704	Santa Lucía Utatlán 	7	Santa Rita 	1	Enero	2023-12-01T00:00:00	2024-11-08T14:00:00	6	Velocidad del viento	9.7
70238	7	Sololá	704	Santa Lucía Utatlán 	7	Santa Rita 	1	Enero	2023-12-01T00:00:00	2024-11-08T14:00:00	7	Dirección del viento	9.66
70239	7	Sololá	704	Santa Lucía Utatlán 	7	Santa Rita 	1	Enero	2023-12-01T00:00:00	2024-11-08T14:00:00	1	Precipitación	0
70240	7	Sololá	704	Santa Lucía Utatlán 	7	Santa Rita 	1	Enero	2023-12-01T00:00:00	2024-11-08T14:00:00	8	Radiación solar	530
70241	7	Sololá	704	Santa Lucía Utatlán 	7	Santa Rita 	1	Enero	2023-12-01T00:00:00	2024-11-08T15:00:00	2	Temperatura media	21.9
70242	7	Sololá	704	Santa Lucía Utatlán 	7	Santa Rita 	1	Enero	2023-12-01T00:00:00	2024-11-08T15:00:00	4	Temperatura máxima	23.4
70243	7	Sololá	704	Santa Lucía Utatlán 	7	Santa Rita 	1	Enero	2023-12-01T00:00:00	2024-11-08T15:00:00	3	Temperatura mínima	21.9
70244	7	Sololá	704	Santa Lucía Utatlán 	7	Santa Rita 	1	Enero	2023-12-01T00:00:00	2024-11-08T15:00:00	5	Humedad	74
70245	7	Sololá	704	Santa Lucía Utatlán 	7	Santa Rita 	1	Enero	2023-12-01T00:00:00	2024-11-08T15:00:00	6	Velocidad del viento	8
70246	7	Sololá	704	Santa Lucía Utatlán 	7	Santa Rita 	1	Enero	2023-12-01T00:00:00	2024-11-08T15:00:00	7	Dirección del viento	8.05
70247	7	Sololá	704	Santa Lucía Utatlán 	7	Santa Rita 	1	Enero	2023-12-01T00:00:00	2024-11-08T15:00:00	1	Precipitación	0
70248	7	Sololá	704	Santa Lucía Utatlán 	7	Santa Rita 	1	Enero	2023-12-01T00:00:00	2024-11-08T15:00:00	8	Radiación solar	279
70249	7	Sololá	704	Santa Lucía Utatlán 	7	Santa Rita 	1	Enero	2023-12-01T00:00:00	2024-11-08T16:00:00	2	Temperatura media	21.5
70250	7	Sololá	704	Santa Lucía Utatlán 	7	Santa Rita 	1	Enero	2023-12-01T00:00:00	2024-11-08T16:00:00	4	Temperatura máxima	21.9
70251	7	Sololá	704	Santa Lucía Utatlán 	7	Santa Rita 	1	Enero	2023-12-01T00:00:00	2024-11-08T16:00:00	3	Temperatura mínima	20.9
70252	7	Sololá	704	Santa Lucía Utatlán 	7	Santa Rita 	1	Enero	2023-12-01T00:00:00	2024-11-08T16:00:00	5	Humedad	77
70253	7	Sololá	704	Santa Lucía Utatlán 	7	Santa Rita 	1	Enero	2023-12-01T00:00:00	2024-11-08T16:00:00	6	Velocidad del viento	4.8
70254	7	Sololá	704	Santa Lucía Utatlán 	7	Santa Rita 	1	Enero	2023-12-01T00:00:00	2024-11-08T16:00:00	7	Dirección del viento	4.83
70255	7	Sololá	704	Santa Lucía Utatlán 	7	Santa Rita 	1	Enero	2023-12-01T00:00:00	2024-11-08T16:00:00	1	Precipitación	0
70256	7	Sololá	704	Santa Lucía Utatlán 	7	Santa Rita 	1	Enero	2023-12-01T00:00:00	2024-11-08T16:00:00	8	Radiación solar	203
70257	7	Sololá	704	Santa Lucía Utatlán 	7	Santa Rita 	1	Enero	2023-12-01T00:00:00	2024-11-08T17:00:00	2	Temperatura media	20
70258	7	Sololá	704	Santa Lucía Utatlán 	7	Santa Rita 	1	Enero	2023-12-01T00:00:00	2024-11-08T17:00:00	4	Temperatura máxima	21.5
70259	7	Sololá	704	Santa Lucía Utatlán 	7	Santa Rita 	1	Enero	2023-12-01T00:00:00	2024-11-08T17:00:00	3	Temperatura mínima	20
70260	7	Sololá	704	Santa Lucía Utatlán 	7	Santa Rita 	1	Enero	2023-12-01T00:00:00	2024-11-08T17:00:00	5	Humedad	86
70261	7	Sololá	704	Santa Lucía Utatlán 	7	Santa Rita 	1	Enero	2023-12-01T00:00:00	2024-11-08T17:00:00	6	Velocidad del viento	4.8
70262	7	Sololá	704	Santa Lucía Utatlán 	7	Santa Rita 	1	Enero	2023-12-01T00:00:00	2024-11-08T17:00:00	7	Dirección del viento	4.83
70263	7	Sololá	704	Santa Lucía Utatlán 	7	Santa Rita 	1	Enero	2023-12-01T00:00:00	2024-11-08T17:00:00	1	Precipitación	0
70264	7	Sololá	704	Santa Lucía Utatlán 	7	Santa Rita 	1	Enero	2023-12-01T00:00:00	2024-11-08T17:00:00	8	Radiación solar	51
70265	7	Sololá	704	Santa Lucía Utatlán 	7	Santa Rita 	1	Enero	2023-12-01T00:00:00	2024-11-08T18:00:00	2	Temperatura media	19
70266	7	Sololá	704	Santa Lucía Utatlán 	7	Santa Rita 	1	Enero	2023-12-01T00:00:00	2024-11-08T18:00:00	4	Temperatura máxima	20
70267	7	Sololá	704	Santa Lucía Utatlán 	7	Santa Rita 	1	Enero	2023-12-01T00:00:00	2024-11-08T18:00:00	3	Temperatura mínima	18.9
70268	7	Sololá	704	Santa Lucía Utatlán 	7	Santa Rita 	1	Enero	2023-12-01T00:00:00	2024-11-08T18:00:00	5	Humedad	89
70269	7	Sololá	704	Santa Lucía Utatlán 	7	Santa Rita 	1	Enero	2023-12-01T00:00:00	2024-11-08T18:00:00	6	Velocidad del viento	1.6
70270	7	Sololá	704	Santa Lucía Utatlán 	7	Santa Rita 	1	Enero	2023-12-01T00:00:00	2024-11-08T18:00:00	7	Dirección del viento	1.61
70271	7	Sololá	704	Santa Lucía Utatlán 	7	Santa Rita 	1	Enero	2023-12-01T00:00:00	2024-11-08T18:00:00	1	Precipitación	0
70272	7	Sololá	704	Santa Lucía Utatlán 	7	Santa Rita 	1	Enero	2023-12-01T00:00:00	2024-11-08T18:00:00	8	Radiación solar	21
70273	7	Sololá	704	Santa Lucía Utatlán 	7	Santa Rita 	1	Enero	2023-12-01T00:00:00	2024-11-08T19:00:00	2	Temperatura media	17.2
70274	7	Sololá	704	Santa Lucía Utatlán 	7	Santa Rita 	1	Enero	2023-12-01T00:00:00	2024-11-08T19:00:00	4	Temperatura máxima	19
70275	7	Sololá	704	Santa Lucía Utatlán 	7	Santa Rita 	1	Enero	2023-12-01T00:00:00	2024-11-08T19:00:00	3	Temperatura mínima	17.2
70276	7	Sololá	704	Santa Lucía Utatlán 	7	Santa Rita 	1	Enero	2023-12-01T00:00:00	2024-11-08T19:00:00	5	Humedad	88
70277	7	Sololá	704	Santa Lucía Utatlán 	7	Santa Rita 	1	Enero	2023-12-01T00:00:00	2024-11-08T19:00:00	6	Velocidad del viento	3.2
70278	7	Sololá	704	Santa Lucía Utatlán 	7	Santa Rita 	1	Enero	2023-12-01T00:00:00	2024-11-08T19:00:00	7	Dirección del viento	3.22
70279	7	Sololá	704	Santa Lucía Utatlán 	7	Santa Rita 	1	Enero	2023-12-01T00:00:00	2024-11-08T19:00:00	1	Precipitación	0
70280	7	Sololá	704	Santa Lucía Utatlán 	7	Santa Rita 	1	Enero	2023-12-01T00:00:00	2024-11-08T19:00:00	8	Radiación solar	0
70281	7	Sololá	704	Santa Lucía Utatlán 	7	Santa Rita 	1	Enero	2023-12-01T00:00:00	2024-11-08T20:00:00	2	Temperatura media	16.8
70282	7	Sololá	704	Santa Lucía Utatlán 	7	Santa Rita 	1	Enero	2023-12-01T00:00:00	2024-11-08T20:00:00	4	Temperatura máxima	17.2
70283	7	Sololá	704	Santa Lucía Utatlán 	7	Santa Rita 	1	Enero	2023-12-01T00:00:00	2024-11-08T20:00:00	3	Temperatura mínima	16.8
70284	7	Sololá	704	Santa Lucía Utatlán 	7	Santa Rita 	1	Enero	2023-12-01T00:00:00	2024-11-08T20:00:00	5	Humedad	87
70285	7	Sololá	704	Santa Lucía Utatlán 	7	Santa Rita 	1	Enero	2023-12-01T00:00:00	2024-11-08T20:00:00	6	Velocidad del viento	1.6
70286	7	Sololá	704	Santa Lucía Utatlán 	7	Santa Rita 	1	Enero	2023-12-01T00:00:00	2024-11-08T20:00:00	7	Dirección del viento	1.61
70287	7	Sololá	704	Santa Lucía Utatlán 	7	Santa Rita 	1	Enero	2023-12-01T00:00:00	2024-11-08T20:00:00	1	Precipitación	0
70288	7	Sololá	704	Santa Lucía Utatlán 	7	Santa Rita 	1	Enero	2023-12-01T00:00:00	2024-11-08T20:00:00	8	Radiación solar	0
70289	7	Sololá	704	Santa Lucía Utatlán 	7	Santa Rita 	1	Enero	2023-12-01T00:00:00	2024-11-08T21:00:00	2	Temperatura media	16.6
70290	7	Sololá	704	Santa Lucía Utatlán 	7	Santa Rita 	1	Enero	2023-12-01T00:00:00	2024-11-08T21:00:00	4	Temperatura máxima	16.9
70291	7	Sololá	704	Santa Lucía Utatlán 	7	Santa Rita 	1	Enero	2023-12-01T00:00:00	2024-11-08T21:00:00	3	Temperatura mínima	16.4
70292	7	Sololá	704	Santa Lucía Utatlán 	7	Santa Rita 	1	Enero	2023-12-01T00:00:00	2024-11-08T21:00:00	5	Humedad	88
70293	7	Sololá	704	Santa Lucía Utatlán 	7	Santa Rita 	1	Enero	2023-12-01T00:00:00	2024-11-08T21:00:00	6	Velocidad del viento	1.6
70294	7	Sololá	704	Santa Lucía Utatlán 	7	Santa Rita 	1	Enero	2023-12-01T00:00:00	2024-11-08T21:00:00	7	Dirección del viento	1.61
70295	7	Sololá	704	Santa Lucía Utatlán 	7	Santa Rita 	1	Enero	2023-12-01T00:00:00	2024-11-08T21:00:00	1	Precipitación	0
70296	7	Sololá	704	Santa Lucía Utatlán 	7	Santa Rita 	1	Enero	2023-12-01T00:00:00	2024-11-08T21:00:00	8	Radiación solar	0
70297	7	Sololá	704	Santa Lucía Utatlán 	7	Santa Rita 	1	Enero	2023-12-01T00:00:00	2024-11-08T22:00:00	2	Temperatura media	16.1
70298	7	Sololá	704	Santa Lucía Utatlán 	7	Santa Rita 	1	Enero	2023-12-01T00:00:00	2024-11-08T22:00:00	4	Temperatura máxima	16.7
70299	7	Sololá	704	Santa Lucía Utatlán 	7	Santa Rita 	1	Enero	2023-12-01T00:00:00	2024-11-08T22:00:00	3	Temperatura mínima	16.1
70300	7	Sololá	704	Santa Lucía Utatlán 	7	Santa Rita 	1	Enero	2023-12-01T00:00:00	2024-11-08T22:00:00	5	Humedad	89
70301	7	Sololá	704	Santa Lucía Utatlán 	7	Santa Rita 	1	Enero	2023-12-01T00:00:00	2024-11-08T22:00:00	6	Velocidad del viento	3.2
70302	7	Sololá	704	Santa Lucía Utatlán 	7	Santa Rita 	1	Enero	2023-12-01T00:00:00	2024-11-08T22:00:00	7	Dirección del viento	3.22
70303	7	Sololá	704	Santa Lucía Utatlán 	7	Santa Rita 	1	Enero	2023-12-01T00:00:00	2024-11-08T22:00:00	1	Precipitación	0
70304	7	Sololá	704	Santa Lucía Utatlán 	7	Santa Rita 	1	Enero	2023-12-01T00:00:00	2024-11-08T22:00:00	8	Radiación solar	0
70305	7	Sololá	704	Santa Lucía Utatlán 	7	Santa Rita 	1	Enero	2023-12-01T00:00:00	2024-11-08T23:00:00	2	Temperatura media	16
70306	7	Sololá	704	Santa Lucía Utatlán 	7	Santa Rita 	1	Enero	2023-12-01T00:00:00	2024-11-08T23:00:00	4	Temperatura máxima	16.2
70307	7	Sololá	704	Santa Lucía Utatlán 	7	Santa Rita 	1	Enero	2023-12-01T00:00:00	2024-11-08T23:00:00	3	Temperatura mínima	16
70308	7	Sololá	704	Santa Lucía Utatlán 	7	Santa Rita 	1	Enero	2023-12-01T00:00:00	2024-11-08T23:00:00	5	Humedad	89
70309	7	Sololá	704	Santa Lucía Utatlán 	7	Santa Rita 	1	Enero	2023-12-01T00:00:00	2024-11-08T23:00:00	6	Velocidad del viento	1.6
70310	7	Sololá	704	Santa Lucía Utatlán 	7	Santa Rita 	1	Enero	2023-12-01T00:00:00	2024-11-08T23:00:00	7	Dirección del viento	1.61
70311	7	Sololá	704	Santa Lucía Utatlán 	7	Santa Rita 	1	Enero	2023-12-01T00:00:00	2024-11-08T23:00:00	1	Precipitación	0
70312	7	Sololá	704	Santa Lucía Utatlán 	7	Santa Rita 	1	Enero	2023-12-01T00:00:00	2024-11-08T23:00:00	8	Radiación solar	0
70313	7	Sololá	704	Santa Lucía Utatlán 	7	Santa Rita 	1	Enero	2023-01-13T00:00:00	2024-11-08T00:00:00	2	Temperatura media	16.3
70314	7	Sololá	704	Santa Lucía Utatlán 	7	Santa Rita 	1	Enero	2023-01-13T00:00:00	2024-11-08T00:00:00	4	Temperatura máxima	16.3
70315	7	Sololá	704	Santa Lucía Utatlán 	7	Santa Rita 	1	Enero	2023-01-13T00:00:00	2024-11-08T00:00:00	3	Temperatura mínima	15.4
70316	7	Sololá	704	Santa Lucía Utatlán 	7	Santa Rita 	1	Enero	2023-01-13T00:00:00	2024-11-08T00:00:00	5	Humedad	84
70317	7	Sololá	704	Santa Lucía Utatlán 	7	Santa Rita 	1	Enero	2023-01-13T00:00:00	2024-11-08T00:00:00	6	Velocidad del viento	1.6
70318	7	Sololá	704	Santa Lucía Utatlán 	7	Santa Rita 	1	Enero	2023-01-13T00:00:00	2024-11-08T00:00:00	7	Dirección del viento	1.61
70319	7	Sololá	704	Santa Lucía Utatlán 	7	Santa Rita 	1	Enero	2023-01-13T00:00:00	2024-11-08T00:00:00	1	Precipitación	0
70320	7	Sololá	704	Santa Lucía Utatlán 	7	Santa Rita 	1	Enero	2023-01-13T00:00:00	2024-11-08T00:00:00	8	Radiación solar	0
70321	7	Sololá	704	Santa Lucía Utatlán 	7	Santa Rita 	1	Enero	2023-01-13T00:00:00	2024-11-08T01:00:00	2	Temperatura media	17.8
70322	7	Sololá	704	Santa Lucía Utatlán 	7	Santa Rita 	1	Enero	2023-01-13T00:00:00	2024-11-08T01:00:00	4	Temperatura máxima	17.9
70323	7	Sololá	704	Santa Lucía Utatlán 	7	Santa Rita 	1	Enero	2023-01-13T00:00:00	2024-11-08T01:00:00	3	Temperatura mínima	16.1
70324	7	Sololá	704	Santa Lucía Utatlán 	7	Santa Rita 	1	Enero	2023-01-13T00:00:00	2024-11-08T01:00:00	5	Humedad	75
70325	7	Sololá	704	Santa Lucía Utatlán 	7	Santa Rita 	1	Enero	2023-01-13T00:00:00	2024-11-08T01:00:00	6	Velocidad del viento	4.8
70326	7	Sololá	704	Santa Lucía Utatlán 	7	Santa Rita 	1	Enero	2023-01-13T00:00:00	2024-11-08T01:00:00	7	Dirección del viento	4.83
70327	7	Sololá	704	Santa Lucía Utatlán 	7	Santa Rita 	1	Enero	2023-01-13T00:00:00	2024-11-08T01:00:00	1	Precipitación	0
70328	7	Sololá	704	Santa Lucía Utatlán 	7	Santa Rita 	1	Enero	2023-01-13T00:00:00	2024-11-08T01:00:00	8	Radiación solar	0
70329	7	Sololá	704	Santa Lucía Utatlán 	7	Santa Rita 	1	Enero	2023-01-13T00:00:00	2024-11-08T02:00:00	2	Temperatura media	18.1
70330	7	Sololá	704	Santa Lucía Utatlán 	7	Santa Rita 	1	Enero	2023-01-13T00:00:00	2024-11-08T02:00:00	4	Temperatura máxima	18.3
70331	7	Sololá	704	Santa Lucía Utatlán 	7	Santa Rita 	1	Enero	2023-01-13T00:00:00	2024-11-08T02:00:00	3	Temperatura mínima	17.7
70332	7	Sololá	704	Santa Lucía Utatlán 	7	Santa Rita 	1	Enero	2023-01-13T00:00:00	2024-11-08T02:00:00	5	Humedad	65
70333	7	Sololá	704	Santa Lucía Utatlán 	7	Santa Rita 	1	Enero	2023-01-13T00:00:00	2024-11-08T02:00:00	6	Velocidad del viento	8
70334	7	Sololá	704	Santa Lucía Utatlán 	7	Santa Rita 	1	Enero	2023-01-13T00:00:00	2024-11-08T02:00:00	7	Dirección del viento	8.05
70335	7	Sololá	704	Santa Lucía Utatlán 	7	Santa Rita 	1	Enero	2023-01-13T00:00:00	2024-11-08T02:00:00	1	Precipitación	0
70336	7	Sololá	704	Santa Lucía Utatlán 	7	Santa Rita 	1	Enero	2023-01-13T00:00:00	2024-11-08T02:00:00	8	Radiación solar	0
70337	7	Sololá	704	Santa Lucía Utatlán 	7	Santa Rita 	1	Enero	2023-01-13T00:00:00	2024-11-08T03:00:00	2	Temperatura media	17.4
70338	7	Sololá	704	Santa Lucía Utatlán 	7	Santa Rita 	1	Enero	2023-01-13T00:00:00	2024-11-08T03:00:00	4	Temperatura máxima	18.1
70339	7	Sololá	704	Santa Lucía Utatlán 	7	Santa Rita 	1	Enero	2023-01-13T00:00:00	2024-11-08T03:00:00	3	Temperatura mínima	17.2
70340	7	Sololá	704	Santa Lucía Utatlán 	7	Santa Rita 	1	Enero	2023-01-13T00:00:00	2024-11-08T03:00:00	5	Humedad	65
70341	7	Sololá	704	Santa Lucía Utatlán 	7	Santa Rita 	1	Enero	2023-01-13T00:00:00	2024-11-08T03:00:00	6	Velocidad del viento	3.2
70342	7	Sololá	704	Santa Lucía Utatlán 	7	Santa Rita 	1	Enero	2023-01-13T00:00:00	2024-11-08T03:00:00	7	Dirección del viento	3.22
70343	7	Sololá	704	Santa Lucía Utatlán 	7	Santa Rita 	1	Enero	2023-01-13T00:00:00	2024-11-08T03:00:00	1	Precipitación	0
70344	7	Sololá	704	Santa Lucía Utatlán 	7	Santa Rita 	1	Enero	2023-01-13T00:00:00	2024-11-08T03:00:00	8	Radiación solar	0
70345	7	Sololá	704	Santa Lucía Utatlán 	7	Santa Rita 	1	Enero	2023-01-13T00:00:00	2024-11-08T04:00:00	2	Temperatura media	17.5
70346	7	Sololá	704	Santa Lucía Utatlán 	7	Santa Rita 	1	Enero	2023-01-13T00:00:00	2024-11-08T04:00:00	4	Temperatura máxima	17.8
70347	7	Sololá	704	Santa Lucía Utatlán 	7	Santa Rita 	1	Enero	2023-01-13T00:00:00	2024-11-08T04:00:00	3	Temperatura mínima	17.3
70348	7	Sololá	704	Santa Lucía Utatlán 	7	Santa Rita 	1	Enero	2023-01-13T00:00:00	2024-11-08T04:00:00	5	Humedad	66
70349	7	Sololá	704	Santa Lucía Utatlán 	7	Santa Rita 	1	Enero	2023-01-13T00:00:00	2024-11-08T04:00:00	6	Velocidad del viento	8
70350	7	Sololá	704	Santa Lucía Utatlán 	7	Santa Rita 	1	Enero	2023-01-13T00:00:00	2024-11-08T04:00:00	7	Dirección del viento	8.05
70351	7	Sololá	704	Santa Lucía Utatlán 	7	Santa Rita 	1	Enero	2023-01-13T00:00:00	2024-11-08T04:00:00	1	Precipitación	0
70352	7	Sololá	704	Santa Lucía Utatlán 	7	Santa Rita 	1	Enero	2023-01-13T00:00:00	2024-11-08T04:00:00	8	Radiación solar	0
70353	7	Sololá	704	Santa Lucía Utatlán 	7	Santa Rita 	1	Enero	2023-01-13T00:00:00	2024-11-08T05:00:00	2	Temperatura media	16.9
70354	7	Sololá	704	Santa Lucía Utatlán 	7	Santa Rita 	1	Enero	2023-01-13T00:00:00	2024-11-08T05:00:00	4	Temperatura máxima	17.5
70355	7	Sololá	704	Santa Lucía Utatlán 	7	Santa Rita 	1	Enero	2023-01-13T00:00:00	2024-11-08T05:00:00	3	Temperatura mínima	16.7
70356	7	Sololá	704	Santa Lucía Utatlán 	7	Santa Rita 	1	Enero	2023-01-13T00:00:00	2024-11-08T05:00:00	5	Humedad	69
70357	7	Sololá	704	Santa Lucía Utatlán 	7	Santa Rita 	1	Enero	2023-01-13T00:00:00	2024-11-08T05:00:00	6	Velocidad del viento	8
70358	7	Sololá	704	Santa Lucía Utatlán 	7	Santa Rita 	1	Enero	2023-01-13T00:00:00	2024-11-08T05:00:00	7	Dirección del viento	8.05
70359	7	Sololá	704	Santa Lucía Utatlán 	7	Santa Rita 	1	Enero	2023-01-13T00:00:00	2024-11-08T05:00:00	1	Precipitación	0
70360	7	Sololá	704	Santa Lucía Utatlán 	7	Santa Rita 	1	Enero	2023-01-13T00:00:00	2024-11-08T05:00:00	8	Radiación solar	0
70361	7	Sololá	704	Santa Lucía Utatlán 	7	Santa Rita 	1	Enero	2023-01-13T00:00:00	2024-11-08T06:00:00	2	Temperatura media	16.6
70362	7	Sololá	704	Santa Lucía Utatlán 	7	Santa Rita 	1	Enero	2023-01-13T00:00:00	2024-11-08T06:00:00	4	Temperatura máxima	17.6
70363	7	Sololá	704	Santa Lucía Utatlán 	7	Santa Rita 	1	Enero	2023-01-13T00:00:00	2024-11-08T06:00:00	3	Temperatura mínima	16.6
70364	7	Sololá	704	Santa Lucía Utatlán 	7	Santa Rita 	1	Enero	2023-01-13T00:00:00	2024-11-08T06:00:00	5	Humedad	71
70365	7	Sololá	704	Santa Lucía Utatlán 	7	Santa Rita 	1	Enero	2023-01-13T00:00:00	2024-11-08T06:00:00	6	Velocidad del viento	6.4
70366	7	Sololá	704	Santa Lucía Utatlán 	7	Santa Rita 	1	Enero	2023-01-13T00:00:00	2024-11-08T06:00:00	7	Dirección del viento	6.44
70367	7	Sololá	704	Santa Lucía Utatlán 	7	Santa Rita 	1	Enero	2023-01-13T00:00:00	2024-11-08T06:00:00	1	Precipitación	0
70368	7	Sololá	704	Santa Lucía Utatlán 	7	Santa Rita 	1	Enero	2023-01-13T00:00:00	2024-11-08T06:00:00	8	Radiación solar	0
70369	7	Sololá	704	Santa Lucía Utatlán 	7	Santa Rita 	1	Enero	2023-01-13T00:00:00	2024-11-08T07:00:00	2	Temperatura media	17.1
70370	7	Sololá	704	Santa Lucía Utatlán 	7	Santa Rita 	1	Enero	2023-01-13T00:00:00	2024-11-08T07:00:00	4	Temperatura máxima	17.1
70371	7	Sololá	704	Santa Lucía Utatlán 	7	Santa Rita 	1	Enero	2023-01-13T00:00:00	2024-11-08T07:00:00	3	Temperatura mínima	16.4
70372	7	Sololá	704	Santa Lucía Utatlán 	7	Santa Rita 	1	Enero	2023-01-13T00:00:00	2024-11-08T07:00:00	5	Humedad	71
70373	7	Sololá	704	Santa Lucía Utatlán 	7	Santa Rita 	1	Enero	2023-01-13T00:00:00	2024-11-08T07:00:00	6	Velocidad del viento	8
70374	7	Sololá	704	Santa Lucía Utatlán 	7	Santa Rita 	1	Enero	2023-01-13T00:00:00	2024-11-08T07:00:00	7	Dirección del viento	8.05
70375	7	Sololá	704	Santa Lucía Utatlán 	7	Santa Rita 	1	Enero	2023-01-13T00:00:00	2024-11-08T07:00:00	1	Precipitación	0
70376	7	Sololá	704	Santa Lucía Utatlán 	7	Santa Rita 	1	Enero	2023-01-13T00:00:00	2024-11-08T07:00:00	8	Radiación solar	5
70377	7	Sololá	704	Santa Lucía Utatlán 	7	Santa Rita 	1	Enero	2023-01-13T00:00:00	2024-11-08T08:00:00	2	Temperatura media	18.2
70378	7	Sololá	704	Santa Lucía Utatlán 	7	Santa Rita 	1	Enero	2023-01-13T00:00:00	2024-11-08T08:00:00	4	Temperatura máxima	18.4
70379	7	Sololá	704	Santa Lucía Utatlán 	7	Santa Rita 	1	Enero	2023-01-13T00:00:00	2024-11-08T08:00:00	3	Temperatura mínima	17.1
70380	7	Sololá	704	Santa Lucía Utatlán 	7	Santa Rita 	1	Enero	2023-01-13T00:00:00	2024-11-08T08:00:00	5	Humedad	71
70381	7	Sololá	704	Santa Lucía Utatlán 	7	Santa Rita 	1	Enero	2023-01-13T00:00:00	2024-11-08T08:00:00	6	Velocidad del viento	12.9
70382	7	Sololá	704	Santa Lucía Utatlán 	7	Santa Rita 	1	Enero	2023-01-13T00:00:00	2024-11-08T08:00:00	7	Dirección del viento	12.87
70383	7	Sololá	704	Santa Lucía Utatlán 	7	Santa Rita 	1	Enero	2023-01-13T00:00:00	2024-11-08T08:00:00	1	Precipitación	0
70384	7	Sololá	704	Santa Lucía Utatlán 	7	Santa Rita 	1	Enero	2023-01-13T00:00:00	2024-11-08T08:00:00	8	Radiación solar	126
70385	7	Sololá	704	Santa Lucía Utatlán 	7	Santa Rita 	1	Enero	2023-01-13T00:00:00	2024-11-08T09:00:00	2	Temperatura media	18.8
70386	7	Sololá	704	Santa Lucía Utatlán 	7	Santa Rita 	1	Enero	2023-01-13T00:00:00	2024-11-08T09:00:00	4	Temperatura máxima	19.4
70387	7	Sololá	704	Santa Lucía Utatlán 	7	Santa Rita 	1	Enero	2023-01-13T00:00:00	2024-11-08T09:00:00	3	Temperatura mínima	18.2
70388	7	Sololá	704	Santa Lucía Utatlán 	7	Santa Rita 	1	Enero	2023-01-13T00:00:00	2024-11-08T09:00:00	5	Humedad	70
70389	7	Sololá	704	Santa Lucía Utatlán 	7	Santa Rita 	1	Enero	2023-01-13T00:00:00	2024-11-08T09:00:00	6	Velocidad del viento	16.1
70390	7	Sololá	704	Santa Lucía Utatlán 	7	Santa Rita 	1	Enero	2023-01-13T00:00:00	2024-11-08T09:00:00	7	Dirección del viento	16.09
70391	7	Sololá	704	Santa Lucía Utatlán 	7	Santa Rita 	1	Enero	2023-01-13T00:00:00	2024-11-08T09:00:00	1	Precipitación	0
70392	7	Sololá	704	Santa Lucía Utatlán 	7	Santa Rita 	1	Enero	2023-01-13T00:00:00	2024-11-08T09:00:00	8	Radiación solar	354
70393	7	Sololá	704	Santa Lucía Utatlán 	7	Santa Rita 	1	Enero	2023-01-13T00:00:00	2024-11-08T10:00:00	2	Temperatura media	19
70394	7	Sololá	704	Santa Lucía Utatlán 	7	Santa Rita 	1	Enero	2023-01-13T00:00:00	2024-11-08T10:00:00	4	Temperatura máxima	20.1
70395	7	Sololá	704	Santa Lucía Utatlán 	7	Santa Rita 	1	Enero	2023-01-13T00:00:00	2024-11-08T10:00:00	3	Temperatura mínima	18.8
70396	7	Sololá	704	Santa Lucía Utatlán 	7	Santa Rita 	1	Enero	2023-01-13T00:00:00	2024-11-08T10:00:00	5	Humedad	72
70397	7	Sololá	704	Santa Lucía Utatlán 	7	Santa Rita 	1	Enero	2023-01-13T00:00:00	2024-11-08T10:00:00	6	Velocidad del viento	12.9
70398	7	Sololá	704	Santa Lucía Utatlán 	7	Santa Rita 	1	Enero	2023-01-13T00:00:00	2024-11-08T10:00:00	7	Dirección del viento	12.87
70399	7	Sololá	704	Santa Lucía Utatlán 	7	Santa Rita 	1	Enero	2023-01-13T00:00:00	2024-11-08T10:00:00	1	Precipitación	0
70400	7	Sololá	704	Santa Lucía Utatlán 	7	Santa Rita 	1	Enero	2023-01-13T00:00:00	2024-11-08T10:00:00	8	Radiación solar	491
70401	7	Sololá	704	Santa Lucía Utatlán 	7	Santa Rita 	1	Enero	2023-01-13T00:00:00	2024-11-08T11:00:00	2	Temperatura media	19.6
70402	7	Sololá	704	Santa Lucía Utatlán 	7	Santa Rita 	1	Enero	2023-01-13T00:00:00	2024-11-08T11:00:00	4	Temperatura máxima	20.5
70403	7	Sololá	704	Santa Lucía Utatlán 	7	Santa Rita 	1	Enero	2023-01-13T00:00:00	2024-11-08T11:00:00	3	Temperatura mínima	19
70404	7	Sololá	704	Santa Lucía Utatlán 	7	Santa Rita 	1	Enero	2023-01-13T00:00:00	2024-11-08T11:00:00	5	Humedad	70
70405	7	Sololá	704	Santa Lucía Utatlán 	7	Santa Rita 	1	Enero	2023-01-13T00:00:00	2024-11-08T11:00:00	6	Velocidad del viento	14.5
70406	7	Sololá	704	Santa Lucía Utatlán 	7	Santa Rita 	1	Enero	2023-01-13T00:00:00	2024-11-08T11:00:00	7	Dirección del viento	14.48
70407	7	Sololá	704	Santa Lucía Utatlán 	7	Santa Rita 	1	Enero	2023-01-13T00:00:00	2024-11-08T11:00:00	1	Precipitación	0
70408	7	Sololá	704	Santa Lucía Utatlán 	7	Santa Rita 	1	Enero	2023-01-13T00:00:00	2024-11-08T11:00:00	8	Radiación solar	751
70409	7	Sololá	704	Santa Lucía Utatlán 	7	Santa Rita 	1	Enero	2023-01-13T00:00:00	2024-11-08T12:00:00	2	Temperatura media	19.4
70410	7	Sololá	704	Santa Lucía Utatlán 	7	Santa Rita 	1	Enero	2023-01-13T00:00:00	2024-11-08T12:00:00	4	Temperatura máxima	19.9
70411	7	Sololá	704	Santa Lucía Utatlán 	7	Santa Rita 	1	Enero	2023-01-13T00:00:00	2024-11-08T12:00:00	3	Temperatura mínima	19.2
70412	7	Sololá	704	Santa Lucía Utatlán 	7	Santa Rita 	1	Enero	2023-01-13T00:00:00	2024-11-08T12:00:00	5	Humedad	71
70413	7	Sololá	704	Santa Lucía Utatlán 	7	Santa Rita 	1	Enero	2023-01-13T00:00:00	2024-11-08T12:00:00	6	Velocidad del viento	16.1
70414	7	Sololá	704	Santa Lucía Utatlán 	7	Santa Rita 	1	Enero	2023-01-13T00:00:00	2024-11-08T12:00:00	7	Dirección del viento	16.09
70415	7	Sololá	704	Santa Lucía Utatlán 	7	Santa Rita 	1	Enero	2023-01-13T00:00:00	2024-11-08T12:00:00	1	Precipitación	0
70416	7	Sololá	704	Santa Lucía Utatlán 	7	Santa Rita 	1	Enero	2023-01-13T00:00:00	2024-11-08T12:00:00	8	Radiación solar	811
70417	7	Sololá	704	Santa Lucía Utatlán 	7	Santa Rita 	1	Enero	2023-01-13T00:00:00	2024-11-08T13:00:00	2	Temperatura media	20.8
70418	7	Sololá	704	Santa Lucía Utatlán 	7	Santa Rita 	1	Enero	2023-01-13T00:00:00	2024-11-08T13:00:00	4	Temperatura máxima	20.9
70419	7	Sololá	704	Santa Lucía Utatlán 	7	Santa Rita 	1	Enero	2023-01-13T00:00:00	2024-11-08T13:00:00	3	Temperatura mínima	19.1
70420	7	Sololá	704	Santa Lucía Utatlán 	7	Santa Rita 	1	Enero	2023-01-13T00:00:00	2024-11-08T13:00:00	5	Humedad	65
70421	7	Sololá	704	Santa Lucía Utatlán 	7	Santa Rita 	1	Enero	2023-01-13T00:00:00	2024-11-08T13:00:00	6	Velocidad del viento	16.1
70422	7	Sololá	704	Santa Lucía Utatlán 	7	Santa Rita 	1	Enero	2023-01-13T00:00:00	2024-11-08T13:00:00	7	Dirección del viento	16.09
70423	7	Sololá	704	Santa Lucía Utatlán 	7	Santa Rita 	1	Enero	2023-01-13T00:00:00	2024-11-08T13:00:00	1	Precipitación	0
70424	7	Sololá	704	Santa Lucía Utatlán 	7	Santa Rita 	1	Enero	2023-01-13T00:00:00	2024-11-08T13:00:00	8	Radiación solar	815
70425	7	Sololá	704	Santa Lucía Utatlán 	7	Santa Rita 	1	Enero	2023-01-13T00:00:00	2024-11-08T14:00:00	2	Temperatura media	21.2
70426	7	Sololá	704	Santa Lucía Utatlán 	7	Santa Rita 	1	Enero	2023-01-13T00:00:00	2024-11-08T14:00:00	4	Temperatura máxima	21.5
70427	7	Sololá	704	Santa Lucía Utatlán 	7	Santa Rita 	1	Enero	2023-01-13T00:00:00	2024-11-08T14:00:00	3	Temperatura mínima	20.2
70428	7	Sololá	704	Santa Lucía Utatlán 	7	Santa Rita 	1	Enero	2023-01-13T00:00:00	2024-11-08T14:00:00	5	Humedad	59
70429	7	Sololá	704	Santa Lucía Utatlán 	7	Santa Rita 	1	Enero	2023-01-13T00:00:00	2024-11-08T14:00:00	6	Velocidad del viento	14.5
70430	7	Sololá	704	Santa Lucía Utatlán 	7	Santa Rita 	1	Enero	2023-01-13T00:00:00	2024-11-08T14:00:00	7	Dirección del viento	14.48
70431	7	Sololá	704	Santa Lucía Utatlán 	7	Santa Rita 	1	Enero	2023-01-13T00:00:00	2024-11-08T14:00:00	1	Precipitación	0
70432	7	Sololá	704	Santa Lucía Utatlán 	7	Santa Rita 	1	Enero	2023-01-13T00:00:00	2024-11-08T14:00:00	8	Radiación solar	774
70433	7	Sololá	704	Santa Lucía Utatlán 	7	Santa Rita 	1	Enero	2023-01-13T00:00:00	2024-11-08T15:00:00	2	Temperatura media	21.1
70434	7	Sololá	704	Santa Lucía Utatlán 	7	Santa Rita 	1	Enero	2023-01-13T00:00:00	2024-11-08T15:00:00	4	Temperatura máxima	21.9
70435	7	Sololá	704	Santa Lucía Utatlán 	7	Santa Rita 	1	Enero	2023-01-13T00:00:00	2024-11-08T15:00:00	3	Temperatura mínima	20.8
70436	7	Sololá	704	Santa Lucía Utatlán 	7	Santa Rita 	1	Enero	2023-01-13T00:00:00	2024-11-08T15:00:00	5	Humedad	61
70437	7	Sololá	704	Santa Lucía Utatlán 	7	Santa Rita 	1	Enero	2023-01-13T00:00:00	2024-11-08T15:00:00	6	Velocidad del viento	12.9
70438	7	Sololá	704	Santa Lucía Utatlán 	7	Santa Rita 	1	Enero	2023-01-13T00:00:00	2024-11-08T15:00:00	7	Dirección del viento	12.87
70439	7	Sololá	704	Santa Lucía Utatlán 	7	Santa Rita 	1	Enero	2023-01-13T00:00:00	2024-11-08T15:00:00	1	Precipitación	0
70440	7	Sololá	704	Santa Lucía Utatlán 	7	Santa Rita 	1	Enero	2023-01-13T00:00:00	2024-11-08T15:00:00	8	Radiación solar	653
70441	7	Sololá	704	Santa Lucía Utatlán 	7	Santa Rita 	1	Enero	2023-01-13T00:00:00	2024-11-08T16:00:00	2	Temperatura media	19.9
70442	7	Sololá	704	Santa Lucía Utatlán 	7	Santa Rita 	1	Enero	2023-01-13T00:00:00	2024-11-08T16:00:00	4	Temperatura máxima	21.4
70443	7	Sololá	704	Santa Lucía Utatlán 	7	Santa Rita 	1	Enero	2023-01-13T00:00:00	2024-11-08T16:00:00	3	Temperatura mínima	19.9
70444	7	Sololá	704	Santa Lucía Utatlán 	7	Santa Rita 	1	Enero	2023-01-13T00:00:00	2024-11-08T16:00:00	5	Humedad	64
70445	7	Sololá	704	Santa Lucía Utatlán 	7	Santa Rita 	1	Enero	2023-01-13T00:00:00	2024-11-08T16:00:00	6	Velocidad del viento	8
70446	7	Sololá	704	Santa Lucía Utatlán 	7	Santa Rita 	1	Enero	2023-01-13T00:00:00	2024-11-08T16:00:00	7	Dirección del viento	8.05
70447	7	Sololá	704	Santa Lucía Utatlán 	7	Santa Rita 	1	Enero	2023-01-13T00:00:00	2024-11-08T16:00:00	1	Precipitación	0
70448	7	Sololá	704	Santa Lucía Utatlán 	7	Santa Rita 	1	Enero	2023-01-13T00:00:00	2024-11-08T16:00:00	8	Radiación solar	346
70449	7	Sololá	704	Santa Lucía Utatlán 	7	Santa Rita 	1	Enero	2023-01-13T00:00:00	2024-11-08T17:00:00	2	Temperatura media	18.1
70450	7	Sololá	704	Santa Lucía Utatlán 	7	Santa Rita 	1	Enero	2023-01-13T00:00:00	2024-11-08T17:00:00	4	Temperatura máxima	20
70451	7	Sololá	704	Santa Lucía Utatlán 	7	Santa Rita 	1	Enero	2023-01-13T00:00:00	2024-11-08T17:00:00	3	Temperatura mínima	18.1
70452	7	Sololá	704	Santa Lucía Utatlán 	7	Santa Rita 	1	Enero	2023-01-13T00:00:00	2024-11-08T17:00:00	5	Humedad	76
70453	7	Sololá	704	Santa Lucía Utatlán 	7	Santa Rita 	1	Enero	2023-01-13T00:00:00	2024-11-08T17:00:00	6	Velocidad del viento	8
70454	7	Sololá	704	Santa Lucía Utatlán 	7	Santa Rita 	1	Enero	2023-01-13T00:00:00	2024-11-08T17:00:00	7	Dirección del viento	8.05
70455	7	Sololá	704	Santa Lucía Utatlán 	7	Santa Rita 	1	Enero	2023-01-13T00:00:00	2024-11-08T17:00:00	1	Precipitación	0
70456	7	Sololá	704	Santa Lucía Utatlán 	7	Santa Rita 	1	Enero	2023-01-13T00:00:00	2024-11-08T17:00:00	8	Radiación solar	56
70457	7	Sololá	704	Santa Lucía Utatlán 	7	Santa Rita 	1	Enero	2023-01-13T00:00:00	2024-11-08T18:00:00	2	Temperatura media	17.3
70458	7	Sololá	704	Santa Lucía Utatlán 	7	Santa Rita 	1	Enero	2023-01-13T00:00:00	2024-11-08T18:00:00	4	Temperatura máxima	18.1
70459	7	Sololá	704	Santa Lucía Utatlán 	7	Santa Rita 	1	Enero	2023-01-13T00:00:00	2024-11-08T18:00:00	3	Temperatura mínima	17.3
70460	7	Sololá	704	Santa Lucía Utatlán 	7	Santa Rita 	1	Enero	2023-01-13T00:00:00	2024-11-08T18:00:00	5	Humedad	79
70461	7	Sololá	704	Santa Lucía Utatlán 	7	Santa Rita 	1	Enero	2023-01-13T00:00:00	2024-11-08T18:00:00	6	Velocidad del viento	8
70462	7	Sololá	704	Santa Lucía Utatlán 	7	Santa Rita 	1	Enero	2023-01-13T00:00:00	2024-11-08T18:00:00	7	Dirección del viento	8.05
70463	7	Sololá	704	Santa Lucía Utatlán 	7	Santa Rita 	1	Enero	2023-01-13T00:00:00	2024-11-08T18:00:00	1	Precipitación	0
70464	7	Sololá	704	Santa Lucía Utatlán 	7	Santa Rita 	1	Enero	2023-01-13T00:00:00	2024-11-08T18:00:00	8	Radiación solar	14
70465	7	Sololá	704	Santa Lucía Utatlán 	7	Santa Rita 	1	Enero	2023-01-13T00:00:00	2024-11-08T19:00:00	2	Temperatura media	16.8
70466	7	Sololá	704	Santa Lucía Utatlán 	7	Santa Rita 	1	Enero	2023-01-13T00:00:00	2024-11-08T19:00:00	4	Temperatura máxima	17.3
70467	7	Sololá	704	Santa Lucía Utatlán 	7	Santa Rita 	1	Enero	2023-01-13T00:00:00	2024-11-08T19:00:00	3	Temperatura mínima	16.8
70468	7	Sololá	704	Santa Lucía Utatlán 	7	Santa Rita 	1	Enero	2023-01-13T00:00:00	2024-11-08T19:00:00	5	Humedad	78
70469	7	Sololá	704	Santa Lucía Utatlán 	7	Santa Rita 	1	Enero	2023-01-13T00:00:00	2024-11-08T19:00:00	6	Velocidad del viento	11.3
70470	7	Sololá	704	Santa Lucía Utatlán 	7	Santa Rita 	1	Enero	2023-01-13T00:00:00	2024-11-08T19:00:00	7	Dirección del viento	11.27
70471	7	Sololá	704	Santa Lucía Utatlán 	7	Santa Rita 	1	Enero	2023-01-13T00:00:00	2024-11-08T19:00:00	1	Precipitación	0
70472	7	Sololá	704	Santa Lucía Utatlán 	7	Santa Rita 	1	Enero	2023-01-13T00:00:00	2024-11-08T19:00:00	8	Radiación solar	0
70473	7	Sololá	704	Santa Lucía Utatlán 	7	Santa Rita 	1	Enero	2023-01-13T00:00:00	2024-11-08T20:00:00	2	Temperatura media	17
70474	7	Sololá	704	Santa Lucía Utatlán 	7	Santa Rita 	1	Enero	2023-01-13T00:00:00	2024-11-08T20:00:00	4	Temperatura máxima	17.3
70475	7	Sololá	704	Santa Lucía Utatlán 	7	Santa Rita 	1	Enero	2023-01-13T00:00:00	2024-11-08T20:00:00	3	Temperatura mínima	16.8
70476	7	Sololá	704	Santa Lucía Utatlán 	7	Santa Rita 	1	Enero	2023-01-13T00:00:00	2024-11-08T20:00:00	5	Humedad	76
70477	7	Sololá	704	Santa Lucía Utatlán 	7	Santa Rita 	1	Enero	2023-01-13T00:00:00	2024-11-08T20:00:00	6	Velocidad del viento	16.1
70478	7	Sololá	704	Santa Lucía Utatlán 	7	Santa Rita 	1	Enero	2023-01-13T00:00:00	2024-11-08T20:00:00	7	Dirección del viento	16.09
70479	7	Sololá	704	Santa Lucía Utatlán 	7	Santa Rita 	1	Enero	2023-01-13T00:00:00	2024-11-08T20:00:00	1	Precipitación	0
70480	7	Sololá	704	Santa Lucía Utatlán 	7	Santa Rita 	1	Enero	2023-01-13T00:00:00	2024-11-08T20:00:00	8	Radiación solar	0
70481	7	Sololá	704	Santa Lucía Utatlán 	7	Santa Rita 	1	Enero	2023-01-13T00:00:00	2024-11-08T21:00:00	2	Temperatura media	16.3
70482	7	Sololá	704	Santa Lucía Utatlán 	7	Santa Rita 	1	Enero	2023-01-13T00:00:00	2024-11-08T21:00:00	4	Temperatura máxima	17
70483	7	Sololá	704	Santa Lucía Utatlán 	7	Santa Rita 	1	Enero	2023-01-13T00:00:00	2024-11-08T21:00:00	3	Temperatura mínima	16.2
70484	7	Sololá	704	Santa Lucía Utatlán 	7	Santa Rita 	1	Enero	2023-01-13T00:00:00	2024-11-08T21:00:00	5	Humedad	78
70485	7	Sololá	704	Santa Lucía Utatlán 	7	Santa Rita 	1	Enero	2023-01-13T00:00:00	2024-11-08T21:00:00	6	Velocidad del viento	20.9
70486	7	Sololá	704	Santa Lucía Utatlán 	7	Santa Rita 	1	Enero	2023-01-13T00:00:00	2024-11-08T21:00:00	7	Dirección del viento	20.92
70487	7	Sololá	704	Santa Lucía Utatlán 	7	Santa Rita 	1	Enero	2023-01-13T00:00:00	2024-11-08T21:00:00	1	Precipitación	0
70488	7	Sololá	704	Santa Lucía Utatlán 	7	Santa Rita 	1	Enero	2023-01-13T00:00:00	2024-11-08T21:00:00	8	Radiación solar	0
70489	7	Sololá	704	Santa Lucía Utatlán 	7	Santa Rita 	1	Enero	2023-01-13T00:00:00	2024-11-08T22:00:00	2	Temperatura media	15.8
70490	7	Sololá	704	Santa Lucía Utatlán 	7	Santa Rita 	1	Enero	2023-01-13T00:00:00	2024-11-08T22:00:00	4	Temperatura máxima	16.5
70491	7	Sololá	704	Santa Lucía Utatlán 	7	Santa Rita 	1	Enero	2023-01-13T00:00:00	2024-11-08T22:00:00	3	Temperatura mínima	15.8
70492	7	Sololá	704	Santa Lucía Utatlán 	7	Santa Rita 	1	Enero	2023-01-13T00:00:00	2024-11-08T22:00:00	5	Humedad	78
70493	7	Sololá	704	Santa Lucía Utatlán 	7	Santa Rita 	1	Enero	2023-01-13T00:00:00	2024-11-08T22:00:00	6	Velocidad del viento	27.4
70494	7	Sololá	704	Santa Lucía Utatlán 	7	Santa Rita 	1	Enero	2023-01-13T00:00:00	2024-11-08T22:00:00	7	Dirección del viento	27.36
70495	7	Sololá	704	Santa Lucía Utatlán 	7	Santa Rita 	1	Enero	2023-01-13T00:00:00	2024-11-08T22:00:00	1	Precipitación	0
70496	7	Sololá	704	Santa Lucía Utatlán 	7	Santa Rita 	1	Enero	2023-01-13T00:00:00	2024-11-08T22:00:00	8	Radiación solar	0
70497	7	Sololá	704	Santa Lucía Utatlán 	7	Santa Rita 	1	Enero	2023-01-13T00:00:00	2024-11-08T23:00:00	2	Temperatura media	16.2
70498	7	Sololá	704	Santa Lucía Utatlán 	7	Santa Rita 	1	Enero	2023-01-13T00:00:00	2024-11-08T23:00:00	4	Temperatura máxima	16.4
70499	7	Sololá	704	Santa Lucía Utatlán 	7	Santa Rita 	1	Enero	2023-01-13T00:00:00	2024-11-08T23:00:00	3	Temperatura mínima	15.7
70500	7	Sololá	704	Santa Lucía Utatlán 	7	Santa Rita 	1	Enero	2023-01-13T00:00:00	2024-11-08T23:00:00	5	Humedad	73
70501	7	Sololá	704	Santa Lucía Utatlán 	7	Santa Rita 	1	Enero	2023-01-13T00:00:00	2024-11-08T23:00:00	6	Velocidad del viento	27.4
70502	7	Sololá	704	Santa Lucía Utatlán 	7	Santa Rita 	1	Enero	2023-01-13T00:00:00	2024-11-08T23:00:00	7	Dirección del viento	27.36
70503	7	Sololá	704	Santa Lucía Utatlán 	7	Santa Rita 	1	Enero	2023-01-13T00:00:00	2024-11-08T23:00:00	1	Precipitación	0
70504	7	Sololá	704	Santa Lucía Utatlán 	7	Santa Rita 	1	Enero	2023-01-13T00:00:00	2024-11-08T23:00:00	8	Radiación solar	0
70505	7	Sololá	704	Santa Lucía Utatlán 	7	Santa Rita 	1	Enero	2023-01-14T00:00:00	2024-11-08T00:00:00	2	Temperatura media	16.5
70506	7	Sololá	704	Santa Lucía Utatlán 	7	Santa Rita 	1	Enero	2023-01-14T00:00:00	2024-11-08T00:00:00	4	Temperatura máxima	17
70507	7	Sololá	704	Santa Lucía Utatlán 	7	Santa Rita 	1	Enero	2023-01-14T00:00:00	2024-11-08T00:00:00	3	Temperatura mínima	16.2
70508	7	Sololá	704	Santa Lucía Utatlán 	7	Santa Rita 	1	Enero	2023-01-14T00:00:00	2024-11-08T00:00:00	5	Humedad	71
70509	7	Sololá	704	Santa Lucía Utatlán 	7	Santa Rita 	1	Enero	2023-01-14T00:00:00	2024-11-08T00:00:00	6	Velocidad del viento	20.9
70510	7	Sololá	704	Santa Lucía Utatlán 	7	Santa Rita 	1	Enero	2023-01-14T00:00:00	2024-11-08T00:00:00	7	Dirección del viento	20.92
70511	7	Sololá	704	Santa Lucía Utatlán 	7	Santa Rita 	1	Enero	2023-01-14T00:00:00	2024-11-08T00:00:00	1	Precipitación	0
70512	7	Sololá	704	Santa Lucía Utatlán 	7	Santa Rita 	1	Enero	2023-01-14T00:00:00	2024-11-08T00:00:00	8	Radiación solar	0
70513	7	Sololá	704	Santa Lucía Utatlán 	7	Santa Rita 	1	Enero	2023-01-14T00:00:00	2024-11-08T01:00:00	2	Temperatura media	16.1
70514	7	Sololá	704	Santa Lucía Utatlán 	7	Santa Rita 	1	Enero	2023-01-14T00:00:00	2024-11-08T01:00:00	4	Temperatura máxima	16.4
70515	7	Sololá	704	Santa Lucía Utatlán 	7	Santa Rita 	1	Enero	2023-01-14T00:00:00	2024-11-08T01:00:00	3	Temperatura mínima	15.8
70516	7	Sololá	704	Santa Lucía Utatlán 	7	Santa Rita 	1	Enero	2023-01-14T00:00:00	2024-11-08T01:00:00	5	Humedad	75
70517	7	Sololá	704	Santa Lucía Utatlán 	7	Santa Rita 	1	Enero	2023-01-14T00:00:00	2024-11-08T01:00:00	6	Velocidad del viento	24.1
70518	7	Sololá	704	Santa Lucía Utatlán 	7	Santa Rita 	1	Enero	2023-01-14T00:00:00	2024-11-08T01:00:00	7	Dirección del viento	24.14
70519	7	Sololá	704	Santa Lucía Utatlán 	7	Santa Rita 	1	Enero	2023-01-14T00:00:00	2024-11-08T01:00:00	1	Precipitación	0
70520	7	Sololá	704	Santa Lucía Utatlán 	7	Santa Rita 	1	Enero	2023-01-14T00:00:00	2024-11-08T01:00:00	8	Radiación solar	0
70521	7	Sololá	704	Santa Lucía Utatlán 	7	Santa Rita 	1	Enero	2023-01-14T00:00:00	2024-11-08T02:00:00	2	Temperatura media	15.8
70522	7	Sololá	704	Santa Lucía Utatlán 	7	Santa Rita 	1	Enero	2023-01-14T00:00:00	2024-11-08T02:00:00	4	Temperatura máxima	16.2
70523	7	Sololá	704	Santa Lucía Utatlán 	7	Santa Rita 	1	Enero	2023-01-14T00:00:00	2024-11-08T02:00:00	3	Temperatura mínima	15.6
70524	7	Sololá	704	Santa Lucía Utatlán 	7	Santa Rita 	1	Enero	2023-01-14T00:00:00	2024-11-08T02:00:00	5	Humedad	74
70525	7	Sololá	704	Santa Lucía Utatlán 	7	Santa Rita 	1	Enero	2023-01-14T00:00:00	2024-11-08T02:00:00	6	Velocidad del viento	22.5
70526	7	Sololá	704	Santa Lucía Utatlán 	7	Santa Rita 	1	Enero	2023-01-14T00:00:00	2024-11-08T02:00:00	7	Dirección del viento	22.53
70527	7	Sololá	704	Santa Lucía Utatlán 	7	Santa Rita 	1	Enero	2023-01-14T00:00:00	2024-11-08T02:00:00	1	Precipitación	0
70528	7	Sololá	704	Santa Lucía Utatlán 	7	Santa Rita 	1	Enero	2023-01-14T00:00:00	2024-11-08T02:00:00	8	Radiación solar	0
70529	7	Sololá	704	Santa Lucía Utatlán 	7	Santa Rita 	1	Enero	2023-01-14T00:00:00	2024-11-08T03:00:00	2	Temperatura media	16.2
70530	7	Sololá	704	Santa Lucía Utatlán 	7	Santa Rita 	1	Enero	2023-01-14T00:00:00	2024-11-08T03:00:00	4	Temperatura máxima	16.6
70531	7	Sololá	704	Santa Lucía Utatlán 	7	Santa Rita 	1	Enero	2023-01-14T00:00:00	2024-11-08T03:00:00	3	Temperatura mínima	15.7
70532	7	Sololá	704	Santa Lucía Utatlán 	7	Santa Rita 	1	Enero	2023-01-14T00:00:00	2024-11-08T03:00:00	5	Humedad	69
70533	7	Sololá	704	Santa Lucía Utatlán 	7	Santa Rita 	1	Enero	2023-01-14T00:00:00	2024-11-08T03:00:00	6	Velocidad del viento	22.5
70534	7	Sololá	704	Santa Lucía Utatlán 	7	Santa Rita 	1	Enero	2023-01-14T00:00:00	2024-11-08T03:00:00	7	Dirección del viento	22.53
70535	7	Sololá	704	Santa Lucía Utatlán 	7	Santa Rita 	1	Enero	2023-01-14T00:00:00	2024-11-08T03:00:00	1	Precipitación	0
70536	7	Sololá	704	Santa Lucía Utatlán 	7	Santa Rita 	1	Enero	2023-01-14T00:00:00	2024-11-08T03:00:00	8	Radiación solar	0
70537	7	Sololá	704	Santa Lucía Utatlán 	7	Santa Rita 	1	Enero	2023-01-14T00:00:00	2024-11-08T04:00:00	2	Temperatura media	15.5
70538	7	Sololá	704	Santa Lucía Utatlán 	7	Santa Rita 	1	Enero	2023-01-14T00:00:00	2024-11-08T04:00:00	4	Temperatura máxima	16.2
70539	7	Sololá	704	Santa Lucía Utatlán 	7	Santa Rita 	1	Enero	2023-01-14T00:00:00	2024-11-08T04:00:00	3	Temperatura mínima	15.2
70540	7	Sololá	704	Santa Lucía Utatlán 	7	Santa Rita 	1	Enero	2023-01-14T00:00:00	2024-11-08T04:00:00	5	Humedad	75
70541	7	Sololá	704	Santa Lucía Utatlán 	7	Santa Rita 	1	Enero	2023-01-14T00:00:00	2024-11-08T04:00:00	6	Velocidad del viento	25.7
70542	7	Sololá	704	Santa Lucía Utatlán 	7	Santa Rita 	1	Enero	2023-01-14T00:00:00	2024-11-08T04:00:00	7	Dirección del viento	25.75
70543	7	Sololá	704	Santa Lucía Utatlán 	7	Santa Rita 	1	Enero	2023-01-14T00:00:00	2024-11-08T04:00:00	1	Precipitación	0
70544	7	Sololá	704	Santa Lucía Utatlán 	7	Santa Rita 	1	Enero	2023-01-14T00:00:00	2024-11-08T04:00:00	8	Radiación solar	0
70545	7	Sololá	704	Santa Lucía Utatlán 	7	Santa Rita 	1	Enero	2023-01-14T00:00:00	2024-11-08T05:00:00	2	Temperatura media	15.7
70546	7	Sololá	704	Santa Lucía Utatlán 	7	Santa Rita 	1	Enero	2023-01-14T00:00:00	2024-11-08T05:00:00	4	Temperatura máxima	15.7
70547	7	Sololá	704	Santa Lucía Utatlán 	7	Santa Rita 	1	Enero	2023-01-14T00:00:00	2024-11-08T05:00:00	3	Temperatura mínima	15.3
70548	7	Sololá	704	Santa Lucía Utatlán 	7	Santa Rita 	1	Enero	2023-01-14T00:00:00	2024-11-08T05:00:00	5	Humedad	74
70549	7	Sololá	704	Santa Lucía Utatlán 	7	Santa Rita 	1	Enero	2023-01-14T00:00:00	2024-11-08T05:00:00	6	Velocidad del viento	20.9
70550	7	Sololá	704	Santa Lucía Utatlán 	7	Santa Rita 	1	Enero	2023-01-14T00:00:00	2024-11-08T05:00:00	7	Dirección del viento	20.92
70551	7	Sololá	704	Santa Lucía Utatlán 	7	Santa Rita 	1	Enero	2023-01-14T00:00:00	2024-11-08T05:00:00	1	Precipitación	0
70552	7	Sololá	704	Santa Lucía Utatlán 	7	Santa Rita 	1	Enero	2023-01-14T00:00:00	2024-11-08T05:00:00	8	Radiación solar	0
70553	7	Sololá	704	Santa Lucía Utatlán 	7	Santa Rita 	1	Enero	2023-01-14T00:00:00	2024-11-08T06:00:00	2	Temperatura media	16.1
70554	7	Sololá	704	Santa Lucía Utatlán 	7	Santa Rita 	1	Enero	2023-01-14T00:00:00	2024-11-08T06:00:00	4	Temperatura máxima	16.2
70555	7	Sololá	704	Santa Lucía Utatlán 	7	Santa Rita 	1	Enero	2023-01-14T00:00:00	2024-11-08T06:00:00	3	Temperatura mínima	15.7
70556	7	Sololá	704	Santa Lucía Utatlán 	7	Santa Rita 	1	Enero	2023-01-14T00:00:00	2024-11-08T06:00:00	5	Humedad	72
70557	7	Sololá	704	Santa Lucía Utatlán 	7	Santa Rita 	1	Enero	2023-01-14T00:00:00	2024-11-08T06:00:00	6	Velocidad del viento	14.5
70558	7	Sololá	704	Santa Lucía Utatlán 	7	Santa Rita 	1	Enero	2023-01-14T00:00:00	2024-11-08T06:00:00	7	Dirección del viento	14.48
70559	7	Sololá	704	Santa Lucía Utatlán 	7	Santa Rita 	1	Enero	2023-01-14T00:00:00	2024-11-08T06:00:00	1	Precipitación	0
70560	7	Sololá	704	Santa Lucía Utatlán 	7	Santa Rita 	1	Enero	2023-01-14T00:00:00	2024-11-08T06:00:00	8	Radiación solar	0
70561	7	Sololá	704	Santa Lucía Utatlán 	7	Santa Rita 	1	Enero	2023-01-14T00:00:00	2024-11-08T07:00:00	2	Temperatura media	16.2
70562	7	Sololá	704	Santa Lucía Utatlán 	7	Santa Rita 	1	Enero	2023-01-14T00:00:00	2024-11-08T07:00:00	4	Temperatura máxima	16.2
70563	7	Sololá	704	Santa Lucía Utatlán 	7	Santa Rita 	1	Enero	2023-01-14T00:00:00	2024-11-08T07:00:00	3	Temperatura mínima	15.9
70564	7	Sololá	704	Santa Lucía Utatlán 	7	Santa Rita 	1	Enero	2023-01-14T00:00:00	2024-11-08T07:00:00	5	Humedad	72
70565	7	Sololá	704	Santa Lucía Utatlán 	7	Santa Rita 	1	Enero	2023-01-14T00:00:00	2024-11-08T07:00:00	6	Velocidad del viento	11.3
70566	7	Sololá	704	Santa Lucía Utatlán 	7	Santa Rita 	1	Enero	2023-01-14T00:00:00	2024-11-08T07:00:00	7	Dirección del viento	11.27
70567	7	Sololá	704	Santa Lucía Utatlán 	7	Santa Rita 	1	Enero	2023-01-14T00:00:00	2024-11-08T07:00:00	1	Precipitación	0
70568	7	Sololá	704	Santa Lucía Utatlán 	7	Santa Rita 	1	Enero	2023-01-14T00:00:00	2024-11-08T07:00:00	8	Radiación solar	5
70569	7	Sololá	704	Santa Lucía Utatlán 	7	Santa Rita 	1	Enero	2023-01-14T00:00:00	2024-11-08T08:00:00	2	Temperatura media	18.1
70570	7	Sololá	704	Santa Lucía Utatlán 	7	Santa Rita 	1	Enero	2023-01-14T00:00:00	2024-11-08T08:00:00	4	Temperatura máxima	18.1
70571	7	Sololá	704	Santa Lucía Utatlán 	7	Santa Rita 	1	Enero	2023-01-14T00:00:00	2024-11-08T08:00:00	3	Temperatura mínima	16.2
70572	7	Sololá	704	Santa Lucía Utatlán 	7	Santa Rita 	1	Enero	2023-01-14T00:00:00	2024-11-08T08:00:00	5	Humedad	64
70573	7	Sololá	704	Santa Lucía Utatlán 	7	Santa Rita 	1	Enero	2023-01-14T00:00:00	2024-11-08T08:00:00	6	Velocidad del viento	12.9
70574	7	Sololá	704	Santa Lucía Utatlán 	7	Santa Rita 	1	Enero	2023-01-14T00:00:00	2024-11-08T08:00:00	7	Dirección del viento	12.87
70575	7	Sololá	704	Santa Lucía Utatlán 	7	Santa Rita 	1	Enero	2023-01-14T00:00:00	2024-11-08T08:00:00	1	Precipitación	0
70576	7	Sololá	704	Santa Lucía Utatlán 	7	Santa Rita 	1	Enero	2023-01-14T00:00:00	2024-11-08T08:00:00	8	Radiación solar	130
70577	7	Sololá	704	Santa Lucía Utatlán 	7	Santa Rita 	1	Enero	2023-01-14T00:00:00	2024-11-08T09:00:00	2	Temperatura media	20.9
70578	7	Sololá	704	Santa Lucía Utatlán 	7	Santa Rita 	1	Enero	2023-01-14T00:00:00	2024-11-08T09:00:00	4	Temperatura máxima	20.9
70579	7	Sololá	704	Santa Lucía Utatlán 	7	Santa Rita 	1	Enero	2023-01-14T00:00:00	2024-11-08T09:00:00	3	Temperatura mínima	18
70580	7	Sololá	704	Santa Lucía Utatlán 	7	Santa Rita 	1	Enero	2023-01-14T00:00:00	2024-11-08T09:00:00	5	Humedad	52
70581	7	Sololá	704	Santa Lucía Utatlán 	7	Santa Rita 	1	Enero	2023-01-14T00:00:00	2024-11-08T09:00:00	6	Velocidad del viento	8
70582	7	Sololá	704	Santa Lucía Utatlán 	7	Santa Rita 	1	Enero	2023-01-14T00:00:00	2024-11-08T09:00:00	7	Dirección del viento	8.05
70583	7	Sololá	704	Santa Lucía Utatlán 	7	Santa Rita 	1	Enero	2023-01-14T00:00:00	2024-11-08T09:00:00	1	Precipitación	0
70584	7	Sololá	704	Santa Lucía Utatlán 	7	Santa Rita 	1	Enero	2023-01-14T00:00:00	2024-11-08T09:00:00	8	Radiación solar	370
70585	7	Sololá	704	Santa Lucía Utatlán 	7	Santa Rita 	1	Enero	2023-01-14T00:00:00	2024-11-08T10:00:00	2	Temperatura media	22
70586	7	Sololá	704	Santa Lucía Utatlán 	7	Santa Rita 	1	Enero	2023-01-14T00:00:00	2024-11-08T10:00:00	4	Temperatura máxima	22
70587	7	Sololá	704	Santa Lucía Utatlán 	7	Santa Rita 	1	Enero	2023-01-14T00:00:00	2024-11-08T10:00:00	3	Temperatura mínima	20.9
70588	7	Sololá	704	Santa Lucía Utatlán 	7	Santa Rita 	1	Enero	2023-01-14T00:00:00	2024-11-08T10:00:00	5	Humedad	46
70589	7	Sololá	704	Santa Lucía Utatlán 	7	Santa Rita 	1	Enero	2023-01-14T00:00:00	2024-11-08T10:00:00	6	Velocidad del viento	6.4
70590	7	Sololá	704	Santa Lucía Utatlán 	7	Santa Rita 	1	Enero	2023-01-14T00:00:00	2024-11-08T10:00:00	7	Dirección del viento	6.44
70591	7	Sololá	704	Santa Lucía Utatlán 	7	Santa Rita 	1	Enero	2023-01-14T00:00:00	2024-11-08T10:00:00	1	Precipitación	0
70592	7	Sololá	704	Santa Lucía Utatlán 	7	Santa Rita 	1	Enero	2023-01-14T00:00:00	2024-11-08T10:00:00	8	Radiación solar	566
70593	7	Sololá	704	Santa Lucía Utatlán 	7	Santa Rita 	1	Enero	2023-01-14T00:00:00	2024-11-08T11:00:00	2	Temperatura media	23.6
70594	7	Sololá	704	Santa Lucía Utatlán 	7	Santa Rita 	1	Enero	2023-01-14T00:00:00	2024-11-08T11:00:00	4	Temperatura máxima	23.6
70595	7	Sololá	704	Santa Lucía Utatlán 	7	Santa Rita 	1	Enero	2023-01-14T00:00:00	2024-11-08T11:00:00	3	Temperatura mínima	21.7
70596	7	Sololá	704	Santa Lucía Utatlán 	7	Santa Rita 	1	Enero	2023-01-14T00:00:00	2024-11-08T11:00:00	5	Humedad	35
70597	7	Sololá	704	Santa Lucía Utatlán 	7	Santa Rita 	1	Enero	2023-01-14T00:00:00	2024-11-08T11:00:00	6	Velocidad del viento	6.4
70598	7	Sololá	704	Santa Lucía Utatlán 	7	Santa Rita 	1	Enero	2023-01-14T00:00:00	2024-11-08T11:00:00	7	Dirección del viento	6.44
70599	7	Sololá	704	Santa Lucía Utatlán 	7	Santa Rita 	1	Enero	2023-01-14T00:00:00	2024-11-08T11:00:00	1	Precipitación	0
70600	7	Sololá	704	Santa Lucía Utatlán 	7	Santa Rita 	1	Enero	2023-01-14T00:00:00	2024-11-08T11:00:00	8	Radiación solar	716
70601	7	Sololá	704	Santa Lucía Utatlán 	7	Santa Rita 	1	Enero	2023-01-14T00:00:00	2024-11-08T12:00:00	2	Temperatura media	24.1
70602	7	Sololá	704	Santa Lucía Utatlán 	7	Santa Rita 	1	Enero	2023-01-14T00:00:00	2024-11-08T12:00:00	4	Temperatura máxima	24.4
70603	7	Sololá	704	Santa Lucía Utatlán 	7	Santa Rita 	1	Enero	2023-01-14T00:00:00	2024-11-08T12:00:00	3	Temperatura mínima	23.3
70604	7	Sololá	704	Santa Lucía Utatlán 	7	Santa Rita 	1	Enero	2023-01-14T00:00:00	2024-11-08T12:00:00	5	Humedad	23
70605	7	Sololá	704	Santa Lucía Utatlán 	7	Santa Rita 	1	Enero	2023-01-14T00:00:00	2024-11-08T12:00:00	6	Velocidad del viento	8
70606	7	Sololá	704	Santa Lucía Utatlán 	7	Santa Rita 	1	Enero	2023-01-14T00:00:00	2024-11-08T12:00:00	7	Dirección del viento	8.05
70607	7	Sololá	704	Santa Lucía Utatlán 	7	Santa Rita 	1	Enero	2023-01-14T00:00:00	2024-11-08T12:00:00	1	Precipitación	0
70608	7	Sololá	704	Santa Lucía Utatlán 	7	Santa Rita 	1	Enero	2023-01-14T00:00:00	2024-11-08T12:00:00	8	Radiación solar	810
70609	7	Sololá	704	Santa Lucía Utatlán 	7	Santa Rita 	1	Enero	2023-01-14T00:00:00	2024-11-08T13:00:00	2	Temperatura media	23.4
70610	7	Sololá	704	Santa Lucía Utatlán 	7	Santa Rita 	1	Enero	2023-01-14T00:00:00	2024-11-08T13:00:00	4	Temperatura máxima	24.2
70611	7	Sololá	704	Santa Lucía Utatlán 	7	Santa Rita 	1	Enero	2023-01-14T00:00:00	2024-11-08T13:00:00	3	Temperatura mínima	23.1
70612	7	Sololá	704	Santa Lucía Utatlán 	7	Santa Rita 	1	Enero	2023-01-14T00:00:00	2024-11-08T13:00:00	5	Humedad	23
70613	7	Sololá	704	Santa Lucía Utatlán 	7	Santa Rita 	1	Enero	2023-01-14T00:00:00	2024-11-08T13:00:00	6	Velocidad del viento	9.7
70614	7	Sololá	704	Santa Lucía Utatlán 	7	Santa Rita 	1	Enero	2023-01-14T00:00:00	2024-11-08T13:00:00	7	Dirección del viento	9.66
70615	7	Sololá	704	Santa Lucía Utatlán 	7	Santa Rita 	1	Enero	2023-01-14T00:00:00	2024-11-08T13:00:00	1	Precipitación	0
70616	7	Sololá	704	Santa Lucía Utatlán 	7	Santa Rita 	1	Enero	2023-01-14T00:00:00	2024-11-08T13:00:00	8	Radiación solar	829
70617	7	Sololá	704	Santa Lucía Utatlán 	7	Santa Rita 	1	Enero	2023-01-14T00:00:00	2024-11-08T14:00:00	2	Temperatura media	23.2
70618	7	Sololá	704	Santa Lucía Utatlán 	7	Santa Rita 	1	Enero	2023-01-14T00:00:00	2024-11-08T14:00:00	4	Temperatura máxima	23.9
70619	7	Sololá	704	Santa Lucía Utatlán 	7	Santa Rita 	1	Enero	2023-01-14T00:00:00	2024-11-08T14:00:00	3	Temperatura mínima	23.2
70620	7	Sololá	704	Santa Lucía Utatlán 	7	Santa Rita 	1	Enero	2023-01-14T00:00:00	2024-11-08T14:00:00	5	Humedad	36
70621	7	Sololá	704	Santa Lucía Utatlán 	7	Santa Rita 	1	Enero	2023-01-14T00:00:00	2024-11-08T14:00:00	6	Velocidad del viento	11.3
70622	7	Sololá	704	Santa Lucía Utatlán 	7	Santa Rita 	1	Enero	2023-01-14T00:00:00	2024-11-08T14:00:00	7	Dirección del viento	11.27
70623	7	Sololá	704	Santa Lucía Utatlán 	7	Santa Rita 	1	Enero	2023-01-14T00:00:00	2024-11-08T14:00:00	1	Precipitación	0
70624	7	Sololá	704	Santa Lucía Utatlán 	7	Santa Rita 	1	Enero	2023-01-14T00:00:00	2024-11-08T14:00:00	8	Radiación solar	772
70625	7	Sololá	704	Santa Lucía Utatlán 	7	Santa Rita 	1	Enero	2023-01-14T00:00:00	2024-11-08T15:00:00	2	Temperatura media	22.5
70626	7	Sololá	704	Santa Lucía Utatlán 	7	Santa Rita 	1	Enero	2023-01-14T00:00:00	2024-11-08T15:00:00	4	Temperatura máxima	23.2
70627	7	Sololá	704	Santa Lucía Utatlán 	7	Santa Rita 	1	Enero	2023-01-14T00:00:00	2024-11-08T15:00:00	3	Temperatura mínima	22.4
70628	7	Sololá	704	Santa Lucía Utatlán 	7	Santa Rita 	1	Enero	2023-01-14T00:00:00	2024-11-08T15:00:00	5	Humedad	33
70629	7	Sololá	704	Santa Lucía Utatlán 	7	Santa Rita 	1	Enero	2023-01-14T00:00:00	2024-11-08T15:00:00	6	Velocidad del viento	11.3
70630	7	Sololá	704	Santa Lucía Utatlán 	7	Santa Rita 	1	Enero	2023-01-14T00:00:00	2024-11-08T15:00:00	7	Dirección del viento	11.27
70631	7	Sololá	704	Santa Lucía Utatlán 	7	Santa Rita 	1	Enero	2023-01-14T00:00:00	2024-11-08T15:00:00	1	Precipitación	0
70632	7	Sololá	704	Santa Lucía Utatlán 	7	Santa Rita 	1	Enero	2023-01-14T00:00:00	2024-11-08T15:00:00	8	Radiación solar	645
70633	7	Sololá	704	Santa Lucía Utatlán 	7	Santa Rita 	1	Enero	2023-01-14T00:00:00	2024-11-08T16:00:00	2	Temperatura media	22.3
70634	7	Sololá	704	Santa Lucía Utatlán 	7	Santa Rita 	1	Enero	2023-01-14T00:00:00	2024-11-08T16:00:00	4	Temperatura máxima	22.7
70635	7	Sololá	704	Santa Lucía Utatlán 	7	Santa Rita 	1	Enero	2023-01-14T00:00:00	2024-11-08T16:00:00	3	Temperatura mínima	22.3
70636	7	Sololá	704	Santa Lucía Utatlán 	7	Santa Rita 	1	Enero	2023-01-14T00:00:00	2024-11-08T16:00:00	5	Humedad	40
70637	7	Sololá	704	Santa Lucía Utatlán 	7	Santa Rita 	1	Enero	2023-01-14T00:00:00	2024-11-08T16:00:00	6	Velocidad del viento	8
70638	7	Sololá	704	Santa Lucía Utatlán 	7	Santa Rita 	1	Enero	2023-01-14T00:00:00	2024-11-08T16:00:00	7	Dirección del viento	8.05
70639	7	Sololá	704	Santa Lucía Utatlán 	7	Santa Rita 	1	Enero	2023-01-14T00:00:00	2024-11-08T16:00:00	1	Precipitación	0
70640	7	Sololá	704	Santa Lucía Utatlán 	7	Santa Rita 	1	Enero	2023-01-14T00:00:00	2024-11-08T16:00:00	8	Radiación solar	437
70641	7	Sololá	704	Santa Lucía Utatlán 	7	Santa Rita 	1	Enero	2023-01-14T00:00:00	2024-11-08T17:00:00	2	Temperatura media	21.7
70642	7	Sololá	704	Santa Lucía Utatlán 	7	Santa Rita 	1	Enero	2023-01-14T00:00:00	2024-11-08T17:00:00	4	Temperatura máxima	22.3
70643	7	Sololá	704	Santa Lucía Utatlán 	7	Santa Rita 	1	Enero	2023-01-14T00:00:00	2024-11-08T17:00:00	3	Temperatura mínima	21.6
70644	7	Sololá	704	Santa Lucía Utatlán 	7	Santa Rita 	1	Enero	2023-01-14T00:00:00	2024-11-08T17:00:00	5	Humedad	33
70645	7	Sololá	704	Santa Lucía Utatlán 	7	Santa Rita 	1	Enero	2023-01-14T00:00:00	2024-11-08T17:00:00	6	Velocidad del viento	6.4
70646	7	Sololá	704	Santa Lucía Utatlán 	7	Santa Rita 	1	Enero	2023-01-14T00:00:00	2024-11-08T17:00:00	7	Dirección del viento	6.44
70647	7	Sololá	704	Santa Lucía Utatlán 	7	Santa Rita 	1	Enero	2023-01-14T00:00:00	2024-11-08T17:00:00	1	Precipitación	0
70648	7	Sololá	704	Santa Lucía Utatlán 	7	Santa Rita 	1	Enero	2023-01-14T00:00:00	2024-11-08T17:00:00	8	Radiación solar	190
70649	7	Sololá	704	Santa Lucía Utatlán 	7	Santa Rita 	1	Enero	2023-01-14T00:00:00	2024-11-08T18:00:00	2	Temperatura media	17.1
70650	7	Sololá	704	Santa Lucía Utatlán 	7	Santa Rita 	1	Enero	2023-01-14T00:00:00	2024-11-08T18:00:00	4	Temperatura máxima	21.7
70651	7	Sololá	704	Santa Lucía Utatlán 	7	Santa Rita 	1	Enero	2023-01-14T00:00:00	2024-11-08T18:00:00	3	Temperatura mínima	17.1
70652	7	Sololá	704	Santa Lucía Utatlán 	7	Santa Rita 	1	Enero	2023-01-14T00:00:00	2024-11-08T18:00:00	5	Humedad	44
70653	7	Sololá	704	Santa Lucía Utatlán 	7	Santa Rita 	1	Enero	2023-01-14T00:00:00	2024-11-08T18:00:00	6	Velocidad del viento	4.8
70654	7	Sololá	704	Santa Lucía Utatlán 	7	Santa Rita 	1	Enero	2023-01-14T00:00:00	2024-11-08T18:00:00	7	Dirección del viento	4.83
70655	7	Sololá	704	Santa Lucía Utatlán 	7	Santa Rita 	1	Enero	2023-01-14T00:00:00	2024-11-08T18:00:00	1	Precipitación	0
70656	7	Sololá	704	Santa Lucía Utatlán 	7	Santa Rita 	1	Enero	2023-01-14T00:00:00	2024-11-08T18:00:00	8	Radiación solar	14
70657	7	Sololá	704	Santa Lucía Utatlán 	7	Santa Rita 	1	Enero	2023-01-14T00:00:00	2024-11-08T19:00:00	2	Temperatura media	15.4
70658	7	Sololá	704	Santa Lucía Utatlán 	7	Santa Rita 	1	Enero	2023-01-14T00:00:00	2024-11-08T19:00:00	4	Temperatura máxima	17
70659	7	Sololá	704	Santa Lucía Utatlán 	7	Santa Rita 	1	Enero	2023-01-14T00:00:00	2024-11-08T19:00:00	3	Temperatura mínima	15.3
70660	7	Sololá	704	Santa Lucía Utatlán 	7	Santa Rita 	1	Enero	2023-01-14T00:00:00	2024-11-08T19:00:00	5	Humedad	39
70661	7	Sololá	704	Santa Lucía Utatlán 	7	Santa Rita 	1	Enero	2023-01-14T00:00:00	2024-11-08T19:00:00	6	Velocidad del viento	4.8
70662	7	Sololá	704	Santa Lucía Utatlán 	7	Santa Rita 	1	Enero	2023-01-14T00:00:00	2024-11-08T19:00:00	7	Dirección del viento	4.83
70663	7	Sololá	704	Santa Lucía Utatlán 	7	Santa Rita 	1	Enero	2023-01-14T00:00:00	2024-11-08T19:00:00	1	Precipitación	0
70664	7	Sololá	704	Santa Lucía Utatlán 	7	Santa Rita 	1	Enero	2023-01-14T00:00:00	2024-11-08T19:00:00	8	Radiación solar	0
70665	7	Sololá	704	Santa Lucía Utatlán 	7	Santa Rita 	1	Enero	2023-01-14T00:00:00	2024-11-08T20:00:00	2	Temperatura media	15.1
70666	7	Sololá	704	Santa Lucía Utatlán 	7	Santa Rita 	1	Enero	2023-01-14T00:00:00	2024-11-08T20:00:00	4	Temperatura máxima	15.4
70667	7	Sololá	704	Santa Lucía Utatlán 	7	Santa Rita 	1	Enero	2023-01-14T00:00:00	2024-11-08T20:00:00	3	Temperatura mínima	14.7
70668	7	Sololá	704	Santa Lucía Utatlán 	7	Santa Rita 	1	Enero	2023-01-14T00:00:00	2024-11-08T20:00:00	5	Humedad	33
70669	7	Sololá	704	Santa Lucía Utatlán 	7	Santa Rita 	1	Enero	2023-01-14T00:00:00	2024-11-08T20:00:00	6	Velocidad del viento	3.2
70670	7	Sololá	704	Santa Lucía Utatlán 	7	Santa Rita 	1	Enero	2023-01-14T00:00:00	2024-11-08T20:00:00	7	Dirección del viento	3.22
70671	7	Sololá	704	Santa Lucía Utatlán 	7	Santa Rita 	1	Enero	2023-01-14T00:00:00	2024-11-08T20:00:00	1	Precipitación	0
70672	7	Sololá	704	Santa Lucía Utatlán 	7	Santa Rita 	1	Enero	2023-01-14T00:00:00	2024-11-08T20:00:00	8	Radiación solar	0
70673	7	Sololá	704	Santa Lucía Utatlán 	7	Santa Rita 	1	Enero	2023-01-14T00:00:00	2024-11-08T21:00:00	2	Temperatura media	14.7
70674	7	Sololá	704	Santa Lucía Utatlán 	7	Santa Rita 	1	Enero	2023-01-14T00:00:00	2024-11-08T21:00:00	4	Temperatura máxima	15.1
70675	7	Sololá	704	Santa Lucía Utatlán 	7	Santa Rita 	1	Enero	2023-01-14T00:00:00	2024-11-08T21:00:00	3	Temperatura mínima	14.5
70676	7	Sololá	704	Santa Lucía Utatlán 	7	Santa Rita 	1	Enero	2023-01-14T00:00:00	2024-11-08T21:00:00	5	Humedad	30
70677	7	Sololá	704	Santa Lucía Utatlán 	7	Santa Rita 	1	Enero	2023-01-14T00:00:00	2024-11-08T21:00:00	6	Velocidad del viento	4.8
70678	7	Sololá	704	Santa Lucía Utatlán 	7	Santa Rita 	1	Enero	2023-01-14T00:00:00	2024-11-08T21:00:00	7	Dirección del viento	4.83
70679	7	Sololá	704	Santa Lucía Utatlán 	7	Santa Rita 	1	Enero	2023-01-14T00:00:00	2024-11-08T21:00:00	1	Precipitación	0
70680	7	Sololá	704	Santa Lucía Utatlán 	7	Santa Rita 	1	Enero	2023-01-14T00:00:00	2024-11-08T21:00:00	8	Radiación solar	0
70681	7	Sololá	704	Santa Lucía Utatlán 	7	Santa Rita 	1	Enero	2023-01-14T00:00:00	2024-11-08T22:00:00	2	Temperatura media	15.3
70682	7	Sololá	704	Santa Lucía Utatlán 	7	Santa Rita 	1	Enero	2023-01-14T00:00:00	2024-11-08T22:00:00	4	Temperatura máxima	15.3
70683	7	Sololá	704	Santa Lucía Utatlán 	7	Santa Rita 	1	Enero	2023-01-14T00:00:00	2024-11-08T22:00:00	3	Temperatura mínima	14.7
70684	7	Sololá	704	Santa Lucía Utatlán 	7	Santa Rita 	1	Enero	2023-01-14T00:00:00	2024-11-08T22:00:00	5	Humedad	30
70685	7	Sololá	704	Santa Lucía Utatlán 	7	Santa Rita 	1	Enero	2023-01-14T00:00:00	2024-11-08T22:00:00	6	Velocidad del viento	4.8
70686	7	Sololá	704	Santa Lucía Utatlán 	7	Santa Rita 	1	Enero	2023-01-14T00:00:00	2024-11-08T22:00:00	7	Dirección del viento	4.83
70687	7	Sololá	704	Santa Lucía Utatlán 	7	Santa Rita 	1	Enero	2023-01-14T00:00:00	2024-11-08T22:00:00	1	Precipitación	0
70688	7	Sololá	704	Santa Lucía Utatlán 	7	Santa Rita 	1	Enero	2023-01-14T00:00:00	2024-11-08T22:00:00	8	Radiación solar	0
70689	7	Sololá	704	Santa Lucía Utatlán 	7	Santa Rita 	1	Enero	2023-01-14T00:00:00	2024-11-08T23:00:00	2	Temperatura media	15.4
70690	7	Sololá	704	Santa Lucía Utatlán 	7	Santa Rita 	1	Enero	2023-01-14T00:00:00	2024-11-08T23:00:00	4	Temperatura máxima	15.6
70691	7	Sololá	704	Santa Lucía Utatlán 	7	Santa Rita 	1	Enero	2023-01-14T00:00:00	2024-11-08T23:00:00	3	Temperatura mínima	15.1
70692	7	Sololá	704	Santa Lucía Utatlán 	7	Santa Rita 	1	Enero	2023-01-14T00:00:00	2024-11-08T23:00:00	5	Humedad	22
70693	7	Sololá	704	Santa Lucía Utatlán 	7	Santa Rita 	1	Enero	2023-01-14T00:00:00	2024-11-08T23:00:00	6	Velocidad del viento	3.2
70694	7	Sololá	704	Santa Lucía Utatlán 	7	Santa Rita 	1	Enero	2023-01-14T00:00:00	2024-11-08T23:00:00	7	Dirección del viento	3.22
70695	7	Sololá	704	Santa Lucía Utatlán 	7	Santa Rita 	1	Enero	2023-01-14T00:00:00	2024-11-08T23:00:00	1	Precipitación	0
70696	7	Sololá	704	Santa Lucía Utatlán 	7	Santa Rita 	1	Enero	2023-01-14T00:00:00	2024-11-08T23:00:00	8	Radiación solar	0
70697	7	Sololá	704	Santa Lucía Utatlán 	7	Santa Rita 	1	Enero	2023-01-15T00:00:00	2024-11-08T00:00:00	2	Temperatura media	15
70698	7	Sololá	704	Santa Lucía Utatlán 	7	Santa Rita 	1	Enero	2023-01-15T00:00:00	2024-11-08T00:00:00	4	Temperatura máxima	15.6
70699	7	Sololá	704	Santa Lucía Utatlán 	7	Santa Rita 	1	Enero	2023-01-15T00:00:00	2024-11-08T00:00:00	3	Temperatura mínima	14.9
70700	7	Sololá	704	Santa Lucía Utatlán 	7	Santa Rita 	1	Enero	2023-01-15T00:00:00	2024-11-08T00:00:00	5	Humedad	26
70701	7	Sololá	704	Santa Lucía Utatlán 	7	Santa Rita 	1	Enero	2023-01-15T00:00:00	2024-11-08T00:00:00	6	Velocidad del viento	3.2
70702	7	Sololá	704	Santa Lucía Utatlán 	7	Santa Rita 	1	Enero	2023-01-15T00:00:00	2024-11-08T00:00:00	7	Dirección del viento	3.22
70703	7	Sololá	704	Santa Lucía Utatlán 	7	Santa Rita 	1	Enero	2023-01-15T00:00:00	2024-11-08T00:00:00	1	Precipitación	0
70704	7	Sololá	704	Santa Lucía Utatlán 	7	Santa Rita 	1	Enero	2023-01-15T00:00:00	2024-11-08T00:00:00	8	Radiación solar	0
70705	7	Sololá	704	Santa Lucía Utatlán 	7	Santa Rita 	1	Enero	2023-01-15T00:00:00	2024-11-08T01:00:00	2	Temperatura media	14.6
70706	7	Sololá	704	Santa Lucía Utatlán 	7	Santa Rita 	1	Enero	2023-01-15T00:00:00	2024-11-08T01:00:00	4	Temperatura máxima	15.2
70707	7	Sololá	704	Santa Lucía Utatlán 	7	Santa Rita 	1	Enero	2023-01-15T00:00:00	2024-11-08T01:00:00	3	Temperatura mínima	14.6
70708	7	Sololá	704	Santa Lucía Utatlán 	7	Santa Rita 	1	Enero	2023-01-15T00:00:00	2024-11-08T01:00:00	5	Humedad	43
70709	7	Sololá	704	Santa Lucía Utatlán 	7	Santa Rita 	1	Enero	2023-01-15T00:00:00	2024-11-08T01:00:00	6	Velocidad del viento	4.8
70710	7	Sololá	704	Santa Lucía Utatlán 	7	Santa Rita 	1	Enero	2023-01-15T00:00:00	2024-11-08T01:00:00	7	Dirección del viento	4.83
70711	7	Sololá	704	Santa Lucía Utatlán 	7	Santa Rita 	1	Enero	2023-01-15T00:00:00	2024-11-08T01:00:00	1	Precipitación	0
70712	7	Sololá	704	Santa Lucía Utatlán 	7	Santa Rita 	1	Enero	2023-01-15T00:00:00	2024-11-08T01:00:00	8	Radiación solar	0
70713	7	Sololá	704	Santa Lucía Utatlán 	7	Santa Rita 	1	Enero	2023-01-15T00:00:00	2024-11-08T02:00:00	2	Temperatura media	14.1
70714	7	Sololá	704	Santa Lucía Utatlán 	7	Santa Rita 	1	Enero	2023-01-15T00:00:00	2024-11-08T02:00:00	4	Temperatura máxima	15
70715	7	Sololá	704	Santa Lucía Utatlán 	7	Santa Rita 	1	Enero	2023-01-15T00:00:00	2024-11-08T02:00:00	3	Temperatura mínima	14.1
70716	7	Sololá	704	Santa Lucía Utatlán 	7	Santa Rita 	1	Enero	2023-01-15T00:00:00	2024-11-08T02:00:00	5	Humedad	51
70717	7	Sololá	704	Santa Lucía Utatlán 	7	Santa Rita 	1	Enero	2023-01-15T00:00:00	2024-11-08T02:00:00	6	Velocidad del viento	6.4
70718	7	Sololá	704	Santa Lucía Utatlán 	7	Santa Rita 	1	Enero	2023-01-15T00:00:00	2024-11-08T02:00:00	7	Dirección del viento	6.44
70719	7	Sololá	704	Santa Lucía Utatlán 	7	Santa Rita 	1	Enero	2023-01-15T00:00:00	2024-11-08T02:00:00	1	Precipitación	0
70720	7	Sololá	704	Santa Lucía Utatlán 	7	Santa Rita 	1	Enero	2023-01-15T00:00:00	2024-11-08T02:00:00	8	Radiación solar	0
70721	7	Sololá	704	Santa Lucía Utatlán 	7	Santa Rita 	1	Enero	2023-01-15T00:00:00	2024-11-08T03:00:00	2	Temperatura media	14.4
70722	7	Sololá	704	Santa Lucía Utatlán 	7	Santa Rita 	1	Enero	2023-01-15T00:00:00	2024-11-08T03:00:00	4	Temperatura máxima	14.8
70723	7	Sololá	704	Santa Lucía Utatlán 	7	Santa Rita 	1	Enero	2023-01-15T00:00:00	2024-11-08T03:00:00	3	Temperatura mínima	14.1
70724	7	Sololá	704	Santa Lucía Utatlán 	7	Santa Rita 	1	Enero	2023-01-15T00:00:00	2024-11-08T03:00:00	5	Humedad	54
70725	7	Sololá	704	Santa Lucía Utatlán 	7	Santa Rita 	1	Enero	2023-01-15T00:00:00	2024-11-08T03:00:00	6	Velocidad del viento	6.4
70726	7	Sololá	704	Santa Lucía Utatlán 	7	Santa Rita 	1	Enero	2023-01-15T00:00:00	2024-11-08T03:00:00	7	Dirección del viento	6.44
70727	7	Sololá	704	Santa Lucía Utatlán 	7	Santa Rita 	1	Enero	2023-01-15T00:00:00	2024-11-08T03:00:00	1	Precipitación	0
70728	7	Sololá	704	Santa Lucía Utatlán 	7	Santa Rita 	1	Enero	2023-01-15T00:00:00	2024-11-08T03:00:00	8	Radiación solar	0
70729	7	Sololá	704	Santa Lucía Utatlán 	7	Santa Rita 	1	Enero	2023-01-15T00:00:00	2024-11-08T04:00:00	2	Temperatura media	14.1
70730	7	Sololá	704	Santa Lucía Utatlán 	7	Santa Rita 	1	Enero	2023-01-15T00:00:00	2024-11-08T04:00:00	4	Temperatura máxima	14.5
70731	7	Sololá	704	Santa Lucía Utatlán 	7	Santa Rita 	1	Enero	2023-01-15T00:00:00	2024-11-08T04:00:00	3	Temperatura mínima	14
70732	7	Sololá	704	Santa Lucía Utatlán 	7	Santa Rita 	1	Enero	2023-01-15T00:00:00	2024-11-08T04:00:00	5	Humedad	56
70733	7	Sololá	704	Santa Lucía Utatlán 	7	Santa Rita 	1	Enero	2023-01-15T00:00:00	2024-11-08T04:00:00	6	Velocidad del viento	4.8
70734	7	Sololá	704	Santa Lucía Utatlán 	7	Santa Rita 	1	Enero	2023-01-15T00:00:00	2024-11-08T04:00:00	7	Dirección del viento	4.83
70735	7	Sololá	704	Santa Lucía Utatlán 	7	Santa Rita 	1	Enero	2023-01-15T00:00:00	2024-11-08T04:00:00	1	Precipitación	0
70736	7	Sololá	704	Santa Lucía Utatlán 	7	Santa Rita 	1	Enero	2023-01-15T00:00:00	2024-11-08T04:00:00	8	Radiación solar	0
70737	7	Sololá	704	Santa Lucía Utatlán 	7	Santa Rita 	1	Enero	2023-01-15T00:00:00	2024-11-08T05:00:00	2	Temperatura media	13.7
70738	7	Sololá	704	Santa Lucía Utatlán 	7	Santa Rita 	1	Enero	2023-01-15T00:00:00	2024-11-08T05:00:00	4	Temperatura máxima	14.1
70739	7	Sololá	704	Santa Lucía Utatlán 	7	Santa Rita 	1	Enero	2023-01-15T00:00:00	2024-11-08T05:00:00	3	Temperatura mínima	13.7
70740	7	Sololá	704	Santa Lucía Utatlán 	7	Santa Rita 	1	Enero	2023-01-15T00:00:00	2024-11-08T05:00:00	5	Humedad	57
70741	7	Sololá	704	Santa Lucía Utatlán 	7	Santa Rita 	1	Enero	2023-01-15T00:00:00	2024-11-08T05:00:00	6	Velocidad del viento	6.4
70742	7	Sololá	704	Santa Lucía Utatlán 	7	Santa Rita 	1	Enero	2023-01-15T00:00:00	2024-11-08T05:00:00	7	Dirección del viento	6.44
70743	7	Sololá	704	Santa Lucía Utatlán 	7	Santa Rita 	1	Enero	2023-01-15T00:00:00	2024-11-08T05:00:00	1	Precipitación	0
70744	7	Sololá	704	Santa Lucía Utatlán 	7	Santa Rita 	1	Enero	2023-01-15T00:00:00	2024-11-08T05:00:00	8	Radiación solar	0
70745	7	Sololá	704	Santa Lucía Utatlán 	7	Santa Rita 	1	Enero	2023-01-15T00:00:00	2024-11-08T06:00:00	2	Temperatura media	13.7
70746	7	Sololá	704	Santa Lucía Utatlán 	7	Santa Rita 	1	Enero	2023-01-15T00:00:00	2024-11-08T06:00:00	4	Temperatura máxima	14
70747	7	Sololá	704	Santa Lucía Utatlán 	7	Santa Rita 	1	Enero	2023-01-15T00:00:00	2024-11-08T06:00:00	3	Temperatura mínima	13.5
70748	7	Sololá	704	Santa Lucía Utatlán 	7	Santa Rita 	1	Enero	2023-01-15T00:00:00	2024-11-08T06:00:00	5	Humedad	61
70749	7	Sololá	704	Santa Lucía Utatlán 	7	Santa Rita 	1	Enero	2023-01-15T00:00:00	2024-11-08T06:00:00	6	Velocidad del viento	4.8
70750	7	Sololá	704	Santa Lucía Utatlán 	7	Santa Rita 	1	Enero	2023-01-15T00:00:00	2024-11-08T06:00:00	7	Dirección del viento	4.83
70751	7	Sololá	704	Santa Lucía Utatlán 	7	Santa Rita 	1	Enero	2023-01-15T00:00:00	2024-11-08T06:00:00	1	Precipitación	0
70752	7	Sololá	704	Santa Lucía Utatlán 	7	Santa Rita 	1	Enero	2023-01-15T00:00:00	2024-11-08T06:00:00	8	Radiación solar	0
70753	7	Sololá	704	Santa Lucía Utatlán 	7	Santa Rita 	1	Enero	2023-01-15T00:00:00	2024-11-08T07:00:00	2	Temperatura media	14.5
70754	7	Sololá	704	Santa Lucía Utatlán 	7	Santa Rita 	1	Enero	2023-01-15T00:00:00	2024-11-08T07:00:00	4	Temperatura máxima	14.5
70755	7	Sololá	704	Santa Lucía Utatlán 	7	Santa Rita 	1	Enero	2023-01-15T00:00:00	2024-11-08T07:00:00	3	Temperatura mínima	13.3
70756	7	Sololá	704	Santa Lucía Utatlán 	7	Santa Rita 	1	Enero	2023-01-15T00:00:00	2024-11-08T07:00:00	5	Humedad	59
70757	7	Sololá	704	Santa Lucía Utatlán 	7	Santa Rita 	1	Enero	2023-01-15T00:00:00	2024-11-08T07:00:00	6	Velocidad del viento	4.8
70758	7	Sololá	704	Santa Lucía Utatlán 	7	Santa Rita 	1	Enero	2023-01-15T00:00:00	2024-11-08T07:00:00	7	Dirección del viento	4.83
70759	7	Sololá	704	Santa Lucía Utatlán 	7	Santa Rita 	1	Enero	2023-01-15T00:00:00	2024-11-08T07:00:00	1	Precipitación	0
70760	7	Sololá	704	Santa Lucía Utatlán 	7	Santa Rita 	1	Enero	2023-01-15T00:00:00	2024-11-08T07:00:00	8	Radiación solar	5
70761	7	Sololá	704	Santa Lucía Utatlán 	7	Santa Rita 	1	Enero	2023-01-15T00:00:00	2024-11-08T08:00:00	2	Temperatura media	19.7
70762	7	Sololá	704	Santa Lucía Utatlán 	7	Santa Rita 	1	Enero	2023-01-15T00:00:00	2024-11-08T08:00:00	4	Temperatura máxima	19.7
70763	7	Sololá	704	Santa Lucía Utatlán 	7	Santa Rita 	1	Enero	2023-01-15T00:00:00	2024-11-08T08:00:00	3	Temperatura mínima	14.6
70764	7	Sololá	704	Santa Lucía Utatlán 	7	Santa Rita 	1	Enero	2023-01-15T00:00:00	2024-11-08T08:00:00	5	Humedad	48
70765	7	Sololá	704	Santa Lucía Utatlán 	7	Santa Rita 	1	Enero	2023-01-15T00:00:00	2024-11-08T08:00:00	6	Velocidad del viento	1.6
70766	7	Sololá	704	Santa Lucía Utatlán 	7	Santa Rita 	1	Enero	2023-01-15T00:00:00	2024-11-08T08:00:00	7	Dirección del viento	1.61
70767	7	Sololá	704	Santa Lucía Utatlán 	7	Santa Rita 	1	Enero	2023-01-15T00:00:00	2024-11-08T08:00:00	1	Precipitación	0
70768	7	Sololá	704	Santa Lucía Utatlán 	7	Santa Rita 	1	Enero	2023-01-15T00:00:00	2024-11-08T08:00:00	8	Radiación solar	130
70769	7	Sololá	704	Santa Lucía Utatlán 	7	Santa Rita 	1	Enero	2023-01-15T00:00:00	2024-11-08T09:00:00	2	Temperatura media	21.8
70770	7	Sololá	704	Santa Lucía Utatlán 	7	Santa Rita 	1	Enero	2023-01-15T00:00:00	2024-11-08T09:00:00	4	Temperatura máxima	22
70771	7	Sololá	704	Santa Lucía Utatlán 	7	Santa Rita 	1	Enero	2023-01-15T00:00:00	2024-11-08T09:00:00	3	Temperatura mínima	19.7
70772	7	Sololá	704	Santa Lucía Utatlán 	7	Santa Rita 	1	Enero	2023-01-15T00:00:00	2024-11-08T09:00:00	5	Humedad	37
70773	7	Sololá	704	Santa Lucía Utatlán 	7	Santa Rita 	1	Enero	2023-01-15T00:00:00	2024-11-08T09:00:00	6	Velocidad del viento	3.2
70774	7	Sololá	704	Santa Lucía Utatlán 	7	Santa Rita 	1	Enero	2023-01-15T00:00:00	2024-11-08T09:00:00	7	Dirección del viento	3.22
70775	7	Sololá	704	Santa Lucía Utatlán 	7	Santa Rita 	1	Enero	2023-01-15T00:00:00	2024-11-08T09:00:00	1	Precipitación	0
70776	7	Sololá	704	Santa Lucía Utatlán 	7	Santa Rita 	1	Enero	2023-01-15T00:00:00	2024-11-08T09:00:00	8	Radiación solar	372
70777	7	Sololá	704	Santa Lucía Utatlán 	7	Santa Rita 	1	Enero	2023-01-15T00:00:00	2024-11-08T10:00:00	2	Temperatura media	23.4
70778	7	Sololá	704	Santa Lucía Utatlán 	7	Santa Rita 	1	Enero	2023-01-15T00:00:00	2024-11-08T10:00:00	4	Temperatura máxima	23.4
70779	7	Sololá	704	Santa Lucía Utatlán 	7	Santa Rita 	1	Enero	2023-01-15T00:00:00	2024-11-08T10:00:00	3	Temperatura mínima	21.8
70780	7	Sololá	704	Santa Lucía Utatlán 	7	Santa Rita 	1	Enero	2023-01-15T00:00:00	2024-11-08T10:00:00	5	Humedad	33
70781	7	Sololá	704	Santa Lucía Utatlán 	7	Santa Rita 	1	Enero	2023-01-15T00:00:00	2024-11-08T10:00:00	6	Velocidad del viento	4.8
70782	7	Sololá	704	Santa Lucía Utatlán 	7	Santa Rita 	1	Enero	2023-01-15T00:00:00	2024-11-08T10:00:00	7	Dirección del viento	4.83
70783	7	Sololá	704	Santa Lucía Utatlán 	7	Santa Rita 	1	Enero	2023-01-15T00:00:00	2024-11-08T10:00:00	1	Precipitación	0
70784	7	Sololá	704	Santa Lucía Utatlán 	7	Santa Rita 	1	Enero	2023-01-15T00:00:00	2024-11-08T10:00:00	8	Radiación solar	569
70785	7	Sololá	704	Santa Lucía Utatlán 	7	Santa Rita 	1	Enero	2023-01-15T00:00:00	2024-11-08T11:00:00	2	Temperatura media	23.7
70786	7	Sololá	704	Santa Lucía Utatlán 	7	Santa Rita 	1	Enero	2023-01-15T00:00:00	2024-11-08T11:00:00	4	Temperatura máxima	24.1
70787	7	Sololá	704	Santa Lucía Utatlán 	7	Santa Rita 	1	Enero	2023-01-15T00:00:00	2024-11-08T11:00:00	3	Temperatura mínima	23.3
70788	7	Sololá	704	Santa Lucía Utatlán 	7	Santa Rita 	1	Enero	2023-01-15T00:00:00	2024-11-08T11:00:00	5	Humedad	37
70789	7	Sololá	704	Santa Lucía Utatlán 	7	Santa Rita 	1	Enero	2023-01-15T00:00:00	2024-11-08T11:00:00	6	Velocidad del viento	8
70790	7	Sololá	704	Santa Lucía Utatlán 	7	Santa Rita 	1	Enero	2023-01-15T00:00:00	2024-11-08T11:00:00	7	Dirección del viento	8.05
70791	7	Sololá	704	Santa Lucía Utatlán 	7	Santa Rita 	1	Enero	2023-01-15T00:00:00	2024-11-08T11:00:00	1	Precipitación	0
70792	7	Sololá	704	Santa Lucía Utatlán 	7	Santa Rita 	1	Enero	2023-01-15T00:00:00	2024-11-08T11:00:00	8	Radiación solar	717
70793	7	Sololá	704	Santa Lucía Utatlán 	7	Santa Rita 	1	Enero	2023-01-15T00:00:00	2024-11-08T12:00:00	2	Temperatura media	23.6
70794	7	Sololá	704	Santa Lucía Utatlán 	7	Santa Rita 	1	Enero	2023-01-15T00:00:00	2024-11-08T12:00:00	4	Temperatura máxima	24.5
70795	7	Sololá	704	Santa Lucía Utatlán 	7	Santa Rita 	1	Enero	2023-01-15T00:00:00	2024-11-08T12:00:00	3	Temperatura mínima	23.4
70796	7	Sololá	704	Santa Lucía Utatlán 	7	Santa Rita 	1	Enero	2023-01-15T00:00:00	2024-11-08T12:00:00	5	Humedad	37
70797	7	Sololá	704	Santa Lucía Utatlán 	7	Santa Rita 	1	Enero	2023-01-15T00:00:00	2024-11-08T12:00:00	6	Velocidad del viento	9.7
70798	7	Sololá	704	Santa Lucía Utatlán 	7	Santa Rita 	1	Enero	2023-01-15T00:00:00	2024-11-08T12:00:00	7	Dirección del viento	9.66
70799	7	Sololá	704	Santa Lucía Utatlán 	7	Santa Rita 	1	Enero	2023-01-15T00:00:00	2024-11-08T12:00:00	1	Precipitación	0
70800	7	Sololá	704	Santa Lucía Utatlán 	7	Santa Rita 	1	Enero	2023-01-15T00:00:00	2024-11-08T12:00:00	8	Radiación solar	803
70801	7	Sololá	704	Santa Lucía Utatlán 	7	Santa Rita 	1	Enero	2023-01-15T00:00:00	2024-11-08T13:00:00	2	Temperatura media	24.1
70802	7	Sololá	704	Santa Lucía Utatlán 	7	Santa Rita 	1	Enero	2023-01-15T00:00:00	2024-11-08T13:00:00	4	Temperatura máxima	24.8
70803	7	Sololá	704	Santa Lucía Utatlán 	7	Santa Rita 	1	Enero	2023-01-15T00:00:00	2024-11-08T13:00:00	3	Temperatura mínima	23.7
70804	7	Sololá	704	Santa Lucía Utatlán 	7	Santa Rita 	1	Enero	2023-01-15T00:00:00	2024-11-08T13:00:00	5	Humedad	43
70805	7	Sololá	704	Santa Lucía Utatlán 	7	Santa Rita 	1	Enero	2023-01-15T00:00:00	2024-11-08T13:00:00	6	Velocidad del viento	9.7
70806	7	Sololá	704	Santa Lucía Utatlán 	7	Santa Rita 	1	Enero	2023-01-15T00:00:00	2024-11-08T13:00:00	7	Dirección del viento	9.66
70807	7	Sololá	704	Santa Lucía Utatlán 	7	Santa Rita 	1	Enero	2023-01-15T00:00:00	2024-11-08T13:00:00	1	Precipitación	0
70808	7	Sololá	704	Santa Lucía Utatlán 	7	Santa Rita 	1	Enero	2023-01-15T00:00:00	2024-11-08T13:00:00	8	Radiación solar	817
70809	7	Sololá	704	Santa Lucía Utatlán 	7	Santa Rita 	1	Enero	2023-01-15T00:00:00	2024-11-08T14:00:00	2	Temperatura media	22.6
70810	7	Sololá	704	Santa Lucía Utatlán 	7	Santa Rita 	1	Enero	2023-01-15T00:00:00	2024-11-08T14:00:00	4	Temperatura máxima	24.3
70811	7	Sololá	704	Santa Lucía Utatlán 	7	Santa Rita 	1	Enero	2023-01-15T00:00:00	2024-11-08T14:00:00	3	Temperatura mínima	22.5
70812	7	Sololá	704	Santa Lucía Utatlán 	7	Santa Rita 	1	Enero	2023-01-15T00:00:00	2024-11-08T14:00:00	5	Humedad	60
70813	7	Sololá	704	Santa Lucía Utatlán 	7	Santa Rita 	1	Enero	2023-01-15T00:00:00	2024-11-08T14:00:00	6	Velocidad del viento	9.7
70814	7	Sololá	704	Santa Lucía Utatlán 	7	Santa Rita 	1	Enero	2023-01-15T00:00:00	2024-11-08T14:00:00	7	Dirección del viento	9.66
70815	7	Sololá	704	Santa Lucía Utatlán 	7	Santa Rita 	1	Enero	2023-01-15T00:00:00	2024-11-08T14:00:00	1	Precipitación	0
70816	7	Sololá	704	Santa Lucía Utatlán 	7	Santa Rita 	1	Enero	2023-01-15T00:00:00	2024-11-08T14:00:00	8	Radiación solar	756
70817	7	Sololá	704	Santa Lucía Utatlán 	7	Santa Rita 	1	Enero	2023-01-15T00:00:00	2024-11-08T15:00:00	2	Temperatura media	21.3
70818	7	Sololá	704	Santa Lucía Utatlán 	7	Santa Rita 	1	Enero	2023-01-15T00:00:00	2024-11-08T15:00:00	4	Temperatura máxima	22.5
70819	7	Sololá	704	Santa Lucía Utatlán 	7	Santa Rita 	1	Enero	2023-01-15T00:00:00	2024-11-08T15:00:00	3	Temperatura mínima	21
70820	7	Sololá	704	Santa Lucía Utatlán 	7	Santa Rita 	1	Enero	2023-01-15T00:00:00	2024-11-08T15:00:00	5	Humedad	68
70821	7	Sololá	704	Santa Lucía Utatlán 	7	Santa Rita 	1	Enero	2023-01-15T00:00:00	2024-11-08T15:00:00	6	Velocidad del viento	6.4
70822	7	Sololá	704	Santa Lucía Utatlán 	7	Santa Rita 	1	Enero	2023-01-15T00:00:00	2024-11-08T15:00:00	7	Dirección del viento	6.44
70823	7	Sololá	704	Santa Lucía Utatlán 	7	Santa Rita 	1	Enero	2023-01-15T00:00:00	2024-11-08T15:00:00	1	Precipitación	0
70824	7	Sololá	704	Santa Lucía Utatlán 	7	Santa Rita 	1	Enero	2023-01-15T00:00:00	2024-11-08T15:00:00	8	Radiación solar	271
70825	7	Sololá	704	Santa Lucía Utatlán 	7	Santa Rita 	1	Enero	2023-01-15T00:00:00	2024-11-08T16:00:00	2	Temperatura media	19.1
70826	7	Sololá	704	Santa Lucía Utatlán 	7	Santa Rita 	1	Enero	2023-01-15T00:00:00	2024-11-08T16:00:00	4	Temperatura máxima	21.3
70827	7	Sololá	704	Santa Lucía Utatlán 	7	Santa Rita 	1	Enero	2023-01-15T00:00:00	2024-11-08T16:00:00	3	Temperatura mínima	18.9
70828	7	Sololá	704	Santa Lucía Utatlán 	7	Santa Rita 	1	Enero	2023-01-15T00:00:00	2024-11-08T16:00:00	5	Humedad	80
70829	7	Sololá	704	Santa Lucía Utatlán 	7	Santa Rita 	1	Enero	2023-01-15T00:00:00	2024-11-08T16:00:00	6	Velocidad del viento	6.4
70830	7	Sololá	704	Santa Lucía Utatlán 	7	Santa Rita 	1	Enero	2023-01-15T00:00:00	2024-11-08T16:00:00	7	Dirección del viento	6.44
70831	7	Sololá	704	Santa Lucía Utatlán 	7	Santa Rita 	1	Enero	2023-01-15T00:00:00	2024-11-08T16:00:00	1	Precipitación	0
70832	7	Sololá	704	Santa Lucía Utatlán 	7	Santa Rita 	1	Enero	2023-01-15T00:00:00	2024-11-08T16:00:00	8	Radiación solar	104
70833	7	Sololá	704	Santa Lucía Utatlán 	7	Santa Rita 	1	Enero	2023-01-15T00:00:00	2024-11-08T17:00:00	2	Temperatura media	18.6
70834	7	Sololá	704	Santa Lucía Utatlán 	7	Santa Rita 	1	Enero	2023-01-15T00:00:00	2024-11-08T17:00:00	4	Temperatura máxima	19.1
70835	7	Sololá	704	Santa Lucía Utatlán 	7	Santa Rita 	1	Enero	2023-01-15T00:00:00	2024-11-08T17:00:00	3	Temperatura mínima	18.3
70836	7	Sololá	704	Santa Lucía Utatlán 	7	Santa Rita 	1	Enero	2023-01-15T00:00:00	2024-11-08T17:00:00	5	Humedad	84
70837	7	Sololá	704	Santa Lucía Utatlán 	7	Santa Rita 	1	Enero	2023-01-15T00:00:00	2024-11-08T17:00:00	6	Velocidad del viento	4.8
70838	7	Sololá	704	Santa Lucía Utatlán 	7	Santa Rita 	1	Enero	2023-01-15T00:00:00	2024-11-08T17:00:00	7	Dirección del viento	4.83
70839	7	Sololá	704	Santa Lucía Utatlán 	7	Santa Rita 	1	Enero	2023-01-15T00:00:00	2024-11-08T17:00:00	1	Precipitación	0
70840	7	Sololá	704	Santa Lucía Utatlán 	7	Santa Rita 	1	Enero	2023-01-15T00:00:00	2024-11-08T17:00:00	8	Radiación solar	63
70841	7	Sololá	704	Santa Lucía Utatlán 	7	Santa Rita 	1	Enero	2023-01-15T00:00:00	2024-11-08T18:00:00	2	Temperatura media	17.9
70842	7	Sololá	704	Santa Lucía Utatlán 	7	Santa Rita 	1	Enero	2023-01-15T00:00:00	2024-11-08T18:00:00	4	Temperatura máxima	18.6
70843	7	Sololá	704	Santa Lucía Utatlán 	7	Santa Rita 	1	Enero	2023-01-15T00:00:00	2024-11-08T18:00:00	3	Temperatura mínima	17.9
70844	7	Sololá	704	Santa Lucía Utatlán 	7	Santa Rita 	1	Enero	2023-01-15T00:00:00	2024-11-08T18:00:00	5	Humedad	86
70845	7	Sololá	704	Santa Lucía Utatlán 	7	Santa Rita 	1	Enero	2023-01-15T00:00:00	2024-11-08T18:00:00	6	Velocidad del viento	1.6
70846	7	Sololá	704	Santa Lucía Utatlán 	7	Santa Rita 	1	Enero	2023-01-15T00:00:00	2024-11-08T18:00:00	7	Dirección del viento	1.61
70847	7	Sololá	704	Santa Lucía Utatlán 	7	Santa Rita 	1	Enero	2023-01-15T00:00:00	2024-11-08T18:00:00	1	Precipitación	0
70848	7	Sololá	704	Santa Lucía Utatlán 	7	Santa Rita 	1	Enero	2023-01-15T00:00:00	2024-11-08T18:00:00	8	Radiación solar	22
70849	7	Sololá	704	Santa Lucía Utatlán 	7	Santa Rita 	1	Enero	2023-01-15T00:00:00	2024-11-08T19:00:00	2	Temperatura media	16.8
70850	7	Sololá	704	Santa Lucía Utatlán 	7	Santa Rita 	1	Enero	2023-01-15T00:00:00	2024-11-08T19:00:00	4	Temperatura máxima	17.9
70851	7	Sololá	704	Santa Lucía Utatlán 	7	Santa Rita 	1	Enero	2023-01-15T00:00:00	2024-11-08T19:00:00	3	Temperatura mínima	16.6
70852	7	Sololá	704	Santa Lucía Utatlán 	7	Santa Rita 	1	Enero	2023-01-15T00:00:00	2024-11-08T19:00:00	5	Humedad	89
70853	7	Sololá	704	Santa Lucía Utatlán 	7	Santa Rita 	1	Enero	2023-01-15T00:00:00	2024-11-08T19:00:00	6	Velocidad del viento	1.6
70854	7	Sololá	704	Santa Lucía Utatlán 	7	Santa Rita 	1	Enero	2023-01-15T00:00:00	2024-11-08T19:00:00	7	Dirección del viento	1.61
70855	7	Sololá	704	Santa Lucía Utatlán 	7	Santa Rita 	1	Enero	2023-01-15T00:00:00	2024-11-08T19:00:00	1	Precipitación	0
70856	7	Sololá	704	Santa Lucía Utatlán 	7	Santa Rita 	1	Enero	2023-01-15T00:00:00	2024-11-08T19:00:00	8	Radiación solar	0
70857	7	Sololá	704	Santa Lucía Utatlán 	7	Santa Rita 	1	Enero	2023-01-15T00:00:00	2024-11-08T20:00:00	2	Temperatura media	16.2
70858	7	Sololá	704	Santa Lucía Utatlán 	7	Santa Rita 	1	Enero	2023-01-15T00:00:00	2024-11-08T20:00:00	4	Temperatura máxima	17.1
70859	7	Sololá	704	Santa Lucía Utatlán 	7	Santa Rita 	1	Enero	2023-01-15T00:00:00	2024-11-08T20:00:00	3	Temperatura mínima	16.2
70860	7	Sololá	704	Santa Lucía Utatlán 	7	Santa Rita 	1	Enero	2023-01-15T00:00:00	2024-11-08T20:00:00	5	Humedad	88
70861	7	Sololá	704	Santa Lucía Utatlán 	7	Santa Rita 	1	Enero	2023-01-15T00:00:00	2024-11-08T20:00:00	6	Velocidad del viento	1.6
70862	7	Sololá	704	Santa Lucía Utatlán 	7	Santa Rita 	1	Enero	2023-01-15T00:00:00	2024-11-08T20:00:00	7	Dirección del viento	1.61
70863	7	Sololá	704	Santa Lucía Utatlán 	7	Santa Rita 	1	Enero	2023-01-15T00:00:00	2024-11-08T20:00:00	1	Precipitación	0
70864	7	Sololá	704	Santa Lucía Utatlán 	7	Santa Rita 	1	Enero	2023-01-15T00:00:00	2024-11-08T20:00:00	8	Radiación solar	0
70865	7	Sololá	704	Santa Lucía Utatlán 	7	Santa Rita 	1	Enero	2023-01-15T00:00:00	2024-11-08T21:00:00	2	Temperatura media	15.2
70866	7	Sololá	704	Santa Lucía Utatlán 	7	Santa Rita 	1	Enero	2023-01-15T00:00:00	2024-11-08T21:00:00	4	Temperatura máxima	16.2
70867	7	Sololá	704	Santa Lucía Utatlán 	7	Santa Rita 	1	Enero	2023-01-15T00:00:00	2024-11-08T21:00:00	3	Temperatura mínima	15.1
70868	7	Sololá	704	Santa Lucía Utatlán 	7	Santa Rita 	1	Enero	2023-01-15T00:00:00	2024-11-08T21:00:00	5	Humedad	89
70869	7	Sololá	704	Santa Lucía Utatlán 	7	Santa Rita 	1	Enero	2023-01-15T00:00:00	2024-11-08T21:00:00	6	Velocidad del viento	3.2
70870	7	Sololá	704	Santa Lucía Utatlán 	7	Santa Rita 	1	Enero	2023-01-15T00:00:00	2024-11-08T21:00:00	7	Dirección del viento	3.22
70871	7	Sololá	704	Santa Lucía Utatlán 	7	Santa Rita 	1	Enero	2023-01-15T00:00:00	2024-11-08T21:00:00	1	Precipitación	0
70872	7	Sololá	704	Santa Lucía Utatlán 	7	Santa Rita 	1	Enero	2023-01-15T00:00:00	2024-11-08T21:00:00	8	Radiación solar	0
70873	7	Sololá	704	Santa Lucía Utatlán 	7	Santa Rita 	1	Enero	2023-01-15T00:00:00	2024-11-08T22:00:00	2	Temperatura media	14.7
70874	7	Sololá	704	Santa Lucía Utatlán 	7	Santa Rita 	1	Enero	2023-01-15T00:00:00	2024-11-08T22:00:00	4	Temperatura máxima	15.1
70875	7	Sololá	704	Santa Lucía Utatlán 	7	Santa Rita 	1	Enero	2023-01-15T00:00:00	2024-11-08T22:00:00	3	Temperatura mínima	14.6
70876	7	Sololá	704	Santa Lucía Utatlán 	7	Santa Rita 	1	Enero	2023-01-15T00:00:00	2024-11-08T22:00:00	5	Humedad	90
70877	7	Sololá	704	Santa Lucía Utatlán 	7	Santa Rita 	1	Enero	2023-01-15T00:00:00	2024-11-08T22:00:00	6	Velocidad del viento	3.2
70878	7	Sololá	704	Santa Lucía Utatlán 	7	Santa Rita 	1	Enero	2023-01-15T00:00:00	2024-11-08T22:00:00	7	Dirección del viento	3.22
70879	7	Sololá	704	Santa Lucía Utatlán 	7	Santa Rita 	1	Enero	2023-01-15T00:00:00	2024-11-08T22:00:00	1	Precipitación	0
70880	7	Sololá	704	Santa Lucía Utatlán 	7	Santa Rita 	1	Enero	2023-01-15T00:00:00	2024-11-08T22:00:00	8	Radiación solar	0
70881	7	Sololá	704	Santa Lucía Utatlán 	7	Santa Rita 	1	Enero	2023-01-15T00:00:00	2024-11-08T23:00:00	2	Temperatura media	14.6
70882	7	Sololá	704	Santa Lucía Utatlán 	7	Santa Rita 	1	Enero	2023-01-15T00:00:00	2024-11-08T23:00:00	4	Temperatura máxima	14.7
70883	7	Sololá	704	Santa Lucía Utatlán 	7	Santa Rita 	1	Enero	2023-01-15T00:00:00	2024-11-08T23:00:00	3	Temperatura mínima	14.4
70884	7	Sololá	704	Santa Lucía Utatlán 	7	Santa Rita 	1	Enero	2023-01-15T00:00:00	2024-11-08T23:00:00	5	Humedad	91
70885	7	Sololá	704	Santa Lucía Utatlán 	7	Santa Rita 	1	Enero	2023-01-15T00:00:00	2024-11-08T23:00:00	6	Velocidad del viento	3.2
70886	7	Sololá	704	Santa Lucía Utatlán 	7	Santa Rita 	1	Enero	2023-01-15T00:00:00	2024-11-08T23:00:00	7	Dirección del viento	3.22
70887	7	Sololá	704	Santa Lucía Utatlán 	7	Santa Rita 	1	Enero	2023-01-15T00:00:00	2024-11-08T23:00:00	1	Precipitación	0
70888	7	Sololá	704	Santa Lucía Utatlán 	7	Santa Rita 	1	Enero	2023-01-15T00:00:00	2024-11-08T23:00:00	8	Radiación solar	0
70889	7	Sololá	704	Santa Lucía Utatlán 	7	Santa Rita 	1	Enero	2023-01-16T00:00:00	2024-11-08T00:00:00	2	Temperatura media	15.8
70890	7	Sololá	704	Santa Lucía Utatlán 	7	Santa Rita 	1	Enero	2023-01-16T00:00:00	2024-11-08T00:00:00	4	Temperatura máxima	15.8
70891	7	Sololá	704	Santa Lucía Utatlán 	7	Santa Rita 	1	Enero	2023-01-16T00:00:00	2024-11-08T00:00:00	3	Temperatura mínima	14.6
70892	7	Sololá	704	Santa Lucía Utatlán 	7	Santa Rita 	1	Enero	2023-01-16T00:00:00	2024-11-08T00:00:00	5	Humedad	91
70893	7	Sololá	704	Santa Lucía Utatlán 	7	Santa Rita 	1	Enero	2023-01-16T00:00:00	2024-11-08T00:00:00	6	Velocidad del viento	1.6
70894	7	Sololá	704	Santa Lucía Utatlán 	7	Santa Rita 	1	Enero	2023-01-16T00:00:00	2024-11-08T00:00:00	7	Dirección del viento	1.61
70895	7	Sololá	704	Santa Lucía Utatlán 	7	Santa Rita 	1	Enero	2023-01-16T00:00:00	2024-11-08T00:00:00	1	Precipitación	0
70896	7	Sololá	704	Santa Lucía Utatlán 	7	Santa Rita 	1	Enero	2023-01-16T00:00:00	2024-11-08T00:00:00	8	Radiación solar	0
70897	7	Sololá	704	Santa Lucía Utatlán 	7	Santa Rita 	1	Enero	2023-01-16T00:00:00	2024-11-08T01:00:00	2	Temperatura media	15.8
70898	7	Sololá	704	Santa Lucía Utatlán 	7	Santa Rita 	1	Enero	2023-01-16T00:00:00	2024-11-08T01:00:00	4	Temperatura máxima	16.3
70899	7	Sololá	704	Santa Lucía Utatlán 	7	Santa Rita 	1	Enero	2023-01-16T00:00:00	2024-11-08T01:00:00	3	Temperatura mínima	15.8
70900	7	Sololá	704	Santa Lucía Utatlán 	7	Santa Rita 	1	Enero	2023-01-16T00:00:00	2024-11-08T01:00:00	5	Humedad	86
70901	7	Sololá	704	Santa Lucía Utatlán 	7	Santa Rita 	1	Enero	2023-01-16T00:00:00	2024-11-08T01:00:00	6	Velocidad del viento	1.6
70902	7	Sololá	704	Santa Lucía Utatlán 	7	Santa Rita 	1	Enero	2023-01-16T00:00:00	2024-11-08T01:00:00	7	Dirección del viento	1.61
70903	7	Sololá	704	Santa Lucía Utatlán 	7	Santa Rita 	1	Enero	2023-01-16T00:00:00	2024-11-08T01:00:00	1	Precipitación	0
70904	7	Sololá	704	Santa Lucía Utatlán 	7	Santa Rita 	1	Enero	2023-01-16T00:00:00	2024-11-08T01:00:00	8	Radiación solar	0
70905	7	Sololá	704	Santa Lucía Utatlán 	7	Santa Rita 	1	Enero	2023-01-16T00:00:00	2024-11-08T02:00:00	2	Temperatura media	13.7
70906	7	Sololá	704	Santa Lucía Utatlán 	7	Santa Rita 	1	Enero	2023-01-16T00:00:00	2024-11-08T02:00:00	4	Temperatura máxima	15.7
70907	7	Sololá	704	Santa Lucía Utatlán 	7	Santa Rita 	1	Enero	2023-01-16T00:00:00	2024-11-08T02:00:00	3	Temperatura mínima	13.7
70908	7	Sololá	704	Santa Lucía Utatlán 	7	Santa Rita 	1	Enero	2023-01-16T00:00:00	2024-11-08T02:00:00	5	Humedad	89
70909	7	Sololá	704	Santa Lucía Utatlán 	7	Santa Rita 	1	Enero	2023-01-16T00:00:00	2024-11-08T02:00:00	6	Velocidad del viento	4.8
70910	7	Sololá	704	Santa Lucía Utatlán 	7	Santa Rita 	1	Enero	2023-01-16T00:00:00	2024-11-08T02:00:00	7	Dirección del viento	4.83
70911	7	Sololá	704	Santa Lucía Utatlán 	7	Santa Rita 	1	Enero	2023-01-16T00:00:00	2024-11-08T02:00:00	1	Precipitación	0
70912	7	Sololá	704	Santa Lucía Utatlán 	7	Santa Rita 	1	Enero	2023-01-16T00:00:00	2024-11-08T02:00:00	8	Radiación solar	0
70913	7	Sololá	704	Santa Lucía Utatlán 	7	Santa Rita 	1	Enero	2023-01-16T00:00:00	2024-11-08T03:00:00	2	Temperatura media	13.2
70914	7	Sololá	704	Santa Lucía Utatlán 	7	Santa Rita 	1	Enero	2023-01-16T00:00:00	2024-11-08T03:00:00	4	Temperatura máxima	13.7
70915	7	Sololá	704	Santa Lucía Utatlán 	7	Santa Rita 	1	Enero	2023-01-16T00:00:00	2024-11-08T03:00:00	3	Temperatura mínima	13.2
70916	7	Sololá	704	Santa Lucía Utatlán 	7	Santa Rita 	1	Enero	2023-01-16T00:00:00	2024-11-08T03:00:00	5	Humedad	91
70917	7	Sololá	704	Santa Lucía Utatlán 	7	Santa Rita 	1	Enero	2023-01-16T00:00:00	2024-11-08T03:00:00	6	Velocidad del viento	4.8
70918	7	Sololá	704	Santa Lucía Utatlán 	7	Santa Rita 	1	Enero	2023-01-16T00:00:00	2024-11-08T03:00:00	7	Dirección del viento	4.83
70919	7	Sololá	704	Santa Lucía Utatlán 	7	Santa Rita 	1	Enero	2023-01-16T00:00:00	2024-11-08T03:00:00	1	Precipitación	0
70920	7	Sololá	704	Santa Lucía Utatlán 	7	Santa Rita 	1	Enero	2023-01-16T00:00:00	2024-11-08T03:00:00	8	Radiación solar	0
70921	7	Sololá	704	Santa Lucía Utatlán 	7	Santa Rita 	1	Enero	2023-01-16T00:00:00	2024-11-08T04:00:00	2	Temperatura media	12.9
70922	7	Sololá	704	Santa Lucía Utatlán 	7	Santa Rita 	1	Enero	2023-01-16T00:00:00	2024-11-08T04:00:00	4	Temperatura máxima	13.2
70923	7	Sololá	704	Santa Lucía Utatlán 	7	Santa Rita 	1	Enero	2023-01-16T00:00:00	2024-11-08T04:00:00	3	Temperatura mínima	12.9
70924	7	Sololá	704	Santa Lucía Utatlán 	7	Santa Rita 	1	Enero	2023-01-16T00:00:00	2024-11-08T04:00:00	5	Humedad	91
70925	7	Sololá	704	Santa Lucía Utatlán 	7	Santa Rita 	1	Enero	2023-01-16T00:00:00	2024-11-08T04:00:00	6	Velocidad del viento	4.8
70926	7	Sololá	704	Santa Lucía Utatlán 	7	Santa Rita 	1	Enero	2023-01-16T00:00:00	2024-11-08T04:00:00	7	Dirección del viento	4.83
70927	7	Sololá	704	Santa Lucía Utatlán 	7	Santa Rita 	1	Enero	2023-01-16T00:00:00	2024-11-08T04:00:00	1	Precipitación	0
70928	7	Sololá	704	Santa Lucía Utatlán 	7	Santa Rita 	1	Enero	2023-01-16T00:00:00	2024-11-08T04:00:00	8	Radiación solar	0
70929	7	Sololá	704	Santa Lucía Utatlán 	7	Santa Rita 	1	Enero	2023-01-16T00:00:00	2024-11-08T05:00:00	2	Temperatura media	12.6
70930	7	Sololá	704	Santa Lucía Utatlán 	7	Santa Rita 	1	Enero	2023-01-16T00:00:00	2024-11-08T05:00:00	4	Temperatura máxima	12.9
70931	7	Sololá	704	Santa Lucía Utatlán 	7	Santa Rita 	1	Enero	2023-01-16T00:00:00	2024-11-08T05:00:00	3	Temperatura mínima	12.6
70932	7	Sololá	704	Santa Lucía Utatlán 	7	Santa Rita 	1	Enero	2023-01-16T00:00:00	2024-11-08T05:00:00	5	Humedad	85
70933	7	Sololá	704	Santa Lucía Utatlán 	7	Santa Rita 	1	Enero	2023-01-16T00:00:00	2024-11-08T05:00:00	6	Velocidad del viento	4.8
70934	7	Sololá	704	Santa Lucía Utatlán 	7	Santa Rita 	1	Enero	2023-01-16T00:00:00	2024-11-08T05:00:00	7	Dirección del viento	4.83
70935	7	Sololá	704	Santa Lucía Utatlán 	7	Santa Rita 	1	Enero	2023-01-16T00:00:00	2024-11-08T05:00:00	1	Precipitación	0
70936	7	Sololá	704	Santa Lucía Utatlán 	7	Santa Rita 	1	Enero	2023-01-16T00:00:00	2024-11-08T05:00:00	8	Radiación solar	0
70937	7	Sololá	704	Santa Lucía Utatlán 	7	Santa Rita 	1	Enero	2023-01-16T00:00:00	2024-11-08T06:00:00	2	Temperatura media	11.8
70938	7	Sololá	704	Santa Lucía Utatlán 	7	Santa Rita 	1	Enero	2023-01-16T00:00:00	2024-11-08T06:00:00	4	Temperatura máxima	12.6
70939	7	Sololá	704	Santa Lucía Utatlán 	7	Santa Rita 	1	Enero	2023-01-16T00:00:00	2024-11-08T06:00:00	3	Temperatura mínima	11.8
70940	7	Sololá	704	Santa Lucía Utatlán 	7	Santa Rita 	1	Enero	2023-01-16T00:00:00	2024-11-08T06:00:00	5	Humedad	81
70941	7	Sololá	704	Santa Lucía Utatlán 	7	Santa Rita 	1	Enero	2023-01-16T00:00:00	2024-11-08T06:00:00	6	Velocidad del viento	4.8
70942	7	Sololá	704	Santa Lucía Utatlán 	7	Santa Rita 	1	Enero	2023-01-16T00:00:00	2024-11-08T06:00:00	7	Dirección del viento	4.83
70943	7	Sololá	704	Santa Lucía Utatlán 	7	Santa Rita 	1	Enero	2023-01-16T00:00:00	2024-11-08T06:00:00	1	Precipitación	0
70944	7	Sololá	704	Santa Lucía Utatlán 	7	Santa Rita 	1	Enero	2023-01-16T00:00:00	2024-11-08T06:00:00	8	Radiación solar	0
70945	7	Sololá	704	Santa Lucía Utatlán 	7	Santa Rita 	1	Enero	2023-01-16T00:00:00	2024-11-08T07:00:00	2	Temperatura media	12.8
70946	7	Sololá	704	Santa Lucía Utatlán 	7	Santa Rita 	1	Enero	2023-01-16T00:00:00	2024-11-08T07:00:00	4	Temperatura máxima	12.8
70947	7	Sololá	704	Santa Lucía Utatlán 	7	Santa Rita 	1	Enero	2023-01-16T00:00:00	2024-11-08T07:00:00	3	Temperatura mínima	11.7
70948	7	Sololá	704	Santa Lucía Utatlán 	7	Santa Rita 	1	Enero	2023-01-16T00:00:00	2024-11-08T07:00:00	5	Humedad	77
70949	7	Sololá	704	Santa Lucía Utatlán 	7	Santa Rita 	1	Enero	2023-01-16T00:00:00	2024-11-08T07:00:00	6	Velocidad del viento	4.8
70950	7	Sololá	704	Santa Lucía Utatlán 	7	Santa Rita 	1	Enero	2023-01-16T00:00:00	2024-11-08T07:00:00	7	Dirección del viento	4.83
70951	7	Sololá	704	Santa Lucía Utatlán 	7	Santa Rita 	1	Enero	2023-01-16T00:00:00	2024-11-08T07:00:00	1	Precipitación	0
70952	7	Sololá	704	Santa Lucía Utatlán 	7	Santa Rita 	1	Enero	2023-01-16T00:00:00	2024-11-08T07:00:00	8	Radiación solar	8
70953	7	Sololá	704	Santa Lucía Utatlán 	7	Santa Rita 	1	Enero	2023-01-16T00:00:00	2024-11-08T08:00:00	2	Temperatura media	17.2
70954	7	Sololá	704	Santa Lucía Utatlán 	7	Santa Rita 	1	Enero	2023-01-16T00:00:00	2024-11-08T08:00:00	4	Temperatura máxima	17.2
70955	7	Sololá	704	Santa Lucía Utatlán 	7	Santa Rita 	1	Enero	2023-01-16T00:00:00	2024-11-08T08:00:00	3	Temperatura mínima	12.8
70956	7	Sololá	704	Santa Lucía Utatlán 	7	Santa Rita 	1	Enero	2023-01-16T00:00:00	2024-11-08T08:00:00	5	Humedad	67
70957	7	Sololá	704	Santa Lucía Utatlán 	7	Santa Rita 	1	Enero	2023-01-16T00:00:00	2024-11-08T08:00:00	6	Velocidad del viento	0
70958	7	Sololá	704	Santa Lucía Utatlán 	7	Santa Rita 	1	Enero	2023-01-16T00:00:00	2024-11-08T08:00:00	7	Dirección del viento	0
70959	7	Sololá	704	Santa Lucía Utatlán 	7	Santa Rita 	1	Enero	2023-01-16T00:00:00	2024-11-08T08:00:00	1	Precipitación	0
70960	7	Sololá	704	Santa Lucía Utatlán 	7	Santa Rita 	1	Enero	2023-01-16T00:00:00	2024-11-08T08:00:00	8	Radiación solar	128
70961	7	Sololá	704	Santa Lucía Utatlán 	7	Santa Rita 	1	Enero	2023-01-16T00:00:00	2024-11-08T09:00:00	2	Temperatura media	19.5
70962	7	Sololá	704	Santa Lucía Utatlán 	7	Santa Rita 	1	Enero	2023-01-16T00:00:00	2024-11-08T09:00:00	4	Temperatura máxima	19.5
70963	7	Sololá	704	Santa Lucía Utatlán 	7	Santa Rita 	1	Enero	2023-01-16T00:00:00	2024-11-08T09:00:00	3	Temperatura mínima	17.3
70964	7	Sololá	704	Santa Lucía Utatlán 	7	Santa Rita 	1	Enero	2023-01-16T00:00:00	2024-11-08T09:00:00	5	Humedad	63
70965	7	Sololá	704	Santa Lucía Utatlán 	7	Santa Rita 	1	Enero	2023-01-16T00:00:00	2024-11-08T09:00:00	6	Velocidad del viento	3.2
70966	7	Sololá	704	Santa Lucía Utatlán 	7	Santa Rita 	1	Enero	2023-01-16T00:00:00	2024-11-08T09:00:00	7	Dirección del viento	3.22
70967	7	Sololá	704	Santa Lucía Utatlán 	7	Santa Rita 	1	Enero	2023-01-16T00:00:00	2024-11-08T09:00:00	1	Precipitación	0
70968	7	Sololá	704	Santa Lucía Utatlán 	7	Santa Rita 	1	Enero	2023-01-16T00:00:00	2024-11-08T09:00:00	8	Radiación solar	372
70969	7	Sololá	704	Santa Lucía Utatlán 	7	Santa Rita 	1	Enero	2023-01-16T00:00:00	2024-11-08T10:00:00	2	Temperatura media	21.9
70970	7	Sololá	704	Santa Lucía Utatlán 	7	Santa Rita 	1	Enero	2023-01-16T00:00:00	2024-11-08T10:00:00	4	Temperatura máxima	21.9
70971	7	Sololá	704	Santa Lucía Utatlán 	7	Santa Rita 	1	Enero	2023-01-16T00:00:00	2024-11-08T10:00:00	3	Temperatura mínima	19.5
70972	7	Sololá	704	Santa Lucía Utatlán 	7	Santa Rita 	1	Enero	2023-01-16T00:00:00	2024-11-08T10:00:00	5	Humedad	52
70973	7	Sololá	704	Santa Lucía Utatlán 	7	Santa Rita 	1	Enero	2023-01-16T00:00:00	2024-11-08T10:00:00	6	Velocidad del viento	4.8
70974	7	Sololá	704	Santa Lucía Utatlán 	7	Santa Rita 	1	Enero	2023-01-16T00:00:00	2024-11-08T10:00:00	7	Dirección del viento	4.83
70975	7	Sololá	704	Santa Lucía Utatlán 	7	Santa Rita 	1	Enero	2023-01-16T00:00:00	2024-11-08T10:00:00	1	Precipitación	0
70976	7	Sololá	704	Santa Lucía Utatlán 	7	Santa Rita 	1	Enero	2023-01-16T00:00:00	2024-11-08T10:00:00	8	Radiación solar	565
70977	7	Sololá	704	Santa Lucía Utatlán 	7	Santa Rita 	1	Enero	2023-01-16T00:00:00	2024-11-08T11:00:00	2	Temperatura media	23.2
70978	7	Sololá	704	Santa Lucía Utatlán 	7	Santa Rita 	1	Enero	2023-01-16T00:00:00	2024-11-08T11:00:00	4	Temperatura máxima	23.5
70979	7	Sololá	704	Santa Lucía Utatlán 	7	Santa Rita 	1	Enero	2023-01-16T00:00:00	2024-11-08T11:00:00	3	Temperatura mínima	21.8
70980	7	Sololá	704	Santa Lucía Utatlán 	7	Santa Rita 	1	Enero	2023-01-16T00:00:00	2024-11-08T11:00:00	5	Humedad	58
70981	7	Sololá	704	Santa Lucía Utatlán 	7	Santa Rita 	1	Enero	2023-01-16T00:00:00	2024-11-08T11:00:00	6	Velocidad del viento	6.4
70982	7	Sololá	704	Santa Lucía Utatlán 	7	Santa Rita 	1	Enero	2023-01-16T00:00:00	2024-11-08T11:00:00	7	Dirección del viento	6.44
70983	7	Sololá	704	Santa Lucía Utatlán 	7	Santa Rita 	1	Enero	2023-01-16T00:00:00	2024-11-08T11:00:00	1	Precipitación	0
70984	7	Sololá	704	Santa Lucía Utatlán 	7	Santa Rita 	1	Enero	2023-01-16T00:00:00	2024-11-08T11:00:00	8	Radiación solar	700
70985	7	Sololá	704	Santa Lucía Utatlán 	7	Santa Rita 	1	Enero	2023-01-16T00:00:00	2024-11-08T12:00:00	2	Temperatura media	24.1
70986	7	Sololá	704	Santa Lucía Utatlán 	7	Santa Rita 	1	Enero	2023-01-16T00:00:00	2024-11-08T12:00:00	4	Temperatura máxima	24.2
70987	7	Sololá	704	Santa Lucía Utatlán 	7	Santa Rita 	1	Enero	2023-01-16T00:00:00	2024-11-08T12:00:00	3	Temperatura mínima	23.2
70988	7	Sololá	704	Santa Lucía Utatlán 	7	Santa Rita 	1	Enero	2023-01-16T00:00:00	2024-11-08T12:00:00	5	Humedad	52
70989	7	Sololá	704	Santa Lucía Utatlán 	7	Santa Rita 	1	Enero	2023-01-16T00:00:00	2024-11-08T12:00:00	6	Velocidad del viento	8
70990	7	Sololá	704	Santa Lucía Utatlán 	7	Santa Rita 	1	Enero	2023-01-16T00:00:00	2024-11-08T12:00:00	7	Dirección del viento	8.05
70991	7	Sololá	704	Santa Lucía Utatlán 	7	Santa Rita 	1	Enero	2023-01-16T00:00:00	2024-11-08T12:00:00	1	Precipitación	0
70992	7	Sololá	704	Santa Lucía Utatlán 	7	Santa Rita 	1	Enero	2023-01-16T00:00:00	2024-11-08T12:00:00	8	Radiación solar	775
70993	7	Sololá	704	Santa Lucía Utatlán 	7	Santa Rita 	1	Enero	2023-01-16T00:00:00	2024-11-08T13:00:00	2	Temperatura media	24.3
70994	7	Sololá	704	Santa Lucía Utatlán 	7	Santa Rita 	1	Enero	2023-01-16T00:00:00	2024-11-08T13:00:00	4	Temperatura máxima	24.6
70995	7	Sololá	704	Santa Lucía Utatlán 	7	Santa Rita 	1	Enero	2023-01-16T00:00:00	2024-11-08T13:00:00	3	Temperatura mínima	23.8
70996	7	Sololá	704	Santa Lucía Utatlán 	7	Santa Rita 	1	Enero	2023-01-16T00:00:00	2024-11-08T13:00:00	5	Humedad	51
70997	7	Sololá	704	Santa Lucía Utatlán 	7	Santa Rita 	1	Enero	2023-01-16T00:00:00	2024-11-08T13:00:00	6	Velocidad del viento	8
70998	7	Sololá	704	Santa Lucía Utatlán 	7	Santa Rita 	1	Enero	2023-01-16T00:00:00	2024-11-08T13:00:00	7	Dirección del viento	8.05
70999	7	Sololá	704	Santa Lucía Utatlán 	7	Santa Rita 	1	Enero	2023-01-16T00:00:00	2024-11-08T13:00:00	1	Precipitación	0
71000	7	Sololá	704	Santa Lucía Utatlán 	7	Santa Rita 	1	Enero	2023-01-16T00:00:00	2024-11-08T13:00:00	8	Radiación solar	794
71001	7	Sololá	704	Santa Lucía Utatlán 	7	Santa Rita 	1	Enero	2023-01-16T00:00:00	2024-11-08T14:00:00	2	Temperatura media	23.3
71002	7	Sololá	704	Santa Lucía Utatlán 	7	Santa Rita 	1	Enero	2023-01-16T00:00:00	2024-11-08T14:00:00	4	Temperatura máxima	24.4
71003	7	Sololá	704	Santa Lucía Utatlán 	7	Santa Rita 	1	Enero	2023-01-16T00:00:00	2024-11-08T14:00:00	3	Temperatura mínima	23.3
71004	7	Sololá	704	Santa Lucía Utatlán 	7	Santa Rita 	1	Enero	2023-01-16T00:00:00	2024-11-08T14:00:00	5	Humedad	67
71005	7	Sololá	704	Santa Lucía Utatlán 	7	Santa Rita 	1	Enero	2023-01-16T00:00:00	2024-11-08T14:00:00	6	Velocidad del viento	8
71006	7	Sololá	704	Santa Lucía Utatlán 	7	Santa Rita 	1	Enero	2023-01-16T00:00:00	2024-11-08T14:00:00	7	Dirección del viento	8.05
71007	7	Sololá	704	Santa Lucía Utatlán 	7	Santa Rita 	1	Enero	2023-01-16T00:00:00	2024-11-08T14:00:00	1	Precipitación	0
71008	7	Sololá	704	Santa Lucía Utatlán 	7	Santa Rita 	1	Enero	2023-01-16T00:00:00	2024-11-08T14:00:00	8	Radiación solar	749
71009	7	Sololá	704	Santa Lucía Utatlán 	7	Santa Rita 	1	Enero	2023-01-16T00:00:00	2024-11-08T15:00:00	2	Temperatura media	22.8
71010	7	Sololá	704	Santa Lucía Utatlán 	7	Santa Rita 	1	Enero	2023-01-16T00:00:00	2024-11-08T15:00:00	4	Temperatura máxima	23.6
71011	7	Sololá	704	Santa Lucía Utatlán 	7	Santa Rita 	1	Enero	2023-01-16T00:00:00	2024-11-08T15:00:00	3	Temperatura mínima	22.7
71012	7	Sololá	704	Santa Lucía Utatlán 	7	Santa Rita 	1	Enero	2023-01-16T00:00:00	2024-11-08T15:00:00	5	Humedad	71
71013	7	Sololá	704	Santa Lucía Utatlán 	7	Santa Rita 	1	Enero	2023-01-16T00:00:00	2024-11-08T15:00:00	6	Velocidad del viento	6.4
71014	7	Sololá	704	Santa Lucía Utatlán 	7	Santa Rita 	1	Enero	2023-01-16T00:00:00	2024-11-08T15:00:00	7	Dirección del viento	6.44
71015	7	Sololá	704	Santa Lucía Utatlán 	7	Santa Rita 	1	Enero	2023-01-16T00:00:00	2024-11-08T15:00:00	1	Precipitación	0
71016	7	Sololá	704	Santa Lucía Utatlán 	7	Santa Rita 	1	Enero	2023-01-16T00:00:00	2024-11-08T15:00:00	8	Radiación solar	634
71017	7	Sololá	704	Santa Lucía Utatlán 	7	Santa Rita 	1	Enero	2023-01-16T00:00:00	2024-11-08T16:00:00	2	Temperatura media	21.1
71018	7	Sololá	704	Santa Lucía Utatlán 	7	Santa Rita 	1	Enero	2023-01-16T00:00:00	2024-11-08T16:00:00	4	Temperatura máxima	22.8
71019	7	Sololá	704	Santa Lucía Utatlán 	7	Santa Rita 	1	Enero	2023-01-16T00:00:00	2024-11-08T16:00:00	3	Temperatura mínima	21.1
71020	7	Sololá	704	Santa Lucía Utatlán 	7	Santa Rita 	1	Enero	2023-01-16T00:00:00	2024-11-08T16:00:00	5	Humedad	79
71021	7	Sololá	704	Santa Lucía Utatlán 	7	Santa Rita 	1	Enero	2023-01-16T00:00:00	2024-11-08T16:00:00	6	Velocidad del viento	8
71022	7	Sololá	704	Santa Lucía Utatlán 	7	Santa Rita 	1	Enero	2023-01-16T00:00:00	2024-11-08T16:00:00	7	Dirección del viento	8.05
71023	7	Sololá	704	Santa Lucía Utatlán 	7	Santa Rita 	1	Enero	2023-01-16T00:00:00	2024-11-08T16:00:00	1	Precipitación	0
71024	7	Sololá	704	Santa Lucía Utatlán 	7	Santa Rita 	1	Enero	2023-01-16T00:00:00	2024-11-08T16:00:00	8	Radiación solar	411
71025	7	Sololá	704	Santa Lucía Utatlán 	7	Santa Rita 	1	Enero	2023-01-16T00:00:00	2024-11-08T17:00:00	2	Temperatura media	19.7
71026	7	Sololá	704	Santa Lucía Utatlán 	7	Santa Rita 	1	Enero	2023-01-16T00:00:00	2024-11-08T17:00:00	4	Temperatura máxima	21.1
71027	7	Sololá	704	Santa Lucía Utatlán 	7	Santa Rita 	1	Enero	2023-01-16T00:00:00	2024-11-08T17:00:00	3	Temperatura mínima	19.7
71028	7	Sololá	704	Santa Lucía Utatlán 	7	Santa Rita 	1	Enero	2023-01-16T00:00:00	2024-11-08T17:00:00	5	Humedad	83
71029	7	Sololá	704	Santa Lucía Utatlán 	7	Santa Rita 	1	Enero	2023-01-16T00:00:00	2024-11-08T17:00:00	6	Velocidad del viento	4.8
71030	7	Sololá	704	Santa Lucía Utatlán 	7	Santa Rita 	1	Enero	2023-01-16T00:00:00	2024-11-08T17:00:00	7	Dirección del viento	4.83
71031	7	Sololá	704	Santa Lucía Utatlán 	7	Santa Rita 	1	Enero	2023-01-16T00:00:00	2024-11-08T17:00:00	1	Precipitación	0
71032	7	Sololá	704	Santa Lucía Utatlán 	7	Santa Rita 	1	Enero	2023-01-16T00:00:00	2024-11-08T17:00:00	8	Radiación solar	125
71033	7	Sololá	704	Santa Lucía Utatlán 	7	Santa Rita 	1	Enero	2023-01-16T00:00:00	2024-11-08T18:00:00	2	Temperatura media	19
71034	7	Sololá	704	Santa Lucía Utatlán 	7	Santa Rita 	1	Enero	2023-01-16T00:00:00	2024-11-08T18:00:00	4	Temperatura máxima	19.7
71035	7	Sololá	704	Santa Lucía Utatlán 	7	Santa Rita 	1	Enero	2023-01-16T00:00:00	2024-11-08T18:00:00	3	Temperatura mínima	19
71036	7	Sololá	704	Santa Lucía Utatlán 	7	Santa Rita 	1	Enero	2023-01-16T00:00:00	2024-11-08T18:00:00	5	Humedad	89
71037	7	Sololá	704	Santa Lucía Utatlán 	7	Santa Rita 	1	Enero	2023-01-16T00:00:00	2024-11-08T18:00:00	6	Velocidad del viento	3.2
71038	7	Sololá	704	Santa Lucía Utatlán 	7	Santa Rita 	1	Enero	2023-01-16T00:00:00	2024-11-08T18:00:00	7	Dirección del viento	3.22
71039	7	Sololá	704	Santa Lucía Utatlán 	7	Santa Rita 	1	Enero	2023-01-16T00:00:00	2024-11-08T18:00:00	1	Precipitación	0
71040	7	Sololá	704	Santa Lucía Utatlán 	7	Santa Rita 	1	Enero	2023-01-16T00:00:00	2024-11-08T18:00:00	8	Radiación solar	14
71041	7	Sololá	704	Santa Lucía Utatlán 	7	Santa Rita 	1	Enero	2023-01-16T00:00:00	2024-11-08T19:00:00	2	Temperatura media	18.7
71042	7	Sololá	704	Santa Lucía Utatlán 	7	Santa Rita 	1	Enero	2023-01-16T00:00:00	2024-11-08T19:00:00	4	Temperatura máxima	19
71043	7	Sololá	704	Santa Lucía Utatlán 	7	Santa Rita 	1	Enero	2023-01-16T00:00:00	2024-11-08T19:00:00	3	Temperatura mínima	18.6
71044	7	Sololá	704	Santa Lucía Utatlán 	7	Santa Rita 	1	Enero	2023-01-16T00:00:00	2024-11-08T19:00:00	5	Humedad	90
71045	7	Sololá	704	Santa Lucía Utatlán 	7	Santa Rita 	1	Enero	2023-01-16T00:00:00	2024-11-08T19:00:00	6	Velocidad del viento	1.6
71046	7	Sololá	704	Santa Lucía Utatlán 	7	Santa Rita 	1	Enero	2023-01-16T00:00:00	2024-11-08T19:00:00	7	Dirección del viento	1.61
71047	7	Sololá	704	Santa Lucía Utatlán 	7	Santa Rita 	1	Enero	2023-01-16T00:00:00	2024-11-08T19:00:00	1	Precipitación	0
71048	7	Sololá	704	Santa Lucía Utatlán 	7	Santa Rita 	1	Enero	2023-01-16T00:00:00	2024-11-08T19:00:00	8	Radiación solar	0
71049	7	Sololá	704	Santa Lucía Utatlán 	7	Santa Rita 	1	Enero	2023-01-16T00:00:00	2024-11-08T20:00:00	2	Temperatura media	18.4
71050	7	Sololá	704	Santa Lucía Utatlán 	7	Santa Rita 	1	Enero	2023-01-16T00:00:00	2024-11-08T20:00:00	4	Temperatura máxima	18.7
71051	7	Sololá	704	Santa Lucía Utatlán 	7	Santa Rita 	1	Enero	2023-01-16T00:00:00	2024-11-08T20:00:00	3	Temperatura mínima	18.2
71052	7	Sololá	704	Santa Lucía Utatlán 	7	Santa Rita 	1	Enero	2023-01-16T00:00:00	2024-11-08T20:00:00	5	Humedad	90
71053	7	Sololá	704	Santa Lucía Utatlán 	7	Santa Rita 	1	Enero	2023-01-16T00:00:00	2024-11-08T20:00:00	6	Velocidad del viento	1.6
71054	7	Sololá	704	Santa Lucía Utatlán 	7	Santa Rita 	1	Enero	2023-01-16T00:00:00	2024-11-08T20:00:00	7	Dirección del viento	1.61
71055	7	Sololá	704	Santa Lucía Utatlán 	7	Santa Rita 	1	Enero	2023-01-16T00:00:00	2024-11-08T20:00:00	1	Precipitación	0
71056	7	Sololá	704	Santa Lucía Utatlán 	7	Santa Rita 	1	Enero	2023-01-16T00:00:00	2024-11-08T20:00:00	8	Radiación solar	0
71057	7	Sololá	704	Santa Lucía Utatlán 	7	Santa Rita 	1	Enero	2023-01-16T00:00:00	2024-11-08T21:00:00	2	Temperatura media	17
71058	7	Sololá	704	Santa Lucía Utatlán 	7	Santa Rita 	1	Enero	2023-01-16T00:00:00	2024-11-08T21:00:00	4	Temperatura máxima	18.5
71059	7	Sololá	704	Santa Lucía Utatlán 	7	Santa Rita 	1	Enero	2023-01-16T00:00:00	2024-11-08T21:00:00	3	Temperatura mínima	17
71060	7	Sololá	704	Santa Lucía Utatlán 	7	Santa Rita 	1	Enero	2023-01-16T00:00:00	2024-11-08T21:00:00	5	Humedad	89
71061	7	Sololá	704	Santa Lucía Utatlán 	7	Santa Rita 	1	Enero	2023-01-16T00:00:00	2024-11-08T21:00:00	6	Velocidad del viento	1.6
71062	7	Sololá	704	Santa Lucía Utatlán 	7	Santa Rita 	1	Enero	2023-01-16T00:00:00	2024-11-08T21:00:00	7	Dirección del viento	1.61
71063	7	Sololá	704	Santa Lucía Utatlán 	7	Santa Rita 	1	Enero	2023-01-16T00:00:00	2024-11-08T21:00:00	1	Precipitación	0
71064	7	Sololá	704	Santa Lucía Utatlán 	7	Santa Rita 	1	Enero	2023-01-16T00:00:00	2024-11-08T21:00:00	8	Radiación solar	0
71065	7	Sololá	704	Santa Lucía Utatlán 	7	Santa Rita 	1	Enero	2023-01-16T00:00:00	2024-11-08T22:00:00	2	Temperatura media	15.8
71066	7	Sololá	704	Santa Lucía Utatlán 	7	Santa Rita 	1	Enero	2023-01-16T00:00:00	2024-11-08T22:00:00	4	Temperatura máxima	17.1
71067	7	Sololá	704	Santa Lucía Utatlán 	7	Santa Rita 	1	Enero	2023-01-16T00:00:00	2024-11-08T22:00:00	3	Temperatura mínima	15.8
71068	7	Sololá	704	Santa Lucía Utatlán 	7	Santa Rita 	1	Enero	2023-01-16T00:00:00	2024-11-08T22:00:00	5	Humedad	89
71069	7	Sololá	704	Santa Lucía Utatlán 	7	Santa Rita 	1	Enero	2023-01-16T00:00:00	2024-11-08T22:00:00	6	Velocidad del viento	3.2
71070	7	Sololá	704	Santa Lucía Utatlán 	7	Santa Rita 	1	Enero	2023-01-16T00:00:00	2024-11-08T22:00:00	7	Dirección del viento	3.22
71071	7	Sololá	704	Santa Lucía Utatlán 	7	Santa Rita 	1	Enero	2023-01-16T00:00:00	2024-11-08T22:00:00	1	Precipitación	0
71072	7	Sololá	704	Santa Lucía Utatlán 	7	Santa Rita 	1	Enero	2023-01-16T00:00:00	2024-11-08T22:00:00	8	Radiación solar	0
71073	7	Sololá	704	Santa Lucía Utatlán 	7	Santa Rita 	1	Enero	2023-01-16T00:00:00	2024-11-08T23:00:00	2	Temperatura media	16
71074	7	Sololá	704	Santa Lucía Utatlán 	7	Santa Rita 	1	Enero	2023-01-16T00:00:00	2024-11-08T23:00:00	4	Temperatura máxima	16.1
71075	7	Sololá	704	Santa Lucía Utatlán 	7	Santa Rita 	1	Enero	2023-01-16T00:00:00	2024-11-08T23:00:00	3	Temperatura mínima	15.8
71076	7	Sololá	704	Santa Lucía Utatlán 	7	Santa Rita 	1	Enero	2023-01-16T00:00:00	2024-11-08T23:00:00	5	Humedad	88
71077	7	Sololá	704	Santa Lucía Utatlán 	7	Santa Rita 	1	Enero	2023-01-16T00:00:00	2024-11-08T23:00:00	6	Velocidad del viento	4.8
71078	7	Sololá	704	Santa Lucía Utatlán 	7	Santa Rita 	1	Enero	2023-01-16T00:00:00	2024-11-08T23:00:00	7	Dirección del viento	4.83
71079	7	Sololá	704	Santa Lucía Utatlán 	7	Santa Rita 	1	Enero	2023-01-16T00:00:00	2024-11-08T23:00:00	1	Precipitación	0
71080	7	Sololá	704	Santa Lucía Utatlán 	7	Santa Rita 	1	Enero	2023-01-16T00:00:00	2024-11-08T23:00:00	8	Radiación solar	0
71081	7	Sololá	704	Santa Lucía Utatlán 	7	Santa Rita 	1	Enero	2023-01-17T00:00:00	2024-11-08T00:00:00	2	Temperatura media	14.7
71082	7	Sololá	704	Santa Lucía Utatlán 	7	Santa Rita 	1	Enero	2023-01-17T00:00:00	2024-11-08T00:00:00	4	Temperatura máxima	16.2
71083	7	Sololá	704	Santa Lucía Utatlán 	7	Santa Rita 	1	Enero	2023-01-17T00:00:00	2024-11-08T00:00:00	3	Temperatura mínima	14.6
71084	7	Sololá	704	Santa Lucía Utatlán 	7	Santa Rita 	1	Enero	2023-01-17T00:00:00	2024-11-08T00:00:00	5	Humedad	91
71085	7	Sololá	704	Santa Lucía Utatlán 	7	Santa Rita 	1	Enero	2023-01-17T00:00:00	2024-11-08T00:00:00	6	Velocidad del viento	1.6
71086	7	Sololá	704	Santa Lucía Utatlán 	7	Santa Rita 	1	Enero	2023-01-17T00:00:00	2024-11-08T00:00:00	7	Dirección del viento	1.61
71087	7	Sololá	704	Santa Lucía Utatlán 	7	Santa Rita 	1	Enero	2023-01-17T00:00:00	2024-11-08T00:00:00	1	Precipitación	0
71088	7	Sololá	704	Santa Lucía Utatlán 	7	Santa Rita 	1	Enero	2023-01-17T00:00:00	2024-11-08T00:00:00	8	Radiación solar	0
71089	7	Sololá	704	Santa Lucía Utatlán 	7	Santa Rita 	1	Enero	2023-01-17T00:00:00	2024-11-08T01:00:00	2	Temperatura media	15.4
71090	7	Sololá	704	Santa Lucía Utatlán 	7	Santa Rita 	1	Enero	2023-01-17T00:00:00	2024-11-08T01:00:00	4	Temperatura máxima	15.4
71091	7	Sololá	704	Santa Lucía Utatlán 	7	Santa Rita 	1	Enero	2023-01-17T00:00:00	2024-11-08T01:00:00	3	Temperatura mínima	14.3
71092	7	Sololá	704	Santa Lucía Utatlán 	7	Santa Rita 	1	Enero	2023-01-17T00:00:00	2024-11-08T01:00:00	5	Humedad	94
71093	7	Sololá	704	Santa Lucía Utatlán 	7	Santa Rita 	1	Enero	2023-01-17T00:00:00	2024-11-08T01:00:00	6	Velocidad del viento	3.2
71094	7	Sololá	704	Santa Lucía Utatlán 	7	Santa Rita 	1	Enero	2023-01-17T00:00:00	2024-11-08T01:00:00	7	Dirección del viento	3.22
71095	7	Sololá	704	Santa Lucía Utatlán 	7	Santa Rita 	1	Enero	2023-01-17T00:00:00	2024-11-08T01:00:00	1	Precipitación	0
71096	7	Sololá	704	Santa Lucía Utatlán 	7	Santa Rita 	1	Enero	2023-01-17T00:00:00	2024-11-08T01:00:00	8	Radiación solar	0
71097	7	Sololá	704	Santa Lucía Utatlán 	7	Santa Rita 	1	Enero	2023-01-17T00:00:00	2024-11-08T02:00:00	2	Temperatura media	14.9
71098	7	Sololá	704	Santa Lucía Utatlán 	7	Santa Rita 	1	Enero	2023-01-17T00:00:00	2024-11-08T02:00:00	4	Temperatura máxima	15.4
71099	7	Sololá	704	Santa Lucía Utatlán 	7	Santa Rita 	1	Enero	2023-01-17T00:00:00	2024-11-08T02:00:00	3	Temperatura mínima	14.9
71100	7	Sololá	704	Santa Lucía Utatlán 	7	Santa Rita 	1	Enero	2023-01-17T00:00:00	2024-11-08T02:00:00	5	Humedad	93
71101	7	Sololá	704	Santa Lucía Utatlán 	7	Santa Rita 	1	Enero	2023-01-17T00:00:00	2024-11-08T02:00:00	6	Velocidad del viento	1.6
71102	7	Sololá	704	Santa Lucía Utatlán 	7	Santa Rita 	1	Enero	2023-01-17T00:00:00	2024-11-08T02:00:00	7	Dirección del viento	1.61
71103	7	Sololá	704	Santa Lucía Utatlán 	7	Santa Rita 	1	Enero	2023-01-17T00:00:00	2024-11-08T02:00:00	1	Precipitación	0
71104	7	Sololá	704	Santa Lucía Utatlán 	7	Santa Rita 	1	Enero	2023-01-17T00:00:00	2024-11-08T02:00:00	8	Radiación solar	0
71105	7	Sololá	704	Santa Lucía Utatlán 	7	Santa Rita 	1	Enero	2023-01-17T00:00:00	2024-11-08T03:00:00	2	Temperatura media	13.1
71106	7	Sololá	704	Santa Lucía Utatlán 	7	Santa Rita 	1	Enero	2023-01-17T00:00:00	2024-11-08T03:00:00	4	Temperatura máxima	14.9
71107	7	Sololá	704	Santa Lucía Utatlán 	7	Santa Rita 	1	Enero	2023-01-17T00:00:00	2024-11-08T03:00:00	3	Temperatura mínima	13.1
71108	7	Sololá	704	Santa Lucía Utatlán 	7	Santa Rita 	1	Enero	2023-01-17T00:00:00	2024-11-08T03:00:00	5	Humedad	87
71109	7	Sololá	704	Santa Lucía Utatlán 	7	Santa Rita 	1	Enero	2023-01-17T00:00:00	2024-11-08T03:00:00	6	Velocidad del viento	3.2
71110	7	Sololá	704	Santa Lucía Utatlán 	7	Santa Rita 	1	Enero	2023-01-17T00:00:00	2024-11-08T03:00:00	7	Dirección del viento	3.22
71111	7	Sololá	704	Santa Lucía Utatlán 	7	Santa Rita 	1	Enero	2023-01-17T00:00:00	2024-11-08T03:00:00	1	Precipitación	0
71112	7	Sololá	704	Santa Lucía Utatlán 	7	Santa Rita 	1	Enero	2023-01-17T00:00:00	2024-11-08T03:00:00	8	Radiación solar	0
71113	7	Sololá	704	Santa Lucía Utatlán 	7	Santa Rita 	1	Enero	2023-01-17T00:00:00	2024-11-08T04:00:00	2	Temperatura media	12.8
71114	7	Sololá	704	Santa Lucía Utatlán 	7	Santa Rita 	1	Enero	2023-01-17T00:00:00	2024-11-08T04:00:00	4	Temperatura máxima	13.1
71115	7	Sololá	704	Santa Lucía Utatlán 	7	Santa Rita 	1	Enero	2023-01-17T00:00:00	2024-11-08T04:00:00	3	Temperatura mínima	12.7
71116	7	Sololá	704	Santa Lucía Utatlán 	7	Santa Rita 	1	Enero	2023-01-17T00:00:00	2024-11-08T04:00:00	5	Humedad	89
71117	7	Sololá	704	Santa Lucía Utatlán 	7	Santa Rita 	1	Enero	2023-01-17T00:00:00	2024-11-08T04:00:00	6	Velocidad del viento	4.8
71118	7	Sololá	704	Santa Lucía Utatlán 	7	Santa Rita 	1	Enero	2023-01-17T00:00:00	2024-11-08T04:00:00	7	Dirección del viento	4.83
71119	7	Sololá	704	Santa Lucía Utatlán 	7	Santa Rita 	1	Enero	2023-01-17T00:00:00	2024-11-08T04:00:00	1	Precipitación	0
71120	7	Sololá	704	Santa Lucía Utatlán 	7	Santa Rita 	1	Enero	2023-01-17T00:00:00	2024-11-08T04:00:00	8	Radiación solar	0
71121	7	Sololá	704	Santa Lucía Utatlán 	7	Santa Rita 	1	Enero	2023-01-17T00:00:00	2024-11-08T05:00:00	2	Temperatura media	13.4
71122	7	Sololá	704	Santa Lucía Utatlán 	7	Santa Rita 	1	Enero	2023-01-17T00:00:00	2024-11-08T05:00:00	4	Temperatura máxima	13.4
71123	7	Sololá	704	Santa Lucía Utatlán 	7	Santa Rita 	1	Enero	2023-01-17T00:00:00	2024-11-08T05:00:00	3	Temperatura mínima	12.8
71124	7	Sololá	704	Santa Lucía Utatlán 	7	Santa Rita 	1	Enero	2023-01-17T00:00:00	2024-11-08T05:00:00	5	Humedad	81
71125	7	Sololá	704	Santa Lucía Utatlán 	7	Santa Rita 	1	Enero	2023-01-17T00:00:00	2024-11-08T05:00:00	6	Velocidad del viento	4.8
71126	7	Sololá	704	Santa Lucía Utatlán 	7	Santa Rita 	1	Enero	2023-01-17T00:00:00	2024-11-08T05:00:00	7	Dirección del viento	4.83
71127	7	Sololá	704	Santa Lucía Utatlán 	7	Santa Rita 	1	Enero	2023-01-17T00:00:00	2024-11-08T05:00:00	1	Precipitación	0
71128	7	Sololá	704	Santa Lucía Utatlán 	7	Santa Rita 	1	Enero	2023-01-17T00:00:00	2024-11-08T05:00:00	8	Radiación solar	0
71129	7	Sololá	704	Santa Lucía Utatlán 	7	Santa Rita 	1	Enero	2023-01-17T00:00:00	2024-11-08T06:00:00	2	Temperatura media	14.4
71130	7	Sololá	704	Santa Lucía Utatlán 	7	Santa Rita 	1	Enero	2023-01-17T00:00:00	2024-11-08T06:00:00	4	Temperatura máxima	14.6
71131	7	Sololá	704	Santa Lucía Utatlán 	7	Santa Rita 	1	Enero	2023-01-17T00:00:00	2024-11-08T06:00:00	3	Temperatura mínima	13.4
71132	7	Sololá	704	Santa Lucía Utatlán 	7	Santa Rita 	1	Enero	2023-01-17T00:00:00	2024-11-08T06:00:00	5	Humedad	72
71133	7	Sololá	704	Santa Lucía Utatlán 	7	Santa Rita 	1	Enero	2023-01-17T00:00:00	2024-11-08T06:00:00	6	Velocidad del viento	4.8
71134	7	Sololá	704	Santa Lucía Utatlán 	7	Santa Rita 	1	Enero	2023-01-17T00:00:00	2024-11-08T06:00:00	7	Dirección del viento	4.83
71135	7	Sololá	704	Santa Lucía Utatlán 	7	Santa Rita 	1	Enero	2023-01-17T00:00:00	2024-11-08T06:00:00	1	Precipitación	0
71136	7	Sololá	704	Santa Lucía Utatlán 	7	Santa Rita 	1	Enero	2023-01-17T00:00:00	2024-11-08T06:00:00	8	Radiación solar	0
71137	7	Sololá	704	Santa Lucía Utatlán 	7	Santa Rita 	1	Enero	2023-01-17T00:00:00	2024-11-08T07:00:00	2	Temperatura media	15.2
71138	7	Sololá	704	Santa Lucía Utatlán 	7	Santa Rita 	1	Enero	2023-01-17T00:00:00	2024-11-08T07:00:00	4	Temperatura máxima	15.2
71139	7	Sololá	704	Santa Lucía Utatlán 	7	Santa Rita 	1	Enero	2023-01-17T00:00:00	2024-11-08T07:00:00	3	Temperatura mínima	14.3
71140	7	Sololá	704	Santa Lucía Utatlán 	7	Santa Rita 	1	Enero	2023-01-17T00:00:00	2024-11-08T07:00:00	5	Humedad	66
71141	7	Sololá	704	Santa Lucía Utatlán 	7	Santa Rita 	1	Enero	2023-01-17T00:00:00	2024-11-08T07:00:00	6	Velocidad del viento	6.4
71142	7	Sololá	704	Santa Lucía Utatlán 	7	Santa Rita 	1	Enero	2023-01-17T00:00:00	2024-11-08T07:00:00	7	Dirección del viento	6.44
71143	7	Sololá	704	Santa Lucía Utatlán 	7	Santa Rita 	1	Enero	2023-01-17T00:00:00	2024-11-08T07:00:00	1	Precipitación	0
71144	7	Sololá	704	Santa Lucía Utatlán 	7	Santa Rita 	1	Enero	2023-01-17T00:00:00	2024-11-08T07:00:00	8	Radiación solar	7
71145	7	Sololá	704	Santa Lucía Utatlán 	7	Santa Rita 	1	Enero	2023-01-17T00:00:00	2024-11-08T08:00:00	2	Temperatura media	19.4
71146	7	Sololá	704	Santa Lucía Utatlán 	7	Santa Rita 	1	Enero	2023-01-17T00:00:00	2024-11-08T08:00:00	4	Temperatura máxima	19.4
71147	7	Sololá	704	Santa Lucía Utatlán 	7	Santa Rita 	1	Enero	2023-01-17T00:00:00	2024-11-08T08:00:00	3	Temperatura mínima	15.2
71148	7	Sololá	704	Santa Lucía Utatlán 	7	Santa Rita 	1	Enero	2023-01-17T00:00:00	2024-11-08T08:00:00	5	Humedad	57
71149	7	Sololá	704	Santa Lucía Utatlán 	7	Santa Rita 	1	Enero	2023-01-17T00:00:00	2024-11-08T08:00:00	6	Velocidad del viento	1.6
71150	7	Sololá	704	Santa Lucía Utatlán 	7	Santa Rita 	1	Enero	2023-01-17T00:00:00	2024-11-08T08:00:00	7	Dirección del viento	1.61
71151	7	Sololá	704	Santa Lucía Utatlán 	7	Santa Rita 	1	Enero	2023-01-17T00:00:00	2024-11-08T08:00:00	1	Precipitación	0
71152	7	Sololá	704	Santa Lucía Utatlán 	7	Santa Rita 	1	Enero	2023-01-17T00:00:00	2024-11-08T08:00:00	8	Radiación solar	128
71153	7	Sololá	704	Santa Lucía Utatlán 	7	Santa Rita 	1	Enero	2023-01-17T00:00:00	2024-11-08T09:00:00	2	Temperatura media	22.2
71154	7	Sololá	704	Santa Lucía Utatlán 	7	Santa Rita 	1	Enero	2023-01-17T00:00:00	2024-11-08T09:00:00	4	Temperatura máxima	22.2
71155	7	Sololá	704	Santa Lucía Utatlán 	7	Santa Rita 	1	Enero	2023-01-17T00:00:00	2024-11-08T09:00:00	3	Temperatura mínima	19.4
71156	7	Sololá	704	Santa Lucía Utatlán 	7	Santa Rita 	1	Enero	2023-01-17T00:00:00	2024-11-08T09:00:00	5	Humedad	54
71157	7	Sololá	704	Santa Lucía Utatlán 	7	Santa Rita 	1	Enero	2023-01-17T00:00:00	2024-11-08T09:00:00	6	Velocidad del viento	1.6
71158	7	Sololá	704	Santa Lucía Utatlán 	7	Santa Rita 	1	Enero	2023-01-17T00:00:00	2024-11-08T09:00:00	7	Dirección del viento	1.61
71159	7	Sololá	704	Santa Lucía Utatlán 	7	Santa Rita 	1	Enero	2023-01-17T00:00:00	2024-11-08T09:00:00	1	Precipitación	0
71160	7	Sololá	704	Santa Lucía Utatlán 	7	Santa Rita 	1	Enero	2023-01-17T00:00:00	2024-11-08T09:00:00	8	Radiación solar	360
71161	7	Sololá	704	Santa Lucía Utatlán 	7	Santa Rita 	1	Enero	2023-01-17T00:00:00	2024-11-08T10:00:00	2	Temperatura media	23.1
71162	7	Sololá	704	Santa Lucía Utatlán 	7	Santa Rita 	1	Enero	2023-01-17T00:00:00	2024-11-08T10:00:00	4	Temperatura máxima	23.1
71163	7	Sololá	704	Santa Lucía Utatlán 	7	Santa Rita 	1	Enero	2023-01-17T00:00:00	2024-11-08T10:00:00	3	Temperatura mínima	22.2
71164	7	Sololá	704	Santa Lucía Utatlán 	7	Santa Rita 	1	Enero	2023-01-17T00:00:00	2024-11-08T10:00:00	5	Humedad	52
71165	7	Sololá	704	Santa Lucía Utatlán 	7	Santa Rita 	1	Enero	2023-01-17T00:00:00	2024-11-08T10:00:00	6	Velocidad del viento	4.8
71166	7	Sololá	704	Santa Lucía Utatlán 	7	Santa Rita 	1	Enero	2023-01-17T00:00:00	2024-11-08T10:00:00	7	Dirección del viento	4.83
71167	7	Sololá	704	Santa Lucía Utatlán 	7	Santa Rita 	1	Enero	2023-01-17T00:00:00	2024-11-08T10:00:00	1	Precipitación	0
71168	7	Sololá	704	Santa Lucía Utatlán 	7	Santa Rita 	1	Enero	2023-01-17T00:00:00	2024-11-08T10:00:00	8	Radiación solar	551
71169	7	Sololá	704	Santa Lucía Utatlán 	7	Santa Rita 	1	Enero	2023-01-17T00:00:00	2024-11-08T11:00:00	2	Temperatura media	24.3
71170	7	Sololá	704	Santa Lucía Utatlán 	7	Santa Rita 	1	Enero	2023-01-17T00:00:00	2024-11-08T11:00:00	4	Temperatura máxima	24.4
71171	7	Sololá	704	Santa Lucía Utatlán 	7	Santa Rita 	1	Enero	2023-01-17T00:00:00	2024-11-08T11:00:00	3	Temperatura mínima	23.1
71172	7	Sololá	704	Santa Lucía Utatlán 	7	Santa Rita 	1	Enero	2023-01-17T00:00:00	2024-11-08T11:00:00	5	Humedad	52
71173	7	Sololá	704	Santa Lucía Utatlán 	7	Santa Rita 	1	Enero	2023-01-17T00:00:00	2024-11-08T11:00:00	6	Velocidad del viento	6.4
71174	7	Sololá	704	Santa Lucía Utatlán 	7	Santa Rita 	1	Enero	2023-01-17T00:00:00	2024-11-08T11:00:00	7	Dirección del viento	6.44
71175	7	Sololá	704	Santa Lucía Utatlán 	7	Santa Rita 	1	Enero	2023-01-17T00:00:00	2024-11-08T11:00:00	1	Precipitación	0
71176	7	Sololá	704	Santa Lucía Utatlán 	7	Santa Rita 	1	Enero	2023-01-17T00:00:00	2024-11-08T11:00:00	8	Radiación solar	692
71177	7	Sololá	704	Santa Lucía Utatlán 	7	Santa Rita 	1	Enero	2023-01-17T00:00:00	2024-11-08T12:00:00	2	Temperatura media	24
71178	7	Sololá	704	Santa Lucía Utatlán 	7	Santa Rita 	1	Enero	2023-01-17T00:00:00	2024-11-08T12:00:00	4	Temperatura máxima	24.3
71179	7	Sololá	704	Santa Lucía Utatlán 	7	Santa Rita 	1	Enero	2023-01-17T00:00:00	2024-11-08T12:00:00	3	Temperatura mínima	23.9
71180	7	Sololá	704	Santa Lucía Utatlán 	7	Santa Rita 	1	Enero	2023-01-17T00:00:00	2024-11-08T12:00:00	5	Humedad	56
71181	7	Sololá	704	Santa Lucía Utatlán 	7	Santa Rita 	1	Enero	2023-01-17T00:00:00	2024-11-08T12:00:00	6	Velocidad del viento	8
71182	7	Sololá	704	Santa Lucía Utatlán 	7	Santa Rita 	1	Enero	2023-01-17T00:00:00	2024-11-08T12:00:00	7	Dirección del viento	8.05
71183	7	Sololá	704	Santa Lucía Utatlán 	7	Santa Rita 	1	Enero	2023-01-17T00:00:00	2024-11-08T12:00:00	1	Precipitación	0
71184	7	Sololá	704	Santa Lucía Utatlán 	7	Santa Rita 	1	Enero	2023-01-17T00:00:00	2024-11-08T12:00:00	8	Radiación solar	772
71185	7	Sololá	704	Santa Lucía Utatlán 	7	Santa Rita 	1	Enero	2023-01-17T00:00:00	2024-11-08T13:00:00	2	Temperatura media	23.8
71186	7	Sololá	704	Santa Lucía Utatlán 	7	Santa Rita 	1	Enero	2023-01-17T00:00:00	2024-11-08T13:00:00	4	Temperatura máxima	24.2
71187	7	Sololá	704	Santa Lucía Utatlán 	7	Santa Rita 	1	Enero	2023-01-17T00:00:00	2024-11-08T13:00:00	3	Temperatura mínima	23.4
71188	7	Sololá	704	Santa Lucía Utatlán 	7	Santa Rita 	1	Enero	2023-01-17T00:00:00	2024-11-08T13:00:00	5	Humedad	62
71189	7	Sololá	704	Santa Lucía Utatlán 	7	Santa Rita 	1	Enero	2023-01-17T00:00:00	2024-11-08T13:00:00	6	Velocidad del viento	8
71190	7	Sololá	704	Santa Lucía Utatlán 	7	Santa Rita 	1	Enero	2023-01-17T00:00:00	2024-11-08T13:00:00	7	Dirección del viento	8.05
71191	7	Sololá	704	Santa Lucía Utatlán 	7	Santa Rita 	1	Enero	2023-01-17T00:00:00	2024-11-08T13:00:00	1	Precipitación	0
71192	7	Sololá	704	Santa Lucía Utatlán 	7	Santa Rita 	1	Enero	2023-01-17T00:00:00	2024-11-08T13:00:00	8	Radiación solar	795
71193	7	Sololá	704	Santa Lucía Utatlán 	7	Santa Rita 	1	Enero	2023-01-17T00:00:00	2024-11-08T14:00:00	2	Temperatura media	21.4
71194	7	Sololá	704	Santa Lucía Utatlán 	7	Santa Rita 	1	Enero	2023-01-17T00:00:00	2024-11-08T14:00:00	4	Temperatura máxima	23.8
71195	7	Sololá	704	Santa Lucía Utatlán 	7	Santa Rita 	1	Enero	2023-01-17T00:00:00	2024-11-08T14:00:00	3	Temperatura mínima	21.4
71196	7	Sololá	704	Santa Lucía Utatlán 	7	Santa Rita 	1	Enero	2023-01-17T00:00:00	2024-11-08T14:00:00	5	Humedad	75
71197	7	Sololá	704	Santa Lucía Utatlán 	7	Santa Rita 	1	Enero	2023-01-17T00:00:00	2024-11-08T14:00:00	6	Velocidad del viento	9.7
71198	7	Sololá	704	Santa Lucía Utatlán 	7	Santa Rita 	1	Enero	2023-01-17T00:00:00	2024-11-08T14:00:00	7	Dirección del viento	9.66
71199	7	Sololá	704	Santa Lucía Utatlán 	7	Santa Rita 	1	Enero	2023-01-17T00:00:00	2024-11-08T14:00:00	1	Precipitación	0
71200	7	Sololá	704	Santa Lucía Utatlán 	7	Santa Rita 	1	Enero	2023-01-17T00:00:00	2024-11-08T14:00:00	8	Radiación solar	601
71201	7	Sololá	704	Santa Lucía Utatlán 	7	Santa Rita 	1	Enero	2023-01-17T00:00:00	2024-11-08T15:00:00	2	Temperatura media	20.6
71202	7	Sololá	704	Santa Lucía Utatlán 	7	Santa Rita 	1	Enero	2023-01-17T00:00:00	2024-11-08T15:00:00	4	Temperatura máxima	21.4
71203	7	Sololá	704	Santa Lucía Utatlán 	7	Santa Rita 	1	Enero	2023-01-17T00:00:00	2024-11-08T15:00:00	3	Temperatura mínima	20.4
71204	7	Sololá	704	Santa Lucía Utatlán 	7	Santa Rita 	1	Enero	2023-01-17T00:00:00	2024-11-08T15:00:00	5	Humedad	78
71205	7	Sololá	704	Santa Lucía Utatlán 	7	Santa Rita 	1	Enero	2023-01-17T00:00:00	2024-11-08T15:00:00	6	Velocidad del viento	6.4
71206	7	Sololá	704	Santa Lucía Utatlán 	7	Santa Rita 	1	Enero	2023-01-17T00:00:00	2024-11-08T15:00:00	7	Dirección del viento	6.44
71207	7	Sololá	704	Santa Lucía Utatlán 	7	Santa Rita 	1	Enero	2023-01-17T00:00:00	2024-11-08T15:00:00	1	Precipitación	0
71208	7	Sololá	704	Santa Lucía Utatlán 	7	Santa Rita 	1	Enero	2023-01-17T00:00:00	2024-11-08T15:00:00	8	Radiación solar	229
71209	7	Sololá	704	Santa Lucía Utatlán 	7	Santa Rita 	1	Enero	2023-01-17T00:00:00	2024-11-08T16:00:00	2	Temperatura media	19.6
71210	7	Sololá	704	Santa Lucía Utatlán 	7	Santa Rita 	1	Enero	2023-01-17T00:00:00	2024-11-08T16:00:00	4	Temperatura máxima	20.7
71211	7	Sololá	704	Santa Lucía Utatlán 	7	Santa Rita 	1	Enero	2023-01-17T00:00:00	2024-11-08T16:00:00	3	Temperatura mínima	19.6
71212	7	Sololá	704	Santa Lucía Utatlán 	7	Santa Rita 	1	Enero	2023-01-17T00:00:00	2024-11-08T16:00:00	5	Humedad	85
71213	7	Sololá	704	Santa Lucía Utatlán 	7	Santa Rita 	1	Enero	2023-01-17T00:00:00	2024-11-08T16:00:00	6	Velocidad del viento	4.8
71214	7	Sololá	704	Santa Lucía Utatlán 	7	Santa Rita 	1	Enero	2023-01-17T00:00:00	2024-11-08T16:00:00	7	Dirección del viento	4.83
71215	7	Sololá	704	Santa Lucía Utatlán 	7	Santa Rita 	1	Enero	2023-01-17T00:00:00	2024-11-08T16:00:00	1	Precipitación	0
71216	7	Sololá	704	Santa Lucía Utatlán 	7	Santa Rita 	1	Enero	2023-01-17T00:00:00	2024-11-08T16:00:00	8	Radiación solar	112
71217	7	Sololá	704	Santa Lucía Utatlán 	7	Santa Rita 	1	Enero	2023-01-17T00:00:00	2024-11-08T17:00:00	2	Temperatura media	19.2
71218	7	Sololá	704	Santa Lucía Utatlán 	7	Santa Rita 	1	Enero	2023-01-17T00:00:00	2024-11-08T17:00:00	4	Temperatura máxima	19.7
71219	7	Sololá	704	Santa Lucía Utatlán 	7	Santa Rita 	1	Enero	2023-01-17T00:00:00	2024-11-08T17:00:00	3	Temperatura mínima	19.2
71220	7	Sololá	704	Santa Lucía Utatlán 	7	Santa Rita 	1	Enero	2023-01-17T00:00:00	2024-11-08T17:00:00	5	Humedad	87
71221	7	Sololá	704	Santa Lucía Utatlán 	7	Santa Rita 	1	Enero	2023-01-17T00:00:00	2024-11-08T17:00:00	6	Velocidad del viento	3.2
71222	7	Sololá	704	Santa Lucía Utatlán 	7	Santa Rita 	1	Enero	2023-01-17T00:00:00	2024-11-08T17:00:00	7	Dirección del viento	3.22
71223	7	Sololá	704	Santa Lucía Utatlán 	7	Santa Rita 	1	Enero	2023-01-17T00:00:00	2024-11-08T17:00:00	1	Precipitación	0
71224	7	Sololá	704	Santa Lucía Utatlán 	7	Santa Rita 	1	Enero	2023-01-17T00:00:00	2024-11-08T17:00:00	8	Radiación solar	73
71225	7	Sololá	704	Santa Lucía Utatlán 	7	Santa Rita 	1	Enero	2023-01-17T00:00:00	2024-11-08T18:00:00	2	Temperatura media	18.4
71226	7	Sololá	704	Santa Lucía Utatlán 	7	Santa Rita 	1	Enero	2023-01-17T00:00:00	2024-11-08T18:00:00	4	Temperatura máxima	19.2
71227	7	Sololá	704	Santa Lucía Utatlán 	7	Santa Rita 	1	Enero	2023-01-17T00:00:00	2024-11-08T18:00:00	3	Temperatura mínima	18.4
71228	7	Sololá	704	Santa Lucía Utatlán 	7	Santa Rita 	1	Enero	2023-01-17T00:00:00	2024-11-08T18:00:00	5	Humedad	90
71229	7	Sololá	704	Santa Lucía Utatlán 	7	Santa Rita 	1	Enero	2023-01-17T00:00:00	2024-11-08T18:00:00	6	Velocidad del viento	3.2
71230	7	Sololá	704	Santa Lucía Utatlán 	7	Santa Rita 	1	Enero	2023-01-17T00:00:00	2024-11-08T18:00:00	7	Dirección del viento	3.22
71231	7	Sololá	704	Santa Lucía Utatlán 	7	Santa Rita 	1	Enero	2023-01-17T00:00:00	2024-11-08T18:00:00	1	Precipitación	0
71232	7	Sololá	704	Santa Lucía Utatlán 	7	Santa Rita 	1	Enero	2023-01-17T00:00:00	2024-11-08T18:00:00	8	Radiación solar	8
71233	7	Sololá	704	Santa Lucía Utatlán 	7	Santa Rita 	1	Enero	2023-01-17T00:00:00	2024-11-08T19:00:00	2	Temperatura media	17.9
71234	7	Sololá	704	Santa Lucía Utatlán 	7	Santa Rita 	1	Enero	2023-01-17T00:00:00	2024-11-08T19:00:00	4	Temperatura máxima	18.5
71235	7	Sololá	704	Santa Lucía Utatlán 	7	Santa Rita 	1	Enero	2023-01-17T00:00:00	2024-11-08T19:00:00	3	Temperatura mínima	17.9
71236	7	Sololá	704	Santa Lucía Utatlán 	7	Santa Rita 	1	Enero	2023-01-17T00:00:00	2024-11-08T19:00:00	5	Humedad	92
71237	7	Sololá	704	Santa Lucía Utatlán 	7	Santa Rita 	1	Enero	2023-01-17T00:00:00	2024-11-08T19:00:00	6	Velocidad del viento	1.6
71238	7	Sololá	704	Santa Lucía Utatlán 	7	Santa Rita 	1	Enero	2023-01-17T00:00:00	2024-11-08T19:00:00	7	Dirección del viento	1.61
71239	7	Sololá	704	Santa Lucía Utatlán 	7	Santa Rita 	1	Enero	2023-01-17T00:00:00	2024-11-08T19:00:00	1	Precipitación	0
71240	7	Sololá	704	Santa Lucía Utatlán 	7	Santa Rita 	1	Enero	2023-01-17T00:00:00	2024-11-08T19:00:00	8	Radiación solar	0
71241	7	Sololá	704	Santa Lucía Utatlán 	7	Santa Rita 	1	Enero	2023-01-17T00:00:00	2024-11-08T20:00:00	2	Temperatura media	17.8
71242	7	Sololá	704	Santa Lucía Utatlán 	7	Santa Rita 	1	Enero	2023-01-17T00:00:00	2024-11-08T20:00:00	4	Temperatura máxima	17.9
71243	7	Sololá	704	Santa Lucía Utatlán 	7	Santa Rita 	1	Enero	2023-01-17T00:00:00	2024-11-08T20:00:00	3	Temperatura mínima	17.7
71244	7	Sololá	704	Santa Lucía Utatlán 	7	Santa Rita 	1	Enero	2023-01-17T00:00:00	2024-11-08T20:00:00	5	Humedad	91
71245	7	Sololá	704	Santa Lucía Utatlán 	7	Santa Rita 	1	Enero	2023-01-17T00:00:00	2024-11-08T20:00:00	6	Velocidad del viento	1.6
71246	7	Sololá	704	Santa Lucía Utatlán 	7	Santa Rita 	1	Enero	2023-01-17T00:00:00	2024-11-08T20:00:00	7	Dirección del viento	1.61
71247	7	Sololá	704	Santa Lucía Utatlán 	7	Santa Rita 	1	Enero	2023-01-17T00:00:00	2024-11-08T20:00:00	1	Precipitación	0
71248	7	Sololá	704	Santa Lucía Utatlán 	7	Santa Rita 	1	Enero	2023-01-17T00:00:00	2024-11-08T20:00:00	8	Radiación solar	0
71249	7	Sololá	704	Santa Lucía Utatlán 	7	Santa Rita 	1	Enero	2023-01-17T00:00:00	2024-11-08T21:00:00	2	Temperatura media	15.6
71250	7	Sololá	704	Santa Lucía Utatlán 	7	Santa Rita 	1	Enero	2023-01-17T00:00:00	2024-11-08T21:00:00	4	Temperatura máxima	17.8
71251	7	Sololá	704	Santa Lucía Utatlán 	7	Santa Rita 	1	Enero	2023-01-17T00:00:00	2024-11-08T21:00:00	3	Temperatura mínima	15.5
71252	7	Sololá	704	Santa Lucía Utatlán 	7	Santa Rita 	1	Enero	2023-01-17T00:00:00	2024-11-08T21:00:00	5	Humedad	90
71253	7	Sololá	704	Santa Lucía Utatlán 	7	Santa Rita 	1	Enero	2023-01-17T00:00:00	2024-11-08T21:00:00	6	Velocidad del viento	3.2
71254	7	Sololá	704	Santa Lucía Utatlán 	7	Santa Rita 	1	Enero	2023-01-17T00:00:00	2024-11-08T21:00:00	7	Dirección del viento	3.22
71255	7	Sololá	704	Santa Lucía Utatlán 	7	Santa Rita 	1	Enero	2023-01-17T00:00:00	2024-11-08T21:00:00	1	Precipitación	0
71256	7	Sololá	704	Santa Lucía Utatlán 	7	Santa Rita 	1	Enero	2023-01-17T00:00:00	2024-11-08T21:00:00	8	Radiación solar	0
71257	7	Sololá	704	Santa Lucía Utatlán 	7	Santa Rita 	1	Enero	2023-01-17T00:00:00	2024-11-08T22:00:00	2	Temperatura media	15.1
71258	7	Sololá	704	Santa Lucía Utatlán 	7	Santa Rita 	1	Enero	2023-01-17T00:00:00	2024-11-08T22:00:00	4	Temperatura máxima	15.6
71259	7	Sololá	704	Santa Lucía Utatlán 	7	Santa Rita 	1	Enero	2023-01-17T00:00:00	2024-11-08T22:00:00	3	Temperatura mínima	15.1
71260	7	Sololá	704	Santa Lucía Utatlán 	7	Santa Rita 	1	Enero	2023-01-17T00:00:00	2024-11-08T22:00:00	5	Humedad	85
71261	7	Sololá	704	Santa Lucía Utatlán 	7	Santa Rita 	1	Enero	2023-01-17T00:00:00	2024-11-08T22:00:00	6	Velocidad del viento	3.2
71262	7	Sololá	704	Santa Lucía Utatlán 	7	Santa Rita 	1	Enero	2023-01-17T00:00:00	2024-11-08T22:00:00	7	Dirección del viento	3.22
71263	7	Sololá	704	Santa Lucía Utatlán 	7	Santa Rita 	1	Enero	2023-01-17T00:00:00	2024-11-08T22:00:00	1	Precipitación	0
71264	7	Sololá	704	Santa Lucía Utatlán 	7	Santa Rita 	1	Enero	2023-01-17T00:00:00	2024-11-08T22:00:00	8	Radiación solar	0
71265	7	Sololá	704	Santa Lucía Utatlán 	7	Santa Rita 	1	Enero	2023-01-17T00:00:00	2024-11-08T23:00:00	2	Temperatura media	14.2
71266	7	Sololá	704	Santa Lucía Utatlán 	7	Santa Rita 	1	Enero	2023-01-17T00:00:00	2024-11-08T23:00:00	4	Temperatura máxima	15.1
71267	7	Sololá	704	Santa Lucía Utatlán 	7	Santa Rita 	1	Enero	2023-01-17T00:00:00	2024-11-08T23:00:00	3	Temperatura mínima	14.1
71268	7	Sololá	704	Santa Lucía Utatlán 	7	Santa Rita 	1	Enero	2023-01-17T00:00:00	2024-11-08T23:00:00	5	Humedad	88
71269	7	Sololá	704	Santa Lucía Utatlán 	7	Santa Rita 	1	Enero	2023-01-17T00:00:00	2024-11-08T23:00:00	6	Velocidad del viento	1.6
71270	7	Sololá	704	Santa Lucía Utatlán 	7	Santa Rita 	1	Enero	2023-01-17T00:00:00	2024-11-08T23:00:00	7	Dirección del viento	1.61
71271	7	Sololá	704	Santa Lucía Utatlán 	7	Santa Rita 	1	Enero	2023-01-17T00:00:00	2024-11-08T23:00:00	1	Precipitación	0
71272	7	Sololá	704	Santa Lucía Utatlán 	7	Santa Rita 	1	Enero	2023-01-17T00:00:00	2024-11-08T23:00:00	8	Radiación solar	0
71273	7	Sololá	704	Santa Lucía Utatlán 	7	Santa Rita 	1	Enero	2023-01-18T00:00:00	2024-11-08T00:00:00	2	Temperatura media	14.8
71274	7	Sololá	704	Santa Lucía Utatlán 	7	Santa Rita 	1	Enero	2023-01-18T00:00:00	2024-11-08T00:00:00	4	Temperatura máxima	14.9
71275	7	Sololá	704	Santa Lucía Utatlán 	7	Santa Rita 	1	Enero	2023-01-18T00:00:00	2024-11-08T00:00:00	3	Temperatura mínima	14.1
71276	7	Sololá	704	Santa Lucía Utatlán 	7	Santa Rita 	1	Enero	2023-01-18T00:00:00	2024-11-08T00:00:00	5	Humedad	90
71277	7	Sololá	704	Santa Lucía Utatlán 	7	Santa Rita 	1	Enero	2023-01-18T00:00:00	2024-11-08T00:00:00	6	Velocidad del viento	4.8
71278	7	Sololá	704	Santa Lucía Utatlán 	7	Santa Rita 	1	Enero	2023-01-18T00:00:00	2024-11-08T00:00:00	7	Dirección del viento	4.83
71279	7	Sololá	704	Santa Lucía Utatlán 	7	Santa Rita 	1	Enero	2023-01-18T00:00:00	2024-11-08T00:00:00	1	Precipitación	0
71280	7	Sololá	704	Santa Lucía Utatlán 	7	Santa Rita 	1	Enero	2023-01-18T00:00:00	2024-11-08T00:00:00	8	Radiación solar	0
71281	7	Sololá	704	Santa Lucía Utatlán 	7	Santa Rita 	1	Enero	2023-01-18T00:00:00	2024-11-08T01:00:00	2	Temperatura media	14.5
71282	7	Sololá	704	Santa Lucía Utatlán 	7	Santa Rita 	1	Enero	2023-01-18T00:00:00	2024-11-08T01:00:00	4	Temperatura máxima	15.2
71283	7	Sololá	704	Santa Lucía Utatlán 	7	Santa Rita 	1	Enero	2023-01-18T00:00:00	2024-11-08T01:00:00	3	Temperatura mínima	14.5
71284	7	Sololá	704	Santa Lucía Utatlán 	7	Santa Rita 	1	Enero	2023-01-18T00:00:00	2024-11-08T01:00:00	5	Humedad	85
71285	7	Sololá	704	Santa Lucía Utatlán 	7	Santa Rita 	1	Enero	2023-01-18T00:00:00	2024-11-08T01:00:00	6	Velocidad del viento	1.6
71286	7	Sololá	704	Santa Lucía Utatlán 	7	Santa Rita 	1	Enero	2023-01-18T00:00:00	2024-11-08T01:00:00	7	Dirección del viento	1.61
71287	7	Sololá	704	Santa Lucía Utatlán 	7	Santa Rita 	1	Enero	2023-01-18T00:00:00	2024-11-08T01:00:00	1	Precipitación	0
71288	7	Sololá	704	Santa Lucía Utatlán 	7	Santa Rita 	1	Enero	2023-01-18T00:00:00	2024-11-08T01:00:00	8	Radiación solar	0
71289	7	Sololá	704	Santa Lucía Utatlán 	7	Santa Rita 	1	Enero	2023-01-18T00:00:00	2024-11-08T02:00:00	2	Temperatura media	13.8
71290	7	Sololá	704	Santa Lucía Utatlán 	7	Santa Rita 	1	Enero	2023-01-18T00:00:00	2024-11-08T02:00:00	4	Temperatura máxima	14.5
71291	7	Sololá	704	Santa Lucía Utatlán 	7	Santa Rita 	1	Enero	2023-01-18T00:00:00	2024-11-08T02:00:00	3	Temperatura mínima	13.7
71292	7	Sololá	704	Santa Lucía Utatlán 	7	Santa Rita 	1	Enero	2023-01-18T00:00:00	2024-11-08T02:00:00	5	Humedad	91
71293	7	Sololá	704	Santa Lucía Utatlán 	7	Santa Rita 	1	Enero	2023-01-18T00:00:00	2024-11-08T02:00:00	6	Velocidad del viento	6.4
71294	7	Sololá	704	Santa Lucía Utatlán 	7	Santa Rita 	1	Enero	2023-01-18T00:00:00	2024-11-08T02:00:00	7	Dirección del viento	6.44
71295	7	Sololá	704	Santa Lucía Utatlán 	7	Santa Rita 	1	Enero	2023-01-18T00:00:00	2024-11-08T02:00:00	1	Precipitación	0
71296	7	Sololá	704	Santa Lucía Utatlán 	7	Santa Rita 	1	Enero	2023-01-18T00:00:00	2024-11-08T02:00:00	8	Radiación solar	0
71297	7	Sololá	704	Santa Lucía Utatlán 	7	Santa Rita 	1	Enero	2023-01-18T00:00:00	2024-11-08T03:00:00	2	Temperatura media	13.1
71298	7	Sololá	704	Santa Lucía Utatlán 	7	Santa Rita 	1	Enero	2023-01-18T00:00:00	2024-11-08T03:00:00	4	Temperatura máxima	13.8
71299	7	Sololá	704	Santa Lucía Utatlán 	7	Santa Rita 	1	Enero	2023-01-18T00:00:00	2024-11-08T03:00:00	3	Temperatura mínima	13.1
71300	7	Sololá	704	Santa Lucía Utatlán 	7	Santa Rita 	1	Enero	2023-01-18T00:00:00	2024-11-08T03:00:00	5	Humedad	81
71301	7	Sololá	704	Santa Lucía Utatlán 	7	Santa Rita 	1	Enero	2023-01-18T00:00:00	2024-11-08T03:00:00	6	Velocidad del viento	4.8
71302	7	Sololá	704	Santa Lucía Utatlán 	7	Santa Rita 	1	Enero	2023-01-18T00:00:00	2024-11-08T03:00:00	7	Dirección del viento	4.83
71303	7	Sololá	704	Santa Lucía Utatlán 	7	Santa Rita 	1	Enero	2023-01-18T00:00:00	2024-11-08T03:00:00	1	Precipitación	0
71304	7	Sololá	704	Santa Lucía Utatlán 	7	Santa Rita 	1	Enero	2023-01-18T00:00:00	2024-11-08T03:00:00	8	Radiación solar	0
71305	7	Sololá	704	Santa Lucía Utatlán 	7	Santa Rita 	1	Enero	2023-01-18T00:00:00	2024-11-08T04:00:00	2	Temperatura media	13.3
71306	7	Sololá	704	Santa Lucía Utatlán 	7	Santa Rita 	1	Enero	2023-01-18T00:00:00	2024-11-08T04:00:00	4	Temperatura máxima	13.3
71307	7	Sololá	704	Santa Lucía Utatlán 	7	Santa Rita 	1	Enero	2023-01-18T00:00:00	2024-11-08T04:00:00	3	Temperatura mínima	12.8
71308	7	Sololá	704	Santa Lucía Utatlán 	7	Santa Rita 	1	Enero	2023-01-18T00:00:00	2024-11-08T04:00:00	5	Humedad	83
71309	7	Sololá	704	Santa Lucía Utatlán 	7	Santa Rita 	1	Enero	2023-01-18T00:00:00	2024-11-08T04:00:00	6	Velocidad del viento	6.4
71310	7	Sololá	704	Santa Lucía Utatlán 	7	Santa Rita 	1	Enero	2023-01-18T00:00:00	2024-11-08T04:00:00	7	Dirección del viento	6.44
71311	7	Sololá	704	Santa Lucía Utatlán 	7	Santa Rita 	1	Enero	2023-01-18T00:00:00	2024-11-08T04:00:00	1	Precipitación	0
71312	7	Sololá	704	Santa Lucía Utatlán 	7	Santa Rita 	1	Enero	2023-01-18T00:00:00	2024-11-08T04:00:00	8	Radiación solar	0
71313	7	Sololá	704	Santa Lucía Utatlán 	7	Santa Rita 	1	Enero	2023-01-18T00:00:00	2024-11-08T05:00:00	2	Temperatura media	13.2
71314	7	Sololá	704	Santa Lucía Utatlán 	7	Santa Rita 	1	Enero	2023-01-18T00:00:00	2024-11-08T05:00:00	4	Temperatura máxima	13.4
71315	7	Sololá	704	Santa Lucía Utatlán 	7	Santa Rita 	1	Enero	2023-01-18T00:00:00	2024-11-08T05:00:00	3	Temperatura mínima	13.2
71316	7	Sololá	704	Santa Lucía Utatlán 	7	Santa Rita 	1	Enero	2023-01-18T00:00:00	2024-11-08T05:00:00	5	Humedad	81
71317	7	Sololá	704	Santa Lucía Utatlán 	7	Santa Rita 	1	Enero	2023-01-18T00:00:00	2024-11-08T05:00:00	6	Velocidad del viento	4.8
71318	7	Sololá	704	Santa Lucía Utatlán 	7	Santa Rita 	1	Enero	2023-01-18T00:00:00	2024-11-08T05:00:00	7	Dirección del viento	4.83
71319	7	Sololá	704	Santa Lucía Utatlán 	7	Santa Rita 	1	Enero	2023-01-18T00:00:00	2024-11-08T05:00:00	1	Precipitación	0
71320	7	Sololá	704	Santa Lucía Utatlán 	7	Santa Rita 	1	Enero	2023-01-18T00:00:00	2024-11-08T05:00:00	8	Radiación solar	0
71321	7	Sololá	704	Santa Lucía Utatlán 	7	Santa Rita 	1	Enero	2023-01-18T00:00:00	2024-11-08T06:00:00	2	Temperatura media	13.1
71322	7	Sololá	704	Santa Lucía Utatlán 	7	Santa Rita 	1	Enero	2023-01-18T00:00:00	2024-11-08T06:00:00	4	Temperatura máxima	13.3
71323	7	Sololá	704	Santa Lucía Utatlán 	7	Santa Rita 	1	Enero	2023-01-18T00:00:00	2024-11-08T06:00:00	3	Temperatura mínima	13
71324	7	Sololá	704	Santa Lucía Utatlán 	7	Santa Rita 	1	Enero	2023-01-18T00:00:00	2024-11-08T06:00:00	5	Humedad	82
71325	7	Sololá	704	Santa Lucía Utatlán 	7	Santa Rita 	1	Enero	2023-01-18T00:00:00	2024-11-08T06:00:00	6	Velocidad del viento	4.8
71326	7	Sololá	704	Santa Lucía Utatlán 	7	Santa Rita 	1	Enero	2023-01-18T00:00:00	2024-11-08T06:00:00	7	Dirección del viento	4.83
71327	7	Sololá	704	Santa Lucía Utatlán 	7	Santa Rita 	1	Enero	2023-01-18T00:00:00	2024-11-08T06:00:00	1	Precipitación	0
71328	7	Sololá	704	Santa Lucía Utatlán 	7	Santa Rita 	1	Enero	2023-01-18T00:00:00	2024-11-08T06:00:00	8	Radiación solar	0
71329	7	Sololá	704	Santa Lucía Utatlán 	7	Santa Rita 	1	Enero	2023-01-18T00:00:00	2024-11-08T07:00:00	2	Temperatura media	13.5
71330	7	Sololá	704	Santa Lucía Utatlán 	7	Santa Rita 	1	Enero	2023-01-18T00:00:00	2024-11-08T07:00:00	4	Temperatura máxima	13.5
71331	7	Sololá	704	Santa Lucía Utatlán 	7	Santa Rita 	1	Enero	2023-01-18T00:00:00	2024-11-08T07:00:00	3	Temperatura mínima	12.9
71332	7	Sololá	704	Santa Lucía Utatlán 	7	Santa Rita 	1	Enero	2023-01-18T00:00:00	2024-11-08T07:00:00	5	Humedad	71
71333	7	Sololá	704	Santa Lucía Utatlán 	7	Santa Rita 	1	Enero	2023-01-18T00:00:00	2024-11-08T07:00:00	6	Velocidad del viento	4.8
71334	7	Sololá	704	Santa Lucía Utatlán 	7	Santa Rita 	1	Enero	2023-01-18T00:00:00	2024-11-08T07:00:00	7	Dirección del viento	4.83
71335	7	Sololá	704	Santa Lucía Utatlán 	7	Santa Rita 	1	Enero	2023-01-18T00:00:00	2024-11-08T07:00:00	1	Precipitación	0
71336	7	Sololá	704	Santa Lucía Utatlán 	7	Santa Rita 	1	Enero	2023-01-18T00:00:00	2024-11-08T07:00:00	8	Radiación solar	6
71337	7	Sololá	704	Santa Lucía Utatlán 	7	Santa Rita 	1	Enero	2023-01-18T00:00:00	2024-11-08T08:00:00	2	Temperatura media	17.8
71338	7	Sololá	704	Santa Lucía Utatlán 	7	Santa Rita 	1	Enero	2023-01-18T00:00:00	2024-11-08T08:00:00	4	Temperatura máxima	17.8
71339	7	Sololá	704	Santa Lucía Utatlán 	7	Santa Rita 	1	Enero	2023-01-18T00:00:00	2024-11-08T08:00:00	3	Temperatura mínima	13.6
71340	7	Sololá	704	Santa Lucía Utatlán 	7	Santa Rita 	1	Enero	2023-01-18T00:00:00	2024-11-08T08:00:00	5	Humedad	69
71341	7	Sololá	704	Santa Lucía Utatlán 	7	Santa Rita 	1	Enero	2023-01-18T00:00:00	2024-11-08T08:00:00	6	Velocidad del viento	0
71342	7	Sololá	704	Santa Lucía Utatlán 	7	Santa Rita 	1	Enero	2023-01-18T00:00:00	2024-11-08T08:00:00	7	Dirección del viento	0
71343	7	Sololá	704	Santa Lucía Utatlán 	7	Santa Rita 	1	Enero	2023-01-18T00:00:00	2024-11-08T08:00:00	1	Precipitación	0
71344	7	Sololá	704	Santa Lucía Utatlán 	7	Santa Rita 	1	Enero	2023-01-18T00:00:00	2024-11-08T08:00:00	8	Radiación solar	127
71345	7	Sololá	704	Santa Lucía Utatlán 	7	Santa Rita 	1	Enero	2023-01-18T00:00:00	2024-11-08T09:00:00	2	Temperatura media	19.8
71346	7	Sololá	704	Santa Lucía Utatlán 	7	Santa Rita 	1	Enero	2023-01-18T00:00:00	2024-11-08T09:00:00	4	Temperatura máxima	20
71347	7	Sololá	704	Santa Lucía Utatlán 	7	Santa Rita 	1	Enero	2023-01-18T00:00:00	2024-11-08T09:00:00	3	Temperatura mínima	17.8
71348	7	Sololá	704	Santa Lucía Utatlán 	7	Santa Rita 	1	Enero	2023-01-18T00:00:00	2024-11-08T09:00:00	5	Humedad	62
71349	7	Sololá	704	Santa Lucía Utatlán 	7	Santa Rita 	1	Enero	2023-01-18T00:00:00	2024-11-08T09:00:00	6	Velocidad del viento	3.2
71350	7	Sololá	704	Santa Lucía Utatlán 	7	Santa Rita 	1	Enero	2023-01-18T00:00:00	2024-11-08T09:00:00	7	Dirección del viento	3.22
71351	7	Sololá	704	Santa Lucía Utatlán 	7	Santa Rita 	1	Enero	2023-01-18T00:00:00	2024-11-08T09:00:00	1	Precipitación	0
71352	7	Sololá	704	Santa Lucía Utatlán 	7	Santa Rita 	1	Enero	2023-01-18T00:00:00	2024-11-08T09:00:00	8	Radiación solar	371
71353	7	Sololá	704	Santa Lucía Utatlán 	7	Santa Rita 	1	Enero	2023-01-18T00:00:00	2024-11-08T10:00:00	2	Temperatura media	22.2
71354	7	Sololá	704	Santa Lucía Utatlán 	7	Santa Rita 	1	Enero	2023-01-18T00:00:00	2024-11-08T10:00:00	4	Temperatura máxima	22.2
71355	7	Sololá	704	Santa Lucía Utatlán 	7	Santa Rita 	1	Enero	2023-01-18T00:00:00	2024-11-08T10:00:00	3	Temperatura mínima	19.8
71356	7	Sololá	704	Santa Lucía Utatlán 	7	Santa Rita 	1	Enero	2023-01-18T00:00:00	2024-11-08T10:00:00	5	Humedad	55
71357	7	Sololá	704	Santa Lucía Utatlán 	7	Santa Rita 	1	Enero	2023-01-18T00:00:00	2024-11-08T10:00:00	6	Velocidad del viento	4.8
71358	7	Sololá	704	Santa Lucía Utatlán 	7	Santa Rita 	1	Enero	2023-01-18T00:00:00	2024-11-08T10:00:00	7	Dirección del viento	4.83
71359	7	Sololá	704	Santa Lucía Utatlán 	7	Santa Rita 	1	Enero	2023-01-18T00:00:00	2024-11-08T10:00:00	1	Precipitación	0
71360	7	Sololá	704	Santa Lucía Utatlán 	7	Santa Rita 	1	Enero	2023-01-18T00:00:00	2024-11-08T10:00:00	8	Radiación solar	565
71361	7	Sololá	704	Santa Lucía Utatlán 	7	Santa Rita 	1	Enero	2023-01-18T00:00:00	2024-11-08T11:00:00	2	Temperatura media	22.9
71362	7	Sololá	704	Santa Lucía Utatlán 	7	Santa Rita 	1	Enero	2023-01-18T00:00:00	2024-11-08T11:00:00	4	Temperatura máxima	23.3
71363	7	Sololá	704	Santa Lucía Utatlán 	7	Santa Rita 	1	Enero	2023-01-18T00:00:00	2024-11-08T11:00:00	3	Temperatura mínima	22.2
71364	7	Sololá	704	Santa Lucía Utatlán 	7	Santa Rita 	1	Enero	2023-01-18T00:00:00	2024-11-08T11:00:00	5	Humedad	65
71365	7	Sololá	704	Santa Lucía Utatlán 	7	Santa Rita 	1	Enero	2023-01-18T00:00:00	2024-11-08T11:00:00	6	Velocidad del viento	6.4
71366	7	Sololá	704	Santa Lucía Utatlán 	7	Santa Rita 	1	Enero	2023-01-18T00:00:00	2024-11-08T11:00:00	7	Dirección del viento	6.44
71367	7	Sololá	704	Santa Lucía Utatlán 	7	Santa Rita 	1	Enero	2023-01-18T00:00:00	2024-11-08T11:00:00	1	Precipitación	0
71368	7	Sololá	704	Santa Lucía Utatlán 	7	Santa Rita 	1	Enero	2023-01-18T00:00:00	2024-11-08T11:00:00	8	Radiación solar	707
71369	7	Sololá	704	Santa Lucía Utatlán 	7	Santa Rita 	1	Enero	2023-01-18T00:00:00	2024-11-08T12:00:00	2	Temperatura media	23.1
71370	7	Sololá	704	Santa Lucía Utatlán 	7	Santa Rita 	1	Enero	2023-01-18T00:00:00	2024-11-08T12:00:00	4	Temperatura máxima	23.1
71371	7	Sololá	704	Santa Lucía Utatlán 	7	Santa Rita 	1	Enero	2023-01-18T00:00:00	2024-11-08T12:00:00	3	Temperatura mínima	22.6
71372	7	Sololá	704	Santa Lucía Utatlán 	7	Santa Rita 	1	Enero	2023-01-18T00:00:00	2024-11-08T12:00:00	5	Humedad	66
71373	7	Sololá	704	Santa Lucía Utatlán 	7	Santa Rita 	1	Enero	2023-01-18T00:00:00	2024-11-08T12:00:00	6	Velocidad del viento	8
71374	7	Sololá	704	Santa Lucía Utatlán 	7	Santa Rita 	1	Enero	2023-01-18T00:00:00	2024-11-08T12:00:00	7	Dirección del viento	8.05
71375	7	Sololá	704	Santa Lucía Utatlán 	7	Santa Rita 	1	Enero	2023-01-18T00:00:00	2024-11-08T12:00:00	1	Precipitación	0
71376	7	Sololá	704	Santa Lucía Utatlán 	7	Santa Rita 	1	Enero	2023-01-18T00:00:00	2024-11-08T12:00:00	8	Radiación solar	790
71377	7	Sololá	704	Santa Lucía Utatlán 	7	Santa Rita 	1	Enero	2023-01-18T00:00:00	2024-11-08T13:00:00	2	Temperatura media	22.1
71378	7	Sololá	704	Santa Lucía Utatlán 	7	Santa Rita 	1	Enero	2023-01-18T00:00:00	2024-11-08T13:00:00	4	Temperatura máxima	23.2
71379	7	Sololá	704	Santa Lucía Utatlán 	7	Santa Rita 	1	Enero	2023-01-18T00:00:00	2024-11-08T13:00:00	3	Temperatura mínima	22
71380	7	Sololá	704	Santa Lucía Utatlán 	7	Santa Rita 	1	Enero	2023-01-18T00:00:00	2024-11-08T13:00:00	5	Humedad	73
71381	7	Sololá	704	Santa Lucía Utatlán 	7	Santa Rita 	1	Enero	2023-01-18T00:00:00	2024-11-08T13:00:00	6	Velocidad del viento	8
71382	7	Sololá	704	Santa Lucía Utatlán 	7	Santa Rita 	1	Enero	2023-01-18T00:00:00	2024-11-08T13:00:00	7	Dirección del viento	8.05
71383	7	Sololá	704	Santa Lucía Utatlán 	7	Santa Rita 	1	Enero	2023-01-18T00:00:00	2024-11-08T13:00:00	1	Precipitación	0
71384	7	Sololá	704	Santa Lucía Utatlán 	7	Santa Rita 	1	Enero	2023-01-18T00:00:00	2024-11-08T13:00:00	8	Radiación solar	828
71385	7	Sololá	704	Santa Lucía Utatlán 	7	Santa Rita 	1	Enero	2023-01-18T00:00:00	2024-11-08T14:00:00	2	Temperatura media	22.1
71386	7	Sololá	704	Santa Lucía Utatlán 	7	Santa Rita 	1	Enero	2023-01-18T00:00:00	2024-11-08T14:00:00	4	Temperatura máxima	22.7
71387	7	Sololá	704	Santa Lucía Utatlán 	7	Santa Rita 	1	Enero	2023-01-18T00:00:00	2024-11-08T14:00:00	3	Temperatura mínima	21.7
71388	7	Sololá	704	Santa Lucía Utatlán 	7	Santa Rita 	1	Enero	2023-01-18T00:00:00	2024-11-08T14:00:00	5	Humedad	75
71389	7	Sololá	704	Santa Lucía Utatlán 	7	Santa Rita 	1	Enero	2023-01-18T00:00:00	2024-11-08T14:00:00	6	Velocidad del viento	8
71390	7	Sololá	704	Santa Lucía Utatlán 	7	Santa Rita 	1	Enero	2023-01-18T00:00:00	2024-11-08T14:00:00	7	Dirección del viento	8.05
71391	7	Sololá	704	Santa Lucía Utatlán 	7	Santa Rita 	1	Enero	2023-01-18T00:00:00	2024-11-08T14:00:00	1	Precipitación	0
71392	7	Sololá	704	Santa Lucía Utatlán 	7	Santa Rita 	1	Enero	2023-01-18T00:00:00	2024-11-08T14:00:00	8	Radiación solar	565
71393	7	Sololá	704	Santa Lucía Utatlán 	7	Santa Rita 	1	Enero	2023-01-18T00:00:00	2024-11-08T15:00:00	2	Temperatura media	20.6
71394	7	Sololá	704	Santa Lucía Utatlán 	7	Santa Rita 	1	Enero	2023-01-18T00:00:00	2024-11-08T15:00:00	4	Temperatura máxima	22.2
71395	7	Sololá	704	Santa Lucía Utatlán 	7	Santa Rita 	1	Enero	2023-01-18T00:00:00	2024-11-08T15:00:00	3	Temperatura mínima	20.6
71396	7	Sololá	704	Santa Lucía Utatlán 	7	Santa Rita 	1	Enero	2023-01-18T00:00:00	2024-11-08T15:00:00	5	Humedad	80
71397	7	Sololá	704	Santa Lucía Utatlán 	7	Santa Rita 	1	Enero	2023-01-18T00:00:00	2024-11-08T15:00:00	6	Velocidad del viento	8
71398	7	Sololá	704	Santa Lucía Utatlán 	7	Santa Rita 	1	Enero	2023-01-18T00:00:00	2024-11-08T15:00:00	7	Dirección del viento	8.05
71399	7	Sololá	704	Santa Lucía Utatlán 	7	Santa Rita 	1	Enero	2023-01-18T00:00:00	2024-11-08T15:00:00	1	Precipitación	0
71400	7	Sololá	704	Santa Lucía Utatlán 	7	Santa Rita 	1	Enero	2023-01-18T00:00:00	2024-11-08T15:00:00	8	Radiación solar	339
71401	7	Sololá	704	Santa Lucía Utatlán 	7	Santa Rita 	1	Enero	2023-01-18T00:00:00	2024-11-08T16:00:00	2	Temperatura media	19.6
71402	7	Sololá	704	Santa Lucía Utatlán 	7	Santa Rita 	1	Enero	2023-01-18T00:00:00	2024-11-08T16:00:00	4	Temperatura máxima	20.6
71403	7	Sololá	704	Santa Lucía Utatlán 	7	Santa Rita 	1	Enero	2023-01-18T00:00:00	2024-11-08T16:00:00	3	Temperatura mínima	19.6
71404	7	Sololá	704	Santa Lucía Utatlán 	7	Santa Rita 	1	Enero	2023-01-18T00:00:00	2024-11-08T16:00:00	5	Humedad	86
71405	7	Sololá	704	Santa Lucía Utatlán 	7	Santa Rita 	1	Enero	2023-01-18T00:00:00	2024-11-08T16:00:00	6	Velocidad del viento	6.4
71406	7	Sololá	704	Santa Lucía Utatlán 	7	Santa Rita 	1	Enero	2023-01-18T00:00:00	2024-11-08T16:00:00	7	Dirección del viento	6.44
71407	7	Sololá	704	Santa Lucía Utatlán 	7	Santa Rita 	1	Enero	2023-01-18T00:00:00	2024-11-08T16:00:00	1	Precipitación	0
71408	7	Sololá	704	Santa Lucía Utatlán 	7	Santa Rita 	1	Enero	2023-01-18T00:00:00	2024-11-08T16:00:00	8	Radiación solar	136
71409	7	Sololá	704	Santa Lucía Utatlán 	7	Santa Rita 	1	Enero	2023-01-18T00:00:00	2024-11-08T17:00:00	2	Temperatura media	19
71410	7	Sololá	704	Santa Lucía Utatlán 	7	Santa Rita 	1	Enero	2023-01-18T00:00:00	2024-11-08T17:00:00	4	Temperatura máxima	19.6
71411	7	Sololá	704	Santa Lucía Utatlán 	7	Santa Rita 	1	Enero	2023-01-18T00:00:00	2024-11-08T17:00:00	3	Temperatura mínima	18.9
71412	7	Sololá	704	Santa Lucía Utatlán 	7	Santa Rita 	1	Enero	2023-01-18T00:00:00	2024-11-08T17:00:00	5	Humedad	88
71413	7	Sololá	704	Santa Lucía Utatlán 	7	Santa Rita 	1	Enero	2023-01-18T00:00:00	2024-11-08T17:00:00	6	Velocidad del viento	1.6
71414	7	Sololá	704	Santa Lucía Utatlán 	7	Santa Rita 	1	Enero	2023-01-18T00:00:00	2024-11-08T17:00:00	7	Dirección del viento	1.61
71415	7	Sololá	704	Santa Lucía Utatlán 	7	Santa Rita 	1	Enero	2023-01-18T00:00:00	2024-11-08T17:00:00	1	Precipitación	0
71416	7	Sololá	704	Santa Lucía Utatlán 	7	Santa Rita 	1	Enero	2023-01-18T00:00:00	2024-11-08T17:00:00	8	Radiación solar	72
71417	7	Sololá	704	Santa Lucía Utatlán 	7	Santa Rita 	1	Enero	2023-01-18T00:00:00	2024-11-08T18:00:00	2	Temperatura media	18.4
71418	7	Sololá	704	Santa Lucía Utatlán 	7	Santa Rita 	1	Enero	2023-01-18T00:00:00	2024-11-08T18:00:00	4	Temperatura máxima	19.1
71419	7	Sololá	704	Santa Lucía Utatlán 	7	Santa Rita 	1	Enero	2023-01-18T00:00:00	2024-11-08T18:00:00	3	Temperatura mínima	18.4
71420	7	Sololá	704	Santa Lucía Utatlán 	7	Santa Rita 	1	Enero	2023-01-18T00:00:00	2024-11-08T18:00:00	5	Humedad	90
71421	7	Sololá	704	Santa Lucía Utatlán 	7	Santa Rita 	1	Enero	2023-01-18T00:00:00	2024-11-08T18:00:00	6	Velocidad del viento	1.6
71422	7	Sololá	704	Santa Lucía Utatlán 	7	Santa Rita 	1	Enero	2023-01-18T00:00:00	2024-11-08T18:00:00	7	Dirección del viento	1.61
71423	7	Sololá	704	Santa Lucía Utatlán 	7	Santa Rita 	1	Enero	2023-01-18T00:00:00	2024-11-08T18:00:00	1	Precipitación	0
71424	7	Sololá	704	Santa Lucía Utatlán 	7	Santa Rita 	1	Enero	2023-01-18T00:00:00	2024-11-08T18:00:00	8	Radiación solar	31
71425	7	Sololá	704	Santa Lucía Utatlán 	7	Santa Rita 	1	Enero	2023-01-18T00:00:00	2024-11-08T19:00:00	2	Temperatura media	18.2
71426	7	Sololá	704	Santa Lucía Utatlán 	7	Santa Rita 	1	Enero	2023-01-18T00:00:00	2024-11-08T19:00:00	4	Temperatura máxima	18.4
71427	7	Sololá	704	Santa Lucía Utatlán 	7	Santa Rita 	1	Enero	2023-01-18T00:00:00	2024-11-08T19:00:00	3	Temperatura mínima	18.2
71428	7	Sololá	704	Santa Lucía Utatlán 	7	Santa Rita 	1	Enero	2023-01-18T00:00:00	2024-11-08T19:00:00	5	Humedad	91
71429	7	Sololá	704	Santa Lucía Utatlán 	7	Santa Rita 	1	Enero	2023-01-18T00:00:00	2024-11-08T19:00:00	6	Velocidad del viento	1.6
71430	7	Sololá	704	Santa Lucía Utatlán 	7	Santa Rita 	1	Enero	2023-01-18T00:00:00	2024-11-08T19:00:00	7	Dirección del viento	1.61
71431	7	Sololá	704	Santa Lucía Utatlán 	7	Santa Rita 	1	Enero	2023-01-18T00:00:00	2024-11-08T19:00:00	1	Precipitación	0
71432	7	Sololá	704	Santa Lucía Utatlán 	7	Santa Rita 	1	Enero	2023-01-18T00:00:00	2024-11-08T19:00:00	8	Radiación solar	0
71433	7	Sololá	704	Santa Lucía Utatlán 	7	Santa Rita 	1	Enero	2023-01-18T00:00:00	2024-11-08T20:00:00	2	Temperatura media	18
71434	7	Sololá	704	Santa Lucía Utatlán 	7	Santa Rita 	1	Enero	2023-01-18T00:00:00	2024-11-08T20:00:00	4	Temperatura máxima	18.2
71435	7	Sololá	704	Santa Lucía Utatlán 	7	Santa Rita 	1	Enero	2023-01-18T00:00:00	2024-11-08T20:00:00	3	Temperatura mínima	17.9
71436	7	Sololá	704	Santa Lucía Utatlán 	7	Santa Rita 	1	Enero	2023-01-18T00:00:00	2024-11-08T20:00:00	5	Humedad	91
71437	7	Sololá	704	Santa Lucía Utatlán 	7	Santa Rita 	1	Enero	2023-01-18T00:00:00	2024-11-08T20:00:00	6	Velocidad del viento	1.6
71438	7	Sololá	704	Santa Lucía Utatlán 	7	Santa Rita 	1	Enero	2023-01-18T00:00:00	2024-11-08T20:00:00	7	Dirección del viento	1.61
71439	7	Sololá	704	Santa Lucía Utatlán 	7	Santa Rita 	1	Enero	2023-01-18T00:00:00	2024-11-08T20:00:00	1	Precipitación	0
71440	7	Sololá	704	Santa Lucía Utatlán 	7	Santa Rita 	1	Enero	2023-01-18T00:00:00	2024-11-08T20:00:00	8	Radiación solar	0
71441	7	Sololá	704	Santa Lucía Utatlán 	7	Santa Rita 	1	Enero	2023-01-18T00:00:00	2024-11-08T21:00:00	2	Temperatura media	17.7
71442	7	Sololá	704	Santa Lucía Utatlán 	7	Santa Rita 	1	Enero	2023-01-18T00:00:00	2024-11-08T21:00:00	4	Temperatura máxima	18.3
71443	7	Sololá	704	Santa Lucía Utatlán 	7	Santa Rita 	1	Enero	2023-01-18T00:00:00	2024-11-08T21:00:00	3	Temperatura mínima	17.7
71444	7	Sololá	704	Santa Lucía Utatlán 	7	Santa Rita 	1	Enero	2023-01-18T00:00:00	2024-11-08T21:00:00	5	Humedad	83
71445	7	Sololá	704	Santa Lucía Utatlán 	7	Santa Rita 	1	Enero	2023-01-18T00:00:00	2024-11-08T21:00:00	6	Velocidad del viento	1.6
71446	7	Sololá	704	Santa Lucía Utatlán 	7	Santa Rita 	1	Enero	2023-01-18T00:00:00	2024-11-08T21:00:00	7	Dirección del viento	1.61
71447	7	Sololá	704	Santa Lucía Utatlán 	7	Santa Rita 	1	Enero	2023-01-18T00:00:00	2024-11-08T21:00:00	1	Precipitación	0
71448	7	Sololá	704	Santa Lucía Utatlán 	7	Santa Rita 	1	Enero	2023-01-18T00:00:00	2024-11-08T21:00:00	8	Radiación solar	0
71449	7	Sololá	704	Santa Lucía Utatlán 	7	Santa Rita 	1	Enero	2023-01-18T00:00:00	2024-11-08T22:00:00	2	Temperatura media	16.1
71450	7	Sololá	704	Santa Lucía Utatlán 	7	Santa Rita 	1	Enero	2023-01-18T00:00:00	2024-11-08T22:00:00	4	Temperatura máxima	17.7
71451	7	Sololá	704	Santa Lucía Utatlán 	7	Santa Rita 	1	Enero	2023-01-18T00:00:00	2024-11-08T22:00:00	3	Temperatura mínima	16.1
71452	7	Sololá	704	Santa Lucía Utatlán 	7	Santa Rita 	1	Enero	2023-01-18T00:00:00	2024-11-08T22:00:00	5	Humedad	87
71453	7	Sololá	704	Santa Lucía Utatlán 	7	Santa Rita 	1	Enero	2023-01-18T00:00:00	2024-11-08T22:00:00	6	Velocidad del viento	3.2
71454	7	Sololá	704	Santa Lucía Utatlán 	7	Santa Rita 	1	Enero	2023-01-18T00:00:00	2024-11-08T22:00:00	7	Dirección del viento	3.22
71455	7	Sololá	704	Santa Lucía Utatlán 	7	Santa Rita 	1	Enero	2023-01-18T00:00:00	2024-11-08T22:00:00	1	Precipitación	0
71456	7	Sololá	704	Santa Lucía Utatlán 	7	Santa Rita 	1	Enero	2023-01-18T00:00:00	2024-11-08T22:00:00	8	Radiación solar	0
71457	7	Sololá	704	Santa Lucía Utatlán 	7	Santa Rita 	1	Enero	2023-01-18T00:00:00	2024-11-08T23:00:00	2	Temperatura media	15.2
71458	7	Sololá	704	Santa Lucía Utatlán 	7	Santa Rita 	1	Enero	2023-01-18T00:00:00	2024-11-08T23:00:00	4	Temperatura máxima	16.1
71459	7	Sololá	704	Santa Lucía Utatlán 	7	Santa Rita 	1	Enero	2023-01-18T00:00:00	2024-11-08T23:00:00	3	Temperatura mínima	15.2
71460	7	Sololá	704	Santa Lucía Utatlán 	7	Santa Rita 	1	Enero	2023-01-18T00:00:00	2024-11-08T23:00:00	5	Humedad	89
71461	7	Sololá	704	Santa Lucía Utatlán 	7	Santa Rita 	1	Enero	2023-01-18T00:00:00	2024-11-08T23:00:00	6	Velocidad del viento	4.8
71462	7	Sololá	704	Santa Lucía Utatlán 	7	Santa Rita 	1	Enero	2023-01-18T00:00:00	2024-11-08T23:00:00	7	Dirección del viento	4.83
71463	7	Sololá	704	Santa Lucía Utatlán 	7	Santa Rita 	1	Enero	2023-01-18T00:00:00	2024-11-08T23:00:00	1	Precipitación	0
71464	7	Sololá	704	Santa Lucía Utatlán 	7	Santa Rita 	1	Enero	2023-01-18T00:00:00	2024-11-08T23:00:00	8	Radiación solar	0
71465	7	Sololá	704	Santa Lucía Utatlán 	7	Santa Rita 	1	Enero	2023-01-19T00:00:00	2024-11-08T00:00:00	2	Temperatura media	15.1
71466	7	Sololá	704	Santa Lucía Utatlán 	7	Santa Rita 	1	Enero	2023-01-19T00:00:00	2024-11-08T00:00:00	4	Temperatura máxima	15.3
71467	7	Sololá	704	Santa Lucía Utatlán 	7	Santa Rita 	1	Enero	2023-01-19T00:00:00	2024-11-08T00:00:00	3	Temperatura mínima	14.9
71468	7	Sololá	704	Santa Lucía Utatlán 	7	Santa Rita 	1	Enero	2023-01-19T00:00:00	2024-11-08T00:00:00	5	Humedad	86
71469	7	Sololá	704	Santa Lucía Utatlán 	7	Santa Rita 	1	Enero	2023-01-19T00:00:00	2024-11-08T00:00:00	6	Velocidad del viento	4.8
71470	7	Sololá	704	Santa Lucía Utatlán 	7	Santa Rita 	1	Enero	2023-01-19T00:00:00	2024-11-08T00:00:00	7	Dirección del viento	4.83
71471	7	Sololá	704	Santa Lucía Utatlán 	7	Santa Rita 	1	Enero	2023-01-19T00:00:00	2024-11-08T00:00:00	1	Precipitación	0
71472	7	Sololá	704	Santa Lucía Utatlán 	7	Santa Rita 	1	Enero	2023-01-19T00:00:00	2024-11-08T00:00:00	8	Radiación solar	0
71473	7	Sololá	704	Santa Lucía Utatlán 	7	Santa Rita 	1	Enero	2023-01-19T00:00:00	2024-11-08T01:00:00	2	Temperatura media	14.6
71474	7	Sololá	704	Santa Lucía Utatlán 	7	Santa Rita 	1	Enero	2023-01-19T00:00:00	2024-11-08T01:00:00	4	Temperatura máxima	15.1
71475	7	Sololá	704	Santa Lucía Utatlán 	7	Santa Rita 	1	Enero	2023-01-19T00:00:00	2024-11-08T01:00:00	3	Temperatura mínima	14.4
71476	7	Sololá	704	Santa Lucía Utatlán 	7	Santa Rita 	1	Enero	2023-01-19T00:00:00	2024-11-08T01:00:00	5	Humedad	83
71477	7	Sololá	704	Santa Lucía Utatlán 	7	Santa Rita 	1	Enero	2023-01-19T00:00:00	2024-11-08T01:00:00	6	Velocidad del viento	6.4
71478	7	Sololá	704	Santa Lucía Utatlán 	7	Santa Rita 	1	Enero	2023-01-19T00:00:00	2024-11-08T01:00:00	7	Dirección del viento	6.44
71479	7	Sololá	704	Santa Lucía Utatlán 	7	Santa Rita 	1	Enero	2023-01-19T00:00:00	2024-11-08T01:00:00	1	Precipitación	0
71480	7	Sololá	704	Santa Lucía Utatlán 	7	Santa Rita 	1	Enero	2023-01-19T00:00:00	2024-11-08T01:00:00	8	Radiación solar	0
71481	7	Sololá	704	Santa Lucía Utatlán 	7	Santa Rita 	1	Enero	2023-01-19T00:00:00	2024-11-08T02:00:00	2	Temperatura media	14.6
71482	7	Sololá	704	Santa Lucía Utatlán 	7	Santa Rita 	1	Enero	2023-01-19T00:00:00	2024-11-08T02:00:00	4	Temperatura máxima	15.1
71483	7	Sololá	704	Santa Lucía Utatlán 	7	Santa Rita 	1	Enero	2023-01-19T00:00:00	2024-11-08T02:00:00	3	Temperatura mínima	14.3
71484	7	Sololá	704	Santa Lucía Utatlán 	7	Santa Rita 	1	Enero	2023-01-19T00:00:00	2024-11-08T02:00:00	5	Humedad	57
71485	7	Sololá	704	Santa Lucía Utatlán 	7	Santa Rita 	1	Enero	2023-01-19T00:00:00	2024-11-08T02:00:00	6	Velocidad del viento	8
71486	7	Sololá	704	Santa Lucía Utatlán 	7	Santa Rita 	1	Enero	2023-01-19T00:00:00	2024-11-08T02:00:00	7	Dirección del viento	8.05
71487	7	Sololá	704	Santa Lucía Utatlán 	7	Santa Rita 	1	Enero	2023-01-19T00:00:00	2024-11-08T02:00:00	1	Precipitación	0
71488	7	Sololá	704	Santa Lucía Utatlán 	7	Santa Rita 	1	Enero	2023-01-19T00:00:00	2024-11-08T02:00:00	8	Radiación solar	0
71489	7	Sololá	704	Santa Lucía Utatlán 	7	Santa Rita 	1	Enero	2023-01-19T00:00:00	2024-11-08T03:00:00	2	Temperatura media	14.2
71490	7	Sololá	704	Santa Lucía Utatlán 	7	Santa Rita 	1	Enero	2023-01-19T00:00:00	2024-11-08T03:00:00	4	Temperatura máxima	14.6
71491	7	Sololá	704	Santa Lucía Utatlán 	7	Santa Rita 	1	Enero	2023-01-19T00:00:00	2024-11-08T03:00:00	3	Temperatura mínima	14.2
71492	7	Sololá	704	Santa Lucía Utatlán 	7	Santa Rita 	1	Enero	2023-01-19T00:00:00	2024-11-08T03:00:00	5	Humedad	48
71493	7	Sololá	704	Santa Lucía Utatlán 	7	Santa Rita 	1	Enero	2023-01-19T00:00:00	2024-11-08T03:00:00	6	Velocidad del viento	8
71494	7	Sololá	704	Santa Lucía Utatlán 	7	Santa Rita 	1	Enero	2023-01-19T00:00:00	2024-11-08T03:00:00	7	Dirección del viento	8.05
71495	7	Sololá	704	Santa Lucía Utatlán 	7	Santa Rita 	1	Enero	2023-01-19T00:00:00	2024-11-08T03:00:00	1	Precipitación	0
71496	7	Sololá	704	Santa Lucía Utatlán 	7	Santa Rita 	1	Enero	2023-01-19T00:00:00	2024-11-08T03:00:00	8	Radiación solar	0
71497	7	Sololá	704	Santa Lucía Utatlán 	7	Santa Rita 	1	Enero	2023-01-19T00:00:00	2024-11-08T04:00:00	2	Temperatura media	14.2
71498	7	Sololá	704	Santa Lucía Utatlán 	7	Santa Rita 	1	Enero	2023-01-19T00:00:00	2024-11-08T04:00:00	4	Temperatura máxima	14.3
71499	7	Sololá	704	Santa Lucía Utatlán 	7	Santa Rita 	1	Enero	2023-01-19T00:00:00	2024-11-08T04:00:00	3	Temperatura mínima	13.7
71500	7	Sololá	704	Santa Lucía Utatlán 	7	Santa Rita 	1	Enero	2023-01-19T00:00:00	2024-11-08T04:00:00	5	Humedad	43
71501	7	Sololá	704	Santa Lucía Utatlán 	7	Santa Rita 	1	Enero	2023-01-19T00:00:00	2024-11-08T04:00:00	6	Velocidad del viento	9.7
71502	7	Sololá	704	Santa Lucía Utatlán 	7	Santa Rita 	1	Enero	2023-01-19T00:00:00	2024-11-08T04:00:00	7	Dirección del viento	9.66
71503	7	Sololá	704	Santa Lucía Utatlán 	7	Santa Rita 	1	Enero	2023-01-19T00:00:00	2024-11-08T04:00:00	1	Precipitación	0
71504	7	Sololá	704	Santa Lucía Utatlán 	7	Santa Rita 	1	Enero	2023-01-19T00:00:00	2024-11-08T04:00:00	8	Radiación solar	0
71505	7	Sololá	704	Santa Lucía Utatlán 	7	Santa Rita 	1	Enero	2023-01-19T00:00:00	2024-11-08T05:00:00	2	Temperatura media	13.7
71506	7	Sololá	704	Santa Lucía Utatlán 	7	Santa Rita 	1	Enero	2023-01-19T00:00:00	2024-11-08T05:00:00	4	Temperatura máxima	14.4
71507	7	Sololá	704	Santa Lucía Utatlán 	7	Santa Rita 	1	Enero	2023-01-19T00:00:00	2024-11-08T05:00:00	3	Temperatura mínima	13.6
71508	7	Sololá	704	Santa Lucía Utatlán 	7	Santa Rita 	1	Enero	2023-01-19T00:00:00	2024-11-08T05:00:00	5	Humedad	41
71509	7	Sololá	704	Santa Lucía Utatlán 	7	Santa Rita 	1	Enero	2023-01-19T00:00:00	2024-11-08T05:00:00	6	Velocidad del viento	9.7
71510	7	Sololá	704	Santa Lucía Utatlán 	7	Santa Rita 	1	Enero	2023-01-19T00:00:00	2024-11-08T05:00:00	7	Dirección del viento	9.66
71511	7	Sololá	704	Santa Lucía Utatlán 	7	Santa Rita 	1	Enero	2023-01-19T00:00:00	2024-11-08T05:00:00	1	Precipitación	0
71512	7	Sololá	704	Santa Lucía Utatlán 	7	Santa Rita 	1	Enero	2023-01-19T00:00:00	2024-11-08T05:00:00	8	Radiación solar	0
71513	7	Sololá	704	Santa Lucía Utatlán 	7	Santa Rita 	1	Enero	2023-01-19T00:00:00	2024-11-08T06:00:00	2	Temperatura media	13.9
71514	7	Sololá	704	Santa Lucía Utatlán 	7	Santa Rita 	1	Enero	2023-01-19T00:00:00	2024-11-08T06:00:00	4	Temperatura máxima	14.1
71515	7	Sololá	704	Santa Lucía Utatlán 	7	Santa Rita 	1	Enero	2023-01-19T00:00:00	2024-11-08T06:00:00	3	Temperatura mínima	13.6
71516	7	Sololá	704	Santa Lucía Utatlán 	7	Santa Rita 	1	Enero	2023-01-19T00:00:00	2024-11-08T06:00:00	5	Humedad	29
71517	7	Sololá	704	Santa Lucía Utatlán 	7	Santa Rita 	1	Enero	2023-01-19T00:00:00	2024-11-08T06:00:00	6	Velocidad del viento	9.7
71518	7	Sololá	704	Santa Lucía Utatlán 	7	Santa Rita 	1	Enero	2023-01-19T00:00:00	2024-11-08T06:00:00	7	Dirección del viento	9.66
71519	7	Sololá	704	Santa Lucía Utatlán 	7	Santa Rita 	1	Enero	2023-01-19T00:00:00	2024-11-08T06:00:00	1	Precipitación	0
71520	7	Sololá	704	Santa Lucía Utatlán 	7	Santa Rita 	1	Enero	2023-01-19T00:00:00	2024-11-08T06:00:00	8	Radiación solar	0
71521	7	Sololá	704	Santa Lucía Utatlán 	7	Santa Rita 	1	Enero	2023-01-19T00:00:00	2024-11-08T07:00:00	2	Temperatura media	14.3
71522	7	Sololá	704	Santa Lucía Utatlán 	7	Santa Rita 	1	Enero	2023-01-19T00:00:00	2024-11-08T07:00:00	4	Temperatura máxima	14.3
71523	7	Sololá	704	Santa Lucía Utatlán 	7	Santa Rita 	1	Enero	2023-01-19T00:00:00	2024-11-08T07:00:00	3	Temperatura mínima	13.4
71524	7	Sololá	704	Santa Lucía Utatlán 	7	Santa Rita 	1	Enero	2023-01-19T00:00:00	2024-11-08T07:00:00	5	Humedad	31
71525	7	Sololá	704	Santa Lucía Utatlán 	7	Santa Rita 	1	Enero	2023-01-19T00:00:00	2024-11-08T07:00:00	6	Velocidad del viento	8
71526	7	Sololá	704	Santa Lucía Utatlán 	7	Santa Rita 	1	Enero	2023-01-19T00:00:00	2024-11-08T07:00:00	7	Dirección del viento	8.05
71527	7	Sololá	704	Santa Lucía Utatlán 	7	Santa Rita 	1	Enero	2023-01-19T00:00:00	2024-11-08T07:00:00	1	Precipitación	0
71528	7	Sololá	704	Santa Lucía Utatlán 	7	Santa Rita 	1	Enero	2023-01-19T00:00:00	2024-11-08T07:00:00	8	Radiación solar	5
71529	7	Sololá	704	Santa Lucía Utatlán 	7	Santa Rita 	1	Enero	2023-01-19T00:00:00	2024-11-08T08:00:00	2	Temperatura media	18.6
71530	7	Sololá	704	Santa Lucía Utatlán 	7	Santa Rita 	1	Enero	2023-01-19T00:00:00	2024-11-08T08:00:00	4	Temperatura máxima	18.6
71531	7	Sololá	704	Santa Lucía Utatlán 	7	Santa Rita 	1	Enero	2023-01-19T00:00:00	2024-11-08T08:00:00	3	Temperatura mínima	14.3
71532	7	Sololá	704	Santa Lucía Utatlán 	7	Santa Rita 	1	Enero	2023-01-19T00:00:00	2024-11-08T08:00:00	5	Humedad	23
71533	7	Sololá	704	Santa Lucía Utatlán 	7	Santa Rita 	1	Enero	2023-01-19T00:00:00	2024-11-08T08:00:00	6	Velocidad del viento	1.6
71534	7	Sololá	704	Santa Lucía Utatlán 	7	Santa Rita 	1	Enero	2023-01-19T00:00:00	2024-11-08T08:00:00	7	Dirección del viento	1.61
71535	7	Sololá	704	Santa Lucía Utatlán 	7	Santa Rita 	1	Enero	2023-01-19T00:00:00	2024-11-08T08:00:00	1	Precipitación	0
71536	7	Sololá	704	Santa Lucía Utatlán 	7	Santa Rita 	1	Enero	2023-01-19T00:00:00	2024-11-08T08:00:00	8	Radiación solar	135
71537	7	Sololá	704	Santa Lucía Utatlán 	7	Santa Rita 	1	Enero	2023-01-19T00:00:00	2024-11-08T09:00:00	2	Temperatura media	21.3
71538	7	Sololá	704	Santa Lucía Utatlán 	7	Santa Rita 	1	Enero	2023-01-19T00:00:00	2024-11-08T09:00:00	4	Temperatura máxima	21.3
71539	7	Sololá	704	Santa Lucía Utatlán 	7	Santa Rita 	1	Enero	2023-01-19T00:00:00	2024-11-08T09:00:00	3	Temperatura mínima	18.6
71540	7	Sololá	704	Santa Lucía Utatlán 	7	Santa Rita 	1	Enero	2023-01-19T00:00:00	2024-11-08T09:00:00	5	Humedad	19
71541	7	Sololá	704	Santa Lucía Utatlán 	7	Santa Rita 	1	Enero	2023-01-19T00:00:00	2024-11-08T09:00:00	6	Velocidad del viento	3.2
71542	7	Sololá	704	Santa Lucía Utatlán 	7	Santa Rita 	1	Enero	2023-01-19T00:00:00	2024-11-08T09:00:00	7	Dirección del viento	3.22
71543	7	Sololá	704	Santa Lucía Utatlán 	7	Santa Rita 	1	Enero	2023-01-19T00:00:00	2024-11-08T09:00:00	1	Precipitación	0
71544	7	Sololá	704	Santa Lucía Utatlán 	7	Santa Rita 	1	Enero	2023-01-19T00:00:00	2024-11-08T09:00:00	8	Radiación solar	385
71545	7	Sololá	704	Santa Lucía Utatlán 	7	Santa Rita 	1	Enero	2023-01-19T00:00:00	2024-11-08T10:00:00	2	Temperatura media	23.1
71546	7	Sololá	704	Santa Lucía Utatlán 	7	Santa Rita 	1	Enero	2023-01-19T00:00:00	2024-11-08T10:00:00	4	Temperatura máxima	23.1
71547	7	Sololá	704	Santa Lucía Utatlán 	7	Santa Rita 	1	Enero	2023-01-19T00:00:00	2024-11-08T10:00:00	3	Temperatura mínima	21.2
71548	7	Sololá	704	Santa Lucía Utatlán 	7	Santa Rita 	1	Enero	2023-01-19T00:00:00	2024-11-08T10:00:00	5	Humedad	21
71549	7	Sololá	704	Santa Lucía Utatlán 	7	Santa Rita 	1	Enero	2023-01-19T00:00:00	2024-11-08T10:00:00	6	Velocidad del viento	6.4
71550	7	Sololá	704	Santa Lucía Utatlán 	7	Santa Rita 	1	Enero	2023-01-19T00:00:00	2024-11-08T10:00:00	7	Dirección del viento	6.44
71551	7	Sololá	704	Santa Lucía Utatlán 	7	Santa Rita 	1	Enero	2023-01-19T00:00:00	2024-11-08T10:00:00	1	Precipitación	0
71552	7	Sololá	704	Santa Lucía Utatlán 	7	Santa Rita 	1	Enero	2023-01-19T00:00:00	2024-11-08T10:00:00	8	Radiación solar	583
71553	7	Sololá	704	Santa Lucía Utatlán 	7	Santa Rita 	1	Enero	2023-01-19T00:00:00	2024-11-08T11:00:00	2	Temperatura media	23.6
71554	7	Sololá	704	Santa Lucía Utatlán 	7	Santa Rita 	1	Enero	2023-01-19T00:00:00	2024-11-08T11:00:00	4	Temperatura máxima	23.8
71555	7	Sololá	704	Santa Lucía Utatlán 	7	Santa Rita 	1	Enero	2023-01-19T00:00:00	2024-11-08T11:00:00	3	Temperatura mínima	23.1
71556	7	Sololá	704	Santa Lucía Utatlán 	7	Santa Rita 	1	Enero	2023-01-19T00:00:00	2024-11-08T11:00:00	5	Humedad	30
71557	7	Sololá	704	Santa Lucía Utatlán 	7	Santa Rita 	1	Enero	2023-01-19T00:00:00	2024-11-08T11:00:00	6	Velocidad del viento	6.4
71558	7	Sololá	704	Santa Lucía Utatlán 	7	Santa Rita 	1	Enero	2023-01-19T00:00:00	2024-11-08T11:00:00	7	Dirección del viento	6.44
71559	7	Sololá	704	Santa Lucía Utatlán 	7	Santa Rita 	1	Enero	2023-01-19T00:00:00	2024-11-08T11:00:00	1	Precipitación	0
71560	7	Sololá	704	Santa Lucía Utatlán 	7	Santa Rita 	1	Enero	2023-01-19T00:00:00	2024-11-08T11:00:00	8	Radiación solar	728
71561	7	Sololá	704	Santa Lucía Utatlán 	7	Santa Rita 	1	Enero	2023-01-19T00:00:00	2024-11-08T12:00:00	2	Temperatura media	23.3
71562	7	Sololá	704	Santa Lucía Utatlán 	7	Santa Rita 	1	Enero	2023-01-19T00:00:00	2024-11-08T12:00:00	4	Temperatura máxima	23.7
71563	7	Sololá	704	Santa Lucía Utatlán 	7	Santa Rita 	1	Enero	2023-01-19T00:00:00	2024-11-08T12:00:00	3	Temperatura mínima	22.9
71564	7	Sololá	704	Santa Lucía Utatlán 	7	Santa Rita 	1	Enero	2023-01-19T00:00:00	2024-11-08T12:00:00	5	Humedad	35
71565	7	Sololá	704	Santa Lucía Utatlán 	7	Santa Rita 	1	Enero	2023-01-19T00:00:00	2024-11-08T12:00:00	6	Velocidad del viento	9.7
71566	7	Sololá	704	Santa Lucía Utatlán 	7	Santa Rita 	1	Enero	2023-01-19T00:00:00	2024-11-08T12:00:00	7	Dirección del viento	9.66
71567	7	Sololá	704	Santa Lucía Utatlán 	7	Santa Rita 	1	Enero	2023-01-19T00:00:00	2024-11-08T12:00:00	1	Precipitación	0
71568	7	Sololá	704	Santa Lucía Utatlán 	7	Santa Rita 	1	Enero	2023-01-19T00:00:00	2024-11-08T12:00:00	8	Radiación solar	812
71569	7	Sololá	704	Santa Lucía Utatlán 	7	Santa Rita 	1	Enero	2023-01-19T00:00:00	2024-11-08T13:00:00	2	Temperatura media	23.6
71570	7	Sololá	704	Santa Lucía Utatlán 	7	Santa Rita 	1	Enero	2023-01-19T00:00:00	2024-11-08T13:00:00	4	Temperatura máxima	23.8
71571	7	Sololá	704	Santa Lucía Utatlán 	7	Santa Rita 	1	Enero	2023-01-19T00:00:00	2024-11-08T13:00:00	3	Temperatura mínima	23.2
71572	7	Sololá	704	Santa Lucía Utatlán 	7	Santa Rita 	1	Enero	2023-01-19T00:00:00	2024-11-08T13:00:00	5	Humedad	43
71573	7	Sololá	704	Santa Lucía Utatlán 	7	Santa Rita 	1	Enero	2023-01-19T00:00:00	2024-11-08T13:00:00	6	Velocidad del viento	8
71574	7	Sololá	704	Santa Lucía Utatlán 	7	Santa Rita 	1	Enero	2023-01-19T00:00:00	2024-11-08T13:00:00	7	Dirección del viento	8.05
71575	7	Sololá	704	Santa Lucía Utatlán 	7	Santa Rita 	1	Enero	2023-01-19T00:00:00	2024-11-08T13:00:00	1	Precipitación	0
71576	7	Sololá	704	Santa Lucía Utatlán 	7	Santa Rita 	1	Enero	2023-01-19T00:00:00	2024-11-08T13:00:00	8	Radiación solar	828
71577	7	Sololá	704	Santa Lucía Utatlán 	7	Santa Rita 	1	Enero	2023-01-19T00:00:00	2024-11-08T14:00:00	2	Temperatura media	22.8
71578	7	Sololá	704	Santa Lucía Utatlán 	7	Santa Rita 	1	Enero	2023-01-19T00:00:00	2024-11-08T14:00:00	4	Temperatura máxima	23.8
71579	7	Sololá	704	Santa Lucía Utatlán 	7	Santa Rita 	1	Enero	2023-01-19T00:00:00	2024-11-08T14:00:00	3	Temperatura mínima	22.7
71580	7	Sololá	704	Santa Lucía Utatlán 	7	Santa Rita 	1	Enero	2023-01-19T00:00:00	2024-11-08T14:00:00	5	Humedad	52
71581	7	Sololá	704	Santa Lucía Utatlán 	7	Santa Rita 	1	Enero	2023-01-19T00:00:00	2024-11-08T14:00:00	6	Velocidad del viento	8
71582	7	Sololá	704	Santa Lucía Utatlán 	7	Santa Rita 	1	Enero	2023-01-19T00:00:00	2024-11-08T14:00:00	7	Dirección del viento	8.05
71583	7	Sololá	704	Santa Lucía Utatlán 	7	Santa Rita 	1	Enero	2023-01-19T00:00:00	2024-11-08T14:00:00	1	Precipitación	0
71584	7	Sololá	704	Santa Lucía Utatlán 	7	Santa Rita 	1	Enero	2023-01-19T00:00:00	2024-11-08T14:00:00	8	Radiación solar	774
71585	7	Sololá	704	Santa Lucía Utatlán 	7	Santa Rita 	1	Enero	2023-01-19T00:00:00	2024-11-08T15:00:00	2	Temperatura media	21.6
71586	7	Sololá	704	Santa Lucía Utatlán 	7	Santa Rita 	1	Enero	2023-01-19T00:00:00	2024-11-08T15:00:00	4	Temperatura máxima	22.8
71587	7	Sololá	704	Santa Lucía Utatlán 	7	Santa Rita 	1	Enero	2023-01-19T00:00:00	2024-11-08T15:00:00	3	Temperatura mínima	21.5
71588	7	Sololá	704	Santa Lucía Utatlán 	7	Santa Rita 	1	Enero	2023-01-19T00:00:00	2024-11-08T15:00:00	5	Humedad	66
71589	7	Sololá	704	Santa Lucía Utatlán 	7	Santa Rita 	1	Enero	2023-01-19T00:00:00	2024-11-08T15:00:00	6	Velocidad del viento	8
71590	7	Sololá	704	Santa Lucía Utatlán 	7	Santa Rita 	1	Enero	2023-01-19T00:00:00	2024-11-08T15:00:00	7	Dirección del viento	8.05
71591	7	Sololá	704	Santa Lucía Utatlán 	7	Santa Rita 	1	Enero	2023-01-19T00:00:00	2024-11-08T15:00:00	1	Precipitación	0
71592	7	Sololá	704	Santa Lucía Utatlán 	7	Santa Rita 	1	Enero	2023-01-19T00:00:00	2024-11-08T15:00:00	8	Radiación solar	646
71593	7	Sololá	704	Santa Lucía Utatlán 	7	Santa Rita 	1	Enero	2023-01-19T00:00:00	2024-11-08T16:00:00	2	Temperatura media	21
71594	7	Sololá	704	Santa Lucía Utatlán 	7	Santa Rita 	1	Enero	2023-01-19T00:00:00	2024-11-08T16:00:00	4	Temperatura máxima	21.9
71595	7	Sololá	704	Santa Lucía Utatlán 	7	Santa Rita 	1	Enero	2023-01-19T00:00:00	2024-11-08T16:00:00	3	Temperatura mínima	20.9
71596	7	Sololá	704	Santa Lucía Utatlán 	7	Santa Rita 	1	Enero	2023-01-19T00:00:00	2024-11-08T16:00:00	5	Humedad	72
71597	7	Sololá	704	Santa Lucía Utatlán 	7	Santa Rita 	1	Enero	2023-01-19T00:00:00	2024-11-08T16:00:00	6	Velocidad del viento	6.4
71598	7	Sololá	704	Santa Lucía Utatlán 	7	Santa Rita 	1	Enero	2023-01-19T00:00:00	2024-11-08T16:00:00	7	Dirección del viento	6.44
71599	7	Sololá	704	Santa Lucía Utatlán 	7	Santa Rita 	1	Enero	2023-01-19T00:00:00	2024-11-08T16:00:00	1	Precipitación	0
71600	7	Sololá	704	Santa Lucía Utatlán 	7	Santa Rita 	1	Enero	2023-01-19T00:00:00	2024-11-08T16:00:00	8	Radiación solar	429
71601	7	Sololá	704	Santa Lucía Utatlán 	7	Santa Rita 	1	Enero	2023-01-19T00:00:00	2024-11-08T17:00:00	2	Temperatura media	19.4
71602	7	Sololá	704	Santa Lucía Utatlán 	7	Santa Rita 	1	Enero	2023-01-19T00:00:00	2024-11-08T17:00:00	4	Temperatura máxima	21
71603	7	Sololá	704	Santa Lucía Utatlán 	7	Santa Rita 	1	Enero	2023-01-19T00:00:00	2024-11-08T17:00:00	3	Temperatura mínima	19.4
71604	7	Sololá	704	Santa Lucía Utatlán 	7	Santa Rita 	1	Enero	2023-01-19T00:00:00	2024-11-08T17:00:00	5	Humedad	79
71605	7	Sololá	704	Santa Lucía Utatlán 	7	Santa Rita 	1	Enero	2023-01-19T00:00:00	2024-11-08T17:00:00	6	Velocidad del viento	6.4
71606	7	Sololá	704	Santa Lucía Utatlán 	7	Santa Rita 	1	Enero	2023-01-19T00:00:00	2024-11-08T17:00:00	7	Dirección del viento	6.44
71607	7	Sololá	704	Santa Lucía Utatlán 	7	Santa Rita 	1	Enero	2023-01-19T00:00:00	2024-11-08T17:00:00	1	Precipitación	0
71608	7	Sololá	704	Santa Lucía Utatlán 	7	Santa Rita 	1	Enero	2023-01-19T00:00:00	2024-11-08T17:00:00	8	Radiación solar	188
71609	7	Sololá	704	Santa Lucía Utatlán 	7	Santa Rita 	1	Enero	2023-01-19T00:00:00	2024-11-08T18:00:00	2	Temperatura media	16.6
71610	7	Sololá	704	Santa Lucía Utatlán 	7	Santa Rita 	1	Enero	2023-01-19T00:00:00	2024-11-08T18:00:00	4	Temperatura máxima	19.4
71611	7	Sololá	704	Santa Lucía Utatlán 	7	Santa Rita 	1	Enero	2023-01-19T00:00:00	2024-11-08T18:00:00	3	Temperatura mínima	16.6
71612	7	Sololá	704	Santa Lucía Utatlán 	7	Santa Rita 	1	Enero	2023-01-19T00:00:00	2024-11-08T18:00:00	5	Humedad	85
71613	7	Sololá	704	Santa Lucía Utatlán 	7	Santa Rita 	1	Enero	2023-01-19T00:00:00	2024-11-08T18:00:00	6	Velocidad del viento	3.2
71614	7	Sololá	704	Santa Lucía Utatlán 	7	Santa Rita 	1	Enero	2023-01-19T00:00:00	2024-11-08T18:00:00	7	Dirección del viento	3.22
71615	7	Sololá	704	Santa Lucía Utatlán 	7	Santa Rita 	1	Enero	2023-01-19T00:00:00	2024-11-08T18:00:00	1	Precipitación	0
71616	7	Sololá	704	Santa Lucía Utatlán 	7	Santa Rita 	1	Enero	2023-01-19T00:00:00	2024-11-08T18:00:00	8	Radiación solar	21
71617	7	Sololá	704	Santa Lucía Utatlán 	7	Santa Rita 	1	Enero	2023-01-19T00:00:00	2024-11-08T19:00:00	2	Temperatura media	15.2
71618	7	Sololá	704	Santa Lucía Utatlán 	7	Santa Rita 	1	Enero	2023-01-19T00:00:00	2024-11-08T19:00:00	4	Temperatura máxima	16.6
71619	7	Sololá	704	Santa Lucía Utatlán 	7	Santa Rita 	1	Enero	2023-01-19T00:00:00	2024-11-08T19:00:00	3	Temperatura mínima	15
71620	7	Sololá	704	Santa Lucía Utatlán 	7	Santa Rita 	1	Enero	2023-01-19T00:00:00	2024-11-08T19:00:00	5	Humedad	70
71621	7	Sololá	704	Santa Lucía Utatlán 	7	Santa Rita 	1	Enero	2023-01-19T00:00:00	2024-11-08T19:00:00	6	Velocidad del viento	4.8
71622	7	Sololá	704	Santa Lucía Utatlán 	7	Santa Rita 	1	Enero	2023-01-19T00:00:00	2024-11-08T19:00:00	7	Dirección del viento	4.83
71623	7	Sololá	704	Santa Lucía Utatlán 	7	Santa Rita 	1	Enero	2023-01-19T00:00:00	2024-11-08T19:00:00	1	Precipitación	0
71624	7	Sololá	704	Santa Lucía Utatlán 	7	Santa Rita 	1	Enero	2023-01-19T00:00:00	2024-11-08T19:00:00	8	Radiación solar	0
71625	7	Sololá	704	Santa Lucía Utatlán 	7	Santa Rita 	1	Enero	2023-01-19T00:00:00	2024-11-08T20:00:00	2	Temperatura media	14.6
71626	7	Sololá	704	Santa Lucía Utatlán 	7	Santa Rita 	1	Enero	2023-01-19T00:00:00	2024-11-08T20:00:00	4	Temperatura máxima	15.3
71627	7	Sololá	704	Santa Lucía Utatlán 	7	Santa Rita 	1	Enero	2023-01-19T00:00:00	2024-11-08T20:00:00	3	Temperatura mínima	14.6
71628	7	Sololá	704	Santa Lucía Utatlán 	7	Santa Rita 	1	Enero	2023-01-19T00:00:00	2024-11-08T20:00:00	5	Humedad	68
71629	7	Sololá	704	Santa Lucía Utatlán 	7	Santa Rita 	1	Enero	2023-01-19T00:00:00	2024-11-08T20:00:00	6	Velocidad del viento	1.6
71630	7	Sololá	704	Santa Lucía Utatlán 	7	Santa Rita 	1	Enero	2023-01-19T00:00:00	2024-11-08T20:00:00	7	Dirección del viento	1.61
71631	7	Sololá	704	Santa Lucía Utatlán 	7	Santa Rita 	1	Enero	2023-01-19T00:00:00	2024-11-08T20:00:00	1	Precipitación	0
71632	7	Sololá	704	Santa Lucía Utatlán 	7	Santa Rita 	1	Enero	2023-01-19T00:00:00	2024-11-08T20:00:00	8	Radiación solar	0
71633	7	Sololá	704	Santa Lucía Utatlán 	7	Santa Rita 	1	Enero	2023-01-19T00:00:00	2024-11-08T21:00:00	2	Temperatura media	14.6
71634	7	Sololá	704	Santa Lucía Utatlán 	7	Santa Rita 	1	Enero	2023-01-19T00:00:00	2024-11-08T21:00:00	4	Temperatura máxima	14.8
71635	7	Sololá	704	Santa Lucía Utatlán 	7	Santa Rita 	1	Enero	2023-01-19T00:00:00	2024-11-08T21:00:00	3	Temperatura mínima	14.2
71636	7	Sololá	704	Santa Lucía Utatlán 	7	Santa Rita 	1	Enero	2023-01-19T00:00:00	2024-11-08T21:00:00	5	Humedad	64
71637	7	Sololá	704	Santa Lucía Utatlán 	7	Santa Rita 	1	Enero	2023-01-19T00:00:00	2024-11-08T21:00:00	6	Velocidad del viento	3.2
71638	7	Sololá	704	Santa Lucía Utatlán 	7	Santa Rita 	1	Enero	2023-01-19T00:00:00	2024-11-08T21:00:00	7	Dirección del viento	3.22
71639	7	Sololá	704	Santa Lucía Utatlán 	7	Santa Rita 	1	Enero	2023-01-19T00:00:00	2024-11-08T21:00:00	1	Precipitación	0
71640	7	Sololá	704	Santa Lucía Utatlán 	7	Santa Rita 	1	Enero	2023-01-19T00:00:00	2024-11-08T21:00:00	8	Radiación solar	0
71641	7	Sololá	704	Santa Lucía Utatlán 	7	Santa Rita 	1	Enero	2023-01-19T00:00:00	2024-11-08T22:00:00	2	Temperatura media	14.2
71642	7	Sololá	704	Santa Lucía Utatlán 	7	Santa Rita 	1	Enero	2023-01-19T00:00:00	2024-11-08T22:00:00	4	Temperatura máxima	14.6
71643	7	Sololá	704	Santa Lucía Utatlán 	7	Santa Rita 	1	Enero	2023-01-19T00:00:00	2024-11-08T22:00:00	3	Temperatura mínima	13.8
71644	7	Sololá	704	Santa Lucía Utatlán 	7	Santa Rita 	1	Enero	2023-01-19T00:00:00	2024-11-08T22:00:00	5	Humedad	60
71645	7	Sololá	704	Santa Lucía Utatlán 	7	Santa Rita 	1	Enero	2023-01-19T00:00:00	2024-11-08T22:00:00	6	Velocidad del viento	3.2
71646	7	Sololá	704	Santa Lucía Utatlán 	7	Santa Rita 	1	Enero	2023-01-19T00:00:00	2024-11-08T22:00:00	7	Dirección del viento	3.22
71647	7	Sololá	704	Santa Lucía Utatlán 	7	Santa Rita 	1	Enero	2023-01-19T00:00:00	2024-11-08T22:00:00	1	Precipitación	0
71648	7	Sololá	704	Santa Lucía Utatlán 	7	Santa Rita 	1	Enero	2023-01-19T00:00:00	2024-11-08T22:00:00	8	Radiación solar	0
71649	7	Sololá	704	Santa Lucía Utatlán 	7	Santa Rita 	1	Enero	2023-01-19T00:00:00	2024-11-08T23:00:00	2	Temperatura media	14.9
71650	7	Sololá	704	Santa Lucía Utatlán 	7	Santa Rita 	1	Enero	2023-01-19T00:00:00	2024-11-08T23:00:00	4	Temperatura máxima	15.2
71651	7	Sololá	704	Santa Lucía Utatlán 	7	Santa Rita 	1	Enero	2023-01-19T00:00:00	2024-11-08T23:00:00	3	Temperatura mínima	14
71652	7	Sololá	704	Santa Lucía Utatlán 	7	Santa Rita 	1	Enero	2023-01-19T00:00:00	2024-11-08T23:00:00	5	Humedad	53
71653	7	Sololá	704	Santa Lucía Utatlán 	7	Santa Rita 	1	Enero	2023-01-19T00:00:00	2024-11-08T23:00:00	6	Velocidad del viento	4.8
71654	7	Sololá	704	Santa Lucía Utatlán 	7	Santa Rita 	1	Enero	2023-01-19T00:00:00	2024-11-08T23:00:00	7	Dirección del viento	4.83
71655	7	Sololá	704	Santa Lucía Utatlán 	7	Santa Rita 	1	Enero	2023-01-19T00:00:00	2024-11-08T23:00:00	1	Precipitación	0
71656	7	Sololá	704	Santa Lucía Utatlán 	7	Santa Rita 	1	Enero	2023-01-19T00:00:00	2024-11-08T23:00:00	8	Radiación solar	0
71657	7	Sololá	704	Santa Lucía Utatlán 	7	Santa Rita 	1	Enero	2023-01-20T00:00:00	2024-11-08T00:00:00	2	Temperatura media	14.8
71658	7	Sololá	704	Santa Lucía Utatlán 	7	Santa Rita 	1	Enero	2023-01-20T00:00:00	2024-11-08T00:00:00	4	Temperatura máxima	14.9
71659	7	Sololá	704	Santa Lucía Utatlán 	7	Santa Rita 	1	Enero	2023-01-20T00:00:00	2024-11-08T00:00:00	3	Temperatura mínima	14.2
71660	7	Sololá	704	Santa Lucía Utatlán 	7	Santa Rita 	1	Enero	2023-01-20T00:00:00	2024-11-08T00:00:00	5	Humedad	49
71661	7	Sololá	704	Santa Lucía Utatlán 	7	Santa Rita 	1	Enero	2023-01-20T00:00:00	2024-11-08T00:00:00	6	Velocidad del viento	3.2
71662	7	Sololá	704	Santa Lucía Utatlán 	7	Santa Rita 	1	Enero	2023-01-20T00:00:00	2024-11-08T00:00:00	7	Dirección del viento	3.22
71663	7	Sololá	704	Santa Lucía Utatlán 	7	Santa Rita 	1	Enero	2023-01-20T00:00:00	2024-11-08T00:00:00	1	Precipitación	0
71664	7	Sololá	704	Santa Lucía Utatlán 	7	Santa Rita 	1	Enero	2023-01-20T00:00:00	2024-11-08T00:00:00	8	Radiación solar	0
71665	7	Sololá	704	Santa Lucía Utatlán 	7	Santa Rita 	1	Enero	2023-01-20T00:00:00	2024-11-08T01:00:00	2	Temperatura media	14.9
71666	7	Sololá	704	Santa Lucía Utatlán 	7	Santa Rita 	1	Enero	2023-01-20T00:00:00	2024-11-08T01:00:00	4	Temperatura máxima	15.1
71667	7	Sololá	704	Santa Lucía Utatlán 	7	Santa Rita 	1	Enero	2023-01-20T00:00:00	2024-11-08T01:00:00	3	Temperatura mínima	14.6
71668	7	Sololá	704	Santa Lucía Utatlán 	7	Santa Rita 	1	Enero	2023-01-20T00:00:00	2024-11-08T01:00:00	5	Humedad	52
71669	7	Sololá	704	Santa Lucía Utatlán 	7	Santa Rita 	1	Enero	2023-01-20T00:00:00	2024-11-08T01:00:00	6	Velocidad del viento	4.8
71670	7	Sololá	704	Santa Lucía Utatlán 	7	Santa Rita 	1	Enero	2023-01-20T00:00:00	2024-11-08T01:00:00	7	Dirección del viento	4.83
71671	7	Sololá	704	Santa Lucía Utatlán 	7	Santa Rita 	1	Enero	2023-01-20T00:00:00	2024-11-08T01:00:00	1	Precipitación	0
71672	7	Sololá	704	Santa Lucía Utatlán 	7	Santa Rita 	1	Enero	2023-01-20T00:00:00	2024-11-08T01:00:00	8	Radiación solar	0
71673	7	Sololá	704	Santa Lucía Utatlán 	7	Santa Rita 	1	Enero	2023-01-20T00:00:00	2024-11-08T02:00:00	2	Temperatura media	14.7
71674	7	Sololá	704	Santa Lucía Utatlán 	7	Santa Rita 	1	Enero	2023-01-20T00:00:00	2024-11-08T02:00:00	4	Temperatura máxima	15.2
71675	7	Sololá	704	Santa Lucía Utatlán 	7	Santa Rita 	1	Enero	2023-01-20T00:00:00	2024-11-08T02:00:00	3	Temperatura mínima	14.6
71676	7	Sololá	704	Santa Lucía Utatlán 	7	Santa Rita 	1	Enero	2023-01-20T00:00:00	2024-11-08T02:00:00	5	Humedad	50
71677	7	Sololá	704	Santa Lucía Utatlán 	7	Santa Rita 	1	Enero	2023-01-20T00:00:00	2024-11-08T02:00:00	6	Velocidad del viento	3.2
71678	7	Sololá	704	Santa Lucía Utatlán 	7	Santa Rita 	1	Enero	2023-01-20T00:00:00	2024-11-08T02:00:00	7	Dirección del viento	3.22
71679	7	Sololá	704	Santa Lucía Utatlán 	7	Santa Rita 	1	Enero	2023-01-20T00:00:00	2024-11-08T02:00:00	1	Precipitación	0
71680	7	Sololá	704	Santa Lucía Utatlán 	7	Santa Rita 	1	Enero	2023-01-20T00:00:00	2024-11-08T02:00:00	8	Radiación solar	0
71681	7	Sololá	704	Santa Lucía Utatlán 	7	Santa Rita 	1	Enero	2023-01-20T00:00:00	2024-11-08T03:00:00	2	Temperatura media	14.6
71682	7	Sololá	704	Santa Lucía Utatlán 	7	Santa Rita 	1	Enero	2023-01-20T00:00:00	2024-11-08T03:00:00	4	Temperatura máxima	15.2
71683	7	Sololá	704	Santa Lucía Utatlán 	7	Santa Rita 	1	Enero	2023-01-20T00:00:00	2024-11-08T03:00:00	3	Temperatura mínima	14.4
71684	7	Sololá	704	Santa Lucía Utatlán 	7	Santa Rita 	1	Enero	2023-01-20T00:00:00	2024-11-08T03:00:00	5	Humedad	46
71685	7	Sololá	704	Santa Lucía Utatlán 	7	Santa Rita 	1	Enero	2023-01-20T00:00:00	2024-11-08T03:00:00	6	Velocidad del viento	4.8
71686	7	Sololá	704	Santa Lucía Utatlán 	7	Santa Rita 	1	Enero	2023-01-20T00:00:00	2024-11-08T03:00:00	7	Dirección del viento	4.83
71687	7	Sololá	704	Santa Lucía Utatlán 	7	Santa Rita 	1	Enero	2023-01-20T00:00:00	2024-11-08T03:00:00	1	Precipitación	0
71688	7	Sololá	704	Santa Lucía Utatlán 	7	Santa Rita 	1	Enero	2023-01-20T00:00:00	2024-11-08T03:00:00	8	Radiación solar	0
71689	7	Sololá	704	Santa Lucía Utatlán 	7	Santa Rita 	1	Enero	2023-01-20T00:00:00	2024-11-08T04:00:00	2	Temperatura media	15.1
71690	7	Sololá	704	Santa Lucía Utatlán 	7	Santa Rita 	1	Enero	2023-01-20T00:00:00	2024-11-08T04:00:00	4	Temperatura máxima	15.2
71691	7	Sololá	704	Santa Lucía Utatlán 	7	Santa Rita 	1	Enero	2023-01-20T00:00:00	2024-11-08T04:00:00	3	Temperatura mínima	14.6
71692	7	Sololá	704	Santa Lucía Utatlán 	7	Santa Rita 	1	Enero	2023-01-20T00:00:00	2024-11-08T04:00:00	5	Humedad	42
71693	7	Sololá	704	Santa Lucía Utatlán 	7	Santa Rita 	1	Enero	2023-01-20T00:00:00	2024-11-08T04:00:00	6	Velocidad del viento	4.8
71694	7	Sololá	704	Santa Lucía Utatlán 	7	Santa Rita 	1	Enero	2023-01-20T00:00:00	2024-11-08T04:00:00	7	Dirección del viento	4.83
71695	7	Sololá	704	Santa Lucía Utatlán 	7	Santa Rita 	1	Enero	2023-01-20T00:00:00	2024-11-08T04:00:00	1	Precipitación	0
71696	7	Sololá	704	Santa Lucía Utatlán 	7	Santa Rita 	1	Enero	2023-01-20T00:00:00	2024-11-08T04:00:00	8	Radiación solar	0
71697	7	Sololá	704	Santa Lucía Utatlán 	7	Santa Rita 	1	Enero	2023-01-20T00:00:00	2024-11-08T05:00:00	2	Temperatura media	14.4
71698	7	Sololá	704	Santa Lucía Utatlán 	7	Santa Rita 	1	Enero	2023-01-20T00:00:00	2024-11-08T05:00:00	4	Temperatura máxima	15.2
71699	7	Sololá	704	Santa Lucía Utatlán 	7	Santa Rita 	1	Enero	2023-01-20T00:00:00	2024-11-08T05:00:00	3	Temperatura mínima	14.3
71700	7	Sololá	704	Santa Lucía Utatlán 	7	Santa Rita 	1	Enero	2023-01-20T00:00:00	2024-11-08T05:00:00	5	Humedad	45
71701	7	Sololá	704	Santa Lucía Utatlán 	7	Santa Rita 	1	Enero	2023-01-20T00:00:00	2024-11-08T05:00:00	6	Velocidad del viento	4.8
71702	7	Sololá	704	Santa Lucía Utatlán 	7	Santa Rita 	1	Enero	2023-01-20T00:00:00	2024-11-08T05:00:00	7	Dirección del viento	4.83
71703	7	Sololá	704	Santa Lucía Utatlán 	7	Santa Rita 	1	Enero	2023-01-20T00:00:00	2024-11-08T05:00:00	1	Precipitación	0
71704	7	Sololá	704	Santa Lucía Utatlán 	7	Santa Rita 	1	Enero	2023-01-20T00:00:00	2024-11-08T05:00:00	8	Radiación solar	0
71705	7	Sololá	704	Santa Lucía Utatlán 	7	Santa Rita 	1	Enero	2023-01-20T00:00:00	2024-11-08T06:00:00	2	Temperatura media	15.1
71706	7	Sololá	704	Santa Lucía Utatlán 	7	Santa Rita 	1	Enero	2023-01-20T00:00:00	2024-11-08T06:00:00	4	Temperatura máxima	15.2
71707	7	Sololá	704	Santa Lucía Utatlán 	7	Santa Rita 	1	Enero	2023-01-20T00:00:00	2024-11-08T06:00:00	3	Temperatura mínima	14.2
71708	7	Sololá	704	Santa Lucía Utatlán 	7	Santa Rita 	1	Enero	2023-01-20T00:00:00	2024-11-08T06:00:00	5	Humedad	44
71709	7	Sololá	704	Santa Lucía Utatlán 	7	Santa Rita 	1	Enero	2023-01-20T00:00:00	2024-11-08T06:00:00	6	Velocidad del viento	3.2
71710	7	Sololá	704	Santa Lucía Utatlán 	7	Santa Rita 	1	Enero	2023-01-20T00:00:00	2024-11-08T06:00:00	7	Dirección del viento	3.22
71711	7	Sololá	704	Santa Lucía Utatlán 	7	Santa Rita 	1	Enero	2023-01-20T00:00:00	2024-11-08T06:00:00	1	Precipitación	0
71712	7	Sololá	704	Santa Lucía Utatlán 	7	Santa Rita 	1	Enero	2023-01-20T00:00:00	2024-11-08T06:00:00	8	Radiación solar	0
71713	7	Sololá	704	Santa Lucía Utatlán 	7	Santa Rita 	1	Enero	2023-01-20T00:00:00	2024-11-08T07:00:00	2	Temperatura media	16.9
71714	7	Sololá	704	Santa Lucía Utatlán 	7	Santa Rita 	1	Enero	2023-01-20T00:00:00	2024-11-08T07:00:00	4	Temperatura máxima	16.9
71715	7	Sololá	704	Santa Lucía Utatlán 	7	Santa Rita 	1	Enero	2023-01-20T00:00:00	2024-11-08T07:00:00	3	Temperatura mínima	15.1
71716	7	Sololá	704	Santa Lucía Utatlán 	7	Santa Rita 	1	Enero	2023-01-20T00:00:00	2024-11-08T07:00:00	5	Humedad	45
71717	7	Sololá	704	Santa Lucía Utatlán 	7	Santa Rita 	1	Enero	2023-01-20T00:00:00	2024-11-08T07:00:00	6	Velocidad del viento	3.2
71718	7	Sololá	704	Santa Lucía Utatlán 	7	Santa Rita 	1	Enero	2023-01-20T00:00:00	2024-11-08T07:00:00	7	Dirección del viento	3.22
71719	7	Sololá	704	Santa Lucía Utatlán 	7	Santa Rita 	1	Enero	2023-01-20T00:00:00	2024-11-08T07:00:00	1	Precipitación	0
71720	7	Sololá	704	Santa Lucía Utatlán 	7	Santa Rita 	1	Enero	2023-01-20T00:00:00	2024-11-08T07:00:00	8	Radiación solar	5
71721	7	Sololá	704	Santa Lucía Utatlán 	7	Santa Rita 	1	Enero	2023-01-20T00:00:00	2024-11-08T08:00:00	2	Temperatura media	20.7
71722	7	Sololá	704	Santa Lucía Utatlán 	7	Santa Rita 	1	Enero	2023-01-20T00:00:00	2024-11-08T08:00:00	4	Temperatura máxima	20.7
71723	7	Sololá	704	Santa Lucía Utatlán 	7	Santa Rita 	1	Enero	2023-01-20T00:00:00	2024-11-08T08:00:00	3	Temperatura mínima	16.9
71724	7	Sololá	704	Santa Lucía Utatlán 	7	Santa Rita 	1	Enero	2023-01-20T00:00:00	2024-11-08T08:00:00	5	Humedad	46
71725	7	Sololá	704	Santa Lucía Utatlán 	7	Santa Rita 	1	Enero	2023-01-20T00:00:00	2024-11-08T08:00:00	6	Velocidad del viento	3.2
71726	7	Sololá	704	Santa Lucía Utatlán 	7	Santa Rita 	1	Enero	2023-01-20T00:00:00	2024-11-08T08:00:00	7	Dirección del viento	3.22
71727	7	Sololá	704	Santa Lucía Utatlán 	7	Santa Rita 	1	Enero	2023-01-20T00:00:00	2024-11-08T08:00:00	1	Precipitación	0
71728	7	Sololá	704	Santa Lucía Utatlán 	7	Santa Rita 	1	Enero	2023-01-20T00:00:00	2024-11-08T08:00:00	8	Radiación solar	128
71729	7	Sololá	704	Santa Lucía Utatlán 	7	Santa Rita 	1	Enero	2023-01-20T00:00:00	2024-11-08T09:00:00	2	Temperatura media	21.3
71730	7	Sololá	704	Santa Lucía Utatlán 	7	Santa Rita 	1	Enero	2023-01-20T00:00:00	2024-11-08T09:00:00	4	Temperatura máxima	21.5
71731	7	Sololá	704	Santa Lucía Utatlán 	7	Santa Rita 	1	Enero	2023-01-20T00:00:00	2024-11-08T09:00:00	3	Temperatura mínima	20.7
71732	7	Sololá	704	Santa Lucía Utatlán 	7	Santa Rita 	1	Enero	2023-01-20T00:00:00	2024-11-08T09:00:00	5	Humedad	40
71733	7	Sololá	704	Santa Lucía Utatlán 	7	Santa Rita 	1	Enero	2023-01-20T00:00:00	2024-11-08T09:00:00	6	Velocidad del viento	6.4
71734	7	Sololá	704	Santa Lucía Utatlán 	7	Santa Rita 	1	Enero	2023-01-20T00:00:00	2024-11-08T09:00:00	7	Dirección del viento	6.44
71735	7	Sololá	704	Santa Lucía Utatlán 	7	Santa Rita 	1	Enero	2023-01-20T00:00:00	2024-11-08T09:00:00	1	Precipitación	0
71736	7	Sololá	704	Santa Lucía Utatlán 	7	Santa Rita 	1	Enero	2023-01-20T00:00:00	2024-11-08T09:00:00	8	Radiación solar	368
71737	7	Sololá	704	Santa Lucía Utatlán 	7	Santa Rita 	1	Enero	2023-01-20T00:00:00	2024-11-08T10:00:00	2	Temperatura media	22.1
71738	7	Sololá	704	Santa Lucía Utatlán 	7	Santa Rita 	1	Enero	2023-01-20T00:00:00	2024-11-08T10:00:00	4	Temperatura máxima	22.1
71739	7	Sololá	704	Santa Lucía Utatlán 	7	Santa Rita 	1	Enero	2023-01-20T00:00:00	2024-11-08T10:00:00	3	Temperatura mínima	21.2
71740	7	Sololá	704	Santa Lucía Utatlán 	7	Santa Rita 	1	Enero	2023-01-20T00:00:00	2024-11-08T10:00:00	5	Humedad	45
71741	7	Sololá	704	Santa Lucía Utatlán 	7	Santa Rita 	1	Enero	2023-01-20T00:00:00	2024-11-08T10:00:00	6	Velocidad del viento	8
71742	7	Sololá	704	Santa Lucía Utatlán 	7	Santa Rita 	1	Enero	2023-01-20T00:00:00	2024-11-08T10:00:00	7	Dirección del viento	8.05
71743	7	Sololá	704	Santa Lucía Utatlán 	7	Santa Rita 	1	Enero	2023-01-20T00:00:00	2024-11-08T10:00:00	1	Precipitación	0
71744	7	Sololá	704	Santa Lucía Utatlán 	7	Santa Rita 	1	Enero	2023-01-20T00:00:00	2024-11-08T10:00:00	8	Radiación solar	564
71745	7	Sololá	704	Santa Lucía Utatlán 	7	Santa Rita 	1	Enero	2023-01-20T00:00:00	2024-11-08T11:00:00	2	Temperatura media	22.9
71746	7	Sololá	704	Santa Lucía Utatlán 	7	Santa Rita 	1	Enero	2023-01-20T00:00:00	2024-11-08T11:00:00	4	Temperatura máxima	22.9
71747	7	Sololá	704	Santa Lucía Utatlán 	7	Santa Rita 	1	Enero	2023-01-20T00:00:00	2024-11-08T11:00:00	3	Temperatura mínima	22
71748	7	Sololá	704	Santa Lucía Utatlán 	7	Santa Rita 	1	Enero	2023-01-20T00:00:00	2024-11-08T11:00:00	5	Humedad	46
71749	7	Sololá	704	Santa Lucía Utatlán 	7	Santa Rita 	1	Enero	2023-01-20T00:00:00	2024-11-08T11:00:00	6	Velocidad del viento	11.3
71750	7	Sololá	704	Santa Lucía Utatlán 	7	Santa Rita 	1	Enero	2023-01-20T00:00:00	2024-11-08T11:00:00	7	Dirección del viento	11.27
71751	7	Sololá	704	Santa Lucía Utatlán 	7	Santa Rita 	1	Enero	2023-01-20T00:00:00	2024-11-08T11:00:00	1	Precipitación	0
71752	7	Sololá	704	Santa Lucía Utatlán 	7	Santa Rita 	1	Enero	2023-01-20T00:00:00	2024-11-08T11:00:00	8	Radiación solar	713
71753	7	Sololá	704	Santa Lucía Utatlán 	7	Santa Rita 	1	Enero	2023-01-20T00:00:00	2024-11-08T12:00:00	2	Temperatura media	23.8
71754	7	Sololá	704	Santa Lucía Utatlán 	7	Santa Rita 	1	Enero	2023-01-20T00:00:00	2024-11-08T12:00:00	4	Temperatura máxima	23.9
71755	7	Sololá	704	Santa Lucía Utatlán 	7	Santa Rita 	1	Enero	2023-01-20T00:00:00	2024-11-08T12:00:00	3	Temperatura mínima	22.7
71756	7	Sololá	704	Santa Lucía Utatlán 	7	Santa Rita 	1	Enero	2023-01-20T00:00:00	2024-11-08T12:00:00	5	Humedad	44
71757	7	Sololá	704	Santa Lucía Utatlán 	7	Santa Rita 	1	Enero	2023-01-20T00:00:00	2024-11-08T12:00:00	6	Velocidad del viento	9.7
71758	7	Sololá	704	Santa Lucía Utatlán 	7	Santa Rita 	1	Enero	2023-01-20T00:00:00	2024-11-08T12:00:00	7	Dirección del viento	9.66
71759	7	Sololá	704	Santa Lucía Utatlán 	7	Santa Rita 	1	Enero	2023-01-20T00:00:00	2024-11-08T12:00:00	1	Precipitación	0
71760	7	Sololá	704	Santa Lucía Utatlán 	7	Santa Rita 	1	Enero	2023-01-20T00:00:00	2024-11-08T12:00:00	8	Radiación solar	798
71761	7	Sololá	704	Santa Lucía Utatlán 	7	Santa Rita 	1	Enero	2023-01-20T00:00:00	2024-11-08T13:00:00	2	Temperatura media	23.8
71762	7	Sololá	704	Santa Lucía Utatlán 	7	Santa Rita 	1	Enero	2023-01-20T00:00:00	2024-11-08T13:00:00	4	Temperatura máxima	24.1
71763	7	Sololá	704	Santa Lucía Utatlán 	7	Santa Rita 	1	Enero	2023-01-20T00:00:00	2024-11-08T13:00:00	3	Temperatura mínima	23.4
71764	7	Sololá	704	Santa Lucía Utatlán 	7	Santa Rita 	1	Enero	2023-01-20T00:00:00	2024-11-08T13:00:00	5	Humedad	43
71765	7	Sololá	704	Santa Lucía Utatlán 	7	Santa Rita 	1	Enero	2023-01-20T00:00:00	2024-11-08T13:00:00	6	Velocidad del viento	11.3
71766	7	Sololá	704	Santa Lucía Utatlán 	7	Santa Rita 	1	Enero	2023-01-20T00:00:00	2024-11-08T13:00:00	7	Dirección del viento	11.27
71767	7	Sololá	704	Santa Lucía Utatlán 	7	Santa Rita 	1	Enero	2023-01-20T00:00:00	2024-11-08T13:00:00	1	Precipitación	0
71768	7	Sololá	704	Santa Lucía Utatlán 	7	Santa Rita 	1	Enero	2023-01-20T00:00:00	2024-11-08T13:00:00	8	Radiación solar	813
71769	7	Sololá	704	Santa Lucía Utatlán 	7	Santa Rita 	1	Enero	2023-01-20T00:00:00	2024-11-08T14:00:00	2	Temperatura media	23.6
71770	7	Sololá	704	Santa Lucía Utatlán 	7	Santa Rita 	1	Enero	2023-01-20T00:00:00	2024-11-08T14:00:00	4	Temperatura máxima	24.6
71771	7	Sololá	704	Santa Lucía Utatlán 	7	Santa Rita 	1	Enero	2023-01-20T00:00:00	2024-11-08T14:00:00	3	Temperatura mínima	23.5
71772	7	Sololá	704	Santa Lucía Utatlán 	7	Santa Rita 	1	Enero	2023-01-20T00:00:00	2024-11-08T14:00:00	5	Humedad	51
71773	7	Sololá	704	Santa Lucía Utatlán 	7	Santa Rita 	1	Enero	2023-01-20T00:00:00	2024-11-08T14:00:00	6	Velocidad del viento	9.7
71774	7	Sololá	704	Santa Lucía Utatlán 	7	Santa Rita 	1	Enero	2023-01-20T00:00:00	2024-11-08T14:00:00	7	Dirección del viento	9.66
71775	7	Sololá	704	Santa Lucía Utatlán 	7	Santa Rita 	1	Enero	2023-01-20T00:00:00	2024-11-08T14:00:00	1	Precipitación	0
71776	7	Sololá	704	Santa Lucía Utatlán 	7	Santa Rita 	1	Enero	2023-01-20T00:00:00	2024-11-08T14:00:00	8	Radiación solar	765
71777	7	Sololá	704	Santa Lucía Utatlán 	7	Santa Rita 	1	Enero	2023-01-20T00:00:00	2024-11-08T15:00:00	2	Temperatura media	22.9
71778	7	Sololá	704	Santa Lucía Utatlán 	7	Santa Rita 	1	Enero	2023-01-20T00:00:00	2024-11-08T15:00:00	4	Temperatura máxima	23.5
71779	7	Sololá	704	Santa Lucía Utatlán 	7	Santa Rita 	1	Enero	2023-01-20T00:00:00	2024-11-08T15:00:00	3	Temperatura mínima	22.8
71780	7	Sololá	704	Santa Lucía Utatlán 	7	Santa Rita 	1	Enero	2023-01-20T00:00:00	2024-11-08T15:00:00	5	Humedad	58
71781	7	Sololá	704	Santa Lucía Utatlán 	7	Santa Rita 	1	Enero	2023-01-20T00:00:00	2024-11-08T15:00:00	6	Velocidad del viento	11.3
71782	7	Sololá	704	Santa Lucía Utatlán 	7	Santa Rita 	1	Enero	2023-01-20T00:00:00	2024-11-08T15:00:00	7	Dirección del viento	11.27
71783	7	Sololá	704	Santa Lucía Utatlán 	7	Santa Rita 	1	Enero	2023-01-20T00:00:00	2024-11-08T15:00:00	1	Precipitación	0
71784	7	Sololá	704	Santa Lucía Utatlán 	7	Santa Rita 	1	Enero	2023-01-20T00:00:00	2024-11-08T15:00:00	8	Radiación solar	649
71785	7	Sololá	704	Santa Lucía Utatlán 	7	Santa Rita 	1	Enero	2023-01-20T00:00:00	2024-11-08T16:00:00	2	Temperatura media	22.7
71786	7	Sololá	704	Santa Lucía Utatlán 	7	Santa Rita 	1	Enero	2023-01-20T00:00:00	2024-11-08T16:00:00	4	Temperatura máxima	23.1
71787	7	Sololá	704	Santa Lucía Utatlán 	7	Santa Rita 	1	Enero	2023-01-20T00:00:00	2024-11-08T16:00:00	3	Temperatura mínima	22.6
71788	7	Sololá	704	Santa Lucía Utatlán 	7	Santa Rita 	1	Enero	2023-01-20T00:00:00	2024-11-08T16:00:00	5	Humedad	63
71789	7	Sololá	704	Santa Lucía Utatlán 	7	Santa Rita 	1	Enero	2023-01-20T00:00:00	2024-11-08T16:00:00	6	Velocidad del viento	8
71790	7	Sololá	704	Santa Lucía Utatlán 	7	Santa Rita 	1	Enero	2023-01-20T00:00:00	2024-11-08T16:00:00	7	Dirección del viento	8.05
71791	7	Sololá	704	Santa Lucía Utatlán 	7	Santa Rita 	1	Enero	2023-01-20T00:00:00	2024-11-08T16:00:00	1	Precipitación	0
71792	7	Sololá	704	Santa Lucía Utatlán 	7	Santa Rita 	1	Enero	2023-01-20T00:00:00	2024-11-08T16:00:00	8	Radiación solar	425
71793	7	Sololá	704	Santa Lucía Utatlán 	7	Santa Rita 	1	Enero	2023-01-20T00:00:00	2024-11-08T17:00:00	2	Temperatura media	20.8
71794	7	Sololá	704	Santa Lucía Utatlán 	7	Santa Rita 	1	Enero	2023-01-20T00:00:00	2024-11-08T17:00:00	4	Temperatura máxima	22.7
71795	7	Sololá	704	Santa Lucía Utatlán 	7	Santa Rita 	1	Enero	2023-01-20T00:00:00	2024-11-08T17:00:00	3	Temperatura mínima	20.8
71796	7	Sololá	704	Santa Lucía Utatlán 	7	Santa Rita 	1	Enero	2023-01-20T00:00:00	2024-11-08T17:00:00	5	Humedad	76
71797	7	Sololá	704	Santa Lucía Utatlán 	7	Santa Rita 	1	Enero	2023-01-20T00:00:00	2024-11-08T17:00:00	6	Velocidad del viento	8
71798	7	Sololá	704	Santa Lucía Utatlán 	7	Santa Rita 	1	Enero	2023-01-20T00:00:00	2024-11-08T17:00:00	7	Dirección del viento	8.05
71799	7	Sololá	704	Santa Lucía Utatlán 	7	Santa Rita 	1	Enero	2023-01-20T00:00:00	2024-11-08T17:00:00	1	Precipitación	0
71800	7	Sololá	704	Santa Lucía Utatlán 	7	Santa Rita 	1	Enero	2023-01-20T00:00:00	2024-11-08T17:00:00	8	Radiación solar	199
71801	7	Sololá	704	Santa Lucía Utatlán 	7	Santa Rita 	1	Enero	2023-01-20T00:00:00	2024-11-08T18:00:00	2	Temperatura media	19.6
71802	7	Sololá	704	Santa Lucía Utatlán 	7	Santa Rita 	1	Enero	2023-01-20T00:00:00	2024-11-08T18:00:00	4	Temperatura máxima	20.8
71803	7	Sololá	704	Santa Lucía Utatlán 	7	Santa Rita 	1	Enero	2023-01-20T00:00:00	2024-11-08T18:00:00	3	Temperatura mínima	19.6
71804	7	Sololá	704	Santa Lucía Utatlán 	7	Santa Rita 	1	Enero	2023-01-20T00:00:00	2024-11-08T18:00:00	5	Humedad	65
71805	7	Sololá	704	Santa Lucía Utatlán 	7	Santa Rita 	1	Enero	2023-01-20T00:00:00	2024-11-08T18:00:00	6	Velocidad del viento	6.4
71806	7	Sololá	704	Santa Lucía Utatlán 	7	Santa Rita 	1	Enero	2023-01-20T00:00:00	2024-11-08T18:00:00	7	Dirección del viento	6.44
71807	7	Sololá	704	Santa Lucía Utatlán 	7	Santa Rita 	1	Enero	2023-01-20T00:00:00	2024-11-08T18:00:00	1	Precipitación	0
71808	7	Sololá	704	Santa Lucía Utatlán 	7	Santa Rita 	1	Enero	2023-01-20T00:00:00	2024-11-08T18:00:00	8	Radiación solar	25
71809	7	Sololá	704	Santa Lucía Utatlán 	7	Santa Rita 	1	Enero	2023-01-20T00:00:00	2024-11-08T19:00:00	2	Temperatura media	16.9
71810	7	Sololá	704	Santa Lucía Utatlán 	7	Santa Rita 	1	Enero	2023-01-20T00:00:00	2024-11-08T19:00:00	4	Temperatura máxima	19.6
71811	7	Sololá	704	Santa Lucía Utatlán 	7	Santa Rita 	1	Enero	2023-01-20T00:00:00	2024-11-08T19:00:00	3	Temperatura mínima	16.9
71812	7	Sololá	704	Santa Lucía Utatlán 	7	Santa Rita 	1	Enero	2023-01-20T00:00:00	2024-11-08T19:00:00	5	Humedad	70
71813	7	Sololá	704	Santa Lucía Utatlán 	7	Santa Rita 	1	Enero	2023-01-20T00:00:00	2024-11-08T19:00:00	6	Velocidad del viento	3.2
71814	7	Sololá	704	Santa Lucía Utatlán 	7	Santa Rita 	1	Enero	2023-01-20T00:00:00	2024-11-08T19:00:00	7	Dirección del viento	3.22
71815	7	Sololá	704	Santa Lucía Utatlán 	7	Santa Rita 	1	Enero	2023-01-20T00:00:00	2024-11-08T19:00:00	1	Precipitación	0
71816	7	Sololá	704	Santa Lucía Utatlán 	7	Santa Rita 	1	Enero	2023-01-20T00:00:00	2024-11-08T19:00:00	8	Radiación solar	0
71817	7	Sololá	704	Santa Lucía Utatlán 	7	Santa Rita 	1	Enero	2023-01-20T00:00:00	2024-11-08T20:00:00	2	Temperatura media	15.9
71818	7	Sololá	704	Santa Lucía Utatlán 	7	Santa Rita 	1	Enero	2023-01-20T00:00:00	2024-11-08T20:00:00	4	Temperatura máxima	16.9
71819	7	Sololá	704	Santa Lucía Utatlán 	7	Santa Rita 	1	Enero	2023-01-20T00:00:00	2024-11-08T20:00:00	3	Temperatura mínima	15.9
71820	7	Sololá	704	Santa Lucía Utatlán 	7	Santa Rita 	1	Enero	2023-01-20T00:00:00	2024-11-08T20:00:00	5	Humedad	74
71821	7	Sololá	704	Santa Lucía Utatlán 	7	Santa Rita 	1	Enero	2023-01-20T00:00:00	2024-11-08T20:00:00	6	Velocidad del viento	3.2
71822	7	Sololá	704	Santa Lucía Utatlán 	7	Santa Rita 	1	Enero	2023-01-20T00:00:00	2024-11-08T20:00:00	7	Dirección del viento	3.22
71823	7	Sololá	704	Santa Lucía Utatlán 	7	Santa Rita 	1	Enero	2023-01-20T00:00:00	2024-11-08T20:00:00	1	Precipitación	0
71824	7	Sololá	704	Santa Lucía Utatlán 	7	Santa Rita 	1	Enero	2023-01-20T00:00:00	2024-11-08T20:00:00	8	Radiación solar	0
71825	7	Sololá	704	Santa Lucía Utatlán 	7	Santa Rita 	1	Enero	2023-01-20T00:00:00	2024-11-08T21:00:00	2	Temperatura media	15.4
71826	7	Sololá	704	Santa Lucía Utatlán 	7	Santa Rita 	1	Enero	2023-01-20T00:00:00	2024-11-08T21:00:00	4	Temperatura máxima	15.9
71827	7	Sololá	704	Santa Lucía Utatlán 	7	Santa Rita 	1	Enero	2023-01-20T00:00:00	2024-11-08T21:00:00	3	Temperatura mínima	15.4
71828	7	Sololá	704	Santa Lucía Utatlán 	7	Santa Rita 	1	Enero	2023-01-20T00:00:00	2024-11-08T21:00:00	5	Humedad	76
71829	7	Sololá	704	Santa Lucía Utatlán 	7	Santa Rita 	1	Enero	2023-01-20T00:00:00	2024-11-08T21:00:00	6	Velocidad del viento	3.2
71830	7	Sololá	704	Santa Lucía Utatlán 	7	Santa Rita 	1	Enero	2023-01-20T00:00:00	2024-11-08T21:00:00	7	Dirección del viento	3.22
71831	7	Sololá	704	Santa Lucía Utatlán 	7	Santa Rita 	1	Enero	2023-01-20T00:00:00	2024-11-08T21:00:00	1	Precipitación	0
71832	7	Sololá	704	Santa Lucía Utatlán 	7	Santa Rita 	1	Enero	2023-01-20T00:00:00	2024-11-08T21:00:00	8	Radiación solar	0
71833	7	Sololá	704	Santa Lucía Utatlán 	7	Santa Rita 	1	Enero	2023-01-20T00:00:00	2024-11-08T22:00:00	2	Temperatura media	15.4
71834	7	Sololá	704	Santa Lucía Utatlán 	7	Santa Rita 	1	Enero	2023-01-20T00:00:00	2024-11-08T22:00:00	4	Temperatura máxima	15.7
71835	7	Sololá	704	Santa Lucía Utatlán 	7	Santa Rita 	1	Enero	2023-01-20T00:00:00	2024-11-08T22:00:00	3	Temperatura mínima	15.4
71836	7	Sololá	704	Santa Lucía Utatlán 	7	Santa Rita 	1	Enero	2023-01-20T00:00:00	2024-11-08T22:00:00	5	Humedad	78
71837	7	Sololá	704	Santa Lucía Utatlán 	7	Santa Rita 	1	Enero	2023-01-20T00:00:00	2024-11-08T22:00:00	6	Velocidad del viento	3.2
71838	7	Sololá	704	Santa Lucía Utatlán 	7	Santa Rita 	1	Enero	2023-01-20T00:00:00	2024-11-08T22:00:00	7	Dirección del viento	3.22
71839	7	Sololá	704	Santa Lucía Utatlán 	7	Santa Rita 	1	Enero	2023-01-20T00:00:00	2024-11-08T22:00:00	1	Precipitación	0
71840	7	Sololá	704	Santa Lucía Utatlán 	7	Santa Rita 	1	Enero	2023-01-20T00:00:00	2024-11-08T22:00:00	8	Radiación solar	0
71841	7	Sololá	704	Santa Lucía Utatlán 	7	Santa Rita 	1	Enero	2023-01-20T00:00:00	2024-11-08T23:00:00	2	Temperatura media	15.6
71842	7	Sololá	704	Santa Lucía Utatlán 	7	Santa Rita 	1	Enero	2023-01-20T00:00:00	2024-11-08T23:00:00	4	Temperatura máxima	15.6
71843	7	Sololá	704	Santa Lucía Utatlán 	7	Santa Rita 	1	Enero	2023-01-20T00:00:00	2024-11-08T23:00:00	3	Temperatura mínima	15.4
71844	7	Sololá	704	Santa Lucía Utatlán 	7	Santa Rita 	1	Enero	2023-01-20T00:00:00	2024-11-08T23:00:00	5	Humedad	80
71845	7	Sololá	704	Santa Lucía Utatlán 	7	Santa Rita 	1	Enero	2023-01-20T00:00:00	2024-11-08T23:00:00	6	Velocidad del viento	3.2
71846	7	Sololá	704	Santa Lucía Utatlán 	7	Santa Rita 	1	Enero	2023-01-20T00:00:00	2024-11-08T23:00:00	7	Dirección del viento	3.22
71847	7	Sololá	704	Santa Lucía Utatlán 	7	Santa Rita 	1	Enero	2023-01-20T00:00:00	2024-11-08T23:00:00	1	Precipitación	0
71848	7	Sololá	704	Santa Lucía Utatlán 	7	Santa Rita 	1	Enero	2023-01-20T00:00:00	2024-11-08T23:00:00	8	Radiación solar	0
71849	7	Sololá	704	Santa Lucía Utatlán 	7	Santa Rita 	1	Enero	2023-01-21T00:00:00	2024-11-08T00:00:00	2	Temperatura media	15.4
71850	7	Sololá	704	Santa Lucía Utatlán 	7	Santa Rita 	1	Enero	2023-01-21T00:00:00	2024-11-08T00:00:00	4	Temperatura máxima	15.8
71851	7	Sololá	704	Santa Lucía Utatlán 	7	Santa Rita 	1	Enero	2023-01-21T00:00:00	2024-11-08T00:00:00	3	Temperatura mínima	15.3
71852	7	Sololá	704	Santa Lucía Utatlán 	7	Santa Rita 	1	Enero	2023-01-21T00:00:00	2024-11-08T00:00:00	5	Humedad	78
71853	7	Sololá	704	Santa Lucía Utatlán 	7	Santa Rita 	1	Enero	2023-01-21T00:00:00	2024-11-08T00:00:00	6	Velocidad del viento	3.2
71854	7	Sololá	704	Santa Lucía Utatlán 	7	Santa Rita 	1	Enero	2023-01-21T00:00:00	2024-11-08T00:00:00	7	Dirección del viento	3.22
71855	7	Sololá	704	Santa Lucía Utatlán 	7	Santa Rita 	1	Enero	2023-01-21T00:00:00	2024-11-08T00:00:00	1	Precipitación	0
71856	7	Sololá	704	Santa Lucía Utatlán 	7	Santa Rita 	1	Enero	2023-01-21T00:00:00	2024-11-08T00:00:00	8	Radiación solar	0
71857	7	Sololá	704	Santa Lucía Utatlán 	7	Santa Rita 	1	Enero	2023-01-21T00:00:00	2024-11-08T01:00:00	2	Temperatura media	15.6
71858	7	Sololá	704	Santa Lucía Utatlán 	7	Santa Rita 	1	Enero	2023-01-21T00:00:00	2024-11-08T01:00:00	4	Temperatura máxima	15.6
71859	7	Sololá	704	Santa Lucía Utatlán 	7	Santa Rita 	1	Enero	2023-01-21T00:00:00	2024-11-08T01:00:00	3	Temperatura mínima	15.1
71860	7	Sololá	704	Santa Lucía Utatlán 	7	Santa Rita 	1	Enero	2023-01-21T00:00:00	2024-11-08T01:00:00	5	Humedad	77
71861	7	Sololá	704	Santa Lucía Utatlán 	7	Santa Rita 	1	Enero	2023-01-21T00:00:00	2024-11-08T01:00:00	6	Velocidad del viento	3.2
71862	7	Sololá	704	Santa Lucía Utatlán 	7	Santa Rita 	1	Enero	2023-01-21T00:00:00	2024-11-08T01:00:00	7	Dirección del viento	3.22
71863	7	Sololá	704	Santa Lucía Utatlán 	7	Santa Rita 	1	Enero	2023-01-21T00:00:00	2024-11-08T01:00:00	1	Precipitación	0
71864	7	Sololá	704	Santa Lucía Utatlán 	7	Santa Rita 	1	Enero	2023-01-21T00:00:00	2024-11-08T01:00:00	8	Radiación solar	0
71865	7	Sololá	704	Santa Lucía Utatlán 	7	Santa Rita 	1	Enero	2023-01-21T00:00:00	2024-11-08T02:00:00	2	Temperatura media	15.3
71866	7	Sololá	704	Santa Lucía Utatlán 	7	Santa Rita 	1	Enero	2023-01-21T00:00:00	2024-11-08T02:00:00	4	Temperatura máxima	15.7
71867	7	Sololá	704	Santa Lucía Utatlán 	7	Santa Rita 	1	Enero	2023-01-21T00:00:00	2024-11-08T02:00:00	3	Temperatura mínima	15.2
71868	7	Sololá	704	Santa Lucía Utatlán 	7	Santa Rita 	1	Enero	2023-01-21T00:00:00	2024-11-08T02:00:00	5	Humedad	77
71869	7	Sololá	704	Santa Lucía Utatlán 	7	Santa Rita 	1	Enero	2023-01-21T00:00:00	2024-11-08T02:00:00	6	Velocidad del viento	4.8
71870	7	Sololá	704	Santa Lucía Utatlán 	7	Santa Rita 	1	Enero	2023-01-21T00:00:00	2024-11-08T02:00:00	7	Dirección del viento	4.83
71871	7	Sololá	704	Santa Lucía Utatlán 	7	Santa Rita 	1	Enero	2023-01-21T00:00:00	2024-11-08T02:00:00	1	Precipitación	0
71872	7	Sololá	704	Santa Lucía Utatlán 	7	Santa Rita 	1	Enero	2023-01-21T00:00:00	2024-11-08T02:00:00	8	Radiación solar	0
71873	7	Sololá	704	Santa Lucía Utatlán 	7	Santa Rita 	1	Enero	2023-01-21T00:00:00	2024-11-08T03:00:00	2	Temperatura media	15.2
71874	7	Sololá	704	Santa Lucía Utatlán 	7	Santa Rita 	1	Enero	2023-01-21T00:00:00	2024-11-08T03:00:00	4	Temperatura máxima	15.7
71875	7	Sololá	704	Santa Lucía Utatlán 	7	Santa Rita 	1	Enero	2023-01-21T00:00:00	2024-11-08T03:00:00	3	Temperatura mínima	15.1
71876	7	Sololá	704	Santa Lucía Utatlán 	7	Santa Rita 	1	Enero	2023-01-21T00:00:00	2024-11-08T03:00:00	5	Humedad	77
71877	7	Sololá	704	Santa Lucía Utatlán 	7	Santa Rita 	1	Enero	2023-01-21T00:00:00	2024-11-08T03:00:00	6	Velocidad del viento	4.8
71878	7	Sololá	704	Santa Lucía Utatlán 	7	Santa Rita 	1	Enero	2023-01-21T00:00:00	2024-11-08T03:00:00	7	Dirección del viento	4.83
71879	7	Sololá	704	Santa Lucía Utatlán 	7	Santa Rita 	1	Enero	2023-01-21T00:00:00	2024-11-08T03:00:00	1	Precipitación	0
71880	7	Sololá	704	Santa Lucía Utatlán 	7	Santa Rita 	1	Enero	2023-01-21T00:00:00	2024-11-08T03:00:00	8	Radiación solar	0
71881	7	Sololá	704	Santa Lucía Utatlán 	7	Santa Rita 	1	Enero	2023-01-21T00:00:00	2024-11-08T04:00:00	2	Temperatura media	15.3
71882	7	Sololá	704	Santa Lucía Utatlán 	7	Santa Rita 	1	Enero	2023-01-21T00:00:00	2024-11-08T04:00:00	4	Temperatura máxima	15.4
71883	7	Sololá	704	Santa Lucía Utatlán 	7	Santa Rita 	1	Enero	2023-01-21T00:00:00	2024-11-08T04:00:00	3	Temperatura mínima	15.1
71884	7	Sololá	704	Santa Lucía Utatlán 	7	Santa Rita 	1	Enero	2023-01-21T00:00:00	2024-11-08T04:00:00	5	Humedad	78
71885	7	Sololá	704	Santa Lucía Utatlán 	7	Santa Rita 	1	Enero	2023-01-21T00:00:00	2024-11-08T04:00:00	6	Velocidad del viento	4.8
71886	7	Sololá	704	Santa Lucía Utatlán 	7	Santa Rita 	1	Enero	2023-01-21T00:00:00	2024-11-08T04:00:00	7	Dirección del viento	4.83
71887	7	Sololá	704	Santa Lucía Utatlán 	7	Santa Rita 	1	Enero	2023-01-21T00:00:00	2024-11-08T04:00:00	1	Precipitación	0
71888	7	Sololá	704	Santa Lucía Utatlán 	7	Santa Rita 	1	Enero	2023-01-21T00:00:00	2024-11-08T04:00:00	8	Radiación solar	0
71889	7	Sololá	704	Santa Lucía Utatlán 	7	Santa Rita 	1	Enero	2023-01-21T00:00:00	2024-11-08T05:00:00	2	Temperatura media	15.3
71890	7	Sololá	704	Santa Lucía Utatlán 	7	Santa Rita 	1	Enero	2023-01-21T00:00:00	2024-11-08T05:00:00	4	Temperatura máxima	15.5
71891	7	Sololá	704	Santa Lucía Utatlán 	7	Santa Rita 	1	Enero	2023-01-21T00:00:00	2024-11-08T05:00:00	3	Temperatura mínima	15.2
71892	7	Sololá	704	Santa Lucía Utatlán 	7	Santa Rita 	1	Enero	2023-01-21T00:00:00	2024-11-08T05:00:00	5	Humedad	78
71893	7	Sololá	704	Santa Lucía Utatlán 	7	Santa Rita 	1	Enero	2023-01-21T00:00:00	2024-11-08T05:00:00	6	Velocidad del viento	3.2
71894	7	Sololá	704	Santa Lucía Utatlán 	7	Santa Rita 	1	Enero	2023-01-21T00:00:00	2024-11-08T05:00:00	7	Dirección del viento	3.22
71895	7	Sololá	704	Santa Lucía Utatlán 	7	Santa Rita 	1	Enero	2023-01-21T00:00:00	2024-11-08T05:00:00	1	Precipitación	0
71896	7	Sololá	704	Santa Lucía Utatlán 	7	Santa Rita 	1	Enero	2023-01-21T00:00:00	2024-11-08T05:00:00	8	Radiación solar	0
71897	7	Sololá	704	Santa Lucía Utatlán 	7	Santa Rita 	1	Enero	2023-01-21T00:00:00	2024-11-08T06:00:00	2	Temperatura media	14.6
71898	7	Sololá	704	Santa Lucía Utatlán 	7	Santa Rita 	1	Enero	2023-01-21T00:00:00	2024-11-08T06:00:00	4	Temperatura máxima	15.3
71899	7	Sololá	704	Santa Lucía Utatlán 	7	Santa Rita 	1	Enero	2023-01-21T00:00:00	2024-11-08T06:00:00	3	Temperatura mínima	14.6
71900	7	Sololá	704	Santa Lucía Utatlán 	7	Santa Rita 	1	Enero	2023-01-21T00:00:00	2024-11-08T06:00:00	5	Humedad	80
71901	7	Sololá	704	Santa Lucía Utatlán 	7	Santa Rita 	1	Enero	2023-01-21T00:00:00	2024-11-08T06:00:00	6	Velocidad del viento	3.2
71902	7	Sololá	704	Santa Lucía Utatlán 	7	Santa Rita 	1	Enero	2023-01-21T00:00:00	2024-11-08T06:00:00	7	Dirección del viento	3.22
71903	7	Sololá	704	Santa Lucía Utatlán 	7	Santa Rita 	1	Enero	2023-01-21T00:00:00	2024-11-08T06:00:00	1	Precipitación	0
71904	7	Sololá	704	Santa Lucía Utatlán 	7	Santa Rita 	1	Enero	2023-01-21T00:00:00	2024-11-08T06:00:00	8	Radiación solar	0
71905	7	Sololá	704	Santa Lucía Utatlán 	7	Santa Rita 	1	Enero	2023-01-21T00:00:00	2024-11-08T07:00:00	2	Temperatura media	14.7
71906	7	Sololá	704	Santa Lucía Utatlán 	7	Santa Rita 	1	Enero	2023-01-21T00:00:00	2024-11-08T07:00:00	4	Temperatura máxima	14.7
71907	7	Sololá	704	Santa Lucía Utatlán 	7	Santa Rita 	1	Enero	2023-01-21T00:00:00	2024-11-08T07:00:00	3	Temperatura mínima	14.2
71908	7	Sololá	704	Santa Lucía Utatlán 	7	Santa Rita 	1	Enero	2023-01-21T00:00:00	2024-11-08T07:00:00	5	Humedad	81
71909	7	Sololá	704	Santa Lucía Utatlán 	7	Santa Rita 	1	Enero	2023-01-21T00:00:00	2024-11-08T07:00:00	6	Velocidad del viento	4.8
71910	7	Sololá	704	Santa Lucía Utatlán 	7	Santa Rita 	1	Enero	2023-01-21T00:00:00	2024-11-08T07:00:00	7	Dirección del viento	4.83
71911	7	Sololá	704	Santa Lucía Utatlán 	7	Santa Rita 	1	Enero	2023-01-21T00:00:00	2024-11-08T07:00:00	1	Precipitación	0
71912	7	Sololá	704	Santa Lucía Utatlán 	7	Santa Rita 	1	Enero	2023-01-21T00:00:00	2024-11-08T07:00:00	8	Radiación solar	5
71913	7	Sololá	704	Santa Lucía Utatlán 	7	Santa Rita 	1	Enero	2023-01-21T00:00:00	2024-11-08T08:00:00	2	Temperatura media	19.3
71914	7	Sololá	704	Santa Lucía Utatlán 	7	Santa Rita 	1	Enero	2023-01-21T00:00:00	2024-11-08T08:00:00	4	Temperatura máxima	19.3
71915	7	Sololá	704	Santa Lucía Utatlán 	7	Santa Rita 	1	Enero	2023-01-21T00:00:00	2024-11-08T08:00:00	3	Temperatura mínima	14.8
71916	7	Sololá	704	Santa Lucía Utatlán 	7	Santa Rita 	1	Enero	2023-01-21T00:00:00	2024-11-08T08:00:00	5	Humedad	69
71917	7	Sololá	704	Santa Lucía Utatlán 	7	Santa Rita 	1	Enero	2023-01-21T00:00:00	2024-11-08T08:00:00	6	Velocidad del viento	1.6
71918	7	Sololá	704	Santa Lucía Utatlán 	7	Santa Rita 	1	Enero	2023-01-21T00:00:00	2024-11-08T08:00:00	7	Dirección del viento	1.61
71919	7	Sololá	704	Santa Lucía Utatlán 	7	Santa Rita 	1	Enero	2023-01-21T00:00:00	2024-11-08T08:00:00	1	Precipitación	0
71920	7	Sololá	704	Santa Lucía Utatlán 	7	Santa Rita 	1	Enero	2023-01-21T00:00:00	2024-11-08T08:00:00	8	Radiación solar	127
71921	7	Sololá	704	Santa Lucía Utatlán 	7	Santa Rita 	1	Enero	2023-01-21T00:00:00	2024-11-08T09:00:00	2	Temperatura media	21.3
71922	7	Sololá	704	Santa Lucía Utatlán 	7	Santa Rita 	1	Enero	2023-01-21T00:00:00	2024-11-08T09:00:00	4	Temperatura máxima	21.3
71923	7	Sololá	704	Santa Lucía Utatlán 	7	Santa Rita 	1	Enero	2023-01-21T00:00:00	2024-11-08T09:00:00	3	Temperatura mínima	19.3
71924	7	Sololá	704	Santa Lucía Utatlán 	7	Santa Rita 	1	Enero	2023-01-21T00:00:00	2024-11-08T09:00:00	5	Humedad	62
71925	7	Sololá	704	Santa Lucía Utatlán 	7	Santa Rita 	1	Enero	2023-01-21T00:00:00	2024-11-08T09:00:00	6	Velocidad del viento	3.2
71926	7	Sololá	704	Santa Lucía Utatlán 	7	Santa Rita 	1	Enero	2023-01-21T00:00:00	2024-11-08T09:00:00	7	Dirección del viento	3.22
71927	7	Sololá	704	Santa Lucía Utatlán 	7	Santa Rita 	1	Enero	2023-01-21T00:00:00	2024-11-08T09:00:00	1	Precipitación	0
71928	7	Sololá	704	Santa Lucía Utatlán 	7	Santa Rita 	1	Enero	2023-01-21T00:00:00	2024-11-08T09:00:00	8	Radiación solar	368
71929	7	Sololá	704	Santa Lucía Utatlán 	7	Santa Rita 	1	Enero	2023-01-21T00:00:00	2024-11-08T10:00:00	2	Temperatura media	23.3
71930	7	Sololá	704	Santa Lucía Utatlán 	7	Santa Rita 	1	Enero	2023-01-21T00:00:00	2024-11-08T10:00:00	4	Temperatura máxima	23.3
71931	7	Sololá	704	Santa Lucía Utatlán 	7	Santa Rita 	1	Enero	2023-01-21T00:00:00	2024-11-08T10:00:00	3	Temperatura mínima	21.3
71932	7	Sololá	704	Santa Lucía Utatlán 	7	Santa Rita 	1	Enero	2023-01-21T00:00:00	2024-11-08T10:00:00	5	Humedad	52
71933	7	Sololá	704	Santa Lucía Utatlán 	7	Santa Rita 	1	Enero	2023-01-21T00:00:00	2024-11-08T10:00:00	6	Velocidad del viento	4.8
71934	7	Sololá	704	Santa Lucía Utatlán 	7	Santa Rita 	1	Enero	2023-01-21T00:00:00	2024-11-08T10:00:00	7	Dirección del viento	4.83
71935	7	Sololá	704	Santa Lucía Utatlán 	7	Santa Rita 	1	Enero	2023-01-21T00:00:00	2024-11-08T10:00:00	1	Precipitación	0
71936	7	Sololá	704	Santa Lucía Utatlán 	7	Santa Rita 	1	Enero	2023-01-21T00:00:00	2024-11-08T10:00:00	8	Radiación solar	566
71937	7	Sololá	704	Santa Lucía Utatlán 	7	Santa Rita 	1	Enero	2023-01-21T00:00:00	2024-11-08T11:00:00	2	Temperatura media	24.1
71938	7	Sololá	704	Santa Lucía Utatlán 	7	Santa Rita 	1	Enero	2023-01-21T00:00:00	2024-11-08T11:00:00	4	Temperatura máxima	24.1
71939	7	Sololá	704	Santa Lucía Utatlán 	7	Santa Rita 	1	Enero	2023-01-21T00:00:00	2024-11-08T11:00:00	3	Temperatura mínima	23.3
71940	7	Sololá	704	Santa Lucía Utatlán 	7	Santa Rita 	1	Enero	2023-01-21T00:00:00	2024-11-08T11:00:00	5	Humedad	39
71941	7	Sololá	704	Santa Lucía Utatlán 	7	Santa Rita 	1	Enero	2023-01-21T00:00:00	2024-11-08T11:00:00	6	Velocidad del viento	8
71942	7	Sololá	704	Santa Lucía Utatlán 	7	Santa Rita 	1	Enero	2023-01-21T00:00:00	2024-11-08T11:00:00	7	Dirección del viento	8.05
71943	7	Sololá	704	Santa Lucía Utatlán 	7	Santa Rita 	1	Enero	2023-01-21T00:00:00	2024-11-08T11:00:00	1	Precipitación	0
71944	7	Sololá	704	Santa Lucía Utatlán 	7	Santa Rita 	1	Enero	2023-01-21T00:00:00	2024-11-08T11:00:00	8	Radiación solar	719
71945	7	Sololá	704	Santa Lucía Utatlán 	7	Santa Rita 	1	Enero	2023-01-21T00:00:00	2024-11-08T12:00:00	2	Temperatura media	23.9
71946	7	Sololá	704	Santa Lucía Utatlán 	7	Santa Rita 	1	Enero	2023-01-21T00:00:00	2024-11-08T12:00:00	4	Temperatura máxima	24.7
71947	7	Sololá	704	Santa Lucía Utatlán 	7	Santa Rita 	1	Enero	2023-01-21T00:00:00	2024-11-08T12:00:00	3	Temperatura mínima	23.9
71948	7	Sololá	704	Santa Lucía Utatlán 	7	Santa Rita 	1	Enero	2023-01-21T00:00:00	2024-11-08T12:00:00	5	Humedad	45
71949	7	Sololá	704	Santa Lucía Utatlán 	7	Santa Rita 	1	Enero	2023-01-21T00:00:00	2024-11-08T12:00:00	6	Velocidad del viento	8
71950	7	Sololá	704	Santa Lucía Utatlán 	7	Santa Rita 	1	Enero	2023-01-21T00:00:00	2024-11-08T12:00:00	7	Dirección del viento	8.05
71951	7	Sololá	704	Santa Lucía Utatlán 	7	Santa Rita 	1	Enero	2023-01-21T00:00:00	2024-11-08T12:00:00	1	Precipitación	0
71952	7	Sololá	704	Santa Lucía Utatlán 	7	Santa Rita 	1	Enero	2023-01-21T00:00:00	2024-11-08T12:00:00	8	Radiación solar	804
71953	7	Sololá	704	Santa Lucía Utatlán 	7	Santa Rita 	1	Enero	2023-01-21T00:00:00	2024-11-08T13:00:00	2	Temperatura media	23.4
71954	7	Sololá	704	Santa Lucía Utatlán 	7	Santa Rita 	1	Enero	2023-01-21T00:00:00	2024-11-08T13:00:00	4	Temperatura máxima	24.4
71955	7	Sololá	704	Santa Lucía Utatlán 	7	Santa Rita 	1	Enero	2023-01-21T00:00:00	2024-11-08T13:00:00	3	Temperatura mínima	23.4
71956	7	Sololá	704	Santa Lucía Utatlán 	7	Santa Rita 	1	Enero	2023-01-21T00:00:00	2024-11-08T13:00:00	5	Humedad	52
71957	7	Sololá	704	Santa Lucía Utatlán 	7	Santa Rita 	1	Enero	2023-01-21T00:00:00	2024-11-08T13:00:00	6	Velocidad del viento	9.7
71958	7	Sololá	704	Santa Lucía Utatlán 	7	Santa Rita 	1	Enero	2023-01-21T00:00:00	2024-11-08T13:00:00	7	Dirección del viento	9.66
71959	7	Sololá	704	Santa Lucía Utatlán 	7	Santa Rita 	1	Enero	2023-01-21T00:00:00	2024-11-08T13:00:00	1	Precipitación	0
71960	7	Sololá	704	Santa Lucía Utatlán 	7	Santa Rita 	1	Enero	2023-01-21T00:00:00	2024-11-08T13:00:00	8	Radiación solar	817
71961	7	Sololá	704	Santa Lucía Utatlán 	7	Santa Rita 	1	Enero	2023-01-21T00:00:00	2024-11-08T14:00:00	2	Temperatura media	22.3
71962	7	Sololá	704	Santa Lucía Utatlán 	7	Santa Rita 	1	Enero	2023-01-21T00:00:00	2024-11-08T14:00:00	4	Temperatura máxima	23.6
71963	7	Sololá	704	Santa Lucía Utatlán 	7	Santa Rita 	1	Enero	2023-01-21T00:00:00	2024-11-08T14:00:00	3	Temperatura mínima	22.3
71964	7	Sololá	704	Santa Lucía Utatlán 	7	Santa Rita 	1	Enero	2023-01-21T00:00:00	2024-11-08T14:00:00	5	Humedad	67
71965	7	Sololá	704	Santa Lucía Utatlán 	7	Santa Rita 	1	Enero	2023-01-21T00:00:00	2024-11-08T14:00:00	6	Velocidad del viento	9.7
71966	7	Sololá	704	Santa Lucía Utatlán 	7	Santa Rita 	1	Enero	2023-01-21T00:00:00	2024-11-08T14:00:00	7	Dirección del viento	9.66
71967	7	Sololá	704	Santa Lucía Utatlán 	7	Santa Rita 	1	Enero	2023-01-21T00:00:00	2024-11-08T14:00:00	1	Precipitación	0
71968	7	Sololá	704	Santa Lucía Utatlán 	7	Santa Rita 	1	Enero	2023-01-21T00:00:00	2024-11-08T14:00:00	8	Radiación solar	708
71969	7	Sololá	704	Santa Lucía Utatlán 	7	Santa Rita 	1	Enero	2023-01-21T00:00:00	2024-11-08T15:00:00	2	Temperatura media	21.6
71970	7	Sololá	704	Santa Lucía Utatlán 	7	Santa Rita 	1	Enero	2023-01-21T00:00:00	2024-11-08T15:00:00	4	Temperatura máxima	22.8
71971	7	Sololá	704	Santa Lucía Utatlán 	7	Santa Rita 	1	Enero	2023-01-21T00:00:00	2024-11-08T15:00:00	3	Temperatura mínima	21.6
71972	7	Sololá	704	Santa Lucía Utatlán 	7	Santa Rita 	1	Enero	2023-01-21T00:00:00	2024-11-08T15:00:00	5	Humedad	69
71973	7	Sololá	704	Santa Lucía Utatlán 	7	Santa Rita 	1	Enero	2023-01-21T00:00:00	2024-11-08T15:00:00	6	Velocidad del viento	8
71974	7	Sololá	704	Santa Lucía Utatlán 	7	Santa Rita 	1	Enero	2023-01-21T00:00:00	2024-11-08T15:00:00	7	Dirección del viento	8.05
71975	7	Sololá	704	Santa Lucía Utatlán 	7	Santa Rita 	1	Enero	2023-01-21T00:00:00	2024-11-08T15:00:00	1	Precipitación	0
71976	7	Sololá	704	Santa Lucía Utatlán 	7	Santa Rita 	1	Enero	2023-01-21T00:00:00	2024-11-08T15:00:00	8	Radiación solar	597
71977	7	Sololá	704	Santa Lucía Utatlán 	7	Santa Rita 	1	Enero	2023-01-21T00:00:00	2024-11-08T16:00:00	2	Temperatura media	21.7
71978	7	Sololá	704	Santa Lucía Utatlán 	7	Santa Rita 	1	Enero	2023-01-21T00:00:00	2024-11-08T16:00:00	4	Temperatura máxima	21.8
71979	7	Sololá	704	Santa Lucía Utatlán 	7	Santa Rita 	1	Enero	2023-01-21T00:00:00	2024-11-08T16:00:00	3	Temperatura mínima	20.9
71980	7	Sololá	704	Santa Lucía Utatlán 	7	Santa Rita 	1	Enero	2023-01-21T00:00:00	2024-11-08T16:00:00	5	Humedad	71
71981	7	Sololá	704	Santa Lucía Utatlán 	7	Santa Rita 	1	Enero	2023-01-21T00:00:00	2024-11-08T16:00:00	6	Velocidad del viento	6.4
71982	7	Sololá	704	Santa Lucía Utatlán 	7	Santa Rita 	1	Enero	2023-01-21T00:00:00	2024-11-08T16:00:00	7	Dirección del viento	6.44
71983	7	Sololá	704	Santa Lucía Utatlán 	7	Santa Rita 	1	Enero	2023-01-21T00:00:00	2024-11-08T16:00:00	1	Precipitación	0
71984	7	Sololá	704	Santa Lucía Utatlán 	7	Santa Rita 	1	Enero	2023-01-21T00:00:00	2024-11-08T16:00:00	8	Radiación solar	382
71985	7	Sololá	704	Santa Lucía Utatlán 	7	Santa Rita 	1	Enero	2023-01-21T00:00:00	2024-11-08T17:00:00	2	Temperatura media	19.7
71986	7	Sololá	704	Santa Lucía Utatlán 	7	Santa Rita 	1	Enero	2023-01-21T00:00:00	2024-11-08T17:00:00	4	Temperatura máxima	21.9
71987	7	Sololá	704	Santa Lucía Utatlán 	7	Santa Rita 	1	Enero	2023-01-21T00:00:00	2024-11-08T17:00:00	3	Temperatura mínima	19.7
71988	7	Sololá	704	Santa Lucía Utatlán 	7	Santa Rita 	1	Enero	2023-01-21T00:00:00	2024-11-08T17:00:00	5	Humedad	84
71989	7	Sololá	704	Santa Lucía Utatlán 	7	Santa Rita 	1	Enero	2023-01-21T00:00:00	2024-11-08T17:00:00	6	Velocidad del viento	4.8
71990	7	Sololá	704	Santa Lucía Utatlán 	7	Santa Rita 	1	Enero	2023-01-21T00:00:00	2024-11-08T17:00:00	7	Dirección del viento	4.83
71991	7	Sololá	704	Santa Lucía Utatlán 	7	Santa Rita 	1	Enero	2023-01-21T00:00:00	2024-11-08T17:00:00	1	Precipitación	0
71992	7	Sololá	704	Santa Lucía Utatlán 	7	Santa Rita 	1	Enero	2023-01-21T00:00:00	2024-11-08T17:00:00	8	Radiación solar	168
71993	7	Sololá	704	Santa Lucía Utatlán 	7	Santa Rita 	1	Enero	2023-01-21T00:00:00	2024-11-08T18:00:00	2	Temperatura media	18.8
71994	7	Sololá	704	Santa Lucía Utatlán 	7	Santa Rita 	1	Enero	2023-01-21T00:00:00	2024-11-08T18:00:00	4	Temperatura máxima	19.7
71995	7	Sololá	704	Santa Lucía Utatlán 	7	Santa Rita 	1	Enero	2023-01-21T00:00:00	2024-11-08T18:00:00	3	Temperatura mínima	18.7
71996	7	Sololá	704	Santa Lucía Utatlán 	7	Santa Rita 	1	Enero	2023-01-21T00:00:00	2024-11-08T18:00:00	5	Humedad	88
71997	7	Sololá	704	Santa Lucía Utatlán 	7	Santa Rita 	1	Enero	2023-01-21T00:00:00	2024-11-08T18:00:00	6	Velocidad del viento	3.2
71998	7	Sololá	704	Santa Lucía Utatlán 	7	Santa Rita 	1	Enero	2023-01-21T00:00:00	2024-11-08T18:00:00	7	Dirección del viento	3.22
71999	7	Sololá	704	Santa Lucía Utatlán 	7	Santa Rita 	1	Enero	2023-01-21T00:00:00	2024-11-08T18:00:00	1	Precipitación	0
72000	7	Sololá	704	Santa Lucía Utatlán 	7	Santa Rita 	1	Enero	2023-01-21T00:00:00	2024-11-08T18:00:00	8	Radiación solar	21
72001	7	Sololá	704	Santa Lucía Utatlán 	7	Santa Rita 	1	Enero	2023-01-21T00:00:00	2024-11-08T19:00:00	2	Temperatura media	18.2
72002	7	Sololá	704	Santa Lucía Utatlán 	7	Santa Rita 	1	Enero	2023-01-21T00:00:00	2024-11-08T19:00:00	4	Temperatura máxima	18.8
72003	7	Sololá	704	Santa Lucía Utatlán 	7	Santa Rita 	1	Enero	2023-01-21T00:00:00	2024-11-08T19:00:00	3	Temperatura mínima	18.2
72004	7	Sololá	704	Santa Lucía Utatlán 	7	Santa Rita 	1	Enero	2023-01-21T00:00:00	2024-11-08T19:00:00	5	Humedad	89
72005	7	Sololá	704	Santa Lucía Utatlán 	7	Santa Rita 	1	Enero	2023-01-21T00:00:00	2024-11-08T19:00:00	6	Velocidad del viento	3.2
72006	7	Sololá	704	Santa Lucía Utatlán 	7	Santa Rita 	1	Enero	2023-01-21T00:00:00	2024-11-08T19:00:00	7	Dirección del viento	3.22
72007	7	Sololá	704	Santa Lucía Utatlán 	7	Santa Rita 	1	Enero	2023-01-21T00:00:00	2024-11-08T19:00:00	1	Precipitación	0
72008	7	Sololá	704	Santa Lucía Utatlán 	7	Santa Rita 	1	Enero	2023-01-21T00:00:00	2024-11-08T19:00:00	8	Radiación solar	0
72009	7	Sololá	704	Santa Lucía Utatlán 	7	Santa Rita 	1	Enero	2023-01-21T00:00:00	2024-11-08T20:00:00	2	Temperatura media	16.7
72010	7	Sololá	704	Santa Lucía Utatlán 	7	Santa Rita 	1	Enero	2023-01-21T00:00:00	2024-11-08T20:00:00	4	Temperatura máxima	18.2
72011	7	Sololá	704	Santa Lucía Utatlán 	7	Santa Rita 	1	Enero	2023-01-21T00:00:00	2024-11-08T20:00:00	3	Temperatura mínima	16.6
72012	7	Sololá	704	Santa Lucía Utatlán 	7	Santa Rita 	1	Enero	2023-01-21T00:00:00	2024-11-08T20:00:00	5	Humedad	86
72013	7	Sololá	704	Santa Lucía Utatlán 	7	Santa Rita 	1	Enero	2023-01-21T00:00:00	2024-11-08T20:00:00	6	Velocidad del viento	1.6
72014	7	Sololá	704	Santa Lucía Utatlán 	7	Santa Rita 	1	Enero	2023-01-21T00:00:00	2024-11-08T20:00:00	7	Dirección del viento	1.61
72015	7	Sololá	704	Santa Lucía Utatlán 	7	Santa Rita 	1	Enero	2023-01-21T00:00:00	2024-11-08T20:00:00	1	Precipitación	0
72016	7	Sololá	704	Santa Lucía Utatlán 	7	Santa Rita 	1	Enero	2023-01-21T00:00:00	2024-11-08T20:00:00	8	Radiación solar	0
72017	7	Sololá	704	Santa Lucía Utatlán 	7	Santa Rita 	1	Enero	2023-01-21T00:00:00	2024-11-08T21:00:00	2	Temperatura media	14.9
72018	7	Sololá	704	Santa Lucía Utatlán 	7	Santa Rita 	1	Enero	2023-01-21T00:00:00	2024-11-08T21:00:00	4	Temperatura máxima	16.6
72019	7	Sololá	704	Santa Lucía Utatlán 	7	Santa Rita 	1	Enero	2023-01-21T00:00:00	2024-11-08T21:00:00	3	Temperatura mínima	14.9
72020	7	Sololá	704	Santa Lucía Utatlán 	7	Santa Rita 	1	Enero	2023-01-21T00:00:00	2024-11-08T21:00:00	5	Humedad	85
72021	7	Sololá	704	Santa Lucía Utatlán 	7	Santa Rita 	1	Enero	2023-01-21T00:00:00	2024-11-08T21:00:00	6	Velocidad del viento	3.2
72022	7	Sololá	704	Santa Lucía Utatlán 	7	Santa Rita 	1	Enero	2023-01-21T00:00:00	2024-11-08T21:00:00	7	Dirección del viento	3.22
72023	7	Sololá	704	Santa Lucía Utatlán 	7	Santa Rita 	1	Enero	2023-01-21T00:00:00	2024-11-08T21:00:00	1	Precipitación	0
72024	7	Sololá	704	Santa Lucía Utatlán 	7	Santa Rita 	1	Enero	2023-01-21T00:00:00	2024-11-08T21:00:00	8	Radiación solar	0
72025	7	Sololá	704	Santa Lucía Utatlán 	7	Santa Rita 	1	Enero	2023-01-21T00:00:00	2024-11-08T22:00:00	2	Temperatura media	16.1
72026	7	Sololá	704	Santa Lucía Utatlán 	7	Santa Rita 	1	Enero	2023-01-21T00:00:00	2024-11-08T22:00:00	4	Temperatura máxima	16.2
72027	7	Sololá	704	Santa Lucía Utatlán 	7	Santa Rita 	1	Enero	2023-01-21T00:00:00	2024-11-08T22:00:00	3	Temperatura mínima	14.8
72028	7	Sololá	704	Santa Lucía Utatlán 	7	Santa Rita 	1	Enero	2023-01-21T00:00:00	2024-11-08T22:00:00	5	Humedad	84
72029	7	Sololá	704	Santa Lucía Utatlán 	7	Santa Rita 	1	Enero	2023-01-21T00:00:00	2024-11-08T22:00:00	6	Velocidad del viento	6.4
72030	7	Sololá	704	Santa Lucía Utatlán 	7	Santa Rita 	1	Enero	2023-01-21T00:00:00	2024-11-08T22:00:00	7	Dirección del viento	6.44
72031	7	Sololá	704	Santa Lucía Utatlán 	7	Santa Rita 	1	Enero	2023-01-21T00:00:00	2024-11-08T22:00:00	1	Precipitación	0
72032	7	Sololá	704	Santa Lucía Utatlán 	7	Santa Rita 	1	Enero	2023-01-21T00:00:00	2024-11-08T22:00:00	8	Radiación solar	0
72033	7	Sololá	704	Santa Lucía Utatlán 	7	Santa Rita 	1	Enero	2023-01-21T00:00:00	2024-11-08T23:00:00	2	Temperatura media	14.9
72034	7	Sololá	704	Santa Lucía Utatlán 	7	Santa Rita 	1	Enero	2023-01-21T00:00:00	2024-11-08T23:00:00	4	Temperatura máxima	16.2
72035	7	Sololá	704	Santa Lucía Utatlán 	7	Santa Rita 	1	Enero	2023-01-21T00:00:00	2024-11-08T23:00:00	3	Temperatura mínima	14.9
72036	7	Sololá	704	Santa Lucía Utatlán 	7	Santa Rita 	1	Enero	2023-01-21T00:00:00	2024-11-08T23:00:00	5	Humedad	76
72037	7	Sololá	704	Santa Lucía Utatlán 	7	Santa Rita 	1	Enero	2023-01-21T00:00:00	2024-11-08T23:00:00	6	Velocidad del viento	6.4
72038	7	Sololá	704	Santa Lucía Utatlán 	7	Santa Rita 	1	Enero	2023-01-21T00:00:00	2024-11-08T23:00:00	7	Dirección del viento	6.44
72039	7	Sololá	704	Santa Lucía Utatlán 	7	Santa Rita 	1	Enero	2023-01-21T00:00:00	2024-11-08T23:00:00	1	Precipitación	0
72040	7	Sololá	704	Santa Lucía Utatlán 	7	Santa Rita 	1	Enero	2023-01-21T00:00:00	2024-11-08T23:00:00	8	Radiación solar	0
72041	7	Sololá	704	Santa Lucía Utatlán 	7	Santa Rita 	1	Enero	2023-01-22T00:00:00	2024-11-08T00:00:00	2	Temperatura media	14.7
72042	7	Sololá	704	Santa Lucía Utatlán 	7	Santa Rita 	1	Enero	2023-01-22T00:00:00	2024-11-08T00:00:00	4	Temperatura máxima	14.9
72043	7	Sololá	704	Santa Lucía Utatlán 	7	Santa Rita 	1	Enero	2023-01-22T00:00:00	2024-11-08T00:00:00	3	Temperatura mínima	14.4
72044	7	Sololá	704	Santa Lucía Utatlán 	7	Santa Rita 	1	Enero	2023-01-22T00:00:00	2024-11-08T00:00:00	5	Humedad	75
72045	7	Sololá	704	Santa Lucía Utatlán 	7	Santa Rita 	1	Enero	2023-01-22T00:00:00	2024-11-08T00:00:00	6	Velocidad del viento	6.4
72046	7	Sololá	704	Santa Lucía Utatlán 	7	Santa Rita 	1	Enero	2023-01-22T00:00:00	2024-11-08T00:00:00	7	Dirección del viento	6.44
72047	7	Sololá	704	Santa Lucía Utatlán 	7	Santa Rita 	1	Enero	2023-01-22T00:00:00	2024-11-08T00:00:00	1	Precipitación	0
72048	7	Sololá	704	Santa Lucía Utatlán 	7	Santa Rita 	1	Enero	2023-01-22T00:00:00	2024-11-08T00:00:00	8	Radiación solar	0
72049	7	Sololá	704	Santa Lucía Utatlán 	7	Santa Rita 	1	Enero	2023-01-22T00:00:00	2024-11-08T01:00:00	2	Temperatura media	14
72050	7	Sololá	704	Santa Lucía Utatlán 	7	Santa Rita 	1	Enero	2023-01-22T00:00:00	2024-11-08T01:00:00	4	Temperatura máxima	14.8
72051	7	Sololá	704	Santa Lucía Utatlán 	7	Santa Rita 	1	Enero	2023-01-22T00:00:00	2024-11-08T01:00:00	3	Temperatura mínima	14
72052	7	Sololá	704	Santa Lucía Utatlán 	7	Santa Rita 	1	Enero	2023-01-22T00:00:00	2024-11-08T01:00:00	5	Humedad	78
72053	7	Sololá	704	Santa Lucía Utatlán 	7	Santa Rita 	1	Enero	2023-01-22T00:00:00	2024-11-08T01:00:00	6	Velocidad del viento	6.4
72054	7	Sololá	704	Santa Lucía Utatlán 	7	Santa Rita 	1	Enero	2023-01-22T00:00:00	2024-11-08T01:00:00	7	Dirección del viento	6.44
72055	7	Sololá	704	Santa Lucía Utatlán 	7	Santa Rita 	1	Enero	2023-01-22T00:00:00	2024-11-08T01:00:00	1	Precipitación	0
72056	7	Sololá	704	Santa Lucía Utatlán 	7	Santa Rita 	1	Enero	2023-01-22T00:00:00	2024-11-08T01:00:00	8	Radiación solar	0
72057	7	Sololá	704	Santa Lucía Utatlán 	7	Santa Rita 	1	Enero	2023-01-22T00:00:00	2024-11-08T02:00:00	2	Temperatura media	13.6
72058	7	Sololá	704	Santa Lucía Utatlán 	7	Santa Rita 	1	Enero	2023-01-22T00:00:00	2024-11-08T02:00:00	4	Temperatura máxima	14
72059	7	Sololá	704	Santa Lucía Utatlán 	7	Santa Rita 	1	Enero	2023-01-22T00:00:00	2024-11-08T02:00:00	3	Temperatura mínima	13.6
72060	7	Sololá	704	Santa Lucía Utatlán 	7	Santa Rita 	1	Enero	2023-01-22T00:00:00	2024-11-08T02:00:00	5	Humedad	80
72061	7	Sololá	704	Santa Lucía Utatlán 	7	Santa Rita 	1	Enero	2023-01-22T00:00:00	2024-11-08T02:00:00	6	Velocidad del viento	4.8
72062	7	Sololá	704	Santa Lucía Utatlán 	7	Santa Rita 	1	Enero	2023-01-22T00:00:00	2024-11-08T02:00:00	7	Dirección del viento	4.83
72063	7	Sololá	704	Santa Lucía Utatlán 	7	Santa Rita 	1	Enero	2023-01-22T00:00:00	2024-11-08T02:00:00	1	Precipitación	0
72064	7	Sololá	704	Santa Lucía Utatlán 	7	Santa Rita 	1	Enero	2023-01-22T00:00:00	2024-11-08T02:00:00	8	Radiación solar	0
72065	7	Sololá	704	Santa Lucía Utatlán 	7	Santa Rita 	1	Enero	2023-01-22T00:00:00	2024-11-08T03:00:00	2	Temperatura media	13.4
72066	7	Sololá	704	Santa Lucía Utatlán 	7	Santa Rita 	1	Enero	2023-01-22T00:00:00	2024-11-08T03:00:00	4	Temperatura máxima	13.7
72067	7	Sololá	704	Santa Lucía Utatlán 	7	Santa Rita 	1	Enero	2023-01-22T00:00:00	2024-11-08T03:00:00	3	Temperatura mínima	13.2
72068	7	Sololá	704	Santa Lucía Utatlán 	7	Santa Rita 	1	Enero	2023-01-22T00:00:00	2024-11-08T03:00:00	5	Humedad	82
72069	7	Sololá	704	Santa Lucía Utatlán 	7	Santa Rita 	1	Enero	2023-01-22T00:00:00	2024-11-08T03:00:00	6	Velocidad del viento	4.8
72070	7	Sololá	704	Santa Lucía Utatlán 	7	Santa Rita 	1	Enero	2023-01-22T00:00:00	2024-11-08T03:00:00	7	Dirección del viento	4.83
72071	7	Sololá	704	Santa Lucía Utatlán 	7	Santa Rita 	1	Enero	2023-01-22T00:00:00	2024-11-08T03:00:00	1	Precipitación	0
72072	7	Sololá	704	Santa Lucía Utatlán 	7	Santa Rita 	1	Enero	2023-01-22T00:00:00	2024-11-08T03:00:00	8	Radiación solar	0
72073	7	Sololá	704	Santa Lucía Utatlán 	7	Santa Rita 	1	Enero	2023-01-22T00:00:00	2024-11-08T04:00:00	2	Temperatura media	13.2
72074	7	Sololá	704	Santa Lucía Utatlán 	7	Santa Rita 	1	Enero	2023-01-22T00:00:00	2024-11-08T04:00:00	4	Temperatura máxima	13.4
72075	7	Sololá	704	Santa Lucía Utatlán 	7	Santa Rita 	1	Enero	2023-01-22T00:00:00	2024-11-08T04:00:00	3	Temperatura mínima	13
72076	7	Sololá	704	Santa Lucía Utatlán 	7	Santa Rita 	1	Enero	2023-01-22T00:00:00	2024-11-08T04:00:00	5	Humedad	82
72077	7	Sololá	704	Santa Lucía Utatlán 	7	Santa Rita 	1	Enero	2023-01-22T00:00:00	2024-11-08T04:00:00	6	Velocidad del viento	4.8
72078	7	Sololá	704	Santa Lucía Utatlán 	7	Santa Rita 	1	Enero	2023-01-22T00:00:00	2024-11-08T04:00:00	7	Dirección del viento	4.83
72079	7	Sololá	704	Santa Lucía Utatlán 	7	Santa Rita 	1	Enero	2023-01-22T00:00:00	2024-11-08T04:00:00	1	Precipitación	0
72080	7	Sololá	704	Santa Lucía Utatlán 	7	Santa Rita 	1	Enero	2023-01-22T00:00:00	2024-11-08T04:00:00	8	Radiación solar	0
72081	7	Sololá	704	Santa Lucía Utatlán 	7	Santa Rita 	1	Enero	2023-01-22T00:00:00	2024-11-08T05:00:00	2	Temperatura media	12.4
72082	7	Sololá	704	Santa Lucía Utatlán 	7	Santa Rita 	1	Enero	2023-01-22T00:00:00	2024-11-08T05:00:00	4	Temperatura máxima	13.2
72083	7	Sololá	704	Santa Lucía Utatlán 	7	Santa Rita 	1	Enero	2023-01-22T00:00:00	2024-11-08T05:00:00	3	Temperatura mínima	12.3
72084	7	Sololá	704	Santa Lucía Utatlán 	7	Santa Rita 	1	Enero	2023-01-22T00:00:00	2024-11-08T05:00:00	5	Humedad	76
72085	7	Sololá	704	Santa Lucía Utatlán 	7	Santa Rita 	1	Enero	2023-01-22T00:00:00	2024-11-08T05:00:00	6	Velocidad del viento	6.4
72086	7	Sololá	704	Santa Lucía Utatlán 	7	Santa Rita 	1	Enero	2023-01-22T00:00:00	2024-11-08T05:00:00	7	Dirección del viento	6.44
72087	7	Sololá	704	Santa Lucía Utatlán 	7	Santa Rita 	1	Enero	2023-01-22T00:00:00	2024-11-08T05:00:00	1	Precipitación	0
72088	7	Sololá	704	Santa Lucía Utatlán 	7	Santa Rita 	1	Enero	2023-01-22T00:00:00	2024-11-08T05:00:00	8	Radiación solar	0
72089	7	Sololá	704	Santa Lucía Utatlán 	7	Santa Rita 	1	Enero	2023-01-22T00:00:00	2024-11-08T06:00:00	2	Temperatura media	11.1
72090	7	Sololá	704	Santa Lucía Utatlán 	7	Santa Rita 	1	Enero	2023-01-22T00:00:00	2024-11-08T06:00:00	4	Temperatura máxima	12.4
72091	7	Sololá	704	Santa Lucía Utatlán 	7	Santa Rita 	1	Enero	2023-01-22T00:00:00	2024-11-08T06:00:00	3	Temperatura mínima	11
72092	7	Sololá	704	Santa Lucía Utatlán 	7	Santa Rita 	1	Enero	2023-01-22T00:00:00	2024-11-08T06:00:00	5	Humedad	72
72093	7	Sololá	704	Santa Lucía Utatlán 	7	Santa Rita 	1	Enero	2023-01-22T00:00:00	2024-11-08T06:00:00	6	Velocidad del viento	3.2
72094	7	Sololá	704	Santa Lucía Utatlán 	7	Santa Rita 	1	Enero	2023-01-22T00:00:00	2024-11-08T06:00:00	7	Dirección del viento	3.22
72095	7	Sololá	704	Santa Lucía Utatlán 	7	Santa Rita 	1	Enero	2023-01-22T00:00:00	2024-11-08T06:00:00	1	Precipitación	0
72096	7	Sololá	704	Santa Lucía Utatlán 	7	Santa Rita 	1	Enero	2023-01-22T00:00:00	2024-11-08T06:00:00	8	Radiación solar	0
72097	7	Sololá	704	Santa Lucía Utatlán 	7	Santa Rita 	1	Enero	2023-01-22T00:00:00	2024-11-08T07:00:00	2	Temperatura media	12
72098	7	Sololá	704	Santa Lucía Utatlán 	7	Santa Rita 	1	Enero	2023-01-22T00:00:00	2024-11-08T07:00:00	4	Temperatura máxima	12
72099	7	Sololá	704	Santa Lucía Utatlán 	7	Santa Rita 	1	Enero	2023-01-22T00:00:00	2024-11-08T07:00:00	3	Temperatura mínima	11
72100	7	Sololá	704	Santa Lucía Utatlán 	7	Santa Rita 	1	Enero	2023-01-22T00:00:00	2024-11-08T07:00:00	5	Humedad	64
72101	7	Sololá	704	Santa Lucía Utatlán 	7	Santa Rita 	1	Enero	2023-01-22T00:00:00	2024-11-08T07:00:00	6	Velocidad del viento	6.4
72102	7	Sololá	704	Santa Lucía Utatlán 	7	Santa Rita 	1	Enero	2023-01-22T00:00:00	2024-11-08T07:00:00	7	Dirección del viento	6.44
72103	7	Sololá	704	Santa Lucía Utatlán 	7	Santa Rita 	1	Enero	2023-01-22T00:00:00	2024-11-08T07:00:00	1	Precipitación	0
72104	7	Sololá	704	Santa Lucía Utatlán 	7	Santa Rita 	1	Enero	2023-01-22T00:00:00	2024-11-08T07:00:00	8	Radiación solar	5
72105	7	Sololá	704	Santa Lucía Utatlán 	7	Santa Rita 	1	Enero	2023-01-22T00:00:00	2024-11-08T08:00:00	2	Temperatura media	17.1
72106	7	Sololá	704	Santa Lucía Utatlán 	7	Santa Rita 	1	Enero	2023-01-22T00:00:00	2024-11-08T08:00:00	4	Temperatura máxima	17.1
72107	7	Sololá	704	Santa Lucía Utatlán 	7	Santa Rita 	1	Enero	2023-01-22T00:00:00	2024-11-08T08:00:00	3	Temperatura mínima	12.1
72108	7	Sololá	704	Santa Lucía Utatlán 	7	Santa Rita 	1	Enero	2023-01-22T00:00:00	2024-11-08T08:00:00	5	Humedad	66
72109	7	Sololá	704	Santa Lucía Utatlán 	7	Santa Rita 	1	Enero	2023-01-22T00:00:00	2024-11-08T08:00:00	6	Velocidad del viento	0
72110	7	Sololá	704	Santa Lucía Utatlán 	7	Santa Rita 	1	Enero	2023-01-22T00:00:00	2024-11-08T08:00:00	7	Dirección del viento	0
72111	7	Sololá	704	Santa Lucía Utatlán 	7	Santa Rita 	1	Enero	2023-01-22T00:00:00	2024-11-08T08:00:00	1	Precipitación	0
72112	7	Sololá	704	Santa Lucía Utatlán 	7	Santa Rita 	1	Enero	2023-01-22T00:00:00	2024-11-08T08:00:00	8	Radiación solar	133
72113	7	Sololá	704	Santa Lucía Utatlán 	7	Santa Rita 	1	Enero	2023-01-22T00:00:00	2024-11-08T09:00:00	2	Temperatura media	20.7
72114	7	Sololá	704	Santa Lucía Utatlán 	7	Santa Rita 	1	Enero	2023-01-22T00:00:00	2024-11-08T09:00:00	4	Temperatura máxima	20.7
72115	7	Sololá	704	Santa Lucía Utatlán 	7	Santa Rita 	1	Enero	2023-01-22T00:00:00	2024-11-08T09:00:00	3	Temperatura mínima	17.1
72116	7	Sololá	704	Santa Lucía Utatlán 	7	Santa Rita 	1	Enero	2023-01-22T00:00:00	2024-11-08T09:00:00	5	Humedad	41
72117	7	Sololá	704	Santa Lucía Utatlán 	7	Santa Rita 	1	Enero	2023-01-22T00:00:00	2024-11-08T09:00:00	6	Velocidad del viento	1.6
72118	7	Sololá	704	Santa Lucía Utatlán 	7	Santa Rita 	1	Enero	2023-01-22T00:00:00	2024-11-08T09:00:00	7	Dirección del viento	1.61
72119	7	Sololá	704	Santa Lucía Utatlán 	7	Santa Rita 	1	Enero	2023-01-22T00:00:00	2024-11-08T09:00:00	1	Precipitación	0
72120	7	Sololá	704	Santa Lucía Utatlán 	7	Santa Rita 	1	Enero	2023-01-22T00:00:00	2024-11-08T09:00:00	8	Radiación solar	381
72121	7	Sololá	704	Santa Lucía Utatlán 	7	Santa Rita 	1	Enero	2023-01-22T00:00:00	2024-11-08T10:00:00	2	Temperatura media	22.3
72122	7	Sololá	704	Santa Lucía Utatlán 	7	Santa Rita 	1	Enero	2023-01-22T00:00:00	2024-11-08T10:00:00	4	Temperatura máxima	22.4
72123	7	Sololá	704	Santa Lucía Utatlán 	7	Santa Rita 	1	Enero	2023-01-22T00:00:00	2024-11-08T10:00:00	3	Temperatura mínima	20.7
72124	7	Sololá	704	Santa Lucía Utatlán 	7	Santa Rita 	1	Enero	2023-01-22T00:00:00	2024-11-08T10:00:00	5	Humedad	32
72125	7	Sololá	704	Santa Lucía Utatlán 	7	Santa Rita 	1	Enero	2023-01-22T00:00:00	2024-11-08T10:00:00	6	Velocidad del viento	4.8
72126	7	Sololá	704	Santa Lucía Utatlán 	7	Santa Rita 	1	Enero	2023-01-22T00:00:00	2024-11-08T10:00:00	7	Dirección del viento	4.83
72127	7	Sololá	704	Santa Lucía Utatlán 	7	Santa Rita 	1	Enero	2023-01-22T00:00:00	2024-11-08T10:00:00	1	Precipitación	0
72128	7	Sololá	704	Santa Lucía Utatlán 	7	Santa Rita 	1	Enero	2023-01-22T00:00:00	2024-11-08T10:00:00	8	Radiación solar	585
72129	7	Sololá	704	Santa Lucía Utatlán 	7	Santa Rita 	1	Enero	2023-01-22T00:00:00	2024-11-08T11:00:00	2	Temperatura media	22.2
72130	7	Sololá	704	Santa Lucía Utatlán 	7	Santa Rita 	1	Enero	2023-01-22T00:00:00	2024-11-08T11:00:00	4	Temperatura máxima	22.4
72131	7	Sololá	704	Santa Lucía Utatlán 	7	Santa Rita 	1	Enero	2023-01-22T00:00:00	2024-11-08T11:00:00	3	Temperatura mínima	22
72132	7	Sololá	704	Santa Lucía Utatlán 	7	Santa Rita 	1	Enero	2023-01-22T00:00:00	2024-11-08T11:00:00	5	Humedad	20
72133	7	Sololá	704	Santa Lucía Utatlán 	7	Santa Rita 	1	Enero	2023-01-22T00:00:00	2024-11-08T11:00:00	6	Velocidad del viento	8
72134	7	Sololá	704	Santa Lucía Utatlán 	7	Santa Rita 	1	Enero	2023-01-22T00:00:00	2024-11-08T11:00:00	7	Dirección del viento	8.05
72135	7	Sololá	704	Santa Lucía Utatlán 	7	Santa Rita 	1	Enero	2023-01-22T00:00:00	2024-11-08T11:00:00	1	Precipitación	0
72136	7	Sololá	704	Santa Lucía Utatlán 	7	Santa Rita 	1	Enero	2023-01-22T00:00:00	2024-11-08T11:00:00	8	Radiación solar	729
72137	7	Sololá	704	Santa Lucía Utatlán 	7	Santa Rita 	1	Enero	2023-01-22T00:00:00	2024-11-08T12:00:00	2	Temperatura media	23.1
72138	7	Sololá	704	Santa Lucía Utatlán 	7	Santa Rita 	1	Enero	2023-01-22T00:00:00	2024-11-08T12:00:00	4	Temperatura máxima	23.3
72139	7	Sololá	704	Santa Lucía Utatlán 	7	Santa Rita 	1	Enero	2023-01-22T00:00:00	2024-11-08T12:00:00	3	Temperatura mínima	22.2
72140	7	Sololá	704	Santa Lucía Utatlán 	7	Santa Rita 	1	Enero	2023-01-22T00:00:00	2024-11-08T12:00:00	5	Humedad	19
72141	7	Sololá	704	Santa Lucía Utatlán 	7	Santa Rita 	1	Enero	2023-01-22T00:00:00	2024-11-08T12:00:00	6	Velocidad del viento	8
72142	7	Sololá	704	Santa Lucía Utatlán 	7	Santa Rita 	1	Enero	2023-01-22T00:00:00	2024-11-08T12:00:00	7	Dirección del viento	8.05
72143	7	Sololá	704	Santa Lucía Utatlán 	7	Santa Rita 	1	Enero	2023-01-22T00:00:00	2024-11-08T12:00:00	1	Precipitación	0
72144	7	Sololá	704	Santa Lucía Utatlán 	7	Santa Rita 	1	Enero	2023-01-22T00:00:00	2024-11-08T12:00:00	8	Radiación solar	830
72145	7	Sololá	704	Santa Lucía Utatlán 	7	Santa Rita 	1	Enero	2023-01-22T00:00:00	2024-11-08T13:00:00	2	Temperatura media	23.5
72146	7	Sololá	704	Santa Lucía Utatlán 	7	Santa Rita 	1	Enero	2023-01-22T00:00:00	2024-11-08T13:00:00	4	Temperatura máxima	23.6
72147	7	Sololá	704	Santa Lucía Utatlán 	7	Santa Rita 	1	Enero	2023-01-22T00:00:00	2024-11-08T13:00:00	3	Temperatura mínima	22.8
72148	7	Sololá	704	Santa Lucía Utatlán 	7	Santa Rita 	1	Enero	2023-01-22T00:00:00	2024-11-08T13:00:00	5	Humedad	26
72149	7	Sololá	704	Santa Lucía Utatlán 	7	Santa Rita 	1	Enero	2023-01-22T00:00:00	2024-11-08T13:00:00	6	Velocidad del viento	9.7
72150	7	Sololá	704	Santa Lucía Utatlán 	7	Santa Rita 	1	Enero	2023-01-22T00:00:00	2024-11-08T13:00:00	7	Dirección del viento	9.66
72151	7	Sololá	704	Santa Lucía Utatlán 	7	Santa Rita 	1	Enero	2023-01-22T00:00:00	2024-11-08T13:00:00	1	Precipitación	0
72152	7	Sololá	704	Santa Lucía Utatlán 	7	Santa Rita 	1	Enero	2023-01-22T00:00:00	2024-11-08T13:00:00	8	Radiación solar	847
72153	7	Sololá	704	Santa Lucía Utatlán 	7	Santa Rita 	1	Enero	2023-01-22T00:00:00	2024-11-08T14:00:00	2	Temperatura media	23.4
72154	7	Sololá	704	Santa Lucía Utatlán 	7	Santa Rita 	1	Enero	2023-01-22T00:00:00	2024-11-08T14:00:00	4	Temperatura máxima	23.7
72155	7	Sololá	704	Santa Lucía Utatlán 	7	Santa Rita 	1	Enero	2023-01-22T00:00:00	2024-11-08T14:00:00	3	Temperatura mínima	23
72156	7	Sololá	704	Santa Lucía Utatlán 	7	Santa Rita 	1	Enero	2023-01-22T00:00:00	2024-11-08T14:00:00	5	Humedad	52
72157	7	Sololá	704	Santa Lucía Utatlán 	7	Santa Rita 	1	Enero	2023-01-22T00:00:00	2024-11-08T14:00:00	6	Velocidad del viento	8
72158	7	Sololá	704	Santa Lucía Utatlán 	7	Santa Rita 	1	Enero	2023-01-22T00:00:00	2024-11-08T14:00:00	7	Dirección del viento	8.05
72159	7	Sololá	704	Santa Lucía Utatlán 	7	Santa Rita 	1	Enero	2023-01-22T00:00:00	2024-11-08T14:00:00	1	Precipitación	0
72160	7	Sololá	704	Santa Lucía Utatlán 	7	Santa Rita 	1	Enero	2023-01-22T00:00:00	2024-11-08T14:00:00	8	Radiación solar	781
72161	7	Sololá	704	Santa Lucía Utatlán 	7	Santa Rita 	1	Enero	2023-01-22T00:00:00	2024-11-08T15:00:00	2	Temperatura media	21.1
72162	7	Sololá	704	Santa Lucía Utatlán 	7	Santa Rita 	1	Enero	2023-01-22T00:00:00	2024-11-08T15:00:00	4	Temperatura máxima	23.4
72163	7	Sololá	704	Santa Lucía Utatlán 	7	Santa Rita 	1	Enero	2023-01-22T00:00:00	2024-11-08T15:00:00	3	Temperatura mínima	21.1
72164	7	Sololá	704	Santa Lucía Utatlán 	7	Santa Rita 	1	Enero	2023-01-22T00:00:00	2024-11-08T15:00:00	5	Humedad	64
72165	7	Sololá	704	Santa Lucía Utatlán 	7	Santa Rita 	1	Enero	2023-01-22T00:00:00	2024-11-08T15:00:00	6	Velocidad del viento	6.4
72166	7	Sololá	704	Santa Lucía Utatlán 	7	Santa Rita 	1	Enero	2023-01-22T00:00:00	2024-11-08T15:00:00	7	Dirección del viento	6.44
72167	7	Sololá	704	Santa Lucía Utatlán 	7	Santa Rita 	1	Enero	2023-01-22T00:00:00	2024-11-08T15:00:00	1	Precipitación	0
72168	7	Sololá	704	Santa Lucía Utatlán 	7	Santa Rita 	1	Enero	2023-01-22T00:00:00	2024-11-08T15:00:00	8	Radiación solar	174
72169	7	Sololá	704	Santa Lucía Utatlán 	7	Santa Rita 	1	Enero	2023-01-22T00:00:00	2024-11-08T16:00:00	2	Temperatura media	19.8
72170	7	Sololá	704	Santa Lucía Utatlán 	7	Santa Rita 	1	Enero	2023-01-22T00:00:00	2024-11-08T16:00:00	4	Temperatura máxima	21.2
72171	7	Sololá	704	Santa Lucía Utatlán 	7	Santa Rita 	1	Enero	2023-01-22T00:00:00	2024-11-08T16:00:00	3	Temperatura mínima	19.7
72172	7	Sololá	704	Santa Lucía Utatlán 	7	Santa Rita 	1	Enero	2023-01-22T00:00:00	2024-11-08T16:00:00	5	Humedad	78
72173	7	Sololá	704	Santa Lucía Utatlán 	7	Santa Rita 	1	Enero	2023-01-22T00:00:00	2024-11-08T16:00:00	6	Velocidad del viento	6.4
72174	7	Sololá	704	Santa Lucía Utatlán 	7	Santa Rita 	1	Enero	2023-01-22T00:00:00	2024-11-08T16:00:00	7	Dirección del viento	6.44
72175	7	Sololá	704	Santa Lucía Utatlán 	7	Santa Rita 	1	Enero	2023-01-22T00:00:00	2024-11-08T16:00:00	1	Precipitación	0
72176	7	Sololá	704	Santa Lucía Utatlán 	7	Santa Rita 	1	Enero	2023-01-22T00:00:00	2024-11-08T16:00:00	8	Radiación solar	178
72177	7	Sololá	704	Santa Lucía Utatlán 	7	Santa Rita 	1	Enero	2023-01-22T00:00:00	2024-11-08T17:00:00	2	Temperatura media	18.9
72178	7	Sololá	704	Santa Lucía Utatlán 	7	Santa Rita 	1	Enero	2023-01-22T00:00:00	2024-11-08T17:00:00	4	Temperatura máxima	19.8
72179	7	Sololá	704	Santa Lucía Utatlán 	7	Santa Rita 	1	Enero	2023-01-22T00:00:00	2024-11-08T17:00:00	3	Temperatura mínima	18.8
72180	7	Sololá	704	Santa Lucía Utatlán 	7	Santa Rita 	1	Enero	2023-01-22T00:00:00	2024-11-08T17:00:00	5	Humedad	83
72181	7	Sololá	704	Santa Lucía Utatlán 	7	Santa Rita 	1	Enero	2023-01-22T00:00:00	2024-11-08T17:00:00	6	Velocidad del viento	4.8
72182	7	Sololá	704	Santa Lucía Utatlán 	7	Santa Rita 	1	Enero	2023-01-22T00:00:00	2024-11-08T17:00:00	7	Dirección del viento	4.83
72183	7	Sololá	704	Santa Lucía Utatlán 	7	Santa Rita 	1	Enero	2023-01-22T00:00:00	2024-11-08T17:00:00	1	Precipitación	0
72184	7	Sololá	704	Santa Lucía Utatlán 	7	Santa Rita 	1	Enero	2023-01-22T00:00:00	2024-11-08T17:00:00	8	Radiación solar	86
72185	7	Sololá	704	Santa Lucía Utatlán 	7	Santa Rita 	1	Enero	2023-01-22T00:00:00	2024-11-08T18:00:00	2	Temperatura media	18.3
72186	7	Sololá	704	Santa Lucía Utatlán 	7	Santa Rita 	1	Enero	2023-01-22T00:00:00	2024-11-08T18:00:00	4	Temperatura máxima	18.9
72187	7	Sololá	704	Santa Lucía Utatlán 	7	Santa Rita 	1	Enero	2023-01-22T00:00:00	2024-11-08T18:00:00	3	Temperatura mínima	18.3
72188	7	Sololá	704	Santa Lucía Utatlán 	7	Santa Rita 	1	Enero	2023-01-22T00:00:00	2024-11-08T18:00:00	5	Humedad	87
72189	7	Sololá	704	Santa Lucía Utatlán 	7	Santa Rita 	1	Enero	2023-01-22T00:00:00	2024-11-08T18:00:00	6	Velocidad del viento	1.6
72190	7	Sololá	704	Santa Lucía Utatlán 	7	Santa Rita 	1	Enero	2023-01-22T00:00:00	2024-11-08T18:00:00	7	Dirección del viento	1.61
72191	7	Sololá	704	Santa Lucía Utatlán 	7	Santa Rita 	1	Enero	2023-01-22T00:00:00	2024-11-08T18:00:00	1	Precipitación	0
72192	7	Sololá	704	Santa Lucía Utatlán 	7	Santa Rita 	1	Enero	2023-01-22T00:00:00	2024-11-08T18:00:00	8	Radiación solar	28
72193	7	Sololá	704	Santa Lucía Utatlán 	7	Santa Rita 	1	Enero	2023-01-22T00:00:00	2024-11-08T19:00:00	2	Temperatura media	17.2
72194	7	Sololá	704	Santa Lucía Utatlán 	7	Santa Rita 	1	Enero	2023-01-22T00:00:00	2024-11-08T19:00:00	4	Temperatura máxima	18.3
72195	7	Sololá	704	Santa Lucía Utatlán 	7	Santa Rita 	1	Enero	2023-01-22T00:00:00	2024-11-08T19:00:00	3	Temperatura mínima	17.2
72196	7	Sololá	704	Santa Lucía Utatlán 	7	Santa Rita 	1	Enero	2023-01-22T00:00:00	2024-11-08T19:00:00	5	Humedad	88
72197	7	Sololá	704	Santa Lucía Utatlán 	7	Santa Rita 	1	Enero	2023-01-22T00:00:00	2024-11-08T19:00:00	6	Velocidad del viento	1.6
72198	7	Sololá	704	Santa Lucía Utatlán 	7	Santa Rita 	1	Enero	2023-01-22T00:00:00	2024-11-08T19:00:00	7	Dirección del viento	1.61
72199	7	Sololá	704	Santa Lucía Utatlán 	7	Santa Rita 	1	Enero	2023-01-22T00:00:00	2024-11-08T19:00:00	1	Precipitación	0
72200	7	Sololá	704	Santa Lucía Utatlán 	7	Santa Rita 	1	Enero	2023-01-22T00:00:00	2024-11-08T19:00:00	8	Radiación solar	0
72201	7	Sololá	704	Santa Lucía Utatlán 	7	Santa Rita 	1	Enero	2023-01-22T00:00:00	2024-11-08T20:00:00	2	Temperatura media	16.2
72202	7	Sololá	704	Santa Lucía Utatlán 	7	Santa Rita 	1	Enero	2023-01-22T00:00:00	2024-11-08T20:00:00	4	Temperatura máxima	17.2
72203	7	Sololá	704	Santa Lucía Utatlán 	7	Santa Rita 	1	Enero	2023-01-22T00:00:00	2024-11-08T20:00:00	3	Temperatura mínima	16.2
72204	7	Sololá	704	Santa Lucía Utatlán 	7	Santa Rita 	1	Enero	2023-01-22T00:00:00	2024-11-08T20:00:00	5	Humedad	86
72205	7	Sololá	704	Santa Lucía Utatlán 	7	Santa Rita 	1	Enero	2023-01-22T00:00:00	2024-11-08T20:00:00	6	Velocidad del viento	1.6
72206	7	Sololá	704	Santa Lucía Utatlán 	7	Santa Rita 	1	Enero	2023-01-22T00:00:00	2024-11-08T20:00:00	7	Dirección del viento	1.61
72207	7	Sololá	704	Santa Lucía Utatlán 	7	Santa Rita 	1	Enero	2023-01-22T00:00:00	2024-11-08T20:00:00	1	Precipitación	0
72208	7	Sololá	704	Santa Lucía Utatlán 	7	Santa Rita 	1	Enero	2023-01-22T00:00:00	2024-11-08T20:00:00	8	Radiación solar	0
72209	7	Sololá	704	Santa Lucía Utatlán 	7	Santa Rita 	1	Enero	2023-01-22T00:00:00	2024-11-08T21:00:00	2	Temperatura media	15.8
72210	7	Sololá	704	Santa Lucía Utatlán 	7	Santa Rita 	1	Enero	2023-01-22T00:00:00	2024-11-08T21:00:00	4	Temperatura máxima	16.4
72211	7	Sololá	704	Santa Lucía Utatlán 	7	Santa Rita 	1	Enero	2023-01-22T00:00:00	2024-11-08T21:00:00	3	Temperatura mínima	15.8
72212	7	Sololá	704	Santa Lucía Utatlán 	7	Santa Rita 	1	Enero	2023-01-22T00:00:00	2024-11-08T21:00:00	5	Humedad	85
72213	7	Sololá	704	Santa Lucía Utatlán 	7	Santa Rita 	1	Enero	2023-01-22T00:00:00	2024-11-08T21:00:00	6	Velocidad del viento	3.2
72214	7	Sololá	704	Santa Lucía Utatlán 	7	Santa Rita 	1	Enero	2023-01-22T00:00:00	2024-11-08T21:00:00	7	Dirección del viento	3.22
72215	7	Sololá	704	Santa Lucía Utatlán 	7	Santa Rita 	1	Enero	2023-01-22T00:00:00	2024-11-08T21:00:00	1	Precipitación	0
72216	7	Sololá	704	Santa Lucía Utatlán 	7	Santa Rita 	1	Enero	2023-01-22T00:00:00	2024-11-08T21:00:00	8	Radiación solar	0
72217	7	Sololá	704	Santa Lucía Utatlán 	7	Santa Rita 	1	Enero	2023-01-22T00:00:00	2024-11-08T22:00:00	2	Temperatura media	14.8
72218	7	Sololá	704	Santa Lucía Utatlán 	7	Santa Rita 	1	Enero	2023-01-22T00:00:00	2024-11-08T22:00:00	4	Temperatura máxima	15.8
72219	7	Sololá	704	Santa Lucía Utatlán 	7	Santa Rita 	1	Enero	2023-01-22T00:00:00	2024-11-08T22:00:00	3	Temperatura mínima	14.8
72220	7	Sololá	704	Santa Lucía Utatlán 	7	Santa Rita 	1	Enero	2023-01-22T00:00:00	2024-11-08T22:00:00	5	Humedad	86
72221	7	Sololá	704	Santa Lucía Utatlán 	7	Santa Rita 	1	Enero	2023-01-22T00:00:00	2024-11-08T22:00:00	6	Velocidad del viento	4.8
72222	7	Sololá	704	Santa Lucía Utatlán 	7	Santa Rita 	1	Enero	2023-01-22T00:00:00	2024-11-08T22:00:00	7	Dirección del viento	4.83
72223	7	Sololá	704	Santa Lucía Utatlán 	7	Santa Rita 	1	Enero	2023-01-22T00:00:00	2024-11-08T22:00:00	1	Precipitación	0
72224	7	Sololá	704	Santa Lucía Utatlán 	7	Santa Rita 	1	Enero	2023-01-22T00:00:00	2024-11-08T22:00:00	8	Radiación solar	0
72225	7	Sololá	704	Santa Lucía Utatlán 	7	Santa Rita 	1	Enero	2023-01-22T00:00:00	2024-11-08T23:00:00	2	Temperatura media	14.1
72226	7	Sololá	704	Santa Lucía Utatlán 	7	Santa Rita 	1	Enero	2023-01-22T00:00:00	2024-11-08T23:00:00	4	Temperatura máxima	14.8
72227	7	Sololá	704	Santa Lucía Utatlán 	7	Santa Rita 	1	Enero	2023-01-22T00:00:00	2024-11-08T23:00:00	3	Temperatura mínima	14.1
72228	7	Sololá	704	Santa Lucía Utatlán 	7	Santa Rita 	1	Enero	2023-01-22T00:00:00	2024-11-08T23:00:00	5	Humedad	88
72229	7	Sololá	704	Santa Lucía Utatlán 	7	Santa Rita 	1	Enero	2023-01-22T00:00:00	2024-11-08T23:00:00	6	Velocidad del viento	4.8
72230	7	Sololá	704	Santa Lucía Utatlán 	7	Santa Rita 	1	Enero	2023-01-22T00:00:00	2024-11-08T23:00:00	7	Dirección del viento	4.83
72231	7	Sololá	704	Santa Lucía Utatlán 	7	Santa Rita 	1	Enero	2023-01-22T00:00:00	2024-11-08T23:00:00	1	Precipitación	0
72232	7	Sololá	704	Santa Lucía Utatlán 	7	Santa Rita 	1	Enero	2023-01-22T00:00:00	2024-11-08T23:00:00	8	Radiación solar	0
72233	7	Sololá	704	Santa Lucía Utatlán 	7	Santa Rita 	1	Enero	2023-01-23T00:00:00	2024-11-08T00:00:00	2	Temperatura media	13.6
72234	7	Sololá	704	Santa Lucía Utatlán 	7	Santa Rita 	1	Enero	2023-01-23T00:00:00	2024-11-08T00:00:00	4	Temperatura máxima	14.1
72235	7	Sololá	704	Santa Lucía Utatlán 	7	Santa Rita 	1	Enero	2023-01-23T00:00:00	2024-11-08T00:00:00	3	Temperatura mínima	13.6
72236	7	Sololá	704	Santa Lucía Utatlán 	7	Santa Rita 	1	Enero	2023-01-23T00:00:00	2024-11-08T00:00:00	5	Humedad	85
72237	7	Sololá	704	Santa Lucía Utatlán 	7	Santa Rita 	1	Enero	2023-01-23T00:00:00	2024-11-08T00:00:00	6	Velocidad del viento	3.2
72238	7	Sololá	704	Santa Lucía Utatlán 	7	Santa Rita 	1	Enero	2023-01-23T00:00:00	2024-11-08T00:00:00	7	Dirección del viento	3.22
72239	7	Sololá	704	Santa Lucía Utatlán 	7	Santa Rita 	1	Enero	2023-01-23T00:00:00	2024-11-08T00:00:00	1	Precipitación	0
72240	7	Sololá	704	Santa Lucía Utatlán 	7	Santa Rita 	1	Enero	2023-01-23T00:00:00	2024-11-08T00:00:00	8	Radiación solar	0
72241	7	Sololá	704	Santa Lucía Utatlán 	7	Santa Rita 	1	Enero	2023-01-23T00:00:00	2024-11-08T01:00:00	2	Temperatura media	13.6
72242	7	Sololá	704	Santa Lucía Utatlán 	7	Santa Rita 	1	Enero	2023-01-23T00:00:00	2024-11-08T01:00:00	4	Temperatura máxima	14.3
72243	7	Sololá	704	Santa Lucía Utatlán 	7	Santa Rita 	1	Enero	2023-01-23T00:00:00	2024-11-08T01:00:00	3	Temperatura mínima	13.4
72244	7	Sololá	704	Santa Lucía Utatlán 	7	Santa Rita 	1	Enero	2023-01-23T00:00:00	2024-11-08T01:00:00	5	Humedad	83
72245	7	Sololá	704	Santa Lucía Utatlán 	7	Santa Rita 	1	Enero	2023-01-23T00:00:00	2024-11-08T01:00:00	6	Velocidad del viento	3.2
72246	7	Sololá	704	Santa Lucía Utatlán 	7	Santa Rita 	1	Enero	2023-01-23T00:00:00	2024-11-08T01:00:00	7	Dirección del viento	3.22
72247	7	Sololá	704	Santa Lucía Utatlán 	7	Santa Rita 	1	Enero	2023-01-23T00:00:00	2024-11-08T01:00:00	1	Precipitación	0
72248	7	Sololá	704	Santa Lucía Utatlán 	7	Santa Rita 	1	Enero	2023-01-23T00:00:00	2024-11-08T01:00:00	8	Radiación solar	0
72249	7	Sololá	704	Santa Lucía Utatlán 	7	Santa Rita 	1	Enero	2023-01-23T00:00:00	2024-11-08T02:00:00	2	Temperatura media	13.2
72250	7	Sololá	704	Santa Lucía Utatlán 	7	Santa Rita 	1	Enero	2023-01-23T00:00:00	2024-11-08T02:00:00	4	Temperatura máxima	13.8
72251	7	Sololá	704	Santa Lucía Utatlán 	7	Santa Rita 	1	Enero	2023-01-23T00:00:00	2024-11-08T02:00:00	3	Temperatura mínima	13
72252	7	Sololá	704	Santa Lucía Utatlán 	7	Santa Rita 	1	Enero	2023-01-23T00:00:00	2024-11-08T02:00:00	5	Humedad	81
72253	7	Sololá	704	Santa Lucía Utatlán 	7	Santa Rita 	1	Enero	2023-01-23T00:00:00	2024-11-08T02:00:00	6	Velocidad del viento	1.6
72254	7	Sololá	704	Santa Lucía Utatlán 	7	Santa Rita 	1	Enero	2023-01-23T00:00:00	2024-11-08T02:00:00	7	Dirección del viento	1.61
72255	7	Sololá	704	Santa Lucía Utatlán 	7	Santa Rita 	1	Enero	2023-01-23T00:00:00	2024-11-08T02:00:00	1	Precipitación	0
72256	7	Sololá	704	Santa Lucía Utatlán 	7	Santa Rita 	1	Enero	2023-01-23T00:00:00	2024-11-08T02:00:00	8	Radiación solar	0
72257	7	Sololá	704	Santa Lucía Utatlán 	7	Santa Rita 	1	Enero	2023-01-23T00:00:00	2024-11-08T03:00:00	2	Temperatura media	15.2
72258	7	Sololá	704	Santa Lucía Utatlán 	7	Santa Rita 	1	Enero	2023-01-23T00:00:00	2024-11-08T03:00:00	4	Temperatura máxima	15.2
72259	7	Sololá	704	Santa Lucía Utatlán 	7	Santa Rita 	1	Enero	2023-01-23T00:00:00	2024-11-08T03:00:00	3	Temperatura mínima	13.2
72260	7	Sololá	704	Santa Lucía Utatlán 	7	Santa Rita 	1	Enero	2023-01-23T00:00:00	2024-11-08T03:00:00	5	Humedad	70
72261	7	Sololá	704	Santa Lucía Utatlán 	7	Santa Rita 	1	Enero	2023-01-23T00:00:00	2024-11-08T03:00:00	6	Velocidad del viento	1.6
72262	7	Sololá	704	Santa Lucía Utatlán 	7	Santa Rita 	1	Enero	2023-01-23T00:00:00	2024-11-08T03:00:00	7	Dirección del viento	1.61
72263	7	Sololá	704	Santa Lucía Utatlán 	7	Santa Rita 	1	Enero	2023-01-23T00:00:00	2024-11-08T03:00:00	1	Precipitación	0
72264	7	Sololá	704	Santa Lucía Utatlán 	7	Santa Rita 	1	Enero	2023-01-23T00:00:00	2024-11-08T03:00:00	8	Radiación solar	0
72265	7	Sololá	704	Santa Lucía Utatlán 	7	Santa Rita 	1	Enero	2023-01-23T00:00:00	2024-11-08T04:00:00	2	Temperatura media	13.3
72266	7	Sololá	704	Santa Lucía Utatlán 	7	Santa Rita 	1	Enero	2023-01-23T00:00:00	2024-11-08T04:00:00	4	Temperatura máxima	15.9
72267	7	Sololá	704	Santa Lucía Utatlán 	7	Santa Rita 	1	Enero	2023-01-23T00:00:00	2024-11-08T04:00:00	3	Temperatura mínima	13.2
72268	7	Sololá	704	Santa Lucía Utatlán 	7	Santa Rita 	1	Enero	2023-01-23T00:00:00	2024-11-08T04:00:00	5	Humedad	76
72269	7	Sololá	704	Santa Lucía Utatlán 	7	Santa Rita 	1	Enero	2023-01-23T00:00:00	2024-11-08T04:00:00	6	Velocidad del viento	1.6
72270	7	Sololá	704	Santa Lucía Utatlán 	7	Santa Rita 	1	Enero	2023-01-23T00:00:00	2024-11-08T04:00:00	7	Dirección del viento	1.61
72271	7	Sololá	704	Santa Lucía Utatlán 	7	Santa Rita 	1	Enero	2023-01-23T00:00:00	2024-11-08T04:00:00	1	Precipitación	0
72272	7	Sololá	704	Santa Lucía Utatlán 	7	Santa Rita 	1	Enero	2023-01-23T00:00:00	2024-11-08T04:00:00	8	Radiación solar	0
72273	7	Sololá	704	Santa Lucía Utatlán 	7	Santa Rita 	1	Enero	2023-01-23T00:00:00	2024-11-08T05:00:00	2	Temperatura media	13.9
72274	7	Sololá	704	Santa Lucía Utatlán 	7	Santa Rita 	1	Enero	2023-01-23T00:00:00	2024-11-08T05:00:00	4	Temperatura máxima	15.7
72275	7	Sololá	704	Santa Lucía Utatlán 	7	Santa Rita 	1	Enero	2023-01-23T00:00:00	2024-11-08T05:00:00	3	Temperatura mínima	13.1
72276	7	Sololá	704	Santa Lucía Utatlán 	7	Santa Rita 	1	Enero	2023-01-23T00:00:00	2024-11-08T05:00:00	5	Humedad	71
72277	7	Sololá	704	Santa Lucía Utatlán 	7	Santa Rita 	1	Enero	2023-01-23T00:00:00	2024-11-08T05:00:00	6	Velocidad del viento	1.6
72278	7	Sololá	704	Santa Lucía Utatlán 	7	Santa Rita 	1	Enero	2023-01-23T00:00:00	2024-11-08T05:00:00	7	Dirección del viento	1.61
72279	7	Sololá	704	Santa Lucía Utatlán 	7	Santa Rita 	1	Enero	2023-01-23T00:00:00	2024-11-08T05:00:00	1	Precipitación	0
72280	7	Sololá	704	Santa Lucía Utatlán 	7	Santa Rita 	1	Enero	2023-01-23T00:00:00	2024-11-08T05:00:00	8	Radiación solar	0
72281	7	Sololá	704	Santa Lucía Utatlán 	7	Santa Rita 	1	Enero	2023-01-23T00:00:00	2024-11-08T06:00:00	2	Temperatura media	16
72282	7	Sololá	704	Santa Lucía Utatlán 	7	Santa Rita 	1	Enero	2023-01-23T00:00:00	2024-11-08T06:00:00	4	Temperatura máxima	16
72283	7	Sololá	704	Santa Lucía Utatlán 	7	Santa Rita 	1	Enero	2023-01-23T00:00:00	2024-11-08T06:00:00	3	Temperatura mínima	13.8
72284	7	Sololá	704	Santa Lucía Utatlán 	7	Santa Rita 	1	Enero	2023-01-23T00:00:00	2024-11-08T06:00:00	5	Humedad	65
72285	7	Sololá	704	Santa Lucía Utatlán 	7	Santa Rita 	1	Enero	2023-01-23T00:00:00	2024-11-08T06:00:00	6	Velocidad del viento	3.2
72286	7	Sololá	704	Santa Lucía Utatlán 	7	Santa Rita 	1	Enero	2023-01-23T00:00:00	2024-11-08T06:00:00	7	Dirección del viento	3.22
72287	7	Sololá	704	Santa Lucía Utatlán 	7	Santa Rita 	1	Enero	2023-01-23T00:00:00	2024-11-08T06:00:00	1	Precipitación	0
72288	7	Sololá	704	Santa Lucía Utatlán 	7	Santa Rita 	1	Enero	2023-01-23T00:00:00	2024-11-08T06:00:00	8	Radiación solar	0
72289	7	Sololá	704	Santa Lucía Utatlán 	7	Santa Rita 	1	Enero	2023-01-23T00:00:00	2024-11-08T07:00:00	2	Temperatura media	16.8
72290	7	Sololá	704	Santa Lucía Utatlán 	7	Santa Rita 	1	Enero	2023-01-23T00:00:00	2024-11-08T07:00:00	4	Temperatura máxima	16.8
72291	7	Sololá	704	Santa Lucía Utatlán 	7	Santa Rita 	1	Enero	2023-01-23T00:00:00	2024-11-08T07:00:00	3	Temperatura mínima	15.4
72292	7	Sololá	704	Santa Lucía Utatlán 	7	Santa Rita 	1	Enero	2023-01-23T00:00:00	2024-11-08T07:00:00	5	Humedad	61
72293	7	Sololá	704	Santa Lucía Utatlán 	7	Santa Rita 	1	Enero	2023-01-23T00:00:00	2024-11-08T07:00:00	6	Velocidad del viento	4.8
72294	7	Sololá	704	Santa Lucía Utatlán 	7	Santa Rita 	1	Enero	2023-01-23T00:00:00	2024-11-08T07:00:00	7	Dirección del viento	4.83
72295	7	Sololá	704	Santa Lucía Utatlán 	7	Santa Rita 	1	Enero	2023-01-23T00:00:00	2024-11-08T07:00:00	1	Precipitación	0
72296	7	Sololá	704	Santa Lucía Utatlán 	7	Santa Rita 	1	Enero	2023-01-23T00:00:00	2024-11-08T07:00:00	8	Radiación solar	5
72297	7	Sololá	704	Santa Lucía Utatlán 	7	Santa Rita 	1	Enero	2023-01-23T00:00:00	2024-11-08T08:00:00	2	Temperatura media	19.3
72298	7	Sololá	704	Santa Lucía Utatlán 	7	Santa Rita 	1	Enero	2023-01-23T00:00:00	2024-11-08T08:00:00	4	Temperatura máxima	19.3
72299	7	Sololá	704	Santa Lucía Utatlán 	7	Santa Rita 	1	Enero	2023-01-23T00:00:00	2024-11-08T08:00:00	3	Temperatura mínima	16.8
72300	7	Sololá	704	Santa Lucía Utatlán 	7	Santa Rita 	1	Enero	2023-01-23T00:00:00	2024-11-08T08:00:00	5	Humedad	49
72301	7	Sololá	704	Santa Lucía Utatlán 	7	Santa Rita 	1	Enero	2023-01-23T00:00:00	2024-11-08T08:00:00	6	Velocidad del viento	6.4
72302	7	Sololá	704	Santa Lucía Utatlán 	7	Santa Rita 	1	Enero	2023-01-23T00:00:00	2024-11-08T08:00:00	7	Dirección del viento	6.44
72303	7	Sololá	704	Santa Lucía Utatlán 	7	Santa Rita 	1	Enero	2023-01-23T00:00:00	2024-11-08T08:00:00	1	Precipitación	0
72304	7	Sololá	704	Santa Lucía Utatlán 	7	Santa Rita 	1	Enero	2023-01-23T00:00:00	2024-11-08T08:00:00	8	Radiación solar	133
72305	7	Sololá	704	Santa Lucía Utatlán 	7	Santa Rita 	1	Enero	2023-01-23T00:00:00	2024-11-08T09:00:00	2	Temperatura media	20.9
72306	7	Sololá	704	Santa Lucía Utatlán 	7	Santa Rita 	1	Enero	2023-01-23T00:00:00	2024-11-08T09:00:00	4	Temperatura máxima	21
72307	7	Sololá	704	Santa Lucía Utatlán 	7	Santa Rita 	1	Enero	2023-01-23T00:00:00	2024-11-08T09:00:00	3	Temperatura mínima	19.1
72308	7	Sololá	704	Santa Lucía Utatlán 	7	Santa Rita 	1	Enero	2023-01-23T00:00:00	2024-11-08T09:00:00	5	Humedad	47
72309	7	Sololá	704	Santa Lucía Utatlán 	7	Santa Rita 	1	Enero	2023-01-23T00:00:00	2024-11-08T09:00:00	6	Velocidad del viento	4.8
72310	7	Sololá	704	Santa Lucía Utatlán 	7	Santa Rita 	1	Enero	2023-01-23T00:00:00	2024-11-08T09:00:00	7	Dirección del viento	4.83
72311	7	Sololá	704	Santa Lucía Utatlán 	7	Santa Rita 	1	Enero	2023-01-23T00:00:00	2024-11-08T09:00:00	1	Precipitación	0
72312	7	Sololá	704	Santa Lucía Utatlán 	7	Santa Rita 	1	Enero	2023-01-23T00:00:00	2024-11-08T09:00:00	8	Radiación solar	377
72313	7	Sololá	704	Santa Lucía Utatlán 	7	Santa Rita 	1	Enero	2023-01-23T00:00:00	2024-11-08T10:00:00	2	Temperatura media	22.6
72314	7	Sololá	704	Santa Lucía Utatlán 	7	Santa Rita 	1	Enero	2023-01-23T00:00:00	2024-11-08T10:00:00	4	Temperatura máxima	22.6
72315	7	Sololá	704	Santa Lucía Utatlán 	7	Santa Rita 	1	Enero	2023-01-23T00:00:00	2024-11-08T10:00:00	3	Temperatura mínima	20.8
72316	7	Sololá	704	Santa Lucía Utatlán 	7	Santa Rita 	1	Enero	2023-01-23T00:00:00	2024-11-08T10:00:00	5	Humedad	33
72317	7	Sololá	704	Santa Lucía Utatlán 	7	Santa Rita 	1	Enero	2023-01-23T00:00:00	2024-11-08T10:00:00	6	Velocidad del viento	8
72318	7	Sololá	704	Santa Lucía Utatlán 	7	Santa Rita 	1	Enero	2023-01-23T00:00:00	2024-11-08T10:00:00	7	Dirección del viento	8.05
72319	7	Sololá	704	Santa Lucía Utatlán 	7	Santa Rita 	1	Enero	2023-01-23T00:00:00	2024-11-08T10:00:00	1	Precipitación	0
72320	7	Sololá	704	Santa Lucía Utatlán 	7	Santa Rita 	1	Enero	2023-01-23T00:00:00	2024-11-08T10:00:00	8	Radiación solar	580
72321	7	Sololá	704	Santa Lucía Utatlán 	7	Santa Rita 	1	Enero	2023-01-23T00:00:00	2024-11-08T11:00:00	2	Temperatura media	23.4
72322	7	Sololá	704	Santa Lucía Utatlán 	7	Santa Rita 	1	Enero	2023-01-23T00:00:00	2024-11-08T11:00:00	4	Temperatura máxima	23.7
72323	7	Sololá	704	Santa Lucía Utatlán 	7	Santa Rita 	1	Enero	2023-01-23T00:00:00	2024-11-08T11:00:00	3	Temperatura mínima	22.3
72324	7	Sololá	704	Santa Lucía Utatlán 	7	Santa Rita 	1	Enero	2023-01-23T00:00:00	2024-11-08T11:00:00	5	Humedad	31
72325	7	Sololá	704	Santa Lucía Utatlán 	7	Santa Rita 	1	Enero	2023-01-23T00:00:00	2024-11-08T11:00:00	6	Velocidad del viento	9.7
72326	7	Sololá	704	Santa Lucía Utatlán 	7	Santa Rita 	1	Enero	2023-01-23T00:00:00	2024-11-08T11:00:00	7	Dirección del viento	9.66
72327	7	Sololá	704	Santa Lucía Utatlán 	7	Santa Rita 	1	Enero	2023-01-23T00:00:00	2024-11-08T11:00:00	1	Precipitación	0
72328	7	Sololá	704	Santa Lucía Utatlán 	7	Santa Rita 	1	Enero	2023-01-23T00:00:00	2024-11-08T11:00:00	8	Radiación solar	733
72329	7	Sololá	704	Santa Lucía Utatlán 	7	Santa Rita 	1	Enero	2023-01-23T00:00:00	2024-11-08T12:00:00	2	Temperatura media	22.8
72330	7	Sololá	704	Santa Lucía Utatlán 	7	Santa Rita 	1	Enero	2023-01-23T00:00:00	2024-11-08T12:00:00	4	Temperatura máxima	23.9
72331	7	Sololá	704	Santa Lucía Utatlán 	7	Santa Rita 	1	Enero	2023-01-23T00:00:00	2024-11-08T12:00:00	3	Temperatura mínima	22.6
72332	7	Sololá	704	Santa Lucía Utatlán 	7	Santa Rita 	1	Enero	2023-01-23T00:00:00	2024-11-08T12:00:00	5	Humedad	37
72333	7	Sololá	704	Santa Lucía Utatlán 	7	Santa Rita 	1	Enero	2023-01-23T00:00:00	2024-11-08T12:00:00	6	Velocidad del viento	9.7
72334	7	Sololá	704	Santa Lucía Utatlán 	7	Santa Rita 	1	Enero	2023-01-23T00:00:00	2024-11-08T12:00:00	7	Dirección del viento	9.66
72335	7	Sololá	704	Santa Lucía Utatlán 	7	Santa Rita 	1	Enero	2023-01-23T00:00:00	2024-11-08T12:00:00	1	Precipitación	0
72336	7	Sololá	704	Santa Lucía Utatlán 	7	Santa Rita 	1	Enero	2023-01-23T00:00:00	2024-11-08T12:00:00	8	Radiación solar	815
72337	7	Sololá	704	Santa Lucía Utatlán 	7	Santa Rita 	1	Enero	2023-01-23T00:00:00	2024-11-08T13:00:00	2	Temperatura media	23.2
72338	7	Sololá	704	Santa Lucía Utatlán 	7	Santa Rita 	1	Enero	2023-01-23T00:00:00	2024-11-08T13:00:00	4	Temperatura máxima	23.4
72339	7	Sololá	704	Santa Lucía Utatlán 	7	Santa Rita 	1	Enero	2023-01-23T00:00:00	2024-11-08T13:00:00	3	Temperatura mínima	22.6
72340	7	Sololá	704	Santa Lucía Utatlán 	7	Santa Rita 	1	Enero	2023-01-23T00:00:00	2024-11-08T13:00:00	5	Humedad	41
72341	7	Sololá	704	Santa Lucía Utatlán 	7	Santa Rita 	1	Enero	2023-01-23T00:00:00	2024-11-08T13:00:00	6	Velocidad del viento	12.9
72342	7	Sololá	704	Santa Lucía Utatlán 	7	Santa Rita 	1	Enero	2023-01-23T00:00:00	2024-11-08T13:00:00	7	Dirección del viento	12.87
72343	7	Sololá	704	Santa Lucía Utatlán 	7	Santa Rita 	1	Enero	2023-01-23T00:00:00	2024-11-08T13:00:00	1	Precipitación	0
72344	7	Sololá	704	Santa Lucía Utatlán 	7	Santa Rita 	1	Enero	2023-01-23T00:00:00	2024-11-08T13:00:00	8	Radiación solar	836
72345	7	Sololá	704	Santa Lucía Utatlán 	7	Santa Rita 	1	Enero	2023-01-23T00:00:00	2024-11-08T14:00:00	2	Temperatura media	23.6
72346	7	Sololá	704	Santa Lucía Utatlán 	7	Santa Rita 	1	Enero	2023-01-23T00:00:00	2024-11-08T14:00:00	4	Temperatura máxima	23.8
72347	7	Sololá	704	Santa Lucía Utatlán 	7	Santa Rita 	1	Enero	2023-01-23T00:00:00	2024-11-08T14:00:00	3	Temperatura mínima	23.1
72348	7	Sololá	704	Santa Lucía Utatlán 	7	Santa Rita 	1	Enero	2023-01-23T00:00:00	2024-11-08T14:00:00	5	Humedad	44
72349	7	Sololá	704	Santa Lucía Utatlán 	7	Santa Rita 	1	Enero	2023-01-23T00:00:00	2024-11-08T14:00:00	6	Velocidad del viento	11.3
72350	7	Sololá	704	Santa Lucía Utatlán 	7	Santa Rita 	1	Enero	2023-01-23T00:00:00	2024-11-08T14:00:00	7	Dirección del viento	11.27
72351	7	Sololá	704	Santa Lucía Utatlán 	7	Santa Rita 	1	Enero	2023-01-23T00:00:00	2024-11-08T14:00:00	1	Precipitación	0
72352	7	Sololá	704	Santa Lucía Utatlán 	7	Santa Rita 	1	Enero	2023-01-23T00:00:00	2024-11-08T14:00:00	8	Radiación solar	798
72353	7	Sololá	704	Santa Lucía Utatlán 	7	Santa Rita 	1	Enero	2023-01-23T00:00:00	2024-11-08T15:00:00	2	Temperatura media	22.2
72354	7	Sololá	704	Santa Lucía Utatlán 	7	Santa Rita 	1	Enero	2023-01-23T00:00:00	2024-11-08T15:00:00	4	Temperatura máxima	23.7
72355	7	Sololá	704	Santa Lucía Utatlán 	7	Santa Rita 	1	Enero	2023-01-23T00:00:00	2024-11-08T15:00:00	3	Temperatura mínima	22.1
72356	7	Sololá	704	Santa Lucía Utatlán 	7	Santa Rita 	1	Enero	2023-01-23T00:00:00	2024-11-08T15:00:00	5	Humedad	47
72357	7	Sololá	704	Santa Lucía Utatlán 	7	Santa Rita 	1	Enero	2023-01-23T00:00:00	2024-11-08T15:00:00	6	Velocidad del viento	14.5
72358	7	Sololá	704	Santa Lucía Utatlán 	7	Santa Rita 	1	Enero	2023-01-23T00:00:00	2024-11-08T15:00:00	7	Dirección del viento	14.48
72359	7	Sololá	704	Santa Lucía Utatlán 	7	Santa Rita 	1	Enero	2023-01-23T00:00:00	2024-11-08T15:00:00	1	Precipitación	0
72360	7	Sololá	704	Santa Lucía Utatlán 	7	Santa Rita 	1	Enero	2023-01-23T00:00:00	2024-11-08T15:00:00	8	Radiación solar	629
72361	7	Sololá	704	Santa Lucía Utatlán 	7	Santa Rita 	1	Enero	2023-01-23T00:00:00	2024-11-08T16:00:00	2	Temperatura media	22.9
72362	7	Sololá	704	Santa Lucía Utatlán 	7	Santa Rita 	1	Enero	2023-01-23T00:00:00	2024-11-08T16:00:00	4	Temperatura máxima	23.1
72363	7	Sololá	704	Santa Lucía Utatlán 	7	Santa Rita 	1	Enero	2023-01-23T00:00:00	2024-11-08T16:00:00	3	Temperatura mínima	22.1
72364	7	Sololá	704	Santa Lucía Utatlán 	7	Santa Rita 	1	Enero	2023-01-23T00:00:00	2024-11-08T16:00:00	5	Humedad	44
72365	7	Sololá	704	Santa Lucía Utatlán 	7	Santa Rita 	1	Enero	2023-01-23T00:00:00	2024-11-08T16:00:00	6	Velocidad del viento	8
72366	7	Sololá	704	Santa Lucía Utatlán 	7	Santa Rita 	1	Enero	2023-01-23T00:00:00	2024-11-08T16:00:00	7	Dirección del viento	8.05
72367	7	Sololá	704	Santa Lucía Utatlán 	7	Santa Rita 	1	Enero	2023-01-23T00:00:00	2024-11-08T16:00:00	1	Precipitación	0
72368	7	Sololá	704	Santa Lucía Utatlán 	7	Santa Rita 	1	Enero	2023-01-23T00:00:00	2024-11-08T16:00:00	8	Radiación solar	391
72369	7	Sololá	704	Santa Lucía Utatlán 	7	Santa Rita 	1	Enero	2023-01-23T00:00:00	2024-11-08T17:00:00	2	Temperatura media	21.8
72370	7	Sololá	704	Santa Lucía Utatlán 	7	Santa Rita 	1	Enero	2023-01-23T00:00:00	2024-11-08T17:00:00	4	Temperatura máxima	23
72371	7	Sololá	704	Santa Lucía Utatlán 	7	Santa Rita 	1	Enero	2023-01-23T00:00:00	2024-11-08T17:00:00	3	Temperatura mínima	21.8
72372	7	Sololá	704	Santa Lucía Utatlán 	7	Santa Rita 	1	Enero	2023-01-23T00:00:00	2024-11-08T17:00:00	5	Humedad	52
72373	7	Sololá	704	Santa Lucía Utatlán 	7	Santa Rita 	1	Enero	2023-01-23T00:00:00	2024-11-08T17:00:00	6	Velocidad del viento	8
72374	7	Sololá	704	Santa Lucía Utatlán 	7	Santa Rita 	1	Enero	2023-01-23T00:00:00	2024-11-08T17:00:00	7	Dirección del viento	8.05
72375	7	Sololá	704	Santa Lucía Utatlán 	7	Santa Rita 	1	Enero	2023-01-23T00:00:00	2024-11-08T17:00:00	1	Precipitación	0
72376	7	Sololá	704	Santa Lucía Utatlán 	7	Santa Rita 	1	Enero	2023-01-23T00:00:00	2024-11-08T17:00:00	8	Radiación solar	212
72377	7	Sololá	704	Santa Lucía Utatlán 	7	Santa Rita 	1	Enero	2023-01-23T00:00:00	2024-11-08T18:00:00	2	Temperatura media	19.6
72378	7	Sololá	704	Santa Lucía Utatlán 	7	Santa Rita 	1	Enero	2023-01-23T00:00:00	2024-11-08T18:00:00	4	Temperatura máxima	21.8
72379	7	Sololá	704	Santa Lucía Utatlán 	7	Santa Rita 	1	Enero	2023-01-23T00:00:00	2024-11-08T18:00:00	3	Temperatura mínima	19.6
72380	7	Sololá	704	Santa Lucía Utatlán 	7	Santa Rita 	1	Enero	2023-01-23T00:00:00	2024-11-08T18:00:00	5	Humedad	63
72381	7	Sololá	704	Santa Lucía Utatlán 	7	Santa Rita 	1	Enero	2023-01-23T00:00:00	2024-11-08T18:00:00	6	Velocidad del viento	4.8
72382	7	Sololá	704	Santa Lucía Utatlán 	7	Santa Rita 	1	Enero	2023-01-23T00:00:00	2024-11-08T18:00:00	7	Dirección del viento	4.83
72383	7	Sololá	704	Santa Lucía Utatlán 	7	Santa Rita 	1	Enero	2023-01-23T00:00:00	2024-11-08T18:00:00	1	Precipitación	0
72384	7	Sololá	704	Santa Lucía Utatlán 	7	Santa Rita 	1	Enero	2023-01-23T00:00:00	2024-11-08T18:00:00	8	Radiación solar	24
72385	7	Sololá	704	Santa Lucía Utatlán 	7	Santa Rita 	1	Enero	2023-01-23T00:00:00	2024-11-08T19:00:00	2	Temperatura media	17.2
72386	7	Sololá	704	Santa Lucía Utatlán 	7	Santa Rita 	1	Enero	2023-01-23T00:00:00	2024-11-08T19:00:00	4	Temperatura máxima	19.6
72387	7	Sololá	704	Santa Lucía Utatlán 	7	Santa Rita 	1	Enero	2023-01-23T00:00:00	2024-11-08T19:00:00	3	Temperatura mínima	17.2
72388	7	Sololá	704	Santa Lucía Utatlán 	7	Santa Rita 	1	Enero	2023-01-23T00:00:00	2024-11-08T19:00:00	5	Humedad	73
72389	7	Sololá	704	Santa Lucía Utatlán 	7	Santa Rita 	1	Enero	2023-01-23T00:00:00	2024-11-08T19:00:00	6	Velocidad del viento	1.6
72390	7	Sololá	704	Santa Lucía Utatlán 	7	Santa Rita 	1	Enero	2023-01-23T00:00:00	2024-11-08T19:00:00	7	Dirección del viento	1.61
72391	7	Sololá	704	Santa Lucía Utatlán 	7	Santa Rita 	1	Enero	2023-01-23T00:00:00	2024-11-08T19:00:00	1	Precipitación	0
72392	7	Sololá	704	Santa Lucía Utatlán 	7	Santa Rita 	1	Enero	2023-01-23T00:00:00	2024-11-08T19:00:00	8	Radiación solar	0
72393	7	Sololá	704	Santa Lucía Utatlán 	7	Santa Rita 	1	Enero	2023-01-23T00:00:00	2024-11-08T20:00:00	2	Temperatura media	16.4
72394	7	Sololá	704	Santa Lucía Utatlán 	7	Santa Rita 	1	Enero	2023-01-23T00:00:00	2024-11-08T20:00:00	4	Temperatura máxima	17.7
72395	7	Sololá	704	Santa Lucía Utatlán 	7	Santa Rita 	1	Enero	2023-01-23T00:00:00	2024-11-08T20:00:00	3	Temperatura mínima	16.4
72396	7	Sololá	704	Santa Lucía Utatlán 	7	Santa Rita 	1	Enero	2023-01-23T00:00:00	2024-11-08T20:00:00	5	Humedad	72
72397	7	Sololá	704	Santa Lucía Utatlán 	7	Santa Rita 	1	Enero	2023-01-23T00:00:00	2024-11-08T20:00:00	6	Velocidad del viento	3.2
72398	7	Sololá	704	Santa Lucía Utatlán 	7	Santa Rita 	1	Enero	2023-01-23T00:00:00	2024-11-08T20:00:00	7	Dirección del viento	3.22
72399	7	Sololá	704	Santa Lucía Utatlán 	7	Santa Rita 	1	Enero	2023-01-23T00:00:00	2024-11-08T20:00:00	1	Precipitación	0
72400	7	Sololá	704	Santa Lucía Utatlán 	7	Santa Rita 	1	Enero	2023-01-23T00:00:00	2024-11-08T20:00:00	8	Radiación solar	0
72401	7	Sololá	704	Santa Lucía Utatlán 	7	Santa Rita 	1	Enero	2023-01-23T00:00:00	2024-11-08T21:00:00	2	Temperatura media	15.2
72402	7	Sololá	704	Santa Lucía Utatlán 	7	Santa Rita 	1	Enero	2023-01-23T00:00:00	2024-11-08T21:00:00	4	Temperatura máxima	16.4
72403	7	Sololá	704	Santa Lucía Utatlán 	7	Santa Rita 	1	Enero	2023-01-23T00:00:00	2024-11-08T21:00:00	3	Temperatura mínima	14.7
72404	7	Sololá	704	Santa Lucía Utatlán 	7	Santa Rita 	1	Enero	2023-01-23T00:00:00	2024-11-08T21:00:00	5	Humedad	73
72405	7	Sololá	704	Santa Lucía Utatlán 	7	Santa Rita 	1	Enero	2023-01-23T00:00:00	2024-11-08T21:00:00	6	Velocidad del viento	3.2
72406	7	Sololá	704	Santa Lucía Utatlán 	7	Santa Rita 	1	Enero	2023-01-23T00:00:00	2024-11-08T21:00:00	7	Dirección del viento	3.22
72407	7	Sololá	704	Santa Lucía Utatlán 	7	Santa Rita 	1	Enero	2023-01-23T00:00:00	2024-11-08T21:00:00	1	Precipitación	0
72408	7	Sololá	704	Santa Lucía Utatlán 	7	Santa Rita 	1	Enero	2023-01-23T00:00:00	2024-11-08T21:00:00	8	Radiación solar	0
72409	7	Sololá	704	Santa Lucía Utatlán 	7	Santa Rita 	1	Enero	2023-01-23T00:00:00	2024-11-08T22:00:00	2	Temperatura media	16.4
72410	7	Sololá	704	Santa Lucía Utatlán 	7	Santa Rita 	1	Enero	2023-01-23T00:00:00	2024-11-08T22:00:00	4	Temperatura máxima	17.2
72411	7	Sololá	704	Santa Lucía Utatlán 	7	Santa Rita 	1	Enero	2023-01-23T00:00:00	2024-11-08T22:00:00	3	Temperatura mínima	15.2
72412	7	Sololá	704	Santa Lucía Utatlán 	7	Santa Rita 	1	Enero	2023-01-23T00:00:00	2024-11-08T22:00:00	5	Humedad	69
72413	7	Sololá	704	Santa Lucía Utatlán 	7	Santa Rita 	1	Enero	2023-01-23T00:00:00	2024-11-08T22:00:00	6	Velocidad del viento	3.2
72414	7	Sololá	704	Santa Lucía Utatlán 	7	Santa Rita 	1	Enero	2023-01-23T00:00:00	2024-11-08T22:00:00	7	Dirección del viento	3.22
72415	7	Sololá	704	Santa Lucía Utatlán 	7	Santa Rita 	1	Enero	2023-01-23T00:00:00	2024-11-08T22:00:00	1	Precipitación	0
72416	7	Sololá	704	Santa Lucía Utatlán 	7	Santa Rita 	1	Enero	2023-01-23T00:00:00	2024-11-08T22:00:00	8	Radiación solar	0
72417	7	Sololá	704	Santa Lucía Utatlán 	7	Santa Rita 	1	Enero	2023-01-23T00:00:00	2024-11-08T23:00:00	2	Temperatura media	15.3
72418	7	Sololá	704	Santa Lucía Utatlán 	7	Santa Rita 	1	Enero	2023-01-23T00:00:00	2024-11-08T23:00:00	4	Temperatura máxima	16.6
72419	7	Sololá	704	Santa Lucía Utatlán 	7	Santa Rita 	1	Enero	2023-01-23T00:00:00	2024-11-08T23:00:00	3	Temperatura mínima	14.9
72420	7	Sololá	704	Santa Lucía Utatlán 	7	Santa Rita 	1	Enero	2023-01-23T00:00:00	2024-11-08T23:00:00	5	Humedad	73
72421	7	Sololá	704	Santa Lucía Utatlán 	7	Santa Rita 	1	Enero	2023-01-23T00:00:00	2024-11-08T23:00:00	6	Velocidad del viento	1.6
72422	7	Sololá	704	Santa Lucía Utatlán 	7	Santa Rita 	1	Enero	2023-01-23T00:00:00	2024-11-08T23:00:00	7	Dirección del viento	1.61
72423	7	Sololá	704	Santa Lucía Utatlán 	7	Santa Rita 	1	Enero	2023-01-23T00:00:00	2024-11-08T23:00:00	1	Precipitación	0
72424	7	Sololá	704	Santa Lucía Utatlán 	7	Santa Rita 	1	Enero	2023-01-23T00:00:00	2024-11-08T23:00:00	8	Radiación solar	0
72425	7	Sololá	704	Santa Lucía Utatlán 	7	Santa Rita 	1	Enero	2023-01-24T00:00:00	2024-11-08T00:00:00	2	Temperatura media	16.2
72426	7	Sololá	704	Santa Lucía Utatlán 	7	Santa Rita 	1	Enero	2023-01-24T00:00:00	2024-11-08T00:00:00	4	Temperatura máxima	16.3
72427	7	Sololá	704	Santa Lucía Utatlán 	7	Santa Rita 	1	Enero	2023-01-24T00:00:00	2024-11-08T00:00:00	3	Temperatura mínima	15
72428	7	Sololá	704	Santa Lucía Utatlán 	7	Santa Rita 	1	Enero	2023-01-24T00:00:00	2024-11-08T00:00:00	5	Humedad	53
72429	7	Sololá	704	Santa Lucía Utatlán 	7	Santa Rita 	1	Enero	2023-01-24T00:00:00	2024-11-08T00:00:00	6	Velocidad del viento	3.2
72430	7	Sololá	704	Santa Lucía Utatlán 	7	Santa Rita 	1	Enero	2023-01-24T00:00:00	2024-11-08T00:00:00	7	Dirección del viento	3.22
72431	7	Sololá	704	Santa Lucía Utatlán 	7	Santa Rita 	1	Enero	2023-01-24T00:00:00	2024-11-08T00:00:00	1	Precipitación	0
72432	7	Sololá	704	Santa Lucía Utatlán 	7	Santa Rita 	1	Enero	2023-01-24T00:00:00	2024-11-08T00:00:00	8	Radiación solar	0
72433	7	Sololá	704	Santa Lucía Utatlán 	7	Santa Rita 	1	Enero	2023-01-24T00:00:00	2024-11-08T01:00:00	2	Temperatura media	16.4
72434	7	Sololá	704	Santa Lucía Utatlán 	7	Santa Rita 	1	Enero	2023-01-24T00:00:00	2024-11-08T01:00:00	4	Temperatura máxima	16.8
72435	7	Sololá	704	Santa Lucía Utatlán 	7	Santa Rita 	1	Enero	2023-01-24T00:00:00	2024-11-08T01:00:00	3	Temperatura mínima	16.2
72436	7	Sololá	704	Santa Lucía Utatlán 	7	Santa Rita 	1	Enero	2023-01-24T00:00:00	2024-11-08T01:00:00	5	Humedad	43
72437	7	Sololá	704	Santa Lucía Utatlán 	7	Santa Rita 	1	Enero	2023-01-24T00:00:00	2024-11-08T01:00:00	6	Velocidad del viento	3.2
72438	7	Sololá	704	Santa Lucía Utatlán 	7	Santa Rita 	1	Enero	2023-01-24T00:00:00	2024-11-08T01:00:00	7	Dirección del viento	3.22
72439	7	Sololá	704	Santa Lucía Utatlán 	7	Santa Rita 	1	Enero	2023-01-24T00:00:00	2024-11-08T01:00:00	1	Precipitación	0
72440	7	Sololá	704	Santa Lucía Utatlán 	7	Santa Rita 	1	Enero	2023-01-24T00:00:00	2024-11-08T01:00:00	8	Radiación solar	0
72441	7	Sololá	704	Santa Lucía Utatlán 	7	Santa Rita 	1	Enero	2023-01-24T00:00:00	2024-11-08T02:00:00	2	Temperatura media	14.1
72442	7	Sololá	704	Santa Lucía Utatlán 	7	Santa Rita 	1	Enero	2023-01-24T00:00:00	2024-11-08T02:00:00	4	Temperatura máxima	16.4
72443	7	Sololá	704	Santa Lucía Utatlán 	7	Santa Rita 	1	Enero	2023-01-24T00:00:00	2024-11-08T02:00:00	3	Temperatura mínima	14.1
72444	7	Sololá	704	Santa Lucía Utatlán 	7	Santa Rita 	1	Enero	2023-01-24T00:00:00	2024-11-08T02:00:00	5	Humedad	43
72445	7	Sololá	704	Santa Lucía Utatlán 	7	Santa Rita 	1	Enero	2023-01-24T00:00:00	2024-11-08T02:00:00	6	Velocidad del viento	3.2
72446	7	Sololá	704	Santa Lucía Utatlán 	7	Santa Rita 	1	Enero	2023-01-24T00:00:00	2024-11-08T02:00:00	7	Dirección del viento	3.22
72447	7	Sololá	704	Santa Lucía Utatlán 	7	Santa Rita 	1	Enero	2023-01-24T00:00:00	2024-11-08T02:00:00	1	Precipitación	0
72448	7	Sololá	704	Santa Lucía Utatlán 	7	Santa Rita 	1	Enero	2023-01-24T00:00:00	2024-11-08T02:00:00	8	Radiación solar	0
72449	7	Sololá	704	Santa Lucía Utatlán 	7	Santa Rita 	1	Enero	2023-01-24T00:00:00	2024-11-08T03:00:00	2	Temperatura media	13.6
72450	7	Sololá	704	Santa Lucía Utatlán 	7	Santa Rita 	1	Enero	2023-01-24T00:00:00	2024-11-08T03:00:00	4	Temperatura máxima	14.3
72451	7	Sololá	704	Santa Lucía Utatlán 	7	Santa Rita 	1	Enero	2023-01-24T00:00:00	2024-11-08T03:00:00	3	Temperatura mínima	13.6
72452	7	Sololá	704	Santa Lucía Utatlán 	7	Santa Rita 	1	Enero	2023-01-24T00:00:00	2024-11-08T03:00:00	5	Humedad	45
72453	7	Sololá	704	Santa Lucía Utatlán 	7	Santa Rita 	1	Enero	2023-01-24T00:00:00	2024-11-08T03:00:00	6	Velocidad del viento	3.2
72454	7	Sololá	704	Santa Lucía Utatlán 	7	Santa Rita 	1	Enero	2023-01-24T00:00:00	2024-11-08T03:00:00	7	Dirección del viento	3.22
72455	7	Sololá	704	Santa Lucía Utatlán 	7	Santa Rita 	1	Enero	2023-01-24T00:00:00	2024-11-08T03:00:00	1	Precipitación	0
72456	7	Sololá	704	Santa Lucía Utatlán 	7	Santa Rita 	1	Enero	2023-01-24T00:00:00	2024-11-08T03:00:00	8	Radiación solar	0
72457	7	Sololá	704	Santa Lucía Utatlán 	7	Santa Rita 	1	Enero	2023-01-24T00:00:00	2024-11-08T04:00:00	2	Temperatura media	13.5
72458	7	Sololá	704	Santa Lucía Utatlán 	7	Santa Rita 	1	Enero	2023-01-24T00:00:00	2024-11-08T04:00:00	4	Temperatura máxima	14
72459	7	Sololá	704	Santa Lucía Utatlán 	7	Santa Rita 	1	Enero	2023-01-24T00:00:00	2024-11-08T04:00:00	3	Temperatura mínima	13.4
72460	7	Sololá	704	Santa Lucía Utatlán 	7	Santa Rita 	1	Enero	2023-01-24T00:00:00	2024-11-08T04:00:00	5	Humedad	42
72461	7	Sololá	704	Santa Lucía Utatlán 	7	Santa Rita 	1	Enero	2023-01-24T00:00:00	2024-11-08T04:00:00	6	Velocidad del viento	4.8
72462	7	Sololá	704	Santa Lucía Utatlán 	7	Santa Rita 	1	Enero	2023-01-24T00:00:00	2024-11-08T04:00:00	7	Dirección del viento	4.83
72463	7	Sololá	704	Santa Lucía Utatlán 	7	Santa Rita 	1	Enero	2023-01-24T00:00:00	2024-11-08T04:00:00	1	Precipitación	0
72464	7	Sololá	704	Santa Lucía Utatlán 	7	Santa Rita 	1	Enero	2023-01-24T00:00:00	2024-11-08T04:00:00	8	Radiación solar	0
72465	7	Sololá	704	Santa Lucía Utatlán 	7	Santa Rita 	1	Enero	2023-01-24T00:00:00	2024-11-08T05:00:00	2	Temperatura media	14.9
72466	7	Sololá	704	Santa Lucía Utatlán 	7	Santa Rita 	1	Enero	2023-01-24T00:00:00	2024-11-08T05:00:00	4	Temperatura máxima	14.9
72467	7	Sololá	704	Santa Lucía Utatlán 	7	Santa Rita 	1	Enero	2023-01-24T00:00:00	2024-11-08T05:00:00	3	Temperatura mínima	13.3
72468	7	Sololá	704	Santa Lucía Utatlán 	7	Santa Rita 	1	Enero	2023-01-24T00:00:00	2024-11-08T05:00:00	5	Humedad	37
72469	7	Sololá	704	Santa Lucía Utatlán 	7	Santa Rita 	1	Enero	2023-01-24T00:00:00	2024-11-08T05:00:00	6	Velocidad del viento	3.2
72470	7	Sololá	704	Santa Lucía Utatlán 	7	Santa Rita 	1	Enero	2023-01-24T00:00:00	2024-11-08T05:00:00	7	Dirección del viento	3.22
72471	7	Sololá	704	Santa Lucía Utatlán 	7	Santa Rita 	1	Enero	2023-01-24T00:00:00	2024-11-08T05:00:00	1	Precipitación	0
72472	7	Sololá	704	Santa Lucía Utatlán 	7	Santa Rita 	1	Enero	2023-01-24T00:00:00	2024-11-08T05:00:00	8	Radiación solar	0
72473	7	Sololá	704	Santa Lucía Utatlán 	7	Santa Rita 	1	Enero	2023-01-24T00:00:00	2024-11-08T06:00:00	2	Temperatura media	16.7
72474	7	Sololá	704	Santa Lucía Utatlán 	7	Santa Rita 	1	Enero	2023-01-24T00:00:00	2024-11-08T06:00:00	4	Temperatura máxima	16.9
72475	7	Sololá	704	Santa Lucía Utatlán 	7	Santa Rita 	1	Enero	2023-01-24T00:00:00	2024-11-08T06:00:00	3	Temperatura mínima	14.9
72476	7	Sololá	704	Santa Lucía Utatlán 	7	Santa Rita 	1	Enero	2023-01-24T00:00:00	2024-11-08T06:00:00	5	Humedad	42
72477	7	Sololá	704	Santa Lucía Utatlán 	7	Santa Rita 	1	Enero	2023-01-24T00:00:00	2024-11-08T06:00:00	6	Velocidad del viento	4.8
72478	7	Sololá	704	Santa Lucía Utatlán 	7	Santa Rita 	1	Enero	2023-01-24T00:00:00	2024-11-08T06:00:00	7	Dirección del viento	4.83
72479	7	Sololá	704	Santa Lucía Utatlán 	7	Santa Rita 	1	Enero	2023-01-24T00:00:00	2024-11-08T06:00:00	1	Precipitación	0
72480	7	Sololá	704	Santa Lucía Utatlán 	7	Santa Rita 	1	Enero	2023-01-24T00:00:00	2024-11-08T06:00:00	8	Radiación solar	0
72481	7	Sololá	704	Santa Lucía Utatlán 	7	Santa Rita 	1	Enero	2023-01-24T00:00:00	2024-11-08T07:00:00	2	Temperatura media	14.8
72482	7	Sololá	704	Santa Lucía Utatlán 	7	Santa Rita 	1	Enero	2023-01-24T00:00:00	2024-11-08T07:00:00	4	Temperatura máxima	16.7
72483	7	Sololá	704	Santa Lucía Utatlán 	7	Santa Rita 	1	Enero	2023-01-24T00:00:00	2024-11-08T07:00:00	3	Temperatura mínima	14.4
72484	7	Sololá	704	Santa Lucía Utatlán 	7	Santa Rita 	1	Enero	2023-01-24T00:00:00	2024-11-08T07:00:00	5	Humedad	44
72485	7	Sololá	704	Santa Lucía Utatlán 	7	Santa Rita 	1	Enero	2023-01-24T00:00:00	2024-11-08T07:00:00	6	Velocidad del viento	3.2
72486	7	Sololá	704	Santa Lucía Utatlán 	7	Santa Rita 	1	Enero	2023-01-24T00:00:00	2024-11-08T07:00:00	7	Dirección del viento	3.22
72487	7	Sololá	704	Santa Lucía Utatlán 	7	Santa Rita 	1	Enero	2023-01-24T00:00:00	2024-11-08T07:00:00	1	Precipitación	0
72488	7	Sololá	704	Santa Lucía Utatlán 	7	Santa Rita 	1	Enero	2023-01-24T00:00:00	2024-11-08T07:00:00	8	Radiación solar	5
72489	7	Sololá	704	Santa Lucía Utatlán 	7	Santa Rita 	1	Enero	2023-01-24T00:00:00	2024-11-08T08:00:00	2	Temperatura media	19.2
72490	7	Sololá	704	Santa Lucía Utatlán 	7	Santa Rita 	1	Enero	2023-01-24T00:00:00	2024-11-08T08:00:00	4	Temperatura máxima	19.2
72491	7	Sololá	704	Santa Lucía Utatlán 	7	Santa Rita 	1	Enero	2023-01-24T00:00:00	2024-11-08T08:00:00	3	Temperatura mínima	14.9
72492	7	Sololá	704	Santa Lucía Utatlán 	7	Santa Rita 	1	Enero	2023-01-24T00:00:00	2024-11-08T08:00:00	5	Humedad	37
72493	7	Sololá	704	Santa Lucía Utatlán 	7	Santa Rita 	1	Enero	2023-01-24T00:00:00	2024-11-08T08:00:00	6	Velocidad del viento	1.6
72494	7	Sololá	704	Santa Lucía Utatlán 	7	Santa Rita 	1	Enero	2023-01-24T00:00:00	2024-11-08T08:00:00	7	Dirección del viento	1.61
72495	7	Sololá	704	Santa Lucía Utatlán 	7	Santa Rita 	1	Enero	2023-01-24T00:00:00	2024-11-08T08:00:00	1	Precipitación	0
72496	7	Sololá	704	Santa Lucía Utatlán 	7	Santa Rita 	1	Enero	2023-01-24T00:00:00	2024-11-08T08:00:00	8	Radiación solar	130
72497	7	Sololá	704	Santa Lucía Utatlán 	7	Santa Rita 	1	Enero	2023-01-24T00:00:00	2024-11-08T09:00:00	2	Temperatura media	21.6
72498	7	Sololá	704	Santa Lucía Utatlán 	7	Santa Rita 	1	Enero	2023-01-24T00:00:00	2024-11-08T09:00:00	4	Temperatura máxima	21.6
72499	7	Sololá	704	Santa Lucía Utatlán 	7	Santa Rita 	1	Enero	2023-01-24T00:00:00	2024-11-08T09:00:00	3	Temperatura mínima	19.2
72500	7	Sololá	704	Santa Lucía Utatlán 	7	Santa Rita 	1	Enero	2023-01-24T00:00:00	2024-11-08T09:00:00	5	Humedad	31
72501	7	Sololá	704	Santa Lucía Utatlán 	7	Santa Rita 	1	Enero	2023-01-24T00:00:00	2024-11-08T09:00:00	6	Velocidad del viento	4.8
72502	7	Sololá	704	Santa Lucía Utatlán 	7	Santa Rita 	1	Enero	2023-01-24T00:00:00	2024-11-08T09:00:00	7	Dirección del viento	4.83
72503	7	Sololá	704	Santa Lucía Utatlán 	7	Santa Rita 	1	Enero	2023-01-24T00:00:00	2024-11-08T09:00:00	1	Precipitación	0
72504	7	Sololá	704	Santa Lucía Utatlán 	7	Santa Rita 	1	Enero	2023-01-24T00:00:00	2024-11-08T09:00:00	8	Radiación solar	382
72505	7	Sololá	704	Santa Lucía Utatlán 	7	Santa Rita 	1	Enero	2023-01-24T00:00:00	2024-11-08T10:00:00	2	Temperatura media	23.6
72506	7	Sololá	704	Santa Lucía Utatlán 	7	Santa Rita 	1	Enero	2023-01-24T00:00:00	2024-11-08T10:00:00	4	Temperatura máxima	23.6
72507	7	Sololá	704	Santa Lucía Utatlán 	7	Santa Rita 	1	Enero	2023-01-24T00:00:00	2024-11-08T10:00:00	3	Temperatura mínima	21.6
72508	7	Sololá	704	Santa Lucía Utatlán 	7	Santa Rita 	1	Enero	2023-01-24T00:00:00	2024-11-08T10:00:00	5	Humedad	26
72509	7	Sololá	704	Santa Lucía Utatlán 	7	Santa Rita 	1	Enero	2023-01-24T00:00:00	2024-11-08T10:00:00	6	Velocidad del viento	6.4
72510	7	Sololá	704	Santa Lucía Utatlán 	7	Santa Rita 	1	Enero	2023-01-24T00:00:00	2024-11-08T10:00:00	7	Dirección del viento	6.44
72511	7	Sololá	704	Santa Lucía Utatlán 	7	Santa Rita 	1	Enero	2023-01-24T00:00:00	2024-11-08T10:00:00	1	Precipitación	0
72512	7	Sololá	704	Santa Lucía Utatlán 	7	Santa Rita 	1	Enero	2023-01-24T00:00:00	2024-11-08T10:00:00	8	Radiación solar	583
72513	7	Sololá	704	Santa Lucía Utatlán 	7	Santa Rita 	1	Enero	2023-01-24T00:00:00	2024-11-08T11:00:00	2	Temperatura media	24.4
72514	7	Sololá	704	Santa Lucía Utatlán 	7	Santa Rita 	1	Enero	2023-01-24T00:00:00	2024-11-08T11:00:00	4	Temperatura máxima	24.6
72515	7	Sololá	704	Santa Lucía Utatlán 	7	Santa Rita 	1	Enero	2023-01-24T00:00:00	2024-11-08T11:00:00	3	Temperatura mínima	23.5
72516	7	Sololá	704	Santa Lucía Utatlán 	7	Santa Rita 	1	Enero	2023-01-24T00:00:00	2024-11-08T11:00:00	5	Humedad	21
72517	7	Sololá	704	Santa Lucía Utatlán 	7	Santa Rita 	1	Enero	2023-01-24T00:00:00	2024-11-08T11:00:00	6	Velocidad del viento	6.4
72518	7	Sololá	704	Santa Lucía Utatlán 	7	Santa Rita 	1	Enero	2023-01-24T00:00:00	2024-11-08T11:00:00	7	Dirección del viento	6.44
72519	7	Sololá	704	Santa Lucía Utatlán 	7	Santa Rita 	1	Enero	2023-01-24T00:00:00	2024-11-08T11:00:00	1	Precipitación	0
72520	7	Sololá	704	Santa Lucía Utatlán 	7	Santa Rita 	1	Enero	2023-01-24T00:00:00	2024-11-08T11:00:00	8	Radiación solar	739
72521	7	Sololá	704	Santa Lucía Utatlán 	7	Santa Rita 	1	Enero	2023-01-24T00:00:00	2024-11-08T12:00:00	2	Temperatura media	24.9
72522	7	Sololá	704	Santa Lucía Utatlán 	7	Santa Rita 	1	Enero	2023-01-24T00:00:00	2024-11-08T12:00:00	4	Temperatura máxima	25.6
72523	7	Sololá	704	Santa Lucía Utatlán 	7	Santa Rita 	1	Enero	2023-01-24T00:00:00	2024-11-08T12:00:00	3	Temperatura mínima	24.4
72524	7	Sololá	704	Santa Lucía Utatlán 	7	Santa Rita 	1	Enero	2023-01-24T00:00:00	2024-11-08T12:00:00	5	Humedad	30
72525	7	Sololá	704	Santa Lucía Utatlán 	7	Santa Rita 	1	Enero	2023-01-24T00:00:00	2024-11-08T12:00:00	6	Velocidad del viento	8
72526	7	Sololá	704	Santa Lucía Utatlán 	7	Santa Rita 	1	Enero	2023-01-24T00:00:00	2024-11-08T12:00:00	7	Dirección del viento	8.05
72527	7	Sololá	704	Santa Lucía Utatlán 	7	Santa Rita 	1	Enero	2023-01-24T00:00:00	2024-11-08T12:00:00	1	Precipitación	0
72528	7	Sololá	704	Santa Lucía Utatlán 	7	Santa Rita 	1	Enero	2023-01-24T00:00:00	2024-11-08T12:00:00	8	Radiación solar	823
72529	7	Sololá	704	Santa Lucía Utatlán 	7	Santa Rita 	1	Enero	2023-01-24T00:00:00	2024-11-08T13:00:00	2	Temperatura media	25.2
72530	7	Sololá	704	Santa Lucía Utatlán 	7	Santa Rita 	1	Enero	2023-01-24T00:00:00	2024-11-08T13:00:00	4	Temperatura máxima	25.2
72531	7	Sololá	704	Santa Lucía Utatlán 	7	Santa Rita 	1	Enero	2023-01-24T00:00:00	2024-11-08T13:00:00	3	Temperatura mínima	24.5
72532	7	Sololá	704	Santa Lucía Utatlán 	7	Santa Rita 	1	Enero	2023-01-24T00:00:00	2024-11-08T13:00:00	5	Humedad	35
72533	7	Sololá	704	Santa Lucía Utatlán 	7	Santa Rita 	1	Enero	2023-01-24T00:00:00	2024-11-08T13:00:00	6	Velocidad del viento	9.7
72534	7	Sololá	704	Santa Lucía Utatlán 	7	Santa Rita 	1	Enero	2023-01-24T00:00:00	2024-11-08T13:00:00	7	Dirección del viento	9.66
72535	7	Sololá	704	Santa Lucía Utatlán 	7	Santa Rita 	1	Enero	2023-01-24T00:00:00	2024-11-08T13:00:00	1	Precipitación	0
72536	7	Sololá	704	Santa Lucía Utatlán 	7	Santa Rita 	1	Enero	2023-01-24T00:00:00	2024-11-08T13:00:00	8	Radiación solar	833
72537	7	Sololá	704	Santa Lucía Utatlán 	7	Santa Rita 	1	Enero	2023-01-24T00:00:00	2024-11-08T14:00:00	2	Temperatura media	25.3
72538	7	Sololá	704	Santa Lucía Utatlán 	7	Santa Rita 	1	Enero	2023-01-24T00:00:00	2024-11-08T14:00:00	4	Temperatura máxima	25.9
72539	7	Sololá	704	Santa Lucía Utatlán 	7	Santa Rita 	1	Enero	2023-01-24T00:00:00	2024-11-08T14:00:00	3	Temperatura mínima	24.8
72540	7	Sololá	704	Santa Lucía Utatlán 	7	Santa Rita 	1	Enero	2023-01-24T00:00:00	2024-11-08T14:00:00	5	Humedad	40
72541	7	Sololá	704	Santa Lucía Utatlán 	7	Santa Rita 	1	Enero	2023-01-24T00:00:00	2024-11-08T14:00:00	6	Velocidad del viento	8
72542	7	Sololá	704	Santa Lucía Utatlán 	7	Santa Rita 	1	Enero	2023-01-24T00:00:00	2024-11-08T14:00:00	7	Dirección del viento	8.05
72543	7	Sololá	704	Santa Lucía Utatlán 	7	Santa Rita 	1	Enero	2023-01-24T00:00:00	2024-11-08T14:00:00	1	Precipitación	0
72544	7	Sololá	704	Santa Lucía Utatlán 	7	Santa Rita 	1	Enero	2023-01-24T00:00:00	2024-11-08T14:00:00	8	Radiación solar	786
72545	7	Sololá	704	Santa Lucía Utatlán 	7	Santa Rita 	1	Enero	2023-01-24T00:00:00	2024-11-08T15:00:00	2	Temperatura media	23.8
72546	7	Sololá	704	Santa Lucía Utatlán 	7	Santa Rita 	1	Enero	2023-01-24T00:00:00	2024-11-08T15:00:00	4	Temperatura máxima	25.6
72547	7	Sololá	704	Santa Lucía Utatlán 	7	Santa Rita 	1	Enero	2023-01-24T00:00:00	2024-11-08T15:00:00	3	Temperatura mínima	23.7
72548	7	Sololá	704	Santa Lucía Utatlán 	7	Santa Rita 	1	Enero	2023-01-24T00:00:00	2024-11-08T15:00:00	5	Humedad	47
72549	7	Sololá	704	Santa Lucía Utatlán 	7	Santa Rita 	1	Enero	2023-01-24T00:00:00	2024-11-08T15:00:00	6	Velocidad del viento	8
72550	7	Sololá	704	Santa Lucía Utatlán 	7	Santa Rita 	1	Enero	2023-01-24T00:00:00	2024-11-08T15:00:00	7	Dirección del viento	8.05
72551	7	Sololá	704	Santa Lucía Utatlán 	7	Santa Rita 	1	Enero	2023-01-24T00:00:00	2024-11-08T15:00:00	1	Precipitación	0
72552	7	Sololá	704	Santa Lucía Utatlán 	7	Santa Rita 	1	Enero	2023-01-24T00:00:00	2024-11-08T15:00:00	8	Radiación solar	621
72553	7	Sololá	704	Santa Lucía Utatlán 	7	Santa Rita 	1	Enero	2023-01-24T00:00:00	2024-11-08T16:00:00	2	Temperatura media	21.9
72554	7	Sololá	704	Santa Lucía Utatlán 	7	Santa Rita 	1	Enero	2023-01-24T00:00:00	2024-11-08T16:00:00	4	Temperatura máxima	23.8
72555	7	Sololá	704	Santa Lucía Utatlán 	7	Santa Rita 	1	Enero	2023-01-24T00:00:00	2024-11-08T16:00:00	3	Temperatura mínima	21.9
72556	7	Sololá	704	Santa Lucía Utatlán 	7	Santa Rita 	1	Enero	2023-01-24T00:00:00	2024-11-08T16:00:00	5	Humedad	70
72557	7	Sololá	704	Santa Lucía Utatlán 	7	Santa Rita 	1	Enero	2023-01-24T00:00:00	2024-11-08T16:00:00	6	Velocidad del viento	9.7
72558	7	Sololá	704	Santa Lucía Utatlán 	7	Santa Rita 	1	Enero	2023-01-24T00:00:00	2024-11-08T16:00:00	7	Dirección del viento	9.66
72559	7	Sololá	704	Santa Lucía Utatlán 	7	Santa Rita 	1	Enero	2023-01-24T00:00:00	2024-11-08T16:00:00	1	Precipitación	0
72560	7	Sololá	704	Santa Lucía Utatlán 	7	Santa Rita 	1	Enero	2023-01-24T00:00:00	2024-11-08T16:00:00	8	Radiación solar	509
72561	7	Sololá	704	Santa Lucía Utatlán 	7	Santa Rita 	1	Enero	2023-01-24T00:00:00	2024-11-08T17:00:00	2	Temperatura media	21.9
72562	7	Sololá	704	Santa Lucía Utatlán 	7	Santa Rita 	1	Enero	2023-01-24T00:00:00	2024-11-08T17:00:00	4	Temperatura máxima	22.2
72563	7	Sololá	704	Santa Lucía Utatlán 	7	Santa Rita 	1	Enero	2023-01-24T00:00:00	2024-11-08T17:00:00	3	Temperatura mínima	21.6
72564	7	Sololá	704	Santa Lucía Utatlán 	7	Santa Rita 	1	Enero	2023-01-24T00:00:00	2024-11-08T17:00:00	5	Humedad	69
72565	7	Sololá	704	Santa Lucía Utatlán 	7	Santa Rita 	1	Enero	2023-01-24T00:00:00	2024-11-08T17:00:00	6	Velocidad del viento	4.8
72566	7	Sololá	704	Santa Lucía Utatlán 	7	Santa Rita 	1	Enero	2023-01-24T00:00:00	2024-11-08T17:00:00	7	Dirección del viento	4.83
72567	7	Sololá	704	Santa Lucía Utatlán 	7	Santa Rita 	1	Enero	2023-01-24T00:00:00	2024-11-08T17:00:00	1	Precipitación	0
72568	7	Sololá	704	Santa Lucía Utatlán 	7	Santa Rita 	1	Enero	2023-01-24T00:00:00	2024-11-08T17:00:00	8	Radiación solar	280
72569	7	Sololá	704	Santa Lucía Utatlán 	7	Santa Rita 	1	Enero	2023-01-24T00:00:00	2024-11-08T18:00:00	2	Temperatura media	19.3
72570	7	Sololá	704	Santa Lucía Utatlán 	7	Santa Rita 	1	Enero	2023-01-24T00:00:00	2024-11-08T18:00:00	4	Temperatura máxima	21.9
72571	7	Sololá	704	Santa Lucía Utatlán 	7	Santa Rita 	1	Enero	2023-01-24T00:00:00	2024-11-08T18:00:00	3	Temperatura mínima	19.3
72572	7	Sololá	704	Santa Lucía Utatlán 	7	Santa Rita 	1	Enero	2023-01-24T00:00:00	2024-11-08T18:00:00	5	Humedad	83
72573	7	Sololá	704	Santa Lucía Utatlán 	7	Santa Rita 	1	Enero	2023-01-24T00:00:00	2024-11-08T18:00:00	6	Velocidad del viento	3.2
72574	7	Sololá	704	Santa Lucía Utatlán 	7	Santa Rita 	1	Enero	2023-01-24T00:00:00	2024-11-08T18:00:00	7	Dirección del viento	3.22
72575	7	Sololá	704	Santa Lucía Utatlán 	7	Santa Rita 	1	Enero	2023-01-24T00:00:00	2024-11-08T18:00:00	1	Precipitación	0
72576	7	Sololá	704	Santa Lucía Utatlán 	7	Santa Rita 	1	Enero	2023-01-24T00:00:00	2024-11-08T18:00:00	8	Radiación solar	56
72577	7	Sololá	704	Santa Lucía Utatlán 	7	Santa Rita 	1	Enero	2023-01-24T00:00:00	2024-11-08T19:00:00	2	Temperatura media	17.6
72578	7	Sololá	704	Santa Lucía Utatlán 	7	Santa Rita 	1	Enero	2023-01-24T00:00:00	2024-11-08T19:00:00	4	Temperatura máxima	19.3
72579	7	Sololá	704	Santa Lucía Utatlán 	7	Santa Rita 	1	Enero	2023-01-24T00:00:00	2024-11-08T19:00:00	3	Temperatura mínima	17.1
72580	7	Sololá	704	Santa Lucía Utatlán 	7	Santa Rita 	1	Enero	2023-01-24T00:00:00	2024-11-08T19:00:00	5	Humedad	79
72581	7	Sololá	704	Santa Lucía Utatlán 	7	Santa Rita 	1	Enero	2023-01-24T00:00:00	2024-11-08T19:00:00	6	Velocidad del viento	3.2
72582	7	Sololá	704	Santa Lucía Utatlán 	7	Santa Rita 	1	Enero	2023-01-24T00:00:00	2024-11-08T19:00:00	7	Dirección del viento	3.22
72583	7	Sololá	704	Santa Lucía Utatlán 	7	Santa Rita 	1	Enero	2023-01-24T00:00:00	2024-11-08T19:00:00	1	Precipitación	0
72584	7	Sololá	704	Santa Lucía Utatlán 	7	Santa Rita 	1	Enero	2023-01-24T00:00:00	2024-11-08T19:00:00	8	Radiación solar	0
72585	7	Sololá	704	Santa Lucía Utatlán 	7	Santa Rita 	1	Enero	2023-01-24T00:00:00	2024-11-08T20:00:00	2	Temperatura media	15.1
72586	7	Sololá	704	Santa Lucía Utatlán 	7	Santa Rita 	1	Enero	2023-01-24T00:00:00	2024-11-08T20:00:00	4	Temperatura máxima	17.8
72587	7	Sololá	704	Santa Lucía Utatlán 	7	Santa Rita 	1	Enero	2023-01-24T00:00:00	2024-11-08T20:00:00	3	Temperatura mínima	15.1
72588	7	Sololá	704	Santa Lucía Utatlán 	7	Santa Rita 	1	Enero	2023-01-24T00:00:00	2024-11-08T20:00:00	5	Humedad	74
72589	7	Sololá	704	Santa Lucía Utatlán 	7	Santa Rita 	1	Enero	2023-01-24T00:00:00	2024-11-08T20:00:00	6	Velocidad del viento	3.2
72590	7	Sololá	704	Santa Lucía Utatlán 	7	Santa Rita 	1	Enero	2023-01-24T00:00:00	2024-11-08T20:00:00	7	Dirección del viento	3.22
72591	7	Sololá	704	Santa Lucía Utatlán 	7	Santa Rita 	1	Enero	2023-01-24T00:00:00	2024-11-08T20:00:00	1	Precipitación	0
72592	7	Sololá	704	Santa Lucía Utatlán 	7	Santa Rita 	1	Enero	2023-01-24T00:00:00	2024-11-08T20:00:00	8	Radiación solar	0
72593	7	Sololá	704	Santa Lucía Utatlán 	7	Santa Rita 	1	Enero	2023-01-24T00:00:00	2024-11-08T21:00:00	2	Temperatura media	14.3
72594	7	Sololá	704	Santa Lucía Utatlán 	7	Santa Rita 	1	Enero	2023-01-24T00:00:00	2024-11-08T21:00:00	4	Temperatura máxima	15.1
72595	7	Sololá	704	Santa Lucía Utatlán 	7	Santa Rita 	1	Enero	2023-01-24T00:00:00	2024-11-08T21:00:00	3	Temperatura mínima	14.3
72596	7	Sololá	704	Santa Lucía Utatlán 	7	Santa Rita 	1	Enero	2023-01-24T00:00:00	2024-11-08T21:00:00	5	Humedad	59
72597	7	Sololá	704	Santa Lucía Utatlán 	7	Santa Rita 	1	Enero	2023-01-24T00:00:00	2024-11-08T21:00:00	6	Velocidad del viento	4.8
72598	7	Sololá	704	Santa Lucía Utatlán 	7	Santa Rita 	1	Enero	2023-01-24T00:00:00	2024-11-08T21:00:00	7	Dirección del viento	4.83
72599	7	Sololá	704	Santa Lucía Utatlán 	7	Santa Rita 	1	Enero	2023-01-24T00:00:00	2024-11-08T21:00:00	1	Precipitación	0
72600	7	Sololá	704	Santa Lucía Utatlán 	7	Santa Rita 	1	Enero	2023-01-24T00:00:00	2024-11-08T21:00:00	8	Radiación solar	0
72601	7	Sololá	704	Santa Lucía Utatlán 	7	Santa Rita 	1	Enero	2023-01-24T00:00:00	2024-11-08T22:00:00	2	Temperatura media	14.6
72602	7	Sololá	704	Santa Lucía Utatlán 	7	Santa Rita 	1	Enero	2023-01-24T00:00:00	2024-11-08T22:00:00	4	Temperatura máxima	14.7
72603	7	Sololá	704	Santa Lucía Utatlán 	7	Santa Rita 	1	Enero	2023-01-24T00:00:00	2024-11-08T22:00:00	3	Temperatura mínima	14.3
72604	7	Sololá	704	Santa Lucía Utatlán 	7	Santa Rita 	1	Enero	2023-01-24T00:00:00	2024-11-08T22:00:00	5	Humedad	57
72605	7	Sololá	704	Santa Lucía Utatlán 	7	Santa Rita 	1	Enero	2023-01-24T00:00:00	2024-11-08T22:00:00	6	Velocidad del viento	4.8
72606	7	Sololá	704	Santa Lucía Utatlán 	7	Santa Rita 	1	Enero	2023-01-24T00:00:00	2024-11-08T22:00:00	7	Dirección del viento	4.83
72607	7	Sololá	704	Santa Lucía Utatlán 	7	Santa Rita 	1	Enero	2023-01-24T00:00:00	2024-11-08T22:00:00	1	Precipitación	0
72608	7	Sololá	704	Santa Lucía Utatlán 	7	Santa Rita 	1	Enero	2023-01-24T00:00:00	2024-11-08T22:00:00	8	Radiación solar	0
72609	7	Sololá	704	Santa Lucía Utatlán 	7	Santa Rita 	1	Enero	2023-01-24T00:00:00	2024-11-08T23:00:00	2	Temperatura media	14.2
72610	7	Sololá	704	Santa Lucía Utatlán 	7	Santa Rita 	1	Enero	2023-01-24T00:00:00	2024-11-08T23:00:00	4	Temperatura máxima	14.7
72611	7	Sololá	704	Santa Lucía Utatlán 	7	Santa Rita 	1	Enero	2023-01-24T00:00:00	2024-11-08T23:00:00	3	Temperatura mínima	14.1
72612	7	Sololá	704	Santa Lucía Utatlán 	7	Santa Rita 	1	Enero	2023-01-24T00:00:00	2024-11-08T23:00:00	5	Humedad	64
72613	7	Sololá	704	Santa Lucía Utatlán 	7	Santa Rita 	1	Enero	2023-01-24T00:00:00	2024-11-08T23:00:00	6	Velocidad del viento	6.4
72614	7	Sololá	704	Santa Lucía Utatlán 	7	Santa Rita 	1	Enero	2023-01-24T00:00:00	2024-11-08T23:00:00	7	Dirección del viento	6.44
72615	7	Sololá	704	Santa Lucía Utatlán 	7	Santa Rita 	1	Enero	2023-01-24T00:00:00	2024-11-08T23:00:00	1	Precipitación	0
72616	7	Sololá	704	Santa Lucía Utatlán 	7	Santa Rita 	1	Enero	2023-01-24T00:00:00	2024-11-08T23:00:00	8	Radiación solar	0
72617	7	Sololá	704	Santa Lucía Utatlán 	7	Santa Rita 	1	Enero	2023-01-25T00:00:00	2024-11-08T00:00:00	2	Temperatura media	14.2
72618	7	Sololá	704	Santa Lucía Utatlán 	7	Santa Rita 	1	Enero	2023-01-25T00:00:00	2024-11-08T00:00:00	4	Temperatura máxima	14.3
72619	7	Sololá	704	Santa Lucía Utatlán 	7	Santa Rita 	1	Enero	2023-01-25T00:00:00	2024-11-08T00:00:00	3	Temperatura mínima	13.9
72620	7	Sololá	704	Santa Lucía Utatlán 	7	Santa Rita 	1	Enero	2023-01-25T00:00:00	2024-11-08T00:00:00	5	Humedad	68
72621	7	Sololá	704	Santa Lucía Utatlán 	7	Santa Rita 	1	Enero	2023-01-25T00:00:00	2024-11-08T00:00:00	6	Velocidad del viento	6.4
72622	7	Sololá	704	Santa Lucía Utatlán 	7	Santa Rita 	1	Enero	2023-01-25T00:00:00	2024-11-08T00:00:00	7	Dirección del viento	6.44
72623	7	Sololá	704	Santa Lucía Utatlán 	7	Santa Rita 	1	Enero	2023-01-25T00:00:00	2024-11-08T00:00:00	1	Precipitación	0
72624	7	Sololá	704	Santa Lucía Utatlán 	7	Santa Rita 	1	Enero	2023-01-25T00:00:00	2024-11-08T00:00:00	8	Radiación solar	0
72625	7	Sololá	704	Santa Lucía Utatlán 	7	Santa Rita 	1	Enero	2023-01-25T00:00:00	2024-11-08T01:00:00	2	Temperatura media	14.1
72626	7	Sololá	704	Santa Lucía Utatlán 	7	Santa Rita 	1	Enero	2023-01-25T00:00:00	2024-11-08T01:00:00	4	Temperatura máxima	14.3
72627	7	Sololá	704	Santa Lucía Utatlán 	7	Santa Rita 	1	Enero	2023-01-25T00:00:00	2024-11-08T01:00:00	3	Temperatura mínima	14
72628	7	Sololá	704	Santa Lucía Utatlán 	7	Santa Rita 	1	Enero	2023-01-25T00:00:00	2024-11-08T01:00:00	5	Humedad	79
72629	7	Sololá	704	Santa Lucía Utatlán 	7	Santa Rita 	1	Enero	2023-01-25T00:00:00	2024-11-08T01:00:00	6	Velocidad del viento	6.4
72630	7	Sololá	704	Santa Lucía Utatlán 	7	Santa Rita 	1	Enero	2023-01-25T00:00:00	2024-11-08T01:00:00	7	Dirección del viento	6.44
72631	7	Sololá	704	Santa Lucía Utatlán 	7	Santa Rita 	1	Enero	2023-01-25T00:00:00	2024-11-08T01:00:00	1	Precipitación	0
72632	7	Sololá	704	Santa Lucía Utatlán 	7	Santa Rita 	1	Enero	2023-01-25T00:00:00	2024-11-08T01:00:00	8	Radiación solar	0
72633	7	Sololá	704	Santa Lucía Utatlán 	7	Santa Rita 	1	Enero	2023-01-25T00:00:00	2024-11-08T02:00:00	2	Temperatura media	13.8
72634	7	Sololá	704	Santa Lucía Utatlán 	7	Santa Rita 	1	Enero	2023-01-25T00:00:00	2024-11-08T02:00:00	4	Temperatura máxima	14.1
72635	7	Sololá	704	Santa Lucía Utatlán 	7	Santa Rita 	1	Enero	2023-01-25T00:00:00	2024-11-08T02:00:00	3	Temperatura mínima	13.6
72636	7	Sololá	704	Santa Lucía Utatlán 	7	Santa Rita 	1	Enero	2023-01-25T00:00:00	2024-11-08T02:00:00	5	Humedad	80
72637	7	Sololá	704	Santa Lucía Utatlán 	7	Santa Rita 	1	Enero	2023-01-25T00:00:00	2024-11-08T02:00:00	6	Velocidad del viento	6.4
72638	7	Sololá	704	Santa Lucía Utatlán 	7	Santa Rita 	1	Enero	2023-01-25T00:00:00	2024-11-08T02:00:00	7	Dirección del viento	6.44
72639	7	Sololá	704	Santa Lucía Utatlán 	7	Santa Rita 	1	Enero	2023-01-25T00:00:00	2024-11-08T02:00:00	1	Precipitación	0
72640	7	Sololá	704	Santa Lucía Utatlán 	7	Santa Rita 	1	Enero	2023-01-25T00:00:00	2024-11-08T02:00:00	8	Radiación solar	0
72641	7	Sololá	704	Santa Lucía Utatlán 	7	Santa Rita 	1	Enero	2023-01-25T00:00:00	2024-11-08T03:00:00	2	Temperatura media	13.4
72642	7	Sololá	704	Santa Lucía Utatlán 	7	Santa Rita 	1	Enero	2023-01-25T00:00:00	2024-11-08T03:00:00	4	Temperatura máxima	13.9
72643	7	Sololá	704	Santa Lucía Utatlán 	7	Santa Rita 	1	Enero	2023-01-25T00:00:00	2024-11-08T03:00:00	3	Temperatura mínima	13.1
72644	7	Sololá	704	Santa Lucía Utatlán 	7	Santa Rita 	1	Enero	2023-01-25T00:00:00	2024-11-08T03:00:00	5	Humedad	78
72645	7	Sololá	704	Santa Lucía Utatlán 	7	Santa Rita 	1	Enero	2023-01-25T00:00:00	2024-11-08T03:00:00	6	Velocidad del viento	6.4
72646	7	Sololá	704	Santa Lucía Utatlán 	7	Santa Rita 	1	Enero	2023-01-25T00:00:00	2024-11-08T03:00:00	7	Dirección del viento	6.44
72647	7	Sololá	704	Santa Lucía Utatlán 	7	Santa Rita 	1	Enero	2023-01-25T00:00:00	2024-11-08T03:00:00	1	Precipitación	0
72648	7	Sololá	704	Santa Lucía Utatlán 	7	Santa Rita 	1	Enero	2023-01-25T00:00:00	2024-11-08T03:00:00	8	Radiación solar	0
72649	7	Sololá	704	Santa Lucía Utatlán 	7	Santa Rita 	1	Enero	2023-01-25T00:00:00	2024-11-08T04:00:00	2	Temperatura media	14.3
72650	7	Sololá	704	Santa Lucía Utatlán 	7	Santa Rita 	1	Enero	2023-01-25T00:00:00	2024-11-08T04:00:00	4	Temperatura máxima	14.3
72651	7	Sololá	704	Santa Lucía Utatlán 	7	Santa Rita 	1	Enero	2023-01-25T00:00:00	2024-11-08T04:00:00	3	Temperatura mínima	13.2
72652	7	Sololá	704	Santa Lucía Utatlán 	7	Santa Rita 	1	Enero	2023-01-25T00:00:00	2024-11-08T04:00:00	5	Humedad	77
72653	7	Sololá	704	Santa Lucía Utatlán 	7	Santa Rita 	1	Enero	2023-01-25T00:00:00	2024-11-08T04:00:00	6	Velocidad del viento	6.4
72654	7	Sololá	704	Santa Lucía Utatlán 	7	Santa Rita 	1	Enero	2023-01-25T00:00:00	2024-11-08T04:00:00	7	Dirección del viento	6.44
72655	7	Sololá	704	Santa Lucía Utatlán 	7	Santa Rita 	1	Enero	2023-01-25T00:00:00	2024-11-08T04:00:00	1	Precipitación	0
72656	7	Sololá	704	Santa Lucía Utatlán 	7	Santa Rita 	1	Enero	2023-01-25T00:00:00	2024-11-08T04:00:00	8	Radiación solar	0
72657	7	Sololá	704	Santa Lucía Utatlán 	7	Santa Rita 	1	Enero	2023-01-25T00:00:00	2024-11-08T05:00:00	2	Temperatura media	13.7
72658	7	Sololá	704	Santa Lucía Utatlán 	7	Santa Rita 	1	Enero	2023-01-25T00:00:00	2024-11-08T05:00:00	4	Temperatura máxima	14.6
72659	7	Sololá	704	Santa Lucía Utatlán 	7	Santa Rita 	1	Enero	2023-01-25T00:00:00	2024-11-08T05:00:00	3	Temperatura mínima	13.7
72660	7	Sololá	704	Santa Lucía Utatlán 	7	Santa Rita 	1	Enero	2023-01-25T00:00:00	2024-11-08T05:00:00	5	Humedad	78
72661	7	Sololá	704	Santa Lucía Utatlán 	7	Santa Rita 	1	Enero	2023-01-25T00:00:00	2024-11-08T05:00:00	6	Velocidad del viento	4.8
72662	7	Sololá	704	Santa Lucía Utatlán 	7	Santa Rita 	1	Enero	2023-01-25T00:00:00	2024-11-08T05:00:00	7	Dirección del viento	4.83
72663	7	Sololá	704	Santa Lucía Utatlán 	7	Santa Rita 	1	Enero	2023-01-25T00:00:00	2024-11-08T05:00:00	1	Precipitación	0
72664	7	Sololá	704	Santa Lucía Utatlán 	7	Santa Rita 	1	Enero	2023-01-25T00:00:00	2024-11-08T05:00:00	8	Radiación solar	0
72665	7	Sololá	704	Santa Lucía Utatlán 	7	Santa Rita 	1	Enero	2023-01-25T00:00:00	2024-11-08T06:00:00	2	Temperatura media	13.1
72666	7	Sololá	704	Santa Lucía Utatlán 	7	Santa Rita 	1	Enero	2023-01-25T00:00:00	2024-11-08T06:00:00	4	Temperatura máxima	13.7
72667	7	Sololá	704	Santa Lucía Utatlán 	7	Santa Rita 	1	Enero	2023-01-25T00:00:00	2024-11-08T06:00:00	3	Temperatura mínima	13
72668	7	Sololá	704	Santa Lucía Utatlán 	7	Santa Rita 	1	Enero	2023-01-25T00:00:00	2024-11-08T06:00:00	5	Humedad	74
72669	7	Sololá	704	Santa Lucía Utatlán 	7	Santa Rita 	1	Enero	2023-01-25T00:00:00	2024-11-08T06:00:00	6	Velocidad del viento	4.8
72670	7	Sololá	704	Santa Lucía Utatlán 	7	Santa Rita 	1	Enero	2023-01-25T00:00:00	2024-11-08T06:00:00	7	Dirección del viento	4.83
72671	7	Sololá	704	Santa Lucía Utatlán 	7	Santa Rita 	1	Enero	2023-01-25T00:00:00	2024-11-08T06:00:00	1	Precipitación	0
72672	7	Sololá	704	Santa Lucía Utatlán 	7	Santa Rita 	1	Enero	2023-01-25T00:00:00	2024-11-08T06:00:00	8	Radiación solar	0
72673	7	Sololá	704	Santa Lucía Utatlán 	7	Santa Rita 	1	Enero	2023-01-25T00:00:00	2024-11-08T07:00:00	2	Temperatura media	13.5
72674	7	Sololá	704	Santa Lucía Utatlán 	7	Santa Rita 	1	Enero	2023-01-25T00:00:00	2024-11-08T07:00:00	4	Temperatura máxima	13.5
72675	7	Sololá	704	Santa Lucía Utatlán 	7	Santa Rita 	1	Enero	2023-01-25T00:00:00	2024-11-08T07:00:00	3	Temperatura mínima	12.7
72676	7	Sololá	704	Santa Lucía Utatlán 	7	Santa Rita 	1	Enero	2023-01-25T00:00:00	2024-11-08T07:00:00	5	Humedad	71
72677	7	Sololá	704	Santa Lucía Utatlán 	7	Santa Rita 	1	Enero	2023-01-25T00:00:00	2024-11-08T07:00:00	6	Velocidad del viento	4.8
72678	7	Sololá	704	Santa Lucía Utatlán 	7	Santa Rita 	1	Enero	2023-01-25T00:00:00	2024-11-08T07:00:00	7	Dirección del viento	4.83
72679	7	Sololá	704	Santa Lucía Utatlán 	7	Santa Rita 	1	Enero	2023-01-25T00:00:00	2024-11-08T07:00:00	1	Precipitación	0
72680	7	Sololá	704	Santa Lucía Utatlán 	7	Santa Rita 	1	Enero	2023-01-25T00:00:00	2024-11-08T07:00:00	8	Radiación solar	5
72681	7	Sololá	704	Santa Lucía Utatlán 	7	Santa Rita 	1	Enero	2023-01-25T00:00:00	2024-11-08T08:00:00	2	Temperatura media	18.4
72682	7	Sololá	704	Santa Lucía Utatlán 	7	Santa Rita 	1	Enero	2023-01-25T00:00:00	2024-11-08T08:00:00	4	Temperatura máxima	18.4
72683	7	Sololá	704	Santa Lucía Utatlán 	7	Santa Rita 	1	Enero	2023-01-25T00:00:00	2024-11-08T08:00:00	3	Temperatura mínima	13.5
72684	7	Sololá	704	Santa Lucía Utatlán 	7	Santa Rita 	1	Enero	2023-01-25T00:00:00	2024-11-08T08:00:00	5	Humedad	65
72685	7	Sololá	704	Santa Lucía Utatlán 	7	Santa Rita 	1	Enero	2023-01-25T00:00:00	2024-11-08T08:00:00	6	Velocidad del viento	1.6
72686	7	Sololá	704	Santa Lucía Utatlán 	7	Santa Rita 	1	Enero	2023-01-25T00:00:00	2024-11-08T08:00:00	7	Dirección del viento	1.61
72687	7	Sololá	704	Santa Lucía Utatlán 	7	Santa Rita 	1	Enero	2023-01-25T00:00:00	2024-11-08T08:00:00	1	Precipitación	0
72688	7	Sololá	704	Santa Lucía Utatlán 	7	Santa Rita 	1	Enero	2023-01-25T00:00:00	2024-11-08T08:00:00	8	Radiación solar	132
72689	7	Sololá	704	Santa Lucía Utatlán 	7	Santa Rita 	1	Enero	2023-01-25T00:00:00	2024-11-08T09:00:00	2	Temperatura media	21.3
72690	7	Sololá	704	Santa Lucía Utatlán 	7	Santa Rita 	1	Enero	2023-01-25T00:00:00	2024-11-08T09:00:00	4	Temperatura máxima	21.3
72691	7	Sololá	704	Santa Lucía Utatlán 	7	Santa Rita 	1	Enero	2023-01-25T00:00:00	2024-11-08T09:00:00	3	Temperatura mínima	18.4
72692	7	Sololá	704	Santa Lucía Utatlán 	7	Santa Rita 	1	Enero	2023-01-25T00:00:00	2024-11-08T09:00:00	5	Humedad	54
72693	7	Sololá	704	Santa Lucía Utatlán 	7	Santa Rita 	1	Enero	2023-01-25T00:00:00	2024-11-08T09:00:00	6	Velocidad del viento	4.8
72694	7	Sololá	704	Santa Lucía Utatlán 	7	Santa Rita 	1	Enero	2023-01-25T00:00:00	2024-11-08T09:00:00	7	Dirección del viento	4.83
72695	7	Sololá	704	Santa Lucía Utatlán 	7	Santa Rita 	1	Enero	2023-01-25T00:00:00	2024-11-08T09:00:00	1	Precipitación	0
72696	7	Sololá	704	Santa Lucía Utatlán 	7	Santa Rita 	1	Enero	2023-01-25T00:00:00	2024-11-08T09:00:00	8	Radiación solar	375
72697	7	Sololá	704	Santa Lucía Utatlán 	7	Santa Rita 	1	Enero	2023-01-25T00:00:00	2024-11-08T10:00:00	2	Temperatura media	22.7
72698	7	Sololá	704	Santa Lucía Utatlán 	7	Santa Rita 	1	Enero	2023-01-25T00:00:00	2024-11-08T10:00:00	4	Temperatura máxima	22.7
72699	7	Sololá	704	Santa Lucía Utatlán 	7	Santa Rita 	1	Enero	2023-01-25T00:00:00	2024-11-08T10:00:00	3	Temperatura mínima	21.3
72700	7	Sololá	704	Santa Lucía Utatlán 	7	Santa Rita 	1	Enero	2023-01-25T00:00:00	2024-11-08T10:00:00	5	Humedad	55
72701	7	Sololá	704	Santa Lucía Utatlán 	7	Santa Rita 	1	Enero	2023-01-25T00:00:00	2024-11-08T10:00:00	6	Velocidad del viento	6.4
72702	7	Sololá	704	Santa Lucía Utatlán 	7	Santa Rita 	1	Enero	2023-01-25T00:00:00	2024-11-08T10:00:00	7	Dirección del viento	6.44
72703	7	Sololá	704	Santa Lucía Utatlán 	7	Santa Rita 	1	Enero	2023-01-25T00:00:00	2024-11-08T10:00:00	1	Precipitación	0
72704	7	Sololá	704	Santa Lucía Utatlán 	7	Santa Rita 	1	Enero	2023-01-25T00:00:00	2024-11-08T10:00:00	8	Radiación solar	569
72705	7	Sololá	704	Santa Lucía Utatlán 	7	Santa Rita 	1	Enero	2023-01-25T00:00:00	2024-11-08T11:00:00	2	Temperatura media	24.4
72706	7	Sololá	704	Santa Lucía Utatlán 	7	Santa Rita 	1	Enero	2023-01-25T00:00:00	2024-11-08T11:00:00	4	Temperatura máxima	24.4
72707	7	Sololá	704	Santa Lucía Utatlán 	7	Santa Rita 	1	Enero	2023-01-25T00:00:00	2024-11-08T11:00:00	3	Temperatura mínima	22.6
72708	7	Sololá	704	Santa Lucía Utatlán 	7	Santa Rita 	1	Enero	2023-01-25T00:00:00	2024-11-08T11:00:00	5	Humedad	54
72709	7	Sololá	704	Santa Lucía Utatlán 	7	Santa Rita 	1	Enero	2023-01-25T00:00:00	2024-11-08T11:00:00	6	Velocidad del viento	6.4
72710	7	Sololá	704	Santa Lucía Utatlán 	7	Santa Rita 	1	Enero	2023-01-25T00:00:00	2024-11-08T11:00:00	7	Dirección del viento	6.44
72711	7	Sololá	704	Santa Lucía Utatlán 	7	Santa Rita 	1	Enero	2023-01-25T00:00:00	2024-11-08T11:00:00	1	Precipitación	0
72712	7	Sololá	704	Santa Lucía Utatlán 	7	Santa Rita 	1	Enero	2023-01-25T00:00:00	2024-11-08T11:00:00	8	Radiación solar	713
72713	7	Sololá	704	Santa Lucía Utatlán 	7	Santa Rita 	1	Enero	2023-01-25T00:00:00	2024-11-08T12:00:00	2	Temperatura media	23.9
72714	7	Sololá	704	Santa Lucía Utatlán 	7	Santa Rita 	1	Enero	2023-01-25T00:00:00	2024-11-08T12:00:00	4	Temperatura máxima	24.4
72715	7	Sololá	704	Santa Lucía Utatlán 	7	Santa Rita 	1	Enero	2023-01-25T00:00:00	2024-11-08T12:00:00	3	Temperatura mínima	23.1
72716	7	Sololá	704	Santa Lucía Utatlán 	7	Santa Rita 	1	Enero	2023-01-25T00:00:00	2024-11-08T12:00:00	5	Humedad	52
72717	7	Sololá	704	Santa Lucía Utatlán 	7	Santa Rita 	1	Enero	2023-01-25T00:00:00	2024-11-08T12:00:00	6	Velocidad del viento	11.3
72718	7	Sololá	704	Santa Lucía Utatlán 	7	Santa Rita 	1	Enero	2023-01-25T00:00:00	2024-11-08T12:00:00	7	Dirección del viento	11.27
72719	7	Sololá	704	Santa Lucía Utatlán 	7	Santa Rita 	1	Enero	2023-01-25T00:00:00	2024-11-08T12:00:00	1	Precipitación	0
72720	7	Sololá	704	Santa Lucía Utatlán 	7	Santa Rita 	1	Enero	2023-01-25T00:00:00	2024-11-08T12:00:00	8	Radiación solar	804
72721	7	Sololá	704	Santa Lucía Utatlán 	7	Santa Rita 	1	Enero	2023-01-25T00:00:00	2024-11-08T13:00:00	2	Temperatura media	24.7
72722	7	Sololá	704	Santa Lucía Utatlán 	7	Santa Rita 	1	Enero	2023-01-25T00:00:00	2024-11-08T13:00:00	4	Temperatura máxima	24.9
72723	7	Sololá	704	Santa Lucía Utatlán 	7	Santa Rita 	1	Enero	2023-01-25T00:00:00	2024-11-08T13:00:00	3	Temperatura mínima	23.8
72724	7	Sololá	704	Santa Lucía Utatlán 	7	Santa Rita 	1	Enero	2023-01-25T00:00:00	2024-11-08T13:00:00	5	Humedad	56
72725	7	Sololá	704	Santa Lucía Utatlán 	7	Santa Rita 	1	Enero	2023-01-25T00:00:00	2024-11-08T13:00:00	6	Velocidad del viento	8
72726	7	Sololá	704	Santa Lucía Utatlán 	7	Santa Rita 	1	Enero	2023-01-25T00:00:00	2024-11-08T13:00:00	7	Dirección del viento	8.05
72727	7	Sololá	704	Santa Lucía Utatlán 	7	Santa Rita 	1	Enero	2023-01-25T00:00:00	2024-11-08T13:00:00	1	Precipitación	0
72728	7	Sololá	704	Santa Lucía Utatlán 	7	Santa Rita 	1	Enero	2023-01-25T00:00:00	2024-11-08T13:00:00	8	Radiación solar	855
72729	7	Sololá	704	Santa Lucía Utatlán 	7	Santa Rita 	1	Enero	2023-01-25T00:00:00	2024-11-08T14:00:00	2	Temperatura media	22.7
72730	7	Sololá	704	Santa Lucía Utatlán 	7	Santa Rita 	1	Enero	2023-01-25T00:00:00	2024-11-08T14:00:00	4	Temperatura máxima	24.8
72731	7	Sololá	704	Santa Lucía Utatlán 	7	Santa Rita 	1	Enero	2023-01-25T00:00:00	2024-11-08T14:00:00	3	Temperatura mínima	22.7
72732	7	Sololá	704	Santa Lucía Utatlán 	7	Santa Rita 	1	Enero	2023-01-25T00:00:00	2024-11-08T14:00:00	5	Humedad	68
72733	7	Sololá	704	Santa Lucía Utatlán 	7	Santa Rita 	1	Enero	2023-01-25T00:00:00	2024-11-08T14:00:00	6	Velocidad del viento	8
72734	7	Sololá	704	Santa Lucía Utatlán 	7	Santa Rita 	1	Enero	2023-01-25T00:00:00	2024-11-08T14:00:00	7	Dirección del viento	8.05
72735	7	Sololá	704	Santa Lucía Utatlán 	7	Santa Rita 	1	Enero	2023-01-25T00:00:00	2024-11-08T14:00:00	1	Precipitación	0
72736	7	Sololá	704	Santa Lucía Utatlán 	7	Santa Rita 	1	Enero	2023-01-25T00:00:00	2024-11-08T14:00:00	8	Radiación solar	403
72737	7	Sololá	704	Santa Lucía Utatlán 	7	Santa Rita 	1	Enero	2023-01-25T00:00:00	2024-11-08T15:00:00	2	Temperatura media	23.4
72738	7	Sololá	704	Santa Lucía Utatlán 	7	Santa Rita 	1	Enero	2023-01-25T00:00:00	2024-11-08T15:00:00	4	Temperatura máxima	23.4
72739	7	Sololá	704	Santa Lucía Utatlán 	7	Santa Rita 	1	Enero	2023-01-25T00:00:00	2024-11-08T15:00:00	3	Temperatura mínima	22.4
72740	7	Sololá	704	Santa Lucía Utatlán 	7	Santa Rita 	1	Enero	2023-01-25T00:00:00	2024-11-08T15:00:00	5	Humedad	66
72741	7	Sololá	704	Santa Lucía Utatlán 	7	Santa Rita 	1	Enero	2023-01-25T00:00:00	2024-11-08T15:00:00	6	Velocidad del viento	6.4
72742	7	Sololá	704	Santa Lucía Utatlán 	7	Santa Rita 	1	Enero	2023-01-25T00:00:00	2024-11-08T15:00:00	7	Dirección del viento	6.44
72743	7	Sololá	704	Santa Lucía Utatlán 	7	Santa Rita 	1	Enero	2023-01-25T00:00:00	2024-11-08T15:00:00	1	Precipitación	0
72744	7	Sololá	704	Santa Lucía Utatlán 	7	Santa Rita 	1	Enero	2023-01-25T00:00:00	2024-11-08T15:00:00	8	Radiación solar	254
72745	7	Sololá	704	Santa Lucía Utatlán 	7	Santa Rita 	1	Enero	2023-01-25T00:00:00	2024-11-08T16:00:00	2	Temperatura media	22.3
72746	7	Sololá	704	Santa Lucía Utatlán 	7	Santa Rita 	1	Enero	2023-01-25T00:00:00	2024-11-08T16:00:00	4	Temperatura máxima	23.4
72747	7	Sololá	704	Santa Lucía Utatlán 	7	Santa Rita 	1	Enero	2023-01-25T00:00:00	2024-11-08T16:00:00	3	Temperatura mínima	22.3
72748	7	Sololá	704	Santa Lucía Utatlán 	7	Santa Rita 	1	Enero	2023-01-25T00:00:00	2024-11-08T16:00:00	5	Humedad	71
72749	7	Sololá	704	Santa Lucía Utatlán 	7	Santa Rita 	1	Enero	2023-01-25T00:00:00	2024-11-08T16:00:00	6	Velocidad del viento	6.4
72750	7	Sololá	704	Santa Lucía Utatlán 	7	Santa Rita 	1	Enero	2023-01-25T00:00:00	2024-11-08T16:00:00	7	Dirección del viento	6.44
72751	7	Sololá	704	Santa Lucía Utatlán 	7	Santa Rita 	1	Enero	2023-01-25T00:00:00	2024-11-08T16:00:00	1	Precipitación	0
72752	7	Sololá	704	Santa Lucía Utatlán 	7	Santa Rita 	1	Enero	2023-01-25T00:00:00	2024-11-08T16:00:00	8	Radiación solar	170
72753	7	Sololá	704	Santa Lucía Utatlán 	7	Santa Rita 	1	Enero	2023-01-25T00:00:00	2024-11-08T17:00:00	2	Temperatura media	21.8
72754	7	Sololá	704	Santa Lucía Utatlán 	7	Santa Rita 	1	Enero	2023-01-25T00:00:00	2024-11-08T17:00:00	4	Temperatura máxima	22.7
72755	7	Sololá	704	Santa Lucía Utatlán 	7	Santa Rita 	1	Enero	2023-01-25T00:00:00	2024-11-08T17:00:00	3	Temperatura mínima	21.7
72756	7	Sololá	704	Santa Lucía Utatlán 	7	Santa Rita 	1	Enero	2023-01-25T00:00:00	2024-11-08T17:00:00	5	Humedad	78
72757	7	Sololá	704	Santa Lucía Utatlán 	7	Santa Rita 	1	Enero	2023-01-25T00:00:00	2024-11-08T17:00:00	6	Velocidad del viento	4.8
72758	7	Sololá	704	Santa Lucía Utatlán 	7	Santa Rita 	1	Enero	2023-01-25T00:00:00	2024-11-08T17:00:00	7	Dirección del viento	4.83
72759	7	Sololá	704	Santa Lucía Utatlán 	7	Santa Rita 	1	Enero	2023-01-25T00:00:00	2024-11-08T17:00:00	1	Precipitación	0
72760	7	Sololá	704	Santa Lucía Utatlán 	7	Santa Rita 	1	Enero	2023-01-25T00:00:00	2024-11-08T17:00:00	8	Radiación solar	154
72761	7	Sololá	704	Santa Lucía Utatlán 	7	Santa Rita 	1	Enero	2023-01-25T00:00:00	2024-11-08T18:00:00	2	Temperatura media	21.1
72762	7	Sololá	704	Santa Lucía Utatlán 	7	Santa Rita 	1	Enero	2023-01-25T00:00:00	2024-11-08T18:00:00	4	Temperatura máxima	21.8
72763	7	Sololá	704	Santa Lucía Utatlán 	7	Santa Rita 	1	Enero	2023-01-25T00:00:00	2024-11-08T18:00:00	3	Temperatura mínima	20.9
72764	7	Sololá	704	Santa Lucía Utatlán 	7	Santa Rita 	1	Enero	2023-01-25T00:00:00	2024-11-08T18:00:00	5	Humedad	59
72765	7	Sololá	704	Santa Lucía Utatlán 	7	Santa Rita 	1	Enero	2023-01-25T00:00:00	2024-11-08T18:00:00	6	Velocidad del viento	4.8
72766	7	Sololá	704	Santa Lucía Utatlán 	7	Santa Rita 	1	Enero	2023-01-25T00:00:00	2024-11-08T18:00:00	7	Dirección del viento	4.83
72767	7	Sololá	704	Santa Lucía Utatlán 	7	Santa Rita 	1	Enero	2023-01-25T00:00:00	2024-11-08T18:00:00	1	Precipitación	0
72768	7	Sololá	704	Santa Lucía Utatlán 	7	Santa Rita 	1	Enero	2023-01-25T00:00:00	2024-11-08T18:00:00	8	Radiación solar	36
72769	7	Sololá	704	Santa Lucía Utatlán 	7	Santa Rita 	1	Enero	2023-01-25T00:00:00	2024-11-08T19:00:00	2	Temperatura media	18.7
72770	7	Sololá	704	Santa Lucía Utatlán 	7	Santa Rita 	1	Enero	2023-01-25T00:00:00	2024-11-08T19:00:00	4	Temperatura máxima	21.1
72771	7	Sololá	704	Santa Lucía Utatlán 	7	Santa Rita 	1	Enero	2023-01-25T00:00:00	2024-11-08T19:00:00	3	Temperatura mínima	18.7
72772	7	Sololá	704	Santa Lucía Utatlán 	7	Santa Rita 	1	Enero	2023-01-25T00:00:00	2024-11-08T19:00:00	5	Humedad	57
72773	7	Sololá	704	Santa Lucía Utatlán 	7	Santa Rita 	1	Enero	2023-01-25T00:00:00	2024-11-08T19:00:00	6	Velocidad del viento	6.4
72774	7	Sololá	704	Santa Lucía Utatlán 	7	Santa Rita 	1	Enero	2023-01-25T00:00:00	2024-11-08T19:00:00	7	Dirección del viento	6.44
72775	7	Sololá	704	Santa Lucía Utatlán 	7	Santa Rita 	1	Enero	2023-01-25T00:00:00	2024-11-08T19:00:00	1	Precipitación	0
72776	7	Sololá	704	Santa Lucía Utatlán 	7	Santa Rita 	1	Enero	2023-01-25T00:00:00	2024-11-08T19:00:00	8	Radiación solar	0
72777	7	Sololá	704	Santa Lucía Utatlán 	7	Santa Rita 	1	Enero	2023-01-25T00:00:00	2024-11-08T20:00:00	2	Temperatura media	18.6
72778	7	Sololá	704	Santa Lucía Utatlán 	7	Santa Rita 	1	Enero	2023-01-25T00:00:00	2024-11-08T20:00:00	4	Temperatura máxima	18.7
72779	7	Sololá	704	Santa Lucía Utatlán 	7	Santa Rita 	1	Enero	2023-01-25T00:00:00	2024-11-08T20:00:00	3	Temperatura mínima	17.8
72780	7	Sololá	704	Santa Lucía Utatlán 	7	Santa Rita 	1	Enero	2023-01-25T00:00:00	2024-11-08T20:00:00	5	Humedad	46
72781	7	Sololá	704	Santa Lucía Utatlán 	7	Santa Rita 	1	Enero	2023-01-25T00:00:00	2024-11-08T20:00:00	6	Velocidad del viento	4.8
72782	7	Sololá	704	Santa Lucía Utatlán 	7	Santa Rita 	1	Enero	2023-01-25T00:00:00	2024-11-08T20:00:00	7	Dirección del viento	4.83
72783	7	Sololá	704	Santa Lucía Utatlán 	7	Santa Rita 	1	Enero	2023-01-25T00:00:00	2024-11-08T20:00:00	1	Precipitación	0
72784	7	Sololá	704	Santa Lucía Utatlán 	7	Santa Rita 	1	Enero	2023-01-25T00:00:00	2024-11-08T20:00:00	8	Radiación solar	0
72785	7	Sololá	704	Santa Lucía Utatlán 	7	Santa Rita 	1	Enero	2023-01-25T00:00:00	2024-11-08T21:00:00	2	Temperatura media	17.5
72786	7	Sololá	704	Santa Lucía Utatlán 	7	Santa Rita 	1	Enero	2023-01-25T00:00:00	2024-11-08T21:00:00	4	Temperatura máxima	19.3
72787	7	Sololá	704	Santa Lucía Utatlán 	7	Santa Rita 	1	Enero	2023-01-25T00:00:00	2024-11-08T21:00:00	3	Temperatura mínima	16.6
72788	7	Sololá	704	Santa Lucía Utatlán 	7	Santa Rita 	1	Enero	2023-01-25T00:00:00	2024-11-08T21:00:00	5	Humedad	50
72789	7	Sololá	704	Santa Lucía Utatlán 	7	Santa Rita 	1	Enero	2023-01-25T00:00:00	2024-11-08T21:00:00	6	Velocidad del viento	3.2
72790	7	Sololá	704	Santa Lucía Utatlán 	7	Santa Rita 	1	Enero	2023-01-25T00:00:00	2024-11-08T21:00:00	7	Dirección del viento	3.22
72791	7	Sololá	704	Santa Lucía Utatlán 	7	Santa Rita 	1	Enero	2023-01-25T00:00:00	2024-11-08T21:00:00	1	Precipitación	0
72792	7	Sololá	704	Santa Lucía Utatlán 	7	Santa Rita 	1	Enero	2023-01-25T00:00:00	2024-11-08T21:00:00	8	Radiación solar	0
72793	7	Sololá	704	Santa Lucía Utatlán 	7	Santa Rita 	1	Enero	2023-01-25T00:00:00	2024-11-08T22:00:00	2	Temperatura media	16.1
72794	7	Sololá	704	Santa Lucía Utatlán 	7	Santa Rita 	1	Enero	2023-01-25T00:00:00	2024-11-08T22:00:00	4	Temperatura máxima	18.2
72795	7	Sololá	704	Santa Lucía Utatlán 	7	Santa Rita 	1	Enero	2023-01-25T00:00:00	2024-11-08T22:00:00	3	Temperatura mínima	16.1
72796	7	Sololá	704	Santa Lucía Utatlán 	7	Santa Rita 	1	Enero	2023-01-25T00:00:00	2024-11-08T22:00:00	5	Humedad	55
72797	7	Sololá	704	Santa Lucía Utatlán 	7	Santa Rita 	1	Enero	2023-01-25T00:00:00	2024-11-08T22:00:00	6	Velocidad del viento	3.2
72798	7	Sololá	704	Santa Lucía Utatlán 	7	Santa Rita 	1	Enero	2023-01-25T00:00:00	2024-11-08T22:00:00	7	Dirección del viento	3.22
72799	7	Sololá	704	Santa Lucía Utatlán 	7	Santa Rita 	1	Enero	2023-01-25T00:00:00	2024-11-08T22:00:00	1	Precipitación	0
72800	7	Sololá	704	Santa Lucía Utatlán 	7	Santa Rita 	1	Enero	2023-01-25T00:00:00	2024-11-08T22:00:00	8	Radiación solar	0
72801	7	Sololá	704	Santa Lucía Utatlán 	7	Santa Rita 	1	Enero	2023-01-25T00:00:00	2024-11-08T23:00:00	2	Temperatura media	16.1
72802	7	Sololá	704	Santa Lucía Utatlán 	7	Santa Rita 	1	Enero	2023-01-25T00:00:00	2024-11-08T23:00:00	4	Temperatura máxima	18.1
72803	7	Sololá	704	Santa Lucía Utatlán 	7	Santa Rita 	1	Enero	2023-01-25T00:00:00	2024-11-08T23:00:00	3	Temperatura mínima	15.9
72804	7	Sololá	704	Santa Lucía Utatlán 	7	Santa Rita 	1	Enero	2023-01-25T00:00:00	2024-11-08T23:00:00	5	Humedad	58
72805	7	Sololá	704	Santa Lucía Utatlán 	7	Santa Rita 	1	Enero	2023-01-25T00:00:00	2024-11-08T23:00:00	6	Velocidad del viento	3.2
72806	7	Sololá	704	Santa Lucía Utatlán 	7	Santa Rita 	1	Enero	2023-01-25T00:00:00	2024-11-08T23:00:00	7	Dirección del viento	3.22
72807	7	Sololá	704	Santa Lucía Utatlán 	7	Santa Rita 	1	Enero	2023-01-25T00:00:00	2024-11-08T23:00:00	1	Precipitación	0
72808	7	Sololá	704	Santa Lucía Utatlán 	7	Santa Rita 	1	Enero	2023-01-25T00:00:00	2024-11-08T23:00:00	8	Radiación solar	0
72809	7	Sololá	704	Santa Lucía Utatlán 	7	Santa Rita 	1	Enero	2023-01-26T00:00:00	2024-11-08T00:00:00	2	Temperatura media	16.7
72810	7	Sololá	704	Santa Lucía Utatlán 	7	Santa Rita 	1	Enero	2023-01-26T00:00:00	2024-11-08T00:00:00	4	Temperatura máxima	16.7
72811	7	Sololá	704	Santa Lucía Utatlán 	7	Santa Rita 	1	Enero	2023-01-26T00:00:00	2024-11-08T00:00:00	3	Temperatura mínima	15.2
72812	7	Sololá	704	Santa Lucía Utatlán 	7	Santa Rita 	1	Enero	2023-01-26T00:00:00	2024-11-08T00:00:00	5	Humedad	70
72813	7	Sololá	704	Santa Lucía Utatlán 	7	Santa Rita 	1	Enero	2023-01-26T00:00:00	2024-11-08T00:00:00	6	Velocidad del viento	3.2
72814	7	Sololá	704	Santa Lucía Utatlán 	7	Santa Rita 	1	Enero	2023-01-26T00:00:00	2024-11-08T00:00:00	7	Dirección del viento	3.22
72815	7	Sololá	704	Santa Lucía Utatlán 	7	Santa Rita 	1	Enero	2023-01-26T00:00:00	2024-11-08T00:00:00	1	Precipitación	0
72816	7	Sololá	704	Santa Lucía Utatlán 	7	Santa Rita 	1	Enero	2023-01-26T00:00:00	2024-11-08T00:00:00	8	Radiación solar	0
72817	7	Sololá	704	Santa Lucía Utatlán 	7	Santa Rita 	1	Enero	2023-01-26T00:00:00	2024-11-08T01:00:00	2	Temperatura media	17.8
72818	7	Sololá	704	Santa Lucía Utatlán 	7	Santa Rita 	1	Enero	2023-01-26T00:00:00	2024-11-08T01:00:00	4	Temperatura máxima	17.8
72819	7	Sololá	704	Santa Lucía Utatlán 	7	Santa Rita 	1	Enero	2023-01-26T00:00:00	2024-11-08T01:00:00	3	Temperatura mínima	16.7
72820	7	Sololá	704	Santa Lucía Utatlán 	7	Santa Rita 	1	Enero	2023-01-26T00:00:00	2024-11-08T01:00:00	5	Humedad	64
72821	7	Sololá	704	Santa Lucía Utatlán 	7	Santa Rita 	1	Enero	2023-01-26T00:00:00	2024-11-08T01:00:00	6	Velocidad del viento	6.4
72822	7	Sololá	704	Santa Lucía Utatlán 	7	Santa Rita 	1	Enero	2023-01-26T00:00:00	2024-11-08T01:00:00	7	Dirección del viento	6.44
72823	7	Sololá	704	Santa Lucía Utatlán 	7	Santa Rita 	1	Enero	2023-01-26T00:00:00	2024-11-08T01:00:00	1	Precipitación	0
72824	7	Sololá	704	Santa Lucía Utatlán 	7	Santa Rita 	1	Enero	2023-01-26T00:00:00	2024-11-08T01:00:00	8	Radiación solar	0
72825	7	Sololá	704	Santa Lucía Utatlán 	7	Santa Rita 	1	Enero	2023-01-26T00:00:00	2024-11-08T02:00:00	2	Temperatura media	17.6
72826	7	Sololá	704	Santa Lucía Utatlán 	7	Santa Rita 	1	Enero	2023-01-26T00:00:00	2024-11-08T02:00:00	4	Temperatura máxima	17.9
72827	7	Sololá	704	Santa Lucía Utatlán 	7	Santa Rita 	1	Enero	2023-01-26T00:00:00	2024-11-08T02:00:00	3	Temperatura mínima	17.6
72828	7	Sololá	704	Santa Lucía Utatlán 	7	Santa Rita 	1	Enero	2023-01-26T00:00:00	2024-11-08T02:00:00	5	Humedad	68
72829	7	Sololá	704	Santa Lucía Utatlán 	7	Santa Rita 	1	Enero	2023-01-26T00:00:00	2024-11-08T02:00:00	6	Velocidad del viento	8
72830	7	Sololá	704	Santa Lucía Utatlán 	7	Santa Rita 	1	Enero	2023-01-26T00:00:00	2024-11-08T02:00:00	7	Dirección del viento	8.05
72831	7	Sololá	704	Santa Lucía Utatlán 	7	Santa Rita 	1	Enero	2023-01-26T00:00:00	2024-11-08T02:00:00	1	Precipitación	0
72832	7	Sololá	704	Santa Lucía Utatlán 	7	Santa Rita 	1	Enero	2023-01-26T00:00:00	2024-11-08T02:00:00	8	Radiación solar	0
72833	7	Sololá	704	Santa Lucía Utatlán 	7	Santa Rita 	1	Enero	2023-01-26T00:00:00	2024-11-08T03:00:00	2	Temperatura media	17.7
72834	7	Sololá	704	Santa Lucía Utatlán 	7	Santa Rita 	1	Enero	2023-01-26T00:00:00	2024-11-08T03:00:00	4	Temperatura máxima	17.7
72835	7	Sololá	704	Santa Lucía Utatlán 	7	Santa Rita 	1	Enero	2023-01-26T00:00:00	2024-11-08T03:00:00	3	Temperatura mínima	17.2
72836	7	Sololá	704	Santa Lucía Utatlán 	7	Santa Rita 	1	Enero	2023-01-26T00:00:00	2024-11-08T03:00:00	5	Humedad	66
72837	7	Sololá	704	Santa Lucía Utatlán 	7	Santa Rita 	1	Enero	2023-01-26T00:00:00	2024-11-08T03:00:00	6	Velocidad del viento	8
72838	7	Sololá	704	Santa Lucía Utatlán 	7	Santa Rita 	1	Enero	2023-01-26T00:00:00	2024-11-08T03:00:00	7	Dirección del viento	8.05
72839	7	Sololá	704	Santa Lucía Utatlán 	7	Santa Rita 	1	Enero	2023-01-26T00:00:00	2024-11-08T03:00:00	1	Precipitación	0
72840	7	Sololá	704	Santa Lucía Utatlán 	7	Santa Rita 	1	Enero	2023-01-26T00:00:00	2024-11-08T03:00:00	8	Radiación solar	0
72841	7	Sololá	704	Santa Lucía Utatlán 	7	Santa Rita 	1	Enero	2023-01-26T00:00:00	2024-11-08T04:00:00	2	Temperatura media	17.8
72842	7	Sololá	704	Santa Lucía Utatlán 	7	Santa Rita 	1	Enero	2023-01-26T00:00:00	2024-11-08T04:00:00	4	Temperatura máxima	17.8
72843	7	Sololá	704	Santa Lucía Utatlán 	7	Santa Rita 	1	Enero	2023-01-26T00:00:00	2024-11-08T04:00:00	3	Temperatura mínima	16.6
72844	7	Sololá	704	Santa Lucía Utatlán 	7	Santa Rita 	1	Enero	2023-01-26T00:00:00	2024-11-08T04:00:00	5	Humedad	66
72845	7	Sololá	704	Santa Lucía Utatlán 	7	Santa Rita 	1	Enero	2023-01-26T00:00:00	2024-11-08T04:00:00	6	Velocidad del viento	6.4
72846	7	Sololá	704	Santa Lucía Utatlán 	7	Santa Rita 	1	Enero	2023-01-26T00:00:00	2024-11-08T04:00:00	7	Dirección del viento	6.44
72847	7	Sololá	704	Santa Lucía Utatlán 	7	Santa Rita 	1	Enero	2023-01-26T00:00:00	2024-11-08T04:00:00	1	Precipitación	0
72848	7	Sololá	704	Santa Lucía Utatlán 	7	Santa Rita 	1	Enero	2023-01-26T00:00:00	2024-11-08T04:00:00	8	Radiación solar	0
72849	7	Sololá	704	Santa Lucía Utatlán 	7	Santa Rita 	1	Enero	2023-01-26T00:00:00	2024-11-08T05:00:00	2	Temperatura media	18.2
72850	7	Sololá	704	Santa Lucía Utatlán 	7	Santa Rita 	1	Enero	2023-01-26T00:00:00	2024-11-08T05:00:00	4	Temperatura máxima	18.2
72851	7	Sololá	704	Santa Lucía Utatlán 	7	Santa Rita 	1	Enero	2023-01-26T00:00:00	2024-11-08T05:00:00	3	Temperatura mínima	17.6
72852	7	Sololá	704	Santa Lucía Utatlán 	7	Santa Rita 	1	Enero	2023-01-26T00:00:00	2024-11-08T05:00:00	5	Humedad	65
72853	7	Sololá	704	Santa Lucía Utatlán 	7	Santa Rita 	1	Enero	2023-01-26T00:00:00	2024-11-08T05:00:00	6	Velocidad del viento	12.9
72854	7	Sololá	704	Santa Lucía Utatlán 	7	Santa Rita 	1	Enero	2023-01-26T00:00:00	2024-11-08T05:00:00	7	Dirección del viento	12.87
72855	7	Sololá	704	Santa Lucía Utatlán 	7	Santa Rita 	1	Enero	2023-01-26T00:00:00	2024-11-08T05:00:00	1	Precipitación	0
72856	7	Sololá	704	Santa Lucía Utatlán 	7	Santa Rita 	1	Enero	2023-01-26T00:00:00	2024-11-08T05:00:00	8	Radiación solar	0
72857	7	Sololá	704	Santa Lucía Utatlán 	7	Santa Rita 	1	Enero	2023-01-26T00:00:00	2024-11-08T06:00:00	2	Temperatura media	18.4
72858	7	Sololá	704	Santa Lucía Utatlán 	7	Santa Rita 	1	Enero	2023-01-26T00:00:00	2024-11-08T06:00:00	4	Temperatura máxima	18.6
72859	7	Sololá	704	Santa Lucía Utatlán 	7	Santa Rita 	1	Enero	2023-01-26T00:00:00	2024-11-08T06:00:00	3	Temperatura mínima	18.1
72860	7	Sololá	704	Santa Lucía Utatlán 	7	Santa Rita 	1	Enero	2023-01-26T00:00:00	2024-11-08T06:00:00	5	Humedad	64
72861	7	Sololá	704	Santa Lucía Utatlán 	7	Santa Rita 	1	Enero	2023-01-26T00:00:00	2024-11-08T06:00:00	6	Velocidad del viento	11.3
72862	7	Sololá	704	Santa Lucía Utatlán 	7	Santa Rita 	1	Enero	2023-01-26T00:00:00	2024-11-08T06:00:00	7	Dirección del viento	11.27
72863	7	Sololá	704	Santa Lucía Utatlán 	7	Santa Rita 	1	Enero	2023-01-26T00:00:00	2024-11-08T06:00:00	1	Precipitación	0
72864	7	Sololá	704	Santa Lucía Utatlán 	7	Santa Rita 	1	Enero	2023-01-26T00:00:00	2024-11-08T06:00:00	8	Radiación solar	0
72865	7	Sololá	704	Santa Lucía Utatlán 	7	Santa Rita 	1	Enero	2023-01-26T00:00:00	2024-11-08T07:00:00	2	Temperatura media	18.1
72866	7	Sololá	704	Santa Lucía Utatlán 	7	Santa Rita 	1	Enero	2023-01-26T00:00:00	2024-11-08T07:00:00	4	Temperatura máxima	18.5
72867	7	Sololá	704	Santa Lucía Utatlán 	7	Santa Rita 	1	Enero	2023-01-26T00:00:00	2024-11-08T07:00:00	3	Temperatura mínima	18.1
72868	7	Sololá	704	Santa Lucía Utatlán 	7	Santa Rita 	1	Enero	2023-01-26T00:00:00	2024-11-08T07:00:00	5	Humedad	67
72869	7	Sololá	704	Santa Lucía Utatlán 	7	Santa Rita 	1	Enero	2023-01-26T00:00:00	2024-11-08T07:00:00	6	Velocidad del viento	14.5
72870	7	Sololá	704	Santa Lucía Utatlán 	7	Santa Rita 	1	Enero	2023-01-26T00:00:00	2024-11-08T07:00:00	7	Dirección del viento	14.48
72871	7	Sololá	704	Santa Lucía Utatlán 	7	Santa Rita 	1	Enero	2023-01-26T00:00:00	2024-11-08T07:00:00	1	Precipitación	0
72872	7	Sololá	704	Santa Lucía Utatlán 	7	Santa Rita 	1	Enero	2023-01-26T00:00:00	2024-11-08T07:00:00	8	Radiación solar	5
72873	7	Sololá	704	Santa Lucía Utatlán 	7	Santa Rita 	1	Enero	2023-01-26T00:00:00	2024-11-08T08:00:00	2	Temperatura media	19.8
72874	7	Sololá	704	Santa Lucía Utatlán 	7	Santa Rita 	1	Enero	2023-01-26T00:00:00	2024-11-08T08:00:00	4	Temperatura máxima	19.8
72875	7	Sololá	704	Santa Lucía Utatlán 	7	Santa Rita 	1	Enero	2023-01-26T00:00:00	2024-11-08T08:00:00	3	Temperatura mínima	18.1
72876	7	Sololá	704	Santa Lucía Utatlán 	7	Santa Rita 	1	Enero	2023-01-26T00:00:00	2024-11-08T08:00:00	5	Humedad	62
72877	7	Sololá	704	Santa Lucía Utatlán 	7	Santa Rita 	1	Enero	2023-01-26T00:00:00	2024-11-08T08:00:00	6	Velocidad del viento	14.5
72878	7	Sololá	704	Santa Lucía Utatlán 	7	Santa Rita 	1	Enero	2023-01-26T00:00:00	2024-11-08T08:00:00	7	Dirección del viento	14.48
72879	7	Sololá	704	Santa Lucía Utatlán 	7	Santa Rita 	1	Enero	2023-01-26T00:00:00	2024-11-08T08:00:00	1	Precipitación	0
72880	7	Sololá	704	Santa Lucía Utatlán 	7	Santa Rita 	1	Enero	2023-01-26T00:00:00	2024-11-08T08:00:00	8	Radiación solar	132
72881	7	Sololá	704	Santa Lucía Utatlán 	7	Santa Rita 	1	Enero	2023-01-26T00:00:00	2024-11-08T09:00:00	2	Temperatura media	20.6
72882	7	Sololá	704	Santa Lucía Utatlán 	7	Santa Rita 	1	Enero	2023-01-26T00:00:00	2024-11-08T09:00:00	4	Temperatura máxima	20.6
72883	7	Sololá	704	Santa Lucía Utatlán 	7	Santa Rita 	1	Enero	2023-01-26T00:00:00	2024-11-08T09:00:00	3	Temperatura mínima	19.7
72884	7	Sololá	704	Santa Lucía Utatlán 	7	Santa Rita 	1	Enero	2023-01-26T00:00:00	2024-11-08T09:00:00	5	Humedad	58
72885	7	Sololá	704	Santa Lucía Utatlán 	7	Santa Rita 	1	Enero	2023-01-26T00:00:00	2024-11-08T09:00:00	6	Velocidad del viento	11.3
72886	7	Sololá	704	Santa Lucía Utatlán 	7	Santa Rita 	1	Enero	2023-01-26T00:00:00	2024-11-08T09:00:00	7	Dirección del viento	11.27
72887	7	Sololá	704	Santa Lucía Utatlán 	7	Santa Rita 	1	Enero	2023-01-26T00:00:00	2024-11-08T09:00:00	1	Precipitación	0
72888	7	Sololá	704	Santa Lucía Utatlán 	7	Santa Rita 	1	Enero	2023-01-26T00:00:00	2024-11-08T09:00:00	8	Radiación solar	370
72889	7	Sololá	704	Santa Lucía Utatlán 	7	Santa Rita 	1	Enero	2023-01-26T00:00:00	2024-11-08T10:00:00	2	Temperatura media	22.4
72890	7	Sololá	704	Santa Lucía Utatlán 	7	Santa Rita 	1	Enero	2023-01-26T00:00:00	2024-11-08T10:00:00	4	Temperatura máxima	22.4
72891	7	Sololá	704	Santa Lucía Utatlán 	7	Santa Rita 	1	Enero	2023-01-26T00:00:00	2024-11-08T10:00:00	3	Temperatura mínima	20.6
72892	7	Sololá	704	Santa Lucía Utatlán 	7	Santa Rita 	1	Enero	2023-01-26T00:00:00	2024-11-08T10:00:00	5	Humedad	51
72893	7	Sololá	704	Santa Lucía Utatlán 	7	Santa Rita 	1	Enero	2023-01-26T00:00:00	2024-11-08T10:00:00	6	Velocidad del viento	9.7
72894	7	Sololá	704	Santa Lucía Utatlán 	7	Santa Rita 	1	Enero	2023-01-26T00:00:00	2024-11-08T10:00:00	7	Dirección del viento	9.66
72895	7	Sololá	704	Santa Lucía Utatlán 	7	Santa Rita 	1	Enero	2023-01-26T00:00:00	2024-11-08T10:00:00	1	Precipitación	0
72896	7	Sololá	704	Santa Lucía Utatlán 	7	Santa Rita 	1	Enero	2023-01-26T00:00:00	2024-11-08T10:00:00	8	Radiación solar	570
72897	7	Sololá	704	Santa Lucía Utatlán 	7	Santa Rita 	1	Enero	2023-01-26T00:00:00	2024-11-08T11:00:00	2	Temperatura media	23.4
72898	7	Sololá	704	Santa Lucía Utatlán 	7	Santa Rita 	1	Enero	2023-01-26T00:00:00	2024-11-08T11:00:00	4	Temperatura máxima	23.7
72899	7	Sololá	704	Santa Lucía Utatlán 	7	Santa Rita 	1	Enero	2023-01-26T00:00:00	2024-11-08T11:00:00	3	Temperatura mínima	22.4
72900	7	Sololá	704	Santa Lucía Utatlán 	7	Santa Rita 	1	Enero	2023-01-26T00:00:00	2024-11-08T11:00:00	5	Humedad	45
72901	7	Sololá	704	Santa Lucía Utatlán 	7	Santa Rita 	1	Enero	2023-01-26T00:00:00	2024-11-08T11:00:00	6	Velocidad del viento	8
72902	7	Sololá	704	Santa Lucía Utatlán 	7	Santa Rita 	1	Enero	2023-01-26T00:00:00	2024-11-08T11:00:00	7	Dirección del viento	8.05
72903	7	Sololá	704	Santa Lucía Utatlán 	7	Santa Rita 	1	Enero	2023-01-26T00:00:00	2024-11-08T11:00:00	1	Precipitación	0
72904	7	Sololá	704	Santa Lucía Utatlán 	7	Santa Rita 	1	Enero	2023-01-26T00:00:00	2024-11-08T11:00:00	8	Radiación solar	729
72905	7	Sololá	704	Santa Lucía Utatlán 	7	Santa Rita 	1	Enero	2023-01-26T00:00:00	2024-11-08T12:00:00	2	Temperatura media	24.1
72906	7	Sololá	704	Santa Lucía Utatlán 	7	Santa Rita 	1	Enero	2023-01-26T00:00:00	2024-11-08T12:00:00	4	Temperatura máxima	24.4
72907	7	Sololá	704	Santa Lucía Utatlán 	7	Santa Rita 	1	Enero	2023-01-26T00:00:00	2024-11-08T12:00:00	3	Temperatura mínima	23.4
72908	7	Sololá	704	Santa Lucía Utatlán 	7	Santa Rita 	1	Enero	2023-01-26T00:00:00	2024-11-08T12:00:00	5	Humedad	44
72909	7	Sololá	704	Santa Lucía Utatlán 	7	Santa Rita 	1	Enero	2023-01-26T00:00:00	2024-11-08T12:00:00	6	Velocidad del viento	8
72910	7	Sololá	704	Santa Lucía Utatlán 	7	Santa Rita 	1	Enero	2023-01-26T00:00:00	2024-11-08T12:00:00	7	Dirección del viento	8.05
72911	7	Sololá	704	Santa Lucía Utatlán 	7	Santa Rita 	1	Enero	2023-01-26T00:00:00	2024-11-08T12:00:00	1	Precipitación	0
72912	7	Sololá	704	Santa Lucía Utatlán 	7	Santa Rita 	1	Enero	2023-01-26T00:00:00	2024-11-08T12:00:00	8	Radiación solar	822
72913	7	Sololá	704	Santa Lucía Utatlán 	7	Santa Rita 	1	Enero	2023-01-26T00:00:00	2024-11-08T13:00:00	2	Temperatura media	23.6
72914	7	Sololá	704	Santa Lucía Utatlán 	7	Santa Rita 	1	Enero	2023-01-26T00:00:00	2024-11-08T13:00:00	4	Temperatura máxima	24.6
72915	7	Sololá	704	Santa Lucía Utatlán 	7	Santa Rita 	1	Enero	2023-01-26T00:00:00	2024-11-08T13:00:00	3	Temperatura mínima	23.6
72916	7	Sololá	704	Santa Lucía Utatlán 	7	Santa Rita 	1	Enero	2023-01-26T00:00:00	2024-11-08T13:00:00	5	Humedad	52
72917	7	Sololá	704	Santa Lucía Utatlán 	7	Santa Rita 	1	Enero	2023-01-26T00:00:00	2024-11-08T13:00:00	6	Velocidad del viento	11.3
72918	7	Sololá	704	Santa Lucía Utatlán 	7	Santa Rita 	1	Enero	2023-01-26T00:00:00	2024-11-08T13:00:00	7	Dirección del viento	11.27
72919	7	Sololá	704	Santa Lucía Utatlán 	7	Santa Rita 	1	Enero	2023-01-26T00:00:00	2024-11-08T13:00:00	1	Precipitación	0
72920	7	Sololá	704	Santa Lucía Utatlán 	7	Santa Rita 	1	Enero	2023-01-26T00:00:00	2024-11-08T13:00:00	8	Radiación solar	872
72921	7	Sololá	704	Santa Lucía Utatlán 	7	Santa Rita 	1	Enero	2023-01-26T00:00:00	2024-11-08T14:00:00	2	Temperatura media	23
72922	7	Sololá	704	Santa Lucía Utatlán 	7	Santa Rita 	1	Enero	2023-01-26T00:00:00	2024-11-08T14:00:00	4	Temperatura máxima	24.7
72923	7	Sololá	704	Santa Lucía Utatlán 	7	Santa Rita 	1	Enero	2023-01-26T00:00:00	2024-11-08T14:00:00	3	Temperatura mínima	22.8
72924	7	Sololá	704	Santa Lucía Utatlán 	7	Santa Rita 	1	Enero	2023-01-26T00:00:00	2024-11-08T14:00:00	5	Humedad	55
72925	7	Sololá	704	Santa Lucía Utatlán 	7	Santa Rita 	1	Enero	2023-01-26T00:00:00	2024-11-08T14:00:00	6	Velocidad del viento	9.7
72926	7	Sololá	704	Santa Lucía Utatlán 	7	Santa Rita 	1	Enero	2023-01-26T00:00:00	2024-11-08T14:00:00	7	Dirección del viento	9.66
72927	7	Sololá	704	Santa Lucía Utatlán 	7	Santa Rita 	1	Enero	2023-01-26T00:00:00	2024-11-08T14:00:00	1	Precipitación	0
72928	7	Sololá	704	Santa Lucía Utatlán 	7	Santa Rita 	1	Enero	2023-01-26T00:00:00	2024-11-08T14:00:00	8	Radiación solar	714
72929	7	Sololá	704	Santa Lucía Utatlán 	7	Santa Rita 	1	Enero	2023-01-26T00:00:00	2024-11-08T15:00:00	2	Temperatura media	22.2
72930	7	Sololá	704	Santa Lucía Utatlán 	7	Santa Rita 	1	Enero	2023-01-26T00:00:00	2024-11-08T15:00:00	4	Temperatura máxima	23.6
72931	7	Sololá	704	Santa Lucía Utatlán 	7	Santa Rita 	1	Enero	2023-01-26T00:00:00	2024-11-08T15:00:00	3	Temperatura mínima	22.2
72932	7	Sololá	704	Santa Lucía Utatlán 	7	Santa Rita 	1	Enero	2023-01-26T00:00:00	2024-11-08T15:00:00	5	Humedad	55
72933	7	Sololá	704	Santa Lucía Utatlán 	7	Santa Rita 	1	Enero	2023-01-26T00:00:00	2024-11-08T15:00:00	6	Velocidad del viento	11.3
72934	7	Sololá	704	Santa Lucía Utatlán 	7	Santa Rita 	1	Enero	2023-01-26T00:00:00	2024-11-08T15:00:00	7	Dirección del viento	11.27
72935	7	Sololá	704	Santa Lucía Utatlán 	7	Santa Rita 	1	Enero	2023-01-26T00:00:00	2024-11-08T15:00:00	1	Precipitación	0
72936	7	Sololá	704	Santa Lucía Utatlán 	7	Santa Rita 	1	Enero	2023-01-26T00:00:00	2024-11-08T15:00:00	8	Radiación solar	590
72937	7	Sololá	704	Santa Lucía Utatlán 	7	Santa Rita 	1	Enero	2023-01-26T00:00:00	2024-11-08T16:00:00	2	Temperatura media	21.5
72938	7	Sololá	704	Santa Lucía Utatlán 	7	Santa Rita 	1	Enero	2023-01-26T00:00:00	2024-11-08T16:00:00	4	Temperatura máxima	22.2
72939	7	Sololá	704	Santa Lucía Utatlán 	7	Santa Rita 	1	Enero	2023-01-26T00:00:00	2024-11-08T16:00:00	3	Temperatura mínima	20.8
72940	7	Sololá	704	Santa Lucía Utatlán 	7	Santa Rita 	1	Enero	2023-01-26T00:00:00	2024-11-08T16:00:00	5	Humedad	58
72941	7	Sololá	704	Santa Lucía Utatlán 	7	Santa Rita 	1	Enero	2023-01-26T00:00:00	2024-11-08T16:00:00	6	Velocidad del viento	8
72942	7	Sololá	704	Santa Lucía Utatlán 	7	Santa Rita 	1	Enero	2023-01-26T00:00:00	2024-11-08T16:00:00	7	Dirección del viento	8.05
72943	7	Sololá	704	Santa Lucía Utatlán 	7	Santa Rita 	1	Enero	2023-01-26T00:00:00	2024-11-08T16:00:00	1	Precipitación	0
72944	7	Sololá	704	Santa Lucía Utatlán 	7	Santa Rita 	1	Enero	2023-01-26T00:00:00	2024-11-08T16:00:00	8	Radiación solar	149
72945	7	Sololá	704	Santa Lucía Utatlán 	7	Santa Rita 	1	Enero	2023-01-26T00:00:00	2024-11-08T17:00:00	2	Temperatura media	20.2
72946	7	Sololá	704	Santa Lucía Utatlán 	7	Santa Rita 	1	Enero	2023-01-26T00:00:00	2024-11-08T17:00:00	4	Temperatura máxima	21.6
72947	7	Sololá	704	Santa Lucía Utatlán 	7	Santa Rita 	1	Enero	2023-01-26T00:00:00	2024-11-08T17:00:00	3	Temperatura mínima	20.2
72948	7	Sololá	704	Santa Lucía Utatlán 	7	Santa Rita 	1	Enero	2023-01-26T00:00:00	2024-11-08T17:00:00	5	Humedad	61
72949	7	Sololá	704	Santa Lucía Utatlán 	7	Santa Rita 	1	Enero	2023-01-26T00:00:00	2024-11-08T17:00:00	6	Velocidad del viento	9.7
72950	7	Sololá	704	Santa Lucía Utatlán 	7	Santa Rita 	1	Enero	2023-01-26T00:00:00	2024-11-08T17:00:00	7	Dirección del viento	9.66
72951	7	Sololá	704	Santa Lucía Utatlán 	7	Santa Rita 	1	Enero	2023-01-26T00:00:00	2024-11-08T17:00:00	1	Precipitación	0
72952	7	Sololá	704	Santa Lucía Utatlán 	7	Santa Rita 	1	Enero	2023-01-26T00:00:00	2024-11-08T17:00:00	8	Radiación solar	167
72953	7	Sololá	704	Santa Lucía Utatlán 	7	Santa Rita 	1	Enero	2023-01-26T00:00:00	2024-11-08T18:00:00	2	Temperatura media	18.3
72954	7	Sololá	704	Santa Lucía Utatlán 	7	Santa Rita 	1	Enero	2023-01-26T00:00:00	2024-11-08T18:00:00	4	Temperatura máxima	20.2
72955	7	Sololá	704	Santa Lucía Utatlán 	7	Santa Rita 	1	Enero	2023-01-26T00:00:00	2024-11-08T18:00:00	3	Temperatura mínima	18.3
72956	7	Sololá	704	Santa Lucía Utatlán 	7	Santa Rita 	1	Enero	2023-01-26T00:00:00	2024-11-08T18:00:00	5	Humedad	65
72957	7	Sololá	704	Santa Lucía Utatlán 	7	Santa Rita 	1	Enero	2023-01-26T00:00:00	2024-11-08T18:00:00	6	Velocidad del viento	9.7
72958	7	Sololá	704	Santa Lucía Utatlán 	7	Santa Rita 	1	Enero	2023-01-26T00:00:00	2024-11-08T18:00:00	7	Dirección del viento	9.66
72959	7	Sololá	704	Santa Lucía Utatlán 	7	Santa Rita 	1	Enero	2023-01-26T00:00:00	2024-11-08T18:00:00	1	Precipitación	0
72960	7	Sololá	704	Santa Lucía Utatlán 	7	Santa Rita 	1	Enero	2023-01-26T00:00:00	2024-11-08T18:00:00	8	Radiación solar	17
72961	7	Sololá	704	Santa Lucía Utatlán 	7	Santa Rita 	1	Enero	2023-01-26T00:00:00	2024-11-08T19:00:00	2	Temperatura media	18.1
72962	7	Sololá	704	Santa Lucía Utatlán 	7	Santa Rita 	1	Enero	2023-01-26T00:00:00	2024-11-08T19:00:00	4	Temperatura máxima	18.3
72963	7	Sololá	704	Santa Lucía Utatlán 	7	Santa Rita 	1	Enero	2023-01-26T00:00:00	2024-11-08T19:00:00	3	Temperatura mínima	18
72964	7	Sololá	704	Santa Lucía Utatlán 	7	Santa Rita 	1	Enero	2023-01-26T00:00:00	2024-11-08T19:00:00	5	Humedad	65
72965	7	Sololá	704	Santa Lucía Utatlán 	7	Santa Rita 	1	Enero	2023-01-26T00:00:00	2024-11-08T19:00:00	6	Velocidad del viento	17.7
72966	7	Sololá	704	Santa Lucía Utatlán 	7	Santa Rita 	1	Enero	2023-01-26T00:00:00	2024-11-08T19:00:00	7	Dirección del viento	17.7
72967	7	Sololá	704	Santa Lucía Utatlán 	7	Santa Rita 	1	Enero	2023-01-26T00:00:00	2024-11-08T19:00:00	1	Precipitación	0
72968	7	Sololá	704	Santa Lucía Utatlán 	7	Santa Rita 	1	Enero	2023-01-26T00:00:00	2024-11-08T19:00:00	8	Radiación solar	0
72969	7	Sololá	704	Santa Lucía Utatlán 	7	Santa Rita 	1	Enero	2023-01-26T00:00:00	2024-11-08T20:00:00	2	Temperatura media	18
72970	7	Sololá	704	Santa Lucía Utatlán 	7	Santa Rita 	1	Enero	2023-01-26T00:00:00	2024-11-08T20:00:00	4	Temperatura máxima	18.3
72971	7	Sololá	704	Santa Lucía Utatlán 	7	Santa Rita 	1	Enero	2023-01-26T00:00:00	2024-11-08T20:00:00	3	Temperatura mínima	17.9
72972	7	Sololá	704	Santa Lucía Utatlán 	7	Santa Rita 	1	Enero	2023-01-26T00:00:00	2024-11-08T20:00:00	5	Humedad	63
72973	7	Sololá	704	Santa Lucía Utatlán 	7	Santa Rita 	1	Enero	2023-01-26T00:00:00	2024-11-08T20:00:00	6	Velocidad del viento	14.5
72974	7	Sololá	704	Santa Lucía Utatlán 	7	Santa Rita 	1	Enero	2023-01-26T00:00:00	2024-11-08T20:00:00	7	Dirección del viento	14.48
72975	7	Sololá	704	Santa Lucía Utatlán 	7	Santa Rita 	1	Enero	2023-01-26T00:00:00	2024-11-08T20:00:00	1	Precipitación	0
72976	7	Sololá	704	Santa Lucía Utatlán 	7	Santa Rita 	1	Enero	2023-01-26T00:00:00	2024-11-08T20:00:00	8	Radiación solar	0
72977	7	Sololá	704	Santa Lucía Utatlán 	7	Santa Rita 	1	Enero	2023-01-26T00:00:00	2024-11-08T21:00:00	2	Temperatura media	18.4
72978	7	Sololá	704	Santa Lucía Utatlán 	7	Santa Rita 	1	Enero	2023-01-26T00:00:00	2024-11-08T21:00:00	4	Temperatura máxima	18.6
72979	7	Sololá	704	Santa Lucía Utatlán 	7	Santa Rita 	1	Enero	2023-01-26T00:00:00	2024-11-08T21:00:00	3	Temperatura mínima	18
72980	7	Sololá	704	Santa Lucía Utatlán 	7	Santa Rita 	1	Enero	2023-01-26T00:00:00	2024-11-08T21:00:00	5	Humedad	58
72981	7	Sololá	704	Santa Lucía Utatlán 	7	Santa Rita 	1	Enero	2023-01-26T00:00:00	2024-11-08T21:00:00	6	Velocidad del viento	9.7
72982	7	Sololá	704	Santa Lucía Utatlán 	7	Santa Rita 	1	Enero	2023-01-26T00:00:00	2024-11-08T21:00:00	7	Dirección del viento	9.66
72983	7	Sololá	704	Santa Lucía Utatlán 	7	Santa Rita 	1	Enero	2023-01-26T00:00:00	2024-11-08T21:00:00	1	Precipitación	0
72984	7	Sololá	704	Santa Lucía Utatlán 	7	Santa Rita 	1	Enero	2023-01-26T00:00:00	2024-11-08T21:00:00	8	Radiación solar	0
72985	7	Sololá	704	Santa Lucía Utatlán 	7	Santa Rita 	1	Enero	2023-01-26T00:00:00	2024-11-08T22:00:00	2	Temperatura media	17.9
72986	7	Sololá	704	Santa Lucía Utatlán 	7	Santa Rita 	1	Enero	2023-01-26T00:00:00	2024-11-08T22:00:00	4	Temperatura máxima	18.5
72987	7	Sololá	704	Santa Lucía Utatlán 	7	Santa Rita 	1	Enero	2023-01-26T00:00:00	2024-11-08T22:00:00	3	Temperatura mínima	17.7
72988	7	Sololá	704	Santa Lucía Utatlán 	7	Santa Rita 	1	Enero	2023-01-26T00:00:00	2024-11-08T22:00:00	5	Humedad	66
72989	7	Sololá	704	Santa Lucía Utatlán 	7	Santa Rita 	1	Enero	2023-01-26T00:00:00	2024-11-08T22:00:00	6	Velocidad del viento	9.7
72990	7	Sololá	704	Santa Lucía Utatlán 	7	Santa Rita 	1	Enero	2023-01-26T00:00:00	2024-11-08T22:00:00	7	Dirección del viento	9.66
72991	7	Sololá	704	Santa Lucía Utatlán 	7	Santa Rita 	1	Enero	2023-01-26T00:00:00	2024-11-08T22:00:00	1	Precipitación	0
72992	7	Sololá	704	Santa Lucía Utatlán 	7	Santa Rita 	1	Enero	2023-01-26T00:00:00	2024-11-08T22:00:00	8	Radiación solar	0
72993	7	Sololá	704	Santa Lucía Utatlán 	7	Santa Rita 	1	Enero	2023-01-26T00:00:00	2024-11-08T23:00:00	2	Temperatura media	18.1
72994	7	Sololá	704	Santa Lucía Utatlán 	7	Santa Rita 	1	Enero	2023-01-26T00:00:00	2024-11-08T23:00:00	4	Temperatura máxima	18.1
72995	7	Sololá	704	Santa Lucía Utatlán 	7	Santa Rita 	1	Enero	2023-01-26T00:00:00	2024-11-08T23:00:00	3	Temperatura mínima	17.6
72996	7	Sololá	704	Santa Lucía Utatlán 	7	Santa Rita 	1	Enero	2023-01-26T00:00:00	2024-11-08T23:00:00	5	Humedad	66
72997	7	Sololá	704	Santa Lucía Utatlán 	7	Santa Rita 	1	Enero	2023-01-26T00:00:00	2024-11-08T23:00:00	6	Velocidad del viento	12.9
72998	7	Sololá	704	Santa Lucía Utatlán 	7	Santa Rita 	1	Enero	2023-01-26T00:00:00	2024-11-08T23:00:00	7	Dirección del viento	12.87
72999	7	Sololá	704	Santa Lucía Utatlán 	7	Santa Rita 	1	Enero	2023-01-26T00:00:00	2024-11-08T23:00:00	1	Precipitación	0
73000	7	Sololá	704	Santa Lucía Utatlán 	7	Santa Rita 	1	Enero	2023-01-26T00:00:00	2024-11-08T23:00:00	8	Radiación solar	0
73001	7	Sololá	704	Santa Lucía Utatlán 	7	Santa Rita 	1	Enero	2023-01-27T00:00:00	2024-11-08T00:00:00	2	Temperatura media	17.8
73002	7	Sololá	704	Santa Lucía Utatlán 	7	Santa Rita 	1	Enero	2023-01-27T00:00:00	2024-11-08T00:00:00	4	Temperatura máxima	18.6
73003	7	Sololá	704	Santa Lucía Utatlán 	7	Santa Rita 	1	Enero	2023-01-27T00:00:00	2024-11-08T00:00:00	3	Temperatura mínima	17.8
73004	7	Sololá	704	Santa Lucía Utatlán 	7	Santa Rita 	1	Enero	2023-01-27T00:00:00	2024-11-08T00:00:00	5	Humedad	70
73005	7	Sololá	704	Santa Lucía Utatlán 	7	Santa Rita 	1	Enero	2023-01-27T00:00:00	2024-11-08T00:00:00	6	Velocidad del viento	11.3
73006	7	Sololá	704	Santa Lucía Utatlán 	7	Santa Rita 	1	Enero	2023-01-27T00:00:00	2024-11-08T00:00:00	7	Dirección del viento	11.27
73007	7	Sololá	704	Santa Lucía Utatlán 	7	Santa Rita 	1	Enero	2023-01-27T00:00:00	2024-11-08T00:00:00	1	Precipitación	0
73008	7	Sololá	704	Santa Lucía Utatlán 	7	Santa Rita 	1	Enero	2023-01-27T00:00:00	2024-11-08T00:00:00	8	Radiación solar	0
73009	7	Sololá	704	Santa Lucía Utatlán 	7	Santa Rita 	1	Enero	2023-01-27T00:00:00	2024-11-08T01:00:00	2	Temperatura media	18.2
73010	7	Sololá	704	Santa Lucía Utatlán 	7	Santa Rita 	1	Enero	2023-01-27T00:00:00	2024-11-08T01:00:00	4	Temperatura máxima	18.2
73011	7	Sololá	704	Santa Lucía Utatlán 	7	Santa Rita 	1	Enero	2023-01-27T00:00:00	2024-11-08T01:00:00	3	Temperatura mínima	17.4
73012	7	Sololá	704	Santa Lucía Utatlán 	7	Santa Rita 	1	Enero	2023-01-27T00:00:00	2024-11-08T01:00:00	5	Humedad	67
73013	7	Sololá	704	Santa Lucía Utatlán 	7	Santa Rita 	1	Enero	2023-01-27T00:00:00	2024-11-08T01:00:00	6	Velocidad del viento	12.9
73014	7	Sololá	704	Santa Lucía Utatlán 	7	Santa Rita 	1	Enero	2023-01-27T00:00:00	2024-11-08T01:00:00	7	Dirección del viento	12.87
73015	7	Sololá	704	Santa Lucía Utatlán 	7	Santa Rita 	1	Enero	2023-01-27T00:00:00	2024-11-08T01:00:00	1	Precipitación	0
73016	7	Sololá	704	Santa Lucía Utatlán 	7	Santa Rita 	1	Enero	2023-01-27T00:00:00	2024-11-08T01:00:00	8	Radiación solar	0
73017	7	Sololá	704	Santa Lucía Utatlán 	7	Santa Rita 	1	Enero	2023-01-27T00:00:00	2024-11-08T02:00:00	2	Temperatura media	18.1
73018	7	Sololá	704	Santa Lucía Utatlán 	7	Santa Rita 	1	Enero	2023-01-27T00:00:00	2024-11-08T02:00:00	4	Temperatura máxima	18.5
73019	7	Sololá	704	Santa Lucía Utatlán 	7	Santa Rita 	1	Enero	2023-01-27T00:00:00	2024-11-08T02:00:00	3	Temperatura mínima	18
73020	7	Sololá	704	Santa Lucía Utatlán 	7	Santa Rita 	1	Enero	2023-01-27T00:00:00	2024-11-08T02:00:00	5	Humedad	74
73021	7	Sololá	704	Santa Lucía Utatlán 	7	Santa Rita 	1	Enero	2023-01-27T00:00:00	2024-11-08T02:00:00	6	Velocidad del viento	12.9
73022	7	Sololá	704	Santa Lucía Utatlán 	7	Santa Rita 	1	Enero	2023-01-27T00:00:00	2024-11-08T02:00:00	7	Dirección del viento	12.87
73023	7	Sololá	704	Santa Lucía Utatlán 	7	Santa Rita 	1	Enero	2023-01-27T00:00:00	2024-11-08T02:00:00	1	Precipitación	0
73024	7	Sololá	704	Santa Lucía Utatlán 	7	Santa Rita 	1	Enero	2023-01-27T00:00:00	2024-11-08T02:00:00	8	Radiación solar	0
73025	7	Sololá	704	Santa Lucía Utatlán 	7	Santa Rita 	1	Enero	2023-01-27T00:00:00	2024-11-08T03:00:00	2	Temperatura media	17.7
73026	7	Sololá	704	Santa Lucía Utatlán 	7	Santa Rita 	1	Enero	2023-01-27T00:00:00	2024-11-08T03:00:00	4	Temperatura máxima	18.2
73027	7	Sololá	704	Santa Lucía Utatlán 	7	Santa Rita 	1	Enero	2023-01-27T00:00:00	2024-11-08T03:00:00	3	Temperatura mínima	17.6
73028	7	Sololá	704	Santa Lucía Utatlán 	7	Santa Rita 	1	Enero	2023-01-27T00:00:00	2024-11-08T03:00:00	5	Humedad	76
73029	7	Sololá	704	Santa Lucía Utatlán 	7	Santa Rita 	1	Enero	2023-01-27T00:00:00	2024-11-08T03:00:00	6	Velocidad del viento	16.1
73030	7	Sololá	704	Santa Lucía Utatlán 	7	Santa Rita 	1	Enero	2023-01-27T00:00:00	2024-11-08T03:00:00	7	Dirección del viento	16.09
73031	7	Sololá	704	Santa Lucía Utatlán 	7	Santa Rita 	1	Enero	2023-01-27T00:00:00	2024-11-08T03:00:00	1	Precipitación	0
73032	7	Sololá	704	Santa Lucía Utatlán 	7	Santa Rita 	1	Enero	2023-01-27T00:00:00	2024-11-08T03:00:00	8	Radiación solar	0
73033	7	Sololá	704	Santa Lucía Utatlán 	7	Santa Rita 	1	Enero	2023-01-27T00:00:00	2024-11-08T04:00:00	2	Temperatura media	17.8
73034	7	Sololá	704	Santa Lucía Utatlán 	7	Santa Rita 	1	Enero	2023-01-27T00:00:00	2024-11-08T04:00:00	4	Temperatura máxima	18.1
73035	7	Sololá	704	Santa Lucía Utatlán 	7	Santa Rita 	1	Enero	2023-01-27T00:00:00	2024-11-08T04:00:00	3	Temperatura mínima	17.7
73036	7	Sololá	704	Santa Lucía Utatlán 	7	Santa Rita 	1	Enero	2023-01-27T00:00:00	2024-11-08T04:00:00	5	Humedad	75
73037	7	Sololá	704	Santa Lucía Utatlán 	7	Santa Rita 	1	Enero	2023-01-27T00:00:00	2024-11-08T04:00:00	6	Velocidad del viento	14.5
73038	7	Sololá	704	Santa Lucía Utatlán 	7	Santa Rita 	1	Enero	2023-01-27T00:00:00	2024-11-08T04:00:00	7	Dirección del viento	14.48
73039	7	Sololá	704	Santa Lucía Utatlán 	7	Santa Rita 	1	Enero	2023-01-27T00:00:00	2024-11-08T04:00:00	1	Precipitación	0
73040	7	Sololá	704	Santa Lucía Utatlán 	7	Santa Rita 	1	Enero	2023-01-27T00:00:00	2024-11-08T04:00:00	8	Radiación solar	0
73041	7	Sololá	704	Santa Lucía Utatlán 	7	Santa Rita 	1	Enero	2023-01-27T00:00:00	2024-11-08T05:00:00	2	Temperatura media	17.9
73042	7	Sololá	704	Santa Lucía Utatlán 	7	Santa Rita 	1	Enero	2023-01-27T00:00:00	2024-11-08T05:00:00	4	Temperatura máxima	18.2
73043	7	Sololá	704	Santa Lucía Utatlán 	7	Santa Rita 	1	Enero	2023-01-27T00:00:00	2024-11-08T05:00:00	3	Temperatura mínima	17.7
73044	7	Sololá	704	Santa Lucía Utatlán 	7	Santa Rita 	1	Enero	2023-01-27T00:00:00	2024-11-08T05:00:00	5	Humedad	73
73045	7	Sololá	704	Santa Lucía Utatlán 	7	Santa Rita 	1	Enero	2023-01-27T00:00:00	2024-11-08T05:00:00	6	Velocidad del viento	9.7
73046	7	Sololá	704	Santa Lucía Utatlán 	7	Santa Rita 	1	Enero	2023-01-27T00:00:00	2024-11-08T05:00:00	7	Dirección del viento	9.66
73047	7	Sololá	704	Santa Lucía Utatlán 	7	Santa Rita 	1	Enero	2023-01-27T00:00:00	2024-11-08T05:00:00	1	Precipitación	0
73048	7	Sololá	704	Santa Lucía Utatlán 	7	Santa Rita 	1	Enero	2023-01-27T00:00:00	2024-11-08T05:00:00	8	Radiación solar	0
73049	7	Sololá	704	Santa Lucía Utatlán 	7	Santa Rita 	1	Enero	2023-01-27T00:00:00	2024-11-08T06:00:00	2	Temperatura media	17.9
73050	7	Sololá	704	Santa Lucía Utatlán 	7	Santa Rita 	1	Enero	2023-01-27T00:00:00	2024-11-08T06:00:00	4	Temperatura máxima	18.1
73051	7	Sololá	704	Santa Lucía Utatlán 	7	Santa Rita 	1	Enero	2023-01-27T00:00:00	2024-11-08T06:00:00	3	Temperatura mínima	17.8
73052	7	Sololá	704	Santa Lucía Utatlán 	7	Santa Rita 	1	Enero	2023-01-27T00:00:00	2024-11-08T06:00:00	5	Humedad	73
73053	7	Sololá	704	Santa Lucía Utatlán 	7	Santa Rita 	1	Enero	2023-01-27T00:00:00	2024-11-08T06:00:00	6	Velocidad del viento	8
73054	7	Sololá	704	Santa Lucía Utatlán 	7	Santa Rita 	1	Enero	2023-01-27T00:00:00	2024-11-08T06:00:00	7	Dirección del viento	8.05
73055	7	Sololá	704	Santa Lucía Utatlán 	7	Santa Rita 	1	Enero	2023-01-27T00:00:00	2024-11-08T06:00:00	1	Precipitación	0
73056	7	Sololá	704	Santa Lucía Utatlán 	7	Santa Rita 	1	Enero	2023-01-27T00:00:00	2024-11-08T06:00:00	8	Radiación solar	0
73057	7	Sololá	704	Santa Lucía Utatlán 	7	Santa Rita 	1	Enero	2023-01-27T00:00:00	2024-11-08T07:00:00	2	Temperatura media	18.1
73058	7	Sololá	704	Santa Lucía Utatlán 	7	Santa Rita 	1	Enero	2023-01-27T00:00:00	2024-11-08T07:00:00	4	Temperatura máxima	18.1
73059	7	Sololá	704	Santa Lucía Utatlán 	7	Santa Rita 	1	Enero	2023-01-27T00:00:00	2024-11-08T07:00:00	3	Temperatura mínima	17.7
73060	7	Sololá	704	Santa Lucía Utatlán 	7	Santa Rita 	1	Enero	2023-01-27T00:00:00	2024-11-08T07:00:00	5	Humedad	66
73061	7	Sololá	704	Santa Lucía Utatlán 	7	Santa Rita 	1	Enero	2023-01-27T00:00:00	2024-11-08T07:00:00	6	Velocidad del viento	6.4
73062	7	Sololá	704	Santa Lucía Utatlán 	7	Santa Rita 	1	Enero	2023-01-27T00:00:00	2024-11-08T07:00:00	7	Dirección del viento	6.44
73063	7	Sololá	704	Santa Lucía Utatlán 	7	Santa Rita 	1	Enero	2023-01-27T00:00:00	2024-11-08T07:00:00	1	Precipitación	0
73064	7	Sololá	704	Santa Lucía Utatlán 	7	Santa Rita 	1	Enero	2023-01-27T00:00:00	2024-11-08T07:00:00	8	Radiación solar	8
73065	7	Sololá	704	Santa Lucía Utatlán 	7	Santa Rita 	1	Enero	2023-01-27T00:00:00	2024-11-08T08:00:00	2	Temperatura media	20.1
73066	7	Sololá	704	Santa Lucía Utatlán 	7	Santa Rita 	1	Enero	2023-01-27T00:00:00	2024-11-08T08:00:00	4	Temperatura máxima	20.2
73067	7	Sololá	704	Santa Lucía Utatlán 	7	Santa Rita 	1	Enero	2023-01-27T00:00:00	2024-11-08T08:00:00	3	Temperatura mínima	18.1
73068	7	Sololá	704	Santa Lucía Utatlán 	7	Santa Rita 	1	Enero	2023-01-27T00:00:00	2024-11-08T08:00:00	5	Humedad	64
73069	7	Sololá	704	Santa Lucía Utatlán 	7	Santa Rita 	1	Enero	2023-01-27T00:00:00	2024-11-08T08:00:00	6	Velocidad del viento	6.4
73070	7	Sololá	704	Santa Lucía Utatlán 	7	Santa Rita 	1	Enero	2023-01-27T00:00:00	2024-11-08T08:00:00	7	Dirección del viento	6.44
73071	7	Sololá	704	Santa Lucía Utatlán 	7	Santa Rita 	1	Enero	2023-01-27T00:00:00	2024-11-08T08:00:00	1	Precipitación	0
73072	7	Sololá	704	Santa Lucía Utatlán 	7	Santa Rita 	1	Enero	2023-01-27T00:00:00	2024-11-08T08:00:00	8	Radiación solar	127
73073	7	Sololá	704	Santa Lucía Utatlán 	7	Santa Rita 	1	Enero	2023-01-27T00:00:00	2024-11-08T09:00:00	2	Temperatura media	21
73074	7	Sololá	704	Santa Lucía Utatlán 	7	Santa Rita 	1	Enero	2023-01-27T00:00:00	2024-11-08T09:00:00	4	Temperatura máxima	21.2
73075	7	Sololá	704	Santa Lucía Utatlán 	7	Santa Rita 	1	Enero	2023-01-27T00:00:00	2024-11-08T09:00:00	3	Temperatura mínima	20
73076	7	Sololá	704	Santa Lucía Utatlán 	7	Santa Rita 	1	Enero	2023-01-27T00:00:00	2024-11-08T09:00:00	5	Humedad	63
73077	7	Sololá	704	Santa Lucía Utatlán 	7	Santa Rita 	1	Enero	2023-01-27T00:00:00	2024-11-08T09:00:00	6	Velocidad del viento	9.7
73078	7	Sololá	704	Santa Lucía Utatlán 	7	Santa Rita 	1	Enero	2023-01-27T00:00:00	2024-11-08T09:00:00	7	Dirección del viento	9.66
73079	7	Sololá	704	Santa Lucía Utatlán 	7	Santa Rita 	1	Enero	2023-01-27T00:00:00	2024-11-08T09:00:00	1	Precipitación	0
73080	7	Sololá	704	Santa Lucía Utatlán 	7	Santa Rita 	1	Enero	2023-01-27T00:00:00	2024-11-08T09:00:00	8	Radiación solar	389
73081	7	Sololá	704	Santa Lucía Utatlán 	7	Santa Rita 	1	Enero	2023-01-27T00:00:00	2024-11-08T10:00:00	2	Temperatura media	20.2
73082	7	Sololá	704	Santa Lucía Utatlán 	7	Santa Rita 	1	Enero	2023-01-27T00:00:00	2024-11-08T10:00:00	4	Temperatura máxima	21.7
73083	7	Sololá	704	Santa Lucía Utatlán 	7	Santa Rita 	1	Enero	2023-01-27T00:00:00	2024-11-08T10:00:00	3	Temperatura mínima	20.1
73084	7	Sololá	704	Santa Lucía Utatlán 	7	Santa Rita 	1	Enero	2023-01-27T00:00:00	2024-11-08T10:00:00	5	Humedad	68
73085	7	Sololá	704	Santa Lucía Utatlán 	7	Santa Rita 	1	Enero	2023-01-27T00:00:00	2024-11-08T10:00:00	6	Velocidad del viento	11.3
73086	7	Sololá	704	Santa Lucía Utatlán 	7	Santa Rita 	1	Enero	2023-01-27T00:00:00	2024-11-08T10:00:00	7	Dirección del viento	11.27
73087	7	Sololá	704	Santa Lucía Utatlán 	7	Santa Rita 	1	Enero	2023-01-27T00:00:00	2024-11-08T10:00:00	1	Precipitación	0
73088	7	Sololá	704	Santa Lucía Utatlán 	7	Santa Rita 	1	Enero	2023-01-27T00:00:00	2024-11-08T10:00:00	8	Radiación solar	566
73089	7	Sololá	704	Santa Lucía Utatlán 	7	Santa Rita 	1	Enero	2023-01-27T00:00:00	2024-11-08T11:00:00	2	Temperatura media	21.1
73090	7	Sololá	704	Santa Lucía Utatlán 	7	Santa Rita 	1	Enero	2023-01-27T00:00:00	2024-11-08T11:00:00	4	Temperatura máxima	21.8
73091	7	Sololá	704	Santa Lucía Utatlán 	7	Santa Rita 	1	Enero	2023-01-27T00:00:00	2024-11-08T11:00:00	3	Temperatura mínima	19.9
73092	7	Sololá	704	Santa Lucía Utatlán 	7	Santa Rita 	1	Enero	2023-01-27T00:00:00	2024-11-08T11:00:00	5	Humedad	65
73093	7	Sololá	704	Santa Lucía Utatlán 	7	Santa Rita 	1	Enero	2023-01-27T00:00:00	2024-11-08T11:00:00	6	Velocidad del viento	12.9
73094	7	Sololá	704	Santa Lucía Utatlán 	7	Santa Rita 	1	Enero	2023-01-27T00:00:00	2024-11-08T11:00:00	7	Dirección del viento	12.87
73095	7	Sololá	704	Santa Lucía Utatlán 	7	Santa Rita 	1	Enero	2023-01-27T00:00:00	2024-11-08T11:00:00	1	Precipitación	0
73096	7	Sololá	704	Santa Lucía Utatlán 	7	Santa Rita 	1	Enero	2023-01-27T00:00:00	2024-11-08T11:00:00	8	Radiación solar	769
73097	7	Sololá	704	Santa Lucía Utatlán 	7	Santa Rita 	1	Enero	2023-01-27T00:00:00	2024-11-08T12:00:00	2	Temperatura media	22.1
73098	7	Sololá	704	Santa Lucía Utatlán 	7	Santa Rita 	1	Enero	2023-01-27T00:00:00	2024-11-08T12:00:00	4	Temperatura máxima	22.3
73099	7	Sololá	704	Santa Lucía Utatlán 	7	Santa Rita 	1	Enero	2023-01-27T00:00:00	2024-11-08T12:00:00	3	Temperatura mínima	20.6
73100	7	Sololá	704	Santa Lucía Utatlán 	7	Santa Rita 	1	Enero	2023-01-27T00:00:00	2024-11-08T12:00:00	5	Humedad	64
73101	7	Sololá	704	Santa Lucía Utatlán 	7	Santa Rita 	1	Enero	2023-01-27T00:00:00	2024-11-08T12:00:00	6	Velocidad del viento	12.9
73102	7	Sololá	704	Santa Lucía Utatlán 	7	Santa Rita 	1	Enero	2023-01-27T00:00:00	2024-11-08T12:00:00	7	Dirección del viento	12.87
73103	7	Sololá	704	Santa Lucía Utatlán 	7	Santa Rita 	1	Enero	2023-01-27T00:00:00	2024-11-08T12:00:00	1	Precipitación	0
73104	7	Sololá	704	Santa Lucía Utatlán 	7	Santa Rita 	1	Enero	2023-01-27T00:00:00	2024-11-08T12:00:00	8	Radiación solar	886
73105	7	Sololá	704	Santa Lucía Utatlán 	7	Santa Rita 	1	Enero	2023-01-27T00:00:00	2024-11-08T13:00:00	2	Temperatura media	21.2
73106	7	Sololá	704	Santa Lucía Utatlán 	7	Santa Rita 	1	Enero	2023-01-27T00:00:00	2024-11-08T13:00:00	4	Temperatura máxima	22.5
73107	7	Sololá	704	Santa Lucía Utatlán 	7	Santa Rita 	1	Enero	2023-01-27T00:00:00	2024-11-08T13:00:00	3	Temperatura mínima	20.8
73108	7	Sololá	704	Santa Lucía Utatlán 	7	Santa Rita 	1	Enero	2023-01-27T00:00:00	2024-11-08T13:00:00	5	Humedad	66
73109	7	Sololá	704	Santa Lucía Utatlán 	7	Santa Rita 	1	Enero	2023-01-27T00:00:00	2024-11-08T13:00:00	6	Velocidad del viento	14.5
73110	7	Sololá	704	Santa Lucía Utatlán 	7	Santa Rita 	1	Enero	2023-01-27T00:00:00	2024-11-08T13:00:00	7	Dirección del viento	14.48
73111	7	Sololá	704	Santa Lucía Utatlán 	7	Santa Rita 	1	Enero	2023-01-27T00:00:00	2024-11-08T13:00:00	1	Precipitación	0
73112	7	Sololá	704	Santa Lucía Utatlán 	7	Santa Rita 	1	Enero	2023-01-27T00:00:00	2024-11-08T13:00:00	8	Radiación solar	785
73113	7	Sololá	704	Santa Lucía Utatlán 	7	Santa Rita 	1	Enero	2023-01-27T00:00:00	2024-11-08T14:00:00	2	Temperatura media	22.2
73114	7	Sololá	704	Santa Lucía Utatlán 	7	Santa Rita 	1	Enero	2023-01-27T00:00:00	2024-11-08T14:00:00	4	Temperatura máxima	22.3
73115	7	Sololá	704	Santa Lucía Utatlán 	7	Santa Rita 	1	Enero	2023-01-27T00:00:00	2024-11-08T14:00:00	3	Temperatura mínima	20.8
73116	7	Sololá	704	Santa Lucía Utatlán 	7	Santa Rita 	1	Enero	2023-01-27T00:00:00	2024-11-08T14:00:00	5	Humedad	62
73117	7	Sololá	704	Santa Lucía Utatlán 	7	Santa Rita 	1	Enero	2023-01-27T00:00:00	2024-11-08T14:00:00	6	Velocidad del viento	12.9
73118	7	Sololá	704	Santa Lucía Utatlán 	7	Santa Rita 	1	Enero	2023-01-27T00:00:00	2024-11-08T14:00:00	7	Dirección del viento	12.87
73119	7	Sololá	704	Santa Lucía Utatlán 	7	Santa Rita 	1	Enero	2023-01-27T00:00:00	2024-11-08T14:00:00	1	Precipitación	0
73120	7	Sololá	704	Santa Lucía Utatlán 	7	Santa Rita 	1	Enero	2023-01-27T00:00:00	2024-11-08T14:00:00	8	Radiación solar	792
73121	7	Sololá	704	Santa Lucía Utatlán 	7	Santa Rita 	1	Enero	2023-01-27T00:00:00	2024-11-08T15:00:00	2	Temperatura media	21.3
73122	7	Sololá	704	Santa Lucía Utatlán 	7	Santa Rita 	1	Enero	2023-01-27T00:00:00	2024-11-08T15:00:00	4	Temperatura máxima	22.3
73123	7	Sololá	704	Santa Lucía Utatlán 	7	Santa Rita 	1	Enero	2023-01-27T00:00:00	2024-11-08T15:00:00	3	Temperatura mínima	20.8
73124	7	Sololá	704	Santa Lucía Utatlán 	7	Santa Rita 	1	Enero	2023-01-27T00:00:00	2024-11-08T15:00:00	5	Humedad	66
73125	7	Sololá	704	Santa Lucía Utatlán 	7	Santa Rita 	1	Enero	2023-01-27T00:00:00	2024-11-08T15:00:00	6	Velocidad del viento	12.9
73126	7	Sololá	704	Santa Lucía Utatlán 	7	Santa Rita 	1	Enero	2023-01-27T00:00:00	2024-11-08T15:00:00	7	Dirección del viento	12.87
73127	7	Sololá	704	Santa Lucía Utatlán 	7	Santa Rita 	1	Enero	2023-01-27T00:00:00	2024-11-08T15:00:00	1	Precipitación	0
73128	7	Sololá	704	Santa Lucía Utatlán 	7	Santa Rita 	1	Enero	2023-01-27T00:00:00	2024-11-08T15:00:00	8	Radiación solar	805
73129	7	Sololá	704	Santa Lucía Utatlán 	7	Santa Rita 	1	Enero	2023-01-27T00:00:00	2024-11-08T16:00:00	2	Temperatura media	21.8
73130	7	Sololá	704	Santa Lucía Utatlán 	7	Santa Rita 	1	Enero	2023-01-27T00:00:00	2024-11-08T16:00:00	4	Temperatura máxima	22
73131	7	Sololá	704	Santa Lucía Utatlán 	7	Santa Rita 	1	Enero	2023-01-27T00:00:00	2024-11-08T16:00:00	3	Temperatura mínima	20.2
73132	7	Sololá	704	Santa Lucía Utatlán 	7	Santa Rita 	1	Enero	2023-01-27T00:00:00	2024-11-08T16:00:00	5	Humedad	64
73133	7	Sololá	704	Santa Lucía Utatlán 	7	Santa Rita 	1	Enero	2023-01-27T00:00:00	2024-11-08T16:00:00	6	Velocidad del viento	12.9
73134	7	Sololá	704	Santa Lucía Utatlán 	7	Santa Rita 	1	Enero	2023-01-27T00:00:00	2024-11-08T16:00:00	7	Dirección del viento	12.87
73135	7	Sololá	704	Santa Lucía Utatlán 	7	Santa Rita 	1	Enero	2023-01-27T00:00:00	2024-11-08T16:00:00	1	Precipitación	0
73136	7	Sololá	704	Santa Lucía Utatlán 	7	Santa Rita 	1	Enero	2023-01-27T00:00:00	2024-11-08T16:00:00	8	Radiación solar	526
73137	7	Sololá	704	Santa Lucía Utatlán 	7	Santa Rita 	1	Enero	2023-01-27T00:00:00	2024-11-08T17:00:00	2	Temperatura media	20.9
73138	7	Sololá	704	Santa Lucía Utatlán 	7	Santa Rita 	1	Enero	2023-01-27T00:00:00	2024-11-08T17:00:00	4	Temperatura máxima	21.7
73139	7	Sololá	704	Santa Lucía Utatlán 	7	Santa Rita 	1	Enero	2023-01-27T00:00:00	2024-11-08T17:00:00	3	Temperatura mínima	19.7
73140	7	Sololá	704	Santa Lucía Utatlán 	7	Santa Rita 	1	Enero	2023-01-27T00:00:00	2024-11-08T17:00:00	5	Humedad	67
73141	7	Sololá	704	Santa Lucía Utatlán 	7	Santa Rita 	1	Enero	2023-01-27T00:00:00	2024-11-08T17:00:00	6	Velocidad del viento	9.7
73142	7	Sololá	704	Santa Lucía Utatlán 	7	Santa Rita 	1	Enero	2023-01-27T00:00:00	2024-11-08T17:00:00	7	Dirección del viento	9.66
73143	7	Sololá	704	Santa Lucía Utatlán 	7	Santa Rita 	1	Enero	2023-01-27T00:00:00	2024-11-08T17:00:00	1	Precipitación	0
73144	7	Sololá	704	Santa Lucía Utatlán 	7	Santa Rita 	1	Enero	2023-01-27T00:00:00	2024-11-08T17:00:00	8	Radiación solar	185
73145	7	Sololá	704	Santa Lucía Utatlán 	7	Santa Rita 	1	Enero	2023-01-27T00:00:00	2024-11-08T18:00:00	2	Temperatura media	19.1
73146	7	Sololá	704	Santa Lucía Utatlán 	7	Santa Rita 	1	Enero	2023-01-27T00:00:00	2024-11-08T18:00:00	4	Temperatura máxima	21
73147	7	Sololá	704	Santa Lucía Utatlán 	7	Santa Rita 	1	Enero	2023-01-27T00:00:00	2024-11-08T18:00:00	3	Temperatura mínima	19.1
73148	7	Sololá	704	Santa Lucía Utatlán 	7	Santa Rita 	1	Enero	2023-01-27T00:00:00	2024-11-08T18:00:00	5	Humedad	73
73149	7	Sololá	704	Santa Lucía Utatlán 	7	Santa Rita 	1	Enero	2023-01-27T00:00:00	2024-11-08T18:00:00	6	Velocidad del viento	6.4
73150	7	Sololá	704	Santa Lucía Utatlán 	7	Santa Rita 	1	Enero	2023-01-27T00:00:00	2024-11-08T18:00:00	7	Dirección del viento	6.44
73151	7	Sololá	704	Santa Lucía Utatlán 	7	Santa Rita 	1	Enero	2023-01-27T00:00:00	2024-11-08T18:00:00	1	Precipitación	0
73152	7	Sololá	704	Santa Lucía Utatlán 	7	Santa Rita 	1	Enero	2023-01-27T00:00:00	2024-11-08T18:00:00	8	Radiación solar	44
73153	7	Sololá	704	Santa Lucía Utatlán 	7	Santa Rita 	1	Enero	2023-01-27T00:00:00	2024-11-08T19:00:00	2	Temperatura media	18.3
73154	7	Sololá	704	Santa Lucía Utatlán 	7	Santa Rita 	1	Enero	2023-01-27T00:00:00	2024-11-08T19:00:00	4	Temperatura máxima	19.1
73155	7	Sololá	704	Santa Lucía Utatlán 	7	Santa Rita 	1	Enero	2023-01-27T00:00:00	2024-11-08T19:00:00	3	Temperatura mínima	18.3
73156	7	Sololá	704	Santa Lucía Utatlán 	7	Santa Rita 	1	Enero	2023-01-27T00:00:00	2024-11-08T19:00:00	5	Humedad	77
73157	7	Sololá	704	Santa Lucía Utatlán 	7	Santa Rita 	1	Enero	2023-01-27T00:00:00	2024-11-08T19:00:00	6	Velocidad del viento	6.4
73158	7	Sololá	704	Santa Lucía Utatlán 	7	Santa Rita 	1	Enero	2023-01-27T00:00:00	2024-11-08T19:00:00	7	Dirección del viento	6.44
73159	7	Sololá	704	Santa Lucía Utatlán 	7	Santa Rita 	1	Enero	2023-01-27T00:00:00	2024-11-08T19:00:00	1	Precipitación	0
73160	7	Sololá	704	Santa Lucía Utatlán 	7	Santa Rita 	1	Enero	2023-01-27T00:00:00	2024-11-08T19:00:00	8	Radiación solar	0
73161	7	Sololá	704	Santa Lucía Utatlán 	7	Santa Rita 	1	Enero	2023-01-27T00:00:00	2024-11-08T20:00:00	2	Temperatura media	18.2
73162	7	Sololá	704	Santa Lucía Utatlán 	7	Santa Rita 	1	Enero	2023-01-27T00:00:00	2024-11-08T20:00:00	4	Temperatura máxima	18.5
73163	7	Sololá	704	Santa Lucía Utatlán 	7	Santa Rita 	1	Enero	2023-01-27T00:00:00	2024-11-08T20:00:00	3	Temperatura mínima	18.2
73164	7	Sololá	704	Santa Lucía Utatlán 	7	Santa Rita 	1	Enero	2023-01-27T00:00:00	2024-11-08T20:00:00	5	Humedad	75
73165	7	Sololá	704	Santa Lucía Utatlán 	7	Santa Rita 	1	Enero	2023-01-27T00:00:00	2024-11-08T20:00:00	6	Velocidad del viento	6.4
73166	7	Sololá	704	Santa Lucía Utatlán 	7	Santa Rita 	1	Enero	2023-01-27T00:00:00	2024-11-08T20:00:00	7	Dirección del viento	6.44
73167	7	Sololá	704	Santa Lucía Utatlán 	7	Santa Rita 	1	Enero	2023-01-27T00:00:00	2024-11-08T20:00:00	1	Precipitación	0
73168	7	Sololá	704	Santa Lucía Utatlán 	7	Santa Rita 	1	Enero	2023-01-27T00:00:00	2024-11-08T20:00:00	8	Radiación solar	0
73169	7	Sololá	704	Santa Lucía Utatlán 	7	Santa Rita 	1	Enero	2023-01-27T00:00:00	2024-11-08T21:00:00	2	Temperatura media	18.2
73170	7	Sololá	704	Santa Lucía Utatlán 	7	Santa Rita 	1	Enero	2023-01-27T00:00:00	2024-11-08T21:00:00	4	Temperatura máxima	18.4
73171	7	Sololá	704	Santa Lucía Utatlán 	7	Santa Rita 	1	Enero	2023-01-27T00:00:00	2024-11-08T21:00:00	3	Temperatura mínima	18.2
73172	7	Sololá	704	Santa Lucía Utatlán 	7	Santa Rita 	1	Enero	2023-01-27T00:00:00	2024-11-08T21:00:00	5	Humedad	72
73173	7	Sololá	704	Santa Lucía Utatlán 	7	Santa Rita 	1	Enero	2023-01-27T00:00:00	2024-11-08T21:00:00	6	Velocidad del viento	11.3
73174	7	Sololá	704	Santa Lucía Utatlán 	7	Santa Rita 	1	Enero	2023-01-27T00:00:00	2024-11-08T21:00:00	7	Dirección del viento	11.27
73175	7	Sololá	704	Santa Lucía Utatlán 	7	Santa Rita 	1	Enero	2023-01-27T00:00:00	2024-11-08T21:00:00	1	Precipitación	0
73176	7	Sololá	704	Santa Lucía Utatlán 	7	Santa Rita 	1	Enero	2023-01-27T00:00:00	2024-11-08T21:00:00	8	Radiación solar	0
73177	7	Sololá	704	Santa Lucía Utatlán 	7	Santa Rita 	1	Enero	2023-01-27T00:00:00	2024-11-08T22:00:00	2	Temperatura media	17.9
73178	7	Sololá	704	Santa Lucía Utatlán 	7	Santa Rita 	1	Enero	2023-01-27T00:00:00	2024-11-08T22:00:00	4	Temperatura máxima	18.3
73179	7	Sololá	704	Santa Lucía Utatlán 	7	Santa Rita 	1	Enero	2023-01-27T00:00:00	2024-11-08T22:00:00	3	Temperatura mínima	17.9
73180	7	Sololá	704	Santa Lucía Utatlán 	7	Santa Rita 	1	Enero	2023-01-27T00:00:00	2024-11-08T22:00:00	5	Humedad	70
73181	7	Sololá	704	Santa Lucía Utatlán 	7	Santa Rita 	1	Enero	2023-01-27T00:00:00	2024-11-08T22:00:00	6	Velocidad del viento	14.5
73182	7	Sololá	704	Santa Lucía Utatlán 	7	Santa Rita 	1	Enero	2023-01-27T00:00:00	2024-11-08T22:00:00	7	Dirección del viento	14.48
73183	7	Sololá	704	Santa Lucía Utatlán 	7	Santa Rita 	1	Enero	2023-01-27T00:00:00	2024-11-08T22:00:00	1	Precipitación	0
73184	7	Sololá	704	Santa Lucía Utatlán 	7	Santa Rita 	1	Enero	2023-01-27T00:00:00	2024-11-08T22:00:00	8	Radiación solar	0
73185	7	Sololá	704	Santa Lucía Utatlán 	7	Santa Rita 	1	Enero	2023-01-27T00:00:00	2024-11-08T23:00:00	2	Temperatura media	16.4
73186	7	Sololá	704	Santa Lucía Utatlán 	7	Santa Rita 	1	Enero	2023-01-27T00:00:00	2024-11-08T23:00:00	4	Temperatura máxima	18
73187	7	Sololá	704	Santa Lucía Utatlán 	7	Santa Rita 	1	Enero	2023-01-27T00:00:00	2024-11-08T23:00:00	3	Temperatura mínima	16.4
73188	7	Sololá	704	Santa Lucía Utatlán 	7	Santa Rita 	1	Enero	2023-01-27T00:00:00	2024-11-08T23:00:00	5	Humedad	59
73189	7	Sololá	704	Santa Lucía Utatlán 	7	Santa Rita 	1	Enero	2023-01-27T00:00:00	2024-11-08T23:00:00	6	Velocidad del viento	6.4
73190	7	Sololá	704	Santa Lucía Utatlán 	7	Santa Rita 	1	Enero	2023-01-27T00:00:00	2024-11-08T23:00:00	7	Dirección del viento	6.44
73191	7	Sololá	704	Santa Lucía Utatlán 	7	Santa Rita 	1	Enero	2023-01-27T00:00:00	2024-11-08T23:00:00	1	Precipitación	0
73192	7	Sololá	704	Santa Lucía Utatlán 	7	Santa Rita 	1	Enero	2023-01-27T00:00:00	2024-11-08T23:00:00	8	Radiación solar	0
73193	7	Sololá	704	Santa Lucía Utatlán 	7	Santa Rita 	1	Enero	2023-01-28T00:00:00	2024-11-08T00:00:00	2	Temperatura media	17
73194	7	Sololá	704	Santa Lucía Utatlán 	7	Santa Rita 	1	Enero	2023-01-28T00:00:00	2024-11-08T00:00:00	4	Temperatura máxima	17.2
73195	7	Sololá	704	Santa Lucía Utatlán 	7	Santa Rita 	1	Enero	2023-01-28T00:00:00	2024-11-08T00:00:00	3	Temperatura mínima	15.7
73196	7	Sololá	704	Santa Lucía Utatlán 	7	Santa Rita 	1	Enero	2023-01-28T00:00:00	2024-11-08T00:00:00	5	Humedad	45
73197	7	Sololá	704	Santa Lucía Utatlán 	7	Santa Rita 	1	Enero	2023-01-28T00:00:00	2024-11-08T00:00:00	6	Velocidad del viento	6.4
73198	7	Sololá	704	Santa Lucía Utatlán 	7	Santa Rita 	1	Enero	2023-01-28T00:00:00	2024-11-08T00:00:00	7	Dirección del viento	6.44
73199	7	Sololá	704	Santa Lucía Utatlán 	7	Santa Rita 	1	Enero	2023-01-28T00:00:00	2024-11-08T00:00:00	1	Precipitación	0
73200	7	Sololá	704	Santa Lucía Utatlán 	7	Santa Rita 	1	Enero	2023-01-28T00:00:00	2024-11-08T00:00:00	8	Radiación solar	0
73201	7	Sololá	704	Santa Lucía Utatlán 	7	Santa Rita 	1	Enero	2023-01-28T00:00:00	2024-11-08T01:00:00	2	Temperatura media	15.5
73202	7	Sololá	704	Santa Lucía Utatlán 	7	Santa Rita 	1	Enero	2023-01-28T00:00:00	2024-11-08T01:00:00	4	Temperatura máxima	17.1
73203	7	Sololá	704	Santa Lucía Utatlán 	7	Santa Rita 	1	Enero	2023-01-28T00:00:00	2024-11-08T01:00:00	3	Temperatura mínima	15.1
73204	7	Sololá	704	Santa Lucía Utatlán 	7	Santa Rita 	1	Enero	2023-01-28T00:00:00	2024-11-08T01:00:00	5	Humedad	25
73205	7	Sololá	704	Santa Lucía Utatlán 	7	Santa Rita 	1	Enero	2023-01-28T00:00:00	2024-11-08T01:00:00	6	Velocidad del viento	4.8
73206	7	Sololá	704	Santa Lucía Utatlán 	7	Santa Rita 	1	Enero	2023-01-28T00:00:00	2024-11-08T01:00:00	7	Dirección del viento	4.83
73207	7	Sololá	704	Santa Lucía Utatlán 	7	Santa Rita 	1	Enero	2023-01-28T00:00:00	2024-11-08T01:00:00	1	Precipitación	0
73208	7	Sololá	704	Santa Lucía Utatlán 	7	Santa Rita 	1	Enero	2023-01-28T00:00:00	2024-11-08T01:00:00	8	Radiación solar	0
73209	7	Sololá	704	Santa Lucía Utatlán 	7	Santa Rita 	1	Enero	2023-01-28T00:00:00	2024-11-08T02:00:00	2	Temperatura media	13.6
73210	7	Sololá	704	Santa Lucía Utatlán 	7	Santa Rita 	1	Enero	2023-01-28T00:00:00	2024-11-08T02:00:00	4	Temperatura máxima	15.6
73211	7	Sololá	704	Santa Lucía Utatlán 	7	Santa Rita 	1	Enero	2023-01-28T00:00:00	2024-11-08T02:00:00	3	Temperatura mínima	13.3
73212	7	Sololá	704	Santa Lucía Utatlán 	7	Santa Rita 	1	Enero	2023-01-28T00:00:00	2024-11-08T02:00:00	5	Humedad	41
73213	7	Sololá	704	Santa Lucía Utatlán 	7	Santa Rita 	1	Enero	2023-01-28T00:00:00	2024-11-08T02:00:00	6	Velocidad del viento	4.8
73214	7	Sololá	704	Santa Lucía Utatlán 	7	Santa Rita 	1	Enero	2023-01-28T00:00:00	2024-11-08T02:00:00	7	Dirección del viento	4.83
73215	7	Sololá	704	Santa Lucía Utatlán 	7	Santa Rita 	1	Enero	2023-01-28T00:00:00	2024-11-08T02:00:00	1	Precipitación	0
73216	7	Sololá	704	Santa Lucía Utatlán 	7	Santa Rita 	1	Enero	2023-01-28T00:00:00	2024-11-08T02:00:00	8	Radiación solar	0
73217	7	Sololá	704	Santa Lucía Utatlán 	7	Santa Rita 	1	Enero	2023-01-28T00:00:00	2024-11-08T03:00:00	2	Temperatura media	14.2
73218	7	Sololá	704	Santa Lucía Utatlán 	7	Santa Rita 	1	Enero	2023-01-28T00:00:00	2024-11-08T03:00:00	4	Temperatura máxima	14.4
73219	7	Sololá	704	Santa Lucía Utatlán 	7	Santa Rita 	1	Enero	2023-01-28T00:00:00	2024-11-08T03:00:00	3	Temperatura mínima	13.3
73220	7	Sololá	704	Santa Lucía Utatlán 	7	Santa Rita 	1	Enero	2023-01-28T00:00:00	2024-11-08T03:00:00	5	Humedad	49
73221	7	Sololá	704	Santa Lucía Utatlán 	7	Santa Rita 	1	Enero	2023-01-28T00:00:00	2024-11-08T03:00:00	6	Velocidad del viento	3.2
73222	7	Sololá	704	Santa Lucía Utatlán 	7	Santa Rita 	1	Enero	2023-01-28T00:00:00	2024-11-08T03:00:00	7	Dirección del viento	3.22
73223	7	Sololá	704	Santa Lucía Utatlán 	7	Santa Rita 	1	Enero	2023-01-28T00:00:00	2024-11-08T03:00:00	1	Precipitación	0
73224	7	Sololá	704	Santa Lucía Utatlán 	7	Santa Rita 	1	Enero	2023-01-28T00:00:00	2024-11-08T03:00:00	8	Radiación solar	0
73225	7	Sololá	704	Santa Lucía Utatlán 	7	Santa Rita 	1	Enero	2023-01-28T00:00:00	2024-11-08T04:00:00	2	Temperatura media	15.3
73226	7	Sololá	704	Santa Lucía Utatlán 	7	Santa Rita 	1	Enero	2023-01-28T00:00:00	2024-11-08T04:00:00	4	Temperatura máxima	15.4
73227	7	Sololá	704	Santa Lucía Utatlán 	7	Santa Rita 	1	Enero	2023-01-28T00:00:00	2024-11-08T04:00:00	3	Temperatura mínima	13.2
73228	7	Sololá	704	Santa Lucía Utatlán 	7	Santa Rita 	1	Enero	2023-01-28T00:00:00	2024-11-08T04:00:00	5	Humedad	55
73229	7	Sololá	704	Santa Lucía Utatlán 	7	Santa Rita 	1	Enero	2023-01-28T00:00:00	2024-11-08T04:00:00	6	Velocidad del viento	3.2
73230	7	Sololá	704	Santa Lucía Utatlán 	7	Santa Rita 	1	Enero	2023-01-28T00:00:00	2024-11-08T04:00:00	7	Dirección del viento	3.22
73231	7	Sololá	704	Santa Lucía Utatlán 	7	Santa Rita 	1	Enero	2023-01-28T00:00:00	2024-11-08T04:00:00	1	Precipitación	0
73232	7	Sololá	704	Santa Lucía Utatlán 	7	Santa Rita 	1	Enero	2023-01-28T00:00:00	2024-11-08T04:00:00	8	Radiación solar	0
73233	7	Sololá	704	Santa Lucía Utatlán 	7	Santa Rita 	1	Enero	2023-01-28T00:00:00	2024-11-08T05:00:00	2	Temperatura media	14.8
73234	7	Sololá	704	Santa Lucía Utatlán 	7	Santa Rita 	1	Enero	2023-01-28T00:00:00	2024-11-08T05:00:00	4	Temperatura máxima	16
73235	7	Sololá	704	Santa Lucía Utatlán 	7	Santa Rita 	1	Enero	2023-01-28T00:00:00	2024-11-08T05:00:00	3	Temperatura mínima	14.8
73236	7	Sololá	704	Santa Lucía Utatlán 	7	Santa Rita 	1	Enero	2023-01-28T00:00:00	2024-11-08T05:00:00	5	Humedad	75
73237	7	Sololá	704	Santa Lucía Utatlán 	7	Santa Rita 	1	Enero	2023-01-28T00:00:00	2024-11-08T05:00:00	6	Velocidad del viento	3.2
73238	7	Sololá	704	Santa Lucía Utatlán 	7	Santa Rita 	1	Enero	2023-01-28T00:00:00	2024-11-08T05:00:00	7	Dirección del viento	3.22
73239	7	Sololá	704	Santa Lucía Utatlán 	7	Santa Rita 	1	Enero	2023-01-28T00:00:00	2024-11-08T05:00:00	1	Precipitación	0
73240	7	Sololá	704	Santa Lucía Utatlán 	7	Santa Rita 	1	Enero	2023-01-28T00:00:00	2024-11-08T05:00:00	8	Radiación solar	0
73241	7	Sololá	704	Santa Lucía Utatlán 	7	Santa Rita 	1	Enero	2023-01-28T00:00:00	2024-11-08T06:00:00	2	Temperatura media	15.1
73242	7	Sololá	704	Santa Lucía Utatlán 	7	Santa Rita 	1	Enero	2023-01-28T00:00:00	2024-11-08T06:00:00	4	Temperatura máxima	15.4
73243	7	Sololá	704	Santa Lucía Utatlán 	7	Santa Rita 	1	Enero	2023-01-28T00:00:00	2024-11-08T06:00:00	3	Temperatura mínima	14.4
73244	7	Sololá	704	Santa Lucía Utatlán 	7	Santa Rita 	1	Enero	2023-01-28T00:00:00	2024-11-08T06:00:00	5	Humedad	77
73245	7	Sololá	704	Santa Lucía Utatlán 	7	Santa Rita 	1	Enero	2023-01-28T00:00:00	2024-11-08T06:00:00	6	Velocidad del viento	3.2
73246	7	Sololá	704	Santa Lucía Utatlán 	7	Santa Rita 	1	Enero	2023-01-28T00:00:00	2024-11-08T06:00:00	7	Dirección del viento	3.22
73247	7	Sololá	704	Santa Lucía Utatlán 	7	Santa Rita 	1	Enero	2023-01-28T00:00:00	2024-11-08T06:00:00	1	Precipitación	0
73248	7	Sololá	704	Santa Lucía Utatlán 	7	Santa Rita 	1	Enero	2023-01-28T00:00:00	2024-11-08T06:00:00	8	Radiación solar	0
73249	7	Sololá	704	Santa Lucía Utatlán 	7	Santa Rita 	1	Enero	2023-01-28T00:00:00	2024-11-08T07:00:00	2	Temperatura media	16.8
73250	7	Sololá	704	Santa Lucía Utatlán 	7	Santa Rita 	1	Enero	2023-01-28T00:00:00	2024-11-08T07:00:00	4	Temperatura máxima	16.8
73251	7	Sololá	704	Santa Lucía Utatlán 	7	Santa Rita 	1	Enero	2023-01-28T00:00:00	2024-11-08T07:00:00	3	Temperatura mínima	14.6
73252	7	Sololá	704	Santa Lucía Utatlán 	7	Santa Rita 	1	Enero	2023-01-28T00:00:00	2024-11-08T07:00:00	5	Humedad	67
73253	7	Sololá	704	Santa Lucía Utatlán 	7	Santa Rita 	1	Enero	2023-01-28T00:00:00	2024-11-08T07:00:00	6	Velocidad del viento	4.8
73254	7	Sololá	704	Santa Lucía Utatlán 	7	Santa Rita 	1	Enero	2023-01-28T00:00:00	2024-11-08T07:00:00	7	Dirección del viento	4.83
73255	7	Sololá	704	Santa Lucía Utatlán 	7	Santa Rita 	1	Enero	2023-01-28T00:00:00	2024-11-08T07:00:00	1	Precipitación	0
73256	7	Sololá	704	Santa Lucía Utatlán 	7	Santa Rita 	1	Enero	2023-01-28T00:00:00	2024-11-08T07:00:00	8	Radiación solar	4
73257	7	Sololá	704	Santa Lucía Utatlán 	7	Santa Rita 	1	Enero	2023-01-28T00:00:00	2024-11-08T08:00:00	2	Temperatura media	19.9
73258	7	Sololá	704	Santa Lucía Utatlán 	7	Santa Rita 	1	Enero	2023-01-28T00:00:00	2024-11-08T08:00:00	4	Temperatura máxima	19.9
73259	7	Sololá	704	Santa Lucía Utatlán 	7	Santa Rita 	1	Enero	2023-01-28T00:00:00	2024-11-08T08:00:00	3	Temperatura mínima	16.8
73260	7	Sololá	704	Santa Lucía Utatlán 	7	Santa Rita 	1	Enero	2023-01-28T00:00:00	2024-11-08T08:00:00	5	Humedad	62
73261	7	Sololá	704	Santa Lucía Utatlán 	7	Santa Rita 	1	Enero	2023-01-28T00:00:00	2024-11-08T08:00:00	6	Velocidad del viento	9.7
73262	7	Sololá	704	Santa Lucía Utatlán 	7	Santa Rita 	1	Enero	2023-01-28T00:00:00	2024-11-08T08:00:00	7	Dirección del viento	9.66
73263	7	Sololá	704	Santa Lucía Utatlán 	7	Santa Rita 	1	Enero	2023-01-28T00:00:00	2024-11-08T08:00:00	1	Precipitación	0
73264	7	Sololá	704	Santa Lucía Utatlán 	7	Santa Rita 	1	Enero	2023-01-28T00:00:00	2024-11-08T08:00:00	8	Radiación solar	138
73265	7	Sololá	704	Santa Lucía Utatlán 	7	Santa Rita 	1	Enero	2023-01-28T00:00:00	2024-11-08T09:00:00	2	Temperatura media	21.8
73266	7	Sololá	704	Santa Lucía Utatlán 	7	Santa Rita 	1	Enero	2023-01-28T00:00:00	2024-11-08T09:00:00	4	Temperatura máxima	21.8
73267	7	Sololá	704	Santa Lucía Utatlán 	7	Santa Rita 	1	Enero	2023-01-28T00:00:00	2024-11-08T09:00:00	3	Temperatura mínima	19.8
73268	7	Sololá	704	Santa Lucía Utatlán 	7	Santa Rita 	1	Enero	2023-01-28T00:00:00	2024-11-08T09:00:00	5	Humedad	44
73269	7	Sololá	704	Santa Lucía Utatlán 	7	Santa Rita 	1	Enero	2023-01-28T00:00:00	2024-11-08T09:00:00	6	Velocidad del viento	9.7
73270	7	Sololá	704	Santa Lucía Utatlán 	7	Santa Rita 	1	Enero	2023-01-28T00:00:00	2024-11-08T09:00:00	7	Dirección del viento	9.66
73271	7	Sololá	704	Santa Lucía Utatlán 	7	Santa Rita 	1	Enero	2023-01-28T00:00:00	2024-11-08T09:00:00	1	Precipitación	0
73272	7	Sololá	704	Santa Lucía Utatlán 	7	Santa Rita 	1	Enero	2023-01-28T00:00:00	2024-11-08T09:00:00	8	Radiación solar	385
73273	7	Sololá	704	Santa Lucía Utatlán 	7	Santa Rita 	1	Enero	2023-01-28T00:00:00	2024-11-08T10:00:00	2	Temperatura media	23.1
73274	7	Sololá	704	Santa Lucía Utatlán 	7	Santa Rita 	1	Enero	2023-01-28T00:00:00	2024-11-08T10:00:00	4	Temperatura máxima	23.2
73275	7	Sololá	704	Santa Lucía Utatlán 	7	Santa Rita 	1	Enero	2023-01-28T00:00:00	2024-11-08T10:00:00	3	Temperatura mínima	21.8
73276	7	Sololá	704	Santa Lucía Utatlán 	7	Santa Rita 	1	Enero	2023-01-28T00:00:00	2024-11-08T10:00:00	5	Humedad	24
73277	7	Sololá	704	Santa Lucía Utatlán 	7	Santa Rita 	1	Enero	2023-01-28T00:00:00	2024-11-08T10:00:00	6	Velocidad del viento	6.4
73278	7	Sololá	704	Santa Lucía Utatlán 	7	Santa Rita 	1	Enero	2023-01-28T00:00:00	2024-11-08T10:00:00	7	Dirección del viento	6.44
73279	7	Sololá	704	Santa Lucía Utatlán 	7	Santa Rita 	1	Enero	2023-01-28T00:00:00	2024-11-08T10:00:00	1	Precipitación	0
73280	7	Sololá	704	Santa Lucía Utatlán 	7	Santa Rita 	1	Enero	2023-01-28T00:00:00	2024-11-08T10:00:00	8	Radiación solar	590
73281	7	Sololá	704	Santa Lucía Utatlán 	7	Santa Rita 	1	Enero	2023-01-28T00:00:00	2024-11-08T11:00:00	2	Temperatura media	23.1
73282	7	Sololá	704	Santa Lucía Utatlán 	7	Santa Rita 	1	Enero	2023-01-28T00:00:00	2024-11-08T11:00:00	4	Temperatura máxima	23.7
73283	7	Sololá	704	Santa Lucía Utatlán 	7	Santa Rita 	1	Enero	2023-01-28T00:00:00	2024-11-08T11:00:00	3	Temperatura mínima	22.4
73284	7	Sololá	704	Santa Lucía Utatlán 	7	Santa Rita 	1	Enero	2023-01-28T00:00:00	2024-11-08T11:00:00	5	Humedad	19
73285	7	Sololá	704	Santa Lucía Utatlán 	7	Santa Rita 	1	Enero	2023-01-28T00:00:00	2024-11-08T11:00:00	6	Velocidad del viento	12.9
73286	7	Sololá	704	Santa Lucía Utatlán 	7	Santa Rita 	1	Enero	2023-01-28T00:00:00	2024-11-08T11:00:00	7	Dirección del viento	12.87
73287	7	Sololá	704	Santa Lucía Utatlán 	7	Santa Rita 	1	Enero	2023-01-28T00:00:00	2024-11-08T11:00:00	1	Precipitación	0
73288	7	Sololá	704	Santa Lucía Utatlán 	7	Santa Rita 	1	Enero	2023-01-28T00:00:00	2024-11-08T11:00:00	8	Radiación solar	748
73289	7	Sololá	704	Santa Lucía Utatlán 	7	Santa Rita 	1	Enero	2023-01-28T00:00:00	2024-11-08T12:00:00	2	Temperatura media	23.1
73290	7	Sololá	704	Santa Lucía Utatlán 	7	Santa Rita 	1	Enero	2023-01-28T00:00:00	2024-11-08T12:00:00	4	Temperatura máxima	23.4
73291	7	Sololá	704	Santa Lucía Utatlán 	7	Santa Rita 	1	Enero	2023-01-28T00:00:00	2024-11-08T12:00:00	3	Temperatura mínima	22.9
73292	7	Sololá	704	Santa Lucía Utatlán 	7	Santa Rita 	1	Enero	2023-01-28T00:00:00	2024-11-08T12:00:00	5	Humedad	27
73293	7	Sololá	704	Santa Lucía Utatlán 	7	Santa Rita 	1	Enero	2023-01-28T00:00:00	2024-11-08T12:00:00	6	Velocidad del viento	11.3
73294	7	Sololá	704	Santa Lucía Utatlán 	7	Santa Rita 	1	Enero	2023-01-28T00:00:00	2024-11-08T12:00:00	7	Dirección del viento	11.27
73295	7	Sololá	704	Santa Lucía Utatlán 	7	Santa Rita 	1	Enero	2023-01-28T00:00:00	2024-11-08T12:00:00	1	Precipitación	0
73296	7	Sololá	704	Santa Lucía Utatlán 	7	Santa Rita 	1	Enero	2023-01-28T00:00:00	2024-11-08T12:00:00	8	Radiación solar	836
73297	7	Sololá	704	Santa Lucía Utatlán 	7	Santa Rita 	1	Enero	2023-01-28T00:00:00	2024-11-08T13:00:00	2	Temperatura media	23.6
73298	7	Sololá	704	Santa Lucía Utatlán 	7	Santa Rita 	1	Enero	2023-01-28T00:00:00	2024-11-08T13:00:00	4	Temperatura máxima	23.7
73299	7	Sololá	704	Santa Lucía Utatlán 	7	Santa Rita 	1	Enero	2023-01-28T00:00:00	2024-11-08T13:00:00	3	Temperatura mínima	22.6
73300	7	Sololá	704	Santa Lucía Utatlán 	7	Santa Rita 	1	Enero	2023-01-28T00:00:00	2024-11-08T13:00:00	5	Humedad	24
73301	7	Sololá	704	Santa Lucía Utatlán 	7	Santa Rita 	1	Enero	2023-01-28T00:00:00	2024-11-08T13:00:00	6	Velocidad del viento	9.7
73302	7	Sololá	704	Santa Lucía Utatlán 	7	Santa Rita 	1	Enero	2023-01-28T00:00:00	2024-11-08T13:00:00	7	Dirección del viento	9.66
73303	7	Sololá	704	Santa Lucía Utatlán 	7	Santa Rita 	1	Enero	2023-01-28T00:00:00	2024-11-08T13:00:00	1	Precipitación	0
73304	7	Sololá	704	Santa Lucía Utatlán 	7	Santa Rita 	1	Enero	2023-01-28T00:00:00	2024-11-08T13:00:00	8	Radiación solar	857
73305	7	Sololá	704	Santa Lucía Utatlán 	7	Santa Rita 	1	Enero	2023-01-28T00:00:00	2024-11-08T14:00:00	2	Temperatura media	23.8
73306	7	Sololá	704	Santa Lucía Utatlán 	7	Santa Rita 	1	Enero	2023-01-28T00:00:00	2024-11-08T14:00:00	4	Temperatura máxima	23.8
73307	7	Sololá	704	Santa Lucía Utatlán 	7	Santa Rita 	1	Enero	2023-01-28T00:00:00	2024-11-08T14:00:00	3	Temperatura mínima	23.3
73308	7	Sololá	704	Santa Lucía Utatlán 	7	Santa Rita 	1	Enero	2023-01-28T00:00:00	2024-11-08T14:00:00	5	Humedad	32
73309	7	Sololá	704	Santa Lucía Utatlán 	7	Santa Rita 	1	Enero	2023-01-28T00:00:00	2024-11-08T14:00:00	6	Velocidad del viento	9.7
73310	7	Sololá	704	Santa Lucía Utatlán 	7	Santa Rita 	1	Enero	2023-01-28T00:00:00	2024-11-08T14:00:00	7	Dirección del viento	9.66
73311	7	Sololá	704	Santa Lucía Utatlán 	7	Santa Rita 	1	Enero	2023-01-28T00:00:00	2024-11-08T14:00:00	1	Precipitación	0
73312	7	Sololá	704	Santa Lucía Utatlán 	7	Santa Rita 	1	Enero	2023-01-28T00:00:00	2024-11-08T14:00:00	8	Radiación solar	803
73313	7	Sololá	704	Santa Lucía Utatlán 	7	Santa Rita 	1	Enero	2023-01-28T00:00:00	2024-11-08T15:00:00	2	Temperatura media	23.7
73314	7	Sololá	704	Santa Lucía Utatlán 	7	Santa Rita 	1	Enero	2023-01-28T00:00:00	2024-11-08T15:00:00	4	Temperatura máxima	24.6
73315	7	Sololá	704	Santa Lucía Utatlán 	7	Santa Rita 	1	Enero	2023-01-28T00:00:00	2024-11-08T15:00:00	3	Temperatura mínima	23.7
73316	7	Sololá	704	Santa Lucía Utatlán 	7	Santa Rita 	1	Enero	2023-01-28T00:00:00	2024-11-08T15:00:00	5	Humedad	31
73317	7	Sololá	704	Santa Lucía Utatlán 	7	Santa Rita 	1	Enero	2023-01-28T00:00:00	2024-11-08T15:00:00	6	Velocidad del viento	8
73318	7	Sololá	704	Santa Lucía Utatlán 	7	Santa Rita 	1	Enero	2023-01-28T00:00:00	2024-11-08T15:00:00	7	Dirección del viento	8.05
73319	7	Sololá	704	Santa Lucía Utatlán 	7	Santa Rita 	1	Enero	2023-01-28T00:00:00	2024-11-08T15:00:00	1	Precipitación	0
73320	7	Sololá	704	Santa Lucía Utatlán 	7	Santa Rita 	1	Enero	2023-01-28T00:00:00	2024-11-08T15:00:00	8	Radiación solar	676
73321	7	Sololá	704	Santa Lucía Utatlán 	7	Santa Rita 	1	Enero	2023-01-28T00:00:00	2024-11-08T16:00:00	2	Temperatura media	23.6
73322	7	Sololá	704	Santa Lucía Utatlán 	7	Santa Rita 	1	Enero	2023-01-28T00:00:00	2024-11-08T16:00:00	4	Temperatura máxima	23.8
73323	7	Sololá	704	Santa Lucía Utatlán 	7	Santa Rita 	1	Enero	2023-01-28T00:00:00	2024-11-08T16:00:00	3	Temperatura mínima	23.3
73324	7	Sololá	704	Santa Lucía Utatlán 	7	Santa Rita 	1	Enero	2023-01-28T00:00:00	2024-11-08T16:00:00	5	Humedad	33
73325	7	Sololá	704	Santa Lucía Utatlán 	7	Santa Rita 	1	Enero	2023-01-28T00:00:00	2024-11-08T16:00:00	6	Velocidad del viento	8
73326	7	Sololá	704	Santa Lucía Utatlán 	7	Santa Rita 	1	Enero	2023-01-28T00:00:00	2024-11-08T16:00:00	7	Dirección del viento	8.05
73327	7	Sololá	704	Santa Lucía Utatlán 	7	Santa Rita 	1	Enero	2023-01-28T00:00:00	2024-11-08T16:00:00	1	Precipitación	0
73328	7	Sololá	704	Santa Lucía Utatlán 	7	Santa Rita 	1	Enero	2023-01-28T00:00:00	2024-11-08T16:00:00	8	Radiación solar	423
73329	7	Sololá	704	Santa Lucía Utatlán 	7	Santa Rita 	1	Enero	2023-01-28T00:00:00	2024-11-08T17:00:00	2	Temperatura media	22.3
73330	7	Sololá	704	Santa Lucía Utatlán 	7	Santa Rita 	1	Enero	2023-01-28T00:00:00	2024-11-08T17:00:00	4	Temperatura máxima	23.6
73331	7	Sololá	704	Santa Lucía Utatlán 	7	Santa Rita 	1	Enero	2023-01-28T00:00:00	2024-11-08T17:00:00	3	Temperatura mínima	21.9
73332	7	Sololá	704	Santa Lucía Utatlán 	7	Santa Rita 	1	Enero	2023-01-28T00:00:00	2024-11-08T17:00:00	5	Humedad	41
73333	7	Sololá	704	Santa Lucía Utatlán 	7	Santa Rita 	1	Enero	2023-01-28T00:00:00	2024-11-08T17:00:00	6	Velocidad del viento	9.7
73334	7	Sololá	704	Santa Lucía Utatlán 	7	Santa Rita 	1	Enero	2023-01-28T00:00:00	2024-11-08T17:00:00	7	Dirección del viento	9.66
73335	7	Sololá	704	Santa Lucía Utatlán 	7	Santa Rita 	1	Enero	2023-01-28T00:00:00	2024-11-08T17:00:00	1	Precipitación	0
73336	7	Sololá	704	Santa Lucía Utatlán 	7	Santa Rita 	1	Enero	2023-01-28T00:00:00	2024-11-08T17:00:00	8	Radiación solar	220
73337	7	Sololá	704	Santa Lucía Utatlán 	7	Santa Rita 	1	Enero	2023-01-28T00:00:00	2024-11-08T18:00:00	2	Temperatura media	19.5
73338	7	Sololá	704	Santa Lucía Utatlán 	7	Santa Rita 	1	Enero	2023-01-28T00:00:00	2024-11-08T18:00:00	4	Temperatura máxima	22.4
73339	7	Sololá	704	Santa Lucía Utatlán 	7	Santa Rita 	1	Enero	2023-01-28T00:00:00	2024-11-08T18:00:00	3	Temperatura mínima	19.4
73340	7	Sololá	704	Santa Lucía Utatlán 	7	Santa Rita 	1	Enero	2023-01-28T00:00:00	2024-11-08T18:00:00	5	Humedad	42
73341	7	Sololá	704	Santa Lucía Utatlán 	7	Santa Rita 	1	Enero	2023-01-28T00:00:00	2024-11-08T18:00:00	6	Velocidad del viento	4.8
73342	7	Sololá	704	Santa Lucía Utatlán 	7	Santa Rita 	1	Enero	2023-01-28T00:00:00	2024-11-08T18:00:00	7	Dirección del viento	4.83
73343	7	Sololá	704	Santa Lucía Utatlán 	7	Santa Rita 	1	Enero	2023-01-28T00:00:00	2024-11-08T18:00:00	1	Precipitación	0
73344	7	Sololá	704	Santa Lucía Utatlán 	7	Santa Rita 	1	Enero	2023-01-28T00:00:00	2024-11-08T18:00:00	8	Radiación solar	24
73345	7	Sololá	704	Santa Lucía Utatlán 	7	Santa Rita 	1	Enero	2023-01-28T00:00:00	2024-11-08T19:00:00	2	Temperatura media	18.4
73346	7	Sololá	704	Santa Lucía Utatlán 	7	Santa Rita 	1	Enero	2023-01-28T00:00:00	2024-11-08T19:00:00	4	Temperatura máxima	19.5
73347	7	Sololá	704	Santa Lucía Utatlán 	7	Santa Rita 	1	Enero	2023-01-28T00:00:00	2024-11-08T19:00:00	3	Temperatura mínima	18.3
73348	7	Sololá	704	Santa Lucía Utatlán 	7	Santa Rita 	1	Enero	2023-01-28T00:00:00	2024-11-08T19:00:00	5	Humedad	45
73349	7	Sololá	704	Santa Lucía Utatlán 	7	Santa Rita 	1	Enero	2023-01-28T00:00:00	2024-11-08T19:00:00	6	Velocidad del viento	3.2
73350	7	Sololá	704	Santa Lucía Utatlán 	7	Santa Rita 	1	Enero	2023-01-28T00:00:00	2024-11-08T19:00:00	7	Dirección del viento	3.22
73351	7	Sololá	704	Santa Lucía Utatlán 	7	Santa Rita 	1	Enero	2023-01-28T00:00:00	2024-11-08T19:00:00	1	Precipitación	0
73352	7	Sololá	704	Santa Lucía Utatlán 	7	Santa Rita 	1	Enero	2023-01-28T00:00:00	2024-11-08T19:00:00	8	Radiación solar	0
73353	7	Sololá	704	Santa Lucía Utatlán 	7	Santa Rita 	1	Enero	2023-01-28T00:00:00	2024-11-08T20:00:00	2	Temperatura media	16.7
73354	7	Sololá	704	Santa Lucía Utatlán 	7	Santa Rita 	1	Enero	2023-01-28T00:00:00	2024-11-08T20:00:00	4	Temperatura máxima	18.5
73355	7	Sololá	704	Santa Lucía Utatlán 	7	Santa Rita 	1	Enero	2023-01-28T00:00:00	2024-11-08T20:00:00	3	Temperatura mínima	16.7
73356	7	Sololá	704	Santa Lucía Utatlán 	7	Santa Rita 	1	Enero	2023-01-28T00:00:00	2024-11-08T20:00:00	5	Humedad	48
73357	7	Sololá	704	Santa Lucía Utatlán 	7	Santa Rita 	1	Enero	2023-01-28T00:00:00	2024-11-08T20:00:00	6	Velocidad del viento	3.2
73358	7	Sololá	704	Santa Lucía Utatlán 	7	Santa Rita 	1	Enero	2023-01-28T00:00:00	2024-11-08T20:00:00	7	Dirección del viento	3.22
73359	7	Sololá	704	Santa Lucía Utatlán 	7	Santa Rita 	1	Enero	2023-01-28T00:00:00	2024-11-08T20:00:00	1	Precipitación	0
73360	7	Sololá	704	Santa Lucía Utatlán 	7	Santa Rita 	1	Enero	2023-01-28T00:00:00	2024-11-08T20:00:00	8	Radiación solar	0
73361	7	Sololá	704	Santa Lucía Utatlán 	7	Santa Rita 	1	Enero	2023-01-28T00:00:00	2024-11-08T21:00:00	2	Temperatura media	16.1
73362	7	Sololá	704	Santa Lucía Utatlán 	7	Santa Rita 	1	Enero	2023-01-28T00:00:00	2024-11-08T21:00:00	4	Temperatura máxima	17.2
73363	7	Sololá	704	Santa Lucía Utatlán 	7	Santa Rita 	1	Enero	2023-01-28T00:00:00	2024-11-08T21:00:00	3	Temperatura mínima	15.7
73364	7	Sololá	704	Santa Lucía Utatlán 	7	Santa Rita 	1	Enero	2023-01-28T00:00:00	2024-11-08T21:00:00	5	Humedad	42
73365	7	Sololá	704	Santa Lucía Utatlán 	7	Santa Rita 	1	Enero	2023-01-28T00:00:00	2024-11-08T21:00:00	6	Velocidad del viento	3.2
73366	7	Sololá	704	Santa Lucía Utatlán 	7	Santa Rita 	1	Enero	2023-01-28T00:00:00	2024-11-08T21:00:00	7	Dirección del viento	3.22
73367	7	Sololá	704	Santa Lucía Utatlán 	7	Santa Rita 	1	Enero	2023-01-28T00:00:00	2024-11-08T21:00:00	1	Precipitación	0
73368	7	Sololá	704	Santa Lucía Utatlán 	7	Santa Rita 	1	Enero	2023-01-28T00:00:00	2024-11-08T21:00:00	8	Radiación solar	0
73369	7	Sololá	704	Santa Lucía Utatlán 	7	Santa Rita 	1	Enero	2023-01-28T00:00:00	2024-11-08T22:00:00	2	Temperatura media	14.4
73370	7	Sololá	704	Santa Lucía Utatlán 	7	Santa Rita 	1	Enero	2023-01-28T00:00:00	2024-11-08T22:00:00	4	Temperatura máxima	16.3
73371	7	Sololá	704	Santa Lucía Utatlán 	7	Santa Rita 	1	Enero	2023-01-28T00:00:00	2024-11-08T22:00:00	3	Temperatura mínima	14.4
73372	7	Sololá	704	Santa Lucía Utatlán 	7	Santa Rita 	1	Enero	2023-01-28T00:00:00	2024-11-08T22:00:00	5	Humedad	45
73373	7	Sololá	704	Santa Lucía Utatlán 	7	Santa Rita 	1	Enero	2023-01-28T00:00:00	2024-11-08T22:00:00	6	Velocidad del viento	1.6
73374	7	Sololá	704	Santa Lucía Utatlán 	7	Santa Rita 	1	Enero	2023-01-28T00:00:00	2024-11-08T22:00:00	7	Dirección del viento	1.61
73375	7	Sololá	704	Santa Lucía Utatlán 	7	Santa Rita 	1	Enero	2023-01-28T00:00:00	2024-11-08T22:00:00	1	Precipitación	0
73376	7	Sololá	704	Santa Lucía Utatlán 	7	Santa Rita 	1	Enero	2023-01-28T00:00:00	2024-11-08T22:00:00	8	Radiación solar	0
73377	7	Sololá	704	Santa Lucía Utatlán 	7	Santa Rita 	1	Enero	2023-01-28T00:00:00	2024-11-08T23:00:00	2	Temperatura media	15.1
73378	7	Sololá	704	Santa Lucía Utatlán 	7	Santa Rita 	1	Enero	2023-01-28T00:00:00	2024-11-08T23:00:00	4	Temperatura máxima	15.1
73379	7	Sololá	704	Santa Lucía Utatlán 	7	Santa Rita 	1	Enero	2023-01-28T00:00:00	2024-11-08T23:00:00	3	Temperatura mínima	14.1
73380	7	Sololá	704	Santa Lucía Utatlán 	7	Santa Rita 	1	Enero	2023-01-28T00:00:00	2024-11-08T23:00:00	5	Humedad	29
73381	7	Sololá	704	Santa Lucía Utatlán 	7	Santa Rita 	1	Enero	2023-01-28T00:00:00	2024-11-08T23:00:00	6	Velocidad del viento	4.8
73382	7	Sololá	704	Santa Lucía Utatlán 	7	Santa Rita 	1	Enero	2023-01-28T00:00:00	2024-11-08T23:00:00	7	Dirección del viento	4.83
73383	7	Sololá	704	Santa Lucía Utatlán 	7	Santa Rita 	1	Enero	2023-01-28T00:00:00	2024-11-08T23:00:00	1	Precipitación	0
73384	7	Sololá	704	Santa Lucía Utatlán 	7	Santa Rita 	1	Enero	2023-01-28T00:00:00	2024-11-08T23:00:00	8	Radiación solar	0
73385	7	Sololá	704	Santa Lucía Utatlán 	7	Santa Rita 	1	Enero	2023-01-29T00:00:00	2024-11-08T00:00:00	2	Temperatura media	14.9
73386	7	Sololá	704	Santa Lucía Utatlán 	7	Santa Rita 	1	Enero	2023-01-29T00:00:00	2024-11-08T00:00:00	4	Temperatura máxima	18.9
73387	7	Sololá	704	Santa Lucía Utatlán 	7	Santa Rita 	1	Enero	2023-01-29T00:00:00	2024-11-08T00:00:00	3	Temperatura mínima	14.9
73388	7	Sololá	704	Santa Lucía Utatlán 	7	Santa Rita 	1	Enero	2023-01-29T00:00:00	2024-11-08T00:00:00	5	Humedad	29
73389	7	Sololá	704	Santa Lucía Utatlán 	7	Santa Rita 	1	Enero	2023-01-29T00:00:00	2024-11-08T00:00:00	6	Velocidad del viento	4.8
73390	7	Sololá	704	Santa Lucía Utatlán 	7	Santa Rita 	1	Enero	2023-01-29T00:00:00	2024-11-08T00:00:00	7	Dirección del viento	4.83
73391	7	Sololá	704	Santa Lucía Utatlán 	7	Santa Rita 	1	Enero	2023-01-29T00:00:00	2024-11-08T00:00:00	1	Precipitación	0
73392	7	Sololá	704	Santa Lucía Utatlán 	7	Santa Rita 	1	Enero	2023-01-29T00:00:00	2024-11-08T00:00:00	8	Radiación solar	0
73393	7	Sololá	704	Santa Lucía Utatlán 	7	Santa Rita 	1	Enero	2023-01-29T00:00:00	2024-11-08T01:00:00	2	Temperatura media	13.8
73394	7	Sololá	704	Santa Lucía Utatlán 	7	Santa Rita 	1	Enero	2023-01-29T00:00:00	2024-11-08T01:00:00	4	Temperatura máxima	14.8
73395	7	Sololá	704	Santa Lucía Utatlán 	7	Santa Rita 	1	Enero	2023-01-29T00:00:00	2024-11-08T01:00:00	3	Temperatura mínima	13.8
73396	7	Sololá	704	Santa Lucía Utatlán 	7	Santa Rita 	1	Enero	2023-01-29T00:00:00	2024-11-08T01:00:00	5	Humedad	25
73397	7	Sololá	704	Santa Lucía Utatlán 	7	Santa Rita 	1	Enero	2023-01-29T00:00:00	2024-11-08T01:00:00	6	Velocidad del viento	3.2
73398	7	Sololá	704	Santa Lucía Utatlán 	7	Santa Rita 	1	Enero	2023-01-29T00:00:00	2024-11-08T01:00:00	7	Dirección del viento	3.22
73399	7	Sololá	704	Santa Lucía Utatlán 	7	Santa Rita 	1	Enero	2023-01-29T00:00:00	2024-11-08T01:00:00	1	Precipitación	0
73400	7	Sololá	704	Santa Lucía Utatlán 	7	Santa Rita 	1	Enero	2023-01-29T00:00:00	2024-11-08T01:00:00	8	Radiación solar	0
73401	7	Sololá	704	Santa Lucía Utatlán 	7	Santa Rita 	1	Enero	2023-01-29T00:00:00	2024-11-08T02:00:00	2	Temperatura media	14.2
73402	7	Sololá	704	Santa Lucía Utatlán 	7	Santa Rita 	1	Enero	2023-01-29T00:00:00	2024-11-08T02:00:00	4	Temperatura máxima	14.2
73403	7	Sololá	704	Santa Lucía Utatlán 	7	Santa Rita 	1	Enero	2023-01-29T00:00:00	2024-11-08T02:00:00	3	Temperatura mínima	13.6
73404	7	Sololá	704	Santa Lucía Utatlán 	7	Santa Rita 	1	Enero	2023-01-29T00:00:00	2024-11-08T02:00:00	5	Humedad	25
73405	7	Sololá	704	Santa Lucía Utatlán 	7	Santa Rita 	1	Enero	2023-01-29T00:00:00	2024-11-08T02:00:00	6	Velocidad del viento	4.8
73406	7	Sololá	704	Santa Lucía Utatlán 	7	Santa Rita 	1	Enero	2023-01-29T00:00:00	2024-11-08T02:00:00	7	Dirección del viento	4.83
73407	7	Sololá	704	Santa Lucía Utatlán 	7	Santa Rita 	1	Enero	2023-01-29T00:00:00	2024-11-08T02:00:00	1	Precipitación	0
73408	7	Sololá	704	Santa Lucía Utatlán 	7	Santa Rita 	1	Enero	2023-01-29T00:00:00	2024-11-08T02:00:00	8	Radiación solar	0
73409	7	Sololá	704	Santa Lucía Utatlán 	7	Santa Rita 	1	Enero	2023-01-29T00:00:00	2024-11-08T03:00:00	2	Temperatura media	14.4
73410	7	Sololá	704	Santa Lucía Utatlán 	7	Santa Rita 	1	Enero	2023-01-29T00:00:00	2024-11-08T03:00:00	4	Temperatura máxima	14.4
73411	7	Sololá	704	Santa Lucía Utatlán 	7	Santa Rita 	1	Enero	2023-01-29T00:00:00	2024-11-08T03:00:00	3	Temperatura mínima	13.7
73412	7	Sololá	704	Santa Lucía Utatlán 	7	Santa Rita 	1	Enero	2023-01-29T00:00:00	2024-11-08T03:00:00	5	Humedad	26
73413	7	Sololá	704	Santa Lucía Utatlán 	7	Santa Rita 	1	Enero	2023-01-29T00:00:00	2024-11-08T03:00:00	6	Velocidad del viento	3.2
73414	7	Sololá	704	Santa Lucía Utatlán 	7	Santa Rita 	1	Enero	2023-01-29T00:00:00	2024-11-08T03:00:00	7	Dirección del viento	3.22
73415	7	Sololá	704	Santa Lucía Utatlán 	7	Santa Rita 	1	Enero	2023-01-29T00:00:00	2024-11-08T03:00:00	1	Precipitación	0
73416	7	Sololá	704	Santa Lucía Utatlán 	7	Santa Rita 	1	Enero	2023-01-29T00:00:00	2024-11-08T03:00:00	8	Radiación solar	0
73417	7	Sololá	704	Santa Lucía Utatlán 	7	Santa Rita 	1	Enero	2023-01-29T00:00:00	2024-11-08T04:00:00	2	Temperatura media	14.2
73418	7	Sololá	704	Santa Lucía Utatlán 	7	Santa Rita 	1	Enero	2023-01-29T00:00:00	2024-11-08T04:00:00	4	Temperatura máxima	15
73419	7	Sololá	704	Santa Lucía Utatlán 	7	Santa Rita 	1	Enero	2023-01-29T00:00:00	2024-11-08T04:00:00	3	Temperatura mínima	13.7
73420	7	Sololá	704	Santa Lucía Utatlán 	7	Santa Rita 	1	Enero	2023-01-29T00:00:00	2024-11-08T04:00:00	5	Humedad	28
73421	7	Sololá	704	Santa Lucía Utatlán 	7	Santa Rita 	1	Enero	2023-01-29T00:00:00	2024-11-08T04:00:00	6	Velocidad del viento	3.2
73422	7	Sololá	704	Santa Lucía Utatlán 	7	Santa Rita 	1	Enero	2023-01-29T00:00:00	2024-11-08T04:00:00	7	Dirección del viento	3.22
73423	7	Sololá	704	Santa Lucía Utatlán 	7	Santa Rita 	1	Enero	2023-01-29T00:00:00	2024-11-08T04:00:00	1	Precipitación	0
73424	7	Sololá	704	Santa Lucía Utatlán 	7	Santa Rita 	1	Enero	2023-01-29T00:00:00	2024-11-08T04:00:00	8	Radiación solar	0
73425	7	Sololá	704	Santa Lucía Utatlán 	7	Santa Rita 	1	Enero	2023-01-29T00:00:00	2024-11-08T05:00:00	2	Temperatura media	13.4
73426	7	Sololá	704	Santa Lucía Utatlán 	7	Santa Rita 	1	Enero	2023-01-29T00:00:00	2024-11-08T05:00:00	4	Temperatura máxima	14.3
73427	7	Sololá	704	Santa Lucía Utatlán 	7	Santa Rita 	1	Enero	2023-01-29T00:00:00	2024-11-08T05:00:00	3	Temperatura mínima	13.3
73428	7	Sololá	704	Santa Lucía Utatlán 	7	Santa Rita 	1	Enero	2023-01-29T00:00:00	2024-11-08T05:00:00	5	Humedad	29
73429	7	Sololá	704	Santa Lucía Utatlán 	7	Santa Rita 	1	Enero	2023-01-29T00:00:00	2024-11-08T05:00:00	6	Velocidad del viento	3.2
73430	7	Sololá	704	Santa Lucía Utatlán 	7	Santa Rita 	1	Enero	2023-01-29T00:00:00	2024-11-08T05:00:00	7	Dirección del viento	3.22
73431	7	Sololá	704	Santa Lucía Utatlán 	7	Santa Rita 	1	Enero	2023-01-29T00:00:00	2024-11-08T05:00:00	1	Precipitación	0
73432	7	Sololá	704	Santa Lucía Utatlán 	7	Santa Rita 	1	Enero	2023-01-29T00:00:00	2024-11-08T05:00:00	8	Radiación solar	0
73433	7	Sololá	704	Santa Lucía Utatlán 	7	Santa Rita 	1	Enero	2023-01-29T00:00:00	2024-11-08T06:00:00	2	Temperatura media	13.9
73434	7	Sololá	704	Santa Lucía Utatlán 	7	Santa Rita 	1	Enero	2023-01-29T00:00:00	2024-11-08T06:00:00	4	Temperatura máxima	14.3
73435	7	Sololá	704	Santa Lucía Utatlán 	7	Santa Rita 	1	Enero	2023-01-29T00:00:00	2024-11-08T06:00:00	3	Temperatura mínima	13.4
73436	7	Sololá	704	Santa Lucía Utatlán 	7	Santa Rita 	1	Enero	2023-01-29T00:00:00	2024-11-08T06:00:00	5	Humedad	27
73437	7	Sololá	704	Santa Lucía Utatlán 	7	Santa Rita 	1	Enero	2023-01-29T00:00:00	2024-11-08T06:00:00	6	Velocidad del viento	3.2
73438	7	Sololá	704	Santa Lucía Utatlán 	7	Santa Rita 	1	Enero	2023-01-29T00:00:00	2024-11-08T06:00:00	7	Dirección del viento	3.22
73439	7	Sololá	704	Santa Lucía Utatlán 	7	Santa Rita 	1	Enero	2023-01-29T00:00:00	2024-11-08T06:00:00	1	Precipitación	0
73440	7	Sololá	704	Santa Lucía Utatlán 	7	Santa Rita 	1	Enero	2023-01-29T00:00:00	2024-11-08T06:00:00	8	Radiación solar	0
73441	7	Sololá	704	Santa Lucía Utatlán 	7	Santa Rita 	1	Enero	2023-01-29T00:00:00	2024-11-08T07:00:00	2	Temperatura media	13.9
73442	7	Sololá	704	Santa Lucía Utatlán 	7	Santa Rita 	1	Enero	2023-01-29T00:00:00	2024-11-08T07:00:00	4	Temperatura máxima	14.3
73443	7	Sololá	704	Santa Lucía Utatlán 	7	Santa Rita 	1	Enero	2023-01-29T00:00:00	2024-11-08T07:00:00	3	Temperatura mínima	13.4
73444	7	Sololá	704	Santa Lucía Utatlán 	7	Santa Rita 	1	Enero	2023-01-29T00:00:00	2024-11-08T07:00:00	5	Humedad	23
73445	7	Sololá	704	Santa Lucía Utatlán 	7	Santa Rita 	1	Enero	2023-01-29T00:00:00	2024-11-08T07:00:00	6	Velocidad del viento	4.8
73446	7	Sololá	704	Santa Lucía Utatlán 	7	Santa Rita 	1	Enero	2023-01-29T00:00:00	2024-11-08T07:00:00	7	Dirección del viento	4.83
73447	7	Sololá	704	Santa Lucía Utatlán 	7	Santa Rita 	1	Enero	2023-01-29T00:00:00	2024-11-08T07:00:00	1	Precipitación	0
73448	7	Sololá	704	Santa Lucía Utatlán 	7	Santa Rita 	1	Enero	2023-01-29T00:00:00	2024-11-08T07:00:00	8	Radiación solar	4
73449	7	Sololá	704	Santa Lucía Utatlán 	7	Santa Rita 	1	Enero	2023-01-29T00:00:00	2024-11-08T08:00:00	2	Temperatura media	18.6
73450	7	Sololá	704	Santa Lucía Utatlán 	7	Santa Rita 	1	Enero	2023-01-29T00:00:00	2024-11-08T08:00:00	4	Temperatura máxima	18.6
73451	7	Sololá	704	Santa Lucía Utatlán 	7	Santa Rita 	1	Enero	2023-01-29T00:00:00	2024-11-08T08:00:00	3	Temperatura mínima	13.9
73452	7	Sololá	704	Santa Lucía Utatlán 	7	Santa Rita 	1	Enero	2023-01-29T00:00:00	2024-11-08T08:00:00	5	Humedad	25
73453	7	Sololá	704	Santa Lucía Utatlán 	7	Santa Rita 	1	Enero	2023-01-29T00:00:00	2024-11-08T08:00:00	6	Velocidad del viento	1.6
73454	7	Sololá	704	Santa Lucía Utatlán 	7	Santa Rita 	1	Enero	2023-01-29T00:00:00	2024-11-08T08:00:00	7	Dirección del viento	1.61
73455	7	Sololá	704	Santa Lucía Utatlán 	7	Santa Rita 	1	Enero	2023-01-29T00:00:00	2024-11-08T08:00:00	1	Precipitación	0
73456	7	Sololá	704	Santa Lucía Utatlán 	7	Santa Rita 	1	Enero	2023-01-29T00:00:00	2024-11-08T08:00:00	8	Radiación solar	144
73457	7	Sololá	704	Santa Lucía Utatlán 	7	Santa Rita 	1	Enero	2023-01-29T00:00:00	2024-11-08T09:00:00	2	Temperatura media	22.2
73458	7	Sololá	704	Santa Lucía Utatlán 	7	Santa Rita 	1	Enero	2023-01-29T00:00:00	2024-11-08T09:00:00	4	Temperatura máxima	22.2
73459	7	Sololá	704	Santa Lucía Utatlán 	7	Santa Rita 	1	Enero	2023-01-29T00:00:00	2024-11-08T09:00:00	3	Temperatura mínima	18.6
73460	7	Sololá	704	Santa Lucía Utatlán 	7	Santa Rita 	1	Enero	2023-01-29T00:00:00	2024-11-08T09:00:00	5	Humedad	17
73461	7	Sololá	704	Santa Lucía Utatlán 	7	Santa Rita 	1	Enero	2023-01-29T00:00:00	2024-11-08T09:00:00	6	Velocidad del viento	4.8
73462	7	Sololá	704	Santa Lucía Utatlán 	7	Santa Rita 	1	Enero	2023-01-29T00:00:00	2024-11-08T09:00:00	7	Dirección del viento	4.83
73463	7	Sololá	704	Santa Lucía Utatlán 	7	Santa Rita 	1	Enero	2023-01-29T00:00:00	2024-11-08T09:00:00	1	Precipitación	0
73464	7	Sololá	704	Santa Lucía Utatlán 	7	Santa Rita 	1	Enero	2023-01-29T00:00:00	2024-11-08T09:00:00	8	Radiación solar	395
73465	7	Sololá	704	Santa Lucía Utatlán 	7	Santa Rita 	1	Enero	2023-01-29T00:00:00	2024-11-08T10:00:00	2	Temperatura media	23.1
73466	7	Sololá	704	Santa Lucía Utatlán 	7	Santa Rita 	1	Enero	2023-01-29T00:00:00	2024-11-08T10:00:00	4	Temperatura máxima	23.3
73467	7	Sololá	704	Santa Lucía Utatlán 	7	Santa Rita 	1	Enero	2023-01-29T00:00:00	2024-11-08T10:00:00	3	Temperatura mínima	22.2
73468	7	Sololá	704	Santa Lucía Utatlán 	7	Santa Rita 	1	Enero	2023-01-29T00:00:00	2024-11-08T10:00:00	5	Humedad	21
73469	7	Sololá	704	Santa Lucía Utatlán 	7	Santa Rita 	1	Enero	2023-01-29T00:00:00	2024-11-08T10:00:00	6	Velocidad del viento	8
73470	7	Sololá	704	Santa Lucía Utatlán 	7	Santa Rita 	1	Enero	2023-01-29T00:00:00	2024-11-08T10:00:00	7	Dirección del viento	8.05
73471	7	Sololá	704	Santa Lucía Utatlán 	7	Santa Rita 	1	Enero	2023-01-29T00:00:00	2024-11-08T10:00:00	1	Precipitación	0
73472	7	Sololá	704	Santa Lucía Utatlán 	7	Santa Rita 	1	Enero	2023-01-29T00:00:00	2024-11-08T10:00:00	8	Radiación solar	597
73473	7	Sololá	704	Santa Lucía Utatlán 	7	Santa Rita 	1	Enero	2023-01-29T00:00:00	2024-11-08T11:00:00	2	Temperatura media	23.7
73474	7	Sololá	704	Santa Lucía Utatlán 	7	Santa Rita 	1	Enero	2023-01-29T00:00:00	2024-11-08T11:00:00	4	Temperatura máxima	23.7
73475	7	Sololá	704	Santa Lucía Utatlán 	7	Santa Rita 	1	Enero	2023-01-29T00:00:00	2024-11-08T11:00:00	3	Temperatura mínima	23
73476	7	Sololá	704	Santa Lucía Utatlán 	7	Santa Rita 	1	Enero	2023-01-29T00:00:00	2024-11-08T11:00:00	5	Humedad	19
73477	7	Sololá	704	Santa Lucía Utatlán 	7	Santa Rita 	1	Enero	2023-01-29T00:00:00	2024-11-08T11:00:00	6	Velocidad del viento	9.7
73478	7	Sololá	704	Santa Lucía Utatlán 	7	Santa Rita 	1	Enero	2023-01-29T00:00:00	2024-11-08T11:00:00	7	Dirección del viento	9.66
73479	7	Sololá	704	Santa Lucía Utatlán 	7	Santa Rita 	1	Enero	2023-01-29T00:00:00	2024-11-08T11:00:00	1	Precipitación	0
73480	7	Sololá	704	Santa Lucía Utatlán 	7	Santa Rita 	1	Enero	2023-01-29T00:00:00	2024-11-08T11:00:00	8	Radiación solar	754
73481	7	Sololá	704	Santa Lucía Utatlán 	7	Santa Rita 	1	Enero	2023-01-29T00:00:00	2024-11-08T12:00:00	2	Temperatura media	24.1
73482	7	Sololá	704	Santa Lucía Utatlán 	7	Santa Rita 	1	Enero	2023-01-29T00:00:00	2024-11-08T12:00:00	4	Temperatura máxima	24.5
73483	7	Sololá	704	Santa Lucía Utatlán 	7	Santa Rita 	1	Enero	2023-01-29T00:00:00	2024-11-08T12:00:00	3	Temperatura mínima	23.6
73484	7	Sololá	704	Santa Lucía Utatlán 	7	Santa Rita 	1	Enero	2023-01-29T00:00:00	2024-11-08T12:00:00	5	Humedad	21
73485	7	Sololá	704	Santa Lucía Utatlán 	7	Santa Rita 	1	Enero	2023-01-29T00:00:00	2024-11-08T12:00:00	6	Velocidad del viento	9.7
73486	7	Sololá	704	Santa Lucía Utatlán 	7	Santa Rita 	1	Enero	2023-01-29T00:00:00	2024-11-08T12:00:00	7	Dirección del viento	9.66
73487	7	Sololá	704	Santa Lucía Utatlán 	7	Santa Rita 	1	Enero	2023-01-29T00:00:00	2024-11-08T12:00:00	1	Precipitación	0
73488	7	Sololá	704	Santa Lucía Utatlán 	7	Santa Rita 	1	Enero	2023-01-29T00:00:00	2024-11-08T12:00:00	8	Radiación solar	846
73489	7	Sololá	704	Santa Lucía Utatlán 	7	Santa Rita 	1	Enero	2023-01-29T00:00:00	2024-11-08T13:00:00	2	Temperatura media	24.7
73490	7	Sololá	704	Santa Lucía Utatlán 	7	Santa Rita 	1	Enero	2023-01-29T00:00:00	2024-11-08T13:00:00	4	Temperatura máxima	24.7
73491	7	Sololá	704	Santa Lucía Utatlán 	7	Santa Rita 	1	Enero	2023-01-29T00:00:00	2024-11-08T13:00:00	3	Temperatura mínima	23.9
73492	7	Sololá	704	Santa Lucía Utatlán 	7	Santa Rita 	1	Enero	2023-01-29T00:00:00	2024-11-08T13:00:00	5	Humedad	27
73493	7	Sololá	704	Santa Lucía Utatlán 	7	Santa Rita 	1	Enero	2023-01-29T00:00:00	2024-11-08T13:00:00	6	Velocidad del viento	9.7
73494	7	Sololá	704	Santa Lucía Utatlán 	7	Santa Rita 	1	Enero	2023-01-29T00:00:00	2024-11-08T13:00:00	7	Dirección del viento	9.66
73495	7	Sololá	704	Santa Lucía Utatlán 	7	Santa Rita 	1	Enero	2023-01-29T00:00:00	2024-11-08T13:00:00	1	Precipitación	0
73496	7	Sololá	704	Santa Lucía Utatlán 	7	Santa Rita 	1	Enero	2023-01-29T00:00:00	2024-11-08T13:00:00	8	Radiación solar	866
73497	7	Sololá	704	Santa Lucía Utatlán 	7	Santa Rita 	1	Enero	2023-01-29T00:00:00	2024-11-08T14:00:00	2	Temperatura media	25.6
73498	7	Sololá	704	Santa Lucía Utatlán 	7	Santa Rita 	1	Enero	2023-01-29T00:00:00	2024-11-08T14:00:00	4	Temperatura máxima	25.8
73499	7	Sololá	704	Santa Lucía Utatlán 	7	Santa Rita 	1	Enero	2023-01-29T00:00:00	2024-11-08T14:00:00	3	Temperatura mínima	24.4
73500	7	Sololá	704	Santa Lucía Utatlán 	7	Santa Rita 	1	Enero	2023-01-29T00:00:00	2024-11-08T14:00:00	5	Humedad	27
73501	7	Sololá	704	Santa Lucía Utatlán 	7	Santa Rita 	1	Enero	2023-01-29T00:00:00	2024-11-08T14:00:00	6	Velocidad del viento	6.4
73502	7	Sololá	704	Santa Lucía Utatlán 	7	Santa Rita 	1	Enero	2023-01-29T00:00:00	2024-11-08T14:00:00	7	Dirección del viento	6.44
73503	7	Sololá	704	Santa Lucía Utatlán 	7	Santa Rita 	1	Enero	2023-01-29T00:00:00	2024-11-08T14:00:00	1	Precipitación	0
73504	7	Sololá	704	Santa Lucía Utatlán 	7	Santa Rita 	1	Enero	2023-01-29T00:00:00	2024-11-08T14:00:00	8	Radiación solar	816
73505	7	Sololá	704	Santa Lucía Utatlán 	7	Santa Rita 	1	Enero	2023-01-29T00:00:00	2024-11-08T15:00:00	2	Temperatura media	24.2
73506	7	Sololá	704	Santa Lucía Utatlán 	7	Santa Rita 	1	Enero	2023-01-29T00:00:00	2024-11-08T15:00:00	4	Temperatura máxima	25.7
73507	7	Sololá	704	Santa Lucía Utatlán 	7	Santa Rita 	1	Enero	2023-01-29T00:00:00	2024-11-08T15:00:00	3	Temperatura mínima	24.2
73508	7	Sololá	704	Santa Lucía Utatlán 	7	Santa Rita 	1	Enero	2023-01-29T00:00:00	2024-11-08T15:00:00	5	Humedad	44
73509	7	Sololá	704	Santa Lucía Utatlán 	7	Santa Rita 	1	Enero	2023-01-29T00:00:00	2024-11-08T15:00:00	6	Velocidad del viento	8
73510	7	Sololá	704	Santa Lucía Utatlán 	7	Santa Rita 	1	Enero	2023-01-29T00:00:00	2024-11-08T15:00:00	7	Dirección del viento	8.05
73511	7	Sololá	704	Santa Lucía Utatlán 	7	Santa Rita 	1	Enero	2023-01-29T00:00:00	2024-11-08T15:00:00	1	Precipitación	0
73512	7	Sololá	704	Santa Lucía Utatlán 	7	Santa Rita 	1	Enero	2023-01-29T00:00:00	2024-11-08T15:00:00	8	Radiación solar	681
73513	7	Sololá	704	Santa Lucía Utatlán 	7	Santa Rita 	1	Enero	2023-01-29T00:00:00	2024-11-08T16:00:00	2	Temperatura media	23.1
73514	7	Sololá	704	Santa Lucía Utatlán 	7	Santa Rita 	1	Enero	2023-01-29T00:00:00	2024-11-08T16:00:00	4	Temperatura máxima	24.2
73515	7	Sololá	704	Santa Lucía Utatlán 	7	Santa Rita 	1	Enero	2023-01-29T00:00:00	2024-11-08T16:00:00	3	Temperatura mínima	23.1
73516	7	Sololá	704	Santa Lucía Utatlán 	7	Santa Rita 	1	Enero	2023-01-29T00:00:00	2024-11-08T16:00:00	5	Humedad	54
73517	7	Sololá	704	Santa Lucía Utatlán 	7	Santa Rita 	1	Enero	2023-01-29T00:00:00	2024-11-08T16:00:00	6	Velocidad del viento	8
73518	7	Sololá	704	Santa Lucía Utatlán 	7	Santa Rita 	1	Enero	2023-01-29T00:00:00	2024-11-08T16:00:00	7	Dirección del viento	8.05
73519	7	Sololá	704	Santa Lucía Utatlán 	7	Santa Rita 	1	Enero	2023-01-29T00:00:00	2024-11-08T16:00:00	1	Precipitación	0
73520	7	Sololá	704	Santa Lucía Utatlán 	7	Santa Rita 	1	Enero	2023-01-29T00:00:00	2024-11-08T16:00:00	8	Radiación solar	416
73521	7	Sololá	704	Santa Lucía Utatlán 	7	Santa Rita 	1	Enero	2023-01-29T00:00:00	2024-11-08T17:00:00	2	Temperatura media	21.8
73522	7	Sololá	704	Santa Lucía Utatlán 	7	Santa Rita 	1	Enero	2023-01-29T00:00:00	2024-11-08T17:00:00	4	Temperatura máxima	23.1
73523	7	Sololá	704	Santa Lucía Utatlán 	7	Santa Rita 	1	Enero	2023-01-29T00:00:00	2024-11-08T17:00:00	3	Temperatura mínima	21.8
73524	7	Sololá	704	Santa Lucía Utatlán 	7	Santa Rita 	1	Enero	2023-01-29T00:00:00	2024-11-08T17:00:00	5	Humedad	60
73525	7	Sololá	704	Santa Lucía Utatlán 	7	Santa Rita 	1	Enero	2023-01-29T00:00:00	2024-11-08T17:00:00	6	Velocidad del viento	6.4
73526	7	Sololá	704	Santa Lucía Utatlán 	7	Santa Rita 	1	Enero	2023-01-29T00:00:00	2024-11-08T17:00:00	7	Dirección del viento	6.44
73527	7	Sololá	704	Santa Lucía Utatlán 	7	Santa Rita 	1	Enero	2023-01-29T00:00:00	2024-11-08T17:00:00	1	Precipitación	0
73528	7	Sololá	704	Santa Lucía Utatlán 	7	Santa Rita 	1	Enero	2023-01-29T00:00:00	2024-11-08T17:00:00	8	Radiación solar	211
73529	7	Sololá	704	Santa Lucía Utatlán 	7	Santa Rita 	1	Enero	2023-01-29T00:00:00	2024-11-08T18:00:00	2	Temperatura media	19.2
73530	7	Sololá	704	Santa Lucía Utatlán 	7	Santa Rita 	1	Enero	2023-01-29T00:00:00	2024-11-08T18:00:00	4	Temperatura máxima	21.8
73531	7	Sololá	704	Santa Lucía Utatlán 	7	Santa Rita 	1	Enero	2023-01-29T00:00:00	2024-11-08T18:00:00	3	Temperatura mínima	19.2
73532	7	Sololá	704	Santa Lucía Utatlán 	7	Santa Rita 	1	Enero	2023-01-29T00:00:00	2024-11-08T18:00:00	5	Humedad	62
73533	7	Sololá	704	Santa Lucía Utatlán 	7	Santa Rita 	1	Enero	2023-01-29T00:00:00	2024-11-08T18:00:00	6	Velocidad del viento	3.2
73534	7	Sololá	704	Santa Lucía Utatlán 	7	Santa Rita 	1	Enero	2023-01-29T00:00:00	2024-11-08T18:00:00	7	Dirección del viento	3.22
73535	7	Sololá	704	Santa Lucía Utatlán 	7	Santa Rita 	1	Enero	2023-01-29T00:00:00	2024-11-08T18:00:00	1	Precipitación	0
73536	7	Sololá	704	Santa Lucía Utatlán 	7	Santa Rita 	1	Enero	2023-01-29T00:00:00	2024-11-08T18:00:00	8	Radiación solar	28
73537	7	Sololá	704	Santa Lucía Utatlán 	7	Santa Rita 	1	Enero	2023-01-29T00:00:00	2024-11-08T19:00:00	2	Temperatura media	16.9
73538	7	Sololá	704	Santa Lucía Utatlán 	7	Santa Rita 	1	Enero	2023-01-29T00:00:00	2024-11-08T19:00:00	4	Temperatura máxima	19.1
73539	7	Sololá	704	Santa Lucía Utatlán 	7	Santa Rita 	1	Enero	2023-01-29T00:00:00	2024-11-08T19:00:00	3	Temperatura mínima	16.9
73540	7	Sololá	704	Santa Lucía Utatlán 	7	Santa Rita 	1	Enero	2023-01-29T00:00:00	2024-11-08T19:00:00	5	Humedad	60
73541	7	Sololá	704	Santa Lucía Utatlán 	7	Santa Rita 	1	Enero	2023-01-29T00:00:00	2024-11-08T19:00:00	6	Velocidad del viento	3.2
73542	7	Sololá	704	Santa Lucía Utatlán 	7	Santa Rita 	1	Enero	2023-01-29T00:00:00	2024-11-08T19:00:00	7	Dirección del viento	3.22
73543	7	Sololá	704	Santa Lucía Utatlán 	7	Santa Rita 	1	Enero	2023-01-29T00:00:00	2024-11-08T19:00:00	1	Precipitación	0
73544	7	Sololá	704	Santa Lucía Utatlán 	7	Santa Rita 	1	Enero	2023-01-29T00:00:00	2024-11-08T19:00:00	8	Radiación solar	0
73545	7	Sololá	704	Santa Lucía Utatlán 	7	Santa Rita 	1	Enero	2023-01-29T00:00:00	2024-11-08T20:00:00	2	Temperatura media	15.3
73546	7	Sololá	704	Santa Lucía Utatlán 	7	Santa Rita 	1	Enero	2023-01-29T00:00:00	2024-11-08T20:00:00	4	Temperatura máxima	16.9
73547	7	Sololá	704	Santa Lucía Utatlán 	7	Santa Rita 	1	Enero	2023-01-29T00:00:00	2024-11-08T20:00:00	3	Temperatura mínima	15.1
73548	7	Sololá	704	Santa Lucía Utatlán 	7	Santa Rita 	1	Enero	2023-01-29T00:00:00	2024-11-08T20:00:00	5	Humedad	60
73549	7	Sololá	704	Santa Lucía Utatlán 	7	Santa Rita 	1	Enero	2023-01-29T00:00:00	2024-11-08T20:00:00	6	Velocidad del viento	4.8
73550	7	Sololá	704	Santa Lucía Utatlán 	7	Santa Rita 	1	Enero	2023-01-29T00:00:00	2024-11-08T20:00:00	7	Dirección del viento	4.83
73551	7	Sololá	704	Santa Lucía Utatlán 	7	Santa Rita 	1	Enero	2023-01-29T00:00:00	2024-11-08T20:00:00	1	Precipitación	0
73552	7	Sololá	704	Santa Lucía Utatlán 	7	Santa Rita 	1	Enero	2023-01-29T00:00:00	2024-11-08T20:00:00	8	Radiación solar	0
73553	7	Sololá	704	Santa Lucía Utatlán 	7	Santa Rita 	1	Enero	2023-01-29T00:00:00	2024-11-08T21:00:00	2	Temperatura media	14.9
73554	7	Sololá	704	Santa Lucía Utatlán 	7	Santa Rita 	1	Enero	2023-01-29T00:00:00	2024-11-08T21:00:00	4	Temperatura máxima	15.3
73555	7	Sololá	704	Santa Lucía Utatlán 	7	Santa Rita 	1	Enero	2023-01-29T00:00:00	2024-11-08T21:00:00	3	Temperatura mínima	14.9
73556	7	Sololá	704	Santa Lucía Utatlán 	7	Santa Rita 	1	Enero	2023-01-29T00:00:00	2024-11-08T21:00:00	5	Humedad	56
73557	7	Sololá	704	Santa Lucía Utatlán 	7	Santa Rita 	1	Enero	2023-01-29T00:00:00	2024-11-08T21:00:00	6	Velocidad del viento	4.8
73558	7	Sololá	704	Santa Lucía Utatlán 	7	Santa Rita 	1	Enero	2023-01-29T00:00:00	2024-11-08T21:00:00	7	Dirección del viento	4.83
73559	7	Sololá	704	Santa Lucía Utatlán 	7	Santa Rita 	1	Enero	2023-01-29T00:00:00	2024-11-08T21:00:00	1	Precipitación	0
73560	7	Sololá	704	Santa Lucía Utatlán 	7	Santa Rita 	1	Enero	2023-01-29T00:00:00	2024-11-08T21:00:00	8	Radiación solar	0
73561	7	Sololá	704	Santa Lucía Utatlán 	7	Santa Rita 	1	Enero	2023-01-29T00:00:00	2024-11-08T22:00:00	2	Temperatura media	14.7
73562	7	Sololá	704	Santa Lucía Utatlán 	7	Santa Rita 	1	Enero	2023-01-29T00:00:00	2024-11-08T22:00:00	4	Temperatura máxima	14.9
73563	7	Sololá	704	Santa Lucía Utatlán 	7	Santa Rita 	1	Enero	2023-01-29T00:00:00	2024-11-08T22:00:00	3	Temperatura mínima	14.5
73564	7	Sololá	704	Santa Lucía Utatlán 	7	Santa Rita 	1	Enero	2023-01-29T00:00:00	2024-11-08T22:00:00	5	Humedad	50
73565	7	Sololá	704	Santa Lucía Utatlán 	7	Santa Rita 	1	Enero	2023-01-29T00:00:00	2024-11-08T22:00:00	6	Velocidad del viento	4.8
73566	7	Sololá	704	Santa Lucía Utatlán 	7	Santa Rita 	1	Enero	2023-01-29T00:00:00	2024-11-08T22:00:00	7	Dirección del viento	4.83
73567	7	Sololá	704	Santa Lucía Utatlán 	7	Santa Rita 	1	Enero	2023-01-29T00:00:00	2024-11-08T22:00:00	1	Precipitación	0
73568	7	Sololá	704	Santa Lucía Utatlán 	7	Santa Rita 	1	Enero	2023-01-29T00:00:00	2024-11-08T22:00:00	8	Radiación solar	0
73569	7	Sololá	704	Santa Lucía Utatlán 	7	Santa Rita 	1	Enero	2023-01-29T00:00:00	2024-11-08T23:00:00	2	Temperatura media	14.9
73570	7	Sololá	704	Santa Lucía Utatlán 	7	Santa Rita 	1	Enero	2023-01-29T00:00:00	2024-11-08T23:00:00	4	Temperatura máxima	15.3
73571	7	Sololá	704	Santa Lucía Utatlán 	7	Santa Rita 	1	Enero	2023-01-29T00:00:00	2024-11-08T23:00:00	3	Temperatura mínima	14.6
73572	7	Sololá	704	Santa Lucía Utatlán 	7	Santa Rita 	1	Enero	2023-01-29T00:00:00	2024-11-08T23:00:00	5	Humedad	55
73573	7	Sololá	704	Santa Lucía Utatlán 	7	Santa Rita 	1	Enero	2023-01-29T00:00:00	2024-11-08T23:00:00	6	Velocidad del viento	4.8
73574	7	Sololá	704	Santa Lucía Utatlán 	7	Santa Rita 	1	Enero	2023-01-29T00:00:00	2024-11-08T23:00:00	7	Dirección del viento	4.83
73575	7	Sololá	704	Santa Lucía Utatlán 	7	Santa Rita 	1	Enero	2023-01-29T00:00:00	2024-11-08T23:00:00	1	Precipitación	0
73576	7	Sololá	704	Santa Lucía Utatlán 	7	Santa Rita 	1	Enero	2023-01-29T00:00:00	2024-11-08T23:00:00	8	Radiación solar	0
73577	7	Sololá	704	Santa Lucía Utatlán 	7	Santa Rita 	1	Enero	2023-01-30T00:00:00	2024-11-08T00:00:00	2	Temperatura media	15.1
73578	7	Sololá	704	Santa Lucía Utatlán 	7	Santa Rita 	1	Enero	2023-01-30T00:00:00	2024-11-08T00:00:00	4	Temperatura máxima	15.2
73579	7	Sololá	704	Santa Lucía Utatlán 	7	Santa Rita 	1	Enero	2023-01-30T00:00:00	2024-11-08T00:00:00	3	Temperatura mínima	14.9
73580	7	Sololá	704	Santa Lucía Utatlán 	7	Santa Rita 	1	Enero	2023-01-30T00:00:00	2024-11-08T00:00:00	5	Humedad	54
73581	7	Sololá	704	Santa Lucía Utatlán 	7	Santa Rita 	1	Enero	2023-01-30T00:00:00	2024-11-08T00:00:00	6	Velocidad del viento	6.4
73582	7	Sololá	704	Santa Lucía Utatlán 	7	Santa Rita 	1	Enero	2023-01-30T00:00:00	2024-11-08T00:00:00	7	Dirección del viento	6.44
73583	7	Sololá	704	Santa Lucía Utatlán 	7	Santa Rita 	1	Enero	2023-01-30T00:00:00	2024-11-08T00:00:00	1	Precipitación	0
73584	7	Sololá	704	Santa Lucía Utatlán 	7	Santa Rita 	1	Enero	2023-01-30T00:00:00	2024-11-08T00:00:00	8	Radiación solar	0
73585	7	Sololá	704	Santa Lucía Utatlán 	7	Santa Rita 	1	Enero	2023-01-30T00:00:00	2024-11-08T01:00:00	2	Temperatura media	14.4
73586	7	Sololá	704	Santa Lucía Utatlán 	7	Santa Rita 	1	Enero	2023-01-30T00:00:00	2024-11-08T01:00:00	4	Temperatura máxima	15.3
73587	7	Sololá	704	Santa Lucía Utatlán 	7	Santa Rita 	1	Enero	2023-01-30T00:00:00	2024-11-08T01:00:00	3	Temperatura mínima	14.4
73588	7	Sololá	704	Santa Lucía Utatlán 	7	Santa Rita 	1	Enero	2023-01-30T00:00:00	2024-11-08T01:00:00	5	Humedad	59
73589	7	Sololá	704	Santa Lucía Utatlán 	7	Santa Rita 	1	Enero	2023-01-30T00:00:00	2024-11-08T01:00:00	6	Velocidad del viento	6.4
73590	7	Sololá	704	Santa Lucía Utatlán 	7	Santa Rita 	1	Enero	2023-01-30T00:00:00	2024-11-08T01:00:00	7	Dirección del viento	6.44
73591	7	Sololá	704	Santa Lucía Utatlán 	7	Santa Rita 	1	Enero	2023-01-30T00:00:00	2024-11-08T01:00:00	1	Precipitación	0
73592	7	Sololá	704	Santa Lucía Utatlán 	7	Santa Rita 	1	Enero	2023-01-30T00:00:00	2024-11-08T01:00:00	8	Radiación solar	0
73593	7	Sololá	704	Santa Lucía Utatlán 	7	Santa Rita 	1	Enero	2023-01-30T00:00:00	2024-11-08T02:00:00	2	Temperatura media	14.4
73594	7	Sololá	704	Santa Lucía Utatlán 	7	Santa Rita 	1	Enero	2023-01-30T00:00:00	2024-11-08T02:00:00	4	Temperatura máxima	14.7
73595	7	Sololá	704	Santa Lucía Utatlán 	7	Santa Rita 	1	Enero	2023-01-30T00:00:00	2024-11-08T02:00:00	3	Temperatura mínima	14.4
73596	7	Sololá	704	Santa Lucía Utatlán 	7	Santa Rita 	1	Enero	2023-01-30T00:00:00	2024-11-08T02:00:00	5	Humedad	57
73597	7	Sololá	704	Santa Lucía Utatlán 	7	Santa Rita 	1	Enero	2023-01-30T00:00:00	2024-11-08T02:00:00	6	Velocidad del viento	8
73598	7	Sololá	704	Santa Lucía Utatlán 	7	Santa Rita 	1	Enero	2023-01-30T00:00:00	2024-11-08T02:00:00	7	Dirección del viento	8.05
73599	7	Sololá	704	Santa Lucía Utatlán 	7	Santa Rita 	1	Enero	2023-01-30T00:00:00	2024-11-08T02:00:00	1	Precipitación	0
73600	7	Sololá	704	Santa Lucía Utatlán 	7	Santa Rita 	1	Enero	2023-01-30T00:00:00	2024-11-08T02:00:00	8	Radiación solar	0
73601	7	Sololá	704	Santa Lucía Utatlán 	7	Santa Rita 	1	Enero	2023-01-30T00:00:00	2024-11-08T03:00:00	2	Temperatura media	14.3
73602	7	Sololá	704	Santa Lucía Utatlán 	7	Santa Rita 	1	Enero	2023-01-30T00:00:00	2024-11-08T03:00:00	4	Temperatura máxima	14.7
73603	7	Sololá	704	Santa Lucía Utatlán 	7	Santa Rita 	1	Enero	2023-01-30T00:00:00	2024-11-08T03:00:00	3	Temperatura mínima	14.3
73604	7	Sololá	704	Santa Lucía Utatlán 	7	Santa Rita 	1	Enero	2023-01-30T00:00:00	2024-11-08T03:00:00	5	Humedad	55
73605	7	Sololá	704	Santa Lucía Utatlán 	7	Santa Rita 	1	Enero	2023-01-30T00:00:00	2024-11-08T03:00:00	6	Velocidad del viento	8
73606	7	Sololá	704	Santa Lucía Utatlán 	7	Santa Rita 	1	Enero	2023-01-30T00:00:00	2024-11-08T03:00:00	7	Dirección del viento	8.05
73607	7	Sololá	704	Santa Lucía Utatlán 	7	Santa Rita 	1	Enero	2023-01-30T00:00:00	2024-11-08T03:00:00	1	Precipitación	0
73608	7	Sololá	704	Santa Lucía Utatlán 	7	Santa Rita 	1	Enero	2023-01-30T00:00:00	2024-11-08T03:00:00	8	Radiación solar	0
73609	7	Sololá	704	Santa Lucía Utatlán 	7	Santa Rita 	1	Enero	2023-01-30T00:00:00	2024-11-08T04:00:00	2	Temperatura media	14.5
73610	7	Sololá	704	Santa Lucía Utatlán 	7	Santa Rita 	1	Enero	2023-01-30T00:00:00	2024-11-08T04:00:00	4	Temperatura máxima	14.6
73611	7	Sololá	704	Santa Lucía Utatlán 	7	Santa Rita 	1	Enero	2023-01-30T00:00:00	2024-11-08T04:00:00	3	Temperatura mínima	14.2
73612	7	Sololá	704	Santa Lucía Utatlán 	7	Santa Rita 	1	Enero	2023-01-30T00:00:00	2024-11-08T04:00:00	5	Humedad	56
73613	7	Sololá	704	Santa Lucía Utatlán 	7	Santa Rita 	1	Enero	2023-01-30T00:00:00	2024-11-08T04:00:00	6	Velocidad del viento	6.4
73614	7	Sololá	704	Santa Lucía Utatlán 	7	Santa Rita 	1	Enero	2023-01-30T00:00:00	2024-11-08T04:00:00	7	Dirección del viento	6.44
73615	7	Sololá	704	Santa Lucía Utatlán 	7	Santa Rita 	1	Enero	2023-01-30T00:00:00	2024-11-08T04:00:00	1	Precipitación	0
73616	7	Sololá	704	Santa Lucía Utatlán 	7	Santa Rita 	1	Enero	2023-01-30T00:00:00	2024-11-08T04:00:00	8	Radiación solar	0
73617	7	Sololá	704	Santa Lucía Utatlán 	7	Santa Rita 	1	Enero	2023-01-30T00:00:00	2024-11-08T05:00:00	2	Temperatura media	13.8
73618	7	Sololá	704	Santa Lucía Utatlán 	7	Santa Rita 	1	Enero	2023-01-30T00:00:00	2024-11-08T05:00:00	4	Temperatura máxima	14.5
73619	7	Sololá	704	Santa Lucía Utatlán 	7	Santa Rita 	1	Enero	2023-01-30T00:00:00	2024-11-08T05:00:00	3	Temperatura mínima	13.8
73620	7	Sololá	704	Santa Lucía Utatlán 	7	Santa Rita 	1	Enero	2023-01-30T00:00:00	2024-11-08T05:00:00	5	Humedad	54
73621	7	Sololá	704	Santa Lucía Utatlán 	7	Santa Rita 	1	Enero	2023-01-30T00:00:00	2024-11-08T05:00:00	6	Velocidad del viento	6.4
73622	7	Sololá	704	Santa Lucía Utatlán 	7	Santa Rita 	1	Enero	2023-01-30T00:00:00	2024-11-08T05:00:00	7	Dirección del viento	6.44
73623	7	Sololá	704	Santa Lucía Utatlán 	7	Santa Rita 	1	Enero	2023-01-30T00:00:00	2024-11-08T05:00:00	1	Precipitación	0
73624	7	Sololá	704	Santa Lucía Utatlán 	7	Santa Rita 	1	Enero	2023-01-30T00:00:00	2024-11-08T05:00:00	8	Radiación solar	0
73625	7	Sololá	704	Santa Lucía Utatlán 	7	Santa Rita 	1	Enero	2023-01-30T00:00:00	2024-11-08T06:00:00	2	Temperatura media	13.8
73626	7	Sololá	704	Santa Lucía Utatlán 	7	Santa Rita 	1	Enero	2023-01-30T00:00:00	2024-11-08T06:00:00	4	Temperatura máxima	14.1
73627	7	Sololá	704	Santa Lucía Utatlán 	7	Santa Rita 	1	Enero	2023-01-30T00:00:00	2024-11-08T06:00:00	3	Temperatura mínima	13.6
73628	7	Sololá	704	Santa Lucía Utatlán 	7	Santa Rita 	1	Enero	2023-01-30T00:00:00	2024-11-08T06:00:00	5	Humedad	52
73629	7	Sololá	704	Santa Lucía Utatlán 	7	Santa Rita 	1	Enero	2023-01-30T00:00:00	2024-11-08T06:00:00	6	Velocidad del viento	6.4
73630	7	Sololá	704	Santa Lucía Utatlán 	7	Santa Rita 	1	Enero	2023-01-30T00:00:00	2024-11-08T06:00:00	7	Dirección del viento	6.44
73631	7	Sololá	704	Santa Lucía Utatlán 	7	Santa Rita 	1	Enero	2023-01-30T00:00:00	2024-11-08T06:00:00	1	Precipitación	0
73632	7	Sololá	704	Santa Lucía Utatlán 	7	Santa Rita 	1	Enero	2023-01-30T00:00:00	2024-11-08T06:00:00	8	Radiación solar	0
73633	7	Sololá	704	Santa Lucía Utatlán 	7	Santa Rita 	1	Enero	2023-01-30T00:00:00	2024-11-08T07:00:00	2	Temperatura media	14.1
73634	7	Sololá	704	Santa Lucía Utatlán 	7	Santa Rita 	1	Enero	2023-01-30T00:00:00	2024-11-08T07:00:00	4	Temperatura máxima	14.1
73635	7	Sololá	704	Santa Lucía Utatlán 	7	Santa Rita 	1	Enero	2023-01-30T00:00:00	2024-11-08T07:00:00	3	Temperatura mínima	13.6
73636	7	Sololá	704	Santa Lucía Utatlán 	7	Santa Rita 	1	Enero	2023-01-30T00:00:00	2024-11-08T07:00:00	5	Humedad	59
73637	7	Sololá	704	Santa Lucía Utatlán 	7	Santa Rita 	1	Enero	2023-01-30T00:00:00	2024-11-08T07:00:00	6	Velocidad del viento	6.4
73638	7	Sololá	704	Santa Lucía Utatlán 	7	Santa Rita 	1	Enero	2023-01-30T00:00:00	2024-11-08T07:00:00	7	Dirección del viento	6.44
73639	7	Sololá	704	Santa Lucía Utatlán 	7	Santa Rita 	1	Enero	2023-01-30T00:00:00	2024-11-08T07:00:00	1	Precipitación	0
73640	7	Sololá	704	Santa Lucía Utatlán 	7	Santa Rita 	1	Enero	2023-01-30T00:00:00	2024-11-08T07:00:00	8	Radiación solar	5
73641	7	Sololá	704	Santa Lucía Utatlán 	7	Santa Rita 	1	Enero	2023-01-30T00:00:00	2024-11-08T08:00:00	2	Temperatura media	18.7
73642	7	Sololá	704	Santa Lucía Utatlán 	7	Santa Rita 	1	Enero	2023-01-30T00:00:00	2024-11-08T08:00:00	4	Temperatura máxima	18.7
73643	7	Sololá	704	Santa Lucía Utatlán 	7	Santa Rita 	1	Enero	2023-01-30T00:00:00	2024-11-08T08:00:00	3	Temperatura mínima	14.1
73644	7	Sololá	704	Santa Lucía Utatlán 	7	Santa Rita 	1	Enero	2023-01-30T00:00:00	2024-11-08T08:00:00	5	Humedad	48
73645	7	Sololá	704	Santa Lucía Utatlán 	7	Santa Rita 	1	Enero	2023-01-30T00:00:00	2024-11-08T08:00:00	6	Velocidad del viento	0
73646	7	Sololá	704	Santa Lucía Utatlán 	7	Santa Rita 	1	Enero	2023-01-30T00:00:00	2024-11-08T08:00:00	7	Dirección del viento	0
73647	7	Sololá	704	Santa Lucía Utatlán 	7	Santa Rita 	1	Enero	2023-01-30T00:00:00	2024-11-08T08:00:00	1	Precipitación	0
73648	7	Sololá	704	Santa Lucía Utatlán 	7	Santa Rita 	1	Enero	2023-01-30T00:00:00	2024-11-08T08:00:00	8	Radiación solar	138
73649	7	Sololá	704	Santa Lucía Utatlán 	7	Santa Rita 	1	Enero	2023-01-30T00:00:00	2024-11-08T09:00:00	2	Temperatura media	21.3
73650	7	Sololá	704	Santa Lucía Utatlán 	7	Santa Rita 	1	Enero	2023-01-30T00:00:00	2024-11-08T09:00:00	4	Temperatura máxima	21.3
73651	7	Sololá	704	Santa Lucía Utatlán 	7	Santa Rita 	1	Enero	2023-01-30T00:00:00	2024-11-08T09:00:00	3	Temperatura mínima	18.7
73652	7	Sololá	704	Santa Lucía Utatlán 	7	Santa Rita 	1	Enero	2023-01-30T00:00:00	2024-11-08T09:00:00	5	Humedad	45
73653	7	Sololá	704	Santa Lucía Utatlán 	7	Santa Rita 	1	Enero	2023-01-30T00:00:00	2024-11-08T09:00:00	6	Velocidad del viento	3.2
73654	7	Sololá	704	Santa Lucía Utatlán 	7	Santa Rita 	1	Enero	2023-01-30T00:00:00	2024-11-08T09:00:00	7	Dirección del viento	3.22
73655	7	Sololá	704	Santa Lucía Utatlán 	7	Santa Rita 	1	Enero	2023-01-30T00:00:00	2024-11-08T09:00:00	1	Precipitación	0
73656	7	Sololá	704	Santa Lucía Utatlán 	7	Santa Rita 	1	Enero	2023-01-30T00:00:00	2024-11-08T09:00:00	8	Radiación solar	387
73657	7	Sololá	704	Santa Lucía Utatlán 	7	Santa Rita 	1	Enero	2023-01-30T00:00:00	2024-11-08T10:00:00	2	Temperatura media	23.3
73658	7	Sololá	704	Santa Lucía Utatlán 	7	Santa Rita 	1	Enero	2023-01-30T00:00:00	2024-11-08T10:00:00	4	Temperatura máxima	23.3
73659	7	Sololá	704	Santa Lucía Utatlán 	7	Santa Rita 	1	Enero	2023-01-30T00:00:00	2024-11-08T10:00:00	3	Temperatura mínima	21.3
73660	7	Sololá	704	Santa Lucía Utatlán 	7	Santa Rita 	1	Enero	2023-01-30T00:00:00	2024-11-08T10:00:00	5	Humedad	39
73661	7	Sololá	704	Santa Lucía Utatlán 	7	Santa Rita 	1	Enero	2023-01-30T00:00:00	2024-11-08T10:00:00	6	Velocidad del viento	4.8
73662	7	Sololá	704	Santa Lucía Utatlán 	7	Santa Rita 	1	Enero	2023-01-30T00:00:00	2024-11-08T10:00:00	7	Dirección del viento	4.83
73663	7	Sololá	704	Santa Lucía Utatlán 	7	Santa Rita 	1	Enero	2023-01-30T00:00:00	2024-11-08T10:00:00	1	Precipitación	0
73664	7	Sololá	704	Santa Lucía Utatlán 	7	Santa Rita 	1	Enero	2023-01-30T00:00:00	2024-11-08T10:00:00	8	Radiación solar	586
73665	7	Sololá	704	Santa Lucía Utatlán 	7	Santa Rita 	1	Enero	2023-01-30T00:00:00	2024-11-08T11:00:00	2	Temperatura media	25.2
73666	7	Sololá	704	Santa Lucía Utatlán 	7	Santa Rita 	1	Enero	2023-01-30T00:00:00	2024-11-08T11:00:00	4	Temperatura máxima	25.4
73667	7	Sololá	704	Santa Lucía Utatlán 	7	Santa Rita 	1	Enero	2023-01-30T00:00:00	2024-11-08T11:00:00	3	Temperatura mínima	23.3
73668	7	Sololá	704	Santa Lucía Utatlán 	7	Santa Rita 	1	Enero	2023-01-30T00:00:00	2024-11-08T11:00:00	5	Humedad	32
73669	7	Sololá	704	Santa Lucía Utatlán 	7	Santa Rita 	1	Enero	2023-01-30T00:00:00	2024-11-08T11:00:00	6	Velocidad del viento	6.4
73670	7	Sololá	704	Santa Lucía Utatlán 	7	Santa Rita 	1	Enero	2023-01-30T00:00:00	2024-11-08T11:00:00	7	Dirección del viento	6.44
73671	7	Sololá	704	Santa Lucía Utatlán 	7	Santa Rita 	1	Enero	2023-01-30T00:00:00	2024-11-08T11:00:00	1	Precipitación	0
73672	7	Sololá	704	Santa Lucía Utatlán 	7	Santa Rita 	1	Enero	2023-01-30T00:00:00	2024-11-08T11:00:00	8	Radiación solar	741
73673	7	Sololá	704	Santa Lucía Utatlán 	7	Santa Rita 	1	Enero	2023-01-30T00:00:00	2024-11-08T12:00:00	2	Temperatura media	26.1
73674	7	Sololá	704	Santa Lucía Utatlán 	7	Santa Rita 	1	Enero	2023-01-30T00:00:00	2024-11-08T12:00:00	4	Temperatura máxima	26.2
73675	7	Sololá	704	Santa Lucía Utatlán 	7	Santa Rita 	1	Enero	2023-01-30T00:00:00	2024-11-08T12:00:00	3	Temperatura mínima	25.1
73676	7	Sololá	704	Santa Lucía Utatlán 	7	Santa Rita 	1	Enero	2023-01-30T00:00:00	2024-11-08T12:00:00	5	Humedad	24
73677	7	Sololá	704	Santa Lucía Utatlán 	7	Santa Rita 	1	Enero	2023-01-30T00:00:00	2024-11-08T12:00:00	6	Velocidad del viento	11.3
73678	7	Sololá	704	Santa Lucía Utatlán 	7	Santa Rita 	1	Enero	2023-01-30T00:00:00	2024-11-08T12:00:00	7	Dirección del viento	11.27
73679	7	Sololá	704	Santa Lucía Utatlán 	7	Santa Rita 	1	Enero	2023-01-30T00:00:00	2024-11-08T12:00:00	1	Precipitación	0
73680	7	Sololá	704	Santa Lucía Utatlán 	7	Santa Rita 	1	Enero	2023-01-30T00:00:00	2024-11-08T12:00:00	8	Radiación solar	843
73681	7	Sololá	704	Santa Lucía Utatlán 	7	Santa Rita 	1	Enero	2023-01-30T00:00:00	2024-11-08T13:00:00	2	Temperatura media	26.6
73682	7	Sololá	704	Santa Lucía Utatlán 	7	Santa Rita 	1	Enero	2023-01-30T00:00:00	2024-11-08T13:00:00	4	Temperatura máxima	26.9
73683	7	Sololá	704	Santa Lucía Utatlán 	7	Santa Rita 	1	Enero	2023-01-30T00:00:00	2024-11-08T13:00:00	3	Temperatura mínima	26.1
73684	7	Sololá	704	Santa Lucía Utatlán 	7	Santa Rita 	1	Enero	2023-01-30T00:00:00	2024-11-08T13:00:00	5	Humedad	20
73685	7	Sololá	704	Santa Lucía Utatlán 	7	Santa Rita 	1	Enero	2023-01-30T00:00:00	2024-11-08T13:00:00	6	Velocidad del viento	11.3
73686	7	Sololá	704	Santa Lucía Utatlán 	7	Santa Rita 	1	Enero	2023-01-30T00:00:00	2024-11-08T13:00:00	7	Dirección del viento	11.27
73687	7	Sololá	704	Santa Lucía Utatlán 	7	Santa Rita 	1	Enero	2023-01-30T00:00:00	2024-11-08T13:00:00	1	Precipitación	0
73688	7	Sololá	704	Santa Lucía Utatlán 	7	Santa Rita 	1	Enero	2023-01-30T00:00:00	2024-11-08T13:00:00	8	Radiación solar	873
73689	7	Sololá	704	Santa Lucía Utatlán 	7	Santa Rita 	1	Enero	2023-01-30T00:00:00	2024-11-08T14:00:00	2	Temperatura media	26.1
73690	7	Sololá	704	Santa Lucía Utatlán 	7	Santa Rita 	1	Enero	2023-01-30T00:00:00	2024-11-08T14:00:00	4	Temperatura máxima	26.7
73691	7	Sololá	704	Santa Lucía Utatlán 	7	Santa Rita 	1	Enero	2023-01-30T00:00:00	2024-11-08T14:00:00	3	Temperatura mínima	25.9
73692	7	Sololá	704	Santa Lucía Utatlán 	7	Santa Rita 	1	Enero	2023-01-30T00:00:00	2024-11-08T14:00:00	5	Humedad	29
73693	7	Sololá	704	Santa Lucía Utatlán 	7	Santa Rita 	1	Enero	2023-01-30T00:00:00	2024-11-08T14:00:00	6	Velocidad del viento	11.3
73694	7	Sololá	704	Santa Lucía Utatlán 	7	Santa Rita 	1	Enero	2023-01-30T00:00:00	2024-11-08T14:00:00	7	Dirección del viento	11.27
73695	7	Sololá	704	Santa Lucía Utatlán 	7	Santa Rita 	1	Enero	2023-01-30T00:00:00	2024-11-08T14:00:00	1	Precipitación	0
73696	7	Sololá	704	Santa Lucía Utatlán 	7	Santa Rita 	1	Enero	2023-01-30T00:00:00	2024-11-08T14:00:00	8	Radiación solar	813
73697	7	Sololá	704	Santa Lucía Utatlán 	7	Santa Rita 	1	Enero	2023-01-30T00:00:00	2024-11-08T15:00:00	2	Temperatura media	25.1
73698	7	Sololá	704	Santa Lucía Utatlán 	7	Santa Rita 	1	Enero	2023-01-30T00:00:00	2024-11-08T15:00:00	4	Temperatura máxima	26.2
73699	7	Sololá	704	Santa Lucía Utatlán 	7	Santa Rita 	1	Enero	2023-01-30T00:00:00	2024-11-08T15:00:00	3	Temperatura mínima	25.1
73700	7	Sololá	704	Santa Lucía Utatlán 	7	Santa Rita 	1	Enero	2023-01-30T00:00:00	2024-11-08T15:00:00	5	Humedad	38
73701	7	Sololá	704	Santa Lucía Utatlán 	7	Santa Rita 	1	Enero	2023-01-30T00:00:00	2024-11-08T15:00:00	6	Velocidad del viento	11.3
73702	7	Sololá	704	Santa Lucía Utatlán 	7	Santa Rita 	1	Enero	2023-01-30T00:00:00	2024-11-08T15:00:00	7	Dirección del viento	11.27
73703	7	Sololá	704	Santa Lucía Utatlán 	7	Santa Rita 	1	Enero	2023-01-30T00:00:00	2024-11-08T15:00:00	1	Precipitación	0
73704	7	Sololá	704	Santa Lucía Utatlán 	7	Santa Rita 	1	Enero	2023-01-30T00:00:00	2024-11-08T15:00:00	8	Radiación solar	693
73705	7	Sololá	704	Santa Lucía Utatlán 	7	Santa Rita 	1	Enero	2023-01-30T00:00:00	2024-11-08T16:00:00	2	Temperatura media	23.8
73706	7	Sololá	704	Santa Lucía Utatlán 	7	Santa Rita 	1	Enero	2023-01-30T00:00:00	2024-11-08T16:00:00	4	Temperatura máxima	25.1
73707	7	Sololá	704	Santa Lucía Utatlán 	7	Santa Rita 	1	Enero	2023-01-30T00:00:00	2024-11-08T16:00:00	3	Temperatura mínima	23.7
73708	7	Sololá	704	Santa Lucía Utatlán 	7	Santa Rita 	1	Enero	2023-01-30T00:00:00	2024-11-08T16:00:00	5	Humedad	54
73709	7	Sololá	704	Santa Lucía Utatlán 	7	Santa Rita 	1	Enero	2023-01-30T00:00:00	2024-11-08T16:00:00	6	Velocidad del viento	9.7
73710	7	Sololá	704	Santa Lucía Utatlán 	7	Santa Rita 	1	Enero	2023-01-30T00:00:00	2024-11-08T16:00:00	7	Dirección del viento	9.66
73711	7	Sololá	704	Santa Lucía Utatlán 	7	Santa Rita 	1	Enero	2023-01-30T00:00:00	2024-11-08T16:00:00	1	Precipitación	0
73712	7	Sololá	704	Santa Lucía Utatlán 	7	Santa Rita 	1	Enero	2023-01-30T00:00:00	2024-11-08T16:00:00	8	Radiación solar	422
73713	7	Sololá	704	Santa Lucía Utatlán 	7	Santa Rita 	1	Enero	2023-01-30T00:00:00	2024-11-08T17:00:00	2	Temperatura media	22.1
73714	7	Sololá	704	Santa Lucía Utatlán 	7	Santa Rita 	1	Enero	2023-01-30T00:00:00	2024-11-08T17:00:00	4	Temperatura máxima	23.8
73715	7	Sololá	704	Santa Lucía Utatlán 	7	Santa Rita 	1	Enero	2023-01-30T00:00:00	2024-11-08T17:00:00	3	Temperatura mínima	22.1
73716	7	Sololá	704	Santa Lucía Utatlán 	7	Santa Rita 	1	Enero	2023-01-30T00:00:00	2024-11-08T17:00:00	5	Humedad	65
73717	7	Sololá	704	Santa Lucía Utatlán 	7	Santa Rita 	1	Enero	2023-01-30T00:00:00	2024-11-08T17:00:00	6	Velocidad del viento	8
73718	7	Sololá	704	Santa Lucía Utatlán 	7	Santa Rita 	1	Enero	2023-01-30T00:00:00	2024-11-08T17:00:00	7	Dirección del viento	8.05
73719	7	Sololá	704	Santa Lucía Utatlán 	7	Santa Rita 	1	Enero	2023-01-30T00:00:00	2024-11-08T17:00:00	1	Precipitación	0
73720	7	Sololá	704	Santa Lucía Utatlán 	7	Santa Rita 	1	Enero	2023-01-30T00:00:00	2024-11-08T17:00:00	8	Radiación solar	212
73721	7	Sololá	704	Santa Lucía Utatlán 	7	Santa Rita 	1	Enero	2023-01-30T00:00:00	2024-11-08T18:00:00	2	Temperatura media	20.3
73722	7	Sololá	704	Santa Lucía Utatlán 	7	Santa Rita 	1	Enero	2023-01-30T00:00:00	2024-11-08T18:00:00	4	Temperatura máxima	22.1
73723	7	Sololá	704	Santa Lucía Utatlán 	7	Santa Rita 	1	Enero	2023-01-30T00:00:00	2024-11-08T18:00:00	3	Temperatura mínima	20.3
73724	7	Sololá	704	Santa Lucía Utatlán 	7	Santa Rita 	1	Enero	2023-01-30T00:00:00	2024-11-08T18:00:00	5	Humedad	57
73725	7	Sololá	704	Santa Lucía Utatlán 	7	Santa Rita 	1	Enero	2023-01-30T00:00:00	2024-11-08T18:00:00	6	Velocidad del viento	4.8
73726	7	Sololá	704	Santa Lucía Utatlán 	7	Santa Rita 	1	Enero	2023-01-30T00:00:00	2024-11-08T18:00:00	7	Dirección del viento	4.83
73727	7	Sololá	704	Santa Lucía Utatlán 	7	Santa Rita 	1	Enero	2023-01-30T00:00:00	2024-11-08T18:00:00	1	Precipitación	0
73728	7	Sololá	704	Santa Lucía Utatlán 	7	Santa Rita 	1	Enero	2023-01-30T00:00:00	2024-11-08T18:00:00	8	Radiación solar	29
73729	7	Sololá	704	Santa Lucía Utatlán 	7	Santa Rita 	1	Enero	2023-01-30T00:00:00	2024-11-08T19:00:00	2	Temperatura media	17.4
73730	7	Sololá	704	Santa Lucía Utatlán 	7	Santa Rita 	1	Enero	2023-01-30T00:00:00	2024-11-08T19:00:00	4	Temperatura máxima	20.3
73731	7	Sololá	704	Santa Lucía Utatlán 	7	Santa Rita 	1	Enero	2023-01-30T00:00:00	2024-11-08T19:00:00	3	Temperatura mínima	17.4
73732	7	Sololá	704	Santa Lucía Utatlán 	7	Santa Rita 	1	Enero	2023-01-30T00:00:00	2024-11-08T19:00:00	5	Humedad	66
73733	7	Sololá	704	Santa Lucía Utatlán 	7	Santa Rita 	1	Enero	2023-01-30T00:00:00	2024-11-08T19:00:00	6	Velocidad del viento	3.2
73734	7	Sololá	704	Santa Lucía Utatlán 	7	Santa Rita 	1	Enero	2023-01-30T00:00:00	2024-11-08T19:00:00	7	Dirección del viento	3.22
73735	7	Sololá	704	Santa Lucía Utatlán 	7	Santa Rita 	1	Enero	2023-01-30T00:00:00	2024-11-08T19:00:00	1	Precipitación	0
73736	7	Sololá	704	Santa Lucía Utatlán 	7	Santa Rita 	1	Enero	2023-01-30T00:00:00	2024-11-08T19:00:00	8	Radiación solar	0
73737	7	Sololá	704	Santa Lucía Utatlán 	7	Santa Rita 	1	Enero	2023-01-30T00:00:00	2024-11-08T20:00:00	2	Temperatura media	16.3
73738	7	Sololá	704	Santa Lucía Utatlán 	7	Santa Rita 	1	Enero	2023-01-30T00:00:00	2024-11-08T20:00:00	4	Temperatura máxima	17.4
73739	7	Sololá	704	Santa Lucía Utatlán 	7	Santa Rita 	1	Enero	2023-01-30T00:00:00	2024-11-08T20:00:00	3	Temperatura mínima	16.3
73740	7	Sololá	704	Santa Lucía Utatlán 	7	Santa Rita 	1	Enero	2023-01-30T00:00:00	2024-11-08T20:00:00	5	Humedad	66
73741	7	Sololá	704	Santa Lucía Utatlán 	7	Santa Rita 	1	Enero	2023-01-30T00:00:00	2024-11-08T20:00:00	6	Velocidad del viento	3.2
73742	7	Sololá	704	Santa Lucía Utatlán 	7	Santa Rita 	1	Enero	2023-01-30T00:00:00	2024-11-08T20:00:00	7	Dirección del viento	3.22
73743	7	Sololá	704	Santa Lucía Utatlán 	7	Santa Rita 	1	Enero	2023-01-30T00:00:00	2024-11-08T20:00:00	1	Precipitación	0
73744	7	Sololá	704	Santa Lucía Utatlán 	7	Santa Rita 	1	Enero	2023-01-30T00:00:00	2024-11-08T20:00:00	8	Radiación solar	0
73745	7	Sololá	704	Santa Lucía Utatlán 	7	Santa Rita 	1	Enero	2023-01-30T00:00:00	2024-11-08T21:00:00	2	Temperatura media	15.2
73746	7	Sololá	704	Santa Lucía Utatlán 	7	Santa Rita 	1	Enero	2023-01-30T00:00:00	2024-11-08T21:00:00	4	Temperatura máxima	16.3
73747	7	Sololá	704	Santa Lucía Utatlán 	7	Santa Rita 	1	Enero	2023-01-30T00:00:00	2024-11-08T21:00:00	3	Temperatura mínima	15.2
73748	7	Sololá	704	Santa Lucía Utatlán 	7	Santa Rita 	1	Enero	2023-01-30T00:00:00	2024-11-08T21:00:00	5	Humedad	77
73749	7	Sololá	704	Santa Lucía Utatlán 	7	Santa Rita 	1	Enero	2023-01-30T00:00:00	2024-11-08T21:00:00	6	Velocidad del viento	1.6
73750	7	Sololá	704	Santa Lucía Utatlán 	7	Santa Rita 	1	Enero	2023-01-30T00:00:00	2024-11-08T21:00:00	7	Dirección del viento	1.61
73751	7	Sololá	704	Santa Lucía Utatlán 	7	Santa Rita 	1	Enero	2023-01-30T00:00:00	2024-11-08T21:00:00	1	Precipitación	0
73752	7	Sololá	704	Santa Lucía Utatlán 	7	Santa Rita 	1	Enero	2023-01-30T00:00:00	2024-11-08T21:00:00	8	Radiación solar	0
73753	7	Sololá	704	Santa Lucía Utatlán 	7	Santa Rita 	1	Enero	2023-01-30T00:00:00	2024-11-08T22:00:00	2	Temperatura media	16.2
73754	7	Sololá	704	Santa Lucía Utatlán 	7	Santa Rita 	1	Enero	2023-01-30T00:00:00	2024-11-08T22:00:00	4	Temperatura máxima	17.3
73755	7	Sololá	704	Santa Lucía Utatlán 	7	Santa Rita 	1	Enero	2023-01-30T00:00:00	2024-11-08T22:00:00	3	Temperatura mínima	14.9
73756	7	Sololá	704	Santa Lucía Utatlán 	7	Santa Rita 	1	Enero	2023-01-30T00:00:00	2024-11-08T22:00:00	5	Humedad	72
73757	7	Sololá	704	Santa Lucía Utatlán 	7	Santa Rita 	1	Enero	2023-01-30T00:00:00	2024-11-08T22:00:00	6	Velocidad del viento	3.2
73758	7	Sololá	704	Santa Lucía Utatlán 	7	Santa Rita 	1	Enero	2023-01-30T00:00:00	2024-11-08T22:00:00	7	Dirección del viento	3.22
73759	7	Sololá	704	Santa Lucía Utatlán 	7	Santa Rita 	1	Enero	2023-01-30T00:00:00	2024-11-08T22:00:00	1	Precipitación	0
73760	7	Sololá	704	Santa Lucía Utatlán 	7	Santa Rita 	1	Enero	2023-01-30T00:00:00	2024-11-08T22:00:00	8	Radiación solar	0
73761	7	Sololá	704	Santa Lucía Utatlán 	7	Santa Rita 	1	Enero	2023-01-30T00:00:00	2024-11-08T23:00:00	2	Temperatura media	17.1
73762	7	Sololá	704	Santa Lucía Utatlán 	7	Santa Rita 	1	Enero	2023-01-30T00:00:00	2024-11-08T23:00:00	4	Temperatura máxima	17.3
73763	7	Sololá	704	Santa Lucía Utatlán 	7	Santa Rita 	1	Enero	2023-01-30T00:00:00	2024-11-08T23:00:00	3	Temperatura mínima	15.6
73764	7	Sololá	704	Santa Lucía Utatlán 	7	Santa Rita 	1	Enero	2023-01-30T00:00:00	2024-11-08T23:00:00	5	Humedad	64
73765	7	Sololá	704	Santa Lucía Utatlán 	7	Santa Rita 	1	Enero	2023-01-30T00:00:00	2024-11-08T23:00:00	6	Velocidad del viento	3.2
73766	7	Sololá	704	Santa Lucía Utatlán 	7	Santa Rita 	1	Enero	2023-01-30T00:00:00	2024-11-08T23:00:00	7	Dirección del viento	3.22
73767	7	Sololá	704	Santa Lucía Utatlán 	7	Santa Rita 	1	Enero	2023-01-30T00:00:00	2024-11-08T23:00:00	1	Precipitación	0
73768	7	Sololá	704	Santa Lucía Utatlán 	7	Santa Rita 	1	Enero	2023-01-30T00:00:00	2024-11-08T23:00:00	8	Radiación solar	0
73769	7	Sololá	704	Santa Lucía Utatlán 	7	Santa Rita 	1	Enero	2023-01-31T00:00:00	2024-11-08T00:00:00	2	Temperatura media	14.4
73770	7	Sololá	704	Santa Lucía Utatlán 	7	Santa Rita 	1	Enero	2023-01-31T00:00:00	2024-11-08T00:00:00	4	Temperatura máxima	17.1
73771	7	Sololá	704	Santa Lucía Utatlán 	7	Santa Rita 	1	Enero	2023-01-31T00:00:00	2024-11-08T00:00:00	3	Temperatura mínima	14.4
73772	7	Sololá	704	Santa Lucía Utatlán 	7	Santa Rita 	1	Enero	2023-01-31T00:00:00	2024-11-08T00:00:00	5	Humedad	71
73773	7	Sololá	704	Santa Lucía Utatlán 	7	Santa Rita 	1	Enero	2023-01-31T00:00:00	2024-11-08T00:00:00	6	Velocidad del viento	1.6
73774	7	Sololá	704	Santa Lucía Utatlán 	7	Santa Rita 	1	Enero	2023-01-31T00:00:00	2024-11-08T00:00:00	7	Dirección del viento	1.61
73775	7	Sololá	704	Santa Lucía Utatlán 	7	Santa Rita 	1	Enero	2023-01-31T00:00:00	2024-11-08T00:00:00	1	Precipitación	0
73776	7	Sololá	704	Santa Lucía Utatlán 	7	Santa Rita 	1	Enero	2023-01-31T00:00:00	2024-11-08T00:00:00	8	Radiación solar	0
73777	7	Sololá	704	Santa Lucía Utatlán 	7	Santa Rita 	1	Enero	2023-01-31T00:00:00	2024-11-08T01:00:00	2	Temperatura media	13.5
73778	7	Sololá	704	Santa Lucía Utatlán 	7	Santa Rita 	1	Enero	2023-01-31T00:00:00	2024-11-08T01:00:00	4	Temperatura máxima	14.5
73779	7	Sololá	704	Santa Lucía Utatlán 	7	Santa Rita 	1	Enero	2023-01-31T00:00:00	2024-11-08T01:00:00	3	Temperatura mínima	13.5
73780	7	Sololá	704	Santa Lucía Utatlán 	7	Santa Rita 	1	Enero	2023-01-31T00:00:00	2024-11-08T01:00:00	5	Humedad	66
73781	7	Sololá	704	Santa Lucía Utatlán 	7	Santa Rita 	1	Enero	2023-01-31T00:00:00	2024-11-08T01:00:00	6	Velocidad del viento	4.8
73782	7	Sololá	704	Santa Lucía Utatlán 	7	Santa Rita 	1	Enero	2023-01-31T00:00:00	2024-11-08T01:00:00	7	Dirección del viento	4.83
73783	7	Sololá	704	Santa Lucía Utatlán 	7	Santa Rita 	1	Enero	2023-01-31T00:00:00	2024-11-08T01:00:00	1	Precipitación	0
73784	7	Sololá	704	Santa Lucía Utatlán 	7	Santa Rita 	1	Enero	2023-01-31T00:00:00	2024-11-08T01:00:00	8	Radiación solar	0
73785	7	Sololá	704	Santa Lucía Utatlán 	7	Santa Rita 	1	Enero	2023-01-31T00:00:00	2024-11-08T02:00:00	2	Temperatura media	13.9
73786	7	Sololá	704	Santa Lucía Utatlán 	7	Santa Rita 	1	Enero	2023-01-31T00:00:00	2024-11-08T02:00:00	4	Temperatura máxima	13.9
73787	7	Sololá	704	Santa Lucía Utatlán 	7	Santa Rita 	1	Enero	2023-01-31T00:00:00	2024-11-08T02:00:00	3	Temperatura mínima	12.8
73788	7	Sololá	704	Santa Lucía Utatlán 	7	Santa Rita 	1	Enero	2023-01-31T00:00:00	2024-11-08T02:00:00	5	Humedad	63
73789	7	Sololá	704	Santa Lucía Utatlán 	7	Santa Rita 	1	Enero	2023-01-31T00:00:00	2024-11-08T02:00:00	6	Velocidad del viento	4.8
73790	7	Sololá	704	Santa Lucía Utatlán 	7	Santa Rita 	1	Enero	2023-01-31T00:00:00	2024-11-08T02:00:00	7	Dirección del viento	4.83
73791	7	Sololá	704	Santa Lucía Utatlán 	7	Santa Rita 	1	Enero	2023-01-31T00:00:00	2024-11-08T02:00:00	1	Precipitación	0
73792	7	Sololá	704	Santa Lucía Utatlán 	7	Santa Rita 	1	Enero	2023-01-31T00:00:00	2024-11-08T02:00:00	8	Radiación solar	0
73793	7	Sololá	704	Santa Lucía Utatlán 	7	Santa Rita 	1	Enero	2023-01-31T00:00:00	2024-11-08T03:00:00	2	Temperatura media	14.8
73794	7	Sololá	704	Santa Lucía Utatlán 	7	Santa Rita 	1	Enero	2023-01-31T00:00:00	2024-11-08T03:00:00	4	Temperatura máxima	16.1
73795	7	Sololá	704	Santa Lucía Utatlán 	7	Santa Rita 	1	Enero	2023-01-31T00:00:00	2024-11-08T03:00:00	3	Temperatura mínima	13.9
73796	7	Sololá	704	Santa Lucía Utatlán 	7	Santa Rita 	1	Enero	2023-01-31T00:00:00	2024-11-08T03:00:00	5	Humedad	67
73797	7	Sololá	704	Santa Lucía Utatlán 	7	Santa Rita 	1	Enero	2023-01-31T00:00:00	2024-11-08T03:00:00	6	Velocidad del viento	3.2
73798	7	Sololá	704	Santa Lucía Utatlán 	7	Santa Rita 	1	Enero	2023-01-31T00:00:00	2024-11-08T03:00:00	7	Dirección del viento	3.22
73799	7	Sololá	704	Santa Lucía Utatlán 	7	Santa Rita 	1	Enero	2023-01-31T00:00:00	2024-11-08T03:00:00	1	Precipitación	0
73800	7	Sololá	704	Santa Lucía Utatlán 	7	Santa Rita 	1	Enero	2023-01-31T00:00:00	2024-11-08T03:00:00	8	Radiación solar	0
73801	7	Sololá	704	Santa Lucía Utatlán 	7	Santa Rita 	1	Enero	2023-01-31T00:00:00	2024-11-08T04:00:00	2	Temperatura media	14.4
73802	7	Sololá	704	Santa Lucía Utatlán 	7	Santa Rita 	1	Enero	2023-01-31T00:00:00	2024-11-08T04:00:00	4	Temperatura máxima	14.8
73803	7	Sololá	704	Santa Lucía Utatlán 	7	Santa Rita 	1	Enero	2023-01-31T00:00:00	2024-11-08T04:00:00	3	Temperatura mínima	13.9
73804	7	Sololá	704	Santa Lucía Utatlán 	7	Santa Rita 	1	Enero	2023-01-31T00:00:00	2024-11-08T04:00:00	5	Humedad	74
73805	7	Sololá	704	Santa Lucía Utatlán 	7	Santa Rita 	1	Enero	2023-01-31T00:00:00	2024-11-08T04:00:00	6	Velocidad del viento	1.6
73806	7	Sololá	704	Santa Lucía Utatlán 	7	Santa Rita 	1	Enero	2023-01-31T00:00:00	2024-11-08T04:00:00	7	Dirección del viento	1.61
73807	7	Sololá	704	Santa Lucía Utatlán 	7	Santa Rita 	1	Enero	2023-01-31T00:00:00	2024-11-08T04:00:00	1	Precipitación	0
73808	7	Sololá	704	Santa Lucía Utatlán 	7	Santa Rita 	1	Enero	2023-01-31T00:00:00	2024-11-08T04:00:00	8	Radiación solar	0
73809	7	Sololá	704	Santa Lucía Utatlán 	7	Santa Rita 	1	Enero	2023-01-31T00:00:00	2024-11-08T05:00:00	2	Temperatura media	13.6
73810	7	Sololá	704	Santa Lucía Utatlán 	7	Santa Rita 	1	Enero	2023-01-31T00:00:00	2024-11-08T05:00:00	4	Temperatura máxima	14.4
73811	7	Sololá	704	Santa Lucía Utatlán 	7	Santa Rita 	1	Enero	2023-01-31T00:00:00	2024-11-08T05:00:00	3	Temperatura mínima	13.4
73812	7	Sololá	704	Santa Lucía Utatlán 	7	Santa Rita 	1	Enero	2023-01-31T00:00:00	2024-11-08T05:00:00	5	Humedad	78
73813	7	Sololá	704	Santa Lucía Utatlán 	7	Santa Rita 	1	Enero	2023-01-31T00:00:00	2024-11-08T05:00:00	6	Velocidad del viento	1.6
73814	7	Sololá	704	Santa Lucía Utatlán 	7	Santa Rita 	1	Enero	2023-01-31T00:00:00	2024-11-08T05:00:00	7	Dirección del viento	1.61
73815	7	Sololá	704	Santa Lucía Utatlán 	7	Santa Rita 	1	Enero	2023-01-31T00:00:00	2024-11-08T05:00:00	1	Precipitación	0
73816	7	Sololá	704	Santa Lucía Utatlán 	7	Santa Rita 	1	Enero	2023-01-31T00:00:00	2024-11-08T05:00:00	8	Radiación solar	0
73817	7	Sololá	704	Santa Lucía Utatlán 	7	Santa Rita 	1	Enero	2023-01-31T00:00:00	2024-11-08T06:00:00	2	Temperatura media	12.8
73818	7	Sololá	704	Santa Lucía Utatlán 	7	Santa Rita 	1	Enero	2023-01-31T00:00:00	2024-11-08T06:00:00	4	Temperatura máxima	13.7
73819	7	Sololá	704	Santa Lucía Utatlán 	7	Santa Rita 	1	Enero	2023-01-31T00:00:00	2024-11-08T06:00:00	3	Temperatura mínima	12.8
73820	7	Sololá	704	Santa Lucía Utatlán 	7	Santa Rita 	1	Enero	2023-01-31T00:00:00	2024-11-08T06:00:00	5	Humedad	79
73821	7	Sololá	704	Santa Lucía Utatlán 	7	Santa Rita 	1	Enero	2023-01-31T00:00:00	2024-11-08T06:00:00	6	Velocidad del viento	1.6
73822	7	Sololá	704	Santa Lucía Utatlán 	7	Santa Rita 	1	Enero	2023-01-31T00:00:00	2024-11-08T06:00:00	7	Dirección del viento	1.61
73823	7	Sololá	704	Santa Lucía Utatlán 	7	Santa Rita 	1	Enero	2023-01-31T00:00:00	2024-11-08T06:00:00	1	Precipitación	0
73824	7	Sololá	704	Santa Lucía Utatlán 	7	Santa Rita 	1	Enero	2023-01-31T00:00:00	2024-11-08T06:00:00	8	Radiación solar	0
73825	7	Sololá	704	Santa Lucía Utatlán 	7	Santa Rita 	1	Enero	2023-01-31T00:00:00	2024-11-08T07:00:00	2	Temperatura media	13.3
73826	7	Sololá	704	Santa Lucía Utatlán 	7	Santa Rita 	1	Enero	2023-01-31T00:00:00	2024-11-08T07:00:00	4	Temperatura máxima	13.4
73827	7	Sololá	704	Santa Lucía Utatlán 	7	Santa Rita 	1	Enero	2023-01-31T00:00:00	2024-11-08T07:00:00	3	Temperatura mínima	12.7
73828	7	Sololá	704	Santa Lucía Utatlán 	7	Santa Rita 	1	Enero	2023-01-31T00:00:00	2024-11-08T07:00:00	5	Humedad	72
73829	7	Sololá	704	Santa Lucía Utatlán 	7	Santa Rita 	1	Enero	2023-01-31T00:00:00	2024-11-08T07:00:00	6	Velocidad del viento	3.2
73830	7	Sololá	704	Santa Lucía Utatlán 	7	Santa Rita 	1	Enero	2023-01-31T00:00:00	2024-11-08T07:00:00	7	Dirección del viento	3.22
73831	7	Sololá	704	Santa Lucía Utatlán 	7	Santa Rita 	1	Enero	2023-01-31T00:00:00	2024-11-08T07:00:00	1	Precipitación	0
73832	7	Sololá	704	Santa Lucía Utatlán 	7	Santa Rita 	1	Enero	2023-01-31T00:00:00	2024-11-08T07:00:00	8	Radiación solar	5
73833	7	Sololá	704	Santa Lucía Utatlán 	7	Santa Rita 	1	Enero	2023-01-31T00:00:00	2024-11-08T08:00:00	2	Temperatura media	17.6
73834	7	Sololá	704	Santa Lucía Utatlán 	7	Santa Rita 	1	Enero	2023-01-31T00:00:00	2024-11-08T08:00:00	4	Temperatura máxima	17.6
73835	7	Sololá	704	Santa Lucía Utatlán 	7	Santa Rita 	1	Enero	2023-01-31T00:00:00	2024-11-08T08:00:00	3	Temperatura mínima	13.3
73836	7	Sololá	704	Santa Lucía Utatlán 	7	Santa Rita 	1	Enero	2023-01-31T00:00:00	2024-11-08T08:00:00	5	Humedad	62
73837	7	Sololá	704	Santa Lucía Utatlán 	7	Santa Rita 	1	Enero	2023-01-31T00:00:00	2024-11-08T08:00:00	6	Velocidad del viento	1.6
73838	7	Sololá	704	Santa Lucía Utatlán 	7	Santa Rita 	1	Enero	2023-01-31T00:00:00	2024-11-08T08:00:00	7	Dirección del viento	1.61
73839	7	Sololá	704	Santa Lucía Utatlán 	7	Santa Rita 	1	Enero	2023-01-31T00:00:00	2024-11-08T08:00:00	1	Precipitación	0
73840	7	Sololá	704	Santa Lucía Utatlán 	7	Santa Rita 	1	Enero	2023-01-31T00:00:00	2024-11-08T08:00:00	8	Radiación solar	143
73841	7	Sololá	704	Santa Lucía Utatlán 	7	Santa Rita 	1	Enero	2023-01-31T00:00:00	2024-11-08T09:00:00	2	Temperatura media	21
73842	7	Sololá	704	Santa Lucía Utatlán 	7	Santa Rita 	1	Enero	2023-01-31T00:00:00	2024-11-08T09:00:00	4	Temperatura máxima	21
73843	7	Sololá	704	Santa Lucía Utatlán 	7	Santa Rita 	1	Enero	2023-01-31T00:00:00	2024-11-08T09:00:00	3	Temperatura mínima	17.6
73844	7	Sololá	704	Santa Lucía Utatlán 	7	Santa Rita 	1	Enero	2023-01-31T00:00:00	2024-11-08T09:00:00	5	Humedad	44
73845	7	Sololá	704	Santa Lucía Utatlán 	7	Santa Rita 	1	Enero	2023-01-31T00:00:00	2024-11-08T09:00:00	6	Velocidad del viento	3.2
73846	7	Sololá	704	Santa Lucía Utatlán 	7	Santa Rita 	1	Enero	2023-01-31T00:00:00	2024-11-08T09:00:00	7	Dirección del viento	3.22
73847	7	Sololá	704	Santa Lucía Utatlán 	7	Santa Rita 	1	Enero	2023-01-31T00:00:00	2024-11-08T09:00:00	1	Precipitación	0
73848	7	Sololá	704	Santa Lucía Utatlán 	7	Santa Rita 	1	Enero	2023-01-31T00:00:00	2024-11-08T09:00:00	8	Radiación solar	390
73849	7	Sololá	704	Santa Lucía Utatlán 	7	Santa Rita 	1	Enero	2023-01-31T00:00:00	2024-11-08T10:00:00	2	Temperatura media	22.9
73850	7	Sololá	704	Santa Lucía Utatlán 	7	Santa Rita 	1	Enero	2023-01-31T00:00:00	2024-11-08T10:00:00	4	Temperatura máxima	22.9
73851	7	Sololá	704	Santa Lucía Utatlán 	7	Santa Rita 	1	Enero	2023-01-31T00:00:00	2024-11-08T10:00:00	3	Temperatura mínima	20.9
73852	7	Sololá	704	Santa Lucía Utatlán 	7	Santa Rita 	1	Enero	2023-01-31T00:00:00	2024-11-08T10:00:00	5	Humedad	30
73853	7	Sololá	704	Santa Lucía Utatlán 	7	Santa Rita 	1	Enero	2023-01-31T00:00:00	2024-11-08T10:00:00	6	Velocidad del viento	8
73854	7	Sololá	704	Santa Lucía Utatlán 	7	Santa Rita 	1	Enero	2023-01-31T00:00:00	2024-11-08T10:00:00	7	Dirección del viento	8.05
73855	7	Sololá	704	Santa Lucía Utatlán 	7	Santa Rita 	1	Enero	2023-01-31T00:00:00	2024-11-08T10:00:00	1	Precipitación	0
73856	7	Sololá	704	Santa Lucía Utatlán 	7	Santa Rita 	1	Enero	2023-01-31T00:00:00	2024-11-08T10:00:00	8	Radiación solar	598
73857	7	Sololá	704	Santa Lucía Utatlán 	7	Santa Rita 	1	Enero	2023-01-31T00:00:00	2024-11-08T11:00:00	2	Temperatura media	23.7
73858	7	Sololá	704	Santa Lucía Utatlán 	7	Santa Rita 	1	Enero	2023-01-31T00:00:00	2024-11-08T11:00:00	4	Temperatura máxima	23.7
73859	7	Sololá	704	Santa Lucía Utatlán 	7	Santa Rita 	1	Enero	2023-01-31T00:00:00	2024-11-08T11:00:00	3	Temperatura mínima	22.8
73860	7	Sololá	704	Santa Lucía Utatlán 	7	Santa Rita 	1	Enero	2023-01-31T00:00:00	2024-11-08T11:00:00	5	Humedad	32
73861	7	Sololá	704	Santa Lucía Utatlán 	7	Santa Rita 	1	Enero	2023-01-31T00:00:00	2024-11-08T11:00:00	6	Velocidad del viento	11.3
73862	7	Sololá	704	Santa Lucía Utatlán 	7	Santa Rita 	1	Enero	2023-01-31T00:00:00	2024-11-08T11:00:00	7	Dirección del viento	11.27
73863	7	Sololá	704	Santa Lucía Utatlán 	7	Santa Rita 	1	Enero	2023-01-31T00:00:00	2024-11-08T11:00:00	1	Precipitación	0
73864	7	Sololá	704	Santa Lucía Utatlán 	7	Santa Rita 	1	Enero	2023-01-31T00:00:00	2024-11-08T11:00:00	8	Radiación solar	754
73865	7	Sololá	704	Santa Lucía Utatlán 	7	Santa Rita 	1	Enero	2023-01-31T00:00:00	2024-11-08T12:00:00	2	Temperatura media	25.3
73866	7	Sololá	704	Santa Lucía Utatlán 	7	Santa Rita 	1	Enero	2023-01-31T00:00:00	2024-11-08T12:00:00	4	Temperatura máxima	25.3
73867	7	Sololá	704	Santa Lucía Utatlán 	7	Santa Rita 	1	Enero	2023-01-31T00:00:00	2024-11-08T12:00:00	3	Temperatura mínima	23.7
73868	7	Sololá	704	Santa Lucía Utatlán 	7	Santa Rita 	1	Enero	2023-01-31T00:00:00	2024-11-08T12:00:00	5	Humedad	28
73869	7	Sololá	704	Santa Lucía Utatlán 	7	Santa Rita 	1	Enero	2023-01-31T00:00:00	2024-11-08T12:00:00	6	Velocidad del viento	9.7
73870	7	Sololá	704	Santa Lucía Utatlán 	7	Santa Rita 	1	Enero	2023-01-31T00:00:00	2024-11-08T12:00:00	7	Dirección del viento	9.66
73871	7	Sololá	704	Santa Lucía Utatlán 	7	Santa Rita 	1	Enero	2023-01-31T00:00:00	2024-11-08T12:00:00	1	Precipitación	0
73872	7	Sololá	704	Santa Lucía Utatlán 	7	Santa Rita 	1	Enero	2023-01-31T00:00:00	2024-11-08T12:00:00	8	Radiación solar	845
73873	7	Sololá	704	Santa Lucía Utatlán 	7	Santa Rita 	1	Enero	2023-01-31T00:00:00	2024-11-08T13:00:00	2	Temperatura media	25.7
73874	7	Sololá	704	Santa Lucía Utatlán 	7	Santa Rita 	1	Enero	2023-01-31T00:00:00	2024-11-08T13:00:00	4	Temperatura máxima	26.2
73875	7	Sololá	704	Santa Lucía Utatlán 	7	Santa Rita 	1	Enero	2023-01-31T00:00:00	2024-11-08T13:00:00	3	Temperatura mínima	25.1
73876	7	Sololá	704	Santa Lucía Utatlán 	7	Santa Rita 	1	Enero	2023-01-31T00:00:00	2024-11-08T13:00:00	5	Humedad	30
73877	7	Sololá	704	Santa Lucía Utatlán 	7	Santa Rita 	1	Enero	2023-01-31T00:00:00	2024-11-08T13:00:00	6	Velocidad del viento	8
73878	7	Sololá	704	Santa Lucía Utatlán 	7	Santa Rita 	1	Enero	2023-01-31T00:00:00	2024-11-08T13:00:00	7	Dirección del viento	8.05
73879	7	Sololá	704	Santa Lucía Utatlán 	7	Santa Rita 	1	Enero	2023-01-31T00:00:00	2024-11-08T13:00:00	1	Precipitación	0
73880	7	Sololá	704	Santa Lucía Utatlán 	7	Santa Rita 	1	Enero	2023-01-31T00:00:00	2024-11-08T13:00:00	8	Radiación solar	861
73881	7	Sololá	704	Santa Lucía Utatlán 	7	Santa Rita 	1	Enero	2023-01-31T00:00:00	2024-11-08T14:00:00	2	Temperatura media	25.9
73882	7	Sololá	704	Santa Lucía Utatlán 	7	Santa Rita 	1	Enero	2023-01-31T00:00:00	2024-11-08T14:00:00	4	Temperatura máxima	26.1
73883	7	Sololá	704	Santa Lucía Utatlán 	7	Santa Rita 	1	Enero	2023-01-31T00:00:00	2024-11-08T14:00:00	3	Temperatura mínima	25.4
73884	7	Sololá	704	Santa Lucía Utatlán 	7	Santa Rita 	1	Enero	2023-01-31T00:00:00	2024-11-08T14:00:00	5	Humedad	29
73885	7	Sololá	704	Santa Lucía Utatlán 	7	Santa Rita 	1	Enero	2023-01-31T00:00:00	2024-11-08T14:00:00	6	Velocidad del viento	9.7
73886	7	Sololá	704	Santa Lucía Utatlán 	7	Santa Rita 	1	Enero	2023-01-31T00:00:00	2024-11-08T14:00:00	7	Dirección del viento	9.66
73887	7	Sololá	704	Santa Lucía Utatlán 	7	Santa Rita 	1	Enero	2023-01-31T00:00:00	2024-11-08T14:00:00	1	Precipitación	0
73888	7	Sololá	704	Santa Lucía Utatlán 	7	Santa Rita 	1	Enero	2023-01-31T00:00:00	2024-11-08T14:00:00	8	Radiación solar	815
73889	7	Sololá	704	Santa Lucía Utatlán 	7	Santa Rita 	1	Enero	2023-01-31T00:00:00	2024-11-08T15:00:00	2	Temperatura media	25.7
73890	7	Sololá	704	Santa Lucía Utatlán 	7	Santa Rita 	1	Enero	2023-01-31T00:00:00	2024-11-08T15:00:00	4	Temperatura máxima	26.1
73891	7	Sololá	704	Santa Lucía Utatlán 	7	Santa Rita 	1	Enero	2023-01-31T00:00:00	2024-11-08T15:00:00	3	Temperatura mínima	25.6
73892	7	Sololá	704	Santa Lucía Utatlán 	7	Santa Rita 	1	Enero	2023-01-31T00:00:00	2024-11-08T15:00:00	5	Humedad	34
73893	7	Sololá	704	Santa Lucía Utatlán 	7	Santa Rita 	1	Enero	2023-01-31T00:00:00	2024-11-08T15:00:00	6	Velocidad del viento	9.7
73894	7	Sololá	704	Santa Lucía Utatlán 	7	Santa Rita 	1	Enero	2023-01-31T00:00:00	2024-11-08T15:00:00	7	Dirección del viento	9.66
73895	7	Sololá	704	Santa Lucía Utatlán 	7	Santa Rita 	1	Enero	2023-01-31T00:00:00	2024-11-08T15:00:00	1	Precipitación	0
73896	7	Sololá	704	Santa Lucía Utatlán 	7	Santa Rita 	1	Enero	2023-01-31T00:00:00	2024-11-08T15:00:00	8	Radiación solar	694
73897	7	Sololá	704	Santa Lucía Utatlán 	7	Santa Rita 	1	Enero	2023-01-31T00:00:00	2024-11-08T16:00:00	2	Temperatura media	24.1
73898	7	Sololá	704	Santa Lucía Utatlán 	7	Santa Rita 	1	Enero	2023-01-31T00:00:00	2024-11-08T16:00:00	4	Temperatura máxima	25.7
73899	7	Sololá	704	Santa Lucía Utatlán 	7	Santa Rita 	1	Enero	2023-01-31T00:00:00	2024-11-08T16:00:00	3	Temperatura mínima	24.1
73900	7	Sololá	704	Santa Lucía Utatlán 	7	Santa Rita 	1	Enero	2023-01-31T00:00:00	2024-11-08T16:00:00	5	Humedad	45
73901	7	Sololá	704	Santa Lucía Utatlán 	7	Santa Rita 	1	Enero	2023-01-31T00:00:00	2024-11-08T16:00:00	6	Velocidad del viento	9.7
73902	7	Sololá	704	Santa Lucía Utatlán 	7	Santa Rita 	1	Enero	2023-01-31T00:00:00	2024-11-08T16:00:00	7	Dirección del viento	9.66
73903	7	Sololá	704	Santa Lucía Utatlán 	7	Santa Rita 	1	Enero	2023-01-31T00:00:00	2024-11-08T16:00:00	1	Precipitación	0
73904	7	Sololá	704	Santa Lucía Utatlán 	7	Santa Rita 	1	Enero	2023-01-31T00:00:00	2024-11-08T16:00:00	8	Radiación solar	422
73905	7	Sololá	704	Santa Lucía Utatlán 	7	Santa Rita 	1	Enero	2023-01-31T00:00:00	2024-11-08T17:00:00	2	Temperatura media	23.1
73906	7	Sololá	704	Santa Lucía Utatlán 	7	Santa Rita 	1	Enero	2023-01-31T00:00:00	2024-11-08T17:00:00	4	Temperatura máxima	24.1
73907	7	Sololá	704	Santa Lucía Utatlán 	7	Santa Rita 	1	Enero	2023-01-31T00:00:00	2024-11-08T17:00:00	3	Temperatura mínima	23
73908	7	Sololá	704	Santa Lucía Utatlán 	7	Santa Rita 	1	Enero	2023-01-31T00:00:00	2024-11-08T17:00:00	5	Humedad	41
73909	7	Sololá	704	Santa Lucía Utatlán 	7	Santa Rita 	1	Enero	2023-01-31T00:00:00	2024-11-08T17:00:00	6	Velocidad del viento	8
73910	7	Sololá	704	Santa Lucía Utatlán 	7	Santa Rita 	1	Enero	2023-01-31T00:00:00	2024-11-08T17:00:00	7	Dirección del viento	8.05
73911	7	Sololá	704	Santa Lucía Utatlán 	7	Santa Rita 	1	Enero	2023-01-31T00:00:00	2024-11-08T17:00:00	1	Precipitación	0
73912	7	Sololá	704	Santa Lucía Utatlán 	7	Santa Rita 	1	Enero	2023-01-31T00:00:00	2024-11-08T17:00:00	8	Radiación solar	216
73913	7	Sololá	704	Santa Lucía Utatlán 	7	Santa Rita 	1	Enero	2023-01-31T00:00:00	2024-11-08T18:00:00	2	Temperatura media	19.8
73914	7	Sololá	704	Santa Lucía Utatlán 	7	Santa Rita 	1	Enero	2023-01-31T00:00:00	2024-11-08T18:00:00	4	Temperatura máxima	23.2
73915	7	Sololá	704	Santa Lucía Utatlán 	7	Santa Rita 	1	Enero	2023-01-31T00:00:00	2024-11-08T18:00:00	3	Temperatura mínima	19.8
73916	7	Sololá	704	Santa Lucía Utatlán 	7	Santa Rita 	1	Enero	2023-01-31T00:00:00	2024-11-08T18:00:00	5	Humedad	39
73917	7	Sololá	704	Santa Lucía Utatlán 	7	Santa Rita 	1	Enero	2023-01-31T00:00:00	2024-11-08T18:00:00	6	Velocidad del viento	6.4
73918	7	Sololá	704	Santa Lucía Utatlán 	7	Santa Rita 	1	Enero	2023-01-31T00:00:00	2024-11-08T18:00:00	7	Dirección del viento	6.44
73919	7	Sololá	704	Santa Lucía Utatlán 	7	Santa Rita 	1	Enero	2023-01-31T00:00:00	2024-11-08T18:00:00	1	Precipitación	0
73920	7	Sololá	704	Santa Lucía Utatlán 	7	Santa Rita 	1	Enero	2023-01-31T00:00:00	2024-11-08T18:00:00	8	Radiación solar	31
73921	7	Sololá	704	Santa Lucía Utatlán 	7	Santa Rita 	1	Enero	2023-01-31T00:00:00	2024-11-08T19:00:00	2	Temperatura media	17.3
73922	7	Sololá	704	Santa Lucía Utatlán 	7	Santa Rita 	1	Enero	2023-01-31T00:00:00	2024-11-08T19:00:00	4	Temperatura máxima	19.7
73923	7	Sololá	704	Santa Lucía Utatlán 	7	Santa Rita 	1	Enero	2023-01-31T00:00:00	2024-11-08T19:00:00	3	Temperatura mínima	17.3
73924	7	Sololá	704	Santa Lucía Utatlán 	7	Santa Rita 	1	Enero	2023-01-31T00:00:00	2024-11-08T19:00:00	5	Humedad	46
73925	7	Sololá	704	Santa Lucía Utatlán 	7	Santa Rita 	1	Enero	2023-01-31T00:00:00	2024-11-08T19:00:00	6	Velocidad del viento	4.8
73926	7	Sololá	704	Santa Lucía Utatlán 	7	Santa Rita 	1	Enero	2023-01-31T00:00:00	2024-11-08T19:00:00	7	Dirección del viento	4.83
73927	7	Sololá	704	Santa Lucía Utatlán 	7	Santa Rita 	1	Enero	2023-01-31T00:00:00	2024-11-08T19:00:00	1	Precipitación	0
73928	7	Sololá	704	Santa Lucía Utatlán 	7	Santa Rita 	1	Enero	2023-01-31T00:00:00	2024-11-08T19:00:00	8	Radiación solar	0
73929	7	Sololá	704	Santa Lucía Utatlán 	7	Santa Rita 	1	Enero	2023-01-31T00:00:00	2024-11-08T20:00:00	2	Temperatura media	16.6
73930	7	Sololá	704	Santa Lucía Utatlán 	7	Santa Rita 	1	Enero	2023-01-31T00:00:00	2024-11-08T20:00:00	4	Temperatura máxima	17.4
73931	7	Sololá	704	Santa Lucía Utatlán 	7	Santa Rita 	1	Enero	2023-01-31T00:00:00	2024-11-08T20:00:00	3	Temperatura mínima	16.6
73932	7	Sololá	704	Santa Lucía Utatlán 	7	Santa Rita 	1	Enero	2023-01-31T00:00:00	2024-11-08T20:00:00	5	Humedad	48
73933	7	Sololá	704	Santa Lucía Utatlán 	7	Santa Rita 	1	Enero	2023-01-31T00:00:00	2024-11-08T20:00:00	6	Velocidad del viento	3.2
73934	7	Sololá	704	Santa Lucía Utatlán 	7	Santa Rita 	1	Enero	2023-01-31T00:00:00	2024-11-08T20:00:00	7	Dirección del viento	3.22
73935	7	Sololá	704	Santa Lucía Utatlán 	7	Santa Rita 	1	Enero	2023-01-31T00:00:00	2024-11-08T20:00:00	1	Precipitación	0
73936	7	Sololá	704	Santa Lucía Utatlán 	7	Santa Rita 	1	Enero	2023-01-31T00:00:00	2024-11-08T20:00:00	8	Radiación solar	0
73937	7	Sololá	704	Santa Lucía Utatlán 	7	Santa Rita 	1	Enero	2023-01-31T00:00:00	2024-11-08T21:00:00	2	Temperatura media	16.5
73938	7	Sololá	704	Santa Lucía Utatlán 	7	Santa Rita 	1	Enero	2023-01-31T00:00:00	2024-11-08T21:00:00	4	Temperatura máxima	17.1
73939	7	Sololá	704	Santa Lucía Utatlán 	7	Santa Rita 	1	Enero	2023-01-31T00:00:00	2024-11-08T21:00:00	3	Temperatura mínima	16.5
73940	7	Sololá	704	Santa Lucía Utatlán 	7	Santa Rita 	1	Enero	2023-01-31T00:00:00	2024-11-08T21:00:00	5	Humedad	42
73941	7	Sololá	704	Santa Lucía Utatlán 	7	Santa Rita 	1	Enero	2023-01-31T00:00:00	2024-11-08T21:00:00	6	Velocidad del viento	3.2
73942	7	Sololá	704	Santa Lucía Utatlán 	7	Santa Rita 	1	Enero	2023-01-31T00:00:00	2024-11-08T21:00:00	7	Dirección del viento	3.22
73943	7	Sololá	704	Santa Lucía Utatlán 	7	Santa Rita 	1	Enero	2023-01-31T00:00:00	2024-11-08T21:00:00	1	Precipitación	0
73944	7	Sololá	704	Santa Lucía Utatlán 	7	Santa Rita 	1	Enero	2023-01-31T00:00:00	2024-11-08T21:00:00	8	Radiación solar	0
73945	7	Sololá	704	Santa Lucía Utatlán 	7	Santa Rita 	1	Enero	2023-01-31T00:00:00	2024-11-08T22:00:00	2	Temperatura media	16.1
73946	7	Sololá	704	Santa Lucía Utatlán 	7	Santa Rita 	1	Enero	2023-01-31T00:00:00	2024-11-08T22:00:00	4	Temperatura máxima	16.6
73947	7	Sololá	704	Santa Lucía Utatlán 	7	Santa Rita 	1	Enero	2023-01-31T00:00:00	2024-11-08T22:00:00	3	Temperatura mínima	15.9
73948	7	Sololá	704	Santa Lucía Utatlán 	7	Santa Rita 	1	Enero	2023-01-31T00:00:00	2024-11-08T22:00:00	5	Humedad	38
73949	7	Sololá	704	Santa Lucía Utatlán 	7	Santa Rita 	1	Enero	2023-01-31T00:00:00	2024-11-08T22:00:00	6	Velocidad del viento	3.2
73950	7	Sololá	704	Santa Lucía Utatlán 	7	Santa Rita 	1	Enero	2023-01-31T00:00:00	2024-11-08T22:00:00	7	Dirección del viento	3.22
73951	7	Sololá	704	Santa Lucía Utatlán 	7	Santa Rita 	1	Enero	2023-01-31T00:00:00	2024-11-08T22:00:00	1	Precipitación	0
73952	7	Sololá	704	Santa Lucía Utatlán 	7	Santa Rita 	1	Enero	2023-01-31T00:00:00	2024-11-08T22:00:00	8	Radiación solar	0
73953	7	Sololá	704	Santa Lucía Utatlán 	7	Santa Rita 	1	Enero	2023-01-31T00:00:00	2024-11-08T23:00:00	2	Temperatura media	15.6
73954	7	Sololá	704	Santa Lucía Utatlán 	7	Santa Rita 	1	Enero	2023-01-31T00:00:00	2024-11-08T23:00:00	4	Temperatura máxima	16.3
73955	7	Sololá	704	Santa Lucía Utatlán 	7	Santa Rita 	1	Enero	2023-01-31T00:00:00	2024-11-08T23:00:00	3	Temperatura mínima	15.3
73956	7	Sololá	704	Santa Lucía Utatlán 	7	Santa Rita 	1	Enero	2023-01-31T00:00:00	2024-11-08T23:00:00	5	Humedad	36
73957	7	Sololá	704	Santa Lucía Utatlán 	7	Santa Rita 	1	Enero	2023-01-31T00:00:00	2024-11-08T23:00:00	6	Velocidad del viento	3.2
73958	7	Sololá	704	Santa Lucía Utatlán 	7	Santa Rita 	1	Enero	2023-01-31T00:00:00	2024-11-08T23:00:00	7	Dirección del viento	3.22
73959	7	Sololá	704	Santa Lucía Utatlán 	7	Santa Rita 	1	Enero	2023-01-31T00:00:00	2024-11-08T23:00:00	1	Precipitación	0
73960	7	Sololá	704	Santa Lucía Utatlán 	7	Santa Rita 	1	Enero	2023-01-31T00:00:00	2024-11-08T23:00:00	8	Radiación solar	0
73961	7	Sololá	704	Santa Lucía Utatlán 	7	Santa Rita 	2	Febrero	2023-01-02T00:00:00	2024-11-08T00:00:00	2	Temperatura media	15.2
73962	7	Sololá	704	Santa Lucía Utatlán 	7	Santa Rita 	2	Febrero	2023-01-02T00:00:00	2024-11-08T00:00:00	4	Temperatura máxima	16.1
73963	7	Sololá	704	Santa Lucía Utatlán 	7	Santa Rita 	2	Febrero	2023-01-02T00:00:00	2024-11-08T00:00:00	3	Temperatura mínima	15.1
73964	7	Sololá	704	Santa Lucía Utatlán 	7	Santa Rita 	2	Febrero	2023-01-02T00:00:00	2024-11-08T00:00:00	5	Humedad	39
73965	7	Sololá	704	Santa Lucía Utatlán 	7	Santa Rita 	2	Febrero	2023-01-02T00:00:00	2024-11-08T00:00:00	6	Velocidad del viento	4.8
73966	7	Sololá	704	Santa Lucía Utatlán 	7	Santa Rita 	2	Febrero	2023-01-02T00:00:00	2024-11-08T00:00:00	7	Dirección del viento	4.83
73967	7	Sololá	704	Santa Lucía Utatlán 	7	Santa Rita 	2	Febrero	2023-01-02T00:00:00	2024-11-08T00:00:00	1	Precipitación	0
73968	7	Sololá	704	Santa Lucía Utatlán 	7	Santa Rita 	2	Febrero	2023-01-02T00:00:00	2024-11-08T00:00:00	8	Radiación solar	0
73969	7	Sololá	704	Santa Lucía Utatlán 	7	Santa Rita 	2	Febrero	2023-01-02T00:00:00	2024-11-08T01:00:00	2	Temperatura media	14.8
73970	7	Sololá	704	Santa Lucía Utatlán 	7	Santa Rita 	2	Febrero	2023-01-02T00:00:00	2024-11-08T01:00:00	4	Temperatura máxima	15.4
73971	7	Sololá	704	Santa Lucía Utatlán 	7	Santa Rita 	2	Febrero	2023-01-02T00:00:00	2024-11-08T01:00:00	3	Temperatura mínima	14.7
73972	7	Sololá	704	Santa Lucía Utatlán 	7	Santa Rita 	2	Febrero	2023-01-02T00:00:00	2024-11-08T01:00:00	5	Humedad	41
73973	7	Sololá	704	Santa Lucía Utatlán 	7	Santa Rita 	2	Febrero	2023-01-02T00:00:00	2024-11-08T01:00:00	6	Velocidad del viento	3.2
73974	7	Sololá	704	Santa Lucía Utatlán 	7	Santa Rita 	2	Febrero	2023-01-02T00:00:00	2024-11-08T01:00:00	7	Dirección del viento	3.22
73975	7	Sololá	704	Santa Lucía Utatlán 	7	Santa Rita 	2	Febrero	2023-01-02T00:00:00	2024-11-08T01:00:00	1	Precipitación	0
73976	7	Sololá	704	Santa Lucía Utatlán 	7	Santa Rita 	2	Febrero	2023-01-02T00:00:00	2024-11-08T01:00:00	8	Radiación solar	0
73977	7	Sololá	704	Santa Lucía Utatlán 	7	Santa Rita 	2	Febrero	2023-01-02T00:00:00	2024-11-08T02:00:00	2	Temperatura media	14.6
73978	7	Sololá	704	Santa Lucía Utatlán 	7	Santa Rita 	2	Febrero	2023-01-02T00:00:00	2024-11-08T02:00:00	4	Temperatura máxima	14.9
73979	7	Sololá	704	Santa Lucía Utatlán 	7	Santa Rita 	2	Febrero	2023-01-02T00:00:00	2024-11-08T02:00:00	3	Temperatura mínima	14.5
73980	7	Sololá	704	Santa Lucía Utatlán 	7	Santa Rita 	2	Febrero	2023-01-02T00:00:00	2024-11-08T02:00:00	5	Humedad	39
73981	7	Sololá	704	Santa Lucía Utatlán 	7	Santa Rita 	2	Febrero	2023-01-02T00:00:00	2024-11-08T02:00:00	6	Velocidad del viento	4.8
73982	7	Sololá	704	Santa Lucía Utatlán 	7	Santa Rita 	2	Febrero	2023-01-02T00:00:00	2024-11-08T02:00:00	7	Dirección del viento	4.83
73983	7	Sololá	704	Santa Lucía Utatlán 	7	Santa Rita 	2	Febrero	2023-01-02T00:00:00	2024-11-08T02:00:00	1	Precipitación	0
73984	7	Sololá	704	Santa Lucía Utatlán 	7	Santa Rita 	2	Febrero	2023-01-02T00:00:00	2024-11-08T02:00:00	8	Radiación solar	0
73985	7	Sololá	704	Santa Lucía Utatlán 	7	Santa Rita 	2	Febrero	2023-01-02T00:00:00	2024-11-08T03:00:00	2	Temperatura media	13.9
73986	7	Sololá	704	Santa Lucía Utatlán 	7	Santa Rita 	2	Febrero	2023-01-02T00:00:00	2024-11-08T03:00:00	4	Temperatura máxima	14.7
73987	7	Sololá	704	Santa Lucía Utatlán 	7	Santa Rita 	2	Febrero	2023-01-02T00:00:00	2024-11-08T03:00:00	3	Temperatura mínima	13.9
73988	7	Sololá	704	Santa Lucía Utatlán 	7	Santa Rita 	2	Febrero	2023-01-02T00:00:00	2024-11-08T03:00:00	5	Humedad	48
73989	7	Sololá	704	Santa Lucía Utatlán 	7	Santa Rita 	2	Febrero	2023-01-02T00:00:00	2024-11-08T03:00:00	6	Velocidad del viento	4.8
73990	7	Sololá	704	Santa Lucía Utatlán 	7	Santa Rita 	2	Febrero	2023-01-02T00:00:00	2024-11-08T03:00:00	7	Dirección del viento	4.83
73991	7	Sololá	704	Santa Lucía Utatlán 	7	Santa Rita 	2	Febrero	2023-01-02T00:00:00	2024-11-08T03:00:00	1	Precipitación	0
73992	7	Sololá	704	Santa Lucía Utatlán 	7	Santa Rita 	2	Febrero	2023-01-02T00:00:00	2024-11-08T03:00:00	8	Radiación solar	0
73993	7	Sololá	704	Santa Lucía Utatlán 	7	Santa Rita 	2	Febrero	2023-01-02T00:00:00	2024-11-08T04:00:00	2	Temperatura media	13.7
73994	7	Sololá	704	Santa Lucía Utatlán 	7	Santa Rita 	2	Febrero	2023-01-02T00:00:00	2024-11-08T04:00:00	4	Temperatura máxima	14.1
73995	7	Sololá	704	Santa Lucía Utatlán 	7	Santa Rita 	2	Febrero	2023-01-02T00:00:00	2024-11-08T04:00:00	3	Temperatura mínima	13.6
73996	7	Sololá	704	Santa Lucía Utatlán 	7	Santa Rita 	2	Febrero	2023-01-02T00:00:00	2024-11-08T04:00:00	5	Humedad	52
73997	7	Sololá	704	Santa Lucía Utatlán 	7	Santa Rita 	2	Febrero	2023-01-02T00:00:00	2024-11-08T04:00:00	6	Velocidad del viento	4.8
73998	7	Sololá	704	Santa Lucía Utatlán 	7	Santa Rita 	2	Febrero	2023-01-02T00:00:00	2024-11-08T04:00:00	7	Dirección del viento	4.83
73999	7	Sololá	704	Santa Lucía Utatlán 	7	Santa Rita 	2	Febrero	2023-01-02T00:00:00	2024-11-08T04:00:00	1	Precipitación	0
74000	7	Sololá	704	Santa Lucía Utatlán 	7	Santa Rita 	2	Febrero	2023-01-02T00:00:00	2024-11-08T04:00:00	8	Radiación solar	0
74001	7	Sololá	704	Santa Lucía Utatlán 	7	Santa Rita 	2	Febrero	2023-01-02T00:00:00	2024-11-08T05:00:00	2	Temperatura media	13.6
74002	7	Sololá	704	Santa Lucía Utatlán 	7	Santa Rita 	2	Febrero	2023-01-02T00:00:00	2024-11-08T05:00:00	4	Temperatura máxima	13.9
74003	7	Sololá	704	Santa Lucía Utatlán 	7	Santa Rita 	2	Febrero	2023-01-02T00:00:00	2024-11-08T05:00:00	3	Temperatura mínima	13.4
74004	7	Sololá	704	Santa Lucía Utatlán 	7	Santa Rita 	2	Febrero	2023-01-02T00:00:00	2024-11-08T05:00:00	5	Humedad	54
74005	7	Sololá	704	Santa Lucía Utatlán 	7	Santa Rita 	2	Febrero	2023-01-02T00:00:00	2024-11-08T05:00:00	6	Velocidad del viento	4.8
74006	7	Sololá	704	Santa Lucía Utatlán 	7	Santa Rita 	2	Febrero	2023-01-02T00:00:00	2024-11-08T05:00:00	7	Dirección del viento	4.83
74007	7	Sololá	704	Santa Lucía Utatlán 	7	Santa Rita 	2	Febrero	2023-01-02T00:00:00	2024-11-08T05:00:00	1	Precipitación	0
74008	7	Sololá	704	Santa Lucía Utatlán 	7	Santa Rita 	2	Febrero	2023-01-02T00:00:00	2024-11-08T05:00:00	8	Radiación solar	0
74009	7	Sololá	704	Santa Lucía Utatlán 	7	Santa Rita 	2	Febrero	2023-01-02T00:00:00	2024-11-08T06:00:00	2	Temperatura media	15.2
74010	7	Sololá	704	Santa Lucía Utatlán 	7	Santa Rita 	2	Febrero	2023-01-02T00:00:00	2024-11-08T06:00:00	4	Temperatura máxima	15.2
74011	7	Sololá	704	Santa Lucía Utatlán 	7	Santa Rita 	2	Febrero	2023-01-02T00:00:00	2024-11-08T06:00:00	3	Temperatura mínima	13.3
74012	7	Sololá	704	Santa Lucía Utatlán 	7	Santa Rita 	2	Febrero	2023-01-02T00:00:00	2024-11-08T06:00:00	5	Humedad	51
74013	7	Sololá	704	Santa Lucía Utatlán 	7	Santa Rita 	2	Febrero	2023-01-02T00:00:00	2024-11-08T06:00:00	6	Velocidad del viento	4.8
74014	7	Sololá	704	Santa Lucía Utatlán 	7	Santa Rita 	2	Febrero	2023-01-02T00:00:00	2024-11-08T06:00:00	7	Dirección del viento	4.83
74015	7	Sololá	704	Santa Lucía Utatlán 	7	Santa Rita 	2	Febrero	2023-01-02T00:00:00	2024-11-08T06:00:00	1	Precipitación	0
74016	7	Sololá	704	Santa Lucía Utatlán 	7	Santa Rita 	2	Febrero	2023-01-02T00:00:00	2024-11-08T06:00:00	8	Radiación solar	0
74017	7	Sololá	704	Santa Lucía Utatlán 	7	Santa Rita 	2	Febrero	2023-01-02T00:00:00	2024-11-08T07:00:00	2	Temperatura media	14.3
74018	7	Sololá	704	Santa Lucía Utatlán 	7	Santa Rita 	2	Febrero	2023-01-02T00:00:00	2024-11-08T07:00:00	4	Temperatura máxima	15.6
74019	7	Sololá	704	Santa Lucía Utatlán 	7	Santa Rita 	2	Febrero	2023-01-02T00:00:00	2024-11-08T07:00:00	3	Temperatura mínima	14.3
74020	7	Sololá	704	Santa Lucía Utatlán 	7	Santa Rita 	2	Febrero	2023-01-02T00:00:00	2024-11-08T07:00:00	5	Humedad	59
74021	7	Sololá	704	Santa Lucía Utatlán 	7	Santa Rita 	2	Febrero	2023-01-02T00:00:00	2024-11-08T07:00:00	6	Velocidad del viento	3.2
74022	7	Sololá	704	Santa Lucía Utatlán 	7	Santa Rita 	2	Febrero	2023-01-02T00:00:00	2024-11-08T07:00:00	7	Dirección del viento	3.22
74023	7	Sololá	704	Santa Lucía Utatlán 	7	Santa Rita 	2	Febrero	2023-01-02T00:00:00	2024-11-08T07:00:00	1	Precipitación	0
74024	7	Sololá	704	Santa Lucía Utatlán 	7	Santa Rita 	2	Febrero	2023-01-02T00:00:00	2024-11-08T07:00:00	8	Radiación solar	5
74025	7	Sololá	704	Santa Lucía Utatlán 	7	Santa Rita 	2	Febrero	2023-01-02T00:00:00	2024-11-08T08:00:00	2	Temperatura media	18.9
74026	7	Sololá	704	Santa Lucía Utatlán 	7	Santa Rita 	2	Febrero	2023-01-02T00:00:00	2024-11-08T08:00:00	4	Temperatura máxima	18.9
74027	7	Sololá	704	Santa Lucía Utatlán 	7	Santa Rita 	2	Febrero	2023-01-02T00:00:00	2024-11-08T08:00:00	3	Temperatura mínima	14.4
74028	7	Sololá	704	Santa Lucía Utatlán 	7	Santa Rita 	2	Febrero	2023-01-02T00:00:00	2024-11-08T08:00:00	5	Humedad	49
74029	7	Sololá	704	Santa Lucía Utatlán 	7	Santa Rita 	2	Febrero	2023-01-02T00:00:00	2024-11-08T08:00:00	6	Velocidad del viento	1.6
74030	7	Sololá	704	Santa Lucía Utatlán 	7	Santa Rita 	2	Febrero	2023-01-02T00:00:00	2024-11-08T08:00:00	7	Dirección del viento	1.61
74031	7	Sololá	704	Santa Lucía Utatlán 	7	Santa Rita 	2	Febrero	2023-01-02T00:00:00	2024-11-08T08:00:00	1	Precipitación	0
74032	7	Sololá	704	Santa Lucía Utatlán 	7	Santa Rita 	2	Febrero	2023-01-02T00:00:00	2024-11-08T08:00:00	8	Radiación solar	141
74033	7	Sololá	704	Santa Lucía Utatlán 	7	Santa Rita 	2	Febrero	2023-01-02T00:00:00	2024-11-08T09:00:00	2	Temperatura media	21.8
74034	7	Sololá	704	Santa Lucía Utatlán 	7	Santa Rita 	2	Febrero	2023-01-02T00:00:00	2024-11-08T09:00:00	4	Temperatura máxima	21.8
74035	7	Sololá	704	Santa Lucía Utatlán 	7	Santa Rita 	2	Febrero	2023-01-02T00:00:00	2024-11-08T09:00:00	3	Temperatura mínima	19
74036	7	Sololá	704	Santa Lucía Utatlán 	7	Santa Rita 	2	Febrero	2023-01-02T00:00:00	2024-11-08T09:00:00	5	Humedad	48
74037	7	Sololá	704	Santa Lucía Utatlán 	7	Santa Rita 	2	Febrero	2023-01-02T00:00:00	2024-11-08T09:00:00	6	Velocidad del viento	3.2
74038	7	Sololá	704	Santa Lucía Utatlán 	7	Santa Rita 	2	Febrero	2023-01-02T00:00:00	2024-11-08T09:00:00	7	Dirección del viento	3.22
74039	7	Sololá	704	Santa Lucía Utatlán 	7	Santa Rita 	2	Febrero	2023-01-02T00:00:00	2024-11-08T09:00:00	1	Precipitación	0
74040	7	Sololá	704	Santa Lucía Utatlán 	7	Santa Rita 	2	Febrero	2023-01-02T00:00:00	2024-11-08T09:00:00	8	Radiación solar	383
74041	7	Sololá	704	Santa Lucía Utatlán 	7	Santa Rita 	2	Febrero	2023-01-02T00:00:00	2024-11-08T10:00:00	2	Temperatura media	23.1
74042	7	Sololá	704	Santa Lucía Utatlán 	7	Santa Rita 	2	Febrero	2023-01-02T00:00:00	2024-11-08T10:00:00	4	Temperatura máxima	23.1
74043	7	Sololá	704	Santa Lucía Utatlán 	7	Santa Rita 	2	Febrero	2023-01-02T00:00:00	2024-11-08T10:00:00	3	Temperatura mínima	21.8
74044	7	Sololá	704	Santa Lucía Utatlán 	7	Santa Rita 	2	Febrero	2023-01-02T00:00:00	2024-11-08T10:00:00	5	Humedad	44
74045	7	Sololá	704	Santa Lucía Utatlán 	7	Santa Rita 	2	Febrero	2023-01-02T00:00:00	2024-11-08T10:00:00	6	Velocidad del viento	8
74046	7	Sololá	704	Santa Lucía Utatlán 	7	Santa Rita 	2	Febrero	2023-01-02T00:00:00	2024-11-08T10:00:00	7	Dirección del viento	8.05
74047	7	Sololá	704	Santa Lucía Utatlán 	7	Santa Rita 	2	Febrero	2023-01-02T00:00:00	2024-11-08T10:00:00	1	Precipitación	0
74048	7	Sololá	704	Santa Lucía Utatlán 	7	Santa Rita 	2	Febrero	2023-01-02T00:00:00	2024-11-08T10:00:00	8	Radiación solar	586
74049	7	Sololá	704	Santa Lucía Utatlán 	7	Santa Rita 	2	Febrero	2023-01-02T00:00:00	2024-11-08T11:00:00	2	Temperatura media	23.7
74050	7	Sololá	704	Santa Lucía Utatlán 	7	Santa Rita 	2	Febrero	2023-01-02T00:00:00	2024-11-08T11:00:00	4	Temperatura máxima	23.9
74051	7	Sololá	704	Santa Lucía Utatlán 	7	Santa Rita 	2	Febrero	2023-01-02T00:00:00	2024-11-08T11:00:00	3	Temperatura mínima	22.8
74052	7	Sololá	704	Santa Lucía Utatlán 	7	Santa Rita 	2	Febrero	2023-01-02T00:00:00	2024-11-08T11:00:00	5	Humedad	38
74053	7	Sololá	704	Santa Lucía Utatlán 	7	Santa Rita 	2	Febrero	2023-01-02T00:00:00	2024-11-08T11:00:00	6	Velocidad del viento	11.3
74054	7	Sololá	704	Santa Lucía Utatlán 	7	Santa Rita 	2	Febrero	2023-01-02T00:00:00	2024-11-08T11:00:00	7	Dirección del viento	11.27
74055	7	Sololá	704	Santa Lucía Utatlán 	7	Santa Rita 	2	Febrero	2023-01-02T00:00:00	2024-11-08T11:00:00	1	Precipitación	0
74056	7	Sololá	704	Santa Lucía Utatlán 	7	Santa Rita 	2	Febrero	2023-01-02T00:00:00	2024-11-08T11:00:00	8	Radiación solar	743
74057	7	Sololá	704	Santa Lucía Utatlán 	7	Santa Rita 	2	Febrero	2023-01-02T00:00:00	2024-11-08T12:00:00	2	Temperatura media	24.4
74058	7	Sololá	704	Santa Lucía Utatlán 	7	Santa Rita 	2	Febrero	2023-01-02T00:00:00	2024-11-08T12:00:00	4	Temperatura máxima	24.5
74059	7	Sololá	704	Santa Lucía Utatlán 	7	Santa Rita 	2	Febrero	2023-01-02T00:00:00	2024-11-08T12:00:00	3	Temperatura mínima	23.7
74060	7	Sololá	704	Santa Lucía Utatlán 	7	Santa Rita 	2	Febrero	2023-01-02T00:00:00	2024-11-08T12:00:00	5	Humedad	33
74061	7	Sololá	704	Santa Lucía Utatlán 	7	Santa Rita 	2	Febrero	2023-01-02T00:00:00	2024-11-08T12:00:00	6	Velocidad del viento	12.9
74062	7	Sololá	704	Santa Lucía Utatlán 	7	Santa Rita 	2	Febrero	2023-01-02T00:00:00	2024-11-08T12:00:00	7	Dirección del viento	12.87
74063	7	Sololá	704	Santa Lucía Utatlán 	7	Santa Rita 	2	Febrero	2023-01-02T00:00:00	2024-11-08T12:00:00	1	Precipitación	0
74064	7	Sololá	704	Santa Lucía Utatlán 	7	Santa Rita 	2	Febrero	2023-01-02T00:00:00	2024-11-08T12:00:00	8	Radiación solar	839
74065	7	Sololá	704	Santa Lucía Utatlán 	7	Santa Rita 	2	Febrero	2023-01-02T00:00:00	2024-11-08T13:00:00	2	Temperatura media	25.2
74066	7	Sololá	704	Santa Lucía Utatlán 	7	Santa Rita 	2	Febrero	2023-01-02T00:00:00	2024-11-08T13:00:00	4	Temperatura máxima	25.2
74067	7	Sololá	704	Santa Lucía Utatlán 	7	Santa Rita 	2	Febrero	2023-01-02T00:00:00	2024-11-08T13:00:00	3	Temperatura mínima	24.4
74068	7	Sololá	704	Santa Lucía Utatlán 	7	Santa Rita 	2	Febrero	2023-01-02T00:00:00	2024-11-08T13:00:00	5	Humedad	30
74069	7	Sololá	704	Santa Lucía Utatlán 	7	Santa Rita 	2	Febrero	2023-01-02T00:00:00	2024-11-08T13:00:00	6	Velocidad del viento	12.9
74070	7	Sololá	704	Santa Lucía Utatlán 	7	Santa Rita 	2	Febrero	2023-01-02T00:00:00	2024-11-08T13:00:00	7	Dirección del viento	12.87
74071	7	Sololá	704	Santa Lucía Utatlán 	7	Santa Rita 	2	Febrero	2023-01-02T00:00:00	2024-11-08T13:00:00	1	Precipitación	0
74072	7	Sololá	704	Santa Lucía Utatlán 	7	Santa Rita 	2	Febrero	2023-01-02T00:00:00	2024-11-08T13:00:00	8	Radiación solar	865
74073	7	Sololá	704	Santa Lucía Utatlán 	7	Santa Rita 	2	Febrero	2023-01-02T00:00:00	2024-11-08T14:00:00	2	Temperatura media	25.4
74074	7	Sololá	704	Santa Lucía Utatlán 	7	Santa Rita 	2	Febrero	2023-01-02T00:00:00	2024-11-08T14:00:00	4	Temperatura máxima	25.4
74075	7	Sololá	704	Santa Lucía Utatlán 	7	Santa Rita 	2	Febrero	2023-01-02T00:00:00	2024-11-08T14:00:00	3	Temperatura mínima	24.2
74076	7	Sololá	704	Santa Lucía Utatlán 	7	Santa Rita 	2	Febrero	2023-01-02T00:00:00	2024-11-08T14:00:00	5	Humedad	33
74077	7	Sololá	704	Santa Lucía Utatlán 	7	Santa Rita 	2	Febrero	2023-01-02T00:00:00	2024-11-08T14:00:00	6	Velocidad del viento	11.3
74078	7	Sololá	704	Santa Lucía Utatlán 	7	Santa Rita 	2	Febrero	2023-01-02T00:00:00	2024-11-08T14:00:00	7	Dirección del viento	11.27
74079	7	Sololá	704	Santa Lucía Utatlán 	7	Santa Rita 	2	Febrero	2023-01-02T00:00:00	2024-11-08T14:00:00	1	Precipitación	0
74080	7	Sololá	704	Santa Lucía Utatlán 	7	Santa Rita 	2	Febrero	2023-01-02T00:00:00	2024-11-08T14:00:00	8	Radiación solar	811
74081	7	Sololá	704	Santa Lucía Utatlán 	7	Santa Rita 	2	Febrero	2023-01-02T00:00:00	2024-11-08T15:00:00	2	Temperatura media	25.1
74082	7	Sololá	704	Santa Lucía Utatlán 	7	Santa Rita 	2	Febrero	2023-01-02T00:00:00	2024-11-08T15:00:00	4	Temperatura máxima	25.8
74083	7	Sololá	704	Santa Lucía Utatlán 	7	Santa Rita 	2	Febrero	2023-01-02T00:00:00	2024-11-08T15:00:00	3	Temperatura mínima	24.9
74084	7	Sololá	704	Santa Lucía Utatlán 	7	Santa Rita 	2	Febrero	2023-01-02T00:00:00	2024-11-08T15:00:00	5	Humedad	37
74085	7	Sololá	704	Santa Lucía Utatlán 	7	Santa Rita 	2	Febrero	2023-01-02T00:00:00	2024-11-08T15:00:00	6	Velocidad del viento	9.7
74086	7	Sololá	704	Santa Lucía Utatlán 	7	Santa Rita 	2	Febrero	2023-01-02T00:00:00	2024-11-08T15:00:00	7	Dirección del viento	9.66
74087	7	Sololá	704	Santa Lucía Utatlán 	7	Santa Rita 	2	Febrero	2023-01-02T00:00:00	2024-11-08T15:00:00	1	Precipitación	0
74088	7	Sololá	704	Santa Lucía Utatlán 	7	Santa Rita 	2	Febrero	2023-01-02T00:00:00	2024-11-08T15:00:00	8	Radiación solar	688
74089	7	Sololá	704	Santa Lucía Utatlán 	7	Santa Rita 	2	Febrero	2023-01-02T00:00:00	2024-11-08T16:00:00	2	Temperatura media	24.2
74090	7	Sololá	704	Santa Lucía Utatlán 	7	Santa Rita 	2	Febrero	2023-01-02T00:00:00	2024-11-08T16:00:00	4	Temperatura máxima	25.2
74091	7	Sololá	704	Santa Lucía Utatlán 	7	Santa Rita 	2	Febrero	2023-01-02T00:00:00	2024-11-08T16:00:00	3	Temperatura mínima	23.7
74092	7	Sololá	704	Santa Lucía Utatlán 	7	Santa Rita 	2	Febrero	2023-01-02T00:00:00	2024-11-08T16:00:00	5	Humedad	46
74093	7	Sololá	704	Santa Lucía Utatlán 	7	Santa Rita 	2	Febrero	2023-01-02T00:00:00	2024-11-08T16:00:00	6	Velocidad del viento	9.7
74094	7	Sololá	704	Santa Lucía Utatlán 	7	Santa Rita 	2	Febrero	2023-01-02T00:00:00	2024-11-08T16:00:00	7	Dirección del viento	9.66
74095	7	Sololá	704	Santa Lucía Utatlán 	7	Santa Rita 	2	Febrero	2023-01-02T00:00:00	2024-11-08T16:00:00	1	Precipitación	0
74096	7	Sololá	704	Santa Lucía Utatlán 	7	Santa Rita 	2	Febrero	2023-01-02T00:00:00	2024-11-08T16:00:00	8	Radiación solar	322
74097	7	Sololá	704	Santa Lucía Utatlán 	7	Santa Rita 	2	Febrero	2023-01-02T00:00:00	2024-11-08T17:00:00	2	Temperatura media	22.8
74098	7	Sololá	704	Santa Lucía Utatlán 	7	Santa Rita 	2	Febrero	2023-01-02T00:00:00	2024-11-08T17:00:00	4	Temperatura máxima	24.2
74099	7	Sololá	704	Santa Lucía Utatlán 	7	Santa Rita 	2	Febrero	2023-01-02T00:00:00	2024-11-08T17:00:00	3	Temperatura mínima	22.6
74100	7	Sololá	704	Santa Lucía Utatlán 	7	Santa Rita 	2	Febrero	2023-01-02T00:00:00	2024-11-08T17:00:00	5	Humedad	50
74101	7	Sololá	704	Santa Lucía Utatlán 	7	Santa Rita 	2	Febrero	2023-01-02T00:00:00	2024-11-08T17:00:00	6	Velocidad del viento	9.7
74102	7	Sololá	704	Santa Lucía Utatlán 	7	Santa Rita 	2	Febrero	2023-01-02T00:00:00	2024-11-08T17:00:00	7	Dirección del viento	9.66
74103	7	Sololá	704	Santa Lucía Utatlán 	7	Santa Rita 	2	Febrero	2023-01-02T00:00:00	2024-11-08T17:00:00	1	Precipitación	0
74104	7	Sololá	704	Santa Lucía Utatlán 	7	Santa Rita 	2	Febrero	2023-01-02T00:00:00	2024-11-08T17:00:00	8	Radiación solar	177
74105	7	Sololá	704	Santa Lucía Utatlán 	7	Santa Rita 	2	Febrero	2023-01-02T00:00:00	2024-11-08T18:00:00	2	Temperatura media	20.8
74106	7	Sololá	704	Santa Lucía Utatlán 	7	Santa Rita 	2	Febrero	2023-01-02T00:00:00	2024-11-08T18:00:00	4	Temperatura máxima	22.8
74107	7	Sololá	704	Santa Lucía Utatlán 	7	Santa Rita 	2	Febrero	2023-01-02T00:00:00	2024-11-08T18:00:00	3	Temperatura mínima	20.8
74108	7	Sololá	704	Santa Lucía Utatlán 	7	Santa Rita 	2	Febrero	2023-01-02T00:00:00	2024-11-08T18:00:00	5	Humedad	57
74109	7	Sololá	704	Santa Lucía Utatlán 	7	Santa Rita 	2	Febrero	2023-01-02T00:00:00	2024-11-08T18:00:00	6	Velocidad del viento	6.4
74110	7	Sololá	704	Santa Lucía Utatlán 	7	Santa Rita 	2	Febrero	2023-01-02T00:00:00	2024-11-08T18:00:00	7	Dirección del viento	6.44
74111	7	Sololá	704	Santa Lucía Utatlán 	7	Santa Rita 	2	Febrero	2023-01-02T00:00:00	2024-11-08T18:00:00	1	Precipitación	0
74112	7	Sololá	704	Santa Lucía Utatlán 	7	Santa Rita 	2	Febrero	2023-01-02T00:00:00	2024-11-08T18:00:00	8	Radiación solar	39
74113	7	Sololá	704	Santa Lucía Utatlán 	7	Santa Rita 	2	Febrero	2023-01-02T00:00:00	2024-11-08T19:00:00	2	Temperatura media	17.9
74114	7	Sololá	704	Santa Lucía Utatlán 	7	Santa Rita 	2	Febrero	2023-01-02T00:00:00	2024-11-08T19:00:00	4	Temperatura máxima	20.8
74115	7	Sololá	704	Santa Lucía Utatlán 	7	Santa Rita 	2	Febrero	2023-01-02T00:00:00	2024-11-08T19:00:00	3	Temperatura mínima	17.9
74116	7	Sololá	704	Santa Lucía Utatlán 	7	Santa Rita 	2	Febrero	2023-01-02T00:00:00	2024-11-08T19:00:00	5	Humedad	63
74117	7	Sololá	704	Santa Lucía Utatlán 	7	Santa Rita 	2	Febrero	2023-01-02T00:00:00	2024-11-08T19:00:00	6	Velocidad del viento	3.2
74118	7	Sololá	704	Santa Lucía Utatlán 	7	Santa Rita 	2	Febrero	2023-01-02T00:00:00	2024-11-08T19:00:00	7	Dirección del viento	3.22
74119	7	Sololá	704	Santa Lucía Utatlán 	7	Santa Rita 	2	Febrero	2023-01-02T00:00:00	2024-11-08T19:00:00	1	Precipitación	0
74120	7	Sololá	704	Santa Lucía Utatlán 	7	Santa Rita 	2	Febrero	2023-01-02T00:00:00	2024-11-08T19:00:00	8	Radiación solar	0
74121	7	Sololá	704	Santa Lucía Utatlán 	7	Santa Rita 	2	Febrero	2023-01-02T00:00:00	2024-11-08T20:00:00	2	Temperatura media	17.6
74122	7	Sololá	704	Santa Lucía Utatlán 	7	Santa Rita 	2	Febrero	2023-01-02T00:00:00	2024-11-08T20:00:00	4	Temperatura máxima	17.9
74123	7	Sololá	704	Santa Lucía Utatlán 	7	Santa Rita 	2	Febrero	2023-01-02T00:00:00	2024-11-08T20:00:00	3	Temperatura mínima	17.3
74124	7	Sololá	704	Santa Lucía Utatlán 	7	Santa Rita 	2	Febrero	2023-01-02T00:00:00	2024-11-08T20:00:00	5	Humedad	62
74125	7	Sololá	704	Santa Lucía Utatlán 	7	Santa Rita 	2	Febrero	2023-01-02T00:00:00	2024-11-08T20:00:00	6	Velocidad del viento	1.6
74126	7	Sololá	704	Santa Lucía Utatlán 	7	Santa Rita 	2	Febrero	2023-01-02T00:00:00	2024-11-08T20:00:00	7	Dirección del viento	1.61
74127	7	Sololá	704	Santa Lucía Utatlán 	7	Santa Rita 	2	Febrero	2023-01-02T00:00:00	2024-11-08T20:00:00	1	Precipitación	0
74128	7	Sololá	704	Santa Lucía Utatlán 	7	Santa Rita 	2	Febrero	2023-01-02T00:00:00	2024-11-08T20:00:00	8	Radiación solar	0
74129	7	Sololá	704	Santa Lucía Utatlán 	7	Santa Rita 	2	Febrero	2023-01-02T00:00:00	2024-11-08T21:00:00	2	Temperatura media	17.7
74130	7	Sololá	704	Santa Lucía Utatlán 	7	Santa Rita 	2	Febrero	2023-01-02T00:00:00	2024-11-08T21:00:00	4	Temperatura máxima	18.4
74131	7	Sololá	704	Santa Lucía Utatlán 	7	Santa Rita 	2	Febrero	2023-01-02T00:00:00	2024-11-08T21:00:00	3	Temperatura mínima	17.3
74132	7	Sololá	704	Santa Lucía Utatlán 	7	Santa Rita 	2	Febrero	2023-01-02T00:00:00	2024-11-08T21:00:00	5	Humedad	57
74133	7	Sololá	704	Santa Lucía Utatlán 	7	Santa Rita 	2	Febrero	2023-01-02T00:00:00	2024-11-08T21:00:00	6	Velocidad del viento	3.2
74134	7	Sololá	704	Santa Lucía Utatlán 	7	Santa Rita 	2	Febrero	2023-01-02T00:00:00	2024-11-08T21:00:00	7	Dirección del viento	3.22
74135	7	Sololá	704	Santa Lucía Utatlán 	7	Santa Rita 	2	Febrero	2023-01-02T00:00:00	2024-11-08T21:00:00	1	Precipitación	0
74136	7	Sololá	704	Santa Lucía Utatlán 	7	Santa Rita 	2	Febrero	2023-01-02T00:00:00	2024-11-08T21:00:00	8	Radiación solar	0
74137	7	Sololá	704	Santa Lucía Utatlán 	7	Santa Rita 	2	Febrero	2023-01-02T00:00:00	2024-11-08T22:00:00	2	Temperatura media	15.4
74138	7	Sololá	704	Santa Lucía Utatlán 	7	Santa Rita 	2	Febrero	2023-01-02T00:00:00	2024-11-08T22:00:00	4	Temperatura máxima	17.7
74139	7	Sololá	704	Santa Lucía Utatlán 	7	Santa Rita 	2	Febrero	2023-01-02T00:00:00	2024-11-08T22:00:00	3	Temperatura mínima	15.4
74140	7	Sololá	704	Santa Lucía Utatlán 	7	Santa Rita 	2	Febrero	2023-01-02T00:00:00	2024-11-08T22:00:00	5	Humedad	61
74141	7	Sololá	704	Santa Lucía Utatlán 	7	Santa Rita 	2	Febrero	2023-01-02T00:00:00	2024-11-08T22:00:00	6	Velocidad del viento	1.6
74142	7	Sololá	704	Santa Lucía Utatlán 	7	Santa Rita 	2	Febrero	2023-01-02T00:00:00	2024-11-08T22:00:00	7	Dirección del viento	1.61
74143	7	Sololá	704	Santa Lucía Utatlán 	7	Santa Rita 	2	Febrero	2023-01-02T00:00:00	2024-11-08T22:00:00	1	Precipitación	0
74144	7	Sololá	704	Santa Lucía Utatlán 	7	Santa Rita 	2	Febrero	2023-01-02T00:00:00	2024-11-08T22:00:00	8	Radiación solar	0
74145	7	Sololá	704	Santa Lucía Utatlán 	7	Santa Rita 	2	Febrero	2023-01-02T00:00:00	2024-11-08T23:00:00	2	Temperatura media	14.8
74146	7	Sololá	704	Santa Lucía Utatlán 	7	Santa Rita 	2	Febrero	2023-01-02T00:00:00	2024-11-08T23:00:00	4	Temperatura máxima	15.4
74147	7	Sololá	704	Santa Lucía Utatlán 	7	Santa Rita 	2	Febrero	2023-01-02T00:00:00	2024-11-08T23:00:00	3	Temperatura mínima	14.5
74148	7	Sololá	704	Santa Lucía Utatlán 	7	Santa Rita 	2	Febrero	2023-01-02T00:00:00	2024-11-08T23:00:00	5	Humedad	58
74149	7	Sololá	704	Santa Lucía Utatlán 	7	Santa Rita 	2	Febrero	2023-01-02T00:00:00	2024-11-08T23:00:00	6	Velocidad del viento	3.2
74150	7	Sololá	704	Santa Lucía Utatlán 	7	Santa Rita 	2	Febrero	2023-01-02T00:00:00	2024-11-08T23:00:00	7	Dirección del viento	3.22
74151	7	Sololá	704	Santa Lucía Utatlán 	7	Santa Rita 	2	Febrero	2023-01-02T00:00:00	2024-11-08T23:00:00	1	Precipitación	0
74152	7	Sololá	704	Santa Lucía Utatlán 	7	Santa Rita 	2	Febrero	2023-01-02T00:00:00	2024-11-08T23:00:00	8	Radiación solar	0
74153	7	Sololá	704	Santa Lucía Utatlán 	7	Santa Rita 	2	Febrero	2023-02-02T00:00:00	2024-11-08T00:00:00	2	Temperatura media	14.6
74154	7	Sololá	704	Santa Lucía Utatlán 	7	Santa Rita 	2	Febrero	2023-02-02T00:00:00	2024-11-08T00:00:00	4	Temperatura máxima	15.1
74155	7	Sololá	704	Santa Lucía Utatlán 	7	Santa Rita 	2	Febrero	2023-02-02T00:00:00	2024-11-08T00:00:00	3	Temperatura mínima	14.6
74156	7	Sololá	704	Santa Lucía Utatlán 	7	Santa Rita 	2	Febrero	2023-02-02T00:00:00	2024-11-08T00:00:00	5	Humedad	51
74157	7	Sololá	704	Santa Lucía Utatlán 	7	Santa Rita 	2	Febrero	2023-02-02T00:00:00	2024-11-08T00:00:00	6	Velocidad del viento	3.2
74158	7	Sololá	704	Santa Lucía Utatlán 	7	Santa Rita 	2	Febrero	2023-02-02T00:00:00	2024-11-08T00:00:00	7	Dirección del viento	3.22
74159	7	Sololá	704	Santa Lucía Utatlán 	7	Santa Rita 	2	Febrero	2023-02-02T00:00:00	2024-11-08T00:00:00	1	Precipitación	0
74160	7	Sololá	704	Santa Lucía Utatlán 	7	Santa Rita 	2	Febrero	2023-02-02T00:00:00	2024-11-08T00:00:00	8	Radiación solar	0
74161	7	Sololá	704	Santa Lucía Utatlán 	7	Santa Rita 	2	Febrero	2023-02-02T00:00:00	2024-11-08T01:00:00	2	Temperatura media	14
74162	7	Sololá	704	Santa Lucía Utatlán 	7	Santa Rita 	2	Febrero	2023-02-02T00:00:00	2024-11-08T01:00:00	4	Temperatura máxima	14.6
74163	7	Sololá	704	Santa Lucía Utatlán 	7	Santa Rita 	2	Febrero	2023-02-02T00:00:00	2024-11-08T01:00:00	3	Temperatura mínima	13.9
74164	7	Sololá	704	Santa Lucía Utatlán 	7	Santa Rita 	2	Febrero	2023-02-02T00:00:00	2024-11-08T01:00:00	5	Humedad	47
74165	7	Sololá	704	Santa Lucía Utatlán 	7	Santa Rita 	2	Febrero	2023-02-02T00:00:00	2024-11-08T01:00:00	6	Velocidad del viento	4.8
74166	7	Sololá	704	Santa Lucía Utatlán 	7	Santa Rita 	2	Febrero	2023-02-02T00:00:00	2024-11-08T01:00:00	7	Dirección del viento	4.83
74167	7	Sololá	704	Santa Lucía Utatlán 	7	Santa Rita 	2	Febrero	2023-02-02T00:00:00	2024-11-08T01:00:00	1	Precipitación	0
74168	7	Sololá	704	Santa Lucía Utatlán 	7	Santa Rita 	2	Febrero	2023-02-02T00:00:00	2024-11-08T01:00:00	8	Radiación solar	0
74169	7	Sololá	704	Santa Lucía Utatlán 	7	Santa Rita 	2	Febrero	2023-02-02T00:00:00	2024-11-08T02:00:00	2	Temperatura media	13.8
74170	7	Sololá	704	Santa Lucía Utatlán 	7	Santa Rita 	2	Febrero	2023-02-02T00:00:00	2024-11-08T02:00:00	4	Temperatura máxima	14.1
74171	7	Sololá	704	Santa Lucía Utatlán 	7	Santa Rita 	2	Febrero	2023-02-02T00:00:00	2024-11-08T02:00:00	3	Temperatura mínima	13.4
74172	7	Sololá	704	Santa Lucía Utatlán 	7	Santa Rita 	2	Febrero	2023-02-02T00:00:00	2024-11-08T02:00:00	5	Humedad	40
74173	7	Sololá	704	Santa Lucía Utatlán 	7	Santa Rita 	2	Febrero	2023-02-02T00:00:00	2024-11-08T02:00:00	6	Velocidad del viento	3.2
74174	7	Sololá	704	Santa Lucía Utatlán 	7	Santa Rita 	2	Febrero	2023-02-02T00:00:00	2024-11-08T02:00:00	7	Dirección del viento	3.22
74175	7	Sololá	704	Santa Lucía Utatlán 	7	Santa Rita 	2	Febrero	2023-02-02T00:00:00	2024-11-08T02:00:00	1	Precipitación	0
74176	7	Sololá	704	Santa Lucía Utatlán 	7	Santa Rita 	2	Febrero	2023-02-02T00:00:00	2024-11-08T02:00:00	8	Radiación solar	0
74177	7	Sololá	704	Santa Lucía Utatlán 	7	Santa Rita 	2	Febrero	2023-02-02T00:00:00	2024-11-08T03:00:00	2	Temperatura media	14.3
74178	7	Sololá	704	Santa Lucía Utatlán 	7	Santa Rita 	2	Febrero	2023-02-02T00:00:00	2024-11-08T03:00:00	4	Temperatura máxima	14.4
74179	7	Sololá	704	Santa Lucía Utatlán 	7	Santa Rita 	2	Febrero	2023-02-02T00:00:00	2024-11-08T03:00:00	3	Temperatura mínima	13.8
74180	7	Sololá	704	Santa Lucía Utatlán 	7	Santa Rita 	2	Febrero	2023-02-02T00:00:00	2024-11-08T03:00:00	5	Humedad	35
74181	7	Sololá	704	Santa Lucía Utatlán 	7	Santa Rita 	2	Febrero	2023-02-02T00:00:00	2024-11-08T03:00:00	6	Velocidad del viento	4.8
74182	7	Sololá	704	Santa Lucía Utatlán 	7	Santa Rita 	2	Febrero	2023-02-02T00:00:00	2024-11-08T03:00:00	7	Dirección del viento	4.83
74183	7	Sololá	704	Santa Lucía Utatlán 	7	Santa Rita 	2	Febrero	2023-02-02T00:00:00	2024-11-08T03:00:00	1	Precipitación	0
74184	7	Sololá	704	Santa Lucía Utatlán 	7	Santa Rita 	2	Febrero	2023-02-02T00:00:00	2024-11-08T03:00:00	8	Radiación solar	0
74185	7	Sololá	704	Santa Lucía Utatlán 	7	Santa Rita 	2	Febrero	2023-02-02T00:00:00	2024-11-08T04:00:00	2	Temperatura media	14.6
74186	7	Sololá	704	Santa Lucía Utatlán 	7	Santa Rita 	2	Febrero	2023-02-02T00:00:00	2024-11-08T04:00:00	4	Temperatura máxima	14.8
74187	7	Sololá	704	Santa Lucía Utatlán 	7	Santa Rita 	2	Febrero	2023-02-02T00:00:00	2024-11-08T04:00:00	3	Temperatura mínima	14.1
74188	7	Sololá	704	Santa Lucía Utatlán 	7	Santa Rita 	2	Febrero	2023-02-02T00:00:00	2024-11-08T04:00:00	5	Humedad	31
74189	7	Sololá	704	Santa Lucía Utatlán 	7	Santa Rita 	2	Febrero	2023-02-02T00:00:00	2024-11-08T04:00:00	6	Velocidad del viento	6.4
74190	7	Sololá	704	Santa Lucía Utatlán 	7	Santa Rita 	2	Febrero	2023-02-02T00:00:00	2024-11-08T04:00:00	7	Dirección del viento	6.44
74191	7	Sololá	704	Santa Lucía Utatlán 	7	Santa Rita 	2	Febrero	2023-02-02T00:00:00	2024-11-08T04:00:00	1	Precipitación	0
74192	7	Sololá	704	Santa Lucía Utatlán 	7	Santa Rita 	2	Febrero	2023-02-02T00:00:00	2024-11-08T04:00:00	8	Radiación solar	0
74193	7	Sololá	704	Santa Lucía Utatlán 	7	Santa Rita 	2	Febrero	2023-02-02T00:00:00	2024-11-08T05:00:00	2	Temperatura media	14.7
74194	7	Sololá	704	Santa Lucía Utatlán 	7	Santa Rita 	2	Febrero	2023-02-02T00:00:00	2024-11-08T05:00:00	4	Temperatura máxima	15.3
74195	7	Sololá	704	Santa Lucía Utatlán 	7	Santa Rita 	2	Febrero	2023-02-02T00:00:00	2024-11-08T05:00:00	3	Temperatura mínima	14.5
74196	7	Sololá	704	Santa Lucía Utatlán 	7	Santa Rita 	2	Febrero	2023-02-02T00:00:00	2024-11-08T05:00:00	5	Humedad	28
74197	7	Sololá	704	Santa Lucía Utatlán 	7	Santa Rita 	2	Febrero	2023-02-02T00:00:00	2024-11-08T05:00:00	6	Velocidad del viento	6.4
74198	7	Sololá	704	Santa Lucía Utatlán 	7	Santa Rita 	2	Febrero	2023-02-02T00:00:00	2024-11-08T05:00:00	7	Dirección del viento	6.44
74199	7	Sololá	704	Santa Lucía Utatlán 	7	Santa Rita 	2	Febrero	2023-02-02T00:00:00	2024-11-08T05:00:00	1	Precipitación	0
74200	7	Sololá	704	Santa Lucía Utatlán 	7	Santa Rita 	2	Febrero	2023-02-02T00:00:00	2024-11-08T05:00:00	8	Radiación solar	0
74201	7	Sololá	704	Santa Lucía Utatlán 	7	Santa Rita 	2	Febrero	2023-02-02T00:00:00	2024-11-08T06:00:00	2	Temperatura media	14.1
74202	7	Sololá	704	Santa Lucía Utatlán 	7	Santa Rita 	2	Febrero	2023-02-02T00:00:00	2024-11-08T06:00:00	4	Temperatura máxima	14.7
74203	7	Sololá	704	Santa Lucía Utatlán 	7	Santa Rita 	2	Febrero	2023-02-02T00:00:00	2024-11-08T06:00:00	3	Temperatura mínima	13.9
74204	7	Sololá	704	Santa Lucía Utatlán 	7	Santa Rita 	2	Febrero	2023-02-02T00:00:00	2024-11-08T06:00:00	5	Humedad	30
74205	7	Sololá	704	Santa Lucía Utatlán 	7	Santa Rita 	2	Febrero	2023-02-02T00:00:00	2024-11-08T06:00:00	6	Velocidad del viento	4.8
74206	7	Sololá	704	Santa Lucía Utatlán 	7	Santa Rita 	2	Febrero	2023-02-02T00:00:00	2024-11-08T06:00:00	7	Dirección del viento	4.83
74207	7	Sololá	704	Santa Lucía Utatlán 	7	Santa Rita 	2	Febrero	2023-02-02T00:00:00	2024-11-08T06:00:00	1	Precipitación	0
74208	7	Sololá	704	Santa Lucía Utatlán 	7	Santa Rita 	2	Febrero	2023-02-02T00:00:00	2024-11-08T06:00:00	8	Radiación solar	0
74209	7	Sololá	704	Santa Lucía Utatlán 	7	Santa Rita 	2	Febrero	2023-02-02T00:00:00	2024-11-08T07:00:00	2	Temperatura media	15.1
74210	7	Sololá	704	Santa Lucía Utatlán 	7	Santa Rita 	2	Febrero	2023-02-02T00:00:00	2024-11-08T07:00:00	4	Temperatura máxima	15.1
74211	7	Sololá	704	Santa Lucía Utatlán 	7	Santa Rita 	2	Febrero	2023-02-02T00:00:00	2024-11-08T07:00:00	3	Temperatura mínima	14.1
74212	7	Sololá	704	Santa Lucía Utatlán 	7	Santa Rita 	2	Febrero	2023-02-02T00:00:00	2024-11-08T07:00:00	5	Humedad	26
74213	7	Sololá	704	Santa Lucía Utatlán 	7	Santa Rita 	2	Febrero	2023-02-02T00:00:00	2024-11-08T07:00:00	6	Velocidad del viento	6.4
74214	7	Sololá	704	Santa Lucía Utatlán 	7	Santa Rita 	2	Febrero	2023-02-02T00:00:00	2024-11-08T07:00:00	7	Dirección del viento	6.44
74215	7	Sololá	704	Santa Lucía Utatlán 	7	Santa Rita 	2	Febrero	2023-02-02T00:00:00	2024-11-08T07:00:00	1	Precipitación	0
74216	7	Sololá	704	Santa Lucía Utatlán 	7	Santa Rita 	2	Febrero	2023-02-02T00:00:00	2024-11-08T07:00:00	8	Radiación solar	5
74217	7	Sololá	704	Santa Lucía Utatlán 	7	Santa Rita 	2	Febrero	2023-02-02T00:00:00	2024-11-08T08:00:00	2	Temperatura media	18.9
74218	7	Sololá	704	Santa Lucía Utatlán 	7	Santa Rita 	2	Febrero	2023-02-02T00:00:00	2024-11-08T08:00:00	4	Temperatura máxima	18.9
74219	7	Sololá	704	Santa Lucía Utatlán 	7	Santa Rita 	2	Febrero	2023-02-02T00:00:00	2024-11-08T08:00:00	3	Temperatura mínima	15.1
74220	7	Sololá	704	Santa Lucía Utatlán 	7	Santa Rita 	2	Febrero	2023-02-02T00:00:00	2024-11-08T08:00:00	5	Humedad	29
74221	7	Sololá	704	Santa Lucía Utatlán 	7	Santa Rita 	2	Febrero	2023-02-02T00:00:00	2024-11-08T08:00:00	6	Velocidad del viento	1.6
74222	7	Sololá	704	Santa Lucía Utatlán 	7	Santa Rita 	2	Febrero	2023-02-02T00:00:00	2024-11-08T08:00:00	7	Dirección del viento	1.61
74223	7	Sololá	704	Santa Lucía Utatlán 	7	Santa Rita 	2	Febrero	2023-02-02T00:00:00	2024-11-08T08:00:00	1	Precipitación	0
74224	7	Sololá	704	Santa Lucía Utatlán 	7	Santa Rita 	2	Febrero	2023-02-02T00:00:00	2024-11-08T08:00:00	8	Radiación solar	146
74225	7	Sololá	704	Santa Lucía Utatlán 	7	Santa Rita 	2	Febrero	2023-02-02T00:00:00	2024-11-08T09:00:00	2	Temperatura media	21.1
74226	7	Sololá	704	Santa Lucía Utatlán 	7	Santa Rita 	2	Febrero	2023-02-02T00:00:00	2024-11-08T09:00:00	4	Temperatura máxima	21.1
74227	7	Sololá	704	Santa Lucía Utatlán 	7	Santa Rita 	2	Febrero	2023-02-02T00:00:00	2024-11-08T09:00:00	3	Temperatura mínima	18.9
74228	7	Sololá	704	Santa Lucía Utatlán 	7	Santa Rita 	2	Febrero	2023-02-02T00:00:00	2024-11-08T09:00:00	5	Humedad	38
74229	7	Sololá	704	Santa Lucía Utatlán 	7	Santa Rita 	2	Febrero	2023-02-02T00:00:00	2024-11-08T09:00:00	6	Velocidad del viento	3.2
74230	7	Sololá	704	Santa Lucía Utatlán 	7	Santa Rita 	2	Febrero	2023-02-02T00:00:00	2024-11-08T09:00:00	7	Dirección del viento	3.22
74231	7	Sololá	704	Santa Lucía Utatlán 	7	Santa Rita 	2	Febrero	2023-02-02T00:00:00	2024-11-08T09:00:00	1	Precipitación	0
74232	7	Sololá	704	Santa Lucía Utatlán 	7	Santa Rita 	2	Febrero	2023-02-02T00:00:00	2024-11-08T09:00:00	8	Radiación solar	393
74233	7	Sololá	704	Santa Lucía Utatlán 	7	Santa Rita 	2	Febrero	2023-02-02T00:00:00	2024-11-08T10:00:00	2	Temperatura media	22
74234	7	Sololá	704	Santa Lucía Utatlán 	7	Santa Rita 	2	Febrero	2023-02-02T00:00:00	2024-11-08T10:00:00	4	Temperatura máxima	22.3
74235	7	Sololá	704	Santa Lucía Utatlán 	7	Santa Rita 	2	Febrero	2023-02-02T00:00:00	2024-11-08T10:00:00	3	Temperatura mínima	21.2
74236	7	Sololá	704	Santa Lucía Utatlán 	7	Santa Rita 	2	Febrero	2023-02-02T00:00:00	2024-11-08T10:00:00	5	Humedad	31
74237	7	Sololá	704	Santa Lucía Utatlán 	7	Santa Rita 	2	Febrero	2023-02-02T00:00:00	2024-11-08T10:00:00	6	Velocidad del viento	8
74238	7	Sololá	704	Santa Lucía Utatlán 	7	Santa Rita 	2	Febrero	2023-02-02T00:00:00	2024-11-08T10:00:00	7	Dirección del viento	8.05
74239	7	Sololá	704	Santa Lucía Utatlán 	7	Santa Rita 	2	Febrero	2023-02-02T00:00:00	2024-11-08T10:00:00	1	Precipitación	0
74240	7	Sololá	704	Santa Lucía Utatlán 	7	Santa Rita 	2	Febrero	2023-02-02T00:00:00	2024-11-08T10:00:00	8	Radiación solar	600
74241	7	Sololá	704	Santa Lucía Utatlán 	7	Santa Rita 	2	Febrero	2023-02-02T00:00:00	2024-11-08T11:00:00	2	Temperatura media	22.6
74242	7	Sololá	704	Santa Lucía Utatlán 	7	Santa Rita 	2	Febrero	2023-02-02T00:00:00	2024-11-08T11:00:00	4	Temperatura máxima	22.9
74243	7	Sololá	704	Santa Lucía Utatlán 	7	Santa Rita 	2	Febrero	2023-02-02T00:00:00	2024-11-08T11:00:00	3	Temperatura mínima	21.8
74244	7	Sololá	704	Santa Lucía Utatlán 	7	Santa Rita 	2	Febrero	2023-02-02T00:00:00	2024-11-08T11:00:00	5	Humedad	35
74245	7	Sololá	704	Santa Lucía Utatlán 	7	Santa Rita 	2	Febrero	2023-02-02T00:00:00	2024-11-08T11:00:00	6	Velocidad del viento	11.3
74246	7	Sololá	704	Santa Lucía Utatlán 	7	Santa Rita 	2	Febrero	2023-02-02T00:00:00	2024-11-08T11:00:00	7	Dirección del viento	11.27
74247	7	Sololá	704	Santa Lucía Utatlán 	7	Santa Rita 	2	Febrero	2023-02-02T00:00:00	2024-11-08T11:00:00	1	Precipitación	0
74248	7	Sololá	704	Santa Lucía Utatlán 	7	Santa Rita 	2	Febrero	2023-02-02T00:00:00	2024-11-08T11:00:00	8	Radiación solar	754
74249	7	Sololá	704	Santa Lucía Utatlán 	7	Santa Rita 	2	Febrero	2023-02-02T00:00:00	2024-11-08T12:00:00	2	Temperatura media	24.2
74250	7	Sololá	704	Santa Lucía Utatlán 	7	Santa Rita 	2	Febrero	2023-02-02T00:00:00	2024-11-08T12:00:00	4	Temperatura máxima	24.6
74251	7	Sololá	704	Santa Lucía Utatlán 	7	Santa Rita 	2	Febrero	2023-02-02T00:00:00	2024-11-08T12:00:00	3	Temperatura mínima	22.6
74252	7	Sololá	704	Santa Lucía Utatlán 	7	Santa Rita 	2	Febrero	2023-02-02T00:00:00	2024-11-08T12:00:00	5	Humedad	34
74253	7	Sololá	704	Santa Lucía Utatlán 	7	Santa Rita 	2	Febrero	2023-02-02T00:00:00	2024-11-08T12:00:00	6	Velocidad del viento	8
74254	7	Sololá	704	Santa Lucía Utatlán 	7	Santa Rita 	2	Febrero	2023-02-02T00:00:00	2024-11-08T12:00:00	7	Dirección del viento	8.05
74255	7	Sololá	704	Santa Lucía Utatlán 	7	Santa Rita 	2	Febrero	2023-02-02T00:00:00	2024-11-08T12:00:00	1	Precipitación	0
74256	7	Sololá	704	Santa Lucía Utatlán 	7	Santa Rita 	2	Febrero	2023-02-02T00:00:00	2024-11-08T12:00:00	8	Radiación solar	841
74257	7	Sololá	704	Santa Lucía Utatlán 	7	Santa Rita 	2	Febrero	2023-02-02T00:00:00	2024-11-08T13:00:00	2	Temperatura media	25.3
74258	7	Sololá	704	Santa Lucía Utatlán 	7	Santa Rita 	2	Febrero	2023-02-02T00:00:00	2024-11-08T13:00:00	4	Temperatura máxima	25.4
74259	7	Sololá	704	Santa Lucía Utatlán 	7	Santa Rita 	2	Febrero	2023-02-02T00:00:00	2024-11-08T13:00:00	3	Temperatura mínima	24.1
74260	7	Sololá	704	Santa Lucía Utatlán 	7	Santa Rita 	2	Febrero	2023-02-02T00:00:00	2024-11-08T13:00:00	5	Humedad	32
74261	7	Sololá	704	Santa Lucía Utatlán 	7	Santa Rita 	2	Febrero	2023-02-02T00:00:00	2024-11-08T13:00:00	6	Velocidad del viento	8
74262	7	Sololá	704	Santa Lucía Utatlán 	7	Santa Rita 	2	Febrero	2023-02-02T00:00:00	2024-11-08T13:00:00	7	Dirección del viento	8.05
74263	7	Sololá	704	Santa Lucía Utatlán 	7	Santa Rita 	2	Febrero	2023-02-02T00:00:00	2024-11-08T13:00:00	1	Precipitación	0
74264	7	Sololá	704	Santa Lucía Utatlán 	7	Santa Rita 	2	Febrero	2023-02-02T00:00:00	2024-11-08T13:00:00	8	Radiación solar	861
74265	7	Sololá	704	Santa Lucía Utatlán 	7	Santa Rita 	2	Febrero	2023-02-02T00:00:00	2024-11-08T14:00:00	2	Temperatura media	25.2
74266	7	Sololá	704	Santa Lucía Utatlán 	7	Santa Rita 	2	Febrero	2023-02-02T00:00:00	2024-11-08T14:00:00	4	Temperatura máxima	25.5
74267	7	Sololá	704	Santa Lucía Utatlán 	7	Santa Rita 	2	Febrero	2023-02-02T00:00:00	2024-11-08T14:00:00	3	Temperatura mínima	24.8
74268	7	Sololá	704	Santa Lucía Utatlán 	7	Santa Rita 	2	Febrero	2023-02-02T00:00:00	2024-11-08T14:00:00	5	Humedad	33
74269	7	Sololá	704	Santa Lucía Utatlán 	7	Santa Rita 	2	Febrero	2023-02-02T00:00:00	2024-11-08T14:00:00	6	Velocidad del viento	9.7
74270	7	Sololá	704	Santa Lucía Utatlán 	7	Santa Rita 	2	Febrero	2023-02-02T00:00:00	2024-11-08T14:00:00	7	Dirección del viento	9.66
74271	7	Sololá	704	Santa Lucía Utatlán 	7	Santa Rita 	2	Febrero	2023-02-02T00:00:00	2024-11-08T14:00:00	1	Precipitación	0
74272	7	Sololá	704	Santa Lucía Utatlán 	7	Santa Rita 	2	Febrero	2023-02-02T00:00:00	2024-11-08T14:00:00	8	Radiación solar	805
74273	7	Sololá	704	Santa Lucía Utatlán 	7	Santa Rita 	2	Febrero	2023-02-02T00:00:00	2024-11-08T15:00:00	2	Temperatura media	24.6
74274	7	Sololá	704	Santa Lucía Utatlán 	7	Santa Rita 	2	Febrero	2023-02-02T00:00:00	2024-11-08T15:00:00	4	Temperatura máxima	25.2
74275	7	Sololá	704	Santa Lucía Utatlán 	7	Santa Rita 	2	Febrero	2023-02-02T00:00:00	2024-11-08T15:00:00	3	Temperatura mínima	24.4
74276	7	Sololá	704	Santa Lucía Utatlán 	7	Santa Rita 	2	Febrero	2023-02-02T00:00:00	2024-11-08T15:00:00	5	Humedad	40
74277	7	Sololá	704	Santa Lucía Utatlán 	7	Santa Rita 	2	Febrero	2023-02-02T00:00:00	2024-11-08T15:00:00	6	Velocidad del viento	9.7
74278	7	Sololá	704	Santa Lucía Utatlán 	7	Santa Rita 	2	Febrero	2023-02-02T00:00:00	2024-11-08T15:00:00	7	Dirección del viento	9.66
74279	7	Sololá	704	Santa Lucía Utatlán 	7	Santa Rita 	2	Febrero	2023-02-02T00:00:00	2024-11-08T15:00:00	1	Precipitación	0
74280	7	Sololá	704	Santa Lucía Utatlán 	7	Santa Rita 	2	Febrero	2023-02-02T00:00:00	2024-11-08T15:00:00	8	Radiación solar	683
74281	7	Sololá	704	Santa Lucía Utatlán 	7	Santa Rita 	2	Febrero	2023-02-02T00:00:00	2024-11-08T16:00:00	2	Temperatura media	23.7
74282	7	Sololá	704	Santa Lucía Utatlán 	7	Santa Rita 	2	Febrero	2023-02-02T00:00:00	2024-11-08T16:00:00	4	Temperatura máxima	24.7
74283	7	Sololá	704	Santa Lucía Utatlán 	7	Santa Rita 	2	Febrero	2023-02-02T00:00:00	2024-11-08T16:00:00	3	Temperatura mínima	23.6
74284	7	Sololá	704	Santa Lucía Utatlán 	7	Santa Rita 	2	Febrero	2023-02-02T00:00:00	2024-11-08T16:00:00	5	Humedad	46
74285	7	Sololá	704	Santa Lucía Utatlán 	7	Santa Rita 	2	Febrero	2023-02-02T00:00:00	2024-11-08T16:00:00	6	Velocidad del viento	9.7
74286	7	Sololá	704	Santa Lucía Utatlán 	7	Santa Rita 	2	Febrero	2023-02-02T00:00:00	2024-11-08T16:00:00	7	Dirección del viento	9.66
74287	7	Sololá	704	Santa Lucía Utatlán 	7	Santa Rita 	2	Febrero	2023-02-02T00:00:00	2024-11-08T16:00:00	1	Precipitación	0
74288	7	Sololá	704	Santa Lucía Utatlán 	7	Santa Rita 	2	Febrero	2023-02-02T00:00:00	2024-11-08T16:00:00	8	Radiación solar	409
74289	7	Sololá	704	Santa Lucía Utatlán 	7	Santa Rita 	2	Febrero	2023-02-02T00:00:00	2024-11-08T17:00:00	2	Temperatura media	23.6
74290	7	Sololá	704	Santa Lucía Utatlán 	7	Santa Rita 	2	Febrero	2023-02-02T00:00:00	2024-11-08T17:00:00	4	Temperatura máxima	23.7
74291	7	Sololá	704	Santa Lucía Utatlán 	7	Santa Rita 	2	Febrero	2023-02-02T00:00:00	2024-11-08T17:00:00	3	Temperatura mínima	22.9
74292	7	Sololá	704	Santa Lucía Utatlán 	7	Santa Rita 	2	Febrero	2023-02-02T00:00:00	2024-11-08T17:00:00	5	Humedad	23
74293	7	Sololá	704	Santa Lucía Utatlán 	7	Santa Rita 	2	Febrero	2023-02-02T00:00:00	2024-11-08T17:00:00	6	Velocidad del viento	9.7
74294	7	Sololá	704	Santa Lucía Utatlán 	7	Santa Rita 	2	Febrero	2023-02-02T00:00:00	2024-11-08T17:00:00	7	Dirección del viento	9.66
74295	7	Sololá	704	Santa Lucía Utatlán 	7	Santa Rita 	2	Febrero	2023-02-02T00:00:00	2024-11-08T17:00:00	1	Precipitación	0
74296	7	Sololá	704	Santa Lucía Utatlán 	7	Santa Rita 	2	Febrero	2023-02-02T00:00:00	2024-11-08T17:00:00	8	Radiación solar	223
74297	7	Sololá	704	Santa Lucía Utatlán 	7	Santa Rita 	2	Febrero	2023-02-02T00:00:00	2024-11-08T18:00:00	2	Temperatura media	19.3
74298	7	Sololá	704	Santa Lucía Utatlán 	7	Santa Rita 	2	Febrero	2023-02-02T00:00:00	2024-11-08T18:00:00	4	Temperatura máxima	23.7
74299	7	Sololá	704	Santa Lucía Utatlán 	7	Santa Rita 	2	Febrero	2023-02-02T00:00:00	2024-11-08T18:00:00	3	Temperatura mínima	19.3
74300	7	Sololá	704	Santa Lucía Utatlán 	7	Santa Rita 	2	Febrero	2023-02-02T00:00:00	2024-11-08T18:00:00	5	Humedad	31
74301	7	Sololá	704	Santa Lucía Utatlán 	7	Santa Rita 	2	Febrero	2023-02-02T00:00:00	2024-11-08T18:00:00	6	Velocidad del viento	4.8
74302	7	Sololá	704	Santa Lucía Utatlán 	7	Santa Rita 	2	Febrero	2023-02-02T00:00:00	2024-11-08T18:00:00	7	Dirección del viento	4.83
74303	7	Sololá	704	Santa Lucía Utatlán 	7	Santa Rita 	2	Febrero	2023-02-02T00:00:00	2024-11-08T18:00:00	1	Precipitación	0
74304	7	Sololá	704	Santa Lucía Utatlán 	7	Santa Rita 	2	Febrero	2023-02-02T00:00:00	2024-11-08T18:00:00	8	Radiación solar	37
74305	7	Sololá	704	Santa Lucía Utatlán 	7	Santa Rita 	2	Febrero	2023-02-02T00:00:00	2024-11-08T19:00:00	2	Temperatura media	17.2
74306	7	Sololá	704	Santa Lucía Utatlán 	7	Santa Rita 	2	Febrero	2023-02-02T00:00:00	2024-11-08T19:00:00	4	Temperatura máxima	19.3
74307	7	Sololá	704	Santa Lucía Utatlán 	7	Santa Rita 	2	Febrero	2023-02-02T00:00:00	2024-11-08T19:00:00	3	Temperatura mínima	17.2
74308	7	Sololá	704	Santa Lucía Utatlán 	7	Santa Rita 	2	Febrero	2023-02-02T00:00:00	2024-11-08T19:00:00	5	Humedad	53
74309	7	Sololá	704	Santa Lucía Utatlán 	7	Santa Rita 	2	Febrero	2023-02-02T00:00:00	2024-11-08T19:00:00	6	Velocidad del viento	3.2
74310	7	Sololá	704	Santa Lucía Utatlán 	7	Santa Rita 	2	Febrero	2023-02-02T00:00:00	2024-11-08T19:00:00	7	Dirección del viento	3.22
74311	7	Sololá	704	Santa Lucía Utatlán 	7	Santa Rita 	2	Febrero	2023-02-02T00:00:00	2024-11-08T19:00:00	1	Precipitación	0
74312	7	Sololá	704	Santa Lucía Utatlán 	7	Santa Rita 	2	Febrero	2023-02-02T00:00:00	2024-11-08T19:00:00	8	Radiación solar	0
74313	7	Sololá	704	Santa Lucía Utatlán 	7	Santa Rita 	2	Febrero	2023-02-02T00:00:00	2024-11-08T20:00:00	2	Temperatura media	15.8
74314	7	Sololá	704	Santa Lucía Utatlán 	7	Santa Rita 	2	Febrero	2023-02-02T00:00:00	2024-11-08T20:00:00	4	Temperatura máxima	17.2
74315	7	Sololá	704	Santa Lucía Utatlán 	7	Santa Rita 	2	Febrero	2023-02-02T00:00:00	2024-11-08T20:00:00	3	Temperatura mínima	15.8
74316	7	Sololá	704	Santa Lucía Utatlán 	7	Santa Rita 	2	Febrero	2023-02-02T00:00:00	2024-11-08T20:00:00	5	Humedad	62
74317	7	Sololá	704	Santa Lucía Utatlán 	7	Santa Rita 	2	Febrero	2023-02-02T00:00:00	2024-11-08T20:00:00	6	Velocidad del viento	3.2
74318	7	Sololá	704	Santa Lucía Utatlán 	7	Santa Rita 	2	Febrero	2023-02-02T00:00:00	2024-11-08T20:00:00	7	Dirección del viento	3.22
74319	7	Sololá	704	Santa Lucía Utatlán 	7	Santa Rita 	2	Febrero	2023-02-02T00:00:00	2024-11-08T20:00:00	1	Precipitación	0
74320	7	Sololá	704	Santa Lucía Utatlán 	7	Santa Rita 	2	Febrero	2023-02-02T00:00:00	2024-11-08T20:00:00	8	Radiación solar	0
74321	7	Sololá	704	Santa Lucía Utatlán 	7	Santa Rita 	2	Febrero	2023-02-02T00:00:00	2024-11-08T21:00:00	2	Temperatura media	14.8
74322	7	Sololá	704	Santa Lucía Utatlán 	7	Santa Rita 	2	Febrero	2023-02-02T00:00:00	2024-11-08T21:00:00	4	Temperatura máxima	15.9
74323	7	Sololá	704	Santa Lucía Utatlán 	7	Santa Rita 	2	Febrero	2023-02-02T00:00:00	2024-11-08T21:00:00	3	Temperatura mínima	14.8
74324	7	Sololá	704	Santa Lucía Utatlán 	7	Santa Rita 	2	Febrero	2023-02-02T00:00:00	2024-11-08T21:00:00	5	Humedad	69
74325	7	Sololá	704	Santa Lucía Utatlán 	7	Santa Rita 	2	Febrero	2023-02-02T00:00:00	2024-11-08T21:00:00	6	Velocidad del viento	4.8
74326	7	Sololá	704	Santa Lucía Utatlán 	7	Santa Rita 	2	Febrero	2023-02-02T00:00:00	2024-11-08T21:00:00	7	Dirección del viento	4.83
74327	7	Sololá	704	Santa Lucía Utatlán 	7	Santa Rita 	2	Febrero	2023-02-02T00:00:00	2024-11-08T21:00:00	1	Precipitación	0
74328	7	Sololá	704	Santa Lucía Utatlán 	7	Santa Rita 	2	Febrero	2023-02-02T00:00:00	2024-11-08T21:00:00	8	Radiación solar	0
74329	7	Sololá	704	Santa Lucía Utatlán 	7	Santa Rita 	2	Febrero	2023-02-02T00:00:00	2024-11-08T22:00:00	2	Temperatura media	14.7
74330	7	Sololá	704	Santa Lucía Utatlán 	7	Santa Rita 	2	Febrero	2023-02-02T00:00:00	2024-11-08T22:00:00	4	Temperatura máxima	14.8
74331	7	Sololá	704	Santa Lucía Utatlán 	7	Santa Rita 	2	Febrero	2023-02-02T00:00:00	2024-11-08T22:00:00	3	Temperatura mínima	14.3
74332	7	Sololá	704	Santa Lucía Utatlán 	7	Santa Rita 	2	Febrero	2023-02-02T00:00:00	2024-11-08T22:00:00	5	Humedad	66
74333	7	Sololá	704	Santa Lucía Utatlán 	7	Santa Rita 	2	Febrero	2023-02-02T00:00:00	2024-11-08T22:00:00	6	Velocidad del viento	4.8
74334	7	Sololá	704	Santa Lucía Utatlán 	7	Santa Rita 	2	Febrero	2023-02-02T00:00:00	2024-11-08T22:00:00	7	Dirección del viento	4.83
74335	7	Sololá	704	Santa Lucía Utatlán 	7	Santa Rita 	2	Febrero	2023-02-02T00:00:00	2024-11-08T22:00:00	1	Precipitación	0
74336	7	Sololá	704	Santa Lucía Utatlán 	7	Santa Rita 	2	Febrero	2023-02-02T00:00:00	2024-11-08T22:00:00	8	Radiación solar	0
74337	7	Sololá	704	Santa Lucía Utatlán 	7	Santa Rita 	2	Febrero	2023-02-02T00:00:00	2024-11-08T23:00:00	2	Temperatura media	14.6
74338	7	Sololá	704	Santa Lucía Utatlán 	7	Santa Rita 	2	Febrero	2023-02-02T00:00:00	2024-11-08T23:00:00	4	Temperatura máxima	14.7
74339	7	Sololá	704	Santa Lucía Utatlán 	7	Santa Rita 	2	Febrero	2023-02-02T00:00:00	2024-11-08T23:00:00	3	Temperatura mínima	14.4
74340	7	Sololá	704	Santa Lucía Utatlán 	7	Santa Rita 	2	Febrero	2023-02-02T00:00:00	2024-11-08T23:00:00	5	Humedad	68
74341	7	Sololá	704	Santa Lucía Utatlán 	7	Santa Rita 	2	Febrero	2023-02-02T00:00:00	2024-11-08T23:00:00	6	Velocidad del viento	3.2
74342	7	Sololá	704	Santa Lucía Utatlán 	7	Santa Rita 	2	Febrero	2023-02-02T00:00:00	2024-11-08T23:00:00	7	Dirección del viento	3.22
74343	7	Sololá	704	Santa Lucía Utatlán 	7	Santa Rita 	2	Febrero	2023-02-02T00:00:00	2024-11-08T23:00:00	1	Precipitación	0
74344	7	Sololá	704	Santa Lucía Utatlán 	7	Santa Rita 	2	Febrero	2023-02-02T00:00:00	2024-11-08T23:00:00	8	Radiación solar	0
74345	7	Sololá	704	Santa Lucía Utatlán 	7	Santa Rita 	2	Febrero	2023-03-02T00:00:00	2024-11-08T00:00:00	2	Temperatura media	13.4
74346	7	Sololá	704	Santa Lucía Utatlán 	7	Santa Rita 	2	Febrero	2023-03-02T00:00:00	2024-11-08T00:00:00	4	Temperatura máxima	14.6
74347	7	Sololá	704	Santa Lucía Utatlán 	7	Santa Rita 	2	Febrero	2023-03-02T00:00:00	2024-11-08T00:00:00	3	Temperatura mínima	13.4
74348	7	Sololá	704	Santa Lucía Utatlán 	7	Santa Rita 	2	Febrero	2023-03-02T00:00:00	2024-11-08T00:00:00	5	Humedad	68
74349	7	Sololá	704	Santa Lucía Utatlán 	7	Santa Rita 	2	Febrero	2023-03-02T00:00:00	2024-11-08T00:00:00	6	Velocidad del viento	1.6
74350	7	Sololá	704	Santa Lucía Utatlán 	7	Santa Rita 	2	Febrero	2023-03-02T00:00:00	2024-11-08T00:00:00	7	Dirección del viento	1.61
74351	7	Sololá	704	Santa Lucía Utatlán 	7	Santa Rita 	2	Febrero	2023-03-02T00:00:00	2024-11-08T00:00:00	1	Precipitación	0
74352	7	Sololá	704	Santa Lucía Utatlán 	7	Santa Rita 	2	Febrero	2023-03-02T00:00:00	2024-11-08T00:00:00	8	Radiación solar	0
74353	7	Sololá	704	Santa Lucía Utatlán 	7	Santa Rita 	2	Febrero	2023-03-02T00:00:00	2024-11-08T01:00:00	2	Temperatura media	13.5
74354	7	Sololá	704	Santa Lucía Utatlán 	7	Santa Rita 	2	Febrero	2023-03-02T00:00:00	2024-11-08T01:00:00	4	Temperatura máxima	13.8
74355	7	Sololá	704	Santa Lucía Utatlán 	7	Santa Rita 	2	Febrero	2023-03-02T00:00:00	2024-11-08T01:00:00	3	Temperatura mínima	12.9
74356	7	Sololá	704	Santa Lucía Utatlán 	7	Santa Rita 	2	Febrero	2023-03-02T00:00:00	2024-11-08T01:00:00	5	Humedad	66
74357	7	Sololá	704	Santa Lucía Utatlán 	7	Santa Rita 	2	Febrero	2023-03-02T00:00:00	2024-11-08T01:00:00	6	Velocidad del viento	1.6
74358	7	Sololá	704	Santa Lucía Utatlán 	7	Santa Rita 	2	Febrero	2023-03-02T00:00:00	2024-11-08T01:00:00	7	Dirección del viento	1.61
74359	7	Sololá	704	Santa Lucía Utatlán 	7	Santa Rita 	2	Febrero	2023-03-02T00:00:00	2024-11-08T01:00:00	1	Precipitación	0
74360	7	Sololá	704	Santa Lucía Utatlán 	7	Santa Rita 	2	Febrero	2023-03-02T00:00:00	2024-11-08T01:00:00	8	Radiación solar	0
74361	7	Sololá	704	Santa Lucía Utatlán 	7	Santa Rita 	2	Febrero	2023-03-02T00:00:00	2024-11-08T02:00:00	2	Temperatura media	16.8
74362	7	Sololá	704	Santa Lucía Utatlán 	7	Santa Rita 	2	Febrero	2023-03-02T00:00:00	2024-11-08T02:00:00	4	Temperatura máxima	16.8
74363	7	Sololá	704	Santa Lucía Utatlán 	7	Santa Rita 	2	Febrero	2023-03-02T00:00:00	2024-11-08T02:00:00	3	Temperatura mínima	13.4
74364	7	Sololá	704	Santa Lucía Utatlán 	7	Santa Rita 	2	Febrero	2023-03-02T00:00:00	2024-11-08T02:00:00	5	Humedad	52
74365	7	Sololá	704	Santa Lucía Utatlán 	7	Santa Rita 	2	Febrero	2023-03-02T00:00:00	2024-11-08T02:00:00	6	Velocidad del viento	6.4
74366	7	Sololá	704	Santa Lucía Utatlán 	7	Santa Rita 	2	Febrero	2023-03-02T00:00:00	2024-11-08T02:00:00	7	Dirección del viento	6.44
74367	7	Sololá	704	Santa Lucía Utatlán 	7	Santa Rita 	2	Febrero	2023-03-02T00:00:00	2024-11-08T02:00:00	1	Precipitación	0
74368	7	Sololá	704	Santa Lucía Utatlán 	7	Santa Rita 	2	Febrero	2023-03-02T00:00:00	2024-11-08T02:00:00	8	Radiación solar	0
74369	7	Sololá	704	Santa Lucía Utatlán 	7	Santa Rita 	2	Febrero	2023-03-02T00:00:00	2024-11-08T03:00:00	2	Temperatura media	16.2
74370	7	Sololá	704	Santa Lucía Utatlán 	7	Santa Rita 	2	Febrero	2023-03-02T00:00:00	2024-11-08T03:00:00	4	Temperatura máxima	16.9
74371	7	Sololá	704	Santa Lucía Utatlán 	7	Santa Rita 	2	Febrero	2023-03-02T00:00:00	2024-11-08T03:00:00	3	Temperatura mínima	14.8
74372	7	Sololá	704	Santa Lucía Utatlán 	7	Santa Rita 	2	Febrero	2023-03-02T00:00:00	2024-11-08T03:00:00	5	Humedad	51
74373	7	Sololá	704	Santa Lucía Utatlán 	7	Santa Rita 	2	Febrero	2023-03-02T00:00:00	2024-11-08T03:00:00	6	Velocidad del viento	4.8
74374	7	Sololá	704	Santa Lucía Utatlán 	7	Santa Rita 	2	Febrero	2023-03-02T00:00:00	2024-11-08T03:00:00	7	Dirección del viento	4.83
74375	7	Sololá	704	Santa Lucía Utatlán 	7	Santa Rita 	2	Febrero	2023-03-02T00:00:00	2024-11-08T03:00:00	1	Precipitación	0
74376	7	Sololá	704	Santa Lucía Utatlán 	7	Santa Rita 	2	Febrero	2023-03-02T00:00:00	2024-11-08T03:00:00	8	Radiación solar	0
74377	7	Sololá	704	Santa Lucía Utatlán 	7	Santa Rita 	2	Febrero	2023-03-02T00:00:00	2024-11-08T04:00:00	2	Temperatura media	15.9
74378	7	Sololá	704	Santa Lucía Utatlán 	7	Santa Rita 	2	Febrero	2023-03-02T00:00:00	2024-11-08T04:00:00	4	Temperatura máxima	16.3
74379	7	Sololá	704	Santa Lucía Utatlán 	7	Santa Rita 	2	Febrero	2023-03-02T00:00:00	2024-11-08T04:00:00	3	Temperatura mínima	15.9
74380	7	Sololá	704	Santa Lucía Utatlán 	7	Santa Rita 	2	Febrero	2023-03-02T00:00:00	2024-11-08T04:00:00	5	Humedad	58
74381	7	Sololá	704	Santa Lucía Utatlán 	7	Santa Rita 	2	Febrero	2023-03-02T00:00:00	2024-11-08T04:00:00	6	Velocidad del viento	9.7
74382	7	Sololá	704	Santa Lucía Utatlán 	7	Santa Rita 	2	Febrero	2023-03-02T00:00:00	2024-11-08T04:00:00	7	Dirección del viento	9.66
74383	7	Sololá	704	Santa Lucía Utatlán 	7	Santa Rita 	2	Febrero	2023-03-02T00:00:00	2024-11-08T04:00:00	1	Precipitación	0
74384	7	Sololá	704	Santa Lucía Utatlán 	7	Santa Rita 	2	Febrero	2023-03-02T00:00:00	2024-11-08T04:00:00	8	Radiación solar	0
74385	7	Sololá	704	Santa Lucía Utatlán 	7	Santa Rita 	2	Febrero	2023-03-02T00:00:00	2024-11-08T05:00:00	2	Temperatura media	16
74386	7	Sololá	704	Santa Lucía Utatlán 	7	Santa Rita 	2	Febrero	2023-03-02T00:00:00	2024-11-08T05:00:00	4	Temperatura máxima	16
74387	7	Sololá	704	Santa Lucía Utatlán 	7	Santa Rita 	2	Febrero	2023-03-02T00:00:00	2024-11-08T05:00:00	3	Temperatura mínima	15.2
74388	7	Sololá	704	Santa Lucía Utatlán 	7	Santa Rita 	2	Febrero	2023-03-02T00:00:00	2024-11-08T05:00:00	5	Humedad	58
74389	7	Sololá	704	Santa Lucía Utatlán 	7	Santa Rita 	2	Febrero	2023-03-02T00:00:00	2024-11-08T05:00:00	6	Velocidad del viento	9.7
74390	7	Sololá	704	Santa Lucía Utatlán 	7	Santa Rita 	2	Febrero	2023-03-02T00:00:00	2024-11-08T05:00:00	7	Dirección del viento	9.66
74391	7	Sololá	704	Santa Lucía Utatlán 	7	Santa Rita 	2	Febrero	2023-03-02T00:00:00	2024-11-08T05:00:00	1	Precipitación	0
74392	7	Sololá	704	Santa Lucía Utatlán 	7	Santa Rita 	2	Febrero	2023-03-02T00:00:00	2024-11-08T05:00:00	8	Radiación solar	0
74393	7	Sololá	704	Santa Lucía Utatlán 	7	Santa Rita 	2	Febrero	2023-03-02T00:00:00	2024-11-08T06:00:00	2	Temperatura media	16.2
74394	7	Sololá	704	Santa Lucía Utatlán 	7	Santa Rita 	2	Febrero	2023-03-02T00:00:00	2024-11-08T06:00:00	4	Temperatura máxima	16.2
74395	7	Sololá	704	Santa Lucía Utatlán 	7	Santa Rita 	2	Febrero	2023-03-02T00:00:00	2024-11-08T06:00:00	3	Temperatura mínima	15.6
74396	7	Sololá	704	Santa Lucía Utatlán 	7	Santa Rita 	2	Febrero	2023-03-02T00:00:00	2024-11-08T06:00:00	5	Humedad	64
74397	7	Sololá	704	Santa Lucía Utatlán 	7	Santa Rita 	2	Febrero	2023-03-02T00:00:00	2024-11-08T06:00:00	6	Velocidad del viento	11.3
74398	7	Sololá	704	Santa Lucía Utatlán 	7	Santa Rita 	2	Febrero	2023-03-02T00:00:00	2024-11-08T06:00:00	7	Dirección del viento	11.27
74399	7	Sololá	704	Santa Lucía Utatlán 	7	Santa Rita 	2	Febrero	2023-03-02T00:00:00	2024-11-08T06:00:00	1	Precipitación	0
74400	7	Sololá	704	Santa Lucía Utatlán 	7	Santa Rita 	2	Febrero	2023-03-02T00:00:00	2024-11-08T06:00:00	8	Radiación solar	0
74401	7	Sololá	704	Santa Lucía Utatlán 	7	Santa Rita 	2	Febrero	2023-03-02T00:00:00	2024-11-08T07:00:00	2	Temperatura media	16.1
74402	7	Sololá	704	Santa Lucía Utatlán 	7	Santa Rita 	2	Febrero	2023-03-02T00:00:00	2024-11-08T07:00:00	4	Temperatura máxima	16.2
74403	7	Sololá	704	Santa Lucía Utatlán 	7	Santa Rita 	2	Febrero	2023-03-02T00:00:00	2024-11-08T07:00:00	3	Temperatura mínima	15.9
74404	7	Sololá	704	Santa Lucía Utatlán 	7	Santa Rita 	2	Febrero	2023-03-02T00:00:00	2024-11-08T07:00:00	5	Humedad	65
74405	7	Sololá	704	Santa Lucía Utatlán 	7	Santa Rita 	2	Febrero	2023-03-02T00:00:00	2024-11-08T07:00:00	6	Velocidad del viento	11.3
74406	7	Sololá	704	Santa Lucía Utatlán 	7	Santa Rita 	2	Febrero	2023-03-02T00:00:00	2024-11-08T07:00:00	7	Dirección del viento	11.27
74407	7	Sololá	704	Santa Lucía Utatlán 	7	Santa Rita 	2	Febrero	2023-03-02T00:00:00	2024-11-08T07:00:00	1	Precipitación	0
74408	7	Sololá	704	Santa Lucía Utatlán 	7	Santa Rita 	2	Febrero	2023-03-02T00:00:00	2024-11-08T07:00:00	8	Radiación solar	5
74409	7	Sololá	704	Santa Lucía Utatlán 	7	Santa Rita 	2	Febrero	2023-03-02T00:00:00	2024-11-08T08:00:00	2	Temperatura media	18.9
74410	7	Sololá	704	Santa Lucía Utatlán 	7	Santa Rita 	2	Febrero	2023-03-02T00:00:00	2024-11-08T08:00:00	4	Temperatura máxima	18.9
74411	7	Sololá	704	Santa Lucía Utatlán 	7	Santa Rita 	2	Febrero	2023-03-02T00:00:00	2024-11-08T08:00:00	3	Temperatura mínima	16
74412	7	Sololá	704	Santa Lucía Utatlán 	7	Santa Rita 	2	Febrero	2023-03-02T00:00:00	2024-11-08T08:00:00	5	Humedad	58
74413	7	Sololá	704	Santa Lucía Utatlán 	7	Santa Rita 	2	Febrero	2023-03-02T00:00:00	2024-11-08T08:00:00	6	Velocidad del viento	12.9
74414	7	Sololá	704	Santa Lucía Utatlán 	7	Santa Rita 	2	Febrero	2023-03-02T00:00:00	2024-11-08T08:00:00	7	Dirección del viento	12.87
74415	7	Sololá	704	Santa Lucía Utatlán 	7	Santa Rita 	2	Febrero	2023-03-02T00:00:00	2024-11-08T08:00:00	1	Precipitación	0
74416	7	Sololá	704	Santa Lucía Utatlán 	7	Santa Rita 	2	Febrero	2023-03-02T00:00:00	2024-11-08T08:00:00	8	Radiación solar	146
74417	7	Sololá	704	Santa Lucía Utatlán 	7	Santa Rita 	2	Febrero	2023-03-02T00:00:00	2024-11-08T09:00:00	2	Temperatura media	21.3
74418	7	Sololá	704	Santa Lucía Utatlán 	7	Santa Rita 	2	Febrero	2023-03-02T00:00:00	2024-11-08T09:00:00	4	Temperatura máxima	21.4
74419	7	Sololá	704	Santa Lucía Utatlán 	7	Santa Rita 	2	Febrero	2023-03-02T00:00:00	2024-11-08T09:00:00	3	Temperatura mínima	18.9
74420	7	Sololá	704	Santa Lucía Utatlán 	7	Santa Rita 	2	Febrero	2023-03-02T00:00:00	2024-11-08T09:00:00	5	Humedad	53
74421	7	Sololá	704	Santa Lucía Utatlán 	7	Santa Rita 	2	Febrero	2023-03-02T00:00:00	2024-11-08T09:00:00	6	Velocidad del viento	6.4
74422	7	Sololá	704	Santa Lucía Utatlán 	7	Santa Rita 	2	Febrero	2023-03-02T00:00:00	2024-11-08T09:00:00	7	Dirección del viento	6.44
74423	7	Sololá	704	Santa Lucía Utatlán 	7	Santa Rita 	2	Febrero	2023-03-02T00:00:00	2024-11-08T09:00:00	1	Precipitación	0
74424	7	Sololá	704	Santa Lucía Utatlán 	7	Santa Rita 	2	Febrero	2023-03-02T00:00:00	2024-11-08T09:00:00	8	Radiación solar	395
74425	7	Sololá	704	Santa Lucía Utatlán 	7	Santa Rita 	2	Febrero	2023-03-02T00:00:00	2024-11-08T10:00:00	2	Temperatura media	21.2
74426	7	Sololá	704	Santa Lucía Utatlán 	7	Santa Rita 	2	Febrero	2023-03-02T00:00:00	2024-11-08T10:00:00	4	Temperatura máxima	21.3
74427	7	Sololá	704	Santa Lucía Utatlán 	7	Santa Rita 	2	Febrero	2023-03-02T00:00:00	2024-11-08T10:00:00	3	Temperatura mínima	20.6
74428	7	Sololá	704	Santa Lucía Utatlán 	7	Santa Rita 	2	Febrero	2023-03-02T00:00:00	2024-11-08T10:00:00	5	Humedad	57
74429	7	Sololá	704	Santa Lucía Utatlán 	7	Santa Rita 	2	Febrero	2023-03-02T00:00:00	2024-11-08T10:00:00	6	Velocidad del viento	9.7
74430	7	Sololá	704	Santa Lucía Utatlán 	7	Santa Rita 	2	Febrero	2023-03-02T00:00:00	2024-11-08T10:00:00	7	Dirección del viento	9.66
74431	7	Sololá	704	Santa Lucía Utatlán 	7	Santa Rita 	2	Febrero	2023-03-02T00:00:00	2024-11-08T10:00:00	1	Precipitación	0
74432	7	Sololá	704	Santa Lucía Utatlán 	7	Santa Rita 	2	Febrero	2023-03-02T00:00:00	2024-11-08T10:00:00	8	Radiación solar	676
74433	7	Sololá	704	Santa Lucía Utatlán 	7	Santa Rita 	2	Febrero	2023-03-02T00:00:00	2024-11-08T11:00:00	2	Temperatura media	20.1
74434	7	Sololá	704	Santa Lucía Utatlán 	7	Santa Rita 	2	Febrero	2023-03-02T00:00:00	2024-11-08T11:00:00	4	Temperatura máxima	22
74435	7	Sololá	704	Santa Lucía Utatlán 	7	Santa Rita 	2	Febrero	2023-03-02T00:00:00	2024-11-08T11:00:00	3	Temperatura mínima	20.1
74436	7	Sololá	704	Santa Lucía Utatlán 	7	Santa Rita 	2	Febrero	2023-03-02T00:00:00	2024-11-08T11:00:00	5	Humedad	64
74437	7	Sololá	704	Santa Lucía Utatlán 	7	Santa Rita 	2	Febrero	2023-03-02T00:00:00	2024-11-08T11:00:00	6	Velocidad del viento	9.7
74438	7	Sololá	704	Santa Lucía Utatlán 	7	Santa Rita 	2	Febrero	2023-03-02T00:00:00	2024-11-08T11:00:00	7	Dirección del viento	9.66
74439	7	Sololá	704	Santa Lucía Utatlán 	7	Santa Rita 	2	Febrero	2023-03-02T00:00:00	2024-11-08T11:00:00	1	Precipitación	0
74440	7	Sololá	704	Santa Lucía Utatlán 	7	Santa Rita 	2	Febrero	2023-03-02T00:00:00	2024-11-08T11:00:00	8	Radiación solar	795
74441	7	Sololá	704	Santa Lucía Utatlán 	7	Santa Rita 	2	Febrero	2023-03-02T00:00:00	2024-11-08T12:00:00	2	Temperatura media	19.3
74442	7	Sololá	704	Santa Lucía Utatlán 	7	Santa Rita 	2	Febrero	2023-03-02T00:00:00	2024-11-08T12:00:00	4	Temperatura máxima	21
74443	7	Sololá	704	Santa Lucía Utatlán 	7	Santa Rita 	2	Febrero	2023-03-02T00:00:00	2024-11-08T12:00:00	3	Temperatura mínima	19.2
74444	7	Sololá	704	Santa Lucía Utatlán 	7	Santa Rita 	2	Febrero	2023-03-02T00:00:00	2024-11-08T12:00:00	5	Humedad	68
74445	7	Sololá	704	Santa Lucía Utatlán 	7	Santa Rita 	2	Febrero	2023-03-02T00:00:00	2024-11-08T12:00:00	6	Velocidad del viento	11.3
74446	7	Sololá	704	Santa Lucía Utatlán 	7	Santa Rita 	2	Febrero	2023-03-02T00:00:00	2024-11-08T12:00:00	7	Dirección del viento	11.27
74447	7	Sololá	704	Santa Lucía Utatlán 	7	Santa Rita 	2	Febrero	2023-03-02T00:00:00	2024-11-08T12:00:00	1	Precipitación	0
74448	7	Sololá	704	Santa Lucía Utatlán 	7	Santa Rita 	2	Febrero	2023-03-02T00:00:00	2024-11-08T12:00:00	8	Radiación solar	461
74449	7	Sololá	704	Santa Lucía Utatlán 	7	Santa Rita 	2	Febrero	2023-03-02T00:00:00	2024-11-08T13:00:00	2	Temperatura media	18.2
74450	7	Sololá	704	Santa Lucía Utatlán 	7	Santa Rita 	2	Febrero	2023-03-02T00:00:00	2024-11-08T13:00:00	4	Temperatura máxima	19.7
74451	7	Sololá	704	Santa Lucía Utatlán 	7	Santa Rita 	2	Febrero	2023-03-02T00:00:00	2024-11-08T13:00:00	3	Temperatura mínima	18.2
74452	7	Sololá	704	Santa Lucía Utatlán 	7	Santa Rita 	2	Febrero	2023-03-02T00:00:00	2024-11-08T13:00:00	5	Humedad	75
74453	7	Sololá	704	Santa Lucía Utatlán 	7	Santa Rita 	2	Febrero	2023-03-02T00:00:00	2024-11-08T13:00:00	6	Velocidad del viento	9.7
74454	7	Sololá	704	Santa Lucía Utatlán 	7	Santa Rita 	2	Febrero	2023-03-02T00:00:00	2024-11-08T13:00:00	7	Dirección del viento	9.66
74455	7	Sololá	704	Santa Lucía Utatlán 	7	Santa Rita 	2	Febrero	2023-03-02T00:00:00	2024-11-08T13:00:00	1	Precipitación	0
74456	7	Sololá	704	Santa Lucía Utatlán 	7	Santa Rita 	2	Febrero	2023-03-02T00:00:00	2024-11-08T13:00:00	8	Radiación solar	196
74457	7	Sololá	704	Santa Lucía Utatlán 	7	Santa Rita 	2	Febrero	2023-03-02T00:00:00	2024-11-08T14:00:00	2	Temperatura media	16.7
74458	7	Sololá	704	Santa Lucía Utatlán 	7	Santa Rita 	2	Febrero	2023-03-02T00:00:00	2024-11-08T14:00:00	4	Temperatura máxima	18.7
74459	7	Sololá	704	Santa Lucía Utatlán 	7	Santa Rita 	2	Febrero	2023-03-02T00:00:00	2024-11-08T14:00:00	3	Temperatura mínima	16.7
74460	7	Sololá	704	Santa Lucía Utatlán 	7	Santa Rita 	2	Febrero	2023-03-02T00:00:00	2024-11-08T14:00:00	5	Humedad	82
74461	7	Sololá	704	Santa Lucía Utatlán 	7	Santa Rita 	2	Febrero	2023-03-02T00:00:00	2024-11-08T14:00:00	6	Velocidad del viento	8
74462	7	Sololá	704	Santa Lucía Utatlán 	7	Santa Rita 	2	Febrero	2023-03-02T00:00:00	2024-11-08T14:00:00	7	Dirección del viento	8.05
74463	7	Sololá	704	Santa Lucía Utatlán 	7	Santa Rita 	2	Febrero	2023-03-02T00:00:00	2024-11-08T14:00:00	1	Precipitación	0
74464	7	Sololá	704	Santa Lucía Utatlán 	7	Santa Rita 	2	Febrero	2023-03-02T00:00:00	2024-11-08T14:00:00	8	Radiación solar	159
74465	7	Sololá	704	Santa Lucía Utatlán 	7	Santa Rita 	2	Febrero	2023-03-02T00:00:00	2024-11-08T15:00:00	2	Temperatura media	15.8
74466	7	Sololá	704	Santa Lucía Utatlán 	7	Santa Rita 	2	Febrero	2023-03-02T00:00:00	2024-11-08T15:00:00	4	Temperatura máxima	16.7
74467	7	Sololá	704	Santa Lucía Utatlán 	7	Santa Rita 	2	Febrero	2023-03-02T00:00:00	2024-11-08T15:00:00	3	Temperatura mínima	15.8
74468	7	Sololá	704	Santa Lucía Utatlán 	7	Santa Rita 	2	Febrero	2023-03-02T00:00:00	2024-11-08T15:00:00	5	Humedad	87
74469	7	Sololá	704	Santa Lucía Utatlán 	7	Santa Rita 	2	Febrero	2023-03-02T00:00:00	2024-11-08T15:00:00	6	Velocidad del viento	8
74470	7	Sololá	704	Santa Lucía Utatlán 	7	Santa Rita 	2	Febrero	2023-03-02T00:00:00	2024-11-08T15:00:00	7	Dirección del viento	8.05
74471	7	Sololá	704	Santa Lucía Utatlán 	7	Santa Rita 	2	Febrero	2023-03-02T00:00:00	2024-11-08T15:00:00	1	Precipitación	0
74472	7	Sololá	704	Santa Lucía Utatlán 	7	Santa Rita 	2	Febrero	2023-03-02T00:00:00	2024-11-08T15:00:00	8	Radiación solar	67
74473	7	Sololá	704	Santa Lucía Utatlán 	7	Santa Rita 	2	Febrero	2023-03-02T00:00:00	2024-11-08T16:00:00	2	Temperatura media	16.2
74474	7	Sololá	704	Santa Lucía Utatlán 	7	Santa Rita 	2	Febrero	2023-03-02T00:00:00	2024-11-08T16:00:00	4	Temperatura máxima	16.2
74475	7	Sololá	704	Santa Lucía Utatlán 	7	Santa Rita 	2	Febrero	2023-03-02T00:00:00	2024-11-08T16:00:00	3	Temperatura mínima	15.7
74476	7	Sololá	704	Santa Lucía Utatlán 	7	Santa Rita 	2	Febrero	2023-03-02T00:00:00	2024-11-08T16:00:00	5	Humedad	82
74477	7	Sololá	704	Santa Lucía Utatlán 	7	Santa Rita 	2	Febrero	2023-03-02T00:00:00	2024-11-08T16:00:00	6	Velocidad del viento	8
74478	7	Sololá	704	Santa Lucía Utatlán 	7	Santa Rita 	2	Febrero	2023-03-02T00:00:00	2024-11-08T16:00:00	7	Dirección del viento	8.05
74479	7	Sololá	704	Santa Lucía Utatlán 	7	Santa Rita 	2	Febrero	2023-03-02T00:00:00	2024-11-08T16:00:00	1	Precipitación	0
74480	7	Sololá	704	Santa Lucía Utatlán 	7	Santa Rita 	2	Febrero	2023-03-02T00:00:00	2024-11-08T16:00:00	8	Radiación solar	60
74481	7	Sololá	704	Santa Lucía Utatlán 	7	Santa Rita 	2	Febrero	2023-03-02T00:00:00	2024-11-08T17:00:00	2	Temperatura media	17.8
74482	7	Sololá	704	Santa Lucía Utatlán 	7	Santa Rita 	2	Febrero	2023-03-02T00:00:00	2024-11-08T17:00:00	4	Temperatura máxima	17.9
74483	7	Sololá	704	Santa Lucía Utatlán 	7	Santa Rita 	2	Febrero	2023-03-02T00:00:00	2024-11-08T17:00:00	3	Temperatura mínima	16.2
74484	7	Sololá	704	Santa Lucía Utatlán 	7	Santa Rita 	2	Febrero	2023-03-02T00:00:00	2024-11-08T17:00:00	5	Humedad	71
74485	7	Sololá	704	Santa Lucía Utatlán 	7	Santa Rita 	2	Febrero	2023-03-02T00:00:00	2024-11-08T17:00:00	6	Velocidad del viento	4.8
74486	7	Sololá	704	Santa Lucía Utatlán 	7	Santa Rita 	2	Febrero	2023-03-02T00:00:00	2024-11-08T17:00:00	7	Dirección del viento	4.83
74487	7	Sololá	704	Santa Lucía Utatlán 	7	Santa Rita 	2	Febrero	2023-03-02T00:00:00	2024-11-08T17:00:00	1	Precipitación	0
74488	7	Sololá	704	Santa Lucía Utatlán 	7	Santa Rita 	2	Febrero	2023-03-02T00:00:00	2024-11-08T17:00:00	8	Radiación solar	81
74489	7	Sololá	704	Santa Lucía Utatlán 	7	Santa Rita 	2	Febrero	2023-03-02T00:00:00	2024-11-08T18:00:00	2	Temperatura media	16.6
74490	7	Sololá	704	Santa Lucía Utatlán 	7	Santa Rita 	2	Febrero	2023-03-02T00:00:00	2024-11-08T18:00:00	4	Temperatura máxima	17.8
74491	7	Sololá	704	Santa Lucía Utatlán 	7	Santa Rita 	2	Febrero	2023-03-02T00:00:00	2024-11-08T18:00:00	3	Temperatura mínima	16.5
74492	7	Sololá	704	Santa Lucía Utatlán 	7	Santa Rita 	2	Febrero	2023-03-02T00:00:00	2024-11-08T18:00:00	5	Humedad	76
74493	7	Sololá	704	Santa Lucía Utatlán 	7	Santa Rita 	2	Febrero	2023-03-02T00:00:00	2024-11-08T18:00:00	6	Velocidad del viento	9.7
74494	7	Sololá	704	Santa Lucía Utatlán 	7	Santa Rita 	2	Febrero	2023-03-02T00:00:00	2024-11-08T18:00:00	7	Dirección del viento	9.66
74495	7	Sololá	704	Santa Lucía Utatlán 	7	Santa Rita 	2	Febrero	2023-03-02T00:00:00	2024-11-08T18:00:00	1	Precipitación	0
74496	7	Sololá	704	Santa Lucía Utatlán 	7	Santa Rita 	2	Febrero	2023-03-02T00:00:00	2024-11-08T18:00:00	8	Radiación solar	29
74497	7	Sololá	704	Santa Lucía Utatlán 	7	Santa Rita 	2	Febrero	2023-03-02T00:00:00	2024-11-08T19:00:00	2	Temperatura media	16.4
74498	7	Sololá	704	Santa Lucía Utatlán 	7	Santa Rita 	2	Febrero	2023-03-02T00:00:00	2024-11-08T19:00:00	4	Temperatura máxima	16.6
74499	7	Sololá	704	Santa Lucía Utatlán 	7	Santa Rita 	2	Febrero	2023-03-02T00:00:00	2024-11-08T19:00:00	3	Temperatura mínima	16.2
74500	7	Sololá	704	Santa Lucía Utatlán 	7	Santa Rita 	2	Febrero	2023-03-02T00:00:00	2024-11-08T19:00:00	5	Humedad	75
74501	7	Sololá	704	Santa Lucía Utatlán 	7	Santa Rita 	2	Febrero	2023-03-02T00:00:00	2024-11-08T19:00:00	6	Velocidad del viento	9.7
74502	7	Sololá	704	Santa Lucía Utatlán 	7	Santa Rita 	2	Febrero	2023-03-02T00:00:00	2024-11-08T19:00:00	7	Dirección del viento	9.66
74503	7	Sololá	704	Santa Lucía Utatlán 	7	Santa Rita 	2	Febrero	2023-03-02T00:00:00	2024-11-08T19:00:00	1	Precipitación	0
74504	7	Sololá	704	Santa Lucía Utatlán 	7	Santa Rita 	2	Febrero	2023-03-02T00:00:00	2024-11-08T19:00:00	8	Radiación solar	0
74505	7	Sololá	704	Santa Lucía Utatlán 	7	Santa Rita 	2	Febrero	2023-03-02T00:00:00	2024-11-08T20:00:00	2	Temperatura media	15.9
74506	7	Sololá	704	Santa Lucía Utatlán 	7	Santa Rita 	2	Febrero	2023-03-02T00:00:00	2024-11-08T20:00:00	4	Temperatura máxima	16.5
74507	7	Sololá	704	Santa Lucía Utatlán 	7	Santa Rita 	2	Febrero	2023-03-02T00:00:00	2024-11-08T20:00:00	3	Temperatura mínima	15.9
74508	7	Sololá	704	Santa Lucía Utatlán 	7	Santa Rita 	2	Febrero	2023-03-02T00:00:00	2024-11-08T20:00:00	5	Humedad	77
74509	7	Sololá	704	Santa Lucía Utatlán 	7	Santa Rita 	2	Febrero	2023-03-02T00:00:00	2024-11-08T20:00:00	6	Velocidad del viento	14.5
74510	7	Sololá	704	Santa Lucía Utatlán 	7	Santa Rita 	2	Febrero	2023-03-02T00:00:00	2024-11-08T20:00:00	7	Dirección del viento	14.48
74511	7	Sololá	704	Santa Lucía Utatlán 	7	Santa Rita 	2	Febrero	2023-03-02T00:00:00	2024-11-08T20:00:00	1	Precipitación	0
74512	7	Sololá	704	Santa Lucía Utatlán 	7	Santa Rita 	2	Febrero	2023-03-02T00:00:00	2024-11-08T20:00:00	8	Radiación solar	0
74513	7	Sololá	704	Santa Lucía Utatlán 	7	Santa Rita 	2	Febrero	2023-03-02T00:00:00	2024-11-08T21:00:00	2	Temperatura media	16.4
74514	7	Sololá	704	Santa Lucía Utatlán 	7	Santa Rita 	2	Febrero	2023-03-02T00:00:00	2024-11-08T21:00:00	4	Temperatura máxima	16.6
74515	7	Sololá	704	Santa Lucía Utatlán 	7	Santa Rita 	2	Febrero	2023-03-02T00:00:00	2024-11-08T21:00:00	3	Temperatura mínima	15.9
74516	7	Sololá	704	Santa Lucía Utatlán 	7	Santa Rita 	2	Febrero	2023-03-02T00:00:00	2024-11-08T21:00:00	5	Humedad	74
74517	7	Sololá	704	Santa Lucía Utatlán 	7	Santa Rita 	2	Febrero	2023-03-02T00:00:00	2024-11-08T21:00:00	6	Velocidad del viento	11.3
74518	7	Sololá	704	Santa Lucía Utatlán 	7	Santa Rita 	2	Febrero	2023-03-02T00:00:00	2024-11-08T21:00:00	7	Dirección del viento	11.27
74519	7	Sololá	704	Santa Lucía Utatlán 	7	Santa Rita 	2	Febrero	2023-03-02T00:00:00	2024-11-08T21:00:00	1	Precipitación	0
74520	7	Sololá	704	Santa Lucía Utatlán 	7	Santa Rita 	2	Febrero	2023-03-02T00:00:00	2024-11-08T21:00:00	8	Radiación solar	0
74521	7	Sololá	704	Santa Lucía Utatlán 	7	Santa Rita 	2	Febrero	2023-03-02T00:00:00	2024-11-08T22:00:00	2	Temperatura media	16.4
74522	7	Sololá	704	Santa Lucía Utatlán 	7	Santa Rita 	2	Febrero	2023-03-02T00:00:00	2024-11-08T22:00:00	4	Temperatura máxima	16.4
74523	7	Sololá	704	Santa Lucía Utatlán 	7	Santa Rita 	2	Febrero	2023-03-02T00:00:00	2024-11-08T22:00:00	3	Temperatura mínima	16.2
74524	7	Sololá	704	Santa Lucía Utatlán 	7	Santa Rita 	2	Febrero	2023-03-02T00:00:00	2024-11-08T22:00:00	5	Humedad	78
74525	7	Sololá	704	Santa Lucía Utatlán 	7	Santa Rita 	2	Febrero	2023-03-02T00:00:00	2024-11-08T22:00:00	6	Velocidad del viento	12.9
74526	7	Sololá	704	Santa Lucía Utatlán 	7	Santa Rita 	2	Febrero	2023-03-02T00:00:00	2024-11-08T22:00:00	7	Dirección del viento	12.87
74527	7	Sololá	704	Santa Lucía Utatlán 	7	Santa Rita 	2	Febrero	2023-03-02T00:00:00	2024-11-08T22:00:00	1	Precipitación	0
74528	7	Sololá	704	Santa Lucía Utatlán 	7	Santa Rita 	2	Febrero	2023-03-02T00:00:00	2024-11-08T22:00:00	8	Radiación solar	0
74529	7	Sololá	704	Santa Lucía Utatlán 	7	Santa Rita 	2	Febrero	2023-03-02T00:00:00	2024-11-08T23:00:00	2	Temperatura media	16.7
74530	7	Sololá	704	Santa Lucía Utatlán 	7	Santa Rita 	2	Febrero	2023-03-02T00:00:00	2024-11-08T23:00:00	4	Temperatura máxima	16.8
74531	7	Sololá	704	Santa Lucía Utatlán 	7	Santa Rita 	2	Febrero	2023-03-02T00:00:00	2024-11-08T23:00:00	3	Temperatura mínima	16.3
74532	7	Sololá	704	Santa Lucía Utatlán 	7	Santa Rita 	2	Febrero	2023-03-02T00:00:00	2024-11-08T23:00:00	5	Humedad	79
74533	7	Sololá	704	Santa Lucía Utatlán 	7	Santa Rita 	2	Febrero	2023-03-02T00:00:00	2024-11-08T23:00:00	6	Velocidad del viento	11.3
74534	7	Sololá	704	Santa Lucía Utatlán 	7	Santa Rita 	2	Febrero	2023-03-02T00:00:00	2024-11-08T23:00:00	7	Dirección del viento	11.27
74535	7	Sololá	704	Santa Lucía Utatlán 	7	Santa Rita 	2	Febrero	2023-03-02T00:00:00	2024-11-08T23:00:00	1	Precipitación	0
74536	7	Sololá	704	Santa Lucía Utatlán 	7	Santa Rita 	2	Febrero	2023-03-02T00:00:00	2024-11-08T23:00:00	8	Radiación solar	0
74537	7	Sololá	704	Santa Lucía Utatlán 	7	Santa Rita 	2	Febrero	2023-04-02T00:00:00	2024-11-08T00:00:00	2	Temperatura media	15.9
74538	7	Sololá	704	Santa Lucía Utatlán 	7	Santa Rita 	2	Febrero	2023-04-02T00:00:00	2024-11-08T00:00:00	4	Temperatura máxima	16.7
74539	7	Sololá	704	Santa Lucía Utatlán 	7	Santa Rita 	2	Febrero	2023-04-02T00:00:00	2024-11-08T00:00:00	3	Temperatura mínima	15.8
74540	7	Sololá	704	Santa Lucía Utatlán 	7	Santa Rita 	2	Febrero	2023-04-02T00:00:00	2024-11-08T00:00:00	5	Humedad	84
74541	7	Sololá	704	Santa Lucía Utatlán 	7	Santa Rita 	2	Febrero	2023-04-02T00:00:00	2024-11-08T00:00:00	6	Velocidad del viento	9.7
74542	7	Sololá	704	Santa Lucía Utatlán 	7	Santa Rita 	2	Febrero	2023-04-02T00:00:00	2024-11-08T00:00:00	7	Dirección del viento	9.66
74543	7	Sololá	704	Santa Lucía Utatlán 	7	Santa Rita 	2	Febrero	2023-04-02T00:00:00	2024-11-08T00:00:00	1	Precipitación	0
74544	7	Sololá	704	Santa Lucía Utatlán 	7	Santa Rita 	2	Febrero	2023-04-02T00:00:00	2024-11-08T00:00:00	8	Radiación solar	0
74545	7	Sololá	704	Santa Lucía Utatlán 	7	Santa Rita 	2	Febrero	2023-04-02T00:00:00	2024-11-08T01:00:00	2	Temperatura media	16.7
74546	7	Sololá	704	Santa Lucía Utatlán 	7	Santa Rita 	2	Febrero	2023-04-02T00:00:00	2024-11-08T01:00:00	4	Temperatura máxima	16.7
74547	7	Sololá	704	Santa Lucía Utatlán 	7	Santa Rita 	2	Febrero	2023-04-02T00:00:00	2024-11-08T01:00:00	3	Temperatura mínima	15.9
74548	7	Sololá	704	Santa Lucía Utatlán 	7	Santa Rita 	2	Febrero	2023-04-02T00:00:00	2024-11-08T01:00:00	5	Humedad	82
74549	7	Sololá	704	Santa Lucía Utatlán 	7	Santa Rita 	2	Febrero	2023-04-02T00:00:00	2024-11-08T01:00:00	6	Velocidad del viento	6.4
74550	7	Sololá	704	Santa Lucía Utatlán 	7	Santa Rita 	2	Febrero	2023-04-02T00:00:00	2024-11-08T01:00:00	7	Dirección del viento	6.44
74551	7	Sololá	704	Santa Lucía Utatlán 	7	Santa Rita 	2	Febrero	2023-04-02T00:00:00	2024-11-08T01:00:00	1	Precipitación	0
74552	7	Sololá	704	Santa Lucía Utatlán 	7	Santa Rita 	2	Febrero	2023-04-02T00:00:00	2024-11-08T01:00:00	8	Radiación solar	0
74553	7	Sololá	704	Santa Lucía Utatlán 	7	Santa Rita 	2	Febrero	2023-04-02T00:00:00	2024-11-08T02:00:00	2	Temperatura media	16.6
74554	7	Sololá	704	Santa Lucía Utatlán 	7	Santa Rita 	2	Febrero	2023-04-02T00:00:00	2024-11-08T02:00:00	4	Temperatura máxima	17.2
74555	7	Sololá	704	Santa Lucía Utatlán 	7	Santa Rita 	2	Febrero	2023-04-02T00:00:00	2024-11-08T02:00:00	3	Temperatura mínima	16.6
74556	7	Sololá	704	Santa Lucía Utatlán 	7	Santa Rita 	2	Febrero	2023-04-02T00:00:00	2024-11-08T02:00:00	5	Humedad	82
74557	7	Sololá	704	Santa Lucía Utatlán 	7	Santa Rita 	2	Febrero	2023-04-02T00:00:00	2024-11-08T02:00:00	6	Velocidad del viento	9.7
74558	7	Sololá	704	Santa Lucía Utatlán 	7	Santa Rita 	2	Febrero	2023-04-02T00:00:00	2024-11-08T02:00:00	7	Dirección del viento	9.66
74559	7	Sololá	704	Santa Lucía Utatlán 	7	Santa Rita 	2	Febrero	2023-04-02T00:00:00	2024-11-08T02:00:00	1	Precipitación	0
74560	7	Sololá	704	Santa Lucía Utatlán 	7	Santa Rita 	2	Febrero	2023-04-02T00:00:00	2024-11-08T02:00:00	8	Radiación solar	0
74561	7	Sololá	704	Santa Lucía Utatlán 	7	Santa Rita 	2	Febrero	2023-04-02T00:00:00	2024-11-08T03:00:00	2	Temperatura media	16.6
74562	7	Sololá	704	Santa Lucía Utatlán 	7	Santa Rita 	2	Febrero	2023-04-02T00:00:00	2024-11-08T03:00:00	4	Temperatura máxima	16.7
74563	7	Sololá	704	Santa Lucía Utatlán 	7	Santa Rita 	2	Febrero	2023-04-02T00:00:00	2024-11-08T03:00:00	3	Temperatura mínima	16.3
74564	7	Sololá	704	Santa Lucía Utatlán 	7	Santa Rita 	2	Febrero	2023-04-02T00:00:00	2024-11-08T03:00:00	5	Humedad	80
74565	7	Sololá	704	Santa Lucía Utatlán 	7	Santa Rita 	2	Febrero	2023-04-02T00:00:00	2024-11-08T03:00:00	6	Velocidad del viento	12.9
74566	7	Sololá	704	Santa Lucía Utatlán 	7	Santa Rita 	2	Febrero	2023-04-02T00:00:00	2024-11-08T03:00:00	7	Dirección del viento	12.87
74567	7	Sololá	704	Santa Lucía Utatlán 	7	Santa Rita 	2	Febrero	2023-04-02T00:00:00	2024-11-08T03:00:00	1	Precipitación	0
74568	7	Sololá	704	Santa Lucía Utatlán 	7	Santa Rita 	2	Febrero	2023-04-02T00:00:00	2024-11-08T03:00:00	8	Radiación solar	0
74569	7	Sololá	704	Santa Lucía Utatlán 	7	Santa Rita 	2	Febrero	2023-04-02T00:00:00	2024-11-08T04:00:00	2	Temperatura media	16.3
74570	7	Sololá	704	Santa Lucía Utatlán 	7	Santa Rita 	2	Febrero	2023-04-02T00:00:00	2024-11-08T04:00:00	4	Temperatura máxima	16.8
74571	7	Sololá	704	Santa Lucía Utatlán 	7	Santa Rita 	2	Febrero	2023-04-02T00:00:00	2024-11-08T04:00:00	3	Temperatura mínima	16.2
74572	7	Sololá	704	Santa Lucía Utatlán 	7	Santa Rita 	2	Febrero	2023-04-02T00:00:00	2024-11-08T04:00:00	5	Humedad	82
74573	7	Sololá	704	Santa Lucía Utatlán 	7	Santa Rita 	2	Febrero	2023-04-02T00:00:00	2024-11-08T04:00:00	6	Velocidad del viento	14.5
74574	7	Sololá	704	Santa Lucía Utatlán 	7	Santa Rita 	2	Febrero	2023-04-02T00:00:00	2024-11-08T04:00:00	7	Dirección del viento	14.48
74575	7	Sololá	704	Santa Lucía Utatlán 	7	Santa Rita 	2	Febrero	2023-04-02T00:00:00	2024-11-08T04:00:00	1	Precipitación	0
74576	7	Sololá	704	Santa Lucía Utatlán 	7	Santa Rita 	2	Febrero	2023-04-02T00:00:00	2024-11-08T04:00:00	8	Radiación solar	0
74577	7	Sololá	704	Santa Lucía Utatlán 	7	Santa Rita 	2	Febrero	2023-04-02T00:00:00	2024-11-08T05:00:00	2	Temperatura media	16.4
74578	7	Sololá	704	Santa Lucía Utatlán 	7	Santa Rita 	2	Febrero	2023-04-02T00:00:00	2024-11-08T05:00:00	4	Temperatura máxima	16.4
74579	7	Sololá	704	Santa Lucía Utatlán 	7	Santa Rita 	2	Febrero	2023-04-02T00:00:00	2024-11-08T05:00:00	3	Temperatura mínima	16.2
74580	7	Sololá	704	Santa Lucía Utatlán 	7	Santa Rita 	2	Febrero	2023-04-02T00:00:00	2024-11-08T05:00:00	5	Humedad	80
74581	7	Sololá	704	Santa Lucía Utatlán 	7	Santa Rita 	2	Febrero	2023-04-02T00:00:00	2024-11-08T05:00:00	6	Velocidad del viento	14.5
74582	7	Sololá	704	Santa Lucía Utatlán 	7	Santa Rita 	2	Febrero	2023-04-02T00:00:00	2024-11-08T05:00:00	7	Dirección del viento	14.48
74583	7	Sololá	704	Santa Lucía Utatlán 	7	Santa Rita 	2	Febrero	2023-04-02T00:00:00	2024-11-08T05:00:00	1	Precipitación	0
74584	7	Sololá	704	Santa Lucía Utatlán 	7	Santa Rita 	2	Febrero	2023-04-02T00:00:00	2024-11-08T05:00:00	8	Radiación solar	0
74585	7	Sololá	704	Santa Lucía Utatlán 	7	Santa Rita 	2	Febrero	2023-04-02T00:00:00	2024-11-08T06:00:00	2	Temperatura media	15.8
74586	7	Sololá	704	Santa Lucía Utatlán 	7	Santa Rita 	2	Febrero	2023-04-02T00:00:00	2024-11-08T06:00:00	4	Temperatura máxima	16.4
74587	7	Sololá	704	Santa Lucía Utatlán 	7	Santa Rita 	2	Febrero	2023-04-02T00:00:00	2024-11-08T06:00:00	3	Temperatura mínima	15.8
74588	7	Sololá	704	Santa Lucía Utatlán 	7	Santa Rita 	2	Febrero	2023-04-02T00:00:00	2024-11-08T06:00:00	5	Humedad	84
74589	7	Sololá	704	Santa Lucía Utatlán 	7	Santa Rita 	2	Febrero	2023-04-02T00:00:00	2024-11-08T06:00:00	6	Velocidad del viento	12.9
74590	7	Sololá	704	Santa Lucía Utatlán 	7	Santa Rita 	2	Febrero	2023-04-02T00:00:00	2024-11-08T06:00:00	7	Dirección del viento	12.87
74591	7	Sololá	704	Santa Lucía Utatlán 	7	Santa Rita 	2	Febrero	2023-04-02T00:00:00	2024-11-08T06:00:00	1	Precipitación	0
74592	7	Sololá	704	Santa Lucía Utatlán 	7	Santa Rita 	2	Febrero	2023-04-02T00:00:00	2024-11-08T06:00:00	8	Radiación solar	0
74593	7	Sololá	704	Santa Lucía Utatlán 	7	Santa Rita 	2	Febrero	2023-04-02T00:00:00	2024-11-08T07:00:00	2	Temperatura media	16.4
74594	7	Sololá	704	Santa Lucía Utatlán 	7	Santa Rita 	2	Febrero	2023-04-02T00:00:00	2024-11-08T07:00:00	4	Temperatura máxima	16.4
74595	7	Sololá	704	Santa Lucía Utatlán 	7	Santa Rita 	2	Febrero	2023-04-02T00:00:00	2024-11-08T07:00:00	3	Temperatura mínima	15.8
74596	7	Sololá	704	Santa Lucía Utatlán 	7	Santa Rita 	2	Febrero	2023-04-02T00:00:00	2024-11-08T07:00:00	5	Humedad	81
74597	7	Sololá	704	Santa Lucía Utatlán 	7	Santa Rita 	2	Febrero	2023-04-02T00:00:00	2024-11-08T07:00:00	6	Velocidad del viento	11.3
74598	7	Sololá	704	Santa Lucía Utatlán 	7	Santa Rita 	2	Febrero	2023-04-02T00:00:00	2024-11-08T07:00:00	7	Dirección del viento	11.27
74599	7	Sololá	704	Santa Lucía Utatlán 	7	Santa Rita 	2	Febrero	2023-04-02T00:00:00	2024-11-08T07:00:00	1	Precipitación	0
74600	7	Sololá	704	Santa Lucía Utatlán 	7	Santa Rita 	2	Febrero	2023-04-02T00:00:00	2024-11-08T07:00:00	8	Radiación solar	19
74601	7	Sololá	704	Santa Lucía Utatlán 	7	Santa Rita 	2	Febrero	2023-04-02T00:00:00	2024-11-08T08:00:00	2	Temperatura media	17.2
74602	7	Sololá	704	Santa Lucía Utatlán 	7	Santa Rita 	2	Febrero	2023-04-02T00:00:00	2024-11-08T08:00:00	4	Temperatura máxima	17.3
74603	7	Sololá	704	Santa Lucía Utatlán 	7	Santa Rita 	2	Febrero	2023-04-02T00:00:00	2024-11-08T08:00:00	3	Temperatura mínima	16.4
74604	7	Sololá	704	Santa Lucía Utatlán 	7	Santa Rita 	2	Febrero	2023-04-02T00:00:00	2024-11-08T08:00:00	5	Humedad	70
74605	7	Sololá	704	Santa Lucía Utatlán 	7	Santa Rita 	2	Febrero	2023-04-02T00:00:00	2024-11-08T08:00:00	6	Velocidad del viento	16.1
74606	7	Sololá	704	Santa Lucía Utatlán 	7	Santa Rita 	2	Febrero	2023-04-02T00:00:00	2024-11-08T08:00:00	7	Dirección del viento	16.09
74607	7	Sololá	704	Santa Lucía Utatlán 	7	Santa Rita 	2	Febrero	2023-04-02T00:00:00	2024-11-08T08:00:00	1	Precipitación	0
74608	7	Sololá	704	Santa Lucía Utatlán 	7	Santa Rita 	2	Febrero	2023-04-02T00:00:00	2024-11-08T08:00:00	8	Radiación solar	161
74609	7	Sololá	704	Santa Lucía Utatlán 	7	Santa Rita 	2	Febrero	2023-04-02T00:00:00	2024-11-08T09:00:00	2	Temperatura media	18.2
74610	7	Sololá	704	Santa Lucía Utatlán 	7	Santa Rita 	2	Febrero	2023-04-02T00:00:00	2024-11-08T09:00:00	4	Temperatura máxima	18.2
74611	7	Sololá	704	Santa Lucía Utatlán 	7	Santa Rita 	2	Febrero	2023-04-02T00:00:00	2024-11-08T09:00:00	3	Temperatura mínima	17
74612	7	Sololá	704	Santa Lucía Utatlán 	7	Santa Rita 	2	Febrero	2023-04-02T00:00:00	2024-11-08T09:00:00	5	Humedad	66
74613	7	Sololá	704	Santa Lucía Utatlán 	7	Santa Rita 	2	Febrero	2023-04-02T00:00:00	2024-11-08T09:00:00	6	Velocidad del viento	16.1
74614	7	Sololá	704	Santa Lucía Utatlán 	7	Santa Rita 	2	Febrero	2023-04-02T00:00:00	2024-11-08T09:00:00	7	Dirección del viento	16.09
74615	7	Sololá	704	Santa Lucía Utatlán 	7	Santa Rita 	2	Febrero	2023-04-02T00:00:00	2024-11-08T09:00:00	1	Precipitación	0
74616	7	Sololá	704	Santa Lucía Utatlán 	7	Santa Rita 	2	Febrero	2023-04-02T00:00:00	2024-11-08T09:00:00	8	Radiación solar	391
74617	7	Sololá	704	Santa Lucía Utatlán 	7	Santa Rita 	2	Febrero	2023-04-02T00:00:00	2024-11-08T10:00:00	2	Temperatura media	19.3
74618	7	Sololá	704	Santa Lucía Utatlán 	7	Santa Rita 	2	Febrero	2023-04-02T00:00:00	2024-11-08T10:00:00	4	Temperatura máxima	19.5
74619	7	Sololá	704	Santa Lucía Utatlán 	7	Santa Rita 	2	Febrero	2023-04-02T00:00:00	2024-11-08T10:00:00	3	Temperatura mínima	18.2
74620	7	Sololá	704	Santa Lucía Utatlán 	7	Santa Rita 	2	Febrero	2023-04-02T00:00:00	2024-11-08T10:00:00	5	Humedad	62
74621	7	Sololá	704	Santa Lucía Utatlán 	7	Santa Rita 	2	Febrero	2023-04-02T00:00:00	2024-11-08T10:00:00	6	Velocidad del viento	11.3
74622	7	Sololá	704	Santa Lucía Utatlán 	7	Santa Rita 	2	Febrero	2023-04-02T00:00:00	2024-11-08T10:00:00	7	Dirección del viento	11.27
74623	7	Sololá	704	Santa Lucía Utatlán 	7	Santa Rita 	2	Febrero	2023-04-02T00:00:00	2024-11-08T10:00:00	1	Precipitación	0
74624	7	Sololá	704	Santa Lucía Utatlán 	7	Santa Rita 	2	Febrero	2023-04-02T00:00:00	2024-11-08T10:00:00	8	Radiación solar	593
74625	7	Sololá	704	Santa Lucía Utatlán 	7	Santa Rita 	2	Febrero	2023-04-02T00:00:00	2024-11-08T11:00:00	2	Temperatura media	20
74626	7	Sololá	704	Santa Lucía Utatlán 	7	Santa Rita 	2	Febrero	2023-04-02T00:00:00	2024-11-08T11:00:00	4	Temperatura máxima	20
74627	7	Sololá	704	Santa Lucía Utatlán 	7	Santa Rita 	2	Febrero	2023-04-02T00:00:00	2024-11-08T11:00:00	3	Temperatura mínima	18.9
74628	7	Sololá	704	Santa Lucía Utatlán 	7	Santa Rita 	2	Febrero	2023-04-02T00:00:00	2024-11-08T11:00:00	5	Humedad	63
74629	7	Sololá	704	Santa Lucía Utatlán 	7	Santa Rita 	2	Febrero	2023-04-02T00:00:00	2024-11-08T11:00:00	6	Velocidad del viento	17.7
74630	7	Sololá	704	Santa Lucía Utatlán 	7	Santa Rita 	2	Febrero	2023-04-02T00:00:00	2024-11-08T11:00:00	7	Dirección del viento	17.7
74631	7	Sololá	704	Santa Lucía Utatlán 	7	Santa Rita 	2	Febrero	2023-04-02T00:00:00	2024-11-08T11:00:00	1	Precipitación	0
74632	7	Sololá	704	Santa Lucía Utatlán 	7	Santa Rita 	2	Febrero	2023-04-02T00:00:00	2024-11-08T11:00:00	8	Radiación solar	754
74633	7	Sololá	704	Santa Lucía Utatlán 	7	Santa Rita 	2	Febrero	2023-04-02T00:00:00	2024-11-08T12:00:00	2	Temperatura media	21.3
74634	7	Sololá	704	Santa Lucía Utatlán 	7	Santa Rita 	2	Febrero	2023-04-02T00:00:00	2024-11-08T12:00:00	4	Temperatura máxima	21.6
74635	7	Sololá	704	Santa Lucía Utatlán 	7	Santa Rita 	2	Febrero	2023-04-02T00:00:00	2024-11-08T12:00:00	3	Temperatura mínima	19.9
74636	7	Sololá	704	Santa Lucía Utatlán 	7	Santa Rita 	2	Febrero	2023-04-02T00:00:00	2024-11-08T12:00:00	5	Humedad	57
74637	7	Sololá	704	Santa Lucía Utatlán 	7	Santa Rita 	2	Febrero	2023-04-02T00:00:00	2024-11-08T12:00:00	6	Velocidad del viento	12.9
74638	7	Sololá	704	Santa Lucía Utatlán 	7	Santa Rita 	2	Febrero	2023-04-02T00:00:00	2024-11-08T12:00:00	7	Dirección del viento	12.87
74639	7	Sololá	704	Santa Lucía Utatlán 	7	Santa Rita 	2	Febrero	2023-04-02T00:00:00	2024-11-08T12:00:00	1	Precipitación	0
74640	7	Sololá	704	Santa Lucía Utatlán 	7	Santa Rita 	2	Febrero	2023-04-02T00:00:00	2024-11-08T12:00:00	8	Radiación solar	839
74641	7	Sololá	704	Santa Lucía Utatlán 	7	Santa Rita 	2	Febrero	2023-04-02T00:00:00	2024-11-08T13:00:00	2	Temperatura media	22.1
74642	7	Sololá	704	Santa Lucía Utatlán 	7	Santa Rita 	2	Febrero	2023-04-02T00:00:00	2024-11-08T13:00:00	4	Temperatura máxima	22.1
74643	7	Sololá	704	Santa Lucía Utatlán 	7	Santa Rita 	2	Febrero	2023-04-02T00:00:00	2024-11-08T13:00:00	3	Temperatura mínima	20.4
74644	7	Sololá	704	Santa Lucía Utatlán 	7	Santa Rita 	2	Febrero	2023-04-02T00:00:00	2024-11-08T13:00:00	5	Humedad	58
74645	7	Sololá	704	Santa Lucía Utatlán 	7	Santa Rita 	2	Febrero	2023-04-02T00:00:00	2024-11-08T13:00:00	6	Velocidad del viento	12.9
74646	7	Sololá	704	Santa Lucía Utatlán 	7	Santa Rita 	2	Febrero	2023-04-02T00:00:00	2024-11-08T13:00:00	7	Dirección del viento	12.87
74647	7	Sololá	704	Santa Lucía Utatlán 	7	Santa Rita 	2	Febrero	2023-04-02T00:00:00	2024-11-08T13:00:00	1	Precipitación	0
74648	7	Sololá	704	Santa Lucía Utatlán 	7	Santa Rita 	2	Febrero	2023-04-02T00:00:00	2024-11-08T13:00:00	8	Radiación solar	821
74649	7	Sololá	704	Santa Lucía Utatlán 	7	Santa Rita 	2	Febrero	2023-04-02T00:00:00	2024-11-08T14:00:00	2	Temperatura media	21.8
74650	7	Sololá	704	Santa Lucía Utatlán 	7	Santa Rita 	2	Febrero	2023-04-02T00:00:00	2024-11-08T14:00:00	4	Temperatura máxima	22.9
74651	7	Sololá	704	Santa Lucía Utatlán 	7	Santa Rita 	2	Febrero	2023-04-02T00:00:00	2024-11-08T14:00:00	3	Temperatura mínima	21.8
74652	7	Sololá	704	Santa Lucía Utatlán 	7	Santa Rita 	2	Febrero	2023-04-02T00:00:00	2024-11-08T14:00:00	5	Humedad	57
74653	7	Sololá	704	Santa Lucía Utatlán 	7	Santa Rita 	2	Febrero	2023-04-02T00:00:00	2024-11-08T14:00:00	6	Velocidad del viento	12.9
74654	7	Sololá	704	Santa Lucía Utatlán 	7	Santa Rita 	2	Febrero	2023-04-02T00:00:00	2024-11-08T14:00:00	7	Dirección del viento	12.87
74655	7	Sololá	704	Santa Lucía Utatlán 	7	Santa Rita 	2	Febrero	2023-04-02T00:00:00	2024-11-08T14:00:00	1	Precipitación	0
74656	7	Sololá	704	Santa Lucía Utatlán 	7	Santa Rita 	2	Febrero	2023-04-02T00:00:00	2024-11-08T14:00:00	8	Radiación solar	829
74657	7	Sololá	704	Santa Lucía Utatlán 	7	Santa Rita 	2	Febrero	2023-04-02T00:00:00	2024-11-08T15:00:00	2	Temperatura media	22.2
74658	7	Sololá	704	Santa Lucía Utatlán 	7	Santa Rita 	2	Febrero	2023-04-02T00:00:00	2024-11-08T15:00:00	4	Temperatura máxima	22.8
74659	7	Sololá	704	Santa Lucía Utatlán 	7	Santa Rita 	2	Febrero	2023-04-02T00:00:00	2024-11-08T15:00:00	3	Temperatura mínima	21.6
74660	7	Sololá	704	Santa Lucía Utatlán 	7	Santa Rita 	2	Febrero	2023-04-02T00:00:00	2024-11-08T15:00:00	5	Humedad	56
74661	7	Sololá	704	Santa Lucía Utatlán 	7	Santa Rita 	2	Febrero	2023-04-02T00:00:00	2024-11-08T15:00:00	6	Velocidad del viento	11.3
74662	7	Sololá	704	Santa Lucía Utatlán 	7	Santa Rita 	2	Febrero	2023-04-02T00:00:00	2024-11-08T15:00:00	7	Dirección del viento	11.27
74663	7	Sololá	704	Santa Lucía Utatlán 	7	Santa Rita 	2	Febrero	2023-04-02T00:00:00	2024-11-08T15:00:00	1	Precipitación	0
74664	7	Sololá	704	Santa Lucía Utatlán 	7	Santa Rita 	2	Febrero	2023-04-02T00:00:00	2024-11-08T15:00:00	8	Radiación solar	676
74665	7	Sololá	704	Santa Lucía Utatlán 	7	Santa Rita 	2	Febrero	2023-04-02T00:00:00	2024-11-08T16:00:00	2	Temperatura media	22.3
74666	7	Sololá	704	Santa Lucía Utatlán 	7	Santa Rita 	2	Febrero	2023-04-02T00:00:00	2024-11-08T16:00:00	4	Temperatura máxima	22.7
74667	7	Sololá	704	Santa Lucía Utatlán 	7	Santa Rita 	2	Febrero	2023-04-02T00:00:00	2024-11-08T16:00:00	3	Temperatura mínima	21.9
74668	7	Sololá	704	Santa Lucía Utatlán 	7	Santa Rita 	2	Febrero	2023-04-02T00:00:00	2024-11-08T16:00:00	5	Humedad	55
74669	7	Sololá	704	Santa Lucía Utatlán 	7	Santa Rita 	2	Febrero	2023-04-02T00:00:00	2024-11-08T16:00:00	6	Velocidad del viento	11.3
74670	7	Sololá	704	Santa Lucía Utatlán 	7	Santa Rita 	2	Febrero	2023-04-02T00:00:00	2024-11-08T16:00:00	7	Dirección del viento	11.27
74671	7	Sololá	704	Santa Lucía Utatlán 	7	Santa Rita 	2	Febrero	2023-04-02T00:00:00	2024-11-08T16:00:00	1	Precipitación	0
74672	7	Sololá	704	Santa Lucía Utatlán 	7	Santa Rita 	2	Febrero	2023-04-02T00:00:00	2024-11-08T16:00:00	8	Radiación solar	463
74673	7	Sololá	704	Santa Lucía Utatlán 	7	Santa Rita 	2	Febrero	2023-04-02T00:00:00	2024-11-08T17:00:00	2	Temperatura media	21
74674	7	Sololá	704	Santa Lucía Utatlán 	7	Santa Rita 	2	Febrero	2023-04-02T00:00:00	2024-11-08T17:00:00	4	Temperatura máxima	22.3
74675	7	Sololá	704	Santa Lucía Utatlán 	7	Santa Rita 	2	Febrero	2023-04-02T00:00:00	2024-11-08T17:00:00	3	Temperatura mínima	21
74676	7	Sololá	704	Santa Lucía Utatlán 	7	Santa Rita 	2	Febrero	2023-04-02T00:00:00	2024-11-08T17:00:00	5	Humedad	57
74677	7	Sololá	704	Santa Lucía Utatlán 	7	Santa Rita 	2	Febrero	2023-04-02T00:00:00	2024-11-08T17:00:00	6	Velocidad del viento	11.3
74678	7	Sololá	704	Santa Lucía Utatlán 	7	Santa Rita 	2	Febrero	2023-04-02T00:00:00	2024-11-08T17:00:00	7	Dirección del viento	11.27
74679	7	Sololá	704	Santa Lucía Utatlán 	7	Santa Rita 	2	Febrero	2023-04-02T00:00:00	2024-11-08T17:00:00	1	Precipitación	0
74680	7	Sololá	704	Santa Lucía Utatlán 	7	Santa Rita 	2	Febrero	2023-04-02T00:00:00	2024-11-08T17:00:00	8	Radiación solar	233
74681	7	Sololá	704	Santa Lucía Utatlán 	7	Santa Rita 	2	Febrero	2023-04-02T00:00:00	2024-11-08T18:00:00	2	Temperatura media	18.8
74682	7	Sololá	704	Santa Lucía Utatlán 	7	Santa Rita 	2	Febrero	2023-04-02T00:00:00	2024-11-08T18:00:00	4	Temperatura máxima	21.1
74683	7	Sololá	704	Santa Lucía Utatlán 	7	Santa Rita 	2	Febrero	2023-04-02T00:00:00	2024-11-08T18:00:00	3	Temperatura mínima	18.8
74684	7	Sololá	704	Santa Lucía Utatlán 	7	Santa Rita 	2	Febrero	2023-04-02T00:00:00	2024-11-08T18:00:00	5	Humedad	67
74685	7	Sololá	704	Santa Lucía Utatlán 	7	Santa Rita 	2	Febrero	2023-04-02T00:00:00	2024-11-08T18:00:00	6	Velocidad del viento	14.5
74686	7	Sololá	704	Santa Lucía Utatlán 	7	Santa Rita 	2	Febrero	2023-04-02T00:00:00	2024-11-08T18:00:00	7	Dirección del viento	14.48
74687	7	Sololá	704	Santa Lucía Utatlán 	7	Santa Rita 	2	Febrero	2023-04-02T00:00:00	2024-11-08T18:00:00	1	Precipitación	0
74688	7	Sololá	704	Santa Lucía Utatlán 	7	Santa Rita 	2	Febrero	2023-04-02T00:00:00	2024-11-08T18:00:00	8	Radiación solar	35
74689	7	Sololá	704	Santa Lucía Utatlán 	7	Santa Rita 	2	Febrero	2023-04-02T00:00:00	2024-11-08T19:00:00	2	Temperatura media	18
74690	7	Sololá	704	Santa Lucía Utatlán 	7	Santa Rita 	2	Febrero	2023-04-02T00:00:00	2024-11-08T19:00:00	4	Temperatura máxima	18.8
74691	7	Sololá	704	Santa Lucía Utatlán 	7	Santa Rita 	2	Febrero	2023-04-02T00:00:00	2024-11-08T19:00:00	3	Temperatura mínima	17.9
74692	7	Sololá	704	Santa Lucía Utatlán 	7	Santa Rita 	2	Febrero	2023-04-02T00:00:00	2024-11-08T19:00:00	5	Humedad	73
74693	7	Sololá	704	Santa Lucía Utatlán 	7	Santa Rita 	2	Febrero	2023-04-02T00:00:00	2024-11-08T19:00:00	6	Velocidad del viento	11.3
74694	7	Sololá	704	Santa Lucía Utatlán 	7	Santa Rita 	2	Febrero	2023-04-02T00:00:00	2024-11-08T19:00:00	7	Dirección del viento	11.27
74695	7	Sololá	704	Santa Lucía Utatlán 	7	Santa Rita 	2	Febrero	2023-04-02T00:00:00	2024-11-08T19:00:00	1	Precipitación	0
74696	7	Sololá	704	Santa Lucía Utatlán 	7	Santa Rita 	2	Febrero	2023-04-02T00:00:00	2024-11-08T19:00:00	8	Radiación solar	0
74697	7	Sololá	704	Santa Lucía Utatlán 	7	Santa Rita 	2	Febrero	2023-04-02T00:00:00	2024-11-08T20:00:00	2	Temperatura media	17.7
74698	7	Sololá	704	Santa Lucía Utatlán 	7	Santa Rita 	2	Febrero	2023-04-02T00:00:00	2024-11-08T20:00:00	4	Temperatura máxima	18
74699	7	Sololá	704	Santa Lucía Utatlán 	7	Santa Rita 	2	Febrero	2023-04-02T00:00:00	2024-11-08T20:00:00	3	Temperatura mínima	17.7
74700	7	Sololá	704	Santa Lucía Utatlán 	7	Santa Rita 	2	Febrero	2023-04-02T00:00:00	2024-11-08T20:00:00	5	Humedad	74
74701	7	Sololá	704	Santa Lucía Utatlán 	7	Santa Rita 	2	Febrero	2023-04-02T00:00:00	2024-11-08T20:00:00	6	Velocidad del viento	9.7
74702	7	Sololá	704	Santa Lucía Utatlán 	7	Santa Rita 	2	Febrero	2023-04-02T00:00:00	2024-11-08T20:00:00	7	Dirección del viento	9.66
74703	7	Sololá	704	Santa Lucía Utatlán 	7	Santa Rita 	2	Febrero	2023-04-02T00:00:00	2024-11-08T20:00:00	1	Precipitación	0
74704	7	Sololá	704	Santa Lucía Utatlán 	7	Santa Rita 	2	Febrero	2023-04-02T00:00:00	2024-11-08T20:00:00	8	Radiación solar	0
74705	7	Sololá	704	Santa Lucía Utatlán 	7	Santa Rita 	2	Febrero	2023-04-02T00:00:00	2024-11-08T21:00:00	2	Temperatura media	17.3
74706	7	Sololá	704	Santa Lucía Utatlán 	7	Santa Rita 	2	Febrero	2023-04-02T00:00:00	2024-11-08T21:00:00	4	Temperatura máxima	17.8
74707	7	Sololá	704	Santa Lucía Utatlán 	7	Santa Rita 	2	Febrero	2023-04-02T00:00:00	2024-11-08T21:00:00	3	Temperatura mínima	17.1
74708	7	Sololá	704	Santa Lucía Utatlán 	7	Santa Rita 	2	Febrero	2023-04-02T00:00:00	2024-11-08T21:00:00	5	Humedad	73
74709	7	Sololá	704	Santa Lucía Utatlán 	7	Santa Rita 	2	Febrero	2023-04-02T00:00:00	2024-11-08T21:00:00	6	Velocidad del viento	6.4
74710	7	Sololá	704	Santa Lucía Utatlán 	7	Santa Rita 	2	Febrero	2023-04-02T00:00:00	2024-11-08T21:00:00	7	Dirección del viento	6.44
74711	7	Sololá	704	Santa Lucía Utatlán 	7	Santa Rita 	2	Febrero	2023-04-02T00:00:00	2024-11-08T21:00:00	1	Precipitación	0
74712	7	Sololá	704	Santa Lucía Utatlán 	7	Santa Rita 	2	Febrero	2023-04-02T00:00:00	2024-11-08T21:00:00	8	Radiación solar	0
74713	7	Sololá	704	Santa Lucía Utatlán 	7	Santa Rita 	2	Febrero	2023-04-02T00:00:00	2024-11-08T22:00:00	2	Temperatura media	17
74714	7	Sololá	704	Santa Lucía Utatlán 	7	Santa Rita 	2	Febrero	2023-04-02T00:00:00	2024-11-08T22:00:00	4	Temperatura máxima	17.4
74715	7	Sololá	704	Santa Lucía Utatlán 	7	Santa Rita 	2	Febrero	2023-04-02T00:00:00	2024-11-08T22:00:00	3	Temperatura mínima	16.6
74716	7	Sololá	704	Santa Lucía Utatlán 	7	Santa Rita 	2	Febrero	2023-04-02T00:00:00	2024-11-08T22:00:00	5	Humedad	70
74717	7	Sololá	704	Santa Lucía Utatlán 	7	Santa Rita 	2	Febrero	2023-04-02T00:00:00	2024-11-08T22:00:00	6	Velocidad del viento	4.8
74718	7	Sololá	704	Santa Lucía Utatlán 	7	Santa Rita 	2	Febrero	2023-04-02T00:00:00	2024-11-08T22:00:00	7	Dirección del viento	4.83
74719	7	Sololá	704	Santa Lucía Utatlán 	7	Santa Rita 	2	Febrero	2023-04-02T00:00:00	2024-11-08T22:00:00	1	Precipitación	0
74720	7	Sololá	704	Santa Lucía Utatlán 	7	Santa Rita 	2	Febrero	2023-04-02T00:00:00	2024-11-08T22:00:00	8	Radiación solar	0
74721	7	Sololá	704	Santa Lucía Utatlán 	7	Santa Rita 	2	Febrero	2023-04-02T00:00:00	2024-11-08T23:00:00	2	Temperatura media	16.2
74722	7	Sololá	704	Santa Lucía Utatlán 	7	Santa Rita 	2	Febrero	2023-04-02T00:00:00	2024-11-08T23:00:00	4	Temperatura máxima	17.3
74723	7	Sololá	704	Santa Lucía Utatlán 	7	Santa Rita 	2	Febrero	2023-04-02T00:00:00	2024-11-08T23:00:00	3	Temperatura mínima	16.2
74724	7	Sololá	704	Santa Lucía Utatlán 	7	Santa Rita 	2	Febrero	2023-04-02T00:00:00	2024-11-08T23:00:00	5	Humedad	75
74725	7	Sololá	704	Santa Lucía Utatlán 	7	Santa Rita 	2	Febrero	2023-04-02T00:00:00	2024-11-08T23:00:00	6	Velocidad del viento	6.4
74726	7	Sololá	704	Santa Lucía Utatlán 	7	Santa Rita 	2	Febrero	2023-04-02T00:00:00	2024-11-08T23:00:00	7	Dirección del viento	6.44
74727	7	Sololá	704	Santa Lucía Utatlán 	7	Santa Rita 	2	Febrero	2023-04-02T00:00:00	2024-11-08T23:00:00	1	Precipitación	0
74728	7	Sololá	704	Santa Lucía Utatlán 	7	Santa Rita 	2	Febrero	2023-04-02T00:00:00	2024-11-08T23:00:00	8	Radiación solar	0
74729	7	Sololá	704	Santa Lucía Utatlán 	7	Santa Rita 	2	Febrero	2023-05-02T00:00:00	2024-11-08T00:00:00	2	Temperatura media	16.2
74730	7	Sololá	704	Santa Lucía Utatlán 	7	Santa Rita 	2	Febrero	2023-05-02T00:00:00	2024-11-08T00:00:00	4	Temperatura máxima	16.2
74731	7	Sololá	704	Santa Lucía Utatlán 	7	Santa Rita 	2	Febrero	2023-05-02T00:00:00	2024-11-08T00:00:00	3	Temperatura mínima	14.9
74732	7	Sololá	704	Santa Lucía Utatlán 	7	Santa Rita 	2	Febrero	2023-05-02T00:00:00	2024-11-08T00:00:00	5	Humedad	75
74733	7	Sololá	704	Santa Lucía Utatlán 	7	Santa Rita 	2	Febrero	2023-05-02T00:00:00	2024-11-08T00:00:00	6	Velocidad del viento	3.2
74734	7	Sololá	704	Santa Lucía Utatlán 	7	Santa Rita 	2	Febrero	2023-05-02T00:00:00	2024-11-08T00:00:00	7	Dirección del viento	3.22
74735	7	Sololá	704	Santa Lucía Utatlán 	7	Santa Rita 	2	Febrero	2023-05-02T00:00:00	2024-11-08T00:00:00	1	Precipitación	0
74736	7	Sololá	704	Santa Lucía Utatlán 	7	Santa Rita 	2	Febrero	2023-05-02T00:00:00	2024-11-08T00:00:00	8	Radiación solar	0
74737	7	Sololá	704	Santa Lucía Utatlán 	7	Santa Rita 	2	Febrero	2023-05-02T00:00:00	2024-11-08T01:00:00	2	Temperatura media	16.7
74738	7	Sololá	704	Santa Lucía Utatlán 	7	Santa Rita 	2	Febrero	2023-05-02T00:00:00	2024-11-08T01:00:00	4	Temperatura máxima	16.7
74739	7	Sololá	704	Santa Lucía Utatlán 	7	Santa Rita 	2	Febrero	2023-05-02T00:00:00	2024-11-08T01:00:00	3	Temperatura mínima	15.3
74740	7	Sololá	704	Santa Lucía Utatlán 	7	Santa Rita 	2	Febrero	2023-05-02T00:00:00	2024-11-08T01:00:00	5	Humedad	71
74741	7	Sololá	704	Santa Lucía Utatlán 	7	Santa Rita 	2	Febrero	2023-05-02T00:00:00	2024-11-08T01:00:00	6	Velocidad del viento	3.2
74742	7	Sololá	704	Santa Lucía Utatlán 	7	Santa Rita 	2	Febrero	2023-05-02T00:00:00	2024-11-08T01:00:00	7	Dirección del viento	3.22
74743	7	Sololá	704	Santa Lucía Utatlán 	7	Santa Rita 	2	Febrero	2023-05-02T00:00:00	2024-11-08T01:00:00	1	Precipitación	0
74744	7	Sololá	704	Santa Lucía Utatlán 	7	Santa Rita 	2	Febrero	2023-05-02T00:00:00	2024-11-08T01:00:00	8	Radiación solar	0
74745	7	Sololá	704	Santa Lucía Utatlán 	7	Santa Rita 	2	Febrero	2023-05-02T00:00:00	2024-11-08T02:00:00	2	Temperatura media	16.3
74746	7	Sololá	704	Santa Lucía Utatlán 	7	Santa Rita 	2	Febrero	2023-05-02T00:00:00	2024-11-08T02:00:00	4	Temperatura máxima	17.1
74747	7	Sololá	704	Santa Lucía Utatlán 	7	Santa Rita 	2	Febrero	2023-05-02T00:00:00	2024-11-08T02:00:00	3	Temperatura mínima	16
74748	7	Sololá	704	Santa Lucía Utatlán 	7	Santa Rita 	2	Febrero	2023-05-02T00:00:00	2024-11-08T02:00:00	5	Humedad	72
74749	7	Sololá	704	Santa Lucía Utatlán 	7	Santa Rita 	2	Febrero	2023-05-02T00:00:00	2024-11-08T02:00:00	6	Velocidad del viento	4.8
74750	7	Sololá	704	Santa Lucía Utatlán 	7	Santa Rita 	2	Febrero	2023-05-02T00:00:00	2024-11-08T02:00:00	7	Dirección del viento	4.83
74751	7	Sololá	704	Santa Lucía Utatlán 	7	Santa Rita 	2	Febrero	2023-05-02T00:00:00	2024-11-08T02:00:00	1	Precipitación	0
74752	7	Sololá	704	Santa Lucía Utatlán 	7	Santa Rita 	2	Febrero	2023-05-02T00:00:00	2024-11-08T02:00:00	8	Radiación solar	0
74753	7	Sololá	704	Santa Lucía Utatlán 	7	Santa Rita 	2	Febrero	2023-05-02T00:00:00	2024-11-08T03:00:00	2	Temperatura media	17.2
74754	7	Sololá	704	Santa Lucía Utatlán 	7	Santa Rita 	2	Febrero	2023-05-02T00:00:00	2024-11-08T03:00:00	4	Temperatura máxima	17.3
74755	7	Sololá	704	Santa Lucía Utatlán 	7	Santa Rita 	2	Febrero	2023-05-02T00:00:00	2024-11-08T03:00:00	3	Temperatura mínima	16.2
74756	7	Sololá	704	Santa Lucía Utatlán 	7	Santa Rita 	2	Febrero	2023-05-02T00:00:00	2024-11-08T03:00:00	5	Humedad	74
74757	7	Sololá	704	Santa Lucía Utatlán 	7	Santa Rita 	2	Febrero	2023-05-02T00:00:00	2024-11-08T03:00:00	6	Velocidad del viento	4.8
74758	7	Sololá	704	Santa Lucía Utatlán 	7	Santa Rita 	2	Febrero	2023-05-02T00:00:00	2024-11-08T03:00:00	7	Dirección del viento	4.83
74759	7	Sololá	704	Santa Lucía Utatlán 	7	Santa Rita 	2	Febrero	2023-05-02T00:00:00	2024-11-08T03:00:00	1	Precipitación	0
74760	7	Sololá	704	Santa Lucía Utatlán 	7	Santa Rita 	2	Febrero	2023-05-02T00:00:00	2024-11-08T03:00:00	8	Radiación solar	0
74761	7	Sololá	704	Santa Lucía Utatlán 	7	Santa Rita 	2	Febrero	2023-05-02T00:00:00	2024-11-08T04:00:00	2	Temperatura media	16.8
74762	7	Sololá	704	Santa Lucía Utatlán 	7	Santa Rita 	2	Febrero	2023-05-02T00:00:00	2024-11-08T04:00:00	4	Temperatura máxima	17.3
74763	7	Sololá	704	Santa Lucía Utatlán 	7	Santa Rita 	2	Febrero	2023-05-02T00:00:00	2024-11-08T04:00:00	3	Temperatura mínima	16.8
74764	7	Sololá	704	Santa Lucía Utatlán 	7	Santa Rita 	2	Febrero	2023-05-02T00:00:00	2024-11-08T04:00:00	5	Humedad	77
74765	7	Sololá	704	Santa Lucía Utatlán 	7	Santa Rita 	2	Febrero	2023-05-02T00:00:00	2024-11-08T04:00:00	6	Velocidad del viento	6.4
74766	7	Sololá	704	Santa Lucía Utatlán 	7	Santa Rita 	2	Febrero	2023-05-02T00:00:00	2024-11-08T04:00:00	7	Dirección del viento	6.44
74767	7	Sololá	704	Santa Lucía Utatlán 	7	Santa Rita 	2	Febrero	2023-05-02T00:00:00	2024-11-08T04:00:00	1	Precipitación	0
74768	7	Sololá	704	Santa Lucía Utatlán 	7	Santa Rita 	2	Febrero	2023-05-02T00:00:00	2024-11-08T04:00:00	8	Radiación solar	0
74769	7	Sololá	704	Santa Lucía Utatlán 	7	Santa Rita 	2	Febrero	2023-05-02T00:00:00	2024-11-08T05:00:00	2	Temperatura media	16.9
74770	7	Sololá	704	Santa Lucía Utatlán 	7	Santa Rita 	2	Febrero	2023-05-02T00:00:00	2024-11-08T05:00:00	4	Temperatura máxima	17
74771	7	Sololá	704	Santa Lucía Utatlán 	7	Santa Rita 	2	Febrero	2023-05-02T00:00:00	2024-11-08T05:00:00	3	Temperatura mínima	16.6
74772	7	Sololá	704	Santa Lucía Utatlán 	7	Santa Rita 	2	Febrero	2023-05-02T00:00:00	2024-11-08T05:00:00	5	Humedad	76
74773	7	Sololá	704	Santa Lucía Utatlán 	7	Santa Rita 	2	Febrero	2023-05-02T00:00:00	2024-11-08T05:00:00	6	Velocidad del viento	4.8
74774	7	Sololá	704	Santa Lucía Utatlán 	7	Santa Rita 	2	Febrero	2023-05-02T00:00:00	2024-11-08T05:00:00	7	Dirección del viento	4.83
74775	7	Sololá	704	Santa Lucía Utatlán 	7	Santa Rita 	2	Febrero	2023-05-02T00:00:00	2024-11-08T05:00:00	1	Precipitación	0
74776	7	Sololá	704	Santa Lucía Utatlán 	7	Santa Rita 	2	Febrero	2023-05-02T00:00:00	2024-11-08T05:00:00	8	Radiación solar	0
74777	7	Sololá	704	Santa Lucía Utatlán 	7	Santa Rita 	2	Febrero	2023-05-02T00:00:00	2024-11-08T06:00:00	2	Temperatura media	16.9
74778	7	Sololá	704	Santa Lucía Utatlán 	7	Santa Rita 	2	Febrero	2023-05-02T00:00:00	2024-11-08T06:00:00	4	Temperatura máxima	17.2
74779	7	Sololá	704	Santa Lucía Utatlán 	7	Santa Rita 	2	Febrero	2023-05-02T00:00:00	2024-11-08T06:00:00	3	Temperatura mínima	16.8
74780	7	Sololá	704	Santa Lucía Utatlán 	7	Santa Rita 	2	Febrero	2023-05-02T00:00:00	2024-11-08T06:00:00	5	Humedad	75
74781	7	Sololá	704	Santa Lucía Utatlán 	7	Santa Rita 	2	Febrero	2023-05-02T00:00:00	2024-11-08T06:00:00	6	Velocidad del viento	6.4
74782	7	Sololá	704	Santa Lucía Utatlán 	7	Santa Rita 	2	Febrero	2023-05-02T00:00:00	2024-11-08T06:00:00	7	Dirección del viento	6.44
74783	7	Sololá	704	Santa Lucía Utatlán 	7	Santa Rita 	2	Febrero	2023-05-02T00:00:00	2024-11-08T06:00:00	1	Precipitación	0
74784	7	Sololá	704	Santa Lucía Utatlán 	7	Santa Rita 	2	Febrero	2023-05-02T00:00:00	2024-11-08T06:00:00	8	Radiación solar	0
74785	7	Sololá	704	Santa Lucía Utatlán 	7	Santa Rita 	2	Febrero	2023-05-02T00:00:00	2024-11-08T07:00:00	2	Temperatura media	16.9
74786	7	Sololá	704	Santa Lucía Utatlán 	7	Santa Rita 	2	Febrero	2023-05-02T00:00:00	2024-11-08T07:00:00	4	Temperatura máxima	17
74787	7	Sololá	704	Santa Lucía Utatlán 	7	Santa Rita 	2	Febrero	2023-05-02T00:00:00	2024-11-08T07:00:00	3	Temperatura mínima	16.7
74788	7	Sololá	704	Santa Lucía Utatlán 	7	Santa Rita 	2	Febrero	2023-05-02T00:00:00	2024-11-08T07:00:00	5	Humedad	73
74789	7	Sololá	704	Santa Lucía Utatlán 	7	Santa Rita 	2	Febrero	2023-05-02T00:00:00	2024-11-08T07:00:00	6	Velocidad del viento	8
74790	7	Sololá	704	Santa Lucía Utatlán 	7	Santa Rita 	2	Febrero	2023-05-02T00:00:00	2024-11-08T07:00:00	7	Dirección del viento	8.05
74791	7	Sololá	704	Santa Lucía Utatlán 	7	Santa Rita 	2	Febrero	2023-05-02T00:00:00	2024-11-08T07:00:00	1	Precipitación	0
74792	7	Sololá	704	Santa Lucía Utatlán 	7	Santa Rita 	2	Febrero	2023-05-02T00:00:00	2024-11-08T07:00:00	8	Radiación solar	5
74793	7	Sololá	704	Santa Lucía Utatlán 	7	Santa Rita 	2	Febrero	2023-05-02T00:00:00	2024-11-08T08:00:00	2	Temperatura media	19.2
74794	7	Sololá	704	Santa Lucía Utatlán 	7	Santa Rita 	2	Febrero	2023-05-02T00:00:00	2024-11-08T08:00:00	4	Temperatura máxima	19.2
74795	7	Sololá	704	Santa Lucía Utatlán 	7	Santa Rita 	2	Febrero	2023-05-02T00:00:00	2024-11-08T08:00:00	3	Temperatura mínima	16.9
74796	7	Sololá	704	Santa Lucía Utatlán 	7	Santa Rita 	2	Febrero	2023-05-02T00:00:00	2024-11-08T08:00:00	5	Humedad	63
74797	7	Sololá	704	Santa Lucía Utatlán 	7	Santa Rita 	2	Febrero	2023-05-02T00:00:00	2024-11-08T08:00:00	6	Velocidad del viento	8
74798	7	Sololá	704	Santa Lucía Utatlán 	7	Santa Rita 	2	Febrero	2023-05-02T00:00:00	2024-11-08T08:00:00	7	Dirección del viento	8.05
74799	7	Sololá	704	Santa Lucía Utatlán 	7	Santa Rita 	2	Febrero	2023-05-02T00:00:00	2024-11-08T08:00:00	1	Precipitación	0
74800	7	Sololá	704	Santa Lucía Utatlán 	7	Santa Rita 	2	Febrero	2023-05-02T00:00:00	2024-11-08T08:00:00	8	Radiación solar	151
74801	7	Sololá	704	Santa Lucía Utatlán 	7	Santa Rita 	2	Febrero	2023-05-02T00:00:00	2024-11-08T09:00:00	2	Temperatura media	20.6
74802	7	Sololá	704	Santa Lucía Utatlán 	7	Santa Rita 	2	Febrero	2023-05-02T00:00:00	2024-11-08T09:00:00	4	Temperatura máxima	20.6
74803	7	Sololá	704	Santa Lucía Utatlán 	7	Santa Rita 	2	Febrero	2023-05-02T00:00:00	2024-11-08T09:00:00	3	Temperatura mínima	19.1
74804	7	Sololá	704	Santa Lucía Utatlán 	7	Santa Rita 	2	Febrero	2023-05-02T00:00:00	2024-11-08T09:00:00	5	Humedad	55
74805	7	Sololá	704	Santa Lucía Utatlán 	7	Santa Rita 	2	Febrero	2023-05-02T00:00:00	2024-11-08T09:00:00	6	Velocidad del viento	9.7
74806	7	Sololá	704	Santa Lucía Utatlán 	7	Santa Rita 	2	Febrero	2023-05-02T00:00:00	2024-11-08T09:00:00	7	Dirección del viento	9.66
74807	7	Sololá	704	Santa Lucía Utatlán 	7	Santa Rita 	2	Febrero	2023-05-02T00:00:00	2024-11-08T09:00:00	1	Precipitación	0
74808	7	Sololá	704	Santa Lucía Utatlán 	7	Santa Rita 	2	Febrero	2023-05-02T00:00:00	2024-11-08T09:00:00	8	Radiación solar	398
74809	7	Sololá	704	Santa Lucía Utatlán 	7	Santa Rita 	2	Febrero	2023-05-02T00:00:00	2024-11-08T10:00:00	2	Temperatura media	21.4
74810	7	Sololá	704	Santa Lucía Utatlán 	7	Santa Rita 	2	Febrero	2023-05-02T00:00:00	2024-11-08T10:00:00	4	Temperatura máxima	21.8
74811	7	Sololá	704	Santa Lucía Utatlán 	7	Santa Rita 	2	Febrero	2023-05-02T00:00:00	2024-11-08T10:00:00	3	Temperatura mínima	20.5
74812	7	Sololá	704	Santa Lucía Utatlán 	7	Santa Rita 	2	Febrero	2023-05-02T00:00:00	2024-11-08T10:00:00	5	Humedad	47
74813	7	Sololá	704	Santa Lucía Utatlán 	7	Santa Rita 	2	Febrero	2023-05-02T00:00:00	2024-11-08T10:00:00	6	Velocidad del viento	6.4
74814	7	Sololá	704	Santa Lucía Utatlán 	7	Santa Rita 	2	Febrero	2023-05-02T00:00:00	2024-11-08T10:00:00	7	Dirección del viento	6.44
74815	7	Sololá	704	Santa Lucía Utatlán 	7	Santa Rita 	2	Febrero	2023-05-02T00:00:00	2024-11-08T10:00:00	1	Precipitación	0
74816	7	Sololá	704	Santa Lucía Utatlán 	7	Santa Rita 	2	Febrero	2023-05-02T00:00:00	2024-11-08T10:00:00	8	Radiación solar	598
74817	7	Sololá	704	Santa Lucía Utatlán 	7	Santa Rita 	2	Febrero	2023-05-02T00:00:00	2024-11-08T11:00:00	2	Temperatura media	22.7
74818	7	Sololá	704	Santa Lucía Utatlán 	7	Santa Rita 	2	Febrero	2023-05-02T00:00:00	2024-11-08T11:00:00	4	Temperatura máxima	22.8
74819	7	Sololá	704	Santa Lucía Utatlán 	7	Santa Rita 	2	Febrero	2023-05-02T00:00:00	2024-11-08T11:00:00	3	Temperatura mínima	21.1
74820	7	Sololá	704	Santa Lucía Utatlán 	7	Santa Rita 	2	Febrero	2023-05-02T00:00:00	2024-11-08T11:00:00	5	Humedad	41
74821	7	Sololá	704	Santa Lucía Utatlán 	7	Santa Rita 	2	Febrero	2023-05-02T00:00:00	2024-11-08T11:00:00	6	Velocidad del viento	9.7
74822	7	Sololá	704	Santa Lucía Utatlán 	7	Santa Rita 	2	Febrero	2023-05-02T00:00:00	2024-11-08T11:00:00	7	Dirección del viento	9.66
74823	7	Sololá	704	Santa Lucía Utatlán 	7	Santa Rita 	2	Febrero	2023-05-02T00:00:00	2024-11-08T11:00:00	1	Precipitación	0
74824	7	Sololá	704	Santa Lucía Utatlán 	7	Santa Rita 	2	Febrero	2023-05-02T00:00:00	2024-11-08T11:00:00	8	Radiación solar	759
74825	7	Sololá	704	Santa Lucía Utatlán 	7	Santa Rita 	2	Febrero	2023-05-02T00:00:00	2024-11-08T12:00:00	2	Temperatura media	23.9
74826	7	Sololá	704	Santa Lucía Utatlán 	7	Santa Rita 	2	Febrero	2023-05-02T00:00:00	2024-11-08T12:00:00	4	Temperatura máxima	23.9
74827	7	Sololá	704	Santa Lucía Utatlán 	7	Santa Rita 	2	Febrero	2023-05-02T00:00:00	2024-11-08T12:00:00	3	Temperatura mínima	22.4
74828	7	Sololá	704	Santa Lucía Utatlán 	7	Santa Rita 	2	Febrero	2023-05-02T00:00:00	2024-11-08T12:00:00	5	Humedad	31
74829	7	Sololá	704	Santa Lucía Utatlán 	7	Santa Rita 	2	Febrero	2023-05-02T00:00:00	2024-11-08T12:00:00	6	Velocidad del viento	8
74830	7	Sololá	704	Santa Lucía Utatlán 	7	Santa Rita 	2	Febrero	2023-05-02T00:00:00	2024-11-08T12:00:00	7	Dirección del viento	8.05
74831	7	Sololá	704	Santa Lucía Utatlán 	7	Santa Rita 	2	Febrero	2023-05-02T00:00:00	2024-11-08T12:00:00	1	Precipitación	0
74832	7	Sololá	704	Santa Lucía Utatlán 	7	Santa Rita 	2	Febrero	2023-05-02T00:00:00	2024-11-08T12:00:00	8	Radiación solar	858
74833	7	Sololá	704	Santa Lucía Utatlán 	7	Santa Rita 	2	Febrero	2023-05-02T00:00:00	2024-11-08T13:00:00	2	Temperatura media	23.8
74834	7	Sololá	704	Santa Lucía Utatlán 	7	Santa Rita 	2	Febrero	2023-05-02T00:00:00	2024-11-08T13:00:00	4	Temperatura máxima	24.3
74835	7	Sololá	704	Santa Lucía Utatlán 	7	Santa Rita 	2	Febrero	2023-05-02T00:00:00	2024-11-08T13:00:00	3	Temperatura mínima	23.1
74836	7	Sololá	704	Santa Lucía Utatlán 	7	Santa Rita 	2	Febrero	2023-05-02T00:00:00	2024-11-08T13:00:00	5	Humedad	32
74837	7	Sololá	704	Santa Lucía Utatlán 	7	Santa Rita 	2	Febrero	2023-05-02T00:00:00	2024-11-08T13:00:00	6	Velocidad del viento	9.7
74838	7	Sololá	704	Santa Lucía Utatlán 	7	Santa Rita 	2	Febrero	2023-05-02T00:00:00	2024-11-08T13:00:00	7	Dirección del viento	9.66
74839	7	Sololá	704	Santa Lucía Utatlán 	7	Santa Rita 	2	Febrero	2023-05-02T00:00:00	2024-11-08T13:00:00	1	Precipitación	0
74840	7	Sololá	704	Santa Lucía Utatlán 	7	Santa Rita 	2	Febrero	2023-05-02T00:00:00	2024-11-08T13:00:00	8	Radiación solar	884
74841	7	Sololá	704	Santa Lucía Utatlán 	7	Santa Rita 	2	Febrero	2023-05-02T00:00:00	2024-11-08T14:00:00	2	Temperatura media	23.2
74842	7	Sololá	704	Santa Lucía Utatlán 	7	Santa Rita 	2	Febrero	2023-05-02T00:00:00	2024-11-08T14:00:00	4	Temperatura máxima	24.2
74843	7	Sololá	704	Santa Lucía Utatlán 	7	Santa Rita 	2	Febrero	2023-05-02T00:00:00	2024-11-08T14:00:00	3	Temperatura mínima	23.2
74844	7	Sololá	704	Santa Lucía Utatlán 	7	Santa Rita 	2	Febrero	2023-05-02T00:00:00	2024-11-08T14:00:00	5	Humedad	35
74845	7	Sololá	704	Santa Lucía Utatlán 	7	Santa Rita 	2	Febrero	2023-05-02T00:00:00	2024-11-08T14:00:00	6	Velocidad del viento	11.3
74846	7	Sololá	704	Santa Lucía Utatlán 	7	Santa Rita 	2	Febrero	2023-05-02T00:00:00	2024-11-08T14:00:00	7	Dirección del viento	11.27
74847	7	Sololá	704	Santa Lucía Utatlán 	7	Santa Rita 	2	Febrero	2023-05-02T00:00:00	2024-11-08T14:00:00	1	Precipitación	0
74848	7	Sololá	704	Santa Lucía Utatlán 	7	Santa Rita 	2	Febrero	2023-05-02T00:00:00	2024-11-08T14:00:00	8	Radiación solar	840
74849	7	Sololá	704	Santa Lucía Utatlán 	7	Santa Rita 	2	Febrero	2023-05-02T00:00:00	2024-11-08T15:00:00	2	Temperatura media	23.2
74850	7	Sololá	704	Santa Lucía Utatlán 	7	Santa Rita 	2	Febrero	2023-05-02T00:00:00	2024-11-08T15:00:00	4	Temperatura máxima	23.8
74851	7	Sololá	704	Santa Lucía Utatlán 	7	Santa Rita 	2	Febrero	2023-05-02T00:00:00	2024-11-08T15:00:00	3	Temperatura mínima	22.9
74852	7	Sololá	704	Santa Lucía Utatlán 	7	Santa Rita 	2	Febrero	2023-05-02T00:00:00	2024-11-08T15:00:00	5	Humedad	35
74853	7	Sololá	704	Santa Lucía Utatlán 	7	Santa Rita 	2	Febrero	2023-05-02T00:00:00	2024-11-08T15:00:00	6	Velocidad del viento	12.9
74854	7	Sololá	704	Santa Lucía Utatlán 	7	Santa Rita 	2	Febrero	2023-05-02T00:00:00	2024-11-08T15:00:00	7	Dirección del viento	12.87
74855	7	Sololá	704	Santa Lucía Utatlán 	7	Santa Rita 	2	Febrero	2023-05-02T00:00:00	2024-11-08T15:00:00	1	Precipitación	0
74856	7	Sololá	704	Santa Lucía Utatlán 	7	Santa Rita 	2	Febrero	2023-05-02T00:00:00	2024-11-08T15:00:00	8	Radiación solar	717
74857	7	Sololá	704	Santa Lucía Utatlán 	7	Santa Rita 	2	Febrero	2023-05-02T00:00:00	2024-11-08T16:00:00	2	Temperatura media	22.6
74858	7	Sololá	704	Santa Lucía Utatlán 	7	Santa Rita 	2	Febrero	2023-05-02T00:00:00	2024-11-08T16:00:00	4	Temperatura máxima	23.5
74859	7	Sololá	704	Santa Lucía Utatlán 	7	Santa Rita 	2	Febrero	2023-05-02T00:00:00	2024-11-08T16:00:00	3	Temperatura mínima	22.6
74860	7	Sololá	704	Santa Lucía Utatlán 	7	Santa Rita 	2	Febrero	2023-05-02T00:00:00	2024-11-08T16:00:00	5	Humedad	45
74861	7	Sololá	704	Santa Lucía Utatlán 	7	Santa Rita 	2	Febrero	2023-05-02T00:00:00	2024-11-08T16:00:00	6	Velocidad del viento	9.7
74862	7	Sololá	704	Santa Lucía Utatlán 	7	Santa Rita 	2	Febrero	2023-05-02T00:00:00	2024-11-08T16:00:00	7	Dirección del viento	9.66
74863	7	Sololá	704	Santa Lucía Utatlán 	7	Santa Rita 	2	Febrero	2023-05-02T00:00:00	2024-11-08T16:00:00	1	Precipitación	0
74864	7	Sololá	704	Santa Lucía Utatlán 	7	Santa Rita 	2	Febrero	2023-05-02T00:00:00	2024-11-08T16:00:00	8	Radiación solar	454
74865	7	Sololá	704	Santa Lucía Utatlán 	7	Santa Rita 	2	Febrero	2023-05-02T00:00:00	2024-11-08T17:00:00	2	Temperatura media	21.3
74866	7	Sololá	704	Santa Lucía Utatlán 	7	Santa Rita 	2	Febrero	2023-05-02T00:00:00	2024-11-08T17:00:00	4	Temperatura máxima	22.6
74867	7	Sololá	704	Santa Lucía Utatlán 	7	Santa Rita 	2	Febrero	2023-05-02T00:00:00	2024-11-08T17:00:00	3	Temperatura mínima	21.3
74868	7	Sololá	704	Santa Lucía Utatlán 	7	Santa Rita 	2	Febrero	2023-05-02T00:00:00	2024-11-08T17:00:00	5	Humedad	52
74869	7	Sololá	704	Santa Lucía Utatlán 	7	Santa Rita 	2	Febrero	2023-05-02T00:00:00	2024-11-08T17:00:00	6	Velocidad del viento	11.3
74870	7	Sololá	704	Santa Lucía Utatlán 	7	Santa Rita 	2	Febrero	2023-05-02T00:00:00	2024-11-08T17:00:00	7	Dirección del viento	11.27
74871	7	Sololá	704	Santa Lucía Utatlán 	7	Santa Rita 	2	Febrero	2023-05-02T00:00:00	2024-11-08T17:00:00	1	Precipitación	0
74872	7	Sololá	704	Santa Lucía Utatlán 	7	Santa Rita 	2	Febrero	2023-05-02T00:00:00	2024-11-08T17:00:00	8	Radiación solar	234
74873	7	Sololá	704	Santa Lucía Utatlán 	7	Santa Rita 	2	Febrero	2023-05-02T00:00:00	2024-11-08T18:00:00	2	Temperatura media	19.2
74874	7	Sololá	704	Santa Lucía Utatlán 	7	Santa Rita 	2	Febrero	2023-05-02T00:00:00	2024-11-08T18:00:00	4	Temperatura máxima	21.3
74875	7	Sololá	704	Santa Lucía Utatlán 	7	Santa Rita 	2	Febrero	2023-05-02T00:00:00	2024-11-08T18:00:00	3	Temperatura mínima	19.2
74876	7	Sololá	704	Santa Lucía Utatlán 	7	Santa Rita 	2	Febrero	2023-05-02T00:00:00	2024-11-08T18:00:00	5	Humedad	62
74877	7	Sololá	704	Santa Lucía Utatlán 	7	Santa Rita 	2	Febrero	2023-05-02T00:00:00	2024-11-08T18:00:00	6	Velocidad del viento	4.8
74878	7	Sololá	704	Santa Lucía Utatlán 	7	Santa Rita 	2	Febrero	2023-05-02T00:00:00	2024-11-08T18:00:00	7	Dirección del viento	4.83
74879	7	Sololá	704	Santa Lucía Utatlán 	7	Santa Rita 	2	Febrero	2023-05-02T00:00:00	2024-11-08T18:00:00	1	Precipitación	0
74880	7	Sololá	704	Santa Lucía Utatlán 	7	Santa Rita 	2	Febrero	2023-05-02T00:00:00	2024-11-08T18:00:00	8	Radiación solar	35
74881	7	Sololá	704	Santa Lucía Utatlán 	7	Santa Rita 	2	Febrero	2023-05-02T00:00:00	2024-11-08T19:00:00	2	Temperatura media	18
74882	7	Sololá	704	Santa Lucía Utatlán 	7	Santa Rita 	2	Febrero	2023-05-02T00:00:00	2024-11-08T19:00:00	4	Temperatura máxima	19.2
74883	7	Sololá	704	Santa Lucía Utatlán 	7	Santa Rita 	2	Febrero	2023-05-02T00:00:00	2024-11-08T19:00:00	3	Temperatura mínima	18
74884	7	Sololá	704	Santa Lucía Utatlán 	7	Santa Rita 	2	Febrero	2023-05-02T00:00:00	2024-11-08T19:00:00	5	Humedad	63
74885	7	Sololá	704	Santa Lucía Utatlán 	7	Santa Rita 	2	Febrero	2023-05-02T00:00:00	2024-11-08T19:00:00	6	Velocidad del viento	4.8
74886	7	Sololá	704	Santa Lucía Utatlán 	7	Santa Rita 	2	Febrero	2023-05-02T00:00:00	2024-11-08T19:00:00	7	Dirección del viento	4.83
74887	7	Sololá	704	Santa Lucía Utatlán 	7	Santa Rita 	2	Febrero	2023-05-02T00:00:00	2024-11-08T19:00:00	1	Precipitación	0
74888	7	Sololá	704	Santa Lucía Utatlán 	7	Santa Rita 	2	Febrero	2023-05-02T00:00:00	2024-11-08T19:00:00	8	Radiación solar	0
74889	7	Sololá	704	Santa Lucía Utatlán 	7	Santa Rita 	2	Febrero	2023-05-02T00:00:00	2024-11-08T20:00:00	2	Temperatura media	17.4
74890	7	Sololá	704	Santa Lucía Utatlán 	7	Santa Rita 	2	Febrero	2023-05-02T00:00:00	2024-11-08T20:00:00	4	Temperatura máxima	18
74891	7	Sololá	704	Santa Lucía Utatlán 	7	Santa Rita 	2	Febrero	2023-05-02T00:00:00	2024-11-08T20:00:00	3	Temperatura mínima	17.4
74892	7	Sololá	704	Santa Lucía Utatlán 	7	Santa Rita 	2	Febrero	2023-05-02T00:00:00	2024-11-08T20:00:00	5	Humedad	65
74893	7	Sololá	704	Santa Lucía Utatlán 	7	Santa Rita 	2	Febrero	2023-05-02T00:00:00	2024-11-08T20:00:00	6	Velocidad del viento	3.2
74894	7	Sololá	704	Santa Lucía Utatlán 	7	Santa Rita 	2	Febrero	2023-05-02T00:00:00	2024-11-08T20:00:00	7	Dirección del viento	3.22
74895	7	Sololá	704	Santa Lucía Utatlán 	7	Santa Rita 	2	Febrero	2023-05-02T00:00:00	2024-11-08T20:00:00	1	Precipitación	0
74896	7	Sololá	704	Santa Lucía Utatlán 	7	Santa Rita 	2	Febrero	2023-05-02T00:00:00	2024-11-08T20:00:00	8	Radiación solar	0
74897	7	Sololá	704	Santa Lucía Utatlán 	7	Santa Rita 	2	Febrero	2023-05-02T00:00:00	2024-11-08T21:00:00	2	Temperatura media	16.6
74898	7	Sololá	704	Santa Lucía Utatlán 	7	Santa Rita 	2	Febrero	2023-05-02T00:00:00	2024-11-08T21:00:00	4	Temperatura máxima	17.4
74899	7	Sololá	704	Santa Lucía Utatlán 	7	Santa Rita 	2	Febrero	2023-05-02T00:00:00	2024-11-08T21:00:00	3	Temperatura mínima	16.6
74900	7	Sololá	704	Santa Lucía Utatlán 	7	Santa Rita 	2	Febrero	2023-05-02T00:00:00	2024-11-08T21:00:00	5	Humedad	65
74901	7	Sololá	704	Santa Lucía Utatlán 	7	Santa Rita 	2	Febrero	2023-05-02T00:00:00	2024-11-08T21:00:00	6	Velocidad del viento	6.4
74902	7	Sololá	704	Santa Lucía Utatlán 	7	Santa Rita 	2	Febrero	2023-05-02T00:00:00	2024-11-08T21:00:00	7	Dirección del viento	6.44
74903	7	Sololá	704	Santa Lucía Utatlán 	7	Santa Rita 	2	Febrero	2023-05-02T00:00:00	2024-11-08T21:00:00	1	Precipitación	0
74904	7	Sololá	704	Santa Lucía Utatlán 	7	Santa Rita 	2	Febrero	2023-05-02T00:00:00	2024-11-08T21:00:00	8	Radiación solar	0
74905	7	Sololá	704	Santa Lucía Utatlán 	7	Santa Rita 	2	Febrero	2023-05-02T00:00:00	2024-11-08T22:00:00	2	Temperatura media	16.7
74906	7	Sololá	704	Santa Lucía Utatlán 	7	Santa Rita 	2	Febrero	2023-05-02T00:00:00	2024-11-08T22:00:00	4	Temperatura máxima	16.9
74907	7	Sololá	704	Santa Lucía Utatlán 	7	Santa Rita 	2	Febrero	2023-05-02T00:00:00	2024-11-08T22:00:00	3	Temperatura mínima	16.6
74908	7	Sololá	704	Santa Lucía Utatlán 	7	Santa Rita 	2	Febrero	2023-05-02T00:00:00	2024-11-08T22:00:00	5	Humedad	63
74909	7	Sololá	704	Santa Lucía Utatlán 	7	Santa Rita 	2	Febrero	2023-05-02T00:00:00	2024-11-08T22:00:00	6	Velocidad del viento	9.7
74910	7	Sololá	704	Santa Lucía Utatlán 	7	Santa Rita 	2	Febrero	2023-05-02T00:00:00	2024-11-08T22:00:00	7	Dirección del viento	9.66
74911	7	Sololá	704	Santa Lucía Utatlán 	7	Santa Rita 	2	Febrero	2023-05-02T00:00:00	2024-11-08T22:00:00	1	Precipitación	0
74912	7	Sololá	704	Santa Lucía Utatlán 	7	Santa Rita 	2	Febrero	2023-05-02T00:00:00	2024-11-08T22:00:00	8	Radiación solar	0
74913	7	Sololá	704	Santa Lucía Utatlán 	7	Santa Rita 	2	Febrero	2023-05-02T00:00:00	2024-11-08T23:00:00	2	Temperatura media	16.5
74914	7	Sololá	704	Santa Lucía Utatlán 	7	Santa Rita 	2	Febrero	2023-05-02T00:00:00	2024-11-08T23:00:00	4	Temperatura máxima	17
74915	7	Sololá	704	Santa Lucía Utatlán 	7	Santa Rita 	2	Febrero	2023-05-02T00:00:00	2024-11-08T23:00:00	3	Temperatura mínima	16.4
74916	7	Sololá	704	Santa Lucía Utatlán 	7	Santa Rita 	2	Febrero	2023-05-02T00:00:00	2024-11-08T23:00:00	5	Humedad	59
74917	7	Sololá	704	Santa Lucía Utatlán 	7	Santa Rita 	2	Febrero	2023-05-02T00:00:00	2024-11-08T23:00:00	6	Velocidad del viento	9.7
74918	7	Sololá	704	Santa Lucía Utatlán 	7	Santa Rita 	2	Febrero	2023-05-02T00:00:00	2024-11-08T23:00:00	7	Dirección del viento	9.66
74919	7	Sololá	704	Santa Lucía Utatlán 	7	Santa Rita 	2	Febrero	2023-05-02T00:00:00	2024-11-08T23:00:00	1	Precipitación	0
74920	7	Sololá	704	Santa Lucía Utatlán 	7	Santa Rita 	2	Febrero	2023-05-02T00:00:00	2024-11-08T23:00:00	8	Radiación solar	0
74921	7	Sololá	704	Santa Lucía Utatlán 	7	Santa Rita 	2	Febrero	2023-06-02T00:00:00	2024-11-08T00:00:00	2	Temperatura media	16.6
74922	7	Sololá	704	Santa Lucía Utatlán 	7	Santa Rita 	2	Febrero	2023-06-02T00:00:00	2024-11-08T00:00:00	4	Temperatura máxima	16.6
74923	7	Sololá	704	Santa Lucía Utatlán 	7	Santa Rita 	2	Febrero	2023-06-02T00:00:00	2024-11-08T00:00:00	3	Temperatura mínima	16.3
74924	7	Sololá	704	Santa Lucía Utatlán 	7	Santa Rita 	2	Febrero	2023-06-02T00:00:00	2024-11-08T00:00:00	5	Humedad	61
74925	7	Sololá	704	Santa Lucía Utatlán 	7	Santa Rita 	2	Febrero	2023-06-02T00:00:00	2024-11-08T00:00:00	6	Velocidad del viento	9.7
74926	7	Sololá	704	Santa Lucía Utatlán 	7	Santa Rita 	2	Febrero	2023-06-02T00:00:00	2024-11-08T00:00:00	7	Dirección del viento	9.66
74927	7	Sololá	704	Santa Lucía Utatlán 	7	Santa Rita 	2	Febrero	2023-06-02T00:00:00	2024-11-08T00:00:00	1	Precipitación	0
74928	7	Sololá	704	Santa Lucía Utatlán 	7	Santa Rita 	2	Febrero	2023-06-02T00:00:00	2024-11-08T00:00:00	8	Radiación solar	0
74929	7	Sololá	704	Santa Lucía Utatlán 	7	Santa Rita 	2	Febrero	2023-06-02T00:00:00	2024-11-08T01:00:00	2	Temperatura media	16.2
74930	7	Sololá	704	Santa Lucía Utatlán 	7	Santa Rita 	2	Febrero	2023-06-02T00:00:00	2024-11-08T01:00:00	4	Temperatura máxima	16.6
74931	7	Sololá	704	Santa Lucía Utatlán 	7	Santa Rita 	2	Febrero	2023-06-02T00:00:00	2024-11-08T01:00:00	3	Temperatura mínima	16.2
74932	7	Sololá	704	Santa Lucía Utatlán 	7	Santa Rita 	2	Febrero	2023-06-02T00:00:00	2024-11-08T01:00:00	5	Humedad	62
74933	7	Sololá	704	Santa Lucía Utatlán 	7	Santa Rita 	2	Febrero	2023-06-02T00:00:00	2024-11-08T01:00:00	6	Velocidad del viento	4.8
74934	7	Sololá	704	Santa Lucía Utatlán 	7	Santa Rita 	2	Febrero	2023-06-02T00:00:00	2024-11-08T01:00:00	7	Dirección del viento	4.83
74935	7	Sololá	704	Santa Lucía Utatlán 	7	Santa Rita 	2	Febrero	2023-06-02T00:00:00	2024-11-08T01:00:00	1	Precipitación	0
74936	7	Sololá	704	Santa Lucía Utatlán 	7	Santa Rita 	2	Febrero	2023-06-02T00:00:00	2024-11-08T01:00:00	8	Radiación solar	0
74937	7	Sololá	704	Santa Lucía Utatlán 	7	Santa Rita 	2	Febrero	2023-06-02T00:00:00	2024-11-08T02:00:00	2	Temperatura media	16.3
74938	7	Sololá	704	Santa Lucía Utatlán 	7	Santa Rita 	2	Febrero	2023-06-02T00:00:00	2024-11-08T02:00:00	4	Temperatura máxima	16.3
74939	7	Sololá	704	Santa Lucía Utatlán 	7	Santa Rita 	2	Febrero	2023-06-02T00:00:00	2024-11-08T02:00:00	3	Temperatura mínima	15.9
74940	7	Sololá	704	Santa Lucía Utatlán 	7	Santa Rita 	2	Febrero	2023-06-02T00:00:00	2024-11-08T02:00:00	5	Humedad	64
74941	7	Sololá	704	Santa Lucía Utatlán 	7	Santa Rita 	2	Febrero	2023-06-02T00:00:00	2024-11-08T02:00:00	6	Velocidad del viento	6.4
74942	7	Sololá	704	Santa Lucía Utatlán 	7	Santa Rita 	2	Febrero	2023-06-02T00:00:00	2024-11-08T02:00:00	7	Dirección del viento	6.44
74943	7	Sololá	704	Santa Lucía Utatlán 	7	Santa Rita 	2	Febrero	2023-06-02T00:00:00	2024-11-08T02:00:00	1	Precipitación	0
74944	7	Sololá	704	Santa Lucía Utatlán 	7	Santa Rita 	2	Febrero	2023-06-02T00:00:00	2024-11-08T02:00:00	8	Radiación solar	0
74945	7	Sololá	704	Santa Lucía Utatlán 	7	Santa Rita 	2	Febrero	2023-06-02T00:00:00	2024-11-08T03:00:00	2	Temperatura media	16.6
74946	7	Sololá	704	Santa Lucía Utatlán 	7	Santa Rita 	2	Febrero	2023-06-02T00:00:00	2024-11-08T03:00:00	4	Temperatura máxima	16.6
74947	7	Sololá	704	Santa Lucía Utatlán 	7	Santa Rita 	2	Febrero	2023-06-02T00:00:00	2024-11-08T03:00:00	3	Temperatura mínima	16.2
74948	7	Sololá	704	Santa Lucía Utatlán 	7	Santa Rita 	2	Febrero	2023-06-02T00:00:00	2024-11-08T03:00:00	5	Humedad	65
74949	7	Sololá	704	Santa Lucía Utatlán 	7	Santa Rita 	2	Febrero	2023-06-02T00:00:00	2024-11-08T03:00:00	6	Velocidad del viento	9.7
74950	7	Sololá	704	Santa Lucía Utatlán 	7	Santa Rita 	2	Febrero	2023-06-02T00:00:00	2024-11-08T03:00:00	7	Dirección del viento	9.66
74951	7	Sololá	704	Santa Lucía Utatlán 	7	Santa Rita 	2	Febrero	2023-06-02T00:00:00	2024-11-08T03:00:00	1	Precipitación	0
74952	7	Sololá	704	Santa Lucía Utatlán 	7	Santa Rita 	2	Febrero	2023-06-02T00:00:00	2024-11-08T03:00:00	8	Radiación solar	0
74953	7	Sololá	704	Santa Lucía Utatlán 	7	Santa Rita 	2	Febrero	2023-06-02T00:00:00	2024-11-08T04:00:00	2	Temperatura media	16.4
74954	7	Sololá	704	Santa Lucía Utatlán 	7	Santa Rita 	2	Febrero	2023-06-02T00:00:00	2024-11-08T04:00:00	4	Temperatura máxima	16.8
74955	7	Sololá	704	Santa Lucía Utatlán 	7	Santa Rita 	2	Febrero	2023-06-02T00:00:00	2024-11-08T04:00:00	3	Temperatura mínima	16.4
74956	7	Sololá	704	Santa Lucía Utatlán 	7	Santa Rita 	2	Febrero	2023-06-02T00:00:00	2024-11-08T04:00:00	5	Humedad	67
74957	7	Sololá	704	Santa Lucía Utatlán 	7	Santa Rita 	2	Febrero	2023-06-02T00:00:00	2024-11-08T04:00:00	6	Velocidad del viento	9.7
74958	7	Sololá	704	Santa Lucía Utatlán 	7	Santa Rita 	2	Febrero	2023-06-02T00:00:00	2024-11-08T04:00:00	7	Dirección del viento	9.66
74959	7	Sololá	704	Santa Lucía Utatlán 	7	Santa Rita 	2	Febrero	2023-06-02T00:00:00	2024-11-08T04:00:00	1	Precipitación	0
74960	7	Sololá	704	Santa Lucía Utatlán 	7	Santa Rita 	2	Febrero	2023-06-02T00:00:00	2024-11-08T04:00:00	8	Radiación solar	0
74961	7	Sololá	704	Santa Lucía Utatlán 	7	Santa Rita 	2	Febrero	2023-06-02T00:00:00	2024-11-08T05:00:00	2	Temperatura media	16.1
74962	7	Sololá	704	Santa Lucía Utatlán 	7	Santa Rita 	2	Febrero	2023-06-02T00:00:00	2024-11-08T05:00:00	4	Temperatura máxima	16.6
74963	7	Sololá	704	Santa Lucía Utatlán 	7	Santa Rita 	2	Febrero	2023-06-02T00:00:00	2024-11-08T05:00:00	3	Temperatura mínima	16.1
74964	7	Sololá	704	Santa Lucía Utatlán 	7	Santa Rita 	2	Febrero	2023-06-02T00:00:00	2024-11-08T05:00:00	5	Humedad	65
74965	7	Sololá	704	Santa Lucía Utatlán 	7	Santa Rita 	2	Febrero	2023-06-02T00:00:00	2024-11-08T05:00:00	6	Velocidad del viento	14.5
74966	7	Sololá	704	Santa Lucía Utatlán 	7	Santa Rita 	2	Febrero	2023-06-02T00:00:00	2024-11-08T05:00:00	7	Dirección del viento	14.48
74967	7	Sololá	704	Santa Lucía Utatlán 	7	Santa Rita 	2	Febrero	2023-06-02T00:00:00	2024-11-08T05:00:00	1	Precipitación	0
74968	7	Sololá	704	Santa Lucía Utatlán 	7	Santa Rita 	2	Febrero	2023-06-02T00:00:00	2024-11-08T05:00:00	8	Radiación solar	0
74969	7	Sololá	704	Santa Lucía Utatlán 	7	Santa Rita 	2	Febrero	2023-06-02T00:00:00	2024-11-08T06:00:00	2	Temperatura media	16.3
74970	7	Sololá	704	Santa Lucía Utatlán 	7	Santa Rita 	2	Febrero	2023-06-02T00:00:00	2024-11-08T06:00:00	4	Temperatura máxima	16.3
74971	7	Sololá	704	Santa Lucía Utatlán 	7	Santa Rita 	2	Febrero	2023-06-02T00:00:00	2024-11-08T06:00:00	3	Temperatura mínima	15.9
74972	7	Sololá	704	Santa Lucía Utatlán 	7	Santa Rita 	2	Febrero	2023-06-02T00:00:00	2024-11-08T06:00:00	5	Humedad	61
74973	7	Sololá	704	Santa Lucía Utatlán 	7	Santa Rita 	2	Febrero	2023-06-02T00:00:00	2024-11-08T06:00:00	6	Velocidad del viento	14.5
74974	7	Sololá	704	Santa Lucía Utatlán 	7	Santa Rita 	2	Febrero	2023-06-02T00:00:00	2024-11-08T06:00:00	7	Dirección del viento	14.48
74975	7	Sololá	704	Santa Lucía Utatlán 	7	Santa Rita 	2	Febrero	2023-06-02T00:00:00	2024-11-08T06:00:00	1	Precipitación	0
74976	7	Sololá	704	Santa Lucía Utatlán 	7	Santa Rita 	2	Febrero	2023-06-02T00:00:00	2024-11-08T06:00:00	8	Radiación solar	0
74977	7	Sololá	704	Santa Lucía Utatlán 	7	Santa Rita 	2	Febrero	2023-06-02T00:00:00	2024-11-08T07:00:00	2	Temperatura media	16.5
74978	7	Sololá	704	Santa Lucía Utatlán 	7	Santa Rita 	2	Febrero	2023-06-02T00:00:00	2024-11-08T07:00:00	4	Temperatura máxima	16.5
74979	7	Sololá	704	Santa Lucía Utatlán 	7	Santa Rita 	2	Febrero	2023-06-02T00:00:00	2024-11-08T07:00:00	3	Temperatura mínima	16.1
74980	7	Sololá	704	Santa Lucía Utatlán 	7	Santa Rita 	2	Febrero	2023-06-02T00:00:00	2024-11-08T07:00:00	5	Humedad	44
74981	7	Sololá	704	Santa Lucía Utatlán 	7	Santa Rita 	2	Febrero	2023-06-02T00:00:00	2024-11-08T07:00:00	6	Velocidad del viento	14.5
74982	7	Sololá	704	Santa Lucía Utatlán 	7	Santa Rita 	2	Febrero	2023-06-02T00:00:00	2024-11-08T07:00:00	7	Dirección del viento	14.48
74983	7	Sololá	704	Santa Lucía Utatlán 	7	Santa Rita 	2	Febrero	2023-06-02T00:00:00	2024-11-08T07:00:00	1	Precipitación	0
74984	7	Sololá	704	Santa Lucía Utatlán 	7	Santa Rita 	2	Febrero	2023-06-02T00:00:00	2024-11-08T07:00:00	8	Radiación solar	5
74985	7	Sololá	704	Santa Lucía Utatlán 	7	Santa Rita 	2	Febrero	2023-06-02T00:00:00	2024-11-08T08:00:00	2	Temperatura media	18.5
74986	7	Sololá	704	Santa Lucía Utatlán 	7	Santa Rita 	2	Febrero	2023-06-02T00:00:00	2024-11-08T08:00:00	4	Temperatura máxima	18.7
74987	7	Sololá	704	Santa Lucía Utatlán 	7	Santa Rita 	2	Febrero	2023-06-02T00:00:00	2024-11-08T08:00:00	3	Temperatura mínima	16.5
74988	7	Sololá	704	Santa Lucía Utatlán 	7	Santa Rita 	2	Febrero	2023-06-02T00:00:00	2024-11-08T08:00:00	5	Humedad	49
74989	7	Sololá	704	Santa Lucía Utatlán 	7	Santa Rita 	2	Febrero	2023-06-02T00:00:00	2024-11-08T08:00:00	6	Velocidad del viento	11.3
74990	7	Sololá	704	Santa Lucía Utatlán 	7	Santa Rita 	2	Febrero	2023-06-02T00:00:00	2024-11-08T08:00:00	7	Dirección del viento	11.27
74991	7	Sololá	704	Santa Lucía Utatlán 	7	Santa Rita 	2	Febrero	2023-06-02T00:00:00	2024-11-08T08:00:00	1	Precipitación	0
74992	7	Sololá	704	Santa Lucía Utatlán 	7	Santa Rita 	2	Febrero	2023-06-02T00:00:00	2024-11-08T08:00:00	8	Radiación solar	155
74993	7	Sololá	704	Santa Lucía Utatlán 	7	Santa Rita 	2	Febrero	2023-06-02T00:00:00	2024-11-08T09:00:00	2	Temperatura media	20.2
74994	7	Sololá	704	Santa Lucía Utatlán 	7	Santa Rita 	2	Febrero	2023-06-02T00:00:00	2024-11-08T09:00:00	4	Temperatura máxima	20.2
74995	7	Sololá	704	Santa Lucía Utatlán 	7	Santa Rita 	2	Febrero	2023-06-02T00:00:00	2024-11-08T09:00:00	3	Temperatura mínima	18.4
74996	7	Sololá	704	Santa Lucía Utatlán 	7	Santa Rita 	2	Febrero	2023-06-02T00:00:00	2024-11-08T09:00:00	5	Humedad	46
74997	7	Sololá	704	Santa Lucía Utatlán 	7	Santa Rita 	2	Febrero	2023-06-02T00:00:00	2024-11-08T09:00:00	6	Velocidad del viento	9.7
74998	7	Sololá	704	Santa Lucía Utatlán 	7	Santa Rita 	2	Febrero	2023-06-02T00:00:00	2024-11-08T09:00:00	7	Dirección del viento	9.66
74999	7	Sololá	704	Santa Lucía Utatlán 	7	Santa Rita 	2	Febrero	2023-06-02T00:00:00	2024-11-08T09:00:00	1	Precipitación	0
75000	7	Sololá	704	Santa Lucía Utatlán 	7	Santa Rita 	2	Febrero	2023-06-02T00:00:00	2024-11-08T09:00:00	8	Radiación solar	402
75001	7	Sololá	704	Santa Lucía Utatlán 	7	Santa Rita 	2	Febrero	2023-06-02T00:00:00	2024-11-08T10:00:00	2	Temperatura media	22.7
75002	7	Sololá	704	Santa Lucía Utatlán 	7	Santa Rita 	2	Febrero	2023-06-02T00:00:00	2024-11-08T10:00:00	4	Temperatura máxima	22.8
75003	7	Sololá	704	Santa Lucía Utatlán 	7	Santa Rita 	2	Febrero	2023-06-02T00:00:00	2024-11-08T10:00:00	3	Temperatura mínima	20.3
75004	7	Sololá	704	Santa Lucía Utatlán 	7	Santa Rita 	2	Febrero	2023-06-02T00:00:00	2024-11-08T10:00:00	5	Humedad	33
75005	7	Sololá	704	Santa Lucía Utatlán 	7	Santa Rita 	2	Febrero	2023-06-02T00:00:00	2024-11-08T10:00:00	6	Velocidad del viento	4.8
75006	7	Sololá	704	Santa Lucía Utatlán 	7	Santa Rita 	2	Febrero	2023-06-02T00:00:00	2024-11-08T10:00:00	7	Dirección del viento	4.83
75007	7	Sololá	704	Santa Lucía Utatlán 	7	Santa Rita 	2	Febrero	2023-06-02T00:00:00	2024-11-08T10:00:00	1	Precipitación	0
75008	7	Sololá	704	Santa Lucía Utatlán 	7	Santa Rita 	2	Febrero	2023-06-02T00:00:00	2024-11-08T10:00:00	8	Radiación solar	607
75009	7	Sololá	704	Santa Lucía Utatlán 	7	Santa Rita 	2	Febrero	2023-06-02T00:00:00	2024-11-08T11:00:00	2	Temperatura media	23.6
75010	7	Sololá	704	Santa Lucía Utatlán 	7	Santa Rita 	2	Febrero	2023-06-02T00:00:00	2024-11-08T11:00:00	4	Temperatura máxima	23.6
75011	7	Sololá	704	Santa Lucía Utatlán 	7	Santa Rita 	2	Febrero	2023-06-02T00:00:00	2024-11-08T11:00:00	3	Temperatura mínima	22.7
75012	7	Sololá	704	Santa Lucía Utatlán 	7	Santa Rita 	2	Febrero	2023-06-02T00:00:00	2024-11-08T11:00:00	5	Humedad	37
75013	7	Sololá	704	Santa Lucía Utatlán 	7	Santa Rita 	2	Febrero	2023-06-02T00:00:00	2024-11-08T11:00:00	6	Velocidad del viento	8
75014	7	Sololá	704	Santa Lucía Utatlán 	7	Santa Rita 	2	Febrero	2023-06-02T00:00:00	2024-11-08T11:00:00	7	Dirección del viento	8.05
75015	7	Sololá	704	Santa Lucía Utatlán 	7	Santa Rita 	2	Febrero	2023-06-02T00:00:00	2024-11-08T11:00:00	1	Precipitación	0
75016	7	Sololá	704	Santa Lucía Utatlán 	7	Santa Rita 	2	Febrero	2023-06-02T00:00:00	2024-11-08T11:00:00	8	Radiación solar	759
75017	7	Sololá	704	Santa Lucía Utatlán 	7	Santa Rita 	2	Febrero	2023-06-02T00:00:00	2024-11-08T12:00:00	2	Temperatura media	23.5
75018	7	Sololá	704	Santa Lucía Utatlán 	7	Santa Rita 	2	Febrero	2023-06-02T00:00:00	2024-11-08T12:00:00	4	Temperatura máxima	23.7
75019	7	Sololá	704	Santa Lucía Utatlán 	7	Santa Rita 	2	Febrero	2023-06-02T00:00:00	2024-11-08T12:00:00	3	Temperatura mínima	23.1
75020	7	Sololá	704	Santa Lucía Utatlán 	7	Santa Rita 	2	Febrero	2023-06-02T00:00:00	2024-11-08T12:00:00	5	Humedad	29
75021	7	Sololá	704	Santa Lucía Utatlán 	7	Santa Rita 	2	Febrero	2023-06-02T00:00:00	2024-11-08T12:00:00	6	Velocidad del viento	9.7
75022	7	Sololá	704	Santa Lucía Utatlán 	7	Santa Rita 	2	Febrero	2023-06-02T00:00:00	2024-11-08T12:00:00	7	Dirección del viento	9.66
75023	7	Sololá	704	Santa Lucía Utatlán 	7	Santa Rita 	2	Febrero	2023-06-02T00:00:00	2024-11-08T12:00:00	1	Precipitación	0
75024	7	Sololá	704	Santa Lucía Utatlán 	7	Santa Rita 	2	Febrero	2023-06-02T00:00:00	2024-11-08T12:00:00	8	Radiación solar	856
75025	7	Sololá	704	Santa Lucía Utatlán 	7	Santa Rita 	2	Febrero	2023-06-02T00:00:00	2024-11-08T13:00:00	2	Temperatura media	23.2
75026	7	Sololá	704	Santa Lucía Utatlán 	7	Santa Rita 	2	Febrero	2023-06-02T00:00:00	2024-11-08T13:00:00	4	Temperatura máxima	23.6
75027	7	Sololá	704	Santa Lucía Utatlán 	7	Santa Rita 	2	Febrero	2023-06-02T00:00:00	2024-11-08T13:00:00	3	Temperatura mínima	22.5
75028	7	Sololá	704	Santa Lucía Utatlán 	7	Santa Rita 	2	Febrero	2023-06-02T00:00:00	2024-11-08T13:00:00	5	Humedad	40
75029	7	Sololá	704	Santa Lucía Utatlán 	7	Santa Rita 	2	Febrero	2023-06-02T00:00:00	2024-11-08T13:00:00	6	Velocidad del viento	11.3
75030	7	Sololá	704	Santa Lucía Utatlán 	7	Santa Rita 	2	Febrero	2023-06-02T00:00:00	2024-11-08T13:00:00	7	Dirección del viento	11.27
75031	7	Sololá	704	Santa Lucía Utatlán 	7	Santa Rita 	2	Febrero	2023-06-02T00:00:00	2024-11-08T13:00:00	1	Precipitación	0
75032	7	Sololá	704	Santa Lucía Utatlán 	7	Santa Rita 	2	Febrero	2023-06-02T00:00:00	2024-11-08T13:00:00	8	Radiación solar	883
75033	7	Sololá	704	Santa Lucía Utatlán 	7	Santa Rita 	2	Febrero	2023-06-02T00:00:00	2024-11-08T14:00:00	2	Temperatura media	23.2
75034	7	Sololá	704	Santa Lucía Utatlán 	7	Santa Rita 	2	Febrero	2023-06-02T00:00:00	2024-11-08T14:00:00	4	Temperatura máxima	23.3
75035	7	Sololá	704	Santa Lucía Utatlán 	7	Santa Rita 	2	Febrero	2023-06-02T00:00:00	2024-11-08T14:00:00	3	Temperatura mínima	22.7
75036	7	Sololá	704	Santa Lucía Utatlán 	7	Santa Rita 	2	Febrero	2023-06-02T00:00:00	2024-11-08T14:00:00	5	Humedad	44
75037	7	Sololá	704	Santa Lucía Utatlán 	7	Santa Rita 	2	Febrero	2023-06-02T00:00:00	2024-11-08T14:00:00	6	Velocidad del viento	9.7
75038	7	Sololá	704	Santa Lucía Utatlán 	7	Santa Rita 	2	Febrero	2023-06-02T00:00:00	2024-11-08T14:00:00	7	Dirección del viento	9.66
75039	7	Sololá	704	Santa Lucía Utatlán 	7	Santa Rita 	2	Febrero	2023-06-02T00:00:00	2024-11-08T14:00:00	1	Precipitación	0
75040	7	Sololá	704	Santa Lucía Utatlán 	7	Santa Rita 	2	Febrero	2023-06-02T00:00:00	2024-11-08T14:00:00	8	Radiación solar	834
75041	7	Sololá	704	Santa Lucía Utatlán 	7	Santa Rita 	2	Febrero	2023-06-02T00:00:00	2024-11-08T15:00:00	2	Temperatura media	23.3
75042	7	Sololá	704	Santa Lucía Utatlán 	7	Santa Rita 	2	Febrero	2023-06-02T00:00:00	2024-11-08T15:00:00	4	Temperatura máxima	23.3
75043	7	Sololá	704	Santa Lucía Utatlán 	7	Santa Rita 	2	Febrero	2023-06-02T00:00:00	2024-11-08T15:00:00	3	Temperatura mínima	22.4
75044	7	Sololá	704	Santa Lucía Utatlán 	7	Santa Rita 	2	Febrero	2023-06-02T00:00:00	2024-11-08T15:00:00	5	Humedad	45
75045	7	Sololá	704	Santa Lucía Utatlán 	7	Santa Rita 	2	Febrero	2023-06-02T00:00:00	2024-11-08T15:00:00	6	Velocidad del viento	9.7
75046	7	Sololá	704	Santa Lucía Utatlán 	7	Santa Rita 	2	Febrero	2023-06-02T00:00:00	2024-11-08T15:00:00	7	Dirección del viento	9.66
75047	7	Sololá	704	Santa Lucía Utatlán 	7	Santa Rita 	2	Febrero	2023-06-02T00:00:00	2024-11-08T15:00:00	1	Precipitación	0
75048	7	Sololá	704	Santa Lucía Utatlán 	7	Santa Rita 	2	Febrero	2023-06-02T00:00:00	2024-11-08T15:00:00	8	Radiación solar	727
75049	7	Sololá	704	Santa Lucía Utatlán 	7	Santa Rita 	2	Febrero	2023-06-02T00:00:00	2024-11-08T16:00:00	2	Temperatura media	22.4
75050	7	Sololá	704	Santa Lucía Utatlán 	7	Santa Rita 	2	Febrero	2023-06-02T00:00:00	2024-11-08T16:00:00	4	Temperatura máxima	23.3
75051	7	Sololá	704	Santa Lucía Utatlán 	7	Santa Rita 	2	Febrero	2023-06-02T00:00:00	2024-11-08T16:00:00	3	Temperatura mínima	22.2
75052	7	Sololá	704	Santa Lucía Utatlán 	7	Santa Rita 	2	Febrero	2023-06-02T00:00:00	2024-11-08T16:00:00	5	Humedad	49
75053	7	Sololá	704	Santa Lucía Utatlán 	7	Santa Rita 	2	Febrero	2023-06-02T00:00:00	2024-11-08T16:00:00	6	Velocidad del viento	9.7
75054	7	Sololá	704	Santa Lucía Utatlán 	7	Santa Rita 	2	Febrero	2023-06-02T00:00:00	2024-11-08T16:00:00	7	Dirección del viento	9.66
75055	7	Sololá	704	Santa Lucía Utatlán 	7	Santa Rita 	2	Febrero	2023-06-02T00:00:00	2024-11-08T16:00:00	1	Precipitación	0
75056	7	Sololá	704	Santa Lucía Utatlán 	7	Santa Rita 	2	Febrero	2023-06-02T00:00:00	2024-11-08T16:00:00	8	Radiación solar	443
75057	7	Sololá	704	Santa Lucía Utatlán 	7	Santa Rita 	2	Febrero	2023-06-02T00:00:00	2024-11-08T17:00:00	2	Temperatura media	21.3
75058	7	Sololá	704	Santa Lucía Utatlán 	7	Santa Rita 	2	Febrero	2023-06-02T00:00:00	2024-11-08T17:00:00	4	Temperatura máxima	22.6
75059	7	Sololá	704	Santa Lucía Utatlán 	7	Santa Rita 	2	Febrero	2023-06-02T00:00:00	2024-11-08T17:00:00	3	Temperatura mínima	21.1
75060	7	Sololá	704	Santa Lucía Utatlán 	7	Santa Rita 	2	Febrero	2023-06-02T00:00:00	2024-11-08T17:00:00	5	Humedad	54
75061	7	Sololá	704	Santa Lucía Utatlán 	7	Santa Rita 	2	Febrero	2023-06-02T00:00:00	2024-11-08T17:00:00	6	Velocidad del viento	6.4
75062	7	Sololá	704	Santa Lucía Utatlán 	7	Santa Rita 	2	Febrero	2023-06-02T00:00:00	2024-11-08T17:00:00	7	Dirección del viento	6.44
75063	7	Sololá	704	Santa Lucía Utatlán 	7	Santa Rita 	2	Febrero	2023-06-02T00:00:00	2024-11-08T17:00:00	1	Precipitación	0
75064	7	Sololá	704	Santa Lucía Utatlán 	7	Santa Rita 	2	Febrero	2023-06-02T00:00:00	2024-11-08T17:00:00	8	Radiación solar	207
75065	7	Sololá	704	Santa Lucía Utatlán 	7	Santa Rita 	2	Febrero	2023-06-02T00:00:00	2024-11-08T18:00:00	2	Temperatura media	18.8
75066	7	Sololá	704	Santa Lucía Utatlán 	7	Santa Rita 	2	Febrero	2023-06-02T00:00:00	2024-11-08T18:00:00	4	Temperatura máxima	21.3
75067	7	Sololá	704	Santa Lucía Utatlán 	7	Santa Rita 	2	Febrero	2023-06-02T00:00:00	2024-11-08T18:00:00	3	Temperatura mínima	18.8
75068	7	Sololá	704	Santa Lucía Utatlán 	7	Santa Rita 	2	Febrero	2023-06-02T00:00:00	2024-11-08T18:00:00	5	Humedad	63
75069	7	Sololá	704	Santa Lucía Utatlán 	7	Santa Rita 	2	Febrero	2023-06-02T00:00:00	2024-11-08T18:00:00	6	Velocidad del viento	3.2
75070	7	Sololá	704	Santa Lucía Utatlán 	7	Santa Rita 	2	Febrero	2023-06-02T00:00:00	2024-11-08T18:00:00	7	Dirección del viento	3.22
75071	7	Sololá	704	Santa Lucía Utatlán 	7	Santa Rita 	2	Febrero	2023-06-02T00:00:00	2024-11-08T18:00:00	1	Precipitación	0
75072	7	Sololá	704	Santa Lucía Utatlán 	7	Santa Rita 	2	Febrero	2023-06-02T00:00:00	2024-11-08T18:00:00	8	Radiación solar	18
75073	7	Sololá	704	Santa Lucía Utatlán 	7	Santa Rita 	2	Febrero	2023-06-02T00:00:00	2024-11-08T19:00:00	2	Temperatura media	17.6
75074	7	Sololá	704	Santa Lucía Utatlán 	7	Santa Rita 	2	Febrero	2023-06-02T00:00:00	2024-11-08T19:00:00	4	Temperatura máxima	18.8
75075	7	Sololá	704	Santa Lucía Utatlán 	7	Santa Rita 	2	Febrero	2023-06-02T00:00:00	2024-11-08T19:00:00	3	Temperatura mínima	17.6
75076	7	Sololá	704	Santa Lucía Utatlán 	7	Santa Rita 	2	Febrero	2023-06-02T00:00:00	2024-11-08T19:00:00	5	Humedad	60
75077	7	Sololá	704	Santa Lucía Utatlán 	7	Santa Rita 	2	Febrero	2023-06-02T00:00:00	2024-11-08T19:00:00	6	Velocidad del viento	8
75078	7	Sololá	704	Santa Lucía Utatlán 	7	Santa Rita 	2	Febrero	2023-06-02T00:00:00	2024-11-08T19:00:00	7	Dirección del viento	8.05
75079	7	Sololá	704	Santa Lucía Utatlán 	7	Santa Rita 	2	Febrero	2023-06-02T00:00:00	2024-11-08T19:00:00	1	Precipitación	0
75080	7	Sololá	704	Santa Lucía Utatlán 	7	Santa Rita 	2	Febrero	2023-06-02T00:00:00	2024-11-08T19:00:00	8	Radiación solar	0
75081	7	Sololá	704	Santa Lucía Utatlán 	7	Santa Rita 	2	Febrero	2023-06-02T00:00:00	2024-11-08T20:00:00	2	Temperatura media	17.1
75082	7	Sololá	704	Santa Lucía Utatlán 	7	Santa Rita 	2	Febrero	2023-06-02T00:00:00	2024-11-08T20:00:00	4	Temperatura máxima	17.6
75083	7	Sololá	704	Santa Lucía Utatlán 	7	Santa Rita 	2	Febrero	2023-06-02T00:00:00	2024-11-08T20:00:00	3	Temperatura mínima	16.8
75084	7	Sololá	704	Santa Lucía Utatlán 	7	Santa Rita 	2	Febrero	2023-06-02T00:00:00	2024-11-08T20:00:00	5	Humedad	59
75085	7	Sololá	704	Santa Lucía Utatlán 	7	Santa Rita 	2	Febrero	2023-06-02T00:00:00	2024-11-08T20:00:00	6	Velocidad del viento	6.4
75086	7	Sololá	704	Santa Lucía Utatlán 	7	Santa Rita 	2	Febrero	2023-06-02T00:00:00	2024-11-08T20:00:00	7	Dirección del viento	6.44
75087	7	Sololá	704	Santa Lucía Utatlán 	7	Santa Rita 	2	Febrero	2023-06-02T00:00:00	2024-11-08T20:00:00	1	Precipitación	0
75088	7	Sololá	704	Santa Lucía Utatlán 	7	Santa Rita 	2	Febrero	2023-06-02T00:00:00	2024-11-08T20:00:00	8	Radiación solar	0
75089	7	Sololá	704	Santa Lucía Utatlán 	7	Santa Rita 	2	Febrero	2023-06-02T00:00:00	2024-11-08T21:00:00	2	Temperatura media	13.7
75090	7	Sololá	704	Santa Lucía Utatlán 	7	Santa Rita 	2	Febrero	2023-06-02T00:00:00	2024-11-08T21:00:00	4	Temperatura máxima	17.2
75091	7	Sololá	704	Santa Lucía Utatlán 	7	Santa Rita 	2	Febrero	2023-06-02T00:00:00	2024-11-08T21:00:00	3	Temperatura mínima	13.7
75092	7	Sololá	704	Santa Lucía Utatlán 	7	Santa Rita 	2	Febrero	2023-06-02T00:00:00	2024-11-08T21:00:00	5	Humedad	66
75093	7	Sololá	704	Santa Lucía Utatlán 	7	Santa Rita 	2	Febrero	2023-06-02T00:00:00	2024-11-08T21:00:00	6	Velocidad del viento	3.2
75094	7	Sololá	704	Santa Lucía Utatlán 	7	Santa Rita 	2	Febrero	2023-06-02T00:00:00	2024-11-08T21:00:00	7	Dirección del viento	3.22
75095	7	Sololá	704	Santa Lucía Utatlán 	7	Santa Rita 	2	Febrero	2023-06-02T00:00:00	2024-11-08T21:00:00	1	Precipitación	0
75096	7	Sololá	704	Santa Lucía Utatlán 	7	Santa Rita 	2	Febrero	2023-06-02T00:00:00	2024-11-08T21:00:00	8	Radiación solar	0
75097	7	Sololá	704	Santa Lucía Utatlán 	7	Santa Rita 	2	Febrero	2023-06-02T00:00:00	2024-11-08T22:00:00	2	Temperatura media	12.8
75098	7	Sololá	704	Santa Lucía Utatlán 	7	Santa Rita 	2	Febrero	2023-06-02T00:00:00	2024-11-08T22:00:00	4	Temperatura máxima	13.7
75099	7	Sololá	704	Santa Lucía Utatlán 	7	Santa Rita 	2	Febrero	2023-06-02T00:00:00	2024-11-08T22:00:00	3	Temperatura mínima	12.7
75100	7	Sololá	704	Santa Lucía Utatlán 	7	Santa Rita 	2	Febrero	2023-06-02T00:00:00	2024-11-08T22:00:00	5	Humedad	67
75101	7	Sololá	704	Santa Lucía Utatlán 	7	Santa Rita 	2	Febrero	2023-06-02T00:00:00	2024-11-08T22:00:00	6	Velocidad del viento	3.2
75102	7	Sololá	704	Santa Lucía Utatlán 	7	Santa Rita 	2	Febrero	2023-06-02T00:00:00	2024-11-08T22:00:00	7	Dirección del viento	3.22
75103	7	Sololá	704	Santa Lucía Utatlán 	7	Santa Rita 	2	Febrero	2023-06-02T00:00:00	2024-11-08T22:00:00	1	Precipitación	0
75104	7	Sololá	704	Santa Lucía Utatlán 	7	Santa Rita 	2	Febrero	2023-06-02T00:00:00	2024-11-08T22:00:00	8	Radiación solar	0
75105	7	Sololá	704	Santa Lucía Utatlán 	7	Santa Rita 	2	Febrero	2023-06-02T00:00:00	2024-11-08T23:00:00	2	Temperatura media	12.6
75106	7	Sololá	704	Santa Lucía Utatlán 	7	Santa Rita 	2	Febrero	2023-06-02T00:00:00	2024-11-08T23:00:00	4	Temperatura máxima	12.9
75107	7	Sololá	704	Santa Lucía Utatlán 	7	Santa Rita 	2	Febrero	2023-06-02T00:00:00	2024-11-08T23:00:00	3	Temperatura mínima	12.4
75108	7	Sololá	704	Santa Lucía Utatlán 	7	Santa Rita 	2	Febrero	2023-06-02T00:00:00	2024-11-08T23:00:00	5	Humedad	63
75109	7	Sololá	704	Santa Lucía Utatlán 	7	Santa Rita 	2	Febrero	2023-06-02T00:00:00	2024-11-08T23:00:00	6	Velocidad del viento	3.2
75110	7	Sololá	704	Santa Lucía Utatlán 	7	Santa Rita 	2	Febrero	2023-06-02T00:00:00	2024-11-08T23:00:00	7	Dirección del viento	3.22
75111	7	Sololá	704	Santa Lucía Utatlán 	7	Santa Rita 	2	Febrero	2023-06-02T00:00:00	2024-11-08T23:00:00	1	Precipitación	0
75112	7	Sololá	704	Santa Lucía Utatlán 	7	Santa Rita 	2	Febrero	2023-06-02T00:00:00	2024-11-08T23:00:00	8	Radiación solar	0
75113	7	Sololá	704	Santa Lucía Utatlán 	7	Santa Rita 	2	Febrero	2023-07-02T00:00:00	2024-11-08T00:00:00	2	Temperatura media	12.6
75114	7	Sololá	704	Santa Lucía Utatlán 	7	Santa Rita 	2	Febrero	2023-07-02T00:00:00	2024-11-08T00:00:00	4	Temperatura máxima	12.6
75115	7	Sololá	704	Santa Lucía Utatlán 	7	Santa Rita 	2	Febrero	2023-07-02T00:00:00	2024-11-08T00:00:00	3	Temperatura mínima	12.3
75116	7	Sololá	704	Santa Lucía Utatlán 	7	Santa Rita 	2	Febrero	2023-07-02T00:00:00	2024-11-08T00:00:00	5	Humedad	62
75117	7	Sololá	704	Santa Lucía Utatlán 	7	Santa Rita 	2	Febrero	2023-07-02T00:00:00	2024-11-08T00:00:00	6	Velocidad del viento	4.8
75118	7	Sololá	704	Santa Lucía Utatlán 	7	Santa Rita 	2	Febrero	2023-07-02T00:00:00	2024-11-08T00:00:00	7	Dirección del viento	4.83
75119	7	Sololá	704	Santa Lucía Utatlán 	7	Santa Rita 	2	Febrero	2023-07-02T00:00:00	2024-11-08T00:00:00	1	Precipitación	0
75120	7	Sololá	704	Santa Lucía Utatlán 	7	Santa Rita 	2	Febrero	2023-07-02T00:00:00	2024-11-08T00:00:00	8	Radiación solar	0
75121	7	Sololá	704	Santa Lucía Utatlán 	7	Santa Rita 	2	Febrero	2023-07-02T00:00:00	2024-11-08T01:00:00	2	Temperatura media	12.1
75122	7	Sololá	704	Santa Lucía Utatlán 	7	Santa Rita 	2	Febrero	2023-07-02T00:00:00	2024-11-08T01:00:00	4	Temperatura máxima	12.6
75123	7	Sololá	704	Santa Lucía Utatlán 	7	Santa Rita 	2	Febrero	2023-07-02T00:00:00	2024-11-08T01:00:00	3	Temperatura mínima	11.9
75124	7	Sololá	704	Santa Lucía Utatlán 	7	Santa Rita 	2	Febrero	2023-07-02T00:00:00	2024-11-08T01:00:00	5	Humedad	63
75125	7	Sololá	704	Santa Lucía Utatlán 	7	Santa Rita 	2	Febrero	2023-07-02T00:00:00	2024-11-08T01:00:00	6	Velocidad del viento	3.2
75126	7	Sololá	704	Santa Lucía Utatlán 	7	Santa Rita 	2	Febrero	2023-07-02T00:00:00	2024-11-08T01:00:00	7	Dirección del viento	3.22
75127	7	Sololá	704	Santa Lucía Utatlán 	7	Santa Rita 	2	Febrero	2023-07-02T00:00:00	2024-11-08T01:00:00	1	Precipitación	0
75128	7	Sololá	704	Santa Lucía Utatlán 	7	Santa Rita 	2	Febrero	2023-07-02T00:00:00	2024-11-08T01:00:00	8	Radiación solar	0
75129	7	Sololá	704	Santa Lucía Utatlán 	7	Santa Rita 	2	Febrero	2023-07-02T00:00:00	2024-11-08T02:00:00	2	Temperatura media	12.1
75130	7	Sololá	704	Santa Lucía Utatlán 	7	Santa Rita 	2	Febrero	2023-07-02T00:00:00	2024-11-08T02:00:00	4	Temperatura máxima	12.3
75131	7	Sololá	704	Santa Lucía Utatlán 	7	Santa Rita 	2	Febrero	2023-07-02T00:00:00	2024-11-08T02:00:00	3	Temperatura mínima	11.9
75132	7	Sololá	704	Santa Lucía Utatlán 	7	Santa Rita 	2	Febrero	2023-07-02T00:00:00	2024-11-08T02:00:00	5	Humedad	62
75133	7	Sololá	704	Santa Lucía Utatlán 	7	Santa Rita 	2	Febrero	2023-07-02T00:00:00	2024-11-08T02:00:00	6	Velocidad del viento	3.2
75134	7	Sololá	704	Santa Lucía Utatlán 	7	Santa Rita 	2	Febrero	2023-07-02T00:00:00	2024-11-08T02:00:00	7	Dirección del viento	3.22
75135	7	Sololá	704	Santa Lucía Utatlán 	7	Santa Rita 	2	Febrero	2023-07-02T00:00:00	2024-11-08T02:00:00	1	Precipitación	0
75136	7	Sololá	704	Santa Lucía Utatlán 	7	Santa Rita 	2	Febrero	2023-07-02T00:00:00	2024-11-08T02:00:00	8	Radiación solar	0
75137	7	Sololá	704	Santa Lucía Utatlán 	7	Santa Rita 	2	Febrero	2023-07-02T00:00:00	2024-11-08T03:00:00	2	Temperatura media	12.1
75138	7	Sololá	704	Santa Lucía Utatlán 	7	Santa Rita 	2	Febrero	2023-07-02T00:00:00	2024-11-08T03:00:00	4	Temperatura máxima	12.6
75139	7	Sololá	704	Santa Lucía Utatlán 	7	Santa Rita 	2	Febrero	2023-07-02T00:00:00	2024-11-08T03:00:00	3	Temperatura mínima	12
75140	7	Sololá	704	Santa Lucía Utatlán 	7	Santa Rita 	2	Febrero	2023-07-02T00:00:00	2024-11-08T03:00:00	5	Humedad	63
75141	7	Sololá	704	Santa Lucía Utatlán 	7	Santa Rita 	2	Febrero	2023-07-02T00:00:00	2024-11-08T03:00:00	6	Velocidad del viento	3.2
75142	7	Sololá	704	Santa Lucía Utatlán 	7	Santa Rita 	2	Febrero	2023-07-02T00:00:00	2024-11-08T03:00:00	7	Dirección del viento	3.22
75143	7	Sololá	704	Santa Lucía Utatlán 	7	Santa Rita 	2	Febrero	2023-07-02T00:00:00	2024-11-08T03:00:00	1	Precipitación	0
75144	7	Sololá	704	Santa Lucía Utatlán 	7	Santa Rita 	2	Febrero	2023-07-02T00:00:00	2024-11-08T03:00:00	8	Radiación solar	0
75145	7	Sololá	704	Santa Lucía Utatlán 	7	Santa Rita 	2	Febrero	2023-07-02T00:00:00	2024-11-08T04:00:00	2	Temperatura media	12
75146	7	Sololá	704	Santa Lucía Utatlán 	7	Santa Rita 	2	Febrero	2023-07-02T00:00:00	2024-11-08T04:00:00	4	Temperatura máxima	12.2
75147	7	Sololá	704	Santa Lucía Utatlán 	7	Santa Rita 	2	Febrero	2023-07-02T00:00:00	2024-11-08T04:00:00	3	Temperatura mínima	11.7
75148	7	Sololá	704	Santa Lucía Utatlán 	7	Santa Rita 	2	Febrero	2023-07-02T00:00:00	2024-11-08T04:00:00	5	Humedad	64
75149	7	Sololá	704	Santa Lucía Utatlán 	7	Santa Rita 	2	Febrero	2023-07-02T00:00:00	2024-11-08T04:00:00	6	Velocidad del viento	3.2
75150	7	Sololá	704	Santa Lucía Utatlán 	7	Santa Rita 	2	Febrero	2023-07-02T00:00:00	2024-11-08T04:00:00	7	Dirección del viento	3.22
75151	7	Sololá	704	Santa Lucía Utatlán 	7	Santa Rita 	2	Febrero	2023-07-02T00:00:00	2024-11-08T04:00:00	1	Precipitación	0
75152	7	Sololá	704	Santa Lucía Utatlán 	7	Santa Rita 	2	Febrero	2023-07-02T00:00:00	2024-11-08T04:00:00	8	Radiación solar	0
75153	7	Sololá	704	Santa Lucía Utatlán 	7	Santa Rita 	2	Febrero	2023-07-02T00:00:00	2024-11-08T05:00:00	2	Temperatura media	11.2
75154	7	Sololá	704	Santa Lucía Utatlán 	7	Santa Rita 	2	Febrero	2023-07-02T00:00:00	2024-11-08T05:00:00	4	Temperatura máxima	12.1
75155	7	Sololá	704	Santa Lucía Utatlán 	7	Santa Rita 	2	Febrero	2023-07-02T00:00:00	2024-11-08T05:00:00	3	Temperatura mínima	11.1
75156	7	Sololá	704	Santa Lucía Utatlán 	7	Santa Rita 	2	Febrero	2023-07-02T00:00:00	2024-11-08T05:00:00	5	Humedad	65
75157	7	Sololá	704	Santa Lucía Utatlán 	7	Santa Rita 	2	Febrero	2023-07-02T00:00:00	2024-11-08T05:00:00	6	Velocidad del viento	3.2
75158	7	Sololá	704	Santa Lucía Utatlán 	7	Santa Rita 	2	Febrero	2023-07-02T00:00:00	2024-11-08T05:00:00	7	Dirección del viento	3.22
75159	7	Sololá	704	Santa Lucía Utatlán 	7	Santa Rita 	2	Febrero	2023-07-02T00:00:00	2024-11-08T05:00:00	1	Precipitación	0
75160	7	Sololá	704	Santa Lucía Utatlán 	7	Santa Rita 	2	Febrero	2023-07-02T00:00:00	2024-11-08T05:00:00	8	Radiación solar	0
75161	7	Sololá	704	Santa Lucía Utatlán 	7	Santa Rita 	2	Febrero	2023-07-02T00:00:00	2024-11-08T06:00:00	2	Temperatura media	12.4
75162	7	Sololá	704	Santa Lucía Utatlán 	7	Santa Rita 	2	Febrero	2023-07-02T00:00:00	2024-11-08T06:00:00	4	Temperatura máxima	12.4
75163	7	Sololá	704	Santa Lucía Utatlán 	7	Santa Rita 	2	Febrero	2023-07-02T00:00:00	2024-11-08T06:00:00	3	Temperatura mínima	11.2
75164	7	Sololá	704	Santa Lucía Utatlán 	7	Santa Rita 	2	Febrero	2023-07-02T00:00:00	2024-11-08T06:00:00	5	Humedad	51
75165	7	Sololá	704	Santa Lucía Utatlán 	7	Santa Rita 	2	Febrero	2023-07-02T00:00:00	2024-11-08T06:00:00	6	Velocidad del viento	4.8
75166	7	Sololá	704	Santa Lucía Utatlán 	7	Santa Rita 	2	Febrero	2023-07-02T00:00:00	2024-11-08T06:00:00	7	Dirección del viento	4.83
75167	7	Sololá	704	Santa Lucía Utatlán 	7	Santa Rita 	2	Febrero	2023-07-02T00:00:00	2024-11-08T06:00:00	1	Precipitación	0
75168	7	Sololá	704	Santa Lucía Utatlán 	7	Santa Rita 	2	Febrero	2023-07-02T00:00:00	2024-11-08T06:00:00	8	Radiación solar	0
75169	7	Sololá	704	Santa Lucía Utatlán 	7	Santa Rita 	2	Febrero	2023-07-02T00:00:00	2024-11-08T07:00:00	2	Temperatura media	12.9
75170	7	Sololá	704	Santa Lucía Utatlán 	7	Santa Rita 	2	Febrero	2023-07-02T00:00:00	2024-11-08T07:00:00	4	Temperatura máxima	12.9
75171	7	Sololá	704	Santa Lucía Utatlán 	7	Santa Rita 	2	Febrero	2023-07-02T00:00:00	2024-11-08T07:00:00	3	Temperatura mínima	12.3
75172	7	Sololá	704	Santa Lucía Utatlán 	7	Santa Rita 	2	Febrero	2023-07-02T00:00:00	2024-11-08T07:00:00	5	Humedad	48
75173	7	Sololá	704	Santa Lucía Utatlán 	7	Santa Rita 	2	Febrero	2023-07-02T00:00:00	2024-11-08T07:00:00	6	Velocidad del viento	3.2
75174	7	Sololá	704	Santa Lucía Utatlán 	7	Santa Rita 	2	Febrero	2023-07-02T00:00:00	2024-11-08T07:00:00	7	Dirección del viento	3.22
75175	7	Sololá	704	Santa Lucía Utatlán 	7	Santa Rita 	2	Febrero	2023-07-02T00:00:00	2024-11-08T07:00:00	1	Precipitación	0
75176	7	Sololá	704	Santa Lucía Utatlán 	7	Santa Rita 	2	Febrero	2023-07-02T00:00:00	2024-11-08T07:00:00	8	Radiación solar	5
75177	7	Sololá	704	Santa Lucía Utatlán 	7	Santa Rita 	2	Febrero	2023-07-02T00:00:00	2024-11-08T08:00:00	2	Temperatura media	17.8
75178	7	Sololá	704	Santa Lucía Utatlán 	7	Santa Rita 	2	Febrero	2023-07-02T00:00:00	2024-11-08T08:00:00	4	Temperatura máxima	17.8
75179	7	Sololá	704	Santa Lucía Utatlán 	7	Santa Rita 	2	Febrero	2023-07-02T00:00:00	2024-11-08T08:00:00	3	Temperatura mínima	12.9
75180	7	Sololá	704	Santa Lucía Utatlán 	7	Santa Rita 	2	Febrero	2023-07-02T00:00:00	2024-11-08T08:00:00	5	Humedad	42
75181	7	Sololá	704	Santa Lucía Utatlán 	7	Santa Rita 	2	Febrero	2023-07-02T00:00:00	2024-11-08T08:00:00	6	Velocidad del viento	0
75182	7	Sololá	704	Santa Lucía Utatlán 	7	Santa Rita 	2	Febrero	2023-07-02T00:00:00	2024-11-08T08:00:00	7	Dirección del viento	0
75183	7	Sololá	704	Santa Lucía Utatlán 	7	Santa Rita 	2	Febrero	2023-07-02T00:00:00	2024-11-08T08:00:00	1	Precipitación	0
75184	7	Sololá	704	Santa Lucía Utatlán 	7	Santa Rita 	2	Febrero	2023-07-02T00:00:00	2024-11-08T08:00:00	8	Radiación solar	154
75185	7	Sololá	704	Santa Lucía Utatlán 	7	Santa Rita 	2	Febrero	2023-07-02T00:00:00	2024-11-08T09:00:00	2	Temperatura media	21
75186	7	Sololá	704	Santa Lucía Utatlán 	7	Santa Rita 	2	Febrero	2023-07-02T00:00:00	2024-11-08T09:00:00	4	Temperatura máxima	21
75187	7	Sololá	704	Santa Lucía Utatlán 	7	Santa Rita 	2	Febrero	2023-07-02T00:00:00	2024-11-08T09:00:00	3	Temperatura mínima	17.8
75188	7	Sololá	704	Santa Lucía Utatlán 	7	Santa Rita 	2	Febrero	2023-07-02T00:00:00	2024-11-08T09:00:00	5	Humedad	34
75189	7	Sololá	704	Santa Lucía Utatlán 	7	Santa Rita 	2	Febrero	2023-07-02T00:00:00	2024-11-08T09:00:00	6	Velocidad del viento	3.2
75190	7	Sololá	704	Santa Lucía Utatlán 	7	Santa Rita 	2	Febrero	2023-07-02T00:00:00	2024-11-08T09:00:00	7	Dirección del viento	3.22
75191	7	Sololá	704	Santa Lucía Utatlán 	7	Santa Rita 	2	Febrero	2023-07-02T00:00:00	2024-11-08T09:00:00	1	Precipitación	0
75192	7	Sololá	704	Santa Lucía Utatlán 	7	Santa Rita 	2	Febrero	2023-07-02T00:00:00	2024-11-08T09:00:00	8	Radiación solar	404
75193	7	Sololá	704	Santa Lucía Utatlán 	7	Santa Rita 	2	Febrero	2023-07-02T00:00:00	2024-11-08T10:00:00	2	Temperatura media	23.2
75194	7	Sololá	704	Santa Lucía Utatlán 	7	Santa Rita 	2	Febrero	2023-07-02T00:00:00	2024-11-08T10:00:00	4	Temperatura máxima	23.2
75195	7	Sololá	704	Santa Lucía Utatlán 	7	Santa Rita 	2	Febrero	2023-07-02T00:00:00	2024-11-08T10:00:00	3	Temperatura mínima	21
75196	7	Sololá	704	Santa Lucía Utatlán 	7	Santa Rita 	2	Febrero	2023-07-02T00:00:00	2024-11-08T10:00:00	5	Humedad	31
75197	7	Sololá	704	Santa Lucía Utatlán 	7	Santa Rita 	2	Febrero	2023-07-02T00:00:00	2024-11-08T10:00:00	6	Velocidad del viento	4.8
75198	7	Sololá	704	Santa Lucía Utatlán 	7	Santa Rita 	2	Febrero	2023-07-02T00:00:00	2024-11-08T10:00:00	7	Dirección del viento	4.83
75199	7	Sololá	704	Santa Lucía Utatlán 	7	Santa Rita 	2	Febrero	2023-07-02T00:00:00	2024-11-08T10:00:00	1	Precipitación	0
75200	7	Sololá	704	Santa Lucía Utatlán 	7	Santa Rita 	2	Febrero	2023-07-02T00:00:00	2024-11-08T10:00:00	8	Radiación solar	603
75201	7	Sololá	704	Santa Lucía Utatlán 	7	Santa Rita 	2	Febrero	2023-07-02T00:00:00	2024-11-08T11:00:00	2	Temperatura media	23.4
75202	7	Sololá	704	Santa Lucía Utatlán 	7	Santa Rita 	2	Febrero	2023-07-02T00:00:00	2024-11-08T11:00:00	4	Temperatura máxima	24.2
75203	7	Sololá	704	Santa Lucía Utatlán 	7	Santa Rita 	2	Febrero	2023-07-02T00:00:00	2024-11-08T11:00:00	3	Temperatura mínima	23.2
75204	7	Sololá	704	Santa Lucía Utatlán 	7	Santa Rita 	2	Febrero	2023-07-02T00:00:00	2024-11-08T11:00:00	5	Humedad	36
75205	7	Sololá	704	Santa Lucía Utatlán 	7	Santa Rita 	2	Febrero	2023-07-02T00:00:00	2024-11-08T11:00:00	6	Velocidad del viento	8
75206	7	Sololá	704	Santa Lucía Utatlán 	7	Santa Rita 	2	Febrero	2023-07-02T00:00:00	2024-11-08T11:00:00	7	Dirección del viento	8.05
75207	7	Sololá	704	Santa Lucía Utatlán 	7	Santa Rita 	2	Febrero	2023-07-02T00:00:00	2024-11-08T11:00:00	1	Precipitación	0
75208	7	Sololá	704	Santa Lucía Utatlán 	7	Santa Rita 	2	Febrero	2023-07-02T00:00:00	2024-11-08T11:00:00	8	Radiación solar	764
75209	7	Sololá	704	Santa Lucía Utatlán 	7	Santa Rita 	2	Febrero	2023-07-02T00:00:00	2024-11-08T12:00:00	2	Temperatura media	24.5
75210	7	Sololá	704	Santa Lucía Utatlán 	7	Santa Rita 	2	Febrero	2023-07-02T00:00:00	2024-11-08T12:00:00	4	Temperatura máxima	24.6
75211	7	Sololá	704	Santa Lucía Utatlán 	7	Santa Rita 	2	Febrero	2023-07-02T00:00:00	2024-11-08T12:00:00	3	Temperatura mínima	23.3
75212	7	Sololá	704	Santa Lucía Utatlán 	7	Santa Rita 	2	Febrero	2023-07-02T00:00:00	2024-11-08T12:00:00	5	Humedad	34
75213	7	Sololá	704	Santa Lucía Utatlán 	7	Santa Rita 	2	Febrero	2023-07-02T00:00:00	2024-11-08T12:00:00	6	Velocidad del viento	11.3
75214	7	Sololá	704	Santa Lucía Utatlán 	7	Santa Rita 	2	Febrero	2023-07-02T00:00:00	2024-11-08T12:00:00	7	Dirección del viento	11.27
75215	7	Sololá	704	Santa Lucía Utatlán 	7	Santa Rita 	2	Febrero	2023-07-02T00:00:00	2024-11-08T12:00:00	1	Precipitación	0
75216	7	Sololá	704	Santa Lucía Utatlán 	7	Santa Rita 	2	Febrero	2023-07-02T00:00:00	2024-11-08T12:00:00	8	Radiación solar	848
75217	7	Sololá	704	Santa Lucía Utatlán 	7	Santa Rita 	2	Febrero	2023-07-02T00:00:00	2024-11-08T13:00:00	2	Temperatura media	24.9
75218	7	Sololá	704	Santa Lucía Utatlán 	7	Santa Rita 	2	Febrero	2023-07-02T00:00:00	2024-11-08T13:00:00	4	Temperatura máxima	25.2
75219	7	Sololá	704	Santa Lucía Utatlán 	7	Santa Rita 	2	Febrero	2023-07-02T00:00:00	2024-11-08T13:00:00	3	Temperatura mínima	24.4
75220	7	Sololá	704	Santa Lucía Utatlán 	7	Santa Rita 	2	Febrero	2023-07-02T00:00:00	2024-11-08T13:00:00	5	Humedad	33
75221	7	Sololá	704	Santa Lucía Utatlán 	7	Santa Rita 	2	Febrero	2023-07-02T00:00:00	2024-11-08T13:00:00	6	Velocidad del viento	9.7
75222	7	Sololá	704	Santa Lucía Utatlán 	7	Santa Rita 	2	Febrero	2023-07-02T00:00:00	2024-11-08T13:00:00	7	Dirección del viento	9.66
75223	7	Sololá	704	Santa Lucía Utatlán 	7	Santa Rita 	2	Febrero	2023-07-02T00:00:00	2024-11-08T13:00:00	1	Precipitación	0
75224	7	Sololá	704	Santa Lucía Utatlán 	7	Santa Rita 	2	Febrero	2023-07-02T00:00:00	2024-11-08T13:00:00	8	Radiación solar	876
75225	7	Sololá	704	Santa Lucía Utatlán 	7	Santa Rita 	2	Febrero	2023-07-02T00:00:00	2024-11-08T14:00:00	2	Temperatura media	24.5
75226	7	Sololá	704	Santa Lucía Utatlán 	7	Santa Rita 	2	Febrero	2023-07-02T00:00:00	2024-11-08T14:00:00	4	Temperatura máxima	25.1
75227	7	Sololá	704	Santa Lucía Utatlán 	7	Santa Rita 	2	Febrero	2023-07-02T00:00:00	2024-11-08T14:00:00	3	Temperatura mínima	24.1
75228	7	Sololá	704	Santa Lucía Utatlán 	7	Santa Rita 	2	Febrero	2023-07-02T00:00:00	2024-11-08T14:00:00	5	Humedad	35
75229	7	Sololá	704	Santa Lucía Utatlán 	7	Santa Rita 	2	Febrero	2023-07-02T00:00:00	2024-11-08T14:00:00	6	Velocidad del viento	11.3
75230	7	Sololá	704	Santa Lucía Utatlán 	7	Santa Rita 	2	Febrero	2023-07-02T00:00:00	2024-11-08T14:00:00	7	Dirección del viento	11.27
75231	7	Sololá	704	Santa Lucía Utatlán 	7	Santa Rita 	2	Febrero	2023-07-02T00:00:00	2024-11-08T14:00:00	1	Precipitación	0
75232	7	Sololá	704	Santa Lucía Utatlán 	7	Santa Rita 	2	Febrero	2023-07-02T00:00:00	2024-11-08T14:00:00	8	Radiación solar	847
75233	7	Sololá	704	Santa Lucía Utatlán 	7	Santa Rita 	2	Febrero	2023-07-02T00:00:00	2024-11-08T15:00:00	2	Temperatura media	23.6
75234	7	Sololá	704	Santa Lucía Utatlán 	7	Santa Rita 	2	Febrero	2023-07-02T00:00:00	2024-11-08T15:00:00	4	Temperatura máxima	24.8
75235	7	Sololá	704	Santa Lucía Utatlán 	7	Santa Rita 	2	Febrero	2023-07-02T00:00:00	2024-11-08T15:00:00	3	Temperatura mínima	23.3
75236	7	Sololá	704	Santa Lucía Utatlán 	7	Santa Rita 	2	Febrero	2023-07-02T00:00:00	2024-11-08T15:00:00	5	Humedad	53
75237	7	Sololá	704	Santa Lucía Utatlán 	7	Santa Rita 	2	Febrero	2023-07-02T00:00:00	2024-11-08T15:00:00	6	Velocidad del viento	11.3
75238	7	Sololá	704	Santa Lucía Utatlán 	7	Santa Rita 	2	Febrero	2023-07-02T00:00:00	2024-11-08T15:00:00	7	Dirección del viento	11.27
75239	7	Sololá	704	Santa Lucía Utatlán 	7	Santa Rita 	2	Febrero	2023-07-02T00:00:00	2024-11-08T15:00:00	1	Precipitación	0
75240	7	Sololá	704	Santa Lucía Utatlán 	7	Santa Rita 	2	Febrero	2023-07-02T00:00:00	2024-11-08T15:00:00	8	Radiación solar	771
75241	7	Sololá	704	Santa Lucía Utatlán 	7	Santa Rita 	2	Febrero	2023-07-02T00:00:00	2024-11-08T16:00:00	2	Temperatura media	22.1
75242	7	Sololá	704	Santa Lucía Utatlán 	7	Santa Rita 	2	Febrero	2023-07-02T00:00:00	2024-11-08T16:00:00	4	Temperatura máxima	23.7
75243	7	Sololá	704	Santa Lucía Utatlán 	7	Santa Rita 	2	Febrero	2023-07-02T00:00:00	2024-11-08T16:00:00	3	Temperatura mínima	22.1
75244	7	Sololá	704	Santa Lucía Utatlán 	7	Santa Rita 	2	Febrero	2023-07-02T00:00:00	2024-11-08T16:00:00	5	Humedad	63
75245	7	Sololá	704	Santa Lucía Utatlán 	7	Santa Rita 	2	Febrero	2023-07-02T00:00:00	2024-11-08T16:00:00	6	Velocidad del viento	9.7
75246	7	Sololá	704	Santa Lucía Utatlán 	7	Santa Rita 	2	Febrero	2023-07-02T00:00:00	2024-11-08T16:00:00	7	Dirección del viento	9.66
75247	7	Sololá	704	Santa Lucía Utatlán 	7	Santa Rita 	2	Febrero	2023-07-02T00:00:00	2024-11-08T16:00:00	1	Precipitación	0
75248	7	Sololá	704	Santa Lucía Utatlán 	7	Santa Rita 	2	Febrero	2023-07-02T00:00:00	2024-11-08T16:00:00	8	Radiación solar	560
75249	7	Sololá	704	Santa Lucía Utatlán 	7	Santa Rita 	2	Febrero	2023-07-02T00:00:00	2024-11-08T17:00:00	2	Temperatura media	21.4
75250	7	Sololá	704	Santa Lucía Utatlán 	7	Santa Rita 	2	Febrero	2023-07-02T00:00:00	2024-11-08T17:00:00	4	Temperatura máxima	22.6
75251	7	Sololá	704	Santa Lucía Utatlán 	7	Santa Rita 	2	Febrero	2023-07-02T00:00:00	2024-11-08T17:00:00	3	Temperatura mínima	21.4
75252	7	Sololá	704	Santa Lucía Utatlán 	7	Santa Rita 	2	Febrero	2023-07-02T00:00:00	2024-11-08T17:00:00	5	Humedad	68
75253	7	Sololá	704	Santa Lucía Utatlán 	7	Santa Rita 	2	Febrero	2023-07-02T00:00:00	2024-11-08T17:00:00	6	Velocidad del viento	6.4
75254	7	Sololá	704	Santa Lucía Utatlán 	7	Santa Rita 	2	Febrero	2023-07-02T00:00:00	2024-11-08T17:00:00	7	Dirección del viento	6.44
75255	7	Sololá	704	Santa Lucía Utatlán 	7	Santa Rita 	2	Febrero	2023-07-02T00:00:00	2024-11-08T17:00:00	1	Precipitación	0
75256	7	Sololá	704	Santa Lucía Utatlán 	7	Santa Rita 	2	Febrero	2023-07-02T00:00:00	2024-11-08T17:00:00	8	Radiación solar	305
75257	7	Sololá	704	Santa Lucía Utatlán 	7	Santa Rita 	2	Febrero	2023-07-02T00:00:00	2024-11-08T18:00:00	2	Temperatura media	19.2
75258	7	Sololá	704	Santa Lucía Utatlán 	7	Santa Rita 	2	Febrero	2023-07-02T00:00:00	2024-11-08T18:00:00	4	Temperatura máxima	21.5
75259	7	Sololá	704	Santa Lucía Utatlán 	7	Santa Rita 	2	Febrero	2023-07-02T00:00:00	2024-11-08T18:00:00	3	Temperatura mínima	19.2
75260	7	Sololá	704	Santa Lucía Utatlán 	7	Santa Rita 	2	Febrero	2023-07-02T00:00:00	2024-11-08T18:00:00	5	Humedad	80
75261	7	Sololá	704	Santa Lucía Utatlán 	7	Santa Rita 	2	Febrero	2023-07-02T00:00:00	2024-11-08T18:00:00	6	Velocidad del viento	4.8
75262	7	Sololá	704	Santa Lucía Utatlán 	7	Santa Rita 	2	Febrero	2023-07-02T00:00:00	2024-11-08T18:00:00	7	Dirección del viento	4.83
75263	7	Sololá	704	Santa Lucía Utatlán 	7	Santa Rita 	2	Febrero	2023-07-02T00:00:00	2024-11-08T18:00:00	1	Precipitación	0
75264	7	Sololá	704	Santa Lucía Utatlán 	7	Santa Rita 	2	Febrero	2023-07-02T00:00:00	2024-11-08T18:00:00	8	Radiación solar	61
75265	7	Sololá	704	Santa Lucía Utatlán 	7	Santa Rita 	2	Febrero	2023-07-02T00:00:00	2024-11-08T19:00:00	2	Temperatura media	18.4
75266	7	Sololá	704	Santa Lucía Utatlán 	7	Santa Rita 	2	Febrero	2023-07-02T00:00:00	2024-11-08T19:00:00	4	Temperatura máxima	19.2
75267	7	Sololá	704	Santa Lucía Utatlán 	7	Santa Rita 	2	Febrero	2023-07-02T00:00:00	2024-11-08T19:00:00	3	Temperatura mínima	18.4
75268	7	Sololá	704	Santa Lucía Utatlán 	7	Santa Rita 	2	Febrero	2023-07-02T00:00:00	2024-11-08T19:00:00	5	Humedad	84
75269	7	Sololá	704	Santa Lucía Utatlán 	7	Santa Rita 	2	Febrero	2023-07-02T00:00:00	2024-11-08T19:00:00	6	Velocidad del viento	1.6
75270	7	Sololá	704	Santa Lucía Utatlán 	7	Santa Rita 	2	Febrero	2023-07-02T00:00:00	2024-11-08T19:00:00	7	Dirección del viento	1.61
75271	7	Sololá	704	Santa Lucía Utatlán 	7	Santa Rita 	2	Febrero	2023-07-02T00:00:00	2024-11-08T19:00:00	1	Precipitación	0
75272	7	Sololá	704	Santa Lucía Utatlán 	7	Santa Rita 	2	Febrero	2023-07-02T00:00:00	2024-11-08T19:00:00	8	Radiación solar	0
75273	7	Sololá	704	Santa Lucía Utatlán 	7	Santa Rita 	2	Febrero	2023-07-02T00:00:00	2024-11-08T20:00:00	2	Temperatura media	16.2
75274	7	Sololá	704	Santa Lucía Utatlán 	7	Santa Rita 	2	Febrero	2023-07-02T00:00:00	2024-11-08T20:00:00	4	Temperatura máxima	18.4
75275	7	Sololá	704	Santa Lucía Utatlán 	7	Santa Rita 	2	Febrero	2023-07-02T00:00:00	2024-11-08T20:00:00	3	Temperatura mínima	16.2
75276	7	Sololá	704	Santa Lucía Utatlán 	7	Santa Rita 	2	Febrero	2023-07-02T00:00:00	2024-11-08T20:00:00	5	Humedad	81
75277	7	Sololá	704	Santa Lucía Utatlán 	7	Santa Rita 	2	Febrero	2023-07-02T00:00:00	2024-11-08T20:00:00	6	Velocidad del viento	3.2
75278	7	Sololá	704	Santa Lucía Utatlán 	7	Santa Rita 	2	Febrero	2023-07-02T00:00:00	2024-11-08T20:00:00	7	Dirección del viento	3.22
75279	7	Sololá	704	Santa Lucía Utatlán 	7	Santa Rita 	2	Febrero	2023-07-02T00:00:00	2024-11-08T20:00:00	1	Precipitación	0
75280	7	Sololá	704	Santa Lucía Utatlán 	7	Santa Rita 	2	Febrero	2023-07-02T00:00:00	2024-11-08T20:00:00	8	Radiación solar	0
75281	7	Sololá	704	Santa Lucía Utatlán 	7	Santa Rita 	2	Febrero	2023-07-02T00:00:00	2024-11-08T21:00:00	2	Temperatura media	15.7
75282	7	Sololá	704	Santa Lucía Utatlán 	7	Santa Rita 	2	Febrero	2023-07-02T00:00:00	2024-11-08T21:00:00	4	Temperatura máxima	16.2
75283	7	Sololá	704	Santa Lucía Utatlán 	7	Santa Rita 	2	Febrero	2023-07-02T00:00:00	2024-11-08T21:00:00	3	Temperatura mínima	15.7
75284	7	Sololá	704	Santa Lucía Utatlán 	7	Santa Rita 	2	Febrero	2023-07-02T00:00:00	2024-11-08T21:00:00	5	Humedad	81
75285	7	Sololá	704	Santa Lucía Utatlán 	7	Santa Rita 	2	Febrero	2023-07-02T00:00:00	2024-11-08T21:00:00	6	Velocidad del viento	3.2
75286	7	Sololá	704	Santa Lucía Utatlán 	7	Santa Rita 	2	Febrero	2023-07-02T00:00:00	2024-11-08T21:00:00	7	Dirección del viento	3.22
75287	7	Sololá	704	Santa Lucía Utatlán 	7	Santa Rita 	2	Febrero	2023-07-02T00:00:00	2024-11-08T21:00:00	1	Precipitación	0
75288	7	Sololá	704	Santa Lucía Utatlán 	7	Santa Rita 	2	Febrero	2023-07-02T00:00:00	2024-11-08T21:00:00	8	Radiación solar	0
75289	7	Sololá	704	Santa Lucía Utatlán 	7	Santa Rita 	2	Febrero	2023-07-02T00:00:00	2024-11-08T22:00:00	2	Temperatura media	15.6
75290	7	Sololá	704	Santa Lucía Utatlán 	7	Santa Rita 	2	Febrero	2023-07-02T00:00:00	2024-11-08T22:00:00	4	Temperatura máxima	15.9
75291	7	Sololá	704	Santa Lucía Utatlán 	7	Santa Rita 	2	Febrero	2023-07-02T00:00:00	2024-11-08T22:00:00	3	Temperatura mínima	15.5
75292	7	Sololá	704	Santa Lucía Utatlán 	7	Santa Rita 	2	Febrero	2023-07-02T00:00:00	2024-11-08T22:00:00	5	Humedad	80
75293	7	Sololá	704	Santa Lucía Utatlán 	7	Santa Rita 	2	Febrero	2023-07-02T00:00:00	2024-11-08T22:00:00	6	Velocidad del viento	3.2
75294	7	Sololá	704	Santa Lucía Utatlán 	7	Santa Rita 	2	Febrero	2023-07-02T00:00:00	2024-11-08T22:00:00	7	Dirección del viento	3.22
75295	7	Sololá	704	Santa Lucía Utatlán 	7	Santa Rita 	2	Febrero	2023-07-02T00:00:00	2024-11-08T22:00:00	1	Precipitación	0
75296	7	Sololá	704	Santa Lucía Utatlán 	7	Santa Rita 	2	Febrero	2023-07-02T00:00:00	2024-11-08T22:00:00	8	Radiación solar	0
75297	7	Sololá	704	Santa Lucía Utatlán 	7	Santa Rita 	2	Febrero	2023-07-02T00:00:00	2024-11-08T23:00:00	2	Temperatura media	15.1
75298	7	Sololá	704	Santa Lucía Utatlán 	7	Santa Rita 	2	Febrero	2023-07-02T00:00:00	2024-11-08T23:00:00	4	Temperatura máxima	15.6
75299	7	Sololá	704	Santa Lucía Utatlán 	7	Santa Rita 	2	Febrero	2023-07-02T00:00:00	2024-11-08T23:00:00	3	Temperatura mínima	15
75300	7	Sololá	704	Santa Lucía Utatlán 	7	Santa Rita 	2	Febrero	2023-07-02T00:00:00	2024-11-08T23:00:00	5	Humedad	69
75301	7	Sololá	704	Santa Lucía Utatlán 	7	Santa Rita 	2	Febrero	2023-07-02T00:00:00	2024-11-08T23:00:00	6	Velocidad del viento	3.2
75302	7	Sololá	704	Santa Lucía Utatlán 	7	Santa Rita 	2	Febrero	2023-07-02T00:00:00	2024-11-08T23:00:00	7	Dirección del viento	3.22
75303	7	Sololá	704	Santa Lucía Utatlán 	7	Santa Rita 	2	Febrero	2023-07-02T00:00:00	2024-11-08T23:00:00	1	Precipitación	0
75304	7	Sololá	704	Santa Lucía Utatlán 	7	Santa Rita 	2	Febrero	2023-07-02T00:00:00	2024-11-08T23:00:00	8	Radiación solar	0
75305	7	Sololá	704	Santa Lucía Utatlán 	7	Santa Rita 	2	Febrero	2023-08-02T00:00:00	2024-11-08T00:00:00	2	Temperatura media	15.3
75306	7	Sololá	704	Santa Lucía Utatlán 	7	Santa Rita 	2	Febrero	2023-08-02T00:00:00	2024-11-08T00:00:00	4	Temperatura máxima	15.3
75307	7	Sololá	704	Santa Lucía Utatlán 	7	Santa Rita 	2	Febrero	2023-08-02T00:00:00	2024-11-08T00:00:00	3	Temperatura mínima	15
75308	7	Sololá	704	Santa Lucía Utatlán 	7	Santa Rita 	2	Febrero	2023-08-02T00:00:00	2024-11-08T00:00:00	5	Humedad	64
75309	7	Sololá	704	Santa Lucía Utatlán 	7	Santa Rita 	2	Febrero	2023-08-02T00:00:00	2024-11-08T00:00:00	6	Velocidad del viento	4.8
75310	7	Sololá	704	Santa Lucía Utatlán 	7	Santa Rita 	2	Febrero	2023-08-02T00:00:00	2024-11-08T00:00:00	7	Dirección del viento	4.83
75311	7	Sololá	704	Santa Lucía Utatlán 	7	Santa Rita 	2	Febrero	2023-08-02T00:00:00	2024-11-08T00:00:00	1	Precipitación	0
75312	7	Sololá	704	Santa Lucía Utatlán 	7	Santa Rita 	2	Febrero	2023-08-02T00:00:00	2024-11-08T00:00:00	8	Radiación solar	0
75313	7	Sololá	704	Santa Lucía Utatlán 	7	Santa Rita 	2	Febrero	2023-08-02T00:00:00	2024-11-08T01:00:00	2	Temperatura media	14.4
75314	7	Sololá	704	Santa Lucía Utatlán 	7	Santa Rita 	2	Febrero	2023-08-02T00:00:00	2024-11-08T01:00:00	4	Temperatura máxima	15.6
75315	7	Sololá	704	Santa Lucía Utatlán 	7	Santa Rita 	2	Febrero	2023-08-02T00:00:00	2024-11-08T01:00:00	3	Temperatura mínima	14.4
75316	7	Sololá	704	Santa Lucía Utatlán 	7	Santa Rita 	2	Febrero	2023-08-02T00:00:00	2024-11-08T01:00:00	5	Humedad	70
75317	7	Sololá	704	Santa Lucía Utatlán 	7	Santa Rita 	2	Febrero	2023-08-02T00:00:00	2024-11-08T01:00:00	6	Velocidad del viento	3.2
75318	7	Sololá	704	Santa Lucía Utatlán 	7	Santa Rita 	2	Febrero	2023-08-02T00:00:00	2024-11-08T01:00:00	7	Dirección del viento	3.22
75319	7	Sololá	704	Santa Lucía Utatlán 	7	Santa Rita 	2	Febrero	2023-08-02T00:00:00	2024-11-08T01:00:00	1	Precipitación	0
75320	7	Sololá	704	Santa Lucía Utatlán 	7	Santa Rita 	2	Febrero	2023-08-02T00:00:00	2024-11-08T01:00:00	8	Radiación solar	0
75321	7	Sololá	704	Santa Lucía Utatlán 	7	Santa Rita 	2	Febrero	2023-08-02T00:00:00	2024-11-08T02:00:00	2	Temperatura media	15
75322	7	Sololá	704	Santa Lucía Utatlán 	7	Santa Rita 	2	Febrero	2023-08-02T00:00:00	2024-11-08T02:00:00	4	Temperatura máxima	15.1
75323	7	Sololá	704	Santa Lucía Utatlán 	7	Santa Rita 	2	Febrero	2023-08-02T00:00:00	2024-11-08T02:00:00	3	Temperatura mínima	14.4
75324	7	Sololá	704	Santa Lucía Utatlán 	7	Santa Rita 	2	Febrero	2023-08-02T00:00:00	2024-11-08T02:00:00	5	Humedad	69
75325	7	Sololá	704	Santa Lucía Utatlán 	7	Santa Rita 	2	Febrero	2023-08-02T00:00:00	2024-11-08T02:00:00	6	Velocidad del viento	4.8
75326	7	Sololá	704	Santa Lucía Utatlán 	7	Santa Rita 	2	Febrero	2023-08-02T00:00:00	2024-11-08T02:00:00	7	Dirección del viento	4.83
75327	7	Sololá	704	Santa Lucía Utatlán 	7	Santa Rita 	2	Febrero	2023-08-02T00:00:00	2024-11-08T02:00:00	1	Precipitación	0
75328	7	Sololá	704	Santa Lucía Utatlán 	7	Santa Rita 	2	Febrero	2023-08-02T00:00:00	2024-11-08T02:00:00	8	Radiación solar	0
75329	7	Sololá	704	Santa Lucía Utatlán 	7	Santa Rita 	2	Febrero	2023-08-02T00:00:00	2024-11-08T03:00:00	2	Temperatura media	14.4
75330	7	Sololá	704	Santa Lucía Utatlán 	7	Santa Rita 	2	Febrero	2023-08-02T00:00:00	2024-11-08T03:00:00	4	Temperatura máxima	15
75331	7	Sololá	704	Santa Lucía Utatlán 	7	Santa Rita 	2	Febrero	2023-08-02T00:00:00	2024-11-08T03:00:00	3	Temperatura mínima	14.4
75332	7	Sololá	704	Santa Lucía Utatlán 	7	Santa Rita 	2	Febrero	2023-08-02T00:00:00	2024-11-08T03:00:00	5	Humedad	66
75333	7	Sololá	704	Santa Lucía Utatlán 	7	Santa Rita 	2	Febrero	2023-08-02T00:00:00	2024-11-08T03:00:00	6	Velocidad del viento	3.2
75334	7	Sololá	704	Santa Lucía Utatlán 	7	Santa Rita 	2	Febrero	2023-08-02T00:00:00	2024-11-08T03:00:00	7	Dirección del viento	3.22
75335	7	Sololá	704	Santa Lucía Utatlán 	7	Santa Rita 	2	Febrero	2023-08-02T00:00:00	2024-11-08T03:00:00	1	Precipitación	0
75336	7	Sololá	704	Santa Lucía Utatlán 	7	Santa Rita 	2	Febrero	2023-08-02T00:00:00	2024-11-08T03:00:00	8	Radiación solar	0
75337	7	Sololá	704	Santa Lucía Utatlán 	7	Santa Rita 	2	Febrero	2023-08-02T00:00:00	2024-11-08T04:00:00	2	Temperatura media	14.3
75338	7	Sololá	704	Santa Lucía Utatlán 	7	Santa Rita 	2	Febrero	2023-08-02T00:00:00	2024-11-08T04:00:00	4	Temperatura máxima	14.6
75339	7	Sololá	704	Santa Lucía Utatlán 	7	Santa Rita 	2	Febrero	2023-08-02T00:00:00	2024-11-08T04:00:00	3	Temperatura mínima	14.1
75340	7	Sololá	704	Santa Lucía Utatlán 	7	Santa Rita 	2	Febrero	2023-08-02T00:00:00	2024-11-08T04:00:00	5	Humedad	69
75341	7	Sololá	704	Santa Lucía Utatlán 	7	Santa Rita 	2	Febrero	2023-08-02T00:00:00	2024-11-08T04:00:00	6	Velocidad del viento	4.8
75342	7	Sololá	704	Santa Lucía Utatlán 	7	Santa Rita 	2	Febrero	2023-08-02T00:00:00	2024-11-08T04:00:00	7	Dirección del viento	4.83
75343	7	Sololá	704	Santa Lucía Utatlán 	7	Santa Rita 	2	Febrero	2023-08-02T00:00:00	2024-11-08T04:00:00	1	Precipitación	0
75344	7	Sololá	704	Santa Lucía Utatlán 	7	Santa Rita 	2	Febrero	2023-08-02T00:00:00	2024-11-08T04:00:00	8	Radiación solar	0
75345	7	Sololá	704	Santa Lucía Utatlán 	7	Santa Rita 	2	Febrero	2023-08-02T00:00:00	2024-11-08T05:00:00	2	Temperatura media	14
75346	7	Sololá	704	Santa Lucía Utatlán 	7	Santa Rita 	2	Febrero	2023-08-02T00:00:00	2024-11-08T05:00:00	4	Temperatura máxima	14.4
75347	7	Sololá	704	Santa Lucía Utatlán 	7	Santa Rita 	2	Febrero	2023-08-02T00:00:00	2024-11-08T05:00:00	3	Temperatura mínima	13.8
75348	7	Sololá	704	Santa Lucía Utatlán 	7	Santa Rita 	2	Febrero	2023-08-02T00:00:00	2024-11-08T05:00:00	5	Humedad	72
75349	7	Sololá	704	Santa Lucía Utatlán 	7	Santa Rita 	2	Febrero	2023-08-02T00:00:00	2024-11-08T05:00:00	6	Velocidad del viento	4.8
75350	7	Sololá	704	Santa Lucía Utatlán 	7	Santa Rita 	2	Febrero	2023-08-02T00:00:00	2024-11-08T05:00:00	7	Dirección del viento	4.83
75351	7	Sololá	704	Santa Lucía Utatlán 	7	Santa Rita 	2	Febrero	2023-08-02T00:00:00	2024-11-08T05:00:00	1	Precipitación	0
75352	7	Sololá	704	Santa Lucía Utatlán 	7	Santa Rita 	2	Febrero	2023-08-02T00:00:00	2024-11-08T05:00:00	8	Radiación solar	0
75353	7	Sololá	704	Santa Lucía Utatlán 	7	Santa Rita 	2	Febrero	2023-08-02T00:00:00	2024-11-08T06:00:00	2	Temperatura media	13.9
75354	7	Sololá	704	Santa Lucía Utatlán 	7	Santa Rita 	2	Febrero	2023-08-02T00:00:00	2024-11-08T06:00:00	4	Temperatura máxima	14.2
75355	7	Sololá	704	Santa Lucía Utatlán 	7	Santa Rita 	2	Febrero	2023-08-02T00:00:00	2024-11-08T06:00:00	3	Temperatura mínima	13.8
75356	7	Sololá	704	Santa Lucía Utatlán 	7	Santa Rita 	2	Febrero	2023-08-02T00:00:00	2024-11-08T06:00:00	5	Humedad	72
75357	7	Sololá	704	Santa Lucía Utatlán 	7	Santa Rita 	2	Febrero	2023-08-02T00:00:00	2024-11-08T06:00:00	6	Velocidad del viento	4.8
75358	7	Sololá	704	Santa Lucía Utatlán 	7	Santa Rita 	2	Febrero	2023-08-02T00:00:00	2024-11-08T06:00:00	7	Dirección del viento	4.83
75359	7	Sololá	704	Santa Lucía Utatlán 	7	Santa Rita 	2	Febrero	2023-08-02T00:00:00	2024-11-08T06:00:00	1	Precipitación	0
75360	7	Sololá	704	Santa Lucía Utatlán 	7	Santa Rita 	2	Febrero	2023-08-02T00:00:00	2024-11-08T06:00:00	8	Radiación solar	0
75361	7	Sololá	704	Santa Lucía Utatlán 	7	Santa Rita 	2	Febrero	2023-08-02T00:00:00	2024-11-08T07:00:00	2	Temperatura media	14.4
75362	7	Sololá	704	Santa Lucía Utatlán 	7	Santa Rita 	2	Febrero	2023-08-02T00:00:00	2024-11-08T07:00:00	4	Temperatura máxima	14.4
75363	7	Sololá	704	Santa Lucía Utatlán 	7	Santa Rita 	2	Febrero	2023-08-02T00:00:00	2024-11-08T07:00:00	3	Temperatura mínima	13.8
75364	7	Sololá	704	Santa Lucía Utatlán 	7	Santa Rita 	2	Febrero	2023-08-02T00:00:00	2024-11-08T07:00:00	5	Humedad	57
75365	7	Sololá	704	Santa Lucía Utatlán 	7	Santa Rita 	2	Febrero	2023-08-02T00:00:00	2024-11-08T07:00:00	6	Velocidad del viento	3.2
75366	7	Sololá	704	Santa Lucía Utatlán 	7	Santa Rita 	2	Febrero	2023-08-02T00:00:00	2024-11-08T07:00:00	7	Dirección del viento	3.22
75367	7	Sololá	704	Santa Lucía Utatlán 	7	Santa Rita 	2	Febrero	2023-08-02T00:00:00	2024-11-08T07:00:00	1	Precipitación	0
75368	7	Sololá	704	Santa Lucía Utatlán 	7	Santa Rita 	2	Febrero	2023-08-02T00:00:00	2024-11-08T07:00:00	8	Radiación solar	5
75369	7	Sololá	704	Santa Lucía Utatlán 	7	Santa Rita 	2	Febrero	2023-08-02T00:00:00	2024-11-08T08:00:00	2	Temperatura media	19.6
75370	7	Sololá	704	Santa Lucía Utatlán 	7	Santa Rita 	2	Febrero	2023-08-02T00:00:00	2024-11-08T08:00:00	4	Temperatura máxima	19.6
75371	7	Sololá	704	Santa Lucía Utatlán 	7	Santa Rita 	2	Febrero	2023-08-02T00:00:00	2024-11-08T08:00:00	3	Temperatura mínima	14.3
75372	7	Sololá	704	Santa Lucía Utatlán 	7	Santa Rita 	2	Febrero	2023-08-02T00:00:00	2024-11-08T08:00:00	5	Humedad	47
75373	7	Sololá	704	Santa Lucía Utatlán 	7	Santa Rita 	2	Febrero	2023-08-02T00:00:00	2024-11-08T08:00:00	6	Velocidad del viento	1.6
75374	7	Sololá	704	Santa Lucía Utatlán 	7	Santa Rita 	2	Febrero	2023-08-02T00:00:00	2024-11-08T08:00:00	7	Dirección del viento	1.61
75375	7	Sololá	704	Santa Lucía Utatlán 	7	Santa Rita 	2	Febrero	2023-08-02T00:00:00	2024-11-08T08:00:00	1	Precipitación	0
75376	7	Sololá	704	Santa Lucía Utatlán 	7	Santa Rita 	2	Febrero	2023-08-02T00:00:00	2024-11-08T08:00:00	8	Radiación solar	153
75377	7	Sololá	704	Santa Lucía Utatlán 	7	Santa Rita 	2	Febrero	2023-08-02T00:00:00	2024-11-08T09:00:00	2	Temperatura media	22.4
75378	7	Sololá	704	Santa Lucía Utatlán 	7	Santa Rita 	2	Febrero	2023-08-02T00:00:00	2024-11-08T09:00:00	4	Temperatura máxima	22.4
75379	7	Sololá	704	Santa Lucía Utatlán 	7	Santa Rita 	2	Febrero	2023-08-02T00:00:00	2024-11-08T09:00:00	3	Temperatura mínima	19.6
75380	7	Sololá	704	Santa Lucía Utatlán 	7	Santa Rita 	2	Febrero	2023-08-02T00:00:00	2024-11-08T09:00:00	5	Humedad	39
75381	7	Sololá	704	Santa Lucía Utatlán 	7	Santa Rita 	2	Febrero	2023-08-02T00:00:00	2024-11-08T09:00:00	6	Velocidad del viento	3.2
75382	7	Sololá	704	Santa Lucía Utatlán 	7	Santa Rita 	2	Febrero	2023-08-02T00:00:00	2024-11-08T09:00:00	7	Dirección del viento	3.22
75383	7	Sololá	704	Santa Lucía Utatlán 	7	Santa Rita 	2	Febrero	2023-08-02T00:00:00	2024-11-08T09:00:00	1	Precipitación	0
75384	7	Sololá	704	Santa Lucía Utatlán 	7	Santa Rita 	2	Febrero	2023-08-02T00:00:00	2024-11-08T09:00:00	8	Radiación solar	399
75385	7	Sololá	704	Santa Lucía Utatlán 	7	Santa Rita 	2	Febrero	2023-08-02T00:00:00	2024-11-08T10:00:00	2	Temperatura media	24.7
75386	7	Sololá	704	Santa Lucía Utatlán 	7	Santa Rita 	2	Febrero	2023-08-02T00:00:00	2024-11-08T10:00:00	4	Temperatura máxima	24.7
75387	7	Sololá	704	Santa Lucía Utatlán 	7	Santa Rita 	2	Febrero	2023-08-02T00:00:00	2024-11-08T10:00:00	3	Temperatura mínima	22.4
75388	7	Sololá	704	Santa Lucía Utatlán 	7	Santa Rita 	2	Febrero	2023-08-02T00:00:00	2024-11-08T10:00:00	5	Humedad	29
75389	7	Sololá	704	Santa Lucía Utatlán 	7	Santa Rita 	2	Febrero	2023-08-02T00:00:00	2024-11-08T10:00:00	6	Velocidad del viento	4.8
75390	7	Sololá	704	Santa Lucía Utatlán 	7	Santa Rita 	2	Febrero	2023-08-02T00:00:00	2024-11-08T10:00:00	7	Dirección del viento	4.83
75391	7	Sololá	704	Santa Lucía Utatlán 	7	Santa Rita 	2	Febrero	2023-08-02T00:00:00	2024-11-08T10:00:00	1	Precipitación	0
75392	7	Sololá	704	Santa Lucía Utatlán 	7	Santa Rita 	2	Febrero	2023-08-02T00:00:00	2024-11-08T10:00:00	8	Radiación solar	602
75393	7	Sololá	704	Santa Lucía Utatlán 	7	Santa Rita 	2	Febrero	2023-08-02T00:00:00	2024-11-08T11:00:00	2	Temperatura media	24.2
75394	7	Sololá	704	Santa Lucía Utatlán 	7	Santa Rita 	2	Febrero	2023-08-02T00:00:00	2024-11-08T11:00:00	4	Temperatura máxima	25.3
75395	7	Sololá	704	Santa Lucía Utatlán 	7	Santa Rita 	2	Febrero	2023-08-02T00:00:00	2024-11-08T11:00:00	3	Temperatura mínima	24.2
75396	7	Sololá	704	Santa Lucía Utatlán 	7	Santa Rita 	2	Febrero	2023-08-02T00:00:00	2024-11-08T11:00:00	5	Humedad	28
75397	7	Sololá	704	Santa Lucía Utatlán 	7	Santa Rita 	2	Febrero	2023-08-02T00:00:00	2024-11-08T11:00:00	6	Velocidad del viento	9.7
75398	7	Sololá	704	Santa Lucía Utatlán 	7	Santa Rita 	2	Febrero	2023-08-02T00:00:00	2024-11-08T11:00:00	7	Dirección del viento	9.66
75399	7	Sololá	704	Santa Lucía Utatlán 	7	Santa Rita 	2	Febrero	2023-08-02T00:00:00	2024-11-08T11:00:00	1	Precipitación	0
75400	7	Sololá	704	Santa Lucía Utatlán 	7	Santa Rita 	2	Febrero	2023-08-02T00:00:00	2024-11-08T11:00:00	8	Radiación solar	761
75401	7	Sololá	704	Santa Lucía Utatlán 	7	Santa Rita 	2	Febrero	2023-08-02T00:00:00	2024-11-08T12:00:00	2	Temperatura media	24.7
75402	7	Sololá	704	Santa Lucía Utatlán 	7	Santa Rita 	2	Febrero	2023-08-02T00:00:00	2024-11-08T12:00:00	4	Temperatura máxima	25.4
75403	7	Sololá	704	Santa Lucía Utatlán 	7	Santa Rita 	2	Febrero	2023-08-02T00:00:00	2024-11-08T12:00:00	3	Temperatura mínima	24.2
75404	7	Sololá	704	Santa Lucía Utatlán 	7	Santa Rita 	2	Febrero	2023-08-02T00:00:00	2024-11-08T12:00:00	5	Humedad	36
75405	7	Sololá	704	Santa Lucía Utatlán 	7	Santa Rita 	2	Febrero	2023-08-02T00:00:00	2024-11-08T12:00:00	6	Velocidad del viento	9.7
75406	7	Sololá	704	Santa Lucía Utatlán 	7	Santa Rita 	2	Febrero	2023-08-02T00:00:00	2024-11-08T12:00:00	7	Dirección del viento	9.66
75407	7	Sololá	704	Santa Lucía Utatlán 	7	Santa Rita 	2	Febrero	2023-08-02T00:00:00	2024-11-08T12:00:00	1	Precipitación	0
75408	7	Sololá	704	Santa Lucía Utatlán 	7	Santa Rita 	2	Febrero	2023-08-02T00:00:00	2024-11-08T12:00:00	8	Radiación solar	854
75409	7	Sololá	704	Santa Lucía Utatlán 	7	Santa Rita 	2	Febrero	2023-08-02T00:00:00	2024-11-08T13:00:00	2	Temperatura media	25.7
75410	7	Sololá	704	Santa Lucía Utatlán 	7	Santa Rita 	2	Febrero	2023-08-02T00:00:00	2024-11-08T13:00:00	4	Temperatura máxima	25.9
75411	7	Sololá	704	Santa Lucía Utatlán 	7	Santa Rita 	2	Febrero	2023-08-02T00:00:00	2024-11-08T13:00:00	3	Temperatura mínima	24.6
75412	7	Sololá	704	Santa Lucía Utatlán 	7	Santa Rita 	2	Febrero	2023-08-02T00:00:00	2024-11-08T13:00:00	5	Humedad	30
75413	7	Sololá	704	Santa Lucía Utatlán 	7	Santa Rita 	2	Febrero	2023-08-02T00:00:00	2024-11-08T13:00:00	6	Velocidad del viento	9.7
75414	7	Sololá	704	Santa Lucía Utatlán 	7	Santa Rita 	2	Febrero	2023-08-02T00:00:00	2024-11-08T13:00:00	7	Dirección del viento	9.66
75415	7	Sololá	704	Santa Lucía Utatlán 	7	Santa Rita 	2	Febrero	2023-08-02T00:00:00	2024-11-08T13:00:00	1	Precipitación	0
75416	7	Sololá	704	Santa Lucía Utatlán 	7	Santa Rita 	2	Febrero	2023-08-02T00:00:00	2024-11-08T13:00:00	8	Radiación solar	900
75417	7	Sololá	704	Santa Lucía Utatlán 	7	Santa Rita 	2	Febrero	2023-08-02T00:00:00	2024-11-08T14:00:00	2	Temperatura media	23.6
75418	7	Sololá	704	Santa Lucía Utatlán 	7	Santa Rita 	2	Febrero	2023-08-02T00:00:00	2024-11-08T14:00:00	4	Temperatura máxima	26.2
75419	7	Sololá	704	Santa Lucía Utatlán 	7	Santa Rita 	2	Febrero	2023-08-02T00:00:00	2024-11-08T14:00:00	3	Temperatura mínima	23.4
75420	7	Sololá	704	Santa Lucía Utatlán 	7	Santa Rita 	2	Febrero	2023-08-02T00:00:00	2024-11-08T14:00:00	5	Humedad	48
75421	7	Sololá	704	Santa Lucía Utatlán 	7	Santa Rita 	2	Febrero	2023-08-02T00:00:00	2024-11-08T14:00:00	6	Velocidad del viento	9.7
75422	7	Sololá	704	Santa Lucía Utatlán 	7	Santa Rita 	2	Febrero	2023-08-02T00:00:00	2024-11-08T14:00:00	7	Dirección del viento	9.66
75423	7	Sololá	704	Santa Lucía Utatlán 	7	Santa Rita 	2	Febrero	2023-08-02T00:00:00	2024-11-08T14:00:00	1	Precipitación	0
75424	7	Sololá	704	Santa Lucía Utatlán 	7	Santa Rita 	2	Febrero	2023-08-02T00:00:00	2024-11-08T14:00:00	8	Radiación solar	551
75425	7	Sololá	704	Santa Lucía Utatlán 	7	Santa Rita 	2	Febrero	2023-08-02T00:00:00	2024-11-08T15:00:00	2	Temperatura media	23.2
75426	7	Sololá	704	Santa Lucía Utatlán 	7	Santa Rita 	2	Febrero	2023-08-02T00:00:00	2024-11-08T15:00:00	4	Temperatura máxima	23.6
75427	7	Sololá	704	Santa Lucía Utatlán 	7	Santa Rita 	2	Febrero	2023-08-02T00:00:00	2024-11-08T15:00:00	3	Temperatura mínima	23.2
75428	7	Sololá	704	Santa Lucía Utatlán 	7	Santa Rita 	2	Febrero	2023-08-02T00:00:00	2024-11-08T15:00:00	5	Humedad	51
75429	7	Sololá	704	Santa Lucía Utatlán 	7	Santa Rita 	2	Febrero	2023-08-02T00:00:00	2024-11-08T15:00:00	6	Velocidad del viento	4.8
75430	7	Sololá	704	Santa Lucía Utatlán 	7	Santa Rita 	2	Febrero	2023-08-02T00:00:00	2024-11-08T15:00:00	7	Dirección del viento	4.83
75431	7	Sololá	704	Santa Lucía Utatlán 	7	Santa Rita 	2	Febrero	2023-08-02T00:00:00	2024-11-08T15:00:00	1	Precipitación	0
75432	7	Sololá	704	Santa Lucía Utatlán 	7	Santa Rita 	2	Febrero	2023-08-02T00:00:00	2024-11-08T15:00:00	8	Radiación solar	184
75433	7	Sololá	704	Santa Lucía Utatlán 	7	Santa Rita 	2	Febrero	2023-08-02T00:00:00	2024-11-08T16:00:00	2	Temperatura media	22.4
75434	7	Sololá	704	Santa Lucía Utatlán 	7	Santa Rita 	2	Febrero	2023-08-02T00:00:00	2024-11-08T16:00:00	4	Temperatura máxima	23.2
75435	7	Sololá	704	Santa Lucía Utatlán 	7	Santa Rita 	2	Febrero	2023-08-02T00:00:00	2024-11-08T16:00:00	3	Temperatura mínima	22.4
75436	7	Sololá	704	Santa Lucía Utatlán 	7	Santa Rita 	2	Febrero	2023-08-02T00:00:00	2024-11-08T16:00:00	5	Humedad	65
75437	7	Sololá	704	Santa Lucía Utatlán 	7	Santa Rita 	2	Febrero	2023-08-02T00:00:00	2024-11-08T16:00:00	6	Velocidad del viento	4.8
75438	7	Sololá	704	Santa Lucía Utatlán 	7	Santa Rita 	2	Febrero	2023-08-02T00:00:00	2024-11-08T16:00:00	7	Dirección del viento	4.83
75439	7	Sololá	704	Santa Lucía Utatlán 	7	Santa Rita 	2	Febrero	2023-08-02T00:00:00	2024-11-08T16:00:00	1	Precipitación	0
75440	7	Sololá	704	Santa Lucía Utatlán 	7	Santa Rita 	2	Febrero	2023-08-02T00:00:00	2024-11-08T16:00:00	8	Radiación solar	143
75441	7	Sololá	704	Santa Lucía Utatlán 	7	Santa Rita 	2	Febrero	2023-08-02T00:00:00	2024-11-08T17:00:00	2	Temperatura media	21.3
75442	7	Sololá	704	Santa Lucía Utatlán 	7	Santa Rita 	2	Febrero	2023-08-02T00:00:00	2024-11-08T17:00:00	4	Temperatura máxima	22.6
75443	7	Sololá	704	Santa Lucía Utatlán 	7	Santa Rita 	2	Febrero	2023-08-02T00:00:00	2024-11-08T17:00:00	3	Temperatura mínima	21.3
75444	7	Sololá	704	Santa Lucía Utatlán 	7	Santa Rita 	2	Febrero	2023-08-02T00:00:00	2024-11-08T17:00:00	5	Humedad	73
75445	7	Sololá	704	Santa Lucía Utatlán 	7	Santa Rita 	2	Febrero	2023-08-02T00:00:00	2024-11-08T17:00:00	6	Velocidad del viento	4.8
75446	7	Sololá	704	Santa Lucía Utatlán 	7	Santa Rita 	2	Febrero	2023-08-02T00:00:00	2024-11-08T17:00:00	7	Dirección del viento	4.83
75447	7	Sololá	704	Santa Lucía Utatlán 	7	Santa Rita 	2	Febrero	2023-08-02T00:00:00	2024-11-08T17:00:00	1	Precipitación	0
75448	7	Sololá	704	Santa Lucía Utatlán 	7	Santa Rita 	2	Febrero	2023-08-02T00:00:00	2024-11-08T17:00:00	8	Radiación solar	138
75449	7	Sololá	704	Santa Lucía Utatlán 	7	Santa Rita 	2	Febrero	2023-08-02T00:00:00	2024-11-08T18:00:00	2	Temperatura media	20.7
75450	7	Sololá	704	Santa Lucía Utatlán 	7	Santa Rita 	2	Febrero	2023-08-02T00:00:00	2024-11-08T18:00:00	4	Temperatura máxima	21.3
75451	7	Sololá	704	Santa Lucía Utatlán 	7	Santa Rita 	2	Febrero	2023-08-02T00:00:00	2024-11-08T18:00:00	3	Temperatura mínima	20.7
75452	7	Sololá	704	Santa Lucía Utatlán 	7	Santa Rita 	2	Febrero	2023-08-02T00:00:00	2024-11-08T18:00:00	5	Humedad	80
75453	7	Sololá	704	Santa Lucía Utatlán 	7	Santa Rita 	2	Febrero	2023-08-02T00:00:00	2024-11-08T18:00:00	6	Velocidad del viento	3.2
75454	7	Sololá	704	Santa Lucía Utatlán 	7	Santa Rita 	2	Febrero	2023-08-02T00:00:00	2024-11-08T18:00:00	7	Dirección del viento	3.22
75455	7	Sololá	704	Santa Lucía Utatlán 	7	Santa Rita 	2	Febrero	2023-08-02T00:00:00	2024-11-08T18:00:00	1	Precipitación	0
75456	7	Sololá	704	Santa Lucía Utatlán 	7	Santa Rita 	2	Febrero	2023-08-02T00:00:00	2024-11-08T18:00:00	8	Radiación solar	34
75457	7	Sololá	704	Santa Lucía Utatlán 	7	Santa Rita 	2	Febrero	2023-08-02T00:00:00	2024-11-08T19:00:00	2	Temperatura media	18.6
75458	7	Sololá	704	Santa Lucía Utatlán 	7	Santa Rita 	2	Febrero	2023-08-02T00:00:00	2024-11-08T19:00:00	4	Temperatura máxima	20.8
75459	7	Sololá	704	Santa Lucía Utatlán 	7	Santa Rita 	2	Febrero	2023-08-02T00:00:00	2024-11-08T19:00:00	3	Temperatura mínima	18.6
75460	7	Sololá	704	Santa Lucía Utatlán 	7	Santa Rita 	2	Febrero	2023-08-02T00:00:00	2024-11-08T19:00:00	5	Humedad	70
75461	7	Sololá	704	Santa Lucía Utatlán 	7	Santa Rita 	2	Febrero	2023-08-02T00:00:00	2024-11-08T19:00:00	6	Velocidad del viento	1.6
75462	7	Sololá	704	Santa Lucía Utatlán 	7	Santa Rita 	2	Febrero	2023-08-02T00:00:00	2024-11-08T19:00:00	7	Dirección del viento	1.61
75463	7	Sololá	704	Santa Lucía Utatlán 	7	Santa Rita 	2	Febrero	2023-08-02T00:00:00	2024-11-08T19:00:00	1	Precipitación	0
75464	7	Sololá	704	Santa Lucía Utatlán 	7	Santa Rita 	2	Febrero	2023-08-02T00:00:00	2024-11-08T19:00:00	8	Radiación solar	0
75465	7	Sololá	704	Santa Lucía Utatlán 	7	Santa Rita 	2	Febrero	2023-08-02T00:00:00	2024-11-08T20:00:00	2	Temperatura media	17.2
75466	7	Sololá	704	Santa Lucía Utatlán 	7	Santa Rita 	2	Febrero	2023-08-02T00:00:00	2024-11-08T20:00:00	4	Temperatura máxima	18.6
75467	7	Sololá	704	Santa Lucía Utatlán 	7	Santa Rita 	2	Febrero	2023-08-02T00:00:00	2024-11-08T20:00:00	3	Temperatura mínima	17.2
75468	7	Sololá	704	Santa Lucía Utatlán 	7	Santa Rita 	2	Febrero	2023-08-02T00:00:00	2024-11-08T20:00:00	5	Humedad	74
75469	7	Sololá	704	Santa Lucía Utatlán 	7	Santa Rita 	2	Febrero	2023-08-02T00:00:00	2024-11-08T20:00:00	6	Velocidad del viento	3.2
75470	7	Sololá	704	Santa Lucía Utatlán 	7	Santa Rita 	2	Febrero	2023-08-02T00:00:00	2024-11-08T20:00:00	7	Dirección del viento	3.22
75471	7	Sololá	704	Santa Lucía Utatlán 	7	Santa Rita 	2	Febrero	2023-08-02T00:00:00	2024-11-08T20:00:00	1	Precipitación	0
75472	7	Sololá	704	Santa Lucía Utatlán 	7	Santa Rita 	2	Febrero	2023-08-02T00:00:00	2024-11-08T20:00:00	8	Radiación solar	0
75473	7	Sololá	704	Santa Lucía Utatlán 	7	Santa Rita 	2	Febrero	2023-08-02T00:00:00	2024-11-08T21:00:00	2	Temperatura media	17.6
75474	7	Sololá	704	Santa Lucía Utatlán 	7	Santa Rita 	2	Febrero	2023-08-02T00:00:00	2024-11-08T21:00:00	4	Temperatura máxima	17.8
75475	7	Sololá	704	Santa Lucía Utatlán 	7	Santa Rita 	2	Febrero	2023-08-02T00:00:00	2024-11-08T21:00:00	3	Temperatura mínima	16.9
75476	7	Sololá	704	Santa Lucía Utatlán 	7	Santa Rita 	2	Febrero	2023-08-02T00:00:00	2024-11-08T21:00:00	5	Humedad	77
75477	7	Sololá	704	Santa Lucía Utatlán 	7	Santa Rita 	2	Febrero	2023-08-02T00:00:00	2024-11-08T21:00:00	6	Velocidad del viento	3.2
75478	7	Sololá	704	Santa Lucía Utatlán 	7	Santa Rita 	2	Febrero	2023-08-02T00:00:00	2024-11-08T21:00:00	7	Dirección del viento	3.22
75479	7	Sololá	704	Santa Lucía Utatlán 	7	Santa Rita 	2	Febrero	2023-08-02T00:00:00	2024-11-08T21:00:00	1	Precipitación	0
75480	7	Sololá	704	Santa Lucía Utatlán 	7	Santa Rita 	2	Febrero	2023-08-02T00:00:00	2024-11-08T21:00:00	8	Radiación solar	0
75481	7	Sololá	704	Santa Lucía Utatlán 	7	Santa Rita 	2	Febrero	2023-08-02T00:00:00	2024-11-08T22:00:00	2	Temperatura media	18.1
75482	7	Sololá	704	Santa Lucía Utatlán 	7	Santa Rita 	2	Febrero	2023-08-02T00:00:00	2024-11-08T22:00:00	4	Temperatura máxima	18.1
75483	7	Sololá	704	Santa Lucía Utatlán 	7	Santa Rita 	2	Febrero	2023-08-02T00:00:00	2024-11-08T22:00:00	3	Temperatura mínima	17.6
75484	7	Sololá	704	Santa Lucía Utatlán 	7	Santa Rita 	2	Febrero	2023-08-02T00:00:00	2024-11-08T22:00:00	5	Humedad	78
75485	7	Sololá	704	Santa Lucía Utatlán 	7	Santa Rita 	2	Febrero	2023-08-02T00:00:00	2024-11-08T22:00:00	6	Velocidad del viento	1.6
75486	7	Sololá	704	Santa Lucía Utatlán 	7	Santa Rita 	2	Febrero	2023-08-02T00:00:00	2024-11-08T22:00:00	7	Dirección del viento	1.61
75487	7	Sololá	704	Santa Lucía Utatlán 	7	Santa Rita 	2	Febrero	2023-08-02T00:00:00	2024-11-08T22:00:00	1	Precipitación	0
75488	7	Sololá	704	Santa Lucía Utatlán 	7	Santa Rita 	2	Febrero	2023-08-02T00:00:00	2024-11-08T22:00:00	8	Radiación solar	0
75489	7	Sololá	704	Santa Lucía Utatlán 	7	Santa Rita 	2	Febrero	2023-08-02T00:00:00	2024-11-08T23:00:00	2	Temperatura media	17
75490	7	Sololá	704	Santa Lucía Utatlán 	7	Santa Rita 	2	Febrero	2023-08-02T00:00:00	2024-11-08T23:00:00	4	Temperatura máxima	18.1
75491	7	Sololá	704	Santa Lucía Utatlán 	7	Santa Rita 	2	Febrero	2023-08-02T00:00:00	2024-11-08T23:00:00	3	Temperatura mínima	16.9
75492	7	Sololá	704	Santa Lucía Utatlán 	7	Santa Rita 	2	Febrero	2023-08-02T00:00:00	2024-11-08T23:00:00	5	Humedad	81
75493	7	Sololá	704	Santa Lucía Utatlán 	7	Santa Rita 	2	Febrero	2023-08-02T00:00:00	2024-11-08T23:00:00	6	Velocidad del viento	1.6
75494	7	Sololá	704	Santa Lucía Utatlán 	7	Santa Rita 	2	Febrero	2023-08-02T00:00:00	2024-11-08T23:00:00	7	Dirección del viento	1.61
75495	7	Sololá	704	Santa Lucía Utatlán 	7	Santa Rita 	2	Febrero	2023-08-02T00:00:00	2024-11-08T23:00:00	1	Precipitación	0
75496	7	Sololá	704	Santa Lucía Utatlán 	7	Santa Rita 	2	Febrero	2023-08-02T00:00:00	2024-11-08T23:00:00	8	Radiación solar	0
75497	7	Sololá	704	Santa Lucía Utatlán 	7	Santa Rita 	2	Febrero	2023-09-02T00:00:00	2024-11-08T00:00:00	2	Temperatura media	16.2
75498	7	Sololá	704	Santa Lucía Utatlán 	7	Santa Rita 	2	Febrero	2023-09-02T00:00:00	2024-11-08T00:00:00	4	Temperatura máxima	17
75499	7	Sololá	704	Santa Lucía Utatlán 	7	Santa Rita 	2	Febrero	2023-09-02T00:00:00	2024-11-08T00:00:00	3	Temperatura mínima	16.2
75500	7	Sololá	704	Santa Lucía Utatlán 	7	Santa Rita 	2	Febrero	2023-09-02T00:00:00	2024-11-08T00:00:00	5	Humedad	81
75501	7	Sololá	704	Santa Lucía Utatlán 	7	Santa Rita 	2	Febrero	2023-09-02T00:00:00	2024-11-08T00:00:00	6	Velocidad del viento	3.2
75502	7	Sololá	704	Santa Lucía Utatlán 	7	Santa Rita 	2	Febrero	2023-09-02T00:00:00	2024-11-08T00:00:00	7	Dirección del viento	3.22
75503	7	Sololá	704	Santa Lucía Utatlán 	7	Santa Rita 	2	Febrero	2023-09-02T00:00:00	2024-11-08T00:00:00	1	Precipitación	0
75504	7	Sololá	704	Santa Lucía Utatlán 	7	Santa Rita 	2	Febrero	2023-09-02T00:00:00	2024-11-08T00:00:00	8	Radiación solar	0
75505	7	Sololá	704	Santa Lucía Utatlán 	7	Santa Rita 	2	Febrero	2023-09-02T00:00:00	2024-11-08T01:00:00	2	Temperatura media	15.5
75506	7	Sololá	704	Santa Lucía Utatlán 	7	Santa Rita 	2	Febrero	2023-09-02T00:00:00	2024-11-08T01:00:00	4	Temperatura máxima	16.2
75507	7	Sololá	704	Santa Lucía Utatlán 	7	Santa Rita 	2	Febrero	2023-09-02T00:00:00	2024-11-08T01:00:00	3	Temperatura mínima	15.4
75508	7	Sololá	704	Santa Lucía Utatlán 	7	Santa Rita 	2	Febrero	2023-09-02T00:00:00	2024-11-08T01:00:00	5	Humedad	81
75509	7	Sololá	704	Santa Lucía Utatlán 	7	Santa Rita 	2	Febrero	2023-09-02T00:00:00	2024-11-08T01:00:00	6	Velocidad del viento	3.2
75510	7	Sololá	704	Santa Lucía Utatlán 	7	Santa Rita 	2	Febrero	2023-09-02T00:00:00	2024-11-08T01:00:00	7	Dirección del viento	3.22
75511	7	Sololá	704	Santa Lucía Utatlán 	7	Santa Rita 	2	Febrero	2023-09-02T00:00:00	2024-11-08T01:00:00	1	Precipitación	0
75512	7	Sololá	704	Santa Lucía Utatlán 	7	Santa Rita 	2	Febrero	2023-09-02T00:00:00	2024-11-08T01:00:00	8	Radiación solar	0
75513	7	Sololá	704	Santa Lucía Utatlán 	7	Santa Rita 	2	Febrero	2023-09-02T00:00:00	2024-11-08T02:00:00	2	Temperatura media	15.5
75514	7	Sololá	704	Santa Lucía Utatlán 	7	Santa Rita 	2	Febrero	2023-09-02T00:00:00	2024-11-08T02:00:00	4	Temperatura máxima	15.7
75515	7	Sololá	704	Santa Lucía Utatlán 	7	Santa Rita 	2	Febrero	2023-09-02T00:00:00	2024-11-08T02:00:00	3	Temperatura mínima	15.3
75516	7	Sololá	704	Santa Lucía Utatlán 	7	Santa Rita 	2	Febrero	2023-09-02T00:00:00	2024-11-08T02:00:00	5	Humedad	77
75517	7	Sololá	704	Santa Lucía Utatlán 	7	Santa Rita 	2	Febrero	2023-09-02T00:00:00	2024-11-08T02:00:00	6	Velocidad del viento	4.8
75518	7	Sololá	704	Santa Lucía Utatlán 	7	Santa Rita 	2	Febrero	2023-09-02T00:00:00	2024-11-08T02:00:00	7	Dirección del viento	4.83
75519	7	Sololá	704	Santa Lucía Utatlán 	7	Santa Rita 	2	Febrero	2023-09-02T00:00:00	2024-11-08T02:00:00	1	Precipitación	0
75520	7	Sololá	704	Santa Lucía Utatlán 	7	Santa Rita 	2	Febrero	2023-09-02T00:00:00	2024-11-08T02:00:00	8	Radiación solar	0
75521	7	Sololá	704	Santa Lucía Utatlán 	7	Santa Rita 	2	Febrero	2023-09-02T00:00:00	2024-11-08T03:00:00	2	Temperatura media	15.9
75522	7	Sololá	704	Santa Lucía Utatlán 	7	Santa Rita 	2	Febrero	2023-09-02T00:00:00	2024-11-08T03:00:00	4	Temperatura máxima	16.1
75523	7	Sololá	704	Santa Lucía Utatlán 	7	Santa Rita 	2	Febrero	2023-09-02T00:00:00	2024-11-08T03:00:00	3	Temperatura mínima	15.4
75524	7	Sololá	704	Santa Lucía Utatlán 	7	Santa Rita 	2	Febrero	2023-09-02T00:00:00	2024-11-08T03:00:00	5	Humedad	72
75525	7	Sololá	704	Santa Lucía Utatlán 	7	Santa Rita 	2	Febrero	2023-09-02T00:00:00	2024-11-08T03:00:00	6	Velocidad del viento	4.8
75526	7	Sololá	704	Santa Lucía Utatlán 	7	Santa Rita 	2	Febrero	2023-09-02T00:00:00	2024-11-08T03:00:00	7	Dirección del viento	4.83
75527	7	Sololá	704	Santa Lucía Utatlán 	7	Santa Rita 	2	Febrero	2023-09-02T00:00:00	2024-11-08T03:00:00	1	Precipitación	0
75528	7	Sololá	704	Santa Lucía Utatlán 	7	Santa Rita 	2	Febrero	2023-09-02T00:00:00	2024-11-08T03:00:00	8	Radiación solar	0
75529	7	Sololá	704	Santa Lucía Utatlán 	7	Santa Rita 	2	Febrero	2023-09-02T00:00:00	2024-11-08T04:00:00	2	Temperatura media	17.8
75530	7	Sololá	704	Santa Lucía Utatlán 	7	Santa Rita 	2	Febrero	2023-09-02T00:00:00	2024-11-08T04:00:00	4	Temperatura máxima	17.8
75531	7	Sololá	704	Santa Lucía Utatlán 	7	Santa Rita 	2	Febrero	2023-09-02T00:00:00	2024-11-08T04:00:00	3	Temperatura mínima	15.8
75532	7	Sololá	704	Santa Lucía Utatlán 	7	Santa Rita 	2	Febrero	2023-09-02T00:00:00	2024-11-08T04:00:00	5	Humedad	65
75533	7	Sololá	704	Santa Lucía Utatlán 	7	Santa Rita 	2	Febrero	2023-09-02T00:00:00	2024-11-08T04:00:00	6	Velocidad del viento	4.8
75534	7	Sololá	704	Santa Lucía Utatlán 	7	Santa Rita 	2	Febrero	2023-09-02T00:00:00	2024-11-08T04:00:00	7	Dirección del viento	4.83
75535	7	Sololá	704	Santa Lucía Utatlán 	7	Santa Rita 	2	Febrero	2023-09-02T00:00:00	2024-11-08T04:00:00	1	Precipitación	0
75536	7	Sololá	704	Santa Lucía Utatlán 	7	Santa Rita 	2	Febrero	2023-09-02T00:00:00	2024-11-08T04:00:00	8	Radiación solar	0
75537	7	Sololá	704	Santa Lucía Utatlán 	7	Santa Rita 	2	Febrero	2023-09-02T00:00:00	2024-11-08T05:00:00	2	Temperatura media	16
75538	7	Sololá	704	Santa Lucía Utatlán 	7	Santa Rita 	2	Febrero	2023-09-02T00:00:00	2024-11-08T05:00:00	4	Temperatura máxima	18.2
75539	7	Sololá	704	Santa Lucía Utatlán 	7	Santa Rita 	2	Febrero	2023-09-02T00:00:00	2024-11-08T05:00:00	3	Temperatura mínima	15.9
75540	7	Sololá	704	Santa Lucía Utatlán 	7	Santa Rita 	2	Febrero	2023-09-02T00:00:00	2024-11-08T05:00:00	5	Humedad	67
75541	7	Sololá	704	Santa Lucía Utatlán 	7	Santa Rita 	2	Febrero	2023-09-02T00:00:00	2024-11-08T05:00:00	6	Velocidad del viento	3.2
75542	7	Sololá	704	Santa Lucía Utatlán 	7	Santa Rita 	2	Febrero	2023-09-02T00:00:00	2024-11-08T05:00:00	7	Dirección del viento	3.22
75543	7	Sololá	704	Santa Lucía Utatlán 	7	Santa Rita 	2	Febrero	2023-09-02T00:00:00	2024-11-08T05:00:00	1	Precipitación	0
75544	7	Sololá	704	Santa Lucía Utatlán 	7	Santa Rita 	2	Febrero	2023-09-02T00:00:00	2024-11-08T05:00:00	8	Radiación solar	0
75545	7	Sololá	704	Santa Lucía Utatlán 	7	Santa Rita 	2	Febrero	2023-09-02T00:00:00	2024-11-08T06:00:00	2	Temperatura media	17
75546	7	Sololá	704	Santa Lucía Utatlán 	7	Santa Rita 	2	Febrero	2023-09-02T00:00:00	2024-11-08T06:00:00	4	Temperatura máxima	18.5
75547	7	Sololá	704	Santa Lucía Utatlán 	7	Santa Rita 	2	Febrero	2023-09-02T00:00:00	2024-11-08T06:00:00	3	Temperatura mínima	15.8
75548	7	Sololá	704	Santa Lucía Utatlán 	7	Santa Rita 	2	Febrero	2023-09-02T00:00:00	2024-11-08T06:00:00	5	Humedad	59
75549	7	Sololá	704	Santa Lucía Utatlán 	7	Santa Rita 	2	Febrero	2023-09-02T00:00:00	2024-11-08T06:00:00	6	Velocidad del viento	3.2
75550	7	Sololá	704	Santa Lucía Utatlán 	7	Santa Rita 	2	Febrero	2023-09-02T00:00:00	2024-11-08T06:00:00	7	Dirección del viento	3.22
75551	7	Sololá	704	Santa Lucía Utatlán 	7	Santa Rita 	2	Febrero	2023-09-02T00:00:00	2024-11-08T06:00:00	1	Precipitación	0
75552	7	Sololá	704	Santa Lucía Utatlán 	7	Santa Rita 	2	Febrero	2023-09-02T00:00:00	2024-11-08T06:00:00	8	Radiación solar	0
75553	7	Sololá	704	Santa Lucía Utatlán 	7	Santa Rita 	2	Febrero	2023-09-02T00:00:00	2024-11-08T07:00:00	2	Temperatura media	17.7
75554	7	Sololá	704	Santa Lucía Utatlán 	7	Santa Rita 	2	Febrero	2023-09-02T00:00:00	2024-11-08T07:00:00	4	Temperatura máxima	17.7
75555	7	Sololá	704	Santa Lucía Utatlán 	7	Santa Rita 	2	Febrero	2023-09-02T00:00:00	2024-11-08T07:00:00	3	Temperatura mínima	16.8
75556	7	Sololá	704	Santa Lucía Utatlán 	7	Santa Rita 	2	Febrero	2023-09-02T00:00:00	2024-11-08T07:00:00	5	Humedad	49
75557	7	Sololá	704	Santa Lucía Utatlán 	7	Santa Rita 	2	Febrero	2023-09-02T00:00:00	2024-11-08T07:00:00	6	Velocidad del viento	3.2
75558	7	Sololá	704	Santa Lucía Utatlán 	7	Santa Rita 	2	Febrero	2023-09-02T00:00:00	2024-11-08T07:00:00	7	Dirección del viento	3.22
75559	7	Sololá	704	Santa Lucía Utatlán 	7	Santa Rita 	2	Febrero	2023-09-02T00:00:00	2024-11-08T07:00:00	1	Precipitación	0
75560	7	Sololá	704	Santa Lucía Utatlán 	7	Santa Rita 	2	Febrero	2023-09-02T00:00:00	2024-11-08T07:00:00	8	Radiación solar	6
75561	7	Sololá	704	Santa Lucía Utatlán 	7	Santa Rita 	2	Febrero	2023-09-02T00:00:00	2024-11-08T08:00:00	2	Temperatura media	21.2
75562	7	Sololá	704	Santa Lucía Utatlán 	7	Santa Rita 	2	Febrero	2023-09-02T00:00:00	2024-11-08T08:00:00	4	Temperatura máxima	21.2
75563	7	Sololá	704	Santa Lucía Utatlán 	7	Santa Rita 	2	Febrero	2023-09-02T00:00:00	2024-11-08T08:00:00	3	Temperatura mínima	17.8
75564	7	Sololá	704	Santa Lucía Utatlán 	7	Santa Rita 	2	Febrero	2023-09-02T00:00:00	2024-11-08T08:00:00	5	Humedad	35
75565	7	Sololá	704	Santa Lucía Utatlán 	7	Santa Rita 	2	Febrero	2023-09-02T00:00:00	2024-11-08T08:00:00	6	Velocidad del viento	6.4
75566	7	Sololá	704	Santa Lucía Utatlán 	7	Santa Rita 	2	Febrero	2023-09-02T00:00:00	2024-11-08T08:00:00	7	Dirección del viento	6.44
75567	7	Sololá	704	Santa Lucía Utatlán 	7	Santa Rita 	2	Febrero	2023-09-02T00:00:00	2024-11-08T08:00:00	1	Precipitación	0
75568	7	Sololá	704	Santa Lucía Utatlán 	7	Santa Rita 	2	Febrero	2023-09-02T00:00:00	2024-11-08T08:00:00	8	Radiación solar	152
75569	7	Sololá	704	Santa Lucía Utatlán 	7	Santa Rita 	2	Febrero	2023-09-02T00:00:00	2024-11-08T09:00:00	2	Temperatura media	22.4
75570	7	Sololá	704	Santa Lucía Utatlán 	7	Santa Rita 	2	Febrero	2023-09-02T00:00:00	2024-11-08T09:00:00	4	Temperatura máxima	22.4
75571	7	Sololá	704	Santa Lucía Utatlán 	7	Santa Rita 	2	Febrero	2023-09-02T00:00:00	2024-11-08T09:00:00	3	Temperatura mínima	21.2
75572	7	Sololá	704	Santa Lucía Utatlán 	7	Santa Rita 	2	Febrero	2023-09-02T00:00:00	2024-11-08T09:00:00	5	Humedad	32
75573	7	Sololá	704	Santa Lucía Utatlán 	7	Santa Rita 	2	Febrero	2023-09-02T00:00:00	2024-11-08T09:00:00	6	Velocidad del viento	9.7
75574	7	Sololá	704	Santa Lucía Utatlán 	7	Santa Rita 	2	Febrero	2023-09-02T00:00:00	2024-11-08T09:00:00	7	Dirección del viento	9.66
75575	7	Sololá	704	Santa Lucía Utatlán 	7	Santa Rita 	2	Febrero	2023-09-02T00:00:00	2024-11-08T09:00:00	1	Precipitación	0
75576	7	Sololá	704	Santa Lucía Utatlán 	7	Santa Rita 	2	Febrero	2023-09-02T00:00:00	2024-11-08T09:00:00	8	Radiación solar	399
75577	7	Sololá	704	Santa Lucía Utatlán 	7	Santa Rita 	2	Febrero	2023-09-02T00:00:00	2024-11-08T10:00:00	2	Temperatura media	23.2
75578	7	Sololá	704	Santa Lucía Utatlán 	7	Santa Rita 	2	Febrero	2023-09-02T00:00:00	2024-11-08T10:00:00	4	Temperatura máxima	23.2
75579	7	Sololá	704	Santa Lucía Utatlán 	7	Santa Rita 	2	Febrero	2023-09-02T00:00:00	2024-11-08T10:00:00	3	Temperatura mínima	22.4
75580	7	Sololá	704	Santa Lucía Utatlán 	7	Santa Rita 	2	Febrero	2023-09-02T00:00:00	2024-11-08T10:00:00	5	Humedad	36
75581	7	Sololá	704	Santa Lucía Utatlán 	7	Santa Rita 	2	Febrero	2023-09-02T00:00:00	2024-11-08T10:00:00	6	Velocidad del viento	8
75582	7	Sololá	704	Santa Lucía Utatlán 	7	Santa Rita 	2	Febrero	2023-09-02T00:00:00	2024-11-08T10:00:00	7	Dirección del viento	8.05
75583	7	Sololá	704	Santa Lucía Utatlán 	7	Santa Rita 	2	Febrero	2023-09-02T00:00:00	2024-11-08T10:00:00	1	Precipitación	0
75584	7	Sololá	704	Santa Lucía Utatlán 	7	Santa Rita 	2	Febrero	2023-09-02T00:00:00	2024-11-08T10:00:00	8	Radiación solar	602
75585	7	Sololá	704	Santa Lucía Utatlán 	7	Santa Rita 	2	Febrero	2023-09-02T00:00:00	2024-11-08T11:00:00	2	Temperatura media	23.2
75586	7	Sololá	704	Santa Lucía Utatlán 	7	Santa Rita 	2	Febrero	2023-09-02T00:00:00	2024-11-08T11:00:00	4	Temperatura máxima	23.7
75587	7	Sololá	704	Santa Lucía Utatlán 	7	Santa Rita 	2	Febrero	2023-09-02T00:00:00	2024-11-08T11:00:00	3	Temperatura mínima	23
75588	7	Sololá	704	Santa Lucía Utatlán 	7	Santa Rita 	2	Febrero	2023-09-02T00:00:00	2024-11-08T11:00:00	5	Humedad	40
75589	7	Sololá	704	Santa Lucía Utatlán 	7	Santa Rita 	2	Febrero	2023-09-02T00:00:00	2024-11-08T11:00:00	6	Velocidad del viento	9.7
75590	7	Sololá	704	Santa Lucía Utatlán 	7	Santa Rita 	2	Febrero	2023-09-02T00:00:00	2024-11-08T11:00:00	7	Dirección del viento	9.66
75591	7	Sololá	704	Santa Lucía Utatlán 	7	Santa Rita 	2	Febrero	2023-09-02T00:00:00	2024-11-08T11:00:00	1	Precipitación	0
75592	7	Sololá	704	Santa Lucía Utatlán 	7	Santa Rita 	2	Febrero	2023-09-02T00:00:00	2024-11-08T11:00:00	8	Radiación solar	757
75593	7	Sololá	704	Santa Lucía Utatlán 	7	Santa Rita 	2	Febrero	2023-09-02T00:00:00	2024-11-08T12:00:00	2	Temperatura media	23.9
75594	7	Sololá	704	Santa Lucía Utatlán 	7	Santa Rita 	2	Febrero	2023-09-02T00:00:00	2024-11-08T12:00:00	4	Temperatura máxima	24.1
75595	7	Sololá	704	Santa Lucía Utatlán 	7	Santa Rita 	2	Febrero	2023-09-02T00:00:00	2024-11-08T12:00:00	3	Temperatura mínima	23
75596	7	Sololá	704	Santa Lucía Utatlán 	7	Santa Rita 	2	Febrero	2023-09-02T00:00:00	2024-11-08T12:00:00	5	Humedad	44
75597	7	Sololá	704	Santa Lucía Utatlán 	7	Santa Rita 	2	Febrero	2023-09-02T00:00:00	2024-11-08T12:00:00	6	Velocidad del viento	12.9
75598	7	Sololá	704	Santa Lucía Utatlán 	7	Santa Rita 	2	Febrero	2023-09-02T00:00:00	2024-11-08T12:00:00	7	Dirección del viento	12.87
75599	7	Sololá	704	Santa Lucía Utatlán 	7	Santa Rita 	2	Febrero	2023-09-02T00:00:00	2024-11-08T12:00:00	1	Precipitación	0
75600	7	Sololá	704	Santa Lucía Utatlán 	7	Santa Rita 	2	Febrero	2023-09-02T00:00:00	2024-11-08T12:00:00	8	Radiación solar	853
75601	7	Sololá	704	Santa Lucía Utatlán 	7	Santa Rita 	2	Febrero	2023-09-02T00:00:00	2024-11-08T13:00:00	2	Temperatura media	25.6
75602	7	Sololá	704	Santa Lucía Utatlán 	7	Santa Rita 	2	Febrero	2023-09-02T00:00:00	2024-11-08T13:00:00	4	Temperatura máxima	25.7
75603	7	Sololá	704	Santa Lucía Utatlán 	7	Santa Rita 	2	Febrero	2023-09-02T00:00:00	2024-11-08T13:00:00	3	Temperatura mínima	23.9
75604	7	Sololá	704	Santa Lucía Utatlán 	7	Santa Rita 	2	Febrero	2023-09-02T00:00:00	2024-11-08T13:00:00	5	Humedad	29
75605	7	Sololá	704	Santa Lucía Utatlán 	7	Santa Rita 	2	Febrero	2023-09-02T00:00:00	2024-11-08T13:00:00	6	Velocidad del viento	12.9
75606	7	Sololá	704	Santa Lucía Utatlán 	7	Santa Rita 	2	Febrero	2023-09-02T00:00:00	2024-11-08T13:00:00	7	Dirección del viento	12.87
75607	7	Sololá	704	Santa Lucía Utatlán 	7	Santa Rita 	2	Febrero	2023-09-02T00:00:00	2024-11-08T13:00:00	1	Precipitación	0
75608	7	Sololá	704	Santa Lucía Utatlán 	7	Santa Rita 	2	Febrero	2023-09-02T00:00:00	2024-11-08T13:00:00	8	Radiación solar	887
75609	7	Sololá	704	Santa Lucía Utatlán 	7	Santa Rita 	2	Febrero	2023-09-02T00:00:00	2024-11-08T14:00:00	2	Temperatura media	25.6
75610	7	Sololá	704	Santa Lucía Utatlán 	7	Santa Rita 	2	Febrero	2023-09-02T00:00:00	2024-11-08T14:00:00	4	Temperatura máxima	26.3
75611	7	Sololá	704	Santa Lucía Utatlán 	7	Santa Rita 	2	Febrero	2023-09-02T00:00:00	2024-11-08T14:00:00	3	Temperatura mínima	25.3
75612	7	Sololá	704	Santa Lucía Utatlán 	7	Santa Rita 	2	Febrero	2023-09-02T00:00:00	2024-11-08T14:00:00	5	Humedad	30
75613	7	Sololá	704	Santa Lucía Utatlán 	7	Santa Rita 	2	Febrero	2023-09-02T00:00:00	2024-11-08T14:00:00	6	Velocidad del viento	9.7
75614	7	Sololá	704	Santa Lucía Utatlán 	7	Santa Rita 	2	Febrero	2023-09-02T00:00:00	2024-11-08T14:00:00	7	Dirección del viento	9.66
75615	7	Sololá	704	Santa Lucía Utatlán 	7	Santa Rita 	2	Febrero	2023-09-02T00:00:00	2024-11-08T14:00:00	1	Precipitación	0
75616	7	Sololá	704	Santa Lucía Utatlán 	7	Santa Rita 	2	Febrero	2023-09-02T00:00:00	2024-11-08T14:00:00	8	Radiación solar	835
75617	7	Sololá	704	Santa Lucía Utatlán 	7	Santa Rita 	2	Febrero	2023-09-02T00:00:00	2024-11-08T15:00:00	2	Temperatura media	24.3
75618	7	Sololá	704	Santa Lucía Utatlán 	7	Santa Rita 	2	Febrero	2023-09-02T00:00:00	2024-11-08T15:00:00	4	Temperatura máxima	25.6
75619	7	Sololá	704	Santa Lucía Utatlán 	7	Santa Rita 	2	Febrero	2023-09-02T00:00:00	2024-11-08T15:00:00	3	Temperatura mínima	24.2
75620	7	Sololá	704	Santa Lucía Utatlán 	7	Santa Rita 	2	Febrero	2023-09-02T00:00:00	2024-11-08T15:00:00	5	Humedad	39
75621	7	Sololá	704	Santa Lucía Utatlán 	7	Santa Rita 	2	Febrero	2023-09-02T00:00:00	2024-11-08T15:00:00	6	Velocidad del viento	12.9
75622	7	Sololá	704	Santa Lucía Utatlán 	7	Santa Rita 	2	Febrero	2023-09-02T00:00:00	2024-11-08T15:00:00	7	Dirección del viento	12.87
75623	7	Sololá	704	Santa Lucía Utatlán 	7	Santa Rita 	2	Febrero	2023-09-02T00:00:00	2024-11-08T15:00:00	1	Precipitación	0
75624	7	Sololá	704	Santa Lucía Utatlán 	7	Santa Rita 	2	Febrero	2023-09-02T00:00:00	2024-11-08T15:00:00	8	Radiación solar	722
75625	7	Sololá	704	Santa Lucía Utatlán 	7	Santa Rita 	2	Febrero	2023-09-02T00:00:00	2024-11-08T16:00:00	2	Temperatura media	23.9
75626	7	Sololá	704	Santa Lucía Utatlán 	7	Santa Rita 	2	Febrero	2023-09-02T00:00:00	2024-11-08T16:00:00	4	Temperatura máxima	24.3
75627	7	Sololá	704	Santa Lucía Utatlán 	7	Santa Rita 	2	Febrero	2023-09-02T00:00:00	2024-11-08T16:00:00	3	Temperatura mínima	23.4
75628	7	Sololá	704	Santa Lucía Utatlán 	7	Santa Rita 	2	Febrero	2023-09-02T00:00:00	2024-11-08T16:00:00	5	Humedad	42
75629	7	Sololá	704	Santa Lucía Utatlán 	7	Santa Rita 	2	Febrero	2023-09-02T00:00:00	2024-11-08T16:00:00	6	Velocidad del viento	11.3
75630	7	Sololá	704	Santa Lucía Utatlán 	7	Santa Rita 	2	Febrero	2023-09-02T00:00:00	2024-11-08T16:00:00	7	Dirección del viento	11.27
75631	7	Sololá	704	Santa Lucía Utatlán 	7	Santa Rita 	2	Febrero	2023-09-02T00:00:00	2024-11-08T16:00:00	1	Precipitación	0
75632	7	Sololá	704	Santa Lucía Utatlán 	7	Santa Rita 	2	Febrero	2023-09-02T00:00:00	2024-11-08T16:00:00	8	Radiación solar	436
75633	7	Sololá	704	Santa Lucía Utatlán 	7	Santa Rita 	2	Febrero	2023-09-02T00:00:00	2024-11-08T17:00:00	2	Temperatura media	22.2
75634	7	Sololá	704	Santa Lucía Utatlán 	7	Santa Rita 	2	Febrero	2023-09-02T00:00:00	2024-11-08T17:00:00	4	Temperatura máxima	24.2
75635	7	Sololá	704	Santa Lucía Utatlán 	7	Santa Rita 	2	Febrero	2023-09-02T00:00:00	2024-11-08T17:00:00	3	Temperatura mínima	22.1
75636	7	Sololá	704	Santa Lucía Utatlán 	7	Santa Rita 	2	Febrero	2023-09-02T00:00:00	2024-11-08T17:00:00	5	Humedad	48
75637	7	Sololá	704	Santa Lucía Utatlán 	7	Santa Rita 	2	Febrero	2023-09-02T00:00:00	2024-11-08T17:00:00	6	Velocidad del viento	11.3
75638	7	Sololá	704	Santa Lucía Utatlán 	7	Santa Rita 	2	Febrero	2023-09-02T00:00:00	2024-11-08T17:00:00	7	Dirección del viento	11.27
75639	7	Sololá	704	Santa Lucía Utatlán 	7	Santa Rita 	2	Febrero	2023-09-02T00:00:00	2024-11-08T17:00:00	1	Precipitación	0
75640	7	Sololá	704	Santa Lucía Utatlán 	7	Santa Rita 	2	Febrero	2023-09-02T00:00:00	2024-11-08T17:00:00	8	Radiación solar	242
75641	7	Sololá	704	Santa Lucía Utatlán 	7	Santa Rita 	2	Febrero	2023-09-02T00:00:00	2024-11-08T18:00:00	2	Temperatura media	20.4
75642	7	Sololá	704	Santa Lucía Utatlán 	7	Santa Rita 	2	Febrero	2023-09-02T00:00:00	2024-11-08T18:00:00	4	Temperatura máxima	22.2
75643	7	Sololá	704	Santa Lucía Utatlán 	7	Santa Rita 	2	Febrero	2023-09-02T00:00:00	2024-11-08T18:00:00	3	Temperatura mínima	20.4
75644	7	Sololá	704	Santa Lucía Utatlán 	7	Santa Rita 	2	Febrero	2023-09-02T00:00:00	2024-11-08T18:00:00	5	Humedad	49
75645	7	Sololá	704	Santa Lucía Utatlán 	7	Santa Rita 	2	Febrero	2023-09-02T00:00:00	2024-11-08T18:00:00	6	Velocidad del viento	3.2
75646	7	Sololá	704	Santa Lucía Utatlán 	7	Santa Rita 	2	Febrero	2023-09-02T00:00:00	2024-11-08T18:00:00	7	Dirección del viento	3.22
75647	7	Sololá	704	Santa Lucía Utatlán 	7	Santa Rita 	2	Febrero	2023-09-02T00:00:00	2024-11-08T18:00:00	1	Precipitación	0
75648	7	Sololá	704	Santa Lucía Utatlán 	7	Santa Rita 	2	Febrero	2023-09-02T00:00:00	2024-11-08T18:00:00	8	Radiación solar	22
75649	7	Sololá	704	Santa Lucía Utatlán 	7	Santa Rita 	2	Febrero	2023-09-02T00:00:00	2024-11-08T19:00:00	2	Temperatura media	18.8
75650	7	Sololá	704	Santa Lucía Utatlán 	7	Santa Rita 	2	Febrero	2023-09-02T00:00:00	2024-11-08T19:00:00	4	Temperatura máxima	20.4
75651	7	Sololá	704	Santa Lucía Utatlán 	7	Santa Rita 	2	Febrero	2023-09-02T00:00:00	2024-11-08T19:00:00	3	Temperatura mínima	18.8
75652	7	Sololá	704	Santa Lucía Utatlán 	7	Santa Rita 	2	Febrero	2023-09-02T00:00:00	2024-11-08T19:00:00	5	Humedad	53
75653	7	Sololá	704	Santa Lucía Utatlán 	7	Santa Rita 	2	Febrero	2023-09-02T00:00:00	2024-11-08T19:00:00	6	Velocidad del viento	3.2
75654	7	Sololá	704	Santa Lucía Utatlán 	7	Santa Rita 	2	Febrero	2023-09-02T00:00:00	2024-11-08T19:00:00	7	Dirección del viento	3.22
75655	7	Sololá	704	Santa Lucía Utatlán 	7	Santa Rita 	2	Febrero	2023-09-02T00:00:00	2024-11-08T19:00:00	1	Precipitación	0
75656	7	Sololá	704	Santa Lucía Utatlán 	7	Santa Rita 	2	Febrero	2023-09-02T00:00:00	2024-11-08T19:00:00	8	Radiación solar	0
75657	7	Sololá	704	Santa Lucía Utatlán 	7	Santa Rita 	2	Febrero	2023-09-02T00:00:00	2024-11-08T20:00:00	2	Temperatura media	19.1
75658	7	Sololá	704	Santa Lucía Utatlán 	7	Santa Rita 	2	Febrero	2023-09-02T00:00:00	2024-11-08T20:00:00	4	Temperatura máxima	19.3
75659	7	Sololá	704	Santa Lucía Utatlán 	7	Santa Rita 	2	Febrero	2023-09-02T00:00:00	2024-11-08T20:00:00	3	Temperatura mínima	18.4
75660	7	Sololá	704	Santa Lucía Utatlán 	7	Santa Rita 	2	Febrero	2023-09-02T00:00:00	2024-11-08T20:00:00	5	Humedad	54
75661	7	Sololá	704	Santa Lucía Utatlán 	7	Santa Rita 	2	Febrero	2023-09-02T00:00:00	2024-11-08T20:00:00	6	Velocidad del viento	6.4
75662	7	Sololá	704	Santa Lucía Utatlán 	7	Santa Rita 	2	Febrero	2023-09-02T00:00:00	2024-11-08T20:00:00	7	Dirección del viento	6.44
75663	7	Sololá	704	Santa Lucía Utatlán 	7	Santa Rita 	2	Febrero	2023-09-02T00:00:00	2024-11-08T20:00:00	1	Precipitación	0
75664	7	Sololá	704	Santa Lucía Utatlán 	7	Santa Rita 	2	Febrero	2023-09-02T00:00:00	2024-11-08T20:00:00	8	Radiación solar	0
75665	7	Sololá	704	Santa Lucía Utatlán 	7	Santa Rita 	2	Febrero	2023-09-02T00:00:00	2024-11-08T21:00:00	2	Temperatura media	18.7
75666	7	Sololá	704	Santa Lucía Utatlán 	7	Santa Rita 	2	Febrero	2023-09-02T00:00:00	2024-11-08T21:00:00	4	Temperatura máxima	19.2
75667	7	Sololá	704	Santa Lucía Utatlán 	7	Santa Rita 	2	Febrero	2023-09-02T00:00:00	2024-11-08T21:00:00	3	Temperatura mínima	18.6
75668	7	Sololá	704	Santa Lucía Utatlán 	7	Santa Rita 	2	Febrero	2023-09-02T00:00:00	2024-11-08T21:00:00	5	Humedad	61
75669	7	Sololá	704	Santa Lucía Utatlán 	7	Santa Rita 	2	Febrero	2023-09-02T00:00:00	2024-11-08T21:00:00	6	Velocidad del viento	4.8
75670	7	Sololá	704	Santa Lucía Utatlán 	7	Santa Rita 	2	Febrero	2023-09-02T00:00:00	2024-11-08T21:00:00	7	Dirección del viento	4.83
75671	7	Sololá	704	Santa Lucía Utatlán 	7	Santa Rita 	2	Febrero	2023-09-02T00:00:00	2024-11-08T21:00:00	1	Precipitación	0
75672	7	Sololá	704	Santa Lucía Utatlán 	7	Santa Rita 	2	Febrero	2023-09-02T00:00:00	2024-11-08T21:00:00	8	Radiación solar	0
75673	7	Sololá	704	Santa Lucía Utatlán 	7	Santa Rita 	2	Febrero	2023-09-02T00:00:00	2024-11-08T22:00:00	2	Temperatura media	15.7
75674	7	Sololá	704	Santa Lucía Utatlán 	7	Santa Rita 	2	Febrero	2023-09-02T00:00:00	2024-11-08T22:00:00	4	Temperatura máxima	18.7
75675	7	Sololá	704	Santa Lucía Utatlán 	7	Santa Rita 	2	Febrero	2023-09-02T00:00:00	2024-11-08T22:00:00	3	Temperatura mínima	15.7
75676	7	Sololá	704	Santa Lucía Utatlán 	7	Santa Rita 	2	Febrero	2023-09-02T00:00:00	2024-11-08T22:00:00	5	Humedad	68
75677	7	Sololá	704	Santa Lucía Utatlán 	7	Santa Rita 	2	Febrero	2023-09-02T00:00:00	2024-11-08T22:00:00	6	Velocidad del viento	3.2
75678	7	Sololá	704	Santa Lucía Utatlán 	7	Santa Rita 	2	Febrero	2023-09-02T00:00:00	2024-11-08T22:00:00	7	Dirección del viento	3.22
75679	7	Sololá	704	Santa Lucía Utatlán 	7	Santa Rita 	2	Febrero	2023-09-02T00:00:00	2024-11-08T22:00:00	1	Precipitación	0
75680	7	Sololá	704	Santa Lucía Utatlán 	7	Santa Rita 	2	Febrero	2023-09-02T00:00:00	2024-11-08T22:00:00	8	Radiación solar	0
75681	7	Sololá	704	Santa Lucía Utatlán 	7	Santa Rita 	2	Febrero	2023-09-02T00:00:00	2024-11-08T23:00:00	2	Temperatura media	14.9
75682	7	Sololá	704	Santa Lucía Utatlán 	7	Santa Rita 	2	Febrero	2023-09-02T00:00:00	2024-11-08T23:00:00	4	Temperatura máxima	15.7
75683	7	Sololá	704	Santa Lucía Utatlán 	7	Santa Rita 	2	Febrero	2023-09-02T00:00:00	2024-11-08T23:00:00	3	Temperatura mínima	14.7
75684	7	Sololá	704	Santa Lucía Utatlán 	7	Santa Rita 	2	Febrero	2023-09-02T00:00:00	2024-11-08T23:00:00	5	Humedad	68
75685	7	Sololá	704	Santa Lucía Utatlán 	7	Santa Rita 	2	Febrero	2023-09-02T00:00:00	2024-11-08T23:00:00	6	Velocidad del viento	3.2
75686	7	Sololá	704	Santa Lucía Utatlán 	7	Santa Rita 	2	Febrero	2023-09-02T00:00:00	2024-11-08T23:00:00	7	Dirección del viento	3.22
75687	7	Sololá	704	Santa Lucía Utatlán 	7	Santa Rita 	2	Febrero	2023-09-02T00:00:00	2024-11-08T23:00:00	1	Precipitación	0
75688	7	Sololá	704	Santa Lucía Utatlán 	7	Santa Rita 	2	Febrero	2023-09-02T00:00:00	2024-11-08T23:00:00	8	Radiación solar	0
75689	7	Sololá	704	Santa Lucía Utatlán 	7	Santa Rita 	2	Febrero	2023-10-02T00:00:00	2024-11-08T00:00:00	2	Temperatura media	16
75690	7	Sololá	704	Santa Lucía Utatlán 	7	Santa Rita 	2	Febrero	2023-10-02T00:00:00	2024-11-08T00:00:00	4	Temperatura máxima	18.1
75691	7	Sololá	704	Santa Lucía Utatlán 	7	Santa Rita 	2	Febrero	2023-10-02T00:00:00	2024-11-08T00:00:00	3	Temperatura mínima	14.9
75692	7	Sololá	704	Santa Lucía Utatlán 	7	Santa Rita 	2	Febrero	2023-10-02T00:00:00	2024-11-08T00:00:00	5	Humedad	72
75693	7	Sololá	704	Santa Lucía Utatlán 	7	Santa Rita 	2	Febrero	2023-10-02T00:00:00	2024-11-08T00:00:00	6	Velocidad del viento	4.8
75694	7	Sololá	704	Santa Lucía Utatlán 	7	Santa Rita 	2	Febrero	2023-10-02T00:00:00	2024-11-08T00:00:00	7	Dirección del viento	4.83
75695	7	Sololá	704	Santa Lucía Utatlán 	7	Santa Rita 	2	Febrero	2023-10-02T00:00:00	2024-11-08T00:00:00	1	Precipitación	0
75696	7	Sololá	704	Santa Lucía Utatlán 	7	Santa Rita 	2	Febrero	2023-10-02T00:00:00	2024-11-08T00:00:00	8	Radiación solar	0
75697	7	Sololá	704	Santa Lucía Utatlán 	7	Santa Rita 	2	Febrero	2023-10-02T00:00:00	2024-11-08T01:00:00	2	Temperatura media	14.8
75698	7	Sololá	704	Santa Lucía Utatlán 	7	Santa Rita 	2	Febrero	2023-10-02T00:00:00	2024-11-08T01:00:00	4	Temperatura máxima	16
75699	7	Sololá	704	Santa Lucía Utatlán 	7	Santa Rita 	2	Febrero	2023-10-02T00:00:00	2024-11-08T01:00:00	3	Temperatura mínima	14.8
75700	7	Sololá	704	Santa Lucía Utatlán 	7	Santa Rita 	2	Febrero	2023-10-02T00:00:00	2024-11-08T01:00:00	5	Humedad	74
75701	7	Sololá	704	Santa Lucía Utatlán 	7	Santa Rita 	2	Febrero	2023-10-02T00:00:00	2024-11-08T01:00:00	6	Velocidad del viento	1.6
75702	7	Sololá	704	Santa Lucía Utatlán 	7	Santa Rita 	2	Febrero	2023-10-02T00:00:00	2024-11-08T01:00:00	7	Dirección del viento	1.61
75703	7	Sololá	704	Santa Lucía Utatlán 	7	Santa Rita 	2	Febrero	2023-10-02T00:00:00	2024-11-08T01:00:00	1	Precipitación	0
75704	7	Sololá	704	Santa Lucía Utatlán 	7	Santa Rita 	2	Febrero	2023-10-02T00:00:00	2024-11-08T01:00:00	8	Radiación solar	0
75705	7	Sololá	704	Santa Lucía Utatlán 	7	Santa Rita 	2	Febrero	2023-10-02T00:00:00	2024-11-08T02:00:00	2	Temperatura media	14.3
75706	7	Sololá	704	Santa Lucía Utatlán 	7	Santa Rita 	2	Febrero	2023-10-02T00:00:00	2024-11-08T02:00:00	4	Temperatura máxima	14.9
75707	7	Sololá	704	Santa Lucía Utatlán 	7	Santa Rita 	2	Febrero	2023-10-02T00:00:00	2024-11-08T02:00:00	3	Temperatura mínima	14.3
75708	7	Sololá	704	Santa Lucía Utatlán 	7	Santa Rita 	2	Febrero	2023-10-02T00:00:00	2024-11-08T02:00:00	5	Humedad	75
75709	7	Sololá	704	Santa Lucía Utatlán 	7	Santa Rita 	2	Febrero	2023-10-02T00:00:00	2024-11-08T02:00:00	6	Velocidad del viento	4.8
75710	7	Sololá	704	Santa Lucía Utatlán 	7	Santa Rita 	2	Febrero	2023-10-02T00:00:00	2024-11-08T02:00:00	7	Dirección del viento	4.83
75711	7	Sololá	704	Santa Lucía Utatlán 	7	Santa Rita 	2	Febrero	2023-10-02T00:00:00	2024-11-08T02:00:00	1	Precipitación	0
75712	7	Sololá	704	Santa Lucía Utatlán 	7	Santa Rita 	2	Febrero	2023-10-02T00:00:00	2024-11-08T02:00:00	8	Radiación solar	0
75713	7	Sololá	704	Santa Lucía Utatlán 	7	Santa Rita 	2	Febrero	2023-10-02T00:00:00	2024-11-08T03:00:00	2	Temperatura media	14.7
75714	7	Sololá	704	Santa Lucía Utatlán 	7	Santa Rita 	2	Febrero	2023-10-02T00:00:00	2024-11-08T03:00:00	4	Temperatura máxima	14.9
75715	7	Sololá	704	Santa Lucía Utatlán 	7	Santa Rita 	2	Febrero	2023-10-02T00:00:00	2024-11-08T03:00:00	3	Temperatura mínima	14.3
75716	7	Sololá	704	Santa Lucía Utatlán 	7	Santa Rita 	2	Febrero	2023-10-02T00:00:00	2024-11-08T03:00:00	5	Humedad	67
75717	7	Sololá	704	Santa Lucía Utatlán 	7	Santa Rita 	2	Febrero	2023-10-02T00:00:00	2024-11-08T03:00:00	6	Velocidad del viento	6.4
75718	7	Sololá	704	Santa Lucía Utatlán 	7	Santa Rita 	2	Febrero	2023-10-02T00:00:00	2024-11-08T03:00:00	7	Dirección del viento	6.44
75719	7	Sololá	704	Santa Lucía Utatlán 	7	Santa Rita 	2	Febrero	2023-10-02T00:00:00	2024-11-08T03:00:00	1	Precipitación	0
75720	7	Sololá	704	Santa Lucía Utatlán 	7	Santa Rita 	2	Febrero	2023-10-02T00:00:00	2024-11-08T03:00:00	8	Radiación solar	0
75721	7	Sololá	704	Santa Lucía Utatlán 	7	Santa Rita 	2	Febrero	2023-10-02T00:00:00	2024-11-08T04:00:00	2	Temperatura media	14.4
75722	7	Sololá	704	Santa Lucía Utatlán 	7	Santa Rita 	2	Febrero	2023-10-02T00:00:00	2024-11-08T04:00:00	4	Temperatura máxima	14.7
75723	7	Sololá	704	Santa Lucía Utatlán 	7	Santa Rita 	2	Febrero	2023-10-02T00:00:00	2024-11-08T04:00:00	3	Temperatura mínima	13.8
75724	7	Sololá	704	Santa Lucía Utatlán 	7	Santa Rita 	2	Febrero	2023-10-02T00:00:00	2024-11-08T04:00:00	5	Humedad	70
75725	7	Sololá	704	Santa Lucía Utatlán 	7	Santa Rita 	2	Febrero	2023-10-02T00:00:00	2024-11-08T04:00:00	6	Velocidad del viento	4.8
75726	7	Sololá	704	Santa Lucía Utatlán 	7	Santa Rita 	2	Febrero	2023-10-02T00:00:00	2024-11-08T04:00:00	7	Dirección del viento	4.83
75727	7	Sololá	704	Santa Lucía Utatlán 	7	Santa Rita 	2	Febrero	2023-10-02T00:00:00	2024-11-08T04:00:00	1	Precipitación	0
75728	7	Sololá	704	Santa Lucía Utatlán 	7	Santa Rita 	2	Febrero	2023-10-02T00:00:00	2024-11-08T04:00:00	8	Radiación solar	0
75729	7	Sololá	704	Santa Lucía Utatlán 	7	Santa Rita 	2	Febrero	2023-10-02T00:00:00	2024-11-08T05:00:00	2	Temperatura media	14.2
75730	7	Sololá	704	Santa Lucía Utatlán 	7	Santa Rita 	2	Febrero	2023-10-02T00:00:00	2024-11-08T05:00:00	4	Temperatura máxima	14.6
75731	7	Sololá	704	Santa Lucía Utatlán 	7	Santa Rita 	2	Febrero	2023-10-02T00:00:00	2024-11-08T05:00:00	3	Temperatura mínima	14.1
75732	7	Sololá	704	Santa Lucía Utatlán 	7	Santa Rita 	2	Febrero	2023-10-02T00:00:00	2024-11-08T05:00:00	5	Humedad	67
75733	7	Sololá	704	Santa Lucía Utatlán 	7	Santa Rita 	2	Febrero	2023-10-02T00:00:00	2024-11-08T05:00:00	6	Velocidad del viento	4.8
75734	7	Sololá	704	Santa Lucía Utatlán 	7	Santa Rita 	2	Febrero	2023-10-02T00:00:00	2024-11-08T05:00:00	7	Dirección del viento	4.83
75735	7	Sololá	704	Santa Lucía Utatlán 	7	Santa Rita 	2	Febrero	2023-10-02T00:00:00	2024-11-08T05:00:00	1	Precipitación	0
75736	7	Sololá	704	Santa Lucía Utatlán 	7	Santa Rita 	2	Febrero	2023-10-02T00:00:00	2024-11-08T05:00:00	8	Radiación solar	0
75737	7	Sololá	704	Santa Lucía Utatlán 	7	Santa Rita 	2	Febrero	2023-10-02T00:00:00	2024-11-08T06:00:00	2	Temperatura media	14.2
75738	7	Sololá	704	Santa Lucía Utatlán 	7	Santa Rita 	2	Febrero	2023-10-02T00:00:00	2024-11-08T06:00:00	4	Temperatura máxima	14.3
75739	7	Sololá	704	Santa Lucía Utatlán 	7	Santa Rita 	2	Febrero	2023-10-02T00:00:00	2024-11-08T06:00:00	3	Temperatura mínima	13.8
75740	7	Sololá	704	Santa Lucía Utatlán 	7	Santa Rita 	2	Febrero	2023-10-02T00:00:00	2024-11-08T06:00:00	5	Humedad	67
75741	7	Sololá	704	Santa Lucía Utatlán 	7	Santa Rita 	2	Febrero	2023-10-02T00:00:00	2024-11-08T06:00:00	6	Velocidad del viento	4.8
75742	7	Sololá	704	Santa Lucía Utatlán 	7	Santa Rita 	2	Febrero	2023-10-02T00:00:00	2024-11-08T06:00:00	7	Dirección del viento	4.83
75743	7	Sololá	704	Santa Lucía Utatlán 	7	Santa Rita 	2	Febrero	2023-10-02T00:00:00	2024-11-08T06:00:00	1	Precipitación	0
75744	7	Sololá	704	Santa Lucía Utatlán 	7	Santa Rita 	2	Febrero	2023-10-02T00:00:00	2024-11-08T06:00:00	8	Radiación solar	0
75745	7	Sololá	704	Santa Lucía Utatlán 	7	Santa Rita 	2	Febrero	2023-10-02T00:00:00	2024-11-08T07:00:00	2	Temperatura media	15.6
75746	7	Sololá	704	Santa Lucía Utatlán 	7	Santa Rita 	2	Febrero	2023-10-02T00:00:00	2024-11-08T07:00:00	4	Temperatura máxima	16.4
75747	7	Sololá	704	Santa Lucía Utatlán 	7	Santa Rita 	2	Febrero	2023-10-02T00:00:00	2024-11-08T07:00:00	3	Temperatura mínima	14.1
75748	7	Sololá	704	Santa Lucía Utatlán 	7	Santa Rita 	2	Febrero	2023-10-02T00:00:00	2024-11-08T07:00:00	5	Humedad	65
75749	7	Sololá	704	Santa Lucía Utatlán 	7	Santa Rita 	2	Febrero	2023-10-02T00:00:00	2024-11-08T07:00:00	6	Velocidad del viento	3.2
75750	7	Sololá	704	Santa Lucía Utatlán 	7	Santa Rita 	2	Febrero	2023-10-02T00:00:00	2024-11-08T07:00:00	7	Dirección del viento	3.22
75751	7	Sololá	704	Santa Lucía Utatlán 	7	Santa Rita 	2	Febrero	2023-10-02T00:00:00	2024-11-08T07:00:00	1	Precipitación	0
75752	7	Sololá	704	Santa Lucía Utatlán 	7	Santa Rita 	2	Febrero	2023-10-02T00:00:00	2024-11-08T07:00:00	8	Radiación solar	6
75753	7	Sololá	704	Santa Lucía Utatlán 	7	Santa Rita 	2	Febrero	2023-10-02T00:00:00	2024-11-08T08:00:00	2	Temperatura media	18.5
75754	7	Sololá	704	Santa Lucía Utatlán 	7	Santa Rita 	2	Febrero	2023-10-02T00:00:00	2024-11-08T08:00:00	4	Temperatura máxima	18.5
75755	7	Sololá	704	Santa Lucía Utatlán 	7	Santa Rita 	2	Febrero	2023-10-02T00:00:00	2024-11-08T08:00:00	3	Temperatura mínima	15.3
75756	7	Sololá	704	Santa Lucía Utatlán 	7	Santa Rita 	2	Febrero	2023-10-02T00:00:00	2024-11-08T08:00:00	5	Humedad	57
75757	7	Sololá	704	Santa Lucía Utatlán 	7	Santa Rita 	2	Febrero	2023-10-02T00:00:00	2024-11-08T08:00:00	6	Velocidad del viento	0
75758	7	Sololá	704	Santa Lucía Utatlán 	7	Santa Rita 	2	Febrero	2023-10-02T00:00:00	2024-11-08T08:00:00	7	Dirección del viento	0
75759	7	Sololá	704	Santa Lucía Utatlán 	7	Santa Rita 	2	Febrero	2023-10-02T00:00:00	2024-11-08T08:00:00	1	Precipitación	0
75760	7	Sololá	704	Santa Lucía Utatlán 	7	Santa Rita 	2	Febrero	2023-10-02T00:00:00	2024-11-08T08:00:00	8	Radiación solar	145
75761	7	Sololá	704	Santa Lucía Utatlán 	7	Santa Rita 	2	Febrero	2023-10-02T00:00:00	2024-11-08T09:00:00	2	Temperatura media	21.1
75762	7	Sololá	704	Santa Lucía Utatlán 	7	Santa Rita 	2	Febrero	2023-10-02T00:00:00	2024-11-08T09:00:00	4	Temperatura máxima	21.1
75763	7	Sololá	704	Santa Lucía Utatlán 	7	Santa Rita 	2	Febrero	2023-10-02T00:00:00	2024-11-08T09:00:00	3	Temperatura mínima	18.5
75764	7	Sololá	704	Santa Lucía Utatlán 	7	Santa Rita 	2	Febrero	2023-10-02T00:00:00	2024-11-08T09:00:00	5	Humedad	44
75765	7	Sololá	704	Santa Lucía Utatlán 	7	Santa Rita 	2	Febrero	2023-10-02T00:00:00	2024-11-08T09:00:00	6	Velocidad del viento	3.2
75766	7	Sololá	704	Santa Lucía Utatlán 	7	Santa Rita 	2	Febrero	2023-10-02T00:00:00	2024-11-08T09:00:00	7	Dirección del viento	3.22
75767	7	Sololá	704	Santa Lucía Utatlán 	7	Santa Rita 	2	Febrero	2023-10-02T00:00:00	2024-11-08T09:00:00	1	Precipitación	0
75768	7	Sololá	704	Santa Lucía Utatlán 	7	Santa Rita 	2	Febrero	2023-10-02T00:00:00	2024-11-08T09:00:00	8	Radiación solar	403
75769	7	Sololá	704	Santa Lucía Utatlán 	7	Santa Rita 	2	Febrero	2023-10-02T00:00:00	2024-11-08T10:00:00	2	Temperatura media	23.8
75770	7	Sololá	704	Santa Lucía Utatlán 	7	Santa Rita 	2	Febrero	2023-10-02T00:00:00	2024-11-08T10:00:00	4	Temperatura máxima	23.8
75771	7	Sololá	704	Santa Lucía Utatlán 	7	Santa Rita 	2	Febrero	2023-10-02T00:00:00	2024-11-08T10:00:00	3	Temperatura mínima	21.1
75772	7	Sololá	704	Santa Lucía Utatlán 	7	Santa Rita 	2	Febrero	2023-10-02T00:00:00	2024-11-08T10:00:00	5	Humedad	36
75773	7	Sololá	704	Santa Lucía Utatlán 	7	Santa Rita 	2	Febrero	2023-10-02T00:00:00	2024-11-08T10:00:00	6	Velocidad del viento	4.8
75774	7	Sololá	704	Santa Lucía Utatlán 	7	Santa Rita 	2	Febrero	2023-10-02T00:00:00	2024-11-08T10:00:00	7	Dirección del viento	4.83
75775	7	Sololá	704	Santa Lucía Utatlán 	7	Santa Rita 	2	Febrero	2023-10-02T00:00:00	2024-11-08T10:00:00	1	Precipitación	0
75776	7	Sololá	704	Santa Lucía Utatlán 	7	Santa Rita 	2	Febrero	2023-10-02T00:00:00	2024-11-08T10:00:00	8	Radiación solar	605
75777	7	Sololá	704	Santa Lucía Utatlán 	7	Santa Rita 	2	Febrero	2023-10-02T00:00:00	2024-11-08T11:00:00	2	Temperatura media	24.5
75778	7	Sololá	704	Santa Lucía Utatlán 	7	Santa Rita 	2	Febrero	2023-10-02T00:00:00	2024-11-08T11:00:00	4	Temperatura máxima	24.8
75779	7	Sololá	704	Santa Lucía Utatlán 	7	Santa Rita 	2	Febrero	2023-10-02T00:00:00	2024-11-08T11:00:00	3	Temperatura mínima	23.7
75780	7	Sololá	704	Santa Lucía Utatlán 	7	Santa Rita 	2	Febrero	2023-10-02T00:00:00	2024-11-08T11:00:00	5	Humedad	28
75781	7	Sololá	704	Santa Lucía Utatlán 	7	Santa Rita 	2	Febrero	2023-10-02T00:00:00	2024-11-08T11:00:00	6	Velocidad del viento	9.7
75782	7	Sololá	704	Santa Lucía Utatlán 	7	Santa Rita 	2	Febrero	2023-10-02T00:00:00	2024-11-08T11:00:00	7	Dirección del viento	9.66
75783	7	Sololá	704	Santa Lucía Utatlán 	7	Santa Rita 	2	Febrero	2023-10-02T00:00:00	2024-11-08T11:00:00	1	Precipitación	0
75784	7	Sololá	704	Santa Lucía Utatlán 	7	Santa Rita 	2	Febrero	2023-10-02T00:00:00	2024-11-08T11:00:00	8	Radiación solar	768
75785	7	Sololá	704	Santa Lucía Utatlán 	7	Santa Rita 	2	Febrero	2023-10-02T00:00:00	2024-11-08T12:00:00	2	Temperatura media	24.4
75786	7	Sololá	704	Santa Lucía Utatlán 	7	Santa Rita 	2	Febrero	2023-10-02T00:00:00	2024-11-08T12:00:00	4	Temperatura máxima	24.7
75787	7	Sololá	704	Santa Lucía Utatlán 	7	Santa Rita 	2	Febrero	2023-10-02T00:00:00	2024-11-08T12:00:00	3	Temperatura mínima	24.2
75788	7	Sololá	704	Santa Lucía Utatlán 	7	Santa Rita 	2	Febrero	2023-10-02T00:00:00	2024-11-08T12:00:00	5	Humedad	34
75789	7	Sololá	704	Santa Lucía Utatlán 	7	Santa Rita 	2	Febrero	2023-10-02T00:00:00	2024-11-08T12:00:00	6	Velocidad del viento	11.3
75790	7	Sololá	704	Santa Lucía Utatlán 	7	Santa Rita 	2	Febrero	2023-10-02T00:00:00	2024-11-08T12:00:00	7	Dirección del viento	11.27
75791	7	Sololá	704	Santa Lucía Utatlán 	7	Santa Rita 	2	Febrero	2023-10-02T00:00:00	2024-11-08T12:00:00	1	Precipitación	0
75792	7	Sololá	704	Santa Lucía Utatlán 	7	Santa Rita 	2	Febrero	2023-10-02T00:00:00	2024-11-08T12:00:00	8	Radiación solar	861
75793	7	Sololá	704	Santa Lucía Utatlán 	7	Santa Rita 	2	Febrero	2023-10-02T00:00:00	2024-11-08T13:00:00	2	Temperatura media	24.8
75794	7	Sololá	704	Santa Lucía Utatlán 	7	Santa Rita 	2	Febrero	2023-10-02T00:00:00	2024-11-08T13:00:00	4	Temperatura máxima	24.9
75795	7	Sololá	704	Santa Lucía Utatlán 	7	Santa Rita 	2	Febrero	2023-10-02T00:00:00	2024-11-08T13:00:00	3	Temperatura mínima	24.4
75796	7	Sololá	704	Santa Lucía Utatlán 	7	Santa Rita 	2	Febrero	2023-10-02T00:00:00	2024-11-08T13:00:00	5	Humedad	36
75797	7	Sololá	704	Santa Lucía Utatlán 	7	Santa Rita 	2	Febrero	2023-10-02T00:00:00	2024-11-08T13:00:00	6	Velocidad del viento	11.3
75798	7	Sololá	704	Santa Lucía Utatlán 	7	Santa Rita 	2	Febrero	2023-10-02T00:00:00	2024-11-08T13:00:00	7	Dirección del viento	11.27
75799	7	Sololá	704	Santa Lucía Utatlán 	7	Santa Rita 	2	Febrero	2023-10-02T00:00:00	2024-11-08T13:00:00	1	Precipitación	0
75800	7	Sololá	704	Santa Lucía Utatlán 	7	Santa Rita 	2	Febrero	2023-10-02T00:00:00	2024-11-08T13:00:00	8	Radiación solar	880
75801	7	Sololá	704	Santa Lucía Utatlán 	7	Santa Rita 	2	Febrero	2023-10-02T00:00:00	2024-11-08T14:00:00	2	Temperatura media	24.1
75802	7	Sololá	704	Santa Lucía Utatlán 	7	Santa Rita 	2	Febrero	2023-10-02T00:00:00	2024-11-08T14:00:00	4	Temperatura máxima	25.1
75803	7	Sololá	704	Santa Lucía Utatlán 	7	Santa Rita 	2	Febrero	2023-10-02T00:00:00	2024-11-08T14:00:00	3	Temperatura mínima	24.1
75804	7	Sololá	704	Santa Lucía Utatlán 	7	Santa Rita 	2	Febrero	2023-10-02T00:00:00	2024-11-08T14:00:00	5	Humedad	54
75805	7	Sololá	704	Santa Lucía Utatlán 	7	Santa Rita 	2	Febrero	2023-10-02T00:00:00	2024-11-08T14:00:00	6	Velocidad del viento	11.3
75806	7	Sololá	704	Santa Lucía Utatlán 	7	Santa Rita 	2	Febrero	2023-10-02T00:00:00	2024-11-08T14:00:00	7	Dirección del viento	11.27
75807	7	Sololá	704	Santa Lucía Utatlán 	7	Santa Rita 	2	Febrero	2023-10-02T00:00:00	2024-11-08T14:00:00	1	Precipitación	0
75808	7	Sololá	704	Santa Lucía Utatlán 	7	Santa Rita 	2	Febrero	2023-10-02T00:00:00	2024-11-08T14:00:00	8	Radiación solar	843
75809	7	Sololá	704	Santa Lucía Utatlán 	7	Santa Rita 	2	Febrero	2023-10-02T00:00:00	2024-11-08T15:00:00	2	Temperatura media	24.2
75810	7	Sololá	704	Santa Lucía Utatlán 	7	Santa Rita 	2	Febrero	2023-10-02T00:00:00	2024-11-08T15:00:00	4	Temperatura máxima	24.7
75811	7	Sololá	704	Santa Lucía Utatlán 	7	Santa Rita 	2	Febrero	2023-10-02T00:00:00	2024-11-08T15:00:00	3	Temperatura mínima	23.9
75812	7	Sololá	704	Santa Lucía Utatlán 	7	Santa Rita 	2	Febrero	2023-10-02T00:00:00	2024-11-08T15:00:00	5	Humedad	60
75813	7	Sololá	704	Santa Lucía Utatlán 	7	Santa Rita 	2	Febrero	2023-10-02T00:00:00	2024-11-08T15:00:00	6	Velocidad del viento	9.7
75814	7	Sololá	704	Santa Lucía Utatlán 	7	Santa Rita 	2	Febrero	2023-10-02T00:00:00	2024-11-08T15:00:00	7	Dirección del viento	9.66
75815	7	Sololá	704	Santa Lucía Utatlán 	7	Santa Rita 	2	Febrero	2023-10-02T00:00:00	2024-11-08T15:00:00	1	Precipitación	0
75816	7	Sololá	704	Santa Lucía Utatlán 	7	Santa Rita 	2	Febrero	2023-10-02T00:00:00	2024-11-08T15:00:00	8	Radiación solar	773
75817	7	Sololá	704	Santa Lucía Utatlán 	7	Santa Rita 	2	Febrero	2023-10-02T00:00:00	2024-11-08T16:00:00	2	Temperatura media	23.2
75818	7	Sololá	704	Santa Lucía Utatlán 	7	Santa Rita 	2	Febrero	2023-10-02T00:00:00	2024-11-08T16:00:00	4	Temperatura máxima	24.2
75819	7	Sololá	704	Santa Lucía Utatlán 	7	Santa Rita 	2	Febrero	2023-10-02T00:00:00	2024-11-08T16:00:00	3	Temperatura mínima	23.2
75820	7	Sololá	704	Santa Lucía Utatlán 	7	Santa Rita 	2	Febrero	2023-10-02T00:00:00	2024-11-08T16:00:00	5	Humedad	54
75821	7	Sololá	704	Santa Lucía Utatlán 	7	Santa Rita 	2	Febrero	2023-10-02T00:00:00	2024-11-08T16:00:00	6	Velocidad del viento	12.9
75822	7	Sololá	704	Santa Lucía Utatlán 	7	Santa Rita 	2	Febrero	2023-10-02T00:00:00	2024-11-08T16:00:00	7	Dirección del viento	12.87
75823	7	Sololá	704	Santa Lucía Utatlán 	7	Santa Rita 	2	Febrero	2023-10-02T00:00:00	2024-11-08T16:00:00	1	Precipitación	0
75824	7	Sololá	704	Santa Lucía Utatlán 	7	Santa Rita 	2	Febrero	2023-10-02T00:00:00	2024-11-08T16:00:00	8	Radiación solar	433
75825	7	Sololá	704	Santa Lucía Utatlán 	7	Santa Rita 	2	Febrero	2023-10-02T00:00:00	2024-11-08T17:00:00	2	Temperatura media	22.4
75826	7	Sololá	704	Santa Lucía Utatlán 	7	Santa Rita 	2	Febrero	2023-10-02T00:00:00	2024-11-08T17:00:00	4	Temperatura máxima	23.3
75827	7	Sololá	704	Santa Lucía Utatlán 	7	Santa Rita 	2	Febrero	2023-10-02T00:00:00	2024-11-08T17:00:00	3	Temperatura mínima	22.4
75828	7	Sololá	704	Santa Lucía Utatlán 	7	Santa Rita 	2	Febrero	2023-10-02T00:00:00	2024-11-08T17:00:00	5	Humedad	58
75829	7	Sololá	704	Santa Lucía Utatlán 	7	Santa Rita 	2	Febrero	2023-10-02T00:00:00	2024-11-08T17:00:00	6	Velocidad del viento	11.3
75830	7	Sololá	704	Santa Lucía Utatlán 	7	Santa Rita 	2	Febrero	2023-10-02T00:00:00	2024-11-08T17:00:00	7	Dirección del viento	11.27
75831	7	Sololá	704	Santa Lucía Utatlán 	7	Santa Rita 	2	Febrero	2023-10-02T00:00:00	2024-11-08T17:00:00	1	Precipitación	0
75832	7	Sololá	704	Santa Lucía Utatlán 	7	Santa Rita 	2	Febrero	2023-10-02T00:00:00	2024-11-08T17:00:00	8	Radiación solar	186
75833	7	Sololá	704	Santa Lucía Utatlán 	7	Santa Rita 	2	Febrero	2023-10-02T00:00:00	2024-11-08T18:00:00	2	Temperatura media	20.6
75834	7	Sololá	704	Santa Lucía Utatlán 	7	Santa Rita 	2	Febrero	2023-10-02T00:00:00	2024-11-08T18:00:00	4	Temperatura máxima	22.4
75835	7	Sololá	704	Santa Lucía Utatlán 	7	Santa Rita 	2	Febrero	2023-10-02T00:00:00	2024-11-08T18:00:00	3	Temperatura mínima	20.6
75836	7	Sololá	704	Santa Lucía Utatlán 	7	Santa Rita 	2	Febrero	2023-10-02T00:00:00	2024-11-08T18:00:00	5	Humedad	64
75837	7	Sololá	704	Santa Lucía Utatlán 	7	Santa Rita 	2	Febrero	2023-10-02T00:00:00	2024-11-08T18:00:00	6	Velocidad del viento	6.4
75838	7	Sololá	704	Santa Lucía Utatlán 	7	Santa Rita 	2	Febrero	2023-10-02T00:00:00	2024-11-08T18:00:00	7	Dirección del viento	6.44
75839	7	Sololá	704	Santa Lucía Utatlán 	7	Santa Rita 	2	Febrero	2023-10-02T00:00:00	2024-11-08T18:00:00	1	Precipitación	0
75840	7	Sololá	704	Santa Lucía Utatlán 	7	Santa Rita 	2	Febrero	2023-10-02T00:00:00	2024-11-08T18:00:00	8	Radiación solar	36
75841	7	Sololá	704	Santa Lucía Utatlán 	7	Santa Rita 	2	Febrero	2023-10-02T00:00:00	2024-11-08T19:00:00	2	Temperatura media	18.1
75842	7	Sololá	704	Santa Lucía Utatlán 	7	Santa Rita 	2	Febrero	2023-10-02T00:00:00	2024-11-08T19:00:00	4	Temperatura máxima	20.6
75843	7	Sololá	704	Santa Lucía Utatlán 	7	Santa Rita 	2	Febrero	2023-10-02T00:00:00	2024-11-08T19:00:00	3	Temperatura mínima	18.1
75844	7	Sololá	704	Santa Lucía Utatlán 	7	Santa Rita 	2	Febrero	2023-10-02T00:00:00	2024-11-08T19:00:00	5	Humedad	73
75845	7	Sololá	704	Santa Lucía Utatlán 	7	Santa Rita 	2	Febrero	2023-10-02T00:00:00	2024-11-08T19:00:00	6	Velocidad del viento	1.6
75846	7	Sololá	704	Santa Lucía Utatlán 	7	Santa Rita 	2	Febrero	2023-10-02T00:00:00	2024-11-08T19:00:00	7	Dirección del viento	1.61
75847	7	Sololá	704	Santa Lucía Utatlán 	7	Santa Rita 	2	Febrero	2023-10-02T00:00:00	2024-11-08T19:00:00	1	Precipitación	0
75848	7	Sololá	704	Santa Lucía Utatlán 	7	Santa Rita 	2	Febrero	2023-10-02T00:00:00	2024-11-08T19:00:00	8	Radiación solar	0
75849	7	Sololá	704	Santa Lucía Utatlán 	7	Santa Rita 	2	Febrero	2023-10-02T00:00:00	2024-11-08T20:00:00	2	Temperatura media	18.8
75850	7	Sololá	704	Santa Lucía Utatlán 	7	Santa Rita 	2	Febrero	2023-10-02T00:00:00	2024-11-08T20:00:00	4	Temperatura máxima	18.8
75851	7	Sololá	704	Santa Lucía Utatlán 	7	Santa Rita 	2	Febrero	2023-10-02T00:00:00	2024-11-08T20:00:00	3	Temperatura mínima	17.1
75852	7	Sololá	704	Santa Lucía Utatlán 	7	Santa Rita 	2	Febrero	2023-10-02T00:00:00	2024-11-08T20:00:00	5	Humedad	69
75853	7	Sololá	704	Santa Lucía Utatlán 	7	Santa Rita 	2	Febrero	2023-10-02T00:00:00	2024-11-08T20:00:00	6	Velocidad del viento	3.2
75854	7	Sololá	704	Santa Lucía Utatlán 	7	Santa Rita 	2	Febrero	2023-10-02T00:00:00	2024-11-08T20:00:00	7	Dirección del viento	3.22
75855	7	Sololá	704	Santa Lucía Utatlán 	7	Santa Rita 	2	Febrero	2023-10-02T00:00:00	2024-11-08T20:00:00	1	Precipitación	0
75856	7	Sololá	704	Santa Lucía Utatlán 	7	Santa Rita 	2	Febrero	2023-10-02T00:00:00	2024-11-08T20:00:00	8	Radiación solar	0
75857	7	Sololá	704	Santa Lucía Utatlán 	7	Santa Rita 	2	Febrero	2023-10-02T00:00:00	2024-11-08T21:00:00	2	Temperatura media	18.8
75858	7	Sololá	704	Santa Lucía Utatlán 	7	Santa Rita 	2	Febrero	2023-10-02T00:00:00	2024-11-08T21:00:00	4	Temperatura máxima	19
75859	7	Sololá	704	Santa Lucía Utatlán 	7	Santa Rita 	2	Febrero	2023-10-02T00:00:00	2024-11-08T21:00:00	3	Temperatura mínima	18.7
75860	7	Sololá	704	Santa Lucía Utatlán 	7	Santa Rita 	2	Febrero	2023-10-02T00:00:00	2024-11-08T21:00:00	5	Humedad	66
75861	7	Sololá	704	Santa Lucía Utatlán 	7	Santa Rita 	2	Febrero	2023-10-02T00:00:00	2024-11-08T21:00:00	6	Velocidad del viento	9.7
75862	7	Sololá	704	Santa Lucía Utatlán 	7	Santa Rita 	2	Febrero	2023-10-02T00:00:00	2024-11-08T21:00:00	7	Dirección del viento	9.66
75863	7	Sololá	704	Santa Lucía Utatlán 	7	Santa Rita 	2	Febrero	2023-10-02T00:00:00	2024-11-08T21:00:00	1	Precipitación	0
75864	7	Sololá	704	Santa Lucía Utatlán 	7	Santa Rita 	2	Febrero	2023-10-02T00:00:00	2024-11-08T21:00:00	8	Radiación solar	0
75865	7	Sololá	704	Santa Lucía Utatlán 	7	Santa Rita 	2	Febrero	2023-10-02T00:00:00	2024-11-08T22:00:00	2	Temperatura media	18.1
75866	7	Sololá	704	Santa Lucía Utatlán 	7	Santa Rita 	2	Febrero	2023-10-02T00:00:00	2024-11-08T22:00:00	4	Temperatura máxima	18.8
75867	7	Sololá	704	Santa Lucía Utatlán 	7	Santa Rita 	2	Febrero	2023-10-02T00:00:00	2024-11-08T22:00:00	3	Temperatura mínima	18.1
75868	7	Sololá	704	Santa Lucía Utatlán 	7	Santa Rita 	2	Febrero	2023-10-02T00:00:00	2024-11-08T22:00:00	5	Humedad	67
75869	7	Sololá	704	Santa Lucía Utatlán 	7	Santa Rita 	2	Febrero	2023-10-02T00:00:00	2024-11-08T22:00:00	6	Velocidad del viento	8
75870	7	Sololá	704	Santa Lucía Utatlán 	7	Santa Rita 	2	Febrero	2023-10-02T00:00:00	2024-11-08T22:00:00	7	Dirección del viento	8.05
75871	7	Sololá	704	Santa Lucía Utatlán 	7	Santa Rita 	2	Febrero	2023-10-02T00:00:00	2024-11-08T22:00:00	1	Precipitación	0
75872	7	Sololá	704	Santa Lucía Utatlán 	7	Santa Rita 	2	Febrero	2023-10-02T00:00:00	2024-11-08T22:00:00	8	Radiación solar	0
75873	7	Sololá	704	Santa Lucía Utatlán 	7	Santa Rita 	2	Febrero	2023-10-02T00:00:00	2024-11-08T23:00:00	2	Temperatura media	16.4
75874	7	Sololá	704	Santa Lucía Utatlán 	7	Santa Rita 	2	Febrero	2023-10-02T00:00:00	2024-11-08T23:00:00	4	Temperatura máxima	18.1
75875	7	Sololá	704	Santa Lucía Utatlán 	7	Santa Rita 	2	Febrero	2023-10-02T00:00:00	2024-11-08T23:00:00	3	Temperatura mínima	16.2
75876	7	Sololá	704	Santa Lucía Utatlán 	7	Santa Rita 	2	Febrero	2023-10-02T00:00:00	2024-11-08T23:00:00	5	Humedad	73
75877	7	Sololá	704	Santa Lucía Utatlán 	7	Santa Rita 	2	Febrero	2023-10-02T00:00:00	2024-11-08T23:00:00	6	Velocidad del viento	4.8
75878	7	Sololá	704	Santa Lucía Utatlán 	7	Santa Rita 	2	Febrero	2023-10-02T00:00:00	2024-11-08T23:00:00	7	Dirección del viento	4.83
75879	7	Sololá	704	Santa Lucía Utatlán 	7	Santa Rita 	2	Febrero	2023-10-02T00:00:00	2024-11-08T23:00:00	1	Precipitación	0
75880	7	Sololá	704	Santa Lucía Utatlán 	7	Santa Rita 	2	Febrero	2023-10-02T00:00:00	2024-11-08T23:00:00	8	Radiación solar	0
75881	7	Sololá	704	Santa Lucía Utatlán 	7	Santa Rita 	2	Febrero	2023-11-02T00:00:00	2024-11-08T00:00:00	2	Temperatura media	18.1
75882	7	Sololá	704	Santa Lucía Utatlán 	7	Santa Rita 	2	Febrero	2023-11-02T00:00:00	2024-11-08T00:00:00	4	Temperatura máxima	18.1
75883	7	Sololá	704	Santa Lucía Utatlán 	7	Santa Rita 	2	Febrero	2023-11-02T00:00:00	2024-11-08T00:00:00	3	Temperatura mínima	15.7
75884	7	Sololá	704	Santa Lucía Utatlán 	7	Santa Rita 	2	Febrero	2023-11-02T00:00:00	2024-11-08T00:00:00	5	Humedad	65
75885	7	Sololá	704	Santa Lucía Utatlán 	7	Santa Rita 	2	Febrero	2023-11-02T00:00:00	2024-11-08T00:00:00	6	Velocidad del viento	8
75886	7	Sololá	704	Santa Lucía Utatlán 	7	Santa Rita 	2	Febrero	2023-11-02T00:00:00	2024-11-08T00:00:00	7	Dirección del viento	8.05
75887	7	Sololá	704	Santa Lucía Utatlán 	7	Santa Rita 	2	Febrero	2023-11-02T00:00:00	2024-11-08T00:00:00	1	Precipitación	0
75888	7	Sololá	704	Santa Lucía Utatlán 	7	Santa Rita 	2	Febrero	2023-11-02T00:00:00	2024-11-08T00:00:00	8	Radiación solar	0
75889	7	Sololá	704	Santa Lucía Utatlán 	7	Santa Rita 	2	Febrero	2023-11-02T00:00:00	2024-11-08T01:00:00	2	Temperatura media	18.2
75890	7	Sololá	704	Santa Lucía Utatlán 	7	Santa Rita 	2	Febrero	2023-11-02T00:00:00	2024-11-08T01:00:00	4	Temperatura máxima	18.3
75891	7	Sololá	704	Santa Lucía Utatlán 	7	Santa Rita 	2	Febrero	2023-11-02T00:00:00	2024-11-08T01:00:00	3	Temperatura mínima	18.1
75892	7	Sololá	704	Santa Lucía Utatlán 	7	Santa Rita 	2	Febrero	2023-11-02T00:00:00	2024-11-08T01:00:00	5	Humedad	64
75893	7	Sololá	704	Santa Lucía Utatlán 	7	Santa Rita 	2	Febrero	2023-11-02T00:00:00	2024-11-08T01:00:00	6	Velocidad del viento	9.7
75894	7	Sololá	704	Santa Lucía Utatlán 	7	Santa Rita 	2	Febrero	2023-11-02T00:00:00	2024-11-08T01:00:00	7	Dirección del viento	9.66
75895	7	Sololá	704	Santa Lucía Utatlán 	7	Santa Rita 	2	Febrero	2023-11-02T00:00:00	2024-11-08T01:00:00	1	Precipitación	0
75896	7	Sololá	704	Santa Lucía Utatlán 	7	Santa Rita 	2	Febrero	2023-11-02T00:00:00	2024-11-08T01:00:00	8	Radiación solar	0
75897	7	Sololá	704	Santa Lucía Utatlán 	7	Santa Rita 	2	Febrero	2023-11-02T00:00:00	2024-11-08T02:00:00	2	Temperatura media	18.6
75898	7	Sololá	704	Santa Lucía Utatlán 	7	Santa Rita 	2	Febrero	2023-11-02T00:00:00	2024-11-08T02:00:00	4	Temperatura máxima	19.1
75899	7	Sololá	704	Santa Lucía Utatlán 	7	Santa Rita 	2	Febrero	2023-11-02T00:00:00	2024-11-08T02:00:00	3	Temperatura mínima	18.2
75900	7	Sololá	704	Santa Lucía Utatlán 	7	Santa Rita 	2	Febrero	2023-11-02T00:00:00	2024-11-08T02:00:00	5	Humedad	59
75901	7	Sololá	704	Santa Lucía Utatlán 	7	Santa Rita 	2	Febrero	2023-11-02T00:00:00	2024-11-08T02:00:00	6	Velocidad del viento	8
75902	7	Sololá	704	Santa Lucía Utatlán 	7	Santa Rita 	2	Febrero	2023-11-02T00:00:00	2024-11-08T02:00:00	7	Dirección del viento	8.05
75903	7	Sololá	704	Santa Lucía Utatlán 	7	Santa Rita 	2	Febrero	2023-11-02T00:00:00	2024-11-08T02:00:00	1	Precipitación	0
75904	7	Sololá	704	Santa Lucía Utatlán 	7	Santa Rita 	2	Febrero	2023-11-02T00:00:00	2024-11-08T02:00:00	8	Radiación solar	0
75905	7	Sololá	704	Santa Lucía Utatlán 	7	Santa Rita 	2	Febrero	2023-11-02T00:00:00	2024-11-08T03:00:00	2	Temperatura media	18.4
75906	7	Sololá	704	Santa Lucía Utatlán 	7	Santa Rita 	2	Febrero	2023-11-02T00:00:00	2024-11-08T03:00:00	4	Temperatura máxima	18.6
75907	7	Sololá	704	Santa Lucía Utatlán 	7	Santa Rita 	2	Febrero	2023-11-02T00:00:00	2024-11-08T03:00:00	3	Temperatura mínima	18.2
75908	7	Sololá	704	Santa Lucía Utatlán 	7	Santa Rita 	2	Febrero	2023-11-02T00:00:00	2024-11-08T03:00:00	5	Humedad	52
75909	7	Sololá	704	Santa Lucía Utatlán 	7	Santa Rita 	2	Febrero	2023-11-02T00:00:00	2024-11-08T03:00:00	6	Velocidad del viento	8
75910	7	Sololá	704	Santa Lucía Utatlán 	7	Santa Rita 	2	Febrero	2023-11-02T00:00:00	2024-11-08T03:00:00	7	Dirección del viento	8.05
75911	7	Sololá	704	Santa Lucía Utatlán 	7	Santa Rita 	2	Febrero	2023-11-02T00:00:00	2024-11-08T03:00:00	1	Precipitación	0
75912	7	Sololá	704	Santa Lucía Utatlán 	7	Santa Rita 	2	Febrero	2023-11-02T00:00:00	2024-11-08T03:00:00	8	Radiación solar	0
75913	7	Sololá	704	Santa Lucía Utatlán 	7	Santa Rita 	2	Febrero	2023-11-02T00:00:00	2024-11-08T04:00:00	2	Temperatura media	18.2
75914	7	Sololá	704	Santa Lucía Utatlán 	7	Santa Rita 	2	Febrero	2023-11-02T00:00:00	2024-11-08T04:00:00	4	Temperatura máxima	18.6
75915	7	Sololá	704	Santa Lucía Utatlán 	7	Santa Rita 	2	Febrero	2023-11-02T00:00:00	2024-11-08T04:00:00	3	Temperatura mínima	18.2
75916	7	Sololá	704	Santa Lucía Utatlán 	7	Santa Rita 	2	Febrero	2023-11-02T00:00:00	2024-11-08T04:00:00	5	Humedad	51
75917	7	Sololá	704	Santa Lucía Utatlán 	7	Santa Rita 	2	Febrero	2023-11-02T00:00:00	2024-11-08T04:00:00	6	Velocidad del viento	11.3
75918	7	Sololá	704	Santa Lucía Utatlán 	7	Santa Rita 	2	Febrero	2023-11-02T00:00:00	2024-11-08T04:00:00	7	Dirección del viento	11.27
75919	7	Sololá	704	Santa Lucía Utatlán 	7	Santa Rita 	2	Febrero	2023-11-02T00:00:00	2024-11-08T04:00:00	1	Precipitación	0
75920	7	Sololá	704	Santa Lucía Utatlán 	7	Santa Rita 	2	Febrero	2023-11-02T00:00:00	2024-11-08T04:00:00	8	Radiación solar	0
75921	7	Sololá	704	Santa Lucía Utatlán 	7	Santa Rita 	2	Febrero	2023-11-02T00:00:00	2024-11-08T05:00:00	2	Temperatura media	18
75922	7	Sololá	704	Santa Lucía Utatlán 	7	Santa Rita 	2	Febrero	2023-11-02T00:00:00	2024-11-08T05:00:00	4	Temperatura máxima	18.4
75923	7	Sololá	704	Santa Lucía Utatlán 	7	Santa Rita 	2	Febrero	2023-11-02T00:00:00	2024-11-08T05:00:00	3	Temperatura mínima	17.7
75924	7	Sololá	704	Santa Lucía Utatlán 	7	Santa Rita 	2	Febrero	2023-11-02T00:00:00	2024-11-08T05:00:00	5	Humedad	47
75925	7	Sololá	704	Santa Lucía Utatlán 	7	Santa Rita 	2	Febrero	2023-11-02T00:00:00	2024-11-08T05:00:00	6	Velocidad del viento	11.3
75926	7	Sololá	704	Santa Lucía Utatlán 	7	Santa Rita 	2	Febrero	2023-11-02T00:00:00	2024-11-08T05:00:00	7	Dirección del viento	11.27
75927	7	Sololá	704	Santa Lucía Utatlán 	7	Santa Rita 	2	Febrero	2023-11-02T00:00:00	2024-11-08T05:00:00	1	Precipitación	0
75928	7	Sololá	704	Santa Lucía Utatlán 	7	Santa Rita 	2	Febrero	2023-11-02T00:00:00	2024-11-08T05:00:00	8	Radiación solar	0
75929	7	Sololá	704	Santa Lucía Utatlán 	7	Santa Rita 	2	Febrero	2023-11-02T00:00:00	2024-11-08T06:00:00	2	Temperatura media	18.4
75930	7	Sololá	704	Santa Lucía Utatlán 	7	Santa Rita 	2	Febrero	2023-11-02T00:00:00	2024-11-08T06:00:00	4	Temperatura máxima	18.4
75931	7	Sololá	704	Santa Lucía Utatlán 	7	Santa Rita 	2	Febrero	2023-11-02T00:00:00	2024-11-08T06:00:00	3	Temperatura mínima	17.9
75932	7	Sololá	704	Santa Lucía Utatlán 	7	Santa Rita 	2	Febrero	2023-11-02T00:00:00	2024-11-08T06:00:00	5	Humedad	45
75933	7	Sololá	704	Santa Lucía Utatlán 	7	Santa Rita 	2	Febrero	2023-11-02T00:00:00	2024-11-08T06:00:00	6	Velocidad del viento	9.7
75934	7	Sololá	704	Santa Lucía Utatlán 	7	Santa Rita 	2	Febrero	2023-11-02T00:00:00	2024-11-08T06:00:00	7	Dirección del viento	9.66
75935	7	Sololá	704	Santa Lucía Utatlán 	7	Santa Rita 	2	Febrero	2023-11-02T00:00:00	2024-11-08T06:00:00	1	Precipitación	0
75936	7	Sololá	704	Santa Lucía Utatlán 	7	Santa Rita 	2	Febrero	2023-11-02T00:00:00	2024-11-08T06:00:00	8	Radiación solar	0
75937	7	Sololá	704	Santa Lucía Utatlán 	7	Santa Rita 	2	Febrero	2023-11-02T00:00:00	2024-11-08T07:00:00	2	Temperatura media	18.4
75938	7	Sololá	704	Santa Lucía Utatlán 	7	Santa Rita 	2	Febrero	2023-11-02T00:00:00	2024-11-08T07:00:00	4	Temperatura máxima	18.6
75939	7	Sololá	704	Santa Lucía Utatlán 	7	Santa Rita 	2	Febrero	2023-11-02T00:00:00	2024-11-08T07:00:00	3	Temperatura mínima	18.3
75940	7	Sololá	704	Santa Lucía Utatlán 	7	Santa Rita 	2	Febrero	2023-11-02T00:00:00	2024-11-08T07:00:00	5	Humedad	43
75941	7	Sololá	704	Santa Lucía Utatlán 	7	Santa Rita 	2	Febrero	2023-11-02T00:00:00	2024-11-08T07:00:00	6	Velocidad del viento	9.7
75942	7	Sololá	704	Santa Lucía Utatlán 	7	Santa Rita 	2	Febrero	2023-11-02T00:00:00	2024-11-08T07:00:00	7	Dirección del viento	9.66
75943	7	Sololá	704	Santa Lucía Utatlán 	7	Santa Rita 	2	Febrero	2023-11-02T00:00:00	2024-11-08T07:00:00	1	Precipitación	0
75944	7	Sololá	704	Santa Lucía Utatlán 	7	Santa Rita 	2	Febrero	2023-11-02T00:00:00	2024-11-08T07:00:00	8	Radiación solar	5
75945	7	Sololá	704	Santa Lucía Utatlán 	7	Santa Rita 	2	Febrero	2023-11-02T00:00:00	2024-11-08T08:00:00	2	Temperatura media	20.6
75946	7	Sololá	704	Santa Lucía Utatlán 	7	Santa Rita 	2	Febrero	2023-11-02T00:00:00	2024-11-08T08:00:00	4	Temperatura máxima	20.6
75947	7	Sololá	704	Santa Lucía Utatlán 	7	Santa Rita 	2	Febrero	2023-11-02T00:00:00	2024-11-08T08:00:00	3	Temperatura mínima	18.4
75948	7	Sololá	704	Santa Lucía Utatlán 	7	Santa Rita 	2	Febrero	2023-11-02T00:00:00	2024-11-08T08:00:00	5	Humedad	30
75949	7	Sololá	704	Santa Lucía Utatlán 	7	Santa Rita 	2	Febrero	2023-11-02T00:00:00	2024-11-08T08:00:00	6	Velocidad del viento	12.9
75950	7	Sololá	704	Santa Lucía Utatlán 	7	Santa Rita 	2	Febrero	2023-11-02T00:00:00	2024-11-08T08:00:00	7	Dirección del viento	12.87
75951	7	Sololá	704	Santa Lucía Utatlán 	7	Santa Rita 	2	Febrero	2023-11-02T00:00:00	2024-11-08T08:00:00	1	Precipitación	0
75952	7	Sololá	704	Santa Lucía Utatlán 	7	Santa Rita 	2	Febrero	2023-11-02T00:00:00	2024-11-08T08:00:00	8	Radiación solar	163
75953	7	Sololá	704	Santa Lucía Utatlán 	7	Santa Rita 	2	Febrero	2023-11-02T00:00:00	2024-11-08T09:00:00	2	Temperatura media	22.2
75954	7	Sololá	704	Santa Lucía Utatlán 	7	Santa Rita 	2	Febrero	2023-11-02T00:00:00	2024-11-08T09:00:00	4	Temperatura máxima	22.2
75955	7	Sololá	704	Santa Lucía Utatlán 	7	Santa Rita 	2	Febrero	2023-11-02T00:00:00	2024-11-08T09:00:00	3	Temperatura mínima	20.5
75956	7	Sololá	704	Santa Lucía Utatlán 	7	Santa Rita 	2	Febrero	2023-11-02T00:00:00	2024-11-08T09:00:00	5	Humedad	29
75957	7	Sololá	704	Santa Lucía Utatlán 	7	Santa Rita 	2	Febrero	2023-11-02T00:00:00	2024-11-08T09:00:00	6	Velocidad del viento	9.7
75958	7	Sololá	704	Santa Lucía Utatlán 	7	Santa Rita 	2	Febrero	2023-11-02T00:00:00	2024-11-08T09:00:00	7	Dirección del viento	9.66
75959	7	Sololá	704	Santa Lucía Utatlán 	7	Santa Rita 	2	Febrero	2023-11-02T00:00:00	2024-11-08T09:00:00	1	Precipitación	0
75960	7	Sololá	704	Santa Lucía Utatlán 	7	Santa Rita 	2	Febrero	2023-11-02T00:00:00	2024-11-08T09:00:00	8	Radiación solar	415
75961	7	Sololá	704	Santa Lucía Utatlán 	7	Santa Rita 	2	Febrero	2023-11-02T00:00:00	2024-11-08T10:00:00	2	Temperatura media	22.8
75962	7	Sololá	704	Santa Lucía Utatlán 	7	Santa Rita 	2	Febrero	2023-11-02T00:00:00	2024-11-08T10:00:00	4	Temperatura máxima	23.3
75963	7	Sololá	704	Santa Lucía Utatlán 	7	Santa Rita 	2	Febrero	2023-11-02T00:00:00	2024-11-08T10:00:00	3	Temperatura mínima	22
75964	7	Sololá	704	Santa Lucía Utatlán 	7	Santa Rita 	2	Febrero	2023-11-02T00:00:00	2024-11-08T10:00:00	5	Humedad	29
75965	7	Sololá	704	Santa Lucía Utatlán 	7	Santa Rita 	2	Febrero	2023-11-02T00:00:00	2024-11-08T10:00:00	6	Velocidad del viento	8
75966	7	Sololá	704	Santa Lucía Utatlán 	7	Santa Rita 	2	Febrero	2023-11-02T00:00:00	2024-11-08T10:00:00	7	Dirección del viento	8.05
75967	7	Sololá	704	Santa Lucía Utatlán 	7	Santa Rita 	2	Febrero	2023-11-02T00:00:00	2024-11-08T10:00:00	1	Precipitación	0
75968	7	Sololá	704	Santa Lucía Utatlán 	7	Santa Rita 	2	Febrero	2023-11-02T00:00:00	2024-11-08T10:00:00	8	Radiación solar	615
75969	7	Sololá	704	Santa Lucía Utatlán 	7	Santa Rita 	2	Febrero	2023-11-02T00:00:00	2024-11-08T11:00:00	2	Temperatura media	23.8
75970	7	Sololá	704	Santa Lucía Utatlán 	7	Santa Rita 	2	Febrero	2023-11-02T00:00:00	2024-11-08T11:00:00	4	Temperatura máxima	23.9
75971	7	Sololá	704	Santa Lucía Utatlán 	7	Santa Rita 	2	Febrero	2023-11-02T00:00:00	2024-11-08T11:00:00	3	Temperatura mínima	22.8
75972	7	Sololá	704	Santa Lucía Utatlán 	7	Santa Rita 	2	Febrero	2023-11-02T00:00:00	2024-11-08T11:00:00	5	Humedad	27
75973	7	Sololá	704	Santa Lucía Utatlán 	7	Santa Rita 	2	Febrero	2023-11-02T00:00:00	2024-11-08T11:00:00	6	Velocidad del viento	9.7
75974	7	Sololá	704	Santa Lucía Utatlán 	7	Santa Rita 	2	Febrero	2023-11-02T00:00:00	2024-11-08T11:00:00	7	Dirección del viento	9.66
75975	7	Sololá	704	Santa Lucía Utatlán 	7	Santa Rita 	2	Febrero	2023-11-02T00:00:00	2024-11-08T11:00:00	1	Precipitación	0
75976	7	Sololá	704	Santa Lucía Utatlán 	7	Santa Rita 	2	Febrero	2023-11-02T00:00:00	2024-11-08T11:00:00	8	Radiación solar	773
75977	7	Sololá	704	Santa Lucía Utatlán 	7	Santa Rita 	2	Febrero	2023-11-02T00:00:00	2024-11-08T12:00:00	2	Temperatura media	24.1
75978	7	Sololá	704	Santa Lucía Utatlán 	7	Santa Rita 	2	Febrero	2023-11-02T00:00:00	2024-11-08T12:00:00	4	Temperatura máxima	24.3
75979	7	Sololá	704	Santa Lucía Utatlán 	7	Santa Rita 	2	Febrero	2023-11-02T00:00:00	2024-11-08T12:00:00	3	Temperatura mínima	23.4
75980	7	Sololá	704	Santa Lucía Utatlán 	7	Santa Rita 	2	Febrero	2023-11-02T00:00:00	2024-11-08T12:00:00	5	Humedad	29
75981	7	Sololá	704	Santa Lucía Utatlán 	7	Santa Rita 	2	Febrero	2023-11-02T00:00:00	2024-11-08T12:00:00	6	Velocidad del viento	11.3
75982	7	Sololá	704	Santa Lucía Utatlán 	7	Santa Rita 	2	Febrero	2023-11-02T00:00:00	2024-11-08T12:00:00	7	Dirección del viento	11.27
75983	7	Sololá	704	Santa Lucía Utatlán 	7	Santa Rita 	2	Febrero	2023-11-02T00:00:00	2024-11-08T12:00:00	1	Precipitación	0
75984	7	Sololá	704	Santa Lucía Utatlán 	7	Santa Rita 	2	Febrero	2023-11-02T00:00:00	2024-11-08T12:00:00	8	Radiación solar	868
75985	7	Sololá	704	Santa Lucía Utatlán 	7	Santa Rita 	2	Febrero	2023-11-02T00:00:00	2024-11-08T13:00:00	2	Temperatura media	23.4
75986	7	Sololá	704	Santa Lucía Utatlán 	7	Santa Rita 	2	Febrero	2023-11-02T00:00:00	2024-11-08T13:00:00	4	Temperatura máxima	24.3
75987	7	Sololá	704	Santa Lucía Utatlán 	7	Santa Rita 	2	Febrero	2023-11-02T00:00:00	2024-11-08T13:00:00	3	Temperatura mínima	23.1
75988	7	Sololá	704	Santa Lucía Utatlán 	7	Santa Rita 	2	Febrero	2023-11-02T00:00:00	2024-11-08T13:00:00	5	Humedad	34
75989	7	Sololá	704	Santa Lucía Utatlán 	7	Santa Rita 	2	Febrero	2023-11-02T00:00:00	2024-11-08T13:00:00	6	Velocidad del viento	12.9
75990	7	Sololá	704	Santa Lucía Utatlán 	7	Santa Rita 	2	Febrero	2023-11-02T00:00:00	2024-11-08T13:00:00	7	Dirección del viento	12.87
75991	7	Sololá	704	Santa Lucía Utatlán 	7	Santa Rita 	2	Febrero	2023-11-02T00:00:00	2024-11-08T13:00:00	1	Precipitación	0
75992	7	Sololá	704	Santa Lucía Utatlán 	7	Santa Rita 	2	Febrero	2023-11-02T00:00:00	2024-11-08T13:00:00	8	Radiación solar	895
75993	7	Sololá	704	Santa Lucía Utatlán 	7	Santa Rita 	2	Febrero	2023-11-02T00:00:00	2024-11-08T14:00:00	2	Temperatura media	24
75994	7	Sololá	704	Santa Lucía Utatlán 	7	Santa Rita 	2	Febrero	2023-11-02T00:00:00	2024-11-08T14:00:00	4	Temperatura máxima	24.5
75995	7	Sololá	704	Santa Lucía Utatlán 	7	Santa Rita 	2	Febrero	2023-11-02T00:00:00	2024-11-08T14:00:00	3	Temperatura mínima	23.4
75996	7	Sololá	704	Santa Lucía Utatlán 	7	Santa Rita 	2	Febrero	2023-11-02T00:00:00	2024-11-08T14:00:00	5	Humedad	36
75997	7	Sololá	704	Santa Lucía Utatlán 	7	Santa Rita 	2	Febrero	2023-11-02T00:00:00	2024-11-08T14:00:00	6	Velocidad del viento	11.3
75998	7	Sololá	704	Santa Lucía Utatlán 	7	Santa Rita 	2	Febrero	2023-11-02T00:00:00	2024-11-08T14:00:00	7	Dirección del viento	11.27
75999	7	Sololá	704	Santa Lucía Utatlán 	7	Santa Rita 	2	Febrero	2023-11-02T00:00:00	2024-11-08T14:00:00	1	Precipitación	0
76000	7	Sololá	704	Santa Lucía Utatlán 	7	Santa Rita 	2	Febrero	2023-11-02T00:00:00	2024-11-08T14:00:00	8	Radiación solar	840
76001	7	Sololá	704	Santa Lucía Utatlán 	7	Santa Rita 	2	Febrero	2023-11-02T00:00:00	2024-11-08T15:00:00	2	Temperatura media	23.4
76002	7	Sololá	704	Santa Lucía Utatlán 	7	Santa Rita 	2	Febrero	2023-11-02T00:00:00	2024-11-08T15:00:00	4	Temperatura máxima	24.1
76003	7	Sololá	704	Santa Lucía Utatlán 	7	Santa Rita 	2	Febrero	2023-11-02T00:00:00	2024-11-08T15:00:00	3	Temperatura mínima	23
76004	7	Sololá	704	Santa Lucía Utatlán 	7	Santa Rita 	2	Febrero	2023-11-02T00:00:00	2024-11-08T15:00:00	5	Humedad	43
76005	7	Sololá	704	Santa Lucía Utatlán 	7	Santa Rita 	2	Febrero	2023-11-02T00:00:00	2024-11-08T15:00:00	6	Velocidad del viento	9.7
76006	7	Sololá	704	Santa Lucía Utatlán 	7	Santa Rita 	2	Febrero	2023-11-02T00:00:00	2024-11-08T15:00:00	7	Dirección del viento	9.66
76007	7	Sololá	704	Santa Lucía Utatlán 	7	Santa Rita 	2	Febrero	2023-11-02T00:00:00	2024-11-08T15:00:00	1	Precipitación	0
76008	7	Sololá	704	Santa Lucía Utatlán 	7	Santa Rita 	2	Febrero	2023-11-02T00:00:00	2024-11-08T15:00:00	8	Radiación solar	719
76009	7	Sololá	704	Santa Lucía Utatlán 	7	Santa Rita 	2	Febrero	2023-11-02T00:00:00	2024-11-08T16:00:00	2	Temperatura media	23
76010	7	Sololá	704	Santa Lucía Utatlán 	7	Santa Rita 	2	Febrero	2023-11-02T00:00:00	2024-11-08T16:00:00	4	Temperatura máxima	23.4
76011	7	Sololá	704	Santa Lucía Utatlán 	7	Santa Rita 	2	Febrero	2023-11-02T00:00:00	2024-11-08T16:00:00	3	Temperatura mínima	22.5
76012	7	Sololá	704	Santa Lucía Utatlán 	7	Santa Rita 	2	Febrero	2023-11-02T00:00:00	2024-11-08T16:00:00	5	Humedad	46
76013	7	Sololá	704	Santa Lucía Utatlán 	7	Santa Rita 	2	Febrero	2023-11-02T00:00:00	2024-11-08T16:00:00	6	Velocidad del viento	6.4
76014	7	Sololá	704	Santa Lucía Utatlán 	7	Santa Rita 	2	Febrero	2023-11-02T00:00:00	2024-11-08T16:00:00	7	Dirección del viento	6.44
76015	7	Sololá	704	Santa Lucía Utatlán 	7	Santa Rita 	2	Febrero	2023-11-02T00:00:00	2024-11-08T16:00:00	1	Precipitación	0
76016	7	Sololá	704	Santa Lucía Utatlán 	7	Santa Rita 	2	Febrero	2023-11-02T00:00:00	2024-11-08T16:00:00	8	Radiación solar	439
76017	7	Sololá	704	Santa Lucía Utatlán 	7	Santa Rita 	2	Febrero	2023-11-02T00:00:00	2024-11-08T17:00:00	2	Temperatura media	21.4
76018	7	Sololá	704	Santa Lucía Utatlán 	7	Santa Rita 	2	Febrero	2023-11-02T00:00:00	2024-11-08T17:00:00	4	Temperatura máxima	23
76019	7	Sololá	704	Santa Lucía Utatlán 	7	Santa Rita 	2	Febrero	2023-11-02T00:00:00	2024-11-08T17:00:00	3	Temperatura mínima	21.2
76020	7	Sololá	704	Santa Lucía Utatlán 	7	Santa Rita 	2	Febrero	2023-11-02T00:00:00	2024-11-08T17:00:00	5	Humedad	53
76021	7	Sololá	704	Santa Lucía Utatlán 	7	Santa Rita 	2	Febrero	2023-11-02T00:00:00	2024-11-08T17:00:00	6	Velocidad del viento	8
76022	7	Sololá	704	Santa Lucía Utatlán 	7	Santa Rita 	2	Febrero	2023-11-02T00:00:00	2024-11-08T17:00:00	7	Dirección del viento	8.05
76023	7	Sololá	704	Santa Lucía Utatlán 	7	Santa Rita 	2	Febrero	2023-11-02T00:00:00	2024-11-08T17:00:00	1	Precipitación	0
76024	7	Sololá	704	Santa Lucía Utatlán 	7	Santa Rita 	2	Febrero	2023-11-02T00:00:00	2024-11-08T17:00:00	8	Radiación solar	268
76025	7	Sololá	704	Santa Lucía Utatlán 	7	Santa Rita 	2	Febrero	2023-11-02T00:00:00	2024-11-08T18:00:00	2	Temperatura media	19.2
76026	7	Sololá	704	Santa Lucía Utatlán 	7	Santa Rita 	2	Febrero	2023-11-02T00:00:00	2024-11-08T18:00:00	4	Temperatura máxima	21.5
76027	7	Sololá	704	Santa Lucía Utatlán 	7	Santa Rita 	2	Febrero	2023-11-02T00:00:00	2024-11-08T18:00:00	3	Temperatura mínima	19.2
76028	7	Sololá	704	Santa Lucía Utatlán 	7	Santa Rita 	2	Febrero	2023-11-02T00:00:00	2024-11-08T18:00:00	5	Humedad	64
76029	7	Sololá	704	Santa Lucía Utatlán 	7	Santa Rita 	2	Febrero	2023-11-02T00:00:00	2024-11-08T18:00:00	6	Velocidad del viento	11.3
76030	7	Sololá	704	Santa Lucía Utatlán 	7	Santa Rita 	2	Febrero	2023-11-02T00:00:00	2024-11-08T18:00:00	7	Dirección del viento	11.27
76031	7	Sololá	704	Santa Lucía Utatlán 	7	Santa Rita 	2	Febrero	2023-11-02T00:00:00	2024-11-08T18:00:00	1	Precipitación	0
76032	7	Sololá	704	Santa Lucía Utatlán 	7	Santa Rita 	2	Febrero	2023-11-02T00:00:00	2024-11-08T18:00:00	8	Radiación solar	70
76033	7	Sololá	704	Santa Lucía Utatlán 	7	Santa Rita 	2	Febrero	2023-11-02T00:00:00	2024-11-08T19:00:00	2	Temperatura media	18.8
76034	7	Sololá	704	Santa Lucía Utatlán 	7	Santa Rita 	2	Febrero	2023-11-02T00:00:00	2024-11-08T19:00:00	4	Temperatura máxima	19.2
76035	7	Sololá	704	Santa Lucía Utatlán 	7	Santa Rita 	2	Febrero	2023-11-02T00:00:00	2024-11-08T19:00:00	3	Temperatura mínima	18.7
76036	7	Sololá	704	Santa Lucía Utatlán 	7	Santa Rita 	2	Febrero	2023-11-02T00:00:00	2024-11-08T19:00:00	5	Humedad	68
76037	7	Sololá	704	Santa Lucía Utatlán 	7	Santa Rita 	2	Febrero	2023-11-02T00:00:00	2024-11-08T19:00:00	6	Velocidad del viento	11.3
76038	7	Sololá	704	Santa Lucía Utatlán 	7	Santa Rita 	2	Febrero	2023-11-02T00:00:00	2024-11-08T19:00:00	7	Dirección del viento	11.27
76039	7	Sololá	704	Santa Lucía Utatlán 	7	Santa Rita 	2	Febrero	2023-11-02T00:00:00	2024-11-08T19:00:00	1	Precipitación	0
76040	7	Sololá	704	Santa Lucía Utatlán 	7	Santa Rita 	2	Febrero	2023-11-02T00:00:00	2024-11-08T19:00:00	8	Radiación solar	0
76041	7	Sololá	704	Santa Lucía Utatlán 	7	Santa Rita 	2	Febrero	2023-11-02T00:00:00	2024-11-08T20:00:00	2	Temperatura media	18.4
76042	7	Sololá	704	Santa Lucía Utatlán 	7	Santa Rita 	2	Febrero	2023-11-02T00:00:00	2024-11-08T20:00:00	4	Temperatura máxima	18.8
76043	7	Sololá	704	Santa Lucía Utatlán 	7	Santa Rita 	2	Febrero	2023-11-02T00:00:00	2024-11-08T20:00:00	3	Temperatura mínima	18.4
76044	7	Sololá	704	Santa Lucía Utatlán 	7	Santa Rita 	2	Febrero	2023-11-02T00:00:00	2024-11-08T20:00:00	5	Humedad	75
76045	7	Sololá	704	Santa Lucía Utatlán 	7	Santa Rita 	2	Febrero	2023-11-02T00:00:00	2024-11-08T20:00:00	6	Velocidad del viento	8
76046	7	Sololá	704	Santa Lucía Utatlán 	7	Santa Rita 	2	Febrero	2023-11-02T00:00:00	2024-11-08T20:00:00	7	Dirección del viento	8.05
76047	7	Sololá	704	Santa Lucía Utatlán 	7	Santa Rita 	2	Febrero	2023-11-02T00:00:00	2024-11-08T20:00:00	1	Precipitación	0
76048	7	Sololá	704	Santa Lucía Utatlán 	7	Santa Rita 	2	Febrero	2023-11-02T00:00:00	2024-11-08T20:00:00	8	Radiación solar	0
76049	7	Sololá	704	Santa Lucía Utatlán 	7	Santa Rita 	2	Febrero	2023-11-02T00:00:00	2024-11-08T21:00:00	2	Temperatura media	18.4
76050	7	Sololá	704	Santa Lucía Utatlán 	7	Santa Rita 	2	Febrero	2023-11-02T00:00:00	2024-11-08T21:00:00	4	Temperatura máxima	18.6
76051	7	Sololá	704	Santa Lucía Utatlán 	7	Santa Rita 	2	Febrero	2023-11-02T00:00:00	2024-11-08T21:00:00	3	Temperatura mínima	18.1
76052	7	Sololá	704	Santa Lucía Utatlán 	7	Santa Rita 	2	Febrero	2023-11-02T00:00:00	2024-11-08T21:00:00	5	Humedad	77
76053	7	Sololá	704	Santa Lucía Utatlán 	7	Santa Rita 	2	Febrero	2023-11-02T00:00:00	2024-11-08T21:00:00	6	Velocidad del viento	9.7
76054	7	Sololá	704	Santa Lucía Utatlán 	7	Santa Rita 	2	Febrero	2023-11-02T00:00:00	2024-11-08T21:00:00	7	Dirección del viento	9.66
76055	7	Sololá	704	Santa Lucía Utatlán 	7	Santa Rita 	2	Febrero	2023-11-02T00:00:00	2024-11-08T21:00:00	1	Precipitación	0
76056	7	Sololá	704	Santa Lucía Utatlán 	7	Santa Rita 	2	Febrero	2023-11-02T00:00:00	2024-11-08T21:00:00	8	Radiación solar	0
76057	7	Sololá	704	Santa Lucía Utatlán 	7	Santa Rita 	2	Febrero	2023-11-02T00:00:00	2024-11-08T22:00:00	2	Temperatura media	18.1
76058	7	Sololá	704	Santa Lucía Utatlán 	7	Santa Rita 	2	Febrero	2023-11-02T00:00:00	2024-11-08T22:00:00	4	Temperatura máxima	18.6
76059	7	Sololá	704	Santa Lucía Utatlán 	7	Santa Rita 	2	Febrero	2023-11-02T00:00:00	2024-11-08T22:00:00	3	Temperatura mínima	18.1
76060	7	Sololá	704	Santa Lucía Utatlán 	7	Santa Rita 	2	Febrero	2023-11-02T00:00:00	2024-11-08T22:00:00	5	Humedad	78
76061	7	Sololá	704	Santa Lucía Utatlán 	7	Santa Rita 	2	Febrero	2023-11-02T00:00:00	2024-11-08T22:00:00	6	Velocidad del viento	11.3
76062	7	Sololá	704	Santa Lucía Utatlán 	7	Santa Rita 	2	Febrero	2023-11-02T00:00:00	2024-11-08T22:00:00	7	Dirección del viento	11.27
76063	7	Sololá	704	Santa Lucía Utatlán 	7	Santa Rita 	2	Febrero	2023-11-02T00:00:00	2024-11-08T22:00:00	1	Precipitación	0
76064	7	Sololá	704	Santa Lucía Utatlán 	7	Santa Rita 	2	Febrero	2023-11-02T00:00:00	2024-11-08T22:00:00	8	Radiación solar	0
76065	7	Sololá	704	Santa Lucía Utatlán 	7	Santa Rita 	2	Febrero	2023-11-02T00:00:00	2024-11-08T23:00:00	2	Temperatura media	18.3
76066	7	Sololá	704	Santa Lucía Utatlán 	7	Santa Rita 	2	Febrero	2023-11-02T00:00:00	2024-11-08T23:00:00	4	Temperatura máxima	18.5
76067	7	Sololá	704	Santa Lucía Utatlán 	7	Santa Rita 	2	Febrero	2023-11-02T00:00:00	2024-11-08T23:00:00	3	Temperatura mínima	18.1
76068	7	Sololá	704	Santa Lucía Utatlán 	7	Santa Rita 	2	Febrero	2023-11-02T00:00:00	2024-11-08T23:00:00	5	Humedad	75
76069	7	Sololá	704	Santa Lucía Utatlán 	7	Santa Rita 	2	Febrero	2023-11-02T00:00:00	2024-11-08T23:00:00	6	Velocidad del viento	8
76070	7	Sololá	704	Santa Lucía Utatlán 	7	Santa Rita 	2	Febrero	2023-11-02T00:00:00	2024-11-08T23:00:00	7	Dirección del viento	8.05
76071	7	Sololá	704	Santa Lucía Utatlán 	7	Santa Rita 	2	Febrero	2023-11-02T00:00:00	2024-11-08T23:00:00	1	Precipitación	0
76072	7	Sololá	704	Santa Lucía Utatlán 	7	Santa Rita 	2	Febrero	2023-11-02T00:00:00	2024-11-08T23:00:00	8	Radiación solar	0
76073	7	Sololá	704	Santa Lucía Utatlán 	7	Santa Rita 	2	Febrero	2023-12-02T00:00:00	2024-11-08T00:00:00	2	Temperatura media	18.1
76074	7	Sololá	704	Santa Lucía Utatlán 	7	Santa Rita 	2	Febrero	2023-12-02T00:00:00	2024-11-08T00:00:00	4	Temperatura máxima	18.3
76075	7	Sololá	704	Santa Lucía Utatlán 	7	Santa Rita 	2	Febrero	2023-12-02T00:00:00	2024-11-08T00:00:00	3	Temperatura mínima	18.1
76076	7	Sololá	704	Santa Lucía Utatlán 	7	Santa Rita 	2	Febrero	2023-12-02T00:00:00	2024-11-08T00:00:00	5	Humedad	75
76077	7	Sololá	704	Santa Lucía Utatlán 	7	Santa Rita 	2	Febrero	2023-12-02T00:00:00	2024-11-08T00:00:00	6	Velocidad del viento	8
76078	7	Sololá	704	Santa Lucía Utatlán 	7	Santa Rita 	2	Febrero	2023-12-02T00:00:00	2024-11-08T00:00:00	7	Dirección del viento	8.05
76079	7	Sololá	704	Santa Lucía Utatlán 	7	Santa Rita 	2	Febrero	2023-12-02T00:00:00	2024-11-08T00:00:00	1	Precipitación	0
76080	7	Sololá	704	Santa Lucía Utatlán 	7	Santa Rita 	2	Febrero	2023-12-02T00:00:00	2024-11-08T00:00:00	8	Radiación solar	0
76081	7	Sololá	704	Santa Lucía Utatlán 	7	Santa Rita 	2	Febrero	2023-12-02T00:00:00	2024-11-08T01:00:00	2	Temperatura media	17.9
76082	7	Sololá	704	Santa Lucía Utatlán 	7	Santa Rita 	2	Febrero	2023-12-02T00:00:00	2024-11-08T01:00:00	4	Temperatura máxima	18.1
76083	7	Sololá	704	Santa Lucía Utatlán 	7	Santa Rita 	2	Febrero	2023-12-02T00:00:00	2024-11-08T01:00:00	3	Temperatura mínima	17.8
76084	7	Sololá	704	Santa Lucía Utatlán 	7	Santa Rita 	2	Febrero	2023-12-02T00:00:00	2024-11-08T01:00:00	5	Humedad	74
76085	7	Sololá	704	Santa Lucía Utatlán 	7	Santa Rita 	2	Febrero	2023-12-02T00:00:00	2024-11-08T01:00:00	6	Velocidad del viento	6.4
76086	7	Sololá	704	Santa Lucía Utatlán 	7	Santa Rita 	2	Febrero	2023-12-02T00:00:00	2024-11-08T01:00:00	7	Dirección del viento	6.44
76087	7	Sololá	704	Santa Lucía Utatlán 	7	Santa Rita 	2	Febrero	2023-12-02T00:00:00	2024-11-08T01:00:00	1	Precipitación	0
76088	7	Sololá	704	Santa Lucía Utatlán 	7	Santa Rita 	2	Febrero	2023-12-02T00:00:00	2024-11-08T01:00:00	8	Radiación solar	0
76089	7	Sololá	704	Santa Lucía Utatlán 	7	Santa Rita 	2	Febrero	2023-12-02T00:00:00	2024-11-08T02:00:00	2	Temperatura media	17.6
76090	7	Sololá	704	Santa Lucía Utatlán 	7	Santa Rita 	2	Febrero	2023-12-02T00:00:00	2024-11-08T02:00:00	4	Temperatura máxima	17.9
76091	7	Sololá	704	Santa Lucía Utatlán 	7	Santa Rita 	2	Febrero	2023-12-02T00:00:00	2024-11-08T02:00:00	3	Temperatura mínima	17.6
76092	7	Sololá	704	Santa Lucía Utatlán 	7	Santa Rita 	2	Febrero	2023-12-02T00:00:00	2024-11-08T02:00:00	5	Humedad	73
76093	7	Sololá	704	Santa Lucía Utatlán 	7	Santa Rita 	2	Febrero	2023-12-02T00:00:00	2024-11-08T02:00:00	6	Velocidad del viento	8
76094	7	Sololá	704	Santa Lucía Utatlán 	7	Santa Rita 	2	Febrero	2023-12-02T00:00:00	2024-11-08T02:00:00	7	Dirección del viento	8.05
76095	7	Sololá	704	Santa Lucía Utatlán 	7	Santa Rita 	2	Febrero	2023-12-02T00:00:00	2024-11-08T02:00:00	1	Precipitación	0
76096	7	Sololá	704	Santa Lucía Utatlán 	7	Santa Rita 	2	Febrero	2023-12-02T00:00:00	2024-11-08T02:00:00	8	Radiación solar	0
76097	7	Sololá	704	Santa Lucía Utatlán 	7	Santa Rita 	2	Febrero	2023-12-02T00:00:00	2024-11-08T03:00:00	2	Temperatura media	17.2
76098	7	Sololá	704	Santa Lucía Utatlán 	7	Santa Rita 	2	Febrero	2023-12-02T00:00:00	2024-11-08T03:00:00	4	Temperatura máxima	17.6
76099	7	Sololá	704	Santa Lucía Utatlán 	7	Santa Rita 	2	Febrero	2023-12-02T00:00:00	2024-11-08T03:00:00	3	Temperatura mínima	17.1
76100	7	Sololá	704	Santa Lucía Utatlán 	7	Santa Rita 	2	Febrero	2023-12-02T00:00:00	2024-11-08T03:00:00	5	Humedad	73
76101	7	Sololá	704	Santa Lucía Utatlán 	7	Santa Rita 	2	Febrero	2023-12-02T00:00:00	2024-11-08T03:00:00	6	Velocidad del viento	8
76102	7	Sololá	704	Santa Lucía Utatlán 	7	Santa Rita 	2	Febrero	2023-12-02T00:00:00	2024-11-08T03:00:00	7	Dirección del viento	8.05
76103	7	Sololá	704	Santa Lucía Utatlán 	7	Santa Rita 	2	Febrero	2023-12-02T00:00:00	2024-11-08T03:00:00	1	Precipitación	0
76104	7	Sololá	704	Santa Lucía Utatlán 	7	Santa Rita 	2	Febrero	2023-12-02T00:00:00	2024-11-08T03:00:00	8	Radiación solar	0
76105	7	Sololá	704	Santa Lucía Utatlán 	7	Santa Rita 	2	Febrero	2023-12-02T00:00:00	2024-11-08T04:00:00	2	Temperatura media	16.9
76106	7	Sololá	704	Santa Lucía Utatlán 	7	Santa Rita 	2	Febrero	2023-12-02T00:00:00	2024-11-08T04:00:00	4	Temperatura máxima	17.2
76107	7	Sololá	704	Santa Lucía Utatlán 	7	Santa Rita 	2	Febrero	2023-12-02T00:00:00	2024-11-08T04:00:00	3	Temperatura mínima	16.8
76108	7	Sololá	704	Santa Lucía Utatlán 	7	Santa Rita 	2	Febrero	2023-12-02T00:00:00	2024-11-08T04:00:00	5	Humedad	72
76109	7	Sololá	704	Santa Lucía Utatlán 	7	Santa Rita 	2	Febrero	2023-12-02T00:00:00	2024-11-08T04:00:00	6	Velocidad del viento	8
76110	7	Sololá	704	Santa Lucía Utatlán 	7	Santa Rita 	2	Febrero	2023-12-02T00:00:00	2024-11-08T04:00:00	7	Dirección del viento	8.05
76111	7	Sololá	704	Santa Lucía Utatlán 	7	Santa Rita 	2	Febrero	2023-12-02T00:00:00	2024-11-08T04:00:00	1	Precipitación	0
76112	7	Sololá	704	Santa Lucía Utatlán 	7	Santa Rita 	2	Febrero	2023-12-02T00:00:00	2024-11-08T04:00:00	8	Radiación solar	0
76113	7	Sololá	704	Santa Lucía Utatlán 	7	Santa Rita 	2	Febrero	2023-12-02T00:00:00	2024-11-08T05:00:00	2	Temperatura media	16.6
76114	7	Sololá	704	Santa Lucía Utatlán 	7	Santa Rita 	2	Febrero	2023-12-02T00:00:00	2024-11-08T05:00:00	4	Temperatura máxima	17
76115	7	Sololá	704	Santa Lucía Utatlán 	7	Santa Rita 	2	Febrero	2023-12-02T00:00:00	2024-11-08T05:00:00	3	Temperatura mínima	16.4
76116	7	Sololá	704	Santa Lucía Utatlán 	7	Santa Rita 	2	Febrero	2023-12-02T00:00:00	2024-11-08T05:00:00	5	Humedad	71
76117	7	Sololá	704	Santa Lucía Utatlán 	7	Santa Rita 	2	Febrero	2023-12-02T00:00:00	2024-11-08T05:00:00	6	Velocidad del viento	8
76118	7	Sololá	704	Santa Lucía Utatlán 	7	Santa Rita 	2	Febrero	2023-12-02T00:00:00	2024-11-08T05:00:00	7	Dirección del viento	8.05
76119	7	Sololá	704	Santa Lucía Utatlán 	7	Santa Rita 	2	Febrero	2023-12-02T00:00:00	2024-11-08T05:00:00	1	Precipitación	0
76120	7	Sololá	704	Santa Lucía Utatlán 	7	Santa Rita 	2	Febrero	2023-12-02T00:00:00	2024-11-08T05:00:00	8	Radiación solar	0
76121	7	Sololá	704	Santa Lucía Utatlán 	7	Santa Rita 	2	Febrero	2023-12-02T00:00:00	2024-11-08T06:00:00	2	Temperatura media	16.6
76122	7	Sololá	704	Santa Lucía Utatlán 	7	Santa Rita 	2	Febrero	2023-12-02T00:00:00	2024-11-08T06:00:00	4	Temperatura máxima	16.9
76123	7	Sololá	704	Santa Lucía Utatlán 	7	Santa Rita 	2	Febrero	2023-12-02T00:00:00	2024-11-08T06:00:00	3	Temperatura mínima	16.6
76124	7	Sololá	704	Santa Lucía Utatlán 	7	Santa Rita 	2	Febrero	2023-12-02T00:00:00	2024-11-08T06:00:00	5	Humedad	70
76125	7	Sololá	704	Santa Lucía Utatlán 	7	Santa Rita 	2	Febrero	2023-12-02T00:00:00	2024-11-08T06:00:00	6	Velocidad del viento	9.7
76126	7	Sololá	704	Santa Lucía Utatlán 	7	Santa Rita 	2	Febrero	2023-12-02T00:00:00	2024-11-08T06:00:00	7	Dirección del viento	9.66
76127	7	Sololá	704	Santa Lucía Utatlán 	7	Santa Rita 	2	Febrero	2023-12-02T00:00:00	2024-11-08T06:00:00	1	Precipitación	0
76128	7	Sololá	704	Santa Lucía Utatlán 	7	Santa Rita 	2	Febrero	2023-12-02T00:00:00	2024-11-08T06:00:00	8	Radiación solar	0
76129	7	Sololá	704	Santa Lucía Utatlán 	7	Santa Rita 	2	Febrero	2023-12-02T00:00:00	2024-11-08T07:00:00	2	Temperatura media	17.4
76130	7	Sololá	704	Santa Lucía Utatlán 	7	Santa Rita 	2	Febrero	2023-12-02T00:00:00	2024-11-08T07:00:00	4	Temperatura máxima	17.4
76131	7	Sololá	704	Santa Lucía Utatlán 	7	Santa Rita 	2	Febrero	2023-12-02T00:00:00	2024-11-08T07:00:00	3	Temperatura mínima	16.4
76132	7	Sololá	704	Santa Lucía Utatlán 	7	Santa Rita 	2	Febrero	2023-12-02T00:00:00	2024-11-08T07:00:00	5	Humedad	66
76133	7	Sololá	704	Santa Lucía Utatlán 	7	Santa Rita 	2	Febrero	2023-12-02T00:00:00	2024-11-08T07:00:00	6	Velocidad del viento	12.9
76134	7	Sololá	704	Santa Lucía Utatlán 	7	Santa Rita 	2	Febrero	2023-12-02T00:00:00	2024-11-08T07:00:00	7	Dirección del viento	12.87
76135	7	Sololá	704	Santa Lucía Utatlán 	7	Santa Rita 	2	Febrero	2023-12-02T00:00:00	2024-11-08T07:00:00	1	Precipitación	0
76136	7	Sololá	704	Santa Lucía Utatlán 	7	Santa Rita 	2	Febrero	2023-12-02T00:00:00	2024-11-08T07:00:00	8	Radiación solar	5
76137	7	Sololá	704	Santa Lucía Utatlán 	7	Santa Rita 	2	Febrero	2023-12-02T00:00:00	2024-11-08T08:00:00	2	Temperatura media	18.4
76138	7	Sololá	704	Santa Lucía Utatlán 	7	Santa Rita 	2	Febrero	2023-12-02T00:00:00	2024-11-08T08:00:00	4	Temperatura máxima	18.6
76139	7	Sololá	704	Santa Lucía Utatlán 	7	Santa Rita 	2	Febrero	2023-12-02T00:00:00	2024-11-08T08:00:00	3	Temperatura mínima	17.3
76140	7	Sololá	704	Santa Lucía Utatlán 	7	Santa Rita 	2	Febrero	2023-12-02T00:00:00	2024-11-08T08:00:00	5	Humedad	63
76141	7	Sololá	704	Santa Lucía Utatlán 	7	Santa Rita 	2	Febrero	2023-12-02T00:00:00	2024-11-08T08:00:00	6	Velocidad del viento	14.5
76142	7	Sololá	704	Santa Lucía Utatlán 	7	Santa Rita 	2	Febrero	2023-12-02T00:00:00	2024-11-08T08:00:00	7	Dirección del viento	14.48
76143	7	Sololá	704	Santa Lucía Utatlán 	7	Santa Rita 	2	Febrero	2023-12-02T00:00:00	2024-11-08T08:00:00	1	Precipitación	0
76144	7	Sololá	704	Santa Lucía Utatlán 	7	Santa Rita 	2	Febrero	2023-12-02T00:00:00	2024-11-08T08:00:00	8	Radiación solar	156
76145	7	Sololá	704	Santa Lucía Utatlán 	7	Santa Rita 	2	Febrero	2023-12-02T00:00:00	2024-11-08T09:00:00	2	Temperatura media	20.9
76146	7	Sololá	704	Santa Lucía Utatlán 	7	Santa Rita 	2	Febrero	2023-12-02T00:00:00	2024-11-08T09:00:00	4	Temperatura máxima	20.9
76147	7	Sololá	704	Santa Lucía Utatlán 	7	Santa Rita 	2	Febrero	2023-12-02T00:00:00	2024-11-08T09:00:00	3	Temperatura mínima	18.4
76148	7	Sololá	704	Santa Lucía Utatlán 	7	Santa Rita 	2	Febrero	2023-12-02T00:00:00	2024-11-08T09:00:00	5	Humedad	56
76149	7	Sololá	704	Santa Lucía Utatlán 	7	Santa Rita 	2	Febrero	2023-12-02T00:00:00	2024-11-08T09:00:00	6	Velocidad del viento	11.3
76150	7	Sololá	704	Santa Lucía Utatlán 	7	Santa Rita 	2	Febrero	2023-12-02T00:00:00	2024-11-08T09:00:00	7	Dirección del viento	11.27
76151	7	Sololá	704	Santa Lucía Utatlán 	7	Santa Rita 	2	Febrero	2023-12-02T00:00:00	2024-11-08T09:00:00	1	Precipitación	0
76152	7	Sololá	704	Santa Lucía Utatlán 	7	Santa Rita 	2	Febrero	2023-12-02T00:00:00	2024-11-08T09:00:00	8	Radiación solar	401
76153	7	Sololá	704	Santa Lucía Utatlán 	7	Santa Rita 	2	Febrero	2023-12-02T00:00:00	2024-11-08T10:00:00	2	Temperatura media	21.6
76154	7	Sololá	704	Santa Lucía Utatlán 	7	Santa Rita 	2	Febrero	2023-12-02T00:00:00	2024-11-08T10:00:00	4	Temperatura máxima	21.9
76155	7	Sololá	704	Santa Lucía Utatlán 	7	Santa Rita 	2	Febrero	2023-12-02T00:00:00	2024-11-08T10:00:00	3	Temperatura mínima	20.7
76156	7	Sololá	704	Santa Lucía Utatlán 	7	Santa Rita 	2	Febrero	2023-12-02T00:00:00	2024-11-08T10:00:00	5	Humedad	53
76157	7	Sololá	704	Santa Lucía Utatlán 	7	Santa Rita 	2	Febrero	2023-12-02T00:00:00	2024-11-08T10:00:00	6	Velocidad del viento	11.3
76158	7	Sololá	704	Santa Lucía Utatlán 	7	Santa Rita 	2	Febrero	2023-12-02T00:00:00	2024-11-08T10:00:00	7	Dirección del viento	11.27
76159	7	Sololá	704	Santa Lucía Utatlán 	7	Santa Rita 	2	Febrero	2023-12-02T00:00:00	2024-11-08T10:00:00	1	Precipitación	0
76160	7	Sololá	704	Santa Lucía Utatlán 	7	Santa Rita 	2	Febrero	2023-12-02T00:00:00	2024-11-08T10:00:00	8	Radiación solar	605
76161	7	Sololá	704	Santa Lucía Utatlán 	7	Santa Rita 	2	Febrero	2023-12-02T00:00:00	2024-11-08T11:00:00	2	Temperatura media	22.9
76162	7	Sololá	704	Santa Lucía Utatlán 	7	Santa Rita 	2	Febrero	2023-12-02T00:00:00	2024-11-08T11:00:00	4	Temperatura máxima	23.1
76163	7	Sololá	704	Santa Lucía Utatlán 	7	Santa Rita 	2	Febrero	2023-12-02T00:00:00	2024-11-08T11:00:00	3	Temperatura mínima	21.7
76164	7	Sololá	704	Santa Lucía Utatlán 	7	Santa Rita 	2	Febrero	2023-12-02T00:00:00	2024-11-08T11:00:00	5	Humedad	48
76165	7	Sololá	704	Santa Lucía Utatlán 	7	Santa Rita 	2	Febrero	2023-12-02T00:00:00	2024-11-08T11:00:00	6	Velocidad del viento	9.7
76166	7	Sololá	704	Santa Lucía Utatlán 	7	Santa Rita 	2	Febrero	2023-12-02T00:00:00	2024-11-08T11:00:00	7	Dirección del viento	9.66
76167	7	Sololá	704	Santa Lucía Utatlán 	7	Santa Rita 	2	Febrero	2023-12-02T00:00:00	2024-11-08T11:00:00	1	Precipitación	0
76168	7	Sololá	704	Santa Lucía Utatlán 	7	Santa Rita 	2	Febrero	2023-12-02T00:00:00	2024-11-08T11:00:00	8	Radiación solar	765
76169	7	Sololá	704	Santa Lucía Utatlán 	7	Santa Rita 	2	Febrero	2023-12-02T00:00:00	2024-11-08T12:00:00	2	Temperatura media	24.6
76170	7	Sololá	704	Santa Lucía Utatlán 	7	Santa Rita 	2	Febrero	2023-12-02T00:00:00	2024-11-08T12:00:00	4	Temperatura máxima	24.6
76171	7	Sololá	704	Santa Lucía Utatlán 	7	Santa Rita 	2	Febrero	2023-12-02T00:00:00	2024-11-08T12:00:00	3	Temperatura mínima	22.9
76172	7	Sololá	704	Santa Lucía Utatlán 	7	Santa Rita 	2	Febrero	2023-12-02T00:00:00	2024-11-08T12:00:00	5	Humedad	43
76173	7	Sololá	704	Santa Lucía Utatlán 	7	Santa Rita 	2	Febrero	2023-12-02T00:00:00	2024-11-08T12:00:00	6	Velocidad del viento	9.7
76174	7	Sololá	704	Santa Lucía Utatlán 	7	Santa Rita 	2	Febrero	2023-12-02T00:00:00	2024-11-08T12:00:00	7	Dirección del viento	9.66
76175	7	Sololá	704	Santa Lucía Utatlán 	7	Santa Rita 	2	Febrero	2023-12-02T00:00:00	2024-11-08T12:00:00	1	Precipitación	0
76176	7	Sololá	704	Santa Lucía Utatlán 	7	Santa Rita 	2	Febrero	2023-12-02T00:00:00	2024-11-08T12:00:00	8	Radiación solar	861
76177	7	Sololá	704	Santa Lucía Utatlán 	7	Santa Rita 	2	Febrero	2023-12-02T00:00:00	2024-11-08T13:00:00	2	Temperatura media	26.4
76178	7	Sololá	704	Santa Lucía Utatlán 	7	Santa Rita 	2	Febrero	2023-12-02T00:00:00	2024-11-08T13:00:00	4	Temperatura máxima	26.4
76179	7	Sololá	704	Santa Lucía Utatlán 	7	Santa Rita 	2	Febrero	2023-12-02T00:00:00	2024-11-08T13:00:00	3	Temperatura mínima	24.3
76180	7	Sololá	704	Santa Lucía Utatlán 	7	Santa Rita 	2	Febrero	2023-12-02T00:00:00	2024-11-08T13:00:00	5	Humedad	40
76181	7	Sololá	704	Santa Lucía Utatlán 	7	Santa Rita 	2	Febrero	2023-12-02T00:00:00	2024-11-08T13:00:00	6	Velocidad del viento	8
76182	7	Sololá	704	Santa Lucía Utatlán 	7	Santa Rita 	2	Febrero	2023-12-02T00:00:00	2024-11-08T13:00:00	7	Dirección del viento	8.05
76183	7	Sololá	704	Santa Lucía Utatlán 	7	Santa Rita 	2	Febrero	2023-12-02T00:00:00	2024-11-08T13:00:00	1	Precipitación	0
76184	7	Sololá	704	Santa Lucía Utatlán 	7	Santa Rita 	2	Febrero	2023-12-02T00:00:00	2024-11-08T13:00:00	8	Radiación solar	888
76185	7	Sololá	704	Santa Lucía Utatlán 	7	Santa Rita 	2	Febrero	2023-12-02T00:00:00	2024-11-08T14:00:00	2	Temperatura media	24.9
76186	7	Sololá	704	Santa Lucía Utatlán 	7	Santa Rita 	2	Febrero	2023-12-02T00:00:00	2024-11-08T14:00:00	4	Temperatura máxima	26.3
76187	7	Sololá	704	Santa Lucía Utatlán 	7	Santa Rita 	2	Febrero	2023-12-02T00:00:00	2024-11-08T14:00:00	3	Temperatura mínima	24.6
76188	7	Sololá	704	Santa Lucía Utatlán 	7	Santa Rita 	2	Febrero	2023-12-02T00:00:00	2024-11-08T14:00:00	5	Humedad	39
76189	7	Sololá	704	Santa Lucía Utatlán 	7	Santa Rita 	2	Febrero	2023-12-02T00:00:00	2024-11-08T14:00:00	6	Velocidad del viento	11.3
76190	7	Sololá	704	Santa Lucía Utatlán 	7	Santa Rita 	2	Febrero	2023-12-02T00:00:00	2024-11-08T14:00:00	7	Dirección del viento	11.27
76191	7	Sololá	704	Santa Lucía Utatlán 	7	Santa Rita 	2	Febrero	2023-12-02T00:00:00	2024-11-08T14:00:00	1	Precipitación	0
76192	7	Sololá	704	Santa Lucía Utatlán 	7	Santa Rita 	2	Febrero	2023-12-02T00:00:00	2024-11-08T14:00:00	8	Radiación solar	843
76193	7	Sololá	704	Santa Lucía Utatlán 	7	Santa Rita 	2	Febrero	2023-12-02T00:00:00	2024-11-08T15:00:00	2	Temperatura media	25.4
76194	7	Sololá	704	Santa Lucía Utatlán 	7	Santa Rita 	2	Febrero	2023-12-02T00:00:00	2024-11-08T15:00:00	4	Temperatura máxima	25.9
76195	7	Sololá	704	Santa Lucía Utatlán 	7	Santa Rita 	2	Febrero	2023-12-02T00:00:00	2024-11-08T15:00:00	3	Temperatura mínima	24.7
76196	7	Sololá	704	Santa Lucía Utatlán 	7	Santa Rita 	2	Febrero	2023-12-02T00:00:00	2024-11-08T15:00:00	5	Humedad	44
76197	7	Sololá	704	Santa Lucía Utatlán 	7	Santa Rita 	2	Febrero	2023-12-02T00:00:00	2024-11-08T15:00:00	6	Velocidad del viento	9.7
76198	7	Sololá	704	Santa Lucía Utatlán 	7	Santa Rita 	2	Febrero	2023-12-02T00:00:00	2024-11-08T15:00:00	7	Dirección del viento	9.66
76199	7	Sololá	704	Santa Lucía Utatlán 	7	Santa Rita 	2	Febrero	2023-12-02T00:00:00	2024-11-08T15:00:00	1	Precipitación	0
76200	7	Sololá	704	Santa Lucía Utatlán 	7	Santa Rita 	2	Febrero	2023-12-02T00:00:00	2024-11-08T15:00:00	8	Radiación solar	722
76201	7	Sololá	704	Santa Lucía Utatlán 	7	Santa Rita 	2	Febrero	2023-12-02T00:00:00	2024-11-08T16:00:00	2	Temperatura media	23.6
76202	7	Sololá	704	Santa Lucía Utatlán 	7	Santa Rita 	2	Febrero	2023-12-02T00:00:00	2024-11-08T16:00:00	4	Temperatura máxima	25.4
76203	7	Sololá	704	Santa Lucía Utatlán 	7	Santa Rita 	2	Febrero	2023-12-02T00:00:00	2024-11-08T16:00:00	3	Temperatura mínima	23.5
76204	7	Sololá	704	Santa Lucía Utatlán 	7	Santa Rita 	2	Febrero	2023-12-02T00:00:00	2024-11-08T16:00:00	5	Humedad	48
76205	7	Sololá	704	Santa Lucía Utatlán 	7	Santa Rita 	2	Febrero	2023-12-02T00:00:00	2024-11-08T16:00:00	6	Velocidad del viento	11.3
76206	7	Sololá	704	Santa Lucía Utatlán 	7	Santa Rita 	2	Febrero	2023-12-02T00:00:00	2024-11-08T16:00:00	7	Dirección del viento	11.27
76207	7	Sololá	704	Santa Lucía Utatlán 	7	Santa Rita 	2	Febrero	2023-12-02T00:00:00	2024-11-08T16:00:00	1	Precipitación	0
76208	7	Sololá	704	Santa Lucía Utatlán 	7	Santa Rita 	2	Febrero	2023-12-02T00:00:00	2024-11-08T16:00:00	8	Radiación solar	443
76209	7	Sololá	704	Santa Lucía Utatlán 	7	Santa Rita 	2	Febrero	2023-12-02T00:00:00	2024-11-08T17:00:00	2	Temperatura media	21.9
76210	7	Sololá	704	Santa Lucía Utatlán 	7	Santa Rita 	2	Febrero	2023-12-02T00:00:00	2024-11-08T17:00:00	4	Temperatura máxima	23.6
76211	7	Sololá	704	Santa Lucía Utatlán 	7	Santa Rita 	2	Febrero	2023-12-02T00:00:00	2024-11-08T17:00:00	3	Temperatura mínima	21.9
76212	7	Sololá	704	Santa Lucía Utatlán 	7	Santa Rita 	2	Febrero	2023-12-02T00:00:00	2024-11-08T17:00:00	5	Humedad	53
76213	7	Sololá	704	Santa Lucía Utatlán 	7	Santa Rita 	2	Febrero	2023-12-02T00:00:00	2024-11-08T17:00:00	6	Velocidad del viento	8
76214	7	Sololá	704	Santa Lucía Utatlán 	7	Santa Rita 	2	Febrero	2023-12-02T00:00:00	2024-11-08T17:00:00	7	Dirección del viento	8.05
76215	7	Sololá	704	Santa Lucía Utatlán 	7	Santa Rita 	2	Febrero	2023-12-02T00:00:00	2024-11-08T17:00:00	1	Precipitación	0
76216	7	Sololá	704	Santa Lucía Utatlán 	7	Santa Rita 	2	Febrero	2023-12-02T00:00:00	2024-11-08T17:00:00	8	Radiación solar	241
76217	7	Sololá	704	Santa Lucía Utatlán 	7	Santa Rita 	2	Febrero	2023-12-02T00:00:00	2024-11-08T18:00:00	2	Temperatura media	20
76218	7	Sololá	704	Santa Lucía Utatlán 	7	Santa Rita 	2	Febrero	2023-12-02T00:00:00	2024-11-08T18:00:00	4	Temperatura máxima	21.9
76219	7	Sololá	704	Santa Lucía Utatlán 	7	Santa Rita 	2	Febrero	2023-12-02T00:00:00	2024-11-08T18:00:00	3	Temperatura mínima	20
76220	7	Sololá	704	Santa Lucía Utatlán 	7	Santa Rita 	2	Febrero	2023-12-02T00:00:00	2024-11-08T18:00:00	5	Humedad	57
76221	7	Sololá	704	Santa Lucía Utatlán 	7	Santa Rita 	2	Febrero	2023-12-02T00:00:00	2024-11-08T18:00:00	6	Velocidad del viento	6.4
76222	7	Sololá	704	Santa Lucía Utatlán 	7	Santa Rita 	2	Febrero	2023-12-02T00:00:00	2024-11-08T18:00:00	7	Dirección del viento	6.44
76223	7	Sololá	704	Santa Lucía Utatlán 	7	Santa Rita 	2	Febrero	2023-12-02T00:00:00	2024-11-08T18:00:00	1	Precipitación	0
76224	7	Sololá	704	Santa Lucía Utatlán 	7	Santa Rita 	2	Febrero	2023-12-02T00:00:00	2024-11-08T18:00:00	8	Radiación solar	44
76225	7	Sololá	704	Santa Lucía Utatlán 	7	Santa Rita 	2	Febrero	2023-12-02T00:00:00	2024-11-08T19:00:00	2	Temperatura media	18.9
76226	7	Sololá	704	Santa Lucía Utatlán 	7	Santa Rita 	2	Febrero	2023-12-02T00:00:00	2024-11-08T19:00:00	4	Temperatura máxima	20
76227	7	Sololá	704	Santa Lucía Utatlán 	7	Santa Rita 	2	Febrero	2023-12-02T00:00:00	2024-11-08T19:00:00	3	Temperatura mínima	18.9
76228	7	Sololá	704	Santa Lucía Utatlán 	7	Santa Rita 	2	Febrero	2023-12-02T00:00:00	2024-11-08T19:00:00	5	Humedad	58
76229	7	Sololá	704	Santa Lucía Utatlán 	7	Santa Rita 	2	Febrero	2023-12-02T00:00:00	2024-11-08T19:00:00	6	Velocidad del viento	4.8
76230	7	Sololá	704	Santa Lucía Utatlán 	7	Santa Rita 	2	Febrero	2023-12-02T00:00:00	2024-11-08T19:00:00	7	Dirección del viento	4.83
76231	7	Sololá	704	Santa Lucía Utatlán 	7	Santa Rita 	2	Febrero	2023-12-02T00:00:00	2024-11-08T19:00:00	1	Precipitación	0
76232	7	Sololá	704	Santa Lucía Utatlán 	7	Santa Rita 	2	Febrero	2023-12-02T00:00:00	2024-11-08T19:00:00	8	Radiación solar	0
76233	7	Sololá	704	Santa Lucía Utatlán 	7	Santa Rita 	2	Febrero	2023-12-02T00:00:00	2024-11-08T20:00:00	2	Temperatura media	16.8
76234	7	Sololá	704	Santa Lucía Utatlán 	7	Santa Rita 	2	Febrero	2023-12-02T00:00:00	2024-11-08T20:00:00	4	Temperatura máxima	18.9
76235	7	Sololá	704	Santa Lucía Utatlán 	7	Santa Rita 	2	Febrero	2023-12-02T00:00:00	2024-11-08T20:00:00	3	Temperatura mínima	16.8
76236	7	Sololá	704	Santa Lucía Utatlán 	7	Santa Rita 	2	Febrero	2023-12-02T00:00:00	2024-11-08T20:00:00	5	Humedad	62
76237	7	Sololá	704	Santa Lucía Utatlán 	7	Santa Rita 	2	Febrero	2023-12-02T00:00:00	2024-11-08T20:00:00	6	Velocidad del viento	3.2
76238	7	Sololá	704	Santa Lucía Utatlán 	7	Santa Rita 	2	Febrero	2023-12-02T00:00:00	2024-11-08T20:00:00	7	Dirección del viento	3.22
76239	7	Sololá	704	Santa Lucía Utatlán 	7	Santa Rita 	2	Febrero	2023-12-02T00:00:00	2024-11-08T20:00:00	1	Precipitación	0
76240	7	Sololá	704	Santa Lucía Utatlán 	7	Santa Rita 	2	Febrero	2023-12-02T00:00:00	2024-11-08T20:00:00	8	Radiación solar	0
76241	7	Sololá	704	Santa Lucía Utatlán 	7	Santa Rita 	2	Febrero	2023-12-02T00:00:00	2024-11-08T21:00:00	2	Temperatura media	17.1
76242	7	Sololá	704	Santa Lucía Utatlán 	7	Santa Rita 	2	Febrero	2023-12-02T00:00:00	2024-11-08T21:00:00	4	Temperatura máxima	17.8
76243	7	Sololá	704	Santa Lucía Utatlán 	7	Santa Rita 	2	Febrero	2023-12-02T00:00:00	2024-11-08T21:00:00	3	Temperatura mínima	16.5
76244	7	Sololá	704	Santa Lucía Utatlán 	7	Santa Rita 	2	Febrero	2023-12-02T00:00:00	2024-11-08T21:00:00	5	Humedad	64
76245	7	Sololá	704	Santa Lucía Utatlán 	7	Santa Rita 	2	Febrero	2023-12-02T00:00:00	2024-11-08T21:00:00	6	Velocidad del viento	3.2
76246	7	Sololá	704	Santa Lucía Utatlán 	7	Santa Rita 	2	Febrero	2023-12-02T00:00:00	2024-11-08T21:00:00	7	Dirección del viento	3.22
76247	7	Sololá	704	Santa Lucía Utatlán 	7	Santa Rita 	2	Febrero	2023-12-02T00:00:00	2024-11-08T21:00:00	1	Precipitación	0
76248	7	Sololá	704	Santa Lucía Utatlán 	7	Santa Rita 	2	Febrero	2023-12-02T00:00:00	2024-11-08T21:00:00	8	Radiación solar	0
76249	7	Sololá	704	Santa Lucía Utatlán 	7	Santa Rita 	2	Febrero	2023-12-02T00:00:00	2024-11-08T22:00:00	2	Temperatura media	16.2
76250	7	Sololá	704	Santa Lucía Utatlán 	7	Santa Rita 	2	Febrero	2023-12-02T00:00:00	2024-11-08T22:00:00	4	Temperatura máxima	17
76251	7	Sololá	704	Santa Lucía Utatlán 	7	Santa Rita 	2	Febrero	2023-12-02T00:00:00	2024-11-08T22:00:00	3	Temperatura mínima	16.2
76252	7	Sololá	704	Santa Lucía Utatlán 	7	Santa Rita 	2	Febrero	2023-12-02T00:00:00	2024-11-08T22:00:00	5	Humedad	73
76253	7	Sololá	704	Santa Lucía Utatlán 	7	Santa Rita 	2	Febrero	2023-12-02T00:00:00	2024-11-08T22:00:00	6	Velocidad del viento	3.2
76254	7	Sololá	704	Santa Lucía Utatlán 	7	Santa Rita 	2	Febrero	2023-12-02T00:00:00	2024-11-08T22:00:00	7	Dirección del viento	3.22
76255	7	Sololá	704	Santa Lucía Utatlán 	7	Santa Rita 	2	Febrero	2023-12-02T00:00:00	2024-11-08T22:00:00	1	Precipitación	0
76256	7	Sololá	704	Santa Lucía Utatlán 	7	Santa Rita 	2	Febrero	2023-12-02T00:00:00	2024-11-08T22:00:00	8	Radiación solar	0
76257	7	Sololá	704	Santa Lucía Utatlán 	7	Santa Rita 	2	Febrero	2023-12-02T00:00:00	2024-11-08T23:00:00	2	Temperatura media	15.3
76258	7	Sololá	704	Santa Lucía Utatlán 	7	Santa Rita 	2	Febrero	2023-12-02T00:00:00	2024-11-08T23:00:00	4	Temperatura máxima	16.3
76259	7	Sololá	704	Santa Lucía Utatlán 	7	Santa Rita 	2	Febrero	2023-12-02T00:00:00	2024-11-08T23:00:00	3	Temperatura mínima	15.3
76260	7	Sololá	704	Santa Lucía Utatlán 	7	Santa Rita 	2	Febrero	2023-12-02T00:00:00	2024-11-08T23:00:00	5	Humedad	76
76261	7	Sololá	704	Santa Lucía Utatlán 	7	Santa Rita 	2	Febrero	2023-12-02T00:00:00	2024-11-08T23:00:00	6	Velocidad del viento	3.2
76262	7	Sololá	704	Santa Lucía Utatlán 	7	Santa Rita 	2	Febrero	2023-12-02T00:00:00	2024-11-08T23:00:00	7	Dirección del viento	3.22
76263	7	Sololá	704	Santa Lucía Utatlán 	7	Santa Rita 	2	Febrero	2023-12-02T00:00:00	2024-11-08T23:00:00	1	Precipitación	0
76264	7	Sololá	704	Santa Lucía Utatlán 	7	Santa Rita 	2	Febrero	2023-12-02T00:00:00	2024-11-08T23:00:00	8	Radiación solar	0
76265	7	Sololá	704	Santa Lucía Utatlán 	7	Santa Rita 	2	Febrero	2023-02-13T00:00:00	2024-11-08T00:00:00	2	Temperatura media	15.1
76266	7	Sololá	704	Santa Lucía Utatlán 	7	Santa Rita 	2	Febrero	2023-02-13T00:00:00	2024-11-08T00:00:00	4	Temperatura máxima	16.2
76267	7	Sololá	704	Santa Lucía Utatlán 	7	Santa Rita 	2	Febrero	2023-02-13T00:00:00	2024-11-08T00:00:00	3	Temperatura mínima	15.1
76268	7	Sololá	704	Santa Lucía Utatlán 	7	Santa Rita 	2	Febrero	2023-02-13T00:00:00	2024-11-08T00:00:00	5	Humedad	76
76269	7	Sololá	704	Santa Lucía Utatlán 	7	Santa Rita 	2	Febrero	2023-02-13T00:00:00	2024-11-08T00:00:00	6	Velocidad del viento	3.2
76270	7	Sololá	704	Santa Lucía Utatlán 	7	Santa Rita 	2	Febrero	2023-02-13T00:00:00	2024-11-08T00:00:00	7	Dirección del viento	3.22
76271	7	Sololá	704	Santa Lucía Utatlán 	7	Santa Rita 	2	Febrero	2023-02-13T00:00:00	2024-11-08T00:00:00	1	Precipitación	0
76272	7	Sololá	704	Santa Lucía Utatlán 	7	Santa Rita 	2	Febrero	2023-02-13T00:00:00	2024-11-08T00:00:00	8	Radiación solar	0
76273	7	Sololá	704	Santa Lucía Utatlán 	7	Santa Rita 	2	Febrero	2023-02-13T00:00:00	2024-11-08T01:00:00	2	Temperatura media	14.2
76274	7	Sololá	704	Santa Lucía Utatlán 	7	Santa Rita 	2	Febrero	2023-02-13T00:00:00	2024-11-08T01:00:00	4	Temperatura máxima	15.2
76275	7	Sololá	704	Santa Lucía Utatlán 	7	Santa Rita 	2	Febrero	2023-02-13T00:00:00	2024-11-08T01:00:00	3	Temperatura mínima	14.2
76276	7	Sololá	704	Santa Lucía Utatlán 	7	Santa Rita 	2	Febrero	2023-02-13T00:00:00	2024-11-08T01:00:00	5	Humedad	76
76277	7	Sololá	704	Santa Lucía Utatlán 	7	Santa Rita 	2	Febrero	2023-02-13T00:00:00	2024-11-08T01:00:00	6	Velocidad del viento	3.2
76278	7	Sololá	704	Santa Lucía Utatlán 	7	Santa Rita 	2	Febrero	2023-02-13T00:00:00	2024-11-08T01:00:00	7	Dirección del viento	3.22
76279	7	Sololá	704	Santa Lucía Utatlán 	7	Santa Rita 	2	Febrero	2023-02-13T00:00:00	2024-11-08T01:00:00	1	Precipitación	0
76280	7	Sololá	704	Santa Lucía Utatlán 	7	Santa Rita 	2	Febrero	2023-02-13T00:00:00	2024-11-08T01:00:00	8	Radiación solar	0
76281	7	Sololá	704	Santa Lucía Utatlán 	7	Santa Rita 	2	Febrero	2023-02-13T00:00:00	2024-11-08T02:00:00	2	Temperatura media	14.1
76282	7	Sololá	704	Santa Lucía Utatlán 	7	Santa Rita 	2	Febrero	2023-02-13T00:00:00	2024-11-08T02:00:00	4	Temperatura máxima	15.7
76283	7	Sololá	704	Santa Lucía Utatlán 	7	Santa Rita 	2	Febrero	2023-02-13T00:00:00	2024-11-08T02:00:00	3	Temperatura mínima	13.9
76284	7	Sololá	704	Santa Lucía Utatlán 	7	Santa Rita 	2	Febrero	2023-02-13T00:00:00	2024-11-08T02:00:00	5	Humedad	80
76285	7	Sololá	704	Santa Lucía Utatlán 	7	Santa Rita 	2	Febrero	2023-02-13T00:00:00	2024-11-08T02:00:00	6	Velocidad del viento	3.2
76286	7	Sololá	704	Santa Lucía Utatlán 	7	Santa Rita 	2	Febrero	2023-02-13T00:00:00	2024-11-08T02:00:00	7	Dirección del viento	3.22
76287	7	Sololá	704	Santa Lucía Utatlán 	7	Santa Rita 	2	Febrero	2023-02-13T00:00:00	2024-11-08T02:00:00	1	Precipitación	0
76288	7	Sololá	704	Santa Lucía Utatlán 	7	Santa Rita 	2	Febrero	2023-02-13T00:00:00	2024-11-08T02:00:00	8	Radiación solar	0
76289	7	Sololá	704	Santa Lucía Utatlán 	7	Santa Rita 	2	Febrero	2023-02-13T00:00:00	2024-11-08T03:00:00	2	Temperatura media	14.4
76290	7	Sololá	704	Santa Lucía Utatlán 	7	Santa Rita 	2	Febrero	2023-02-13T00:00:00	2024-11-08T03:00:00	4	Temperatura máxima	14.6
76291	7	Sololá	704	Santa Lucía Utatlán 	7	Santa Rita 	2	Febrero	2023-02-13T00:00:00	2024-11-08T03:00:00	3	Temperatura mínima	13.9
76292	7	Sololá	704	Santa Lucía Utatlán 	7	Santa Rita 	2	Febrero	2023-02-13T00:00:00	2024-11-08T03:00:00	5	Humedad	80
76293	7	Sololá	704	Santa Lucía Utatlán 	7	Santa Rita 	2	Febrero	2023-02-13T00:00:00	2024-11-08T03:00:00	6	Velocidad del viento	1.6
76294	7	Sololá	704	Santa Lucía Utatlán 	7	Santa Rita 	2	Febrero	2023-02-13T00:00:00	2024-11-08T03:00:00	7	Dirección del viento	1.61
76295	7	Sololá	704	Santa Lucía Utatlán 	7	Santa Rita 	2	Febrero	2023-02-13T00:00:00	2024-11-08T03:00:00	1	Precipitación	0
76296	7	Sololá	704	Santa Lucía Utatlán 	7	Santa Rita 	2	Febrero	2023-02-13T00:00:00	2024-11-08T03:00:00	8	Radiación solar	0
76297	7	Sololá	704	Santa Lucía Utatlán 	7	Santa Rita 	2	Febrero	2023-02-13T00:00:00	2024-11-08T04:00:00	2	Temperatura media	14.1
76298	7	Sololá	704	Santa Lucía Utatlán 	7	Santa Rita 	2	Febrero	2023-02-13T00:00:00	2024-11-08T04:00:00	4	Temperatura máxima	15.6
76299	7	Sololá	704	Santa Lucía Utatlán 	7	Santa Rita 	2	Febrero	2023-02-13T00:00:00	2024-11-08T04:00:00	3	Temperatura mínima	13.8
76300	7	Sololá	704	Santa Lucía Utatlán 	7	Santa Rita 	2	Febrero	2023-02-13T00:00:00	2024-11-08T04:00:00	5	Humedad	80
76301	7	Sololá	704	Santa Lucía Utatlán 	7	Santa Rita 	2	Febrero	2023-02-13T00:00:00	2024-11-08T04:00:00	6	Velocidad del viento	1.6
76302	7	Sololá	704	Santa Lucía Utatlán 	7	Santa Rita 	2	Febrero	2023-02-13T00:00:00	2024-11-08T04:00:00	7	Dirección del viento	1.61
76303	7	Sololá	704	Santa Lucía Utatlán 	7	Santa Rita 	2	Febrero	2023-02-13T00:00:00	2024-11-08T04:00:00	1	Precipitación	0
76304	7	Sololá	704	Santa Lucía Utatlán 	7	Santa Rita 	2	Febrero	2023-02-13T00:00:00	2024-11-08T04:00:00	8	Radiación solar	0
76305	7	Sololá	704	Santa Lucía Utatlán 	7	Santa Rita 	2	Febrero	2023-02-13T00:00:00	2024-11-08T05:00:00	2	Temperatura media	14.1
76306	7	Sololá	704	Santa Lucía Utatlán 	7	Santa Rita 	2	Febrero	2023-02-13T00:00:00	2024-11-08T05:00:00	4	Temperatura máxima	14.1
76307	7	Sololá	704	Santa Lucía Utatlán 	7	Santa Rita 	2	Febrero	2023-02-13T00:00:00	2024-11-08T05:00:00	3	Temperatura mínima	13.6
76308	7	Sololá	704	Santa Lucía Utatlán 	7	Santa Rita 	2	Febrero	2023-02-13T00:00:00	2024-11-08T05:00:00	5	Humedad	81
76309	7	Sololá	704	Santa Lucía Utatlán 	7	Santa Rita 	2	Febrero	2023-02-13T00:00:00	2024-11-08T05:00:00	6	Velocidad del viento	1.6
76310	7	Sololá	704	Santa Lucía Utatlán 	7	Santa Rita 	2	Febrero	2023-02-13T00:00:00	2024-11-08T05:00:00	7	Dirección del viento	1.61
76311	7	Sololá	704	Santa Lucía Utatlán 	7	Santa Rita 	2	Febrero	2023-02-13T00:00:00	2024-11-08T05:00:00	1	Precipitación	0
76312	7	Sololá	704	Santa Lucía Utatlán 	7	Santa Rita 	2	Febrero	2023-02-13T00:00:00	2024-11-08T05:00:00	8	Radiación solar	0
76313	7	Sololá	704	Santa Lucía Utatlán 	7	Santa Rita 	2	Febrero	2023-02-13T00:00:00	2024-11-08T06:00:00	2	Temperatura media	13.8
76314	7	Sololá	704	Santa Lucía Utatlán 	7	Santa Rita 	2	Febrero	2023-02-13T00:00:00	2024-11-08T06:00:00	4	Temperatura máxima	15.2
76315	7	Sololá	704	Santa Lucía Utatlán 	7	Santa Rita 	2	Febrero	2023-02-13T00:00:00	2024-11-08T06:00:00	3	Temperatura mínima	13.8
76316	7	Sololá	704	Santa Lucía Utatlán 	7	Santa Rita 	2	Febrero	2023-02-13T00:00:00	2024-11-08T06:00:00	5	Humedad	83
76317	7	Sololá	704	Santa Lucía Utatlán 	7	Santa Rita 	2	Febrero	2023-02-13T00:00:00	2024-11-08T06:00:00	6	Velocidad del viento	3.2
76318	7	Sololá	704	Santa Lucía Utatlán 	7	Santa Rita 	2	Febrero	2023-02-13T00:00:00	2024-11-08T06:00:00	7	Dirección del viento	3.22
76319	7	Sololá	704	Santa Lucía Utatlán 	7	Santa Rita 	2	Febrero	2023-02-13T00:00:00	2024-11-08T06:00:00	1	Precipitación	0
76320	7	Sololá	704	Santa Lucía Utatlán 	7	Santa Rita 	2	Febrero	2023-02-13T00:00:00	2024-11-08T06:00:00	8	Radiación solar	0
76321	7	Sololá	704	Santa Lucía Utatlán 	7	Santa Rita 	2	Febrero	2023-02-13T00:00:00	2024-11-08T07:00:00	2	Temperatura media	16.4
76322	7	Sololá	704	Santa Lucía Utatlán 	7	Santa Rita 	2	Febrero	2023-02-13T00:00:00	2024-11-08T07:00:00	4	Temperatura máxima	16.4
76323	7	Sololá	704	Santa Lucía Utatlán 	7	Santa Rita 	2	Febrero	2023-02-13T00:00:00	2024-11-08T07:00:00	3	Temperatura mínima	13.6
76324	7	Sololá	704	Santa Lucía Utatlán 	7	Santa Rita 	2	Febrero	2023-02-13T00:00:00	2024-11-08T07:00:00	5	Humedad	74
76325	7	Sololá	704	Santa Lucía Utatlán 	7	Santa Rita 	2	Febrero	2023-02-13T00:00:00	2024-11-08T07:00:00	6	Velocidad del viento	4.8
76326	7	Sololá	704	Santa Lucía Utatlán 	7	Santa Rita 	2	Febrero	2023-02-13T00:00:00	2024-11-08T07:00:00	7	Dirección del viento	4.83
76327	7	Sololá	704	Santa Lucía Utatlán 	7	Santa Rita 	2	Febrero	2023-02-13T00:00:00	2024-11-08T07:00:00	1	Precipitación	0
76328	7	Sololá	704	Santa Lucía Utatlán 	7	Santa Rita 	2	Febrero	2023-02-13T00:00:00	2024-11-08T07:00:00	8	Radiación solar	5
76329	7	Sololá	704	Santa Lucía Utatlán 	7	Santa Rita 	2	Febrero	2023-02-13T00:00:00	2024-11-08T08:00:00	2	Temperatura media	19.1
76330	7	Sololá	704	Santa Lucía Utatlán 	7	Santa Rita 	2	Febrero	2023-02-13T00:00:00	2024-11-08T08:00:00	4	Temperatura máxima	19.1
76331	7	Sololá	704	Santa Lucía Utatlán 	7	Santa Rita 	2	Febrero	2023-02-13T00:00:00	2024-11-08T08:00:00	3	Temperatura mínima	16.4
76332	7	Sololá	704	Santa Lucía Utatlán 	7	Santa Rita 	2	Febrero	2023-02-13T00:00:00	2024-11-08T08:00:00	5	Humedad	64
76333	7	Sololá	704	Santa Lucía Utatlán 	7	Santa Rita 	2	Febrero	2023-02-13T00:00:00	2024-11-08T08:00:00	6	Velocidad del viento	6.4
76334	7	Sololá	704	Santa Lucía Utatlán 	7	Santa Rita 	2	Febrero	2023-02-13T00:00:00	2024-11-08T08:00:00	7	Dirección del viento	6.44
76335	7	Sololá	704	Santa Lucía Utatlán 	7	Santa Rita 	2	Febrero	2023-02-13T00:00:00	2024-11-08T08:00:00	1	Precipitación	0
76336	7	Sololá	704	Santa Lucía Utatlán 	7	Santa Rita 	2	Febrero	2023-02-13T00:00:00	2024-11-08T08:00:00	8	Radiación solar	161
76337	7	Sololá	704	Santa Lucía Utatlán 	7	Santa Rita 	2	Febrero	2023-02-13T00:00:00	2024-11-08T09:00:00	2	Temperatura media	20.3
76338	7	Sololá	704	Santa Lucía Utatlán 	7	Santa Rita 	2	Febrero	2023-02-13T00:00:00	2024-11-08T09:00:00	4	Temperatura máxima	20.3
76339	7	Sololá	704	Santa Lucía Utatlán 	7	Santa Rita 	2	Febrero	2023-02-13T00:00:00	2024-11-08T09:00:00	3	Temperatura mínima	19.1
76340	7	Sololá	704	Santa Lucía Utatlán 	7	Santa Rita 	2	Febrero	2023-02-13T00:00:00	2024-11-08T09:00:00	5	Humedad	59
76341	7	Sololá	704	Santa Lucía Utatlán 	7	Santa Rita 	2	Febrero	2023-02-13T00:00:00	2024-11-08T09:00:00	6	Velocidad del viento	6.4
76342	7	Sololá	704	Santa Lucía Utatlán 	7	Santa Rita 	2	Febrero	2023-02-13T00:00:00	2024-11-08T09:00:00	7	Dirección del viento	6.44
76343	7	Sololá	704	Santa Lucía Utatlán 	7	Santa Rita 	2	Febrero	2023-02-13T00:00:00	2024-11-08T09:00:00	1	Precipitación	0
76344	7	Sololá	704	Santa Lucía Utatlán 	7	Santa Rita 	2	Febrero	2023-02-13T00:00:00	2024-11-08T09:00:00	8	Radiación solar	410
76345	7	Sololá	704	Santa Lucía Utatlán 	7	Santa Rita 	2	Febrero	2023-02-13T00:00:00	2024-11-08T10:00:00	2	Temperatura media	21.1
76346	7	Sololá	704	Santa Lucía Utatlán 	7	Santa Rita 	2	Febrero	2023-02-13T00:00:00	2024-11-08T10:00:00	4	Temperatura máxima	21.4
76347	7	Sololá	704	Santa Lucía Utatlán 	7	Santa Rita 	2	Febrero	2023-02-13T00:00:00	2024-11-08T10:00:00	3	Temperatura mínima	19.9
76348	7	Sololá	704	Santa Lucía Utatlán 	7	Santa Rita 	2	Febrero	2023-02-13T00:00:00	2024-11-08T10:00:00	5	Humedad	54
76349	7	Sololá	704	Santa Lucía Utatlán 	7	Santa Rita 	2	Febrero	2023-02-13T00:00:00	2024-11-08T10:00:00	6	Velocidad del viento	8
76350	7	Sololá	704	Santa Lucía Utatlán 	7	Santa Rita 	2	Febrero	2023-02-13T00:00:00	2024-11-08T10:00:00	7	Dirección del viento	8.05
76351	7	Sololá	704	Santa Lucía Utatlán 	7	Santa Rita 	2	Febrero	2023-02-13T00:00:00	2024-11-08T10:00:00	1	Precipitación	0
76352	7	Sololá	704	Santa Lucía Utatlán 	7	Santa Rita 	2	Febrero	2023-02-13T00:00:00	2024-11-08T10:00:00	8	Radiación solar	615
76353	7	Sololá	704	Santa Lucía Utatlán 	7	Santa Rita 	2	Febrero	2023-02-13T00:00:00	2024-11-08T11:00:00	2	Temperatura media	22.1
76354	7	Sololá	704	Santa Lucía Utatlán 	7	Santa Rita 	2	Febrero	2023-02-13T00:00:00	2024-11-08T11:00:00	4	Temperatura máxima	22.1
76355	7	Sololá	704	Santa Lucía Utatlán 	7	Santa Rita 	2	Febrero	2023-02-13T00:00:00	2024-11-08T11:00:00	3	Temperatura mínima	20.7
76356	7	Sololá	704	Santa Lucía Utatlán 	7	Santa Rita 	2	Febrero	2023-02-13T00:00:00	2024-11-08T11:00:00	5	Humedad	54
76357	7	Sololá	704	Santa Lucía Utatlán 	7	Santa Rita 	2	Febrero	2023-02-13T00:00:00	2024-11-08T11:00:00	6	Velocidad del viento	11.3
76358	7	Sololá	704	Santa Lucía Utatlán 	7	Santa Rita 	2	Febrero	2023-02-13T00:00:00	2024-11-08T11:00:00	7	Dirección del viento	11.27
76359	7	Sololá	704	Santa Lucía Utatlán 	7	Santa Rita 	2	Febrero	2023-02-13T00:00:00	2024-11-08T11:00:00	1	Precipitación	0
76360	7	Sololá	704	Santa Lucía Utatlán 	7	Santa Rita 	2	Febrero	2023-02-13T00:00:00	2024-11-08T11:00:00	8	Radiación solar	774
76361	7	Sololá	704	Santa Lucía Utatlán 	7	Santa Rita 	2	Febrero	2023-02-13T00:00:00	2024-11-08T12:00:00	2	Temperatura media	22
76362	7	Sololá	704	Santa Lucía Utatlán 	7	Santa Rita 	2	Febrero	2023-02-13T00:00:00	2024-11-08T12:00:00	4	Temperatura máxima	22.2
76363	7	Sololá	704	Santa Lucía Utatlán 	7	Santa Rita 	2	Febrero	2023-02-13T00:00:00	2024-11-08T12:00:00	3	Temperatura mínima	21.8
76364	7	Sololá	704	Santa Lucía Utatlán 	7	Santa Rita 	2	Febrero	2023-02-13T00:00:00	2024-11-08T12:00:00	5	Humedad	55
76365	7	Sololá	704	Santa Lucía Utatlán 	7	Santa Rita 	2	Febrero	2023-02-13T00:00:00	2024-11-08T12:00:00	6	Velocidad del viento	11.3
76366	7	Sololá	704	Santa Lucía Utatlán 	7	Santa Rita 	2	Febrero	2023-02-13T00:00:00	2024-11-08T12:00:00	7	Dirección del viento	11.27
76367	7	Sololá	704	Santa Lucía Utatlán 	7	Santa Rita 	2	Febrero	2023-02-13T00:00:00	2024-11-08T12:00:00	1	Precipitación	0
76368	7	Sololá	704	Santa Lucía Utatlán 	7	Santa Rita 	2	Febrero	2023-02-13T00:00:00	2024-11-08T12:00:00	8	Radiación solar	882
76369	7	Sololá	704	Santa Lucía Utatlán 	7	Santa Rita 	2	Febrero	2023-02-13T00:00:00	2024-11-08T13:00:00	2	Temperatura media	22.8
76370	7	Sololá	704	Santa Lucía Utatlán 	7	Santa Rita 	2	Febrero	2023-02-13T00:00:00	2024-11-08T13:00:00	4	Temperatura máxima	22.8
76371	7	Sololá	704	Santa Lucía Utatlán 	7	Santa Rita 	2	Febrero	2023-02-13T00:00:00	2024-11-08T13:00:00	3	Temperatura mínima	21.9
76372	7	Sololá	704	Santa Lucía Utatlán 	7	Santa Rita 	2	Febrero	2023-02-13T00:00:00	2024-11-08T13:00:00	5	Humedad	52
76373	7	Sololá	704	Santa Lucía Utatlán 	7	Santa Rita 	2	Febrero	2023-02-13T00:00:00	2024-11-08T13:00:00	6	Velocidad del viento	12.9
76374	7	Sololá	704	Santa Lucía Utatlán 	7	Santa Rita 	2	Febrero	2023-02-13T00:00:00	2024-11-08T13:00:00	7	Dirección del viento	12.87
76375	7	Sololá	704	Santa Lucía Utatlán 	7	Santa Rita 	2	Febrero	2023-02-13T00:00:00	2024-11-08T13:00:00	1	Precipitación	0
76376	7	Sololá	704	Santa Lucía Utatlán 	7	Santa Rita 	2	Febrero	2023-02-13T00:00:00	2024-11-08T13:00:00	8	Radiación solar	956
76377	7	Sololá	704	Santa Lucía Utatlán 	7	Santa Rita 	2	Febrero	2023-02-13T00:00:00	2024-11-08T14:00:00	2	Temperatura media	23.7
76378	7	Sololá	704	Santa Lucía Utatlán 	7	Santa Rita 	2	Febrero	2023-02-13T00:00:00	2024-11-08T14:00:00	4	Temperatura máxima	23.9
76379	7	Sololá	704	Santa Lucía Utatlán 	7	Santa Rita 	2	Febrero	2023-02-13T00:00:00	2024-11-08T14:00:00	3	Temperatura mínima	22.8
76380	7	Sololá	704	Santa Lucía Utatlán 	7	Santa Rita 	2	Febrero	2023-02-13T00:00:00	2024-11-08T14:00:00	5	Humedad	47
76381	7	Sololá	704	Santa Lucía Utatlán 	7	Santa Rita 	2	Febrero	2023-02-13T00:00:00	2024-11-08T14:00:00	6	Velocidad del viento	11.3
76382	7	Sololá	704	Santa Lucía Utatlán 	7	Santa Rita 	2	Febrero	2023-02-13T00:00:00	2024-11-08T14:00:00	7	Dirección del viento	11.27
76383	7	Sololá	704	Santa Lucía Utatlán 	7	Santa Rita 	2	Febrero	2023-02-13T00:00:00	2024-11-08T14:00:00	1	Precipitación	0
76384	7	Sololá	704	Santa Lucía Utatlán 	7	Santa Rita 	2	Febrero	2023-02-13T00:00:00	2024-11-08T14:00:00	8	Radiación solar	907
76385	7	Sololá	704	Santa Lucía Utatlán 	7	Santa Rita 	2	Febrero	2023-02-13T00:00:00	2024-11-08T15:00:00	2	Temperatura media	23.9
76386	7	Sololá	704	Santa Lucía Utatlán 	7	Santa Rita 	2	Febrero	2023-02-13T00:00:00	2024-11-08T15:00:00	4	Temperatura máxima	24.1
76387	7	Sololá	704	Santa Lucía Utatlán 	7	Santa Rita 	2	Febrero	2023-02-13T00:00:00	2024-11-08T15:00:00	3	Temperatura mínima	23.3
76388	7	Sololá	704	Santa Lucía Utatlán 	7	Santa Rita 	2	Febrero	2023-02-13T00:00:00	2024-11-08T15:00:00	5	Humedad	48
76389	7	Sololá	704	Santa Lucía Utatlán 	7	Santa Rita 	2	Febrero	2023-02-13T00:00:00	2024-11-08T15:00:00	6	Velocidad del viento	9.7
76390	7	Sololá	704	Santa Lucía Utatlán 	7	Santa Rita 	2	Febrero	2023-02-13T00:00:00	2024-11-08T15:00:00	7	Dirección del viento	9.66
76391	7	Sololá	704	Santa Lucía Utatlán 	7	Santa Rita 	2	Febrero	2023-02-13T00:00:00	2024-11-08T15:00:00	1	Precipitación	0
76392	7	Sololá	704	Santa Lucía Utatlán 	7	Santa Rita 	2	Febrero	2023-02-13T00:00:00	2024-11-08T15:00:00	8	Radiación solar	733
76393	7	Sololá	704	Santa Lucía Utatlán 	7	Santa Rita 	2	Febrero	2023-02-13T00:00:00	2024-11-08T16:00:00	2	Temperatura media	22.9
76394	7	Sololá	704	Santa Lucía Utatlán 	7	Santa Rita 	2	Febrero	2023-02-13T00:00:00	2024-11-08T16:00:00	4	Temperatura máxima	23.9
76395	7	Sololá	704	Santa Lucía Utatlán 	7	Santa Rita 	2	Febrero	2023-02-13T00:00:00	2024-11-08T16:00:00	3	Temperatura mínima	22.9
76396	7	Sololá	704	Santa Lucía Utatlán 	7	Santa Rita 	2	Febrero	2023-02-13T00:00:00	2024-11-08T16:00:00	5	Humedad	46
76397	7	Sololá	704	Santa Lucía Utatlán 	7	Santa Rita 	2	Febrero	2023-02-13T00:00:00	2024-11-08T16:00:00	6	Velocidad del viento	9.7
76398	7	Sololá	704	Santa Lucía Utatlán 	7	Santa Rita 	2	Febrero	2023-02-13T00:00:00	2024-11-08T16:00:00	7	Dirección del viento	9.66
76399	7	Sololá	704	Santa Lucía Utatlán 	7	Santa Rita 	2	Febrero	2023-02-13T00:00:00	2024-11-08T16:00:00	1	Precipitación	0
76400	7	Sololá	704	Santa Lucía Utatlán 	7	Santa Rita 	2	Febrero	2023-02-13T00:00:00	2024-11-08T16:00:00	8	Radiación solar	433
76401	7	Sololá	704	Santa Lucía Utatlán 	7	Santa Rita 	2	Febrero	2023-02-13T00:00:00	2024-11-08T17:00:00	2	Temperatura media	22.4
76402	7	Sololá	704	Santa Lucía Utatlán 	7	Santa Rita 	2	Febrero	2023-02-13T00:00:00	2024-11-08T17:00:00	4	Temperatura máxima	23.2
76403	7	Sololá	704	Santa Lucía Utatlán 	7	Santa Rita 	2	Febrero	2023-02-13T00:00:00	2024-11-08T17:00:00	3	Temperatura mínima	22.4
76404	7	Sololá	704	Santa Lucía Utatlán 	7	Santa Rita 	2	Febrero	2023-02-13T00:00:00	2024-11-08T17:00:00	5	Humedad	47
76405	7	Sololá	704	Santa Lucía Utatlán 	7	Santa Rita 	2	Febrero	2023-02-13T00:00:00	2024-11-08T17:00:00	6	Velocidad del viento	9.7
76406	7	Sololá	704	Santa Lucía Utatlán 	7	Santa Rita 	2	Febrero	2023-02-13T00:00:00	2024-11-08T17:00:00	7	Dirección del viento	9.66
76407	7	Sololá	704	Santa Lucía Utatlán 	7	Santa Rita 	2	Febrero	2023-02-13T00:00:00	2024-11-08T17:00:00	1	Precipitación	0
76408	7	Sololá	704	Santa Lucía Utatlán 	7	Santa Rita 	2	Febrero	2023-02-13T00:00:00	2024-11-08T17:00:00	8	Radiación solar	246
76409	7	Sololá	704	Santa Lucía Utatlán 	7	Santa Rita 	2	Febrero	2023-02-13T00:00:00	2024-11-08T18:00:00	2	Temperatura media	20
76410	7	Sololá	704	Santa Lucía Utatlán 	7	Santa Rita 	2	Febrero	2023-02-13T00:00:00	2024-11-08T18:00:00	4	Temperatura máxima	22.4
76411	7	Sololá	704	Santa Lucía Utatlán 	7	Santa Rita 	2	Febrero	2023-02-13T00:00:00	2024-11-08T18:00:00	3	Temperatura mínima	19.9
76412	7	Sololá	704	Santa Lucía Utatlán 	7	Santa Rita 	2	Febrero	2023-02-13T00:00:00	2024-11-08T18:00:00	5	Humedad	60
76413	7	Sololá	704	Santa Lucía Utatlán 	7	Santa Rita 	2	Febrero	2023-02-13T00:00:00	2024-11-08T18:00:00	6	Velocidad del viento	8
76414	7	Sololá	704	Santa Lucía Utatlán 	7	Santa Rita 	2	Febrero	2023-02-13T00:00:00	2024-11-08T18:00:00	7	Dirección del viento	8.05
76415	7	Sololá	704	Santa Lucía Utatlán 	7	Santa Rita 	2	Febrero	2023-02-13T00:00:00	2024-11-08T18:00:00	1	Precipitación	0
76416	7	Sololá	704	Santa Lucía Utatlán 	7	Santa Rita 	2	Febrero	2023-02-13T00:00:00	2024-11-08T18:00:00	8	Radiación solar	48
76417	7	Sololá	704	Santa Lucía Utatlán 	7	Santa Rita 	2	Febrero	2023-02-13T00:00:00	2024-11-08T19:00:00	2	Temperatura media	17.7
76418	7	Sololá	704	Santa Lucía Utatlán 	7	Santa Rita 	2	Febrero	2023-02-13T00:00:00	2024-11-08T19:00:00	4	Temperatura máxima	19.9
76419	7	Sololá	704	Santa Lucía Utatlán 	7	Santa Rita 	2	Febrero	2023-02-13T00:00:00	2024-11-08T19:00:00	3	Temperatura mínima	17.7
76420	7	Sololá	704	Santa Lucía Utatlán 	7	Santa Rita 	2	Febrero	2023-02-13T00:00:00	2024-11-08T19:00:00	5	Humedad	68
76421	7	Sololá	704	Santa Lucía Utatlán 	7	Santa Rita 	2	Febrero	2023-02-13T00:00:00	2024-11-08T19:00:00	6	Velocidad del viento	3.2
76422	7	Sololá	704	Santa Lucía Utatlán 	7	Santa Rita 	2	Febrero	2023-02-13T00:00:00	2024-11-08T19:00:00	7	Dirección del viento	3.22
76423	7	Sololá	704	Santa Lucía Utatlán 	7	Santa Rita 	2	Febrero	2023-02-13T00:00:00	2024-11-08T19:00:00	1	Precipitación	0
76424	7	Sololá	704	Santa Lucía Utatlán 	7	Santa Rita 	2	Febrero	2023-02-13T00:00:00	2024-11-08T19:00:00	8	Radiación solar	0
76425	7	Sololá	704	Santa Lucía Utatlán 	7	Santa Rita 	2	Febrero	2023-02-13T00:00:00	2024-11-08T20:00:00	2	Temperatura media	17.6
76426	7	Sololá	704	Santa Lucía Utatlán 	7	Santa Rita 	2	Febrero	2023-02-13T00:00:00	2024-11-08T20:00:00	4	Temperatura máxima	17.9
76427	7	Sololá	704	Santa Lucía Utatlán 	7	Santa Rita 	2	Febrero	2023-02-13T00:00:00	2024-11-08T20:00:00	3	Temperatura mínima	16.7
76428	7	Sololá	704	Santa Lucía Utatlán 	7	Santa Rita 	2	Febrero	2023-02-13T00:00:00	2024-11-08T20:00:00	5	Humedad	71
76429	7	Sololá	704	Santa Lucía Utatlán 	7	Santa Rita 	2	Febrero	2023-02-13T00:00:00	2024-11-08T20:00:00	6	Velocidad del viento	3.2
76430	7	Sololá	704	Santa Lucía Utatlán 	7	Santa Rita 	2	Febrero	2023-02-13T00:00:00	2024-11-08T20:00:00	7	Dirección del viento	3.22
76431	7	Sololá	704	Santa Lucía Utatlán 	7	Santa Rita 	2	Febrero	2023-02-13T00:00:00	2024-11-08T20:00:00	1	Precipitación	0
76432	7	Sololá	704	Santa Lucía Utatlán 	7	Santa Rita 	2	Febrero	2023-02-13T00:00:00	2024-11-08T20:00:00	8	Radiación solar	0
76433	7	Sololá	704	Santa Lucía Utatlán 	7	Santa Rita 	2	Febrero	2023-02-13T00:00:00	2024-11-08T21:00:00	2	Temperatura media	16.1
76434	7	Sololá	704	Santa Lucía Utatlán 	7	Santa Rita 	2	Febrero	2023-02-13T00:00:00	2024-11-08T21:00:00	4	Temperatura máxima	17.6
76435	7	Sololá	704	Santa Lucía Utatlán 	7	Santa Rita 	2	Febrero	2023-02-13T00:00:00	2024-11-08T21:00:00	3	Temperatura mínima	15.8
76436	7	Sololá	704	Santa Lucía Utatlán 	7	Santa Rita 	2	Febrero	2023-02-13T00:00:00	2024-11-08T21:00:00	5	Humedad	68
76437	7	Sololá	704	Santa Lucía Utatlán 	7	Santa Rita 	2	Febrero	2023-02-13T00:00:00	2024-11-08T21:00:00	6	Velocidad del viento	3.2
76438	7	Sololá	704	Santa Lucía Utatlán 	7	Santa Rita 	2	Febrero	2023-02-13T00:00:00	2024-11-08T21:00:00	7	Dirección del viento	3.22
76439	7	Sololá	704	Santa Lucía Utatlán 	7	Santa Rita 	2	Febrero	2023-02-13T00:00:00	2024-11-08T21:00:00	1	Precipitación	0
76440	7	Sololá	704	Santa Lucía Utatlán 	7	Santa Rita 	2	Febrero	2023-02-13T00:00:00	2024-11-08T21:00:00	8	Radiación solar	0
76441	7	Sololá	704	Santa Lucía Utatlán 	7	Santa Rita 	2	Febrero	2023-02-13T00:00:00	2024-11-08T22:00:00	2	Temperatura media	15.1
76442	7	Sololá	704	Santa Lucía Utatlán 	7	Santa Rita 	2	Febrero	2023-02-13T00:00:00	2024-11-08T22:00:00	4	Temperatura máxima	16.2
76443	7	Sololá	704	Santa Lucía Utatlán 	7	Santa Rita 	2	Febrero	2023-02-13T00:00:00	2024-11-08T22:00:00	3	Temperatura mínima	15.1
76444	7	Sololá	704	Santa Lucía Utatlán 	7	Santa Rita 	2	Febrero	2023-02-13T00:00:00	2024-11-08T22:00:00	5	Humedad	65
76445	7	Sololá	704	Santa Lucía Utatlán 	7	Santa Rita 	2	Febrero	2023-02-13T00:00:00	2024-11-08T22:00:00	6	Velocidad del viento	3.2
76446	7	Sololá	704	Santa Lucía Utatlán 	7	Santa Rita 	2	Febrero	2023-02-13T00:00:00	2024-11-08T22:00:00	7	Dirección del viento	3.22
76447	7	Sololá	704	Santa Lucía Utatlán 	7	Santa Rita 	2	Febrero	2023-02-13T00:00:00	2024-11-08T22:00:00	1	Precipitación	0
76448	7	Sololá	704	Santa Lucía Utatlán 	7	Santa Rita 	2	Febrero	2023-02-13T00:00:00	2024-11-08T22:00:00	8	Radiación solar	0
76449	7	Sololá	704	Santa Lucía Utatlán 	7	Santa Rita 	2	Febrero	2023-02-13T00:00:00	2024-11-08T23:00:00	2	Temperatura media	14.8
76450	7	Sololá	704	Santa Lucía Utatlán 	7	Santa Rita 	2	Febrero	2023-02-13T00:00:00	2024-11-08T23:00:00	4	Temperatura máxima	15.2
76451	7	Sololá	704	Santa Lucía Utatlán 	7	Santa Rita 	2	Febrero	2023-02-13T00:00:00	2024-11-08T23:00:00	3	Temperatura mínima	14.7
76452	7	Sololá	704	Santa Lucía Utatlán 	7	Santa Rita 	2	Febrero	2023-02-13T00:00:00	2024-11-08T23:00:00	5	Humedad	68
76453	7	Sololá	704	Santa Lucía Utatlán 	7	Santa Rita 	2	Febrero	2023-02-13T00:00:00	2024-11-08T23:00:00	6	Velocidad del viento	1.6
76454	7	Sololá	704	Santa Lucía Utatlán 	7	Santa Rita 	2	Febrero	2023-02-13T00:00:00	2024-11-08T23:00:00	7	Dirección del viento	1.61
76455	7	Sololá	704	Santa Lucía Utatlán 	7	Santa Rita 	2	Febrero	2023-02-13T00:00:00	2024-11-08T23:00:00	1	Precipitación	0
76456	7	Sololá	704	Santa Lucía Utatlán 	7	Santa Rita 	2	Febrero	2023-02-13T00:00:00	2024-11-08T23:00:00	8	Radiación solar	0
76457	7	Sololá	704	Santa Lucía Utatlán 	7	Santa Rita 	2	Febrero	2023-02-14T00:00:00	2024-11-08T00:00:00	2	Temperatura media	14.7
76458	7	Sololá	704	Santa Lucía Utatlán 	7	Santa Rita 	2	Febrero	2023-02-14T00:00:00	2024-11-08T00:00:00	4	Temperatura máxima	14.8
76459	7	Sololá	704	Santa Lucía Utatlán 	7	Santa Rita 	2	Febrero	2023-02-14T00:00:00	2024-11-08T00:00:00	3	Temperatura mínima	14.4
76460	7	Sololá	704	Santa Lucía Utatlán 	7	Santa Rita 	2	Febrero	2023-02-14T00:00:00	2024-11-08T00:00:00	5	Humedad	65
76461	7	Sololá	704	Santa Lucía Utatlán 	7	Santa Rita 	2	Febrero	2023-02-14T00:00:00	2024-11-08T00:00:00	6	Velocidad del viento	4.8
76462	7	Sololá	704	Santa Lucía Utatlán 	7	Santa Rita 	2	Febrero	2023-02-14T00:00:00	2024-11-08T00:00:00	7	Dirección del viento	4.83
76463	7	Sololá	704	Santa Lucía Utatlán 	7	Santa Rita 	2	Febrero	2023-02-14T00:00:00	2024-11-08T00:00:00	1	Precipitación	0
76464	7	Sololá	704	Santa Lucía Utatlán 	7	Santa Rita 	2	Febrero	2023-02-14T00:00:00	2024-11-08T00:00:00	8	Radiación solar	0
76465	7	Sololá	704	Santa Lucía Utatlán 	7	Santa Rita 	2	Febrero	2023-02-14T00:00:00	2024-11-08T01:00:00	2	Temperatura media	15.1
76466	7	Sololá	704	Santa Lucía Utatlán 	7	Santa Rita 	2	Febrero	2023-02-14T00:00:00	2024-11-08T01:00:00	4	Temperatura máxima	15.1
76467	7	Sololá	704	Santa Lucía Utatlán 	7	Santa Rita 	2	Febrero	2023-02-14T00:00:00	2024-11-08T01:00:00	3	Temperatura mínima	14.5
76468	7	Sololá	704	Santa Lucía Utatlán 	7	Santa Rita 	2	Febrero	2023-02-14T00:00:00	2024-11-08T01:00:00	5	Humedad	63
76469	7	Sololá	704	Santa Lucía Utatlán 	7	Santa Rita 	2	Febrero	2023-02-14T00:00:00	2024-11-08T01:00:00	6	Velocidad del viento	6.4
76470	7	Sololá	704	Santa Lucía Utatlán 	7	Santa Rita 	2	Febrero	2023-02-14T00:00:00	2024-11-08T01:00:00	7	Dirección del viento	6.44
76471	7	Sololá	704	Santa Lucía Utatlán 	7	Santa Rita 	2	Febrero	2023-02-14T00:00:00	2024-11-08T01:00:00	1	Precipitación	0
76472	7	Sololá	704	Santa Lucía Utatlán 	7	Santa Rita 	2	Febrero	2023-02-14T00:00:00	2024-11-08T01:00:00	8	Radiación solar	0
76473	7	Sololá	704	Santa Lucía Utatlán 	7	Santa Rita 	2	Febrero	2023-02-14T00:00:00	2024-11-08T02:00:00	2	Temperatura media	15.2
76474	7	Sololá	704	Santa Lucía Utatlán 	7	Santa Rita 	2	Febrero	2023-02-14T00:00:00	2024-11-08T02:00:00	4	Temperatura máxima	15.4
76475	7	Sololá	704	Santa Lucía Utatlán 	7	Santa Rita 	2	Febrero	2023-02-14T00:00:00	2024-11-08T02:00:00	3	Temperatura mínima	14.9
76476	7	Sololá	704	Santa Lucía Utatlán 	7	Santa Rita 	2	Febrero	2023-02-14T00:00:00	2024-11-08T02:00:00	5	Humedad	69
76477	7	Sololá	704	Santa Lucía Utatlán 	7	Santa Rita 	2	Febrero	2023-02-14T00:00:00	2024-11-08T02:00:00	6	Velocidad del viento	8
76478	7	Sololá	704	Santa Lucía Utatlán 	7	Santa Rita 	2	Febrero	2023-02-14T00:00:00	2024-11-08T02:00:00	7	Dirección del viento	8.05
76479	7	Sololá	704	Santa Lucía Utatlán 	7	Santa Rita 	2	Febrero	2023-02-14T00:00:00	2024-11-08T02:00:00	1	Precipitación	0
76480	7	Sololá	704	Santa Lucía Utatlán 	7	Santa Rita 	2	Febrero	2023-02-14T00:00:00	2024-11-08T02:00:00	8	Radiación solar	0
76481	7	Sololá	704	Santa Lucía Utatlán 	7	Santa Rita 	2	Febrero	2023-02-14T00:00:00	2024-11-08T03:00:00	2	Temperatura media	14.7
76482	7	Sololá	704	Santa Lucía Utatlán 	7	Santa Rita 	2	Febrero	2023-02-14T00:00:00	2024-11-08T03:00:00	4	Temperatura máxima	15.3
76483	7	Sololá	704	Santa Lucía Utatlán 	7	Santa Rita 	2	Febrero	2023-02-14T00:00:00	2024-11-08T03:00:00	3	Temperatura mínima	14.7
76484	7	Sololá	704	Santa Lucía Utatlán 	7	Santa Rita 	2	Febrero	2023-02-14T00:00:00	2024-11-08T03:00:00	5	Humedad	73
76485	7	Sololá	704	Santa Lucía Utatlán 	7	Santa Rita 	2	Febrero	2023-02-14T00:00:00	2024-11-08T03:00:00	6	Velocidad del viento	6.4
76486	7	Sololá	704	Santa Lucía Utatlán 	7	Santa Rita 	2	Febrero	2023-02-14T00:00:00	2024-11-08T03:00:00	7	Dirección del viento	6.44
76487	7	Sololá	704	Santa Lucía Utatlán 	7	Santa Rita 	2	Febrero	2023-02-14T00:00:00	2024-11-08T03:00:00	1	Precipitación	0
76488	7	Sololá	704	Santa Lucía Utatlán 	7	Santa Rita 	2	Febrero	2023-02-14T00:00:00	2024-11-08T03:00:00	8	Radiación solar	0
76489	7	Sololá	704	Santa Lucía Utatlán 	7	Santa Rita 	2	Febrero	2023-02-14T00:00:00	2024-11-08T04:00:00	2	Temperatura media	14.6
76490	7	Sololá	704	Santa Lucía Utatlán 	7	Santa Rita 	2	Febrero	2023-02-14T00:00:00	2024-11-08T04:00:00	4	Temperatura máxima	14.9
76491	7	Sololá	704	Santa Lucía Utatlán 	7	Santa Rita 	2	Febrero	2023-02-14T00:00:00	2024-11-08T04:00:00	3	Temperatura mínima	14.6
76492	7	Sololá	704	Santa Lucía Utatlán 	7	Santa Rita 	2	Febrero	2023-02-14T00:00:00	2024-11-08T04:00:00	5	Humedad	75
76493	7	Sololá	704	Santa Lucía Utatlán 	7	Santa Rita 	2	Febrero	2023-02-14T00:00:00	2024-11-08T04:00:00	6	Velocidad del viento	8
76494	7	Sololá	704	Santa Lucía Utatlán 	7	Santa Rita 	2	Febrero	2023-02-14T00:00:00	2024-11-08T04:00:00	7	Dirección del viento	8.05
76495	7	Sololá	704	Santa Lucía Utatlán 	7	Santa Rita 	2	Febrero	2023-02-14T00:00:00	2024-11-08T04:00:00	1	Precipitación	0
76496	7	Sololá	704	Santa Lucía Utatlán 	7	Santa Rita 	2	Febrero	2023-02-14T00:00:00	2024-11-08T04:00:00	8	Radiación solar	0
76497	7	Sololá	704	Santa Lucía Utatlán 	7	Santa Rita 	2	Febrero	2023-02-14T00:00:00	2024-11-08T05:00:00	2	Temperatura media	14.2
76498	7	Sololá	704	Santa Lucía Utatlán 	7	Santa Rita 	2	Febrero	2023-02-14T00:00:00	2024-11-08T05:00:00	4	Temperatura máxima	14.7
76499	7	Sololá	704	Santa Lucía Utatlán 	7	Santa Rita 	2	Febrero	2023-02-14T00:00:00	2024-11-08T05:00:00	3	Temperatura mínima	13.9
76500	7	Sololá	704	Santa Lucía Utatlán 	7	Santa Rita 	2	Febrero	2023-02-14T00:00:00	2024-11-08T05:00:00	5	Humedad	77
76501	7	Sololá	704	Santa Lucía Utatlán 	7	Santa Rita 	2	Febrero	2023-02-14T00:00:00	2024-11-08T05:00:00	6	Velocidad del viento	6.4
76502	7	Sololá	704	Santa Lucía Utatlán 	7	Santa Rita 	2	Febrero	2023-02-14T00:00:00	2024-11-08T05:00:00	7	Dirección del viento	6.44
76503	7	Sololá	704	Santa Lucía Utatlán 	7	Santa Rita 	2	Febrero	2023-02-14T00:00:00	2024-11-08T05:00:00	1	Precipitación	0
76504	7	Sololá	704	Santa Lucía Utatlán 	7	Santa Rita 	2	Febrero	2023-02-14T00:00:00	2024-11-08T05:00:00	8	Radiación solar	0
76505	7	Sololá	704	Santa Lucía Utatlán 	7	Santa Rita 	2	Febrero	2023-02-14T00:00:00	2024-11-08T06:00:00	2	Temperatura media	14.1
76506	7	Sololá	704	Santa Lucía Utatlán 	7	Santa Rita 	2	Febrero	2023-02-14T00:00:00	2024-11-08T06:00:00	4	Temperatura máxima	14.2
76507	7	Sololá	704	Santa Lucía Utatlán 	7	Santa Rita 	2	Febrero	2023-02-14T00:00:00	2024-11-08T06:00:00	3	Temperatura mínima	14
76508	7	Sololá	704	Santa Lucía Utatlán 	7	Santa Rita 	2	Febrero	2023-02-14T00:00:00	2024-11-08T06:00:00	5	Humedad	76
76509	7	Sololá	704	Santa Lucía Utatlán 	7	Santa Rita 	2	Febrero	2023-02-14T00:00:00	2024-11-08T06:00:00	6	Velocidad del viento	6.4
76510	7	Sololá	704	Santa Lucía Utatlán 	7	Santa Rita 	2	Febrero	2023-02-14T00:00:00	2024-11-08T06:00:00	7	Dirección del viento	6.44
76511	7	Sololá	704	Santa Lucía Utatlán 	7	Santa Rita 	2	Febrero	2023-02-14T00:00:00	2024-11-08T06:00:00	1	Precipitación	0
76512	7	Sololá	704	Santa Lucía Utatlán 	7	Santa Rita 	2	Febrero	2023-02-14T00:00:00	2024-11-08T06:00:00	8	Radiación solar	0
76513	7	Sololá	704	Santa Lucía Utatlán 	7	Santa Rita 	2	Febrero	2023-02-14T00:00:00	2024-11-08T07:00:00	2	Temperatura media	14.8
76514	7	Sololá	704	Santa Lucía Utatlán 	7	Santa Rita 	2	Febrero	2023-02-14T00:00:00	2024-11-08T07:00:00	4	Temperatura máxima	14.9
76515	7	Sololá	704	Santa Lucía Utatlán 	7	Santa Rita 	2	Febrero	2023-02-14T00:00:00	2024-11-08T07:00:00	3	Temperatura mínima	13.9
76516	7	Sololá	704	Santa Lucía Utatlán 	7	Santa Rita 	2	Febrero	2023-02-14T00:00:00	2024-11-08T07:00:00	5	Humedad	73
76517	7	Sololá	704	Santa Lucía Utatlán 	7	Santa Rita 	2	Febrero	2023-02-14T00:00:00	2024-11-08T07:00:00	6	Velocidad del viento	4.8
76518	7	Sololá	704	Santa Lucía Utatlán 	7	Santa Rita 	2	Febrero	2023-02-14T00:00:00	2024-11-08T07:00:00	7	Dirección del viento	4.83
76519	7	Sololá	704	Santa Lucía Utatlán 	7	Santa Rita 	2	Febrero	2023-02-14T00:00:00	2024-11-08T07:00:00	1	Precipitación	0
76520	7	Sololá	704	Santa Lucía Utatlán 	7	Santa Rita 	2	Febrero	2023-02-14T00:00:00	2024-11-08T07:00:00	8	Radiación solar	6
76521	7	Sololá	704	Santa Lucía Utatlán 	7	Santa Rita 	2	Febrero	2023-02-14T00:00:00	2024-11-08T08:00:00	2	Temperatura media	19.7
76522	7	Sololá	704	Santa Lucía Utatlán 	7	Santa Rita 	2	Febrero	2023-02-14T00:00:00	2024-11-08T08:00:00	4	Temperatura máxima	19.7
76523	7	Sololá	704	Santa Lucía Utatlán 	7	Santa Rita 	2	Febrero	2023-02-14T00:00:00	2024-11-08T08:00:00	3	Temperatura mínima	14.8
76524	7	Sololá	704	Santa Lucía Utatlán 	7	Santa Rita 	2	Febrero	2023-02-14T00:00:00	2024-11-08T08:00:00	5	Humedad	61
76525	7	Sololá	704	Santa Lucía Utatlán 	7	Santa Rita 	2	Febrero	2023-02-14T00:00:00	2024-11-08T08:00:00	6	Velocidad del viento	3.2
76526	7	Sololá	704	Santa Lucía Utatlán 	7	Santa Rita 	2	Febrero	2023-02-14T00:00:00	2024-11-08T08:00:00	7	Dirección del viento	3.22
76527	7	Sololá	704	Santa Lucía Utatlán 	7	Santa Rita 	2	Febrero	2023-02-14T00:00:00	2024-11-08T08:00:00	1	Precipitación	0
76528	7	Sololá	704	Santa Lucía Utatlán 	7	Santa Rita 	2	Febrero	2023-02-14T00:00:00	2024-11-08T08:00:00	8	Radiación solar	162
76529	7	Sololá	704	Santa Lucía Utatlán 	7	Santa Rita 	2	Febrero	2023-02-14T00:00:00	2024-11-08T09:00:00	2	Temperatura media	21.2
76530	7	Sololá	704	Santa Lucía Utatlán 	7	Santa Rita 	2	Febrero	2023-02-14T00:00:00	2024-11-08T09:00:00	4	Temperatura máxima	21.3
76531	7	Sololá	704	Santa Lucía Utatlán 	7	Santa Rita 	2	Febrero	2023-02-14T00:00:00	2024-11-08T09:00:00	3	Temperatura mínima	19.7
76532	7	Sololá	704	Santa Lucía Utatlán 	7	Santa Rita 	2	Febrero	2023-02-14T00:00:00	2024-11-08T09:00:00	5	Humedad	56
76533	7	Sololá	704	Santa Lucía Utatlán 	7	Santa Rita 	2	Febrero	2023-02-14T00:00:00	2024-11-08T09:00:00	6	Velocidad del viento	3.2
76534	7	Sololá	704	Santa Lucía Utatlán 	7	Santa Rita 	2	Febrero	2023-02-14T00:00:00	2024-11-08T09:00:00	7	Dirección del viento	3.22
76535	7	Sololá	704	Santa Lucía Utatlán 	7	Santa Rita 	2	Febrero	2023-02-14T00:00:00	2024-11-08T09:00:00	1	Precipitación	0
76536	7	Sololá	704	Santa Lucía Utatlán 	7	Santa Rita 	2	Febrero	2023-02-14T00:00:00	2024-11-08T09:00:00	8	Radiación solar	411
76537	7	Sololá	704	Santa Lucía Utatlán 	7	Santa Rita 	2	Febrero	2023-02-14T00:00:00	2024-11-08T10:00:00	2	Temperatura media	22.4
76538	7	Sololá	704	Santa Lucía Utatlán 	7	Santa Rita 	2	Febrero	2023-02-14T00:00:00	2024-11-08T10:00:00	4	Temperatura máxima	22.4
76539	7	Sololá	704	Santa Lucía Utatlán 	7	Santa Rita 	2	Febrero	2023-02-14T00:00:00	2024-11-08T10:00:00	3	Temperatura mínima	21.1
76540	7	Sololá	704	Santa Lucía Utatlán 	7	Santa Rita 	2	Febrero	2023-02-14T00:00:00	2024-11-08T10:00:00	5	Humedad	55
76541	7	Sololá	704	Santa Lucía Utatlán 	7	Santa Rita 	2	Febrero	2023-02-14T00:00:00	2024-11-08T10:00:00	6	Velocidad del viento	6.4
76542	7	Sololá	704	Santa Lucía Utatlán 	7	Santa Rita 	2	Febrero	2023-02-14T00:00:00	2024-11-08T10:00:00	7	Dirección del viento	6.44
76543	7	Sololá	704	Santa Lucía Utatlán 	7	Santa Rita 	2	Febrero	2023-02-14T00:00:00	2024-11-08T10:00:00	1	Precipitación	0
76544	7	Sololá	704	Santa Lucía Utatlán 	7	Santa Rita 	2	Febrero	2023-02-14T00:00:00	2024-11-08T10:00:00	8	Radiación solar	609
76545	7	Sololá	704	Santa Lucía Utatlán 	7	Santa Rita 	2	Febrero	2023-02-14T00:00:00	2024-11-08T11:00:00	2	Temperatura media	22.6
76546	7	Sololá	704	Santa Lucía Utatlán 	7	Santa Rita 	2	Febrero	2023-02-14T00:00:00	2024-11-08T11:00:00	4	Temperatura máxima	22.9
76547	7	Sololá	704	Santa Lucía Utatlán 	7	Santa Rita 	2	Febrero	2023-02-14T00:00:00	2024-11-08T11:00:00	3	Temperatura mínima	21.9
76548	7	Sololá	704	Santa Lucía Utatlán 	7	Santa Rita 	2	Febrero	2023-02-14T00:00:00	2024-11-08T11:00:00	5	Humedad	58
76549	7	Sololá	704	Santa Lucía Utatlán 	7	Santa Rita 	2	Febrero	2023-02-14T00:00:00	2024-11-08T11:00:00	6	Velocidad del viento	9.7
76550	7	Sololá	704	Santa Lucía Utatlán 	7	Santa Rita 	2	Febrero	2023-02-14T00:00:00	2024-11-08T11:00:00	7	Dirección del viento	9.66
76551	7	Sololá	704	Santa Lucía Utatlán 	7	Santa Rita 	2	Febrero	2023-02-14T00:00:00	2024-11-08T11:00:00	1	Precipitación	0
76552	7	Sololá	704	Santa Lucía Utatlán 	7	Santa Rita 	2	Febrero	2023-02-14T00:00:00	2024-11-08T11:00:00	8	Radiación solar	774
76553	7	Sololá	704	Santa Lucía Utatlán 	7	Santa Rita 	2	Febrero	2023-02-14T00:00:00	2024-11-08T12:00:00	2	Temperatura media	22.7
76554	7	Sololá	704	Santa Lucía Utatlán 	7	Santa Rita 	2	Febrero	2023-02-14T00:00:00	2024-11-08T12:00:00	4	Temperatura máxima	23.4
76555	7	Sololá	704	Santa Lucía Utatlán 	7	Santa Rita 	2	Febrero	2023-02-14T00:00:00	2024-11-08T12:00:00	3	Temperatura mínima	22.2
76556	7	Sololá	704	Santa Lucía Utatlán 	7	Santa Rita 	2	Febrero	2023-02-14T00:00:00	2024-11-08T12:00:00	5	Humedad	54
76557	7	Sololá	704	Santa Lucía Utatlán 	7	Santa Rita 	2	Febrero	2023-02-14T00:00:00	2024-11-08T12:00:00	6	Velocidad del viento	11.3
76558	7	Sololá	704	Santa Lucía Utatlán 	7	Santa Rita 	2	Febrero	2023-02-14T00:00:00	2024-11-08T12:00:00	7	Dirección del viento	11.27
76559	7	Sololá	704	Santa Lucía Utatlán 	7	Santa Rita 	2	Febrero	2023-02-14T00:00:00	2024-11-08T12:00:00	1	Precipitación	0
76560	7	Sololá	704	Santa Lucía Utatlán 	7	Santa Rita 	2	Febrero	2023-02-14T00:00:00	2024-11-08T12:00:00	8	Radiación solar	870
76561	7	Sololá	704	Santa Lucía Utatlán 	7	Santa Rita 	2	Febrero	2023-02-14T00:00:00	2024-11-08T13:00:00	2	Temperatura media	24.6
76562	7	Sololá	704	Santa Lucía Utatlán 	7	Santa Rita 	2	Febrero	2023-02-14T00:00:00	2024-11-08T13:00:00	4	Temperatura máxima	24.6
76563	7	Sololá	704	Santa Lucía Utatlán 	7	Santa Rita 	2	Febrero	2023-02-14T00:00:00	2024-11-08T13:00:00	3	Temperatura mínima	22.7
76564	7	Sololá	704	Santa Lucía Utatlán 	7	Santa Rita 	2	Febrero	2023-02-14T00:00:00	2024-11-08T13:00:00	5	Humedad	49
76565	7	Sololá	704	Santa Lucía Utatlán 	7	Santa Rita 	2	Febrero	2023-02-14T00:00:00	2024-11-08T13:00:00	6	Velocidad del viento	9.7
76566	7	Sololá	704	Santa Lucía Utatlán 	7	Santa Rita 	2	Febrero	2023-02-14T00:00:00	2024-11-08T13:00:00	7	Dirección del viento	9.66
76567	7	Sololá	704	Santa Lucía Utatlán 	7	Santa Rita 	2	Febrero	2023-02-14T00:00:00	2024-11-08T13:00:00	1	Precipitación	0
76568	7	Sololá	704	Santa Lucía Utatlán 	7	Santa Rita 	2	Febrero	2023-02-14T00:00:00	2024-11-08T13:00:00	8	Radiación solar	895
76569	7	Sololá	704	Santa Lucía Utatlán 	7	Santa Rita 	2	Febrero	2023-02-14T00:00:00	2024-11-08T14:00:00	2	Temperatura media	24.7
76570	7	Sololá	704	Santa Lucía Utatlán 	7	Santa Rita 	2	Febrero	2023-02-14T00:00:00	2024-11-08T14:00:00	4	Temperatura máxima	25.4
76571	7	Sololá	704	Santa Lucía Utatlán 	7	Santa Rita 	2	Febrero	2023-02-14T00:00:00	2024-11-08T14:00:00	3	Temperatura mínima	24.2
76572	7	Sololá	704	Santa Lucía Utatlán 	7	Santa Rita 	2	Febrero	2023-02-14T00:00:00	2024-11-08T14:00:00	5	Humedad	57
76573	7	Sololá	704	Santa Lucía Utatlán 	7	Santa Rita 	2	Febrero	2023-02-14T00:00:00	2024-11-08T14:00:00	6	Velocidad del viento	9.7
76574	7	Sololá	704	Santa Lucía Utatlán 	7	Santa Rita 	2	Febrero	2023-02-14T00:00:00	2024-11-08T14:00:00	7	Dirección del viento	9.66
76575	7	Sololá	704	Santa Lucía Utatlán 	7	Santa Rita 	2	Febrero	2023-02-14T00:00:00	2024-11-08T14:00:00	1	Precipitación	0
76576	7	Sololá	704	Santa Lucía Utatlán 	7	Santa Rita 	2	Febrero	2023-02-14T00:00:00	2024-11-08T14:00:00	8	Radiación solar	840
76577	7	Sololá	704	Santa Lucía Utatlán 	7	Santa Rita 	2	Febrero	2023-02-14T00:00:00	2024-11-08T15:00:00	2	Temperatura media	23.8
76578	7	Sololá	704	Santa Lucía Utatlán 	7	Santa Rita 	2	Febrero	2023-02-14T00:00:00	2024-11-08T15:00:00	4	Temperatura máxima	24.9
76579	7	Sololá	704	Santa Lucía Utatlán 	7	Santa Rita 	2	Febrero	2023-02-14T00:00:00	2024-11-08T15:00:00	3	Temperatura mínima	23.6
76580	7	Sololá	704	Santa Lucía Utatlán 	7	Santa Rita 	2	Febrero	2023-02-14T00:00:00	2024-11-08T15:00:00	5	Humedad	65
76581	7	Sololá	704	Santa Lucía Utatlán 	7	Santa Rita 	2	Febrero	2023-02-14T00:00:00	2024-11-08T15:00:00	6	Velocidad del viento	11.3
76582	7	Sololá	704	Santa Lucía Utatlán 	7	Santa Rita 	2	Febrero	2023-02-14T00:00:00	2024-11-08T15:00:00	7	Dirección del viento	11.27
76583	7	Sololá	704	Santa Lucía Utatlán 	7	Santa Rita 	2	Febrero	2023-02-14T00:00:00	2024-11-08T15:00:00	1	Precipitación	0
76584	7	Sololá	704	Santa Lucía Utatlán 	7	Santa Rita 	2	Febrero	2023-02-14T00:00:00	2024-11-08T15:00:00	8	Radiación solar	723
76585	7	Sololá	704	Santa Lucía Utatlán 	7	Santa Rita 	2	Febrero	2023-02-14T00:00:00	2024-11-08T16:00:00	2	Temperatura media	22
76586	7	Sololá	704	Santa Lucía Utatlán 	7	Santa Rita 	2	Febrero	2023-02-14T00:00:00	2024-11-08T16:00:00	4	Temperatura máxima	23.8
76587	7	Sololá	704	Santa Lucía Utatlán 	7	Santa Rita 	2	Febrero	2023-02-14T00:00:00	2024-11-08T16:00:00	3	Temperatura mínima	22
76588	7	Sololá	704	Santa Lucía Utatlán 	7	Santa Rita 	2	Febrero	2023-02-14T00:00:00	2024-11-08T16:00:00	5	Humedad	73
76589	7	Sololá	704	Santa Lucía Utatlán 	7	Santa Rita 	2	Febrero	2023-02-14T00:00:00	2024-11-08T16:00:00	6	Velocidad del viento	8
76590	7	Sololá	704	Santa Lucía Utatlán 	7	Santa Rita 	2	Febrero	2023-02-14T00:00:00	2024-11-08T16:00:00	7	Dirección del viento	8.05
76591	7	Sololá	704	Santa Lucía Utatlán 	7	Santa Rita 	2	Febrero	2023-02-14T00:00:00	2024-11-08T16:00:00	1	Precipitación	0
76592	7	Sololá	704	Santa Lucía Utatlán 	7	Santa Rita 	2	Febrero	2023-02-14T00:00:00	2024-11-08T16:00:00	8	Radiación solar	331
76593	7	Sololá	704	Santa Lucía Utatlán 	7	Santa Rita 	2	Febrero	2023-02-14T00:00:00	2024-11-08T17:00:00	2	Temperatura media	22
76594	7	Sololá	704	Santa Lucía Utatlán 	7	Santa Rita 	2	Febrero	2023-02-14T00:00:00	2024-11-08T17:00:00	4	Temperatura máxima	22.5
76595	7	Sololá	704	Santa Lucía Utatlán 	7	Santa Rita 	2	Febrero	2023-02-14T00:00:00	2024-11-08T17:00:00	3	Temperatura mínima	21.9
76596	7	Sololá	704	Santa Lucía Utatlán 	7	Santa Rita 	2	Febrero	2023-02-14T00:00:00	2024-11-08T17:00:00	5	Humedad	76
76597	7	Sololá	704	Santa Lucía Utatlán 	7	Santa Rita 	2	Febrero	2023-02-14T00:00:00	2024-11-08T17:00:00	6	Velocidad del viento	6.4
76598	7	Sololá	704	Santa Lucía Utatlán 	7	Santa Rita 	2	Febrero	2023-02-14T00:00:00	2024-11-08T17:00:00	7	Dirección del viento	6.44
76599	7	Sololá	704	Santa Lucía Utatlán 	7	Santa Rita 	2	Febrero	2023-02-14T00:00:00	2024-11-08T17:00:00	1	Precipitación	0
76600	7	Sololá	704	Santa Lucía Utatlán 	7	Santa Rita 	2	Febrero	2023-02-14T00:00:00	2024-11-08T17:00:00	8	Radiación solar	227
76601	7	Sololá	704	Santa Lucía Utatlán 	7	Santa Rita 	2	Febrero	2023-02-14T00:00:00	2024-11-08T18:00:00	2	Temperatura media	19.9
76602	7	Sololá	704	Santa Lucía Utatlán 	7	Santa Rita 	2	Febrero	2023-02-14T00:00:00	2024-11-08T18:00:00	4	Temperatura máxima	22
76603	7	Sololá	704	Santa Lucía Utatlán 	7	Santa Rita 	2	Febrero	2023-02-14T00:00:00	2024-11-08T18:00:00	3	Temperatura mínima	19.9
76604	7	Sololá	704	Santa Lucía Utatlán 	7	Santa Rita 	2	Febrero	2023-02-14T00:00:00	2024-11-08T18:00:00	5	Humedad	82
76605	7	Sololá	704	Santa Lucía Utatlán 	7	Santa Rita 	2	Febrero	2023-02-14T00:00:00	2024-11-08T18:00:00	6	Velocidad del viento	4.8
76606	7	Sololá	704	Santa Lucía Utatlán 	7	Santa Rita 	2	Febrero	2023-02-14T00:00:00	2024-11-08T18:00:00	7	Dirección del viento	4.83
76607	7	Sololá	704	Santa Lucía Utatlán 	7	Santa Rita 	2	Febrero	2023-02-14T00:00:00	2024-11-08T18:00:00	1	Precipitación	0
76608	7	Sololá	704	Santa Lucía Utatlán 	7	Santa Rita 	2	Febrero	2023-02-14T00:00:00	2024-11-08T18:00:00	8	Radiación solar	64
76609	7	Sololá	704	Santa Lucía Utatlán 	7	Santa Rita 	2	Febrero	2023-02-14T00:00:00	2024-11-08T19:00:00	2	Temperatura media	17.6
76610	7	Sololá	704	Santa Lucía Utatlán 	7	Santa Rita 	2	Febrero	2023-02-14T00:00:00	2024-11-08T19:00:00	4	Temperatura máxima	19.9
76611	7	Sololá	704	Santa Lucía Utatlán 	7	Santa Rita 	2	Febrero	2023-02-14T00:00:00	2024-11-08T19:00:00	3	Temperatura mínima	17.6
76612	7	Sololá	704	Santa Lucía Utatlán 	7	Santa Rita 	2	Febrero	2023-02-14T00:00:00	2024-11-08T19:00:00	5	Humedad	81
76613	7	Sololá	704	Santa Lucía Utatlán 	7	Santa Rita 	2	Febrero	2023-02-14T00:00:00	2024-11-08T19:00:00	6	Velocidad del viento	1.6
76614	7	Sololá	704	Santa Lucía Utatlán 	7	Santa Rita 	2	Febrero	2023-02-14T00:00:00	2024-11-08T19:00:00	7	Dirección del viento	1.61
76615	7	Sololá	704	Santa Lucía Utatlán 	7	Santa Rita 	2	Febrero	2023-02-14T00:00:00	2024-11-08T19:00:00	1	Precipitación	0
76616	7	Sololá	704	Santa Lucía Utatlán 	7	Santa Rita 	2	Febrero	2023-02-14T00:00:00	2024-11-08T19:00:00	8	Radiación solar	0
76617	7	Sololá	704	Santa Lucía Utatlán 	7	Santa Rita 	2	Febrero	2023-02-14T00:00:00	2024-11-08T20:00:00	2	Temperatura media	16.4
76618	7	Sololá	704	Santa Lucía Utatlán 	7	Santa Rita 	2	Febrero	2023-02-14T00:00:00	2024-11-08T20:00:00	4	Temperatura máxima	17.6
76619	7	Sololá	704	Santa Lucía Utatlán 	7	Santa Rita 	2	Febrero	2023-02-14T00:00:00	2024-11-08T20:00:00	3	Temperatura mínima	16.2
76620	7	Sololá	704	Santa Lucía Utatlán 	7	Santa Rita 	2	Febrero	2023-02-14T00:00:00	2024-11-08T20:00:00	5	Humedad	74
76621	7	Sololá	704	Santa Lucía Utatlán 	7	Santa Rita 	2	Febrero	2023-02-14T00:00:00	2024-11-08T20:00:00	6	Velocidad del viento	3.2
76622	7	Sololá	704	Santa Lucía Utatlán 	7	Santa Rita 	2	Febrero	2023-02-14T00:00:00	2024-11-08T20:00:00	7	Dirección del viento	3.22
76623	7	Sololá	704	Santa Lucía Utatlán 	7	Santa Rita 	2	Febrero	2023-02-14T00:00:00	2024-11-08T20:00:00	1	Precipitación	0
76624	7	Sololá	704	Santa Lucía Utatlán 	7	Santa Rita 	2	Febrero	2023-02-14T00:00:00	2024-11-08T20:00:00	8	Radiación solar	0
76625	7	Sololá	704	Santa Lucía Utatlán 	7	Santa Rita 	2	Febrero	2023-02-14T00:00:00	2024-11-08T21:00:00	2	Temperatura media	16.7
76626	7	Sololá	704	Santa Lucía Utatlán 	7	Santa Rita 	2	Febrero	2023-02-14T00:00:00	2024-11-08T21:00:00	4	Temperatura máxima	16.8
76627	7	Sololá	704	Santa Lucía Utatlán 	7	Santa Rita 	2	Febrero	2023-02-14T00:00:00	2024-11-08T21:00:00	3	Temperatura mínima	16.4
76628	7	Sololá	704	Santa Lucía Utatlán 	7	Santa Rita 	2	Febrero	2023-02-14T00:00:00	2024-11-08T21:00:00	5	Humedad	61
76629	7	Sololá	704	Santa Lucía Utatlán 	7	Santa Rita 	2	Febrero	2023-02-14T00:00:00	2024-11-08T21:00:00	6	Velocidad del viento	4.8
76630	7	Sololá	704	Santa Lucía Utatlán 	7	Santa Rita 	2	Febrero	2023-02-14T00:00:00	2024-11-08T21:00:00	7	Dirección del viento	4.83
76631	7	Sololá	704	Santa Lucía Utatlán 	7	Santa Rita 	2	Febrero	2023-02-14T00:00:00	2024-11-08T21:00:00	1	Precipitación	0
76632	7	Sololá	704	Santa Lucía Utatlán 	7	Santa Rita 	2	Febrero	2023-02-14T00:00:00	2024-11-08T21:00:00	8	Radiación solar	0
76633	7	Sololá	704	Santa Lucía Utatlán 	7	Santa Rita 	2	Febrero	2023-02-14T00:00:00	2024-11-08T22:00:00	2	Temperatura media	16.8
76634	7	Sololá	704	Santa Lucía Utatlán 	7	Santa Rita 	2	Febrero	2023-02-14T00:00:00	2024-11-08T22:00:00	4	Temperatura máxima	17
76635	7	Sololá	704	Santa Lucía Utatlán 	7	Santa Rita 	2	Febrero	2023-02-14T00:00:00	2024-11-08T22:00:00	3	Temperatura mínima	16.6
76636	7	Sololá	704	Santa Lucía Utatlán 	7	Santa Rita 	2	Febrero	2023-02-14T00:00:00	2024-11-08T22:00:00	5	Humedad	62
76637	7	Sololá	704	Santa Lucía Utatlán 	7	Santa Rita 	2	Febrero	2023-02-14T00:00:00	2024-11-08T22:00:00	6	Velocidad del viento	6.4
76638	7	Sololá	704	Santa Lucía Utatlán 	7	Santa Rita 	2	Febrero	2023-02-14T00:00:00	2024-11-08T22:00:00	7	Dirección del viento	6.44
76639	7	Sololá	704	Santa Lucía Utatlán 	7	Santa Rita 	2	Febrero	2023-02-14T00:00:00	2024-11-08T22:00:00	1	Precipitación	0
76640	7	Sololá	704	Santa Lucía Utatlán 	7	Santa Rita 	2	Febrero	2023-02-14T00:00:00	2024-11-08T22:00:00	8	Radiación solar	0
76641	7	Sololá	704	Santa Lucía Utatlán 	7	Santa Rita 	2	Febrero	2023-02-14T00:00:00	2024-11-08T23:00:00	2	Temperatura media	16.2
76642	7	Sololá	704	Santa Lucía Utatlán 	7	Santa Rita 	2	Febrero	2023-02-14T00:00:00	2024-11-08T23:00:00	4	Temperatura máxima	16.9
76643	7	Sololá	704	Santa Lucía Utatlán 	7	Santa Rita 	2	Febrero	2023-02-14T00:00:00	2024-11-08T23:00:00	3	Temperatura mínima	16.1
76644	7	Sololá	704	Santa Lucía Utatlán 	7	Santa Rita 	2	Febrero	2023-02-14T00:00:00	2024-11-08T23:00:00	5	Humedad	71
76645	7	Sololá	704	Santa Lucía Utatlán 	7	Santa Rita 	2	Febrero	2023-02-14T00:00:00	2024-11-08T23:00:00	6	Velocidad del viento	6.4
76646	7	Sololá	704	Santa Lucía Utatlán 	7	Santa Rita 	2	Febrero	2023-02-14T00:00:00	2024-11-08T23:00:00	7	Dirección del viento	6.44
76647	7	Sololá	704	Santa Lucía Utatlán 	7	Santa Rita 	2	Febrero	2023-02-14T00:00:00	2024-11-08T23:00:00	1	Precipitación	0
76648	7	Sololá	704	Santa Lucía Utatlán 	7	Santa Rita 	2	Febrero	2023-02-14T00:00:00	2024-11-08T23:00:00	8	Radiación solar	0
76649	7	Sololá	704	Santa Lucía Utatlán 	7	Santa Rita 	2	Febrero	2023-02-15T00:00:00	2024-11-08T00:00:00	2	Temperatura media	15.7
76650	7	Sololá	704	Santa Lucía Utatlán 	7	Santa Rita 	2	Febrero	2023-02-15T00:00:00	2024-11-08T00:00:00	4	Temperatura máxima	16.3
76651	7	Sololá	704	Santa Lucía Utatlán 	7	Santa Rita 	2	Febrero	2023-02-15T00:00:00	2024-11-08T00:00:00	3	Temperatura mínima	15.7
76652	7	Sololá	704	Santa Lucía Utatlán 	7	Santa Rita 	2	Febrero	2023-02-15T00:00:00	2024-11-08T00:00:00	5	Humedad	79
76653	7	Sololá	704	Santa Lucía Utatlán 	7	Santa Rita 	2	Febrero	2023-02-15T00:00:00	2024-11-08T00:00:00	6	Velocidad del viento	6.4
76654	7	Sololá	704	Santa Lucía Utatlán 	7	Santa Rita 	2	Febrero	2023-02-15T00:00:00	2024-11-08T00:00:00	7	Dirección del viento	6.44
76655	7	Sololá	704	Santa Lucía Utatlán 	7	Santa Rita 	2	Febrero	2023-02-15T00:00:00	2024-11-08T00:00:00	1	Precipitación	0
76656	7	Sololá	704	Santa Lucía Utatlán 	7	Santa Rita 	2	Febrero	2023-02-15T00:00:00	2024-11-08T00:00:00	8	Radiación solar	0
76657	7	Sololá	704	Santa Lucía Utatlán 	7	Santa Rita 	2	Febrero	2023-02-15T00:00:00	2024-11-08T01:00:00	2	Temperatura media	15
76658	7	Sololá	704	Santa Lucía Utatlán 	7	Santa Rita 	2	Febrero	2023-02-15T00:00:00	2024-11-08T01:00:00	4	Temperatura máxima	15.8
76659	7	Sololá	704	Santa Lucía Utatlán 	7	Santa Rita 	2	Febrero	2023-02-15T00:00:00	2024-11-08T01:00:00	3	Temperatura mínima	15
76660	7	Sololá	704	Santa Lucía Utatlán 	7	Santa Rita 	2	Febrero	2023-02-15T00:00:00	2024-11-08T01:00:00	5	Humedad	70
76661	7	Sololá	704	Santa Lucía Utatlán 	7	Santa Rita 	2	Febrero	2023-02-15T00:00:00	2024-11-08T01:00:00	6	Velocidad del viento	6.4
76662	7	Sololá	704	Santa Lucía Utatlán 	7	Santa Rita 	2	Febrero	2023-02-15T00:00:00	2024-11-08T01:00:00	7	Dirección del viento	6.44
76663	7	Sololá	704	Santa Lucía Utatlán 	7	Santa Rita 	2	Febrero	2023-02-15T00:00:00	2024-11-08T01:00:00	1	Precipitación	0
76664	7	Sololá	704	Santa Lucía Utatlán 	7	Santa Rita 	2	Febrero	2023-02-15T00:00:00	2024-11-08T01:00:00	8	Radiación solar	0
76665	7	Sololá	704	Santa Lucía Utatlán 	7	Santa Rita 	2	Febrero	2023-02-15T00:00:00	2024-11-08T02:00:00	2	Temperatura media	14.7
76666	7	Sololá	704	Santa Lucía Utatlán 	7	Santa Rita 	2	Febrero	2023-02-15T00:00:00	2024-11-08T02:00:00	4	Temperatura máxima	15.1
76667	7	Sololá	704	Santa Lucía Utatlán 	7	Santa Rita 	2	Febrero	2023-02-15T00:00:00	2024-11-08T02:00:00	3	Temperatura mínima	14.7
76668	7	Sololá	704	Santa Lucía Utatlán 	7	Santa Rita 	2	Febrero	2023-02-15T00:00:00	2024-11-08T02:00:00	5	Humedad	44
76669	7	Sololá	704	Santa Lucía Utatlán 	7	Santa Rita 	2	Febrero	2023-02-15T00:00:00	2024-11-08T02:00:00	6	Velocidad del viento	6.4
76670	7	Sololá	704	Santa Lucía Utatlán 	7	Santa Rita 	2	Febrero	2023-02-15T00:00:00	2024-11-08T02:00:00	7	Dirección del viento	6.44
76671	7	Sololá	704	Santa Lucía Utatlán 	7	Santa Rita 	2	Febrero	2023-02-15T00:00:00	2024-11-08T02:00:00	1	Precipitación	0
76672	7	Sololá	704	Santa Lucía Utatlán 	7	Santa Rita 	2	Febrero	2023-02-15T00:00:00	2024-11-08T02:00:00	8	Radiación solar	0
76673	7	Sololá	704	Santa Lucía Utatlán 	7	Santa Rita 	2	Febrero	2023-02-15T00:00:00	2024-11-08T03:00:00	2	Temperatura media	14.2
76674	7	Sololá	704	Santa Lucía Utatlán 	7	Santa Rita 	2	Febrero	2023-02-15T00:00:00	2024-11-08T03:00:00	4	Temperatura máxima	14.8
76675	7	Sololá	704	Santa Lucía Utatlán 	7	Santa Rita 	2	Febrero	2023-02-15T00:00:00	2024-11-08T03:00:00	3	Temperatura mínima	14.1
76676	7	Sololá	704	Santa Lucía Utatlán 	7	Santa Rita 	2	Febrero	2023-02-15T00:00:00	2024-11-08T03:00:00	5	Humedad	49
76677	7	Sololá	704	Santa Lucía Utatlán 	7	Santa Rita 	2	Febrero	2023-02-15T00:00:00	2024-11-08T03:00:00	6	Velocidad del viento	6.4
76678	7	Sololá	704	Santa Lucía Utatlán 	7	Santa Rita 	2	Febrero	2023-02-15T00:00:00	2024-11-08T03:00:00	7	Dirección del viento	6.44
76679	7	Sololá	704	Santa Lucía Utatlán 	7	Santa Rita 	2	Febrero	2023-02-15T00:00:00	2024-11-08T03:00:00	1	Precipitación	0
76680	7	Sololá	704	Santa Lucía Utatlán 	7	Santa Rita 	2	Febrero	2023-02-15T00:00:00	2024-11-08T03:00:00	8	Radiación solar	0
76681	7	Sololá	704	Santa Lucía Utatlán 	7	Santa Rita 	2	Febrero	2023-02-15T00:00:00	2024-11-08T04:00:00	2	Temperatura media	13.8
76682	7	Sololá	704	Santa Lucía Utatlán 	7	Santa Rita 	2	Febrero	2023-02-15T00:00:00	2024-11-08T04:00:00	4	Temperatura máxima	14.6
76683	7	Sololá	704	Santa Lucía Utatlán 	7	Santa Rita 	2	Febrero	2023-02-15T00:00:00	2024-11-08T04:00:00	3	Temperatura mínima	13.8
76684	7	Sololá	704	Santa Lucía Utatlán 	7	Santa Rita 	2	Febrero	2023-02-15T00:00:00	2024-11-08T04:00:00	5	Humedad	47
76685	7	Sololá	704	Santa Lucía Utatlán 	7	Santa Rita 	2	Febrero	2023-02-15T00:00:00	2024-11-08T04:00:00	6	Velocidad del viento	6.4
76686	7	Sololá	704	Santa Lucía Utatlán 	7	Santa Rita 	2	Febrero	2023-02-15T00:00:00	2024-11-08T04:00:00	7	Dirección del viento	6.44
76687	7	Sololá	704	Santa Lucía Utatlán 	7	Santa Rita 	2	Febrero	2023-02-15T00:00:00	2024-11-08T04:00:00	1	Precipitación	0
76688	7	Sololá	704	Santa Lucía Utatlán 	7	Santa Rita 	2	Febrero	2023-02-15T00:00:00	2024-11-08T04:00:00	8	Radiación solar	0
76689	7	Sololá	704	Santa Lucía Utatlán 	7	Santa Rita 	2	Febrero	2023-02-15T00:00:00	2024-11-08T05:00:00	2	Temperatura media	13.6
76690	7	Sololá	704	Santa Lucía Utatlán 	7	Santa Rita 	2	Febrero	2023-02-15T00:00:00	2024-11-08T05:00:00	4	Temperatura máxima	14.1
76691	7	Sololá	704	Santa Lucía Utatlán 	7	Santa Rita 	2	Febrero	2023-02-15T00:00:00	2024-11-08T05:00:00	3	Temperatura mínima	13.4
76692	7	Sololá	704	Santa Lucía Utatlán 	7	Santa Rita 	2	Febrero	2023-02-15T00:00:00	2024-11-08T05:00:00	5	Humedad	46
76693	7	Sololá	704	Santa Lucía Utatlán 	7	Santa Rita 	2	Febrero	2023-02-15T00:00:00	2024-11-08T05:00:00	6	Velocidad del viento	6.4
76694	7	Sololá	704	Santa Lucía Utatlán 	7	Santa Rita 	2	Febrero	2023-02-15T00:00:00	2024-11-08T05:00:00	7	Dirección del viento	6.44
76695	7	Sololá	704	Santa Lucía Utatlán 	7	Santa Rita 	2	Febrero	2023-02-15T00:00:00	2024-11-08T05:00:00	1	Precipitación	0
76696	7	Sololá	704	Santa Lucía Utatlán 	7	Santa Rita 	2	Febrero	2023-02-15T00:00:00	2024-11-08T05:00:00	8	Radiación solar	0
76697	7	Sololá	704	Santa Lucía Utatlán 	7	Santa Rita 	2	Febrero	2023-02-15T00:00:00	2024-11-08T06:00:00	2	Temperatura media	13.1
76698	7	Sololá	704	Santa Lucía Utatlán 	7	Santa Rita 	2	Febrero	2023-02-15T00:00:00	2024-11-08T06:00:00	4	Temperatura máxima	13.6
76699	7	Sololá	704	Santa Lucía Utatlán 	7	Santa Rita 	2	Febrero	2023-02-15T00:00:00	2024-11-08T06:00:00	3	Temperatura mínima	13
76700	7	Sololá	704	Santa Lucía Utatlán 	7	Santa Rita 	2	Febrero	2023-02-15T00:00:00	2024-11-08T06:00:00	5	Humedad	46
76701	7	Sololá	704	Santa Lucía Utatlán 	7	Santa Rita 	2	Febrero	2023-02-15T00:00:00	2024-11-08T06:00:00	6	Velocidad del viento	6.4
76702	7	Sololá	704	Santa Lucía Utatlán 	7	Santa Rita 	2	Febrero	2023-02-15T00:00:00	2024-11-08T06:00:00	7	Dirección del viento	6.44
76703	7	Sololá	704	Santa Lucía Utatlán 	7	Santa Rita 	2	Febrero	2023-02-15T00:00:00	2024-11-08T06:00:00	1	Precipitación	0
76704	7	Sololá	704	Santa Lucía Utatlán 	7	Santa Rita 	2	Febrero	2023-02-15T00:00:00	2024-11-08T06:00:00	8	Radiación solar	0
76705	7	Sololá	704	Santa Lucía Utatlán 	7	Santa Rita 	2	Febrero	2023-02-15T00:00:00	2024-11-08T07:00:00	2	Temperatura media	13.8
76706	7	Sololá	704	Santa Lucía Utatlán 	7	Santa Rita 	2	Febrero	2023-02-15T00:00:00	2024-11-08T07:00:00	4	Temperatura máxima	13.8
76707	7	Sololá	704	Santa Lucía Utatlán 	7	Santa Rita 	2	Febrero	2023-02-15T00:00:00	2024-11-08T07:00:00	3	Temperatura mínima	12.9
76708	7	Sololá	704	Santa Lucía Utatlán 	7	Santa Rita 	2	Febrero	2023-02-15T00:00:00	2024-11-08T07:00:00	5	Humedad	36
76709	7	Sololá	704	Santa Lucía Utatlán 	7	Santa Rita 	2	Febrero	2023-02-15T00:00:00	2024-11-08T07:00:00	6	Velocidad del viento	6.4
76710	7	Sololá	704	Santa Lucía Utatlán 	7	Santa Rita 	2	Febrero	2023-02-15T00:00:00	2024-11-08T07:00:00	7	Dirección del viento	6.44
76711	7	Sololá	704	Santa Lucía Utatlán 	7	Santa Rita 	2	Febrero	2023-02-15T00:00:00	2024-11-08T07:00:00	1	Precipitación	0
76712	7	Sololá	704	Santa Lucía Utatlán 	7	Santa Rita 	2	Febrero	2023-02-15T00:00:00	2024-11-08T07:00:00	8	Radiación solar	7
76713	7	Sololá	704	Santa Lucía Utatlán 	7	Santa Rita 	2	Febrero	2023-02-15T00:00:00	2024-11-08T08:00:00	2	Temperatura media	19.6
76714	7	Sololá	704	Santa Lucía Utatlán 	7	Santa Rita 	2	Febrero	2023-02-15T00:00:00	2024-11-08T08:00:00	4	Temperatura máxima	19.6
76715	7	Sololá	704	Santa Lucía Utatlán 	7	Santa Rita 	2	Febrero	2023-02-15T00:00:00	2024-11-08T08:00:00	3	Temperatura mínima	13.8
76716	7	Sololá	704	Santa Lucía Utatlán 	7	Santa Rita 	2	Febrero	2023-02-15T00:00:00	2024-11-08T08:00:00	5	Humedad	43
76717	7	Sololá	704	Santa Lucía Utatlán 	7	Santa Rita 	2	Febrero	2023-02-15T00:00:00	2024-11-08T08:00:00	6	Velocidad del viento	1.6
76718	7	Sololá	704	Santa Lucía Utatlán 	7	Santa Rita 	2	Febrero	2023-02-15T00:00:00	2024-11-08T08:00:00	7	Dirección del viento	1.61
76719	7	Sololá	704	Santa Lucía Utatlán 	7	Santa Rita 	2	Febrero	2023-02-15T00:00:00	2024-11-08T08:00:00	1	Precipitación	0
76720	7	Sololá	704	Santa Lucía Utatlán 	7	Santa Rita 	2	Febrero	2023-02-15T00:00:00	2024-11-08T08:00:00	8	Radiación solar	172
76721	7	Sololá	704	Santa Lucía Utatlán 	7	Santa Rita 	2	Febrero	2023-02-15T00:00:00	2024-11-08T09:00:00	2	Temperatura media	23.3
76722	7	Sololá	704	Santa Lucía Utatlán 	7	Santa Rita 	2	Febrero	2023-02-15T00:00:00	2024-11-08T09:00:00	4	Temperatura máxima	23.3
76723	7	Sololá	704	Santa Lucía Utatlán 	7	Santa Rita 	2	Febrero	2023-02-15T00:00:00	2024-11-08T09:00:00	3	Temperatura mínima	19.7
76724	7	Sololá	704	Santa Lucía Utatlán 	7	Santa Rita 	2	Febrero	2023-02-15T00:00:00	2024-11-08T09:00:00	5	Humedad	36
76725	7	Sololá	704	Santa Lucía Utatlán 	7	Santa Rita 	2	Febrero	2023-02-15T00:00:00	2024-11-08T09:00:00	6	Velocidad del viento	1.6
76726	7	Sololá	704	Santa Lucía Utatlán 	7	Santa Rita 	2	Febrero	2023-02-15T00:00:00	2024-11-08T09:00:00	7	Dirección del viento	1.61
76727	7	Sololá	704	Santa Lucía Utatlán 	7	Santa Rita 	2	Febrero	2023-02-15T00:00:00	2024-11-08T09:00:00	1	Precipitación	0
76728	7	Sololá	704	Santa Lucía Utatlán 	7	Santa Rita 	2	Febrero	2023-02-15T00:00:00	2024-11-08T09:00:00	8	Radiación solar	425
76729	7	Sololá	704	Santa Lucía Utatlán 	7	Santa Rita 	2	Febrero	2023-02-15T00:00:00	2024-11-08T10:00:00	2	Temperatura media	25.8
76730	7	Sololá	704	Santa Lucía Utatlán 	7	Santa Rita 	2	Febrero	2023-02-15T00:00:00	2024-11-08T10:00:00	4	Temperatura máxima	25.8
76731	7	Sololá	704	Santa Lucía Utatlán 	7	Santa Rita 	2	Febrero	2023-02-15T00:00:00	2024-11-08T10:00:00	3	Temperatura mínima	23.2
76732	7	Sololá	704	Santa Lucía Utatlán 	7	Santa Rita 	2	Febrero	2023-02-15T00:00:00	2024-11-08T10:00:00	5	Humedad	32
76733	7	Sololá	704	Santa Lucía Utatlán 	7	Santa Rita 	2	Febrero	2023-02-15T00:00:00	2024-11-08T10:00:00	6	Velocidad del viento	6.4
76734	7	Sololá	704	Santa Lucía Utatlán 	7	Santa Rita 	2	Febrero	2023-02-15T00:00:00	2024-11-08T10:00:00	7	Dirección del viento	6.44
76735	7	Sololá	704	Santa Lucía Utatlán 	7	Santa Rita 	2	Febrero	2023-02-15T00:00:00	2024-11-08T10:00:00	1	Precipitación	0
76736	7	Sololá	704	Santa Lucía Utatlán 	7	Santa Rita 	2	Febrero	2023-02-15T00:00:00	2024-11-08T10:00:00	8	Radiación solar	628
76737	7	Sololá	704	Santa Lucía Utatlán 	7	Santa Rita 	2	Febrero	2023-02-15T00:00:00	2024-11-08T11:00:00	2	Temperatura media	27.9
76738	7	Sololá	704	Santa Lucía Utatlán 	7	Santa Rita 	2	Febrero	2023-02-15T00:00:00	2024-11-08T11:00:00	4	Temperatura máxima	27.9
76739	7	Sololá	704	Santa Lucía Utatlán 	7	Santa Rita 	2	Febrero	2023-02-15T00:00:00	2024-11-08T11:00:00	3	Temperatura mínima	25.8
76740	7	Sololá	704	Santa Lucía Utatlán 	7	Santa Rita 	2	Febrero	2023-02-15T00:00:00	2024-11-08T11:00:00	5	Humedad	27
76741	7	Sololá	704	Santa Lucía Utatlán 	7	Santa Rita 	2	Febrero	2023-02-15T00:00:00	2024-11-08T11:00:00	6	Velocidad del viento	6.4
76742	7	Sololá	704	Santa Lucía Utatlán 	7	Santa Rita 	2	Febrero	2023-02-15T00:00:00	2024-11-08T11:00:00	7	Dirección del viento	6.44
76743	7	Sololá	704	Santa Lucía Utatlán 	7	Santa Rita 	2	Febrero	2023-02-15T00:00:00	2024-11-08T11:00:00	1	Precipitación	0
76744	7	Sololá	704	Santa Lucía Utatlán 	7	Santa Rita 	2	Febrero	2023-02-15T00:00:00	2024-11-08T11:00:00	8	Radiación solar	791
76745	7	Sololá	704	Santa Lucía Utatlán 	7	Santa Rita 	2	Febrero	2023-02-15T00:00:00	2024-11-08T12:00:00	2	Temperatura media	26.6
76746	7	Sololá	704	Santa Lucía Utatlán 	7	Santa Rita 	2	Febrero	2023-02-15T00:00:00	2024-11-08T12:00:00	4	Temperatura máxima	28.2
76747	7	Sololá	704	Santa Lucía Utatlán 	7	Santa Rita 	2	Febrero	2023-02-15T00:00:00	2024-11-08T12:00:00	3	Temperatura mínima	26.2
76748	7	Sololá	704	Santa Lucía Utatlán 	7	Santa Rita 	2	Febrero	2023-02-15T00:00:00	2024-11-08T12:00:00	5	Humedad	40
76749	7	Sololá	704	Santa Lucía Utatlán 	7	Santa Rita 	2	Febrero	2023-02-15T00:00:00	2024-11-08T12:00:00	6	Velocidad del viento	8
76750	7	Sololá	704	Santa Lucía Utatlán 	7	Santa Rita 	2	Febrero	2023-02-15T00:00:00	2024-11-08T12:00:00	7	Dirección del viento	8.05
76751	7	Sololá	704	Santa Lucía Utatlán 	7	Santa Rita 	2	Febrero	2023-02-15T00:00:00	2024-11-08T12:00:00	1	Precipitación	0
76752	7	Sololá	704	Santa Lucía Utatlán 	7	Santa Rita 	2	Febrero	2023-02-15T00:00:00	2024-11-08T12:00:00	8	Radiación solar	885
76753	7	Sololá	704	Santa Lucía Utatlán 	7	Santa Rita 	2	Febrero	2023-02-15T00:00:00	2024-11-08T13:00:00	2	Temperatura media	26.1
76754	7	Sololá	704	Santa Lucía Utatlán 	7	Santa Rita 	2	Febrero	2023-02-15T00:00:00	2024-11-08T13:00:00	4	Temperatura máxima	27.1
76755	7	Sololá	704	Santa Lucía Utatlán 	7	Santa Rita 	2	Febrero	2023-02-15T00:00:00	2024-11-08T13:00:00	3	Temperatura mínima	26.1
76756	7	Sololá	704	Santa Lucía Utatlán 	7	Santa Rita 	2	Febrero	2023-02-15T00:00:00	2024-11-08T13:00:00	5	Humedad	48
76757	7	Sololá	704	Santa Lucía Utatlán 	7	Santa Rita 	2	Febrero	2023-02-15T00:00:00	2024-11-08T13:00:00	6	Velocidad del viento	8
76758	7	Sololá	704	Santa Lucía Utatlán 	7	Santa Rita 	2	Febrero	2023-02-15T00:00:00	2024-11-08T13:00:00	7	Dirección del viento	8.05
76759	7	Sololá	704	Santa Lucía Utatlán 	7	Santa Rita 	2	Febrero	2023-02-15T00:00:00	2024-11-08T13:00:00	1	Precipitación	0
76760	7	Sololá	704	Santa Lucía Utatlán 	7	Santa Rita 	2	Febrero	2023-02-15T00:00:00	2024-11-08T13:00:00	8	Radiación solar	903
76761	7	Sololá	704	Santa Lucía Utatlán 	7	Santa Rita 	2	Febrero	2023-02-15T00:00:00	2024-11-08T14:00:00	2	Temperatura media	24.6
76762	7	Sololá	704	Santa Lucía Utatlán 	7	Santa Rita 	2	Febrero	2023-02-15T00:00:00	2024-11-08T14:00:00	4	Temperatura máxima	26.4
76763	7	Sololá	704	Santa Lucía Utatlán 	7	Santa Rita 	2	Febrero	2023-02-15T00:00:00	2024-11-08T14:00:00	3	Temperatura mínima	24.3
76764	7	Sololá	704	Santa Lucía Utatlán 	7	Santa Rita 	2	Febrero	2023-02-15T00:00:00	2024-11-08T14:00:00	5	Humedad	64
76765	7	Sololá	704	Santa Lucía Utatlán 	7	Santa Rita 	2	Febrero	2023-02-15T00:00:00	2024-11-08T14:00:00	6	Velocidad del viento	8
76766	7	Sololá	704	Santa Lucía Utatlán 	7	Santa Rita 	2	Febrero	2023-02-15T00:00:00	2024-11-08T14:00:00	7	Dirección del viento	8.05
76767	7	Sololá	704	Santa Lucía Utatlán 	7	Santa Rita 	2	Febrero	2023-02-15T00:00:00	2024-11-08T14:00:00	1	Precipitación	0
76768	7	Sololá	704	Santa Lucía Utatlán 	7	Santa Rita 	2	Febrero	2023-02-15T00:00:00	2024-11-08T14:00:00	8	Radiación solar	852
76769	7	Sololá	704	Santa Lucía Utatlán 	7	Santa Rita 	2	Febrero	2023-02-15T00:00:00	2024-11-08T15:00:00	2	Temperatura media	24.2
76770	7	Sololá	704	Santa Lucía Utatlán 	7	Santa Rita 	2	Febrero	2023-02-15T00:00:00	2024-11-08T15:00:00	4	Temperatura máxima	24.9
76771	7	Sololá	704	Santa Lucía Utatlán 	7	Santa Rita 	2	Febrero	2023-02-15T00:00:00	2024-11-08T15:00:00	3	Temperatura mínima	24.1
76772	7	Sololá	704	Santa Lucía Utatlán 	7	Santa Rita 	2	Febrero	2023-02-15T00:00:00	2024-11-08T15:00:00	5	Humedad	66
76773	7	Sololá	704	Santa Lucía Utatlán 	7	Santa Rita 	2	Febrero	2023-02-15T00:00:00	2024-11-08T15:00:00	6	Velocidad del viento	8
76774	7	Sololá	704	Santa Lucía Utatlán 	7	Santa Rita 	2	Febrero	2023-02-15T00:00:00	2024-11-08T15:00:00	7	Dirección del viento	8.05
76775	7	Sololá	704	Santa Lucía Utatlán 	7	Santa Rita 	2	Febrero	2023-02-15T00:00:00	2024-11-08T15:00:00	1	Precipitación	0
76776	7	Sololá	704	Santa Lucía Utatlán 	7	Santa Rita 	2	Febrero	2023-02-15T00:00:00	2024-11-08T15:00:00	8	Radiación solar	708
76777	7	Sololá	704	Santa Lucía Utatlán 	7	Santa Rita 	2	Febrero	2023-02-15T00:00:00	2024-11-08T16:00:00	2	Temperatura media	23.4
76778	7	Sololá	704	Santa Lucía Utatlán 	7	Santa Rita 	2	Febrero	2023-02-15T00:00:00	2024-11-08T16:00:00	4	Temperatura máxima	24.2
76779	7	Sololá	704	Santa Lucía Utatlán 	7	Santa Rita 	2	Febrero	2023-02-15T00:00:00	2024-11-08T16:00:00	3	Temperatura mínima	23.1
76780	7	Sololá	704	Santa Lucía Utatlán 	7	Santa Rita 	2	Febrero	2023-02-15T00:00:00	2024-11-08T16:00:00	5	Humedad	73
76781	7	Sololá	704	Santa Lucía Utatlán 	7	Santa Rita 	2	Febrero	2023-02-15T00:00:00	2024-11-08T16:00:00	6	Velocidad del viento	8
76782	7	Sololá	704	Santa Lucía Utatlán 	7	Santa Rita 	2	Febrero	2023-02-15T00:00:00	2024-11-08T16:00:00	7	Dirección del viento	8.05
76783	7	Sololá	704	Santa Lucía Utatlán 	7	Santa Rita 	2	Febrero	2023-02-15T00:00:00	2024-11-08T16:00:00	1	Precipitación	0
76784	7	Sololá	704	Santa Lucía Utatlán 	7	Santa Rita 	2	Febrero	2023-02-15T00:00:00	2024-11-08T16:00:00	8	Radiación solar	415
76785	7	Sololá	704	Santa Lucía Utatlán 	7	Santa Rita 	2	Febrero	2023-02-15T00:00:00	2024-11-08T17:00:00	2	Temperatura media	22.7
76786	7	Sololá	704	Santa Lucía Utatlán 	7	Santa Rita 	2	Febrero	2023-02-15T00:00:00	2024-11-08T17:00:00	4	Temperatura máxima	23.5
76787	7	Sololá	704	Santa Lucía Utatlán 	7	Santa Rita 	2	Febrero	2023-02-15T00:00:00	2024-11-08T17:00:00	3	Temperatura mínima	22.7
76788	7	Sololá	704	Santa Lucía Utatlán 	7	Santa Rita 	2	Febrero	2023-02-15T00:00:00	2024-11-08T17:00:00	5	Humedad	76
76789	7	Sololá	704	Santa Lucía Utatlán 	7	Santa Rita 	2	Febrero	2023-02-15T00:00:00	2024-11-08T17:00:00	6	Velocidad del viento	4.8
76790	7	Sololá	704	Santa Lucía Utatlán 	7	Santa Rita 	2	Febrero	2023-02-15T00:00:00	2024-11-08T17:00:00	7	Dirección del viento	4.83
76791	7	Sololá	704	Santa Lucía Utatlán 	7	Santa Rita 	2	Febrero	2023-02-15T00:00:00	2024-11-08T17:00:00	1	Precipitación	0
76792	7	Sololá	704	Santa Lucía Utatlán 	7	Santa Rita 	2	Febrero	2023-02-15T00:00:00	2024-11-08T17:00:00	8	Radiación solar	235
76793	7	Sololá	704	Santa Lucía Utatlán 	7	Santa Rita 	2	Febrero	2023-02-15T00:00:00	2024-11-08T18:00:00	2	Temperatura media	20.2
76794	7	Sololá	704	Santa Lucía Utatlán 	7	Santa Rita 	2	Febrero	2023-02-15T00:00:00	2024-11-08T18:00:00	4	Temperatura máxima	22.7
76795	7	Sololá	704	Santa Lucía Utatlán 	7	Santa Rita 	2	Febrero	2023-02-15T00:00:00	2024-11-08T18:00:00	3	Temperatura mínima	20.2
76796	7	Sololá	704	Santa Lucía Utatlán 	7	Santa Rita 	2	Febrero	2023-02-15T00:00:00	2024-11-08T18:00:00	5	Humedad	81
76797	7	Sololá	704	Santa Lucía Utatlán 	7	Santa Rita 	2	Febrero	2023-02-15T00:00:00	2024-11-08T18:00:00	6	Velocidad del viento	3.2
76798	7	Sololá	704	Santa Lucía Utatlán 	7	Santa Rita 	2	Febrero	2023-02-15T00:00:00	2024-11-08T18:00:00	7	Dirección del viento	3.22
76799	7	Sololá	704	Santa Lucía Utatlán 	7	Santa Rita 	2	Febrero	2023-02-15T00:00:00	2024-11-08T18:00:00	1	Precipitación	0
76800	7	Sololá	704	Santa Lucía Utatlán 	7	Santa Rita 	2	Febrero	2023-02-15T00:00:00	2024-11-08T18:00:00	8	Radiación solar	56
76801	7	Sololá	704	Santa Lucía Utatlán 	7	Santa Rita 	2	Febrero	2023-02-15T00:00:00	2024-11-08T19:00:00	2	Temperatura media	18.1
76802	7	Sololá	704	Santa Lucía Utatlán 	7	Santa Rita 	2	Febrero	2023-02-15T00:00:00	2024-11-08T19:00:00	4	Temperatura máxima	20.2
76803	7	Sololá	704	Santa Lucía Utatlán 	7	Santa Rita 	2	Febrero	2023-02-15T00:00:00	2024-11-08T19:00:00	3	Temperatura mínima	18.1
76804	7	Sololá	704	Santa Lucía Utatlán 	7	Santa Rita 	2	Febrero	2023-02-15T00:00:00	2024-11-08T19:00:00	5	Humedad	87
76805	7	Sololá	704	Santa Lucía Utatlán 	7	Santa Rita 	2	Febrero	2023-02-15T00:00:00	2024-11-08T19:00:00	6	Velocidad del viento	4.8
76806	7	Sololá	704	Santa Lucía Utatlán 	7	Santa Rita 	2	Febrero	2023-02-15T00:00:00	2024-11-08T19:00:00	7	Dirección del viento	4.83
76807	7	Sololá	704	Santa Lucía Utatlán 	7	Santa Rita 	2	Febrero	2023-02-15T00:00:00	2024-11-08T19:00:00	1	Precipitación	0
76808	7	Sololá	704	Santa Lucía Utatlán 	7	Santa Rita 	2	Febrero	2023-02-15T00:00:00	2024-11-08T19:00:00	8	Radiación solar	0
76809	7	Sololá	704	Santa Lucía Utatlán 	7	Santa Rita 	2	Febrero	2023-02-15T00:00:00	2024-11-08T20:00:00	2	Temperatura media	17.4
76810	7	Sololá	704	Santa Lucía Utatlán 	7	Santa Rita 	2	Febrero	2023-02-15T00:00:00	2024-11-08T20:00:00	4	Temperatura máxima	18.2
76811	7	Sololá	704	Santa Lucía Utatlán 	7	Santa Rita 	2	Febrero	2023-02-15T00:00:00	2024-11-08T20:00:00	3	Temperatura mínima	17.4
76812	7	Sololá	704	Santa Lucía Utatlán 	7	Santa Rita 	2	Febrero	2023-02-15T00:00:00	2024-11-08T20:00:00	5	Humedad	82
76813	7	Sololá	704	Santa Lucía Utatlán 	7	Santa Rita 	2	Febrero	2023-02-15T00:00:00	2024-11-08T20:00:00	6	Velocidad del viento	3.2
76814	7	Sololá	704	Santa Lucía Utatlán 	7	Santa Rita 	2	Febrero	2023-02-15T00:00:00	2024-11-08T20:00:00	7	Dirección del viento	3.22
76815	7	Sololá	704	Santa Lucía Utatlán 	7	Santa Rita 	2	Febrero	2023-02-15T00:00:00	2024-11-08T20:00:00	1	Precipitación	0
76816	7	Sololá	704	Santa Lucía Utatlán 	7	Santa Rita 	2	Febrero	2023-02-15T00:00:00	2024-11-08T20:00:00	8	Radiación solar	0
76817	7	Sololá	704	Santa Lucía Utatlán 	7	Santa Rita 	2	Febrero	2023-02-15T00:00:00	2024-11-08T21:00:00	2	Temperatura media	15.2
76818	7	Sololá	704	Santa Lucía Utatlán 	7	Santa Rita 	2	Febrero	2023-02-15T00:00:00	2024-11-08T21:00:00	4	Temperatura máxima	17.4
76819	7	Sololá	704	Santa Lucía Utatlán 	7	Santa Rita 	2	Febrero	2023-02-15T00:00:00	2024-11-08T21:00:00	3	Temperatura mínima	15
76820	7	Sololá	704	Santa Lucía Utatlán 	7	Santa Rita 	2	Febrero	2023-02-15T00:00:00	2024-11-08T21:00:00	5	Humedad	73
76821	7	Sololá	704	Santa Lucía Utatlán 	7	Santa Rita 	2	Febrero	2023-02-15T00:00:00	2024-11-08T21:00:00	6	Velocidad del viento	3.2
76822	7	Sololá	704	Santa Lucía Utatlán 	7	Santa Rita 	2	Febrero	2023-02-15T00:00:00	2024-11-08T21:00:00	7	Dirección del viento	3.22
76823	7	Sololá	704	Santa Lucía Utatlán 	7	Santa Rita 	2	Febrero	2023-02-15T00:00:00	2024-11-08T21:00:00	1	Precipitación	0
76824	7	Sololá	704	Santa Lucía Utatlán 	7	Santa Rita 	2	Febrero	2023-02-15T00:00:00	2024-11-08T21:00:00	8	Radiación solar	0
76825	7	Sololá	704	Santa Lucía Utatlán 	7	Santa Rita 	2	Febrero	2023-02-15T00:00:00	2024-11-08T22:00:00	2	Temperatura media	16.3
76826	7	Sololá	704	Santa Lucía Utatlán 	7	Santa Rita 	2	Febrero	2023-02-15T00:00:00	2024-11-08T22:00:00	4	Temperatura máxima	16.5
76827	7	Sololá	704	Santa Lucía Utatlán 	7	Santa Rita 	2	Febrero	2023-02-15T00:00:00	2024-11-08T22:00:00	3	Temperatura mínima	15.2
76828	7	Sololá	704	Santa Lucía Utatlán 	7	Santa Rita 	2	Febrero	2023-02-15T00:00:00	2024-11-08T22:00:00	5	Humedad	37
76829	7	Sololá	704	Santa Lucía Utatlán 	7	Santa Rita 	2	Febrero	2023-02-15T00:00:00	2024-11-08T22:00:00	6	Velocidad del viento	4.8
76830	7	Sololá	704	Santa Lucía Utatlán 	7	Santa Rita 	2	Febrero	2023-02-15T00:00:00	2024-11-08T22:00:00	7	Dirección del viento	4.83
76831	7	Sololá	704	Santa Lucía Utatlán 	7	Santa Rita 	2	Febrero	2023-02-15T00:00:00	2024-11-08T22:00:00	1	Precipitación	0
76832	7	Sololá	704	Santa Lucía Utatlán 	7	Santa Rita 	2	Febrero	2023-02-15T00:00:00	2024-11-08T22:00:00	8	Radiación solar	0
76833	7	Sololá	704	Santa Lucía Utatlán 	7	Santa Rita 	2	Febrero	2023-02-15T00:00:00	2024-11-08T23:00:00	2	Temperatura media	17.6
76834	7	Sololá	704	Santa Lucía Utatlán 	7	Santa Rita 	2	Febrero	2023-02-15T00:00:00	2024-11-08T23:00:00	4	Temperatura máxima	17.6
76835	7	Sololá	704	Santa Lucía Utatlán 	7	Santa Rita 	2	Febrero	2023-02-15T00:00:00	2024-11-08T23:00:00	3	Temperatura mínima	16.3
76836	7	Sololá	704	Santa Lucía Utatlán 	7	Santa Rita 	2	Febrero	2023-02-15T00:00:00	2024-11-08T23:00:00	5	Humedad	23
76837	7	Sololá	704	Santa Lucía Utatlán 	7	Santa Rita 	2	Febrero	2023-02-15T00:00:00	2024-11-08T23:00:00	6	Velocidad del viento	6.4
76838	7	Sololá	704	Santa Lucía Utatlán 	7	Santa Rita 	2	Febrero	2023-02-15T00:00:00	2024-11-08T23:00:00	7	Dirección del viento	6.44
76839	7	Sololá	704	Santa Lucía Utatlán 	7	Santa Rita 	2	Febrero	2023-02-15T00:00:00	2024-11-08T23:00:00	1	Precipitación	0
76840	7	Sololá	704	Santa Lucía Utatlán 	7	Santa Rita 	2	Febrero	2023-02-15T00:00:00	2024-11-08T23:00:00	8	Radiación solar	0
76841	7	Sololá	704	Santa Lucía Utatlán 	7	Santa Rita 	2	Febrero	2023-02-16T00:00:00	2024-11-08T00:00:00	2	Temperatura media	17.4
76842	7	Sololá	704	Santa Lucía Utatlán 	7	Santa Rita 	2	Febrero	2023-02-16T00:00:00	2024-11-08T00:00:00	4	Temperatura máxima	17.9
76843	7	Sololá	704	Santa Lucía Utatlán 	7	Santa Rita 	2	Febrero	2023-02-16T00:00:00	2024-11-08T00:00:00	3	Temperatura mínima	17.4
76844	7	Sololá	704	Santa Lucía Utatlán 	7	Santa Rita 	2	Febrero	2023-02-16T00:00:00	2024-11-08T00:00:00	5	Humedad	19
76845	7	Sololá	704	Santa Lucía Utatlán 	7	Santa Rita 	2	Febrero	2023-02-16T00:00:00	2024-11-08T00:00:00	6	Velocidad del viento	8
76846	7	Sololá	704	Santa Lucía Utatlán 	7	Santa Rita 	2	Febrero	2023-02-16T00:00:00	2024-11-08T00:00:00	7	Dirección del viento	8.05
76847	7	Sololá	704	Santa Lucía Utatlán 	7	Santa Rita 	2	Febrero	2023-02-16T00:00:00	2024-11-08T00:00:00	1	Precipitación	0
76848	7	Sololá	704	Santa Lucía Utatlán 	7	Santa Rita 	2	Febrero	2023-02-16T00:00:00	2024-11-08T00:00:00	8	Radiación solar	0
76849	7	Sololá	704	Santa Lucía Utatlán 	7	Santa Rita 	2	Febrero	2023-02-16T00:00:00	2024-11-08T01:00:00	2	Temperatura media	17.1
76850	7	Sololá	704	Santa Lucía Utatlán 	7	Santa Rita 	2	Febrero	2023-02-16T00:00:00	2024-11-08T01:00:00	4	Temperatura máxima	17.4
76851	7	Sololá	704	Santa Lucía Utatlán 	7	Santa Rita 	2	Febrero	2023-02-16T00:00:00	2024-11-08T01:00:00	3	Temperatura mínima	17
76852	7	Sololá	704	Santa Lucía Utatlán 	7	Santa Rita 	2	Febrero	2023-02-16T00:00:00	2024-11-08T01:00:00	5	Humedad	19
76853	7	Sololá	704	Santa Lucía Utatlán 	7	Santa Rita 	2	Febrero	2023-02-16T00:00:00	2024-11-08T01:00:00	6	Velocidad del viento	6.4
76854	7	Sololá	704	Santa Lucía Utatlán 	7	Santa Rita 	2	Febrero	2023-02-16T00:00:00	2024-11-08T01:00:00	7	Dirección del viento	6.44
76855	7	Sololá	704	Santa Lucía Utatlán 	7	Santa Rita 	2	Febrero	2023-02-16T00:00:00	2024-11-08T01:00:00	1	Precipitación	0
76856	7	Sololá	704	Santa Lucía Utatlán 	7	Santa Rita 	2	Febrero	2023-02-16T00:00:00	2024-11-08T01:00:00	8	Radiación solar	0
76857	7	Sololá	704	Santa Lucía Utatlán 	7	Santa Rita 	2	Febrero	2023-02-16T00:00:00	2024-11-08T02:00:00	2	Temperatura media	15.6
76858	7	Sololá	704	Santa Lucía Utatlán 	7	Santa Rita 	2	Febrero	2023-02-16T00:00:00	2024-11-08T02:00:00	4	Temperatura máxima	17.3
76859	7	Sololá	704	Santa Lucía Utatlán 	7	Santa Rita 	2	Febrero	2023-02-16T00:00:00	2024-11-08T02:00:00	3	Temperatura mínima	15.4
76860	7	Sololá	704	Santa Lucía Utatlán 	7	Santa Rita 	2	Febrero	2023-02-16T00:00:00	2024-11-08T02:00:00	5	Humedad	22
76861	7	Sololá	704	Santa Lucía Utatlán 	7	Santa Rita 	2	Febrero	2023-02-16T00:00:00	2024-11-08T02:00:00	6	Velocidad del viento	6.4
76862	7	Sololá	704	Santa Lucía Utatlán 	7	Santa Rita 	2	Febrero	2023-02-16T00:00:00	2024-11-08T02:00:00	7	Dirección del viento	6.44
76863	7	Sololá	704	Santa Lucía Utatlán 	7	Santa Rita 	2	Febrero	2023-02-16T00:00:00	2024-11-08T02:00:00	1	Precipitación	0
76864	7	Sololá	704	Santa Lucía Utatlán 	7	Santa Rita 	2	Febrero	2023-02-16T00:00:00	2024-11-08T02:00:00	8	Radiación solar	0
76865	7	Sololá	704	Santa Lucía Utatlán 	7	Santa Rita 	2	Febrero	2023-02-16T00:00:00	2024-11-08T03:00:00	2	Temperatura media	16.2
76866	7	Sololá	704	Santa Lucía Utatlán 	7	Santa Rita 	2	Febrero	2023-02-16T00:00:00	2024-11-08T03:00:00	4	Temperatura máxima	16.5
76867	7	Sololá	704	Santa Lucía Utatlán 	7	Santa Rita 	2	Febrero	2023-02-16T00:00:00	2024-11-08T03:00:00	3	Temperatura mínima	15.4
76868	7	Sololá	704	Santa Lucía Utatlán 	7	Santa Rita 	2	Febrero	2023-02-16T00:00:00	2024-11-08T03:00:00	5	Humedad	19
76869	7	Sololá	704	Santa Lucía Utatlán 	7	Santa Rita 	2	Febrero	2023-02-16T00:00:00	2024-11-08T03:00:00	6	Velocidad del viento	4.8
76870	7	Sololá	704	Santa Lucía Utatlán 	7	Santa Rita 	2	Febrero	2023-02-16T00:00:00	2024-11-08T03:00:00	7	Dirección del viento	4.83
76871	7	Sololá	704	Santa Lucía Utatlán 	7	Santa Rita 	2	Febrero	2023-02-16T00:00:00	2024-11-08T03:00:00	1	Precipitación	0
76872	7	Sololá	704	Santa Lucía Utatlán 	7	Santa Rita 	2	Febrero	2023-02-16T00:00:00	2024-11-08T03:00:00	8	Radiación solar	0
76873	7	Sololá	704	Santa Lucía Utatlán 	7	Santa Rita 	2	Febrero	2023-02-16T00:00:00	2024-11-08T04:00:00	2	Temperatura media	16.9
76874	7	Sololá	704	Santa Lucía Utatlán 	7	Santa Rita 	2	Febrero	2023-02-16T00:00:00	2024-11-08T04:00:00	4	Temperatura máxima	17.1
76875	7	Sololá	704	Santa Lucía Utatlán 	7	Santa Rita 	2	Febrero	2023-02-16T00:00:00	2024-11-08T04:00:00	3	Temperatura mínima	16.1
76876	7	Sololá	704	Santa Lucía Utatlán 	7	Santa Rita 	2	Febrero	2023-02-16T00:00:00	2024-11-08T04:00:00	5	Humedad	16
76877	7	Sololá	704	Santa Lucía Utatlán 	7	Santa Rita 	2	Febrero	2023-02-16T00:00:00	2024-11-08T04:00:00	6	Velocidad del viento	6.4
76878	7	Sololá	704	Santa Lucía Utatlán 	7	Santa Rita 	2	Febrero	2023-02-16T00:00:00	2024-11-08T04:00:00	7	Dirección del viento	6.44
76879	7	Sololá	704	Santa Lucía Utatlán 	7	Santa Rita 	2	Febrero	2023-02-16T00:00:00	2024-11-08T04:00:00	1	Precipitación	0
76880	7	Sololá	704	Santa Lucía Utatlán 	7	Santa Rita 	2	Febrero	2023-02-16T00:00:00	2024-11-08T04:00:00	8	Radiación solar	0
76881	7	Sololá	704	Santa Lucía Utatlán 	7	Santa Rita 	2	Febrero	2023-02-16T00:00:00	2024-11-08T05:00:00	2	Temperatura media	16.2
76882	7	Sololá	704	Santa Lucía Utatlán 	7	Santa Rita 	2	Febrero	2023-02-16T00:00:00	2024-11-08T05:00:00	4	Temperatura máxima	17
76883	7	Sololá	704	Santa Lucía Utatlán 	7	Santa Rita 	2	Febrero	2023-02-16T00:00:00	2024-11-08T05:00:00	3	Temperatura mínima	16
76884	7	Sololá	704	Santa Lucía Utatlán 	7	Santa Rita 	2	Febrero	2023-02-16T00:00:00	2024-11-08T05:00:00	5	Humedad	16
76885	7	Sololá	704	Santa Lucía Utatlán 	7	Santa Rita 	2	Febrero	2023-02-16T00:00:00	2024-11-08T05:00:00	6	Velocidad del viento	6.4
76886	7	Sololá	704	Santa Lucía Utatlán 	7	Santa Rita 	2	Febrero	2023-02-16T00:00:00	2024-11-08T05:00:00	7	Dirección del viento	6.44
76887	7	Sololá	704	Santa Lucía Utatlán 	7	Santa Rita 	2	Febrero	2023-02-16T00:00:00	2024-11-08T05:00:00	1	Precipitación	0
76888	7	Sololá	704	Santa Lucía Utatlán 	7	Santa Rita 	2	Febrero	2023-02-16T00:00:00	2024-11-08T05:00:00	8	Radiación solar	0
76889	7	Sololá	704	Santa Lucía Utatlán 	7	Santa Rita 	2	Febrero	2023-02-16T00:00:00	2024-11-08T06:00:00	2	Temperatura media	16.9
76890	7	Sololá	704	Santa Lucía Utatlán 	7	Santa Rita 	2	Febrero	2023-02-16T00:00:00	2024-11-08T06:00:00	4	Temperatura máxima	16.9
76891	7	Sololá	704	Santa Lucía Utatlán 	7	Santa Rita 	2	Febrero	2023-02-16T00:00:00	2024-11-08T06:00:00	3	Temperatura mínima	16.2
76892	7	Sololá	704	Santa Lucía Utatlán 	7	Santa Rita 	2	Febrero	2023-02-16T00:00:00	2024-11-08T06:00:00	5	Humedad	16
76893	7	Sololá	704	Santa Lucía Utatlán 	7	Santa Rita 	2	Febrero	2023-02-16T00:00:00	2024-11-08T06:00:00	6	Velocidad del viento	4.8
76894	7	Sololá	704	Santa Lucía Utatlán 	7	Santa Rita 	2	Febrero	2023-02-16T00:00:00	2024-11-08T06:00:00	7	Dirección del viento	4.83
76895	7	Sololá	704	Santa Lucía Utatlán 	7	Santa Rita 	2	Febrero	2023-02-16T00:00:00	2024-11-08T06:00:00	1	Precipitación	0
76896	7	Sololá	704	Santa Lucía Utatlán 	7	Santa Rita 	2	Febrero	2023-02-16T00:00:00	2024-11-08T06:00:00	8	Radiación solar	0
76897	7	Sololá	704	Santa Lucía Utatlán 	7	Santa Rita 	2	Febrero	2023-02-16T00:00:00	2024-11-08T07:00:00	2	Temperatura media	18.4
76898	7	Sololá	704	Santa Lucía Utatlán 	7	Santa Rita 	2	Febrero	2023-02-16T00:00:00	2024-11-08T07:00:00	4	Temperatura máxima	18.4
76899	7	Sololá	704	Santa Lucía Utatlán 	7	Santa Rita 	2	Febrero	2023-02-16T00:00:00	2024-11-08T07:00:00	3	Temperatura mínima	16.9
76900	7	Sololá	704	Santa Lucía Utatlán 	7	Santa Rita 	2	Febrero	2023-02-16T00:00:00	2024-11-08T07:00:00	5	Humedad	16
76901	7	Sololá	704	Santa Lucía Utatlán 	7	Santa Rita 	2	Febrero	2023-02-16T00:00:00	2024-11-08T07:00:00	6	Velocidad del viento	4.8
76902	7	Sololá	704	Santa Lucía Utatlán 	7	Santa Rita 	2	Febrero	2023-02-16T00:00:00	2024-11-08T07:00:00	7	Dirección del viento	4.83
76903	7	Sololá	704	Santa Lucía Utatlán 	7	Santa Rita 	2	Febrero	2023-02-16T00:00:00	2024-11-08T07:00:00	1	Precipitación	0
76904	7	Sololá	704	Santa Lucía Utatlán 	7	Santa Rita 	2	Febrero	2023-02-16T00:00:00	2024-11-08T07:00:00	8	Radiación solar	6
76905	7	Sololá	704	Santa Lucía Utatlán 	7	Santa Rita 	2	Febrero	2023-02-16T00:00:00	2024-11-08T08:00:00	2	Temperatura media	22.4
76906	7	Sololá	704	Santa Lucía Utatlán 	7	Santa Rita 	2	Febrero	2023-02-16T00:00:00	2024-11-08T08:00:00	4	Temperatura máxima	22.4
76907	7	Sololá	704	Santa Lucía Utatlán 	7	Santa Rita 	2	Febrero	2023-02-16T00:00:00	2024-11-08T08:00:00	3	Temperatura mínima	18.4
76908	7	Sololá	704	Santa Lucía Utatlán 	7	Santa Rita 	2	Febrero	2023-02-16T00:00:00	2024-11-08T08:00:00	5	Humedad	15
76909	7	Sololá	704	Santa Lucía Utatlán 	7	Santa Rita 	2	Febrero	2023-02-16T00:00:00	2024-11-08T08:00:00	6	Velocidad del viento	1.6
76910	7	Sololá	704	Santa Lucía Utatlán 	7	Santa Rita 	2	Febrero	2023-02-16T00:00:00	2024-11-08T08:00:00	7	Dirección del viento	1.61
76911	7	Sololá	704	Santa Lucía Utatlán 	7	Santa Rita 	2	Febrero	2023-02-16T00:00:00	2024-11-08T08:00:00	1	Precipitación	0
76912	7	Sololá	704	Santa Lucía Utatlán 	7	Santa Rita 	2	Febrero	2023-02-16T00:00:00	2024-11-08T08:00:00	8	Radiación solar	177
76913	7	Sololá	704	Santa Lucía Utatlán 	7	Santa Rita 	2	Febrero	2023-02-16T00:00:00	2024-11-08T09:00:00	2	Temperatura media	25.8
76914	7	Sololá	704	Santa Lucía Utatlán 	7	Santa Rita 	2	Febrero	2023-02-16T00:00:00	2024-11-08T09:00:00	4	Temperatura máxima	26
76915	7	Sololá	704	Santa Lucía Utatlán 	7	Santa Rita 	2	Febrero	2023-02-16T00:00:00	2024-11-08T09:00:00	3	Temperatura mínima	22.4
76916	7	Sololá	704	Santa Lucía Utatlán 	7	Santa Rita 	2	Febrero	2023-02-16T00:00:00	2024-11-08T09:00:00	5	Humedad	23
76917	7	Sololá	704	Santa Lucía Utatlán 	7	Santa Rita 	2	Febrero	2023-02-16T00:00:00	2024-11-08T09:00:00	6	Velocidad del viento	3.2
76918	7	Sololá	704	Santa Lucía Utatlán 	7	Santa Rita 	2	Febrero	2023-02-16T00:00:00	2024-11-08T09:00:00	7	Dirección del viento	3.22
76919	7	Sololá	704	Santa Lucía Utatlán 	7	Santa Rita 	2	Febrero	2023-02-16T00:00:00	2024-11-08T09:00:00	1	Precipitación	0
76920	7	Sololá	704	Santa Lucía Utatlán 	7	Santa Rita 	2	Febrero	2023-02-16T00:00:00	2024-11-08T09:00:00	8	Radiación solar	434
76921	7	Sololá	704	Santa Lucía Utatlán 	7	Santa Rita 	2	Febrero	2023-02-16T00:00:00	2024-11-08T10:00:00	2	Temperatura media	26.9
76922	7	Sololá	704	Santa Lucía Utatlán 	7	Santa Rita 	2	Febrero	2023-02-16T00:00:00	2024-11-08T10:00:00	4	Temperatura máxima	26.9
76923	7	Sololá	704	Santa Lucía Utatlán 	7	Santa Rita 	2	Febrero	2023-02-16T00:00:00	2024-11-08T10:00:00	3	Temperatura mínima	24.1
76924	7	Sololá	704	Santa Lucía Utatlán 	7	Santa Rita 	2	Febrero	2023-02-16T00:00:00	2024-11-08T10:00:00	5	Humedad	14
76925	7	Sololá	704	Santa Lucía Utatlán 	7	Santa Rita 	2	Febrero	2023-02-16T00:00:00	2024-11-08T10:00:00	6	Velocidad del viento	8
76926	7	Sololá	704	Santa Lucía Utatlán 	7	Santa Rita 	2	Febrero	2023-02-16T00:00:00	2024-11-08T10:00:00	7	Dirección del viento	8.05
76927	7	Sololá	704	Santa Lucía Utatlán 	7	Santa Rita 	2	Febrero	2023-02-16T00:00:00	2024-11-08T10:00:00	1	Precipitación	0
76928	7	Sololá	704	Santa Lucía Utatlán 	7	Santa Rita 	2	Febrero	2023-02-16T00:00:00	2024-11-08T10:00:00	8	Radiación solar	637
76929	7	Sololá	704	Santa Lucía Utatlán 	7	Santa Rita 	2	Febrero	2023-02-16T00:00:00	2024-11-08T11:00:00	2	Temperatura media	27.9
76930	7	Sololá	704	Santa Lucía Utatlán 	7	Santa Rita 	2	Febrero	2023-02-16T00:00:00	2024-11-08T11:00:00	4	Temperatura máxima	27.9
76931	7	Sololá	704	Santa Lucía Utatlán 	7	Santa Rita 	2	Febrero	2023-02-16T00:00:00	2024-11-08T11:00:00	3	Temperatura mínima	26.8
76932	7	Sololá	704	Santa Lucía Utatlán 	7	Santa Rita 	2	Febrero	2023-02-16T00:00:00	2024-11-08T11:00:00	5	Humedad	10
76933	7	Sololá	704	Santa Lucía Utatlán 	7	Santa Rita 	2	Febrero	2023-02-16T00:00:00	2024-11-08T11:00:00	6	Velocidad del viento	9.7
76934	7	Sololá	704	Santa Lucía Utatlán 	7	Santa Rita 	2	Febrero	2023-02-16T00:00:00	2024-11-08T11:00:00	7	Dirección del viento	9.66
76935	7	Sololá	704	Santa Lucía Utatlán 	7	Santa Rita 	2	Febrero	2023-02-16T00:00:00	2024-11-08T11:00:00	1	Precipitación	0
76936	7	Sololá	704	Santa Lucía Utatlán 	7	Santa Rita 	2	Febrero	2023-02-16T00:00:00	2024-11-08T11:00:00	8	Radiación solar	791
76937	7	Sololá	704	Santa Lucía Utatlán 	7	Santa Rita 	2	Febrero	2023-02-16T00:00:00	2024-11-08T12:00:00	2	Temperatura media	27.1
76938	7	Sololá	704	Santa Lucía Utatlán 	7	Santa Rita 	2	Febrero	2023-02-16T00:00:00	2024-11-08T12:00:00	4	Temperatura máxima	27.9
76939	7	Sololá	704	Santa Lucía Utatlán 	7	Santa Rita 	2	Febrero	2023-02-16T00:00:00	2024-11-08T12:00:00	3	Temperatura mínima	27.1
76940	7	Sololá	704	Santa Lucía Utatlán 	7	Santa Rita 	2	Febrero	2023-02-16T00:00:00	2024-11-08T12:00:00	5	Humedad	23
76941	7	Sololá	704	Santa Lucía Utatlán 	7	Santa Rita 	2	Febrero	2023-02-16T00:00:00	2024-11-08T12:00:00	6	Velocidad del viento	9.7
76942	7	Sololá	704	Santa Lucía Utatlán 	7	Santa Rita 	2	Febrero	2023-02-16T00:00:00	2024-11-08T12:00:00	7	Dirección del viento	9.66
76943	7	Sololá	704	Santa Lucía Utatlán 	7	Santa Rita 	2	Febrero	2023-02-16T00:00:00	2024-11-08T12:00:00	1	Precipitación	0
76944	7	Sololá	704	Santa Lucía Utatlán 	7	Santa Rita 	2	Febrero	2023-02-16T00:00:00	2024-11-08T12:00:00	8	Radiación solar	880
76945	7	Sololá	704	Santa Lucía Utatlán 	7	Santa Rita 	2	Febrero	2023-02-16T00:00:00	2024-11-08T13:00:00	2	Temperatura media	26.4
76946	7	Sololá	704	Santa Lucía Utatlán 	7	Santa Rita 	2	Febrero	2023-02-16T00:00:00	2024-11-08T13:00:00	4	Temperatura máxima	27.3
76947	7	Sololá	704	Santa Lucía Utatlán 	7	Santa Rita 	2	Febrero	2023-02-16T00:00:00	2024-11-08T13:00:00	3	Temperatura mínima	26.1
76948	7	Sololá	704	Santa Lucía Utatlán 	7	Santa Rita 	2	Febrero	2023-02-16T00:00:00	2024-11-08T13:00:00	5	Humedad	32
76949	7	Sololá	704	Santa Lucía Utatlán 	7	Santa Rita 	2	Febrero	2023-02-16T00:00:00	2024-11-08T13:00:00	6	Velocidad del viento	9.7
76950	7	Sololá	704	Santa Lucía Utatlán 	7	Santa Rita 	2	Febrero	2023-02-16T00:00:00	2024-11-08T13:00:00	7	Dirección del viento	9.66
76951	7	Sololá	704	Santa Lucía Utatlán 	7	Santa Rita 	2	Febrero	2023-02-16T00:00:00	2024-11-08T13:00:00	1	Precipitación	0
76952	7	Sololá	704	Santa Lucía Utatlán 	7	Santa Rita 	2	Febrero	2023-02-16T00:00:00	2024-11-08T13:00:00	8	Radiación solar	899
76953	7	Sololá	704	Santa Lucía Utatlán 	7	Santa Rita 	2	Febrero	2023-02-16T00:00:00	2024-11-08T14:00:00	2	Temperatura media	25.6
76954	7	Sololá	704	Santa Lucía Utatlán 	7	Santa Rita 	2	Febrero	2023-02-16T00:00:00	2024-11-08T14:00:00	4	Temperatura máxima	26.5
76955	7	Sololá	704	Santa Lucía Utatlán 	7	Santa Rita 	2	Febrero	2023-02-16T00:00:00	2024-11-08T14:00:00	3	Temperatura mínima	25.3
76956	7	Sololá	704	Santa Lucía Utatlán 	7	Santa Rita 	2	Febrero	2023-02-16T00:00:00	2024-11-08T14:00:00	5	Humedad	45
76957	7	Sololá	704	Santa Lucía Utatlán 	7	Santa Rita 	2	Febrero	2023-02-16T00:00:00	2024-11-08T14:00:00	6	Velocidad del viento	8
76958	7	Sololá	704	Santa Lucía Utatlán 	7	Santa Rita 	2	Febrero	2023-02-16T00:00:00	2024-11-08T14:00:00	7	Dirección del viento	8.05
76959	7	Sololá	704	Santa Lucía Utatlán 	7	Santa Rita 	2	Febrero	2023-02-16T00:00:00	2024-11-08T14:00:00	1	Precipitación	0
76960	7	Sololá	704	Santa Lucía Utatlán 	7	Santa Rita 	2	Febrero	2023-02-16T00:00:00	2024-11-08T14:00:00	8	Radiación solar	837
76961	7	Sololá	704	Santa Lucía Utatlán 	7	Santa Rita 	2	Febrero	2023-02-16T00:00:00	2024-11-08T15:00:00	2	Temperatura media	25.8
76962	7	Sololá	704	Santa Lucía Utatlán 	7	Santa Rita 	2	Febrero	2023-02-16T00:00:00	2024-11-08T15:00:00	4	Temperatura máxima	26.1
76963	7	Sololá	704	Santa Lucía Utatlán 	7	Santa Rita 	2	Febrero	2023-02-16T00:00:00	2024-11-08T15:00:00	3	Temperatura mínima	25.6
76964	7	Sololá	704	Santa Lucía Utatlán 	7	Santa Rita 	2	Febrero	2023-02-16T00:00:00	2024-11-08T15:00:00	5	Humedad	45
76965	7	Sololá	704	Santa Lucía Utatlán 	7	Santa Rita 	2	Febrero	2023-02-16T00:00:00	2024-11-08T15:00:00	6	Velocidad del viento	6.4
76966	7	Sololá	704	Santa Lucía Utatlán 	7	Santa Rita 	2	Febrero	2023-02-16T00:00:00	2024-11-08T15:00:00	7	Dirección del viento	6.44
76967	7	Sololá	704	Santa Lucía Utatlán 	7	Santa Rita 	2	Febrero	2023-02-16T00:00:00	2024-11-08T15:00:00	1	Precipitación	0
76968	7	Sololá	704	Santa Lucía Utatlán 	7	Santa Rita 	2	Febrero	2023-02-16T00:00:00	2024-11-08T15:00:00	8	Radiación solar	699
76969	7	Sololá	704	Santa Lucía Utatlán 	7	Santa Rita 	2	Febrero	2023-02-16T00:00:00	2024-11-08T16:00:00	2	Temperatura media	24.3
76970	7	Sololá	704	Santa Lucía Utatlán 	7	Santa Rita 	2	Febrero	2023-02-16T00:00:00	2024-11-08T16:00:00	4	Temperatura máxima	25.8
76971	7	Sololá	704	Santa Lucía Utatlán 	7	Santa Rita 	2	Febrero	2023-02-16T00:00:00	2024-11-08T16:00:00	3	Temperatura mínima	24.3
76972	7	Sololá	704	Santa Lucía Utatlán 	7	Santa Rita 	2	Febrero	2023-02-16T00:00:00	2024-11-08T16:00:00	5	Humedad	58
76973	7	Sololá	704	Santa Lucía Utatlán 	7	Santa Rita 	2	Febrero	2023-02-16T00:00:00	2024-11-08T16:00:00	6	Velocidad del viento	8
76974	7	Sololá	704	Santa Lucía Utatlán 	7	Santa Rita 	2	Febrero	2023-02-16T00:00:00	2024-11-08T16:00:00	7	Dirección del viento	8.05
76975	7	Sololá	704	Santa Lucía Utatlán 	7	Santa Rita 	2	Febrero	2023-02-16T00:00:00	2024-11-08T16:00:00	1	Precipitación	0
76976	7	Sololá	704	Santa Lucía Utatlán 	7	Santa Rita 	2	Febrero	2023-02-16T00:00:00	2024-11-08T16:00:00	8	Radiación solar	410
76977	7	Sololá	704	Santa Lucía Utatlán 	7	Santa Rita 	2	Febrero	2023-02-16T00:00:00	2024-11-08T17:00:00	2	Temperatura media	21.9
76978	7	Sololá	704	Santa Lucía Utatlán 	7	Santa Rita 	2	Febrero	2023-02-16T00:00:00	2024-11-08T17:00:00	4	Temperatura máxima	24.3
76979	7	Sololá	704	Santa Lucía Utatlán 	7	Santa Rita 	2	Febrero	2023-02-16T00:00:00	2024-11-08T17:00:00	3	Temperatura mínima	21.9
76980	7	Sololá	704	Santa Lucía Utatlán 	7	Santa Rita 	2	Febrero	2023-02-16T00:00:00	2024-11-08T17:00:00	5	Humedad	76
76981	7	Sololá	704	Santa Lucía Utatlán 	7	Santa Rita 	2	Febrero	2023-02-16T00:00:00	2024-11-08T17:00:00	6	Velocidad del viento	6.4
76982	7	Sololá	704	Santa Lucía Utatlán 	7	Santa Rita 	2	Febrero	2023-02-16T00:00:00	2024-11-08T17:00:00	7	Dirección del viento	6.44
76983	7	Sololá	704	Santa Lucía Utatlán 	7	Santa Rita 	2	Febrero	2023-02-16T00:00:00	2024-11-08T17:00:00	1	Precipitación	0
76984	7	Sololá	704	Santa Lucía Utatlán 	7	Santa Rita 	2	Febrero	2023-02-16T00:00:00	2024-11-08T17:00:00	8	Radiación solar	245
76985	7	Sololá	704	Santa Lucía Utatlán 	7	Santa Rita 	2	Febrero	2023-02-16T00:00:00	2024-11-08T18:00:00	2	Temperatura media	19.6
76986	7	Sololá	704	Santa Lucía Utatlán 	7	Santa Rita 	2	Febrero	2023-02-16T00:00:00	2024-11-08T18:00:00	4	Temperatura máxima	22.1
76987	7	Sololá	704	Santa Lucía Utatlán 	7	Santa Rita 	2	Febrero	2023-02-16T00:00:00	2024-11-08T18:00:00	3	Temperatura mínima	19.6
76988	7	Sololá	704	Santa Lucía Utatlán 	7	Santa Rita 	2	Febrero	2023-02-16T00:00:00	2024-11-08T18:00:00	5	Humedad	80
76989	7	Sololá	704	Santa Lucía Utatlán 	7	Santa Rita 	2	Febrero	2023-02-16T00:00:00	2024-11-08T18:00:00	6	Velocidad del viento	1.6
76990	7	Sololá	704	Santa Lucía Utatlán 	7	Santa Rita 	2	Febrero	2023-02-16T00:00:00	2024-11-08T18:00:00	7	Dirección del viento	1.61
76991	7	Sololá	704	Santa Lucía Utatlán 	7	Santa Rita 	2	Febrero	2023-02-16T00:00:00	2024-11-08T18:00:00	1	Precipitación	0
76992	7	Sololá	704	Santa Lucía Utatlán 	7	Santa Rita 	2	Febrero	2023-02-16T00:00:00	2024-11-08T18:00:00	8	Radiación solar	59
76993	7	Sololá	704	Santa Lucía Utatlán 	7	Santa Rita 	2	Febrero	2023-02-16T00:00:00	2024-11-08T19:00:00	2	Temperatura media	18.1
76994	7	Sololá	704	Santa Lucía Utatlán 	7	Santa Rita 	2	Febrero	2023-02-16T00:00:00	2024-11-08T19:00:00	4	Temperatura máxima	19.6
76995	7	Sololá	704	Santa Lucía Utatlán 	7	Santa Rita 	2	Febrero	2023-02-16T00:00:00	2024-11-08T19:00:00	3	Temperatura mínima	17.9
76996	7	Sololá	704	Santa Lucía Utatlán 	7	Santa Rita 	2	Febrero	2023-02-16T00:00:00	2024-11-08T19:00:00	5	Humedad	42
76997	7	Sololá	704	Santa Lucía Utatlán 	7	Santa Rita 	2	Febrero	2023-02-16T00:00:00	2024-11-08T19:00:00	6	Velocidad del viento	3.2
76998	7	Sololá	704	Santa Lucía Utatlán 	7	Santa Rita 	2	Febrero	2023-02-16T00:00:00	2024-11-08T19:00:00	7	Dirección del viento	3.22
76999	7	Sololá	704	Santa Lucía Utatlán 	7	Santa Rita 	2	Febrero	2023-02-16T00:00:00	2024-11-08T19:00:00	1	Precipitación	0
77000	7	Sololá	704	Santa Lucía Utatlán 	7	Santa Rita 	2	Febrero	2023-02-16T00:00:00	2024-11-08T19:00:00	8	Radiación solar	0
77001	7	Sololá	704	Santa Lucía Utatlán 	7	Santa Rita 	2	Febrero	2023-02-16T00:00:00	2024-11-08T20:00:00	2	Temperatura media	20.4
77002	7	Sololá	704	Santa Lucía Utatlán 	7	Santa Rita 	2	Febrero	2023-02-16T00:00:00	2024-11-08T20:00:00	4	Temperatura máxima	20.7
77003	7	Sololá	704	Santa Lucía Utatlán 	7	Santa Rita 	2	Febrero	2023-02-16T00:00:00	2024-11-08T20:00:00	3	Temperatura mínima	18.1
77004	7	Sololá	704	Santa Lucía Utatlán 	7	Santa Rita 	2	Febrero	2023-02-16T00:00:00	2024-11-08T20:00:00	5	Humedad	48
77005	7	Sololá	704	Santa Lucía Utatlán 	7	Santa Rita 	2	Febrero	2023-02-16T00:00:00	2024-11-08T20:00:00	6	Velocidad del viento	4.8
77006	7	Sololá	704	Santa Lucía Utatlán 	7	Santa Rita 	2	Febrero	2023-02-16T00:00:00	2024-11-08T20:00:00	7	Dirección del viento	4.83
77007	7	Sololá	704	Santa Lucía Utatlán 	7	Santa Rita 	2	Febrero	2023-02-16T00:00:00	2024-11-08T20:00:00	1	Precipitación	0
77008	7	Sololá	704	Santa Lucía Utatlán 	7	Santa Rita 	2	Febrero	2023-02-16T00:00:00	2024-11-08T20:00:00	8	Radiación solar	0
77009	7	Sololá	704	Santa Lucía Utatlán 	7	Santa Rita 	2	Febrero	2023-02-16T00:00:00	2024-11-08T21:00:00	2	Temperatura media	18.4
77010	7	Sololá	704	Santa Lucía Utatlán 	7	Santa Rita 	2	Febrero	2023-02-16T00:00:00	2024-11-08T21:00:00	4	Temperatura máxima	21.2
77011	7	Sololá	704	Santa Lucía Utatlán 	7	Santa Rita 	2	Febrero	2023-02-16T00:00:00	2024-11-08T21:00:00	3	Temperatura mínima	18.4
77012	7	Sololá	704	Santa Lucía Utatlán 	7	Santa Rita 	2	Febrero	2023-02-16T00:00:00	2024-11-08T21:00:00	5	Humedad	58
77013	7	Sololá	704	Santa Lucía Utatlán 	7	Santa Rita 	2	Febrero	2023-02-16T00:00:00	2024-11-08T21:00:00	6	Velocidad del viento	3.2
77014	7	Sololá	704	Santa Lucía Utatlán 	7	Santa Rita 	2	Febrero	2023-02-16T00:00:00	2024-11-08T21:00:00	7	Dirección del viento	3.22
77015	7	Sololá	704	Santa Lucía Utatlán 	7	Santa Rita 	2	Febrero	2023-02-16T00:00:00	2024-11-08T21:00:00	1	Precipitación	0
77016	7	Sololá	704	Santa Lucía Utatlán 	7	Santa Rita 	2	Febrero	2023-02-16T00:00:00	2024-11-08T21:00:00	8	Radiación solar	0
77017	7	Sololá	704	Santa Lucía Utatlán 	7	Santa Rita 	2	Febrero	2023-02-16T00:00:00	2024-11-08T22:00:00	2	Temperatura media	16.7
77018	7	Sololá	704	Santa Lucía Utatlán 	7	Santa Rita 	2	Febrero	2023-02-16T00:00:00	2024-11-08T22:00:00	4	Temperatura máxima	18.4
77019	7	Sololá	704	Santa Lucía Utatlán 	7	Santa Rita 	2	Febrero	2023-02-16T00:00:00	2024-11-08T22:00:00	3	Temperatura mínima	16.7
77020	7	Sololá	704	Santa Lucía Utatlán 	7	Santa Rita 	2	Febrero	2023-02-16T00:00:00	2024-11-08T22:00:00	5	Humedad	56
77021	7	Sololá	704	Santa Lucía Utatlán 	7	Santa Rita 	2	Febrero	2023-02-16T00:00:00	2024-11-08T22:00:00	6	Velocidad del viento	3.2
77022	7	Sololá	704	Santa Lucía Utatlán 	7	Santa Rita 	2	Febrero	2023-02-16T00:00:00	2024-11-08T22:00:00	7	Dirección del viento	3.22
77023	7	Sololá	704	Santa Lucía Utatlán 	7	Santa Rita 	2	Febrero	2023-02-16T00:00:00	2024-11-08T22:00:00	1	Precipitación	0
77024	7	Sololá	704	Santa Lucía Utatlán 	7	Santa Rita 	2	Febrero	2023-02-16T00:00:00	2024-11-08T22:00:00	8	Radiación solar	0
77025	7	Sololá	704	Santa Lucía Utatlán 	7	Santa Rita 	2	Febrero	2023-02-16T00:00:00	2024-11-08T23:00:00	2	Temperatura media	17.5
77026	7	Sololá	704	Santa Lucía Utatlán 	7	Santa Rita 	2	Febrero	2023-02-16T00:00:00	2024-11-08T23:00:00	4	Temperatura máxima	17.5
77027	7	Sololá	704	Santa Lucía Utatlán 	7	Santa Rita 	2	Febrero	2023-02-16T00:00:00	2024-11-08T23:00:00	3	Temperatura mínima	16.2
77028	7	Sololá	704	Santa Lucía Utatlán 	7	Santa Rita 	2	Febrero	2023-02-16T00:00:00	2024-11-08T23:00:00	5	Humedad	58
77029	7	Sololá	704	Santa Lucía Utatlán 	7	Santa Rita 	2	Febrero	2023-02-16T00:00:00	2024-11-08T23:00:00	6	Velocidad del viento	4.8
77030	7	Sololá	704	Santa Lucía Utatlán 	7	Santa Rita 	2	Febrero	2023-02-16T00:00:00	2024-11-08T23:00:00	7	Dirección del viento	4.83
77031	7	Sololá	704	Santa Lucía Utatlán 	7	Santa Rita 	2	Febrero	2023-02-16T00:00:00	2024-11-08T23:00:00	1	Precipitación	0
77032	7	Sololá	704	Santa Lucía Utatlán 	7	Santa Rita 	2	Febrero	2023-02-16T00:00:00	2024-11-08T23:00:00	8	Radiación solar	0
77033	7	Sololá	704	Santa Lucía Utatlán 	7	Santa Rita 	2	Febrero	2023-02-17T00:00:00	2024-11-08T00:00:00	2	Temperatura media	16.3
77034	7	Sololá	704	Santa Lucía Utatlán 	7	Santa Rita 	2	Febrero	2023-02-17T00:00:00	2024-11-08T00:00:00	4	Temperatura máxima	17.7
77035	7	Sololá	704	Santa Lucía Utatlán 	7	Santa Rita 	2	Febrero	2023-02-17T00:00:00	2024-11-08T00:00:00	3	Temperatura mínima	16.2
77036	7	Sololá	704	Santa Lucía Utatlán 	7	Santa Rita 	2	Febrero	2023-02-17T00:00:00	2024-11-08T00:00:00	5	Humedad	67
77037	7	Sololá	704	Santa Lucía Utatlán 	7	Santa Rita 	2	Febrero	2023-02-17T00:00:00	2024-11-08T00:00:00	6	Velocidad del viento	1.6
77038	7	Sololá	704	Santa Lucía Utatlán 	7	Santa Rita 	2	Febrero	2023-02-17T00:00:00	2024-11-08T00:00:00	7	Dirección del viento	1.61
77039	7	Sololá	704	Santa Lucía Utatlán 	7	Santa Rita 	2	Febrero	2023-02-17T00:00:00	2024-11-08T00:00:00	1	Precipitación	0
77040	7	Sololá	704	Santa Lucía Utatlán 	7	Santa Rita 	2	Febrero	2023-02-17T00:00:00	2024-11-08T00:00:00	8	Radiación solar	0
77041	7	Sololá	704	Santa Lucía Utatlán 	7	Santa Rita 	2	Febrero	2023-02-17T00:00:00	2024-11-08T01:00:00	2	Temperatura media	15.8
77042	7	Sololá	704	Santa Lucía Utatlán 	7	Santa Rita 	2	Febrero	2023-02-17T00:00:00	2024-11-08T01:00:00	4	Temperatura máxima	16.6
77043	7	Sololá	704	Santa Lucía Utatlán 	7	Santa Rita 	2	Febrero	2023-02-17T00:00:00	2024-11-08T01:00:00	3	Temperatura mínima	15.6
77044	7	Sololá	704	Santa Lucía Utatlán 	7	Santa Rita 	2	Febrero	2023-02-17T00:00:00	2024-11-08T01:00:00	5	Humedad	73
77045	7	Sololá	704	Santa Lucía Utatlán 	7	Santa Rita 	2	Febrero	2023-02-17T00:00:00	2024-11-08T01:00:00	6	Velocidad del viento	3.2
77046	7	Sololá	704	Santa Lucía Utatlán 	7	Santa Rita 	2	Febrero	2023-02-17T00:00:00	2024-11-08T01:00:00	7	Dirección del viento	3.22
77047	7	Sololá	704	Santa Lucía Utatlán 	7	Santa Rita 	2	Febrero	2023-02-17T00:00:00	2024-11-08T01:00:00	1	Precipitación	0
77048	7	Sololá	704	Santa Lucía Utatlán 	7	Santa Rita 	2	Febrero	2023-02-17T00:00:00	2024-11-08T01:00:00	8	Radiación solar	0
77049	7	Sololá	704	Santa Lucía Utatlán 	7	Santa Rita 	2	Febrero	2023-02-17T00:00:00	2024-11-08T02:00:00	2	Temperatura media	15.2
77050	7	Sololá	704	Santa Lucía Utatlán 	7	Santa Rita 	2	Febrero	2023-02-17T00:00:00	2024-11-08T02:00:00	4	Temperatura máxima	15.8
77051	7	Sololá	704	Santa Lucía Utatlán 	7	Santa Rita 	2	Febrero	2023-02-17T00:00:00	2024-11-08T02:00:00	3	Temperatura mínima	14.9
77052	7	Sololá	704	Santa Lucía Utatlán 	7	Santa Rita 	2	Febrero	2023-02-17T00:00:00	2024-11-08T02:00:00	5	Humedad	32
77053	7	Sololá	704	Santa Lucía Utatlán 	7	Santa Rita 	2	Febrero	2023-02-17T00:00:00	2024-11-08T02:00:00	6	Velocidad del viento	3.2
77054	7	Sololá	704	Santa Lucía Utatlán 	7	Santa Rita 	2	Febrero	2023-02-17T00:00:00	2024-11-08T02:00:00	7	Dirección del viento	3.22
77055	7	Sololá	704	Santa Lucía Utatlán 	7	Santa Rita 	2	Febrero	2023-02-17T00:00:00	2024-11-08T02:00:00	1	Precipitación	0
77056	7	Sololá	704	Santa Lucía Utatlán 	7	Santa Rita 	2	Febrero	2023-02-17T00:00:00	2024-11-08T02:00:00	8	Radiación solar	0
77057	7	Sololá	704	Santa Lucía Utatlán 	7	Santa Rita 	2	Febrero	2023-02-17T00:00:00	2024-11-08T03:00:00	2	Temperatura media	15.4
77058	7	Sololá	704	Santa Lucía Utatlán 	7	Santa Rita 	2	Febrero	2023-02-17T00:00:00	2024-11-08T03:00:00	4	Temperatura máxima	15.6
77059	7	Sololá	704	Santa Lucía Utatlán 	7	Santa Rita 	2	Febrero	2023-02-17T00:00:00	2024-11-08T03:00:00	3	Temperatura mínima	15.1
77060	7	Sololá	704	Santa Lucía Utatlán 	7	Santa Rita 	2	Febrero	2023-02-17T00:00:00	2024-11-08T03:00:00	5	Humedad	29
77061	7	Sololá	704	Santa Lucía Utatlán 	7	Santa Rita 	2	Febrero	2023-02-17T00:00:00	2024-11-08T03:00:00	6	Velocidad del viento	4.8
77062	7	Sololá	704	Santa Lucía Utatlán 	7	Santa Rita 	2	Febrero	2023-02-17T00:00:00	2024-11-08T03:00:00	7	Dirección del viento	4.83
77063	7	Sololá	704	Santa Lucía Utatlán 	7	Santa Rita 	2	Febrero	2023-02-17T00:00:00	2024-11-08T03:00:00	1	Precipitación	0
77064	7	Sololá	704	Santa Lucía Utatlán 	7	Santa Rita 	2	Febrero	2023-02-17T00:00:00	2024-11-08T03:00:00	8	Radiación solar	0
77065	7	Sololá	704	Santa Lucía Utatlán 	7	Santa Rita 	2	Febrero	2023-02-17T00:00:00	2024-11-08T04:00:00	2	Temperatura media	16.1
77066	7	Sololá	704	Santa Lucía Utatlán 	7	Santa Rita 	2	Febrero	2023-02-17T00:00:00	2024-11-08T04:00:00	4	Temperatura máxima	16.1
77067	7	Sololá	704	Santa Lucía Utatlán 	7	Santa Rita 	2	Febrero	2023-02-17T00:00:00	2024-11-08T04:00:00	3	Temperatura mínima	14.9
77068	7	Sololá	704	Santa Lucía Utatlán 	7	Santa Rita 	2	Febrero	2023-02-17T00:00:00	2024-11-08T04:00:00	5	Humedad	26
77069	7	Sololá	704	Santa Lucía Utatlán 	7	Santa Rita 	2	Febrero	2023-02-17T00:00:00	2024-11-08T04:00:00	6	Velocidad del viento	3.2
77070	7	Sololá	704	Santa Lucía Utatlán 	7	Santa Rita 	2	Febrero	2023-02-17T00:00:00	2024-11-08T04:00:00	7	Dirección del viento	3.22
77071	7	Sololá	704	Santa Lucía Utatlán 	7	Santa Rita 	2	Febrero	2023-02-17T00:00:00	2024-11-08T04:00:00	1	Precipitación	0
77072	7	Sololá	704	Santa Lucía Utatlán 	7	Santa Rita 	2	Febrero	2023-02-17T00:00:00	2024-11-08T04:00:00	8	Radiación solar	0
77073	7	Sololá	704	Santa Lucía Utatlán 	7	Santa Rita 	2	Febrero	2023-02-17T00:00:00	2024-11-08T05:00:00	2	Temperatura media	16.3
77074	7	Sololá	704	Santa Lucía Utatlán 	7	Santa Rita 	2	Febrero	2023-02-17T00:00:00	2024-11-08T05:00:00	4	Temperatura máxima	17.1
77075	7	Sololá	704	Santa Lucía Utatlán 	7	Santa Rita 	2	Febrero	2023-02-17T00:00:00	2024-11-08T05:00:00	3	Temperatura mínima	15.8
77076	7	Sololá	704	Santa Lucía Utatlán 	7	Santa Rita 	2	Febrero	2023-02-17T00:00:00	2024-11-08T05:00:00	5	Humedad	24
77077	7	Sololá	704	Santa Lucía Utatlán 	7	Santa Rita 	2	Febrero	2023-02-17T00:00:00	2024-11-08T05:00:00	6	Velocidad del viento	3.2
77078	7	Sololá	704	Santa Lucía Utatlán 	7	Santa Rita 	2	Febrero	2023-02-17T00:00:00	2024-11-08T05:00:00	7	Dirección del viento	3.22
77079	7	Sololá	704	Santa Lucía Utatlán 	7	Santa Rita 	2	Febrero	2023-02-17T00:00:00	2024-11-08T05:00:00	1	Precipitación	0
77080	7	Sololá	704	Santa Lucía Utatlán 	7	Santa Rita 	2	Febrero	2023-02-17T00:00:00	2024-11-08T05:00:00	8	Radiación solar	0
77081	7	Sololá	704	Santa Lucía Utatlán 	7	Santa Rita 	2	Febrero	2023-02-17T00:00:00	2024-11-08T06:00:00	2	Temperatura media	15.3
77082	7	Sololá	704	Santa Lucía Utatlán 	7	Santa Rita 	2	Febrero	2023-02-17T00:00:00	2024-11-08T06:00:00	4	Temperatura máxima	16.4
77083	7	Sololá	704	Santa Lucía Utatlán 	7	Santa Rita 	2	Febrero	2023-02-17T00:00:00	2024-11-08T06:00:00	3	Temperatura mínima	15.3
77084	7	Sololá	704	Santa Lucía Utatlán 	7	Santa Rita 	2	Febrero	2023-02-17T00:00:00	2024-11-08T06:00:00	5	Humedad	24
77085	7	Sololá	704	Santa Lucía Utatlán 	7	Santa Rita 	2	Febrero	2023-02-17T00:00:00	2024-11-08T06:00:00	6	Velocidad del viento	3.2
77086	7	Sololá	704	Santa Lucía Utatlán 	7	Santa Rita 	2	Febrero	2023-02-17T00:00:00	2024-11-08T06:00:00	7	Dirección del viento	3.22
77087	7	Sololá	704	Santa Lucía Utatlán 	7	Santa Rita 	2	Febrero	2023-02-17T00:00:00	2024-11-08T06:00:00	1	Precipitación	0
77088	7	Sololá	704	Santa Lucía Utatlán 	7	Santa Rita 	2	Febrero	2023-02-17T00:00:00	2024-11-08T06:00:00	8	Radiación solar	0
77089	7	Sololá	704	Santa Lucía Utatlán 	7	Santa Rita 	2	Febrero	2023-02-17T00:00:00	2024-11-08T07:00:00	2	Temperatura media	15.9
77090	7	Sololá	704	Santa Lucía Utatlán 	7	Santa Rita 	2	Febrero	2023-02-17T00:00:00	2024-11-08T07:00:00	4	Temperatura máxima	16.1
77091	7	Sololá	704	Santa Lucía Utatlán 	7	Santa Rita 	2	Febrero	2023-02-17T00:00:00	2024-11-08T07:00:00	3	Temperatura mínima	15.1
77092	7	Sololá	704	Santa Lucía Utatlán 	7	Santa Rita 	2	Febrero	2023-02-17T00:00:00	2024-11-08T07:00:00	5	Humedad	25
77093	7	Sololá	704	Santa Lucía Utatlán 	7	Santa Rita 	2	Febrero	2023-02-17T00:00:00	2024-11-08T07:00:00	6	Velocidad del viento	3.2
77094	7	Sololá	704	Santa Lucía Utatlán 	7	Santa Rita 	2	Febrero	2023-02-17T00:00:00	2024-11-08T07:00:00	7	Dirección del viento	3.22
77095	7	Sololá	704	Santa Lucía Utatlán 	7	Santa Rita 	2	Febrero	2023-02-17T00:00:00	2024-11-08T07:00:00	1	Precipitación	0
77096	7	Sololá	704	Santa Lucía Utatlán 	7	Santa Rita 	2	Febrero	2023-02-17T00:00:00	2024-11-08T07:00:00	8	Radiación solar	6
77097	7	Sololá	704	Santa Lucía Utatlán 	7	Santa Rita 	2	Febrero	2023-02-17T00:00:00	2024-11-08T08:00:00	2	Temperatura media	19.6
77098	7	Sololá	704	Santa Lucía Utatlán 	7	Santa Rita 	2	Febrero	2023-02-17T00:00:00	2024-11-08T08:00:00	4	Temperatura máxima	19.7
77099	7	Sololá	704	Santa Lucía Utatlán 	7	Santa Rita 	2	Febrero	2023-02-17T00:00:00	2024-11-08T08:00:00	3	Temperatura mínima	15.7
77100	7	Sololá	704	Santa Lucía Utatlán 	7	Santa Rita 	2	Febrero	2023-02-17T00:00:00	2024-11-08T08:00:00	5	Humedad	31
77101	7	Sololá	704	Santa Lucía Utatlán 	7	Santa Rita 	2	Febrero	2023-02-17T00:00:00	2024-11-08T08:00:00	6	Velocidad del viento	4.8
77102	7	Sololá	704	Santa Lucía Utatlán 	7	Santa Rita 	2	Febrero	2023-02-17T00:00:00	2024-11-08T08:00:00	7	Dirección del viento	4.83
77103	7	Sololá	704	Santa Lucía Utatlán 	7	Santa Rita 	2	Febrero	2023-02-17T00:00:00	2024-11-08T08:00:00	1	Precipitación	0
77104	7	Sololá	704	Santa Lucía Utatlán 	7	Santa Rita 	2	Febrero	2023-02-17T00:00:00	2024-11-08T08:00:00	8	Radiación solar	178
77105	7	Sololá	704	Santa Lucía Utatlán 	7	Santa Rita 	2	Febrero	2023-02-17T00:00:00	2024-11-08T09:00:00	2	Temperatura media	23.9
77106	7	Sololá	704	Santa Lucía Utatlán 	7	Santa Rita 	2	Febrero	2023-02-17T00:00:00	2024-11-08T09:00:00	4	Temperatura máxima	23.9
77107	7	Sololá	704	Santa Lucía Utatlán 	7	Santa Rita 	2	Febrero	2023-02-17T00:00:00	2024-11-08T09:00:00	3	Temperatura mínima	19.6
77108	7	Sololá	704	Santa Lucía Utatlán 	7	Santa Rita 	2	Febrero	2023-02-17T00:00:00	2024-11-08T09:00:00	5	Humedad	17
77109	7	Sololá	704	Santa Lucía Utatlán 	7	Santa Rita 	2	Febrero	2023-02-17T00:00:00	2024-11-08T09:00:00	6	Velocidad del viento	9.7
77110	7	Sololá	704	Santa Lucía Utatlán 	7	Santa Rita 	2	Febrero	2023-02-17T00:00:00	2024-11-08T09:00:00	7	Dirección del viento	9.66
77111	7	Sololá	704	Santa Lucía Utatlán 	7	Santa Rita 	2	Febrero	2023-02-17T00:00:00	2024-11-08T09:00:00	1	Precipitación	0
77112	7	Sololá	704	Santa Lucía Utatlán 	7	Santa Rita 	2	Febrero	2023-02-17T00:00:00	2024-11-08T09:00:00	8	Radiación solar	431
77113	7	Sololá	704	Santa Lucía Utatlán 	7	Santa Rita 	2	Febrero	2023-02-17T00:00:00	2024-11-08T10:00:00	2	Temperatura media	25
77114	7	Sololá	704	Santa Lucía Utatlán 	7	Santa Rita 	2	Febrero	2023-02-17T00:00:00	2024-11-08T10:00:00	4	Temperatura máxima	25.1
77115	7	Sololá	704	Santa Lucía Utatlán 	7	Santa Rita 	2	Febrero	2023-02-17T00:00:00	2024-11-08T10:00:00	3	Temperatura mínima	24
77116	7	Sololá	704	Santa Lucía Utatlán 	7	Santa Rita 	2	Febrero	2023-02-17T00:00:00	2024-11-08T10:00:00	5	Humedad	19
77117	7	Sololá	704	Santa Lucía Utatlán 	7	Santa Rita 	2	Febrero	2023-02-17T00:00:00	2024-11-08T10:00:00	6	Velocidad del viento	8
77118	7	Sololá	704	Santa Lucía Utatlán 	7	Santa Rita 	2	Febrero	2023-02-17T00:00:00	2024-11-08T10:00:00	7	Dirección del viento	8.05
77119	7	Sololá	704	Santa Lucía Utatlán 	7	Santa Rita 	2	Febrero	2023-02-17T00:00:00	2024-11-08T10:00:00	1	Precipitación	0
77120	7	Sololá	704	Santa Lucía Utatlán 	7	Santa Rita 	2	Febrero	2023-02-17T00:00:00	2024-11-08T10:00:00	8	Radiación solar	640
77121	7	Sololá	704	Santa Lucía Utatlán 	7	Santa Rita 	2	Febrero	2023-02-17T00:00:00	2024-11-08T11:00:00	2	Temperatura media	24.6
77122	7	Sololá	704	Santa Lucía Utatlán 	7	Santa Rita 	2	Febrero	2023-02-17T00:00:00	2024-11-08T11:00:00	4	Temperatura máxima	25.1
77123	7	Sololá	704	Santa Lucía Utatlán 	7	Santa Rita 	2	Febrero	2023-02-17T00:00:00	2024-11-08T11:00:00	3	Temperatura mínima	24.2
77124	7	Sololá	704	Santa Lucía Utatlán 	7	Santa Rita 	2	Febrero	2023-02-17T00:00:00	2024-11-08T11:00:00	5	Humedad	30
77125	7	Sololá	704	Santa Lucía Utatlán 	7	Santa Rita 	2	Febrero	2023-02-17T00:00:00	2024-11-08T11:00:00	6	Velocidad del viento	12.9
77126	7	Sololá	704	Santa Lucía Utatlán 	7	Santa Rita 	2	Febrero	2023-02-17T00:00:00	2024-11-08T11:00:00	7	Dirección del viento	12.87
77127	7	Sololá	704	Santa Lucía Utatlán 	7	Santa Rita 	2	Febrero	2023-02-17T00:00:00	2024-11-08T11:00:00	1	Precipitación	0
77128	7	Sololá	704	Santa Lucía Utatlán 	7	Santa Rita 	2	Febrero	2023-02-17T00:00:00	2024-11-08T11:00:00	8	Radiación solar	797
77129	7	Sololá	704	Santa Lucía Utatlán 	7	Santa Rita 	2	Febrero	2023-02-17T00:00:00	2024-11-08T12:00:00	2	Temperatura media	23.4
77130	7	Sololá	704	Santa Lucía Utatlán 	7	Santa Rita 	2	Febrero	2023-02-17T00:00:00	2024-11-08T12:00:00	4	Temperatura máxima	25.2
77131	7	Sololá	704	Santa Lucía Utatlán 	7	Santa Rita 	2	Febrero	2023-02-17T00:00:00	2024-11-08T12:00:00	3	Temperatura mínima	23.4
77132	7	Sololá	704	Santa Lucía Utatlán 	7	Santa Rita 	2	Febrero	2023-02-17T00:00:00	2024-11-08T12:00:00	5	Humedad	41
77133	7	Sololá	704	Santa Lucía Utatlán 	7	Santa Rita 	2	Febrero	2023-02-17T00:00:00	2024-11-08T12:00:00	6	Velocidad del viento	12.9
77134	7	Sololá	704	Santa Lucía Utatlán 	7	Santa Rita 	2	Febrero	2023-02-17T00:00:00	2024-11-08T12:00:00	7	Dirección del viento	12.87
77135	7	Sololá	704	Santa Lucía Utatlán 	7	Santa Rita 	2	Febrero	2023-02-17T00:00:00	2024-11-08T12:00:00	1	Precipitación	0
77136	7	Sololá	704	Santa Lucía Utatlán 	7	Santa Rita 	2	Febrero	2023-02-17T00:00:00	2024-11-08T12:00:00	8	Radiación solar	883
77137	7	Sololá	704	Santa Lucía Utatlán 	7	Santa Rita 	2	Febrero	2023-02-17T00:00:00	2024-11-08T13:00:00	2	Temperatura media	24.7
77138	7	Sololá	704	Santa Lucía Utatlán 	7	Santa Rita 	2	Febrero	2023-02-17T00:00:00	2024-11-08T13:00:00	4	Temperatura máxima	24.7
77139	7	Sololá	704	Santa Lucía Utatlán 	7	Santa Rita 	2	Febrero	2023-02-17T00:00:00	2024-11-08T13:00:00	3	Temperatura mínima	23.5
77140	7	Sololá	704	Santa Lucía Utatlán 	7	Santa Rita 	2	Febrero	2023-02-17T00:00:00	2024-11-08T13:00:00	5	Humedad	37
77141	7	Sololá	704	Santa Lucía Utatlán 	7	Santa Rita 	2	Febrero	2023-02-17T00:00:00	2024-11-08T13:00:00	6	Velocidad del viento	11.3
77142	7	Sololá	704	Santa Lucía Utatlán 	7	Santa Rita 	2	Febrero	2023-02-17T00:00:00	2024-11-08T13:00:00	7	Dirección del viento	11.27
77143	7	Sololá	704	Santa Lucía Utatlán 	7	Santa Rita 	2	Febrero	2023-02-17T00:00:00	2024-11-08T13:00:00	1	Precipitación	0
77144	7	Sololá	704	Santa Lucía Utatlán 	7	Santa Rita 	2	Febrero	2023-02-17T00:00:00	2024-11-08T13:00:00	8	Radiación solar	900
77145	7	Sololá	704	Santa Lucía Utatlán 	7	Santa Rita 	2	Febrero	2023-02-17T00:00:00	2024-11-08T14:00:00	2	Temperatura media	23.9
77146	7	Sololá	704	Santa Lucía Utatlán 	7	Santa Rita 	2	Febrero	2023-02-17T00:00:00	2024-11-08T14:00:00	4	Temperatura máxima	25.1
77147	7	Sololá	704	Santa Lucía Utatlán 	7	Santa Rita 	2	Febrero	2023-02-17T00:00:00	2024-11-08T14:00:00	3	Temperatura mínima	23.8
77148	7	Sololá	704	Santa Lucía Utatlán 	7	Santa Rita 	2	Febrero	2023-02-17T00:00:00	2024-11-08T14:00:00	5	Humedad	44
77149	7	Sololá	704	Santa Lucía Utatlán 	7	Santa Rita 	2	Febrero	2023-02-17T00:00:00	2024-11-08T14:00:00	6	Velocidad del viento	12.9
77150	7	Sololá	704	Santa Lucía Utatlán 	7	Santa Rita 	2	Febrero	2023-02-17T00:00:00	2024-11-08T14:00:00	7	Dirección del viento	12.87
77151	7	Sololá	704	Santa Lucía Utatlán 	7	Santa Rita 	2	Febrero	2023-02-17T00:00:00	2024-11-08T14:00:00	1	Precipitación	0
77152	7	Sololá	704	Santa Lucía Utatlán 	7	Santa Rita 	2	Febrero	2023-02-17T00:00:00	2024-11-08T14:00:00	8	Radiación solar	869
77153	7	Sololá	704	Santa Lucía Utatlán 	7	Santa Rita 	2	Febrero	2023-02-17T00:00:00	2024-11-08T15:00:00	2	Temperatura media	23.1
77154	7	Sololá	704	Santa Lucía Utatlán 	7	Santa Rita 	2	Febrero	2023-02-17T00:00:00	2024-11-08T15:00:00	4	Temperatura máxima	24.1
77155	7	Sololá	704	Santa Lucía Utatlán 	7	Santa Rita 	2	Febrero	2023-02-17T00:00:00	2024-11-08T15:00:00	3	Temperatura mínima	22.9
77156	7	Sololá	704	Santa Lucía Utatlán 	7	Santa Rita 	2	Febrero	2023-02-17T00:00:00	2024-11-08T15:00:00	5	Humedad	47
77157	7	Sololá	704	Santa Lucía Utatlán 	7	Santa Rita 	2	Febrero	2023-02-17T00:00:00	2024-11-08T15:00:00	6	Velocidad del viento	12.9
77158	7	Sololá	704	Santa Lucía Utatlán 	7	Santa Rita 	2	Febrero	2023-02-17T00:00:00	2024-11-08T15:00:00	7	Dirección del viento	12.87
77159	7	Sololá	704	Santa Lucía Utatlán 	7	Santa Rita 	2	Febrero	2023-02-17T00:00:00	2024-11-08T15:00:00	1	Precipitación	0
77160	7	Sololá	704	Santa Lucía Utatlán 	7	Santa Rita 	2	Febrero	2023-02-17T00:00:00	2024-11-08T15:00:00	8	Radiación solar	771
77161	7	Sololá	704	Santa Lucía Utatlán 	7	Santa Rita 	2	Febrero	2023-02-17T00:00:00	2024-11-08T16:00:00	2	Temperatura media	21.5
77162	7	Sololá	704	Santa Lucía Utatlán 	7	Santa Rita 	2	Febrero	2023-02-17T00:00:00	2024-11-08T16:00:00	4	Temperatura máxima	23.5
77163	7	Sololá	704	Santa Lucía Utatlán 	7	Santa Rita 	2	Febrero	2023-02-17T00:00:00	2024-11-08T16:00:00	3	Temperatura mínima	21.5
77164	7	Sololá	704	Santa Lucía Utatlán 	7	Santa Rita 	2	Febrero	2023-02-17T00:00:00	2024-11-08T16:00:00	5	Humedad	50
77165	7	Sololá	704	Santa Lucía Utatlán 	7	Santa Rita 	2	Febrero	2023-02-17T00:00:00	2024-11-08T16:00:00	6	Velocidad del viento	11.3
77166	7	Sololá	704	Santa Lucía Utatlán 	7	Santa Rita 	2	Febrero	2023-02-17T00:00:00	2024-11-08T16:00:00	7	Dirección del viento	11.27
77167	7	Sololá	704	Santa Lucía Utatlán 	7	Santa Rita 	2	Febrero	2023-02-17T00:00:00	2024-11-08T16:00:00	1	Precipitación	0
77168	7	Sololá	704	Santa Lucía Utatlán 	7	Santa Rita 	2	Febrero	2023-02-17T00:00:00	2024-11-08T16:00:00	8	Radiación solar	359
77169	7	Sololá	704	Santa Lucía Utatlán 	7	Santa Rita 	2	Febrero	2023-02-17T00:00:00	2024-11-08T17:00:00	2	Temperatura media	20.5
77170	7	Sololá	704	Santa Lucía Utatlán 	7	Santa Rita 	2	Febrero	2023-02-17T00:00:00	2024-11-08T17:00:00	4	Temperatura máxima	21.7
77171	7	Sololá	704	Santa Lucía Utatlán 	7	Santa Rita 	2	Febrero	2023-02-17T00:00:00	2024-11-08T17:00:00	3	Temperatura mínima	20.5
77172	7	Sololá	704	Santa Lucía Utatlán 	7	Santa Rita 	2	Febrero	2023-02-17T00:00:00	2024-11-08T17:00:00	5	Humedad	56
77173	7	Sololá	704	Santa Lucía Utatlán 	7	Santa Rita 	2	Febrero	2023-02-17T00:00:00	2024-11-08T17:00:00	6	Velocidad del viento	16.1
77174	7	Sololá	704	Santa Lucía Utatlán 	7	Santa Rita 	2	Febrero	2023-02-17T00:00:00	2024-11-08T17:00:00	7	Dirección del viento	16.09
77175	7	Sololá	704	Santa Lucía Utatlán 	7	Santa Rita 	2	Febrero	2023-02-17T00:00:00	2024-11-08T17:00:00	1	Precipitación	0
77176	7	Sololá	704	Santa Lucía Utatlán 	7	Santa Rita 	2	Febrero	2023-02-17T00:00:00	2024-11-08T17:00:00	8	Radiación solar	274
77177	7	Sololá	704	Santa Lucía Utatlán 	7	Santa Rita 	2	Febrero	2023-02-17T00:00:00	2024-11-08T18:00:00	2	Temperatura media	18.8
77178	7	Sololá	704	Santa Lucía Utatlán 	7	Santa Rita 	2	Febrero	2023-02-17T00:00:00	2024-11-08T18:00:00	4	Temperatura máxima	20.6
77179	7	Sololá	704	Santa Lucía Utatlán 	7	Santa Rita 	2	Febrero	2023-02-17T00:00:00	2024-11-08T18:00:00	3	Temperatura mínima	18.8
77180	7	Sololá	704	Santa Lucía Utatlán 	7	Santa Rita 	2	Febrero	2023-02-17T00:00:00	2024-11-08T18:00:00	5	Humedad	63
77181	7	Sololá	704	Santa Lucía Utatlán 	7	Santa Rita 	2	Febrero	2023-02-17T00:00:00	2024-11-08T18:00:00	6	Velocidad del viento	12.9
77182	7	Sololá	704	Santa Lucía Utatlán 	7	Santa Rita 	2	Febrero	2023-02-17T00:00:00	2024-11-08T18:00:00	7	Dirección del viento	12.87
77183	7	Sololá	704	Santa Lucía Utatlán 	7	Santa Rita 	2	Febrero	2023-02-17T00:00:00	2024-11-08T18:00:00	1	Precipitación	0
77184	7	Sololá	704	Santa Lucía Utatlán 	7	Santa Rita 	2	Febrero	2023-02-17T00:00:00	2024-11-08T18:00:00	8	Radiación solar	65
77185	7	Sololá	704	Santa Lucía Utatlán 	7	Santa Rita 	2	Febrero	2023-02-17T00:00:00	2024-11-08T19:00:00	2	Temperatura media	17.8
77186	7	Sololá	704	Santa Lucía Utatlán 	7	Santa Rita 	2	Febrero	2023-02-17T00:00:00	2024-11-08T19:00:00	4	Temperatura máxima	18.8
77187	7	Sololá	704	Santa Lucía Utatlán 	7	Santa Rita 	2	Febrero	2023-02-17T00:00:00	2024-11-08T19:00:00	3	Temperatura mínima	17.8
77188	7	Sololá	704	Santa Lucía Utatlán 	7	Santa Rita 	2	Febrero	2023-02-17T00:00:00	2024-11-08T19:00:00	5	Humedad	61
77189	7	Sololá	704	Santa Lucía Utatlán 	7	Santa Rita 	2	Febrero	2023-02-17T00:00:00	2024-11-08T19:00:00	6	Velocidad del viento	9.7
77190	7	Sololá	704	Santa Lucía Utatlán 	7	Santa Rita 	2	Febrero	2023-02-17T00:00:00	2024-11-08T19:00:00	7	Dirección del viento	9.66
77191	7	Sololá	704	Santa Lucía Utatlán 	7	Santa Rita 	2	Febrero	2023-02-17T00:00:00	2024-11-08T19:00:00	1	Precipitación	0
77192	7	Sololá	704	Santa Lucía Utatlán 	7	Santa Rita 	2	Febrero	2023-02-17T00:00:00	2024-11-08T19:00:00	8	Radiación solar	0
77193	7	Sololá	704	Santa Lucía Utatlán 	7	Santa Rita 	2	Febrero	2023-02-17T00:00:00	2024-11-08T20:00:00	2	Temperatura media	18
77194	7	Sololá	704	Santa Lucía Utatlán 	7	Santa Rita 	2	Febrero	2023-02-17T00:00:00	2024-11-08T20:00:00	4	Temperatura máxima	18
77195	7	Sololá	704	Santa Lucía Utatlán 	7	Santa Rita 	2	Febrero	2023-02-17T00:00:00	2024-11-08T20:00:00	3	Temperatura mínima	17.7
77196	7	Sololá	704	Santa Lucía Utatlán 	7	Santa Rita 	2	Febrero	2023-02-17T00:00:00	2024-11-08T20:00:00	5	Humedad	68
77197	7	Sololá	704	Santa Lucía Utatlán 	7	Santa Rita 	2	Febrero	2023-02-17T00:00:00	2024-11-08T20:00:00	6	Velocidad del viento	11.3
77198	7	Sololá	704	Santa Lucía Utatlán 	7	Santa Rita 	2	Febrero	2023-02-17T00:00:00	2024-11-08T20:00:00	7	Dirección del viento	11.27
77199	7	Sololá	704	Santa Lucía Utatlán 	7	Santa Rita 	2	Febrero	2023-02-17T00:00:00	2024-11-08T20:00:00	1	Precipitación	0
77200	7	Sololá	704	Santa Lucía Utatlán 	7	Santa Rita 	2	Febrero	2023-02-17T00:00:00	2024-11-08T20:00:00	8	Radiación solar	0
77201	7	Sololá	704	Santa Lucía Utatlán 	7	Santa Rita 	2	Febrero	2023-02-17T00:00:00	2024-11-08T21:00:00	2	Temperatura media	17.6
77202	7	Sololá	704	Santa Lucía Utatlán 	7	Santa Rita 	2	Febrero	2023-02-17T00:00:00	2024-11-08T21:00:00	4	Temperatura máxima	18
77203	7	Sololá	704	Santa Lucía Utatlán 	7	Santa Rita 	2	Febrero	2023-02-17T00:00:00	2024-11-08T21:00:00	3	Temperatura mínima	17.4
77204	7	Sololá	704	Santa Lucía Utatlán 	7	Santa Rita 	2	Febrero	2023-02-17T00:00:00	2024-11-08T21:00:00	5	Humedad	67
77205	7	Sololá	704	Santa Lucía Utatlán 	7	Santa Rita 	2	Febrero	2023-02-17T00:00:00	2024-11-08T21:00:00	6	Velocidad del viento	11.3
77206	7	Sololá	704	Santa Lucía Utatlán 	7	Santa Rita 	2	Febrero	2023-02-17T00:00:00	2024-11-08T21:00:00	7	Dirección del viento	11.27
77207	7	Sololá	704	Santa Lucía Utatlán 	7	Santa Rita 	2	Febrero	2023-02-17T00:00:00	2024-11-08T21:00:00	1	Precipitación	0
77208	7	Sololá	704	Santa Lucía Utatlán 	7	Santa Rita 	2	Febrero	2023-02-17T00:00:00	2024-11-08T21:00:00	8	Radiación solar	0
77209	7	Sololá	704	Santa Lucía Utatlán 	7	Santa Rita 	2	Febrero	2023-02-17T00:00:00	2024-11-08T22:00:00	2	Temperatura media	17.7
77210	7	Sololá	704	Santa Lucía Utatlán 	7	Santa Rita 	2	Febrero	2023-02-17T00:00:00	2024-11-08T22:00:00	4	Temperatura máxima	17.7
77211	7	Sololá	704	Santa Lucía Utatlán 	7	Santa Rita 	2	Febrero	2023-02-17T00:00:00	2024-11-08T22:00:00	3	Temperatura mínima	17.5
77212	7	Sololá	704	Santa Lucía Utatlán 	7	Santa Rita 	2	Febrero	2023-02-17T00:00:00	2024-11-08T22:00:00	5	Humedad	73
77213	7	Sololá	704	Santa Lucía Utatlán 	7	Santa Rita 	2	Febrero	2023-02-17T00:00:00	2024-11-08T22:00:00	6	Velocidad del viento	16.1
77214	7	Sololá	704	Santa Lucía Utatlán 	7	Santa Rita 	2	Febrero	2023-02-17T00:00:00	2024-11-08T22:00:00	7	Dirección del viento	16.09
77215	7	Sololá	704	Santa Lucía Utatlán 	7	Santa Rita 	2	Febrero	2023-02-17T00:00:00	2024-11-08T22:00:00	1	Precipitación	0
77216	7	Sololá	704	Santa Lucía Utatlán 	7	Santa Rita 	2	Febrero	2023-02-17T00:00:00	2024-11-08T22:00:00	8	Radiación solar	0
77217	7	Sololá	704	Santa Lucía Utatlán 	7	Santa Rita 	2	Febrero	2023-02-17T00:00:00	2024-11-08T23:00:00	2	Temperatura media	17.8
77218	7	Sololá	704	Santa Lucía Utatlán 	7	Santa Rita 	2	Febrero	2023-02-17T00:00:00	2024-11-08T23:00:00	4	Temperatura máxima	17.9
77219	7	Sololá	704	Santa Lucía Utatlán 	7	Santa Rita 	2	Febrero	2023-02-17T00:00:00	2024-11-08T23:00:00	3	Temperatura mínima	17.3
77220	7	Sololá	704	Santa Lucía Utatlán 	7	Santa Rita 	2	Febrero	2023-02-17T00:00:00	2024-11-08T23:00:00	5	Humedad	74
77221	7	Sololá	704	Santa Lucía Utatlán 	7	Santa Rita 	2	Febrero	2023-02-17T00:00:00	2024-11-08T23:00:00	6	Velocidad del viento	14.5
77222	7	Sololá	704	Santa Lucía Utatlán 	7	Santa Rita 	2	Febrero	2023-02-17T00:00:00	2024-11-08T23:00:00	7	Dirección del viento	14.48
77223	7	Sololá	704	Santa Lucía Utatlán 	7	Santa Rita 	2	Febrero	2023-02-17T00:00:00	2024-11-08T23:00:00	1	Precipitación	0
77224	7	Sololá	704	Santa Lucía Utatlán 	7	Santa Rita 	2	Febrero	2023-02-17T00:00:00	2024-11-08T23:00:00	8	Radiación solar	0
77225	7	Sololá	704	Santa Lucía Utatlán 	7	Santa Rita 	2	Febrero	2023-02-18T00:00:00	2024-11-08T00:00:00	2	Temperatura media	17.4
77226	7	Sololá	704	Santa Lucía Utatlán 	7	Santa Rita 	2	Febrero	2023-02-18T00:00:00	2024-11-08T00:00:00	4	Temperatura máxima	17.8
77227	7	Sololá	704	Santa Lucía Utatlán 	7	Santa Rita 	2	Febrero	2023-02-18T00:00:00	2024-11-08T00:00:00	3	Temperatura mínima	17.2
77228	7	Sololá	704	Santa Lucía Utatlán 	7	Santa Rita 	2	Febrero	2023-02-18T00:00:00	2024-11-08T00:00:00	5	Humedad	78
77229	7	Sololá	704	Santa Lucía Utatlán 	7	Santa Rita 	2	Febrero	2023-02-18T00:00:00	2024-11-08T00:00:00	6	Velocidad del viento	19.3
77230	7	Sololá	704	Santa Lucía Utatlán 	7	Santa Rita 	2	Febrero	2023-02-18T00:00:00	2024-11-08T00:00:00	7	Dirección del viento	19.31
77231	7	Sololá	704	Santa Lucía Utatlán 	7	Santa Rita 	2	Febrero	2023-02-18T00:00:00	2024-11-08T00:00:00	1	Precipitación	0
77232	7	Sololá	704	Santa Lucía Utatlán 	7	Santa Rita 	2	Febrero	2023-02-18T00:00:00	2024-11-08T00:00:00	8	Radiación solar	0
77233	7	Sololá	704	Santa Lucía Utatlán 	7	Santa Rita 	2	Febrero	2023-02-18T00:00:00	2024-11-08T01:00:00	2	Temperatura media	17.6
77234	7	Sololá	704	Santa Lucía Utatlán 	7	Santa Rita 	2	Febrero	2023-02-18T00:00:00	2024-11-08T01:00:00	4	Temperatura máxima	17.6
77235	7	Sololá	704	Santa Lucía Utatlán 	7	Santa Rita 	2	Febrero	2023-02-18T00:00:00	2024-11-08T01:00:00	3	Temperatura mínima	17.4
77236	7	Sololá	704	Santa Lucía Utatlán 	7	Santa Rita 	2	Febrero	2023-02-18T00:00:00	2024-11-08T01:00:00	5	Humedad	79
77237	7	Sololá	704	Santa Lucía Utatlán 	7	Santa Rita 	2	Febrero	2023-02-18T00:00:00	2024-11-08T01:00:00	6	Velocidad del viento	9.7
77238	7	Sololá	704	Santa Lucía Utatlán 	7	Santa Rita 	2	Febrero	2023-02-18T00:00:00	2024-11-08T01:00:00	7	Dirección del viento	9.66
77239	7	Sololá	704	Santa Lucía Utatlán 	7	Santa Rita 	2	Febrero	2023-02-18T00:00:00	2024-11-08T01:00:00	1	Precipitación	0
77240	7	Sololá	704	Santa Lucía Utatlán 	7	Santa Rita 	2	Febrero	2023-02-18T00:00:00	2024-11-08T01:00:00	8	Radiación solar	0
77241	7	Sololá	704	Santa Lucía Utatlán 	7	Santa Rita 	2	Febrero	2023-02-18T00:00:00	2024-11-08T02:00:00	2	Temperatura media	17.6
77242	7	Sololá	704	Santa Lucía Utatlán 	7	Santa Rita 	2	Febrero	2023-02-18T00:00:00	2024-11-08T02:00:00	4	Temperatura máxima	17.8
77243	7	Sololá	704	Santa Lucía Utatlán 	7	Santa Rita 	2	Febrero	2023-02-18T00:00:00	2024-11-08T02:00:00	3	Temperatura mínima	17.5
77244	7	Sololá	704	Santa Lucía Utatlán 	7	Santa Rita 	2	Febrero	2023-02-18T00:00:00	2024-11-08T02:00:00	5	Humedad	81
77245	7	Sololá	704	Santa Lucía Utatlán 	7	Santa Rita 	2	Febrero	2023-02-18T00:00:00	2024-11-08T02:00:00	6	Velocidad del viento	8
77246	7	Sololá	704	Santa Lucía Utatlán 	7	Santa Rita 	2	Febrero	2023-02-18T00:00:00	2024-11-08T02:00:00	7	Dirección del viento	8.05
77247	7	Sololá	704	Santa Lucía Utatlán 	7	Santa Rita 	2	Febrero	2023-02-18T00:00:00	2024-11-08T02:00:00	1	Precipitación	0
77248	7	Sololá	704	Santa Lucía Utatlán 	7	Santa Rita 	2	Febrero	2023-02-18T00:00:00	2024-11-08T02:00:00	8	Radiación solar	0
77249	7	Sololá	704	Santa Lucía Utatlán 	7	Santa Rita 	2	Febrero	2023-02-18T00:00:00	2024-11-08T03:00:00	2	Temperatura media	17.4
77250	7	Sololá	704	Santa Lucía Utatlán 	7	Santa Rita 	2	Febrero	2023-02-18T00:00:00	2024-11-08T03:00:00	4	Temperatura máxima	17.7
77251	7	Sololá	704	Santa Lucía Utatlán 	7	Santa Rita 	2	Febrero	2023-02-18T00:00:00	2024-11-08T03:00:00	3	Temperatura mínima	17.3
77252	7	Sololá	704	Santa Lucía Utatlán 	7	Santa Rita 	2	Febrero	2023-02-18T00:00:00	2024-11-08T03:00:00	5	Humedad	77
77253	7	Sololá	704	Santa Lucía Utatlán 	7	Santa Rita 	2	Febrero	2023-02-18T00:00:00	2024-11-08T03:00:00	6	Velocidad del viento	3.2
77254	7	Sololá	704	Santa Lucía Utatlán 	7	Santa Rita 	2	Febrero	2023-02-18T00:00:00	2024-11-08T03:00:00	7	Dirección del viento	3.22
77255	7	Sololá	704	Santa Lucía Utatlán 	7	Santa Rita 	2	Febrero	2023-02-18T00:00:00	2024-11-08T03:00:00	1	Precipitación	0
77256	7	Sololá	704	Santa Lucía Utatlán 	7	Santa Rita 	2	Febrero	2023-02-18T00:00:00	2024-11-08T03:00:00	8	Radiación solar	0
77257	7	Sololá	704	Santa Lucía Utatlán 	7	Santa Rita 	2	Febrero	2023-02-18T00:00:00	2024-11-08T04:00:00	2	Temperatura media	16.7
77258	7	Sololá	704	Santa Lucía Utatlán 	7	Santa Rita 	2	Febrero	2023-02-18T00:00:00	2024-11-08T04:00:00	4	Temperatura máxima	17.5
77259	7	Sololá	704	Santa Lucía Utatlán 	7	Santa Rita 	2	Febrero	2023-02-18T00:00:00	2024-11-08T04:00:00	3	Temperatura mínima	16.7
77260	7	Sololá	704	Santa Lucía Utatlán 	7	Santa Rita 	2	Febrero	2023-02-18T00:00:00	2024-11-08T04:00:00	5	Humedad	72
77261	7	Sololá	704	Santa Lucía Utatlán 	7	Santa Rita 	2	Febrero	2023-02-18T00:00:00	2024-11-08T04:00:00	6	Velocidad del viento	1.6
77262	7	Sololá	704	Santa Lucía Utatlán 	7	Santa Rita 	2	Febrero	2023-02-18T00:00:00	2024-11-08T04:00:00	7	Dirección del viento	1.61
77263	7	Sololá	704	Santa Lucía Utatlán 	7	Santa Rita 	2	Febrero	2023-02-18T00:00:00	2024-11-08T04:00:00	1	Precipitación	0
77264	7	Sololá	704	Santa Lucía Utatlán 	7	Santa Rita 	2	Febrero	2023-02-18T00:00:00	2024-11-08T04:00:00	8	Radiación solar	0
77265	7	Sololá	704	Santa Lucía Utatlán 	7	Santa Rita 	2	Febrero	2023-02-18T00:00:00	2024-11-08T05:00:00	2	Temperatura media	15.9
77266	7	Sololá	704	Santa Lucía Utatlán 	7	Santa Rita 	2	Febrero	2023-02-18T00:00:00	2024-11-08T05:00:00	4	Temperatura máxima	16.7
77267	7	Sololá	704	Santa Lucía Utatlán 	7	Santa Rita 	2	Febrero	2023-02-18T00:00:00	2024-11-08T05:00:00	3	Temperatura mínima	15.8
77268	7	Sololá	704	Santa Lucía Utatlán 	7	Santa Rita 	2	Febrero	2023-02-18T00:00:00	2024-11-08T05:00:00	5	Humedad	68
77269	7	Sololá	704	Santa Lucía Utatlán 	7	Santa Rita 	2	Febrero	2023-02-18T00:00:00	2024-11-08T05:00:00	6	Velocidad del viento	1.6
77270	7	Sololá	704	Santa Lucía Utatlán 	7	Santa Rita 	2	Febrero	2023-02-18T00:00:00	2024-11-08T05:00:00	7	Dirección del viento	1.61
77271	7	Sololá	704	Santa Lucía Utatlán 	7	Santa Rita 	2	Febrero	2023-02-18T00:00:00	2024-11-08T05:00:00	1	Precipitación	0
77272	7	Sololá	704	Santa Lucía Utatlán 	7	Santa Rita 	2	Febrero	2023-02-18T00:00:00	2024-11-08T05:00:00	8	Radiación solar	0
77273	7	Sololá	704	Santa Lucía Utatlán 	7	Santa Rita 	2	Febrero	2023-02-18T00:00:00	2024-11-08T06:00:00	2	Temperatura media	15.5
77274	7	Sololá	704	Santa Lucía Utatlán 	7	Santa Rita 	2	Febrero	2023-02-18T00:00:00	2024-11-08T06:00:00	4	Temperatura máxima	15.9
77275	7	Sololá	704	Santa Lucía Utatlán 	7	Santa Rita 	2	Febrero	2023-02-18T00:00:00	2024-11-08T06:00:00	3	Temperatura mínima	15.5
77276	7	Sololá	704	Santa Lucía Utatlán 	7	Santa Rita 	2	Febrero	2023-02-18T00:00:00	2024-11-08T06:00:00	5	Humedad	68
77277	7	Sololá	704	Santa Lucía Utatlán 	7	Santa Rita 	2	Febrero	2023-02-18T00:00:00	2024-11-08T06:00:00	6	Velocidad del viento	1.6
77278	7	Sololá	704	Santa Lucía Utatlán 	7	Santa Rita 	2	Febrero	2023-02-18T00:00:00	2024-11-08T06:00:00	7	Dirección del viento	1.61
77279	7	Sololá	704	Santa Lucía Utatlán 	7	Santa Rita 	2	Febrero	2023-02-18T00:00:00	2024-11-08T06:00:00	1	Precipitación	0
77280	7	Sololá	704	Santa Lucía Utatlán 	7	Santa Rita 	2	Febrero	2023-02-18T00:00:00	2024-11-08T06:00:00	8	Radiación solar	0
77281	7	Sololá	704	Santa Lucía Utatlán 	7	Santa Rita 	2	Febrero	2023-02-18T00:00:00	2024-11-08T07:00:00	2	Temperatura media	15.7
77282	7	Sololá	704	Santa Lucía Utatlán 	7	Santa Rita 	2	Febrero	2023-02-18T00:00:00	2024-11-08T07:00:00	4	Temperatura máxima	15.8
77283	7	Sololá	704	Santa Lucía Utatlán 	7	Santa Rita 	2	Febrero	2023-02-18T00:00:00	2024-11-08T07:00:00	3	Temperatura mínima	14.6
77284	7	Sololá	704	Santa Lucía Utatlán 	7	Santa Rita 	2	Febrero	2023-02-18T00:00:00	2024-11-08T07:00:00	5	Humedad	61
77285	7	Sololá	704	Santa Lucía Utatlán 	7	Santa Rita 	2	Febrero	2023-02-18T00:00:00	2024-11-08T07:00:00	6	Velocidad del viento	0
77286	7	Sololá	704	Santa Lucía Utatlán 	7	Santa Rita 	2	Febrero	2023-02-18T00:00:00	2024-11-08T07:00:00	7	Dirección del viento	0
77287	7	Sololá	704	Santa Lucía Utatlán 	7	Santa Rita 	2	Febrero	2023-02-18T00:00:00	2024-11-08T07:00:00	1	Precipitación	0
77288	7	Sololá	704	Santa Lucía Utatlán 	7	Santa Rita 	2	Febrero	2023-02-18T00:00:00	2024-11-08T07:00:00	8	Radiación solar	3
77289	7	Sololá	704	Santa Lucía Utatlán 	7	Santa Rita 	2	Febrero	2023-02-18T00:00:00	2024-11-08T08:00:00	2	Temperatura media	19.6
77290	7	Sololá	704	Santa Lucía Utatlán 	7	Santa Rita 	2	Febrero	2023-02-18T00:00:00	2024-11-08T08:00:00	4	Temperatura máxima	19.6
77291	7	Sololá	704	Santa Lucía Utatlán 	7	Santa Rita 	2	Febrero	2023-02-18T00:00:00	2024-11-08T08:00:00	3	Temperatura mínima	15.7
77292	7	Sololá	704	Santa Lucía Utatlán 	7	Santa Rita 	2	Febrero	2023-02-18T00:00:00	2024-11-08T08:00:00	5	Humedad	53
77293	7	Sololá	704	Santa Lucía Utatlán 	7	Santa Rita 	2	Febrero	2023-02-18T00:00:00	2024-11-08T08:00:00	6	Velocidad del viento	1.6
77294	7	Sololá	704	Santa Lucía Utatlán 	7	Santa Rita 	2	Febrero	2023-02-18T00:00:00	2024-11-08T08:00:00	7	Dirección del viento	1.61
77295	7	Sololá	704	Santa Lucía Utatlán 	7	Santa Rita 	2	Febrero	2023-02-18T00:00:00	2024-11-08T08:00:00	1	Precipitación	0
77296	7	Sololá	704	Santa Lucía Utatlán 	7	Santa Rita 	2	Febrero	2023-02-18T00:00:00	2024-11-08T08:00:00	8	Radiación solar	123
77297	7	Sololá	704	Santa Lucía Utatlán 	7	Santa Rita 	2	Febrero	2023-02-18T00:00:00	2024-11-08T09:00:00	2	Temperatura media	22.4
77298	7	Sololá	704	Santa Lucía Utatlán 	7	Santa Rita 	2	Febrero	2023-02-18T00:00:00	2024-11-08T09:00:00	4	Temperatura máxima	22.4
77299	7	Sololá	704	Santa Lucía Utatlán 	7	Santa Rita 	2	Febrero	2023-02-18T00:00:00	2024-11-08T09:00:00	3	Temperatura mínima	19.6
77300	7	Sololá	704	Santa Lucía Utatlán 	7	Santa Rita 	2	Febrero	2023-02-18T00:00:00	2024-11-08T09:00:00	5	Humedad	53
77301	7	Sololá	704	Santa Lucía Utatlán 	7	Santa Rita 	2	Febrero	2023-02-18T00:00:00	2024-11-08T09:00:00	6	Velocidad del viento	1.6
77302	7	Sololá	704	Santa Lucía Utatlán 	7	Santa Rita 	2	Febrero	2023-02-18T00:00:00	2024-11-08T09:00:00	7	Dirección del viento	1.61
77303	7	Sololá	704	Santa Lucía Utatlán 	7	Santa Rita 	2	Febrero	2023-02-18T00:00:00	2024-11-08T09:00:00	1	Precipitación	0
77304	7	Sololá	704	Santa Lucía Utatlán 	7	Santa Rita 	2	Febrero	2023-02-18T00:00:00	2024-11-08T09:00:00	8	Radiación solar	104
77305	7	Sololá	704	Santa Lucía Utatlán 	7	Santa Rita 	2	Febrero	2023-02-18T00:00:00	2024-11-08T10:00:00	2	Temperatura media	21.7
77306	7	Sololá	704	Santa Lucía Utatlán 	7	Santa Rita 	2	Febrero	2023-02-18T00:00:00	2024-11-08T10:00:00	4	Temperatura máxima	22.8
77307	7	Sololá	704	Santa Lucía Utatlán 	7	Santa Rita 	2	Febrero	2023-02-18T00:00:00	2024-11-08T10:00:00	3	Temperatura mínima	21.5
77308	7	Sololá	704	Santa Lucía Utatlán 	7	Santa Rita 	2	Febrero	2023-02-18T00:00:00	2024-11-08T10:00:00	5	Humedad	56
77309	7	Sololá	704	Santa Lucía Utatlán 	7	Santa Rita 	2	Febrero	2023-02-18T00:00:00	2024-11-08T10:00:00	6	Velocidad del viento	3.2
77310	7	Sololá	704	Santa Lucía Utatlán 	7	Santa Rita 	2	Febrero	2023-02-18T00:00:00	2024-11-08T10:00:00	7	Dirección del viento	3.22
77311	7	Sololá	704	Santa Lucía Utatlán 	7	Santa Rita 	2	Febrero	2023-02-18T00:00:00	2024-11-08T10:00:00	1	Precipitación	0
77312	7	Sololá	704	Santa Lucía Utatlán 	7	Santa Rita 	2	Febrero	2023-02-18T00:00:00	2024-11-08T10:00:00	8	Radiación solar	105
77313	7	Sololá	704	Santa Lucía Utatlán 	7	Santa Rita 	2	Febrero	2023-02-18T00:00:00	2024-11-08T11:00:00	2	Temperatura media	23.6
77314	7	Sololá	704	Santa Lucía Utatlán 	7	Santa Rita 	2	Febrero	2023-02-18T00:00:00	2024-11-08T11:00:00	4	Temperatura máxima	24.4
77315	7	Sololá	704	Santa Lucía Utatlán 	7	Santa Rita 	2	Febrero	2023-02-18T00:00:00	2024-11-08T11:00:00	3	Temperatura mínima	21.7
77316	7	Sololá	704	Santa Lucía Utatlán 	7	Santa Rita 	2	Febrero	2023-02-18T00:00:00	2024-11-08T11:00:00	5	Humedad	53
77317	7	Sololá	704	Santa Lucía Utatlán 	7	Santa Rita 	2	Febrero	2023-02-18T00:00:00	2024-11-08T11:00:00	6	Velocidad del viento	3.2
77318	7	Sololá	704	Santa Lucía Utatlán 	7	Santa Rita 	2	Febrero	2023-02-18T00:00:00	2024-11-08T11:00:00	7	Dirección del viento	3.22
77319	7	Sololá	704	Santa Lucía Utatlán 	7	Santa Rita 	2	Febrero	2023-02-18T00:00:00	2024-11-08T11:00:00	1	Precipitación	0
77320	7	Sololá	704	Santa Lucía Utatlán 	7	Santa Rita 	2	Febrero	2023-02-18T00:00:00	2024-11-08T11:00:00	8	Radiación solar	111
77321	7	Sololá	704	Santa Lucía Utatlán 	7	Santa Rita 	2	Febrero	2023-02-18T00:00:00	2024-11-08T12:00:00	2	Temperatura media	24.2
77322	7	Sololá	704	Santa Lucía Utatlán 	7	Santa Rita 	2	Febrero	2023-02-18T00:00:00	2024-11-08T12:00:00	4	Temperatura máxima	24.4
77323	7	Sololá	704	Santa Lucía Utatlán 	7	Santa Rita 	2	Febrero	2023-02-18T00:00:00	2024-11-08T12:00:00	3	Temperatura mínima	23.3
77324	7	Sololá	704	Santa Lucía Utatlán 	7	Santa Rita 	2	Febrero	2023-02-18T00:00:00	2024-11-08T12:00:00	5	Humedad	52
77325	7	Sololá	704	Santa Lucía Utatlán 	7	Santa Rita 	2	Febrero	2023-02-18T00:00:00	2024-11-08T12:00:00	6	Velocidad del viento	3.2
77326	7	Sololá	704	Santa Lucía Utatlán 	7	Santa Rita 	2	Febrero	2023-02-18T00:00:00	2024-11-08T12:00:00	7	Dirección del viento	3.22
77327	7	Sololá	704	Santa Lucía Utatlán 	7	Santa Rita 	2	Febrero	2023-02-18T00:00:00	2024-11-08T12:00:00	1	Precipitación	0
77328	7	Sololá	704	Santa Lucía Utatlán 	7	Santa Rita 	2	Febrero	2023-02-18T00:00:00	2024-11-08T12:00:00	8	Radiación solar	108
77329	7	Sololá	704	Santa Lucía Utatlán 	7	Santa Rita 	2	Febrero	2023-02-18T00:00:00	2024-11-08T13:00:00	2	Temperatura media	25.5
77330	7	Sololá	704	Santa Lucía Utatlán 	7	Santa Rita 	2	Febrero	2023-02-18T00:00:00	2024-11-08T13:00:00	4	Temperatura máxima	25.8
77331	7	Sololá	704	Santa Lucía Utatlán 	7	Santa Rita 	2	Febrero	2023-02-18T00:00:00	2024-11-08T13:00:00	3	Temperatura mínima	23.9
77332	7	Sololá	704	Santa Lucía Utatlán 	7	Santa Rita 	2	Febrero	2023-02-18T00:00:00	2024-11-08T13:00:00	5	Humedad	48
77333	7	Sololá	704	Santa Lucía Utatlán 	7	Santa Rita 	2	Febrero	2023-02-18T00:00:00	2024-11-08T13:00:00	6	Velocidad del viento	3.2
77334	7	Sololá	704	Santa Lucía Utatlán 	7	Santa Rita 	2	Febrero	2023-02-18T00:00:00	2024-11-08T13:00:00	7	Dirección del viento	3.22
77335	7	Sololá	704	Santa Lucía Utatlán 	7	Santa Rita 	2	Febrero	2023-02-18T00:00:00	2024-11-08T13:00:00	1	Precipitación	0
77336	7	Sololá	704	Santa Lucía Utatlán 	7	Santa Rita 	2	Febrero	2023-02-18T00:00:00	2024-11-08T13:00:00	8	Radiación solar	122
77337	7	Sololá	704	Santa Lucía Utatlán 	7	Santa Rita 	2	Febrero	2023-02-18T00:00:00	2024-11-08T14:00:00	2	Temperatura media	23.6
77338	7	Sololá	704	Santa Lucía Utatlán 	7	Santa Rita 	2	Febrero	2023-02-18T00:00:00	2024-11-08T14:00:00	4	Temperatura máxima	25.4
77339	7	Sololá	704	Santa Lucía Utatlán 	7	Santa Rita 	2	Febrero	2023-02-18T00:00:00	2024-11-08T14:00:00	3	Temperatura mínima	22.3
77340	7	Sololá	704	Santa Lucía Utatlán 	7	Santa Rita 	2	Febrero	2023-02-18T00:00:00	2024-11-08T14:00:00	5	Humedad	55
77341	7	Sololá	704	Santa Lucía Utatlán 	7	Santa Rita 	2	Febrero	2023-02-18T00:00:00	2024-11-08T14:00:00	6	Velocidad del viento	4.8
77342	7	Sololá	704	Santa Lucía Utatlán 	7	Santa Rita 	2	Febrero	2023-02-18T00:00:00	2024-11-08T14:00:00	7	Dirección del viento	4.83
77343	7	Sololá	704	Santa Lucía Utatlán 	7	Santa Rita 	2	Febrero	2023-02-18T00:00:00	2024-11-08T14:00:00	1	Precipitación	0
77344	7	Sololá	704	Santa Lucía Utatlán 	7	Santa Rita 	2	Febrero	2023-02-18T00:00:00	2024-11-08T14:00:00	8	Radiación solar	132
77345	7	Sololá	704	Santa Lucía Utatlán 	7	Santa Rita 	2	Febrero	2023-02-18T00:00:00	2024-11-08T15:00:00	2	Temperatura media	23.1
77346	7	Sololá	704	Santa Lucía Utatlán 	7	Santa Rita 	2	Febrero	2023-02-18T00:00:00	2024-11-08T15:00:00	4	Temperatura máxima	23.5
77347	7	Sololá	704	Santa Lucía Utatlán 	7	Santa Rita 	2	Febrero	2023-02-18T00:00:00	2024-11-08T15:00:00	3	Temperatura mínima	21.9
77348	7	Sololá	704	Santa Lucía Utatlán 	7	Santa Rita 	2	Febrero	2023-02-18T00:00:00	2024-11-08T15:00:00	5	Humedad	57
77349	7	Sololá	704	Santa Lucía Utatlán 	7	Santa Rita 	2	Febrero	2023-02-18T00:00:00	2024-11-08T15:00:00	6	Velocidad del viento	4.8
77350	7	Sololá	704	Santa Lucía Utatlán 	7	Santa Rita 	2	Febrero	2023-02-18T00:00:00	2024-11-08T15:00:00	7	Dirección del viento	4.83
77351	7	Sololá	704	Santa Lucía Utatlán 	7	Santa Rita 	2	Febrero	2023-02-18T00:00:00	2024-11-08T15:00:00	1	Precipitación	0
77352	7	Sololá	704	Santa Lucía Utatlán 	7	Santa Rita 	2	Febrero	2023-02-18T00:00:00	2024-11-08T15:00:00	8	Radiación solar	142
77353	7	Sololá	704	Santa Lucía Utatlán 	7	Santa Rita 	2	Febrero	2023-02-18T00:00:00	2024-11-08T16:00:00	2	Temperatura media	22.8
77354	7	Sololá	704	Santa Lucía Utatlán 	7	Santa Rita 	2	Febrero	2023-02-18T00:00:00	2024-11-08T16:00:00	4	Temperatura máxima	23.4
77355	7	Sololá	704	Santa Lucía Utatlán 	7	Santa Rita 	2	Febrero	2023-02-18T00:00:00	2024-11-08T16:00:00	3	Temperatura mínima	22.1
77356	7	Sololá	704	Santa Lucía Utatlán 	7	Santa Rita 	2	Febrero	2023-02-18T00:00:00	2024-11-08T16:00:00	5	Humedad	54
77357	7	Sololá	704	Santa Lucía Utatlán 	7	Santa Rita 	2	Febrero	2023-02-18T00:00:00	2024-11-08T16:00:00	6	Velocidad del viento	6.4
77358	7	Sololá	704	Santa Lucía Utatlán 	7	Santa Rita 	2	Febrero	2023-02-18T00:00:00	2024-11-08T16:00:00	7	Dirección del viento	6.44
77359	7	Sololá	704	Santa Lucía Utatlán 	7	Santa Rita 	2	Febrero	2023-02-18T00:00:00	2024-11-08T16:00:00	1	Precipitación	0
77360	7	Sololá	704	Santa Lucía Utatlán 	7	Santa Rita 	2	Febrero	2023-02-18T00:00:00	2024-11-08T16:00:00	8	Radiación solar	107
77361	7	Sololá	704	Santa Lucía Utatlán 	7	Santa Rita 	2	Febrero	2023-02-18T00:00:00	2024-11-08T17:00:00	2	Temperatura media	19.6
77362	7	Sololá	704	Santa Lucía Utatlán 	7	Santa Rita 	2	Febrero	2023-02-18T00:00:00	2024-11-08T17:00:00	4	Temperatura máxima	23.4
77363	7	Sololá	704	Santa Lucía Utatlán 	7	Santa Rita 	2	Febrero	2023-02-18T00:00:00	2024-11-08T17:00:00	3	Temperatura mínima	19.2
77364	7	Sololá	704	Santa Lucía Utatlán 	7	Santa Rita 	2	Febrero	2023-02-18T00:00:00	2024-11-08T17:00:00	5	Humedad	67
77365	7	Sololá	704	Santa Lucía Utatlán 	7	Santa Rita 	2	Febrero	2023-02-18T00:00:00	2024-11-08T17:00:00	6	Velocidad del viento	3.2
77366	7	Sololá	704	Santa Lucía Utatlán 	7	Santa Rita 	2	Febrero	2023-02-18T00:00:00	2024-11-08T17:00:00	7	Dirección del viento	3.22
77367	7	Sololá	704	Santa Lucía Utatlán 	7	Santa Rita 	2	Febrero	2023-02-18T00:00:00	2024-11-08T17:00:00	1	Precipitación	0
77368	7	Sololá	704	Santa Lucía Utatlán 	7	Santa Rita 	2	Febrero	2023-02-18T00:00:00	2024-11-08T17:00:00	8	Radiación solar	64
77369	7	Sololá	704	Santa Lucía Utatlán 	7	Santa Rita 	2	Febrero	2023-02-18T00:00:00	2024-11-08T18:00:00	2	Temperatura media	17.4
77370	7	Sololá	704	Santa Lucía Utatlán 	7	Santa Rita 	2	Febrero	2023-02-18T00:00:00	2024-11-08T18:00:00	4	Temperatura máxima	19.8
77371	7	Sololá	704	Santa Lucía Utatlán 	7	Santa Rita 	2	Febrero	2023-02-18T00:00:00	2024-11-08T18:00:00	3	Temperatura mínima	17.4
77372	7	Sololá	704	Santa Lucía Utatlán 	7	Santa Rita 	2	Febrero	2023-02-18T00:00:00	2024-11-08T18:00:00	5	Humedad	67
77373	7	Sololá	704	Santa Lucía Utatlán 	7	Santa Rita 	2	Febrero	2023-02-18T00:00:00	2024-11-08T18:00:00	6	Velocidad del viento	1.6
77374	7	Sololá	704	Santa Lucía Utatlán 	7	Santa Rita 	2	Febrero	2023-02-18T00:00:00	2024-11-08T18:00:00	7	Dirección del viento	1.61
77375	7	Sololá	704	Santa Lucía Utatlán 	7	Santa Rita 	2	Febrero	2023-02-18T00:00:00	2024-11-08T18:00:00	1	Precipitación	0
77376	7	Sololá	704	Santa Lucía Utatlán 	7	Santa Rita 	2	Febrero	2023-02-18T00:00:00	2024-11-08T18:00:00	8	Radiación solar	16
77377	7	Sololá	704	Santa Lucía Utatlán 	7	Santa Rita 	2	Febrero	2023-02-18T00:00:00	2024-11-08T19:00:00	2	Temperatura media	17.6
77378	7	Sololá	704	Santa Lucía Utatlán 	7	Santa Rita 	2	Febrero	2023-02-18T00:00:00	2024-11-08T19:00:00	4	Temperatura máxima	17.9
77379	7	Sololá	704	Santa Lucía Utatlán 	7	Santa Rita 	2	Febrero	2023-02-18T00:00:00	2024-11-08T19:00:00	3	Temperatura mínima	17
77380	7	Sololá	704	Santa Lucía Utatlán 	7	Santa Rita 	2	Febrero	2023-02-18T00:00:00	2024-11-08T19:00:00	5	Humedad	58
77381	7	Sololá	704	Santa Lucía Utatlán 	7	Santa Rita 	2	Febrero	2023-02-18T00:00:00	2024-11-08T19:00:00	6	Velocidad del viento	3.2
77382	7	Sololá	704	Santa Lucía Utatlán 	7	Santa Rita 	2	Febrero	2023-02-18T00:00:00	2024-11-08T19:00:00	7	Dirección del viento	3.22
77383	7	Sololá	704	Santa Lucía Utatlán 	7	Santa Rita 	2	Febrero	2023-02-18T00:00:00	2024-11-08T19:00:00	1	Precipitación	0
77384	7	Sololá	704	Santa Lucía Utatlán 	7	Santa Rita 	2	Febrero	2023-02-18T00:00:00	2024-11-08T19:00:00	8	Radiación solar	0
77385	7	Sololá	704	Santa Lucía Utatlán 	7	Santa Rita 	2	Febrero	2023-02-18T00:00:00	2024-11-08T20:00:00	2	Temperatura media	17.3
77386	7	Sololá	704	Santa Lucía Utatlán 	7	Santa Rita 	2	Febrero	2023-02-18T00:00:00	2024-11-08T20:00:00	4	Temperatura máxima	17.7
77387	7	Sololá	704	Santa Lucía Utatlán 	7	Santa Rita 	2	Febrero	2023-02-18T00:00:00	2024-11-08T20:00:00	3	Temperatura mínima	17.1
77388	7	Sololá	704	Santa Lucía Utatlán 	7	Santa Rita 	2	Febrero	2023-02-18T00:00:00	2024-11-08T20:00:00	5	Humedad	64
77389	7	Sololá	704	Santa Lucía Utatlán 	7	Santa Rita 	2	Febrero	2023-02-18T00:00:00	2024-11-08T20:00:00	6	Velocidad del viento	4.8
77390	7	Sololá	704	Santa Lucía Utatlán 	7	Santa Rita 	2	Febrero	2023-02-18T00:00:00	2024-11-08T20:00:00	7	Dirección del viento	4.83
77391	7	Sololá	704	Santa Lucía Utatlán 	7	Santa Rita 	2	Febrero	2023-02-18T00:00:00	2024-11-08T20:00:00	1	Precipitación	0
77392	7	Sololá	704	Santa Lucía Utatlán 	7	Santa Rita 	2	Febrero	2023-02-18T00:00:00	2024-11-08T20:00:00	8	Radiación solar	0
77393	7	Sololá	704	Santa Lucía Utatlán 	7	Santa Rita 	2	Febrero	2023-02-18T00:00:00	2024-11-08T21:00:00	2	Temperatura media	17.7
77394	7	Sololá	704	Santa Lucía Utatlán 	7	Santa Rita 	2	Febrero	2023-02-18T00:00:00	2024-11-08T21:00:00	4	Temperatura máxima	17.9
77395	7	Sololá	704	Santa Lucía Utatlán 	7	Santa Rita 	2	Febrero	2023-02-18T00:00:00	2024-11-08T21:00:00	3	Temperatura mínima	17.1
77396	7	Sololá	704	Santa Lucía Utatlán 	7	Santa Rita 	2	Febrero	2023-02-18T00:00:00	2024-11-08T21:00:00	5	Humedad	67
77397	7	Sololá	704	Santa Lucía Utatlán 	7	Santa Rita 	2	Febrero	2023-02-18T00:00:00	2024-11-08T21:00:00	6	Velocidad del viento	6.4
77398	7	Sololá	704	Santa Lucía Utatlán 	7	Santa Rita 	2	Febrero	2023-02-18T00:00:00	2024-11-08T21:00:00	7	Dirección del viento	6.44
77399	7	Sololá	704	Santa Lucía Utatlán 	7	Santa Rita 	2	Febrero	2023-02-18T00:00:00	2024-11-08T21:00:00	1	Precipitación	0
77400	7	Sololá	704	Santa Lucía Utatlán 	7	Santa Rita 	2	Febrero	2023-02-18T00:00:00	2024-11-08T21:00:00	8	Radiación solar	0
77401	7	Sololá	704	Santa Lucía Utatlán 	7	Santa Rita 	2	Febrero	2023-02-18T00:00:00	2024-11-08T22:00:00	2	Temperatura media	16.9
77402	7	Sololá	704	Santa Lucía Utatlán 	7	Santa Rita 	2	Febrero	2023-02-18T00:00:00	2024-11-08T22:00:00	4	Temperatura máxima	17.7
77403	7	Sololá	704	Santa Lucía Utatlán 	7	Santa Rita 	2	Febrero	2023-02-18T00:00:00	2024-11-08T22:00:00	3	Temperatura mínima	16.9
77404	7	Sololá	704	Santa Lucía Utatlán 	7	Santa Rita 	2	Febrero	2023-02-18T00:00:00	2024-11-08T22:00:00	5	Humedad	74
77405	7	Sololá	704	Santa Lucía Utatlán 	7	Santa Rita 	2	Febrero	2023-02-18T00:00:00	2024-11-08T22:00:00	6	Velocidad del viento	1.6
77406	7	Sololá	704	Santa Lucía Utatlán 	7	Santa Rita 	2	Febrero	2023-02-18T00:00:00	2024-11-08T22:00:00	7	Dirección del viento	1.61
77407	7	Sololá	704	Santa Lucía Utatlán 	7	Santa Rita 	2	Febrero	2023-02-18T00:00:00	2024-11-08T22:00:00	1	Precipitación	0
77408	7	Sololá	704	Santa Lucía Utatlán 	7	Santa Rita 	2	Febrero	2023-02-18T00:00:00	2024-11-08T22:00:00	8	Radiación solar	0
77409	7	Sololá	704	Santa Lucía Utatlán 	7	Santa Rita 	2	Febrero	2023-02-18T00:00:00	2024-11-08T23:00:00	2	Temperatura media	16.2
77410	7	Sololá	704	Santa Lucía Utatlán 	7	Santa Rita 	2	Febrero	2023-02-18T00:00:00	2024-11-08T23:00:00	4	Temperatura máxima	16.9
77411	7	Sololá	704	Santa Lucía Utatlán 	7	Santa Rita 	2	Febrero	2023-02-18T00:00:00	2024-11-08T23:00:00	3	Temperatura mínima	16.1
77412	7	Sololá	704	Santa Lucía Utatlán 	7	Santa Rita 	2	Febrero	2023-02-18T00:00:00	2024-11-08T23:00:00	5	Humedad	81
77413	7	Sololá	704	Santa Lucía Utatlán 	7	Santa Rita 	2	Febrero	2023-02-18T00:00:00	2024-11-08T23:00:00	6	Velocidad del viento	3.2
77414	7	Sololá	704	Santa Lucía Utatlán 	7	Santa Rita 	2	Febrero	2023-02-18T00:00:00	2024-11-08T23:00:00	7	Dirección del viento	3.22
77415	7	Sololá	704	Santa Lucía Utatlán 	7	Santa Rita 	2	Febrero	2023-02-18T00:00:00	2024-11-08T23:00:00	1	Precipitación	0
77416	7	Sololá	704	Santa Lucía Utatlán 	7	Santa Rita 	2	Febrero	2023-02-18T00:00:00	2024-11-08T23:00:00	8	Radiación solar	0
77417	7	Sololá	704	Santa Lucía Utatlán 	7	Santa Rita 	2	Febrero	2023-02-19T00:00:00	2024-11-08T00:00:00	2	Temperatura media	16.2
77418	7	Sololá	704	Santa Lucía Utatlán 	7	Santa Rita 	2	Febrero	2023-02-19T00:00:00	2024-11-08T00:00:00	4	Temperatura máxima	16.2
77419	7	Sololá	704	Santa Lucía Utatlán 	7	Santa Rita 	2	Febrero	2023-02-19T00:00:00	2024-11-08T00:00:00	3	Temperatura mínima	15.8
77420	7	Sololá	704	Santa Lucía Utatlán 	7	Santa Rita 	2	Febrero	2023-02-19T00:00:00	2024-11-08T00:00:00	5	Humedad	79
77421	7	Sololá	704	Santa Lucía Utatlán 	7	Santa Rita 	2	Febrero	2023-02-19T00:00:00	2024-11-08T00:00:00	6	Velocidad del viento	4.8
77422	7	Sololá	704	Santa Lucía Utatlán 	7	Santa Rita 	2	Febrero	2023-02-19T00:00:00	2024-11-08T00:00:00	7	Dirección del viento	4.83
77423	7	Sololá	704	Santa Lucía Utatlán 	7	Santa Rita 	2	Febrero	2023-02-19T00:00:00	2024-11-08T00:00:00	1	Precipitación	0
77424	7	Sololá	704	Santa Lucía Utatlán 	7	Santa Rita 	2	Febrero	2023-02-19T00:00:00	2024-11-08T00:00:00	8	Radiación solar	0
77425	7	Sololá	704	Santa Lucía Utatlán 	7	Santa Rita 	2	Febrero	2023-02-19T00:00:00	2024-11-08T01:00:00	2	Temperatura media	16.5
77426	7	Sololá	704	Santa Lucía Utatlán 	7	Santa Rita 	2	Febrero	2023-02-19T00:00:00	2024-11-08T01:00:00	4	Temperatura máxima	17.2
77427	7	Sololá	704	Santa Lucía Utatlán 	7	Santa Rita 	2	Febrero	2023-02-19T00:00:00	2024-11-08T01:00:00	3	Temperatura mínima	16.2
77428	7	Sololá	704	Santa Lucía Utatlán 	7	Santa Rita 	2	Febrero	2023-02-19T00:00:00	2024-11-08T01:00:00	5	Humedad	78
77429	7	Sololá	704	Santa Lucía Utatlán 	7	Santa Rita 	2	Febrero	2023-02-19T00:00:00	2024-11-08T01:00:00	6	Velocidad del viento	3.2
77430	7	Sololá	704	Santa Lucía Utatlán 	7	Santa Rita 	2	Febrero	2023-02-19T00:00:00	2024-11-08T01:00:00	7	Dirección del viento	3.22
77431	7	Sololá	704	Santa Lucía Utatlán 	7	Santa Rita 	2	Febrero	2023-02-19T00:00:00	2024-11-08T01:00:00	1	Precipitación	0
77432	7	Sololá	704	Santa Lucía Utatlán 	7	Santa Rita 	2	Febrero	2023-02-19T00:00:00	2024-11-08T01:00:00	8	Radiación solar	0
77433	7	Sololá	704	Santa Lucía Utatlán 	7	Santa Rita 	2	Febrero	2023-02-19T00:00:00	2024-11-08T02:00:00	2	Temperatura media	16.3
77434	7	Sololá	704	Santa Lucía Utatlán 	7	Santa Rita 	2	Febrero	2023-02-19T00:00:00	2024-11-08T02:00:00	4	Temperatura máxima	16.6
77435	7	Sololá	704	Santa Lucía Utatlán 	7	Santa Rita 	2	Febrero	2023-02-19T00:00:00	2024-11-08T02:00:00	3	Temperatura mínima	16.3
77436	7	Sololá	704	Santa Lucía Utatlán 	7	Santa Rita 	2	Febrero	2023-02-19T00:00:00	2024-11-08T02:00:00	5	Humedad	79
77437	7	Sololá	704	Santa Lucía Utatlán 	7	Santa Rita 	2	Febrero	2023-02-19T00:00:00	2024-11-08T02:00:00	6	Velocidad del viento	6.4
77438	7	Sololá	704	Santa Lucía Utatlán 	7	Santa Rita 	2	Febrero	2023-02-19T00:00:00	2024-11-08T02:00:00	7	Dirección del viento	6.44
77439	7	Sololá	704	Santa Lucía Utatlán 	7	Santa Rita 	2	Febrero	2023-02-19T00:00:00	2024-11-08T02:00:00	1	Precipitación	0
77440	7	Sololá	704	Santa Lucía Utatlán 	7	Santa Rita 	2	Febrero	2023-02-19T00:00:00	2024-11-08T02:00:00	8	Radiación solar	0
77441	7	Sololá	704	Santa Lucía Utatlán 	7	Santa Rita 	2	Febrero	2023-02-19T00:00:00	2024-11-08T03:00:00	2	Temperatura media	15.8
77442	7	Sololá	704	Santa Lucía Utatlán 	7	Santa Rita 	2	Febrero	2023-02-19T00:00:00	2024-11-08T03:00:00	4	Temperatura máxima	16.3
77443	7	Sololá	704	Santa Lucía Utatlán 	7	Santa Rita 	2	Febrero	2023-02-19T00:00:00	2024-11-08T03:00:00	3	Temperatura mínima	15.8
77444	7	Sololá	704	Santa Lucía Utatlán 	7	Santa Rita 	2	Febrero	2023-02-19T00:00:00	2024-11-08T03:00:00	5	Humedad	82
77445	7	Sololá	704	Santa Lucía Utatlán 	7	Santa Rita 	2	Febrero	2023-02-19T00:00:00	2024-11-08T03:00:00	6	Velocidad del viento	4.8
77446	7	Sololá	704	Santa Lucía Utatlán 	7	Santa Rita 	2	Febrero	2023-02-19T00:00:00	2024-11-08T03:00:00	7	Dirección del viento	4.83
77447	7	Sololá	704	Santa Lucía Utatlán 	7	Santa Rita 	2	Febrero	2023-02-19T00:00:00	2024-11-08T03:00:00	1	Precipitación	0
77448	7	Sololá	704	Santa Lucía Utatlán 	7	Santa Rita 	2	Febrero	2023-02-19T00:00:00	2024-11-08T03:00:00	8	Radiación solar	0
77449	7	Sololá	704	Santa Lucía Utatlán 	7	Santa Rita 	2	Febrero	2023-02-19T00:00:00	2024-11-08T04:00:00	2	Temperatura media	15.8
77450	7	Sololá	704	Santa Lucía Utatlán 	7	Santa Rita 	2	Febrero	2023-02-19T00:00:00	2024-11-08T04:00:00	4	Temperatura máxima	16.1
77451	7	Sololá	704	Santa Lucía Utatlán 	7	Santa Rita 	2	Febrero	2023-02-19T00:00:00	2024-11-08T04:00:00	3	Temperatura mínima	15.8
77452	7	Sololá	704	Santa Lucía Utatlán 	7	Santa Rita 	2	Febrero	2023-02-19T00:00:00	2024-11-08T04:00:00	5	Humedad	81
77453	7	Sololá	704	Santa Lucía Utatlán 	7	Santa Rita 	2	Febrero	2023-02-19T00:00:00	2024-11-08T04:00:00	6	Velocidad del viento	3.2
77454	7	Sololá	704	Santa Lucía Utatlán 	7	Santa Rita 	2	Febrero	2023-02-19T00:00:00	2024-11-08T04:00:00	7	Dirección del viento	3.22
77455	7	Sololá	704	Santa Lucía Utatlán 	7	Santa Rita 	2	Febrero	2023-02-19T00:00:00	2024-11-08T04:00:00	1	Precipitación	0
77456	7	Sololá	704	Santa Lucía Utatlán 	7	Santa Rita 	2	Febrero	2023-02-19T00:00:00	2024-11-08T04:00:00	8	Radiación solar	0
77457	7	Sololá	704	Santa Lucía Utatlán 	7	Santa Rita 	2	Febrero	2023-02-19T00:00:00	2024-11-08T05:00:00	2	Temperatura media	15.6
77458	7	Sololá	704	Santa Lucía Utatlán 	7	Santa Rita 	2	Febrero	2023-02-19T00:00:00	2024-11-08T05:00:00	4	Temperatura máxima	15.8
77459	7	Sololá	704	Santa Lucía Utatlán 	7	Santa Rita 	2	Febrero	2023-02-19T00:00:00	2024-11-08T05:00:00	3	Temperatura mínima	15.4
77460	7	Sololá	704	Santa Lucía Utatlán 	7	Santa Rita 	2	Febrero	2023-02-19T00:00:00	2024-11-08T05:00:00	5	Humedad	82
77461	7	Sololá	704	Santa Lucía Utatlán 	7	Santa Rita 	2	Febrero	2023-02-19T00:00:00	2024-11-08T05:00:00	6	Velocidad del viento	4.8
77462	7	Sololá	704	Santa Lucía Utatlán 	7	Santa Rita 	2	Febrero	2023-02-19T00:00:00	2024-11-08T05:00:00	7	Dirección del viento	4.83
77463	7	Sololá	704	Santa Lucía Utatlán 	7	Santa Rita 	2	Febrero	2023-02-19T00:00:00	2024-11-08T05:00:00	1	Precipitación	0
77464	7	Sololá	704	Santa Lucía Utatlán 	7	Santa Rita 	2	Febrero	2023-02-19T00:00:00	2024-11-08T05:00:00	8	Radiación solar	0
77465	7	Sololá	704	Santa Lucía Utatlán 	7	Santa Rita 	2	Febrero	2023-02-19T00:00:00	2024-11-08T06:00:00	2	Temperatura media	16.2
77466	7	Sololá	704	Santa Lucía Utatlán 	7	Santa Rita 	2	Febrero	2023-02-19T00:00:00	2024-11-08T06:00:00	4	Temperatura máxima	16.2
77467	7	Sololá	704	Santa Lucía Utatlán 	7	Santa Rita 	2	Febrero	2023-02-19T00:00:00	2024-11-08T06:00:00	3	Temperatura mínima	15.6
77468	7	Sololá	704	Santa Lucía Utatlán 	7	Santa Rita 	2	Febrero	2023-02-19T00:00:00	2024-11-08T06:00:00	5	Humedad	77
77469	7	Sololá	704	Santa Lucía Utatlán 	7	Santa Rita 	2	Febrero	2023-02-19T00:00:00	2024-11-08T06:00:00	6	Velocidad del viento	4.8
77470	7	Sololá	704	Santa Lucía Utatlán 	7	Santa Rita 	2	Febrero	2023-02-19T00:00:00	2024-11-08T06:00:00	7	Dirección del viento	4.83
77471	7	Sololá	704	Santa Lucía Utatlán 	7	Santa Rita 	2	Febrero	2023-02-19T00:00:00	2024-11-08T06:00:00	1	Precipitación	0
77472	7	Sololá	704	Santa Lucía Utatlán 	7	Santa Rita 	2	Febrero	2023-02-19T00:00:00	2024-11-08T06:00:00	8	Radiación solar	0
77473	7	Sololá	704	Santa Lucía Utatlán 	7	Santa Rita 	2	Febrero	2023-02-19T00:00:00	2024-11-08T07:00:00	2	Temperatura media	16.4
77474	7	Sololá	704	Santa Lucía Utatlán 	7	Santa Rita 	2	Febrero	2023-02-19T00:00:00	2024-11-08T07:00:00	4	Temperatura máxima	16.6
77475	7	Sololá	704	Santa Lucía Utatlán 	7	Santa Rita 	2	Febrero	2023-02-19T00:00:00	2024-11-08T07:00:00	3	Temperatura mínima	16.2
77476	7	Sololá	704	Santa Lucía Utatlán 	7	Santa Rita 	2	Febrero	2023-02-19T00:00:00	2024-11-08T07:00:00	5	Humedad	72
77477	7	Sololá	704	Santa Lucía Utatlán 	7	Santa Rita 	2	Febrero	2023-02-19T00:00:00	2024-11-08T07:00:00	6	Velocidad del viento	4.8
77478	7	Sololá	704	Santa Lucía Utatlán 	7	Santa Rita 	2	Febrero	2023-02-19T00:00:00	2024-11-08T07:00:00	7	Dirección del viento	4.83
77479	7	Sololá	704	Santa Lucía Utatlán 	7	Santa Rita 	2	Febrero	2023-02-19T00:00:00	2024-11-08T07:00:00	1	Precipitación	0
77480	7	Sololá	704	Santa Lucía Utatlán 	7	Santa Rita 	2	Febrero	2023-02-19T00:00:00	2024-11-08T07:00:00	8	Radiación solar	3
77481	7	Sololá	704	Santa Lucía Utatlán 	7	Santa Rita 	2	Febrero	2023-02-19T00:00:00	2024-11-08T08:00:00	2	Temperatura media	19.6
77482	7	Sololá	704	Santa Lucía Utatlán 	7	Santa Rita 	2	Febrero	2023-02-19T00:00:00	2024-11-08T08:00:00	4	Temperatura máxima	19.6
77483	7	Sololá	704	Santa Lucía Utatlán 	7	Santa Rita 	2	Febrero	2023-02-19T00:00:00	2024-11-08T08:00:00	3	Temperatura mínima	16.4
77484	7	Sololá	704	Santa Lucía Utatlán 	7	Santa Rita 	2	Febrero	2023-02-19T00:00:00	2024-11-08T08:00:00	5	Humedad	55
77485	7	Sololá	704	Santa Lucía Utatlán 	7	Santa Rita 	2	Febrero	2023-02-19T00:00:00	2024-11-08T08:00:00	6	Velocidad del viento	6.4
77486	7	Sololá	704	Santa Lucía Utatlán 	7	Santa Rita 	2	Febrero	2023-02-19T00:00:00	2024-11-08T08:00:00	7	Dirección del viento	6.44
77487	7	Sololá	704	Santa Lucía Utatlán 	7	Santa Rita 	2	Febrero	2023-02-19T00:00:00	2024-11-08T08:00:00	1	Precipitación	0
77488	7	Sololá	704	Santa Lucía Utatlán 	7	Santa Rita 	2	Febrero	2023-02-19T00:00:00	2024-11-08T08:00:00	8	Radiación solar	114
77489	7	Sololá	704	Santa Lucía Utatlán 	7	Santa Rita 	2	Febrero	2023-02-19T00:00:00	2024-11-08T09:00:00	2	Temperatura media	20.3
77490	7	Sololá	704	Santa Lucía Utatlán 	7	Santa Rita 	2	Febrero	2023-02-19T00:00:00	2024-11-08T09:00:00	4	Temperatura máxima	21.1
77491	7	Sololá	704	Santa Lucía Utatlán 	7	Santa Rita 	2	Febrero	2023-02-19T00:00:00	2024-11-08T09:00:00	3	Temperatura mínima	19.4
77492	7	Sololá	704	Santa Lucía Utatlán 	7	Santa Rita 	2	Febrero	2023-02-19T00:00:00	2024-11-08T09:00:00	5	Humedad	59
77493	7	Sololá	704	Santa Lucía Utatlán 	7	Santa Rita 	2	Febrero	2023-02-19T00:00:00	2024-11-08T09:00:00	6	Velocidad del viento	6.4
77494	7	Sololá	704	Santa Lucía Utatlán 	7	Santa Rita 	2	Febrero	2023-02-19T00:00:00	2024-11-08T09:00:00	7	Dirección del viento	6.44
77495	7	Sololá	704	Santa Lucía Utatlán 	7	Santa Rita 	2	Febrero	2023-02-19T00:00:00	2024-11-08T09:00:00	1	Precipitación	0
77496	7	Sololá	704	Santa Lucía Utatlán 	7	Santa Rita 	2	Febrero	2023-02-19T00:00:00	2024-11-08T09:00:00	8	Radiación solar	106
77497	7	Sololá	704	Santa Lucía Utatlán 	7	Santa Rita 	2	Febrero	2023-02-19T00:00:00	2024-11-08T10:00:00	2	Temperatura media	22.8
77498	7	Sololá	704	Santa Lucía Utatlán 	7	Santa Rita 	2	Febrero	2023-02-19T00:00:00	2024-11-08T10:00:00	4	Temperatura máxima	22.8
77499	7	Sololá	704	Santa Lucía Utatlán 	7	Santa Rita 	2	Febrero	2023-02-19T00:00:00	2024-11-08T10:00:00	3	Temperatura mínima	20
77500	7	Sololá	704	Santa Lucía Utatlán 	7	Santa Rita 	2	Febrero	2023-02-19T00:00:00	2024-11-08T10:00:00	5	Humedad	58
77501	7	Sololá	704	Santa Lucía Utatlán 	7	Santa Rita 	2	Febrero	2023-02-19T00:00:00	2024-11-08T10:00:00	6	Velocidad del viento	4.8
77502	7	Sololá	704	Santa Lucía Utatlán 	7	Santa Rita 	2	Febrero	2023-02-19T00:00:00	2024-11-08T10:00:00	7	Dirección del viento	4.83
77503	7	Sololá	704	Santa Lucía Utatlán 	7	Santa Rita 	2	Febrero	2023-02-19T00:00:00	2024-11-08T10:00:00	1	Precipitación	0
77504	7	Sololá	704	Santa Lucía Utatlán 	7	Santa Rita 	2	Febrero	2023-02-19T00:00:00	2024-11-08T10:00:00	8	Radiación solar	107
77505	7	Sololá	704	Santa Lucía Utatlán 	7	Santa Rita 	2	Febrero	2023-02-19T00:00:00	2024-11-08T11:00:00	2	Temperatura media	21.6
77506	7	Sololá	704	Santa Lucía Utatlán 	7	Santa Rita 	2	Febrero	2023-02-19T00:00:00	2024-11-08T11:00:00	4	Temperatura máxima	22.8
77507	7	Sololá	704	Santa Lucía Utatlán 	7	Santa Rita 	2	Febrero	2023-02-19T00:00:00	2024-11-08T11:00:00	3	Temperatura mínima	19.4
77508	7	Sololá	704	Santa Lucía Utatlán 	7	Santa Rita 	2	Febrero	2023-02-19T00:00:00	2024-11-08T11:00:00	5	Humedad	61
77509	7	Sololá	704	Santa Lucía Utatlán 	7	Santa Rita 	2	Febrero	2023-02-19T00:00:00	2024-11-08T11:00:00	6	Velocidad del viento	4.8
77510	7	Sololá	704	Santa Lucía Utatlán 	7	Santa Rita 	2	Febrero	2023-02-19T00:00:00	2024-11-08T11:00:00	7	Dirección del viento	4.83
77511	7	Sololá	704	Santa Lucía Utatlán 	7	Santa Rita 	2	Febrero	2023-02-19T00:00:00	2024-11-08T11:00:00	1	Precipitación	0
77512	7	Sololá	704	Santa Lucía Utatlán 	7	Santa Rita 	2	Febrero	2023-02-19T00:00:00	2024-11-08T11:00:00	8	Radiación solar	115
77513	7	Sololá	704	Santa Lucía Utatlán 	7	Santa Rita 	2	Febrero	2023-02-19T00:00:00	2024-11-08T12:00:00	2	Temperatura media	20.4
77514	7	Sololá	704	Santa Lucía Utatlán 	7	Santa Rita 	2	Febrero	2023-02-19T00:00:00	2024-11-08T12:00:00	4	Temperatura máxima	22.1
77515	7	Sololá	704	Santa Lucía Utatlán 	7	Santa Rita 	2	Febrero	2023-02-19T00:00:00	2024-11-08T12:00:00	3	Temperatura mínima	20.4
77516	7	Sololá	704	Santa Lucía Utatlán 	7	Santa Rita 	2	Febrero	2023-02-19T00:00:00	2024-11-08T12:00:00	5	Humedad	64
77517	7	Sololá	704	Santa Lucía Utatlán 	7	Santa Rita 	2	Febrero	2023-02-19T00:00:00	2024-11-08T12:00:00	6	Velocidad del viento	8
77518	7	Sololá	704	Santa Lucía Utatlán 	7	Santa Rita 	2	Febrero	2023-02-19T00:00:00	2024-11-08T12:00:00	7	Dirección del viento	8.05
77519	7	Sololá	704	Santa Lucía Utatlán 	7	Santa Rita 	2	Febrero	2023-02-19T00:00:00	2024-11-08T12:00:00	1	Precipitación	0
77520	7	Sololá	704	Santa Lucía Utatlán 	7	Santa Rita 	2	Febrero	2023-02-19T00:00:00	2024-11-08T12:00:00	8	Radiación solar	143
77521	7	Sololá	704	Santa Lucía Utatlán 	7	Santa Rita 	2	Febrero	2023-02-19T00:00:00	2024-11-08T13:00:00	2	Temperatura media	20.9
77522	7	Sololá	704	Santa Lucía Utatlán 	7	Santa Rita 	2	Febrero	2023-02-19T00:00:00	2024-11-08T13:00:00	4	Temperatura máxima	21.7
77523	7	Sololá	704	Santa Lucía Utatlán 	7	Santa Rita 	2	Febrero	2023-02-19T00:00:00	2024-11-08T13:00:00	3	Temperatura mínima	19.7
77524	7	Sololá	704	Santa Lucía Utatlán 	7	Santa Rita 	2	Febrero	2023-02-19T00:00:00	2024-11-08T13:00:00	5	Humedad	65
77525	7	Sololá	704	Santa Lucía Utatlán 	7	Santa Rita 	2	Febrero	2023-02-19T00:00:00	2024-11-08T13:00:00	6	Velocidad del viento	4.8
77526	7	Sololá	704	Santa Lucía Utatlán 	7	Santa Rita 	2	Febrero	2023-02-19T00:00:00	2024-11-08T13:00:00	7	Dirección del viento	4.83
77527	7	Sololá	704	Santa Lucía Utatlán 	7	Santa Rita 	2	Febrero	2023-02-19T00:00:00	2024-11-08T13:00:00	1	Precipitación	0
77528	7	Sololá	704	Santa Lucía Utatlán 	7	Santa Rita 	2	Febrero	2023-02-19T00:00:00	2024-11-08T13:00:00	8	Radiación solar	162
77529	7	Sololá	704	Santa Lucía Utatlán 	7	Santa Rita 	2	Febrero	2023-02-19T00:00:00	2024-11-08T14:00:00	2	Temperatura media	21.9
77530	7	Sololá	704	Santa Lucía Utatlán 	7	Santa Rita 	2	Febrero	2023-02-19T00:00:00	2024-11-08T14:00:00	4	Temperatura máxima	21.9
77531	7	Sololá	704	Santa Lucía Utatlán 	7	Santa Rita 	2	Febrero	2023-02-19T00:00:00	2024-11-08T14:00:00	3	Temperatura mínima	20.3
77532	7	Sololá	704	Santa Lucía Utatlán 	7	Santa Rita 	2	Febrero	2023-02-19T00:00:00	2024-11-08T14:00:00	5	Humedad	61
77533	7	Sololá	704	Santa Lucía Utatlán 	7	Santa Rita 	2	Febrero	2023-02-19T00:00:00	2024-11-08T14:00:00	6	Velocidad del viento	3.2
77534	7	Sololá	704	Santa Lucía Utatlán 	7	Santa Rita 	2	Febrero	2023-02-19T00:00:00	2024-11-08T14:00:00	7	Dirección del viento	3.22
77535	7	Sololá	704	Santa Lucía Utatlán 	7	Santa Rita 	2	Febrero	2023-02-19T00:00:00	2024-11-08T14:00:00	1	Precipitación	0
77536	7	Sololá	704	Santa Lucía Utatlán 	7	Santa Rita 	2	Febrero	2023-02-19T00:00:00	2024-11-08T14:00:00	8	Radiación solar	88
77537	7	Sololá	704	Santa Lucía Utatlán 	7	Santa Rita 	2	Febrero	2023-02-19T00:00:00	2024-11-08T15:00:00	2	Temperatura media	24.2
77538	7	Sololá	704	Santa Lucía Utatlán 	7	Santa Rita 	2	Febrero	2023-02-19T00:00:00	2024-11-08T15:00:00	4	Temperatura máxima	24.4
77539	7	Sololá	704	Santa Lucía Utatlán 	7	Santa Rita 	2	Febrero	2023-02-19T00:00:00	2024-11-08T15:00:00	3	Temperatura mínima	21.9
77540	7	Sololá	704	Santa Lucía Utatlán 	7	Santa Rita 	2	Febrero	2023-02-19T00:00:00	2024-11-08T15:00:00	5	Humedad	52
77541	7	Sololá	704	Santa Lucía Utatlán 	7	Santa Rita 	2	Febrero	2023-02-19T00:00:00	2024-11-08T15:00:00	6	Velocidad del viento	3.2
77542	7	Sololá	704	Santa Lucía Utatlán 	7	Santa Rita 	2	Febrero	2023-02-19T00:00:00	2024-11-08T15:00:00	7	Dirección del viento	3.22
77543	7	Sololá	704	Santa Lucía Utatlán 	7	Santa Rita 	2	Febrero	2023-02-19T00:00:00	2024-11-08T15:00:00	1	Precipitación	0
77544	7	Sololá	704	Santa Lucía Utatlán 	7	Santa Rita 	2	Febrero	2023-02-19T00:00:00	2024-11-08T15:00:00	8	Radiación solar	86
77545	7	Sololá	704	Santa Lucía Utatlán 	7	Santa Rita 	2	Febrero	2023-02-19T00:00:00	2024-11-08T16:00:00	2	Temperatura media	23.6
77546	7	Sololá	704	Santa Lucía Utatlán 	7	Santa Rita 	2	Febrero	2023-02-19T00:00:00	2024-11-08T16:00:00	4	Temperatura máxima	25.3
77547	7	Sololá	704	Santa Lucía Utatlán 	7	Santa Rita 	2	Febrero	2023-02-19T00:00:00	2024-11-08T16:00:00	3	Temperatura mínima	23.2
77548	7	Sololá	704	Santa Lucía Utatlán 	7	Santa Rita 	2	Febrero	2023-02-19T00:00:00	2024-11-08T16:00:00	5	Humedad	50
77549	7	Sololá	704	Santa Lucía Utatlán 	7	Santa Rita 	2	Febrero	2023-02-19T00:00:00	2024-11-08T16:00:00	6	Velocidad del viento	4.8
77550	7	Sololá	704	Santa Lucía Utatlán 	7	Santa Rita 	2	Febrero	2023-02-19T00:00:00	2024-11-08T16:00:00	7	Dirección del viento	4.83
77551	7	Sololá	704	Santa Lucía Utatlán 	7	Santa Rita 	2	Febrero	2023-02-19T00:00:00	2024-11-08T16:00:00	1	Precipitación	0
77552	7	Sololá	704	Santa Lucía Utatlán 	7	Santa Rita 	2	Febrero	2023-02-19T00:00:00	2024-11-08T16:00:00	8	Radiación solar	78
77553	7	Sololá	704	Santa Lucía Utatlán 	7	Santa Rita 	2	Febrero	2023-02-19T00:00:00	2024-11-08T17:00:00	2	Temperatura media	21.8
77554	7	Sololá	704	Santa Lucía Utatlán 	7	Santa Rita 	2	Febrero	2023-02-19T00:00:00	2024-11-08T17:00:00	4	Temperatura máxima	24.1
77555	7	Sololá	704	Santa Lucía Utatlán 	7	Santa Rita 	2	Febrero	2023-02-19T00:00:00	2024-11-08T17:00:00	3	Temperatura mínima	21.8
77556	7	Sololá	704	Santa Lucía Utatlán 	7	Santa Rita 	2	Febrero	2023-02-19T00:00:00	2024-11-08T17:00:00	5	Humedad	54
77557	7	Sololá	704	Santa Lucía Utatlán 	7	Santa Rita 	2	Febrero	2023-02-19T00:00:00	2024-11-08T17:00:00	6	Velocidad del viento	3.2
77558	7	Sololá	704	Santa Lucía Utatlán 	7	Santa Rita 	2	Febrero	2023-02-19T00:00:00	2024-11-08T17:00:00	7	Dirección del viento	3.22
77559	7	Sololá	704	Santa Lucía Utatlán 	7	Santa Rita 	2	Febrero	2023-02-19T00:00:00	2024-11-08T17:00:00	1	Precipitación	0
77560	7	Sololá	704	Santa Lucía Utatlán 	7	Santa Rita 	2	Febrero	2023-02-19T00:00:00	2024-11-08T17:00:00	8	Radiación solar	51
77561	7	Sololá	704	Santa Lucía Utatlán 	7	Santa Rita 	2	Febrero	2023-02-19T00:00:00	2024-11-08T18:00:00	2	Temperatura media	18.7
77562	7	Sololá	704	Santa Lucía Utatlán 	7	Santa Rita 	2	Febrero	2023-02-19T00:00:00	2024-11-08T18:00:00	4	Temperatura máxima	21.7
77563	7	Sololá	704	Santa Lucía Utatlán 	7	Santa Rita 	2	Febrero	2023-02-19T00:00:00	2024-11-08T18:00:00	3	Temperatura mínima	18.6
77564	7	Sololá	704	Santa Lucía Utatlán 	7	Santa Rita 	2	Febrero	2023-02-19T00:00:00	2024-11-08T18:00:00	5	Humedad	66
77565	7	Sololá	704	Santa Lucía Utatlán 	7	Santa Rita 	2	Febrero	2023-02-19T00:00:00	2024-11-08T18:00:00	6	Velocidad del viento	3.2
77566	7	Sololá	704	Santa Lucía Utatlán 	7	Santa Rita 	2	Febrero	2023-02-19T00:00:00	2024-11-08T18:00:00	7	Dirección del viento	3.22
77567	7	Sololá	704	Santa Lucía Utatlán 	7	Santa Rita 	2	Febrero	2023-02-19T00:00:00	2024-11-08T18:00:00	1	Precipitación	0
77568	7	Sololá	704	Santa Lucía Utatlán 	7	Santa Rita 	2	Febrero	2023-02-19T00:00:00	2024-11-08T18:00:00	8	Radiación solar	14
77569	7	Sololá	704	Santa Lucía Utatlán 	7	Santa Rita 	2	Febrero	2023-02-19T00:00:00	2024-11-08T19:00:00	2	Temperatura media	18.4
77570	7	Sololá	704	Santa Lucía Utatlán 	7	Santa Rita 	2	Febrero	2023-02-19T00:00:00	2024-11-08T19:00:00	4	Temperatura máxima	18.7
77571	7	Sololá	704	Santa Lucía Utatlán 	7	Santa Rita 	2	Febrero	2023-02-19T00:00:00	2024-11-08T19:00:00	3	Temperatura mínima	18.2
77572	7	Sololá	704	Santa Lucía Utatlán 	7	Santa Rita 	2	Febrero	2023-02-19T00:00:00	2024-11-08T19:00:00	5	Humedad	60
77573	7	Sololá	704	Santa Lucía Utatlán 	7	Santa Rita 	2	Febrero	2023-02-19T00:00:00	2024-11-08T19:00:00	6	Velocidad del viento	3.2
77574	7	Sololá	704	Santa Lucía Utatlán 	7	Santa Rita 	2	Febrero	2023-02-19T00:00:00	2024-11-08T19:00:00	7	Dirección del viento	3.22
77575	7	Sololá	704	Santa Lucía Utatlán 	7	Santa Rita 	2	Febrero	2023-02-19T00:00:00	2024-11-08T19:00:00	1	Precipitación	0
77576	7	Sololá	704	Santa Lucía Utatlán 	7	Santa Rita 	2	Febrero	2023-02-19T00:00:00	2024-11-08T19:00:00	8	Radiación solar	0
77577	7	Sololá	704	Santa Lucía Utatlán 	7	Santa Rita 	2	Febrero	2023-02-19T00:00:00	2024-11-08T20:00:00	2	Temperatura media	18.2
77578	7	Sololá	704	Santa Lucía Utatlán 	7	Santa Rita 	2	Febrero	2023-02-19T00:00:00	2024-11-08T20:00:00	4	Temperatura máxima	18.8
77579	7	Sololá	704	Santa Lucía Utatlán 	7	Santa Rita 	2	Febrero	2023-02-19T00:00:00	2024-11-08T20:00:00	3	Temperatura mínima	18.2
77580	7	Sololá	704	Santa Lucía Utatlán 	7	Santa Rita 	2	Febrero	2023-02-19T00:00:00	2024-11-08T20:00:00	5	Humedad	55
77581	7	Sololá	704	Santa Lucía Utatlán 	7	Santa Rita 	2	Febrero	2023-02-19T00:00:00	2024-11-08T20:00:00	6	Velocidad del viento	4.8
77582	7	Sololá	704	Santa Lucía Utatlán 	7	Santa Rita 	2	Febrero	2023-02-19T00:00:00	2024-11-08T20:00:00	7	Dirección del viento	4.83
77583	7	Sololá	704	Santa Lucía Utatlán 	7	Santa Rita 	2	Febrero	2023-02-19T00:00:00	2024-11-08T20:00:00	1	Precipitación	0
77584	7	Sololá	704	Santa Lucía Utatlán 	7	Santa Rita 	2	Febrero	2023-02-19T00:00:00	2024-11-08T20:00:00	8	Radiación solar	0
77585	7	Sololá	704	Santa Lucía Utatlán 	7	Santa Rita 	2	Febrero	2023-02-19T00:00:00	2024-11-08T21:00:00	2	Temperatura media	16.3
77586	7	Sololá	704	Santa Lucía Utatlán 	7	Santa Rita 	2	Febrero	2023-02-19T00:00:00	2024-11-08T21:00:00	4	Temperatura máxima	18.2
77587	7	Sololá	704	Santa Lucía Utatlán 	7	Santa Rita 	2	Febrero	2023-02-19T00:00:00	2024-11-08T21:00:00	3	Temperatura mínima	16.3
77588	7	Sololá	704	Santa Lucía Utatlán 	7	Santa Rita 	2	Febrero	2023-02-19T00:00:00	2024-11-08T21:00:00	5	Humedad	65
77589	7	Sololá	704	Santa Lucía Utatlán 	7	Santa Rita 	2	Febrero	2023-02-19T00:00:00	2024-11-08T21:00:00	6	Velocidad del viento	0
77590	7	Sololá	704	Santa Lucía Utatlán 	7	Santa Rita 	2	Febrero	2023-02-19T00:00:00	2024-11-08T21:00:00	7	Dirección del viento	0
77591	7	Sololá	704	Santa Lucía Utatlán 	7	Santa Rita 	2	Febrero	2023-02-19T00:00:00	2024-11-08T21:00:00	1	Precipitación	0
77592	7	Sololá	704	Santa Lucía Utatlán 	7	Santa Rita 	2	Febrero	2023-02-19T00:00:00	2024-11-08T21:00:00	8	Radiación solar	0
77593	7	Sololá	704	Santa Lucía Utatlán 	7	Santa Rita 	2	Febrero	2023-02-19T00:00:00	2024-11-08T22:00:00	2	Temperatura media	17.4
77594	7	Sololá	704	Santa Lucía Utatlán 	7	Santa Rita 	2	Febrero	2023-02-19T00:00:00	2024-11-08T22:00:00	4	Temperatura máxima	17.8
77595	7	Sololá	704	Santa Lucía Utatlán 	7	Santa Rita 	2	Febrero	2023-02-19T00:00:00	2024-11-08T22:00:00	3	Temperatura mínima	16.3
77596	7	Sololá	704	Santa Lucía Utatlán 	7	Santa Rita 	2	Febrero	2023-02-19T00:00:00	2024-11-08T22:00:00	5	Humedad	57
77597	7	Sololá	704	Santa Lucía Utatlán 	7	Santa Rita 	2	Febrero	2023-02-19T00:00:00	2024-11-08T22:00:00	6	Velocidad del viento	3.2
77598	7	Sololá	704	Santa Lucía Utatlán 	7	Santa Rita 	2	Febrero	2023-02-19T00:00:00	2024-11-08T22:00:00	7	Dirección del viento	3.22
77599	7	Sololá	704	Santa Lucía Utatlán 	7	Santa Rita 	2	Febrero	2023-02-19T00:00:00	2024-11-08T22:00:00	1	Precipitación	0
77600	7	Sololá	704	Santa Lucía Utatlán 	7	Santa Rita 	2	Febrero	2023-02-19T00:00:00	2024-11-08T22:00:00	8	Radiación solar	0
77601	7	Sololá	704	Santa Lucía Utatlán 	7	Santa Rita 	2	Febrero	2023-02-19T00:00:00	2024-11-08T23:00:00	2	Temperatura media	18.4
77602	7	Sololá	704	Santa Lucía Utatlán 	7	Santa Rita 	2	Febrero	2023-02-19T00:00:00	2024-11-08T23:00:00	4	Temperatura máxima	18.5
77603	7	Sololá	704	Santa Lucía Utatlán 	7	Santa Rita 	2	Febrero	2023-02-19T00:00:00	2024-11-08T23:00:00	3	Temperatura mínima	17.4
77604	7	Sololá	704	Santa Lucía Utatlán 	7	Santa Rita 	2	Febrero	2023-02-19T00:00:00	2024-11-08T23:00:00	5	Humedad	42
77605	7	Sololá	704	Santa Lucía Utatlán 	7	Santa Rita 	2	Febrero	2023-02-19T00:00:00	2024-11-08T23:00:00	6	Velocidad del viento	3.2
77606	7	Sololá	704	Santa Lucía Utatlán 	7	Santa Rita 	2	Febrero	2023-02-19T00:00:00	2024-11-08T23:00:00	7	Dirección del viento	3.22
77607	7	Sololá	704	Santa Lucía Utatlán 	7	Santa Rita 	2	Febrero	2023-02-19T00:00:00	2024-11-08T23:00:00	1	Precipitación	0
77608	7	Sololá	704	Santa Lucía Utatlán 	7	Santa Rita 	2	Febrero	2023-02-19T00:00:00	2024-11-08T23:00:00	8	Radiación solar	0
77609	7	Sololá	704	Santa Lucía Utatlán 	7	Santa Rita 	2	Febrero	2023-02-20T00:00:00	2024-11-08T00:00:00	2	Temperatura media	18.2
77610	7	Sololá	704	Santa Lucía Utatlán 	7	Santa Rita 	2	Febrero	2023-02-20T00:00:00	2024-11-08T00:00:00	4	Temperatura máxima	18.4
77611	7	Sololá	704	Santa Lucía Utatlán 	7	Santa Rita 	2	Febrero	2023-02-20T00:00:00	2024-11-08T00:00:00	3	Temperatura mínima	16.8
77612	7	Sololá	704	Santa Lucía Utatlán 	7	Santa Rita 	2	Febrero	2023-02-20T00:00:00	2024-11-08T00:00:00	5	Humedad	41
77613	7	Sololá	704	Santa Lucía Utatlán 	7	Santa Rita 	2	Febrero	2023-02-20T00:00:00	2024-11-08T00:00:00	6	Velocidad del viento	1.6
77614	7	Sololá	704	Santa Lucía Utatlán 	7	Santa Rita 	2	Febrero	2023-02-20T00:00:00	2024-11-08T00:00:00	7	Dirección del viento	1.61
77615	7	Sololá	704	Santa Lucía Utatlán 	7	Santa Rita 	2	Febrero	2023-02-20T00:00:00	2024-11-08T00:00:00	1	Precipitación	0
77616	7	Sololá	704	Santa Lucía Utatlán 	7	Santa Rita 	2	Febrero	2023-02-20T00:00:00	2024-11-08T00:00:00	8	Radiación solar	0
77617	7	Sololá	704	Santa Lucía Utatlán 	7	Santa Rita 	2	Febrero	2023-02-20T00:00:00	2024-11-08T01:00:00	2	Temperatura media	17.9
77618	7	Sololá	704	Santa Lucía Utatlán 	7	Santa Rita 	2	Febrero	2023-02-20T00:00:00	2024-11-08T01:00:00	4	Temperatura máxima	18.4
77619	7	Sololá	704	Santa Lucía Utatlán 	7	Santa Rita 	2	Febrero	2023-02-20T00:00:00	2024-11-08T01:00:00	3	Temperatura mínima	17.6
77620	7	Sololá	704	Santa Lucía Utatlán 	7	Santa Rita 	2	Febrero	2023-02-20T00:00:00	2024-11-08T01:00:00	5	Humedad	45
77621	7	Sololá	704	Santa Lucía Utatlán 	7	Santa Rita 	2	Febrero	2023-02-20T00:00:00	2024-11-08T01:00:00	6	Velocidad del viento	4.8
77622	7	Sololá	704	Santa Lucía Utatlán 	7	Santa Rita 	2	Febrero	2023-02-20T00:00:00	2024-11-08T01:00:00	7	Dirección del viento	4.83
77623	7	Sololá	704	Santa Lucía Utatlán 	7	Santa Rita 	2	Febrero	2023-02-20T00:00:00	2024-11-08T01:00:00	1	Precipitación	0
77624	7	Sololá	704	Santa Lucía Utatlán 	7	Santa Rita 	2	Febrero	2023-02-20T00:00:00	2024-11-08T01:00:00	8	Radiación solar	0
77625	7	Sololá	704	Santa Lucía Utatlán 	7	Santa Rita 	2	Febrero	2023-02-20T00:00:00	2024-11-08T02:00:00	2	Temperatura media	15.9
77626	7	Sololá	704	Santa Lucía Utatlán 	7	Santa Rita 	2	Febrero	2023-02-20T00:00:00	2024-11-08T02:00:00	4	Temperatura máxima	18
77627	7	Sololá	704	Santa Lucía Utatlán 	7	Santa Rita 	2	Febrero	2023-02-20T00:00:00	2024-11-08T02:00:00	3	Temperatura mínima	15.9
77628	7	Sololá	704	Santa Lucía Utatlán 	7	Santa Rita 	2	Febrero	2023-02-20T00:00:00	2024-11-08T02:00:00	5	Humedad	54
77629	7	Sololá	704	Santa Lucía Utatlán 	7	Santa Rita 	2	Febrero	2023-02-20T00:00:00	2024-11-08T02:00:00	6	Velocidad del viento	1.6
77630	7	Sololá	704	Santa Lucía Utatlán 	7	Santa Rita 	2	Febrero	2023-02-20T00:00:00	2024-11-08T02:00:00	7	Dirección del viento	1.61
77631	7	Sololá	704	Santa Lucía Utatlán 	7	Santa Rita 	2	Febrero	2023-02-20T00:00:00	2024-11-08T02:00:00	1	Precipitación	0
77632	7	Sololá	704	Santa Lucía Utatlán 	7	Santa Rita 	2	Febrero	2023-02-20T00:00:00	2024-11-08T02:00:00	8	Radiación solar	0
77633	7	Sololá	704	Santa Lucía Utatlán 	7	Santa Rita 	2	Febrero	2023-02-20T00:00:00	2024-11-08T03:00:00	2	Temperatura media	15.2
77634	7	Sololá	704	Santa Lucía Utatlán 	7	Santa Rita 	2	Febrero	2023-02-20T00:00:00	2024-11-08T03:00:00	4	Temperatura máxima	15.9
77635	7	Sololá	704	Santa Lucía Utatlán 	7	Santa Rita 	2	Febrero	2023-02-20T00:00:00	2024-11-08T03:00:00	3	Temperatura mínima	14.6
77636	7	Sololá	704	Santa Lucía Utatlán 	7	Santa Rita 	2	Febrero	2023-02-20T00:00:00	2024-11-08T03:00:00	5	Humedad	55
77637	7	Sololá	704	Santa Lucía Utatlán 	7	Santa Rita 	2	Febrero	2023-02-20T00:00:00	2024-11-08T03:00:00	6	Velocidad del viento	1.6
77638	7	Sololá	704	Santa Lucía Utatlán 	7	Santa Rita 	2	Febrero	2023-02-20T00:00:00	2024-11-08T03:00:00	7	Dirección del viento	1.61
77639	7	Sololá	704	Santa Lucía Utatlán 	7	Santa Rita 	2	Febrero	2023-02-20T00:00:00	2024-11-08T03:00:00	1	Precipitación	0
77640	7	Sololá	704	Santa Lucía Utatlán 	7	Santa Rita 	2	Febrero	2023-02-20T00:00:00	2024-11-08T03:00:00	8	Radiación solar	0
77641	7	Sololá	704	Santa Lucía Utatlán 	7	Santa Rita 	2	Febrero	2023-02-20T00:00:00	2024-11-08T04:00:00	2	Temperatura media	14.1
77642	7	Sololá	704	Santa Lucía Utatlán 	7	Santa Rita 	2	Febrero	2023-02-20T00:00:00	2024-11-08T04:00:00	4	Temperatura máxima	15.6
77643	7	Sololá	704	Santa Lucía Utatlán 	7	Santa Rita 	2	Febrero	2023-02-20T00:00:00	2024-11-08T04:00:00	3	Temperatura mínima	14
77644	7	Sololá	704	Santa Lucía Utatlán 	7	Santa Rita 	2	Febrero	2023-02-20T00:00:00	2024-11-08T04:00:00	5	Humedad	60
77645	7	Sololá	704	Santa Lucía Utatlán 	7	Santa Rita 	2	Febrero	2023-02-20T00:00:00	2024-11-08T04:00:00	6	Velocidad del viento	1.6
77646	7	Sololá	704	Santa Lucía Utatlán 	7	Santa Rita 	2	Febrero	2023-02-20T00:00:00	2024-11-08T04:00:00	7	Dirección del viento	1.61
77647	7	Sololá	704	Santa Lucía Utatlán 	7	Santa Rita 	2	Febrero	2023-02-20T00:00:00	2024-11-08T04:00:00	1	Precipitación	0
77648	7	Sololá	704	Santa Lucía Utatlán 	7	Santa Rita 	2	Febrero	2023-02-20T00:00:00	2024-11-08T04:00:00	8	Radiación solar	0
77649	7	Sololá	704	Santa Lucía Utatlán 	7	Santa Rita 	2	Febrero	2023-02-20T00:00:00	2024-11-08T05:00:00	2	Temperatura media	13.3
77650	7	Sololá	704	Santa Lucía Utatlán 	7	Santa Rita 	2	Febrero	2023-02-20T00:00:00	2024-11-08T05:00:00	4	Temperatura máxima	14.3
77651	7	Sololá	704	Santa Lucía Utatlán 	7	Santa Rita 	2	Febrero	2023-02-20T00:00:00	2024-11-08T05:00:00	3	Temperatura mínima	13.3
77652	7	Sololá	704	Santa Lucía Utatlán 	7	Santa Rita 	2	Febrero	2023-02-20T00:00:00	2024-11-08T05:00:00	5	Humedad	64
77653	7	Sololá	704	Santa Lucía Utatlán 	7	Santa Rita 	2	Febrero	2023-02-20T00:00:00	2024-11-08T05:00:00	6	Velocidad del viento	1.6
77654	7	Sololá	704	Santa Lucía Utatlán 	7	Santa Rita 	2	Febrero	2023-02-20T00:00:00	2024-11-08T05:00:00	7	Dirección del viento	1.61
77655	7	Sololá	704	Santa Lucía Utatlán 	7	Santa Rita 	2	Febrero	2023-02-20T00:00:00	2024-11-08T05:00:00	1	Precipitación	0
77656	7	Sololá	704	Santa Lucía Utatlán 	7	Santa Rita 	2	Febrero	2023-02-20T00:00:00	2024-11-08T05:00:00	8	Radiación solar	0
77657	7	Sololá	704	Santa Lucía Utatlán 	7	Santa Rita 	2	Febrero	2023-02-20T00:00:00	2024-11-08T06:00:00	2	Temperatura media	14.3
77658	7	Sololá	704	Santa Lucía Utatlán 	7	Santa Rita 	2	Febrero	2023-02-20T00:00:00	2024-11-08T06:00:00	4	Temperatura máxima	14.4
77659	7	Sololá	704	Santa Lucía Utatlán 	7	Santa Rita 	2	Febrero	2023-02-20T00:00:00	2024-11-08T06:00:00	3	Temperatura mínima	13.3
77660	7	Sololá	704	Santa Lucía Utatlán 	7	Santa Rita 	2	Febrero	2023-02-20T00:00:00	2024-11-08T06:00:00	5	Humedad	61
77661	7	Sololá	704	Santa Lucía Utatlán 	7	Santa Rita 	2	Febrero	2023-02-20T00:00:00	2024-11-08T06:00:00	6	Velocidad del viento	0
77662	7	Sololá	704	Santa Lucía Utatlán 	7	Santa Rita 	2	Febrero	2023-02-20T00:00:00	2024-11-08T06:00:00	7	Dirección del viento	0
77663	7	Sololá	704	Santa Lucía Utatlán 	7	Santa Rita 	2	Febrero	2023-02-20T00:00:00	2024-11-08T06:00:00	1	Precipitación	0
77664	7	Sololá	704	Santa Lucía Utatlán 	7	Santa Rita 	2	Febrero	2023-02-20T00:00:00	2024-11-08T06:00:00	8	Radiación solar	0
77665	7	Sololá	704	Santa Lucía Utatlán 	7	Santa Rita 	2	Febrero	2023-02-20T00:00:00	2024-11-08T07:00:00	2	Temperatura media	12.8
77666	7	Sololá	704	Santa Lucía Utatlán 	7	Santa Rita 	2	Febrero	2023-02-20T00:00:00	2024-11-08T07:00:00	4	Temperatura máxima	14.6
77667	7	Sololá	704	Santa Lucía Utatlán 	7	Santa Rita 	2	Febrero	2023-02-20T00:00:00	2024-11-08T07:00:00	3	Temperatura mínima	12.8
77668	7	Sololá	704	Santa Lucía Utatlán 	7	Santa Rita 	2	Febrero	2023-02-20T00:00:00	2024-11-08T07:00:00	5	Humedad	66
77669	7	Sololá	704	Santa Lucía Utatlán 	7	Santa Rita 	2	Febrero	2023-02-20T00:00:00	2024-11-08T07:00:00	6	Velocidad del viento	0
77670	7	Sololá	704	Santa Lucía Utatlán 	7	Santa Rita 	2	Febrero	2023-02-20T00:00:00	2024-11-08T07:00:00	7	Dirección del viento	0
77671	7	Sololá	704	Santa Lucía Utatlán 	7	Santa Rita 	2	Febrero	2023-02-20T00:00:00	2024-11-08T07:00:00	1	Precipitación	0
77672	7	Sololá	704	Santa Lucía Utatlán 	7	Santa Rita 	2	Febrero	2023-02-20T00:00:00	2024-11-08T07:00:00	8	Radiación solar	3
77673	7	Sololá	704	Santa Lucía Utatlán 	7	Santa Rita 	2	Febrero	2023-02-20T00:00:00	2024-11-08T08:00:00	2	Temperatura media	20
77674	7	Sololá	704	Santa Lucía Utatlán 	7	Santa Rita 	2	Febrero	2023-02-20T00:00:00	2024-11-08T08:00:00	4	Temperatura máxima	20
77675	7	Sololá	704	Santa Lucía Utatlán 	7	Santa Rita 	2	Febrero	2023-02-20T00:00:00	2024-11-08T08:00:00	3	Temperatura mínima	12.8
77676	7	Sololá	704	Santa Lucía Utatlán 	7	Santa Rita 	2	Febrero	2023-02-20T00:00:00	2024-11-08T08:00:00	5	Humedad	39
77677	7	Sololá	704	Santa Lucía Utatlán 	7	Santa Rita 	2	Febrero	2023-02-20T00:00:00	2024-11-08T08:00:00	6	Velocidad del viento	1.6
77678	7	Sololá	704	Santa Lucía Utatlán 	7	Santa Rita 	2	Febrero	2023-02-20T00:00:00	2024-11-08T08:00:00	7	Dirección del viento	1.61
77679	7	Sololá	704	Santa Lucía Utatlán 	7	Santa Rita 	2	Febrero	2023-02-20T00:00:00	2024-11-08T08:00:00	1	Precipitación	0
77680	7	Sololá	704	Santa Lucía Utatlán 	7	Santa Rita 	2	Febrero	2023-02-20T00:00:00	2024-11-08T08:00:00	8	Radiación solar	129
77681	7	Sololá	704	Santa Lucía Utatlán 	7	Santa Rita 	2	Febrero	2023-02-20T00:00:00	2024-11-08T09:00:00	2	Temperatura media	22.2
77682	7	Sololá	704	Santa Lucía Utatlán 	7	Santa Rita 	2	Febrero	2023-02-20T00:00:00	2024-11-08T09:00:00	4	Temperatura máxima	22.2
77683	7	Sololá	704	Santa Lucía Utatlán 	7	Santa Rita 	2	Febrero	2023-02-20T00:00:00	2024-11-08T09:00:00	3	Temperatura mínima	20
77684	7	Sololá	704	Santa Lucía Utatlán 	7	Santa Rita 	2	Febrero	2023-02-20T00:00:00	2024-11-08T09:00:00	5	Humedad	30
77685	7	Sololá	704	Santa Lucía Utatlán 	7	Santa Rita 	2	Febrero	2023-02-20T00:00:00	2024-11-08T09:00:00	6	Velocidad del viento	4.8
77686	7	Sololá	704	Santa Lucía Utatlán 	7	Santa Rita 	2	Febrero	2023-02-20T00:00:00	2024-11-08T09:00:00	7	Dirección del viento	4.83
77687	7	Sololá	704	Santa Lucía Utatlán 	7	Santa Rita 	2	Febrero	2023-02-20T00:00:00	2024-11-08T09:00:00	1	Precipitación	0
77688	7	Sololá	704	Santa Lucía Utatlán 	7	Santa Rita 	2	Febrero	2023-02-20T00:00:00	2024-11-08T09:00:00	8	Radiación solar	110
77689	7	Sololá	704	Santa Lucía Utatlán 	7	Santa Rita 	2	Febrero	2023-02-20T00:00:00	2024-11-08T10:00:00	2	Temperatura media	23.2
77690	7	Sololá	704	Santa Lucía Utatlán 	7	Santa Rita 	2	Febrero	2023-02-20T00:00:00	2024-11-08T10:00:00	4	Temperatura máxima	23.2
77691	7	Sololá	704	Santa Lucía Utatlán 	7	Santa Rita 	2	Febrero	2023-02-20T00:00:00	2024-11-08T10:00:00	3	Temperatura mínima	22.2
77692	7	Sololá	704	Santa Lucía Utatlán 	7	Santa Rita 	2	Febrero	2023-02-20T00:00:00	2024-11-08T10:00:00	5	Humedad	33
77693	7	Sololá	704	Santa Lucía Utatlán 	7	Santa Rita 	2	Febrero	2023-02-20T00:00:00	2024-11-08T10:00:00	6	Velocidad del viento	4.8
77694	7	Sololá	704	Santa Lucía Utatlán 	7	Santa Rita 	2	Febrero	2023-02-20T00:00:00	2024-11-08T10:00:00	7	Dirección del viento	4.83
77695	7	Sololá	704	Santa Lucía Utatlán 	7	Santa Rita 	2	Febrero	2023-02-20T00:00:00	2024-11-08T10:00:00	1	Precipitación	0
77696	7	Sololá	704	Santa Lucía Utatlán 	7	Santa Rita 	2	Febrero	2023-02-20T00:00:00	2024-11-08T10:00:00	8	Radiación solar	108
77697	7	Sololá	704	Santa Lucía Utatlán 	7	Santa Rita 	2	Febrero	2023-02-20T00:00:00	2024-11-08T11:00:00	2	Temperatura media	24.6
77698	7	Sololá	704	Santa Lucía Utatlán 	7	Santa Rita 	2	Febrero	2023-02-20T00:00:00	2024-11-08T11:00:00	4	Temperatura máxima	24.6
77699	7	Sololá	704	Santa Lucía Utatlán 	7	Santa Rita 	2	Febrero	2023-02-20T00:00:00	2024-11-08T11:00:00	3	Temperatura mínima	22.8
77700	7	Sololá	704	Santa Lucía Utatlán 	7	Santa Rita 	2	Febrero	2023-02-20T00:00:00	2024-11-08T11:00:00	5	Humedad	35
77701	7	Sololá	704	Santa Lucía Utatlán 	7	Santa Rita 	2	Febrero	2023-02-20T00:00:00	2024-11-08T11:00:00	6	Velocidad del viento	4.8
77702	7	Sololá	704	Santa Lucía Utatlán 	7	Santa Rita 	2	Febrero	2023-02-20T00:00:00	2024-11-08T11:00:00	7	Dirección del viento	4.83
77703	7	Sololá	704	Santa Lucía Utatlán 	7	Santa Rita 	2	Febrero	2023-02-20T00:00:00	2024-11-08T11:00:00	1	Precipitación	0
77704	7	Sololá	704	Santa Lucía Utatlán 	7	Santa Rita 	2	Febrero	2023-02-20T00:00:00	2024-11-08T11:00:00	8	Radiación solar	111
77705	7	Sololá	704	Santa Lucía Utatlán 	7	Santa Rita 	2	Febrero	2023-02-20T00:00:00	2024-11-08T12:00:00	2	Temperatura media	25.4
77706	7	Sololá	704	Santa Lucía Utatlán 	7	Santa Rita 	2	Febrero	2023-02-20T00:00:00	2024-11-08T12:00:00	4	Temperatura máxima	25.6
77707	7	Sololá	704	Santa Lucía Utatlán 	7	Santa Rita 	2	Febrero	2023-02-20T00:00:00	2024-11-08T12:00:00	3	Temperatura mínima	24.5
77708	7	Sololá	704	Santa Lucía Utatlán 	7	Santa Rita 	2	Febrero	2023-02-20T00:00:00	2024-11-08T12:00:00	5	Humedad	33
77709	7	Sololá	704	Santa Lucía Utatlán 	7	Santa Rita 	2	Febrero	2023-02-20T00:00:00	2024-11-08T12:00:00	6	Velocidad del viento	4.8
77710	7	Sololá	704	Santa Lucía Utatlán 	7	Santa Rita 	2	Febrero	2023-02-20T00:00:00	2024-11-08T12:00:00	7	Dirección del viento	4.83
77711	7	Sololá	704	Santa Lucía Utatlán 	7	Santa Rita 	2	Febrero	2023-02-20T00:00:00	2024-11-08T12:00:00	1	Precipitación	0
77712	7	Sololá	704	Santa Lucía Utatlán 	7	Santa Rita 	2	Febrero	2023-02-20T00:00:00	2024-11-08T12:00:00	8	Radiación solar	116
77713	7	Sololá	704	Santa Lucía Utatlán 	7	Santa Rita 	2	Febrero	2023-02-20T00:00:00	2024-11-08T13:00:00	2	Temperatura media	26.2
77714	7	Sololá	704	Santa Lucía Utatlán 	7	Santa Rita 	2	Febrero	2023-02-20T00:00:00	2024-11-08T13:00:00	4	Temperatura máxima	26.4
77715	7	Sololá	704	Santa Lucía Utatlán 	7	Santa Rita 	2	Febrero	2023-02-20T00:00:00	2024-11-08T13:00:00	3	Temperatura mínima	24.9
77716	7	Sololá	704	Santa Lucía Utatlán 	7	Santa Rita 	2	Febrero	2023-02-20T00:00:00	2024-11-08T13:00:00	5	Humedad	31
77717	7	Sololá	704	Santa Lucía Utatlán 	7	Santa Rita 	2	Febrero	2023-02-20T00:00:00	2024-11-08T13:00:00	6	Velocidad del viento	4.8
77718	7	Sololá	704	Santa Lucía Utatlán 	7	Santa Rita 	2	Febrero	2023-02-20T00:00:00	2024-11-08T13:00:00	7	Dirección del viento	4.83
77719	7	Sololá	704	Santa Lucía Utatlán 	7	Santa Rita 	2	Febrero	2023-02-20T00:00:00	2024-11-08T13:00:00	1	Precipitación	0
77720	7	Sololá	704	Santa Lucía Utatlán 	7	Santa Rita 	2	Febrero	2023-02-20T00:00:00	2024-11-08T13:00:00	8	Radiación solar	117
77721	7	Sololá	704	Santa Lucía Utatlán 	7	Santa Rita 	2	Febrero	2023-02-20T00:00:00	2024-11-08T14:00:00	2	Temperatura media	25.6
77722	7	Sololá	704	Santa Lucía Utatlán 	7	Santa Rita 	2	Febrero	2023-02-20T00:00:00	2024-11-08T14:00:00	4	Temperatura máxima	26.4
77723	7	Sololá	704	Santa Lucía Utatlán 	7	Santa Rita 	2	Febrero	2023-02-20T00:00:00	2024-11-08T14:00:00	3	Temperatura mínima	24.4
77724	7	Sololá	704	Santa Lucía Utatlán 	7	Santa Rita 	2	Febrero	2023-02-20T00:00:00	2024-11-08T14:00:00	5	Humedad	37
77725	7	Sololá	704	Santa Lucía Utatlán 	7	Santa Rita 	2	Febrero	2023-02-20T00:00:00	2024-11-08T14:00:00	6	Velocidad del viento	4.8
77726	7	Sololá	704	Santa Lucía Utatlán 	7	Santa Rita 	2	Febrero	2023-02-20T00:00:00	2024-11-08T14:00:00	7	Dirección del viento	4.83
77727	7	Sololá	704	Santa Lucía Utatlán 	7	Santa Rita 	2	Febrero	2023-02-20T00:00:00	2024-11-08T14:00:00	1	Precipitación	0
77728	7	Sololá	704	Santa Lucía Utatlán 	7	Santa Rita 	2	Febrero	2023-02-20T00:00:00	2024-11-08T14:00:00	8	Radiación solar	106
77729	7	Sololá	704	Santa Lucía Utatlán 	7	Santa Rita 	2	Febrero	2023-02-20T00:00:00	2024-11-08T15:00:00	2	Temperatura media	26.1
77730	7	Sololá	704	Santa Lucía Utatlán 	7	Santa Rita 	2	Febrero	2023-02-20T00:00:00	2024-11-08T15:00:00	4	Temperatura máxima	26.4
77731	7	Sololá	704	Santa Lucía Utatlán 	7	Santa Rita 	2	Febrero	2023-02-20T00:00:00	2024-11-08T15:00:00	3	Temperatura mínima	25.2
77732	7	Sololá	704	Santa Lucía Utatlán 	7	Santa Rita 	2	Febrero	2023-02-20T00:00:00	2024-11-08T15:00:00	5	Humedad	34
77733	7	Sololá	704	Santa Lucía Utatlán 	7	Santa Rita 	2	Febrero	2023-02-20T00:00:00	2024-11-08T15:00:00	6	Velocidad del viento	3.2
77734	7	Sololá	704	Santa Lucía Utatlán 	7	Santa Rita 	2	Febrero	2023-02-20T00:00:00	2024-11-08T15:00:00	7	Dirección del viento	3.22
77735	7	Sololá	704	Santa Lucía Utatlán 	7	Santa Rita 	2	Febrero	2023-02-20T00:00:00	2024-11-08T15:00:00	1	Precipitación	0
77736	7	Sololá	704	Santa Lucía Utatlán 	7	Santa Rita 	2	Febrero	2023-02-20T00:00:00	2024-11-08T15:00:00	8	Radiación solar	94
77737	7	Sololá	704	Santa Lucía Utatlán 	7	Santa Rita 	2	Febrero	2023-02-20T00:00:00	2024-11-08T16:00:00	2	Temperatura media	24.2
77738	7	Sololá	704	Santa Lucía Utatlán 	7	Santa Rita 	2	Febrero	2023-02-20T00:00:00	2024-11-08T16:00:00	4	Temperatura máxima	26.1
77739	7	Sololá	704	Santa Lucía Utatlán 	7	Santa Rita 	2	Febrero	2023-02-20T00:00:00	2024-11-08T16:00:00	3	Temperatura mínima	24
77740	7	Sololá	704	Santa Lucía Utatlán 	7	Santa Rita 	2	Febrero	2023-02-20T00:00:00	2024-11-08T16:00:00	5	Humedad	37
77741	7	Sololá	704	Santa Lucía Utatlán 	7	Santa Rita 	2	Febrero	2023-02-20T00:00:00	2024-11-08T16:00:00	6	Velocidad del viento	3.2
77742	7	Sololá	704	Santa Lucía Utatlán 	7	Santa Rita 	2	Febrero	2023-02-20T00:00:00	2024-11-08T16:00:00	7	Dirección del viento	3.22
77743	7	Sololá	704	Santa Lucía Utatlán 	7	Santa Rita 	2	Febrero	2023-02-20T00:00:00	2024-11-08T16:00:00	1	Precipitación	0
77744	7	Sololá	704	Santa Lucía Utatlán 	7	Santa Rita 	2	Febrero	2023-02-20T00:00:00	2024-11-08T16:00:00	8	Radiación solar	76
77745	7	Sololá	704	Santa Lucía Utatlán 	7	Santa Rita 	2	Febrero	2023-02-20T00:00:00	2024-11-08T17:00:00	2	Temperatura media	23.5
77746	7	Sololá	704	Santa Lucía Utatlán 	7	Santa Rita 	2	Febrero	2023-02-20T00:00:00	2024-11-08T17:00:00	4	Temperatura máxima	24.3
77747	7	Sololá	704	Santa Lucía Utatlán 	7	Santa Rita 	2	Febrero	2023-02-20T00:00:00	2024-11-08T17:00:00	3	Temperatura mínima	23.5
77748	7	Sololá	704	Santa Lucía Utatlán 	7	Santa Rita 	2	Febrero	2023-02-20T00:00:00	2024-11-08T17:00:00	5	Humedad	40
77749	7	Sololá	704	Santa Lucía Utatlán 	7	Santa Rita 	2	Febrero	2023-02-20T00:00:00	2024-11-08T17:00:00	6	Velocidad del viento	3.2
77750	7	Sololá	704	Santa Lucía Utatlán 	7	Santa Rita 	2	Febrero	2023-02-20T00:00:00	2024-11-08T17:00:00	7	Dirección del viento	3.22
77751	7	Sololá	704	Santa Lucía Utatlán 	7	Santa Rita 	2	Febrero	2023-02-20T00:00:00	2024-11-08T17:00:00	1	Precipitación	0
77752	7	Sololá	704	Santa Lucía Utatlán 	7	Santa Rita 	2	Febrero	2023-02-20T00:00:00	2024-11-08T17:00:00	8	Radiación solar	51
77753	7	Sololá	704	Santa Lucía Utatlán 	7	Santa Rita 	2	Febrero	2023-02-20T00:00:00	2024-11-08T18:00:00	2	Temperatura media	19.2
77754	7	Sololá	704	Santa Lucía Utatlán 	7	Santa Rita 	2	Febrero	2023-02-20T00:00:00	2024-11-08T18:00:00	4	Temperatura máxima	23.6
77755	7	Sololá	704	Santa Lucía Utatlán 	7	Santa Rita 	2	Febrero	2023-02-20T00:00:00	2024-11-08T18:00:00	3	Temperatura mínima	19.2
77756	7	Sololá	704	Santa Lucía Utatlán 	7	Santa Rita 	2	Febrero	2023-02-20T00:00:00	2024-11-08T18:00:00	5	Humedad	55
77757	7	Sololá	704	Santa Lucía Utatlán 	7	Santa Rita 	2	Febrero	2023-02-20T00:00:00	2024-11-08T18:00:00	6	Velocidad del viento	1.6
77758	7	Sololá	704	Santa Lucía Utatlán 	7	Santa Rita 	2	Febrero	2023-02-20T00:00:00	2024-11-08T18:00:00	7	Dirección del viento	1.61
77759	7	Sololá	704	Santa Lucía Utatlán 	7	Santa Rita 	2	Febrero	2023-02-20T00:00:00	2024-11-08T18:00:00	1	Precipitación	0
77760	7	Sololá	704	Santa Lucía Utatlán 	7	Santa Rita 	2	Febrero	2023-02-20T00:00:00	2024-11-08T18:00:00	8	Radiación solar	13
77761	7	Sololá	704	Santa Lucía Utatlán 	7	Santa Rita 	2	Febrero	2023-02-20T00:00:00	2024-11-08T19:00:00	2	Temperatura media	17.9
77762	7	Sololá	704	Santa Lucía Utatlán 	7	Santa Rita 	2	Febrero	2023-02-20T00:00:00	2024-11-08T19:00:00	4	Temperatura máxima	19.2
77763	7	Sololá	704	Santa Lucía Utatlán 	7	Santa Rita 	2	Febrero	2023-02-20T00:00:00	2024-11-08T19:00:00	3	Temperatura mínima	17.9
77764	7	Sololá	704	Santa Lucía Utatlán 	7	Santa Rita 	2	Febrero	2023-02-20T00:00:00	2024-11-08T19:00:00	5	Humedad	61
77765	7	Sololá	704	Santa Lucía Utatlán 	7	Santa Rita 	2	Febrero	2023-02-20T00:00:00	2024-11-08T19:00:00	6	Velocidad del viento	1.6
77766	7	Sololá	704	Santa Lucía Utatlán 	7	Santa Rita 	2	Febrero	2023-02-20T00:00:00	2024-11-08T19:00:00	7	Dirección del viento	1.61
77767	7	Sololá	704	Santa Lucía Utatlán 	7	Santa Rita 	2	Febrero	2023-02-20T00:00:00	2024-11-08T19:00:00	1	Precipitación	0
77768	7	Sololá	704	Santa Lucía Utatlán 	7	Santa Rita 	2	Febrero	2023-02-20T00:00:00	2024-11-08T19:00:00	8	Radiación solar	0
77769	7	Sololá	704	Santa Lucía Utatlán 	7	Santa Rita 	2	Febrero	2023-02-20T00:00:00	2024-11-08T20:00:00	2	Temperatura media	15.7
77770	7	Sololá	704	Santa Lucía Utatlán 	7	Santa Rita 	2	Febrero	2023-02-20T00:00:00	2024-11-08T20:00:00	4	Temperatura máxima	17.9
77771	7	Sololá	704	Santa Lucía Utatlán 	7	Santa Rita 	2	Febrero	2023-02-20T00:00:00	2024-11-08T20:00:00	3	Temperatura mínima	15.7
77772	7	Sololá	704	Santa Lucía Utatlán 	7	Santa Rita 	2	Febrero	2023-02-20T00:00:00	2024-11-08T20:00:00	5	Humedad	59
77773	7	Sololá	704	Santa Lucía Utatlán 	7	Santa Rita 	2	Febrero	2023-02-20T00:00:00	2024-11-08T20:00:00	6	Velocidad del viento	0
77774	7	Sololá	704	Santa Lucía Utatlán 	7	Santa Rita 	2	Febrero	2023-02-20T00:00:00	2024-11-08T20:00:00	7	Dirección del viento	0
77775	7	Sololá	704	Santa Lucía Utatlán 	7	Santa Rita 	2	Febrero	2023-02-20T00:00:00	2024-11-08T20:00:00	1	Precipitación	0
77776	7	Sololá	704	Santa Lucía Utatlán 	7	Santa Rita 	2	Febrero	2023-02-20T00:00:00	2024-11-08T20:00:00	8	Radiación solar	0
77777	7	Sololá	704	Santa Lucía Utatlán 	7	Santa Rita 	2	Febrero	2023-02-20T00:00:00	2024-11-08T21:00:00	2	Temperatura media	14.1
77778	7	Sololá	704	Santa Lucía Utatlán 	7	Santa Rita 	2	Febrero	2023-02-20T00:00:00	2024-11-08T21:00:00	4	Temperatura máxima	15.7
77779	7	Sololá	704	Santa Lucía Utatlán 	7	Santa Rita 	2	Febrero	2023-02-20T00:00:00	2024-11-08T21:00:00	3	Temperatura mínima	14.1
77780	7	Sololá	704	Santa Lucía Utatlán 	7	Santa Rita 	2	Febrero	2023-02-20T00:00:00	2024-11-08T21:00:00	5	Humedad	68
77781	7	Sololá	704	Santa Lucía Utatlán 	7	Santa Rita 	2	Febrero	2023-02-20T00:00:00	2024-11-08T21:00:00	6	Velocidad del viento	0
77782	7	Sololá	704	Santa Lucía Utatlán 	7	Santa Rita 	2	Febrero	2023-02-20T00:00:00	2024-11-08T21:00:00	7	Dirección del viento	0
77783	7	Sololá	704	Santa Lucía Utatlán 	7	Santa Rita 	2	Febrero	2023-02-20T00:00:00	2024-11-08T21:00:00	1	Precipitación	0
77784	7	Sololá	704	Santa Lucía Utatlán 	7	Santa Rita 	2	Febrero	2023-02-20T00:00:00	2024-11-08T21:00:00	8	Radiación solar	0
77785	7	Sololá	704	Santa Lucía Utatlán 	7	Santa Rita 	2	Febrero	2023-02-20T00:00:00	2024-11-08T22:00:00	2	Temperatura media	13.8
77786	7	Sololá	704	Santa Lucía Utatlán 	7	Santa Rita 	2	Febrero	2023-02-20T00:00:00	2024-11-08T22:00:00	4	Temperatura máxima	14.3
77787	7	Sololá	704	Santa Lucía Utatlán 	7	Santa Rita 	2	Febrero	2023-02-20T00:00:00	2024-11-08T22:00:00	3	Temperatura mínima	13.8
77788	7	Sololá	704	Santa Lucía Utatlán 	7	Santa Rita 	2	Febrero	2023-02-20T00:00:00	2024-11-08T22:00:00	5	Humedad	66
77789	7	Sololá	704	Santa Lucía Utatlán 	7	Santa Rita 	2	Febrero	2023-02-20T00:00:00	2024-11-08T22:00:00	6	Velocidad del viento	0
77790	7	Sololá	704	Santa Lucía Utatlán 	7	Santa Rita 	2	Febrero	2023-02-20T00:00:00	2024-11-08T22:00:00	7	Dirección del viento	0
77791	7	Sololá	704	Santa Lucía Utatlán 	7	Santa Rita 	2	Febrero	2023-02-20T00:00:00	2024-11-08T22:00:00	1	Precipitación	0
77792	7	Sololá	704	Santa Lucía Utatlán 	7	Santa Rita 	2	Febrero	2023-02-20T00:00:00	2024-11-08T22:00:00	8	Radiación solar	0
77793	7	Sololá	704	Santa Lucía Utatlán 	7	Santa Rita 	2	Febrero	2023-02-20T00:00:00	2024-11-08T23:00:00	2	Temperatura media	14
77794	7	Sololá	704	Santa Lucía Utatlán 	7	Santa Rita 	2	Febrero	2023-02-20T00:00:00	2024-11-08T23:00:00	4	Temperatura máxima	14
77795	7	Sololá	704	Santa Lucía Utatlán 	7	Santa Rita 	2	Febrero	2023-02-20T00:00:00	2024-11-08T23:00:00	3	Temperatura mínima	13.4
77796	7	Sololá	704	Santa Lucía Utatlán 	7	Santa Rita 	2	Febrero	2023-02-20T00:00:00	2024-11-08T23:00:00	5	Humedad	67
77797	7	Sololá	704	Santa Lucía Utatlán 	7	Santa Rita 	2	Febrero	2023-02-20T00:00:00	2024-11-08T23:00:00	6	Velocidad del viento	0
77798	7	Sololá	704	Santa Lucía Utatlán 	7	Santa Rita 	2	Febrero	2023-02-20T00:00:00	2024-11-08T23:00:00	7	Dirección del viento	0
77799	7	Sololá	704	Santa Lucía Utatlán 	7	Santa Rita 	2	Febrero	2023-02-20T00:00:00	2024-11-08T23:00:00	1	Precipitación	0
77800	7	Sololá	704	Santa Lucía Utatlán 	7	Santa Rita 	2	Febrero	2023-02-20T00:00:00	2024-11-08T23:00:00	8	Radiación solar	0
77801	7	Sololá	704	Santa Lucía Utatlán 	7	Santa Rita 	2	Febrero	2023-02-21T00:00:00	2024-11-08T00:00:00	2	Temperatura media	14.9
77802	7	Sololá	704	Santa Lucía Utatlán 	7	Santa Rita 	2	Febrero	2023-02-21T00:00:00	2024-11-08T00:00:00	4	Temperatura máxima	14.9
77803	7	Sololá	704	Santa Lucía Utatlán 	7	Santa Rita 	2	Febrero	2023-02-21T00:00:00	2024-11-08T00:00:00	3	Temperatura mínima	13.8
77804	7	Sololá	704	Santa Lucía Utatlán 	7	Santa Rita 	2	Febrero	2023-02-21T00:00:00	2024-11-08T00:00:00	5	Humedad	68
77805	7	Sololá	704	Santa Lucía Utatlán 	7	Santa Rita 	2	Febrero	2023-02-21T00:00:00	2024-11-08T00:00:00	6	Velocidad del viento	0
77806	7	Sololá	704	Santa Lucía Utatlán 	7	Santa Rita 	2	Febrero	2023-02-21T00:00:00	2024-11-08T00:00:00	7	Dirección del viento	0
77807	7	Sololá	704	Santa Lucía Utatlán 	7	Santa Rita 	2	Febrero	2023-02-21T00:00:00	2024-11-08T00:00:00	1	Precipitación	0
77808	7	Sololá	704	Santa Lucía Utatlán 	7	Santa Rita 	2	Febrero	2023-02-21T00:00:00	2024-11-08T00:00:00	8	Radiación solar	0
77809	7	Sololá	704	Santa Lucía Utatlán 	7	Santa Rita 	2	Febrero	2023-02-21T00:00:00	2024-11-08T01:00:00	2	Temperatura media	15.1
77810	7	Sololá	704	Santa Lucía Utatlán 	7	Santa Rita 	2	Febrero	2023-02-21T00:00:00	2024-11-08T01:00:00	4	Temperatura máxima	15.3
77811	7	Sololá	704	Santa Lucía Utatlán 	7	Santa Rita 	2	Febrero	2023-02-21T00:00:00	2024-11-08T01:00:00	3	Temperatura mínima	14.8
77812	7	Sololá	704	Santa Lucía Utatlán 	7	Santa Rita 	2	Febrero	2023-02-21T00:00:00	2024-11-08T01:00:00	5	Humedad	70
77813	7	Sololá	704	Santa Lucía Utatlán 	7	Santa Rita 	2	Febrero	2023-02-21T00:00:00	2024-11-08T01:00:00	6	Velocidad del viento	0
77814	7	Sololá	704	Santa Lucía Utatlán 	7	Santa Rita 	2	Febrero	2023-02-21T00:00:00	2024-11-08T01:00:00	7	Dirección del viento	0
77815	7	Sololá	704	Santa Lucía Utatlán 	7	Santa Rita 	2	Febrero	2023-02-21T00:00:00	2024-11-08T01:00:00	1	Precipitación	0
77816	7	Sololá	704	Santa Lucía Utatlán 	7	Santa Rita 	2	Febrero	2023-02-21T00:00:00	2024-11-08T01:00:00	8	Radiación solar	0
77817	7	Sololá	704	Santa Lucía Utatlán 	7	Santa Rita 	2	Febrero	2023-02-21T00:00:00	2024-11-08T02:00:00	2	Temperatura media	15.1
77818	7	Sololá	704	Santa Lucía Utatlán 	7	Santa Rita 	2	Febrero	2023-02-21T00:00:00	2024-11-08T02:00:00	4	Temperatura máxima	15.1
77819	7	Sololá	704	Santa Lucía Utatlán 	7	Santa Rita 	2	Febrero	2023-02-21T00:00:00	2024-11-08T02:00:00	3	Temperatura mínima	14.9
77820	7	Sololá	704	Santa Lucía Utatlán 	7	Santa Rita 	2	Febrero	2023-02-21T00:00:00	2024-11-08T02:00:00	5	Humedad	71
77821	7	Sololá	704	Santa Lucía Utatlán 	7	Santa Rita 	2	Febrero	2023-02-21T00:00:00	2024-11-08T02:00:00	6	Velocidad del viento	0
77822	7	Sololá	704	Santa Lucía Utatlán 	7	Santa Rita 	2	Febrero	2023-02-21T00:00:00	2024-11-08T02:00:00	7	Dirección del viento	0
77823	7	Sololá	704	Santa Lucía Utatlán 	7	Santa Rita 	2	Febrero	2023-02-21T00:00:00	2024-11-08T02:00:00	1	Precipitación	0
77824	7	Sololá	704	Santa Lucía Utatlán 	7	Santa Rita 	2	Febrero	2023-02-21T00:00:00	2024-11-08T02:00:00	8	Radiación solar	0
77825	7	Sololá	704	Santa Lucía Utatlán 	7	Santa Rita 	2	Febrero	2023-02-21T00:00:00	2024-11-08T03:00:00	2	Temperatura media	14.9
77826	7	Sololá	704	Santa Lucía Utatlán 	7	Santa Rita 	2	Febrero	2023-02-21T00:00:00	2024-11-08T03:00:00	4	Temperatura máxima	15.1
77827	7	Sololá	704	Santa Lucía Utatlán 	7	Santa Rita 	2	Febrero	2023-02-21T00:00:00	2024-11-08T03:00:00	3	Temperatura mínima	14.8
77828	7	Sololá	704	Santa Lucía Utatlán 	7	Santa Rita 	2	Febrero	2023-02-21T00:00:00	2024-11-08T03:00:00	5	Humedad	75
77829	7	Sololá	704	Santa Lucía Utatlán 	7	Santa Rita 	2	Febrero	2023-02-21T00:00:00	2024-11-08T03:00:00	6	Velocidad del viento	0
77830	7	Sololá	704	Santa Lucía Utatlán 	7	Santa Rita 	2	Febrero	2023-02-21T00:00:00	2024-11-08T03:00:00	7	Dirección del viento	0
77831	7	Sololá	704	Santa Lucía Utatlán 	7	Santa Rita 	2	Febrero	2023-02-21T00:00:00	2024-11-08T03:00:00	1	Precipitación	0
77832	7	Sololá	704	Santa Lucía Utatlán 	7	Santa Rita 	2	Febrero	2023-02-21T00:00:00	2024-11-08T03:00:00	8	Radiación solar	0
77833	7	Sololá	704	Santa Lucía Utatlán 	7	Santa Rita 	2	Febrero	2023-02-21T00:00:00	2024-11-08T04:00:00	2	Temperatura media	14.7
77834	7	Sololá	704	Santa Lucía Utatlán 	7	Santa Rita 	2	Febrero	2023-02-21T00:00:00	2024-11-08T04:00:00	4	Temperatura máxima	14.9
77835	7	Sololá	704	Santa Lucía Utatlán 	7	Santa Rita 	2	Febrero	2023-02-21T00:00:00	2024-11-08T04:00:00	3	Temperatura mínima	14.6
77836	7	Sololá	704	Santa Lucía Utatlán 	7	Santa Rita 	2	Febrero	2023-02-21T00:00:00	2024-11-08T04:00:00	5	Humedad	77
77837	7	Sololá	704	Santa Lucía Utatlán 	7	Santa Rita 	2	Febrero	2023-02-21T00:00:00	2024-11-08T04:00:00	6	Velocidad del viento	0
77838	7	Sololá	704	Santa Lucía Utatlán 	7	Santa Rita 	2	Febrero	2023-02-21T00:00:00	2024-11-08T04:00:00	7	Dirección del viento	0
77839	7	Sololá	704	Santa Lucía Utatlán 	7	Santa Rita 	2	Febrero	2023-02-21T00:00:00	2024-11-08T04:00:00	1	Precipitación	0
77840	7	Sololá	704	Santa Lucía Utatlán 	7	Santa Rita 	2	Febrero	2023-02-21T00:00:00	2024-11-08T04:00:00	8	Radiación solar	0
77841	7	Sololá	704	Santa Lucía Utatlán 	7	Santa Rita 	2	Febrero	2023-02-21T00:00:00	2024-11-08T05:00:00	2	Temperatura media	14.6
77842	7	Sololá	704	Santa Lucía Utatlán 	7	Santa Rita 	2	Febrero	2023-02-21T00:00:00	2024-11-08T05:00:00	4	Temperatura máxima	14.9
77843	7	Sololá	704	Santa Lucía Utatlán 	7	Santa Rita 	2	Febrero	2023-02-21T00:00:00	2024-11-08T05:00:00	3	Temperatura mínima	14.6
77844	7	Sololá	704	Santa Lucía Utatlán 	7	Santa Rita 	2	Febrero	2023-02-21T00:00:00	2024-11-08T05:00:00	5	Humedad	78
77845	7	Sololá	704	Santa Lucía Utatlán 	7	Santa Rita 	2	Febrero	2023-02-21T00:00:00	2024-11-08T05:00:00	6	Velocidad del viento	1.6
77846	7	Sololá	704	Santa Lucía Utatlán 	7	Santa Rita 	2	Febrero	2023-02-21T00:00:00	2024-11-08T05:00:00	7	Dirección del viento	1.61
77847	7	Sololá	704	Santa Lucía Utatlán 	7	Santa Rita 	2	Febrero	2023-02-21T00:00:00	2024-11-08T05:00:00	1	Precipitación	0
77848	7	Sololá	704	Santa Lucía Utatlán 	7	Santa Rita 	2	Febrero	2023-02-21T00:00:00	2024-11-08T05:00:00	8	Radiación solar	0
77849	7	Sololá	704	Santa Lucía Utatlán 	7	Santa Rita 	2	Febrero	2023-02-21T00:00:00	2024-11-08T06:00:00	2	Temperatura media	14.1
77850	7	Sololá	704	Santa Lucía Utatlán 	7	Santa Rita 	2	Febrero	2023-02-21T00:00:00	2024-11-08T06:00:00	4	Temperatura máxima	14.7
77851	7	Sololá	704	Santa Lucía Utatlán 	7	Santa Rita 	2	Febrero	2023-02-21T00:00:00	2024-11-08T06:00:00	3	Temperatura mínima	14.1
77852	7	Sololá	704	Santa Lucía Utatlán 	7	Santa Rita 	2	Febrero	2023-02-21T00:00:00	2024-11-08T06:00:00	5	Humedad	83
77853	7	Sololá	704	Santa Lucía Utatlán 	7	Santa Rita 	2	Febrero	2023-02-21T00:00:00	2024-11-08T06:00:00	6	Velocidad del viento	0
77854	7	Sololá	704	Santa Lucía Utatlán 	7	Santa Rita 	2	Febrero	2023-02-21T00:00:00	2024-11-08T06:00:00	7	Dirección del viento	0
77855	7	Sololá	704	Santa Lucía Utatlán 	7	Santa Rita 	2	Febrero	2023-02-21T00:00:00	2024-11-08T06:00:00	1	Precipitación	0
77856	7	Sololá	704	Santa Lucía Utatlán 	7	Santa Rita 	2	Febrero	2023-02-21T00:00:00	2024-11-08T06:00:00	8	Radiación solar	0
77857	7	Sololá	704	Santa Lucía Utatlán 	7	Santa Rita 	2	Febrero	2023-02-21T00:00:00	2024-11-08T07:00:00	2	Temperatura media	14.9
77858	7	Sololá	704	Santa Lucía Utatlán 	7	Santa Rita 	2	Febrero	2023-02-21T00:00:00	2024-11-08T07:00:00	4	Temperatura máxima	14.9
77859	7	Sololá	704	Santa Lucía Utatlán 	7	Santa Rita 	2	Febrero	2023-02-21T00:00:00	2024-11-08T07:00:00	3	Temperatura mínima	14.1
77860	7	Sololá	704	Santa Lucía Utatlán 	7	Santa Rita 	2	Febrero	2023-02-21T00:00:00	2024-11-08T07:00:00	5	Humedad	81
77861	7	Sololá	704	Santa Lucía Utatlán 	7	Santa Rita 	2	Febrero	2023-02-21T00:00:00	2024-11-08T07:00:00	6	Velocidad del viento	0
77862	7	Sololá	704	Santa Lucía Utatlán 	7	Santa Rita 	2	Febrero	2023-02-21T00:00:00	2024-11-08T07:00:00	7	Dirección del viento	0
77863	7	Sololá	704	Santa Lucía Utatlán 	7	Santa Rita 	2	Febrero	2023-02-21T00:00:00	2024-11-08T07:00:00	1	Precipitación	0
77864	7	Sololá	704	Santa Lucía Utatlán 	7	Santa Rita 	2	Febrero	2023-02-21T00:00:00	2024-11-08T07:00:00	8	Radiación solar	5
77865	7	Sololá	704	Santa Lucía Utatlán 	7	Santa Rita 	2	Febrero	2023-02-21T00:00:00	2024-11-08T08:00:00	2	Temperatura media	19.9
77866	7	Sololá	704	Santa Lucía Utatlán 	7	Santa Rita 	2	Febrero	2023-02-21T00:00:00	2024-11-08T08:00:00	4	Temperatura máxima	20
77867	7	Sololá	704	Santa Lucía Utatlán 	7	Santa Rita 	2	Febrero	2023-02-21T00:00:00	2024-11-08T08:00:00	3	Temperatura mínima	14.9
77868	7	Sololá	704	Santa Lucía Utatlán 	7	Santa Rita 	2	Febrero	2023-02-21T00:00:00	2024-11-08T08:00:00	5	Humedad	68
77869	7	Sololá	704	Santa Lucía Utatlán 	7	Santa Rita 	2	Febrero	2023-02-21T00:00:00	2024-11-08T08:00:00	6	Velocidad del viento	0
77870	7	Sololá	704	Santa Lucía Utatlán 	7	Santa Rita 	2	Febrero	2023-02-21T00:00:00	2024-11-08T08:00:00	7	Dirección del viento	0
77871	7	Sololá	704	Santa Lucía Utatlán 	7	Santa Rita 	2	Febrero	2023-02-21T00:00:00	2024-11-08T08:00:00	1	Precipitación	0
77872	7	Sololá	704	Santa Lucía Utatlán 	7	Santa Rita 	2	Febrero	2023-02-21T00:00:00	2024-11-08T08:00:00	8	Radiación solar	95
77873	7	Sololá	704	Santa Lucía Utatlán 	7	Santa Rita 	2	Febrero	2023-02-21T00:00:00	2024-11-08T09:00:00	2	Temperatura media	23.3
77874	7	Sololá	704	Santa Lucía Utatlán 	7	Santa Rita 	2	Febrero	2023-02-21T00:00:00	2024-11-08T09:00:00	4	Temperatura máxima	23.3
77875	7	Sololá	704	Santa Lucía Utatlán 	7	Santa Rita 	2	Febrero	2023-02-21T00:00:00	2024-11-08T09:00:00	3	Temperatura mínima	19.9
77876	7	Sololá	704	Santa Lucía Utatlán 	7	Santa Rita 	2	Febrero	2023-02-21T00:00:00	2024-11-08T09:00:00	5	Humedad	57
77877	7	Sololá	704	Santa Lucía Utatlán 	7	Santa Rita 	2	Febrero	2023-02-21T00:00:00	2024-11-08T09:00:00	6	Velocidad del viento	0
77878	7	Sololá	704	Santa Lucía Utatlán 	7	Santa Rita 	2	Febrero	2023-02-21T00:00:00	2024-11-08T09:00:00	7	Dirección del viento	0
77879	7	Sololá	704	Santa Lucía Utatlán 	7	Santa Rita 	2	Febrero	2023-02-21T00:00:00	2024-11-08T09:00:00	1	Precipitación	0
77880	7	Sololá	704	Santa Lucía Utatlán 	7	Santa Rita 	2	Febrero	2023-02-21T00:00:00	2024-11-08T09:00:00	8	Radiación solar	130
77881	7	Sololá	704	Santa Lucía Utatlán 	7	Santa Rita 	2	Febrero	2023-02-21T00:00:00	2024-11-08T10:00:00	2	Temperatura media	22.8
77882	7	Sololá	704	Santa Lucía Utatlán 	7	Santa Rita 	2	Febrero	2023-02-21T00:00:00	2024-11-08T10:00:00	4	Temperatura máxima	23.6
77883	7	Sololá	704	Santa Lucía Utatlán 	7	Santa Rita 	2	Febrero	2023-02-21T00:00:00	2024-11-08T10:00:00	3	Temperatura mínima	22.2
77884	7	Sololá	704	Santa Lucía Utatlán 	7	Santa Rita 	2	Febrero	2023-02-21T00:00:00	2024-11-08T10:00:00	5	Humedad	58
77885	7	Sololá	704	Santa Lucía Utatlán 	7	Santa Rita 	2	Febrero	2023-02-21T00:00:00	2024-11-08T10:00:00	6	Velocidad del viento	1.6
77886	7	Sololá	704	Santa Lucía Utatlán 	7	Santa Rita 	2	Febrero	2023-02-21T00:00:00	2024-11-08T10:00:00	7	Dirección del viento	1.61
77887	7	Sololá	704	Santa Lucía Utatlán 	7	Santa Rita 	2	Febrero	2023-02-21T00:00:00	2024-11-08T10:00:00	1	Precipitación	0
77888	7	Sololá	704	Santa Lucía Utatlán 	7	Santa Rita 	2	Febrero	2023-02-21T00:00:00	2024-11-08T10:00:00	8	Radiación solar	124
77889	7	Sololá	704	Santa Lucía Utatlán 	7	Santa Rita 	2	Febrero	2023-02-21T00:00:00	2024-11-08T11:00:00	2	Temperatura media	22.4
77890	7	Sololá	704	Santa Lucía Utatlán 	7	Santa Rita 	2	Febrero	2023-02-21T00:00:00	2024-11-08T11:00:00	4	Temperatura máxima	23.6
77891	7	Sololá	704	Santa Lucía Utatlán 	7	Santa Rita 	2	Febrero	2023-02-21T00:00:00	2024-11-08T11:00:00	3	Temperatura mínima	22
77892	7	Sololá	704	Santa Lucía Utatlán 	7	Santa Rita 	2	Febrero	2023-02-21T00:00:00	2024-11-08T11:00:00	5	Humedad	58
77893	7	Sololá	704	Santa Lucía Utatlán 	7	Santa Rita 	2	Febrero	2023-02-21T00:00:00	2024-11-08T11:00:00	6	Velocidad del viento	0
77894	7	Sololá	704	Santa Lucía Utatlán 	7	Santa Rita 	2	Febrero	2023-02-21T00:00:00	2024-11-08T11:00:00	7	Dirección del viento	0
77895	7	Sololá	704	Santa Lucía Utatlán 	7	Santa Rita 	2	Febrero	2023-02-21T00:00:00	2024-11-08T11:00:00	1	Precipitación	0
77896	7	Sololá	704	Santa Lucía Utatlán 	7	Santa Rita 	2	Febrero	2023-02-21T00:00:00	2024-11-08T11:00:00	8	Radiación solar	92
77897	7	Sololá	704	Santa Lucía Utatlán 	7	Santa Rita 	2	Febrero	2023-02-21T00:00:00	2024-11-08T12:00:00	2	Temperatura media	24.4
77898	7	Sololá	704	Santa Lucía Utatlán 	7	Santa Rita 	2	Febrero	2023-02-21T00:00:00	2024-11-08T12:00:00	4	Temperatura máxima	24.4
77899	7	Sololá	704	Santa Lucía Utatlán 	7	Santa Rita 	2	Febrero	2023-02-21T00:00:00	2024-11-08T12:00:00	3	Temperatura mínima	22.4
77900	7	Sololá	704	Santa Lucía Utatlán 	7	Santa Rita 	2	Febrero	2023-02-21T00:00:00	2024-11-08T12:00:00	5	Humedad	52
77901	7	Sololá	704	Santa Lucía Utatlán 	7	Santa Rita 	2	Febrero	2023-02-21T00:00:00	2024-11-08T12:00:00	6	Velocidad del viento	0
77902	7	Sololá	704	Santa Lucía Utatlán 	7	Santa Rita 	2	Febrero	2023-02-21T00:00:00	2024-11-08T12:00:00	7	Dirección del viento	0
77903	7	Sololá	704	Santa Lucía Utatlán 	7	Santa Rita 	2	Febrero	2023-02-21T00:00:00	2024-11-08T12:00:00	1	Precipitación	0
77904	7	Sololá	704	Santa Lucía Utatlán 	7	Santa Rita 	2	Febrero	2023-02-21T00:00:00	2024-11-08T12:00:00	8	Radiación solar	98
77905	7	Sololá	704	Santa Lucía Utatlán 	7	Santa Rita 	2	Febrero	2023-02-21T00:00:00	2024-11-08T13:00:00	2	Temperatura media	25.7
77906	7	Sololá	704	Santa Lucía Utatlán 	7	Santa Rita 	2	Febrero	2023-02-21T00:00:00	2024-11-08T13:00:00	4	Temperatura máxima	27.8
77907	7	Sololá	704	Santa Lucía Utatlán 	7	Santa Rita 	2	Febrero	2023-02-21T00:00:00	2024-11-08T13:00:00	3	Temperatura mínima	24.3
77908	7	Sololá	704	Santa Lucía Utatlán 	7	Santa Rita 	2	Febrero	2023-02-21T00:00:00	2024-11-08T13:00:00	5	Humedad	43
77909	7	Sololá	704	Santa Lucía Utatlán 	7	Santa Rita 	2	Febrero	2023-02-21T00:00:00	2024-11-08T13:00:00	6	Velocidad del viento	1.6
77910	7	Sololá	704	Santa Lucía Utatlán 	7	Santa Rita 	2	Febrero	2023-02-21T00:00:00	2024-11-08T13:00:00	7	Dirección del viento	1.61
77911	7	Sololá	704	Santa Lucía Utatlán 	7	Santa Rita 	2	Febrero	2023-02-21T00:00:00	2024-11-08T13:00:00	1	Precipitación	0
77912	7	Sololá	704	Santa Lucía Utatlán 	7	Santa Rita 	2	Febrero	2023-02-21T00:00:00	2024-11-08T13:00:00	8	Radiación solar	114
77913	7	Sololá	704	Santa Lucía Utatlán 	7	Santa Rita 	2	Febrero	2023-02-21T00:00:00	2024-11-08T14:00:00	2	Temperatura media	27.1
77914	7	Sololá	704	Santa Lucía Utatlán 	7	Santa Rita 	2	Febrero	2023-02-21T00:00:00	2024-11-08T14:00:00	4	Temperatura máxima	27.7
77915	7	Sololá	704	Santa Lucía Utatlán 	7	Santa Rita 	2	Febrero	2023-02-21T00:00:00	2024-11-08T14:00:00	3	Temperatura mínima	24.8
77916	7	Sololá	704	Santa Lucía Utatlán 	7	Santa Rita 	2	Febrero	2023-02-21T00:00:00	2024-11-08T14:00:00	5	Humedad	46
77917	7	Sololá	704	Santa Lucía Utatlán 	7	Santa Rita 	2	Febrero	2023-02-21T00:00:00	2024-11-08T14:00:00	6	Velocidad del viento	1.6
77918	7	Sololá	704	Santa Lucía Utatlán 	7	Santa Rita 	2	Febrero	2023-02-21T00:00:00	2024-11-08T14:00:00	7	Dirección del viento	1.61
77919	7	Sololá	704	Santa Lucía Utatlán 	7	Santa Rita 	2	Febrero	2023-02-21T00:00:00	2024-11-08T14:00:00	1	Precipitación	0
77920	7	Sololá	704	Santa Lucía Utatlán 	7	Santa Rita 	2	Febrero	2023-02-21T00:00:00	2024-11-08T14:00:00	8	Radiación solar	109
77921	7	Sololá	704	Santa Lucía Utatlán 	7	Santa Rita 	2	Febrero	2023-02-21T00:00:00	2024-11-08T15:00:00	2	Temperatura media	24.3
77922	7	Sololá	704	Santa Lucía Utatlán 	7	Santa Rita 	2	Febrero	2023-02-21T00:00:00	2024-11-08T15:00:00	4	Temperatura máxima	27.6
77923	7	Sololá	704	Santa Lucía Utatlán 	7	Santa Rita 	2	Febrero	2023-02-21T00:00:00	2024-11-08T15:00:00	3	Temperatura mínima	23.7
77924	7	Sololá	704	Santa Lucía Utatlán 	7	Santa Rita 	2	Febrero	2023-02-21T00:00:00	2024-11-08T15:00:00	5	Humedad	59
77925	7	Sololá	704	Santa Lucía Utatlán 	7	Santa Rita 	2	Febrero	2023-02-21T00:00:00	2024-11-08T15:00:00	6	Velocidad del viento	1.6
77926	7	Sololá	704	Santa Lucía Utatlán 	7	Santa Rita 	2	Febrero	2023-02-21T00:00:00	2024-11-08T15:00:00	7	Dirección del viento	1.61
77927	7	Sololá	704	Santa Lucía Utatlán 	7	Santa Rita 	2	Febrero	2023-02-21T00:00:00	2024-11-08T15:00:00	1	Precipitación	0
77928	7	Sololá	704	Santa Lucía Utatlán 	7	Santa Rita 	2	Febrero	2023-02-21T00:00:00	2024-11-08T15:00:00	8	Radiación solar	104
77929	7	Sololá	704	Santa Lucía Utatlán 	7	Santa Rita 	2	Febrero	2023-02-21T00:00:00	2024-11-08T16:00:00	2	Temperatura media	24.2
77930	7	Sololá	704	Santa Lucía Utatlán 	7	Santa Rita 	2	Febrero	2023-02-21T00:00:00	2024-11-08T16:00:00	4	Temperatura máxima	25.2
77931	7	Sololá	704	Santa Lucía Utatlán 	7	Santa Rita 	2	Febrero	2023-02-21T00:00:00	2024-11-08T16:00:00	3	Temperatura mínima	23
77932	7	Sololá	704	Santa Lucía Utatlán 	7	Santa Rita 	2	Febrero	2023-02-21T00:00:00	2024-11-08T16:00:00	5	Humedad	60
77933	7	Sololá	704	Santa Lucía Utatlán 	7	Santa Rita 	2	Febrero	2023-02-21T00:00:00	2024-11-08T16:00:00	6	Velocidad del viento	0
77934	7	Sololá	704	Santa Lucía Utatlán 	7	Santa Rita 	2	Febrero	2023-02-21T00:00:00	2024-11-08T16:00:00	7	Dirección del viento	0
77935	7	Sololá	704	Santa Lucía Utatlán 	7	Santa Rita 	2	Febrero	2023-02-21T00:00:00	2024-11-08T16:00:00	1	Precipitación	0
77936	7	Sololá	704	Santa Lucía Utatlán 	7	Santa Rita 	2	Febrero	2023-02-21T00:00:00	2024-11-08T16:00:00	8	Radiación solar	65
77937	7	Sololá	704	Santa Lucía Utatlán 	7	Santa Rita 	2	Febrero	2023-02-21T00:00:00	2024-11-08T17:00:00	2	Temperatura media	21.8
77938	7	Sololá	704	Santa Lucía Utatlán 	7	Santa Rita 	2	Febrero	2023-02-21T00:00:00	2024-11-08T17:00:00	4	Temperatura máxima	24.4
77939	7	Sololá	704	Santa Lucía Utatlán 	7	Santa Rita 	2	Febrero	2023-02-21T00:00:00	2024-11-08T17:00:00	3	Temperatura mínima	21.7
77940	7	Sololá	704	Santa Lucía Utatlán 	7	Santa Rita 	2	Febrero	2023-02-21T00:00:00	2024-11-08T17:00:00	5	Humedad	71
77941	7	Sololá	704	Santa Lucía Utatlán 	7	Santa Rita 	2	Febrero	2023-02-21T00:00:00	2024-11-08T17:00:00	6	Velocidad del viento	0
77942	7	Sololá	704	Santa Lucía Utatlán 	7	Santa Rita 	2	Febrero	2023-02-21T00:00:00	2024-11-08T17:00:00	7	Dirección del viento	0
77943	7	Sololá	704	Santa Lucía Utatlán 	7	Santa Rita 	2	Febrero	2023-02-21T00:00:00	2024-11-08T17:00:00	1	Precipitación	0
77944	7	Sololá	704	Santa Lucía Utatlán 	7	Santa Rita 	2	Febrero	2023-02-21T00:00:00	2024-11-08T17:00:00	8	Radiación solar	41
77945	7	Sololá	704	Santa Lucía Utatlán 	7	Santa Rita 	2	Febrero	2023-02-21T00:00:00	2024-11-08T18:00:00	2	Temperatura media	19.9
77946	7	Sololá	704	Santa Lucía Utatlán 	7	Santa Rita 	2	Febrero	2023-02-21T00:00:00	2024-11-08T18:00:00	4	Temperatura máxima	21.8
77947	7	Sololá	704	Santa Lucía Utatlán 	7	Santa Rita 	2	Febrero	2023-02-21T00:00:00	2024-11-08T18:00:00	3	Temperatura mínima	19.9
77948	7	Sololá	704	Santa Lucía Utatlán 	7	Santa Rita 	2	Febrero	2023-02-21T00:00:00	2024-11-08T18:00:00	5	Humedad	81
77949	7	Sololá	704	Santa Lucía Utatlán 	7	Santa Rita 	2	Febrero	2023-02-21T00:00:00	2024-11-08T18:00:00	6	Velocidad del viento	0
77950	7	Sololá	704	Santa Lucía Utatlán 	7	Santa Rita 	2	Febrero	2023-02-21T00:00:00	2024-11-08T18:00:00	7	Dirección del viento	0
77951	7	Sololá	704	Santa Lucía Utatlán 	7	Santa Rita 	2	Febrero	2023-02-21T00:00:00	2024-11-08T18:00:00	1	Precipitación	0
77952	7	Sololá	704	Santa Lucía Utatlán 	7	Santa Rita 	2	Febrero	2023-02-21T00:00:00	2024-11-08T18:00:00	8	Radiación solar	15
77953	7	Sololá	704	Santa Lucía Utatlán 	7	Santa Rita 	2	Febrero	2023-02-21T00:00:00	2024-11-08T19:00:00	2	Temperatura media	18
77954	7	Sololá	704	Santa Lucía Utatlán 	7	Santa Rita 	2	Febrero	2023-02-21T00:00:00	2024-11-08T19:00:00	4	Temperatura máxima	19.9
77955	7	Sololá	704	Santa Lucía Utatlán 	7	Santa Rita 	2	Febrero	2023-02-21T00:00:00	2024-11-08T19:00:00	3	Temperatura mínima	17.9
77956	7	Sololá	704	Santa Lucía Utatlán 	7	Santa Rita 	2	Febrero	2023-02-21T00:00:00	2024-11-08T19:00:00	5	Humedad	86
77957	7	Sololá	704	Santa Lucía Utatlán 	7	Santa Rita 	2	Febrero	2023-02-21T00:00:00	2024-11-08T19:00:00	6	Velocidad del viento	0
77958	7	Sololá	704	Santa Lucía Utatlán 	7	Santa Rita 	2	Febrero	2023-02-21T00:00:00	2024-11-08T19:00:00	7	Dirección del viento	0
77959	7	Sololá	704	Santa Lucía Utatlán 	7	Santa Rita 	2	Febrero	2023-02-21T00:00:00	2024-11-08T19:00:00	1	Precipitación	0
77960	7	Sololá	704	Santa Lucía Utatlán 	7	Santa Rita 	2	Febrero	2023-02-21T00:00:00	2024-11-08T19:00:00	8	Radiación solar	0
77961	7	Sololá	704	Santa Lucía Utatlán 	7	Santa Rita 	2	Febrero	2023-02-21T00:00:00	2024-11-08T20:00:00	2	Temperatura media	16.9
77962	7	Sololá	704	Santa Lucía Utatlán 	7	Santa Rita 	2	Febrero	2023-02-21T00:00:00	2024-11-08T20:00:00	4	Temperatura máxima	18
77963	7	Sololá	704	Santa Lucía Utatlán 	7	Santa Rita 	2	Febrero	2023-02-21T00:00:00	2024-11-08T20:00:00	3	Temperatura mínima	16.9
77964	7	Sololá	704	Santa Lucía Utatlán 	7	Santa Rita 	2	Febrero	2023-02-21T00:00:00	2024-11-08T20:00:00	5	Humedad	86
77965	7	Sololá	704	Santa Lucía Utatlán 	7	Santa Rita 	2	Febrero	2023-02-21T00:00:00	2024-11-08T20:00:00	6	Velocidad del viento	0
77966	7	Sololá	704	Santa Lucía Utatlán 	7	Santa Rita 	2	Febrero	2023-02-21T00:00:00	2024-11-08T20:00:00	7	Dirección del viento	0
77967	7	Sololá	704	Santa Lucía Utatlán 	7	Santa Rita 	2	Febrero	2023-02-21T00:00:00	2024-11-08T20:00:00	1	Precipitación	0
77968	7	Sololá	704	Santa Lucía Utatlán 	7	Santa Rita 	2	Febrero	2023-02-21T00:00:00	2024-11-08T20:00:00	8	Radiación solar	0
77969	7	Sololá	704	Santa Lucía Utatlán 	7	Santa Rita 	2	Febrero	2023-02-21T00:00:00	2024-11-08T21:00:00	2	Temperatura media	16.4
77970	7	Sololá	704	Santa Lucía Utatlán 	7	Santa Rita 	2	Febrero	2023-02-21T00:00:00	2024-11-08T21:00:00	4	Temperatura máxima	16.9
77971	7	Sololá	704	Santa Lucía Utatlán 	7	Santa Rita 	2	Febrero	2023-02-21T00:00:00	2024-11-08T21:00:00	3	Temperatura mínima	16.4
77972	7	Sololá	704	Santa Lucía Utatlán 	7	Santa Rita 	2	Febrero	2023-02-21T00:00:00	2024-11-08T21:00:00	5	Humedad	86
77973	7	Sololá	704	Santa Lucía Utatlán 	7	Santa Rita 	2	Febrero	2023-02-21T00:00:00	2024-11-08T21:00:00	6	Velocidad del viento	0
77974	7	Sololá	704	Santa Lucía Utatlán 	7	Santa Rita 	2	Febrero	2023-02-21T00:00:00	2024-11-08T21:00:00	7	Dirección del viento	0
77975	7	Sololá	704	Santa Lucía Utatlán 	7	Santa Rita 	2	Febrero	2023-02-21T00:00:00	2024-11-08T21:00:00	1	Precipitación	0
77976	7	Sololá	704	Santa Lucía Utatlán 	7	Santa Rita 	2	Febrero	2023-02-21T00:00:00	2024-11-08T21:00:00	8	Radiación solar	0
77977	7	Sololá	704	Santa Lucía Utatlán 	7	Santa Rita 	2	Febrero	2023-02-21T00:00:00	2024-11-08T22:00:00	2	Temperatura media	16.3
77978	7	Sololá	704	Santa Lucía Utatlán 	7	Santa Rita 	2	Febrero	2023-02-21T00:00:00	2024-11-08T22:00:00	4	Temperatura máxima	16.4
77979	7	Sololá	704	Santa Lucía Utatlán 	7	Santa Rita 	2	Febrero	2023-02-21T00:00:00	2024-11-08T22:00:00	3	Temperatura mínima	16.2
77980	7	Sololá	704	Santa Lucía Utatlán 	7	Santa Rita 	2	Febrero	2023-02-21T00:00:00	2024-11-08T22:00:00	5	Humedad	85
77981	7	Sololá	704	Santa Lucía Utatlán 	7	Santa Rita 	2	Febrero	2023-02-21T00:00:00	2024-11-08T22:00:00	6	Velocidad del viento	0
77982	7	Sololá	704	Santa Lucía Utatlán 	7	Santa Rita 	2	Febrero	2023-02-21T00:00:00	2024-11-08T22:00:00	7	Dirección del viento	0
77983	7	Sololá	704	Santa Lucía Utatlán 	7	Santa Rita 	2	Febrero	2023-02-21T00:00:00	2024-11-08T22:00:00	1	Precipitación	0
77984	7	Sololá	704	Santa Lucía Utatlán 	7	Santa Rita 	2	Febrero	2023-02-21T00:00:00	2024-11-08T22:00:00	8	Radiación solar	0
77985	7	Sololá	704	Santa Lucía Utatlán 	7	Santa Rita 	2	Febrero	2023-02-21T00:00:00	2024-11-08T23:00:00	2	Temperatura media	16.4
77986	7	Sololá	704	Santa Lucía Utatlán 	7	Santa Rita 	2	Febrero	2023-02-21T00:00:00	2024-11-08T23:00:00	4	Temperatura máxima	16.4
77987	7	Sololá	704	Santa Lucía Utatlán 	7	Santa Rita 	2	Febrero	2023-02-21T00:00:00	2024-11-08T23:00:00	3	Temperatura mínima	16.2
77988	7	Sololá	704	Santa Lucía Utatlán 	7	Santa Rita 	2	Febrero	2023-02-21T00:00:00	2024-11-08T23:00:00	5	Humedad	89
77989	7	Sololá	704	Santa Lucía Utatlán 	7	Santa Rita 	2	Febrero	2023-02-21T00:00:00	2024-11-08T23:00:00	6	Velocidad del viento	0
77990	7	Sololá	704	Santa Lucía Utatlán 	7	Santa Rita 	2	Febrero	2023-02-21T00:00:00	2024-11-08T23:00:00	7	Dirección del viento	0
77991	7	Sololá	704	Santa Lucía Utatlán 	7	Santa Rita 	2	Febrero	2023-02-21T00:00:00	2024-11-08T23:00:00	1	Precipitación	0
77992	7	Sololá	704	Santa Lucía Utatlán 	7	Santa Rita 	2	Febrero	2023-02-21T00:00:00	2024-11-08T23:00:00	8	Radiación solar	0
77993	7	Sololá	704	Santa Lucía Utatlán 	7	Santa Rita 	2	Febrero	2023-02-22T00:00:00	2024-11-08T00:00:00	2	Temperatura media	16.6
77994	7	Sololá	704	Santa Lucía Utatlán 	7	Santa Rita 	2	Febrero	2023-02-22T00:00:00	2024-11-08T00:00:00	4	Temperatura máxima	16.6
77995	7	Sololá	704	Santa Lucía Utatlán 	7	Santa Rita 	2	Febrero	2023-02-22T00:00:00	2024-11-08T00:00:00	3	Temperatura mínima	16.3
77996	7	Sololá	704	Santa Lucía Utatlán 	7	Santa Rita 	2	Febrero	2023-02-22T00:00:00	2024-11-08T00:00:00	5	Humedad	90
77997	7	Sololá	704	Santa Lucía Utatlán 	7	Santa Rita 	2	Febrero	2023-02-22T00:00:00	2024-11-08T00:00:00	6	Velocidad del viento	0
77998	7	Sololá	704	Santa Lucía Utatlán 	7	Santa Rita 	2	Febrero	2023-02-22T00:00:00	2024-11-08T00:00:00	7	Dirección del viento	0
77999	7	Sololá	704	Santa Lucía Utatlán 	7	Santa Rita 	2	Febrero	2023-02-22T00:00:00	2024-11-08T00:00:00	1	Precipitación	0
78000	7	Sololá	704	Santa Lucía Utatlán 	7	Santa Rita 	2	Febrero	2023-02-22T00:00:00	2024-11-08T00:00:00	8	Radiación solar	0
78001	7	Sololá	704	Santa Lucía Utatlán 	7	Santa Rita 	2	Febrero	2023-02-22T00:00:00	2024-11-08T01:00:00	2	Temperatura media	17.1
78002	7	Sololá	704	Santa Lucía Utatlán 	7	Santa Rita 	2	Febrero	2023-02-22T00:00:00	2024-11-08T01:00:00	4	Temperatura máxima	17.3
78003	7	Sololá	704	Santa Lucía Utatlán 	7	Santa Rita 	2	Febrero	2023-02-22T00:00:00	2024-11-08T01:00:00	3	Temperatura mínima	16.6
78004	7	Sololá	704	Santa Lucía Utatlán 	7	Santa Rita 	2	Febrero	2023-02-22T00:00:00	2024-11-08T01:00:00	5	Humedad	88
78005	7	Sololá	704	Santa Lucía Utatlán 	7	Santa Rita 	2	Febrero	2023-02-22T00:00:00	2024-11-08T01:00:00	6	Velocidad del viento	0
78006	7	Sololá	704	Santa Lucía Utatlán 	7	Santa Rita 	2	Febrero	2023-02-22T00:00:00	2024-11-08T01:00:00	7	Dirección del viento	0
78007	7	Sololá	704	Santa Lucía Utatlán 	7	Santa Rita 	2	Febrero	2023-02-22T00:00:00	2024-11-08T01:00:00	1	Precipitación	0
78008	7	Sololá	704	Santa Lucía Utatlán 	7	Santa Rita 	2	Febrero	2023-02-22T00:00:00	2024-11-08T01:00:00	8	Radiación solar	0
78009	7	Sololá	704	Santa Lucía Utatlán 	7	Santa Rita 	2	Febrero	2023-02-22T00:00:00	2024-11-08T02:00:00	2	Temperatura media	16.4
78010	7	Sololá	704	Santa Lucía Utatlán 	7	Santa Rita 	2	Febrero	2023-02-22T00:00:00	2024-11-08T02:00:00	4	Temperatura máxima	17.1
78011	7	Sololá	704	Santa Lucía Utatlán 	7	Santa Rita 	2	Febrero	2023-02-22T00:00:00	2024-11-08T02:00:00	3	Temperatura mínima	16.3
78012	7	Sololá	704	Santa Lucía Utatlán 	7	Santa Rita 	2	Febrero	2023-02-22T00:00:00	2024-11-08T02:00:00	5	Humedad	91
78013	7	Sololá	704	Santa Lucía Utatlán 	7	Santa Rita 	2	Febrero	2023-02-22T00:00:00	2024-11-08T02:00:00	6	Velocidad del viento	0
78014	7	Sololá	704	Santa Lucía Utatlán 	7	Santa Rita 	2	Febrero	2023-02-22T00:00:00	2024-11-08T02:00:00	7	Dirección del viento	0
78015	7	Sololá	704	Santa Lucía Utatlán 	7	Santa Rita 	2	Febrero	2023-02-22T00:00:00	2024-11-08T02:00:00	1	Precipitación	0
78016	7	Sololá	704	Santa Lucía Utatlán 	7	Santa Rita 	2	Febrero	2023-02-22T00:00:00	2024-11-08T02:00:00	8	Radiación solar	0
78017	7	Sololá	704	Santa Lucía Utatlán 	7	Santa Rita 	2	Febrero	2023-02-22T00:00:00	2024-11-08T03:00:00	2	Temperatura media	16.4
78018	7	Sololá	704	Santa Lucía Utatlán 	7	Santa Rita 	2	Febrero	2023-02-22T00:00:00	2024-11-08T03:00:00	4	Temperatura máxima	16.8
78019	7	Sololá	704	Santa Lucía Utatlán 	7	Santa Rita 	2	Febrero	2023-02-22T00:00:00	2024-11-08T03:00:00	3	Temperatura mínima	16.4
78020	7	Sololá	704	Santa Lucía Utatlán 	7	Santa Rita 	2	Febrero	2023-02-22T00:00:00	2024-11-08T03:00:00	5	Humedad	89
78021	7	Sololá	704	Santa Lucía Utatlán 	7	Santa Rita 	2	Febrero	2023-02-22T00:00:00	2024-11-08T03:00:00	6	Velocidad del viento	0
78022	7	Sololá	704	Santa Lucía Utatlán 	7	Santa Rita 	2	Febrero	2023-02-22T00:00:00	2024-11-08T03:00:00	7	Dirección del viento	0
78023	7	Sololá	704	Santa Lucía Utatlán 	7	Santa Rita 	2	Febrero	2023-02-22T00:00:00	2024-11-08T03:00:00	1	Precipitación	0
78024	7	Sololá	704	Santa Lucía Utatlán 	7	Santa Rita 	2	Febrero	2023-02-22T00:00:00	2024-11-08T03:00:00	8	Radiación solar	0
78025	7	Sololá	704	Santa Lucía Utatlán 	7	Santa Rita 	2	Febrero	2023-02-22T00:00:00	2024-11-08T04:00:00	2	Temperatura media	16.6
78026	7	Sololá	704	Santa Lucía Utatlán 	7	Santa Rita 	2	Febrero	2023-02-22T00:00:00	2024-11-08T04:00:00	4	Temperatura máxima	16.6
78027	7	Sololá	704	Santa Lucía Utatlán 	7	Santa Rita 	2	Febrero	2023-02-22T00:00:00	2024-11-08T04:00:00	3	Temperatura mínima	16.1
78028	7	Sololá	704	Santa Lucía Utatlán 	7	Santa Rita 	2	Febrero	2023-02-22T00:00:00	2024-11-08T04:00:00	5	Humedad	90
78029	7	Sololá	704	Santa Lucía Utatlán 	7	Santa Rita 	2	Febrero	2023-02-22T00:00:00	2024-11-08T04:00:00	6	Velocidad del viento	0
78030	7	Sololá	704	Santa Lucía Utatlán 	7	Santa Rita 	2	Febrero	2023-02-22T00:00:00	2024-11-08T04:00:00	7	Dirección del viento	0
78031	7	Sololá	704	Santa Lucía Utatlán 	7	Santa Rita 	2	Febrero	2023-02-22T00:00:00	2024-11-08T04:00:00	1	Precipitación	0
78032	7	Sololá	704	Santa Lucía Utatlán 	7	Santa Rita 	2	Febrero	2023-02-22T00:00:00	2024-11-08T04:00:00	8	Radiación solar	0
78033	7	Sololá	704	Santa Lucía Utatlán 	7	Santa Rita 	2	Febrero	2023-02-22T00:00:00	2024-11-08T05:00:00	2	Temperatura media	15.6
78034	7	Sololá	704	Santa Lucía Utatlán 	7	Santa Rita 	2	Febrero	2023-02-22T00:00:00	2024-11-08T05:00:00	4	Temperatura máxima	16.7
78035	7	Sololá	704	Santa Lucía Utatlán 	7	Santa Rita 	2	Febrero	2023-02-22T00:00:00	2024-11-08T05:00:00	3	Temperatura mínima	15.6
78036	7	Sololá	704	Santa Lucía Utatlán 	7	Santa Rita 	2	Febrero	2023-02-22T00:00:00	2024-11-08T05:00:00	5	Humedad	90
78037	7	Sololá	704	Santa Lucía Utatlán 	7	Santa Rita 	2	Febrero	2023-02-22T00:00:00	2024-11-08T05:00:00	6	Velocidad del viento	0
78038	7	Sololá	704	Santa Lucía Utatlán 	7	Santa Rita 	2	Febrero	2023-02-22T00:00:00	2024-11-08T05:00:00	7	Dirección del viento	0
78039	7	Sololá	704	Santa Lucía Utatlán 	7	Santa Rita 	2	Febrero	2023-02-22T00:00:00	2024-11-08T05:00:00	1	Precipitación	0
78040	7	Sololá	704	Santa Lucía Utatlán 	7	Santa Rita 	2	Febrero	2023-02-22T00:00:00	2024-11-08T05:00:00	8	Radiación solar	0
78041	7	Sololá	704	Santa Lucía Utatlán 	7	Santa Rita 	2	Febrero	2023-02-22T00:00:00	2024-11-08T06:00:00	2	Temperatura media	15.9
78042	7	Sololá	704	Santa Lucía Utatlán 	7	Santa Rita 	2	Febrero	2023-02-22T00:00:00	2024-11-08T06:00:00	4	Temperatura máxima	16.2
78043	7	Sololá	704	Santa Lucía Utatlán 	7	Santa Rita 	2	Febrero	2023-02-22T00:00:00	2024-11-08T06:00:00	3	Temperatura mínima	15.6
78044	7	Sololá	704	Santa Lucía Utatlán 	7	Santa Rita 	2	Febrero	2023-02-22T00:00:00	2024-11-08T06:00:00	5	Humedad	89
78045	7	Sololá	704	Santa Lucía Utatlán 	7	Santa Rita 	2	Febrero	2023-02-22T00:00:00	2024-11-08T06:00:00	6	Velocidad del viento	0
78046	7	Sololá	704	Santa Lucía Utatlán 	7	Santa Rita 	2	Febrero	2023-02-22T00:00:00	2024-11-08T06:00:00	7	Dirección del viento	0
78047	7	Sololá	704	Santa Lucía Utatlán 	7	Santa Rita 	2	Febrero	2023-02-22T00:00:00	2024-11-08T06:00:00	1	Precipitación	0
78048	7	Sololá	704	Santa Lucía Utatlán 	7	Santa Rita 	2	Febrero	2023-02-22T00:00:00	2024-11-08T06:00:00	8	Radiación solar	0
78049	7	Sololá	704	Santa Lucía Utatlán 	7	Santa Rita 	2	Febrero	2023-02-22T00:00:00	2024-11-08T07:00:00	2	Temperatura media	16.2
78050	7	Sololá	704	Santa Lucía Utatlán 	7	Santa Rita 	2	Febrero	2023-02-22T00:00:00	2024-11-08T07:00:00	4	Temperatura máxima	16.2
78051	7	Sololá	704	Santa Lucía Utatlán 	7	Santa Rita 	2	Febrero	2023-02-22T00:00:00	2024-11-08T07:00:00	3	Temperatura mínima	15.8
78052	7	Sololá	704	Santa Lucía Utatlán 	7	Santa Rita 	2	Febrero	2023-02-22T00:00:00	2024-11-08T07:00:00	5	Humedad	90
78053	7	Sololá	704	Santa Lucía Utatlán 	7	Santa Rita 	2	Febrero	2023-02-22T00:00:00	2024-11-08T07:00:00	6	Velocidad del viento	0
78054	7	Sololá	704	Santa Lucía Utatlán 	7	Santa Rita 	2	Febrero	2023-02-22T00:00:00	2024-11-08T07:00:00	7	Dirección del viento	0
78055	7	Sololá	704	Santa Lucía Utatlán 	7	Santa Rita 	2	Febrero	2023-02-22T00:00:00	2024-11-08T07:00:00	1	Precipitación	0
78056	7	Sololá	704	Santa Lucía Utatlán 	7	Santa Rita 	2	Febrero	2023-02-22T00:00:00	2024-11-08T07:00:00	8	Radiación solar	8
78057	7	Sololá	704	Santa Lucía Utatlán 	7	Santa Rita 	2	Febrero	2023-02-22T00:00:00	2024-11-08T08:00:00	2	Temperatura media	20.4
78058	7	Sololá	704	Santa Lucía Utatlán 	7	Santa Rita 	2	Febrero	2023-02-22T00:00:00	2024-11-08T08:00:00	4	Temperatura máxima	20.4
78059	7	Sololá	704	Santa Lucía Utatlán 	7	Santa Rita 	2	Febrero	2023-02-22T00:00:00	2024-11-08T08:00:00	3	Temperatura mínima	16.2
78060	7	Sololá	704	Santa Lucía Utatlán 	7	Santa Rita 	2	Febrero	2023-02-22T00:00:00	2024-11-08T08:00:00	5	Humedad	75
78061	7	Sololá	704	Santa Lucía Utatlán 	7	Santa Rita 	2	Febrero	2023-02-22T00:00:00	2024-11-08T08:00:00	6	Velocidad del viento	0
78062	7	Sololá	704	Santa Lucía Utatlán 	7	Santa Rita 	2	Febrero	2023-02-22T00:00:00	2024-11-08T08:00:00	7	Dirección del viento	0
78063	7	Sololá	704	Santa Lucía Utatlán 	7	Santa Rita 	2	Febrero	2023-02-22T00:00:00	2024-11-08T08:00:00	1	Precipitación	0
78064	7	Sololá	704	Santa Lucía Utatlán 	7	Santa Rita 	2	Febrero	2023-02-22T00:00:00	2024-11-08T08:00:00	8	Radiación solar	94
78065	7	Sololá	704	Santa Lucía Utatlán 	7	Santa Rita 	2	Febrero	2023-02-22T00:00:00	2024-11-08T09:00:00	2	Temperatura media	23.2
78066	7	Sololá	704	Santa Lucía Utatlán 	7	Santa Rita 	2	Febrero	2023-02-22T00:00:00	2024-11-08T09:00:00	4	Temperatura máxima	23.2
78067	7	Sololá	704	Santa Lucía Utatlán 	7	Santa Rita 	2	Febrero	2023-02-22T00:00:00	2024-11-08T09:00:00	3	Temperatura mínima	20.4
78068	7	Sololá	704	Santa Lucía Utatlán 	7	Santa Rita 	2	Febrero	2023-02-22T00:00:00	2024-11-08T09:00:00	5	Humedad	64
78069	7	Sololá	704	Santa Lucía Utatlán 	7	Santa Rita 	2	Febrero	2023-02-22T00:00:00	2024-11-08T09:00:00	6	Velocidad del viento	0
78070	7	Sololá	704	Santa Lucía Utatlán 	7	Santa Rita 	2	Febrero	2023-02-22T00:00:00	2024-11-08T09:00:00	7	Dirección del viento	0
78071	7	Sololá	704	Santa Lucía Utatlán 	7	Santa Rita 	2	Febrero	2023-02-22T00:00:00	2024-11-08T09:00:00	1	Precipitación	0
78072	7	Sololá	704	Santa Lucía Utatlán 	7	Santa Rita 	2	Febrero	2023-02-22T00:00:00	2024-11-08T09:00:00	8	Radiación solar	126
78073	7	Sololá	704	Santa Lucía Utatlán 	7	Santa Rita 	2	Febrero	2023-02-22T00:00:00	2024-11-08T10:00:00	2	Temperatura media	22.8
78074	7	Sololá	704	Santa Lucía Utatlán 	7	Santa Rita 	2	Febrero	2023-02-22T00:00:00	2024-11-08T10:00:00	4	Temperatura máxima	23.4
78075	7	Sololá	704	Santa Lucía Utatlán 	7	Santa Rita 	2	Febrero	2023-02-22T00:00:00	2024-11-08T10:00:00	3	Temperatura mínima	22.2
78076	7	Sololá	704	Santa Lucía Utatlán 	7	Santa Rita 	2	Febrero	2023-02-22T00:00:00	2024-11-08T10:00:00	5	Humedad	57
78077	7	Sololá	704	Santa Lucía Utatlán 	7	Santa Rita 	2	Febrero	2023-02-22T00:00:00	2024-11-08T10:00:00	6	Velocidad del viento	0
78078	7	Sololá	704	Santa Lucía Utatlán 	7	Santa Rita 	2	Febrero	2023-02-22T00:00:00	2024-11-08T10:00:00	7	Dirección del viento	0
78079	7	Sololá	704	Santa Lucía Utatlán 	7	Santa Rita 	2	Febrero	2023-02-22T00:00:00	2024-11-08T10:00:00	1	Precipitación	0
78080	7	Sololá	704	Santa Lucía Utatlán 	7	Santa Rita 	2	Febrero	2023-02-22T00:00:00	2024-11-08T10:00:00	8	Radiación solar	135
78081	7	Sololá	704	Santa Lucía Utatlán 	7	Santa Rita 	2	Febrero	2023-02-22T00:00:00	2024-11-08T11:00:00	2	Temperatura media	23.6
78082	7	Sololá	704	Santa Lucía Utatlán 	7	Santa Rita 	2	Febrero	2023-02-22T00:00:00	2024-11-08T11:00:00	4	Temperatura máxima	23.6
78083	7	Sololá	704	Santa Lucía Utatlán 	7	Santa Rita 	2	Febrero	2023-02-22T00:00:00	2024-11-08T11:00:00	3	Temperatura mínima	22.4
78084	7	Sololá	704	Santa Lucía Utatlán 	7	Santa Rita 	2	Febrero	2023-02-22T00:00:00	2024-11-08T11:00:00	5	Humedad	53
78085	7	Sololá	704	Santa Lucía Utatlán 	7	Santa Rita 	2	Febrero	2023-02-22T00:00:00	2024-11-08T11:00:00	6	Velocidad del viento	1.6
78086	7	Sololá	704	Santa Lucía Utatlán 	7	Santa Rita 	2	Febrero	2023-02-22T00:00:00	2024-11-08T11:00:00	7	Dirección del viento	1.61
78087	7	Sololá	704	Santa Lucía Utatlán 	7	Santa Rita 	2	Febrero	2023-02-22T00:00:00	2024-11-08T11:00:00	1	Precipitación	0
78088	7	Sololá	704	Santa Lucía Utatlán 	7	Santa Rita 	2	Febrero	2023-02-22T00:00:00	2024-11-08T11:00:00	8	Radiación solar	104
78089	7	Sololá	704	Santa Lucía Utatlán 	7	Santa Rita 	2	Febrero	2023-02-22T00:00:00	2024-11-08T12:00:00	2	Temperatura media	25.3
78090	7	Sololá	704	Santa Lucía Utatlán 	7	Santa Rita 	2	Febrero	2023-02-22T00:00:00	2024-11-08T12:00:00	4	Temperatura máxima	26.2
78091	7	Sololá	704	Santa Lucía Utatlán 	7	Santa Rita 	2	Febrero	2023-02-22T00:00:00	2024-11-08T12:00:00	3	Temperatura mínima	23.3
78092	7	Sololá	704	Santa Lucía Utatlán 	7	Santa Rita 	2	Febrero	2023-02-22T00:00:00	2024-11-08T12:00:00	5	Humedad	48
78093	7	Sololá	704	Santa Lucía Utatlán 	7	Santa Rita 	2	Febrero	2023-02-22T00:00:00	2024-11-08T12:00:00	6	Velocidad del viento	1.6
78094	7	Sololá	704	Santa Lucía Utatlán 	7	Santa Rita 	2	Febrero	2023-02-22T00:00:00	2024-11-08T12:00:00	7	Dirección del viento	1.61
78095	7	Sololá	704	Santa Lucía Utatlán 	7	Santa Rita 	2	Febrero	2023-02-22T00:00:00	2024-11-08T12:00:00	1	Precipitación	0
78096	7	Sololá	704	Santa Lucía Utatlán 	7	Santa Rita 	2	Febrero	2023-02-22T00:00:00	2024-11-08T12:00:00	8	Radiación solar	130
78097	7	Sololá	704	Santa Lucía Utatlán 	7	Santa Rita 	2	Febrero	2023-02-22T00:00:00	2024-11-08T13:00:00	2	Temperatura media	26.8
78098	7	Sololá	704	Santa Lucía Utatlán 	7	Santa Rita 	2	Febrero	2023-02-22T00:00:00	2024-11-08T13:00:00	4	Temperatura máxima	26.9
78099	7	Sololá	704	Santa Lucía Utatlán 	7	Santa Rita 	2	Febrero	2023-02-22T00:00:00	2024-11-08T13:00:00	3	Temperatura mínima	24.6
78100	7	Sololá	704	Santa Lucía Utatlán 	7	Santa Rita 	2	Febrero	2023-02-22T00:00:00	2024-11-08T13:00:00	5	Humedad	48
78101	7	Sololá	704	Santa Lucía Utatlán 	7	Santa Rita 	2	Febrero	2023-02-22T00:00:00	2024-11-08T13:00:00	6	Velocidad del viento	3.2
78102	7	Sololá	704	Santa Lucía Utatlán 	7	Santa Rita 	2	Febrero	2023-02-22T00:00:00	2024-11-08T13:00:00	7	Dirección del viento	3.22
78103	7	Sololá	704	Santa Lucía Utatlán 	7	Santa Rita 	2	Febrero	2023-02-22T00:00:00	2024-11-08T13:00:00	1	Precipitación	0
78104	7	Sololá	704	Santa Lucía Utatlán 	7	Santa Rita 	2	Febrero	2023-02-22T00:00:00	2024-11-08T13:00:00	8	Radiación solar	163
78105	7	Sololá	704	Santa Lucía Utatlán 	7	Santa Rita 	2	Febrero	2023-02-22T00:00:00	2024-11-08T14:00:00	2	Temperatura media	25.1
78106	7	Sololá	704	Santa Lucía Utatlán 	7	Santa Rita 	2	Febrero	2023-02-22T00:00:00	2024-11-08T14:00:00	4	Temperatura máxima	27.5
78107	7	Sololá	704	Santa Lucía Utatlán 	7	Santa Rita 	2	Febrero	2023-02-22T00:00:00	2024-11-08T14:00:00	3	Temperatura mínima	25.1
78108	7	Sololá	704	Santa Lucía Utatlán 	7	Santa Rita 	2	Febrero	2023-02-22T00:00:00	2024-11-08T14:00:00	5	Humedad	58
78109	7	Sololá	704	Santa Lucía Utatlán 	7	Santa Rita 	2	Febrero	2023-02-22T00:00:00	2024-11-08T14:00:00	6	Velocidad del viento	1.6
78110	7	Sololá	704	Santa Lucía Utatlán 	7	Santa Rita 	2	Febrero	2023-02-22T00:00:00	2024-11-08T14:00:00	7	Dirección del viento	1.61
78111	7	Sololá	704	Santa Lucía Utatlán 	7	Santa Rita 	2	Febrero	2023-02-22T00:00:00	2024-11-08T14:00:00	1	Precipitación	0
78112	7	Sololá	704	Santa Lucía Utatlán 	7	Santa Rita 	2	Febrero	2023-02-22T00:00:00	2024-11-08T14:00:00	8	Radiación solar	136
78113	7	Sololá	704	Santa Lucía Utatlán 	7	Santa Rita 	2	Febrero	2023-02-22T00:00:00	2024-11-08T15:00:00	2	Temperatura media	25.8
78114	7	Sololá	704	Santa Lucía Utatlán 	7	Santa Rita 	2	Febrero	2023-02-22T00:00:00	2024-11-08T15:00:00	4	Temperatura máxima	26
78115	7	Sololá	704	Santa Lucía Utatlán 	7	Santa Rita 	2	Febrero	2023-02-22T00:00:00	2024-11-08T15:00:00	3	Temperatura mínima	24.3
78116	7	Sololá	704	Santa Lucía Utatlán 	7	Santa Rita 	2	Febrero	2023-02-22T00:00:00	2024-11-08T15:00:00	5	Humedad	57
78117	7	Sololá	704	Santa Lucía Utatlán 	7	Santa Rita 	2	Febrero	2023-02-22T00:00:00	2024-11-08T15:00:00	6	Velocidad del viento	1.6
78118	7	Sololá	704	Santa Lucía Utatlán 	7	Santa Rita 	2	Febrero	2023-02-22T00:00:00	2024-11-08T15:00:00	7	Dirección del viento	1.61
78119	7	Sololá	704	Santa Lucía Utatlán 	7	Santa Rita 	2	Febrero	2023-02-22T00:00:00	2024-11-08T15:00:00	1	Precipitación	0
78120	7	Sololá	704	Santa Lucía Utatlán 	7	Santa Rita 	2	Febrero	2023-02-22T00:00:00	2024-11-08T15:00:00	8	Radiación solar	112
78121	7	Sololá	704	Santa Lucía Utatlán 	7	Santa Rita 	2	Febrero	2023-02-22T00:00:00	2024-11-08T16:00:00	2	Temperatura media	22.2
78122	7	Sololá	704	Santa Lucía Utatlán 	7	Santa Rita 	2	Febrero	2023-02-22T00:00:00	2024-11-08T16:00:00	4	Temperatura máxima	26.1
78123	7	Sololá	704	Santa Lucía Utatlán 	7	Santa Rita 	2	Febrero	2023-02-22T00:00:00	2024-11-08T16:00:00	3	Temperatura mínima	22.1
78124	7	Sololá	704	Santa Lucía Utatlán 	7	Santa Rita 	2	Febrero	2023-02-22T00:00:00	2024-11-08T16:00:00	5	Humedad	72
78125	7	Sololá	704	Santa Lucía Utatlán 	7	Santa Rita 	2	Febrero	2023-02-22T00:00:00	2024-11-08T16:00:00	6	Velocidad del viento	1.6
78126	7	Sololá	704	Santa Lucía Utatlán 	7	Santa Rita 	2	Febrero	2023-02-22T00:00:00	2024-11-08T16:00:00	7	Dirección del viento	1.61
78127	7	Sololá	704	Santa Lucía Utatlán 	7	Santa Rita 	2	Febrero	2023-02-22T00:00:00	2024-11-08T16:00:00	1	Precipitación	0
78128	7	Sololá	704	Santa Lucía Utatlán 	7	Santa Rita 	2	Febrero	2023-02-22T00:00:00	2024-11-08T16:00:00	8	Radiación solar	76
78129	7	Sololá	704	Santa Lucía Utatlán 	7	Santa Rita 	2	Febrero	2023-02-22T00:00:00	2024-11-08T17:00:00	2	Temperatura media	20.8
78130	7	Sololá	704	Santa Lucía Utatlán 	7	Santa Rita 	2	Febrero	2023-02-22T00:00:00	2024-11-08T17:00:00	4	Temperatura máxima	22.2
78131	7	Sololá	704	Santa Lucía Utatlán 	7	Santa Rita 	2	Febrero	2023-02-22T00:00:00	2024-11-08T17:00:00	3	Temperatura mínima	20.8
78132	7	Sololá	704	Santa Lucía Utatlán 	7	Santa Rita 	2	Febrero	2023-02-22T00:00:00	2024-11-08T17:00:00	5	Humedad	77
78133	7	Sololá	704	Santa Lucía Utatlán 	7	Santa Rita 	2	Febrero	2023-02-22T00:00:00	2024-11-08T17:00:00	6	Velocidad del viento	0
78134	7	Sololá	704	Santa Lucía Utatlán 	7	Santa Rita 	2	Febrero	2023-02-22T00:00:00	2024-11-08T17:00:00	7	Dirección del viento	0
78135	7	Sololá	704	Santa Lucía Utatlán 	7	Santa Rita 	2	Febrero	2023-02-22T00:00:00	2024-11-08T17:00:00	1	Precipitación	0
78136	7	Sololá	704	Santa Lucía Utatlán 	7	Santa Rita 	2	Febrero	2023-02-22T00:00:00	2024-11-08T17:00:00	8	Radiación solar	25
78137	7	Sololá	704	Santa Lucía Utatlán 	7	Santa Rita 	2	Febrero	2023-02-22T00:00:00	2024-11-08T18:00:00	2	Temperatura media	19.8
78138	7	Sololá	704	Santa Lucía Utatlán 	7	Santa Rita 	2	Febrero	2023-02-22T00:00:00	2024-11-08T18:00:00	4	Temperatura máxima	20.9
78139	7	Sololá	704	Santa Lucía Utatlán 	7	Santa Rita 	2	Febrero	2023-02-22T00:00:00	2024-11-08T18:00:00	3	Temperatura mínima	19.7
78140	7	Sololá	704	Santa Lucía Utatlán 	7	Santa Rita 	2	Febrero	2023-02-22T00:00:00	2024-11-08T18:00:00	5	Humedad	82
78141	7	Sololá	704	Santa Lucía Utatlán 	7	Santa Rita 	2	Febrero	2023-02-22T00:00:00	2024-11-08T18:00:00	6	Velocidad del viento	0
78142	7	Sololá	704	Santa Lucía Utatlán 	7	Santa Rita 	2	Febrero	2023-02-22T00:00:00	2024-11-08T18:00:00	7	Dirección del viento	0
78143	7	Sololá	704	Santa Lucía Utatlán 	7	Santa Rita 	2	Febrero	2023-02-22T00:00:00	2024-11-08T18:00:00	1	Precipitación	0
78144	7	Sololá	704	Santa Lucía Utatlán 	7	Santa Rita 	2	Febrero	2023-02-22T00:00:00	2024-11-08T18:00:00	8	Radiación solar	11
78145	7	Sololá	704	Santa Lucía Utatlán 	7	Santa Rita 	2	Febrero	2023-02-22T00:00:00	2024-11-08T19:00:00	2	Temperatura media	18.1
78146	7	Sololá	704	Santa Lucía Utatlán 	7	Santa Rita 	2	Febrero	2023-02-22T00:00:00	2024-11-08T19:00:00	4	Temperatura máxima	19.7
78147	7	Sololá	704	Santa Lucía Utatlán 	7	Santa Rita 	2	Febrero	2023-02-22T00:00:00	2024-11-08T19:00:00	3	Temperatura mínima	18.1
78148	7	Sololá	704	Santa Lucía Utatlán 	7	Santa Rita 	2	Febrero	2023-02-22T00:00:00	2024-11-08T19:00:00	5	Humedad	85
78149	7	Sololá	704	Santa Lucía Utatlán 	7	Santa Rita 	2	Febrero	2023-02-22T00:00:00	2024-11-08T19:00:00	6	Velocidad del viento	0
78150	7	Sololá	704	Santa Lucía Utatlán 	7	Santa Rita 	2	Febrero	2023-02-22T00:00:00	2024-11-08T19:00:00	7	Dirección del viento	0
78151	7	Sololá	704	Santa Lucía Utatlán 	7	Santa Rita 	2	Febrero	2023-02-22T00:00:00	2024-11-08T19:00:00	1	Precipitación	0
78152	7	Sololá	704	Santa Lucía Utatlán 	7	Santa Rita 	2	Febrero	2023-02-22T00:00:00	2024-11-08T19:00:00	8	Radiación solar	0
78153	7	Sololá	704	Santa Lucía Utatlán 	7	Santa Rita 	2	Febrero	2023-02-22T00:00:00	2024-11-08T20:00:00	2	Temperatura media	17.5
78154	7	Sololá	704	Santa Lucía Utatlán 	7	Santa Rita 	2	Febrero	2023-02-22T00:00:00	2024-11-08T20:00:00	4	Temperatura máxima	18.3
78155	7	Sololá	704	Santa Lucía Utatlán 	7	Santa Rita 	2	Febrero	2023-02-22T00:00:00	2024-11-08T20:00:00	3	Temperatura mínima	17.4
78156	7	Sololá	704	Santa Lucía Utatlán 	7	Santa Rita 	2	Febrero	2023-02-22T00:00:00	2024-11-08T20:00:00	5	Humedad	85
78157	7	Sololá	704	Santa Lucía Utatlán 	7	Santa Rita 	2	Febrero	2023-02-22T00:00:00	2024-11-08T20:00:00	6	Velocidad del viento	0
78158	7	Sololá	704	Santa Lucía Utatlán 	7	Santa Rita 	2	Febrero	2023-02-22T00:00:00	2024-11-08T20:00:00	7	Dirección del viento	0
78159	7	Sololá	704	Santa Lucía Utatlán 	7	Santa Rita 	2	Febrero	2023-02-22T00:00:00	2024-11-08T20:00:00	1	Precipitación	0
78160	7	Sololá	704	Santa Lucía Utatlán 	7	Santa Rita 	2	Febrero	2023-02-22T00:00:00	2024-11-08T20:00:00	8	Radiación solar	0
78161	7	Sololá	704	Santa Lucía Utatlán 	7	Santa Rita 	2	Febrero	2023-02-22T00:00:00	2024-11-08T21:00:00	2	Temperatura media	16.7
78162	7	Sololá	704	Santa Lucía Utatlán 	7	Santa Rita 	2	Febrero	2023-02-22T00:00:00	2024-11-08T21:00:00	4	Temperatura máxima	17.4
78163	7	Sololá	704	Santa Lucía Utatlán 	7	Santa Rita 	2	Febrero	2023-02-22T00:00:00	2024-11-08T21:00:00	3	Temperatura mínima	16.7
78164	7	Sololá	704	Santa Lucía Utatlán 	7	Santa Rita 	2	Febrero	2023-02-22T00:00:00	2024-11-08T21:00:00	5	Humedad	83
78165	7	Sololá	704	Santa Lucía Utatlán 	7	Santa Rita 	2	Febrero	2023-02-22T00:00:00	2024-11-08T21:00:00	6	Velocidad del viento	0
78166	7	Sololá	704	Santa Lucía Utatlán 	7	Santa Rita 	2	Febrero	2023-02-22T00:00:00	2024-11-08T21:00:00	7	Dirección del viento	0
78167	7	Sololá	704	Santa Lucía Utatlán 	7	Santa Rita 	2	Febrero	2023-02-22T00:00:00	2024-11-08T21:00:00	1	Precipitación	0
78168	7	Sololá	704	Santa Lucía Utatlán 	7	Santa Rita 	2	Febrero	2023-02-22T00:00:00	2024-11-08T21:00:00	8	Radiación solar	0
78169	7	Sololá	704	Santa Lucía Utatlán 	7	Santa Rita 	2	Febrero	2023-02-22T00:00:00	2024-11-08T22:00:00	2	Temperatura media	16.1
78170	7	Sololá	704	Santa Lucía Utatlán 	7	Santa Rita 	2	Febrero	2023-02-22T00:00:00	2024-11-08T22:00:00	4	Temperatura máxima	16.7
78171	7	Sololá	704	Santa Lucía Utatlán 	7	Santa Rita 	2	Febrero	2023-02-22T00:00:00	2024-11-08T22:00:00	3	Temperatura mínima	16.1
78172	7	Sololá	704	Santa Lucía Utatlán 	7	Santa Rita 	2	Febrero	2023-02-22T00:00:00	2024-11-08T22:00:00	5	Humedad	84
78173	7	Sololá	704	Santa Lucía Utatlán 	7	Santa Rita 	2	Febrero	2023-02-22T00:00:00	2024-11-08T22:00:00	6	Velocidad del viento	0
78174	7	Sololá	704	Santa Lucía Utatlán 	7	Santa Rita 	2	Febrero	2023-02-22T00:00:00	2024-11-08T22:00:00	7	Dirección del viento	0
78175	7	Sololá	704	Santa Lucía Utatlán 	7	Santa Rita 	2	Febrero	2023-02-22T00:00:00	2024-11-08T22:00:00	1	Precipitación	0
78176	7	Sololá	704	Santa Lucía Utatlán 	7	Santa Rita 	2	Febrero	2023-02-22T00:00:00	2024-11-08T22:00:00	8	Radiación solar	0
78177	7	Sololá	704	Santa Lucía Utatlán 	7	Santa Rita 	2	Febrero	2023-02-22T00:00:00	2024-11-08T23:00:00	2	Temperatura media	16
78178	7	Sololá	704	Santa Lucía Utatlán 	7	Santa Rita 	2	Febrero	2023-02-22T00:00:00	2024-11-08T23:00:00	4	Temperatura máxima	16.2
78179	7	Sololá	704	Santa Lucía Utatlán 	7	Santa Rita 	2	Febrero	2023-02-22T00:00:00	2024-11-08T23:00:00	3	Temperatura mínima	15.9
78180	7	Sololá	704	Santa Lucía Utatlán 	7	Santa Rita 	2	Febrero	2023-02-22T00:00:00	2024-11-08T23:00:00	5	Humedad	87
78181	7	Sololá	704	Santa Lucía Utatlán 	7	Santa Rita 	2	Febrero	2023-02-22T00:00:00	2024-11-08T23:00:00	6	Velocidad del viento	0
78182	7	Sololá	704	Santa Lucía Utatlán 	7	Santa Rita 	2	Febrero	2023-02-22T00:00:00	2024-11-08T23:00:00	7	Dirección del viento	0
78183	7	Sololá	704	Santa Lucía Utatlán 	7	Santa Rita 	2	Febrero	2023-02-22T00:00:00	2024-11-08T23:00:00	1	Precipitación	0
78184	7	Sololá	704	Santa Lucía Utatlán 	7	Santa Rita 	2	Febrero	2023-02-22T00:00:00	2024-11-08T23:00:00	8	Radiación solar	0
78185	7	Sololá	704	Santa Lucía Utatlán 	7	Santa Rita 	2	Febrero	2023-02-23T00:00:00	2024-11-08T00:00:00	2	Temperatura media	16
78186	7	Sololá	704	Santa Lucía Utatlán 	7	Santa Rita 	2	Febrero	2023-02-23T00:00:00	2024-11-08T00:00:00	4	Temperatura máxima	16.1
78187	7	Sololá	704	Santa Lucía Utatlán 	7	Santa Rita 	2	Febrero	2023-02-23T00:00:00	2024-11-08T00:00:00	3	Temperatura mínima	15.7
78188	7	Sololá	704	Santa Lucía Utatlán 	7	Santa Rita 	2	Febrero	2023-02-23T00:00:00	2024-11-08T00:00:00	5	Humedad	87
78189	7	Sololá	704	Santa Lucía Utatlán 	7	Santa Rita 	2	Febrero	2023-02-23T00:00:00	2024-11-08T00:00:00	6	Velocidad del viento	0
78190	7	Sololá	704	Santa Lucía Utatlán 	7	Santa Rita 	2	Febrero	2023-02-23T00:00:00	2024-11-08T00:00:00	7	Dirección del viento	0
78191	7	Sololá	704	Santa Lucía Utatlán 	7	Santa Rita 	2	Febrero	2023-02-23T00:00:00	2024-11-08T00:00:00	1	Precipitación	0
78192	7	Sololá	704	Santa Lucía Utatlán 	7	Santa Rita 	2	Febrero	2023-02-23T00:00:00	2024-11-08T00:00:00	8	Radiación solar	0
78193	7	Sololá	704	Santa Lucía Utatlán 	7	Santa Rita 	2	Febrero	2023-02-23T00:00:00	2024-11-08T01:00:00	2	Temperatura media	16.2
78194	7	Sololá	704	Santa Lucía Utatlán 	7	Santa Rita 	2	Febrero	2023-02-23T00:00:00	2024-11-08T01:00:00	4	Temperatura máxima	16.2
78195	7	Sololá	704	Santa Lucía Utatlán 	7	Santa Rita 	2	Febrero	2023-02-23T00:00:00	2024-11-08T01:00:00	3	Temperatura mínima	15.9
78196	7	Sololá	704	Santa Lucía Utatlán 	7	Santa Rita 	2	Febrero	2023-02-23T00:00:00	2024-11-08T01:00:00	5	Humedad	87
78197	7	Sololá	704	Santa Lucía Utatlán 	7	Santa Rita 	2	Febrero	2023-02-23T00:00:00	2024-11-08T01:00:00	6	Velocidad del viento	0
78198	7	Sololá	704	Santa Lucía Utatlán 	7	Santa Rita 	2	Febrero	2023-02-23T00:00:00	2024-11-08T01:00:00	7	Dirección del viento	0
78199	7	Sololá	704	Santa Lucía Utatlán 	7	Santa Rita 	2	Febrero	2023-02-23T00:00:00	2024-11-08T01:00:00	1	Precipitación	0
78200	7	Sololá	704	Santa Lucía Utatlán 	7	Santa Rita 	2	Febrero	2023-02-23T00:00:00	2024-11-08T01:00:00	8	Radiación solar	0
78201	7	Sololá	704	Santa Lucía Utatlán 	7	Santa Rita 	2	Febrero	2023-02-23T00:00:00	2024-11-08T02:00:00	2	Temperatura media	16.6
78202	7	Sololá	704	Santa Lucía Utatlán 	7	Santa Rita 	2	Febrero	2023-02-23T00:00:00	2024-11-08T02:00:00	4	Temperatura máxima	16.6
78203	7	Sololá	704	Santa Lucía Utatlán 	7	Santa Rita 	2	Febrero	2023-02-23T00:00:00	2024-11-08T02:00:00	3	Temperatura mínima	16.1
78204	7	Sololá	704	Santa Lucía Utatlán 	7	Santa Rita 	2	Febrero	2023-02-23T00:00:00	2024-11-08T02:00:00	5	Humedad	89
78205	7	Sololá	704	Santa Lucía Utatlán 	7	Santa Rita 	2	Febrero	2023-02-23T00:00:00	2024-11-08T02:00:00	6	Velocidad del viento	0
78206	7	Sololá	704	Santa Lucía Utatlán 	7	Santa Rita 	2	Febrero	2023-02-23T00:00:00	2024-11-08T02:00:00	7	Dirección del viento	0
78207	7	Sololá	704	Santa Lucía Utatlán 	7	Santa Rita 	2	Febrero	2023-02-23T00:00:00	2024-11-08T02:00:00	1	Precipitación	0
78208	7	Sololá	704	Santa Lucía Utatlán 	7	Santa Rita 	2	Febrero	2023-02-23T00:00:00	2024-11-08T02:00:00	8	Radiación solar	0
78209	7	Sololá	704	Santa Lucía Utatlán 	7	Santa Rita 	2	Febrero	2023-02-23T00:00:00	2024-11-08T03:00:00	2	Temperatura media	15.7
78210	7	Sololá	704	Santa Lucía Utatlán 	7	Santa Rita 	2	Febrero	2023-02-23T00:00:00	2024-11-08T03:00:00	4	Temperatura máxima	16.7
78211	7	Sololá	704	Santa Lucía Utatlán 	7	Santa Rita 	2	Febrero	2023-02-23T00:00:00	2024-11-08T03:00:00	3	Temperatura mínima	15.7
78212	7	Sololá	704	Santa Lucía Utatlán 	7	Santa Rita 	2	Febrero	2023-02-23T00:00:00	2024-11-08T03:00:00	5	Humedad	89
78213	7	Sololá	704	Santa Lucía Utatlán 	7	Santa Rita 	2	Febrero	2023-02-23T00:00:00	2024-11-08T03:00:00	6	Velocidad del viento	0
78214	7	Sololá	704	Santa Lucía Utatlán 	7	Santa Rita 	2	Febrero	2023-02-23T00:00:00	2024-11-08T03:00:00	7	Dirección del viento	0
78215	7	Sololá	704	Santa Lucía Utatlán 	7	Santa Rita 	2	Febrero	2023-02-23T00:00:00	2024-11-08T03:00:00	1	Precipitación	0
78216	7	Sololá	704	Santa Lucía Utatlán 	7	Santa Rita 	2	Febrero	2023-02-23T00:00:00	2024-11-08T03:00:00	8	Radiación solar	0
78217	7	Sololá	704	Santa Lucía Utatlán 	7	Santa Rita 	2	Febrero	2023-02-23T00:00:00	2024-11-08T04:00:00	2	Temperatura media	15.5
78218	7	Sololá	704	Santa Lucía Utatlán 	7	Santa Rita 	2	Febrero	2023-02-23T00:00:00	2024-11-08T04:00:00	4	Temperatura máxima	15.7
78219	7	Sololá	704	Santa Lucía Utatlán 	7	Santa Rita 	2	Febrero	2023-02-23T00:00:00	2024-11-08T04:00:00	3	Temperatura mínima	15.3
78220	7	Sololá	704	Santa Lucía Utatlán 	7	Santa Rita 	2	Febrero	2023-02-23T00:00:00	2024-11-08T04:00:00	5	Humedad	89
78221	7	Sololá	704	Santa Lucía Utatlán 	7	Santa Rita 	2	Febrero	2023-02-23T00:00:00	2024-11-08T04:00:00	6	Velocidad del viento	0
78222	7	Sololá	704	Santa Lucía Utatlán 	7	Santa Rita 	2	Febrero	2023-02-23T00:00:00	2024-11-08T04:00:00	7	Dirección del viento	0
78223	7	Sololá	704	Santa Lucía Utatlán 	7	Santa Rita 	2	Febrero	2023-02-23T00:00:00	2024-11-08T04:00:00	1	Precipitación	0
78224	7	Sololá	704	Santa Lucía Utatlán 	7	Santa Rita 	2	Febrero	2023-02-23T00:00:00	2024-11-08T04:00:00	8	Radiación solar	0
78225	7	Sololá	704	Santa Lucía Utatlán 	7	Santa Rita 	2	Febrero	2023-02-23T00:00:00	2024-11-08T05:00:00	2	Temperatura media	13.9
78226	7	Sololá	704	Santa Lucía Utatlán 	7	Santa Rita 	2	Febrero	2023-02-23T00:00:00	2024-11-08T05:00:00	4	Temperatura máxima	15.5
78227	7	Sololá	704	Santa Lucía Utatlán 	7	Santa Rita 	2	Febrero	2023-02-23T00:00:00	2024-11-08T05:00:00	3	Temperatura mínima	13.9
78228	7	Sololá	704	Santa Lucía Utatlán 	7	Santa Rita 	2	Febrero	2023-02-23T00:00:00	2024-11-08T05:00:00	5	Humedad	89
78229	7	Sololá	704	Santa Lucía Utatlán 	7	Santa Rita 	2	Febrero	2023-02-23T00:00:00	2024-11-08T05:00:00	6	Velocidad del viento	0
78230	7	Sololá	704	Santa Lucía Utatlán 	7	Santa Rita 	2	Febrero	2023-02-23T00:00:00	2024-11-08T05:00:00	7	Dirección del viento	0
78231	7	Sololá	704	Santa Lucía Utatlán 	7	Santa Rita 	2	Febrero	2023-02-23T00:00:00	2024-11-08T05:00:00	1	Precipitación	0
78232	7	Sololá	704	Santa Lucía Utatlán 	7	Santa Rita 	2	Febrero	2023-02-23T00:00:00	2024-11-08T05:00:00	8	Radiación solar	0
78233	7	Sololá	704	Santa Lucía Utatlán 	7	Santa Rita 	2	Febrero	2023-02-23T00:00:00	2024-11-08T06:00:00	2	Temperatura media	13
78234	7	Sololá	704	Santa Lucía Utatlán 	7	Santa Rita 	2	Febrero	2023-02-23T00:00:00	2024-11-08T06:00:00	4	Temperatura máxima	13.9
78235	7	Sololá	704	Santa Lucía Utatlán 	7	Santa Rita 	2	Febrero	2023-02-23T00:00:00	2024-11-08T06:00:00	3	Temperatura mínima	13
78236	7	Sololá	704	Santa Lucía Utatlán 	7	Santa Rita 	2	Febrero	2023-02-23T00:00:00	2024-11-08T06:00:00	5	Humedad	88
78237	7	Sololá	704	Santa Lucía Utatlán 	7	Santa Rita 	2	Febrero	2023-02-23T00:00:00	2024-11-08T06:00:00	6	Velocidad del viento	0
78238	7	Sololá	704	Santa Lucía Utatlán 	7	Santa Rita 	2	Febrero	2023-02-23T00:00:00	2024-11-08T06:00:00	7	Dirección del viento	0
78239	7	Sololá	704	Santa Lucía Utatlán 	7	Santa Rita 	2	Febrero	2023-02-23T00:00:00	2024-11-08T06:00:00	1	Precipitación	0
78240	7	Sololá	704	Santa Lucía Utatlán 	7	Santa Rita 	2	Febrero	2023-02-23T00:00:00	2024-11-08T06:00:00	8	Radiación solar	0
78241	7	Sololá	704	Santa Lucía Utatlán 	7	Santa Rita 	2	Febrero	2023-02-23T00:00:00	2024-11-08T07:00:00	2	Temperatura media	13
78242	7	Sololá	704	Santa Lucía Utatlán 	7	Santa Rita 	2	Febrero	2023-02-23T00:00:00	2024-11-08T07:00:00	4	Temperatura máxima	13.1
78243	7	Sololá	704	Santa Lucía Utatlán 	7	Santa Rita 	2	Febrero	2023-02-23T00:00:00	2024-11-08T07:00:00	3	Temperatura mínima	12.9
78244	7	Sololá	704	Santa Lucía Utatlán 	7	Santa Rita 	2	Febrero	2023-02-23T00:00:00	2024-11-08T07:00:00	5	Humedad	90
78245	7	Sololá	704	Santa Lucía Utatlán 	7	Santa Rita 	2	Febrero	2023-02-23T00:00:00	2024-11-08T07:00:00	6	Velocidad del viento	0
78246	7	Sololá	704	Santa Lucía Utatlán 	7	Santa Rita 	2	Febrero	2023-02-23T00:00:00	2024-11-08T07:00:00	7	Dirección del viento	0
78247	7	Sololá	704	Santa Lucía Utatlán 	7	Santa Rita 	2	Febrero	2023-02-23T00:00:00	2024-11-08T07:00:00	1	Precipitación	0
78248	7	Sololá	704	Santa Lucía Utatlán 	7	Santa Rita 	2	Febrero	2023-02-23T00:00:00	2024-11-08T07:00:00	8	Radiación solar	6
78249	7	Sololá	704	Santa Lucía Utatlán 	7	Santa Rita 	2	Febrero	2023-02-23T00:00:00	2024-11-08T08:00:00	2	Temperatura media	17.8
78250	7	Sololá	704	Santa Lucía Utatlán 	7	Santa Rita 	2	Febrero	2023-02-23T00:00:00	2024-11-08T08:00:00	4	Temperatura máxima	17.8
78251	7	Sololá	704	Santa Lucía Utatlán 	7	Santa Rita 	2	Febrero	2023-02-23T00:00:00	2024-11-08T08:00:00	3	Temperatura mínima	12.9
78252	7	Sololá	704	Santa Lucía Utatlán 	7	Santa Rita 	2	Febrero	2023-02-23T00:00:00	2024-11-08T08:00:00	5	Humedad	79
78253	7	Sololá	704	Santa Lucía Utatlán 	7	Santa Rita 	2	Febrero	2023-02-23T00:00:00	2024-11-08T08:00:00	6	Velocidad del viento	0
78254	7	Sololá	704	Santa Lucía Utatlán 	7	Santa Rita 	2	Febrero	2023-02-23T00:00:00	2024-11-08T08:00:00	7	Dirección del viento	0
78255	7	Sololá	704	Santa Lucía Utatlán 	7	Santa Rita 	2	Febrero	2023-02-23T00:00:00	2024-11-08T08:00:00	1	Precipitación	0
78256	7	Sololá	704	Santa Lucía Utatlán 	7	Santa Rita 	2	Febrero	2023-02-23T00:00:00	2024-11-08T08:00:00	8	Radiación solar	135
78257	7	Sololá	704	Santa Lucía Utatlán 	7	Santa Rita 	2	Febrero	2023-02-23T00:00:00	2024-11-08T09:00:00	2	Temperatura media	20.8
78258	7	Sololá	704	Santa Lucía Utatlán 	7	Santa Rita 	2	Febrero	2023-02-23T00:00:00	2024-11-08T09:00:00	4	Temperatura máxima	20.8
78259	7	Sololá	704	Santa Lucía Utatlán 	7	Santa Rita 	2	Febrero	2023-02-23T00:00:00	2024-11-08T09:00:00	3	Temperatura mínima	17.8
78260	7	Sololá	704	Santa Lucía Utatlán 	7	Santa Rita 	2	Febrero	2023-02-23T00:00:00	2024-11-08T09:00:00	5	Humedad	70
78261	7	Sololá	704	Santa Lucía Utatlán 	7	Santa Rita 	2	Febrero	2023-02-23T00:00:00	2024-11-08T09:00:00	6	Velocidad del viento	0
78262	7	Sololá	704	Santa Lucía Utatlán 	7	Santa Rita 	2	Febrero	2023-02-23T00:00:00	2024-11-08T09:00:00	7	Dirección del viento	0
78263	7	Sololá	704	Santa Lucía Utatlán 	7	Santa Rita 	2	Febrero	2023-02-23T00:00:00	2024-11-08T09:00:00	1	Precipitación	0
78264	7	Sololá	704	Santa Lucía Utatlán 	7	Santa Rita 	2	Febrero	2023-02-23T00:00:00	2024-11-08T09:00:00	8	Radiación solar	122
78265	7	Sololá	704	Santa Lucía Utatlán 	7	Santa Rita 	2	Febrero	2023-02-23T00:00:00	2024-11-08T10:00:00	2	Temperatura media	22.8
78266	7	Sololá	704	Santa Lucía Utatlán 	7	Santa Rita 	2	Febrero	2023-02-23T00:00:00	2024-11-08T10:00:00	4	Temperatura máxima	22.8
78267	7	Sololá	704	Santa Lucía Utatlán 	7	Santa Rita 	2	Febrero	2023-02-23T00:00:00	2024-11-08T10:00:00	3	Temperatura mínima	20.8
78268	7	Sololá	704	Santa Lucía Utatlán 	7	Santa Rita 	2	Febrero	2023-02-23T00:00:00	2024-11-08T10:00:00	5	Humedad	51
78269	7	Sololá	704	Santa Lucía Utatlán 	7	Santa Rita 	2	Febrero	2023-02-23T00:00:00	2024-11-08T10:00:00	6	Velocidad del viento	1.6
78270	7	Sololá	704	Santa Lucía Utatlán 	7	Santa Rita 	2	Febrero	2023-02-23T00:00:00	2024-11-08T10:00:00	7	Dirección del viento	1.61
78271	7	Sololá	704	Santa Lucía Utatlán 	7	Santa Rita 	2	Febrero	2023-02-23T00:00:00	2024-11-08T10:00:00	1	Precipitación	0
78272	7	Sololá	704	Santa Lucía Utatlán 	7	Santa Rita 	2	Febrero	2023-02-23T00:00:00	2024-11-08T10:00:00	8	Radiación solar	109
78273	7	Sololá	704	Santa Lucía Utatlán 	7	Santa Rita 	2	Febrero	2023-02-23T00:00:00	2024-11-08T11:00:00	2	Temperatura media	24.3
78274	7	Sololá	704	Santa Lucía Utatlán 	7	Santa Rita 	2	Febrero	2023-02-23T00:00:00	2024-11-08T11:00:00	4	Temperatura máxima	24.4
78275	7	Sololá	704	Santa Lucía Utatlán 	7	Santa Rita 	2	Febrero	2023-02-23T00:00:00	2024-11-08T11:00:00	3	Temperatura mínima	22.8
78276	7	Sololá	704	Santa Lucía Utatlán 	7	Santa Rita 	2	Febrero	2023-02-23T00:00:00	2024-11-08T11:00:00	5	Humedad	47
78277	7	Sololá	704	Santa Lucía Utatlán 	7	Santa Rita 	2	Febrero	2023-02-23T00:00:00	2024-11-08T11:00:00	6	Velocidad del viento	1.6
78278	7	Sololá	704	Santa Lucía Utatlán 	7	Santa Rita 	2	Febrero	2023-02-23T00:00:00	2024-11-08T11:00:00	7	Dirección del viento	1.61
78279	7	Sololá	704	Santa Lucía Utatlán 	7	Santa Rita 	2	Febrero	2023-02-23T00:00:00	2024-11-08T11:00:00	1	Precipitación	0
78280	7	Sololá	704	Santa Lucía Utatlán 	7	Santa Rita 	2	Febrero	2023-02-23T00:00:00	2024-11-08T11:00:00	8	Radiación solar	114
78281	7	Sololá	704	Santa Lucía Utatlán 	7	Santa Rita 	2	Febrero	2023-02-23T00:00:00	2024-11-08T12:00:00	2	Temperatura media	26.4
78282	7	Sololá	704	Santa Lucía Utatlán 	7	Santa Rita 	2	Febrero	2023-02-23T00:00:00	2024-11-08T12:00:00	4	Temperatura máxima	26.7
78283	7	Sololá	704	Santa Lucía Utatlán 	7	Santa Rita 	2	Febrero	2023-02-23T00:00:00	2024-11-08T12:00:00	3	Temperatura mínima	23.8
78284	7	Sololá	704	Santa Lucía Utatlán 	7	Santa Rita 	2	Febrero	2023-02-23T00:00:00	2024-11-08T12:00:00	5	Humedad	34
78285	7	Sololá	704	Santa Lucía Utatlán 	7	Santa Rita 	2	Febrero	2023-02-23T00:00:00	2024-11-08T12:00:00	6	Velocidad del viento	3.2
78286	7	Sololá	704	Santa Lucía Utatlán 	7	Santa Rita 	2	Febrero	2023-02-23T00:00:00	2024-11-08T12:00:00	7	Dirección del viento	3.22
78287	7	Sololá	704	Santa Lucía Utatlán 	7	Santa Rita 	2	Febrero	2023-02-23T00:00:00	2024-11-08T12:00:00	1	Precipitación	0
78288	7	Sololá	704	Santa Lucía Utatlán 	7	Santa Rita 	2	Febrero	2023-02-23T00:00:00	2024-11-08T12:00:00	8	Radiación solar	112
78289	7	Sololá	704	Santa Lucía Utatlán 	7	Santa Rita 	2	Febrero	2023-02-23T00:00:00	2024-11-08T13:00:00	2	Temperatura media	27.1
78290	7	Sololá	704	Santa Lucía Utatlán 	7	Santa Rita 	2	Febrero	2023-02-23T00:00:00	2024-11-08T13:00:00	4	Temperatura máxima	27.4
78291	7	Sololá	704	Santa Lucía Utatlán 	7	Santa Rita 	2	Febrero	2023-02-23T00:00:00	2024-11-08T13:00:00	3	Temperatura mínima	26.1
78292	7	Sololá	704	Santa Lucía Utatlán 	7	Santa Rita 	2	Febrero	2023-02-23T00:00:00	2024-11-08T13:00:00	5	Humedad	38
78293	7	Sololá	704	Santa Lucía Utatlán 	7	Santa Rita 	2	Febrero	2023-02-23T00:00:00	2024-11-08T13:00:00	6	Velocidad del viento	3.2
78294	7	Sololá	704	Santa Lucía Utatlán 	7	Santa Rita 	2	Febrero	2023-02-23T00:00:00	2024-11-08T13:00:00	7	Dirección del viento	3.22
78295	7	Sololá	704	Santa Lucía Utatlán 	7	Santa Rita 	2	Febrero	2023-02-23T00:00:00	2024-11-08T13:00:00	1	Precipitación	0
78296	7	Sololá	704	Santa Lucía Utatlán 	7	Santa Rita 	2	Febrero	2023-02-23T00:00:00	2024-11-08T13:00:00	8	Radiación solar	117
78297	7	Sololá	704	Santa Lucía Utatlán 	7	Santa Rita 	2	Febrero	2023-02-23T00:00:00	2024-11-08T14:00:00	2	Temperatura media	26.5
78298	7	Sololá	704	Santa Lucía Utatlán 	7	Santa Rita 	2	Febrero	2023-02-23T00:00:00	2024-11-08T14:00:00	4	Temperatura máxima	27.4
78299	7	Sololá	704	Santa Lucía Utatlán 	7	Santa Rita 	2	Febrero	2023-02-23T00:00:00	2024-11-08T14:00:00	3	Temperatura mínima	26.3
78300	7	Sololá	704	Santa Lucía Utatlán 	7	Santa Rita 	2	Febrero	2023-02-23T00:00:00	2024-11-08T14:00:00	5	Humedad	38
78301	7	Sololá	704	Santa Lucía Utatlán 	7	Santa Rita 	2	Febrero	2023-02-23T00:00:00	2024-11-08T14:00:00	6	Velocidad del viento	3.2
78302	7	Sololá	704	Santa Lucía Utatlán 	7	Santa Rita 	2	Febrero	2023-02-23T00:00:00	2024-11-08T14:00:00	7	Dirección del viento	3.22
78303	7	Sololá	704	Santa Lucía Utatlán 	7	Santa Rita 	2	Febrero	2023-02-23T00:00:00	2024-11-08T14:00:00	1	Precipitación	0
78304	7	Sololá	704	Santa Lucía Utatlán 	7	Santa Rita 	2	Febrero	2023-02-23T00:00:00	2024-11-08T14:00:00	8	Radiación solar	107
78305	7	Sololá	704	Santa Lucía Utatlán 	7	Santa Rita 	2	Febrero	2023-02-23T00:00:00	2024-11-08T15:00:00	2	Temperatura media	25.9
78306	7	Sololá	704	Santa Lucía Utatlán 	7	Santa Rita 	2	Febrero	2023-02-23T00:00:00	2024-11-08T15:00:00	4	Temperatura máxima	26.8
78307	7	Sololá	704	Santa Lucía Utatlán 	7	Santa Rita 	2	Febrero	2023-02-23T00:00:00	2024-11-08T15:00:00	3	Temperatura mínima	25.7
78308	7	Sololá	704	Santa Lucía Utatlán 	7	Santa Rita 	2	Febrero	2023-02-23T00:00:00	2024-11-08T15:00:00	5	Humedad	52
78309	7	Sololá	704	Santa Lucía Utatlán 	7	Santa Rita 	2	Febrero	2023-02-23T00:00:00	2024-11-08T15:00:00	6	Velocidad del viento	3.2
78310	7	Sololá	704	Santa Lucía Utatlán 	7	Santa Rita 	2	Febrero	2023-02-23T00:00:00	2024-11-08T15:00:00	7	Dirección del viento	3.22
78311	7	Sololá	704	Santa Lucía Utatlán 	7	Santa Rita 	2	Febrero	2023-02-23T00:00:00	2024-11-08T15:00:00	1	Precipitación	0
78312	7	Sololá	704	Santa Lucía Utatlán 	7	Santa Rita 	2	Febrero	2023-02-23T00:00:00	2024-11-08T15:00:00	8	Radiación solar	96
78313	7	Sololá	704	Santa Lucía Utatlán 	7	Santa Rita 	2	Febrero	2023-02-23T00:00:00	2024-11-08T16:00:00	2	Temperatura media	23.1
78314	7	Sololá	704	Santa Lucía Utatlán 	7	Santa Rita 	2	Febrero	2023-02-23T00:00:00	2024-11-08T16:00:00	4	Temperatura máxima	26.1
78315	7	Sololá	704	Santa Lucía Utatlán 	7	Santa Rita 	2	Febrero	2023-02-23T00:00:00	2024-11-08T16:00:00	3	Temperatura mínima	23
78316	7	Sololá	704	Santa Lucía Utatlán 	7	Santa Rita 	2	Febrero	2023-02-23T00:00:00	2024-11-08T16:00:00	5	Humedad	63
78317	7	Sololá	704	Santa Lucía Utatlán 	7	Santa Rita 	2	Febrero	2023-02-23T00:00:00	2024-11-08T16:00:00	6	Velocidad del viento	3.2
78318	7	Sololá	704	Santa Lucía Utatlán 	7	Santa Rita 	2	Febrero	2023-02-23T00:00:00	2024-11-08T16:00:00	7	Dirección del viento	3.22
78319	7	Sololá	704	Santa Lucía Utatlán 	7	Santa Rita 	2	Febrero	2023-02-23T00:00:00	2024-11-08T16:00:00	1	Precipitación	0
78320	7	Sololá	704	Santa Lucía Utatlán 	7	Santa Rita 	2	Febrero	2023-02-23T00:00:00	2024-11-08T16:00:00	8	Radiación solar	81
78321	7	Sololá	704	Santa Lucía Utatlán 	7	Santa Rita 	2	Febrero	2023-02-23T00:00:00	2024-11-08T17:00:00	2	Temperatura media	21.4
78322	7	Sololá	704	Santa Lucía Utatlán 	7	Santa Rita 	2	Febrero	2023-02-23T00:00:00	2024-11-08T17:00:00	4	Temperatura máxima	23.3
78323	7	Sololá	704	Santa Lucía Utatlán 	7	Santa Rita 	2	Febrero	2023-02-23T00:00:00	2024-11-08T17:00:00	3	Temperatura mínima	21.4
78324	7	Sololá	704	Santa Lucía Utatlán 	7	Santa Rita 	2	Febrero	2023-02-23T00:00:00	2024-11-08T17:00:00	5	Humedad	72
78325	7	Sololá	704	Santa Lucía Utatlán 	7	Santa Rita 	2	Febrero	2023-02-23T00:00:00	2024-11-08T17:00:00	6	Velocidad del viento	1.6
78326	7	Sololá	704	Santa Lucía Utatlán 	7	Santa Rita 	2	Febrero	2023-02-23T00:00:00	2024-11-08T17:00:00	7	Dirección del viento	1.61
78327	7	Sololá	704	Santa Lucía Utatlán 	7	Santa Rita 	2	Febrero	2023-02-23T00:00:00	2024-11-08T17:00:00	1	Precipitación	0
78328	7	Sololá	704	Santa Lucía Utatlán 	7	Santa Rita 	2	Febrero	2023-02-23T00:00:00	2024-11-08T17:00:00	8	Radiación solar	55
78329	7	Sololá	704	Santa Lucía Utatlán 	7	Santa Rita 	2	Febrero	2023-02-23T00:00:00	2024-11-08T18:00:00	2	Temperatura media	19.3
78330	7	Sololá	704	Santa Lucía Utatlán 	7	Santa Rita 	2	Febrero	2023-02-23T00:00:00	2024-11-08T18:00:00	4	Temperatura máxima	21.4
78331	7	Sololá	704	Santa Lucía Utatlán 	7	Santa Rita 	2	Febrero	2023-02-23T00:00:00	2024-11-08T18:00:00	3	Temperatura mínima	19.3
78332	7	Sololá	704	Santa Lucía Utatlán 	7	Santa Rita 	2	Febrero	2023-02-23T00:00:00	2024-11-08T18:00:00	5	Humedad	79
78333	7	Sololá	704	Santa Lucía Utatlán 	7	Santa Rita 	2	Febrero	2023-02-23T00:00:00	2024-11-08T18:00:00	6	Velocidad del viento	0
78334	7	Sololá	704	Santa Lucía Utatlán 	7	Santa Rita 	2	Febrero	2023-02-23T00:00:00	2024-11-08T18:00:00	7	Dirección del viento	0
78335	7	Sololá	704	Santa Lucía Utatlán 	7	Santa Rita 	2	Febrero	2023-02-23T00:00:00	2024-11-08T18:00:00	1	Precipitación	0
78336	7	Sololá	704	Santa Lucía Utatlán 	7	Santa Rita 	2	Febrero	2023-02-23T00:00:00	2024-11-08T18:00:00	8	Radiación solar	17
78337	7	Sololá	704	Santa Lucía Utatlán 	7	Santa Rita 	2	Febrero	2023-02-23T00:00:00	2024-11-08T19:00:00	2	Temperatura media	17.6
78338	7	Sololá	704	Santa Lucía Utatlán 	7	Santa Rita 	2	Febrero	2023-02-23T00:00:00	2024-11-08T19:00:00	4	Temperatura máxima	19.3
78339	7	Sololá	704	Santa Lucía Utatlán 	7	Santa Rita 	2	Febrero	2023-02-23T00:00:00	2024-11-08T19:00:00	3	Temperatura mínima	17.6
78340	7	Sololá	704	Santa Lucía Utatlán 	7	Santa Rita 	2	Febrero	2023-02-23T00:00:00	2024-11-08T19:00:00	5	Humedad	83
78341	7	Sololá	704	Santa Lucía Utatlán 	7	Santa Rita 	2	Febrero	2023-02-23T00:00:00	2024-11-08T19:00:00	6	Velocidad del viento	0
78342	7	Sololá	704	Santa Lucía Utatlán 	7	Santa Rita 	2	Febrero	2023-02-23T00:00:00	2024-11-08T19:00:00	7	Dirección del viento	0
78343	7	Sololá	704	Santa Lucía Utatlán 	7	Santa Rita 	2	Febrero	2023-02-23T00:00:00	2024-11-08T19:00:00	1	Precipitación	0
78344	7	Sololá	704	Santa Lucía Utatlán 	7	Santa Rita 	2	Febrero	2023-02-23T00:00:00	2024-11-08T19:00:00	8	Radiación solar	0
78345	7	Sololá	704	Santa Lucía Utatlán 	7	Santa Rita 	2	Febrero	2023-02-23T00:00:00	2024-11-08T20:00:00	2	Temperatura media	17.3
78346	7	Sololá	704	Santa Lucía Utatlán 	7	Santa Rita 	2	Febrero	2023-02-23T00:00:00	2024-11-08T20:00:00	4	Temperatura máxima	17.6
78347	7	Sololá	704	Santa Lucía Utatlán 	7	Santa Rita 	2	Febrero	2023-02-23T00:00:00	2024-11-08T20:00:00	3	Temperatura mínima	16.6
78348	7	Sololá	704	Santa Lucía Utatlán 	7	Santa Rita 	2	Febrero	2023-02-23T00:00:00	2024-11-08T20:00:00	5	Humedad	66
78349	7	Sololá	704	Santa Lucía Utatlán 	7	Santa Rita 	2	Febrero	2023-02-23T00:00:00	2024-11-08T20:00:00	6	Velocidad del viento	1.6
78350	7	Sololá	704	Santa Lucía Utatlán 	7	Santa Rita 	2	Febrero	2023-02-23T00:00:00	2024-11-08T20:00:00	7	Dirección del viento	1.61
78351	7	Sololá	704	Santa Lucía Utatlán 	7	Santa Rita 	2	Febrero	2023-02-23T00:00:00	2024-11-08T20:00:00	1	Precipitación	0
78352	7	Sololá	704	Santa Lucía Utatlán 	7	Santa Rita 	2	Febrero	2023-02-23T00:00:00	2024-11-08T20:00:00	8	Radiación solar	0
78353	7	Sololá	704	Santa Lucía Utatlán 	7	Santa Rita 	2	Febrero	2023-02-23T00:00:00	2024-11-08T21:00:00	2	Temperatura media	16.9
78354	7	Sololá	704	Santa Lucía Utatlán 	7	Santa Rita 	2	Febrero	2023-02-23T00:00:00	2024-11-08T21:00:00	4	Temperatura máxima	18.1
78355	7	Sololá	704	Santa Lucía Utatlán 	7	Santa Rita 	2	Febrero	2023-02-23T00:00:00	2024-11-08T21:00:00	3	Temperatura mínima	16.9
78356	7	Sololá	704	Santa Lucía Utatlán 	7	Santa Rita 	2	Febrero	2023-02-23T00:00:00	2024-11-08T21:00:00	5	Humedad	70
78357	7	Sololá	704	Santa Lucía Utatlán 	7	Santa Rita 	2	Febrero	2023-02-23T00:00:00	2024-11-08T21:00:00	6	Velocidad del viento	1.6
78358	7	Sololá	704	Santa Lucía Utatlán 	7	Santa Rita 	2	Febrero	2023-02-23T00:00:00	2024-11-08T21:00:00	7	Dirección del viento	1.61
78359	7	Sololá	704	Santa Lucía Utatlán 	7	Santa Rita 	2	Febrero	2023-02-23T00:00:00	2024-11-08T21:00:00	1	Precipitación	0
78360	7	Sololá	704	Santa Lucía Utatlán 	7	Santa Rita 	2	Febrero	2023-02-23T00:00:00	2024-11-08T21:00:00	8	Radiación solar	0
78361	7	Sololá	704	Santa Lucía Utatlán 	7	Santa Rita 	2	Febrero	2023-02-23T00:00:00	2024-11-08T22:00:00	2	Temperatura media	16
78362	7	Sololá	704	Santa Lucía Utatlán 	7	Santa Rita 	2	Febrero	2023-02-23T00:00:00	2024-11-08T22:00:00	4	Temperatura máxima	16.9
78363	7	Sololá	704	Santa Lucía Utatlán 	7	Santa Rita 	2	Febrero	2023-02-23T00:00:00	2024-11-08T22:00:00	3	Temperatura mínima	16
78364	7	Sololá	704	Santa Lucía Utatlán 	7	Santa Rita 	2	Febrero	2023-02-23T00:00:00	2024-11-08T22:00:00	5	Humedad	73
78365	7	Sololá	704	Santa Lucía Utatlán 	7	Santa Rita 	2	Febrero	2023-02-23T00:00:00	2024-11-08T22:00:00	6	Velocidad del viento	1.6
78366	7	Sololá	704	Santa Lucía Utatlán 	7	Santa Rita 	2	Febrero	2023-02-23T00:00:00	2024-11-08T22:00:00	7	Dirección del viento	1.61
78367	7	Sololá	704	Santa Lucía Utatlán 	7	Santa Rita 	2	Febrero	2023-02-23T00:00:00	2024-11-08T22:00:00	1	Precipitación	0
78368	7	Sololá	704	Santa Lucía Utatlán 	7	Santa Rita 	2	Febrero	2023-02-23T00:00:00	2024-11-08T22:00:00	8	Radiación solar	0
78369	7	Sololá	704	Santa Lucía Utatlán 	7	Santa Rita 	2	Febrero	2023-02-23T00:00:00	2024-11-08T23:00:00	2	Temperatura media	15.2
78370	7	Sololá	704	Santa Lucía Utatlán 	7	Santa Rita 	2	Febrero	2023-02-23T00:00:00	2024-11-08T23:00:00	4	Temperatura máxima	16.9
78371	7	Sololá	704	Santa Lucía Utatlán 	7	Santa Rita 	2	Febrero	2023-02-23T00:00:00	2024-11-08T23:00:00	3	Temperatura mínima	15.2
78372	7	Sololá	704	Santa Lucía Utatlán 	7	Santa Rita 	2	Febrero	2023-02-23T00:00:00	2024-11-08T23:00:00	5	Humedad	70
78373	7	Sololá	704	Santa Lucía Utatlán 	7	Santa Rita 	2	Febrero	2023-02-23T00:00:00	2024-11-08T23:00:00	6	Velocidad del viento	1.6
78374	7	Sololá	704	Santa Lucía Utatlán 	7	Santa Rita 	2	Febrero	2023-02-23T00:00:00	2024-11-08T23:00:00	7	Dirección del viento	1.61
78375	7	Sololá	704	Santa Lucía Utatlán 	7	Santa Rita 	2	Febrero	2023-02-23T00:00:00	2024-11-08T23:00:00	1	Precipitación	0
78376	7	Sololá	704	Santa Lucía Utatlán 	7	Santa Rita 	2	Febrero	2023-02-23T00:00:00	2024-11-08T23:00:00	8	Radiación solar	0
78377	7	Sololá	704	Santa Lucía Utatlán 	7	Santa Rita 	2	Febrero	2023-02-24T00:00:00	2024-11-08T00:00:00	2	Temperatura media	15.2
78378	7	Sololá	704	Santa Lucía Utatlán 	7	Santa Rita 	2	Febrero	2023-02-24T00:00:00	2024-11-08T00:00:00	4	Temperatura máxima	15.2
78379	7	Sololá	704	Santa Lucía Utatlán 	7	Santa Rita 	2	Febrero	2023-02-24T00:00:00	2024-11-08T00:00:00	3	Temperatura mínima	14.6
78380	7	Sololá	704	Santa Lucía Utatlán 	7	Santa Rita 	2	Febrero	2023-02-24T00:00:00	2024-11-08T00:00:00	5	Humedad	75
78381	7	Sololá	704	Santa Lucía Utatlán 	7	Santa Rita 	2	Febrero	2023-02-24T00:00:00	2024-11-08T00:00:00	6	Velocidad del viento	1.6
78382	7	Sololá	704	Santa Lucía Utatlán 	7	Santa Rita 	2	Febrero	2023-02-24T00:00:00	2024-11-08T00:00:00	7	Dirección del viento	1.61
78383	7	Sololá	704	Santa Lucía Utatlán 	7	Santa Rita 	2	Febrero	2023-02-24T00:00:00	2024-11-08T00:00:00	1	Precipitación	0
78384	7	Sololá	704	Santa Lucía Utatlán 	7	Santa Rita 	2	Febrero	2023-02-24T00:00:00	2024-11-08T00:00:00	8	Radiación solar	0
78385	7	Sololá	704	Santa Lucía Utatlán 	7	Santa Rita 	2	Febrero	2023-02-24T00:00:00	2024-11-08T01:00:00	2	Temperatura media	15.2
78386	7	Sololá	704	Santa Lucía Utatlán 	7	Santa Rita 	2	Febrero	2023-02-24T00:00:00	2024-11-08T01:00:00	4	Temperatura máxima	16.2
78387	7	Sololá	704	Santa Lucía Utatlán 	7	Santa Rita 	2	Febrero	2023-02-24T00:00:00	2024-11-08T01:00:00	3	Temperatura mínima	15.2
78388	7	Sololá	704	Santa Lucía Utatlán 	7	Santa Rita 	2	Febrero	2023-02-24T00:00:00	2024-11-08T01:00:00	5	Humedad	73
78389	7	Sololá	704	Santa Lucía Utatlán 	7	Santa Rita 	2	Febrero	2023-02-24T00:00:00	2024-11-08T01:00:00	6	Velocidad del viento	1.6
78390	7	Sololá	704	Santa Lucía Utatlán 	7	Santa Rita 	2	Febrero	2023-02-24T00:00:00	2024-11-08T01:00:00	7	Dirección del viento	1.61
78391	7	Sololá	704	Santa Lucía Utatlán 	7	Santa Rita 	2	Febrero	2023-02-24T00:00:00	2024-11-08T01:00:00	1	Precipitación	0
78392	7	Sololá	704	Santa Lucía Utatlán 	7	Santa Rita 	2	Febrero	2023-02-24T00:00:00	2024-11-08T01:00:00	8	Radiación solar	0
78393	7	Sololá	704	Santa Lucía Utatlán 	7	Santa Rita 	2	Febrero	2023-02-24T00:00:00	2024-11-08T02:00:00	2	Temperatura media	14.4
78394	7	Sololá	704	Santa Lucía Utatlán 	7	Santa Rita 	2	Febrero	2023-02-24T00:00:00	2024-11-08T02:00:00	4	Temperatura máxima	15.2
78395	7	Sololá	704	Santa Lucía Utatlán 	7	Santa Rita 	2	Febrero	2023-02-24T00:00:00	2024-11-08T02:00:00	3	Temperatura mínima	14.4
78396	7	Sololá	704	Santa Lucía Utatlán 	7	Santa Rita 	2	Febrero	2023-02-24T00:00:00	2024-11-08T02:00:00	5	Humedad	67
78397	7	Sololá	704	Santa Lucía Utatlán 	7	Santa Rita 	2	Febrero	2023-02-24T00:00:00	2024-11-08T02:00:00	6	Velocidad del viento	3.2
78398	7	Sololá	704	Santa Lucía Utatlán 	7	Santa Rita 	2	Febrero	2023-02-24T00:00:00	2024-11-08T02:00:00	7	Dirección del viento	3.22
78399	7	Sololá	704	Santa Lucía Utatlán 	7	Santa Rita 	2	Febrero	2023-02-24T00:00:00	2024-11-08T02:00:00	1	Precipitación	0
78400	7	Sololá	704	Santa Lucía Utatlán 	7	Santa Rita 	2	Febrero	2023-02-24T00:00:00	2024-11-08T02:00:00	8	Radiación solar	0
78401	7	Sololá	704	Santa Lucía Utatlán 	7	Santa Rita 	2	Febrero	2023-02-24T00:00:00	2024-11-08T03:00:00	2	Temperatura media	14
78402	7	Sololá	704	Santa Lucía Utatlán 	7	Santa Rita 	2	Febrero	2023-02-24T00:00:00	2024-11-08T03:00:00	4	Temperatura máxima	14.4
78403	7	Sololá	704	Santa Lucía Utatlán 	7	Santa Rita 	2	Febrero	2023-02-24T00:00:00	2024-11-08T03:00:00	3	Temperatura mínima	13.6
78404	7	Sololá	704	Santa Lucía Utatlán 	7	Santa Rita 	2	Febrero	2023-02-24T00:00:00	2024-11-08T03:00:00	5	Humedad	66
78405	7	Sololá	704	Santa Lucía Utatlán 	7	Santa Rita 	2	Febrero	2023-02-24T00:00:00	2024-11-08T03:00:00	6	Velocidad del viento	3.2
78406	7	Sololá	704	Santa Lucía Utatlán 	7	Santa Rita 	2	Febrero	2023-02-24T00:00:00	2024-11-08T03:00:00	7	Dirección del viento	3.22
78407	7	Sololá	704	Santa Lucía Utatlán 	7	Santa Rita 	2	Febrero	2023-02-24T00:00:00	2024-11-08T03:00:00	1	Precipitación	0
78408	7	Sololá	704	Santa Lucía Utatlán 	7	Santa Rita 	2	Febrero	2023-02-24T00:00:00	2024-11-08T03:00:00	8	Radiación solar	0
78409	7	Sololá	704	Santa Lucía Utatlán 	7	Santa Rita 	2	Febrero	2023-02-24T00:00:00	2024-11-08T04:00:00	2	Temperatura media	14.3
78410	7	Sololá	704	Santa Lucía Utatlán 	7	Santa Rita 	2	Febrero	2023-02-24T00:00:00	2024-11-08T04:00:00	4	Temperatura máxima	14.3
78411	7	Sololá	704	Santa Lucía Utatlán 	7	Santa Rita 	2	Febrero	2023-02-24T00:00:00	2024-11-08T04:00:00	3	Temperatura mínima	13.7
78412	7	Sololá	704	Santa Lucía Utatlán 	7	Santa Rita 	2	Febrero	2023-02-24T00:00:00	2024-11-08T04:00:00	5	Humedad	55
78413	7	Sololá	704	Santa Lucía Utatlán 	7	Santa Rita 	2	Febrero	2023-02-24T00:00:00	2024-11-08T04:00:00	6	Velocidad del viento	4.8
78414	7	Sololá	704	Santa Lucía Utatlán 	7	Santa Rita 	2	Febrero	2023-02-24T00:00:00	2024-11-08T04:00:00	7	Dirección del viento	4.83
78415	7	Sololá	704	Santa Lucía Utatlán 	7	Santa Rita 	2	Febrero	2023-02-24T00:00:00	2024-11-08T04:00:00	1	Precipitación	0
78416	7	Sololá	704	Santa Lucía Utatlán 	7	Santa Rita 	2	Febrero	2023-02-24T00:00:00	2024-11-08T04:00:00	8	Radiación solar	0
78417	7	Sololá	704	Santa Lucía Utatlán 	7	Santa Rita 	2	Febrero	2023-02-24T00:00:00	2024-11-08T05:00:00	2	Temperatura media	14.8
78418	7	Sololá	704	Santa Lucía Utatlán 	7	Santa Rita 	2	Febrero	2023-02-24T00:00:00	2024-11-08T05:00:00	4	Temperatura máxima	14.8
78419	7	Sololá	704	Santa Lucía Utatlán 	7	Santa Rita 	2	Febrero	2023-02-24T00:00:00	2024-11-08T05:00:00	3	Temperatura mínima	14
78420	7	Sololá	704	Santa Lucía Utatlán 	7	Santa Rita 	2	Febrero	2023-02-24T00:00:00	2024-11-08T05:00:00	5	Humedad	44
78421	7	Sololá	704	Santa Lucía Utatlán 	7	Santa Rita 	2	Febrero	2023-02-24T00:00:00	2024-11-08T05:00:00	6	Velocidad del viento	3.2
78422	7	Sololá	704	Santa Lucía Utatlán 	7	Santa Rita 	2	Febrero	2023-02-24T00:00:00	2024-11-08T05:00:00	7	Dirección del viento	3.22
78423	7	Sololá	704	Santa Lucía Utatlán 	7	Santa Rita 	2	Febrero	2023-02-24T00:00:00	2024-11-08T05:00:00	1	Precipitación	0
78424	7	Sololá	704	Santa Lucía Utatlán 	7	Santa Rita 	2	Febrero	2023-02-24T00:00:00	2024-11-08T05:00:00	8	Radiación solar	0
78425	7	Sololá	704	Santa Lucía Utatlán 	7	Santa Rita 	2	Febrero	2023-02-24T00:00:00	2024-11-08T06:00:00	2	Temperatura media	13.9
78426	7	Sololá	704	Santa Lucía Utatlán 	7	Santa Rita 	2	Febrero	2023-02-24T00:00:00	2024-11-08T06:00:00	4	Temperatura máxima	15.6
78427	7	Sololá	704	Santa Lucía Utatlán 	7	Santa Rita 	2	Febrero	2023-02-24T00:00:00	2024-11-08T06:00:00	3	Temperatura mínima	13.8
78428	7	Sololá	704	Santa Lucía Utatlán 	7	Santa Rita 	2	Febrero	2023-02-24T00:00:00	2024-11-08T06:00:00	5	Humedad	49
78429	7	Sololá	704	Santa Lucía Utatlán 	7	Santa Rita 	2	Febrero	2023-02-24T00:00:00	2024-11-08T06:00:00	6	Velocidad del viento	3.2
78430	7	Sololá	704	Santa Lucía Utatlán 	7	Santa Rita 	2	Febrero	2023-02-24T00:00:00	2024-11-08T06:00:00	7	Dirección del viento	3.22
78431	7	Sololá	704	Santa Lucía Utatlán 	7	Santa Rita 	2	Febrero	2023-02-24T00:00:00	2024-11-08T06:00:00	1	Precipitación	0
78432	7	Sololá	704	Santa Lucía Utatlán 	7	Santa Rita 	2	Febrero	2023-02-24T00:00:00	2024-11-08T06:00:00	8	Radiación solar	0
78433	7	Sololá	704	Santa Lucía Utatlán 	7	Santa Rita 	2	Febrero	2023-02-24T00:00:00	2024-11-08T07:00:00	2	Temperatura media	15.1
78434	7	Sololá	704	Santa Lucía Utatlán 	7	Santa Rita 	2	Febrero	2023-02-24T00:00:00	2024-11-08T07:00:00	4	Temperatura máxima	15.1
78435	7	Sololá	704	Santa Lucía Utatlán 	7	Santa Rita 	2	Febrero	2023-02-24T00:00:00	2024-11-08T07:00:00	3	Temperatura mínima	13.8
78436	7	Sololá	704	Santa Lucía Utatlán 	7	Santa Rita 	2	Febrero	2023-02-24T00:00:00	2024-11-08T07:00:00	5	Humedad	42
78437	7	Sololá	704	Santa Lucía Utatlán 	7	Santa Rita 	2	Febrero	2023-02-24T00:00:00	2024-11-08T07:00:00	6	Velocidad del viento	3.2
78438	7	Sololá	704	Santa Lucía Utatlán 	7	Santa Rita 	2	Febrero	2023-02-24T00:00:00	2024-11-08T07:00:00	7	Dirección del viento	3.22
78439	7	Sololá	704	Santa Lucía Utatlán 	7	Santa Rita 	2	Febrero	2023-02-24T00:00:00	2024-11-08T07:00:00	1	Precipitación	0
78440	7	Sololá	704	Santa Lucía Utatlán 	7	Santa Rita 	2	Febrero	2023-02-24T00:00:00	2024-11-08T07:00:00	8	Radiación solar	7
78441	7	Sololá	704	Santa Lucía Utatlán 	7	Santa Rita 	2	Febrero	2023-02-24T00:00:00	2024-11-08T08:00:00	2	Temperatura media	20.3
78442	7	Sololá	704	Santa Lucía Utatlán 	7	Santa Rita 	2	Febrero	2023-02-24T00:00:00	2024-11-08T08:00:00	4	Temperatura máxima	20.3
78443	7	Sololá	704	Santa Lucía Utatlán 	7	Santa Rita 	2	Febrero	2023-02-24T00:00:00	2024-11-08T08:00:00	3	Temperatura mínima	15.1
78444	7	Sololá	704	Santa Lucía Utatlán 	7	Santa Rita 	2	Febrero	2023-02-24T00:00:00	2024-11-08T08:00:00	5	Humedad	27
78445	7	Sololá	704	Santa Lucía Utatlán 	7	Santa Rita 	2	Febrero	2023-02-24T00:00:00	2024-11-08T08:00:00	6	Velocidad del viento	1.6
78446	7	Sololá	704	Santa Lucía Utatlán 	7	Santa Rita 	2	Febrero	2023-02-24T00:00:00	2024-11-08T08:00:00	7	Dirección del viento	1.61
78447	7	Sololá	704	Santa Lucía Utatlán 	7	Santa Rita 	2	Febrero	2023-02-24T00:00:00	2024-11-08T08:00:00	1	Precipitación	0
78448	7	Sololá	704	Santa Lucía Utatlán 	7	Santa Rita 	2	Febrero	2023-02-24T00:00:00	2024-11-08T08:00:00	8	Radiación solar	173
78449	7	Sololá	704	Santa Lucía Utatlán 	7	Santa Rita 	2	Febrero	2023-02-24T00:00:00	2024-11-08T09:00:00	2	Temperatura media	22.1
78450	7	Sololá	704	Santa Lucía Utatlán 	7	Santa Rita 	2	Febrero	2023-02-24T00:00:00	2024-11-08T09:00:00	4	Temperatura máxima	22.3
78451	7	Sololá	704	Santa Lucía Utatlán 	7	Santa Rita 	2	Febrero	2023-02-24T00:00:00	2024-11-08T09:00:00	3	Temperatura mínima	20.3
78452	7	Sololá	704	Santa Lucía Utatlán 	7	Santa Rita 	2	Febrero	2023-02-24T00:00:00	2024-11-08T09:00:00	5	Humedad	25
78453	7	Sololá	704	Santa Lucía Utatlán 	7	Santa Rita 	2	Febrero	2023-02-24T00:00:00	2024-11-08T09:00:00	6	Velocidad del viento	3.2
78454	7	Sololá	704	Santa Lucía Utatlán 	7	Santa Rita 	2	Febrero	2023-02-24T00:00:00	2024-11-08T09:00:00	7	Dirección del viento	3.22
78455	7	Sololá	704	Santa Lucía Utatlán 	7	Santa Rita 	2	Febrero	2023-02-24T00:00:00	2024-11-08T09:00:00	1	Precipitación	0
78456	7	Sololá	704	Santa Lucía Utatlán 	7	Santa Rita 	2	Febrero	2023-02-24T00:00:00	2024-11-08T09:00:00	8	Radiación solar	426
78457	7	Sololá	704	Santa Lucía Utatlán 	7	Santa Rita 	2	Febrero	2023-02-24T00:00:00	2024-11-08T10:00:00	2	Temperatura media	24.1
78458	7	Sololá	704	Santa Lucía Utatlán 	7	Santa Rita 	2	Febrero	2023-02-24T00:00:00	2024-11-08T10:00:00	4	Temperatura máxima	24.1
78459	7	Sololá	704	Santa Lucía Utatlán 	7	Santa Rita 	2	Febrero	2023-02-24T00:00:00	2024-11-08T10:00:00	3	Temperatura mínima	21.9
78460	7	Sololá	704	Santa Lucía Utatlán 	7	Santa Rita 	2	Febrero	2023-02-24T00:00:00	2024-11-08T10:00:00	5	Humedad	29
78461	7	Sololá	704	Santa Lucía Utatlán 	7	Santa Rita 	2	Febrero	2023-02-24T00:00:00	2024-11-08T10:00:00	6	Velocidad del viento	4.8
78462	7	Sololá	704	Santa Lucía Utatlán 	7	Santa Rita 	2	Febrero	2023-02-24T00:00:00	2024-11-08T10:00:00	7	Dirección del viento	4.83
78463	7	Sololá	704	Santa Lucía Utatlán 	7	Santa Rita 	2	Febrero	2023-02-24T00:00:00	2024-11-08T10:00:00	1	Precipitación	0
78464	7	Sololá	704	Santa Lucía Utatlán 	7	Santa Rita 	2	Febrero	2023-02-24T00:00:00	2024-11-08T10:00:00	8	Radiación solar	569
78465	7	Sololá	704	Santa Lucía Utatlán 	7	Santa Rita 	2	Febrero	2023-02-24T00:00:00	2024-11-08T11:00:00	2	Temperatura media	25.6
78466	7	Sololá	704	Santa Lucía Utatlán 	7	Santa Rita 	2	Febrero	2023-02-24T00:00:00	2024-11-08T11:00:00	4	Temperatura máxima	25.6
78467	7	Sololá	704	Santa Lucía Utatlán 	7	Santa Rita 	2	Febrero	2023-02-24T00:00:00	2024-11-08T11:00:00	3	Temperatura mínima	23.9
78468	7	Sololá	704	Santa Lucía Utatlán 	7	Santa Rita 	2	Febrero	2023-02-24T00:00:00	2024-11-08T11:00:00	5	Humedad	28
78469	7	Sololá	704	Santa Lucía Utatlán 	7	Santa Rita 	2	Febrero	2023-02-24T00:00:00	2024-11-08T11:00:00	6	Velocidad del viento	6.4
78470	7	Sololá	704	Santa Lucía Utatlán 	7	Santa Rita 	2	Febrero	2023-02-24T00:00:00	2024-11-08T11:00:00	7	Dirección del viento	6.44
78471	7	Sololá	704	Santa Lucía Utatlán 	7	Santa Rita 	2	Febrero	2023-02-24T00:00:00	2024-11-08T11:00:00	1	Precipitación	0
78472	7	Sololá	704	Santa Lucía Utatlán 	7	Santa Rita 	2	Febrero	2023-02-24T00:00:00	2024-11-08T11:00:00	8	Radiación solar	681
78473	7	Sololá	704	Santa Lucía Utatlán 	7	Santa Rita 	2	Febrero	2023-02-24T00:00:00	2024-11-08T12:00:00	2	Temperatura media	25.4
78474	7	Sololá	704	Santa Lucía Utatlán 	7	Santa Rita 	2	Febrero	2023-02-24T00:00:00	2024-11-08T12:00:00	4	Temperatura máxima	25.6
78475	7	Sololá	704	Santa Lucía Utatlán 	7	Santa Rita 	2	Febrero	2023-02-24T00:00:00	2024-11-08T12:00:00	3	Temperatura mínima	25.1
78476	7	Sololá	704	Santa Lucía Utatlán 	7	Santa Rita 	2	Febrero	2023-02-24T00:00:00	2024-11-08T12:00:00	5	Humedad	35
78477	7	Sololá	704	Santa Lucía Utatlán 	7	Santa Rita 	2	Febrero	2023-02-24T00:00:00	2024-11-08T12:00:00	6	Velocidad del viento	8
78478	7	Sololá	704	Santa Lucía Utatlán 	7	Santa Rita 	2	Febrero	2023-02-24T00:00:00	2024-11-08T12:00:00	7	Dirección del viento	8.05
78479	7	Sololá	704	Santa Lucía Utatlán 	7	Santa Rita 	2	Febrero	2023-02-24T00:00:00	2024-11-08T12:00:00	1	Precipitación	0
78480	7	Sololá	704	Santa Lucía Utatlán 	7	Santa Rita 	2	Febrero	2023-02-24T00:00:00	2024-11-08T12:00:00	8	Radiación solar	898
78481	7	Sololá	704	Santa Lucía Utatlán 	7	Santa Rita 	2	Febrero	2023-02-24T00:00:00	2024-11-08T13:00:00	2	Temperatura media	25
78482	7	Sololá	704	Santa Lucía Utatlán 	7	Santa Rita 	2	Febrero	2023-02-24T00:00:00	2024-11-08T13:00:00	4	Temperatura máxima	25.6
78483	7	Sololá	704	Santa Lucía Utatlán 	7	Santa Rita 	2	Febrero	2023-02-24T00:00:00	2024-11-08T13:00:00	3	Temperatura mínima	24.4
78484	7	Sololá	704	Santa Lucía Utatlán 	7	Santa Rita 	2	Febrero	2023-02-24T00:00:00	2024-11-08T13:00:00	5	Humedad	41
78485	7	Sololá	704	Santa Lucía Utatlán 	7	Santa Rita 	2	Febrero	2023-02-24T00:00:00	2024-11-08T13:00:00	6	Velocidad del viento	9.7
78486	7	Sololá	704	Santa Lucía Utatlán 	7	Santa Rita 	2	Febrero	2023-02-24T00:00:00	2024-11-08T13:00:00	7	Dirección del viento	9.66
78487	7	Sololá	704	Santa Lucía Utatlán 	7	Santa Rita 	2	Febrero	2023-02-24T00:00:00	2024-11-08T13:00:00	1	Precipitación	0
78488	7	Sololá	704	Santa Lucía Utatlán 	7	Santa Rita 	2	Febrero	2023-02-24T00:00:00	2024-11-08T13:00:00	8	Radiación solar	893
78489	7	Sololá	704	Santa Lucía Utatlán 	7	Santa Rita 	2	Febrero	2023-02-24T00:00:00	2024-11-08T14:00:00	2	Temperatura media	25
78490	7	Sololá	704	Santa Lucía Utatlán 	7	Santa Rita 	2	Febrero	2023-02-24T00:00:00	2024-11-08T14:00:00	4	Temperatura máxima	25.7
78491	7	Sololá	704	Santa Lucía Utatlán 	7	Santa Rita 	2	Febrero	2023-02-24T00:00:00	2024-11-08T14:00:00	3	Temperatura mínima	24.6
78492	7	Sololá	704	Santa Lucía Utatlán 	7	Santa Rita 	2	Febrero	2023-02-24T00:00:00	2024-11-08T14:00:00	5	Humedad	51
78493	7	Sololá	704	Santa Lucía Utatlán 	7	Santa Rita 	2	Febrero	2023-02-24T00:00:00	2024-11-08T14:00:00	6	Velocidad del viento	8
78494	7	Sololá	704	Santa Lucía Utatlán 	7	Santa Rita 	2	Febrero	2023-02-24T00:00:00	2024-11-08T14:00:00	7	Dirección del viento	8.05
78495	7	Sololá	704	Santa Lucía Utatlán 	7	Santa Rita 	2	Febrero	2023-02-24T00:00:00	2024-11-08T14:00:00	1	Precipitación	0
78496	7	Sololá	704	Santa Lucía Utatlán 	7	Santa Rita 	2	Febrero	2023-02-24T00:00:00	2024-11-08T14:00:00	8	Radiación solar	775
78497	7	Sololá	704	Santa Lucía Utatlán 	7	Santa Rita 	2	Febrero	2023-02-24T00:00:00	2024-11-08T15:00:00	2	Temperatura media	24
78498	7	Sololá	704	Santa Lucía Utatlán 	7	Santa Rita 	2	Febrero	2023-02-24T00:00:00	2024-11-08T15:00:00	4	Temperatura máxima	25
78499	7	Sololá	704	Santa Lucía Utatlán 	7	Santa Rita 	2	Febrero	2023-02-24T00:00:00	2024-11-08T15:00:00	3	Temperatura mínima	23.8
78500	7	Sololá	704	Santa Lucía Utatlán 	7	Santa Rita 	2	Febrero	2023-02-24T00:00:00	2024-11-08T15:00:00	5	Humedad	62
78501	7	Sololá	704	Santa Lucía Utatlán 	7	Santa Rita 	2	Febrero	2023-02-24T00:00:00	2024-11-08T15:00:00	6	Velocidad del viento	8
78502	7	Sololá	704	Santa Lucía Utatlán 	7	Santa Rita 	2	Febrero	2023-02-24T00:00:00	2024-11-08T15:00:00	7	Dirección del viento	8.05
78503	7	Sololá	704	Santa Lucía Utatlán 	7	Santa Rita 	2	Febrero	2023-02-24T00:00:00	2024-11-08T15:00:00	1	Precipitación	0
78504	7	Sololá	704	Santa Lucía Utatlán 	7	Santa Rita 	2	Febrero	2023-02-24T00:00:00	2024-11-08T15:00:00	8	Radiación solar	685
78505	7	Sololá	704	Santa Lucía Utatlán 	7	Santa Rita 	2	Febrero	2023-02-24T00:00:00	2024-11-08T16:00:00	2	Temperatura media	23.1
78506	7	Sololá	704	Santa Lucía Utatlán 	7	Santa Rita 	2	Febrero	2023-02-24T00:00:00	2024-11-08T16:00:00	4	Temperatura máxima	24
78507	7	Sololá	704	Santa Lucía Utatlán 	7	Santa Rita 	2	Febrero	2023-02-24T00:00:00	2024-11-08T16:00:00	3	Temperatura mínima	22.8
78508	7	Sololá	704	Santa Lucía Utatlán 	7	Santa Rita 	2	Febrero	2023-02-24T00:00:00	2024-11-08T16:00:00	5	Humedad	69
78509	7	Sololá	704	Santa Lucía Utatlán 	7	Santa Rita 	2	Febrero	2023-02-24T00:00:00	2024-11-08T16:00:00	6	Velocidad del viento	6.4
78510	7	Sololá	704	Santa Lucía Utatlán 	7	Santa Rita 	2	Febrero	2023-02-24T00:00:00	2024-11-08T16:00:00	7	Dirección del viento	6.44
78511	7	Sololá	704	Santa Lucía Utatlán 	7	Santa Rita 	2	Febrero	2023-02-24T00:00:00	2024-11-08T16:00:00	1	Precipitación	0
78512	7	Sololá	704	Santa Lucía Utatlán 	7	Santa Rita 	2	Febrero	2023-02-24T00:00:00	2024-11-08T16:00:00	8	Radiación solar	533
78513	7	Sololá	704	Santa Lucía Utatlán 	7	Santa Rita 	2	Febrero	2023-02-24T00:00:00	2024-11-08T17:00:00	2	Temperatura media	21.9
78514	7	Sololá	704	Santa Lucía Utatlán 	7	Santa Rita 	2	Febrero	2023-02-24T00:00:00	2024-11-08T17:00:00	4	Temperatura máxima	23.1
78515	7	Sololá	704	Santa Lucía Utatlán 	7	Santa Rita 	2	Febrero	2023-02-24T00:00:00	2024-11-08T17:00:00	3	Temperatura mínima	21.9
78516	7	Sololá	704	Santa Lucía Utatlán 	7	Santa Rita 	2	Febrero	2023-02-24T00:00:00	2024-11-08T17:00:00	5	Humedad	75
78517	7	Sololá	704	Santa Lucía Utatlán 	7	Santa Rita 	2	Febrero	2023-02-24T00:00:00	2024-11-08T17:00:00	6	Velocidad del viento	6.4
78518	7	Sololá	704	Santa Lucía Utatlán 	7	Santa Rita 	2	Febrero	2023-02-24T00:00:00	2024-11-08T17:00:00	7	Dirección del viento	6.44
78519	7	Sololá	704	Santa Lucía Utatlán 	7	Santa Rita 	2	Febrero	2023-02-24T00:00:00	2024-11-08T17:00:00	1	Precipitación	0
78520	7	Sololá	704	Santa Lucía Utatlán 	7	Santa Rita 	2	Febrero	2023-02-24T00:00:00	2024-11-08T17:00:00	8	Radiación solar	322
78521	7	Sololá	704	Santa Lucía Utatlán 	7	Santa Rita 	2	Febrero	2023-02-24T00:00:00	2024-11-08T18:00:00	2	Temperatura media	19.9
78522	7	Sololá	704	Santa Lucía Utatlán 	7	Santa Rita 	2	Febrero	2023-02-24T00:00:00	2024-11-08T18:00:00	4	Temperatura máxima	21.9
78523	7	Sololá	704	Santa Lucía Utatlán 	7	Santa Rita 	2	Febrero	2023-02-24T00:00:00	2024-11-08T18:00:00	3	Temperatura mínima	19.9
78524	7	Sololá	704	Santa Lucía Utatlán 	7	Santa Rita 	2	Febrero	2023-02-24T00:00:00	2024-11-08T18:00:00	5	Humedad	84
78525	7	Sololá	704	Santa Lucía Utatlán 	7	Santa Rita 	2	Febrero	2023-02-24T00:00:00	2024-11-08T18:00:00	6	Velocidad del viento	3.2
78526	7	Sololá	704	Santa Lucía Utatlán 	7	Santa Rita 	2	Febrero	2023-02-24T00:00:00	2024-11-08T18:00:00	7	Dirección del viento	3.22
78527	7	Sololá	704	Santa Lucía Utatlán 	7	Santa Rita 	2	Febrero	2023-02-24T00:00:00	2024-11-08T18:00:00	1	Precipitación	0
78528	7	Sololá	704	Santa Lucía Utatlán 	7	Santa Rita 	2	Febrero	2023-02-24T00:00:00	2024-11-08T18:00:00	8	Radiación solar	50
78529	7	Sololá	704	Santa Lucía Utatlán 	7	Santa Rita 	2	Febrero	2023-02-24T00:00:00	2024-11-08T19:00:00	2	Temperatura media	17.9
78530	7	Sololá	704	Santa Lucía Utatlán 	7	Santa Rita 	2	Febrero	2023-02-24T00:00:00	2024-11-08T19:00:00	4	Temperatura máxima	19.9
78531	7	Sololá	704	Santa Lucía Utatlán 	7	Santa Rita 	2	Febrero	2023-02-24T00:00:00	2024-11-08T19:00:00	3	Temperatura mínima	17.8
78532	7	Sololá	704	Santa Lucía Utatlán 	7	Santa Rita 	2	Febrero	2023-02-24T00:00:00	2024-11-08T19:00:00	5	Humedad	74
78533	7	Sololá	704	Santa Lucía Utatlán 	7	Santa Rita 	2	Febrero	2023-02-24T00:00:00	2024-11-08T19:00:00	6	Velocidad del viento	1.6
78534	7	Sololá	704	Santa Lucía Utatlán 	7	Santa Rita 	2	Febrero	2023-02-24T00:00:00	2024-11-08T19:00:00	7	Dirección del viento	1.61
78535	7	Sololá	704	Santa Lucía Utatlán 	7	Santa Rita 	2	Febrero	2023-02-24T00:00:00	2024-11-08T19:00:00	1	Precipitación	0
78536	7	Sololá	704	Santa Lucía Utatlán 	7	Santa Rita 	2	Febrero	2023-02-24T00:00:00	2024-11-08T19:00:00	8	Radiación solar	0
78537	7	Sololá	704	Santa Lucía Utatlán 	7	Santa Rita 	2	Febrero	2023-02-24T00:00:00	2024-11-08T20:00:00	2	Temperatura media	17.4
78538	7	Sololá	704	Santa Lucía Utatlán 	7	Santa Rita 	2	Febrero	2023-02-24T00:00:00	2024-11-08T20:00:00	4	Temperatura máxima	17.9
78539	7	Sololá	704	Santa Lucía Utatlán 	7	Santa Rita 	2	Febrero	2023-02-24T00:00:00	2024-11-08T20:00:00	3	Temperatura mínima	17.3
78540	7	Sololá	704	Santa Lucía Utatlán 	7	Santa Rita 	2	Febrero	2023-02-24T00:00:00	2024-11-08T20:00:00	5	Humedad	68
78541	7	Sololá	704	Santa Lucía Utatlán 	7	Santa Rita 	2	Febrero	2023-02-24T00:00:00	2024-11-08T20:00:00	6	Velocidad del viento	3.2
78542	7	Sololá	704	Santa Lucía Utatlán 	7	Santa Rita 	2	Febrero	2023-02-24T00:00:00	2024-11-08T20:00:00	7	Dirección del viento	3.22
78543	7	Sololá	704	Santa Lucía Utatlán 	7	Santa Rita 	2	Febrero	2023-02-24T00:00:00	2024-11-08T20:00:00	1	Precipitación	0
78544	7	Sololá	704	Santa Lucía Utatlán 	7	Santa Rita 	2	Febrero	2023-02-24T00:00:00	2024-11-08T20:00:00	8	Radiación solar	0
78545	7	Sololá	704	Santa Lucía Utatlán 	7	Santa Rita 	2	Febrero	2023-02-24T00:00:00	2024-11-08T21:00:00	2	Temperatura media	16.3
78546	7	Sololá	704	Santa Lucía Utatlán 	7	Santa Rita 	2	Febrero	2023-02-24T00:00:00	2024-11-08T21:00:00	4	Temperatura máxima	17.4
78547	7	Sololá	704	Santa Lucía Utatlán 	7	Santa Rita 	2	Febrero	2023-02-24T00:00:00	2024-11-08T21:00:00	3	Temperatura mínima	16.3
78548	7	Sololá	704	Santa Lucía Utatlán 	7	Santa Rita 	2	Febrero	2023-02-24T00:00:00	2024-11-08T21:00:00	5	Humedad	74
78549	7	Sololá	704	Santa Lucía Utatlán 	7	Santa Rita 	2	Febrero	2023-02-24T00:00:00	2024-11-08T21:00:00	6	Velocidad del viento	0
78550	7	Sololá	704	Santa Lucía Utatlán 	7	Santa Rita 	2	Febrero	2023-02-24T00:00:00	2024-11-08T21:00:00	7	Dirección del viento	0
78551	7	Sololá	704	Santa Lucía Utatlán 	7	Santa Rita 	2	Febrero	2023-02-24T00:00:00	2024-11-08T21:00:00	1	Precipitación	0
78552	7	Sololá	704	Santa Lucía Utatlán 	7	Santa Rita 	2	Febrero	2023-02-24T00:00:00	2024-11-08T21:00:00	8	Radiación solar	0
78553	7	Sololá	704	Santa Lucía Utatlán 	7	Santa Rita 	2	Febrero	2023-02-24T00:00:00	2024-11-08T22:00:00	2	Temperatura media	15.6
78554	7	Sololá	704	Santa Lucía Utatlán 	7	Santa Rita 	2	Febrero	2023-02-24T00:00:00	2024-11-08T22:00:00	4	Temperatura máxima	16.3
78555	7	Sololá	704	Santa Lucía Utatlán 	7	Santa Rita 	2	Febrero	2023-02-24T00:00:00	2024-11-08T22:00:00	3	Temperatura mínima	15.6
78556	7	Sololá	704	Santa Lucía Utatlán 	7	Santa Rita 	2	Febrero	2023-02-24T00:00:00	2024-11-08T22:00:00	5	Humedad	72
78557	7	Sololá	704	Santa Lucía Utatlán 	7	Santa Rita 	2	Febrero	2023-02-24T00:00:00	2024-11-08T22:00:00	6	Velocidad del viento	3.2
78558	7	Sololá	704	Santa Lucía Utatlán 	7	Santa Rita 	2	Febrero	2023-02-24T00:00:00	2024-11-08T22:00:00	7	Dirección del viento	3.22
78559	7	Sololá	704	Santa Lucía Utatlán 	7	Santa Rita 	2	Febrero	2023-02-24T00:00:00	2024-11-08T22:00:00	1	Precipitación	0
78560	7	Sololá	704	Santa Lucía Utatlán 	7	Santa Rita 	2	Febrero	2023-02-24T00:00:00	2024-11-08T22:00:00	8	Radiación solar	0
78561	7	Sololá	704	Santa Lucía Utatlán 	7	Santa Rita 	2	Febrero	2023-02-24T00:00:00	2024-11-08T23:00:00	2	Temperatura media	15.8
78562	7	Sololá	704	Santa Lucía Utatlán 	7	Santa Rita 	2	Febrero	2023-02-24T00:00:00	2024-11-08T23:00:00	4	Temperatura máxima	15.9
78563	7	Sololá	704	Santa Lucía Utatlán 	7	Santa Rita 	2	Febrero	2023-02-24T00:00:00	2024-11-08T23:00:00	3	Temperatura mínima	15.5
78564	7	Sololá	704	Santa Lucía Utatlán 	7	Santa Rita 	2	Febrero	2023-02-24T00:00:00	2024-11-08T23:00:00	5	Humedad	55
78565	7	Sololá	704	Santa Lucía Utatlán 	7	Santa Rita 	2	Febrero	2023-02-24T00:00:00	2024-11-08T23:00:00	6	Velocidad del viento	1.6
78566	7	Sololá	704	Santa Lucía Utatlán 	7	Santa Rita 	2	Febrero	2023-02-24T00:00:00	2024-11-08T23:00:00	7	Dirección del viento	1.61
78567	7	Sololá	704	Santa Lucía Utatlán 	7	Santa Rita 	2	Febrero	2023-02-24T00:00:00	2024-11-08T23:00:00	1	Precipitación	0
78568	7	Sololá	704	Santa Lucía Utatlán 	7	Santa Rita 	2	Febrero	2023-02-24T00:00:00	2024-11-08T23:00:00	8	Radiación solar	0
78569	7	Sololá	704	Santa Lucía Utatlán 	7	Santa Rita 	2	Febrero	2023-02-25T00:00:00	2024-11-08T00:00:00	2	Temperatura media	15.9
78570	7	Sololá	704	Santa Lucía Utatlán 	7	Santa Rita 	2	Febrero	2023-02-25T00:00:00	2024-11-08T00:00:00	4	Temperatura máxima	16.1
78571	7	Sololá	704	Santa Lucía Utatlán 	7	Santa Rita 	2	Febrero	2023-02-25T00:00:00	2024-11-08T00:00:00	3	Temperatura mínima	15.8
78572	7	Sololá	704	Santa Lucía Utatlán 	7	Santa Rita 	2	Febrero	2023-02-25T00:00:00	2024-11-08T00:00:00	5	Humedad	50
78573	7	Sololá	704	Santa Lucía Utatlán 	7	Santa Rita 	2	Febrero	2023-02-25T00:00:00	2024-11-08T00:00:00	6	Velocidad del viento	3.2
78574	7	Sololá	704	Santa Lucía Utatlán 	7	Santa Rita 	2	Febrero	2023-02-25T00:00:00	2024-11-08T00:00:00	7	Dirección del viento	3.22
78575	7	Sololá	704	Santa Lucía Utatlán 	7	Santa Rita 	2	Febrero	2023-02-25T00:00:00	2024-11-08T00:00:00	1	Precipitación	0
78576	7	Sololá	704	Santa Lucía Utatlán 	7	Santa Rita 	2	Febrero	2023-02-25T00:00:00	2024-11-08T00:00:00	8	Radiación solar	0
78577	7	Sololá	704	Santa Lucía Utatlán 	7	Santa Rita 	2	Febrero	2023-02-25T00:00:00	2024-11-08T01:00:00	2	Temperatura media	17.1
78578	7	Sololá	704	Santa Lucía Utatlán 	7	Santa Rita 	2	Febrero	2023-02-25T00:00:00	2024-11-08T01:00:00	4	Temperatura máxima	18.4
78579	7	Sololá	704	Santa Lucía Utatlán 	7	Santa Rita 	2	Febrero	2023-02-25T00:00:00	2024-11-08T01:00:00	3	Temperatura mínima	15.7
78580	7	Sololá	704	Santa Lucía Utatlán 	7	Santa Rita 	2	Febrero	2023-02-25T00:00:00	2024-11-08T01:00:00	5	Humedad	44
78581	7	Sololá	704	Santa Lucía Utatlán 	7	Santa Rita 	2	Febrero	2023-02-25T00:00:00	2024-11-08T01:00:00	6	Velocidad del viento	3.2
78582	7	Sololá	704	Santa Lucía Utatlán 	7	Santa Rita 	2	Febrero	2023-02-25T00:00:00	2024-11-08T01:00:00	7	Dirección del viento	3.22
78583	7	Sololá	704	Santa Lucía Utatlán 	7	Santa Rita 	2	Febrero	2023-02-25T00:00:00	2024-11-08T01:00:00	1	Precipitación	0
78584	7	Sololá	704	Santa Lucía Utatlán 	7	Santa Rita 	2	Febrero	2023-02-25T00:00:00	2024-11-08T01:00:00	8	Radiación solar	0
78585	7	Sololá	704	Santa Lucía Utatlán 	7	Santa Rita 	2	Febrero	2023-02-25T00:00:00	2024-11-08T02:00:00	2	Temperatura media	16.4
78586	7	Sololá	704	Santa Lucía Utatlán 	7	Santa Rita 	2	Febrero	2023-02-25T00:00:00	2024-11-08T02:00:00	4	Temperatura máxima	17.1
78587	7	Sololá	704	Santa Lucía Utatlán 	7	Santa Rita 	2	Febrero	2023-02-25T00:00:00	2024-11-08T02:00:00	3	Temperatura mínima	15.9
78588	7	Sololá	704	Santa Lucía Utatlán 	7	Santa Rita 	2	Febrero	2023-02-25T00:00:00	2024-11-08T02:00:00	5	Humedad	37
78589	7	Sololá	704	Santa Lucía Utatlán 	7	Santa Rita 	2	Febrero	2023-02-25T00:00:00	2024-11-08T02:00:00	6	Velocidad del viento	3.2
78590	7	Sololá	704	Santa Lucía Utatlán 	7	Santa Rita 	2	Febrero	2023-02-25T00:00:00	2024-11-08T02:00:00	7	Dirección del viento	3.22
78591	7	Sololá	704	Santa Lucía Utatlán 	7	Santa Rita 	2	Febrero	2023-02-25T00:00:00	2024-11-08T02:00:00	1	Precipitación	0
78592	7	Sololá	704	Santa Lucía Utatlán 	7	Santa Rita 	2	Febrero	2023-02-25T00:00:00	2024-11-08T02:00:00	8	Radiación solar	0
78593	7	Sololá	704	Santa Lucía Utatlán 	7	Santa Rita 	2	Febrero	2023-02-25T00:00:00	2024-11-08T03:00:00	2	Temperatura media	16.7
78594	7	Sololá	704	Santa Lucía Utatlán 	7	Santa Rita 	2	Febrero	2023-02-25T00:00:00	2024-11-08T03:00:00	4	Temperatura máxima	16.7
78595	7	Sololá	704	Santa Lucía Utatlán 	7	Santa Rita 	2	Febrero	2023-02-25T00:00:00	2024-11-08T03:00:00	3	Temperatura mínima	16.3
78596	7	Sololá	704	Santa Lucía Utatlán 	7	Santa Rita 	2	Febrero	2023-02-25T00:00:00	2024-11-08T03:00:00	5	Humedad	36
78597	7	Sololá	704	Santa Lucía Utatlán 	7	Santa Rita 	2	Febrero	2023-02-25T00:00:00	2024-11-08T03:00:00	6	Velocidad del viento	4.8
78598	7	Sololá	704	Santa Lucía Utatlán 	7	Santa Rita 	2	Febrero	2023-02-25T00:00:00	2024-11-08T03:00:00	7	Dirección del viento	4.83
78599	7	Sololá	704	Santa Lucía Utatlán 	7	Santa Rita 	2	Febrero	2023-02-25T00:00:00	2024-11-08T03:00:00	1	Precipitación	0
78600	7	Sololá	704	Santa Lucía Utatlán 	7	Santa Rita 	2	Febrero	2023-02-25T00:00:00	2024-11-08T03:00:00	8	Radiación solar	0
78601	7	Sololá	704	Santa Lucía Utatlán 	7	Santa Rita 	2	Febrero	2023-02-25T00:00:00	2024-11-08T04:00:00	2	Temperatura media	16
78602	7	Sololá	704	Santa Lucía Utatlán 	7	Santa Rita 	2	Febrero	2023-02-25T00:00:00	2024-11-08T04:00:00	4	Temperatura máxima	16.9
78603	7	Sololá	704	Santa Lucía Utatlán 	7	Santa Rita 	2	Febrero	2023-02-25T00:00:00	2024-11-08T04:00:00	3	Temperatura mínima	15.9
78604	7	Sololá	704	Santa Lucía Utatlán 	7	Santa Rita 	2	Febrero	2023-02-25T00:00:00	2024-11-08T04:00:00	5	Humedad	38
78605	7	Sololá	704	Santa Lucía Utatlán 	7	Santa Rita 	2	Febrero	2023-02-25T00:00:00	2024-11-08T04:00:00	6	Velocidad del viento	4.8
78606	7	Sololá	704	Santa Lucía Utatlán 	7	Santa Rita 	2	Febrero	2023-02-25T00:00:00	2024-11-08T04:00:00	7	Dirección del viento	4.83
78607	7	Sololá	704	Santa Lucía Utatlán 	7	Santa Rita 	2	Febrero	2023-02-25T00:00:00	2024-11-08T04:00:00	1	Precipitación	0
78608	7	Sololá	704	Santa Lucía Utatlán 	7	Santa Rita 	2	Febrero	2023-02-25T00:00:00	2024-11-08T04:00:00	8	Radiación solar	0
78609	7	Sololá	704	Santa Lucía Utatlán 	7	Santa Rita 	2	Febrero	2023-02-25T00:00:00	2024-11-08T05:00:00	2	Temperatura media	16.1
78610	7	Sololá	704	Santa Lucía Utatlán 	7	Santa Rita 	2	Febrero	2023-02-25T00:00:00	2024-11-08T05:00:00	4	Temperatura máxima	16.3
78611	7	Sololá	704	Santa Lucía Utatlán 	7	Santa Rita 	2	Febrero	2023-02-25T00:00:00	2024-11-08T05:00:00	3	Temperatura mínima	15.7
78612	7	Sololá	704	Santa Lucía Utatlán 	7	Santa Rita 	2	Febrero	2023-02-25T00:00:00	2024-11-08T05:00:00	5	Humedad	35
78613	7	Sololá	704	Santa Lucía Utatlán 	7	Santa Rita 	2	Febrero	2023-02-25T00:00:00	2024-11-08T05:00:00	6	Velocidad del viento	4.8
78614	7	Sololá	704	Santa Lucía Utatlán 	7	Santa Rita 	2	Febrero	2023-02-25T00:00:00	2024-11-08T05:00:00	7	Dirección del viento	4.83
78615	7	Sololá	704	Santa Lucía Utatlán 	7	Santa Rita 	2	Febrero	2023-02-25T00:00:00	2024-11-08T05:00:00	1	Precipitación	0
78616	7	Sololá	704	Santa Lucía Utatlán 	7	Santa Rita 	2	Febrero	2023-02-25T00:00:00	2024-11-08T05:00:00	8	Radiación solar	0
78617	7	Sololá	704	Santa Lucía Utatlán 	7	Santa Rita 	2	Febrero	2023-02-25T00:00:00	2024-11-08T06:00:00	2	Temperatura media	15.8
78618	7	Sololá	704	Santa Lucía Utatlán 	7	Santa Rita 	2	Febrero	2023-02-25T00:00:00	2024-11-08T06:00:00	4	Temperatura máxima	17
78619	7	Sololá	704	Santa Lucía Utatlán 	7	Santa Rita 	2	Febrero	2023-02-25T00:00:00	2024-11-08T06:00:00	3	Temperatura mínima	15.8
78620	7	Sololá	704	Santa Lucía Utatlán 	7	Santa Rita 	2	Febrero	2023-02-25T00:00:00	2024-11-08T06:00:00	5	Humedad	33
78621	7	Sololá	704	Santa Lucía Utatlán 	7	Santa Rita 	2	Febrero	2023-02-25T00:00:00	2024-11-08T06:00:00	6	Velocidad del viento	1.6
78622	7	Sololá	704	Santa Lucía Utatlán 	7	Santa Rita 	2	Febrero	2023-02-25T00:00:00	2024-11-08T06:00:00	7	Dirección del viento	1.61
78623	7	Sololá	704	Santa Lucía Utatlán 	7	Santa Rita 	2	Febrero	2023-02-25T00:00:00	2024-11-08T06:00:00	1	Precipitación	0
78624	7	Sololá	704	Santa Lucía Utatlán 	7	Santa Rita 	2	Febrero	2023-02-25T00:00:00	2024-11-08T06:00:00	8	Radiación solar	0
78625	7	Sololá	704	Santa Lucía Utatlán 	7	Santa Rita 	2	Febrero	2023-02-25T00:00:00	2024-11-08T07:00:00	2	Temperatura media	16.1
78626	7	Sololá	704	Santa Lucía Utatlán 	7	Santa Rita 	2	Febrero	2023-02-25T00:00:00	2024-11-08T07:00:00	4	Temperatura máxima	16.1
78627	7	Sololá	704	Santa Lucía Utatlán 	7	Santa Rita 	2	Febrero	2023-02-25T00:00:00	2024-11-08T07:00:00	3	Temperatura mínima	15.5
78628	7	Sololá	704	Santa Lucía Utatlán 	7	Santa Rita 	2	Febrero	2023-02-25T00:00:00	2024-11-08T07:00:00	5	Humedad	32
78629	7	Sololá	704	Santa Lucía Utatlán 	7	Santa Rita 	2	Febrero	2023-02-25T00:00:00	2024-11-08T07:00:00	6	Velocidad del viento	1.6
78630	7	Sololá	704	Santa Lucía Utatlán 	7	Santa Rita 	2	Febrero	2023-02-25T00:00:00	2024-11-08T07:00:00	7	Dirección del viento	1.61
78631	7	Sololá	704	Santa Lucía Utatlán 	7	Santa Rita 	2	Febrero	2023-02-25T00:00:00	2024-11-08T07:00:00	1	Precipitación	0
78632	7	Sololá	704	Santa Lucía Utatlán 	7	Santa Rita 	2	Febrero	2023-02-25T00:00:00	2024-11-08T07:00:00	8	Radiación solar	7
78633	7	Sololá	704	Santa Lucía Utatlán 	7	Santa Rita 	2	Febrero	2023-02-25T00:00:00	2024-11-08T08:00:00	2	Temperatura media	21.5
78634	7	Sololá	704	Santa Lucía Utatlán 	7	Santa Rita 	2	Febrero	2023-02-25T00:00:00	2024-11-08T08:00:00	4	Temperatura máxima	21.5
78635	7	Sololá	704	Santa Lucía Utatlán 	7	Santa Rita 	2	Febrero	2023-02-25T00:00:00	2024-11-08T08:00:00	3	Temperatura mínima	16.2
78636	7	Sololá	704	Santa Lucía Utatlán 	7	Santa Rita 	2	Febrero	2023-02-25T00:00:00	2024-11-08T08:00:00	5	Humedad	31
78637	7	Sololá	704	Santa Lucía Utatlán 	7	Santa Rita 	2	Febrero	2023-02-25T00:00:00	2024-11-08T08:00:00	6	Velocidad del viento	0
78638	7	Sololá	704	Santa Lucía Utatlán 	7	Santa Rita 	2	Febrero	2023-02-25T00:00:00	2024-11-08T08:00:00	7	Dirección del viento	0
78639	7	Sololá	704	Santa Lucía Utatlán 	7	Santa Rita 	2	Febrero	2023-02-25T00:00:00	2024-11-08T08:00:00	1	Precipitación	0
78640	7	Sololá	704	Santa Lucía Utatlán 	7	Santa Rita 	2	Febrero	2023-02-25T00:00:00	2024-11-08T08:00:00	8	Radiación solar	175
78641	7	Sololá	704	Santa Lucía Utatlán 	7	Santa Rita 	2	Febrero	2023-02-25T00:00:00	2024-11-08T09:00:00	2	Temperatura media	23.6
78642	7	Sololá	704	Santa Lucía Utatlán 	7	Santa Rita 	2	Febrero	2023-02-25T00:00:00	2024-11-08T09:00:00	4	Temperatura máxima	23.9
78643	7	Sololá	704	Santa Lucía Utatlán 	7	Santa Rita 	2	Febrero	2023-02-25T00:00:00	2024-11-08T09:00:00	3	Temperatura mínima	21.5
78644	7	Sololá	704	Santa Lucía Utatlán 	7	Santa Rita 	2	Febrero	2023-02-25T00:00:00	2024-11-08T09:00:00	5	Humedad	23
78645	7	Sololá	704	Santa Lucía Utatlán 	7	Santa Rita 	2	Febrero	2023-02-25T00:00:00	2024-11-08T09:00:00	6	Velocidad del viento	3.2
78646	7	Sololá	704	Santa Lucía Utatlán 	7	Santa Rita 	2	Febrero	2023-02-25T00:00:00	2024-11-08T09:00:00	7	Dirección del viento	3.22
78647	7	Sololá	704	Santa Lucía Utatlán 	7	Santa Rita 	2	Febrero	2023-02-25T00:00:00	2024-11-08T09:00:00	1	Precipitación	0
78648	7	Sololá	704	Santa Lucía Utatlán 	7	Santa Rita 	2	Febrero	2023-02-25T00:00:00	2024-11-08T09:00:00	8	Radiación solar	428
78649	7	Sololá	704	Santa Lucía Utatlán 	7	Santa Rita 	2	Febrero	2023-02-25T00:00:00	2024-11-08T10:00:00	2	Temperatura media	24.5
78650	7	Sololá	704	Santa Lucía Utatlán 	7	Santa Rita 	2	Febrero	2023-02-25T00:00:00	2024-11-08T10:00:00	4	Temperatura máxima	25.1
78651	7	Sololá	704	Santa Lucía Utatlán 	7	Santa Rita 	2	Febrero	2023-02-25T00:00:00	2024-11-08T10:00:00	3	Temperatura mínima	23.7
78652	7	Sololá	704	Santa Lucía Utatlán 	7	Santa Rita 	2	Febrero	2023-02-25T00:00:00	2024-11-08T10:00:00	5	Humedad	21
78653	7	Sololá	704	Santa Lucía Utatlán 	7	Santa Rita 	2	Febrero	2023-02-25T00:00:00	2024-11-08T10:00:00	6	Velocidad del viento	4.8
78654	7	Sololá	704	Santa Lucía Utatlán 	7	Santa Rita 	2	Febrero	2023-02-25T00:00:00	2024-11-08T10:00:00	7	Dirección del viento	4.83
78655	7	Sololá	704	Santa Lucía Utatlán 	7	Santa Rita 	2	Febrero	2023-02-25T00:00:00	2024-11-08T10:00:00	1	Precipitación	0
78656	7	Sololá	704	Santa Lucía Utatlán 	7	Santa Rita 	2	Febrero	2023-02-25T00:00:00	2024-11-08T10:00:00	8	Radiación solar	581
78657	7	Sololá	704	Santa Lucía Utatlán 	7	Santa Rita 	2	Febrero	2023-02-25T00:00:00	2024-11-08T11:00:00	2	Temperatura media	25.3
78658	7	Sololá	704	Santa Lucía Utatlán 	7	Santa Rita 	2	Febrero	2023-02-25T00:00:00	2024-11-08T11:00:00	4	Temperatura máxima	25.7
78659	7	Sololá	704	Santa Lucía Utatlán 	7	Santa Rita 	2	Febrero	2023-02-25T00:00:00	2024-11-08T11:00:00	3	Temperatura mínima	24.2
78660	7	Sololá	704	Santa Lucía Utatlán 	7	Santa Rita 	2	Febrero	2023-02-25T00:00:00	2024-11-08T11:00:00	5	Humedad	23
78661	7	Sololá	704	Santa Lucía Utatlán 	7	Santa Rita 	2	Febrero	2023-02-25T00:00:00	2024-11-08T11:00:00	6	Velocidad del viento	9.7
78662	7	Sololá	704	Santa Lucía Utatlán 	7	Santa Rita 	2	Febrero	2023-02-25T00:00:00	2024-11-08T11:00:00	7	Dirección del viento	9.66
78663	7	Sololá	704	Santa Lucía Utatlán 	7	Santa Rita 	2	Febrero	2023-02-25T00:00:00	2024-11-08T11:00:00	1	Precipitación	0
78664	7	Sololá	704	Santa Lucía Utatlán 	7	Santa Rita 	2	Febrero	2023-02-25T00:00:00	2024-11-08T11:00:00	8	Radiación solar	691
78665	7	Sololá	704	Santa Lucía Utatlán 	7	Santa Rita 	2	Febrero	2023-02-25T00:00:00	2024-11-08T12:00:00	2	Temperatura media	26.4
78666	7	Sololá	704	Santa Lucía Utatlán 	7	Santa Rita 	2	Febrero	2023-02-25T00:00:00	2024-11-08T12:00:00	4	Temperatura máxima	26.6
78667	7	Sololá	704	Santa Lucía Utatlán 	7	Santa Rita 	2	Febrero	2023-02-25T00:00:00	2024-11-08T12:00:00	3	Temperatura mínima	25.2
78668	7	Sololá	704	Santa Lucía Utatlán 	7	Santa Rita 	2	Febrero	2023-02-25T00:00:00	2024-11-08T12:00:00	5	Humedad	23
78669	7	Sololá	704	Santa Lucía Utatlán 	7	Santa Rita 	2	Febrero	2023-02-25T00:00:00	2024-11-08T12:00:00	6	Velocidad del viento	9.7
78670	7	Sololá	704	Santa Lucía Utatlán 	7	Santa Rita 	2	Febrero	2023-02-25T00:00:00	2024-11-08T12:00:00	7	Dirección del viento	9.66
78671	7	Sololá	704	Santa Lucía Utatlán 	7	Santa Rita 	2	Febrero	2023-02-25T00:00:00	2024-11-08T12:00:00	1	Precipitación	0
78672	7	Sololá	704	Santa Lucía Utatlán 	7	Santa Rita 	2	Febrero	2023-02-25T00:00:00	2024-11-08T12:00:00	8	Radiación solar	913
78673	7	Sololá	704	Santa Lucía Utatlán 	7	Santa Rita 	2	Febrero	2023-02-25T00:00:00	2024-11-08T13:00:00	2	Temperatura media	26.8
78674	7	Sololá	704	Santa Lucía Utatlán 	7	Santa Rita 	2	Febrero	2023-02-25T00:00:00	2024-11-08T13:00:00	4	Temperatura máxima	26.9
78675	7	Sololá	704	Santa Lucía Utatlán 	7	Santa Rita 	2	Febrero	2023-02-25T00:00:00	2024-11-08T13:00:00	3	Temperatura mínima	26.2
78676	7	Sololá	704	Santa Lucía Utatlán 	7	Santa Rita 	2	Febrero	2023-02-25T00:00:00	2024-11-08T13:00:00	5	Humedad	26
78677	7	Sololá	704	Santa Lucía Utatlán 	7	Santa Rita 	2	Febrero	2023-02-25T00:00:00	2024-11-08T13:00:00	6	Velocidad del viento	11.3
78678	7	Sololá	704	Santa Lucía Utatlán 	7	Santa Rita 	2	Febrero	2023-02-25T00:00:00	2024-11-08T13:00:00	7	Dirección del viento	11.27
78679	7	Sololá	704	Santa Lucía Utatlán 	7	Santa Rita 	2	Febrero	2023-02-25T00:00:00	2024-11-08T13:00:00	1	Precipitación	0
78680	7	Sololá	704	Santa Lucía Utatlán 	7	Santa Rita 	2	Febrero	2023-02-25T00:00:00	2024-11-08T13:00:00	8	Radiación solar	914
78681	7	Sololá	704	Santa Lucía Utatlán 	7	Santa Rita 	2	Febrero	2023-02-25T00:00:00	2024-11-08T14:00:00	2	Temperatura media	27
78682	7	Sololá	704	Santa Lucía Utatlán 	7	Santa Rita 	2	Febrero	2023-02-25T00:00:00	2024-11-08T14:00:00	4	Temperatura máxima	27.3
78683	7	Sololá	704	Santa Lucía Utatlán 	7	Santa Rita 	2	Febrero	2023-02-25T00:00:00	2024-11-08T14:00:00	3	Temperatura mínima	26.5
78684	7	Sololá	704	Santa Lucía Utatlán 	7	Santa Rita 	2	Febrero	2023-02-25T00:00:00	2024-11-08T14:00:00	5	Humedad	27
78685	7	Sololá	704	Santa Lucía Utatlán 	7	Santa Rita 	2	Febrero	2023-02-25T00:00:00	2024-11-08T14:00:00	6	Velocidad del viento	9.7
78686	7	Sololá	704	Santa Lucía Utatlán 	7	Santa Rita 	2	Febrero	2023-02-25T00:00:00	2024-11-08T14:00:00	7	Dirección del viento	9.66
78687	7	Sololá	704	Santa Lucía Utatlán 	7	Santa Rita 	2	Febrero	2023-02-25T00:00:00	2024-11-08T14:00:00	1	Precipitación	0
78688	7	Sololá	704	Santa Lucía Utatlán 	7	Santa Rita 	2	Febrero	2023-02-25T00:00:00	2024-11-08T14:00:00	8	Radiación solar	806
78689	7	Sololá	704	Santa Lucía Utatlán 	7	Santa Rita 	2	Febrero	2023-02-25T00:00:00	2024-11-08T15:00:00	2	Temperatura media	26.8
78690	7	Sololá	704	Santa Lucía Utatlán 	7	Santa Rita 	2	Febrero	2023-02-25T00:00:00	2024-11-08T15:00:00	4	Temperatura máxima	27
78691	7	Sololá	704	Santa Lucía Utatlán 	7	Santa Rita 	2	Febrero	2023-02-25T00:00:00	2024-11-08T15:00:00	3	Temperatura mínima	26.7
78692	7	Sololá	704	Santa Lucía Utatlán 	7	Santa Rita 	2	Febrero	2023-02-25T00:00:00	2024-11-08T15:00:00	5	Humedad	27
78693	7	Sololá	704	Santa Lucía Utatlán 	7	Santa Rita 	2	Febrero	2023-02-25T00:00:00	2024-11-08T15:00:00	6	Velocidad del viento	11.3
78694	7	Sololá	704	Santa Lucía Utatlán 	7	Santa Rita 	2	Febrero	2023-02-25T00:00:00	2024-11-08T15:00:00	7	Dirección del viento	11.27
78695	7	Sololá	704	Santa Lucía Utatlán 	7	Santa Rita 	2	Febrero	2023-02-25T00:00:00	2024-11-08T15:00:00	1	Precipitación	0
78696	7	Sololá	704	Santa Lucía Utatlán 	7	Santa Rita 	2	Febrero	2023-02-25T00:00:00	2024-11-08T15:00:00	8	Radiación solar	723
78697	7	Sololá	704	Santa Lucía Utatlán 	7	Santa Rita 	2	Febrero	2023-02-25T00:00:00	2024-11-08T16:00:00	2	Temperatura media	26.1
78698	7	Sololá	704	Santa Lucía Utatlán 	7	Santa Rita 	2	Febrero	2023-02-25T00:00:00	2024-11-08T16:00:00	4	Temperatura máxima	26.8
78699	7	Sololá	704	Santa Lucía Utatlán 	7	Santa Rita 	2	Febrero	2023-02-25T00:00:00	2024-11-08T16:00:00	3	Temperatura mínima	25.7
78700	7	Sololá	704	Santa Lucía Utatlán 	7	Santa Rita 	2	Febrero	2023-02-25T00:00:00	2024-11-08T16:00:00	5	Humedad	27
78701	7	Sololá	704	Santa Lucía Utatlán 	7	Santa Rita 	2	Febrero	2023-02-25T00:00:00	2024-11-08T16:00:00	6	Velocidad del viento	11.3
78702	7	Sololá	704	Santa Lucía Utatlán 	7	Santa Rita 	2	Febrero	2023-02-25T00:00:00	2024-11-08T16:00:00	7	Dirección del viento	11.27
78703	7	Sololá	704	Santa Lucía Utatlán 	7	Santa Rita 	2	Febrero	2023-02-25T00:00:00	2024-11-08T16:00:00	1	Precipitación	0
78704	7	Sololá	704	Santa Lucía Utatlán 	7	Santa Rita 	2	Febrero	2023-02-25T00:00:00	2024-11-08T16:00:00	8	Radiación solar	596
78705	7	Sololá	704	Santa Lucía Utatlán 	7	Santa Rita 	2	Febrero	2023-02-25T00:00:00	2024-11-08T17:00:00	2	Temperatura media	24.5
78706	7	Sololá	704	Santa Lucía Utatlán 	7	Santa Rita 	2	Febrero	2023-02-25T00:00:00	2024-11-08T17:00:00	4	Temperatura máxima	26.1
78707	7	Sololá	704	Santa Lucía Utatlán 	7	Santa Rita 	2	Febrero	2023-02-25T00:00:00	2024-11-08T17:00:00	3	Temperatura mínima	24.5
78708	7	Sololá	704	Santa Lucía Utatlán 	7	Santa Rita 	2	Febrero	2023-02-25T00:00:00	2024-11-08T17:00:00	5	Humedad	36
78709	7	Sololá	704	Santa Lucía Utatlán 	7	Santa Rita 	2	Febrero	2023-02-25T00:00:00	2024-11-08T17:00:00	6	Velocidad del viento	9.7
78710	7	Sololá	704	Santa Lucía Utatlán 	7	Santa Rita 	2	Febrero	2023-02-25T00:00:00	2024-11-08T17:00:00	7	Dirección del viento	9.66
78711	7	Sololá	704	Santa Lucía Utatlán 	7	Santa Rita 	2	Febrero	2023-02-25T00:00:00	2024-11-08T17:00:00	1	Precipitación	0
78712	7	Sololá	704	Santa Lucía Utatlán 	7	Santa Rita 	2	Febrero	2023-02-25T00:00:00	2024-11-08T17:00:00	8	Radiación solar	378
78713	7	Sololá	704	Santa Lucía Utatlán 	7	Santa Rita 	2	Febrero	2023-02-25T00:00:00	2024-11-08T18:00:00	2	Temperatura media	22.7
78714	7	Sololá	704	Santa Lucía Utatlán 	7	Santa Rita 	2	Febrero	2023-02-25T00:00:00	2024-11-08T18:00:00	4	Temperatura máxima	24.6
78715	7	Sololá	704	Santa Lucía Utatlán 	7	Santa Rita 	2	Febrero	2023-02-25T00:00:00	2024-11-08T18:00:00	3	Temperatura mínima	22.7
78716	7	Sololá	704	Santa Lucía Utatlán 	7	Santa Rita 	2	Febrero	2023-02-25T00:00:00	2024-11-08T18:00:00	5	Humedad	51
78717	7	Sololá	704	Santa Lucía Utatlán 	7	Santa Rita 	2	Febrero	2023-02-25T00:00:00	2024-11-08T18:00:00	6	Velocidad del viento	3.2
78718	7	Sololá	704	Santa Lucía Utatlán 	7	Santa Rita 	2	Febrero	2023-02-25T00:00:00	2024-11-08T18:00:00	7	Dirección del viento	3.22
78719	7	Sololá	704	Santa Lucía Utatlán 	7	Santa Rita 	2	Febrero	2023-02-25T00:00:00	2024-11-08T18:00:00	1	Precipitación	0
78720	7	Sololá	704	Santa Lucía Utatlán 	7	Santa Rita 	2	Febrero	2023-02-25T00:00:00	2024-11-08T18:00:00	8	Radiación solar	69
78721	7	Sololá	704	Santa Lucía Utatlán 	7	Santa Rita 	2	Febrero	2023-02-25T00:00:00	2024-11-08T19:00:00	2	Temperatura media	20.3
78722	7	Sololá	704	Santa Lucía Utatlán 	7	Santa Rita 	2	Febrero	2023-02-25T00:00:00	2024-11-08T19:00:00	4	Temperatura máxima	22.7
78723	7	Sololá	704	Santa Lucía Utatlán 	7	Santa Rita 	2	Febrero	2023-02-25T00:00:00	2024-11-08T19:00:00	3	Temperatura mínima	20.3
78724	7	Sololá	704	Santa Lucía Utatlán 	7	Santa Rita 	2	Febrero	2023-02-25T00:00:00	2024-11-08T19:00:00	5	Humedad	61
78725	7	Sololá	704	Santa Lucía Utatlán 	7	Santa Rita 	2	Febrero	2023-02-25T00:00:00	2024-11-08T19:00:00	6	Velocidad del viento	1.6
78726	7	Sololá	704	Santa Lucía Utatlán 	7	Santa Rita 	2	Febrero	2023-02-25T00:00:00	2024-11-08T19:00:00	7	Dirección del viento	1.61
78727	7	Sololá	704	Santa Lucía Utatlán 	7	Santa Rita 	2	Febrero	2023-02-25T00:00:00	2024-11-08T19:00:00	1	Precipitación	0
78728	7	Sololá	704	Santa Lucía Utatlán 	7	Santa Rita 	2	Febrero	2023-02-25T00:00:00	2024-11-08T19:00:00	8	Radiación solar	0
78729	7	Sololá	704	Santa Lucía Utatlán 	7	Santa Rita 	2	Febrero	2023-02-25T00:00:00	2024-11-08T20:00:00	2	Temperatura media	21.3
78730	7	Sololá	704	Santa Lucía Utatlán 	7	Santa Rita 	2	Febrero	2023-02-25T00:00:00	2024-11-08T20:00:00	4	Temperatura máxima	21.3
78731	7	Sololá	704	Santa Lucía Utatlán 	7	Santa Rita 	2	Febrero	2023-02-25T00:00:00	2024-11-08T20:00:00	3	Temperatura mínima	19.7
78732	7	Sololá	704	Santa Lucía Utatlán 	7	Santa Rita 	2	Febrero	2023-02-25T00:00:00	2024-11-08T20:00:00	5	Humedad	37
78733	7	Sololá	704	Santa Lucía Utatlán 	7	Santa Rita 	2	Febrero	2023-02-25T00:00:00	2024-11-08T20:00:00	6	Velocidad del viento	6.4
78734	7	Sololá	704	Santa Lucía Utatlán 	7	Santa Rita 	2	Febrero	2023-02-25T00:00:00	2024-11-08T20:00:00	7	Dirección del viento	6.44
78735	7	Sololá	704	Santa Lucía Utatlán 	7	Santa Rita 	2	Febrero	2023-02-25T00:00:00	2024-11-08T20:00:00	1	Precipitación	0
78736	7	Sololá	704	Santa Lucía Utatlán 	7	Santa Rita 	2	Febrero	2023-02-25T00:00:00	2024-11-08T20:00:00	8	Radiación solar	0
78737	7	Sololá	704	Santa Lucía Utatlán 	7	Santa Rita 	2	Febrero	2023-02-25T00:00:00	2024-11-08T21:00:00	2	Temperatura media	17.6
78738	7	Sololá	704	Santa Lucía Utatlán 	7	Santa Rita 	2	Febrero	2023-02-25T00:00:00	2024-11-08T21:00:00	4	Temperatura máxima	21.7
78739	7	Sololá	704	Santa Lucía Utatlán 	7	Santa Rita 	2	Febrero	2023-02-25T00:00:00	2024-11-08T21:00:00	3	Temperatura mínima	17.6
78740	7	Sololá	704	Santa Lucía Utatlán 	7	Santa Rita 	2	Febrero	2023-02-25T00:00:00	2024-11-08T21:00:00	5	Humedad	69
78741	7	Sololá	704	Santa Lucía Utatlán 	7	Santa Rita 	2	Febrero	2023-02-25T00:00:00	2024-11-08T21:00:00	6	Velocidad del viento	6.4
78742	7	Sololá	704	Santa Lucía Utatlán 	7	Santa Rita 	2	Febrero	2023-02-25T00:00:00	2024-11-08T21:00:00	7	Dirección del viento	6.44
78743	7	Sololá	704	Santa Lucía Utatlán 	7	Santa Rita 	2	Febrero	2023-02-25T00:00:00	2024-11-08T21:00:00	1	Precipitación	0
78744	7	Sololá	704	Santa Lucía Utatlán 	7	Santa Rita 	2	Febrero	2023-02-25T00:00:00	2024-11-08T21:00:00	8	Radiación solar	0
78745	7	Sololá	704	Santa Lucía Utatlán 	7	Santa Rita 	2	Febrero	2023-02-25T00:00:00	2024-11-08T22:00:00	2	Temperatura media	15.6
78746	7	Sololá	704	Santa Lucía Utatlán 	7	Santa Rita 	2	Febrero	2023-02-25T00:00:00	2024-11-08T22:00:00	4	Temperatura máxima	17.6
78747	7	Sololá	704	Santa Lucía Utatlán 	7	Santa Rita 	2	Febrero	2023-02-25T00:00:00	2024-11-08T22:00:00	3	Temperatura mínima	15.6
78748	7	Sololá	704	Santa Lucía Utatlán 	7	Santa Rita 	2	Febrero	2023-02-25T00:00:00	2024-11-08T22:00:00	5	Humedad	53
78749	7	Sololá	704	Santa Lucía Utatlán 	7	Santa Rita 	2	Febrero	2023-02-25T00:00:00	2024-11-08T22:00:00	6	Velocidad del viento	1.6
78750	7	Sololá	704	Santa Lucía Utatlán 	7	Santa Rita 	2	Febrero	2023-02-25T00:00:00	2024-11-08T22:00:00	7	Dirección del viento	1.61
78751	7	Sololá	704	Santa Lucía Utatlán 	7	Santa Rita 	2	Febrero	2023-02-25T00:00:00	2024-11-08T22:00:00	1	Precipitación	0
78752	7	Sololá	704	Santa Lucía Utatlán 	7	Santa Rita 	2	Febrero	2023-02-25T00:00:00	2024-11-08T22:00:00	8	Radiación solar	0
78753	7	Sololá	704	Santa Lucía Utatlán 	7	Santa Rita 	2	Febrero	2023-02-25T00:00:00	2024-11-08T23:00:00	2	Temperatura media	14.6
78754	7	Sololá	704	Santa Lucía Utatlán 	7	Santa Rita 	2	Febrero	2023-02-25T00:00:00	2024-11-08T23:00:00	4	Temperatura máxima	15.6
78755	7	Sololá	704	Santa Lucía Utatlán 	7	Santa Rita 	2	Febrero	2023-02-25T00:00:00	2024-11-08T23:00:00	3	Temperatura mínima	14.5
78756	7	Sololá	704	Santa Lucía Utatlán 	7	Santa Rita 	2	Febrero	2023-02-25T00:00:00	2024-11-08T23:00:00	5	Humedad	57
78757	7	Sololá	704	Santa Lucía Utatlán 	7	Santa Rita 	2	Febrero	2023-02-25T00:00:00	2024-11-08T23:00:00	6	Velocidad del viento	3.2
78758	7	Sololá	704	Santa Lucía Utatlán 	7	Santa Rita 	2	Febrero	2023-02-25T00:00:00	2024-11-08T23:00:00	7	Dirección del viento	3.22
78759	7	Sololá	704	Santa Lucía Utatlán 	7	Santa Rita 	2	Febrero	2023-02-25T00:00:00	2024-11-08T23:00:00	1	Precipitación	0
78760	7	Sololá	704	Santa Lucía Utatlán 	7	Santa Rita 	2	Febrero	2023-02-25T00:00:00	2024-11-08T23:00:00	8	Radiación solar	0
78761	7	Sololá	704	Santa Lucía Utatlán 	7	Santa Rita 	2	Febrero	2023-02-26T00:00:00	2024-11-08T00:00:00	2	Temperatura media	14.1
78762	7	Sololá	704	Santa Lucía Utatlán 	7	Santa Rita 	2	Febrero	2023-02-26T00:00:00	2024-11-08T00:00:00	4	Temperatura máxima	14.7
78763	7	Sololá	704	Santa Lucía Utatlán 	7	Santa Rita 	2	Febrero	2023-02-26T00:00:00	2024-11-08T00:00:00	3	Temperatura mínima	14.1
78764	7	Sololá	704	Santa Lucía Utatlán 	7	Santa Rita 	2	Febrero	2023-02-26T00:00:00	2024-11-08T00:00:00	5	Humedad	38
78765	7	Sololá	704	Santa Lucía Utatlán 	7	Santa Rita 	2	Febrero	2023-02-26T00:00:00	2024-11-08T00:00:00	6	Velocidad del viento	3.2
78766	7	Sololá	704	Santa Lucía Utatlán 	7	Santa Rita 	2	Febrero	2023-02-26T00:00:00	2024-11-08T00:00:00	7	Dirección del viento	3.22
78767	7	Sololá	704	Santa Lucía Utatlán 	7	Santa Rita 	2	Febrero	2023-02-26T00:00:00	2024-11-08T00:00:00	1	Precipitación	0
78768	7	Sololá	704	Santa Lucía Utatlán 	7	Santa Rita 	2	Febrero	2023-02-26T00:00:00	2024-11-08T00:00:00	8	Radiación solar	0
78769	7	Sololá	704	Santa Lucía Utatlán 	7	Santa Rita 	2	Febrero	2023-02-26T00:00:00	2024-11-08T01:00:00	2	Temperatura media	14.3
78770	7	Sololá	704	Santa Lucía Utatlán 	7	Santa Rita 	2	Febrero	2023-02-26T00:00:00	2024-11-08T01:00:00	4	Temperatura máxima	14.3
78771	7	Sololá	704	Santa Lucía Utatlán 	7	Santa Rita 	2	Febrero	2023-02-26T00:00:00	2024-11-08T01:00:00	3	Temperatura mínima	14
78772	7	Sololá	704	Santa Lucía Utatlán 	7	Santa Rita 	2	Febrero	2023-02-26T00:00:00	2024-11-08T01:00:00	5	Humedad	36
78773	7	Sololá	704	Santa Lucía Utatlán 	7	Santa Rita 	2	Febrero	2023-02-26T00:00:00	2024-11-08T01:00:00	6	Velocidad del viento	4.8
78774	7	Sololá	704	Santa Lucía Utatlán 	7	Santa Rita 	2	Febrero	2023-02-26T00:00:00	2024-11-08T01:00:00	7	Dirección del viento	4.83
78775	7	Sololá	704	Santa Lucía Utatlán 	7	Santa Rita 	2	Febrero	2023-02-26T00:00:00	2024-11-08T01:00:00	1	Precipitación	0
78776	7	Sololá	704	Santa Lucía Utatlán 	7	Santa Rita 	2	Febrero	2023-02-26T00:00:00	2024-11-08T01:00:00	8	Radiación solar	0
78777	7	Sololá	704	Santa Lucía Utatlán 	7	Santa Rita 	2	Febrero	2023-02-26T00:00:00	2024-11-08T02:00:00	2	Temperatura media	13.6
78778	7	Sololá	704	Santa Lucía Utatlán 	7	Santa Rita 	2	Febrero	2023-02-26T00:00:00	2024-11-08T02:00:00	4	Temperatura máxima	14.4
78779	7	Sololá	704	Santa Lucía Utatlán 	7	Santa Rita 	2	Febrero	2023-02-26T00:00:00	2024-11-08T02:00:00	3	Temperatura mínima	13.6
78780	7	Sololá	704	Santa Lucía Utatlán 	7	Santa Rita 	2	Febrero	2023-02-26T00:00:00	2024-11-08T02:00:00	5	Humedad	38
78781	7	Sololá	704	Santa Lucía Utatlán 	7	Santa Rita 	2	Febrero	2023-02-26T00:00:00	2024-11-08T02:00:00	6	Velocidad del viento	3.2
78782	7	Sololá	704	Santa Lucía Utatlán 	7	Santa Rita 	2	Febrero	2023-02-26T00:00:00	2024-11-08T02:00:00	7	Dirección del viento	3.22
78783	7	Sololá	704	Santa Lucía Utatlán 	7	Santa Rita 	2	Febrero	2023-02-26T00:00:00	2024-11-08T02:00:00	1	Precipitación	0
78784	7	Sololá	704	Santa Lucía Utatlán 	7	Santa Rita 	2	Febrero	2023-02-26T00:00:00	2024-11-08T02:00:00	8	Radiación solar	0
78785	7	Sololá	704	Santa Lucía Utatlán 	7	Santa Rita 	2	Febrero	2023-02-26T00:00:00	2024-11-08T03:00:00	2	Temperatura media	13.7
78786	7	Sololá	704	Santa Lucía Utatlán 	7	Santa Rita 	2	Febrero	2023-02-26T00:00:00	2024-11-08T03:00:00	4	Temperatura máxima	13.8
78787	7	Sololá	704	Santa Lucía Utatlán 	7	Santa Rita 	2	Febrero	2023-02-26T00:00:00	2024-11-08T03:00:00	3	Temperatura mínima	13.3
78788	7	Sololá	704	Santa Lucía Utatlán 	7	Santa Rita 	2	Febrero	2023-02-26T00:00:00	2024-11-08T03:00:00	5	Humedad	38
78789	7	Sololá	704	Santa Lucía Utatlán 	7	Santa Rita 	2	Febrero	2023-02-26T00:00:00	2024-11-08T03:00:00	6	Velocidad del viento	3.2
78790	7	Sololá	704	Santa Lucía Utatlán 	7	Santa Rita 	2	Febrero	2023-02-26T00:00:00	2024-11-08T03:00:00	7	Dirección del viento	3.22
78791	7	Sololá	704	Santa Lucía Utatlán 	7	Santa Rita 	2	Febrero	2023-02-26T00:00:00	2024-11-08T03:00:00	1	Precipitación	0
78792	7	Sololá	704	Santa Lucía Utatlán 	7	Santa Rita 	2	Febrero	2023-02-26T00:00:00	2024-11-08T03:00:00	8	Radiación solar	0
78793	7	Sololá	704	Santa Lucía Utatlán 	7	Santa Rita 	2	Febrero	2023-02-26T00:00:00	2024-11-08T04:00:00	2	Temperatura media	13.4
78794	7	Sololá	704	Santa Lucía Utatlán 	7	Santa Rita 	2	Febrero	2023-02-26T00:00:00	2024-11-08T04:00:00	4	Temperatura máxima	14.3
78795	7	Sololá	704	Santa Lucía Utatlán 	7	Santa Rita 	2	Febrero	2023-02-26T00:00:00	2024-11-08T04:00:00	3	Temperatura mínima	13.4
78796	7	Sololá	704	Santa Lucía Utatlán 	7	Santa Rita 	2	Febrero	2023-02-26T00:00:00	2024-11-08T04:00:00	5	Humedad	40
78797	7	Sololá	704	Santa Lucía Utatlán 	7	Santa Rita 	2	Febrero	2023-02-26T00:00:00	2024-11-08T04:00:00	6	Velocidad del viento	3.2
78798	7	Sololá	704	Santa Lucía Utatlán 	7	Santa Rita 	2	Febrero	2023-02-26T00:00:00	2024-11-08T04:00:00	7	Dirección del viento	3.22
78799	7	Sololá	704	Santa Lucía Utatlán 	7	Santa Rita 	2	Febrero	2023-02-26T00:00:00	2024-11-08T04:00:00	1	Precipitación	0
78800	7	Sololá	704	Santa Lucía Utatlán 	7	Santa Rita 	2	Febrero	2023-02-26T00:00:00	2024-11-08T04:00:00	8	Radiación solar	0
78801	7	Sololá	704	Santa Lucía Utatlán 	7	Santa Rita 	2	Febrero	2023-02-26T00:00:00	2024-11-08T05:00:00	2	Temperatura media	13.5
78802	7	Sololá	704	Santa Lucía Utatlán 	7	Santa Rita 	2	Febrero	2023-02-26T00:00:00	2024-11-08T05:00:00	4	Temperatura máxima	13.7
78803	7	Sololá	704	Santa Lucía Utatlán 	7	Santa Rita 	2	Febrero	2023-02-26T00:00:00	2024-11-08T05:00:00	3	Temperatura mínima	13.4
78804	7	Sololá	704	Santa Lucía Utatlán 	7	Santa Rita 	2	Febrero	2023-02-26T00:00:00	2024-11-08T05:00:00	5	Humedad	40
78805	7	Sololá	704	Santa Lucía Utatlán 	7	Santa Rita 	2	Febrero	2023-02-26T00:00:00	2024-11-08T05:00:00	6	Velocidad del viento	4.8
78806	7	Sololá	704	Santa Lucía Utatlán 	7	Santa Rita 	2	Febrero	2023-02-26T00:00:00	2024-11-08T05:00:00	7	Dirección del viento	4.83
78807	7	Sololá	704	Santa Lucía Utatlán 	7	Santa Rita 	2	Febrero	2023-02-26T00:00:00	2024-11-08T05:00:00	1	Precipitación	0
78808	7	Sololá	704	Santa Lucía Utatlán 	7	Santa Rita 	2	Febrero	2023-02-26T00:00:00	2024-11-08T05:00:00	8	Radiación solar	0
78809	7	Sololá	704	Santa Lucía Utatlán 	7	Santa Rita 	2	Febrero	2023-02-26T00:00:00	2024-11-08T06:00:00	2	Temperatura media	13
78810	7	Sololá	704	Santa Lucía Utatlán 	7	Santa Rita 	2	Febrero	2023-02-26T00:00:00	2024-11-08T06:00:00	4	Temperatura máxima	13.6
78811	7	Sololá	704	Santa Lucía Utatlán 	7	Santa Rita 	2	Febrero	2023-02-26T00:00:00	2024-11-08T06:00:00	3	Temperatura mínima	13
78812	7	Sololá	704	Santa Lucía Utatlán 	7	Santa Rita 	2	Febrero	2023-02-26T00:00:00	2024-11-08T06:00:00	5	Humedad	38
78813	7	Sololá	704	Santa Lucía Utatlán 	7	Santa Rita 	2	Febrero	2023-02-26T00:00:00	2024-11-08T06:00:00	6	Velocidad del viento	4.8
78814	7	Sololá	704	Santa Lucía Utatlán 	7	Santa Rita 	2	Febrero	2023-02-26T00:00:00	2024-11-08T06:00:00	7	Dirección del viento	4.83
78815	7	Sololá	704	Santa Lucía Utatlán 	7	Santa Rita 	2	Febrero	2023-02-26T00:00:00	2024-11-08T06:00:00	1	Precipitación	0
78816	7	Sololá	704	Santa Lucía Utatlán 	7	Santa Rita 	2	Febrero	2023-02-26T00:00:00	2024-11-08T06:00:00	8	Radiación solar	0
78817	7	Sololá	704	Santa Lucía Utatlán 	7	Santa Rita 	2	Febrero	2023-02-26T00:00:00	2024-11-08T07:00:00	2	Temperatura media	13.3
78818	7	Sololá	704	Santa Lucía Utatlán 	7	Santa Rita 	2	Febrero	2023-02-26T00:00:00	2024-11-08T07:00:00	4	Temperatura máxima	13.5
78819	7	Sololá	704	Santa Lucía Utatlán 	7	Santa Rita 	2	Febrero	2023-02-26T00:00:00	2024-11-08T07:00:00	3	Temperatura mínima	12.7
78820	7	Sololá	704	Santa Lucía Utatlán 	7	Santa Rita 	2	Febrero	2023-02-26T00:00:00	2024-11-08T07:00:00	5	Humedad	42
78821	7	Sololá	704	Santa Lucía Utatlán 	7	Santa Rita 	2	Febrero	2023-02-26T00:00:00	2024-11-08T07:00:00	6	Velocidad del viento	3.2
78822	7	Sololá	704	Santa Lucía Utatlán 	7	Santa Rita 	2	Febrero	2023-02-26T00:00:00	2024-11-08T07:00:00	7	Dirección del viento	3.22
78823	7	Sololá	704	Santa Lucía Utatlán 	7	Santa Rita 	2	Febrero	2023-02-26T00:00:00	2024-11-08T07:00:00	1	Precipitación	0
78824	7	Sololá	704	Santa Lucía Utatlán 	7	Santa Rita 	2	Febrero	2023-02-26T00:00:00	2024-11-08T07:00:00	8	Radiación solar	8
78825	7	Sololá	704	Santa Lucía Utatlán 	7	Santa Rita 	2	Febrero	2023-02-26T00:00:00	2024-11-08T08:00:00	2	Temperatura media	17.9
78826	7	Sololá	704	Santa Lucía Utatlán 	7	Santa Rita 	2	Febrero	2023-02-26T00:00:00	2024-11-08T08:00:00	4	Temperatura máxima	17.9
78827	7	Sololá	704	Santa Lucía Utatlán 	7	Santa Rita 	2	Febrero	2023-02-26T00:00:00	2024-11-08T08:00:00	3	Temperatura mínima	13.2
78828	7	Sololá	704	Santa Lucía Utatlán 	7	Santa Rita 	2	Febrero	2023-02-26T00:00:00	2024-11-08T08:00:00	5	Humedad	32
78829	7	Sololá	704	Santa Lucía Utatlán 	7	Santa Rita 	2	Febrero	2023-02-26T00:00:00	2024-11-08T08:00:00	6	Velocidad del viento	0
78830	7	Sololá	704	Santa Lucía Utatlán 	7	Santa Rita 	2	Febrero	2023-02-26T00:00:00	2024-11-08T08:00:00	7	Dirección del viento	0
78831	7	Sololá	704	Santa Lucía Utatlán 	7	Santa Rita 	2	Febrero	2023-02-26T00:00:00	2024-11-08T08:00:00	1	Precipitación	0
78832	7	Sololá	704	Santa Lucía Utatlán 	7	Santa Rita 	2	Febrero	2023-02-26T00:00:00	2024-11-08T08:00:00	8	Radiación solar	183
78833	7	Sololá	704	Santa Lucía Utatlán 	7	Santa Rita 	2	Febrero	2023-02-26T00:00:00	2024-11-08T09:00:00	2	Temperatura media	21.8
78834	7	Sololá	704	Santa Lucía Utatlán 	7	Santa Rita 	2	Febrero	2023-02-26T00:00:00	2024-11-08T09:00:00	4	Temperatura máxima	21.8
78835	7	Sololá	704	Santa Lucía Utatlán 	7	Santa Rita 	2	Febrero	2023-02-26T00:00:00	2024-11-08T09:00:00	3	Temperatura mínima	17.9
78836	7	Sololá	704	Santa Lucía Utatlán 	7	Santa Rita 	2	Febrero	2023-02-26T00:00:00	2024-11-08T09:00:00	5	Humedad	30
78837	7	Sololá	704	Santa Lucía Utatlán 	7	Santa Rita 	2	Febrero	2023-02-26T00:00:00	2024-11-08T09:00:00	6	Velocidad del viento	1.6
78838	7	Sololá	704	Santa Lucía Utatlán 	7	Santa Rita 	2	Febrero	2023-02-26T00:00:00	2024-11-08T09:00:00	7	Dirección del viento	1.61
78839	7	Sololá	704	Santa Lucía Utatlán 	7	Santa Rita 	2	Febrero	2023-02-26T00:00:00	2024-11-08T09:00:00	1	Precipitación	0
78840	7	Sololá	704	Santa Lucía Utatlán 	7	Santa Rita 	2	Febrero	2023-02-26T00:00:00	2024-11-08T09:00:00	8	Radiación solar	440
78841	7	Sololá	704	Santa Lucía Utatlán 	7	Santa Rita 	2	Febrero	2023-02-26T00:00:00	2024-11-08T10:00:00	2	Temperatura media	24.1
78842	7	Sololá	704	Santa Lucía Utatlán 	7	Santa Rita 	2	Febrero	2023-02-26T00:00:00	2024-11-08T10:00:00	4	Temperatura máxima	24.1
78843	7	Sololá	704	Santa Lucía Utatlán 	7	Santa Rita 	2	Febrero	2023-02-26T00:00:00	2024-11-08T10:00:00	3	Temperatura mínima	21.8
78844	7	Sololá	704	Santa Lucía Utatlán 	7	Santa Rita 	2	Febrero	2023-02-26T00:00:00	2024-11-08T10:00:00	5	Humedad	31
78845	7	Sololá	704	Santa Lucía Utatlán 	7	Santa Rita 	2	Febrero	2023-02-26T00:00:00	2024-11-08T10:00:00	6	Velocidad del viento	6.4
78846	7	Sololá	704	Santa Lucía Utatlán 	7	Santa Rita 	2	Febrero	2023-02-26T00:00:00	2024-11-08T10:00:00	7	Dirección del viento	6.44
78847	7	Sololá	704	Santa Lucía Utatlán 	7	Santa Rita 	2	Febrero	2023-02-26T00:00:00	2024-11-08T10:00:00	1	Precipitación	0
78848	7	Sololá	704	Santa Lucía Utatlán 	7	Santa Rita 	2	Febrero	2023-02-26T00:00:00	2024-11-08T10:00:00	8	Radiación solar	593
78849	7	Sololá	704	Santa Lucía Utatlán 	7	Santa Rita 	2	Febrero	2023-02-26T00:00:00	2024-11-08T11:00:00	2	Temperatura media	24.5
78850	7	Sololá	704	Santa Lucía Utatlán 	7	Santa Rita 	2	Febrero	2023-02-26T00:00:00	2024-11-08T11:00:00	4	Temperatura máxima	24.6
78851	7	Sololá	704	Santa Lucía Utatlán 	7	Santa Rita 	2	Febrero	2023-02-26T00:00:00	2024-11-08T11:00:00	3	Temperatura mínima	23.6
78852	7	Sololá	704	Santa Lucía Utatlán 	7	Santa Rita 	2	Febrero	2023-02-26T00:00:00	2024-11-08T11:00:00	5	Humedad	28
78853	7	Sololá	704	Santa Lucía Utatlán 	7	Santa Rita 	2	Febrero	2023-02-26T00:00:00	2024-11-08T11:00:00	6	Velocidad del viento	11.3
78854	7	Sololá	704	Santa Lucía Utatlán 	7	Santa Rita 	2	Febrero	2023-02-26T00:00:00	2024-11-08T11:00:00	7	Dirección del viento	11.27
78855	7	Sololá	704	Santa Lucía Utatlán 	7	Santa Rita 	2	Febrero	2023-02-26T00:00:00	2024-11-08T11:00:00	1	Precipitación	0
78856	7	Sololá	704	Santa Lucía Utatlán 	7	Santa Rita 	2	Febrero	2023-02-26T00:00:00	2024-11-08T11:00:00	8	Radiación solar	699
78857	7	Sololá	704	Santa Lucía Utatlán 	7	Santa Rita 	2	Febrero	2023-02-26T00:00:00	2024-11-08T12:00:00	2	Temperatura media	25.2
78858	7	Sololá	704	Santa Lucía Utatlán 	7	Santa Rita 	2	Febrero	2023-02-26T00:00:00	2024-11-08T12:00:00	4	Temperatura máxima	25.2
78859	7	Sololá	704	Santa Lucía Utatlán 	7	Santa Rita 	2	Febrero	2023-02-26T00:00:00	2024-11-08T12:00:00	3	Temperatura mínima	24.1
78860	7	Sololá	704	Santa Lucía Utatlán 	7	Santa Rita 	2	Febrero	2023-02-26T00:00:00	2024-11-08T12:00:00	5	Humedad	28
78861	7	Sololá	704	Santa Lucía Utatlán 	7	Santa Rita 	2	Febrero	2023-02-26T00:00:00	2024-11-08T12:00:00	6	Velocidad del viento	9.7
78862	7	Sololá	704	Santa Lucía Utatlán 	7	Santa Rita 	2	Febrero	2023-02-26T00:00:00	2024-11-08T12:00:00	7	Dirección del viento	9.66
78863	7	Sololá	704	Santa Lucía Utatlán 	7	Santa Rita 	2	Febrero	2023-02-26T00:00:00	2024-11-08T12:00:00	1	Precipitación	0
78864	7	Sololá	704	Santa Lucía Utatlán 	7	Santa Rita 	2	Febrero	2023-02-26T00:00:00	2024-11-08T12:00:00	8	Radiación solar	918
78865	7	Sololá	704	Santa Lucía Utatlán 	7	Santa Rita 	2	Febrero	2023-02-26T00:00:00	2024-11-08T13:00:00	2	Temperatura media	25.3
78866	7	Sololá	704	Santa Lucía Utatlán 	7	Santa Rita 	2	Febrero	2023-02-26T00:00:00	2024-11-08T13:00:00	4	Temperatura máxima	25.9
78867	7	Sololá	704	Santa Lucía Utatlán 	7	Santa Rita 	2	Febrero	2023-02-26T00:00:00	2024-11-08T13:00:00	3	Temperatura mínima	24.8
78868	7	Sololá	704	Santa Lucía Utatlán 	7	Santa Rita 	2	Febrero	2023-02-26T00:00:00	2024-11-08T13:00:00	5	Humedad	26
78869	7	Sololá	704	Santa Lucía Utatlán 	7	Santa Rita 	2	Febrero	2023-02-26T00:00:00	2024-11-08T13:00:00	6	Velocidad del viento	8
78870	7	Sololá	704	Santa Lucía Utatlán 	7	Santa Rita 	2	Febrero	2023-02-26T00:00:00	2024-11-08T13:00:00	7	Dirección del viento	8.05
78871	7	Sololá	704	Santa Lucía Utatlán 	7	Santa Rita 	2	Febrero	2023-02-26T00:00:00	2024-11-08T13:00:00	1	Precipitación	0
78872	7	Sololá	704	Santa Lucía Utatlán 	7	Santa Rita 	2	Febrero	2023-02-26T00:00:00	2024-11-08T13:00:00	8	Radiación solar	919
78873	7	Sololá	704	Santa Lucía Utatlán 	7	Santa Rita 	2	Febrero	2023-02-26T00:00:00	2024-11-08T14:00:00	2	Temperatura media	25.1
78874	7	Sololá	704	Santa Lucía Utatlán 	7	Santa Rita 	2	Febrero	2023-02-26T00:00:00	2024-11-08T14:00:00	4	Temperatura máxima	25.7
78875	7	Sololá	704	Santa Lucía Utatlán 	7	Santa Rita 	2	Febrero	2023-02-26T00:00:00	2024-11-08T14:00:00	3	Temperatura mínima	25.1
78876	7	Sololá	704	Santa Lucía Utatlán 	7	Santa Rita 	2	Febrero	2023-02-26T00:00:00	2024-11-08T14:00:00	5	Humedad	40
78877	7	Sololá	704	Santa Lucía Utatlán 	7	Santa Rita 	2	Febrero	2023-02-26T00:00:00	2024-11-08T14:00:00	6	Velocidad del viento	9.7
78878	7	Sololá	704	Santa Lucía Utatlán 	7	Santa Rita 	2	Febrero	2023-02-26T00:00:00	2024-11-08T14:00:00	7	Dirección del viento	9.66
78879	7	Sololá	704	Santa Lucía Utatlán 	7	Santa Rita 	2	Febrero	2023-02-26T00:00:00	2024-11-08T14:00:00	1	Precipitación	0
78880	7	Sololá	704	Santa Lucía Utatlán 	7	Santa Rita 	2	Febrero	2023-02-26T00:00:00	2024-11-08T14:00:00	8	Radiación solar	802
78881	7	Sololá	704	Santa Lucía Utatlán 	7	Santa Rita 	2	Febrero	2023-02-26T00:00:00	2024-11-08T15:00:00	2	Temperatura media	24.3
78882	7	Sololá	704	Santa Lucía Utatlán 	7	Santa Rita 	2	Febrero	2023-02-26T00:00:00	2024-11-08T15:00:00	4	Temperatura máxima	25.3
78883	7	Sololá	704	Santa Lucía Utatlán 	7	Santa Rita 	2	Febrero	2023-02-26T00:00:00	2024-11-08T15:00:00	3	Temperatura mínima	24.1
78884	7	Sololá	704	Santa Lucía Utatlán 	7	Santa Rita 	2	Febrero	2023-02-26T00:00:00	2024-11-08T15:00:00	5	Humedad	53
78885	7	Sololá	704	Santa Lucía Utatlán 	7	Santa Rita 	2	Febrero	2023-02-26T00:00:00	2024-11-08T15:00:00	6	Velocidad del viento	9.7
78886	7	Sololá	704	Santa Lucía Utatlán 	7	Santa Rita 	2	Febrero	2023-02-26T00:00:00	2024-11-08T15:00:00	7	Dirección del viento	9.66
78887	7	Sololá	704	Santa Lucía Utatlán 	7	Santa Rita 	2	Febrero	2023-02-26T00:00:00	2024-11-08T15:00:00	1	Precipitación	0
78888	7	Sololá	704	Santa Lucía Utatlán 	7	Santa Rita 	2	Febrero	2023-02-26T00:00:00	2024-11-08T15:00:00	8	Radiación solar	724
78889	7	Sololá	704	Santa Lucía Utatlán 	7	Santa Rita 	2	Febrero	2023-02-26T00:00:00	2024-11-08T16:00:00	2	Temperatura media	23.3
78890	7	Sololá	704	Santa Lucía Utatlán 	7	Santa Rita 	2	Febrero	2023-02-26T00:00:00	2024-11-08T16:00:00	4	Temperatura máxima	24.3
78891	7	Sololá	704	Santa Lucía Utatlán 	7	Santa Rita 	2	Febrero	2023-02-26T00:00:00	2024-11-08T16:00:00	3	Temperatura mínima	23.2
78892	7	Sololá	704	Santa Lucía Utatlán 	7	Santa Rita 	2	Febrero	2023-02-26T00:00:00	2024-11-08T16:00:00	5	Humedad	60
78893	7	Sololá	704	Santa Lucía Utatlán 	7	Santa Rita 	2	Febrero	2023-02-26T00:00:00	2024-11-08T16:00:00	6	Velocidad del viento	9.7
78894	7	Sololá	704	Santa Lucía Utatlán 	7	Santa Rita 	2	Febrero	2023-02-26T00:00:00	2024-11-08T16:00:00	7	Dirección del viento	9.66
78895	7	Sololá	704	Santa Lucía Utatlán 	7	Santa Rita 	2	Febrero	2023-02-26T00:00:00	2024-11-08T16:00:00	1	Precipitación	0
78896	7	Sololá	704	Santa Lucía Utatlán 	7	Santa Rita 	2	Febrero	2023-02-26T00:00:00	2024-11-08T16:00:00	8	Radiación solar	589
78897	7	Sololá	704	Santa Lucía Utatlán 	7	Santa Rita 	2	Febrero	2023-02-26T00:00:00	2024-11-08T17:00:00	2	Temperatura media	20.9
78898	7	Sololá	704	Santa Lucía Utatlán 	7	Santa Rita 	2	Febrero	2023-02-26T00:00:00	2024-11-08T17:00:00	4	Temperatura máxima	23.4
78899	7	Sololá	704	Santa Lucía Utatlán 	7	Santa Rita 	2	Febrero	2023-02-26T00:00:00	2024-11-08T17:00:00	3	Temperatura mínima	20.9
78900	7	Sololá	704	Santa Lucía Utatlán 	7	Santa Rita 	2	Febrero	2023-02-26T00:00:00	2024-11-08T17:00:00	5	Humedad	78
78901	7	Sololá	704	Santa Lucía Utatlán 	7	Santa Rita 	2	Febrero	2023-02-26T00:00:00	2024-11-08T17:00:00	6	Velocidad del viento	8
78902	7	Sololá	704	Santa Lucía Utatlán 	7	Santa Rita 	2	Febrero	2023-02-26T00:00:00	2024-11-08T17:00:00	7	Dirección del viento	8.05
78903	7	Sololá	704	Santa Lucía Utatlán 	7	Santa Rita 	2	Febrero	2023-02-26T00:00:00	2024-11-08T17:00:00	1	Precipitación	0
78904	7	Sololá	704	Santa Lucía Utatlán 	7	Santa Rita 	2	Febrero	2023-02-26T00:00:00	2024-11-08T17:00:00	8	Radiación solar	333
78905	7	Sololá	704	Santa Lucía Utatlán 	7	Santa Rita 	2	Febrero	2023-02-26T00:00:00	2024-11-08T18:00:00	2	Temperatura media	19.4
78906	7	Sololá	704	Santa Lucía Utatlán 	7	Santa Rita 	2	Febrero	2023-02-26T00:00:00	2024-11-08T18:00:00	4	Temperatura máxima	20.9
78907	7	Sololá	704	Santa Lucía Utatlán 	7	Santa Rita 	2	Febrero	2023-02-26T00:00:00	2024-11-08T18:00:00	3	Temperatura mínima	19.4
78908	7	Sololá	704	Santa Lucía Utatlán 	7	Santa Rita 	2	Febrero	2023-02-26T00:00:00	2024-11-08T18:00:00	5	Humedad	84
78909	7	Sololá	704	Santa Lucía Utatlán 	7	Santa Rita 	2	Febrero	2023-02-26T00:00:00	2024-11-08T18:00:00	6	Velocidad del viento	3.2
78910	7	Sololá	704	Santa Lucía Utatlán 	7	Santa Rita 	2	Febrero	2023-02-26T00:00:00	2024-11-08T18:00:00	7	Dirección del viento	3.22
78911	7	Sololá	704	Santa Lucía Utatlán 	7	Santa Rita 	2	Febrero	2023-02-26T00:00:00	2024-11-08T18:00:00	1	Precipitación	0
78912	7	Sololá	704	Santa Lucía Utatlán 	7	Santa Rita 	2	Febrero	2023-02-26T00:00:00	2024-11-08T18:00:00	8	Radiación solar	48
78913	7	Sololá	704	Santa Lucía Utatlán 	7	Santa Rita 	2	Febrero	2023-02-26T00:00:00	2024-11-08T19:00:00	2	Temperatura media	17.7
78914	7	Sololá	704	Santa Lucía Utatlán 	7	Santa Rita 	2	Febrero	2023-02-26T00:00:00	2024-11-08T19:00:00	4	Temperatura máxima	19.4
78915	7	Sololá	704	Santa Lucía Utatlán 	7	Santa Rita 	2	Febrero	2023-02-26T00:00:00	2024-11-08T19:00:00	3	Temperatura mínima	17.6
78916	7	Sololá	704	Santa Lucía Utatlán 	7	Santa Rita 	2	Febrero	2023-02-26T00:00:00	2024-11-08T19:00:00	5	Humedad	83
78917	7	Sololá	704	Santa Lucía Utatlán 	7	Santa Rita 	2	Febrero	2023-02-26T00:00:00	2024-11-08T19:00:00	6	Velocidad del viento	1.6
78918	7	Sololá	704	Santa Lucía Utatlán 	7	Santa Rita 	2	Febrero	2023-02-26T00:00:00	2024-11-08T19:00:00	7	Dirección del viento	1.61
78919	7	Sololá	704	Santa Lucía Utatlán 	7	Santa Rita 	2	Febrero	2023-02-26T00:00:00	2024-11-08T19:00:00	1	Precipitación	0
78920	7	Sololá	704	Santa Lucía Utatlán 	7	Santa Rita 	2	Febrero	2023-02-26T00:00:00	2024-11-08T19:00:00	8	Radiación solar	0
78921	7	Sololá	704	Santa Lucía Utatlán 	7	Santa Rita 	2	Febrero	2023-02-26T00:00:00	2024-11-08T20:00:00	2	Temperatura media	16.2
78922	7	Sololá	704	Santa Lucía Utatlán 	7	Santa Rita 	2	Febrero	2023-02-26T00:00:00	2024-11-08T20:00:00	4	Temperatura máxima	17.7
78923	7	Sololá	704	Santa Lucía Utatlán 	7	Santa Rita 	2	Febrero	2023-02-26T00:00:00	2024-11-08T20:00:00	3	Temperatura mínima	16.2
78924	7	Sololá	704	Santa Lucía Utatlán 	7	Santa Rita 	2	Febrero	2023-02-26T00:00:00	2024-11-08T20:00:00	5	Humedad	78
78925	7	Sololá	704	Santa Lucía Utatlán 	7	Santa Rita 	2	Febrero	2023-02-26T00:00:00	2024-11-08T20:00:00	6	Velocidad del viento	3.2
78926	7	Sololá	704	Santa Lucía Utatlán 	7	Santa Rita 	2	Febrero	2023-02-26T00:00:00	2024-11-08T20:00:00	7	Dirección del viento	3.22
78927	7	Sololá	704	Santa Lucía Utatlán 	7	Santa Rita 	2	Febrero	2023-02-26T00:00:00	2024-11-08T20:00:00	1	Precipitación	0
78928	7	Sololá	704	Santa Lucía Utatlán 	7	Santa Rita 	2	Febrero	2023-02-26T00:00:00	2024-11-08T20:00:00	8	Radiación solar	0
78929	7	Sololá	704	Santa Lucía Utatlán 	7	Santa Rita 	2	Febrero	2023-02-26T00:00:00	2024-11-08T21:00:00	2	Temperatura media	15.2
78930	7	Sololá	704	Santa Lucía Utatlán 	7	Santa Rita 	2	Febrero	2023-02-26T00:00:00	2024-11-08T21:00:00	4	Temperatura máxima	16.2
78931	7	Sololá	704	Santa Lucía Utatlán 	7	Santa Rita 	2	Febrero	2023-02-26T00:00:00	2024-11-08T21:00:00	3	Temperatura mínima	15.2
78932	7	Sololá	704	Santa Lucía Utatlán 	7	Santa Rita 	2	Febrero	2023-02-26T00:00:00	2024-11-08T21:00:00	5	Humedad	82
78933	7	Sololá	704	Santa Lucía Utatlán 	7	Santa Rita 	2	Febrero	2023-02-26T00:00:00	2024-11-08T21:00:00	6	Velocidad del viento	3.2
78934	7	Sololá	704	Santa Lucía Utatlán 	7	Santa Rita 	2	Febrero	2023-02-26T00:00:00	2024-11-08T21:00:00	7	Dirección del viento	3.22
78935	7	Sololá	704	Santa Lucía Utatlán 	7	Santa Rita 	2	Febrero	2023-02-26T00:00:00	2024-11-08T21:00:00	1	Precipitación	0
78936	7	Sololá	704	Santa Lucía Utatlán 	7	Santa Rita 	2	Febrero	2023-02-26T00:00:00	2024-11-08T21:00:00	8	Radiación solar	0
78937	7	Sololá	704	Santa Lucía Utatlán 	7	Santa Rita 	2	Febrero	2023-02-26T00:00:00	2024-11-08T22:00:00	2	Temperatura media	14.1
78938	7	Sololá	704	Santa Lucía Utatlán 	7	Santa Rita 	2	Febrero	2023-02-26T00:00:00	2024-11-08T22:00:00	4	Temperatura máxima	15.2
78939	7	Sololá	704	Santa Lucía Utatlán 	7	Santa Rita 	2	Febrero	2023-02-26T00:00:00	2024-11-08T22:00:00	3	Temperatura mínima	14.1
78940	7	Sololá	704	Santa Lucía Utatlán 	7	Santa Rita 	2	Febrero	2023-02-26T00:00:00	2024-11-08T22:00:00	5	Humedad	77
78941	7	Sololá	704	Santa Lucía Utatlán 	7	Santa Rita 	2	Febrero	2023-02-26T00:00:00	2024-11-08T22:00:00	6	Velocidad del viento	3.2
78942	7	Sololá	704	Santa Lucía Utatlán 	7	Santa Rita 	2	Febrero	2023-02-26T00:00:00	2024-11-08T22:00:00	7	Dirección del viento	3.22
78943	7	Sololá	704	Santa Lucía Utatlán 	7	Santa Rita 	2	Febrero	2023-02-26T00:00:00	2024-11-08T22:00:00	1	Precipitación	0
78944	7	Sololá	704	Santa Lucía Utatlán 	7	Santa Rita 	2	Febrero	2023-02-26T00:00:00	2024-11-08T22:00:00	8	Radiación solar	0
78945	7	Sololá	704	Santa Lucía Utatlán 	7	Santa Rita 	2	Febrero	2023-02-26T00:00:00	2024-11-08T23:00:00	2	Temperatura media	14.1
78946	7	Sololá	704	Santa Lucía Utatlán 	7	Santa Rita 	2	Febrero	2023-02-26T00:00:00	2024-11-08T23:00:00	4	Temperatura máxima	14.2
78947	7	Sololá	704	Santa Lucía Utatlán 	7	Santa Rita 	2	Febrero	2023-02-26T00:00:00	2024-11-08T23:00:00	3	Temperatura mínima	13.9
78948	7	Sololá	704	Santa Lucía Utatlán 	7	Santa Rita 	2	Febrero	2023-02-26T00:00:00	2024-11-08T23:00:00	5	Humedad	78
78949	7	Sololá	704	Santa Lucía Utatlán 	7	Santa Rita 	2	Febrero	2023-02-26T00:00:00	2024-11-08T23:00:00	6	Velocidad del viento	4.8
78950	7	Sololá	704	Santa Lucía Utatlán 	7	Santa Rita 	2	Febrero	2023-02-26T00:00:00	2024-11-08T23:00:00	7	Dirección del viento	4.83
78951	7	Sololá	704	Santa Lucía Utatlán 	7	Santa Rita 	2	Febrero	2023-02-26T00:00:00	2024-11-08T23:00:00	1	Precipitación	0
78952	7	Sololá	704	Santa Lucía Utatlán 	7	Santa Rita 	2	Febrero	2023-02-26T00:00:00	2024-11-08T23:00:00	8	Radiación solar	0
78953	7	Sololá	704	Santa Lucía Utatlán 	7	Santa Rita 	2	Febrero	2023-02-27T00:00:00	2024-11-08T00:00:00	2	Temperatura media	13.4
78954	7	Sololá	704	Santa Lucía Utatlán 	7	Santa Rita 	2	Febrero	2023-02-27T00:00:00	2024-11-08T00:00:00	4	Temperatura máxima	14.2
78955	7	Sololá	704	Santa Lucía Utatlán 	7	Santa Rita 	2	Febrero	2023-02-27T00:00:00	2024-11-08T00:00:00	3	Temperatura mínima	13.4
78956	7	Sololá	704	Santa Lucía Utatlán 	7	Santa Rita 	2	Febrero	2023-02-27T00:00:00	2024-11-08T00:00:00	5	Humedad	72
78957	7	Sololá	704	Santa Lucía Utatlán 	7	Santa Rita 	2	Febrero	2023-02-27T00:00:00	2024-11-08T00:00:00	6	Velocidad del viento	4.8
78958	7	Sololá	704	Santa Lucía Utatlán 	7	Santa Rita 	2	Febrero	2023-02-27T00:00:00	2024-11-08T00:00:00	7	Dirección del viento	4.83
78959	7	Sololá	704	Santa Lucía Utatlán 	7	Santa Rita 	2	Febrero	2023-02-27T00:00:00	2024-11-08T00:00:00	1	Precipitación	0
78960	7	Sololá	704	Santa Lucía Utatlán 	7	Santa Rita 	2	Febrero	2023-02-27T00:00:00	2024-11-08T00:00:00	8	Radiación solar	0
78961	7	Sololá	704	Santa Lucía Utatlán 	7	Santa Rita 	2	Febrero	2023-02-27T00:00:00	2024-11-08T01:00:00	2	Temperatura media	12.9
78962	7	Sololá	704	Santa Lucía Utatlán 	7	Santa Rita 	2	Febrero	2023-02-27T00:00:00	2024-11-08T01:00:00	4	Temperatura máxima	13.5
78963	7	Sololá	704	Santa Lucía Utatlán 	7	Santa Rita 	2	Febrero	2023-02-27T00:00:00	2024-11-08T01:00:00	3	Temperatura mínima	12.9
78964	7	Sololá	704	Santa Lucía Utatlán 	7	Santa Rita 	2	Febrero	2023-02-27T00:00:00	2024-11-08T01:00:00	5	Humedad	66
78965	7	Sololá	704	Santa Lucía Utatlán 	7	Santa Rita 	2	Febrero	2023-02-27T00:00:00	2024-11-08T01:00:00	6	Velocidad del viento	4.8
78966	7	Sololá	704	Santa Lucía Utatlán 	7	Santa Rita 	2	Febrero	2023-02-27T00:00:00	2024-11-08T01:00:00	7	Dirección del viento	4.83
78967	7	Sololá	704	Santa Lucía Utatlán 	7	Santa Rita 	2	Febrero	2023-02-27T00:00:00	2024-11-08T01:00:00	1	Precipitación	0
78968	7	Sololá	704	Santa Lucía Utatlán 	7	Santa Rita 	2	Febrero	2023-02-27T00:00:00	2024-11-08T01:00:00	8	Radiación solar	0
78969	7	Sololá	704	Santa Lucía Utatlán 	7	Santa Rita 	2	Febrero	2023-02-27T00:00:00	2024-11-08T02:00:00	2	Temperatura media	13.7
78970	7	Sololá	704	Santa Lucía Utatlán 	7	Santa Rita 	2	Febrero	2023-02-27T00:00:00	2024-11-08T02:00:00	4	Temperatura máxima	13.8
78971	7	Sololá	704	Santa Lucía Utatlán 	7	Santa Rita 	2	Febrero	2023-02-27T00:00:00	2024-11-08T02:00:00	3	Temperatura mínima	12.9
78972	7	Sololá	704	Santa Lucía Utatlán 	7	Santa Rita 	2	Febrero	2023-02-27T00:00:00	2024-11-08T02:00:00	5	Humedad	67
78973	7	Sololá	704	Santa Lucía Utatlán 	7	Santa Rita 	2	Febrero	2023-02-27T00:00:00	2024-11-08T02:00:00	6	Velocidad del viento	4.8
78974	7	Sololá	704	Santa Lucía Utatlán 	7	Santa Rita 	2	Febrero	2023-02-27T00:00:00	2024-11-08T02:00:00	7	Dirección del viento	4.83
78975	7	Sololá	704	Santa Lucía Utatlán 	7	Santa Rita 	2	Febrero	2023-02-27T00:00:00	2024-11-08T02:00:00	1	Precipitación	0
78976	7	Sololá	704	Santa Lucía Utatlán 	7	Santa Rita 	2	Febrero	2023-02-27T00:00:00	2024-11-08T02:00:00	8	Radiación solar	0
78977	7	Sololá	704	Santa Lucía Utatlán 	7	Santa Rita 	2	Febrero	2023-02-27T00:00:00	2024-11-08T03:00:00	2	Temperatura media	13.3
78978	7	Sololá	704	Santa Lucía Utatlán 	7	Santa Rita 	2	Febrero	2023-02-27T00:00:00	2024-11-08T03:00:00	4	Temperatura máxima	13.8
78979	7	Sololá	704	Santa Lucía Utatlán 	7	Santa Rita 	2	Febrero	2023-02-27T00:00:00	2024-11-08T03:00:00	3	Temperatura mínima	13.1
78980	7	Sololá	704	Santa Lucía Utatlán 	7	Santa Rita 	2	Febrero	2023-02-27T00:00:00	2024-11-08T03:00:00	5	Humedad	70
78981	7	Sololá	704	Santa Lucía Utatlán 	7	Santa Rita 	2	Febrero	2023-02-27T00:00:00	2024-11-08T03:00:00	6	Velocidad del viento	4.8
78982	7	Sololá	704	Santa Lucía Utatlán 	7	Santa Rita 	2	Febrero	2023-02-27T00:00:00	2024-11-08T03:00:00	7	Dirección del viento	4.83
78983	7	Sololá	704	Santa Lucía Utatlán 	7	Santa Rita 	2	Febrero	2023-02-27T00:00:00	2024-11-08T03:00:00	1	Precipitación	0
78984	7	Sololá	704	Santa Lucía Utatlán 	7	Santa Rita 	2	Febrero	2023-02-27T00:00:00	2024-11-08T03:00:00	8	Radiación solar	0
78985	7	Sololá	704	Santa Lucía Utatlán 	7	Santa Rita 	2	Febrero	2023-02-27T00:00:00	2024-11-08T04:00:00	2	Temperatura media	12.8
78986	7	Sololá	704	Santa Lucía Utatlán 	7	Santa Rita 	2	Febrero	2023-02-27T00:00:00	2024-11-08T04:00:00	4	Temperatura máxima	13.3
78987	7	Sololá	704	Santa Lucía Utatlán 	7	Santa Rita 	2	Febrero	2023-02-27T00:00:00	2024-11-08T04:00:00	3	Temperatura mínima	12.8
78988	7	Sololá	704	Santa Lucía Utatlán 	7	Santa Rita 	2	Febrero	2023-02-27T00:00:00	2024-11-08T04:00:00	5	Humedad	76
78989	7	Sololá	704	Santa Lucía Utatlán 	7	Santa Rita 	2	Febrero	2023-02-27T00:00:00	2024-11-08T04:00:00	6	Velocidad del viento	4.8
78990	7	Sololá	704	Santa Lucía Utatlán 	7	Santa Rita 	2	Febrero	2023-02-27T00:00:00	2024-11-08T04:00:00	7	Dirección del viento	4.83
78991	7	Sololá	704	Santa Lucía Utatlán 	7	Santa Rita 	2	Febrero	2023-02-27T00:00:00	2024-11-08T04:00:00	1	Precipitación	0
78992	7	Sololá	704	Santa Lucía Utatlán 	7	Santa Rita 	2	Febrero	2023-02-27T00:00:00	2024-11-08T04:00:00	8	Radiación solar	0
78993	7	Sololá	704	Santa Lucía Utatlán 	7	Santa Rita 	2	Febrero	2023-02-27T00:00:00	2024-11-08T05:00:00	2	Temperatura media	12.5
78994	7	Sololá	704	Santa Lucía Utatlán 	7	Santa Rita 	2	Febrero	2023-02-27T00:00:00	2024-11-08T05:00:00	4	Temperatura máxima	13.2
78995	7	Sololá	704	Santa Lucía Utatlán 	7	Santa Rita 	2	Febrero	2023-02-27T00:00:00	2024-11-08T05:00:00	3	Temperatura mínima	12.5
78996	7	Sololá	704	Santa Lucía Utatlán 	7	Santa Rita 	2	Febrero	2023-02-27T00:00:00	2024-11-08T05:00:00	5	Humedad	72
78997	7	Sololá	704	Santa Lucía Utatlán 	7	Santa Rita 	2	Febrero	2023-02-27T00:00:00	2024-11-08T05:00:00	6	Velocidad del viento	4.8
78998	7	Sololá	704	Santa Lucía Utatlán 	7	Santa Rita 	2	Febrero	2023-02-27T00:00:00	2024-11-08T05:00:00	7	Dirección del viento	4.83
78999	7	Sololá	704	Santa Lucía Utatlán 	7	Santa Rita 	2	Febrero	2023-02-27T00:00:00	2024-11-08T05:00:00	1	Precipitación	0
79000	7	Sololá	704	Santa Lucía Utatlán 	7	Santa Rita 	2	Febrero	2023-02-27T00:00:00	2024-11-08T05:00:00	8	Radiación solar	0
79001	7	Sololá	704	Santa Lucía Utatlán 	7	Santa Rita 	2	Febrero	2023-02-27T00:00:00	2024-11-08T06:00:00	2	Temperatura media	11.8
79002	7	Sololá	704	Santa Lucía Utatlán 	7	Santa Rita 	2	Febrero	2023-02-27T00:00:00	2024-11-08T06:00:00	4	Temperatura máxima	12.6
79003	7	Sololá	704	Santa Lucía Utatlán 	7	Santa Rita 	2	Febrero	2023-02-27T00:00:00	2024-11-08T06:00:00	3	Temperatura mínima	11.8
79004	7	Sololá	704	Santa Lucía Utatlán 	7	Santa Rita 	2	Febrero	2023-02-27T00:00:00	2024-11-08T06:00:00	5	Humedad	71
79005	7	Sololá	704	Santa Lucía Utatlán 	7	Santa Rita 	2	Febrero	2023-02-27T00:00:00	2024-11-08T06:00:00	6	Velocidad del viento	4.8
79006	7	Sololá	704	Santa Lucía Utatlán 	7	Santa Rita 	2	Febrero	2023-02-27T00:00:00	2024-11-08T06:00:00	7	Dirección del viento	4.83
79007	7	Sololá	704	Santa Lucía Utatlán 	7	Santa Rita 	2	Febrero	2023-02-27T00:00:00	2024-11-08T06:00:00	1	Precipitación	0
79008	7	Sololá	704	Santa Lucía Utatlán 	7	Santa Rita 	2	Febrero	2023-02-27T00:00:00	2024-11-08T06:00:00	8	Radiación solar	0
79009	7	Sololá	704	Santa Lucía Utatlán 	7	Santa Rita 	2	Febrero	2023-02-27T00:00:00	2024-11-08T07:00:00	2	Temperatura media	12.7
79010	7	Sololá	704	Santa Lucía Utatlán 	7	Santa Rita 	2	Febrero	2023-02-27T00:00:00	2024-11-08T07:00:00	4	Temperatura máxima	12.7
79011	7	Sololá	704	Santa Lucía Utatlán 	7	Santa Rita 	2	Febrero	2023-02-27T00:00:00	2024-11-08T07:00:00	3	Temperatura mínima	11.6
79012	7	Sololá	704	Santa Lucía Utatlán 	7	Santa Rita 	2	Febrero	2023-02-27T00:00:00	2024-11-08T07:00:00	5	Humedad	78
79013	7	Sololá	704	Santa Lucía Utatlán 	7	Santa Rita 	2	Febrero	2023-02-27T00:00:00	2024-11-08T07:00:00	6	Velocidad del viento	4.8
79014	7	Sololá	704	Santa Lucía Utatlán 	7	Santa Rita 	2	Febrero	2023-02-27T00:00:00	2024-11-08T07:00:00	7	Dirección del viento	4.83
79015	7	Sololá	704	Santa Lucía Utatlán 	7	Santa Rita 	2	Febrero	2023-02-27T00:00:00	2024-11-08T07:00:00	1	Precipitación	0
79016	7	Sololá	704	Santa Lucía Utatlán 	7	Santa Rita 	2	Febrero	2023-02-27T00:00:00	2024-11-08T07:00:00	8	Radiación solar	8
79017	7	Sololá	704	Santa Lucía Utatlán 	7	Santa Rita 	2	Febrero	2023-02-27T00:00:00	2024-11-08T08:00:00	2	Temperatura media	17.4
79018	7	Sololá	704	Santa Lucía Utatlán 	7	Santa Rita 	2	Febrero	2023-02-27T00:00:00	2024-11-08T08:00:00	4	Temperatura máxima	17.4
79019	7	Sololá	704	Santa Lucía Utatlán 	7	Santa Rita 	2	Febrero	2023-02-27T00:00:00	2024-11-08T08:00:00	3	Temperatura mínima	12.6
79020	7	Sololá	704	Santa Lucía Utatlán 	7	Santa Rita 	2	Febrero	2023-02-27T00:00:00	2024-11-08T08:00:00	5	Humedad	69
79021	7	Sololá	704	Santa Lucía Utatlán 	7	Santa Rita 	2	Febrero	2023-02-27T00:00:00	2024-11-08T08:00:00	6	Velocidad del viento	0
79022	7	Sololá	704	Santa Lucía Utatlán 	7	Santa Rita 	2	Febrero	2023-02-27T00:00:00	2024-11-08T08:00:00	7	Dirección del viento	0
79023	7	Sololá	704	Santa Lucía Utatlán 	7	Santa Rita 	2	Febrero	2023-02-27T00:00:00	2024-11-08T08:00:00	1	Precipitación	0
79024	7	Sololá	704	Santa Lucía Utatlán 	7	Santa Rita 	2	Febrero	2023-02-27T00:00:00	2024-11-08T08:00:00	8	Radiación solar	180
79025	7	Sololá	704	Santa Lucía Utatlán 	7	Santa Rita 	2	Febrero	2023-02-27T00:00:00	2024-11-08T09:00:00	2	Temperatura media	20.2
79026	7	Sololá	704	Santa Lucía Utatlán 	7	Santa Rita 	2	Febrero	2023-02-27T00:00:00	2024-11-08T09:00:00	4	Temperatura máxima	20.2
79027	7	Sololá	704	Santa Lucía Utatlán 	7	Santa Rita 	2	Febrero	2023-02-27T00:00:00	2024-11-08T09:00:00	3	Temperatura mínima	17.4
79028	7	Sololá	704	Santa Lucía Utatlán 	7	Santa Rita 	2	Febrero	2023-02-27T00:00:00	2024-11-08T09:00:00	5	Humedad	61
79029	7	Sololá	704	Santa Lucía Utatlán 	7	Santa Rita 	2	Febrero	2023-02-27T00:00:00	2024-11-08T09:00:00	6	Velocidad del viento	1.6
79030	7	Sololá	704	Santa Lucía Utatlán 	7	Santa Rita 	2	Febrero	2023-02-27T00:00:00	2024-11-08T09:00:00	7	Dirección del viento	1.61
79031	7	Sololá	704	Santa Lucía Utatlán 	7	Santa Rita 	2	Febrero	2023-02-27T00:00:00	2024-11-08T09:00:00	1	Precipitación	0
79032	7	Sololá	704	Santa Lucía Utatlán 	7	Santa Rita 	2	Febrero	2023-02-27T00:00:00	2024-11-08T09:00:00	8	Radiación solar	428
79033	7	Sololá	704	Santa Lucía Utatlán 	7	Santa Rita 	2	Febrero	2023-02-27T00:00:00	2024-11-08T10:00:00	2	Temperatura media	22.8
79034	7	Sololá	704	Santa Lucía Utatlán 	7	Santa Rita 	2	Febrero	2023-02-27T00:00:00	2024-11-08T10:00:00	4	Temperatura máxima	22.8
79035	7	Sololá	704	Santa Lucía Utatlán 	7	Santa Rita 	2	Febrero	2023-02-27T00:00:00	2024-11-08T10:00:00	3	Temperatura mínima	20.2
79036	7	Sololá	704	Santa Lucía Utatlán 	7	Santa Rita 	2	Febrero	2023-02-27T00:00:00	2024-11-08T10:00:00	5	Humedad	45
79037	7	Sololá	704	Santa Lucía Utatlán 	7	Santa Rita 	2	Febrero	2023-02-27T00:00:00	2024-11-08T10:00:00	6	Velocidad del viento	4.8
79038	7	Sololá	704	Santa Lucía Utatlán 	7	Santa Rita 	2	Febrero	2023-02-27T00:00:00	2024-11-08T10:00:00	7	Dirección del viento	4.83
79039	7	Sololá	704	Santa Lucía Utatlán 	7	Santa Rita 	2	Febrero	2023-02-27T00:00:00	2024-11-08T10:00:00	1	Precipitación	0
79040	7	Sololá	704	Santa Lucía Utatlán 	7	Santa Rita 	2	Febrero	2023-02-27T00:00:00	2024-11-08T10:00:00	8	Radiación solar	582
79041	7	Sololá	704	Santa Lucía Utatlán 	7	Santa Rita 	2	Febrero	2023-02-27T00:00:00	2024-11-08T11:00:00	2	Temperatura media	24.7
79042	7	Sololá	704	Santa Lucía Utatlán 	7	Santa Rita 	2	Febrero	2023-02-27T00:00:00	2024-11-08T11:00:00	4	Temperatura máxima	24.7
79043	7	Sololá	704	Santa Lucía Utatlán 	7	Santa Rita 	2	Febrero	2023-02-27T00:00:00	2024-11-08T11:00:00	3	Temperatura mínima	22.8
79044	7	Sololá	704	Santa Lucía Utatlán 	7	Santa Rita 	2	Febrero	2023-02-27T00:00:00	2024-11-08T11:00:00	5	Humedad	38
79045	7	Sololá	704	Santa Lucía Utatlán 	7	Santa Rita 	2	Febrero	2023-02-27T00:00:00	2024-11-08T11:00:00	6	Velocidad del viento	6.4
79046	7	Sololá	704	Santa Lucía Utatlán 	7	Santa Rita 	2	Febrero	2023-02-27T00:00:00	2024-11-08T11:00:00	7	Dirección del viento	6.44
79047	7	Sololá	704	Santa Lucía Utatlán 	7	Santa Rita 	2	Febrero	2023-02-27T00:00:00	2024-11-08T11:00:00	1	Precipitación	0
79048	7	Sololá	704	Santa Lucía Utatlán 	7	Santa Rita 	2	Febrero	2023-02-27T00:00:00	2024-11-08T11:00:00	8	Radiación solar	689
79049	7	Sololá	704	Santa Lucía Utatlán 	7	Santa Rita 	2	Febrero	2023-02-27T00:00:00	2024-11-08T12:00:00	2	Temperatura media	24.9
79050	7	Sololá	704	Santa Lucía Utatlán 	7	Santa Rita 	2	Febrero	2023-02-27T00:00:00	2024-11-08T12:00:00	4	Temperatura máxima	25
79051	7	Sololá	704	Santa Lucía Utatlán 	7	Santa Rita 	2	Febrero	2023-02-27T00:00:00	2024-11-08T12:00:00	3	Temperatura mínima	24.2
79052	7	Sololá	704	Santa Lucía Utatlán 	7	Santa Rita 	2	Febrero	2023-02-27T00:00:00	2024-11-08T12:00:00	5	Humedad	42
79053	7	Sololá	704	Santa Lucía Utatlán 	7	Santa Rita 	2	Febrero	2023-02-27T00:00:00	2024-11-08T12:00:00	6	Velocidad del viento	6.4
79054	7	Sololá	704	Santa Lucía Utatlán 	7	Santa Rita 	2	Febrero	2023-02-27T00:00:00	2024-11-08T12:00:00	7	Dirección del viento	6.44
79055	7	Sololá	704	Santa Lucía Utatlán 	7	Santa Rita 	2	Febrero	2023-02-27T00:00:00	2024-11-08T12:00:00	1	Precipitación	0
79056	7	Sololá	704	Santa Lucía Utatlán 	7	Santa Rita 	2	Febrero	2023-02-27T00:00:00	2024-11-08T12:00:00	8	Radiación solar	911
79057	7	Sololá	704	Santa Lucía Utatlán 	7	Santa Rita 	2	Febrero	2023-02-27T00:00:00	2024-11-08T13:00:00	2	Temperatura media	25
79058	7	Sololá	704	Santa Lucía Utatlán 	7	Santa Rita 	2	Febrero	2023-02-27T00:00:00	2024-11-08T13:00:00	4	Temperatura máxima	25.1
79059	7	Sololá	704	Santa Lucía Utatlán 	7	Santa Rita 	2	Febrero	2023-02-27T00:00:00	2024-11-08T13:00:00	3	Temperatura mínima	24.4
79060	7	Sololá	704	Santa Lucía Utatlán 	7	Santa Rita 	2	Febrero	2023-02-27T00:00:00	2024-11-08T13:00:00	5	Humedad	53
79061	7	Sololá	704	Santa Lucía Utatlán 	7	Santa Rita 	2	Febrero	2023-02-27T00:00:00	2024-11-08T13:00:00	6	Velocidad del viento	6.4
79062	7	Sololá	704	Santa Lucía Utatlán 	7	Santa Rita 	2	Febrero	2023-02-27T00:00:00	2024-11-08T13:00:00	7	Dirección del viento	6.44
79063	7	Sololá	704	Santa Lucía Utatlán 	7	Santa Rita 	2	Febrero	2023-02-27T00:00:00	2024-11-08T13:00:00	1	Precipitación	0
79064	7	Sololá	704	Santa Lucía Utatlán 	7	Santa Rita 	2	Febrero	2023-02-27T00:00:00	2024-11-08T13:00:00	8	Radiación solar	905
79065	7	Sololá	704	Santa Lucía Utatlán 	7	Santa Rita 	2	Febrero	2023-02-27T00:00:00	2024-11-08T14:00:00	2	Temperatura media	23.9
79066	7	Sololá	704	Santa Lucía Utatlán 	7	Santa Rita 	2	Febrero	2023-02-27T00:00:00	2024-11-08T14:00:00	4	Temperatura máxima	25
79067	7	Sololá	704	Santa Lucía Utatlán 	7	Santa Rita 	2	Febrero	2023-02-27T00:00:00	2024-11-08T14:00:00	3	Temperatura mínima	23.9
79068	7	Sololá	704	Santa Lucía Utatlán 	7	Santa Rita 	2	Febrero	2023-02-27T00:00:00	2024-11-08T14:00:00	5	Humedad	64
79069	7	Sololá	704	Santa Lucía Utatlán 	7	Santa Rita 	2	Febrero	2023-02-27T00:00:00	2024-11-08T14:00:00	6	Velocidad del viento	8
79070	7	Sololá	704	Santa Lucía Utatlán 	7	Santa Rita 	2	Febrero	2023-02-27T00:00:00	2024-11-08T14:00:00	7	Dirección del viento	8.05
79071	7	Sololá	704	Santa Lucía Utatlán 	7	Santa Rita 	2	Febrero	2023-02-27T00:00:00	2024-11-08T14:00:00	1	Precipitación	0
79072	7	Sololá	704	Santa Lucía Utatlán 	7	Santa Rita 	2	Febrero	2023-02-27T00:00:00	2024-11-08T14:00:00	8	Radiación solar	784
79073	7	Sololá	704	Santa Lucía Utatlán 	7	Santa Rita 	2	Febrero	2023-02-27T00:00:00	2024-11-08T15:00:00	2	Temperatura media	22.3
79074	7	Sololá	704	Santa Lucía Utatlán 	7	Santa Rita 	2	Febrero	2023-02-27T00:00:00	2024-11-08T15:00:00	4	Temperatura máxima	24.2
79075	7	Sololá	704	Santa Lucía Utatlán 	7	Santa Rita 	2	Febrero	2023-02-27T00:00:00	2024-11-08T15:00:00	3	Temperatura mínima	22.2
79076	7	Sololá	704	Santa Lucía Utatlán 	7	Santa Rita 	2	Febrero	2023-02-27T00:00:00	2024-11-08T15:00:00	5	Humedad	74
79077	7	Sololá	704	Santa Lucía Utatlán 	7	Santa Rita 	2	Febrero	2023-02-27T00:00:00	2024-11-08T15:00:00	6	Velocidad del viento	9.7
79078	7	Sololá	704	Santa Lucía Utatlán 	7	Santa Rita 	2	Febrero	2023-02-27T00:00:00	2024-11-08T15:00:00	7	Dirección del viento	9.66
79079	7	Sololá	704	Santa Lucía Utatlán 	7	Santa Rita 	2	Febrero	2023-02-27T00:00:00	2024-11-08T15:00:00	1	Precipitación	0
79080	7	Sololá	704	Santa Lucía Utatlán 	7	Santa Rita 	2	Febrero	2023-02-27T00:00:00	2024-11-08T15:00:00	8	Radiación solar	522
79081	7	Sololá	704	Santa Lucía Utatlán 	7	Santa Rita 	2	Febrero	2023-02-27T00:00:00	2024-11-08T16:00:00	2	Temperatura media	21.7
79082	7	Sololá	704	Santa Lucía Utatlán 	7	Santa Rita 	2	Febrero	2023-02-27T00:00:00	2024-11-08T16:00:00	4	Temperatura máxima	22.4
79083	7	Sololá	704	Santa Lucía Utatlán 	7	Santa Rita 	2	Febrero	2023-02-27T00:00:00	2024-11-08T16:00:00	3	Temperatura mínima	21.7
79084	7	Sololá	704	Santa Lucía Utatlán 	7	Santa Rita 	2	Febrero	2023-02-27T00:00:00	2024-11-08T16:00:00	5	Humedad	77
79085	7	Sololá	704	Santa Lucía Utatlán 	7	Santa Rita 	2	Febrero	2023-02-27T00:00:00	2024-11-08T16:00:00	6	Velocidad del viento	6.4
79086	7	Sololá	704	Santa Lucía Utatlán 	7	Santa Rita 	2	Febrero	2023-02-27T00:00:00	2024-11-08T16:00:00	7	Dirección del viento	6.44
79087	7	Sololá	704	Santa Lucía Utatlán 	7	Santa Rita 	2	Febrero	2023-02-27T00:00:00	2024-11-08T16:00:00	1	Precipitación	0
79088	7	Sololá	704	Santa Lucía Utatlán 	7	Santa Rita 	2	Febrero	2023-02-27T00:00:00	2024-11-08T16:00:00	8	Radiación solar	247
79089	7	Sololá	704	Santa Lucía Utatlán 	7	Santa Rita 	2	Febrero	2023-02-27T00:00:00	2024-11-08T17:00:00	2	Temperatura media	20.4
79090	7	Sololá	704	Santa Lucía Utatlán 	7	Santa Rita 	2	Febrero	2023-02-27T00:00:00	2024-11-08T17:00:00	4	Temperatura máxima	21.7
79091	7	Sololá	704	Santa Lucía Utatlán 	7	Santa Rita 	2	Febrero	2023-02-27T00:00:00	2024-11-08T17:00:00	3	Temperatura mínima	20.4
79092	7	Sololá	704	Santa Lucía Utatlán 	7	Santa Rita 	2	Febrero	2023-02-27T00:00:00	2024-11-08T17:00:00	5	Humedad	84
79093	7	Sololá	704	Santa Lucía Utatlán 	7	Santa Rita 	2	Febrero	2023-02-27T00:00:00	2024-11-08T17:00:00	6	Velocidad del viento	4.8
79094	7	Sololá	704	Santa Lucía Utatlán 	7	Santa Rita 	2	Febrero	2023-02-27T00:00:00	2024-11-08T17:00:00	7	Dirección del viento	4.83
79095	7	Sololá	704	Santa Lucía Utatlán 	7	Santa Rita 	2	Febrero	2023-02-27T00:00:00	2024-11-08T17:00:00	1	Precipitación	0
79096	7	Sololá	704	Santa Lucía Utatlán 	7	Santa Rita 	2	Febrero	2023-02-27T00:00:00	2024-11-08T17:00:00	8	Radiación solar	116
79097	7	Sololá	704	Santa Lucía Utatlán 	7	Santa Rita 	2	Febrero	2023-02-27T00:00:00	2024-11-08T18:00:00	2	Temperatura media	19.4
79098	7	Sololá	704	Santa Lucía Utatlán 	7	Santa Rita 	2	Febrero	2023-02-27T00:00:00	2024-11-08T18:00:00	4	Temperatura máxima	20.4
79099	7	Sololá	704	Santa Lucía Utatlán 	7	Santa Rita 	2	Febrero	2023-02-27T00:00:00	2024-11-08T18:00:00	3	Temperatura mínima	19.4
79100	7	Sololá	704	Santa Lucía Utatlán 	7	Santa Rita 	2	Febrero	2023-02-27T00:00:00	2024-11-08T18:00:00	5	Humedad	88
79101	7	Sololá	704	Santa Lucía Utatlán 	7	Santa Rita 	2	Febrero	2023-02-27T00:00:00	2024-11-08T18:00:00	6	Velocidad del viento	3.2
79102	7	Sololá	704	Santa Lucía Utatlán 	7	Santa Rita 	2	Febrero	2023-02-27T00:00:00	2024-11-08T18:00:00	7	Dirección del viento	3.22
79103	7	Sololá	704	Santa Lucía Utatlán 	7	Santa Rita 	2	Febrero	2023-02-27T00:00:00	2024-11-08T18:00:00	1	Precipitación	0
79104	7	Sololá	704	Santa Lucía Utatlán 	7	Santa Rita 	2	Febrero	2023-02-27T00:00:00	2024-11-08T18:00:00	8	Radiación solar	22
79105	7	Sololá	704	Santa Lucía Utatlán 	7	Santa Rita 	2	Febrero	2023-02-27T00:00:00	2024-11-08T19:00:00	2	Temperatura media	19.3
79106	7	Sololá	704	Santa Lucía Utatlán 	7	Santa Rita 	2	Febrero	2023-02-27T00:00:00	2024-11-08T19:00:00	4	Temperatura máxima	19.4
79107	7	Sololá	704	Santa Lucía Utatlán 	7	Santa Rita 	2	Febrero	2023-02-27T00:00:00	2024-11-08T19:00:00	3	Temperatura mínima	19.1
79108	7	Sololá	704	Santa Lucía Utatlán 	7	Santa Rita 	2	Febrero	2023-02-27T00:00:00	2024-11-08T19:00:00	5	Humedad	86
79109	7	Sololá	704	Santa Lucía Utatlán 	7	Santa Rita 	2	Febrero	2023-02-27T00:00:00	2024-11-08T19:00:00	6	Velocidad del viento	3.2
79110	7	Sololá	704	Santa Lucía Utatlán 	7	Santa Rita 	2	Febrero	2023-02-27T00:00:00	2024-11-08T19:00:00	7	Dirección del viento	3.22
79111	7	Sololá	704	Santa Lucía Utatlán 	7	Santa Rita 	2	Febrero	2023-02-27T00:00:00	2024-11-08T19:00:00	1	Precipitación	0
79112	7	Sololá	704	Santa Lucía Utatlán 	7	Santa Rita 	2	Febrero	2023-02-27T00:00:00	2024-11-08T19:00:00	8	Radiación solar	0
79113	7	Sololá	704	Santa Lucía Utatlán 	7	Santa Rita 	2	Febrero	2023-02-27T00:00:00	2024-11-08T20:00:00	2	Temperatura media	17.7
79114	7	Sololá	704	Santa Lucía Utatlán 	7	Santa Rita 	2	Febrero	2023-02-27T00:00:00	2024-11-08T20:00:00	4	Temperatura máxima	19.4
79115	7	Sololá	704	Santa Lucía Utatlán 	7	Santa Rita 	2	Febrero	2023-02-27T00:00:00	2024-11-08T20:00:00	3	Temperatura mínima	17.6
79116	7	Sololá	704	Santa Lucía Utatlán 	7	Santa Rita 	2	Febrero	2023-02-27T00:00:00	2024-11-08T20:00:00	5	Humedad	85
79117	7	Sololá	704	Santa Lucía Utatlán 	7	Santa Rita 	2	Febrero	2023-02-27T00:00:00	2024-11-08T20:00:00	6	Velocidad del viento	1.6
79118	7	Sololá	704	Santa Lucía Utatlán 	7	Santa Rita 	2	Febrero	2023-02-27T00:00:00	2024-11-08T20:00:00	7	Dirección del viento	1.61
79119	7	Sololá	704	Santa Lucía Utatlán 	7	Santa Rita 	2	Febrero	2023-02-27T00:00:00	2024-11-08T20:00:00	1	Precipitación	0
79120	7	Sololá	704	Santa Lucía Utatlán 	7	Santa Rita 	2	Febrero	2023-02-27T00:00:00	2024-11-08T20:00:00	8	Radiación solar	0
79121	7	Sololá	704	Santa Lucía Utatlán 	7	Santa Rita 	2	Febrero	2023-02-27T00:00:00	2024-11-08T21:00:00	2	Temperatura media	16.7
79122	7	Sololá	704	Santa Lucía Utatlán 	7	Santa Rita 	2	Febrero	2023-02-27T00:00:00	2024-11-08T21:00:00	4	Temperatura máxima	17.7
79123	7	Sololá	704	Santa Lucía Utatlán 	7	Santa Rita 	2	Febrero	2023-02-27T00:00:00	2024-11-08T21:00:00	3	Temperatura mínima	16.6
79124	7	Sololá	704	Santa Lucía Utatlán 	7	Santa Rita 	2	Febrero	2023-02-27T00:00:00	2024-11-08T21:00:00	5	Humedad	85
79125	7	Sololá	704	Santa Lucía Utatlán 	7	Santa Rita 	2	Febrero	2023-02-27T00:00:00	2024-11-08T21:00:00	6	Velocidad del viento	3.2
79126	7	Sololá	704	Santa Lucía Utatlán 	7	Santa Rita 	2	Febrero	2023-02-27T00:00:00	2024-11-08T21:00:00	7	Dirección del viento	3.22
79127	7	Sololá	704	Santa Lucía Utatlán 	7	Santa Rita 	2	Febrero	2023-02-27T00:00:00	2024-11-08T21:00:00	1	Precipitación	0
79128	7	Sololá	704	Santa Lucía Utatlán 	7	Santa Rita 	2	Febrero	2023-02-27T00:00:00	2024-11-08T21:00:00	8	Radiación solar	0
79129	7	Sololá	704	Santa Lucía Utatlán 	7	Santa Rita 	2	Febrero	2023-02-27T00:00:00	2024-11-08T22:00:00	2	Temperatura media	16.2
79130	7	Sololá	704	Santa Lucía Utatlán 	7	Santa Rita 	2	Febrero	2023-02-27T00:00:00	2024-11-08T22:00:00	4	Temperatura máxima	16.7
79131	7	Sololá	704	Santa Lucía Utatlán 	7	Santa Rita 	2	Febrero	2023-02-27T00:00:00	2024-11-08T22:00:00	3	Temperatura mínima	16.2
79132	7	Sololá	704	Santa Lucía Utatlán 	7	Santa Rita 	2	Febrero	2023-02-27T00:00:00	2024-11-08T22:00:00	5	Humedad	84
79133	7	Sololá	704	Santa Lucía Utatlán 	7	Santa Rita 	2	Febrero	2023-02-27T00:00:00	2024-11-08T22:00:00	6	Velocidad del viento	3.2
79134	7	Sololá	704	Santa Lucía Utatlán 	7	Santa Rita 	2	Febrero	2023-02-27T00:00:00	2024-11-08T22:00:00	7	Dirección del viento	3.22
79135	7	Sololá	704	Santa Lucía Utatlán 	7	Santa Rita 	2	Febrero	2023-02-27T00:00:00	2024-11-08T22:00:00	1	Precipitación	0
79136	7	Sololá	704	Santa Lucía Utatlán 	7	Santa Rita 	2	Febrero	2023-02-27T00:00:00	2024-11-08T22:00:00	8	Radiación solar	0
79137	7	Sololá	704	Santa Lucía Utatlán 	7	Santa Rita 	2	Febrero	2023-02-27T00:00:00	2024-11-08T23:00:00	2	Temperatura media	15.8
79138	7	Sololá	704	Santa Lucía Utatlán 	7	Santa Rita 	2	Febrero	2023-02-27T00:00:00	2024-11-08T23:00:00	4	Temperatura máxima	16.3
79139	7	Sololá	704	Santa Lucía Utatlán 	7	Santa Rita 	2	Febrero	2023-02-27T00:00:00	2024-11-08T23:00:00	3	Temperatura mínima	15.8
79140	7	Sololá	704	Santa Lucía Utatlán 	7	Santa Rita 	2	Febrero	2023-02-27T00:00:00	2024-11-08T23:00:00	5	Humedad	83
79141	7	Sololá	704	Santa Lucía Utatlán 	7	Santa Rita 	2	Febrero	2023-02-27T00:00:00	2024-11-08T23:00:00	6	Velocidad del viento	4.8
79142	7	Sololá	704	Santa Lucía Utatlán 	7	Santa Rita 	2	Febrero	2023-02-27T00:00:00	2024-11-08T23:00:00	7	Dirección del viento	4.83
79143	7	Sololá	704	Santa Lucía Utatlán 	7	Santa Rita 	2	Febrero	2023-02-27T00:00:00	2024-11-08T23:00:00	1	Precipitación	0
79144	7	Sololá	704	Santa Lucía Utatlán 	7	Santa Rita 	2	Febrero	2023-02-27T00:00:00	2024-11-08T23:00:00	8	Radiación solar	0
79145	7	Sololá	704	Santa Lucía Utatlán 	7	Santa Rita 	2	Febrero	2023-02-28T00:00:00	2024-11-08T00:00:00	2	Temperatura media	15.3
79146	7	Sololá	704	Santa Lucía Utatlán 	7	Santa Rita 	2	Febrero	2023-02-28T00:00:00	2024-11-08T00:00:00	4	Temperatura máxima	15.8
79147	7	Sololá	704	Santa Lucía Utatlán 	7	Santa Rita 	2	Febrero	2023-02-28T00:00:00	2024-11-08T00:00:00	3	Temperatura mínima	15.2
79148	7	Sololá	704	Santa Lucía Utatlán 	7	Santa Rita 	2	Febrero	2023-02-28T00:00:00	2024-11-08T00:00:00	5	Humedad	79
79149	7	Sololá	704	Santa Lucía Utatlán 	7	Santa Rita 	2	Febrero	2023-02-28T00:00:00	2024-11-08T00:00:00	6	Velocidad del viento	4.8
79150	7	Sololá	704	Santa Lucía Utatlán 	7	Santa Rita 	2	Febrero	2023-02-28T00:00:00	2024-11-08T00:00:00	7	Dirección del viento	4.83
79151	7	Sololá	704	Santa Lucía Utatlán 	7	Santa Rita 	2	Febrero	2023-02-28T00:00:00	2024-11-08T00:00:00	1	Precipitación	0
79152	7	Sololá	704	Santa Lucía Utatlán 	7	Santa Rita 	2	Febrero	2023-02-28T00:00:00	2024-11-08T00:00:00	8	Radiación solar	0
79153	7	Sololá	704	Santa Lucía Utatlán 	7	Santa Rita 	2	Febrero	2023-02-28T00:00:00	2024-11-08T01:00:00	2	Temperatura media	15.6
79154	7	Sololá	704	Santa Lucía Utatlán 	7	Santa Rita 	2	Febrero	2023-02-28T00:00:00	2024-11-08T01:00:00	4	Temperatura máxima	15.6
79155	7	Sololá	704	Santa Lucía Utatlán 	7	Santa Rita 	2	Febrero	2023-02-28T00:00:00	2024-11-08T01:00:00	3	Temperatura mínima	15.2
79156	7	Sololá	704	Santa Lucía Utatlán 	7	Santa Rita 	2	Febrero	2023-02-28T00:00:00	2024-11-08T01:00:00	5	Humedad	79
79157	7	Sololá	704	Santa Lucía Utatlán 	7	Santa Rita 	2	Febrero	2023-02-28T00:00:00	2024-11-08T01:00:00	6	Velocidad del viento	4.8
79158	7	Sololá	704	Santa Lucía Utatlán 	7	Santa Rita 	2	Febrero	2023-02-28T00:00:00	2024-11-08T01:00:00	7	Dirección del viento	4.83
79159	7	Sololá	704	Santa Lucía Utatlán 	7	Santa Rita 	2	Febrero	2023-02-28T00:00:00	2024-11-08T01:00:00	1	Precipitación	0
79160	7	Sololá	704	Santa Lucía Utatlán 	7	Santa Rita 	2	Febrero	2023-02-28T00:00:00	2024-11-08T01:00:00	8	Radiación solar	0
79161	7	Sololá	704	Santa Lucía Utatlán 	7	Santa Rita 	2	Febrero	2023-02-28T00:00:00	2024-11-08T02:00:00	2	Temperatura media	15.4
79162	7	Sololá	704	Santa Lucía Utatlán 	7	Santa Rita 	2	Febrero	2023-02-28T00:00:00	2024-11-08T02:00:00	4	Temperatura máxima	15.7
79163	7	Sololá	704	Santa Lucía Utatlán 	7	Santa Rita 	2	Febrero	2023-02-28T00:00:00	2024-11-08T02:00:00	3	Temperatura mínima	15.4
79164	7	Sololá	704	Santa Lucía Utatlán 	7	Santa Rita 	2	Febrero	2023-02-28T00:00:00	2024-11-08T02:00:00	5	Humedad	79
79165	7	Sololá	704	Santa Lucía Utatlán 	7	Santa Rita 	2	Febrero	2023-02-28T00:00:00	2024-11-08T02:00:00	6	Velocidad del viento	4.8
79166	7	Sololá	704	Santa Lucía Utatlán 	7	Santa Rita 	2	Febrero	2023-02-28T00:00:00	2024-11-08T02:00:00	7	Dirección del viento	4.83
79167	7	Sololá	704	Santa Lucía Utatlán 	7	Santa Rita 	2	Febrero	2023-02-28T00:00:00	2024-11-08T02:00:00	1	Precipitación	0
79168	7	Sololá	704	Santa Lucía Utatlán 	7	Santa Rita 	2	Febrero	2023-02-28T00:00:00	2024-11-08T02:00:00	8	Radiación solar	0
79169	7	Sololá	704	Santa Lucía Utatlán 	7	Santa Rita 	2	Febrero	2023-02-28T00:00:00	2024-11-08T03:00:00	2	Temperatura media	14.8
79170	7	Sololá	704	Santa Lucía Utatlán 	7	Santa Rita 	2	Febrero	2023-02-28T00:00:00	2024-11-08T03:00:00	4	Temperatura máxima	15.4
79171	7	Sololá	704	Santa Lucía Utatlán 	7	Santa Rita 	2	Febrero	2023-02-28T00:00:00	2024-11-08T03:00:00	3	Temperatura mínima	14.8
79172	7	Sololá	704	Santa Lucía Utatlán 	7	Santa Rita 	2	Febrero	2023-02-28T00:00:00	2024-11-08T03:00:00	5	Humedad	77
79173	7	Sololá	704	Santa Lucía Utatlán 	7	Santa Rita 	2	Febrero	2023-02-28T00:00:00	2024-11-08T03:00:00	6	Velocidad del viento	4.8
79174	7	Sololá	704	Santa Lucía Utatlán 	7	Santa Rita 	2	Febrero	2023-02-28T00:00:00	2024-11-08T03:00:00	7	Dirección del viento	4.83
79175	7	Sololá	704	Santa Lucía Utatlán 	7	Santa Rita 	2	Febrero	2023-02-28T00:00:00	2024-11-08T03:00:00	1	Precipitación	0
79176	7	Sololá	704	Santa Lucía Utatlán 	7	Santa Rita 	2	Febrero	2023-02-28T00:00:00	2024-11-08T03:00:00	8	Radiación solar	0
79177	7	Sololá	704	Santa Lucía Utatlán 	7	Santa Rita 	2	Febrero	2023-02-28T00:00:00	2024-11-08T04:00:00	2	Temperatura media	14.3
79178	7	Sololá	704	Santa Lucía Utatlán 	7	Santa Rita 	2	Febrero	2023-02-28T00:00:00	2024-11-08T04:00:00	4	Temperatura máxima	14.8
79179	7	Sololá	704	Santa Lucía Utatlán 	7	Santa Rita 	2	Febrero	2023-02-28T00:00:00	2024-11-08T04:00:00	3	Temperatura mínima	14.1
79180	7	Sololá	704	Santa Lucía Utatlán 	7	Santa Rita 	2	Febrero	2023-02-28T00:00:00	2024-11-08T04:00:00	5	Humedad	63
79181	7	Sololá	704	Santa Lucía Utatlán 	7	Santa Rita 	2	Febrero	2023-02-28T00:00:00	2024-11-08T04:00:00	6	Velocidad del viento	6.4
79182	7	Sololá	704	Santa Lucía Utatlán 	7	Santa Rita 	2	Febrero	2023-02-28T00:00:00	2024-11-08T04:00:00	7	Dirección del viento	6.44
79183	7	Sololá	704	Santa Lucía Utatlán 	7	Santa Rita 	2	Febrero	2023-02-28T00:00:00	2024-11-08T04:00:00	1	Precipitación	0
79184	7	Sololá	704	Santa Lucía Utatlán 	7	Santa Rita 	2	Febrero	2023-02-28T00:00:00	2024-11-08T04:00:00	8	Radiación solar	0
79185	7	Sololá	704	Santa Lucía Utatlán 	7	Santa Rita 	2	Febrero	2023-02-28T00:00:00	2024-11-08T05:00:00	2	Temperatura media	14.1
79186	7	Sololá	704	Santa Lucía Utatlán 	7	Santa Rita 	2	Febrero	2023-02-28T00:00:00	2024-11-08T05:00:00	4	Temperatura máxima	14.3
79187	7	Sololá	704	Santa Lucía Utatlán 	7	Santa Rita 	2	Febrero	2023-02-28T00:00:00	2024-11-08T05:00:00	3	Temperatura mínima	13.9
79188	7	Sololá	704	Santa Lucía Utatlán 	7	Santa Rita 	2	Febrero	2023-02-28T00:00:00	2024-11-08T05:00:00	5	Humedad	49
79189	7	Sololá	704	Santa Lucía Utatlán 	7	Santa Rita 	2	Febrero	2023-02-28T00:00:00	2024-11-08T05:00:00	6	Velocidad del viento	6.4
79190	7	Sololá	704	Santa Lucía Utatlán 	7	Santa Rita 	2	Febrero	2023-02-28T00:00:00	2024-11-08T05:00:00	7	Dirección del viento	6.44
79191	7	Sololá	704	Santa Lucía Utatlán 	7	Santa Rita 	2	Febrero	2023-02-28T00:00:00	2024-11-08T05:00:00	1	Precipitación	0
79192	7	Sololá	704	Santa Lucía Utatlán 	7	Santa Rita 	2	Febrero	2023-02-28T00:00:00	2024-11-08T05:00:00	8	Radiación solar	0
79193	7	Sololá	704	Santa Lucía Utatlán 	7	Santa Rita 	2	Febrero	2023-02-28T00:00:00	2024-11-08T06:00:00	2	Temperatura media	14.2
79194	7	Sololá	704	Santa Lucía Utatlán 	7	Santa Rita 	2	Febrero	2023-02-28T00:00:00	2024-11-08T06:00:00	4	Temperatura máxima	14.2
79195	7	Sololá	704	Santa Lucía Utatlán 	7	Santa Rita 	2	Febrero	2023-02-28T00:00:00	2024-11-08T06:00:00	3	Temperatura mínima	13.9
79196	7	Sololá	704	Santa Lucía Utatlán 	7	Santa Rita 	2	Febrero	2023-02-28T00:00:00	2024-11-08T06:00:00	5	Humedad	45
79197	7	Sololá	704	Santa Lucía Utatlán 	7	Santa Rita 	2	Febrero	2023-02-28T00:00:00	2024-11-08T06:00:00	6	Velocidad del viento	6.4
79198	7	Sololá	704	Santa Lucía Utatlán 	7	Santa Rita 	2	Febrero	2023-02-28T00:00:00	2024-11-08T06:00:00	7	Dirección del viento	6.44
79199	7	Sololá	704	Santa Lucía Utatlán 	7	Santa Rita 	2	Febrero	2023-02-28T00:00:00	2024-11-08T06:00:00	1	Precipitación	0
79200	7	Sololá	704	Santa Lucía Utatlán 	7	Santa Rita 	2	Febrero	2023-02-28T00:00:00	2024-11-08T06:00:00	8	Radiación solar	0
79201	7	Sololá	704	Santa Lucía Utatlán 	7	Santa Rita 	2	Febrero	2023-02-28T00:00:00	2024-11-08T07:00:00	2	Temperatura media	14.8
79202	7	Sololá	704	Santa Lucía Utatlán 	7	Santa Rita 	2	Febrero	2023-02-28T00:00:00	2024-11-08T07:00:00	4	Temperatura máxima	14.8
79203	7	Sololá	704	Santa Lucía Utatlán 	7	Santa Rita 	2	Febrero	2023-02-28T00:00:00	2024-11-08T07:00:00	3	Temperatura mínima	14.2
79204	7	Sololá	704	Santa Lucía Utatlán 	7	Santa Rita 	2	Febrero	2023-02-28T00:00:00	2024-11-08T07:00:00	5	Humedad	36
79205	7	Sololá	704	Santa Lucía Utatlán 	7	Santa Rita 	2	Febrero	2023-02-28T00:00:00	2024-11-08T07:00:00	6	Velocidad del viento	4.8
79206	7	Sololá	704	Santa Lucía Utatlán 	7	Santa Rita 	2	Febrero	2023-02-28T00:00:00	2024-11-08T07:00:00	7	Dirección del viento	4.83
79207	7	Sololá	704	Santa Lucía Utatlán 	7	Santa Rita 	2	Febrero	2023-02-28T00:00:00	2024-11-08T07:00:00	1	Precipitación	0
79208	7	Sololá	704	Santa Lucía Utatlán 	7	Santa Rita 	2	Febrero	2023-02-28T00:00:00	2024-11-08T07:00:00	8	Radiación solar	8
79209	7	Sololá	704	Santa Lucía Utatlán 	7	Santa Rita 	2	Febrero	2023-02-28T00:00:00	2024-11-08T08:00:00	2	Temperatura media	18.8
79210	7	Sololá	704	Santa Lucía Utatlán 	7	Santa Rita 	2	Febrero	2023-02-28T00:00:00	2024-11-08T08:00:00	4	Temperatura máxima	18.8
79211	7	Sololá	704	Santa Lucía Utatlán 	7	Santa Rita 	2	Febrero	2023-02-28T00:00:00	2024-11-08T08:00:00	3	Temperatura mínima	14.8
79212	7	Sololá	704	Santa Lucía Utatlán 	7	Santa Rita 	2	Febrero	2023-02-28T00:00:00	2024-11-08T08:00:00	5	Humedad	36
79213	7	Sololá	704	Santa Lucía Utatlán 	7	Santa Rita 	2	Febrero	2023-02-28T00:00:00	2024-11-08T08:00:00	6	Velocidad del viento	0
79214	7	Sololá	704	Santa Lucía Utatlán 	7	Santa Rita 	2	Febrero	2023-02-28T00:00:00	2024-11-08T08:00:00	7	Dirección del viento	0
79215	7	Sololá	704	Santa Lucía Utatlán 	7	Santa Rita 	2	Febrero	2023-02-28T00:00:00	2024-11-08T08:00:00	1	Precipitación	0
79216	7	Sololá	704	Santa Lucía Utatlán 	7	Santa Rita 	2	Febrero	2023-02-28T00:00:00	2024-11-08T08:00:00	8	Radiación solar	190
79217	7	Sololá	704	Santa Lucía Utatlán 	7	Santa Rita 	2	Febrero	2023-02-28T00:00:00	2024-11-08T09:00:00	2	Temperatura media	22.6
79218	7	Sololá	704	Santa Lucía Utatlán 	7	Santa Rita 	2	Febrero	2023-02-28T00:00:00	2024-11-08T09:00:00	4	Temperatura máxima	22.6
79219	7	Sololá	704	Santa Lucía Utatlán 	7	Santa Rita 	2	Febrero	2023-02-28T00:00:00	2024-11-08T09:00:00	3	Temperatura mínima	18.8
79220	7	Sololá	704	Santa Lucía Utatlán 	7	Santa Rita 	2	Febrero	2023-02-28T00:00:00	2024-11-08T09:00:00	5	Humedad	38
79221	7	Sololá	704	Santa Lucía Utatlán 	7	Santa Rita 	2	Febrero	2023-02-28T00:00:00	2024-11-08T09:00:00	6	Velocidad del viento	1.6
79222	7	Sololá	704	Santa Lucía Utatlán 	7	Santa Rita 	2	Febrero	2023-02-28T00:00:00	2024-11-08T09:00:00	7	Dirección del viento	1.61
79223	7	Sololá	704	Santa Lucía Utatlán 	7	Santa Rita 	2	Febrero	2023-02-28T00:00:00	2024-11-08T09:00:00	1	Precipitación	0
79224	7	Sololá	704	Santa Lucía Utatlán 	7	Santa Rita 	2	Febrero	2023-02-28T00:00:00	2024-11-08T09:00:00	8	Radiación solar	439
79225	7	Sololá	704	Santa Lucía Utatlán 	7	Santa Rita 	2	Febrero	2023-02-28T00:00:00	2024-11-08T10:00:00	2	Temperatura media	25.6
79226	7	Sololá	704	Santa Lucía Utatlán 	7	Santa Rita 	2	Febrero	2023-02-28T00:00:00	2024-11-08T10:00:00	4	Temperatura máxima	25.6
79227	7	Sololá	704	Santa Lucía Utatlán 	7	Santa Rita 	2	Febrero	2023-02-28T00:00:00	2024-11-08T10:00:00	3	Temperatura mínima	22.6
79228	7	Sololá	704	Santa Lucía Utatlán 	7	Santa Rita 	2	Febrero	2023-02-28T00:00:00	2024-11-08T10:00:00	5	Humedad	30
79229	7	Sololá	704	Santa Lucía Utatlán 	7	Santa Rita 	2	Febrero	2023-02-28T00:00:00	2024-11-08T10:00:00	6	Velocidad del viento	4.8
79230	7	Sololá	704	Santa Lucía Utatlán 	7	Santa Rita 	2	Febrero	2023-02-28T00:00:00	2024-11-08T10:00:00	7	Dirección del viento	4.83
79231	7	Sololá	704	Santa Lucía Utatlán 	7	Santa Rita 	2	Febrero	2023-02-28T00:00:00	2024-11-08T10:00:00	1	Precipitación	0
79232	7	Sololá	704	Santa Lucía Utatlán 	7	Santa Rita 	2	Febrero	2023-02-28T00:00:00	2024-11-08T10:00:00	8	Radiación solar	595
79233	7	Sololá	704	Santa Lucía Utatlán 	7	Santa Rita 	2	Febrero	2023-02-28T00:00:00	2024-11-08T11:00:00	2	Temperatura media	25.8
79234	7	Sololá	704	Santa Lucía Utatlán 	7	Santa Rita 	2	Febrero	2023-02-28T00:00:00	2024-11-08T11:00:00	4	Temperatura máxima	26.3
79235	7	Sololá	704	Santa Lucía Utatlán 	7	Santa Rita 	2	Febrero	2023-02-28T00:00:00	2024-11-08T11:00:00	3	Temperatura mínima	25.6
79236	7	Sololá	704	Santa Lucía Utatlán 	7	Santa Rita 	2	Febrero	2023-02-28T00:00:00	2024-11-08T11:00:00	5	Humedad	45
79237	7	Sololá	704	Santa Lucía Utatlán 	7	Santa Rita 	2	Febrero	2023-02-28T00:00:00	2024-11-08T11:00:00	6	Velocidad del viento	6.4
79238	7	Sololá	704	Santa Lucía Utatlán 	7	Santa Rita 	2	Febrero	2023-02-28T00:00:00	2024-11-08T11:00:00	7	Dirección del viento	6.44
79239	7	Sololá	704	Santa Lucía Utatlán 	7	Santa Rita 	2	Febrero	2023-02-28T00:00:00	2024-11-08T11:00:00	1	Precipitación	0
79240	7	Sololá	704	Santa Lucía Utatlán 	7	Santa Rita 	2	Febrero	2023-02-28T00:00:00	2024-11-08T11:00:00	8	Radiación solar	687
79241	7	Sololá	704	Santa Lucía Utatlán 	7	Santa Rita 	2	Febrero	2023-02-28T00:00:00	2024-11-08T12:00:00	2	Temperatura media	25.6
79242	7	Sololá	704	Santa Lucía Utatlán 	7	Santa Rita 	2	Febrero	2023-02-28T00:00:00	2024-11-08T12:00:00	4	Temperatura máxima	25.8
79243	7	Sololá	704	Santa Lucía Utatlán 	7	Santa Rita 	2	Febrero	2023-02-28T00:00:00	2024-11-08T12:00:00	3	Temperatura mínima	24.8
79244	7	Sololá	704	Santa Lucía Utatlán 	7	Santa Rita 	2	Febrero	2023-02-28T00:00:00	2024-11-08T12:00:00	5	Humedad	46
79245	7	Sololá	704	Santa Lucía Utatlán 	7	Santa Rita 	2	Febrero	2023-02-28T00:00:00	2024-11-08T12:00:00	6	Velocidad del viento	8
79246	7	Sololá	704	Santa Lucía Utatlán 	7	Santa Rita 	2	Febrero	2023-02-28T00:00:00	2024-11-08T12:00:00	7	Dirección del viento	8.05
79247	7	Sololá	704	Santa Lucía Utatlán 	7	Santa Rita 	2	Febrero	2023-02-28T00:00:00	2024-11-08T12:00:00	1	Precipitación	0
79248	7	Sololá	704	Santa Lucía Utatlán 	7	Santa Rita 	2	Febrero	2023-02-28T00:00:00	2024-11-08T12:00:00	8	Radiación solar	898
79249	7	Sololá	704	Santa Lucía Utatlán 	7	Santa Rita 	2	Febrero	2023-02-28T00:00:00	2024-11-08T13:00:00	2	Temperatura media	25.7
79250	7	Sololá	704	Santa Lucía Utatlán 	7	Santa Rita 	2	Febrero	2023-02-28T00:00:00	2024-11-08T13:00:00	4	Temperatura máxima	26.1
79251	7	Sololá	704	Santa Lucía Utatlán 	7	Santa Rita 	2	Febrero	2023-02-28T00:00:00	2024-11-08T13:00:00	3	Temperatura mínima	25.5
79252	7	Sololá	704	Santa Lucía Utatlán 	7	Santa Rita 	2	Febrero	2023-02-28T00:00:00	2024-11-08T13:00:00	5	Humedad	53
79253	7	Sololá	704	Santa Lucía Utatlán 	7	Santa Rita 	2	Febrero	2023-02-28T00:00:00	2024-11-08T13:00:00	6	Velocidad del viento	8
79254	7	Sololá	704	Santa Lucía Utatlán 	7	Santa Rita 	2	Febrero	2023-02-28T00:00:00	2024-11-08T13:00:00	7	Dirección del viento	8.05
79255	7	Sololá	704	Santa Lucía Utatlán 	7	Santa Rita 	2	Febrero	2023-02-28T00:00:00	2024-11-08T13:00:00	1	Precipitación	0
79256	7	Sololá	704	Santa Lucía Utatlán 	7	Santa Rita 	2	Febrero	2023-02-28T00:00:00	2024-11-08T13:00:00	8	Radiación solar	894
79257	7	Sololá	704	Santa Lucía Utatlán 	7	Santa Rita 	2	Febrero	2023-02-28T00:00:00	2024-11-08T14:00:00	2	Temperatura media	25.4
79258	7	Sololá	704	Santa Lucía Utatlán 	7	Santa Rita 	2	Febrero	2023-02-28T00:00:00	2024-11-08T14:00:00	4	Temperatura máxima	25.7
79259	7	Sololá	704	Santa Lucía Utatlán 	7	Santa Rita 	2	Febrero	2023-02-28T00:00:00	2024-11-08T14:00:00	3	Temperatura mínima	25.3
79260	7	Sololá	704	Santa Lucía Utatlán 	7	Santa Rita 	2	Febrero	2023-02-28T00:00:00	2024-11-08T14:00:00	5	Humedad	59
79261	7	Sololá	704	Santa Lucía Utatlán 	7	Santa Rita 	2	Febrero	2023-02-28T00:00:00	2024-11-08T14:00:00	6	Velocidad del viento	9.7
79262	7	Sololá	704	Santa Lucía Utatlán 	7	Santa Rita 	2	Febrero	2023-02-28T00:00:00	2024-11-08T14:00:00	7	Dirección del viento	9.66
79263	7	Sololá	704	Santa Lucía Utatlán 	7	Santa Rita 	2	Febrero	2023-02-28T00:00:00	2024-11-08T14:00:00	1	Precipitación	0
79264	7	Sololá	704	Santa Lucía Utatlán 	7	Santa Rita 	2	Febrero	2023-02-28T00:00:00	2024-11-08T14:00:00	8	Radiación solar	792
79265	7	Sololá	704	Santa Lucía Utatlán 	7	Santa Rita 	2	Febrero	2023-02-28T00:00:00	2024-11-08T15:00:00	2	Temperatura media	24.9
79266	7	Sololá	704	Santa Lucía Utatlán 	7	Santa Rita 	2	Febrero	2023-02-28T00:00:00	2024-11-08T15:00:00	4	Temperatura máxima	25.6
79267	7	Sololá	704	Santa Lucía Utatlán 	7	Santa Rita 	2	Febrero	2023-02-28T00:00:00	2024-11-08T15:00:00	3	Temperatura mínima	24.9
79268	7	Sololá	704	Santa Lucía Utatlán 	7	Santa Rita 	2	Febrero	2023-02-28T00:00:00	2024-11-08T15:00:00	5	Humedad	65
79269	7	Sololá	704	Santa Lucía Utatlán 	7	Santa Rita 	2	Febrero	2023-02-28T00:00:00	2024-11-08T15:00:00	6	Velocidad del viento	8
79270	7	Sololá	704	Santa Lucía Utatlán 	7	Santa Rita 	2	Febrero	2023-02-28T00:00:00	2024-11-08T15:00:00	7	Dirección del viento	8.05
79271	7	Sololá	704	Santa Lucía Utatlán 	7	Santa Rita 	2	Febrero	2023-02-28T00:00:00	2024-11-08T15:00:00	1	Precipitación	0
79272	7	Sololá	704	Santa Lucía Utatlán 	7	Santa Rita 	2	Febrero	2023-02-28T00:00:00	2024-11-08T15:00:00	8	Radiación solar	710
79273	7	Sololá	704	Santa Lucía Utatlán 	7	Santa Rita 	2	Febrero	2023-02-28T00:00:00	2024-11-08T16:00:00	2	Temperatura media	23.3
79274	7	Sololá	704	Santa Lucía Utatlán 	7	Santa Rita 	2	Febrero	2023-02-28T00:00:00	2024-11-08T16:00:00	4	Temperatura máxima	24.9
79275	7	Sololá	704	Santa Lucía Utatlán 	7	Santa Rita 	2	Febrero	2023-02-28T00:00:00	2024-11-08T16:00:00	3	Temperatura mínima	23.2
79276	7	Sololá	704	Santa Lucía Utatlán 	7	Santa Rita 	2	Febrero	2023-02-28T00:00:00	2024-11-08T16:00:00	5	Humedad	75
79277	7	Sololá	704	Santa Lucía Utatlán 	7	Santa Rita 	2	Febrero	2023-02-28T00:00:00	2024-11-08T16:00:00	6	Velocidad del viento	8
79278	7	Sololá	704	Santa Lucía Utatlán 	7	Santa Rita 	2	Febrero	2023-02-28T00:00:00	2024-11-08T16:00:00	7	Dirección del viento	8.05
79279	7	Sololá	704	Santa Lucía Utatlán 	7	Santa Rita 	2	Febrero	2023-02-28T00:00:00	2024-11-08T16:00:00	1	Precipitación	0
79280	7	Sololá	704	Santa Lucía Utatlán 	7	Santa Rita 	2	Febrero	2023-02-28T00:00:00	2024-11-08T16:00:00	8	Radiación solar	533
79281	7	Sololá	704	Santa Lucía Utatlán 	7	Santa Rita 	2	Febrero	2023-02-28T00:00:00	2024-11-08T17:00:00	2	Temperatura media	22.7
79282	7	Sololá	704	Santa Lucía Utatlán 	7	Santa Rita 	2	Febrero	2023-02-28T00:00:00	2024-11-08T17:00:00	4	Temperatura máxima	23.3
79283	7	Sololá	704	Santa Lucía Utatlán 	7	Santa Rita 	2	Febrero	2023-02-28T00:00:00	2024-11-08T17:00:00	3	Temperatura mínima	22.6
79284	7	Sololá	704	Santa Lucía Utatlán 	7	Santa Rita 	2	Febrero	2023-02-28T00:00:00	2024-11-08T17:00:00	5	Humedad	79
79285	7	Sololá	704	Santa Lucía Utatlán 	7	Santa Rita 	2	Febrero	2023-02-28T00:00:00	2024-11-08T17:00:00	6	Velocidad del viento	4.8
79286	7	Sololá	704	Santa Lucía Utatlán 	7	Santa Rita 	2	Febrero	2023-02-28T00:00:00	2024-11-08T17:00:00	7	Dirección del viento	4.83
79287	7	Sololá	704	Santa Lucía Utatlán 	7	Santa Rita 	2	Febrero	2023-02-28T00:00:00	2024-11-08T17:00:00	1	Precipitación	0
79288	7	Sololá	704	Santa Lucía Utatlán 	7	Santa Rita 	2	Febrero	2023-02-28T00:00:00	2024-11-08T17:00:00	8	Radiación solar	253
79289	7	Sololá	704	Santa Lucía Utatlán 	7	Santa Rita 	2	Febrero	2023-02-28T00:00:00	2024-11-08T18:00:00	2	Temperatura media	21.1
79290	7	Sololá	704	Santa Lucía Utatlán 	7	Santa Rita 	2	Febrero	2023-02-28T00:00:00	2024-11-08T18:00:00	4	Temperatura máxima	22.7
79291	7	Sololá	704	Santa Lucía Utatlán 	7	Santa Rita 	2	Febrero	2023-02-28T00:00:00	2024-11-08T18:00:00	3	Temperatura mínima	21.1
79292	7	Sololá	704	Santa Lucía Utatlán 	7	Santa Rita 	2	Febrero	2023-02-28T00:00:00	2024-11-08T18:00:00	5	Humedad	86
79293	7	Sololá	704	Santa Lucía Utatlán 	7	Santa Rita 	2	Febrero	2023-02-28T00:00:00	2024-11-08T18:00:00	6	Velocidad del viento	3.2
79294	7	Sololá	704	Santa Lucía Utatlán 	7	Santa Rita 	2	Febrero	2023-02-28T00:00:00	2024-11-08T18:00:00	7	Dirección del viento	3.22
79295	7	Sololá	704	Santa Lucía Utatlán 	7	Santa Rita 	2	Febrero	2023-02-28T00:00:00	2024-11-08T18:00:00	1	Precipitación	0
79296	7	Sololá	704	Santa Lucía Utatlán 	7	Santa Rita 	2	Febrero	2023-02-28T00:00:00	2024-11-08T18:00:00	8	Radiación solar	45
79297	7	Sololá	704	Santa Lucía Utatlán 	7	Santa Rita 	2	Febrero	2023-02-28T00:00:00	2024-11-08T19:00:00	2	Temperatura media	19.2
79298	7	Sololá	704	Santa Lucía Utatlán 	7	Santa Rita 	2	Febrero	2023-02-28T00:00:00	2024-11-08T19:00:00	4	Temperatura máxima	21.1
79299	7	Sololá	704	Santa Lucía Utatlán 	7	Santa Rita 	2	Febrero	2023-02-28T00:00:00	2024-11-08T19:00:00	3	Temperatura mínima	19.2
79300	7	Sololá	704	Santa Lucía Utatlán 	7	Santa Rita 	2	Febrero	2023-02-28T00:00:00	2024-11-08T19:00:00	5	Humedad	82
79301	7	Sololá	704	Santa Lucía Utatlán 	7	Santa Rita 	2	Febrero	2023-02-28T00:00:00	2024-11-08T19:00:00	6	Velocidad del viento	1.6
79302	7	Sololá	704	Santa Lucía Utatlán 	7	Santa Rita 	2	Febrero	2023-02-28T00:00:00	2024-11-08T19:00:00	7	Dirección del viento	1.61
79303	7	Sololá	704	Santa Lucía Utatlán 	7	Santa Rita 	2	Febrero	2023-02-28T00:00:00	2024-11-08T19:00:00	1	Precipitación	0
79304	7	Sololá	704	Santa Lucía Utatlán 	7	Santa Rita 	2	Febrero	2023-02-28T00:00:00	2024-11-08T19:00:00	8	Radiación solar	0
79305	7	Sololá	704	Santa Lucía Utatlán 	7	Santa Rita 	2	Febrero	2023-02-28T00:00:00	2024-11-08T20:00:00	2	Temperatura media	17.6
79306	7	Sololá	704	Santa Lucía Utatlán 	7	Santa Rita 	2	Febrero	2023-02-28T00:00:00	2024-11-08T20:00:00	4	Temperatura máxima	19.2
79307	7	Sololá	704	Santa Lucía Utatlán 	7	Santa Rita 	2	Febrero	2023-02-28T00:00:00	2024-11-08T20:00:00	3	Temperatura mínima	17.6
79308	7	Sololá	704	Santa Lucía Utatlán 	7	Santa Rita 	2	Febrero	2023-02-28T00:00:00	2024-11-08T20:00:00	5	Humedad	55
79309	7	Sololá	704	Santa Lucía Utatlán 	7	Santa Rita 	2	Febrero	2023-02-28T00:00:00	2024-11-08T20:00:00	6	Velocidad del viento	4.8
79310	7	Sololá	704	Santa Lucía Utatlán 	7	Santa Rita 	2	Febrero	2023-02-28T00:00:00	2024-11-08T20:00:00	7	Dirección del viento	4.83
79311	7	Sololá	704	Santa Lucía Utatlán 	7	Santa Rita 	2	Febrero	2023-02-28T00:00:00	2024-11-08T20:00:00	1	Precipitación	0
79312	7	Sololá	704	Santa Lucía Utatlán 	7	Santa Rita 	2	Febrero	2023-02-28T00:00:00	2024-11-08T20:00:00	8	Radiación solar	0
79313	7	Sololá	704	Santa Lucía Utatlán 	7	Santa Rita 	2	Febrero	2023-02-28T00:00:00	2024-11-08T21:00:00	2	Temperatura media	17.6
79314	7	Sololá	704	Santa Lucía Utatlán 	7	Santa Rita 	2	Febrero	2023-02-28T00:00:00	2024-11-08T21:00:00	4	Temperatura máxima	17.7
79315	7	Sololá	704	Santa Lucía Utatlán 	7	Santa Rita 	2	Febrero	2023-02-28T00:00:00	2024-11-08T21:00:00	3	Temperatura mínima	17.4
79316	7	Sololá	704	Santa Lucía Utatlán 	7	Santa Rita 	2	Febrero	2023-02-28T00:00:00	2024-11-08T21:00:00	5	Humedad	51
79317	7	Sololá	704	Santa Lucía Utatlán 	7	Santa Rita 	2	Febrero	2023-02-28T00:00:00	2024-11-08T21:00:00	6	Velocidad del viento	4.8
79318	7	Sololá	704	Santa Lucía Utatlán 	7	Santa Rita 	2	Febrero	2023-02-28T00:00:00	2024-11-08T21:00:00	7	Dirección del viento	4.83
79319	7	Sololá	704	Santa Lucía Utatlán 	7	Santa Rita 	2	Febrero	2023-02-28T00:00:00	2024-11-08T21:00:00	1	Precipitación	0
79320	7	Sololá	704	Santa Lucía Utatlán 	7	Santa Rita 	2	Febrero	2023-02-28T00:00:00	2024-11-08T21:00:00	8	Radiación solar	0
79321	7	Sololá	704	Santa Lucía Utatlán 	7	Santa Rita 	2	Febrero	2023-02-28T00:00:00	2024-11-08T22:00:00	2	Temperatura media	16.8
79322	7	Sololá	704	Santa Lucía Utatlán 	7	Santa Rita 	2	Febrero	2023-02-28T00:00:00	2024-11-08T22:00:00	4	Temperatura máxima	17.6
79323	7	Sololá	704	Santa Lucía Utatlán 	7	Santa Rita 	2	Febrero	2023-02-28T00:00:00	2024-11-08T22:00:00	3	Temperatura mínima	16.8
79324	7	Sololá	704	Santa Lucía Utatlán 	7	Santa Rita 	2	Febrero	2023-02-28T00:00:00	2024-11-08T22:00:00	5	Humedad	48
79325	7	Sololá	704	Santa Lucía Utatlán 	7	Santa Rita 	2	Febrero	2023-02-28T00:00:00	2024-11-08T22:00:00	6	Velocidad del viento	4.8
79326	7	Sololá	704	Santa Lucía Utatlán 	7	Santa Rita 	2	Febrero	2023-02-28T00:00:00	2024-11-08T22:00:00	7	Dirección del viento	4.83
79327	7	Sololá	704	Santa Lucía Utatlán 	7	Santa Rita 	2	Febrero	2023-02-28T00:00:00	2024-11-08T22:00:00	1	Precipitación	0
79328	7	Sololá	704	Santa Lucía Utatlán 	7	Santa Rita 	2	Febrero	2023-02-28T00:00:00	2024-11-08T22:00:00	8	Radiación solar	0
79329	7	Sololá	704	Santa Lucía Utatlán 	7	Santa Rita 	2	Febrero	2023-02-28T00:00:00	2024-11-08T23:00:00	2	Temperatura media	16.6
79330	7	Sololá	704	Santa Lucía Utatlán 	7	Santa Rita 	2	Febrero	2023-02-28T00:00:00	2024-11-08T23:00:00	4	Temperatura máxima	16.8
79331	7	Sololá	704	Santa Lucía Utatlán 	7	Santa Rita 	2	Febrero	2023-02-28T00:00:00	2024-11-08T23:00:00	3	Temperatura mínima	16.5
79332	7	Sololá	704	Santa Lucía Utatlán 	7	Santa Rita 	2	Febrero	2023-02-28T00:00:00	2024-11-08T23:00:00	5	Humedad	43
79333	7	Sololá	704	Santa Lucía Utatlán 	7	Santa Rita 	2	Febrero	2023-02-28T00:00:00	2024-11-08T23:00:00	6	Velocidad del viento	6.4
79334	7	Sololá	704	Santa Lucía Utatlán 	7	Santa Rita 	2	Febrero	2023-02-28T00:00:00	2024-11-08T23:00:00	7	Dirección del viento	6.44
79335	7	Sololá	704	Santa Lucía Utatlán 	7	Santa Rita 	2	Febrero	2023-02-28T00:00:00	2024-11-08T23:00:00	1	Precipitación	0
79336	7	Sololá	704	Santa Lucía Utatlán 	7	Santa Rita 	2	Febrero	2023-02-28T00:00:00	2024-11-08T23:00:00	8	Radiación solar	0
79337	7	Sololá	704	Santa Lucía Utatlán 	7	Santa Rita 	3	Marzo	2023-01-03T00:00:00	2024-11-08T00:00:00	2	Temperatura media	17.4
79338	7	Sololá	704	Santa Lucía Utatlán 	7	Santa Rita 	3	Marzo	2023-01-03T00:00:00	2024-11-08T00:00:00	4	Temperatura máxima	17.7
79339	7	Sololá	704	Santa Lucía Utatlán 	7	Santa Rita 	3	Marzo	2023-01-03T00:00:00	2024-11-08T00:00:00	3	Temperatura mínima	16.6
79340	7	Sololá	704	Santa Lucía Utatlán 	7	Santa Rita 	3	Marzo	2023-01-03T00:00:00	2024-11-08T00:00:00	5	Humedad	36
79341	7	Sololá	704	Santa Lucía Utatlán 	7	Santa Rita 	3	Marzo	2023-01-03T00:00:00	2024-11-08T00:00:00	6	Velocidad del viento	4.8
79342	7	Sololá	704	Santa Lucía Utatlán 	7	Santa Rita 	3	Marzo	2023-01-03T00:00:00	2024-11-08T00:00:00	7	Dirección del viento	4.83
79343	7	Sololá	704	Santa Lucía Utatlán 	7	Santa Rita 	3	Marzo	2023-01-03T00:00:00	2024-11-08T00:00:00	1	Precipitación	0
79344	7	Sololá	704	Santa Lucía Utatlán 	7	Santa Rita 	3	Marzo	2023-01-03T00:00:00	2024-11-08T00:00:00	8	Radiación solar	0
79345	7	Sololá	704	Santa Lucía Utatlán 	7	Santa Rita 	3	Marzo	2023-01-03T00:00:00	2024-11-08T01:00:00	2	Temperatura media	16.8
79346	7	Sololá	704	Santa Lucía Utatlán 	7	Santa Rita 	3	Marzo	2023-01-03T00:00:00	2024-11-08T01:00:00	4	Temperatura máxima	17.6
79347	7	Sololá	704	Santa Lucía Utatlán 	7	Santa Rita 	3	Marzo	2023-01-03T00:00:00	2024-11-08T01:00:00	3	Temperatura mínima	16.8
79348	7	Sololá	704	Santa Lucía Utatlán 	7	Santa Rita 	3	Marzo	2023-01-03T00:00:00	2024-11-08T01:00:00	5	Humedad	43
79349	7	Sololá	704	Santa Lucía Utatlán 	7	Santa Rita 	3	Marzo	2023-01-03T00:00:00	2024-11-08T01:00:00	6	Velocidad del viento	6.4
79350	7	Sololá	704	Santa Lucía Utatlán 	7	Santa Rita 	3	Marzo	2023-01-03T00:00:00	2024-11-08T01:00:00	7	Dirección del viento	6.44
79351	7	Sololá	704	Santa Lucía Utatlán 	7	Santa Rita 	3	Marzo	2023-01-03T00:00:00	2024-11-08T01:00:00	1	Precipitación	0
79352	7	Sololá	704	Santa Lucía Utatlán 	7	Santa Rita 	3	Marzo	2023-01-03T00:00:00	2024-11-08T01:00:00	8	Radiación solar	0
79353	7	Sololá	704	Santa Lucía Utatlán 	7	Santa Rita 	3	Marzo	2023-01-03T00:00:00	2024-11-08T02:00:00	2	Temperatura media	15.8
79354	7	Sololá	704	Santa Lucía Utatlán 	7	Santa Rita 	3	Marzo	2023-01-03T00:00:00	2024-11-08T02:00:00	4	Temperatura máxima	17.1
79355	7	Sololá	704	Santa Lucía Utatlán 	7	Santa Rita 	3	Marzo	2023-01-03T00:00:00	2024-11-08T02:00:00	3	Temperatura mínima	15.7
79356	7	Sololá	704	Santa Lucía Utatlán 	7	Santa Rita 	3	Marzo	2023-01-03T00:00:00	2024-11-08T02:00:00	5	Humedad	47
79357	7	Sololá	704	Santa Lucía Utatlán 	7	Santa Rita 	3	Marzo	2023-01-03T00:00:00	2024-11-08T02:00:00	6	Velocidad del viento	6.4
79358	7	Sololá	704	Santa Lucía Utatlán 	7	Santa Rita 	3	Marzo	2023-01-03T00:00:00	2024-11-08T02:00:00	7	Dirección del viento	6.44
79359	7	Sololá	704	Santa Lucía Utatlán 	7	Santa Rita 	3	Marzo	2023-01-03T00:00:00	2024-11-08T02:00:00	1	Precipitación	0
79360	7	Sololá	704	Santa Lucía Utatlán 	7	Santa Rita 	3	Marzo	2023-01-03T00:00:00	2024-11-08T02:00:00	8	Radiación solar	0
79361	7	Sololá	704	Santa Lucía Utatlán 	7	Santa Rita 	3	Marzo	2023-01-03T00:00:00	2024-11-08T03:00:00	2	Temperatura media	15.6
79362	7	Sololá	704	Santa Lucía Utatlán 	7	Santa Rita 	3	Marzo	2023-01-03T00:00:00	2024-11-08T03:00:00	4	Temperatura máxima	15.9
79363	7	Sololá	704	Santa Lucía Utatlán 	7	Santa Rita 	3	Marzo	2023-01-03T00:00:00	2024-11-08T03:00:00	3	Temperatura mínima	15.5
79364	7	Sololá	704	Santa Lucía Utatlán 	7	Santa Rita 	3	Marzo	2023-01-03T00:00:00	2024-11-08T03:00:00	5	Humedad	54
79365	7	Sololá	704	Santa Lucía Utatlán 	7	Santa Rita 	3	Marzo	2023-01-03T00:00:00	2024-11-08T03:00:00	6	Velocidad del viento	6.4
79366	7	Sololá	704	Santa Lucía Utatlán 	7	Santa Rita 	3	Marzo	2023-01-03T00:00:00	2024-11-08T03:00:00	7	Dirección del viento	6.44
79367	7	Sololá	704	Santa Lucía Utatlán 	7	Santa Rita 	3	Marzo	2023-01-03T00:00:00	2024-11-08T03:00:00	1	Precipitación	0
79368	7	Sololá	704	Santa Lucía Utatlán 	7	Santa Rita 	3	Marzo	2023-01-03T00:00:00	2024-11-08T03:00:00	8	Radiación solar	0
79369	7	Sololá	704	Santa Lucía Utatlán 	7	Santa Rita 	3	Marzo	2023-01-03T00:00:00	2024-11-08T04:00:00	2	Temperatura media	14.9
79370	7	Sololá	704	Santa Lucía Utatlán 	7	Santa Rita 	3	Marzo	2023-01-03T00:00:00	2024-11-08T04:00:00	4	Temperatura máxima	15.6
79371	7	Sololá	704	Santa Lucía Utatlán 	7	Santa Rita 	3	Marzo	2023-01-03T00:00:00	2024-11-08T04:00:00	3	Temperatura mínima	14.8
79372	7	Sololá	704	Santa Lucía Utatlán 	7	Santa Rita 	3	Marzo	2023-01-03T00:00:00	2024-11-08T04:00:00	5	Humedad	55
79373	7	Sololá	704	Santa Lucía Utatlán 	7	Santa Rita 	3	Marzo	2023-01-03T00:00:00	2024-11-08T04:00:00	6	Velocidad del viento	6.4
79374	7	Sololá	704	Santa Lucía Utatlán 	7	Santa Rita 	3	Marzo	2023-01-03T00:00:00	2024-11-08T04:00:00	7	Dirección del viento	6.44
79375	7	Sololá	704	Santa Lucía Utatlán 	7	Santa Rita 	3	Marzo	2023-01-03T00:00:00	2024-11-08T04:00:00	1	Precipitación	0
79376	7	Sololá	704	Santa Lucía Utatlán 	7	Santa Rita 	3	Marzo	2023-01-03T00:00:00	2024-11-08T04:00:00	8	Radiación solar	0
79377	7	Sololá	704	Santa Lucía Utatlán 	7	Santa Rita 	3	Marzo	2023-01-03T00:00:00	2024-11-08T05:00:00	2	Temperatura media	14.8
79378	7	Sololá	704	Santa Lucía Utatlán 	7	Santa Rita 	3	Marzo	2023-01-03T00:00:00	2024-11-08T05:00:00	4	Temperatura máxima	15.2
79379	7	Sololá	704	Santa Lucía Utatlán 	7	Santa Rita 	3	Marzo	2023-01-03T00:00:00	2024-11-08T05:00:00	3	Temperatura mínima	14.8
79380	7	Sololá	704	Santa Lucía Utatlán 	7	Santa Rita 	3	Marzo	2023-01-03T00:00:00	2024-11-08T05:00:00	5	Humedad	44
79381	7	Sololá	704	Santa Lucía Utatlán 	7	Santa Rita 	3	Marzo	2023-01-03T00:00:00	2024-11-08T05:00:00	6	Velocidad del viento	6.4
79382	7	Sololá	704	Santa Lucía Utatlán 	7	Santa Rita 	3	Marzo	2023-01-03T00:00:00	2024-11-08T05:00:00	7	Dirección del viento	6.44
79383	7	Sololá	704	Santa Lucía Utatlán 	7	Santa Rita 	3	Marzo	2023-01-03T00:00:00	2024-11-08T05:00:00	1	Precipitación	0
79384	7	Sololá	704	Santa Lucía Utatlán 	7	Santa Rita 	3	Marzo	2023-01-03T00:00:00	2024-11-08T05:00:00	8	Radiación solar	0
79385	7	Sololá	704	Santa Lucía Utatlán 	7	Santa Rita 	3	Marzo	2023-01-03T00:00:00	2024-11-08T06:00:00	2	Temperatura media	14.8
79386	7	Sololá	704	Santa Lucía Utatlán 	7	Santa Rita 	3	Marzo	2023-01-03T00:00:00	2024-11-08T06:00:00	4	Temperatura máxima	15
79387	7	Sololá	704	Santa Lucía Utatlán 	7	Santa Rita 	3	Marzo	2023-01-03T00:00:00	2024-11-08T06:00:00	3	Temperatura mínima	14.6
79388	7	Sololá	704	Santa Lucía Utatlán 	7	Santa Rita 	3	Marzo	2023-01-03T00:00:00	2024-11-08T06:00:00	5	Humedad	31
79389	7	Sololá	704	Santa Lucía Utatlán 	7	Santa Rita 	3	Marzo	2023-01-03T00:00:00	2024-11-08T06:00:00	6	Velocidad del viento	4.8
79390	7	Sololá	704	Santa Lucía Utatlán 	7	Santa Rita 	3	Marzo	2023-01-03T00:00:00	2024-11-08T06:00:00	7	Dirección del viento	4.83
79391	7	Sololá	704	Santa Lucía Utatlán 	7	Santa Rita 	3	Marzo	2023-01-03T00:00:00	2024-11-08T06:00:00	1	Precipitación	0
79392	7	Sololá	704	Santa Lucía Utatlán 	7	Santa Rita 	3	Marzo	2023-01-03T00:00:00	2024-11-08T06:00:00	8	Radiación solar	0
79393	7	Sololá	704	Santa Lucía Utatlán 	7	Santa Rita 	3	Marzo	2023-01-03T00:00:00	2024-11-08T07:00:00	2	Temperatura media	16.3
79394	7	Sololá	704	Santa Lucía Utatlán 	7	Santa Rita 	3	Marzo	2023-01-03T00:00:00	2024-11-08T07:00:00	4	Temperatura máxima	16.3
79395	7	Sololá	704	Santa Lucía Utatlán 	7	Santa Rita 	3	Marzo	2023-01-03T00:00:00	2024-11-08T07:00:00	3	Temperatura mínima	14.6
79396	7	Sololá	704	Santa Lucía Utatlán 	7	Santa Rita 	3	Marzo	2023-01-03T00:00:00	2024-11-08T07:00:00	5	Humedad	27
79397	7	Sololá	704	Santa Lucía Utatlán 	7	Santa Rita 	3	Marzo	2023-01-03T00:00:00	2024-11-08T07:00:00	6	Velocidad del viento	4.8
79398	7	Sololá	704	Santa Lucía Utatlán 	7	Santa Rita 	3	Marzo	2023-01-03T00:00:00	2024-11-08T07:00:00	7	Dirección del viento	4.83
79399	7	Sololá	704	Santa Lucía Utatlán 	7	Santa Rita 	3	Marzo	2023-01-03T00:00:00	2024-11-08T07:00:00	1	Precipitación	0
79400	7	Sololá	704	Santa Lucía Utatlán 	7	Santa Rita 	3	Marzo	2023-01-03T00:00:00	2024-11-08T07:00:00	8	Radiación solar	8
79401	7	Sololá	704	Santa Lucía Utatlán 	7	Santa Rita 	3	Marzo	2023-01-03T00:00:00	2024-11-08T08:00:00	2	Temperatura media	22.2
79402	7	Sololá	704	Santa Lucía Utatlán 	7	Santa Rita 	3	Marzo	2023-01-03T00:00:00	2024-11-08T08:00:00	4	Temperatura máxima	22.2
79403	7	Sololá	704	Santa Lucía Utatlán 	7	Santa Rita 	3	Marzo	2023-01-03T00:00:00	2024-11-08T08:00:00	3	Temperatura mínima	16.3
79404	7	Sololá	704	Santa Lucía Utatlán 	7	Santa Rita 	3	Marzo	2023-01-03T00:00:00	2024-11-08T08:00:00	5	Humedad	24
79405	7	Sololá	704	Santa Lucía Utatlán 	7	Santa Rita 	3	Marzo	2023-01-03T00:00:00	2024-11-08T08:00:00	6	Velocidad del viento	0
79406	7	Sololá	704	Santa Lucía Utatlán 	7	Santa Rita 	3	Marzo	2023-01-03T00:00:00	2024-11-08T08:00:00	7	Dirección del viento	0
79407	7	Sololá	704	Santa Lucía Utatlán 	7	Santa Rita 	3	Marzo	2023-01-03T00:00:00	2024-11-08T08:00:00	1	Precipitación	0
79408	7	Sololá	704	Santa Lucía Utatlán 	7	Santa Rita 	3	Marzo	2023-01-03T00:00:00	2024-11-08T08:00:00	8	Radiación solar	195
79409	7	Sololá	704	Santa Lucía Utatlán 	7	Santa Rita 	3	Marzo	2023-01-03T00:00:00	2024-11-08T09:00:00	2	Temperatura media	27.1
79410	7	Sololá	704	Santa Lucía Utatlán 	7	Santa Rita 	3	Marzo	2023-01-03T00:00:00	2024-11-08T09:00:00	4	Temperatura máxima	27.3
79411	7	Sololá	704	Santa Lucía Utatlán 	7	Santa Rita 	3	Marzo	2023-01-03T00:00:00	2024-11-08T09:00:00	3	Temperatura mínima	22.2
79412	7	Sololá	704	Santa Lucía Utatlán 	7	Santa Rita 	3	Marzo	2023-01-03T00:00:00	2024-11-08T09:00:00	5	Humedad	11
79413	7	Sololá	704	Santa Lucía Utatlán 	7	Santa Rita 	3	Marzo	2023-01-03T00:00:00	2024-11-08T09:00:00	6	Velocidad del viento	1.6
79414	7	Sololá	704	Santa Lucía Utatlán 	7	Santa Rita 	3	Marzo	2023-01-03T00:00:00	2024-11-08T09:00:00	7	Dirección del viento	1.61
79415	7	Sololá	704	Santa Lucía Utatlán 	7	Santa Rita 	3	Marzo	2023-01-03T00:00:00	2024-11-08T09:00:00	1	Precipitación	0
79416	7	Sololá	704	Santa Lucía Utatlán 	7	Santa Rita 	3	Marzo	2023-01-03T00:00:00	2024-11-08T09:00:00	8	Radiación solar	453
79417	7	Sololá	704	Santa Lucía Utatlán 	7	Santa Rita 	3	Marzo	2023-01-03T00:00:00	2024-11-08T10:00:00	2	Temperatura media	26.8
79418	7	Sololá	704	Santa Lucía Utatlán 	7	Santa Rita 	3	Marzo	2023-01-03T00:00:00	2024-11-08T10:00:00	4	Temperatura máxima	27.5
79419	7	Sololá	704	Santa Lucía Utatlán 	7	Santa Rita 	3	Marzo	2023-01-03T00:00:00	2024-11-08T10:00:00	3	Temperatura mínima	26.8
79420	7	Sololá	704	Santa Lucía Utatlán 	7	Santa Rita 	3	Marzo	2023-01-03T00:00:00	2024-11-08T10:00:00	5	Humedad	12
79421	7	Sololá	704	Santa Lucía Utatlán 	7	Santa Rita 	3	Marzo	2023-01-03T00:00:00	2024-11-08T10:00:00	6	Velocidad del viento	8
79422	7	Sololá	704	Santa Lucía Utatlán 	7	Santa Rita 	3	Marzo	2023-01-03T00:00:00	2024-11-08T10:00:00	7	Dirección del viento	8.05
79423	7	Sololá	704	Santa Lucía Utatlán 	7	Santa Rita 	3	Marzo	2023-01-03T00:00:00	2024-11-08T10:00:00	1	Precipitación	0
79424	7	Sololá	704	Santa Lucía Utatlán 	7	Santa Rita 	3	Marzo	2023-01-03T00:00:00	2024-11-08T10:00:00	8	Radiación solar	612
79425	7	Sololá	704	Santa Lucía Utatlán 	7	Santa Rita 	3	Marzo	2023-01-03T00:00:00	2024-11-08T11:00:00	2	Temperatura media	27.9
79426	7	Sololá	704	Santa Lucía Utatlán 	7	Santa Rita 	3	Marzo	2023-01-03T00:00:00	2024-11-08T11:00:00	4	Temperatura máxima	27.9
79427	7	Sololá	704	Santa Lucía Utatlán 	7	Santa Rita 	3	Marzo	2023-01-03T00:00:00	2024-11-08T11:00:00	3	Temperatura mínima	26.7
79428	7	Sololá	704	Santa Lucía Utatlán 	7	Santa Rita 	3	Marzo	2023-01-03T00:00:00	2024-11-08T11:00:00	5	Humedad	19
79429	7	Sololá	704	Santa Lucía Utatlán 	7	Santa Rita 	3	Marzo	2023-01-03T00:00:00	2024-11-08T11:00:00	6	Velocidad del viento	9.7
79430	7	Sololá	704	Santa Lucía Utatlán 	7	Santa Rita 	3	Marzo	2023-01-03T00:00:00	2024-11-08T11:00:00	7	Dirección del viento	9.66
79431	7	Sololá	704	Santa Lucía Utatlán 	7	Santa Rita 	3	Marzo	2023-01-03T00:00:00	2024-11-08T11:00:00	1	Precipitación	0
79432	7	Sololá	704	Santa Lucía Utatlán 	7	Santa Rita 	3	Marzo	2023-01-03T00:00:00	2024-11-08T11:00:00	8	Radiación solar	704
79433	7	Sololá	704	Santa Lucía Utatlán 	7	Santa Rita 	3	Marzo	2023-01-03T00:00:00	2024-11-08T12:00:00	2	Temperatura media	27.2
79434	7	Sololá	704	Santa Lucía Utatlán 	7	Santa Rita 	3	Marzo	2023-01-03T00:00:00	2024-11-08T12:00:00	4	Temperatura máxima	28.1
79435	7	Sololá	704	Santa Lucía Utatlán 	7	Santa Rita 	3	Marzo	2023-01-03T00:00:00	2024-11-08T12:00:00	3	Temperatura mínima	27.2
79436	7	Sololá	704	Santa Lucía Utatlán 	7	Santa Rita 	3	Marzo	2023-01-03T00:00:00	2024-11-08T12:00:00	5	Humedad	31
79437	7	Sololá	704	Santa Lucía Utatlán 	7	Santa Rita 	3	Marzo	2023-01-03T00:00:00	2024-11-08T12:00:00	6	Velocidad del viento	8
79438	7	Sololá	704	Santa Lucía Utatlán 	7	Santa Rita 	3	Marzo	2023-01-03T00:00:00	2024-11-08T12:00:00	7	Dirección del viento	8.05
79439	7	Sololá	704	Santa Lucía Utatlán 	7	Santa Rita 	3	Marzo	2023-01-03T00:00:00	2024-11-08T12:00:00	1	Precipitación	0
79440	7	Sololá	704	Santa Lucía Utatlán 	7	Santa Rita 	3	Marzo	2023-01-03T00:00:00	2024-11-08T12:00:00	8	Radiación solar	912
79441	7	Sololá	704	Santa Lucía Utatlán 	7	Santa Rita 	3	Marzo	2023-01-03T00:00:00	2024-11-08T13:00:00	2	Temperatura media	25.9
79442	7	Sololá	704	Santa Lucía Utatlán 	7	Santa Rita 	3	Marzo	2023-01-03T00:00:00	2024-11-08T13:00:00	4	Temperatura máxima	27.3
79443	7	Sololá	704	Santa Lucía Utatlán 	7	Santa Rita 	3	Marzo	2023-01-03T00:00:00	2024-11-08T13:00:00	3	Temperatura mínima	25.8
79444	7	Sololá	704	Santa Lucía Utatlán 	7	Santa Rita 	3	Marzo	2023-01-03T00:00:00	2024-11-08T13:00:00	5	Humedad	49
79445	7	Sololá	704	Santa Lucía Utatlán 	7	Santa Rita 	3	Marzo	2023-01-03T00:00:00	2024-11-08T13:00:00	6	Velocidad del viento	8
79446	7	Sololá	704	Santa Lucía Utatlán 	7	Santa Rita 	3	Marzo	2023-01-03T00:00:00	2024-11-08T13:00:00	7	Dirección del viento	8.05
79447	7	Sololá	704	Santa Lucía Utatlán 	7	Santa Rita 	3	Marzo	2023-01-03T00:00:00	2024-11-08T13:00:00	1	Precipitación	0
79448	7	Sololá	704	Santa Lucía Utatlán 	7	Santa Rita 	3	Marzo	2023-01-03T00:00:00	2024-11-08T13:00:00	8	Radiación solar	900
79449	7	Sololá	704	Santa Lucía Utatlán 	7	Santa Rita 	3	Marzo	2023-01-03T00:00:00	2024-11-08T14:00:00	2	Temperatura media	24.8
79450	7	Sololá	704	Santa Lucía Utatlán 	7	Santa Rita 	3	Marzo	2023-01-03T00:00:00	2024-11-08T14:00:00	4	Temperatura máxima	25.9
79451	7	Sololá	704	Santa Lucía Utatlán 	7	Santa Rita 	3	Marzo	2023-01-03T00:00:00	2024-11-08T14:00:00	3	Temperatura mínima	24.8
79452	7	Sololá	704	Santa Lucía Utatlán 	7	Santa Rita 	3	Marzo	2023-01-03T00:00:00	2024-11-08T14:00:00	5	Humedad	61
79453	7	Sololá	704	Santa Lucía Utatlán 	7	Santa Rita 	3	Marzo	2023-01-03T00:00:00	2024-11-08T14:00:00	6	Velocidad del viento	8
79454	7	Sololá	704	Santa Lucía Utatlán 	7	Santa Rita 	3	Marzo	2023-01-03T00:00:00	2024-11-08T14:00:00	7	Dirección del viento	8.05
79455	7	Sololá	704	Santa Lucía Utatlán 	7	Santa Rita 	3	Marzo	2023-01-03T00:00:00	2024-11-08T14:00:00	1	Precipitación	0
79456	7	Sololá	704	Santa Lucía Utatlán 	7	Santa Rita 	3	Marzo	2023-01-03T00:00:00	2024-11-08T14:00:00	8	Radiación solar	786
79457	7	Sololá	704	Santa Lucía Utatlán 	7	Santa Rita 	3	Marzo	2023-01-03T00:00:00	2024-11-08T15:00:00	2	Temperatura media	24.3
79458	7	Sololá	704	Santa Lucía Utatlán 	7	Santa Rita 	3	Marzo	2023-01-03T00:00:00	2024-11-08T15:00:00	4	Temperatura máxima	24.9
79459	7	Sololá	704	Santa Lucía Utatlán 	7	Santa Rita 	3	Marzo	2023-01-03T00:00:00	2024-11-08T15:00:00	3	Temperatura mínima	24.1
79460	7	Sololá	704	Santa Lucía Utatlán 	7	Santa Rita 	3	Marzo	2023-01-03T00:00:00	2024-11-08T15:00:00	5	Humedad	66
79461	7	Sololá	704	Santa Lucía Utatlán 	7	Santa Rita 	3	Marzo	2023-01-03T00:00:00	2024-11-08T15:00:00	6	Velocidad del viento	8
79462	7	Sololá	704	Santa Lucía Utatlán 	7	Santa Rita 	3	Marzo	2023-01-03T00:00:00	2024-11-08T15:00:00	7	Dirección del viento	8.05
79463	7	Sololá	704	Santa Lucía Utatlán 	7	Santa Rita 	3	Marzo	2023-01-03T00:00:00	2024-11-08T15:00:00	1	Precipitación	0
79464	7	Sololá	704	Santa Lucía Utatlán 	7	Santa Rita 	3	Marzo	2023-01-03T00:00:00	2024-11-08T15:00:00	8	Radiación solar	714
79465	7	Sololá	704	Santa Lucía Utatlán 	7	Santa Rita 	3	Marzo	2023-01-03T00:00:00	2024-11-08T16:00:00	2	Temperatura media	23.3
79466	7	Sololá	704	Santa Lucía Utatlán 	7	Santa Rita 	3	Marzo	2023-01-03T00:00:00	2024-11-08T16:00:00	4	Temperatura máxima	24.3
79467	7	Sololá	704	Santa Lucía Utatlán 	7	Santa Rita 	3	Marzo	2023-01-03T00:00:00	2024-11-08T16:00:00	3	Temperatura mínima	23.3
79468	7	Sololá	704	Santa Lucía Utatlán 	7	Santa Rita 	3	Marzo	2023-01-03T00:00:00	2024-11-08T16:00:00	5	Humedad	72
79469	7	Sololá	704	Santa Lucía Utatlán 	7	Santa Rita 	3	Marzo	2023-01-03T00:00:00	2024-11-08T16:00:00	6	Velocidad del viento	6.4
79470	7	Sololá	704	Santa Lucía Utatlán 	7	Santa Rita 	3	Marzo	2023-01-03T00:00:00	2024-11-08T16:00:00	7	Dirección del viento	6.44
79471	7	Sololá	704	Santa Lucía Utatlán 	7	Santa Rita 	3	Marzo	2023-01-03T00:00:00	2024-11-08T16:00:00	1	Precipitación	0
79472	7	Sololá	704	Santa Lucía Utatlán 	7	Santa Rita 	3	Marzo	2023-01-03T00:00:00	2024-11-08T16:00:00	8	Radiación solar	537
79473	7	Sololá	704	Santa Lucía Utatlán 	7	Santa Rita 	3	Marzo	2023-01-03T00:00:00	2024-11-08T17:00:00	2	Temperatura media	22.1
79474	7	Sololá	704	Santa Lucía Utatlán 	7	Santa Rita 	3	Marzo	2023-01-03T00:00:00	2024-11-08T17:00:00	4	Temperatura máxima	23.7
79475	7	Sololá	704	Santa Lucía Utatlán 	7	Santa Rita 	3	Marzo	2023-01-03T00:00:00	2024-11-08T17:00:00	3	Temperatura mínima	22.1
79476	7	Sololá	704	Santa Lucía Utatlán 	7	Santa Rita 	3	Marzo	2023-01-03T00:00:00	2024-11-08T17:00:00	5	Humedad	79
79477	7	Sololá	704	Santa Lucía Utatlán 	7	Santa Rita 	3	Marzo	2023-01-03T00:00:00	2024-11-08T17:00:00	6	Velocidad del viento	6.4
79478	7	Sololá	704	Santa Lucía Utatlán 	7	Santa Rita 	3	Marzo	2023-01-03T00:00:00	2024-11-08T17:00:00	7	Dirección del viento	6.44
79479	7	Sololá	704	Santa Lucía Utatlán 	7	Santa Rita 	3	Marzo	2023-01-03T00:00:00	2024-11-08T17:00:00	1	Precipitación	0
79480	7	Sololá	704	Santa Lucía Utatlán 	7	Santa Rita 	3	Marzo	2023-01-03T00:00:00	2024-11-08T17:00:00	8	Radiación solar	313
79481	7	Sololá	704	Santa Lucía Utatlán 	7	Santa Rita 	3	Marzo	2023-01-03T00:00:00	2024-11-08T18:00:00	2	Temperatura media	20.4
79482	7	Sololá	704	Santa Lucía Utatlán 	7	Santa Rita 	3	Marzo	2023-01-03T00:00:00	2024-11-08T18:00:00	4	Temperatura máxima	22.1
79483	7	Sololá	704	Santa Lucía Utatlán 	7	Santa Rita 	3	Marzo	2023-01-03T00:00:00	2024-11-08T18:00:00	3	Temperatura mínima	20.3
79484	7	Sololá	704	Santa Lucía Utatlán 	7	Santa Rita 	3	Marzo	2023-01-03T00:00:00	2024-11-08T18:00:00	5	Humedad	83
79485	7	Sololá	704	Santa Lucía Utatlán 	7	Santa Rita 	3	Marzo	2023-01-03T00:00:00	2024-11-08T18:00:00	6	Velocidad del viento	3.2
79486	7	Sololá	704	Santa Lucía Utatlán 	7	Santa Rita 	3	Marzo	2023-01-03T00:00:00	2024-11-08T18:00:00	7	Dirección del viento	3.22
79487	7	Sololá	704	Santa Lucía Utatlán 	7	Santa Rita 	3	Marzo	2023-01-03T00:00:00	2024-11-08T18:00:00	1	Precipitación	0
79488	7	Sololá	704	Santa Lucía Utatlán 	7	Santa Rita 	3	Marzo	2023-01-03T00:00:00	2024-11-08T18:00:00	8	Radiación solar	19
79489	7	Sololá	704	Santa Lucía Utatlán 	7	Santa Rita 	3	Marzo	2023-01-03T00:00:00	2024-11-08T19:00:00	2	Temperatura media	18.6
79490	7	Sololá	704	Santa Lucía Utatlán 	7	Santa Rita 	3	Marzo	2023-01-03T00:00:00	2024-11-08T19:00:00	4	Temperatura máxima	20.6
79491	7	Sololá	704	Santa Lucía Utatlán 	7	Santa Rita 	3	Marzo	2023-01-03T00:00:00	2024-11-08T19:00:00	3	Temperatura mínima	18.6
79492	7	Sololá	704	Santa Lucía Utatlán 	7	Santa Rita 	3	Marzo	2023-01-03T00:00:00	2024-11-08T19:00:00	5	Humedad	83
79493	7	Sololá	704	Santa Lucía Utatlán 	7	Santa Rita 	3	Marzo	2023-01-03T00:00:00	2024-11-08T19:00:00	6	Velocidad del viento	1.6
79494	7	Sololá	704	Santa Lucía Utatlán 	7	Santa Rita 	3	Marzo	2023-01-03T00:00:00	2024-11-08T19:00:00	7	Dirección del viento	1.61
79495	7	Sololá	704	Santa Lucía Utatlán 	7	Santa Rita 	3	Marzo	2023-01-03T00:00:00	2024-11-08T19:00:00	1	Precipitación	0
79496	7	Sololá	704	Santa Lucía Utatlán 	7	Santa Rita 	3	Marzo	2023-01-03T00:00:00	2024-11-08T19:00:00	8	Radiación solar	0
79497	7	Sololá	704	Santa Lucía Utatlán 	7	Santa Rita 	3	Marzo	2023-01-03T00:00:00	2024-11-08T20:00:00	2	Temperatura media	17.6
79498	7	Sololá	704	Santa Lucía Utatlán 	7	Santa Rita 	3	Marzo	2023-01-03T00:00:00	2024-11-08T20:00:00	4	Temperatura máxima	18.7
79499	7	Sololá	704	Santa Lucía Utatlán 	7	Santa Rita 	3	Marzo	2023-01-03T00:00:00	2024-11-08T20:00:00	3	Temperatura mínima	17.6
79500	7	Sololá	704	Santa Lucía Utatlán 	7	Santa Rita 	3	Marzo	2023-01-03T00:00:00	2024-11-08T20:00:00	5	Humedad	70
79501	7	Sololá	704	Santa Lucía Utatlán 	7	Santa Rita 	3	Marzo	2023-01-03T00:00:00	2024-11-08T20:00:00	6	Velocidad del viento	3.2
79502	7	Sololá	704	Santa Lucía Utatlán 	7	Santa Rita 	3	Marzo	2023-01-03T00:00:00	2024-11-08T20:00:00	7	Dirección del viento	3.22
79503	7	Sololá	704	Santa Lucía Utatlán 	7	Santa Rita 	3	Marzo	2023-01-03T00:00:00	2024-11-08T20:00:00	1	Precipitación	0
79504	7	Sololá	704	Santa Lucía Utatlán 	7	Santa Rita 	3	Marzo	2023-01-03T00:00:00	2024-11-08T20:00:00	8	Radiación solar	0
79505	7	Sololá	704	Santa Lucía Utatlán 	7	Santa Rita 	3	Marzo	2023-01-03T00:00:00	2024-11-08T21:00:00	2	Temperatura media	17.2
79506	7	Sololá	704	Santa Lucía Utatlán 	7	Santa Rita 	3	Marzo	2023-01-03T00:00:00	2024-11-08T21:00:00	4	Temperatura máxima	17.6
79507	7	Sololá	704	Santa Lucía Utatlán 	7	Santa Rita 	3	Marzo	2023-01-03T00:00:00	2024-11-08T21:00:00	3	Temperatura mínima	17.1
79508	7	Sololá	704	Santa Lucía Utatlán 	7	Santa Rita 	3	Marzo	2023-01-03T00:00:00	2024-11-08T21:00:00	5	Humedad	77
79509	7	Sololá	704	Santa Lucía Utatlán 	7	Santa Rita 	3	Marzo	2023-01-03T00:00:00	2024-11-08T21:00:00	6	Velocidad del viento	1.6
79510	7	Sololá	704	Santa Lucía Utatlán 	7	Santa Rita 	3	Marzo	2023-01-03T00:00:00	2024-11-08T21:00:00	7	Dirección del viento	1.61
79511	7	Sololá	704	Santa Lucía Utatlán 	7	Santa Rita 	3	Marzo	2023-01-03T00:00:00	2024-11-08T21:00:00	1	Precipitación	0
79512	7	Sololá	704	Santa Lucía Utatlán 	7	Santa Rita 	3	Marzo	2023-01-03T00:00:00	2024-11-08T21:00:00	8	Radiación solar	0
79513	7	Sololá	704	Santa Lucía Utatlán 	7	Santa Rita 	3	Marzo	2023-01-03T00:00:00	2024-11-08T22:00:00	2	Temperatura media	17.8
79514	7	Sololá	704	Santa Lucía Utatlán 	7	Santa Rita 	3	Marzo	2023-01-03T00:00:00	2024-11-08T22:00:00	4	Temperatura máxima	17.9
79515	7	Sololá	704	Santa Lucía Utatlán 	7	Santa Rita 	3	Marzo	2023-01-03T00:00:00	2024-11-08T22:00:00	3	Temperatura mínima	17.2
79516	7	Sololá	704	Santa Lucía Utatlán 	7	Santa Rita 	3	Marzo	2023-01-03T00:00:00	2024-11-08T22:00:00	5	Humedad	72
79517	7	Sololá	704	Santa Lucía Utatlán 	7	Santa Rita 	3	Marzo	2023-01-03T00:00:00	2024-11-08T22:00:00	6	Velocidad del viento	1.6
79518	7	Sololá	704	Santa Lucía Utatlán 	7	Santa Rita 	3	Marzo	2023-01-03T00:00:00	2024-11-08T22:00:00	7	Dirección del viento	1.61
79519	7	Sololá	704	Santa Lucía Utatlán 	7	Santa Rita 	3	Marzo	2023-01-03T00:00:00	2024-11-08T22:00:00	1	Precipitación	0
79520	7	Sololá	704	Santa Lucía Utatlán 	7	Santa Rita 	3	Marzo	2023-01-03T00:00:00	2024-11-08T22:00:00	8	Radiación solar	0
79521	7	Sololá	704	Santa Lucía Utatlán 	7	Santa Rita 	3	Marzo	2023-01-03T00:00:00	2024-11-08T23:00:00	2	Temperatura media	18.4
79522	7	Sololá	704	Santa Lucía Utatlán 	7	Santa Rita 	3	Marzo	2023-01-03T00:00:00	2024-11-08T23:00:00	4	Temperatura máxima	18.4
79523	7	Sololá	704	Santa Lucía Utatlán 	7	Santa Rita 	3	Marzo	2023-01-03T00:00:00	2024-11-08T23:00:00	3	Temperatura mínima	17.9
79524	7	Sololá	704	Santa Lucía Utatlán 	7	Santa Rita 	3	Marzo	2023-01-03T00:00:00	2024-11-08T23:00:00	5	Humedad	65
79525	7	Sololá	704	Santa Lucía Utatlán 	7	Santa Rita 	3	Marzo	2023-01-03T00:00:00	2024-11-08T23:00:00	6	Velocidad del viento	1.6
79526	7	Sololá	704	Santa Lucía Utatlán 	7	Santa Rita 	3	Marzo	2023-01-03T00:00:00	2024-11-08T23:00:00	7	Dirección del viento	1.61
79527	7	Sololá	704	Santa Lucía Utatlán 	7	Santa Rita 	3	Marzo	2023-01-03T00:00:00	2024-11-08T23:00:00	1	Precipitación	0
79528	7	Sololá	704	Santa Lucía Utatlán 	7	Santa Rita 	3	Marzo	2023-01-03T00:00:00	2024-11-08T23:00:00	8	Radiación solar	0
79529	7	Sololá	704	Santa Lucía Utatlán 	7	Santa Rita 	3	Marzo	2023-02-03T00:00:00	2024-11-08T00:00:00	2	Temperatura media	18
79530	7	Sololá	704	Santa Lucía Utatlán 	7	Santa Rita 	3	Marzo	2023-02-03T00:00:00	2024-11-08T00:00:00	4	Temperatura máxima	18.9
79531	7	Sololá	704	Santa Lucía Utatlán 	7	Santa Rita 	3	Marzo	2023-02-03T00:00:00	2024-11-08T00:00:00	3	Temperatura mínima	18
79532	7	Sololá	704	Santa Lucía Utatlán 	7	Santa Rita 	3	Marzo	2023-02-03T00:00:00	2024-11-08T00:00:00	5	Humedad	68
79533	7	Sololá	704	Santa Lucía Utatlán 	7	Santa Rita 	3	Marzo	2023-02-03T00:00:00	2024-11-08T00:00:00	6	Velocidad del viento	3.2
79534	7	Sololá	704	Santa Lucía Utatlán 	7	Santa Rita 	3	Marzo	2023-02-03T00:00:00	2024-11-08T00:00:00	7	Dirección del viento	3.22
79535	7	Sololá	704	Santa Lucía Utatlán 	7	Santa Rita 	3	Marzo	2023-02-03T00:00:00	2024-11-08T00:00:00	1	Precipitación	0
79536	7	Sololá	704	Santa Lucía Utatlán 	7	Santa Rita 	3	Marzo	2023-02-03T00:00:00	2024-11-08T00:00:00	8	Radiación solar	0
79537	7	Sololá	704	Santa Lucía Utatlán 	7	Santa Rita 	3	Marzo	2023-02-03T00:00:00	2024-11-08T01:00:00	2	Temperatura media	17.7
79538	7	Sololá	704	Santa Lucía Utatlán 	7	Santa Rita 	3	Marzo	2023-02-03T00:00:00	2024-11-08T01:00:00	4	Temperatura máxima	18.2
79539	7	Sololá	704	Santa Lucía Utatlán 	7	Santa Rita 	3	Marzo	2023-02-03T00:00:00	2024-11-08T01:00:00	3	Temperatura mínima	17.6
79540	7	Sololá	704	Santa Lucía Utatlán 	7	Santa Rita 	3	Marzo	2023-02-03T00:00:00	2024-11-08T01:00:00	5	Humedad	71
79541	7	Sololá	704	Santa Lucía Utatlán 	7	Santa Rita 	3	Marzo	2023-02-03T00:00:00	2024-11-08T01:00:00	6	Velocidad del viento	3.2
79542	7	Sololá	704	Santa Lucía Utatlán 	7	Santa Rita 	3	Marzo	2023-02-03T00:00:00	2024-11-08T01:00:00	7	Dirección del viento	3.22
79543	7	Sololá	704	Santa Lucía Utatlán 	7	Santa Rita 	3	Marzo	2023-02-03T00:00:00	2024-11-08T01:00:00	1	Precipitación	0
79544	7	Sololá	704	Santa Lucía Utatlán 	7	Santa Rita 	3	Marzo	2023-02-03T00:00:00	2024-11-08T01:00:00	8	Radiación solar	0
79545	7	Sololá	704	Santa Lucía Utatlán 	7	Santa Rita 	3	Marzo	2023-02-03T00:00:00	2024-11-08T02:00:00	2	Temperatura media	16.8
79546	7	Sololá	704	Santa Lucía Utatlán 	7	Santa Rita 	3	Marzo	2023-02-03T00:00:00	2024-11-08T02:00:00	4	Temperatura máxima	17.6
79547	7	Sololá	704	Santa Lucía Utatlán 	7	Santa Rita 	3	Marzo	2023-02-03T00:00:00	2024-11-08T02:00:00	3	Temperatura mínima	16.6
79548	7	Sololá	704	Santa Lucía Utatlán 	7	Santa Rita 	3	Marzo	2023-02-03T00:00:00	2024-11-08T02:00:00	5	Humedad	77
79549	7	Sololá	704	Santa Lucía Utatlán 	7	Santa Rita 	3	Marzo	2023-02-03T00:00:00	2024-11-08T02:00:00	6	Velocidad del viento	1.6
79550	7	Sololá	704	Santa Lucía Utatlán 	7	Santa Rita 	3	Marzo	2023-02-03T00:00:00	2024-11-08T02:00:00	7	Dirección del viento	1.61
79551	7	Sololá	704	Santa Lucía Utatlán 	7	Santa Rita 	3	Marzo	2023-02-03T00:00:00	2024-11-08T02:00:00	1	Precipitación	0
79552	7	Sololá	704	Santa Lucía Utatlán 	7	Santa Rita 	3	Marzo	2023-02-03T00:00:00	2024-11-08T02:00:00	8	Radiación solar	0
79553	7	Sololá	704	Santa Lucía Utatlán 	7	Santa Rita 	3	Marzo	2023-02-03T00:00:00	2024-11-08T03:00:00	2	Temperatura media	16.1
79554	7	Sololá	704	Santa Lucía Utatlán 	7	Santa Rita 	3	Marzo	2023-02-03T00:00:00	2024-11-08T03:00:00	4	Temperatura máxima	16.9
79555	7	Sololá	704	Santa Lucía Utatlán 	7	Santa Rita 	3	Marzo	2023-02-03T00:00:00	2024-11-08T03:00:00	3	Temperatura mínima	16.1
79556	7	Sololá	704	Santa Lucía Utatlán 	7	Santa Rita 	3	Marzo	2023-02-03T00:00:00	2024-11-08T03:00:00	5	Humedad	84
79557	7	Sololá	704	Santa Lucía Utatlán 	7	Santa Rita 	3	Marzo	2023-02-03T00:00:00	2024-11-08T03:00:00	6	Velocidad del viento	3.2
79558	7	Sololá	704	Santa Lucía Utatlán 	7	Santa Rita 	3	Marzo	2023-02-03T00:00:00	2024-11-08T03:00:00	7	Dirección del viento	3.22
79559	7	Sololá	704	Santa Lucía Utatlán 	7	Santa Rita 	3	Marzo	2023-02-03T00:00:00	2024-11-08T03:00:00	1	Precipitación	0
79560	7	Sololá	704	Santa Lucía Utatlán 	7	Santa Rita 	3	Marzo	2023-02-03T00:00:00	2024-11-08T03:00:00	8	Radiación solar	0
79561	7	Sololá	704	Santa Lucía Utatlán 	7	Santa Rita 	3	Marzo	2023-02-03T00:00:00	2024-11-08T04:00:00	2	Temperatura media	15.6
79562	7	Sololá	704	Santa Lucía Utatlán 	7	Santa Rita 	3	Marzo	2023-02-03T00:00:00	2024-11-08T04:00:00	4	Temperatura máxima	16.1
79563	7	Sololá	704	Santa Lucía Utatlán 	7	Santa Rita 	3	Marzo	2023-02-03T00:00:00	2024-11-08T04:00:00	3	Temperatura mínima	15.6
79564	7	Sololá	704	Santa Lucía Utatlán 	7	Santa Rita 	3	Marzo	2023-02-03T00:00:00	2024-11-08T04:00:00	5	Humedad	81
79565	7	Sololá	704	Santa Lucía Utatlán 	7	Santa Rita 	3	Marzo	2023-02-03T00:00:00	2024-11-08T04:00:00	6	Velocidad del viento	4.8
79566	7	Sololá	704	Santa Lucía Utatlán 	7	Santa Rita 	3	Marzo	2023-02-03T00:00:00	2024-11-08T04:00:00	7	Dirección del viento	4.83
79567	7	Sololá	704	Santa Lucía Utatlán 	7	Santa Rita 	3	Marzo	2023-02-03T00:00:00	2024-11-08T04:00:00	1	Precipitación	0
79568	7	Sololá	704	Santa Lucía Utatlán 	7	Santa Rita 	3	Marzo	2023-02-03T00:00:00	2024-11-08T04:00:00	8	Radiación solar	0
79569	7	Sololá	704	Santa Lucía Utatlán 	7	Santa Rita 	3	Marzo	2023-02-03T00:00:00	2024-11-08T05:00:00	2	Temperatura media	14.7
79570	7	Sololá	704	Santa Lucía Utatlán 	7	Santa Rita 	3	Marzo	2023-02-03T00:00:00	2024-11-08T05:00:00	4	Temperatura máxima	15.8
79571	7	Sololá	704	Santa Lucía Utatlán 	7	Santa Rita 	3	Marzo	2023-02-03T00:00:00	2024-11-08T05:00:00	3	Temperatura mínima	14.7
79572	7	Sololá	704	Santa Lucía Utatlán 	7	Santa Rita 	3	Marzo	2023-02-03T00:00:00	2024-11-08T05:00:00	5	Humedad	75
79573	7	Sololá	704	Santa Lucía Utatlán 	7	Santa Rita 	3	Marzo	2023-02-03T00:00:00	2024-11-08T05:00:00	6	Velocidad del viento	3.2
79574	7	Sololá	704	Santa Lucía Utatlán 	7	Santa Rita 	3	Marzo	2023-02-03T00:00:00	2024-11-08T05:00:00	7	Dirección del viento	3.22
79575	7	Sololá	704	Santa Lucía Utatlán 	7	Santa Rita 	3	Marzo	2023-02-03T00:00:00	2024-11-08T05:00:00	1	Precipitación	0
79576	7	Sololá	704	Santa Lucía Utatlán 	7	Santa Rita 	3	Marzo	2023-02-03T00:00:00	2024-11-08T05:00:00	8	Radiación solar	0
79577	7	Sololá	704	Santa Lucía Utatlán 	7	Santa Rita 	3	Marzo	2023-02-03T00:00:00	2024-11-08T06:00:00	2	Temperatura media	14.6
79578	7	Sololá	704	Santa Lucía Utatlán 	7	Santa Rita 	3	Marzo	2023-02-03T00:00:00	2024-11-08T06:00:00	4	Temperatura máxima	14.9
79579	7	Sololá	704	Santa Lucía Utatlán 	7	Santa Rita 	3	Marzo	2023-02-03T00:00:00	2024-11-08T06:00:00	3	Temperatura mínima	14.5
79580	7	Sololá	704	Santa Lucía Utatlán 	7	Santa Rita 	3	Marzo	2023-02-03T00:00:00	2024-11-08T06:00:00	5	Humedad	82
79581	7	Sololá	704	Santa Lucía Utatlán 	7	Santa Rita 	3	Marzo	2023-02-03T00:00:00	2024-11-08T06:00:00	6	Velocidad del viento	3.2
79582	7	Sololá	704	Santa Lucía Utatlán 	7	Santa Rita 	3	Marzo	2023-02-03T00:00:00	2024-11-08T06:00:00	7	Dirección del viento	3.22
79583	7	Sololá	704	Santa Lucía Utatlán 	7	Santa Rita 	3	Marzo	2023-02-03T00:00:00	2024-11-08T06:00:00	1	Precipitación	0
79584	7	Sololá	704	Santa Lucía Utatlán 	7	Santa Rita 	3	Marzo	2023-02-03T00:00:00	2024-11-08T06:00:00	8	Radiación solar	0
79585	7	Sololá	704	Santa Lucía Utatlán 	7	Santa Rita 	3	Marzo	2023-02-03T00:00:00	2024-11-08T07:00:00	2	Temperatura media	14.4
79586	7	Sololá	704	Santa Lucía Utatlán 	7	Santa Rita 	3	Marzo	2023-02-03T00:00:00	2024-11-08T07:00:00	4	Temperatura máxima	14.6
79587	7	Sololá	704	Santa Lucía Utatlán 	7	Santa Rita 	3	Marzo	2023-02-03T00:00:00	2024-11-08T07:00:00	3	Temperatura mínima	14.1
79588	7	Sololá	704	Santa Lucía Utatlán 	7	Santa Rita 	3	Marzo	2023-02-03T00:00:00	2024-11-08T07:00:00	5	Humedad	77
79589	7	Sololá	704	Santa Lucía Utatlán 	7	Santa Rita 	3	Marzo	2023-02-03T00:00:00	2024-11-08T07:00:00	6	Velocidad del viento	1.6
79590	7	Sololá	704	Santa Lucía Utatlán 	7	Santa Rita 	3	Marzo	2023-02-03T00:00:00	2024-11-08T07:00:00	7	Dirección del viento	1.61
79591	7	Sololá	704	Santa Lucía Utatlán 	7	Santa Rita 	3	Marzo	2023-02-03T00:00:00	2024-11-08T07:00:00	1	Precipitación	0
79592	7	Sololá	704	Santa Lucía Utatlán 	7	Santa Rita 	3	Marzo	2023-02-03T00:00:00	2024-11-08T07:00:00	8	Radiación solar	12
79593	7	Sololá	704	Santa Lucía Utatlán 	7	Santa Rita 	3	Marzo	2023-02-03T00:00:00	2024-11-08T08:00:00	2	Temperatura media	18.8
79594	7	Sololá	704	Santa Lucía Utatlán 	7	Santa Rita 	3	Marzo	2023-02-03T00:00:00	2024-11-08T08:00:00	4	Temperatura máxima	18.8
79595	7	Sololá	704	Santa Lucía Utatlán 	7	Santa Rita 	3	Marzo	2023-02-03T00:00:00	2024-11-08T08:00:00	3	Temperatura mínima	14.4
79596	7	Sololá	704	Santa Lucía Utatlán 	7	Santa Rita 	3	Marzo	2023-02-03T00:00:00	2024-11-08T08:00:00	5	Humedad	62
79597	7	Sololá	704	Santa Lucía Utatlán 	7	Santa Rita 	3	Marzo	2023-02-03T00:00:00	2024-11-08T08:00:00	6	Velocidad del viento	0
79598	7	Sololá	704	Santa Lucía Utatlán 	7	Santa Rita 	3	Marzo	2023-02-03T00:00:00	2024-11-08T08:00:00	7	Dirección del viento	0
79599	7	Sololá	704	Santa Lucía Utatlán 	7	Santa Rita 	3	Marzo	2023-02-03T00:00:00	2024-11-08T08:00:00	1	Precipitación	0
79600	7	Sololá	704	Santa Lucía Utatlán 	7	Santa Rita 	3	Marzo	2023-02-03T00:00:00	2024-11-08T08:00:00	8	Radiación solar	180
79601	7	Sololá	704	Santa Lucía Utatlán 	7	Santa Rita 	3	Marzo	2023-02-03T00:00:00	2024-11-08T09:00:00	2	Temperatura media	21.6
79602	7	Sololá	704	Santa Lucía Utatlán 	7	Santa Rita 	3	Marzo	2023-02-03T00:00:00	2024-11-08T09:00:00	4	Temperatura máxima	21.6
79603	7	Sololá	704	Santa Lucía Utatlán 	7	Santa Rita 	3	Marzo	2023-02-03T00:00:00	2024-11-08T09:00:00	3	Temperatura mínima	18.8
79604	7	Sololá	704	Santa Lucía Utatlán 	7	Santa Rita 	3	Marzo	2023-02-03T00:00:00	2024-11-08T09:00:00	5	Humedad	49
79605	7	Sololá	704	Santa Lucía Utatlán 	7	Santa Rita 	3	Marzo	2023-02-03T00:00:00	2024-11-08T09:00:00	6	Velocidad del viento	3.2
79606	7	Sololá	704	Santa Lucía Utatlán 	7	Santa Rita 	3	Marzo	2023-02-03T00:00:00	2024-11-08T09:00:00	7	Dirección del viento	3.22
79607	7	Sololá	704	Santa Lucía Utatlán 	7	Santa Rita 	3	Marzo	2023-02-03T00:00:00	2024-11-08T09:00:00	1	Precipitación	0
79608	7	Sololá	704	Santa Lucía Utatlán 	7	Santa Rita 	3	Marzo	2023-02-03T00:00:00	2024-11-08T09:00:00	8	Radiación solar	427
79609	7	Sololá	704	Santa Lucía Utatlán 	7	Santa Rita 	3	Marzo	2023-02-03T00:00:00	2024-11-08T10:00:00	2	Temperatura media	23.1
79610	7	Sololá	704	Santa Lucía Utatlán 	7	Santa Rita 	3	Marzo	2023-02-03T00:00:00	2024-11-08T10:00:00	4	Temperatura máxima	23.7
79611	7	Sololá	704	Santa Lucía Utatlán 	7	Santa Rita 	3	Marzo	2023-02-03T00:00:00	2024-11-08T10:00:00	3	Temperatura mínima	21.6
79612	7	Sololá	704	Santa Lucía Utatlán 	7	Santa Rita 	3	Marzo	2023-02-03T00:00:00	2024-11-08T10:00:00	5	Humedad	40
79613	7	Sololá	704	Santa Lucía Utatlán 	7	Santa Rita 	3	Marzo	2023-02-03T00:00:00	2024-11-08T10:00:00	6	Velocidad del viento	6.4
79614	7	Sololá	704	Santa Lucía Utatlán 	7	Santa Rita 	3	Marzo	2023-02-03T00:00:00	2024-11-08T10:00:00	7	Dirección del viento	6.44
79615	7	Sololá	704	Santa Lucía Utatlán 	7	Santa Rita 	3	Marzo	2023-02-03T00:00:00	2024-11-08T10:00:00	1	Precipitación	0
79616	7	Sololá	704	Santa Lucía Utatlán 	7	Santa Rita 	3	Marzo	2023-02-03T00:00:00	2024-11-08T10:00:00	8	Radiación solar	597
79617	7	Sololá	704	Santa Lucía Utatlán 	7	Santa Rita 	3	Marzo	2023-02-03T00:00:00	2024-11-08T11:00:00	2	Temperatura media	23.2
79618	7	Sololá	704	Santa Lucía Utatlán 	7	Santa Rita 	3	Marzo	2023-02-03T00:00:00	2024-11-08T11:00:00	4	Temperatura máxima	23.9
79619	7	Sololá	704	Santa Lucía Utatlán 	7	Santa Rita 	3	Marzo	2023-02-03T00:00:00	2024-11-08T11:00:00	3	Temperatura mínima	22.8
79620	7	Sololá	704	Santa Lucía Utatlán 	7	Santa Rita 	3	Marzo	2023-02-03T00:00:00	2024-11-08T11:00:00	5	Humedad	35
79621	7	Sololá	704	Santa Lucía Utatlán 	7	Santa Rita 	3	Marzo	2023-02-03T00:00:00	2024-11-08T11:00:00	6	Velocidad del viento	6.4
79622	7	Sololá	704	Santa Lucía Utatlán 	7	Santa Rita 	3	Marzo	2023-02-03T00:00:00	2024-11-08T11:00:00	7	Dirección del viento	6.44
79623	7	Sololá	704	Santa Lucía Utatlán 	7	Santa Rita 	3	Marzo	2023-02-03T00:00:00	2024-11-08T11:00:00	1	Precipitación	0
79624	7	Sololá	704	Santa Lucía Utatlán 	7	Santa Rita 	3	Marzo	2023-02-03T00:00:00	2024-11-08T11:00:00	8	Radiación solar	690
79625	7	Sololá	704	Santa Lucía Utatlán 	7	Santa Rita 	3	Marzo	2023-02-03T00:00:00	2024-11-08T12:00:00	2	Temperatura media	25.2
79626	7	Sololá	704	Santa Lucía Utatlán 	7	Santa Rita 	3	Marzo	2023-02-03T00:00:00	2024-11-08T12:00:00	4	Temperatura máxima	25.4
79627	7	Sololá	704	Santa Lucía Utatlán 	7	Santa Rita 	3	Marzo	2023-02-03T00:00:00	2024-11-08T12:00:00	3	Temperatura mínima	23
79628	7	Sololá	704	Santa Lucía Utatlán 	7	Santa Rita 	3	Marzo	2023-02-03T00:00:00	2024-11-08T12:00:00	5	Humedad	40
79629	7	Sololá	704	Santa Lucía Utatlán 	7	Santa Rita 	3	Marzo	2023-02-03T00:00:00	2024-11-08T12:00:00	6	Velocidad del viento	8
79630	7	Sololá	704	Santa Lucía Utatlán 	7	Santa Rita 	3	Marzo	2023-02-03T00:00:00	2024-11-08T12:00:00	7	Dirección del viento	8.05
79631	7	Sololá	704	Santa Lucía Utatlán 	7	Santa Rita 	3	Marzo	2023-02-03T00:00:00	2024-11-08T12:00:00	1	Precipitación	0
79632	7	Sololá	704	Santa Lucía Utatlán 	7	Santa Rita 	3	Marzo	2023-02-03T00:00:00	2024-11-08T12:00:00	8	Radiación solar	914
79633	7	Sololá	704	Santa Lucía Utatlán 	7	Santa Rita 	3	Marzo	2023-02-03T00:00:00	2024-11-08T13:00:00	2	Temperatura media	24.6
79634	7	Sololá	704	Santa Lucía Utatlán 	7	Santa Rita 	3	Marzo	2023-02-03T00:00:00	2024-11-08T13:00:00	4	Temperatura máxima	25.7
79635	7	Sololá	704	Santa Lucía Utatlán 	7	Santa Rita 	3	Marzo	2023-02-03T00:00:00	2024-11-08T13:00:00	3	Temperatura mínima	23.9
79636	7	Sololá	704	Santa Lucía Utatlán 	7	Santa Rita 	3	Marzo	2023-02-03T00:00:00	2024-11-08T13:00:00	5	Humedad	43
79637	7	Sololá	704	Santa Lucía Utatlán 	7	Santa Rita 	3	Marzo	2023-02-03T00:00:00	2024-11-08T13:00:00	6	Velocidad del viento	9.7
79638	7	Sololá	704	Santa Lucía Utatlán 	7	Santa Rita 	3	Marzo	2023-02-03T00:00:00	2024-11-08T13:00:00	7	Dirección del viento	9.66
79639	7	Sololá	704	Santa Lucía Utatlán 	7	Santa Rita 	3	Marzo	2023-02-03T00:00:00	2024-11-08T13:00:00	1	Precipitación	0
79640	7	Sololá	704	Santa Lucía Utatlán 	7	Santa Rita 	3	Marzo	2023-02-03T00:00:00	2024-11-08T13:00:00	8	Radiación solar	892
79641	7	Sololá	704	Santa Lucía Utatlán 	7	Santa Rita 	3	Marzo	2023-02-03T00:00:00	2024-11-08T14:00:00	2	Temperatura media	23.8
79642	7	Sololá	704	Santa Lucía Utatlán 	7	Santa Rita 	3	Marzo	2023-02-03T00:00:00	2024-11-08T14:00:00	4	Temperatura máxima	24.9
79643	7	Sololá	704	Santa Lucía Utatlán 	7	Santa Rita 	3	Marzo	2023-02-03T00:00:00	2024-11-08T14:00:00	3	Temperatura mínima	23.5
79644	7	Sololá	704	Santa Lucía Utatlán 	7	Santa Rita 	3	Marzo	2023-02-03T00:00:00	2024-11-08T14:00:00	5	Humedad	58
79645	7	Sololá	704	Santa Lucía Utatlán 	7	Santa Rita 	3	Marzo	2023-02-03T00:00:00	2024-11-08T14:00:00	6	Velocidad del viento	8
79646	7	Sololá	704	Santa Lucía Utatlán 	7	Santa Rita 	3	Marzo	2023-02-03T00:00:00	2024-11-08T14:00:00	7	Dirección del viento	8.05
79647	7	Sololá	704	Santa Lucía Utatlán 	7	Santa Rita 	3	Marzo	2023-02-03T00:00:00	2024-11-08T14:00:00	1	Precipitación	0
79648	7	Sololá	704	Santa Lucía Utatlán 	7	Santa Rita 	3	Marzo	2023-02-03T00:00:00	2024-11-08T14:00:00	8	Radiación solar	627
79649	7	Sololá	704	Santa Lucía Utatlán 	7	Santa Rita 	3	Marzo	2023-02-03T00:00:00	2024-11-08T15:00:00	2	Temperatura media	23.8
79650	7	Sololá	704	Santa Lucía Utatlán 	7	Santa Rita 	3	Marzo	2023-02-03T00:00:00	2024-11-08T15:00:00	4	Temperatura máxima	23.9
79651	7	Sololá	704	Santa Lucía Utatlán 	7	Santa Rita 	3	Marzo	2023-02-03T00:00:00	2024-11-08T15:00:00	3	Temperatura mínima	22.8
79652	7	Sololá	704	Santa Lucía Utatlán 	7	Santa Rita 	3	Marzo	2023-02-03T00:00:00	2024-11-08T15:00:00	5	Humedad	59
79653	7	Sololá	704	Santa Lucía Utatlán 	7	Santa Rita 	3	Marzo	2023-02-03T00:00:00	2024-11-08T15:00:00	6	Velocidad del viento	8
79654	7	Sololá	704	Santa Lucía Utatlán 	7	Santa Rita 	3	Marzo	2023-02-03T00:00:00	2024-11-08T15:00:00	7	Dirección del viento	8.05
79655	7	Sololá	704	Santa Lucía Utatlán 	7	Santa Rita 	3	Marzo	2023-02-03T00:00:00	2024-11-08T15:00:00	1	Precipitación	0
79656	7	Sololá	704	Santa Lucía Utatlán 	7	Santa Rita 	3	Marzo	2023-02-03T00:00:00	2024-11-08T15:00:00	8	Radiación solar	586
79657	7	Sololá	704	Santa Lucía Utatlán 	7	Santa Rita 	3	Marzo	2023-02-03T00:00:00	2024-11-08T16:00:00	2	Temperatura media	23.7
79658	7	Sololá	704	Santa Lucía Utatlán 	7	Santa Rita 	3	Marzo	2023-02-03T00:00:00	2024-11-08T16:00:00	4	Temperatura máxima	24.1
79659	7	Sololá	704	Santa Lucía Utatlán 	7	Santa Rita 	3	Marzo	2023-02-03T00:00:00	2024-11-08T16:00:00	3	Temperatura mínima	23.3
79660	7	Sololá	704	Santa Lucía Utatlán 	7	Santa Rita 	3	Marzo	2023-02-03T00:00:00	2024-11-08T16:00:00	5	Humedad	60
79661	7	Sololá	704	Santa Lucía Utatlán 	7	Santa Rita 	3	Marzo	2023-02-03T00:00:00	2024-11-08T16:00:00	6	Velocidad del viento	6.4
79662	7	Sololá	704	Santa Lucía Utatlán 	7	Santa Rita 	3	Marzo	2023-02-03T00:00:00	2024-11-08T16:00:00	7	Dirección del viento	6.44
79663	7	Sololá	704	Santa Lucía Utatlán 	7	Santa Rita 	3	Marzo	2023-02-03T00:00:00	2024-11-08T16:00:00	1	Precipitación	0
79664	7	Sololá	704	Santa Lucía Utatlán 	7	Santa Rita 	3	Marzo	2023-02-03T00:00:00	2024-11-08T16:00:00	8	Radiación solar	603
79665	7	Sololá	704	Santa Lucía Utatlán 	7	Santa Rita 	3	Marzo	2023-02-03T00:00:00	2024-11-08T17:00:00	2	Temperatura media	22.1
79666	7	Sololá	704	Santa Lucía Utatlán 	7	Santa Rita 	3	Marzo	2023-02-03T00:00:00	2024-11-08T17:00:00	4	Temperatura máxima	23.7
79667	7	Sololá	704	Santa Lucía Utatlán 	7	Santa Rita 	3	Marzo	2023-02-03T00:00:00	2024-11-08T17:00:00	3	Temperatura mínima	22.1
79668	7	Sololá	704	Santa Lucía Utatlán 	7	Santa Rita 	3	Marzo	2023-02-03T00:00:00	2024-11-08T17:00:00	5	Humedad	67
79669	7	Sololá	704	Santa Lucía Utatlán 	7	Santa Rita 	3	Marzo	2023-02-03T00:00:00	2024-11-08T17:00:00	6	Velocidad del viento	6.4
79670	7	Sololá	704	Santa Lucía Utatlán 	7	Santa Rita 	3	Marzo	2023-02-03T00:00:00	2024-11-08T17:00:00	7	Dirección del viento	6.44
79671	7	Sololá	704	Santa Lucía Utatlán 	7	Santa Rita 	3	Marzo	2023-02-03T00:00:00	2024-11-08T17:00:00	1	Precipitación	0
79672	7	Sololá	704	Santa Lucía Utatlán 	7	Santa Rita 	3	Marzo	2023-02-03T00:00:00	2024-11-08T17:00:00	8	Radiación solar	456
79673	7	Sololá	704	Santa Lucía Utatlán 	7	Santa Rita 	3	Marzo	2023-02-03T00:00:00	2024-11-08T18:00:00	2	Temperatura media	20.2
79674	7	Sololá	704	Santa Lucía Utatlán 	7	Santa Rita 	3	Marzo	2023-02-03T00:00:00	2024-11-08T18:00:00	4	Temperatura máxima	22.1
79675	7	Sololá	704	Santa Lucía Utatlán 	7	Santa Rita 	3	Marzo	2023-02-03T00:00:00	2024-11-08T18:00:00	3	Temperatura mínima	20.2
79676	7	Sololá	704	Santa Lucía Utatlán 	7	Santa Rita 	3	Marzo	2023-02-03T00:00:00	2024-11-08T18:00:00	5	Humedad	71
79677	7	Sololá	704	Santa Lucía Utatlán 	7	Santa Rita 	3	Marzo	2023-02-03T00:00:00	2024-11-08T18:00:00	6	Velocidad del viento	3.2
79678	7	Sololá	704	Santa Lucía Utatlán 	7	Santa Rita 	3	Marzo	2023-02-03T00:00:00	2024-11-08T18:00:00	7	Dirección del viento	3.22
79679	7	Sololá	704	Santa Lucía Utatlán 	7	Santa Rita 	3	Marzo	2023-02-03T00:00:00	2024-11-08T18:00:00	1	Precipitación	0
79680	7	Sololá	704	Santa Lucía Utatlán 	7	Santa Rita 	3	Marzo	2023-02-03T00:00:00	2024-11-08T18:00:00	8	Radiación solar	102
79681	7	Sololá	704	Santa Lucía Utatlán 	7	Santa Rita 	3	Marzo	2023-02-03T00:00:00	2024-11-08T19:00:00	2	Temperatura media	18.2
79682	7	Sololá	704	Santa Lucía Utatlán 	7	Santa Rita 	3	Marzo	2023-02-03T00:00:00	2024-11-08T19:00:00	4	Temperatura máxima	20.2
79683	7	Sololá	704	Santa Lucía Utatlán 	7	Santa Rita 	3	Marzo	2023-02-03T00:00:00	2024-11-08T19:00:00	3	Temperatura mínima	18.1
79684	7	Sololá	704	Santa Lucía Utatlán 	7	Santa Rita 	3	Marzo	2023-02-03T00:00:00	2024-11-08T19:00:00	5	Humedad	76
79685	7	Sololá	704	Santa Lucía Utatlán 	7	Santa Rita 	3	Marzo	2023-02-03T00:00:00	2024-11-08T19:00:00	6	Velocidad del viento	0
79686	7	Sololá	704	Santa Lucía Utatlán 	7	Santa Rita 	3	Marzo	2023-02-03T00:00:00	2024-11-08T19:00:00	7	Dirección del viento	0
79687	7	Sololá	704	Santa Lucía Utatlán 	7	Santa Rita 	3	Marzo	2023-02-03T00:00:00	2024-11-08T19:00:00	1	Precipitación	0
79688	7	Sololá	704	Santa Lucía Utatlán 	7	Santa Rita 	3	Marzo	2023-02-03T00:00:00	2024-11-08T19:00:00	8	Radiación solar	0
79689	7	Sololá	704	Santa Lucía Utatlán 	7	Santa Rita 	3	Marzo	2023-02-03T00:00:00	2024-11-08T20:00:00	2	Temperatura media	17.4
79690	7	Sololá	704	Santa Lucía Utatlán 	7	Santa Rita 	3	Marzo	2023-02-03T00:00:00	2024-11-08T20:00:00	4	Temperatura máxima	18.1
79691	7	Sololá	704	Santa Lucía Utatlán 	7	Santa Rita 	3	Marzo	2023-02-03T00:00:00	2024-11-08T20:00:00	3	Temperatura mínima	17.4
79692	7	Sololá	704	Santa Lucía Utatlán 	7	Santa Rita 	3	Marzo	2023-02-03T00:00:00	2024-11-08T20:00:00	5	Humedad	76
79693	7	Sololá	704	Santa Lucía Utatlán 	7	Santa Rita 	3	Marzo	2023-02-03T00:00:00	2024-11-08T20:00:00	6	Velocidad del viento	0
79694	7	Sololá	704	Santa Lucía Utatlán 	7	Santa Rita 	3	Marzo	2023-02-03T00:00:00	2024-11-08T20:00:00	7	Dirección del viento	0
79695	7	Sololá	704	Santa Lucía Utatlán 	7	Santa Rita 	3	Marzo	2023-02-03T00:00:00	2024-11-08T20:00:00	1	Precipitación	0
79696	7	Sololá	704	Santa Lucía Utatlán 	7	Santa Rita 	3	Marzo	2023-02-03T00:00:00	2024-11-08T20:00:00	8	Radiación solar	0
79697	7	Sololá	704	Santa Lucía Utatlán 	7	Santa Rita 	3	Marzo	2023-02-03T00:00:00	2024-11-08T21:00:00	2	Temperatura media	16.2
79698	7	Sololá	704	Santa Lucía Utatlán 	7	Santa Rita 	3	Marzo	2023-02-03T00:00:00	2024-11-08T21:00:00	4	Temperatura máxima	17.6
79699	7	Sololá	704	Santa Lucía Utatlán 	7	Santa Rita 	3	Marzo	2023-02-03T00:00:00	2024-11-08T21:00:00	3	Temperatura mínima	16.2
79700	7	Sololá	704	Santa Lucía Utatlán 	7	Santa Rita 	3	Marzo	2023-02-03T00:00:00	2024-11-08T21:00:00	5	Humedad	80
79701	7	Sololá	704	Santa Lucía Utatlán 	7	Santa Rita 	3	Marzo	2023-02-03T00:00:00	2024-11-08T21:00:00	6	Velocidad del viento	1.6
79702	7	Sololá	704	Santa Lucía Utatlán 	7	Santa Rita 	3	Marzo	2023-02-03T00:00:00	2024-11-08T21:00:00	7	Dirección del viento	1.61
79703	7	Sololá	704	Santa Lucía Utatlán 	7	Santa Rita 	3	Marzo	2023-02-03T00:00:00	2024-11-08T21:00:00	1	Precipitación	0
79704	7	Sololá	704	Santa Lucía Utatlán 	7	Santa Rita 	3	Marzo	2023-02-03T00:00:00	2024-11-08T21:00:00	8	Radiación solar	0
79705	7	Sololá	704	Santa Lucía Utatlán 	7	Santa Rita 	3	Marzo	2023-02-03T00:00:00	2024-11-08T22:00:00	2	Temperatura media	15.7
79706	7	Sololá	704	Santa Lucía Utatlán 	7	Santa Rita 	3	Marzo	2023-02-03T00:00:00	2024-11-08T22:00:00	4	Temperatura máxima	16.2
79707	7	Sololá	704	Santa Lucía Utatlán 	7	Santa Rita 	3	Marzo	2023-02-03T00:00:00	2024-11-08T22:00:00	3	Temperatura mínima	15.4
79708	7	Sololá	704	Santa Lucía Utatlán 	7	Santa Rita 	3	Marzo	2023-02-03T00:00:00	2024-11-08T22:00:00	5	Humedad	39
79709	7	Sololá	704	Santa Lucía Utatlán 	7	Santa Rita 	3	Marzo	2023-02-03T00:00:00	2024-11-08T22:00:00	6	Velocidad del viento	3.2
79710	7	Sololá	704	Santa Lucía Utatlán 	7	Santa Rita 	3	Marzo	2023-02-03T00:00:00	2024-11-08T22:00:00	7	Dirección del viento	3.22
79711	7	Sololá	704	Santa Lucía Utatlán 	7	Santa Rita 	3	Marzo	2023-02-03T00:00:00	2024-11-08T22:00:00	1	Precipitación	0
79712	7	Sololá	704	Santa Lucía Utatlán 	7	Santa Rita 	3	Marzo	2023-02-03T00:00:00	2024-11-08T22:00:00	8	Radiación solar	0
79713	7	Sololá	704	Santa Lucía Utatlán 	7	Santa Rita 	3	Marzo	2023-02-03T00:00:00	2024-11-08T23:00:00	2	Temperatura media	16.2
79714	7	Sololá	704	Santa Lucía Utatlán 	7	Santa Rita 	3	Marzo	2023-02-03T00:00:00	2024-11-08T23:00:00	4	Temperatura máxima	16.3
79715	7	Sololá	704	Santa Lucía Utatlán 	7	Santa Rita 	3	Marzo	2023-02-03T00:00:00	2024-11-08T23:00:00	3	Temperatura mínima	15.7
79716	7	Sololá	704	Santa Lucía Utatlán 	7	Santa Rita 	3	Marzo	2023-02-03T00:00:00	2024-11-08T23:00:00	5	Humedad	24
79717	7	Sololá	704	Santa Lucía Utatlán 	7	Santa Rita 	3	Marzo	2023-02-03T00:00:00	2024-11-08T23:00:00	6	Velocidad del viento	4.8
79718	7	Sololá	704	Santa Lucía Utatlán 	7	Santa Rita 	3	Marzo	2023-02-03T00:00:00	2024-11-08T23:00:00	7	Dirección del viento	4.83
79719	7	Sololá	704	Santa Lucía Utatlán 	7	Santa Rita 	3	Marzo	2023-02-03T00:00:00	2024-11-08T23:00:00	1	Precipitación	0
79720	7	Sololá	704	Santa Lucía Utatlán 	7	Santa Rita 	3	Marzo	2023-02-03T00:00:00	2024-11-08T23:00:00	8	Radiación solar	0
79721	7	Sololá	704	Santa Lucía Utatlán 	7	Santa Rita 	3	Marzo	2023-03-03T00:00:00	2024-11-08T00:00:00	2	Temperatura media	16.4
79722	7	Sololá	704	Santa Lucía Utatlán 	7	Santa Rita 	3	Marzo	2023-03-03T00:00:00	2024-11-08T00:00:00	4	Temperatura máxima	16.6
79723	7	Sololá	704	Santa Lucía Utatlán 	7	Santa Rita 	3	Marzo	2023-03-03T00:00:00	2024-11-08T00:00:00	3	Temperatura mínima	16.1
79724	7	Sololá	704	Santa Lucía Utatlán 	7	Santa Rita 	3	Marzo	2023-03-03T00:00:00	2024-11-08T00:00:00	5	Humedad	21
79725	7	Sololá	704	Santa Lucía Utatlán 	7	Santa Rita 	3	Marzo	2023-03-03T00:00:00	2024-11-08T00:00:00	6	Velocidad del viento	6.4
79726	7	Sololá	704	Santa Lucía Utatlán 	7	Santa Rita 	3	Marzo	2023-03-03T00:00:00	2024-11-08T00:00:00	7	Dirección del viento	6.44
79727	7	Sololá	704	Santa Lucía Utatlán 	7	Santa Rita 	3	Marzo	2023-03-03T00:00:00	2024-11-08T00:00:00	1	Precipitación	0
79728	7	Sololá	704	Santa Lucía Utatlán 	7	Santa Rita 	3	Marzo	2023-03-03T00:00:00	2024-11-08T00:00:00	8	Radiación solar	0
79729	7	Sololá	704	Santa Lucía Utatlán 	7	Santa Rita 	3	Marzo	2023-03-03T00:00:00	2024-11-08T01:00:00	2	Temperatura media	16
79730	7	Sololá	704	Santa Lucía Utatlán 	7	Santa Rita 	3	Marzo	2023-03-03T00:00:00	2024-11-08T01:00:00	4	Temperatura máxima	16.4
79731	7	Sololá	704	Santa Lucía Utatlán 	7	Santa Rita 	3	Marzo	2023-03-03T00:00:00	2024-11-08T01:00:00	3	Temperatura mínima	15.6
79732	7	Sololá	704	Santa Lucía Utatlán 	7	Santa Rita 	3	Marzo	2023-03-03T00:00:00	2024-11-08T01:00:00	5	Humedad	20
79733	7	Sololá	704	Santa Lucía Utatlán 	7	Santa Rita 	3	Marzo	2023-03-03T00:00:00	2024-11-08T01:00:00	6	Velocidad del viento	6.4
79734	7	Sololá	704	Santa Lucía Utatlán 	7	Santa Rita 	3	Marzo	2023-03-03T00:00:00	2024-11-08T01:00:00	7	Dirección del viento	6.44
79735	7	Sololá	704	Santa Lucía Utatlán 	7	Santa Rita 	3	Marzo	2023-03-03T00:00:00	2024-11-08T01:00:00	1	Precipitación	0
79736	7	Sololá	704	Santa Lucía Utatlán 	7	Santa Rita 	3	Marzo	2023-03-03T00:00:00	2024-11-08T01:00:00	8	Radiación solar	0
79737	7	Sololá	704	Santa Lucía Utatlán 	7	Santa Rita 	3	Marzo	2023-03-03T00:00:00	2024-11-08T02:00:00	2	Temperatura media	17.4
79738	7	Sololá	704	Santa Lucía Utatlán 	7	Santa Rita 	3	Marzo	2023-03-03T00:00:00	2024-11-08T02:00:00	4	Temperatura máxima	17.4
79739	7	Sololá	704	Santa Lucía Utatlán 	7	Santa Rita 	3	Marzo	2023-03-03T00:00:00	2024-11-08T02:00:00	3	Temperatura mínima	16
79740	7	Sololá	704	Santa Lucía Utatlán 	7	Santa Rita 	3	Marzo	2023-03-03T00:00:00	2024-11-08T02:00:00	5	Humedad	27
79741	7	Sololá	704	Santa Lucía Utatlán 	7	Santa Rita 	3	Marzo	2023-03-03T00:00:00	2024-11-08T02:00:00	6	Velocidad del viento	1.6
79742	7	Sololá	704	Santa Lucía Utatlán 	7	Santa Rita 	3	Marzo	2023-03-03T00:00:00	2024-11-08T02:00:00	7	Dirección del viento	1.61
79743	7	Sololá	704	Santa Lucía Utatlán 	7	Santa Rita 	3	Marzo	2023-03-03T00:00:00	2024-11-08T02:00:00	1	Precipitación	0
79744	7	Sololá	704	Santa Lucía Utatlán 	7	Santa Rita 	3	Marzo	2023-03-03T00:00:00	2024-11-08T02:00:00	8	Radiación solar	0
79745	7	Sololá	704	Santa Lucía Utatlán 	7	Santa Rita 	3	Marzo	2023-03-03T00:00:00	2024-11-08T03:00:00	2	Temperatura media	18.1
79746	7	Sololá	704	Santa Lucía Utatlán 	7	Santa Rita 	3	Marzo	2023-03-03T00:00:00	2024-11-08T03:00:00	4	Temperatura máxima	18.3
79747	7	Sololá	704	Santa Lucía Utatlán 	7	Santa Rita 	3	Marzo	2023-03-03T00:00:00	2024-11-08T03:00:00	3	Temperatura mínima	17.4
79748	7	Sololá	704	Santa Lucía Utatlán 	7	Santa Rita 	3	Marzo	2023-03-03T00:00:00	2024-11-08T03:00:00	5	Humedad	39
79749	7	Sololá	704	Santa Lucía Utatlán 	7	Santa Rita 	3	Marzo	2023-03-03T00:00:00	2024-11-08T03:00:00	6	Velocidad del viento	1.6
79750	7	Sololá	704	Santa Lucía Utatlán 	7	Santa Rita 	3	Marzo	2023-03-03T00:00:00	2024-11-08T03:00:00	7	Dirección del viento	1.61
79751	7	Sololá	704	Santa Lucía Utatlán 	7	Santa Rita 	3	Marzo	2023-03-03T00:00:00	2024-11-08T03:00:00	1	Precipitación	0
79752	7	Sololá	704	Santa Lucía Utatlán 	7	Santa Rita 	3	Marzo	2023-03-03T00:00:00	2024-11-08T03:00:00	8	Radiación solar	0
79753	7	Sololá	704	Santa Lucía Utatlán 	7	Santa Rita 	3	Marzo	2023-03-03T00:00:00	2024-11-08T04:00:00	2	Temperatura media	17.6
79754	7	Sololá	704	Santa Lucía Utatlán 	7	Santa Rita 	3	Marzo	2023-03-03T00:00:00	2024-11-08T04:00:00	4	Temperatura máxima	18.1
79755	7	Sololá	704	Santa Lucía Utatlán 	7	Santa Rita 	3	Marzo	2023-03-03T00:00:00	2024-11-08T04:00:00	3	Temperatura mínima	17.3
79756	7	Sololá	704	Santa Lucía Utatlán 	7	Santa Rita 	3	Marzo	2023-03-03T00:00:00	2024-11-08T04:00:00	5	Humedad	41
79757	7	Sololá	704	Santa Lucía Utatlán 	7	Santa Rita 	3	Marzo	2023-03-03T00:00:00	2024-11-08T04:00:00	6	Velocidad del viento	0
79758	7	Sololá	704	Santa Lucía Utatlán 	7	Santa Rita 	3	Marzo	2023-03-03T00:00:00	2024-11-08T04:00:00	7	Dirección del viento	0
79759	7	Sololá	704	Santa Lucía Utatlán 	7	Santa Rita 	3	Marzo	2023-03-03T00:00:00	2024-11-08T04:00:00	1	Precipitación	0
79760	7	Sololá	704	Santa Lucía Utatlán 	7	Santa Rita 	3	Marzo	2023-03-03T00:00:00	2024-11-08T04:00:00	8	Radiación solar	0
79761	7	Sololá	704	Santa Lucía Utatlán 	7	Santa Rita 	3	Marzo	2023-03-03T00:00:00	2024-11-08T05:00:00	2	Temperatura media	18.4
79762	7	Sololá	704	Santa Lucía Utatlán 	7	Santa Rita 	3	Marzo	2023-03-03T00:00:00	2024-11-08T05:00:00	4	Temperatura máxima	18.5
79763	7	Sololá	704	Santa Lucía Utatlán 	7	Santa Rita 	3	Marzo	2023-03-03T00:00:00	2024-11-08T05:00:00	3	Temperatura mínima	17.6
79764	7	Sololá	704	Santa Lucía Utatlán 	7	Santa Rita 	3	Marzo	2023-03-03T00:00:00	2024-11-08T05:00:00	5	Humedad	41
79765	7	Sololá	704	Santa Lucía Utatlán 	7	Santa Rita 	3	Marzo	2023-03-03T00:00:00	2024-11-08T05:00:00	6	Velocidad del viento	0
79766	7	Sololá	704	Santa Lucía Utatlán 	7	Santa Rita 	3	Marzo	2023-03-03T00:00:00	2024-11-08T05:00:00	7	Dirección del viento	0
79767	7	Sololá	704	Santa Lucía Utatlán 	7	Santa Rita 	3	Marzo	2023-03-03T00:00:00	2024-11-08T05:00:00	1	Precipitación	0
79768	7	Sololá	704	Santa Lucía Utatlán 	7	Santa Rita 	3	Marzo	2023-03-03T00:00:00	2024-11-08T05:00:00	8	Radiación solar	0
79769	7	Sololá	704	Santa Lucía Utatlán 	7	Santa Rita 	3	Marzo	2023-03-03T00:00:00	2024-11-08T06:00:00	2	Temperatura media	18.5
79770	7	Sololá	704	Santa Lucía Utatlán 	7	Santa Rita 	3	Marzo	2023-03-03T00:00:00	2024-11-08T06:00:00	4	Temperatura máxima	18.5
79771	7	Sololá	704	Santa Lucía Utatlán 	7	Santa Rita 	3	Marzo	2023-03-03T00:00:00	2024-11-08T06:00:00	3	Temperatura mínima	17.9
79772	7	Sololá	704	Santa Lucía Utatlán 	7	Santa Rita 	3	Marzo	2023-03-03T00:00:00	2024-11-08T06:00:00	5	Humedad	45
79773	7	Sololá	704	Santa Lucía Utatlán 	7	Santa Rita 	3	Marzo	2023-03-03T00:00:00	2024-11-08T06:00:00	6	Velocidad del viento	1.6
79774	7	Sololá	704	Santa Lucía Utatlán 	7	Santa Rita 	3	Marzo	2023-03-03T00:00:00	2024-11-08T06:00:00	7	Dirección del viento	1.61
79775	7	Sololá	704	Santa Lucía Utatlán 	7	Santa Rita 	3	Marzo	2023-03-03T00:00:00	2024-11-08T06:00:00	1	Precipitación	0
79776	7	Sololá	704	Santa Lucía Utatlán 	7	Santa Rita 	3	Marzo	2023-03-03T00:00:00	2024-11-08T06:00:00	8	Radiación solar	0
79777	7	Sololá	704	Santa Lucía Utatlán 	7	Santa Rita 	3	Marzo	2023-03-03T00:00:00	2024-11-08T07:00:00	2	Temperatura media	19.6
79778	7	Sololá	704	Santa Lucía Utatlán 	7	Santa Rita 	3	Marzo	2023-03-03T00:00:00	2024-11-08T07:00:00	4	Temperatura máxima	19.6
79779	7	Sololá	704	Santa Lucía Utatlán 	7	Santa Rita 	3	Marzo	2023-03-03T00:00:00	2024-11-08T07:00:00	3	Temperatura mínima	18.3
79780	7	Sololá	704	Santa Lucía Utatlán 	7	Santa Rita 	3	Marzo	2023-03-03T00:00:00	2024-11-08T07:00:00	5	Humedad	43
79781	7	Sololá	704	Santa Lucía Utatlán 	7	Santa Rita 	3	Marzo	2023-03-03T00:00:00	2024-11-08T07:00:00	6	Velocidad del viento	1.6
79782	7	Sololá	704	Santa Lucía Utatlán 	7	Santa Rita 	3	Marzo	2023-03-03T00:00:00	2024-11-08T07:00:00	7	Dirección del viento	1.61
79783	7	Sololá	704	Santa Lucía Utatlán 	7	Santa Rita 	3	Marzo	2023-03-03T00:00:00	2024-11-08T07:00:00	1	Precipitación	0
79784	7	Sololá	704	Santa Lucía Utatlán 	7	Santa Rita 	3	Marzo	2023-03-03T00:00:00	2024-11-08T07:00:00	8	Radiación solar	8
79785	7	Sololá	704	Santa Lucía Utatlán 	7	Santa Rita 	3	Marzo	2023-03-03T00:00:00	2024-11-08T08:00:00	2	Temperatura media	22.4
79786	7	Sololá	704	Santa Lucía Utatlán 	7	Santa Rita 	3	Marzo	2023-03-03T00:00:00	2024-11-08T08:00:00	4	Temperatura máxima	22.6
79787	7	Sololá	704	Santa Lucía Utatlán 	7	Santa Rita 	3	Marzo	2023-03-03T00:00:00	2024-11-08T08:00:00	3	Temperatura mínima	19.6
79788	7	Sololá	704	Santa Lucía Utatlán 	7	Santa Rita 	3	Marzo	2023-03-03T00:00:00	2024-11-08T08:00:00	5	Humedad	37
79789	7	Sololá	704	Santa Lucía Utatlán 	7	Santa Rita 	3	Marzo	2023-03-03T00:00:00	2024-11-08T08:00:00	6	Velocidad del viento	1.6
79790	7	Sololá	704	Santa Lucía Utatlán 	7	Santa Rita 	3	Marzo	2023-03-03T00:00:00	2024-11-08T08:00:00	7	Dirección del viento	1.61
79791	7	Sololá	704	Santa Lucía Utatlán 	7	Santa Rita 	3	Marzo	2023-03-03T00:00:00	2024-11-08T08:00:00	1	Precipitación	0
79792	7	Sololá	704	Santa Lucía Utatlán 	7	Santa Rita 	3	Marzo	2023-03-03T00:00:00	2024-11-08T08:00:00	8	Radiación solar	195
79793	7	Sololá	704	Santa Lucía Utatlán 	7	Santa Rita 	3	Marzo	2023-03-03T00:00:00	2024-11-08T09:00:00	2	Temperatura media	23.7
79794	7	Sololá	704	Santa Lucía Utatlán 	7	Santa Rita 	3	Marzo	2023-03-03T00:00:00	2024-11-08T09:00:00	4	Temperatura máxima	23.7
79795	7	Sololá	704	Santa Lucía Utatlán 	7	Santa Rita 	3	Marzo	2023-03-03T00:00:00	2024-11-08T09:00:00	3	Temperatura mínima	22.4
79796	7	Sololá	704	Santa Lucía Utatlán 	7	Santa Rita 	3	Marzo	2023-03-03T00:00:00	2024-11-08T09:00:00	5	Humedad	34
79797	7	Sololá	704	Santa Lucía Utatlán 	7	Santa Rita 	3	Marzo	2023-03-03T00:00:00	2024-11-08T09:00:00	6	Velocidad del viento	8
79798	7	Sololá	704	Santa Lucía Utatlán 	7	Santa Rita 	3	Marzo	2023-03-03T00:00:00	2024-11-08T09:00:00	7	Dirección del viento	8.05
79799	7	Sololá	704	Santa Lucía Utatlán 	7	Santa Rita 	3	Marzo	2023-03-03T00:00:00	2024-11-08T09:00:00	1	Precipitación	0
79800	7	Sololá	704	Santa Lucía Utatlán 	7	Santa Rita 	3	Marzo	2023-03-03T00:00:00	2024-11-08T09:00:00	8	Radiación solar	445
79801	7	Sololá	704	Santa Lucía Utatlán 	7	Santa Rita 	3	Marzo	2023-03-03T00:00:00	2024-11-08T10:00:00	2	Temperatura media	25
79802	7	Sololá	704	Santa Lucía Utatlán 	7	Santa Rita 	3	Marzo	2023-03-03T00:00:00	2024-11-08T10:00:00	4	Temperatura máxima	25
79803	7	Sololá	704	Santa Lucía Utatlán 	7	Santa Rita 	3	Marzo	2023-03-03T00:00:00	2024-11-08T10:00:00	3	Temperatura mínima	23.6
79804	7	Sololá	704	Santa Lucía Utatlán 	7	Santa Rita 	3	Marzo	2023-03-03T00:00:00	2024-11-08T10:00:00	5	Humedad	32
79805	7	Sololá	704	Santa Lucía Utatlán 	7	Santa Rita 	3	Marzo	2023-03-03T00:00:00	2024-11-08T10:00:00	6	Velocidad del viento	11.3
79806	7	Sololá	704	Santa Lucía Utatlán 	7	Santa Rita 	3	Marzo	2023-03-03T00:00:00	2024-11-08T10:00:00	7	Dirección del viento	11.27
79807	7	Sololá	704	Santa Lucía Utatlán 	7	Santa Rita 	3	Marzo	2023-03-03T00:00:00	2024-11-08T10:00:00	1	Precipitación	0
79808	7	Sololá	704	Santa Lucía Utatlán 	7	Santa Rita 	3	Marzo	2023-03-03T00:00:00	2024-11-08T10:00:00	8	Radiación solar	608
79809	7	Sololá	704	Santa Lucía Utatlán 	7	Santa Rita 	3	Marzo	2023-03-03T00:00:00	2024-11-08T11:00:00	2	Temperatura media	24.8
79810	7	Sololá	704	Santa Lucía Utatlán 	7	Santa Rita 	3	Marzo	2023-03-03T00:00:00	2024-11-08T11:00:00	4	Temperatura máxima	25.4
79811	7	Sololá	704	Santa Lucía Utatlán 	7	Santa Rita 	3	Marzo	2023-03-03T00:00:00	2024-11-08T11:00:00	3	Temperatura mínima	24.7
79812	7	Sololá	704	Santa Lucía Utatlán 	7	Santa Rita 	3	Marzo	2023-03-03T00:00:00	2024-11-08T11:00:00	5	Humedad	32
79813	7	Sololá	704	Santa Lucía Utatlán 	7	Santa Rita 	3	Marzo	2023-03-03T00:00:00	2024-11-08T11:00:00	6	Velocidad del viento	11.3
79814	7	Sololá	704	Santa Lucía Utatlán 	7	Santa Rita 	3	Marzo	2023-03-03T00:00:00	2024-11-08T11:00:00	7	Dirección del viento	11.27
79815	7	Sololá	704	Santa Lucía Utatlán 	7	Santa Rita 	3	Marzo	2023-03-03T00:00:00	2024-11-08T11:00:00	1	Precipitación	0
79816	7	Sololá	704	Santa Lucía Utatlán 	7	Santa Rita 	3	Marzo	2023-03-03T00:00:00	2024-11-08T11:00:00	8	Radiación solar	698
79817	7	Sololá	704	Santa Lucía Utatlán 	7	Santa Rita 	3	Marzo	2023-03-03T00:00:00	2024-11-08T12:00:00	2	Temperatura media	25.4
79818	7	Sololá	704	Santa Lucía Utatlán 	7	Santa Rita 	3	Marzo	2023-03-03T00:00:00	2024-11-08T12:00:00	4	Temperatura máxima	25.4
79819	7	Sololá	704	Santa Lucía Utatlán 	7	Santa Rita 	3	Marzo	2023-03-03T00:00:00	2024-11-08T12:00:00	3	Temperatura mínima	24.7
79820	7	Sololá	704	Santa Lucía Utatlán 	7	Santa Rita 	3	Marzo	2023-03-03T00:00:00	2024-11-08T12:00:00	5	Humedad	33
79821	7	Sololá	704	Santa Lucía Utatlán 	7	Santa Rita 	3	Marzo	2023-03-03T00:00:00	2024-11-08T12:00:00	6	Velocidad del viento	12.9
79822	7	Sololá	704	Santa Lucía Utatlán 	7	Santa Rita 	3	Marzo	2023-03-03T00:00:00	2024-11-08T12:00:00	7	Dirección del viento	12.87
79823	7	Sololá	704	Santa Lucía Utatlán 	7	Santa Rita 	3	Marzo	2023-03-03T00:00:00	2024-11-08T12:00:00	1	Precipitación	0
79824	7	Sololá	704	Santa Lucía Utatlán 	7	Santa Rita 	3	Marzo	2023-03-03T00:00:00	2024-11-08T12:00:00	8	Radiación solar	918
79825	7	Sololá	704	Santa Lucía Utatlán 	7	Santa Rita 	3	Marzo	2023-03-03T00:00:00	2024-11-08T13:00:00	2	Temperatura media	25.7
79826	7	Sololá	704	Santa Lucía Utatlán 	7	Santa Rita 	3	Marzo	2023-03-03T00:00:00	2024-11-08T13:00:00	4	Temperatura máxima	26.1
79827	7	Sololá	704	Santa Lucía Utatlán 	7	Santa Rita 	3	Marzo	2023-03-03T00:00:00	2024-11-08T13:00:00	3	Temperatura mínima	25.1
79828	7	Sololá	704	Santa Lucía Utatlán 	7	Santa Rita 	3	Marzo	2023-03-03T00:00:00	2024-11-08T13:00:00	5	Humedad	36
79829	7	Sololá	704	Santa Lucía Utatlán 	7	Santa Rita 	3	Marzo	2023-03-03T00:00:00	2024-11-08T13:00:00	6	Velocidad del viento	9.7
79830	7	Sololá	704	Santa Lucía Utatlán 	7	Santa Rita 	3	Marzo	2023-03-03T00:00:00	2024-11-08T13:00:00	7	Dirección del viento	9.66
79831	7	Sololá	704	Santa Lucía Utatlán 	7	Santa Rita 	3	Marzo	2023-03-03T00:00:00	2024-11-08T13:00:00	1	Precipitación	0
79832	7	Sololá	704	Santa Lucía Utatlán 	7	Santa Rita 	3	Marzo	2023-03-03T00:00:00	2024-11-08T13:00:00	8	Radiación solar	911
79833	7	Sololá	704	Santa Lucía Utatlán 	7	Santa Rita 	3	Marzo	2023-03-03T00:00:00	2024-11-08T14:00:00	2	Temperatura media	25.8
79834	7	Sololá	704	Santa Lucía Utatlán 	7	Santa Rita 	3	Marzo	2023-03-03T00:00:00	2024-11-08T14:00:00	4	Temperatura máxima	26.3
79835	7	Sololá	704	Santa Lucía Utatlán 	7	Santa Rita 	3	Marzo	2023-03-03T00:00:00	2024-11-08T14:00:00	3	Temperatura mínima	25.6
79836	7	Sololá	704	Santa Lucía Utatlán 	7	Santa Rita 	3	Marzo	2023-03-03T00:00:00	2024-11-08T14:00:00	5	Humedad	41
79837	7	Sololá	704	Santa Lucía Utatlán 	7	Santa Rita 	3	Marzo	2023-03-03T00:00:00	2024-11-08T14:00:00	6	Velocidad del viento	9.7
79838	7	Sololá	704	Santa Lucía Utatlán 	7	Santa Rita 	3	Marzo	2023-03-03T00:00:00	2024-11-08T14:00:00	7	Dirección del viento	9.66
79839	7	Sololá	704	Santa Lucía Utatlán 	7	Santa Rita 	3	Marzo	2023-03-03T00:00:00	2024-11-08T14:00:00	1	Precipitación	0
79840	7	Sololá	704	Santa Lucía Utatlán 	7	Santa Rita 	3	Marzo	2023-03-03T00:00:00	2024-11-08T14:00:00	8	Radiación solar	823
79841	7	Sololá	704	Santa Lucía Utatlán 	7	Santa Rita 	3	Marzo	2023-03-03T00:00:00	2024-11-08T15:00:00	2	Temperatura media	23.6
79842	7	Sololá	704	Santa Lucía Utatlán 	7	Santa Rita 	3	Marzo	2023-03-03T00:00:00	2024-11-08T15:00:00	4	Temperatura máxima	26.1
79843	7	Sololá	704	Santa Lucía Utatlán 	7	Santa Rita 	3	Marzo	2023-03-03T00:00:00	2024-11-08T15:00:00	3	Temperatura mínima	23.5
79844	7	Sololá	704	Santa Lucía Utatlán 	7	Santa Rita 	3	Marzo	2023-03-03T00:00:00	2024-11-08T15:00:00	5	Humedad	63
79845	7	Sololá	704	Santa Lucía Utatlán 	7	Santa Rita 	3	Marzo	2023-03-03T00:00:00	2024-11-08T15:00:00	6	Velocidad del viento	9.7
79846	7	Sololá	704	Santa Lucía Utatlán 	7	Santa Rita 	3	Marzo	2023-03-03T00:00:00	2024-11-08T15:00:00	7	Dirección del viento	9.66
79847	7	Sololá	704	Santa Lucía Utatlán 	7	Santa Rita 	3	Marzo	2023-03-03T00:00:00	2024-11-08T15:00:00	1	Precipitación	0
79848	7	Sololá	704	Santa Lucía Utatlán 	7	Santa Rita 	3	Marzo	2023-03-03T00:00:00	2024-11-08T15:00:00	8	Radiación solar	751
79849	7	Sololá	704	Santa Lucía Utatlán 	7	Santa Rita 	3	Marzo	2023-03-03T00:00:00	2024-11-08T16:00:00	2	Temperatura media	24.1
79850	7	Sololá	704	Santa Lucía Utatlán 	7	Santa Rita 	3	Marzo	2023-03-03T00:00:00	2024-11-08T16:00:00	4	Temperatura máxima	24.2
79851	7	Sololá	704	Santa Lucía Utatlán 	7	Santa Rita 	3	Marzo	2023-03-03T00:00:00	2024-11-08T16:00:00	3	Temperatura mínima	22.8
79852	7	Sololá	704	Santa Lucía Utatlán 	7	Santa Rita 	3	Marzo	2023-03-03T00:00:00	2024-11-08T16:00:00	5	Humedad	63
79853	7	Sololá	704	Santa Lucía Utatlán 	7	Santa Rita 	3	Marzo	2023-03-03T00:00:00	2024-11-08T16:00:00	6	Velocidad del viento	6.4
79854	7	Sololá	704	Santa Lucía Utatlán 	7	Santa Rita 	3	Marzo	2023-03-03T00:00:00	2024-11-08T16:00:00	7	Dirección del viento	6.44
79855	7	Sololá	704	Santa Lucía Utatlán 	7	Santa Rita 	3	Marzo	2023-03-03T00:00:00	2024-11-08T16:00:00	1	Precipitación	0
79856	7	Sololá	704	Santa Lucía Utatlán 	7	Santa Rita 	3	Marzo	2023-03-03T00:00:00	2024-11-08T16:00:00	8	Radiación solar	577
79857	7	Sololá	704	Santa Lucía Utatlán 	7	Santa Rita 	3	Marzo	2023-03-03T00:00:00	2024-11-08T17:00:00	2	Temperatura media	22.1
79858	7	Sololá	704	Santa Lucía Utatlán 	7	Santa Rita 	3	Marzo	2023-03-03T00:00:00	2024-11-08T17:00:00	4	Temperatura máxima	24.1
79859	7	Sololá	704	Santa Lucía Utatlán 	7	Santa Rita 	3	Marzo	2023-03-03T00:00:00	2024-11-08T17:00:00	3	Temperatura mínima	22.1
79860	7	Sololá	704	Santa Lucía Utatlán 	7	Santa Rita 	3	Marzo	2023-03-03T00:00:00	2024-11-08T17:00:00	5	Humedad	74
79861	7	Sololá	704	Santa Lucía Utatlán 	7	Santa Rita 	3	Marzo	2023-03-03T00:00:00	2024-11-08T17:00:00	6	Velocidad del viento	4.8
79862	7	Sololá	704	Santa Lucía Utatlán 	7	Santa Rita 	3	Marzo	2023-03-03T00:00:00	2024-11-08T17:00:00	7	Dirección del viento	4.83
79863	7	Sololá	704	Santa Lucía Utatlán 	7	Santa Rita 	3	Marzo	2023-03-03T00:00:00	2024-11-08T17:00:00	1	Precipitación	0
79864	7	Sololá	704	Santa Lucía Utatlán 	7	Santa Rita 	3	Marzo	2023-03-03T00:00:00	2024-11-08T17:00:00	8	Radiación solar	342
79865	7	Sololá	704	Santa Lucía Utatlán 	7	Santa Rita 	3	Marzo	2023-03-03T00:00:00	2024-11-08T18:00:00	2	Temperatura media	20.2
79866	7	Sololá	704	Santa Lucía Utatlán 	7	Santa Rita 	3	Marzo	2023-03-03T00:00:00	2024-11-08T18:00:00	4	Temperatura máxima	22.1
79867	7	Sololá	704	Santa Lucía Utatlán 	7	Santa Rita 	3	Marzo	2023-03-03T00:00:00	2024-11-08T18:00:00	3	Temperatura mínima	20.2
79868	7	Sololá	704	Santa Lucía Utatlán 	7	Santa Rita 	3	Marzo	2023-03-03T00:00:00	2024-11-08T18:00:00	5	Humedad	83
79869	7	Sololá	704	Santa Lucía Utatlán 	7	Santa Rita 	3	Marzo	2023-03-03T00:00:00	2024-11-08T18:00:00	6	Velocidad del viento	3.2
79870	7	Sololá	704	Santa Lucía Utatlán 	7	Santa Rita 	3	Marzo	2023-03-03T00:00:00	2024-11-08T18:00:00	7	Dirección del viento	3.22
79871	7	Sololá	704	Santa Lucía Utatlán 	7	Santa Rita 	3	Marzo	2023-03-03T00:00:00	2024-11-08T18:00:00	1	Precipitación	0
79872	7	Sololá	704	Santa Lucía Utatlán 	7	Santa Rita 	3	Marzo	2023-03-03T00:00:00	2024-11-08T18:00:00	8	Radiación solar	82
79873	7	Sololá	704	Santa Lucía Utatlán 	7	Santa Rita 	3	Marzo	2023-03-03T00:00:00	2024-11-08T19:00:00	2	Temperatura media	19.2
79874	7	Sololá	704	Santa Lucía Utatlán 	7	Santa Rita 	3	Marzo	2023-03-03T00:00:00	2024-11-08T19:00:00	4	Temperatura máxima	20.2
79875	7	Sololá	704	Santa Lucía Utatlán 	7	Santa Rita 	3	Marzo	2023-03-03T00:00:00	2024-11-08T19:00:00	3	Temperatura mínima	19.2
79876	7	Sololá	704	Santa Lucía Utatlán 	7	Santa Rita 	3	Marzo	2023-03-03T00:00:00	2024-11-08T19:00:00	5	Humedad	84
79877	7	Sololá	704	Santa Lucía Utatlán 	7	Santa Rita 	3	Marzo	2023-03-03T00:00:00	2024-11-08T19:00:00	6	Velocidad del viento	1.6
79878	7	Sololá	704	Santa Lucía Utatlán 	7	Santa Rita 	3	Marzo	2023-03-03T00:00:00	2024-11-08T19:00:00	7	Dirección del viento	1.61
79879	7	Sololá	704	Santa Lucía Utatlán 	7	Santa Rita 	3	Marzo	2023-03-03T00:00:00	2024-11-08T19:00:00	1	Precipitación	0
79880	7	Sololá	704	Santa Lucía Utatlán 	7	Santa Rita 	3	Marzo	2023-03-03T00:00:00	2024-11-08T19:00:00	8	Radiación solar	0
79881	7	Sololá	704	Santa Lucía Utatlán 	7	Santa Rita 	3	Marzo	2023-03-03T00:00:00	2024-11-08T20:00:00	2	Temperatura media	17.2
79882	7	Sololá	704	Santa Lucía Utatlán 	7	Santa Rita 	3	Marzo	2023-03-03T00:00:00	2024-11-08T20:00:00	4	Temperatura máxima	19.3
79883	7	Sololá	704	Santa Lucía Utatlán 	7	Santa Rita 	3	Marzo	2023-03-03T00:00:00	2024-11-08T20:00:00	3	Temperatura mínima	17.2
79884	7	Sololá	704	Santa Lucía Utatlán 	7	Santa Rita 	3	Marzo	2023-03-03T00:00:00	2024-11-08T20:00:00	5	Humedad	79
79885	7	Sololá	704	Santa Lucía Utatlán 	7	Santa Rita 	3	Marzo	2023-03-03T00:00:00	2024-11-08T20:00:00	6	Velocidad del viento	1.6
79886	7	Sololá	704	Santa Lucía Utatlán 	7	Santa Rita 	3	Marzo	2023-03-03T00:00:00	2024-11-08T20:00:00	7	Dirección del viento	1.61
79887	7	Sololá	704	Santa Lucía Utatlán 	7	Santa Rita 	3	Marzo	2023-03-03T00:00:00	2024-11-08T20:00:00	1	Precipitación	0
79888	7	Sololá	704	Santa Lucía Utatlán 	7	Santa Rita 	3	Marzo	2023-03-03T00:00:00	2024-11-08T20:00:00	8	Radiación solar	0
79889	7	Sololá	704	Santa Lucía Utatlán 	7	Santa Rita 	3	Marzo	2023-03-03T00:00:00	2024-11-08T21:00:00	2	Temperatura media	16.9
79890	7	Sololá	704	Santa Lucía Utatlán 	7	Santa Rita 	3	Marzo	2023-03-03T00:00:00	2024-11-08T21:00:00	4	Temperatura máxima	17.2
79891	7	Sololá	704	Santa Lucía Utatlán 	7	Santa Rita 	3	Marzo	2023-03-03T00:00:00	2024-11-08T21:00:00	3	Temperatura mínima	16.9
79892	7	Sololá	704	Santa Lucía Utatlán 	7	Santa Rita 	3	Marzo	2023-03-03T00:00:00	2024-11-08T21:00:00	5	Humedad	85
79893	7	Sololá	704	Santa Lucía Utatlán 	7	Santa Rita 	3	Marzo	2023-03-03T00:00:00	2024-11-08T21:00:00	6	Velocidad del viento	0
79894	7	Sololá	704	Santa Lucía Utatlán 	7	Santa Rita 	3	Marzo	2023-03-03T00:00:00	2024-11-08T21:00:00	7	Dirección del viento	0
79895	7	Sololá	704	Santa Lucía Utatlán 	7	Santa Rita 	3	Marzo	2023-03-03T00:00:00	2024-11-08T21:00:00	1	Precipitación	0
79896	7	Sololá	704	Santa Lucía Utatlán 	7	Santa Rita 	3	Marzo	2023-03-03T00:00:00	2024-11-08T21:00:00	8	Radiación solar	0
79897	7	Sololá	704	Santa Lucía Utatlán 	7	Santa Rita 	3	Marzo	2023-03-03T00:00:00	2024-11-08T22:00:00	2	Temperatura media	16.3
79898	7	Sololá	704	Santa Lucía Utatlán 	7	Santa Rita 	3	Marzo	2023-03-03T00:00:00	2024-11-08T22:00:00	4	Temperatura máxima	16.9
79899	7	Sololá	704	Santa Lucía Utatlán 	7	Santa Rita 	3	Marzo	2023-03-03T00:00:00	2024-11-08T22:00:00	3	Temperatura mínima	16.2
79900	7	Sololá	704	Santa Lucía Utatlán 	7	Santa Rita 	3	Marzo	2023-03-03T00:00:00	2024-11-08T22:00:00	5	Humedad	87
79901	7	Sololá	704	Santa Lucía Utatlán 	7	Santa Rita 	3	Marzo	2023-03-03T00:00:00	2024-11-08T22:00:00	6	Velocidad del viento	1.6
79902	7	Sololá	704	Santa Lucía Utatlán 	7	Santa Rita 	3	Marzo	2023-03-03T00:00:00	2024-11-08T22:00:00	7	Dirección del viento	1.61
79903	7	Sololá	704	Santa Lucía Utatlán 	7	Santa Rita 	3	Marzo	2023-03-03T00:00:00	2024-11-08T22:00:00	1	Precipitación	0
79904	7	Sololá	704	Santa Lucía Utatlán 	7	Santa Rita 	3	Marzo	2023-03-03T00:00:00	2024-11-08T22:00:00	8	Radiación solar	0
79905	7	Sololá	704	Santa Lucía Utatlán 	7	Santa Rita 	3	Marzo	2023-03-03T00:00:00	2024-11-08T23:00:00	2	Temperatura media	16.9
79906	7	Sololá	704	Santa Lucía Utatlán 	7	Santa Rita 	3	Marzo	2023-03-03T00:00:00	2024-11-08T23:00:00	4	Temperatura máxima	17.1
79907	7	Sololá	704	Santa Lucía Utatlán 	7	Santa Rita 	3	Marzo	2023-03-03T00:00:00	2024-11-08T23:00:00	3	Temperatura mínima	16.1
79908	7	Sololá	704	Santa Lucía Utatlán 	7	Santa Rita 	3	Marzo	2023-03-03T00:00:00	2024-11-08T23:00:00	5	Humedad	70
79909	7	Sololá	704	Santa Lucía Utatlán 	7	Santa Rita 	3	Marzo	2023-03-03T00:00:00	2024-11-08T23:00:00	6	Velocidad del viento	1.6
79910	7	Sololá	704	Santa Lucía Utatlán 	7	Santa Rita 	3	Marzo	2023-03-03T00:00:00	2024-11-08T23:00:00	7	Dirección del viento	1.61
79911	7	Sololá	704	Santa Lucía Utatlán 	7	Santa Rita 	3	Marzo	2023-03-03T00:00:00	2024-11-08T23:00:00	1	Precipitación	0
79912	7	Sololá	704	Santa Lucía Utatlán 	7	Santa Rita 	3	Marzo	2023-03-03T00:00:00	2024-11-08T23:00:00	8	Radiación solar	0
79913	7	Sololá	704	Santa Lucía Utatlán 	7	Santa Rita 	3	Marzo	2023-04-03T00:00:00	2024-11-08T00:00:00	2	Temperatura media	17.1
79914	7	Sololá	704	Santa Lucía Utatlán 	7	Santa Rita 	3	Marzo	2023-04-03T00:00:00	2024-11-08T00:00:00	4	Temperatura máxima	17.3
79915	7	Sololá	704	Santa Lucía Utatlán 	7	Santa Rita 	3	Marzo	2023-04-03T00:00:00	2024-11-08T00:00:00	3	Temperatura mínima	16.9
79916	7	Sololá	704	Santa Lucía Utatlán 	7	Santa Rita 	3	Marzo	2023-04-03T00:00:00	2024-11-08T00:00:00	5	Humedad	65
79917	7	Sololá	704	Santa Lucía Utatlán 	7	Santa Rita 	3	Marzo	2023-04-03T00:00:00	2024-11-08T00:00:00	6	Velocidad del viento	3.2
79918	7	Sololá	704	Santa Lucía Utatlán 	7	Santa Rita 	3	Marzo	2023-04-03T00:00:00	2024-11-08T00:00:00	7	Dirección del viento	3.22
79919	7	Sololá	704	Santa Lucía Utatlán 	7	Santa Rita 	3	Marzo	2023-04-03T00:00:00	2024-11-08T00:00:00	1	Precipitación	0
79920	7	Sololá	704	Santa Lucía Utatlán 	7	Santa Rita 	3	Marzo	2023-04-03T00:00:00	2024-11-08T00:00:00	8	Radiación solar	0
79921	7	Sololá	704	Santa Lucía Utatlán 	7	Santa Rita 	3	Marzo	2023-04-03T00:00:00	2024-11-08T01:00:00	2	Temperatura media	17.7
79922	7	Sololá	704	Santa Lucía Utatlán 	7	Santa Rita 	3	Marzo	2023-04-03T00:00:00	2024-11-08T01:00:00	4	Temperatura máxima	17.7
79923	7	Sololá	704	Santa Lucía Utatlán 	7	Santa Rita 	3	Marzo	2023-04-03T00:00:00	2024-11-08T01:00:00	3	Temperatura mínima	17.1
79924	7	Sololá	704	Santa Lucía Utatlán 	7	Santa Rita 	3	Marzo	2023-04-03T00:00:00	2024-11-08T01:00:00	5	Humedad	61
79925	7	Sololá	704	Santa Lucía Utatlán 	7	Santa Rita 	3	Marzo	2023-04-03T00:00:00	2024-11-08T01:00:00	6	Velocidad del viento	4.8
79926	7	Sololá	704	Santa Lucía Utatlán 	7	Santa Rita 	3	Marzo	2023-04-03T00:00:00	2024-11-08T01:00:00	7	Dirección del viento	4.83
79927	7	Sololá	704	Santa Lucía Utatlán 	7	Santa Rita 	3	Marzo	2023-04-03T00:00:00	2024-11-08T01:00:00	1	Precipitación	0
79928	7	Sololá	704	Santa Lucía Utatlán 	7	Santa Rita 	3	Marzo	2023-04-03T00:00:00	2024-11-08T01:00:00	8	Radiación solar	0
79929	7	Sololá	704	Santa Lucía Utatlán 	7	Santa Rita 	3	Marzo	2023-04-03T00:00:00	2024-11-08T02:00:00	2	Temperatura media	17.1
79930	7	Sololá	704	Santa Lucía Utatlán 	7	Santa Rita 	3	Marzo	2023-04-03T00:00:00	2024-11-08T02:00:00	4	Temperatura máxima	17.7
79931	7	Sololá	704	Santa Lucía Utatlán 	7	Santa Rita 	3	Marzo	2023-04-03T00:00:00	2024-11-08T02:00:00	3	Temperatura mínima	16.9
79932	7	Sololá	704	Santa Lucía Utatlán 	7	Santa Rita 	3	Marzo	2023-04-03T00:00:00	2024-11-08T02:00:00	5	Humedad	60
79933	7	Sololá	704	Santa Lucía Utatlán 	7	Santa Rita 	3	Marzo	2023-04-03T00:00:00	2024-11-08T02:00:00	6	Velocidad del viento	3.2
79934	7	Sololá	704	Santa Lucía Utatlán 	7	Santa Rita 	3	Marzo	2023-04-03T00:00:00	2024-11-08T02:00:00	7	Dirección del viento	3.22
79935	7	Sololá	704	Santa Lucía Utatlán 	7	Santa Rita 	3	Marzo	2023-04-03T00:00:00	2024-11-08T02:00:00	1	Precipitación	0
79936	7	Sololá	704	Santa Lucía Utatlán 	7	Santa Rita 	3	Marzo	2023-04-03T00:00:00	2024-11-08T02:00:00	8	Radiación solar	0
79937	7	Sololá	704	Santa Lucía Utatlán 	7	Santa Rita 	3	Marzo	2023-04-03T00:00:00	2024-11-08T03:00:00	2	Temperatura media	17
79938	7	Sololá	704	Santa Lucía Utatlán 	7	Santa Rita 	3	Marzo	2023-04-03T00:00:00	2024-11-08T03:00:00	4	Temperatura máxima	17.2
79939	7	Sololá	704	Santa Lucía Utatlán 	7	Santa Rita 	3	Marzo	2023-04-03T00:00:00	2024-11-08T03:00:00	3	Temperatura mínima	16.9
79940	7	Sololá	704	Santa Lucía Utatlán 	7	Santa Rita 	3	Marzo	2023-04-03T00:00:00	2024-11-08T03:00:00	5	Humedad	61
79941	7	Sololá	704	Santa Lucía Utatlán 	7	Santa Rita 	3	Marzo	2023-04-03T00:00:00	2024-11-08T03:00:00	6	Velocidad del viento	4.8
79942	7	Sololá	704	Santa Lucía Utatlán 	7	Santa Rita 	3	Marzo	2023-04-03T00:00:00	2024-11-08T03:00:00	7	Dirección del viento	4.83
79943	7	Sololá	704	Santa Lucía Utatlán 	7	Santa Rita 	3	Marzo	2023-04-03T00:00:00	2024-11-08T03:00:00	1	Precipitación	0
79944	7	Sololá	704	Santa Lucía Utatlán 	7	Santa Rita 	3	Marzo	2023-04-03T00:00:00	2024-11-08T03:00:00	8	Radiación solar	0
79945	7	Sololá	704	Santa Lucía Utatlán 	7	Santa Rita 	3	Marzo	2023-04-03T00:00:00	2024-11-08T04:00:00	2	Temperatura media	16.8
79946	7	Sololá	704	Santa Lucía Utatlán 	7	Santa Rita 	3	Marzo	2023-04-03T00:00:00	2024-11-08T04:00:00	4	Temperatura máxima	17.3
79947	7	Sololá	704	Santa Lucía Utatlán 	7	Santa Rita 	3	Marzo	2023-04-03T00:00:00	2024-11-08T04:00:00	3	Temperatura mínima	16.7
79948	7	Sololá	704	Santa Lucía Utatlán 	7	Santa Rita 	3	Marzo	2023-04-03T00:00:00	2024-11-08T04:00:00	5	Humedad	61
79949	7	Sololá	704	Santa Lucía Utatlán 	7	Santa Rita 	3	Marzo	2023-04-03T00:00:00	2024-11-08T04:00:00	6	Velocidad del viento	4.8
79950	7	Sololá	704	Santa Lucía Utatlán 	7	Santa Rita 	3	Marzo	2023-04-03T00:00:00	2024-11-08T04:00:00	7	Dirección del viento	4.83
79951	7	Sololá	704	Santa Lucía Utatlán 	7	Santa Rita 	3	Marzo	2023-04-03T00:00:00	2024-11-08T04:00:00	1	Precipitación	0
79952	7	Sololá	704	Santa Lucía Utatlán 	7	Santa Rita 	3	Marzo	2023-04-03T00:00:00	2024-11-08T04:00:00	8	Radiación solar	0
79953	7	Sololá	704	Santa Lucía Utatlán 	7	Santa Rita 	3	Marzo	2023-04-03T00:00:00	2024-11-08T05:00:00	2	Temperatura media	16.9
79954	7	Sololá	704	Santa Lucía Utatlán 	7	Santa Rita 	3	Marzo	2023-04-03T00:00:00	2024-11-08T05:00:00	4	Temperatura máxima	17.1
79955	7	Sololá	704	Santa Lucía Utatlán 	7	Santa Rita 	3	Marzo	2023-04-03T00:00:00	2024-11-08T05:00:00	3	Temperatura mínima	16.7
79956	7	Sololá	704	Santa Lucía Utatlán 	7	Santa Rita 	3	Marzo	2023-04-03T00:00:00	2024-11-08T05:00:00	5	Humedad	59
79957	7	Sololá	704	Santa Lucía Utatlán 	7	Santa Rita 	3	Marzo	2023-04-03T00:00:00	2024-11-08T05:00:00	6	Velocidad del viento	4.8
79958	7	Sololá	704	Santa Lucía Utatlán 	7	Santa Rita 	3	Marzo	2023-04-03T00:00:00	2024-11-08T05:00:00	7	Dirección del viento	4.83
79959	7	Sololá	704	Santa Lucía Utatlán 	7	Santa Rita 	3	Marzo	2023-04-03T00:00:00	2024-11-08T05:00:00	1	Precipitación	0
79960	7	Sololá	704	Santa Lucía Utatlán 	7	Santa Rita 	3	Marzo	2023-04-03T00:00:00	2024-11-08T05:00:00	8	Radiación solar	0
79961	7	Sololá	704	Santa Lucía Utatlán 	7	Santa Rita 	3	Marzo	2023-04-03T00:00:00	2024-11-08T06:00:00	2	Temperatura media	16.4
79962	7	Sololá	704	Santa Lucía Utatlán 	7	Santa Rita 	3	Marzo	2023-04-03T00:00:00	2024-11-08T06:00:00	4	Temperatura máxima	16.9
79963	7	Sololá	704	Santa Lucía Utatlán 	7	Santa Rita 	3	Marzo	2023-04-03T00:00:00	2024-11-08T06:00:00	3	Temperatura mínima	16.3
79964	7	Sololá	704	Santa Lucía Utatlán 	7	Santa Rita 	3	Marzo	2023-04-03T00:00:00	2024-11-08T06:00:00	5	Humedad	60
79965	7	Sololá	704	Santa Lucía Utatlán 	7	Santa Rita 	3	Marzo	2023-04-03T00:00:00	2024-11-08T06:00:00	6	Velocidad del viento	3.2
79966	7	Sololá	704	Santa Lucía Utatlán 	7	Santa Rita 	3	Marzo	2023-04-03T00:00:00	2024-11-08T06:00:00	7	Dirección del viento	3.22
79967	7	Sololá	704	Santa Lucía Utatlán 	7	Santa Rita 	3	Marzo	2023-04-03T00:00:00	2024-11-08T06:00:00	1	Precipitación	0
79968	7	Sololá	704	Santa Lucía Utatlán 	7	Santa Rita 	3	Marzo	2023-04-03T00:00:00	2024-11-08T06:00:00	8	Radiación solar	0
79969	7	Sololá	704	Santa Lucía Utatlán 	7	Santa Rita 	3	Marzo	2023-04-03T00:00:00	2024-11-08T07:00:00	2	Temperatura media	16.8
79970	7	Sololá	704	Santa Lucía Utatlán 	7	Santa Rita 	3	Marzo	2023-04-03T00:00:00	2024-11-08T07:00:00	4	Temperatura máxima	16.8
79971	7	Sololá	704	Santa Lucía Utatlán 	7	Santa Rita 	3	Marzo	2023-04-03T00:00:00	2024-11-08T07:00:00	3	Temperatura mínima	16.3
79972	7	Sololá	704	Santa Lucía Utatlán 	7	Santa Rita 	3	Marzo	2023-04-03T00:00:00	2024-11-08T07:00:00	5	Humedad	59
79973	7	Sololá	704	Santa Lucía Utatlán 	7	Santa Rita 	3	Marzo	2023-04-03T00:00:00	2024-11-08T07:00:00	6	Velocidad del viento	3.2
79974	7	Sololá	704	Santa Lucía Utatlán 	7	Santa Rita 	3	Marzo	2023-04-03T00:00:00	2024-11-08T07:00:00	7	Dirección del viento	3.22
79975	7	Sololá	704	Santa Lucía Utatlán 	7	Santa Rita 	3	Marzo	2023-04-03T00:00:00	2024-11-08T07:00:00	1	Precipitación	0
79976	7	Sololá	704	Santa Lucía Utatlán 	7	Santa Rita 	3	Marzo	2023-04-03T00:00:00	2024-11-08T07:00:00	8	Radiación solar	11
79977	7	Sololá	704	Santa Lucía Utatlán 	7	Santa Rita 	3	Marzo	2023-04-03T00:00:00	2024-11-08T08:00:00	2	Temperatura media	21.6
79978	7	Sololá	704	Santa Lucía Utatlán 	7	Santa Rita 	3	Marzo	2023-04-03T00:00:00	2024-11-08T08:00:00	4	Temperatura máxima	21.6
79979	7	Sololá	704	Santa Lucía Utatlán 	7	Santa Rita 	3	Marzo	2023-04-03T00:00:00	2024-11-08T08:00:00	3	Temperatura mínima	16.8
79980	7	Sololá	704	Santa Lucía Utatlán 	7	Santa Rita 	3	Marzo	2023-04-03T00:00:00	2024-11-08T08:00:00	5	Humedad	47
79981	7	Sololá	704	Santa Lucía Utatlán 	7	Santa Rita 	3	Marzo	2023-04-03T00:00:00	2024-11-08T08:00:00	6	Velocidad del viento	0
79982	7	Sololá	704	Santa Lucía Utatlán 	7	Santa Rita 	3	Marzo	2023-04-03T00:00:00	2024-11-08T08:00:00	7	Dirección del viento	0
79983	7	Sololá	704	Santa Lucía Utatlán 	7	Santa Rita 	3	Marzo	2023-04-03T00:00:00	2024-11-08T08:00:00	1	Precipitación	0
79984	7	Sololá	704	Santa Lucía Utatlán 	7	Santa Rita 	3	Marzo	2023-04-03T00:00:00	2024-11-08T08:00:00	8	Radiación solar	186
79985	7	Sololá	704	Santa Lucía Utatlán 	7	Santa Rita 	3	Marzo	2023-04-03T00:00:00	2024-11-08T09:00:00	2	Temperatura media	24.4
79986	7	Sololá	704	Santa Lucía Utatlán 	7	Santa Rita 	3	Marzo	2023-04-03T00:00:00	2024-11-08T09:00:00	4	Temperatura máxima	24.4
79987	7	Sololá	704	Santa Lucía Utatlán 	7	Santa Rita 	3	Marzo	2023-04-03T00:00:00	2024-11-08T09:00:00	3	Temperatura mínima	21.6
79988	7	Sololá	704	Santa Lucía Utatlán 	7	Santa Rita 	3	Marzo	2023-04-03T00:00:00	2024-11-08T09:00:00	5	Humedad	46
79989	7	Sololá	704	Santa Lucía Utatlán 	7	Santa Rita 	3	Marzo	2023-04-03T00:00:00	2024-11-08T09:00:00	6	Velocidad del viento	3.2
79990	7	Sololá	704	Santa Lucía Utatlán 	7	Santa Rita 	3	Marzo	2023-04-03T00:00:00	2024-11-08T09:00:00	7	Dirección del viento	3.22
79991	7	Sololá	704	Santa Lucía Utatlán 	7	Santa Rita 	3	Marzo	2023-04-03T00:00:00	2024-11-08T09:00:00	1	Precipitación	0
79992	7	Sololá	704	Santa Lucía Utatlán 	7	Santa Rita 	3	Marzo	2023-04-03T00:00:00	2024-11-08T09:00:00	8	Radiación solar	427
79993	7	Sololá	704	Santa Lucía Utatlán 	7	Santa Rita 	3	Marzo	2023-04-03T00:00:00	2024-11-08T10:00:00	2	Temperatura media	26.3
79994	7	Sololá	704	Santa Lucía Utatlán 	7	Santa Rita 	3	Marzo	2023-04-03T00:00:00	2024-11-08T10:00:00	4	Temperatura máxima	26.3
79995	7	Sololá	704	Santa Lucía Utatlán 	7	Santa Rita 	3	Marzo	2023-04-03T00:00:00	2024-11-08T10:00:00	3	Temperatura mínima	24.1
79996	7	Sololá	704	Santa Lucía Utatlán 	7	Santa Rita 	3	Marzo	2023-04-03T00:00:00	2024-11-08T10:00:00	5	Humedad	34
79997	7	Sololá	704	Santa Lucía Utatlán 	7	Santa Rita 	3	Marzo	2023-04-03T00:00:00	2024-11-08T10:00:00	6	Velocidad del viento	4.8
79998	7	Sololá	704	Santa Lucía Utatlán 	7	Santa Rita 	3	Marzo	2023-04-03T00:00:00	2024-11-08T10:00:00	7	Dirección del viento	4.83
79999	7	Sololá	704	Santa Lucía Utatlán 	7	Santa Rita 	3	Marzo	2023-04-03T00:00:00	2024-11-08T10:00:00	1	Precipitación	0
80000	7	Sololá	704	Santa Lucía Utatlán 	7	Santa Rita 	3	Marzo	2023-04-03T00:00:00	2024-11-08T10:00:00	8	Radiación solar	599
80001	7	Sololá	704	Santa Lucía Utatlán 	7	Santa Rita 	3	Marzo	2023-04-03T00:00:00	2024-11-08T11:00:00	2	Temperatura media	26.4
80002	7	Sololá	704	Santa Lucía Utatlán 	7	Santa Rita 	3	Marzo	2023-04-03T00:00:00	2024-11-08T11:00:00	4	Temperatura máxima	26.9
80003	7	Sololá	704	Santa Lucía Utatlán 	7	Santa Rita 	3	Marzo	2023-04-03T00:00:00	2024-11-08T11:00:00	3	Temperatura mínima	26.1
80004	7	Sololá	704	Santa Lucía Utatlán 	7	Santa Rita 	3	Marzo	2023-04-03T00:00:00	2024-11-08T11:00:00	5	Humedad	39
80005	7	Sololá	704	Santa Lucía Utatlán 	7	Santa Rita 	3	Marzo	2023-04-03T00:00:00	2024-11-08T11:00:00	6	Velocidad del viento	8
80006	7	Sololá	704	Santa Lucía Utatlán 	7	Santa Rita 	3	Marzo	2023-04-03T00:00:00	2024-11-08T11:00:00	7	Dirección del viento	8.05
80007	7	Sololá	704	Santa Lucía Utatlán 	7	Santa Rita 	3	Marzo	2023-04-03T00:00:00	2024-11-08T11:00:00	1	Precipitación	0
80008	7	Sololá	704	Santa Lucía Utatlán 	7	Santa Rita 	3	Marzo	2023-04-03T00:00:00	2024-11-08T11:00:00	8	Radiación solar	687
80009	7	Sololá	704	Santa Lucía Utatlán 	7	Santa Rita 	3	Marzo	2023-04-03T00:00:00	2024-11-08T12:00:00	2	Temperatura media	26.6
80010	7	Sololá	704	Santa Lucía Utatlán 	7	Santa Rita 	3	Marzo	2023-04-03T00:00:00	2024-11-08T12:00:00	4	Temperatura máxima	27.1
80011	7	Sololá	704	Santa Lucía Utatlán 	7	Santa Rita 	3	Marzo	2023-04-03T00:00:00	2024-11-08T12:00:00	3	Temperatura mínima	26.2
80012	7	Sololá	704	Santa Lucía Utatlán 	7	Santa Rita 	3	Marzo	2023-04-03T00:00:00	2024-11-08T12:00:00	5	Humedad	40
80013	7	Sololá	704	Santa Lucía Utatlán 	7	Santa Rita 	3	Marzo	2023-04-03T00:00:00	2024-11-08T12:00:00	6	Velocidad del viento	6.4
80014	7	Sololá	704	Santa Lucía Utatlán 	7	Santa Rita 	3	Marzo	2023-04-03T00:00:00	2024-11-08T12:00:00	7	Dirección del viento	6.44
80015	7	Sololá	704	Santa Lucía Utatlán 	7	Santa Rita 	3	Marzo	2023-04-03T00:00:00	2024-11-08T12:00:00	1	Precipitación	0
80016	7	Sololá	704	Santa Lucía Utatlán 	7	Santa Rita 	3	Marzo	2023-04-03T00:00:00	2024-11-08T12:00:00	8	Radiación solar	907
80017	7	Sololá	704	Santa Lucía Utatlán 	7	Santa Rita 	3	Marzo	2023-04-03T00:00:00	2024-11-08T13:00:00	2	Temperatura media	26.8
80018	7	Sololá	704	Santa Lucía Utatlán 	7	Santa Rita 	3	Marzo	2023-04-03T00:00:00	2024-11-08T13:00:00	4	Temperatura máxima	27.3
80019	7	Sololá	704	Santa Lucía Utatlán 	7	Santa Rita 	3	Marzo	2023-04-03T00:00:00	2024-11-08T13:00:00	3	Temperatura mínima	26.6
80020	7	Sololá	704	Santa Lucía Utatlán 	7	Santa Rita 	3	Marzo	2023-04-03T00:00:00	2024-11-08T13:00:00	5	Humedad	47
80021	7	Sololá	704	Santa Lucía Utatlán 	7	Santa Rita 	3	Marzo	2023-04-03T00:00:00	2024-11-08T13:00:00	6	Velocidad del viento	8
80022	7	Sololá	704	Santa Lucía Utatlán 	7	Santa Rita 	3	Marzo	2023-04-03T00:00:00	2024-11-08T13:00:00	7	Dirección del viento	8.05
80023	7	Sololá	704	Santa Lucía Utatlán 	7	Santa Rita 	3	Marzo	2023-04-03T00:00:00	2024-11-08T13:00:00	1	Precipitación	0
80024	7	Sololá	704	Santa Lucía Utatlán 	7	Santa Rita 	3	Marzo	2023-04-03T00:00:00	2024-11-08T13:00:00	8	Radiación solar	951
80025	7	Sololá	704	Santa Lucía Utatlán 	7	Santa Rita 	3	Marzo	2023-04-03T00:00:00	2024-11-08T14:00:00	2	Temperatura media	24.5
80026	7	Sololá	704	Santa Lucía Utatlán 	7	Santa Rita 	3	Marzo	2023-04-03T00:00:00	2024-11-08T14:00:00	4	Temperatura máxima	27.1
80027	7	Sololá	704	Santa Lucía Utatlán 	7	Santa Rita 	3	Marzo	2023-04-03T00:00:00	2024-11-08T14:00:00	3	Temperatura mínima	24.5
80028	7	Sololá	704	Santa Lucía Utatlán 	7	Santa Rita 	3	Marzo	2023-04-03T00:00:00	2024-11-08T14:00:00	5	Humedad	53
80029	7	Sololá	704	Santa Lucía Utatlán 	7	Santa Rita 	3	Marzo	2023-04-03T00:00:00	2024-11-08T14:00:00	6	Velocidad del viento	8
80030	7	Sololá	704	Santa Lucía Utatlán 	7	Santa Rita 	3	Marzo	2023-04-03T00:00:00	2024-11-08T14:00:00	7	Dirección del viento	8.05
80031	7	Sololá	704	Santa Lucía Utatlán 	7	Santa Rita 	3	Marzo	2023-04-03T00:00:00	2024-11-08T14:00:00	1	Precipitación	0
80032	7	Sololá	704	Santa Lucía Utatlán 	7	Santa Rita 	3	Marzo	2023-04-03T00:00:00	2024-11-08T14:00:00	8	Radiación solar	230
80033	7	Sololá	704	Santa Lucía Utatlán 	7	Santa Rita 	3	Marzo	2023-04-03T00:00:00	2024-11-08T15:00:00	2	Temperatura media	23.4
80034	7	Sololá	704	Santa Lucía Utatlán 	7	Santa Rita 	3	Marzo	2023-04-03T00:00:00	2024-11-08T15:00:00	4	Temperatura máxima	24.5
80035	7	Sololá	704	Santa Lucía Utatlán 	7	Santa Rita 	3	Marzo	2023-04-03T00:00:00	2024-11-08T15:00:00	3	Temperatura mínima	23.2
80036	7	Sololá	704	Santa Lucía Utatlán 	7	Santa Rita 	3	Marzo	2023-04-03T00:00:00	2024-11-08T15:00:00	5	Humedad	70
80037	7	Sololá	704	Santa Lucía Utatlán 	7	Santa Rita 	3	Marzo	2023-04-03T00:00:00	2024-11-08T15:00:00	6	Velocidad del viento	6.4
80038	7	Sololá	704	Santa Lucía Utatlán 	7	Santa Rita 	3	Marzo	2023-04-03T00:00:00	2024-11-08T15:00:00	7	Dirección del viento	6.44
80039	7	Sololá	704	Santa Lucía Utatlán 	7	Santa Rita 	3	Marzo	2023-04-03T00:00:00	2024-11-08T15:00:00	1	Precipitación	0
80040	7	Sololá	704	Santa Lucía Utatlán 	7	Santa Rita 	3	Marzo	2023-04-03T00:00:00	2024-11-08T15:00:00	8	Radiación solar	144
80041	7	Sololá	704	Santa Lucía Utatlán 	7	Santa Rita 	3	Marzo	2023-04-03T00:00:00	2024-11-08T16:00:00	2	Temperatura media	22.4
80042	7	Sololá	704	Santa Lucía Utatlán 	7	Santa Rita 	3	Marzo	2023-04-03T00:00:00	2024-11-08T16:00:00	4	Temperatura máxima	23.6
80043	7	Sololá	704	Santa Lucía Utatlán 	7	Santa Rita 	3	Marzo	2023-04-03T00:00:00	2024-11-08T16:00:00	3	Temperatura mínima	22.4
80044	7	Sololá	704	Santa Lucía Utatlán 	7	Santa Rita 	3	Marzo	2023-04-03T00:00:00	2024-11-08T16:00:00	5	Humedad	76
80045	7	Sololá	704	Santa Lucía Utatlán 	7	Santa Rita 	3	Marzo	2023-04-03T00:00:00	2024-11-08T16:00:00	6	Velocidad del viento	6.4
80046	7	Sololá	704	Santa Lucía Utatlán 	7	Santa Rita 	3	Marzo	2023-04-03T00:00:00	2024-11-08T16:00:00	7	Dirección del viento	6.44
80047	7	Sololá	704	Santa Lucía Utatlán 	7	Santa Rita 	3	Marzo	2023-04-03T00:00:00	2024-11-08T16:00:00	1	Precipitación	0
80048	7	Sololá	704	Santa Lucía Utatlán 	7	Santa Rita 	3	Marzo	2023-04-03T00:00:00	2024-11-08T16:00:00	8	Radiación solar	192
80049	7	Sololá	704	Santa Lucía Utatlán 	7	Santa Rita 	3	Marzo	2023-04-03T00:00:00	2024-11-08T17:00:00	2	Temperatura media	22.1
80050	7	Sololá	704	Santa Lucía Utatlán 	7	Santa Rita 	3	Marzo	2023-04-03T00:00:00	2024-11-08T17:00:00	4	Temperatura máxima	22.8
80051	7	Sololá	704	Santa Lucía Utatlán 	7	Santa Rita 	3	Marzo	2023-04-03T00:00:00	2024-11-08T17:00:00	3	Temperatura mínima	21.9
80052	7	Sololá	704	Santa Lucía Utatlán 	7	Santa Rita 	3	Marzo	2023-04-03T00:00:00	2024-11-08T17:00:00	5	Humedad	78
80053	7	Sololá	704	Santa Lucía Utatlán 	7	Santa Rita 	3	Marzo	2023-04-03T00:00:00	2024-11-08T17:00:00	6	Velocidad del viento	3.2
80054	7	Sololá	704	Santa Lucía Utatlán 	7	Santa Rita 	3	Marzo	2023-04-03T00:00:00	2024-11-08T17:00:00	7	Dirección del viento	3.22
80055	7	Sololá	704	Santa Lucía Utatlán 	7	Santa Rita 	3	Marzo	2023-04-03T00:00:00	2024-11-08T17:00:00	1	Precipitación	0
80056	7	Sololá	704	Santa Lucía Utatlán 	7	Santa Rita 	3	Marzo	2023-04-03T00:00:00	2024-11-08T17:00:00	8	Radiación solar	111
80057	7	Sololá	704	Santa Lucía Utatlán 	7	Santa Rita 	3	Marzo	2023-04-03T00:00:00	2024-11-08T18:00:00	2	Temperatura media	20.9
80058	7	Sololá	704	Santa Lucía Utatlán 	7	Santa Rita 	3	Marzo	2023-04-03T00:00:00	2024-11-08T18:00:00	4	Temperatura máxima	22.1
80059	7	Sololá	704	Santa Lucía Utatlán 	7	Santa Rita 	3	Marzo	2023-04-03T00:00:00	2024-11-08T18:00:00	3	Temperatura mínima	20.9
80060	7	Sololá	704	Santa Lucía Utatlán 	7	Santa Rita 	3	Marzo	2023-04-03T00:00:00	2024-11-08T18:00:00	5	Humedad	83
80061	7	Sololá	704	Santa Lucía Utatlán 	7	Santa Rita 	3	Marzo	2023-04-03T00:00:00	2024-11-08T18:00:00	6	Velocidad del viento	0
80062	7	Sololá	704	Santa Lucía Utatlán 	7	Santa Rita 	3	Marzo	2023-04-03T00:00:00	2024-11-08T18:00:00	7	Dirección del viento	0
80063	7	Sololá	704	Santa Lucía Utatlán 	7	Santa Rita 	3	Marzo	2023-04-03T00:00:00	2024-11-08T18:00:00	1	Precipitación	0
80064	7	Sololá	704	Santa Lucía Utatlán 	7	Santa Rita 	3	Marzo	2023-04-03T00:00:00	2024-11-08T18:00:00	8	Radiación solar	31
80065	7	Sololá	704	Santa Lucía Utatlán 	7	Santa Rita 	3	Marzo	2023-04-03T00:00:00	2024-11-08T19:00:00	2	Temperatura media	19.3
80066	7	Sololá	704	Santa Lucía Utatlán 	7	Santa Rita 	3	Marzo	2023-04-03T00:00:00	2024-11-08T19:00:00	4	Temperatura máxima	20.9
80067	7	Sololá	704	Santa Lucía Utatlán 	7	Santa Rita 	3	Marzo	2023-04-03T00:00:00	2024-11-08T19:00:00	3	Temperatura mínima	19.2
80068	7	Sololá	704	Santa Lucía Utatlán 	7	Santa Rita 	3	Marzo	2023-04-03T00:00:00	2024-11-08T19:00:00	5	Humedad	81
80069	7	Sololá	704	Santa Lucía Utatlán 	7	Santa Rita 	3	Marzo	2023-04-03T00:00:00	2024-11-08T19:00:00	6	Velocidad del viento	1.6
80070	7	Sololá	704	Santa Lucía Utatlán 	7	Santa Rita 	3	Marzo	2023-04-03T00:00:00	2024-11-08T19:00:00	7	Dirección del viento	1.61
80071	7	Sololá	704	Santa Lucía Utatlán 	7	Santa Rita 	3	Marzo	2023-04-03T00:00:00	2024-11-08T19:00:00	1	Precipitación	0
80072	7	Sololá	704	Santa Lucía Utatlán 	7	Santa Rita 	3	Marzo	2023-04-03T00:00:00	2024-11-08T19:00:00	8	Radiación solar	0
80073	7	Sololá	704	Santa Lucía Utatlán 	7	Santa Rita 	3	Marzo	2023-04-03T00:00:00	2024-11-08T20:00:00	2	Temperatura media	20.6
80074	7	Sololá	704	Santa Lucía Utatlán 	7	Santa Rita 	3	Marzo	2023-04-03T00:00:00	2024-11-08T20:00:00	4	Temperatura máxima	20.7
80075	7	Sololá	704	Santa Lucía Utatlán 	7	Santa Rita 	3	Marzo	2023-04-03T00:00:00	2024-11-08T20:00:00	3	Temperatura mínima	19.3
80076	7	Sololá	704	Santa Lucía Utatlán 	7	Santa Rita 	3	Marzo	2023-04-03T00:00:00	2024-11-08T20:00:00	5	Humedad	73
80077	7	Sololá	704	Santa Lucía Utatlán 	7	Santa Rita 	3	Marzo	2023-04-03T00:00:00	2024-11-08T20:00:00	6	Velocidad del viento	0
80078	7	Sololá	704	Santa Lucía Utatlán 	7	Santa Rita 	3	Marzo	2023-04-03T00:00:00	2024-11-08T20:00:00	7	Dirección del viento	0
80079	7	Sololá	704	Santa Lucía Utatlán 	7	Santa Rita 	3	Marzo	2023-04-03T00:00:00	2024-11-08T20:00:00	1	Precipitación	0
80080	7	Sololá	704	Santa Lucía Utatlán 	7	Santa Rita 	3	Marzo	2023-04-03T00:00:00	2024-11-08T20:00:00	8	Radiación solar	0
80081	7	Sololá	704	Santa Lucía Utatlán 	7	Santa Rita 	3	Marzo	2023-04-03T00:00:00	2024-11-08T21:00:00	2	Temperatura media	20.1
80082	7	Sololá	704	Santa Lucía Utatlán 	7	Santa Rita 	3	Marzo	2023-04-03T00:00:00	2024-11-08T21:00:00	4	Temperatura máxima	20.7
80083	7	Sololá	704	Santa Lucía Utatlán 	7	Santa Rita 	3	Marzo	2023-04-03T00:00:00	2024-11-08T21:00:00	3	Temperatura mínima	19.9
80084	7	Sololá	704	Santa Lucía Utatlán 	7	Santa Rita 	3	Marzo	2023-04-03T00:00:00	2024-11-08T21:00:00	5	Humedad	74
80085	7	Sololá	704	Santa Lucía Utatlán 	7	Santa Rita 	3	Marzo	2023-04-03T00:00:00	2024-11-08T21:00:00	6	Velocidad del viento	0
80086	7	Sololá	704	Santa Lucía Utatlán 	7	Santa Rita 	3	Marzo	2023-04-03T00:00:00	2024-11-08T21:00:00	7	Dirección del viento	0
80087	7	Sololá	704	Santa Lucía Utatlán 	7	Santa Rita 	3	Marzo	2023-04-03T00:00:00	2024-11-08T21:00:00	1	Precipitación	0
80088	7	Sololá	704	Santa Lucía Utatlán 	7	Santa Rita 	3	Marzo	2023-04-03T00:00:00	2024-11-08T21:00:00	8	Radiación solar	0
80089	7	Sololá	704	Santa Lucía Utatlán 	7	Santa Rita 	3	Marzo	2023-04-03T00:00:00	2024-11-08T22:00:00	2	Temperatura media	19.1
80090	7	Sololá	704	Santa Lucía Utatlán 	7	Santa Rita 	3	Marzo	2023-04-03T00:00:00	2024-11-08T22:00:00	4	Temperatura máxima	20.1
80091	7	Sololá	704	Santa Lucía Utatlán 	7	Santa Rita 	3	Marzo	2023-04-03T00:00:00	2024-11-08T22:00:00	3	Temperatura mínima	19.1
80092	7	Sololá	704	Santa Lucía Utatlán 	7	Santa Rita 	3	Marzo	2023-04-03T00:00:00	2024-11-08T22:00:00	5	Humedad	77
80093	7	Sololá	704	Santa Lucía Utatlán 	7	Santa Rita 	3	Marzo	2023-04-03T00:00:00	2024-11-08T22:00:00	6	Velocidad del viento	0
80094	7	Sololá	704	Santa Lucía Utatlán 	7	Santa Rita 	3	Marzo	2023-04-03T00:00:00	2024-11-08T22:00:00	7	Dirección del viento	0
80095	7	Sololá	704	Santa Lucía Utatlán 	7	Santa Rita 	3	Marzo	2023-04-03T00:00:00	2024-11-08T22:00:00	1	Precipitación	0
80096	7	Sololá	704	Santa Lucía Utatlán 	7	Santa Rita 	3	Marzo	2023-04-03T00:00:00	2024-11-08T22:00:00	8	Radiación solar	0
80097	7	Sololá	704	Santa Lucía Utatlán 	7	Santa Rita 	3	Marzo	2023-04-03T00:00:00	2024-11-08T23:00:00	2	Temperatura media	18.3
80098	7	Sololá	704	Santa Lucía Utatlán 	7	Santa Rita 	3	Marzo	2023-04-03T00:00:00	2024-11-08T23:00:00	4	Temperatura máxima	19.1
80099	7	Sololá	704	Santa Lucía Utatlán 	7	Santa Rita 	3	Marzo	2023-04-03T00:00:00	2024-11-08T23:00:00	3	Temperatura mínima	18.3
80100	7	Sololá	704	Santa Lucía Utatlán 	7	Santa Rita 	3	Marzo	2023-04-03T00:00:00	2024-11-08T23:00:00	5	Humedad	79
80101	7	Sololá	704	Santa Lucía Utatlán 	7	Santa Rita 	3	Marzo	2023-04-03T00:00:00	2024-11-08T23:00:00	6	Velocidad del viento	0
80102	7	Sololá	704	Santa Lucía Utatlán 	7	Santa Rita 	3	Marzo	2023-04-03T00:00:00	2024-11-08T23:00:00	7	Dirección del viento	0
80103	7	Sololá	704	Santa Lucía Utatlán 	7	Santa Rita 	3	Marzo	2023-04-03T00:00:00	2024-11-08T23:00:00	1	Precipitación	0
80104	7	Sololá	704	Santa Lucía Utatlán 	7	Santa Rita 	3	Marzo	2023-04-03T00:00:00	2024-11-08T23:00:00	8	Radiación solar	0
80105	7	Sololá	704	Santa Lucía Utatlán 	7	Santa Rita 	3	Marzo	2023-05-03T00:00:00	2024-11-08T00:00:00	2	Temperatura media	17.1
80106	7	Sololá	704	Santa Lucía Utatlán 	7	Santa Rita 	3	Marzo	2023-05-03T00:00:00	2024-11-08T00:00:00	4	Temperatura máxima	18.3
80107	7	Sololá	704	Santa Lucía Utatlán 	7	Santa Rita 	3	Marzo	2023-05-03T00:00:00	2024-11-08T00:00:00	3	Temperatura mínima	17
80108	7	Sololá	704	Santa Lucía Utatlán 	7	Santa Rita 	3	Marzo	2023-05-03T00:00:00	2024-11-08T00:00:00	5	Humedad	82
80109	7	Sololá	704	Santa Lucía Utatlán 	7	Santa Rita 	3	Marzo	2023-05-03T00:00:00	2024-11-08T00:00:00	6	Velocidad del viento	3.2
80110	7	Sololá	704	Santa Lucía Utatlán 	7	Santa Rita 	3	Marzo	2023-05-03T00:00:00	2024-11-08T00:00:00	7	Dirección del viento	3.22
80111	7	Sololá	704	Santa Lucía Utatlán 	7	Santa Rita 	3	Marzo	2023-05-03T00:00:00	2024-11-08T00:00:00	1	Precipitación	0
80112	7	Sololá	704	Santa Lucía Utatlán 	7	Santa Rita 	3	Marzo	2023-05-03T00:00:00	2024-11-08T00:00:00	8	Radiación solar	0
80113	7	Sololá	704	Santa Lucía Utatlán 	7	Santa Rita 	3	Marzo	2023-05-03T00:00:00	2024-11-08T01:00:00	2	Temperatura media	16.6
80114	7	Sololá	704	Santa Lucía Utatlán 	7	Santa Rita 	3	Marzo	2023-05-03T00:00:00	2024-11-08T01:00:00	4	Temperatura máxima	17.1
80115	7	Sololá	704	Santa Lucía Utatlán 	7	Santa Rita 	3	Marzo	2023-05-03T00:00:00	2024-11-08T01:00:00	3	Temperatura mínima	16.6
80116	7	Sololá	704	Santa Lucía Utatlán 	7	Santa Rita 	3	Marzo	2023-05-03T00:00:00	2024-11-08T01:00:00	5	Humedad	81
80117	7	Sololá	704	Santa Lucía Utatlán 	7	Santa Rita 	3	Marzo	2023-05-03T00:00:00	2024-11-08T01:00:00	6	Velocidad del viento	3.2
80118	7	Sololá	704	Santa Lucía Utatlán 	7	Santa Rita 	3	Marzo	2023-05-03T00:00:00	2024-11-08T01:00:00	7	Dirección del viento	3.22
80119	7	Sololá	704	Santa Lucía Utatlán 	7	Santa Rita 	3	Marzo	2023-05-03T00:00:00	2024-11-08T01:00:00	1	Precipitación	0
80120	7	Sololá	704	Santa Lucía Utatlán 	7	Santa Rita 	3	Marzo	2023-05-03T00:00:00	2024-11-08T01:00:00	8	Radiación solar	0
80121	7	Sololá	704	Santa Lucía Utatlán 	7	Santa Rita 	3	Marzo	2023-05-03T00:00:00	2024-11-08T02:00:00	2	Temperatura media	16.3
80122	7	Sololá	704	Santa Lucía Utatlán 	7	Santa Rita 	3	Marzo	2023-05-03T00:00:00	2024-11-08T02:00:00	4	Temperatura máxima	16.6
80123	7	Sololá	704	Santa Lucía Utatlán 	7	Santa Rita 	3	Marzo	2023-05-03T00:00:00	2024-11-08T02:00:00	3	Temperatura mínima	16.2
80124	7	Sololá	704	Santa Lucía Utatlán 	7	Santa Rita 	3	Marzo	2023-05-03T00:00:00	2024-11-08T02:00:00	5	Humedad	80
80125	7	Sololá	704	Santa Lucía Utatlán 	7	Santa Rita 	3	Marzo	2023-05-03T00:00:00	2024-11-08T02:00:00	6	Velocidad del viento	1.6
80126	7	Sololá	704	Santa Lucía Utatlán 	7	Santa Rita 	3	Marzo	2023-05-03T00:00:00	2024-11-08T02:00:00	7	Dirección del viento	1.61
80127	7	Sololá	704	Santa Lucía Utatlán 	7	Santa Rita 	3	Marzo	2023-05-03T00:00:00	2024-11-08T02:00:00	1	Precipitación	0
80128	7	Sololá	704	Santa Lucía Utatlán 	7	Santa Rita 	3	Marzo	2023-05-03T00:00:00	2024-11-08T02:00:00	8	Radiación solar	0
80129	7	Sololá	704	Santa Lucía Utatlán 	7	Santa Rita 	3	Marzo	2023-05-03T00:00:00	2024-11-08T03:00:00	2	Temperatura media	16.3
80130	7	Sololá	704	Santa Lucía Utatlán 	7	Santa Rita 	3	Marzo	2023-05-03T00:00:00	2024-11-08T03:00:00	4	Temperatura máxima	16.4
80131	7	Sololá	704	Santa Lucía Utatlán 	7	Santa Rita 	3	Marzo	2023-05-03T00:00:00	2024-11-08T03:00:00	3	Temperatura mínima	16.2
80132	7	Sololá	704	Santa Lucía Utatlán 	7	Santa Rita 	3	Marzo	2023-05-03T00:00:00	2024-11-08T03:00:00	5	Humedad	77
80133	7	Sololá	704	Santa Lucía Utatlán 	7	Santa Rita 	3	Marzo	2023-05-03T00:00:00	2024-11-08T03:00:00	6	Velocidad del viento	3.2
80134	7	Sololá	704	Santa Lucía Utatlán 	7	Santa Rita 	3	Marzo	2023-05-03T00:00:00	2024-11-08T03:00:00	7	Dirección del viento	3.22
80135	7	Sololá	704	Santa Lucía Utatlán 	7	Santa Rita 	3	Marzo	2023-05-03T00:00:00	2024-11-08T03:00:00	1	Precipitación	0
80136	7	Sololá	704	Santa Lucía Utatlán 	7	Santa Rita 	3	Marzo	2023-05-03T00:00:00	2024-11-08T03:00:00	8	Radiación solar	0
80137	7	Sololá	704	Santa Lucía Utatlán 	7	Santa Rita 	3	Marzo	2023-05-03T00:00:00	2024-11-08T04:00:00	2	Temperatura media	15.9
80138	7	Sololá	704	Santa Lucía Utatlán 	7	Santa Rita 	3	Marzo	2023-05-03T00:00:00	2024-11-08T04:00:00	4	Temperatura máxima	16.4
80139	7	Sololá	704	Santa Lucía Utatlán 	7	Santa Rita 	3	Marzo	2023-05-03T00:00:00	2024-11-08T04:00:00	3	Temperatura mínima	15.9
80140	7	Sololá	704	Santa Lucía Utatlán 	7	Santa Rita 	3	Marzo	2023-05-03T00:00:00	2024-11-08T04:00:00	5	Humedad	76
80141	7	Sololá	704	Santa Lucía Utatlán 	7	Santa Rita 	3	Marzo	2023-05-03T00:00:00	2024-11-08T04:00:00	6	Velocidad del viento	3.2
80142	7	Sololá	704	Santa Lucía Utatlán 	7	Santa Rita 	3	Marzo	2023-05-03T00:00:00	2024-11-08T04:00:00	7	Dirección del viento	3.22
80143	7	Sololá	704	Santa Lucía Utatlán 	7	Santa Rita 	3	Marzo	2023-05-03T00:00:00	2024-11-08T04:00:00	1	Precipitación	0
80144	7	Sololá	704	Santa Lucía Utatlán 	7	Santa Rita 	3	Marzo	2023-05-03T00:00:00	2024-11-08T04:00:00	8	Radiación solar	0
80145	7	Sololá	704	Santa Lucía Utatlán 	7	Santa Rita 	3	Marzo	2023-05-03T00:00:00	2024-11-08T05:00:00	2	Temperatura media	16
80146	7	Sololá	704	Santa Lucía Utatlán 	7	Santa Rita 	3	Marzo	2023-05-03T00:00:00	2024-11-08T05:00:00	4	Temperatura máxima	16.1
80147	7	Sololá	704	Santa Lucía Utatlán 	7	Santa Rita 	3	Marzo	2023-05-03T00:00:00	2024-11-08T05:00:00	3	Temperatura mínima	15.8
80148	7	Sololá	704	Santa Lucía Utatlán 	7	Santa Rita 	3	Marzo	2023-05-03T00:00:00	2024-11-08T05:00:00	5	Humedad	77
80149	7	Sololá	704	Santa Lucía Utatlán 	7	Santa Rita 	3	Marzo	2023-05-03T00:00:00	2024-11-08T05:00:00	6	Velocidad del viento	3.2
80150	7	Sololá	704	Santa Lucía Utatlán 	7	Santa Rita 	3	Marzo	2023-05-03T00:00:00	2024-11-08T05:00:00	7	Dirección del viento	3.22
80151	7	Sololá	704	Santa Lucía Utatlán 	7	Santa Rita 	3	Marzo	2023-05-03T00:00:00	2024-11-08T05:00:00	1	Precipitación	0
80152	7	Sololá	704	Santa Lucía Utatlán 	7	Santa Rita 	3	Marzo	2023-05-03T00:00:00	2024-11-08T05:00:00	8	Radiación solar	0
80153	7	Sololá	704	Santa Lucía Utatlán 	7	Santa Rita 	3	Marzo	2023-05-03T00:00:00	2024-11-08T06:00:00	2	Temperatura media	15.5
80154	7	Sololá	704	Santa Lucía Utatlán 	7	Santa Rita 	3	Marzo	2023-05-03T00:00:00	2024-11-08T06:00:00	4	Temperatura máxima	16
80155	7	Sololá	704	Santa Lucía Utatlán 	7	Santa Rita 	3	Marzo	2023-05-03T00:00:00	2024-11-08T06:00:00	3	Temperatura mínima	15.5
80156	7	Sololá	704	Santa Lucía Utatlán 	7	Santa Rita 	3	Marzo	2023-05-03T00:00:00	2024-11-08T06:00:00	5	Humedad	59
80157	7	Sololá	704	Santa Lucía Utatlán 	7	Santa Rita 	3	Marzo	2023-05-03T00:00:00	2024-11-08T06:00:00	6	Velocidad del viento	3.2
80158	7	Sololá	704	Santa Lucía Utatlán 	7	Santa Rita 	3	Marzo	2023-05-03T00:00:00	2024-11-08T06:00:00	7	Dirección del viento	3.22
80159	7	Sololá	704	Santa Lucía Utatlán 	7	Santa Rita 	3	Marzo	2023-05-03T00:00:00	2024-11-08T06:00:00	1	Precipitación	0
80160	7	Sololá	704	Santa Lucía Utatlán 	7	Santa Rita 	3	Marzo	2023-05-03T00:00:00	2024-11-08T06:00:00	8	Radiación solar	0
80161	7	Sololá	704	Santa Lucía Utatlán 	7	Santa Rita 	3	Marzo	2023-05-03T00:00:00	2024-11-08T07:00:00	2	Temperatura media	16.2
80162	7	Sololá	704	Santa Lucía Utatlán 	7	Santa Rita 	3	Marzo	2023-05-03T00:00:00	2024-11-08T07:00:00	4	Temperatura máxima	16.2
80163	7	Sololá	704	Santa Lucía Utatlán 	7	Santa Rita 	3	Marzo	2023-05-03T00:00:00	2024-11-08T07:00:00	3	Temperatura mínima	15.4
80164	7	Sololá	704	Santa Lucía Utatlán 	7	Santa Rita 	3	Marzo	2023-05-03T00:00:00	2024-11-08T07:00:00	5	Humedad	54
80165	7	Sololá	704	Santa Lucía Utatlán 	7	Santa Rita 	3	Marzo	2023-05-03T00:00:00	2024-11-08T07:00:00	6	Velocidad del viento	0
80166	7	Sololá	704	Santa Lucía Utatlán 	7	Santa Rita 	3	Marzo	2023-05-03T00:00:00	2024-11-08T07:00:00	7	Dirección del viento	0
80167	7	Sololá	704	Santa Lucía Utatlán 	7	Santa Rita 	3	Marzo	2023-05-03T00:00:00	2024-11-08T07:00:00	1	Precipitación	0
80168	7	Sololá	704	Santa Lucía Utatlán 	7	Santa Rita 	3	Marzo	2023-05-03T00:00:00	2024-11-08T07:00:00	8	Radiación solar	12
80169	7	Sololá	704	Santa Lucía Utatlán 	7	Santa Rita 	3	Marzo	2023-05-03T00:00:00	2024-11-08T08:00:00	2	Temperatura media	21.5
80170	7	Sololá	704	Santa Lucía Utatlán 	7	Santa Rita 	3	Marzo	2023-05-03T00:00:00	2024-11-08T08:00:00	4	Temperatura máxima	21.5
80171	7	Sololá	704	Santa Lucía Utatlán 	7	Santa Rita 	3	Marzo	2023-05-03T00:00:00	2024-11-08T08:00:00	3	Temperatura mínima	16.2
80172	7	Sololá	704	Santa Lucía Utatlán 	7	Santa Rita 	3	Marzo	2023-05-03T00:00:00	2024-11-08T08:00:00	5	Humedad	44
80173	7	Sololá	704	Santa Lucía Utatlán 	7	Santa Rita 	3	Marzo	2023-05-03T00:00:00	2024-11-08T08:00:00	6	Velocidad del viento	0
80174	7	Sololá	704	Santa Lucía Utatlán 	7	Santa Rita 	3	Marzo	2023-05-03T00:00:00	2024-11-08T08:00:00	7	Dirección del viento	0
80175	7	Sololá	704	Santa Lucía Utatlán 	7	Santa Rita 	3	Marzo	2023-05-03T00:00:00	2024-11-08T08:00:00	1	Precipitación	0
80176	7	Sololá	704	Santa Lucía Utatlán 	7	Santa Rita 	3	Marzo	2023-05-03T00:00:00	2024-11-08T08:00:00	8	Radiación solar	198
80177	7	Sololá	704	Santa Lucía Utatlán 	7	Santa Rita 	3	Marzo	2023-05-03T00:00:00	2024-11-08T09:00:00	2	Temperatura media	24.6
80178	7	Sololá	704	Santa Lucía Utatlán 	7	Santa Rita 	3	Marzo	2023-05-03T00:00:00	2024-11-08T09:00:00	4	Temperatura máxima	24.7
80179	7	Sololá	704	Santa Lucía Utatlán 	7	Santa Rita 	3	Marzo	2023-05-03T00:00:00	2024-11-08T09:00:00	3	Temperatura mínima	21.5
80180	7	Sololá	704	Santa Lucía Utatlán 	7	Santa Rita 	3	Marzo	2023-05-03T00:00:00	2024-11-08T09:00:00	5	Humedad	34
80181	7	Sololá	704	Santa Lucía Utatlán 	7	Santa Rita 	3	Marzo	2023-05-03T00:00:00	2024-11-08T09:00:00	6	Velocidad del viento	1.6
80182	7	Sololá	704	Santa Lucía Utatlán 	7	Santa Rita 	3	Marzo	2023-05-03T00:00:00	2024-11-08T09:00:00	7	Dirección del viento	1.61
80183	7	Sololá	704	Santa Lucía Utatlán 	7	Santa Rita 	3	Marzo	2023-05-03T00:00:00	2024-11-08T09:00:00	1	Precipitación	0
80184	7	Sololá	704	Santa Lucía Utatlán 	7	Santa Rita 	3	Marzo	2023-05-03T00:00:00	2024-11-08T09:00:00	8	Radiación solar	438
80185	7	Sololá	704	Santa Lucía Utatlán 	7	Santa Rita 	3	Marzo	2023-05-03T00:00:00	2024-11-08T10:00:00	2	Temperatura media	26.7
80186	7	Sololá	704	Santa Lucía Utatlán 	7	Santa Rita 	3	Marzo	2023-05-03T00:00:00	2024-11-08T10:00:00	4	Temperatura máxima	26.8
80187	7	Sololá	704	Santa Lucía Utatlán 	7	Santa Rita 	3	Marzo	2023-05-03T00:00:00	2024-11-08T10:00:00	3	Temperatura mínima	24.5
80188	7	Sololá	704	Santa Lucía Utatlán 	7	Santa Rita 	3	Marzo	2023-05-03T00:00:00	2024-11-08T10:00:00	5	Humedad	22
80189	7	Sololá	704	Santa Lucía Utatlán 	7	Santa Rita 	3	Marzo	2023-05-03T00:00:00	2024-11-08T10:00:00	6	Velocidad del viento	6.4
80190	7	Sololá	704	Santa Lucía Utatlán 	7	Santa Rita 	3	Marzo	2023-05-03T00:00:00	2024-11-08T10:00:00	7	Dirección del viento	6.44
80191	7	Sololá	704	Santa Lucía Utatlán 	7	Santa Rita 	3	Marzo	2023-05-03T00:00:00	2024-11-08T10:00:00	1	Precipitación	0
80192	7	Sololá	704	Santa Lucía Utatlán 	7	Santa Rita 	3	Marzo	2023-05-03T00:00:00	2024-11-08T10:00:00	8	Radiación solar	619
80193	7	Sololá	704	Santa Lucía Utatlán 	7	Santa Rita 	3	Marzo	2023-05-03T00:00:00	2024-11-08T11:00:00	2	Temperatura media	26.5
80194	7	Sololá	704	Santa Lucía Utatlán 	7	Santa Rita 	3	Marzo	2023-05-03T00:00:00	2024-11-08T11:00:00	4	Temperatura máxima	27
80195	7	Sololá	704	Santa Lucía Utatlán 	7	Santa Rita 	3	Marzo	2023-05-03T00:00:00	2024-11-08T11:00:00	3	Temperatura mínima	26
80196	7	Sololá	704	Santa Lucía Utatlán 	7	Santa Rita 	3	Marzo	2023-05-03T00:00:00	2024-11-08T11:00:00	5	Humedad	29
80197	7	Sololá	704	Santa Lucía Utatlán 	7	Santa Rita 	3	Marzo	2023-05-03T00:00:00	2024-11-08T11:00:00	6	Velocidad del viento	8
80198	7	Sololá	704	Santa Lucía Utatlán 	7	Santa Rita 	3	Marzo	2023-05-03T00:00:00	2024-11-08T11:00:00	7	Dirección del viento	8.05
80199	7	Sololá	704	Santa Lucía Utatlán 	7	Santa Rita 	3	Marzo	2023-05-03T00:00:00	2024-11-08T11:00:00	1	Precipitación	0
80200	7	Sololá	704	Santa Lucía Utatlán 	7	Santa Rita 	3	Marzo	2023-05-03T00:00:00	2024-11-08T11:00:00	8	Radiación solar	707
80201	7	Sololá	704	Santa Lucía Utatlán 	7	Santa Rita 	3	Marzo	2023-05-03T00:00:00	2024-11-08T12:00:00	2	Temperatura media	26.1
80202	7	Sololá	704	Santa Lucía Utatlán 	7	Santa Rita 	3	Marzo	2023-05-03T00:00:00	2024-11-08T12:00:00	4	Temperatura máxima	27.1
80203	7	Sololá	704	Santa Lucía Utatlán 	7	Santa Rita 	3	Marzo	2023-05-03T00:00:00	2024-11-08T12:00:00	3	Temperatura mínima	25.6
80204	7	Sololá	704	Santa Lucía Utatlán 	7	Santa Rita 	3	Marzo	2023-05-03T00:00:00	2024-11-08T12:00:00	5	Humedad	35
80205	7	Sololá	704	Santa Lucía Utatlán 	7	Santa Rita 	3	Marzo	2023-05-03T00:00:00	2024-11-08T12:00:00	6	Velocidad del viento	6.4
80206	7	Sololá	704	Santa Lucía Utatlán 	7	Santa Rita 	3	Marzo	2023-05-03T00:00:00	2024-11-08T12:00:00	7	Dirección del viento	6.44
80207	7	Sololá	704	Santa Lucía Utatlán 	7	Santa Rita 	3	Marzo	2023-05-03T00:00:00	2024-11-08T12:00:00	1	Precipitación	0
80208	7	Sololá	704	Santa Lucía Utatlán 	7	Santa Rita 	3	Marzo	2023-05-03T00:00:00	2024-11-08T12:00:00	8	Radiación solar	783
80209	7	Sololá	704	Santa Lucía Utatlán 	7	Santa Rita 	3	Marzo	2023-05-03T00:00:00	2024-11-08T13:00:00	2	Temperatura media	26.1
80210	7	Sololá	704	Santa Lucía Utatlán 	7	Santa Rita 	3	Marzo	2023-05-03T00:00:00	2024-11-08T13:00:00	4	Temperatura máxima	26.6
80211	7	Sololá	704	Santa Lucía Utatlán 	7	Santa Rita 	3	Marzo	2023-05-03T00:00:00	2024-11-08T13:00:00	3	Temperatura mínima	25.5
80212	7	Sololá	704	Santa Lucía Utatlán 	7	Santa Rita 	3	Marzo	2023-05-03T00:00:00	2024-11-08T13:00:00	5	Humedad	41
80213	7	Sololá	704	Santa Lucía Utatlán 	7	Santa Rita 	3	Marzo	2023-05-03T00:00:00	2024-11-08T13:00:00	6	Velocidad del viento	6.4
80214	7	Sololá	704	Santa Lucía Utatlán 	7	Santa Rita 	3	Marzo	2023-05-03T00:00:00	2024-11-08T13:00:00	7	Dirección del viento	6.44
80215	7	Sololá	704	Santa Lucía Utatlán 	7	Santa Rita 	3	Marzo	2023-05-03T00:00:00	2024-11-08T13:00:00	1	Precipitación	0
80216	7	Sololá	704	Santa Lucía Utatlán 	7	Santa Rita 	3	Marzo	2023-05-03T00:00:00	2024-11-08T13:00:00	8	Radiación solar	366
80217	7	Sololá	704	Santa Lucía Utatlán 	7	Santa Rita 	3	Marzo	2023-05-03T00:00:00	2024-11-08T14:00:00	2	Temperatura media	26.2
80218	7	Sololá	704	Santa Lucía Utatlán 	7	Santa Rita 	3	Marzo	2023-05-03T00:00:00	2024-11-08T14:00:00	4	Temperatura máxima	27.2
80219	7	Sololá	704	Santa Lucía Utatlán 	7	Santa Rita 	3	Marzo	2023-05-03T00:00:00	2024-11-08T14:00:00	3	Temperatura mínima	25.4
80220	7	Sololá	704	Santa Lucía Utatlán 	7	Santa Rita 	3	Marzo	2023-05-03T00:00:00	2024-11-08T14:00:00	5	Humedad	46
80221	7	Sololá	704	Santa Lucía Utatlán 	7	Santa Rita 	3	Marzo	2023-05-03T00:00:00	2024-11-08T14:00:00	6	Velocidad del viento	8
80222	7	Sololá	704	Santa Lucía Utatlán 	7	Santa Rita 	3	Marzo	2023-05-03T00:00:00	2024-11-08T14:00:00	7	Dirección del viento	8.05
80223	7	Sololá	704	Santa Lucía Utatlán 	7	Santa Rita 	3	Marzo	2023-05-03T00:00:00	2024-11-08T14:00:00	1	Precipitación	0
80224	7	Sololá	704	Santa Lucía Utatlán 	7	Santa Rita 	3	Marzo	2023-05-03T00:00:00	2024-11-08T14:00:00	8	Radiación solar	684
80225	7	Sololá	704	Santa Lucía Utatlán 	7	Santa Rita 	3	Marzo	2023-05-03T00:00:00	2024-11-08T15:00:00	2	Temperatura media	25.4
80226	7	Sololá	704	Santa Lucía Utatlán 	7	Santa Rita 	3	Marzo	2023-05-03T00:00:00	2024-11-08T15:00:00	4	Temperatura máxima	26.2
80227	7	Sololá	704	Santa Lucía Utatlán 	7	Santa Rita 	3	Marzo	2023-05-03T00:00:00	2024-11-08T15:00:00	3	Temperatura mínima	25.1
80228	7	Sololá	704	Santa Lucía Utatlán 	7	Santa Rita 	3	Marzo	2023-05-03T00:00:00	2024-11-08T15:00:00	5	Humedad	62
80229	7	Sololá	704	Santa Lucía Utatlán 	7	Santa Rita 	3	Marzo	2023-05-03T00:00:00	2024-11-08T15:00:00	6	Velocidad del viento	9.7
80230	7	Sololá	704	Santa Lucía Utatlán 	7	Santa Rita 	3	Marzo	2023-05-03T00:00:00	2024-11-08T15:00:00	7	Dirección del viento	9.66
80231	7	Sololá	704	Santa Lucía Utatlán 	7	Santa Rita 	3	Marzo	2023-05-03T00:00:00	2024-11-08T15:00:00	1	Precipitación	0
80232	7	Sololá	704	Santa Lucía Utatlán 	7	Santa Rita 	3	Marzo	2023-05-03T00:00:00	2024-11-08T15:00:00	8	Radiación solar	583
80233	7	Sololá	704	Santa Lucía Utatlán 	7	Santa Rita 	3	Marzo	2023-05-03T00:00:00	2024-11-08T16:00:00	2	Temperatura media	23.7
80234	7	Sololá	704	Santa Lucía Utatlán 	7	Santa Rita 	3	Marzo	2023-05-03T00:00:00	2024-11-08T16:00:00	4	Temperatura máxima	25.7
80235	7	Sololá	704	Santa Lucía Utatlán 	7	Santa Rita 	3	Marzo	2023-05-03T00:00:00	2024-11-08T16:00:00	3	Temperatura mínima	23.6
80236	7	Sololá	704	Santa Lucía Utatlán 	7	Santa Rita 	3	Marzo	2023-05-03T00:00:00	2024-11-08T16:00:00	5	Humedad	70
80237	7	Sololá	704	Santa Lucía Utatlán 	7	Santa Rita 	3	Marzo	2023-05-03T00:00:00	2024-11-08T16:00:00	6	Velocidad del viento	8
80238	7	Sololá	704	Santa Lucía Utatlán 	7	Santa Rita 	3	Marzo	2023-05-03T00:00:00	2024-11-08T16:00:00	7	Dirección del viento	8.05
80239	7	Sololá	704	Santa Lucía Utatlán 	7	Santa Rita 	3	Marzo	2023-05-03T00:00:00	2024-11-08T16:00:00	1	Precipitación	0
80240	7	Sololá	704	Santa Lucía Utatlán 	7	Santa Rita 	3	Marzo	2023-05-03T00:00:00	2024-11-08T16:00:00	8	Radiación solar	505
80241	7	Sololá	704	Santa Lucía Utatlán 	7	Santa Rita 	3	Marzo	2023-05-03T00:00:00	2024-11-08T17:00:00	2	Temperatura media	22.5
80242	7	Sololá	704	Santa Lucía Utatlán 	7	Santa Rita 	3	Marzo	2023-05-03T00:00:00	2024-11-08T17:00:00	4	Temperatura máxima	23.7
80243	7	Sololá	704	Santa Lucía Utatlán 	7	Santa Rita 	3	Marzo	2023-05-03T00:00:00	2024-11-08T17:00:00	3	Temperatura mínima	22.3
80244	7	Sololá	704	Santa Lucía Utatlán 	7	Santa Rita 	3	Marzo	2023-05-03T00:00:00	2024-11-08T17:00:00	5	Humedad	75
80245	7	Sololá	704	Santa Lucía Utatlán 	7	Santa Rita 	3	Marzo	2023-05-03T00:00:00	2024-11-08T17:00:00	6	Velocidad del viento	6.4
80246	7	Sololá	704	Santa Lucía Utatlán 	7	Santa Rita 	3	Marzo	2023-05-03T00:00:00	2024-11-08T17:00:00	7	Dirección del viento	6.44
80247	7	Sololá	704	Santa Lucía Utatlán 	7	Santa Rita 	3	Marzo	2023-05-03T00:00:00	2024-11-08T17:00:00	1	Precipitación	0
80248	7	Sololá	704	Santa Lucía Utatlán 	7	Santa Rita 	3	Marzo	2023-05-03T00:00:00	2024-11-08T17:00:00	8	Radiación solar	189
80249	7	Sololá	704	Santa Lucía Utatlán 	7	Santa Rita 	3	Marzo	2023-05-03T00:00:00	2024-11-08T18:00:00	2	Temperatura media	20.9
80250	7	Sololá	704	Santa Lucía Utatlán 	7	Santa Rita 	3	Marzo	2023-05-03T00:00:00	2024-11-08T18:00:00	4	Temperatura máxima	22.6
80251	7	Sololá	704	Santa Lucía Utatlán 	7	Santa Rita 	3	Marzo	2023-05-03T00:00:00	2024-11-08T18:00:00	3	Temperatura mínima	20.9
80252	7	Sololá	704	Santa Lucía Utatlán 	7	Santa Rita 	3	Marzo	2023-05-03T00:00:00	2024-11-08T18:00:00	5	Humedad	83
80253	7	Sololá	704	Santa Lucía Utatlán 	7	Santa Rita 	3	Marzo	2023-05-03T00:00:00	2024-11-08T18:00:00	6	Velocidad del viento	3.2
80254	7	Sololá	704	Santa Lucía Utatlán 	7	Santa Rita 	3	Marzo	2023-05-03T00:00:00	2024-11-08T18:00:00	7	Dirección del viento	3.22
80255	7	Sololá	704	Santa Lucía Utatlán 	7	Santa Rita 	3	Marzo	2023-05-03T00:00:00	2024-11-08T18:00:00	1	Precipitación	0
80256	7	Sololá	704	Santa Lucía Utatlán 	7	Santa Rita 	3	Marzo	2023-05-03T00:00:00	2024-11-08T18:00:00	8	Radiación solar	38
80257	7	Sololá	704	Santa Lucía Utatlán 	7	Santa Rita 	3	Marzo	2023-05-03T00:00:00	2024-11-08T19:00:00	2	Temperatura media	20.2
80258	7	Sololá	704	Santa Lucía Utatlán 	7	Santa Rita 	3	Marzo	2023-05-03T00:00:00	2024-11-08T19:00:00	4	Temperatura máxima	20.9
80259	7	Sololá	704	Santa Lucía Utatlán 	7	Santa Rita 	3	Marzo	2023-05-03T00:00:00	2024-11-08T19:00:00	3	Temperatura mínima	20.2
80260	7	Sololá	704	Santa Lucía Utatlán 	7	Santa Rita 	3	Marzo	2023-05-03T00:00:00	2024-11-08T19:00:00	5	Humedad	88
80261	7	Sololá	704	Santa Lucía Utatlán 	7	Santa Rita 	3	Marzo	2023-05-03T00:00:00	2024-11-08T19:00:00	6	Velocidad del viento	1.6
80262	7	Sololá	704	Santa Lucía Utatlán 	7	Santa Rita 	3	Marzo	2023-05-03T00:00:00	2024-11-08T19:00:00	7	Dirección del viento	1.61
80263	7	Sololá	704	Santa Lucía Utatlán 	7	Santa Rita 	3	Marzo	2023-05-03T00:00:00	2024-11-08T19:00:00	1	Precipitación	0
80264	7	Sololá	704	Santa Lucía Utatlán 	7	Santa Rita 	3	Marzo	2023-05-03T00:00:00	2024-11-08T19:00:00	8	Radiación solar	0
80265	7	Sololá	704	Santa Lucía Utatlán 	7	Santa Rita 	3	Marzo	2023-05-03T00:00:00	2024-11-08T20:00:00	2	Temperatura media	20.1
80266	7	Sololá	704	Santa Lucía Utatlán 	7	Santa Rita 	3	Marzo	2023-05-03T00:00:00	2024-11-08T20:00:00	4	Temperatura máxima	20.2
80267	7	Sololá	704	Santa Lucía Utatlán 	7	Santa Rita 	3	Marzo	2023-05-03T00:00:00	2024-11-08T20:00:00	3	Temperatura mínima	19.9
80268	7	Sololá	704	Santa Lucía Utatlán 	7	Santa Rita 	3	Marzo	2023-05-03T00:00:00	2024-11-08T20:00:00	5	Humedad	85
80269	7	Sololá	704	Santa Lucía Utatlán 	7	Santa Rita 	3	Marzo	2023-05-03T00:00:00	2024-11-08T20:00:00	6	Velocidad del viento	1.6
80270	7	Sololá	704	Santa Lucía Utatlán 	7	Santa Rita 	3	Marzo	2023-05-03T00:00:00	2024-11-08T20:00:00	7	Dirección del viento	1.61
80271	7	Sololá	704	Santa Lucía Utatlán 	7	Santa Rita 	3	Marzo	2023-05-03T00:00:00	2024-11-08T20:00:00	1	Precipitación	0
80272	7	Sololá	704	Santa Lucía Utatlán 	7	Santa Rita 	3	Marzo	2023-05-03T00:00:00	2024-11-08T20:00:00	8	Radiación solar	0
80273	7	Sololá	704	Santa Lucía Utatlán 	7	Santa Rita 	3	Marzo	2023-05-03T00:00:00	2024-11-08T21:00:00	2	Temperatura media	17.9
80274	7	Sololá	704	Santa Lucía Utatlán 	7	Santa Rita 	3	Marzo	2023-05-03T00:00:00	2024-11-08T21:00:00	4	Temperatura máxima	20.1
80275	7	Sololá	704	Santa Lucía Utatlán 	7	Santa Rita 	3	Marzo	2023-05-03T00:00:00	2024-11-08T21:00:00	3	Temperatura mínima	17.9
80276	7	Sololá	704	Santa Lucía Utatlán 	7	Santa Rita 	3	Marzo	2023-05-03T00:00:00	2024-11-08T21:00:00	5	Humedad	87
80277	7	Sololá	704	Santa Lucía Utatlán 	7	Santa Rita 	3	Marzo	2023-05-03T00:00:00	2024-11-08T21:00:00	6	Velocidad del viento	1.6
80278	7	Sololá	704	Santa Lucía Utatlán 	7	Santa Rita 	3	Marzo	2023-05-03T00:00:00	2024-11-08T21:00:00	7	Dirección del viento	1.61
80279	7	Sololá	704	Santa Lucía Utatlán 	7	Santa Rita 	3	Marzo	2023-05-03T00:00:00	2024-11-08T21:00:00	1	Precipitación	0
80280	7	Sololá	704	Santa Lucía Utatlán 	7	Santa Rita 	3	Marzo	2023-05-03T00:00:00	2024-11-08T21:00:00	8	Radiación solar	0
80281	7	Sololá	704	Santa Lucía Utatlán 	7	Santa Rita 	3	Marzo	2023-05-03T00:00:00	2024-11-08T22:00:00	2	Temperatura media	19
80282	7	Sololá	704	Santa Lucía Utatlán 	7	Santa Rita 	3	Marzo	2023-05-03T00:00:00	2024-11-08T22:00:00	4	Temperatura máxima	19
80283	7	Sololá	704	Santa Lucía Utatlán 	7	Santa Rita 	3	Marzo	2023-05-03T00:00:00	2024-11-08T22:00:00	3	Temperatura mínima	17.6
80284	7	Sololá	704	Santa Lucía Utatlán 	7	Santa Rita 	3	Marzo	2023-05-03T00:00:00	2024-11-08T22:00:00	5	Humedad	78
80285	7	Sololá	704	Santa Lucía Utatlán 	7	Santa Rita 	3	Marzo	2023-05-03T00:00:00	2024-11-08T22:00:00	6	Velocidad del viento	3.2
80286	7	Sololá	704	Santa Lucía Utatlán 	7	Santa Rita 	3	Marzo	2023-05-03T00:00:00	2024-11-08T22:00:00	7	Dirección del viento	3.22
80287	7	Sololá	704	Santa Lucía Utatlán 	7	Santa Rita 	3	Marzo	2023-05-03T00:00:00	2024-11-08T22:00:00	1	Precipitación	0
80288	7	Sololá	704	Santa Lucía Utatlán 	7	Santa Rita 	3	Marzo	2023-05-03T00:00:00	2024-11-08T22:00:00	8	Radiación solar	0
80289	7	Sololá	704	Santa Lucía Utatlán 	7	Santa Rita 	3	Marzo	2023-05-03T00:00:00	2024-11-08T23:00:00	2	Temperatura media	17.1
80290	7	Sololá	704	Santa Lucía Utatlán 	7	Santa Rita 	3	Marzo	2023-05-03T00:00:00	2024-11-08T23:00:00	4	Temperatura máxima	19.4
80291	7	Sololá	704	Santa Lucía Utatlán 	7	Santa Rita 	3	Marzo	2023-05-03T00:00:00	2024-11-08T23:00:00	3	Temperatura mínima	17.1
80292	7	Sololá	704	Santa Lucía Utatlán 	7	Santa Rita 	3	Marzo	2023-05-03T00:00:00	2024-11-08T23:00:00	5	Humedad	78
80293	7	Sololá	704	Santa Lucía Utatlán 	7	Santa Rita 	3	Marzo	2023-05-03T00:00:00	2024-11-08T23:00:00	6	Velocidad del viento	1.6
80294	7	Sololá	704	Santa Lucía Utatlán 	7	Santa Rita 	3	Marzo	2023-05-03T00:00:00	2024-11-08T23:00:00	7	Dirección del viento	1.61
80295	7	Sololá	704	Santa Lucía Utatlán 	7	Santa Rita 	3	Marzo	2023-05-03T00:00:00	2024-11-08T23:00:00	1	Precipitación	0
80296	7	Sololá	704	Santa Lucía Utatlán 	7	Santa Rita 	3	Marzo	2023-05-03T00:00:00	2024-11-08T23:00:00	8	Radiación solar	0
80297	7	Sololá	704	Santa Lucía Utatlán 	7	Santa Rita 	3	Marzo	2023-06-03T00:00:00	2024-11-08T00:00:00	2	Temperatura media	18.3
80298	7	Sololá	704	Santa Lucía Utatlán 	7	Santa Rita 	3	Marzo	2023-06-03T00:00:00	2024-11-08T00:00:00	4	Temperatura máxima	18.5
80299	7	Sololá	704	Santa Lucía Utatlán 	7	Santa Rita 	3	Marzo	2023-06-03T00:00:00	2024-11-08T00:00:00	3	Temperatura mínima	17
80300	7	Sololá	704	Santa Lucía Utatlán 	7	Santa Rita 	3	Marzo	2023-06-03T00:00:00	2024-11-08T00:00:00	5	Humedad	63
80301	7	Sololá	704	Santa Lucía Utatlán 	7	Santa Rita 	3	Marzo	2023-06-03T00:00:00	2024-11-08T00:00:00	6	Velocidad del viento	1.6
80302	7	Sololá	704	Santa Lucía Utatlán 	7	Santa Rita 	3	Marzo	2023-06-03T00:00:00	2024-11-08T00:00:00	7	Dirección del viento	1.61
80303	7	Sololá	704	Santa Lucía Utatlán 	7	Santa Rita 	3	Marzo	2023-06-03T00:00:00	2024-11-08T00:00:00	1	Precipitación	0
80304	7	Sololá	704	Santa Lucía Utatlán 	7	Santa Rita 	3	Marzo	2023-06-03T00:00:00	2024-11-08T00:00:00	8	Radiación solar	0
80305	7	Sololá	704	Santa Lucía Utatlán 	7	Santa Rita 	3	Marzo	2023-06-03T00:00:00	2024-11-08T01:00:00	2	Temperatura media	16.2
80306	7	Sololá	704	Santa Lucía Utatlán 	7	Santa Rita 	3	Marzo	2023-06-03T00:00:00	2024-11-08T01:00:00	4	Temperatura máxima	18.3
80307	7	Sololá	704	Santa Lucía Utatlán 	7	Santa Rita 	3	Marzo	2023-06-03T00:00:00	2024-11-08T01:00:00	3	Temperatura mínima	16.1
80308	7	Sololá	704	Santa Lucía Utatlán 	7	Santa Rita 	3	Marzo	2023-06-03T00:00:00	2024-11-08T01:00:00	5	Humedad	60
80309	7	Sololá	704	Santa Lucía Utatlán 	7	Santa Rita 	3	Marzo	2023-06-03T00:00:00	2024-11-08T01:00:00	6	Velocidad del viento	0
80310	7	Sololá	704	Santa Lucía Utatlán 	7	Santa Rita 	3	Marzo	2023-06-03T00:00:00	2024-11-08T01:00:00	7	Dirección del viento	0
80311	7	Sololá	704	Santa Lucía Utatlán 	7	Santa Rita 	3	Marzo	2023-06-03T00:00:00	2024-11-08T01:00:00	1	Precipitación	0
80312	7	Sololá	704	Santa Lucía Utatlán 	7	Santa Rita 	3	Marzo	2023-06-03T00:00:00	2024-11-08T01:00:00	8	Radiación solar	0
80313	7	Sololá	704	Santa Lucía Utatlán 	7	Santa Rita 	3	Marzo	2023-06-03T00:00:00	2024-11-08T02:00:00	2	Temperatura media	15.5
80314	7	Sololá	704	Santa Lucía Utatlán 	7	Santa Rita 	3	Marzo	2023-06-03T00:00:00	2024-11-08T02:00:00	4	Temperatura máxima	16.2
80315	7	Sololá	704	Santa Lucía Utatlán 	7	Santa Rita 	3	Marzo	2023-06-03T00:00:00	2024-11-08T02:00:00	3	Temperatura mínima	15.5
80316	7	Sololá	704	Santa Lucía Utatlán 	7	Santa Rita 	3	Marzo	2023-06-03T00:00:00	2024-11-08T02:00:00	5	Humedad	58
80317	7	Sololá	704	Santa Lucía Utatlán 	7	Santa Rita 	3	Marzo	2023-06-03T00:00:00	2024-11-08T02:00:00	6	Velocidad del viento	1.6
80318	7	Sololá	704	Santa Lucía Utatlán 	7	Santa Rita 	3	Marzo	2023-06-03T00:00:00	2024-11-08T02:00:00	7	Dirección del viento	1.61
80319	7	Sololá	704	Santa Lucía Utatlán 	7	Santa Rita 	3	Marzo	2023-06-03T00:00:00	2024-11-08T02:00:00	1	Precipitación	0
80320	7	Sololá	704	Santa Lucía Utatlán 	7	Santa Rita 	3	Marzo	2023-06-03T00:00:00	2024-11-08T02:00:00	8	Radiación solar	0
80321	7	Sololá	704	Santa Lucía Utatlán 	7	Santa Rita 	3	Marzo	2023-06-03T00:00:00	2024-11-08T03:00:00	2	Temperatura media	15.3
80322	7	Sololá	704	Santa Lucía Utatlán 	7	Santa Rita 	3	Marzo	2023-06-03T00:00:00	2024-11-08T03:00:00	4	Temperatura máxima	15.8
80323	7	Sololá	704	Santa Lucía Utatlán 	7	Santa Rita 	3	Marzo	2023-06-03T00:00:00	2024-11-08T03:00:00	3	Temperatura mínima	15.2
80324	7	Sololá	704	Santa Lucía Utatlán 	7	Santa Rita 	3	Marzo	2023-06-03T00:00:00	2024-11-08T03:00:00	5	Humedad	63
80325	7	Sololá	704	Santa Lucía Utatlán 	7	Santa Rita 	3	Marzo	2023-06-03T00:00:00	2024-11-08T03:00:00	6	Velocidad del viento	3.2
80326	7	Sololá	704	Santa Lucía Utatlán 	7	Santa Rita 	3	Marzo	2023-06-03T00:00:00	2024-11-08T03:00:00	7	Dirección del viento	3.22
80327	7	Sololá	704	Santa Lucía Utatlán 	7	Santa Rita 	3	Marzo	2023-06-03T00:00:00	2024-11-08T03:00:00	1	Precipitación	0
80328	7	Sololá	704	Santa Lucía Utatlán 	7	Santa Rita 	3	Marzo	2023-06-03T00:00:00	2024-11-08T03:00:00	8	Radiación solar	0
80329	7	Sololá	704	Santa Lucía Utatlán 	7	Santa Rita 	3	Marzo	2023-06-03T00:00:00	2024-11-08T04:00:00	2	Temperatura media	14.7
80330	7	Sololá	704	Santa Lucía Utatlán 	7	Santa Rita 	3	Marzo	2023-06-03T00:00:00	2024-11-08T04:00:00	4	Temperatura máxima	15.4
80331	7	Sololá	704	Santa Lucía Utatlán 	7	Santa Rita 	3	Marzo	2023-06-03T00:00:00	2024-11-08T04:00:00	3	Temperatura mínima	14.7
80332	7	Sololá	704	Santa Lucía Utatlán 	7	Santa Rita 	3	Marzo	2023-06-03T00:00:00	2024-11-08T04:00:00	5	Humedad	69
80333	7	Sololá	704	Santa Lucía Utatlán 	7	Santa Rita 	3	Marzo	2023-06-03T00:00:00	2024-11-08T04:00:00	6	Velocidad del viento	3.2
80334	7	Sololá	704	Santa Lucía Utatlán 	7	Santa Rita 	3	Marzo	2023-06-03T00:00:00	2024-11-08T04:00:00	7	Dirección del viento	3.22
80335	7	Sololá	704	Santa Lucía Utatlán 	7	Santa Rita 	3	Marzo	2023-06-03T00:00:00	2024-11-08T04:00:00	1	Precipitación	0
80336	7	Sololá	704	Santa Lucía Utatlán 	7	Santa Rita 	3	Marzo	2023-06-03T00:00:00	2024-11-08T04:00:00	8	Radiación solar	0
80337	7	Sololá	704	Santa Lucía Utatlán 	7	Santa Rita 	3	Marzo	2023-06-03T00:00:00	2024-11-08T05:00:00	2	Temperatura media	14.6
80338	7	Sololá	704	Santa Lucía Utatlán 	7	Santa Rita 	3	Marzo	2023-06-03T00:00:00	2024-11-08T05:00:00	4	Temperatura máxima	14.7
80339	7	Sololá	704	Santa Lucía Utatlán 	7	Santa Rita 	3	Marzo	2023-06-03T00:00:00	2024-11-08T05:00:00	3	Temperatura mínima	14.4
80340	7	Sololá	704	Santa Lucía Utatlán 	7	Santa Rita 	3	Marzo	2023-06-03T00:00:00	2024-11-08T05:00:00	5	Humedad	66
80341	7	Sololá	704	Santa Lucía Utatlán 	7	Santa Rita 	3	Marzo	2023-06-03T00:00:00	2024-11-08T05:00:00	6	Velocidad del viento	3.2
80342	7	Sololá	704	Santa Lucía Utatlán 	7	Santa Rita 	3	Marzo	2023-06-03T00:00:00	2024-11-08T05:00:00	7	Dirección del viento	3.22
80343	7	Sololá	704	Santa Lucía Utatlán 	7	Santa Rita 	3	Marzo	2023-06-03T00:00:00	2024-11-08T05:00:00	1	Precipitación	0
80344	7	Sololá	704	Santa Lucía Utatlán 	7	Santa Rita 	3	Marzo	2023-06-03T00:00:00	2024-11-08T05:00:00	8	Radiación solar	0
80345	7	Sololá	704	Santa Lucía Utatlán 	7	Santa Rita 	3	Marzo	2023-06-03T00:00:00	2024-11-08T06:00:00	2	Temperatura media	14.7
80346	7	Sololá	704	Santa Lucía Utatlán 	7	Santa Rita 	3	Marzo	2023-06-03T00:00:00	2024-11-08T06:00:00	4	Temperatura máxima	14.8
80347	7	Sololá	704	Santa Lucía Utatlán 	7	Santa Rita 	3	Marzo	2023-06-03T00:00:00	2024-11-08T06:00:00	3	Temperatura mínima	14.4
80348	7	Sololá	704	Santa Lucía Utatlán 	7	Santa Rita 	3	Marzo	2023-06-03T00:00:00	2024-11-08T06:00:00	5	Humedad	71
80349	7	Sololá	704	Santa Lucía Utatlán 	7	Santa Rita 	3	Marzo	2023-06-03T00:00:00	2024-11-08T06:00:00	6	Velocidad del viento	3.2
80350	7	Sololá	704	Santa Lucía Utatlán 	7	Santa Rita 	3	Marzo	2023-06-03T00:00:00	2024-11-08T06:00:00	7	Dirección del viento	3.22
80351	7	Sololá	704	Santa Lucía Utatlán 	7	Santa Rita 	3	Marzo	2023-06-03T00:00:00	2024-11-08T06:00:00	1	Precipitación	0
80352	7	Sololá	704	Santa Lucía Utatlán 	7	Santa Rita 	3	Marzo	2023-06-03T00:00:00	2024-11-08T06:00:00	8	Radiación solar	0
80353	7	Sololá	704	Santa Lucía Utatlán 	7	Santa Rita 	3	Marzo	2023-06-03T00:00:00	2024-11-08T07:00:00	2	Temperatura media	16.1
80354	7	Sololá	704	Santa Lucía Utatlán 	7	Santa Rita 	3	Marzo	2023-06-03T00:00:00	2024-11-08T07:00:00	4	Temperatura máxima	16.1
80355	7	Sololá	704	Santa Lucía Utatlán 	7	Santa Rita 	3	Marzo	2023-06-03T00:00:00	2024-11-08T07:00:00	3	Temperatura mínima	14.7
80356	7	Sololá	704	Santa Lucía Utatlán 	7	Santa Rita 	3	Marzo	2023-06-03T00:00:00	2024-11-08T07:00:00	5	Humedad	68
80357	7	Sololá	704	Santa Lucía Utatlán 	7	Santa Rita 	3	Marzo	2023-06-03T00:00:00	2024-11-08T07:00:00	6	Velocidad del viento	3.2
80358	7	Sololá	704	Santa Lucía Utatlán 	7	Santa Rita 	3	Marzo	2023-06-03T00:00:00	2024-11-08T07:00:00	7	Dirección del viento	3.22
80359	7	Sololá	704	Santa Lucía Utatlán 	7	Santa Rita 	3	Marzo	2023-06-03T00:00:00	2024-11-08T07:00:00	1	Precipitación	0
80360	7	Sololá	704	Santa Lucía Utatlán 	7	Santa Rita 	3	Marzo	2023-06-03T00:00:00	2024-11-08T07:00:00	8	Radiación solar	13
80361	7	Sololá	704	Santa Lucía Utatlán 	7	Santa Rita 	3	Marzo	2023-06-03T00:00:00	2024-11-08T08:00:00	2	Temperatura media	20.8
80362	7	Sololá	704	Santa Lucía Utatlán 	7	Santa Rita 	3	Marzo	2023-06-03T00:00:00	2024-11-08T08:00:00	4	Temperatura máxima	20.8
80363	7	Sololá	704	Santa Lucía Utatlán 	7	Santa Rita 	3	Marzo	2023-06-03T00:00:00	2024-11-08T08:00:00	3	Temperatura mínima	16.1
80364	7	Sololá	704	Santa Lucía Utatlán 	7	Santa Rita 	3	Marzo	2023-06-03T00:00:00	2024-11-08T08:00:00	5	Humedad	59
80365	7	Sololá	704	Santa Lucía Utatlán 	7	Santa Rita 	3	Marzo	2023-06-03T00:00:00	2024-11-08T08:00:00	6	Velocidad del viento	0
80366	7	Sololá	704	Santa Lucía Utatlán 	7	Santa Rita 	3	Marzo	2023-06-03T00:00:00	2024-11-08T08:00:00	7	Dirección del viento	0
80367	7	Sololá	704	Santa Lucía Utatlán 	7	Santa Rita 	3	Marzo	2023-06-03T00:00:00	2024-11-08T08:00:00	1	Precipitación	0
80368	7	Sololá	704	Santa Lucía Utatlán 	7	Santa Rita 	3	Marzo	2023-06-03T00:00:00	2024-11-08T08:00:00	8	Radiación solar	197
80369	7	Sololá	704	Santa Lucía Utatlán 	7	Santa Rita 	3	Marzo	2023-06-03T00:00:00	2024-11-08T09:00:00	2	Temperatura media	23
80370	7	Sololá	704	Santa Lucía Utatlán 	7	Santa Rita 	3	Marzo	2023-06-03T00:00:00	2024-11-08T09:00:00	4	Temperatura máxima	23
80371	7	Sololá	704	Santa Lucía Utatlán 	7	Santa Rita 	3	Marzo	2023-06-03T00:00:00	2024-11-08T09:00:00	3	Temperatura mínima	20.7
80372	7	Sololá	704	Santa Lucía Utatlán 	7	Santa Rita 	3	Marzo	2023-06-03T00:00:00	2024-11-08T09:00:00	5	Humedad	50
80373	7	Sololá	704	Santa Lucía Utatlán 	7	Santa Rita 	3	Marzo	2023-06-03T00:00:00	2024-11-08T09:00:00	6	Velocidad del viento	1.6
80374	7	Sololá	704	Santa Lucía Utatlán 	7	Santa Rita 	3	Marzo	2023-06-03T00:00:00	2024-11-08T09:00:00	7	Dirección del viento	1.61
80375	7	Sololá	704	Santa Lucía Utatlán 	7	Santa Rita 	3	Marzo	2023-06-03T00:00:00	2024-11-08T09:00:00	1	Precipitación	0
80376	7	Sololá	704	Santa Lucía Utatlán 	7	Santa Rita 	3	Marzo	2023-06-03T00:00:00	2024-11-08T09:00:00	8	Radiación solar	430
80377	7	Sololá	704	Santa Lucía Utatlán 	7	Santa Rita 	3	Marzo	2023-06-03T00:00:00	2024-11-08T10:00:00	2	Temperatura media	24.7
80378	7	Sololá	704	Santa Lucía Utatlán 	7	Santa Rita 	3	Marzo	2023-06-03T00:00:00	2024-11-08T10:00:00	4	Temperatura máxima	24.8
80379	7	Sololá	704	Santa Lucía Utatlán 	7	Santa Rita 	3	Marzo	2023-06-03T00:00:00	2024-11-08T10:00:00	3	Temperatura mínima	23
80380	7	Sololá	704	Santa Lucía Utatlán 	7	Santa Rita 	3	Marzo	2023-06-03T00:00:00	2024-11-08T10:00:00	5	Humedad	50
80381	7	Sololá	704	Santa Lucía Utatlán 	7	Santa Rita 	3	Marzo	2023-06-03T00:00:00	2024-11-08T10:00:00	6	Velocidad del viento	4.8
80382	7	Sololá	704	Santa Lucía Utatlán 	7	Santa Rita 	3	Marzo	2023-06-03T00:00:00	2024-11-08T10:00:00	7	Dirección del viento	4.83
80383	7	Sololá	704	Santa Lucía Utatlán 	7	Santa Rita 	3	Marzo	2023-06-03T00:00:00	2024-11-08T10:00:00	1	Precipitación	0
80384	7	Sololá	704	Santa Lucía Utatlán 	7	Santa Rita 	3	Marzo	2023-06-03T00:00:00	2024-11-08T10:00:00	8	Radiación solar	620
80385	7	Sololá	704	Santa Lucía Utatlán 	7	Santa Rita 	3	Marzo	2023-06-03T00:00:00	2024-11-08T11:00:00	2	Temperatura media	26.3
80386	7	Sololá	704	Santa Lucía Utatlán 	7	Santa Rita 	3	Marzo	2023-06-03T00:00:00	2024-11-08T11:00:00	4	Temperatura máxima	26.3
80387	7	Sololá	704	Santa Lucía Utatlán 	7	Santa Rita 	3	Marzo	2023-06-03T00:00:00	2024-11-08T11:00:00	3	Temperatura mínima	24.7
80388	7	Sololá	704	Santa Lucía Utatlán 	7	Santa Rita 	3	Marzo	2023-06-03T00:00:00	2024-11-08T11:00:00	5	Humedad	40
80389	7	Sololá	704	Santa Lucía Utatlán 	7	Santa Rita 	3	Marzo	2023-06-03T00:00:00	2024-11-08T11:00:00	6	Velocidad del viento	8
80390	7	Sololá	704	Santa Lucía Utatlán 	7	Santa Rita 	3	Marzo	2023-06-03T00:00:00	2024-11-08T11:00:00	7	Dirección del viento	8.05
80391	7	Sololá	704	Santa Lucía Utatlán 	7	Santa Rita 	3	Marzo	2023-06-03T00:00:00	2024-11-08T11:00:00	1	Precipitación	0
80392	7	Sololá	704	Santa Lucía Utatlán 	7	Santa Rita 	3	Marzo	2023-06-03T00:00:00	2024-11-08T11:00:00	8	Radiación solar	704
80393	7	Sololá	704	Santa Lucía Utatlán 	7	Santa Rita 	3	Marzo	2023-06-03T00:00:00	2024-11-08T12:00:00	2	Temperatura media	26.8
80394	7	Sololá	704	Santa Lucía Utatlán 	7	Santa Rita 	3	Marzo	2023-06-03T00:00:00	2024-11-08T12:00:00	4	Temperatura máxima	27.7
80395	7	Sololá	704	Santa Lucía Utatlán 	7	Santa Rita 	3	Marzo	2023-06-03T00:00:00	2024-11-08T12:00:00	3	Temperatura mínima	26.3
80396	7	Sololá	704	Santa Lucía Utatlán 	7	Santa Rita 	3	Marzo	2023-06-03T00:00:00	2024-11-08T12:00:00	5	Humedad	17
80397	7	Sololá	704	Santa Lucía Utatlán 	7	Santa Rita 	3	Marzo	2023-06-03T00:00:00	2024-11-08T12:00:00	6	Velocidad del viento	9.7
80398	7	Sololá	704	Santa Lucía Utatlán 	7	Santa Rita 	3	Marzo	2023-06-03T00:00:00	2024-11-08T12:00:00	7	Dirección del viento	9.66
80399	7	Sololá	704	Santa Lucía Utatlán 	7	Santa Rita 	3	Marzo	2023-06-03T00:00:00	2024-11-08T12:00:00	1	Precipitación	0
80400	7	Sololá	704	Santa Lucía Utatlán 	7	Santa Rita 	3	Marzo	2023-06-03T00:00:00	2024-11-08T12:00:00	8	Radiación solar	906
80401	7	Sololá	704	Santa Lucía Utatlán 	7	Santa Rita 	3	Marzo	2023-06-03T00:00:00	2024-11-08T13:00:00	2	Temperatura media	26.3
80402	7	Sololá	704	Santa Lucía Utatlán 	7	Santa Rita 	3	Marzo	2023-06-03T00:00:00	2024-11-08T13:00:00	4	Temperatura máxima	27.4
80403	7	Sololá	704	Santa Lucía Utatlán 	7	Santa Rita 	3	Marzo	2023-06-03T00:00:00	2024-11-08T13:00:00	3	Temperatura mínima	26.3
80404	7	Sololá	704	Santa Lucía Utatlán 	7	Santa Rita 	3	Marzo	2023-06-03T00:00:00	2024-11-08T13:00:00	5	Humedad	38
80405	7	Sololá	704	Santa Lucía Utatlán 	7	Santa Rita 	3	Marzo	2023-06-03T00:00:00	2024-11-08T13:00:00	6	Velocidad del viento	9.7
80406	7	Sololá	704	Santa Lucía Utatlán 	7	Santa Rita 	3	Marzo	2023-06-03T00:00:00	2024-11-08T13:00:00	7	Dirección del viento	9.66
80407	7	Sololá	704	Santa Lucía Utatlán 	7	Santa Rita 	3	Marzo	2023-06-03T00:00:00	2024-11-08T13:00:00	1	Precipitación	0
80408	7	Sololá	704	Santa Lucía Utatlán 	7	Santa Rita 	3	Marzo	2023-06-03T00:00:00	2024-11-08T13:00:00	8	Radiación solar	897
80409	7	Sololá	704	Santa Lucía Utatlán 	7	Santa Rita 	3	Marzo	2023-06-03T00:00:00	2024-11-08T14:00:00	2	Temperatura media	26.1
80410	7	Sololá	704	Santa Lucía Utatlán 	7	Santa Rita 	3	Marzo	2023-06-03T00:00:00	2024-11-08T14:00:00	4	Temperatura máxima	26.5
80411	7	Sololá	704	Santa Lucía Utatlán 	7	Santa Rita 	3	Marzo	2023-06-03T00:00:00	2024-11-08T14:00:00	3	Temperatura mínima	26.1
80412	7	Sololá	704	Santa Lucía Utatlán 	7	Santa Rita 	3	Marzo	2023-06-03T00:00:00	2024-11-08T14:00:00	5	Humedad	49
80413	7	Sololá	704	Santa Lucía Utatlán 	7	Santa Rita 	3	Marzo	2023-06-03T00:00:00	2024-11-08T14:00:00	6	Velocidad del viento	11.3
80414	7	Sololá	704	Santa Lucía Utatlán 	7	Santa Rita 	3	Marzo	2023-06-03T00:00:00	2024-11-08T14:00:00	7	Dirección del viento	11.27
80415	7	Sololá	704	Santa Lucía Utatlán 	7	Santa Rita 	3	Marzo	2023-06-03T00:00:00	2024-11-08T14:00:00	1	Precipitación	0
80416	7	Sololá	704	Santa Lucía Utatlán 	7	Santa Rita 	3	Marzo	2023-06-03T00:00:00	2024-11-08T14:00:00	8	Radiación solar	831
80417	7	Sololá	704	Santa Lucía Utatlán 	7	Santa Rita 	3	Marzo	2023-06-03T00:00:00	2024-11-08T15:00:00	2	Temperatura media	24.4
80418	7	Sololá	704	Santa Lucía Utatlán 	7	Santa Rita 	3	Marzo	2023-06-03T00:00:00	2024-11-08T15:00:00	4	Temperatura máxima	26.2
80419	7	Sololá	704	Santa Lucía Utatlán 	7	Santa Rita 	3	Marzo	2023-06-03T00:00:00	2024-11-08T15:00:00	3	Temperatura mínima	24.4
80420	7	Sololá	704	Santa Lucía Utatlán 	7	Santa Rita 	3	Marzo	2023-06-03T00:00:00	2024-11-08T15:00:00	5	Humedad	63
80421	7	Sololá	704	Santa Lucía Utatlán 	7	Santa Rita 	3	Marzo	2023-06-03T00:00:00	2024-11-08T15:00:00	6	Velocidad del viento	11.3
80422	7	Sololá	704	Santa Lucía Utatlán 	7	Santa Rita 	3	Marzo	2023-06-03T00:00:00	2024-11-08T15:00:00	7	Dirección del viento	11.27
80423	7	Sololá	704	Santa Lucía Utatlán 	7	Santa Rita 	3	Marzo	2023-06-03T00:00:00	2024-11-08T15:00:00	1	Precipitación	0
80424	7	Sololá	704	Santa Lucía Utatlán 	7	Santa Rita 	3	Marzo	2023-06-03T00:00:00	2024-11-08T15:00:00	8	Radiación solar	769
80425	7	Sololá	704	Santa Lucía Utatlán 	7	Santa Rita 	3	Marzo	2023-06-03T00:00:00	2024-11-08T16:00:00	2	Temperatura media	24.1
80426	7	Sololá	704	Santa Lucía Utatlán 	7	Santa Rita 	3	Marzo	2023-06-03T00:00:00	2024-11-08T16:00:00	4	Temperatura máxima	24.5
80427	7	Sololá	704	Santa Lucía Utatlán 	7	Santa Rita 	3	Marzo	2023-06-03T00:00:00	2024-11-08T16:00:00	3	Temperatura mínima	23.9
80428	7	Sololá	704	Santa Lucía Utatlán 	7	Santa Rita 	3	Marzo	2023-06-03T00:00:00	2024-11-08T16:00:00	5	Humedad	67
80429	7	Sololá	704	Santa Lucía Utatlán 	7	Santa Rita 	3	Marzo	2023-06-03T00:00:00	2024-11-08T16:00:00	6	Velocidad del viento	8
80430	7	Sololá	704	Santa Lucía Utatlán 	7	Santa Rita 	3	Marzo	2023-06-03T00:00:00	2024-11-08T16:00:00	7	Dirección del viento	8.05
80431	7	Sololá	704	Santa Lucía Utatlán 	7	Santa Rita 	3	Marzo	2023-06-03T00:00:00	2024-11-08T16:00:00	1	Precipitación	0
80432	7	Sololá	704	Santa Lucía Utatlán 	7	Santa Rita 	3	Marzo	2023-06-03T00:00:00	2024-11-08T16:00:00	8	Radiación solar	583
80433	7	Sololá	704	Santa Lucía Utatlán 	7	Santa Rita 	3	Marzo	2023-06-03T00:00:00	2024-11-08T17:00:00	2	Temperatura media	22.3
80434	7	Sololá	704	Santa Lucía Utatlán 	7	Santa Rita 	3	Marzo	2023-06-03T00:00:00	2024-11-08T17:00:00	4	Temperatura máxima	24.1
80435	7	Sololá	704	Santa Lucía Utatlán 	7	Santa Rita 	3	Marzo	2023-06-03T00:00:00	2024-11-08T17:00:00	3	Temperatura mínima	22.3
80436	7	Sololá	704	Santa Lucía Utatlán 	7	Santa Rita 	3	Marzo	2023-06-03T00:00:00	2024-11-08T17:00:00	5	Humedad	77
80437	7	Sololá	704	Santa Lucía Utatlán 	7	Santa Rita 	3	Marzo	2023-06-03T00:00:00	2024-11-08T17:00:00	6	Velocidad del viento	6.4
80438	7	Sololá	704	Santa Lucía Utatlán 	7	Santa Rita 	3	Marzo	2023-06-03T00:00:00	2024-11-08T17:00:00	7	Dirección del viento	6.44
80439	7	Sololá	704	Santa Lucía Utatlán 	7	Santa Rita 	3	Marzo	2023-06-03T00:00:00	2024-11-08T17:00:00	1	Precipitación	0
80440	7	Sololá	704	Santa Lucía Utatlán 	7	Santa Rita 	3	Marzo	2023-06-03T00:00:00	2024-11-08T17:00:00	8	Radiación solar	347
80441	7	Sololá	704	Santa Lucía Utatlán 	7	Santa Rita 	3	Marzo	2023-06-03T00:00:00	2024-11-08T18:00:00	2	Temperatura media	20.4
80442	7	Sololá	704	Santa Lucía Utatlán 	7	Santa Rita 	3	Marzo	2023-06-03T00:00:00	2024-11-08T18:00:00	4	Temperatura máxima	22.3
80443	7	Sololá	704	Santa Lucía Utatlán 	7	Santa Rita 	3	Marzo	2023-06-03T00:00:00	2024-11-08T18:00:00	3	Temperatura mínima	20.4
80444	7	Sololá	704	Santa Lucía Utatlán 	7	Santa Rita 	3	Marzo	2023-06-03T00:00:00	2024-11-08T18:00:00	5	Humedad	85
80445	7	Sololá	704	Santa Lucía Utatlán 	7	Santa Rita 	3	Marzo	2023-06-03T00:00:00	2024-11-08T18:00:00	6	Velocidad del viento	4.8
80446	7	Sololá	704	Santa Lucía Utatlán 	7	Santa Rita 	3	Marzo	2023-06-03T00:00:00	2024-11-08T18:00:00	7	Dirección del viento	4.83
80447	7	Sololá	704	Santa Lucía Utatlán 	7	Santa Rita 	3	Marzo	2023-06-03T00:00:00	2024-11-08T18:00:00	1	Precipitación	0
80448	7	Sololá	704	Santa Lucía Utatlán 	7	Santa Rita 	3	Marzo	2023-06-03T00:00:00	2024-11-08T18:00:00	8	Radiación solar	81
80449	7	Sololá	704	Santa Lucía Utatlán 	7	Santa Rita 	3	Marzo	2023-06-03T00:00:00	2024-11-08T19:00:00	2	Temperatura media	20.4
80450	7	Sololá	704	Santa Lucía Utatlán 	7	Santa Rita 	3	Marzo	2023-06-03T00:00:00	2024-11-08T19:00:00	4	Temperatura máxima	20.5
80451	7	Sololá	704	Santa Lucía Utatlán 	7	Santa Rita 	3	Marzo	2023-06-03T00:00:00	2024-11-08T19:00:00	3	Temperatura mínima	20
80452	7	Sololá	704	Santa Lucía Utatlán 	7	Santa Rita 	3	Marzo	2023-06-03T00:00:00	2024-11-08T19:00:00	5	Humedad	75
80453	7	Sololá	704	Santa Lucía Utatlán 	7	Santa Rita 	3	Marzo	2023-06-03T00:00:00	2024-11-08T19:00:00	6	Velocidad del viento	3.2
80454	7	Sololá	704	Santa Lucía Utatlán 	7	Santa Rita 	3	Marzo	2023-06-03T00:00:00	2024-11-08T19:00:00	7	Dirección del viento	3.22
80455	7	Sololá	704	Santa Lucía Utatlán 	7	Santa Rita 	3	Marzo	2023-06-03T00:00:00	2024-11-08T19:00:00	1	Precipitación	0
80456	7	Sololá	704	Santa Lucía Utatlán 	7	Santa Rita 	3	Marzo	2023-06-03T00:00:00	2024-11-08T19:00:00	8	Radiación solar	0
80457	7	Sololá	704	Santa Lucía Utatlán 	7	Santa Rita 	3	Marzo	2023-06-03T00:00:00	2024-11-08T20:00:00	2	Temperatura media	19
80458	7	Sololá	704	Santa Lucía Utatlán 	7	Santa Rita 	3	Marzo	2023-06-03T00:00:00	2024-11-08T20:00:00	4	Temperatura máxima	20.5
80459	7	Sololá	704	Santa Lucía Utatlán 	7	Santa Rita 	3	Marzo	2023-06-03T00:00:00	2024-11-08T20:00:00	3	Temperatura mínima	19
80460	7	Sololá	704	Santa Lucía Utatlán 	7	Santa Rita 	3	Marzo	2023-06-03T00:00:00	2024-11-08T20:00:00	5	Humedad	76
80461	7	Sololá	704	Santa Lucía Utatlán 	7	Santa Rita 	3	Marzo	2023-06-03T00:00:00	2024-11-08T20:00:00	6	Velocidad del viento	3.2
80462	7	Sololá	704	Santa Lucía Utatlán 	7	Santa Rita 	3	Marzo	2023-06-03T00:00:00	2024-11-08T20:00:00	7	Dirección del viento	3.22
80463	7	Sololá	704	Santa Lucía Utatlán 	7	Santa Rita 	3	Marzo	2023-06-03T00:00:00	2024-11-08T20:00:00	1	Precipitación	0
80464	7	Sololá	704	Santa Lucía Utatlán 	7	Santa Rita 	3	Marzo	2023-06-03T00:00:00	2024-11-08T20:00:00	8	Radiación solar	0
80465	7	Sololá	704	Santa Lucía Utatlán 	7	Santa Rita 	3	Marzo	2023-06-03T00:00:00	2024-11-08T21:00:00	2	Temperatura media	16.8
80466	7	Sololá	704	Santa Lucía Utatlán 	7	Santa Rita 	3	Marzo	2023-06-03T00:00:00	2024-11-08T21:00:00	4	Temperatura máxima	19
80467	7	Sololá	704	Santa Lucía Utatlán 	7	Santa Rita 	3	Marzo	2023-06-03T00:00:00	2024-11-08T21:00:00	3	Temperatura mínima	16.8
80468	7	Sololá	704	Santa Lucía Utatlán 	7	Santa Rita 	3	Marzo	2023-06-03T00:00:00	2024-11-08T21:00:00	5	Humedad	79
80469	7	Sololá	704	Santa Lucía Utatlán 	7	Santa Rita 	3	Marzo	2023-06-03T00:00:00	2024-11-08T21:00:00	6	Velocidad del viento	1.6
80470	7	Sololá	704	Santa Lucía Utatlán 	7	Santa Rita 	3	Marzo	2023-06-03T00:00:00	2024-11-08T21:00:00	7	Dirección del viento	1.61
80471	7	Sololá	704	Santa Lucía Utatlán 	7	Santa Rita 	3	Marzo	2023-06-03T00:00:00	2024-11-08T21:00:00	1	Precipitación	0
80472	7	Sololá	704	Santa Lucía Utatlán 	7	Santa Rita 	3	Marzo	2023-06-03T00:00:00	2024-11-08T21:00:00	8	Radiación solar	0
80473	7	Sololá	704	Santa Lucía Utatlán 	7	Santa Rita 	3	Marzo	2023-06-03T00:00:00	2024-11-08T22:00:00	2	Temperatura media	15.9
80474	7	Sololá	704	Santa Lucía Utatlán 	7	Santa Rita 	3	Marzo	2023-06-03T00:00:00	2024-11-08T22:00:00	4	Temperatura máxima	16.8
80475	7	Sololá	704	Santa Lucía Utatlán 	7	Santa Rita 	3	Marzo	2023-06-03T00:00:00	2024-11-08T22:00:00	3	Temperatura mínima	15.9
80476	7	Sololá	704	Santa Lucía Utatlán 	7	Santa Rita 	3	Marzo	2023-06-03T00:00:00	2024-11-08T22:00:00	5	Humedad	73
80477	7	Sololá	704	Santa Lucía Utatlán 	7	Santa Rita 	3	Marzo	2023-06-03T00:00:00	2024-11-08T22:00:00	6	Velocidad del viento	3.2
80478	7	Sololá	704	Santa Lucía Utatlán 	7	Santa Rita 	3	Marzo	2023-06-03T00:00:00	2024-11-08T22:00:00	7	Dirección del viento	3.22
80479	7	Sololá	704	Santa Lucía Utatlán 	7	Santa Rita 	3	Marzo	2023-06-03T00:00:00	2024-11-08T22:00:00	1	Precipitación	0
80480	7	Sololá	704	Santa Lucía Utatlán 	7	Santa Rita 	3	Marzo	2023-06-03T00:00:00	2024-11-08T22:00:00	8	Radiación solar	0
80481	7	Sololá	704	Santa Lucía Utatlán 	7	Santa Rita 	3	Marzo	2023-06-03T00:00:00	2024-11-08T23:00:00	2	Temperatura media	15.6
80482	7	Sololá	704	Santa Lucía Utatlán 	7	Santa Rita 	3	Marzo	2023-06-03T00:00:00	2024-11-08T23:00:00	4	Temperatura máxima	15.9
80483	7	Sololá	704	Santa Lucía Utatlán 	7	Santa Rita 	3	Marzo	2023-06-03T00:00:00	2024-11-08T23:00:00	3	Temperatura mínima	15.4
80484	7	Sololá	704	Santa Lucía Utatlán 	7	Santa Rita 	3	Marzo	2023-06-03T00:00:00	2024-11-08T23:00:00	5	Humedad	59
80485	7	Sololá	704	Santa Lucía Utatlán 	7	Santa Rita 	3	Marzo	2023-06-03T00:00:00	2024-11-08T23:00:00	6	Velocidad del viento	4.8
80486	7	Sololá	704	Santa Lucía Utatlán 	7	Santa Rita 	3	Marzo	2023-06-03T00:00:00	2024-11-08T23:00:00	7	Dirección del viento	4.83
80487	7	Sololá	704	Santa Lucía Utatlán 	7	Santa Rita 	3	Marzo	2023-06-03T00:00:00	2024-11-08T23:00:00	1	Precipitación	0
80488	7	Sololá	704	Santa Lucía Utatlán 	7	Santa Rita 	3	Marzo	2023-06-03T00:00:00	2024-11-08T23:00:00	8	Radiación solar	0
80489	7	Sololá	704	Santa Lucía Utatlán 	7	Santa Rita 	3	Marzo	2023-07-03T00:00:00	2024-11-08T00:00:00	2	Temperatura media	15.1
80490	7	Sololá	704	Santa Lucía Utatlán 	7	Santa Rita 	3	Marzo	2023-07-03T00:00:00	2024-11-08T00:00:00	4	Temperatura máxima	15.7
80491	7	Sololá	704	Santa Lucía Utatlán 	7	Santa Rita 	3	Marzo	2023-07-03T00:00:00	2024-11-08T00:00:00	3	Temperatura mínima	15.1
80492	7	Sololá	704	Santa Lucía Utatlán 	7	Santa Rita 	3	Marzo	2023-07-03T00:00:00	2024-11-08T00:00:00	5	Humedad	54
80493	7	Sololá	704	Santa Lucía Utatlán 	7	Santa Rita 	3	Marzo	2023-07-03T00:00:00	2024-11-08T00:00:00	6	Velocidad del viento	3.2
80494	7	Sololá	704	Santa Lucía Utatlán 	7	Santa Rita 	3	Marzo	2023-07-03T00:00:00	2024-11-08T00:00:00	7	Dirección del viento	3.22
80495	7	Sololá	704	Santa Lucía Utatlán 	7	Santa Rita 	3	Marzo	2023-07-03T00:00:00	2024-11-08T00:00:00	1	Precipitación	0
80496	7	Sololá	704	Santa Lucía Utatlán 	7	Santa Rita 	3	Marzo	2023-07-03T00:00:00	2024-11-08T00:00:00	8	Radiación solar	0
80497	7	Sololá	704	Santa Lucía Utatlán 	7	Santa Rita 	3	Marzo	2023-07-03T00:00:00	2024-11-08T01:00:00	2	Temperatura media	14.6
80498	7	Sololá	704	Santa Lucía Utatlán 	7	Santa Rita 	3	Marzo	2023-07-03T00:00:00	2024-11-08T01:00:00	4	Temperatura máxima	15.1
80499	7	Sololá	704	Santa Lucía Utatlán 	7	Santa Rita 	3	Marzo	2023-07-03T00:00:00	2024-11-08T01:00:00	3	Temperatura mínima	14.3
80500	7	Sololá	704	Santa Lucía Utatlán 	7	Santa Rita 	3	Marzo	2023-07-03T00:00:00	2024-11-08T01:00:00	5	Humedad	52
80501	7	Sololá	704	Santa Lucía Utatlán 	7	Santa Rita 	3	Marzo	2023-07-03T00:00:00	2024-11-08T01:00:00	6	Velocidad del viento	3.2
80502	7	Sololá	704	Santa Lucía Utatlán 	7	Santa Rita 	3	Marzo	2023-07-03T00:00:00	2024-11-08T01:00:00	7	Dirección del viento	3.22
80503	7	Sololá	704	Santa Lucía Utatlán 	7	Santa Rita 	3	Marzo	2023-07-03T00:00:00	2024-11-08T01:00:00	1	Precipitación	0
80504	7	Sololá	704	Santa Lucía Utatlán 	7	Santa Rita 	3	Marzo	2023-07-03T00:00:00	2024-11-08T01:00:00	8	Radiación solar	0
80505	7	Sololá	704	Santa Lucía Utatlán 	7	Santa Rita 	3	Marzo	2023-07-03T00:00:00	2024-11-08T02:00:00	2	Temperatura media	14.2
80506	7	Sololá	704	Santa Lucía Utatlán 	7	Santa Rita 	3	Marzo	2023-07-03T00:00:00	2024-11-08T02:00:00	4	Temperatura máxima	14.7
80507	7	Sololá	704	Santa Lucía Utatlán 	7	Santa Rita 	3	Marzo	2023-07-03T00:00:00	2024-11-08T02:00:00	3	Temperatura mínima	14.2
80508	7	Sololá	704	Santa Lucía Utatlán 	7	Santa Rita 	3	Marzo	2023-07-03T00:00:00	2024-11-08T02:00:00	5	Humedad	58
80509	7	Sololá	704	Santa Lucía Utatlán 	7	Santa Rita 	3	Marzo	2023-07-03T00:00:00	2024-11-08T02:00:00	6	Velocidad del viento	3.2
80510	7	Sololá	704	Santa Lucía Utatlán 	7	Santa Rita 	3	Marzo	2023-07-03T00:00:00	2024-11-08T02:00:00	7	Dirección del viento	3.22
80511	7	Sololá	704	Santa Lucía Utatlán 	7	Santa Rita 	3	Marzo	2023-07-03T00:00:00	2024-11-08T02:00:00	1	Precipitación	0
80512	7	Sololá	704	Santa Lucía Utatlán 	7	Santa Rita 	3	Marzo	2023-07-03T00:00:00	2024-11-08T02:00:00	8	Radiación solar	0
80513	7	Sololá	704	Santa Lucía Utatlán 	7	Santa Rita 	3	Marzo	2023-07-03T00:00:00	2024-11-08T03:00:00	2	Temperatura media	13.7
80514	7	Sololá	704	Santa Lucía Utatlán 	7	Santa Rita 	3	Marzo	2023-07-03T00:00:00	2024-11-08T03:00:00	4	Temperatura máxima	14.2
80515	7	Sololá	704	Santa Lucía Utatlán 	7	Santa Rita 	3	Marzo	2023-07-03T00:00:00	2024-11-08T03:00:00	3	Temperatura mínima	13.7
80516	7	Sololá	704	Santa Lucía Utatlán 	7	Santa Rita 	3	Marzo	2023-07-03T00:00:00	2024-11-08T03:00:00	5	Humedad	61
80517	7	Sololá	704	Santa Lucía Utatlán 	7	Santa Rita 	3	Marzo	2023-07-03T00:00:00	2024-11-08T03:00:00	6	Velocidad del viento	3.2
80518	7	Sololá	704	Santa Lucía Utatlán 	7	Santa Rita 	3	Marzo	2023-07-03T00:00:00	2024-11-08T03:00:00	7	Dirección del viento	3.22
80519	7	Sololá	704	Santa Lucía Utatlán 	7	Santa Rita 	3	Marzo	2023-07-03T00:00:00	2024-11-08T03:00:00	1	Precipitación	0
80520	7	Sololá	704	Santa Lucía Utatlán 	7	Santa Rita 	3	Marzo	2023-07-03T00:00:00	2024-11-08T03:00:00	8	Radiación solar	0
80521	7	Sololá	704	Santa Lucía Utatlán 	7	Santa Rita 	3	Marzo	2023-07-03T00:00:00	2024-11-08T04:00:00	2	Temperatura media	13.7
80522	7	Sololá	704	Santa Lucía Utatlán 	7	Santa Rita 	3	Marzo	2023-07-03T00:00:00	2024-11-08T04:00:00	4	Temperatura máxima	13.7
80523	7	Sololá	704	Santa Lucía Utatlán 	7	Santa Rita 	3	Marzo	2023-07-03T00:00:00	2024-11-08T04:00:00	3	Temperatura mínima	13.4
80524	7	Sololá	704	Santa Lucía Utatlán 	7	Santa Rita 	3	Marzo	2023-07-03T00:00:00	2024-11-08T04:00:00	5	Humedad	64
80525	7	Sololá	704	Santa Lucía Utatlán 	7	Santa Rita 	3	Marzo	2023-07-03T00:00:00	2024-11-08T04:00:00	6	Velocidad del viento	3.2
80526	7	Sololá	704	Santa Lucía Utatlán 	7	Santa Rita 	3	Marzo	2023-07-03T00:00:00	2024-11-08T04:00:00	7	Dirección del viento	3.22
80527	7	Sololá	704	Santa Lucía Utatlán 	7	Santa Rita 	3	Marzo	2023-07-03T00:00:00	2024-11-08T04:00:00	1	Precipitación	0
80528	7	Sololá	704	Santa Lucía Utatlán 	7	Santa Rita 	3	Marzo	2023-07-03T00:00:00	2024-11-08T04:00:00	8	Radiación solar	0
80529	7	Sololá	704	Santa Lucía Utatlán 	7	Santa Rita 	3	Marzo	2023-07-03T00:00:00	2024-11-08T05:00:00	2	Temperatura media	14.6
80530	7	Sololá	704	Santa Lucía Utatlán 	7	Santa Rita 	3	Marzo	2023-07-03T00:00:00	2024-11-08T05:00:00	4	Temperatura máxima	14.6
80531	7	Sololá	704	Santa Lucía Utatlán 	7	Santa Rita 	3	Marzo	2023-07-03T00:00:00	2024-11-08T05:00:00	3	Temperatura mínima	13.6
80532	7	Sololá	704	Santa Lucía Utatlán 	7	Santa Rita 	3	Marzo	2023-07-03T00:00:00	2024-11-08T05:00:00	5	Humedad	54
80533	7	Sololá	704	Santa Lucía Utatlán 	7	Santa Rita 	3	Marzo	2023-07-03T00:00:00	2024-11-08T05:00:00	6	Velocidad del viento	1.6
80534	7	Sololá	704	Santa Lucía Utatlán 	7	Santa Rita 	3	Marzo	2023-07-03T00:00:00	2024-11-08T05:00:00	7	Dirección del viento	1.61
80535	7	Sololá	704	Santa Lucía Utatlán 	7	Santa Rita 	3	Marzo	2023-07-03T00:00:00	2024-11-08T05:00:00	1	Precipitación	0
80536	7	Sololá	704	Santa Lucía Utatlán 	7	Santa Rita 	3	Marzo	2023-07-03T00:00:00	2024-11-08T05:00:00	8	Radiación solar	0
80537	7	Sololá	704	Santa Lucía Utatlán 	7	Santa Rita 	3	Marzo	2023-07-03T00:00:00	2024-11-08T06:00:00	2	Temperatura media	15.4
80538	7	Sololá	704	Santa Lucía Utatlán 	7	Santa Rita 	3	Marzo	2023-07-03T00:00:00	2024-11-08T06:00:00	4	Temperatura máxima	15.4
80539	7	Sololá	704	Santa Lucía Utatlán 	7	Santa Rita 	3	Marzo	2023-07-03T00:00:00	2024-11-08T06:00:00	3	Temperatura mínima	14.6
80540	7	Sololá	704	Santa Lucía Utatlán 	7	Santa Rita 	3	Marzo	2023-07-03T00:00:00	2024-11-08T06:00:00	5	Humedad	58
80541	7	Sololá	704	Santa Lucía Utatlán 	7	Santa Rita 	3	Marzo	2023-07-03T00:00:00	2024-11-08T06:00:00	6	Velocidad del viento	3.2
80542	7	Sololá	704	Santa Lucía Utatlán 	7	Santa Rita 	3	Marzo	2023-07-03T00:00:00	2024-11-08T06:00:00	7	Dirección del viento	3.22
80543	7	Sololá	704	Santa Lucía Utatlán 	7	Santa Rita 	3	Marzo	2023-07-03T00:00:00	2024-11-08T06:00:00	1	Precipitación	0
80544	7	Sololá	704	Santa Lucía Utatlán 	7	Santa Rita 	3	Marzo	2023-07-03T00:00:00	2024-11-08T06:00:00	8	Radiación solar	0
80545	7	Sololá	704	Santa Lucía Utatlán 	7	Santa Rita 	3	Marzo	2023-07-03T00:00:00	2024-11-08T07:00:00	2	Temperatura media	15.6
80546	7	Sololá	704	Santa Lucía Utatlán 	7	Santa Rita 	3	Marzo	2023-07-03T00:00:00	2024-11-08T07:00:00	4	Temperatura máxima	15.6
80547	7	Sololá	704	Santa Lucía Utatlán 	7	Santa Rita 	3	Marzo	2023-07-03T00:00:00	2024-11-08T07:00:00	3	Temperatura mínima	15.1
80548	7	Sololá	704	Santa Lucía Utatlán 	7	Santa Rita 	3	Marzo	2023-07-03T00:00:00	2024-11-08T07:00:00	5	Humedad	59
80549	7	Sololá	704	Santa Lucía Utatlán 	7	Santa Rita 	3	Marzo	2023-07-03T00:00:00	2024-11-08T07:00:00	6	Velocidad del viento	4.8
80550	7	Sololá	704	Santa Lucía Utatlán 	7	Santa Rita 	3	Marzo	2023-07-03T00:00:00	2024-11-08T07:00:00	7	Dirección del viento	4.83
80551	7	Sololá	704	Santa Lucía Utatlán 	7	Santa Rita 	3	Marzo	2023-07-03T00:00:00	2024-11-08T07:00:00	1	Precipitación	0
80552	7	Sololá	704	Santa Lucía Utatlán 	7	Santa Rita 	3	Marzo	2023-07-03T00:00:00	2024-11-08T07:00:00	8	Radiación solar	22
80553	7	Sololá	704	Santa Lucía Utatlán 	7	Santa Rita 	3	Marzo	2023-07-03T00:00:00	2024-11-08T08:00:00	2	Temperatura media	16.9
80554	7	Sololá	704	Santa Lucía Utatlán 	7	Santa Rita 	3	Marzo	2023-07-03T00:00:00	2024-11-08T08:00:00	4	Temperatura máxima	16.9
80555	7	Sololá	704	Santa Lucía Utatlán 	7	Santa Rita 	3	Marzo	2023-07-03T00:00:00	2024-11-08T08:00:00	3	Temperatura mínima	15.6
80556	7	Sololá	704	Santa Lucía Utatlán 	7	Santa Rita 	3	Marzo	2023-07-03T00:00:00	2024-11-08T08:00:00	5	Humedad	59
80557	7	Sololá	704	Santa Lucía Utatlán 	7	Santa Rita 	3	Marzo	2023-07-03T00:00:00	2024-11-08T08:00:00	6	Velocidad del viento	0
80558	7	Sololá	704	Santa Lucía Utatlán 	7	Santa Rita 	3	Marzo	2023-07-03T00:00:00	2024-11-08T08:00:00	7	Dirección del viento	0
80559	7	Sololá	704	Santa Lucía Utatlán 	7	Santa Rita 	3	Marzo	2023-07-03T00:00:00	2024-11-08T08:00:00	1	Precipitación	0
80560	7	Sololá	704	Santa Lucía Utatlán 	7	Santa Rita 	3	Marzo	2023-07-03T00:00:00	2024-11-08T08:00:00	8	Radiación solar	141
80561	7	Sololá	704	Santa Lucía Utatlán 	7	Santa Rita 	3	Marzo	2023-07-03T00:00:00	2024-11-08T09:00:00	2	Temperatura media	19.1
80562	7	Sololá	704	Santa Lucía Utatlán 	7	Santa Rita 	3	Marzo	2023-07-03T00:00:00	2024-11-08T09:00:00	4	Temperatura máxima	19.1
80563	7	Sololá	704	Santa Lucía Utatlán 	7	Santa Rita 	3	Marzo	2023-07-03T00:00:00	2024-11-08T09:00:00	3	Temperatura mínima	16.9
80564	7	Sololá	704	Santa Lucía Utatlán 	7	Santa Rita 	3	Marzo	2023-07-03T00:00:00	2024-11-08T09:00:00	5	Humedad	61
80565	7	Sololá	704	Santa Lucía Utatlán 	7	Santa Rita 	3	Marzo	2023-07-03T00:00:00	2024-11-08T09:00:00	6	Velocidad del viento	0
80566	7	Sololá	704	Santa Lucía Utatlán 	7	Santa Rita 	3	Marzo	2023-07-03T00:00:00	2024-11-08T09:00:00	7	Dirección del viento	0
80567	7	Sololá	704	Santa Lucía Utatlán 	7	Santa Rita 	3	Marzo	2023-07-03T00:00:00	2024-11-08T09:00:00	1	Precipitación	0
80568	7	Sololá	704	Santa Lucía Utatlán 	7	Santa Rita 	3	Marzo	2023-07-03T00:00:00	2024-11-08T09:00:00	8	Radiación solar	221
80569	7	Sololá	704	Santa Lucía Utatlán 	7	Santa Rita 	3	Marzo	2023-07-03T00:00:00	2024-11-08T10:00:00	2	Temperatura media	21.7
80570	7	Sololá	704	Santa Lucía Utatlán 	7	Santa Rita 	3	Marzo	2023-07-03T00:00:00	2024-11-08T10:00:00	4	Temperatura máxima	21.7
80571	7	Sololá	704	Santa Lucía Utatlán 	7	Santa Rita 	3	Marzo	2023-07-03T00:00:00	2024-11-08T10:00:00	3	Temperatura mínima	19.1
80572	7	Sololá	704	Santa Lucía Utatlán 	7	Santa Rita 	3	Marzo	2023-07-03T00:00:00	2024-11-08T10:00:00	5	Humedad	53
80573	7	Sololá	704	Santa Lucía Utatlán 	7	Santa Rita 	3	Marzo	2023-07-03T00:00:00	2024-11-08T10:00:00	6	Velocidad del viento	3.2
80574	7	Sololá	704	Santa Lucía Utatlán 	7	Santa Rita 	3	Marzo	2023-07-03T00:00:00	2024-11-08T10:00:00	7	Dirección del viento	3.22
80575	7	Sololá	704	Santa Lucía Utatlán 	7	Santa Rita 	3	Marzo	2023-07-03T00:00:00	2024-11-08T10:00:00	1	Precipitación	0
80576	7	Sololá	704	Santa Lucía Utatlán 	7	Santa Rita 	3	Marzo	2023-07-03T00:00:00	2024-11-08T10:00:00	8	Radiación solar	530
80577	7	Sololá	704	Santa Lucía Utatlán 	7	Santa Rita 	3	Marzo	2023-07-03T00:00:00	2024-11-08T11:00:00	2	Temperatura media	22.8
80578	7	Sololá	704	Santa Lucía Utatlán 	7	Santa Rita 	3	Marzo	2023-07-03T00:00:00	2024-11-08T11:00:00	4	Temperatura máxima	22.8
80579	7	Sololá	704	Santa Lucía Utatlán 	7	Santa Rita 	3	Marzo	2023-07-03T00:00:00	2024-11-08T11:00:00	3	Temperatura mínima	21.6
80580	7	Sololá	704	Santa Lucía Utatlán 	7	Santa Rita 	3	Marzo	2023-07-03T00:00:00	2024-11-08T11:00:00	5	Humedad	61
80581	7	Sololá	704	Santa Lucía Utatlán 	7	Santa Rita 	3	Marzo	2023-07-03T00:00:00	2024-11-08T11:00:00	6	Velocidad del viento	6.4
80582	7	Sololá	704	Santa Lucía Utatlán 	7	Santa Rita 	3	Marzo	2023-07-03T00:00:00	2024-11-08T11:00:00	7	Dirección del viento	6.44
80583	7	Sololá	704	Santa Lucía Utatlán 	7	Santa Rita 	3	Marzo	2023-07-03T00:00:00	2024-11-08T11:00:00	1	Precipitación	0
80584	7	Sololá	704	Santa Lucía Utatlán 	7	Santa Rita 	3	Marzo	2023-07-03T00:00:00	2024-11-08T11:00:00	8	Radiación solar	672
80585	7	Sololá	704	Santa Lucía Utatlán 	7	Santa Rita 	3	Marzo	2023-07-03T00:00:00	2024-11-08T12:00:00	2	Temperatura media	21.7
80586	7	Sololá	704	Santa Lucía Utatlán 	7	Santa Rita 	3	Marzo	2023-07-03T00:00:00	2024-11-08T12:00:00	4	Temperatura máxima	23.2
80587	7	Sololá	704	Santa Lucía Utatlán 	7	Santa Rita 	3	Marzo	2023-07-03T00:00:00	2024-11-08T12:00:00	3	Temperatura mínima	21.7
80588	7	Sololá	704	Santa Lucía Utatlán 	7	Santa Rita 	3	Marzo	2023-07-03T00:00:00	2024-11-08T12:00:00	5	Humedad	67
80589	7	Sololá	704	Santa Lucía Utatlán 	7	Santa Rita 	3	Marzo	2023-07-03T00:00:00	2024-11-08T12:00:00	6	Velocidad del viento	8
80590	7	Sololá	704	Santa Lucía Utatlán 	7	Santa Rita 	3	Marzo	2023-07-03T00:00:00	2024-11-08T12:00:00	7	Dirección del viento	8.05
80591	7	Sololá	704	Santa Lucía Utatlán 	7	Santa Rita 	3	Marzo	2023-07-03T00:00:00	2024-11-08T12:00:00	1	Precipitación	0
80592	7	Sololá	704	Santa Lucía Utatlán 	7	Santa Rita 	3	Marzo	2023-07-03T00:00:00	2024-11-08T12:00:00	8	Radiación solar	498
80593	7	Sololá	704	Santa Lucía Utatlán 	7	Santa Rita 	3	Marzo	2023-07-03T00:00:00	2024-11-08T13:00:00	2	Temperatura media	22.7
80594	7	Sololá	704	Santa Lucía Utatlán 	7	Santa Rita 	3	Marzo	2023-07-03T00:00:00	2024-11-08T13:00:00	4	Temperatura máxima	22.7
80595	7	Sololá	704	Santa Lucía Utatlán 	7	Santa Rita 	3	Marzo	2023-07-03T00:00:00	2024-11-08T13:00:00	3	Temperatura mínima	21.7
80596	7	Sololá	704	Santa Lucía Utatlán 	7	Santa Rita 	3	Marzo	2023-07-03T00:00:00	2024-11-08T13:00:00	5	Humedad	69
80597	7	Sololá	704	Santa Lucía Utatlán 	7	Santa Rita 	3	Marzo	2023-07-03T00:00:00	2024-11-08T13:00:00	6	Velocidad del viento	4.8
80598	7	Sololá	704	Santa Lucía Utatlán 	7	Santa Rita 	3	Marzo	2023-07-03T00:00:00	2024-11-08T13:00:00	7	Dirección del viento	4.83
80599	7	Sololá	704	Santa Lucía Utatlán 	7	Santa Rita 	3	Marzo	2023-07-03T00:00:00	2024-11-08T13:00:00	1	Precipitación	0
80600	7	Sololá	704	Santa Lucía Utatlán 	7	Santa Rita 	3	Marzo	2023-07-03T00:00:00	2024-11-08T13:00:00	8	Radiación solar	385
80601	7	Sololá	704	Santa Lucía Utatlán 	7	Santa Rita 	3	Marzo	2023-07-03T00:00:00	2024-11-08T14:00:00	2	Temperatura media	22.7
80602	7	Sololá	704	Santa Lucía Utatlán 	7	Santa Rita 	3	Marzo	2023-07-03T00:00:00	2024-11-08T14:00:00	4	Temperatura máxima	22.9
80603	7	Sololá	704	Santa Lucía Utatlán 	7	Santa Rita 	3	Marzo	2023-07-03T00:00:00	2024-11-08T14:00:00	3	Temperatura mínima	22.3
80604	7	Sololá	704	Santa Lucía Utatlán 	7	Santa Rita 	3	Marzo	2023-07-03T00:00:00	2024-11-08T14:00:00	5	Humedad	71
80605	7	Sololá	704	Santa Lucía Utatlán 	7	Santa Rita 	3	Marzo	2023-07-03T00:00:00	2024-11-08T14:00:00	6	Velocidad del viento	6.4
80606	7	Sololá	704	Santa Lucía Utatlán 	7	Santa Rita 	3	Marzo	2023-07-03T00:00:00	2024-11-08T14:00:00	7	Dirección del viento	6.44
80607	7	Sololá	704	Santa Lucía Utatlán 	7	Santa Rita 	3	Marzo	2023-07-03T00:00:00	2024-11-08T14:00:00	1	Precipitación	0
80608	7	Sololá	704	Santa Lucía Utatlán 	7	Santa Rita 	3	Marzo	2023-07-03T00:00:00	2024-11-08T14:00:00	8	Radiación solar	395
80609	7	Sololá	704	Santa Lucía Utatlán 	7	Santa Rita 	3	Marzo	2023-07-03T00:00:00	2024-11-08T15:00:00	2	Temperatura media	22.3
80610	7	Sololá	704	Santa Lucía Utatlán 	7	Santa Rita 	3	Marzo	2023-07-03T00:00:00	2024-11-08T15:00:00	4	Temperatura máxima	22.7
80611	7	Sololá	704	Santa Lucía Utatlán 	7	Santa Rita 	3	Marzo	2023-07-03T00:00:00	2024-11-08T15:00:00	3	Temperatura mínima	21.8
80612	7	Sololá	704	Santa Lucía Utatlán 	7	Santa Rita 	3	Marzo	2023-07-03T00:00:00	2024-11-08T15:00:00	5	Humedad	73
80613	7	Sololá	704	Santa Lucía Utatlán 	7	Santa Rita 	3	Marzo	2023-07-03T00:00:00	2024-11-08T15:00:00	6	Velocidad del viento	4.8
80614	7	Sololá	704	Santa Lucía Utatlán 	7	Santa Rita 	3	Marzo	2023-07-03T00:00:00	2024-11-08T15:00:00	7	Dirección del viento	4.83
80615	7	Sololá	704	Santa Lucía Utatlán 	7	Santa Rita 	3	Marzo	2023-07-03T00:00:00	2024-11-08T15:00:00	1	Precipitación	0
80616	7	Sololá	704	Santa Lucía Utatlán 	7	Santa Rita 	3	Marzo	2023-07-03T00:00:00	2024-11-08T15:00:00	8	Radiación solar	272
80617	7	Sololá	704	Santa Lucía Utatlán 	7	Santa Rita 	3	Marzo	2023-07-03T00:00:00	2024-11-08T16:00:00	2	Temperatura media	20.6
80618	7	Sololá	704	Santa Lucía Utatlán 	7	Santa Rita 	3	Marzo	2023-07-03T00:00:00	2024-11-08T16:00:00	4	Temperatura máxima	22.3
80619	7	Sololá	704	Santa Lucía Utatlán 	7	Santa Rita 	3	Marzo	2023-07-03T00:00:00	2024-11-08T16:00:00	3	Temperatura mínima	20.6
80620	7	Sololá	704	Santa Lucía Utatlán 	7	Santa Rita 	3	Marzo	2023-07-03T00:00:00	2024-11-08T16:00:00	5	Humedad	82
80621	7	Sololá	704	Santa Lucía Utatlán 	7	Santa Rita 	3	Marzo	2023-07-03T00:00:00	2024-11-08T16:00:00	6	Velocidad del viento	4.8
80622	7	Sololá	704	Santa Lucía Utatlán 	7	Santa Rita 	3	Marzo	2023-07-03T00:00:00	2024-11-08T16:00:00	7	Dirección del viento	4.83
80623	7	Sololá	704	Santa Lucía Utatlán 	7	Santa Rita 	3	Marzo	2023-07-03T00:00:00	2024-11-08T16:00:00	1	Precipitación	0
80624	7	Sololá	704	Santa Lucía Utatlán 	7	Santa Rita 	3	Marzo	2023-07-03T00:00:00	2024-11-08T16:00:00	8	Radiación solar	123
80625	7	Sololá	704	Santa Lucía Utatlán 	7	Santa Rita 	3	Marzo	2023-07-03T00:00:00	2024-11-08T17:00:00	2	Temperatura media	20
80626	7	Sololá	704	Santa Lucía Utatlán 	7	Santa Rita 	3	Marzo	2023-07-03T00:00:00	2024-11-08T17:00:00	4	Temperatura máxima	20.6
80627	7	Sololá	704	Santa Lucía Utatlán 	7	Santa Rita 	3	Marzo	2023-07-03T00:00:00	2024-11-08T17:00:00	3	Temperatura mínima	20
80628	7	Sololá	704	Santa Lucía Utatlán 	7	Santa Rita 	3	Marzo	2023-07-03T00:00:00	2024-11-08T17:00:00	5	Humedad	84
80629	7	Sololá	704	Santa Lucía Utatlán 	7	Santa Rita 	3	Marzo	2023-07-03T00:00:00	2024-11-08T17:00:00	6	Velocidad del viento	1.6
80630	7	Sololá	704	Santa Lucía Utatlán 	7	Santa Rita 	3	Marzo	2023-07-03T00:00:00	2024-11-08T17:00:00	7	Dirección del viento	1.61
80631	7	Sololá	704	Santa Lucía Utatlán 	7	Santa Rita 	3	Marzo	2023-07-03T00:00:00	2024-11-08T17:00:00	1	Precipitación	0
80632	7	Sololá	704	Santa Lucía Utatlán 	7	Santa Rita 	3	Marzo	2023-07-03T00:00:00	2024-11-08T17:00:00	8	Radiación solar	38
80633	7	Sololá	704	Santa Lucía Utatlán 	7	Santa Rita 	3	Marzo	2023-07-03T00:00:00	2024-11-08T18:00:00	2	Temperatura media	19.7
80634	7	Sololá	704	Santa Lucía Utatlán 	7	Santa Rita 	3	Marzo	2023-07-03T00:00:00	2024-11-08T18:00:00	4	Temperatura máxima	20.1
80635	7	Sololá	704	Santa Lucía Utatlán 	7	Santa Rita 	3	Marzo	2023-07-03T00:00:00	2024-11-08T18:00:00	3	Temperatura mínima	19.7
80636	7	Sololá	704	Santa Lucía Utatlán 	7	Santa Rita 	3	Marzo	2023-07-03T00:00:00	2024-11-08T18:00:00	5	Humedad	86
80637	7	Sololá	704	Santa Lucía Utatlán 	7	Santa Rita 	3	Marzo	2023-07-03T00:00:00	2024-11-08T18:00:00	6	Velocidad del viento	1.6
80638	7	Sololá	704	Santa Lucía Utatlán 	7	Santa Rita 	3	Marzo	2023-07-03T00:00:00	2024-11-08T18:00:00	7	Dirección del viento	1.61
80639	7	Sololá	704	Santa Lucía Utatlán 	7	Santa Rita 	3	Marzo	2023-07-03T00:00:00	2024-11-08T18:00:00	1	Precipitación	0
80640	7	Sololá	704	Santa Lucía Utatlán 	7	Santa Rita 	3	Marzo	2023-07-03T00:00:00	2024-11-08T18:00:00	8	Radiación solar	35
80641	7	Sololá	704	Santa Lucía Utatlán 	7	Santa Rita 	3	Marzo	2023-07-03T00:00:00	2024-11-08T19:00:00	2	Temperatura media	19.1
80642	7	Sololá	704	Santa Lucía Utatlán 	7	Santa Rita 	3	Marzo	2023-07-03T00:00:00	2024-11-08T19:00:00	4	Temperatura máxima	19.7
80643	7	Sololá	704	Santa Lucía Utatlán 	7	Santa Rita 	3	Marzo	2023-07-03T00:00:00	2024-11-08T19:00:00	3	Temperatura mínima	19.1
80644	7	Sololá	704	Santa Lucía Utatlán 	7	Santa Rita 	3	Marzo	2023-07-03T00:00:00	2024-11-08T19:00:00	5	Humedad	89
80645	7	Sololá	704	Santa Lucía Utatlán 	7	Santa Rita 	3	Marzo	2023-07-03T00:00:00	2024-11-08T19:00:00	6	Velocidad del viento	1.6
80646	7	Sololá	704	Santa Lucía Utatlán 	7	Santa Rita 	3	Marzo	2023-07-03T00:00:00	2024-11-08T19:00:00	7	Dirección del viento	1.61
80647	7	Sololá	704	Santa Lucía Utatlán 	7	Santa Rita 	3	Marzo	2023-07-03T00:00:00	2024-11-08T19:00:00	1	Precipitación	0
80648	7	Sololá	704	Santa Lucía Utatlán 	7	Santa Rita 	3	Marzo	2023-07-03T00:00:00	2024-11-08T19:00:00	8	Radiación solar	0
80649	7	Sololá	704	Santa Lucía Utatlán 	7	Santa Rita 	3	Marzo	2023-07-03T00:00:00	2024-11-08T20:00:00	2	Temperatura media	17.9
80650	7	Sololá	704	Santa Lucía Utatlán 	7	Santa Rita 	3	Marzo	2023-07-03T00:00:00	2024-11-08T20:00:00	4	Temperatura máxima	19.1
80651	7	Sololá	704	Santa Lucía Utatlán 	7	Santa Rita 	3	Marzo	2023-07-03T00:00:00	2024-11-08T20:00:00	3	Temperatura mínima	17.9
80652	7	Sololá	704	Santa Lucía Utatlán 	7	Santa Rita 	3	Marzo	2023-07-03T00:00:00	2024-11-08T20:00:00	5	Humedad	86
80653	7	Sololá	704	Santa Lucía Utatlán 	7	Santa Rita 	3	Marzo	2023-07-03T00:00:00	2024-11-08T20:00:00	6	Velocidad del viento	0
80654	7	Sololá	704	Santa Lucía Utatlán 	7	Santa Rita 	3	Marzo	2023-07-03T00:00:00	2024-11-08T20:00:00	7	Dirección del viento	0
80655	7	Sololá	704	Santa Lucía Utatlán 	7	Santa Rita 	3	Marzo	2023-07-03T00:00:00	2024-11-08T20:00:00	1	Precipitación	0
80656	7	Sololá	704	Santa Lucía Utatlán 	7	Santa Rita 	3	Marzo	2023-07-03T00:00:00	2024-11-08T20:00:00	8	Radiación solar	0
80657	7	Sololá	704	Santa Lucía Utatlán 	7	Santa Rita 	3	Marzo	2023-07-03T00:00:00	2024-11-08T21:00:00	2	Temperatura media	17
80658	7	Sololá	704	Santa Lucía Utatlán 	7	Santa Rita 	3	Marzo	2023-07-03T00:00:00	2024-11-08T21:00:00	4	Temperatura máxima	17.9
80659	7	Sololá	704	Santa Lucía Utatlán 	7	Santa Rita 	3	Marzo	2023-07-03T00:00:00	2024-11-08T21:00:00	3	Temperatura mínima	17
80660	7	Sololá	704	Santa Lucía Utatlán 	7	Santa Rita 	3	Marzo	2023-07-03T00:00:00	2024-11-08T21:00:00	5	Humedad	84
80661	7	Sololá	704	Santa Lucía Utatlán 	7	Santa Rita 	3	Marzo	2023-07-03T00:00:00	2024-11-08T21:00:00	6	Velocidad del viento	0
80662	7	Sololá	704	Santa Lucía Utatlán 	7	Santa Rita 	3	Marzo	2023-07-03T00:00:00	2024-11-08T21:00:00	7	Dirección del viento	0
80663	7	Sololá	704	Santa Lucía Utatlán 	7	Santa Rita 	3	Marzo	2023-07-03T00:00:00	2024-11-08T21:00:00	1	Precipitación	0
80664	7	Sololá	704	Santa Lucía Utatlán 	7	Santa Rita 	3	Marzo	2023-07-03T00:00:00	2024-11-08T21:00:00	8	Radiación solar	0
80665	7	Sololá	704	Santa Lucía Utatlán 	7	Santa Rita 	3	Marzo	2023-07-03T00:00:00	2024-11-08T22:00:00	2	Temperatura media	16.3
80666	7	Sololá	704	Santa Lucía Utatlán 	7	Santa Rita 	3	Marzo	2023-07-03T00:00:00	2024-11-08T22:00:00	4	Temperatura máxima	17
80667	7	Sololá	704	Santa Lucía Utatlán 	7	Santa Rita 	3	Marzo	2023-07-03T00:00:00	2024-11-08T22:00:00	3	Temperatura mínima	16.2
80668	7	Sololá	704	Santa Lucía Utatlán 	7	Santa Rita 	3	Marzo	2023-07-03T00:00:00	2024-11-08T22:00:00	5	Humedad	88
80669	7	Sololá	704	Santa Lucía Utatlán 	7	Santa Rita 	3	Marzo	2023-07-03T00:00:00	2024-11-08T22:00:00	6	Velocidad del viento	1.6
80670	7	Sololá	704	Santa Lucía Utatlán 	7	Santa Rita 	3	Marzo	2023-07-03T00:00:00	2024-11-08T22:00:00	7	Dirección del viento	1.61
80671	7	Sololá	704	Santa Lucía Utatlán 	7	Santa Rita 	3	Marzo	2023-07-03T00:00:00	2024-11-08T22:00:00	1	Precipitación	0
80672	7	Sololá	704	Santa Lucía Utatlán 	7	Santa Rita 	3	Marzo	2023-07-03T00:00:00	2024-11-08T22:00:00	8	Radiación solar	0
80673	7	Sololá	704	Santa Lucía Utatlán 	7	Santa Rita 	3	Marzo	2023-07-03T00:00:00	2024-11-08T23:00:00	2	Temperatura media	16.1
80674	7	Sololá	704	Santa Lucía Utatlán 	7	Santa Rita 	3	Marzo	2023-07-03T00:00:00	2024-11-08T23:00:00	4	Temperatura máxima	16.6
80675	7	Sololá	704	Santa Lucía Utatlán 	7	Santa Rita 	3	Marzo	2023-07-03T00:00:00	2024-11-08T23:00:00	3	Temperatura mínima	16.1
80676	7	Sololá	704	Santa Lucía Utatlán 	7	Santa Rita 	3	Marzo	2023-07-03T00:00:00	2024-11-08T23:00:00	5	Humedad	87
80677	7	Sololá	704	Santa Lucía Utatlán 	7	Santa Rita 	3	Marzo	2023-07-03T00:00:00	2024-11-08T23:00:00	6	Velocidad del viento	0
80678	7	Sololá	704	Santa Lucía Utatlán 	7	Santa Rita 	3	Marzo	2023-07-03T00:00:00	2024-11-08T23:00:00	7	Dirección del viento	0
80679	7	Sololá	704	Santa Lucía Utatlán 	7	Santa Rita 	3	Marzo	2023-07-03T00:00:00	2024-11-08T23:00:00	1	Precipitación	0
80680	7	Sololá	704	Santa Lucía Utatlán 	7	Santa Rita 	3	Marzo	2023-07-03T00:00:00	2024-11-08T23:00:00	8	Radiación solar	0
80681	7	Sololá	704	Santa Lucía Utatlán 	7	Santa Rita 	3	Marzo	2023-08-03T00:00:00	2024-11-08T00:00:00	2	Temperatura media	15.9
80682	7	Sololá	704	Santa Lucía Utatlán 	7	Santa Rita 	3	Marzo	2023-08-03T00:00:00	2024-11-08T00:00:00	4	Temperatura máxima	16.1
80683	7	Sololá	704	Santa Lucía Utatlán 	7	Santa Rita 	3	Marzo	2023-08-03T00:00:00	2024-11-08T00:00:00	3	Temperatura mínima	15.8
80684	7	Sololá	704	Santa Lucía Utatlán 	7	Santa Rita 	3	Marzo	2023-08-03T00:00:00	2024-11-08T00:00:00	5	Humedad	86
80685	7	Sololá	704	Santa Lucía Utatlán 	7	Santa Rita 	3	Marzo	2023-08-03T00:00:00	2024-11-08T00:00:00	6	Velocidad del viento	1.6
80686	7	Sololá	704	Santa Lucía Utatlán 	7	Santa Rita 	3	Marzo	2023-08-03T00:00:00	2024-11-08T00:00:00	7	Dirección del viento	1.61
80687	7	Sololá	704	Santa Lucía Utatlán 	7	Santa Rita 	3	Marzo	2023-08-03T00:00:00	2024-11-08T00:00:00	1	Precipitación	0
80688	7	Sololá	704	Santa Lucía Utatlán 	7	Santa Rita 	3	Marzo	2023-08-03T00:00:00	2024-11-08T00:00:00	8	Radiación solar	0
80689	7	Sololá	704	Santa Lucía Utatlán 	7	Santa Rita 	3	Marzo	2023-08-03T00:00:00	2024-11-08T01:00:00	2	Temperatura media	15.6
80690	7	Sololá	704	Santa Lucía Utatlán 	7	Santa Rita 	3	Marzo	2023-08-03T00:00:00	2024-11-08T01:00:00	4	Temperatura máxima	15.9
80691	7	Sololá	704	Santa Lucía Utatlán 	7	Santa Rita 	3	Marzo	2023-08-03T00:00:00	2024-11-08T01:00:00	3	Temperatura mínima	15.6
80692	7	Sololá	704	Santa Lucía Utatlán 	7	Santa Rita 	3	Marzo	2023-08-03T00:00:00	2024-11-08T01:00:00	5	Humedad	89
80693	7	Sololá	704	Santa Lucía Utatlán 	7	Santa Rita 	3	Marzo	2023-08-03T00:00:00	2024-11-08T01:00:00	6	Velocidad del viento	1.6
80694	7	Sololá	704	Santa Lucía Utatlán 	7	Santa Rita 	3	Marzo	2023-08-03T00:00:00	2024-11-08T01:00:00	7	Dirección del viento	1.61
80695	7	Sololá	704	Santa Lucía Utatlán 	7	Santa Rita 	3	Marzo	2023-08-03T00:00:00	2024-11-08T01:00:00	1	Precipitación	0
80696	7	Sololá	704	Santa Lucía Utatlán 	7	Santa Rita 	3	Marzo	2023-08-03T00:00:00	2024-11-08T01:00:00	8	Radiación solar	0
80697	7	Sololá	704	Santa Lucía Utatlán 	7	Santa Rita 	3	Marzo	2023-08-03T00:00:00	2024-11-08T02:00:00	2	Temperatura media	15.6
80698	7	Sololá	704	Santa Lucía Utatlán 	7	Santa Rita 	3	Marzo	2023-08-03T00:00:00	2024-11-08T02:00:00	4	Temperatura máxima	15.8
80699	7	Sololá	704	Santa Lucía Utatlán 	7	Santa Rita 	3	Marzo	2023-08-03T00:00:00	2024-11-08T02:00:00	3	Temperatura mínima	15.6
80700	7	Sololá	704	Santa Lucía Utatlán 	7	Santa Rita 	3	Marzo	2023-08-03T00:00:00	2024-11-08T02:00:00	5	Humedad	89
80701	7	Sololá	704	Santa Lucía Utatlán 	7	Santa Rita 	3	Marzo	2023-08-03T00:00:00	2024-11-08T02:00:00	6	Velocidad del viento	0
80702	7	Sololá	704	Santa Lucía Utatlán 	7	Santa Rita 	3	Marzo	2023-08-03T00:00:00	2024-11-08T02:00:00	7	Dirección del viento	0
80703	7	Sololá	704	Santa Lucía Utatlán 	7	Santa Rita 	3	Marzo	2023-08-03T00:00:00	2024-11-08T02:00:00	1	Precipitación	0
80704	7	Sololá	704	Santa Lucía Utatlán 	7	Santa Rita 	3	Marzo	2023-08-03T00:00:00	2024-11-08T02:00:00	8	Radiación solar	0
80705	7	Sololá	704	Santa Lucía Utatlán 	7	Santa Rita 	3	Marzo	2023-08-03T00:00:00	2024-11-08T03:00:00	2	Temperatura media	14.9
80706	7	Sololá	704	Santa Lucía Utatlán 	7	Santa Rita 	3	Marzo	2023-08-03T00:00:00	2024-11-08T03:00:00	4	Temperatura máxima	16
80707	7	Sololá	704	Santa Lucía Utatlán 	7	Santa Rita 	3	Marzo	2023-08-03T00:00:00	2024-11-08T03:00:00	3	Temperatura mínima	14.9
80708	7	Sololá	704	Santa Lucía Utatlán 	7	Santa Rita 	3	Marzo	2023-08-03T00:00:00	2024-11-08T03:00:00	5	Humedad	87
80709	7	Sololá	704	Santa Lucía Utatlán 	7	Santa Rita 	3	Marzo	2023-08-03T00:00:00	2024-11-08T03:00:00	6	Velocidad del viento	1.6
80710	7	Sololá	704	Santa Lucía Utatlán 	7	Santa Rita 	3	Marzo	2023-08-03T00:00:00	2024-11-08T03:00:00	7	Dirección del viento	1.61
80711	7	Sololá	704	Santa Lucía Utatlán 	7	Santa Rita 	3	Marzo	2023-08-03T00:00:00	2024-11-08T03:00:00	1	Precipitación	0
80712	7	Sololá	704	Santa Lucía Utatlán 	7	Santa Rita 	3	Marzo	2023-08-03T00:00:00	2024-11-08T03:00:00	8	Radiación solar	0
80713	7	Sololá	704	Santa Lucía Utatlán 	7	Santa Rita 	3	Marzo	2023-08-03T00:00:00	2024-11-08T04:00:00	2	Temperatura media	14.7
80714	7	Sololá	704	Santa Lucía Utatlán 	7	Santa Rita 	3	Marzo	2023-08-03T00:00:00	2024-11-08T04:00:00	4	Temperatura máxima	14.9
80715	7	Sololá	704	Santa Lucía Utatlán 	7	Santa Rita 	3	Marzo	2023-08-03T00:00:00	2024-11-08T04:00:00	3	Temperatura mínima	14.5
80716	7	Sololá	704	Santa Lucía Utatlán 	7	Santa Rita 	3	Marzo	2023-08-03T00:00:00	2024-11-08T04:00:00	5	Humedad	87
80717	7	Sololá	704	Santa Lucía Utatlán 	7	Santa Rita 	3	Marzo	2023-08-03T00:00:00	2024-11-08T04:00:00	6	Velocidad del viento	1.6
80718	7	Sololá	704	Santa Lucía Utatlán 	7	Santa Rita 	3	Marzo	2023-08-03T00:00:00	2024-11-08T04:00:00	7	Dirección del viento	1.61
80719	7	Sololá	704	Santa Lucía Utatlán 	7	Santa Rita 	3	Marzo	2023-08-03T00:00:00	2024-11-08T04:00:00	1	Precipitación	0
80720	7	Sololá	704	Santa Lucía Utatlán 	7	Santa Rita 	3	Marzo	2023-08-03T00:00:00	2024-11-08T04:00:00	8	Radiación solar	0
80721	7	Sololá	704	Santa Lucía Utatlán 	7	Santa Rita 	3	Marzo	2023-08-03T00:00:00	2024-11-08T05:00:00	2	Temperatura media	14.2
80722	7	Sololá	704	Santa Lucía Utatlán 	7	Santa Rita 	3	Marzo	2023-08-03T00:00:00	2024-11-08T05:00:00	4	Temperatura máxima	14.7
80723	7	Sololá	704	Santa Lucía Utatlán 	7	Santa Rita 	3	Marzo	2023-08-03T00:00:00	2024-11-08T05:00:00	3	Temperatura mínima	14.2
80724	7	Sololá	704	Santa Lucía Utatlán 	7	Santa Rita 	3	Marzo	2023-08-03T00:00:00	2024-11-08T05:00:00	5	Humedad	89
80725	7	Sololá	704	Santa Lucía Utatlán 	7	Santa Rita 	3	Marzo	2023-08-03T00:00:00	2024-11-08T05:00:00	6	Velocidad del viento	1.6
80726	7	Sololá	704	Santa Lucía Utatlán 	7	Santa Rita 	3	Marzo	2023-08-03T00:00:00	2024-11-08T05:00:00	7	Dirección del viento	1.61
80727	7	Sololá	704	Santa Lucía Utatlán 	7	Santa Rita 	3	Marzo	2023-08-03T00:00:00	2024-11-08T05:00:00	1	Precipitación	0
80728	7	Sololá	704	Santa Lucía Utatlán 	7	Santa Rita 	3	Marzo	2023-08-03T00:00:00	2024-11-08T05:00:00	8	Radiación solar	0
80729	7	Sololá	704	Santa Lucía Utatlán 	7	Santa Rita 	3	Marzo	2023-08-03T00:00:00	2024-11-08T06:00:00	2	Temperatura media	14.4
80730	7	Sololá	704	Santa Lucía Utatlán 	7	Santa Rita 	3	Marzo	2023-08-03T00:00:00	2024-11-08T06:00:00	4	Temperatura máxima	14.5
80731	7	Sololá	704	Santa Lucía Utatlán 	7	Santa Rita 	3	Marzo	2023-08-03T00:00:00	2024-11-08T06:00:00	3	Temperatura mínima	14.1
80732	7	Sololá	704	Santa Lucía Utatlán 	7	Santa Rita 	3	Marzo	2023-08-03T00:00:00	2024-11-08T06:00:00	5	Humedad	87
80733	7	Sololá	704	Santa Lucía Utatlán 	7	Santa Rita 	3	Marzo	2023-08-03T00:00:00	2024-11-08T06:00:00	6	Velocidad del viento	3.2
80734	7	Sololá	704	Santa Lucía Utatlán 	7	Santa Rita 	3	Marzo	2023-08-03T00:00:00	2024-11-08T06:00:00	7	Dirección del viento	3.22
80735	7	Sololá	704	Santa Lucía Utatlán 	7	Santa Rita 	3	Marzo	2023-08-03T00:00:00	2024-11-08T06:00:00	1	Precipitación	0
80736	7	Sololá	704	Santa Lucía Utatlán 	7	Santa Rita 	3	Marzo	2023-08-03T00:00:00	2024-11-08T06:00:00	8	Radiación solar	0
80737	7	Sololá	704	Santa Lucía Utatlán 	7	Santa Rita 	3	Marzo	2023-08-03T00:00:00	2024-11-08T07:00:00	2	Temperatura media	14.2
80738	7	Sololá	704	Santa Lucía Utatlán 	7	Santa Rita 	3	Marzo	2023-08-03T00:00:00	2024-11-08T07:00:00	4	Temperatura máxima	14.8
80739	7	Sololá	704	Santa Lucía Utatlán 	7	Santa Rita 	3	Marzo	2023-08-03T00:00:00	2024-11-08T07:00:00	3	Temperatura mínima	14.2
80740	7	Sololá	704	Santa Lucía Utatlán 	7	Santa Rita 	3	Marzo	2023-08-03T00:00:00	2024-11-08T07:00:00	5	Humedad	88
80741	7	Sololá	704	Santa Lucía Utatlán 	7	Santa Rita 	3	Marzo	2023-08-03T00:00:00	2024-11-08T07:00:00	6	Velocidad del viento	1.6
80742	7	Sololá	704	Santa Lucía Utatlán 	7	Santa Rita 	3	Marzo	2023-08-03T00:00:00	2024-11-08T07:00:00	7	Dirección del viento	1.61
80743	7	Sololá	704	Santa Lucía Utatlán 	7	Santa Rita 	3	Marzo	2023-08-03T00:00:00	2024-11-08T07:00:00	1	Precipitación	0
80744	7	Sololá	704	Santa Lucía Utatlán 	7	Santa Rita 	3	Marzo	2023-08-03T00:00:00	2024-11-08T07:00:00	8	Radiación solar	13
80745	7	Sololá	704	Santa Lucía Utatlán 	7	Santa Rita 	3	Marzo	2023-08-03T00:00:00	2024-11-08T08:00:00	2	Temperatura media	18.3
80746	7	Sololá	704	Santa Lucía Utatlán 	7	Santa Rita 	3	Marzo	2023-08-03T00:00:00	2024-11-08T08:00:00	4	Temperatura máxima	18.3
80747	7	Sololá	704	Santa Lucía Utatlán 	7	Santa Rita 	3	Marzo	2023-08-03T00:00:00	2024-11-08T08:00:00	3	Temperatura mínima	14.2
80748	7	Sololá	704	Santa Lucía Utatlán 	7	Santa Rita 	3	Marzo	2023-08-03T00:00:00	2024-11-08T08:00:00	5	Humedad	76
80749	7	Sololá	704	Santa Lucía Utatlán 	7	Santa Rita 	3	Marzo	2023-08-03T00:00:00	2024-11-08T08:00:00	6	Velocidad del viento	0
80750	7	Sololá	704	Santa Lucía Utatlán 	7	Santa Rita 	3	Marzo	2023-08-03T00:00:00	2024-11-08T08:00:00	7	Dirección del viento	0
80751	7	Sololá	704	Santa Lucía Utatlán 	7	Santa Rita 	3	Marzo	2023-08-03T00:00:00	2024-11-08T08:00:00	1	Precipitación	0
80752	7	Sololá	704	Santa Lucía Utatlán 	7	Santa Rita 	3	Marzo	2023-08-03T00:00:00	2024-11-08T08:00:00	8	Radiación solar	190
80753	7	Sololá	704	Santa Lucía Utatlán 	7	Santa Rita 	3	Marzo	2023-08-03T00:00:00	2024-11-08T09:00:00	2	Temperatura media	19.9
80754	7	Sololá	704	Santa Lucía Utatlán 	7	Santa Rita 	3	Marzo	2023-08-03T00:00:00	2024-11-08T09:00:00	4	Temperatura máxima	21.4
80755	7	Sololá	704	Santa Lucía Utatlán 	7	Santa Rita 	3	Marzo	2023-08-03T00:00:00	2024-11-08T09:00:00	3	Temperatura mínima	18.3
80756	7	Sololá	704	Santa Lucía Utatlán 	7	Santa Rita 	3	Marzo	2023-08-03T00:00:00	2024-11-08T09:00:00	5	Humedad	68
80757	7	Sololá	704	Santa Lucía Utatlán 	7	Santa Rita 	3	Marzo	2023-08-03T00:00:00	2024-11-08T09:00:00	6	Velocidad del viento	4.8
80758	7	Sololá	704	Santa Lucía Utatlán 	7	Santa Rita 	3	Marzo	2023-08-03T00:00:00	2024-11-08T09:00:00	7	Dirección del viento	4.83
80759	7	Sololá	704	Santa Lucía Utatlán 	7	Santa Rita 	3	Marzo	2023-08-03T00:00:00	2024-11-08T09:00:00	1	Precipitación	0
80760	7	Sololá	704	Santa Lucía Utatlán 	7	Santa Rita 	3	Marzo	2023-08-03T00:00:00	2024-11-08T09:00:00	8	Radiación solar	403
80761	7	Sololá	704	Santa Lucía Utatlán 	7	Santa Rita 	3	Marzo	2023-08-03T00:00:00	2024-11-08T10:00:00	2	Temperatura media	20.4
80762	7	Sololá	704	Santa Lucía Utatlán 	7	Santa Rita 	3	Marzo	2023-08-03T00:00:00	2024-11-08T10:00:00	4	Temperatura máxima	20.8
80763	7	Sololá	704	Santa Lucía Utatlán 	7	Santa Rita 	3	Marzo	2023-08-03T00:00:00	2024-11-08T10:00:00	3	Temperatura mínima	19.8
80764	7	Sololá	704	Santa Lucía Utatlán 	7	Santa Rita 	3	Marzo	2023-08-03T00:00:00	2024-11-08T10:00:00	5	Humedad	72
80765	7	Sololá	704	Santa Lucía Utatlán 	7	Santa Rita 	3	Marzo	2023-08-03T00:00:00	2024-11-08T10:00:00	6	Velocidad del viento	4.8
80766	7	Sololá	704	Santa Lucía Utatlán 	7	Santa Rita 	3	Marzo	2023-08-03T00:00:00	2024-11-08T10:00:00	7	Dirección del viento	4.83
80767	7	Sololá	704	Santa Lucía Utatlán 	7	Santa Rita 	3	Marzo	2023-08-03T00:00:00	2024-11-08T10:00:00	1	Precipitación	0
80768	7	Sololá	704	Santa Lucía Utatlán 	7	Santa Rita 	3	Marzo	2023-08-03T00:00:00	2024-11-08T10:00:00	8	Radiación solar	309
80769	7	Sololá	704	Santa Lucía Utatlán 	7	Santa Rita 	3	Marzo	2023-08-03T00:00:00	2024-11-08T11:00:00	2	Temperatura media	20.6
80770	7	Sololá	704	Santa Lucía Utatlán 	7	Santa Rita 	3	Marzo	2023-08-03T00:00:00	2024-11-08T11:00:00	4	Temperatura máxima	21.3
80771	7	Sololá	704	Santa Lucía Utatlán 	7	Santa Rita 	3	Marzo	2023-08-03T00:00:00	2024-11-08T11:00:00	3	Temperatura mínima	20.5
80772	7	Sololá	704	Santa Lucía Utatlán 	7	Santa Rita 	3	Marzo	2023-08-03T00:00:00	2024-11-08T11:00:00	5	Humedad	75
80773	7	Sololá	704	Santa Lucía Utatlán 	7	Santa Rita 	3	Marzo	2023-08-03T00:00:00	2024-11-08T11:00:00	6	Velocidad del viento	4.8
80774	7	Sololá	704	Santa Lucía Utatlán 	7	Santa Rita 	3	Marzo	2023-08-03T00:00:00	2024-11-08T11:00:00	7	Dirección del viento	4.83
80775	7	Sololá	704	Santa Lucía Utatlán 	7	Santa Rita 	3	Marzo	2023-08-03T00:00:00	2024-11-08T11:00:00	1	Precipitación	0
80776	7	Sololá	704	Santa Lucía Utatlán 	7	Santa Rita 	3	Marzo	2023-08-03T00:00:00	2024-11-08T11:00:00	8	Radiación solar	322
80777	7	Sololá	704	Santa Lucía Utatlán 	7	Santa Rita 	3	Marzo	2023-08-03T00:00:00	2024-11-08T12:00:00	2	Temperatura media	20.9
80778	7	Sololá	704	Santa Lucía Utatlán 	7	Santa Rita 	3	Marzo	2023-08-03T00:00:00	2024-11-08T12:00:00	4	Temperatura máxima	21.3
80779	7	Sololá	704	Santa Lucía Utatlán 	7	Santa Rita 	3	Marzo	2023-08-03T00:00:00	2024-11-08T12:00:00	3	Temperatura mínima	20.3
80780	7	Sololá	704	Santa Lucía Utatlán 	7	Santa Rita 	3	Marzo	2023-08-03T00:00:00	2024-11-08T12:00:00	5	Humedad	76
80781	7	Sololá	704	Santa Lucía Utatlán 	7	Santa Rita 	3	Marzo	2023-08-03T00:00:00	2024-11-08T12:00:00	6	Velocidad del viento	4.8
80782	7	Sololá	704	Santa Lucía Utatlán 	7	Santa Rita 	3	Marzo	2023-08-03T00:00:00	2024-11-08T12:00:00	7	Dirección del viento	4.83
80783	7	Sololá	704	Santa Lucía Utatlán 	7	Santa Rita 	3	Marzo	2023-08-03T00:00:00	2024-11-08T12:00:00	1	Precipitación	0
80784	7	Sololá	704	Santa Lucía Utatlán 	7	Santa Rita 	3	Marzo	2023-08-03T00:00:00	2024-11-08T12:00:00	8	Radiación solar	277
80785	7	Sololá	704	Santa Lucía Utatlán 	7	Santa Rita 	3	Marzo	2023-08-03T00:00:00	2024-11-08T13:00:00	2	Temperatura media	21.9
80786	7	Sololá	704	Santa Lucía Utatlán 	7	Santa Rita 	3	Marzo	2023-08-03T00:00:00	2024-11-08T13:00:00	4	Temperatura máxima	22.3
80787	7	Sololá	704	Santa Lucía Utatlán 	7	Santa Rita 	3	Marzo	2023-08-03T00:00:00	2024-11-08T13:00:00	3	Temperatura mínima	20.9
80788	7	Sololá	704	Santa Lucía Utatlán 	7	Santa Rita 	3	Marzo	2023-08-03T00:00:00	2024-11-08T13:00:00	5	Humedad	73
80789	7	Sololá	704	Santa Lucía Utatlán 	7	Santa Rita 	3	Marzo	2023-08-03T00:00:00	2024-11-08T13:00:00	6	Velocidad del viento	3.2
80790	7	Sololá	704	Santa Lucía Utatlán 	7	Santa Rita 	3	Marzo	2023-08-03T00:00:00	2024-11-08T13:00:00	7	Dirección del viento	3.22
80791	7	Sololá	704	Santa Lucía Utatlán 	7	Santa Rita 	3	Marzo	2023-08-03T00:00:00	2024-11-08T13:00:00	1	Precipitación	0
80792	7	Sololá	704	Santa Lucía Utatlán 	7	Santa Rita 	3	Marzo	2023-08-03T00:00:00	2024-11-08T13:00:00	8	Radiación solar	304
80793	7	Sololá	704	Santa Lucía Utatlán 	7	Santa Rita 	3	Marzo	2023-08-03T00:00:00	2024-11-08T14:00:00	2	Temperatura media	20.8
80794	7	Sololá	704	Santa Lucía Utatlán 	7	Santa Rita 	3	Marzo	2023-08-03T00:00:00	2024-11-08T14:00:00	4	Temperatura máxima	21.9
80795	7	Sololá	704	Santa Lucía Utatlán 	7	Santa Rita 	3	Marzo	2023-08-03T00:00:00	2024-11-08T14:00:00	3	Temperatura mínima	20.8
80796	7	Sololá	704	Santa Lucía Utatlán 	7	Santa Rita 	3	Marzo	2023-08-03T00:00:00	2024-11-08T14:00:00	5	Humedad	79
80797	7	Sololá	704	Santa Lucía Utatlán 	7	Santa Rita 	3	Marzo	2023-08-03T00:00:00	2024-11-08T14:00:00	6	Velocidad del viento	4.8
80798	7	Sololá	704	Santa Lucía Utatlán 	7	Santa Rita 	3	Marzo	2023-08-03T00:00:00	2024-11-08T14:00:00	7	Dirección del viento	4.83
80799	7	Sololá	704	Santa Lucía Utatlán 	7	Santa Rita 	3	Marzo	2023-08-03T00:00:00	2024-11-08T14:00:00	1	Precipitación	0
80800	7	Sololá	704	Santa Lucía Utatlán 	7	Santa Rita 	3	Marzo	2023-08-03T00:00:00	2024-11-08T14:00:00	8	Radiación solar	160
80801	7	Sololá	704	Santa Lucía Utatlán 	7	Santa Rita 	3	Marzo	2023-08-03T00:00:00	2024-11-08T15:00:00	2	Temperatura media	19.9
80802	7	Sololá	704	Santa Lucía Utatlán 	7	Santa Rita 	3	Marzo	2023-08-03T00:00:00	2024-11-08T15:00:00	4	Temperatura máxima	20.8
80803	7	Sololá	704	Santa Lucía Utatlán 	7	Santa Rita 	3	Marzo	2023-08-03T00:00:00	2024-11-08T15:00:00	3	Temperatura mínima	19.8
80804	7	Sololá	704	Santa Lucía Utatlán 	7	Santa Rita 	3	Marzo	2023-08-03T00:00:00	2024-11-08T15:00:00	5	Humedad	84
80805	7	Sololá	704	Santa Lucía Utatlán 	7	Santa Rita 	3	Marzo	2023-08-03T00:00:00	2024-11-08T15:00:00	6	Velocidad del viento	4.8
80806	7	Sololá	704	Santa Lucía Utatlán 	7	Santa Rita 	3	Marzo	2023-08-03T00:00:00	2024-11-08T15:00:00	7	Dirección del viento	4.83
80807	7	Sololá	704	Santa Lucía Utatlán 	7	Santa Rita 	3	Marzo	2023-08-03T00:00:00	2024-11-08T15:00:00	1	Precipitación	0
80808	7	Sololá	704	Santa Lucía Utatlán 	7	Santa Rita 	3	Marzo	2023-08-03T00:00:00	2024-11-08T15:00:00	8	Radiación solar	109
80809	7	Sololá	704	Santa Lucía Utatlán 	7	Santa Rita 	3	Marzo	2023-08-03T00:00:00	2024-11-08T16:00:00	2	Temperatura media	20.2
80810	7	Sololá	704	Santa Lucía Utatlán 	7	Santa Rita 	3	Marzo	2023-08-03T00:00:00	2024-11-08T16:00:00	4	Temperatura máxima	20.2
80811	7	Sololá	704	Santa Lucía Utatlán 	7	Santa Rita 	3	Marzo	2023-08-03T00:00:00	2024-11-08T16:00:00	3	Temperatura mínima	19.8
80812	7	Sololá	704	Santa Lucía Utatlán 	7	Santa Rita 	3	Marzo	2023-08-03T00:00:00	2024-11-08T16:00:00	5	Humedad	83
80813	7	Sololá	704	Santa Lucía Utatlán 	7	Santa Rita 	3	Marzo	2023-08-03T00:00:00	2024-11-08T16:00:00	6	Velocidad del viento	1.6
80814	7	Sololá	704	Santa Lucía Utatlán 	7	Santa Rita 	3	Marzo	2023-08-03T00:00:00	2024-11-08T16:00:00	7	Dirección del viento	1.61
80815	7	Sololá	704	Santa Lucía Utatlán 	7	Santa Rita 	3	Marzo	2023-08-03T00:00:00	2024-11-08T16:00:00	1	Precipitación	0
80816	7	Sololá	704	Santa Lucía Utatlán 	7	Santa Rita 	3	Marzo	2023-08-03T00:00:00	2024-11-08T16:00:00	8	Radiación solar	134
80817	7	Sololá	704	Santa Lucía Utatlán 	7	Santa Rita 	3	Marzo	2023-08-03T00:00:00	2024-11-08T17:00:00	2	Temperatura media	19.6
80818	7	Sololá	704	Santa Lucía Utatlán 	7	Santa Rita 	3	Marzo	2023-08-03T00:00:00	2024-11-08T17:00:00	4	Temperatura máxima	20.3
80819	7	Sololá	704	Santa Lucía Utatlán 	7	Santa Rita 	3	Marzo	2023-08-03T00:00:00	2024-11-08T17:00:00	3	Temperatura mínima	19.6
80820	7	Sololá	704	Santa Lucía Utatlán 	7	Santa Rita 	3	Marzo	2023-08-03T00:00:00	2024-11-08T17:00:00	5	Humedad	86
80821	7	Sololá	704	Santa Lucía Utatlán 	7	Santa Rita 	3	Marzo	2023-08-03T00:00:00	2024-11-08T17:00:00	6	Velocidad del viento	1.6
80822	7	Sololá	704	Santa Lucía Utatlán 	7	Santa Rita 	3	Marzo	2023-08-03T00:00:00	2024-11-08T17:00:00	7	Dirección del viento	1.61
80823	7	Sololá	704	Santa Lucía Utatlán 	7	Santa Rita 	3	Marzo	2023-08-03T00:00:00	2024-11-08T17:00:00	1	Precipitación	0
80824	7	Sololá	704	Santa Lucía Utatlán 	7	Santa Rita 	3	Marzo	2023-08-03T00:00:00	2024-11-08T17:00:00	8	Radiación solar	63
80825	7	Sololá	704	Santa Lucía Utatlán 	7	Santa Rita 	3	Marzo	2023-08-03T00:00:00	2024-11-08T18:00:00	2	Temperatura media	19
80826	7	Sololá	704	Santa Lucía Utatlán 	7	Santa Rita 	3	Marzo	2023-08-03T00:00:00	2024-11-08T18:00:00	4	Temperatura máxima	19.6
80827	7	Sololá	704	Santa Lucía Utatlán 	7	Santa Rita 	3	Marzo	2023-08-03T00:00:00	2024-11-08T18:00:00	3	Temperatura mínima	19
80828	7	Sololá	704	Santa Lucía Utatlán 	7	Santa Rita 	3	Marzo	2023-08-03T00:00:00	2024-11-08T18:00:00	5	Humedad	88
80829	7	Sololá	704	Santa Lucía Utatlán 	7	Santa Rita 	3	Marzo	2023-08-03T00:00:00	2024-11-08T18:00:00	6	Velocidad del viento	1.6
80830	7	Sololá	704	Santa Lucía Utatlán 	7	Santa Rita 	3	Marzo	2023-08-03T00:00:00	2024-11-08T18:00:00	7	Dirección del viento	1.61
80831	7	Sololá	704	Santa Lucía Utatlán 	7	Santa Rita 	3	Marzo	2023-08-03T00:00:00	2024-11-08T18:00:00	1	Precipitación	0
80832	7	Sololá	704	Santa Lucía Utatlán 	7	Santa Rita 	3	Marzo	2023-08-03T00:00:00	2024-11-08T18:00:00	8	Radiación solar	47
80833	7	Sololá	704	Santa Lucía Utatlán 	7	Santa Rita 	3	Marzo	2023-08-03T00:00:00	2024-11-08T19:00:00	2	Temperatura media	18.3
80834	7	Sololá	704	Santa Lucía Utatlán 	7	Santa Rita 	3	Marzo	2023-08-03T00:00:00	2024-11-08T19:00:00	4	Temperatura máxima	19
80835	7	Sololá	704	Santa Lucía Utatlán 	7	Santa Rita 	3	Marzo	2023-08-03T00:00:00	2024-11-08T19:00:00	3	Temperatura mínima	18.3
80836	7	Sololá	704	Santa Lucía Utatlán 	7	Santa Rita 	3	Marzo	2023-08-03T00:00:00	2024-11-08T19:00:00	5	Humedad	92
80837	7	Sololá	704	Santa Lucía Utatlán 	7	Santa Rita 	3	Marzo	2023-08-03T00:00:00	2024-11-08T19:00:00	6	Velocidad del viento	0
80838	7	Sololá	704	Santa Lucía Utatlán 	7	Santa Rita 	3	Marzo	2023-08-03T00:00:00	2024-11-08T19:00:00	7	Dirección del viento	0
80839	7	Sololá	704	Santa Lucía Utatlán 	7	Santa Rita 	3	Marzo	2023-08-03T00:00:00	2024-11-08T19:00:00	1	Precipitación	0
80840	7	Sololá	704	Santa Lucía Utatlán 	7	Santa Rita 	3	Marzo	2023-08-03T00:00:00	2024-11-08T19:00:00	8	Radiación solar	0
80841	7	Sololá	704	Santa Lucía Utatlán 	7	Santa Rita 	3	Marzo	2023-08-03T00:00:00	2024-11-08T20:00:00	2	Temperatura media	16.7
80842	7	Sololá	704	Santa Lucía Utatlán 	7	Santa Rita 	3	Marzo	2023-08-03T00:00:00	2024-11-08T20:00:00	4	Temperatura máxima	18.3
80843	7	Sololá	704	Santa Lucía Utatlán 	7	Santa Rita 	3	Marzo	2023-08-03T00:00:00	2024-11-08T20:00:00	3	Temperatura mínima	16.7
80844	7	Sololá	704	Santa Lucía Utatlán 	7	Santa Rita 	3	Marzo	2023-08-03T00:00:00	2024-11-08T20:00:00	5	Humedad	89
80845	7	Sololá	704	Santa Lucía Utatlán 	7	Santa Rita 	3	Marzo	2023-08-03T00:00:00	2024-11-08T20:00:00	6	Velocidad del viento	0
80846	7	Sololá	704	Santa Lucía Utatlán 	7	Santa Rita 	3	Marzo	2023-08-03T00:00:00	2024-11-08T20:00:00	7	Dirección del viento	0
80847	7	Sololá	704	Santa Lucía Utatlán 	7	Santa Rita 	3	Marzo	2023-08-03T00:00:00	2024-11-08T20:00:00	1	Precipitación	0
80848	7	Sololá	704	Santa Lucía Utatlán 	7	Santa Rita 	3	Marzo	2023-08-03T00:00:00	2024-11-08T20:00:00	8	Radiación solar	0
80849	7	Sololá	704	Santa Lucía Utatlán 	7	Santa Rita 	3	Marzo	2023-08-03T00:00:00	2024-11-08T21:00:00	2	Temperatura media	16
80850	7	Sololá	704	Santa Lucía Utatlán 	7	Santa Rita 	3	Marzo	2023-08-03T00:00:00	2024-11-08T21:00:00	4	Temperatura máxima	16.8
80851	7	Sololá	704	Santa Lucía Utatlán 	7	Santa Rita 	3	Marzo	2023-08-03T00:00:00	2024-11-08T21:00:00	3	Temperatura mínima	16
80852	7	Sololá	704	Santa Lucía Utatlán 	7	Santa Rita 	3	Marzo	2023-08-03T00:00:00	2024-11-08T21:00:00	5	Humedad	82
80853	7	Sololá	704	Santa Lucía Utatlán 	7	Santa Rita 	3	Marzo	2023-08-03T00:00:00	2024-11-08T21:00:00	6	Velocidad del viento	1.6
80854	7	Sololá	704	Santa Lucía Utatlán 	7	Santa Rita 	3	Marzo	2023-08-03T00:00:00	2024-11-08T21:00:00	7	Dirección del viento	1.61
80855	7	Sololá	704	Santa Lucía Utatlán 	7	Santa Rita 	3	Marzo	2023-08-03T00:00:00	2024-11-08T21:00:00	1	Precipitación	0
80856	7	Sololá	704	Santa Lucía Utatlán 	7	Santa Rita 	3	Marzo	2023-08-03T00:00:00	2024-11-08T21:00:00	8	Radiación solar	0
80857	7	Sololá	704	Santa Lucía Utatlán 	7	Santa Rita 	3	Marzo	2023-08-03T00:00:00	2024-11-08T22:00:00	2	Temperatura media	15.8
80858	7	Sololá	704	Santa Lucía Utatlán 	7	Santa Rita 	3	Marzo	2023-08-03T00:00:00	2024-11-08T22:00:00	4	Temperatura máxima	16
80859	7	Sololá	704	Santa Lucía Utatlán 	7	Santa Rita 	3	Marzo	2023-08-03T00:00:00	2024-11-08T22:00:00	3	Temperatura mínima	15.6
80860	7	Sololá	704	Santa Lucía Utatlán 	7	Santa Rita 	3	Marzo	2023-08-03T00:00:00	2024-11-08T22:00:00	5	Humedad	84
80861	7	Sololá	704	Santa Lucía Utatlán 	7	Santa Rita 	3	Marzo	2023-08-03T00:00:00	2024-11-08T22:00:00	6	Velocidad del viento	1.6
80862	7	Sololá	704	Santa Lucía Utatlán 	7	Santa Rita 	3	Marzo	2023-08-03T00:00:00	2024-11-08T22:00:00	7	Dirección del viento	1.61
80863	7	Sololá	704	Santa Lucía Utatlán 	7	Santa Rita 	3	Marzo	2023-08-03T00:00:00	2024-11-08T22:00:00	1	Precipitación	0
80864	7	Sololá	704	Santa Lucía Utatlán 	7	Santa Rita 	3	Marzo	2023-08-03T00:00:00	2024-11-08T22:00:00	8	Radiación solar	0
80865	7	Sololá	704	Santa Lucía Utatlán 	7	Santa Rita 	3	Marzo	2023-08-03T00:00:00	2024-11-08T23:00:00	2	Temperatura media	15.1
80866	7	Sololá	704	Santa Lucía Utatlán 	7	Santa Rita 	3	Marzo	2023-08-03T00:00:00	2024-11-08T23:00:00	4	Temperatura máxima	15.8
80867	7	Sololá	704	Santa Lucía Utatlán 	7	Santa Rita 	3	Marzo	2023-08-03T00:00:00	2024-11-08T23:00:00	3	Temperatura mínima	15.1
80868	7	Sololá	704	Santa Lucía Utatlán 	7	Santa Rita 	3	Marzo	2023-08-03T00:00:00	2024-11-08T23:00:00	5	Humedad	85
80869	7	Sololá	704	Santa Lucía Utatlán 	7	Santa Rita 	3	Marzo	2023-08-03T00:00:00	2024-11-08T23:00:00	6	Velocidad del viento	1.6
80870	7	Sololá	704	Santa Lucía Utatlán 	7	Santa Rita 	3	Marzo	2023-08-03T00:00:00	2024-11-08T23:00:00	7	Dirección del viento	1.61
80871	7	Sololá	704	Santa Lucía Utatlán 	7	Santa Rita 	3	Marzo	2023-08-03T00:00:00	2024-11-08T23:00:00	1	Precipitación	0
80872	7	Sololá	704	Santa Lucía Utatlán 	7	Santa Rita 	3	Marzo	2023-08-03T00:00:00	2024-11-08T23:00:00	8	Radiación solar	0
80873	7	Sololá	704	Santa Lucía Utatlán 	7	Santa Rita 	3	Marzo	2023-09-03T00:00:00	2024-11-08T00:00:00	2	Temperatura media	14.7
80874	7	Sololá	704	Santa Lucía Utatlán 	7	Santa Rita 	3	Marzo	2023-09-03T00:00:00	2024-11-08T00:00:00	4	Temperatura máxima	15.2
80875	7	Sololá	704	Santa Lucía Utatlán 	7	Santa Rita 	3	Marzo	2023-09-03T00:00:00	2024-11-08T00:00:00	3	Temperatura mínima	14.7
80876	7	Sololá	704	Santa Lucía Utatlán 	7	Santa Rita 	3	Marzo	2023-09-03T00:00:00	2024-11-08T00:00:00	5	Humedad	86
80877	7	Sololá	704	Santa Lucía Utatlán 	7	Santa Rita 	3	Marzo	2023-09-03T00:00:00	2024-11-08T00:00:00	6	Velocidad del viento	3.2
80878	7	Sololá	704	Santa Lucía Utatlán 	7	Santa Rita 	3	Marzo	2023-09-03T00:00:00	2024-11-08T00:00:00	7	Dirección del viento	3.22
80879	7	Sololá	704	Santa Lucía Utatlán 	7	Santa Rita 	3	Marzo	2023-09-03T00:00:00	2024-11-08T00:00:00	1	Precipitación	0
80880	7	Sololá	704	Santa Lucía Utatlán 	7	Santa Rita 	3	Marzo	2023-09-03T00:00:00	2024-11-08T00:00:00	8	Radiación solar	0
80881	7	Sololá	704	Santa Lucía Utatlán 	7	Santa Rita 	3	Marzo	2023-09-03T00:00:00	2024-11-08T01:00:00	2	Temperatura media	14.4
80882	7	Sololá	704	Santa Lucía Utatlán 	7	Santa Rita 	3	Marzo	2023-09-03T00:00:00	2024-11-08T01:00:00	4	Temperatura máxima	14.7
80883	7	Sololá	704	Santa Lucía Utatlán 	7	Santa Rita 	3	Marzo	2023-09-03T00:00:00	2024-11-08T01:00:00	3	Temperatura mínima	14.4
80884	7	Sololá	704	Santa Lucía Utatlán 	7	Santa Rita 	3	Marzo	2023-09-03T00:00:00	2024-11-08T01:00:00	5	Humedad	88
80885	7	Sololá	704	Santa Lucía Utatlán 	7	Santa Rita 	3	Marzo	2023-09-03T00:00:00	2024-11-08T01:00:00	6	Velocidad del viento	3.2
80886	7	Sololá	704	Santa Lucía Utatlán 	7	Santa Rita 	3	Marzo	2023-09-03T00:00:00	2024-11-08T01:00:00	7	Dirección del viento	3.22
80887	7	Sololá	704	Santa Lucía Utatlán 	7	Santa Rita 	3	Marzo	2023-09-03T00:00:00	2024-11-08T01:00:00	1	Precipitación	0
80888	7	Sololá	704	Santa Lucía Utatlán 	7	Santa Rita 	3	Marzo	2023-09-03T00:00:00	2024-11-08T01:00:00	8	Radiación solar	0
80889	7	Sololá	704	Santa Lucía Utatlán 	7	Santa Rita 	3	Marzo	2023-09-03T00:00:00	2024-11-08T02:00:00	2	Temperatura media	15.7
80890	7	Sololá	704	Santa Lucía Utatlán 	7	Santa Rita 	3	Marzo	2023-09-03T00:00:00	2024-11-08T02:00:00	4	Temperatura máxima	15.8
80891	7	Sololá	704	Santa Lucía Utatlán 	7	Santa Rita 	3	Marzo	2023-09-03T00:00:00	2024-11-08T02:00:00	3	Temperatura mínima	14.4
80892	7	Sololá	704	Santa Lucía Utatlán 	7	Santa Rita 	3	Marzo	2023-09-03T00:00:00	2024-11-08T02:00:00	5	Humedad	85
80893	7	Sololá	704	Santa Lucía Utatlán 	7	Santa Rita 	3	Marzo	2023-09-03T00:00:00	2024-11-08T02:00:00	6	Velocidad del viento	1.6
80894	7	Sololá	704	Santa Lucía Utatlán 	7	Santa Rita 	3	Marzo	2023-09-03T00:00:00	2024-11-08T02:00:00	7	Dirección del viento	1.61
80895	7	Sololá	704	Santa Lucía Utatlán 	7	Santa Rita 	3	Marzo	2023-09-03T00:00:00	2024-11-08T02:00:00	1	Precipitación	0
80896	7	Sololá	704	Santa Lucía Utatlán 	7	Santa Rita 	3	Marzo	2023-09-03T00:00:00	2024-11-08T02:00:00	8	Radiación solar	0
80897	7	Sololá	704	Santa Lucía Utatlán 	7	Santa Rita 	3	Marzo	2023-09-03T00:00:00	2024-11-08T03:00:00	2	Temperatura media	15.4
80898	7	Sololá	704	Santa Lucía Utatlán 	7	Santa Rita 	3	Marzo	2023-09-03T00:00:00	2024-11-08T03:00:00	4	Temperatura máxima	15.8
80899	7	Sololá	704	Santa Lucía Utatlán 	7	Santa Rita 	3	Marzo	2023-09-03T00:00:00	2024-11-08T03:00:00	3	Temperatura mínima	14.8
80900	7	Sololá	704	Santa Lucía Utatlán 	7	Santa Rita 	3	Marzo	2023-09-03T00:00:00	2024-11-08T03:00:00	5	Humedad	87
80901	7	Sololá	704	Santa Lucía Utatlán 	7	Santa Rita 	3	Marzo	2023-09-03T00:00:00	2024-11-08T03:00:00	6	Velocidad del viento	0
80902	7	Sololá	704	Santa Lucía Utatlán 	7	Santa Rita 	3	Marzo	2023-09-03T00:00:00	2024-11-08T03:00:00	7	Dirección del viento	0
80903	7	Sololá	704	Santa Lucía Utatlán 	7	Santa Rita 	3	Marzo	2023-09-03T00:00:00	2024-11-08T03:00:00	1	Precipitación	0
80904	7	Sololá	704	Santa Lucía Utatlán 	7	Santa Rita 	3	Marzo	2023-09-03T00:00:00	2024-11-08T03:00:00	8	Radiación solar	0
80905	7	Sololá	704	Santa Lucía Utatlán 	7	Santa Rita 	3	Marzo	2023-09-03T00:00:00	2024-11-08T04:00:00	2	Temperatura media	15.1
80906	7	Sololá	704	Santa Lucía Utatlán 	7	Santa Rita 	3	Marzo	2023-09-03T00:00:00	2024-11-08T04:00:00	4	Temperatura máxima	15.8
80907	7	Sololá	704	Santa Lucía Utatlán 	7	Santa Rita 	3	Marzo	2023-09-03T00:00:00	2024-11-08T04:00:00	3	Temperatura mínima	14.8
80908	7	Sololá	704	Santa Lucía Utatlán 	7	Santa Rita 	3	Marzo	2023-09-03T00:00:00	2024-11-08T04:00:00	5	Humedad	86
80909	7	Sololá	704	Santa Lucía Utatlán 	7	Santa Rita 	3	Marzo	2023-09-03T00:00:00	2024-11-08T04:00:00	6	Velocidad del viento	0
80910	7	Sololá	704	Santa Lucía Utatlán 	7	Santa Rita 	3	Marzo	2023-09-03T00:00:00	2024-11-08T04:00:00	7	Dirección del viento	0
80911	7	Sololá	704	Santa Lucía Utatlán 	7	Santa Rita 	3	Marzo	2023-09-03T00:00:00	2024-11-08T04:00:00	1	Precipitación	0
80912	7	Sololá	704	Santa Lucía Utatlán 	7	Santa Rita 	3	Marzo	2023-09-03T00:00:00	2024-11-08T04:00:00	8	Radiación solar	0
80913	7	Sololá	704	Santa Lucía Utatlán 	7	Santa Rita 	3	Marzo	2023-09-03T00:00:00	2024-11-08T05:00:00	2	Temperatura media	14
80914	7	Sololá	704	Santa Lucía Utatlán 	7	Santa Rita 	3	Marzo	2023-09-03T00:00:00	2024-11-08T05:00:00	4	Temperatura máxima	15.1
80915	7	Sololá	704	Santa Lucía Utatlán 	7	Santa Rita 	3	Marzo	2023-09-03T00:00:00	2024-11-08T05:00:00	3	Temperatura mínima	13.9
80916	7	Sololá	704	Santa Lucía Utatlán 	7	Santa Rita 	3	Marzo	2023-09-03T00:00:00	2024-11-08T05:00:00	5	Humedad	88
80917	7	Sololá	704	Santa Lucía Utatlán 	7	Santa Rita 	3	Marzo	2023-09-03T00:00:00	2024-11-08T05:00:00	6	Velocidad del viento	1.6
80918	7	Sololá	704	Santa Lucía Utatlán 	7	Santa Rita 	3	Marzo	2023-09-03T00:00:00	2024-11-08T05:00:00	7	Dirección del viento	1.61
80919	7	Sololá	704	Santa Lucía Utatlán 	7	Santa Rita 	3	Marzo	2023-09-03T00:00:00	2024-11-08T05:00:00	1	Precipitación	0
80920	7	Sololá	704	Santa Lucía Utatlán 	7	Santa Rita 	3	Marzo	2023-09-03T00:00:00	2024-11-08T05:00:00	8	Radiación solar	0
80921	7	Sololá	704	Santa Lucía Utatlán 	7	Santa Rita 	3	Marzo	2023-09-03T00:00:00	2024-11-08T06:00:00	2	Temperatura media	13.6
80922	7	Sololá	704	Santa Lucía Utatlán 	7	Santa Rita 	3	Marzo	2023-09-03T00:00:00	2024-11-08T06:00:00	4	Temperatura máxima	14
80923	7	Sololá	704	Santa Lucía Utatlán 	7	Santa Rita 	3	Marzo	2023-09-03T00:00:00	2024-11-08T06:00:00	3	Temperatura mínima	13.4
80924	7	Sololá	704	Santa Lucía Utatlán 	7	Santa Rita 	3	Marzo	2023-09-03T00:00:00	2024-11-08T06:00:00	5	Humedad	89
80925	7	Sololá	704	Santa Lucía Utatlán 	7	Santa Rita 	3	Marzo	2023-09-03T00:00:00	2024-11-08T06:00:00	6	Velocidad del viento	1.6
80926	7	Sololá	704	Santa Lucía Utatlán 	7	Santa Rita 	3	Marzo	2023-09-03T00:00:00	2024-11-08T06:00:00	7	Dirección del viento	1.61
80927	7	Sololá	704	Santa Lucía Utatlán 	7	Santa Rita 	3	Marzo	2023-09-03T00:00:00	2024-11-08T06:00:00	1	Precipitación	0
80928	7	Sololá	704	Santa Lucía Utatlán 	7	Santa Rita 	3	Marzo	2023-09-03T00:00:00	2024-11-08T06:00:00	8	Radiación solar	0
80929	7	Sololá	704	Santa Lucía Utatlán 	7	Santa Rita 	3	Marzo	2023-09-03T00:00:00	2024-11-08T07:00:00	2	Temperatura media	14.5
80930	7	Sololá	704	Santa Lucía Utatlán 	7	Santa Rita 	3	Marzo	2023-09-03T00:00:00	2024-11-08T07:00:00	4	Temperatura máxima	14.6
80931	7	Sololá	704	Santa Lucía Utatlán 	7	Santa Rita 	3	Marzo	2023-09-03T00:00:00	2024-11-08T07:00:00	3	Temperatura mínima	13.6
80932	7	Sololá	704	Santa Lucía Utatlán 	7	Santa Rita 	3	Marzo	2023-09-03T00:00:00	2024-11-08T07:00:00	5	Humedad	87
80933	7	Sololá	704	Santa Lucía Utatlán 	7	Santa Rita 	3	Marzo	2023-09-03T00:00:00	2024-11-08T07:00:00	6	Velocidad del viento	1.6
80934	7	Sololá	704	Santa Lucía Utatlán 	7	Santa Rita 	3	Marzo	2023-09-03T00:00:00	2024-11-08T07:00:00	7	Dirección del viento	1.61
80935	7	Sololá	704	Santa Lucía Utatlán 	7	Santa Rita 	3	Marzo	2023-09-03T00:00:00	2024-11-08T07:00:00	1	Precipitación	0
80936	7	Sololá	704	Santa Lucía Utatlán 	7	Santa Rita 	3	Marzo	2023-09-03T00:00:00	2024-11-08T07:00:00	8	Radiación solar	27
80937	7	Sololá	704	Santa Lucía Utatlán 	7	Santa Rita 	3	Marzo	2023-09-03T00:00:00	2024-11-08T08:00:00	2	Temperatura media	18.3
80938	7	Sololá	704	Santa Lucía Utatlán 	7	Santa Rita 	3	Marzo	2023-09-03T00:00:00	2024-11-08T08:00:00	4	Temperatura máxima	18.3
80939	7	Sololá	704	Santa Lucía Utatlán 	7	Santa Rita 	3	Marzo	2023-09-03T00:00:00	2024-11-08T08:00:00	3	Temperatura mínima	14.6
80940	7	Sololá	704	Santa Lucía Utatlán 	7	Santa Rita 	3	Marzo	2023-09-03T00:00:00	2024-11-08T08:00:00	5	Humedad	78
80941	7	Sololá	704	Santa Lucía Utatlán 	7	Santa Rita 	3	Marzo	2023-09-03T00:00:00	2024-11-08T08:00:00	6	Velocidad del viento	0
80942	7	Sololá	704	Santa Lucía Utatlán 	7	Santa Rita 	3	Marzo	2023-09-03T00:00:00	2024-11-08T08:00:00	7	Dirección del viento	0
80943	7	Sololá	704	Santa Lucía Utatlán 	7	Santa Rita 	3	Marzo	2023-09-03T00:00:00	2024-11-08T08:00:00	1	Precipitación	0
80944	7	Sololá	704	Santa Lucía Utatlán 	7	Santa Rita 	3	Marzo	2023-09-03T00:00:00	2024-11-08T08:00:00	8	Radiación solar	165
80945	7	Sololá	704	Santa Lucía Utatlán 	7	Santa Rita 	3	Marzo	2023-09-03T00:00:00	2024-11-08T09:00:00	2	Temperatura media	19.9
80946	7	Sololá	704	Santa Lucía Utatlán 	7	Santa Rita 	3	Marzo	2023-09-03T00:00:00	2024-11-08T09:00:00	4	Temperatura máxima	20
80947	7	Sololá	704	Santa Lucía Utatlán 	7	Santa Rita 	3	Marzo	2023-09-03T00:00:00	2024-11-08T09:00:00	3	Temperatura mínima	18.3
80948	7	Sololá	704	Santa Lucía Utatlán 	7	Santa Rita 	3	Marzo	2023-09-03T00:00:00	2024-11-08T09:00:00	5	Humedad	71
80949	7	Sololá	704	Santa Lucía Utatlán 	7	Santa Rita 	3	Marzo	2023-09-03T00:00:00	2024-11-08T09:00:00	6	Velocidad del viento	3.2
80950	7	Sololá	704	Santa Lucía Utatlán 	7	Santa Rita 	3	Marzo	2023-09-03T00:00:00	2024-11-08T09:00:00	7	Dirección del viento	3.22
80951	7	Sololá	704	Santa Lucía Utatlán 	7	Santa Rita 	3	Marzo	2023-09-03T00:00:00	2024-11-08T09:00:00	1	Precipitación	0
80952	7	Sololá	704	Santa Lucía Utatlán 	7	Santa Rita 	3	Marzo	2023-09-03T00:00:00	2024-11-08T09:00:00	8	Radiación solar	374
80953	7	Sololá	704	Santa Lucía Utatlán 	7	Santa Rita 	3	Marzo	2023-09-03T00:00:00	2024-11-08T10:00:00	2	Temperatura media	20.9
80954	7	Sololá	704	Santa Lucía Utatlán 	7	Santa Rita 	3	Marzo	2023-09-03T00:00:00	2024-11-08T10:00:00	4	Temperatura máxima	21
80955	7	Sololá	704	Santa Lucía Utatlán 	7	Santa Rita 	3	Marzo	2023-09-03T00:00:00	2024-11-08T10:00:00	3	Temperatura mínima	19.8
80956	7	Sololá	704	Santa Lucía Utatlán 	7	Santa Rita 	3	Marzo	2023-09-03T00:00:00	2024-11-08T10:00:00	5	Humedad	69
80957	7	Sololá	704	Santa Lucía Utatlán 	7	Santa Rita 	3	Marzo	2023-09-03T00:00:00	2024-11-08T10:00:00	6	Velocidad del viento	3.2
80958	7	Sololá	704	Santa Lucía Utatlán 	7	Santa Rita 	3	Marzo	2023-09-03T00:00:00	2024-11-08T10:00:00	7	Dirección del viento	3.22
80959	7	Sololá	704	Santa Lucía Utatlán 	7	Santa Rita 	3	Marzo	2023-09-03T00:00:00	2024-11-08T10:00:00	1	Precipitación	0
80960	7	Sololá	704	Santa Lucía Utatlán 	7	Santa Rita 	3	Marzo	2023-09-03T00:00:00	2024-11-08T10:00:00	8	Radiación solar	486
80961	7	Sololá	704	Santa Lucía Utatlán 	7	Santa Rita 	3	Marzo	2023-09-03T00:00:00	2024-11-08T11:00:00	2	Temperatura media	21.4
80962	7	Sololá	704	Santa Lucía Utatlán 	7	Santa Rita 	3	Marzo	2023-09-03T00:00:00	2024-11-08T11:00:00	4	Temperatura máxima	21.6
80963	7	Sololá	704	Santa Lucía Utatlán 	7	Santa Rita 	3	Marzo	2023-09-03T00:00:00	2024-11-08T11:00:00	3	Temperatura mínima	20.9
80964	7	Sololá	704	Santa Lucía Utatlán 	7	Santa Rita 	3	Marzo	2023-09-03T00:00:00	2024-11-08T11:00:00	5	Humedad	65
80965	7	Sololá	704	Santa Lucía Utatlán 	7	Santa Rita 	3	Marzo	2023-09-03T00:00:00	2024-11-08T11:00:00	6	Velocidad del viento	3.2
80966	7	Sololá	704	Santa Lucía Utatlán 	7	Santa Rita 	3	Marzo	2023-09-03T00:00:00	2024-11-08T11:00:00	7	Dirección del viento	3.22
80967	7	Sololá	704	Santa Lucía Utatlán 	7	Santa Rita 	3	Marzo	2023-09-03T00:00:00	2024-11-08T11:00:00	1	Precipitación	0
80968	7	Sololá	704	Santa Lucía Utatlán 	7	Santa Rita 	3	Marzo	2023-09-03T00:00:00	2024-11-08T11:00:00	8	Radiación solar	292
80969	7	Sololá	704	Santa Lucía Utatlán 	7	Santa Rita 	3	Marzo	2023-09-03T00:00:00	2024-11-08T12:00:00	2	Temperatura media	22.8
80970	7	Sololá	704	Santa Lucía Utatlán 	7	Santa Rita 	3	Marzo	2023-09-03T00:00:00	2024-11-08T12:00:00	4	Temperatura máxima	22.9
80971	7	Sololá	704	Santa Lucía Utatlán 	7	Santa Rita 	3	Marzo	2023-09-03T00:00:00	2024-11-08T12:00:00	3	Temperatura mínima	22.7
80972	7	Sololá	704	Santa Lucía Utatlán 	7	Santa Rita 	3	Marzo	2023-09-03T00:00:00	2024-11-08T12:00:00	5	Humedad	64
80973	7	Sololá	704	Santa Lucía Utatlán 	7	Santa Rita 	3	Marzo	2023-09-03T00:00:00	2024-11-08T12:00:00	6	Velocidad del viento	3.2
80974	7	Sololá	704	Santa Lucía Utatlán 	7	Santa Rita 	3	Marzo	2023-09-03T00:00:00	2024-11-08T12:00:00	7	Dirección del viento	3.22
80975	7	Sololá	704	Santa Lucía Utatlán 	7	Santa Rita 	3	Marzo	2023-09-03T00:00:00	2024-11-08T12:00:00	1	Precipitación	0
80976	7	Sololá	704	Santa Lucía Utatlán 	7	Santa Rita 	3	Marzo	2023-09-03T00:00:00	2024-11-08T12:00:00	8	Radiación solar	308
80977	7	Sololá	704	Santa Lucía Utatlán 	7	Santa Rita 	3	Marzo	2023-09-03T00:00:00	2024-11-08T13:00:00	2	Temperatura media	23.3
80978	7	Sololá	704	Santa Lucía Utatlán 	7	Santa Rita 	3	Marzo	2023-09-03T00:00:00	2024-11-08T13:00:00	4	Temperatura máxima	23.9
80979	7	Sololá	704	Santa Lucía Utatlán 	7	Santa Rita 	3	Marzo	2023-09-03T00:00:00	2024-11-08T13:00:00	3	Temperatura mínima	22.6
80980	7	Sololá	704	Santa Lucía Utatlán 	7	Santa Rita 	3	Marzo	2023-09-03T00:00:00	2024-11-08T13:00:00	5	Humedad	66
80981	7	Sololá	704	Santa Lucía Utatlán 	7	Santa Rita 	3	Marzo	2023-09-03T00:00:00	2024-11-08T13:00:00	6	Velocidad del viento	6.4
80982	7	Sololá	704	Santa Lucía Utatlán 	7	Santa Rita 	3	Marzo	2023-09-03T00:00:00	2024-11-08T13:00:00	7	Dirección del viento	6.44
80983	7	Sololá	704	Santa Lucía Utatlán 	7	Santa Rita 	3	Marzo	2023-09-03T00:00:00	2024-11-08T13:00:00	1	Precipitación	0
80984	7	Sololá	704	Santa Lucía Utatlán 	7	Santa Rita 	3	Marzo	2023-09-03T00:00:00	2024-11-08T13:00:00	8	Radiación solar	432
80985	7	Sololá	704	Santa Lucía Utatlán 	7	Santa Rita 	3	Marzo	2023-09-03T00:00:00	2024-11-08T14:00:00	2	Temperatura media	22.2
80986	7	Sololá	704	Santa Lucía Utatlán 	7	Santa Rita 	3	Marzo	2023-09-03T00:00:00	2024-11-08T14:00:00	4	Temperatura máxima	23.3
80987	7	Sololá	704	Santa Lucía Utatlán 	7	Santa Rita 	3	Marzo	2023-09-03T00:00:00	2024-11-08T14:00:00	3	Temperatura mínima	22
80988	7	Sololá	704	Santa Lucía Utatlán 	7	Santa Rita 	3	Marzo	2023-09-03T00:00:00	2024-11-08T14:00:00	5	Humedad	73
80989	7	Sololá	704	Santa Lucía Utatlán 	7	Santa Rita 	3	Marzo	2023-09-03T00:00:00	2024-11-08T14:00:00	6	Velocidad del viento	6.4
80990	7	Sololá	704	Santa Lucía Utatlán 	7	Santa Rita 	3	Marzo	2023-09-03T00:00:00	2024-11-08T14:00:00	7	Dirección del viento	6.44
80991	7	Sololá	704	Santa Lucía Utatlán 	7	Santa Rita 	3	Marzo	2023-09-03T00:00:00	2024-11-08T14:00:00	1	Precipitación	0
80992	7	Sololá	704	Santa Lucía Utatlán 	7	Santa Rita 	3	Marzo	2023-09-03T00:00:00	2024-11-08T14:00:00	8	Radiación solar	294
80993	7	Sololá	704	Santa Lucía Utatlán 	7	Santa Rita 	3	Marzo	2023-09-03T00:00:00	2024-11-08T15:00:00	2	Temperatura media	21.9
80994	7	Sololá	704	Santa Lucía Utatlán 	7	Santa Rita 	3	Marzo	2023-09-03T00:00:00	2024-11-08T15:00:00	4	Temperatura máxima	22.6
80995	7	Sololá	704	Santa Lucía Utatlán 	7	Santa Rita 	3	Marzo	2023-09-03T00:00:00	2024-11-08T15:00:00	3	Temperatura mínima	21.9
80996	7	Sololá	704	Santa Lucía Utatlán 	7	Santa Rita 	3	Marzo	2023-09-03T00:00:00	2024-11-08T15:00:00	5	Humedad	76
80997	7	Sololá	704	Santa Lucía Utatlán 	7	Santa Rita 	3	Marzo	2023-09-03T00:00:00	2024-11-08T15:00:00	6	Velocidad del viento	6.4
80998	7	Sololá	704	Santa Lucía Utatlán 	7	Santa Rita 	3	Marzo	2023-09-03T00:00:00	2024-11-08T15:00:00	7	Dirección del viento	6.44
80999	7	Sololá	704	Santa Lucía Utatlán 	7	Santa Rita 	3	Marzo	2023-09-03T00:00:00	2024-11-08T15:00:00	1	Precipitación	0
81000	7	Sololá	704	Santa Lucía Utatlán 	7	Santa Rita 	3	Marzo	2023-09-03T00:00:00	2024-11-08T15:00:00	8	Radiación solar	332
81001	7	Sololá	704	Santa Lucía Utatlán 	7	Santa Rita 	3	Marzo	2023-09-03T00:00:00	2024-11-08T16:00:00	2	Temperatura media	21.4
81002	7	Sololá	704	Santa Lucía Utatlán 	7	Santa Rita 	3	Marzo	2023-09-03T00:00:00	2024-11-08T16:00:00	4	Temperatura máxima	22.1
81003	7	Sololá	704	Santa Lucía Utatlán 	7	Santa Rita 	3	Marzo	2023-09-03T00:00:00	2024-11-08T16:00:00	3	Temperatura mínima	21.2
81004	7	Sololá	704	Santa Lucía Utatlán 	7	Santa Rita 	3	Marzo	2023-09-03T00:00:00	2024-11-08T16:00:00	5	Humedad	80
81005	7	Sololá	704	Santa Lucía Utatlán 	7	Santa Rita 	3	Marzo	2023-09-03T00:00:00	2024-11-08T16:00:00	6	Velocidad del viento	4.8
81006	7	Sololá	704	Santa Lucía Utatlán 	7	Santa Rita 	3	Marzo	2023-09-03T00:00:00	2024-11-08T16:00:00	7	Dirección del viento	4.83
81007	7	Sololá	704	Santa Lucía Utatlán 	7	Santa Rita 	3	Marzo	2023-09-03T00:00:00	2024-11-08T16:00:00	1	Precipitación	0
81008	7	Sololá	704	Santa Lucía Utatlán 	7	Santa Rita 	3	Marzo	2023-09-03T00:00:00	2024-11-08T16:00:00	8	Radiación solar	197
81009	7	Sololá	704	Santa Lucía Utatlán 	7	Santa Rita 	3	Marzo	2023-09-03T00:00:00	2024-11-08T17:00:00	2	Temperatura media	20.4
81010	7	Sololá	704	Santa Lucía Utatlán 	7	Santa Rita 	3	Marzo	2023-09-03T00:00:00	2024-11-08T17:00:00	4	Temperatura máxima	21.7
81011	7	Sololá	704	Santa Lucía Utatlán 	7	Santa Rita 	3	Marzo	2023-09-03T00:00:00	2024-11-08T17:00:00	3	Temperatura mínima	20.4
81012	7	Sololá	704	Santa Lucía Utatlán 	7	Santa Rita 	3	Marzo	2023-09-03T00:00:00	2024-11-08T17:00:00	5	Humedad	84
81013	7	Sololá	704	Santa Lucía Utatlán 	7	Santa Rita 	3	Marzo	2023-09-03T00:00:00	2024-11-08T17:00:00	6	Velocidad del viento	3.2
81014	7	Sololá	704	Santa Lucía Utatlán 	7	Santa Rita 	3	Marzo	2023-09-03T00:00:00	2024-11-08T17:00:00	7	Dirección del viento	3.22
81015	7	Sololá	704	Santa Lucía Utatlán 	7	Santa Rita 	3	Marzo	2023-09-03T00:00:00	2024-11-08T17:00:00	1	Precipitación	0
81016	7	Sololá	704	Santa Lucía Utatlán 	7	Santa Rita 	3	Marzo	2023-09-03T00:00:00	2024-11-08T17:00:00	8	Radiación solar	131
81017	7	Sololá	704	Santa Lucía Utatlán 	7	Santa Rita 	3	Marzo	2023-09-03T00:00:00	2024-11-08T18:00:00	2	Temperatura media	19.7
81018	7	Sololá	704	Santa Lucía Utatlán 	7	Santa Rita 	3	Marzo	2023-09-03T00:00:00	2024-11-08T18:00:00	4	Temperatura máxima	20.4
81019	7	Sololá	704	Santa Lucía Utatlán 	7	Santa Rita 	3	Marzo	2023-09-03T00:00:00	2024-11-08T18:00:00	3	Temperatura mínima	19.7
81020	7	Sololá	704	Santa Lucía Utatlán 	7	Santa Rita 	3	Marzo	2023-09-03T00:00:00	2024-11-08T18:00:00	5	Humedad	86
81021	7	Sololá	704	Santa Lucía Utatlán 	7	Santa Rita 	3	Marzo	2023-09-03T00:00:00	2024-11-08T18:00:00	6	Velocidad del viento	1.6
81022	7	Sololá	704	Santa Lucía Utatlán 	7	Santa Rita 	3	Marzo	2023-09-03T00:00:00	2024-11-08T18:00:00	7	Dirección del viento	1.61
81023	7	Sololá	704	Santa Lucía Utatlán 	7	Santa Rita 	3	Marzo	2023-09-03T00:00:00	2024-11-08T18:00:00	1	Precipitación	0
81024	7	Sololá	704	Santa Lucía Utatlán 	7	Santa Rita 	3	Marzo	2023-09-03T00:00:00	2024-11-08T18:00:00	8	Radiación solar	45
81025	7	Sololá	704	Santa Lucía Utatlán 	7	Santa Rita 	3	Marzo	2023-09-03T00:00:00	2024-11-08T19:00:00	2	Temperatura media	19.1
81026	7	Sololá	704	Santa Lucía Utatlán 	7	Santa Rita 	3	Marzo	2023-09-03T00:00:00	2024-11-08T19:00:00	4	Temperatura máxima	19.7
81027	7	Sololá	704	Santa Lucía Utatlán 	7	Santa Rita 	3	Marzo	2023-09-03T00:00:00	2024-11-08T19:00:00	3	Temperatura mínima	19.1
81028	7	Sololá	704	Santa Lucía Utatlán 	7	Santa Rita 	3	Marzo	2023-09-03T00:00:00	2024-11-08T19:00:00	5	Humedad	88
81029	7	Sololá	704	Santa Lucía Utatlán 	7	Santa Rita 	3	Marzo	2023-09-03T00:00:00	2024-11-08T19:00:00	6	Velocidad del viento	0
81030	7	Sololá	704	Santa Lucía Utatlán 	7	Santa Rita 	3	Marzo	2023-09-03T00:00:00	2024-11-08T19:00:00	7	Dirección del viento	0
81031	7	Sololá	704	Santa Lucía Utatlán 	7	Santa Rita 	3	Marzo	2023-09-03T00:00:00	2024-11-08T19:00:00	1	Precipitación	0
81032	7	Sololá	704	Santa Lucía Utatlán 	7	Santa Rita 	3	Marzo	2023-09-03T00:00:00	2024-11-08T19:00:00	8	Radiación solar	0
81033	7	Sololá	704	Santa Lucía Utatlán 	7	Santa Rita 	3	Marzo	2023-09-03T00:00:00	2024-11-08T20:00:00	2	Temperatura media	17.9
81034	7	Sololá	704	Santa Lucía Utatlán 	7	Santa Rita 	3	Marzo	2023-09-03T00:00:00	2024-11-08T20:00:00	4	Temperatura máxima	19.1
81035	7	Sololá	704	Santa Lucía Utatlán 	7	Santa Rita 	3	Marzo	2023-09-03T00:00:00	2024-11-08T20:00:00	3	Temperatura mínima	17.9
81036	7	Sololá	704	Santa Lucía Utatlán 	7	Santa Rita 	3	Marzo	2023-09-03T00:00:00	2024-11-08T20:00:00	5	Humedad	86
81037	7	Sololá	704	Santa Lucía Utatlán 	7	Santa Rita 	3	Marzo	2023-09-03T00:00:00	2024-11-08T20:00:00	6	Velocidad del viento	0
81038	7	Sololá	704	Santa Lucía Utatlán 	7	Santa Rita 	3	Marzo	2023-09-03T00:00:00	2024-11-08T20:00:00	7	Dirección del viento	0
81039	7	Sololá	704	Santa Lucía Utatlán 	7	Santa Rita 	3	Marzo	2023-09-03T00:00:00	2024-11-08T20:00:00	1	Precipitación	0
81040	7	Sololá	704	Santa Lucía Utatlán 	7	Santa Rita 	3	Marzo	2023-09-03T00:00:00	2024-11-08T20:00:00	8	Radiación solar	0
81041	7	Sololá	704	Santa Lucía Utatlán 	7	Santa Rita 	3	Marzo	2023-09-03T00:00:00	2024-11-08T21:00:00	2	Temperatura media	16.6
81042	7	Sololá	704	Santa Lucía Utatlán 	7	Santa Rita 	3	Marzo	2023-09-03T00:00:00	2024-11-08T21:00:00	4	Temperatura máxima	17.8
81043	7	Sololá	704	Santa Lucía Utatlán 	7	Santa Rita 	3	Marzo	2023-09-03T00:00:00	2024-11-08T21:00:00	3	Temperatura mínima	16.5
81044	7	Sololá	704	Santa Lucía Utatlán 	7	Santa Rita 	3	Marzo	2023-09-03T00:00:00	2024-11-08T21:00:00	5	Humedad	86
81045	7	Sololá	704	Santa Lucía Utatlán 	7	Santa Rita 	3	Marzo	2023-09-03T00:00:00	2024-11-08T21:00:00	6	Velocidad del viento	0
81046	7	Sololá	704	Santa Lucía Utatlán 	7	Santa Rita 	3	Marzo	2023-09-03T00:00:00	2024-11-08T21:00:00	7	Dirección del viento	0
81047	7	Sololá	704	Santa Lucía Utatlán 	7	Santa Rita 	3	Marzo	2023-09-03T00:00:00	2024-11-08T21:00:00	1	Precipitación	0
81048	7	Sololá	704	Santa Lucía Utatlán 	7	Santa Rita 	3	Marzo	2023-09-03T00:00:00	2024-11-08T21:00:00	8	Radiación solar	0
81049	7	Sololá	704	Santa Lucía Utatlán 	7	Santa Rita 	3	Marzo	2023-09-03T00:00:00	2024-11-08T22:00:00	2	Temperatura media	15.7
81050	7	Sololá	704	Santa Lucía Utatlán 	7	Santa Rita 	3	Marzo	2023-09-03T00:00:00	2024-11-08T22:00:00	4	Temperatura máxima	16.5
81051	7	Sololá	704	Santa Lucía Utatlán 	7	Santa Rita 	3	Marzo	2023-09-03T00:00:00	2024-11-08T22:00:00	3	Temperatura mínima	15.7
81052	7	Sololá	704	Santa Lucía Utatlán 	7	Santa Rita 	3	Marzo	2023-09-03T00:00:00	2024-11-08T22:00:00	5	Humedad	89
81053	7	Sololá	704	Santa Lucía Utatlán 	7	Santa Rita 	3	Marzo	2023-09-03T00:00:00	2024-11-08T22:00:00	6	Velocidad del viento	1.6
81054	7	Sololá	704	Santa Lucía Utatlán 	7	Santa Rita 	3	Marzo	2023-09-03T00:00:00	2024-11-08T22:00:00	7	Dirección del viento	1.61
81055	7	Sololá	704	Santa Lucía Utatlán 	7	Santa Rita 	3	Marzo	2023-09-03T00:00:00	2024-11-08T22:00:00	1	Precipitación	0
81056	7	Sololá	704	Santa Lucía Utatlán 	7	Santa Rita 	3	Marzo	2023-09-03T00:00:00	2024-11-08T22:00:00	8	Radiación solar	0
81057	7	Sololá	704	Santa Lucía Utatlán 	7	Santa Rita 	3	Marzo	2023-09-03T00:00:00	2024-11-08T23:00:00	2	Temperatura media	14.8
81058	7	Sololá	704	Santa Lucía Utatlán 	7	Santa Rita 	3	Marzo	2023-09-03T00:00:00	2024-11-08T23:00:00	4	Temperatura máxima	15.7
81059	7	Sololá	704	Santa Lucía Utatlán 	7	Santa Rita 	3	Marzo	2023-09-03T00:00:00	2024-11-08T23:00:00	3	Temperatura mínima	14.8
81060	7	Sololá	704	Santa Lucía Utatlán 	7	Santa Rita 	3	Marzo	2023-09-03T00:00:00	2024-11-08T23:00:00	5	Humedad	90
81061	7	Sololá	704	Santa Lucía Utatlán 	7	Santa Rita 	3	Marzo	2023-09-03T00:00:00	2024-11-08T23:00:00	6	Velocidad del viento	1.6
81062	7	Sololá	704	Santa Lucía Utatlán 	7	Santa Rita 	3	Marzo	2023-09-03T00:00:00	2024-11-08T23:00:00	7	Dirección del viento	1.61
81063	7	Sololá	704	Santa Lucía Utatlán 	7	Santa Rita 	3	Marzo	2023-09-03T00:00:00	2024-11-08T23:00:00	1	Precipitación	0
81064	7	Sololá	704	Santa Lucía Utatlán 	7	Santa Rita 	3	Marzo	2023-09-03T00:00:00	2024-11-08T23:00:00	8	Radiación solar	0
81065	7	Sololá	704	Santa Lucía Utatlán 	7	Santa Rita 	3	Marzo	2023-10-03T00:00:00	2024-11-08T00:00:00	2	Temperatura media	14.6
81066	7	Sololá	704	Santa Lucía Utatlán 	7	Santa Rita 	3	Marzo	2023-10-03T00:00:00	2024-11-08T00:00:00	4	Temperatura máxima	14.9
81067	7	Sololá	704	Santa Lucía Utatlán 	7	Santa Rita 	3	Marzo	2023-10-03T00:00:00	2024-11-08T00:00:00	3	Temperatura mínima	14.5
81068	7	Sololá	704	Santa Lucía Utatlán 	7	Santa Rita 	3	Marzo	2023-10-03T00:00:00	2024-11-08T00:00:00	5	Humedad	90
81069	7	Sololá	704	Santa Lucía Utatlán 	7	Santa Rita 	3	Marzo	2023-10-03T00:00:00	2024-11-08T00:00:00	6	Velocidad del viento	1.6
81070	7	Sololá	704	Santa Lucía Utatlán 	7	Santa Rita 	3	Marzo	2023-10-03T00:00:00	2024-11-08T00:00:00	7	Dirección del viento	1.61
81071	7	Sololá	704	Santa Lucía Utatlán 	7	Santa Rita 	3	Marzo	2023-10-03T00:00:00	2024-11-08T00:00:00	1	Precipitación	0
81072	7	Sololá	704	Santa Lucía Utatlán 	7	Santa Rita 	3	Marzo	2023-10-03T00:00:00	2024-11-08T00:00:00	8	Radiación solar	0
81073	7	Sololá	704	Santa Lucía Utatlán 	7	Santa Rita 	3	Marzo	2023-10-03T00:00:00	2024-11-08T01:00:00	2	Temperatura media	14.1
81074	7	Sololá	704	Santa Lucía Utatlán 	7	Santa Rita 	3	Marzo	2023-10-03T00:00:00	2024-11-08T01:00:00	4	Temperatura máxima	14.7
81075	7	Sololá	704	Santa Lucía Utatlán 	7	Santa Rita 	3	Marzo	2023-10-03T00:00:00	2024-11-08T01:00:00	3	Temperatura mínima	14.1
81076	7	Sololá	704	Santa Lucía Utatlán 	7	Santa Rita 	3	Marzo	2023-10-03T00:00:00	2024-11-08T01:00:00	5	Humedad	89
81077	7	Sololá	704	Santa Lucía Utatlán 	7	Santa Rita 	3	Marzo	2023-10-03T00:00:00	2024-11-08T01:00:00	6	Velocidad del viento	1.6
81078	7	Sololá	704	Santa Lucía Utatlán 	7	Santa Rita 	3	Marzo	2023-10-03T00:00:00	2024-11-08T01:00:00	7	Dirección del viento	1.61
81079	7	Sololá	704	Santa Lucía Utatlán 	7	Santa Rita 	3	Marzo	2023-10-03T00:00:00	2024-11-08T01:00:00	1	Precipitación	0
81080	7	Sololá	704	Santa Lucía Utatlán 	7	Santa Rita 	3	Marzo	2023-10-03T00:00:00	2024-11-08T01:00:00	8	Radiación solar	0
81081	7	Sololá	704	Santa Lucía Utatlán 	7	Santa Rita 	3	Marzo	2023-10-03T00:00:00	2024-11-08T02:00:00	2	Temperatura media	14.1
81082	7	Sololá	704	Santa Lucía Utatlán 	7	Santa Rita 	3	Marzo	2023-10-03T00:00:00	2024-11-08T02:00:00	4	Temperatura máxima	14.4
81083	7	Sololá	704	Santa Lucía Utatlán 	7	Santa Rita 	3	Marzo	2023-10-03T00:00:00	2024-11-08T02:00:00	3	Temperatura mínima	14.1
81084	7	Sololá	704	Santa Lucía Utatlán 	7	Santa Rita 	3	Marzo	2023-10-03T00:00:00	2024-11-08T02:00:00	5	Humedad	89
81085	7	Sololá	704	Santa Lucía Utatlán 	7	Santa Rita 	3	Marzo	2023-10-03T00:00:00	2024-11-08T02:00:00	6	Velocidad del viento	1.6
81086	7	Sololá	704	Santa Lucía Utatlán 	7	Santa Rita 	3	Marzo	2023-10-03T00:00:00	2024-11-08T02:00:00	7	Dirección del viento	1.61
81087	7	Sololá	704	Santa Lucía Utatlán 	7	Santa Rita 	3	Marzo	2023-10-03T00:00:00	2024-11-08T02:00:00	1	Precipitación	0
81088	7	Sololá	704	Santa Lucía Utatlán 	7	Santa Rita 	3	Marzo	2023-10-03T00:00:00	2024-11-08T02:00:00	8	Radiación solar	0
81089	7	Sololá	704	Santa Lucía Utatlán 	7	Santa Rita 	3	Marzo	2023-10-03T00:00:00	2024-11-08T03:00:00	2	Temperatura media	14.2
81090	7	Sololá	704	Santa Lucía Utatlán 	7	Santa Rita 	3	Marzo	2023-10-03T00:00:00	2024-11-08T03:00:00	4	Temperatura máxima	14.3
81091	7	Sololá	704	Santa Lucía Utatlán 	7	Santa Rita 	3	Marzo	2023-10-03T00:00:00	2024-11-08T03:00:00	3	Temperatura mínima	13.9
81092	7	Sololá	704	Santa Lucía Utatlán 	7	Santa Rita 	3	Marzo	2023-10-03T00:00:00	2024-11-08T03:00:00	5	Humedad	90
81093	7	Sololá	704	Santa Lucía Utatlán 	7	Santa Rita 	3	Marzo	2023-10-03T00:00:00	2024-11-08T03:00:00	6	Velocidad del viento	1.6
81094	7	Sololá	704	Santa Lucía Utatlán 	7	Santa Rita 	3	Marzo	2023-10-03T00:00:00	2024-11-08T03:00:00	7	Dirección del viento	1.61
81095	7	Sololá	704	Santa Lucía Utatlán 	7	Santa Rita 	3	Marzo	2023-10-03T00:00:00	2024-11-08T03:00:00	1	Precipitación	0
81096	7	Sololá	704	Santa Lucía Utatlán 	7	Santa Rita 	3	Marzo	2023-10-03T00:00:00	2024-11-08T03:00:00	8	Radiación solar	0
81097	7	Sololá	704	Santa Lucía Utatlán 	7	Santa Rita 	3	Marzo	2023-10-03T00:00:00	2024-11-08T04:00:00	2	Temperatura media	13.6
81098	7	Sololá	704	Santa Lucía Utatlán 	7	Santa Rita 	3	Marzo	2023-10-03T00:00:00	2024-11-08T04:00:00	4	Temperatura máxima	14.2
81099	7	Sololá	704	Santa Lucía Utatlán 	7	Santa Rita 	3	Marzo	2023-10-03T00:00:00	2024-11-08T04:00:00	3	Temperatura mínima	13.6
81100	7	Sololá	704	Santa Lucía Utatlán 	7	Santa Rita 	3	Marzo	2023-10-03T00:00:00	2024-11-08T04:00:00	5	Humedad	91
81101	7	Sololá	704	Santa Lucía Utatlán 	7	Santa Rita 	3	Marzo	2023-10-03T00:00:00	2024-11-08T04:00:00	6	Velocidad del viento	1.6
81102	7	Sololá	704	Santa Lucía Utatlán 	7	Santa Rita 	3	Marzo	2023-10-03T00:00:00	2024-11-08T04:00:00	7	Dirección del viento	1.61
81103	7	Sololá	704	Santa Lucía Utatlán 	7	Santa Rita 	3	Marzo	2023-10-03T00:00:00	2024-11-08T04:00:00	1	Precipitación	0
81104	7	Sololá	704	Santa Lucía Utatlán 	7	Santa Rita 	3	Marzo	2023-10-03T00:00:00	2024-11-08T04:00:00	8	Radiación solar	0
81105	7	Sololá	704	Santa Lucía Utatlán 	7	Santa Rita 	3	Marzo	2023-10-03T00:00:00	2024-11-08T05:00:00	2	Temperatura media	13.7
81106	7	Sololá	704	Santa Lucía Utatlán 	7	Santa Rita 	3	Marzo	2023-10-03T00:00:00	2024-11-08T05:00:00	4	Temperatura máxima	13.9
81107	7	Sololá	704	Santa Lucía Utatlán 	7	Santa Rita 	3	Marzo	2023-10-03T00:00:00	2024-11-08T05:00:00	3	Temperatura mínima	13.6
81108	7	Sololá	704	Santa Lucía Utatlán 	7	Santa Rita 	3	Marzo	2023-10-03T00:00:00	2024-11-08T05:00:00	5	Humedad	90
81109	7	Sololá	704	Santa Lucía Utatlán 	7	Santa Rita 	3	Marzo	2023-10-03T00:00:00	2024-11-08T05:00:00	6	Velocidad del viento	1.6
81110	7	Sololá	704	Santa Lucía Utatlán 	7	Santa Rita 	3	Marzo	2023-10-03T00:00:00	2024-11-08T05:00:00	7	Dirección del viento	1.61
81111	7	Sololá	704	Santa Lucía Utatlán 	7	Santa Rita 	3	Marzo	2023-10-03T00:00:00	2024-11-08T05:00:00	1	Precipitación	0
81112	7	Sololá	704	Santa Lucía Utatlán 	7	Santa Rita 	3	Marzo	2023-10-03T00:00:00	2024-11-08T05:00:00	8	Radiación solar	0
81113	7	Sololá	704	Santa Lucía Utatlán 	7	Santa Rita 	3	Marzo	2023-10-03T00:00:00	2024-11-08T06:00:00	2	Temperatura media	13.4
81114	7	Sololá	704	Santa Lucía Utatlán 	7	Santa Rita 	3	Marzo	2023-10-03T00:00:00	2024-11-08T06:00:00	4	Temperatura máxima	13.8
81115	7	Sololá	704	Santa Lucía Utatlán 	7	Santa Rita 	3	Marzo	2023-10-03T00:00:00	2024-11-08T06:00:00	3	Temperatura mínima	13.3
81116	7	Sololá	704	Santa Lucía Utatlán 	7	Santa Rita 	3	Marzo	2023-10-03T00:00:00	2024-11-08T06:00:00	5	Humedad	92
81117	7	Sololá	704	Santa Lucía Utatlán 	7	Santa Rita 	3	Marzo	2023-10-03T00:00:00	2024-11-08T06:00:00	6	Velocidad del viento	1.6
81118	7	Sololá	704	Santa Lucía Utatlán 	7	Santa Rita 	3	Marzo	2023-10-03T00:00:00	2024-11-08T06:00:00	7	Dirección del viento	1.61
81119	7	Sololá	704	Santa Lucía Utatlán 	7	Santa Rita 	3	Marzo	2023-10-03T00:00:00	2024-11-08T06:00:00	1	Precipitación	0
81120	7	Sololá	704	Santa Lucía Utatlán 	7	Santa Rita 	3	Marzo	2023-10-03T00:00:00	2024-11-08T06:00:00	8	Radiación solar	0
81121	7	Sololá	704	Santa Lucía Utatlán 	7	Santa Rita 	3	Marzo	2023-10-03T00:00:00	2024-11-08T07:00:00	2	Temperatura media	13.9
81122	7	Sololá	704	Santa Lucía Utatlán 	7	Santa Rita 	3	Marzo	2023-10-03T00:00:00	2024-11-08T07:00:00	4	Temperatura máxima	13.9
81123	7	Sololá	704	Santa Lucía Utatlán 	7	Santa Rita 	3	Marzo	2023-10-03T00:00:00	2024-11-08T07:00:00	3	Temperatura mínima	13.3
81124	7	Sololá	704	Santa Lucía Utatlán 	7	Santa Rita 	3	Marzo	2023-10-03T00:00:00	2024-11-08T07:00:00	5	Humedad	91
81125	7	Sololá	704	Santa Lucía Utatlán 	7	Santa Rita 	3	Marzo	2023-10-03T00:00:00	2024-11-08T07:00:00	6	Velocidad del viento	1.6
81126	7	Sololá	704	Santa Lucía Utatlán 	7	Santa Rita 	3	Marzo	2023-10-03T00:00:00	2024-11-08T07:00:00	7	Dirección del viento	1.61
81127	7	Sololá	704	Santa Lucía Utatlán 	7	Santa Rita 	3	Marzo	2023-10-03T00:00:00	2024-11-08T07:00:00	1	Precipitación	0
81128	7	Sololá	704	Santa Lucía Utatlán 	7	Santa Rita 	3	Marzo	2023-10-03T00:00:00	2024-11-08T07:00:00	8	Radiación solar	20
81129	7	Sololá	704	Santa Lucía Utatlán 	7	Santa Rita 	3	Marzo	2023-10-03T00:00:00	2024-11-08T08:00:00	2	Temperatura media	18.3
81130	7	Sololá	704	Santa Lucía Utatlán 	7	Santa Rita 	3	Marzo	2023-10-03T00:00:00	2024-11-08T08:00:00	4	Temperatura máxima	18.3
81131	7	Sololá	704	Santa Lucía Utatlán 	7	Santa Rita 	3	Marzo	2023-10-03T00:00:00	2024-11-08T08:00:00	3	Temperatura mínima	13.9
81132	7	Sololá	704	Santa Lucía Utatlán 	7	Santa Rita 	3	Marzo	2023-10-03T00:00:00	2024-11-08T08:00:00	5	Humedad	81
81133	7	Sololá	704	Santa Lucía Utatlán 	7	Santa Rita 	3	Marzo	2023-10-03T00:00:00	2024-11-08T08:00:00	6	Velocidad del viento	0
81134	7	Sololá	704	Santa Lucía Utatlán 	7	Santa Rita 	3	Marzo	2023-10-03T00:00:00	2024-11-08T08:00:00	7	Dirección del viento	0
81135	7	Sololá	704	Santa Lucía Utatlán 	7	Santa Rita 	3	Marzo	2023-10-03T00:00:00	2024-11-08T08:00:00	1	Precipitación	0
81136	7	Sololá	704	Santa Lucía Utatlán 	7	Santa Rita 	3	Marzo	2023-10-03T00:00:00	2024-11-08T08:00:00	8	Radiación solar	236
81137	7	Sololá	704	Santa Lucía Utatlán 	7	Santa Rita 	3	Marzo	2023-10-03T00:00:00	2024-11-08T09:00:00	2	Temperatura media	20
81138	7	Sololá	704	Santa Lucía Utatlán 	7	Santa Rita 	3	Marzo	2023-10-03T00:00:00	2024-11-08T09:00:00	4	Temperatura máxima	20.1
81139	7	Sololá	704	Santa Lucía Utatlán 	7	Santa Rita 	3	Marzo	2023-10-03T00:00:00	2024-11-08T09:00:00	3	Temperatura mínima	18.3
81140	7	Sololá	704	Santa Lucía Utatlán 	7	Santa Rita 	3	Marzo	2023-10-03T00:00:00	2024-11-08T09:00:00	5	Humedad	70
81141	7	Sololá	704	Santa Lucía Utatlán 	7	Santa Rita 	3	Marzo	2023-10-03T00:00:00	2024-11-08T09:00:00	6	Velocidad del viento	4.8
81142	7	Sololá	704	Santa Lucía Utatlán 	7	Santa Rita 	3	Marzo	2023-10-03T00:00:00	2024-11-08T09:00:00	7	Dirección del viento	4.83
81143	7	Sololá	704	Santa Lucía Utatlán 	7	Santa Rita 	3	Marzo	2023-10-03T00:00:00	2024-11-08T09:00:00	1	Precipitación	0
81144	7	Sololá	704	Santa Lucía Utatlán 	7	Santa Rita 	3	Marzo	2023-10-03T00:00:00	2024-11-08T09:00:00	8	Radiación solar	507
81145	7	Sololá	704	Santa Lucía Utatlán 	7	Santa Rita 	3	Marzo	2023-10-03T00:00:00	2024-11-08T10:00:00	2	Temperatura media	20.1
81146	7	Sololá	704	Santa Lucía Utatlán 	7	Santa Rita 	3	Marzo	2023-10-03T00:00:00	2024-11-08T10:00:00	4	Temperatura máxima	20.9
81147	7	Sololá	704	Santa Lucía Utatlán 	7	Santa Rita 	3	Marzo	2023-10-03T00:00:00	2024-11-08T10:00:00	3	Temperatura mínima	19.7
81148	7	Sololá	704	Santa Lucía Utatlán 	7	Santa Rita 	3	Marzo	2023-10-03T00:00:00	2024-11-08T10:00:00	5	Humedad	80
81149	7	Sololá	704	Santa Lucía Utatlán 	7	Santa Rita 	3	Marzo	2023-10-03T00:00:00	2024-11-08T10:00:00	6	Velocidad del viento	8
81150	7	Sololá	704	Santa Lucía Utatlán 	7	Santa Rita 	3	Marzo	2023-10-03T00:00:00	2024-11-08T10:00:00	7	Dirección del viento	8.05
81151	7	Sololá	704	Santa Lucía Utatlán 	7	Santa Rita 	3	Marzo	2023-10-03T00:00:00	2024-11-08T10:00:00	1	Precipitación	0
81152	7	Sololá	704	Santa Lucía Utatlán 	7	Santa Rita 	3	Marzo	2023-10-03T00:00:00	2024-11-08T10:00:00	8	Radiación solar	508
81153	7	Sololá	704	Santa Lucía Utatlán 	7	Santa Rita 	3	Marzo	2023-10-03T00:00:00	2024-11-08T11:00:00	2	Temperatura media	18.5
81154	7	Sololá	704	Santa Lucía Utatlán 	7	Santa Rita 	3	Marzo	2023-10-03T00:00:00	2024-11-08T11:00:00	4	Temperatura máxima	20.2
81155	7	Sololá	704	Santa Lucía Utatlán 	7	Santa Rita 	3	Marzo	2023-10-03T00:00:00	2024-11-08T11:00:00	3	Temperatura mínima	18.5
81156	7	Sololá	704	Santa Lucía Utatlán 	7	Santa Rita 	3	Marzo	2023-10-03T00:00:00	2024-11-08T11:00:00	5	Humedad	86
81157	7	Sololá	704	Santa Lucía Utatlán 	7	Santa Rita 	3	Marzo	2023-10-03T00:00:00	2024-11-08T11:00:00	6	Velocidad del viento	6.4
81158	7	Sololá	704	Santa Lucía Utatlán 	7	Santa Rita 	3	Marzo	2023-10-03T00:00:00	2024-11-08T11:00:00	7	Dirección del viento	6.44
81159	7	Sololá	704	Santa Lucía Utatlán 	7	Santa Rita 	3	Marzo	2023-10-03T00:00:00	2024-11-08T11:00:00	1	Precipitación	0
81160	7	Sololá	704	Santa Lucía Utatlán 	7	Santa Rita 	3	Marzo	2023-10-03T00:00:00	2024-11-08T11:00:00	8	Radiación solar	154
81161	7	Sololá	704	Santa Lucía Utatlán 	7	Santa Rita 	3	Marzo	2023-10-03T00:00:00	2024-11-08T12:00:00	2	Temperatura media	17.3
81162	7	Sololá	704	Santa Lucía Utatlán 	7	Santa Rita 	3	Marzo	2023-10-03T00:00:00	2024-11-08T12:00:00	4	Temperatura máxima	18.6
81163	7	Sololá	704	Santa Lucía Utatlán 	7	Santa Rita 	3	Marzo	2023-10-03T00:00:00	2024-11-08T12:00:00	3	Temperatura mínima	17.2
81164	7	Sololá	704	Santa Lucía Utatlán 	7	Santa Rita 	3	Marzo	2023-10-03T00:00:00	2024-11-08T12:00:00	5	Humedad	91
81165	7	Sololá	704	Santa Lucía Utatlán 	7	Santa Rita 	3	Marzo	2023-10-03T00:00:00	2024-11-08T12:00:00	6	Velocidad del viento	3.2
81166	7	Sololá	704	Santa Lucía Utatlán 	7	Santa Rita 	3	Marzo	2023-10-03T00:00:00	2024-11-08T12:00:00	7	Dirección del viento	3.22
81167	7	Sololá	704	Santa Lucía Utatlán 	7	Santa Rita 	3	Marzo	2023-10-03T00:00:00	2024-11-08T12:00:00	1	Precipitación	0
81168	7	Sololá	704	Santa Lucía Utatlán 	7	Santa Rita 	3	Marzo	2023-10-03T00:00:00	2024-11-08T12:00:00	8	Radiación solar	66
81169	7	Sololá	704	Santa Lucía Utatlán 	7	Santa Rita 	3	Marzo	2023-10-03T00:00:00	2024-11-08T13:00:00	2	Temperatura media	18.6
81170	7	Sololá	704	Santa Lucía Utatlán 	7	Santa Rita 	3	Marzo	2023-10-03T00:00:00	2024-11-08T13:00:00	4	Temperatura máxima	18.6
81171	7	Sololá	704	Santa Lucía Utatlán 	7	Santa Rita 	3	Marzo	2023-10-03T00:00:00	2024-11-08T13:00:00	3	Temperatura mínima	17.2
81172	7	Sololá	704	Santa Lucía Utatlán 	7	Santa Rita 	3	Marzo	2023-10-03T00:00:00	2024-11-08T13:00:00	5	Humedad	85
81173	7	Sololá	704	Santa Lucía Utatlán 	7	Santa Rita 	3	Marzo	2023-10-03T00:00:00	2024-11-08T13:00:00	6	Velocidad del viento	0
81174	7	Sololá	704	Santa Lucía Utatlán 	7	Santa Rita 	3	Marzo	2023-10-03T00:00:00	2024-11-08T13:00:00	7	Dirección del viento	0
81175	7	Sololá	704	Santa Lucía Utatlán 	7	Santa Rita 	3	Marzo	2023-10-03T00:00:00	2024-11-08T13:00:00	1	Precipitación	0
81176	7	Sololá	704	Santa Lucía Utatlán 	7	Santa Rita 	3	Marzo	2023-10-03T00:00:00	2024-11-08T13:00:00	8	Radiación solar	168
81177	7	Sololá	704	Santa Lucía Utatlán 	7	Santa Rita 	3	Marzo	2023-10-03T00:00:00	2024-11-08T14:00:00	2	Temperatura media	19.9
81178	7	Sololá	704	Santa Lucía Utatlán 	7	Santa Rita 	3	Marzo	2023-10-03T00:00:00	2024-11-08T14:00:00	4	Temperatura máxima	20
81179	7	Sololá	704	Santa Lucía Utatlán 	7	Santa Rita 	3	Marzo	2023-10-03T00:00:00	2024-11-08T14:00:00	3	Temperatura mínima	18.6
81180	7	Sololá	704	Santa Lucía Utatlán 	7	Santa Rita 	3	Marzo	2023-10-03T00:00:00	2024-11-08T14:00:00	5	Humedad	81
81181	7	Sololá	704	Santa Lucía Utatlán 	7	Santa Rita 	3	Marzo	2023-10-03T00:00:00	2024-11-08T14:00:00	6	Velocidad del viento	1.6
81182	7	Sololá	704	Santa Lucía Utatlán 	7	Santa Rita 	3	Marzo	2023-10-03T00:00:00	2024-11-08T14:00:00	7	Dirección del viento	1.61
81183	7	Sololá	704	Santa Lucía Utatlán 	7	Santa Rita 	3	Marzo	2023-10-03T00:00:00	2024-11-08T14:00:00	1	Precipitación	0
81184	7	Sololá	704	Santa Lucía Utatlán 	7	Santa Rita 	3	Marzo	2023-10-03T00:00:00	2024-11-08T14:00:00	8	Radiación solar	276
81185	7	Sololá	704	Santa Lucía Utatlán 	7	Santa Rita 	3	Marzo	2023-10-03T00:00:00	2024-11-08T15:00:00	2	Temperatura media	20.7
81186	7	Sololá	704	Santa Lucía Utatlán 	7	Santa Rita 	3	Marzo	2023-10-03T00:00:00	2024-11-08T15:00:00	4	Temperatura máxima	21.3
81187	7	Sololá	704	Santa Lucía Utatlán 	7	Santa Rita 	3	Marzo	2023-10-03T00:00:00	2024-11-08T15:00:00	3	Temperatura mínima	19.9
81188	7	Sololá	704	Santa Lucía Utatlán 	7	Santa Rita 	3	Marzo	2023-10-03T00:00:00	2024-11-08T15:00:00	5	Humedad	78
81189	7	Sololá	704	Santa Lucía Utatlán 	7	Santa Rita 	3	Marzo	2023-10-03T00:00:00	2024-11-08T15:00:00	6	Velocidad del viento	1.6
81190	7	Sololá	704	Santa Lucía Utatlán 	7	Santa Rita 	3	Marzo	2023-10-03T00:00:00	2024-11-08T15:00:00	7	Dirección del viento	1.61
81191	7	Sololá	704	Santa Lucía Utatlán 	7	Santa Rita 	3	Marzo	2023-10-03T00:00:00	2024-11-08T15:00:00	1	Precipitación	0
81192	7	Sololá	704	Santa Lucía Utatlán 	7	Santa Rita 	3	Marzo	2023-10-03T00:00:00	2024-11-08T15:00:00	8	Radiación solar	271
81193	7	Sololá	704	Santa Lucía Utatlán 	7	Santa Rita 	3	Marzo	2023-10-03T00:00:00	2024-11-08T16:00:00	2	Temperatura media	19.8
81194	7	Sololá	704	Santa Lucía Utatlán 	7	Santa Rita 	3	Marzo	2023-10-03T00:00:00	2024-11-08T16:00:00	4	Temperatura máxima	20.7
81195	7	Sololá	704	Santa Lucía Utatlán 	7	Santa Rita 	3	Marzo	2023-10-03T00:00:00	2024-11-08T16:00:00	3	Temperatura mínima	19.8
81196	7	Sololá	704	Santa Lucía Utatlán 	7	Santa Rita 	3	Marzo	2023-10-03T00:00:00	2024-11-08T16:00:00	5	Humedad	85
81197	7	Sololá	704	Santa Lucía Utatlán 	7	Santa Rita 	3	Marzo	2023-10-03T00:00:00	2024-11-08T16:00:00	6	Velocidad del viento	1.6
81198	7	Sololá	704	Santa Lucía Utatlán 	7	Santa Rita 	3	Marzo	2023-10-03T00:00:00	2024-11-08T16:00:00	7	Dirección del viento	1.61
81199	7	Sololá	704	Santa Lucía Utatlán 	7	Santa Rita 	3	Marzo	2023-10-03T00:00:00	2024-11-08T16:00:00	1	Precipitación	0
81200	7	Sololá	704	Santa Lucía Utatlán 	7	Santa Rita 	3	Marzo	2023-10-03T00:00:00	2024-11-08T16:00:00	8	Radiación solar	95
81201	7	Sololá	704	Santa Lucía Utatlán 	7	Santa Rita 	3	Marzo	2023-10-03T00:00:00	2024-11-08T17:00:00	2	Temperatura media	19.6
81202	7	Sololá	704	Santa Lucía Utatlán 	7	Santa Rita 	3	Marzo	2023-10-03T00:00:00	2024-11-08T17:00:00	4	Temperatura máxima	20.1
81203	7	Sololá	704	Santa Lucía Utatlán 	7	Santa Rita 	3	Marzo	2023-10-03T00:00:00	2024-11-08T17:00:00	3	Temperatura mínima	19.6
81204	7	Sololá	704	Santa Lucía Utatlán 	7	Santa Rita 	3	Marzo	2023-10-03T00:00:00	2024-11-08T17:00:00	5	Humedad	86
81205	7	Sololá	704	Santa Lucía Utatlán 	7	Santa Rita 	3	Marzo	2023-10-03T00:00:00	2024-11-08T17:00:00	6	Velocidad del viento	1.6
81206	7	Sololá	704	Santa Lucía Utatlán 	7	Santa Rita 	3	Marzo	2023-10-03T00:00:00	2024-11-08T17:00:00	7	Dirección del viento	1.61
81207	7	Sololá	704	Santa Lucía Utatlán 	7	Santa Rita 	3	Marzo	2023-10-03T00:00:00	2024-11-08T17:00:00	1	Precipitación	0
81208	7	Sololá	704	Santa Lucía Utatlán 	7	Santa Rita 	3	Marzo	2023-10-03T00:00:00	2024-11-08T17:00:00	8	Radiación solar	83
81209	7	Sololá	704	Santa Lucía Utatlán 	7	Santa Rita 	3	Marzo	2023-10-03T00:00:00	2024-11-08T18:00:00	2	Temperatura media	19.2
81210	7	Sololá	704	Santa Lucía Utatlán 	7	Santa Rita 	3	Marzo	2023-10-03T00:00:00	2024-11-08T18:00:00	4	Temperatura máxima	19.6
81211	7	Sololá	704	Santa Lucía Utatlán 	7	Santa Rita 	3	Marzo	2023-10-03T00:00:00	2024-11-08T18:00:00	3	Temperatura mínima	19.1
81212	7	Sololá	704	Santa Lucía Utatlán 	7	Santa Rita 	3	Marzo	2023-10-03T00:00:00	2024-11-08T18:00:00	5	Humedad	88
81213	7	Sololá	704	Santa Lucía Utatlán 	7	Santa Rita 	3	Marzo	2023-10-03T00:00:00	2024-11-08T18:00:00	6	Velocidad del viento	1.6
81214	7	Sololá	704	Santa Lucía Utatlán 	7	Santa Rita 	3	Marzo	2023-10-03T00:00:00	2024-11-08T18:00:00	7	Dirección del viento	1.61
81215	7	Sololá	704	Santa Lucía Utatlán 	7	Santa Rita 	3	Marzo	2023-10-03T00:00:00	2024-11-08T18:00:00	1	Precipitación	0
81216	7	Sololá	704	Santa Lucía Utatlán 	7	Santa Rita 	3	Marzo	2023-10-03T00:00:00	2024-11-08T18:00:00	8	Radiación solar	33
81217	7	Sololá	704	Santa Lucía Utatlán 	7	Santa Rita 	3	Marzo	2023-10-03T00:00:00	2024-11-08T19:00:00	2	Temperatura media	17.9
81218	7	Sololá	704	Santa Lucía Utatlán 	7	Santa Rita 	3	Marzo	2023-10-03T00:00:00	2024-11-08T19:00:00	4	Temperatura máxima	19.2
81219	7	Sololá	704	Santa Lucía Utatlán 	7	Santa Rita 	3	Marzo	2023-10-03T00:00:00	2024-11-08T19:00:00	3	Temperatura mínima	17.9
81220	7	Sololá	704	Santa Lucía Utatlán 	7	Santa Rita 	3	Marzo	2023-10-03T00:00:00	2024-11-08T19:00:00	5	Humedad	90
81221	7	Sololá	704	Santa Lucía Utatlán 	7	Santa Rita 	3	Marzo	2023-10-03T00:00:00	2024-11-08T19:00:00	6	Velocidad del viento	0
81222	7	Sololá	704	Santa Lucía Utatlán 	7	Santa Rita 	3	Marzo	2023-10-03T00:00:00	2024-11-08T19:00:00	7	Dirección del viento	0
81223	7	Sololá	704	Santa Lucía Utatlán 	7	Santa Rita 	3	Marzo	2023-10-03T00:00:00	2024-11-08T19:00:00	1	Precipitación	0
81224	7	Sololá	704	Santa Lucía Utatlán 	7	Santa Rita 	3	Marzo	2023-10-03T00:00:00	2024-11-08T19:00:00	8	Radiación solar	0
81225	7	Sololá	704	Santa Lucía Utatlán 	7	Santa Rita 	3	Marzo	2023-10-03T00:00:00	2024-11-08T20:00:00	2	Temperatura media	17.6
81226	7	Sololá	704	Santa Lucía Utatlán 	7	Santa Rita 	3	Marzo	2023-10-03T00:00:00	2024-11-08T20:00:00	4	Temperatura máxima	17.9
81227	7	Sololá	704	Santa Lucía Utatlán 	7	Santa Rita 	3	Marzo	2023-10-03T00:00:00	2024-11-08T20:00:00	3	Temperatura mínima	17.6
81228	7	Sololá	704	Santa Lucía Utatlán 	7	Santa Rita 	3	Marzo	2023-10-03T00:00:00	2024-11-08T20:00:00	5	Humedad	93
81229	7	Sololá	704	Santa Lucía Utatlán 	7	Santa Rita 	3	Marzo	2023-10-03T00:00:00	2024-11-08T20:00:00	6	Velocidad del viento	0
81230	7	Sololá	704	Santa Lucía Utatlán 	7	Santa Rita 	3	Marzo	2023-10-03T00:00:00	2024-11-08T20:00:00	7	Dirección del viento	0
81231	7	Sololá	704	Santa Lucía Utatlán 	7	Santa Rita 	3	Marzo	2023-10-03T00:00:00	2024-11-08T20:00:00	1	Precipitación	0
81232	7	Sololá	704	Santa Lucía Utatlán 	7	Santa Rita 	3	Marzo	2023-10-03T00:00:00	2024-11-08T20:00:00	8	Radiación solar	0
81233	7	Sololá	704	Santa Lucía Utatlán 	7	Santa Rita 	3	Marzo	2023-10-03T00:00:00	2024-11-08T21:00:00	2	Temperatura media	16.7
81234	7	Sololá	704	Santa Lucía Utatlán 	7	Santa Rita 	3	Marzo	2023-10-03T00:00:00	2024-11-08T21:00:00	4	Temperatura máxima	17.6
81235	7	Sololá	704	Santa Lucía Utatlán 	7	Santa Rita 	3	Marzo	2023-10-03T00:00:00	2024-11-08T21:00:00	3	Temperatura mínima	16.7
81236	7	Sololá	704	Santa Lucía Utatlán 	7	Santa Rita 	3	Marzo	2023-10-03T00:00:00	2024-11-08T21:00:00	5	Humedad	89
81237	7	Sololá	704	Santa Lucía Utatlán 	7	Santa Rita 	3	Marzo	2023-10-03T00:00:00	2024-11-08T21:00:00	6	Velocidad del viento	0
81238	7	Sololá	704	Santa Lucía Utatlán 	7	Santa Rita 	3	Marzo	2023-10-03T00:00:00	2024-11-08T21:00:00	7	Dirección del viento	0
81239	7	Sololá	704	Santa Lucía Utatlán 	7	Santa Rita 	3	Marzo	2023-10-03T00:00:00	2024-11-08T21:00:00	1	Precipitación	0
81240	7	Sololá	704	Santa Lucía Utatlán 	7	Santa Rita 	3	Marzo	2023-10-03T00:00:00	2024-11-08T21:00:00	8	Radiación solar	0
81241	7	Sololá	704	Santa Lucía Utatlán 	7	Santa Rita 	3	Marzo	2023-10-03T00:00:00	2024-11-08T22:00:00	2	Temperatura media	16.2
81242	7	Sololá	704	Santa Lucía Utatlán 	7	Santa Rita 	3	Marzo	2023-10-03T00:00:00	2024-11-08T22:00:00	4	Temperatura máxima	16.8
81243	7	Sololá	704	Santa Lucía Utatlán 	7	Santa Rita 	3	Marzo	2023-10-03T00:00:00	2024-11-08T22:00:00	3	Temperatura mínima	16.2
81244	7	Sololá	704	Santa Lucía Utatlán 	7	Santa Rita 	3	Marzo	2023-10-03T00:00:00	2024-11-08T22:00:00	5	Humedad	87
81245	7	Sololá	704	Santa Lucía Utatlán 	7	Santa Rita 	3	Marzo	2023-10-03T00:00:00	2024-11-08T22:00:00	6	Velocidad del viento	0
81246	7	Sololá	704	Santa Lucía Utatlán 	7	Santa Rita 	3	Marzo	2023-10-03T00:00:00	2024-11-08T22:00:00	7	Dirección del viento	0
81247	7	Sololá	704	Santa Lucía Utatlán 	7	Santa Rita 	3	Marzo	2023-10-03T00:00:00	2024-11-08T22:00:00	1	Precipitación	0
81248	7	Sololá	704	Santa Lucía Utatlán 	7	Santa Rita 	3	Marzo	2023-10-03T00:00:00	2024-11-08T22:00:00	8	Radiación solar	0
81249	7	Sololá	704	Santa Lucía Utatlán 	7	Santa Rita 	3	Marzo	2023-10-03T00:00:00	2024-11-08T23:00:00	2	Temperatura media	15.6
81250	7	Sololá	704	Santa Lucía Utatlán 	7	Santa Rita 	3	Marzo	2023-10-03T00:00:00	2024-11-08T23:00:00	4	Temperatura máxima	16.2
81251	7	Sololá	704	Santa Lucía Utatlán 	7	Santa Rita 	3	Marzo	2023-10-03T00:00:00	2024-11-08T23:00:00	3	Temperatura mínima	15.6
81252	7	Sololá	704	Santa Lucía Utatlán 	7	Santa Rita 	3	Marzo	2023-10-03T00:00:00	2024-11-08T23:00:00	5	Humedad	90
81253	7	Sololá	704	Santa Lucía Utatlán 	7	Santa Rita 	3	Marzo	2023-10-03T00:00:00	2024-11-08T23:00:00	6	Velocidad del viento	1.6
81254	7	Sololá	704	Santa Lucía Utatlán 	7	Santa Rita 	3	Marzo	2023-10-03T00:00:00	2024-11-08T23:00:00	7	Dirección del viento	1.61
81255	7	Sololá	704	Santa Lucía Utatlán 	7	Santa Rita 	3	Marzo	2023-10-03T00:00:00	2024-11-08T23:00:00	1	Precipitación	0
81256	7	Sololá	704	Santa Lucía Utatlán 	7	Santa Rita 	3	Marzo	2023-10-03T00:00:00	2024-11-08T23:00:00	8	Radiación solar	0
81257	7	Sololá	704	Santa Lucía Utatlán 	7	Santa Rita 	3	Marzo	2023-11-03T00:00:00	2024-11-08T00:00:00	2	Temperatura media	15.2
81258	7	Sololá	704	Santa Lucía Utatlán 	7	Santa Rita 	3	Marzo	2023-11-03T00:00:00	2024-11-08T00:00:00	4	Temperatura máxima	15.7
81259	7	Sololá	704	Santa Lucía Utatlán 	7	Santa Rita 	3	Marzo	2023-11-03T00:00:00	2024-11-08T00:00:00	3	Temperatura mínima	15.2
81260	7	Sololá	704	Santa Lucía Utatlán 	7	Santa Rita 	3	Marzo	2023-11-03T00:00:00	2024-11-08T00:00:00	5	Humedad	90
81261	7	Sololá	704	Santa Lucía Utatlán 	7	Santa Rita 	3	Marzo	2023-11-03T00:00:00	2024-11-08T00:00:00	6	Velocidad del viento	0
81262	7	Sololá	704	Santa Lucía Utatlán 	7	Santa Rita 	3	Marzo	2023-11-03T00:00:00	2024-11-08T00:00:00	7	Dirección del viento	0
81263	7	Sololá	704	Santa Lucía Utatlán 	7	Santa Rita 	3	Marzo	2023-11-03T00:00:00	2024-11-08T00:00:00	1	Precipitación	0
81264	7	Sololá	704	Santa Lucía Utatlán 	7	Santa Rita 	3	Marzo	2023-11-03T00:00:00	2024-11-08T00:00:00	8	Radiación solar	0
81265	7	Sololá	704	Santa Lucía Utatlán 	7	Santa Rita 	3	Marzo	2023-11-03T00:00:00	2024-11-08T01:00:00	2	Temperatura media	15.2
81266	7	Sololá	704	Santa Lucía Utatlán 	7	Santa Rita 	3	Marzo	2023-11-03T00:00:00	2024-11-08T01:00:00	4	Temperatura máxima	15.9
81267	7	Sololá	704	Santa Lucía Utatlán 	7	Santa Rita 	3	Marzo	2023-11-03T00:00:00	2024-11-08T01:00:00	3	Temperatura mínima	15.2
81268	7	Sololá	704	Santa Lucía Utatlán 	7	Santa Rita 	3	Marzo	2023-11-03T00:00:00	2024-11-08T01:00:00	5	Humedad	90
81269	7	Sololá	704	Santa Lucía Utatlán 	7	Santa Rita 	3	Marzo	2023-11-03T00:00:00	2024-11-08T01:00:00	6	Velocidad del viento	1.6
81270	7	Sololá	704	Santa Lucía Utatlán 	7	Santa Rita 	3	Marzo	2023-11-03T00:00:00	2024-11-08T01:00:00	7	Dirección del viento	1.61
81271	7	Sololá	704	Santa Lucía Utatlán 	7	Santa Rita 	3	Marzo	2023-11-03T00:00:00	2024-11-08T01:00:00	1	Precipitación	0
81272	7	Sololá	704	Santa Lucía Utatlán 	7	Santa Rita 	3	Marzo	2023-11-03T00:00:00	2024-11-08T01:00:00	8	Radiación solar	0
81273	7	Sololá	704	Santa Lucía Utatlán 	7	Santa Rita 	3	Marzo	2023-11-03T00:00:00	2024-11-08T02:00:00	2	Temperatura media	14.9
81274	7	Sololá	704	Santa Lucía Utatlán 	7	Santa Rita 	3	Marzo	2023-11-03T00:00:00	2024-11-08T02:00:00	4	Temperatura máxima	15.2
81275	7	Sololá	704	Santa Lucía Utatlán 	7	Santa Rita 	3	Marzo	2023-11-03T00:00:00	2024-11-08T02:00:00	3	Temperatura mínima	14.8
81276	7	Sololá	704	Santa Lucía Utatlán 	7	Santa Rita 	3	Marzo	2023-11-03T00:00:00	2024-11-08T02:00:00	5	Humedad	91
81277	7	Sololá	704	Santa Lucía Utatlán 	7	Santa Rita 	3	Marzo	2023-11-03T00:00:00	2024-11-08T02:00:00	6	Velocidad del viento	3.2
81278	7	Sololá	704	Santa Lucía Utatlán 	7	Santa Rita 	3	Marzo	2023-11-03T00:00:00	2024-11-08T02:00:00	7	Dirección del viento	3.22
81279	7	Sololá	704	Santa Lucía Utatlán 	7	Santa Rita 	3	Marzo	2023-11-03T00:00:00	2024-11-08T02:00:00	1	Precipitación	0
81280	7	Sololá	704	Santa Lucía Utatlán 	7	Santa Rita 	3	Marzo	2023-11-03T00:00:00	2024-11-08T02:00:00	8	Radiación solar	0
81281	7	Sololá	704	Santa Lucía Utatlán 	7	Santa Rita 	3	Marzo	2023-11-03T00:00:00	2024-11-08T03:00:00	2	Temperatura media	15.1
81282	7	Sololá	704	Santa Lucía Utatlán 	7	Santa Rita 	3	Marzo	2023-11-03T00:00:00	2024-11-08T03:00:00	4	Temperatura máxima	15.3
81283	7	Sololá	704	Santa Lucía Utatlán 	7	Santa Rita 	3	Marzo	2023-11-03T00:00:00	2024-11-08T03:00:00	3	Temperatura mínima	14.8
81284	7	Sololá	704	Santa Lucía Utatlán 	7	Santa Rita 	3	Marzo	2023-11-03T00:00:00	2024-11-08T03:00:00	5	Humedad	90
81285	7	Sololá	704	Santa Lucía Utatlán 	7	Santa Rita 	3	Marzo	2023-11-03T00:00:00	2024-11-08T03:00:00	6	Velocidad del viento	1.6
81286	7	Sololá	704	Santa Lucía Utatlán 	7	Santa Rita 	3	Marzo	2023-11-03T00:00:00	2024-11-08T03:00:00	7	Dirección del viento	1.61
81287	7	Sololá	704	Santa Lucía Utatlán 	7	Santa Rita 	3	Marzo	2023-11-03T00:00:00	2024-11-08T03:00:00	1	Precipitación	0
81288	7	Sololá	704	Santa Lucía Utatlán 	7	Santa Rita 	3	Marzo	2023-11-03T00:00:00	2024-11-08T03:00:00	8	Radiación solar	0
81289	7	Sololá	704	Santa Lucía Utatlán 	7	Santa Rita 	3	Marzo	2023-11-03T00:00:00	2024-11-08T04:00:00	2	Temperatura media	14.7
81290	7	Sololá	704	Santa Lucía Utatlán 	7	Santa Rita 	3	Marzo	2023-11-03T00:00:00	2024-11-08T04:00:00	4	Temperatura máxima	15.1
81291	7	Sololá	704	Santa Lucía Utatlán 	7	Santa Rita 	3	Marzo	2023-11-03T00:00:00	2024-11-08T04:00:00	3	Temperatura mínima	14.6
81292	7	Sololá	704	Santa Lucía Utatlán 	7	Santa Rita 	3	Marzo	2023-11-03T00:00:00	2024-11-08T04:00:00	5	Humedad	91
81293	7	Sololá	704	Santa Lucía Utatlán 	7	Santa Rita 	3	Marzo	2023-11-03T00:00:00	2024-11-08T04:00:00	6	Velocidad del viento	1.6
81294	7	Sololá	704	Santa Lucía Utatlán 	7	Santa Rita 	3	Marzo	2023-11-03T00:00:00	2024-11-08T04:00:00	7	Dirección del viento	1.61
81295	7	Sololá	704	Santa Lucía Utatlán 	7	Santa Rita 	3	Marzo	2023-11-03T00:00:00	2024-11-08T04:00:00	1	Precipitación	0
81296	7	Sololá	704	Santa Lucía Utatlán 	7	Santa Rita 	3	Marzo	2023-11-03T00:00:00	2024-11-08T04:00:00	8	Radiación solar	0
81297	7	Sololá	704	Santa Lucía Utatlán 	7	Santa Rita 	3	Marzo	2023-11-03T00:00:00	2024-11-08T05:00:00	2	Temperatura media	14.4
81298	7	Sololá	704	Santa Lucía Utatlán 	7	Santa Rita 	3	Marzo	2023-11-03T00:00:00	2024-11-08T05:00:00	4	Temperatura máxima	14.8
81299	7	Sololá	704	Santa Lucía Utatlán 	7	Santa Rita 	3	Marzo	2023-11-03T00:00:00	2024-11-08T05:00:00	3	Temperatura mínima	14.4
81300	7	Sololá	704	Santa Lucía Utatlán 	7	Santa Rita 	3	Marzo	2023-11-03T00:00:00	2024-11-08T05:00:00	5	Humedad	91
81301	7	Sololá	704	Santa Lucía Utatlán 	7	Santa Rita 	3	Marzo	2023-11-03T00:00:00	2024-11-08T05:00:00	6	Velocidad del viento	1.6
81302	7	Sololá	704	Santa Lucía Utatlán 	7	Santa Rita 	3	Marzo	2023-11-03T00:00:00	2024-11-08T05:00:00	7	Dirección del viento	1.61
81303	7	Sololá	704	Santa Lucía Utatlán 	7	Santa Rita 	3	Marzo	2023-11-03T00:00:00	2024-11-08T05:00:00	1	Precipitación	0
81304	7	Sololá	704	Santa Lucía Utatlán 	7	Santa Rita 	3	Marzo	2023-11-03T00:00:00	2024-11-08T05:00:00	8	Radiación solar	0
81305	7	Sololá	704	Santa Lucía Utatlán 	7	Santa Rita 	3	Marzo	2023-11-03T00:00:00	2024-11-08T06:00:00	2	Temperatura media	14.1
81306	7	Sololá	704	Santa Lucía Utatlán 	7	Santa Rita 	3	Marzo	2023-11-03T00:00:00	2024-11-08T06:00:00	4	Temperatura máxima	14.5
81307	7	Sololá	704	Santa Lucía Utatlán 	7	Santa Rita 	3	Marzo	2023-11-03T00:00:00	2024-11-08T06:00:00	3	Temperatura mínima	13.9
81308	7	Sololá	704	Santa Lucía Utatlán 	7	Santa Rita 	3	Marzo	2023-11-03T00:00:00	2024-11-08T06:00:00	5	Humedad	92
81309	7	Sololá	704	Santa Lucía Utatlán 	7	Santa Rita 	3	Marzo	2023-11-03T00:00:00	2024-11-08T06:00:00	6	Velocidad del viento	0
81310	7	Sololá	704	Santa Lucía Utatlán 	7	Santa Rita 	3	Marzo	2023-11-03T00:00:00	2024-11-08T06:00:00	7	Dirección del viento	0
81311	7	Sololá	704	Santa Lucía Utatlán 	7	Santa Rita 	3	Marzo	2023-11-03T00:00:00	2024-11-08T06:00:00	1	Precipitación	0
81312	7	Sololá	704	Santa Lucía Utatlán 	7	Santa Rita 	3	Marzo	2023-11-03T00:00:00	2024-11-08T06:00:00	8	Radiación solar	0
81313	7	Sololá	704	Santa Lucía Utatlán 	7	Santa Rita 	3	Marzo	2023-11-03T00:00:00	2024-11-08T07:00:00	2	Temperatura media	15
81314	7	Sololá	704	Santa Lucía Utatlán 	7	Santa Rita 	3	Marzo	2023-11-03T00:00:00	2024-11-08T07:00:00	4	Temperatura máxima	15
81315	7	Sololá	704	Santa Lucía Utatlán 	7	Santa Rita 	3	Marzo	2023-11-03T00:00:00	2024-11-08T07:00:00	3	Temperatura mínima	14.1
81316	7	Sololá	704	Santa Lucía Utatlán 	7	Santa Rita 	3	Marzo	2023-11-03T00:00:00	2024-11-08T07:00:00	5	Humedad	90
81317	7	Sololá	704	Santa Lucía Utatlán 	7	Santa Rita 	3	Marzo	2023-11-03T00:00:00	2024-11-08T07:00:00	6	Velocidad del viento	0
81318	7	Sololá	704	Santa Lucía Utatlán 	7	Santa Rita 	3	Marzo	2023-11-03T00:00:00	2024-11-08T07:00:00	7	Dirección del viento	0
81319	7	Sololá	704	Santa Lucía Utatlán 	7	Santa Rita 	3	Marzo	2023-11-03T00:00:00	2024-11-08T07:00:00	1	Precipitación	0
81320	7	Sololá	704	Santa Lucía Utatlán 	7	Santa Rita 	3	Marzo	2023-11-03T00:00:00	2024-11-08T07:00:00	8	Radiación solar	23
81321	7	Sololá	704	Santa Lucía Utatlán 	7	Santa Rita 	3	Marzo	2023-11-03T00:00:00	2024-11-08T08:00:00	2	Temperatura media	18.6
81322	7	Sololá	704	Santa Lucía Utatlán 	7	Santa Rita 	3	Marzo	2023-11-03T00:00:00	2024-11-08T08:00:00	4	Temperatura máxima	18.6
81323	7	Sololá	704	Santa Lucía Utatlán 	7	Santa Rita 	3	Marzo	2023-11-03T00:00:00	2024-11-08T08:00:00	3	Temperatura mínima	15.1
81324	7	Sololá	704	Santa Lucía Utatlán 	7	Santa Rita 	3	Marzo	2023-11-03T00:00:00	2024-11-08T08:00:00	5	Humedad	82
81325	7	Sololá	704	Santa Lucía Utatlán 	7	Santa Rita 	3	Marzo	2023-11-03T00:00:00	2024-11-08T08:00:00	6	Velocidad del viento	1.6
81326	7	Sololá	704	Santa Lucía Utatlán 	7	Santa Rita 	3	Marzo	2023-11-03T00:00:00	2024-11-08T08:00:00	7	Dirección del viento	1.61
81327	7	Sololá	704	Santa Lucía Utatlán 	7	Santa Rita 	3	Marzo	2023-11-03T00:00:00	2024-11-08T08:00:00	1	Precipitación	0
81328	7	Sololá	704	Santa Lucía Utatlán 	7	Santa Rita 	3	Marzo	2023-11-03T00:00:00	2024-11-08T08:00:00	8	Radiación solar	263
81329	7	Sololá	704	Santa Lucía Utatlán 	7	Santa Rita 	3	Marzo	2023-11-03T00:00:00	2024-11-08T09:00:00	2	Temperatura media	19.9
81330	7	Sololá	704	Santa Lucía Utatlán 	7	Santa Rita 	3	Marzo	2023-11-03T00:00:00	2024-11-08T09:00:00	4	Temperatura máxima	20.4
81331	7	Sololá	704	Santa Lucía Utatlán 	7	Santa Rita 	3	Marzo	2023-11-03T00:00:00	2024-11-08T09:00:00	3	Temperatura mínima	18.6
81332	7	Sololá	704	Santa Lucía Utatlán 	7	Santa Rita 	3	Marzo	2023-11-03T00:00:00	2024-11-08T09:00:00	5	Humedad	79
81333	7	Sololá	704	Santa Lucía Utatlán 	7	Santa Rita 	3	Marzo	2023-11-03T00:00:00	2024-11-08T09:00:00	6	Velocidad del viento	4.8
81334	7	Sololá	704	Santa Lucía Utatlán 	7	Santa Rita 	3	Marzo	2023-11-03T00:00:00	2024-11-08T09:00:00	7	Dirección del viento	4.83
81335	7	Sololá	704	Santa Lucía Utatlán 	7	Santa Rita 	3	Marzo	2023-11-03T00:00:00	2024-11-08T09:00:00	1	Precipitación	0
81336	7	Sololá	704	Santa Lucía Utatlán 	7	Santa Rita 	3	Marzo	2023-11-03T00:00:00	2024-11-08T09:00:00	8	Radiación solar	414
81337	7	Sololá	704	Santa Lucía Utatlán 	7	Santa Rita 	3	Marzo	2023-11-03T00:00:00	2024-11-08T10:00:00	2	Temperatura media	19.4
81338	7	Sololá	704	Santa Lucía Utatlán 	7	Santa Rita 	3	Marzo	2023-11-03T00:00:00	2024-11-08T10:00:00	4	Temperatura máxima	19.9
81339	7	Sololá	704	Santa Lucía Utatlán 	7	Santa Rita 	3	Marzo	2023-11-03T00:00:00	2024-11-08T10:00:00	3	Temperatura mínima	19.2
81340	7	Sololá	704	Santa Lucía Utatlán 	7	Santa Rita 	3	Marzo	2023-11-03T00:00:00	2024-11-08T10:00:00	5	Humedad	83
81341	7	Sololá	704	Santa Lucía Utatlán 	7	Santa Rita 	3	Marzo	2023-11-03T00:00:00	2024-11-08T10:00:00	6	Velocidad del viento	4.8
81342	7	Sololá	704	Santa Lucía Utatlán 	7	Santa Rita 	3	Marzo	2023-11-03T00:00:00	2024-11-08T10:00:00	7	Dirección del viento	4.83
81343	7	Sololá	704	Santa Lucía Utatlán 	7	Santa Rita 	3	Marzo	2023-11-03T00:00:00	2024-11-08T10:00:00	1	Precipitación	0
81344	7	Sololá	704	Santa Lucía Utatlán 	7	Santa Rita 	3	Marzo	2023-11-03T00:00:00	2024-11-08T10:00:00	8	Radiación solar	191
81345	7	Sololá	704	Santa Lucía Utatlán 	7	Santa Rita 	3	Marzo	2023-11-03T00:00:00	2024-11-08T11:00:00	2	Temperatura media	20.5
81346	7	Sololá	704	Santa Lucía Utatlán 	7	Santa Rita 	3	Marzo	2023-11-03T00:00:00	2024-11-08T11:00:00	4	Temperatura máxima	20.5
81347	7	Sololá	704	Santa Lucía Utatlán 	7	Santa Rita 	3	Marzo	2023-11-03T00:00:00	2024-11-08T11:00:00	3	Temperatura mínima	19.3
81348	7	Sololá	704	Santa Lucía Utatlán 	7	Santa Rita 	3	Marzo	2023-11-03T00:00:00	2024-11-08T11:00:00	5	Humedad	80
81349	7	Sololá	704	Santa Lucía Utatlán 	7	Santa Rita 	3	Marzo	2023-11-03T00:00:00	2024-11-08T11:00:00	6	Velocidad del viento	1.6
81350	7	Sololá	704	Santa Lucía Utatlán 	7	Santa Rita 	3	Marzo	2023-11-03T00:00:00	2024-11-08T11:00:00	7	Dirección del viento	1.61
81351	7	Sololá	704	Santa Lucía Utatlán 	7	Santa Rita 	3	Marzo	2023-11-03T00:00:00	2024-11-08T11:00:00	1	Precipitación	0
81352	7	Sololá	704	Santa Lucía Utatlán 	7	Santa Rita 	3	Marzo	2023-11-03T00:00:00	2024-11-08T11:00:00	8	Radiación solar	256
81353	7	Sololá	704	Santa Lucía Utatlán 	7	Santa Rita 	3	Marzo	2023-11-03T00:00:00	2024-11-08T12:00:00	2	Temperatura media	20.8
81354	7	Sololá	704	Santa Lucía Utatlán 	7	Santa Rita 	3	Marzo	2023-11-03T00:00:00	2024-11-08T12:00:00	4	Temperatura máxima	21.9
81355	7	Sololá	704	Santa Lucía Utatlán 	7	Santa Rita 	3	Marzo	2023-11-03T00:00:00	2024-11-08T12:00:00	3	Temperatura mínima	20.6
81356	7	Sololá	704	Santa Lucía Utatlán 	7	Santa Rita 	3	Marzo	2023-11-03T00:00:00	2024-11-08T12:00:00	5	Humedad	80
81357	7	Sololá	704	Santa Lucía Utatlán 	7	Santa Rita 	3	Marzo	2023-11-03T00:00:00	2024-11-08T12:00:00	6	Velocidad del viento	4.8
81358	7	Sololá	704	Santa Lucía Utatlán 	7	Santa Rita 	3	Marzo	2023-11-03T00:00:00	2024-11-08T12:00:00	7	Dirección del viento	4.83
81359	7	Sololá	704	Santa Lucía Utatlán 	7	Santa Rita 	3	Marzo	2023-11-03T00:00:00	2024-11-08T12:00:00	1	Precipitación	0
81360	7	Sololá	704	Santa Lucía Utatlán 	7	Santa Rita 	3	Marzo	2023-11-03T00:00:00	2024-11-08T12:00:00	8	Radiación solar	401
81361	7	Sololá	704	Santa Lucía Utatlán 	7	Santa Rita 	3	Marzo	2023-11-03T00:00:00	2024-11-08T13:00:00	2	Temperatura media	19.7
81362	7	Sololá	704	Santa Lucía Utatlán 	7	Santa Rita 	3	Marzo	2023-11-03T00:00:00	2024-11-08T13:00:00	4	Temperatura máxima	20.7
81363	7	Sololá	704	Santa Lucía Utatlán 	7	Santa Rita 	3	Marzo	2023-11-03T00:00:00	2024-11-08T13:00:00	3	Temperatura mínima	19.7
81364	7	Sololá	704	Santa Lucía Utatlán 	7	Santa Rita 	3	Marzo	2023-11-03T00:00:00	2024-11-08T13:00:00	5	Humedad	85
81365	7	Sololá	704	Santa Lucía Utatlán 	7	Santa Rita 	3	Marzo	2023-11-03T00:00:00	2024-11-08T13:00:00	6	Velocidad del viento	4.8
81366	7	Sololá	704	Santa Lucía Utatlán 	7	Santa Rita 	3	Marzo	2023-11-03T00:00:00	2024-11-08T13:00:00	7	Dirección del viento	4.83
81367	7	Sololá	704	Santa Lucía Utatlán 	7	Santa Rita 	3	Marzo	2023-11-03T00:00:00	2024-11-08T13:00:00	1	Precipitación	0
81368	7	Sololá	704	Santa Lucía Utatlán 	7	Santa Rita 	3	Marzo	2023-11-03T00:00:00	2024-11-08T13:00:00	8	Radiación solar	126
81369	7	Sololá	704	Santa Lucía Utatlán 	7	Santa Rita 	3	Marzo	2023-11-03T00:00:00	2024-11-08T14:00:00	2	Temperatura media	19.2
81370	7	Sololá	704	Santa Lucía Utatlán 	7	Santa Rita 	3	Marzo	2023-11-03T00:00:00	2024-11-08T14:00:00	4	Temperatura máxima	20.2
81371	7	Sololá	704	Santa Lucía Utatlán 	7	Santa Rita 	3	Marzo	2023-11-03T00:00:00	2024-11-08T14:00:00	3	Temperatura mínima	19.2
81372	7	Sololá	704	Santa Lucía Utatlán 	7	Santa Rita 	3	Marzo	2023-11-03T00:00:00	2024-11-08T14:00:00	5	Humedad	87
81373	7	Sololá	704	Santa Lucía Utatlán 	7	Santa Rita 	3	Marzo	2023-11-03T00:00:00	2024-11-08T14:00:00	6	Velocidad del viento	3.2
81374	7	Sololá	704	Santa Lucía Utatlán 	7	Santa Rita 	3	Marzo	2023-11-03T00:00:00	2024-11-08T14:00:00	7	Dirección del viento	3.22
81375	7	Sololá	704	Santa Lucía Utatlán 	7	Santa Rita 	3	Marzo	2023-11-03T00:00:00	2024-11-08T14:00:00	1	Precipitación	0
81376	7	Sololá	704	Santa Lucía Utatlán 	7	Santa Rita 	3	Marzo	2023-11-03T00:00:00	2024-11-08T14:00:00	8	Radiación solar	138
81377	7	Sololá	704	Santa Lucía Utatlán 	7	Santa Rita 	3	Marzo	2023-11-03T00:00:00	2024-11-08T15:00:00	2	Temperatura media	19.4
81378	7	Sololá	704	Santa Lucía Utatlán 	7	Santa Rita 	3	Marzo	2023-11-03T00:00:00	2024-11-08T15:00:00	4	Temperatura máxima	19.4
81379	7	Sololá	704	Santa Lucía Utatlán 	7	Santa Rita 	3	Marzo	2023-11-03T00:00:00	2024-11-08T15:00:00	3	Temperatura mínima	18.6
81380	7	Sololá	704	Santa Lucía Utatlán 	7	Santa Rita 	3	Marzo	2023-11-03T00:00:00	2024-11-08T15:00:00	5	Humedad	88
81381	7	Sololá	704	Santa Lucía Utatlán 	7	Santa Rita 	3	Marzo	2023-11-03T00:00:00	2024-11-08T15:00:00	6	Velocidad del viento	1.6
81382	7	Sololá	704	Santa Lucía Utatlán 	7	Santa Rita 	3	Marzo	2023-11-03T00:00:00	2024-11-08T15:00:00	7	Dirección del viento	1.61
81383	7	Sololá	704	Santa Lucía Utatlán 	7	Santa Rita 	3	Marzo	2023-11-03T00:00:00	2024-11-08T15:00:00	1	Precipitación	0
81384	7	Sololá	704	Santa Lucía Utatlán 	7	Santa Rita 	3	Marzo	2023-11-03T00:00:00	2024-11-08T15:00:00	8	Radiación solar	87
81385	7	Sololá	704	Santa Lucía Utatlán 	7	Santa Rita 	3	Marzo	2023-11-03T00:00:00	2024-11-08T16:00:00	2	Temperatura media	19.6
81386	7	Sololá	704	Santa Lucía Utatlán 	7	Santa Rita 	3	Marzo	2023-11-03T00:00:00	2024-11-08T16:00:00	4	Temperatura máxima	19.6
81387	7	Sololá	704	Santa Lucía Utatlán 	7	Santa Rita 	3	Marzo	2023-11-03T00:00:00	2024-11-08T16:00:00	3	Temperatura mínima	18.8
81388	7	Sololá	704	Santa Lucía Utatlán 	7	Santa Rita 	3	Marzo	2023-11-03T00:00:00	2024-11-08T16:00:00	5	Humedad	86
81389	7	Sololá	704	Santa Lucía Utatlán 	7	Santa Rita 	3	Marzo	2023-11-03T00:00:00	2024-11-08T16:00:00	6	Velocidad del viento	1.6
81390	7	Sololá	704	Santa Lucía Utatlán 	7	Santa Rita 	3	Marzo	2023-11-03T00:00:00	2024-11-08T16:00:00	7	Dirección del viento	1.61
81391	7	Sololá	704	Santa Lucía Utatlán 	7	Santa Rita 	3	Marzo	2023-11-03T00:00:00	2024-11-08T16:00:00	1	Precipitación	0
81392	7	Sololá	704	Santa Lucía Utatlán 	7	Santa Rita 	3	Marzo	2023-11-03T00:00:00	2024-11-08T16:00:00	8	Radiación solar	90
81393	7	Sololá	704	Santa Lucía Utatlán 	7	Santa Rita 	3	Marzo	2023-11-03T00:00:00	2024-11-08T17:00:00	2	Temperatura media	19.5
81394	7	Sololá	704	Santa Lucía Utatlán 	7	Santa Rita 	3	Marzo	2023-11-03T00:00:00	2024-11-08T17:00:00	4	Temperatura máxima	20.1
81395	7	Sololá	704	Santa Lucía Utatlán 	7	Santa Rita 	3	Marzo	2023-11-03T00:00:00	2024-11-08T17:00:00	3	Temperatura mínima	19.4
81396	7	Sololá	704	Santa Lucía Utatlán 	7	Santa Rita 	3	Marzo	2023-11-03T00:00:00	2024-11-08T17:00:00	5	Humedad	87
81397	7	Sololá	704	Santa Lucía Utatlán 	7	Santa Rita 	3	Marzo	2023-11-03T00:00:00	2024-11-08T17:00:00	6	Velocidad del viento	1.6
81398	7	Sololá	704	Santa Lucía Utatlán 	7	Santa Rita 	3	Marzo	2023-11-03T00:00:00	2024-11-08T17:00:00	7	Dirección del viento	1.61
81399	7	Sololá	704	Santa Lucía Utatlán 	7	Santa Rita 	3	Marzo	2023-11-03T00:00:00	2024-11-08T17:00:00	1	Precipitación	0
81400	7	Sololá	704	Santa Lucía Utatlán 	7	Santa Rita 	3	Marzo	2023-11-03T00:00:00	2024-11-08T17:00:00	8	Radiación solar	117
81401	7	Sololá	704	Santa Lucía Utatlán 	7	Santa Rita 	3	Marzo	2023-11-03T00:00:00	2024-11-08T18:00:00	2	Temperatura media	19.2
81402	7	Sololá	704	Santa Lucía Utatlán 	7	Santa Rita 	3	Marzo	2023-11-03T00:00:00	2024-11-08T18:00:00	4	Temperatura máxima	19.7
81403	7	Sololá	704	Santa Lucía Utatlán 	7	Santa Rita 	3	Marzo	2023-11-03T00:00:00	2024-11-08T18:00:00	3	Temperatura mínima	19.2
81404	7	Sololá	704	Santa Lucía Utatlán 	7	Santa Rita 	3	Marzo	2023-11-03T00:00:00	2024-11-08T18:00:00	5	Humedad	89
81405	7	Sololá	704	Santa Lucía Utatlán 	7	Santa Rita 	3	Marzo	2023-11-03T00:00:00	2024-11-08T18:00:00	6	Velocidad del viento	0
81406	7	Sololá	704	Santa Lucía Utatlán 	7	Santa Rita 	3	Marzo	2023-11-03T00:00:00	2024-11-08T18:00:00	7	Dirección del viento	0
81407	7	Sololá	704	Santa Lucía Utatlán 	7	Santa Rita 	3	Marzo	2023-11-03T00:00:00	2024-11-08T18:00:00	1	Precipitación	0
81408	7	Sololá	704	Santa Lucía Utatlán 	7	Santa Rita 	3	Marzo	2023-11-03T00:00:00	2024-11-08T18:00:00	8	Radiación solar	37
81409	7	Sololá	704	Santa Lucía Utatlán 	7	Santa Rita 	3	Marzo	2023-11-03T00:00:00	2024-11-08T19:00:00	2	Temperatura media	18.6
81410	7	Sololá	704	Santa Lucía Utatlán 	7	Santa Rita 	3	Marzo	2023-11-03T00:00:00	2024-11-08T19:00:00	4	Temperatura máxima	19.2
81411	7	Sololá	704	Santa Lucía Utatlán 	7	Santa Rita 	3	Marzo	2023-11-03T00:00:00	2024-11-08T19:00:00	3	Temperatura mínima	18.6
81412	7	Sololá	704	Santa Lucía Utatlán 	7	Santa Rita 	3	Marzo	2023-11-03T00:00:00	2024-11-08T19:00:00	5	Humedad	92
81413	7	Sololá	704	Santa Lucía Utatlán 	7	Santa Rita 	3	Marzo	2023-11-03T00:00:00	2024-11-08T19:00:00	6	Velocidad del viento	0
81414	7	Sololá	704	Santa Lucía Utatlán 	7	Santa Rita 	3	Marzo	2023-11-03T00:00:00	2024-11-08T19:00:00	7	Dirección del viento	0
81415	7	Sololá	704	Santa Lucía Utatlán 	7	Santa Rita 	3	Marzo	2023-11-03T00:00:00	2024-11-08T19:00:00	1	Precipitación	0
81416	7	Sololá	704	Santa Lucía Utatlán 	7	Santa Rita 	3	Marzo	2023-11-03T00:00:00	2024-11-08T19:00:00	8	Radiación solar	0
81417	7	Sololá	704	Santa Lucía Utatlán 	7	Santa Rita 	3	Marzo	2023-11-03T00:00:00	2024-11-08T20:00:00	2	Temperatura media	18.3
81418	7	Sololá	704	Santa Lucía Utatlán 	7	Santa Rita 	3	Marzo	2023-11-03T00:00:00	2024-11-08T20:00:00	4	Temperatura máxima	18.6
81419	7	Sololá	704	Santa Lucía Utatlán 	7	Santa Rita 	3	Marzo	2023-11-03T00:00:00	2024-11-08T20:00:00	3	Temperatura mínima	18.3
81420	7	Sololá	704	Santa Lucía Utatlán 	7	Santa Rita 	3	Marzo	2023-11-03T00:00:00	2024-11-08T20:00:00	5	Humedad	92
81421	7	Sololá	704	Santa Lucía Utatlán 	7	Santa Rita 	3	Marzo	2023-11-03T00:00:00	2024-11-08T20:00:00	6	Velocidad del viento	0
81422	7	Sololá	704	Santa Lucía Utatlán 	7	Santa Rita 	3	Marzo	2023-11-03T00:00:00	2024-11-08T20:00:00	7	Dirección del viento	0
81423	7	Sololá	704	Santa Lucía Utatlán 	7	Santa Rita 	3	Marzo	2023-11-03T00:00:00	2024-11-08T20:00:00	1	Precipitación	0
81424	7	Sololá	704	Santa Lucía Utatlán 	7	Santa Rita 	3	Marzo	2023-11-03T00:00:00	2024-11-08T20:00:00	8	Radiación solar	0
81425	7	Sololá	704	Santa Lucía Utatlán 	7	Santa Rita 	3	Marzo	2023-11-03T00:00:00	2024-11-08T21:00:00	2	Temperatura media	18.1
81426	7	Sololá	704	Santa Lucía Utatlán 	7	Santa Rita 	3	Marzo	2023-11-03T00:00:00	2024-11-08T21:00:00	4	Temperatura máxima	18.3
81427	7	Sololá	704	Santa Lucía Utatlán 	7	Santa Rita 	3	Marzo	2023-11-03T00:00:00	2024-11-08T21:00:00	3	Temperatura mínima	18
81428	7	Sololá	704	Santa Lucía Utatlán 	7	Santa Rita 	3	Marzo	2023-11-03T00:00:00	2024-11-08T21:00:00	5	Humedad	92
81429	7	Sololá	704	Santa Lucía Utatlán 	7	Santa Rita 	3	Marzo	2023-11-03T00:00:00	2024-11-08T21:00:00	6	Velocidad del viento	0
81430	7	Sololá	704	Santa Lucía Utatlán 	7	Santa Rita 	3	Marzo	2023-11-03T00:00:00	2024-11-08T21:00:00	7	Dirección del viento	0
81431	7	Sololá	704	Santa Lucía Utatlán 	7	Santa Rita 	3	Marzo	2023-11-03T00:00:00	2024-11-08T21:00:00	1	Precipitación	0
81432	7	Sololá	704	Santa Lucía Utatlán 	7	Santa Rita 	3	Marzo	2023-11-03T00:00:00	2024-11-08T21:00:00	8	Radiación solar	0
81433	7	Sololá	704	Santa Lucía Utatlán 	7	Santa Rita 	3	Marzo	2023-11-03T00:00:00	2024-11-08T22:00:00	2	Temperatura media	17.7
81434	7	Sololá	704	Santa Lucía Utatlán 	7	Santa Rita 	3	Marzo	2023-11-03T00:00:00	2024-11-08T22:00:00	4	Temperatura máxima	18.1
81435	7	Sololá	704	Santa Lucía Utatlán 	7	Santa Rita 	3	Marzo	2023-11-03T00:00:00	2024-11-08T22:00:00	3	Temperatura mínima	17.6
81436	7	Sololá	704	Santa Lucía Utatlán 	7	Santa Rita 	3	Marzo	2023-11-03T00:00:00	2024-11-08T22:00:00	5	Humedad	94
81437	7	Sololá	704	Santa Lucía Utatlán 	7	Santa Rita 	3	Marzo	2023-11-03T00:00:00	2024-11-08T22:00:00	6	Velocidad del viento	0
81438	7	Sololá	704	Santa Lucía Utatlán 	7	Santa Rita 	3	Marzo	2023-11-03T00:00:00	2024-11-08T22:00:00	7	Dirección del viento	0
81439	7	Sololá	704	Santa Lucía Utatlán 	7	Santa Rita 	3	Marzo	2023-11-03T00:00:00	2024-11-08T22:00:00	1	Precipitación	0
81440	7	Sololá	704	Santa Lucía Utatlán 	7	Santa Rita 	3	Marzo	2023-11-03T00:00:00	2024-11-08T22:00:00	8	Radiación solar	0
81441	7	Sololá	704	Santa Lucía Utatlán 	7	Santa Rita 	3	Marzo	2023-11-03T00:00:00	2024-11-08T23:00:00	2	Temperatura media	17.8
81442	7	Sololá	704	Santa Lucía Utatlán 	7	Santa Rita 	3	Marzo	2023-11-03T00:00:00	2024-11-08T23:00:00	4	Temperatura máxima	17.8
81443	7	Sololá	704	Santa Lucía Utatlán 	7	Santa Rita 	3	Marzo	2023-11-03T00:00:00	2024-11-08T23:00:00	3	Temperatura mínima	17.7
81444	7	Sololá	704	Santa Lucía Utatlán 	7	Santa Rita 	3	Marzo	2023-11-03T00:00:00	2024-11-08T23:00:00	5	Humedad	94
81445	7	Sololá	704	Santa Lucía Utatlán 	7	Santa Rita 	3	Marzo	2023-11-03T00:00:00	2024-11-08T23:00:00	6	Velocidad del viento	0
81446	7	Sololá	704	Santa Lucía Utatlán 	7	Santa Rita 	3	Marzo	2023-11-03T00:00:00	2024-11-08T23:00:00	7	Dirección del viento	0
81447	7	Sololá	704	Santa Lucía Utatlán 	7	Santa Rita 	3	Marzo	2023-11-03T00:00:00	2024-11-08T23:00:00	1	Precipitación	0
81448	7	Sololá	704	Santa Lucía Utatlán 	7	Santa Rita 	3	Marzo	2023-11-03T00:00:00	2024-11-08T23:00:00	8	Radiación solar	0
81449	7	Sololá	704	Santa Lucía Utatlán 	7	Santa Rita 	3	Marzo	2023-12-03T00:00:00	2024-11-08T00:00:00	2	Temperatura media	17.7
81450	7	Sololá	704	Santa Lucía Utatlán 	7	Santa Rita 	3	Marzo	2023-12-03T00:00:00	2024-11-08T00:00:00	4	Temperatura máxima	17.8
81451	7	Sololá	704	Santa Lucía Utatlán 	7	Santa Rita 	3	Marzo	2023-12-03T00:00:00	2024-11-08T00:00:00	3	Temperatura mínima	17.6
81452	7	Sololá	704	Santa Lucía Utatlán 	7	Santa Rita 	3	Marzo	2023-12-03T00:00:00	2024-11-08T00:00:00	5	Humedad	94
81453	7	Sololá	704	Santa Lucía Utatlán 	7	Santa Rita 	3	Marzo	2023-12-03T00:00:00	2024-11-08T00:00:00	6	Velocidad del viento	0
81454	7	Sololá	704	Santa Lucía Utatlán 	7	Santa Rita 	3	Marzo	2023-12-03T00:00:00	2024-11-08T00:00:00	7	Dirección del viento	0
81455	7	Sololá	704	Santa Lucía Utatlán 	7	Santa Rita 	3	Marzo	2023-12-03T00:00:00	2024-11-08T00:00:00	1	Precipitación	0
81456	7	Sololá	704	Santa Lucía Utatlán 	7	Santa Rita 	3	Marzo	2023-12-03T00:00:00	2024-11-08T00:00:00	8	Radiación solar	0
81457	7	Sololá	704	Santa Lucía Utatlán 	7	Santa Rita 	3	Marzo	2023-12-03T00:00:00	2024-11-08T01:00:00	2	Temperatura media	17.4
81458	7	Sololá	704	Santa Lucía Utatlán 	7	Santa Rita 	3	Marzo	2023-12-03T00:00:00	2024-11-08T01:00:00	4	Temperatura máxima	17.7
81459	7	Sololá	704	Santa Lucía Utatlán 	7	Santa Rita 	3	Marzo	2023-12-03T00:00:00	2024-11-08T01:00:00	3	Temperatura mínima	17.4
81460	7	Sololá	704	Santa Lucía Utatlán 	7	Santa Rita 	3	Marzo	2023-12-03T00:00:00	2024-11-08T01:00:00	5	Humedad	91
81461	7	Sololá	704	Santa Lucía Utatlán 	7	Santa Rita 	3	Marzo	2023-12-03T00:00:00	2024-11-08T01:00:00	6	Velocidad del viento	0
81462	7	Sololá	704	Santa Lucía Utatlán 	7	Santa Rita 	3	Marzo	2023-12-03T00:00:00	2024-11-08T01:00:00	7	Dirección del viento	0
81463	7	Sololá	704	Santa Lucía Utatlán 	7	Santa Rita 	3	Marzo	2023-12-03T00:00:00	2024-11-08T01:00:00	1	Precipitación	0
81464	7	Sololá	704	Santa Lucía Utatlán 	7	Santa Rita 	3	Marzo	2023-12-03T00:00:00	2024-11-08T01:00:00	8	Radiación solar	0
81465	7	Sololá	704	Santa Lucía Utatlán 	7	Santa Rita 	3	Marzo	2023-12-03T00:00:00	2024-11-08T02:00:00	2	Temperatura media	17.2
81466	7	Sololá	704	Santa Lucía Utatlán 	7	Santa Rita 	3	Marzo	2023-12-03T00:00:00	2024-11-08T02:00:00	4	Temperatura máxima	17.3
81467	7	Sololá	704	Santa Lucía Utatlán 	7	Santa Rita 	3	Marzo	2023-12-03T00:00:00	2024-11-08T02:00:00	3	Temperatura mínima	17
81468	7	Sololá	704	Santa Lucía Utatlán 	7	Santa Rita 	3	Marzo	2023-12-03T00:00:00	2024-11-08T02:00:00	5	Humedad	87
81469	7	Sololá	704	Santa Lucía Utatlán 	7	Santa Rita 	3	Marzo	2023-12-03T00:00:00	2024-11-08T02:00:00	6	Velocidad del viento	0
81470	7	Sololá	704	Santa Lucía Utatlán 	7	Santa Rita 	3	Marzo	2023-12-03T00:00:00	2024-11-08T02:00:00	7	Dirección del viento	0
81471	7	Sololá	704	Santa Lucía Utatlán 	7	Santa Rita 	3	Marzo	2023-12-03T00:00:00	2024-11-08T02:00:00	1	Precipitación	0
81472	7	Sololá	704	Santa Lucía Utatlán 	7	Santa Rita 	3	Marzo	2023-12-03T00:00:00	2024-11-08T02:00:00	8	Radiación solar	0
81473	7	Sololá	704	Santa Lucía Utatlán 	7	Santa Rita 	3	Marzo	2023-12-03T00:00:00	2024-11-08T03:00:00	2	Temperatura media	17.1
81474	7	Sololá	704	Santa Lucía Utatlán 	7	Santa Rita 	3	Marzo	2023-12-03T00:00:00	2024-11-08T03:00:00	4	Temperatura máxima	17.4
81475	7	Sololá	704	Santa Lucía Utatlán 	7	Santa Rita 	3	Marzo	2023-12-03T00:00:00	2024-11-08T03:00:00	3	Temperatura mínima	16.9
81476	7	Sololá	704	Santa Lucía Utatlán 	7	Santa Rita 	3	Marzo	2023-12-03T00:00:00	2024-11-08T03:00:00	5	Humedad	94
81477	7	Sololá	704	Santa Lucía Utatlán 	7	Santa Rita 	3	Marzo	2023-12-03T00:00:00	2024-11-08T03:00:00	6	Velocidad del viento	0
81478	7	Sololá	704	Santa Lucía Utatlán 	7	Santa Rita 	3	Marzo	2023-12-03T00:00:00	2024-11-08T03:00:00	7	Dirección del viento	0
81479	7	Sololá	704	Santa Lucía Utatlán 	7	Santa Rita 	3	Marzo	2023-12-03T00:00:00	2024-11-08T03:00:00	1	Precipitación	0
81480	7	Sololá	704	Santa Lucía Utatlán 	7	Santa Rita 	3	Marzo	2023-12-03T00:00:00	2024-11-08T03:00:00	8	Radiación solar	0
81481	7	Sololá	704	Santa Lucía Utatlán 	7	Santa Rita 	3	Marzo	2023-12-03T00:00:00	2024-11-08T04:00:00	2	Temperatura media	16.9
81482	7	Sololá	704	Santa Lucía Utatlán 	7	Santa Rita 	3	Marzo	2023-12-03T00:00:00	2024-11-08T04:00:00	4	Temperatura máxima	17.2
81483	7	Sololá	704	Santa Lucía Utatlán 	7	Santa Rita 	3	Marzo	2023-12-03T00:00:00	2024-11-08T04:00:00	3	Temperatura mínima	16.9
81484	7	Sololá	704	Santa Lucía Utatlán 	7	Santa Rita 	3	Marzo	2023-12-03T00:00:00	2024-11-08T04:00:00	5	Humedad	95
81485	7	Sololá	704	Santa Lucía Utatlán 	7	Santa Rita 	3	Marzo	2023-12-03T00:00:00	2024-11-08T04:00:00	6	Velocidad del viento	0
81486	7	Sololá	704	Santa Lucía Utatlán 	7	Santa Rita 	3	Marzo	2023-12-03T00:00:00	2024-11-08T04:00:00	7	Dirección del viento	0
81487	7	Sololá	704	Santa Lucía Utatlán 	7	Santa Rita 	3	Marzo	2023-12-03T00:00:00	2024-11-08T04:00:00	1	Precipitación	0
81488	7	Sololá	704	Santa Lucía Utatlán 	7	Santa Rita 	3	Marzo	2023-12-03T00:00:00	2024-11-08T04:00:00	8	Radiación solar	0
81489	7	Sololá	704	Santa Lucía Utatlán 	7	Santa Rita 	3	Marzo	2023-12-03T00:00:00	2024-11-08T05:00:00	2	Temperatura media	16.8
81490	7	Sololá	704	Santa Lucía Utatlán 	7	Santa Rita 	3	Marzo	2023-12-03T00:00:00	2024-11-08T05:00:00	4	Temperatura máxima	16.9
81491	7	Sololá	704	Santa Lucía Utatlán 	7	Santa Rita 	3	Marzo	2023-12-03T00:00:00	2024-11-08T05:00:00	3	Temperatura mínima	16.7
81492	7	Sololá	704	Santa Lucía Utatlán 	7	Santa Rita 	3	Marzo	2023-12-03T00:00:00	2024-11-08T05:00:00	5	Humedad	95
81493	7	Sololá	704	Santa Lucía Utatlán 	7	Santa Rita 	3	Marzo	2023-12-03T00:00:00	2024-11-08T05:00:00	6	Velocidad del viento	0
81494	7	Sololá	704	Santa Lucía Utatlán 	7	Santa Rita 	3	Marzo	2023-12-03T00:00:00	2024-11-08T05:00:00	7	Dirección del viento	0
81495	7	Sololá	704	Santa Lucía Utatlán 	7	Santa Rita 	3	Marzo	2023-12-03T00:00:00	2024-11-08T05:00:00	1	Precipitación	0
81496	7	Sololá	704	Santa Lucía Utatlán 	7	Santa Rita 	3	Marzo	2023-12-03T00:00:00	2024-11-08T05:00:00	8	Radiación solar	0
81497	7	Sololá	704	Santa Lucía Utatlán 	7	Santa Rita 	3	Marzo	2023-12-03T00:00:00	2024-11-08T06:00:00	2	Temperatura media	16.7
81498	7	Sololá	704	Santa Lucía Utatlán 	7	Santa Rita 	3	Marzo	2023-12-03T00:00:00	2024-11-08T06:00:00	4	Temperatura máxima	16.8
81499	7	Sololá	704	Santa Lucía Utatlán 	7	Santa Rita 	3	Marzo	2023-12-03T00:00:00	2024-11-08T06:00:00	3	Temperatura mínima	16.4
81500	7	Sololá	704	Santa Lucía Utatlán 	7	Santa Rita 	3	Marzo	2023-12-03T00:00:00	2024-11-08T06:00:00	5	Humedad	94
81501	7	Sololá	704	Santa Lucía Utatlán 	7	Santa Rita 	3	Marzo	2023-12-03T00:00:00	2024-11-08T06:00:00	6	Velocidad del viento	0
81502	7	Sololá	704	Santa Lucía Utatlán 	7	Santa Rita 	3	Marzo	2023-12-03T00:00:00	2024-11-08T06:00:00	7	Dirección del viento	0
81503	7	Sololá	704	Santa Lucía Utatlán 	7	Santa Rita 	3	Marzo	2023-12-03T00:00:00	2024-11-08T06:00:00	1	Precipitación	0
81504	7	Sololá	704	Santa Lucía Utatlán 	7	Santa Rita 	3	Marzo	2023-12-03T00:00:00	2024-11-08T06:00:00	8	Radiación solar	0
81505	7	Sololá	704	Santa Lucía Utatlán 	7	Santa Rita 	3	Marzo	2023-12-03T00:00:00	2024-11-08T07:00:00	2	Temperatura media	17.1
81506	7	Sololá	704	Santa Lucía Utatlán 	7	Santa Rita 	3	Marzo	2023-12-03T00:00:00	2024-11-08T07:00:00	4	Temperatura máxima	17.1
81507	7	Sololá	704	Santa Lucía Utatlán 	7	Santa Rita 	3	Marzo	2023-12-03T00:00:00	2024-11-08T07:00:00	3	Temperatura mínima	16.6
81508	7	Sololá	704	Santa Lucía Utatlán 	7	Santa Rita 	3	Marzo	2023-12-03T00:00:00	2024-11-08T07:00:00	5	Humedad	93
81509	7	Sololá	704	Santa Lucía Utatlán 	7	Santa Rita 	3	Marzo	2023-12-03T00:00:00	2024-11-08T07:00:00	6	Velocidad del viento	0
81510	7	Sololá	704	Santa Lucía Utatlán 	7	Santa Rita 	3	Marzo	2023-12-03T00:00:00	2024-11-08T07:00:00	7	Dirección del viento	0
81511	7	Sololá	704	Santa Lucía Utatlán 	7	Santa Rita 	3	Marzo	2023-12-03T00:00:00	2024-11-08T07:00:00	1	Precipitación	0
81512	7	Sololá	704	Santa Lucía Utatlán 	7	Santa Rita 	3	Marzo	2023-12-03T00:00:00	2024-11-08T07:00:00	8	Radiación solar	5
81513	7	Sololá	704	Santa Lucía Utatlán 	7	Santa Rita 	3	Marzo	2023-12-03T00:00:00	2024-11-08T08:00:00	2	Temperatura media	16.8
81514	7	Sololá	704	Santa Lucía Utatlán 	7	Santa Rita 	3	Marzo	2023-12-03T00:00:00	2024-11-08T08:00:00	4	Temperatura máxima	17.2
81515	7	Sololá	704	Santa Lucía Utatlán 	7	Santa Rita 	3	Marzo	2023-12-03T00:00:00	2024-11-08T08:00:00	3	Temperatura mínima	16.7
81516	7	Sololá	704	Santa Lucía Utatlán 	7	Santa Rita 	3	Marzo	2023-12-03T00:00:00	2024-11-08T08:00:00	5	Humedad	96
81517	7	Sololá	704	Santa Lucía Utatlán 	7	Santa Rita 	3	Marzo	2023-12-03T00:00:00	2024-11-08T08:00:00	6	Velocidad del viento	0
81518	7	Sololá	704	Santa Lucía Utatlán 	7	Santa Rita 	3	Marzo	2023-12-03T00:00:00	2024-11-08T08:00:00	7	Dirección del viento	0
81519	7	Sololá	704	Santa Lucía Utatlán 	7	Santa Rita 	3	Marzo	2023-12-03T00:00:00	2024-11-08T08:00:00	1	Precipitación	0
81520	7	Sololá	704	Santa Lucía Utatlán 	7	Santa Rita 	3	Marzo	2023-12-03T00:00:00	2024-11-08T08:00:00	8	Radiación solar	68
81521	7	Sololá	704	Santa Lucía Utatlán 	7	Santa Rita 	3	Marzo	2023-12-03T00:00:00	2024-11-08T09:00:00	2	Temperatura media	17.5
81522	7	Sololá	704	Santa Lucía Utatlán 	7	Santa Rita 	3	Marzo	2023-12-03T00:00:00	2024-11-08T09:00:00	4	Temperatura máxima	17.5
81523	7	Sololá	704	Santa Lucía Utatlán 	7	Santa Rita 	3	Marzo	2023-12-03T00:00:00	2024-11-08T09:00:00	3	Temperatura mínima	16.8
81524	7	Sololá	704	Santa Lucía Utatlán 	7	Santa Rita 	3	Marzo	2023-12-03T00:00:00	2024-11-08T09:00:00	5	Humedad	95
81525	7	Sololá	704	Santa Lucía Utatlán 	7	Santa Rita 	3	Marzo	2023-12-03T00:00:00	2024-11-08T09:00:00	6	Velocidad del viento	0
81526	7	Sololá	704	Santa Lucía Utatlán 	7	Santa Rita 	3	Marzo	2023-12-03T00:00:00	2024-11-08T09:00:00	7	Dirección del viento	0
81527	7	Sololá	704	Santa Lucía Utatlán 	7	Santa Rita 	3	Marzo	2023-12-03T00:00:00	2024-11-08T09:00:00	1	Precipitación	0
81528	7	Sololá	704	Santa Lucía Utatlán 	7	Santa Rita 	3	Marzo	2023-12-03T00:00:00	2024-11-08T09:00:00	8	Radiación solar	135
81529	7	Sololá	704	Santa Lucía Utatlán 	7	Santa Rita 	3	Marzo	2023-12-03T00:00:00	2024-11-08T10:00:00	2	Temperatura media	18.6
81530	7	Sololá	704	Santa Lucía Utatlán 	7	Santa Rita 	3	Marzo	2023-12-03T00:00:00	2024-11-08T10:00:00	4	Temperatura máxima	18.6
81531	7	Sololá	704	Santa Lucía Utatlán 	7	Santa Rita 	3	Marzo	2023-12-03T00:00:00	2024-11-08T10:00:00	3	Temperatura mínima	17.4
81532	7	Sololá	704	Santa Lucía Utatlán 	7	Santa Rita 	3	Marzo	2023-12-03T00:00:00	2024-11-08T10:00:00	5	Humedad	88
81533	7	Sololá	704	Santa Lucía Utatlán 	7	Santa Rita 	3	Marzo	2023-12-03T00:00:00	2024-11-08T10:00:00	6	Velocidad del viento	1.6
81534	7	Sololá	704	Santa Lucía Utatlán 	7	Santa Rita 	3	Marzo	2023-12-03T00:00:00	2024-11-08T10:00:00	7	Dirección del viento	1.61
81535	7	Sololá	704	Santa Lucía Utatlán 	7	Santa Rita 	3	Marzo	2023-12-03T00:00:00	2024-11-08T10:00:00	1	Precipitación	0
81536	7	Sololá	704	Santa Lucía Utatlán 	7	Santa Rita 	3	Marzo	2023-12-03T00:00:00	2024-11-08T10:00:00	8	Radiación solar	302
81537	7	Sololá	704	Santa Lucía Utatlán 	7	Santa Rita 	3	Marzo	2023-12-03T00:00:00	2024-11-08T11:00:00	2	Temperatura media	19.9
81538	7	Sololá	704	Santa Lucía Utatlán 	7	Santa Rita 	3	Marzo	2023-12-03T00:00:00	2024-11-08T11:00:00	4	Temperatura máxima	20.1
81539	7	Sololá	704	Santa Lucía Utatlán 	7	Santa Rita 	3	Marzo	2023-12-03T00:00:00	2024-11-08T11:00:00	3	Temperatura mínima	18.6
81540	7	Sololá	704	Santa Lucía Utatlán 	7	Santa Rita 	3	Marzo	2023-12-03T00:00:00	2024-11-08T11:00:00	5	Humedad	85
81541	7	Sololá	704	Santa Lucía Utatlán 	7	Santa Rita 	3	Marzo	2023-12-03T00:00:00	2024-11-08T11:00:00	6	Velocidad del viento	3.2
81542	7	Sololá	704	Santa Lucía Utatlán 	7	Santa Rita 	3	Marzo	2023-12-03T00:00:00	2024-11-08T11:00:00	7	Dirección del viento	3.22
81543	7	Sololá	704	Santa Lucía Utatlán 	7	Santa Rita 	3	Marzo	2023-12-03T00:00:00	2024-11-08T11:00:00	1	Precipitación	0
81544	7	Sololá	704	Santa Lucía Utatlán 	7	Santa Rita 	3	Marzo	2023-12-03T00:00:00	2024-11-08T11:00:00	8	Radiación solar	335
81545	7	Sololá	704	Santa Lucía Utatlán 	7	Santa Rita 	3	Marzo	2023-12-03T00:00:00	2024-11-08T12:00:00	2	Temperatura media	21.2
81546	7	Sololá	704	Santa Lucía Utatlán 	7	Santa Rita 	3	Marzo	2023-12-03T00:00:00	2024-11-08T12:00:00	4	Temperatura máxima	21.2
81547	7	Sololá	704	Santa Lucía Utatlán 	7	Santa Rita 	3	Marzo	2023-12-03T00:00:00	2024-11-08T12:00:00	3	Temperatura mínima	19.6
81548	7	Sololá	704	Santa Lucía Utatlán 	7	Santa Rita 	3	Marzo	2023-12-03T00:00:00	2024-11-08T12:00:00	5	Humedad	77
81549	7	Sololá	704	Santa Lucía Utatlán 	7	Santa Rita 	3	Marzo	2023-12-03T00:00:00	2024-11-08T12:00:00	6	Velocidad del viento	6.4
81550	7	Sololá	704	Santa Lucía Utatlán 	7	Santa Rita 	3	Marzo	2023-12-03T00:00:00	2024-11-08T12:00:00	7	Dirección del viento	6.44
81551	7	Sololá	704	Santa Lucía Utatlán 	7	Santa Rita 	3	Marzo	2023-12-03T00:00:00	2024-11-08T12:00:00	1	Precipitación	0
81552	7	Sololá	704	Santa Lucía Utatlán 	7	Santa Rita 	3	Marzo	2023-12-03T00:00:00	2024-11-08T12:00:00	8	Radiación solar	222
81553	7	Sololá	704	Santa Lucía Utatlán 	7	Santa Rita 	3	Marzo	2023-12-03T00:00:00	2024-11-08T13:00:00	2	Temperatura media	19.4
81554	7	Sololá	704	Santa Lucía Utatlán 	7	Santa Rita 	3	Marzo	2023-12-03T00:00:00	2024-11-08T13:00:00	4	Temperatura máxima	22
81555	7	Sololá	704	Santa Lucía Utatlán 	7	Santa Rita 	3	Marzo	2023-12-03T00:00:00	2024-11-08T13:00:00	3	Temperatura mínima	19.3
81556	7	Sololá	704	Santa Lucía Utatlán 	7	Santa Rita 	3	Marzo	2023-12-03T00:00:00	2024-11-08T13:00:00	5	Humedad	83
81557	7	Sololá	704	Santa Lucía Utatlán 	7	Santa Rita 	3	Marzo	2023-12-03T00:00:00	2024-11-08T13:00:00	6	Velocidad del viento	6.4
81558	7	Sololá	704	Santa Lucía Utatlán 	7	Santa Rita 	3	Marzo	2023-12-03T00:00:00	2024-11-08T13:00:00	7	Dirección del viento	6.44
81559	7	Sololá	704	Santa Lucía Utatlán 	7	Santa Rita 	3	Marzo	2023-12-03T00:00:00	2024-11-08T13:00:00	1	Precipitación	0
81560	7	Sololá	704	Santa Lucía Utatlán 	7	Santa Rita 	3	Marzo	2023-12-03T00:00:00	2024-11-08T13:00:00	8	Radiación solar	78
81561	7	Sololá	704	Santa Lucía Utatlán 	7	Santa Rita 	3	Marzo	2023-12-03T00:00:00	2024-11-08T14:00:00	2	Temperatura media	18.6
81562	7	Sololá	704	Santa Lucía Utatlán 	7	Santa Rita 	3	Marzo	2023-12-03T00:00:00	2024-11-08T14:00:00	4	Temperatura máxima	19.6
81563	7	Sololá	704	Santa Lucía Utatlán 	7	Santa Rita 	3	Marzo	2023-12-03T00:00:00	2024-11-08T14:00:00	3	Temperatura mínima	18.6
81564	7	Sololá	704	Santa Lucía Utatlán 	7	Santa Rita 	3	Marzo	2023-12-03T00:00:00	2024-11-08T14:00:00	5	Humedad	89
81565	7	Sololá	704	Santa Lucía Utatlán 	7	Santa Rita 	3	Marzo	2023-12-03T00:00:00	2024-11-08T14:00:00	6	Velocidad del viento	3.2
81566	7	Sololá	704	Santa Lucía Utatlán 	7	Santa Rita 	3	Marzo	2023-12-03T00:00:00	2024-11-08T14:00:00	7	Dirección del viento	3.22
81567	7	Sololá	704	Santa Lucía Utatlán 	7	Santa Rita 	3	Marzo	2023-12-03T00:00:00	2024-11-08T14:00:00	1	Precipitación	0
81568	7	Sololá	704	Santa Lucía Utatlán 	7	Santa Rita 	3	Marzo	2023-12-03T00:00:00	2024-11-08T14:00:00	8	Radiación solar	83
81569	7	Sololá	704	Santa Lucía Utatlán 	7	Santa Rita 	3	Marzo	2023-12-03T00:00:00	2024-11-08T15:00:00	2	Temperatura media	19
81570	7	Sololá	704	Santa Lucía Utatlán 	7	Santa Rita 	3	Marzo	2023-12-03T00:00:00	2024-11-08T15:00:00	4	Temperatura máxima	19.1
81571	7	Sololá	704	Santa Lucía Utatlán 	7	Santa Rita 	3	Marzo	2023-12-03T00:00:00	2024-11-08T15:00:00	3	Temperatura mínima	18.5
81572	7	Sololá	704	Santa Lucía Utatlán 	7	Santa Rita 	3	Marzo	2023-12-03T00:00:00	2024-11-08T15:00:00	5	Humedad	86
81573	7	Sololá	704	Santa Lucía Utatlán 	7	Santa Rita 	3	Marzo	2023-12-03T00:00:00	2024-11-08T15:00:00	6	Velocidad del viento	1.6
81574	7	Sololá	704	Santa Lucía Utatlán 	7	Santa Rita 	3	Marzo	2023-12-03T00:00:00	2024-11-08T15:00:00	7	Dirección del viento	1.61
81575	7	Sololá	704	Santa Lucía Utatlán 	7	Santa Rita 	3	Marzo	2023-12-03T00:00:00	2024-11-08T15:00:00	1	Precipitación	0
81576	7	Sololá	704	Santa Lucía Utatlán 	7	Santa Rita 	3	Marzo	2023-12-03T00:00:00	2024-11-08T15:00:00	8	Radiación solar	105
81577	7	Sololá	704	Santa Lucía Utatlán 	7	Santa Rita 	3	Marzo	2023-12-03T00:00:00	2024-11-08T16:00:00	2	Temperatura media	18.4
81578	7	Sololá	704	Santa Lucía Utatlán 	7	Santa Rita 	3	Marzo	2023-12-03T00:00:00	2024-11-08T16:00:00	4	Temperatura máxima	19.4
81579	7	Sololá	704	Santa Lucía Utatlán 	7	Santa Rita 	3	Marzo	2023-12-03T00:00:00	2024-11-08T16:00:00	3	Temperatura mínima	18.4
81580	7	Sololá	704	Santa Lucía Utatlán 	7	Santa Rita 	3	Marzo	2023-12-03T00:00:00	2024-11-08T16:00:00	5	Humedad	91
81581	7	Sololá	704	Santa Lucía Utatlán 	7	Santa Rita 	3	Marzo	2023-12-03T00:00:00	2024-11-08T16:00:00	6	Velocidad del viento	3.2
81582	7	Sololá	704	Santa Lucía Utatlán 	7	Santa Rita 	3	Marzo	2023-12-03T00:00:00	2024-11-08T16:00:00	7	Dirección del viento	3.22
81583	7	Sololá	704	Santa Lucía Utatlán 	7	Santa Rita 	3	Marzo	2023-12-03T00:00:00	2024-11-08T16:00:00	1	Precipitación	0
81584	7	Sololá	704	Santa Lucía Utatlán 	7	Santa Rita 	3	Marzo	2023-12-03T00:00:00	2024-11-08T16:00:00	8	Radiación solar	48
81585	7	Sololá	704	Santa Lucía Utatlán 	7	Santa Rita 	3	Marzo	2023-12-03T00:00:00	2024-11-08T17:00:00	2	Temperatura media	18.3
81586	7	Sololá	704	Santa Lucía Utatlán 	7	Santa Rita 	3	Marzo	2023-12-03T00:00:00	2024-11-08T17:00:00	4	Temperatura máxima	18.6
81587	7	Sololá	704	Santa Lucía Utatlán 	7	Santa Rita 	3	Marzo	2023-12-03T00:00:00	2024-11-08T17:00:00	3	Temperatura mínima	18.3
81588	7	Sololá	704	Santa Lucía Utatlán 	7	Santa Rita 	3	Marzo	2023-12-03T00:00:00	2024-11-08T17:00:00	5	Humedad	92
81589	7	Sololá	704	Santa Lucía Utatlán 	7	Santa Rita 	3	Marzo	2023-12-03T00:00:00	2024-11-08T17:00:00	6	Velocidad del viento	1.6
81590	7	Sololá	704	Santa Lucía Utatlán 	7	Santa Rita 	3	Marzo	2023-12-03T00:00:00	2024-11-08T17:00:00	7	Dirección del viento	1.61
81591	7	Sololá	704	Santa Lucía Utatlán 	7	Santa Rita 	3	Marzo	2023-12-03T00:00:00	2024-11-08T17:00:00	1	Precipitación	0
81592	7	Sololá	704	Santa Lucía Utatlán 	7	Santa Rita 	3	Marzo	2023-12-03T00:00:00	2024-11-08T17:00:00	8	Radiación solar	16
81593	7	Sololá	704	Santa Lucía Utatlán 	7	Santa Rita 	3	Marzo	2023-12-03T00:00:00	2024-11-08T18:00:00	2	Temperatura media	18.1
81594	7	Sololá	704	Santa Lucía Utatlán 	7	Santa Rita 	3	Marzo	2023-12-03T00:00:00	2024-11-08T18:00:00	4	Temperatura máxima	18.4
81595	7	Sololá	704	Santa Lucía Utatlán 	7	Santa Rita 	3	Marzo	2023-12-03T00:00:00	2024-11-08T18:00:00	3	Temperatura mínima	18
81596	7	Sololá	704	Santa Lucía Utatlán 	7	Santa Rita 	3	Marzo	2023-12-03T00:00:00	2024-11-08T18:00:00	5	Humedad	95
81597	7	Sololá	704	Santa Lucía Utatlán 	7	Santa Rita 	3	Marzo	2023-12-03T00:00:00	2024-11-08T18:00:00	6	Velocidad del viento	0
81598	7	Sololá	704	Santa Lucía Utatlán 	7	Santa Rita 	3	Marzo	2023-12-03T00:00:00	2024-11-08T18:00:00	7	Dirección del viento	0
81599	7	Sololá	704	Santa Lucía Utatlán 	7	Santa Rita 	3	Marzo	2023-12-03T00:00:00	2024-11-08T18:00:00	1	Precipitación	0
81600	7	Sololá	704	Santa Lucía Utatlán 	7	Santa Rita 	3	Marzo	2023-12-03T00:00:00	2024-11-08T18:00:00	8	Radiación solar	22
81601	7	Sololá	704	Santa Lucía Utatlán 	7	Santa Rita 	3	Marzo	2023-12-03T00:00:00	2024-11-08T19:00:00	2	Temperatura media	18.7
81602	7	Sololá	704	Santa Lucía Utatlán 	7	Santa Rita 	3	Marzo	2023-12-03T00:00:00	2024-11-08T19:00:00	4	Temperatura máxima	18.7
81603	7	Sololá	704	Santa Lucía Utatlán 	7	Santa Rita 	3	Marzo	2023-12-03T00:00:00	2024-11-08T19:00:00	3	Temperatura mínima	18.1
81604	7	Sololá	704	Santa Lucía Utatlán 	7	Santa Rita 	3	Marzo	2023-12-03T00:00:00	2024-11-08T19:00:00	5	Humedad	92
81605	7	Sololá	704	Santa Lucía Utatlán 	7	Santa Rita 	3	Marzo	2023-12-03T00:00:00	2024-11-08T19:00:00	6	Velocidad del viento	0
81606	7	Sololá	704	Santa Lucía Utatlán 	7	Santa Rita 	3	Marzo	2023-12-03T00:00:00	2024-11-08T19:00:00	7	Dirección del viento	0
81607	7	Sololá	704	Santa Lucía Utatlán 	7	Santa Rita 	3	Marzo	2023-12-03T00:00:00	2024-11-08T19:00:00	1	Precipitación	0
81608	7	Sololá	704	Santa Lucía Utatlán 	7	Santa Rita 	3	Marzo	2023-12-03T00:00:00	2024-11-08T19:00:00	8	Radiación solar	0
81609	7	Sololá	704	Santa Lucía Utatlán 	7	Santa Rita 	3	Marzo	2023-12-03T00:00:00	2024-11-08T20:00:00	2	Temperatura media	18.1
81610	7	Sololá	704	Santa Lucía Utatlán 	7	Santa Rita 	3	Marzo	2023-12-03T00:00:00	2024-11-08T20:00:00	4	Temperatura máxima	18.7
81611	7	Sololá	704	Santa Lucía Utatlán 	7	Santa Rita 	3	Marzo	2023-12-03T00:00:00	2024-11-08T20:00:00	3	Temperatura mínima	18.1
81612	7	Sololá	704	Santa Lucía Utatlán 	7	Santa Rita 	3	Marzo	2023-12-03T00:00:00	2024-11-08T20:00:00	5	Humedad	93
81613	7	Sololá	704	Santa Lucía Utatlán 	7	Santa Rita 	3	Marzo	2023-12-03T00:00:00	2024-11-08T20:00:00	6	Velocidad del viento	0
81614	7	Sololá	704	Santa Lucía Utatlán 	7	Santa Rita 	3	Marzo	2023-12-03T00:00:00	2024-11-08T20:00:00	7	Dirección del viento	0
81615	7	Sololá	704	Santa Lucía Utatlán 	7	Santa Rita 	3	Marzo	2023-12-03T00:00:00	2024-11-08T20:00:00	1	Precipitación	0
81616	7	Sololá	704	Santa Lucía Utatlán 	7	Santa Rita 	3	Marzo	2023-12-03T00:00:00	2024-11-08T20:00:00	8	Radiación solar	0
81617	7	Sololá	704	Santa Lucía Utatlán 	7	Santa Rita 	3	Marzo	2023-12-03T00:00:00	2024-11-08T21:00:00	2	Temperatura media	17.8
81618	7	Sololá	704	Santa Lucía Utatlán 	7	Santa Rita 	3	Marzo	2023-12-03T00:00:00	2024-11-08T21:00:00	4	Temperatura máxima	18.1
81619	7	Sololá	704	Santa Lucía Utatlán 	7	Santa Rita 	3	Marzo	2023-12-03T00:00:00	2024-11-08T21:00:00	3	Temperatura mínima	17.8
81620	7	Sololá	704	Santa Lucía Utatlán 	7	Santa Rita 	3	Marzo	2023-12-03T00:00:00	2024-11-08T21:00:00	5	Humedad	92
81621	7	Sololá	704	Santa Lucía Utatlán 	7	Santa Rita 	3	Marzo	2023-12-03T00:00:00	2024-11-08T21:00:00	6	Velocidad del viento	0
81622	7	Sololá	704	Santa Lucía Utatlán 	7	Santa Rita 	3	Marzo	2023-12-03T00:00:00	2024-11-08T21:00:00	7	Dirección del viento	0
81623	7	Sololá	704	Santa Lucía Utatlán 	7	Santa Rita 	3	Marzo	2023-12-03T00:00:00	2024-11-08T21:00:00	1	Precipitación	0
81624	7	Sololá	704	Santa Lucía Utatlán 	7	Santa Rita 	3	Marzo	2023-12-03T00:00:00	2024-11-08T21:00:00	8	Radiación solar	0
81625	7	Sololá	704	Santa Lucía Utatlán 	7	Santa Rita 	3	Marzo	2023-12-03T00:00:00	2024-11-08T22:00:00	2	Temperatura media	18.3
81626	7	Sololá	704	Santa Lucía Utatlán 	7	Santa Rita 	3	Marzo	2023-12-03T00:00:00	2024-11-08T22:00:00	4	Temperatura máxima	18.3
81627	7	Sololá	704	Santa Lucía Utatlán 	7	Santa Rita 	3	Marzo	2023-12-03T00:00:00	2024-11-08T22:00:00	3	Temperatura mínima	17.7
81628	7	Sololá	704	Santa Lucía Utatlán 	7	Santa Rita 	3	Marzo	2023-12-03T00:00:00	2024-11-08T22:00:00	5	Humedad	92
81629	7	Sololá	704	Santa Lucía Utatlán 	7	Santa Rita 	3	Marzo	2023-12-03T00:00:00	2024-11-08T22:00:00	6	Velocidad del viento	0
81630	7	Sololá	704	Santa Lucía Utatlán 	7	Santa Rita 	3	Marzo	2023-12-03T00:00:00	2024-11-08T22:00:00	7	Dirección del viento	0
81631	7	Sololá	704	Santa Lucía Utatlán 	7	Santa Rita 	3	Marzo	2023-12-03T00:00:00	2024-11-08T22:00:00	1	Precipitación	0
81632	7	Sololá	704	Santa Lucía Utatlán 	7	Santa Rita 	3	Marzo	2023-12-03T00:00:00	2024-11-08T22:00:00	8	Radiación solar	0
81633	7	Sololá	704	Santa Lucía Utatlán 	7	Santa Rita 	3	Marzo	2023-12-03T00:00:00	2024-11-08T23:00:00	2	Temperatura media	17.1
81634	7	Sololá	704	Santa Lucía Utatlán 	7	Santa Rita 	3	Marzo	2023-12-03T00:00:00	2024-11-08T23:00:00	4	Temperatura máxima	18.4
81635	7	Sololá	704	Santa Lucía Utatlán 	7	Santa Rita 	3	Marzo	2023-12-03T00:00:00	2024-11-08T23:00:00	3	Temperatura mínima	17.1
81636	7	Sololá	704	Santa Lucía Utatlán 	7	Santa Rita 	3	Marzo	2023-12-03T00:00:00	2024-11-08T23:00:00	5	Humedad	90
81637	7	Sololá	704	Santa Lucía Utatlán 	7	Santa Rita 	3	Marzo	2023-12-03T00:00:00	2024-11-08T23:00:00	6	Velocidad del viento	1.6
81638	7	Sololá	704	Santa Lucía Utatlán 	7	Santa Rita 	3	Marzo	2023-12-03T00:00:00	2024-11-08T23:00:00	7	Dirección del viento	1.61
81639	7	Sololá	704	Santa Lucía Utatlán 	7	Santa Rita 	3	Marzo	2023-12-03T00:00:00	2024-11-08T23:00:00	1	Precipitación	0
81640	7	Sololá	704	Santa Lucía Utatlán 	7	Santa Rita 	3	Marzo	2023-12-03T00:00:00	2024-11-08T23:00:00	8	Radiación solar	0
81641	7	Sololá	704	Santa Lucía Utatlán 	7	Santa Rita 	3	Marzo	2023-03-13T00:00:00	2024-11-08T00:00:00	2	Temperatura media	16.8
81642	7	Sololá	704	Santa Lucía Utatlán 	7	Santa Rita 	3	Marzo	2023-03-13T00:00:00	2024-11-08T00:00:00	4	Temperatura máxima	17.1
81643	7	Sololá	704	Santa Lucía Utatlán 	7	Santa Rita 	3	Marzo	2023-03-13T00:00:00	2024-11-08T00:00:00	3	Temperatura mínima	16.6
81644	7	Sololá	704	Santa Lucía Utatlán 	7	Santa Rita 	3	Marzo	2023-03-13T00:00:00	2024-11-08T00:00:00	5	Humedad	94
81645	7	Sololá	704	Santa Lucía Utatlán 	7	Santa Rita 	3	Marzo	2023-03-13T00:00:00	2024-11-08T00:00:00	6	Velocidad del viento	0
81646	7	Sololá	704	Santa Lucía Utatlán 	7	Santa Rita 	3	Marzo	2023-03-13T00:00:00	2024-11-08T00:00:00	7	Dirección del viento	0
81647	7	Sololá	704	Santa Lucía Utatlán 	7	Santa Rita 	3	Marzo	2023-03-13T00:00:00	2024-11-08T00:00:00	1	Precipitación	0
81648	7	Sololá	704	Santa Lucía Utatlán 	7	Santa Rita 	3	Marzo	2023-03-13T00:00:00	2024-11-08T00:00:00	8	Radiación solar	0
81649	7	Sololá	704	Santa Lucía Utatlán 	7	Santa Rita 	3	Marzo	2023-03-13T00:00:00	2024-11-08T01:00:00	2	Temperatura media	17.1
81650	7	Sololá	704	Santa Lucía Utatlán 	7	Santa Rita 	3	Marzo	2023-03-13T00:00:00	2024-11-08T01:00:00	4	Temperatura máxima	17.2
81651	7	Sololá	704	Santa Lucía Utatlán 	7	Santa Rita 	3	Marzo	2023-03-13T00:00:00	2024-11-08T01:00:00	3	Temperatura mínima	16.8
81652	7	Sololá	704	Santa Lucía Utatlán 	7	Santa Rita 	3	Marzo	2023-03-13T00:00:00	2024-11-08T01:00:00	5	Humedad	93
81653	7	Sololá	704	Santa Lucía Utatlán 	7	Santa Rita 	3	Marzo	2023-03-13T00:00:00	2024-11-08T01:00:00	6	Velocidad del viento	0
81654	7	Sololá	704	Santa Lucía Utatlán 	7	Santa Rita 	3	Marzo	2023-03-13T00:00:00	2024-11-08T01:00:00	7	Dirección del viento	0
81655	7	Sololá	704	Santa Lucía Utatlán 	7	Santa Rita 	3	Marzo	2023-03-13T00:00:00	2024-11-08T01:00:00	1	Precipitación	0
81656	7	Sololá	704	Santa Lucía Utatlán 	7	Santa Rita 	3	Marzo	2023-03-13T00:00:00	2024-11-08T01:00:00	8	Radiación solar	0
81657	7	Sololá	704	Santa Lucía Utatlán 	7	Santa Rita 	3	Marzo	2023-03-13T00:00:00	2024-11-08T02:00:00	2	Temperatura media	16.4
81658	7	Sololá	704	Santa Lucía Utatlán 	7	Santa Rita 	3	Marzo	2023-03-13T00:00:00	2024-11-08T02:00:00	4	Temperatura máxima	17.3
81659	7	Sololá	704	Santa Lucía Utatlán 	7	Santa Rita 	3	Marzo	2023-03-13T00:00:00	2024-11-08T02:00:00	3	Temperatura mínima	16.4
81660	7	Sololá	704	Santa Lucía Utatlán 	7	Santa Rita 	3	Marzo	2023-03-13T00:00:00	2024-11-08T02:00:00	5	Humedad	90
81661	7	Sololá	704	Santa Lucía Utatlán 	7	Santa Rita 	3	Marzo	2023-03-13T00:00:00	2024-11-08T02:00:00	6	Velocidad del viento	1.6
81662	7	Sololá	704	Santa Lucía Utatlán 	7	Santa Rita 	3	Marzo	2023-03-13T00:00:00	2024-11-08T02:00:00	7	Dirección del viento	1.61
81663	7	Sololá	704	Santa Lucía Utatlán 	7	Santa Rita 	3	Marzo	2023-03-13T00:00:00	2024-11-08T02:00:00	1	Precipitación	0
81664	7	Sololá	704	Santa Lucía Utatlán 	7	Santa Rita 	3	Marzo	2023-03-13T00:00:00	2024-11-08T02:00:00	8	Radiación solar	0
81665	7	Sololá	704	Santa Lucía Utatlán 	7	Santa Rita 	3	Marzo	2023-03-13T00:00:00	2024-11-08T03:00:00	2	Temperatura media	15.8
81666	7	Sololá	704	Santa Lucía Utatlán 	7	Santa Rita 	3	Marzo	2023-03-13T00:00:00	2024-11-08T03:00:00	4	Temperatura máxima	16.4
81667	7	Sololá	704	Santa Lucía Utatlán 	7	Santa Rita 	3	Marzo	2023-03-13T00:00:00	2024-11-08T03:00:00	3	Temperatura mínima	15.5
81668	7	Sololá	704	Santa Lucía Utatlán 	7	Santa Rita 	3	Marzo	2023-03-13T00:00:00	2024-11-08T03:00:00	5	Humedad	96
81669	7	Sololá	704	Santa Lucía Utatlán 	7	Santa Rita 	3	Marzo	2023-03-13T00:00:00	2024-11-08T03:00:00	6	Velocidad del viento	1.6
81670	7	Sololá	704	Santa Lucía Utatlán 	7	Santa Rita 	3	Marzo	2023-03-13T00:00:00	2024-11-08T03:00:00	7	Dirección del viento	1.61
81671	7	Sololá	704	Santa Lucía Utatlán 	7	Santa Rita 	3	Marzo	2023-03-13T00:00:00	2024-11-08T03:00:00	1	Precipitación	0
81672	7	Sololá	704	Santa Lucía Utatlán 	7	Santa Rita 	3	Marzo	2023-03-13T00:00:00	2024-11-08T03:00:00	8	Radiación solar	0
81673	7	Sololá	704	Santa Lucía Utatlán 	7	Santa Rita 	3	Marzo	2023-03-13T00:00:00	2024-11-08T04:00:00	2	Temperatura media	14.6
81674	7	Sololá	704	Santa Lucía Utatlán 	7	Santa Rita 	3	Marzo	2023-03-13T00:00:00	2024-11-08T04:00:00	4	Temperatura máxima	16
81675	7	Sololá	704	Santa Lucía Utatlán 	7	Santa Rita 	3	Marzo	2023-03-13T00:00:00	2024-11-08T04:00:00	3	Temperatura mínima	14.6
81676	7	Sololá	704	Santa Lucía Utatlán 	7	Santa Rita 	3	Marzo	2023-03-13T00:00:00	2024-11-08T04:00:00	5	Humedad	94
81677	7	Sololá	704	Santa Lucía Utatlán 	7	Santa Rita 	3	Marzo	2023-03-13T00:00:00	2024-11-08T04:00:00	6	Velocidad del viento	0
81678	7	Sololá	704	Santa Lucía Utatlán 	7	Santa Rita 	3	Marzo	2023-03-13T00:00:00	2024-11-08T04:00:00	7	Dirección del viento	0
81679	7	Sololá	704	Santa Lucía Utatlán 	7	Santa Rita 	3	Marzo	2023-03-13T00:00:00	2024-11-08T04:00:00	1	Precipitación	0
81680	7	Sololá	704	Santa Lucía Utatlán 	7	Santa Rita 	3	Marzo	2023-03-13T00:00:00	2024-11-08T04:00:00	8	Radiación solar	0
81681	7	Sololá	704	Santa Lucía Utatlán 	7	Santa Rita 	3	Marzo	2023-03-13T00:00:00	2024-11-08T05:00:00	2	Temperatura media	14.4
81682	7	Sololá	704	Santa Lucía Utatlán 	7	Santa Rita 	3	Marzo	2023-03-13T00:00:00	2024-11-08T05:00:00	4	Temperatura máxima	14.6
81683	7	Sololá	704	Santa Lucía Utatlán 	7	Santa Rita 	3	Marzo	2023-03-13T00:00:00	2024-11-08T05:00:00	3	Temperatura mínima	14.2
81684	7	Sololá	704	Santa Lucía Utatlán 	7	Santa Rita 	3	Marzo	2023-03-13T00:00:00	2024-11-08T05:00:00	5	Humedad	95
81685	7	Sololá	704	Santa Lucía Utatlán 	7	Santa Rita 	3	Marzo	2023-03-13T00:00:00	2024-11-08T05:00:00	6	Velocidad del viento	0
81686	7	Sololá	704	Santa Lucía Utatlán 	7	Santa Rita 	3	Marzo	2023-03-13T00:00:00	2024-11-08T05:00:00	7	Dirección del viento	0
81687	7	Sololá	704	Santa Lucía Utatlán 	7	Santa Rita 	3	Marzo	2023-03-13T00:00:00	2024-11-08T05:00:00	1	Precipitación	0
81688	7	Sololá	704	Santa Lucía Utatlán 	7	Santa Rita 	3	Marzo	2023-03-13T00:00:00	2024-11-08T05:00:00	8	Radiación solar	0
81689	7	Sololá	704	Santa Lucía Utatlán 	7	Santa Rita 	3	Marzo	2023-03-13T00:00:00	2024-11-08T06:00:00	2	Temperatura media	15.1
81690	7	Sololá	704	Santa Lucía Utatlán 	7	Santa Rita 	3	Marzo	2023-03-13T00:00:00	2024-11-08T06:00:00	4	Temperatura máxima	15.1
81691	7	Sololá	704	Santa Lucía Utatlán 	7	Santa Rita 	3	Marzo	2023-03-13T00:00:00	2024-11-08T06:00:00	3	Temperatura mínima	14.4
81692	7	Sololá	704	Santa Lucía Utatlán 	7	Santa Rita 	3	Marzo	2023-03-13T00:00:00	2024-11-08T06:00:00	5	Humedad	93
81693	7	Sololá	704	Santa Lucía Utatlán 	7	Santa Rita 	3	Marzo	2023-03-13T00:00:00	2024-11-08T06:00:00	6	Velocidad del viento	1.6
81694	7	Sololá	704	Santa Lucía Utatlán 	7	Santa Rita 	3	Marzo	2023-03-13T00:00:00	2024-11-08T06:00:00	7	Dirección del viento	1.61
81695	7	Sololá	704	Santa Lucía Utatlán 	7	Santa Rita 	3	Marzo	2023-03-13T00:00:00	2024-11-08T06:00:00	1	Precipitación	0
81696	7	Sololá	704	Santa Lucía Utatlán 	7	Santa Rita 	3	Marzo	2023-03-13T00:00:00	2024-11-08T06:00:00	8	Radiación solar	0
81697	7	Sololá	704	Santa Lucía Utatlán 	7	Santa Rita 	3	Marzo	2023-03-13T00:00:00	2024-11-08T07:00:00	2	Temperatura media	14.9
81698	7	Sololá	704	Santa Lucía Utatlán 	7	Santa Rita 	3	Marzo	2023-03-13T00:00:00	2024-11-08T07:00:00	4	Temperatura máxima	15.2
81699	7	Sololá	704	Santa Lucía Utatlán 	7	Santa Rita 	3	Marzo	2023-03-13T00:00:00	2024-11-08T07:00:00	3	Temperatura mínima	14.8
81700	7	Sololá	704	Santa Lucía Utatlán 	7	Santa Rita 	3	Marzo	2023-03-13T00:00:00	2024-11-08T07:00:00	5	Humedad	91
81701	7	Sololá	704	Santa Lucía Utatlán 	7	Santa Rita 	3	Marzo	2023-03-13T00:00:00	2024-11-08T07:00:00	6	Velocidad del viento	1.6
81702	7	Sololá	704	Santa Lucía Utatlán 	7	Santa Rita 	3	Marzo	2023-03-13T00:00:00	2024-11-08T07:00:00	7	Dirección del viento	1.61
81703	7	Sololá	704	Santa Lucía Utatlán 	7	Santa Rita 	3	Marzo	2023-03-13T00:00:00	2024-11-08T07:00:00	1	Precipitación	0
81704	7	Sololá	704	Santa Lucía Utatlán 	7	Santa Rita 	3	Marzo	2023-03-13T00:00:00	2024-11-08T07:00:00	8	Radiación solar	22
81705	7	Sololá	704	Santa Lucía Utatlán 	7	Santa Rita 	3	Marzo	2023-03-13T00:00:00	2024-11-08T08:00:00	2	Temperatura media	15.6
81706	7	Sololá	704	Santa Lucía Utatlán 	7	Santa Rita 	3	Marzo	2023-03-13T00:00:00	2024-11-08T08:00:00	4	Temperatura máxima	15.6
81707	7	Sololá	704	Santa Lucía Utatlán 	7	Santa Rita 	3	Marzo	2023-03-13T00:00:00	2024-11-08T08:00:00	3	Temperatura mínima	14.7
81708	7	Sololá	704	Santa Lucía Utatlán 	7	Santa Rita 	3	Marzo	2023-03-13T00:00:00	2024-11-08T08:00:00	5	Humedad	92
81709	7	Sololá	704	Santa Lucía Utatlán 	7	Santa Rita 	3	Marzo	2023-03-13T00:00:00	2024-11-08T08:00:00	6	Velocidad del viento	1.6
81710	7	Sololá	704	Santa Lucía Utatlán 	7	Santa Rita 	3	Marzo	2023-03-13T00:00:00	2024-11-08T08:00:00	7	Dirección del viento	1.61
81711	7	Sololá	704	Santa Lucía Utatlán 	7	Santa Rita 	3	Marzo	2023-03-13T00:00:00	2024-11-08T08:00:00	1	Precipitación	0
81712	7	Sololá	704	Santa Lucía Utatlán 	7	Santa Rita 	3	Marzo	2023-03-13T00:00:00	2024-11-08T08:00:00	8	Radiación solar	277
81713	7	Sololá	704	Santa Lucía Utatlán 	7	Santa Rita 	3	Marzo	2023-03-13T00:00:00	2024-11-08T09:00:00	2	Temperatura media	19.3
81714	7	Sololá	704	Santa Lucía Utatlán 	7	Santa Rita 	3	Marzo	2023-03-13T00:00:00	2024-11-08T09:00:00	4	Temperatura máxima	19.3
81715	7	Sololá	704	Santa Lucía Utatlán 	7	Santa Rita 	3	Marzo	2023-03-13T00:00:00	2024-11-08T09:00:00	3	Temperatura mínima	15.7
81716	7	Sololá	704	Santa Lucía Utatlán 	7	Santa Rita 	3	Marzo	2023-03-13T00:00:00	2024-11-08T09:00:00	5	Humedad	78
81717	7	Sololá	704	Santa Lucía Utatlán 	7	Santa Rita 	3	Marzo	2023-03-13T00:00:00	2024-11-08T09:00:00	6	Velocidad del viento	0
81718	7	Sololá	704	Santa Lucía Utatlán 	7	Santa Rita 	3	Marzo	2023-03-13T00:00:00	2024-11-08T09:00:00	7	Dirección del viento	0
81719	7	Sololá	704	Santa Lucía Utatlán 	7	Santa Rita 	3	Marzo	2023-03-13T00:00:00	2024-11-08T09:00:00	1	Precipitación	0
81720	7	Sololá	704	Santa Lucía Utatlán 	7	Santa Rita 	3	Marzo	2023-03-13T00:00:00	2024-11-08T09:00:00	8	Radiación solar	530
81721	7	Sololá	704	Santa Lucía Utatlán 	7	Santa Rita 	3	Marzo	2023-03-13T00:00:00	2024-11-08T10:00:00	2	Temperatura media	21.9
81722	7	Sololá	704	Santa Lucía Utatlán 	7	Santa Rita 	3	Marzo	2023-03-13T00:00:00	2024-11-08T10:00:00	4	Temperatura máxima	21.9
81723	7	Sololá	704	Santa Lucía Utatlán 	7	Santa Rita 	3	Marzo	2023-03-13T00:00:00	2024-11-08T10:00:00	3	Temperatura mínima	19.3
81724	7	Sololá	704	Santa Lucía Utatlán 	7	Santa Rita 	3	Marzo	2023-03-13T00:00:00	2024-11-08T10:00:00	5	Humedad	70
81725	7	Sololá	704	Santa Lucía Utatlán 	7	Santa Rita 	3	Marzo	2023-03-13T00:00:00	2024-11-08T10:00:00	6	Velocidad del viento	3.2
81726	7	Sololá	704	Santa Lucía Utatlán 	7	Santa Rita 	3	Marzo	2023-03-13T00:00:00	2024-11-08T10:00:00	7	Dirección del viento	3.22
81727	7	Sololá	704	Santa Lucía Utatlán 	7	Santa Rita 	3	Marzo	2023-03-13T00:00:00	2024-11-08T10:00:00	1	Precipitación	0
81728	7	Sololá	704	Santa Lucía Utatlán 	7	Santa Rita 	3	Marzo	2023-03-13T00:00:00	2024-11-08T10:00:00	8	Radiación solar	765
81729	7	Sololá	704	Santa Lucía Utatlán 	7	Santa Rita 	3	Marzo	2023-03-13T00:00:00	2024-11-08T11:00:00	2	Temperatura media	23.2
81730	7	Sololá	704	Santa Lucía Utatlán 	7	Santa Rita 	3	Marzo	2023-03-13T00:00:00	2024-11-08T11:00:00	4	Temperatura máxima	23.2
81731	7	Sololá	704	Santa Lucía Utatlán 	7	Santa Rita 	3	Marzo	2023-03-13T00:00:00	2024-11-08T11:00:00	3	Temperatura mínima	21.9
81732	7	Sololá	704	Santa Lucía Utatlán 	7	Santa Rita 	3	Marzo	2023-03-13T00:00:00	2024-11-08T11:00:00	5	Humedad	71
81733	7	Sololá	704	Santa Lucía Utatlán 	7	Santa Rita 	3	Marzo	2023-03-13T00:00:00	2024-11-08T11:00:00	6	Velocidad del viento	6.4
81734	7	Sololá	704	Santa Lucía Utatlán 	7	Santa Rita 	3	Marzo	2023-03-13T00:00:00	2024-11-08T11:00:00	7	Dirección del viento	6.44
81735	7	Sololá	704	Santa Lucía Utatlán 	7	Santa Rita 	3	Marzo	2023-03-13T00:00:00	2024-11-08T11:00:00	1	Precipitación	0
81736	7	Sololá	704	Santa Lucía Utatlán 	7	Santa Rita 	3	Marzo	2023-03-13T00:00:00	2024-11-08T11:00:00	8	Radiación solar	965
81737	7	Sololá	704	Santa Lucía Utatlán 	7	Santa Rita 	3	Marzo	2023-03-13T00:00:00	2024-11-08T12:00:00	2	Temperatura media	23.9
81738	7	Sololá	704	Santa Lucía Utatlán 	7	Santa Rita 	3	Marzo	2023-03-13T00:00:00	2024-11-08T12:00:00	4	Temperatura máxima	24.6
81739	7	Sololá	704	Santa Lucía Utatlán 	7	Santa Rita 	3	Marzo	2023-03-13T00:00:00	2024-11-08T12:00:00	3	Temperatura mínima	23.1
81740	7	Sololá	704	Santa Lucía Utatlán 	7	Santa Rita 	3	Marzo	2023-03-13T00:00:00	2024-11-08T12:00:00	5	Humedad	66
81741	7	Sololá	704	Santa Lucía Utatlán 	7	Santa Rita 	3	Marzo	2023-03-13T00:00:00	2024-11-08T12:00:00	6	Velocidad del viento	8
81742	7	Sololá	704	Santa Lucía Utatlán 	7	Santa Rita 	3	Marzo	2023-03-13T00:00:00	2024-11-08T12:00:00	7	Dirección del viento	8.05
81743	7	Sololá	704	Santa Lucía Utatlán 	7	Santa Rita 	3	Marzo	2023-03-13T00:00:00	2024-11-08T12:00:00	1	Precipitación	0
81744	7	Sololá	704	Santa Lucía Utatlán 	7	Santa Rita 	3	Marzo	2023-03-13T00:00:00	2024-11-08T12:00:00	8	Radiación solar	376
81745	7	Sololá	704	Santa Lucía Utatlán 	7	Santa Rita 	3	Marzo	2023-03-13T00:00:00	2024-11-08T13:00:00	2	Temperatura media	23.5
81746	7	Sololá	704	Santa Lucía Utatlán 	7	Santa Rita 	3	Marzo	2023-03-13T00:00:00	2024-11-08T13:00:00	4	Temperatura máxima	24.1
81747	7	Sololá	704	Santa Lucía Utatlán 	7	Santa Rita 	3	Marzo	2023-03-13T00:00:00	2024-11-08T13:00:00	3	Temperatura mínima	22.5
81748	7	Sololá	704	Santa Lucía Utatlán 	7	Santa Rita 	3	Marzo	2023-03-13T00:00:00	2024-11-08T13:00:00	5	Humedad	66
81749	7	Sololá	704	Santa Lucía Utatlán 	7	Santa Rita 	3	Marzo	2023-03-13T00:00:00	2024-11-08T13:00:00	6	Velocidad del viento	8
81750	7	Sololá	704	Santa Lucía Utatlán 	7	Santa Rita 	3	Marzo	2023-03-13T00:00:00	2024-11-08T13:00:00	7	Dirección del viento	8.05
81751	7	Sololá	704	Santa Lucía Utatlán 	7	Santa Rita 	3	Marzo	2023-03-13T00:00:00	2024-11-08T13:00:00	1	Precipitación	0
81752	7	Sololá	704	Santa Lucía Utatlán 	7	Santa Rita 	3	Marzo	2023-03-13T00:00:00	2024-11-08T13:00:00	8	Radiación solar	267
81753	7	Sololá	704	Santa Lucía Utatlán 	7	Santa Rita 	3	Marzo	2023-03-13T00:00:00	2024-11-08T14:00:00	2	Temperatura media	22.4
81754	7	Sololá	704	Santa Lucía Utatlán 	7	Santa Rita 	3	Marzo	2023-03-13T00:00:00	2024-11-08T14:00:00	4	Temperatura máxima	23.7
81755	7	Sololá	704	Santa Lucía Utatlán 	7	Santa Rita 	3	Marzo	2023-03-13T00:00:00	2024-11-08T14:00:00	3	Temperatura mínima	22.4
81756	7	Sololá	704	Santa Lucía Utatlán 	7	Santa Rita 	3	Marzo	2023-03-13T00:00:00	2024-11-08T14:00:00	5	Humedad	76
81757	7	Sololá	704	Santa Lucía Utatlán 	7	Santa Rita 	3	Marzo	2023-03-13T00:00:00	2024-11-08T14:00:00	6	Velocidad del viento	4.8
81758	7	Sololá	704	Santa Lucía Utatlán 	7	Santa Rita 	3	Marzo	2023-03-13T00:00:00	2024-11-08T14:00:00	7	Dirección del viento	4.83
81759	7	Sololá	704	Santa Lucía Utatlán 	7	Santa Rita 	3	Marzo	2023-03-13T00:00:00	2024-11-08T14:00:00	1	Precipitación	0
81760	7	Sololá	704	Santa Lucía Utatlán 	7	Santa Rita 	3	Marzo	2023-03-13T00:00:00	2024-11-08T14:00:00	8	Radiación solar	122
81761	7	Sololá	704	Santa Lucía Utatlán 	7	Santa Rita 	3	Marzo	2023-03-13T00:00:00	2024-11-08T15:00:00	2	Temperatura media	20.9
81762	7	Sololá	704	Santa Lucía Utatlán 	7	Santa Rita 	3	Marzo	2023-03-13T00:00:00	2024-11-08T15:00:00	4	Temperatura máxima	22.4
81763	7	Sololá	704	Santa Lucía Utatlán 	7	Santa Rita 	3	Marzo	2023-03-13T00:00:00	2024-11-08T15:00:00	3	Temperatura mínima	20.9
81764	7	Sololá	704	Santa Lucía Utatlán 	7	Santa Rita 	3	Marzo	2023-03-13T00:00:00	2024-11-08T15:00:00	5	Humedad	81
81765	7	Sololá	704	Santa Lucía Utatlán 	7	Santa Rita 	3	Marzo	2023-03-13T00:00:00	2024-11-08T15:00:00	6	Velocidad del viento	6.4
81766	7	Sololá	704	Santa Lucía Utatlán 	7	Santa Rita 	3	Marzo	2023-03-13T00:00:00	2024-11-08T15:00:00	7	Dirección del viento	6.44
81767	7	Sololá	704	Santa Lucía Utatlán 	7	Santa Rita 	3	Marzo	2023-03-13T00:00:00	2024-11-08T15:00:00	1	Precipitación	0
81768	7	Sololá	704	Santa Lucía Utatlán 	7	Santa Rita 	3	Marzo	2023-03-13T00:00:00	2024-11-08T15:00:00	8	Radiación solar	134
81769	7	Sololá	704	Santa Lucía Utatlán 	7	Santa Rita 	3	Marzo	2023-03-13T00:00:00	2024-11-08T16:00:00	2	Temperatura media	20.7
81770	7	Sololá	704	Santa Lucía Utatlán 	7	Santa Rita 	3	Marzo	2023-03-13T00:00:00	2024-11-08T16:00:00	4	Temperatura máxima	21.2
81771	7	Sololá	704	Santa Lucía Utatlán 	7	Santa Rita 	3	Marzo	2023-03-13T00:00:00	2024-11-08T16:00:00	3	Temperatura mínima	20.7
81772	7	Sololá	704	Santa Lucía Utatlán 	7	Santa Rita 	3	Marzo	2023-03-13T00:00:00	2024-11-08T16:00:00	5	Humedad	81
81773	7	Sololá	704	Santa Lucía Utatlán 	7	Santa Rita 	3	Marzo	2023-03-13T00:00:00	2024-11-08T16:00:00	6	Velocidad del viento	4.8
81774	7	Sololá	704	Santa Lucía Utatlán 	7	Santa Rita 	3	Marzo	2023-03-13T00:00:00	2024-11-08T16:00:00	7	Dirección del viento	4.83
81775	7	Sololá	704	Santa Lucía Utatlán 	7	Santa Rita 	3	Marzo	2023-03-13T00:00:00	2024-11-08T16:00:00	1	Precipitación	0
81776	7	Sololá	704	Santa Lucía Utatlán 	7	Santa Rita 	3	Marzo	2023-03-13T00:00:00	2024-11-08T16:00:00	8	Radiación solar	103
81777	7	Sololá	704	Santa Lucía Utatlán 	7	Santa Rita 	3	Marzo	2023-03-13T00:00:00	2024-11-08T17:00:00	2	Temperatura media	20.7
81778	7	Sololá	704	Santa Lucía Utatlán 	7	Santa Rita 	3	Marzo	2023-03-13T00:00:00	2024-11-08T17:00:00	4	Temperatura máxima	20.8
81779	7	Sololá	704	Santa Lucía Utatlán 	7	Santa Rita 	3	Marzo	2023-03-13T00:00:00	2024-11-08T17:00:00	3	Temperatura mínima	20.3
81780	7	Sololá	704	Santa Lucía Utatlán 	7	Santa Rita 	3	Marzo	2023-03-13T00:00:00	2024-11-08T17:00:00	5	Humedad	83
81781	7	Sololá	704	Santa Lucía Utatlán 	7	Santa Rita 	3	Marzo	2023-03-13T00:00:00	2024-11-08T17:00:00	6	Velocidad del viento	3.2
81782	7	Sololá	704	Santa Lucía Utatlán 	7	Santa Rita 	3	Marzo	2023-03-13T00:00:00	2024-11-08T17:00:00	7	Dirección del viento	3.22
81783	7	Sololá	704	Santa Lucía Utatlán 	7	Santa Rita 	3	Marzo	2023-03-13T00:00:00	2024-11-08T17:00:00	1	Precipitación	0
81784	7	Sololá	704	Santa Lucía Utatlán 	7	Santa Rita 	3	Marzo	2023-03-13T00:00:00	2024-11-08T17:00:00	8	Radiación solar	128
81785	7	Sololá	704	Santa Lucía Utatlán 	7	Santa Rita 	3	Marzo	2023-03-13T00:00:00	2024-11-08T18:00:00	2	Temperatura media	20.3
81786	7	Sololá	704	Santa Lucía Utatlán 	7	Santa Rita 	3	Marzo	2023-03-13T00:00:00	2024-11-08T18:00:00	4	Temperatura máxima	20.7
81787	7	Sololá	704	Santa Lucía Utatlán 	7	Santa Rita 	3	Marzo	2023-03-13T00:00:00	2024-11-08T18:00:00	3	Temperatura mínima	20.3
81788	7	Sololá	704	Santa Lucía Utatlán 	7	Santa Rita 	3	Marzo	2023-03-13T00:00:00	2024-11-08T18:00:00	5	Humedad	86
81789	7	Sololá	704	Santa Lucía Utatlán 	7	Santa Rita 	3	Marzo	2023-03-13T00:00:00	2024-11-08T18:00:00	6	Velocidad del viento	3.2
81790	7	Sololá	704	Santa Lucía Utatlán 	7	Santa Rita 	3	Marzo	2023-03-13T00:00:00	2024-11-08T18:00:00	7	Dirección del viento	3.22
81791	7	Sololá	704	Santa Lucía Utatlán 	7	Santa Rita 	3	Marzo	2023-03-13T00:00:00	2024-11-08T18:00:00	1	Precipitación	0
81792	7	Sololá	704	Santa Lucía Utatlán 	7	Santa Rita 	3	Marzo	2023-03-13T00:00:00	2024-11-08T18:00:00	8	Radiación solar	23
81793	7	Sololá	704	Santa Lucía Utatlán 	7	Santa Rita 	3	Marzo	2023-03-13T00:00:00	2024-11-08T19:00:00	2	Temperatura media	19.4
81794	7	Sololá	704	Santa Lucía Utatlán 	7	Santa Rita 	3	Marzo	2023-03-13T00:00:00	2024-11-08T19:00:00	4	Temperatura máxima	20.3
81795	7	Sololá	704	Santa Lucía Utatlán 	7	Santa Rita 	3	Marzo	2023-03-13T00:00:00	2024-11-08T19:00:00	3	Temperatura mínima	19.4
81796	7	Sololá	704	Santa Lucía Utatlán 	7	Santa Rita 	3	Marzo	2023-03-13T00:00:00	2024-11-08T19:00:00	5	Humedad	90
81797	7	Sololá	704	Santa Lucía Utatlán 	7	Santa Rita 	3	Marzo	2023-03-13T00:00:00	2024-11-08T19:00:00	6	Velocidad del viento	3.2
81798	7	Sololá	704	Santa Lucía Utatlán 	7	Santa Rita 	3	Marzo	2023-03-13T00:00:00	2024-11-08T19:00:00	7	Dirección del viento	3.22
81799	7	Sololá	704	Santa Lucía Utatlán 	7	Santa Rita 	3	Marzo	2023-03-13T00:00:00	2024-11-08T19:00:00	1	Precipitación	0
81800	7	Sololá	704	Santa Lucía Utatlán 	7	Santa Rita 	3	Marzo	2023-03-13T00:00:00	2024-11-08T19:00:00	8	Radiación solar	0
81801	7	Sololá	704	Santa Lucía Utatlán 	7	Santa Rita 	3	Marzo	2023-03-13T00:00:00	2024-11-08T20:00:00	2	Temperatura media	19.1
81802	7	Sololá	704	Santa Lucía Utatlán 	7	Santa Rita 	3	Marzo	2023-03-13T00:00:00	2024-11-08T20:00:00	4	Temperatura máxima	19.4
81803	7	Sololá	704	Santa Lucía Utatlán 	7	Santa Rita 	3	Marzo	2023-03-13T00:00:00	2024-11-08T20:00:00	3	Temperatura mínima	19.1
81804	7	Sololá	704	Santa Lucía Utatlán 	7	Santa Rita 	3	Marzo	2023-03-13T00:00:00	2024-11-08T20:00:00	5	Humedad	92
81805	7	Sololá	704	Santa Lucía Utatlán 	7	Santa Rita 	3	Marzo	2023-03-13T00:00:00	2024-11-08T20:00:00	6	Velocidad del viento	0
81806	7	Sololá	704	Santa Lucía Utatlán 	7	Santa Rita 	3	Marzo	2023-03-13T00:00:00	2024-11-08T20:00:00	7	Dirección del viento	0
81807	7	Sololá	704	Santa Lucía Utatlán 	7	Santa Rita 	3	Marzo	2023-03-13T00:00:00	2024-11-08T20:00:00	1	Precipitación	0
81808	7	Sololá	704	Santa Lucía Utatlán 	7	Santa Rita 	3	Marzo	2023-03-13T00:00:00	2024-11-08T20:00:00	8	Radiación solar	0
81809	7	Sololá	704	Santa Lucía Utatlán 	7	Santa Rita 	3	Marzo	2023-03-13T00:00:00	2024-11-08T21:00:00	2	Temperatura media	18.8
81810	7	Sololá	704	Santa Lucía Utatlán 	7	Santa Rita 	3	Marzo	2023-03-13T00:00:00	2024-11-08T21:00:00	4	Temperatura máxima	19.2
81811	7	Sololá	704	Santa Lucía Utatlán 	7	Santa Rita 	3	Marzo	2023-03-13T00:00:00	2024-11-08T21:00:00	3	Temperatura mínima	18.7
81812	7	Sololá	704	Santa Lucía Utatlán 	7	Santa Rita 	3	Marzo	2023-03-13T00:00:00	2024-11-08T21:00:00	5	Humedad	93
81813	7	Sololá	704	Santa Lucía Utatlán 	7	Santa Rita 	3	Marzo	2023-03-13T00:00:00	2024-11-08T21:00:00	6	Velocidad del viento	1.6
81814	7	Sololá	704	Santa Lucía Utatlán 	7	Santa Rita 	3	Marzo	2023-03-13T00:00:00	2024-11-08T21:00:00	7	Dirección del viento	1.61
81815	7	Sololá	704	Santa Lucía Utatlán 	7	Santa Rita 	3	Marzo	2023-03-13T00:00:00	2024-11-08T21:00:00	1	Precipitación	0
81816	7	Sololá	704	Santa Lucía Utatlán 	7	Santa Rita 	3	Marzo	2023-03-13T00:00:00	2024-11-08T21:00:00	8	Radiación solar	0
81817	7	Sololá	704	Santa Lucía Utatlán 	7	Santa Rita 	3	Marzo	2023-03-13T00:00:00	2024-11-08T22:00:00	2	Temperatura media	17.6
81818	7	Sololá	704	Santa Lucía Utatlán 	7	Santa Rita 	3	Marzo	2023-03-13T00:00:00	2024-11-08T22:00:00	4	Temperatura máxima	18.9
81819	7	Sololá	704	Santa Lucía Utatlán 	7	Santa Rita 	3	Marzo	2023-03-13T00:00:00	2024-11-08T22:00:00	3	Temperatura mínima	17.6
81820	7	Sololá	704	Santa Lucía Utatlán 	7	Santa Rita 	3	Marzo	2023-03-13T00:00:00	2024-11-08T22:00:00	5	Humedad	89
81821	7	Sololá	704	Santa Lucía Utatlán 	7	Santa Rita 	3	Marzo	2023-03-13T00:00:00	2024-11-08T22:00:00	6	Velocidad del viento	3.2
81822	7	Sololá	704	Santa Lucía Utatlán 	7	Santa Rita 	3	Marzo	2023-03-13T00:00:00	2024-11-08T22:00:00	7	Dirección del viento	3.22
81823	7	Sololá	704	Santa Lucía Utatlán 	7	Santa Rita 	3	Marzo	2023-03-13T00:00:00	2024-11-08T22:00:00	1	Precipitación	1.4
81824	7	Sololá	704	Santa Lucía Utatlán 	7	Santa Rita 	3	Marzo	2023-03-13T00:00:00	2024-11-08T22:00:00	8	Radiación solar	0
81825	7	Sololá	704	Santa Lucía Utatlán 	7	Santa Rita 	3	Marzo	2023-03-13T00:00:00	2024-11-08T23:00:00	2	Temperatura media	17.1
81826	7	Sololá	704	Santa Lucía Utatlán 	7	Santa Rita 	3	Marzo	2023-03-13T00:00:00	2024-11-08T23:00:00	4	Temperatura máxima	17.6
81827	7	Sololá	704	Santa Lucía Utatlán 	7	Santa Rita 	3	Marzo	2023-03-13T00:00:00	2024-11-08T23:00:00	3	Temperatura mínima	16.6
81828	7	Sololá	704	Santa Lucía Utatlán 	7	Santa Rita 	3	Marzo	2023-03-13T00:00:00	2024-11-08T23:00:00	5	Humedad	94
81829	7	Sololá	704	Santa Lucía Utatlán 	7	Santa Rita 	3	Marzo	2023-03-13T00:00:00	2024-11-08T23:00:00	6	Velocidad del viento	1.6
81830	7	Sololá	704	Santa Lucía Utatlán 	7	Santa Rita 	3	Marzo	2023-03-13T00:00:00	2024-11-08T23:00:00	7	Dirección del viento	1.61
81831	7	Sololá	704	Santa Lucía Utatlán 	7	Santa Rita 	3	Marzo	2023-03-13T00:00:00	2024-11-08T23:00:00	1	Precipitación	0.2
81832	7	Sololá	704	Santa Lucía Utatlán 	7	Santa Rita 	3	Marzo	2023-03-13T00:00:00	2024-11-08T23:00:00	8	Radiación solar	0
81833	7	Sololá	704	Santa Lucía Utatlán 	7	Santa Rita 	3	Marzo	2023-03-14T00:00:00	2024-11-08T00:00:00	2	Temperatura media	16.2
81834	7	Sololá	704	Santa Lucía Utatlán 	7	Santa Rita 	3	Marzo	2023-03-14T00:00:00	2024-11-08T00:00:00	4	Temperatura máxima	17.2
81835	7	Sololá	704	Santa Lucía Utatlán 	7	Santa Rita 	3	Marzo	2023-03-14T00:00:00	2024-11-08T00:00:00	3	Temperatura mínima	16.2
81836	7	Sololá	704	Santa Lucía Utatlán 	7	Santa Rita 	3	Marzo	2023-03-14T00:00:00	2024-11-08T00:00:00	5	Humedad	92
81837	7	Sololá	704	Santa Lucía Utatlán 	7	Santa Rita 	3	Marzo	2023-03-14T00:00:00	2024-11-08T00:00:00	6	Velocidad del viento	1.6
81838	7	Sololá	704	Santa Lucía Utatlán 	7	Santa Rita 	3	Marzo	2023-03-14T00:00:00	2024-11-08T00:00:00	7	Dirección del viento	1.61
81839	7	Sololá	704	Santa Lucía Utatlán 	7	Santa Rita 	3	Marzo	2023-03-14T00:00:00	2024-11-08T00:00:00	1	Precipitación	0
81840	7	Sololá	704	Santa Lucía Utatlán 	7	Santa Rita 	3	Marzo	2023-03-14T00:00:00	2024-11-08T00:00:00	8	Radiación solar	0
81841	7	Sololá	704	Santa Lucía Utatlán 	7	Santa Rita 	3	Marzo	2023-03-14T00:00:00	2024-11-08T01:00:00	2	Temperatura media	15.8
81842	7	Sololá	704	Santa Lucía Utatlán 	7	Santa Rita 	3	Marzo	2023-03-14T00:00:00	2024-11-08T01:00:00	4	Temperatura máxima	16.2
81843	7	Sololá	704	Santa Lucía Utatlán 	7	Santa Rita 	3	Marzo	2023-03-14T00:00:00	2024-11-08T01:00:00	3	Temperatura mínima	15.7
81844	7	Sololá	704	Santa Lucía Utatlán 	7	Santa Rita 	3	Marzo	2023-03-14T00:00:00	2024-11-08T01:00:00	5	Humedad	93
81845	7	Sololá	704	Santa Lucía Utatlán 	7	Santa Rita 	3	Marzo	2023-03-14T00:00:00	2024-11-08T01:00:00	6	Velocidad del viento	1.6
81846	7	Sololá	704	Santa Lucía Utatlán 	7	Santa Rita 	3	Marzo	2023-03-14T00:00:00	2024-11-08T01:00:00	7	Dirección del viento	1.61
81847	7	Sololá	704	Santa Lucía Utatlán 	7	Santa Rita 	3	Marzo	2023-03-14T00:00:00	2024-11-08T01:00:00	1	Precipitación	0
81848	7	Sololá	704	Santa Lucía Utatlán 	7	Santa Rita 	3	Marzo	2023-03-14T00:00:00	2024-11-08T01:00:00	8	Radiación solar	0
81849	7	Sololá	704	Santa Lucía Utatlán 	7	Santa Rita 	3	Marzo	2023-03-14T00:00:00	2024-11-08T02:00:00	2	Temperatura media	15.8
81850	7	Sololá	704	Santa Lucía Utatlán 	7	Santa Rita 	3	Marzo	2023-03-14T00:00:00	2024-11-08T02:00:00	4	Temperatura máxima	16.1
81851	7	Sololá	704	Santa Lucía Utatlán 	7	Santa Rita 	3	Marzo	2023-03-14T00:00:00	2024-11-08T02:00:00	3	Temperatura mínima	15.7
81852	7	Sololá	704	Santa Lucía Utatlán 	7	Santa Rita 	3	Marzo	2023-03-14T00:00:00	2024-11-08T02:00:00	5	Humedad	93
81853	7	Sololá	704	Santa Lucía Utatlán 	7	Santa Rita 	3	Marzo	2023-03-14T00:00:00	2024-11-08T02:00:00	6	Velocidad del viento	1.6
81854	7	Sololá	704	Santa Lucía Utatlán 	7	Santa Rita 	3	Marzo	2023-03-14T00:00:00	2024-11-08T02:00:00	7	Dirección del viento	1.61
81855	7	Sololá	704	Santa Lucía Utatlán 	7	Santa Rita 	3	Marzo	2023-03-14T00:00:00	2024-11-08T02:00:00	1	Precipitación	0
81856	7	Sololá	704	Santa Lucía Utatlán 	7	Santa Rita 	3	Marzo	2023-03-14T00:00:00	2024-11-08T02:00:00	8	Radiación solar	0
81857	7	Sololá	704	Santa Lucía Utatlán 	7	Santa Rita 	3	Marzo	2023-03-14T00:00:00	2024-11-08T03:00:00	2	Temperatura media	16.4
81858	7	Sololá	704	Santa Lucía Utatlán 	7	Santa Rita 	3	Marzo	2023-03-14T00:00:00	2024-11-08T03:00:00	4	Temperatura máxima	16.4
81859	7	Sololá	704	Santa Lucía Utatlán 	7	Santa Rita 	3	Marzo	2023-03-14T00:00:00	2024-11-08T03:00:00	3	Temperatura mínima	15.7
81860	7	Sololá	704	Santa Lucía Utatlán 	7	Santa Rita 	3	Marzo	2023-03-14T00:00:00	2024-11-08T03:00:00	5	Humedad	90
81861	7	Sololá	704	Santa Lucía Utatlán 	7	Santa Rita 	3	Marzo	2023-03-14T00:00:00	2024-11-08T03:00:00	6	Velocidad del viento	1.6
81862	7	Sololá	704	Santa Lucía Utatlán 	7	Santa Rita 	3	Marzo	2023-03-14T00:00:00	2024-11-08T03:00:00	7	Dirección del viento	1.61
81863	7	Sololá	704	Santa Lucía Utatlán 	7	Santa Rita 	3	Marzo	2023-03-14T00:00:00	2024-11-08T03:00:00	1	Precipitación	0
81864	7	Sololá	704	Santa Lucía Utatlán 	7	Santa Rita 	3	Marzo	2023-03-14T00:00:00	2024-11-08T03:00:00	8	Radiación solar	0
81865	7	Sololá	704	Santa Lucía Utatlán 	7	Santa Rita 	3	Marzo	2023-03-14T00:00:00	2024-11-08T04:00:00	2	Temperatura media	17.1
81866	7	Sololá	704	Santa Lucía Utatlán 	7	Santa Rita 	3	Marzo	2023-03-14T00:00:00	2024-11-08T04:00:00	4	Temperatura máxima	17.3
81867	7	Sololá	704	Santa Lucía Utatlán 	7	Santa Rita 	3	Marzo	2023-03-14T00:00:00	2024-11-08T04:00:00	3	Temperatura mínima	16.4
81868	7	Sololá	704	Santa Lucía Utatlán 	7	Santa Rita 	3	Marzo	2023-03-14T00:00:00	2024-11-08T04:00:00	5	Humedad	86
81869	7	Sololá	704	Santa Lucía Utatlán 	7	Santa Rita 	3	Marzo	2023-03-14T00:00:00	2024-11-08T04:00:00	6	Velocidad del viento	1.6
81870	7	Sololá	704	Santa Lucía Utatlán 	7	Santa Rita 	3	Marzo	2023-03-14T00:00:00	2024-11-08T04:00:00	7	Dirección del viento	1.61
81871	7	Sololá	704	Santa Lucía Utatlán 	7	Santa Rita 	3	Marzo	2023-03-14T00:00:00	2024-11-08T04:00:00	1	Precipitación	0
81872	7	Sololá	704	Santa Lucía Utatlán 	7	Santa Rita 	3	Marzo	2023-03-14T00:00:00	2024-11-08T04:00:00	8	Radiación solar	0
81873	7	Sololá	704	Santa Lucía Utatlán 	7	Santa Rita 	3	Marzo	2023-03-14T00:00:00	2024-11-08T05:00:00	2	Temperatura media	16.8
81874	7	Sololá	704	Santa Lucía Utatlán 	7	Santa Rita 	3	Marzo	2023-03-14T00:00:00	2024-11-08T05:00:00	4	Temperatura máxima	17.2
81875	7	Sololá	704	Santa Lucía Utatlán 	7	Santa Rita 	3	Marzo	2023-03-14T00:00:00	2024-11-08T05:00:00	3	Temperatura mínima	16.4
81876	7	Sololá	704	Santa Lucía Utatlán 	7	Santa Rita 	3	Marzo	2023-03-14T00:00:00	2024-11-08T05:00:00	5	Humedad	89
81877	7	Sololá	704	Santa Lucía Utatlán 	7	Santa Rita 	3	Marzo	2023-03-14T00:00:00	2024-11-08T05:00:00	6	Velocidad del viento	1.6
81878	7	Sololá	704	Santa Lucía Utatlán 	7	Santa Rita 	3	Marzo	2023-03-14T00:00:00	2024-11-08T05:00:00	7	Dirección del viento	1.61
81879	7	Sololá	704	Santa Lucía Utatlán 	7	Santa Rita 	3	Marzo	2023-03-14T00:00:00	2024-11-08T05:00:00	1	Precipitación	0
81880	7	Sololá	704	Santa Lucía Utatlán 	7	Santa Rita 	3	Marzo	2023-03-14T00:00:00	2024-11-08T05:00:00	8	Radiación solar	0
81881	7	Sololá	704	Santa Lucía Utatlán 	7	Santa Rita 	3	Marzo	2023-03-14T00:00:00	2024-11-08T06:00:00	2	Temperatura media	16.2
81882	7	Sololá	704	Santa Lucía Utatlán 	7	Santa Rita 	3	Marzo	2023-03-14T00:00:00	2024-11-08T06:00:00	4	Temperatura máxima	16.9
81883	7	Sololá	704	Santa Lucía Utatlán 	7	Santa Rita 	3	Marzo	2023-03-14T00:00:00	2024-11-08T06:00:00	3	Temperatura mínima	15.8
81884	7	Sololá	704	Santa Lucía Utatlán 	7	Santa Rita 	3	Marzo	2023-03-14T00:00:00	2024-11-08T06:00:00	5	Humedad	90
81885	7	Sololá	704	Santa Lucía Utatlán 	7	Santa Rita 	3	Marzo	2023-03-14T00:00:00	2024-11-08T06:00:00	6	Velocidad del viento	1.6
81886	7	Sololá	704	Santa Lucía Utatlán 	7	Santa Rita 	3	Marzo	2023-03-14T00:00:00	2024-11-08T06:00:00	7	Dirección del viento	1.61
81887	7	Sololá	704	Santa Lucía Utatlán 	7	Santa Rita 	3	Marzo	2023-03-14T00:00:00	2024-11-08T06:00:00	1	Precipitación	0
81888	7	Sololá	704	Santa Lucía Utatlán 	7	Santa Rita 	3	Marzo	2023-03-14T00:00:00	2024-11-08T06:00:00	8	Radiación solar	0
81889	7	Sololá	704	Santa Lucía Utatlán 	7	Santa Rita 	3	Marzo	2023-03-14T00:00:00	2024-11-08T07:00:00	2	Temperatura media	15.5
81890	7	Sololá	704	Santa Lucía Utatlán 	7	Santa Rita 	3	Marzo	2023-03-14T00:00:00	2024-11-08T07:00:00	4	Temperatura máxima	16.3
81891	7	Sololá	704	Santa Lucía Utatlán 	7	Santa Rita 	3	Marzo	2023-03-14T00:00:00	2024-11-08T07:00:00	3	Temperatura mínima	15.4
81892	7	Sololá	704	Santa Lucía Utatlán 	7	Santa Rita 	3	Marzo	2023-03-14T00:00:00	2024-11-08T07:00:00	5	Humedad	89
81893	7	Sololá	704	Santa Lucía Utatlán 	7	Santa Rita 	3	Marzo	2023-03-14T00:00:00	2024-11-08T07:00:00	6	Velocidad del viento	1.6
81894	7	Sololá	704	Santa Lucía Utatlán 	7	Santa Rita 	3	Marzo	2023-03-14T00:00:00	2024-11-08T07:00:00	7	Dirección del viento	1.61
81895	7	Sololá	704	Santa Lucía Utatlán 	7	Santa Rita 	3	Marzo	2023-03-14T00:00:00	2024-11-08T07:00:00	1	Precipitación	0
81896	7	Sololá	704	Santa Lucía Utatlán 	7	Santa Rita 	3	Marzo	2023-03-14T00:00:00	2024-11-08T07:00:00	8	Radiación solar	28
81897	7	Sololá	704	Santa Lucía Utatlán 	7	Santa Rita 	3	Marzo	2023-03-14T00:00:00	2024-11-08T08:00:00	2	Temperatura media	16.4
81898	7	Sololá	704	Santa Lucía Utatlán 	7	Santa Rita 	3	Marzo	2023-03-14T00:00:00	2024-11-08T08:00:00	4	Temperatura máxima	16.4
81899	7	Sololá	704	Santa Lucía Utatlán 	7	Santa Rita 	3	Marzo	2023-03-14T00:00:00	2024-11-08T08:00:00	3	Temperatura mínima	15.4
81900	7	Sololá	704	Santa Lucía Utatlán 	7	Santa Rita 	3	Marzo	2023-03-14T00:00:00	2024-11-08T08:00:00	5	Humedad	89
81901	7	Sololá	704	Santa Lucía Utatlán 	7	Santa Rita 	3	Marzo	2023-03-14T00:00:00	2024-11-08T08:00:00	6	Velocidad del viento	1.6
81902	7	Sololá	704	Santa Lucía Utatlán 	7	Santa Rita 	3	Marzo	2023-03-14T00:00:00	2024-11-08T08:00:00	7	Dirección del viento	1.61
81903	7	Sololá	704	Santa Lucía Utatlán 	7	Santa Rita 	3	Marzo	2023-03-14T00:00:00	2024-11-08T08:00:00	1	Precipitación	0
81904	7	Sololá	704	Santa Lucía Utatlán 	7	Santa Rita 	3	Marzo	2023-03-14T00:00:00	2024-11-08T08:00:00	8	Radiación solar	223
81905	7	Sololá	704	Santa Lucía Utatlán 	7	Santa Rita 	3	Marzo	2023-03-14T00:00:00	2024-11-08T09:00:00	2	Temperatura media	20.2
81906	7	Sololá	704	Santa Lucía Utatlán 	7	Santa Rita 	3	Marzo	2023-03-14T00:00:00	2024-11-08T09:00:00	4	Temperatura máxima	20.2
81907	7	Sololá	704	Santa Lucía Utatlán 	7	Santa Rita 	3	Marzo	2023-03-14T00:00:00	2024-11-08T09:00:00	3	Temperatura mínima	16.4
81908	7	Sololá	704	Santa Lucía Utatlán 	7	Santa Rita 	3	Marzo	2023-03-14T00:00:00	2024-11-08T09:00:00	5	Humedad	75
81909	7	Sololá	704	Santa Lucía Utatlán 	7	Santa Rita 	3	Marzo	2023-03-14T00:00:00	2024-11-08T09:00:00	6	Velocidad del viento	0
81910	7	Sololá	704	Santa Lucía Utatlán 	7	Santa Rita 	3	Marzo	2023-03-14T00:00:00	2024-11-08T09:00:00	7	Dirección del viento	0
81911	7	Sololá	704	Santa Lucía Utatlán 	7	Santa Rita 	3	Marzo	2023-03-14T00:00:00	2024-11-08T09:00:00	1	Precipitación	0
81912	7	Sololá	704	Santa Lucía Utatlán 	7	Santa Rita 	3	Marzo	2023-03-14T00:00:00	2024-11-08T09:00:00	8	Radiación solar	568
81913	7	Sololá	704	Santa Lucía Utatlán 	7	Santa Rita 	3	Marzo	2023-03-14T00:00:00	2024-11-08T10:00:00	2	Temperatura media	22.2
81914	7	Sololá	704	Santa Lucía Utatlán 	7	Santa Rita 	3	Marzo	2023-03-14T00:00:00	2024-11-08T10:00:00	4	Temperatura máxima	22.3
81915	7	Sololá	704	Santa Lucía Utatlán 	7	Santa Rita 	3	Marzo	2023-03-14T00:00:00	2024-11-08T10:00:00	3	Temperatura mínima	20.2
81916	7	Sololá	704	Santa Lucía Utatlán 	7	Santa Rita 	3	Marzo	2023-03-14T00:00:00	2024-11-08T10:00:00	5	Humedad	70
81917	7	Sololá	704	Santa Lucía Utatlán 	7	Santa Rita 	3	Marzo	2023-03-14T00:00:00	2024-11-08T10:00:00	6	Velocidad del viento	3.2
81918	7	Sololá	704	Santa Lucía Utatlán 	7	Santa Rita 	3	Marzo	2023-03-14T00:00:00	2024-11-08T10:00:00	7	Dirección del viento	3.22
81919	7	Sololá	704	Santa Lucía Utatlán 	7	Santa Rita 	3	Marzo	2023-03-14T00:00:00	2024-11-08T10:00:00	1	Precipitación	0
81920	7	Sololá	704	Santa Lucía Utatlán 	7	Santa Rita 	3	Marzo	2023-03-14T00:00:00	2024-11-08T10:00:00	8	Radiación solar	596
81921	7	Sololá	704	Santa Lucía Utatlán 	7	Santa Rita 	3	Marzo	2023-03-14T00:00:00	2024-11-08T11:00:00	2	Temperatura media	23.4
81922	7	Sololá	704	Santa Lucía Utatlán 	7	Santa Rita 	3	Marzo	2023-03-14T00:00:00	2024-11-08T11:00:00	4	Temperatura máxima	23.4
81923	7	Sololá	704	Santa Lucía Utatlán 	7	Santa Rita 	3	Marzo	2023-03-14T00:00:00	2024-11-08T11:00:00	3	Temperatura mínima	21.9
81924	7	Sololá	704	Santa Lucía Utatlán 	7	Santa Rita 	3	Marzo	2023-03-14T00:00:00	2024-11-08T11:00:00	5	Humedad	65
81925	7	Sololá	704	Santa Lucía Utatlán 	7	Santa Rita 	3	Marzo	2023-03-14T00:00:00	2024-11-08T11:00:00	6	Velocidad del viento	4.8
81926	7	Sololá	704	Santa Lucía Utatlán 	7	Santa Rita 	3	Marzo	2023-03-14T00:00:00	2024-11-08T11:00:00	7	Dirección del viento	4.83
81927	7	Sololá	704	Santa Lucía Utatlán 	7	Santa Rita 	3	Marzo	2023-03-14T00:00:00	2024-11-08T11:00:00	1	Precipitación	0
81928	7	Sololá	704	Santa Lucía Utatlán 	7	Santa Rita 	3	Marzo	2023-03-14T00:00:00	2024-11-08T11:00:00	8	Radiación solar	864
81929	7	Sololá	704	Santa Lucía Utatlán 	7	Santa Rita 	3	Marzo	2023-03-14T00:00:00	2024-11-08T12:00:00	2	Temperatura media	24
81930	7	Sololá	704	Santa Lucía Utatlán 	7	Santa Rita 	3	Marzo	2023-03-14T00:00:00	2024-11-08T12:00:00	4	Temperatura máxima	24.7
81931	7	Sololá	704	Santa Lucía Utatlán 	7	Santa Rita 	3	Marzo	2023-03-14T00:00:00	2024-11-08T12:00:00	3	Temperatura mínima	23.4
81932	7	Sololá	704	Santa Lucía Utatlán 	7	Santa Rita 	3	Marzo	2023-03-14T00:00:00	2024-11-08T12:00:00	5	Humedad	61
81933	7	Sololá	704	Santa Lucía Utatlán 	7	Santa Rita 	3	Marzo	2023-03-14T00:00:00	2024-11-08T12:00:00	6	Velocidad del viento	6.4
81934	7	Sololá	704	Santa Lucía Utatlán 	7	Santa Rita 	3	Marzo	2023-03-14T00:00:00	2024-11-08T12:00:00	7	Dirección del viento	6.44
81935	7	Sololá	704	Santa Lucía Utatlán 	7	Santa Rita 	3	Marzo	2023-03-14T00:00:00	2024-11-08T12:00:00	1	Precipitación	0
81936	7	Sololá	704	Santa Lucía Utatlán 	7	Santa Rita 	3	Marzo	2023-03-14T00:00:00	2024-11-08T12:00:00	8	Radiación solar	522
81937	7	Sololá	704	Santa Lucía Utatlán 	7	Santa Rita 	3	Marzo	2023-03-14T00:00:00	2024-11-08T13:00:00	2	Temperatura media	24.1
81938	7	Sololá	704	Santa Lucía Utatlán 	7	Santa Rita 	3	Marzo	2023-03-14T00:00:00	2024-11-08T13:00:00	4	Temperatura máxima	24.4
81939	7	Sololá	704	Santa Lucía Utatlán 	7	Santa Rita 	3	Marzo	2023-03-14T00:00:00	2024-11-08T13:00:00	3	Temperatura mínima	23.7
81940	7	Sololá	704	Santa Lucía Utatlán 	7	Santa Rita 	3	Marzo	2023-03-14T00:00:00	2024-11-08T13:00:00	5	Humedad	62
81941	7	Sololá	704	Santa Lucía Utatlán 	7	Santa Rita 	3	Marzo	2023-03-14T00:00:00	2024-11-08T13:00:00	6	Velocidad del viento	6.4
81942	7	Sololá	704	Santa Lucía Utatlán 	7	Santa Rita 	3	Marzo	2023-03-14T00:00:00	2024-11-08T13:00:00	7	Dirección del viento	6.44
81943	7	Sololá	704	Santa Lucía Utatlán 	7	Santa Rita 	3	Marzo	2023-03-14T00:00:00	2024-11-08T13:00:00	1	Precipitación	0
81944	7	Sololá	704	Santa Lucía Utatlán 	7	Santa Rita 	3	Marzo	2023-03-14T00:00:00	2024-11-08T13:00:00	8	Radiación solar	190
81945	7	Sololá	704	Santa Lucía Utatlán 	7	Santa Rita 	3	Marzo	2023-03-14T00:00:00	2024-11-08T14:00:00	2	Temperatura media	23.3
81946	7	Sololá	704	Santa Lucía Utatlán 	7	Santa Rita 	3	Marzo	2023-03-14T00:00:00	2024-11-08T14:00:00	4	Temperatura máxima	24.2
81947	7	Sololá	704	Santa Lucía Utatlán 	7	Santa Rita 	3	Marzo	2023-03-14T00:00:00	2024-11-08T14:00:00	3	Temperatura mínima	23.3
81948	7	Sololá	704	Santa Lucía Utatlán 	7	Santa Rita 	3	Marzo	2023-03-14T00:00:00	2024-11-08T14:00:00	5	Humedad	72
81949	7	Sololá	704	Santa Lucía Utatlán 	7	Santa Rita 	3	Marzo	2023-03-14T00:00:00	2024-11-08T14:00:00	6	Velocidad del viento	6.4
81950	7	Sololá	704	Santa Lucía Utatlán 	7	Santa Rita 	3	Marzo	2023-03-14T00:00:00	2024-11-08T14:00:00	7	Dirección del viento	6.44
81951	7	Sololá	704	Santa Lucía Utatlán 	7	Santa Rita 	3	Marzo	2023-03-14T00:00:00	2024-11-08T14:00:00	1	Precipitación	0
81952	7	Sololá	704	Santa Lucía Utatlán 	7	Santa Rita 	3	Marzo	2023-03-14T00:00:00	2024-11-08T14:00:00	8	Radiación solar	142
81953	7	Sololá	704	Santa Lucía Utatlán 	7	Santa Rita 	3	Marzo	2023-03-14T00:00:00	2024-11-08T15:00:00	2	Temperatura media	21.3
81954	7	Sololá	704	Santa Lucía Utatlán 	7	Santa Rita 	3	Marzo	2023-03-14T00:00:00	2024-11-08T15:00:00	4	Temperatura máxima	23.4
81955	7	Sololá	704	Santa Lucía Utatlán 	7	Santa Rita 	3	Marzo	2023-03-14T00:00:00	2024-11-08T15:00:00	3	Temperatura mínima	21.3
81956	7	Sololá	704	Santa Lucía Utatlán 	7	Santa Rita 	3	Marzo	2023-03-14T00:00:00	2024-11-08T15:00:00	5	Humedad	85
81957	7	Sololá	704	Santa Lucía Utatlán 	7	Santa Rita 	3	Marzo	2023-03-14T00:00:00	2024-11-08T15:00:00	6	Velocidad del viento	4.8
81958	7	Sololá	704	Santa Lucía Utatlán 	7	Santa Rita 	3	Marzo	2023-03-14T00:00:00	2024-11-08T15:00:00	7	Dirección del viento	4.83
81959	7	Sololá	704	Santa Lucía Utatlán 	7	Santa Rita 	3	Marzo	2023-03-14T00:00:00	2024-11-08T15:00:00	1	Precipitación	0
81960	7	Sololá	704	Santa Lucía Utatlán 	7	Santa Rita 	3	Marzo	2023-03-14T00:00:00	2024-11-08T15:00:00	8	Radiación solar	141
81961	7	Sololá	704	Santa Lucía Utatlán 	7	Santa Rita 	3	Marzo	2023-03-14T00:00:00	2024-11-08T16:00:00	2	Temperatura media	21.1
81962	7	Sololá	704	Santa Lucía Utatlán 	7	Santa Rita 	3	Marzo	2023-03-14T00:00:00	2024-11-08T16:00:00	4	Temperatura máxima	21.7
81963	7	Sololá	704	Santa Lucía Utatlán 	7	Santa Rita 	3	Marzo	2023-03-14T00:00:00	2024-11-08T16:00:00	3	Temperatura mínima	21.1
81964	7	Sololá	704	Santa Lucía Utatlán 	7	Santa Rita 	3	Marzo	2023-03-14T00:00:00	2024-11-08T16:00:00	5	Humedad	89
81965	7	Sololá	704	Santa Lucía Utatlán 	7	Santa Rita 	3	Marzo	2023-03-14T00:00:00	2024-11-08T16:00:00	6	Velocidad del viento	3.2
81966	7	Sololá	704	Santa Lucía Utatlán 	7	Santa Rita 	3	Marzo	2023-03-14T00:00:00	2024-11-08T16:00:00	7	Dirección del viento	3.22
81967	7	Sololá	704	Santa Lucía Utatlán 	7	Santa Rita 	3	Marzo	2023-03-14T00:00:00	2024-11-08T16:00:00	1	Precipitación	0.2
81968	7	Sololá	704	Santa Lucía Utatlán 	7	Santa Rita 	3	Marzo	2023-03-14T00:00:00	2024-11-08T16:00:00	8	Radiación solar	74
81969	7	Sololá	704	Santa Lucía Utatlán 	7	Santa Rita 	3	Marzo	2023-03-14T00:00:00	2024-11-08T17:00:00	2	Temperatura media	19.3
81970	7	Sololá	704	Santa Lucía Utatlán 	7	Santa Rita 	3	Marzo	2023-03-14T00:00:00	2024-11-08T17:00:00	4	Temperatura máxima	21.1
81971	7	Sololá	704	Santa Lucía Utatlán 	7	Santa Rita 	3	Marzo	2023-03-14T00:00:00	2024-11-08T17:00:00	3	Temperatura mínima	19.3
81972	7	Sololá	704	Santa Lucía Utatlán 	7	Santa Rita 	3	Marzo	2023-03-14T00:00:00	2024-11-08T17:00:00	5	Humedad	87
81973	7	Sololá	704	Santa Lucía Utatlán 	7	Santa Rita 	3	Marzo	2023-03-14T00:00:00	2024-11-08T17:00:00	6	Velocidad del viento	3.2
81974	7	Sololá	704	Santa Lucía Utatlán 	7	Santa Rita 	3	Marzo	2023-03-14T00:00:00	2024-11-08T17:00:00	7	Dirección del viento	3.22
81975	7	Sololá	704	Santa Lucía Utatlán 	7	Santa Rita 	3	Marzo	2023-03-14T00:00:00	2024-11-08T17:00:00	1	Precipitación	5.2
81976	7	Sololá	704	Santa Lucía Utatlán 	7	Santa Rita 	3	Marzo	2023-03-14T00:00:00	2024-11-08T17:00:00	8	Radiación solar	191
81977	7	Sololá	704	Santa Lucía Utatlán 	7	Santa Rita 	3	Marzo	2023-03-14T00:00:00	2024-11-08T18:00:00	2	Temperatura media	21
81978	7	Sololá	704	Santa Lucía Utatlán 	7	Santa Rita 	3	Marzo	2023-03-14T00:00:00	2024-11-08T18:00:00	4	Temperatura máxima	21
81979	7	Sololá	704	Santa Lucía Utatlán 	7	Santa Rita 	3	Marzo	2023-03-14T00:00:00	2024-11-08T18:00:00	3	Temperatura mínima	19.2
81980	7	Sololá	704	Santa Lucía Utatlán 	7	Santa Rita 	3	Marzo	2023-03-14T00:00:00	2024-11-08T18:00:00	5	Humedad	86
81981	7	Sololá	704	Santa Lucía Utatlán 	7	Santa Rita 	3	Marzo	2023-03-14T00:00:00	2024-11-08T18:00:00	6	Velocidad del viento	1.6
81982	7	Sololá	704	Santa Lucía Utatlán 	7	Santa Rita 	3	Marzo	2023-03-14T00:00:00	2024-11-08T18:00:00	7	Dirección del viento	1.61
81983	7	Sololá	704	Santa Lucía Utatlán 	7	Santa Rita 	3	Marzo	2023-03-14T00:00:00	2024-11-08T18:00:00	1	Precipitación	0.2
81984	7	Sololá	704	Santa Lucía Utatlán 	7	Santa Rita 	3	Marzo	2023-03-14T00:00:00	2024-11-08T18:00:00	8	Radiación solar	71
81985	7	Sololá	704	Santa Lucía Utatlán 	7	Santa Rita 	3	Marzo	2023-03-14T00:00:00	2024-11-08T19:00:00	2	Temperatura media	19.9
81986	7	Sololá	704	Santa Lucía Utatlán 	7	Santa Rita 	3	Marzo	2023-03-14T00:00:00	2024-11-08T19:00:00	4	Temperatura máxima	21.1
81987	7	Sololá	704	Santa Lucía Utatlán 	7	Santa Rita 	3	Marzo	2023-03-14T00:00:00	2024-11-08T19:00:00	3	Temperatura mínima	19.8
81988	7	Sololá	704	Santa Lucía Utatlán 	7	Santa Rita 	3	Marzo	2023-03-14T00:00:00	2024-11-08T19:00:00	5	Humedad	91
81989	7	Sololá	704	Santa Lucía Utatlán 	7	Santa Rita 	3	Marzo	2023-03-14T00:00:00	2024-11-08T19:00:00	6	Velocidad del viento	0
81990	7	Sololá	704	Santa Lucía Utatlán 	7	Santa Rita 	3	Marzo	2023-03-14T00:00:00	2024-11-08T19:00:00	7	Dirección del viento	0
81991	7	Sololá	704	Santa Lucía Utatlán 	7	Santa Rita 	3	Marzo	2023-03-14T00:00:00	2024-11-08T19:00:00	1	Precipitación	0
81992	7	Sololá	704	Santa Lucía Utatlán 	7	Santa Rita 	3	Marzo	2023-03-14T00:00:00	2024-11-08T19:00:00	8	Radiación solar	0
81993	7	Sololá	704	Santa Lucía Utatlán 	7	Santa Rita 	3	Marzo	2023-03-14T00:00:00	2024-11-08T20:00:00	2	Temperatura media	18.3
81994	7	Sololá	704	Santa Lucía Utatlán 	7	Santa Rita 	3	Marzo	2023-03-14T00:00:00	2024-11-08T20:00:00	4	Temperatura máxima	19.9
81995	7	Sololá	704	Santa Lucía Utatlán 	7	Santa Rita 	3	Marzo	2023-03-14T00:00:00	2024-11-08T20:00:00	3	Temperatura mínima	18.3
81996	7	Sololá	704	Santa Lucía Utatlán 	7	Santa Rita 	3	Marzo	2023-03-14T00:00:00	2024-11-08T20:00:00	5	Humedad	92
81997	7	Sololá	704	Santa Lucía Utatlán 	7	Santa Rita 	3	Marzo	2023-03-14T00:00:00	2024-11-08T20:00:00	6	Velocidad del viento	1.6
81998	7	Sololá	704	Santa Lucía Utatlán 	7	Santa Rita 	3	Marzo	2023-03-14T00:00:00	2024-11-08T20:00:00	7	Dirección del viento	1.61
81999	7	Sololá	704	Santa Lucía Utatlán 	7	Santa Rita 	3	Marzo	2023-03-14T00:00:00	2024-11-08T20:00:00	1	Precipitación	0
82000	7	Sololá	704	Santa Lucía Utatlán 	7	Santa Rita 	3	Marzo	2023-03-14T00:00:00	2024-11-08T20:00:00	8	Radiación solar	0
82001	7	Sololá	704	Santa Lucía Utatlán 	7	Santa Rita 	3	Marzo	2023-03-14T00:00:00	2024-11-08T21:00:00	2	Temperatura media	17.9
82002	7	Sololá	704	Santa Lucía Utatlán 	7	Santa Rita 	3	Marzo	2023-03-14T00:00:00	2024-11-08T21:00:00	4	Temperatura máxima	18.4
82003	7	Sololá	704	Santa Lucía Utatlán 	7	Santa Rita 	3	Marzo	2023-03-14T00:00:00	2024-11-08T21:00:00	3	Temperatura mínima	17.9
82004	7	Sololá	704	Santa Lucía Utatlán 	7	Santa Rita 	3	Marzo	2023-03-14T00:00:00	2024-11-08T21:00:00	5	Humedad	90
82005	7	Sololá	704	Santa Lucía Utatlán 	7	Santa Rita 	3	Marzo	2023-03-14T00:00:00	2024-11-08T21:00:00	6	Velocidad del viento	3.2
82006	7	Sololá	704	Santa Lucía Utatlán 	7	Santa Rita 	3	Marzo	2023-03-14T00:00:00	2024-11-08T21:00:00	7	Dirección del viento	3.22
82007	7	Sololá	704	Santa Lucía Utatlán 	7	Santa Rita 	3	Marzo	2023-03-14T00:00:00	2024-11-08T21:00:00	1	Precipitación	0
82008	7	Sololá	704	Santa Lucía Utatlán 	7	Santa Rita 	3	Marzo	2023-03-14T00:00:00	2024-11-08T21:00:00	8	Radiación solar	0
82009	7	Sololá	704	Santa Lucía Utatlán 	7	Santa Rita 	3	Marzo	2023-03-14T00:00:00	2024-11-08T22:00:00	2	Temperatura media	18
82010	7	Sololá	704	Santa Lucía Utatlán 	7	Santa Rita 	3	Marzo	2023-03-14T00:00:00	2024-11-08T22:00:00	4	Temperatura máxima	18.8
82011	7	Sololá	704	Santa Lucía Utatlán 	7	Santa Rita 	3	Marzo	2023-03-14T00:00:00	2024-11-08T22:00:00	3	Temperatura mínima	17.1
82012	7	Sololá	704	Santa Lucía Utatlán 	7	Santa Rita 	3	Marzo	2023-03-14T00:00:00	2024-11-08T22:00:00	5	Humedad	80
82013	7	Sololá	704	Santa Lucía Utatlán 	7	Santa Rita 	3	Marzo	2023-03-14T00:00:00	2024-11-08T22:00:00	6	Velocidad del viento	4.8
82014	7	Sololá	704	Santa Lucía Utatlán 	7	Santa Rita 	3	Marzo	2023-03-14T00:00:00	2024-11-08T22:00:00	7	Dirección del viento	4.83
82015	7	Sololá	704	Santa Lucía Utatlán 	7	Santa Rita 	3	Marzo	2023-03-14T00:00:00	2024-11-08T22:00:00	1	Precipitación	0
82016	7	Sololá	704	Santa Lucía Utatlán 	7	Santa Rita 	3	Marzo	2023-03-14T00:00:00	2024-11-08T22:00:00	8	Radiación solar	0
82017	7	Sololá	704	Santa Lucía Utatlán 	7	Santa Rita 	3	Marzo	2023-03-14T00:00:00	2024-11-08T23:00:00	2	Temperatura media	16.7
82018	7	Sololá	704	Santa Lucía Utatlán 	7	Santa Rita 	3	Marzo	2023-03-14T00:00:00	2024-11-08T23:00:00	4	Temperatura máxima	18
82019	7	Sololá	704	Santa Lucía Utatlán 	7	Santa Rita 	3	Marzo	2023-03-14T00:00:00	2024-11-08T23:00:00	3	Temperatura mínima	16.7
82020	7	Sololá	704	Santa Lucía Utatlán 	7	Santa Rita 	3	Marzo	2023-03-14T00:00:00	2024-11-08T23:00:00	5	Humedad	85
82021	7	Sololá	704	Santa Lucía Utatlán 	7	Santa Rita 	3	Marzo	2023-03-14T00:00:00	2024-11-08T23:00:00	6	Velocidad del viento	3.2
82022	7	Sololá	704	Santa Lucía Utatlán 	7	Santa Rita 	3	Marzo	2023-03-14T00:00:00	2024-11-08T23:00:00	7	Dirección del viento	3.22
82023	7	Sololá	704	Santa Lucía Utatlán 	7	Santa Rita 	3	Marzo	2023-03-14T00:00:00	2024-11-08T23:00:00	1	Precipitación	0
82024	7	Sololá	704	Santa Lucía Utatlán 	7	Santa Rita 	3	Marzo	2023-03-14T00:00:00	2024-11-08T23:00:00	8	Radiación solar	0
82025	7	Sololá	704	Santa Lucía Utatlán 	7	Santa Rita 	3	Marzo	2023-03-15T00:00:00	2024-11-08T00:00:00	2	Temperatura media	16.4
82026	7	Sololá	704	Santa Lucía Utatlán 	7	Santa Rita 	3	Marzo	2023-03-15T00:00:00	2024-11-08T00:00:00	4	Temperatura máxima	17.2
82027	7	Sololá	704	Santa Lucía Utatlán 	7	Santa Rita 	3	Marzo	2023-03-15T00:00:00	2024-11-08T00:00:00	3	Temperatura mínima	16.4
82028	7	Sololá	704	Santa Lucía Utatlán 	7	Santa Rita 	3	Marzo	2023-03-15T00:00:00	2024-11-08T00:00:00	5	Humedad	85
82029	7	Sololá	704	Santa Lucía Utatlán 	7	Santa Rita 	3	Marzo	2023-03-15T00:00:00	2024-11-08T00:00:00	6	Velocidad del viento	3.2
82030	7	Sololá	704	Santa Lucía Utatlán 	7	Santa Rita 	3	Marzo	2023-03-15T00:00:00	2024-11-08T00:00:00	7	Dirección del viento	3.22
82031	7	Sololá	704	Santa Lucía Utatlán 	7	Santa Rita 	3	Marzo	2023-03-15T00:00:00	2024-11-08T00:00:00	1	Precipitación	0
82032	7	Sololá	704	Santa Lucía Utatlán 	7	Santa Rita 	3	Marzo	2023-03-15T00:00:00	2024-11-08T00:00:00	8	Radiación solar	0
82033	7	Sololá	704	Santa Lucía Utatlán 	7	Santa Rita 	3	Marzo	2023-03-15T00:00:00	2024-11-08T01:00:00	2	Temperatura media	16.6
82034	7	Sololá	704	Santa Lucía Utatlán 	7	Santa Rita 	3	Marzo	2023-03-15T00:00:00	2024-11-08T01:00:00	4	Temperatura máxima	16.6
82035	7	Sololá	704	Santa Lucía Utatlán 	7	Santa Rita 	3	Marzo	2023-03-15T00:00:00	2024-11-08T01:00:00	3	Temperatura mínima	16.1
82036	7	Sololá	704	Santa Lucía Utatlán 	7	Santa Rita 	3	Marzo	2023-03-15T00:00:00	2024-11-08T01:00:00	5	Humedad	84
82037	7	Sololá	704	Santa Lucía Utatlán 	7	Santa Rita 	3	Marzo	2023-03-15T00:00:00	2024-11-08T01:00:00	6	Velocidad del viento	3.2
82038	7	Sololá	704	Santa Lucía Utatlán 	7	Santa Rita 	3	Marzo	2023-03-15T00:00:00	2024-11-08T01:00:00	7	Dirección del viento	3.22
82039	7	Sololá	704	Santa Lucía Utatlán 	7	Santa Rita 	3	Marzo	2023-03-15T00:00:00	2024-11-08T01:00:00	1	Precipitación	0
82040	7	Sololá	704	Santa Lucía Utatlán 	7	Santa Rita 	3	Marzo	2023-03-15T00:00:00	2024-11-08T01:00:00	8	Radiación solar	0
82041	7	Sololá	704	Santa Lucía Utatlán 	7	Santa Rita 	3	Marzo	2023-03-15T00:00:00	2024-11-08T02:00:00	2	Temperatura media	16.4
82042	7	Sololá	704	Santa Lucía Utatlán 	7	Santa Rita 	3	Marzo	2023-03-15T00:00:00	2024-11-08T02:00:00	4	Temperatura máxima	16.6
82043	7	Sololá	704	Santa Lucía Utatlán 	7	Santa Rita 	3	Marzo	2023-03-15T00:00:00	2024-11-08T02:00:00	3	Temperatura mínima	16.1
82044	7	Sololá	704	Santa Lucía Utatlán 	7	Santa Rita 	3	Marzo	2023-03-15T00:00:00	2024-11-08T02:00:00	5	Humedad	84
82045	7	Sololá	704	Santa Lucía Utatlán 	7	Santa Rita 	3	Marzo	2023-03-15T00:00:00	2024-11-08T02:00:00	6	Velocidad del viento	3.2
82046	7	Sololá	704	Santa Lucía Utatlán 	7	Santa Rita 	3	Marzo	2023-03-15T00:00:00	2024-11-08T02:00:00	7	Dirección del viento	3.22
82047	7	Sololá	704	Santa Lucía Utatlán 	7	Santa Rita 	3	Marzo	2023-03-15T00:00:00	2024-11-08T02:00:00	1	Precipitación	0
82048	7	Sololá	704	Santa Lucía Utatlán 	7	Santa Rita 	3	Marzo	2023-03-15T00:00:00	2024-11-08T02:00:00	8	Radiación solar	0
82049	7	Sololá	704	Santa Lucía Utatlán 	7	Santa Rita 	3	Marzo	2023-03-15T00:00:00	2024-11-08T03:00:00	2	Temperatura media	17.6
82050	7	Sololá	704	Santa Lucía Utatlán 	7	Santa Rita 	3	Marzo	2023-03-15T00:00:00	2024-11-08T03:00:00	4	Temperatura máxima	18.2
82051	7	Sololá	704	Santa Lucía Utatlán 	7	Santa Rita 	3	Marzo	2023-03-15T00:00:00	2024-11-08T03:00:00	3	Temperatura mínima	16.3
82052	7	Sololá	704	Santa Lucía Utatlán 	7	Santa Rita 	3	Marzo	2023-03-15T00:00:00	2024-11-08T03:00:00	5	Humedad	78
82053	7	Sololá	704	Santa Lucía Utatlán 	7	Santa Rita 	3	Marzo	2023-03-15T00:00:00	2024-11-08T03:00:00	6	Velocidad del viento	4.8
82054	7	Sololá	704	Santa Lucía Utatlán 	7	Santa Rita 	3	Marzo	2023-03-15T00:00:00	2024-11-08T03:00:00	7	Dirección del viento	4.83
82055	7	Sololá	704	Santa Lucía Utatlán 	7	Santa Rita 	3	Marzo	2023-03-15T00:00:00	2024-11-08T03:00:00	1	Precipitación	0
82056	7	Sololá	704	Santa Lucía Utatlán 	7	Santa Rita 	3	Marzo	2023-03-15T00:00:00	2024-11-08T03:00:00	8	Radiación solar	0
82057	7	Sololá	704	Santa Lucía Utatlán 	7	Santa Rita 	3	Marzo	2023-03-15T00:00:00	2024-11-08T04:00:00	2	Temperatura media	16.3
82058	7	Sololá	704	Santa Lucía Utatlán 	7	Santa Rita 	3	Marzo	2023-03-15T00:00:00	2024-11-08T04:00:00	4	Temperatura máxima	17.9
82059	7	Sololá	704	Santa Lucía Utatlán 	7	Santa Rita 	3	Marzo	2023-03-15T00:00:00	2024-11-08T04:00:00	3	Temperatura mínima	16.3
82060	7	Sololá	704	Santa Lucía Utatlán 	7	Santa Rita 	3	Marzo	2023-03-15T00:00:00	2024-11-08T04:00:00	5	Humedad	83
82061	7	Sololá	704	Santa Lucía Utatlán 	7	Santa Rita 	3	Marzo	2023-03-15T00:00:00	2024-11-08T04:00:00	6	Velocidad del viento	4.8
82062	7	Sololá	704	Santa Lucía Utatlán 	7	Santa Rita 	3	Marzo	2023-03-15T00:00:00	2024-11-08T04:00:00	7	Dirección del viento	4.83
82063	7	Sololá	704	Santa Lucía Utatlán 	7	Santa Rita 	3	Marzo	2023-03-15T00:00:00	2024-11-08T04:00:00	1	Precipitación	0
82064	7	Sololá	704	Santa Lucía Utatlán 	7	Santa Rita 	3	Marzo	2023-03-15T00:00:00	2024-11-08T04:00:00	8	Radiación solar	0
82065	7	Sololá	704	Santa Lucía Utatlán 	7	Santa Rita 	3	Marzo	2023-03-15T00:00:00	2024-11-08T05:00:00	2	Temperatura media	15.4
82066	7	Sololá	704	Santa Lucía Utatlán 	7	Santa Rita 	3	Marzo	2023-03-15T00:00:00	2024-11-08T05:00:00	4	Temperatura máxima	16.4
82067	7	Sololá	704	Santa Lucía Utatlán 	7	Santa Rita 	3	Marzo	2023-03-15T00:00:00	2024-11-08T05:00:00	3	Temperatura mínima	15.4
82068	7	Sololá	704	Santa Lucía Utatlán 	7	Santa Rita 	3	Marzo	2023-03-15T00:00:00	2024-11-08T05:00:00	5	Humedad	85
82069	7	Sololá	704	Santa Lucía Utatlán 	7	Santa Rita 	3	Marzo	2023-03-15T00:00:00	2024-11-08T05:00:00	6	Velocidad del viento	3.2
82070	7	Sololá	704	Santa Lucía Utatlán 	7	Santa Rita 	3	Marzo	2023-03-15T00:00:00	2024-11-08T05:00:00	7	Dirección del viento	3.22
82071	7	Sololá	704	Santa Lucía Utatlán 	7	Santa Rita 	3	Marzo	2023-03-15T00:00:00	2024-11-08T05:00:00	1	Precipitación	0
82072	7	Sololá	704	Santa Lucía Utatlán 	7	Santa Rita 	3	Marzo	2023-03-15T00:00:00	2024-11-08T05:00:00	8	Radiación solar	0
82073	7	Sololá	704	Santa Lucía Utatlán 	7	Santa Rita 	3	Marzo	2023-03-15T00:00:00	2024-11-08T06:00:00	2	Temperatura media	15.8
82074	7	Sololá	704	Santa Lucía Utatlán 	7	Santa Rita 	3	Marzo	2023-03-15T00:00:00	2024-11-08T06:00:00	4	Temperatura máxima	15.8
82075	7	Sololá	704	Santa Lucía Utatlán 	7	Santa Rita 	3	Marzo	2023-03-15T00:00:00	2024-11-08T06:00:00	3	Temperatura mínima	15.4
82076	7	Sololá	704	Santa Lucía Utatlán 	7	Santa Rita 	3	Marzo	2023-03-15T00:00:00	2024-11-08T06:00:00	5	Humedad	81
82077	7	Sololá	704	Santa Lucía Utatlán 	7	Santa Rita 	3	Marzo	2023-03-15T00:00:00	2024-11-08T06:00:00	6	Velocidad del viento	3.2
82078	7	Sololá	704	Santa Lucía Utatlán 	7	Santa Rita 	3	Marzo	2023-03-15T00:00:00	2024-11-08T06:00:00	7	Dirección del viento	3.22
82079	7	Sololá	704	Santa Lucía Utatlán 	7	Santa Rita 	3	Marzo	2023-03-15T00:00:00	2024-11-08T06:00:00	1	Precipitación	0
82080	7	Sololá	704	Santa Lucía Utatlán 	7	Santa Rita 	3	Marzo	2023-03-15T00:00:00	2024-11-08T06:00:00	8	Radiación solar	0
82081	7	Sololá	704	Santa Lucía Utatlán 	7	Santa Rita 	3	Marzo	2023-03-15T00:00:00	2024-11-08T07:00:00	2	Temperatura media	15.1
82082	7	Sololá	704	Santa Lucía Utatlán 	7	Santa Rita 	3	Marzo	2023-03-15T00:00:00	2024-11-08T07:00:00	4	Temperatura máxima	15.9
82083	7	Sololá	704	Santa Lucía Utatlán 	7	Santa Rita 	3	Marzo	2023-03-15T00:00:00	2024-11-08T07:00:00	3	Temperatura mínima	15.1
82084	7	Sololá	704	Santa Lucía Utatlán 	7	Santa Rita 	3	Marzo	2023-03-15T00:00:00	2024-11-08T07:00:00	5	Humedad	82
82085	7	Sololá	704	Santa Lucía Utatlán 	7	Santa Rita 	3	Marzo	2023-03-15T00:00:00	2024-11-08T07:00:00	6	Velocidad del viento	3.2
82086	7	Sololá	704	Santa Lucía Utatlán 	7	Santa Rita 	3	Marzo	2023-03-15T00:00:00	2024-11-08T07:00:00	7	Dirección del viento	3.22
82087	7	Sololá	704	Santa Lucía Utatlán 	7	Santa Rita 	3	Marzo	2023-03-15T00:00:00	2024-11-08T07:00:00	1	Precipitación	0
82088	7	Sololá	704	Santa Lucía Utatlán 	7	Santa Rita 	3	Marzo	2023-03-15T00:00:00	2024-11-08T07:00:00	8	Radiación solar	23
82089	7	Sololá	704	Santa Lucía Utatlán 	7	Santa Rita 	3	Marzo	2023-03-15T00:00:00	2024-11-08T08:00:00	2	Temperatura media	18.9
82090	7	Sololá	704	Santa Lucía Utatlán 	7	Santa Rita 	3	Marzo	2023-03-15T00:00:00	2024-11-08T08:00:00	4	Temperatura máxima	18.9
82091	7	Sololá	704	Santa Lucía Utatlán 	7	Santa Rita 	3	Marzo	2023-03-15T00:00:00	2024-11-08T08:00:00	3	Temperatura mínima	14.9
82092	7	Sololá	704	Santa Lucía Utatlán 	7	Santa Rita 	3	Marzo	2023-03-15T00:00:00	2024-11-08T08:00:00	5	Humedad	72
82093	7	Sololá	704	Santa Lucía Utatlán 	7	Santa Rita 	3	Marzo	2023-03-15T00:00:00	2024-11-08T08:00:00	6	Velocidad del viento	4.8
82094	7	Sololá	704	Santa Lucía Utatlán 	7	Santa Rita 	3	Marzo	2023-03-15T00:00:00	2024-11-08T08:00:00	7	Dirección del viento	4.83
82095	7	Sololá	704	Santa Lucía Utatlán 	7	Santa Rita 	3	Marzo	2023-03-15T00:00:00	2024-11-08T08:00:00	1	Precipitación	0
82096	7	Sololá	704	Santa Lucía Utatlán 	7	Santa Rita 	3	Marzo	2023-03-15T00:00:00	2024-11-08T08:00:00	8	Radiación solar	294
82097	7	Sololá	704	Santa Lucía Utatlán 	7	Santa Rita 	3	Marzo	2023-03-15T00:00:00	2024-11-08T09:00:00	2	Temperatura media	20.8
82098	7	Sololá	704	Santa Lucía Utatlán 	7	Santa Rita 	3	Marzo	2023-03-15T00:00:00	2024-11-08T09:00:00	4	Temperatura máxima	20.8
82099	7	Sololá	704	Santa Lucía Utatlán 	7	Santa Rita 	3	Marzo	2023-03-15T00:00:00	2024-11-08T09:00:00	3	Temperatura mínima	19
82100	7	Sololá	704	Santa Lucía Utatlán 	7	Santa Rita 	3	Marzo	2023-03-15T00:00:00	2024-11-08T09:00:00	5	Humedad	68
82101	7	Sololá	704	Santa Lucía Utatlán 	7	Santa Rita 	3	Marzo	2023-03-15T00:00:00	2024-11-08T09:00:00	6	Velocidad del viento	3.2
82102	7	Sololá	704	Santa Lucía Utatlán 	7	Santa Rita 	3	Marzo	2023-03-15T00:00:00	2024-11-08T09:00:00	7	Dirección del viento	3.22
82103	7	Sololá	704	Santa Lucía Utatlán 	7	Santa Rita 	3	Marzo	2023-03-15T00:00:00	2024-11-08T09:00:00	1	Precipitación	0
82104	7	Sololá	704	Santa Lucía Utatlán 	7	Santa Rita 	3	Marzo	2023-03-15T00:00:00	2024-11-08T09:00:00	8	Radiación solar	618
82105	7	Sololá	704	Santa Lucía Utatlán 	7	Santa Rita 	3	Marzo	2023-03-15T00:00:00	2024-11-08T10:00:00	2	Temperatura media	22.2
82106	7	Sololá	704	Santa Lucía Utatlán 	7	Santa Rita 	3	Marzo	2023-03-15T00:00:00	2024-11-08T10:00:00	4	Temperatura máxima	22.3
82107	7	Sololá	704	Santa Lucía Utatlán 	7	Santa Rita 	3	Marzo	2023-03-15T00:00:00	2024-11-08T10:00:00	3	Temperatura mínima	20.8
82108	7	Sololá	704	Santa Lucía Utatlán 	7	Santa Rita 	3	Marzo	2023-03-15T00:00:00	2024-11-08T10:00:00	5	Humedad	61
82109	7	Sololá	704	Santa Lucía Utatlán 	7	Santa Rita 	3	Marzo	2023-03-15T00:00:00	2024-11-08T10:00:00	6	Velocidad del viento	4.8
82110	7	Sololá	704	Santa Lucía Utatlán 	7	Santa Rita 	3	Marzo	2023-03-15T00:00:00	2024-11-08T10:00:00	7	Dirección del viento	4.83
82111	7	Sololá	704	Santa Lucía Utatlán 	7	Santa Rita 	3	Marzo	2023-03-15T00:00:00	2024-11-08T10:00:00	1	Precipitación	0
82112	7	Sololá	704	Santa Lucía Utatlán 	7	Santa Rita 	3	Marzo	2023-03-15T00:00:00	2024-11-08T10:00:00	8	Radiación solar	827
82113	7	Sololá	704	Santa Lucía Utatlán 	7	Santa Rita 	3	Marzo	2023-03-15T00:00:00	2024-11-08T11:00:00	2	Temperatura media	22.6
82114	7	Sololá	704	Santa Lucía Utatlán 	7	Santa Rita 	3	Marzo	2023-03-15T00:00:00	2024-11-08T11:00:00	4	Temperatura máxima	22.8
82115	7	Sololá	704	Santa Lucía Utatlán 	7	Santa Rita 	3	Marzo	2023-03-15T00:00:00	2024-11-08T11:00:00	3	Temperatura mínima	21.6
82116	7	Sololá	704	Santa Lucía Utatlán 	7	Santa Rita 	3	Marzo	2023-03-15T00:00:00	2024-11-08T11:00:00	5	Humedad	59
82117	7	Sololá	704	Santa Lucía Utatlán 	7	Santa Rita 	3	Marzo	2023-03-15T00:00:00	2024-11-08T11:00:00	6	Velocidad del viento	9.7
82118	7	Sololá	704	Santa Lucía Utatlán 	7	Santa Rita 	3	Marzo	2023-03-15T00:00:00	2024-11-08T11:00:00	7	Dirección del viento	9.66
82119	7	Sololá	704	Santa Lucía Utatlán 	7	Santa Rita 	3	Marzo	2023-03-15T00:00:00	2024-11-08T11:00:00	1	Precipitación	0
82120	7	Sololá	704	Santa Lucía Utatlán 	7	Santa Rita 	3	Marzo	2023-03-15T00:00:00	2024-11-08T11:00:00	8	Radiación solar	976
82121	7	Sololá	704	Santa Lucía Utatlán 	7	Santa Rita 	3	Marzo	2023-03-15T00:00:00	2024-11-08T12:00:00	2	Temperatura media	22.9
82122	7	Sololá	704	Santa Lucía Utatlán 	7	Santa Rita 	3	Marzo	2023-03-15T00:00:00	2024-11-08T12:00:00	4	Temperatura máxima	23.2
82123	7	Sololá	704	Santa Lucía Utatlán 	7	Santa Rita 	3	Marzo	2023-03-15T00:00:00	2024-11-08T12:00:00	3	Temperatura mínima	22.3
82124	7	Sololá	704	Santa Lucía Utatlán 	7	Santa Rita 	3	Marzo	2023-03-15T00:00:00	2024-11-08T12:00:00	5	Humedad	53
82125	7	Sololá	704	Santa Lucía Utatlán 	7	Santa Rita 	3	Marzo	2023-03-15T00:00:00	2024-11-08T12:00:00	6	Velocidad del viento	11.3
82126	7	Sololá	704	Santa Lucía Utatlán 	7	Santa Rita 	3	Marzo	2023-03-15T00:00:00	2024-11-08T12:00:00	7	Dirección del viento	11.27
82127	7	Sololá	704	Santa Lucía Utatlán 	7	Santa Rita 	3	Marzo	2023-03-15T00:00:00	2024-11-08T12:00:00	1	Precipitación	0
82128	7	Sololá	704	Santa Lucía Utatlán 	7	Santa Rita 	3	Marzo	2023-03-15T00:00:00	2024-11-08T12:00:00	8	Radiación solar	729
82129	7	Sololá	704	Santa Lucía Utatlán 	7	Santa Rita 	3	Marzo	2023-03-15T00:00:00	2024-11-08T13:00:00	2	Temperatura media	24.1
82130	7	Sololá	704	Santa Lucía Utatlán 	7	Santa Rita 	3	Marzo	2023-03-15T00:00:00	2024-11-08T13:00:00	4	Temperatura máxima	24.2
82131	7	Sololá	704	Santa Lucía Utatlán 	7	Santa Rita 	3	Marzo	2023-03-15T00:00:00	2024-11-08T13:00:00	3	Temperatura mínima	22.9
82132	7	Sololá	704	Santa Lucía Utatlán 	7	Santa Rita 	3	Marzo	2023-03-15T00:00:00	2024-11-08T13:00:00	5	Humedad	50
82133	7	Sololá	704	Santa Lucía Utatlán 	7	Santa Rita 	3	Marzo	2023-03-15T00:00:00	2024-11-08T13:00:00	6	Velocidad del viento	8
82134	7	Sololá	704	Santa Lucía Utatlán 	7	Santa Rita 	3	Marzo	2023-03-15T00:00:00	2024-11-08T13:00:00	7	Dirección del viento	8.05
82135	7	Sololá	704	Santa Lucía Utatlán 	7	Santa Rita 	3	Marzo	2023-03-15T00:00:00	2024-11-08T13:00:00	1	Precipitación	0
82136	7	Sololá	704	Santa Lucía Utatlán 	7	Santa Rita 	3	Marzo	2023-03-15T00:00:00	2024-11-08T13:00:00	8	Radiación solar	594
82137	7	Sololá	704	Santa Lucía Utatlán 	7	Santa Rita 	3	Marzo	2023-03-15T00:00:00	2024-11-08T14:00:00	2	Temperatura media	24.2
82138	7	Sololá	704	Santa Lucía Utatlán 	7	Santa Rita 	3	Marzo	2023-03-15T00:00:00	2024-11-08T14:00:00	4	Temperatura máxima	25.6
82139	7	Sololá	704	Santa Lucía Utatlán 	7	Santa Rita 	3	Marzo	2023-03-15T00:00:00	2024-11-08T14:00:00	3	Temperatura mínima	24.1
82140	7	Sololá	704	Santa Lucía Utatlán 	7	Santa Rita 	3	Marzo	2023-03-15T00:00:00	2024-11-08T14:00:00	5	Humedad	50
82141	7	Sololá	704	Santa Lucía Utatlán 	7	Santa Rita 	3	Marzo	2023-03-15T00:00:00	2024-11-08T14:00:00	6	Velocidad del viento	8
82142	7	Sololá	704	Santa Lucía Utatlán 	7	Santa Rita 	3	Marzo	2023-03-15T00:00:00	2024-11-08T14:00:00	7	Dirección del viento	8.05
82143	7	Sololá	704	Santa Lucía Utatlán 	7	Santa Rita 	3	Marzo	2023-03-15T00:00:00	2024-11-08T14:00:00	1	Precipitación	0
82144	7	Sololá	704	Santa Lucía Utatlán 	7	Santa Rita 	3	Marzo	2023-03-15T00:00:00	2024-11-08T14:00:00	8	Radiación solar	176
82145	7	Sololá	704	Santa Lucía Utatlán 	7	Santa Rita 	3	Marzo	2023-03-15T00:00:00	2024-11-08T15:00:00	2	Temperatura media	22.5
82146	7	Sololá	704	Santa Lucía Utatlán 	7	Santa Rita 	3	Marzo	2023-03-15T00:00:00	2024-11-08T15:00:00	4	Temperatura máxima	24.3
82147	7	Sololá	704	Santa Lucía Utatlán 	7	Santa Rita 	3	Marzo	2023-03-15T00:00:00	2024-11-08T15:00:00	3	Temperatura mínima	22.5
82148	7	Sololá	704	Santa Lucía Utatlán 	7	Santa Rita 	3	Marzo	2023-03-15T00:00:00	2024-11-08T15:00:00	5	Humedad	74
82149	7	Sololá	704	Santa Lucía Utatlán 	7	Santa Rita 	3	Marzo	2023-03-15T00:00:00	2024-11-08T15:00:00	6	Velocidad del viento	3.2
82150	7	Sololá	704	Santa Lucía Utatlán 	7	Santa Rita 	3	Marzo	2023-03-15T00:00:00	2024-11-08T15:00:00	7	Dirección del viento	3.22
82151	7	Sololá	704	Santa Lucía Utatlán 	7	Santa Rita 	3	Marzo	2023-03-15T00:00:00	2024-11-08T15:00:00	1	Precipitación	0
82152	7	Sololá	704	Santa Lucía Utatlán 	7	Santa Rita 	3	Marzo	2023-03-15T00:00:00	2024-11-08T15:00:00	8	Radiación solar	128
82153	7	Sololá	704	Santa Lucía Utatlán 	7	Santa Rita 	3	Marzo	2023-03-15T00:00:00	2024-11-08T16:00:00	2	Temperatura media	21.1
82154	7	Sololá	704	Santa Lucía Utatlán 	7	Santa Rita 	3	Marzo	2023-03-15T00:00:00	2024-11-08T16:00:00	4	Temperatura máxima	22.5
82155	7	Sololá	704	Santa Lucía Utatlán 	7	Santa Rita 	3	Marzo	2023-03-15T00:00:00	2024-11-08T16:00:00	3	Temperatura mínima	20.9
82156	7	Sololá	704	Santa Lucía Utatlán 	7	Santa Rita 	3	Marzo	2023-03-15T00:00:00	2024-11-08T16:00:00	5	Humedad	80
82157	7	Sololá	704	Santa Lucía Utatlán 	7	Santa Rita 	3	Marzo	2023-03-15T00:00:00	2024-11-08T16:00:00	6	Velocidad del viento	3.2
82158	7	Sololá	704	Santa Lucía Utatlán 	7	Santa Rita 	3	Marzo	2023-03-15T00:00:00	2024-11-08T16:00:00	7	Dirección del viento	3.22
82159	7	Sololá	704	Santa Lucía Utatlán 	7	Santa Rita 	3	Marzo	2023-03-15T00:00:00	2024-11-08T16:00:00	1	Precipitación	0
82160	7	Sololá	704	Santa Lucía Utatlán 	7	Santa Rita 	3	Marzo	2023-03-15T00:00:00	2024-11-08T16:00:00	8	Radiación solar	96
82161	7	Sololá	704	Santa Lucía Utatlán 	7	Santa Rita 	3	Marzo	2023-03-15T00:00:00	2024-11-08T17:00:00	2	Temperatura media	19.8
82162	7	Sololá	704	Santa Lucía Utatlán 	7	Santa Rita 	3	Marzo	2023-03-15T00:00:00	2024-11-08T17:00:00	4	Temperatura máxima	21.1
82163	7	Sololá	704	Santa Lucía Utatlán 	7	Santa Rita 	3	Marzo	2023-03-15T00:00:00	2024-11-08T17:00:00	3	Temperatura mínima	19.8
82164	7	Sololá	704	Santa Lucía Utatlán 	7	Santa Rita 	3	Marzo	2023-03-15T00:00:00	2024-11-08T17:00:00	5	Humedad	82
82165	7	Sololá	704	Santa Lucía Utatlán 	7	Santa Rita 	3	Marzo	2023-03-15T00:00:00	2024-11-08T17:00:00	6	Velocidad del viento	3.2
82166	7	Sololá	704	Santa Lucía Utatlán 	7	Santa Rita 	3	Marzo	2023-03-15T00:00:00	2024-11-08T17:00:00	7	Dirección del viento	3.22
82167	7	Sololá	704	Santa Lucía Utatlán 	7	Santa Rita 	3	Marzo	2023-03-15T00:00:00	2024-11-08T17:00:00	1	Precipitación	0
82168	7	Sololá	704	Santa Lucía Utatlán 	7	Santa Rita 	3	Marzo	2023-03-15T00:00:00	2024-11-08T17:00:00	8	Radiación solar	22
82169	7	Sololá	704	Santa Lucía Utatlán 	7	Santa Rita 	3	Marzo	2023-03-15T00:00:00	2024-11-08T18:00:00	2	Temperatura media	19.1
82170	7	Sololá	704	Santa Lucía Utatlán 	7	Santa Rita 	3	Marzo	2023-03-15T00:00:00	2024-11-08T18:00:00	4	Temperatura máxima	19.8
82171	7	Sololá	704	Santa Lucía Utatlán 	7	Santa Rita 	3	Marzo	2023-03-15T00:00:00	2024-11-08T18:00:00	3	Temperatura mínima	19
82172	7	Sololá	704	Santa Lucía Utatlán 	7	Santa Rita 	3	Marzo	2023-03-15T00:00:00	2024-11-08T18:00:00	5	Humedad	84
82173	7	Sololá	704	Santa Lucía Utatlán 	7	Santa Rita 	3	Marzo	2023-03-15T00:00:00	2024-11-08T18:00:00	6	Velocidad del viento	0
82174	7	Sololá	704	Santa Lucía Utatlán 	7	Santa Rita 	3	Marzo	2023-03-15T00:00:00	2024-11-08T18:00:00	7	Dirección del viento	0
82175	7	Sololá	704	Santa Lucía Utatlán 	7	Santa Rita 	3	Marzo	2023-03-15T00:00:00	2024-11-08T18:00:00	1	Precipitación	3.6
82176	7	Sololá	704	Santa Lucía Utatlán 	7	Santa Rita 	3	Marzo	2023-03-15T00:00:00	2024-11-08T18:00:00	8	Radiación solar	19
82177	7	Sololá	704	Santa Lucía Utatlán 	7	Santa Rita 	3	Marzo	2023-03-15T00:00:00	2024-11-08T19:00:00	2	Temperatura media	17.4
82178	7	Sololá	704	Santa Lucía Utatlán 	7	Santa Rita 	3	Marzo	2023-03-15T00:00:00	2024-11-08T19:00:00	4	Temperatura máxima	19.1
82179	7	Sololá	704	Santa Lucía Utatlán 	7	Santa Rita 	3	Marzo	2023-03-15T00:00:00	2024-11-08T19:00:00	3	Temperatura mínima	17.4
82180	7	Sololá	704	Santa Lucía Utatlán 	7	Santa Rita 	3	Marzo	2023-03-15T00:00:00	2024-11-08T19:00:00	5	Humedad	92
82181	7	Sololá	704	Santa Lucía Utatlán 	7	Santa Rita 	3	Marzo	2023-03-15T00:00:00	2024-11-08T19:00:00	6	Velocidad del viento	1.6
82182	7	Sololá	704	Santa Lucía Utatlán 	7	Santa Rita 	3	Marzo	2023-03-15T00:00:00	2024-11-08T19:00:00	7	Dirección del viento	1.61
82183	7	Sololá	704	Santa Lucía Utatlán 	7	Santa Rita 	3	Marzo	2023-03-15T00:00:00	2024-11-08T19:00:00	1	Precipitación	1.4
82184	7	Sololá	704	Santa Lucía Utatlán 	7	Santa Rita 	3	Marzo	2023-03-15T00:00:00	2024-11-08T19:00:00	8	Radiación solar	0
82185	7	Sololá	704	Santa Lucía Utatlán 	7	Santa Rita 	3	Marzo	2023-03-15T00:00:00	2024-11-08T20:00:00	2	Temperatura media	15.8
82186	7	Sololá	704	Santa Lucía Utatlán 	7	Santa Rita 	3	Marzo	2023-03-15T00:00:00	2024-11-08T20:00:00	4	Temperatura máxima	17.5
82187	7	Sololá	704	Santa Lucía Utatlán 	7	Santa Rita 	3	Marzo	2023-03-15T00:00:00	2024-11-08T20:00:00	3	Temperatura mínima	15.8
82188	7	Sololá	704	Santa Lucía Utatlán 	7	Santa Rita 	3	Marzo	2023-03-15T00:00:00	2024-11-08T20:00:00	5	Humedad	91
82189	7	Sololá	704	Santa Lucía Utatlán 	7	Santa Rita 	3	Marzo	2023-03-15T00:00:00	2024-11-08T20:00:00	6	Velocidad del viento	1.6
82190	7	Sololá	704	Santa Lucía Utatlán 	7	Santa Rita 	3	Marzo	2023-03-15T00:00:00	2024-11-08T20:00:00	7	Dirección del viento	1.61
82191	7	Sololá	704	Santa Lucía Utatlán 	7	Santa Rita 	3	Marzo	2023-03-15T00:00:00	2024-11-08T20:00:00	1	Precipitación	2
82192	7	Sololá	704	Santa Lucía Utatlán 	7	Santa Rita 	3	Marzo	2023-03-15T00:00:00	2024-11-08T20:00:00	8	Radiación solar	0
82193	7	Sololá	704	Santa Lucía Utatlán 	7	Santa Rita 	3	Marzo	2023-03-15T00:00:00	2024-11-08T21:00:00	2	Temperatura media	15.3
82194	7	Sololá	704	Santa Lucía Utatlán 	7	Santa Rita 	3	Marzo	2023-03-15T00:00:00	2024-11-08T21:00:00	4	Temperatura máxima	15.8
82195	7	Sololá	704	Santa Lucía Utatlán 	7	Santa Rita 	3	Marzo	2023-03-15T00:00:00	2024-11-08T21:00:00	3	Temperatura mínima	15.2
82196	7	Sololá	704	Santa Lucía Utatlán 	7	Santa Rita 	3	Marzo	2023-03-15T00:00:00	2024-11-08T21:00:00	5	Humedad	89
82197	7	Sololá	704	Santa Lucía Utatlán 	7	Santa Rita 	3	Marzo	2023-03-15T00:00:00	2024-11-08T21:00:00	6	Velocidad del viento	1.6
82198	7	Sololá	704	Santa Lucía Utatlán 	7	Santa Rita 	3	Marzo	2023-03-15T00:00:00	2024-11-08T21:00:00	7	Dirección del viento	1.61
82199	7	Sololá	704	Santa Lucía Utatlán 	7	Santa Rita 	3	Marzo	2023-03-15T00:00:00	2024-11-08T21:00:00	1	Precipitación	0
82200	7	Sololá	704	Santa Lucía Utatlán 	7	Santa Rita 	3	Marzo	2023-03-15T00:00:00	2024-11-08T21:00:00	8	Radiación solar	0
82201	7	Sololá	704	Santa Lucía Utatlán 	7	Santa Rita 	3	Marzo	2023-03-15T00:00:00	2024-11-08T22:00:00	2	Temperatura media	17.7
82202	7	Sololá	704	Santa Lucía Utatlán 	7	Santa Rita 	3	Marzo	2023-03-15T00:00:00	2024-11-08T22:00:00	4	Temperatura máxima	18.2
82203	7	Sololá	704	Santa Lucía Utatlán 	7	Santa Rita 	3	Marzo	2023-03-15T00:00:00	2024-11-08T22:00:00	3	Temperatura mínima	15.3
82204	7	Sololá	704	Santa Lucía Utatlán 	7	Santa Rita 	3	Marzo	2023-03-15T00:00:00	2024-11-08T22:00:00	5	Humedad	80
82205	7	Sololá	704	Santa Lucía Utatlán 	7	Santa Rita 	3	Marzo	2023-03-15T00:00:00	2024-11-08T22:00:00	6	Velocidad del viento	4.8
82206	7	Sololá	704	Santa Lucía Utatlán 	7	Santa Rita 	3	Marzo	2023-03-15T00:00:00	2024-11-08T22:00:00	7	Dirección del viento	4.83
82207	7	Sololá	704	Santa Lucía Utatlán 	7	Santa Rita 	3	Marzo	2023-03-15T00:00:00	2024-11-08T22:00:00	1	Precipitación	0
82208	7	Sololá	704	Santa Lucía Utatlán 	7	Santa Rita 	3	Marzo	2023-03-15T00:00:00	2024-11-08T22:00:00	8	Radiación solar	0
82209	7	Sololá	704	Santa Lucía Utatlán 	7	Santa Rita 	3	Marzo	2023-03-15T00:00:00	2024-11-08T23:00:00	2	Temperatura media	17.7
82210	7	Sololá	704	Santa Lucía Utatlán 	7	Santa Rita 	3	Marzo	2023-03-15T00:00:00	2024-11-08T23:00:00	4	Temperatura máxima	18.1
82211	7	Sololá	704	Santa Lucía Utatlán 	7	Santa Rita 	3	Marzo	2023-03-15T00:00:00	2024-11-08T23:00:00	3	Temperatura mínima	17.4
82212	7	Sololá	704	Santa Lucía Utatlán 	7	Santa Rita 	3	Marzo	2023-03-15T00:00:00	2024-11-08T23:00:00	5	Humedad	80
82213	7	Sololá	704	Santa Lucía Utatlán 	7	Santa Rita 	3	Marzo	2023-03-15T00:00:00	2024-11-08T23:00:00	6	Velocidad del viento	4.8
82214	7	Sololá	704	Santa Lucía Utatlán 	7	Santa Rita 	3	Marzo	2023-03-15T00:00:00	2024-11-08T23:00:00	7	Dirección del viento	4.83
82215	7	Sololá	704	Santa Lucía Utatlán 	7	Santa Rita 	3	Marzo	2023-03-15T00:00:00	2024-11-08T23:00:00	1	Precipitación	0
82216	7	Sololá	704	Santa Lucía Utatlán 	7	Santa Rita 	3	Marzo	2023-03-15T00:00:00	2024-11-08T23:00:00	8	Radiación solar	0
82217	7	Sololá	704	Santa Lucía Utatlán 	7	Santa Rita 	3	Marzo	2023-03-16T00:00:00	2024-11-08T00:00:00	2	Temperatura media	18.4
82218	7	Sololá	704	Santa Lucía Utatlán 	7	Santa Rita 	3	Marzo	2023-03-16T00:00:00	2024-11-08T00:00:00	4	Temperatura máxima	18.4
82219	7	Sololá	704	Santa Lucía Utatlán 	7	Santa Rita 	3	Marzo	2023-03-16T00:00:00	2024-11-08T00:00:00	3	Temperatura mínima	17.3
82220	7	Sololá	704	Santa Lucía Utatlán 	7	Santa Rita 	3	Marzo	2023-03-16T00:00:00	2024-11-08T00:00:00	5	Humedad	72
82221	7	Sololá	704	Santa Lucía Utatlán 	7	Santa Rita 	3	Marzo	2023-03-16T00:00:00	2024-11-08T00:00:00	6	Velocidad del viento	6.4
82222	7	Sololá	704	Santa Lucía Utatlán 	7	Santa Rita 	3	Marzo	2023-03-16T00:00:00	2024-11-08T00:00:00	7	Dirección del viento	6.44
82223	7	Sololá	704	Santa Lucía Utatlán 	7	Santa Rita 	3	Marzo	2023-03-16T00:00:00	2024-11-08T00:00:00	1	Precipitación	0
82224	7	Sololá	704	Santa Lucía Utatlán 	7	Santa Rita 	3	Marzo	2023-03-16T00:00:00	2024-11-08T00:00:00	8	Radiación solar	0
82225	7	Sololá	704	Santa Lucía Utatlán 	7	Santa Rita 	3	Marzo	2023-03-16T00:00:00	2024-11-08T01:00:00	2	Temperatura media	18.2
82226	7	Sololá	704	Santa Lucía Utatlán 	7	Santa Rita 	3	Marzo	2023-03-16T00:00:00	2024-11-08T01:00:00	4	Temperatura máxima	18.6
82227	7	Sololá	704	Santa Lucía Utatlán 	7	Santa Rita 	3	Marzo	2023-03-16T00:00:00	2024-11-08T01:00:00	3	Temperatura mínima	18.2
82228	7	Sololá	704	Santa Lucía Utatlán 	7	Santa Rita 	3	Marzo	2023-03-16T00:00:00	2024-11-08T01:00:00	5	Humedad	74
82229	7	Sololá	704	Santa Lucía Utatlán 	7	Santa Rita 	3	Marzo	2023-03-16T00:00:00	2024-11-08T01:00:00	6	Velocidad del viento	11.3
82230	7	Sololá	704	Santa Lucía Utatlán 	7	Santa Rita 	3	Marzo	2023-03-16T00:00:00	2024-11-08T01:00:00	7	Dirección del viento	11.27
82231	7	Sololá	704	Santa Lucía Utatlán 	7	Santa Rita 	3	Marzo	2023-03-16T00:00:00	2024-11-08T01:00:00	1	Precipitación	0
82232	7	Sololá	704	Santa Lucía Utatlán 	7	Santa Rita 	3	Marzo	2023-03-16T00:00:00	2024-11-08T01:00:00	8	Radiación solar	0
82233	7	Sololá	704	Santa Lucía Utatlán 	7	Santa Rita 	3	Marzo	2023-03-16T00:00:00	2024-11-08T02:00:00	2	Temperatura media	17.9
82234	7	Sololá	704	Santa Lucía Utatlán 	7	Santa Rita 	3	Marzo	2023-03-16T00:00:00	2024-11-08T02:00:00	4	Temperatura máxima	18.4
82235	7	Sololá	704	Santa Lucía Utatlán 	7	Santa Rita 	3	Marzo	2023-03-16T00:00:00	2024-11-08T02:00:00	3	Temperatura mínima	16.9
82236	7	Sololá	704	Santa Lucía Utatlán 	7	Santa Rita 	3	Marzo	2023-03-16T00:00:00	2024-11-08T02:00:00	5	Humedad	74
82237	7	Sololá	704	Santa Lucía Utatlán 	7	Santa Rita 	3	Marzo	2023-03-16T00:00:00	2024-11-08T02:00:00	6	Velocidad del viento	6.4
82238	7	Sololá	704	Santa Lucía Utatlán 	7	Santa Rita 	3	Marzo	2023-03-16T00:00:00	2024-11-08T02:00:00	7	Dirección del viento	6.44
82239	7	Sololá	704	Santa Lucía Utatlán 	7	Santa Rita 	3	Marzo	2023-03-16T00:00:00	2024-11-08T02:00:00	1	Precipitación	0
82240	7	Sololá	704	Santa Lucía Utatlán 	7	Santa Rita 	3	Marzo	2023-03-16T00:00:00	2024-11-08T02:00:00	8	Radiación solar	0
82241	7	Sololá	704	Santa Lucía Utatlán 	7	Santa Rita 	3	Marzo	2023-03-16T00:00:00	2024-11-08T03:00:00	2	Temperatura media	18.1
82242	7	Sololá	704	Santa Lucía Utatlán 	7	Santa Rita 	3	Marzo	2023-03-16T00:00:00	2024-11-08T03:00:00	4	Temperatura máxima	18.3
82243	7	Sololá	704	Santa Lucía Utatlán 	7	Santa Rita 	3	Marzo	2023-03-16T00:00:00	2024-11-08T03:00:00	3	Temperatura mínima	17.7
82244	7	Sololá	704	Santa Lucía Utatlán 	7	Santa Rita 	3	Marzo	2023-03-16T00:00:00	2024-11-08T03:00:00	5	Humedad	72
82245	7	Sololá	704	Santa Lucía Utatlán 	7	Santa Rita 	3	Marzo	2023-03-16T00:00:00	2024-11-08T03:00:00	6	Velocidad del viento	8
82246	7	Sololá	704	Santa Lucía Utatlán 	7	Santa Rita 	3	Marzo	2023-03-16T00:00:00	2024-11-08T03:00:00	7	Dirección del viento	8.05
82247	7	Sololá	704	Santa Lucía Utatlán 	7	Santa Rita 	3	Marzo	2023-03-16T00:00:00	2024-11-08T03:00:00	1	Precipitación	0
82248	7	Sololá	704	Santa Lucía Utatlán 	7	Santa Rita 	3	Marzo	2023-03-16T00:00:00	2024-11-08T03:00:00	8	Radiación solar	0
82249	7	Sololá	704	Santa Lucía Utatlán 	7	Santa Rita 	3	Marzo	2023-03-16T00:00:00	2024-11-08T04:00:00	2	Temperatura media	15.9
82250	7	Sololá	704	Santa Lucía Utatlán 	7	Santa Rita 	3	Marzo	2023-03-16T00:00:00	2024-11-08T04:00:00	4	Temperatura máxima	18.1
82251	7	Sololá	704	Santa Lucía Utatlán 	7	Santa Rita 	3	Marzo	2023-03-16T00:00:00	2024-11-08T04:00:00	3	Temperatura mínima	15.9
82252	7	Sololá	704	Santa Lucía Utatlán 	7	Santa Rita 	3	Marzo	2023-03-16T00:00:00	2024-11-08T04:00:00	5	Humedad	77
82253	7	Sololá	704	Santa Lucía Utatlán 	7	Santa Rita 	3	Marzo	2023-03-16T00:00:00	2024-11-08T04:00:00	6	Velocidad del viento	6.4
82254	7	Sololá	704	Santa Lucía Utatlán 	7	Santa Rita 	3	Marzo	2023-03-16T00:00:00	2024-11-08T04:00:00	7	Dirección del viento	6.44
82255	7	Sololá	704	Santa Lucía Utatlán 	7	Santa Rita 	3	Marzo	2023-03-16T00:00:00	2024-11-08T04:00:00	1	Precipitación	0
82256	7	Sololá	704	Santa Lucía Utatlán 	7	Santa Rita 	3	Marzo	2023-03-16T00:00:00	2024-11-08T04:00:00	8	Radiación solar	0
82257	7	Sololá	704	Santa Lucía Utatlán 	7	Santa Rita 	3	Marzo	2023-03-16T00:00:00	2024-11-08T05:00:00	2	Temperatura media	14.6
82258	7	Sololá	704	Santa Lucía Utatlán 	7	Santa Rita 	3	Marzo	2023-03-16T00:00:00	2024-11-08T05:00:00	4	Temperatura máxima	15.9
82259	7	Sololá	704	Santa Lucía Utatlán 	7	Santa Rita 	3	Marzo	2023-03-16T00:00:00	2024-11-08T05:00:00	3	Temperatura mínima	14.4
82260	7	Sololá	704	Santa Lucía Utatlán 	7	Santa Rita 	3	Marzo	2023-03-16T00:00:00	2024-11-08T05:00:00	5	Humedad	82
82261	7	Sololá	704	Santa Lucía Utatlán 	7	Santa Rita 	3	Marzo	2023-03-16T00:00:00	2024-11-08T05:00:00	6	Velocidad del viento	1.6
82262	7	Sololá	704	Santa Lucía Utatlán 	7	Santa Rita 	3	Marzo	2023-03-16T00:00:00	2024-11-08T05:00:00	7	Dirección del viento	1.61
82263	7	Sololá	704	Santa Lucía Utatlán 	7	Santa Rita 	3	Marzo	2023-03-16T00:00:00	2024-11-08T05:00:00	1	Precipitación	0
82264	7	Sololá	704	Santa Lucía Utatlán 	7	Santa Rita 	3	Marzo	2023-03-16T00:00:00	2024-11-08T05:00:00	8	Radiación solar	0
82265	7	Sololá	704	Santa Lucía Utatlán 	7	Santa Rita 	3	Marzo	2023-03-16T00:00:00	2024-11-08T06:00:00	2	Temperatura media	14.5
82266	7	Sololá	704	Santa Lucía Utatlán 	7	Santa Rita 	3	Marzo	2023-03-16T00:00:00	2024-11-08T06:00:00	4	Temperatura máxima	14.6
82267	7	Sololá	704	Santa Lucía Utatlán 	7	Santa Rita 	3	Marzo	2023-03-16T00:00:00	2024-11-08T06:00:00	3	Temperatura mínima	14.3
82268	7	Sololá	704	Santa Lucía Utatlán 	7	Santa Rita 	3	Marzo	2023-03-16T00:00:00	2024-11-08T06:00:00	5	Humedad	83
82269	7	Sololá	704	Santa Lucía Utatlán 	7	Santa Rita 	3	Marzo	2023-03-16T00:00:00	2024-11-08T06:00:00	6	Velocidad del viento	3.2
82270	7	Sololá	704	Santa Lucía Utatlán 	7	Santa Rita 	3	Marzo	2023-03-16T00:00:00	2024-11-08T06:00:00	7	Dirección del viento	3.22
82271	7	Sololá	704	Santa Lucía Utatlán 	7	Santa Rita 	3	Marzo	2023-03-16T00:00:00	2024-11-08T06:00:00	1	Precipitación	0
82272	7	Sololá	704	Santa Lucía Utatlán 	7	Santa Rita 	3	Marzo	2023-03-16T00:00:00	2024-11-08T06:00:00	8	Radiación solar	0
82273	7	Sololá	704	Santa Lucía Utatlán 	7	Santa Rita 	3	Marzo	2023-03-16T00:00:00	2024-11-08T07:00:00	2	Temperatura media	15.2
82274	7	Sololá	704	Santa Lucía Utatlán 	7	Santa Rita 	3	Marzo	2023-03-16T00:00:00	2024-11-08T07:00:00	4	Temperatura máxima	15.6
82275	7	Sololá	704	Santa Lucía Utatlán 	7	Santa Rita 	3	Marzo	2023-03-16T00:00:00	2024-11-08T07:00:00	3	Temperatura mínima	14.5
82276	7	Sololá	704	Santa Lucía Utatlán 	7	Santa Rita 	3	Marzo	2023-03-16T00:00:00	2024-11-08T07:00:00	5	Humedad	82
82277	7	Sololá	704	Santa Lucía Utatlán 	7	Santa Rita 	3	Marzo	2023-03-16T00:00:00	2024-11-08T07:00:00	6	Velocidad del viento	3.2
82278	7	Sololá	704	Santa Lucía Utatlán 	7	Santa Rita 	3	Marzo	2023-03-16T00:00:00	2024-11-08T07:00:00	7	Dirección del viento	3.22
82279	7	Sololá	704	Santa Lucía Utatlán 	7	Santa Rita 	3	Marzo	2023-03-16T00:00:00	2024-11-08T07:00:00	1	Precipitación	0
82280	7	Sololá	704	Santa Lucía Utatlán 	7	Santa Rita 	3	Marzo	2023-03-16T00:00:00	2024-11-08T07:00:00	8	Radiación solar	26
82281	7	Sololá	704	Santa Lucía Utatlán 	7	Santa Rita 	3	Marzo	2023-03-16T00:00:00	2024-11-08T08:00:00	2	Temperatura media	18.7
82282	7	Sololá	704	Santa Lucía Utatlán 	7	Santa Rita 	3	Marzo	2023-03-16T00:00:00	2024-11-08T08:00:00	4	Temperatura máxima	18.7
82283	7	Sololá	704	Santa Lucía Utatlán 	7	Santa Rita 	3	Marzo	2023-03-16T00:00:00	2024-11-08T08:00:00	3	Temperatura mínima	15.3
82284	7	Sololá	704	Santa Lucía Utatlán 	7	Santa Rita 	3	Marzo	2023-03-16T00:00:00	2024-11-08T08:00:00	5	Humedad	69
82285	7	Sololá	704	Santa Lucía Utatlán 	7	Santa Rita 	3	Marzo	2023-03-16T00:00:00	2024-11-08T08:00:00	6	Velocidad del viento	8
82286	7	Sololá	704	Santa Lucía Utatlán 	7	Santa Rita 	3	Marzo	2023-03-16T00:00:00	2024-11-08T08:00:00	7	Dirección del viento	8.05
82287	7	Sololá	704	Santa Lucía Utatlán 	7	Santa Rita 	3	Marzo	2023-03-16T00:00:00	2024-11-08T08:00:00	1	Precipitación	0
82288	7	Sololá	704	Santa Lucía Utatlán 	7	Santa Rita 	3	Marzo	2023-03-16T00:00:00	2024-11-08T08:00:00	8	Radiación solar	295
82289	7	Sololá	704	Santa Lucía Utatlán 	7	Santa Rita 	3	Marzo	2023-03-16T00:00:00	2024-11-08T09:00:00	2	Temperatura media	19.6
82290	7	Sololá	704	Santa Lucía Utatlán 	7	Santa Rita 	3	Marzo	2023-03-16T00:00:00	2024-11-08T09:00:00	4	Temperatura máxima	19.9
82291	7	Sololá	704	Santa Lucía Utatlán 	7	Santa Rita 	3	Marzo	2023-03-16T00:00:00	2024-11-08T09:00:00	3	Temperatura mínima	18.8
82292	7	Sololá	704	Santa Lucía Utatlán 	7	Santa Rita 	3	Marzo	2023-03-16T00:00:00	2024-11-08T09:00:00	5	Humedad	71
82293	7	Sololá	704	Santa Lucía Utatlán 	7	Santa Rita 	3	Marzo	2023-03-16T00:00:00	2024-11-08T09:00:00	6	Velocidad del viento	4.8
82294	7	Sololá	704	Santa Lucía Utatlán 	7	Santa Rita 	3	Marzo	2023-03-16T00:00:00	2024-11-08T09:00:00	7	Dirección del viento	4.83
82295	7	Sololá	704	Santa Lucía Utatlán 	7	Santa Rita 	3	Marzo	2023-03-16T00:00:00	2024-11-08T09:00:00	1	Precipitación	0
82296	7	Sololá	704	Santa Lucía Utatlán 	7	Santa Rita 	3	Marzo	2023-03-16T00:00:00	2024-11-08T09:00:00	8	Radiación solar	558
82297	7	Sololá	704	Santa Lucía Utatlán 	7	Santa Rita 	3	Marzo	2023-03-16T00:00:00	2024-11-08T10:00:00	2	Temperatura media	21.4
82298	7	Sololá	704	Santa Lucía Utatlán 	7	Santa Rita 	3	Marzo	2023-03-16T00:00:00	2024-11-08T10:00:00	4	Temperatura máxima	21.4
82299	7	Sololá	704	Santa Lucía Utatlán 	7	Santa Rita 	3	Marzo	2023-03-16T00:00:00	2024-11-08T10:00:00	3	Temperatura mínima	19.6
82300	7	Sololá	704	Santa Lucía Utatlán 	7	Santa Rita 	3	Marzo	2023-03-16T00:00:00	2024-11-08T10:00:00	5	Humedad	66
82301	7	Sololá	704	Santa Lucía Utatlán 	7	Santa Rita 	3	Marzo	2023-03-16T00:00:00	2024-11-08T10:00:00	6	Velocidad del viento	4.8
82302	7	Sololá	704	Santa Lucía Utatlán 	7	Santa Rita 	3	Marzo	2023-03-16T00:00:00	2024-11-08T10:00:00	7	Dirección del viento	4.83
82303	7	Sololá	704	Santa Lucía Utatlán 	7	Santa Rita 	3	Marzo	2023-03-16T00:00:00	2024-11-08T10:00:00	1	Precipitación	0
82304	7	Sololá	704	Santa Lucía Utatlán 	7	Santa Rita 	3	Marzo	2023-03-16T00:00:00	2024-11-08T10:00:00	8	Radiación solar	782
82305	7	Sololá	704	Santa Lucía Utatlán 	7	Santa Rita 	3	Marzo	2023-03-16T00:00:00	2024-11-08T11:00:00	2	Temperatura media	22.7
82306	7	Sololá	704	Santa Lucía Utatlán 	7	Santa Rita 	3	Marzo	2023-03-16T00:00:00	2024-11-08T11:00:00	4	Temperatura máxima	22.7
82307	7	Sololá	704	Santa Lucía Utatlán 	7	Santa Rita 	3	Marzo	2023-03-16T00:00:00	2024-11-08T11:00:00	3	Temperatura mínima	21.4
82308	7	Sololá	704	Santa Lucía Utatlán 	7	Santa Rita 	3	Marzo	2023-03-16T00:00:00	2024-11-08T11:00:00	5	Humedad	61
82309	7	Sololá	704	Santa Lucía Utatlán 	7	Santa Rita 	3	Marzo	2023-03-16T00:00:00	2024-11-08T11:00:00	6	Velocidad del viento	6.4
82310	7	Sololá	704	Santa Lucía Utatlán 	7	Santa Rita 	3	Marzo	2023-03-16T00:00:00	2024-11-08T11:00:00	7	Dirección del viento	6.44
82311	7	Sololá	704	Santa Lucía Utatlán 	7	Santa Rita 	3	Marzo	2023-03-16T00:00:00	2024-11-08T11:00:00	1	Precipitación	0
82312	7	Sololá	704	Santa Lucía Utatlán 	7	Santa Rita 	3	Marzo	2023-03-16T00:00:00	2024-11-08T11:00:00	8	Radiación solar	985
82313	7	Sololá	704	Santa Lucía Utatlán 	7	Santa Rita 	3	Marzo	2023-03-16T00:00:00	2024-11-08T12:00:00	2	Temperatura media	23.2
82314	7	Sololá	704	Santa Lucía Utatlán 	7	Santa Rita 	3	Marzo	2023-03-16T00:00:00	2024-11-08T12:00:00	4	Temperatura máxima	23.4
82315	7	Sololá	704	Santa Lucía Utatlán 	7	Santa Rita 	3	Marzo	2023-03-16T00:00:00	2024-11-08T12:00:00	3	Temperatura mínima	22.5
82316	7	Sololá	704	Santa Lucía Utatlán 	7	Santa Rita 	3	Marzo	2023-03-16T00:00:00	2024-11-08T12:00:00	5	Humedad	65
82317	7	Sololá	704	Santa Lucía Utatlán 	7	Santa Rita 	3	Marzo	2023-03-16T00:00:00	2024-11-08T12:00:00	6	Velocidad del viento	8
82318	7	Sololá	704	Santa Lucía Utatlán 	7	Santa Rita 	3	Marzo	2023-03-16T00:00:00	2024-11-08T12:00:00	7	Dirección del viento	8.05
82319	7	Sololá	704	Santa Lucía Utatlán 	7	Santa Rita 	3	Marzo	2023-03-16T00:00:00	2024-11-08T12:00:00	1	Precipitación	0
82320	7	Sololá	704	Santa Lucía Utatlán 	7	Santa Rita 	3	Marzo	2023-03-16T00:00:00	2024-11-08T12:00:00	8	Radiación solar	327
82321	7	Sololá	704	Santa Lucía Utatlán 	7	Santa Rita 	3	Marzo	2023-03-16T00:00:00	2024-11-08T13:00:00	2	Temperatura media	22.6
82322	7	Sololá	704	Santa Lucía Utatlán 	7	Santa Rita 	3	Marzo	2023-03-16T00:00:00	2024-11-08T13:00:00	4	Temperatura máxima	23.2
82323	7	Sololá	704	Santa Lucía Utatlán 	7	Santa Rita 	3	Marzo	2023-03-16T00:00:00	2024-11-08T13:00:00	3	Temperatura mínima	22.3
82324	7	Sololá	704	Santa Lucía Utatlán 	7	Santa Rita 	3	Marzo	2023-03-16T00:00:00	2024-11-08T13:00:00	5	Humedad	71
82325	7	Sololá	704	Santa Lucía Utatlán 	7	Santa Rita 	3	Marzo	2023-03-16T00:00:00	2024-11-08T13:00:00	6	Velocidad del viento	4.8
82326	7	Sololá	704	Santa Lucía Utatlán 	7	Santa Rita 	3	Marzo	2023-03-16T00:00:00	2024-11-08T13:00:00	7	Dirección del viento	4.83
82327	7	Sololá	704	Santa Lucía Utatlán 	7	Santa Rita 	3	Marzo	2023-03-16T00:00:00	2024-11-08T13:00:00	1	Precipitación	0
82328	7	Sololá	704	Santa Lucía Utatlán 	7	Santa Rita 	3	Marzo	2023-03-16T00:00:00	2024-11-08T13:00:00	8	Radiación solar	229
82329	7	Sololá	704	Santa Lucía Utatlán 	7	Santa Rita 	3	Marzo	2023-03-16T00:00:00	2024-11-08T14:00:00	2	Temperatura media	22.1
82330	7	Sololá	704	Santa Lucía Utatlán 	7	Santa Rita 	3	Marzo	2023-03-16T00:00:00	2024-11-08T14:00:00	4	Temperatura máxima	22.7
82331	7	Sololá	704	Santa Lucía Utatlán 	7	Santa Rita 	3	Marzo	2023-03-16T00:00:00	2024-11-08T14:00:00	3	Temperatura mínima	21.7
82332	7	Sololá	704	Santa Lucía Utatlán 	7	Santa Rita 	3	Marzo	2023-03-16T00:00:00	2024-11-08T14:00:00	5	Humedad	78
82333	7	Sololá	704	Santa Lucía Utatlán 	7	Santa Rita 	3	Marzo	2023-03-16T00:00:00	2024-11-08T14:00:00	6	Velocidad del viento	4.8
82334	7	Sololá	704	Santa Lucía Utatlán 	7	Santa Rita 	3	Marzo	2023-03-16T00:00:00	2024-11-08T14:00:00	7	Dirección del viento	4.83
82335	7	Sololá	704	Santa Lucía Utatlán 	7	Santa Rita 	3	Marzo	2023-03-16T00:00:00	2024-11-08T14:00:00	1	Precipitación	0
82336	7	Sololá	704	Santa Lucía Utatlán 	7	Santa Rita 	3	Marzo	2023-03-16T00:00:00	2024-11-08T14:00:00	8	Radiación solar	247
82337	7	Sololá	704	Santa Lucía Utatlán 	7	Santa Rita 	3	Marzo	2023-03-16T00:00:00	2024-11-08T15:00:00	2	Temperatura media	21.1
82338	7	Sololá	704	Santa Lucía Utatlán 	7	Santa Rita 	3	Marzo	2023-03-16T00:00:00	2024-11-08T15:00:00	4	Temperatura máxima	22.3
82339	7	Sololá	704	Santa Lucía Utatlán 	7	Santa Rita 	3	Marzo	2023-03-16T00:00:00	2024-11-08T15:00:00	3	Temperatura mínima	21.1
82340	7	Sololá	704	Santa Lucía Utatlán 	7	Santa Rita 	3	Marzo	2023-03-16T00:00:00	2024-11-08T15:00:00	5	Humedad	83
82341	7	Sololá	704	Santa Lucía Utatlán 	7	Santa Rita 	3	Marzo	2023-03-16T00:00:00	2024-11-08T15:00:00	6	Velocidad del viento	6.4
82342	7	Sololá	704	Santa Lucía Utatlán 	7	Santa Rita 	3	Marzo	2023-03-16T00:00:00	2024-11-08T15:00:00	7	Dirección del viento	6.44
82343	7	Sololá	704	Santa Lucía Utatlán 	7	Santa Rita 	3	Marzo	2023-03-16T00:00:00	2024-11-08T15:00:00	1	Precipitación	0
82344	7	Sololá	704	Santa Lucía Utatlán 	7	Santa Rita 	3	Marzo	2023-03-16T00:00:00	2024-11-08T15:00:00	8	Radiación solar	97
82345	7	Sololá	704	Santa Lucía Utatlán 	7	Santa Rita 	3	Marzo	2023-03-16T00:00:00	2024-11-08T16:00:00	2	Temperatura media	20.6
82346	7	Sololá	704	Santa Lucía Utatlán 	7	Santa Rita 	3	Marzo	2023-03-16T00:00:00	2024-11-08T16:00:00	4	Temperatura máxima	21.2
82347	7	Sololá	704	Santa Lucía Utatlán 	7	Santa Rita 	3	Marzo	2023-03-16T00:00:00	2024-11-08T16:00:00	3	Temperatura mínima	20.1
82348	7	Sololá	704	Santa Lucía Utatlán 	7	Santa Rita 	3	Marzo	2023-03-16T00:00:00	2024-11-08T16:00:00	5	Humedad	83
82349	7	Sololá	704	Santa Lucía Utatlán 	7	Santa Rita 	3	Marzo	2023-03-16T00:00:00	2024-11-08T16:00:00	6	Velocidad del viento	4.8
82350	7	Sololá	704	Santa Lucía Utatlán 	7	Santa Rita 	3	Marzo	2023-03-16T00:00:00	2024-11-08T16:00:00	7	Dirección del viento	4.83
82351	7	Sololá	704	Santa Lucía Utatlán 	7	Santa Rita 	3	Marzo	2023-03-16T00:00:00	2024-11-08T16:00:00	1	Precipitación	0
82352	7	Sololá	704	Santa Lucía Utatlán 	7	Santa Rita 	3	Marzo	2023-03-16T00:00:00	2024-11-08T16:00:00	8	Radiación solar	240
82353	7	Sololá	704	Santa Lucía Utatlán 	7	Santa Rita 	3	Marzo	2023-03-16T00:00:00	2024-11-08T17:00:00	2	Temperatura media	21.3
82354	7	Sololá	704	Santa Lucía Utatlán 	7	Santa Rita 	3	Marzo	2023-03-16T00:00:00	2024-11-08T17:00:00	4	Temperatura máxima	21.3
82355	7	Sololá	704	Santa Lucía Utatlán 	7	Santa Rita 	3	Marzo	2023-03-16T00:00:00	2024-11-08T17:00:00	3	Temperatura mínima	20.6
82356	7	Sololá	704	Santa Lucía Utatlán 	7	Santa Rita 	3	Marzo	2023-03-16T00:00:00	2024-11-08T17:00:00	5	Humedad	80
82357	7	Sololá	704	Santa Lucía Utatlán 	7	Santa Rita 	3	Marzo	2023-03-16T00:00:00	2024-11-08T17:00:00	6	Velocidad del viento	3.2
82358	7	Sololá	704	Santa Lucía Utatlán 	7	Santa Rita 	3	Marzo	2023-03-16T00:00:00	2024-11-08T17:00:00	7	Dirección del viento	3.22
82359	7	Sololá	704	Santa Lucía Utatlán 	7	Santa Rita 	3	Marzo	2023-03-16T00:00:00	2024-11-08T17:00:00	1	Precipitación	0
82360	7	Sololá	704	Santa Lucía Utatlán 	7	Santa Rita 	3	Marzo	2023-03-16T00:00:00	2024-11-08T17:00:00	8	Radiación solar	318
82361	7	Sololá	704	Santa Lucía Utatlán 	7	Santa Rita 	3	Marzo	2023-03-16T00:00:00	2024-11-08T18:00:00	2	Temperatura media	19.7
82362	7	Sololá	704	Santa Lucía Utatlán 	7	Santa Rita 	3	Marzo	2023-03-16T00:00:00	2024-11-08T18:00:00	4	Temperatura máxima	21.9
82363	7	Sololá	704	Santa Lucía Utatlán 	7	Santa Rita 	3	Marzo	2023-03-16T00:00:00	2024-11-08T18:00:00	3	Temperatura mínima	19.7
82364	7	Sololá	704	Santa Lucía Utatlán 	7	Santa Rita 	3	Marzo	2023-03-16T00:00:00	2024-11-08T18:00:00	5	Humedad	88
82365	7	Sololá	704	Santa Lucía Utatlán 	7	Santa Rita 	3	Marzo	2023-03-16T00:00:00	2024-11-08T18:00:00	6	Velocidad del viento	6.4
82366	7	Sololá	704	Santa Lucía Utatlán 	7	Santa Rita 	3	Marzo	2023-03-16T00:00:00	2024-11-08T18:00:00	7	Dirección del viento	6.44
82367	7	Sololá	704	Santa Lucía Utatlán 	7	Santa Rita 	3	Marzo	2023-03-16T00:00:00	2024-11-08T18:00:00	1	Precipitación	0
82368	7	Sololá	704	Santa Lucía Utatlán 	7	Santa Rita 	3	Marzo	2023-03-16T00:00:00	2024-11-08T18:00:00	8	Radiación solar	15
82369	7	Sololá	704	Santa Lucía Utatlán 	7	Santa Rita 	3	Marzo	2023-03-16T00:00:00	2024-11-08T19:00:00	2	Temperatura media	19.4
82370	7	Sololá	704	Santa Lucía Utatlán 	7	Santa Rita 	3	Marzo	2023-03-16T00:00:00	2024-11-08T19:00:00	4	Temperatura máxima	19.7
82371	7	Sololá	704	Santa Lucía Utatlán 	7	Santa Rita 	3	Marzo	2023-03-16T00:00:00	2024-11-08T19:00:00	3	Temperatura mínima	18.9
82372	7	Sololá	704	Santa Lucía Utatlán 	7	Santa Rita 	3	Marzo	2023-03-16T00:00:00	2024-11-08T19:00:00	5	Humedad	79
82373	7	Sololá	704	Santa Lucía Utatlán 	7	Santa Rita 	3	Marzo	2023-03-16T00:00:00	2024-11-08T19:00:00	6	Velocidad del viento	3.2
82374	7	Sololá	704	Santa Lucía Utatlán 	7	Santa Rita 	3	Marzo	2023-03-16T00:00:00	2024-11-08T19:00:00	7	Dirección del viento	3.22
82375	7	Sololá	704	Santa Lucía Utatlán 	7	Santa Rita 	3	Marzo	2023-03-16T00:00:00	2024-11-08T19:00:00	1	Precipitación	0
82376	7	Sololá	704	Santa Lucía Utatlán 	7	Santa Rita 	3	Marzo	2023-03-16T00:00:00	2024-11-08T19:00:00	8	Radiación solar	0
82377	7	Sololá	704	Santa Lucía Utatlán 	7	Santa Rita 	3	Marzo	2023-03-16T00:00:00	2024-11-08T20:00:00	2	Temperatura media	18.7
82378	7	Sololá	704	Santa Lucía Utatlán 	7	Santa Rita 	3	Marzo	2023-03-16T00:00:00	2024-11-08T20:00:00	4	Temperatura máxima	19.4
82379	7	Sololá	704	Santa Lucía Utatlán 	7	Santa Rita 	3	Marzo	2023-03-16T00:00:00	2024-11-08T20:00:00	3	Temperatura mínima	18.7
82380	7	Sololá	704	Santa Lucía Utatlán 	7	Santa Rita 	3	Marzo	2023-03-16T00:00:00	2024-11-08T20:00:00	5	Humedad	80
82381	7	Sololá	704	Santa Lucía Utatlán 	7	Santa Rita 	3	Marzo	2023-03-16T00:00:00	2024-11-08T20:00:00	6	Velocidad del viento	1.6
82382	7	Sololá	704	Santa Lucía Utatlán 	7	Santa Rita 	3	Marzo	2023-03-16T00:00:00	2024-11-08T20:00:00	7	Dirección del viento	1.61
82383	7	Sololá	704	Santa Lucía Utatlán 	7	Santa Rita 	3	Marzo	2023-03-16T00:00:00	2024-11-08T20:00:00	1	Precipitación	0
82384	7	Sololá	704	Santa Lucía Utatlán 	7	Santa Rita 	3	Marzo	2023-03-16T00:00:00	2024-11-08T20:00:00	8	Radiación solar	0
82385	7	Sololá	704	Santa Lucía Utatlán 	7	Santa Rita 	3	Marzo	2023-03-16T00:00:00	2024-11-08T21:00:00	2	Temperatura media	17.1
82386	7	Sololá	704	Santa Lucía Utatlán 	7	Santa Rita 	3	Marzo	2023-03-16T00:00:00	2024-11-08T21:00:00	4	Temperatura máxima	18.7
82387	7	Sololá	704	Santa Lucía Utatlán 	7	Santa Rita 	3	Marzo	2023-03-16T00:00:00	2024-11-08T21:00:00	3	Temperatura mínima	17.1
82388	7	Sololá	704	Santa Lucía Utatlán 	7	Santa Rita 	3	Marzo	2023-03-16T00:00:00	2024-11-08T21:00:00	5	Humedad	84
82389	7	Sololá	704	Santa Lucía Utatlán 	7	Santa Rita 	3	Marzo	2023-03-16T00:00:00	2024-11-08T21:00:00	6	Velocidad del viento	1.6
82390	7	Sololá	704	Santa Lucía Utatlán 	7	Santa Rita 	3	Marzo	2023-03-16T00:00:00	2024-11-08T21:00:00	7	Dirección del viento	1.61
82391	7	Sololá	704	Santa Lucía Utatlán 	7	Santa Rita 	3	Marzo	2023-03-16T00:00:00	2024-11-08T21:00:00	1	Precipitación	0
82392	7	Sololá	704	Santa Lucía Utatlán 	7	Santa Rita 	3	Marzo	2023-03-16T00:00:00	2024-11-08T21:00:00	8	Radiación solar	0
82393	7	Sololá	704	Santa Lucía Utatlán 	7	Santa Rita 	3	Marzo	2023-03-16T00:00:00	2024-11-08T22:00:00	2	Temperatura media	16.4
82394	7	Sololá	704	Santa Lucía Utatlán 	7	Santa Rita 	3	Marzo	2023-03-16T00:00:00	2024-11-08T22:00:00	4	Temperatura máxima	17.1
82395	7	Sololá	704	Santa Lucía Utatlán 	7	Santa Rita 	3	Marzo	2023-03-16T00:00:00	2024-11-08T22:00:00	3	Temperatura mínima	16.4
82396	7	Sololá	704	Santa Lucía Utatlán 	7	Santa Rita 	3	Marzo	2023-03-16T00:00:00	2024-11-08T22:00:00	5	Humedad	85
82397	7	Sololá	704	Santa Lucía Utatlán 	7	Santa Rita 	3	Marzo	2023-03-16T00:00:00	2024-11-08T22:00:00	6	Velocidad del viento	3.2
82398	7	Sololá	704	Santa Lucía Utatlán 	7	Santa Rita 	3	Marzo	2023-03-16T00:00:00	2024-11-08T22:00:00	7	Dirección del viento	3.22
82399	7	Sololá	704	Santa Lucía Utatlán 	7	Santa Rita 	3	Marzo	2023-03-16T00:00:00	2024-11-08T22:00:00	1	Precipitación	0
82400	7	Sololá	704	Santa Lucía Utatlán 	7	Santa Rita 	3	Marzo	2023-03-16T00:00:00	2024-11-08T22:00:00	8	Radiación solar	0
82401	7	Sololá	704	Santa Lucía Utatlán 	7	Santa Rita 	3	Marzo	2023-03-16T00:00:00	2024-11-08T23:00:00	2	Temperatura media	16.3
82402	7	Sololá	704	Santa Lucía Utatlán 	7	Santa Rita 	3	Marzo	2023-03-16T00:00:00	2024-11-08T23:00:00	4	Temperatura máxima	16.4
82403	7	Sololá	704	Santa Lucía Utatlán 	7	Santa Rita 	3	Marzo	2023-03-16T00:00:00	2024-11-08T23:00:00	3	Temperatura mínima	16.1
82404	7	Sololá	704	Santa Lucía Utatlán 	7	Santa Rita 	3	Marzo	2023-03-16T00:00:00	2024-11-08T23:00:00	5	Humedad	87
82405	7	Sololá	704	Santa Lucía Utatlán 	7	Santa Rita 	3	Marzo	2023-03-16T00:00:00	2024-11-08T23:00:00	6	Velocidad del viento	3.2
82406	7	Sololá	704	Santa Lucía Utatlán 	7	Santa Rita 	3	Marzo	2023-03-16T00:00:00	2024-11-08T23:00:00	7	Dirección del viento	3.22
82407	7	Sololá	704	Santa Lucía Utatlán 	7	Santa Rita 	3	Marzo	2023-03-16T00:00:00	2024-11-08T23:00:00	1	Precipitación	0
82408	7	Sololá	704	Santa Lucía Utatlán 	7	Santa Rita 	3	Marzo	2023-03-16T00:00:00	2024-11-08T23:00:00	8	Radiación solar	0
82409	7	Sololá	704	Santa Lucía Utatlán 	7	Santa Rita 	3	Marzo	2023-03-17T00:00:00	2024-11-08T00:00:00	2	Temperatura media	16.1
82410	7	Sololá	704	Santa Lucía Utatlán 	7	Santa Rita 	3	Marzo	2023-03-17T00:00:00	2024-11-08T00:00:00	4	Temperatura máxima	16.4
82411	7	Sololá	704	Santa Lucía Utatlán 	7	Santa Rita 	3	Marzo	2023-03-17T00:00:00	2024-11-08T00:00:00	3	Temperatura mínima	16.1
82412	7	Sololá	704	Santa Lucía Utatlán 	7	Santa Rita 	3	Marzo	2023-03-17T00:00:00	2024-11-08T00:00:00	5	Humedad	89
82413	7	Sololá	704	Santa Lucía Utatlán 	7	Santa Rita 	3	Marzo	2023-03-17T00:00:00	2024-11-08T00:00:00	6	Velocidad del viento	0
82414	7	Sololá	704	Santa Lucía Utatlán 	7	Santa Rita 	3	Marzo	2023-03-17T00:00:00	2024-11-08T00:00:00	7	Dirección del viento	0
82415	7	Sololá	704	Santa Lucía Utatlán 	7	Santa Rita 	3	Marzo	2023-03-17T00:00:00	2024-11-08T00:00:00	1	Precipitación	0
82416	7	Sololá	704	Santa Lucía Utatlán 	7	Santa Rita 	3	Marzo	2023-03-17T00:00:00	2024-11-08T00:00:00	8	Radiación solar	0
82417	7	Sololá	704	Santa Lucía Utatlán 	7	Santa Rita 	3	Marzo	2023-03-17T00:00:00	2024-11-08T01:00:00	2	Temperatura media	17.1
82418	7	Sololá	704	Santa Lucía Utatlán 	7	Santa Rita 	3	Marzo	2023-03-17T00:00:00	2024-11-08T01:00:00	4	Temperatura máxima	17.1
82419	7	Sololá	704	Santa Lucía Utatlán 	7	Santa Rita 	3	Marzo	2023-03-17T00:00:00	2024-11-08T01:00:00	3	Temperatura mínima	16.1
82420	7	Sololá	704	Santa Lucía Utatlán 	7	Santa Rita 	3	Marzo	2023-03-17T00:00:00	2024-11-08T01:00:00	5	Humedad	87
82421	7	Sololá	704	Santa Lucía Utatlán 	7	Santa Rita 	3	Marzo	2023-03-17T00:00:00	2024-11-08T01:00:00	6	Velocidad del viento	0
82422	7	Sololá	704	Santa Lucía Utatlán 	7	Santa Rita 	3	Marzo	2023-03-17T00:00:00	2024-11-08T01:00:00	7	Dirección del viento	0
82423	7	Sololá	704	Santa Lucía Utatlán 	7	Santa Rita 	3	Marzo	2023-03-17T00:00:00	2024-11-08T01:00:00	1	Precipitación	0
82424	7	Sololá	704	Santa Lucía Utatlán 	7	Santa Rita 	3	Marzo	2023-03-17T00:00:00	2024-11-08T01:00:00	8	Radiación solar	0
82425	7	Sololá	704	Santa Lucía Utatlán 	7	Santa Rita 	3	Marzo	2023-03-17T00:00:00	2024-11-08T02:00:00	2	Temperatura media	17.2
82426	7	Sololá	704	Santa Lucía Utatlán 	7	Santa Rita 	3	Marzo	2023-03-17T00:00:00	2024-11-08T02:00:00	4	Temperatura máxima	17.3
82427	7	Sololá	704	Santa Lucía Utatlán 	7	Santa Rita 	3	Marzo	2023-03-17T00:00:00	2024-11-08T02:00:00	3	Temperatura mínima	17
82428	7	Sololá	704	Santa Lucía Utatlán 	7	Santa Rita 	3	Marzo	2023-03-17T00:00:00	2024-11-08T02:00:00	5	Humedad	87
82429	7	Sololá	704	Santa Lucía Utatlán 	7	Santa Rita 	3	Marzo	2023-03-17T00:00:00	2024-11-08T02:00:00	6	Velocidad del viento	0
82430	7	Sololá	704	Santa Lucía Utatlán 	7	Santa Rita 	3	Marzo	2023-03-17T00:00:00	2024-11-08T02:00:00	7	Dirección del viento	0
82431	7	Sololá	704	Santa Lucía Utatlán 	7	Santa Rita 	3	Marzo	2023-03-17T00:00:00	2024-11-08T02:00:00	1	Precipitación	0
82432	7	Sololá	704	Santa Lucía Utatlán 	7	Santa Rita 	3	Marzo	2023-03-17T00:00:00	2024-11-08T02:00:00	8	Radiación solar	0
82433	7	Sololá	704	Santa Lucía Utatlán 	7	Santa Rita 	3	Marzo	2023-03-17T00:00:00	2024-11-08T03:00:00	2	Temperatura media	16.7
82434	7	Sololá	704	Santa Lucía Utatlán 	7	Santa Rita 	3	Marzo	2023-03-17T00:00:00	2024-11-08T03:00:00	4	Temperatura máxima	17.2
82435	7	Sololá	704	Santa Lucía Utatlán 	7	Santa Rita 	3	Marzo	2023-03-17T00:00:00	2024-11-08T03:00:00	3	Temperatura mínima	16.6
82436	7	Sololá	704	Santa Lucía Utatlán 	7	Santa Rita 	3	Marzo	2023-03-17T00:00:00	2024-11-08T03:00:00	5	Humedad	89
82437	7	Sololá	704	Santa Lucía Utatlán 	7	Santa Rita 	3	Marzo	2023-03-17T00:00:00	2024-11-08T03:00:00	6	Velocidad del viento	0
82438	7	Sololá	704	Santa Lucía Utatlán 	7	Santa Rita 	3	Marzo	2023-03-17T00:00:00	2024-11-08T03:00:00	7	Dirección del viento	0
82439	7	Sololá	704	Santa Lucía Utatlán 	7	Santa Rita 	3	Marzo	2023-03-17T00:00:00	2024-11-08T03:00:00	1	Precipitación	0
82440	7	Sololá	704	Santa Lucía Utatlán 	7	Santa Rita 	3	Marzo	2023-03-17T00:00:00	2024-11-08T03:00:00	8	Radiación solar	0
82441	7	Sololá	704	Santa Lucía Utatlán 	7	Santa Rita 	3	Marzo	2023-03-17T00:00:00	2024-11-08T04:00:00	2	Temperatura media	15.9
82442	7	Sololá	704	Santa Lucía Utatlán 	7	Santa Rita 	3	Marzo	2023-03-17T00:00:00	2024-11-08T04:00:00	4	Temperatura máxima	16.8
82443	7	Sololá	704	Santa Lucía Utatlán 	7	Santa Rita 	3	Marzo	2023-03-17T00:00:00	2024-11-08T04:00:00	3	Temperatura mínima	15.9
82444	7	Sololá	704	Santa Lucía Utatlán 	7	Santa Rita 	3	Marzo	2023-03-17T00:00:00	2024-11-08T04:00:00	5	Humedad	84
82445	7	Sololá	704	Santa Lucía Utatlán 	7	Santa Rita 	3	Marzo	2023-03-17T00:00:00	2024-11-08T04:00:00	6	Velocidad del viento	3.2
82446	7	Sololá	704	Santa Lucía Utatlán 	7	Santa Rita 	3	Marzo	2023-03-17T00:00:00	2024-11-08T04:00:00	7	Dirección del viento	3.22
82447	7	Sololá	704	Santa Lucía Utatlán 	7	Santa Rita 	3	Marzo	2023-03-17T00:00:00	2024-11-08T04:00:00	1	Precipitación	0
82448	7	Sololá	704	Santa Lucía Utatlán 	7	Santa Rita 	3	Marzo	2023-03-17T00:00:00	2024-11-08T04:00:00	8	Radiación solar	0
82449	7	Sololá	704	Santa Lucía Utatlán 	7	Santa Rita 	3	Marzo	2023-03-17T00:00:00	2024-11-08T05:00:00	2	Temperatura media	15.5
82450	7	Sololá	704	Santa Lucía Utatlán 	7	Santa Rita 	3	Marzo	2023-03-17T00:00:00	2024-11-08T05:00:00	4	Temperatura máxima	15.9
82451	7	Sololá	704	Santa Lucía Utatlán 	7	Santa Rita 	3	Marzo	2023-03-17T00:00:00	2024-11-08T05:00:00	3	Temperatura mínima	15.4
82452	7	Sololá	704	Santa Lucía Utatlán 	7	Santa Rita 	3	Marzo	2023-03-17T00:00:00	2024-11-08T05:00:00	5	Humedad	87
82453	7	Sololá	704	Santa Lucía Utatlán 	7	Santa Rita 	3	Marzo	2023-03-17T00:00:00	2024-11-08T05:00:00	6	Velocidad del viento	4.8
82454	7	Sololá	704	Santa Lucía Utatlán 	7	Santa Rita 	3	Marzo	2023-03-17T00:00:00	2024-11-08T05:00:00	7	Dirección del viento	4.83
82455	7	Sololá	704	Santa Lucía Utatlán 	7	Santa Rita 	3	Marzo	2023-03-17T00:00:00	2024-11-08T05:00:00	1	Precipitación	0
82456	7	Sololá	704	Santa Lucía Utatlán 	7	Santa Rita 	3	Marzo	2023-03-17T00:00:00	2024-11-08T05:00:00	8	Radiación solar	0
82457	7	Sololá	704	Santa Lucía Utatlán 	7	Santa Rita 	3	Marzo	2023-03-17T00:00:00	2024-11-08T06:00:00	2	Temperatura media	15.4
82458	7	Sololá	704	Santa Lucía Utatlán 	7	Santa Rita 	3	Marzo	2023-03-17T00:00:00	2024-11-08T06:00:00	4	Temperatura máxima	16.1
82459	7	Sololá	704	Santa Lucía Utatlán 	7	Santa Rita 	3	Marzo	2023-03-17T00:00:00	2024-11-08T06:00:00	3	Temperatura mínima	15.4
82460	7	Sololá	704	Santa Lucía Utatlán 	7	Santa Rita 	3	Marzo	2023-03-17T00:00:00	2024-11-08T06:00:00	5	Humedad	85
82461	7	Sololá	704	Santa Lucía Utatlán 	7	Santa Rita 	3	Marzo	2023-03-17T00:00:00	2024-11-08T06:00:00	6	Velocidad del viento	3.2
82462	7	Sololá	704	Santa Lucía Utatlán 	7	Santa Rita 	3	Marzo	2023-03-17T00:00:00	2024-11-08T06:00:00	7	Dirección del viento	3.22
82463	7	Sololá	704	Santa Lucía Utatlán 	7	Santa Rita 	3	Marzo	2023-03-17T00:00:00	2024-11-08T06:00:00	1	Precipitación	0
82464	7	Sololá	704	Santa Lucía Utatlán 	7	Santa Rita 	3	Marzo	2023-03-17T00:00:00	2024-11-08T06:00:00	8	Radiación solar	0
82465	7	Sololá	704	Santa Lucía Utatlán 	7	Santa Rita 	3	Marzo	2023-03-17T00:00:00	2024-11-08T07:00:00	2	Temperatura media	14.7
82466	7	Sololá	704	Santa Lucía Utatlán 	7	Santa Rita 	3	Marzo	2023-03-17T00:00:00	2024-11-08T07:00:00	4	Temperatura máxima	15.3
82467	7	Sololá	704	Santa Lucía Utatlán 	7	Santa Rita 	3	Marzo	2023-03-17T00:00:00	2024-11-08T07:00:00	3	Temperatura mínima	14.7
82468	7	Sololá	704	Santa Lucía Utatlán 	7	Santa Rita 	3	Marzo	2023-03-17T00:00:00	2024-11-08T07:00:00	5	Humedad	87
82469	7	Sololá	704	Santa Lucía Utatlán 	7	Santa Rita 	3	Marzo	2023-03-17T00:00:00	2024-11-08T07:00:00	6	Velocidad del viento	1.6
82470	7	Sololá	704	Santa Lucía Utatlán 	7	Santa Rita 	3	Marzo	2023-03-17T00:00:00	2024-11-08T07:00:00	7	Dirección del viento	1.61
82471	7	Sololá	704	Santa Lucía Utatlán 	7	Santa Rita 	3	Marzo	2023-03-17T00:00:00	2024-11-08T07:00:00	1	Precipitación	0
82472	7	Sololá	704	Santa Lucía Utatlán 	7	Santa Rita 	3	Marzo	2023-03-17T00:00:00	2024-11-08T07:00:00	8	Radiación solar	29
82473	7	Sololá	704	Santa Lucía Utatlán 	7	Santa Rita 	3	Marzo	2023-03-17T00:00:00	2024-11-08T08:00:00	2	Temperatura media	14.9
82474	7	Sololá	704	Santa Lucía Utatlán 	7	Santa Rita 	3	Marzo	2023-03-17T00:00:00	2024-11-08T08:00:00	4	Temperatura máxima	15.4
82475	7	Sololá	704	Santa Lucía Utatlán 	7	Santa Rita 	3	Marzo	2023-03-17T00:00:00	2024-11-08T08:00:00	3	Temperatura mínima	14.6
82476	7	Sololá	704	Santa Lucía Utatlán 	7	Santa Rita 	3	Marzo	2023-03-17T00:00:00	2024-11-08T08:00:00	5	Humedad	87
82477	7	Sololá	704	Santa Lucía Utatlán 	7	Santa Rita 	3	Marzo	2023-03-17T00:00:00	2024-11-08T08:00:00	6	Velocidad del viento	1.6
82478	7	Sololá	704	Santa Lucía Utatlán 	7	Santa Rita 	3	Marzo	2023-03-17T00:00:00	2024-11-08T08:00:00	7	Dirección del viento	1.61
82479	7	Sololá	704	Santa Lucía Utatlán 	7	Santa Rita 	3	Marzo	2023-03-17T00:00:00	2024-11-08T08:00:00	1	Precipitación	0
82480	7	Sololá	704	Santa Lucía Utatlán 	7	Santa Rita 	3	Marzo	2023-03-17T00:00:00	2024-11-08T08:00:00	8	Radiación solar	306
82481	7	Sololá	704	Santa Lucía Utatlán 	7	Santa Rita 	3	Marzo	2023-03-17T00:00:00	2024-11-08T09:00:00	2	Temperatura media	19.8
82482	7	Sololá	704	Santa Lucía Utatlán 	7	Santa Rita 	3	Marzo	2023-03-17T00:00:00	2024-11-08T09:00:00	4	Temperatura máxima	19.8
82483	7	Sololá	704	Santa Lucía Utatlán 	7	Santa Rita 	3	Marzo	2023-03-17T00:00:00	2024-11-08T09:00:00	3	Temperatura mínima	14.9
82484	7	Sololá	704	Santa Lucía Utatlán 	7	Santa Rita 	3	Marzo	2023-03-17T00:00:00	2024-11-08T09:00:00	5	Humedad	72
82485	7	Sololá	704	Santa Lucía Utatlán 	7	Santa Rita 	3	Marzo	2023-03-17T00:00:00	2024-11-08T09:00:00	6	Velocidad del viento	1.6
82486	7	Sololá	704	Santa Lucía Utatlán 	7	Santa Rita 	3	Marzo	2023-03-17T00:00:00	2024-11-08T09:00:00	7	Dirección del viento	1.61
82487	7	Sololá	704	Santa Lucía Utatlán 	7	Santa Rita 	3	Marzo	2023-03-17T00:00:00	2024-11-08T09:00:00	1	Precipitación	0
82488	7	Sololá	704	Santa Lucía Utatlán 	7	Santa Rita 	3	Marzo	2023-03-17T00:00:00	2024-11-08T09:00:00	8	Radiación solar	439
82489	7	Sololá	704	Santa Lucía Utatlán 	7	Santa Rita 	3	Marzo	2023-03-17T00:00:00	2024-11-08T10:00:00	2	Temperatura media	21.6
82490	7	Sololá	704	Santa Lucía Utatlán 	7	Santa Rita 	3	Marzo	2023-03-17T00:00:00	2024-11-08T10:00:00	4	Temperatura máxima	21.8
82491	7	Sololá	704	Santa Lucía Utatlán 	7	Santa Rita 	3	Marzo	2023-03-17T00:00:00	2024-11-08T10:00:00	3	Temperatura mínima	19.8
82492	7	Sololá	704	Santa Lucía Utatlán 	7	Santa Rita 	3	Marzo	2023-03-17T00:00:00	2024-11-08T10:00:00	5	Humedad	63
82493	7	Sololá	704	Santa Lucía Utatlán 	7	Santa Rita 	3	Marzo	2023-03-17T00:00:00	2024-11-08T10:00:00	6	Velocidad del viento	3.2
82494	7	Sololá	704	Santa Lucía Utatlán 	7	Santa Rita 	3	Marzo	2023-03-17T00:00:00	2024-11-08T10:00:00	7	Dirección del viento	3.22
82495	7	Sololá	704	Santa Lucía Utatlán 	7	Santa Rita 	3	Marzo	2023-03-17T00:00:00	2024-11-08T10:00:00	1	Precipitación	0
82496	7	Sololá	704	Santa Lucía Utatlán 	7	Santa Rita 	3	Marzo	2023-03-17T00:00:00	2024-11-08T10:00:00	8	Radiación solar	700
82497	7	Sololá	704	Santa Lucía Utatlán 	7	Santa Rita 	3	Marzo	2023-03-17T00:00:00	2024-11-08T11:00:00	2	Temperatura media	22.7
82498	7	Sololá	704	Santa Lucía Utatlán 	7	Santa Rita 	3	Marzo	2023-03-17T00:00:00	2024-11-08T11:00:00	4	Temperatura máxima	23.2
82499	7	Sololá	704	Santa Lucía Utatlán 	7	Santa Rita 	3	Marzo	2023-03-17T00:00:00	2024-11-08T11:00:00	3	Temperatura mínima	21.6
82500	7	Sololá	704	Santa Lucía Utatlán 	7	Santa Rita 	3	Marzo	2023-03-17T00:00:00	2024-11-08T11:00:00	5	Humedad	64
82501	7	Sololá	704	Santa Lucía Utatlán 	7	Santa Rita 	3	Marzo	2023-03-17T00:00:00	2024-11-08T11:00:00	6	Velocidad del viento	4.8
82502	7	Sololá	704	Santa Lucía Utatlán 	7	Santa Rita 	3	Marzo	2023-03-17T00:00:00	2024-11-08T11:00:00	7	Dirección del viento	4.83
82503	7	Sololá	704	Santa Lucía Utatlán 	7	Santa Rita 	3	Marzo	2023-03-17T00:00:00	2024-11-08T11:00:00	1	Precipitación	0
82504	7	Sololá	704	Santa Lucía Utatlán 	7	Santa Rita 	3	Marzo	2023-03-17T00:00:00	2024-11-08T11:00:00	8	Radiación solar	275
82505	7	Sololá	704	Santa Lucía Utatlán 	7	Santa Rita 	3	Marzo	2023-03-17T00:00:00	2024-11-08T12:00:00	2	Temperatura media	21.9
82506	7	Sololá	704	Santa Lucía Utatlán 	7	Santa Rita 	3	Marzo	2023-03-17T00:00:00	2024-11-08T12:00:00	4	Temperatura máxima	22.8
82507	7	Sololá	704	Santa Lucía Utatlán 	7	Santa Rita 	3	Marzo	2023-03-17T00:00:00	2024-11-08T12:00:00	3	Temperatura mínima	21.7
82508	7	Sololá	704	Santa Lucía Utatlán 	7	Santa Rita 	3	Marzo	2023-03-17T00:00:00	2024-11-08T12:00:00	5	Humedad	68
82509	7	Sololá	704	Santa Lucía Utatlán 	7	Santa Rita 	3	Marzo	2023-03-17T00:00:00	2024-11-08T12:00:00	6	Velocidad del viento	6.4
82510	7	Sololá	704	Santa Lucía Utatlán 	7	Santa Rita 	3	Marzo	2023-03-17T00:00:00	2024-11-08T12:00:00	7	Dirección del viento	6.44
82511	7	Sololá	704	Santa Lucía Utatlán 	7	Santa Rita 	3	Marzo	2023-03-17T00:00:00	2024-11-08T12:00:00	1	Precipitación	0
82512	7	Sololá	704	Santa Lucía Utatlán 	7	Santa Rita 	3	Marzo	2023-03-17T00:00:00	2024-11-08T12:00:00	8	Radiación solar	228
82513	7	Sololá	704	Santa Lucía Utatlán 	7	Santa Rita 	3	Marzo	2023-03-17T00:00:00	2024-11-08T13:00:00	2	Temperatura media	21.6
82514	7	Sololá	704	Santa Lucía Utatlán 	7	Santa Rita 	3	Marzo	2023-03-17T00:00:00	2024-11-08T13:00:00	4	Temperatura máxima	22.1
82515	7	Sololá	704	Santa Lucía Utatlán 	7	Santa Rita 	3	Marzo	2023-03-17T00:00:00	2024-11-08T13:00:00	3	Temperatura mínima	21.1
82516	7	Sololá	704	Santa Lucía Utatlán 	7	Santa Rita 	3	Marzo	2023-03-17T00:00:00	2024-11-08T13:00:00	5	Humedad	76
82517	7	Sololá	704	Santa Lucía Utatlán 	7	Santa Rita 	3	Marzo	2023-03-17T00:00:00	2024-11-08T13:00:00	6	Velocidad del viento	6.4
82518	7	Sololá	704	Santa Lucía Utatlán 	7	Santa Rita 	3	Marzo	2023-03-17T00:00:00	2024-11-08T13:00:00	7	Dirección del viento	6.44
82519	7	Sololá	704	Santa Lucía Utatlán 	7	Santa Rita 	3	Marzo	2023-03-17T00:00:00	2024-11-08T13:00:00	1	Precipitación	0
82520	7	Sololá	704	Santa Lucía Utatlán 	7	Santa Rita 	3	Marzo	2023-03-17T00:00:00	2024-11-08T13:00:00	8	Radiación solar	787
82521	7	Sololá	704	Santa Lucía Utatlán 	7	Santa Rita 	3	Marzo	2023-03-17T00:00:00	2024-11-08T14:00:00	2	Temperatura media	22.4
82522	7	Sololá	704	Santa Lucía Utatlán 	7	Santa Rita 	3	Marzo	2023-03-17T00:00:00	2024-11-08T14:00:00	4	Temperatura máxima	23
82523	7	Sololá	704	Santa Lucía Utatlán 	7	Santa Rita 	3	Marzo	2023-03-17T00:00:00	2024-11-08T14:00:00	3	Temperatura mínima	21.6
82524	7	Sololá	704	Santa Lucía Utatlán 	7	Santa Rita 	3	Marzo	2023-03-17T00:00:00	2024-11-08T14:00:00	5	Humedad	74
82525	7	Sololá	704	Santa Lucía Utatlán 	7	Santa Rita 	3	Marzo	2023-03-17T00:00:00	2024-11-08T14:00:00	6	Velocidad del viento	8
82526	7	Sololá	704	Santa Lucía Utatlán 	7	Santa Rita 	3	Marzo	2023-03-17T00:00:00	2024-11-08T14:00:00	7	Dirección del viento	8.05
82527	7	Sololá	704	Santa Lucía Utatlán 	7	Santa Rita 	3	Marzo	2023-03-17T00:00:00	2024-11-08T14:00:00	1	Precipitación	0
82528	7	Sololá	704	Santa Lucía Utatlán 	7	Santa Rita 	3	Marzo	2023-03-17T00:00:00	2024-11-08T14:00:00	8	Radiación solar	211
82529	7	Sololá	704	Santa Lucía Utatlán 	7	Santa Rita 	3	Marzo	2023-03-17T00:00:00	2024-11-08T15:00:00	2	Temperatura media	19.8
82530	7	Sololá	704	Santa Lucía Utatlán 	7	Santa Rita 	3	Marzo	2023-03-17T00:00:00	2024-11-08T15:00:00	4	Temperatura máxima	23.1
82531	7	Sololá	704	Santa Lucía Utatlán 	7	Santa Rita 	3	Marzo	2023-03-17T00:00:00	2024-11-08T15:00:00	3	Temperatura mínima	19.8
82532	7	Sololá	704	Santa Lucía Utatlán 	7	Santa Rita 	3	Marzo	2023-03-17T00:00:00	2024-11-08T15:00:00	5	Humedad	87
82533	7	Sololá	704	Santa Lucía Utatlán 	7	Santa Rita 	3	Marzo	2023-03-17T00:00:00	2024-11-08T15:00:00	6	Velocidad del viento	6.4
82534	7	Sololá	704	Santa Lucía Utatlán 	7	Santa Rita 	3	Marzo	2023-03-17T00:00:00	2024-11-08T15:00:00	7	Dirección del viento	6.44
82535	7	Sololá	704	Santa Lucía Utatlán 	7	Santa Rita 	3	Marzo	2023-03-17T00:00:00	2024-11-08T15:00:00	1	Precipitación	0
82536	7	Sololá	704	Santa Lucía Utatlán 	7	Santa Rita 	3	Marzo	2023-03-17T00:00:00	2024-11-08T15:00:00	8	Radiación solar	201
82537	7	Sololá	704	Santa Lucía Utatlán 	7	Santa Rita 	3	Marzo	2023-03-17T00:00:00	2024-11-08T16:00:00	2	Temperatura media	20.2
82538	7	Sololá	704	Santa Lucía Utatlán 	7	Santa Rita 	3	Marzo	2023-03-17T00:00:00	2024-11-08T16:00:00	4	Temperatura máxima	20.2
82539	7	Sololá	704	Santa Lucía Utatlán 	7	Santa Rita 	3	Marzo	2023-03-17T00:00:00	2024-11-08T16:00:00	3	Temperatura mínima	19.4
82540	7	Sololá	704	Santa Lucía Utatlán 	7	Santa Rita 	3	Marzo	2023-03-17T00:00:00	2024-11-08T16:00:00	5	Humedad	83
82541	7	Sololá	704	Santa Lucía Utatlán 	7	Santa Rita 	3	Marzo	2023-03-17T00:00:00	2024-11-08T16:00:00	6	Velocidad del viento	1.6
82542	7	Sololá	704	Santa Lucía Utatlán 	7	Santa Rita 	3	Marzo	2023-03-17T00:00:00	2024-11-08T16:00:00	7	Dirección del viento	1.61
82543	7	Sololá	704	Santa Lucía Utatlán 	7	Santa Rita 	3	Marzo	2023-03-17T00:00:00	2024-11-08T16:00:00	1	Precipitación	0.6
82544	7	Sololá	704	Santa Lucía Utatlán 	7	Santa Rita 	3	Marzo	2023-03-17T00:00:00	2024-11-08T16:00:00	8	Radiación solar	389
82545	7	Sololá	704	Santa Lucía Utatlán 	7	Santa Rita 	3	Marzo	2023-03-17T00:00:00	2024-11-08T17:00:00	2	Temperatura media	21.5
82546	7	Sololá	704	Santa Lucía Utatlán 	7	Santa Rita 	3	Marzo	2023-03-17T00:00:00	2024-11-08T17:00:00	4	Temperatura máxima	21.9
82547	7	Sololá	704	Santa Lucía Utatlán 	7	Santa Rita 	3	Marzo	2023-03-17T00:00:00	2024-11-08T17:00:00	3	Temperatura mínima	20.2
82548	7	Sololá	704	Santa Lucía Utatlán 	7	Santa Rita 	3	Marzo	2023-03-17T00:00:00	2024-11-08T17:00:00	5	Humedad	68
82549	7	Sololá	704	Santa Lucía Utatlán 	7	Santa Rita 	3	Marzo	2023-03-17T00:00:00	2024-11-08T17:00:00	6	Velocidad del viento	3.2
82550	7	Sololá	704	Santa Lucía Utatlán 	7	Santa Rita 	3	Marzo	2023-03-17T00:00:00	2024-11-08T17:00:00	7	Dirección del viento	3.22
82551	7	Sololá	704	Santa Lucía Utatlán 	7	Santa Rita 	3	Marzo	2023-03-17T00:00:00	2024-11-08T17:00:00	1	Precipitación	0
82552	7	Sololá	704	Santa Lucía Utatlán 	7	Santa Rita 	3	Marzo	2023-03-17T00:00:00	2024-11-08T17:00:00	8	Radiación solar	120
82553	7	Sololá	704	Santa Lucía Utatlán 	7	Santa Rita 	3	Marzo	2023-03-17T00:00:00	2024-11-08T18:00:00	2	Temperatura media	19.1
82554	7	Sololá	704	Santa Lucía Utatlán 	7	Santa Rita 	3	Marzo	2023-03-17T00:00:00	2024-11-08T18:00:00	4	Temperatura máxima	21.6
82555	7	Sololá	704	Santa Lucía Utatlán 	7	Santa Rita 	3	Marzo	2023-03-17T00:00:00	2024-11-08T18:00:00	3	Temperatura mínima	19.1
82556	7	Sololá	704	Santa Lucía Utatlán 	7	Santa Rita 	3	Marzo	2023-03-17T00:00:00	2024-11-08T18:00:00	5	Humedad	85
82557	7	Sololá	704	Santa Lucía Utatlán 	7	Santa Rita 	3	Marzo	2023-03-17T00:00:00	2024-11-08T18:00:00	6	Velocidad del viento	3.2
82558	7	Sololá	704	Santa Lucía Utatlán 	7	Santa Rita 	3	Marzo	2023-03-17T00:00:00	2024-11-08T18:00:00	7	Dirección del viento	3.22
82559	7	Sololá	704	Santa Lucía Utatlán 	7	Santa Rita 	3	Marzo	2023-03-17T00:00:00	2024-11-08T18:00:00	1	Precipitación	0
82560	7	Sololá	704	Santa Lucía Utatlán 	7	Santa Rita 	3	Marzo	2023-03-17T00:00:00	2024-11-08T18:00:00	8	Radiación solar	35
82561	7	Sololá	704	Santa Lucía Utatlán 	7	Santa Rita 	3	Marzo	2023-03-17T00:00:00	2024-11-08T19:00:00	2	Temperatura media	19.2
82562	7	Sololá	704	Santa Lucía Utatlán 	7	Santa Rita 	3	Marzo	2023-03-17T00:00:00	2024-11-08T19:00:00	4	Temperatura máxima	19.2
82563	7	Sololá	704	Santa Lucía Utatlán 	7	Santa Rita 	3	Marzo	2023-03-17T00:00:00	2024-11-08T19:00:00	3	Temperatura mínima	18.9
82564	7	Sololá	704	Santa Lucía Utatlán 	7	Santa Rita 	3	Marzo	2023-03-17T00:00:00	2024-11-08T19:00:00	5	Humedad	83
82565	7	Sololá	704	Santa Lucía Utatlán 	7	Santa Rita 	3	Marzo	2023-03-17T00:00:00	2024-11-08T19:00:00	6	Velocidad del viento	3.2
82566	7	Sololá	704	Santa Lucía Utatlán 	7	Santa Rita 	3	Marzo	2023-03-17T00:00:00	2024-11-08T19:00:00	7	Dirección del viento	3.22
82567	7	Sololá	704	Santa Lucía Utatlán 	7	Santa Rita 	3	Marzo	2023-03-17T00:00:00	2024-11-08T19:00:00	1	Precipitación	0
82568	7	Sololá	704	Santa Lucía Utatlán 	7	Santa Rita 	3	Marzo	2023-03-17T00:00:00	2024-11-08T19:00:00	8	Radiación solar	0
82569	7	Sololá	704	Santa Lucía Utatlán 	7	Santa Rita 	3	Marzo	2023-03-17T00:00:00	2024-11-08T20:00:00	2	Temperatura media	18.3
82570	7	Sololá	704	Santa Lucía Utatlán 	7	Santa Rita 	3	Marzo	2023-03-17T00:00:00	2024-11-08T20:00:00	4	Temperatura máxima	19.3
82571	7	Sololá	704	Santa Lucía Utatlán 	7	Santa Rita 	3	Marzo	2023-03-17T00:00:00	2024-11-08T20:00:00	3	Temperatura mínima	18.3
82572	7	Sololá	704	Santa Lucía Utatlán 	7	Santa Rita 	3	Marzo	2023-03-17T00:00:00	2024-11-08T20:00:00	5	Humedad	87
82573	7	Sololá	704	Santa Lucía Utatlán 	7	Santa Rita 	3	Marzo	2023-03-17T00:00:00	2024-11-08T20:00:00	6	Velocidad del viento	0
82574	7	Sololá	704	Santa Lucía Utatlán 	7	Santa Rita 	3	Marzo	2023-03-17T00:00:00	2024-11-08T20:00:00	7	Dirección del viento	0
82575	7	Sololá	704	Santa Lucía Utatlán 	7	Santa Rita 	3	Marzo	2023-03-17T00:00:00	2024-11-08T20:00:00	1	Precipitación	0
82576	7	Sololá	704	Santa Lucía Utatlán 	7	Santa Rita 	3	Marzo	2023-03-17T00:00:00	2024-11-08T20:00:00	8	Radiación solar	0
82577	7	Sololá	704	Santa Lucía Utatlán 	7	Santa Rita 	3	Marzo	2023-03-17T00:00:00	2024-11-08T21:00:00	2	Temperatura media	17.8
82578	7	Sololá	704	Santa Lucía Utatlán 	7	Santa Rita 	3	Marzo	2023-03-17T00:00:00	2024-11-08T21:00:00	4	Temperatura máxima	18.4
82579	7	Sololá	704	Santa Lucía Utatlán 	7	Santa Rita 	3	Marzo	2023-03-17T00:00:00	2024-11-08T21:00:00	3	Temperatura mínima	17.7
82580	7	Sololá	704	Santa Lucía Utatlán 	7	Santa Rita 	3	Marzo	2023-03-17T00:00:00	2024-11-08T21:00:00	5	Humedad	90
82581	7	Sololá	704	Santa Lucía Utatlán 	7	Santa Rita 	3	Marzo	2023-03-17T00:00:00	2024-11-08T21:00:00	6	Velocidad del viento	0
82582	7	Sololá	704	Santa Lucía Utatlán 	7	Santa Rita 	3	Marzo	2023-03-17T00:00:00	2024-11-08T21:00:00	7	Dirección del viento	0
82583	7	Sololá	704	Santa Lucía Utatlán 	7	Santa Rita 	3	Marzo	2023-03-17T00:00:00	2024-11-08T21:00:00	1	Precipitación	0
82584	7	Sololá	704	Santa Lucía Utatlán 	7	Santa Rita 	3	Marzo	2023-03-17T00:00:00	2024-11-08T21:00:00	8	Radiación solar	0
82585	7	Sololá	704	Santa Lucía Utatlán 	7	Santa Rita 	3	Marzo	2023-03-17T00:00:00	2024-11-08T22:00:00	2	Temperatura media	17.1
82586	7	Sololá	704	Santa Lucía Utatlán 	7	Santa Rita 	3	Marzo	2023-03-17T00:00:00	2024-11-08T22:00:00	4	Temperatura máxima	17.9
82587	7	Sololá	704	Santa Lucía Utatlán 	7	Santa Rita 	3	Marzo	2023-03-17T00:00:00	2024-11-08T22:00:00	3	Temperatura mínima	17.1
82588	7	Sololá	704	Santa Lucía Utatlán 	7	Santa Rita 	3	Marzo	2023-03-17T00:00:00	2024-11-08T22:00:00	5	Humedad	91
82589	7	Sololá	704	Santa Lucía Utatlán 	7	Santa Rita 	3	Marzo	2023-03-17T00:00:00	2024-11-08T22:00:00	6	Velocidad del viento	0
82590	7	Sololá	704	Santa Lucía Utatlán 	7	Santa Rita 	3	Marzo	2023-03-17T00:00:00	2024-11-08T22:00:00	7	Dirección del viento	0
82591	7	Sololá	704	Santa Lucía Utatlán 	7	Santa Rita 	3	Marzo	2023-03-17T00:00:00	2024-11-08T22:00:00	1	Precipitación	0
82592	7	Sololá	704	Santa Lucía Utatlán 	7	Santa Rita 	3	Marzo	2023-03-17T00:00:00	2024-11-08T22:00:00	8	Radiación solar	0
82593	7	Sololá	704	Santa Lucía Utatlán 	7	Santa Rita 	3	Marzo	2023-03-17T00:00:00	2024-11-08T23:00:00	2	Temperatura media	17.1
82594	7	Sololá	704	Santa Lucía Utatlán 	7	Santa Rita 	3	Marzo	2023-03-17T00:00:00	2024-11-08T23:00:00	4	Temperatura máxima	17.2
82595	7	Sololá	704	Santa Lucía Utatlán 	7	Santa Rita 	3	Marzo	2023-03-17T00:00:00	2024-11-08T23:00:00	3	Temperatura mínima	16.9
82596	7	Sololá	704	Santa Lucía Utatlán 	7	Santa Rita 	3	Marzo	2023-03-17T00:00:00	2024-11-08T23:00:00	5	Humedad	92
82597	7	Sololá	704	Santa Lucía Utatlán 	7	Santa Rita 	3	Marzo	2023-03-17T00:00:00	2024-11-08T23:00:00	6	Velocidad del viento	0
82598	7	Sololá	704	Santa Lucía Utatlán 	7	Santa Rita 	3	Marzo	2023-03-17T00:00:00	2024-11-08T23:00:00	7	Dirección del viento	0
82599	7	Sololá	704	Santa Lucía Utatlán 	7	Santa Rita 	3	Marzo	2023-03-17T00:00:00	2024-11-08T23:00:00	1	Precipitación	0
82600	7	Sololá	704	Santa Lucía Utatlán 	7	Santa Rita 	3	Marzo	2023-03-17T00:00:00	2024-11-08T23:00:00	8	Radiación solar	0
82601	7	Sololá	704	Santa Lucía Utatlán 	7	Santa Rita 	3	Marzo	2023-03-18T00:00:00	2024-11-08T00:00:00	2	Temperatura media	16.4
82602	7	Sololá	704	Santa Lucía Utatlán 	7	Santa Rita 	3	Marzo	2023-03-18T00:00:00	2024-11-08T00:00:00	4	Temperatura máxima	17.1
82603	7	Sololá	704	Santa Lucía Utatlán 	7	Santa Rita 	3	Marzo	2023-03-18T00:00:00	2024-11-08T00:00:00	3	Temperatura mínima	16.4
82604	7	Sololá	704	Santa Lucía Utatlán 	7	Santa Rita 	3	Marzo	2023-03-18T00:00:00	2024-11-08T00:00:00	5	Humedad	90
82605	7	Sololá	704	Santa Lucía Utatlán 	7	Santa Rita 	3	Marzo	2023-03-18T00:00:00	2024-11-08T00:00:00	6	Velocidad del viento	1.6
82606	7	Sololá	704	Santa Lucía Utatlán 	7	Santa Rita 	3	Marzo	2023-03-18T00:00:00	2024-11-08T00:00:00	7	Dirección del viento	1.61
82607	7	Sololá	704	Santa Lucía Utatlán 	7	Santa Rita 	3	Marzo	2023-03-18T00:00:00	2024-11-08T00:00:00	1	Precipitación	0
82608	7	Sololá	704	Santa Lucía Utatlán 	7	Santa Rita 	3	Marzo	2023-03-18T00:00:00	2024-11-08T00:00:00	8	Radiación solar	0
82609	7	Sololá	704	Santa Lucía Utatlán 	7	Santa Rita 	3	Marzo	2023-03-18T00:00:00	2024-11-08T01:00:00	2	Temperatura media	15.3
82610	7	Sololá	704	Santa Lucía Utatlán 	7	Santa Rita 	3	Marzo	2023-03-18T00:00:00	2024-11-08T01:00:00	4	Temperatura máxima	16.4
82611	7	Sololá	704	Santa Lucía Utatlán 	7	Santa Rita 	3	Marzo	2023-03-18T00:00:00	2024-11-08T01:00:00	3	Temperatura mínima	15.3
82612	7	Sololá	704	Santa Lucía Utatlán 	7	Santa Rita 	3	Marzo	2023-03-18T00:00:00	2024-11-08T01:00:00	5	Humedad	77
82613	7	Sololá	704	Santa Lucía Utatlán 	7	Santa Rita 	3	Marzo	2023-03-18T00:00:00	2024-11-08T01:00:00	6	Velocidad del viento	3.2
82614	7	Sololá	704	Santa Lucía Utatlán 	7	Santa Rita 	3	Marzo	2023-03-18T00:00:00	2024-11-08T01:00:00	7	Dirección del viento	3.22
82615	7	Sololá	704	Santa Lucía Utatlán 	7	Santa Rita 	3	Marzo	2023-03-18T00:00:00	2024-11-08T01:00:00	1	Precipitación	0
82616	7	Sololá	704	Santa Lucía Utatlán 	7	Santa Rita 	3	Marzo	2023-03-18T00:00:00	2024-11-08T01:00:00	8	Radiación solar	0
82617	7	Sololá	704	Santa Lucía Utatlán 	7	Santa Rita 	3	Marzo	2023-03-18T00:00:00	2024-11-08T02:00:00	2	Temperatura media	14.9
82618	7	Sololá	704	Santa Lucía Utatlán 	7	Santa Rita 	3	Marzo	2023-03-18T00:00:00	2024-11-08T02:00:00	4	Temperatura máxima	15.3
82619	7	Sololá	704	Santa Lucía Utatlán 	7	Santa Rita 	3	Marzo	2023-03-18T00:00:00	2024-11-08T02:00:00	3	Temperatura mínima	14.9
82620	7	Sololá	704	Santa Lucía Utatlán 	7	Santa Rita 	3	Marzo	2023-03-18T00:00:00	2024-11-08T02:00:00	5	Humedad	71
82621	7	Sololá	704	Santa Lucía Utatlán 	7	Santa Rita 	3	Marzo	2023-03-18T00:00:00	2024-11-08T02:00:00	6	Velocidad del viento	3.2
82622	7	Sololá	704	Santa Lucía Utatlán 	7	Santa Rita 	3	Marzo	2023-03-18T00:00:00	2024-11-08T02:00:00	7	Dirección del viento	3.22
82623	7	Sololá	704	Santa Lucía Utatlán 	7	Santa Rita 	3	Marzo	2023-03-18T00:00:00	2024-11-08T02:00:00	1	Precipitación	0
82624	7	Sololá	704	Santa Lucía Utatlán 	7	Santa Rita 	3	Marzo	2023-03-18T00:00:00	2024-11-08T02:00:00	8	Radiación solar	0
82625	7	Sololá	704	Santa Lucía Utatlán 	7	Santa Rita 	3	Marzo	2023-03-18T00:00:00	2024-11-08T03:00:00	2	Temperatura media	14.5
82626	7	Sololá	704	Santa Lucía Utatlán 	7	Santa Rita 	3	Marzo	2023-03-18T00:00:00	2024-11-08T03:00:00	4	Temperatura máxima	15
82627	7	Sololá	704	Santa Lucía Utatlán 	7	Santa Rita 	3	Marzo	2023-03-18T00:00:00	2024-11-08T03:00:00	3	Temperatura mínima	14.4
82628	7	Sololá	704	Santa Lucía Utatlán 	7	Santa Rita 	3	Marzo	2023-03-18T00:00:00	2024-11-08T03:00:00	5	Humedad	72
82629	7	Sololá	704	Santa Lucía Utatlán 	7	Santa Rita 	3	Marzo	2023-03-18T00:00:00	2024-11-08T03:00:00	6	Velocidad del viento	3.2
82630	7	Sololá	704	Santa Lucía Utatlán 	7	Santa Rita 	3	Marzo	2023-03-18T00:00:00	2024-11-08T03:00:00	7	Dirección del viento	3.22
82631	7	Sololá	704	Santa Lucía Utatlán 	7	Santa Rita 	3	Marzo	2023-03-18T00:00:00	2024-11-08T03:00:00	1	Precipitación	0
82632	7	Sololá	704	Santa Lucía Utatlán 	7	Santa Rita 	3	Marzo	2023-03-18T00:00:00	2024-11-08T03:00:00	8	Radiación solar	0
82633	7	Sololá	704	Santa Lucía Utatlán 	7	Santa Rita 	3	Marzo	2023-03-18T00:00:00	2024-11-08T04:00:00	2	Temperatura media	15
82634	7	Sololá	704	Santa Lucía Utatlán 	7	Santa Rita 	3	Marzo	2023-03-18T00:00:00	2024-11-08T04:00:00	4	Temperatura máxima	15.1
82635	7	Sololá	704	Santa Lucía Utatlán 	7	Santa Rita 	3	Marzo	2023-03-18T00:00:00	2024-11-08T04:00:00	3	Temperatura mínima	14.4
82636	7	Sololá	704	Santa Lucía Utatlán 	7	Santa Rita 	3	Marzo	2023-03-18T00:00:00	2024-11-08T04:00:00	5	Humedad	73
82637	7	Sololá	704	Santa Lucía Utatlán 	7	Santa Rita 	3	Marzo	2023-03-18T00:00:00	2024-11-08T04:00:00	6	Velocidad del viento	1.6
82638	7	Sololá	704	Santa Lucía Utatlán 	7	Santa Rita 	3	Marzo	2023-03-18T00:00:00	2024-11-08T04:00:00	7	Dirección del viento	1.61
82639	7	Sololá	704	Santa Lucía Utatlán 	7	Santa Rita 	3	Marzo	2023-03-18T00:00:00	2024-11-08T04:00:00	1	Precipitación	0
82640	7	Sololá	704	Santa Lucía Utatlán 	7	Santa Rita 	3	Marzo	2023-03-18T00:00:00	2024-11-08T04:00:00	8	Radiación solar	0
82641	7	Sololá	704	Santa Lucía Utatlán 	7	Santa Rita 	3	Marzo	2023-03-18T00:00:00	2024-11-08T05:00:00	2	Temperatura media	15.1
82642	7	Sololá	704	Santa Lucía Utatlán 	7	Santa Rita 	3	Marzo	2023-03-18T00:00:00	2024-11-08T05:00:00	4	Temperatura máxima	15.7
82643	7	Sololá	704	Santa Lucía Utatlán 	7	Santa Rita 	3	Marzo	2023-03-18T00:00:00	2024-11-08T05:00:00	3	Temperatura mínima	14.8
82644	7	Sololá	704	Santa Lucía Utatlán 	7	Santa Rita 	3	Marzo	2023-03-18T00:00:00	2024-11-08T05:00:00	5	Humedad	71
82645	7	Sololá	704	Santa Lucía Utatlán 	7	Santa Rita 	3	Marzo	2023-03-18T00:00:00	2024-11-08T05:00:00	6	Velocidad del viento	3.2
82646	7	Sololá	704	Santa Lucía Utatlán 	7	Santa Rita 	3	Marzo	2023-03-18T00:00:00	2024-11-08T05:00:00	7	Dirección del viento	3.22
82647	7	Sololá	704	Santa Lucía Utatlán 	7	Santa Rita 	3	Marzo	2023-03-18T00:00:00	2024-11-08T05:00:00	1	Precipitación	0
82648	7	Sololá	704	Santa Lucía Utatlán 	7	Santa Rita 	3	Marzo	2023-03-18T00:00:00	2024-11-08T05:00:00	8	Radiación solar	0
82649	7	Sololá	704	Santa Lucía Utatlán 	7	Santa Rita 	3	Marzo	2023-03-18T00:00:00	2024-11-08T06:00:00	2	Temperatura media	15.1
82650	7	Sololá	704	Santa Lucía Utatlán 	7	Santa Rita 	3	Marzo	2023-03-18T00:00:00	2024-11-08T06:00:00	4	Temperatura máxima	15.2
82651	7	Sololá	704	Santa Lucía Utatlán 	7	Santa Rita 	3	Marzo	2023-03-18T00:00:00	2024-11-08T06:00:00	3	Temperatura mínima	14.6
82652	7	Sololá	704	Santa Lucía Utatlán 	7	Santa Rita 	3	Marzo	2023-03-18T00:00:00	2024-11-08T06:00:00	5	Humedad	63
82653	7	Sololá	704	Santa Lucía Utatlán 	7	Santa Rita 	3	Marzo	2023-03-18T00:00:00	2024-11-08T06:00:00	6	Velocidad del viento	3.2
82654	7	Sololá	704	Santa Lucía Utatlán 	7	Santa Rita 	3	Marzo	2023-03-18T00:00:00	2024-11-08T06:00:00	7	Dirección del viento	3.22
82655	7	Sololá	704	Santa Lucía Utatlán 	7	Santa Rita 	3	Marzo	2023-03-18T00:00:00	2024-11-08T06:00:00	1	Precipitación	0
82656	7	Sololá	704	Santa Lucía Utatlán 	7	Santa Rita 	3	Marzo	2023-03-18T00:00:00	2024-11-08T06:00:00	8	Radiación solar	0
82657	7	Sololá	704	Santa Lucía Utatlán 	7	Santa Rita 	3	Marzo	2023-03-18T00:00:00	2024-11-08T07:00:00	2	Temperatura media	15.3
82658	7	Sololá	704	Santa Lucía Utatlán 	7	Santa Rita 	3	Marzo	2023-03-18T00:00:00	2024-11-08T07:00:00	4	Temperatura máxima	15.3
82659	7	Sololá	704	Santa Lucía Utatlán 	7	Santa Rita 	3	Marzo	2023-03-18T00:00:00	2024-11-08T07:00:00	3	Temperatura mínima	15
82660	7	Sololá	704	Santa Lucía Utatlán 	7	Santa Rita 	3	Marzo	2023-03-18T00:00:00	2024-11-08T07:00:00	5	Humedad	55
82661	7	Sololá	704	Santa Lucía Utatlán 	7	Santa Rita 	3	Marzo	2023-03-18T00:00:00	2024-11-08T07:00:00	6	Velocidad del viento	4.8
82662	7	Sololá	704	Santa Lucía Utatlán 	7	Santa Rita 	3	Marzo	2023-03-18T00:00:00	2024-11-08T07:00:00	7	Dirección del viento	4.83
82663	7	Sololá	704	Santa Lucía Utatlán 	7	Santa Rita 	3	Marzo	2023-03-18T00:00:00	2024-11-08T07:00:00	1	Precipitación	0
82664	7	Sololá	704	Santa Lucía Utatlán 	7	Santa Rita 	3	Marzo	2023-03-18T00:00:00	2024-11-08T07:00:00	8	Radiación solar	26
82665	7	Sololá	704	Santa Lucía Utatlán 	7	Santa Rita 	3	Marzo	2023-03-18T00:00:00	2024-11-08T08:00:00	2	Temperatura media	16.8
82666	7	Sololá	704	Santa Lucía Utatlán 	7	Santa Rita 	3	Marzo	2023-03-18T00:00:00	2024-11-08T08:00:00	4	Temperatura máxima	16.8
82667	7	Sololá	704	Santa Lucía Utatlán 	7	Santa Rita 	3	Marzo	2023-03-18T00:00:00	2024-11-08T08:00:00	3	Temperatura mínima	15.2
82668	7	Sololá	704	Santa Lucía Utatlán 	7	Santa Rita 	3	Marzo	2023-03-18T00:00:00	2024-11-08T08:00:00	5	Humedad	48
82669	7	Sololá	704	Santa Lucía Utatlán 	7	Santa Rita 	3	Marzo	2023-03-18T00:00:00	2024-11-08T08:00:00	6	Velocidad del viento	3.2
82670	7	Sololá	704	Santa Lucía Utatlán 	7	Santa Rita 	3	Marzo	2023-03-18T00:00:00	2024-11-08T08:00:00	7	Dirección del viento	3.22
82671	7	Sololá	704	Santa Lucía Utatlán 	7	Santa Rita 	3	Marzo	2023-03-18T00:00:00	2024-11-08T08:00:00	1	Precipitación	0
82672	7	Sololá	704	Santa Lucía Utatlán 	7	Santa Rita 	3	Marzo	2023-03-18T00:00:00	2024-11-08T08:00:00	8	Radiación solar	311
82673	7	Sololá	704	Santa Lucía Utatlán 	7	Santa Rita 	3	Marzo	2023-03-18T00:00:00	2024-11-08T09:00:00	2	Temperatura media	20.1
82674	7	Sololá	704	Santa Lucía Utatlán 	7	Santa Rita 	3	Marzo	2023-03-18T00:00:00	2024-11-08T09:00:00	4	Temperatura máxima	20.1
82675	7	Sololá	704	Santa Lucía Utatlán 	7	Santa Rita 	3	Marzo	2023-03-18T00:00:00	2024-11-08T09:00:00	3	Temperatura mínima	16.8
82676	7	Sololá	704	Santa Lucía Utatlán 	7	Santa Rita 	3	Marzo	2023-03-18T00:00:00	2024-11-08T09:00:00	5	Humedad	46
82677	7	Sololá	704	Santa Lucía Utatlán 	7	Santa Rita 	3	Marzo	2023-03-18T00:00:00	2024-11-08T09:00:00	6	Velocidad del viento	3.2
82678	7	Sololá	704	Santa Lucía Utatlán 	7	Santa Rita 	3	Marzo	2023-03-18T00:00:00	2024-11-08T09:00:00	7	Dirección del viento	3.22
82679	7	Sololá	704	Santa Lucía Utatlán 	7	Santa Rita 	3	Marzo	2023-03-18T00:00:00	2024-11-08T09:00:00	1	Precipitación	0
82680	7	Sololá	704	Santa Lucía Utatlán 	7	Santa Rita 	3	Marzo	2023-03-18T00:00:00	2024-11-08T09:00:00	8	Radiación solar	559
82681	7	Sololá	704	Santa Lucía Utatlán 	7	Santa Rita 	3	Marzo	2023-03-18T00:00:00	2024-11-08T10:00:00	2	Temperatura media	22.6
82682	7	Sololá	704	Santa Lucía Utatlán 	7	Santa Rita 	3	Marzo	2023-03-18T00:00:00	2024-11-08T10:00:00	4	Temperatura máxima	22.6
82683	7	Sololá	704	Santa Lucía Utatlán 	7	Santa Rita 	3	Marzo	2023-03-18T00:00:00	2024-11-08T10:00:00	3	Temperatura mínima	20.1
82684	7	Sololá	704	Santa Lucía Utatlán 	7	Santa Rita 	3	Marzo	2023-03-18T00:00:00	2024-11-08T10:00:00	5	Humedad	46
82685	7	Sololá	704	Santa Lucía Utatlán 	7	Santa Rita 	3	Marzo	2023-03-18T00:00:00	2024-11-08T10:00:00	6	Velocidad del viento	3.2
82686	7	Sololá	704	Santa Lucía Utatlán 	7	Santa Rita 	3	Marzo	2023-03-18T00:00:00	2024-11-08T10:00:00	7	Dirección del viento	3.22
82687	7	Sololá	704	Santa Lucía Utatlán 	7	Santa Rita 	3	Marzo	2023-03-18T00:00:00	2024-11-08T10:00:00	1	Precipitación	0
82688	7	Sololá	704	Santa Lucía Utatlán 	7	Santa Rita 	3	Marzo	2023-03-18T00:00:00	2024-11-08T10:00:00	8	Radiación solar	764
82689	7	Sololá	704	Santa Lucía Utatlán 	7	Santa Rita 	3	Marzo	2023-03-18T00:00:00	2024-11-08T11:00:00	2	Temperatura media	23.6
82690	7	Sololá	704	Santa Lucía Utatlán 	7	Santa Rita 	3	Marzo	2023-03-18T00:00:00	2024-11-08T11:00:00	4	Temperatura máxima	23.8
82691	7	Sololá	704	Santa Lucía Utatlán 	7	Santa Rita 	3	Marzo	2023-03-18T00:00:00	2024-11-08T11:00:00	3	Temperatura mínima	22.6
82692	7	Sololá	704	Santa Lucía Utatlán 	7	Santa Rita 	3	Marzo	2023-03-18T00:00:00	2024-11-08T11:00:00	5	Humedad	52
82693	7	Sololá	704	Santa Lucía Utatlán 	7	Santa Rita 	3	Marzo	2023-03-18T00:00:00	2024-11-08T11:00:00	6	Velocidad del viento	8
82694	7	Sololá	704	Santa Lucía Utatlán 	7	Santa Rita 	3	Marzo	2023-03-18T00:00:00	2024-11-08T11:00:00	7	Dirección del viento	8.05
82695	7	Sololá	704	Santa Lucía Utatlán 	7	Santa Rita 	3	Marzo	2023-03-18T00:00:00	2024-11-08T11:00:00	1	Precipitación	0
82696	7	Sololá	704	Santa Lucía Utatlán 	7	Santa Rita 	3	Marzo	2023-03-18T00:00:00	2024-11-08T11:00:00	8	Radiación solar	939
82697	7	Sololá	704	Santa Lucía Utatlán 	7	Santa Rita 	3	Marzo	2023-03-18T00:00:00	2024-11-08T12:00:00	2	Temperatura media	24.2
82698	7	Sololá	704	Santa Lucía Utatlán 	7	Santa Rita 	3	Marzo	2023-03-18T00:00:00	2024-11-08T12:00:00	4	Temperatura máxima	24.5
82699	7	Sololá	704	Santa Lucía Utatlán 	7	Santa Rita 	3	Marzo	2023-03-18T00:00:00	2024-11-08T12:00:00	3	Temperatura mínima	23.2
82700	7	Sololá	704	Santa Lucía Utatlán 	7	Santa Rita 	3	Marzo	2023-03-18T00:00:00	2024-11-08T12:00:00	5	Humedad	47
82701	7	Sololá	704	Santa Lucía Utatlán 	7	Santa Rita 	3	Marzo	2023-03-18T00:00:00	2024-11-08T12:00:00	6	Velocidad del viento	8
82702	7	Sololá	704	Santa Lucía Utatlán 	7	Santa Rita 	3	Marzo	2023-03-18T00:00:00	2024-11-08T12:00:00	7	Dirección del viento	8.05
82703	7	Sololá	704	Santa Lucía Utatlán 	7	Santa Rita 	3	Marzo	2023-03-18T00:00:00	2024-11-08T12:00:00	1	Precipitación	0
82704	7	Sololá	704	Santa Lucía Utatlán 	7	Santa Rita 	3	Marzo	2023-03-18T00:00:00	2024-11-08T12:00:00	8	Radiación solar	680
82705	7	Sololá	704	Santa Lucía Utatlán 	7	Santa Rita 	3	Marzo	2023-03-18T00:00:00	2024-11-08T13:00:00	2	Temperatura media	22.6
82706	7	Sololá	704	Santa Lucía Utatlán 	7	Santa Rita 	3	Marzo	2023-03-18T00:00:00	2024-11-08T13:00:00	4	Temperatura máxima	24.3
82707	7	Sololá	704	Santa Lucía Utatlán 	7	Santa Rita 	3	Marzo	2023-03-18T00:00:00	2024-11-08T13:00:00	3	Temperatura mínima	22.6
82708	7	Sololá	704	Santa Lucía Utatlán 	7	Santa Rita 	3	Marzo	2023-03-18T00:00:00	2024-11-08T13:00:00	5	Humedad	59
82709	7	Sololá	704	Santa Lucía Utatlán 	7	Santa Rita 	3	Marzo	2023-03-18T00:00:00	2024-11-08T13:00:00	6	Velocidad del viento	9.7
82710	7	Sololá	704	Santa Lucía Utatlán 	7	Santa Rita 	3	Marzo	2023-03-18T00:00:00	2024-11-08T13:00:00	7	Dirección del viento	9.66
82711	7	Sololá	704	Santa Lucía Utatlán 	7	Santa Rita 	3	Marzo	2023-03-18T00:00:00	2024-11-08T13:00:00	1	Precipitación	0
82712	7	Sololá	704	Santa Lucía Utatlán 	7	Santa Rita 	3	Marzo	2023-03-18T00:00:00	2024-11-08T13:00:00	8	Radiación solar	175
82713	7	Sololá	704	Santa Lucía Utatlán 	7	Santa Rita 	3	Marzo	2023-03-18T00:00:00	2024-11-08T14:00:00	2	Temperatura media	22.3
82714	7	Sololá	704	Santa Lucía Utatlán 	7	Santa Rita 	3	Marzo	2023-03-18T00:00:00	2024-11-08T14:00:00	4	Temperatura máxima	23.2
82715	7	Sololá	704	Santa Lucía Utatlán 	7	Santa Rita 	3	Marzo	2023-03-18T00:00:00	2024-11-08T14:00:00	3	Temperatura mínima	22.3
82716	7	Sololá	704	Santa Lucía Utatlán 	7	Santa Rita 	3	Marzo	2023-03-18T00:00:00	2024-11-08T14:00:00	5	Humedad	67
82717	7	Sololá	704	Santa Lucía Utatlán 	7	Santa Rita 	3	Marzo	2023-03-18T00:00:00	2024-11-08T14:00:00	6	Velocidad del viento	6.4
82718	7	Sololá	704	Santa Lucía Utatlán 	7	Santa Rita 	3	Marzo	2023-03-18T00:00:00	2024-11-08T14:00:00	7	Dirección del viento	6.44
82719	7	Sololá	704	Santa Lucía Utatlán 	7	Santa Rita 	3	Marzo	2023-03-18T00:00:00	2024-11-08T14:00:00	1	Precipitación	0
82720	7	Sololá	704	Santa Lucía Utatlán 	7	Santa Rita 	3	Marzo	2023-03-18T00:00:00	2024-11-08T14:00:00	8	Radiación solar	238
82721	7	Sololá	704	Santa Lucía Utatlán 	7	Santa Rita 	3	Marzo	2023-03-18T00:00:00	2024-11-08T15:00:00	2	Temperatura media	21.9
82722	7	Sololá	704	Santa Lucía Utatlán 	7	Santa Rita 	3	Marzo	2023-03-18T00:00:00	2024-11-08T15:00:00	4	Temperatura máxima	22.7
82723	7	Sololá	704	Santa Lucía Utatlán 	7	Santa Rita 	3	Marzo	2023-03-18T00:00:00	2024-11-08T15:00:00	3	Temperatura mínima	21.9
82724	7	Sololá	704	Santa Lucía Utatlán 	7	Santa Rita 	3	Marzo	2023-03-18T00:00:00	2024-11-08T15:00:00	5	Humedad	70
82725	7	Sololá	704	Santa Lucía Utatlán 	7	Santa Rita 	3	Marzo	2023-03-18T00:00:00	2024-11-08T15:00:00	6	Velocidad del viento	4.8
82726	7	Sololá	704	Santa Lucía Utatlán 	7	Santa Rita 	3	Marzo	2023-03-18T00:00:00	2024-11-08T15:00:00	7	Dirección del viento	4.83
82727	7	Sololá	704	Santa Lucía Utatlán 	7	Santa Rita 	3	Marzo	2023-03-18T00:00:00	2024-11-08T15:00:00	1	Precipitación	0
82728	7	Sololá	704	Santa Lucía Utatlán 	7	Santa Rita 	3	Marzo	2023-03-18T00:00:00	2024-11-08T15:00:00	8	Radiación solar	176
82729	7	Sololá	704	Santa Lucía Utatlán 	7	Santa Rita 	3	Marzo	2023-03-18T00:00:00	2024-11-08T16:00:00	2	Temperatura media	20.8
82730	7	Sololá	704	Santa Lucía Utatlán 	7	Santa Rita 	3	Marzo	2023-03-18T00:00:00	2024-11-08T16:00:00	4	Temperatura máxima	21.9
82731	7	Sololá	704	Santa Lucía Utatlán 	7	Santa Rita 	3	Marzo	2023-03-18T00:00:00	2024-11-08T16:00:00	3	Temperatura mínima	20.6
82732	7	Sololá	704	Santa Lucía Utatlán 	7	Santa Rita 	3	Marzo	2023-03-18T00:00:00	2024-11-08T16:00:00	5	Humedad	79
82733	7	Sololá	704	Santa Lucía Utatlán 	7	Santa Rita 	3	Marzo	2023-03-18T00:00:00	2024-11-08T16:00:00	6	Velocidad del viento	6.4
82734	7	Sololá	704	Santa Lucía Utatlán 	7	Santa Rita 	3	Marzo	2023-03-18T00:00:00	2024-11-08T16:00:00	7	Dirección del viento	6.44
82735	7	Sololá	704	Santa Lucía Utatlán 	7	Santa Rita 	3	Marzo	2023-03-18T00:00:00	2024-11-08T16:00:00	1	Precipitación	0
82736	7	Sololá	704	Santa Lucía Utatlán 	7	Santa Rita 	3	Marzo	2023-03-18T00:00:00	2024-11-08T16:00:00	8	Radiación solar	314
82737	7	Sololá	704	Santa Lucía Utatlán 	7	Santa Rita 	3	Marzo	2023-03-18T00:00:00	2024-11-08T17:00:00	2	Temperatura media	22.2
82738	7	Sololá	704	Santa Lucía Utatlán 	7	Santa Rita 	3	Marzo	2023-03-18T00:00:00	2024-11-08T17:00:00	4	Temperatura máxima	22.2
82739	7	Sololá	704	Santa Lucía Utatlán 	7	Santa Rita 	3	Marzo	2023-03-18T00:00:00	2024-11-08T17:00:00	3	Temperatura mínima	20.6
82740	7	Sololá	704	Santa Lucía Utatlán 	7	Santa Rita 	3	Marzo	2023-03-18T00:00:00	2024-11-08T17:00:00	5	Humedad	69
82741	7	Sololá	704	Santa Lucía Utatlán 	7	Santa Rita 	3	Marzo	2023-03-18T00:00:00	2024-11-08T17:00:00	6	Velocidad del viento	4.8
82742	7	Sololá	704	Santa Lucía Utatlán 	7	Santa Rita 	3	Marzo	2023-03-18T00:00:00	2024-11-08T17:00:00	7	Dirección del viento	4.83
82743	7	Sololá	704	Santa Lucía Utatlán 	7	Santa Rita 	3	Marzo	2023-03-18T00:00:00	2024-11-08T17:00:00	1	Precipitación	0
82744	7	Sololá	704	Santa Lucía Utatlán 	7	Santa Rita 	3	Marzo	2023-03-18T00:00:00	2024-11-08T17:00:00	8	Radiación solar	95
82745	7	Sololá	704	Santa Lucía Utatlán 	7	Santa Rita 	3	Marzo	2023-03-18T00:00:00	2024-11-08T18:00:00	2	Temperatura media	19.8
82746	7	Sololá	704	Santa Lucía Utatlán 	7	Santa Rita 	3	Marzo	2023-03-18T00:00:00	2024-11-08T18:00:00	4	Temperatura máxima	22.4
82747	7	Sololá	704	Santa Lucía Utatlán 	7	Santa Rita 	3	Marzo	2023-03-18T00:00:00	2024-11-08T18:00:00	3	Temperatura mínima	19.8
82748	7	Sololá	704	Santa Lucía Utatlán 	7	Santa Rita 	3	Marzo	2023-03-18T00:00:00	2024-11-08T18:00:00	5	Humedad	85
82749	7	Sololá	704	Santa Lucía Utatlán 	7	Santa Rita 	3	Marzo	2023-03-18T00:00:00	2024-11-08T18:00:00	6	Velocidad del viento	4.8
82750	7	Sololá	704	Santa Lucía Utatlán 	7	Santa Rita 	3	Marzo	2023-03-18T00:00:00	2024-11-08T18:00:00	7	Dirección del viento	4.83
82751	7	Sololá	704	Santa Lucía Utatlán 	7	Santa Rita 	3	Marzo	2023-03-18T00:00:00	2024-11-08T18:00:00	1	Precipitación	0
82752	7	Sololá	704	Santa Lucía Utatlán 	7	Santa Rita 	3	Marzo	2023-03-18T00:00:00	2024-11-08T18:00:00	8	Radiación solar	113
82753	7	Sololá	704	Santa Lucía Utatlán 	7	Santa Rita 	3	Marzo	2023-03-18T00:00:00	2024-11-08T19:00:00	2	Temperatura media	19.7
82754	7	Sololá	704	Santa Lucía Utatlán 	7	Santa Rita 	3	Marzo	2023-03-18T00:00:00	2024-11-08T19:00:00	4	Temperatura máxima	20.4
82755	7	Sololá	704	Santa Lucía Utatlán 	7	Santa Rita 	3	Marzo	2023-03-18T00:00:00	2024-11-08T19:00:00	3	Temperatura mínima	19.7
82756	7	Sololá	704	Santa Lucía Utatlán 	7	Santa Rita 	3	Marzo	2023-03-18T00:00:00	2024-11-08T19:00:00	5	Humedad	85
82757	7	Sololá	704	Santa Lucía Utatlán 	7	Santa Rita 	3	Marzo	2023-03-18T00:00:00	2024-11-08T19:00:00	6	Velocidad del viento	3.2
82758	7	Sololá	704	Santa Lucía Utatlán 	7	Santa Rita 	3	Marzo	2023-03-18T00:00:00	2024-11-08T19:00:00	7	Dirección del viento	3.22
82759	7	Sololá	704	Santa Lucía Utatlán 	7	Santa Rita 	3	Marzo	2023-03-18T00:00:00	2024-11-08T19:00:00	1	Precipitación	0
82760	7	Sololá	704	Santa Lucía Utatlán 	7	Santa Rita 	3	Marzo	2023-03-18T00:00:00	2024-11-08T19:00:00	8	Radiación solar	0
82761	7	Sololá	704	Santa Lucía Utatlán 	7	Santa Rita 	3	Marzo	2023-03-18T00:00:00	2024-11-08T20:00:00	2	Temperatura media	19.3
82762	7	Sololá	704	Santa Lucía Utatlán 	7	Santa Rita 	3	Marzo	2023-03-18T00:00:00	2024-11-08T20:00:00	4	Temperatura máxima	19.7
82763	7	Sololá	704	Santa Lucía Utatlán 	7	Santa Rita 	3	Marzo	2023-03-18T00:00:00	2024-11-08T20:00:00	3	Temperatura mínima	19.2
82764	7	Sololá	704	Santa Lucía Utatlán 	7	Santa Rita 	3	Marzo	2023-03-18T00:00:00	2024-11-08T20:00:00	5	Humedad	88
82765	7	Sololá	704	Santa Lucía Utatlán 	7	Santa Rita 	3	Marzo	2023-03-18T00:00:00	2024-11-08T20:00:00	6	Velocidad del viento	1.6
82766	7	Sololá	704	Santa Lucía Utatlán 	7	Santa Rita 	3	Marzo	2023-03-18T00:00:00	2024-11-08T20:00:00	7	Dirección del viento	1.61
82767	7	Sololá	704	Santa Lucía Utatlán 	7	Santa Rita 	3	Marzo	2023-03-18T00:00:00	2024-11-08T20:00:00	1	Precipitación	0
82768	7	Sololá	704	Santa Lucía Utatlán 	7	Santa Rita 	3	Marzo	2023-03-18T00:00:00	2024-11-08T20:00:00	8	Radiación solar	0
82769	7	Sololá	704	Santa Lucía Utatlán 	7	Santa Rita 	3	Marzo	2023-03-18T00:00:00	2024-11-08T21:00:00	2	Temperatura media	18.6
82770	7	Sololá	704	Santa Lucía Utatlán 	7	Santa Rita 	3	Marzo	2023-03-18T00:00:00	2024-11-08T21:00:00	4	Temperatura máxima	19.3
82771	7	Sololá	704	Santa Lucía Utatlán 	7	Santa Rita 	3	Marzo	2023-03-18T00:00:00	2024-11-08T21:00:00	3	Temperatura mínima	18.6
82772	7	Sololá	704	Santa Lucía Utatlán 	7	Santa Rita 	3	Marzo	2023-03-18T00:00:00	2024-11-08T21:00:00	5	Humedad	89
82773	7	Sololá	704	Santa Lucía Utatlán 	7	Santa Rita 	3	Marzo	2023-03-18T00:00:00	2024-11-08T21:00:00	6	Velocidad del viento	0
82774	7	Sololá	704	Santa Lucía Utatlán 	7	Santa Rita 	3	Marzo	2023-03-18T00:00:00	2024-11-08T21:00:00	7	Dirección del viento	0
82775	7	Sololá	704	Santa Lucía Utatlán 	7	Santa Rita 	3	Marzo	2023-03-18T00:00:00	2024-11-08T21:00:00	1	Precipitación	0
82776	7	Sololá	704	Santa Lucía Utatlán 	7	Santa Rita 	3	Marzo	2023-03-18T00:00:00	2024-11-08T21:00:00	8	Radiación solar	0
82777	7	Sololá	704	Santa Lucía Utatlán 	7	Santa Rita 	3	Marzo	2023-03-18T00:00:00	2024-11-08T22:00:00	2	Temperatura media	17.4
82778	7	Sololá	704	Santa Lucía Utatlán 	7	Santa Rita 	3	Marzo	2023-03-18T00:00:00	2024-11-08T22:00:00	4	Temperatura máxima	18.6
82779	7	Sololá	704	Santa Lucía Utatlán 	7	Santa Rita 	3	Marzo	2023-03-18T00:00:00	2024-11-08T22:00:00	3	Temperatura mínima	17.4
82780	7	Sololá	704	Santa Lucía Utatlán 	7	Santa Rita 	3	Marzo	2023-03-18T00:00:00	2024-11-08T22:00:00	5	Humedad	91
82781	7	Sololá	704	Santa Lucía Utatlán 	7	Santa Rita 	3	Marzo	2023-03-18T00:00:00	2024-11-08T22:00:00	6	Velocidad del viento	0
82782	7	Sololá	704	Santa Lucía Utatlán 	7	Santa Rita 	3	Marzo	2023-03-18T00:00:00	2024-11-08T22:00:00	7	Dirección del viento	0
82783	7	Sololá	704	Santa Lucía Utatlán 	7	Santa Rita 	3	Marzo	2023-03-18T00:00:00	2024-11-08T22:00:00	1	Precipitación	0
82784	7	Sololá	704	Santa Lucía Utatlán 	7	Santa Rita 	3	Marzo	2023-03-18T00:00:00	2024-11-08T22:00:00	8	Radiación solar	0
82785	7	Sololá	704	Santa Lucía Utatlán 	7	Santa Rita 	3	Marzo	2023-03-18T00:00:00	2024-11-08T23:00:00	2	Temperatura media	16.9
82786	7	Sololá	704	Santa Lucía Utatlán 	7	Santa Rita 	3	Marzo	2023-03-18T00:00:00	2024-11-08T23:00:00	4	Temperatura máxima	17.4
82787	7	Sololá	704	Santa Lucía Utatlán 	7	Santa Rita 	3	Marzo	2023-03-18T00:00:00	2024-11-08T23:00:00	3	Temperatura mínima	16.9
82788	7	Sololá	704	Santa Lucía Utatlán 	7	Santa Rita 	3	Marzo	2023-03-18T00:00:00	2024-11-08T23:00:00	5	Humedad	88
82789	7	Sololá	704	Santa Lucía Utatlán 	7	Santa Rita 	3	Marzo	2023-03-18T00:00:00	2024-11-08T23:00:00	6	Velocidad del viento	1.6
82790	7	Sololá	704	Santa Lucía Utatlán 	7	Santa Rita 	3	Marzo	2023-03-18T00:00:00	2024-11-08T23:00:00	7	Dirección del viento	1.61
82791	7	Sololá	704	Santa Lucía Utatlán 	7	Santa Rita 	3	Marzo	2023-03-18T00:00:00	2024-11-08T23:00:00	1	Precipitación	0
82792	7	Sololá	704	Santa Lucía Utatlán 	7	Santa Rita 	3	Marzo	2023-03-18T00:00:00	2024-11-08T23:00:00	8	Radiación solar	0
82793	7	Sololá	704	Santa Lucía Utatlán 	7	Santa Rita 	3	Marzo	2023-03-19T00:00:00	2024-11-08T00:00:00	2	Temperatura media	17.1
82794	7	Sololá	704	Santa Lucía Utatlán 	7	Santa Rita 	3	Marzo	2023-03-19T00:00:00	2024-11-08T00:00:00	4	Temperatura máxima	17.1
82795	7	Sololá	704	Santa Lucía Utatlán 	7	Santa Rita 	3	Marzo	2023-03-19T00:00:00	2024-11-08T00:00:00	3	Temperatura mínima	16.6
82796	7	Sololá	704	Santa Lucía Utatlán 	7	Santa Rita 	3	Marzo	2023-03-19T00:00:00	2024-11-08T00:00:00	5	Humedad	89
82797	7	Sololá	704	Santa Lucía Utatlán 	7	Santa Rita 	3	Marzo	2023-03-19T00:00:00	2024-11-08T00:00:00	6	Velocidad del viento	1.6
82798	7	Sololá	704	Santa Lucía Utatlán 	7	Santa Rita 	3	Marzo	2023-03-19T00:00:00	2024-11-08T00:00:00	7	Dirección del viento	1.61
82799	7	Sololá	704	Santa Lucía Utatlán 	7	Santa Rita 	3	Marzo	2023-03-19T00:00:00	2024-11-08T00:00:00	1	Precipitación	0
82800	7	Sololá	704	Santa Lucía Utatlán 	7	Santa Rita 	3	Marzo	2023-03-19T00:00:00	2024-11-08T00:00:00	8	Radiación solar	0
82801	7	Sololá	704	Santa Lucía Utatlán 	7	Santa Rita 	3	Marzo	2023-03-19T00:00:00	2024-11-08T01:00:00	2	Temperatura media	16.8
82802	7	Sololá	704	Santa Lucía Utatlán 	7	Santa Rita 	3	Marzo	2023-03-19T00:00:00	2024-11-08T01:00:00	4	Temperatura máxima	17.3
82803	7	Sololá	704	Santa Lucía Utatlán 	7	Santa Rita 	3	Marzo	2023-03-19T00:00:00	2024-11-08T01:00:00	3	Temperatura mínima	16.4
82804	7	Sololá	704	Santa Lucía Utatlán 	7	Santa Rita 	3	Marzo	2023-03-19T00:00:00	2024-11-08T01:00:00	5	Humedad	88
82805	7	Sololá	704	Santa Lucía Utatlán 	7	Santa Rita 	3	Marzo	2023-03-19T00:00:00	2024-11-08T01:00:00	6	Velocidad del viento	1.6
82806	7	Sololá	704	Santa Lucía Utatlán 	7	Santa Rita 	3	Marzo	2023-03-19T00:00:00	2024-11-08T01:00:00	7	Dirección del viento	1.61
82807	7	Sololá	704	Santa Lucía Utatlán 	7	Santa Rita 	3	Marzo	2023-03-19T00:00:00	2024-11-08T01:00:00	1	Precipitación	0
82808	7	Sololá	704	Santa Lucía Utatlán 	7	Santa Rita 	3	Marzo	2023-03-19T00:00:00	2024-11-08T01:00:00	8	Radiación solar	0
82809	7	Sololá	704	Santa Lucía Utatlán 	7	Santa Rita 	3	Marzo	2023-03-19T00:00:00	2024-11-08T02:00:00	2	Temperatura media	16.3
82810	7	Sololá	704	Santa Lucía Utatlán 	7	Santa Rita 	3	Marzo	2023-03-19T00:00:00	2024-11-08T02:00:00	4	Temperatura máxima	16.9
82811	7	Sololá	704	Santa Lucía Utatlán 	7	Santa Rita 	3	Marzo	2023-03-19T00:00:00	2024-11-08T02:00:00	3	Temperatura mínima	16.3
82812	7	Sololá	704	Santa Lucía Utatlán 	7	Santa Rita 	3	Marzo	2023-03-19T00:00:00	2024-11-08T02:00:00	5	Humedad	89
82813	7	Sololá	704	Santa Lucía Utatlán 	7	Santa Rita 	3	Marzo	2023-03-19T00:00:00	2024-11-08T02:00:00	6	Velocidad del viento	1.6
82814	7	Sololá	704	Santa Lucía Utatlán 	7	Santa Rita 	3	Marzo	2023-03-19T00:00:00	2024-11-08T02:00:00	7	Dirección del viento	1.61
82815	7	Sololá	704	Santa Lucía Utatlán 	7	Santa Rita 	3	Marzo	2023-03-19T00:00:00	2024-11-08T02:00:00	1	Precipitación	0
82816	7	Sololá	704	Santa Lucía Utatlán 	7	Santa Rita 	3	Marzo	2023-03-19T00:00:00	2024-11-08T02:00:00	8	Radiación solar	0
82817	7	Sololá	704	Santa Lucía Utatlán 	7	Santa Rita 	3	Marzo	2023-03-19T00:00:00	2024-11-08T03:00:00	2	Temperatura media	16.5
82818	7	Sololá	704	Santa Lucía Utatlán 	7	Santa Rita 	3	Marzo	2023-03-19T00:00:00	2024-11-08T03:00:00	4	Temperatura máxima	16.7
82819	7	Sololá	704	Santa Lucía Utatlán 	7	Santa Rita 	3	Marzo	2023-03-19T00:00:00	2024-11-08T03:00:00	3	Temperatura mínima	16.1
82820	7	Sololá	704	Santa Lucía Utatlán 	7	Santa Rita 	3	Marzo	2023-03-19T00:00:00	2024-11-08T03:00:00	5	Humedad	91
82821	7	Sololá	704	Santa Lucía Utatlán 	7	Santa Rita 	3	Marzo	2023-03-19T00:00:00	2024-11-08T03:00:00	6	Velocidad del viento	1.6
82822	7	Sololá	704	Santa Lucía Utatlán 	7	Santa Rita 	3	Marzo	2023-03-19T00:00:00	2024-11-08T03:00:00	7	Dirección del viento	1.61
82823	7	Sololá	704	Santa Lucía Utatlán 	7	Santa Rita 	3	Marzo	2023-03-19T00:00:00	2024-11-08T03:00:00	1	Precipitación	0
82824	7	Sololá	704	Santa Lucía Utatlán 	7	Santa Rita 	3	Marzo	2023-03-19T00:00:00	2024-11-08T03:00:00	8	Radiación solar	0
82825	7	Sololá	704	Santa Lucía Utatlán 	7	Santa Rita 	3	Marzo	2023-03-19T00:00:00	2024-11-08T04:00:00	2	Temperatura media	17.1
82826	7	Sololá	704	Santa Lucía Utatlán 	7	Santa Rita 	3	Marzo	2023-03-19T00:00:00	2024-11-08T04:00:00	4	Temperatura máxima	17.2
82827	7	Sololá	704	Santa Lucía Utatlán 	7	Santa Rita 	3	Marzo	2023-03-19T00:00:00	2024-11-08T04:00:00	3	Temperatura mínima	16.4
82828	7	Sololá	704	Santa Lucía Utatlán 	7	Santa Rita 	3	Marzo	2023-03-19T00:00:00	2024-11-08T04:00:00	5	Humedad	89
82829	7	Sololá	704	Santa Lucía Utatlán 	7	Santa Rita 	3	Marzo	2023-03-19T00:00:00	2024-11-08T04:00:00	6	Velocidad del viento	0
82830	7	Sololá	704	Santa Lucía Utatlán 	7	Santa Rita 	3	Marzo	2023-03-19T00:00:00	2024-11-08T04:00:00	7	Dirección del viento	0
82831	7	Sololá	704	Santa Lucía Utatlán 	7	Santa Rita 	3	Marzo	2023-03-19T00:00:00	2024-11-08T04:00:00	1	Precipitación	0
82832	7	Sololá	704	Santa Lucía Utatlán 	7	Santa Rita 	3	Marzo	2023-03-19T00:00:00	2024-11-08T04:00:00	8	Radiación solar	0
82833	7	Sololá	704	Santa Lucía Utatlán 	7	Santa Rita 	3	Marzo	2023-03-19T00:00:00	2024-11-08T05:00:00	2	Temperatura media	17.2
82834	7	Sololá	704	Santa Lucía Utatlán 	7	Santa Rita 	3	Marzo	2023-03-19T00:00:00	2024-11-08T05:00:00	4	Temperatura máxima	17.3
82835	7	Sololá	704	Santa Lucía Utatlán 	7	Santa Rita 	3	Marzo	2023-03-19T00:00:00	2024-11-08T05:00:00	3	Temperatura mínima	17.1
82836	7	Sololá	704	Santa Lucía Utatlán 	7	Santa Rita 	3	Marzo	2023-03-19T00:00:00	2024-11-08T05:00:00	5	Humedad	90
82837	7	Sololá	704	Santa Lucía Utatlán 	7	Santa Rita 	3	Marzo	2023-03-19T00:00:00	2024-11-08T05:00:00	6	Velocidad del viento	0
82838	7	Sololá	704	Santa Lucía Utatlán 	7	Santa Rita 	3	Marzo	2023-03-19T00:00:00	2024-11-08T05:00:00	7	Dirección del viento	0
82839	7	Sololá	704	Santa Lucía Utatlán 	7	Santa Rita 	3	Marzo	2023-03-19T00:00:00	2024-11-08T05:00:00	1	Precipitación	0
82840	7	Sololá	704	Santa Lucía Utatlán 	7	Santa Rita 	3	Marzo	2023-03-19T00:00:00	2024-11-08T05:00:00	8	Radiación solar	0
82841	7	Sololá	704	Santa Lucía Utatlán 	7	Santa Rita 	3	Marzo	2023-03-19T00:00:00	2024-11-08T06:00:00	2	Temperatura media	16.9
82842	7	Sololá	704	Santa Lucía Utatlán 	7	Santa Rita 	3	Marzo	2023-03-19T00:00:00	2024-11-08T06:00:00	4	Temperatura máxima	17.2
82843	7	Sololá	704	Santa Lucía Utatlán 	7	Santa Rita 	3	Marzo	2023-03-19T00:00:00	2024-11-08T06:00:00	3	Temperatura mínima	16.9
82844	7	Sololá	704	Santa Lucía Utatlán 	7	Santa Rita 	3	Marzo	2023-03-19T00:00:00	2024-11-08T06:00:00	5	Humedad	91
82845	7	Sololá	704	Santa Lucía Utatlán 	7	Santa Rita 	3	Marzo	2023-03-19T00:00:00	2024-11-08T06:00:00	6	Velocidad del viento	0
82846	7	Sololá	704	Santa Lucía Utatlán 	7	Santa Rita 	3	Marzo	2023-03-19T00:00:00	2024-11-08T06:00:00	7	Dirección del viento	0
82847	7	Sololá	704	Santa Lucía Utatlán 	7	Santa Rita 	3	Marzo	2023-03-19T00:00:00	2024-11-08T06:00:00	1	Precipitación	0
82848	7	Sololá	704	Santa Lucía Utatlán 	7	Santa Rita 	3	Marzo	2023-03-19T00:00:00	2024-11-08T06:00:00	8	Radiación solar	0
82849	7	Sololá	704	Santa Lucía Utatlán 	7	Santa Rita 	3	Marzo	2023-03-19T00:00:00	2024-11-08T07:00:00	2	Temperatura media	16
82850	7	Sololá	704	Santa Lucía Utatlán 	7	Santa Rita 	3	Marzo	2023-03-19T00:00:00	2024-11-08T07:00:00	4	Temperatura máxima	17
82851	7	Sololá	704	Santa Lucía Utatlán 	7	Santa Rita 	3	Marzo	2023-03-19T00:00:00	2024-11-08T07:00:00	3	Temperatura mínima	16
82852	7	Sololá	704	Santa Lucía Utatlán 	7	Santa Rita 	3	Marzo	2023-03-19T00:00:00	2024-11-08T07:00:00	5	Humedad	87
82853	7	Sololá	704	Santa Lucía Utatlán 	7	Santa Rita 	3	Marzo	2023-03-19T00:00:00	2024-11-08T07:00:00	6	Velocidad del viento	1.6
82854	7	Sololá	704	Santa Lucía Utatlán 	7	Santa Rita 	3	Marzo	2023-03-19T00:00:00	2024-11-08T07:00:00	7	Dirección del viento	1.61
82855	7	Sololá	704	Santa Lucía Utatlán 	7	Santa Rita 	3	Marzo	2023-03-19T00:00:00	2024-11-08T07:00:00	1	Precipitación	0
82856	7	Sololá	704	Santa Lucía Utatlán 	7	Santa Rita 	3	Marzo	2023-03-19T00:00:00	2024-11-08T07:00:00	8	Radiación solar	31
82857	7	Sololá	704	Santa Lucía Utatlán 	7	Santa Rita 	3	Marzo	2023-03-19T00:00:00	2024-11-08T08:00:00	2	Temperatura media	16.6
82858	7	Sololá	704	Santa Lucía Utatlán 	7	Santa Rita 	3	Marzo	2023-03-19T00:00:00	2024-11-08T08:00:00	4	Temperatura máxima	16.6
82859	7	Sololá	704	Santa Lucía Utatlán 	7	Santa Rita 	3	Marzo	2023-03-19T00:00:00	2024-11-08T08:00:00	3	Temperatura mínima	15.7
82860	7	Sololá	704	Santa Lucía Utatlán 	7	Santa Rita 	3	Marzo	2023-03-19T00:00:00	2024-11-08T08:00:00	5	Humedad	83
82861	7	Sololá	704	Santa Lucía Utatlán 	7	Santa Rita 	3	Marzo	2023-03-19T00:00:00	2024-11-08T08:00:00	6	Velocidad del viento	1.6
82862	7	Sololá	704	Santa Lucía Utatlán 	7	Santa Rita 	3	Marzo	2023-03-19T00:00:00	2024-11-08T08:00:00	7	Dirección del viento	1.61
82863	7	Sololá	704	Santa Lucía Utatlán 	7	Santa Rita 	3	Marzo	2023-03-19T00:00:00	2024-11-08T08:00:00	1	Precipitación	0
82864	7	Sololá	704	Santa Lucía Utatlán 	7	Santa Rita 	3	Marzo	2023-03-19T00:00:00	2024-11-08T08:00:00	8	Radiación solar	307
82865	7	Sololá	704	Santa Lucía Utatlán 	7	Santa Rita 	3	Marzo	2023-03-19T00:00:00	2024-11-08T09:00:00	2	Temperatura media	20.5
82866	7	Sololá	704	Santa Lucía Utatlán 	7	Santa Rita 	3	Marzo	2023-03-19T00:00:00	2024-11-08T09:00:00	4	Temperatura máxima	20.5
82867	7	Sololá	704	Santa Lucía Utatlán 	7	Santa Rita 	3	Marzo	2023-03-19T00:00:00	2024-11-08T09:00:00	3	Temperatura mínima	16.6
82868	7	Sololá	704	Santa Lucía Utatlán 	7	Santa Rita 	3	Marzo	2023-03-19T00:00:00	2024-11-08T09:00:00	5	Humedad	71
82869	7	Sololá	704	Santa Lucía Utatlán 	7	Santa Rita 	3	Marzo	2023-03-19T00:00:00	2024-11-08T09:00:00	6	Velocidad del viento	1.6
82870	7	Sololá	704	Santa Lucía Utatlán 	7	Santa Rita 	3	Marzo	2023-03-19T00:00:00	2024-11-08T09:00:00	7	Dirección del viento	1.61
82871	7	Sololá	704	Santa Lucía Utatlán 	7	Santa Rita 	3	Marzo	2023-03-19T00:00:00	2024-11-08T09:00:00	1	Precipitación	0
82872	7	Sololá	704	Santa Lucía Utatlán 	7	Santa Rita 	3	Marzo	2023-03-19T00:00:00	2024-11-08T09:00:00	8	Radiación solar	552
82873	7	Sololá	704	Santa Lucía Utatlán 	7	Santa Rita 	3	Marzo	2023-03-19T00:00:00	2024-11-08T10:00:00	2	Temperatura media	22.7
82874	7	Sololá	704	Santa Lucía Utatlán 	7	Santa Rita 	3	Marzo	2023-03-19T00:00:00	2024-11-08T10:00:00	4	Temperatura máxima	22.7
82875	7	Sololá	704	Santa Lucía Utatlán 	7	Santa Rita 	3	Marzo	2023-03-19T00:00:00	2024-11-08T10:00:00	3	Temperatura mínima	20.5
82876	7	Sololá	704	Santa Lucía Utatlán 	7	Santa Rita 	3	Marzo	2023-03-19T00:00:00	2024-11-08T10:00:00	5	Humedad	63
82877	7	Sololá	704	Santa Lucía Utatlán 	7	Santa Rita 	3	Marzo	2023-03-19T00:00:00	2024-11-08T10:00:00	6	Velocidad del viento	4.8
82878	7	Sololá	704	Santa Lucía Utatlán 	7	Santa Rita 	3	Marzo	2023-03-19T00:00:00	2024-11-08T10:00:00	7	Dirección del viento	4.83
82879	7	Sololá	704	Santa Lucía Utatlán 	7	Santa Rita 	3	Marzo	2023-03-19T00:00:00	2024-11-08T10:00:00	1	Precipitación	0
82880	7	Sololá	704	Santa Lucía Utatlán 	7	Santa Rita 	3	Marzo	2023-03-19T00:00:00	2024-11-08T10:00:00	8	Radiación solar	564
82881	7	Sololá	704	Santa Lucía Utatlán 	7	Santa Rita 	3	Marzo	2023-03-19T00:00:00	2024-11-08T11:00:00	2	Temperatura media	21.7
82882	7	Sololá	704	Santa Lucía Utatlán 	7	Santa Rita 	3	Marzo	2023-03-19T00:00:00	2024-11-08T11:00:00	4	Temperatura máxima	23.3
82883	7	Sololá	704	Santa Lucía Utatlán 	7	Santa Rita 	3	Marzo	2023-03-19T00:00:00	2024-11-08T11:00:00	3	Temperatura mínima	21.7
82884	7	Sololá	704	Santa Lucía Utatlán 	7	Santa Rita 	3	Marzo	2023-03-19T00:00:00	2024-11-08T11:00:00	5	Humedad	74
82885	7	Sololá	704	Santa Lucía Utatlán 	7	Santa Rita 	3	Marzo	2023-03-19T00:00:00	2024-11-08T11:00:00	6	Velocidad del viento	8
82886	7	Sololá	704	Santa Lucía Utatlán 	7	Santa Rita 	3	Marzo	2023-03-19T00:00:00	2024-11-08T11:00:00	7	Dirección del viento	8.05
82887	7	Sololá	704	Santa Lucía Utatlán 	7	Santa Rita 	3	Marzo	2023-03-19T00:00:00	2024-11-08T11:00:00	1	Precipitación	0
82888	7	Sololá	704	Santa Lucía Utatlán 	7	Santa Rita 	3	Marzo	2023-03-19T00:00:00	2024-11-08T11:00:00	8	Radiación solar	249
82889	7	Sololá	704	Santa Lucía Utatlán 	7	Santa Rita 	3	Marzo	2023-03-19T00:00:00	2024-11-08T12:00:00	2	Temperatura media	21.9
82890	7	Sololá	704	Santa Lucía Utatlán 	7	Santa Rita 	3	Marzo	2023-03-19T00:00:00	2024-11-08T12:00:00	4	Temperatura máxima	21.9
82891	7	Sololá	704	Santa Lucía Utatlán 	7	Santa Rita 	3	Marzo	2023-03-19T00:00:00	2024-11-08T12:00:00	3	Temperatura mínima	21.3
82892	7	Sololá	704	Santa Lucía Utatlán 	7	Santa Rita 	3	Marzo	2023-03-19T00:00:00	2024-11-08T12:00:00	5	Humedad	73
82893	7	Sololá	704	Santa Lucía Utatlán 	7	Santa Rita 	3	Marzo	2023-03-19T00:00:00	2024-11-08T12:00:00	6	Velocidad del viento	4.8
82894	7	Sololá	704	Santa Lucía Utatlán 	7	Santa Rita 	3	Marzo	2023-03-19T00:00:00	2024-11-08T12:00:00	7	Dirección del viento	4.83
82895	7	Sololá	704	Santa Lucía Utatlán 	7	Santa Rita 	3	Marzo	2023-03-19T00:00:00	2024-11-08T12:00:00	1	Precipitación	0
82896	7	Sololá	704	Santa Lucía Utatlán 	7	Santa Rita 	3	Marzo	2023-03-19T00:00:00	2024-11-08T12:00:00	8	Radiación solar	407
82897	7	Sololá	704	Santa Lucía Utatlán 	7	Santa Rita 	3	Marzo	2023-03-19T00:00:00	2024-11-08T13:00:00	2	Temperatura media	21.9
82898	7	Sololá	704	Santa Lucía Utatlán 	7	Santa Rita 	3	Marzo	2023-03-19T00:00:00	2024-11-08T13:00:00	4	Temperatura máxima	22.6
82899	7	Sololá	704	Santa Lucía Utatlán 	7	Santa Rita 	3	Marzo	2023-03-19T00:00:00	2024-11-08T13:00:00	3	Temperatura mínima	21.3
82900	7	Sololá	704	Santa Lucía Utatlán 	7	Santa Rita 	3	Marzo	2023-03-19T00:00:00	2024-11-08T13:00:00	5	Humedad	75
82901	7	Sololá	704	Santa Lucía Utatlán 	7	Santa Rita 	3	Marzo	2023-03-19T00:00:00	2024-11-08T13:00:00	6	Velocidad del viento	6.4
82902	7	Sololá	704	Santa Lucía Utatlán 	7	Santa Rita 	3	Marzo	2023-03-19T00:00:00	2024-11-08T13:00:00	7	Dirección del viento	6.44
82903	7	Sololá	704	Santa Lucía Utatlán 	7	Santa Rita 	3	Marzo	2023-03-19T00:00:00	2024-11-08T13:00:00	1	Precipitación	0
82904	7	Sololá	704	Santa Lucía Utatlán 	7	Santa Rita 	3	Marzo	2023-03-19T00:00:00	2024-11-08T13:00:00	8	Radiación solar	189
82905	7	Sololá	704	Santa Lucía Utatlán 	7	Santa Rita 	3	Marzo	2023-03-19T00:00:00	2024-11-08T14:00:00	2	Temperatura media	20.1
82906	7	Sololá	704	Santa Lucía Utatlán 	7	Santa Rita 	3	Marzo	2023-03-19T00:00:00	2024-11-08T14:00:00	4	Temperatura máxima	23.1
82907	7	Sololá	704	Santa Lucía Utatlán 	7	Santa Rita 	3	Marzo	2023-03-19T00:00:00	2024-11-08T14:00:00	3	Temperatura mínima	20.1
82908	7	Sololá	704	Santa Lucía Utatlán 	7	Santa Rita 	3	Marzo	2023-03-19T00:00:00	2024-11-08T14:00:00	5	Humedad	86
82909	7	Sololá	704	Santa Lucía Utatlán 	7	Santa Rita 	3	Marzo	2023-03-19T00:00:00	2024-11-08T14:00:00	6	Velocidad del viento	6.4
82910	7	Sololá	704	Santa Lucía Utatlán 	7	Santa Rita 	3	Marzo	2023-03-19T00:00:00	2024-11-08T14:00:00	7	Dirección del viento	6.44
82911	7	Sololá	704	Santa Lucía Utatlán 	7	Santa Rita 	3	Marzo	2023-03-19T00:00:00	2024-11-08T14:00:00	1	Precipitación	1.6
82912	7	Sololá	704	Santa Lucía Utatlán 	7	Santa Rita 	3	Marzo	2023-03-19T00:00:00	2024-11-08T14:00:00	8	Radiación solar	189
82913	7	Sololá	704	Santa Lucía Utatlán 	7	Santa Rita 	3	Marzo	2023-03-19T00:00:00	2024-11-08T15:00:00	2	Temperatura media	20.3
82914	7	Sololá	704	Santa Lucía Utatlán 	7	Santa Rita 	3	Marzo	2023-03-19T00:00:00	2024-11-08T15:00:00	4	Temperatura máxima	20.3
82915	7	Sololá	704	Santa Lucía Utatlán 	7	Santa Rita 	3	Marzo	2023-03-19T00:00:00	2024-11-08T15:00:00	3	Temperatura mínima	19.5
82916	7	Sololá	704	Santa Lucía Utatlán 	7	Santa Rita 	3	Marzo	2023-03-19T00:00:00	2024-11-08T15:00:00	5	Humedad	86
82917	7	Sololá	704	Santa Lucía Utatlán 	7	Santa Rita 	3	Marzo	2023-03-19T00:00:00	2024-11-08T15:00:00	6	Velocidad del viento	0
82918	7	Sololá	704	Santa Lucía Utatlán 	7	Santa Rita 	3	Marzo	2023-03-19T00:00:00	2024-11-08T15:00:00	7	Dirección del viento	0
82919	7	Sololá	704	Santa Lucía Utatlán 	7	Santa Rita 	3	Marzo	2023-03-19T00:00:00	2024-11-08T15:00:00	1	Precipitación	2.6
82920	7	Sololá	704	Santa Lucía Utatlán 	7	Santa Rita 	3	Marzo	2023-03-19T00:00:00	2024-11-08T15:00:00	8	Radiación solar	141
82921	7	Sololá	704	Santa Lucía Utatlán 	7	Santa Rita 	3	Marzo	2023-03-19T00:00:00	2024-11-08T16:00:00	2	Temperatura media	20.3
82922	7	Sololá	704	Santa Lucía Utatlán 	7	Santa Rita 	3	Marzo	2023-03-19T00:00:00	2024-11-08T16:00:00	4	Temperatura máxima	20.6
82923	7	Sololá	704	Santa Lucía Utatlán 	7	Santa Rita 	3	Marzo	2023-03-19T00:00:00	2024-11-08T16:00:00	3	Temperatura mínima	20.3
82924	7	Sololá	704	Santa Lucía Utatlán 	7	Santa Rita 	3	Marzo	2023-03-19T00:00:00	2024-11-08T16:00:00	5	Humedad	86
82925	7	Sololá	704	Santa Lucía Utatlán 	7	Santa Rita 	3	Marzo	2023-03-19T00:00:00	2024-11-08T16:00:00	6	Velocidad del viento	1.6
82926	7	Sololá	704	Santa Lucía Utatlán 	7	Santa Rita 	3	Marzo	2023-03-19T00:00:00	2024-11-08T16:00:00	7	Dirección del viento	1.61
82927	7	Sololá	704	Santa Lucía Utatlán 	7	Santa Rita 	3	Marzo	2023-03-19T00:00:00	2024-11-08T16:00:00	1	Precipitación	0.2
82928	7	Sololá	704	Santa Lucía Utatlán 	7	Santa Rita 	3	Marzo	2023-03-19T00:00:00	2024-11-08T16:00:00	8	Radiación solar	46
82929	7	Sololá	704	Santa Lucía Utatlán 	7	Santa Rita 	3	Marzo	2023-03-19T00:00:00	2024-11-08T17:00:00	2	Temperatura media	19.4
82930	7	Sololá	704	Santa Lucía Utatlán 	7	Santa Rita 	3	Marzo	2023-03-19T00:00:00	2024-11-08T17:00:00	4	Temperatura máxima	20.3
82931	7	Sololá	704	Santa Lucía Utatlán 	7	Santa Rita 	3	Marzo	2023-03-19T00:00:00	2024-11-08T17:00:00	3	Temperatura mínima	19.4
82932	7	Sololá	704	Santa Lucía Utatlán 	7	Santa Rita 	3	Marzo	2023-03-19T00:00:00	2024-11-08T17:00:00	5	Humedad	93
82933	7	Sololá	704	Santa Lucía Utatlán 	7	Santa Rita 	3	Marzo	2023-03-19T00:00:00	2024-11-08T17:00:00	6	Velocidad del viento	1.6
82934	7	Sololá	704	Santa Lucía Utatlán 	7	Santa Rita 	3	Marzo	2023-03-19T00:00:00	2024-11-08T17:00:00	7	Dirección del viento	1.61
82935	7	Sololá	704	Santa Lucía Utatlán 	7	Santa Rita 	3	Marzo	2023-03-19T00:00:00	2024-11-08T17:00:00	1	Precipitación	0.6
82936	7	Sololá	704	Santa Lucía Utatlán 	7	Santa Rita 	3	Marzo	2023-03-19T00:00:00	2024-11-08T17:00:00	8	Radiación solar	24
82937	7	Sololá	704	Santa Lucía Utatlán 	7	Santa Rita 	3	Marzo	2023-03-19T00:00:00	2024-11-08T18:00:00	2	Temperatura media	19.1
82938	7	Sololá	704	Santa Lucía Utatlán 	7	Santa Rita 	3	Marzo	2023-03-19T00:00:00	2024-11-08T18:00:00	4	Temperatura máxima	19.4
82939	7	Sololá	704	Santa Lucía Utatlán 	7	Santa Rita 	3	Marzo	2023-03-19T00:00:00	2024-11-08T18:00:00	3	Temperatura mínima	19.1
82940	7	Sololá	704	Santa Lucía Utatlán 	7	Santa Rita 	3	Marzo	2023-03-19T00:00:00	2024-11-08T18:00:00	5	Humedad	94
82941	7	Sololá	704	Santa Lucía Utatlán 	7	Santa Rita 	3	Marzo	2023-03-19T00:00:00	2024-11-08T18:00:00	6	Velocidad del viento	1.6
82942	7	Sololá	704	Santa Lucía Utatlán 	7	Santa Rita 	3	Marzo	2023-03-19T00:00:00	2024-11-08T18:00:00	7	Dirección del viento	1.61
82943	7	Sololá	704	Santa Lucía Utatlán 	7	Santa Rita 	3	Marzo	2023-03-19T00:00:00	2024-11-08T18:00:00	1	Precipitación	0
82944	7	Sololá	704	Santa Lucía Utatlán 	7	Santa Rita 	3	Marzo	2023-03-19T00:00:00	2024-11-08T18:00:00	8	Radiación solar	2
82945	7	Sololá	704	Santa Lucía Utatlán 	7	Santa Rita 	3	Marzo	2023-03-19T00:00:00	2024-11-08T19:00:00	2	Temperatura media	18.6
82946	7	Sololá	704	Santa Lucía Utatlán 	7	Santa Rita 	3	Marzo	2023-03-19T00:00:00	2024-11-08T19:00:00	4	Temperatura máxima	19.1
82947	7	Sololá	704	Santa Lucía Utatlán 	7	Santa Rita 	3	Marzo	2023-03-19T00:00:00	2024-11-08T19:00:00	3	Temperatura mínima	18.6
82948	7	Sololá	704	Santa Lucía Utatlán 	7	Santa Rita 	3	Marzo	2023-03-19T00:00:00	2024-11-08T19:00:00	5	Humedad	94
82949	7	Sololá	704	Santa Lucía Utatlán 	7	Santa Rita 	3	Marzo	2023-03-19T00:00:00	2024-11-08T19:00:00	6	Velocidad del viento	0
82950	7	Sololá	704	Santa Lucía Utatlán 	7	Santa Rita 	3	Marzo	2023-03-19T00:00:00	2024-11-08T19:00:00	7	Dirección del viento	0
82951	7	Sololá	704	Santa Lucía Utatlán 	7	Santa Rita 	3	Marzo	2023-03-19T00:00:00	2024-11-08T19:00:00	1	Precipitación	0.2
82952	7	Sololá	704	Santa Lucía Utatlán 	7	Santa Rita 	3	Marzo	2023-03-19T00:00:00	2024-11-08T19:00:00	8	Radiación solar	0
82953	7	Sololá	704	Santa Lucía Utatlán 	7	Santa Rita 	3	Marzo	2023-03-19T00:00:00	2024-11-08T20:00:00	2	Temperatura media	18.3
82954	7	Sololá	704	Santa Lucía Utatlán 	7	Santa Rita 	3	Marzo	2023-03-19T00:00:00	2024-11-08T20:00:00	4	Temperatura máxima	18.7
82955	7	Sololá	704	Santa Lucía Utatlán 	7	Santa Rita 	3	Marzo	2023-03-19T00:00:00	2024-11-08T20:00:00	3	Temperatura mínima	18.2
82956	7	Sololá	704	Santa Lucía Utatlán 	7	Santa Rita 	3	Marzo	2023-03-19T00:00:00	2024-11-08T20:00:00	5	Humedad	95
82957	7	Sololá	704	Santa Lucía Utatlán 	7	Santa Rita 	3	Marzo	2023-03-19T00:00:00	2024-11-08T20:00:00	6	Velocidad del viento	0
82958	7	Sololá	704	Santa Lucía Utatlán 	7	Santa Rita 	3	Marzo	2023-03-19T00:00:00	2024-11-08T20:00:00	7	Dirección del viento	0
82959	7	Sololá	704	Santa Lucía Utatlán 	7	Santa Rita 	3	Marzo	2023-03-19T00:00:00	2024-11-08T20:00:00	1	Precipitación	0.2
82960	7	Sololá	704	Santa Lucía Utatlán 	7	Santa Rita 	3	Marzo	2023-03-19T00:00:00	2024-11-08T20:00:00	8	Radiación solar	0
82961	7	Sololá	704	Santa Lucía Utatlán 	7	Santa Rita 	3	Marzo	2023-03-19T00:00:00	2024-11-08T21:00:00	2	Temperatura media	18.3
82962	7	Sololá	704	Santa Lucía Utatlán 	7	Santa Rita 	3	Marzo	2023-03-19T00:00:00	2024-11-08T21:00:00	4	Temperatura máxima	18.6
82963	7	Sololá	704	Santa Lucía Utatlán 	7	Santa Rita 	3	Marzo	2023-03-19T00:00:00	2024-11-08T21:00:00	3	Temperatura mínima	17.8
82964	7	Sololá	704	Santa Lucía Utatlán 	7	Santa Rita 	3	Marzo	2023-03-19T00:00:00	2024-11-08T21:00:00	5	Humedad	85
82965	7	Sololá	704	Santa Lucía Utatlán 	7	Santa Rita 	3	Marzo	2023-03-19T00:00:00	2024-11-08T21:00:00	6	Velocidad del viento	3.2
82966	7	Sololá	704	Santa Lucía Utatlán 	7	Santa Rita 	3	Marzo	2023-03-19T00:00:00	2024-11-08T21:00:00	7	Dirección del viento	3.22
82967	7	Sololá	704	Santa Lucía Utatlán 	7	Santa Rita 	3	Marzo	2023-03-19T00:00:00	2024-11-08T21:00:00	1	Precipitación	0
82968	7	Sololá	704	Santa Lucía Utatlán 	7	Santa Rita 	3	Marzo	2023-03-19T00:00:00	2024-11-08T21:00:00	8	Radiación solar	0
82969	7	Sololá	704	Santa Lucía Utatlán 	7	Santa Rita 	3	Marzo	2023-03-19T00:00:00	2024-11-08T22:00:00	2	Temperatura media	16.2
82970	7	Sololá	704	Santa Lucía Utatlán 	7	Santa Rita 	3	Marzo	2023-03-19T00:00:00	2024-11-08T22:00:00	4	Temperatura máxima	18.3
82971	7	Sololá	704	Santa Lucía Utatlán 	7	Santa Rita 	3	Marzo	2023-03-19T00:00:00	2024-11-08T22:00:00	3	Temperatura mínima	16.2
82972	7	Sololá	704	Santa Lucía Utatlán 	7	Santa Rita 	3	Marzo	2023-03-19T00:00:00	2024-11-08T22:00:00	5	Humedad	92
82973	7	Sololá	704	Santa Lucía Utatlán 	7	Santa Rita 	3	Marzo	2023-03-19T00:00:00	2024-11-08T22:00:00	6	Velocidad del viento	1.6
82974	7	Sololá	704	Santa Lucía Utatlán 	7	Santa Rita 	3	Marzo	2023-03-19T00:00:00	2024-11-08T22:00:00	7	Dirección del viento	1.61
82975	7	Sololá	704	Santa Lucía Utatlán 	7	Santa Rita 	3	Marzo	2023-03-19T00:00:00	2024-11-08T22:00:00	1	Precipitación	0.2
82976	7	Sololá	704	Santa Lucía Utatlán 	7	Santa Rita 	3	Marzo	2023-03-19T00:00:00	2024-11-08T22:00:00	8	Radiación solar	0
82977	7	Sololá	704	Santa Lucía Utatlán 	7	Santa Rita 	3	Marzo	2023-03-19T00:00:00	2024-11-08T23:00:00	2	Temperatura media	17.8
82978	7	Sololá	704	Santa Lucía Utatlán 	7	Santa Rita 	3	Marzo	2023-03-19T00:00:00	2024-11-08T23:00:00	4	Temperatura máxima	17.8
82979	7	Sololá	704	Santa Lucía Utatlán 	7	Santa Rita 	3	Marzo	2023-03-19T00:00:00	2024-11-08T23:00:00	3	Temperatura mínima	16.2
82980	7	Sololá	704	Santa Lucía Utatlán 	7	Santa Rita 	3	Marzo	2023-03-19T00:00:00	2024-11-08T23:00:00	5	Humedad	86
82981	7	Sololá	704	Santa Lucía Utatlán 	7	Santa Rita 	3	Marzo	2023-03-19T00:00:00	2024-11-08T23:00:00	6	Velocidad del viento	3.2
82982	7	Sololá	704	Santa Lucía Utatlán 	7	Santa Rita 	3	Marzo	2023-03-19T00:00:00	2024-11-08T23:00:00	7	Dirección del viento	3.22
82983	7	Sololá	704	Santa Lucía Utatlán 	7	Santa Rita 	3	Marzo	2023-03-19T00:00:00	2024-11-08T23:00:00	1	Precipitación	0
82984	7	Sololá	704	Santa Lucía Utatlán 	7	Santa Rita 	3	Marzo	2023-03-19T00:00:00	2024-11-08T23:00:00	8	Radiación solar	0
82985	7	Sololá	704	Santa Lucía Utatlán 	7	Santa Rita 	3	Marzo	2023-03-20T00:00:00	2024-11-08T00:00:00	2	Temperatura media	19.1
82986	7	Sololá	704	Santa Lucía Utatlán 	7	Santa Rita 	3	Marzo	2023-03-20T00:00:00	2024-11-08T00:00:00	4	Temperatura máxima	19.3
82987	7	Sololá	704	Santa Lucía Utatlán 	7	Santa Rita 	3	Marzo	2023-03-20T00:00:00	2024-11-08T00:00:00	3	Temperatura mínima	17.8
82988	7	Sololá	704	Santa Lucía Utatlán 	7	Santa Rita 	3	Marzo	2023-03-20T00:00:00	2024-11-08T00:00:00	5	Humedad	79
82989	7	Sololá	704	Santa Lucía Utatlán 	7	Santa Rita 	3	Marzo	2023-03-20T00:00:00	2024-11-08T00:00:00	6	Velocidad del viento	12.9
82990	7	Sololá	704	Santa Lucía Utatlán 	7	Santa Rita 	3	Marzo	2023-03-20T00:00:00	2024-11-08T00:00:00	7	Dirección del viento	12.87
82991	7	Sololá	704	Santa Lucía Utatlán 	7	Santa Rita 	3	Marzo	2023-03-20T00:00:00	2024-11-08T00:00:00	1	Precipitación	0
82992	7	Sololá	704	Santa Lucía Utatlán 	7	Santa Rita 	3	Marzo	2023-03-20T00:00:00	2024-11-08T00:00:00	8	Radiación solar	0
82993	7	Sololá	704	Santa Lucía Utatlán 	7	Santa Rita 	3	Marzo	2023-03-20T00:00:00	2024-11-08T01:00:00	2	Temperatura media	19.1
82994	7	Sololá	704	Santa Lucía Utatlán 	7	Santa Rita 	3	Marzo	2023-03-20T00:00:00	2024-11-08T01:00:00	4	Temperatura máxima	19.2
82995	7	Sololá	704	Santa Lucía Utatlán 	7	Santa Rita 	3	Marzo	2023-03-20T00:00:00	2024-11-08T01:00:00	3	Temperatura mínima	18.7
82996	7	Sololá	704	Santa Lucía Utatlán 	7	Santa Rita 	3	Marzo	2023-03-20T00:00:00	2024-11-08T01:00:00	5	Humedad	76
82997	7	Sololá	704	Santa Lucía Utatlán 	7	Santa Rita 	3	Marzo	2023-03-20T00:00:00	2024-11-08T01:00:00	6	Velocidad del viento	8
82998	7	Sololá	704	Santa Lucía Utatlán 	7	Santa Rita 	3	Marzo	2023-03-20T00:00:00	2024-11-08T01:00:00	7	Dirección del viento	8.05
82999	7	Sololá	704	Santa Lucía Utatlán 	7	Santa Rita 	3	Marzo	2023-03-20T00:00:00	2024-11-08T01:00:00	1	Precipitación	0
83000	7	Sololá	704	Santa Lucía Utatlán 	7	Santa Rita 	3	Marzo	2023-03-20T00:00:00	2024-11-08T01:00:00	8	Radiación solar	0
83001	7	Sololá	704	Santa Lucía Utatlán 	7	Santa Rita 	3	Marzo	2023-03-20T00:00:00	2024-11-08T02:00:00	2	Temperatura media	19.1
83002	7	Sololá	704	Santa Lucía Utatlán 	7	Santa Rita 	3	Marzo	2023-03-20T00:00:00	2024-11-08T02:00:00	4	Temperatura máxima	19.2
83003	7	Sololá	704	Santa Lucía Utatlán 	7	Santa Rita 	3	Marzo	2023-03-20T00:00:00	2024-11-08T02:00:00	3	Temperatura mínima	18.4
83004	7	Sololá	704	Santa Lucía Utatlán 	7	Santa Rita 	3	Marzo	2023-03-20T00:00:00	2024-11-08T02:00:00	5	Humedad	75
83005	7	Sololá	704	Santa Lucía Utatlán 	7	Santa Rita 	3	Marzo	2023-03-20T00:00:00	2024-11-08T02:00:00	6	Velocidad del viento	6.4
83006	7	Sololá	704	Santa Lucía Utatlán 	7	Santa Rita 	3	Marzo	2023-03-20T00:00:00	2024-11-08T02:00:00	7	Dirección del viento	6.44
83007	7	Sololá	704	Santa Lucía Utatlán 	7	Santa Rita 	3	Marzo	2023-03-20T00:00:00	2024-11-08T02:00:00	1	Precipitación	0
83008	7	Sololá	704	Santa Lucía Utatlán 	7	Santa Rita 	3	Marzo	2023-03-20T00:00:00	2024-11-08T02:00:00	8	Radiación solar	0
83009	7	Sololá	704	Santa Lucía Utatlán 	7	Santa Rita 	3	Marzo	2023-03-20T00:00:00	2024-11-08T03:00:00	2	Temperatura media	18.8
83010	7	Sololá	704	Santa Lucía Utatlán 	7	Santa Rita 	3	Marzo	2023-03-20T00:00:00	2024-11-08T03:00:00	4	Temperatura máxima	19.1
83011	7	Sololá	704	Santa Lucía Utatlán 	7	Santa Rita 	3	Marzo	2023-03-20T00:00:00	2024-11-08T03:00:00	3	Temperatura mínima	18.6
83012	7	Sololá	704	Santa Lucía Utatlán 	7	Santa Rita 	3	Marzo	2023-03-20T00:00:00	2024-11-08T03:00:00	5	Humedad	79
83013	7	Sololá	704	Santa Lucía Utatlán 	7	Santa Rita 	3	Marzo	2023-03-20T00:00:00	2024-11-08T03:00:00	6	Velocidad del viento	8
83014	7	Sololá	704	Santa Lucía Utatlán 	7	Santa Rita 	3	Marzo	2023-03-20T00:00:00	2024-11-08T03:00:00	7	Dirección del viento	8.05
83015	7	Sololá	704	Santa Lucía Utatlán 	7	Santa Rita 	3	Marzo	2023-03-20T00:00:00	2024-11-08T03:00:00	1	Precipitación	0
83016	7	Sololá	704	Santa Lucía Utatlán 	7	Santa Rita 	3	Marzo	2023-03-20T00:00:00	2024-11-08T03:00:00	8	Radiación solar	0
83017	7	Sololá	704	Santa Lucía Utatlán 	7	Santa Rita 	3	Marzo	2023-03-20T00:00:00	2024-11-08T04:00:00	2	Temperatura media	18.6
83018	7	Sololá	704	Santa Lucía Utatlán 	7	Santa Rita 	3	Marzo	2023-03-20T00:00:00	2024-11-08T04:00:00	4	Temperatura máxima	18.9
83019	7	Sololá	704	Santa Lucía Utatlán 	7	Santa Rita 	3	Marzo	2023-03-20T00:00:00	2024-11-08T04:00:00	3	Temperatura mínima	18.5
83020	7	Sololá	704	Santa Lucía Utatlán 	7	Santa Rita 	3	Marzo	2023-03-20T00:00:00	2024-11-08T04:00:00	5	Humedad	76
83021	7	Sololá	704	Santa Lucía Utatlán 	7	Santa Rita 	3	Marzo	2023-03-20T00:00:00	2024-11-08T04:00:00	6	Velocidad del viento	9.7
83022	7	Sololá	704	Santa Lucía Utatlán 	7	Santa Rita 	3	Marzo	2023-03-20T00:00:00	2024-11-08T04:00:00	7	Dirección del viento	9.66
83023	7	Sololá	704	Santa Lucía Utatlán 	7	Santa Rita 	3	Marzo	2023-03-20T00:00:00	2024-11-08T04:00:00	1	Precipitación	0
83024	7	Sololá	704	Santa Lucía Utatlán 	7	Santa Rita 	3	Marzo	2023-03-20T00:00:00	2024-11-08T04:00:00	8	Radiación solar	0
83025	7	Sololá	704	Santa Lucía Utatlán 	7	Santa Rita 	3	Marzo	2023-03-20T00:00:00	2024-11-08T05:00:00	2	Temperatura media	18.9
83026	7	Sololá	704	Santa Lucía Utatlán 	7	Santa Rita 	3	Marzo	2023-03-20T00:00:00	2024-11-08T05:00:00	4	Temperatura máxima	19.1
83027	7	Sololá	704	Santa Lucía Utatlán 	7	Santa Rita 	3	Marzo	2023-03-20T00:00:00	2024-11-08T05:00:00	3	Temperatura mínima	18.6
83028	7	Sololá	704	Santa Lucía Utatlán 	7	Santa Rita 	3	Marzo	2023-03-20T00:00:00	2024-11-08T05:00:00	5	Humedad	72
83029	7	Sololá	704	Santa Lucía Utatlán 	7	Santa Rita 	3	Marzo	2023-03-20T00:00:00	2024-11-08T05:00:00	6	Velocidad del viento	16.1
83030	7	Sololá	704	Santa Lucía Utatlán 	7	Santa Rita 	3	Marzo	2023-03-20T00:00:00	2024-11-08T05:00:00	7	Dirección del viento	16.09
83031	7	Sololá	704	Santa Lucía Utatlán 	7	Santa Rita 	3	Marzo	2023-03-20T00:00:00	2024-11-08T05:00:00	1	Precipitación	0
83032	7	Sololá	704	Santa Lucía Utatlán 	7	Santa Rita 	3	Marzo	2023-03-20T00:00:00	2024-11-08T05:00:00	8	Radiación solar	0
83033	7	Sololá	704	Santa Lucía Utatlán 	7	Santa Rita 	3	Marzo	2023-03-20T00:00:00	2024-11-08T06:00:00	2	Temperatura media	18.3
83034	7	Sololá	704	Santa Lucía Utatlán 	7	Santa Rita 	3	Marzo	2023-03-20T00:00:00	2024-11-08T06:00:00	4	Temperatura máxima	18.9
83035	7	Sololá	704	Santa Lucía Utatlán 	7	Santa Rita 	3	Marzo	2023-03-20T00:00:00	2024-11-08T06:00:00	3	Temperatura mínima	18.1
83036	7	Sololá	704	Santa Lucía Utatlán 	7	Santa Rita 	3	Marzo	2023-03-20T00:00:00	2024-11-08T06:00:00	5	Humedad	74
83037	7	Sololá	704	Santa Lucía Utatlán 	7	Santa Rita 	3	Marzo	2023-03-20T00:00:00	2024-11-08T06:00:00	6	Velocidad del viento	19.3
83038	7	Sololá	704	Santa Lucía Utatlán 	7	Santa Rita 	3	Marzo	2023-03-20T00:00:00	2024-11-08T06:00:00	7	Dirección del viento	19.31
83039	7	Sololá	704	Santa Lucía Utatlán 	7	Santa Rita 	3	Marzo	2023-03-20T00:00:00	2024-11-08T06:00:00	1	Precipitación	0
83040	7	Sololá	704	Santa Lucía Utatlán 	7	Santa Rita 	3	Marzo	2023-03-20T00:00:00	2024-11-08T06:00:00	8	Radiación solar	0
83041	7	Sololá	704	Santa Lucía Utatlán 	7	Santa Rita 	3	Marzo	2023-03-20T00:00:00	2024-11-08T07:00:00	2	Temperatura media	18.2
83042	7	Sololá	704	Santa Lucía Utatlán 	7	Santa Rita 	3	Marzo	2023-03-20T00:00:00	2024-11-08T07:00:00	4	Temperatura máxima	18.7
83043	7	Sololá	704	Santa Lucía Utatlán 	7	Santa Rita 	3	Marzo	2023-03-20T00:00:00	2024-11-08T07:00:00	3	Temperatura mínima	18.2
83044	7	Sololá	704	Santa Lucía Utatlán 	7	Santa Rita 	3	Marzo	2023-03-20T00:00:00	2024-11-08T07:00:00	5	Humedad	74
83045	7	Sololá	704	Santa Lucía Utatlán 	7	Santa Rita 	3	Marzo	2023-03-20T00:00:00	2024-11-08T07:00:00	6	Velocidad del viento	17.7
83046	7	Sololá	704	Santa Lucía Utatlán 	7	Santa Rita 	3	Marzo	2023-03-20T00:00:00	2024-11-08T07:00:00	7	Dirección del viento	17.7
83047	7	Sololá	704	Santa Lucía Utatlán 	7	Santa Rita 	3	Marzo	2023-03-20T00:00:00	2024-11-08T07:00:00	1	Precipitación	0
83048	7	Sololá	704	Santa Lucía Utatlán 	7	Santa Rita 	3	Marzo	2023-03-20T00:00:00	2024-11-08T07:00:00	8	Radiación solar	29
83049	7	Sololá	704	Santa Lucía Utatlán 	7	Santa Rita 	3	Marzo	2023-03-20T00:00:00	2024-11-08T08:00:00	2	Temperatura media	19.6
83050	7	Sololá	704	Santa Lucía Utatlán 	7	Santa Rita 	3	Marzo	2023-03-20T00:00:00	2024-11-08T08:00:00	4	Temperatura máxima	19.6
83051	7	Sololá	704	Santa Lucía Utatlán 	7	Santa Rita 	3	Marzo	2023-03-20T00:00:00	2024-11-08T08:00:00	3	Temperatura mínima	18.1
83052	7	Sololá	704	Santa Lucía Utatlán 	7	Santa Rita 	3	Marzo	2023-03-20T00:00:00	2024-11-08T08:00:00	5	Humedad	69
83053	7	Sololá	704	Santa Lucía Utatlán 	7	Santa Rita 	3	Marzo	2023-03-20T00:00:00	2024-11-08T08:00:00	6	Velocidad del viento	17.7
83054	7	Sololá	704	Santa Lucía Utatlán 	7	Santa Rita 	3	Marzo	2023-03-20T00:00:00	2024-11-08T08:00:00	7	Dirección del viento	17.7
83055	7	Sololá	704	Santa Lucía Utatlán 	7	Santa Rita 	3	Marzo	2023-03-20T00:00:00	2024-11-08T08:00:00	1	Precipitación	0
83056	7	Sololá	704	Santa Lucía Utatlán 	7	Santa Rita 	3	Marzo	2023-03-20T00:00:00	2024-11-08T08:00:00	8	Radiación solar	326
83057	7	Sololá	704	Santa Lucía Utatlán 	7	Santa Rita 	3	Marzo	2023-03-20T00:00:00	2024-11-08T09:00:00	2	Temperatura media	19.4
83058	7	Sololá	704	Santa Lucía Utatlán 	7	Santa Rita 	3	Marzo	2023-03-20T00:00:00	2024-11-08T09:00:00	4	Temperatura máxima	19.9
83059	7	Sololá	704	Santa Lucía Utatlán 	7	Santa Rita 	3	Marzo	2023-03-20T00:00:00	2024-11-08T09:00:00	3	Temperatura mínima	19.2
83060	7	Sololá	704	Santa Lucía Utatlán 	7	Santa Rita 	3	Marzo	2023-03-20T00:00:00	2024-11-08T09:00:00	5	Humedad	72
83061	7	Sololá	704	Santa Lucía Utatlán 	7	Santa Rita 	3	Marzo	2023-03-20T00:00:00	2024-11-08T09:00:00	6	Velocidad del viento	20.9
83062	7	Sololá	704	Santa Lucía Utatlán 	7	Santa Rita 	3	Marzo	2023-03-20T00:00:00	2024-11-08T09:00:00	7	Dirección del viento	20.92
83063	7	Sololá	704	Santa Lucía Utatlán 	7	Santa Rita 	3	Marzo	2023-03-20T00:00:00	2024-11-08T09:00:00	1	Precipitación	0
83064	7	Sololá	704	Santa Lucía Utatlán 	7	Santa Rita 	3	Marzo	2023-03-20T00:00:00	2024-11-08T09:00:00	8	Radiación solar	573
83065	7	Sololá	704	Santa Lucía Utatlán 	7	Santa Rita 	3	Marzo	2023-03-20T00:00:00	2024-11-08T10:00:00	2	Temperatura media	19.9
83066	7	Sololá	704	Santa Lucía Utatlán 	7	Santa Rita 	3	Marzo	2023-03-20T00:00:00	2024-11-08T10:00:00	4	Temperatura máxima	19.9
83067	7	Sololá	704	Santa Lucía Utatlán 	7	Santa Rita 	3	Marzo	2023-03-20T00:00:00	2024-11-08T10:00:00	3	Temperatura mínima	19.4
83068	7	Sololá	704	Santa Lucía Utatlán 	7	Santa Rita 	3	Marzo	2023-03-20T00:00:00	2024-11-08T10:00:00	5	Humedad	71
83069	7	Sololá	704	Santa Lucía Utatlán 	7	Santa Rita 	3	Marzo	2023-03-20T00:00:00	2024-11-08T10:00:00	6	Velocidad del viento	19.3
83070	7	Sololá	704	Santa Lucía Utatlán 	7	Santa Rita 	3	Marzo	2023-03-20T00:00:00	2024-11-08T10:00:00	7	Dirección del viento	19.31
83071	7	Sololá	704	Santa Lucía Utatlán 	7	Santa Rita 	3	Marzo	2023-03-20T00:00:00	2024-11-08T10:00:00	1	Precipitación	0
83072	7	Sololá	704	Santa Lucía Utatlán 	7	Santa Rita 	3	Marzo	2023-03-20T00:00:00	2024-11-08T10:00:00	8	Radiación solar	772
83073	7	Sololá	704	Santa Lucía Utatlán 	7	Santa Rita 	3	Marzo	2023-03-20T00:00:00	2024-11-08T11:00:00	2	Temperatura media	21.2
83074	7	Sololá	704	Santa Lucía Utatlán 	7	Santa Rita 	3	Marzo	2023-03-20T00:00:00	2024-11-08T11:00:00	4	Temperatura máxima	21.2
83075	7	Sololá	704	Santa Lucía Utatlán 	7	Santa Rita 	3	Marzo	2023-03-20T00:00:00	2024-11-08T11:00:00	3	Temperatura mínima	19.9
83076	7	Sololá	704	Santa Lucía Utatlán 	7	Santa Rita 	3	Marzo	2023-03-20T00:00:00	2024-11-08T11:00:00	5	Humedad	69
83077	7	Sololá	704	Santa Lucía Utatlán 	7	Santa Rita 	3	Marzo	2023-03-20T00:00:00	2024-11-08T11:00:00	6	Velocidad del viento	12.9
83078	7	Sololá	704	Santa Lucía Utatlán 	7	Santa Rita 	3	Marzo	2023-03-20T00:00:00	2024-11-08T11:00:00	7	Dirección del viento	12.87
83079	7	Sololá	704	Santa Lucía Utatlán 	7	Santa Rita 	3	Marzo	2023-03-20T00:00:00	2024-11-08T11:00:00	1	Precipitación	0
83080	7	Sololá	704	Santa Lucía Utatlán 	7	Santa Rita 	3	Marzo	2023-03-20T00:00:00	2024-11-08T11:00:00	8	Radiación solar	932
83081	7	Sololá	704	Santa Lucía Utatlán 	7	Santa Rita 	3	Marzo	2023-03-20T00:00:00	2024-11-08T12:00:00	2	Temperatura media	21.7
83082	7	Sololá	704	Santa Lucía Utatlán 	7	Santa Rita 	3	Marzo	2023-03-20T00:00:00	2024-11-08T12:00:00	4	Temperatura máxima	21.9
83083	7	Sololá	704	Santa Lucía Utatlán 	7	Santa Rita 	3	Marzo	2023-03-20T00:00:00	2024-11-08T12:00:00	3	Temperatura mínima	21.1
83084	7	Sololá	704	Santa Lucía Utatlán 	7	Santa Rita 	3	Marzo	2023-03-20T00:00:00	2024-11-08T12:00:00	5	Humedad	66
83085	7	Sololá	704	Santa Lucía Utatlán 	7	Santa Rita 	3	Marzo	2023-03-20T00:00:00	2024-11-08T12:00:00	6	Velocidad del viento	12.9
83086	7	Sololá	704	Santa Lucía Utatlán 	7	Santa Rita 	3	Marzo	2023-03-20T00:00:00	2024-11-08T12:00:00	7	Dirección del viento	12.87
83087	7	Sololá	704	Santa Lucía Utatlán 	7	Santa Rita 	3	Marzo	2023-03-20T00:00:00	2024-11-08T12:00:00	1	Precipitación	0
83088	7	Sololá	704	Santa Lucía Utatlán 	7	Santa Rita 	3	Marzo	2023-03-20T00:00:00	2024-11-08T12:00:00	8	Radiación solar	1034
83089	7	Sololá	704	Santa Lucía Utatlán 	7	Santa Rita 	3	Marzo	2023-03-20T00:00:00	2024-11-08T13:00:00	2	Temperatura media	23.1
83090	7	Sololá	704	Santa Lucía Utatlán 	7	Santa Rita 	3	Marzo	2023-03-20T00:00:00	2024-11-08T13:00:00	4	Temperatura máxima	23.1
83091	7	Sololá	704	Santa Lucía Utatlán 	7	Santa Rita 	3	Marzo	2023-03-20T00:00:00	2024-11-08T13:00:00	3	Temperatura mínima	21.7
83092	7	Sololá	704	Santa Lucía Utatlán 	7	Santa Rita 	3	Marzo	2023-03-20T00:00:00	2024-11-08T13:00:00	5	Humedad	61
83093	7	Sololá	704	Santa Lucía Utatlán 	7	Santa Rita 	3	Marzo	2023-03-20T00:00:00	2024-11-08T13:00:00	6	Velocidad del viento	11.3
83094	7	Sololá	704	Santa Lucía Utatlán 	7	Santa Rita 	3	Marzo	2023-03-20T00:00:00	2024-11-08T13:00:00	7	Dirección del viento	11.27
83095	7	Sololá	704	Santa Lucía Utatlán 	7	Santa Rita 	3	Marzo	2023-03-20T00:00:00	2024-11-08T13:00:00	1	Precipitación	0
83096	7	Sololá	704	Santa Lucía Utatlán 	7	Santa Rita 	3	Marzo	2023-03-20T00:00:00	2024-11-08T13:00:00	8	Radiación solar	909
83097	7	Sololá	704	Santa Lucía Utatlán 	7	Santa Rita 	3	Marzo	2023-03-20T00:00:00	2024-11-08T14:00:00	2	Temperatura media	23.8
83098	7	Sololá	704	Santa Lucía Utatlán 	7	Santa Rita 	3	Marzo	2023-03-20T00:00:00	2024-11-08T14:00:00	4	Temperatura máxima	24.1
83099	7	Sololá	704	Santa Lucía Utatlán 	7	Santa Rita 	3	Marzo	2023-03-20T00:00:00	2024-11-08T14:00:00	3	Temperatura mínima	23
83100	7	Sololá	704	Santa Lucía Utatlán 	7	Santa Rita 	3	Marzo	2023-03-20T00:00:00	2024-11-08T14:00:00	5	Humedad	57
83101	7	Sololá	704	Santa Lucía Utatlán 	7	Santa Rita 	3	Marzo	2023-03-20T00:00:00	2024-11-08T14:00:00	6	Velocidad del viento	9.7
83102	7	Sololá	704	Santa Lucía Utatlán 	7	Santa Rita 	3	Marzo	2023-03-20T00:00:00	2024-11-08T14:00:00	7	Dirección del viento	9.66
83103	7	Sololá	704	Santa Lucía Utatlán 	7	Santa Rita 	3	Marzo	2023-03-20T00:00:00	2024-11-08T14:00:00	1	Precipitación	0
83104	7	Sololá	704	Santa Lucía Utatlán 	7	Santa Rita 	3	Marzo	2023-03-20T00:00:00	2024-11-08T14:00:00	8	Radiación solar	357
83105	7	Sololá	704	Santa Lucía Utatlán 	7	Santa Rita 	3	Marzo	2023-03-20T00:00:00	2024-11-08T15:00:00	2	Temperatura media	23
83106	7	Sololá	704	Santa Lucía Utatlán 	7	Santa Rita 	3	Marzo	2023-03-20T00:00:00	2024-11-08T15:00:00	4	Temperatura máxima	24.3
83107	7	Sololá	704	Santa Lucía Utatlán 	7	Santa Rita 	3	Marzo	2023-03-20T00:00:00	2024-11-08T15:00:00	3	Temperatura mínima	23
83108	7	Sololá	704	Santa Lucía Utatlán 	7	Santa Rita 	3	Marzo	2023-03-20T00:00:00	2024-11-08T15:00:00	5	Humedad	60
83109	7	Sololá	704	Santa Lucía Utatlán 	7	Santa Rita 	3	Marzo	2023-03-20T00:00:00	2024-11-08T15:00:00	6	Velocidad del viento	9.7
83110	7	Sololá	704	Santa Lucía Utatlán 	7	Santa Rita 	3	Marzo	2023-03-20T00:00:00	2024-11-08T15:00:00	7	Dirección del viento	9.66
83111	7	Sololá	704	Santa Lucía Utatlán 	7	Santa Rita 	3	Marzo	2023-03-20T00:00:00	2024-11-08T15:00:00	1	Precipitación	0
83112	7	Sololá	704	Santa Lucía Utatlán 	7	Santa Rita 	3	Marzo	2023-03-20T00:00:00	2024-11-08T15:00:00	8	Radiación solar	242
83113	7	Sololá	704	Santa Lucía Utatlán 	7	Santa Rita 	3	Marzo	2023-03-20T00:00:00	2024-11-08T16:00:00	2	Temperatura media	23.4
83114	7	Sololá	704	Santa Lucía Utatlán 	7	Santa Rita 	3	Marzo	2023-03-20T00:00:00	2024-11-08T16:00:00	4	Temperatura máxima	23.5
83115	7	Sololá	704	Santa Lucía Utatlán 	7	Santa Rita 	3	Marzo	2023-03-20T00:00:00	2024-11-08T16:00:00	3	Temperatura mínima	22.8
83116	7	Sololá	704	Santa Lucía Utatlán 	7	Santa Rita 	3	Marzo	2023-03-20T00:00:00	2024-11-08T16:00:00	5	Humedad	61
83117	7	Sololá	704	Santa Lucía Utatlán 	7	Santa Rita 	3	Marzo	2023-03-20T00:00:00	2024-11-08T16:00:00	6	Velocidad del viento	4.8
83118	7	Sololá	704	Santa Lucía Utatlán 	7	Santa Rita 	3	Marzo	2023-03-20T00:00:00	2024-11-08T16:00:00	7	Dirección del viento	4.83
83119	7	Sololá	704	Santa Lucía Utatlán 	7	Santa Rita 	3	Marzo	2023-03-20T00:00:00	2024-11-08T16:00:00	1	Precipitación	0
83120	7	Sololá	704	Santa Lucía Utatlán 	7	Santa Rita 	3	Marzo	2023-03-20T00:00:00	2024-11-08T16:00:00	8	Radiación solar	84
83121	7	Sololá	704	Santa Lucía Utatlán 	7	Santa Rita 	3	Marzo	2023-03-20T00:00:00	2024-11-08T17:00:00	2	Temperatura media	21.4
83122	7	Sololá	704	Santa Lucía Utatlán 	7	Santa Rita 	3	Marzo	2023-03-20T00:00:00	2024-11-08T17:00:00	4	Temperatura máxima	23.5
83123	7	Sololá	704	Santa Lucía Utatlán 	7	Santa Rita 	3	Marzo	2023-03-20T00:00:00	2024-11-08T17:00:00	3	Temperatura mínima	21.4
83124	7	Sololá	704	Santa Lucía Utatlán 	7	Santa Rita 	3	Marzo	2023-03-20T00:00:00	2024-11-08T17:00:00	5	Humedad	66
83125	7	Sololá	704	Santa Lucía Utatlán 	7	Santa Rita 	3	Marzo	2023-03-20T00:00:00	2024-11-08T17:00:00	6	Velocidad del viento	8
83126	7	Sololá	704	Santa Lucía Utatlán 	7	Santa Rita 	3	Marzo	2023-03-20T00:00:00	2024-11-08T17:00:00	7	Dirección del viento	8.05
83127	7	Sololá	704	Santa Lucía Utatlán 	7	Santa Rita 	3	Marzo	2023-03-20T00:00:00	2024-11-08T17:00:00	1	Precipitación	0
83128	7	Sololá	704	Santa Lucía Utatlán 	7	Santa Rita 	3	Marzo	2023-03-20T00:00:00	2024-11-08T17:00:00	8	Radiación solar	28
83129	7	Sololá	704	Santa Lucía Utatlán 	7	Santa Rita 	3	Marzo	2023-03-20T00:00:00	2024-11-08T18:00:00	2	Temperatura media	20.2
83130	7	Sololá	704	Santa Lucía Utatlán 	7	Santa Rita 	3	Marzo	2023-03-20T00:00:00	2024-11-08T18:00:00	4	Temperatura máxima	21.4
83131	7	Sololá	704	Santa Lucía Utatlán 	7	Santa Rita 	3	Marzo	2023-03-20T00:00:00	2024-11-08T18:00:00	3	Temperatura mínima	20.2
83132	7	Sololá	704	Santa Lucía Utatlán 	7	Santa Rita 	3	Marzo	2023-03-20T00:00:00	2024-11-08T18:00:00	5	Humedad	72
83133	7	Sololá	704	Santa Lucía Utatlán 	7	Santa Rita 	3	Marzo	2023-03-20T00:00:00	2024-11-08T18:00:00	6	Velocidad del viento	9.7
83134	7	Sololá	704	Santa Lucía Utatlán 	7	Santa Rita 	3	Marzo	2023-03-20T00:00:00	2024-11-08T18:00:00	7	Dirección del viento	9.66
83135	7	Sololá	704	Santa Lucía Utatlán 	7	Santa Rita 	3	Marzo	2023-03-20T00:00:00	2024-11-08T18:00:00	1	Precipitación	0
83136	7	Sololá	704	Santa Lucía Utatlán 	7	Santa Rita 	3	Marzo	2023-03-20T00:00:00	2024-11-08T18:00:00	8	Radiación solar	17
83137	7	Sololá	704	Santa Lucía Utatlán 	7	Santa Rita 	3	Marzo	2023-03-20T00:00:00	2024-11-08T19:00:00	2	Temperatura media	19.3
83138	7	Sololá	704	Santa Lucía Utatlán 	7	Santa Rita 	3	Marzo	2023-03-20T00:00:00	2024-11-08T19:00:00	4	Temperatura máxima	20.3
83139	7	Sololá	704	Santa Lucía Utatlán 	7	Santa Rita 	3	Marzo	2023-03-20T00:00:00	2024-11-08T19:00:00	3	Temperatura mínima	19.2
83140	7	Sololá	704	Santa Lucía Utatlán 	7	Santa Rita 	3	Marzo	2023-03-20T00:00:00	2024-11-08T19:00:00	5	Humedad	78
83141	7	Sololá	704	Santa Lucía Utatlán 	7	Santa Rita 	3	Marzo	2023-03-20T00:00:00	2024-11-08T19:00:00	6	Velocidad del viento	3.2
83142	7	Sololá	704	Santa Lucía Utatlán 	7	Santa Rita 	3	Marzo	2023-03-20T00:00:00	2024-11-08T19:00:00	7	Dirección del viento	3.22
83143	7	Sololá	704	Santa Lucía Utatlán 	7	Santa Rita 	3	Marzo	2023-03-20T00:00:00	2024-11-08T19:00:00	1	Precipitación	0
83144	7	Sololá	704	Santa Lucía Utatlán 	7	Santa Rita 	3	Marzo	2023-03-20T00:00:00	2024-11-08T19:00:00	8	Radiación solar	0
83145	7	Sololá	704	Santa Lucía Utatlán 	7	Santa Rita 	3	Marzo	2023-03-20T00:00:00	2024-11-08T20:00:00	2	Temperatura media	18.4
83146	7	Sololá	704	Santa Lucía Utatlán 	7	Santa Rita 	3	Marzo	2023-03-20T00:00:00	2024-11-08T20:00:00	4	Temperatura máxima	19.3
83147	7	Sololá	704	Santa Lucía Utatlán 	7	Santa Rita 	3	Marzo	2023-03-20T00:00:00	2024-11-08T20:00:00	3	Temperatura mínima	18.3
83148	7	Sololá	704	Santa Lucía Utatlán 	7	Santa Rita 	3	Marzo	2023-03-20T00:00:00	2024-11-08T20:00:00	5	Humedad	82
83149	7	Sololá	704	Santa Lucía Utatlán 	7	Santa Rita 	3	Marzo	2023-03-20T00:00:00	2024-11-08T20:00:00	6	Velocidad del viento	1.6
83150	7	Sololá	704	Santa Lucía Utatlán 	7	Santa Rita 	3	Marzo	2023-03-20T00:00:00	2024-11-08T20:00:00	7	Dirección del viento	1.61
83151	7	Sololá	704	Santa Lucía Utatlán 	7	Santa Rita 	3	Marzo	2023-03-20T00:00:00	2024-11-08T20:00:00	1	Precipitación	0
83152	7	Sololá	704	Santa Lucía Utatlán 	7	Santa Rita 	3	Marzo	2023-03-20T00:00:00	2024-11-08T20:00:00	8	Radiación solar	0
83153	7	Sololá	704	Santa Lucía Utatlán 	7	Santa Rita 	3	Marzo	2023-03-20T00:00:00	2024-11-08T21:00:00	2	Temperatura media	18.7
83154	7	Sololá	704	Santa Lucía Utatlán 	7	Santa Rita 	3	Marzo	2023-03-20T00:00:00	2024-11-08T21:00:00	4	Temperatura máxima	18.8
83155	7	Sololá	704	Santa Lucía Utatlán 	7	Santa Rita 	3	Marzo	2023-03-20T00:00:00	2024-11-08T21:00:00	3	Temperatura mínima	17.9
83156	7	Sololá	704	Santa Lucía Utatlán 	7	Santa Rita 	3	Marzo	2023-03-20T00:00:00	2024-11-08T21:00:00	5	Humedad	73
83157	7	Sololá	704	Santa Lucía Utatlán 	7	Santa Rita 	3	Marzo	2023-03-20T00:00:00	2024-11-08T21:00:00	6	Velocidad del viento	4.8
83158	7	Sololá	704	Santa Lucía Utatlán 	7	Santa Rita 	3	Marzo	2023-03-20T00:00:00	2024-11-08T21:00:00	7	Dirección del viento	4.83
83159	7	Sololá	704	Santa Lucía Utatlán 	7	Santa Rita 	3	Marzo	2023-03-20T00:00:00	2024-11-08T21:00:00	1	Precipitación	0
83160	7	Sololá	704	Santa Lucía Utatlán 	7	Santa Rita 	3	Marzo	2023-03-20T00:00:00	2024-11-08T21:00:00	8	Radiación solar	0
83161	7	Sololá	704	Santa Lucía Utatlán 	7	Santa Rita 	3	Marzo	2023-03-20T00:00:00	2024-11-08T22:00:00	2	Temperatura media	16.7
83162	7	Sololá	704	Santa Lucía Utatlán 	7	Santa Rita 	3	Marzo	2023-03-20T00:00:00	2024-11-08T22:00:00	4	Temperatura máxima	18.7
83163	7	Sololá	704	Santa Lucía Utatlán 	7	Santa Rita 	3	Marzo	2023-03-20T00:00:00	2024-11-08T22:00:00	3	Temperatura mínima	16.7
83164	7	Sololá	704	Santa Lucía Utatlán 	7	Santa Rita 	3	Marzo	2023-03-20T00:00:00	2024-11-08T22:00:00	5	Humedad	82
83165	7	Sololá	704	Santa Lucía Utatlán 	7	Santa Rita 	3	Marzo	2023-03-20T00:00:00	2024-11-08T22:00:00	6	Velocidad del viento	1.6
83166	7	Sololá	704	Santa Lucía Utatlán 	7	Santa Rita 	3	Marzo	2023-03-20T00:00:00	2024-11-08T22:00:00	7	Dirección del viento	1.61
83167	7	Sololá	704	Santa Lucía Utatlán 	7	Santa Rita 	3	Marzo	2023-03-20T00:00:00	2024-11-08T22:00:00	1	Precipitación	0
83168	7	Sololá	704	Santa Lucía Utatlán 	7	Santa Rita 	3	Marzo	2023-03-20T00:00:00	2024-11-08T22:00:00	8	Radiación solar	0
83169	7	Sololá	704	Santa Lucía Utatlán 	7	Santa Rita 	3	Marzo	2023-03-20T00:00:00	2024-11-08T23:00:00	2	Temperatura media	18.4
83170	7	Sololá	704	Santa Lucía Utatlán 	7	Santa Rita 	3	Marzo	2023-03-20T00:00:00	2024-11-08T23:00:00	4	Temperatura máxima	18.6
83171	7	Sololá	704	Santa Lucía Utatlán 	7	Santa Rita 	3	Marzo	2023-03-20T00:00:00	2024-11-08T23:00:00	3	Temperatura mínima	16.6
83172	7	Sololá	704	Santa Lucía Utatlán 	7	Santa Rita 	3	Marzo	2023-03-20T00:00:00	2024-11-08T23:00:00	5	Humedad	75
83173	7	Sololá	704	Santa Lucía Utatlán 	7	Santa Rita 	3	Marzo	2023-03-20T00:00:00	2024-11-08T23:00:00	6	Velocidad del viento	4.8
83174	7	Sololá	704	Santa Lucía Utatlán 	7	Santa Rita 	3	Marzo	2023-03-20T00:00:00	2024-11-08T23:00:00	7	Dirección del viento	4.83
83175	7	Sololá	704	Santa Lucía Utatlán 	7	Santa Rita 	3	Marzo	2023-03-20T00:00:00	2024-11-08T23:00:00	1	Precipitación	0
83176	7	Sololá	704	Santa Lucía Utatlán 	7	Santa Rita 	3	Marzo	2023-03-20T00:00:00	2024-11-08T23:00:00	8	Radiación solar	0
83177	7	Sololá	704	Santa Lucía Utatlán 	7	Santa Rita 	3	Marzo	2023-03-21T00:00:00	2024-11-08T00:00:00	2	Temperatura media	17.8
83178	7	Sololá	704	Santa Lucía Utatlán 	7	Santa Rita 	3	Marzo	2023-03-21T00:00:00	2024-11-08T00:00:00	4	Temperatura máxima	18.9
83179	7	Sololá	704	Santa Lucía Utatlán 	7	Santa Rita 	3	Marzo	2023-03-21T00:00:00	2024-11-08T00:00:00	3	Temperatura mínima	17.8
83180	7	Sololá	704	Santa Lucía Utatlán 	7	Santa Rita 	3	Marzo	2023-03-21T00:00:00	2024-11-08T00:00:00	5	Humedad	77
83181	7	Sololá	704	Santa Lucía Utatlán 	7	Santa Rita 	3	Marzo	2023-03-21T00:00:00	2024-11-08T00:00:00	6	Velocidad del viento	8
83182	7	Sololá	704	Santa Lucía Utatlán 	7	Santa Rita 	3	Marzo	2023-03-21T00:00:00	2024-11-08T00:00:00	7	Dirección del viento	8.05
83183	7	Sololá	704	Santa Lucía Utatlán 	7	Santa Rita 	3	Marzo	2023-03-21T00:00:00	2024-11-08T00:00:00	1	Precipitación	0
83184	7	Sololá	704	Santa Lucía Utatlán 	7	Santa Rita 	3	Marzo	2023-03-21T00:00:00	2024-11-08T00:00:00	8	Radiación solar	0
83185	7	Sololá	704	Santa Lucía Utatlán 	7	Santa Rita 	3	Marzo	2023-03-21T00:00:00	2024-11-08T01:00:00	2	Temperatura media	18.9
83186	7	Sololá	704	Santa Lucía Utatlán 	7	Santa Rita 	3	Marzo	2023-03-21T00:00:00	2024-11-08T01:00:00	4	Temperatura máxima	19.1
83187	7	Sololá	704	Santa Lucía Utatlán 	7	Santa Rita 	3	Marzo	2023-03-21T00:00:00	2024-11-08T01:00:00	3	Temperatura mínima	17.6
83188	7	Sololá	704	Santa Lucía Utatlán 	7	Santa Rita 	3	Marzo	2023-03-21T00:00:00	2024-11-08T01:00:00	5	Humedad	75
83189	7	Sololá	704	Santa Lucía Utatlán 	7	Santa Rita 	3	Marzo	2023-03-21T00:00:00	2024-11-08T01:00:00	6	Velocidad del viento	6.4
83190	7	Sololá	704	Santa Lucía Utatlán 	7	Santa Rita 	3	Marzo	2023-03-21T00:00:00	2024-11-08T01:00:00	7	Dirección del viento	6.44
83191	7	Sololá	704	Santa Lucía Utatlán 	7	Santa Rita 	3	Marzo	2023-03-21T00:00:00	2024-11-08T01:00:00	1	Precipitación	0
83192	7	Sololá	704	Santa Lucía Utatlán 	7	Santa Rita 	3	Marzo	2023-03-21T00:00:00	2024-11-08T01:00:00	8	Radiación solar	0
83193	7	Sololá	704	Santa Lucía Utatlán 	7	Santa Rita 	3	Marzo	2023-03-21T00:00:00	2024-11-08T02:00:00	2	Temperatura media	19.1
83194	7	Sololá	704	Santa Lucía Utatlán 	7	Santa Rita 	3	Marzo	2023-03-21T00:00:00	2024-11-08T02:00:00	4	Temperatura máxima	19.2
83195	7	Sololá	704	Santa Lucía Utatlán 	7	Santa Rita 	3	Marzo	2023-03-21T00:00:00	2024-11-08T02:00:00	3	Temperatura mínima	18.9
83196	7	Sololá	704	Santa Lucía Utatlán 	7	Santa Rita 	3	Marzo	2023-03-21T00:00:00	2024-11-08T02:00:00	5	Humedad	74
83197	7	Sololá	704	Santa Lucía Utatlán 	7	Santa Rita 	3	Marzo	2023-03-21T00:00:00	2024-11-08T02:00:00	6	Velocidad del viento	9.7
83198	7	Sololá	704	Santa Lucía Utatlán 	7	Santa Rita 	3	Marzo	2023-03-21T00:00:00	2024-11-08T02:00:00	7	Dirección del viento	9.66
83199	7	Sololá	704	Santa Lucía Utatlán 	7	Santa Rita 	3	Marzo	2023-03-21T00:00:00	2024-11-08T02:00:00	1	Precipitación	0
83200	7	Sololá	704	Santa Lucía Utatlán 	7	Santa Rita 	3	Marzo	2023-03-21T00:00:00	2024-11-08T02:00:00	8	Radiación solar	0
83201	7	Sololá	704	Santa Lucía Utatlán 	7	Santa Rita 	3	Marzo	2023-03-21T00:00:00	2024-11-08T03:00:00	2	Temperatura media	19.1
83202	7	Sololá	704	Santa Lucía Utatlán 	7	Santa Rita 	3	Marzo	2023-03-21T00:00:00	2024-11-08T03:00:00	4	Temperatura máxima	19.2
83203	7	Sololá	704	Santa Lucía Utatlán 	7	Santa Rita 	3	Marzo	2023-03-21T00:00:00	2024-11-08T03:00:00	3	Temperatura mínima	18.8
83204	7	Sololá	704	Santa Lucía Utatlán 	7	Santa Rita 	3	Marzo	2023-03-21T00:00:00	2024-11-08T03:00:00	5	Humedad	74
83205	7	Sololá	704	Santa Lucía Utatlán 	7	Santa Rita 	3	Marzo	2023-03-21T00:00:00	2024-11-08T03:00:00	6	Velocidad del viento	8
83206	7	Sololá	704	Santa Lucía Utatlán 	7	Santa Rita 	3	Marzo	2023-03-21T00:00:00	2024-11-08T03:00:00	7	Dirección del viento	8.05
83207	7	Sololá	704	Santa Lucía Utatlán 	7	Santa Rita 	3	Marzo	2023-03-21T00:00:00	2024-11-08T03:00:00	1	Precipitación	0
83208	7	Sololá	704	Santa Lucía Utatlán 	7	Santa Rita 	3	Marzo	2023-03-21T00:00:00	2024-11-08T03:00:00	8	Radiación solar	0
83209	7	Sololá	704	Santa Lucía Utatlán 	7	Santa Rita 	3	Marzo	2023-03-21T00:00:00	2024-11-08T04:00:00	2	Temperatura media	18.9
83210	7	Sololá	704	Santa Lucía Utatlán 	7	Santa Rita 	3	Marzo	2023-03-21T00:00:00	2024-11-08T04:00:00	4	Temperatura máxima	19.1
83211	7	Sololá	704	Santa Lucía Utatlán 	7	Santa Rita 	3	Marzo	2023-03-21T00:00:00	2024-11-08T04:00:00	3	Temperatura mínima	18.7
83212	7	Sololá	704	Santa Lucía Utatlán 	7	Santa Rita 	3	Marzo	2023-03-21T00:00:00	2024-11-08T04:00:00	5	Humedad	73
83213	7	Sololá	704	Santa Lucía Utatlán 	7	Santa Rita 	3	Marzo	2023-03-21T00:00:00	2024-11-08T04:00:00	6	Velocidad del viento	12.9
83214	7	Sololá	704	Santa Lucía Utatlán 	7	Santa Rita 	3	Marzo	2023-03-21T00:00:00	2024-11-08T04:00:00	7	Dirección del viento	12.87
83215	7	Sololá	704	Santa Lucía Utatlán 	7	Santa Rita 	3	Marzo	2023-03-21T00:00:00	2024-11-08T04:00:00	1	Precipitación	0
83216	7	Sololá	704	Santa Lucía Utatlán 	7	Santa Rita 	3	Marzo	2023-03-21T00:00:00	2024-11-08T04:00:00	8	Radiación solar	0
83217	7	Sololá	704	Santa Lucía Utatlán 	7	Santa Rita 	3	Marzo	2023-03-21T00:00:00	2024-11-08T05:00:00	2	Temperatura media	18.8
83218	7	Sololá	704	Santa Lucía Utatlán 	7	Santa Rita 	3	Marzo	2023-03-21T00:00:00	2024-11-08T05:00:00	4	Temperatura máxima	18.9
83219	7	Sololá	704	Santa Lucía Utatlán 	7	Santa Rita 	3	Marzo	2023-03-21T00:00:00	2024-11-08T05:00:00	3	Temperatura mínima	18.5
83220	7	Sololá	704	Santa Lucía Utatlán 	7	Santa Rita 	3	Marzo	2023-03-21T00:00:00	2024-11-08T05:00:00	5	Humedad	73
83221	7	Sololá	704	Santa Lucía Utatlán 	7	Santa Rita 	3	Marzo	2023-03-21T00:00:00	2024-11-08T05:00:00	6	Velocidad del viento	8
83222	7	Sololá	704	Santa Lucía Utatlán 	7	Santa Rita 	3	Marzo	2023-03-21T00:00:00	2024-11-08T05:00:00	7	Dirección del viento	8.05
83223	7	Sololá	704	Santa Lucía Utatlán 	7	Santa Rita 	3	Marzo	2023-03-21T00:00:00	2024-11-08T05:00:00	1	Precipitación	0
83224	7	Sololá	704	Santa Lucía Utatlán 	7	Santa Rita 	3	Marzo	2023-03-21T00:00:00	2024-11-08T05:00:00	8	Radiación solar	0
83225	7	Sololá	704	Santa Lucía Utatlán 	7	Santa Rita 	3	Marzo	2023-03-21T00:00:00	2024-11-08T06:00:00	2	Temperatura media	18.6
83226	7	Sololá	704	Santa Lucía Utatlán 	7	Santa Rita 	3	Marzo	2023-03-21T00:00:00	2024-11-08T06:00:00	4	Temperatura máxima	18.9
83227	7	Sololá	704	Santa Lucía Utatlán 	7	Santa Rita 	3	Marzo	2023-03-21T00:00:00	2024-11-08T06:00:00	3	Temperatura mínima	18.6
83228	7	Sololá	704	Santa Lucía Utatlán 	7	Santa Rita 	3	Marzo	2023-03-21T00:00:00	2024-11-08T06:00:00	5	Humedad	75
83229	7	Sololá	704	Santa Lucía Utatlán 	7	Santa Rita 	3	Marzo	2023-03-21T00:00:00	2024-11-08T06:00:00	6	Velocidad del viento	8
83230	7	Sololá	704	Santa Lucía Utatlán 	7	Santa Rita 	3	Marzo	2023-03-21T00:00:00	2024-11-08T06:00:00	7	Dirección del viento	8.05
83231	7	Sololá	704	Santa Lucía Utatlán 	7	Santa Rita 	3	Marzo	2023-03-21T00:00:00	2024-11-08T06:00:00	1	Precipitación	0
83232	7	Sololá	704	Santa Lucía Utatlán 	7	Santa Rita 	3	Marzo	2023-03-21T00:00:00	2024-11-08T06:00:00	8	Radiación solar	0
83233	7	Sololá	704	Santa Lucía Utatlán 	7	Santa Rita 	3	Marzo	2023-03-21T00:00:00	2024-11-08T07:00:00	2	Temperatura media	18
83234	7	Sololá	704	Santa Lucía Utatlán 	7	Santa Rita 	3	Marzo	2023-03-21T00:00:00	2024-11-08T07:00:00	4	Temperatura máxima	18.6
83235	7	Sololá	704	Santa Lucía Utatlán 	7	Santa Rita 	3	Marzo	2023-03-21T00:00:00	2024-11-08T07:00:00	3	Temperatura mínima	17.9
83236	7	Sololá	704	Santa Lucía Utatlán 	7	Santa Rita 	3	Marzo	2023-03-21T00:00:00	2024-11-08T07:00:00	5	Humedad	77
83237	7	Sololá	704	Santa Lucía Utatlán 	7	Santa Rita 	3	Marzo	2023-03-21T00:00:00	2024-11-08T07:00:00	6	Velocidad del viento	4.8
83238	7	Sololá	704	Santa Lucía Utatlán 	7	Santa Rita 	3	Marzo	2023-03-21T00:00:00	2024-11-08T07:00:00	7	Dirección del viento	4.83
83239	7	Sololá	704	Santa Lucía Utatlán 	7	Santa Rita 	3	Marzo	2023-03-21T00:00:00	2024-11-08T07:00:00	1	Precipitación	0
83240	7	Sololá	704	Santa Lucía Utatlán 	7	Santa Rita 	3	Marzo	2023-03-21T00:00:00	2024-11-08T07:00:00	8	Radiación solar	31
83241	7	Sololá	704	Santa Lucía Utatlán 	7	Santa Rita 	3	Marzo	2023-03-21T00:00:00	2024-11-08T08:00:00	2	Temperatura media	19.3
83242	7	Sololá	704	Santa Lucía Utatlán 	7	Santa Rita 	3	Marzo	2023-03-21T00:00:00	2024-11-08T08:00:00	4	Temperatura máxima	19.3
83243	7	Sololá	704	Santa Lucía Utatlán 	7	Santa Rita 	3	Marzo	2023-03-21T00:00:00	2024-11-08T08:00:00	3	Temperatura mínima	17.2
83244	7	Sololá	704	Santa Lucía Utatlán 	7	Santa Rita 	3	Marzo	2023-03-21T00:00:00	2024-11-08T08:00:00	5	Humedad	74
83245	7	Sololá	704	Santa Lucía Utatlán 	7	Santa Rita 	3	Marzo	2023-03-21T00:00:00	2024-11-08T08:00:00	6	Velocidad del viento	4.8
83246	7	Sololá	704	Santa Lucía Utatlán 	7	Santa Rita 	3	Marzo	2023-03-21T00:00:00	2024-11-08T08:00:00	7	Dirección del viento	4.83
83247	7	Sololá	704	Santa Lucía Utatlán 	7	Santa Rita 	3	Marzo	2023-03-21T00:00:00	2024-11-08T08:00:00	1	Precipitación	0
83248	7	Sololá	704	Santa Lucía Utatlán 	7	Santa Rita 	3	Marzo	2023-03-21T00:00:00	2024-11-08T08:00:00	8	Radiación solar	331
83249	7	Sololá	704	Santa Lucía Utatlán 	7	Santa Rita 	3	Marzo	2023-03-21T00:00:00	2024-11-08T09:00:00	2	Temperatura media	20.6
83250	7	Sololá	704	Santa Lucía Utatlán 	7	Santa Rita 	3	Marzo	2023-03-21T00:00:00	2024-11-08T09:00:00	4	Temperatura máxima	20.6
83251	7	Sololá	704	Santa Lucía Utatlán 	7	Santa Rita 	3	Marzo	2023-03-21T00:00:00	2024-11-08T09:00:00	3	Temperatura mínima	19.3
83252	7	Sololá	704	Santa Lucía Utatlán 	7	Santa Rita 	3	Marzo	2023-03-21T00:00:00	2024-11-08T09:00:00	5	Humedad	70
83253	7	Sololá	704	Santa Lucía Utatlán 	7	Santa Rita 	3	Marzo	2023-03-21T00:00:00	2024-11-08T09:00:00	6	Velocidad del viento	11.3
83254	7	Sololá	704	Santa Lucía Utatlán 	7	Santa Rita 	3	Marzo	2023-03-21T00:00:00	2024-11-08T09:00:00	7	Dirección del viento	11.27
83255	7	Sololá	704	Santa Lucía Utatlán 	7	Santa Rita 	3	Marzo	2023-03-21T00:00:00	2024-11-08T09:00:00	1	Precipitación	0
83256	7	Sololá	704	Santa Lucía Utatlán 	7	Santa Rita 	3	Marzo	2023-03-21T00:00:00	2024-11-08T09:00:00	8	Radiación solar	583
83257	7	Sololá	704	Santa Lucía Utatlán 	7	Santa Rita 	3	Marzo	2023-03-21T00:00:00	2024-11-08T10:00:00	2	Temperatura media	22.7
83258	7	Sololá	704	Santa Lucía Utatlán 	7	Santa Rita 	3	Marzo	2023-03-21T00:00:00	2024-11-08T10:00:00	4	Temperatura máxima	22.8
83259	7	Sololá	704	Santa Lucía Utatlán 	7	Santa Rita 	3	Marzo	2023-03-21T00:00:00	2024-11-08T10:00:00	3	Temperatura mínima	20.6
83260	7	Sololá	704	Santa Lucía Utatlán 	7	Santa Rita 	3	Marzo	2023-03-21T00:00:00	2024-11-08T10:00:00	5	Humedad	62
83261	7	Sololá	704	Santa Lucía Utatlán 	7	Santa Rita 	3	Marzo	2023-03-21T00:00:00	2024-11-08T10:00:00	6	Velocidad del viento	6.4
83262	7	Sololá	704	Santa Lucía Utatlán 	7	Santa Rita 	3	Marzo	2023-03-21T00:00:00	2024-11-08T10:00:00	7	Dirección del viento	6.44
83263	7	Sololá	704	Santa Lucía Utatlán 	7	Santa Rita 	3	Marzo	2023-03-21T00:00:00	2024-11-08T10:00:00	1	Precipitación	0
83264	7	Sololá	704	Santa Lucía Utatlán 	7	Santa Rita 	3	Marzo	2023-03-21T00:00:00	2024-11-08T10:00:00	8	Radiación solar	830
83265	7	Sololá	704	Santa Lucía Utatlán 	7	Santa Rita 	3	Marzo	2023-03-21T00:00:00	2024-11-08T11:00:00	2	Temperatura media	23.7
83266	7	Sololá	704	Santa Lucía Utatlán 	7	Santa Rita 	3	Marzo	2023-03-21T00:00:00	2024-11-08T11:00:00	4	Temperatura máxima	23.9
83267	7	Sololá	704	Santa Lucía Utatlán 	7	Santa Rita 	3	Marzo	2023-03-21T00:00:00	2024-11-08T11:00:00	3	Temperatura mínima	22.3
83268	7	Sololá	704	Santa Lucía Utatlán 	7	Santa Rita 	3	Marzo	2023-03-21T00:00:00	2024-11-08T11:00:00	5	Humedad	59
83269	7	Sololá	704	Santa Lucía Utatlán 	7	Santa Rita 	3	Marzo	2023-03-21T00:00:00	2024-11-08T11:00:00	6	Velocidad del viento	8
83270	7	Sololá	704	Santa Lucía Utatlán 	7	Santa Rita 	3	Marzo	2023-03-21T00:00:00	2024-11-08T11:00:00	7	Dirección del viento	8.05
83271	7	Sololá	704	Santa Lucía Utatlán 	7	Santa Rita 	3	Marzo	2023-03-21T00:00:00	2024-11-08T11:00:00	1	Precipitación	0
83272	7	Sololá	704	Santa Lucía Utatlán 	7	Santa Rita 	3	Marzo	2023-03-21T00:00:00	2024-11-08T11:00:00	8	Radiación solar	701
83273	7	Sololá	704	Santa Lucía Utatlán 	7	Santa Rita 	3	Marzo	2023-03-21T00:00:00	2024-11-08T12:00:00	2	Temperatura media	23.7
83274	7	Sololá	704	Santa Lucía Utatlán 	7	Santa Rita 	3	Marzo	2023-03-21T00:00:00	2024-11-08T12:00:00	4	Temperatura máxima	24.5
83275	7	Sololá	704	Santa Lucía Utatlán 	7	Santa Rita 	3	Marzo	2023-03-21T00:00:00	2024-11-08T12:00:00	3	Temperatura mínima	22.8
83276	7	Sololá	704	Santa Lucía Utatlán 	7	Santa Rita 	3	Marzo	2023-03-21T00:00:00	2024-11-08T12:00:00	5	Humedad	58
83277	7	Sololá	704	Santa Lucía Utatlán 	7	Santa Rita 	3	Marzo	2023-03-21T00:00:00	2024-11-08T12:00:00	6	Velocidad del viento	6.4
83278	7	Sololá	704	Santa Lucía Utatlán 	7	Santa Rita 	3	Marzo	2023-03-21T00:00:00	2024-11-08T12:00:00	7	Dirección del viento	6.44
83279	7	Sololá	704	Santa Lucía Utatlán 	7	Santa Rita 	3	Marzo	2023-03-21T00:00:00	2024-11-08T12:00:00	1	Precipitación	0
83280	7	Sololá	704	Santa Lucía Utatlán 	7	Santa Rita 	3	Marzo	2023-03-21T00:00:00	2024-11-08T12:00:00	8	Radiación solar	1024
83281	7	Sololá	704	Santa Lucía Utatlán 	7	Santa Rita 	3	Marzo	2023-03-21T00:00:00	2024-11-08T13:00:00	2	Temperatura media	23.9
83282	7	Sololá	704	Santa Lucía Utatlán 	7	Santa Rita 	3	Marzo	2023-03-21T00:00:00	2024-11-08T13:00:00	4	Temperatura máxima	24.2
83283	7	Sololá	704	Santa Lucía Utatlán 	7	Santa Rita 	3	Marzo	2023-03-21T00:00:00	2024-11-08T13:00:00	3	Temperatura mínima	22.2
83284	7	Sololá	704	Santa Lucía Utatlán 	7	Santa Rita 	3	Marzo	2023-03-21T00:00:00	2024-11-08T13:00:00	5	Humedad	57
83285	7	Sololá	704	Santa Lucía Utatlán 	7	Santa Rita 	3	Marzo	2023-03-21T00:00:00	2024-11-08T13:00:00	6	Velocidad del viento	9.7
83286	7	Sololá	704	Santa Lucía Utatlán 	7	Santa Rita 	3	Marzo	2023-03-21T00:00:00	2024-11-08T13:00:00	7	Dirección del viento	9.66
83287	7	Sololá	704	Santa Lucía Utatlán 	7	Santa Rita 	3	Marzo	2023-03-21T00:00:00	2024-11-08T13:00:00	1	Precipitación	0
83288	7	Sololá	704	Santa Lucía Utatlán 	7	Santa Rita 	3	Marzo	2023-03-21T00:00:00	2024-11-08T13:00:00	8	Radiación solar	719
83289	7	Sololá	704	Santa Lucía Utatlán 	7	Santa Rita 	3	Marzo	2023-03-21T00:00:00	2024-11-08T14:00:00	2	Temperatura media	24.1
83290	7	Sololá	704	Santa Lucía Utatlán 	7	Santa Rita 	3	Marzo	2023-03-21T00:00:00	2024-11-08T14:00:00	4	Temperatura máxima	24.1
83291	7	Sololá	704	Santa Lucía Utatlán 	7	Santa Rita 	3	Marzo	2023-03-21T00:00:00	2024-11-08T14:00:00	3	Temperatura mínima	22.9
83292	7	Sololá	704	Santa Lucía Utatlán 	7	Santa Rita 	3	Marzo	2023-03-21T00:00:00	2024-11-08T14:00:00	5	Humedad	53
83293	7	Sololá	704	Santa Lucía Utatlán 	7	Santa Rita 	3	Marzo	2023-03-21T00:00:00	2024-11-08T14:00:00	6	Velocidad del viento	12.9
83294	7	Sololá	704	Santa Lucía Utatlán 	7	Santa Rita 	3	Marzo	2023-03-21T00:00:00	2024-11-08T14:00:00	7	Dirección del viento	12.87
83295	7	Sololá	704	Santa Lucía Utatlán 	7	Santa Rita 	3	Marzo	2023-03-21T00:00:00	2024-11-08T14:00:00	1	Precipitación	0
83296	7	Sololá	704	Santa Lucía Utatlán 	7	Santa Rita 	3	Marzo	2023-03-21T00:00:00	2024-11-08T14:00:00	8	Radiación solar	399
83297	7	Sololá	704	Santa Lucía Utatlán 	7	Santa Rita 	3	Marzo	2023-03-21T00:00:00	2024-11-08T15:00:00	2	Temperatura media	23.5
83298	7	Sololá	704	Santa Lucía Utatlán 	7	Santa Rita 	3	Marzo	2023-03-21T00:00:00	2024-11-08T15:00:00	4	Temperatura máxima	24.6
83299	7	Sololá	704	Santa Lucía Utatlán 	7	Santa Rita 	3	Marzo	2023-03-21T00:00:00	2024-11-08T15:00:00	3	Temperatura mínima	23.5
83300	7	Sololá	704	Santa Lucía Utatlán 	7	Santa Rita 	3	Marzo	2023-03-21T00:00:00	2024-11-08T15:00:00	5	Humedad	54
83301	7	Sololá	704	Santa Lucía Utatlán 	7	Santa Rita 	3	Marzo	2023-03-21T00:00:00	2024-11-08T15:00:00	6	Velocidad del viento	9.7
83302	7	Sololá	704	Santa Lucía Utatlán 	7	Santa Rita 	3	Marzo	2023-03-21T00:00:00	2024-11-08T15:00:00	7	Dirección del viento	9.66
83303	7	Sololá	704	Santa Lucía Utatlán 	7	Santa Rita 	3	Marzo	2023-03-21T00:00:00	2024-11-08T15:00:00	1	Precipitación	0
83304	7	Sololá	704	Santa Lucía Utatlán 	7	Santa Rita 	3	Marzo	2023-03-21T00:00:00	2024-11-08T15:00:00	8	Radiación solar	364
83305	7	Sololá	704	Santa Lucía Utatlán 	7	Santa Rita 	3	Marzo	2023-03-21T00:00:00	2024-11-08T16:00:00	2	Temperatura media	23.2
83306	7	Sololá	704	Santa Lucía Utatlán 	7	Santa Rita 	3	Marzo	2023-03-21T00:00:00	2024-11-08T16:00:00	4	Temperatura máxima	23.9
83307	7	Sololá	704	Santa Lucía Utatlán 	7	Santa Rita 	3	Marzo	2023-03-21T00:00:00	2024-11-08T16:00:00	3	Temperatura mínima	22.8
83308	7	Sololá	704	Santa Lucía Utatlán 	7	Santa Rita 	3	Marzo	2023-03-21T00:00:00	2024-11-08T16:00:00	5	Humedad	57
83309	7	Sololá	704	Santa Lucía Utatlán 	7	Santa Rita 	3	Marzo	2023-03-21T00:00:00	2024-11-08T16:00:00	6	Velocidad del viento	6.4
83310	7	Sololá	704	Santa Lucía Utatlán 	7	Santa Rita 	3	Marzo	2023-03-21T00:00:00	2024-11-08T16:00:00	7	Dirección del viento	6.44
83311	7	Sololá	704	Santa Lucía Utatlán 	7	Santa Rita 	3	Marzo	2023-03-21T00:00:00	2024-11-08T16:00:00	1	Precipitación	0
83312	7	Sololá	704	Santa Lucía Utatlán 	7	Santa Rita 	3	Marzo	2023-03-21T00:00:00	2024-11-08T16:00:00	8	Radiación solar	271
83313	7	Sololá	704	Santa Lucía Utatlán 	7	Santa Rita 	3	Marzo	2023-03-21T00:00:00	2024-11-08T17:00:00	2	Temperatura media	22.7
83314	7	Sololá	704	Santa Lucía Utatlán 	7	Santa Rita 	3	Marzo	2023-03-21T00:00:00	2024-11-08T17:00:00	4	Temperatura máxima	23.3
83315	7	Sololá	704	Santa Lucía Utatlán 	7	Santa Rita 	3	Marzo	2023-03-21T00:00:00	2024-11-08T17:00:00	3	Temperatura mínima	22.6
83316	7	Sololá	704	Santa Lucía Utatlán 	7	Santa Rita 	3	Marzo	2023-03-21T00:00:00	2024-11-08T17:00:00	5	Humedad	62
83317	7	Sololá	704	Santa Lucía Utatlán 	7	Santa Rita 	3	Marzo	2023-03-21T00:00:00	2024-11-08T17:00:00	6	Velocidad del viento	6.4
83318	7	Sololá	704	Santa Lucía Utatlán 	7	Santa Rita 	3	Marzo	2023-03-21T00:00:00	2024-11-08T17:00:00	7	Dirección del viento	6.44
83319	7	Sololá	704	Santa Lucía Utatlán 	7	Santa Rita 	3	Marzo	2023-03-21T00:00:00	2024-11-08T17:00:00	1	Precipitación	0
83320	7	Sololá	704	Santa Lucía Utatlán 	7	Santa Rita 	3	Marzo	2023-03-21T00:00:00	2024-11-08T17:00:00	8	Radiación solar	162
83321	7	Sololá	704	Santa Lucía Utatlán 	7	Santa Rita 	3	Marzo	2023-03-21T00:00:00	2024-11-08T18:00:00	2	Temperatura media	22.5
83322	7	Sololá	704	Santa Lucía Utatlán 	7	Santa Rita 	3	Marzo	2023-03-21T00:00:00	2024-11-08T18:00:00	4	Temperatura máxima	22.7
83323	7	Sololá	704	Santa Lucía Utatlán 	7	Santa Rita 	3	Marzo	2023-03-21T00:00:00	2024-11-08T18:00:00	3	Temperatura mínima	21.6
83324	7	Sololá	704	Santa Lucía Utatlán 	7	Santa Rita 	3	Marzo	2023-03-21T00:00:00	2024-11-08T18:00:00	5	Humedad	62
83325	7	Sololá	704	Santa Lucía Utatlán 	7	Santa Rita 	3	Marzo	2023-03-21T00:00:00	2024-11-08T18:00:00	6	Velocidad del viento	6.4
83326	7	Sololá	704	Santa Lucía Utatlán 	7	Santa Rita 	3	Marzo	2023-03-21T00:00:00	2024-11-08T18:00:00	7	Dirección del viento	6.44
83327	7	Sololá	704	Santa Lucía Utatlán 	7	Santa Rita 	3	Marzo	2023-03-21T00:00:00	2024-11-08T18:00:00	1	Precipitación	0
83328	7	Sololá	704	Santa Lucía Utatlán 	7	Santa Rita 	3	Marzo	2023-03-21T00:00:00	2024-11-08T18:00:00	8	Radiación solar	60
83329	7	Sololá	704	Santa Lucía Utatlán 	7	Santa Rita 	3	Marzo	2023-03-21T00:00:00	2024-11-08T19:00:00	2	Temperatura media	20.9
83330	7	Sololá	704	Santa Lucía Utatlán 	7	Santa Rita 	3	Marzo	2023-03-21T00:00:00	2024-11-08T19:00:00	4	Temperatura máxima	22.5
83331	7	Sololá	704	Santa Lucía Utatlán 	7	Santa Rita 	3	Marzo	2023-03-21T00:00:00	2024-11-08T19:00:00	3	Temperatura mínima	20.9
83332	7	Sololá	704	Santa Lucía Utatlán 	7	Santa Rita 	3	Marzo	2023-03-21T00:00:00	2024-11-08T19:00:00	5	Humedad	68
83333	7	Sololá	704	Santa Lucía Utatlán 	7	Santa Rita 	3	Marzo	2023-03-21T00:00:00	2024-11-08T19:00:00	6	Velocidad del viento	6.4
83334	7	Sololá	704	Santa Lucía Utatlán 	7	Santa Rita 	3	Marzo	2023-03-21T00:00:00	2024-11-08T19:00:00	7	Dirección del viento	6.44
83335	7	Sololá	704	Santa Lucía Utatlán 	7	Santa Rita 	3	Marzo	2023-03-21T00:00:00	2024-11-08T19:00:00	1	Precipitación	0
83336	7	Sololá	704	Santa Lucía Utatlán 	7	Santa Rita 	3	Marzo	2023-03-21T00:00:00	2024-11-08T19:00:00	8	Radiación solar	0
83337	7	Sololá	704	Santa Lucía Utatlán 	7	Santa Rita 	3	Marzo	2023-03-21T00:00:00	2024-11-08T20:00:00	2	Temperatura media	20.3
83338	7	Sololá	704	Santa Lucía Utatlán 	7	Santa Rita 	3	Marzo	2023-03-21T00:00:00	2024-11-08T20:00:00	4	Temperatura máxima	20.9
83339	7	Sololá	704	Santa Lucía Utatlán 	7	Santa Rita 	3	Marzo	2023-03-21T00:00:00	2024-11-08T20:00:00	3	Temperatura mínima	20.3
83340	7	Sololá	704	Santa Lucía Utatlán 	7	Santa Rita 	3	Marzo	2023-03-21T00:00:00	2024-11-08T20:00:00	5	Humedad	72
83341	7	Sololá	704	Santa Lucía Utatlán 	7	Santa Rita 	3	Marzo	2023-03-21T00:00:00	2024-11-08T20:00:00	6	Velocidad del viento	3.2
83342	7	Sololá	704	Santa Lucía Utatlán 	7	Santa Rita 	3	Marzo	2023-03-21T00:00:00	2024-11-08T20:00:00	7	Dirección del viento	3.22
83343	7	Sololá	704	Santa Lucía Utatlán 	7	Santa Rita 	3	Marzo	2023-03-21T00:00:00	2024-11-08T20:00:00	1	Precipitación	0
83344	7	Sololá	704	Santa Lucía Utatlán 	7	Santa Rita 	3	Marzo	2023-03-21T00:00:00	2024-11-08T20:00:00	8	Radiación solar	0
83345	7	Sololá	704	Santa Lucía Utatlán 	7	Santa Rita 	3	Marzo	2023-03-21T00:00:00	2024-11-08T21:00:00	2	Temperatura media	19.8
83346	7	Sololá	704	Santa Lucía Utatlán 	7	Santa Rita 	3	Marzo	2023-03-21T00:00:00	2024-11-08T21:00:00	4	Temperatura máxima	20.4
83347	7	Sololá	704	Santa Lucía Utatlán 	7	Santa Rita 	3	Marzo	2023-03-21T00:00:00	2024-11-08T21:00:00	3	Temperatura mínima	19.8
83348	7	Sololá	704	Santa Lucía Utatlán 	7	Santa Rita 	3	Marzo	2023-03-21T00:00:00	2024-11-08T21:00:00	5	Humedad	78
83349	7	Sololá	704	Santa Lucía Utatlán 	7	Santa Rita 	3	Marzo	2023-03-21T00:00:00	2024-11-08T21:00:00	6	Velocidad del viento	4.8
83350	7	Sololá	704	Santa Lucía Utatlán 	7	Santa Rita 	3	Marzo	2023-03-21T00:00:00	2024-11-08T21:00:00	7	Dirección del viento	4.83
83351	7	Sololá	704	Santa Lucía Utatlán 	7	Santa Rita 	3	Marzo	2023-03-21T00:00:00	2024-11-08T21:00:00	1	Precipitación	0
83352	7	Sololá	704	Santa Lucía Utatlán 	7	Santa Rita 	3	Marzo	2023-03-21T00:00:00	2024-11-08T21:00:00	8	Radiación solar	0
83353	7	Sololá	704	Santa Lucía Utatlán 	7	Santa Rita 	3	Marzo	2023-03-21T00:00:00	2024-11-08T22:00:00	2	Temperatura media	19.4
83354	7	Sololá	704	Santa Lucía Utatlán 	7	Santa Rita 	3	Marzo	2023-03-21T00:00:00	2024-11-08T22:00:00	4	Temperatura máxima	19.8
83355	7	Sololá	704	Santa Lucía Utatlán 	7	Santa Rita 	3	Marzo	2023-03-21T00:00:00	2024-11-08T22:00:00	3	Temperatura mínima	19.3
83356	7	Sololá	704	Santa Lucía Utatlán 	7	Santa Rita 	3	Marzo	2023-03-21T00:00:00	2024-11-08T22:00:00	5	Humedad	77
83357	7	Sololá	704	Santa Lucía Utatlán 	7	Santa Rita 	3	Marzo	2023-03-21T00:00:00	2024-11-08T22:00:00	6	Velocidad del viento	8
83358	7	Sololá	704	Santa Lucía Utatlán 	7	Santa Rita 	3	Marzo	2023-03-21T00:00:00	2024-11-08T22:00:00	7	Dirección del viento	8.05
83359	7	Sololá	704	Santa Lucía Utatlán 	7	Santa Rita 	3	Marzo	2023-03-21T00:00:00	2024-11-08T22:00:00	1	Precipitación	0
83360	7	Sololá	704	Santa Lucía Utatlán 	7	Santa Rita 	3	Marzo	2023-03-21T00:00:00	2024-11-08T22:00:00	8	Radiación solar	0
83361	7	Sololá	704	Santa Lucía Utatlán 	7	Santa Rita 	3	Marzo	2023-03-21T00:00:00	2024-11-08T23:00:00	2	Temperatura media	19.2
83362	7	Sololá	704	Santa Lucía Utatlán 	7	Santa Rita 	3	Marzo	2023-03-21T00:00:00	2024-11-08T23:00:00	4	Temperatura máxima	19.4
83363	7	Sololá	704	Santa Lucía Utatlán 	7	Santa Rita 	3	Marzo	2023-03-21T00:00:00	2024-11-08T23:00:00	3	Temperatura mínima	19.1
83364	7	Sololá	704	Santa Lucía Utatlán 	7	Santa Rita 	3	Marzo	2023-03-21T00:00:00	2024-11-08T23:00:00	5	Humedad	76
83365	7	Sololá	704	Santa Lucía Utatlán 	7	Santa Rita 	3	Marzo	2023-03-21T00:00:00	2024-11-08T23:00:00	6	Velocidad del viento	3.2
83366	7	Sololá	704	Santa Lucía Utatlán 	7	Santa Rita 	3	Marzo	2023-03-21T00:00:00	2024-11-08T23:00:00	7	Dirección del viento	3.22
83367	7	Sololá	704	Santa Lucía Utatlán 	7	Santa Rita 	3	Marzo	2023-03-21T00:00:00	2024-11-08T23:00:00	1	Precipitación	0
83368	7	Sololá	704	Santa Lucía Utatlán 	7	Santa Rita 	3	Marzo	2023-03-21T00:00:00	2024-11-08T23:00:00	8	Radiación solar	0
83369	7	Sololá	704	Santa Lucía Utatlán 	7	Santa Rita 	3	Marzo	2023-03-22T00:00:00	2024-11-08T00:00:00	2	Temperatura media	19.2
83370	7	Sololá	704	Santa Lucía Utatlán 	7	Santa Rita 	3	Marzo	2023-03-22T00:00:00	2024-11-08T00:00:00	4	Temperatura máxima	19.3
83371	7	Sololá	704	Santa Lucía Utatlán 	7	Santa Rita 	3	Marzo	2023-03-22T00:00:00	2024-11-08T00:00:00	3	Temperatura mínima	18.9
83372	7	Sololá	704	Santa Lucía Utatlán 	7	Santa Rita 	3	Marzo	2023-03-22T00:00:00	2024-11-08T00:00:00	5	Humedad	74
83373	7	Sololá	704	Santa Lucía Utatlán 	7	Santa Rita 	3	Marzo	2023-03-22T00:00:00	2024-11-08T00:00:00	6	Velocidad del viento	4.8
83374	7	Sololá	704	Santa Lucía Utatlán 	7	Santa Rita 	3	Marzo	2023-03-22T00:00:00	2024-11-08T00:00:00	7	Dirección del viento	4.83
83375	7	Sololá	704	Santa Lucía Utatlán 	7	Santa Rita 	3	Marzo	2023-03-22T00:00:00	2024-11-08T00:00:00	1	Precipitación	0
83376	7	Sololá	704	Santa Lucía Utatlán 	7	Santa Rita 	3	Marzo	2023-03-22T00:00:00	2024-11-08T00:00:00	8	Radiación solar	0
83377	7	Sololá	704	Santa Lucía Utatlán 	7	Santa Rita 	3	Marzo	2023-03-22T00:00:00	2024-11-08T01:00:00	2	Temperatura media	19.1
83378	7	Sololá	704	Santa Lucía Utatlán 	7	Santa Rita 	3	Marzo	2023-03-22T00:00:00	2024-11-08T01:00:00	4	Temperatura máxima	19.3
83379	7	Sololá	704	Santa Lucía Utatlán 	7	Santa Rita 	3	Marzo	2023-03-22T00:00:00	2024-11-08T01:00:00	3	Temperatura mínima	18.7
83380	7	Sololá	704	Santa Lucía Utatlán 	7	Santa Rita 	3	Marzo	2023-03-22T00:00:00	2024-11-08T01:00:00	5	Humedad	73
83381	7	Sololá	704	Santa Lucía Utatlán 	7	Santa Rita 	3	Marzo	2023-03-22T00:00:00	2024-11-08T01:00:00	6	Velocidad del viento	4.8
83382	7	Sololá	704	Santa Lucía Utatlán 	7	Santa Rita 	3	Marzo	2023-03-22T00:00:00	2024-11-08T01:00:00	7	Dirección del viento	4.83
83383	7	Sololá	704	Santa Lucía Utatlán 	7	Santa Rita 	3	Marzo	2023-03-22T00:00:00	2024-11-08T01:00:00	1	Precipitación	0
83384	7	Sololá	704	Santa Lucía Utatlán 	7	Santa Rita 	3	Marzo	2023-03-22T00:00:00	2024-11-08T01:00:00	8	Radiación solar	0
83385	7	Sololá	704	Santa Lucía Utatlán 	7	Santa Rita 	3	Marzo	2023-03-22T00:00:00	2024-11-08T02:00:00	2	Temperatura media	18.6
83386	7	Sololá	704	Santa Lucía Utatlán 	7	Santa Rita 	3	Marzo	2023-03-22T00:00:00	2024-11-08T02:00:00	4	Temperatura máxima	19.2
83387	7	Sololá	704	Santa Lucía Utatlán 	7	Santa Rita 	3	Marzo	2023-03-22T00:00:00	2024-11-08T02:00:00	3	Temperatura mínima	18.6
83388	7	Sololá	704	Santa Lucía Utatlán 	7	Santa Rita 	3	Marzo	2023-03-22T00:00:00	2024-11-08T02:00:00	5	Humedad	77
83389	7	Sololá	704	Santa Lucía Utatlán 	7	Santa Rita 	3	Marzo	2023-03-22T00:00:00	2024-11-08T02:00:00	6	Velocidad del viento	4.8
83390	7	Sololá	704	Santa Lucía Utatlán 	7	Santa Rita 	3	Marzo	2023-03-22T00:00:00	2024-11-08T02:00:00	7	Dirección del viento	4.83
83391	7	Sololá	704	Santa Lucía Utatlán 	7	Santa Rita 	3	Marzo	2023-03-22T00:00:00	2024-11-08T02:00:00	1	Precipitación	0
83392	7	Sololá	704	Santa Lucía Utatlán 	7	Santa Rita 	3	Marzo	2023-03-22T00:00:00	2024-11-08T02:00:00	8	Radiación solar	0
83393	7	Sololá	704	Santa Lucía Utatlán 	7	Santa Rita 	3	Marzo	2023-03-22T00:00:00	2024-11-08T03:00:00	2	Temperatura media	19.1
83394	7	Sololá	704	Santa Lucía Utatlán 	7	Santa Rita 	3	Marzo	2023-03-22T00:00:00	2024-11-08T03:00:00	4	Temperatura máxima	19.2
83395	7	Sololá	704	Santa Lucía Utatlán 	7	Santa Rita 	3	Marzo	2023-03-22T00:00:00	2024-11-08T03:00:00	3	Temperatura mínima	18.3
83396	7	Sololá	704	Santa Lucía Utatlán 	7	Santa Rita 	3	Marzo	2023-03-22T00:00:00	2024-11-08T03:00:00	5	Humedad	74
83397	7	Sololá	704	Santa Lucía Utatlán 	7	Santa Rita 	3	Marzo	2023-03-22T00:00:00	2024-11-08T03:00:00	6	Velocidad del viento	6.4
83398	7	Sololá	704	Santa Lucía Utatlán 	7	Santa Rita 	3	Marzo	2023-03-22T00:00:00	2024-11-08T03:00:00	7	Dirección del viento	6.44
83399	7	Sololá	704	Santa Lucía Utatlán 	7	Santa Rita 	3	Marzo	2023-03-22T00:00:00	2024-11-08T03:00:00	1	Precipitación	0
83400	7	Sololá	704	Santa Lucía Utatlán 	7	Santa Rita 	3	Marzo	2023-03-22T00:00:00	2024-11-08T03:00:00	8	Radiación solar	0
83401	7	Sololá	704	Santa Lucía Utatlán 	7	Santa Rita 	3	Marzo	2023-03-22T00:00:00	2024-11-08T04:00:00	2	Temperatura media	18.4
83402	7	Sololá	704	Santa Lucía Utatlán 	7	Santa Rita 	3	Marzo	2023-03-22T00:00:00	2024-11-08T04:00:00	4	Temperatura máxima	19.2
83403	7	Sololá	704	Santa Lucía Utatlán 	7	Santa Rita 	3	Marzo	2023-03-22T00:00:00	2024-11-08T04:00:00	3	Temperatura mínima	18.4
83404	7	Sololá	704	Santa Lucía Utatlán 	7	Santa Rita 	3	Marzo	2023-03-22T00:00:00	2024-11-08T04:00:00	5	Humedad	81
83405	7	Sololá	704	Santa Lucía Utatlán 	7	Santa Rita 	3	Marzo	2023-03-22T00:00:00	2024-11-08T04:00:00	6	Velocidad del viento	4.8
83406	7	Sololá	704	Santa Lucía Utatlán 	7	Santa Rita 	3	Marzo	2023-03-22T00:00:00	2024-11-08T04:00:00	7	Dirección del viento	4.83
83407	7	Sololá	704	Santa Lucía Utatlán 	7	Santa Rita 	3	Marzo	2023-03-22T00:00:00	2024-11-08T04:00:00	1	Precipitación	0
83408	7	Sololá	704	Santa Lucía Utatlán 	7	Santa Rita 	3	Marzo	2023-03-22T00:00:00	2024-11-08T04:00:00	8	Radiación solar	0
83409	7	Sololá	704	Santa Lucía Utatlán 	7	Santa Rita 	3	Marzo	2023-03-22T00:00:00	2024-11-08T05:00:00	2	Temperatura media	18.5
83410	7	Sololá	704	Santa Lucía Utatlán 	7	Santa Rita 	3	Marzo	2023-03-22T00:00:00	2024-11-08T05:00:00	4	Temperatura máxima	18.6
83411	7	Sololá	704	Santa Lucía Utatlán 	7	Santa Rita 	3	Marzo	2023-03-22T00:00:00	2024-11-08T05:00:00	3	Temperatura mínima	18.4
83412	7	Sololá	704	Santa Lucía Utatlán 	7	Santa Rita 	3	Marzo	2023-03-22T00:00:00	2024-11-08T05:00:00	5	Humedad	82
83413	7	Sololá	704	Santa Lucía Utatlán 	7	Santa Rita 	3	Marzo	2023-03-22T00:00:00	2024-11-08T05:00:00	6	Velocidad del viento	4.8
83414	7	Sololá	704	Santa Lucía Utatlán 	7	Santa Rita 	3	Marzo	2023-03-22T00:00:00	2024-11-08T05:00:00	7	Dirección del viento	4.83
83415	7	Sololá	704	Santa Lucía Utatlán 	7	Santa Rita 	3	Marzo	2023-03-22T00:00:00	2024-11-08T05:00:00	1	Precipitación	0
83416	7	Sololá	704	Santa Lucía Utatlán 	7	Santa Rita 	3	Marzo	2023-03-22T00:00:00	2024-11-08T05:00:00	8	Radiación solar	0
83417	7	Sololá	704	Santa Lucía Utatlán 	7	Santa Rita 	3	Marzo	2023-03-22T00:00:00	2024-11-08T06:00:00	2	Temperatura media	18.6
83418	7	Sololá	704	Santa Lucía Utatlán 	7	Santa Rita 	3	Marzo	2023-03-22T00:00:00	2024-11-08T06:00:00	4	Temperatura máxima	18.6
83419	7	Sololá	704	Santa Lucía Utatlán 	7	Santa Rita 	3	Marzo	2023-03-22T00:00:00	2024-11-08T06:00:00	3	Temperatura mínima	18.3
83420	7	Sololá	704	Santa Lucía Utatlán 	7	Santa Rita 	3	Marzo	2023-03-22T00:00:00	2024-11-08T06:00:00	5	Humedad	81
83421	7	Sololá	704	Santa Lucía Utatlán 	7	Santa Rita 	3	Marzo	2023-03-22T00:00:00	2024-11-08T06:00:00	6	Velocidad del viento	4.8
83422	7	Sololá	704	Santa Lucía Utatlán 	7	Santa Rita 	3	Marzo	2023-03-22T00:00:00	2024-11-08T06:00:00	7	Dirección del viento	4.83
83423	7	Sololá	704	Santa Lucía Utatlán 	7	Santa Rita 	3	Marzo	2023-03-22T00:00:00	2024-11-08T06:00:00	1	Precipitación	0
83424	7	Sololá	704	Santa Lucía Utatlán 	7	Santa Rita 	3	Marzo	2023-03-22T00:00:00	2024-11-08T06:00:00	8	Radiación solar	0
83425	7	Sololá	704	Santa Lucía Utatlán 	7	Santa Rita 	3	Marzo	2023-03-22T00:00:00	2024-11-08T07:00:00	2	Temperatura media	18.3
83426	7	Sololá	704	Santa Lucía Utatlán 	7	Santa Rita 	3	Marzo	2023-03-22T00:00:00	2024-11-08T07:00:00	4	Temperatura máxima	18.7
83427	7	Sololá	704	Santa Lucía Utatlán 	7	Santa Rita 	3	Marzo	2023-03-22T00:00:00	2024-11-08T07:00:00	3	Temperatura mínima	18.3
83428	7	Sololá	704	Santa Lucía Utatlán 	7	Santa Rita 	3	Marzo	2023-03-22T00:00:00	2024-11-08T07:00:00	5	Humedad	82
83429	7	Sololá	704	Santa Lucía Utatlán 	7	Santa Rita 	3	Marzo	2023-03-22T00:00:00	2024-11-08T07:00:00	6	Velocidad del viento	6.4
83430	7	Sololá	704	Santa Lucía Utatlán 	7	Santa Rita 	3	Marzo	2023-03-22T00:00:00	2024-11-08T07:00:00	7	Dirección del viento	6.44
83431	7	Sololá	704	Santa Lucía Utatlán 	7	Santa Rita 	3	Marzo	2023-03-22T00:00:00	2024-11-08T07:00:00	1	Precipitación	0
83432	7	Sololá	704	Santa Lucía Utatlán 	7	Santa Rita 	3	Marzo	2023-03-22T00:00:00	2024-11-08T07:00:00	8	Radiación solar	21
83433	7	Sololá	704	Santa Lucía Utatlán 	7	Santa Rita 	3	Marzo	2023-03-22T00:00:00	2024-11-08T08:00:00	2	Temperatura media	18.2
83434	7	Sololá	704	Santa Lucía Utatlán 	7	Santa Rita 	3	Marzo	2023-03-22T00:00:00	2024-11-08T08:00:00	4	Temperatura máxima	18.4
83435	7	Sololá	704	Santa Lucía Utatlán 	7	Santa Rita 	3	Marzo	2023-03-22T00:00:00	2024-11-08T08:00:00	3	Temperatura mínima	18.1
83436	7	Sololá	704	Santa Lucía Utatlán 	7	Santa Rita 	3	Marzo	2023-03-22T00:00:00	2024-11-08T08:00:00	5	Humedad	84
83437	7	Sololá	704	Santa Lucía Utatlán 	7	Santa Rita 	3	Marzo	2023-03-22T00:00:00	2024-11-08T08:00:00	6	Velocidad del viento	8
83438	7	Sololá	704	Santa Lucía Utatlán 	7	Santa Rita 	3	Marzo	2023-03-22T00:00:00	2024-11-08T08:00:00	7	Dirección del viento	8.05
83439	7	Sololá	704	Santa Lucía Utatlán 	7	Santa Rita 	3	Marzo	2023-03-22T00:00:00	2024-11-08T08:00:00	1	Precipitación	0
83440	7	Sololá	704	Santa Lucía Utatlán 	7	Santa Rita 	3	Marzo	2023-03-22T00:00:00	2024-11-08T08:00:00	8	Radiación solar	110
83441	7	Sololá	704	Santa Lucía Utatlán 	7	Santa Rita 	3	Marzo	2023-03-22T00:00:00	2024-11-08T09:00:00	2	Temperatura media	19.6
83442	7	Sololá	704	Santa Lucía Utatlán 	7	Santa Rita 	3	Marzo	2023-03-22T00:00:00	2024-11-08T09:00:00	4	Temperatura máxima	19.6
83443	7	Sololá	704	Santa Lucía Utatlán 	7	Santa Rita 	3	Marzo	2023-03-22T00:00:00	2024-11-08T09:00:00	3	Temperatura mínima	18.2
83444	7	Sololá	704	Santa Lucía Utatlán 	7	Santa Rita 	3	Marzo	2023-03-22T00:00:00	2024-11-08T09:00:00	5	Humedad	78
83445	7	Sololá	704	Santa Lucía Utatlán 	7	Santa Rita 	3	Marzo	2023-03-22T00:00:00	2024-11-08T09:00:00	6	Velocidad del viento	4.8
83446	7	Sololá	704	Santa Lucía Utatlán 	7	Santa Rita 	3	Marzo	2023-03-22T00:00:00	2024-11-08T09:00:00	7	Dirección del viento	4.83
83447	7	Sololá	704	Santa Lucía Utatlán 	7	Santa Rita 	3	Marzo	2023-03-22T00:00:00	2024-11-08T09:00:00	1	Precipitación	0
83448	7	Sololá	704	Santa Lucía Utatlán 	7	Santa Rita 	3	Marzo	2023-03-22T00:00:00	2024-11-08T09:00:00	8	Radiación solar	226
83449	7	Sololá	704	Santa Lucía Utatlán 	7	Santa Rita 	3	Marzo	2023-03-22T00:00:00	2024-11-08T10:00:00	2	Temperatura media	20.4
83450	7	Sololá	704	Santa Lucía Utatlán 	7	Santa Rita 	3	Marzo	2023-03-22T00:00:00	2024-11-08T10:00:00	4	Temperatura máxima	20.8
83451	7	Sololá	704	Santa Lucía Utatlán 	7	Santa Rita 	3	Marzo	2023-03-22T00:00:00	2024-11-08T10:00:00	3	Temperatura mínima	19.6
83452	7	Sololá	704	Santa Lucía Utatlán 	7	Santa Rita 	3	Marzo	2023-03-22T00:00:00	2024-11-08T10:00:00	5	Humedad	74
83453	7	Sololá	704	Santa Lucía Utatlán 	7	Santa Rita 	3	Marzo	2023-03-22T00:00:00	2024-11-08T10:00:00	6	Velocidad del viento	6.4
83454	7	Sololá	704	Santa Lucía Utatlán 	7	Santa Rita 	3	Marzo	2023-03-22T00:00:00	2024-11-08T10:00:00	7	Dirección del viento	6.44
83455	7	Sololá	704	Santa Lucía Utatlán 	7	Santa Rita 	3	Marzo	2023-03-22T00:00:00	2024-11-08T10:00:00	1	Precipitación	0
83456	7	Sololá	704	Santa Lucía Utatlán 	7	Santa Rita 	3	Marzo	2023-03-22T00:00:00	2024-11-08T10:00:00	8	Radiación solar	363
83457	7	Sololá	704	Santa Lucía Utatlán 	7	Santa Rita 	3	Marzo	2023-03-22T00:00:00	2024-11-08T11:00:00	2	Temperatura media	20.9
83458	7	Sololá	704	Santa Lucía Utatlán 	7	Santa Rita 	3	Marzo	2023-03-22T00:00:00	2024-11-08T11:00:00	4	Temperatura máxima	21.6
83459	7	Sololá	704	Santa Lucía Utatlán 	7	Santa Rita 	3	Marzo	2023-03-22T00:00:00	2024-11-08T11:00:00	3	Temperatura mínima	20.2
83460	7	Sololá	704	Santa Lucía Utatlán 	7	Santa Rita 	3	Marzo	2023-03-22T00:00:00	2024-11-08T11:00:00	5	Humedad	71
83461	7	Sololá	704	Santa Lucía Utatlán 	7	Santa Rita 	3	Marzo	2023-03-22T00:00:00	2024-11-08T11:00:00	6	Velocidad del viento	9.7
83462	7	Sololá	704	Santa Lucía Utatlán 	7	Santa Rita 	3	Marzo	2023-03-22T00:00:00	2024-11-08T11:00:00	7	Dirección del viento	9.66
83463	7	Sololá	704	Santa Lucía Utatlán 	7	Santa Rita 	3	Marzo	2023-03-22T00:00:00	2024-11-08T11:00:00	1	Precipitación	0
83464	7	Sololá	704	Santa Lucía Utatlán 	7	Santa Rita 	3	Marzo	2023-03-22T00:00:00	2024-11-08T11:00:00	8	Radiación solar	245
83465	7	Sololá	704	Santa Lucía Utatlán 	7	Santa Rita 	3	Marzo	2023-03-22T00:00:00	2024-11-08T12:00:00	2	Temperatura media	21.1
83466	7	Sololá	704	Santa Lucía Utatlán 	7	Santa Rita 	3	Marzo	2023-03-22T00:00:00	2024-11-08T12:00:00	4	Temperatura máxima	21.1
83467	7	Sololá	704	Santa Lucía Utatlán 	7	Santa Rita 	3	Marzo	2023-03-22T00:00:00	2024-11-08T12:00:00	3	Temperatura mínima	20.2
83468	7	Sololá	704	Santa Lucía Utatlán 	7	Santa Rita 	3	Marzo	2023-03-22T00:00:00	2024-11-08T12:00:00	5	Humedad	72
83469	7	Sololá	704	Santa Lucía Utatlán 	7	Santa Rita 	3	Marzo	2023-03-22T00:00:00	2024-11-08T12:00:00	6	Velocidad del viento	9.7
83470	7	Sololá	704	Santa Lucía Utatlán 	7	Santa Rita 	3	Marzo	2023-03-22T00:00:00	2024-11-08T12:00:00	7	Dirección del viento	9.66
83471	7	Sololá	704	Santa Lucía Utatlán 	7	Santa Rita 	3	Marzo	2023-03-22T00:00:00	2024-11-08T12:00:00	1	Precipitación	0
83472	7	Sololá	704	Santa Lucía Utatlán 	7	Santa Rita 	3	Marzo	2023-03-22T00:00:00	2024-11-08T12:00:00	8	Radiación solar	294
83473	7	Sololá	704	Santa Lucía Utatlán 	7	Santa Rita 	3	Marzo	2023-03-22T00:00:00	2024-11-08T13:00:00	2	Temperatura media	21.8
83474	7	Sololá	704	Santa Lucía Utatlán 	7	Santa Rita 	3	Marzo	2023-03-22T00:00:00	2024-11-08T13:00:00	4	Temperatura máxima	22.2
83475	7	Sololá	704	Santa Lucía Utatlán 	7	Santa Rita 	3	Marzo	2023-03-22T00:00:00	2024-11-08T13:00:00	3	Temperatura mínima	21.1
83476	7	Sololá	704	Santa Lucía Utatlán 	7	Santa Rita 	3	Marzo	2023-03-22T00:00:00	2024-11-08T13:00:00	5	Humedad	68
83477	7	Sololá	704	Santa Lucía Utatlán 	7	Santa Rita 	3	Marzo	2023-03-22T00:00:00	2024-11-08T13:00:00	6	Velocidad del viento	9.7
83478	7	Sololá	704	Santa Lucía Utatlán 	7	Santa Rita 	3	Marzo	2023-03-22T00:00:00	2024-11-08T13:00:00	7	Dirección del viento	9.66
83479	7	Sololá	704	Santa Lucía Utatlán 	7	Santa Rita 	3	Marzo	2023-03-22T00:00:00	2024-11-08T13:00:00	1	Precipitación	0
83480	7	Sololá	704	Santa Lucía Utatlán 	7	Santa Rita 	3	Marzo	2023-03-22T00:00:00	2024-11-08T13:00:00	8	Radiación solar	444
83481	7	Sololá	704	Santa Lucía Utatlán 	7	Santa Rita 	3	Marzo	2023-03-22T00:00:00	2024-11-08T14:00:00	2	Temperatura media	22.7
83482	7	Sololá	704	Santa Lucía Utatlán 	7	Santa Rita 	3	Marzo	2023-03-22T00:00:00	2024-11-08T14:00:00	4	Temperatura máxima	22.7
83483	7	Sololá	704	Santa Lucía Utatlán 	7	Santa Rita 	3	Marzo	2023-03-22T00:00:00	2024-11-08T14:00:00	3	Temperatura mínima	21.2
83484	7	Sololá	704	Santa Lucía Utatlán 	7	Santa Rita 	3	Marzo	2023-03-22T00:00:00	2024-11-08T14:00:00	5	Humedad	66
83485	7	Sololá	704	Santa Lucía Utatlán 	7	Santa Rita 	3	Marzo	2023-03-22T00:00:00	2024-11-08T14:00:00	6	Velocidad del viento	9.7
83486	7	Sololá	704	Santa Lucía Utatlán 	7	Santa Rita 	3	Marzo	2023-03-22T00:00:00	2024-11-08T14:00:00	7	Dirección del viento	9.66
83487	7	Sololá	704	Santa Lucía Utatlán 	7	Santa Rita 	3	Marzo	2023-03-22T00:00:00	2024-11-08T14:00:00	1	Precipitación	0
83488	7	Sololá	704	Santa Lucía Utatlán 	7	Santa Rita 	3	Marzo	2023-03-22T00:00:00	2024-11-08T14:00:00	8	Radiación solar	671
83489	7	Sololá	704	Santa Lucía Utatlán 	7	Santa Rita 	3	Marzo	2023-03-22T00:00:00	2024-11-08T15:00:00	2	Temperatura media	24.1
83490	7	Sololá	704	Santa Lucía Utatlán 	7	Santa Rita 	3	Marzo	2023-03-22T00:00:00	2024-11-08T15:00:00	4	Temperatura máxima	24.2
83491	7	Sololá	704	Santa Lucía Utatlán 	7	Santa Rita 	3	Marzo	2023-03-22T00:00:00	2024-11-08T15:00:00	3	Temperatura mínima	22.7
83492	7	Sololá	704	Santa Lucía Utatlán 	7	Santa Rita 	3	Marzo	2023-03-22T00:00:00	2024-11-08T15:00:00	5	Humedad	55
83493	7	Sololá	704	Santa Lucía Utatlán 	7	Santa Rita 	3	Marzo	2023-03-22T00:00:00	2024-11-08T15:00:00	6	Velocidad del viento	11.3
83494	7	Sololá	704	Santa Lucía Utatlán 	7	Santa Rita 	3	Marzo	2023-03-22T00:00:00	2024-11-08T15:00:00	7	Dirección del viento	11.27
83495	7	Sololá	704	Santa Lucía Utatlán 	7	Santa Rita 	3	Marzo	2023-03-22T00:00:00	2024-11-08T15:00:00	1	Precipitación	0
83496	7	Sololá	704	Santa Lucía Utatlán 	7	Santa Rita 	3	Marzo	2023-03-22T00:00:00	2024-11-08T15:00:00	8	Radiación solar	591
83497	7	Sololá	704	Santa Lucía Utatlán 	7	Santa Rita 	3	Marzo	2023-03-22T00:00:00	2024-11-08T16:00:00	2	Temperatura media	23.5
83498	7	Sololá	704	Santa Lucía Utatlán 	7	Santa Rita 	3	Marzo	2023-03-22T00:00:00	2024-11-08T16:00:00	4	Temperatura máxima	24.3
83499	7	Sololá	704	Santa Lucía Utatlán 	7	Santa Rita 	3	Marzo	2023-03-22T00:00:00	2024-11-08T16:00:00	3	Temperatura mínima	23.5
83500	7	Sololá	704	Santa Lucía Utatlán 	7	Santa Rita 	3	Marzo	2023-03-22T00:00:00	2024-11-08T16:00:00	5	Humedad	57
83501	7	Sololá	704	Santa Lucía Utatlán 	7	Santa Rita 	3	Marzo	2023-03-22T00:00:00	2024-11-08T16:00:00	6	Velocidad del viento	9.7
83502	7	Sololá	704	Santa Lucía Utatlán 	7	Santa Rita 	3	Marzo	2023-03-22T00:00:00	2024-11-08T16:00:00	7	Dirección del viento	9.66
83503	7	Sololá	704	Santa Lucía Utatlán 	7	Santa Rita 	3	Marzo	2023-03-22T00:00:00	2024-11-08T16:00:00	1	Precipitación	0
83504	7	Sololá	704	Santa Lucía Utatlán 	7	Santa Rita 	3	Marzo	2023-03-22T00:00:00	2024-11-08T16:00:00	8	Radiación solar	240
83505	7	Sololá	704	Santa Lucía Utatlán 	7	Santa Rita 	3	Marzo	2023-03-22T00:00:00	2024-11-08T17:00:00	2	Temperatura media	22.9
83506	7	Sololá	704	Santa Lucía Utatlán 	7	Santa Rita 	3	Marzo	2023-03-22T00:00:00	2024-11-08T17:00:00	4	Temperatura máxima	23.6
83507	7	Sololá	704	Santa Lucía Utatlán 	7	Santa Rita 	3	Marzo	2023-03-22T00:00:00	2024-11-08T17:00:00	3	Temperatura mínima	22.5
83508	7	Sololá	704	Santa Lucía Utatlán 	7	Santa Rita 	3	Marzo	2023-03-22T00:00:00	2024-11-08T17:00:00	5	Humedad	59
83509	7	Sololá	704	Santa Lucía Utatlán 	7	Santa Rita 	3	Marzo	2023-03-22T00:00:00	2024-11-08T17:00:00	6	Velocidad del viento	8
83510	7	Sololá	704	Santa Lucía Utatlán 	7	Santa Rita 	3	Marzo	2023-03-22T00:00:00	2024-11-08T17:00:00	7	Dirección del viento	8.05
83511	7	Sololá	704	Santa Lucía Utatlán 	7	Santa Rita 	3	Marzo	2023-03-22T00:00:00	2024-11-08T17:00:00	1	Precipitación	0
83512	7	Sololá	704	Santa Lucía Utatlán 	7	Santa Rita 	3	Marzo	2023-03-22T00:00:00	2024-11-08T17:00:00	8	Radiación solar	295
83513	7	Sololá	704	Santa Lucía Utatlán 	7	Santa Rita 	3	Marzo	2023-03-22T00:00:00	2024-11-08T18:00:00	2	Temperatura media	23.2
83514	7	Sololá	704	Santa Lucía Utatlán 	7	Santa Rita 	3	Marzo	2023-03-22T00:00:00	2024-11-08T18:00:00	4	Temperatura máxima	24.6
83515	7	Sololá	704	Santa Lucía Utatlán 	7	Santa Rita 	3	Marzo	2023-03-22T00:00:00	2024-11-08T18:00:00	3	Temperatura mínima	22.9
83516	7	Sololá	704	Santa Lucía Utatlán 	7	Santa Rita 	3	Marzo	2023-03-22T00:00:00	2024-11-08T18:00:00	5	Humedad	57
83517	7	Sololá	704	Santa Lucía Utatlán 	7	Santa Rita 	3	Marzo	2023-03-22T00:00:00	2024-11-08T18:00:00	6	Velocidad del viento	8
83518	7	Sololá	704	Santa Lucía Utatlán 	7	Santa Rita 	3	Marzo	2023-03-22T00:00:00	2024-11-08T18:00:00	7	Dirección del viento	8.05
83519	7	Sololá	704	Santa Lucía Utatlán 	7	Santa Rita 	3	Marzo	2023-03-22T00:00:00	2024-11-08T18:00:00	1	Precipitación	0
83520	7	Sololá	704	Santa Lucía Utatlán 	7	Santa Rita 	3	Marzo	2023-03-22T00:00:00	2024-11-08T18:00:00	8	Radiación solar	65
83521	7	Sololá	704	Santa Lucía Utatlán 	7	Santa Rita 	3	Marzo	2023-03-22T00:00:00	2024-11-08T19:00:00	2	Temperatura media	20.9
83522	7	Sololá	704	Santa Lucía Utatlán 	7	Santa Rita 	3	Marzo	2023-03-22T00:00:00	2024-11-08T19:00:00	4	Temperatura máxima	23.2
83523	7	Sololá	704	Santa Lucía Utatlán 	7	Santa Rita 	3	Marzo	2023-03-22T00:00:00	2024-11-08T19:00:00	3	Temperatura mínima	20.9
83524	7	Sololá	704	Santa Lucía Utatlán 	7	Santa Rita 	3	Marzo	2023-03-22T00:00:00	2024-11-08T19:00:00	5	Humedad	68
83525	7	Sololá	704	Santa Lucía Utatlán 	7	Santa Rita 	3	Marzo	2023-03-22T00:00:00	2024-11-08T19:00:00	6	Velocidad del viento	6.4
83526	7	Sololá	704	Santa Lucía Utatlán 	7	Santa Rita 	3	Marzo	2023-03-22T00:00:00	2024-11-08T19:00:00	7	Dirección del viento	6.44
83527	7	Sololá	704	Santa Lucía Utatlán 	7	Santa Rita 	3	Marzo	2023-03-22T00:00:00	2024-11-08T19:00:00	1	Precipitación	0
83528	7	Sololá	704	Santa Lucía Utatlán 	7	Santa Rita 	3	Marzo	2023-03-22T00:00:00	2024-11-08T19:00:00	8	Radiación solar	0
83529	7	Sololá	704	Santa Lucía Utatlán 	7	Santa Rita 	3	Marzo	2023-03-22T00:00:00	2024-11-08T20:00:00	2	Temperatura media	19.7
83530	7	Sololá	704	Santa Lucía Utatlán 	7	Santa Rita 	3	Marzo	2023-03-22T00:00:00	2024-11-08T20:00:00	4	Temperatura máxima	20.9
83531	7	Sololá	704	Santa Lucía Utatlán 	7	Santa Rita 	3	Marzo	2023-03-22T00:00:00	2024-11-08T20:00:00	3	Temperatura mínima	19.7
83532	7	Sololá	704	Santa Lucía Utatlán 	7	Santa Rita 	3	Marzo	2023-03-22T00:00:00	2024-11-08T20:00:00	5	Humedad	74
83533	7	Sololá	704	Santa Lucía Utatlán 	7	Santa Rita 	3	Marzo	2023-03-22T00:00:00	2024-11-08T20:00:00	6	Velocidad del viento	6.4
83534	7	Sololá	704	Santa Lucía Utatlán 	7	Santa Rita 	3	Marzo	2023-03-22T00:00:00	2024-11-08T20:00:00	7	Dirección del viento	6.44
83535	7	Sololá	704	Santa Lucía Utatlán 	7	Santa Rita 	3	Marzo	2023-03-22T00:00:00	2024-11-08T20:00:00	1	Precipitación	0
83536	7	Sololá	704	Santa Lucía Utatlán 	7	Santa Rita 	3	Marzo	2023-03-22T00:00:00	2024-11-08T20:00:00	8	Radiación solar	0
83537	7	Sololá	704	Santa Lucía Utatlán 	7	Santa Rita 	3	Marzo	2023-03-22T00:00:00	2024-11-08T21:00:00	2	Temperatura media	19.6
83538	7	Sololá	704	Santa Lucía Utatlán 	7	Santa Rita 	3	Marzo	2023-03-22T00:00:00	2024-11-08T21:00:00	4	Temperatura máxima	19.7
83539	7	Sololá	704	Santa Lucía Utatlán 	7	Santa Rita 	3	Marzo	2023-03-22T00:00:00	2024-11-08T21:00:00	3	Temperatura mínima	19.4
83540	7	Sololá	704	Santa Lucía Utatlán 	7	Santa Rita 	3	Marzo	2023-03-22T00:00:00	2024-11-08T21:00:00	5	Humedad	72
83541	7	Sololá	704	Santa Lucía Utatlán 	7	Santa Rita 	3	Marzo	2023-03-22T00:00:00	2024-11-08T21:00:00	6	Velocidad del viento	6.4
83542	7	Sololá	704	Santa Lucía Utatlán 	7	Santa Rita 	3	Marzo	2023-03-22T00:00:00	2024-11-08T21:00:00	7	Dirección del viento	6.44
83543	7	Sololá	704	Santa Lucía Utatlán 	7	Santa Rita 	3	Marzo	2023-03-22T00:00:00	2024-11-08T21:00:00	1	Precipitación	0
83544	7	Sololá	704	Santa Lucía Utatlán 	7	Santa Rita 	3	Marzo	2023-03-22T00:00:00	2024-11-08T21:00:00	8	Radiación solar	0
83545	7	Sololá	704	Santa Lucía Utatlán 	7	Santa Rita 	3	Marzo	2023-03-22T00:00:00	2024-11-08T22:00:00	2	Temperatura media	18.9
83546	7	Sololá	704	Santa Lucía Utatlán 	7	Santa Rita 	3	Marzo	2023-03-22T00:00:00	2024-11-08T22:00:00	4	Temperatura máxima	19.7
83547	7	Sololá	704	Santa Lucía Utatlán 	7	Santa Rita 	3	Marzo	2023-03-22T00:00:00	2024-11-08T22:00:00	3	Temperatura mínima	18.9
83548	7	Sololá	704	Santa Lucía Utatlán 	7	Santa Rita 	3	Marzo	2023-03-22T00:00:00	2024-11-08T22:00:00	5	Humedad	75
83549	7	Sololá	704	Santa Lucía Utatlán 	7	Santa Rita 	3	Marzo	2023-03-22T00:00:00	2024-11-08T22:00:00	6	Velocidad del viento	6.4
83550	7	Sololá	704	Santa Lucía Utatlán 	7	Santa Rita 	3	Marzo	2023-03-22T00:00:00	2024-11-08T22:00:00	7	Dirección del viento	6.44
83551	7	Sololá	704	Santa Lucía Utatlán 	7	Santa Rita 	3	Marzo	2023-03-22T00:00:00	2024-11-08T22:00:00	1	Precipitación	0
83552	7	Sololá	704	Santa Lucía Utatlán 	7	Santa Rita 	3	Marzo	2023-03-22T00:00:00	2024-11-08T22:00:00	8	Radiación solar	0
83553	7	Sololá	704	Santa Lucía Utatlán 	7	Santa Rita 	3	Marzo	2023-03-22T00:00:00	2024-11-08T23:00:00	2	Temperatura media	17.1
83554	7	Sololá	704	Santa Lucía Utatlán 	7	Santa Rita 	3	Marzo	2023-03-22T00:00:00	2024-11-08T23:00:00	4	Temperatura máxima	19.1
83555	7	Sololá	704	Santa Lucía Utatlán 	7	Santa Rita 	3	Marzo	2023-03-22T00:00:00	2024-11-08T23:00:00	3	Temperatura mínima	17.1
83556	7	Sololá	704	Santa Lucía Utatlán 	7	Santa Rita 	3	Marzo	2023-03-22T00:00:00	2024-11-08T23:00:00	5	Humedad	76
83557	7	Sololá	704	Santa Lucía Utatlán 	7	Santa Rita 	3	Marzo	2023-03-22T00:00:00	2024-11-08T23:00:00	6	Velocidad del viento	3.2
83558	7	Sololá	704	Santa Lucía Utatlán 	7	Santa Rita 	3	Marzo	2023-03-22T00:00:00	2024-11-08T23:00:00	7	Dirección del viento	3.22
83559	7	Sololá	704	Santa Lucía Utatlán 	7	Santa Rita 	3	Marzo	2023-03-22T00:00:00	2024-11-08T23:00:00	1	Precipitación	0
83560	7	Sololá	704	Santa Lucía Utatlán 	7	Santa Rita 	3	Marzo	2023-03-22T00:00:00	2024-11-08T23:00:00	8	Radiación solar	0
83561	7	Sololá	704	Santa Lucía Utatlán 	7	Santa Rita 	3	Marzo	2023-03-23T00:00:00	2024-11-08T00:00:00	2	Temperatura media	18.4
83562	7	Sololá	704	Santa Lucía Utatlán 	7	Santa Rita 	3	Marzo	2023-03-23T00:00:00	2024-11-08T00:00:00	4	Temperatura máxima	18.4
83563	7	Sololá	704	Santa Lucía Utatlán 	7	Santa Rita 	3	Marzo	2023-03-23T00:00:00	2024-11-08T00:00:00	3	Temperatura mínima	17.1
83564	7	Sololá	704	Santa Lucía Utatlán 	7	Santa Rita 	3	Marzo	2023-03-23T00:00:00	2024-11-08T00:00:00	5	Humedad	62
83565	7	Sololá	704	Santa Lucía Utatlán 	7	Santa Rita 	3	Marzo	2023-03-23T00:00:00	2024-11-08T00:00:00	6	Velocidad del viento	4.8
83566	7	Sololá	704	Santa Lucía Utatlán 	7	Santa Rita 	3	Marzo	2023-03-23T00:00:00	2024-11-08T00:00:00	7	Dirección del viento	4.83
83567	7	Sololá	704	Santa Lucía Utatlán 	7	Santa Rita 	3	Marzo	2023-03-23T00:00:00	2024-11-08T00:00:00	1	Precipitación	0
83568	7	Sololá	704	Santa Lucía Utatlán 	7	Santa Rita 	3	Marzo	2023-03-23T00:00:00	2024-11-08T00:00:00	8	Radiación solar	0
83569	7	Sololá	704	Santa Lucía Utatlán 	7	Santa Rita 	3	Marzo	2023-03-23T00:00:00	2024-11-08T01:00:00	2	Temperatura media	15.6
83570	7	Sololá	704	Santa Lucía Utatlán 	7	Santa Rita 	3	Marzo	2023-03-23T00:00:00	2024-11-08T01:00:00	4	Temperatura máxima	18.8
83571	7	Sololá	704	Santa Lucía Utatlán 	7	Santa Rita 	3	Marzo	2023-03-23T00:00:00	2024-11-08T01:00:00	3	Temperatura mínima	15.6
83572	7	Sololá	704	Santa Lucía Utatlán 	7	Santa Rita 	3	Marzo	2023-03-23T00:00:00	2024-11-08T01:00:00	5	Humedad	73
83573	7	Sololá	704	Santa Lucía Utatlán 	7	Santa Rita 	3	Marzo	2023-03-23T00:00:00	2024-11-08T01:00:00	6	Velocidad del viento	3.2
83574	7	Sololá	704	Santa Lucía Utatlán 	7	Santa Rita 	3	Marzo	2023-03-23T00:00:00	2024-11-08T01:00:00	7	Dirección del viento	3.22
83575	7	Sololá	704	Santa Lucía Utatlán 	7	Santa Rita 	3	Marzo	2023-03-23T00:00:00	2024-11-08T01:00:00	1	Precipitación	0
83576	7	Sololá	704	Santa Lucía Utatlán 	7	Santa Rita 	3	Marzo	2023-03-23T00:00:00	2024-11-08T01:00:00	8	Radiación solar	0
83577	7	Sololá	704	Santa Lucía Utatlán 	7	Santa Rita 	3	Marzo	2023-03-23T00:00:00	2024-11-08T02:00:00	2	Temperatura media	15.4
83578	7	Sololá	704	Santa Lucía Utatlán 	7	Santa Rita 	3	Marzo	2023-03-23T00:00:00	2024-11-08T02:00:00	4	Temperatura máxima	15.9
83579	7	Sololá	704	Santa Lucía Utatlán 	7	Santa Rita 	3	Marzo	2023-03-23T00:00:00	2024-11-08T02:00:00	3	Temperatura mínima	15.4
83580	7	Sololá	704	Santa Lucía Utatlán 	7	Santa Rita 	3	Marzo	2023-03-23T00:00:00	2024-11-08T02:00:00	5	Humedad	78
83581	7	Sololá	704	Santa Lucía Utatlán 	7	Santa Rita 	3	Marzo	2023-03-23T00:00:00	2024-11-08T02:00:00	6	Velocidad del viento	1.6
83582	7	Sololá	704	Santa Lucía Utatlán 	7	Santa Rita 	3	Marzo	2023-03-23T00:00:00	2024-11-08T02:00:00	7	Dirección del viento	1.61
83583	7	Sololá	704	Santa Lucía Utatlán 	7	Santa Rita 	3	Marzo	2023-03-23T00:00:00	2024-11-08T02:00:00	1	Precipitación	0
83584	7	Sololá	704	Santa Lucía Utatlán 	7	Santa Rita 	3	Marzo	2023-03-23T00:00:00	2024-11-08T02:00:00	8	Radiación solar	0
83585	7	Sololá	704	Santa Lucía Utatlán 	7	Santa Rita 	3	Marzo	2023-03-23T00:00:00	2024-11-08T03:00:00	2	Temperatura media	15.4
83586	7	Sololá	704	Santa Lucía Utatlán 	7	Santa Rita 	3	Marzo	2023-03-23T00:00:00	2024-11-08T03:00:00	4	Temperatura máxima	15.8
83587	7	Sololá	704	Santa Lucía Utatlán 	7	Santa Rita 	3	Marzo	2023-03-23T00:00:00	2024-11-08T03:00:00	3	Temperatura mínima	15.3
83588	7	Sololá	704	Santa Lucía Utatlán 	7	Santa Rita 	3	Marzo	2023-03-23T00:00:00	2024-11-08T03:00:00	5	Humedad	76
83589	7	Sololá	704	Santa Lucía Utatlán 	7	Santa Rita 	3	Marzo	2023-03-23T00:00:00	2024-11-08T03:00:00	6	Velocidad del viento	3.2
83590	7	Sololá	704	Santa Lucía Utatlán 	7	Santa Rita 	3	Marzo	2023-03-23T00:00:00	2024-11-08T03:00:00	7	Dirección del viento	3.22
83591	7	Sololá	704	Santa Lucía Utatlán 	7	Santa Rita 	3	Marzo	2023-03-23T00:00:00	2024-11-08T03:00:00	1	Precipitación	0
83592	7	Sololá	704	Santa Lucía Utatlán 	7	Santa Rita 	3	Marzo	2023-03-23T00:00:00	2024-11-08T03:00:00	8	Radiación solar	0
83593	7	Sololá	704	Santa Lucía Utatlán 	7	Santa Rita 	3	Marzo	2023-03-23T00:00:00	2024-11-08T04:00:00	2	Temperatura media	15.7
83594	7	Sololá	704	Santa Lucía Utatlán 	7	Santa Rita 	3	Marzo	2023-03-23T00:00:00	2024-11-08T04:00:00	4	Temperatura máxima	15.8
83595	7	Sololá	704	Santa Lucía Utatlán 	7	Santa Rita 	3	Marzo	2023-03-23T00:00:00	2024-11-08T04:00:00	3	Temperatura mínima	15.2
83596	7	Sololá	704	Santa Lucía Utatlán 	7	Santa Rita 	3	Marzo	2023-03-23T00:00:00	2024-11-08T04:00:00	5	Humedad	76
83597	7	Sololá	704	Santa Lucía Utatlán 	7	Santa Rita 	3	Marzo	2023-03-23T00:00:00	2024-11-08T04:00:00	6	Velocidad del viento	1.6
83598	7	Sololá	704	Santa Lucía Utatlán 	7	Santa Rita 	3	Marzo	2023-03-23T00:00:00	2024-11-08T04:00:00	7	Dirección del viento	1.61
83599	7	Sololá	704	Santa Lucía Utatlán 	7	Santa Rita 	3	Marzo	2023-03-23T00:00:00	2024-11-08T04:00:00	1	Precipitación	0
83600	7	Sololá	704	Santa Lucía Utatlán 	7	Santa Rita 	3	Marzo	2023-03-23T00:00:00	2024-11-08T04:00:00	8	Radiación solar	0
83601	7	Sololá	704	Santa Lucía Utatlán 	7	Santa Rita 	3	Marzo	2023-03-23T00:00:00	2024-11-08T05:00:00	2	Temperatura media	15
83602	7	Sololá	704	Santa Lucía Utatlán 	7	Santa Rita 	3	Marzo	2023-03-23T00:00:00	2024-11-08T05:00:00	4	Temperatura máxima	16.1
83603	7	Sololá	704	Santa Lucía Utatlán 	7	Santa Rita 	3	Marzo	2023-03-23T00:00:00	2024-11-08T05:00:00	3	Temperatura mínima	14.8
83604	7	Sololá	704	Santa Lucía Utatlán 	7	Santa Rita 	3	Marzo	2023-03-23T00:00:00	2024-11-08T05:00:00	5	Humedad	81
83605	7	Sololá	704	Santa Lucía Utatlán 	7	Santa Rita 	3	Marzo	2023-03-23T00:00:00	2024-11-08T05:00:00	6	Velocidad del viento	1.6
83606	7	Sololá	704	Santa Lucía Utatlán 	7	Santa Rita 	3	Marzo	2023-03-23T00:00:00	2024-11-08T05:00:00	7	Dirección del viento	1.61
83607	7	Sololá	704	Santa Lucía Utatlán 	7	Santa Rita 	3	Marzo	2023-03-23T00:00:00	2024-11-08T05:00:00	1	Precipitación	0
83608	7	Sololá	704	Santa Lucía Utatlán 	7	Santa Rita 	3	Marzo	2023-03-23T00:00:00	2024-11-08T05:00:00	8	Radiación solar	0
83609	7	Sololá	704	Santa Lucía Utatlán 	7	Santa Rita 	3	Marzo	2023-03-23T00:00:00	2024-11-08T06:00:00	2	Temperatura media	14.5
83610	7	Sololá	704	Santa Lucía Utatlán 	7	Santa Rita 	3	Marzo	2023-03-23T00:00:00	2024-11-08T06:00:00	4	Temperatura máxima	15.3
83611	7	Sololá	704	Santa Lucía Utatlán 	7	Santa Rita 	3	Marzo	2023-03-23T00:00:00	2024-11-08T06:00:00	3	Temperatura mínima	14.2
83612	7	Sololá	704	Santa Lucía Utatlán 	7	Santa Rita 	3	Marzo	2023-03-23T00:00:00	2024-11-08T06:00:00	5	Humedad	82
83613	7	Sololá	704	Santa Lucía Utatlán 	7	Santa Rita 	3	Marzo	2023-03-23T00:00:00	2024-11-08T06:00:00	6	Velocidad del viento	1.6
83614	7	Sololá	704	Santa Lucía Utatlán 	7	Santa Rita 	3	Marzo	2023-03-23T00:00:00	2024-11-08T06:00:00	7	Dirección del viento	1.61
83615	7	Sololá	704	Santa Lucía Utatlán 	7	Santa Rita 	3	Marzo	2023-03-23T00:00:00	2024-11-08T06:00:00	1	Precipitación	0
83616	7	Sololá	704	Santa Lucía Utatlán 	7	Santa Rita 	3	Marzo	2023-03-23T00:00:00	2024-11-08T06:00:00	8	Radiación solar	0
83617	7	Sololá	704	Santa Lucía Utatlán 	7	Santa Rita 	3	Marzo	2023-03-23T00:00:00	2024-11-08T07:00:00	2	Temperatura media	14.9
83618	7	Sololá	704	Santa Lucía Utatlán 	7	Santa Rita 	3	Marzo	2023-03-23T00:00:00	2024-11-08T07:00:00	4	Temperatura máxima	16
83619	7	Sololá	704	Santa Lucía Utatlán 	7	Santa Rita 	3	Marzo	2023-03-23T00:00:00	2024-11-08T07:00:00	3	Temperatura mínima	14.2
83620	7	Sololá	704	Santa Lucía Utatlán 	7	Santa Rita 	3	Marzo	2023-03-23T00:00:00	2024-11-08T07:00:00	5	Humedad	84
83621	7	Sololá	704	Santa Lucía Utatlán 	7	Santa Rita 	3	Marzo	2023-03-23T00:00:00	2024-11-08T07:00:00	6	Velocidad del viento	3.2
83622	7	Sololá	704	Santa Lucía Utatlán 	7	Santa Rita 	3	Marzo	2023-03-23T00:00:00	2024-11-08T07:00:00	7	Dirección del viento	3.22
83623	7	Sololá	704	Santa Lucía Utatlán 	7	Santa Rita 	3	Marzo	2023-03-23T00:00:00	2024-11-08T07:00:00	1	Precipitación	0
83624	7	Sololá	704	Santa Lucía Utatlán 	7	Santa Rita 	3	Marzo	2023-03-23T00:00:00	2024-11-08T07:00:00	8	Radiación solar	37
83625	7	Sololá	704	Santa Lucía Utatlán 	7	Santa Rita 	3	Marzo	2023-03-23T00:00:00	2024-11-08T08:00:00	2	Temperatura media	16.3
83626	7	Sololá	704	Santa Lucía Utatlán 	7	Santa Rita 	3	Marzo	2023-03-23T00:00:00	2024-11-08T08:00:00	4	Temperatura máxima	16.3
83627	7	Sololá	704	Santa Lucía Utatlán 	7	Santa Rita 	3	Marzo	2023-03-23T00:00:00	2024-11-08T08:00:00	3	Temperatura mínima	14.8
83628	7	Sololá	704	Santa Lucía Utatlán 	7	Santa Rita 	3	Marzo	2023-03-23T00:00:00	2024-11-08T08:00:00	5	Humedad	81
83629	7	Sololá	704	Santa Lucía Utatlán 	7	Santa Rita 	3	Marzo	2023-03-23T00:00:00	2024-11-08T08:00:00	6	Velocidad del viento	1.6
83630	7	Sololá	704	Santa Lucía Utatlán 	7	Santa Rita 	3	Marzo	2023-03-23T00:00:00	2024-11-08T08:00:00	7	Dirección del viento	1.61
83631	7	Sololá	704	Santa Lucía Utatlán 	7	Santa Rita 	3	Marzo	2023-03-23T00:00:00	2024-11-08T08:00:00	1	Precipitación	0
83632	7	Sololá	704	Santa Lucía Utatlán 	7	Santa Rita 	3	Marzo	2023-03-23T00:00:00	2024-11-08T08:00:00	8	Radiación solar	336
83633	7	Sololá	704	Santa Lucía Utatlán 	7	Santa Rita 	3	Marzo	2023-03-23T00:00:00	2024-11-08T09:00:00	2	Temperatura media	20.2
83634	7	Sololá	704	Santa Lucía Utatlán 	7	Santa Rita 	3	Marzo	2023-03-23T00:00:00	2024-11-08T09:00:00	4	Temperatura máxima	20.2
83635	7	Sololá	704	Santa Lucía Utatlán 	7	Santa Rita 	3	Marzo	2023-03-23T00:00:00	2024-11-08T09:00:00	3	Temperatura mínima	16.3
83636	7	Sololá	704	Santa Lucía Utatlán 	7	Santa Rita 	3	Marzo	2023-03-23T00:00:00	2024-11-08T09:00:00	5	Humedad	72
83637	7	Sololá	704	Santa Lucía Utatlán 	7	Santa Rita 	3	Marzo	2023-03-23T00:00:00	2024-11-08T09:00:00	6	Velocidad del viento	3.2
83638	7	Sololá	704	Santa Lucía Utatlán 	7	Santa Rita 	3	Marzo	2023-03-23T00:00:00	2024-11-08T09:00:00	7	Dirección del viento	3.22
83639	7	Sololá	704	Santa Lucía Utatlán 	7	Santa Rita 	3	Marzo	2023-03-23T00:00:00	2024-11-08T09:00:00	1	Precipitación	0
83640	7	Sololá	704	Santa Lucía Utatlán 	7	Santa Rita 	3	Marzo	2023-03-23T00:00:00	2024-11-08T09:00:00	8	Radiación solar	599
83641	7	Sololá	704	Santa Lucía Utatlán 	7	Santa Rita 	3	Marzo	2023-03-23T00:00:00	2024-11-08T10:00:00	2	Temperatura media	21.7
83642	7	Sololá	704	Santa Lucía Utatlán 	7	Santa Rita 	3	Marzo	2023-03-23T00:00:00	2024-11-08T10:00:00	4	Temperatura máxima	21.7
83643	7	Sololá	704	Santa Lucía Utatlán 	7	Santa Rita 	3	Marzo	2023-03-23T00:00:00	2024-11-08T10:00:00	3	Temperatura mínima	20.2
83644	7	Sololá	704	Santa Lucía Utatlán 	7	Santa Rita 	3	Marzo	2023-03-23T00:00:00	2024-11-08T10:00:00	5	Humedad	63
83645	7	Sololá	704	Santa Lucía Utatlán 	7	Santa Rita 	3	Marzo	2023-03-23T00:00:00	2024-11-08T10:00:00	6	Velocidad del viento	9.7
83646	7	Sololá	704	Santa Lucía Utatlán 	7	Santa Rita 	3	Marzo	2023-03-23T00:00:00	2024-11-08T10:00:00	7	Dirección del viento	9.66
83647	7	Sololá	704	Santa Lucía Utatlán 	7	Santa Rita 	3	Marzo	2023-03-23T00:00:00	2024-11-08T10:00:00	1	Precipitación	0
83648	7	Sololá	704	Santa Lucía Utatlán 	7	Santa Rita 	3	Marzo	2023-03-23T00:00:00	2024-11-08T10:00:00	8	Radiación solar	832
83649	7	Sololá	704	Santa Lucía Utatlán 	7	Santa Rita 	3	Marzo	2023-03-23T00:00:00	2024-11-08T11:00:00	2	Temperatura media	21.9
83650	7	Sololá	704	Santa Lucía Utatlán 	7	Santa Rita 	3	Marzo	2023-03-23T00:00:00	2024-11-08T11:00:00	4	Temperatura máxima	22.1
83651	7	Sololá	704	Santa Lucía Utatlán 	7	Santa Rita 	3	Marzo	2023-03-23T00:00:00	2024-11-08T11:00:00	3	Temperatura mínima	21.3
83652	7	Sololá	704	Santa Lucía Utatlán 	7	Santa Rita 	3	Marzo	2023-03-23T00:00:00	2024-11-08T11:00:00	5	Humedad	64
83653	7	Sololá	704	Santa Lucía Utatlán 	7	Santa Rita 	3	Marzo	2023-03-23T00:00:00	2024-11-08T11:00:00	6	Velocidad del viento	14.5
83654	7	Sololá	704	Santa Lucía Utatlán 	7	Santa Rita 	3	Marzo	2023-03-23T00:00:00	2024-11-08T11:00:00	7	Dirección del viento	14.48
83655	7	Sololá	704	Santa Lucía Utatlán 	7	Santa Rita 	3	Marzo	2023-03-23T00:00:00	2024-11-08T11:00:00	1	Precipitación	0
83656	7	Sololá	704	Santa Lucía Utatlán 	7	Santa Rita 	3	Marzo	2023-03-23T00:00:00	2024-11-08T11:00:00	8	Radiación solar	997
83657	7	Sololá	704	Santa Lucía Utatlán 	7	Santa Rita 	3	Marzo	2023-03-23T00:00:00	2024-11-08T12:00:00	2	Temperatura media	23
83658	7	Sololá	704	Santa Lucía Utatlán 	7	Santa Rita 	3	Marzo	2023-03-23T00:00:00	2024-11-08T12:00:00	4	Temperatura máxima	23
83659	7	Sololá	704	Santa Lucía Utatlán 	7	Santa Rita 	3	Marzo	2023-03-23T00:00:00	2024-11-08T12:00:00	3	Temperatura mínima	21.7
83660	7	Sololá	704	Santa Lucía Utatlán 	7	Santa Rita 	3	Marzo	2023-03-23T00:00:00	2024-11-08T12:00:00	5	Humedad	57
83661	7	Sololá	704	Santa Lucía Utatlán 	7	Santa Rita 	3	Marzo	2023-03-23T00:00:00	2024-11-08T12:00:00	6	Velocidad del viento	14.5
83662	7	Sololá	704	Santa Lucía Utatlán 	7	Santa Rita 	3	Marzo	2023-03-23T00:00:00	2024-11-08T12:00:00	7	Dirección del viento	14.48
83663	7	Sololá	704	Santa Lucía Utatlán 	7	Santa Rita 	3	Marzo	2023-03-23T00:00:00	2024-11-08T12:00:00	1	Precipitación	0
83664	7	Sololá	704	Santa Lucía Utatlán 	7	Santa Rita 	3	Marzo	2023-03-23T00:00:00	2024-11-08T12:00:00	8	Radiación solar	1116
83665	7	Sololá	704	Santa Lucía Utatlán 	7	Santa Rita 	3	Marzo	2023-03-23T00:00:00	2024-11-08T13:00:00	2	Temperatura media	23.3
83666	7	Sololá	704	Santa Lucía Utatlán 	7	Santa Rita 	3	Marzo	2023-03-23T00:00:00	2024-11-08T13:00:00	4	Temperatura máxima	23.9
83667	7	Sololá	704	Santa Lucía Utatlán 	7	Santa Rita 	3	Marzo	2023-03-23T00:00:00	2024-11-08T13:00:00	3	Temperatura mínima	22.7
83668	7	Sololá	704	Santa Lucía Utatlán 	7	Santa Rita 	3	Marzo	2023-03-23T00:00:00	2024-11-08T13:00:00	5	Humedad	56
83669	7	Sololá	704	Santa Lucía Utatlán 	7	Santa Rita 	3	Marzo	2023-03-23T00:00:00	2024-11-08T13:00:00	6	Velocidad del viento	14.5
83670	7	Sololá	704	Santa Lucía Utatlán 	7	Santa Rita 	3	Marzo	2023-03-23T00:00:00	2024-11-08T13:00:00	7	Dirección del viento	14.48
83671	7	Sololá	704	Santa Lucía Utatlán 	7	Santa Rita 	3	Marzo	2023-03-23T00:00:00	2024-11-08T13:00:00	1	Precipitación	0
83672	7	Sololá	704	Santa Lucía Utatlán 	7	Santa Rita 	3	Marzo	2023-03-23T00:00:00	2024-11-08T13:00:00	8	Radiación solar	1098
83673	7	Sololá	704	Santa Lucía Utatlán 	7	Santa Rita 	3	Marzo	2023-03-23T00:00:00	2024-11-08T14:00:00	2	Temperatura media	24.7
83674	7	Sololá	704	Santa Lucía Utatlán 	7	Santa Rita 	3	Marzo	2023-03-23T00:00:00	2024-11-08T14:00:00	4	Temperatura máxima	25
83675	7	Sololá	704	Santa Lucía Utatlán 	7	Santa Rita 	3	Marzo	2023-03-23T00:00:00	2024-11-08T14:00:00	3	Temperatura mínima	23.3
83676	7	Sololá	704	Santa Lucía Utatlán 	7	Santa Rita 	3	Marzo	2023-03-23T00:00:00	2024-11-08T14:00:00	5	Humedad	54
83677	7	Sololá	704	Santa Lucía Utatlán 	7	Santa Rita 	3	Marzo	2023-03-23T00:00:00	2024-11-08T14:00:00	6	Velocidad del viento	11.3
83678	7	Sololá	704	Santa Lucía Utatlán 	7	Santa Rita 	3	Marzo	2023-03-23T00:00:00	2024-11-08T14:00:00	7	Dirección del viento	11.27
83679	7	Sololá	704	Santa Lucía Utatlán 	7	Santa Rita 	3	Marzo	2023-03-23T00:00:00	2024-11-08T14:00:00	1	Precipitación	0
83680	7	Sololá	704	Santa Lucía Utatlán 	7	Santa Rita 	3	Marzo	2023-03-23T00:00:00	2024-11-08T14:00:00	8	Radiación solar	764
83681	7	Sololá	704	Santa Lucía Utatlán 	7	Santa Rita 	3	Marzo	2023-03-23T00:00:00	2024-11-08T15:00:00	2	Temperatura media	24.1
83682	7	Sololá	704	Santa Lucía Utatlán 	7	Santa Rita 	3	Marzo	2023-03-23T00:00:00	2024-11-08T15:00:00	4	Temperatura máxima	24.8
83683	7	Sololá	704	Santa Lucía Utatlán 	7	Santa Rita 	3	Marzo	2023-03-23T00:00:00	2024-11-08T15:00:00	3	Temperatura mínima	23
83684	7	Sololá	704	Santa Lucía Utatlán 	7	Santa Rita 	3	Marzo	2023-03-23T00:00:00	2024-11-08T15:00:00	5	Humedad	54
83685	7	Sololá	704	Santa Lucía Utatlán 	7	Santa Rita 	3	Marzo	2023-03-23T00:00:00	2024-11-08T15:00:00	6	Velocidad del viento	11.3
83686	7	Sololá	704	Santa Lucía Utatlán 	7	Santa Rita 	3	Marzo	2023-03-23T00:00:00	2024-11-08T15:00:00	7	Dirección del viento	11.27
83687	7	Sololá	704	Santa Lucía Utatlán 	7	Santa Rita 	3	Marzo	2023-03-23T00:00:00	2024-11-08T15:00:00	1	Precipitación	0
83688	7	Sololá	704	Santa Lucía Utatlán 	7	Santa Rita 	3	Marzo	2023-03-23T00:00:00	2024-11-08T15:00:00	8	Radiación solar	732
83689	7	Sololá	704	Santa Lucía Utatlán 	7	Santa Rita 	3	Marzo	2023-03-23T00:00:00	2024-11-08T16:00:00	2	Temperatura media	23.9
83690	7	Sololá	704	Santa Lucía Utatlán 	7	Santa Rita 	3	Marzo	2023-03-23T00:00:00	2024-11-08T16:00:00	4	Temperatura máxima	24.7
83691	7	Sololá	704	Santa Lucía Utatlán 	7	Santa Rita 	3	Marzo	2023-03-23T00:00:00	2024-11-08T16:00:00	3	Temperatura mínima	23
83692	7	Sololá	704	Santa Lucía Utatlán 	7	Santa Rita 	3	Marzo	2023-03-23T00:00:00	2024-11-08T16:00:00	5	Humedad	51
83693	7	Sololá	704	Santa Lucía Utatlán 	7	Santa Rita 	3	Marzo	2023-03-23T00:00:00	2024-11-08T16:00:00	6	Velocidad del viento	12.9
83694	7	Sololá	704	Santa Lucía Utatlán 	7	Santa Rita 	3	Marzo	2023-03-23T00:00:00	2024-11-08T16:00:00	7	Dirección del viento	12.87
83695	7	Sololá	704	Santa Lucía Utatlán 	7	Santa Rita 	3	Marzo	2023-03-23T00:00:00	2024-11-08T16:00:00	1	Precipitación	0
83696	7	Sololá	704	Santa Lucía Utatlán 	7	Santa Rita 	3	Marzo	2023-03-23T00:00:00	2024-11-08T16:00:00	8	Radiación solar	390
83697	7	Sololá	704	Santa Lucía Utatlán 	7	Santa Rita 	3	Marzo	2023-03-23T00:00:00	2024-11-08T17:00:00	2	Temperatura media	24.1
83698	7	Sololá	704	Santa Lucía Utatlán 	7	Santa Rita 	3	Marzo	2023-03-23T00:00:00	2024-11-08T17:00:00	4	Temperatura máxima	24.2
83699	7	Sololá	704	Santa Lucía Utatlán 	7	Santa Rita 	3	Marzo	2023-03-23T00:00:00	2024-11-08T17:00:00	3	Temperatura mínima	22.9
83700	7	Sololá	704	Santa Lucía Utatlán 	7	Santa Rita 	3	Marzo	2023-03-23T00:00:00	2024-11-08T17:00:00	5	Humedad	52
83701	7	Sololá	704	Santa Lucía Utatlán 	7	Santa Rita 	3	Marzo	2023-03-23T00:00:00	2024-11-08T17:00:00	6	Velocidad del viento	11.3
83702	7	Sololá	704	Santa Lucía Utatlán 	7	Santa Rita 	3	Marzo	2023-03-23T00:00:00	2024-11-08T17:00:00	7	Dirección del viento	11.27
83703	7	Sololá	704	Santa Lucía Utatlán 	7	Santa Rita 	3	Marzo	2023-03-23T00:00:00	2024-11-08T17:00:00	1	Precipitación	0
83704	7	Sololá	704	Santa Lucía Utatlán 	7	Santa Rita 	3	Marzo	2023-03-23T00:00:00	2024-11-08T17:00:00	8	Radiación solar	146
83705	7	Sololá	704	Santa Lucía Utatlán 	7	Santa Rita 	3	Marzo	2023-03-23T00:00:00	2024-11-08T18:00:00	2	Temperatura media	22.7
83706	7	Sololá	704	Santa Lucía Utatlán 	7	Santa Rita 	3	Marzo	2023-03-23T00:00:00	2024-11-08T18:00:00	4	Temperatura máxima	24.7
83707	7	Sololá	704	Santa Lucía Utatlán 	7	Santa Rita 	3	Marzo	2023-03-23T00:00:00	2024-11-08T18:00:00	3	Temperatura mínima	22.6
83708	7	Sololá	704	Santa Lucía Utatlán 	7	Santa Rita 	3	Marzo	2023-03-23T00:00:00	2024-11-08T18:00:00	5	Humedad	57
83709	7	Sololá	704	Santa Lucía Utatlán 	7	Santa Rita 	3	Marzo	2023-03-23T00:00:00	2024-11-08T18:00:00	6	Velocidad del viento	8
83710	7	Sololá	704	Santa Lucía Utatlán 	7	Santa Rita 	3	Marzo	2023-03-23T00:00:00	2024-11-08T18:00:00	7	Dirección del viento	8.05
83711	7	Sololá	704	Santa Lucía Utatlán 	7	Santa Rita 	3	Marzo	2023-03-23T00:00:00	2024-11-08T18:00:00	1	Precipitación	0
83712	7	Sololá	704	Santa Lucía Utatlán 	7	Santa Rita 	3	Marzo	2023-03-23T00:00:00	2024-11-08T18:00:00	8	Radiación solar	50
83713	7	Sololá	704	Santa Lucía Utatlán 	7	Santa Rita 	3	Marzo	2023-03-23T00:00:00	2024-11-08T19:00:00	2	Temperatura media	21.3
83714	7	Sololá	704	Santa Lucía Utatlán 	7	Santa Rita 	3	Marzo	2023-03-23T00:00:00	2024-11-08T19:00:00	4	Temperatura máxima	22.7
83715	7	Sololá	704	Santa Lucía Utatlán 	7	Santa Rita 	3	Marzo	2023-03-23T00:00:00	2024-11-08T19:00:00	3	Temperatura mínima	21.3
83716	7	Sololá	704	Santa Lucía Utatlán 	7	Santa Rita 	3	Marzo	2023-03-23T00:00:00	2024-11-08T19:00:00	5	Humedad	63
83717	7	Sololá	704	Santa Lucía Utatlán 	7	Santa Rita 	3	Marzo	2023-03-23T00:00:00	2024-11-08T19:00:00	6	Velocidad del viento	4.8
83718	7	Sololá	704	Santa Lucía Utatlán 	7	Santa Rita 	3	Marzo	2023-03-23T00:00:00	2024-11-08T19:00:00	7	Dirección del viento	4.83
83719	7	Sololá	704	Santa Lucía Utatlán 	7	Santa Rita 	3	Marzo	2023-03-23T00:00:00	2024-11-08T19:00:00	1	Precipitación	0
83720	7	Sololá	704	Santa Lucía Utatlán 	7	Santa Rita 	3	Marzo	2023-03-23T00:00:00	2024-11-08T19:00:00	8	Radiación solar	0
83721	7	Sololá	704	Santa Lucía Utatlán 	7	Santa Rita 	3	Marzo	2023-03-23T00:00:00	2024-11-08T20:00:00	2	Temperatura media	20.3
83722	7	Sololá	704	Santa Lucía Utatlán 	7	Santa Rita 	3	Marzo	2023-03-23T00:00:00	2024-11-08T20:00:00	4	Temperatura máxima	21.3
83723	7	Sololá	704	Santa Lucía Utatlán 	7	Santa Rita 	3	Marzo	2023-03-23T00:00:00	2024-11-08T20:00:00	3	Temperatura mínima	20.3
83724	7	Sololá	704	Santa Lucía Utatlán 	7	Santa Rita 	3	Marzo	2023-03-23T00:00:00	2024-11-08T20:00:00	5	Humedad	67
83725	7	Sololá	704	Santa Lucía Utatlán 	7	Santa Rita 	3	Marzo	2023-03-23T00:00:00	2024-11-08T20:00:00	6	Velocidad del viento	9.7
83726	7	Sololá	704	Santa Lucía Utatlán 	7	Santa Rita 	3	Marzo	2023-03-23T00:00:00	2024-11-08T20:00:00	7	Dirección del viento	9.66
83727	7	Sololá	704	Santa Lucía Utatlán 	7	Santa Rita 	3	Marzo	2023-03-23T00:00:00	2024-11-08T20:00:00	1	Precipitación	0
83728	7	Sololá	704	Santa Lucía Utatlán 	7	Santa Rita 	3	Marzo	2023-03-23T00:00:00	2024-11-08T20:00:00	8	Radiación solar	0
83729	7	Sololá	704	Santa Lucía Utatlán 	7	Santa Rita 	3	Marzo	2023-03-23T00:00:00	2024-11-08T21:00:00	2	Temperatura media	19.8
83730	7	Sololá	704	Santa Lucía Utatlán 	7	Santa Rita 	3	Marzo	2023-03-23T00:00:00	2024-11-08T21:00:00	4	Temperatura máxima	20.4
83731	7	Sololá	704	Santa Lucía Utatlán 	7	Santa Rita 	3	Marzo	2023-03-23T00:00:00	2024-11-08T21:00:00	3	Temperatura mínima	19.8
83732	7	Sololá	704	Santa Lucía Utatlán 	7	Santa Rita 	3	Marzo	2023-03-23T00:00:00	2024-11-08T21:00:00	5	Humedad	69
83733	7	Sololá	704	Santa Lucía Utatlán 	7	Santa Rita 	3	Marzo	2023-03-23T00:00:00	2024-11-08T21:00:00	6	Velocidad del viento	3.2
83734	7	Sololá	704	Santa Lucía Utatlán 	7	Santa Rita 	3	Marzo	2023-03-23T00:00:00	2024-11-08T21:00:00	7	Dirección del viento	3.22
83735	7	Sololá	704	Santa Lucía Utatlán 	7	Santa Rita 	3	Marzo	2023-03-23T00:00:00	2024-11-08T21:00:00	1	Precipitación	0
83736	7	Sololá	704	Santa Lucía Utatlán 	7	Santa Rita 	3	Marzo	2023-03-23T00:00:00	2024-11-08T21:00:00	8	Radiación solar	0
83737	7	Sololá	704	Santa Lucía Utatlán 	7	Santa Rita 	3	Marzo	2023-03-23T00:00:00	2024-11-08T22:00:00	2	Temperatura media	18.9
83738	7	Sololá	704	Santa Lucía Utatlán 	7	Santa Rita 	3	Marzo	2023-03-23T00:00:00	2024-11-08T22:00:00	4	Temperatura máxima	19.8
83739	7	Sololá	704	Santa Lucía Utatlán 	7	Santa Rita 	3	Marzo	2023-03-23T00:00:00	2024-11-08T22:00:00	3	Temperatura mínima	18.9
83740	7	Sololá	704	Santa Lucía Utatlán 	7	Santa Rita 	3	Marzo	2023-03-23T00:00:00	2024-11-08T22:00:00	5	Humedad	75
83741	7	Sololá	704	Santa Lucía Utatlán 	7	Santa Rita 	3	Marzo	2023-03-23T00:00:00	2024-11-08T22:00:00	6	Velocidad del viento	3.2
83742	7	Sololá	704	Santa Lucía Utatlán 	7	Santa Rita 	3	Marzo	2023-03-23T00:00:00	2024-11-08T22:00:00	7	Dirección del viento	3.22
83743	7	Sololá	704	Santa Lucía Utatlán 	7	Santa Rita 	3	Marzo	2023-03-23T00:00:00	2024-11-08T22:00:00	1	Precipitación	0
83744	7	Sololá	704	Santa Lucía Utatlán 	7	Santa Rita 	3	Marzo	2023-03-23T00:00:00	2024-11-08T22:00:00	8	Radiación solar	0
83745	7	Sololá	704	Santa Lucía Utatlán 	7	Santa Rita 	3	Marzo	2023-03-23T00:00:00	2024-11-08T23:00:00	2	Temperatura media	17.4
83746	7	Sololá	704	Santa Lucía Utatlán 	7	Santa Rita 	3	Marzo	2023-03-23T00:00:00	2024-11-08T23:00:00	4	Temperatura máxima	18.9
83747	7	Sololá	704	Santa Lucía Utatlán 	7	Santa Rita 	3	Marzo	2023-03-23T00:00:00	2024-11-08T23:00:00	3	Temperatura mínima	17.4
83748	7	Sololá	704	Santa Lucía Utatlán 	7	Santa Rita 	3	Marzo	2023-03-23T00:00:00	2024-11-08T23:00:00	5	Humedad	81
83749	7	Sololá	704	Santa Lucía Utatlán 	7	Santa Rita 	3	Marzo	2023-03-23T00:00:00	2024-11-08T23:00:00	6	Velocidad del viento	3.2
83750	7	Sololá	704	Santa Lucía Utatlán 	7	Santa Rita 	3	Marzo	2023-03-23T00:00:00	2024-11-08T23:00:00	7	Dirección del viento	3.22
83751	7	Sololá	704	Santa Lucía Utatlán 	7	Santa Rita 	3	Marzo	2023-03-23T00:00:00	2024-11-08T23:00:00	1	Precipitación	0
83752	7	Sololá	704	Santa Lucía Utatlán 	7	Santa Rita 	3	Marzo	2023-03-23T00:00:00	2024-11-08T23:00:00	8	Radiación solar	0
83753	7	Sololá	704	Santa Lucía Utatlán 	7	Santa Rita 	3	Marzo	2023-03-24T00:00:00	2024-11-08T00:00:00	2	Temperatura media	15.9
83754	7	Sololá	704	Santa Lucía Utatlán 	7	Santa Rita 	3	Marzo	2023-03-24T00:00:00	2024-11-08T00:00:00	4	Temperatura máxima	17.4
83755	7	Sololá	704	Santa Lucía Utatlán 	7	Santa Rita 	3	Marzo	2023-03-24T00:00:00	2024-11-08T00:00:00	3	Temperatura mínima	15.9
83756	7	Sololá	704	Santa Lucía Utatlán 	7	Santa Rita 	3	Marzo	2023-03-24T00:00:00	2024-11-08T00:00:00	5	Humedad	78
83757	7	Sololá	704	Santa Lucía Utatlán 	7	Santa Rita 	3	Marzo	2023-03-24T00:00:00	2024-11-08T00:00:00	6	Velocidad del viento	3.2
83758	7	Sololá	704	Santa Lucía Utatlán 	7	Santa Rita 	3	Marzo	2023-03-24T00:00:00	2024-11-08T00:00:00	7	Dirección del viento	3.22
83759	7	Sololá	704	Santa Lucía Utatlán 	7	Santa Rita 	3	Marzo	2023-03-24T00:00:00	2024-11-08T00:00:00	1	Precipitación	0
83760	7	Sololá	704	Santa Lucía Utatlán 	7	Santa Rita 	3	Marzo	2023-03-24T00:00:00	2024-11-08T00:00:00	8	Radiación solar	0
83761	7	Sololá	704	Santa Lucía Utatlán 	7	Santa Rita 	3	Marzo	2023-03-24T00:00:00	2024-11-08T01:00:00	2	Temperatura media	15.3
83762	7	Sololá	704	Santa Lucía Utatlán 	7	Santa Rita 	3	Marzo	2023-03-24T00:00:00	2024-11-08T01:00:00	4	Temperatura máxima	16
83763	7	Sololá	704	Santa Lucía Utatlán 	7	Santa Rita 	3	Marzo	2023-03-24T00:00:00	2024-11-08T01:00:00	3	Temperatura mínima	15.3
83764	7	Sololá	704	Santa Lucía Utatlán 	7	Santa Rita 	3	Marzo	2023-03-24T00:00:00	2024-11-08T01:00:00	5	Humedad	81
83765	7	Sololá	704	Santa Lucía Utatlán 	7	Santa Rita 	3	Marzo	2023-03-24T00:00:00	2024-11-08T01:00:00	6	Velocidad del viento	1.6
83766	7	Sololá	704	Santa Lucía Utatlán 	7	Santa Rita 	3	Marzo	2023-03-24T00:00:00	2024-11-08T01:00:00	7	Dirección del viento	1.61
83767	7	Sololá	704	Santa Lucía Utatlán 	7	Santa Rita 	3	Marzo	2023-03-24T00:00:00	2024-11-08T01:00:00	1	Precipitación	0
83768	7	Sololá	704	Santa Lucía Utatlán 	7	Santa Rita 	3	Marzo	2023-03-24T00:00:00	2024-11-08T01:00:00	8	Radiación solar	0
83769	7	Sololá	704	Santa Lucía Utatlán 	7	Santa Rita 	3	Marzo	2023-03-24T00:00:00	2024-11-08T02:00:00	2	Temperatura media	14.9
83770	7	Sololá	704	Santa Lucía Utatlán 	7	Santa Rita 	3	Marzo	2023-03-24T00:00:00	2024-11-08T02:00:00	4	Temperatura máxima	15.3
83771	7	Sololá	704	Santa Lucía Utatlán 	7	Santa Rita 	3	Marzo	2023-03-24T00:00:00	2024-11-08T02:00:00	3	Temperatura mínima	14.8
83772	7	Sololá	704	Santa Lucía Utatlán 	7	Santa Rita 	3	Marzo	2023-03-24T00:00:00	2024-11-08T02:00:00	5	Humedad	75
83773	7	Sololá	704	Santa Lucía Utatlán 	7	Santa Rita 	3	Marzo	2023-03-24T00:00:00	2024-11-08T02:00:00	6	Velocidad del viento	1.6
83774	7	Sololá	704	Santa Lucía Utatlán 	7	Santa Rita 	3	Marzo	2023-03-24T00:00:00	2024-11-08T02:00:00	7	Dirección del viento	1.61
83775	7	Sololá	704	Santa Lucía Utatlán 	7	Santa Rita 	3	Marzo	2023-03-24T00:00:00	2024-11-08T02:00:00	1	Precipitación	0
83776	7	Sololá	704	Santa Lucía Utatlán 	7	Santa Rita 	3	Marzo	2023-03-24T00:00:00	2024-11-08T02:00:00	8	Radiación solar	0
83777	7	Sololá	704	Santa Lucía Utatlán 	7	Santa Rita 	3	Marzo	2023-03-24T00:00:00	2024-11-08T03:00:00	2	Temperatura media	15.3
83778	7	Sololá	704	Santa Lucía Utatlán 	7	Santa Rita 	3	Marzo	2023-03-24T00:00:00	2024-11-08T03:00:00	4	Temperatura máxima	15.7
83779	7	Sololá	704	Santa Lucía Utatlán 	7	Santa Rita 	3	Marzo	2023-03-24T00:00:00	2024-11-08T03:00:00	3	Temperatura mínima	14.9
83780	7	Sololá	704	Santa Lucía Utatlán 	7	Santa Rita 	3	Marzo	2023-03-24T00:00:00	2024-11-08T03:00:00	5	Humedad	68
83781	7	Sololá	704	Santa Lucía Utatlán 	7	Santa Rita 	3	Marzo	2023-03-24T00:00:00	2024-11-08T03:00:00	6	Velocidad del viento	3.2
83782	7	Sololá	704	Santa Lucía Utatlán 	7	Santa Rita 	3	Marzo	2023-03-24T00:00:00	2024-11-08T03:00:00	7	Dirección del viento	3.22
83783	7	Sololá	704	Santa Lucía Utatlán 	7	Santa Rita 	3	Marzo	2023-03-24T00:00:00	2024-11-08T03:00:00	1	Precipitación	0
83784	7	Sololá	704	Santa Lucía Utatlán 	7	Santa Rita 	3	Marzo	2023-03-24T00:00:00	2024-11-08T03:00:00	8	Radiación solar	0
83785	7	Sololá	704	Santa Lucía Utatlán 	7	Santa Rita 	3	Marzo	2023-03-24T00:00:00	2024-11-08T04:00:00	2	Temperatura media	16.1
83786	7	Sololá	704	Santa Lucía Utatlán 	7	Santa Rita 	3	Marzo	2023-03-24T00:00:00	2024-11-08T04:00:00	4	Temperatura máxima	16.1
83787	7	Sololá	704	Santa Lucía Utatlán 	7	Santa Rita 	3	Marzo	2023-03-24T00:00:00	2024-11-08T04:00:00	3	Temperatura mínima	15.3
83788	7	Sololá	704	Santa Lucía Utatlán 	7	Santa Rita 	3	Marzo	2023-03-24T00:00:00	2024-11-08T04:00:00	5	Humedad	66
83789	7	Sololá	704	Santa Lucía Utatlán 	7	Santa Rita 	3	Marzo	2023-03-24T00:00:00	2024-11-08T04:00:00	6	Velocidad del viento	4.8
83790	7	Sololá	704	Santa Lucía Utatlán 	7	Santa Rita 	3	Marzo	2023-03-24T00:00:00	2024-11-08T04:00:00	7	Dirección del viento	4.83
83791	7	Sololá	704	Santa Lucía Utatlán 	7	Santa Rita 	3	Marzo	2023-03-24T00:00:00	2024-11-08T04:00:00	1	Precipitación	0
83792	7	Sololá	704	Santa Lucía Utatlán 	7	Santa Rita 	3	Marzo	2023-03-24T00:00:00	2024-11-08T04:00:00	8	Radiación solar	0
83793	7	Sololá	704	Santa Lucía Utatlán 	7	Santa Rita 	3	Marzo	2023-03-24T00:00:00	2024-11-08T05:00:00	2	Temperatura media	15.8
83794	7	Sololá	704	Santa Lucía Utatlán 	7	Santa Rita 	3	Marzo	2023-03-24T00:00:00	2024-11-08T05:00:00	4	Temperatura máxima	16.2
83795	7	Sololá	704	Santa Lucía Utatlán 	7	Santa Rita 	3	Marzo	2023-03-24T00:00:00	2024-11-08T05:00:00	3	Temperatura mínima	15.7
83796	7	Sololá	704	Santa Lucía Utatlán 	7	Santa Rita 	3	Marzo	2023-03-24T00:00:00	2024-11-08T05:00:00	5	Humedad	72
83797	7	Sololá	704	Santa Lucía Utatlán 	7	Santa Rita 	3	Marzo	2023-03-24T00:00:00	2024-11-08T05:00:00	6	Velocidad del viento	4.8
83798	7	Sololá	704	Santa Lucía Utatlán 	7	Santa Rita 	3	Marzo	2023-03-24T00:00:00	2024-11-08T05:00:00	7	Dirección del viento	4.83
83799	7	Sololá	704	Santa Lucía Utatlán 	7	Santa Rita 	3	Marzo	2023-03-24T00:00:00	2024-11-08T05:00:00	1	Precipitación	0
83800	7	Sololá	704	Santa Lucía Utatlán 	7	Santa Rita 	3	Marzo	2023-03-24T00:00:00	2024-11-08T05:00:00	8	Radiación solar	0
83801	7	Sololá	704	Santa Lucía Utatlán 	7	Santa Rita 	3	Marzo	2023-03-24T00:00:00	2024-11-08T06:00:00	2	Temperatura media	15.6
83802	7	Sololá	704	Santa Lucía Utatlán 	7	Santa Rita 	3	Marzo	2023-03-24T00:00:00	2024-11-08T06:00:00	4	Temperatura máxima	16.1
83803	7	Sololá	704	Santa Lucía Utatlán 	7	Santa Rita 	3	Marzo	2023-03-24T00:00:00	2024-11-08T06:00:00	3	Temperatura mínima	15.6
83804	7	Sololá	704	Santa Lucía Utatlán 	7	Santa Rita 	3	Marzo	2023-03-24T00:00:00	2024-11-08T06:00:00	5	Humedad	77
83805	7	Sololá	704	Santa Lucía Utatlán 	7	Santa Rita 	3	Marzo	2023-03-24T00:00:00	2024-11-08T06:00:00	6	Velocidad del viento	3.2
83806	7	Sololá	704	Santa Lucía Utatlán 	7	Santa Rita 	3	Marzo	2023-03-24T00:00:00	2024-11-08T06:00:00	7	Dirección del viento	3.22
83807	7	Sololá	704	Santa Lucía Utatlán 	7	Santa Rita 	3	Marzo	2023-03-24T00:00:00	2024-11-08T06:00:00	1	Precipitación	0
83808	7	Sololá	704	Santa Lucía Utatlán 	7	Santa Rita 	3	Marzo	2023-03-24T00:00:00	2024-11-08T06:00:00	8	Radiación solar	0
83809	7	Sololá	704	Santa Lucía Utatlán 	7	Santa Rita 	3	Marzo	2023-03-24T00:00:00	2024-11-08T07:00:00	2	Temperatura media	14.6
83810	7	Sololá	704	Santa Lucía Utatlán 	7	Santa Rita 	3	Marzo	2023-03-24T00:00:00	2024-11-08T07:00:00	4	Temperatura máxima	15.6
83811	7	Sololá	704	Santa Lucía Utatlán 	7	Santa Rita 	3	Marzo	2023-03-24T00:00:00	2024-11-08T07:00:00	3	Temperatura mínima	14.6
83812	7	Sololá	704	Santa Lucía Utatlán 	7	Santa Rita 	3	Marzo	2023-03-24T00:00:00	2024-11-08T07:00:00	5	Humedad	78
83813	7	Sololá	704	Santa Lucía Utatlán 	7	Santa Rita 	3	Marzo	2023-03-24T00:00:00	2024-11-08T07:00:00	6	Velocidad del viento	3.2
83814	7	Sololá	704	Santa Lucía Utatlán 	7	Santa Rita 	3	Marzo	2023-03-24T00:00:00	2024-11-08T07:00:00	7	Dirección del viento	3.22
83815	7	Sololá	704	Santa Lucía Utatlán 	7	Santa Rita 	3	Marzo	2023-03-24T00:00:00	2024-11-08T07:00:00	1	Precipitación	0
83816	7	Sololá	704	Santa Lucía Utatlán 	7	Santa Rita 	3	Marzo	2023-03-24T00:00:00	2024-11-08T07:00:00	8	Radiación solar	44
83817	7	Sololá	704	Santa Lucía Utatlán 	7	Santa Rita 	3	Marzo	2023-03-24T00:00:00	2024-11-08T08:00:00	2	Temperatura media	16.4
83818	7	Sololá	704	Santa Lucía Utatlán 	7	Santa Rita 	3	Marzo	2023-03-24T00:00:00	2024-11-08T08:00:00	4	Temperatura máxima	16.4
83819	7	Sololá	704	Santa Lucía Utatlán 	7	Santa Rita 	3	Marzo	2023-03-24T00:00:00	2024-11-08T08:00:00	3	Temperatura mínima	14.4
83820	7	Sololá	704	Santa Lucía Utatlán 	7	Santa Rita 	3	Marzo	2023-03-24T00:00:00	2024-11-08T08:00:00	5	Humedad	75
83821	7	Sololá	704	Santa Lucía Utatlán 	7	Santa Rita 	3	Marzo	2023-03-24T00:00:00	2024-11-08T08:00:00	6	Velocidad del viento	3.2
83822	7	Sololá	704	Santa Lucía Utatlán 	7	Santa Rita 	3	Marzo	2023-03-24T00:00:00	2024-11-08T08:00:00	7	Dirección del viento	3.22
83823	7	Sololá	704	Santa Lucía Utatlán 	7	Santa Rita 	3	Marzo	2023-03-24T00:00:00	2024-11-08T08:00:00	1	Precipitación	0
83824	7	Sololá	704	Santa Lucía Utatlán 	7	Santa Rita 	3	Marzo	2023-03-24T00:00:00	2024-11-08T08:00:00	8	Radiación solar	348
83825	7	Sololá	704	Santa Lucía Utatlán 	7	Santa Rita 	3	Marzo	2023-03-24T00:00:00	2024-11-08T09:00:00	2	Temperatura media	19.1
83826	7	Sololá	704	Santa Lucía Utatlán 	7	Santa Rita 	3	Marzo	2023-03-24T00:00:00	2024-11-08T09:00:00	4	Temperatura máxima	19.1
83827	7	Sololá	704	Santa Lucía Utatlán 	7	Santa Rita 	3	Marzo	2023-03-24T00:00:00	2024-11-08T09:00:00	3	Temperatura mínima	16.4
83828	7	Sololá	704	Santa Lucía Utatlán 	7	Santa Rita 	3	Marzo	2023-03-24T00:00:00	2024-11-08T09:00:00	5	Humedad	66
83829	7	Sololá	704	Santa Lucía Utatlán 	7	Santa Rita 	3	Marzo	2023-03-24T00:00:00	2024-11-08T09:00:00	6	Velocidad del viento	3.2
83830	7	Sololá	704	Santa Lucía Utatlán 	7	Santa Rita 	3	Marzo	2023-03-24T00:00:00	2024-11-08T09:00:00	7	Dirección del viento	3.22
83831	7	Sololá	704	Santa Lucía Utatlán 	7	Santa Rita 	3	Marzo	2023-03-24T00:00:00	2024-11-08T09:00:00	1	Precipitación	0
83832	7	Sololá	704	Santa Lucía Utatlán 	7	Santa Rita 	3	Marzo	2023-03-24T00:00:00	2024-11-08T09:00:00	8	Radiación solar	594
83833	7	Sololá	704	Santa Lucía Utatlán 	7	Santa Rita 	3	Marzo	2023-03-24T00:00:00	2024-11-08T10:00:00	2	Temperatura media	21.9
83834	7	Sololá	704	Santa Lucía Utatlán 	7	Santa Rita 	3	Marzo	2023-03-24T00:00:00	2024-11-08T10:00:00	4	Temperatura máxima	21.9
83835	7	Sololá	704	Santa Lucía Utatlán 	7	Santa Rita 	3	Marzo	2023-03-24T00:00:00	2024-11-08T10:00:00	3	Temperatura mínima	19.1
83836	7	Sololá	704	Santa Lucía Utatlán 	7	Santa Rita 	3	Marzo	2023-03-24T00:00:00	2024-11-08T10:00:00	5	Humedad	58
83837	7	Sololá	704	Santa Lucía Utatlán 	7	Santa Rita 	3	Marzo	2023-03-24T00:00:00	2024-11-08T10:00:00	6	Velocidad del viento	3.2
83838	7	Sololá	704	Santa Lucía Utatlán 	7	Santa Rita 	3	Marzo	2023-03-24T00:00:00	2024-11-08T10:00:00	7	Dirección del viento	3.22
83839	7	Sololá	704	Santa Lucía Utatlán 	7	Santa Rita 	3	Marzo	2023-03-24T00:00:00	2024-11-08T10:00:00	1	Precipitación	0
83840	7	Sololá	704	Santa Lucía Utatlán 	7	Santa Rita 	3	Marzo	2023-03-24T00:00:00	2024-11-08T10:00:00	8	Radiación solar	805
83841	7	Sololá	704	Santa Lucía Utatlán 	7	Santa Rita 	3	Marzo	2023-03-24T00:00:00	2024-11-08T11:00:00	2	Temperatura media	24.4
83842	7	Sololá	704	Santa Lucía Utatlán 	7	Santa Rita 	3	Marzo	2023-03-24T00:00:00	2024-11-08T11:00:00	4	Temperatura máxima	24.4
83843	7	Sololá	704	Santa Lucía Utatlán 	7	Santa Rita 	3	Marzo	2023-03-24T00:00:00	2024-11-08T11:00:00	3	Temperatura mínima	21.9
83844	7	Sololá	704	Santa Lucía Utatlán 	7	Santa Rita 	3	Marzo	2023-03-24T00:00:00	2024-11-08T11:00:00	5	Humedad	45
83845	7	Sololá	704	Santa Lucía Utatlán 	7	Santa Rita 	3	Marzo	2023-03-24T00:00:00	2024-11-08T11:00:00	6	Velocidad del viento	4.8
83846	7	Sololá	704	Santa Lucía Utatlán 	7	Santa Rita 	3	Marzo	2023-03-24T00:00:00	2024-11-08T11:00:00	7	Dirección del viento	4.83
83847	7	Sololá	704	Santa Lucía Utatlán 	7	Santa Rita 	3	Marzo	2023-03-24T00:00:00	2024-11-08T11:00:00	1	Precipitación	0
83848	7	Sololá	704	Santa Lucía Utatlán 	7	Santa Rita 	3	Marzo	2023-03-24T00:00:00	2024-11-08T11:00:00	8	Radiación solar	956
83849	7	Sololá	704	Santa Lucía Utatlán 	7	Santa Rita 	3	Marzo	2023-03-24T00:00:00	2024-11-08T12:00:00	2	Temperatura media	25.3
83850	7	Sololá	704	Santa Lucía Utatlán 	7	Santa Rita 	3	Marzo	2023-03-24T00:00:00	2024-11-08T12:00:00	4	Temperatura máxima	26.1
83851	7	Sololá	704	Santa Lucía Utatlán 	7	Santa Rita 	3	Marzo	2023-03-24T00:00:00	2024-11-08T12:00:00	3	Temperatura mínima	24.4
83852	7	Sololá	704	Santa Lucía Utatlán 	7	Santa Rita 	3	Marzo	2023-03-24T00:00:00	2024-11-08T12:00:00	5	Humedad	48
83853	7	Sololá	704	Santa Lucía Utatlán 	7	Santa Rita 	3	Marzo	2023-03-24T00:00:00	2024-11-08T12:00:00	6	Velocidad del viento	8
83854	7	Sololá	704	Santa Lucía Utatlán 	7	Santa Rita 	3	Marzo	2023-03-24T00:00:00	2024-11-08T12:00:00	7	Dirección del viento	8.05
83855	7	Sololá	704	Santa Lucía Utatlán 	7	Santa Rita 	3	Marzo	2023-03-24T00:00:00	2024-11-08T12:00:00	1	Precipitación	0
83856	7	Sololá	704	Santa Lucía Utatlán 	7	Santa Rita 	3	Marzo	2023-03-24T00:00:00	2024-11-08T12:00:00	8	Radiación solar	1041
83857	7	Sololá	704	Santa Lucía Utatlán 	7	Santa Rita 	3	Marzo	2023-03-24T00:00:00	2024-11-08T13:00:00	2	Temperatura media	24.3
83858	7	Sololá	704	Santa Lucía Utatlán 	7	Santa Rita 	3	Marzo	2023-03-24T00:00:00	2024-11-08T13:00:00	4	Temperatura máxima	25.3
83859	7	Sololá	704	Santa Lucía Utatlán 	7	Santa Rita 	3	Marzo	2023-03-24T00:00:00	2024-11-08T13:00:00	3	Temperatura mínima	23.9
83860	7	Sololá	704	Santa Lucía Utatlán 	7	Santa Rita 	3	Marzo	2023-03-24T00:00:00	2024-11-08T13:00:00	5	Humedad	61
83861	7	Sololá	704	Santa Lucía Utatlán 	7	Santa Rita 	3	Marzo	2023-03-24T00:00:00	2024-11-08T13:00:00	6	Velocidad del viento	11.3
83862	7	Sololá	704	Santa Lucía Utatlán 	7	Santa Rita 	3	Marzo	2023-03-24T00:00:00	2024-11-08T13:00:00	7	Dirección del viento	11.27
83863	7	Sololá	704	Santa Lucía Utatlán 	7	Santa Rita 	3	Marzo	2023-03-24T00:00:00	2024-11-08T13:00:00	1	Precipitación	0
83864	7	Sololá	704	Santa Lucía Utatlán 	7	Santa Rita 	3	Marzo	2023-03-24T00:00:00	2024-11-08T13:00:00	8	Radiación solar	420
83865	7	Sololá	704	Santa Lucía Utatlán 	7	Santa Rita 	3	Marzo	2023-03-24T00:00:00	2024-11-08T14:00:00	2	Temperatura media	23.6
83866	7	Sololá	704	Santa Lucía Utatlán 	7	Santa Rita 	3	Marzo	2023-03-24T00:00:00	2024-11-08T14:00:00	4	Temperatura máxima	24.3
83867	7	Sololá	704	Santa Lucía Utatlán 	7	Santa Rita 	3	Marzo	2023-03-24T00:00:00	2024-11-08T14:00:00	3	Temperatura mínima	23.3
83868	7	Sololá	704	Santa Lucía Utatlán 	7	Santa Rita 	3	Marzo	2023-03-24T00:00:00	2024-11-08T14:00:00	5	Humedad	66
83869	7	Sololá	704	Santa Lucía Utatlán 	7	Santa Rita 	3	Marzo	2023-03-24T00:00:00	2024-11-08T14:00:00	6	Velocidad del viento	8
83870	7	Sololá	704	Santa Lucía Utatlán 	7	Santa Rita 	3	Marzo	2023-03-24T00:00:00	2024-11-08T14:00:00	7	Dirección del viento	8.05
83871	7	Sololá	704	Santa Lucía Utatlán 	7	Santa Rita 	3	Marzo	2023-03-24T00:00:00	2024-11-08T14:00:00	1	Precipitación	0
83872	7	Sololá	704	Santa Lucía Utatlán 	7	Santa Rita 	3	Marzo	2023-03-24T00:00:00	2024-11-08T14:00:00	8	Radiación solar	371
83873	7	Sololá	704	Santa Lucía Utatlán 	7	Santa Rita 	3	Marzo	2023-03-24T00:00:00	2024-11-08T15:00:00	2	Temperatura media	23.3
83874	7	Sololá	704	Santa Lucía Utatlán 	7	Santa Rita 	3	Marzo	2023-03-24T00:00:00	2024-11-08T15:00:00	4	Temperatura máxima	24.2
83875	7	Sololá	704	Santa Lucía Utatlán 	7	Santa Rita 	3	Marzo	2023-03-24T00:00:00	2024-11-08T15:00:00	3	Temperatura mínima	22.8
83876	7	Sololá	704	Santa Lucía Utatlán 	7	Santa Rita 	3	Marzo	2023-03-24T00:00:00	2024-11-08T15:00:00	5	Humedad	70
83877	7	Sololá	704	Santa Lucía Utatlán 	7	Santa Rita 	3	Marzo	2023-03-24T00:00:00	2024-11-08T15:00:00	6	Velocidad del viento	9.7
83878	7	Sololá	704	Santa Lucía Utatlán 	7	Santa Rita 	3	Marzo	2023-03-24T00:00:00	2024-11-08T15:00:00	7	Dirección del viento	9.66
83879	7	Sololá	704	Santa Lucía Utatlán 	7	Santa Rita 	3	Marzo	2023-03-24T00:00:00	2024-11-08T15:00:00	1	Precipitación	0
83880	7	Sololá	704	Santa Lucía Utatlán 	7	Santa Rita 	3	Marzo	2023-03-24T00:00:00	2024-11-08T15:00:00	8	Radiación solar	228
83881	7	Sololá	704	Santa Lucía Utatlán 	7	Santa Rita 	3	Marzo	2023-03-24T00:00:00	2024-11-08T16:00:00	2	Temperatura media	21.9
83882	7	Sololá	704	Santa Lucía Utatlán 	7	Santa Rita 	3	Marzo	2023-03-24T00:00:00	2024-11-08T16:00:00	4	Temperatura máxima	23.3
83883	7	Sololá	704	Santa Lucía Utatlán 	7	Santa Rita 	3	Marzo	2023-03-24T00:00:00	2024-11-08T16:00:00	3	Temperatura mínima	21.9
83884	7	Sololá	704	Santa Lucía Utatlán 	7	Santa Rita 	3	Marzo	2023-03-24T00:00:00	2024-11-08T16:00:00	5	Humedad	77
83885	7	Sololá	704	Santa Lucía Utatlán 	7	Santa Rita 	3	Marzo	2023-03-24T00:00:00	2024-11-08T16:00:00	6	Velocidad del viento	9.7
83886	7	Sololá	704	Santa Lucía Utatlán 	7	Santa Rita 	3	Marzo	2023-03-24T00:00:00	2024-11-08T16:00:00	7	Dirección del viento	9.66
83887	7	Sololá	704	Santa Lucía Utatlán 	7	Santa Rita 	3	Marzo	2023-03-24T00:00:00	2024-11-08T16:00:00	1	Precipitación	0
83888	7	Sololá	704	Santa Lucía Utatlán 	7	Santa Rita 	3	Marzo	2023-03-24T00:00:00	2024-11-08T16:00:00	8	Radiación solar	139
83889	7	Sololá	704	Santa Lucía Utatlán 	7	Santa Rita 	3	Marzo	2023-03-24T00:00:00	2024-11-08T17:00:00	2	Temperatura media	21.4
83890	7	Sololá	704	Santa Lucía Utatlán 	7	Santa Rita 	3	Marzo	2023-03-24T00:00:00	2024-11-08T17:00:00	4	Temperatura máxima	22.1
83891	7	Sololá	704	Santa Lucía Utatlán 	7	Santa Rita 	3	Marzo	2023-03-24T00:00:00	2024-11-08T17:00:00	3	Temperatura mínima	21.4
83892	7	Sololá	704	Santa Lucía Utatlán 	7	Santa Rita 	3	Marzo	2023-03-24T00:00:00	2024-11-08T17:00:00	5	Humedad	79
83893	7	Sololá	704	Santa Lucía Utatlán 	7	Santa Rita 	3	Marzo	2023-03-24T00:00:00	2024-11-08T17:00:00	6	Velocidad del viento	4.8
83894	7	Sololá	704	Santa Lucía Utatlán 	7	Santa Rita 	3	Marzo	2023-03-24T00:00:00	2024-11-08T17:00:00	7	Dirección del viento	4.83
83895	7	Sololá	704	Santa Lucía Utatlán 	7	Santa Rita 	3	Marzo	2023-03-24T00:00:00	2024-11-08T17:00:00	1	Precipitación	0
83896	7	Sololá	704	Santa Lucía Utatlán 	7	Santa Rita 	3	Marzo	2023-03-24T00:00:00	2024-11-08T17:00:00	8	Radiación solar	164
83897	7	Sololá	704	Santa Lucía Utatlán 	7	Santa Rita 	3	Marzo	2023-03-24T00:00:00	2024-11-08T18:00:00	2	Temperatura media	22.2
83898	7	Sololá	704	Santa Lucía Utatlán 	7	Santa Rita 	3	Marzo	2023-03-24T00:00:00	2024-11-08T18:00:00	4	Temperatura máxima	22.2
83899	7	Sololá	704	Santa Lucía Utatlán 	7	Santa Rita 	3	Marzo	2023-03-24T00:00:00	2024-11-08T18:00:00	3	Temperatura mínima	21.3
83900	7	Sololá	704	Santa Lucía Utatlán 	7	Santa Rita 	3	Marzo	2023-03-24T00:00:00	2024-11-08T18:00:00	5	Humedad	78
83901	7	Sololá	704	Santa Lucía Utatlán 	7	Santa Rita 	3	Marzo	2023-03-24T00:00:00	2024-11-08T18:00:00	6	Velocidad del viento	1.6
83902	7	Sololá	704	Santa Lucía Utatlán 	7	Santa Rita 	3	Marzo	2023-03-24T00:00:00	2024-11-08T18:00:00	7	Dirección del viento	1.61
83903	7	Sololá	704	Santa Lucía Utatlán 	7	Santa Rita 	3	Marzo	2023-03-24T00:00:00	2024-11-08T18:00:00	1	Precipitación	0
83904	7	Sololá	704	Santa Lucía Utatlán 	7	Santa Rita 	3	Marzo	2023-03-24T00:00:00	2024-11-08T18:00:00	8	Radiación solar	35
83905	7	Sololá	704	Santa Lucía Utatlán 	7	Santa Rita 	3	Marzo	2023-03-24T00:00:00	2024-11-08T19:00:00	2	Temperatura media	20.1
83906	7	Sololá	704	Santa Lucía Utatlán 	7	Santa Rita 	3	Marzo	2023-03-24T00:00:00	2024-11-08T19:00:00	4	Temperatura máxima	22.2
83907	7	Sololá	704	Santa Lucía Utatlán 	7	Santa Rita 	3	Marzo	2023-03-24T00:00:00	2024-11-08T19:00:00	3	Temperatura mínima	20.1
83908	7	Sololá	704	Santa Lucía Utatlán 	7	Santa Rita 	3	Marzo	2023-03-24T00:00:00	2024-11-08T19:00:00	5	Humedad	87
83909	7	Sololá	704	Santa Lucía Utatlán 	7	Santa Rita 	3	Marzo	2023-03-24T00:00:00	2024-11-08T19:00:00	6	Velocidad del viento	4.8
83910	7	Sololá	704	Santa Lucía Utatlán 	7	Santa Rita 	3	Marzo	2023-03-24T00:00:00	2024-11-08T19:00:00	7	Dirección del viento	4.83
83911	7	Sololá	704	Santa Lucía Utatlán 	7	Santa Rita 	3	Marzo	2023-03-24T00:00:00	2024-11-08T19:00:00	1	Precipitación	0
83912	7	Sololá	704	Santa Lucía Utatlán 	7	Santa Rita 	3	Marzo	2023-03-24T00:00:00	2024-11-08T19:00:00	8	Radiación solar	0
83913	7	Sololá	704	Santa Lucía Utatlán 	7	Santa Rita 	3	Marzo	2023-03-24T00:00:00	2024-11-08T20:00:00	2	Temperatura media	19.3
83914	7	Sololá	704	Santa Lucía Utatlán 	7	Santa Rita 	3	Marzo	2023-03-24T00:00:00	2024-11-08T20:00:00	4	Temperatura máxima	20.1
83915	7	Sololá	704	Santa Lucía Utatlán 	7	Santa Rita 	3	Marzo	2023-03-24T00:00:00	2024-11-08T20:00:00	3	Temperatura mínima	19.3
83916	7	Sololá	704	Santa Lucía Utatlán 	7	Santa Rita 	3	Marzo	2023-03-24T00:00:00	2024-11-08T20:00:00	5	Humedad	90
83917	7	Sololá	704	Santa Lucía Utatlán 	7	Santa Rita 	3	Marzo	2023-03-24T00:00:00	2024-11-08T20:00:00	6	Velocidad del viento	1.6
83918	7	Sololá	704	Santa Lucía Utatlán 	7	Santa Rita 	3	Marzo	2023-03-24T00:00:00	2024-11-08T20:00:00	7	Dirección del viento	1.61
83919	7	Sololá	704	Santa Lucía Utatlán 	7	Santa Rita 	3	Marzo	2023-03-24T00:00:00	2024-11-08T20:00:00	1	Precipitación	0
83920	7	Sololá	704	Santa Lucía Utatlán 	7	Santa Rita 	3	Marzo	2023-03-24T00:00:00	2024-11-08T20:00:00	8	Radiación solar	0
83921	7	Sololá	704	Santa Lucía Utatlán 	7	Santa Rita 	3	Marzo	2023-03-24T00:00:00	2024-11-08T21:00:00	2	Temperatura media	19.3
83922	7	Sololá	704	Santa Lucía Utatlán 	7	Santa Rita 	3	Marzo	2023-03-24T00:00:00	2024-11-08T21:00:00	4	Temperatura máxima	19.4
83923	7	Sololá	704	Santa Lucía Utatlán 	7	Santa Rita 	3	Marzo	2023-03-24T00:00:00	2024-11-08T21:00:00	3	Temperatura mínima	19.3
83924	7	Sololá	704	Santa Lucía Utatlán 	7	Santa Rita 	3	Marzo	2023-03-24T00:00:00	2024-11-08T21:00:00	5	Humedad	91
83925	7	Sololá	704	Santa Lucía Utatlán 	7	Santa Rita 	3	Marzo	2023-03-24T00:00:00	2024-11-08T21:00:00	6	Velocidad del viento	1.6
83926	7	Sololá	704	Santa Lucía Utatlán 	7	Santa Rita 	3	Marzo	2023-03-24T00:00:00	2024-11-08T21:00:00	7	Dirección del viento	1.61
83927	7	Sololá	704	Santa Lucía Utatlán 	7	Santa Rita 	3	Marzo	2023-03-24T00:00:00	2024-11-08T21:00:00	1	Precipitación	0
83928	7	Sololá	704	Santa Lucía Utatlán 	7	Santa Rita 	3	Marzo	2023-03-24T00:00:00	2024-11-08T21:00:00	8	Radiación solar	0
83929	7	Sololá	704	Santa Lucía Utatlán 	7	Santa Rita 	3	Marzo	2023-03-24T00:00:00	2024-11-08T22:00:00	2	Temperatura media	19.2
83930	7	Sololá	704	Santa Lucía Utatlán 	7	Santa Rita 	3	Marzo	2023-03-24T00:00:00	2024-11-08T22:00:00	4	Temperatura máxima	19.4
83931	7	Sololá	704	Santa Lucía Utatlán 	7	Santa Rita 	3	Marzo	2023-03-24T00:00:00	2024-11-08T22:00:00	3	Temperatura mínima	19.2
83932	7	Sololá	704	Santa Lucía Utatlán 	7	Santa Rita 	3	Marzo	2023-03-24T00:00:00	2024-11-08T22:00:00	5	Humedad	91
83933	7	Sololá	704	Santa Lucía Utatlán 	7	Santa Rita 	3	Marzo	2023-03-24T00:00:00	2024-11-08T22:00:00	6	Velocidad del viento	0
83934	7	Sololá	704	Santa Lucía Utatlán 	7	Santa Rita 	3	Marzo	2023-03-24T00:00:00	2024-11-08T22:00:00	7	Dirección del viento	0
83935	7	Sololá	704	Santa Lucía Utatlán 	7	Santa Rita 	3	Marzo	2023-03-24T00:00:00	2024-11-08T22:00:00	1	Precipitación	0
83936	7	Sololá	704	Santa Lucía Utatlán 	7	Santa Rita 	3	Marzo	2023-03-24T00:00:00	2024-11-08T22:00:00	8	Radiación solar	0
83937	7	Sololá	704	Santa Lucía Utatlán 	7	Santa Rita 	3	Marzo	2023-03-24T00:00:00	2024-11-08T23:00:00	2	Temperatura media	18.6
83938	7	Sololá	704	Santa Lucía Utatlán 	7	Santa Rita 	3	Marzo	2023-03-24T00:00:00	2024-11-08T23:00:00	4	Temperatura máxima	19.3
83939	7	Sololá	704	Santa Lucía Utatlán 	7	Santa Rita 	3	Marzo	2023-03-24T00:00:00	2024-11-08T23:00:00	3	Temperatura mínima	18.6
83940	7	Sololá	704	Santa Lucía Utatlán 	7	Santa Rita 	3	Marzo	2023-03-24T00:00:00	2024-11-08T23:00:00	5	Humedad	89
83941	7	Sololá	704	Santa Lucía Utatlán 	7	Santa Rita 	3	Marzo	2023-03-24T00:00:00	2024-11-08T23:00:00	6	Velocidad del viento	0
83942	7	Sololá	704	Santa Lucía Utatlán 	7	Santa Rita 	3	Marzo	2023-03-24T00:00:00	2024-11-08T23:00:00	7	Dirección del viento	0
83943	7	Sololá	704	Santa Lucía Utatlán 	7	Santa Rita 	3	Marzo	2023-03-24T00:00:00	2024-11-08T23:00:00	1	Precipitación	0
83944	7	Sololá	704	Santa Lucía Utatlán 	7	Santa Rita 	3	Marzo	2023-03-24T00:00:00	2024-11-08T23:00:00	8	Radiación solar	0
83945	7	Sololá	704	Santa Lucía Utatlán 	7	Santa Rita 	3	Marzo	2023-03-25T00:00:00	2024-11-08T00:00:00	2	Temperatura media	18.8
83946	7	Sololá	704	Santa Lucía Utatlán 	7	Santa Rita 	3	Marzo	2023-03-25T00:00:00	2024-11-08T00:00:00	4	Temperatura máxima	18.8
83947	7	Sololá	704	Santa Lucía Utatlán 	7	Santa Rita 	3	Marzo	2023-03-25T00:00:00	2024-11-08T00:00:00	3	Temperatura mínima	18.5
83948	7	Sololá	704	Santa Lucía Utatlán 	7	Santa Rita 	3	Marzo	2023-03-25T00:00:00	2024-11-08T00:00:00	5	Humedad	91
83949	7	Sololá	704	Santa Lucía Utatlán 	7	Santa Rita 	3	Marzo	2023-03-25T00:00:00	2024-11-08T00:00:00	6	Velocidad del viento	0
83950	7	Sololá	704	Santa Lucía Utatlán 	7	Santa Rita 	3	Marzo	2023-03-25T00:00:00	2024-11-08T00:00:00	7	Dirección del viento	0
83951	7	Sololá	704	Santa Lucía Utatlán 	7	Santa Rita 	3	Marzo	2023-03-25T00:00:00	2024-11-08T00:00:00	1	Precipitación	0
83952	7	Sololá	704	Santa Lucía Utatlán 	7	Santa Rita 	3	Marzo	2023-03-25T00:00:00	2024-11-08T00:00:00	8	Radiación solar	0
83953	7	Sololá	704	Santa Lucía Utatlán 	7	Santa Rita 	3	Marzo	2023-03-25T00:00:00	2024-11-08T01:00:00	2	Temperatura media	17.9
83954	7	Sololá	704	Santa Lucía Utatlán 	7	Santa Rita 	3	Marzo	2023-03-25T00:00:00	2024-11-08T01:00:00	4	Temperatura máxima	18.8
83955	7	Sololá	704	Santa Lucía Utatlán 	7	Santa Rita 	3	Marzo	2023-03-25T00:00:00	2024-11-08T01:00:00	3	Temperatura mínima	17.9
83956	7	Sololá	704	Santa Lucía Utatlán 	7	Santa Rita 	3	Marzo	2023-03-25T00:00:00	2024-11-08T01:00:00	5	Humedad	84
83957	7	Sololá	704	Santa Lucía Utatlán 	7	Santa Rita 	3	Marzo	2023-03-25T00:00:00	2024-11-08T01:00:00	6	Velocidad del viento	3.2
83958	7	Sololá	704	Santa Lucía Utatlán 	7	Santa Rita 	3	Marzo	2023-03-25T00:00:00	2024-11-08T01:00:00	7	Dirección del viento	3.22
83959	7	Sololá	704	Santa Lucía Utatlán 	7	Santa Rita 	3	Marzo	2023-03-25T00:00:00	2024-11-08T01:00:00	1	Precipitación	0
83960	7	Sololá	704	Santa Lucía Utatlán 	7	Santa Rita 	3	Marzo	2023-03-25T00:00:00	2024-11-08T01:00:00	8	Radiación solar	0
83961	7	Sololá	704	Santa Lucía Utatlán 	7	Santa Rita 	3	Marzo	2023-03-25T00:00:00	2024-11-08T02:00:00	2	Temperatura media	18.1
83962	7	Sololá	704	Santa Lucía Utatlán 	7	Santa Rita 	3	Marzo	2023-03-25T00:00:00	2024-11-08T02:00:00	4	Temperatura máxima	18.2
83963	7	Sololá	704	Santa Lucía Utatlán 	7	Santa Rita 	3	Marzo	2023-03-25T00:00:00	2024-11-08T02:00:00	3	Temperatura mínima	17.9
83964	7	Sololá	704	Santa Lucía Utatlán 	7	Santa Rita 	3	Marzo	2023-03-25T00:00:00	2024-11-08T02:00:00	5	Humedad	81
83965	7	Sololá	704	Santa Lucía Utatlán 	7	Santa Rita 	3	Marzo	2023-03-25T00:00:00	2024-11-08T02:00:00	6	Velocidad del viento	3.2
83966	7	Sololá	704	Santa Lucía Utatlán 	7	Santa Rita 	3	Marzo	2023-03-25T00:00:00	2024-11-08T02:00:00	7	Dirección del viento	3.22
83967	7	Sololá	704	Santa Lucía Utatlán 	7	Santa Rita 	3	Marzo	2023-03-25T00:00:00	2024-11-08T02:00:00	1	Precipitación	0
83968	7	Sololá	704	Santa Lucía Utatlán 	7	Santa Rita 	3	Marzo	2023-03-25T00:00:00	2024-11-08T02:00:00	8	Radiación solar	0
83969	7	Sololá	704	Santa Lucía Utatlán 	7	Santa Rita 	3	Marzo	2023-03-25T00:00:00	2024-11-08T03:00:00	2	Temperatura media	17.8
83970	7	Sololá	704	Santa Lucía Utatlán 	7	Santa Rita 	3	Marzo	2023-03-25T00:00:00	2024-11-08T03:00:00	4	Temperatura máxima	18.1
83971	7	Sololá	704	Santa Lucía Utatlán 	7	Santa Rita 	3	Marzo	2023-03-25T00:00:00	2024-11-08T03:00:00	3	Temperatura mínima	17.8
83972	7	Sololá	704	Santa Lucía Utatlán 	7	Santa Rita 	3	Marzo	2023-03-25T00:00:00	2024-11-08T03:00:00	5	Humedad	86
83973	7	Sololá	704	Santa Lucía Utatlán 	7	Santa Rita 	3	Marzo	2023-03-25T00:00:00	2024-11-08T03:00:00	6	Velocidad del viento	0
83974	7	Sololá	704	Santa Lucía Utatlán 	7	Santa Rita 	3	Marzo	2023-03-25T00:00:00	2024-11-08T03:00:00	7	Dirección del viento	0
83975	7	Sololá	704	Santa Lucía Utatlán 	7	Santa Rita 	3	Marzo	2023-03-25T00:00:00	2024-11-08T03:00:00	1	Precipitación	0
83976	7	Sololá	704	Santa Lucía Utatlán 	7	Santa Rita 	3	Marzo	2023-03-25T00:00:00	2024-11-08T03:00:00	8	Radiación solar	0
83977	7	Sololá	704	Santa Lucía Utatlán 	7	Santa Rita 	3	Marzo	2023-03-25T00:00:00	2024-11-08T04:00:00	2	Temperatura media	17.6
83978	7	Sololá	704	Santa Lucía Utatlán 	7	Santa Rita 	3	Marzo	2023-03-25T00:00:00	2024-11-08T04:00:00	4	Temperatura máxima	17.8
83979	7	Sololá	704	Santa Lucía Utatlán 	7	Santa Rita 	3	Marzo	2023-03-25T00:00:00	2024-11-08T04:00:00	3	Temperatura mínima	17.6
83980	7	Sololá	704	Santa Lucía Utatlán 	7	Santa Rita 	3	Marzo	2023-03-25T00:00:00	2024-11-08T04:00:00	5	Humedad	88
83981	7	Sololá	704	Santa Lucía Utatlán 	7	Santa Rita 	3	Marzo	2023-03-25T00:00:00	2024-11-08T04:00:00	6	Velocidad del viento	0
83982	7	Sololá	704	Santa Lucía Utatlán 	7	Santa Rita 	3	Marzo	2023-03-25T00:00:00	2024-11-08T04:00:00	7	Dirección del viento	0
83983	7	Sololá	704	Santa Lucía Utatlán 	7	Santa Rita 	3	Marzo	2023-03-25T00:00:00	2024-11-08T04:00:00	1	Precipitación	0
83984	7	Sololá	704	Santa Lucía Utatlán 	7	Santa Rita 	3	Marzo	2023-03-25T00:00:00	2024-11-08T04:00:00	8	Radiación solar	0
83985	7	Sololá	704	Santa Lucía Utatlán 	7	Santa Rita 	3	Marzo	2023-03-25T00:00:00	2024-11-08T05:00:00	2	Temperatura media	17.5
83986	7	Sololá	704	Santa Lucía Utatlán 	7	Santa Rita 	3	Marzo	2023-03-25T00:00:00	2024-11-08T05:00:00	4	Temperatura máxima	17.6
83987	7	Sololá	704	Santa Lucía Utatlán 	7	Santa Rita 	3	Marzo	2023-03-25T00:00:00	2024-11-08T05:00:00	3	Temperatura mínima	17.3
83988	7	Sololá	704	Santa Lucía Utatlán 	7	Santa Rita 	3	Marzo	2023-03-25T00:00:00	2024-11-08T05:00:00	5	Humedad	88
83989	7	Sololá	704	Santa Lucía Utatlán 	7	Santa Rita 	3	Marzo	2023-03-25T00:00:00	2024-11-08T05:00:00	6	Velocidad del viento	0
83990	7	Sololá	704	Santa Lucía Utatlán 	7	Santa Rita 	3	Marzo	2023-03-25T00:00:00	2024-11-08T05:00:00	7	Dirección del viento	0
83991	7	Sololá	704	Santa Lucía Utatlán 	7	Santa Rita 	3	Marzo	2023-03-25T00:00:00	2024-11-08T05:00:00	1	Precipitación	0
83992	7	Sololá	704	Santa Lucía Utatlán 	7	Santa Rita 	3	Marzo	2023-03-25T00:00:00	2024-11-08T05:00:00	8	Radiación solar	0
83993	7	Sololá	704	Santa Lucía Utatlán 	7	Santa Rita 	3	Marzo	2023-03-25T00:00:00	2024-11-08T06:00:00	2	Temperatura media	17.1
83994	7	Sololá	704	Santa Lucía Utatlán 	7	Santa Rita 	3	Marzo	2023-03-25T00:00:00	2024-11-08T06:00:00	4	Temperatura máxima	17.5
83995	7	Sololá	704	Santa Lucía Utatlán 	7	Santa Rita 	3	Marzo	2023-03-25T00:00:00	2024-11-08T06:00:00	3	Temperatura mínima	17.1
83996	7	Sololá	704	Santa Lucía Utatlán 	7	Santa Rita 	3	Marzo	2023-03-25T00:00:00	2024-11-08T06:00:00	5	Humedad	90
83997	7	Sololá	704	Santa Lucía Utatlán 	7	Santa Rita 	3	Marzo	2023-03-25T00:00:00	2024-11-08T06:00:00	6	Velocidad del viento	0
83998	7	Sololá	704	Santa Lucía Utatlán 	7	Santa Rita 	3	Marzo	2023-03-25T00:00:00	2024-11-08T06:00:00	7	Dirección del viento	0
83999	7	Sololá	704	Santa Lucía Utatlán 	7	Santa Rita 	3	Marzo	2023-03-25T00:00:00	2024-11-08T06:00:00	1	Precipitación	0
84000	7	Sololá	704	Santa Lucía Utatlán 	7	Santa Rita 	3	Marzo	2023-03-25T00:00:00	2024-11-08T06:00:00	8	Radiación solar	0
84001	7	Sololá	704	Santa Lucía Utatlán 	7	Santa Rita 	3	Marzo	2023-03-25T00:00:00	2024-11-08T07:00:00	2	Temperatura media	17.1
84002	7	Sololá	704	Santa Lucía Utatlán 	7	Santa Rita 	3	Marzo	2023-03-25T00:00:00	2024-11-08T07:00:00	4	Temperatura máxima	17.2
84003	7	Sololá	704	Santa Lucía Utatlán 	7	Santa Rita 	3	Marzo	2023-03-25T00:00:00	2024-11-08T07:00:00	3	Temperatura mínima	17
84004	7	Sololá	704	Santa Lucía Utatlán 	7	Santa Rita 	3	Marzo	2023-03-25T00:00:00	2024-11-08T07:00:00	5	Humedad	88
84005	7	Sololá	704	Santa Lucía Utatlán 	7	Santa Rita 	3	Marzo	2023-03-25T00:00:00	2024-11-08T07:00:00	6	Velocidad del viento	0
84006	7	Sololá	704	Santa Lucía Utatlán 	7	Santa Rita 	3	Marzo	2023-03-25T00:00:00	2024-11-08T07:00:00	7	Dirección del viento	0
84007	7	Sololá	704	Santa Lucía Utatlán 	7	Santa Rita 	3	Marzo	2023-03-25T00:00:00	2024-11-08T07:00:00	1	Precipitación	0
84008	7	Sololá	704	Santa Lucía Utatlán 	7	Santa Rita 	3	Marzo	2023-03-25T00:00:00	2024-11-08T07:00:00	8	Radiación solar	25
84009	7	Sololá	704	Santa Lucía Utatlán 	7	Santa Rita 	3	Marzo	2023-03-25T00:00:00	2024-11-08T08:00:00	2	Temperatura media	17.2
84010	7	Sololá	704	Santa Lucía Utatlán 	7	Santa Rita 	3	Marzo	2023-03-25T00:00:00	2024-11-08T08:00:00	4	Temperatura máxima	17.2
84011	7	Sololá	704	Santa Lucía Utatlán 	7	Santa Rita 	3	Marzo	2023-03-25T00:00:00	2024-11-08T08:00:00	3	Temperatura mínima	17.1
84012	7	Sololá	704	Santa Lucía Utatlán 	7	Santa Rita 	3	Marzo	2023-03-25T00:00:00	2024-11-08T08:00:00	5	Humedad	89
84013	7	Sololá	704	Santa Lucía Utatlán 	7	Santa Rita 	3	Marzo	2023-03-25T00:00:00	2024-11-08T08:00:00	6	Velocidad del viento	0
84014	7	Sololá	704	Santa Lucía Utatlán 	7	Santa Rita 	3	Marzo	2023-03-25T00:00:00	2024-11-08T08:00:00	7	Dirección del viento	0
84015	7	Sololá	704	Santa Lucía Utatlán 	7	Santa Rita 	3	Marzo	2023-03-25T00:00:00	2024-11-08T08:00:00	1	Precipitación	0
84016	7	Sololá	704	Santa Lucía Utatlán 	7	Santa Rita 	3	Marzo	2023-03-25T00:00:00	2024-11-08T08:00:00	8	Radiación solar	143
84017	7	Sololá	704	Santa Lucía Utatlán 	7	Santa Rita 	3	Marzo	2023-03-25T00:00:00	2024-11-08T09:00:00	2	Temperatura media	18.6
84018	7	Sololá	704	Santa Lucía Utatlán 	7	Santa Rita 	3	Marzo	2023-03-25T00:00:00	2024-11-08T09:00:00	4	Temperatura máxima	18.6
84019	7	Sololá	704	Santa Lucía Utatlán 	7	Santa Rita 	3	Marzo	2023-03-25T00:00:00	2024-11-08T09:00:00	3	Temperatura mínima	17.2
84020	7	Sololá	704	Santa Lucía Utatlán 	7	Santa Rita 	3	Marzo	2023-03-25T00:00:00	2024-11-08T09:00:00	5	Humedad	84
84021	7	Sololá	704	Santa Lucía Utatlán 	7	Santa Rita 	3	Marzo	2023-03-25T00:00:00	2024-11-08T09:00:00	6	Velocidad del viento	1.6
84022	7	Sololá	704	Santa Lucía Utatlán 	7	Santa Rita 	3	Marzo	2023-03-25T00:00:00	2024-11-08T09:00:00	7	Dirección del viento	1.61
84023	7	Sololá	704	Santa Lucía Utatlán 	7	Santa Rita 	3	Marzo	2023-03-25T00:00:00	2024-11-08T09:00:00	1	Precipitación	0
84024	7	Sololá	704	Santa Lucía Utatlán 	7	Santa Rita 	3	Marzo	2023-03-25T00:00:00	2024-11-08T09:00:00	8	Radiación solar	206
84025	7	Sololá	704	Santa Lucía Utatlán 	7	Santa Rita 	3	Marzo	2023-03-25T00:00:00	2024-11-08T10:00:00	2	Temperatura media	19.8
84026	7	Sololá	704	Santa Lucía Utatlán 	7	Santa Rita 	3	Marzo	2023-03-25T00:00:00	2024-11-08T10:00:00	4	Temperatura máxima	19.8
84027	7	Sololá	704	Santa Lucía Utatlán 	7	Santa Rita 	3	Marzo	2023-03-25T00:00:00	2024-11-08T10:00:00	3	Temperatura mínima	18.6
84028	7	Sololá	704	Santa Lucía Utatlán 	7	Santa Rita 	3	Marzo	2023-03-25T00:00:00	2024-11-08T10:00:00	5	Humedad	77
84029	7	Sololá	704	Santa Lucía Utatlán 	7	Santa Rita 	3	Marzo	2023-03-25T00:00:00	2024-11-08T10:00:00	6	Velocidad del viento	4.8
84030	7	Sololá	704	Santa Lucía Utatlán 	7	Santa Rita 	3	Marzo	2023-03-25T00:00:00	2024-11-08T10:00:00	7	Dirección del viento	4.83
84031	7	Sololá	704	Santa Lucía Utatlán 	7	Santa Rita 	3	Marzo	2023-03-25T00:00:00	2024-11-08T10:00:00	1	Precipitación	0
84032	7	Sololá	704	Santa Lucía Utatlán 	7	Santa Rita 	3	Marzo	2023-03-25T00:00:00	2024-11-08T10:00:00	8	Radiación solar	282
84033	7	Sololá	704	Santa Lucía Utatlán 	7	Santa Rita 	3	Marzo	2023-03-25T00:00:00	2024-11-08T11:00:00	2	Temperatura media	20.4
84034	7	Sololá	704	Santa Lucía Utatlán 	7	Santa Rita 	3	Marzo	2023-03-25T00:00:00	2024-11-08T11:00:00	4	Temperatura máxima	20.4
84035	7	Sololá	704	Santa Lucía Utatlán 	7	Santa Rita 	3	Marzo	2023-03-25T00:00:00	2024-11-08T11:00:00	3	Temperatura mínima	19.8
84036	7	Sololá	704	Santa Lucía Utatlán 	7	Santa Rita 	3	Marzo	2023-03-25T00:00:00	2024-11-08T11:00:00	5	Humedad	80
84037	7	Sololá	704	Santa Lucía Utatlán 	7	Santa Rita 	3	Marzo	2023-03-25T00:00:00	2024-11-08T11:00:00	6	Velocidad del viento	4.8
84038	7	Sololá	704	Santa Lucía Utatlán 	7	Santa Rita 	3	Marzo	2023-03-25T00:00:00	2024-11-08T11:00:00	7	Dirección del viento	4.83
84039	7	Sololá	704	Santa Lucía Utatlán 	7	Santa Rita 	3	Marzo	2023-03-25T00:00:00	2024-11-08T11:00:00	1	Precipitación	0
84040	7	Sololá	704	Santa Lucía Utatlán 	7	Santa Rita 	3	Marzo	2023-03-25T00:00:00	2024-11-08T11:00:00	8	Radiación solar	366
84041	7	Sololá	704	Santa Lucía Utatlán 	7	Santa Rita 	3	Marzo	2023-03-25T00:00:00	2024-11-08T12:00:00	2	Temperatura media	21.6
84042	7	Sololá	704	Santa Lucía Utatlán 	7	Santa Rita 	3	Marzo	2023-03-25T00:00:00	2024-11-08T12:00:00	4	Temperatura máxima	21.7
84043	7	Sololá	704	Santa Lucía Utatlán 	7	Santa Rita 	3	Marzo	2023-03-25T00:00:00	2024-11-08T12:00:00	3	Temperatura mínima	20.4
84044	7	Sololá	704	Santa Lucía Utatlán 	7	Santa Rita 	3	Marzo	2023-03-25T00:00:00	2024-11-08T12:00:00	5	Humedad	72
84045	7	Sololá	704	Santa Lucía Utatlán 	7	Santa Rita 	3	Marzo	2023-03-25T00:00:00	2024-11-08T12:00:00	6	Velocidad del viento	6.4
84046	7	Sololá	704	Santa Lucía Utatlán 	7	Santa Rita 	3	Marzo	2023-03-25T00:00:00	2024-11-08T12:00:00	7	Dirección del viento	6.44
84047	7	Sololá	704	Santa Lucía Utatlán 	7	Santa Rita 	3	Marzo	2023-03-25T00:00:00	2024-11-08T12:00:00	1	Precipitación	0
84048	7	Sololá	704	Santa Lucía Utatlán 	7	Santa Rita 	3	Marzo	2023-03-25T00:00:00	2024-11-08T12:00:00	8	Radiación solar	232
84049	7	Sololá	704	Santa Lucía Utatlán 	7	Santa Rita 	3	Marzo	2023-03-25T00:00:00	2024-11-08T13:00:00	2	Temperatura media	21.4
84050	7	Sololá	704	Santa Lucía Utatlán 	7	Santa Rita 	3	Marzo	2023-03-25T00:00:00	2024-11-08T13:00:00	4	Temperatura máxima	21.7
84051	7	Sololá	704	Santa Lucía Utatlán 	7	Santa Rita 	3	Marzo	2023-03-25T00:00:00	2024-11-08T13:00:00	3	Temperatura mínima	21.4
84052	7	Sololá	704	Santa Lucía Utatlán 	7	Santa Rita 	3	Marzo	2023-03-25T00:00:00	2024-11-08T13:00:00	5	Humedad	75
84053	7	Sololá	704	Santa Lucía Utatlán 	7	Santa Rita 	3	Marzo	2023-03-25T00:00:00	2024-11-08T13:00:00	6	Velocidad del viento	4.8
84054	7	Sololá	704	Santa Lucía Utatlán 	7	Santa Rita 	3	Marzo	2023-03-25T00:00:00	2024-11-08T13:00:00	7	Dirección del viento	4.83
84055	7	Sololá	704	Santa Lucía Utatlán 	7	Santa Rita 	3	Marzo	2023-03-25T00:00:00	2024-11-08T13:00:00	1	Precipitación	0
84056	7	Sololá	704	Santa Lucía Utatlán 	7	Santa Rita 	3	Marzo	2023-03-25T00:00:00	2024-11-08T13:00:00	8	Radiación solar	196
84057	7	Sololá	704	Santa Lucía Utatlán 	7	Santa Rita 	3	Marzo	2023-03-25T00:00:00	2024-11-08T14:00:00	2	Temperatura media	22.1
84058	7	Sololá	704	Santa Lucía Utatlán 	7	Santa Rita 	3	Marzo	2023-03-25T00:00:00	2024-11-08T14:00:00	4	Temperatura máxima	22.2
84059	7	Sololá	704	Santa Lucía Utatlán 	7	Santa Rita 	3	Marzo	2023-03-25T00:00:00	2024-11-08T14:00:00	3	Temperatura mínima	21.4
84060	7	Sololá	704	Santa Lucía Utatlán 	7	Santa Rita 	3	Marzo	2023-03-25T00:00:00	2024-11-08T14:00:00	5	Humedad	73
84061	7	Sololá	704	Santa Lucía Utatlán 	7	Santa Rita 	3	Marzo	2023-03-25T00:00:00	2024-11-08T14:00:00	6	Velocidad del viento	3.2
84062	7	Sololá	704	Santa Lucía Utatlán 	7	Santa Rita 	3	Marzo	2023-03-25T00:00:00	2024-11-08T14:00:00	7	Dirección del viento	3.22
84063	7	Sololá	704	Santa Lucía Utatlán 	7	Santa Rita 	3	Marzo	2023-03-25T00:00:00	2024-11-08T14:00:00	1	Precipitación	0
84064	7	Sololá	704	Santa Lucía Utatlán 	7	Santa Rita 	3	Marzo	2023-03-25T00:00:00	2024-11-08T14:00:00	8	Radiación solar	219
84065	7	Sololá	704	Santa Lucía Utatlán 	7	Santa Rita 	3	Marzo	2023-03-25T00:00:00	2024-11-08T15:00:00	2	Temperatura media	21.9
84066	7	Sololá	704	Santa Lucía Utatlán 	7	Santa Rita 	3	Marzo	2023-03-25T00:00:00	2024-11-08T15:00:00	4	Temperatura máxima	22.2
84067	7	Sololá	704	Santa Lucía Utatlán 	7	Santa Rita 	3	Marzo	2023-03-25T00:00:00	2024-11-08T15:00:00	3	Temperatura mínima	21.8
84068	7	Sololá	704	Santa Lucía Utatlán 	7	Santa Rita 	3	Marzo	2023-03-25T00:00:00	2024-11-08T15:00:00	5	Humedad	77
84069	7	Sololá	704	Santa Lucía Utatlán 	7	Santa Rita 	3	Marzo	2023-03-25T00:00:00	2024-11-08T15:00:00	6	Velocidad del viento	6.4
84070	7	Sololá	704	Santa Lucía Utatlán 	7	Santa Rita 	3	Marzo	2023-03-25T00:00:00	2024-11-08T15:00:00	7	Dirección del viento	6.44
84071	7	Sololá	704	Santa Lucía Utatlán 	7	Santa Rita 	3	Marzo	2023-03-25T00:00:00	2024-11-08T15:00:00	1	Precipitación	0
84072	7	Sololá	704	Santa Lucía Utatlán 	7	Santa Rita 	3	Marzo	2023-03-25T00:00:00	2024-11-08T15:00:00	8	Radiación solar	184
84073	7	Sololá	704	Santa Lucía Utatlán 	7	Santa Rita 	3	Marzo	2023-03-25T00:00:00	2024-11-08T16:00:00	2	Temperatura media	21.5
84074	7	Sololá	704	Santa Lucía Utatlán 	7	Santa Rita 	3	Marzo	2023-03-25T00:00:00	2024-11-08T16:00:00	4	Temperatura máxima	21.9
84075	7	Sololá	704	Santa Lucía Utatlán 	7	Santa Rita 	3	Marzo	2023-03-25T00:00:00	2024-11-08T16:00:00	3	Temperatura mínima	21.2
84076	7	Sololá	704	Santa Lucía Utatlán 	7	Santa Rita 	3	Marzo	2023-03-25T00:00:00	2024-11-08T16:00:00	5	Humedad	79
84077	7	Sololá	704	Santa Lucía Utatlán 	7	Santa Rita 	3	Marzo	2023-03-25T00:00:00	2024-11-08T16:00:00	6	Velocidad del viento	6.4
84078	7	Sololá	704	Santa Lucía Utatlán 	7	Santa Rita 	3	Marzo	2023-03-25T00:00:00	2024-11-08T16:00:00	7	Dirección del viento	6.44
84079	7	Sololá	704	Santa Lucía Utatlán 	7	Santa Rita 	3	Marzo	2023-03-25T00:00:00	2024-11-08T16:00:00	1	Precipitación	0
84080	7	Sololá	704	Santa Lucía Utatlán 	7	Santa Rita 	3	Marzo	2023-03-25T00:00:00	2024-11-08T16:00:00	8	Radiación solar	158
84081	7	Sololá	704	Santa Lucía Utatlán 	7	Santa Rita 	3	Marzo	2023-03-25T00:00:00	2024-11-08T17:00:00	2	Temperatura media	20.7
84082	7	Sololá	704	Santa Lucía Utatlán 	7	Santa Rita 	3	Marzo	2023-03-25T00:00:00	2024-11-08T17:00:00	4	Temperatura máxima	21.6
84083	7	Sololá	704	Santa Lucía Utatlán 	7	Santa Rita 	3	Marzo	2023-03-25T00:00:00	2024-11-08T17:00:00	3	Temperatura mínima	20.6
84084	7	Sololá	704	Santa Lucía Utatlán 	7	Santa Rita 	3	Marzo	2023-03-25T00:00:00	2024-11-08T17:00:00	5	Humedad	83
84085	7	Sololá	704	Santa Lucía Utatlán 	7	Santa Rita 	3	Marzo	2023-03-25T00:00:00	2024-11-08T17:00:00	6	Velocidad del viento	4.8
84086	7	Sololá	704	Santa Lucía Utatlán 	7	Santa Rita 	3	Marzo	2023-03-25T00:00:00	2024-11-08T17:00:00	7	Dirección del viento	4.83
84087	7	Sololá	704	Santa Lucía Utatlán 	7	Santa Rita 	3	Marzo	2023-03-25T00:00:00	2024-11-08T17:00:00	1	Precipitación	0
84088	7	Sololá	704	Santa Lucía Utatlán 	7	Santa Rita 	3	Marzo	2023-03-25T00:00:00	2024-11-08T17:00:00	8	Radiación solar	111
84089	7	Sololá	704	Santa Lucía Utatlán 	7	Santa Rita 	3	Marzo	2023-03-25T00:00:00	2024-11-08T18:00:00	2	Temperatura media	20.3
84090	7	Sololá	704	Santa Lucía Utatlán 	7	Santa Rita 	3	Marzo	2023-03-25T00:00:00	2024-11-08T18:00:00	4	Temperatura máxima	20.8
84091	7	Sololá	704	Santa Lucía Utatlán 	7	Santa Rita 	3	Marzo	2023-03-25T00:00:00	2024-11-08T18:00:00	3	Temperatura mínima	20.3
84092	7	Sololá	704	Santa Lucía Utatlán 	7	Santa Rita 	3	Marzo	2023-03-25T00:00:00	2024-11-08T18:00:00	5	Humedad	85
84093	7	Sololá	704	Santa Lucía Utatlán 	7	Santa Rita 	3	Marzo	2023-03-25T00:00:00	2024-11-08T18:00:00	6	Velocidad del viento	3.2
84094	7	Sololá	704	Santa Lucía Utatlán 	7	Santa Rita 	3	Marzo	2023-03-25T00:00:00	2024-11-08T18:00:00	7	Dirección del viento	3.22
84095	7	Sololá	704	Santa Lucía Utatlán 	7	Santa Rita 	3	Marzo	2023-03-25T00:00:00	2024-11-08T18:00:00	1	Precipitación	0
84096	7	Sololá	704	Santa Lucía Utatlán 	7	Santa Rita 	3	Marzo	2023-03-25T00:00:00	2024-11-08T18:00:00	8	Radiación solar	53
84097	7	Sololá	704	Santa Lucía Utatlán 	7	Santa Rita 	3	Marzo	2023-03-25T00:00:00	2024-11-08T19:00:00	2	Temperatura media	20.1
84098	7	Sololá	704	Santa Lucía Utatlán 	7	Santa Rita 	3	Marzo	2023-03-25T00:00:00	2024-11-08T19:00:00	4	Temperatura máxima	20.3
84099	7	Sololá	704	Santa Lucía Utatlán 	7	Santa Rita 	3	Marzo	2023-03-25T00:00:00	2024-11-08T19:00:00	3	Temperatura mínima	20
84100	7	Sololá	704	Santa Lucía Utatlán 	7	Santa Rita 	3	Marzo	2023-03-25T00:00:00	2024-11-08T19:00:00	5	Humedad	85
84101	7	Sololá	704	Santa Lucía Utatlán 	7	Santa Rita 	3	Marzo	2023-03-25T00:00:00	2024-11-08T19:00:00	6	Velocidad del viento	1.6
84102	7	Sololá	704	Santa Lucía Utatlán 	7	Santa Rita 	3	Marzo	2023-03-25T00:00:00	2024-11-08T19:00:00	7	Dirección del viento	1.61
84103	7	Sololá	704	Santa Lucía Utatlán 	7	Santa Rita 	3	Marzo	2023-03-25T00:00:00	2024-11-08T19:00:00	1	Precipitación	0
84104	7	Sololá	704	Santa Lucía Utatlán 	7	Santa Rita 	3	Marzo	2023-03-25T00:00:00	2024-11-08T19:00:00	8	Radiación solar	0
84105	7	Sololá	704	Santa Lucía Utatlán 	7	Santa Rita 	3	Marzo	2023-03-25T00:00:00	2024-11-08T20:00:00	2	Temperatura media	18.7
84106	7	Sololá	704	Santa Lucía Utatlán 	7	Santa Rita 	3	Marzo	2023-03-25T00:00:00	2024-11-08T20:00:00	4	Temperatura máxima	20.1
84107	7	Sololá	704	Santa Lucía Utatlán 	7	Santa Rita 	3	Marzo	2023-03-25T00:00:00	2024-11-08T20:00:00	3	Temperatura mínima	18.7
84108	7	Sololá	704	Santa Lucía Utatlán 	7	Santa Rita 	3	Marzo	2023-03-25T00:00:00	2024-11-08T20:00:00	5	Humedad	90
84109	7	Sololá	704	Santa Lucía Utatlán 	7	Santa Rita 	3	Marzo	2023-03-25T00:00:00	2024-11-08T20:00:00	6	Velocidad del viento	1.6
84110	7	Sololá	704	Santa Lucía Utatlán 	7	Santa Rita 	3	Marzo	2023-03-25T00:00:00	2024-11-08T20:00:00	7	Dirección del viento	1.61
84111	7	Sololá	704	Santa Lucía Utatlán 	7	Santa Rita 	3	Marzo	2023-03-25T00:00:00	2024-11-08T20:00:00	1	Precipitación	0
84112	7	Sololá	704	Santa Lucía Utatlán 	7	Santa Rita 	3	Marzo	2023-03-25T00:00:00	2024-11-08T20:00:00	8	Radiación solar	0
84113	7	Sololá	704	Santa Lucía Utatlán 	7	Santa Rita 	3	Marzo	2023-03-25T00:00:00	2024-11-08T21:00:00	2	Temperatura media	17.4
84114	7	Sololá	704	Santa Lucía Utatlán 	7	Santa Rita 	3	Marzo	2023-03-25T00:00:00	2024-11-08T21:00:00	4	Temperatura máxima	18.7
84115	7	Sololá	704	Santa Lucía Utatlán 	7	Santa Rita 	3	Marzo	2023-03-25T00:00:00	2024-11-08T21:00:00	3	Temperatura mínima	17.3
84116	7	Sololá	704	Santa Lucía Utatlán 	7	Santa Rita 	3	Marzo	2023-03-25T00:00:00	2024-11-08T21:00:00	5	Humedad	92
84117	7	Sololá	704	Santa Lucía Utatlán 	7	Santa Rita 	3	Marzo	2023-03-25T00:00:00	2024-11-08T21:00:00	6	Velocidad del viento	1.6
84118	7	Sololá	704	Santa Lucía Utatlán 	7	Santa Rita 	3	Marzo	2023-03-25T00:00:00	2024-11-08T21:00:00	7	Dirección del viento	1.61
84119	7	Sololá	704	Santa Lucía Utatlán 	7	Santa Rita 	3	Marzo	2023-03-25T00:00:00	2024-11-08T21:00:00	1	Precipitación	0
84120	7	Sololá	704	Santa Lucía Utatlán 	7	Santa Rita 	3	Marzo	2023-03-25T00:00:00	2024-11-08T21:00:00	8	Radiación solar	0
84121	7	Sololá	704	Santa Lucía Utatlán 	7	Santa Rita 	3	Marzo	2023-03-25T00:00:00	2024-11-08T22:00:00	2	Temperatura media	17
84122	7	Sololá	704	Santa Lucía Utatlán 	7	Santa Rita 	3	Marzo	2023-03-25T00:00:00	2024-11-08T22:00:00	4	Temperatura máxima	17.4
84123	7	Sololá	704	Santa Lucía Utatlán 	7	Santa Rita 	3	Marzo	2023-03-25T00:00:00	2024-11-08T22:00:00	3	Temperatura mínima	16.9
84124	7	Sololá	704	Santa Lucía Utatlán 	7	Santa Rita 	3	Marzo	2023-03-25T00:00:00	2024-11-08T22:00:00	5	Humedad	92
84125	7	Sololá	704	Santa Lucía Utatlán 	7	Santa Rita 	3	Marzo	2023-03-25T00:00:00	2024-11-08T22:00:00	6	Velocidad del viento	1.6
84126	7	Sololá	704	Santa Lucía Utatlán 	7	Santa Rita 	3	Marzo	2023-03-25T00:00:00	2024-11-08T22:00:00	7	Dirección del viento	1.61
84127	7	Sololá	704	Santa Lucía Utatlán 	7	Santa Rita 	3	Marzo	2023-03-25T00:00:00	2024-11-08T22:00:00	1	Precipitación	0
84128	7	Sololá	704	Santa Lucía Utatlán 	7	Santa Rita 	3	Marzo	2023-03-25T00:00:00	2024-11-08T22:00:00	8	Radiación solar	0
84129	7	Sololá	704	Santa Lucía Utatlán 	7	Santa Rita 	3	Marzo	2023-03-25T00:00:00	2024-11-08T23:00:00	2	Temperatura media	17.1
84130	7	Sololá	704	Santa Lucía Utatlán 	7	Santa Rita 	3	Marzo	2023-03-25T00:00:00	2024-11-08T23:00:00	4	Temperatura máxima	17.1
84131	7	Sololá	704	Santa Lucía Utatlán 	7	Santa Rita 	3	Marzo	2023-03-25T00:00:00	2024-11-08T23:00:00	3	Temperatura mínima	16.8
84132	7	Sololá	704	Santa Lucía Utatlán 	7	Santa Rita 	3	Marzo	2023-03-25T00:00:00	2024-11-08T23:00:00	5	Humedad	90
84133	7	Sololá	704	Santa Lucía Utatlán 	7	Santa Rita 	3	Marzo	2023-03-25T00:00:00	2024-11-08T23:00:00	6	Velocidad del viento	3.2
84134	7	Sololá	704	Santa Lucía Utatlán 	7	Santa Rita 	3	Marzo	2023-03-25T00:00:00	2024-11-08T23:00:00	7	Dirección del viento	3.22
84135	7	Sololá	704	Santa Lucía Utatlán 	7	Santa Rita 	3	Marzo	2023-03-25T00:00:00	2024-11-08T23:00:00	1	Precipitación	0
84136	7	Sololá	704	Santa Lucía Utatlán 	7	Santa Rita 	3	Marzo	2023-03-25T00:00:00	2024-11-08T23:00:00	8	Radiación solar	0
84137	7	Sololá	704	Santa Lucía Utatlán 	7	Santa Rita 	3	Marzo	2023-03-26T00:00:00	2024-11-08T00:00:00	2	Temperatura media	17.7
84138	7	Sololá	704	Santa Lucía Utatlán 	7	Santa Rita 	3	Marzo	2023-03-26T00:00:00	2024-11-08T00:00:00	4	Temperatura máxima	17.8
84139	7	Sololá	704	Santa Lucía Utatlán 	7	Santa Rita 	3	Marzo	2023-03-26T00:00:00	2024-11-08T00:00:00	3	Temperatura mínima	17.1
84140	7	Sololá	704	Santa Lucía Utatlán 	7	Santa Rita 	3	Marzo	2023-03-26T00:00:00	2024-11-08T00:00:00	5	Humedad	88
84141	7	Sololá	704	Santa Lucía Utatlán 	7	Santa Rita 	3	Marzo	2023-03-26T00:00:00	2024-11-08T00:00:00	6	Velocidad del viento	1.6
84142	7	Sololá	704	Santa Lucía Utatlán 	7	Santa Rita 	3	Marzo	2023-03-26T00:00:00	2024-11-08T00:00:00	7	Dirección del viento	1.61
84143	7	Sololá	704	Santa Lucía Utatlán 	7	Santa Rita 	3	Marzo	2023-03-26T00:00:00	2024-11-08T00:00:00	1	Precipitación	0
84144	7	Sololá	704	Santa Lucía Utatlán 	7	Santa Rita 	3	Marzo	2023-03-26T00:00:00	2024-11-08T00:00:00	8	Radiación solar	0
84145	7	Sololá	704	Santa Lucía Utatlán 	7	Santa Rita 	3	Marzo	2023-03-26T00:00:00	2024-11-08T01:00:00	2	Temperatura media	17.6
84146	7	Sololá	704	Santa Lucía Utatlán 	7	Santa Rita 	3	Marzo	2023-03-26T00:00:00	2024-11-08T01:00:00	4	Temperatura máxima	18.3
84147	7	Sololá	704	Santa Lucía Utatlán 	7	Santa Rita 	3	Marzo	2023-03-26T00:00:00	2024-11-08T01:00:00	3	Temperatura mínima	17.6
84148	7	Sololá	704	Santa Lucía Utatlán 	7	Santa Rita 	3	Marzo	2023-03-26T00:00:00	2024-11-08T01:00:00	5	Humedad	89
84149	7	Sololá	704	Santa Lucía Utatlán 	7	Santa Rita 	3	Marzo	2023-03-26T00:00:00	2024-11-08T01:00:00	6	Velocidad del viento	0
84150	7	Sololá	704	Santa Lucía Utatlán 	7	Santa Rita 	3	Marzo	2023-03-26T00:00:00	2024-11-08T01:00:00	7	Dirección del viento	0
84151	7	Sololá	704	Santa Lucía Utatlán 	7	Santa Rita 	3	Marzo	2023-03-26T00:00:00	2024-11-08T01:00:00	1	Precipitación	0
84152	7	Sololá	704	Santa Lucía Utatlán 	7	Santa Rita 	3	Marzo	2023-03-26T00:00:00	2024-11-08T01:00:00	8	Radiación solar	0
84153	7	Sololá	704	Santa Lucía Utatlán 	7	Santa Rita 	3	Marzo	2023-03-26T00:00:00	2024-11-08T02:00:00	2	Temperatura media	18.1
84154	7	Sololá	704	Santa Lucía Utatlán 	7	Santa Rita 	3	Marzo	2023-03-26T00:00:00	2024-11-08T02:00:00	4	Temperatura máxima	18.2
84155	7	Sololá	704	Santa Lucía Utatlán 	7	Santa Rita 	3	Marzo	2023-03-26T00:00:00	2024-11-08T02:00:00	3	Temperatura mínima	17.6
84156	7	Sololá	704	Santa Lucía Utatlán 	7	Santa Rita 	3	Marzo	2023-03-26T00:00:00	2024-11-08T02:00:00	5	Humedad	90
84157	7	Sololá	704	Santa Lucía Utatlán 	7	Santa Rita 	3	Marzo	2023-03-26T00:00:00	2024-11-08T02:00:00	6	Velocidad del viento	0
84158	7	Sololá	704	Santa Lucía Utatlán 	7	Santa Rita 	3	Marzo	2023-03-26T00:00:00	2024-11-08T02:00:00	7	Dirección del viento	0
84159	7	Sololá	704	Santa Lucía Utatlán 	7	Santa Rita 	3	Marzo	2023-03-26T00:00:00	2024-11-08T02:00:00	1	Precipitación	0
84160	7	Sololá	704	Santa Lucía Utatlán 	7	Santa Rita 	3	Marzo	2023-03-26T00:00:00	2024-11-08T02:00:00	8	Radiación solar	0
84161	7	Sololá	704	Santa Lucía Utatlán 	7	Santa Rita 	3	Marzo	2023-03-26T00:00:00	2024-11-08T03:00:00	2	Temperatura media	18
84162	7	Sololá	704	Santa Lucía Utatlán 	7	Santa Rita 	3	Marzo	2023-03-26T00:00:00	2024-11-08T03:00:00	4	Temperatura máxima	18.2
84163	7	Sololá	704	Santa Lucía Utatlán 	7	Santa Rita 	3	Marzo	2023-03-26T00:00:00	2024-11-08T03:00:00	3	Temperatura mínima	18
84164	7	Sololá	704	Santa Lucía Utatlán 	7	Santa Rita 	3	Marzo	2023-03-26T00:00:00	2024-11-08T03:00:00	5	Humedad	92
84165	7	Sololá	704	Santa Lucía Utatlán 	7	Santa Rita 	3	Marzo	2023-03-26T00:00:00	2024-11-08T03:00:00	6	Velocidad del viento	0
84166	7	Sololá	704	Santa Lucía Utatlán 	7	Santa Rita 	3	Marzo	2023-03-26T00:00:00	2024-11-08T03:00:00	7	Dirección del viento	0
84167	7	Sololá	704	Santa Lucía Utatlán 	7	Santa Rita 	3	Marzo	2023-03-26T00:00:00	2024-11-08T03:00:00	1	Precipitación	0
84168	7	Sololá	704	Santa Lucía Utatlán 	7	Santa Rita 	3	Marzo	2023-03-26T00:00:00	2024-11-08T03:00:00	8	Radiación solar	0
84169	7	Sololá	704	Santa Lucía Utatlán 	7	Santa Rita 	3	Marzo	2023-03-26T00:00:00	2024-11-08T04:00:00	2	Temperatura media	17.4
84170	7	Sololá	704	Santa Lucía Utatlán 	7	Santa Rita 	3	Marzo	2023-03-26T00:00:00	2024-11-08T04:00:00	4	Temperatura máxima	18
84171	7	Sololá	704	Santa Lucía Utatlán 	7	Santa Rita 	3	Marzo	2023-03-26T00:00:00	2024-11-08T04:00:00	3	Temperatura mínima	17.4
84172	7	Sololá	704	Santa Lucía Utatlán 	7	Santa Rita 	3	Marzo	2023-03-26T00:00:00	2024-11-08T04:00:00	5	Humedad	94
84173	7	Sololá	704	Santa Lucía Utatlán 	7	Santa Rita 	3	Marzo	2023-03-26T00:00:00	2024-11-08T04:00:00	6	Velocidad del viento	0
84174	7	Sololá	704	Santa Lucía Utatlán 	7	Santa Rita 	3	Marzo	2023-03-26T00:00:00	2024-11-08T04:00:00	7	Dirección del viento	0
84175	7	Sololá	704	Santa Lucía Utatlán 	7	Santa Rita 	3	Marzo	2023-03-26T00:00:00	2024-11-08T04:00:00	1	Precipitación	0
84176	7	Sololá	704	Santa Lucía Utatlán 	7	Santa Rita 	3	Marzo	2023-03-26T00:00:00	2024-11-08T04:00:00	8	Radiación solar	0
84177	7	Sololá	704	Santa Lucía Utatlán 	7	Santa Rita 	3	Marzo	2023-03-26T00:00:00	2024-11-08T05:00:00	2	Temperatura media	17.5
84178	7	Sololá	704	Santa Lucía Utatlán 	7	Santa Rita 	3	Marzo	2023-03-26T00:00:00	2024-11-08T05:00:00	4	Temperatura máxima	17.7
84179	7	Sololá	704	Santa Lucía Utatlán 	7	Santa Rita 	3	Marzo	2023-03-26T00:00:00	2024-11-08T05:00:00	3	Temperatura mínima	17.4
84180	7	Sololá	704	Santa Lucía Utatlán 	7	Santa Rita 	3	Marzo	2023-03-26T00:00:00	2024-11-08T05:00:00	5	Humedad	94
84181	7	Sololá	704	Santa Lucía Utatlán 	7	Santa Rita 	3	Marzo	2023-03-26T00:00:00	2024-11-08T05:00:00	6	Velocidad del viento	0
84182	7	Sololá	704	Santa Lucía Utatlán 	7	Santa Rita 	3	Marzo	2023-03-26T00:00:00	2024-11-08T05:00:00	7	Dirección del viento	0
84183	7	Sololá	704	Santa Lucía Utatlán 	7	Santa Rita 	3	Marzo	2023-03-26T00:00:00	2024-11-08T05:00:00	1	Precipitación	0
84184	7	Sololá	704	Santa Lucía Utatlán 	7	Santa Rita 	3	Marzo	2023-03-26T00:00:00	2024-11-08T05:00:00	8	Radiación solar	0
84185	7	Sololá	704	Santa Lucía Utatlán 	7	Santa Rita 	3	Marzo	2023-03-26T00:00:00	2024-11-08T06:00:00	2	Temperatura media	17.4
84186	7	Sololá	704	Santa Lucía Utatlán 	7	Santa Rita 	3	Marzo	2023-03-26T00:00:00	2024-11-08T06:00:00	4	Temperatura máxima	17.6
84187	7	Sololá	704	Santa Lucía Utatlán 	7	Santa Rita 	3	Marzo	2023-03-26T00:00:00	2024-11-08T06:00:00	3	Temperatura mínima	17.3
84188	7	Sololá	704	Santa Lucía Utatlán 	7	Santa Rita 	3	Marzo	2023-03-26T00:00:00	2024-11-08T06:00:00	5	Humedad	94
84189	7	Sololá	704	Santa Lucía Utatlán 	7	Santa Rita 	3	Marzo	2023-03-26T00:00:00	2024-11-08T06:00:00	6	Velocidad del viento	0
84190	7	Sololá	704	Santa Lucía Utatlán 	7	Santa Rita 	3	Marzo	2023-03-26T00:00:00	2024-11-08T06:00:00	7	Dirección del viento	0
84191	7	Sololá	704	Santa Lucía Utatlán 	7	Santa Rita 	3	Marzo	2023-03-26T00:00:00	2024-11-08T06:00:00	1	Precipitación	0
84192	7	Sololá	704	Santa Lucía Utatlán 	7	Santa Rita 	3	Marzo	2023-03-26T00:00:00	2024-11-08T06:00:00	8	Radiación solar	0
84193	7	Sololá	704	Santa Lucía Utatlán 	7	Santa Rita 	3	Marzo	2023-03-26T00:00:00	2024-11-08T07:00:00	2	Temperatura media	16.6
84194	7	Sololá	704	Santa Lucía Utatlán 	7	Santa Rita 	3	Marzo	2023-03-26T00:00:00	2024-11-08T07:00:00	4	Temperatura máxima	17.4
84195	7	Sololá	704	Santa Lucía Utatlán 	7	Santa Rita 	3	Marzo	2023-03-26T00:00:00	2024-11-08T07:00:00	3	Temperatura mínima	16.6
84196	7	Sololá	704	Santa Lucía Utatlán 	7	Santa Rita 	3	Marzo	2023-03-26T00:00:00	2024-11-08T07:00:00	5	Humedad	96
84197	7	Sololá	704	Santa Lucía Utatlán 	7	Santa Rita 	3	Marzo	2023-03-26T00:00:00	2024-11-08T07:00:00	6	Velocidad del viento	1.6
84198	7	Sololá	704	Santa Lucía Utatlán 	7	Santa Rita 	3	Marzo	2023-03-26T00:00:00	2024-11-08T07:00:00	7	Dirección del viento	1.61
84199	7	Sololá	704	Santa Lucía Utatlán 	7	Santa Rita 	3	Marzo	2023-03-26T00:00:00	2024-11-08T07:00:00	1	Precipitación	0
84200	7	Sololá	704	Santa Lucía Utatlán 	7	Santa Rita 	3	Marzo	2023-03-26T00:00:00	2024-11-08T07:00:00	8	Radiación solar	49
84201	7	Sololá	704	Santa Lucía Utatlán 	7	Santa Rita 	3	Marzo	2023-03-26T00:00:00	2024-11-08T08:00:00	2	Temperatura media	17.6
84202	7	Sololá	704	Santa Lucía Utatlán 	7	Santa Rita 	3	Marzo	2023-03-26T00:00:00	2024-11-08T08:00:00	4	Temperatura máxima	17.6
84203	7	Sololá	704	Santa Lucía Utatlán 	7	Santa Rita 	3	Marzo	2023-03-26T00:00:00	2024-11-08T08:00:00	3	Temperatura mínima	16.6
84204	7	Sololá	704	Santa Lucía Utatlán 	7	Santa Rita 	3	Marzo	2023-03-26T00:00:00	2024-11-08T08:00:00	5	Humedad	91
84205	7	Sololá	704	Santa Lucía Utatlán 	7	Santa Rita 	3	Marzo	2023-03-26T00:00:00	2024-11-08T08:00:00	6	Velocidad del viento	0
84206	7	Sololá	704	Santa Lucía Utatlán 	7	Santa Rita 	3	Marzo	2023-03-26T00:00:00	2024-11-08T08:00:00	7	Dirección del viento	0
84207	7	Sololá	704	Santa Lucía Utatlán 	7	Santa Rita 	3	Marzo	2023-03-26T00:00:00	2024-11-08T08:00:00	1	Precipitación	0
84208	7	Sololá	704	Santa Lucía Utatlán 	7	Santa Rita 	3	Marzo	2023-03-26T00:00:00	2024-11-08T08:00:00	8	Radiación solar	272
84209	7	Sololá	704	Santa Lucía Utatlán 	7	Santa Rita 	3	Marzo	2023-03-26T00:00:00	2024-11-08T09:00:00	2	Temperatura media	19.3
84210	7	Sololá	704	Santa Lucía Utatlán 	7	Santa Rita 	3	Marzo	2023-03-26T00:00:00	2024-11-08T09:00:00	4	Temperatura máxima	19.4
84211	7	Sololá	704	Santa Lucía Utatlán 	7	Santa Rita 	3	Marzo	2023-03-26T00:00:00	2024-11-08T09:00:00	3	Temperatura mínima	17.6
84212	7	Sololá	704	Santa Lucía Utatlán 	7	Santa Rita 	3	Marzo	2023-03-26T00:00:00	2024-11-08T09:00:00	5	Humedad	85
84213	7	Sololá	704	Santa Lucía Utatlán 	7	Santa Rita 	3	Marzo	2023-03-26T00:00:00	2024-11-08T09:00:00	6	Velocidad del viento	3.2
84214	7	Sololá	704	Santa Lucía Utatlán 	7	Santa Rita 	3	Marzo	2023-03-26T00:00:00	2024-11-08T09:00:00	7	Dirección del viento	3.22
84215	7	Sololá	704	Santa Lucía Utatlán 	7	Santa Rita 	3	Marzo	2023-03-26T00:00:00	2024-11-08T09:00:00	1	Precipitación	0
84216	7	Sololá	704	Santa Lucía Utatlán 	7	Santa Rita 	3	Marzo	2023-03-26T00:00:00	2024-11-08T09:00:00	8	Radiación solar	611
84217	7	Sololá	704	Santa Lucía Utatlán 	7	Santa Rita 	3	Marzo	2023-03-26T00:00:00	2024-11-08T10:00:00	2	Temperatura media	20.3
84218	7	Sololá	704	Santa Lucía Utatlán 	7	Santa Rita 	3	Marzo	2023-03-26T00:00:00	2024-11-08T10:00:00	4	Temperatura máxima	20.3
84219	7	Sololá	704	Santa Lucía Utatlán 	7	Santa Rita 	3	Marzo	2023-03-26T00:00:00	2024-11-08T10:00:00	3	Temperatura mínima	19.1
84220	7	Sololá	704	Santa Lucía Utatlán 	7	Santa Rita 	3	Marzo	2023-03-26T00:00:00	2024-11-08T10:00:00	5	Humedad	80
84221	7	Sololá	704	Santa Lucía Utatlán 	7	Santa Rita 	3	Marzo	2023-03-26T00:00:00	2024-11-08T10:00:00	6	Velocidad del viento	4.8
84222	7	Sololá	704	Santa Lucía Utatlán 	7	Santa Rita 	3	Marzo	2023-03-26T00:00:00	2024-11-08T10:00:00	7	Dirección del viento	4.83
84223	7	Sololá	704	Santa Lucía Utatlán 	7	Santa Rita 	3	Marzo	2023-03-26T00:00:00	2024-11-08T10:00:00	1	Precipitación	0
84224	7	Sololá	704	Santa Lucía Utatlán 	7	Santa Rita 	3	Marzo	2023-03-26T00:00:00	2024-11-08T10:00:00	8	Radiación solar	756
84225	7	Sololá	704	Santa Lucía Utatlán 	7	Santa Rita 	3	Marzo	2023-03-26T00:00:00	2024-11-08T11:00:00	2	Temperatura media	22.4
84226	7	Sololá	704	Santa Lucía Utatlán 	7	Santa Rita 	3	Marzo	2023-03-26T00:00:00	2024-11-08T11:00:00	4	Temperatura máxima	22.7
84227	7	Sololá	704	Santa Lucía Utatlán 	7	Santa Rita 	3	Marzo	2023-03-26T00:00:00	2024-11-08T11:00:00	3	Temperatura mínima	20.3
84228	7	Sololá	704	Santa Lucía Utatlán 	7	Santa Rita 	3	Marzo	2023-03-26T00:00:00	2024-11-08T11:00:00	5	Humedad	75
84229	7	Sololá	704	Santa Lucía Utatlán 	7	Santa Rita 	3	Marzo	2023-03-26T00:00:00	2024-11-08T11:00:00	6	Velocidad del viento	6.4
84230	7	Sololá	704	Santa Lucía Utatlán 	7	Santa Rita 	3	Marzo	2023-03-26T00:00:00	2024-11-08T11:00:00	7	Dirección del viento	6.44
84231	7	Sololá	704	Santa Lucía Utatlán 	7	Santa Rita 	3	Marzo	2023-03-26T00:00:00	2024-11-08T11:00:00	1	Precipitación	0
84232	7	Sololá	704	Santa Lucía Utatlán 	7	Santa Rita 	3	Marzo	2023-03-26T00:00:00	2024-11-08T11:00:00	8	Radiación solar	936
84233	7	Sololá	704	Santa Lucía Utatlán 	7	Santa Rita 	3	Marzo	2023-03-26T00:00:00	2024-11-08T12:00:00	2	Temperatura media	23.8
84234	7	Sololá	704	Santa Lucía Utatlán 	7	Santa Rita 	3	Marzo	2023-03-26T00:00:00	2024-11-08T12:00:00	4	Temperatura máxima	23.8
84235	7	Sololá	704	Santa Lucía Utatlán 	7	Santa Rita 	3	Marzo	2023-03-26T00:00:00	2024-11-08T12:00:00	3	Temperatura mínima	22
84236	7	Sololá	704	Santa Lucía Utatlán 	7	Santa Rita 	3	Marzo	2023-03-26T00:00:00	2024-11-08T12:00:00	5	Humedad	64
84237	7	Sololá	704	Santa Lucía Utatlán 	7	Santa Rita 	3	Marzo	2023-03-26T00:00:00	2024-11-08T12:00:00	6	Velocidad del viento	9.7
84238	7	Sololá	704	Santa Lucía Utatlán 	7	Santa Rita 	3	Marzo	2023-03-26T00:00:00	2024-11-08T12:00:00	7	Dirección del viento	9.66
84239	7	Sololá	704	Santa Lucía Utatlán 	7	Santa Rita 	3	Marzo	2023-03-26T00:00:00	2024-11-08T12:00:00	1	Precipitación	0
84240	7	Sololá	704	Santa Lucía Utatlán 	7	Santa Rita 	3	Marzo	2023-03-26T00:00:00	2024-11-08T12:00:00	8	Radiación solar	1075
84241	7	Sololá	704	Santa Lucía Utatlán 	7	Santa Rita 	3	Marzo	2023-03-26T00:00:00	2024-11-08T13:00:00	2	Temperatura media	23.6
84242	7	Sololá	704	Santa Lucía Utatlán 	7	Santa Rita 	3	Marzo	2023-03-26T00:00:00	2024-11-08T13:00:00	4	Temperatura máxima	24.1
84243	7	Sololá	704	Santa Lucía Utatlán 	7	Santa Rita 	3	Marzo	2023-03-26T00:00:00	2024-11-08T13:00:00	3	Temperatura mínima	23.3
84244	7	Sololá	704	Santa Lucía Utatlán 	7	Santa Rita 	3	Marzo	2023-03-26T00:00:00	2024-11-08T13:00:00	5	Humedad	67
84245	7	Sololá	704	Santa Lucía Utatlán 	7	Santa Rita 	3	Marzo	2023-03-26T00:00:00	2024-11-08T13:00:00	6	Velocidad del viento	11.3
84246	7	Sololá	704	Santa Lucía Utatlán 	7	Santa Rita 	3	Marzo	2023-03-26T00:00:00	2024-11-08T13:00:00	7	Dirección del viento	11.27
84247	7	Sololá	704	Santa Lucía Utatlán 	7	Santa Rita 	3	Marzo	2023-03-26T00:00:00	2024-11-08T13:00:00	1	Precipitación	0
84248	7	Sololá	704	Santa Lucía Utatlán 	7	Santa Rita 	3	Marzo	2023-03-26T00:00:00	2024-11-08T13:00:00	8	Radiación solar	1029
84249	7	Sololá	704	Santa Lucía Utatlán 	7	Santa Rita 	3	Marzo	2023-03-26T00:00:00	2024-11-08T14:00:00	2	Temperatura media	23.1
84250	7	Sololá	704	Santa Lucía Utatlán 	7	Santa Rita 	3	Marzo	2023-03-26T00:00:00	2024-11-08T14:00:00	4	Temperatura máxima	23.9
84251	7	Sololá	704	Santa Lucía Utatlán 	7	Santa Rita 	3	Marzo	2023-03-26T00:00:00	2024-11-08T14:00:00	3	Temperatura mínima	22.9
84252	7	Sololá	704	Santa Lucía Utatlán 	7	Santa Rita 	3	Marzo	2023-03-26T00:00:00	2024-11-08T14:00:00	5	Humedad	71
84253	7	Sololá	704	Santa Lucía Utatlán 	7	Santa Rita 	3	Marzo	2023-03-26T00:00:00	2024-11-08T14:00:00	6	Velocidad del viento	9.7
84254	7	Sololá	704	Santa Lucía Utatlán 	7	Santa Rita 	3	Marzo	2023-03-26T00:00:00	2024-11-08T14:00:00	7	Dirección del viento	9.66
84255	7	Sololá	704	Santa Lucía Utatlán 	7	Santa Rita 	3	Marzo	2023-03-26T00:00:00	2024-11-08T14:00:00	1	Precipitación	0
84256	7	Sololá	704	Santa Lucía Utatlán 	7	Santa Rita 	3	Marzo	2023-03-26T00:00:00	2024-11-08T14:00:00	8	Radiación solar	1032
84257	7	Sololá	704	Santa Lucía Utatlán 	7	Santa Rita 	3	Marzo	2023-03-26T00:00:00	2024-11-08T15:00:00	2	Temperatura media	23.7
84258	7	Sololá	704	Santa Lucía Utatlán 	7	Santa Rita 	3	Marzo	2023-03-26T00:00:00	2024-11-08T15:00:00	4	Temperatura máxima	24
84259	7	Sololá	704	Santa Lucía Utatlán 	7	Santa Rita 	3	Marzo	2023-03-26T00:00:00	2024-11-08T15:00:00	3	Temperatura mínima	23.1
84260	7	Sololá	704	Santa Lucía Utatlán 	7	Santa Rita 	3	Marzo	2023-03-26T00:00:00	2024-11-08T15:00:00	5	Humedad	71
84261	7	Sololá	704	Santa Lucía Utatlán 	7	Santa Rita 	3	Marzo	2023-03-26T00:00:00	2024-11-08T15:00:00	6	Velocidad del viento	9.7
84262	7	Sololá	704	Santa Lucía Utatlán 	7	Santa Rita 	3	Marzo	2023-03-26T00:00:00	2024-11-08T15:00:00	7	Dirección del viento	9.66
84263	7	Sololá	704	Santa Lucía Utatlán 	7	Santa Rita 	3	Marzo	2023-03-26T00:00:00	2024-11-08T15:00:00	1	Precipitación	0
84264	7	Sololá	704	Santa Lucía Utatlán 	7	Santa Rita 	3	Marzo	2023-03-26T00:00:00	2024-11-08T15:00:00	8	Radiación solar	687
84265	7	Sololá	704	Santa Lucía Utatlán 	7	Santa Rita 	3	Marzo	2023-03-26T00:00:00	2024-11-08T16:00:00	2	Temperatura media	22.1
84266	7	Sololá	704	Santa Lucía Utatlán 	7	Santa Rita 	3	Marzo	2023-03-26T00:00:00	2024-11-08T16:00:00	4	Temperatura máxima	23.7
84267	7	Sololá	704	Santa Lucía Utatlán 	7	Santa Rita 	3	Marzo	2023-03-26T00:00:00	2024-11-08T16:00:00	3	Temperatura mínima	22.1
84268	7	Sololá	704	Santa Lucía Utatlán 	7	Santa Rita 	3	Marzo	2023-03-26T00:00:00	2024-11-08T16:00:00	5	Humedad	78
84269	7	Sololá	704	Santa Lucía Utatlán 	7	Santa Rita 	3	Marzo	2023-03-26T00:00:00	2024-11-08T16:00:00	6	Velocidad del viento	9.7
84270	7	Sololá	704	Santa Lucía Utatlán 	7	Santa Rita 	3	Marzo	2023-03-26T00:00:00	2024-11-08T16:00:00	7	Dirección del viento	9.66
84271	7	Sololá	704	Santa Lucía Utatlán 	7	Santa Rita 	3	Marzo	2023-03-26T00:00:00	2024-11-08T16:00:00	1	Precipitación	0
84272	7	Sololá	704	Santa Lucía Utatlán 	7	Santa Rita 	3	Marzo	2023-03-26T00:00:00	2024-11-08T16:00:00	8	Radiación solar	244
84273	7	Sololá	704	Santa Lucía Utatlán 	7	Santa Rita 	3	Marzo	2023-03-26T00:00:00	2024-11-08T17:00:00	2	Temperatura media	21.3
84274	7	Sololá	704	Santa Lucía Utatlán 	7	Santa Rita 	3	Marzo	2023-03-26T00:00:00	2024-11-08T17:00:00	4	Temperatura máxima	22.1
84275	7	Sololá	704	Santa Lucía Utatlán 	7	Santa Rita 	3	Marzo	2023-03-26T00:00:00	2024-11-08T17:00:00	3	Temperatura mínima	21.2
84276	7	Sololá	704	Santa Lucía Utatlán 	7	Santa Rita 	3	Marzo	2023-03-26T00:00:00	2024-11-08T17:00:00	5	Humedad	81
84277	7	Sololá	704	Santa Lucía Utatlán 	7	Santa Rita 	3	Marzo	2023-03-26T00:00:00	2024-11-08T17:00:00	6	Velocidad del viento	8
84278	7	Sololá	704	Santa Lucía Utatlán 	7	Santa Rita 	3	Marzo	2023-03-26T00:00:00	2024-11-08T17:00:00	7	Dirección del viento	8.05
84279	7	Sololá	704	Santa Lucía Utatlán 	7	Santa Rita 	3	Marzo	2023-03-26T00:00:00	2024-11-08T17:00:00	1	Precipitación	0
84280	7	Sololá	704	Santa Lucía Utatlán 	7	Santa Rita 	3	Marzo	2023-03-26T00:00:00	2024-11-08T17:00:00	8	Radiación solar	126
84281	7	Sololá	704	Santa Lucía Utatlán 	7	Santa Rita 	3	Marzo	2023-03-26T00:00:00	2024-11-08T18:00:00	2	Temperatura media	20.4
84282	7	Sololá	704	Santa Lucía Utatlán 	7	Santa Rita 	3	Marzo	2023-03-26T00:00:00	2024-11-08T18:00:00	4	Temperatura máxima	21.5
84283	7	Sololá	704	Santa Lucía Utatlán 	7	Santa Rita 	3	Marzo	2023-03-26T00:00:00	2024-11-08T18:00:00	3	Temperatura mínima	20.4
84284	7	Sololá	704	Santa Lucía Utatlán 	7	Santa Rita 	3	Marzo	2023-03-26T00:00:00	2024-11-08T18:00:00	5	Humedad	84
84285	7	Sololá	704	Santa Lucía Utatlán 	7	Santa Rita 	3	Marzo	2023-03-26T00:00:00	2024-11-08T18:00:00	6	Velocidad del viento	4.8
84286	7	Sololá	704	Santa Lucía Utatlán 	7	Santa Rita 	3	Marzo	2023-03-26T00:00:00	2024-11-08T18:00:00	7	Dirección del viento	4.83
84287	7	Sololá	704	Santa Lucía Utatlán 	7	Santa Rita 	3	Marzo	2023-03-26T00:00:00	2024-11-08T18:00:00	1	Precipitación	0
84288	7	Sololá	704	Santa Lucía Utatlán 	7	Santa Rita 	3	Marzo	2023-03-26T00:00:00	2024-11-08T18:00:00	8	Radiación solar	26
84289	7	Sololá	704	Santa Lucía Utatlán 	7	Santa Rita 	3	Marzo	2023-03-26T00:00:00	2024-11-08T19:00:00	2	Temperatura media	19.7
84290	7	Sololá	704	Santa Lucía Utatlán 	7	Santa Rita 	3	Marzo	2023-03-26T00:00:00	2024-11-08T19:00:00	4	Temperatura máxima	20.5
84291	7	Sololá	704	Santa Lucía Utatlán 	7	Santa Rita 	3	Marzo	2023-03-26T00:00:00	2024-11-08T19:00:00	3	Temperatura mínima	19.7
84292	7	Sololá	704	Santa Lucía Utatlán 	7	Santa Rita 	3	Marzo	2023-03-26T00:00:00	2024-11-08T19:00:00	5	Humedad	87
84293	7	Sololá	704	Santa Lucía Utatlán 	7	Santa Rita 	3	Marzo	2023-03-26T00:00:00	2024-11-08T19:00:00	6	Velocidad del viento	3.2
84294	7	Sololá	704	Santa Lucía Utatlán 	7	Santa Rita 	3	Marzo	2023-03-26T00:00:00	2024-11-08T19:00:00	7	Dirección del viento	3.22
84295	7	Sololá	704	Santa Lucía Utatlán 	7	Santa Rita 	3	Marzo	2023-03-26T00:00:00	2024-11-08T19:00:00	1	Precipitación	0
84296	7	Sololá	704	Santa Lucía Utatlán 	7	Santa Rita 	3	Marzo	2023-03-26T00:00:00	2024-11-08T19:00:00	8	Radiación solar	0
84297	7	Sololá	704	Santa Lucía Utatlán 	7	Santa Rita 	3	Marzo	2023-03-26T00:00:00	2024-11-08T20:00:00	2	Temperatura media	19
84298	7	Sololá	704	Santa Lucía Utatlán 	7	Santa Rita 	3	Marzo	2023-03-26T00:00:00	2024-11-08T20:00:00	4	Temperatura máxima	19.7
84299	7	Sololá	704	Santa Lucía Utatlán 	7	Santa Rita 	3	Marzo	2023-03-26T00:00:00	2024-11-08T20:00:00	3	Temperatura mínima	19
84300	7	Sololá	704	Santa Lucía Utatlán 	7	Santa Rita 	3	Marzo	2023-03-26T00:00:00	2024-11-08T20:00:00	5	Humedad	88
84301	7	Sololá	704	Santa Lucía Utatlán 	7	Santa Rita 	3	Marzo	2023-03-26T00:00:00	2024-11-08T20:00:00	6	Velocidad del viento	3.2
84302	7	Sololá	704	Santa Lucía Utatlán 	7	Santa Rita 	3	Marzo	2023-03-26T00:00:00	2024-11-08T20:00:00	7	Dirección del viento	3.22
84303	7	Sololá	704	Santa Lucía Utatlán 	7	Santa Rita 	3	Marzo	2023-03-26T00:00:00	2024-11-08T20:00:00	1	Precipitación	0
84304	7	Sololá	704	Santa Lucía Utatlán 	7	Santa Rita 	3	Marzo	2023-03-26T00:00:00	2024-11-08T20:00:00	8	Radiación solar	0
84305	7	Sololá	704	Santa Lucía Utatlán 	7	Santa Rita 	3	Marzo	2023-03-26T00:00:00	2024-11-08T21:00:00	2	Temperatura media	17.3
84306	7	Sololá	704	Santa Lucía Utatlán 	7	Santa Rita 	3	Marzo	2023-03-26T00:00:00	2024-11-08T21:00:00	4	Temperatura máxima	19
84307	7	Sololá	704	Santa Lucía Utatlán 	7	Santa Rita 	3	Marzo	2023-03-26T00:00:00	2024-11-08T21:00:00	3	Temperatura mínima	17.3
84308	7	Sololá	704	Santa Lucía Utatlán 	7	Santa Rita 	3	Marzo	2023-03-26T00:00:00	2024-11-08T21:00:00	5	Humedad	86
84309	7	Sololá	704	Santa Lucía Utatlán 	7	Santa Rita 	3	Marzo	2023-03-26T00:00:00	2024-11-08T21:00:00	6	Velocidad del viento	3.2
84310	7	Sololá	704	Santa Lucía Utatlán 	7	Santa Rita 	3	Marzo	2023-03-26T00:00:00	2024-11-08T21:00:00	7	Dirección del viento	3.22
84311	7	Sololá	704	Santa Lucía Utatlán 	7	Santa Rita 	3	Marzo	2023-03-26T00:00:00	2024-11-08T21:00:00	1	Precipitación	0
84312	7	Sololá	704	Santa Lucía Utatlán 	7	Santa Rita 	3	Marzo	2023-03-26T00:00:00	2024-11-08T21:00:00	8	Radiación solar	0
84313	7	Sololá	704	Santa Lucía Utatlán 	7	Santa Rita 	3	Marzo	2023-03-26T00:00:00	2024-11-08T22:00:00	2	Temperatura media	17.7
84314	7	Sololá	704	Santa Lucía Utatlán 	7	Santa Rita 	3	Marzo	2023-03-26T00:00:00	2024-11-08T22:00:00	4	Temperatura máxima	17.7
84315	7	Sololá	704	Santa Lucía Utatlán 	7	Santa Rita 	3	Marzo	2023-03-26T00:00:00	2024-11-08T22:00:00	3	Temperatura mínima	17.2
84316	7	Sololá	704	Santa Lucía Utatlán 	7	Santa Rita 	3	Marzo	2023-03-26T00:00:00	2024-11-08T22:00:00	5	Humedad	81
84317	7	Sololá	704	Santa Lucía Utatlán 	7	Santa Rita 	3	Marzo	2023-03-26T00:00:00	2024-11-08T22:00:00	6	Velocidad del viento	3.2
84318	7	Sololá	704	Santa Lucía Utatlán 	7	Santa Rita 	3	Marzo	2023-03-26T00:00:00	2024-11-08T22:00:00	7	Dirección del viento	3.22
84319	7	Sololá	704	Santa Lucía Utatlán 	7	Santa Rita 	3	Marzo	2023-03-26T00:00:00	2024-11-08T22:00:00	1	Precipitación	0
84320	7	Sololá	704	Santa Lucía Utatlán 	7	Santa Rita 	3	Marzo	2023-03-26T00:00:00	2024-11-08T22:00:00	8	Radiación solar	0
84321	7	Sololá	704	Santa Lucía Utatlán 	7	Santa Rita 	3	Marzo	2023-03-26T00:00:00	2024-11-08T23:00:00	2	Temperatura media	18.1
84322	7	Sololá	704	Santa Lucía Utatlán 	7	Santa Rita 	3	Marzo	2023-03-26T00:00:00	2024-11-08T23:00:00	4	Temperatura máxima	18.1
84323	7	Sololá	704	Santa Lucía Utatlán 	7	Santa Rita 	3	Marzo	2023-03-26T00:00:00	2024-11-08T23:00:00	3	Temperatura mínima	17.6
84324	7	Sololá	704	Santa Lucía Utatlán 	7	Santa Rita 	3	Marzo	2023-03-26T00:00:00	2024-11-08T23:00:00	5	Humedad	82
84325	7	Sololá	704	Santa Lucía Utatlán 	7	Santa Rita 	3	Marzo	2023-03-26T00:00:00	2024-11-08T23:00:00	6	Velocidad del viento	1.6
84326	7	Sololá	704	Santa Lucía Utatlán 	7	Santa Rita 	3	Marzo	2023-03-26T00:00:00	2024-11-08T23:00:00	7	Dirección del viento	1.61
84327	7	Sololá	704	Santa Lucía Utatlán 	7	Santa Rita 	3	Marzo	2023-03-26T00:00:00	2024-11-08T23:00:00	1	Precipitación	0
84328	7	Sololá	704	Santa Lucía Utatlán 	7	Santa Rita 	3	Marzo	2023-03-26T00:00:00	2024-11-08T23:00:00	8	Radiación solar	0
84329	7	Sololá	704	Santa Lucía Utatlán 	7	Santa Rita 	3	Marzo	2023-03-27T00:00:00	2024-11-08T00:00:00	2	Temperatura media	17.6
84330	7	Sololá	704	Santa Lucía Utatlán 	7	Santa Rita 	3	Marzo	2023-03-27T00:00:00	2024-11-08T00:00:00	4	Temperatura máxima	18.8
84331	7	Sololá	704	Santa Lucía Utatlán 	7	Santa Rita 	3	Marzo	2023-03-27T00:00:00	2024-11-08T00:00:00	3	Temperatura mínima	17.6
84332	7	Sololá	704	Santa Lucía Utatlán 	7	Santa Rita 	3	Marzo	2023-03-27T00:00:00	2024-11-08T00:00:00	5	Humedad	80
84333	7	Sololá	704	Santa Lucía Utatlán 	7	Santa Rita 	3	Marzo	2023-03-27T00:00:00	2024-11-08T00:00:00	6	Velocidad del viento	3.2
84334	7	Sololá	704	Santa Lucía Utatlán 	7	Santa Rita 	3	Marzo	2023-03-27T00:00:00	2024-11-08T00:00:00	7	Dirección del viento	3.22
84335	7	Sololá	704	Santa Lucía Utatlán 	7	Santa Rita 	3	Marzo	2023-03-27T00:00:00	2024-11-08T00:00:00	1	Precipitación	0
84336	7	Sololá	704	Santa Lucía Utatlán 	7	Santa Rita 	3	Marzo	2023-03-27T00:00:00	2024-11-08T00:00:00	8	Radiación solar	0
84337	7	Sololá	704	Santa Lucía Utatlán 	7	Santa Rita 	3	Marzo	2023-03-27T00:00:00	2024-11-08T01:00:00	2	Temperatura media	16.7
84338	7	Sololá	704	Santa Lucía Utatlán 	7	Santa Rita 	3	Marzo	2023-03-27T00:00:00	2024-11-08T01:00:00	4	Temperatura máxima	17.6
84339	7	Sololá	704	Santa Lucía Utatlán 	7	Santa Rita 	3	Marzo	2023-03-27T00:00:00	2024-11-08T01:00:00	3	Temperatura mínima	16.7
84340	7	Sololá	704	Santa Lucía Utatlán 	7	Santa Rita 	3	Marzo	2023-03-27T00:00:00	2024-11-08T01:00:00	5	Humedad	83
84341	7	Sololá	704	Santa Lucía Utatlán 	7	Santa Rita 	3	Marzo	2023-03-27T00:00:00	2024-11-08T01:00:00	6	Velocidad del viento	3.2
84342	7	Sololá	704	Santa Lucía Utatlán 	7	Santa Rita 	3	Marzo	2023-03-27T00:00:00	2024-11-08T01:00:00	7	Dirección del viento	3.22
84343	7	Sololá	704	Santa Lucía Utatlán 	7	Santa Rita 	3	Marzo	2023-03-27T00:00:00	2024-11-08T01:00:00	1	Precipitación	0
84344	7	Sololá	704	Santa Lucía Utatlán 	7	Santa Rita 	3	Marzo	2023-03-27T00:00:00	2024-11-08T01:00:00	8	Radiación solar	0
84345	7	Sololá	704	Santa Lucía Utatlán 	7	Santa Rita 	3	Marzo	2023-03-27T00:00:00	2024-11-08T02:00:00	2	Temperatura media	16.8
84346	7	Sololá	704	Santa Lucía Utatlán 	7	Santa Rita 	3	Marzo	2023-03-27T00:00:00	2024-11-08T02:00:00	4	Temperatura máxima	17.2
84347	7	Sololá	704	Santa Lucía Utatlán 	7	Santa Rita 	3	Marzo	2023-03-27T00:00:00	2024-11-08T02:00:00	3	Temperatura mínima	16.6
84348	7	Sololá	704	Santa Lucía Utatlán 	7	Santa Rita 	3	Marzo	2023-03-27T00:00:00	2024-11-08T02:00:00	5	Humedad	86
84349	7	Sololá	704	Santa Lucía Utatlán 	7	Santa Rita 	3	Marzo	2023-03-27T00:00:00	2024-11-08T02:00:00	6	Velocidad del viento	3.2
84350	7	Sololá	704	Santa Lucía Utatlán 	7	Santa Rita 	3	Marzo	2023-03-27T00:00:00	2024-11-08T02:00:00	7	Dirección del viento	3.22
84351	7	Sololá	704	Santa Lucía Utatlán 	7	Santa Rita 	3	Marzo	2023-03-27T00:00:00	2024-11-08T02:00:00	1	Precipitación	0
84352	7	Sololá	704	Santa Lucía Utatlán 	7	Santa Rita 	3	Marzo	2023-03-27T00:00:00	2024-11-08T02:00:00	8	Radiación solar	0
84353	7	Sololá	704	Santa Lucía Utatlán 	7	Santa Rita 	3	Marzo	2023-03-27T00:00:00	2024-11-08T03:00:00	2	Temperatura media	16.4
84354	7	Sololá	704	Santa Lucía Utatlán 	7	Santa Rita 	3	Marzo	2023-03-27T00:00:00	2024-11-08T03:00:00	4	Temperatura máxima	16.8
84355	7	Sololá	704	Santa Lucía Utatlán 	7	Santa Rita 	3	Marzo	2023-03-27T00:00:00	2024-11-08T03:00:00	3	Temperatura mínima	16.3
84356	7	Sololá	704	Santa Lucía Utatlán 	7	Santa Rita 	3	Marzo	2023-03-27T00:00:00	2024-11-08T03:00:00	5	Humedad	88
84357	7	Sololá	704	Santa Lucía Utatlán 	7	Santa Rita 	3	Marzo	2023-03-27T00:00:00	2024-11-08T03:00:00	6	Velocidad del viento	3.2
84358	7	Sololá	704	Santa Lucía Utatlán 	7	Santa Rita 	3	Marzo	2023-03-27T00:00:00	2024-11-08T03:00:00	7	Dirección del viento	3.22
84359	7	Sololá	704	Santa Lucía Utatlán 	7	Santa Rita 	3	Marzo	2023-03-27T00:00:00	2024-11-08T03:00:00	1	Precipitación	0
84360	7	Sololá	704	Santa Lucía Utatlán 	7	Santa Rita 	3	Marzo	2023-03-27T00:00:00	2024-11-08T03:00:00	8	Radiación solar	0
84361	7	Sololá	704	Santa Lucía Utatlán 	7	Santa Rita 	3	Marzo	2023-03-27T00:00:00	2024-11-08T04:00:00	2	Temperatura media	15.6
84362	7	Sololá	704	Santa Lucía Utatlán 	7	Santa Rita 	3	Marzo	2023-03-27T00:00:00	2024-11-08T04:00:00	4	Temperatura máxima	16.6
84363	7	Sololá	704	Santa Lucía Utatlán 	7	Santa Rita 	3	Marzo	2023-03-27T00:00:00	2024-11-08T04:00:00	3	Temperatura mínima	15.6
84364	7	Sololá	704	Santa Lucía Utatlán 	7	Santa Rita 	3	Marzo	2023-03-27T00:00:00	2024-11-08T04:00:00	5	Humedad	87
84365	7	Sololá	704	Santa Lucía Utatlán 	7	Santa Rita 	3	Marzo	2023-03-27T00:00:00	2024-11-08T04:00:00	6	Velocidad del viento	3.2
84366	7	Sololá	704	Santa Lucía Utatlán 	7	Santa Rita 	3	Marzo	2023-03-27T00:00:00	2024-11-08T04:00:00	7	Dirección del viento	3.22
84367	7	Sololá	704	Santa Lucía Utatlán 	7	Santa Rita 	3	Marzo	2023-03-27T00:00:00	2024-11-08T04:00:00	1	Precipitación	0
84368	7	Sololá	704	Santa Lucía Utatlán 	7	Santa Rita 	3	Marzo	2023-03-27T00:00:00	2024-11-08T04:00:00	8	Radiación solar	0
84369	7	Sololá	704	Santa Lucía Utatlán 	7	Santa Rita 	3	Marzo	2023-03-27T00:00:00	2024-11-08T05:00:00	2	Temperatura media	15.1
84370	7	Sololá	704	Santa Lucía Utatlán 	7	Santa Rita 	3	Marzo	2023-03-27T00:00:00	2024-11-08T05:00:00	4	Temperatura máxima	15.6
84371	7	Sololá	704	Santa Lucía Utatlán 	7	Santa Rita 	3	Marzo	2023-03-27T00:00:00	2024-11-08T05:00:00	3	Temperatura mínima	14.9
84372	7	Sololá	704	Santa Lucía Utatlán 	7	Santa Rita 	3	Marzo	2023-03-27T00:00:00	2024-11-08T05:00:00	5	Humedad	90
84373	7	Sololá	704	Santa Lucía Utatlán 	7	Santa Rita 	3	Marzo	2023-03-27T00:00:00	2024-11-08T05:00:00	6	Velocidad del viento	3.2
84374	7	Sololá	704	Santa Lucía Utatlán 	7	Santa Rita 	3	Marzo	2023-03-27T00:00:00	2024-11-08T05:00:00	7	Dirección del viento	3.22
84375	7	Sololá	704	Santa Lucía Utatlán 	7	Santa Rita 	3	Marzo	2023-03-27T00:00:00	2024-11-08T05:00:00	1	Precipitación	0
84376	7	Sololá	704	Santa Lucía Utatlán 	7	Santa Rita 	3	Marzo	2023-03-27T00:00:00	2024-11-08T05:00:00	8	Radiación solar	0
84377	7	Sololá	704	Santa Lucía Utatlán 	7	Santa Rita 	3	Marzo	2023-03-27T00:00:00	2024-11-08T06:00:00	2	Temperatura media	14.6
84378	7	Sololá	704	Santa Lucía Utatlán 	7	Santa Rita 	3	Marzo	2023-03-27T00:00:00	2024-11-08T06:00:00	4	Temperatura máxima	15.2
84379	7	Sololá	704	Santa Lucía Utatlán 	7	Santa Rita 	3	Marzo	2023-03-27T00:00:00	2024-11-08T06:00:00	3	Temperatura mínima	14.3
84380	7	Sololá	704	Santa Lucía Utatlán 	7	Santa Rita 	3	Marzo	2023-03-27T00:00:00	2024-11-08T06:00:00	5	Humedad	90
84381	7	Sololá	704	Santa Lucía Utatlán 	7	Santa Rita 	3	Marzo	2023-03-27T00:00:00	2024-11-08T06:00:00	6	Velocidad del viento	3.2
84382	7	Sololá	704	Santa Lucía Utatlán 	7	Santa Rita 	3	Marzo	2023-03-27T00:00:00	2024-11-08T06:00:00	7	Dirección del viento	3.22
84383	7	Sololá	704	Santa Lucía Utatlán 	7	Santa Rita 	3	Marzo	2023-03-27T00:00:00	2024-11-08T06:00:00	1	Precipitación	0
84384	7	Sololá	704	Santa Lucía Utatlán 	7	Santa Rita 	3	Marzo	2023-03-27T00:00:00	2024-11-08T06:00:00	8	Radiación solar	0
84385	7	Sololá	704	Santa Lucía Utatlán 	7	Santa Rita 	3	Marzo	2023-03-27T00:00:00	2024-11-08T07:00:00	2	Temperatura media	14.9
84386	7	Sololá	704	Santa Lucía Utatlán 	7	Santa Rita 	3	Marzo	2023-03-27T00:00:00	2024-11-08T07:00:00	4	Temperatura máxima	15.6
84387	7	Sololá	704	Santa Lucía Utatlán 	7	Santa Rita 	3	Marzo	2023-03-27T00:00:00	2024-11-08T07:00:00	3	Temperatura mínima	14.6
84388	7	Sololá	704	Santa Lucía Utatlán 	7	Santa Rita 	3	Marzo	2023-03-27T00:00:00	2024-11-08T07:00:00	5	Humedad	87
84389	7	Sololá	704	Santa Lucía Utatlán 	7	Santa Rita 	3	Marzo	2023-03-27T00:00:00	2024-11-08T07:00:00	6	Velocidad del viento	3.2
84390	7	Sololá	704	Santa Lucía Utatlán 	7	Santa Rita 	3	Marzo	2023-03-27T00:00:00	2024-11-08T07:00:00	7	Dirección del viento	3.22
84391	7	Sololá	704	Santa Lucía Utatlán 	7	Santa Rita 	3	Marzo	2023-03-27T00:00:00	2024-11-08T07:00:00	1	Precipitación	0
84392	7	Sololá	704	Santa Lucía Utatlán 	7	Santa Rita 	3	Marzo	2023-03-27T00:00:00	2024-11-08T07:00:00	8	Radiación solar	56
84393	7	Sololá	704	Santa Lucía Utatlán 	7	Santa Rita 	3	Marzo	2023-03-27T00:00:00	2024-11-08T08:00:00	2	Temperatura media	16.1
84394	7	Sololá	704	Santa Lucía Utatlán 	7	Santa Rita 	3	Marzo	2023-03-27T00:00:00	2024-11-08T08:00:00	4	Temperatura máxima	16.1
84395	7	Sololá	704	Santa Lucía Utatlán 	7	Santa Rita 	3	Marzo	2023-03-27T00:00:00	2024-11-08T08:00:00	3	Temperatura mínima	14.4
84396	7	Sololá	704	Santa Lucía Utatlán 	7	Santa Rita 	3	Marzo	2023-03-27T00:00:00	2024-11-08T08:00:00	5	Humedad	85
84397	7	Sololá	704	Santa Lucía Utatlán 	7	Santa Rita 	3	Marzo	2023-03-27T00:00:00	2024-11-08T08:00:00	6	Velocidad del viento	3.2
84398	7	Sololá	704	Santa Lucía Utatlán 	7	Santa Rita 	3	Marzo	2023-03-27T00:00:00	2024-11-08T08:00:00	7	Dirección del viento	3.22
84399	7	Sololá	704	Santa Lucía Utatlán 	7	Santa Rita 	3	Marzo	2023-03-27T00:00:00	2024-11-08T08:00:00	1	Precipitación	0
84400	7	Sololá	704	Santa Lucía Utatlán 	7	Santa Rita 	3	Marzo	2023-03-27T00:00:00	2024-11-08T08:00:00	8	Radiación solar	336
84401	7	Sololá	704	Santa Lucía Utatlán 	7	Santa Rita 	3	Marzo	2023-03-27T00:00:00	2024-11-08T09:00:00	2	Temperatura media	18.9
84402	7	Sololá	704	Santa Lucía Utatlán 	7	Santa Rita 	3	Marzo	2023-03-27T00:00:00	2024-11-08T09:00:00	4	Temperatura máxima	18.9
84403	7	Sololá	704	Santa Lucía Utatlán 	7	Santa Rita 	3	Marzo	2023-03-27T00:00:00	2024-11-08T09:00:00	3	Temperatura mínima	16.1
84404	7	Sololá	704	Santa Lucía Utatlán 	7	Santa Rita 	3	Marzo	2023-03-27T00:00:00	2024-11-08T09:00:00	5	Humedad	76
84405	7	Sololá	704	Santa Lucía Utatlán 	7	Santa Rita 	3	Marzo	2023-03-27T00:00:00	2024-11-08T09:00:00	6	Velocidad del viento	3.2
84406	7	Sololá	704	Santa Lucía Utatlán 	7	Santa Rita 	3	Marzo	2023-03-27T00:00:00	2024-11-08T09:00:00	7	Dirección del viento	3.22
84407	7	Sololá	704	Santa Lucía Utatlán 	7	Santa Rita 	3	Marzo	2023-03-27T00:00:00	2024-11-08T09:00:00	1	Precipitación	0
84408	7	Sololá	704	Santa Lucía Utatlán 	7	Santa Rita 	3	Marzo	2023-03-27T00:00:00	2024-11-08T09:00:00	8	Radiación solar	587
84409	7	Sololá	704	Santa Lucía Utatlán 	7	Santa Rita 	3	Marzo	2023-03-27T00:00:00	2024-11-08T10:00:00	2	Temperatura media	21.7
84410	7	Sololá	704	Santa Lucía Utatlán 	7	Santa Rita 	3	Marzo	2023-03-27T00:00:00	2024-11-08T10:00:00	4	Temperatura máxima	21.7
84411	7	Sololá	704	Santa Lucía Utatlán 	7	Santa Rita 	3	Marzo	2023-03-27T00:00:00	2024-11-08T10:00:00	3	Temperatura mínima	18.9
84412	7	Sololá	704	Santa Lucía Utatlán 	7	Santa Rita 	3	Marzo	2023-03-27T00:00:00	2024-11-08T10:00:00	5	Humedad	64
84413	7	Sololá	704	Santa Lucía Utatlán 	7	Santa Rita 	3	Marzo	2023-03-27T00:00:00	2024-11-08T10:00:00	6	Velocidad del viento	4.8
84414	7	Sololá	704	Santa Lucía Utatlán 	7	Santa Rita 	3	Marzo	2023-03-27T00:00:00	2024-11-08T10:00:00	7	Dirección del viento	4.83
84415	7	Sololá	704	Santa Lucía Utatlán 	7	Santa Rita 	3	Marzo	2023-03-27T00:00:00	2024-11-08T10:00:00	1	Precipitación	0
84416	7	Sololá	704	Santa Lucía Utatlán 	7	Santa Rita 	3	Marzo	2023-03-27T00:00:00	2024-11-08T10:00:00	8	Radiación solar	793
84417	7	Sololá	704	Santa Lucía Utatlán 	7	Santa Rita 	3	Marzo	2023-03-27T00:00:00	2024-11-08T11:00:00	2	Temperatura media	22.9
84418	7	Sololá	704	Santa Lucía Utatlán 	7	Santa Rita 	3	Marzo	2023-03-27T00:00:00	2024-11-08T11:00:00	4	Temperatura máxima	22.9
84419	7	Sololá	704	Santa Lucía Utatlán 	7	Santa Rita 	3	Marzo	2023-03-27T00:00:00	2024-11-08T11:00:00	3	Temperatura mínima	21.6
84420	7	Sololá	704	Santa Lucía Utatlán 	7	Santa Rita 	3	Marzo	2023-03-27T00:00:00	2024-11-08T11:00:00	5	Humedad	60
84421	7	Sololá	704	Santa Lucía Utatlán 	7	Santa Rita 	3	Marzo	2023-03-27T00:00:00	2024-11-08T11:00:00	6	Velocidad del viento	8
84422	7	Sololá	704	Santa Lucía Utatlán 	7	Santa Rita 	3	Marzo	2023-03-27T00:00:00	2024-11-08T11:00:00	7	Dirección del viento	8.05
84423	7	Sololá	704	Santa Lucía Utatlán 	7	Santa Rita 	3	Marzo	2023-03-27T00:00:00	2024-11-08T11:00:00	1	Precipitación	0
84424	7	Sololá	704	Santa Lucía Utatlán 	7	Santa Rita 	3	Marzo	2023-03-27T00:00:00	2024-11-08T11:00:00	8	Radiación solar	943
84425	7	Sololá	704	Santa Lucía Utatlán 	7	Santa Rita 	3	Marzo	2023-03-27T00:00:00	2024-11-08T12:00:00	2	Temperatura media	23.6
84426	7	Sololá	704	Santa Lucía Utatlán 	7	Santa Rita 	3	Marzo	2023-03-27T00:00:00	2024-11-08T12:00:00	4	Temperatura máxima	23.7
84427	7	Sololá	704	Santa Lucía Utatlán 	7	Santa Rita 	3	Marzo	2023-03-27T00:00:00	2024-11-08T12:00:00	3	Temperatura mínima	22.6
84428	7	Sololá	704	Santa Lucía Utatlán 	7	Santa Rita 	3	Marzo	2023-03-27T00:00:00	2024-11-08T12:00:00	5	Humedad	56
84429	7	Sololá	704	Santa Lucía Utatlán 	7	Santa Rita 	3	Marzo	2023-03-27T00:00:00	2024-11-08T12:00:00	6	Velocidad del viento	11.3
84430	7	Sololá	704	Santa Lucía Utatlán 	7	Santa Rita 	3	Marzo	2023-03-27T00:00:00	2024-11-08T12:00:00	7	Dirección del viento	11.27
84431	7	Sololá	704	Santa Lucía Utatlán 	7	Santa Rita 	3	Marzo	2023-03-27T00:00:00	2024-11-08T12:00:00	1	Precipitación	0
84432	7	Sololá	704	Santa Lucía Utatlán 	7	Santa Rita 	3	Marzo	2023-03-27T00:00:00	2024-11-08T12:00:00	8	Radiación solar	1027
84433	7	Sololá	704	Santa Lucía Utatlán 	7	Santa Rita 	3	Marzo	2023-03-27T00:00:00	2024-11-08T13:00:00	2	Temperatura media	24.4
84434	7	Sololá	704	Santa Lucía Utatlán 	7	Santa Rita 	3	Marzo	2023-03-27T00:00:00	2024-11-08T13:00:00	4	Temperatura máxima	24.6
84435	7	Sololá	704	Santa Lucía Utatlán 	7	Santa Rita 	3	Marzo	2023-03-27T00:00:00	2024-11-08T13:00:00	3	Temperatura mínima	23.5
84436	7	Sololá	704	Santa Lucía Utatlán 	7	Santa Rita 	3	Marzo	2023-03-27T00:00:00	2024-11-08T13:00:00	5	Humedad	52
84437	7	Sololá	704	Santa Lucía Utatlán 	7	Santa Rita 	3	Marzo	2023-03-27T00:00:00	2024-11-08T13:00:00	6	Velocidad del viento	11.3
84438	7	Sololá	704	Santa Lucía Utatlán 	7	Santa Rita 	3	Marzo	2023-03-27T00:00:00	2024-11-08T13:00:00	7	Dirección del viento	11.27
84439	7	Sololá	704	Santa Lucía Utatlán 	7	Santa Rita 	3	Marzo	2023-03-27T00:00:00	2024-11-08T13:00:00	1	Precipitación	0
84440	7	Sololá	704	Santa Lucía Utatlán 	7	Santa Rita 	3	Marzo	2023-03-27T00:00:00	2024-11-08T13:00:00	8	Radiación solar	1047
84441	7	Sololá	704	Santa Lucía Utatlán 	7	Santa Rita 	3	Marzo	2023-03-27T00:00:00	2024-11-08T14:00:00	2	Temperatura media	25.4
84442	7	Sololá	704	Santa Lucía Utatlán 	7	Santa Rita 	3	Marzo	2023-03-27T00:00:00	2024-11-08T14:00:00	4	Temperatura máxima	25.6
84443	7	Sololá	704	Santa Lucía Utatlán 	7	Santa Rita 	3	Marzo	2023-03-27T00:00:00	2024-11-08T14:00:00	3	Temperatura mínima	23.8
84444	7	Sololá	704	Santa Lucía Utatlán 	7	Santa Rita 	3	Marzo	2023-03-27T00:00:00	2024-11-08T14:00:00	5	Humedad	50
84445	7	Sololá	704	Santa Lucía Utatlán 	7	Santa Rita 	3	Marzo	2023-03-27T00:00:00	2024-11-08T14:00:00	6	Velocidad del viento	11.3
84446	7	Sololá	704	Santa Lucía Utatlán 	7	Santa Rita 	3	Marzo	2023-03-27T00:00:00	2024-11-08T14:00:00	7	Dirección del viento	11.27
84447	7	Sololá	704	Santa Lucía Utatlán 	7	Santa Rita 	3	Marzo	2023-03-27T00:00:00	2024-11-08T14:00:00	1	Precipitación	0
84448	7	Sololá	704	Santa Lucía Utatlán 	7	Santa Rita 	3	Marzo	2023-03-27T00:00:00	2024-11-08T14:00:00	8	Radiación solar	892
84449	7	Sololá	704	Santa Lucía Utatlán 	7	Santa Rita 	3	Marzo	2023-03-27T00:00:00	2024-11-08T15:00:00	2	Temperatura media	23.7
84450	7	Sololá	704	Santa Lucía Utatlán 	7	Santa Rita 	3	Marzo	2023-03-27T00:00:00	2024-11-08T15:00:00	4	Temperatura máxima	25.4
84451	7	Sololá	704	Santa Lucía Utatlán 	7	Santa Rita 	3	Marzo	2023-03-27T00:00:00	2024-11-08T15:00:00	3	Temperatura mínima	23.7
84452	7	Sololá	704	Santa Lucía Utatlán 	7	Santa Rita 	3	Marzo	2023-03-27T00:00:00	2024-11-08T15:00:00	5	Humedad	69
84453	7	Sololá	704	Santa Lucía Utatlán 	7	Santa Rita 	3	Marzo	2023-03-27T00:00:00	2024-11-08T15:00:00	6	Velocidad del viento	9.7
84454	7	Sololá	704	Santa Lucía Utatlán 	7	Santa Rita 	3	Marzo	2023-03-27T00:00:00	2024-11-08T15:00:00	7	Dirección del viento	9.66
84455	7	Sololá	704	Santa Lucía Utatlán 	7	Santa Rita 	3	Marzo	2023-03-27T00:00:00	2024-11-08T15:00:00	1	Precipitación	0
84456	7	Sololá	704	Santa Lucía Utatlán 	7	Santa Rita 	3	Marzo	2023-03-27T00:00:00	2024-11-08T15:00:00	8	Radiación solar	220
84457	7	Sololá	704	Santa Lucía Utatlán 	7	Santa Rita 	3	Marzo	2023-03-27T00:00:00	2024-11-08T16:00:00	2	Temperatura media	23
84458	7	Sololá	704	Santa Lucía Utatlán 	7	Santa Rita 	3	Marzo	2023-03-27T00:00:00	2024-11-08T16:00:00	4	Temperatura máxima	23.8
84459	7	Sololá	704	Santa Lucía Utatlán 	7	Santa Rita 	3	Marzo	2023-03-27T00:00:00	2024-11-08T16:00:00	3	Temperatura mínima	22.6
84460	7	Sololá	704	Santa Lucía Utatlán 	7	Santa Rita 	3	Marzo	2023-03-27T00:00:00	2024-11-08T16:00:00	5	Humedad	72
84461	7	Sololá	704	Santa Lucía Utatlán 	7	Santa Rita 	3	Marzo	2023-03-27T00:00:00	2024-11-08T16:00:00	6	Velocidad del viento	6.4
84462	7	Sololá	704	Santa Lucía Utatlán 	7	Santa Rita 	3	Marzo	2023-03-27T00:00:00	2024-11-08T16:00:00	7	Dirección del viento	6.44
84463	7	Sololá	704	Santa Lucía Utatlán 	7	Santa Rita 	3	Marzo	2023-03-27T00:00:00	2024-11-08T16:00:00	1	Precipitación	0
84464	7	Sololá	704	Santa Lucía Utatlán 	7	Santa Rita 	3	Marzo	2023-03-27T00:00:00	2024-11-08T16:00:00	8	Radiación solar	343
84465	7	Sololá	704	Santa Lucía Utatlán 	7	Santa Rita 	3	Marzo	2023-03-27T00:00:00	2024-11-08T17:00:00	2	Temperatura media	23.3
84466	7	Sololá	704	Santa Lucía Utatlán 	7	Santa Rita 	3	Marzo	2023-03-27T00:00:00	2024-11-08T17:00:00	4	Temperatura máxima	23.4
84467	7	Sololá	704	Santa Lucía Utatlán 	7	Santa Rita 	3	Marzo	2023-03-27T00:00:00	2024-11-08T17:00:00	3	Temperatura mínima	22.7
84468	7	Sololá	704	Santa Lucía Utatlán 	7	Santa Rita 	3	Marzo	2023-03-27T00:00:00	2024-11-08T17:00:00	5	Humedad	71
84469	7	Sololá	704	Santa Lucía Utatlán 	7	Santa Rita 	3	Marzo	2023-03-27T00:00:00	2024-11-08T17:00:00	6	Velocidad del viento	6.4
84470	7	Sololá	704	Santa Lucía Utatlán 	7	Santa Rita 	3	Marzo	2023-03-27T00:00:00	2024-11-08T17:00:00	7	Dirección del viento	6.44
84471	7	Sololá	704	Santa Lucía Utatlán 	7	Santa Rita 	3	Marzo	2023-03-27T00:00:00	2024-11-08T17:00:00	1	Precipitación	0
84472	7	Sololá	704	Santa Lucía Utatlán 	7	Santa Rita 	3	Marzo	2023-03-27T00:00:00	2024-11-08T17:00:00	8	Radiación solar	236
84473	7	Sololá	704	Santa Lucía Utatlán 	7	Santa Rita 	3	Marzo	2023-03-27T00:00:00	2024-11-08T18:00:00	2	Temperatura media	21.6
84474	7	Sololá	704	Santa Lucía Utatlán 	7	Santa Rita 	3	Marzo	2023-03-27T00:00:00	2024-11-08T18:00:00	4	Temperatura máxima	23.4
84475	7	Sololá	704	Santa Lucía Utatlán 	7	Santa Rita 	3	Marzo	2023-03-27T00:00:00	2024-11-08T18:00:00	3	Temperatura mínima	21.6
84476	7	Sololá	704	Santa Lucía Utatlán 	7	Santa Rita 	3	Marzo	2023-03-27T00:00:00	2024-11-08T18:00:00	5	Humedad	79
84477	7	Sololá	704	Santa Lucía Utatlán 	7	Santa Rita 	3	Marzo	2023-03-27T00:00:00	2024-11-08T18:00:00	6	Velocidad del viento	6.4
84478	7	Sololá	704	Santa Lucía Utatlán 	7	Santa Rita 	3	Marzo	2023-03-27T00:00:00	2024-11-08T18:00:00	7	Dirección del viento	6.44
84479	7	Sololá	704	Santa Lucía Utatlán 	7	Santa Rita 	3	Marzo	2023-03-27T00:00:00	2024-11-08T18:00:00	1	Precipitación	0
84480	7	Sololá	704	Santa Lucía Utatlán 	7	Santa Rita 	3	Marzo	2023-03-27T00:00:00	2024-11-08T18:00:00	8	Radiación solar	51
84481	7	Sololá	704	Santa Lucía Utatlán 	7	Santa Rita 	3	Marzo	2023-03-27T00:00:00	2024-11-08T19:00:00	2	Temperatura media	20.3
84482	7	Sololá	704	Santa Lucía Utatlán 	7	Santa Rita 	3	Marzo	2023-03-27T00:00:00	2024-11-08T19:00:00	4	Temperatura máxima	21.7
84483	7	Sololá	704	Santa Lucía Utatlán 	7	Santa Rita 	3	Marzo	2023-03-27T00:00:00	2024-11-08T19:00:00	3	Temperatura mínima	20.3
84484	7	Sololá	704	Santa Lucía Utatlán 	7	Santa Rita 	3	Marzo	2023-03-27T00:00:00	2024-11-08T19:00:00	5	Humedad	85
84485	7	Sololá	704	Santa Lucía Utatlán 	7	Santa Rita 	3	Marzo	2023-03-27T00:00:00	2024-11-08T19:00:00	6	Velocidad del viento	4.8
84486	7	Sololá	704	Santa Lucía Utatlán 	7	Santa Rita 	3	Marzo	2023-03-27T00:00:00	2024-11-08T19:00:00	7	Dirección del viento	4.83
84487	7	Sololá	704	Santa Lucía Utatlán 	7	Santa Rita 	3	Marzo	2023-03-27T00:00:00	2024-11-08T19:00:00	1	Precipitación	0
84488	7	Sololá	704	Santa Lucía Utatlán 	7	Santa Rita 	3	Marzo	2023-03-27T00:00:00	2024-11-08T19:00:00	8	Radiación solar	0
84489	7	Sololá	704	Santa Lucía Utatlán 	7	Santa Rita 	3	Marzo	2023-03-27T00:00:00	2024-11-08T20:00:00	2	Temperatura media	19.9
84490	7	Sololá	704	Santa Lucía Utatlán 	7	Santa Rita 	3	Marzo	2023-03-27T00:00:00	2024-11-08T20:00:00	4	Temperatura máxima	20.3
84491	7	Sololá	704	Santa Lucía Utatlán 	7	Santa Rita 	3	Marzo	2023-03-27T00:00:00	2024-11-08T20:00:00	3	Temperatura mínima	19.9
84492	7	Sololá	704	Santa Lucía Utatlán 	7	Santa Rita 	3	Marzo	2023-03-27T00:00:00	2024-11-08T20:00:00	5	Humedad	88
84493	7	Sololá	704	Santa Lucía Utatlán 	7	Santa Rita 	3	Marzo	2023-03-27T00:00:00	2024-11-08T20:00:00	6	Velocidad del viento	0
84494	7	Sololá	704	Santa Lucía Utatlán 	7	Santa Rita 	3	Marzo	2023-03-27T00:00:00	2024-11-08T20:00:00	7	Dirección del viento	0
84495	7	Sololá	704	Santa Lucía Utatlán 	7	Santa Rita 	3	Marzo	2023-03-27T00:00:00	2024-11-08T20:00:00	1	Precipitación	0
84496	7	Sololá	704	Santa Lucía Utatlán 	7	Santa Rita 	3	Marzo	2023-03-27T00:00:00	2024-11-08T20:00:00	8	Radiación solar	0
84497	7	Sololá	704	Santa Lucía Utatlán 	7	Santa Rita 	3	Marzo	2023-03-27T00:00:00	2024-11-08T21:00:00	2	Temperatura media	18.2
84498	7	Sololá	704	Santa Lucía Utatlán 	7	Santa Rita 	3	Marzo	2023-03-27T00:00:00	2024-11-08T21:00:00	4	Temperatura máxima	19.9
84499	7	Sololá	704	Santa Lucía Utatlán 	7	Santa Rita 	3	Marzo	2023-03-27T00:00:00	2024-11-08T21:00:00	3	Temperatura mínima	18.2
84500	7	Sololá	704	Santa Lucía Utatlán 	7	Santa Rita 	3	Marzo	2023-03-27T00:00:00	2024-11-08T21:00:00	5	Humedad	85
84501	7	Sololá	704	Santa Lucía Utatlán 	7	Santa Rita 	3	Marzo	2023-03-27T00:00:00	2024-11-08T21:00:00	6	Velocidad del viento	1.6
84502	7	Sololá	704	Santa Lucía Utatlán 	7	Santa Rita 	3	Marzo	2023-03-27T00:00:00	2024-11-08T21:00:00	7	Dirección del viento	1.61
84503	7	Sololá	704	Santa Lucía Utatlán 	7	Santa Rita 	3	Marzo	2023-03-27T00:00:00	2024-11-08T21:00:00	1	Precipitación	0
84504	7	Sololá	704	Santa Lucía Utatlán 	7	Santa Rita 	3	Marzo	2023-03-27T00:00:00	2024-11-08T21:00:00	8	Radiación solar	0
84505	7	Sololá	704	Santa Lucía Utatlán 	7	Santa Rita 	3	Marzo	2023-03-27T00:00:00	2024-11-08T22:00:00	2	Temperatura media	17.4
84506	7	Sololá	704	Santa Lucía Utatlán 	7	Santa Rita 	3	Marzo	2023-03-27T00:00:00	2024-11-08T22:00:00	4	Temperatura máxima	18.1
84507	7	Sololá	704	Santa Lucía Utatlán 	7	Santa Rita 	3	Marzo	2023-03-27T00:00:00	2024-11-08T22:00:00	3	Temperatura mínima	17.4
84508	7	Sololá	704	Santa Lucía Utatlán 	7	Santa Rita 	3	Marzo	2023-03-27T00:00:00	2024-11-08T22:00:00	5	Humedad	83
84509	7	Sololá	704	Santa Lucía Utatlán 	7	Santa Rita 	3	Marzo	2023-03-27T00:00:00	2024-11-08T22:00:00	6	Velocidad del viento	3.2
84510	7	Sololá	704	Santa Lucía Utatlán 	7	Santa Rita 	3	Marzo	2023-03-27T00:00:00	2024-11-08T22:00:00	7	Dirección del viento	3.22
84511	7	Sololá	704	Santa Lucía Utatlán 	7	Santa Rita 	3	Marzo	2023-03-27T00:00:00	2024-11-08T22:00:00	1	Precipitación	0
84512	7	Sololá	704	Santa Lucía Utatlán 	7	Santa Rita 	3	Marzo	2023-03-27T00:00:00	2024-11-08T22:00:00	8	Radiación solar	0
84513	7	Sololá	704	Santa Lucía Utatlán 	7	Santa Rita 	3	Marzo	2023-03-27T00:00:00	2024-11-08T23:00:00	2	Temperatura media	17.8
84514	7	Sololá	704	Santa Lucía Utatlán 	7	Santa Rita 	3	Marzo	2023-03-27T00:00:00	2024-11-08T23:00:00	4	Temperatura máxima	17.9
84515	7	Sololá	704	Santa Lucía Utatlán 	7	Santa Rita 	3	Marzo	2023-03-27T00:00:00	2024-11-08T23:00:00	3	Temperatura mínima	17.4
84516	7	Sololá	704	Santa Lucía Utatlán 	7	Santa Rita 	3	Marzo	2023-03-27T00:00:00	2024-11-08T23:00:00	5	Humedad	84
84517	7	Sololá	704	Santa Lucía Utatlán 	7	Santa Rita 	3	Marzo	2023-03-27T00:00:00	2024-11-08T23:00:00	6	Velocidad del viento	1.6
84518	7	Sololá	704	Santa Lucía Utatlán 	7	Santa Rita 	3	Marzo	2023-03-27T00:00:00	2024-11-08T23:00:00	7	Dirección del viento	1.61
84519	7	Sololá	704	Santa Lucía Utatlán 	7	Santa Rita 	3	Marzo	2023-03-27T00:00:00	2024-11-08T23:00:00	1	Precipitación	0
84520	7	Sololá	704	Santa Lucía Utatlán 	7	Santa Rita 	3	Marzo	2023-03-27T00:00:00	2024-11-08T23:00:00	8	Radiación solar	0
84521	7	Sololá	704	Santa Lucía Utatlán 	7	Santa Rita 	3	Marzo	2023-03-28T00:00:00	2024-11-08T00:00:00	2	Temperatura media	17.2
84522	7	Sololá	704	Santa Lucía Utatlán 	7	Santa Rita 	3	Marzo	2023-03-28T00:00:00	2024-11-08T00:00:00	4	Temperatura máxima	17.8
84523	7	Sololá	704	Santa Lucía Utatlán 	7	Santa Rita 	3	Marzo	2023-03-28T00:00:00	2024-11-08T00:00:00	3	Temperatura mínima	17.2
84524	7	Sololá	704	Santa Lucía Utatlán 	7	Santa Rita 	3	Marzo	2023-03-28T00:00:00	2024-11-08T00:00:00	5	Humedad	82
84525	7	Sololá	704	Santa Lucía Utatlán 	7	Santa Rita 	3	Marzo	2023-03-28T00:00:00	2024-11-08T00:00:00	6	Velocidad del viento	3.2
84526	7	Sololá	704	Santa Lucía Utatlán 	7	Santa Rita 	3	Marzo	2023-03-28T00:00:00	2024-11-08T00:00:00	7	Dirección del viento	3.22
84527	7	Sololá	704	Santa Lucía Utatlán 	7	Santa Rita 	3	Marzo	2023-03-28T00:00:00	2024-11-08T00:00:00	1	Precipitación	0
84528	7	Sololá	704	Santa Lucía Utatlán 	7	Santa Rita 	3	Marzo	2023-03-28T00:00:00	2024-11-08T00:00:00	8	Radiación solar	0
84529	7	Sololá	704	Santa Lucía Utatlán 	7	Santa Rita 	3	Marzo	2023-03-28T00:00:00	2024-11-08T01:00:00	2	Temperatura media	16.5
84530	7	Sololá	704	Santa Lucía Utatlán 	7	Santa Rita 	3	Marzo	2023-03-28T00:00:00	2024-11-08T01:00:00	4	Temperatura máxima	17.3
84531	7	Sololá	704	Santa Lucía Utatlán 	7	Santa Rita 	3	Marzo	2023-03-28T00:00:00	2024-11-08T01:00:00	3	Temperatura mínima	16.5
84532	7	Sololá	704	Santa Lucía Utatlán 	7	Santa Rita 	3	Marzo	2023-03-28T00:00:00	2024-11-08T01:00:00	5	Humedad	81
84533	7	Sololá	704	Santa Lucía Utatlán 	7	Santa Rita 	3	Marzo	2023-03-28T00:00:00	2024-11-08T01:00:00	6	Velocidad del viento	3.2
84534	7	Sololá	704	Santa Lucía Utatlán 	7	Santa Rita 	3	Marzo	2023-03-28T00:00:00	2024-11-08T01:00:00	7	Dirección del viento	3.22
84535	7	Sololá	704	Santa Lucía Utatlán 	7	Santa Rita 	3	Marzo	2023-03-28T00:00:00	2024-11-08T01:00:00	1	Precipitación	0
84536	7	Sololá	704	Santa Lucía Utatlán 	7	Santa Rita 	3	Marzo	2023-03-28T00:00:00	2024-11-08T01:00:00	8	Radiación solar	0
84537	7	Sololá	704	Santa Lucía Utatlán 	7	Santa Rita 	3	Marzo	2023-03-28T00:00:00	2024-11-08T02:00:00	2	Temperatura media	16.1
84538	7	Sololá	704	Santa Lucía Utatlán 	7	Santa Rita 	3	Marzo	2023-03-28T00:00:00	2024-11-08T02:00:00	4	Temperatura máxima	16.7
84539	7	Sololá	704	Santa Lucía Utatlán 	7	Santa Rita 	3	Marzo	2023-03-28T00:00:00	2024-11-08T02:00:00	3	Temperatura mínima	16
84540	7	Sololá	704	Santa Lucía Utatlán 	7	Santa Rita 	3	Marzo	2023-03-28T00:00:00	2024-11-08T02:00:00	5	Humedad	81
84541	7	Sololá	704	Santa Lucía Utatlán 	7	Santa Rita 	3	Marzo	2023-03-28T00:00:00	2024-11-08T02:00:00	6	Velocidad del viento	3.2
84542	7	Sololá	704	Santa Lucía Utatlán 	7	Santa Rita 	3	Marzo	2023-03-28T00:00:00	2024-11-08T02:00:00	7	Dirección del viento	3.22
84543	7	Sololá	704	Santa Lucía Utatlán 	7	Santa Rita 	3	Marzo	2023-03-28T00:00:00	2024-11-08T02:00:00	1	Precipitación	0
84544	7	Sololá	704	Santa Lucía Utatlán 	7	Santa Rita 	3	Marzo	2023-03-28T00:00:00	2024-11-08T02:00:00	8	Radiación solar	0
84545	7	Sololá	704	Santa Lucía Utatlán 	7	Santa Rita 	3	Marzo	2023-03-28T00:00:00	2024-11-08T03:00:00	2	Temperatura media	15.5
84546	7	Sololá	704	Santa Lucía Utatlán 	7	Santa Rita 	3	Marzo	2023-03-28T00:00:00	2024-11-08T03:00:00	4	Temperatura máxima	16.4
84547	7	Sololá	704	Santa Lucía Utatlán 	7	Santa Rita 	3	Marzo	2023-03-28T00:00:00	2024-11-08T03:00:00	3	Temperatura mínima	15.5
84548	7	Sololá	704	Santa Lucía Utatlán 	7	Santa Rita 	3	Marzo	2023-03-28T00:00:00	2024-11-08T03:00:00	5	Humedad	84
84549	7	Sololá	704	Santa Lucía Utatlán 	7	Santa Rita 	3	Marzo	2023-03-28T00:00:00	2024-11-08T03:00:00	6	Velocidad del viento	3.2
84550	7	Sololá	704	Santa Lucía Utatlán 	7	Santa Rita 	3	Marzo	2023-03-28T00:00:00	2024-11-08T03:00:00	7	Dirección del viento	3.22
84551	7	Sololá	704	Santa Lucía Utatlán 	7	Santa Rita 	3	Marzo	2023-03-28T00:00:00	2024-11-08T03:00:00	1	Precipitación	0
84552	7	Sololá	704	Santa Lucía Utatlán 	7	Santa Rita 	3	Marzo	2023-03-28T00:00:00	2024-11-08T03:00:00	8	Radiación solar	0
84553	7	Sololá	704	Santa Lucía Utatlán 	7	Santa Rita 	3	Marzo	2023-03-28T00:00:00	2024-11-08T04:00:00	2	Temperatura media	16.3
84554	7	Sololá	704	Santa Lucía Utatlán 	7	Santa Rita 	3	Marzo	2023-03-28T00:00:00	2024-11-08T04:00:00	4	Temperatura máxima	16.5
84555	7	Sololá	704	Santa Lucía Utatlán 	7	Santa Rita 	3	Marzo	2023-03-28T00:00:00	2024-11-08T04:00:00	3	Temperatura mínima	15.5
84556	7	Sololá	704	Santa Lucía Utatlán 	7	Santa Rita 	3	Marzo	2023-03-28T00:00:00	2024-11-08T04:00:00	5	Humedad	82
84557	7	Sololá	704	Santa Lucía Utatlán 	7	Santa Rita 	3	Marzo	2023-03-28T00:00:00	2024-11-08T04:00:00	6	Velocidad del viento	3.2
84558	7	Sololá	704	Santa Lucía Utatlán 	7	Santa Rita 	3	Marzo	2023-03-28T00:00:00	2024-11-08T04:00:00	7	Dirección del viento	3.22
84559	7	Sololá	704	Santa Lucía Utatlán 	7	Santa Rita 	3	Marzo	2023-03-28T00:00:00	2024-11-08T04:00:00	1	Precipitación	0
84560	7	Sololá	704	Santa Lucía Utatlán 	7	Santa Rita 	3	Marzo	2023-03-28T00:00:00	2024-11-08T04:00:00	8	Radiación solar	0
84561	7	Sololá	704	Santa Lucía Utatlán 	7	Santa Rita 	3	Marzo	2023-03-28T00:00:00	2024-11-08T05:00:00	2	Temperatura media	15.9
84562	7	Sololá	704	Santa Lucía Utatlán 	7	Santa Rita 	3	Marzo	2023-03-28T00:00:00	2024-11-08T05:00:00	4	Temperatura máxima	16.7
84563	7	Sololá	704	Santa Lucía Utatlán 	7	Santa Rita 	3	Marzo	2023-03-28T00:00:00	2024-11-08T05:00:00	3	Temperatura mínima	15.9
84564	7	Sololá	704	Santa Lucía Utatlán 	7	Santa Rita 	3	Marzo	2023-03-28T00:00:00	2024-11-08T05:00:00	5	Humedad	87
84565	7	Sololá	704	Santa Lucía Utatlán 	7	Santa Rita 	3	Marzo	2023-03-28T00:00:00	2024-11-08T05:00:00	6	Velocidad del viento	3.2
84566	7	Sololá	704	Santa Lucía Utatlán 	7	Santa Rita 	3	Marzo	2023-03-28T00:00:00	2024-11-08T05:00:00	7	Dirección del viento	3.22
84567	7	Sololá	704	Santa Lucía Utatlán 	7	Santa Rita 	3	Marzo	2023-03-28T00:00:00	2024-11-08T05:00:00	1	Precipitación	0
84568	7	Sololá	704	Santa Lucía Utatlán 	7	Santa Rita 	3	Marzo	2023-03-28T00:00:00	2024-11-08T05:00:00	8	Radiación solar	0
84569	7	Sololá	704	Santa Lucía Utatlán 	7	Santa Rita 	3	Marzo	2023-03-28T00:00:00	2024-11-08T06:00:00	2	Temperatura media	16.2
84570	7	Sololá	704	Santa Lucía Utatlán 	7	Santa Rita 	3	Marzo	2023-03-28T00:00:00	2024-11-08T06:00:00	4	Temperatura máxima	16.3
84571	7	Sololá	704	Santa Lucía Utatlán 	7	Santa Rita 	3	Marzo	2023-03-28T00:00:00	2024-11-08T06:00:00	3	Temperatura mínima	15.9
84572	7	Sololá	704	Santa Lucía Utatlán 	7	Santa Rita 	3	Marzo	2023-03-28T00:00:00	2024-11-08T06:00:00	5	Humedad	85
84573	7	Sololá	704	Santa Lucía Utatlán 	7	Santa Rita 	3	Marzo	2023-03-28T00:00:00	2024-11-08T06:00:00	6	Velocidad del viento	4.8
84574	7	Sololá	704	Santa Lucía Utatlán 	7	Santa Rita 	3	Marzo	2023-03-28T00:00:00	2024-11-08T06:00:00	7	Dirección del viento	4.83
84575	7	Sololá	704	Santa Lucía Utatlán 	7	Santa Rita 	3	Marzo	2023-03-28T00:00:00	2024-11-08T06:00:00	1	Precipitación	0
84576	7	Sololá	704	Santa Lucía Utatlán 	7	Santa Rita 	3	Marzo	2023-03-28T00:00:00	2024-11-08T06:00:00	8	Radiación solar	0
84577	7	Sololá	704	Santa Lucía Utatlán 	7	Santa Rita 	3	Marzo	2023-03-28T00:00:00	2024-11-08T07:00:00	2	Temperatura media	15.8
84578	7	Sololá	704	Santa Lucía Utatlán 	7	Santa Rita 	3	Marzo	2023-03-28T00:00:00	2024-11-08T07:00:00	4	Temperatura máxima	16.3
84579	7	Sololá	704	Santa Lucía Utatlán 	7	Santa Rita 	3	Marzo	2023-03-28T00:00:00	2024-11-08T07:00:00	3	Temperatura mínima	15.7
84580	7	Sololá	704	Santa Lucía Utatlán 	7	Santa Rita 	3	Marzo	2023-03-28T00:00:00	2024-11-08T07:00:00	5	Humedad	88
84581	7	Sololá	704	Santa Lucía Utatlán 	7	Santa Rita 	3	Marzo	2023-03-28T00:00:00	2024-11-08T07:00:00	6	Velocidad del viento	1.6
84582	7	Sololá	704	Santa Lucía Utatlán 	7	Santa Rita 	3	Marzo	2023-03-28T00:00:00	2024-11-08T07:00:00	7	Dirección del viento	1.61
84583	7	Sololá	704	Santa Lucía Utatlán 	7	Santa Rita 	3	Marzo	2023-03-28T00:00:00	2024-11-08T07:00:00	1	Precipitación	0
84584	7	Sololá	704	Santa Lucía Utatlán 	7	Santa Rita 	3	Marzo	2023-03-28T00:00:00	2024-11-08T07:00:00	8	Radiación solar	62
84585	7	Sololá	704	Santa Lucía Utatlán 	7	Santa Rita 	3	Marzo	2023-03-28T00:00:00	2024-11-08T08:00:00	2	Temperatura media	17.6
84586	7	Sololá	704	Santa Lucía Utatlán 	7	Santa Rita 	3	Marzo	2023-03-28T00:00:00	2024-11-08T08:00:00	4	Temperatura máxima	17.6
84587	7	Sololá	704	Santa Lucía Utatlán 	7	Santa Rita 	3	Marzo	2023-03-28T00:00:00	2024-11-08T08:00:00	3	Temperatura mínima	15.6
84588	7	Sololá	704	Santa Lucía Utatlán 	7	Santa Rita 	3	Marzo	2023-03-28T00:00:00	2024-11-08T08:00:00	5	Humedad	85
84589	7	Sololá	704	Santa Lucía Utatlán 	7	Santa Rita 	3	Marzo	2023-03-28T00:00:00	2024-11-08T08:00:00	6	Velocidad del viento	3.2
84590	7	Sololá	704	Santa Lucía Utatlán 	7	Santa Rita 	3	Marzo	2023-03-28T00:00:00	2024-11-08T08:00:00	7	Dirección del viento	3.22
84591	7	Sololá	704	Santa Lucía Utatlán 	7	Santa Rita 	3	Marzo	2023-03-28T00:00:00	2024-11-08T08:00:00	1	Precipitación	0
84592	7	Sololá	704	Santa Lucía Utatlán 	7	Santa Rita 	3	Marzo	2023-03-28T00:00:00	2024-11-08T08:00:00	8	Radiación solar	336
84593	7	Sololá	704	Santa Lucía Utatlán 	7	Santa Rita 	3	Marzo	2023-03-28T00:00:00	2024-11-08T09:00:00	2	Temperatura media	19.9
84594	7	Sololá	704	Santa Lucía Utatlán 	7	Santa Rita 	3	Marzo	2023-03-28T00:00:00	2024-11-08T09:00:00	4	Temperatura máxima	20.1
84595	7	Sololá	704	Santa Lucía Utatlán 	7	Santa Rita 	3	Marzo	2023-03-28T00:00:00	2024-11-08T09:00:00	3	Temperatura mínima	17.6
84596	7	Sololá	704	Santa Lucía Utatlán 	7	Santa Rita 	3	Marzo	2023-03-28T00:00:00	2024-11-08T09:00:00	5	Humedad	78
84597	7	Sololá	704	Santa Lucía Utatlán 	7	Santa Rita 	3	Marzo	2023-03-28T00:00:00	2024-11-08T09:00:00	6	Velocidad del viento	3.2
84598	7	Sololá	704	Santa Lucía Utatlán 	7	Santa Rita 	3	Marzo	2023-03-28T00:00:00	2024-11-08T09:00:00	7	Dirección del viento	3.22
84599	7	Sololá	704	Santa Lucía Utatlán 	7	Santa Rita 	3	Marzo	2023-03-28T00:00:00	2024-11-08T09:00:00	1	Precipitación	0
84600	7	Sololá	704	Santa Lucía Utatlán 	7	Santa Rita 	3	Marzo	2023-03-28T00:00:00	2024-11-08T09:00:00	8	Radiación solar	645
84601	7	Sololá	704	Santa Lucía Utatlán 	7	Santa Rita 	3	Marzo	2023-03-28T00:00:00	2024-11-08T10:00:00	2	Temperatura media	22.2
84602	7	Sololá	704	Santa Lucía Utatlán 	7	Santa Rita 	3	Marzo	2023-03-28T00:00:00	2024-11-08T10:00:00	4	Temperatura máxima	22.2
84603	7	Sololá	704	Santa Lucía Utatlán 	7	Santa Rita 	3	Marzo	2023-03-28T00:00:00	2024-11-08T10:00:00	3	Temperatura mínima	19.9
84604	7	Sololá	704	Santa Lucía Utatlán 	7	Santa Rita 	3	Marzo	2023-03-28T00:00:00	2024-11-08T10:00:00	5	Humedad	64
84605	7	Sololá	704	Santa Lucía Utatlán 	7	Santa Rita 	3	Marzo	2023-03-28T00:00:00	2024-11-08T10:00:00	6	Velocidad del viento	4.8
84606	7	Sololá	704	Santa Lucía Utatlán 	7	Santa Rita 	3	Marzo	2023-03-28T00:00:00	2024-11-08T10:00:00	7	Dirección del viento	4.83
84607	7	Sololá	704	Santa Lucía Utatlán 	7	Santa Rita 	3	Marzo	2023-03-28T00:00:00	2024-11-08T10:00:00	1	Precipitación	0
84608	7	Sololá	704	Santa Lucía Utatlán 	7	Santa Rita 	3	Marzo	2023-03-28T00:00:00	2024-11-08T10:00:00	8	Radiación solar	798
84609	7	Sololá	704	Santa Lucía Utatlán 	7	Santa Rita 	3	Marzo	2023-03-28T00:00:00	2024-11-08T11:00:00	2	Temperatura media	23.8
84610	7	Sololá	704	Santa Lucía Utatlán 	7	Santa Rita 	3	Marzo	2023-03-28T00:00:00	2024-11-08T11:00:00	4	Temperatura máxima	23.9
84611	7	Sololá	704	Santa Lucía Utatlán 	7	Santa Rita 	3	Marzo	2023-03-28T00:00:00	2024-11-08T11:00:00	3	Temperatura mínima	22.2
84612	7	Sololá	704	Santa Lucía Utatlán 	7	Santa Rita 	3	Marzo	2023-03-28T00:00:00	2024-11-08T11:00:00	5	Humedad	53
84613	7	Sololá	704	Santa Lucía Utatlán 	7	Santa Rita 	3	Marzo	2023-03-28T00:00:00	2024-11-08T11:00:00	6	Velocidad del viento	8
84614	7	Sololá	704	Santa Lucía Utatlán 	7	Santa Rita 	3	Marzo	2023-03-28T00:00:00	2024-11-08T11:00:00	7	Dirección del viento	8.05
84615	7	Sololá	704	Santa Lucía Utatlán 	7	Santa Rita 	3	Marzo	2023-03-28T00:00:00	2024-11-08T11:00:00	1	Precipitación	0
84616	7	Sololá	704	Santa Lucía Utatlán 	7	Santa Rita 	3	Marzo	2023-03-28T00:00:00	2024-11-08T11:00:00	8	Radiación solar	947
84617	7	Sololá	704	Santa Lucía Utatlán 	7	Santa Rita 	3	Marzo	2023-03-28T00:00:00	2024-11-08T12:00:00	2	Temperatura media	24.7
84618	7	Sololá	704	Santa Lucía Utatlán 	7	Santa Rita 	3	Marzo	2023-03-28T00:00:00	2024-11-08T12:00:00	4	Temperatura máxima	24.9
84619	7	Sololá	704	Santa Lucía Utatlán 	7	Santa Rita 	3	Marzo	2023-03-28T00:00:00	2024-11-08T12:00:00	3	Temperatura mínima	23.7
84620	7	Sololá	704	Santa Lucía Utatlán 	7	Santa Rita 	3	Marzo	2023-03-28T00:00:00	2024-11-08T12:00:00	5	Humedad	43
84621	7	Sololá	704	Santa Lucía Utatlán 	7	Santa Rita 	3	Marzo	2023-03-28T00:00:00	2024-11-08T12:00:00	6	Velocidad del viento	12.9
84622	7	Sololá	704	Santa Lucía Utatlán 	7	Santa Rita 	3	Marzo	2023-03-28T00:00:00	2024-11-08T12:00:00	7	Dirección del viento	12.87
84623	7	Sololá	704	Santa Lucía Utatlán 	7	Santa Rita 	3	Marzo	2023-03-28T00:00:00	2024-11-08T12:00:00	1	Precipitación	0
84624	7	Sololá	704	Santa Lucía Utatlán 	7	Santa Rita 	3	Marzo	2023-03-28T00:00:00	2024-11-08T12:00:00	8	Radiación solar	1036
84625	7	Sololá	704	Santa Lucía Utatlán 	7	Santa Rita 	3	Marzo	2023-03-28T00:00:00	2024-11-08T13:00:00	2	Temperatura media	25.8
84626	7	Sololá	704	Santa Lucía Utatlán 	7	Santa Rita 	3	Marzo	2023-03-28T00:00:00	2024-11-08T13:00:00	4	Temperatura máxima	25.8
84627	7	Sololá	704	Santa Lucía Utatlán 	7	Santa Rita 	3	Marzo	2023-03-28T00:00:00	2024-11-08T13:00:00	3	Temperatura mínima	24.7
84628	7	Sololá	704	Santa Lucía Utatlán 	7	Santa Rita 	3	Marzo	2023-03-28T00:00:00	2024-11-08T13:00:00	5	Humedad	51
84629	7	Sololá	704	Santa Lucía Utatlán 	7	Santa Rita 	3	Marzo	2023-03-28T00:00:00	2024-11-08T13:00:00	6	Velocidad del viento	9.7
84630	7	Sololá	704	Santa Lucía Utatlán 	7	Santa Rita 	3	Marzo	2023-03-28T00:00:00	2024-11-08T13:00:00	7	Dirección del viento	9.66
84631	7	Sololá	704	Santa Lucía Utatlán 	7	Santa Rita 	3	Marzo	2023-03-28T00:00:00	2024-11-08T13:00:00	1	Precipitación	0
84632	7	Sololá	704	Santa Lucía Utatlán 	7	Santa Rita 	3	Marzo	2023-03-28T00:00:00	2024-11-08T13:00:00	8	Radiación solar	885
84633	7	Sololá	704	Santa Lucía Utatlán 	7	Santa Rita 	3	Marzo	2023-03-28T00:00:00	2024-11-08T14:00:00	2	Temperatura media	24.8
84634	7	Sololá	704	Santa Lucía Utatlán 	7	Santa Rita 	3	Marzo	2023-03-28T00:00:00	2024-11-08T14:00:00	4	Temperatura máxima	25.9
84635	7	Sololá	704	Santa Lucía Utatlán 	7	Santa Rita 	3	Marzo	2023-03-28T00:00:00	2024-11-08T14:00:00	3	Temperatura mínima	24.7
84636	7	Sololá	704	Santa Lucía Utatlán 	7	Santa Rita 	3	Marzo	2023-03-28T00:00:00	2024-11-08T14:00:00	5	Humedad	64
84637	7	Sololá	704	Santa Lucía Utatlán 	7	Santa Rita 	3	Marzo	2023-03-28T00:00:00	2024-11-08T14:00:00	6	Velocidad del viento	9.7
84638	7	Sololá	704	Santa Lucía Utatlán 	7	Santa Rita 	3	Marzo	2023-03-28T00:00:00	2024-11-08T14:00:00	7	Dirección del viento	9.66
84639	7	Sololá	704	Santa Lucía Utatlán 	7	Santa Rita 	3	Marzo	2023-03-28T00:00:00	2024-11-08T14:00:00	1	Precipitación	0
84640	7	Sololá	704	Santa Lucía Utatlán 	7	Santa Rita 	3	Marzo	2023-03-28T00:00:00	2024-11-08T14:00:00	8	Radiación solar	312
84641	7	Sololá	704	Santa Lucía Utatlán 	7	Santa Rita 	3	Marzo	2023-03-28T00:00:00	2024-11-08T15:00:00	2	Temperatura media	23.4
84642	7	Sololá	704	Santa Lucía Utatlán 	7	Santa Rita 	3	Marzo	2023-03-28T00:00:00	2024-11-08T15:00:00	4	Temperatura máxima	24.9
84643	7	Sololá	704	Santa Lucía Utatlán 	7	Santa Rita 	3	Marzo	2023-03-28T00:00:00	2024-11-08T15:00:00	3	Temperatura mínima	23.4
84644	7	Sololá	704	Santa Lucía Utatlán 	7	Santa Rita 	3	Marzo	2023-03-28T00:00:00	2024-11-08T15:00:00	5	Humedad	72
84645	7	Sololá	704	Santa Lucía Utatlán 	7	Santa Rita 	3	Marzo	2023-03-28T00:00:00	2024-11-08T15:00:00	6	Velocidad del viento	6.4
84646	7	Sololá	704	Santa Lucía Utatlán 	7	Santa Rita 	3	Marzo	2023-03-28T00:00:00	2024-11-08T15:00:00	7	Dirección del viento	6.44
84647	7	Sololá	704	Santa Lucía Utatlán 	7	Santa Rita 	3	Marzo	2023-03-28T00:00:00	2024-11-08T15:00:00	1	Precipitación	0
84648	7	Sololá	704	Santa Lucía Utatlán 	7	Santa Rita 	3	Marzo	2023-03-28T00:00:00	2024-11-08T15:00:00	8	Radiación solar	267
84649	7	Sololá	704	Santa Lucía Utatlán 	7	Santa Rita 	3	Marzo	2023-03-28T00:00:00	2024-11-08T16:00:00	2	Temperatura media	23.8
84650	7	Sololá	704	Santa Lucía Utatlán 	7	Santa Rita 	3	Marzo	2023-03-28T00:00:00	2024-11-08T16:00:00	4	Temperatura máxima	23.8
84651	7	Sololá	704	Santa Lucía Utatlán 	7	Santa Rita 	3	Marzo	2023-03-28T00:00:00	2024-11-08T16:00:00	3	Temperatura mínima	23.1
84652	7	Sololá	704	Santa Lucía Utatlán 	7	Santa Rita 	3	Marzo	2023-03-28T00:00:00	2024-11-08T16:00:00	5	Humedad	72
84653	7	Sololá	704	Santa Lucía Utatlán 	7	Santa Rita 	3	Marzo	2023-03-28T00:00:00	2024-11-08T16:00:00	6	Velocidad del viento	4.8
84654	7	Sololá	704	Santa Lucía Utatlán 	7	Santa Rita 	3	Marzo	2023-03-28T00:00:00	2024-11-08T16:00:00	7	Dirección del viento	4.83
84655	7	Sololá	704	Santa Lucía Utatlán 	7	Santa Rita 	3	Marzo	2023-03-28T00:00:00	2024-11-08T16:00:00	1	Precipitación	0
84656	7	Sololá	704	Santa Lucía Utatlán 	7	Santa Rita 	3	Marzo	2023-03-28T00:00:00	2024-11-08T16:00:00	8	Radiación solar	169
84657	7	Sololá	704	Santa Lucía Utatlán 	7	Santa Rita 	3	Marzo	2023-03-28T00:00:00	2024-11-08T17:00:00	2	Temperatura media	22.9
84658	7	Sololá	704	Santa Lucía Utatlán 	7	Santa Rita 	3	Marzo	2023-03-28T00:00:00	2024-11-08T17:00:00	4	Temperatura máxima	23.9
84659	7	Sololá	704	Santa Lucía Utatlán 	7	Santa Rita 	3	Marzo	2023-03-28T00:00:00	2024-11-08T17:00:00	3	Temperatura mínima	22.9
84660	7	Sololá	704	Santa Lucía Utatlán 	7	Santa Rita 	3	Marzo	2023-03-28T00:00:00	2024-11-08T17:00:00	5	Humedad	74
84661	7	Sololá	704	Santa Lucía Utatlán 	7	Santa Rita 	3	Marzo	2023-03-28T00:00:00	2024-11-08T17:00:00	6	Velocidad del viento	4.8
84662	7	Sololá	704	Santa Lucía Utatlán 	7	Santa Rita 	3	Marzo	2023-03-28T00:00:00	2024-11-08T17:00:00	7	Dirección del viento	4.83
84663	7	Sololá	704	Santa Lucía Utatlán 	7	Santa Rita 	3	Marzo	2023-03-28T00:00:00	2024-11-08T17:00:00	1	Precipitación	0
84664	7	Sololá	704	Santa Lucía Utatlán 	7	Santa Rita 	3	Marzo	2023-03-28T00:00:00	2024-11-08T17:00:00	8	Radiación solar	146
84665	7	Sololá	704	Santa Lucía Utatlán 	7	Santa Rita 	3	Marzo	2023-03-28T00:00:00	2024-11-08T18:00:00	2	Temperatura media	22.5
84666	7	Sololá	704	Santa Lucía Utatlán 	7	Santa Rita 	3	Marzo	2023-03-28T00:00:00	2024-11-08T18:00:00	4	Temperatura máxima	23.3
84667	7	Sololá	704	Santa Lucía Utatlán 	7	Santa Rita 	3	Marzo	2023-03-28T00:00:00	2024-11-08T18:00:00	3	Temperatura mínima	22
84668	7	Sololá	704	Santa Lucía Utatlán 	7	Santa Rita 	3	Marzo	2023-03-28T00:00:00	2024-11-08T18:00:00	5	Humedad	78
84669	7	Sololá	704	Santa Lucía Utatlán 	7	Santa Rita 	3	Marzo	2023-03-28T00:00:00	2024-11-08T18:00:00	6	Velocidad del viento	4.8
84670	7	Sololá	704	Santa Lucía Utatlán 	7	Santa Rita 	3	Marzo	2023-03-28T00:00:00	2024-11-08T18:00:00	7	Dirección del viento	4.83
84671	7	Sololá	704	Santa Lucía Utatlán 	7	Santa Rita 	3	Marzo	2023-03-28T00:00:00	2024-11-08T18:00:00	1	Precipitación	0
84672	7	Sololá	704	Santa Lucía Utatlán 	7	Santa Rita 	3	Marzo	2023-03-28T00:00:00	2024-11-08T18:00:00	8	Radiación solar	59
84673	7	Sololá	704	Santa Lucía Utatlán 	7	Santa Rita 	3	Marzo	2023-03-28T00:00:00	2024-11-08T19:00:00	2	Temperatura media	21.2
84674	7	Sololá	704	Santa Lucía Utatlán 	7	Santa Rita 	3	Marzo	2023-03-28T00:00:00	2024-11-08T19:00:00	4	Temperatura máxima	22.6
84675	7	Sololá	704	Santa Lucía Utatlán 	7	Santa Rita 	3	Marzo	2023-03-28T00:00:00	2024-11-08T19:00:00	3	Temperatura mínima	21.2
84676	7	Sololá	704	Santa Lucía Utatlán 	7	Santa Rita 	3	Marzo	2023-03-28T00:00:00	2024-11-08T19:00:00	5	Humedad	84
84677	7	Sololá	704	Santa Lucía Utatlán 	7	Santa Rita 	3	Marzo	2023-03-28T00:00:00	2024-11-08T19:00:00	6	Velocidad del viento	3.2
84678	7	Sololá	704	Santa Lucía Utatlán 	7	Santa Rita 	3	Marzo	2023-03-28T00:00:00	2024-11-08T19:00:00	7	Dirección del viento	3.22
84679	7	Sololá	704	Santa Lucía Utatlán 	7	Santa Rita 	3	Marzo	2023-03-28T00:00:00	2024-11-08T19:00:00	1	Precipitación	0
84680	7	Sololá	704	Santa Lucía Utatlán 	7	Santa Rita 	3	Marzo	2023-03-28T00:00:00	2024-11-08T19:00:00	8	Radiación solar	0
84681	7	Sololá	704	Santa Lucía Utatlán 	7	Santa Rita 	3	Marzo	2023-03-28T00:00:00	2024-11-08T20:00:00	2	Temperatura media	19.9
84682	7	Sololá	704	Santa Lucía Utatlán 	7	Santa Rita 	3	Marzo	2023-03-28T00:00:00	2024-11-08T20:00:00	4	Temperatura máxima	21.2
84683	7	Sololá	704	Santa Lucía Utatlán 	7	Santa Rita 	3	Marzo	2023-03-28T00:00:00	2024-11-08T20:00:00	3	Temperatura mínima	19.8
84684	7	Sololá	704	Santa Lucía Utatlán 	7	Santa Rita 	3	Marzo	2023-03-28T00:00:00	2024-11-08T20:00:00	5	Humedad	87
84685	7	Sololá	704	Santa Lucía Utatlán 	7	Santa Rita 	3	Marzo	2023-03-28T00:00:00	2024-11-08T20:00:00	6	Velocidad del viento	1.6
84686	7	Sololá	704	Santa Lucía Utatlán 	7	Santa Rita 	3	Marzo	2023-03-28T00:00:00	2024-11-08T20:00:00	7	Dirección del viento	1.61
84687	7	Sololá	704	Santa Lucía Utatlán 	7	Santa Rita 	3	Marzo	2023-03-28T00:00:00	2024-11-08T20:00:00	1	Precipitación	0
84688	7	Sololá	704	Santa Lucía Utatlán 	7	Santa Rita 	3	Marzo	2023-03-28T00:00:00	2024-11-08T20:00:00	8	Radiación solar	0
84689	7	Sololá	704	Santa Lucía Utatlán 	7	Santa Rita 	3	Marzo	2023-03-28T00:00:00	2024-11-08T21:00:00	2	Temperatura media	19.7
84690	7	Sololá	704	Santa Lucía Utatlán 	7	Santa Rita 	3	Marzo	2023-03-28T00:00:00	2024-11-08T21:00:00	4	Temperatura máxima	19.8
84691	7	Sololá	704	Santa Lucía Utatlán 	7	Santa Rita 	3	Marzo	2023-03-28T00:00:00	2024-11-08T21:00:00	3	Temperatura mínima	19.2
84692	7	Sololá	704	Santa Lucía Utatlán 	7	Santa Rita 	3	Marzo	2023-03-28T00:00:00	2024-11-08T21:00:00	5	Humedad	83
84693	7	Sololá	704	Santa Lucía Utatlán 	7	Santa Rita 	3	Marzo	2023-03-28T00:00:00	2024-11-08T21:00:00	6	Velocidad del viento	1.6
84694	7	Sololá	704	Santa Lucía Utatlán 	7	Santa Rita 	3	Marzo	2023-03-28T00:00:00	2024-11-08T21:00:00	7	Dirección del viento	1.61
84695	7	Sololá	704	Santa Lucía Utatlán 	7	Santa Rita 	3	Marzo	2023-03-28T00:00:00	2024-11-08T21:00:00	1	Precipitación	0
84696	7	Sololá	704	Santa Lucía Utatlán 	7	Santa Rita 	3	Marzo	2023-03-28T00:00:00	2024-11-08T21:00:00	8	Radiación solar	0
84697	7	Sololá	704	Santa Lucía Utatlán 	7	Santa Rita 	3	Marzo	2023-03-28T00:00:00	2024-11-08T22:00:00	2	Temperatura media	18.9
84698	7	Sololá	704	Santa Lucía Utatlán 	7	Santa Rita 	3	Marzo	2023-03-28T00:00:00	2024-11-08T22:00:00	4	Temperatura máxima	19.7
84699	7	Sololá	704	Santa Lucía Utatlán 	7	Santa Rita 	3	Marzo	2023-03-28T00:00:00	2024-11-08T22:00:00	3	Temperatura mínima	18.9
84700	7	Sololá	704	Santa Lucía Utatlán 	7	Santa Rita 	3	Marzo	2023-03-28T00:00:00	2024-11-08T22:00:00	5	Humedad	80
84701	7	Sololá	704	Santa Lucía Utatlán 	7	Santa Rita 	3	Marzo	2023-03-28T00:00:00	2024-11-08T22:00:00	6	Velocidad del viento	1.6
84702	7	Sololá	704	Santa Lucía Utatlán 	7	Santa Rita 	3	Marzo	2023-03-28T00:00:00	2024-11-08T22:00:00	7	Dirección del viento	1.61
84703	7	Sololá	704	Santa Lucía Utatlán 	7	Santa Rita 	3	Marzo	2023-03-28T00:00:00	2024-11-08T22:00:00	1	Precipitación	0
84704	7	Sololá	704	Santa Lucía Utatlán 	7	Santa Rita 	3	Marzo	2023-03-28T00:00:00	2024-11-08T22:00:00	8	Radiación solar	0
84705	7	Sololá	704	Santa Lucía Utatlán 	7	Santa Rita 	3	Marzo	2023-03-28T00:00:00	2024-11-08T23:00:00	2	Temperatura media	19.7
84706	7	Sololá	704	Santa Lucía Utatlán 	7	Santa Rita 	3	Marzo	2023-03-28T00:00:00	2024-11-08T23:00:00	4	Temperatura máxima	19.9
84707	7	Sololá	704	Santa Lucía Utatlán 	7	Santa Rita 	3	Marzo	2023-03-28T00:00:00	2024-11-08T23:00:00	3	Temperatura mínima	18.4
84708	7	Sololá	704	Santa Lucía Utatlán 	7	Santa Rita 	3	Marzo	2023-03-28T00:00:00	2024-11-08T23:00:00	5	Humedad	74
84709	7	Sololá	704	Santa Lucía Utatlán 	7	Santa Rita 	3	Marzo	2023-03-28T00:00:00	2024-11-08T23:00:00	6	Velocidad del viento	3.2
84710	7	Sololá	704	Santa Lucía Utatlán 	7	Santa Rita 	3	Marzo	2023-03-28T00:00:00	2024-11-08T23:00:00	7	Dirección del viento	3.22
84711	7	Sololá	704	Santa Lucía Utatlán 	7	Santa Rita 	3	Marzo	2023-03-28T00:00:00	2024-11-08T23:00:00	1	Precipitación	0
84712	7	Sololá	704	Santa Lucía Utatlán 	7	Santa Rita 	3	Marzo	2023-03-28T00:00:00	2024-11-08T23:00:00	8	Radiación solar	0
84713	7	Sololá	704	Santa Lucía Utatlán 	7	Santa Rita 	3	Marzo	2023-03-29T00:00:00	2024-11-08T00:00:00	2	Temperatura media	17.7
84714	7	Sololá	704	Santa Lucía Utatlán 	7	Santa Rita 	3	Marzo	2023-03-29T00:00:00	2024-11-08T00:00:00	4	Temperatura máxima	19.8
84715	7	Sololá	704	Santa Lucía Utatlán 	7	Santa Rita 	3	Marzo	2023-03-29T00:00:00	2024-11-08T00:00:00	3	Temperatura mínima	17.7
84716	7	Sololá	704	Santa Lucía Utatlán 	7	Santa Rita 	3	Marzo	2023-03-29T00:00:00	2024-11-08T00:00:00	5	Humedad	80
84717	7	Sololá	704	Santa Lucía Utatlán 	7	Santa Rita 	3	Marzo	2023-03-29T00:00:00	2024-11-08T00:00:00	6	Velocidad del viento	1.6
84718	7	Sololá	704	Santa Lucía Utatlán 	7	Santa Rita 	3	Marzo	2023-03-29T00:00:00	2024-11-08T00:00:00	7	Dirección del viento	1.61
84719	7	Sololá	704	Santa Lucía Utatlán 	7	Santa Rita 	3	Marzo	2023-03-29T00:00:00	2024-11-08T00:00:00	1	Precipitación	0
84720	7	Sololá	704	Santa Lucía Utatlán 	7	Santa Rita 	3	Marzo	2023-03-29T00:00:00	2024-11-08T00:00:00	8	Radiación solar	0
84721	7	Sololá	704	Santa Lucía Utatlán 	7	Santa Rita 	3	Marzo	2023-03-29T00:00:00	2024-11-08T01:00:00	2	Temperatura media	17.6
84722	7	Sololá	704	Santa Lucía Utatlán 	7	Santa Rita 	3	Marzo	2023-03-29T00:00:00	2024-11-08T01:00:00	4	Temperatura máxima	17.7
84723	7	Sololá	704	Santa Lucía Utatlán 	7	Santa Rita 	3	Marzo	2023-03-29T00:00:00	2024-11-08T01:00:00	3	Temperatura mínima	16.9
84724	7	Sololá	704	Santa Lucía Utatlán 	7	Santa Rita 	3	Marzo	2023-03-29T00:00:00	2024-11-08T01:00:00	5	Humedad	75
84725	7	Sololá	704	Santa Lucía Utatlán 	7	Santa Rita 	3	Marzo	2023-03-29T00:00:00	2024-11-08T01:00:00	6	Velocidad del viento	1.6
84726	7	Sololá	704	Santa Lucía Utatlán 	7	Santa Rita 	3	Marzo	2023-03-29T00:00:00	2024-11-08T01:00:00	7	Dirección del viento	1.61
84727	7	Sololá	704	Santa Lucía Utatlán 	7	Santa Rita 	3	Marzo	2023-03-29T00:00:00	2024-11-08T01:00:00	1	Precipitación	0
84728	7	Sololá	704	Santa Lucía Utatlán 	7	Santa Rita 	3	Marzo	2023-03-29T00:00:00	2024-11-08T01:00:00	8	Radiación solar	0
84729	7	Sololá	704	Santa Lucía Utatlán 	7	Santa Rita 	3	Marzo	2023-03-29T00:00:00	2024-11-08T02:00:00	2	Temperatura media	18.4
84730	7	Sololá	704	Santa Lucía Utatlán 	7	Santa Rita 	3	Marzo	2023-03-29T00:00:00	2024-11-08T02:00:00	4	Temperatura máxima	19.2
84731	7	Sololá	704	Santa Lucía Utatlán 	7	Santa Rita 	3	Marzo	2023-03-29T00:00:00	2024-11-08T02:00:00	3	Temperatura mínima	17.6
84732	7	Sololá	704	Santa Lucía Utatlán 	7	Santa Rita 	3	Marzo	2023-03-29T00:00:00	2024-11-08T02:00:00	5	Humedad	70
84733	7	Sololá	704	Santa Lucía Utatlán 	7	Santa Rita 	3	Marzo	2023-03-29T00:00:00	2024-11-08T02:00:00	6	Velocidad del viento	3.2
84734	7	Sololá	704	Santa Lucía Utatlán 	7	Santa Rita 	3	Marzo	2023-03-29T00:00:00	2024-11-08T02:00:00	7	Dirección del viento	3.22
84735	7	Sololá	704	Santa Lucía Utatlán 	7	Santa Rita 	3	Marzo	2023-03-29T00:00:00	2024-11-08T02:00:00	1	Precipitación	0
84736	7	Sololá	704	Santa Lucía Utatlán 	7	Santa Rita 	3	Marzo	2023-03-29T00:00:00	2024-11-08T02:00:00	8	Radiación solar	0
84737	7	Sololá	704	Santa Lucía Utatlán 	7	Santa Rita 	3	Marzo	2023-03-29T00:00:00	2024-11-08T03:00:00	2	Temperatura media	19.6
84738	7	Sololá	704	Santa Lucía Utatlán 	7	Santa Rita 	3	Marzo	2023-03-29T00:00:00	2024-11-08T03:00:00	4	Temperatura máxima	19.7
84739	7	Sololá	704	Santa Lucía Utatlán 	7	Santa Rita 	3	Marzo	2023-03-29T00:00:00	2024-11-08T03:00:00	3	Temperatura mínima	17.1
84740	7	Sololá	704	Santa Lucía Utatlán 	7	Santa Rita 	3	Marzo	2023-03-29T00:00:00	2024-11-08T03:00:00	5	Humedad	63
84741	7	Sololá	704	Santa Lucía Utatlán 	7	Santa Rita 	3	Marzo	2023-03-29T00:00:00	2024-11-08T03:00:00	6	Velocidad del viento	3.2
84742	7	Sololá	704	Santa Lucía Utatlán 	7	Santa Rita 	3	Marzo	2023-03-29T00:00:00	2024-11-08T03:00:00	7	Dirección del viento	3.22
84743	7	Sololá	704	Santa Lucía Utatlán 	7	Santa Rita 	3	Marzo	2023-03-29T00:00:00	2024-11-08T03:00:00	1	Precipitación	0
84744	7	Sololá	704	Santa Lucía Utatlán 	7	Santa Rita 	3	Marzo	2023-03-29T00:00:00	2024-11-08T03:00:00	8	Radiación solar	0
84745	7	Sololá	704	Santa Lucía Utatlán 	7	Santa Rita 	3	Marzo	2023-03-29T00:00:00	2024-11-08T04:00:00	2	Temperatura media	20.2
84746	7	Sololá	704	Santa Lucía Utatlán 	7	Santa Rita 	3	Marzo	2023-03-29T00:00:00	2024-11-08T04:00:00	4	Temperatura máxima	20.2
84747	7	Sololá	704	Santa Lucía Utatlán 	7	Santa Rita 	3	Marzo	2023-03-29T00:00:00	2024-11-08T04:00:00	3	Temperatura mínima	18.1
84748	7	Sololá	704	Santa Lucía Utatlán 	7	Santa Rita 	3	Marzo	2023-03-29T00:00:00	2024-11-08T04:00:00	5	Humedad	60
84749	7	Sololá	704	Santa Lucía Utatlán 	7	Santa Rita 	3	Marzo	2023-03-29T00:00:00	2024-11-08T04:00:00	6	Velocidad del viento	8
84750	7	Sololá	704	Santa Lucía Utatlán 	7	Santa Rita 	3	Marzo	2023-03-29T00:00:00	2024-11-08T04:00:00	7	Dirección del viento	8.05
84751	7	Sololá	704	Santa Lucía Utatlán 	7	Santa Rita 	3	Marzo	2023-03-29T00:00:00	2024-11-08T04:00:00	1	Precipitación	0
84752	7	Sololá	704	Santa Lucía Utatlán 	7	Santa Rita 	3	Marzo	2023-03-29T00:00:00	2024-11-08T04:00:00	8	Radiación solar	0
84753	7	Sololá	704	Santa Lucía Utatlán 	7	Santa Rita 	3	Marzo	2023-03-29T00:00:00	2024-11-08T05:00:00	2	Temperatura media	20
84754	7	Sololá	704	Santa Lucía Utatlán 	7	Santa Rita 	3	Marzo	2023-03-29T00:00:00	2024-11-08T05:00:00	4	Temperatura máxima	20.2
84755	7	Sololá	704	Santa Lucía Utatlán 	7	Santa Rita 	3	Marzo	2023-03-29T00:00:00	2024-11-08T05:00:00	3	Temperatura mínima	18.9
84756	7	Sololá	704	Santa Lucía Utatlán 	7	Santa Rita 	3	Marzo	2023-03-29T00:00:00	2024-11-08T05:00:00	5	Humedad	64
84757	7	Sololá	704	Santa Lucía Utatlán 	7	Santa Rita 	3	Marzo	2023-03-29T00:00:00	2024-11-08T05:00:00	6	Velocidad del viento	6.4
84758	7	Sololá	704	Santa Lucía Utatlán 	7	Santa Rita 	3	Marzo	2023-03-29T00:00:00	2024-11-08T05:00:00	7	Dirección del viento	6.44
84759	7	Sololá	704	Santa Lucía Utatlán 	7	Santa Rita 	3	Marzo	2023-03-29T00:00:00	2024-11-08T05:00:00	1	Precipitación	0
84760	7	Sololá	704	Santa Lucía Utatlán 	7	Santa Rita 	3	Marzo	2023-03-29T00:00:00	2024-11-08T05:00:00	8	Radiación solar	0
84761	7	Sololá	704	Santa Lucía Utatlán 	7	Santa Rita 	3	Marzo	2023-03-29T00:00:00	2024-11-08T06:00:00	2	Temperatura media	19.9
84762	7	Sololá	704	Santa Lucía Utatlán 	7	Santa Rita 	3	Marzo	2023-03-29T00:00:00	2024-11-08T06:00:00	4	Temperatura máxima	20
84763	7	Sololá	704	Santa Lucía Utatlán 	7	Santa Rita 	3	Marzo	2023-03-29T00:00:00	2024-11-08T06:00:00	3	Temperatura mínima	19.6
84764	7	Sololá	704	Santa Lucía Utatlán 	7	Santa Rita 	3	Marzo	2023-03-29T00:00:00	2024-11-08T06:00:00	5	Humedad	62
84765	7	Sololá	704	Santa Lucía Utatlán 	7	Santa Rita 	3	Marzo	2023-03-29T00:00:00	2024-11-08T06:00:00	6	Velocidad del viento	12.9
84766	7	Sololá	704	Santa Lucía Utatlán 	7	Santa Rita 	3	Marzo	2023-03-29T00:00:00	2024-11-08T06:00:00	7	Dirección del viento	12.87
84767	7	Sololá	704	Santa Lucía Utatlán 	7	Santa Rita 	3	Marzo	2023-03-29T00:00:00	2024-11-08T06:00:00	1	Precipitación	0
84768	7	Sololá	704	Santa Lucía Utatlán 	7	Santa Rita 	3	Marzo	2023-03-29T00:00:00	2024-11-08T06:00:00	8	Radiación solar	0
84769	7	Sololá	704	Santa Lucía Utatlán 	7	Santa Rita 	3	Marzo	2023-03-29T00:00:00	2024-11-08T07:00:00	2	Temperatura media	19
84770	7	Sololá	704	Santa Lucía Utatlán 	7	Santa Rita 	3	Marzo	2023-03-29T00:00:00	2024-11-08T07:00:00	4	Temperatura máxima	19.9
84771	7	Sololá	704	Santa Lucía Utatlán 	7	Santa Rita 	3	Marzo	2023-03-29T00:00:00	2024-11-08T07:00:00	3	Temperatura mínima	18.9
84772	7	Sololá	704	Santa Lucía Utatlán 	7	Santa Rita 	3	Marzo	2023-03-29T00:00:00	2024-11-08T07:00:00	5	Humedad	60
84773	7	Sololá	704	Santa Lucía Utatlán 	7	Santa Rita 	3	Marzo	2023-03-29T00:00:00	2024-11-08T07:00:00	6	Velocidad del viento	12.9
84774	7	Sololá	704	Santa Lucía Utatlán 	7	Santa Rita 	3	Marzo	2023-03-29T00:00:00	2024-11-08T07:00:00	7	Dirección del viento	12.87
84775	7	Sololá	704	Santa Lucía Utatlán 	7	Santa Rita 	3	Marzo	2023-03-29T00:00:00	2024-11-08T07:00:00	1	Precipitación	0
84776	7	Sololá	704	Santa Lucía Utatlán 	7	Santa Rita 	3	Marzo	2023-03-29T00:00:00	2024-11-08T07:00:00	8	Radiación solar	60
84777	7	Sololá	704	Santa Lucía Utatlán 	7	Santa Rita 	3	Marzo	2023-03-29T00:00:00	2024-11-08T08:00:00	2	Temperatura media	19.3
84778	7	Sololá	704	Santa Lucía Utatlán 	7	Santa Rita 	3	Marzo	2023-03-29T00:00:00	2024-11-08T08:00:00	4	Temperatura máxima	19.3
84779	7	Sololá	704	Santa Lucía Utatlán 	7	Santa Rita 	3	Marzo	2023-03-29T00:00:00	2024-11-08T08:00:00	3	Temperatura mínima	18.3
84780	7	Sololá	704	Santa Lucía Utatlán 	7	Santa Rita 	3	Marzo	2023-03-29T00:00:00	2024-11-08T08:00:00	5	Humedad	62
84781	7	Sololá	704	Santa Lucía Utatlán 	7	Santa Rita 	3	Marzo	2023-03-29T00:00:00	2024-11-08T08:00:00	6	Velocidad del viento	8
84782	7	Sololá	704	Santa Lucía Utatlán 	7	Santa Rita 	3	Marzo	2023-03-29T00:00:00	2024-11-08T08:00:00	7	Dirección del viento	8.05
84783	7	Sololá	704	Santa Lucía Utatlán 	7	Santa Rita 	3	Marzo	2023-03-29T00:00:00	2024-11-08T08:00:00	1	Precipitación	0
84784	7	Sololá	704	Santa Lucía Utatlán 	7	Santa Rita 	3	Marzo	2023-03-29T00:00:00	2024-11-08T08:00:00	8	Radiación solar	316
84785	7	Sololá	704	Santa Lucía Utatlán 	7	Santa Rita 	3	Marzo	2023-03-29T00:00:00	2024-11-08T09:00:00	2	Temperatura media	20
84786	7	Sololá	704	Santa Lucía Utatlán 	7	Santa Rita 	3	Marzo	2023-03-29T00:00:00	2024-11-08T09:00:00	4	Temperatura máxima	20.1
84787	7	Sololá	704	Santa Lucía Utatlán 	7	Santa Rita 	3	Marzo	2023-03-29T00:00:00	2024-11-08T09:00:00	3	Temperatura mínima	19.4
84788	7	Sololá	704	Santa Lucía Utatlán 	7	Santa Rita 	3	Marzo	2023-03-29T00:00:00	2024-11-08T09:00:00	5	Humedad	66
84789	7	Sololá	704	Santa Lucía Utatlán 	7	Santa Rita 	3	Marzo	2023-03-29T00:00:00	2024-11-08T09:00:00	6	Velocidad del viento	9.7
84790	7	Sololá	704	Santa Lucía Utatlán 	7	Santa Rita 	3	Marzo	2023-03-29T00:00:00	2024-11-08T09:00:00	7	Dirección del viento	9.66
84791	7	Sololá	704	Santa Lucía Utatlán 	7	Santa Rita 	3	Marzo	2023-03-29T00:00:00	2024-11-08T09:00:00	1	Precipitación	0
84792	7	Sololá	704	Santa Lucía Utatlán 	7	Santa Rita 	3	Marzo	2023-03-29T00:00:00	2024-11-08T09:00:00	8	Radiación solar	589
84793	7	Sololá	704	Santa Lucía Utatlán 	7	Santa Rita 	3	Marzo	2023-03-29T00:00:00	2024-11-08T10:00:00	2	Temperatura media	21.3
84794	7	Sololá	704	Santa Lucía Utatlán 	7	Santa Rita 	3	Marzo	2023-03-29T00:00:00	2024-11-08T10:00:00	4	Temperatura máxima	21.3
84795	7	Sololá	704	Santa Lucía Utatlán 	7	Santa Rita 	3	Marzo	2023-03-29T00:00:00	2024-11-08T10:00:00	3	Temperatura mínima	19.9
84796	7	Sololá	704	Santa Lucía Utatlán 	7	Santa Rita 	3	Marzo	2023-03-29T00:00:00	2024-11-08T10:00:00	5	Humedad	61
84797	7	Sololá	704	Santa Lucía Utatlán 	7	Santa Rita 	3	Marzo	2023-03-29T00:00:00	2024-11-08T10:00:00	6	Velocidad del viento	9.7
84798	7	Sololá	704	Santa Lucía Utatlán 	7	Santa Rita 	3	Marzo	2023-03-29T00:00:00	2024-11-08T10:00:00	7	Dirección del viento	9.66
84799	7	Sololá	704	Santa Lucía Utatlán 	7	Santa Rita 	3	Marzo	2023-03-29T00:00:00	2024-11-08T10:00:00	1	Precipitación	0
84800	7	Sololá	704	Santa Lucía Utatlán 	7	Santa Rita 	3	Marzo	2023-03-29T00:00:00	2024-11-08T10:00:00	8	Radiación solar	792
84801	7	Sololá	704	Santa Lucía Utatlán 	7	Santa Rita 	3	Marzo	2023-03-29T00:00:00	2024-11-08T11:00:00	2	Temperatura media	21.8
84802	7	Sololá	704	Santa Lucía Utatlán 	7	Santa Rita 	3	Marzo	2023-03-29T00:00:00	2024-11-08T11:00:00	4	Temperatura máxima	22
84803	7	Sololá	704	Santa Lucía Utatlán 	7	Santa Rita 	3	Marzo	2023-03-29T00:00:00	2024-11-08T11:00:00	3	Temperatura mínima	21.1
84804	7	Sololá	704	Santa Lucía Utatlán 	7	Santa Rita 	3	Marzo	2023-03-29T00:00:00	2024-11-08T11:00:00	5	Humedad	56
84805	7	Sololá	704	Santa Lucía Utatlán 	7	Santa Rita 	3	Marzo	2023-03-29T00:00:00	2024-11-08T11:00:00	6	Velocidad del viento	11.3
84806	7	Sololá	704	Santa Lucía Utatlán 	7	Santa Rita 	3	Marzo	2023-03-29T00:00:00	2024-11-08T11:00:00	7	Dirección del viento	11.27
84807	7	Sololá	704	Santa Lucía Utatlán 	7	Santa Rita 	3	Marzo	2023-03-29T00:00:00	2024-11-08T11:00:00	1	Precipitación	0
84808	7	Sololá	704	Santa Lucía Utatlán 	7	Santa Rita 	3	Marzo	2023-03-29T00:00:00	2024-11-08T11:00:00	8	Radiación solar	965
84809	7	Sololá	704	Santa Lucía Utatlán 	7	Santa Rita 	3	Marzo	2023-03-29T00:00:00	2024-11-08T12:00:00	2	Temperatura media	23.5
84810	7	Sololá	704	Santa Lucía Utatlán 	7	Santa Rita 	3	Marzo	2023-03-29T00:00:00	2024-11-08T12:00:00	4	Temperatura máxima	23.5
84811	7	Sololá	704	Santa Lucía Utatlán 	7	Santa Rita 	3	Marzo	2023-03-29T00:00:00	2024-11-08T12:00:00	3	Temperatura mínima	21.8
84812	7	Sololá	704	Santa Lucía Utatlán 	7	Santa Rita 	3	Marzo	2023-03-29T00:00:00	2024-11-08T12:00:00	5	Humedad	50
84813	7	Sololá	704	Santa Lucía Utatlán 	7	Santa Rita 	3	Marzo	2023-03-29T00:00:00	2024-11-08T12:00:00	6	Velocidad del viento	11.3
84814	7	Sololá	704	Santa Lucía Utatlán 	7	Santa Rita 	3	Marzo	2023-03-29T00:00:00	2024-11-08T12:00:00	7	Dirección del viento	11.27
84815	7	Sololá	704	Santa Lucía Utatlán 	7	Santa Rita 	3	Marzo	2023-03-29T00:00:00	2024-11-08T12:00:00	1	Precipitación	0
84816	7	Sololá	704	Santa Lucía Utatlán 	7	Santa Rita 	3	Marzo	2023-03-29T00:00:00	2024-11-08T12:00:00	8	Radiación solar	1033
84817	7	Sololá	704	Santa Lucía Utatlán 	7	Santa Rita 	3	Marzo	2023-03-29T00:00:00	2024-11-08T13:00:00	2	Temperatura media	23.9
84818	7	Sololá	704	Santa Lucía Utatlán 	7	Santa Rita 	3	Marzo	2023-03-29T00:00:00	2024-11-08T13:00:00	4	Temperatura máxima	24.5
84819	7	Sololá	704	Santa Lucía Utatlán 	7	Santa Rita 	3	Marzo	2023-03-29T00:00:00	2024-11-08T13:00:00	3	Temperatura mínima	23.4
84820	7	Sololá	704	Santa Lucía Utatlán 	7	Santa Rita 	3	Marzo	2023-03-29T00:00:00	2024-11-08T13:00:00	5	Humedad	50
84821	7	Sololá	704	Santa Lucía Utatlán 	7	Santa Rita 	3	Marzo	2023-03-29T00:00:00	2024-11-08T13:00:00	6	Velocidad del viento	11.3
84822	7	Sololá	704	Santa Lucía Utatlán 	7	Santa Rita 	3	Marzo	2023-03-29T00:00:00	2024-11-08T13:00:00	7	Dirección del viento	11.27
84823	7	Sololá	704	Santa Lucía Utatlán 	7	Santa Rita 	3	Marzo	2023-03-29T00:00:00	2024-11-08T13:00:00	1	Precipitación	0
84824	7	Sololá	704	Santa Lucía Utatlán 	7	Santa Rita 	3	Marzo	2023-03-29T00:00:00	2024-11-08T13:00:00	8	Radiación solar	1026
84825	7	Sololá	704	Santa Lucía Utatlán 	7	Santa Rita 	3	Marzo	2023-03-29T00:00:00	2024-11-08T14:00:00	2	Temperatura media	25.1
84826	7	Sololá	704	Santa Lucía Utatlán 	7	Santa Rita 	3	Marzo	2023-03-29T00:00:00	2024-11-08T14:00:00	4	Temperatura máxima	25.4
84827	7	Sololá	704	Santa Lucía Utatlán 	7	Santa Rita 	3	Marzo	2023-03-29T00:00:00	2024-11-08T14:00:00	3	Temperatura mínima	23.7
84828	7	Sololá	704	Santa Lucía Utatlán 	7	Santa Rita 	3	Marzo	2023-03-29T00:00:00	2024-11-08T14:00:00	5	Humedad	45
84829	7	Sololá	704	Santa Lucía Utatlán 	7	Santa Rita 	3	Marzo	2023-03-29T00:00:00	2024-11-08T14:00:00	6	Velocidad del viento	12.9
84830	7	Sololá	704	Santa Lucía Utatlán 	7	Santa Rita 	3	Marzo	2023-03-29T00:00:00	2024-11-08T14:00:00	7	Dirección del viento	12.87
84831	7	Sololá	704	Santa Lucía Utatlán 	7	Santa Rita 	3	Marzo	2023-03-29T00:00:00	2024-11-08T14:00:00	1	Precipitación	0
84832	7	Sololá	704	Santa Lucía Utatlán 	7	Santa Rita 	3	Marzo	2023-03-29T00:00:00	2024-11-08T14:00:00	8	Radiación solar	954
84833	7	Sololá	704	Santa Lucía Utatlán 	7	Santa Rita 	3	Marzo	2023-03-29T00:00:00	2024-11-08T15:00:00	2	Temperatura media	24.7
84834	7	Sololá	704	Santa Lucía Utatlán 	7	Santa Rita 	3	Marzo	2023-03-29T00:00:00	2024-11-08T15:00:00	4	Temperatura máxima	25.4
84835	7	Sololá	704	Santa Lucía Utatlán 	7	Santa Rita 	3	Marzo	2023-03-29T00:00:00	2024-11-08T15:00:00	3	Temperatura mínima	24.5
84836	7	Sololá	704	Santa Lucía Utatlán 	7	Santa Rita 	3	Marzo	2023-03-29T00:00:00	2024-11-08T15:00:00	5	Humedad	45
84837	7	Sololá	704	Santa Lucía Utatlán 	7	Santa Rita 	3	Marzo	2023-03-29T00:00:00	2024-11-08T15:00:00	6	Velocidad del viento	11.3
84838	7	Sololá	704	Santa Lucía Utatlán 	7	Santa Rita 	3	Marzo	2023-03-29T00:00:00	2024-11-08T15:00:00	7	Dirección del viento	11.27
84839	7	Sololá	704	Santa Lucía Utatlán 	7	Santa Rita 	3	Marzo	2023-03-29T00:00:00	2024-11-08T15:00:00	1	Precipitación	0
84840	7	Sololá	704	Santa Lucía Utatlán 	7	Santa Rita 	3	Marzo	2023-03-29T00:00:00	2024-11-08T15:00:00	8	Radiación solar	790
84841	7	Sololá	704	Santa Lucía Utatlán 	7	Santa Rita 	3	Marzo	2023-03-29T00:00:00	2024-11-08T16:00:00	2	Temperatura media	24.5
84842	7	Sololá	704	Santa Lucía Utatlán 	7	Santa Rita 	3	Marzo	2023-03-29T00:00:00	2024-11-08T16:00:00	4	Temperatura máxima	25.1
84843	7	Sololá	704	Santa Lucía Utatlán 	7	Santa Rita 	3	Marzo	2023-03-29T00:00:00	2024-11-08T16:00:00	3	Temperatura mínima	24.2
84844	7	Sololá	704	Santa Lucía Utatlán 	7	Santa Rita 	3	Marzo	2023-03-29T00:00:00	2024-11-08T16:00:00	5	Humedad	47
84845	7	Sololá	704	Santa Lucía Utatlán 	7	Santa Rita 	3	Marzo	2023-03-29T00:00:00	2024-11-08T16:00:00	6	Velocidad del viento	11.3
84846	7	Sololá	704	Santa Lucía Utatlán 	7	Santa Rita 	3	Marzo	2023-03-29T00:00:00	2024-11-08T16:00:00	7	Dirección del viento	11.27
84847	7	Sololá	704	Santa Lucía Utatlán 	7	Santa Rita 	3	Marzo	2023-03-29T00:00:00	2024-11-08T16:00:00	1	Precipitación	0
84848	7	Sololá	704	Santa Lucía Utatlán 	7	Santa Rita 	3	Marzo	2023-03-29T00:00:00	2024-11-08T16:00:00	8	Radiación solar	444
84849	7	Sololá	704	Santa Lucía Utatlán 	7	Santa Rita 	3	Marzo	2023-03-29T00:00:00	2024-11-08T17:00:00	2	Temperatura media	24.5
84850	7	Sololá	704	Santa Lucía Utatlán 	7	Santa Rita 	3	Marzo	2023-03-29T00:00:00	2024-11-08T17:00:00	4	Temperatura máxima	24.6
84851	7	Sololá	704	Santa Lucía Utatlán 	7	Santa Rita 	3	Marzo	2023-03-29T00:00:00	2024-11-08T17:00:00	3	Temperatura mínima	23.8
84852	7	Sololá	704	Santa Lucía Utatlán 	7	Santa Rita 	3	Marzo	2023-03-29T00:00:00	2024-11-08T17:00:00	5	Humedad	44
84853	7	Sololá	704	Santa Lucía Utatlán 	7	Santa Rita 	3	Marzo	2023-03-29T00:00:00	2024-11-08T17:00:00	6	Velocidad del viento	12.9
84854	7	Sololá	704	Santa Lucía Utatlán 	7	Santa Rita 	3	Marzo	2023-03-29T00:00:00	2024-11-08T17:00:00	7	Dirección del viento	12.87
84855	7	Sololá	704	Santa Lucía Utatlán 	7	Santa Rita 	3	Marzo	2023-03-29T00:00:00	2024-11-08T17:00:00	1	Precipitación	0
84856	7	Sololá	704	Santa Lucía Utatlán 	7	Santa Rita 	3	Marzo	2023-03-29T00:00:00	2024-11-08T17:00:00	8	Radiación solar	263
84857	7	Sololá	704	Santa Lucía Utatlán 	7	Santa Rita 	3	Marzo	2023-03-29T00:00:00	2024-11-08T18:00:00	2	Temperatura media	22.9
84858	7	Sololá	704	Santa Lucía Utatlán 	7	Santa Rita 	3	Marzo	2023-03-29T00:00:00	2024-11-08T18:00:00	4	Temperatura máxima	24.5
84859	7	Sololá	704	Santa Lucía Utatlán 	7	Santa Rita 	3	Marzo	2023-03-29T00:00:00	2024-11-08T18:00:00	3	Temperatura mínima	22.8
84860	7	Sololá	704	Santa Lucía Utatlán 	7	Santa Rita 	3	Marzo	2023-03-29T00:00:00	2024-11-08T18:00:00	5	Humedad	49
84861	7	Sololá	704	Santa Lucía Utatlán 	7	Santa Rita 	3	Marzo	2023-03-29T00:00:00	2024-11-08T18:00:00	6	Velocidad del viento	12.9
84862	7	Sololá	704	Santa Lucía Utatlán 	7	Santa Rita 	3	Marzo	2023-03-29T00:00:00	2024-11-08T18:00:00	7	Dirección del viento	12.87
84863	7	Sololá	704	Santa Lucía Utatlán 	7	Santa Rita 	3	Marzo	2023-03-29T00:00:00	2024-11-08T18:00:00	1	Precipitación	0
84864	7	Sololá	704	Santa Lucía Utatlán 	7	Santa Rita 	3	Marzo	2023-03-29T00:00:00	2024-11-08T18:00:00	8	Radiación solar	57
84865	7	Sololá	704	Santa Lucía Utatlán 	7	Santa Rita 	3	Marzo	2023-03-29T00:00:00	2024-11-08T19:00:00	2	Temperatura media	20.9
84866	7	Sololá	704	Santa Lucía Utatlán 	7	Santa Rita 	3	Marzo	2023-03-29T00:00:00	2024-11-08T19:00:00	4	Temperatura máxima	22.9
84867	7	Sololá	704	Santa Lucía Utatlán 	7	Santa Rita 	3	Marzo	2023-03-29T00:00:00	2024-11-08T19:00:00	3	Temperatura mínima	20.9
84868	7	Sololá	704	Santa Lucía Utatlán 	7	Santa Rita 	3	Marzo	2023-03-29T00:00:00	2024-11-08T19:00:00	5	Humedad	57
84869	7	Sololá	704	Santa Lucía Utatlán 	7	Santa Rita 	3	Marzo	2023-03-29T00:00:00	2024-11-08T19:00:00	6	Velocidad del viento	8
84870	7	Sololá	704	Santa Lucía Utatlán 	7	Santa Rita 	3	Marzo	2023-03-29T00:00:00	2024-11-08T19:00:00	7	Dirección del viento	8.05
84871	7	Sololá	704	Santa Lucía Utatlán 	7	Santa Rita 	3	Marzo	2023-03-29T00:00:00	2024-11-08T19:00:00	1	Precipitación	0
84872	7	Sololá	704	Santa Lucía Utatlán 	7	Santa Rita 	3	Marzo	2023-03-29T00:00:00	2024-11-08T19:00:00	8	Radiación solar	0
84873	7	Sololá	704	Santa Lucía Utatlán 	7	Santa Rita 	3	Marzo	2023-03-29T00:00:00	2024-11-08T20:00:00	2	Temperatura media	19.2
84874	7	Sololá	704	Santa Lucía Utatlán 	7	Santa Rita 	3	Marzo	2023-03-29T00:00:00	2024-11-08T20:00:00	4	Temperatura máxima	20.9
84875	7	Sololá	704	Santa Lucía Utatlán 	7	Santa Rita 	3	Marzo	2023-03-29T00:00:00	2024-11-08T20:00:00	3	Temperatura mínima	19.2
84876	7	Sololá	704	Santa Lucía Utatlán 	7	Santa Rita 	3	Marzo	2023-03-29T00:00:00	2024-11-08T20:00:00	5	Humedad	64
84877	7	Sololá	704	Santa Lucía Utatlán 	7	Santa Rita 	3	Marzo	2023-03-29T00:00:00	2024-11-08T20:00:00	6	Velocidad del viento	4.8
84878	7	Sololá	704	Santa Lucía Utatlán 	7	Santa Rita 	3	Marzo	2023-03-29T00:00:00	2024-11-08T20:00:00	7	Dirección del viento	4.83
84879	7	Sololá	704	Santa Lucía Utatlán 	7	Santa Rita 	3	Marzo	2023-03-29T00:00:00	2024-11-08T20:00:00	1	Precipitación	0
84880	7	Sololá	704	Santa Lucía Utatlán 	7	Santa Rita 	3	Marzo	2023-03-29T00:00:00	2024-11-08T20:00:00	8	Radiación solar	0
84881	7	Sololá	704	Santa Lucía Utatlán 	7	Santa Rita 	3	Marzo	2023-03-29T00:00:00	2024-11-08T21:00:00	2	Temperatura media	18.6
84882	7	Sololá	704	Santa Lucía Utatlán 	7	Santa Rita 	3	Marzo	2023-03-29T00:00:00	2024-11-08T21:00:00	4	Temperatura máxima	19.3
84883	7	Sololá	704	Santa Lucía Utatlán 	7	Santa Rita 	3	Marzo	2023-03-29T00:00:00	2024-11-08T21:00:00	3	Temperatura mínima	18.6
84884	7	Sololá	704	Santa Lucía Utatlán 	7	Santa Rita 	3	Marzo	2023-03-29T00:00:00	2024-11-08T21:00:00	5	Humedad	62
84885	7	Sololá	704	Santa Lucía Utatlán 	7	Santa Rita 	3	Marzo	2023-03-29T00:00:00	2024-11-08T21:00:00	6	Velocidad del viento	6.4
84886	7	Sololá	704	Santa Lucía Utatlán 	7	Santa Rita 	3	Marzo	2023-03-29T00:00:00	2024-11-08T21:00:00	7	Dirección del viento	6.44
84887	7	Sololá	704	Santa Lucía Utatlán 	7	Santa Rita 	3	Marzo	2023-03-29T00:00:00	2024-11-08T21:00:00	1	Precipitación	0
84888	7	Sololá	704	Santa Lucía Utatlán 	7	Santa Rita 	3	Marzo	2023-03-29T00:00:00	2024-11-08T21:00:00	8	Radiación solar	0
84889	7	Sololá	704	Santa Lucía Utatlán 	7	Santa Rita 	3	Marzo	2023-03-29T00:00:00	2024-11-08T22:00:00	2	Temperatura media	18.4
84890	7	Sololá	704	Santa Lucía Utatlán 	7	Santa Rita 	3	Marzo	2023-03-29T00:00:00	2024-11-08T22:00:00	4	Temperatura máxima	18.8
84891	7	Sololá	704	Santa Lucía Utatlán 	7	Santa Rita 	3	Marzo	2023-03-29T00:00:00	2024-11-08T22:00:00	3	Temperatura mínima	18.4
84892	7	Sololá	704	Santa Lucía Utatlán 	7	Santa Rita 	3	Marzo	2023-03-29T00:00:00	2024-11-08T22:00:00	5	Humedad	55
84893	7	Sololá	704	Santa Lucía Utatlán 	7	Santa Rita 	3	Marzo	2023-03-29T00:00:00	2024-11-08T22:00:00	6	Velocidad del viento	8
84894	7	Sololá	704	Santa Lucía Utatlán 	7	Santa Rita 	3	Marzo	2023-03-29T00:00:00	2024-11-08T22:00:00	7	Dirección del viento	8.05
84895	7	Sololá	704	Santa Lucía Utatlán 	7	Santa Rita 	3	Marzo	2023-03-29T00:00:00	2024-11-08T22:00:00	1	Precipitación	0
84896	7	Sololá	704	Santa Lucía Utatlán 	7	Santa Rita 	3	Marzo	2023-03-29T00:00:00	2024-11-08T22:00:00	8	Radiación solar	0
84897	7	Sololá	704	Santa Lucía Utatlán 	7	Santa Rita 	3	Marzo	2023-03-29T00:00:00	2024-11-08T23:00:00	2	Temperatura media	18.4
84898	7	Sololá	704	Santa Lucía Utatlán 	7	Santa Rita 	3	Marzo	2023-03-29T00:00:00	2024-11-08T23:00:00	4	Temperatura máxima	19
84899	7	Sololá	704	Santa Lucía Utatlán 	7	Santa Rita 	3	Marzo	2023-03-29T00:00:00	2024-11-08T23:00:00	3	Temperatura mínima	18.3
84900	7	Sololá	704	Santa Lucía Utatlán 	7	Santa Rita 	3	Marzo	2023-03-29T00:00:00	2024-11-08T23:00:00	5	Humedad	47
84901	7	Sololá	704	Santa Lucía Utatlán 	7	Santa Rita 	3	Marzo	2023-03-29T00:00:00	2024-11-08T23:00:00	6	Velocidad del viento	16.1
84902	7	Sololá	704	Santa Lucía Utatlán 	7	Santa Rita 	3	Marzo	2023-03-29T00:00:00	2024-11-08T23:00:00	7	Dirección del viento	16.09
84903	7	Sololá	704	Santa Lucía Utatlán 	7	Santa Rita 	3	Marzo	2023-03-29T00:00:00	2024-11-08T23:00:00	1	Precipitación	0
84904	7	Sololá	704	Santa Lucía Utatlán 	7	Santa Rita 	3	Marzo	2023-03-29T00:00:00	2024-11-08T23:00:00	8	Radiación solar	0
84905	7	Sololá	704	Santa Lucía Utatlán 	7	Santa Rita 	3	Marzo	2023-03-30T00:00:00	2024-11-08T00:00:00	2	Temperatura media	16.9
84906	7	Sololá	704	Santa Lucía Utatlán 	7	Santa Rita 	3	Marzo	2023-03-30T00:00:00	2024-11-08T00:00:00	4	Temperatura máxima	19.9
84907	7	Sololá	704	Santa Lucía Utatlán 	7	Santa Rita 	3	Marzo	2023-03-30T00:00:00	2024-11-08T00:00:00	3	Temperatura mínima	16.9
84908	7	Sololá	704	Santa Lucía Utatlán 	7	Santa Rita 	3	Marzo	2023-03-30T00:00:00	2024-11-08T00:00:00	5	Humedad	48
84909	7	Sololá	704	Santa Lucía Utatlán 	7	Santa Rita 	3	Marzo	2023-03-30T00:00:00	2024-11-08T00:00:00	6	Velocidad del viento	9.7
84910	7	Sololá	704	Santa Lucía Utatlán 	7	Santa Rita 	3	Marzo	2023-03-30T00:00:00	2024-11-08T00:00:00	7	Dirección del viento	9.66
84911	7	Sololá	704	Santa Lucía Utatlán 	7	Santa Rita 	3	Marzo	2023-03-30T00:00:00	2024-11-08T00:00:00	1	Precipitación	0
84912	7	Sololá	704	Santa Lucía Utatlán 	7	Santa Rita 	3	Marzo	2023-03-30T00:00:00	2024-11-08T00:00:00	8	Radiación solar	0
84913	7	Sololá	704	Santa Lucía Utatlán 	7	Santa Rita 	3	Marzo	2023-03-30T00:00:00	2024-11-08T01:00:00	2	Temperatura media	14.9
84914	7	Sololá	704	Santa Lucía Utatlán 	7	Santa Rita 	3	Marzo	2023-03-30T00:00:00	2024-11-08T01:00:00	4	Temperatura máxima	17
84915	7	Sololá	704	Santa Lucía Utatlán 	7	Santa Rita 	3	Marzo	2023-03-30T00:00:00	2024-11-08T01:00:00	3	Temperatura mínima	14.9
84916	7	Sololá	704	Santa Lucía Utatlán 	7	Santa Rita 	3	Marzo	2023-03-30T00:00:00	2024-11-08T01:00:00	5	Humedad	60
84917	7	Sololá	704	Santa Lucía Utatlán 	7	Santa Rita 	3	Marzo	2023-03-30T00:00:00	2024-11-08T01:00:00	6	Velocidad del viento	3.2
84918	7	Sololá	704	Santa Lucía Utatlán 	7	Santa Rita 	3	Marzo	2023-03-30T00:00:00	2024-11-08T01:00:00	7	Dirección del viento	3.22
84919	7	Sololá	704	Santa Lucía Utatlán 	7	Santa Rita 	3	Marzo	2023-03-30T00:00:00	2024-11-08T01:00:00	1	Precipitación	0
84920	7	Sololá	704	Santa Lucía Utatlán 	7	Santa Rita 	3	Marzo	2023-03-30T00:00:00	2024-11-08T01:00:00	8	Radiación solar	0
84921	7	Sololá	704	Santa Lucía Utatlán 	7	Santa Rita 	3	Marzo	2023-03-30T00:00:00	2024-11-08T02:00:00	2	Temperatura media	13.6
84922	7	Sololá	704	Santa Lucía Utatlán 	7	Santa Rita 	3	Marzo	2023-03-30T00:00:00	2024-11-08T02:00:00	4	Temperatura máxima	14.9
84923	7	Sololá	704	Santa Lucía Utatlán 	7	Santa Rita 	3	Marzo	2023-03-30T00:00:00	2024-11-08T02:00:00	3	Temperatura mínima	13.4
84924	7	Sololá	704	Santa Lucía Utatlán 	7	Santa Rita 	3	Marzo	2023-03-30T00:00:00	2024-11-08T02:00:00	5	Humedad	62
84925	7	Sololá	704	Santa Lucía Utatlán 	7	Santa Rita 	3	Marzo	2023-03-30T00:00:00	2024-11-08T02:00:00	6	Velocidad del viento	3.2
84926	7	Sololá	704	Santa Lucía Utatlán 	7	Santa Rita 	3	Marzo	2023-03-30T00:00:00	2024-11-08T02:00:00	7	Dirección del viento	3.22
84927	7	Sololá	704	Santa Lucía Utatlán 	7	Santa Rita 	3	Marzo	2023-03-30T00:00:00	2024-11-08T02:00:00	1	Precipitación	0
84928	7	Sololá	704	Santa Lucía Utatlán 	7	Santa Rita 	3	Marzo	2023-03-30T00:00:00	2024-11-08T02:00:00	8	Radiación solar	0
84929	7	Sololá	704	Santa Lucía Utatlán 	7	Santa Rita 	3	Marzo	2023-03-30T00:00:00	2024-11-08T03:00:00	2	Temperatura media	13
84930	7	Sololá	704	Santa Lucía Utatlán 	7	Santa Rita 	3	Marzo	2023-03-30T00:00:00	2024-11-08T03:00:00	4	Temperatura máxima	13.6
84931	7	Sololá	704	Santa Lucía Utatlán 	7	Santa Rita 	3	Marzo	2023-03-30T00:00:00	2024-11-08T03:00:00	3	Temperatura mínima	13
84932	7	Sololá	704	Santa Lucía Utatlán 	7	Santa Rita 	3	Marzo	2023-03-30T00:00:00	2024-11-08T03:00:00	5	Humedad	67
84933	7	Sololá	704	Santa Lucía Utatlán 	7	Santa Rita 	3	Marzo	2023-03-30T00:00:00	2024-11-08T03:00:00	6	Velocidad del viento	3.2
84934	7	Sololá	704	Santa Lucía Utatlán 	7	Santa Rita 	3	Marzo	2023-03-30T00:00:00	2024-11-08T03:00:00	7	Dirección del viento	3.22
84935	7	Sololá	704	Santa Lucía Utatlán 	7	Santa Rita 	3	Marzo	2023-03-30T00:00:00	2024-11-08T03:00:00	1	Precipitación	0
84936	7	Sololá	704	Santa Lucía Utatlán 	7	Santa Rita 	3	Marzo	2023-03-30T00:00:00	2024-11-08T03:00:00	8	Radiación solar	0
84937	7	Sololá	704	Santa Lucía Utatlán 	7	Santa Rita 	3	Marzo	2023-03-30T00:00:00	2024-11-08T04:00:00	2	Temperatura media	15.6
84938	7	Sololá	704	Santa Lucía Utatlán 	7	Santa Rita 	3	Marzo	2023-03-30T00:00:00	2024-11-08T04:00:00	4	Temperatura máxima	16.1
84939	7	Sololá	704	Santa Lucía Utatlán 	7	Santa Rita 	3	Marzo	2023-03-30T00:00:00	2024-11-08T04:00:00	3	Temperatura mínima	12.8
84940	7	Sololá	704	Santa Lucía Utatlán 	7	Santa Rita 	3	Marzo	2023-03-30T00:00:00	2024-11-08T04:00:00	5	Humedad	54
84941	7	Sololá	704	Santa Lucía Utatlán 	7	Santa Rita 	3	Marzo	2023-03-30T00:00:00	2024-11-08T04:00:00	6	Velocidad del viento	3.2
84942	7	Sololá	704	Santa Lucía Utatlán 	7	Santa Rita 	3	Marzo	2023-03-30T00:00:00	2024-11-08T04:00:00	7	Dirección del viento	3.22
84943	7	Sololá	704	Santa Lucía Utatlán 	7	Santa Rita 	3	Marzo	2023-03-30T00:00:00	2024-11-08T04:00:00	1	Precipitación	0
84944	7	Sololá	704	Santa Lucía Utatlán 	7	Santa Rita 	3	Marzo	2023-03-30T00:00:00	2024-11-08T04:00:00	8	Radiación solar	0
84945	7	Sololá	704	Santa Lucía Utatlán 	7	Santa Rita 	3	Marzo	2023-03-30T00:00:00	2024-11-08T05:00:00	2	Temperatura media	14.6
84946	7	Sololá	704	Santa Lucía Utatlán 	7	Santa Rita 	3	Marzo	2023-03-30T00:00:00	2024-11-08T05:00:00	4	Temperatura máxima	17
84947	7	Sololá	704	Santa Lucía Utatlán 	7	Santa Rita 	3	Marzo	2023-03-30T00:00:00	2024-11-08T05:00:00	3	Temperatura mínima	14.6
84948	7	Sololá	704	Santa Lucía Utatlán 	7	Santa Rita 	3	Marzo	2023-03-30T00:00:00	2024-11-08T05:00:00	5	Humedad	53
84949	7	Sololá	704	Santa Lucía Utatlán 	7	Santa Rita 	3	Marzo	2023-03-30T00:00:00	2024-11-08T05:00:00	6	Velocidad del viento	4.8
84950	7	Sololá	704	Santa Lucía Utatlán 	7	Santa Rita 	3	Marzo	2023-03-30T00:00:00	2024-11-08T05:00:00	7	Dirección del viento	4.83
84951	7	Sololá	704	Santa Lucía Utatlán 	7	Santa Rita 	3	Marzo	2023-03-30T00:00:00	2024-11-08T05:00:00	1	Precipitación	0
84952	7	Sololá	704	Santa Lucía Utatlán 	7	Santa Rita 	3	Marzo	2023-03-30T00:00:00	2024-11-08T05:00:00	8	Radiación solar	0
84953	7	Sololá	704	Santa Lucía Utatlán 	7	Santa Rita 	3	Marzo	2023-03-30T00:00:00	2024-11-08T06:00:00	2	Temperatura media	12.9
84954	7	Sololá	704	Santa Lucía Utatlán 	7	Santa Rita 	3	Marzo	2023-03-30T00:00:00	2024-11-08T06:00:00	4	Temperatura máxima	14.6
84955	7	Sololá	704	Santa Lucía Utatlán 	7	Santa Rita 	3	Marzo	2023-03-30T00:00:00	2024-11-08T06:00:00	3	Temperatura mínima	12.8
84956	7	Sololá	704	Santa Lucía Utatlán 	7	Santa Rita 	3	Marzo	2023-03-30T00:00:00	2024-11-08T06:00:00	5	Humedad	60
84957	7	Sololá	704	Santa Lucía Utatlán 	7	Santa Rita 	3	Marzo	2023-03-30T00:00:00	2024-11-08T06:00:00	6	Velocidad del viento	3.2
84958	7	Sololá	704	Santa Lucía Utatlán 	7	Santa Rita 	3	Marzo	2023-03-30T00:00:00	2024-11-08T06:00:00	7	Dirección del viento	3.22
84959	7	Sololá	704	Santa Lucía Utatlán 	7	Santa Rita 	3	Marzo	2023-03-30T00:00:00	2024-11-08T06:00:00	1	Precipitación	0
84960	7	Sololá	704	Santa Lucía Utatlán 	7	Santa Rita 	3	Marzo	2023-03-30T00:00:00	2024-11-08T06:00:00	8	Radiación solar	0
84961	7	Sololá	704	Santa Lucía Utatlán 	7	Santa Rita 	3	Marzo	2023-03-30T00:00:00	2024-11-08T07:00:00	2	Temperatura media	12.4
84962	7	Sololá	704	Santa Lucía Utatlán 	7	Santa Rita 	3	Marzo	2023-03-30T00:00:00	2024-11-08T07:00:00	4	Temperatura máxima	12.9
84963	7	Sololá	704	Santa Lucía Utatlán 	7	Santa Rita 	3	Marzo	2023-03-30T00:00:00	2024-11-08T07:00:00	3	Temperatura mínima	12.3
84964	7	Sololá	704	Santa Lucía Utatlán 	7	Santa Rita 	3	Marzo	2023-03-30T00:00:00	2024-11-08T07:00:00	5	Humedad	57
84965	7	Sololá	704	Santa Lucía Utatlán 	7	Santa Rita 	3	Marzo	2023-03-30T00:00:00	2024-11-08T07:00:00	6	Velocidad del viento	3.2
84966	7	Sololá	704	Santa Lucía Utatlán 	7	Santa Rita 	3	Marzo	2023-03-30T00:00:00	2024-11-08T07:00:00	7	Dirección del viento	3.22
84967	7	Sololá	704	Santa Lucía Utatlán 	7	Santa Rita 	3	Marzo	2023-03-30T00:00:00	2024-11-08T07:00:00	1	Precipitación	0
84968	7	Sololá	704	Santa Lucía Utatlán 	7	Santa Rita 	3	Marzo	2023-03-30T00:00:00	2024-11-08T07:00:00	8	Radiación solar	69
84969	7	Sololá	704	Santa Lucía Utatlán 	7	Santa Rita 	3	Marzo	2023-03-30T00:00:00	2024-11-08T08:00:00	2	Temperatura media	15.6
84970	7	Sololá	704	Santa Lucía Utatlán 	7	Santa Rita 	3	Marzo	2023-03-30T00:00:00	2024-11-08T08:00:00	4	Temperatura máxima	15.6
84971	7	Sololá	704	Santa Lucía Utatlán 	7	Santa Rita 	3	Marzo	2023-03-30T00:00:00	2024-11-08T08:00:00	3	Temperatura mínima	12.4
84972	7	Sololá	704	Santa Lucía Utatlán 	7	Santa Rita 	3	Marzo	2023-03-30T00:00:00	2024-11-08T08:00:00	5	Humedad	50
84973	7	Sololá	704	Santa Lucía Utatlán 	7	Santa Rita 	3	Marzo	2023-03-30T00:00:00	2024-11-08T08:00:00	6	Velocidad del viento	3.2
84974	7	Sololá	704	Santa Lucía Utatlán 	7	Santa Rita 	3	Marzo	2023-03-30T00:00:00	2024-11-08T08:00:00	7	Dirección del viento	3.22
84975	7	Sololá	704	Santa Lucía Utatlán 	7	Santa Rita 	3	Marzo	2023-03-30T00:00:00	2024-11-08T08:00:00	1	Precipitación	0
84976	7	Sololá	704	Santa Lucía Utatlán 	7	Santa Rita 	3	Marzo	2023-03-30T00:00:00	2024-11-08T08:00:00	8	Radiación solar	370
84977	7	Sololá	704	Santa Lucía Utatlán 	7	Santa Rita 	3	Marzo	2023-03-30T00:00:00	2024-11-08T09:00:00	2	Temperatura media	19.1
84978	7	Sololá	704	Santa Lucía Utatlán 	7	Santa Rita 	3	Marzo	2023-03-30T00:00:00	2024-11-08T09:00:00	4	Temperatura máxima	19.1
84979	7	Sololá	704	Santa Lucía Utatlán 	7	Santa Rita 	3	Marzo	2023-03-30T00:00:00	2024-11-08T09:00:00	3	Temperatura mínima	15.6
84980	7	Sololá	704	Santa Lucía Utatlán 	7	Santa Rita 	3	Marzo	2023-03-30T00:00:00	2024-11-08T09:00:00	5	Humedad	44
84981	7	Sololá	704	Santa Lucía Utatlán 	7	Santa Rita 	3	Marzo	2023-03-30T00:00:00	2024-11-08T09:00:00	6	Velocidad del viento	3.2
84982	7	Sololá	704	Santa Lucía Utatlán 	7	Santa Rita 	3	Marzo	2023-03-30T00:00:00	2024-11-08T09:00:00	7	Dirección del viento	3.22
84983	7	Sololá	704	Santa Lucía Utatlán 	7	Santa Rita 	3	Marzo	2023-03-30T00:00:00	2024-11-08T09:00:00	1	Precipitación	0
84984	7	Sololá	704	Santa Lucía Utatlán 	7	Santa Rita 	3	Marzo	2023-03-30T00:00:00	2024-11-08T09:00:00	8	Radiación solar	620
84985	7	Sololá	704	Santa Lucía Utatlán 	7	Santa Rita 	3	Marzo	2023-03-30T00:00:00	2024-11-08T10:00:00	2	Temperatura media	22.7
84986	7	Sololá	704	Santa Lucía Utatlán 	7	Santa Rita 	3	Marzo	2023-03-30T00:00:00	2024-11-08T10:00:00	4	Temperatura máxima	22.9
84987	7	Sololá	704	Santa Lucía Utatlán 	7	Santa Rita 	3	Marzo	2023-03-30T00:00:00	2024-11-08T10:00:00	3	Temperatura mínima	19.1
84988	7	Sololá	704	Santa Lucía Utatlán 	7	Santa Rita 	3	Marzo	2023-03-30T00:00:00	2024-11-08T10:00:00	5	Humedad	35
84989	7	Sololá	704	Santa Lucía Utatlán 	7	Santa Rita 	3	Marzo	2023-03-30T00:00:00	2024-11-08T10:00:00	6	Velocidad del viento	6.4
84990	7	Sololá	704	Santa Lucía Utatlán 	7	Santa Rita 	3	Marzo	2023-03-30T00:00:00	2024-11-08T10:00:00	7	Dirección del viento	6.44
84991	7	Sololá	704	Santa Lucía Utatlán 	7	Santa Rita 	3	Marzo	2023-03-30T00:00:00	2024-11-08T10:00:00	1	Precipitación	0
84992	7	Sololá	704	Santa Lucía Utatlán 	7	Santa Rita 	3	Marzo	2023-03-30T00:00:00	2024-11-08T10:00:00	8	Radiación solar	824
84993	7	Sololá	704	Santa Lucía Utatlán 	7	Santa Rita 	3	Marzo	2023-03-30T00:00:00	2024-11-08T11:00:00	2	Temperatura media	22.6
84994	7	Sololá	704	Santa Lucía Utatlán 	7	Santa Rita 	3	Marzo	2023-03-30T00:00:00	2024-11-08T11:00:00	4	Temperatura máxima	23.3
84995	7	Sololá	704	Santa Lucía Utatlán 	7	Santa Rita 	3	Marzo	2023-03-30T00:00:00	2024-11-08T11:00:00	3	Temperatura mínima	22.2
84996	7	Sololá	704	Santa Lucía Utatlán 	7	Santa Rita 	3	Marzo	2023-03-30T00:00:00	2024-11-08T11:00:00	5	Humedad	35
84997	7	Sololá	704	Santa Lucía Utatlán 	7	Santa Rita 	3	Marzo	2023-03-30T00:00:00	2024-11-08T11:00:00	6	Velocidad del viento	11.3
84998	7	Sololá	704	Santa Lucía Utatlán 	7	Santa Rita 	3	Marzo	2023-03-30T00:00:00	2024-11-08T11:00:00	7	Dirección del viento	11.27
84999	7	Sololá	704	Santa Lucía Utatlán 	7	Santa Rita 	3	Marzo	2023-03-30T00:00:00	2024-11-08T11:00:00	1	Precipitación	0
85000	7	Sololá	704	Santa Lucía Utatlán 	7	Santa Rita 	3	Marzo	2023-03-30T00:00:00	2024-11-08T11:00:00	8	Radiación solar	972
85001	7	Sololá	704	Santa Lucía Utatlán 	7	Santa Rita 	3	Marzo	2023-03-30T00:00:00	2024-11-08T12:00:00	2	Temperatura media	23.4
85002	7	Sololá	704	Santa Lucía Utatlán 	7	Santa Rita 	3	Marzo	2023-03-30T00:00:00	2024-11-08T12:00:00	4	Temperatura máxima	23.6
85003	7	Sololá	704	Santa Lucía Utatlán 	7	Santa Rita 	3	Marzo	2023-03-30T00:00:00	2024-11-08T12:00:00	3	Temperatura mínima	22.4
85004	7	Sololá	704	Santa Lucía Utatlán 	7	Santa Rita 	3	Marzo	2023-03-30T00:00:00	2024-11-08T12:00:00	5	Humedad	43
85005	7	Sololá	704	Santa Lucía Utatlán 	7	Santa Rita 	3	Marzo	2023-03-30T00:00:00	2024-11-08T12:00:00	6	Velocidad del viento	11.3
85006	7	Sololá	704	Santa Lucía Utatlán 	7	Santa Rita 	3	Marzo	2023-03-30T00:00:00	2024-11-08T12:00:00	7	Dirección del viento	11.27
85007	7	Sololá	704	Santa Lucía Utatlán 	7	Santa Rita 	3	Marzo	2023-03-30T00:00:00	2024-11-08T12:00:00	1	Precipitación	0
85008	7	Sololá	704	Santa Lucía Utatlán 	7	Santa Rita 	3	Marzo	2023-03-30T00:00:00	2024-11-08T12:00:00	8	Radiación solar	1038
85009	7	Sololá	704	Santa Lucía Utatlán 	7	Santa Rita 	3	Marzo	2023-03-30T00:00:00	2024-11-08T13:00:00	2	Temperatura media	23.2
85010	7	Sololá	704	Santa Lucía Utatlán 	7	Santa Rita 	3	Marzo	2023-03-30T00:00:00	2024-11-08T13:00:00	4	Temperatura máxima	23.7
85011	7	Sololá	704	Santa Lucía Utatlán 	7	Santa Rita 	3	Marzo	2023-03-30T00:00:00	2024-11-08T13:00:00	3	Temperatura mínima	22.6
85012	7	Sololá	704	Santa Lucía Utatlán 	7	Santa Rita 	3	Marzo	2023-03-30T00:00:00	2024-11-08T13:00:00	5	Humedad	44
85013	7	Sololá	704	Santa Lucía Utatlán 	7	Santa Rita 	3	Marzo	2023-03-30T00:00:00	2024-11-08T13:00:00	6	Velocidad del viento	14.5
85014	7	Sololá	704	Santa Lucía Utatlán 	7	Santa Rita 	3	Marzo	2023-03-30T00:00:00	2024-11-08T13:00:00	7	Dirección del viento	14.48
85015	7	Sololá	704	Santa Lucía Utatlán 	7	Santa Rita 	3	Marzo	2023-03-30T00:00:00	2024-11-08T13:00:00	1	Precipitación	0
85016	7	Sololá	704	Santa Lucía Utatlán 	7	Santa Rita 	3	Marzo	2023-03-30T00:00:00	2024-11-08T13:00:00	8	Radiación solar	1030
85017	7	Sololá	704	Santa Lucía Utatlán 	7	Santa Rita 	3	Marzo	2023-03-30T00:00:00	2024-11-08T14:00:00	2	Temperatura media	24.1
85018	7	Sololá	704	Santa Lucía Utatlán 	7	Santa Rita 	3	Marzo	2023-03-30T00:00:00	2024-11-08T14:00:00	4	Temperatura máxima	24.4
85019	7	Sololá	704	Santa Lucía Utatlán 	7	Santa Rita 	3	Marzo	2023-03-30T00:00:00	2024-11-08T14:00:00	3	Temperatura mínima	23.2
85020	7	Sololá	704	Santa Lucía Utatlán 	7	Santa Rita 	3	Marzo	2023-03-30T00:00:00	2024-11-08T14:00:00	5	Humedad	44
85021	7	Sololá	704	Santa Lucía Utatlán 	7	Santa Rita 	3	Marzo	2023-03-30T00:00:00	2024-11-08T14:00:00	6	Velocidad del viento	12.9
85022	7	Sololá	704	Santa Lucía Utatlán 	7	Santa Rita 	3	Marzo	2023-03-30T00:00:00	2024-11-08T14:00:00	7	Dirección del viento	12.87
85023	7	Sololá	704	Santa Lucía Utatlán 	7	Santa Rita 	3	Marzo	2023-03-30T00:00:00	2024-11-08T14:00:00	1	Precipitación	0
85024	7	Sololá	704	Santa Lucía Utatlán 	7	Santa Rita 	3	Marzo	2023-03-30T00:00:00	2024-11-08T14:00:00	8	Radiación solar	952
85025	7	Sololá	704	Santa Lucía Utatlán 	7	Santa Rita 	3	Marzo	2023-03-30T00:00:00	2024-11-08T15:00:00	2	Temperatura media	24.7
85026	7	Sololá	704	Santa Lucía Utatlán 	7	Santa Rita 	3	Marzo	2023-03-30T00:00:00	2024-11-08T15:00:00	4	Temperatura máxima	24.7
85027	7	Sololá	704	Santa Lucía Utatlán 	7	Santa Rita 	3	Marzo	2023-03-30T00:00:00	2024-11-08T15:00:00	3	Temperatura mínima	24
85028	7	Sololá	704	Santa Lucía Utatlán 	7	Santa Rita 	3	Marzo	2023-03-30T00:00:00	2024-11-08T15:00:00	5	Humedad	39
85029	7	Sololá	704	Santa Lucía Utatlán 	7	Santa Rita 	3	Marzo	2023-03-30T00:00:00	2024-11-08T15:00:00	6	Velocidad del viento	11.3
85030	7	Sololá	704	Santa Lucía Utatlán 	7	Santa Rita 	3	Marzo	2023-03-30T00:00:00	2024-11-08T15:00:00	7	Dirección del viento	11.27
85031	7	Sololá	704	Santa Lucía Utatlán 	7	Santa Rita 	3	Marzo	2023-03-30T00:00:00	2024-11-08T15:00:00	1	Precipitación	0
85032	7	Sololá	704	Santa Lucía Utatlán 	7	Santa Rita 	3	Marzo	2023-03-30T00:00:00	2024-11-08T15:00:00	8	Radiación solar	783
85033	7	Sololá	704	Santa Lucía Utatlán 	7	Santa Rita 	3	Marzo	2023-03-30T00:00:00	2024-11-08T16:00:00	2	Temperatura media	25.1
85034	7	Sololá	704	Santa Lucía Utatlán 	7	Santa Rita 	3	Marzo	2023-03-30T00:00:00	2024-11-08T16:00:00	4	Temperatura máxima	25.2
85035	7	Sololá	704	Santa Lucía Utatlán 	7	Santa Rita 	3	Marzo	2023-03-30T00:00:00	2024-11-08T16:00:00	3	Temperatura mínima	24.2
85036	7	Sololá	704	Santa Lucía Utatlán 	7	Santa Rita 	3	Marzo	2023-03-30T00:00:00	2024-11-08T16:00:00	5	Humedad	41
85037	7	Sololá	704	Santa Lucía Utatlán 	7	Santa Rita 	3	Marzo	2023-03-30T00:00:00	2024-11-08T16:00:00	6	Velocidad del viento	11.3
85038	7	Sololá	704	Santa Lucía Utatlán 	7	Santa Rita 	3	Marzo	2023-03-30T00:00:00	2024-11-08T16:00:00	7	Dirección del viento	11.27
85039	7	Sololá	704	Santa Lucía Utatlán 	7	Santa Rita 	3	Marzo	2023-03-30T00:00:00	2024-11-08T16:00:00	1	Precipitación	0
85040	7	Sololá	704	Santa Lucía Utatlán 	7	Santa Rita 	3	Marzo	2023-03-30T00:00:00	2024-11-08T16:00:00	8	Radiación solar	457
85041	7	Sololá	704	Santa Lucía Utatlán 	7	Santa Rita 	3	Marzo	2023-03-30T00:00:00	2024-11-08T17:00:00	2	Temperatura media	23.9
85042	7	Sololá	704	Santa Lucía Utatlán 	7	Santa Rita 	3	Marzo	2023-03-30T00:00:00	2024-11-08T17:00:00	4	Temperatura máxima	25
85043	7	Sololá	704	Santa Lucía Utatlán 	7	Santa Rita 	3	Marzo	2023-03-30T00:00:00	2024-11-08T17:00:00	3	Temperatura mínima	23.9
85044	7	Sololá	704	Santa Lucía Utatlán 	7	Santa Rita 	3	Marzo	2023-03-30T00:00:00	2024-11-08T17:00:00	5	Humedad	39
85045	7	Sololá	704	Santa Lucía Utatlán 	7	Santa Rita 	3	Marzo	2023-03-30T00:00:00	2024-11-08T17:00:00	6	Velocidad del viento	12.9
85046	7	Sololá	704	Santa Lucía Utatlán 	7	Santa Rita 	3	Marzo	2023-03-30T00:00:00	2024-11-08T17:00:00	7	Dirección del viento	12.87
85047	7	Sololá	704	Santa Lucía Utatlán 	7	Santa Rita 	3	Marzo	2023-03-30T00:00:00	2024-11-08T17:00:00	1	Precipitación	0
85048	7	Sololá	704	Santa Lucía Utatlán 	7	Santa Rita 	3	Marzo	2023-03-30T00:00:00	2024-11-08T17:00:00	8	Radiación solar	268
85049	7	Sololá	704	Santa Lucía Utatlán 	7	Santa Rita 	3	Marzo	2023-03-30T00:00:00	2024-11-08T18:00:00	2	Temperatura media	23.2
85050	7	Sololá	704	Santa Lucía Utatlán 	7	Santa Rita 	3	Marzo	2023-03-30T00:00:00	2024-11-08T18:00:00	4	Temperatura máxima	24.1
85051	7	Sololá	704	Santa Lucía Utatlán 	7	Santa Rita 	3	Marzo	2023-03-30T00:00:00	2024-11-08T18:00:00	3	Temperatura mínima	23
85052	7	Sololá	704	Santa Lucía Utatlán 	7	Santa Rita 	3	Marzo	2023-03-30T00:00:00	2024-11-08T18:00:00	5	Humedad	45
85053	7	Sololá	704	Santa Lucía Utatlán 	7	Santa Rita 	3	Marzo	2023-03-30T00:00:00	2024-11-08T18:00:00	6	Velocidad del viento	11.3
85054	7	Sololá	704	Santa Lucía Utatlán 	7	Santa Rita 	3	Marzo	2023-03-30T00:00:00	2024-11-08T18:00:00	7	Dirección del viento	11.27
85055	7	Sololá	704	Santa Lucía Utatlán 	7	Santa Rita 	3	Marzo	2023-03-30T00:00:00	2024-11-08T18:00:00	1	Precipitación	0
85056	7	Sololá	704	Santa Lucía Utatlán 	7	Santa Rita 	3	Marzo	2023-03-30T00:00:00	2024-11-08T18:00:00	8	Radiación solar	54
85057	7	Sololá	704	Santa Lucía Utatlán 	7	Santa Rita 	3	Marzo	2023-03-30T00:00:00	2024-11-08T19:00:00	2	Temperatura media	21.4
85058	7	Sololá	704	Santa Lucía Utatlán 	7	Santa Rita 	3	Marzo	2023-03-30T00:00:00	2024-11-08T19:00:00	4	Temperatura máxima	23.3
85059	7	Sololá	704	Santa Lucía Utatlán 	7	Santa Rita 	3	Marzo	2023-03-30T00:00:00	2024-11-08T19:00:00	3	Temperatura mínima	21.4
85060	7	Sololá	704	Santa Lucía Utatlán 	7	Santa Rita 	3	Marzo	2023-03-30T00:00:00	2024-11-08T19:00:00	5	Humedad	58
85061	7	Sololá	704	Santa Lucía Utatlán 	7	Santa Rita 	3	Marzo	2023-03-30T00:00:00	2024-11-08T19:00:00	6	Velocidad del viento	6.4
85062	7	Sololá	704	Santa Lucía Utatlán 	7	Santa Rita 	3	Marzo	2023-03-30T00:00:00	2024-11-08T19:00:00	7	Dirección del viento	6.44
85063	7	Sololá	704	Santa Lucía Utatlán 	7	Santa Rita 	3	Marzo	2023-03-30T00:00:00	2024-11-08T19:00:00	1	Precipitación	0
85064	7	Sololá	704	Santa Lucía Utatlán 	7	Santa Rita 	3	Marzo	2023-03-30T00:00:00	2024-11-08T19:00:00	8	Radiación solar	0
85065	7	Sololá	704	Santa Lucía Utatlán 	7	Santa Rita 	3	Marzo	2023-03-30T00:00:00	2024-11-08T20:00:00	2	Temperatura media	19.9
85066	7	Sololá	704	Santa Lucía Utatlán 	7	Santa Rita 	3	Marzo	2023-03-30T00:00:00	2024-11-08T20:00:00	4	Temperatura máxima	21.4
85067	7	Sololá	704	Santa Lucía Utatlán 	7	Santa Rita 	3	Marzo	2023-03-30T00:00:00	2024-11-08T20:00:00	3	Temperatura mínima	19.9
85068	7	Sololá	704	Santa Lucía Utatlán 	7	Santa Rita 	3	Marzo	2023-03-30T00:00:00	2024-11-08T20:00:00	5	Humedad	65
85069	7	Sololá	704	Santa Lucía Utatlán 	7	Santa Rita 	3	Marzo	2023-03-30T00:00:00	2024-11-08T20:00:00	6	Velocidad del viento	3.2
85070	7	Sololá	704	Santa Lucía Utatlán 	7	Santa Rita 	3	Marzo	2023-03-30T00:00:00	2024-11-08T20:00:00	7	Dirección del viento	3.22
85071	7	Sololá	704	Santa Lucía Utatlán 	7	Santa Rita 	3	Marzo	2023-03-30T00:00:00	2024-11-08T20:00:00	1	Precipitación	0
85072	7	Sololá	704	Santa Lucía Utatlán 	7	Santa Rita 	3	Marzo	2023-03-30T00:00:00	2024-11-08T20:00:00	8	Radiación solar	0
85073	7	Sololá	704	Santa Lucía Utatlán 	7	Santa Rita 	3	Marzo	2023-03-30T00:00:00	2024-11-08T21:00:00	2	Temperatura media	17.8
85074	7	Sololá	704	Santa Lucía Utatlán 	7	Santa Rita 	3	Marzo	2023-03-30T00:00:00	2024-11-08T21:00:00	4	Temperatura máxima	19.9
85075	7	Sololá	704	Santa Lucía Utatlán 	7	Santa Rita 	3	Marzo	2023-03-30T00:00:00	2024-11-08T21:00:00	3	Temperatura mínima	17.8
85076	7	Sololá	704	Santa Lucía Utatlán 	7	Santa Rita 	3	Marzo	2023-03-30T00:00:00	2024-11-08T21:00:00	5	Humedad	75
85077	7	Sololá	704	Santa Lucía Utatlán 	7	Santa Rita 	3	Marzo	2023-03-30T00:00:00	2024-11-08T21:00:00	6	Velocidad del viento	4.8
85078	7	Sololá	704	Santa Lucía Utatlán 	7	Santa Rita 	3	Marzo	2023-03-30T00:00:00	2024-11-08T21:00:00	7	Dirección del viento	4.83
85079	7	Sololá	704	Santa Lucía Utatlán 	7	Santa Rita 	3	Marzo	2023-03-30T00:00:00	2024-11-08T21:00:00	1	Precipitación	0
85080	7	Sololá	704	Santa Lucía Utatlán 	7	Santa Rita 	3	Marzo	2023-03-30T00:00:00	2024-11-08T21:00:00	8	Radiación solar	0
85081	7	Sololá	704	Santa Lucía Utatlán 	7	Santa Rita 	3	Marzo	2023-03-30T00:00:00	2024-11-08T22:00:00	2	Temperatura media	16.7
85082	7	Sololá	704	Santa Lucía Utatlán 	7	Santa Rita 	3	Marzo	2023-03-30T00:00:00	2024-11-08T22:00:00	4	Temperatura máxima	17.8
85083	7	Sololá	704	Santa Lucía Utatlán 	7	Santa Rita 	3	Marzo	2023-03-30T00:00:00	2024-11-08T22:00:00	3	Temperatura mínima	16.7
85084	7	Sololá	704	Santa Lucía Utatlán 	7	Santa Rita 	3	Marzo	2023-03-30T00:00:00	2024-11-08T22:00:00	5	Humedad	80
85085	7	Sololá	704	Santa Lucía Utatlán 	7	Santa Rita 	3	Marzo	2023-03-30T00:00:00	2024-11-08T22:00:00	6	Velocidad del viento	3.2
85086	7	Sololá	704	Santa Lucía Utatlán 	7	Santa Rita 	3	Marzo	2023-03-30T00:00:00	2024-11-08T22:00:00	7	Dirección del viento	3.22
85087	7	Sololá	704	Santa Lucía Utatlán 	7	Santa Rita 	3	Marzo	2023-03-30T00:00:00	2024-11-08T22:00:00	1	Precipitación	0
85088	7	Sololá	704	Santa Lucía Utatlán 	7	Santa Rita 	3	Marzo	2023-03-30T00:00:00	2024-11-08T22:00:00	8	Radiación solar	0
85089	7	Sololá	704	Santa Lucía Utatlán 	7	Santa Rita 	3	Marzo	2023-03-30T00:00:00	2024-11-08T23:00:00	2	Temperatura media	18.7
85090	7	Sololá	704	Santa Lucía Utatlán 	7	Santa Rita 	3	Marzo	2023-03-30T00:00:00	2024-11-08T23:00:00	4	Temperatura máxima	18.8
85091	7	Sololá	704	Santa Lucía Utatlán 	7	Santa Rita 	3	Marzo	2023-03-30T00:00:00	2024-11-08T23:00:00	3	Temperatura mínima	16.6
85092	7	Sololá	704	Santa Lucía Utatlán 	7	Santa Rita 	3	Marzo	2023-03-30T00:00:00	2024-11-08T23:00:00	5	Humedad	66
85093	7	Sololá	704	Santa Lucía Utatlán 	7	Santa Rita 	3	Marzo	2023-03-30T00:00:00	2024-11-08T23:00:00	6	Velocidad del viento	6.4
85094	7	Sololá	704	Santa Lucía Utatlán 	7	Santa Rita 	3	Marzo	2023-03-30T00:00:00	2024-11-08T23:00:00	7	Dirección del viento	6.44
85095	7	Sololá	704	Santa Lucía Utatlán 	7	Santa Rita 	3	Marzo	2023-03-30T00:00:00	2024-11-08T23:00:00	1	Precipitación	0
85096	7	Sololá	704	Santa Lucía Utatlán 	7	Santa Rita 	3	Marzo	2023-03-30T00:00:00	2024-11-08T23:00:00	8	Radiación solar	0
85097	7	Sololá	704	Santa Lucía Utatlán 	7	Santa Rita 	3	Marzo	2023-03-31T00:00:00	2024-11-08T00:00:00	2	Temperatura media	16
85098	7	Sololá	704	Santa Lucía Utatlán 	7	Santa Rita 	3	Marzo	2023-03-31T00:00:00	2024-11-08T00:00:00	4	Temperatura máxima	18.7
85099	7	Sololá	704	Santa Lucía Utatlán 	7	Santa Rita 	3	Marzo	2023-03-31T00:00:00	2024-11-08T00:00:00	3	Temperatura mínima	16
85100	7	Sololá	704	Santa Lucía Utatlán 	7	Santa Rita 	3	Marzo	2023-03-31T00:00:00	2024-11-08T00:00:00	5	Humedad	74
85101	7	Sololá	704	Santa Lucía Utatlán 	7	Santa Rita 	3	Marzo	2023-03-31T00:00:00	2024-11-08T00:00:00	6	Velocidad del viento	3.2
85102	7	Sololá	704	Santa Lucía Utatlán 	7	Santa Rita 	3	Marzo	2023-03-31T00:00:00	2024-11-08T00:00:00	7	Dirección del viento	3.22
85103	7	Sololá	704	Santa Lucía Utatlán 	7	Santa Rita 	3	Marzo	2023-03-31T00:00:00	2024-11-08T00:00:00	1	Precipitación	0
85104	7	Sololá	704	Santa Lucía Utatlán 	7	Santa Rita 	3	Marzo	2023-03-31T00:00:00	2024-11-08T00:00:00	8	Radiación solar	0
85105	7	Sololá	704	Santa Lucía Utatlán 	7	Santa Rita 	3	Marzo	2023-03-31T00:00:00	2024-11-08T01:00:00	2	Temperatura media	15.1
85106	7	Sololá	704	Santa Lucía Utatlán 	7	Santa Rita 	3	Marzo	2023-03-31T00:00:00	2024-11-08T01:00:00	4	Temperatura máxima	16
85107	7	Sololá	704	Santa Lucía Utatlán 	7	Santa Rita 	3	Marzo	2023-03-31T00:00:00	2024-11-08T01:00:00	3	Temperatura mínima	15
85108	7	Sololá	704	Santa Lucía Utatlán 	7	Santa Rita 	3	Marzo	2023-03-31T00:00:00	2024-11-08T01:00:00	5	Humedad	76
85109	7	Sololá	704	Santa Lucía Utatlán 	7	Santa Rita 	3	Marzo	2023-03-31T00:00:00	2024-11-08T01:00:00	6	Velocidad del viento	1.6
85110	7	Sololá	704	Santa Lucía Utatlán 	7	Santa Rita 	3	Marzo	2023-03-31T00:00:00	2024-11-08T01:00:00	7	Dirección del viento	1.61
85111	7	Sololá	704	Santa Lucía Utatlán 	7	Santa Rita 	3	Marzo	2023-03-31T00:00:00	2024-11-08T01:00:00	1	Precipitación	0
85112	7	Sololá	704	Santa Lucía Utatlán 	7	Santa Rita 	3	Marzo	2023-03-31T00:00:00	2024-11-08T01:00:00	8	Radiación solar	0
85113	7	Sololá	704	Santa Lucía Utatlán 	7	Santa Rita 	3	Marzo	2023-03-31T00:00:00	2024-11-08T02:00:00	2	Temperatura media	17.2
85114	7	Sololá	704	Santa Lucía Utatlán 	7	Santa Rita 	3	Marzo	2023-03-31T00:00:00	2024-11-08T02:00:00	4	Temperatura máxima	17.2
85115	7	Sololá	704	Santa Lucía Utatlán 	7	Santa Rita 	3	Marzo	2023-03-31T00:00:00	2024-11-08T02:00:00	3	Temperatura mínima	14.4
85116	7	Sololá	704	Santa Lucía Utatlán 	7	Santa Rita 	3	Marzo	2023-03-31T00:00:00	2024-11-08T02:00:00	5	Humedad	59
85117	7	Sololá	704	Santa Lucía Utatlán 	7	Santa Rita 	3	Marzo	2023-03-31T00:00:00	2024-11-08T02:00:00	6	Velocidad del viento	3.2
85118	7	Sololá	704	Santa Lucía Utatlán 	7	Santa Rita 	3	Marzo	2023-03-31T00:00:00	2024-11-08T02:00:00	7	Dirección del viento	3.22
85119	7	Sololá	704	Santa Lucía Utatlán 	7	Santa Rita 	3	Marzo	2023-03-31T00:00:00	2024-11-08T02:00:00	1	Precipitación	0
85120	7	Sololá	704	Santa Lucía Utatlán 	7	Santa Rita 	3	Marzo	2023-03-31T00:00:00	2024-11-08T02:00:00	8	Radiación solar	0
85121	7	Sololá	704	Santa Lucía Utatlán 	7	Santa Rita 	3	Marzo	2023-03-31T00:00:00	2024-11-08T03:00:00	2	Temperatura media	16.8
85122	7	Sololá	704	Santa Lucía Utatlán 	7	Santa Rita 	3	Marzo	2023-03-31T00:00:00	2024-11-08T03:00:00	4	Temperatura máxima	17.8
85123	7	Sololá	704	Santa Lucía Utatlán 	7	Santa Rita 	3	Marzo	2023-03-31T00:00:00	2024-11-08T03:00:00	3	Temperatura mínima	16.6
85124	7	Sololá	704	Santa Lucía Utatlán 	7	Santa Rita 	3	Marzo	2023-03-31T00:00:00	2024-11-08T03:00:00	5	Humedad	66
85125	7	Sololá	704	Santa Lucía Utatlán 	7	Santa Rita 	3	Marzo	2023-03-31T00:00:00	2024-11-08T03:00:00	6	Velocidad del viento	4.8
85126	7	Sololá	704	Santa Lucía Utatlán 	7	Santa Rita 	3	Marzo	2023-03-31T00:00:00	2024-11-08T03:00:00	7	Dirección del viento	4.83
85127	7	Sololá	704	Santa Lucía Utatlán 	7	Santa Rita 	3	Marzo	2023-03-31T00:00:00	2024-11-08T03:00:00	1	Precipitación	0
85128	7	Sololá	704	Santa Lucía Utatlán 	7	Santa Rita 	3	Marzo	2023-03-31T00:00:00	2024-11-08T03:00:00	8	Radiación solar	0
85129	7	Sololá	704	Santa Lucía Utatlán 	7	Santa Rita 	3	Marzo	2023-03-31T00:00:00	2024-11-08T04:00:00	2	Temperatura media	15.5
85130	7	Sololá	704	Santa Lucía Utatlán 	7	Santa Rita 	3	Marzo	2023-03-31T00:00:00	2024-11-08T04:00:00	4	Temperatura máxima	17.3
85131	7	Sololá	704	Santa Lucía Utatlán 	7	Santa Rita 	3	Marzo	2023-03-31T00:00:00	2024-11-08T04:00:00	3	Temperatura mínima	15.5
85132	7	Sololá	704	Santa Lucía Utatlán 	7	Santa Rita 	3	Marzo	2023-03-31T00:00:00	2024-11-08T04:00:00	5	Humedad	71
85133	7	Sololá	704	Santa Lucía Utatlán 	7	Santa Rita 	3	Marzo	2023-03-31T00:00:00	2024-11-08T04:00:00	6	Velocidad del viento	3.2
85134	7	Sololá	704	Santa Lucía Utatlán 	7	Santa Rita 	3	Marzo	2023-03-31T00:00:00	2024-11-08T04:00:00	7	Dirección del viento	3.22
85135	7	Sololá	704	Santa Lucía Utatlán 	7	Santa Rita 	3	Marzo	2023-03-31T00:00:00	2024-11-08T04:00:00	1	Precipitación	0
85136	7	Sololá	704	Santa Lucía Utatlán 	7	Santa Rita 	3	Marzo	2023-03-31T00:00:00	2024-11-08T04:00:00	8	Radiación solar	0
85137	7	Sololá	704	Santa Lucía Utatlán 	7	Santa Rita 	3	Marzo	2023-03-31T00:00:00	2024-11-08T05:00:00	2	Temperatura media	15.2
85138	7	Sololá	704	Santa Lucía Utatlán 	7	Santa Rita 	3	Marzo	2023-03-31T00:00:00	2024-11-08T05:00:00	4	Temperatura máxima	15.6
85139	7	Sololá	704	Santa Lucía Utatlán 	7	Santa Rita 	3	Marzo	2023-03-31T00:00:00	2024-11-08T05:00:00	3	Temperatura mínima	13.9
85140	7	Sololá	704	Santa Lucía Utatlán 	7	Santa Rita 	3	Marzo	2023-03-31T00:00:00	2024-11-08T05:00:00	5	Humedad	75
85141	7	Sololá	704	Santa Lucía Utatlán 	7	Santa Rita 	3	Marzo	2023-03-31T00:00:00	2024-11-08T05:00:00	6	Velocidad del viento	3.2
85142	7	Sololá	704	Santa Lucía Utatlán 	7	Santa Rita 	3	Marzo	2023-03-31T00:00:00	2024-11-08T05:00:00	7	Dirección del viento	3.22
85143	7	Sololá	704	Santa Lucía Utatlán 	7	Santa Rita 	3	Marzo	2023-03-31T00:00:00	2024-11-08T05:00:00	1	Precipitación	0
85144	7	Sololá	704	Santa Lucía Utatlán 	7	Santa Rita 	3	Marzo	2023-03-31T00:00:00	2024-11-08T05:00:00	8	Radiación solar	0
85145	7	Sololá	704	Santa Lucía Utatlán 	7	Santa Rita 	3	Marzo	2023-03-31T00:00:00	2024-11-08T06:00:00	2	Temperatura media	15.2
85146	7	Sololá	704	Santa Lucía Utatlán 	7	Santa Rita 	3	Marzo	2023-03-31T00:00:00	2024-11-08T06:00:00	4	Temperatura máxima	15.3
85147	7	Sololá	704	Santa Lucía Utatlán 	7	Santa Rita 	3	Marzo	2023-03-31T00:00:00	2024-11-08T06:00:00	3	Temperatura mínima	14.9
85148	7	Sololá	704	Santa Lucía Utatlán 	7	Santa Rita 	3	Marzo	2023-03-31T00:00:00	2024-11-08T06:00:00	5	Humedad	77
85149	7	Sololá	704	Santa Lucía Utatlán 	7	Santa Rita 	3	Marzo	2023-03-31T00:00:00	2024-11-08T06:00:00	6	Velocidad del viento	1.6
85150	7	Sololá	704	Santa Lucía Utatlán 	7	Santa Rita 	3	Marzo	2023-03-31T00:00:00	2024-11-08T06:00:00	7	Dirección del viento	1.61
85151	7	Sololá	704	Santa Lucía Utatlán 	7	Santa Rita 	3	Marzo	2023-03-31T00:00:00	2024-11-08T06:00:00	1	Precipitación	0
85152	7	Sololá	704	Santa Lucía Utatlán 	7	Santa Rita 	3	Marzo	2023-03-31T00:00:00	2024-11-08T06:00:00	8	Radiación solar	0
85153	7	Sololá	704	Santa Lucía Utatlán 	7	Santa Rita 	3	Marzo	2023-03-31T00:00:00	2024-11-08T07:00:00	2	Temperatura media	14.8
85154	7	Sololá	704	Santa Lucía Utatlán 	7	Santa Rita 	3	Marzo	2023-03-31T00:00:00	2024-11-08T07:00:00	4	Temperatura máxima	15.4
85155	7	Sololá	704	Santa Lucía Utatlán 	7	Santa Rita 	3	Marzo	2023-03-31T00:00:00	2024-11-08T07:00:00	3	Temperatura mínima	14.8
85156	7	Sololá	704	Santa Lucía Utatlán 	7	Santa Rita 	3	Marzo	2023-03-31T00:00:00	2024-11-08T07:00:00	5	Humedad	78
85157	7	Sololá	704	Santa Lucía Utatlán 	7	Santa Rita 	3	Marzo	2023-03-31T00:00:00	2024-11-08T07:00:00	6	Velocidad del viento	3.2
85158	7	Sololá	704	Santa Lucía Utatlán 	7	Santa Rita 	3	Marzo	2023-03-31T00:00:00	2024-11-08T07:00:00	7	Dirección del viento	3.22
85159	7	Sololá	704	Santa Lucía Utatlán 	7	Santa Rita 	3	Marzo	2023-03-31T00:00:00	2024-11-08T07:00:00	1	Precipitación	0
85160	7	Sololá	704	Santa Lucía Utatlán 	7	Santa Rita 	3	Marzo	2023-03-31T00:00:00	2024-11-08T07:00:00	8	Radiación solar	72
85161	7	Sololá	704	Santa Lucía Utatlán 	7	Santa Rita 	3	Marzo	2023-03-31T00:00:00	2024-11-08T08:00:00	2	Temperatura media	16.7
85162	7	Sololá	704	Santa Lucía Utatlán 	7	Santa Rita 	3	Marzo	2023-03-31T00:00:00	2024-11-08T08:00:00	4	Temperatura máxima	16.7
85163	7	Sololá	704	Santa Lucía Utatlán 	7	Santa Rita 	3	Marzo	2023-03-31T00:00:00	2024-11-08T08:00:00	3	Temperatura mínima	14.6
85164	7	Sololá	704	Santa Lucía Utatlán 	7	Santa Rita 	3	Marzo	2023-03-31T00:00:00	2024-11-08T08:00:00	5	Humedad	75
85165	7	Sololá	704	Santa Lucía Utatlán 	7	Santa Rita 	3	Marzo	2023-03-31T00:00:00	2024-11-08T08:00:00	6	Velocidad del viento	3.2
85166	7	Sololá	704	Santa Lucía Utatlán 	7	Santa Rita 	3	Marzo	2023-03-31T00:00:00	2024-11-08T08:00:00	7	Dirección del viento	3.22
85167	7	Sololá	704	Santa Lucía Utatlán 	7	Santa Rita 	3	Marzo	2023-03-31T00:00:00	2024-11-08T08:00:00	1	Precipitación	0
85168	7	Sololá	704	Santa Lucía Utatlán 	7	Santa Rita 	3	Marzo	2023-03-31T00:00:00	2024-11-08T08:00:00	8	Radiación solar	363
85169	7	Sololá	704	Santa Lucía Utatlán 	7	Santa Rita 	3	Marzo	2023-03-31T00:00:00	2024-11-08T09:00:00	2	Temperatura media	19.2
85170	7	Sololá	704	Santa Lucía Utatlán 	7	Santa Rita 	3	Marzo	2023-03-31T00:00:00	2024-11-08T09:00:00	4	Temperatura máxima	19.2
85171	7	Sololá	704	Santa Lucía Utatlán 	7	Santa Rita 	3	Marzo	2023-03-31T00:00:00	2024-11-08T09:00:00	3	Temperatura mínima	16.8
85172	7	Sololá	704	Santa Lucía Utatlán 	7	Santa Rita 	3	Marzo	2023-03-31T00:00:00	2024-11-08T09:00:00	5	Humedad	68
85173	7	Sololá	704	Santa Lucía Utatlán 	7	Santa Rita 	3	Marzo	2023-03-31T00:00:00	2024-11-08T09:00:00	6	Velocidad del viento	4.8
85174	7	Sololá	704	Santa Lucía Utatlán 	7	Santa Rita 	3	Marzo	2023-03-31T00:00:00	2024-11-08T09:00:00	7	Dirección del viento	4.83
85175	7	Sololá	704	Santa Lucía Utatlán 	7	Santa Rita 	3	Marzo	2023-03-31T00:00:00	2024-11-08T09:00:00	1	Precipitación	0
85176	7	Sololá	704	Santa Lucía Utatlán 	7	Santa Rita 	3	Marzo	2023-03-31T00:00:00	2024-11-08T09:00:00	8	Radiación solar	608
85177	7	Sololá	704	Santa Lucía Utatlán 	7	Santa Rita 	3	Marzo	2023-03-31T00:00:00	2024-11-08T10:00:00	2	Temperatura media	22.1
85178	7	Sololá	704	Santa Lucía Utatlán 	7	Santa Rita 	3	Marzo	2023-03-31T00:00:00	2024-11-08T10:00:00	4	Temperatura máxima	22.2
85179	7	Sololá	704	Santa Lucía Utatlán 	7	Santa Rita 	3	Marzo	2023-03-31T00:00:00	2024-11-08T10:00:00	3	Temperatura mínima	19.2
85180	7	Sololá	704	Santa Lucía Utatlán 	7	Santa Rita 	3	Marzo	2023-03-31T00:00:00	2024-11-08T10:00:00	5	Humedad	55
85181	7	Sololá	704	Santa Lucía Utatlán 	7	Santa Rita 	3	Marzo	2023-03-31T00:00:00	2024-11-08T10:00:00	6	Velocidad del viento	4.8
85182	7	Sololá	704	Santa Lucía Utatlán 	7	Santa Rita 	3	Marzo	2023-03-31T00:00:00	2024-11-08T10:00:00	7	Dirección del viento	4.83
85183	7	Sololá	704	Santa Lucía Utatlán 	7	Santa Rita 	3	Marzo	2023-03-31T00:00:00	2024-11-08T10:00:00	1	Precipitación	0
85184	7	Sololá	704	Santa Lucía Utatlán 	7	Santa Rita 	3	Marzo	2023-03-31T00:00:00	2024-11-08T10:00:00	8	Radiación solar	814
85185	7	Sololá	704	Santa Lucía Utatlán 	7	Santa Rita 	3	Marzo	2023-03-31T00:00:00	2024-11-08T11:00:00	2	Temperatura media	23.6
85186	7	Sololá	704	Santa Lucía Utatlán 	7	Santa Rita 	3	Marzo	2023-03-31T00:00:00	2024-11-08T11:00:00	4	Temperatura máxima	23.8
85187	7	Sololá	704	Santa Lucía Utatlán 	7	Santa Rita 	3	Marzo	2023-03-31T00:00:00	2024-11-08T11:00:00	3	Temperatura mínima	22.1
85188	7	Sololá	704	Santa Lucía Utatlán 	7	Santa Rita 	3	Marzo	2023-03-31T00:00:00	2024-11-08T11:00:00	5	Humedad	45
85189	7	Sololá	704	Santa Lucía Utatlán 	7	Santa Rita 	3	Marzo	2023-03-31T00:00:00	2024-11-08T11:00:00	6	Velocidad del viento	8
85190	7	Sololá	704	Santa Lucía Utatlán 	7	Santa Rita 	3	Marzo	2023-03-31T00:00:00	2024-11-08T11:00:00	7	Dirección del viento	8.05
85191	7	Sololá	704	Santa Lucía Utatlán 	7	Santa Rita 	3	Marzo	2023-03-31T00:00:00	2024-11-08T11:00:00	1	Precipitación	0
85192	7	Sololá	704	Santa Lucía Utatlán 	7	Santa Rita 	3	Marzo	2023-03-31T00:00:00	2024-11-08T11:00:00	8	Radiación solar	959
85193	7	Sololá	704	Santa Lucía Utatlán 	7	Santa Rita 	3	Marzo	2023-03-31T00:00:00	2024-11-08T12:00:00	2	Temperatura media	24.6
85194	7	Sololá	704	Santa Lucía Utatlán 	7	Santa Rita 	3	Marzo	2023-03-31T00:00:00	2024-11-08T12:00:00	4	Temperatura máxima	24.6
85195	7	Sololá	704	Santa Lucía Utatlán 	7	Santa Rita 	3	Marzo	2023-03-31T00:00:00	2024-11-08T12:00:00	3	Temperatura mínima	23.4
85196	7	Sololá	704	Santa Lucía Utatlán 	7	Santa Rita 	3	Marzo	2023-03-31T00:00:00	2024-11-08T12:00:00	5	Humedad	43
85197	7	Sololá	704	Santa Lucía Utatlán 	7	Santa Rita 	3	Marzo	2023-03-31T00:00:00	2024-11-08T12:00:00	6	Velocidad del viento	9.7
85198	7	Sololá	704	Santa Lucía Utatlán 	7	Santa Rita 	3	Marzo	2023-03-31T00:00:00	2024-11-08T12:00:00	7	Dirección del viento	9.66
85199	7	Sololá	704	Santa Lucía Utatlán 	7	Santa Rita 	3	Marzo	2023-03-31T00:00:00	2024-11-08T12:00:00	1	Precipitación	0
85200	7	Sololá	704	Santa Lucía Utatlán 	7	Santa Rita 	3	Marzo	2023-03-31T00:00:00	2024-11-08T12:00:00	8	Radiación solar	1027
85201	7	Sololá	704	Santa Lucía Utatlán 	7	Santa Rita 	3	Marzo	2023-03-31T00:00:00	2024-11-08T13:00:00	2	Temperatura media	25.4
85202	7	Sololá	704	Santa Lucía Utatlán 	7	Santa Rita 	3	Marzo	2023-03-31T00:00:00	2024-11-08T13:00:00	4	Temperatura máxima	25.4
85203	7	Sololá	704	Santa Lucía Utatlán 	7	Santa Rita 	3	Marzo	2023-03-31T00:00:00	2024-11-08T13:00:00	3	Temperatura mínima	24.4
85204	7	Sololá	704	Santa Lucía Utatlán 	7	Santa Rita 	3	Marzo	2023-03-31T00:00:00	2024-11-08T13:00:00	5	Humedad	42
85205	7	Sololá	704	Santa Lucía Utatlán 	7	Santa Rita 	3	Marzo	2023-03-31T00:00:00	2024-11-08T13:00:00	6	Velocidad del viento	9.7
85206	7	Sololá	704	Santa Lucía Utatlán 	7	Santa Rita 	3	Marzo	2023-03-31T00:00:00	2024-11-08T13:00:00	7	Dirección del viento	9.66
85207	7	Sololá	704	Santa Lucía Utatlán 	7	Santa Rita 	3	Marzo	2023-03-31T00:00:00	2024-11-08T13:00:00	1	Precipitación	0
85208	7	Sololá	704	Santa Lucía Utatlán 	7	Santa Rita 	3	Marzo	2023-03-31T00:00:00	2024-11-08T13:00:00	8	Radiación solar	1016
85209	7	Sololá	704	Santa Lucía Utatlán 	7	Santa Rita 	3	Marzo	2023-03-31T00:00:00	2024-11-08T14:00:00	2	Temperatura media	26.2
85210	7	Sololá	704	Santa Lucía Utatlán 	7	Santa Rita 	3	Marzo	2023-03-31T00:00:00	2024-11-08T14:00:00	4	Temperatura máxima	26.7
85211	7	Sololá	704	Santa Lucía Utatlán 	7	Santa Rita 	3	Marzo	2023-03-31T00:00:00	2024-11-08T14:00:00	3	Temperatura mínima	25.3
85212	7	Sololá	704	Santa Lucía Utatlán 	7	Santa Rita 	3	Marzo	2023-03-31T00:00:00	2024-11-08T14:00:00	5	Humedad	46
85213	7	Sololá	704	Santa Lucía Utatlán 	7	Santa Rita 	3	Marzo	2023-03-31T00:00:00	2024-11-08T14:00:00	6	Velocidad del viento	9.7
85214	7	Sololá	704	Santa Lucía Utatlán 	7	Santa Rita 	3	Marzo	2023-03-31T00:00:00	2024-11-08T14:00:00	7	Dirección del viento	9.66
85215	7	Sololá	704	Santa Lucía Utatlán 	7	Santa Rita 	3	Marzo	2023-03-31T00:00:00	2024-11-08T14:00:00	1	Precipitación	0
85216	7	Sololá	704	Santa Lucía Utatlán 	7	Santa Rita 	3	Marzo	2023-03-31T00:00:00	2024-11-08T14:00:00	8	Radiación solar	942
85217	7	Sololá	704	Santa Lucía Utatlán 	7	Santa Rita 	3	Marzo	2023-03-31T00:00:00	2024-11-08T15:00:00	2	Temperatura media	26.4
85218	7	Sololá	704	Santa Lucía Utatlán 	7	Santa Rita 	3	Marzo	2023-03-31T00:00:00	2024-11-08T15:00:00	4	Temperatura máxima	26.7
85219	7	Sololá	704	Santa Lucía Utatlán 	7	Santa Rita 	3	Marzo	2023-03-31T00:00:00	2024-11-08T15:00:00	3	Temperatura mínima	25.9
85220	7	Sololá	704	Santa Lucía Utatlán 	7	Santa Rita 	3	Marzo	2023-03-31T00:00:00	2024-11-08T15:00:00	5	Humedad	52
85221	7	Sololá	704	Santa Lucía Utatlán 	7	Santa Rita 	3	Marzo	2023-03-31T00:00:00	2024-11-08T15:00:00	6	Velocidad del viento	11.3
85222	7	Sololá	704	Santa Lucía Utatlán 	7	Santa Rita 	3	Marzo	2023-03-31T00:00:00	2024-11-08T15:00:00	7	Dirección del viento	11.27
85223	7	Sololá	704	Santa Lucía Utatlán 	7	Santa Rita 	3	Marzo	2023-03-31T00:00:00	2024-11-08T15:00:00	1	Precipitación	0
85224	7	Sololá	704	Santa Lucía Utatlán 	7	Santa Rita 	3	Marzo	2023-03-31T00:00:00	2024-11-08T15:00:00	8	Radiación solar	802
85225	7	Sololá	704	Santa Lucía Utatlán 	7	Santa Rita 	3	Marzo	2023-03-31T00:00:00	2024-11-08T16:00:00	2	Temperatura media	24.5
85226	7	Sololá	704	Santa Lucía Utatlán 	7	Santa Rita 	3	Marzo	2023-03-31T00:00:00	2024-11-08T16:00:00	4	Temperatura máxima	26.4
85227	7	Sololá	704	Santa Lucía Utatlán 	7	Santa Rita 	3	Marzo	2023-03-31T00:00:00	2024-11-08T16:00:00	3	Temperatura mínima	24.4
85228	7	Sololá	704	Santa Lucía Utatlán 	7	Santa Rita 	3	Marzo	2023-03-31T00:00:00	2024-11-08T16:00:00	5	Humedad	68
85229	7	Sololá	704	Santa Lucía Utatlán 	7	Santa Rita 	3	Marzo	2023-03-31T00:00:00	2024-11-08T16:00:00	6	Velocidad del viento	11.3
85230	7	Sololá	704	Santa Lucía Utatlán 	7	Santa Rita 	3	Marzo	2023-03-31T00:00:00	2024-11-08T16:00:00	7	Dirección del viento	11.27
85231	7	Sololá	704	Santa Lucía Utatlán 	7	Santa Rita 	3	Marzo	2023-03-31T00:00:00	2024-11-08T16:00:00	1	Precipitación	0
85232	7	Sololá	704	Santa Lucía Utatlán 	7	Santa Rita 	3	Marzo	2023-03-31T00:00:00	2024-11-08T16:00:00	8	Radiación solar	203
85233	7	Sololá	704	Santa Lucía Utatlán 	7	Santa Rita 	3	Marzo	2023-03-31T00:00:00	2024-11-08T17:00:00	2	Temperatura media	22
85234	7	Sololá	704	Santa Lucía Utatlán 	7	Santa Rita 	3	Marzo	2023-03-31T00:00:00	2024-11-08T17:00:00	4	Temperatura máxima	24.5
85235	7	Sololá	704	Santa Lucía Utatlán 	7	Santa Rita 	3	Marzo	2023-03-31T00:00:00	2024-11-08T17:00:00	3	Temperatura mínima	22
85236	7	Sololá	704	Santa Lucía Utatlán 	7	Santa Rita 	3	Marzo	2023-03-31T00:00:00	2024-11-08T17:00:00	5	Humedad	78
85237	7	Sololá	704	Santa Lucía Utatlán 	7	Santa Rita 	3	Marzo	2023-03-31T00:00:00	2024-11-08T17:00:00	6	Velocidad del viento	8
85238	7	Sololá	704	Santa Lucía Utatlán 	7	Santa Rita 	3	Marzo	2023-03-31T00:00:00	2024-11-08T17:00:00	7	Dirección del viento	8.05
85239	7	Sololá	704	Santa Lucía Utatlán 	7	Santa Rita 	3	Marzo	2023-03-31T00:00:00	2024-11-08T17:00:00	1	Precipitación	0
85240	7	Sololá	704	Santa Lucía Utatlán 	7	Santa Rita 	3	Marzo	2023-03-31T00:00:00	2024-11-08T17:00:00	8	Radiación solar	105
85241	7	Sololá	704	Santa Lucía Utatlán 	7	Santa Rita 	3	Marzo	2023-03-31T00:00:00	2024-11-08T18:00:00	2	Temperatura media	21.8
85242	7	Sololá	704	Santa Lucía Utatlán 	7	Santa Rita 	3	Marzo	2023-03-31T00:00:00	2024-11-08T18:00:00	4	Temperatura máxima	22.2
85243	7	Sololá	704	Santa Lucía Utatlán 	7	Santa Rita 	3	Marzo	2023-03-31T00:00:00	2024-11-08T18:00:00	3	Temperatura mínima	21.7
85244	7	Sololá	704	Santa Lucía Utatlán 	7	Santa Rita 	3	Marzo	2023-03-31T00:00:00	2024-11-08T18:00:00	5	Humedad	78
85245	7	Sololá	704	Santa Lucía Utatlán 	7	Santa Rita 	3	Marzo	2023-03-31T00:00:00	2024-11-08T18:00:00	6	Velocidad del viento	4.8
85246	7	Sololá	704	Santa Lucía Utatlán 	7	Santa Rita 	3	Marzo	2023-03-31T00:00:00	2024-11-08T18:00:00	7	Dirección del viento	4.83
85247	7	Sololá	704	Santa Lucía Utatlán 	7	Santa Rita 	3	Marzo	2023-03-31T00:00:00	2024-11-08T18:00:00	1	Precipitación	0
85248	7	Sololá	704	Santa Lucía Utatlán 	7	Santa Rita 	3	Marzo	2023-03-31T00:00:00	2024-11-08T18:00:00	8	Radiación solar	50
85249	7	Sololá	704	Santa Lucía Utatlán 	7	Santa Rita 	3	Marzo	2023-03-31T00:00:00	2024-11-08T19:00:00	2	Temperatura media	21.1
85250	7	Sololá	704	Santa Lucía Utatlán 	7	Santa Rita 	3	Marzo	2023-03-31T00:00:00	2024-11-08T19:00:00	4	Temperatura máxima	21.9
85251	7	Sololá	704	Santa Lucía Utatlán 	7	Santa Rita 	3	Marzo	2023-03-31T00:00:00	2024-11-08T19:00:00	3	Temperatura mínima	21.1
85252	7	Sololá	704	Santa Lucía Utatlán 	7	Santa Rita 	3	Marzo	2023-03-31T00:00:00	2024-11-08T19:00:00	5	Humedad	80
85253	7	Sololá	704	Santa Lucía Utatlán 	7	Santa Rita 	3	Marzo	2023-03-31T00:00:00	2024-11-08T19:00:00	6	Velocidad del viento	1.6
85254	7	Sololá	704	Santa Lucía Utatlán 	7	Santa Rita 	3	Marzo	2023-03-31T00:00:00	2024-11-08T19:00:00	7	Dirección del viento	1.61
85255	7	Sololá	704	Santa Lucía Utatlán 	7	Santa Rita 	3	Marzo	2023-03-31T00:00:00	2024-11-08T19:00:00	1	Precipitación	0
85256	7	Sololá	704	Santa Lucía Utatlán 	7	Santa Rita 	3	Marzo	2023-03-31T00:00:00	2024-11-08T19:00:00	8	Radiación solar	0
85257	7	Sololá	704	Santa Lucía Utatlán 	7	Santa Rita 	3	Marzo	2023-03-31T00:00:00	2024-11-08T20:00:00	2	Temperatura media	18.6
85258	7	Sololá	704	Santa Lucía Utatlán 	7	Santa Rita 	3	Marzo	2023-03-31T00:00:00	2024-11-08T20:00:00	4	Temperatura máxima	21.1
85259	7	Sololá	704	Santa Lucía Utatlán 	7	Santa Rita 	3	Marzo	2023-03-31T00:00:00	2024-11-08T20:00:00	3	Temperatura mínima	18.6
85260	7	Sololá	704	Santa Lucía Utatlán 	7	Santa Rita 	3	Marzo	2023-03-31T00:00:00	2024-11-08T20:00:00	5	Humedad	81
85261	7	Sololá	704	Santa Lucía Utatlán 	7	Santa Rita 	3	Marzo	2023-03-31T00:00:00	2024-11-08T20:00:00	6	Velocidad del viento	3.2
85262	7	Sololá	704	Santa Lucía Utatlán 	7	Santa Rita 	3	Marzo	2023-03-31T00:00:00	2024-11-08T20:00:00	7	Dirección del viento	3.22
85263	7	Sololá	704	Santa Lucía Utatlán 	7	Santa Rita 	3	Marzo	2023-03-31T00:00:00	2024-11-08T20:00:00	1	Precipitación	0
85264	7	Sololá	704	Santa Lucía Utatlán 	7	Santa Rita 	3	Marzo	2023-03-31T00:00:00	2024-11-08T20:00:00	8	Radiación solar	0
85265	7	Sololá	704	Santa Lucía Utatlán 	7	Santa Rita 	3	Marzo	2023-03-31T00:00:00	2024-11-08T21:00:00	2	Temperatura media	17.6
85266	7	Sololá	704	Santa Lucía Utatlán 	7	Santa Rita 	3	Marzo	2023-03-31T00:00:00	2024-11-08T21:00:00	4	Temperatura máxima	18.7
85267	7	Sololá	704	Santa Lucía Utatlán 	7	Santa Rita 	3	Marzo	2023-03-31T00:00:00	2024-11-08T21:00:00	3	Temperatura mínima	17.6
85268	7	Sololá	704	Santa Lucía Utatlán 	7	Santa Rita 	3	Marzo	2023-03-31T00:00:00	2024-11-08T21:00:00	5	Humedad	75
85269	7	Sololá	704	Santa Lucía Utatlán 	7	Santa Rita 	3	Marzo	2023-03-31T00:00:00	2024-11-08T21:00:00	6	Velocidad del viento	3.2
85270	7	Sololá	704	Santa Lucía Utatlán 	7	Santa Rita 	3	Marzo	2023-03-31T00:00:00	2024-11-08T21:00:00	7	Dirección del viento	3.22
85271	7	Sololá	704	Santa Lucía Utatlán 	7	Santa Rita 	3	Marzo	2023-03-31T00:00:00	2024-11-08T21:00:00	1	Precipitación	0
85272	7	Sololá	704	Santa Lucía Utatlán 	7	Santa Rita 	3	Marzo	2023-03-31T00:00:00	2024-11-08T21:00:00	8	Radiación solar	0
85273	7	Sololá	704	Santa Lucía Utatlán 	7	Santa Rita 	3	Marzo	2023-03-31T00:00:00	2024-11-08T22:00:00	2	Temperatura media	17.1
85274	7	Sololá	704	Santa Lucía Utatlán 	7	Santa Rita 	3	Marzo	2023-03-31T00:00:00	2024-11-08T22:00:00	4	Temperatura máxima	17.6
85275	7	Sololá	704	Santa Lucía Utatlán 	7	Santa Rita 	3	Marzo	2023-03-31T00:00:00	2024-11-08T22:00:00	3	Temperatura mínima	17.1
85276	7	Sololá	704	Santa Lucía Utatlán 	7	Santa Rita 	3	Marzo	2023-03-31T00:00:00	2024-11-08T22:00:00	5	Humedad	77
85277	7	Sololá	704	Santa Lucía Utatlán 	7	Santa Rita 	3	Marzo	2023-03-31T00:00:00	2024-11-08T22:00:00	6	Velocidad del viento	3.2
85278	7	Sololá	704	Santa Lucía Utatlán 	7	Santa Rita 	3	Marzo	2023-03-31T00:00:00	2024-11-08T22:00:00	7	Dirección del viento	3.22
85279	7	Sololá	704	Santa Lucía Utatlán 	7	Santa Rita 	3	Marzo	2023-03-31T00:00:00	2024-11-08T22:00:00	1	Precipitación	0
85280	7	Sololá	704	Santa Lucía Utatlán 	7	Santa Rita 	3	Marzo	2023-03-31T00:00:00	2024-11-08T22:00:00	8	Radiación solar	0
85281	7	Sololá	704	Santa Lucía Utatlán 	7	Santa Rita 	3	Marzo	2023-03-31T00:00:00	2024-11-08T23:00:00	2	Temperatura media	16.2
85282	7	Sololá	704	Santa Lucía Utatlán 	7	Santa Rita 	3	Marzo	2023-03-31T00:00:00	2024-11-08T23:00:00	4	Temperatura máxima	17.1
85283	7	Sololá	704	Santa Lucía Utatlán 	7	Santa Rita 	3	Marzo	2023-03-31T00:00:00	2024-11-08T23:00:00	3	Temperatura mínima	16.2
85284	7	Sololá	704	Santa Lucía Utatlán 	7	Santa Rita 	3	Marzo	2023-03-31T00:00:00	2024-11-08T23:00:00	5	Humedad	78
85285	7	Sololá	704	Santa Lucía Utatlán 	7	Santa Rita 	3	Marzo	2023-03-31T00:00:00	2024-11-08T23:00:00	6	Velocidad del viento	3.2
85286	7	Sololá	704	Santa Lucía Utatlán 	7	Santa Rita 	3	Marzo	2023-03-31T00:00:00	2024-11-08T23:00:00	7	Dirección del viento	3.22
85287	7	Sololá	704	Santa Lucía Utatlán 	7	Santa Rita 	3	Marzo	2023-03-31T00:00:00	2024-11-08T23:00:00	1	Precipitación	0
85288	7	Sololá	704	Santa Lucía Utatlán 	7	Santa Rita 	3	Marzo	2023-03-31T00:00:00	2024-11-08T23:00:00	8	Radiación solar	0
85289	7	Sololá	704	Santa Lucía Utatlán 	7	Santa Rita 	4	Abril	2023-01-04T00:00:00	2024-11-08T00:00:00	2	Temperatura media	15.6
85290	7	Sololá	704	Santa Lucía Utatlán 	7	Santa Rita 	4	Abril	2023-01-04T00:00:00	2024-11-08T00:00:00	4	Temperatura máxima	16.3
85291	7	Sololá	704	Santa Lucía Utatlán 	7	Santa Rita 	4	Abril	2023-01-04T00:00:00	2024-11-08T00:00:00	3	Temperatura mínima	15.6
85292	7	Sololá	704	Santa Lucía Utatlán 	7	Santa Rita 	4	Abril	2023-01-04T00:00:00	2024-11-08T00:00:00	5	Humedad	70
85293	7	Sololá	704	Santa Lucía Utatlán 	7	Santa Rita 	4	Abril	2023-01-04T00:00:00	2024-11-08T00:00:00	6	Velocidad del viento	4.8
85294	7	Sololá	704	Santa Lucía Utatlán 	7	Santa Rita 	4	Abril	2023-01-04T00:00:00	2024-11-08T00:00:00	7	Dirección del viento	4.83
85295	7	Sololá	704	Santa Lucía Utatlán 	7	Santa Rita 	4	Abril	2023-01-04T00:00:00	2024-11-08T00:00:00	1	Precipitación	0
85296	7	Sololá	704	Santa Lucía Utatlán 	7	Santa Rita 	4	Abril	2023-01-04T00:00:00	2024-11-08T00:00:00	8	Radiación solar	0
85297	7	Sololá	704	Santa Lucía Utatlán 	7	Santa Rita 	4	Abril	2023-01-04T00:00:00	2024-11-08T01:00:00	2	Temperatura media	15.6
85298	7	Sololá	704	Santa Lucía Utatlán 	7	Santa Rita 	4	Abril	2023-01-04T00:00:00	2024-11-08T01:00:00	4	Temperatura máxima	15.7
85299	7	Sololá	704	Santa Lucía Utatlán 	7	Santa Rita 	4	Abril	2023-01-04T00:00:00	2024-11-08T01:00:00	3	Temperatura mínima	15.3
85300	7	Sololá	704	Santa Lucía Utatlán 	7	Santa Rita 	4	Abril	2023-01-04T00:00:00	2024-11-08T01:00:00	5	Humedad	70
85301	7	Sololá	704	Santa Lucía Utatlán 	7	Santa Rita 	4	Abril	2023-01-04T00:00:00	2024-11-08T01:00:00	6	Velocidad del viento	3.2
85302	7	Sololá	704	Santa Lucía Utatlán 	7	Santa Rita 	4	Abril	2023-01-04T00:00:00	2024-11-08T01:00:00	7	Dirección del viento	3.22
85303	7	Sololá	704	Santa Lucía Utatlán 	7	Santa Rita 	4	Abril	2023-01-04T00:00:00	2024-11-08T01:00:00	1	Precipitación	0
85304	7	Sololá	704	Santa Lucía Utatlán 	7	Santa Rita 	4	Abril	2023-01-04T00:00:00	2024-11-08T01:00:00	8	Radiación solar	0
85305	7	Sololá	704	Santa Lucía Utatlán 	7	Santa Rita 	4	Abril	2023-01-04T00:00:00	2024-11-08T02:00:00	2	Temperatura media	15.6
85306	7	Sololá	704	Santa Lucía Utatlán 	7	Santa Rita 	4	Abril	2023-01-04T00:00:00	2024-11-08T02:00:00	4	Temperatura máxima	15.7
85307	7	Sololá	704	Santa Lucía Utatlán 	7	Santa Rita 	4	Abril	2023-01-04T00:00:00	2024-11-08T02:00:00	3	Temperatura mínima	15.4
85308	7	Sololá	704	Santa Lucía Utatlán 	7	Santa Rita 	4	Abril	2023-01-04T00:00:00	2024-11-08T02:00:00	5	Humedad	69
85309	7	Sololá	704	Santa Lucía Utatlán 	7	Santa Rita 	4	Abril	2023-01-04T00:00:00	2024-11-08T02:00:00	6	Velocidad del viento	3.2
85310	7	Sololá	704	Santa Lucía Utatlán 	7	Santa Rita 	4	Abril	2023-01-04T00:00:00	2024-11-08T02:00:00	7	Dirección del viento	3.22
85311	7	Sololá	704	Santa Lucía Utatlán 	7	Santa Rita 	4	Abril	2023-01-04T00:00:00	2024-11-08T02:00:00	1	Precipitación	0
85312	7	Sololá	704	Santa Lucía Utatlán 	7	Santa Rita 	4	Abril	2023-01-04T00:00:00	2024-11-08T02:00:00	8	Radiación solar	0
85313	7	Sololá	704	Santa Lucía Utatlán 	7	Santa Rita 	4	Abril	2023-01-04T00:00:00	2024-11-08T03:00:00	2	Temperatura media	15.8
85314	7	Sololá	704	Santa Lucía Utatlán 	7	Santa Rita 	4	Abril	2023-01-04T00:00:00	2024-11-08T03:00:00	4	Temperatura máxima	16
85315	7	Sololá	704	Santa Lucía Utatlán 	7	Santa Rita 	4	Abril	2023-01-04T00:00:00	2024-11-08T03:00:00	3	Temperatura mínima	15.4
85316	7	Sololá	704	Santa Lucía Utatlán 	7	Santa Rita 	4	Abril	2023-01-04T00:00:00	2024-11-08T03:00:00	5	Humedad	72
85317	7	Sololá	704	Santa Lucía Utatlán 	7	Santa Rita 	4	Abril	2023-01-04T00:00:00	2024-11-08T03:00:00	6	Velocidad del viento	3.2
85318	7	Sololá	704	Santa Lucía Utatlán 	7	Santa Rita 	4	Abril	2023-01-04T00:00:00	2024-11-08T03:00:00	7	Dirección del viento	3.22
85319	7	Sololá	704	Santa Lucía Utatlán 	7	Santa Rita 	4	Abril	2023-01-04T00:00:00	2024-11-08T03:00:00	1	Precipitación	0
85320	7	Sololá	704	Santa Lucía Utatlán 	7	Santa Rita 	4	Abril	2023-01-04T00:00:00	2024-11-08T03:00:00	8	Radiación solar	0
85321	7	Sololá	704	Santa Lucía Utatlán 	7	Santa Rita 	4	Abril	2023-01-04T00:00:00	2024-11-08T04:00:00	2	Temperatura media	15.6
85322	7	Sololá	704	Santa Lucía Utatlán 	7	Santa Rita 	4	Abril	2023-01-04T00:00:00	2024-11-08T04:00:00	4	Temperatura máxima	16.1
85323	7	Sololá	704	Santa Lucía Utatlán 	7	Santa Rita 	4	Abril	2023-01-04T00:00:00	2024-11-08T04:00:00	3	Temperatura mínima	15.5
85324	7	Sololá	704	Santa Lucía Utatlán 	7	Santa Rita 	4	Abril	2023-01-04T00:00:00	2024-11-08T04:00:00	5	Humedad	75
85325	7	Sololá	704	Santa Lucía Utatlán 	7	Santa Rita 	4	Abril	2023-01-04T00:00:00	2024-11-08T04:00:00	6	Velocidad del viento	4.8
85326	7	Sololá	704	Santa Lucía Utatlán 	7	Santa Rita 	4	Abril	2023-01-04T00:00:00	2024-11-08T04:00:00	7	Dirección del viento	4.83
85327	7	Sololá	704	Santa Lucía Utatlán 	7	Santa Rita 	4	Abril	2023-01-04T00:00:00	2024-11-08T04:00:00	1	Precipitación	0
85328	7	Sololá	704	Santa Lucía Utatlán 	7	Santa Rita 	4	Abril	2023-01-04T00:00:00	2024-11-08T04:00:00	8	Radiación solar	0
85329	7	Sololá	704	Santa Lucía Utatlán 	7	Santa Rita 	4	Abril	2023-01-04T00:00:00	2024-11-08T05:00:00	2	Temperatura media	15.2
85330	7	Sololá	704	Santa Lucía Utatlán 	7	Santa Rita 	4	Abril	2023-01-04T00:00:00	2024-11-08T05:00:00	4	Temperatura máxima	15.7
85331	7	Sololá	704	Santa Lucía Utatlán 	7	Santa Rita 	4	Abril	2023-01-04T00:00:00	2024-11-08T05:00:00	3	Temperatura mínima	15.2
85332	7	Sololá	704	Santa Lucía Utatlán 	7	Santa Rita 	4	Abril	2023-01-04T00:00:00	2024-11-08T05:00:00	5	Humedad	77
85333	7	Sololá	704	Santa Lucía Utatlán 	7	Santa Rita 	4	Abril	2023-01-04T00:00:00	2024-11-08T05:00:00	6	Velocidad del viento	4.8
85334	7	Sololá	704	Santa Lucía Utatlán 	7	Santa Rita 	4	Abril	2023-01-04T00:00:00	2024-11-08T05:00:00	7	Dirección del viento	4.83
85335	7	Sololá	704	Santa Lucía Utatlán 	7	Santa Rita 	4	Abril	2023-01-04T00:00:00	2024-11-08T05:00:00	1	Precipitación	0
85336	7	Sololá	704	Santa Lucía Utatlán 	7	Santa Rita 	4	Abril	2023-01-04T00:00:00	2024-11-08T05:00:00	8	Radiación solar	0
85337	7	Sololá	704	Santa Lucía Utatlán 	7	Santa Rita 	4	Abril	2023-01-04T00:00:00	2024-11-08T06:00:00	2	Temperatura media	14.9
85338	7	Sololá	704	Santa Lucía Utatlán 	7	Santa Rita 	4	Abril	2023-01-04T00:00:00	2024-11-08T06:00:00	4	Temperatura máxima	15.2
85339	7	Sololá	704	Santa Lucía Utatlán 	7	Santa Rita 	4	Abril	2023-01-04T00:00:00	2024-11-08T06:00:00	3	Temperatura mínima	14.8
85340	7	Sololá	704	Santa Lucía Utatlán 	7	Santa Rita 	4	Abril	2023-01-04T00:00:00	2024-11-08T06:00:00	5	Humedad	75
85341	7	Sololá	704	Santa Lucía Utatlán 	7	Santa Rita 	4	Abril	2023-01-04T00:00:00	2024-11-08T06:00:00	6	Velocidad del viento	4.8
85342	7	Sololá	704	Santa Lucía Utatlán 	7	Santa Rita 	4	Abril	2023-01-04T00:00:00	2024-11-08T06:00:00	7	Dirección del viento	4.83
85343	7	Sololá	704	Santa Lucía Utatlán 	7	Santa Rita 	4	Abril	2023-01-04T00:00:00	2024-11-08T06:00:00	1	Precipitación	0
85344	7	Sololá	704	Santa Lucía Utatlán 	7	Santa Rita 	4	Abril	2023-01-04T00:00:00	2024-11-08T06:00:00	8	Radiación solar	0
85345	7	Sololá	704	Santa Lucía Utatlán 	7	Santa Rita 	4	Abril	2023-01-04T00:00:00	2024-11-08T07:00:00	2	Temperatura media	14.8
85346	7	Sololá	704	Santa Lucía Utatlán 	7	Santa Rita 	4	Abril	2023-01-04T00:00:00	2024-11-08T07:00:00	4	Temperatura máxima	14.9
85347	7	Sololá	704	Santa Lucía Utatlán 	7	Santa Rita 	4	Abril	2023-01-04T00:00:00	2024-11-08T07:00:00	3	Temperatura mínima	14.7
85348	7	Sololá	704	Santa Lucía Utatlán 	7	Santa Rita 	4	Abril	2023-01-04T00:00:00	2024-11-08T07:00:00	5	Humedad	75
85349	7	Sololá	704	Santa Lucía Utatlán 	7	Santa Rita 	4	Abril	2023-01-04T00:00:00	2024-11-08T07:00:00	6	Velocidad del viento	4.8
85350	7	Sololá	704	Santa Lucía Utatlán 	7	Santa Rita 	4	Abril	2023-01-04T00:00:00	2024-11-08T07:00:00	7	Dirección del viento	4.83
85351	7	Sololá	704	Santa Lucía Utatlán 	7	Santa Rita 	4	Abril	2023-01-04T00:00:00	2024-11-08T07:00:00	1	Precipitación	0
85352	7	Sololá	704	Santa Lucía Utatlán 	7	Santa Rita 	4	Abril	2023-01-04T00:00:00	2024-11-08T07:00:00	8	Radiación solar	0
85353	7	Sololá	704	Santa Lucía Utatlán 	7	Santa Rita 	4	Abril	2023-01-04T00:00:00	2024-11-08T08:00:00	2	Temperatura media	17.3
85354	7	Sololá	704	Santa Lucía Utatlán 	7	Santa Rita 	4	Abril	2023-01-04T00:00:00	2024-11-08T08:00:00	4	Temperatura máxima	17.3
85355	7	Sololá	704	Santa Lucía Utatlán 	7	Santa Rita 	4	Abril	2023-01-04T00:00:00	2024-11-08T08:00:00	3	Temperatura mínima	14.7
85356	7	Sololá	704	Santa Lucía Utatlán 	7	Santa Rita 	4	Abril	2023-01-04T00:00:00	2024-11-08T08:00:00	5	Humedad	72
85357	7	Sololá	704	Santa Lucía Utatlán 	7	Santa Rita 	4	Abril	2023-01-04T00:00:00	2024-11-08T08:00:00	6	Velocidad del viento	3.2
85358	7	Sololá	704	Santa Lucía Utatlán 	7	Santa Rita 	4	Abril	2023-01-04T00:00:00	2024-11-08T08:00:00	7	Dirección del viento	3.22
85359	7	Sololá	704	Santa Lucía Utatlán 	7	Santa Rita 	4	Abril	2023-01-04T00:00:00	2024-11-08T08:00:00	1	Precipitación	0
85360	7	Sololá	704	Santa Lucía Utatlán 	7	Santa Rita 	4	Abril	2023-01-04T00:00:00	2024-11-08T08:00:00	8	Radiación solar	77
85361	7	Sololá	704	Santa Lucía Utatlán 	7	Santa Rita 	4	Abril	2023-01-04T00:00:00	2024-11-08T09:00:00	2	Temperatura media	20
85362	7	Sololá	704	Santa Lucía Utatlán 	7	Santa Rita 	4	Abril	2023-01-04T00:00:00	2024-11-08T09:00:00	4	Temperatura máxima	20
85363	7	Sololá	704	Santa Lucía Utatlán 	7	Santa Rita 	4	Abril	2023-01-04T00:00:00	2024-11-08T09:00:00	3	Temperatura mínima	17.3
85364	7	Sololá	704	Santa Lucía Utatlán 	7	Santa Rita 	4	Abril	2023-01-04T00:00:00	2024-11-08T09:00:00	5	Humedad	67
85365	7	Sololá	704	Santa Lucía Utatlán 	7	Santa Rita 	4	Abril	2023-01-04T00:00:00	2024-11-08T09:00:00	6	Velocidad del viento	3.2
85366	7	Sololá	704	Santa Lucía Utatlán 	7	Santa Rita 	4	Abril	2023-01-04T00:00:00	2024-11-08T09:00:00	7	Dirección del viento	3.22
85367	7	Sololá	704	Santa Lucía Utatlán 	7	Santa Rita 	4	Abril	2023-01-04T00:00:00	2024-11-08T09:00:00	1	Precipitación	0
85368	7	Sololá	704	Santa Lucía Utatlán 	7	Santa Rita 	4	Abril	2023-01-04T00:00:00	2024-11-08T09:00:00	8	Radiación solar	365
85369	7	Sololá	704	Santa Lucía Utatlán 	7	Santa Rita 	4	Abril	2023-01-04T00:00:00	2024-11-08T10:00:00	2	Temperatura media	22.8
85370	7	Sololá	704	Santa Lucía Utatlán 	7	Santa Rita 	4	Abril	2023-01-04T00:00:00	2024-11-08T10:00:00	4	Temperatura máxima	22.8
85371	7	Sololá	704	Santa Lucía Utatlán 	7	Santa Rita 	4	Abril	2023-01-04T00:00:00	2024-11-08T10:00:00	3	Temperatura mínima	20
85372	7	Sololá	704	Santa Lucía Utatlán 	7	Santa Rita 	4	Abril	2023-01-04T00:00:00	2024-11-08T10:00:00	5	Humedad	54
85373	7	Sololá	704	Santa Lucía Utatlán 	7	Santa Rita 	4	Abril	2023-01-04T00:00:00	2024-11-08T10:00:00	6	Velocidad del viento	4.8
85374	7	Sololá	704	Santa Lucía Utatlán 	7	Santa Rita 	4	Abril	2023-01-04T00:00:00	2024-11-08T10:00:00	7	Dirección del viento	4.83
85375	7	Sololá	704	Santa Lucía Utatlán 	7	Santa Rita 	4	Abril	2023-01-04T00:00:00	2024-11-08T10:00:00	1	Precipitación	0
85376	7	Sololá	704	Santa Lucía Utatlán 	7	Santa Rita 	4	Abril	2023-01-04T00:00:00	2024-11-08T10:00:00	8	Radiación solar	605
85377	7	Sololá	704	Santa Lucía Utatlán 	7	Santa Rita 	4	Abril	2023-01-04T00:00:00	2024-11-08T11:00:00	2	Temperatura media	25.3
85378	7	Sololá	704	Santa Lucía Utatlán 	7	Santa Rita 	4	Abril	2023-01-04T00:00:00	2024-11-08T11:00:00	4	Temperatura máxima	25.3
85379	7	Sololá	704	Santa Lucía Utatlán 	7	Santa Rita 	4	Abril	2023-01-04T00:00:00	2024-11-08T11:00:00	3	Temperatura mínima	22.8
85380	7	Sololá	704	Santa Lucía Utatlán 	7	Santa Rita 	4	Abril	2023-01-04T00:00:00	2024-11-08T11:00:00	5	Humedad	35
85381	7	Sololá	704	Santa Lucía Utatlán 	7	Santa Rita 	4	Abril	2023-01-04T00:00:00	2024-11-08T11:00:00	6	Velocidad del viento	6.4
85382	7	Sololá	704	Santa Lucía Utatlán 	7	Santa Rita 	4	Abril	2023-01-04T00:00:00	2024-11-08T11:00:00	7	Dirección del viento	6.44
85383	7	Sololá	704	Santa Lucía Utatlán 	7	Santa Rita 	4	Abril	2023-01-04T00:00:00	2024-11-08T11:00:00	1	Precipitación	0
85384	7	Sololá	704	Santa Lucía Utatlán 	7	Santa Rita 	4	Abril	2023-01-04T00:00:00	2024-11-08T11:00:00	8	Radiación solar	811
85385	7	Sololá	704	Santa Lucía Utatlán 	7	Santa Rita 	4	Abril	2023-01-04T00:00:00	2024-11-08T12:00:00	2	Temperatura media	26.4
85386	7	Sololá	704	Santa Lucía Utatlán 	7	Santa Rita 	4	Abril	2023-01-04T00:00:00	2024-11-08T12:00:00	4	Temperatura máxima	26.6
85387	7	Sololá	704	Santa Lucía Utatlán 	7	Santa Rita 	4	Abril	2023-01-04T00:00:00	2024-11-08T12:00:00	3	Temperatura mínima	25.3
85388	7	Sololá	704	Santa Lucía Utatlán 	7	Santa Rita 	4	Abril	2023-01-04T00:00:00	2024-11-08T12:00:00	5	Humedad	26
85389	7	Sololá	704	Santa Lucía Utatlán 	7	Santa Rita 	4	Abril	2023-01-04T00:00:00	2024-11-08T12:00:00	6	Velocidad del viento	12.9
85390	7	Sololá	704	Santa Lucía Utatlán 	7	Santa Rita 	4	Abril	2023-01-04T00:00:00	2024-11-08T12:00:00	7	Dirección del viento	12.87
85391	7	Sololá	704	Santa Lucía Utatlán 	7	Santa Rita 	4	Abril	2023-01-04T00:00:00	2024-11-08T12:00:00	1	Precipitación	0
85392	7	Sololá	704	Santa Lucía Utatlán 	7	Santa Rita 	4	Abril	2023-01-04T00:00:00	2024-11-08T12:00:00	8	Radiación solar	963
85393	7	Sololá	704	Santa Lucía Utatlán 	7	Santa Rita 	4	Abril	2023-01-04T00:00:00	2024-11-08T13:00:00	2	Temperatura media	26.9
85394	7	Sololá	704	Santa Lucía Utatlán 	7	Santa Rita 	4	Abril	2023-01-04T00:00:00	2024-11-08T13:00:00	4	Temperatura máxima	27.2
85395	7	Sololá	704	Santa Lucía Utatlán 	7	Santa Rita 	4	Abril	2023-01-04T00:00:00	2024-11-08T13:00:00	3	Temperatura mínima	25.9
85396	7	Sololá	704	Santa Lucía Utatlán 	7	Santa Rita 	4	Abril	2023-01-04T00:00:00	2024-11-08T13:00:00	5	Humedad	30
85397	7	Sololá	704	Santa Lucía Utatlán 	7	Santa Rita 	4	Abril	2023-01-04T00:00:00	2024-11-08T13:00:00	6	Velocidad del viento	14.5
85398	7	Sololá	704	Santa Lucía Utatlán 	7	Santa Rita 	4	Abril	2023-01-04T00:00:00	2024-11-08T13:00:00	7	Dirección del viento	14.48
85399	7	Sololá	704	Santa Lucía Utatlán 	7	Santa Rita 	4	Abril	2023-01-04T00:00:00	2024-11-08T13:00:00	1	Precipitación	0
85400	7	Sololá	704	Santa Lucía Utatlán 	7	Santa Rita 	4	Abril	2023-01-04T00:00:00	2024-11-08T13:00:00	8	Radiación solar	1036
85401	7	Sololá	704	Santa Lucía Utatlán 	7	Santa Rita 	4	Abril	2023-01-04T00:00:00	2024-11-08T14:00:00	2	Temperatura media	26.8
85402	7	Sololá	704	Santa Lucía Utatlán 	7	Santa Rita 	4	Abril	2023-01-04T00:00:00	2024-11-08T14:00:00	4	Temperatura máxima	27.3
85403	7	Sololá	704	Santa Lucía Utatlán 	7	Santa Rita 	4	Abril	2023-01-04T00:00:00	2024-11-08T14:00:00	3	Temperatura mínima	26.4
85404	7	Sololá	704	Santa Lucía Utatlán 	7	Santa Rita 	4	Abril	2023-01-04T00:00:00	2024-11-08T14:00:00	5	Humedad	41
85405	7	Sololá	704	Santa Lucía Utatlán 	7	Santa Rita 	4	Abril	2023-01-04T00:00:00	2024-11-08T14:00:00	6	Velocidad del viento	12.9
85406	7	Sololá	704	Santa Lucía Utatlán 	7	Santa Rita 	4	Abril	2023-01-04T00:00:00	2024-11-08T14:00:00	7	Dirección del viento	12.87
85407	7	Sololá	704	Santa Lucía Utatlán 	7	Santa Rita 	4	Abril	2023-01-04T00:00:00	2024-11-08T14:00:00	1	Precipitación	0
85408	7	Sololá	704	Santa Lucía Utatlán 	7	Santa Rita 	4	Abril	2023-01-04T00:00:00	2024-11-08T14:00:00	8	Radiación solar	1028
85409	7	Sololá	704	Santa Lucía Utatlán 	7	Santa Rita 	4	Abril	2023-01-04T00:00:00	2024-11-08T15:00:00	2	Temperatura media	25.7
85410	7	Sololá	704	Santa Lucía Utatlán 	7	Santa Rita 	4	Abril	2023-01-04T00:00:00	2024-11-08T15:00:00	4	Temperatura máxima	27.2
85411	7	Sololá	704	Santa Lucía Utatlán 	7	Santa Rita 	4	Abril	2023-01-04T00:00:00	2024-11-08T15:00:00	3	Temperatura mínima	25.7
85412	7	Sololá	704	Santa Lucía Utatlán 	7	Santa Rita 	4	Abril	2023-01-04T00:00:00	2024-11-08T15:00:00	5	Humedad	58
85413	7	Sololá	704	Santa Lucía Utatlán 	7	Santa Rita 	4	Abril	2023-01-04T00:00:00	2024-11-08T15:00:00	6	Velocidad del viento	12.9
85414	7	Sololá	704	Santa Lucía Utatlán 	7	Santa Rita 	4	Abril	2023-01-04T00:00:00	2024-11-08T15:00:00	7	Dirección del viento	12.87
85415	7	Sololá	704	Santa Lucía Utatlán 	7	Santa Rita 	4	Abril	2023-01-04T00:00:00	2024-11-08T15:00:00	1	Precipitación	0
85416	7	Sololá	704	Santa Lucía Utatlán 	7	Santa Rita 	4	Abril	2023-01-04T00:00:00	2024-11-08T15:00:00	8	Radiación solar	939
85417	7	Sololá	704	Santa Lucía Utatlán 	7	Santa Rita 	4	Abril	2023-01-04T00:00:00	2024-11-08T16:00:00	2	Temperatura media	24.6
85418	7	Sololá	704	Santa Lucía Utatlán 	7	Santa Rita 	4	Abril	2023-01-04T00:00:00	2024-11-08T16:00:00	4	Temperatura máxima	26.1
85419	7	Sololá	704	Santa Lucía Utatlán 	7	Santa Rita 	4	Abril	2023-01-04T00:00:00	2024-11-08T16:00:00	3	Temperatura mínima	24.4
85420	7	Sololá	704	Santa Lucía Utatlán 	7	Santa Rita 	4	Abril	2023-01-04T00:00:00	2024-11-08T16:00:00	5	Humedad	70
85421	7	Sololá	704	Santa Lucía Utatlán 	7	Santa Rita 	4	Abril	2023-01-04T00:00:00	2024-11-08T16:00:00	6	Velocidad del viento	11.3
85422	7	Sololá	704	Santa Lucía Utatlán 	7	Santa Rita 	4	Abril	2023-01-04T00:00:00	2024-11-08T16:00:00	7	Dirección del viento	11.27
85423	7	Sololá	704	Santa Lucía Utatlán 	7	Santa Rita 	4	Abril	2023-01-04T00:00:00	2024-11-08T16:00:00	1	Precipitación	0
85424	7	Sololá	704	Santa Lucía Utatlán 	7	Santa Rita 	4	Abril	2023-01-04T00:00:00	2024-11-08T16:00:00	8	Radiación solar	757
85425	7	Sololá	704	Santa Lucía Utatlán 	7	Santa Rita 	4	Abril	2023-01-04T00:00:00	2024-11-08T17:00:00	2	Temperatura media	24.1
85426	7	Sololá	704	Santa Lucía Utatlán 	7	Santa Rita 	4	Abril	2023-01-04T00:00:00	2024-11-08T17:00:00	4	Temperatura máxima	24.8
85427	7	Sololá	704	Santa Lucía Utatlán 	7	Santa Rita 	4	Abril	2023-01-04T00:00:00	2024-11-08T17:00:00	3	Temperatura mínima	24.1
85428	7	Sololá	704	Santa Lucía Utatlán 	7	Santa Rita 	4	Abril	2023-01-04T00:00:00	2024-11-08T17:00:00	5	Humedad	70
85429	7	Sololá	704	Santa Lucía Utatlán 	7	Santa Rita 	4	Abril	2023-01-04T00:00:00	2024-11-08T17:00:00	6	Velocidad del viento	9.7
85430	7	Sololá	704	Santa Lucía Utatlán 	7	Santa Rita 	4	Abril	2023-01-04T00:00:00	2024-11-08T17:00:00	7	Dirección del viento	9.66
85431	7	Sololá	704	Santa Lucía Utatlán 	7	Santa Rita 	4	Abril	2023-01-04T00:00:00	2024-11-08T17:00:00	1	Precipitación	0
85432	7	Sololá	704	Santa Lucía Utatlán 	7	Santa Rita 	4	Abril	2023-01-04T00:00:00	2024-11-08T17:00:00	8	Radiación solar	450
85433	7	Sololá	704	Santa Lucía Utatlán 	7	Santa Rita 	4	Abril	2023-01-04T00:00:00	2024-11-08T18:00:00	2	Temperatura media	23.6
85434	7	Sololá	704	Santa Lucía Utatlán 	7	Santa Rita 	4	Abril	2023-01-04T00:00:00	2024-11-08T18:00:00	4	Temperatura máxima	24.3
85435	7	Sololá	704	Santa Lucía Utatlán 	7	Santa Rita 	4	Abril	2023-01-04T00:00:00	2024-11-08T18:00:00	3	Temperatura mínima	23.4
85436	7	Sololá	704	Santa Lucía Utatlán 	7	Santa Rita 	4	Abril	2023-01-04T00:00:00	2024-11-08T18:00:00	5	Humedad	69
85437	7	Sololá	704	Santa Lucía Utatlán 	7	Santa Rita 	4	Abril	2023-01-04T00:00:00	2024-11-08T18:00:00	6	Velocidad del viento	8
85438	7	Sololá	704	Santa Lucía Utatlán 	7	Santa Rita 	4	Abril	2023-01-04T00:00:00	2024-11-08T18:00:00	7	Dirección del viento	8.05
85439	7	Sololá	704	Santa Lucía Utatlán 	7	Santa Rita 	4	Abril	2023-01-04T00:00:00	2024-11-08T18:00:00	1	Precipitación	0
85440	7	Sololá	704	Santa Lucía Utatlán 	7	Santa Rita 	4	Abril	2023-01-04T00:00:00	2024-11-08T18:00:00	8	Radiación solar	256
85441	7	Sololá	704	Santa Lucía Utatlán 	7	Santa Rita 	4	Abril	2023-01-04T00:00:00	2024-11-08T19:00:00	2	Temperatura media	21.5
85442	7	Sololá	704	Santa Lucía Utatlán 	7	Santa Rita 	4	Abril	2023-01-04T00:00:00	2024-11-08T19:00:00	4	Temperatura máxima	23.6
85443	7	Sololá	704	Santa Lucía Utatlán 	7	Santa Rita 	4	Abril	2023-01-04T00:00:00	2024-11-08T19:00:00	3	Temperatura mínima	21.5
85444	7	Sololá	704	Santa Lucía Utatlán 	7	Santa Rita 	4	Abril	2023-01-04T00:00:00	2024-11-08T19:00:00	5	Humedad	82
85445	7	Sololá	704	Santa Lucía Utatlán 	7	Santa Rita 	4	Abril	2023-01-04T00:00:00	2024-11-08T19:00:00	6	Velocidad del viento	6.4
85446	7	Sololá	704	Santa Lucía Utatlán 	7	Santa Rita 	4	Abril	2023-01-04T00:00:00	2024-11-08T19:00:00	7	Dirección del viento	6.44
85447	7	Sololá	704	Santa Lucía Utatlán 	7	Santa Rita 	4	Abril	2023-01-04T00:00:00	2024-11-08T19:00:00	1	Precipitación	0
85448	7	Sololá	704	Santa Lucía Utatlán 	7	Santa Rita 	4	Abril	2023-01-04T00:00:00	2024-11-08T19:00:00	8	Radiación solar	0
85449	7	Sololá	704	Santa Lucía Utatlán 	7	Santa Rita 	4	Abril	2023-01-04T00:00:00	2024-11-08T20:00:00	2	Temperatura media	20.9
85450	7	Sololá	704	Santa Lucía Utatlán 	7	Santa Rita 	4	Abril	2023-01-04T00:00:00	2024-11-08T20:00:00	4	Temperatura máxima	21.4
85451	7	Sololá	704	Santa Lucía Utatlán 	7	Santa Rita 	4	Abril	2023-01-04T00:00:00	2024-11-08T20:00:00	3	Temperatura mínima	20.9
85452	7	Sololá	704	Santa Lucía Utatlán 	7	Santa Rita 	4	Abril	2023-01-04T00:00:00	2024-11-08T20:00:00	5	Humedad	72
85453	7	Sololá	704	Santa Lucía Utatlán 	7	Santa Rita 	4	Abril	2023-01-04T00:00:00	2024-11-08T20:00:00	6	Velocidad del viento	4.8
85454	7	Sololá	704	Santa Lucía Utatlán 	7	Santa Rita 	4	Abril	2023-01-04T00:00:00	2024-11-08T20:00:00	7	Dirección del viento	4.83
85455	7	Sololá	704	Santa Lucía Utatlán 	7	Santa Rita 	4	Abril	2023-01-04T00:00:00	2024-11-08T20:00:00	1	Precipitación	0
85456	7	Sololá	704	Santa Lucía Utatlán 	7	Santa Rita 	4	Abril	2023-01-04T00:00:00	2024-11-08T20:00:00	8	Radiación solar	0
85457	7	Sololá	704	Santa Lucía Utatlán 	7	Santa Rita 	4	Abril	2023-01-04T00:00:00	2024-11-08T21:00:00	2	Temperatura media	20
85458	7	Sololá	704	Santa Lucía Utatlán 	7	Santa Rita 	4	Abril	2023-01-04T00:00:00	2024-11-08T21:00:00	4	Temperatura máxima	20.9
85459	7	Sololá	704	Santa Lucía Utatlán 	7	Santa Rita 	4	Abril	2023-01-04T00:00:00	2024-11-08T21:00:00	3	Temperatura mínima	20
85460	7	Sololá	704	Santa Lucía Utatlán 	7	Santa Rita 	4	Abril	2023-01-04T00:00:00	2024-11-08T21:00:00	5	Humedad	69
85461	7	Sololá	704	Santa Lucía Utatlán 	7	Santa Rita 	4	Abril	2023-01-04T00:00:00	2024-11-08T21:00:00	6	Velocidad del viento	4.8
85462	7	Sololá	704	Santa Lucía Utatlán 	7	Santa Rita 	4	Abril	2023-01-04T00:00:00	2024-11-08T21:00:00	7	Dirección del viento	4.83
85463	7	Sololá	704	Santa Lucía Utatlán 	7	Santa Rita 	4	Abril	2023-01-04T00:00:00	2024-11-08T21:00:00	1	Precipitación	0
85464	7	Sololá	704	Santa Lucía Utatlán 	7	Santa Rita 	4	Abril	2023-01-04T00:00:00	2024-11-08T21:00:00	8	Radiación solar	0
85465	7	Sololá	704	Santa Lucía Utatlán 	7	Santa Rita 	4	Abril	2023-01-04T00:00:00	2024-11-08T22:00:00	2	Temperatura media	18
85466	7	Sololá	704	Santa Lucía Utatlán 	7	Santa Rita 	4	Abril	2023-01-04T00:00:00	2024-11-08T22:00:00	4	Temperatura máxima	20.1
85467	7	Sololá	704	Santa Lucía Utatlán 	7	Santa Rita 	4	Abril	2023-01-04T00:00:00	2024-11-08T22:00:00	3	Temperatura mínima	18
85468	7	Sololá	704	Santa Lucía Utatlán 	7	Santa Rita 	4	Abril	2023-01-04T00:00:00	2024-11-08T22:00:00	5	Humedad	75
85469	7	Sololá	704	Santa Lucía Utatlán 	7	Santa Rita 	4	Abril	2023-01-04T00:00:00	2024-11-08T22:00:00	6	Velocidad del viento	1.6
85470	7	Sololá	704	Santa Lucía Utatlán 	7	Santa Rita 	4	Abril	2023-01-04T00:00:00	2024-11-08T22:00:00	7	Dirección del viento	1.61
85471	7	Sololá	704	Santa Lucía Utatlán 	7	Santa Rita 	4	Abril	2023-01-04T00:00:00	2024-11-08T22:00:00	1	Precipitación	0
85472	7	Sololá	704	Santa Lucía Utatlán 	7	Santa Rita 	4	Abril	2023-01-04T00:00:00	2024-11-08T22:00:00	8	Radiación solar	0
85473	7	Sololá	704	Santa Lucía Utatlán 	7	Santa Rita 	4	Abril	2023-01-04T00:00:00	2024-11-08T23:00:00	2	Temperatura media	16.8
85474	7	Sololá	704	Santa Lucía Utatlán 	7	Santa Rita 	4	Abril	2023-01-04T00:00:00	2024-11-08T23:00:00	4	Temperatura máxima	18.1
85475	7	Sololá	704	Santa Lucía Utatlán 	7	Santa Rita 	4	Abril	2023-01-04T00:00:00	2024-11-08T23:00:00	3	Temperatura mínima	16.7
85476	7	Sololá	704	Santa Lucía Utatlán 	7	Santa Rita 	4	Abril	2023-01-04T00:00:00	2024-11-08T23:00:00	5	Humedad	77
85477	7	Sololá	704	Santa Lucía Utatlán 	7	Santa Rita 	4	Abril	2023-01-04T00:00:00	2024-11-08T23:00:00	6	Velocidad del viento	1.6
85478	7	Sololá	704	Santa Lucía Utatlán 	7	Santa Rita 	4	Abril	2023-01-04T00:00:00	2024-11-08T23:00:00	7	Dirección del viento	1.61
85479	7	Sololá	704	Santa Lucía Utatlán 	7	Santa Rita 	4	Abril	2023-01-04T00:00:00	2024-11-08T23:00:00	1	Precipitación	0
85480	7	Sololá	704	Santa Lucía Utatlán 	7	Santa Rita 	4	Abril	2023-01-04T00:00:00	2024-11-08T23:00:00	8	Radiación solar	0
85481	7	Sololá	704	Santa Lucía Utatlán 	7	Santa Rita 	4	Abril	2023-02-04T00:00:00	2024-11-08T00:00:00	2	Temperatura media	15.8
85482	7	Sololá	704	Santa Lucía Utatlán 	7	Santa Rita 	4	Abril	2023-02-04T00:00:00	2024-11-08T00:00:00	4	Temperatura máxima	16.8
85483	7	Sololá	704	Santa Lucía Utatlán 	7	Santa Rita 	4	Abril	2023-02-04T00:00:00	2024-11-08T00:00:00	3	Temperatura mínima	15.7
85484	7	Sololá	704	Santa Lucía Utatlán 	7	Santa Rita 	4	Abril	2023-02-04T00:00:00	2024-11-08T00:00:00	5	Humedad	77
85485	7	Sololá	704	Santa Lucía Utatlán 	7	Santa Rita 	4	Abril	2023-02-04T00:00:00	2024-11-08T00:00:00	6	Velocidad del viento	3.2
85486	7	Sololá	704	Santa Lucía Utatlán 	7	Santa Rita 	4	Abril	2023-02-04T00:00:00	2024-11-08T00:00:00	7	Dirección del viento	3.22
85487	7	Sololá	704	Santa Lucía Utatlán 	7	Santa Rita 	4	Abril	2023-02-04T00:00:00	2024-11-08T00:00:00	1	Precipitación	0
85488	7	Sololá	704	Santa Lucía Utatlán 	7	Santa Rita 	4	Abril	2023-02-04T00:00:00	2024-11-08T00:00:00	8	Radiación solar	0
85489	7	Sololá	704	Santa Lucía Utatlán 	7	Santa Rita 	4	Abril	2023-02-04T00:00:00	2024-11-08T01:00:00	2	Temperatura media	16
85490	7	Sololá	704	Santa Lucía Utatlán 	7	Santa Rita 	4	Abril	2023-02-04T00:00:00	2024-11-08T01:00:00	4	Temperatura máxima	16.6
85491	7	Sololá	704	Santa Lucía Utatlán 	7	Santa Rita 	4	Abril	2023-02-04T00:00:00	2024-11-08T01:00:00	3	Temperatura mínima	15.8
85492	7	Sololá	704	Santa Lucía Utatlán 	7	Santa Rita 	4	Abril	2023-02-04T00:00:00	2024-11-08T01:00:00	5	Humedad	59
85493	7	Sololá	704	Santa Lucía Utatlán 	7	Santa Rita 	4	Abril	2023-02-04T00:00:00	2024-11-08T01:00:00	6	Velocidad del viento	3.2
85494	7	Sololá	704	Santa Lucía Utatlán 	7	Santa Rita 	4	Abril	2023-02-04T00:00:00	2024-11-08T01:00:00	7	Dirección del viento	3.22
85495	7	Sololá	704	Santa Lucía Utatlán 	7	Santa Rita 	4	Abril	2023-02-04T00:00:00	2024-11-08T01:00:00	1	Precipitación	0
85496	7	Sololá	704	Santa Lucía Utatlán 	7	Santa Rita 	4	Abril	2023-02-04T00:00:00	2024-11-08T01:00:00	8	Radiación solar	0
85497	7	Sololá	704	Santa Lucía Utatlán 	7	Santa Rita 	4	Abril	2023-02-04T00:00:00	2024-11-08T02:00:00	2	Temperatura media	15.1
85498	7	Sololá	704	Santa Lucía Utatlán 	7	Santa Rita 	4	Abril	2023-02-04T00:00:00	2024-11-08T02:00:00	4	Temperatura máxima	16.8
85499	7	Sololá	704	Santa Lucía Utatlán 	7	Santa Rita 	4	Abril	2023-02-04T00:00:00	2024-11-08T02:00:00	3	Temperatura mínima	15.1
85500	7	Sololá	704	Santa Lucía Utatlán 	7	Santa Rita 	4	Abril	2023-02-04T00:00:00	2024-11-08T02:00:00	5	Humedad	37
85501	7	Sololá	704	Santa Lucía Utatlán 	7	Santa Rita 	4	Abril	2023-02-04T00:00:00	2024-11-08T02:00:00	6	Velocidad del viento	3.2
85502	7	Sololá	704	Santa Lucía Utatlán 	7	Santa Rita 	4	Abril	2023-02-04T00:00:00	2024-11-08T02:00:00	7	Dirección del viento	3.22
85503	7	Sololá	704	Santa Lucía Utatlán 	7	Santa Rita 	4	Abril	2023-02-04T00:00:00	2024-11-08T02:00:00	1	Precipitación	0
85504	7	Sololá	704	Santa Lucía Utatlán 	7	Santa Rita 	4	Abril	2023-02-04T00:00:00	2024-11-08T02:00:00	8	Radiación solar	0
85505	7	Sololá	704	Santa Lucía Utatlán 	7	Santa Rita 	4	Abril	2023-02-04T00:00:00	2024-11-08T03:00:00	2	Temperatura media	15.2
85506	7	Sololá	704	Santa Lucía Utatlán 	7	Santa Rita 	4	Abril	2023-02-04T00:00:00	2024-11-08T03:00:00	4	Temperatura máxima	15.2
85507	7	Sololá	704	Santa Lucía Utatlán 	7	Santa Rita 	4	Abril	2023-02-04T00:00:00	2024-11-08T03:00:00	3	Temperatura mínima	14.8
85508	7	Sololá	704	Santa Lucía Utatlán 	7	Santa Rita 	4	Abril	2023-02-04T00:00:00	2024-11-08T03:00:00	5	Humedad	35
85509	7	Sololá	704	Santa Lucía Utatlán 	7	Santa Rita 	4	Abril	2023-02-04T00:00:00	2024-11-08T03:00:00	6	Velocidad del viento	6.4
85510	7	Sololá	704	Santa Lucía Utatlán 	7	Santa Rita 	4	Abril	2023-02-04T00:00:00	2024-11-08T03:00:00	7	Dirección del viento	6.44
85511	7	Sololá	704	Santa Lucía Utatlán 	7	Santa Rita 	4	Abril	2023-02-04T00:00:00	2024-11-08T03:00:00	1	Precipitación	0
85512	7	Sololá	704	Santa Lucía Utatlán 	7	Santa Rita 	4	Abril	2023-02-04T00:00:00	2024-11-08T03:00:00	8	Radiación solar	0
85513	7	Sololá	704	Santa Lucía Utatlán 	7	Santa Rita 	4	Abril	2023-02-04T00:00:00	2024-11-08T04:00:00	2	Temperatura media	14.8
85514	7	Sololá	704	Santa Lucía Utatlán 	7	Santa Rita 	4	Abril	2023-02-04T00:00:00	2024-11-08T04:00:00	4	Temperatura máxima	15.4
85515	7	Sololá	704	Santa Lucía Utatlán 	7	Santa Rita 	4	Abril	2023-02-04T00:00:00	2024-11-08T04:00:00	3	Temperatura mínima	14.8
85516	7	Sololá	704	Santa Lucía Utatlán 	7	Santa Rita 	4	Abril	2023-02-04T00:00:00	2024-11-08T04:00:00	5	Humedad	37
85517	7	Sololá	704	Santa Lucía Utatlán 	7	Santa Rita 	4	Abril	2023-02-04T00:00:00	2024-11-08T04:00:00	6	Velocidad del viento	6.4
85518	7	Sololá	704	Santa Lucía Utatlán 	7	Santa Rita 	4	Abril	2023-02-04T00:00:00	2024-11-08T04:00:00	7	Dirección del viento	6.44
85519	7	Sololá	704	Santa Lucía Utatlán 	7	Santa Rita 	4	Abril	2023-02-04T00:00:00	2024-11-08T04:00:00	1	Precipitación	0
85520	7	Sololá	704	Santa Lucía Utatlán 	7	Santa Rita 	4	Abril	2023-02-04T00:00:00	2024-11-08T04:00:00	8	Radiación solar	0
85521	7	Sololá	704	Santa Lucía Utatlán 	7	Santa Rita 	4	Abril	2023-02-04T00:00:00	2024-11-08T05:00:00	2	Temperatura media	14.2
85522	7	Sololá	704	Santa Lucía Utatlán 	7	Santa Rita 	4	Abril	2023-02-04T00:00:00	2024-11-08T05:00:00	4	Temperatura máxima	14.9
85523	7	Sololá	704	Santa Lucía Utatlán 	7	Santa Rita 	4	Abril	2023-02-04T00:00:00	2024-11-08T05:00:00	3	Temperatura mínima	14.2
85524	7	Sololá	704	Santa Lucía Utatlán 	7	Santa Rita 	4	Abril	2023-02-04T00:00:00	2024-11-08T05:00:00	5	Humedad	33
85525	7	Sololá	704	Santa Lucía Utatlán 	7	Santa Rita 	4	Abril	2023-02-04T00:00:00	2024-11-08T05:00:00	6	Velocidad del viento	6.4
85526	7	Sololá	704	Santa Lucía Utatlán 	7	Santa Rita 	4	Abril	2023-02-04T00:00:00	2024-11-08T05:00:00	7	Dirección del viento	6.44
85527	7	Sololá	704	Santa Lucía Utatlán 	7	Santa Rita 	4	Abril	2023-02-04T00:00:00	2024-11-08T05:00:00	1	Precipitación	0
85528	7	Sololá	704	Santa Lucía Utatlán 	7	Santa Rita 	4	Abril	2023-02-04T00:00:00	2024-11-08T05:00:00	8	Radiación solar	0
85529	7	Sololá	704	Santa Lucía Utatlán 	7	Santa Rita 	4	Abril	2023-02-04T00:00:00	2024-11-08T06:00:00	2	Temperatura media	14.5
85530	7	Sololá	704	Santa Lucía Utatlán 	7	Santa Rita 	4	Abril	2023-02-04T00:00:00	2024-11-08T06:00:00	4	Temperatura máxima	14.6
85531	7	Sololá	704	Santa Lucía Utatlán 	7	Santa Rita 	4	Abril	2023-02-04T00:00:00	2024-11-08T06:00:00	3	Temperatura mínima	14.1
85532	7	Sololá	704	Santa Lucía Utatlán 	7	Santa Rita 	4	Abril	2023-02-04T00:00:00	2024-11-08T06:00:00	5	Humedad	35
85533	7	Sololá	704	Santa Lucía Utatlán 	7	Santa Rita 	4	Abril	2023-02-04T00:00:00	2024-11-08T06:00:00	6	Velocidad del viento	6.4
85534	7	Sololá	704	Santa Lucía Utatlán 	7	Santa Rita 	4	Abril	2023-02-04T00:00:00	2024-11-08T06:00:00	7	Dirección del viento	6.44
85535	7	Sololá	704	Santa Lucía Utatlán 	7	Santa Rita 	4	Abril	2023-02-04T00:00:00	2024-11-08T06:00:00	1	Precipitación	0
85536	7	Sololá	704	Santa Lucía Utatlán 	7	Santa Rita 	4	Abril	2023-02-04T00:00:00	2024-11-08T06:00:00	8	Radiación solar	0
85537	7	Sololá	704	Santa Lucía Utatlán 	7	Santa Rita 	4	Abril	2023-02-04T00:00:00	2024-11-08T07:00:00	2	Temperatura media	14.3
85538	7	Sololá	704	Santa Lucía Utatlán 	7	Santa Rita 	4	Abril	2023-02-04T00:00:00	2024-11-08T07:00:00	4	Temperatura máxima	14.5
85539	7	Sololá	704	Santa Lucía Utatlán 	7	Santa Rita 	4	Abril	2023-02-04T00:00:00	2024-11-08T07:00:00	3	Temperatura mínima	13.8
85540	7	Sololá	704	Santa Lucía Utatlán 	7	Santa Rita 	4	Abril	2023-02-04T00:00:00	2024-11-08T07:00:00	5	Humedad	30
85541	7	Sololá	704	Santa Lucía Utatlán 	7	Santa Rita 	4	Abril	2023-02-04T00:00:00	2024-11-08T07:00:00	6	Velocidad del viento	4.8
85542	7	Sololá	704	Santa Lucía Utatlán 	7	Santa Rita 	4	Abril	2023-02-04T00:00:00	2024-11-08T07:00:00	7	Dirección del viento	4.83
85543	7	Sololá	704	Santa Lucía Utatlán 	7	Santa Rita 	4	Abril	2023-02-04T00:00:00	2024-11-08T07:00:00	1	Precipitación	0
85544	7	Sololá	704	Santa Lucía Utatlán 	7	Santa Rita 	4	Abril	2023-02-04T00:00:00	2024-11-08T07:00:00	8	Radiación solar	1
85545	7	Sololá	704	Santa Lucía Utatlán 	7	Santa Rita 	4	Abril	2023-02-04T00:00:00	2024-11-08T08:00:00	2	Temperatura media	17.4
85546	7	Sololá	704	Santa Lucía Utatlán 	7	Santa Rita 	4	Abril	2023-02-04T00:00:00	2024-11-08T08:00:00	4	Temperatura máxima	17.4
85547	7	Sololá	704	Santa Lucía Utatlán 	7	Santa Rita 	4	Abril	2023-02-04T00:00:00	2024-11-08T08:00:00	3	Temperatura mínima	14.3
85548	7	Sololá	704	Santa Lucía Utatlán 	7	Santa Rita 	4	Abril	2023-02-04T00:00:00	2024-11-08T08:00:00	5	Humedad	38
85549	7	Sololá	704	Santa Lucía Utatlán 	7	Santa Rita 	4	Abril	2023-02-04T00:00:00	2024-11-08T08:00:00	6	Velocidad del viento	3.2
85550	7	Sololá	704	Santa Lucía Utatlán 	7	Santa Rita 	4	Abril	2023-02-04T00:00:00	2024-11-08T08:00:00	7	Dirección del viento	3.22
85551	7	Sololá	704	Santa Lucía Utatlán 	7	Santa Rita 	4	Abril	2023-02-04T00:00:00	2024-11-08T08:00:00	1	Precipitación	0
85552	7	Sololá	704	Santa Lucía Utatlán 	7	Santa Rita 	4	Abril	2023-02-04T00:00:00	2024-11-08T08:00:00	8	Radiación solar	86
85553	7	Sololá	704	Santa Lucía Utatlán 	7	Santa Rita 	4	Abril	2023-02-04T00:00:00	2024-11-08T09:00:00	2	Temperatura media	20.6
85554	7	Sololá	704	Santa Lucía Utatlán 	7	Santa Rita 	4	Abril	2023-02-04T00:00:00	2024-11-08T09:00:00	4	Temperatura máxima	20.6
85555	7	Sololá	704	Santa Lucía Utatlán 	7	Santa Rita 	4	Abril	2023-02-04T00:00:00	2024-11-08T09:00:00	3	Temperatura mínima	17.4
85556	7	Sololá	704	Santa Lucía Utatlán 	7	Santa Rita 	4	Abril	2023-02-04T00:00:00	2024-11-08T09:00:00	5	Humedad	44
85557	7	Sololá	704	Santa Lucía Utatlán 	7	Santa Rita 	4	Abril	2023-02-04T00:00:00	2024-11-08T09:00:00	6	Velocidad del viento	3.2
85558	7	Sololá	704	Santa Lucía Utatlán 	7	Santa Rita 	4	Abril	2023-02-04T00:00:00	2024-11-08T09:00:00	7	Dirección del viento	3.22
85559	7	Sololá	704	Santa Lucía Utatlán 	7	Santa Rita 	4	Abril	2023-02-04T00:00:00	2024-11-08T09:00:00	1	Precipitación	0
85560	7	Sololá	704	Santa Lucía Utatlán 	7	Santa Rita 	4	Abril	2023-02-04T00:00:00	2024-11-08T09:00:00	8	Radiación solar	377
85561	7	Sololá	704	Santa Lucía Utatlán 	7	Santa Rita 	4	Abril	2023-02-04T00:00:00	2024-11-08T10:00:00	2	Temperatura media	23.1
85562	7	Sololá	704	Santa Lucía Utatlán 	7	Santa Rita 	4	Abril	2023-02-04T00:00:00	2024-11-08T10:00:00	4	Temperatura máxima	23.1
85563	7	Sololá	704	Santa Lucía Utatlán 	7	Santa Rita 	4	Abril	2023-02-04T00:00:00	2024-11-08T10:00:00	3	Temperatura mínima	20.6
85564	7	Sololá	704	Santa Lucía Utatlán 	7	Santa Rita 	4	Abril	2023-02-04T00:00:00	2024-11-08T10:00:00	5	Humedad	41
85565	7	Sololá	704	Santa Lucía Utatlán 	7	Santa Rita 	4	Abril	2023-02-04T00:00:00	2024-11-08T10:00:00	6	Velocidad del viento	11.3
85566	7	Sololá	704	Santa Lucía Utatlán 	7	Santa Rita 	4	Abril	2023-02-04T00:00:00	2024-11-08T10:00:00	7	Dirección del viento	11.27
85567	7	Sololá	704	Santa Lucía Utatlán 	7	Santa Rita 	4	Abril	2023-02-04T00:00:00	2024-11-08T10:00:00	1	Precipitación	0
85568	7	Sololá	704	Santa Lucía Utatlán 	7	Santa Rita 	4	Abril	2023-02-04T00:00:00	2024-11-08T10:00:00	8	Radiación solar	621
85569	7	Sololá	704	Santa Lucía Utatlán 	7	Santa Rita 	4	Abril	2023-02-04T00:00:00	2024-11-08T11:00:00	2	Temperatura media	24.4
85570	7	Sololá	704	Santa Lucía Utatlán 	7	Santa Rita 	4	Abril	2023-02-04T00:00:00	2024-11-08T11:00:00	4	Temperatura máxima	24.4
85571	7	Sololá	704	Santa Lucía Utatlán 	7	Santa Rita 	4	Abril	2023-02-04T00:00:00	2024-11-08T11:00:00	3	Temperatura mínima	23.1
85572	7	Sololá	704	Santa Lucía Utatlán 	7	Santa Rita 	4	Abril	2023-02-04T00:00:00	2024-11-08T11:00:00	5	Humedad	39
85573	7	Sololá	704	Santa Lucía Utatlán 	7	Santa Rita 	4	Abril	2023-02-04T00:00:00	2024-11-08T11:00:00	6	Velocidad del viento	9.7
85574	7	Sololá	704	Santa Lucía Utatlán 	7	Santa Rita 	4	Abril	2023-02-04T00:00:00	2024-11-08T11:00:00	7	Dirección del viento	9.66
85575	7	Sololá	704	Santa Lucía Utatlán 	7	Santa Rita 	4	Abril	2023-02-04T00:00:00	2024-11-08T11:00:00	1	Precipitación	0
85576	7	Sololá	704	Santa Lucía Utatlán 	7	Santa Rita 	4	Abril	2023-02-04T00:00:00	2024-11-08T11:00:00	8	Radiación solar	815
85577	7	Sololá	704	Santa Lucía Utatlán 	7	Santa Rita 	4	Abril	2023-02-04T00:00:00	2024-11-08T12:00:00	2	Temperatura media	25.7
85578	7	Sololá	704	Santa Lucía Utatlán 	7	Santa Rita 	4	Abril	2023-02-04T00:00:00	2024-11-08T12:00:00	4	Temperatura máxima	25.7
85579	7	Sololá	704	Santa Lucía Utatlán 	7	Santa Rita 	4	Abril	2023-02-04T00:00:00	2024-11-08T12:00:00	3	Temperatura mínima	24.4
85580	7	Sololá	704	Santa Lucía Utatlán 	7	Santa Rita 	4	Abril	2023-02-04T00:00:00	2024-11-08T12:00:00	5	Humedad	28
85581	7	Sololá	704	Santa Lucía Utatlán 	7	Santa Rita 	4	Abril	2023-02-04T00:00:00	2024-11-08T12:00:00	6	Velocidad del viento	11.3
85582	7	Sololá	704	Santa Lucía Utatlán 	7	Santa Rita 	4	Abril	2023-02-04T00:00:00	2024-11-08T12:00:00	7	Dirección del viento	11.27
85583	7	Sololá	704	Santa Lucía Utatlán 	7	Santa Rita 	4	Abril	2023-02-04T00:00:00	2024-11-08T12:00:00	1	Precipitación	0
85584	7	Sololá	704	Santa Lucía Utatlán 	7	Santa Rita 	4	Abril	2023-02-04T00:00:00	2024-11-08T12:00:00	8	Radiación solar	966
85585	7	Sololá	704	Santa Lucía Utatlán 	7	Santa Rita 	4	Abril	2023-02-04T00:00:00	2024-11-08T13:00:00	2	Temperatura media	25.8
85586	7	Sololá	704	Santa Lucía Utatlán 	7	Santa Rita 	4	Abril	2023-02-04T00:00:00	2024-11-08T13:00:00	4	Temperatura máxima	26
85587	7	Sololá	704	Santa Lucía Utatlán 	7	Santa Rita 	4	Abril	2023-02-04T00:00:00	2024-11-08T13:00:00	3	Temperatura mínima	25.2
85588	7	Sololá	704	Santa Lucía Utatlán 	7	Santa Rita 	4	Abril	2023-02-04T00:00:00	2024-11-08T13:00:00	5	Humedad	19
85589	7	Sololá	704	Santa Lucía Utatlán 	7	Santa Rita 	4	Abril	2023-02-04T00:00:00	2024-11-08T13:00:00	6	Velocidad del viento	14.5
85590	7	Sololá	704	Santa Lucía Utatlán 	7	Santa Rita 	4	Abril	2023-02-04T00:00:00	2024-11-08T13:00:00	7	Dirección del viento	14.48
85591	7	Sololá	704	Santa Lucía Utatlán 	7	Santa Rita 	4	Abril	2023-02-04T00:00:00	2024-11-08T13:00:00	1	Precipitación	0
85592	7	Sololá	704	Santa Lucía Utatlán 	7	Santa Rita 	4	Abril	2023-02-04T00:00:00	2024-11-08T13:00:00	8	Radiación solar	1049
85593	7	Sololá	704	Santa Lucía Utatlán 	7	Santa Rita 	4	Abril	2023-02-04T00:00:00	2024-11-08T14:00:00	2	Temperatura media	26.9
85594	7	Sololá	704	Santa Lucía Utatlán 	7	Santa Rita 	4	Abril	2023-02-04T00:00:00	2024-11-08T14:00:00	4	Temperatura máxima	26.9
85595	7	Sololá	704	Santa Lucía Utatlán 	7	Santa Rita 	4	Abril	2023-02-04T00:00:00	2024-11-08T14:00:00	3	Temperatura mínima	25.6
85596	7	Sololá	704	Santa Lucía Utatlán 	7	Santa Rita 	4	Abril	2023-02-04T00:00:00	2024-11-08T14:00:00	5	Humedad	21
85597	7	Sololá	704	Santa Lucía Utatlán 	7	Santa Rita 	4	Abril	2023-02-04T00:00:00	2024-11-08T14:00:00	6	Velocidad del viento	11.3
85598	7	Sololá	704	Santa Lucía Utatlán 	7	Santa Rita 	4	Abril	2023-02-04T00:00:00	2024-11-08T14:00:00	7	Dirección del viento	11.27
85599	7	Sololá	704	Santa Lucía Utatlán 	7	Santa Rita 	4	Abril	2023-02-04T00:00:00	2024-11-08T14:00:00	1	Precipitación	0
85600	7	Sololá	704	Santa Lucía Utatlán 	7	Santa Rita 	4	Abril	2023-02-04T00:00:00	2024-11-08T14:00:00	8	Radiación solar	1046
85601	7	Sololá	704	Santa Lucía Utatlán 	7	Santa Rita 	4	Abril	2023-02-04T00:00:00	2024-11-08T15:00:00	2	Temperatura media	26.4
85602	7	Sololá	704	Santa Lucía Utatlán 	7	Santa Rita 	4	Abril	2023-02-04T00:00:00	2024-11-08T15:00:00	4	Temperatura máxima	27
85603	7	Sololá	704	Santa Lucía Utatlán 	7	Santa Rita 	4	Abril	2023-02-04T00:00:00	2024-11-08T15:00:00	3	Temperatura mínima	26.4
85604	7	Sololá	704	Santa Lucía Utatlán 	7	Santa Rita 	4	Abril	2023-02-04T00:00:00	2024-11-08T15:00:00	5	Humedad	21
85605	7	Sololá	704	Santa Lucía Utatlán 	7	Santa Rita 	4	Abril	2023-02-04T00:00:00	2024-11-08T15:00:00	6	Velocidad del viento	12.9
85606	7	Sololá	704	Santa Lucía Utatlán 	7	Santa Rita 	4	Abril	2023-02-04T00:00:00	2024-11-08T15:00:00	7	Dirección del viento	12.87
85607	7	Sololá	704	Santa Lucía Utatlán 	7	Santa Rita 	4	Abril	2023-02-04T00:00:00	2024-11-08T15:00:00	1	Precipitación	0
85608	7	Sololá	704	Santa Lucía Utatlán 	7	Santa Rita 	4	Abril	2023-02-04T00:00:00	2024-11-08T15:00:00	8	Radiación solar	960
85609	7	Sololá	704	Santa Lucía Utatlán 	7	Santa Rita 	4	Abril	2023-02-04T00:00:00	2024-11-08T16:00:00	2	Temperatura media	26.3
85610	7	Sololá	704	Santa Lucía Utatlán 	7	Santa Rita 	4	Abril	2023-02-04T00:00:00	2024-11-08T16:00:00	4	Temperatura máxima	26.7
85611	7	Sololá	704	Santa Lucía Utatlán 	7	Santa Rita 	4	Abril	2023-02-04T00:00:00	2024-11-08T16:00:00	3	Temperatura mínima	25.9
85612	7	Sololá	704	Santa Lucía Utatlán 	7	Santa Rita 	4	Abril	2023-02-04T00:00:00	2024-11-08T16:00:00	5	Humedad	23
85613	7	Sololá	704	Santa Lucía Utatlán 	7	Santa Rita 	4	Abril	2023-02-04T00:00:00	2024-11-08T16:00:00	6	Velocidad del viento	14.5
85614	7	Sololá	704	Santa Lucía Utatlán 	7	Santa Rita 	4	Abril	2023-02-04T00:00:00	2024-11-08T16:00:00	7	Dirección del viento	14.48
85615	7	Sololá	704	Santa Lucía Utatlán 	7	Santa Rita 	4	Abril	2023-02-04T00:00:00	2024-11-08T16:00:00	1	Precipitación	0
85616	7	Sololá	704	Santa Lucía Utatlán 	7	Santa Rita 	4	Abril	2023-02-04T00:00:00	2024-11-08T16:00:00	8	Radiación solar	784
85617	7	Sololá	704	Santa Lucía Utatlán 	7	Santa Rita 	4	Abril	2023-02-04T00:00:00	2024-11-08T17:00:00	2	Temperatura media	25.6
85618	7	Sololá	704	Santa Lucía Utatlán 	7	Santa Rita 	4	Abril	2023-02-04T00:00:00	2024-11-08T17:00:00	4	Temperatura máxima	26.6
85619	7	Sololá	704	Santa Lucía Utatlán 	7	Santa Rita 	4	Abril	2023-02-04T00:00:00	2024-11-08T17:00:00	3	Temperatura mínima	25.6
85620	7	Sololá	704	Santa Lucía Utatlán 	7	Santa Rita 	4	Abril	2023-02-04T00:00:00	2024-11-08T17:00:00	5	Humedad	24
85621	7	Sololá	704	Santa Lucía Utatlán 	7	Santa Rita 	4	Abril	2023-02-04T00:00:00	2024-11-08T17:00:00	6	Velocidad del viento	12.9
85622	7	Sololá	704	Santa Lucía Utatlán 	7	Santa Rita 	4	Abril	2023-02-04T00:00:00	2024-11-08T17:00:00	7	Dirección del viento	12.87
85623	7	Sololá	704	Santa Lucía Utatlán 	7	Santa Rita 	4	Abril	2023-02-04T00:00:00	2024-11-08T17:00:00	1	Precipitación	0
85624	7	Sololá	704	Santa Lucía Utatlán 	7	Santa Rita 	4	Abril	2023-02-04T00:00:00	2024-11-08T17:00:00	8	Radiación solar	462
85625	7	Sololá	704	Santa Lucía Utatlán 	7	Santa Rita 	4	Abril	2023-02-04T00:00:00	2024-11-08T18:00:00	2	Temperatura media	24.9
85626	7	Sololá	704	Santa Lucía Utatlán 	7	Santa Rita 	4	Abril	2023-02-04T00:00:00	2024-11-08T18:00:00	4	Temperatura máxima	26.1
85627	7	Sololá	704	Santa Lucía Utatlán 	7	Santa Rita 	4	Abril	2023-02-04T00:00:00	2024-11-08T18:00:00	3	Temperatura mínima	24.9
85628	7	Sololá	704	Santa Lucía Utatlán 	7	Santa Rita 	4	Abril	2023-02-04T00:00:00	2024-11-08T18:00:00	5	Humedad	23
85629	7	Sololá	704	Santa Lucía Utatlán 	7	Santa Rita 	4	Abril	2023-02-04T00:00:00	2024-11-08T18:00:00	6	Velocidad del viento	11.3
85630	7	Sololá	704	Santa Lucía Utatlán 	7	Santa Rita 	4	Abril	2023-02-04T00:00:00	2024-11-08T18:00:00	7	Dirección del viento	11.27
85631	7	Sololá	704	Santa Lucía Utatlán 	7	Santa Rita 	4	Abril	2023-02-04T00:00:00	2024-11-08T18:00:00	1	Precipitación	0
85632	7	Sololá	704	Santa Lucía Utatlán 	7	Santa Rita 	4	Abril	2023-02-04T00:00:00	2024-11-08T18:00:00	8	Radiación solar	286
85633	7	Sololá	704	Santa Lucía Utatlán 	7	Santa Rita 	4	Abril	2023-02-04T00:00:00	2024-11-08T19:00:00	2	Temperatura media	22.9
85634	7	Sololá	704	Santa Lucía Utatlán 	7	Santa Rita 	4	Abril	2023-02-04T00:00:00	2024-11-08T19:00:00	4	Temperatura máxima	24.9
85635	7	Sololá	704	Santa Lucía Utatlán 	7	Santa Rita 	4	Abril	2023-02-04T00:00:00	2024-11-08T19:00:00	3	Temperatura mínima	22.9
85636	7	Sololá	704	Santa Lucía Utatlán 	7	Santa Rita 	4	Abril	2023-02-04T00:00:00	2024-11-08T19:00:00	5	Humedad	39
85637	7	Sololá	704	Santa Lucía Utatlán 	7	Santa Rita 	4	Abril	2023-02-04T00:00:00	2024-11-08T19:00:00	6	Velocidad del viento	6.4
85638	7	Sololá	704	Santa Lucía Utatlán 	7	Santa Rita 	4	Abril	2023-02-04T00:00:00	2024-11-08T19:00:00	7	Dirección del viento	6.44
85639	7	Sololá	704	Santa Lucía Utatlán 	7	Santa Rita 	4	Abril	2023-02-04T00:00:00	2024-11-08T19:00:00	1	Precipitación	0
85640	7	Sololá	704	Santa Lucía Utatlán 	7	Santa Rita 	4	Abril	2023-02-04T00:00:00	2024-11-08T19:00:00	8	Radiación solar	0
85641	7	Sololá	704	Santa Lucía Utatlán 	7	Santa Rita 	4	Abril	2023-02-04T00:00:00	2024-11-08T20:00:00	2	Temperatura media	19.7
85642	7	Sololá	704	Santa Lucía Utatlán 	7	Santa Rita 	4	Abril	2023-02-04T00:00:00	2024-11-08T20:00:00	4	Temperatura máxima	22.8
85643	7	Sololá	704	Santa Lucía Utatlán 	7	Santa Rita 	4	Abril	2023-02-04T00:00:00	2024-11-08T20:00:00	3	Temperatura mínima	19.7
85644	7	Sololá	704	Santa Lucía Utatlán 	7	Santa Rita 	4	Abril	2023-02-04T00:00:00	2024-11-08T20:00:00	5	Humedad	50
85645	7	Sololá	704	Santa Lucía Utatlán 	7	Santa Rita 	4	Abril	2023-02-04T00:00:00	2024-11-08T20:00:00	6	Velocidad del viento	3.2
85646	7	Sololá	704	Santa Lucía Utatlán 	7	Santa Rita 	4	Abril	2023-02-04T00:00:00	2024-11-08T20:00:00	7	Dirección del viento	3.22
85647	7	Sololá	704	Santa Lucía Utatlán 	7	Santa Rita 	4	Abril	2023-02-04T00:00:00	2024-11-08T20:00:00	1	Precipitación	0
85648	7	Sololá	704	Santa Lucía Utatlán 	7	Santa Rita 	4	Abril	2023-02-04T00:00:00	2024-11-08T20:00:00	8	Radiación solar	0
85649	7	Sololá	704	Santa Lucía Utatlán 	7	Santa Rita 	4	Abril	2023-02-04T00:00:00	2024-11-08T21:00:00	2	Temperatura media	18
85650	7	Sololá	704	Santa Lucía Utatlán 	7	Santa Rita 	4	Abril	2023-02-04T00:00:00	2024-11-08T21:00:00	4	Temperatura máxima	19.8
85651	7	Sololá	704	Santa Lucía Utatlán 	7	Santa Rita 	4	Abril	2023-02-04T00:00:00	2024-11-08T21:00:00	3	Temperatura mínima	18
85652	7	Sololá	704	Santa Lucía Utatlán 	7	Santa Rita 	4	Abril	2023-02-04T00:00:00	2024-11-08T21:00:00	5	Humedad	60
85653	7	Sololá	704	Santa Lucía Utatlán 	7	Santa Rita 	4	Abril	2023-02-04T00:00:00	2024-11-08T21:00:00	6	Velocidad del viento	4.8
85654	7	Sololá	704	Santa Lucía Utatlán 	7	Santa Rita 	4	Abril	2023-02-04T00:00:00	2024-11-08T21:00:00	7	Dirección del viento	4.83
85655	7	Sololá	704	Santa Lucía Utatlán 	7	Santa Rita 	4	Abril	2023-02-04T00:00:00	2024-11-08T21:00:00	1	Precipitación	0
85656	7	Sololá	704	Santa Lucía Utatlán 	7	Santa Rita 	4	Abril	2023-02-04T00:00:00	2024-11-08T21:00:00	8	Radiación solar	0
85657	7	Sololá	704	Santa Lucía Utatlán 	7	Santa Rita 	4	Abril	2023-02-04T00:00:00	2024-11-08T22:00:00	2	Temperatura media	16.9
85658	7	Sololá	704	Santa Lucía Utatlán 	7	Santa Rita 	4	Abril	2023-02-04T00:00:00	2024-11-08T22:00:00	4	Temperatura máxima	18
85659	7	Sololá	704	Santa Lucía Utatlán 	7	Santa Rita 	4	Abril	2023-02-04T00:00:00	2024-11-08T22:00:00	3	Temperatura mínima	16.9
85660	7	Sololá	704	Santa Lucía Utatlán 	7	Santa Rita 	4	Abril	2023-02-04T00:00:00	2024-11-08T22:00:00	5	Humedad	68
85661	7	Sololá	704	Santa Lucía Utatlán 	7	Santa Rita 	4	Abril	2023-02-04T00:00:00	2024-11-08T22:00:00	6	Velocidad del viento	3.2
85662	7	Sololá	704	Santa Lucía Utatlán 	7	Santa Rita 	4	Abril	2023-02-04T00:00:00	2024-11-08T22:00:00	7	Dirección del viento	3.22
85663	7	Sololá	704	Santa Lucía Utatlán 	7	Santa Rita 	4	Abril	2023-02-04T00:00:00	2024-11-08T22:00:00	1	Precipitación	0
85664	7	Sololá	704	Santa Lucía Utatlán 	7	Santa Rita 	4	Abril	2023-02-04T00:00:00	2024-11-08T22:00:00	8	Radiación solar	0
85665	7	Sololá	704	Santa Lucía Utatlán 	7	Santa Rita 	4	Abril	2023-02-04T00:00:00	2024-11-08T23:00:00	2	Temperatura media	16.4
85666	7	Sololá	704	Santa Lucía Utatlán 	7	Santa Rita 	4	Abril	2023-02-04T00:00:00	2024-11-08T23:00:00	4	Temperatura máxima	16.9
85667	7	Sololá	704	Santa Lucía Utatlán 	7	Santa Rita 	4	Abril	2023-02-04T00:00:00	2024-11-08T23:00:00	3	Temperatura mínima	16.3
85668	7	Sololá	704	Santa Lucía Utatlán 	7	Santa Rita 	4	Abril	2023-02-04T00:00:00	2024-11-08T23:00:00	5	Humedad	66
85669	7	Sololá	704	Santa Lucía Utatlán 	7	Santa Rita 	4	Abril	2023-02-04T00:00:00	2024-11-08T23:00:00	6	Velocidad del viento	4.8
85670	7	Sololá	704	Santa Lucía Utatlán 	7	Santa Rita 	4	Abril	2023-02-04T00:00:00	2024-11-08T23:00:00	7	Dirección del viento	4.83
85671	7	Sololá	704	Santa Lucía Utatlán 	7	Santa Rita 	4	Abril	2023-02-04T00:00:00	2024-11-08T23:00:00	1	Precipitación	0
85672	7	Sololá	704	Santa Lucía Utatlán 	7	Santa Rita 	4	Abril	2023-02-04T00:00:00	2024-11-08T23:00:00	8	Radiación solar	0
85673	7	Sololá	704	Santa Lucía Utatlán 	7	Santa Rita 	4	Abril	2023-03-04T00:00:00	2024-11-08T00:00:00	2	Temperatura media	16.4
85674	7	Sololá	704	Santa Lucía Utatlán 	7	Santa Rita 	4	Abril	2023-03-04T00:00:00	2024-11-08T00:00:00	4	Temperatura máxima	16.6
85675	7	Sololá	704	Santa Lucía Utatlán 	7	Santa Rita 	4	Abril	2023-03-04T00:00:00	2024-11-08T00:00:00	3	Temperatura mínima	15.6
85676	7	Sololá	704	Santa Lucía Utatlán 	7	Santa Rita 	4	Abril	2023-03-04T00:00:00	2024-11-08T00:00:00	5	Humedad	58
85677	7	Sololá	704	Santa Lucía Utatlán 	7	Santa Rita 	4	Abril	2023-03-04T00:00:00	2024-11-08T00:00:00	6	Velocidad del viento	4.8
85678	7	Sololá	704	Santa Lucía Utatlán 	7	Santa Rita 	4	Abril	2023-03-04T00:00:00	2024-11-08T00:00:00	7	Dirección del viento	4.83
85679	7	Sololá	704	Santa Lucía Utatlán 	7	Santa Rita 	4	Abril	2023-03-04T00:00:00	2024-11-08T00:00:00	1	Precipitación	0
85680	7	Sololá	704	Santa Lucía Utatlán 	7	Santa Rita 	4	Abril	2023-03-04T00:00:00	2024-11-08T00:00:00	8	Radiación solar	0
85681	7	Sololá	704	Santa Lucía Utatlán 	7	Santa Rita 	4	Abril	2023-03-04T00:00:00	2024-11-08T01:00:00	2	Temperatura media	16.8
85682	7	Sololá	704	Santa Lucía Utatlán 	7	Santa Rita 	4	Abril	2023-03-04T00:00:00	2024-11-08T01:00:00	4	Temperatura máxima	16.8
85683	7	Sololá	704	Santa Lucía Utatlán 	7	Santa Rita 	4	Abril	2023-03-04T00:00:00	2024-11-08T01:00:00	3	Temperatura mínima	16.4
85684	7	Sololá	704	Santa Lucía Utatlán 	7	Santa Rita 	4	Abril	2023-03-04T00:00:00	2024-11-08T01:00:00	5	Humedad	56
85685	7	Sololá	704	Santa Lucía Utatlán 	7	Santa Rita 	4	Abril	2023-03-04T00:00:00	2024-11-08T01:00:00	6	Velocidad del viento	4.8
85686	7	Sololá	704	Santa Lucía Utatlán 	7	Santa Rita 	4	Abril	2023-03-04T00:00:00	2024-11-08T01:00:00	7	Dirección del viento	4.83
85687	7	Sololá	704	Santa Lucía Utatlán 	7	Santa Rita 	4	Abril	2023-03-04T00:00:00	2024-11-08T01:00:00	1	Precipitación	0
85688	7	Sololá	704	Santa Lucía Utatlán 	7	Santa Rita 	4	Abril	2023-03-04T00:00:00	2024-11-08T01:00:00	8	Radiación solar	0
85689	7	Sololá	704	Santa Lucía Utatlán 	7	Santa Rita 	4	Abril	2023-03-04T00:00:00	2024-11-08T02:00:00	2	Temperatura media	16.3
85690	7	Sololá	704	Santa Lucía Utatlán 	7	Santa Rita 	4	Abril	2023-03-04T00:00:00	2024-11-08T02:00:00	4	Temperatura máxima	16.8
85691	7	Sololá	704	Santa Lucía Utatlán 	7	Santa Rita 	4	Abril	2023-03-04T00:00:00	2024-11-08T02:00:00	3	Temperatura mínima	16.3
85692	7	Sololá	704	Santa Lucía Utatlán 	7	Santa Rita 	4	Abril	2023-03-04T00:00:00	2024-11-08T02:00:00	5	Humedad	57
85693	7	Sololá	704	Santa Lucía Utatlán 	7	Santa Rita 	4	Abril	2023-03-04T00:00:00	2024-11-08T02:00:00	6	Velocidad del viento	4.8
85694	7	Sololá	704	Santa Lucía Utatlán 	7	Santa Rita 	4	Abril	2023-03-04T00:00:00	2024-11-08T02:00:00	7	Dirección del viento	4.83
85695	7	Sololá	704	Santa Lucía Utatlán 	7	Santa Rita 	4	Abril	2023-03-04T00:00:00	2024-11-08T02:00:00	1	Precipitación	0
85696	7	Sololá	704	Santa Lucía Utatlán 	7	Santa Rita 	4	Abril	2023-03-04T00:00:00	2024-11-08T02:00:00	8	Radiación solar	0
85697	7	Sololá	704	Santa Lucía Utatlán 	7	Santa Rita 	4	Abril	2023-03-04T00:00:00	2024-11-08T03:00:00	2	Temperatura media	16.1
85698	7	Sololá	704	Santa Lucía Utatlán 	7	Santa Rita 	4	Abril	2023-03-04T00:00:00	2024-11-08T03:00:00	4	Temperatura máxima	16.3
85699	7	Sololá	704	Santa Lucía Utatlán 	7	Santa Rita 	4	Abril	2023-03-04T00:00:00	2024-11-08T03:00:00	3	Temperatura mínima	16
85700	7	Sololá	704	Santa Lucía Utatlán 	7	Santa Rita 	4	Abril	2023-03-04T00:00:00	2024-11-08T03:00:00	5	Humedad	56
85701	7	Sololá	704	Santa Lucía Utatlán 	7	Santa Rita 	4	Abril	2023-03-04T00:00:00	2024-11-08T03:00:00	6	Velocidad del viento	4.8
85702	7	Sololá	704	Santa Lucía Utatlán 	7	Santa Rita 	4	Abril	2023-03-04T00:00:00	2024-11-08T03:00:00	7	Dirección del viento	4.83
85703	7	Sololá	704	Santa Lucía Utatlán 	7	Santa Rita 	4	Abril	2023-03-04T00:00:00	2024-11-08T03:00:00	1	Precipitación	0
85704	7	Sololá	704	Santa Lucía Utatlán 	7	Santa Rita 	4	Abril	2023-03-04T00:00:00	2024-11-08T03:00:00	8	Radiación solar	0
85705	7	Sololá	704	Santa Lucía Utatlán 	7	Santa Rita 	4	Abril	2023-03-04T00:00:00	2024-11-08T04:00:00	2	Temperatura media	15.7
85706	7	Sololá	704	Santa Lucía Utatlán 	7	Santa Rita 	4	Abril	2023-03-04T00:00:00	2024-11-08T04:00:00	4	Temperatura máxima	16.1
85707	7	Sololá	704	Santa Lucía Utatlán 	7	Santa Rita 	4	Abril	2023-03-04T00:00:00	2024-11-08T04:00:00	3	Temperatura mínima	15.7
85708	7	Sololá	704	Santa Lucía Utatlán 	7	Santa Rita 	4	Abril	2023-03-04T00:00:00	2024-11-08T04:00:00	5	Humedad	58
85709	7	Sololá	704	Santa Lucía Utatlán 	7	Santa Rita 	4	Abril	2023-03-04T00:00:00	2024-11-08T04:00:00	6	Velocidad del viento	4.8
85710	7	Sololá	704	Santa Lucía Utatlán 	7	Santa Rita 	4	Abril	2023-03-04T00:00:00	2024-11-08T04:00:00	7	Dirección del viento	4.83
85711	7	Sololá	704	Santa Lucía Utatlán 	7	Santa Rita 	4	Abril	2023-03-04T00:00:00	2024-11-08T04:00:00	1	Precipitación	0
85712	7	Sololá	704	Santa Lucía Utatlán 	7	Santa Rita 	4	Abril	2023-03-04T00:00:00	2024-11-08T04:00:00	8	Radiación solar	0
85713	7	Sololá	704	Santa Lucía Utatlán 	7	Santa Rita 	4	Abril	2023-03-04T00:00:00	2024-11-08T05:00:00	2	Temperatura media	15.2
85714	7	Sololá	704	Santa Lucía Utatlán 	7	Santa Rita 	4	Abril	2023-03-04T00:00:00	2024-11-08T05:00:00	4	Temperatura máxima	15.8
85715	7	Sololá	704	Santa Lucía Utatlán 	7	Santa Rita 	4	Abril	2023-03-04T00:00:00	2024-11-08T05:00:00	3	Temperatura mínima	15.2
85716	7	Sololá	704	Santa Lucía Utatlán 	7	Santa Rita 	4	Abril	2023-03-04T00:00:00	2024-11-08T05:00:00	5	Humedad	64
85717	7	Sololá	704	Santa Lucía Utatlán 	7	Santa Rita 	4	Abril	2023-03-04T00:00:00	2024-11-08T05:00:00	6	Velocidad del viento	4.8
85718	7	Sololá	704	Santa Lucía Utatlán 	7	Santa Rita 	4	Abril	2023-03-04T00:00:00	2024-11-08T05:00:00	7	Dirección del viento	4.83
85719	7	Sololá	704	Santa Lucía Utatlán 	7	Santa Rita 	4	Abril	2023-03-04T00:00:00	2024-11-08T05:00:00	1	Precipitación	0
85720	7	Sololá	704	Santa Lucía Utatlán 	7	Santa Rita 	4	Abril	2023-03-04T00:00:00	2024-11-08T05:00:00	8	Radiación solar	0
85721	7	Sololá	704	Santa Lucía Utatlán 	7	Santa Rita 	4	Abril	2023-03-04T00:00:00	2024-11-08T06:00:00	2	Temperatura media	14.8
85722	7	Sololá	704	Santa Lucía Utatlán 	7	Santa Rita 	4	Abril	2023-03-04T00:00:00	2024-11-08T06:00:00	4	Temperatura máxima	15.1
85723	7	Sololá	704	Santa Lucía Utatlán 	7	Santa Rita 	4	Abril	2023-03-04T00:00:00	2024-11-08T06:00:00	3	Temperatura mínima	14.7
85724	7	Sololá	704	Santa Lucía Utatlán 	7	Santa Rita 	4	Abril	2023-03-04T00:00:00	2024-11-08T06:00:00	5	Humedad	71
85725	7	Sololá	704	Santa Lucía Utatlán 	7	Santa Rita 	4	Abril	2023-03-04T00:00:00	2024-11-08T06:00:00	6	Velocidad del viento	4.8
85726	7	Sololá	704	Santa Lucía Utatlán 	7	Santa Rita 	4	Abril	2023-03-04T00:00:00	2024-11-08T06:00:00	7	Dirección del viento	4.83
85727	7	Sololá	704	Santa Lucía Utatlán 	7	Santa Rita 	4	Abril	2023-03-04T00:00:00	2024-11-08T06:00:00	1	Precipitación	0
85728	7	Sololá	704	Santa Lucía Utatlán 	7	Santa Rita 	4	Abril	2023-03-04T00:00:00	2024-11-08T06:00:00	8	Radiación solar	0
85729	7	Sololá	704	Santa Lucía Utatlán 	7	Santa Rita 	4	Abril	2023-03-04T00:00:00	2024-11-08T07:00:00	2	Temperatura media	14.8
85730	7	Sololá	704	Santa Lucía Utatlán 	7	Santa Rita 	4	Abril	2023-03-04T00:00:00	2024-11-08T07:00:00	4	Temperatura máxima	14.9
85731	7	Sololá	704	Santa Lucía Utatlán 	7	Santa Rita 	4	Abril	2023-03-04T00:00:00	2024-11-08T07:00:00	3	Temperatura mínima	14.7
85732	7	Sololá	704	Santa Lucía Utatlán 	7	Santa Rita 	4	Abril	2023-03-04T00:00:00	2024-11-08T07:00:00	5	Humedad	77
85733	7	Sololá	704	Santa Lucía Utatlán 	7	Santa Rita 	4	Abril	2023-03-04T00:00:00	2024-11-08T07:00:00	6	Velocidad del viento	4.8
85734	7	Sololá	704	Santa Lucía Utatlán 	7	Santa Rita 	4	Abril	2023-03-04T00:00:00	2024-11-08T07:00:00	7	Dirección del viento	4.83
85735	7	Sololá	704	Santa Lucía Utatlán 	7	Santa Rita 	4	Abril	2023-03-04T00:00:00	2024-11-08T07:00:00	1	Precipitación	0
85736	7	Sololá	704	Santa Lucía Utatlán 	7	Santa Rita 	4	Abril	2023-03-04T00:00:00	2024-11-08T07:00:00	8	Radiación solar	0
85737	7	Sololá	704	Santa Lucía Utatlán 	7	Santa Rita 	4	Abril	2023-03-04T00:00:00	2024-11-08T08:00:00	2	Temperatura media	17.4
85738	7	Sololá	704	Santa Lucía Utatlán 	7	Santa Rita 	4	Abril	2023-03-04T00:00:00	2024-11-08T08:00:00	4	Temperatura máxima	17.4
85739	7	Sololá	704	Santa Lucía Utatlán 	7	Santa Rita 	4	Abril	2023-03-04T00:00:00	2024-11-08T08:00:00	3	Temperatura mínima	14.7
85740	7	Sololá	704	Santa Lucía Utatlán 	7	Santa Rita 	4	Abril	2023-03-04T00:00:00	2024-11-08T08:00:00	5	Humedad	72
85741	7	Sololá	704	Santa Lucía Utatlán 	7	Santa Rita 	4	Abril	2023-03-04T00:00:00	2024-11-08T08:00:00	6	Velocidad del viento	3.2
85742	7	Sololá	704	Santa Lucía Utatlán 	7	Santa Rita 	4	Abril	2023-03-04T00:00:00	2024-11-08T08:00:00	7	Dirección del viento	3.22
85743	7	Sololá	704	Santa Lucía Utatlán 	7	Santa Rita 	4	Abril	2023-03-04T00:00:00	2024-11-08T08:00:00	1	Precipitación	0
85744	7	Sololá	704	Santa Lucía Utatlán 	7	Santa Rita 	4	Abril	2023-03-04T00:00:00	2024-11-08T08:00:00	8	Radiación solar	77
85745	7	Sololá	704	Santa Lucía Utatlán 	7	Santa Rita 	4	Abril	2023-03-04T00:00:00	2024-11-08T09:00:00	2	Temperatura media	20.3
85746	7	Sololá	704	Santa Lucía Utatlán 	7	Santa Rita 	4	Abril	2023-03-04T00:00:00	2024-11-08T09:00:00	4	Temperatura máxima	20.3
85747	7	Sololá	704	Santa Lucía Utatlán 	7	Santa Rita 	4	Abril	2023-03-04T00:00:00	2024-11-08T09:00:00	3	Temperatura mínima	17.4
85748	7	Sololá	704	Santa Lucía Utatlán 	7	Santa Rita 	4	Abril	2023-03-04T00:00:00	2024-11-08T09:00:00	5	Humedad	67
85749	7	Sololá	704	Santa Lucía Utatlán 	7	Santa Rita 	4	Abril	2023-03-04T00:00:00	2024-11-08T09:00:00	6	Velocidad del viento	3.2
85750	7	Sololá	704	Santa Lucía Utatlán 	7	Santa Rita 	4	Abril	2023-03-04T00:00:00	2024-11-08T09:00:00	7	Dirección del viento	3.22
85751	7	Sololá	704	Santa Lucía Utatlán 	7	Santa Rita 	4	Abril	2023-03-04T00:00:00	2024-11-08T09:00:00	1	Precipitación	0
85752	7	Sololá	704	Santa Lucía Utatlán 	7	Santa Rita 	4	Abril	2023-03-04T00:00:00	2024-11-08T09:00:00	8	Radiación solar	359
85753	7	Sololá	704	Santa Lucía Utatlán 	7	Santa Rita 	4	Abril	2023-03-04T00:00:00	2024-11-08T10:00:00	2	Temperatura media	22.8
85754	7	Sololá	704	Santa Lucía Utatlán 	7	Santa Rita 	4	Abril	2023-03-04T00:00:00	2024-11-08T10:00:00	4	Temperatura máxima	22.8
85755	7	Sololá	704	Santa Lucía Utatlán 	7	Santa Rita 	4	Abril	2023-03-04T00:00:00	2024-11-08T10:00:00	3	Temperatura mínima	20.3
85756	7	Sololá	704	Santa Lucía Utatlán 	7	Santa Rita 	4	Abril	2023-03-04T00:00:00	2024-11-08T10:00:00	5	Humedad	55
85757	7	Sololá	704	Santa Lucía Utatlán 	7	Santa Rita 	4	Abril	2023-03-04T00:00:00	2024-11-08T10:00:00	6	Velocidad del viento	4.8
85758	7	Sololá	704	Santa Lucía Utatlán 	7	Santa Rita 	4	Abril	2023-03-04T00:00:00	2024-11-08T10:00:00	7	Dirección del viento	4.83
85759	7	Sololá	704	Santa Lucía Utatlán 	7	Santa Rita 	4	Abril	2023-03-04T00:00:00	2024-11-08T10:00:00	1	Precipitación	0
85760	7	Sololá	704	Santa Lucía Utatlán 	7	Santa Rita 	4	Abril	2023-03-04T00:00:00	2024-11-08T10:00:00	8	Radiación solar	606
85761	7	Sololá	704	Santa Lucía Utatlán 	7	Santa Rita 	4	Abril	2023-03-04T00:00:00	2024-11-08T11:00:00	2	Temperatura media	24.6
85762	7	Sololá	704	Santa Lucía Utatlán 	7	Santa Rita 	4	Abril	2023-03-04T00:00:00	2024-11-08T11:00:00	4	Temperatura máxima	24.6
85763	7	Sololá	704	Santa Lucía Utatlán 	7	Santa Rita 	4	Abril	2023-03-04T00:00:00	2024-11-08T11:00:00	3	Temperatura mínima	22.8
85764	7	Sololá	704	Santa Lucía Utatlán 	7	Santa Rita 	4	Abril	2023-03-04T00:00:00	2024-11-08T11:00:00	5	Humedad	52
85765	7	Sololá	704	Santa Lucía Utatlán 	7	Santa Rita 	4	Abril	2023-03-04T00:00:00	2024-11-08T11:00:00	6	Velocidad del viento	4.8
85766	7	Sololá	704	Santa Lucía Utatlán 	7	Santa Rita 	4	Abril	2023-03-04T00:00:00	2024-11-08T11:00:00	7	Dirección del viento	4.83
85767	7	Sololá	704	Santa Lucía Utatlán 	7	Santa Rita 	4	Abril	2023-03-04T00:00:00	2024-11-08T11:00:00	1	Precipitación	0
85768	7	Sololá	704	Santa Lucía Utatlán 	7	Santa Rita 	4	Abril	2023-03-04T00:00:00	2024-11-08T11:00:00	8	Radiación solar	804
85769	7	Sololá	704	Santa Lucía Utatlán 	7	Santa Rita 	4	Abril	2023-03-04T00:00:00	2024-11-08T12:00:00	2	Temperatura media	25.1
85770	7	Sololá	704	Santa Lucía Utatlán 	7	Santa Rita 	4	Abril	2023-03-04T00:00:00	2024-11-08T12:00:00	4	Temperatura máxima	25.5
85771	7	Sololá	704	Santa Lucía Utatlán 	7	Santa Rita 	4	Abril	2023-03-04T00:00:00	2024-11-08T12:00:00	3	Temperatura mínima	24.4
85772	7	Sololá	704	Santa Lucía Utatlán 	7	Santa Rita 	4	Abril	2023-03-04T00:00:00	2024-11-08T12:00:00	5	Humedad	56
85773	7	Sololá	704	Santa Lucía Utatlán 	7	Santa Rita 	4	Abril	2023-03-04T00:00:00	2024-11-08T12:00:00	6	Velocidad del viento	9.7
85774	7	Sololá	704	Santa Lucía Utatlán 	7	Santa Rita 	4	Abril	2023-03-04T00:00:00	2024-11-08T12:00:00	7	Dirección del viento	9.66
85775	7	Sololá	704	Santa Lucía Utatlán 	7	Santa Rita 	4	Abril	2023-03-04T00:00:00	2024-11-08T12:00:00	1	Precipitación	0
85776	7	Sololá	704	Santa Lucía Utatlán 	7	Santa Rita 	4	Abril	2023-03-04T00:00:00	2024-11-08T12:00:00	8	Radiación solar	947
85777	7	Sololá	704	Santa Lucía Utatlán 	7	Santa Rita 	4	Abril	2023-03-04T00:00:00	2024-11-08T13:00:00	2	Temperatura media	26.3
85778	7	Sololá	704	Santa Lucía Utatlán 	7	Santa Rita 	4	Abril	2023-03-04T00:00:00	2024-11-08T13:00:00	4	Temperatura máxima	26.3
85779	7	Sololá	704	Santa Lucía Utatlán 	7	Santa Rita 	4	Abril	2023-03-04T00:00:00	2024-11-08T13:00:00	3	Temperatura mínima	24.8
85780	7	Sololá	704	Santa Lucía Utatlán 	7	Santa Rita 	4	Abril	2023-03-04T00:00:00	2024-11-08T13:00:00	5	Humedad	52
85781	7	Sololá	704	Santa Lucía Utatlán 	7	Santa Rita 	4	Abril	2023-03-04T00:00:00	2024-11-08T13:00:00	6	Velocidad del viento	8
85782	7	Sololá	704	Santa Lucía Utatlán 	7	Santa Rita 	4	Abril	2023-03-04T00:00:00	2024-11-08T13:00:00	7	Dirección del viento	8.05
85783	7	Sololá	704	Santa Lucía Utatlán 	7	Santa Rita 	4	Abril	2023-03-04T00:00:00	2024-11-08T13:00:00	1	Precipitación	0
85784	7	Sololá	704	Santa Lucía Utatlán 	7	Santa Rita 	4	Abril	2023-03-04T00:00:00	2024-11-08T13:00:00	8	Radiación solar	1017
85785	7	Sololá	704	Santa Lucía Utatlán 	7	Santa Rita 	4	Abril	2023-03-04T00:00:00	2024-11-08T14:00:00	2	Temperatura media	25.5
85786	7	Sololá	704	Santa Lucía Utatlán 	7	Santa Rita 	4	Abril	2023-03-04T00:00:00	2024-11-08T14:00:00	4	Temperatura máxima	26.3
85787	7	Sololá	704	Santa Lucía Utatlán 	7	Santa Rita 	4	Abril	2023-03-04T00:00:00	2024-11-08T14:00:00	3	Temperatura mínima	25.5
85788	7	Sololá	704	Santa Lucía Utatlán 	7	Santa Rita 	4	Abril	2023-03-04T00:00:00	2024-11-08T14:00:00	5	Humedad	62
85789	7	Sololá	704	Santa Lucía Utatlán 	7	Santa Rita 	4	Abril	2023-03-04T00:00:00	2024-11-08T14:00:00	6	Velocidad del viento	9.7
85790	7	Sololá	704	Santa Lucía Utatlán 	7	Santa Rita 	4	Abril	2023-03-04T00:00:00	2024-11-08T14:00:00	7	Dirección del viento	9.66
85791	7	Sololá	704	Santa Lucía Utatlán 	7	Santa Rita 	4	Abril	2023-03-04T00:00:00	2024-11-08T14:00:00	1	Precipitación	0
85792	7	Sololá	704	Santa Lucía Utatlán 	7	Santa Rita 	4	Abril	2023-03-04T00:00:00	2024-11-08T14:00:00	8	Radiación solar	1005
85793	7	Sololá	704	Santa Lucía Utatlán 	7	Santa Rita 	4	Abril	2023-03-04T00:00:00	2024-11-08T15:00:00	2	Temperatura media	24.7
85794	7	Sololá	704	Santa Lucía Utatlán 	7	Santa Rita 	4	Abril	2023-03-04T00:00:00	2024-11-08T15:00:00	4	Temperatura máxima	25.7
85795	7	Sololá	704	Santa Lucía Utatlán 	7	Santa Rita 	4	Abril	2023-03-04T00:00:00	2024-11-08T15:00:00	3	Temperatura mínima	24.5
85796	7	Sololá	704	Santa Lucía Utatlán 	7	Santa Rita 	4	Abril	2023-03-04T00:00:00	2024-11-08T15:00:00	5	Humedad	69
85797	7	Sololá	704	Santa Lucía Utatlán 	7	Santa Rita 	4	Abril	2023-03-04T00:00:00	2024-11-08T15:00:00	6	Velocidad del viento	9.7
85798	7	Sololá	704	Santa Lucía Utatlán 	7	Santa Rita 	4	Abril	2023-03-04T00:00:00	2024-11-08T15:00:00	7	Dirección del viento	9.66
85799	7	Sololá	704	Santa Lucía Utatlán 	7	Santa Rita 	4	Abril	2023-03-04T00:00:00	2024-11-08T15:00:00	1	Precipitación	0
85800	7	Sololá	704	Santa Lucía Utatlán 	7	Santa Rita 	4	Abril	2023-03-04T00:00:00	2024-11-08T15:00:00	8	Radiación solar	976
85801	7	Sololá	704	Santa Lucía Utatlán 	7	Santa Rita 	4	Abril	2023-03-04T00:00:00	2024-11-08T16:00:00	2	Temperatura media	23.8
85802	7	Sololá	704	Santa Lucía Utatlán 	7	Santa Rita 	4	Abril	2023-03-04T00:00:00	2024-11-08T16:00:00	4	Temperatura máxima	25.1
85803	7	Sololá	704	Santa Lucía Utatlán 	7	Santa Rita 	4	Abril	2023-03-04T00:00:00	2024-11-08T16:00:00	3	Temperatura mínima	23.8
85804	7	Sololá	704	Santa Lucía Utatlán 	7	Santa Rita 	4	Abril	2023-03-04T00:00:00	2024-11-08T16:00:00	5	Humedad	72
85805	7	Sololá	704	Santa Lucía Utatlán 	7	Santa Rita 	4	Abril	2023-03-04T00:00:00	2024-11-08T16:00:00	6	Velocidad del viento	9.7
85806	7	Sololá	704	Santa Lucía Utatlán 	7	Santa Rita 	4	Abril	2023-03-04T00:00:00	2024-11-08T16:00:00	7	Dirección del viento	9.66
85807	7	Sololá	704	Santa Lucía Utatlán 	7	Santa Rita 	4	Abril	2023-03-04T00:00:00	2024-11-08T16:00:00	1	Precipitación	0
85808	7	Sololá	704	Santa Lucía Utatlán 	7	Santa Rita 	4	Abril	2023-03-04T00:00:00	2024-11-08T16:00:00	8	Radiación solar	826
85809	7	Sololá	704	Santa Lucía Utatlán 	7	Santa Rita 	4	Abril	2023-03-04T00:00:00	2024-11-08T17:00:00	2	Temperatura media	22.5
85810	7	Sololá	704	Santa Lucía Utatlán 	7	Santa Rita 	4	Abril	2023-03-04T00:00:00	2024-11-08T17:00:00	4	Temperatura máxima	24.1
85811	7	Sololá	704	Santa Lucía Utatlán 	7	Santa Rita 	4	Abril	2023-03-04T00:00:00	2024-11-08T17:00:00	3	Temperatura mínima	22.5
85812	7	Sololá	704	Santa Lucía Utatlán 	7	Santa Rita 	4	Abril	2023-03-04T00:00:00	2024-11-08T17:00:00	5	Humedad	78
85813	7	Sololá	704	Santa Lucía Utatlán 	7	Santa Rita 	4	Abril	2023-03-04T00:00:00	2024-11-08T17:00:00	6	Velocidad del viento	8
85814	7	Sololá	704	Santa Lucía Utatlán 	7	Santa Rita 	4	Abril	2023-03-04T00:00:00	2024-11-08T17:00:00	7	Dirección del viento	8.05
85815	7	Sololá	704	Santa Lucía Utatlán 	7	Santa Rita 	4	Abril	2023-03-04T00:00:00	2024-11-08T17:00:00	1	Precipitación	0
85816	7	Sololá	704	Santa Lucía Utatlán 	7	Santa Rita 	4	Abril	2023-03-04T00:00:00	2024-11-08T17:00:00	8	Radiación solar	331
85817	7	Sololá	704	Santa Lucía Utatlán 	7	Santa Rita 	4	Abril	2023-03-04T00:00:00	2024-11-08T18:00:00	2	Temperatura media	22.4
85818	7	Sololá	704	Santa Lucía Utatlán 	7	Santa Rita 	4	Abril	2023-03-04T00:00:00	2024-11-08T18:00:00	4	Temperatura máxima	22.5
85819	7	Sololá	704	Santa Lucía Utatlán 	7	Santa Rita 	4	Abril	2023-03-04T00:00:00	2024-11-08T18:00:00	3	Temperatura mínima	21.9
85820	7	Sololá	704	Santa Lucía Utatlán 	7	Santa Rita 	4	Abril	2023-03-04T00:00:00	2024-11-08T18:00:00	5	Humedad	79
85821	7	Sololá	704	Santa Lucía Utatlán 	7	Santa Rita 	4	Abril	2023-03-04T00:00:00	2024-11-08T18:00:00	6	Velocidad del viento	3.2
85822	7	Sololá	704	Santa Lucía Utatlán 	7	Santa Rita 	4	Abril	2023-03-04T00:00:00	2024-11-08T18:00:00	7	Dirección del viento	3.22
85823	7	Sololá	704	Santa Lucía Utatlán 	7	Santa Rita 	4	Abril	2023-03-04T00:00:00	2024-11-08T18:00:00	1	Precipitación	0
85824	7	Sololá	704	Santa Lucía Utatlán 	7	Santa Rita 	4	Abril	2023-03-04T00:00:00	2024-11-08T18:00:00	8	Radiación solar	142
85825	7	Sololá	704	Santa Lucía Utatlán 	7	Santa Rita 	4	Abril	2023-03-04T00:00:00	2024-11-08T19:00:00	2	Temperatura media	20.9
85826	7	Sololá	704	Santa Lucía Utatlán 	7	Santa Rita 	4	Abril	2023-03-04T00:00:00	2024-11-08T19:00:00	4	Temperatura máxima	22.7
85827	7	Sololá	704	Santa Lucía Utatlán 	7	Santa Rita 	4	Abril	2023-03-04T00:00:00	2024-11-08T19:00:00	3	Temperatura mínima	20.9
85828	7	Sololá	704	Santa Lucía Utatlán 	7	Santa Rita 	4	Abril	2023-03-04T00:00:00	2024-11-08T19:00:00	5	Humedad	78
85829	7	Sololá	704	Santa Lucía Utatlán 	7	Santa Rita 	4	Abril	2023-03-04T00:00:00	2024-11-08T19:00:00	6	Velocidad del viento	1.6
85830	7	Sololá	704	Santa Lucía Utatlán 	7	Santa Rita 	4	Abril	2023-03-04T00:00:00	2024-11-08T19:00:00	7	Dirección del viento	1.61
85831	7	Sololá	704	Santa Lucía Utatlán 	7	Santa Rita 	4	Abril	2023-03-04T00:00:00	2024-11-08T19:00:00	1	Precipitación	0
85832	7	Sololá	704	Santa Lucía Utatlán 	7	Santa Rita 	4	Abril	2023-03-04T00:00:00	2024-11-08T19:00:00	8	Radiación solar	0
85833	7	Sololá	704	Santa Lucía Utatlán 	7	Santa Rita 	4	Abril	2023-03-04T00:00:00	2024-11-08T20:00:00	2	Temperatura media	18.7
85834	7	Sololá	704	Santa Lucía Utatlán 	7	Santa Rita 	4	Abril	2023-03-04T00:00:00	2024-11-08T20:00:00	4	Temperatura máxima	20.9
85835	7	Sololá	704	Santa Lucía Utatlán 	7	Santa Rita 	4	Abril	2023-03-04T00:00:00	2024-11-08T20:00:00	3	Temperatura mínima	18.7
85836	7	Sololá	704	Santa Lucía Utatlán 	7	Santa Rita 	4	Abril	2023-03-04T00:00:00	2024-11-08T20:00:00	5	Humedad	77
85837	7	Sololá	704	Santa Lucía Utatlán 	7	Santa Rita 	4	Abril	2023-03-04T00:00:00	2024-11-08T20:00:00	6	Velocidad del viento	3.2
85838	7	Sololá	704	Santa Lucía Utatlán 	7	Santa Rita 	4	Abril	2023-03-04T00:00:00	2024-11-08T20:00:00	7	Dirección del viento	3.22
85839	7	Sololá	704	Santa Lucía Utatlán 	7	Santa Rita 	4	Abril	2023-03-04T00:00:00	2024-11-08T20:00:00	1	Precipitación	0
85840	7	Sololá	704	Santa Lucía Utatlán 	7	Santa Rita 	4	Abril	2023-03-04T00:00:00	2024-11-08T20:00:00	8	Radiación solar	0
85841	7	Sololá	704	Santa Lucía Utatlán 	7	Santa Rita 	4	Abril	2023-03-04T00:00:00	2024-11-08T21:00:00	2	Temperatura media	17.3
85842	7	Sololá	704	Santa Lucía Utatlán 	7	Santa Rita 	4	Abril	2023-03-04T00:00:00	2024-11-08T21:00:00	4	Temperatura máxima	18.7
85843	7	Sololá	704	Santa Lucía Utatlán 	7	Santa Rita 	4	Abril	2023-03-04T00:00:00	2024-11-08T21:00:00	3	Temperatura mínima	17.3
85844	7	Sololá	704	Santa Lucía Utatlán 	7	Santa Rita 	4	Abril	2023-03-04T00:00:00	2024-11-08T21:00:00	5	Humedad	75
85845	7	Sololá	704	Santa Lucía Utatlán 	7	Santa Rita 	4	Abril	2023-03-04T00:00:00	2024-11-08T21:00:00	6	Velocidad del viento	1.6
85846	7	Sololá	704	Santa Lucía Utatlán 	7	Santa Rita 	4	Abril	2023-03-04T00:00:00	2024-11-08T21:00:00	7	Dirección del viento	1.61
85847	7	Sololá	704	Santa Lucía Utatlán 	7	Santa Rita 	4	Abril	2023-03-04T00:00:00	2024-11-08T21:00:00	1	Precipitación	0
85848	7	Sololá	704	Santa Lucía Utatlán 	7	Santa Rita 	4	Abril	2023-03-04T00:00:00	2024-11-08T21:00:00	8	Radiación solar	0
85849	7	Sololá	704	Santa Lucía Utatlán 	7	Santa Rita 	4	Abril	2023-03-04T00:00:00	2024-11-08T22:00:00	2	Temperatura media	16.9
85850	7	Sololá	704	Santa Lucía Utatlán 	7	Santa Rita 	4	Abril	2023-03-04T00:00:00	2024-11-08T22:00:00	4	Temperatura máxima	17.3
85851	7	Sololá	704	Santa Lucía Utatlán 	7	Santa Rita 	4	Abril	2023-03-04T00:00:00	2024-11-08T22:00:00	3	Temperatura mínima	16.8
85852	7	Sololá	704	Santa Lucía Utatlán 	7	Santa Rita 	4	Abril	2023-03-04T00:00:00	2024-11-08T22:00:00	5	Humedad	69
85853	7	Sololá	704	Santa Lucía Utatlán 	7	Santa Rita 	4	Abril	2023-03-04T00:00:00	2024-11-08T22:00:00	6	Velocidad del viento	1.6
85854	7	Sololá	704	Santa Lucía Utatlán 	7	Santa Rita 	4	Abril	2023-03-04T00:00:00	2024-11-08T22:00:00	7	Dirección del viento	1.61
85855	7	Sololá	704	Santa Lucía Utatlán 	7	Santa Rita 	4	Abril	2023-03-04T00:00:00	2024-11-08T22:00:00	1	Precipitación	0
85856	7	Sololá	704	Santa Lucía Utatlán 	7	Santa Rita 	4	Abril	2023-03-04T00:00:00	2024-11-08T22:00:00	8	Radiación solar	0
85857	7	Sololá	704	Santa Lucía Utatlán 	7	Santa Rita 	4	Abril	2023-03-04T00:00:00	2024-11-08T23:00:00	2	Temperatura media	16.5
85858	7	Sololá	704	Santa Lucía Utatlán 	7	Santa Rita 	4	Abril	2023-03-04T00:00:00	2024-11-08T23:00:00	4	Temperatura máxima	16.9
85859	7	Sololá	704	Santa Lucía Utatlán 	7	Santa Rita 	4	Abril	2023-03-04T00:00:00	2024-11-08T23:00:00	3	Temperatura mínima	16.4
85860	7	Sololá	704	Santa Lucía Utatlán 	7	Santa Rita 	4	Abril	2023-03-04T00:00:00	2024-11-08T23:00:00	5	Humedad	72
85861	7	Sololá	704	Santa Lucía Utatlán 	7	Santa Rita 	4	Abril	2023-03-04T00:00:00	2024-11-08T23:00:00	6	Velocidad del viento	4.8
85862	7	Sololá	704	Santa Lucía Utatlán 	7	Santa Rita 	4	Abril	2023-03-04T00:00:00	2024-11-08T23:00:00	7	Dirección del viento	4.83
85863	7	Sololá	704	Santa Lucía Utatlán 	7	Santa Rita 	4	Abril	2023-03-04T00:00:00	2024-11-08T23:00:00	1	Precipitación	0
85864	7	Sololá	704	Santa Lucía Utatlán 	7	Santa Rita 	4	Abril	2023-03-04T00:00:00	2024-11-08T23:00:00	8	Radiación solar	0
85865	7	Sololá	704	Santa Lucía Utatlán 	7	Santa Rita 	4	Abril	2023-04-04T00:00:00	2024-11-08T00:00:00	2	Temperatura media	16.2
85866	7	Sololá	704	Santa Lucía Utatlán 	7	Santa Rita 	4	Abril	2023-04-04T00:00:00	2024-11-08T00:00:00	4	Temperatura máxima	16.6
85867	7	Sololá	704	Santa Lucía Utatlán 	7	Santa Rita 	4	Abril	2023-04-04T00:00:00	2024-11-08T00:00:00	3	Temperatura mínima	16.2
85868	7	Sololá	704	Santa Lucía Utatlán 	7	Santa Rita 	4	Abril	2023-04-04T00:00:00	2024-11-08T00:00:00	5	Humedad	73
85869	7	Sololá	704	Santa Lucía Utatlán 	7	Santa Rita 	4	Abril	2023-04-04T00:00:00	2024-11-08T00:00:00	6	Velocidad del viento	4.8
85870	7	Sololá	704	Santa Lucía Utatlán 	7	Santa Rita 	4	Abril	2023-04-04T00:00:00	2024-11-08T00:00:00	7	Dirección del viento	4.83
85871	7	Sololá	704	Santa Lucía Utatlán 	7	Santa Rita 	4	Abril	2023-04-04T00:00:00	2024-11-08T00:00:00	1	Precipitación	0
85872	7	Sololá	704	Santa Lucía Utatlán 	7	Santa Rita 	4	Abril	2023-04-04T00:00:00	2024-11-08T00:00:00	8	Radiación solar	0
85873	7	Sololá	704	Santa Lucía Utatlán 	7	Santa Rita 	4	Abril	2023-04-04T00:00:00	2024-11-08T01:00:00	2	Temperatura media	16.6
85874	7	Sololá	704	Santa Lucía Utatlán 	7	Santa Rita 	4	Abril	2023-04-04T00:00:00	2024-11-08T01:00:00	4	Temperatura máxima	16.6
85875	7	Sololá	704	Santa Lucía Utatlán 	7	Santa Rita 	4	Abril	2023-04-04T00:00:00	2024-11-08T01:00:00	3	Temperatura mínima	16.2
85876	7	Sololá	704	Santa Lucía Utatlán 	7	Santa Rita 	4	Abril	2023-04-04T00:00:00	2024-11-08T01:00:00	5	Humedad	73
85877	7	Sololá	704	Santa Lucía Utatlán 	7	Santa Rita 	4	Abril	2023-04-04T00:00:00	2024-11-08T01:00:00	6	Velocidad del viento	4.8
85878	7	Sololá	704	Santa Lucía Utatlán 	7	Santa Rita 	4	Abril	2023-04-04T00:00:00	2024-11-08T01:00:00	7	Dirección del viento	4.83
85879	7	Sololá	704	Santa Lucía Utatlán 	7	Santa Rita 	4	Abril	2023-04-04T00:00:00	2024-11-08T01:00:00	1	Precipitación	0
85880	7	Sololá	704	Santa Lucía Utatlán 	7	Santa Rita 	4	Abril	2023-04-04T00:00:00	2024-11-08T01:00:00	8	Radiación solar	0
85881	7	Sololá	704	Santa Lucía Utatlán 	7	Santa Rita 	4	Abril	2023-04-04T00:00:00	2024-11-08T02:00:00	2	Temperatura media	16.3
85882	7	Sololá	704	Santa Lucía Utatlán 	7	Santa Rita 	4	Abril	2023-04-04T00:00:00	2024-11-08T02:00:00	4	Temperatura máxima	16.7
85883	7	Sololá	704	Santa Lucía Utatlán 	7	Santa Rita 	4	Abril	2023-04-04T00:00:00	2024-11-08T02:00:00	3	Temperatura mínima	16.1
85884	7	Sololá	704	Santa Lucía Utatlán 	7	Santa Rita 	4	Abril	2023-04-04T00:00:00	2024-11-08T02:00:00	5	Humedad	71
85885	7	Sololá	704	Santa Lucía Utatlán 	7	Santa Rita 	4	Abril	2023-04-04T00:00:00	2024-11-08T02:00:00	6	Velocidad del viento	3.2
85886	7	Sololá	704	Santa Lucía Utatlán 	7	Santa Rita 	4	Abril	2023-04-04T00:00:00	2024-11-08T02:00:00	7	Dirección del viento	3.22
85887	7	Sololá	704	Santa Lucía Utatlán 	7	Santa Rita 	4	Abril	2023-04-04T00:00:00	2024-11-08T02:00:00	1	Precipitación	0
85888	7	Sololá	704	Santa Lucía Utatlán 	7	Santa Rita 	4	Abril	2023-04-04T00:00:00	2024-11-08T02:00:00	8	Radiación solar	0
85889	7	Sololá	704	Santa Lucía Utatlán 	7	Santa Rita 	4	Abril	2023-04-04T00:00:00	2024-11-08T03:00:00	2	Temperatura media	15.6
85890	7	Sololá	704	Santa Lucía Utatlán 	7	Santa Rita 	4	Abril	2023-04-04T00:00:00	2024-11-08T03:00:00	4	Temperatura máxima	16.3
85891	7	Sololá	704	Santa Lucía Utatlán 	7	Santa Rita 	4	Abril	2023-04-04T00:00:00	2024-11-08T03:00:00	3	Temperatura mínima	15.6
85892	7	Sololá	704	Santa Lucía Utatlán 	7	Santa Rita 	4	Abril	2023-04-04T00:00:00	2024-11-08T03:00:00	5	Humedad	70
85893	7	Sololá	704	Santa Lucía Utatlán 	7	Santa Rita 	4	Abril	2023-04-04T00:00:00	2024-11-08T03:00:00	6	Velocidad del viento	4.8
85894	7	Sololá	704	Santa Lucía Utatlán 	7	Santa Rita 	4	Abril	2023-04-04T00:00:00	2024-11-08T03:00:00	7	Dirección del viento	4.83
85895	7	Sololá	704	Santa Lucía Utatlán 	7	Santa Rita 	4	Abril	2023-04-04T00:00:00	2024-11-08T03:00:00	1	Precipitación	0
85896	7	Sololá	704	Santa Lucía Utatlán 	7	Santa Rita 	4	Abril	2023-04-04T00:00:00	2024-11-08T03:00:00	8	Radiación solar	0
85897	7	Sololá	704	Santa Lucía Utatlán 	7	Santa Rita 	4	Abril	2023-04-04T00:00:00	2024-11-08T04:00:00	2	Temperatura media	15.3
85898	7	Sololá	704	Santa Lucía Utatlán 	7	Santa Rita 	4	Abril	2023-04-04T00:00:00	2024-11-08T04:00:00	4	Temperatura máxima	15.7
85899	7	Sololá	704	Santa Lucía Utatlán 	7	Santa Rita 	4	Abril	2023-04-04T00:00:00	2024-11-08T04:00:00	3	Temperatura mínima	15.3
85900	7	Sololá	704	Santa Lucía Utatlán 	7	Santa Rita 	4	Abril	2023-04-04T00:00:00	2024-11-08T04:00:00	5	Humedad	76
85901	7	Sololá	704	Santa Lucía Utatlán 	7	Santa Rita 	4	Abril	2023-04-04T00:00:00	2024-11-08T04:00:00	6	Velocidad del viento	4.8
85902	7	Sololá	704	Santa Lucía Utatlán 	7	Santa Rita 	4	Abril	2023-04-04T00:00:00	2024-11-08T04:00:00	7	Dirección del viento	4.83
85903	7	Sololá	704	Santa Lucía Utatlán 	7	Santa Rita 	4	Abril	2023-04-04T00:00:00	2024-11-08T04:00:00	1	Precipitación	0
85904	7	Sololá	704	Santa Lucía Utatlán 	7	Santa Rita 	4	Abril	2023-04-04T00:00:00	2024-11-08T04:00:00	8	Radiación solar	0
85905	7	Sololá	704	Santa Lucía Utatlán 	7	Santa Rita 	4	Abril	2023-04-04T00:00:00	2024-11-08T05:00:00	2	Temperatura media	15.2
85906	7	Sololá	704	Santa Lucía Utatlán 	7	Santa Rita 	4	Abril	2023-04-04T00:00:00	2024-11-08T05:00:00	4	Temperatura máxima	15.6
85907	7	Sololá	704	Santa Lucía Utatlán 	7	Santa Rita 	4	Abril	2023-04-04T00:00:00	2024-11-08T05:00:00	3	Temperatura mínima	15.1
85908	7	Sololá	704	Santa Lucía Utatlán 	7	Santa Rita 	4	Abril	2023-04-04T00:00:00	2024-11-08T05:00:00	5	Humedad	64
85909	7	Sololá	704	Santa Lucía Utatlán 	7	Santa Rita 	4	Abril	2023-04-04T00:00:00	2024-11-08T05:00:00	6	Velocidad del viento	6.4
85910	7	Sololá	704	Santa Lucía Utatlán 	7	Santa Rita 	4	Abril	2023-04-04T00:00:00	2024-11-08T05:00:00	7	Dirección del viento	6.44
85911	7	Sololá	704	Santa Lucía Utatlán 	7	Santa Rita 	4	Abril	2023-04-04T00:00:00	2024-11-08T05:00:00	1	Precipitación	0
85912	7	Sololá	704	Santa Lucía Utatlán 	7	Santa Rita 	4	Abril	2023-04-04T00:00:00	2024-11-08T05:00:00	8	Radiación solar	0
85913	7	Sololá	704	Santa Lucía Utatlán 	7	Santa Rita 	4	Abril	2023-04-04T00:00:00	2024-11-08T06:00:00	2	Temperatura media	14.3
85914	7	Sololá	704	Santa Lucía Utatlán 	7	Santa Rita 	4	Abril	2023-04-04T00:00:00	2024-11-08T06:00:00	4	Temperatura máxima	15.2
85915	7	Sololá	704	Santa Lucía Utatlán 	7	Santa Rita 	4	Abril	2023-04-04T00:00:00	2024-11-08T06:00:00	3	Temperatura mínima	14.3
85916	7	Sololá	704	Santa Lucía Utatlán 	7	Santa Rita 	4	Abril	2023-04-04T00:00:00	2024-11-08T06:00:00	5	Humedad	67
85917	7	Sololá	704	Santa Lucía Utatlán 	7	Santa Rita 	4	Abril	2023-04-04T00:00:00	2024-11-08T06:00:00	6	Velocidad del viento	4.8
85918	7	Sololá	704	Santa Lucía Utatlán 	7	Santa Rita 	4	Abril	2023-04-04T00:00:00	2024-11-08T06:00:00	7	Dirección del viento	4.83
85919	7	Sololá	704	Santa Lucía Utatlán 	7	Santa Rita 	4	Abril	2023-04-04T00:00:00	2024-11-08T06:00:00	1	Precipitación	0
85920	7	Sololá	704	Santa Lucía Utatlán 	7	Santa Rita 	4	Abril	2023-04-04T00:00:00	2024-11-08T06:00:00	8	Radiación solar	0
85921	7	Sololá	704	Santa Lucía Utatlán 	7	Santa Rita 	4	Abril	2023-04-04T00:00:00	2024-11-08T07:00:00	2	Temperatura media	13.7
85922	7	Sololá	704	Santa Lucía Utatlán 	7	Santa Rita 	4	Abril	2023-04-04T00:00:00	2024-11-08T07:00:00	4	Temperatura máxima	14.3
85923	7	Sololá	704	Santa Lucía Utatlán 	7	Santa Rita 	4	Abril	2023-04-04T00:00:00	2024-11-08T07:00:00	3	Temperatura mínima	13.6
85924	7	Sololá	704	Santa Lucía Utatlán 	7	Santa Rita 	4	Abril	2023-04-04T00:00:00	2024-11-08T07:00:00	5	Humedad	60
85925	7	Sololá	704	Santa Lucía Utatlán 	7	Santa Rita 	4	Abril	2023-04-04T00:00:00	2024-11-08T07:00:00	6	Velocidad del viento	4.8
85926	7	Sololá	704	Santa Lucía Utatlán 	7	Santa Rita 	4	Abril	2023-04-04T00:00:00	2024-11-08T07:00:00	7	Dirección del viento	4.83
85927	7	Sololá	704	Santa Lucía Utatlán 	7	Santa Rita 	4	Abril	2023-04-04T00:00:00	2024-11-08T07:00:00	1	Precipitación	0
85928	7	Sololá	704	Santa Lucía Utatlán 	7	Santa Rita 	4	Abril	2023-04-04T00:00:00	2024-11-08T07:00:00	8	Radiación solar	0
85929	7	Sololá	704	Santa Lucía Utatlán 	7	Santa Rita 	4	Abril	2023-04-04T00:00:00	2024-11-08T08:00:00	2	Temperatura media	16.7
85930	7	Sololá	704	Santa Lucía Utatlán 	7	Santa Rita 	4	Abril	2023-04-04T00:00:00	2024-11-08T08:00:00	4	Temperatura máxima	16.7
85931	7	Sololá	704	Santa Lucía Utatlán 	7	Santa Rita 	4	Abril	2023-04-04T00:00:00	2024-11-08T08:00:00	3	Temperatura mínima	13.7
85932	7	Sololá	704	Santa Lucía Utatlán 	7	Santa Rita 	4	Abril	2023-04-04T00:00:00	2024-11-08T08:00:00	5	Humedad	63
85933	7	Sololá	704	Santa Lucía Utatlán 	7	Santa Rita 	4	Abril	2023-04-04T00:00:00	2024-11-08T08:00:00	6	Velocidad del viento	3.2
85934	7	Sololá	704	Santa Lucía Utatlán 	7	Santa Rita 	4	Abril	2023-04-04T00:00:00	2024-11-08T08:00:00	7	Dirección del viento	3.22
85935	7	Sololá	704	Santa Lucía Utatlán 	7	Santa Rita 	4	Abril	2023-04-04T00:00:00	2024-11-08T08:00:00	1	Precipitación	0
85936	7	Sololá	704	Santa Lucía Utatlán 	7	Santa Rita 	4	Abril	2023-04-04T00:00:00	2024-11-08T08:00:00	8	Radiación solar	79
85937	7	Sololá	704	Santa Lucía Utatlán 	7	Santa Rita 	4	Abril	2023-04-04T00:00:00	2024-11-08T09:00:00	2	Temperatura media	19.4
85938	7	Sololá	704	Santa Lucía Utatlán 	7	Santa Rita 	4	Abril	2023-04-04T00:00:00	2024-11-08T09:00:00	4	Temperatura máxima	19.5
85939	7	Sololá	704	Santa Lucía Utatlán 	7	Santa Rita 	4	Abril	2023-04-04T00:00:00	2024-11-08T09:00:00	3	Temperatura mínima	16.7
85940	7	Sololá	704	Santa Lucía Utatlán 	7	Santa Rita 	4	Abril	2023-04-04T00:00:00	2024-11-08T09:00:00	5	Humedad	60
85941	7	Sololá	704	Santa Lucía Utatlán 	7	Santa Rita 	4	Abril	2023-04-04T00:00:00	2024-11-08T09:00:00	6	Velocidad del viento	3.2
85942	7	Sololá	704	Santa Lucía Utatlán 	7	Santa Rita 	4	Abril	2023-04-04T00:00:00	2024-11-08T09:00:00	7	Dirección del viento	3.22
85943	7	Sololá	704	Santa Lucía Utatlán 	7	Santa Rita 	4	Abril	2023-04-04T00:00:00	2024-11-08T09:00:00	1	Precipitación	0
85944	7	Sololá	704	Santa Lucía Utatlán 	7	Santa Rita 	4	Abril	2023-04-04T00:00:00	2024-11-08T09:00:00	8	Radiación solar	366
85945	7	Sololá	704	Santa Lucía Utatlán 	7	Santa Rita 	4	Abril	2023-04-04T00:00:00	2024-11-08T10:00:00	2	Temperatura media	21.9
85946	7	Sololá	704	Santa Lucía Utatlán 	7	Santa Rita 	4	Abril	2023-04-04T00:00:00	2024-11-08T10:00:00	4	Temperatura máxima	21.9
85947	7	Sololá	704	Santa Lucía Utatlán 	7	Santa Rita 	4	Abril	2023-04-04T00:00:00	2024-11-08T10:00:00	3	Temperatura mínima	19.4
85948	7	Sololá	704	Santa Lucía Utatlán 	7	Santa Rita 	4	Abril	2023-04-04T00:00:00	2024-11-08T10:00:00	5	Humedad	53
85949	7	Sololá	704	Santa Lucía Utatlán 	7	Santa Rita 	4	Abril	2023-04-04T00:00:00	2024-11-08T10:00:00	6	Velocidad del viento	6.4
85950	7	Sololá	704	Santa Lucía Utatlán 	7	Santa Rita 	4	Abril	2023-04-04T00:00:00	2024-11-08T10:00:00	7	Dirección del viento	6.44
85951	7	Sololá	704	Santa Lucía Utatlán 	7	Santa Rita 	4	Abril	2023-04-04T00:00:00	2024-11-08T10:00:00	1	Precipitación	0
85952	7	Sololá	704	Santa Lucía Utatlán 	7	Santa Rita 	4	Abril	2023-04-04T00:00:00	2024-11-08T10:00:00	8	Radiación solar	605
85953	7	Sololá	704	Santa Lucía Utatlán 	7	Santa Rita 	4	Abril	2023-04-04T00:00:00	2024-11-08T11:00:00	2	Temperatura media	23.1
85954	7	Sololá	704	Santa Lucía Utatlán 	7	Santa Rita 	4	Abril	2023-04-04T00:00:00	2024-11-08T11:00:00	4	Temperatura máxima	23.1
85955	7	Sololá	704	Santa Lucía Utatlán 	7	Santa Rita 	4	Abril	2023-04-04T00:00:00	2024-11-08T11:00:00	3	Temperatura mínima	21.7
85956	7	Sololá	704	Santa Lucía Utatlán 	7	Santa Rita 	4	Abril	2023-04-04T00:00:00	2024-11-08T11:00:00	5	Humedad	64
85957	7	Sololá	704	Santa Lucía Utatlán 	7	Santa Rita 	4	Abril	2023-04-04T00:00:00	2024-11-08T11:00:00	6	Velocidad del viento	6.4
85958	7	Sololá	704	Santa Lucía Utatlán 	7	Santa Rita 	4	Abril	2023-04-04T00:00:00	2024-11-08T11:00:00	7	Dirección del viento	6.44
85959	7	Sololá	704	Santa Lucía Utatlán 	7	Santa Rita 	4	Abril	2023-04-04T00:00:00	2024-11-08T11:00:00	1	Precipitación	0
85960	7	Sololá	704	Santa Lucía Utatlán 	7	Santa Rita 	4	Abril	2023-04-04T00:00:00	2024-11-08T11:00:00	8	Radiación solar	803
85961	7	Sololá	704	Santa Lucía Utatlán 	7	Santa Rita 	4	Abril	2023-04-04T00:00:00	2024-11-08T12:00:00	2	Temperatura media	24.3
85962	7	Sololá	704	Santa Lucía Utatlán 	7	Santa Rita 	4	Abril	2023-04-04T00:00:00	2024-11-08T12:00:00	4	Temperatura máxima	24.4
85963	7	Sololá	704	Santa Lucía Utatlán 	7	Santa Rita 	4	Abril	2023-04-04T00:00:00	2024-11-08T12:00:00	3	Temperatura mínima	23.1
85964	7	Sololá	704	Santa Lucía Utatlán 	7	Santa Rita 	4	Abril	2023-04-04T00:00:00	2024-11-08T12:00:00	5	Humedad	62
85965	7	Sololá	704	Santa Lucía Utatlán 	7	Santa Rita 	4	Abril	2023-04-04T00:00:00	2024-11-08T12:00:00	6	Velocidad del viento	8
85966	7	Sololá	704	Santa Lucía Utatlán 	7	Santa Rita 	4	Abril	2023-04-04T00:00:00	2024-11-08T12:00:00	7	Dirección del viento	8.05
85967	7	Sololá	704	Santa Lucía Utatlán 	7	Santa Rita 	4	Abril	2023-04-04T00:00:00	2024-11-08T12:00:00	1	Precipitación	0
85968	7	Sololá	704	Santa Lucía Utatlán 	7	Santa Rita 	4	Abril	2023-04-04T00:00:00	2024-11-08T12:00:00	8	Radiación solar	939
85969	7	Sololá	704	Santa Lucía Utatlán 	7	Santa Rita 	4	Abril	2023-04-04T00:00:00	2024-11-08T13:00:00	2	Temperatura media	24.5
85970	7	Sololá	704	Santa Lucía Utatlán 	7	Santa Rita 	4	Abril	2023-04-04T00:00:00	2024-11-08T13:00:00	4	Temperatura máxima	25.1
85971	7	Sololá	704	Santa Lucía Utatlán 	7	Santa Rita 	4	Abril	2023-04-04T00:00:00	2024-11-08T13:00:00	3	Temperatura mínima	24.1
85972	7	Sololá	704	Santa Lucía Utatlán 	7	Santa Rita 	4	Abril	2023-04-04T00:00:00	2024-11-08T13:00:00	5	Humedad	61
85973	7	Sololá	704	Santa Lucía Utatlán 	7	Santa Rita 	4	Abril	2023-04-04T00:00:00	2024-11-08T13:00:00	6	Velocidad del viento	9.7
85974	7	Sololá	704	Santa Lucía Utatlán 	7	Santa Rita 	4	Abril	2023-04-04T00:00:00	2024-11-08T13:00:00	7	Dirección del viento	9.66
85975	7	Sololá	704	Santa Lucía Utatlán 	7	Santa Rita 	4	Abril	2023-04-04T00:00:00	2024-11-08T13:00:00	1	Precipitación	0
85976	7	Sololá	704	Santa Lucía Utatlán 	7	Santa Rita 	4	Abril	2023-04-04T00:00:00	2024-11-08T13:00:00	8	Radiación solar	1013
85977	7	Sololá	704	Santa Lucía Utatlán 	7	Santa Rita 	4	Abril	2023-04-04T00:00:00	2024-11-08T14:00:00	2	Temperatura media	25.4
85978	7	Sololá	704	Santa Lucía Utatlán 	7	Santa Rita 	4	Abril	2023-04-04T00:00:00	2024-11-08T14:00:00	4	Temperatura máxima	25.5
85979	7	Sololá	704	Santa Lucía Utatlán 	7	Santa Rita 	4	Abril	2023-04-04T00:00:00	2024-11-08T14:00:00	3	Temperatura mínima	24.3
85980	7	Sololá	704	Santa Lucía Utatlán 	7	Santa Rita 	4	Abril	2023-04-04T00:00:00	2024-11-08T14:00:00	5	Humedad	62
85981	7	Sololá	704	Santa Lucía Utatlán 	7	Santa Rita 	4	Abril	2023-04-04T00:00:00	2024-11-08T14:00:00	6	Velocidad del viento	8
85982	7	Sololá	704	Santa Lucía Utatlán 	7	Santa Rita 	4	Abril	2023-04-04T00:00:00	2024-11-08T14:00:00	7	Dirección del viento	8.05
85983	7	Sololá	704	Santa Lucía Utatlán 	7	Santa Rita 	4	Abril	2023-04-04T00:00:00	2024-11-08T14:00:00	1	Precipitación	0
85984	7	Sololá	704	Santa Lucía Utatlán 	7	Santa Rita 	4	Abril	2023-04-04T00:00:00	2024-11-08T14:00:00	8	Radiación solar	1011
85985	7	Sololá	704	Santa Lucía Utatlán 	7	Santa Rita 	4	Abril	2023-04-04T00:00:00	2024-11-08T15:00:00	2	Temperatura media	23.5
85986	7	Sololá	704	Santa Lucía Utatlán 	7	Santa Rita 	4	Abril	2023-04-04T00:00:00	2024-11-08T15:00:00	4	Temperatura máxima	25.7
85987	7	Sololá	704	Santa Lucía Utatlán 	7	Santa Rita 	4	Abril	2023-04-04T00:00:00	2024-11-08T15:00:00	3	Temperatura mínima	23.5
85988	7	Sololá	704	Santa Lucía Utatlán 	7	Santa Rita 	4	Abril	2023-04-04T00:00:00	2024-11-08T15:00:00	5	Humedad	72
85989	7	Sololá	704	Santa Lucía Utatlán 	7	Santa Rita 	4	Abril	2023-04-04T00:00:00	2024-11-08T15:00:00	6	Velocidad del viento	11.3
85990	7	Sololá	704	Santa Lucía Utatlán 	7	Santa Rita 	4	Abril	2023-04-04T00:00:00	2024-11-08T15:00:00	7	Dirección del viento	11.27
85991	7	Sololá	704	Santa Lucía Utatlán 	7	Santa Rita 	4	Abril	2023-04-04T00:00:00	2024-11-08T15:00:00	1	Precipitación	0
85992	7	Sololá	704	Santa Lucía Utatlán 	7	Santa Rita 	4	Abril	2023-04-04T00:00:00	2024-11-08T15:00:00	8	Radiación solar	761
85993	7	Sololá	704	Santa Lucía Utatlán 	7	Santa Rita 	4	Abril	2023-04-04T00:00:00	2024-11-08T16:00:00	2	Temperatura media	23.4
85994	7	Sololá	704	Santa Lucía Utatlán 	7	Santa Rita 	4	Abril	2023-04-04T00:00:00	2024-11-08T16:00:00	4	Temperatura máxima	24.2
85995	7	Sololá	704	Santa Lucía Utatlán 	7	Santa Rita 	4	Abril	2023-04-04T00:00:00	2024-11-08T16:00:00	3	Temperatura mínima	23.1
85996	7	Sololá	704	Santa Lucía Utatlán 	7	Santa Rita 	4	Abril	2023-04-04T00:00:00	2024-11-08T16:00:00	5	Humedad	74
85997	7	Sololá	704	Santa Lucía Utatlán 	7	Santa Rita 	4	Abril	2023-04-04T00:00:00	2024-11-08T16:00:00	6	Velocidad del viento	8
85998	7	Sololá	704	Santa Lucía Utatlán 	7	Santa Rita 	4	Abril	2023-04-04T00:00:00	2024-11-08T16:00:00	7	Dirección del viento	8.05
85999	7	Sololá	704	Santa Lucía Utatlán 	7	Santa Rita 	4	Abril	2023-04-04T00:00:00	2024-11-08T16:00:00	1	Precipitación	0
86000	7	Sololá	704	Santa Lucía Utatlán 	7	Santa Rita 	4	Abril	2023-04-04T00:00:00	2024-11-08T16:00:00	8	Radiación solar	432
86001	7	Sololá	704	Santa Lucía Utatlán 	7	Santa Rita 	4	Abril	2023-04-04T00:00:00	2024-11-08T17:00:00	2	Temperatura media	21.9
86002	7	Sololá	704	Santa Lucía Utatlán 	7	Santa Rita 	4	Abril	2023-04-04T00:00:00	2024-11-08T17:00:00	4	Temperatura máxima	23.4
86003	7	Sololá	704	Santa Lucía Utatlán 	7	Santa Rita 	4	Abril	2023-04-04T00:00:00	2024-11-08T17:00:00	3	Temperatura mínima	21.9
86004	7	Sololá	704	Santa Lucía Utatlán 	7	Santa Rita 	4	Abril	2023-04-04T00:00:00	2024-11-08T17:00:00	5	Humedad	80
86005	7	Sololá	704	Santa Lucía Utatlán 	7	Santa Rita 	4	Abril	2023-04-04T00:00:00	2024-11-08T17:00:00	6	Velocidad del viento	6.4
86006	7	Sololá	704	Santa Lucía Utatlán 	7	Santa Rita 	4	Abril	2023-04-04T00:00:00	2024-11-08T17:00:00	7	Dirección del viento	6.44
86007	7	Sololá	704	Santa Lucía Utatlán 	7	Santa Rita 	4	Abril	2023-04-04T00:00:00	2024-11-08T17:00:00	1	Precipitación	0
86008	7	Sololá	704	Santa Lucía Utatlán 	7	Santa Rita 	4	Abril	2023-04-04T00:00:00	2024-11-08T17:00:00	8	Radiación solar	205
86009	7	Sololá	704	Santa Lucía Utatlán 	7	Santa Rita 	4	Abril	2023-04-04T00:00:00	2024-11-08T18:00:00	2	Temperatura media	21.1
86010	7	Sololá	704	Santa Lucía Utatlán 	7	Santa Rita 	4	Abril	2023-04-04T00:00:00	2024-11-08T18:00:00	4	Temperatura máxima	21.9
86011	7	Sololá	704	Santa Lucía Utatlán 	7	Santa Rita 	4	Abril	2023-04-04T00:00:00	2024-11-08T18:00:00	3	Temperatura mínima	21.1
86012	7	Sololá	704	Santa Lucía Utatlán 	7	Santa Rita 	4	Abril	2023-04-04T00:00:00	2024-11-08T18:00:00	5	Humedad	83
86013	7	Sololá	704	Santa Lucía Utatlán 	7	Santa Rita 	4	Abril	2023-04-04T00:00:00	2024-11-08T18:00:00	6	Velocidad del viento	4.8
86014	7	Sololá	704	Santa Lucía Utatlán 	7	Santa Rita 	4	Abril	2023-04-04T00:00:00	2024-11-08T18:00:00	7	Dirección del viento	4.83
86015	7	Sololá	704	Santa Lucía Utatlán 	7	Santa Rita 	4	Abril	2023-04-04T00:00:00	2024-11-08T18:00:00	1	Precipitación	0
86016	7	Sololá	704	Santa Lucía Utatlán 	7	Santa Rita 	4	Abril	2023-04-04T00:00:00	2024-11-08T18:00:00	8	Radiación solar	84
86017	7	Sololá	704	Santa Lucía Utatlán 	7	Santa Rita 	4	Abril	2023-04-04T00:00:00	2024-11-08T19:00:00	2	Temperatura media	20.4
86018	7	Sololá	704	Santa Lucía Utatlán 	7	Santa Rita 	4	Abril	2023-04-04T00:00:00	2024-11-08T19:00:00	4	Temperatura máxima	21.2
86019	7	Sololá	704	Santa Lucía Utatlán 	7	Santa Rita 	4	Abril	2023-04-04T00:00:00	2024-11-08T19:00:00	3	Temperatura mínima	20.4
86020	7	Sololá	704	Santa Lucía Utatlán 	7	Santa Rita 	4	Abril	2023-04-04T00:00:00	2024-11-08T19:00:00	5	Humedad	87
86021	7	Sololá	704	Santa Lucía Utatlán 	7	Santa Rita 	4	Abril	2023-04-04T00:00:00	2024-11-08T19:00:00	6	Velocidad del viento	4.8
86022	7	Sololá	704	Santa Lucía Utatlán 	7	Santa Rita 	4	Abril	2023-04-04T00:00:00	2024-11-08T19:00:00	7	Dirección del viento	4.83
86023	7	Sololá	704	Santa Lucía Utatlán 	7	Santa Rita 	4	Abril	2023-04-04T00:00:00	2024-11-08T19:00:00	1	Precipitación	0
86024	7	Sololá	704	Santa Lucía Utatlán 	7	Santa Rita 	4	Abril	2023-04-04T00:00:00	2024-11-08T19:00:00	8	Radiación solar	0
86025	7	Sololá	704	Santa Lucía Utatlán 	7	Santa Rita 	4	Abril	2023-04-04T00:00:00	2024-11-08T20:00:00	2	Temperatura media	19.8
86026	7	Sololá	704	Santa Lucía Utatlán 	7	Santa Rita 	4	Abril	2023-04-04T00:00:00	2024-11-08T20:00:00	4	Temperatura máxima	20.4
86027	7	Sololá	704	Santa Lucía Utatlán 	7	Santa Rita 	4	Abril	2023-04-04T00:00:00	2024-11-08T20:00:00	3	Temperatura mínima	19.8
86028	7	Sololá	704	Santa Lucía Utatlán 	7	Santa Rita 	4	Abril	2023-04-04T00:00:00	2024-11-08T20:00:00	5	Humedad	90
86029	7	Sololá	704	Santa Lucía Utatlán 	7	Santa Rita 	4	Abril	2023-04-04T00:00:00	2024-11-08T20:00:00	6	Velocidad del viento	3.2
86030	7	Sololá	704	Santa Lucía Utatlán 	7	Santa Rita 	4	Abril	2023-04-04T00:00:00	2024-11-08T20:00:00	7	Dirección del viento	3.22
86031	7	Sololá	704	Santa Lucía Utatlán 	7	Santa Rita 	4	Abril	2023-04-04T00:00:00	2024-11-08T20:00:00	1	Precipitación	0
86032	7	Sololá	704	Santa Lucía Utatlán 	7	Santa Rita 	4	Abril	2023-04-04T00:00:00	2024-11-08T20:00:00	8	Radiación solar	0
86033	7	Sololá	704	Santa Lucía Utatlán 	7	Santa Rita 	4	Abril	2023-04-04T00:00:00	2024-11-08T21:00:00	2	Temperatura media	19.7
86034	7	Sololá	704	Santa Lucía Utatlán 	7	Santa Rita 	4	Abril	2023-04-04T00:00:00	2024-11-08T21:00:00	4	Temperatura máxima	19.8
86035	7	Sololá	704	Santa Lucía Utatlán 	7	Santa Rita 	4	Abril	2023-04-04T00:00:00	2024-11-08T21:00:00	3	Temperatura mínima	19.6
86036	7	Sololá	704	Santa Lucía Utatlán 	7	Santa Rita 	4	Abril	2023-04-04T00:00:00	2024-11-08T21:00:00	5	Humedad	90
86037	7	Sololá	704	Santa Lucía Utatlán 	7	Santa Rita 	4	Abril	2023-04-04T00:00:00	2024-11-08T21:00:00	6	Velocidad del viento	1.6
86038	7	Sololá	704	Santa Lucía Utatlán 	7	Santa Rita 	4	Abril	2023-04-04T00:00:00	2024-11-08T21:00:00	7	Dirección del viento	1.61
86039	7	Sololá	704	Santa Lucía Utatlán 	7	Santa Rita 	4	Abril	2023-04-04T00:00:00	2024-11-08T21:00:00	1	Precipitación	0
86040	7	Sololá	704	Santa Lucía Utatlán 	7	Santa Rita 	4	Abril	2023-04-04T00:00:00	2024-11-08T21:00:00	8	Radiación solar	0
86041	7	Sololá	704	Santa Lucía Utatlán 	7	Santa Rita 	4	Abril	2023-04-04T00:00:00	2024-11-08T22:00:00	2	Temperatura media	18.3
86042	7	Sololá	704	Santa Lucía Utatlán 	7	Santa Rita 	4	Abril	2023-04-04T00:00:00	2024-11-08T22:00:00	4	Temperatura máxima	19.7
86043	7	Sololá	704	Santa Lucía Utatlán 	7	Santa Rita 	4	Abril	2023-04-04T00:00:00	2024-11-08T22:00:00	3	Temperatura mínima	18.3
86044	7	Sololá	704	Santa Lucía Utatlán 	7	Santa Rita 	4	Abril	2023-04-04T00:00:00	2024-11-08T22:00:00	5	Humedad	88
86045	7	Sololá	704	Santa Lucía Utatlán 	7	Santa Rita 	4	Abril	2023-04-04T00:00:00	2024-11-08T22:00:00	6	Velocidad del viento	1.6
86046	7	Sololá	704	Santa Lucía Utatlán 	7	Santa Rita 	4	Abril	2023-04-04T00:00:00	2024-11-08T22:00:00	7	Dirección del viento	1.61
86047	7	Sololá	704	Santa Lucía Utatlán 	7	Santa Rita 	4	Abril	2023-04-04T00:00:00	2024-11-08T22:00:00	1	Precipitación	0
86048	7	Sololá	704	Santa Lucía Utatlán 	7	Santa Rita 	4	Abril	2023-04-04T00:00:00	2024-11-08T22:00:00	8	Radiación solar	0
86049	7	Sololá	704	Santa Lucía Utatlán 	7	Santa Rita 	4	Abril	2023-04-04T00:00:00	2024-11-08T23:00:00	2	Temperatura media	18
86050	7	Sololá	704	Santa Lucía Utatlán 	7	Santa Rita 	4	Abril	2023-04-04T00:00:00	2024-11-08T23:00:00	4	Temperatura máxima	18.3
86051	7	Sololá	704	Santa Lucía Utatlán 	7	Santa Rita 	4	Abril	2023-04-04T00:00:00	2024-11-08T23:00:00	3	Temperatura mínima	17.8
86052	7	Sololá	704	Santa Lucía Utatlán 	7	Santa Rita 	4	Abril	2023-04-04T00:00:00	2024-11-08T23:00:00	5	Humedad	83
86053	7	Sololá	704	Santa Lucía Utatlán 	7	Santa Rita 	4	Abril	2023-04-04T00:00:00	2024-11-08T23:00:00	6	Velocidad del viento	1.6
86054	7	Sololá	704	Santa Lucía Utatlán 	7	Santa Rita 	4	Abril	2023-04-04T00:00:00	2024-11-08T23:00:00	7	Dirección del viento	1.61
86055	7	Sololá	704	Santa Lucía Utatlán 	7	Santa Rita 	4	Abril	2023-04-04T00:00:00	2024-11-08T23:00:00	1	Precipitación	0
86056	7	Sololá	704	Santa Lucía Utatlán 	7	Santa Rita 	4	Abril	2023-04-04T00:00:00	2024-11-08T23:00:00	8	Radiación solar	0
86057	7	Sololá	704	Santa Lucía Utatlán 	7	Santa Rita 	4	Abril	2023-05-04T00:00:00	2024-11-08T00:00:00	2	Temperatura media	18
86058	7	Sololá	704	Santa Lucía Utatlán 	7	Santa Rita 	4	Abril	2023-05-04T00:00:00	2024-11-08T00:00:00	4	Temperatura máxima	18.5
86059	7	Sololá	704	Santa Lucía Utatlán 	7	Santa Rita 	4	Abril	2023-05-04T00:00:00	2024-11-08T00:00:00	3	Temperatura mínima	17.8
86060	7	Sololá	704	Santa Lucía Utatlán 	7	Santa Rita 	4	Abril	2023-05-04T00:00:00	2024-11-08T00:00:00	5	Humedad	81
86061	7	Sololá	704	Santa Lucía Utatlán 	7	Santa Rita 	4	Abril	2023-05-04T00:00:00	2024-11-08T00:00:00	6	Velocidad del viento	3.2
86062	7	Sololá	704	Santa Lucía Utatlán 	7	Santa Rita 	4	Abril	2023-05-04T00:00:00	2024-11-08T00:00:00	7	Dirección del viento	3.22
86063	7	Sololá	704	Santa Lucía Utatlán 	7	Santa Rita 	4	Abril	2023-05-04T00:00:00	2024-11-08T00:00:00	1	Precipitación	0
86064	7	Sololá	704	Santa Lucía Utatlán 	7	Santa Rita 	4	Abril	2023-05-04T00:00:00	2024-11-08T00:00:00	8	Radiación solar	0
86065	7	Sololá	704	Santa Lucía Utatlán 	7	Santa Rita 	4	Abril	2023-05-04T00:00:00	2024-11-08T01:00:00	2	Temperatura media	17.7
86066	7	Sololá	704	Santa Lucía Utatlán 	7	Santa Rita 	4	Abril	2023-05-04T00:00:00	2024-11-08T01:00:00	4	Temperatura máxima	18.1
86067	7	Sololá	704	Santa Lucía Utatlán 	7	Santa Rita 	4	Abril	2023-05-04T00:00:00	2024-11-08T01:00:00	3	Temperatura mínima	17.7
86068	7	Sololá	704	Santa Lucía Utatlán 	7	Santa Rita 	4	Abril	2023-05-04T00:00:00	2024-11-08T01:00:00	5	Humedad	82
86069	7	Sololá	704	Santa Lucía Utatlán 	7	Santa Rita 	4	Abril	2023-05-04T00:00:00	2024-11-08T01:00:00	6	Velocidad del viento	4.8
86070	7	Sololá	704	Santa Lucía Utatlán 	7	Santa Rita 	4	Abril	2023-05-04T00:00:00	2024-11-08T01:00:00	7	Dirección del viento	4.83
86071	7	Sololá	704	Santa Lucía Utatlán 	7	Santa Rita 	4	Abril	2023-05-04T00:00:00	2024-11-08T01:00:00	1	Precipitación	0
86072	7	Sololá	704	Santa Lucía Utatlán 	7	Santa Rita 	4	Abril	2023-05-04T00:00:00	2024-11-08T01:00:00	8	Radiación solar	0
86073	7	Sololá	704	Santa Lucía Utatlán 	7	Santa Rita 	4	Abril	2023-05-04T00:00:00	2024-11-08T02:00:00	2	Temperatura media	17.3
86074	7	Sololá	704	Santa Lucía Utatlán 	7	Santa Rita 	4	Abril	2023-05-04T00:00:00	2024-11-08T02:00:00	4	Temperatura máxima	17.7
86075	7	Sololá	704	Santa Lucía Utatlán 	7	Santa Rita 	4	Abril	2023-05-04T00:00:00	2024-11-08T02:00:00	3	Temperatura mínima	17.2
86076	7	Sololá	704	Santa Lucía Utatlán 	7	Santa Rita 	4	Abril	2023-05-04T00:00:00	2024-11-08T02:00:00	5	Humedad	85
86077	7	Sololá	704	Santa Lucía Utatlán 	7	Santa Rita 	4	Abril	2023-05-04T00:00:00	2024-11-08T02:00:00	6	Velocidad del viento	3.2
86078	7	Sololá	704	Santa Lucía Utatlán 	7	Santa Rita 	4	Abril	2023-05-04T00:00:00	2024-11-08T02:00:00	7	Dirección del viento	3.22
86079	7	Sololá	704	Santa Lucía Utatlán 	7	Santa Rita 	4	Abril	2023-05-04T00:00:00	2024-11-08T02:00:00	1	Precipitación	0
86080	7	Sololá	704	Santa Lucía Utatlán 	7	Santa Rita 	4	Abril	2023-05-04T00:00:00	2024-11-08T02:00:00	8	Radiación solar	0
86081	7	Sololá	704	Santa Lucía Utatlán 	7	Santa Rita 	4	Abril	2023-05-04T00:00:00	2024-11-08T03:00:00	2	Temperatura media	16.8
86082	7	Sololá	704	Santa Lucía Utatlán 	7	Santa Rita 	4	Abril	2023-05-04T00:00:00	2024-11-08T03:00:00	4	Temperatura máxima	17.3
86083	7	Sololá	704	Santa Lucía Utatlán 	7	Santa Rita 	4	Abril	2023-05-04T00:00:00	2024-11-08T03:00:00	3	Temperatura mínima	16.8
86084	7	Sololá	704	Santa Lucía Utatlán 	7	Santa Rita 	4	Abril	2023-05-04T00:00:00	2024-11-08T03:00:00	5	Humedad	79
86085	7	Sololá	704	Santa Lucía Utatlán 	7	Santa Rita 	4	Abril	2023-05-04T00:00:00	2024-11-08T03:00:00	6	Velocidad del viento	4.8
86086	7	Sololá	704	Santa Lucía Utatlán 	7	Santa Rita 	4	Abril	2023-05-04T00:00:00	2024-11-08T03:00:00	7	Dirección del viento	4.83
86087	7	Sololá	704	Santa Lucía Utatlán 	7	Santa Rita 	4	Abril	2023-05-04T00:00:00	2024-11-08T03:00:00	1	Precipitación	0
86088	7	Sololá	704	Santa Lucía Utatlán 	7	Santa Rita 	4	Abril	2023-05-04T00:00:00	2024-11-08T03:00:00	8	Radiación solar	0
86089	7	Sololá	704	Santa Lucía Utatlán 	7	Santa Rita 	4	Abril	2023-05-04T00:00:00	2024-11-08T04:00:00	2	Temperatura media	16.7
86090	7	Sololá	704	Santa Lucía Utatlán 	7	Santa Rita 	4	Abril	2023-05-04T00:00:00	2024-11-08T04:00:00	4	Temperatura máxima	16.9
86091	7	Sololá	704	Santa Lucía Utatlán 	7	Santa Rita 	4	Abril	2023-05-04T00:00:00	2024-11-08T04:00:00	3	Temperatura mínima	16.3
86092	7	Sololá	704	Santa Lucía Utatlán 	7	Santa Rita 	4	Abril	2023-05-04T00:00:00	2024-11-08T04:00:00	5	Humedad	68
86093	7	Sololá	704	Santa Lucía Utatlán 	7	Santa Rita 	4	Abril	2023-05-04T00:00:00	2024-11-08T04:00:00	6	Velocidad del viento	6.4
86094	7	Sololá	704	Santa Lucía Utatlán 	7	Santa Rita 	4	Abril	2023-05-04T00:00:00	2024-11-08T04:00:00	7	Dirección del viento	6.44
86095	7	Sololá	704	Santa Lucía Utatlán 	7	Santa Rita 	4	Abril	2023-05-04T00:00:00	2024-11-08T04:00:00	1	Precipitación	0
86096	7	Sololá	704	Santa Lucía Utatlán 	7	Santa Rita 	4	Abril	2023-05-04T00:00:00	2024-11-08T04:00:00	8	Radiación solar	0
86097	7	Sololá	704	Santa Lucía Utatlán 	7	Santa Rita 	4	Abril	2023-05-04T00:00:00	2024-11-08T05:00:00	2	Temperatura media	16.3
86098	7	Sololá	704	Santa Lucía Utatlán 	7	Santa Rita 	4	Abril	2023-05-04T00:00:00	2024-11-08T05:00:00	4	Temperatura máxima	16.8
86099	7	Sololá	704	Santa Lucía Utatlán 	7	Santa Rita 	4	Abril	2023-05-04T00:00:00	2024-11-08T05:00:00	3	Temperatura mínima	16.1
86100	7	Sololá	704	Santa Lucía Utatlán 	7	Santa Rita 	4	Abril	2023-05-04T00:00:00	2024-11-08T05:00:00	5	Humedad	62
86101	7	Sololá	704	Santa Lucía Utatlán 	7	Santa Rita 	4	Abril	2023-05-04T00:00:00	2024-11-08T05:00:00	6	Velocidad del viento	6.4
86102	7	Sololá	704	Santa Lucía Utatlán 	7	Santa Rita 	4	Abril	2023-05-04T00:00:00	2024-11-08T05:00:00	7	Dirección del viento	6.44
86103	7	Sololá	704	Santa Lucía Utatlán 	7	Santa Rita 	4	Abril	2023-05-04T00:00:00	2024-11-08T05:00:00	1	Precipitación	0
86104	7	Sololá	704	Santa Lucía Utatlán 	7	Santa Rita 	4	Abril	2023-05-04T00:00:00	2024-11-08T05:00:00	8	Radiación solar	0
86105	7	Sololá	704	Santa Lucía Utatlán 	7	Santa Rita 	4	Abril	2023-05-04T00:00:00	2024-11-08T06:00:00	2	Temperatura media	16.2
86106	7	Sololá	704	Santa Lucía Utatlán 	7	Santa Rita 	4	Abril	2023-05-04T00:00:00	2024-11-08T06:00:00	4	Temperatura máxima	16.5
86107	7	Sololá	704	Santa Lucía Utatlán 	7	Santa Rita 	4	Abril	2023-05-04T00:00:00	2024-11-08T06:00:00	3	Temperatura mínima	16
86108	7	Sololá	704	Santa Lucía Utatlán 	7	Santa Rita 	4	Abril	2023-05-04T00:00:00	2024-11-08T06:00:00	5	Humedad	60
86109	7	Sololá	704	Santa Lucía Utatlán 	7	Santa Rita 	4	Abril	2023-05-04T00:00:00	2024-11-08T06:00:00	6	Velocidad del viento	6.4
86110	7	Sololá	704	Santa Lucía Utatlán 	7	Santa Rita 	4	Abril	2023-05-04T00:00:00	2024-11-08T06:00:00	7	Dirección del viento	6.44
86111	7	Sololá	704	Santa Lucía Utatlán 	7	Santa Rita 	4	Abril	2023-05-04T00:00:00	2024-11-08T06:00:00	1	Precipitación	0
86112	7	Sololá	704	Santa Lucía Utatlán 	7	Santa Rita 	4	Abril	2023-05-04T00:00:00	2024-11-08T06:00:00	8	Radiación solar	0
86113	7	Sololá	704	Santa Lucía Utatlán 	7	Santa Rita 	4	Abril	2023-05-04T00:00:00	2024-11-08T07:00:00	2	Temperatura media	15.7
86114	7	Sololá	704	Santa Lucía Utatlán 	7	Santa Rita 	4	Abril	2023-05-04T00:00:00	2024-11-08T07:00:00	4	Temperatura máxima	16.3
86115	7	Sololá	704	Santa Lucía Utatlán 	7	Santa Rita 	4	Abril	2023-05-04T00:00:00	2024-11-08T07:00:00	3	Temperatura mínima	15.6
86116	7	Sololá	704	Santa Lucía Utatlán 	7	Santa Rita 	4	Abril	2023-05-04T00:00:00	2024-11-08T07:00:00	5	Humedad	59
86117	7	Sololá	704	Santa Lucía Utatlán 	7	Santa Rita 	4	Abril	2023-05-04T00:00:00	2024-11-08T07:00:00	6	Velocidad del viento	6.4
86118	7	Sololá	704	Santa Lucía Utatlán 	7	Santa Rita 	4	Abril	2023-05-04T00:00:00	2024-11-08T07:00:00	7	Dirección del viento	6.44
86119	7	Sololá	704	Santa Lucía Utatlán 	7	Santa Rita 	4	Abril	2023-05-04T00:00:00	2024-11-08T07:00:00	1	Precipitación	0
86120	7	Sololá	704	Santa Lucía Utatlán 	7	Santa Rita 	4	Abril	2023-05-04T00:00:00	2024-11-08T07:00:00	8	Radiación solar	0
86121	7	Sololá	704	Santa Lucía Utatlán 	7	Santa Rita 	4	Abril	2023-05-04T00:00:00	2024-11-08T08:00:00	2	Temperatura media	18.2
86122	7	Sololá	704	Santa Lucía Utatlán 	7	Santa Rita 	4	Abril	2023-05-04T00:00:00	2024-11-08T08:00:00	4	Temperatura máxima	18.2
86123	7	Sololá	704	Santa Lucía Utatlán 	7	Santa Rita 	4	Abril	2023-05-04T00:00:00	2024-11-08T08:00:00	3	Temperatura mínima	15.4
86124	7	Sololá	704	Santa Lucía Utatlán 	7	Santa Rita 	4	Abril	2023-05-04T00:00:00	2024-11-08T08:00:00	5	Humedad	59
86125	7	Sololá	704	Santa Lucía Utatlán 	7	Santa Rita 	4	Abril	2023-05-04T00:00:00	2024-11-08T08:00:00	6	Velocidad del viento	1.6
86126	7	Sololá	704	Santa Lucía Utatlán 	7	Santa Rita 	4	Abril	2023-05-04T00:00:00	2024-11-08T08:00:00	7	Dirección del viento	1.61
86127	7	Sololá	704	Santa Lucía Utatlán 	7	Santa Rita 	4	Abril	2023-05-04T00:00:00	2024-11-08T08:00:00	1	Precipitación	0
86128	7	Sololá	704	Santa Lucía Utatlán 	7	Santa Rita 	4	Abril	2023-05-04T00:00:00	2024-11-08T08:00:00	8	Radiación solar	86
86129	7	Sololá	704	Santa Lucía Utatlán 	7	Santa Rita 	4	Abril	2023-05-04T00:00:00	2024-11-08T09:00:00	2	Temperatura media	20.9
86130	7	Sololá	704	Santa Lucía Utatlán 	7	Santa Rita 	4	Abril	2023-05-04T00:00:00	2024-11-08T09:00:00	4	Temperatura máxima	20.9
86131	7	Sololá	704	Santa Lucía Utatlán 	7	Santa Rita 	4	Abril	2023-05-04T00:00:00	2024-11-08T09:00:00	3	Temperatura mínima	18.2
86132	7	Sololá	704	Santa Lucía Utatlán 	7	Santa Rita 	4	Abril	2023-05-04T00:00:00	2024-11-08T09:00:00	5	Humedad	53
86133	7	Sololá	704	Santa Lucía Utatlán 	7	Santa Rita 	4	Abril	2023-05-04T00:00:00	2024-11-08T09:00:00	6	Velocidad del viento	3.2
86134	7	Sololá	704	Santa Lucía Utatlán 	7	Santa Rita 	4	Abril	2023-05-04T00:00:00	2024-11-08T09:00:00	7	Dirección del viento	3.22
86135	7	Sololá	704	Santa Lucía Utatlán 	7	Santa Rita 	4	Abril	2023-05-04T00:00:00	2024-11-08T09:00:00	1	Precipitación	0
86136	7	Sololá	704	Santa Lucía Utatlán 	7	Santa Rita 	4	Abril	2023-05-04T00:00:00	2024-11-08T09:00:00	8	Radiación solar	376
86137	7	Sololá	704	Santa Lucía Utatlán 	7	Santa Rita 	4	Abril	2023-05-04T00:00:00	2024-11-08T10:00:00	2	Temperatura media	24
86138	7	Sololá	704	Santa Lucía Utatlán 	7	Santa Rita 	4	Abril	2023-05-04T00:00:00	2024-11-08T10:00:00	4	Temperatura máxima	24
86139	7	Sololá	704	Santa Lucía Utatlán 	7	Santa Rita 	4	Abril	2023-05-04T00:00:00	2024-11-08T10:00:00	3	Temperatura mínima	20.9
86140	7	Sololá	704	Santa Lucía Utatlán 	7	Santa Rita 	4	Abril	2023-05-04T00:00:00	2024-11-08T10:00:00	5	Humedad	38
86141	7	Sololá	704	Santa Lucía Utatlán 	7	Santa Rita 	4	Abril	2023-05-04T00:00:00	2024-11-08T10:00:00	6	Velocidad del viento	4.8
86142	7	Sololá	704	Santa Lucía Utatlán 	7	Santa Rita 	4	Abril	2023-05-04T00:00:00	2024-11-08T10:00:00	7	Dirección del viento	4.83
86143	7	Sololá	704	Santa Lucía Utatlán 	7	Santa Rita 	4	Abril	2023-05-04T00:00:00	2024-11-08T10:00:00	1	Precipitación	0
86144	7	Sololá	704	Santa Lucía Utatlán 	7	Santa Rita 	4	Abril	2023-05-04T00:00:00	2024-11-08T10:00:00	8	Radiación solar	621
86145	7	Sololá	704	Santa Lucía Utatlán 	7	Santa Rita 	4	Abril	2023-05-04T00:00:00	2024-11-08T11:00:00	2	Temperatura media	24.7
86146	7	Sololá	704	Santa Lucía Utatlán 	7	Santa Rita 	4	Abril	2023-05-04T00:00:00	2024-11-08T11:00:00	4	Temperatura máxima	24.9
86147	7	Sololá	704	Santa Lucía Utatlán 	7	Santa Rita 	4	Abril	2023-05-04T00:00:00	2024-11-08T11:00:00	3	Temperatura mínima	24
86148	7	Sololá	704	Santa Lucía Utatlán 	7	Santa Rita 	4	Abril	2023-05-04T00:00:00	2024-11-08T11:00:00	5	Humedad	59
86149	7	Sololá	704	Santa Lucía Utatlán 	7	Santa Rita 	4	Abril	2023-05-04T00:00:00	2024-11-08T11:00:00	6	Velocidad del viento	6.4
86150	7	Sololá	704	Santa Lucía Utatlán 	7	Santa Rita 	4	Abril	2023-05-04T00:00:00	2024-11-08T11:00:00	7	Dirección del viento	6.44
86151	7	Sololá	704	Santa Lucía Utatlán 	7	Santa Rita 	4	Abril	2023-05-04T00:00:00	2024-11-08T11:00:00	1	Precipitación	0
86152	7	Sololá	704	Santa Lucía Utatlán 	7	Santa Rita 	4	Abril	2023-05-04T00:00:00	2024-11-08T11:00:00	8	Radiación solar	815
86153	7	Sololá	704	Santa Lucía Utatlán 	7	Santa Rita 	4	Abril	2023-05-04T00:00:00	2024-11-08T12:00:00	2	Temperatura media	25.4
86154	7	Sololá	704	Santa Lucía Utatlán 	7	Santa Rita 	4	Abril	2023-05-04T00:00:00	2024-11-08T12:00:00	4	Temperatura máxima	25.4
86155	7	Sololá	704	Santa Lucía Utatlán 	7	Santa Rita 	4	Abril	2023-05-04T00:00:00	2024-11-08T12:00:00	3	Temperatura mínima	24.7
86156	7	Sololá	704	Santa Lucía Utatlán 	7	Santa Rita 	4	Abril	2023-05-04T00:00:00	2024-11-08T12:00:00	5	Humedad	55
86157	7	Sololá	704	Santa Lucía Utatlán 	7	Santa Rita 	4	Abril	2023-05-04T00:00:00	2024-11-08T12:00:00	6	Velocidad del viento	9.7
86158	7	Sololá	704	Santa Lucía Utatlán 	7	Santa Rita 	4	Abril	2023-05-04T00:00:00	2024-11-08T12:00:00	7	Dirección del viento	9.66
86159	7	Sololá	704	Santa Lucía Utatlán 	7	Santa Rita 	4	Abril	2023-05-04T00:00:00	2024-11-08T12:00:00	1	Precipitación	0
86160	7	Sololá	704	Santa Lucía Utatlán 	7	Santa Rita 	4	Abril	2023-05-04T00:00:00	2024-11-08T12:00:00	8	Radiación solar	948
86161	7	Sololá	704	Santa Lucía Utatlán 	7	Santa Rita 	4	Abril	2023-05-04T00:00:00	2024-11-08T13:00:00	2	Temperatura media	25.4
86162	7	Sololá	704	Santa Lucía Utatlán 	7	Santa Rita 	4	Abril	2023-05-04T00:00:00	2024-11-08T13:00:00	4	Temperatura máxima	25.9
86163	7	Sololá	704	Santa Lucía Utatlán 	7	Santa Rita 	4	Abril	2023-05-04T00:00:00	2024-11-08T13:00:00	3	Temperatura mínima	25.3
86164	7	Sololá	704	Santa Lucía Utatlán 	7	Santa Rita 	4	Abril	2023-05-04T00:00:00	2024-11-08T13:00:00	5	Humedad	56
86165	7	Sololá	704	Santa Lucía Utatlán 	7	Santa Rita 	4	Abril	2023-05-04T00:00:00	2024-11-08T13:00:00	6	Velocidad del viento	9.7
86166	7	Sololá	704	Santa Lucía Utatlán 	7	Santa Rita 	4	Abril	2023-05-04T00:00:00	2024-11-08T13:00:00	7	Dirección del viento	9.66
86167	7	Sololá	704	Santa Lucía Utatlán 	7	Santa Rita 	4	Abril	2023-05-04T00:00:00	2024-11-08T13:00:00	1	Precipitación	0
86168	7	Sololá	704	Santa Lucía Utatlán 	7	Santa Rita 	4	Abril	2023-05-04T00:00:00	2024-11-08T13:00:00	8	Radiación solar	1020
86169	7	Sololá	704	Santa Lucía Utatlán 	7	Santa Rita 	4	Abril	2023-05-04T00:00:00	2024-11-08T14:00:00	2	Temperatura media	26.3
86170	7	Sololá	704	Santa Lucía Utatlán 	7	Santa Rita 	4	Abril	2023-05-04T00:00:00	2024-11-08T14:00:00	4	Temperatura máxima	26.3
86171	7	Sololá	704	Santa Lucía Utatlán 	7	Santa Rita 	4	Abril	2023-05-04T00:00:00	2024-11-08T14:00:00	3	Temperatura mínima	25.4
86172	7	Sololá	704	Santa Lucía Utatlán 	7	Santa Rita 	4	Abril	2023-05-04T00:00:00	2024-11-08T14:00:00	5	Humedad	59
86173	7	Sololá	704	Santa Lucía Utatlán 	7	Santa Rita 	4	Abril	2023-05-04T00:00:00	2024-11-08T14:00:00	6	Velocidad del viento	8
86174	7	Sololá	704	Santa Lucía Utatlán 	7	Santa Rita 	4	Abril	2023-05-04T00:00:00	2024-11-08T14:00:00	7	Dirección del viento	8.05
86175	7	Sololá	704	Santa Lucía Utatlán 	7	Santa Rita 	4	Abril	2023-05-04T00:00:00	2024-11-08T14:00:00	1	Precipitación	0
86176	7	Sololá	704	Santa Lucía Utatlán 	7	Santa Rita 	4	Abril	2023-05-04T00:00:00	2024-11-08T14:00:00	8	Radiación solar	1018
86177	7	Sololá	704	Santa Lucía Utatlán 	7	Santa Rita 	4	Abril	2023-05-04T00:00:00	2024-11-08T15:00:00	2	Temperatura media	25.7
86178	7	Sololá	704	Santa Lucía Utatlán 	7	Santa Rita 	4	Abril	2023-05-04T00:00:00	2024-11-08T15:00:00	4	Temperatura máxima	26.4
86179	7	Sololá	704	Santa Lucía Utatlán 	7	Santa Rita 	4	Abril	2023-05-04T00:00:00	2024-11-08T15:00:00	3	Temperatura mínima	25.1
86180	7	Sololá	704	Santa Lucía Utatlán 	7	Santa Rita 	4	Abril	2023-05-04T00:00:00	2024-11-08T15:00:00	5	Humedad	63
86181	7	Sololá	704	Santa Lucía Utatlán 	7	Santa Rita 	4	Abril	2023-05-04T00:00:00	2024-11-08T15:00:00	6	Velocidad del viento	9.7
86182	7	Sololá	704	Santa Lucía Utatlán 	7	Santa Rita 	4	Abril	2023-05-04T00:00:00	2024-11-08T15:00:00	7	Dirección del viento	9.66
86183	7	Sololá	704	Santa Lucía Utatlán 	7	Santa Rita 	4	Abril	2023-05-04T00:00:00	2024-11-08T15:00:00	1	Precipitación	0
86184	7	Sololá	704	Santa Lucía Utatlán 	7	Santa Rita 	4	Abril	2023-05-04T00:00:00	2024-11-08T15:00:00	8	Radiación solar	936
86185	7	Sololá	704	Santa Lucía Utatlán 	7	Santa Rita 	4	Abril	2023-05-04T00:00:00	2024-11-08T16:00:00	2	Temperatura media	24.5
86186	7	Sololá	704	Santa Lucía Utatlán 	7	Santa Rita 	4	Abril	2023-05-04T00:00:00	2024-11-08T16:00:00	4	Temperatura máxima	26.1
86187	7	Sololá	704	Santa Lucía Utatlán 	7	Santa Rita 	4	Abril	2023-05-04T00:00:00	2024-11-08T16:00:00	3	Temperatura mínima	24.5
86188	7	Sololá	704	Santa Lucía Utatlán 	7	Santa Rita 	4	Abril	2023-05-04T00:00:00	2024-11-08T16:00:00	5	Humedad	70
86189	7	Sololá	704	Santa Lucía Utatlán 	7	Santa Rita 	4	Abril	2023-05-04T00:00:00	2024-11-08T16:00:00	6	Velocidad del viento	9.7
86190	7	Sololá	704	Santa Lucía Utatlán 	7	Santa Rita 	4	Abril	2023-05-04T00:00:00	2024-11-08T16:00:00	7	Dirección del viento	9.66
86191	7	Sololá	704	Santa Lucía Utatlán 	7	Santa Rita 	4	Abril	2023-05-04T00:00:00	2024-11-08T16:00:00	1	Precipitación	0
86192	7	Sololá	704	Santa Lucía Utatlán 	7	Santa Rita 	4	Abril	2023-05-04T00:00:00	2024-11-08T16:00:00	8	Radiación solar	744
86193	7	Sololá	704	Santa Lucía Utatlán 	7	Santa Rita 	4	Abril	2023-05-04T00:00:00	2024-11-08T17:00:00	2	Temperatura media	23.4
86194	7	Sololá	704	Santa Lucía Utatlán 	7	Santa Rita 	4	Abril	2023-05-04T00:00:00	2024-11-08T17:00:00	4	Temperatura máxima	24.7
86195	7	Sololá	704	Santa Lucía Utatlán 	7	Santa Rita 	4	Abril	2023-05-04T00:00:00	2024-11-08T17:00:00	3	Temperatura mínima	23.4
86196	7	Sololá	704	Santa Lucía Utatlán 	7	Santa Rita 	4	Abril	2023-05-04T00:00:00	2024-11-08T17:00:00	5	Humedad	76
86197	7	Sololá	704	Santa Lucía Utatlán 	7	Santa Rita 	4	Abril	2023-05-04T00:00:00	2024-11-08T17:00:00	6	Velocidad del viento	6.4
86198	7	Sololá	704	Santa Lucía Utatlán 	7	Santa Rita 	4	Abril	2023-05-04T00:00:00	2024-11-08T17:00:00	7	Dirección del viento	6.44
86199	7	Sololá	704	Santa Lucía Utatlán 	7	Santa Rita 	4	Abril	2023-05-04T00:00:00	2024-11-08T17:00:00	1	Precipitación	0
86200	7	Sololá	704	Santa Lucía Utatlán 	7	Santa Rita 	4	Abril	2023-05-04T00:00:00	2024-11-08T17:00:00	8	Radiación solar	248
86201	7	Sololá	704	Santa Lucía Utatlán 	7	Santa Rita 	4	Abril	2023-05-04T00:00:00	2024-11-08T18:00:00	2	Temperatura media	22.2
86202	7	Sololá	704	Santa Lucía Utatlán 	7	Santa Rita 	4	Abril	2023-05-04T00:00:00	2024-11-08T18:00:00	4	Temperatura máxima	23.6
86203	7	Sololá	704	Santa Lucía Utatlán 	7	Santa Rita 	4	Abril	2023-05-04T00:00:00	2024-11-08T18:00:00	3	Temperatura mínima	22.2
86204	7	Sololá	704	Santa Lucía Utatlán 	7	Santa Rita 	4	Abril	2023-05-04T00:00:00	2024-11-08T18:00:00	5	Humedad	83
86205	7	Sololá	704	Santa Lucía Utatlán 	7	Santa Rita 	4	Abril	2023-05-04T00:00:00	2024-11-08T18:00:00	6	Velocidad del viento	6.4
86206	7	Sololá	704	Santa Lucía Utatlán 	7	Santa Rita 	4	Abril	2023-05-04T00:00:00	2024-11-08T18:00:00	7	Dirección del viento	6.44
86207	7	Sololá	704	Santa Lucía Utatlán 	7	Santa Rita 	4	Abril	2023-05-04T00:00:00	2024-11-08T18:00:00	1	Precipitación	0
86208	7	Sololá	704	Santa Lucía Utatlán 	7	Santa Rita 	4	Abril	2023-05-04T00:00:00	2024-11-08T18:00:00	8	Radiación solar	114
86209	7	Sololá	704	Santa Lucía Utatlán 	7	Santa Rita 	4	Abril	2023-05-04T00:00:00	2024-11-08T19:00:00	2	Temperatura media	21.4
86210	7	Sololá	704	Santa Lucía Utatlán 	7	Santa Rita 	4	Abril	2023-05-04T00:00:00	2024-11-08T19:00:00	4	Temperatura máxima	22.3
86211	7	Sololá	704	Santa Lucía Utatlán 	7	Santa Rita 	4	Abril	2023-05-04T00:00:00	2024-11-08T19:00:00	3	Temperatura mínima	21.4
86212	7	Sololá	704	Santa Lucía Utatlán 	7	Santa Rita 	4	Abril	2023-05-04T00:00:00	2024-11-08T19:00:00	5	Humedad	87
86213	7	Sololá	704	Santa Lucía Utatlán 	7	Santa Rita 	4	Abril	2023-05-04T00:00:00	2024-11-08T19:00:00	6	Velocidad del viento	4.8
86214	7	Sololá	704	Santa Lucía Utatlán 	7	Santa Rita 	4	Abril	2023-05-04T00:00:00	2024-11-08T19:00:00	7	Dirección del viento	4.83
86215	7	Sololá	704	Santa Lucía Utatlán 	7	Santa Rita 	4	Abril	2023-05-04T00:00:00	2024-11-08T19:00:00	1	Precipitación	0
86216	7	Sololá	704	Santa Lucía Utatlán 	7	Santa Rita 	4	Abril	2023-05-04T00:00:00	2024-11-08T19:00:00	8	Radiación solar	0
86217	7	Sololá	704	Santa Lucía Utatlán 	7	Santa Rita 	4	Abril	2023-05-04T00:00:00	2024-11-08T20:00:00	2	Temperatura media	20.7
86218	7	Sololá	704	Santa Lucía Utatlán 	7	Santa Rita 	4	Abril	2023-05-04T00:00:00	2024-11-08T20:00:00	4	Temperatura máxima	21.4
86219	7	Sololá	704	Santa Lucía Utatlán 	7	Santa Rita 	4	Abril	2023-05-04T00:00:00	2024-11-08T20:00:00	3	Temperatura mínima	20.7
86220	7	Sololá	704	Santa Lucía Utatlán 	7	Santa Rita 	4	Abril	2023-05-04T00:00:00	2024-11-08T20:00:00	5	Humedad	90
86221	7	Sololá	704	Santa Lucía Utatlán 	7	Santa Rita 	4	Abril	2023-05-04T00:00:00	2024-11-08T20:00:00	6	Velocidad del viento	3.2
86222	7	Sololá	704	Santa Lucía Utatlán 	7	Santa Rita 	4	Abril	2023-05-04T00:00:00	2024-11-08T20:00:00	7	Dirección del viento	3.22
86223	7	Sololá	704	Santa Lucía Utatlán 	7	Santa Rita 	4	Abril	2023-05-04T00:00:00	2024-11-08T20:00:00	1	Precipitación	0
86224	7	Sololá	704	Santa Lucía Utatlán 	7	Santa Rita 	4	Abril	2023-05-04T00:00:00	2024-11-08T20:00:00	8	Radiación solar	0
86225	7	Sololá	704	Santa Lucía Utatlán 	7	Santa Rita 	4	Abril	2023-05-04T00:00:00	2024-11-08T21:00:00	2	Temperatura media	20.3
86226	7	Sololá	704	Santa Lucía Utatlán 	7	Santa Rita 	4	Abril	2023-05-04T00:00:00	2024-11-08T21:00:00	4	Temperatura máxima	20.8
86227	7	Sololá	704	Santa Lucía Utatlán 	7	Santa Rita 	4	Abril	2023-05-04T00:00:00	2024-11-08T21:00:00	3	Temperatura mínima	20.3
86228	7	Sololá	704	Santa Lucía Utatlán 	7	Santa Rita 	4	Abril	2023-05-04T00:00:00	2024-11-08T21:00:00	5	Humedad	90
86229	7	Sololá	704	Santa Lucía Utatlán 	7	Santa Rita 	4	Abril	2023-05-04T00:00:00	2024-11-08T21:00:00	6	Velocidad del viento	1.6
86230	7	Sololá	704	Santa Lucía Utatlán 	7	Santa Rita 	4	Abril	2023-05-04T00:00:00	2024-11-08T21:00:00	7	Dirección del viento	1.61
86231	7	Sololá	704	Santa Lucía Utatlán 	7	Santa Rita 	4	Abril	2023-05-04T00:00:00	2024-11-08T21:00:00	1	Precipitación	0
86232	7	Sololá	704	Santa Lucía Utatlán 	7	Santa Rita 	4	Abril	2023-05-04T00:00:00	2024-11-08T21:00:00	8	Radiación solar	0
86233	7	Sololá	704	Santa Lucía Utatlán 	7	Santa Rita 	4	Abril	2023-05-04T00:00:00	2024-11-08T22:00:00	2	Temperatura media	19.3
86234	7	Sololá	704	Santa Lucía Utatlán 	7	Santa Rita 	4	Abril	2023-05-04T00:00:00	2024-11-08T22:00:00	4	Temperatura máxima	20.3
86235	7	Sololá	704	Santa Lucía Utatlán 	7	Santa Rita 	4	Abril	2023-05-04T00:00:00	2024-11-08T22:00:00	3	Temperatura mínima	19
86236	7	Sololá	704	Santa Lucía Utatlán 	7	Santa Rita 	4	Abril	2023-05-04T00:00:00	2024-11-08T22:00:00	5	Humedad	89
86237	7	Sololá	704	Santa Lucía Utatlán 	7	Santa Rita 	4	Abril	2023-05-04T00:00:00	2024-11-08T22:00:00	6	Velocidad del viento	1.6
86238	7	Sololá	704	Santa Lucía Utatlán 	7	Santa Rita 	4	Abril	2023-05-04T00:00:00	2024-11-08T22:00:00	7	Dirección del viento	1.61
86239	7	Sololá	704	Santa Lucía Utatlán 	7	Santa Rita 	4	Abril	2023-05-04T00:00:00	2024-11-08T22:00:00	1	Precipitación	0
86240	7	Sololá	704	Santa Lucía Utatlán 	7	Santa Rita 	4	Abril	2023-05-04T00:00:00	2024-11-08T22:00:00	8	Radiación solar	0
86241	7	Sololá	704	Santa Lucía Utatlán 	7	Santa Rita 	4	Abril	2023-05-04T00:00:00	2024-11-08T23:00:00	2	Temperatura media	18.2
86242	7	Sololá	704	Santa Lucía Utatlán 	7	Santa Rita 	4	Abril	2023-05-04T00:00:00	2024-11-08T23:00:00	4	Temperatura máxima	19.3
86243	7	Sololá	704	Santa Lucía Utatlán 	7	Santa Rita 	4	Abril	2023-05-04T00:00:00	2024-11-08T23:00:00	3	Temperatura mínima	18.2
86244	7	Sololá	704	Santa Lucía Utatlán 	7	Santa Rita 	4	Abril	2023-05-04T00:00:00	2024-11-08T23:00:00	5	Humedad	87
86245	7	Sololá	704	Santa Lucía Utatlán 	7	Santa Rita 	4	Abril	2023-05-04T00:00:00	2024-11-08T23:00:00	6	Velocidad del viento	1.6
86246	7	Sololá	704	Santa Lucía Utatlán 	7	Santa Rita 	4	Abril	2023-05-04T00:00:00	2024-11-08T23:00:00	7	Dirección del viento	1.61
86247	7	Sololá	704	Santa Lucía Utatlán 	7	Santa Rita 	4	Abril	2023-05-04T00:00:00	2024-11-08T23:00:00	1	Precipitación	0
86248	7	Sololá	704	Santa Lucía Utatlán 	7	Santa Rita 	4	Abril	2023-05-04T00:00:00	2024-11-08T23:00:00	8	Radiación solar	0
86249	7	Sololá	704	Santa Lucía Utatlán 	7	Santa Rita 	4	Abril	2023-06-04T00:00:00	2024-11-08T00:00:00	2	Temperatura media	17.4
86250	7	Sololá	704	Santa Lucía Utatlán 	7	Santa Rita 	4	Abril	2023-06-04T00:00:00	2024-11-08T00:00:00	4	Temperatura máxima	18.2
86251	7	Sololá	704	Santa Lucía Utatlán 	7	Santa Rita 	4	Abril	2023-06-04T00:00:00	2024-11-08T00:00:00	3	Temperatura mínima	17.4
86252	7	Sololá	704	Santa Lucía Utatlán 	7	Santa Rita 	4	Abril	2023-06-04T00:00:00	2024-11-08T00:00:00	5	Humedad	87
86253	7	Sololá	704	Santa Lucía Utatlán 	7	Santa Rita 	4	Abril	2023-06-04T00:00:00	2024-11-08T00:00:00	6	Velocidad del viento	3.2
86254	7	Sololá	704	Santa Lucía Utatlán 	7	Santa Rita 	4	Abril	2023-06-04T00:00:00	2024-11-08T00:00:00	7	Dirección del viento	3.22
86255	7	Sololá	704	Santa Lucía Utatlán 	7	Santa Rita 	4	Abril	2023-06-04T00:00:00	2024-11-08T00:00:00	1	Precipitación	0
86256	7	Sololá	704	Santa Lucía Utatlán 	7	Santa Rita 	4	Abril	2023-06-04T00:00:00	2024-11-08T00:00:00	8	Radiación solar	0
86257	7	Sololá	704	Santa Lucía Utatlán 	7	Santa Rita 	4	Abril	2023-06-04T00:00:00	2024-11-08T01:00:00	2	Temperatura media	17.5
86258	7	Sololá	704	Santa Lucía Utatlán 	7	Santa Rita 	4	Abril	2023-06-04T00:00:00	2024-11-08T01:00:00	4	Temperatura máxima	17.7
86259	7	Sololá	704	Santa Lucía Utatlán 	7	Santa Rita 	4	Abril	2023-06-04T00:00:00	2024-11-08T01:00:00	3	Temperatura mínima	17.4
86260	7	Sololá	704	Santa Lucía Utatlán 	7	Santa Rita 	4	Abril	2023-06-04T00:00:00	2024-11-08T01:00:00	5	Humedad	89
86261	7	Sololá	704	Santa Lucía Utatlán 	7	Santa Rita 	4	Abril	2023-06-04T00:00:00	2024-11-08T01:00:00	6	Velocidad del viento	3.2
86262	7	Sololá	704	Santa Lucía Utatlán 	7	Santa Rita 	4	Abril	2023-06-04T00:00:00	2024-11-08T01:00:00	7	Dirección del viento	3.22
86263	7	Sololá	704	Santa Lucía Utatlán 	7	Santa Rita 	4	Abril	2023-06-04T00:00:00	2024-11-08T01:00:00	1	Precipitación	0
86264	7	Sololá	704	Santa Lucía Utatlán 	7	Santa Rita 	4	Abril	2023-06-04T00:00:00	2024-11-08T01:00:00	8	Radiación solar	0
86265	7	Sololá	704	Santa Lucía Utatlán 	7	Santa Rita 	4	Abril	2023-06-04T00:00:00	2024-11-08T02:00:00	2	Temperatura media	17.4
86266	7	Sololá	704	Santa Lucía Utatlán 	7	Santa Rita 	4	Abril	2023-06-04T00:00:00	2024-11-08T02:00:00	4	Temperatura máxima	17.5
86267	7	Sololá	704	Santa Lucía Utatlán 	7	Santa Rita 	4	Abril	2023-06-04T00:00:00	2024-11-08T02:00:00	3	Temperatura mínima	16.9
86268	7	Sololá	704	Santa Lucía Utatlán 	7	Santa Rita 	4	Abril	2023-06-04T00:00:00	2024-11-08T02:00:00	5	Humedad	92
86269	7	Sololá	704	Santa Lucía Utatlán 	7	Santa Rita 	4	Abril	2023-06-04T00:00:00	2024-11-08T02:00:00	6	Velocidad del viento	1.6
86270	7	Sololá	704	Santa Lucía Utatlán 	7	Santa Rita 	4	Abril	2023-06-04T00:00:00	2024-11-08T02:00:00	7	Dirección del viento	1.61
86271	7	Sololá	704	Santa Lucía Utatlán 	7	Santa Rita 	4	Abril	2023-06-04T00:00:00	2024-11-08T02:00:00	1	Precipitación	0
86272	7	Sololá	704	Santa Lucía Utatlán 	7	Santa Rita 	4	Abril	2023-06-04T00:00:00	2024-11-08T02:00:00	8	Radiación solar	0
86273	7	Sololá	704	Santa Lucía Utatlán 	7	Santa Rita 	4	Abril	2023-06-04T00:00:00	2024-11-08T03:00:00	2	Temperatura media	18.1
86274	7	Sololá	704	Santa Lucía Utatlán 	7	Santa Rita 	4	Abril	2023-06-04T00:00:00	2024-11-08T03:00:00	4	Temperatura máxima	18.1
86275	7	Sololá	704	Santa Lucía Utatlán 	7	Santa Rita 	4	Abril	2023-06-04T00:00:00	2024-11-08T03:00:00	3	Temperatura mínima	17.4
86276	7	Sololá	704	Santa Lucía Utatlán 	7	Santa Rita 	4	Abril	2023-06-04T00:00:00	2024-11-08T03:00:00	5	Humedad	89
86277	7	Sololá	704	Santa Lucía Utatlán 	7	Santa Rita 	4	Abril	2023-06-04T00:00:00	2024-11-08T03:00:00	6	Velocidad del viento	0
86278	7	Sololá	704	Santa Lucía Utatlán 	7	Santa Rita 	4	Abril	2023-06-04T00:00:00	2024-11-08T03:00:00	7	Dirección del viento	0
86279	7	Sololá	704	Santa Lucía Utatlán 	7	Santa Rita 	4	Abril	2023-06-04T00:00:00	2024-11-08T03:00:00	1	Precipitación	0
86280	7	Sololá	704	Santa Lucía Utatlán 	7	Santa Rita 	4	Abril	2023-06-04T00:00:00	2024-11-08T03:00:00	8	Radiación solar	0
86281	7	Sololá	704	Santa Lucía Utatlán 	7	Santa Rita 	4	Abril	2023-06-04T00:00:00	2024-11-08T04:00:00	2	Temperatura media	16.8
86282	7	Sololá	704	Santa Lucía Utatlán 	7	Santa Rita 	4	Abril	2023-06-04T00:00:00	2024-11-08T04:00:00	4	Temperatura máxima	18.1
86283	7	Sololá	704	Santa Lucía Utatlán 	7	Santa Rita 	4	Abril	2023-06-04T00:00:00	2024-11-08T04:00:00	3	Temperatura mínima	16.8
86284	7	Sololá	704	Santa Lucía Utatlán 	7	Santa Rita 	4	Abril	2023-06-04T00:00:00	2024-11-08T04:00:00	5	Humedad	85
86285	7	Sololá	704	Santa Lucía Utatlán 	7	Santa Rita 	4	Abril	2023-06-04T00:00:00	2024-11-08T04:00:00	6	Velocidad del viento	1.6
86286	7	Sololá	704	Santa Lucía Utatlán 	7	Santa Rita 	4	Abril	2023-06-04T00:00:00	2024-11-08T04:00:00	7	Dirección del viento	1.61
86287	7	Sololá	704	Santa Lucía Utatlán 	7	Santa Rita 	4	Abril	2023-06-04T00:00:00	2024-11-08T04:00:00	1	Precipitación	0
86288	7	Sololá	704	Santa Lucía Utatlán 	7	Santa Rita 	4	Abril	2023-06-04T00:00:00	2024-11-08T04:00:00	8	Radiación solar	0
86289	7	Sololá	704	Santa Lucía Utatlán 	7	Santa Rita 	4	Abril	2023-06-04T00:00:00	2024-11-08T05:00:00	2	Temperatura media	16.9
86290	7	Sololá	704	Santa Lucía Utatlán 	7	Santa Rita 	4	Abril	2023-06-04T00:00:00	2024-11-08T05:00:00	4	Temperatura máxima	17.2
86291	7	Sololá	704	Santa Lucía Utatlán 	7	Santa Rita 	4	Abril	2023-06-04T00:00:00	2024-11-08T05:00:00	3	Temperatura mínima	16.3
86292	7	Sololá	704	Santa Lucía Utatlán 	7	Santa Rita 	4	Abril	2023-06-04T00:00:00	2024-11-08T05:00:00	5	Humedad	86
86293	7	Sololá	704	Santa Lucía Utatlán 	7	Santa Rita 	4	Abril	2023-06-04T00:00:00	2024-11-08T05:00:00	6	Velocidad del viento	3.2
86294	7	Sololá	704	Santa Lucía Utatlán 	7	Santa Rita 	4	Abril	2023-06-04T00:00:00	2024-11-08T05:00:00	7	Dirección del viento	3.22
86295	7	Sololá	704	Santa Lucía Utatlán 	7	Santa Rita 	4	Abril	2023-06-04T00:00:00	2024-11-08T05:00:00	1	Precipitación	0
86296	7	Sololá	704	Santa Lucía Utatlán 	7	Santa Rita 	4	Abril	2023-06-04T00:00:00	2024-11-08T05:00:00	8	Radiación solar	0
86297	7	Sololá	704	Santa Lucía Utatlán 	7	Santa Rita 	4	Abril	2023-06-04T00:00:00	2024-11-08T06:00:00	2	Temperatura media	16.9
86298	7	Sololá	704	Santa Lucía Utatlán 	7	Santa Rita 	4	Abril	2023-06-04T00:00:00	2024-11-08T06:00:00	4	Temperatura máxima	16.9
86299	7	Sololá	704	Santa Lucía Utatlán 	7	Santa Rita 	4	Abril	2023-06-04T00:00:00	2024-11-08T06:00:00	3	Temperatura mínima	16.6
86300	7	Sololá	704	Santa Lucía Utatlán 	7	Santa Rita 	4	Abril	2023-06-04T00:00:00	2024-11-08T06:00:00	5	Humedad	86
86301	7	Sololá	704	Santa Lucía Utatlán 	7	Santa Rita 	4	Abril	2023-06-04T00:00:00	2024-11-08T06:00:00	6	Velocidad del viento	1.6
86302	7	Sololá	704	Santa Lucía Utatlán 	7	Santa Rita 	4	Abril	2023-06-04T00:00:00	2024-11-08T06:00:00	7	Dirección del viento	1.61
86303	7	Sololá	704	Santa Lucía Utatlán 	7	Santa Rita 	4	Abril	2023-06-04T00:00:00	2024-11-08T06:00:00	1	Precipitación	0
86304	7	Sololá	704	Santa Lucía Utatlán 	7	Santa Rita 	4	Abril	2023-06-04T00:00:00	2024-11-08T06:00:00	8	Radiación solar	0
86305	7	Sololá	704	Santa Lucía Utatlán 	7	Santa Rita 	4	Abril	2023-06-04T00:00:00	2024-11-08T07:00:00	2	Temperatura media	16.6
86306	7	Sololá	704	Santa Lucía Utatlán 	7	Santa Rita 	4	Abril	2023-06-04T00:00:00	2024-11-08T07:00:00	4	Temperatura máxima	16.9
86307	7	Sololá	704	Santa Lucía Utatlán 	7	Santa Rita 	4	Abril	2023-06-04T00:00:00	2024-11-08T07:00:00	3	Temperatura mínima	16.6
86308	7	Sololá	704	Santa Lucía Utatlán 	7	Santa Rita 	4	Abril	2023-06-04T00:00:00	2024-11-08T07:00:00	5	Humedad	82
86309	7	Sololá	704	Santa Lucía Utatlán 	7	Santa Rita 	4	Abril	2023-06-04T00:00:00	2024-11-08T07:00:00	6	Velocidad del viento	4.8
86310	7	Sololá	704	Santa Lucía Utatlán 	7	Santa Rita 	4	Abril	2023-06-04T00:00:00	2024-11-08T07:00:00	7	Dirección del viento	4.83
86311	7	Sololá	704	Santa Lucía Utatlán 	7	Santa Rita 	4	Abril	2023-06-04T00:00:00	2024-11-08T07:00:00	1	Precipitación	0
86312	7	Sololá	704	Santa Lucía Utatlán 	7	Santa Rita 	4	Abril	2023-06-04T00:00:00	2024-11-08T07:00:00	8	Radiación solar	0
86313	7	Sololá	704	Santa Lucía Utatlán 	7	Santa Rita 	4	Abril	2023-06-04T00:00:00	2024-11-08T08:00:00	2	Temperatura media	17.3
86314	7	Sololá	704	Santa Lucía Utatlán 	7	Santa Rita 	4	Abril	2023-06-04T00:00:00	2024-11-08T08:00:00	4	Temperatura máxima	17.3
86315	7	Sololá	704	Santa Lucía Utatlán 	7	Santa Rita 	4	Abril	2023-06-04T00:00:00	2024-11-08T08:00:00	3	Temperatura mínima	15.7
86316	7	Sololá	704	Santa Lucía Utatlán 	7	Santa Rita 	4	Abril	2023-06-04T00:00:00	2024-11-08T08:00:00	5	Humedad	85
86317	7	Sololá	704	Santa Lucía Utatlán 	7	Santa Rita 	4	Abril	2023-06-04T00:00:00	2024-11-08T08:00:00	6	Velocidad del viento	3.2
86318	7	Sololá	704	Santa Lucía Utatlán 	7	Santa Rita 	4	Abril	2023-06-04T00:00:00	2024-11-08T08:00:00	7	Dirección del viento	3.22
86319	7	Sololá	704	Santa Lucía Utatlán 	7	Santa Rita 	4	Abril	2023-06-04T00:00:00	2024-11-08T08:00:00	1	Precipitación	0
86320	7	Sololá	704	Santa Lucía Utatlán 	7	Santa Rita 	4	Abril	2023-06-04T00:00:00	2024-11-08T08:00:00	8	Radiación solar	45
86321	7	Sololá	704	Santa Lucía Utatlán 	7	Santa Rita 	4	Abril	2023-06-04T00:00:00	2024-11-08T09:00:00	2	Temperatura media	19.6
86322	7	Sololá	704	Santa Lucía Utatlán 	7	Santa Rita 	4	Abril	2023-06-04T00:00:00	2024-11-08T09:00:00	4	Temperatura máxima	19.6
86323	7	Sololá	704	Santa Lucía Utatlán 	7	Santa Rita 	4	Abril	2023-06-04T00:00:00	2024-11-08T09:00:00	3	Temperatura mínima	17.2
86324	7	Sololá	704	Santa Lucía Utatlán 	7	Santa Rita 	4	Abril	2023-06-04T00:00:00	2024-11-08T09:00:00	5	Humedad	77
86325	7	Sololá	704	Santa Lucía Utatlán 	7	Santa Rita 	4	Abril	2023-06-04T00:00:00	2024-11-08T09:00:00	6	Velocidad del viento	1.6
86326	7	Sololá	704	Santa Lucía Utatlán 	7	Santa Rita 	4	Abril	2023-06-04T00:00:00	2024-11-08T09:00:00	7	Dirección del viento	1.61
86327	7	Sololá	704	Santa Lucía Utatlán 	7	Santa Rita 	4	Abril	2023-06-04T00:00:00	2024-11-08T09:00:00	1	Precipitación	0
86328	7	Sololá	704	Santa Lucía Utatlán 	7	Santa Rita 	4	Abril	2023-06-04T00:00:00	2024-11-08T09:00:00	8	Radiación solar	165
86329	7	Sololá	704	Santa Lucía Utatlán 	7	Santa Rita 	4	Abril	2023-06-04T00:00:00	2024-11-08T10:00:00	2	Temperatura media	22.8
86330	7	Sololá	704	Santa Lucía Utatlán 	7	Santa Rita 	4	Abril	2023-06-04T00:00:00	2024-11-08T10:00:00	4	Temperatura máxima	22.8
86331	7	Sololá	704	Santa Lucía Utatlán 	7	Santa Rita 	4	Abril	2023-06-04T00:00:00	2024-11-08T10:00:00	3	Temperatura mínima	19.6
86332	7	Sololá	704	Santa Lucía Utatlán 	7	Santa Rita 	4	Abril	2023-06-04T00:00:00	2024-11-08T10:00:00	5	Humedad	65
86333	7	Sololá	704	Santa Lucía Utatlán 	7	Santa Rita 	4	Abril	2023-06-04T00:00:00	2024-11-08T10:00:00	6	Velocidad del viento	6.4
86334	7	Sololá	704	Santa Lucía Utatlán 	7	Santa Rita 	4	Abril	2023-06-04T00:00:00	2024-11-08T10:00:00	7	Dirección del viento	6.44
86335	7	Sololá	704	Santa Lucía Utatlán 	7	Santa Rita 	4	Abril	2023-06-04T00:00:00	2024-11-08T10:00:00	1	Precipitación	0
86336	7	Sololá	704	Santa Lucía Utatlán 	7	Santa Rita 	4	Abril	2023-06-04T00:00:00	2024-11-08T10:00:00	8	Radiación solar	589
86337	7	Sololá	704	Santa Lucía Utatlán 	7	Santa Rita 	4	Abril	2023-06-04T00:00:00	2024-11-08T11:00:00	2	Temperatura media	24.4
86338	7	Sololá	704	Santa Lucía Utatlán 	7	Santa Rita 	4	Abril	2023-06-04T00:00:00	2024-11-08T11:00:00	4	Temperatura máxima	24.4
86339	7	Sololá	704	Santa Lucía Utatlán 	7	Santa Rita 	4	Abril	2023-06-04T00:00:00	2024-11-08T11:00:00	3	Temperatura mínima	22.6
86340	7	Sololá	704	Santa Lucía Utatlán 	7	Santa Rita 	4	Abril	2023-06-04T00:00:00	2024-11-08T11:00:00	5	Humedad	63
86341	7	Sololá	704	Santa Lucía Utatlán 	7	Santa Rita 	4	Abril	2023-06-04T00:00:00	2024-11-08T11:00:00	6	Velocidad del viento	6.4
86342	7	Sololá	704	Santa Lucía Utatlán 	7	Santa Rita 	4	Abril	2023-06-04T00:00:00	2024-11-08T11:00:00	7	Dirección del viento	6.44
86343	7	Sololá	704	Santa Lucía Utatlán 	7	Santa Rita 	4	Abril	2023-06-04T00:00:00	2024-11-08T11:00:00	1	Precipitación	0
86344	7	Sololá	704	Santa Lucía Utatlán 	7	Santa Rita 	4	Abril	2023-06-04T00:00:00	2024-11-08T11:00:00	8	Radiación solar	792
86345	7	Sololá	704	Santa Lucía Utatlán 	7	Santa Rita 	4	Abril	2023-06-04T00:00:00	2024-11-08T12:00:00	2	Temperatura media	25.1
86346	7	Sololá	704	Santa Lucía Utatlán 	7	Santa Rita 	4	Abril	2023-06-04T00:00:00	2024-11-08T12:00:00	4	Temperatura máxima	25.2
86347	7	Sololá	704	Santa Lucía Utatlán 	7	Santa Rita 	4	Abril	2023-06-04T00:00:00	2024-11-08T12:00:00	3	Temperatura mínima	23.6
86348	7	Sololá	704	Santa Lucía Utatlán 	7	Santa Rita 	4	Abril	2023-06-04T00:00:00	2024-11-08T12:00:00	5	Humedad	66
86349	7	Sololá	704	Santa Lucía Utatlán 	7	Santa Rita 	4	Abril	2023-06-04T00:00:00	2024-11-08T12:00:00	6	Velocidad del viento	8
86350	7	Sololá	704	Santa Lucía Utatlán 	7	Santa Rita 	4	Abril	2023-06-04T00:00:00	2024-11-08T12:00:00	7	Dirección del viento	8.05
86351	7	Sololá	704	Santa Lucía Utatlán 	7	Santa Rita 	4	Abril	2023-06-04T00:00:00	2024-11-08T12:00:00	1	Precipitación	0
86352	7	Sololá	704	Santa Lucía Utatlán 	7	Santa Rita 	4	Abril	2023-06-04T00:00:00	2024-11-08T12:00:00	8	Radiación solar	935
86353	7	Sololá	704	Santa Lucía Utatlán 	7	Santa Rita 	4	Abril	2023-06-04T00:00:00	2024-11-08T13:00:00	2	Temperatura media	24.7
86354	7	Sololá	704	Santa Lucía Utatlán 	7	Santa Rita 	4	Abril	2023-06-04T00:00:00	2024-11-08T13:00:00	4	Temperatura máxima	25.2
86355	7	Sololá	704	Santa Lucía Utatlán 	7	Santa Rita 	4	Abril	2023-06-04T00:00:00	2024-11-08T13:00:00	3	Temperatura mínima	24.2
86356	7	Sololá	704	Santa Lucía Utatlán 	7	Santa Rita 	4	Abril	2023-06-04T00:00:00	2024-11-08T13:00:00	5	Humedad	67
86357	7	Sololá	704	Santa Lucía Utatlán 	7	Santa Rita 	4	Abril	2023-06-04T00:00:00	2024-11-08T13:00:00	6	Velocidad del viento	9.7
86358	7	Sololá	704	Santa Lucía Utatlán 	7	Santa Rita 	4	Abril	2023-06-04T00:00:00	2024-11-08T13:00:00	7	Dirección del viento	9.66
86359	7	Sololá	704	Santa Lucía Utatlán 	7	Santa Rita 	4	Abril	2023-06-04T00:00:00	2024-11-08T13:00:00	1	Precipitación	0
86360	7	Sololá	704	Santa Lucía Utatlán 	7	Santa Rita 	4	Abril	2023-06-04T00:00:00	2024-11-08T13:00:00	8	Radiación solar	669
86361	7	Sololá	704	Santa Lucía Utatlán 	7	Santa Rita 	4	Abril	2023-06-04T00:00:00	2024-11-08T14:00:00	2	Temperatura media	23.7
86362	7	Sololá	704	Santa Lucía Utatlán 	7	Santa Rita 	4	Abril	2023-06-04T00:00:00	2024-11-08T14:00:00	4	Temperatura máxima	24.9
86363	7	Sololá	704	Santa Lucía Utatlán 	7	Santa Rita 	4	Abril	2023-06-04T00:00:00	2024-11-08T14:00:00	3	Temperatura mínima	23.7
86364	7	Sololá	704	Santa Lucía Utatlán 	7	Santa Rita 	4	Abril	2023-06-04T00:00:00	2024-11-08T14:00:00	5	Humedad	73
86365	7	Sololá	704	Santa Lucía Utatlán 	7	Santa Rita 	4	Abril	2023-06-04T00:00:00	2024-11-08T14:00:00	6	Velocidad del viento	11.3
86366	7	Sololá	704	Santa Lucía Utatlán 	7	Santa Rita 	4	Abril	2023-06-04T00:00:00	2024-11-08T14:00:00	7	Dirección del viento	11.27
86367	7	Sololá	704	Santa Lucía Utatlán 	7	Santa Rita 	4	Abril	2023-06-04T00:00:00	2024-11-08T14:00:00	1	Precipitación	0
86368	7	Sololá	704	Santa Lucía Utatlán 	7	Santa Rita 	4	Abril	2023-06-04T00:00:00	2024-11-08T14:00:00	8	Radiación solar	618
86369	7	Sololá	704	Santa Lucía Utatlán 	7	Santa Rita 	4	Abril	2023-06-04T00:00:00	2024-11-08T15:00:00	2	Temperatura media	23.9
86370	7	Sololá	704	Santa Lucía Utatlán 	7	Santa Rita 	4	Abril	2023-06-04T00:00:00	2024-11-08T15:00:00	4	Temperatura máxima	24.2
86371	7	Sololá	704	Santa Lucía Utatlán 	7	Santa Rita 	4	Abril	2023-06-04T00:00:00	2024-11-08T15:00:00	3	Temperatura mínima	23.6
86372	7	Sololá	704	Santa Lucía Utatlán 	7	Santa Rita 	4	Abril	2023-06-04T00:00:00	2024-11-08T15:00:00	5	Humedad	73
86373	7	Sololá	704	Santa Lucía Utatlán 	7	Santa Rita 	4	Abril	2023-06-04T00:00:00	2024-11-08T15:00:00	6	Velocidad del viento	9.7
86374	7	Sololá	704	Santa Lucía Utatlán 	7	Santa Rita 	4	Abril	2023-06-04T00:00:00	2024-11-08T15:00:00	7	Dirección del viento	9.66
86375	7	Sololá	704	Santa Lucía Utatlán 	7	Santa Rita 	4	Abril	2023-06-04T00:00:00	2024-11-08T15:00:00	1	Precipitación	0
86376	7	Sololá	704	Santa Lucía Utatlán 	7	Santa Rita 	4	Abril	2023-06-04T00:00:00	2024-11-08T15:00:00	8	Radiación solar	708
86377	7	Sololá	704	Santa Lucía Utatlán 	7	Santa Rita 	4	Abril	2023-06-04T00:00:00	2024-11-08T16:00:00	2	Temperatura media	23.6
86378	7	Sololá	704	Santa Lucía Utatlán 	7	Santa Rita 	4	Abril	2023-06-04T00:00:00	2024-11-08T16:00:00	4	Temperatura máxima	24.1
86379	7	Sololá	704	Santa Lucía Utatlán 	7	Santa Rita 	4	Abril	2023-06-04T00:00:00	2024-11-08T16:00:00	3	Temperatura mínima	23.4
86380	7	Sololá	704	Santa Lucía Utatlán 	7	Santa Rita 	4	Abril	2023-06-04T00:00:00	2024-11-08T16:00:00	5	Humedad	76
86381	7	Sololá	704	Santa Lucía Utatlán 	7	Santa Rita 	4	Abril	2023-06-04T00:00:00	2024-11-08T16:00:00	6	Velocidad del viento	9.7
86382	7	Sololá	704	Santa Lucía Utatlán 	7	Santa Rita 	4	Abril	2023-06-04T00:00:00	2024-11-08T16:00:00	7	Dirección del viento	9.66
86383	7	Sololá	704	Santa Lucía Utatlán 	7	Santa Rita 	4	Abril	2023-06-04T00:00:00	2024-11-08T16:00:00	1	Precipitación	0
86384	7	Sololá	704	Santa Lucía Utatlán 	7	Santa Rita 	4	Abril	2023-06-04T00:00:00	2024-11-08T16:00:00	8	Radiación solar	474
86385	7	Sololá	704	Santa Lucía Utatlán 	7	Santa Rita 	4	Abril	2023-06-04T00:00:00	2024-11-08T17:00:00	2	Temperatura media	23.4
86386	7	Sololá	704	Santa Lucía Utatlán 	7	Santa Rita 	4	Abril	2023-06-04T00:00:00	2024-11-08T17:00:00	4	Temperatura máxima	24
86387	7	Sololá	704	Santa Lucía Utatlán 	7	Santa Rita 	4	Abril	2023-06-04T00:00:00	2024-11-08T17:00:00	3	Temperatura mínima	23.3
86388	7	Sololá	704	Santa Lucía Utatlán 	7	Santa Rita 	4	Abril	2023-06-04T00:00:00	2024-11-08T17:00:00	5	Humedad	76
86389	7	Sololá	704	Santa Lucía Utatlán 	7	Santa Rita 	4	Abril	2023-06-04T00:00:00	2024-11-08T17:00:00	6	Velocidad del viento	8
86390	7	Sololá	704	Santa Lucía Utatlán 	7	Santa Rita 	4	Abril	2023-06-04T00:00:00	2024-11-08T17:00:00	7	Dirección del viento	8.05
86391	7	Sololá	704	Santa Lucía Utatlán 	7	Santa Rita 	4	Abril	2023-06-04T00:00:00	2024-11-08T17:00:00	1	Precipitación	0
86392	7	Sololá	704	Santa Lucía Utatlán 	7	Santa Rita 	4	Abril	2023-06-04T00:00:00	2024-11-08T17:00:00	8	Radiación solar	476
86393	7	Sololá	704	Santa Lucía Utatlán 	7	Santa Rita 	4	Abril	2023-06-04T00:00:00	2024-11-08T18:00:00	2	Temperatura media	23.2
86394	7	Sololá	704	Santa Lucía Utatlán 	7	Santa Rita 	4	Abril	2023-06-04T00:00:00	2024-11-08T18:00:00	4	Temperatura máxima	23.5
86395	7	Sololá	704	Santa Lucía Utatlán 	7	Santa Rita 	4	Abril	2023-06-04T00:00:00	2024-11-08T18:00:00	3	Temperatura mínima	23
86396	7	Sololá	704	Santa Lucía Utatlán 	7	Santa Rita 	4	Abril	2023-06-04T00:00:00	2024-11-08T18:00:00	5	Humedad	75
86397	7	Sololá	704	Santa Lucía Utatlán 	7	Santa Rita 	4	Abril	2023-06-04T00:00:00	2024-11-08T18:00:00	6	Velocidad del viento	4.8
86398	7	Sololá	704	Santa Lucía Utatlán 	7	Santa Rita 	4	Abril	2023-06-04T00:00:00	2024-11-08T18:00:00	7	Dirección del viento	4.83
86399	7	Sololá	704	Santa Lucía Utatlán 	7	Santa Rita 	4	Abril	2023-06-04T00:00:00	2024-11-08T18:00:00	1	Precipitación	0
86400	7	Sololá	704	Santa Lucía Utatlán 	7	Santa Rita 	4	Abril	2023-06-04T00:00:00	2024-11-08T18:00:00	8	Radiación solar	278
86401	7	Sololá	704	Santa Lucía Utatlán 	7	Santa Rita 	4	Abril	2023-06-04T00:00:00	2024-11-08T19:00:00	2	Temperatura media	21.8
86402	7	Sololá	704	Santa Lucía Utatlán 	7	Santa Rita 	4	Abril	2023-06-04T00:00:00	2024-11-08T19:00:00	4	Temperatura máxima	23.2
86403	7	Sololá	704	Santa Lucía Utatlán 	7	Santa Rita 	4	Abril	2023-06-04T00:00:00	2024-11-08T19:00:00	3	Temperatura mínima	21.8
86404	7	Sololá	704	Santa Lucía Utatlán 	7	Santa Rita 	4	Abril	2023-06-04T00:00:00	2024-11-08T19:00:00	5	Humedad	80
86405	7	Sololá	704	Santa Lucía Utatlán 	7	Santa Rita 	4	Abril	2023-06-04T00:00:00	2024-11-08T19:00:00	6	Velocidad del viento	6.4
86406	7	Sololá	704	Santa Lucía Utatlán 	7	Santa Rita 	4	Abril	2023-06-04T00:00:00	2024-11-08T19:00:00	7	Dirección del viento	6.44
86407	7	Sololá	704	Santa Lucía Utatlán 	7	Santa Rita 	4	Abril	2023-06-04T00:00:00	2024-11-08T19:00:00	1	Precipitación	0
86408	7	Sololá	704	Santa Lucía Utatlán 	7	Santa Rita 	4	Abril	2023-06-04T00:00:00	2024-11-08T19:00:00	8	Radiación solar	0
86409	7	Sololá	704	Santa Lucía Utatlán 	7	Santa Rita 	4	Abril	2023-06-04T00:00:00	2024-11-08T20:00:00	2	Temperatura media	20.4
86410	7	Sololá	704	Santa Lucía Utatlán 	7	Santa Rita 	4	Abril	2023-06-04T00:00:00	2024-11-08T20:00:00	4	Temperatura máxima	21.8
86411	7	Sololá	704	Santa Lucía Utatlán 	7	Santa Rita 	4	Abril	2023-06-04T00:00:00	2024-11-08T20:00:00	3	Temperatura mínima	20.4
86412	7	Sololá	704	Santa Lucía Utatlán 	7	Santa Rita 	4	Abril	2023-06-04T00:00:00	2024-11-08T20:00:00	5	Humedad	87
86413	7	Sololá	704	Santa Lucía Utatlán 	7	Santa Rita 	4	Abril	2023-06-04T00:00:00	2024-11-08T20:00:00	6	Velocidad del viento	4.8
86414	7	Sololá	704	Santa Lucía Utatlán 	7	Santa Rita 	4	Abril	2023-06-04T00:00:00	2024-11-08T20:00:00	7	Dirección del viento	4.83
86415	7	Sololá	704	Santa Lucía Utatlán 	7	Santa Rita 	4	Abril	2023-06-04T00:00:00	2024-11-08T20:00:00	1	Precipitación	0
86416	7	Sololá	704	Santa Lucía Utatlán 	7	Santa Rita 	4	Abril	2023-06-04T00:00:00	2024-11-08T20:00:00	8	Radiación solar	0
86417	7	Sololá	704	Santa Lucía Utatlán 	7	Santa Rita 	4	Abril	2023-06-04T00:00:00	2024-11-08T21:00:00	2	Temperatura media	21.1
86418	7	Sololá	704	Santa Lucía Utatlán 	7	Santa Rita 	4	Abril	2023-06-04T00:00:00	2024-11-08T21:00:00	4	Temperatura máxima	21.2
86419	7	Sololá	704	Santa Lucía Utatlán 	7	Santa Rita 	4	Abril	2023-06-04T00:00:00	2024-11-08T21:00:00	3	Temperatura mínima	20.4
86420	7	Sololá	704	Santa Lucía Utatlán 	7	Santa Rita 	4	Abril	2023-06-04T00:00:00	2024-11-08T21:00:00	5	Humedad	75
86421	7	Sololá	704	Santa Lucía Utatlán 	7	Santa Rita 	4	Abril	2023-06-04T00:00:00	2024-11-08T21:00:00	6	Velocidad del viento	4.8
86422	7	Sololá	704	Santa Lucía Utatlán 	7	Santa Rita 	4	Abril	2023-06-04T00:00:00	2024-11-08T21:00:00	7	Dirección del viento	4.83
86423	7	Sololá	704	Santa Lucía Utatlán 	7	Santa Rita 	4	Abril	2023-06-04T00:00:00	2024-11-08T21:00:00	1	Precipitación	0
86424	7	Sololá	704	Santa Lucía Utatlán 	7	Santa Rita 	4	Abril	2023-06-04T00:00:00	2024-11-08T21:00:00	8	Radiación solar	0
86425	7	Sololá	704	Santa Lucía Utatlán 	7	Santa Rita 	4	Abril	2023-06-04T00:00:00	2024-11-08T22:00:00	2	Temperatura media	20.8
86426	7	Sololá	704	Santa Lucía Utatlán 	7	Santa Rita 	4	Abril	2023-06-04T00:00:00	2024-11-08T22:00:00	4	Temperatura máxima	21.2
86427	7	Sololá	704	Santa Lucía Utatlán 	7	Santa Rita 	4	Abril	2023-06-04T00:00:00	2024-11-08T22:00:00	3	Temperatura mínima	20.8
86428	7	Sololá	704	Santa Lucía Utatlán 	7	Santa Rita 	4	Abril	2023-06-04T00:00:00	2024-11-08T22:00:00	5	Humedad	73
86429	7	Sololá	704	Santa Lucía Utatlán 	7	Santa Rita 	4	Abril	2023-06-04T00:00:00	2024-11-08T22:00:00	6	Velocidad del viento	4.8
86430	7	Sololá	704	Santa Lucía Utatlán 	7	Santa Rita 	4	Abril	2023-06-04T00:00:00	2024-11-08T22:00:00	7	Dirección del viento	4.83
86431	7	Sololá	704	Santa Lucía Utatlán 	7	Santa Rita 	4	Abril	2023-06-04T00:00:00	2024-11-08T22:00:00	1	Precipitación	0
86432	7	Sololá	704	Santa Lucía Utatlán 	7	Santa Rita 	4	Abril	2023-06-04T00:00:00	2024-11-08T22:00:00	8	Radiación solar	0
86433	7	Sololá	704	Santa Lucía Utatlán 	7	Santa Rita 	4	Abril	2023-06-04T00:00:00	2024-11-08T23:00:00	2	Temperatura media	19.9
86434	7	Sololá	704	Santa Lucía Utatlán 	7	Santa Rita 	4	Abril	2023-06-04T00:00:00	2024-11-08T23:00:00	4	Temperatura máxima	20.8
86435	7	Sololá	704	Santa Lucía Utatlán 	7	Santa Rita 	4	Abril	2023-06-04T00:00:00	2024-11-08T23:00:00	3	Temperatura mínima	19.9
86436	7	Sololá	704	Santa Lucía Utatlán 	7	Santa Rita 	4	Abril	2023-06-04T00:00:00	2024-11-08T23:00:00	5	Humedad	76
86437	7	Sololá	704	Santa Lucía Utatlán 	7	Santa Rita 	4	Abril	2023-06-04T00:00:00	2024-11-08T23:00:00	6	Velocidad del viento	3.2
86438	7	Sololá	704	Santa Lucía Utatlán 	7	Santa Rita 	4	Abril	2023-06-04T00:00:00	2024-11-08T23:00:00	7	Dirección del viento	3.22
86439	7	Sololá	704	Santa Lucía Utatlán 	7	Santa Rita 	4	Abril	2023-06-04T00:00:00	2024-11-08T23:00:00	1	Precipitación	0
86440	7	Sololá	704	Santa Lucía Utatlán 	7	Santa Rita 	4	Abril	2023-06-04T00:00:00	2024-11-08T23:00:00	8	Radiación solar	0
86441	7	Sololá	704	Santa Lucía Utatlán 	7	Santa Rita 	4	Abril	2023-07-04T00:00:00	2024-11-08T00:00:00	2	Temperatura media	18.9
86442	7	Sololá	704	Santa Lucía Utatlán 	7	Santa Rita 	4	Abril	2023-07-04T00:00:00	2024-11-08T00:00:00	4	Temperatura máxima	19.9
86443	7	Sololá	704	Santa Lucía Utatlán 	7	Santa Rita 	4	Abril	2023-07-04T00:00:00	2024-11-08T00:00:00	3	Temperatura mínima	18.3
86444	7	Sololá	704	Santa Lucía Utatlán 	7	Santa Rita 	4	Abril	2023-07-04T00:00:00	2024-11-08T00:00:00	5	Humedad	76
86445	7	Sololá	704	Santa Lucía Utatlán 	7	Santa Rita 	4	Abril	2023-07-04T00:00:00	2024-11-08T00:00:00	6	Velocidad del viento	3.2
86446	7	Sololá	704	Santa Lucía Utatlán 	7	Santa Rita 	4	Abril	2023-07-04T00:00:00	2024-11-08T00:00:00	7	Dirección del viento	3.22
86447	7	Sololá	704	Santa Lucía Utatlán 	7	Santa Rita 	4	Abril	2023-07-04T00:00:00	2024-11-08T00:00:00	1	Precipitación	0
86448	7	Sololá	704	Santa Lucía Utatlán 	7	Santa Rita 	4	Abril	2023-07-04T00:00:00	2024-11-08T00:00:00	8	Radiación solar	0
86449	7	Sololá	704	Santa Lucía Utatlán 	7	Santa Rita 	4	Abril	2023-07-04T00:00:00	2024-11-08T01:00:00	2	Temperatura media	17.9
86450	7	Sololá	704	Santa Lucía Utatlán 	7	Santa Rita 	4	Abril	2023-07-04T00:00:00	2024-11-08T01:00:00	4	Temperatura máxima	18.9
86451	7	Sololá	704	Santa Lucía Utatlán 	7	Santa Rita 	4	Abril	2023-07-04T00:00:00	2024-11-08T01:00:00	3	Temperatura mínima	17.6
86452	7	Sololá	704	Santa Lucía Utatlán 	7	Santa Rita 	4	Abril	2023-07-04T00:00:00	2024-11-08T01:00:00	5	Humedad	80
86453	7	Sololá	704	Santa Lucía Utatlán 	7	Santa Rita 	4	Abril	2023-07-04T00:00:00	2024-11-08T01:00:00	6	Velocidad del viento	3.2
86454	7	Sololá	704	Santa Lucía Utatlán 	7	Santa Rita 	4	Abril	2023-07-04T00:00:00	2024-11-08T01:00:00	7	Dirección del viento	3.22
86455	7	Sololá	704	Santa Lucía Utatlán 	7	Santa Rita 	4	Abril	2023-07-04T00:00:00	2024-11-08T01:00:00	1	Precipitación	0
86456	7	Sololá	704	Santa Lucía Utatlán 	7	Santa Rita 	4	Abril	2023-07-04T00:00:00	2024-11-08T01:00:00	8	Radiación solar	0
86457	7	Sololá	704	Santa Lucía Utatlán 	7	Santa Rita 	4	Abril	2023-07-04T00:00:00	2024-11-08T02:00:00	2	Temperatura media	17.2
86458	7	Sololá	704	Santa Lucía Utatlán 	7	Santa Rita 	4	Abril	2023-07-04T00:00:00	2024-11-08T02:00:00	4	Temperatura máxima	19.2
86459	7	Sololá	704	Santa Lucía Utatlán 	7	Santa Rita 	4	Abril	2023-07-04T00:00:00	2024-11-08T02:00:00	3	Temperatura mínima	17.2
86460	7	Sololá	704	Santa Lucía Utatlán 	7	Santa Rita 	4	Abril	2023-07-04T00:00:00	2024-11-08T02:00:00	5	Humedad	82
86461	7	Sololá	704	Santa Lucía Utatlán 	7	Santa Rita 	4	Abril	2023-07-04T00:00:00	2024-11-08T02:00:00	6	Velocidad del viento	1.6
86462	7	Sololá	704	Santa Lucía Utatlán 	7	Santa Rita 	4	Abril	2023-07-04T00:00:00	2024-11-08T02:00:00	7	Dirección del viento	1.61
86463	7	Sololá	704	Santa Lucía Utatlán 	7	Santa Rita 	4	Abril	2023-07-04T00:00:00	2024-11-08T02:00:00	1	Precipitación	0
86464	7	Sololá	704	Santa Lucía Utatlán 	7	Santa Rita 	4	Abril	2023-07-04T00:00:00	2024-11-08T02:00:00	8	Radiación solar	0
86465	7	Sololá	704	Santa Lucía Utatlán 	7	Santa Rita 	4	Abril	2023-07-04T00:00:00	2024-11-08T03:00:00	2	Temperatura media	17
86466	7	Sololá	704	Santa Lucía Utatlán 	7	Santa Rita 	4	Abril	2023-07-04T00:00:00	2024-11-08T03:00:00	4	Temperatura máxima	17.2
86467	7	Sololá	704	Santa Lucía Utatlán 	7	Santa Rita 	4	Abril	2023-07-04T00:00:00	2024-11-08T03:00:00	3	Temperatura mínima	16.7
86468	7	Sololá	704	Santa Lucía Utatlán 	7	Santa Rita 	4	Abril	2023-07-04T00:00:00	2024-11-08T03:00:00	5	Humedad	86
86469	7	Sololá	704	Santa Lucía Utatlán 	7	Santa Rita 	4	Abril	2023-07-04T00:00:00	2024-11-08T03:00:00	6	Velocidad del viento	1.6
86470	7	Sololá	704	Santa Lucía Utatlán 	7	Santa Rita 	4	Abril	2023-07-04T00:00:00	2024-11-08T03:00:00	7	Dirección del viento	1.61
86471	7	Sololá	704	Santa Lucía Utatlán 	7	Santa Rita 	4	Abril	2023-07-04T00:00:00	2024-11-08T03:00:00	1	Precipitación	0
86472	7	Sololá	704	Santa Lucía Utatlán 	7	Santa Rita 	4	Abril	2023-07-04T00:00:00	2024-11-08T03:00:00	8	Radiación solar	0
86473	7	Sololá	704	Santa Lucía Utatlán 	7	Santa Rita 	4	Abril	2023-07-04T00:00:00	2024-11-08T04:00:00	2	Temperatura media	15.8
86474	7	Sololá	704	Santa Lucía Utatlán 	7	Santa Rita 	4	Abril	2023-07-04T00:00:00	2024-11-08T04:00:00	4	Temperatura máxima	17.1
86475	7	Sololá	704	Santa Lucía Utatlán 	7	Santa Rita 	4	Abril	2023-07-04T00:00:00	2024-11-08T04:00:00	3	Temperatura mínima	15.8
86476	7	Sololá	704	Santa Lucía Utatlán 	7	Santa Rita 	4	Abril	2023-07-04T00:00:00	2024-11-08T04:00:00	5	Humedad	89
86477	7	Sololá	704	Santa Lucía Utatlán 	7	Santa Rita 	4	Abril	2023-07-04T00:00:00	2024-11-08T04:00:00	6	Velocidad del viento	1.6
86478	7	Sololá	704	Santa Lucía Utatlán 	7	Santa Rita 	4	Abril	2023-07-04T00:00:00	2024-11-08T04:00:00	7	Dirección del viento	1.61
86479	7	Sololá	704	Santa Lucía Utatlán 	7	Santa Rita 	4	Abril	2023-07-04T00:00:00	2024-11-08T04:00:00	1	Precipitación	0
86480	7	Sololá	704	Santa Lucía Utatlán 	7	Santa Rita 	4	Abril	2023-07-04T00:00:00	2024-11-08T04:00:00	8	Radiación solar	0
86481	7	Sololá	704	Santa Lucía Utatlán 	7	Santa Rita 	4	Abril	2023-07-04T00:00:00	2024-11-08T05:00:00	2	Temperatura media	15.3
86482	7	Sololá	704	Santa Lucía Utatlán 	7	Santa Rita 	4	Abril	2023-07-04T00:00:00	2024-11-08T05:00:00	4	Temperatura máxima	15.8
86483	7	Sololá	704	Santa Lucía Utatlán 	7	Santa Rita 	4	Abril	2023-07-04T00:00:00	2024-11-08T05:00:00	3	Temperatura mínima	15.2
86484	7	Sololá	704	Santa Lucía Utatlán 	7	Santa Rita 	4	Abril	2023-07-04T00:00:00	2024-11-08T05:00:00	5	Humedad	90
86485	7	Sololá	704	Santa Lucía Utatlán 	7	Santa Rita 	4	Abril	2023-07-04T00:00:00	2024-11-08T05:00:00	6	Velocidad del viento	3.2
86486	7	Sololá	704	Santa Lucía Utatlán 	7	Santa Rita 	4	Abril	2023-07-04T00:00:00	2024-11-08T05:00:00	7	Dirección del viento	3.22
86487	7	Sololá	704	Santa Lucía Utatlán 	7	Santa Rita 	4	Abril	2023-07-04T00:00:00	2024-11-08T05:00:00	1	Precipitación	0
86488	7	Sololá	704	Santa Lucía Utatlán 	7	Santa Rita 	4	Abril	2023-07-04T00:00:00	2024-11-08T05:00:00	8	Radiación solar	0
86489	7	Sololá	704	Santa Lucía Utatlán 	7	Santa Rita 	4	Abril	2023-07-04T00:00:00	2024-11-08T06:00:00	2	Temperatura media	15.3
86490	7	Sololá	704	Santa Lucía Utatlán 	7	Santa Rita 	4	Abril	2023-07-04T00:00:00	2024-11-08T06:00:00	4	Temperatura máxima	15.3
86491	7	Sololá	704	Santa Lucía Utatlán 	7	Santa Rita 	4	Abril	2023-07-04T00:00:00	2024-11-08T06:00:00	3	Temperatura mínima	14.7
86492	7	Sololá	704	Santa Lucía Utatlán 	7	Santa Rita 	4	Abril	2023-07-04T00:00:00	2024-11-08T06:00:00	5	Humedad	90
86493	7	Sololá	704	Santa Lucía Utatlán 	7	Santa Rita 	4	Abril	2023-07-04T00:00:00	2024-11-08T06:00:00	6	Velocidad del viento	3.2
86494	7	Sololá	704	Santa Lucía Utatlán 	7	Santa Rita 	4	Abril	2023-07-04T00:00:00	2024-11-08T06:00:00	7	Dirección del viento	3.22
86495	7	Sololá	704	Santa Lucía Utatlán 	7	Santa Rita 	4	Abril	2023-07-04T00:00:00	2024-11-08T06:00:00	1	Precipitación	0
86496	7	Sololá	704	Santa Lucía Utatlán 	7	Santa Rita 	4	Abril	2023-07-04T00:00:00	2024-11-08T06:00:00	8	Radiación solar	0
86497	7	Sololá	704	Santa Lucía Utatlán 	7	Santa Rita 	4	Abril	2023-07-04T00:00:00	2024-11-08T07:00:00	2	Temperatura media	14.4
86498	7	Sololá	704	Santa Lucía Utatlán 	7	Santa Rita 	4	Abril	2023-07-04T00:00:00	2024-11-08T07:00:00	4	Temperatura máxima	15.3
86499	7	Sololá	704	Santa Lucía Utatlán 	7	Santa Rita 	4	Abril	2023-07-04T00:00:00	2024-11-08T07:00:00	3	Temperatura mínima	14.4
86500	7	Sololá	704	Santa Lucía Utatlán 	7	Santa Rita 	4	Abril	2023-07-04T00:00:00	2024-11-08T07:00:00	5	Humedad	88
86501	7	Sololá	704	Santa Lucía Utatlán 	7	Santa Rita 	4	Abril	2023-07-04T00:00:00	2024-11-08T07:00:00	6	Velocidad del viento	3.2
86502	7	Sololá	704	Santa Lucía Utatlán 	7	Santa Rita 	4	Abril	2023-07-04T00:00:00	2024-11-08T07:00:00	7	Dirección del viento	3.22
86503	7	Sololá	704	Santa Lucía Utatlán 	7	Santa Rita 	4	Abril	2023-07-04T00:00:00	2024-11-08T07:00:00	1	Precipitación	0
86504	7	Sololá	704	Santa Lucía Utatlán 	7	Santa Rita 	4	Abril	2023-07-04T00:00:00	2024-11-08T07:00:00	8	Radiación solar	1
86505	7	Sololá	704	Santa Lucía Utatlán 	7	Santa Rita 	4	Abril	2023-07-04T00:00:00	2024-11-08T08:00:00	2	Temperatura media	16.7
86506	7	Sololá	704	Santa Lucía Utatlán 	7	Santa Rita 	4	Abril	2023-07-04T00:00:00	2024-11-08T08:00:00	4	Temperatura máxima	16.7
86507	7	Sololá	704	Santa Lucía Utatlán 	7	Santa Rita 	4	Abril	2023-07-04T00:00:00	2024-11-08T08:00:00	3	Temperatura mínima	14.3
86508	7	Sololá	704	Santa Lucía Utatlán 	7	Santa Rita 	4	Abril	2023-07-04T00:00:00	2024-11-08T08:00:00	5	Humedad	84
86509	7	Sololá	704	Santa Lucía Utatlán 	7	Santa Rita 	4	Abril	2023-07-04T00:00:00	2024-11-08T08:00:00	6	Velocidad del viento	3.2
86510	7	Sololá	704	Santa Lucía Utatlán 	7	Santa Rita 	4	Abril	2023-07-04T00:00:00	2024-11-08T08:00:00	7	Dirección del viento	3.22
86511	7	Sololá	704	Santa Lucía Utatlán 	7	Santa Rita 	4	Abril	2023-07-04T00:00:00	2024-11-08T08:00:00	1	Precipitación	0
86512	7	Sololá	704	Santa Lucía Utatlán 	7	Santa Rita 	4	Abril	2023-07-04T00:00:00	2024-11-08T08:00:00	8	Radiación solar	81
86513	7	Sololá	704	Santa Lucía Utatlán 	7	Santa Rita 	4	Abril	2023-07-04T00:00:00	2024-11-08T09:00:00	2	Temperatura media	19.3
86514	7	Sololá	704	Santa Lucía Utatlán 	7	Santa Rita 	4	Abril	2023-07-04T00:00:00	2024-11-08T09:00:00	4	Temperatura máxima	19.3
86515	7	Sololá	704	Santa Lucía Utatlán 	7	Santa Rita 	4	Abril	2023-07-04T00:00:00	2024-11-08T09:00:00	3	Temperatura mínima	16.7
86516	7	Sololá	704	Santa Lucía Utatlán 	7	Santa Rita 	4	Abril	2023-07-04T00:00:00	2024-11-08T09:00:00	5	Humedad	76
86517	7	Sololá	704	Santa Lucía Utatlán 	7	Santa Rita 	4	Abril	2023-07-04T00:00:00	2024-11-08T09:00:00	6	Velocidad del viento	3.2
86518	7	Sololá	704	Santa Lucía Utatlán 	7	Santa Rita 	4	Abril	2023-07-04T00:00:00	2024-11-08T09:00:00	7	Dirección del viento	3.22
86519	7	Sololá	704	Santa Lucía Utatlán 	7	Santa Rita 	4	Abril	2023-07-04T00:00:00	2024-11-08T09:00:00	1	Precipitación	0
86520	7	Sololá	704	Santa Lucía Utatlán 	7	Santa Rita 	4	Abril	2023-07-04T00:00:00	2024-11-08T09:00:00	8	Radiación solar	353
86521	7	Sololá	704	Santa Lucía Utatlán 	7	Santa Rita 	4	Abril	2023-07-04T00:00:00	2024-11-08T10:00:00	2	Temperatura media	22.1
86522	7	Sololá	704	Santa Lucía Utatlán 	7	Santa Rita 	4	Abril	2023-07-04T00:00:00	2024-11-08T10:00:00	4	Temperatura máxima	22.1
86523	7	Sololá	704	Santa Lucía Utatlán 	7	Santa Rita 	4	Abril	2023-07-04T00:00:00	2024-11-08T10:00:00	3	Temperatura mínima	19.3
86524	7	Sololá	704	Santa Lucía Utatlán 	7	Santa Rita 	4	Abril	2023-07-04T00:00:00	2024-11-08T10:00:00	5	Humedad	65
86525	7	Sololá	704	Santa Lucía Utatlán 	7	Santa Rita 	4	Abril	2023-07-04T00:00:00	2024-11-08T10:00:00	6	Velocidad del viento	3.2
86526	7	Sololá	704	Santa Lucía Utatlán 	7	Santa Rita 	4	Abril	2023-07-04T00:00:00	2024-11-08T10:00:00	7	Dirección del viento	3.22
86527	7	Sololá	704	Santa Lucía Utatlán 	7	Santa Rita 	4	Abril	2023-07-04T00:00:00	2024-11-08T10:00:00	1	Precipitación	0
86528	7	Sololá	704	Santa Lucía Utatlán 	7	Santa Rita 	4	Abril	2023-07-04T00:00:00	2024-11-08T10:00:00	8	Radiación solar	589
86529	7	Sololá	704	Santa Lucía Utatlán 	7	Santa Rita 	4	Abril	2023-07-04T00:00:00	2024-11-08T11:00:00	2	Temperatura media	24.8
86530	7	Sololá	704	Santa Lucía Utatlán 	7	Santa Rita 	4	Abril	2023-07-04T00:00:00	2024-11-08T11:00:00	4	Temperatura máxima	24.8
86531	7	Sololá	704	Santa Lucía Utatlán 	7	Santa Rita 	4	Abril	2023-07-04T00:00:00	2024-11-08T11:00:00	3	Temperatura mínima	22.1
86532	7	Sololá	704	Santa Lucía Utatlán 	7	Santa Rita 	4	Abril	2023-07-04T00:00:00	2024-11-08T11:00:00	5	Humedad	55
86533	7	Sololá	704	Santa Lucía Utatlán 	7	Santa Rita 	4	Abril	2023-07-04T00:00:00	2024-11-08T11:00:00	6	Velocidad del viento	6.4
86534	7	Sololá	704	Santa Lucía Utatlán 	7	Santa Rita 	4	Abril	2023-07-04T00:00:00	2024-11-08T11:00:00	7	Dirección del viento	6.44
86535	7	Sololá	704	Santa Lucía Utatlán 	7	Santa Rita 	4	Abril	2023-07-04T00:00:00	2024-11-08T11:00:00	1	Precipitación	0
86536	7	Sololá	704	Santa Lucía Utatlán 	7	Santa Rita 	4	Abril	2023-07-04T00:00:00	2024-11-08T11:00:00	8	Radiación solar	786
86537	7	Sololá	704	Santa Lucía Utatlán 	7	Santa Rita 	4	Abril	2023-07-04T00:00:00	2024-11-08T12:00:00	2	Temperatura media	27.1
86538	7	Sololá	704	Santa Lucía Utatlán 	7	Santa Rita 	4	Abril	2023-07-04T00:00:00	2024-11-08T12:00:00	4	Temperatura máxima	27.2
86539	7	Sololá	704	Santa Lucía Utatlán 	7	Santa Rita 	4	Abril	2023-07-04T00:00:00	2024-11-08T12:00:00	3	Temperatura mínima	24.7
86540	7	Sololá	704	Santa Lucía Utatlán 	7	Santa Rita 	4	Abril	2023-07-04T00:00:00	2024-11-08T12:00:00	5	Humedad	30
86541	7	Sololá	704	Santa Lucía Utatlán 	7	Santa Rita 	4	Abril	2023-07-04T00:00:00	2024-11-08T12:00:00	6	Velocidad del viento	9.7
86542	7	Sololá	704	Santa Lucía Utatlán 	7	Santa Rita 	4	Abril	2023-07-04T00:00:00	2024-11-08T12:00:00	7	Dirección del viento	9.66
86543	7	Sololá	704	Santa Lucía Utatlán 	7	Santa Rita 	4	Abril	2023-07-04T00:00:00	2024-11-08T12:00:00	1	Precipitación	0
86544	7	Sololá	704	Santa Lucía Utatlán 	7	Santa Rita 	4	Abril	2023-07-04T00:00:00	2024-11-08T12:00:00	8	Radiación solar	944
86545	7	Sololá	704	Santa Lucía Utatlán 	7	Santa Rita 	4	Abril	2023-07-04T00:00:00	2024-11-08T13:00:00	2	Temperatura media	26.5
86546	7	Sololá	704	Santa Lucía Utatlán 	7	Santa Rita 	4	Abril	2023-07-04T00:00:00	2024-11-08T13:00:00	4	Temperatura máxima	27.8
86547	7	Sololá	704	Santa Lucía Utatlán 	7	Santa Rita 	4	Abril	2023-07-04T00:00:00	2024-11-08T13:00:00	3	Temperatura mínima	26.5
86548	7	Sololá	704	Santa Lucía Utatlán 	7	Santa Rita 	4	Abril	2023-07-04T00:00:00	2024-11-08T13:00:00	5	Humedad	47
86549	7	Sololá	704	Santa Lucía Utatlán 	7	Santa Rita 	4	Abril	2023-07-04T00:00:00	2024-11-08T13:00:00	6	Velocidad del viento	9.7
86550	7	Sololá	704	Santa Lucía Utatlán 	7	Santa Rita 	4	Abril	2023-07-04T00:00:00	2024-11-08T13:00:00	7	Dirección del viento	9.66
86551	7	Sololá	704	Santa Lucía Utatlán 	7	Santa Rita 	4	Abril	2023-07-04T00:00:00	2024-11-08T13:00:00	1	Precipitación	0
86552	7	Sololá	704	Santa Lucía Utatlán 	7	Santa Rita 	4	Abril	2023-07-04T00:00:00	2024-11-08T13:00:00	8	Radiación solar	1023
86553	7	Sololá	704	Santa Lucía Utatlán 	7	Santa Rita 	4	Abril	2023-07-04T00:00:00	2024-11-08T14:00:00	2	Temperatura media	24.8
86554	7	Sololá	704	Santa Lucía Utatlán 	7	Santa Rita 	4	Abril	2023-07-04T00:00:00	2024-11-08T14:00:00	4	Temperatura máxima	26.7
86555	7	Sololá	704	Santa Lucía Utatlán 	7	Santa Rita 	4	Abril	2023-07-04T00:00:00	2024-11-08T14:00:00	3	Temperatura mínima	24.6
86556	7	Sololá	704	Santa Lucía Utatlán 	7	Santa Rita 	4	Abril	2023-07-04T00:00:00	2024-11-08T14:00:00	5	Humedad	64
86557	7	Sololá	704	Santa Lucía Utatlán 	7	Santa Rita 	4	Abril	2023-07-04T00:00:00	2024-11-08T14:00:00	6	Velocidad del viento	11.3
86558	7	Sololá	704	Santa Lucía Utatlán 	7	Santa Rita 	4	Abril	2023-07-04T00:00:00	2024-11-08T14:00:00	7	Dirección del viento	11.27
86559	7	Sololá	704	Santa Lucía Utatlán 	7	Santa Rita 	4	Abril	2023-07-04T00:00:00	2024-11-08T14:00:00	1	Precipitación	0
86560	7	Sololá	704	Santa Lucía Utatlán 	7	Santa Rita 	4	Abril	2023-07-04T00:00:00	2024-11-08T14:00:00	8	Radiación solar	908
86561	7	Sololá	704	Santa Lucía Utatlán 	7	Santa Rita 	4	Abril	2023-07-04T00:00:00	2024-11-08T15:00:00	2	Temperatura media	24.1
86562	7	Sololá	704	Santa Lucía Utatlán 	7	Santa Rita 	4	Abril	2023-07-04T00:00:00	2024-11-08T15:00:00	4	Temperatura máxima	25.1
86563	7	Sololá	704	Santa Lucía Utatlán 	7	Santa Rita 	4	Abril	2023-07-04T00:00:00	2024-11-08T15:00:00	3	Temperatura mínima	23.4
86564	7	Sololá	704	Santa Lucía Utatlán 	7	Santa Rita 	4	Abril	2023-07-04T00:00:00	2024-11-08T15:00:00	5	Humedad	70
86565	7	Sololá	704	Santa Lucía Utatlán 	7	Santa Rita 	4	Abril	2023-07-04T00:00:00	2024-11-08T15:00:00	6	Velocidad del viento	8
86566	7	Sololá	704	Santa Lucía Utatlán 	7	Santa Rita 	4	Abril	2023-07-04T00:00:00	2024-11-08T15:00:00	7	Dirección del viento	8.05
86567	7	Sololá	704	Santa Lucía Utatlán 	7	Santa Rita 	4	Abril	2023-07-04T00:00:00	2024-11-08T15:00:00	1	Precipitación	0
86568	7	Sololá	704	Santa Lucía Utatlán 	7	Santa Rita 	4	Abril	2023-07-04T00:00:00	2024-11-08T15:00:00	8	Radiación solar	329
86569	7	Sololá	704	Santa Lucía Utatlán 	7	Santa Rita 	4	Abril	2023-07-04T00:00:00	2024-11-08T16:00:00	2	Temperatura media	22.4
86570	7	Sololá	704	Santa Lucía Utatlán 	7	Santa Rita 	4	Abril	2023-07-04T00:00:00	2024-11-08T16:00:00	4	Temperatura máxima	24.1
86571	7	Sololá	704	Santa Lucía Utatlán 	7	Santa Rita 	4	Abril	2023-07-04T00:00:00	2024-11-08T16:00:00	3	Temperatura mínima	22.3
86572	7	Sololá	704	Santa Lucía Utatlán 	7	Santa Rita 	4	Abril	2023-07-04T00:00:00	2024-11-08T16:00:00	5	Humedad	77
86573	7	Sololá	704	Santa Lucía Utatlán 	7	Santa Rita 	4	Abril	2023-07-04T00:00:00	2024-11-08T16:00:00	6	Velocidad del viento	8
86574	7	Sololá	704	Santa Lucía Utatlán 	7	Santa Rita 	4	Abril	2023-07-04T00:00:00	2024-11-08T16:00:00	7	Dirección del viento	8.05
86575	7	Sololá	704	Santa Lucía Utatlán 	7	Santa Rita 	4	Abril	2023-07-04T00:00:00	2024-11-08T16:00:00	1	Precipitación	0
86576	7	Sololá	704	Santa Lucía Utatlán 	7	Santa Rita 	4	Abril	2023-07-04T00:00:00	2024-11-08T16:00:00	8	Radiación solar	242
86577	7	Sololá	704	Santa Lucía Utatlán 	7	Santa Rita 	4	Abril	2023-07-04T00:00:00	2024-11-08T17:00:00	2	Temperatura media	21.8
86578	7	Sololá	704	Santa Lucía Utatlán 	7	Santa Rita 	4	Abril	2023-07-04T00:00:00	2024-11-08T17:00:00	4	Temperatura máxima	22.4
86579	7	Sololá	704	Santa Lucía Utatlán 	7	Santa Rita 	4	Abril	2023-07-04T00:00:00	2024-11-08T17:00:00	3	Temperatura mínima	21.8
86580	7	Sololá	704	Santa Lucía Utatlán 	7	Santa Rita 	4	Abril	2023-07-04T00:00:00	2024-11-08T17:00:00	5	Humedad	79
86581	7	Sololá	704	Santa Lucía Utatlán 	7	Santa Rita 	4	Abril	2023-07-04T00:00:00	2024-11-08T17:00:00	6	Velocidad del viento	6.4
86582	7	Sololá	704	Santa Lucía Utatlán 	7	Santa Rita 	4	Abril	2023-07-04T00:00:00	2024-11-08T17:00:00	7	Dirección del viento	6.44
86583	7	Sololá	704	Santa Lucía Utatlán 	7	Santa Rita 	4	Abril	2023-07-04T00:00:00	2024-11-08T17:00:00	1	Precipitación	0
86584	7	Sololá	704	Santa Lucía Utatlán 	7	Santa Rita 	4	Abril	2023-07-04T00:00:00	2024-11-08T17:00:00	8	Radiación solar	180
86585	7	Sololá	704	Santa Lucía Utatlán 	7	Santa Rita 	4	Abril	2023-07-04T00:00:00	2024-11-08T18:00:00	2	Temperatura media	21.5
86586	7	Sololá	704	Santa Lucía Utatlán 	7	Santa Rita 	4	Abril	2023-07-04T00:00:00	2024-11-08T18:00:00	4	Temperatura máxima	22.1
86587	7	Sololá	704	Santa Lucía Utatlán 	7	Santa Rita 	4	Abril	2023-07-04T00:00:00	2024-11-08T18:00:00	3	Temperatura mínima	21.4
86588	7	Sololá	704	Santa Lucía Utatlán 	7	Santa Rita 	4	Abril	2023-07-04T00:00:00	2024-11-08T18:00:00	5	Humedad	82
86589	7	Sololá	704	Santa Lucía Utatlán 	7	Santa Rita 	4	Abril	2023-07-04T00:00:00	2024-11-08T18:00:00	6	Velocidad del viento	4.8
86590	7	Sololá	704	Santa Lucía Utatlán 	7	Santa Rita 	4	Abril	2023-07-04T00:00:00	2024-11-08T18:00:00	7	Dirección del viento	4.83
86591	7	Sololá	704	Santa Lucía Utatlán 	7	Santa Rita 	4	Abril	2023-07-04T00:00:00	2024-11-08T18:00:00	1	Precipitación	0
86592	7	Sololá	704	Santa Lucía Utatlán 	7	Santa Rita 	4	Abril	2023-07-04T00:00:00	2024-11-08T18:00:00	8	Radiación solar	119
86593	7	Sololá	704	Santa Lucía Utatlán 	7	Santa Rita 	4	Abril	2023-07-04T00:00:00	2024-11-08T19:00:00	2	Temperatura media	21
86594	7	Sololá	704	Santa Lucía Utatlán 	7	Santa Rita 	4	Abril	2023-07-04T00:00:00	2024-11-08T19:00:00	4	Temperatura máxima	21.6
86595	7	Sololá	704	Santa Lucía Utatlán 	7	Santa Rita 	4	Abril	2023-07-04T00:00:00	2024-11-08T19:00:00	3	Temperatura mínima	20.8
86596	7	Sololá	704	Santa Lucía Utatlán 	7	Santa Rita 	4	Abril	2023-07-04T00:00:00	2024-11-08T19:00:00	5	Humedad	82
86597	7	Sololá	704	Santa Lucía Utatlán 	7	Santa Rita 	4	Abril	2023-07-04T00:00:00	2024-11-08T19:00:00	6	Velocidad del viento	4.8
86598	7	Sololá	704	Santa Lucía Utatlán 	7	Santa Rita 	4	Abril	2023-07-04T00:00:00	2024-11-08T19:00:00	7	Dirección del viento	4.83
86599	7	Sololá	704	Santa Lucía Utatlán 	7	Santa Rita 	4	Abril	2023-07-04T00:00:00	2024-11-08T19:00:00	1	Precipitación	0
86600	7	Sololá	704	Santa Lucía Utatlán 	7	Santa Rita 	4	Abril	2023-07-04T00:00:00	2024-11-08T19:00:00	8	Radiación solar	0
86601	7	Sololá	704	Santa Lucía Utatlán 	7	Santa Rita 	4	Abril	2023-07-04T00:00:00	2024-11-08T20:00:00	2	Temperatura media	20.8
86602	7	Sololá	704	Santa Lucía Utatlán 	7	Santa Rita 	4	Abril	2023-07-04T00:00:00	2024-11-08T20:00:00	4	Temperatura máxima	21.1
86603	7	Sololá	704	Santa Lucía Utatlán 	7	Santa Rita 	4	Abril	2023-07-04T00:00:00	2024-11-08T20:00:00	3	Temperatura mínima	20.8
86604	7	Sololá	704	Santa Lucía Utatlán 	7	Santa Rita 	4	Abril	2023-07-04T00:00:00	2024-11-08T20:00:00	5	Humedad	64
86605	7	Sololá	704	Santa Lucía Utatlán 	7	Santa Rita 	4	Abril	2023-07-04T00:00:00	2024-11-08T20:00:00	6	Velocidad del viento	6.4
86606	7	Sololá	704	Santa Lucía Utatlán 	7	Santa Rita 	4	Abril	2023-07-04T00:00:00	2024-11-08T20:00:00	7	Dirección del viento	6.44
86607	7	Sololá	704	Santa Lucía Utatlán 	7	Santa Rita 	4	Abril	2023-07-04T00:00:00	2024-11-08T20:00:00	1	Precipitación	0
86608	7	Sololá	704	Santa Lucía Utatlán 	7	Santa Rita 	4	Abril	2023-07-04T00:00:00	2024-11-08T20:00:00	8	Radiación solar	0
86609	7	Sololá	704	Santa Lucía Utatlán 	7	Santa Rita 	4	Abril	2023-07-04T00:00:00	2024-11-08T21:00:00	2	Temperatura media	19.6
86610	7	Sololá	704	Santa Lucía Utatlán 	7	Santa Rita 	4	Abril	2023-07-04T00:00:00	2024-11-08T21:00:00	4	Temperatura máxima	20.8
86611	7	Sololá	704	Santa Lucía Utatlán 	7	Santa Rita 	4	Abril	2023-07-04T00:00:00	2024-11-08T21:00:00	3	Temperatura mínima	19.6
86612	7	Sololá	704	Santa Lucía Utatlán 	7	Santa Rita 	4	Abril	2023-07-04T00:00:00	2024-11-08T21:00:00	5	Humedad	68
86613	7	Sololá	704	Santa Lucía Utatlán 	7	Santa Rita 	4	Abril	2023-07-04T00:00:00	2024-11-08T21:00:00	6	Velocidad del viento	8
86614	7	Sololá	704	Santa Lucía Utatlán 	7	Santa Rita 	4	Abril	2023-07-04T00:00:00	2024-11-08T21:00:00	7	Dirección del viento	8.05
86615	7	Sololá	704	Santa Lucía Utatlán 	7	Santa Rita 	4	Abril	2023-07-04T00:00:00	2024-11-08T21:00:00	1	Precipitación	0
86616	7	Sololá	704	Santa Lucía Utatlán 	7	Santa Rita 	4	Abril	2023-07-04T00:00:00	2024-11-08T21:00:00	8	Radiación solar	0
86617	7	Sololá	704	Santa Lucía Utatlán 	7	Santa Rita 	4	Abril	2023-07-04T00:00:00	2024-11-08T22:00:00	2	Temperatura media	17.4
86618	7	Sololá	704	Santa Lucía Utatlán 	7	Santa Rita 	4	Abril	2023-07-04T00:00:00	2024-11-08T22:00:00	4	Temperatura máxima	19.6
86619	7	Sololá	704	Santa Lucía Utatlán 	7	Santa Rita 	4	Abril	2023-07-04T00:00:00	2024-11-08T22:00:00	3	Temperatura mínima	17.4
86620	7	Sololá	704	Santa Lucía Utatlán 	7	Santa Rita 	4	Abril	2023-07-04T00:00:00	2024-11-08T22:00:00	5	Humedad	77
86621	7	Sololá	704	Santa Lucía Utatlán 	7	Santa Rita 	4	Abril	2023-07-04T00:00:00	2024-11-08T22:00:00	6	Velocidad del viento	3.2
86622	7	Sololá	704	Santa Lucía Utatlán 	7	Santa Rita 	4	Abril	2023-07-04T00:00:00	2024-11-08T22:00:00	7	Dirección del viento	3.22
86623	7	Sololá	704	Santa Lucía Utatlán 	7	Santa Rita 	4	Abril	2023-07-04T00:00:00	2024-11-08T22:00:00	1	Precipitación	0
86624	7	Sololá	704	Santa Lucía Utatlán 	7	Santa Rita 	4	Abril	2023-07-04T00:00:00	2024-11-08T22:00:00	8	Radiación solar	0
86625	7	Sololá	704	Santa Lucía Utatlán 	7	Santa Rita 	4	Abril	2023-07-04T00:00:00	2024-11-08T23:00:00	2	Temperatura media	16.1
86626	7	Sololá	704	Santa Lucía Utatlán 	7	Santa Rita 	4	Abril	2023-07-04T00:00:00	2024-11-08T23:00:00	4	Temperatura máxima	17.4
86627	7	Sololá	704	Santa Lucía Utatlán 	7	Santa Rita 	4	Abril	2023-07-04T00:00:00	2024-11-08T23:00:00	3	Temperatura mínima	16
86628	7	Sololá	704	Santa Lucía Utatlán 	7	Santa Rita 	4	Abril	2023-07-04T00:00:00	2024-11-08T23:00:00	5	Humedad	81
86629	7	Sololá	704	Santa Lucía Utatlán 	7	Santa Rita 	4	Abril	2023-07-04T00:00:00	2024-11-08T23:00:00	6	Velocidad del viento	3.2
86630	7	Sololá	704	Santa Lucía Utatlán 	7	Santa Rita 	4	Abril	2023-07-04T00:00:00	2024-11-08T23:00:00	7	Dirección del viento	3.22
86631	7	Sololá	704	Santa Lucía Utatlán 	7	Santa Rita 	4	Abril	2023-07-04T00:00:00	2024-11-08T23:00:00	1	Precipitación	0
86632	7	Sololá	704	Santa Lucía Utatlán 	7	Santa Rita 	4	Abril	2023-07-04T00:00:00	2024-11-08T23:00:00	8	Radiación solar	0
86633	7	Sololá	704	Santa Lucía Utatlán 	7	Santa Rita 	4	Abril	2023-08-04T00:00:00	2024-11-08T00:00:00	2	Temperatura media	16.1
86634	7	Sololá	704	Santa Lucía Utatlán 	7	Santa Rita 	4	Abril	2023-08-04T00:00:00	2024-11-08T00:00:00	4	Temperatura máxima	16.2
86635	7	Sololá	704	Santa Lucía Utatlán 	7	Santa Rita 	4	Abril	2023-08-04T00:00:00	2024-11-08T00:00:00	3	Temperatura mínima	16
86636	7	Sololá	704	Santa Lucía Utatlán 	7	Santa Rita 	4	Abril	2023-08-04T00:00:00	2024-11-08T00:00:00	5	Humedad	81
86637	7	Sololá	704	Santa Lucía Utatlán 	7	Santa Rita 	4	Abril	2023-08-04T00:00:00	2024-11-08T00:00:00	6	Velocidad del viento	3.2
86638	7	Sololá	704	Santa Lucía Utatlán 	7	Santa Rita 	4	Abril	2023-08-04T00:00:00	2024-11-08T00:00:00	7	Dirección del viento	3.22
86639	7	Sololá	704	Santa Lucía Utatlán 	7	Santa Rita 	4	Abril	2023-08-04T00:00:00	2024-11-08T00:00:00	1	Precipitación	0
86640	7	Sololá	704	Santa Lucía Utatlán 	7	Santa Rita 	4	Abril	2023-08-04T00:00:00	2024-11-08T00:00:00	8	Radiación solar	0
86641	7	Sololá	704	Santa Lucía Utatlán 	7	Santa Rita 	4	Abril	2023-08-04T00:00:00	2024-11-08T01:00:00	2	Temperatura media	16.6
86642	7	Sololá	704	Santa Lucía Utatlán 	7	Santa Rita 	4	Abril	2023-08-04T00:00:00	2024-11-08T01:00:00	4	Temperatura máxima	16.6
86643	7	Sololá	704	Santa Lucía Utatlán 	7	Santa Rita 	4	Abril	2023-08-04T00:00:00	2024-11-08T01:00:00	3	Temperatura mínima	15.6
86644	7	Sololá	704	Santa Lucía Utatlán 	7	Santa Rita 	4	Abril	2023-08-04T00:00:00	2024-11-08T01:00:00	5	Humedad	83
86645	7	Sololá	704	Santa Lucía Utatlán 	7	Santa Rita 	4	Abril	2023-08-04T00:00:00	2024-11-08T01:00:00	6	Velocidad del viento	1.6
86646	7	Sololá	704	Santa Lucía Utatlán 	7	Santa Rita 	4	Abril	2023-08-04T00:00:00	2024-11-08T01:00:00	7	Dirección del viento	1.61
86647	7	Sololá	704	Santa Lucía Utatlán 	7	Santa Rita 	4	Abril	2023-08-04T00:00:00	2024-11-08T01:00:00	1	Precipitación	0
86648	7	Sololá	704	Santa Lucía Utatlán 	7	Santa Rita 	4	Abril	2023-08-04T00:00:00	2024-11-08T01:00:00	8	Radiación solar	0
86649	7	Sololá	704	Santa Lucía Utatlán 	7	Santa Rita 	4	Abril	2023-08-04T00:00:00	2024-11-08T02:00:00	2	Temperatura media	16.6
86650	7	Sololá	704	Santa Lucía Utatlán 	7	Santa Rita 	4	Abril	2023-08-04T00:00:00	2024-11-08T02:00:00	4	Temperatura máxima	16.7
86651	7	Sololá	704	Santa Lucía Utatlán 	7	Santa Rita 	4	Abril	2023-08-04T00:00:00	2024-11-08T02:00:00	3	Temperatura mínima	16.5
86652	7	Sololá	704	Santa Lucía Utatlán 	7	Santa Rita 	4	Abril	2023-08-04T00:00:00	2024-11-08T02:00:00	5	Humedad	86
86653	7	Sololá	704	Santa Lucía Utatlán 	7	Santa Rita 	4	Abril	2023-08-04T00:00:00	2024-11-08T02:00:00	6	Velocidad del viento	1.6
86654	7	Sololá	704	Santa Lucía Utatlán 	7	Santa Rita 	4	Abril	2023-08-04T00:00:00	2024-11-08T02:00:00	7	Dirección del viento	1.61
86655	7	Sololá	704	Santa Lucía Utatlán 	7	Santa Rita 	4	Abril	2023-08-04T00:00:00	2024-11-08T02:00:00	1	Precipitación	0
86656	7	Sololá	704	Santa Lucía Utatlán 	7	Santa Rita 	4	Abril	2023-08-04T00:00:00	2024-11-08T02:00:00	8	Radiación solar	0
86657	7	Sololá	704	Santa Lucía Utatlán 	7	Santa Rita 	4	Abril	2023-08-04T00:00:00	2024-11-08T03:00:00	2	Temperatura media	15.6
86658	7	Sololá	704	Santa Lucía Utatlán 	7	Santa Rita 	4	Abril	2023-08-04T00:00:00	2024-11-08T03:00:00	4	Temperatura máxima	16.6
86659	7	Sololá	704	Santa Lucía Utatlán 	7	Santa Rita 	4	Abril	2023-08-04T00:00:00	2024-11-08T03:00:00	3	Temperatura mínima	15.6
86660	7	Sololá	704	Santa Lucía Utatlán 	7	Santa Rita 	4	Abril	2023-08-04T00:00:00	2024-11-08T03:00:00	5	Humedad	89
86661	7	Sololá	704	Santa Lucía Utatlán 	7	Santa Rita 	4	Abril	2023-08-04T00:00:00	2024-11-08T03:00:00	6	Velocidad del viento	1.6
86662	7	Sololá	704	Santa Lucía Utatlán 	7	Santa Rita 	4	Abril	2023-08-04T00:00:00	2024-11-08T03:00:00	7	Dirección del viento	1.61
86663	7	Sololá	704	Santa Lucía Utatlán 	7	Santa Rita 	4	Abril	2023-08-04T00:00:00	2024-11-08T03:00:00	1	Precipitación	0
86664	7	Sololá	704	Santa Lucía Utatlán 	7	Santa Rita 	4	Abril	2023-08-04T00:00:00	2024-11-08T03:00:00	8	Radiación solar	0
86665	7	Sololá	704	Santa Lucía Utatlán 	7	Santa Rita 	4	Abril	2023-08-04T00:00:00	2024-11-08T04:00:00	2	Temperatura media	15
86666	7	Sololá	704	Santa Lucía Utatlán 	7	Santa Rita 	4	Abril	2023-08-04T00:00:00	2024-11-08T04:00:00	4	Temperatura máxima	15.6
86667	7	Sololá	704	Santa Lucía Utatlán 	7	Santa Rita 	4	Abril	2023-08-04T00:00:00	2024-11-08T04:00:00	3	Temperatura mínima	15
86668	7	Sololá	704	Santa Lucía Utatlán 	7	Santa Rita 	4	Abril	2023-08-04T00:00:00	2024-11-08T04:00:00	5	Humedad	89
86669	7	Sololá	704	Santa Lucía Utatlán 	7	Santa Rita 	4	Abril	2023-08-04T00:00:00	2024-11-08T04:00:00	6	Velocidad del viento	4.8
86670	7	Sololá	704	Santa Lucía Utatlán 	7	Santa Rita 	4	Abril	2023-08-04T00:00:00	2024-11-08T04:00:00	7	Dirección del viento	4.83
86671	7	Sololá	704	Santa Lucía Utatlán 	7	Santa Rita 	4	Abril	2023-08-04T00:00:00	2024-11-08T04:00:00	1	Precipitación	0
86672	7	Sololá	704	Santa Lucía Utatlán 	7	Santa Rita 	4	Abril	2023-08-04T00:00:00	2024-11-08T04:00:00	8	Radiación solar	0
86673	7	Sololá	704	Santa Lucía Utatlán 	7	Santa Rita 	4	Abril	2023-08-04T00:00:00	2024-11-08T05:00:00	2	Temperatura media	14.8
86674	7	Sololá	704	Santa Lucía Utatlán 	7	Santa Rita 	4	Abril	2023-08-04T00:00:00	2024-11-08T05:00:00	4	Temperatura máxima	15.6
86675	7	Sololá	704	Santa Lucía Utatlán 	7	Santa Rita 	4	Abril	2023-08-04T00:00:00	2024-11-08T05:00:00	3	Temperatura mínima	14.8
86676	7	Sololá	704	Santa Lucía Utatlán 	7	Santa Rita 	4	Abril	2023-08-04T00:00:00	2024-11-08T05:00:00	5	Humedad	86
86677	7	Sololá	704	Santa Lucía Utatlán 	7	Santa Rita 	4	Abril	2023-08-04T00:00:00	2024-11-08T05:00:00	6	Velocidad del viento	3.2
86678	7	Sololá	704	Santa Lucía Utatlán 	7	Santa Rita 	4	Abril	2023-08-04T00:00:00	2024-11-08T05:00:00	7	Dirección del viento	3.22
86679	7	Sololá	704	Santa Lucía Utatlán 	7	Santa Rita 	4	Abril	2023-08-04T00:00:00	2024-11-08T05:00:00	1	Precipitación	0
86680	7	Sololá	704	Santa Lucía Utatlán 	7	Santa Rita 	4	Abril	2023-08-04T00:00:00	2024-11-08T05:00:00	8	Radiación solar	0
86681	7	Sololá	704	Santa Lucía Utatlán 	7	Santa Rita 	4	Abril	2023-08-04T00:00:00	2024-11-08T06:00:00	2	Temperatura media	14.7
86682	7	Sololá	704	Santa Lucía Utatlán 	7	Santa Rita 	4	Abril	2023-08-04T00:00:00	2024-11-08T06:00:00	4	Temperatura máxima	14.8
86683	7	Sololá	704	Santa Lucía Utatlán 	7	Santa Rita 	4	Abril	2023-08-04T00:00:00	2024-11-08T06:00:00	3	Temperatura mínima	14.4
86684	7	Sololá	704	Santa Lucía Utatlán 	7	Santa Rita 	4	Abril	2023-08-04T00:00:00	2024-11-08T06:00:00	5	Humedad	84
86685	7	Sololá	704	Santa Lucía Utatlán 	7	Santa Rita 	4	Abril	2023-08-04T00:00:00	2024-11-08T06:00:00	6	Velocidad del viento	3.2
86686	7	Sololá	704	Santa Lucía Utatlán 	7	Santa Rita 	4	Abril	2023-08-04T00:00:00	2024-11-08T06:00:00	7	Dirección del viento	3.22
86687	7	Sololá	704	Santa Lucía Utatlán 	7	Santa Rita 	4	Abril	2023-08-04T00:00:00	2024-11-08T06:00:00	1	Precipitación	0
86688	7	Sololá	704	Santa Lucía Utatlán 	7	Santa Rita 	4	Abril	2023-08-04T00:00:00	2024-11-08T06:00:00	8	Radiación solar	0
86689	7	Sololá	704	Santa Lucía Utatlán 	7	Santa Rita 	4	Abril	2023-08-04T00:00:00	2024-11-08T07:00:00	2	Temperatura media	15.4
86690	7	Sololá	704	Santa Lucía Utatlán 	7	Santa Rita 	4	Abril	2023-08-04T00:00:00	2024-11-08T07:00:00	4	Temperatura máxima	15.4
86691	7	Sololá	704	Santa Lucía Utatlán 	7	Santa Rita 	4	Abril	2023-08-04T00:00:00	2024-11-08T07:00:00	3	Temperatura mínima	14.7
86692	7	Sololá	704	Santa Lucía Utatlán 	7	Santa Rita 	4	Abril	2023-08-04T00:00:00	2024-11-08T07:00:00	5	Humedad	80
86693	7	Sololá	704	Santa Lucía Utatlán 	7	Santa Rita 	4	Abril	2023-08-04T00:00:00	2024-11-08T07:00:00	6	Velocidad del viento	3.2
86694	7	Sololá	704	Santa Lucía Utatlán 	7	Santa Rita 	4	Abril	2023-08-04T00:00:00	2024-11-08T07:00:00	7	Dirección del viento	3.22
86695	7	Sololá	704	Santa Lucía Utatlán 	7	Santa Rita 	4	Abril	2023-08-04T00:00:00	2024-11-08T07:00:00	1	Precipitación	0
86696	7	Sololá	704	Santa Lucía Utatlán 	7	Santa Rita 	4	Abril	2023-08-04T00:00:00	2024-11-08T07:00:00	8	Radiación solar	1
86697	7	Sololá	704	Santa Lucía Utatlán 	7	Santa Rita 	4	Abril	2023-08-04T00:00:00	2024-11-08T08:00:00	2	Temperatura media	18.2
86698	7	Sololá	704	Santa Lucía Utatlán 	7	Santa Rita 	4	Abril	2023-08-04T00:00:00	2024-11-08T08:00:00	4	Temperatura máxima	18.2
86699	7	Sololá	704	Santa Lucía Utatlán 	7	Santa Rita 	4	Abril	2023-08-04T00:00:00	2024-11-08T08:00:00	3	Temperatura mínima	15.4
86700	7	Sololá	704	Santa Lucía Utatlán 	7	Santa Rita 	4	Abril	2023-08-04T00:00:00	2024-11-08T08:00:00	5	Humedad	74
86701	7	Sololá	704	Santa Lucía Utatlán 	7	Santa Rita 	4	Abril	2023-08-04T00:00:00	2024-11-08T08:00:00	6	Velocidad del viento	1.6
86702	7	Sololá	704	Santa Lucía Utatlán 	7	Santa Rita 	4	Abril	2023-08-04T00:00:00	2024-11-08T08:00:00	7	Dirección del viento	1.61
86703	7	Sololá	704	Santa Lucía Utatlán 	7	Santa Rita 	4	Abril	2023-08-04T00:00:00	2024-11-08T08:00:00	1	Precipitación	0
86704	7	Sololá	704	Santa Lucía Utatlán 	7	Santa Rita 	4	Abril	2023-08-04T00:00:00	2024-11-08T08:00:00	8	Radiación solar	92
86705	7	Sololá	704	Santa Lucía Utatlán 	7	Santa Rita 	4	Abril	2023-08-04T00:00:00	2024-11-08T09:00:00	2	Temperatura media	20.2
86706	7	Sololá	704	Santa Lucía Utatlán 	7	Santa Rita 	4	Abril	2023-08-04T00:00:00	2024-11-08T09:00:00	4	Temperatura máxima	20.2
86707	7	Sololá	704	Santa Lucía Utatlán 	7	Santa Rita 	4	Abril	2023-08-04T00:00:00	2024-11-08T09:00:00	3	Temperatura mínima	18.2
86708	7	Sololá	704	Santa Lucía Utatlán 	7	Santa Rita 	4	Abril	2023-08-04T00:00:00	2024-11-08T09:00:00	5	Humedad	70
86709	7	Sololá	704	Santa Lucía Utatlán 	7	Santa Rita 	4	Abril	2023-08-04T00:00:00	2024-11-08T09:00:00	6	Velocidad del viento	3.2
86710	7	Sololá	704	Santa Lucía Utatlán 	7	Santa Rita 	4	Abril	2023-08-04T00:00:00	2024-11-08T09:00:00	7	Dirección del viento	3.22
86711	7	Sololá	704	Santa Lucía Utatlán 	7	Santa Rita 	4	Abril	2023-08-04T00:00:00	2024-11-08T09:00:00	1	Precipitación	0
86712	7	Sololá	704	Santa Lucía Utatlán 	7	Santa Rita 	4	Abril	2023-08-04T00:00:00	2024-11-08T09:00:00	8	Radiación solar	372
86713	7	Sololá	704	Santa Lucía Utatlán 	7	Santa Rita 	4	Abril	2023-08-04T00:00:00	2024-11-08T10:00:00	2	Temperatura media	22.3
86714	7	Sololá	704	Santa Lucía Utatlán 	7	Santa Rita 	4	Abril	2023-08-04T00:00:00	2024-11-08T10:00:00	4	Temperatura máxima	22.7
86715	7	Sololá	704	Santa Lucía Utatlán 	7	Santa Rita 	4	Abril	2023-08-04T00:00:00	2024-11-08T10:00:00	3	Temperatura mínima	20.2
86716	7	Sololá	704	Santa Lucía Utatlán 	7	Santa Rita 	4	Abril	2023-08-04T00:00:00	2024-11-08T10:00:00	5	Humedad	59
86717	7	Sololá	704	Santa Lucía Utatlán 	7	Santa Rita 	4	Abril	2023-08-04T00:00:00	2024-11-08T10:00:00	6	Velocidad del viento	4.8
86718	7	Sololá	704	Santa Lucía Utatlán 	7	Santa Rita 	4	Abril	2023-08-04T00:00:00	2024-11-08T10:00:00	7	Dirección del viento	4.83
86719	7	Sololá	704	Santa Lucía Utatlán 	7	Santa Rita 	4	Abril	2023-08-04T00:00:00	2024-11-08T10:00:00	1	Precipitación	0
86720	7	Sololá	704	Santa Lucía Utatlán 	7	Santa Rita 	4	Abril	2023-08-04T00:00:00	2024-11-08T10:00:00	8	Radiación solar	604
86721	7	Sololá	704	Santa Lucía Utatlán 	7	Santa Rita 	4	Abril	2023-08-04T00:00:00	2024-11-08T11:00:00	2	Temperatura media	23.1
86722	7	Sololá	704	Santa Lucía Utatlán 	7	Santa Rita 	4	Abril	2023-08-04T00:00:00	2024-11-08T11:00:00	4	Temperatura máxima	23.3
86723	7	Sololá	704	Santa Lucía Utatlán 	7	Santa Rita 	4	Abril	2023-08-04T00:00:00	2024-11-08T11:00:00	3	Temperatura mínima	22.3
86724	7	Sololá	704	Santa Lucía Utatlán 	7	Santa Rita 	4	Abril	2023-08-04T00:00:00	2024-11-08T11:00:00	5	Humedad	62
86725	7	Sololá	704	Santa Lucía Utatlán 	7	Santa Rita 	4	Abril	2023-08-04T00:00:00	2024-11-08T11:00:00	6	Velocidad del viento	6.4
86726	7	Sololá	704	Santa Lucía Utatlán 	7	Santa Rita 	4	Abril	2023-08-04T00:00:00	2024-11-08T11:00:00	7	Dirección del viento	6.44
86727	7	Sololá	704	Santa Lucía Utatlán 	7	Santa Rita 	4	Abril	2023-08-04T00:00:00	2024-11-08T11:00:00	1	Precipitación	0
86728	7	Sololá	704	Santa Lucía Utatlán 	7	Santa Rita 	4	Abril	2023-08-04T00:00:00	2024-11-08T11:00:00	8	Radiación solar	827
86729	7	Sololá	704	Santa Lucía Utatlán 	7	Santa Rita 	4	Abril	2023-08-04T00:00:00	2024-11-08T12:00:00	2	Temperatura media	24.3
86730	7	Sololá	704	Santa Lucía Utatlán 	7	Santa Rita 	4	Abril	2023-08-04T00:00:00	2024-11-08T12:00:00	4	Temperatura máxima	25.1
86731	7	Sololá	704	Santa Lucía Utatlán 	7	Santa Rita 	4	Abril	2023-08-04T00:00:00	2024-11-08T12:00:00	3	Temperatura mínima	23.2
86732	7	Sololá	704	Santa Lucía Utatlán 	7	Santa Rita 	4	Abril	2023-08-04T00:00:00	2024-11-08T12:00:00	5	Humedad	57
86733	7	Sololá	704	Santa Lucía Utatlán 	7	Santa Rita 	4	Abril	2023-08-04T00:00:00	2024-11-08T12:00:00	6	Velocidad del viento	8
86734	7	Sololá	704	Santa Lucía Utatlán 	7	Santa Rita 	4	Abril	2023-08-04T00:00:00	2024-11-08T12:00:00	7	Dirección del viento	8.05
86735	7	Sololá	704	Santa Lucía Utatlán 	7	Santa Rita 	4	Abril	2023-08-04T00:00:00	2024-11-08T12:00:00	1	Precipitación	0
86736	7	Sololá	704	Santa Lucía Utatlán 	7	Santa Rita 	4	Abril	2023-08-04T00:00:00	2024-11-08T12:00:00	8	Radiación solar	1004
86737	7	Sololá	704	Santa Lucía Utatlán 	7	Santa Rita 	4	Abril	2023-08-04T00:00:00	2024-11-08T13:00:00	2	Temperatura media	24.6
86738	7	Sololá	704	Santa Lucía Utatlán 	7	Santa Rita 	4	Abril	2023-08-04T00:00:00	2024-11-08T13:00:00	4	Temperatura máxima	25.1
86739	7	Sololá	704	Santa Lucía Utatlán 	7	Santa Rita 	4	Abril	2023-08-04T00:00:00	2024-11-08T13:00:00	3	Temperatura mínima	24.2
86740	7	Sololá	704	Santa Lucía Utatlán 	7	Santa Rita 	4	Abril	2023-08-04T00:00:00	2024-11-08T13:00:00	5	Humedad	60
86741	7	Sololá	704	Santa Lucía Utatlán 	7	Santa Rita 	4	Abril	2023-08-04T00:00:00	2024-11-08T13:00:00	6	Velocidad del viento	9.7
86742	7	Sololá	704	Santa Lucía Utatlán 	7	Santa Rita 	4	Abril	2023-08-04T00:00:00	2024-11-08T13:00:00	7	Dirección del viento	9.66
86743	7	Sololá	704	Santa Lucía Utatlán 	7	Santa Rita 	4	Abril	2023-08-04T00:00:00	2024-11-08T13:00:00	1	Precipitación	0
86744	7	Sololá	704	Santa Lucía Utatlán 	7	Santa Rita 	4	Abril	2023-08-04T00:00:00	2024-11-08T13:00:00	8	Radiación solar	1028
86745	7	Sololá	704	Santa Lucía Utatlán 	7	Santa Rita 	4	Abril	2023-08-04T00:00:00	2024-11-08T14:00:00	2	Temperatura media	23.6
86746	7	Sololá	704	Santa Lucía Utatlán 	7	Santa Rita 	4	Abril	2023-08-04T00:00:00	2024-11-08T14:00:00	4	Temperatura máxima	24.6
86747	7	Sololá	704	Santa Lucía Utatlán 	7	Santa Rita 	4	Abril	2023-08-04T00:00:00	2024-11-08T14:00:00	3	Temperatura mínima	23.4
86748	7	Sololá	704	Santa Lucía Utatlán 	7	Santa Rita 	4	Abril	2023-08-04T00:00:00	2024-11-08T14:00:00	5	Humedad	68
86749	7	Sololá	704	Santa Lucía Utatlán 	7	Santa Rita 	4	Abril	2023-08-04T00:00:00	2024-11-08T14:00:00	6	Velocidad del viento	6.4
86750	7	Sololá	704	Santa Lucía Utatlán 	7	Santa Rita 	4	Abril	2023-08-04T00:00:00	2024-11-08T14:00:00	7	Dirección del viento	6.44
86751	7	Sololá	704	Santa Lucía Utatlán 	7	Santa Rita 	4	Abril	2023-08-04T00:00:00	2024-11-08T14:00:00	1	Precipitación	0
86752	7	Sololá	704	Santa Lucía Utatlán 	7	Santa Rita 	4	Abril	2023-08-04T00:00:00	2024-11-08T14:00:00	8	Radiación solar	291
86753	7	Sololá	704	Santa Lucía Utatlán 	7	Santa Rita 	4	Abril	2023-08-04T00:00:00	2024-11-08T15:00:00	2	Temperatura media	23.1
86754	7	Sololá	704	Santa Lucía Utatlán 	7	Santa Rita 	4	Abril	2023-08-04T00:00:00	2024-11-08T15:00:00	4	Temperatura máxima	23.8
86755	7	Sololá	704	Santa Lucía Utatlán 	7	Santa Rita 	4	Abril	2023-08-04T00:00:00	2024-11-08T15:00:00	3	Temperatura mínima	23.1
86756	7	Sololá	704	Santa Lucía Utatlán 	7	Santa Rita 	4	Abril	2023-08-04T00:00:00	2024-11-08T15:00:00	5	Humedad	72
86757	7	Sololá	704	Santa Lucía Utatlán 	7	Santa Rita 	4	Abril	2023-08-04T00:00:00	2024-11-08T15:00:00	6	Velocidad del viento	6.4
86758	7	Sololá	704	Santa Lucía Utatlán 	7	Santa Rita 	4	Abril	2023-08-04T00:00:00	2024-11-08T15:00:00	7	Dirección del viento	6.44
86759	7	Sololá	704	Santa Lucía Utatlán 	7	Santa Rita 	4	Abril	2023-08-04T00:00:00	2024-11-08T15:00:00	1	Precipitación	0
86760	7	Sololá	704	Santa Lucía Utatlán 	7	Santa Rita 	4	Abril	2023-08-04T00:00:00	2024-11-08T15:00:00	8	Radiación solar	266
86761	7	Sololá	704	Santa Lucía Utatlán 	7	Santa Rita 	4	Abril	2023-08-04T00:00:00	2024-11-08T16:00:00	2	Temperatura media	24
86762	7	Sololá	704	Santa Lucía Utatlán 	7	Santa Rita 	4	Abril	2023-08-04T00:00:00	2024-11-08T16:00:00	4	Temperatura máxima	24.1
86763	7	Sololá	704	Santa Lucía Utatlán 	7	Santa Rita 	4	Abril	2023-08-04T00:00:00	2024-11-08T16:00:00	3	Temperatura mínima	23.1
86764	7	Sololá	704	Santa Lucía Utatlán 	7	Santa Rita 	4	Abril	2023-08-04T00:00:00	2024-11-08T16:00:00	5	Humedad	68
86765	7	Sololá	704	Santa Lucía Utatlán 	7	Santa Rita 	4	Abril	2023-08-04T00:00:00	2024-11-08T16:00:00	6	Velocidad del viento	8
86766	7	Sololá	704	Santa Lucía Utatlán 	7	Santa Rita 	4	Abril	2023-08-04T00:00:00	2024-11-08T16:00:00	7	Dirección del viento	8.05
86767	7	Sololá	704	Santa Lucía Utatlán 	7	Santa Rita 	4	Abril	2023-08-04T00:00:00	2024-11-08T16:00:00	1	Precipitación	0
86768	7	Sololá	704	Santa Lucía Utatlán 	7	Santa Rita 	4	Abril	2023-08-04T00:00:00	2024-11-08T16:00:00	8	Radiación solar	249
86769	7	Sololá	704	Santa Lucía Utatlán 	7	Santa Rita 	4	Abril	2023-08-04T00:00:00	2024-11-08T17:00:00	2	Temperatura media	23.3
86770	7	Sololá	704	Santa Lucía Utatlán 	7	Santa Rita 	4	Abril	2023-08-04T00:00:00	2024-11-08T17:00:00	4	Temperatura máxima	23.9
86771	7	Sololá	704	Santa Lucía Utatlán 	7	Santa Rita 	4	Abril	2023-08-04T00:00:00	2024-11-08T17:00:00	3	Temperatura mínima	22.9
86772	7	Sololá	704	Santa Lucía Utatlán 	7	Santa Rita 	4	Abril	2023-08-04T00:00:00	2024-11-08T17:00:00	5	Humedad	68
86773	7	Sololá	704	Santa Lucía Utatlán 	7	Santa Rita 	4	Abril	2023-08-04T00:00:00	2024-11-08T17:00:00	6	Velocidad del viento	8
86774	7	Sololá	704	Santa Lucía Utatlán 	7	Santa Rita 	4	Abril	2023-08-04T00:00:00	2024-11-08T17:00:00	7	Dirección del viento	8.05
86775	7	Sololá	704	Santa Lucía Utatlán 	7	Santa Rita 	4	Abril	2023-08-04T00:00:00	2024-11-08T17:00:00	1	Precipitación	0
86776	7	Sololá	704	Santa Lucía Utatlán 	7	Santa Rita 	4	Abril	2023-08-04T00:00:00	2024-11-08T17:00:00	8	Radiación solar	209
86777	7	Sololá	704	Santa Lucía Utatlán 	7	Santa Rita 	4	Abril	2023-08-04T00:00:00	2024-11-08T18:00:00	2	Temperatura media	23.1
86778	7	Sololá	704	Santa Lucía Utatlán 	7	Santa Rita 	4	Abril	2023-08-04T00:00:00	2024-11-08T18:00:00	4	Temperatura máxima	23.3
86779	7	Sololá	704	Santa Lucía Utatlán 	7	Santa Rita 	4	Abril	2023-08-04T00:00:00	2024-11-08T18:00:00	3	Temperatura mínima	22.8
86780	7	Sololá	704	Santa Lucía Utatlán 	7	Santa Rita 	4	Abril	2023-08-04T00:00:00	2024-11-08T18:00:00	5	Humedad	55
86781	7	Sololá	704	Santa Lucía Utatlán 	7	Santa Rita 	4	Abril	2023-08-04T00:00:00	2024-11-08T18:00:00	6	Velocidad del viento	11.3
86782	7	Sololá	704	Santa Lucía Utatlán 	7	Santa Rita 	4	Abril	2023-08-04T00:00:00	2024-11-08T18:00:00	7	Dirección del viento	11.27
86783	7	Sololá	704	Santa Lucía Utatlán 	7	Santa Rita 	4	Abril	2023-08-04T00:00:00	2024-11-08T18:00:00	1	Precipitación	0
86784	7	Sololá	704	Santa Lucía Utatlán 	7	Santa Rita 	4	Abril	2023-08-04T00:00:00	2024-11-08T18:00:00	8	Radiación solar	152
86785	7	Sololá	704	Santa Lucía Utatlán 	7	Santa Rita 	4	Abril	2023-08-04T00:00:00	2024-11-08T19:00:00	2	Temperatura media	21.1
86786	7	Sololá	704	Santa Lucía Utatlán 	7	Santa Rita 	4	Abril	2023-08-04T00:00:00	2024-11-08T19:00:00	4	Temperatura máxima	23.1
86787	7	Sololá	704	Santa Lucía Utatlán 	7	Santa Rita 	4	Abril	2023-08-04T00:00:00	2024-11-08T19:00:00	3	Temperatura mínima	21.1
86788	7	Sololá	704	Santa Lucía Utatlán 	7	Santa Rita 	4	Abril	2023-08-04T00:00:00	2024-11-08T19:00:00	5	Humedad	61
86789	7	Sololá	704	Santa Lucía Utatlán 	7	Santa Rita 	4	Abril	2023-08-04T00:00:00	2024-11-08T19:00:00	6	Velocidad del viento	9.7
86790	7	Sololá	704	Santa Lucía Utatlán 	7	Santa Rita 	4	Abril	2023-08-04T00:00:00	2024-11-08T19:00:00	7	Dirección del viento	9.66
86791	7	Sololá	704	Santa Lucía Utatlán 	7	Santa Rita 	4	Abril	2023-08-04T00:00:00	2024-11-08T19:00:00	1	Precipitación	0
86792	7	Sololá	704	Santa Lucía Utatlán 	7	Santa Rita 	4	Abril	2023-08-04T00:00:00	2024-11-08T19:00:00	8	Radiación solar	0
86793	7	Sololá	704	Santa Lucía Utatlán 	7	Santa Rita 	4	Abril	2023-08-04T00:00:00	2024-11-08T20:00:00	2	Temperatura media	19.6
86794	7	Sololá	704	Santa Lucía Utatlán 	7	Santa Rita 	4	Abril	2023-08-04T00:00:00	2024-11-08T20:00:00	4	Temperatura máxima	21.1
86795	7	Sololá	704	Santa Lucía Utatlán 	7	Santa Rita 	4	Abril	2023-08-04T00:00:00	2024-11-08T20:00:00	3	Temperatura mínima	19.5
86796	7	Sololá	704	Santa Lucía Utatlán 	7	Santa Rita 	4	Abril	2023-08-04T00:00:00	2024-11-08T20:00:00	5	Humedad	66
86797	7	Sololá	704	Santa Lucía Utatlán 	7	Santa Rita 	4	Abril	2023-08-04T00:00:00	2024-11-08T20:00:00	6	Velocidad del viento	6.4
86798	7	Sololá	704	Santa Lucía Utatlán 	7	Santa Rita 	4	Abril	2023-08-04T00:00:00	2024-11-08T20:00:00	7	Dirección del viento	6.44
86799	7	Sololá	704	Santa Lucía Utatlán 	7	Santa Rita 	4	Abril	2023-08-04T00:00:00	2024-11-08T20:00:00	1	Precipitación	0
86800	7	Sololá	704	Santa Lucía Utatlán 	7	Santa Rita 	4	Abril	2023-08-04T00:00:00	2024-11-08T20:00:00	8	Radiación solar	0
86801	7	Sololá	704	Santa Lucía Utatlán 	7	Santa Rita 	4	Abril	2023-08-04T00:00:00	2024-11-08T21:00:00	2	Temperatura media	18.4
86802	7	Sololá	704	Santa Lucía Utatlán 	7	Santa Rita 	4	Abril	2023-08-04T00:00:00	2024-11-08T21:00:00	4	Temperatura máxima	19.6
86803	7	Sololá	704	Santa Lucía Utatlán 	7	Santa Rita 	4	Abril	2023-08-04T00:00:00	2024-11-08T21:00:00	3	Temperatura mínima	18.4
86804	7	Sololá	704	Santa Lucía Utatlán 	7	Santa Rita 	4	Abril	2023-08-04T00:00:00	2024-11-08T21:00:00	5	Humedad	69
86805	7	Sololá	704	Santa Lucía Utatlán 	7	Santa Rita 	4	Abril	2023-08-04T00:00:00	2024-11-08T21:00:00	6	Velocidad del viento	8
86806	7	Sololá	704	Santa Lucía Utatlán 	7	Santa Rita 	4	Abril	2023-08-04T00:00:00	2024-11-08T21:00:00	7	Dirección del viento	8.05
86807	7	Sololá	704	Santa Lucía Utatlán 	7	Santa Rita 	4	Abril	2023-08-04T00:00:00	2024-11-08T21:00:00	1	Precipitación	0
86808	7	Sololá	704	Santa Lucía Utatlán 	7	Santa Rita 	4	Abril	2023-08-04T00:00:00	2024-11-08T21:00:00	8	Radiación solar	0
86809	7	Sololá	704	Santa Lucía Utatlán 	7	Santa Rita 	4	Abril	2023-08-04T00:00:00	2024-11-08T22:00:00	2	Temperatura media	16.4
86810	7	Sololá	704	Santa Lucía Utatlán 	7	Santa Rita 	4	Abril	2023-08-04T00:00:00	2024-11-08T22:00:00	4	Temperatura máxima	18.4
86811	7	Sololá	704	Santa Lucía Utatlán 	7	Santa Rita 	4	Abril	2023-08-04T00:00:00	2024-11-08T22:00:00	3	Temperatura mínima	16.4
86812	7	Sololá	704	Santa Lucía Utatlán 	7	Santa Rita 	4	Abril	2023-08-04T00:00:00	2024-11-08T22:00:00	5	Humedad	74
86813	7	Sololá	704	Santa Lucía Utatlán 	7	Santa Rita 	4	Abril	2023-08-04T00:00:00	2024-11-08T22:00:00	6	Velocidad del viento	3.2
86814	7	Sololá	704	Santa Lucía Utatlán 	7	Santa Rita 	4	Abril	2023-08-04T00:00:00	2024-11-08T22:00:00	7	Dirección del viento	3.22
86815	7	Sololá	704	Santa Lucía Utatlán 	7	Santa Rita 	4	Abril	2023-08-04T00:00:00	2024-11-08T22:00:00	1	Precipitación	0
86816	7	Sololá	704	Santa Lucía Utatlán 	7	Santa Rita 	4	Abril	2023-08-04T00:00:00	2024-11-08T22:00:00	8	Radiación solar	0
86817	7	Sololá	704	Santa Lucía Utatlán 	7	Santa Rita 	4	Abril	2023-08-04T00:00:00	2024-11-08T23:00:00	2	Temperatura media	17.3
86818	7	Sololá	704	Santa Lucía Utatlán 	7	Santa Rita 	4	Abril	2023-08-04T00:00:00	2024-11-08T23:00:00	4	Temperatura máxima	17.3
86819	7	Sololá	704	Santa Lucía Utatlán 	7	Santa Rita 	4	Abril	2023-08-04T00:00:00	2024-11-08T23:00:00	3	Temperatura mínima	15.4
86820	7	Sololá	704	Santa Lucía Utatlán 	7	Santa Rita 	4	Abril	2023-08-04T00:00:00	2024-11-08T23:00:00	5	Humedad	69
86821	7	Sololá	704	Santa Lucía Utatlán 	7	Santa Rita 	4	Abril	2023-08-04T00:00:00	2024-11-08T23:00:00	6	Velocidad del viento	4.8
86822	7	Sololá	704	Santa Lucía Utatlán 	7	Santa Rita 	4	Abril	2023-08-04T00:00:00	2024-11-08T23:00:00	7	Dirección del viento	4.83
86823	7	Sololá	704	Santa Lucía Utatlán 	7	Santa Rita 	4	Abril	2023-08-04T00:00:00	2024-11-08T23:00:00	1	Precipitación	0
86824	7	Sololá	704	Santa Lucía Utatlán 	7	Santa Rita 	4	Abril	2023-08-04T00:00:00	2024-11-08T23:00:00	8	Radiación solar	0
86825	7	Sololá	704	Santa Lucía Utatlán 	7	Santa Rita 	4	Abril	2023-09-04T00:00:00	2024-11-08T00:00:00	2	Temperatura media	16.8
86826	7	Sololá	704	Santa Lucía Utatlán 	7	Santa Rita 	4	Abril	2023-09-04T00:00:00	2024-11-08T00:00:00	4	Temperatura máxima	17.3
86827	7	Sololá	704	Santa Lucía Utatlán 	7	Santa Rita 	4	Abril	2023-09-04T00:00:00	2024-11-08T00:00:00	3	Temperatura mínima	16.8
86828	7	Sololá	704	Santa Lucía Utatlán 	7	Santa Rita 	4	Abril	2023-09-04T00:00:00	2024-11-08T00:00:00	5	Humedad	64
86829	7	Sololá	704	Santa Lucía Utatlán 	7	Santa Rita 	4	Abril	2023-09-04T00:00:00	2024-11-08T00:00:00	6	Velocidad del viento	14.5
86830	7	Sololá	704	Santa Lucía Utatlán 	7	Santa Rita 	4	Abril	2023-09-04T00:00:00	2024-11-08T00:00:00	7	Dirección del viento	14.48
86831	7	Sololá	704	Santa Lucía Utatlán 	7	Santa Rita 	4	Abril	2023-09-04T00:00:00	2024-11-08T00:00:00	1	Precipitación	0
86832	7	Sololá	704	Santa Lucía Utatlán 	7	Santa Rita 	4	Abril	2023-09-04T00:00:00	2024-11-08T00:00:00	8	Radiación solar	0
86833	7	Sololá	704	Santa Lucía Utatlán 	7	Santa Rita 	4	Abril	2023-09-04T00:00:00	2024-11-08T01:00:00	2	Temperatura media	15.7
86834	7	Sololá	704	Santa Lucía Utatlán 	7	Santa Rita 	4	Abril	2023-09-04T00:00:00	2024-11-08T01:00:00	4	Temperatura máxima	16.8
86835	7	Sololá	704	Santa Lucía Utatlán 	7	Santa Rita 	4	Abril	2023-09-04T00:00:00	2024-11-08T01:00:00	3	Temperatura mínima	15.7
86836	7	Sololá	704	Santa Lucía Utatlán 	7	Santa Rita 	4	Abril	2023-09-04T00:00:00	2024-11-08T01:00:00	5	Humedad	69
86837	7	Sololá	704	Santa Lucía Utatlán 	7	Santa Rita 	4	Abril	2023-09-04T00:00:00	2024-11-08T01:00:00	6	Velocidad del viento	9.7
86838	7	Sololá	704	Santa Lucía Utatlán 	7	Santa Rita 	4	Abril	2023-09-04T00:00:00	2024-11-08T01:00:00	7	Dirección del viento	9.66
86839	7	Sololá	704	Santa Lucía Utatlán 	7	Santa Rita 	4	Abril	2023-09-04T00:00:00	2024-11-08T01:00:00	1	Precipitación	0
86840	7	Sololá	704	Santa Lucía Utatlán 	7	Santa Rita 	4	Abril	2023-09-04T00:00:00	2024-11-08T01:00:00	8	Radiación solar	0
86841	7	Sololá	704	Santa Lucía Utatlán 	7	Santa Rita 	4	Abril	2023-09-04T00:00:00	2024-11-08T02:00:00	2	Temperatura media	13.4
86842	7	Sololá	704	Santa Lucía Utatlán 	7	Santa Rita 	4	Abril	2023-09-04T00:00:00	2024-11-08T02:00:00	4	Temperatura máxima	15.7
86843	7	Sololá	704	Santa Lucía Utatlán 	7	Santa Rita 	4	Abril	2023-09-04T00:00:00	2024-11-08T02:00:00	3	Temperatura mínima	13.4
86844	7	Sololá	704	Santa Lucía Utatlán 	7	Santa Rita 	4	Abril	2023-09-04T00:00:00	2024-11-08T02:00:00	5	Humedad	73
86845	7	Sololá	704	Santa Lucía Utatlán 	7	Santa Rita 	4	Abril	2023-09-04T00:00:00	2024-11-08T02:00:00	6	Velocidad del viento	3.2
86846	7	Sololá	704	Santa Lucía Utatlán 	7	Santa Rita 	4	Abril	2023-09-04T00:00:00	2024-11-08T02:00:00	7	Dirección del viento	3.22
86847	7	Sololá	704	Santa Lucía Utatlán 	7	Santa Rita 	4	Abril	2023-09-04T00:00:00	2024-11-08T02:00:00	1	Precipitación	0
86848	7	Sololá	704	Santa Lucía Utatlán 	7	Santa Rita 	4	Abril	2023-09-04T00:00:00	2024-11-08T02:00:00	8	Radiación solar	0
86849	7	Sololá	704	Santa Lucía Utatlán 	7	Santa Rita 	4	Abril	2023-09-04T00:00:00	2024-11-08T03:00:00	2	Temperatura media	13
86850	7	Sololá	704	Santa Lucía Utatlán 	7	Santa Rita 	4	Abril	2023-09-04T00:00:00	2024-11-08T03:00:00	4	Temperatura máxima	13.7
86851	7	Sololá	704	Santa Lucía Utatlán 	7	Santa Rita 	4	Abril	2023-09-04T00:00:00	2024-11-08T03:00:00	3	Temperatura mínima	13
86852	7	Sololá	704	Santa Lucía Utatlán 	7	Santa Rita 	4	Abril	2023-09-04T00:00:00	2024-11-08T03:00:00	5	Humedad	71
86853	7	Sololá	704	Santa Lucía Utatlán 	7	Santa Rita 	4	Abril	2023-09-04T00:00:00	2024-11-08T03:00:00	6	Velocidad del viento	1.6
86854	7	Sololá	704	Santa Lucía Utatlán 	7	Santa Rita 	4	Abril	2023-09-04T00:00:00	2024-11-08T03:00:00	7	Dirección del viento	1.61
86855	7	Sololá	704	Santa Lucía Utatlán 	7	Santa Rita 	4	Abril	2023-09-04T00:00:00	2024-11-08T03:00:00	1	Precipitación	0
86856	7	Sololá	704	Santa Lucía Utatlán 	7	Santa Rita 	4	Abril	2023-09-04T00:00:00	2024-11-08T03:00:00	8	Radiación solar	0
86857	7	Sololá	704	Santa Lucía Utatlán 	7	Santa Rita 	4	Abril	2023-09-04T00:00:00	2024-11-08T04:00:00	2	Temperatura media	13.2
86858	7	Sololá	704	Santa Lucía Utatlán 	7	Santa Rita 	4	Abril	2023-09-04T00:00:00	2024-11-08T04:00:00	4	Temperatura máxima	13.2
86859	7	Sololá	704	Santa Lucía Utatlán 	7	Santa Rita 	4	Abril	2023-09-04T00:00:00	2024-11-08T04:00:00	3	Temperatura mínima	12.6
86860	7	Sololá	704	Santa Lucía Utatlán 	7	Santa Rita 	4	Abril	2023-09-04T00:00:00	2024-11-08T04:00:00	5	Humedad	73
86861	7	Sololá	704	Santa Lucía Utatlán 	7	Santa Rita 	4	Abril	2023-09-04T00:00:00	2024-11-08T04:00:00	6	Velocidad del viento	3.2
86862	7	Sololá	704	Santa Lucía Utatlán 	7	Santa Rita 	4	Abril	2023-09-04T00:00:00	2024-11-08T04:00:00	7	Dirección del viento	3.22
86863	7	Sololá	704	Santa Lucía Utatlán 	7	Santa Rita 	4	Abril	2023-09-04T00:00:00	2024-11-08T04:00:00	1	Precipitación	0
86864	7	Sololá	704	Santa Lucía Utatlán 	7	Santa Rita 	4	Abril	2023-09-04T00:00:00	2024-11-08T04:00:00	8	Radiación solar	0
86865	7	Sololá	704	Santa Lucía Utatlán 	7	Santa Rita 	4	Abril	2023-09-04T00:00:00	2024-11-08T05:00:00	2	Temperatura media	13.9
86866	7	Sololá	704	Santa Lucía Utatlán 	7	Santa Rita 	4	Abril	2023-09-04T00:00:00	2024-11-08T05:00:00	4	Temperatura máxima	14.9
86867	7	Sololá	704	Santa Lucía Utatlán 	7	Santa Rita 	4	Abril	2023-09-04T00:00:00	2024-11-08T05:00:00	3	Temperatura mínima	13.2
86868	7	Sololá	704	Santa Lucía Utatlán 	7	Santa Rita 	4	Abril	2023-09-04T00:00:00	2024-11-08T05:00:00	5	Humedad	72
86869	7	Sololá	704	Santa Lucía Utatlán 	7	Santa Rita 	4	Abril	2023-09-04T00:00:00	2024-11-08T05:00:00	6	Velocidad del viento	3.2
86870	7	Sololá	704	Santa Lucía Utatlán 	7	Santa Rita 	4	Abril	2023-09-04T00:00:00	2024-11-08T05:00:00	7	Dirección del viento	3.22
86871	7	Sololá	704	Santa Lucía Utatlán 	7	Santa Rita 	4	Abril	2023-09-04T00:00:00	2024-11-08T05:00:00	1	Precipitación	0
86872	7	Sololá	704	Santa Lucía Utatlán 	7	Santa Rita 	4	Abril	2023-09-04T00:00:00	2024-11-08T05:00:00	8	Radiación solar	0
86873	7	Sololá	704	Santa Lucía Utatlán 	7	Santa Rita 	4	Abril	2023-09-04T00:00:00	2024-11-08T06:00:00	2	Temperatura media	15.1
86874	7	Sololá	704	Santa Lucía Utatlán 	7	Santa Rita 	4	Abril	2023-09-04T00:00:00	2024-11-08T06:00:00	4	Temperatura máxima	15.1
86875	7	Sololá	704	Santa Lucía Utatlán 	7	Santa Rita 	4	Abril	2023-09-04T00:00:00	2024-11-08T06:00:00	3	Temperatura mínima	12.9
86876	7	Sololá	704	Santa Lucía Utatlán 	7	Santa Rita 	4	Abril	2023-09-04T00:00:00	2024-11-08T06:00:00	5	Humedad	70
86877	7	Sololá	704	Santa Lucía Utatlán 	7	Santa Rita 	4	Abril	2023-09-04T00:00:00	2024-11-08T06:00:00	6	Velocidad del viento	3.2
86878	7	Sololá	704	Santa Lucía Utatlán 	7	Santa Rita 	4	Abril	2023-09-04T00:00:00	2024-11-08T06:00:00	7	Dirección del viento	3.22
86879	7	Sololá	704	Santa Lucía Utatlán 	7	Santa Rita 	4	Abril	2023-09-04T00:00:00	2024-11-08T06:00:00	1	Precipitación	0
86880	7	Sololá	704	Santa Lucía Utatlán 	7	Santa Rita 	4	Abril	2023-09-04T00:00:00	2024-11-08T06:00:00	8	Radiación solar	0
86881	7	Sololá	704	Santa Lucía Utatlán 	7	Santa Rita 	4	Abril	2023-09-04T00:00:00	2024-11-08T07:00:00	2	Temperatura media	14.7
86882	7	Sololá	704	Santa Lucía Utatlán 	7	Santa Rita 	4	Abril	2023-09-04T00:00:00	2024-11-08T07:00:00	4	Temperatura máxima	15.7
86883	7	Sololá	704	Santa Lucía Utatlán 	7	Santa Rita 	4	Abril	2023-09-04T00:00:00	2024-11-08T07:00:00	3	Temperatura mínima	14.7
86884	7	Sololá	704	Santa Lucía Utatlán 	7	Santa Rita 	4	Abril	2023-09-04T00:00:00	2024-11-08T07:00:00	5	Humedad	69
86885	7	Sololá	704	Santa Lucía Utatlán 	7	Santa Rita 	4	Abril	2023-09-04T00:00:00	2024-11-08T07:00:00	6	Velocidad del viento	3.2
86886	7	Sololá	704	Santa Lucía Utatlán 	7	Santa Rita 	4	Abril	2023-09-04T00:00:00	2024-11-08T07:00:00	7	Dirección del viento	3.22
86887	7	Sololá	704	Santa Lucía Utatlán 	7	Santa Rita 	4	Abril	2023-09-04T00:00:00	2024-11-08T07:00:00	1	Precipitación	0
86888	7	Sololá	704	Santa Lucía Utatlán 	7	Santa Rita 	4	Abril	2023-09-04T00:00:00	2024-11-08T07:00:00	8	Radiación solar	1
86889	7	Sololá	704	Santa Lucía Utatlán 	7	Santa Rita 	4	Abril	2023-09-04T00:00:00	2024-11-08T08:00:00	2	Temperatura media	18.6
86890	7	Sololá	704	Santa Lucía Utatlán 	7	Santa Rita 	4	Abril	2023-09-04T00:00:00	2024-11-08T08:00:00	4	Temperatura máxima	18.6
86891	7	Sololá	704	Santa Lucía Utatlán 	7	Santa Rita 	4	Abril	2023-09-04T00:00:00	2024-11-08T08:00:00	3	Temperatura mínima	14.2
86892	7	Sololá	704	Santa Lucía Utatlán 	7	Santa Rita 	4	Abril	2023-09-04T00:00:00	2024-11-08T08:00:00	5	Humedad	54
86893	7	Sololá	704	Santa Lucía Utatlán 	7	Santa Rita 	4	Abril	2023-09-04T00:00:00	2024-11-08T08:00:00	6	Velocidad del viento	6.4
86894	7	Sololá	704	Santa Lucía Utatlán 	7	Santa Rita 	4	Abril	2023-09-04T00:00:00	2024-11-08T08:00:00	7	Dirección del viento	6.44
86895	7	Sololá	704	Santa Lucía Utatlán 	7	Santa Rita 	4	Abril	2023-09-04T00:00:00	2024-11-08T08:00:00	1	Precipitación	0
86896	7	Sololá	704	Santa Lucía Utatlán 	7	Santa Rita 	4	Abril	2023-09-04T00:00:00	2024-11-08T08:00:00	8	Radiación solar	98
86897	7	Sololá	704	Santa Lucía Utatlán 	7	Santa Rita 	4	Abril	2023-09-04T00:00:00	2024-11-08T09:00:00	2	Temperatura media	20
86898	7	Sololá	704	Santa Lucía Utatlán 	7	Santa Rita 	4	Abril	2023-09-04T00:00:00	2024-11-08T09:00:00	4	Temperatura máxima	20.2
86899	7	Sololá	704	Santa Lucía Utatlán 	7	Santa Rita 	4	Abril	2023-09-04T00:00:00	2024-11-08T09:00:00	3	Temperatura mínima	18.6
86900	7	Sololá	704	Santa Lucía Utatlán 	7	Santa Rita 	4	Abril	2023-09-04T00:00:00	2024-11-08T09:00:00	5	Humedad	53
86901	7	Sololá	704	Santa Lucía Utatlán 	7	Santa Rita 	4	Abril	2023-09-04T00:00:00	2024-11-08T09:00:00	6	Velocidad del viento	3.2
86902	7	Sololá	704	Santa Lucía Utatlán 	7	Santa Rita 	4	Abril	2023-09-04T00:00:00	2024-11-08T09:00:00	7	Dirección del viento	3.22
86903	7	Sololá	704	Santa Lucía Utatlán 	7	Santa Rita 	4	Abril	2023-09-04T00:00:00	2024-11-08T09:00:00	1	Precipitación	0
86904	7	Sololá	704	Santa Lucía Utatlán 	7	Santa Rita 	4	Abril	2023-09-04T00:00:00	2024-11-08T09:00:00	8	Radiación solar	374
86905	7	Sololá	704	Santa Lucía Utatlán 	7	Santa Rita 	4	Abril	2023-09-04T00:00:00	2024-11-08T10:00:00	2	Temperatura media	21.1
86906	7	Sololá	704	Santa Lucía Utatlán 	7	Santa Rita 	4	Abril	2023-09-04T00:00:00	2024-11-08T10:00:00	4	Temperatura máxima	21.1
86907	7	Sololá	704	Santa Lucía Utatlán 	7	Santa Rita 	4	Abril	2023-09-04T00:00:00	2024-11-08T10:00:00	3	Temperatura mínima	19.9
86908	7	Sololá	704	Santa Lucía Utatlán 	7	Santa Rita 	4	Abril	2023-09-04T00:00:00	2024-11-08T10:00:00	5	Humedad	51
86909	7	Sololá	704	Santa Lucía Utatlán 	7	Santa Rita 	4	Abril	2023-09-04T00:00:00	2024-11-08T10:00:00	6	Velocidad del viento	6.4
86910	7	Sololá	704	Santa Lucía Utatlán 	7	Santa Rita 	4	Abril	2023-09-04T00:00:00	2024-11-08T10:00:00	7	Dirección del viento	6.44
86911	7	Sololá	704	Santa Lucía Utatlán 	7	Santa Rita 	4	Abril	2023-09-04T00:00:00	2024-11-08T10:00:00	1	Precipitación	0
86912	7	Sololá	704	Santa Lucía Utatlán 	7	Santa Rita 	4	Abril	2023-09-04T00:00:00	2024-11-08T10:00:00	8	Radiación solar	621
86913	7	Sololá	704	Santa Lucía Utatlán 	7	Santa Rita 	4	Abril	2023-09-04T00:00:00	2024-11-08T11:00:00	2	Temperatura media	22.3
86914	7	Sololá	704	Santa Lucía Utatlán 	7	Santa Rita 	4	Abril	2023-09-04T00:00:00	2024-11-08T11:00:00	4	Temperatura máxima	22.4
86915	7	Sololá	704	Santa Lucía Utatlán 	7	Santa Rita 	4	Abril	2023-09-04T00:00:00	2024-11-08T11:00:00	3	Temperatura mínima	20.9
86916	7	Sololá	704	Santa Lucía Utatlán 	7	Santa Rita 	4	Abril	2023-09-04T00:00:00	2024-11-08T11:00:00	5	Humedad	45
86917	7	Sololá	704	Santa Lucía Utatlán 	7	Santa Rita 	4	Abril	2023-09-04T00:00:00	2024-11-08T11:00:00	6	Velocidad del viento	9.7
86918	7	Sololá	704	Santa Lucía Utatlán 	7	Santa Rita 	4	Abril	2023-09-04T00:00:00	2024-11-08T11:00:00	7	Dirección del viento	9.66
86919	7	Sololá	704	Santa Lucía Utatlán 	7	Santa Rita 	4	Abril	2023-09-04T00:00:00	2024-11-08T11:00:00	1	Precipitación	0
86920	7	Sololá	704	Santa Lucía Utatlán 	7	Santa Rita 	4	Abril	2023-09-04T00:00:00	2024-11-08T11:00:00	8	Radiación solar	821
86921	7	Sololá	704	Santa Lucía Utatlán 	7	Santa Rita 	4	Abril	2023-09-04T00:00:00	2024-11-08T12:00:00	2	Temperatura media	23.2
86922	7	Sololá	704	Santa Lucía Utatlán 	7	Santa Rita 	4	Abril	2023-09-04T00:00:00	2024-11-08T12:00:00	4	Temperatura máxima	23.4
86923	7	Sololá	704	Santa Lucía Utatlán 	7	Santa Rita 	4	Abril	2023-09-04T00:00:00	2024-11-08T12:00:00	3	Temperatura mínima	22.3
86924	7	Sololá	704	Santa Lucía Utatlán 	7	Santa Rita 	4	Abril	2023-09-04T00:00:00	2024-11-08T12:00:00	5	Humedad	43
86925	7	Sololá	704	Santa Lucía Utatlán 	7	Santa Rita 	4	Abril	2023-09-04T00:00:00	2024-11-08T12:00:00	6	Velocidad del viento	11.3
86926	7	Sololá	704	Santa Lucía Utatlán 	7	Santa Rita 	4	Abril	2023-09-04T00:00:00	2024-11-08T12:00:00	7	Dirección del viento	11.27
86927	7	Sololá	704	Santa Lucía Utatlán 	7	Santa Rita 	4	Abril	2023-09-04T00:00:00	2024-11-08T12:00:00	1	Precipitación	0
86928	7	Sololá	704	Santa Lucía Utatlán 	7	Santa Rita 	4	Abril	2023-09-04T00:00:00	2024-11-08T12:00:00	8	Radiación solar	958
86929	7	Sololá	704	Santa Lucía Utatlán 	7	Santa Rita 	4	Abril	2023-09-04T00:00:00	2024-11-08T13:00:00	2	Temperatura media	24.8
86930	7	Sololá	704	Santa Lucía Utatlán 	7	Santa Rita 	4	Abril	2023-09-04T00:00:00	2024-11-08T13:00:00	4	Temperatura máxima	24.8
86931	7	Sololá	704	Santa Lucía Utatlán 	7	Santa Rita 	4	Abril	2023-09-04T00:00:00	2024-11-08T13:00:00	3	Temperatura mínima	23.1
86932	7	Sololá	704	Santa Lucía Utatlán 	7	Santa Rita 	4	Abril	2023-09-04T00:00:00	2024-11-08T13:00:00	5	Humedad	41
86933	7	Sololá	704	Santa Lucía Utatlán 	7	Santa Rita 	4	Abril	2023-09-04T00:00:00	2024-11-08T13:00:00	6	Velocidad del viento	11.3
86934	7	Sololá	704	Santa Lucía Utatlán 	7	Santa Rita 	4	Abril	2023-09-04T00:00:00	2024-11-08T13:00:00	7	Dirección del viento	11.27
86935	7	Sololá	704	Santa Lucía Utatlán 	7	Santa Rita 	4	Abril	2023-09-04T00:00:00	2024-11-08T13:00:00	1	Precipitación	0
86936	7	Sololá	704	Santa Lucía Utatlán 	7	Santa Rita 	4	Abril	2023-09-04T00:00:00	2024-11-08T13:00:00	8	Radiación solar	1028
86937	7	Sololá	704	Santa Lucía Utatlán 	7	Santa Rita 	4	Abril	2023-09-04T00:00:00	2024-11-08T14:00:00	2	Temperatura media	25.3
86938	7	Sololá	704	Santa Lucía Utatlán 	7	Santa Rita 	4	Abril	2023-09-04T00:00:00	2024-11-08T14:00:00	4	Temperatura máxima	25.7
86939	7	Sololá	704	Santa Lucía Utatlán 	7	Santa Rita 	4	Abril	2023-09-04T00:00:00	2024-11-08T14:00:00	3	Temperatura mínima	24.2
86940	7	Sololá	704	Santa Lucía Utatlán 	7	Santa Rita 	4	Abril	2023-09-04T00:00:00	2024-11-08T14:00:00	5	Humedad	38
86941	7	Sololá	704	Santa Lucía Utatlán 	7	Santa Rita 	4	Abril	2023-09-04T00:00:00	2024-11-08T14:00:00	6	Velocidad del viento	11.3
86942	7	Sololá	704	Santa Lucía Utatlán 	7	Santa Rita 	4	Abril	2023-09-04T00:00:00	2024-11-08T14:00:00	7	Dirección del viento	11.27
86943	7	Sololá	704	Santa Lucía Utatlán 	7	Santa Rita 	4	Abril	2023-09-04T00:00:00	2024-11-08T14:00:00	1	Precipitación	0
86944	7	Sololá	704	Santa Lucía Utatlán 	7	Santa Rita 	4	Abril	2023-09-04T00:00:00	2024-11-08T14:00:00	8	Radiación solar	1026
86945	7	Sololá	704	Santa Lucía Utatlán 	7	Santa Rita 	4	Abril	2023-09-04T00:00:00	2024-11-08T15:00:00	2	Temperatura media	26.4
86946	7	Sololá	704	Santa Lucía Utatlán 	7	Santa Rita 	4	Abril	2023-09-04T00:00:00	2024-11-08T15:00:00	4	Temperatura máxima	26.5
86947	7	Sololá	704	Santa Lucía Utatlán 	7	Santa Rita 	4	Abril	2023-09-04T00:00:00	2024-11-08T15:00:00	3	Temperatura mínima	25
86948	7	Sololá	704	Santa Lucía Utatlán 	7	Santa Rita 	4	Abril	2023-09-04T00:00:00	2024-11-08T15:00:00	5	Humedad	36
86949	7	Sololá	704	Santa Lucía Utatlán 	7	Santa Rita 	4	Abril	2023-09-04T00:00:00	2024-11-08T15:00:00	6	Velocidad del viento	9.7
86950	7	Sololá	704	Santa Lucía Utatlán 	7	Santa Rita 	4	Abril	2023-09-04T00:00:00	2024-11-08T15:00:00	7	Dirección del viento	9.66
86951	7	Sololá	704	Santa Lucía Utatlán 	7	Santa Rita 	4	Abril	2023-09-04T00:00:00	2024-11-08T15:00:00	1	Precipitación	0
86952	7	Sololá	704	Santa Lucía Utatlán 	7	Santa Rita 	4	Abril	2023-09-04T00:00:00	2024-11-08T15:00:00	8	Radiación solar	946
86953	7	Sololá	704	Santa Lucía Utatlán 	7	Santa Rita 	4	Abril	2023-09-04T00:00:00	2024-11-08T16:00:00	2	Temperatura media	24.8
86954	7	Sololá	704	Santa Lucía Utatlán 	7	Santa Rita 	4	Abril	2023-09-04T00:00:00	2024-11-08T16:00:00	4	Temperatura máxima	26.5
86955	7	Sololá	704	Santa Lucía Utatlán 	7	Santa Rita 	4	Abril	2023-09-04T00:00:00	2024-11-08T16:00:00	3	Temperatura mínima	24.8
86956	7	Sololá	704	Santa Lucía Utatlán 	7	Santa Rita 	4	Abril	2023-09-04T00:00:00	2024-11-08T16:00:00	5	Humedad	32
86957	7	Sololá	704	Santa Lucía Utatlán 	7	Santa Rita 	4	Abril	2023-09-04T00:00:00	2024-11-08T16:00:00	6	Velocidad del viento	11.3
86958	7	Sololá	704	Santa Lucía Utatlán 	7	Santa Rita 	4	Abril	2023-09-04T00:00:00	2024-11-08T16:00:00	7	Dirección del viento	11.27
86959	7	Sololá	704	Santa Lucía Utatlán 	7	Santa Rita 	4	Abril	2023-09-04T00:00:00	2024-11-08T16:00:00	1	Precipitación	0
86960	7	Sololá	704	Santa Lucía Utatlán 	7	Santa Rita 	4	Abril	2023-09-04T00:00:00	2024-11-08T16:00:00	8	Radiación solar	713
86961	7	Sololá	704	Santa Lucía Utatlán 	7	Santa Rita 	4	Abril	2023-09-04T00:00:00	2024-11-08T17:00:00	2	Temperatura media	24.6
86962	7	Sololá	704	Santa Lucía Utatlán 	7	Santa Rita 	4	Abril	2023-09-04T00:00:00	2024-11-08T17:00:00	4	Temperatura máxima	25.4
86963	7	Sololá	704	Santa Lucía Utatlán 	7	Santa Rita 	4	Abril	2023-09-04T00:00:00	2024-11-08T17:00:00	3	Temperatura mínima	24.4
86964	7	Sololá	704	Santa Lucía Utatlán 	7	Santa Rita 	4	Abril	2023-09-04T00:00:00	2024-11-08T17:00:00	5	Humedad	35
86965	7	Sololá	704	Santa Lucía Utatlán 	7	Santa Rita 	4	Abril	2023-09-04T00:00:00	2024-11-08T17:00:00	6	Velocidad del viento	12.9
86966	7	Sololá	704	Santa Lucía Utatlán 	7	Santa Rita 	4	Abril	2023-09-04T00:00:00	2024-11-08T17:00:00	7	Dirección del viento	12.87
86967	7	Sololá	704	Santa Lucía Utatlán 	7	Santa Rita 	4	Abril	2023-09-04T00:00:00	2024-11-08T17:00:00	1	Precipitación	0
86968	7	Sololá	704	Santa Lucía Utatlán 	7	Santa Rita 	4	Abril	2023-09-04T00:00:00	2024-11-08T17:00:00	8	Radiación solar	477
86969	7	Sololá	704	Santa Lucía Utatlán 	7	Santa Rita 	4	Abril	2023-09-04T00:00:00	2024-11-08T18:00:00	2	Temperatura media	23.4
86970	7	Sololá	704	Santa Lucía Utatlán 	7	Santa Rita 	4	Abril	2023-09-04T00:00:00	2024-11-08T18:00:00	4	Temperatura máxima	24.8
86971	7	Sololá	704	Santa Lucía Utatlán 	7	Santa Rita 	4	Abril	2023-09-04T00:00:00	2024-11-08T18:00:00	3	Temperatura mínima	23.4
86972	7	Sololá	704	Santa Lucía Utatlán 	7	Santa Rita 	4	Abril	2023-09-04T00:00:00	2024-11-08T18:00:00	5	Humedad	39
86973	7	Sololá	704	Santa Lucía Utatlán 	7	Santa Rita 	4	Abril	2023-09-04T00:00:00	2024-11-08T18:00:00	6	Velocidad del viento	12.9
86974	7	Sololá	704	Santa Lucía Utatlán 	7	Santa Rita 	4	Abril	2023-09-04T00:00:00	2024-11-08T18:00:00	7	Dirección del viento	12.87
86975	7	Sololá	704	Santa Lucía Utatlán 	7	Santa Rita 	4	Abril	2023-09-04T00:00:00	2024-11-08T18:00:00	1	Precipitación	0
86976	7	Sololá	704	Santa Lucía Utatlán 	7	Santa Rita 	4	Abril	2023-09-04T00:00:00	2024-11-08T18:00:00	8	Radiación solar	313
86977	7	Sololá	704	Santa Lucía Utatlán 	7	Santa Rita 	4	Abril	2023-09-04T00:00:00	2024-11-08T19:00:00	2	Temperatura media	21.1
86978	7	Sololá	704	Santa Lucía Utatlán 	7	Santa Rita 	4	Abril	2023-09-04T00:00:00	2024-11-08T19:00:00	4	Temperatura máxima	23.4
86979	7	Sololá	704	Santa Lucía Utatlán 	7	Santa Rita 	4	Abril	2023-09-04T00:00:00	2024-11-08T19:00:00	3	Temperatura mínima	21.1
86980	7	Sololá	704	Santa Lucía Utatlán 	7	Santa Rita 	4	Abril	2023-09-04T00:00:00	2024-11-08T19:00:00	5	Humedad	47
86981	7	Sololá	704	Santa Lucía Utatlán 	7	Santa Rita 	4	Abril	2023-09-04T00:00:00	2024-11-08T19:00:00	6	Velocidad del viento	8
86982	7	Sololá	704	Santa Lucía Utatlán 	7	Santa Rita 	4	Abril	2023-09-04T00:00:00	2024-11-08T19:00:00	7	Dirección del viento	8.05
86983	7	Sololá	704	Santa Lucía Utatlán 	7	Santa Rita 	4	Abril	2023-09-04T00:00:00	2024-11-08T19:00:00	1	Precipitación	0
86984	7	Sololá	704	Santa Lucía Utatlán 	7	Santa Rita 	4	Abril	2023-09-04T00:00:00	2024-11-08T19:00:00	8	Radiación solar	0
86985	7	Sololá	704	Santa Lucía Utatlán 	7	Santa Rita 	4	Abril	2023-09-04T00:00:00	2024-11-08T20:00:00	2	Temperatura media	18.7
86986	7	Sololá	704	Santa Lucía Utatlán 	7	Santa Rita 	4	Abril	2023-09-04T00:00:00	2024-11-08T20:00:00	4	Temperatura máxima	21.1
86987	7	Sololá	704	Santa Lucía Utatlán 	7	Santa Rita 	4	Abril	2023-09-04T00:00:00	2024-11-08T20:00:00	3	Temperatura mínima	18.7
86988	7	Sololá	704	Santa Lucía Utatlán 	7	Santa Rita 	4	Abril	2023-09-04T00:00:00	2024-11-08T20:00:00	5	Humedad	62
86989	7	Sololá	704	Santa Lucía Utatlán 	7	Santa Rita 	4	Abril	2023-09-04T00:00:00	2024-11-08T20:00:00	6	Velocidad del viento	4.8
86990	7	Sololá	704	Santa Lucía Utatlán 	7	Santa Rita 	4	Abril	2023-09-04T00:00:00	2024-11-08T20:00:00	7	Dirección del viento	4.83
86991	7	Sololá	704	Santa Lucía Utatlán 	7	Santa Rita 	4	Abril	2023-09-04T00:00:00	2024-11-08T20:00:00	1	Precipitación	0
86992	7	Sololá	704	Santa Lucía Utatlán 	7	Santa Rita 	4	Abril	2023-09-04T00:00:00	2024-11-08T20:00:00	8	Radiación solar	0
86993	7	Sololá	704	Santa Lucía Utatlán 	7	Santa Rita 	4	Abril	2023-09-04T00:00:00	2024-11-08T21:00:00	2	Temperatura media	17.8
86994	7	Sololá	704	Santa Lucía Utatlán 	7	Santa Rita 	4	Abril	2023-09-04T00:00:00	2024-11-08T21:00:00	4	Temperatura máxima	18.7
86995	7	Sololá	704	Santa Lucía Utatlán 	7	Santa Rita 	4	Abril	2023-09-04T00:00:00	2024-11-08T21:00:00	3	Temperatura mínima	17.8
86996	7	Sololá	704	Santa Lucía Utatlán 	7	Santa Rita 	4	Abril	2023-09-04T00:00:00	2024-11-08T21:00:00	5	Humedad	61
86997	7	Sololá	704	Santa Lucía Utatlán 	7	Santa Rita 	4	Abril	2023-09-04T00:00:00	2024-11-08T21:00:00	6	Velocidad del viento	6.4
86998	7	Sololá	704	Santa Lucía Utatlán 	7	Santa Rita 	4	Abril	2023-09-04T00:00:00	2024-11-08T21:00:00	7	Dirección del viento	6.44
86999	7	Sololá	704	Santa Lucía Utatlán 	7	Santa Rita 	4	Abril	2023-09-04T00:00:00	2024-11-08T21:00:00	1	Precipitación	0
87000	7	Sololá	704	Santa Lucía Utatlán 	7	Santa Rita 	4	Abril	2023-09-04T00:00:00	2024-11-08T21:00:00	8	Radiación solar	0
87001	7	Sololá	704	Santa Lucía Utatlán 	7	Santa Rita 	4	Abril	2023-09-04T00:00:00	2024-11-08T22:00:00	2	Temperatura media	17
87002	7	Sololá	704	Santa Lucía Utatlán 	7	Santa Rita 	4	Abril	2023-09-04T00:00:00	2024-11-08T22:00:00	4	Temperatura máxima	17.8
87003	7	Sololá	704	Santa Lucía Utatlán 	7	Santa Rita 	4	Abril	2023-09-04T00:00:00	2024-11-08T22:00:00	3	Temperatura mínima	16.7
87004	7	Sololá	704	Santa Lucía Utatlán 	7	Santa Rita 	4	Abril	2023-09-04T00:00:00	2024-11-08T22:00:00	5	Humedad	56
87005	7	Sololá	704	Santa Lucía Utatlán 	7	Santa Rita 	4	Abril	2023-09-04T00:00:00	2024-11-08T22:00:00	6	Velocidad del viento	4.8
87006	7	Sololá	704	Santa Lucía Utatlán 	7	Santa Rita 	4	Abril	2023-09-04T00:00:00	2024-11-08T22:00:00	7	Dirección del viento	4.83
87007	7	Sololá	704	Santa Lucía Utatlán 	7	Santa Rita 	4	Abril	2023-09-04T00:00:00	2024-11-08T22:00:00	1	Precipitación	0
87008	7	Sololá	704	Santa Lucía Utatlán 	7	Santa Rita 	4	Abril	2023-09-04T00:00:00	2024-11-08T22:00:00	8	Radiación solar	0
87009	7	Sololá	704	Santa Lucía Utatlán 	7	Santa Rita 	4	Abril	2023-09-04T00:00:00	2024-11-08T23:00:00	2	Temperatura media	17.7
87010	7	Sololá	704	Santa Lucía Utatlán 	7	Santa Rita 	4	Abril	2023-09-04T00:00:00	2024-11-08T23:00:00	4	Temperatura máxima	17.7
87011	7	Sololá	704	Santa Lucía Utatlán 	7	Santa Rita 	4	Abril	2023-09-04T00:00:00	2024-11-08T23:00:00	3	Temperatura mínima	17.1
87012	7	Sololá	704	Santa Lucía Utatlán 	7	Santa Rita 	4	Abril	2023-09-04T00:00:00	2024-11-08T23:00:00	5	Humedad	48
87013	7	Sololá	704	Santa Lucía Utatlán 	7	Santa Rita 	4	Abril	2023-09-04T00:00:00	2024-11-08T23:00:00	6	Velocidad del viento	8
87014	7	Sololá	704	Santa Lucía Utatlán 	7	Santa Rita 	4	Abril	2023-09-04T00:00:00	2024-11-08T23:00:00	7	Dirección del viento	8.05
87015	7	Sololá	704	Santa Lucía Utatlán 	7	Santa Rita 	4	Abril	2023-09-04T00:00:00	2024-11-08T23:00:00	1	Precipitación	0
87016	7	Sololá	704	Santa Lucía Utatlán 	7	Santa Rita 	4	Abril	2023-09-04T00:00:00	2024-11-08T23:00:00	8	Radiación solar	0
87017	7	Sololá	704	Santa Lucía Utatlán 	7	Santa Rita 	4	Abril	2023-10-04T00:00:00	2024-11-08T00:00:00	2	Temperatura media	16.4
87018	7	Sololá	704	Santa Lucía Utatlán 	7	Santa Rita 	4	Abril	2023-10-04T00:00:00	2024-11-08T00:00:00	4	Temperatura máxima	17.8
87019	7	Sololá	704	Santa Lucía Utatlán 	7	Santa Rita 	4	Abril	2023-10-04T00:00:00	2024-11-08T00:00:00	3	Temperatura mínima	15.5
87020	7	Sololá	704	Santa Lucía Utatlán 	7	Santa Rita 	4	Abril	2023-10-04T00:00:00	2024-11-08T00:00:00	5	Humedad	50
87021	7	Sololá	704	Santa Lucía Utatlán 	7	Santa Rita 	4	Abril	2023-10-04T00:00:00	2024-11-08T00:00:00	6	Velocidad del viento	3.2
87022	7	Sololá	704	Santa Lucía Utatlán 	7	Santa Rita 	4	Abril	2023-10-04T00:00:00	2024-11-08T00:00:00	7	Dirección del viento	3.22
87023	7	Sololá	704	Santa Lucía Utatlán 	7	Santa Rita 	4	Abril	2023-10-04T00:00:00	2024-11-08T00:00:00	1	Precipitación	0
87024	7	Sololá	704	Santa Lucía Utatlán 	7	Santa Rita 	4	Abril	2023-10-04T00:00:00	2024-11-08T00:00:00	8	Radiación solar	0
87025	7	Sololá	704	Santa Lucía Utatlán 	7	Santa Rita 	4	Abril	2023-10-04T00:00:00	2024-11-08T01:00:00	2	Temperatura media	15.2
87026	7	Sololá	704	Santa Lucía Utatlán 	7	Santa Rita 	4	Abril	2023-10-04T00:00:00	2024-11-08T01:00:00	4	Temperatura máxima	16.5
87027	7	Sololá	704	Santa Lucía Utatlán 	7	Santa Rita 	4	Abril	2023-10-04T00:00:00	2024-11-08T01:00:00	3	Temperatura mínima	14.9
87028	7	Sololá	704	Santa Lucía Utatlán 	7	Santa Rita 	4	Abril	2023-10-04T00:00:00	2024-11-08T01:00:00	5	Humedad	55
87029	7	Sololá	704	Santa Lucía Utatlán 	7	Santa Rita 	4	Abril	2023-10-04T00:00:00	2024-11-08T01:00:00	6	Velocidad del viento	3.2
87030	7	Sololá	704	Santa Lucía Utatlán 	7	Santa Rita 	4	Abril	2023-10-04T00:00:00	2024-11-08T01:00:00	7	Dirección del viento	3.22
87031	7	Sololá	704	Santa Lucía Utatlán 	7	Santa Rita 	4	Abril	2023-10-04T00:00:00	2024-11-08T01:00:00	1	Precipitación	0
87032	7	Sololá	704	Santa Lucía Utatlán 	7	Santa Rita 	4	Abril	2023-10-04T00:00:00	2024-11-08T01:00:00	8	Radiación solar	0
87033	7	Sololá	704	Santa Lucía Utatlán 	7	Santa Rita 	4	Abril	2023-10-04T00:00:00	2024-11-08T02:00:00	2	Temperatura media	15.4
87034	7	Sololá	704	Santa Lucía Utatlán 	7	Santa Rita 	4	Abril	2023-10-04T00:00:00	2024-11-08T02:00:00	4	Temperatura máxima	16.2
87035	7	Sololá	704	Santa Lucía Utatlán 	7	Santa Rita 	4	Abril	2023-10-04T00:00:00	2024-11-08T02:00:00	3	Temperatura mínima	14.3
87036	7	Sololá	704	Santa Lucía Utatlán 	7	Santa Rita 	4	Abril	2023-10-04T00:00:00	2024-11-08T02:00:00	5	Humedad	59
87037	7	Sololá	704	Santa Lucía Utatlán 	7	Santa Rita 	4	Abril	2023-10-04T00:00:00	2024-11-08T02:00:00	6	Velocidad del viento	4.8
87038	7	Sololá	704	Santa Lucía Utatlán 	7	Santa Rita 	4	Abril	2023-10-04T00:00:00	2024-11-08T02:00:00	7	Dirección del viento	4.83
87039	7	Sololá	704	Santa Lucía Utatlán 	7	Santa Rita 	4	Abril	2023-10-04T00:00:00	2024-11-08T02:00:00	1	Precipitación	0
87040	7	Sololá	704	Santa Lucía Utatlán 	7	Santa Rita 	4	Abril	2023-10-04T00:00:00	2024-11-08T02:00:00	8	Radiación solar	0
87041	7	Sololá	704	Santa Lucía Utatlán 	7	Santa Rita 	4	Abril	2023-10-04T00:00:00	2024-11-08T03:00:00	2	Temperatura media	15.5
87042	7	Sololá	704	Santa Lucía Utatlán 	7	Santa Rita 	4	Abril	2023-10-04T00:00:00	2024-11-08T03:00:00	4	Temperatura máxima	16.4
87043	7	Sololá	704	Santa Lucía Utatlán 	7	Santa Rita 	4	Abril	2023-10-04T00:00:00	2024-11-08T03:00:00	3	Temperatura mínima	15.1
87044	7	Sololá	704	Santa Lucía Utatlán 	7	Santa Rita 	4	Abril	2023-10-04T00:00:00	2024-11-08T03:00:00	5	Humedad	63
87045	7	Sololá	704	Santa Lucía Utatlán 	7	Santa Rita 	4	Abril	2023-10-04T00:00:00	2024-11-08T03:00:00	6	Velocidad del viento	6.4
87046	7	Sololá	704	Santa Lucía Utatlán 	7	Santa Rita 	4	Abril	2023-10-04T00:00:00	2024-11-08T03:00:00	7	Dirección del viento	6.44
87047	7	Sololá	704	Santa Lucía Utatlán 	7	Santa Rita 	4	Abril	2023-10-04T00:00:00	2024-11-08T03:00:00	1	Precipitación	0
87048	7	Sololá	704	Santa Lucía Utatlán 	7	Santa Rita 	4	Abril	2023-10-04T00:00:00	2024-11-08T03:00:00	8	Radiación solar	0
87049	7	Sololá	704	Santa Lucía Utatlán 	7	Santa Rita 	4	Abril	2023-10-04T00:00:00	2024-11-08T04:00:00	2	Temperatura media	16.6
87050	7	Sololá	704	Santa Lucía Utatlán 	7	Santa Rita 	4	Abril	2023-10-04T00:00:00	2024-11-08T04:00:00	4	Temperatura máxima	16.6
87051	7	Sololá	704	Santa Lucía Utatlán 	7	Santa Rita 	4	Abril	2023-10-04T00:00:00	2024-11-08T04:00:00	3	Temperatura mínima	15.3
87052	7	Sololá	704	Santa Lucía Utatlán 	7	Santa Rita 	4	Abril	2023-10-04T00:00:00	2024-11-08T04:00:00	5	Humedad	61
87053	7	Sololá	704	Santa Lucía Utatlán 	7	Santa Rita 	4	Abril	2023-10-04T00:00:00	2024-11-08T04:00:00	6	Velocidad del viento	6.4
87054	7	Sololá	704	Santa Lucía Utatlán 	7	Santa Rita 	4	Abril	2023-10-04T00:00:00	2024-11-08T04:00:00	7	Dirección del viento	6.44
87055	7	Sololá	704	Santa Lucía Utatlán 	7	Santa Rita 	4	Abril	2023-10-04T00:00:00	2024-11-08T04:00:00	1	Precipitación	0
87056	7	Sololá	704	Santa Lucía Utatlán 	7	Santa Rita 	4	Abril	2023-10-04T00:00:00	2024-11-08T04:00:00	8	Radiación solar	0
87057	7	Sololá	704	Santa Lucía Utatlán 	7	Santa Rita 	4	Abril	2023-10-04T00:00:00	2024-11-08T05:00:00	2	Temperatura media	16.6
87058	7	Sololá	704	Santa Lucía Utatlán 	7	Santa Rita 	4	Abril	2023-10-04T00:00:00	2024-11-08T05:00:00	4	Temperatura máxima	16.7
87059	7	Sololá	704	Santa Lucía Utatlán 	7	Santa Rita 	4	Abril	2023-10-04T00:00:00	2024-11-08T05:00:00	3	Temperatura mínima	16.1
87060	7	Sololá	704	Santa Lucía Utatlán 	7	Santa Rita 	4	Abril	2023-10-04T00:00:00	2024-11-08T05:00:00	5	Humedad	58
87061	7	Sololá	704	Santa Lucía Utatlán 	7	Santa Rita 	4	Abril	2023-10-04T00:00:00	2024-11-08T05:00:00	6	Velocidad del viento	8
87062	7	Sololá	704	Santa Lucía Utatlán 	7	Santa Rita 	4	Abril	2023-10-04T00:00:00	2024-11-08T05:00:00	7	Dirección del viento	8.05
87063	7	Sololá	704	Santa Lucía Utatlán 	7	Santa Rita 	4	Abril	2023-10-04T00:00:00	2024-11-08T05:00:00	1	Precipitación	0
87064	7	Sololá	704	Santa Lucía Utatlán 	7	Santa Rita 	4	Abril	2023-10-04T00:00:00	2024-11-08T05:00:00	8	Radiación solar	0
87065	7	Sololá	704	Santa Lucía Utatlán 	7	Santa Rita 	4	Abril	2023-10-04T00:00:00	2024-11-08T06:00:00	2	Temperatura media	16.7
87066	7	Sololá	704	Santa Lucía Utatlán 	7	Santa Rita 	4	Abril	2023-10-04T00:00:00	2024-11-08T06:00:00	4	Temperatura máxima	17
87067	7	Sololá	704	Santa Lucía Utatlán 	7	Santa Rita 	4	Abril	2023-10-04T00:00:00	2024-11-08T06:00:00	3	Temperatura mínima	16.5
87068	7	Sololá	704	Santa Lucía Utatlán 	7	Santa Rita 	4	Abril	2023-10-04T00:00:00	2024-11-08T06:00:00	5	Humedad	58
87069	7	Sololá	704	Santa Lucía Utatlán 	7	Santa Rita 	4	Abril	2023-10-04T00:00:00	2024-11-08T06:00:00	6	Velocidad del viento	9.7
87070	7	Sololá	704	Santa Lucía Utatlán 	7	Santa Rita 	4	Abril	2023-10-04T00:00:00	2024-11-08T06:00:00	7	Dirección del viento	9.66
87071	7	Sololá	704	Santa Lucía Utatlán 	7	Santa Rita 	4	Abril	2023-10-04T00:00:00	2024-11-08T06:00:00	1	Precipitación	0
87072	7	Sololá	704	Santa Lucía Utatlán 	7	Santa Rita 	4	Abril	2023-10-04T00:00:00	2024-11-08T06:00:00	8	Radiación solar	0
87073	7	Sololá	704	Santa Lucía Utatlán 	7	Santa Rita 	4	Abril	2023-10-04T00:00:00	2024-11-08T07:00:00	2	Temperatura media	16.6
87074	7	Sololá	704	Santa Lucía Utatlán 	7	Santa Rita 	4	Abril	2023-10-04T00:00:00	2024-11-08T07:00:00	4	Temperatura máxima	16.7
87075	7	Sololá	704	Santa Lucía Utatlán 	7	Santa Rita 	4	Abril	2023-10-04T00:00:00	2024-11-08T07:00:00	3	Temperatura mínima	16.4
87076	7	Sololá	704	Santa Lucía Utatlán 	7	Santa Rita 	4	Abril	2023-10-04T00:00:00	2024-11-08T07:00:00	5	Humedad	60
87077	7	Sololá	704	Santa Lucía Utatlán 	7	Santa Rita 	4	Abril	2023-10-04T00:00:00	2024-11-08T07:00:00	6	Velocidad del viento	9.7
87078	7	Sololá	704	Santa Lucía Utatlán 	7	Santa Rita 	4	Abril	2023-10-04T00:00:00	2024-11-08T07:00:00	7	Dirección del viento	9.66
87079	7	Sololá	704	Santa Lucía Utatlán 	7	Santa Rita 	4	Abril	2023-10-04T00:00:00	2024-11-08T07:00:00	1	Precipitación	0
87080	7	Sololá	704	Santa Lucía Utatlán 	7	Santa Rita 	4	Abril	2023-10-04T00:00:00	2024-11-08T07:00:00	8	Radiación solar	1
87081	7	Sololá	704	Santa Lucía Utatlán 	7	Santa Rita 	4	Abril	2023-10-04T00:00:00	2024-11-08T08:00:00	2	Temperatura media	18.4
87082	7	Sololá	704	Santa Lucía Utatlán 	7	Santa Rita 	4	Abril	2023-10-04T00:00:00	2024-11-08T08:00:00	4	Temperatura máxima	18.5
87083	7	Sololá	704	Santa Lucía Utatlán 	7	Santa Rita 	4	Abril	2023-10-04T00:00:00	2024-11-08T08:00:00	3	Temperatura mínima	16.3
87084	7	Sololá	704	Santa Lucía Utatlán 	7	Santa Rita 	4	Abril	2023-10-04T00:00:00	2024-11-08T08:00:00	5	Humedad	52
87085	7	Sololá	704	Santa Lucía Utatlán 	7	Santa Rita 	4	Abril	2023-10-04T00:00:00	2024-11-08T08:00:00	6	Velocidad del viento	6.4
87086	7	Sololá	704	Santa Lucía Utatlán 	7	Santa Rita 	4	Abril	2023-10-04T00:00:00	2024-11-08T08:00:00	7	Dirección del viento	6.44
87087	7	Sololá	704	Santa Lucía Utatlán 	7	Santa Rita 	4	Abril	2023-10-04T00:00:00	2024-11-08T08:00:00	1	Precipitación	0
87088	7	Sololá	704	Santa Lucía Utatlán 	7	Santa Rita 	4	Abril	2023-10-04T00:00:00	2024-11-08T08:00:00	8	Radiación solar	99
87089	7	Sololá	704	Santa Lucía Utatlán 	7	Santa Rita 	4	Abril	2023-10-04T00:00:00	2024-11-08T09:00:00	2	Temperatura media	20.3
87090	7	Sololá	704	Santa Lucía Utatlán 	7	Santa Rita 	4	Abril	2023-10-04T00:00:00	2024-11-08T09:00:00	4	Temperatura máxima	20.3
87091	7	Sololá	704	Santa Lucía Utatlán 	7	Santa Rita 	4	Abril	2023-10-04T00:00:00	2024-11-08T09:00:00	3	Temperatura mínima	18.4
87092	7	Sololá	704	Santa Lucía Utatlán 	7	Santa Rita 	4	Abril	2023-10-04T00:00:00	2024-11-08T09:00:00	5	Humedad	46
87093	7	Sololá	704	Santa Lucía Utatlán 	7	Santa Rita 	4	Abril	2023-10-04T00:00:00	2024-11-08T09:00:00	6	Velocidad del viento	6.4
87094	7	Sololá	704	Santa Lucía Utatlán 	7	Santa Rita 	4	Abril	2023-10-04T00:00:00	2024-11-08T09:00:00	7	Dirección del viento	6.44
87095	7	Sololá	704	Santa Lucía Utatlán 	7	Santa Rita 	4	Abril	2023-10-04T00:00:00	2024-11-08T09:00:00	1	Precipitación	0
87096	7	Sololá	704	Santa Lucía Utatlán 	7	Santa Rita 	4	Abril	2023-10-04T00:00:00	2024-11-08T09:00:00	8	Radiación solar	388
87097	7	Sololá	704	Santa Lucía Utatlán 	7	Santa Rita 	4	Abril	2023-10-04T00:00:00	2024-11-08T10:00:00	2	Temperatura media	22.3
87098	7	Sololá	704	Santa Lucía Utatlán 	7	Santa Rita 	4	Abril	2023-10-04T00:00:00	2024-11-08T10:00:00	4	Temperatura máxima	22.4
87099	7	Sololá	704	Santa Lucía Utatlán 	7	Santa Rita 	4	Abril	2023-10-04T00:00:00	2024-11-08T10:00:00	3	Temperatura mínima	20.3
87100	7	Sololá	704	Santa Lucía Utatlán 	7	Santa Rita 	4	Abril	2023-10-04T00:00:00	2024-11-08T10:00:00	5	Humedad	42
87101	7	Sololá	704	Santa Lucía Utatlán 	7	Santa Rita 	4	Abril	2023-10-04T00:00:00	2024-11-08T10:00:00	6	Velocidad del viento	4.8
87102	7	Sololá	704	Santa Lucía Utatlán 	7	Santa Rita 	4	Abril	2023-10-04T00:00:00	2024-11-08T10:00:00	7	Dirección del viento	4.83
87103	7	Sololá	704	Santa Lucía Utatlán 	7	Santa Rita 	4	Abril	2023-10-04T00:00:00	2024-11-08T10:00:00	1	Precipitación	0
87104	7	Sololá	704	Santa Lucía Utatlán 	7	Santa Rita 	4	Abril	2023-10-04T00:00:00	2024-11-08T10:00:00	8	Radiación solar	630
87105	7	Sololá	704	Santa Lucía Utatlán 	7	Santa Rita 	4	Abril	2023-10-04T00:00:00	2024-11-08T11:00:00	2	Temperatura media	23.4
87106	7	Sololá	704	Santa Lucía Utatlán 	7	Santa Rita 	4	Abril	2023-10-04T00:00:00	2024-11-08T11:00:00	4	Temperatura máxima	24
87107	7	Sololá	704	Santa Lucía Utatlán 	7	Santa Rita 	4	Abril	2023-10-04T00:00:00	2024-11-08T11:00:00	3	Temperatura mínima	22.2
87108	7	Sololá	704	Santa Lucía Utatlán 	7	Santa Rita 	4	Abril	2023-10-04T00:00:00	2024-11-08T11:00:00	5	Humedad	44
87109	7	Sololá	704	Santa Lucía Utatlán 	7	Santa Rita 	4	Abril	2023-10-04T00:00:00	2024-11-08T11:00:00	6	Velocidad del viento	8
87110	7	Sololá	704	Santa Lucía Utatlán 	7	Santa Rita 	4	Abril	2023-10-04T00:00:00	2024-11-08T11:00:00	7	Dirección del viento	8.05
87111	7	Sololá	704	Santa Lucía Utatlán 	7	Santa Rita 	4	Abril	2023-10-04T00:00:00	2024-11-08T11:00:00	1	Precipitación	0
87112	7	Sololá	704	Santa Lucía Utatlán 	7	Santa Rita 	4	Abril	2023-10-04T00:00:00	2024-11-08T11:00:00	8	Radiación solar	819
87113	7	Sololá	704	Santa Lucía Utatlán 	7	Santa Rita 	4	Abril	2023-10-04T00:00:00	2024-11-08T12:00:00	2	Temperatura media	24.3
87114	7	Sololá	704	Santa Lucía Utatlán 	7	Santa Rita 	4	Abril	2023-10-04T00:00:00	2024-11-08T12:00:00	4	Temperatura máxima	24.3
87115	7	Sololá	704	Santa Lucía Utatlán 	7	Santa Rita 	4	Abril	2023-10-04T00:00:00	2024-11-08T12:00:00	3	Temperatura mínima	23.2
87116	7	Sololá	704	Santa Lucía Utatlán 	7	Santa Rita 	4	Abril	2023-10-04T00:00:00	2024-11-08T12:00:00	5	Humedad	43
87117	7	Sololá	704	Santa Lucía Utatlán 	7	Santa Rita 	4	Abril	2023-10-04T00:00:00	2024-11-08T12:00:00	6	Velocidad del viento	8
87118	7	Sololá	704	Santa Lucía Utatlán 	7	Santa Rita 	4	Abril	2023-10-04T00:00:00	2024-11-08T12:00:00	7	Dirección del viento	8.05
87119	7	Sololá	704	Santa Lucía Utatlán 	7	Santa Rita 	4	Abril	2023-10-04T00:00:00	2024-11-08T12:00:00	1	Precipitación	0
87120	7	Sololá	704	Santa Lucía Utatlán 	7	Santa Rita 	4	Abril	2023-10-04T00:00:00	2024-11-08T12:00:00	8	Radiación solar	950
87121	7	Sololá	704	Santa Lucía Utatlán 	7	Santa Rita 	4	Abril	2023-10-04T00:00:00	2024-11-08T13:00:00	2	Temperatura media	25.7
87122	7	Sololá	704	Santa Lucía Utatlán 	7	Santa Rita 	4	Abril	2023-10-04T00:00:00	2024-11-08T13:00:00	4	Temperatura máxima	25.7
87123	7	Sololá	704	Santa Lucía Utatlán 	7	Santa Rita 	4	Abril	2023-10-04T00:00:00	2024-11-08T13:00:00	3	Temperatura mínima	24.3
87124	7	Sololá	704	Santa Lucía Utatlán 	7	Santa Rita 	4	Abril	2023-10-04T00:00:00	2024-11-08T13:00:00	5	Humedad	39
87125	7	Sololá	704	Santa Lucía Utatlán 	7	Santa Rita 	4	Abril	2023-10-04T00:00:00	2024-11-08T13:00:00	6	Velocidad del viento	11.3
87126	7	Sololá	704	Santa Lucía Utatlán 	7	Santa Rita 	4	Abril	2023-10-04T00:00:00	2024-11-08T13:00:00	7	Dirección del viento	11.27
87127	7	Sololá	704	Santa Lucía Utatlán 	7	Santa Rita 	4	Abril	2023-10-04T00:00:00	2024-11-08T13:00:00	1	Precipitación	0
87128	7	Sololá	704	Santa Lucía Utatlán 	7	Santa Rita 	4	Abril	2023-10-04T00:00:00	2024-11-08T13:00:00	8	Radiación solar	1018
87129	7	Sololá	704	Santa Lucía Utatlán 	7	Santa Rita 	4	Abril	2023-10-04T00:00:00	2024-11-08T14:00:00	2	Temperatura media	24.9
87130	7	Sololá	704	Santa Lucía Utatlán 	7	Santa Rita 	4	Abril	2023-10-04T00:00:00	2024-11-08T14:00:00	4	Temperatura máxima	27
87131	7	Sololá	704	Santa Lucía Utatlán 	7	Santa Rita 	4	Abril	2023-10-04T00:00:00	2024-11-08T14:00:00	3	Temperatura mínima	24.9
87132	7	Sololá	704	Santa Lucía Utatlán 	7	Santa Rita 	4	Abril	2023-10-04T00:00:00	2024-11-08T14:00:00	5	Humedad	40
87133	7	Sololá	704	Santa Lucía Utatlán 	7	Santa Rita 	4	Abril	2023-10-04T00:00:00	2024-11-08T14:00:00	6	Velocidad del viento	12.9
87134	7	Sololá	704	Santa Lucía Utatlán 	7	Santa Rita 	4	Abril	2023-10-04T00:00:00	2024-11-08T14:00:00	7	Dirección del viento	12.87
87135	7	Sololá	704	Santa Lucía Utatlán 	7	Santa Rita 	4	Abril	2023-10-04T00:00:00	2024-11-08T14:00:00	1	Precipitación	0
87136	7	Sololá	704	Santa Lucía Utatlán 	7	Santa Rita 	4	Abril	2023-10-04T00:00:00	2024-11-08T14:00:00	8	Radiación solar	1014
87137	7	Sololá	704	Santa Lucía Utatlán 	7	Santa Rita 	4	Abril	2023-10-04T00:00:00	2024-11-08T15:00:00	2	Temperatura media	25.1
87138	7	Sololá	704	Santa Lucía Utatlán 	7	Santa Rita 	4	Abril	2023-10-04T00:00:00	2024-11-08T15:00:00	4	Temperatura máxima	25.3
87139	7	Sololá	704	Santa Lucía Utatlán 	7	Santa Rita 	4	Abril	2023-10-04T00:00:00	2024-11-08T15:00:00	3	Temperatura mínima	24.4
87140	7	Sololá	704	Santa Lucía Utatlán 	7	Santa Rita 	4	Abril	2023-10-04T00:00:00	2024-11-08T15:00:00	5	Humedad	43
87141	7	Sololá	704	Santa Lucía Utatlán 	7	Santa Rita 	4	Abril	2023-10-04T00:00:00	2024-11-08T15:00:00	6	Velocidad del viento	14.5
87142	7	Sololá	704	Santa Lucía Utatlán 	7	Santa Rita 	4	Abril	2023-10-04T00:00:00	2024-11-08T15:00:00	7	Dirección del viento	14.48
87143	7	Sololá	704	Santa Lucía Utatlán 	7	Santa Rita 	4	Abril	2023-10-04T00:00:00	2024-11-08T15:00:00	1	Precipitación	0
87144	7	Sololá	704	Santa Lucía Utatlán 	7	Santa Rita 	4	Abril	2023-10-04T00:00:00	2024-11-08T15:00:00	8	Radiación solar	942
87145	7	Sololá	704	Santa Lucía Utatlán 	7	Santa Rita 	4	Abril	2023-10-04T00:00:00	2024-11-08T16:00:00	2	Temperatura media	24.3
87146	7	Sololá	704	Santa Lucía Utatlán 	7	Santa Rita 	4	Abril	2023-10-04T00:00:00	2024-11-08T16:00:00	4	Temperatura máxima	25.1
87147	7	Sololá	704	Santa Lucía Utatlán 	7	Santa Rita 	4	Abril	2023-10-04T00:00:00	2024-11-08T16:00:00	3	Temperatura mínima	24.2
87148	7	Sololá	704	Santa Lucía Utatlán 	7	Santa Rita 	4	Abril	2023-10-04T00:00:00	2024-11-08T16:00:00	5	Humedad	40
87149	7	Sololá	704	Santa Lucía Utatlán 	7	Santa Rita 	4	Abril	2023-10-04T00:00:00	2024-11-08T16:00:00	6	Velocidad del viento	14.5
87150	7	Sololá	704	Santa Lucía Utatlán 	7	Santa Rita 	4	Abril	2023-10-04T00:00:00	2024-11-08T16:00:00	7	Dirección del viento	14.48
87151	7	Sololá	704	Santa Lucía Utatlán 	7	Santa Rita 	4	Abril	2023-10-04T00:00:00	2024-11-08T16:00:00	1	Precipitación	0
87152	7	Sololá	704	Santa Lucía Utatlán 	7	Santa Rita 	4	Abril	2023-10-04T00:00:00	2024-11-08T16:00:00	8	Radiación solar	697
87153	7	Sololá	704	Santa Lucía Utatlán 	7	Santa Rita 	4	Abril	2023-10-04T00:00:00	2024-11-08T17:00:00	2	Temperatura media	23.1
87154	7	Sololá	704	Santa Lucía Utatlán 	7	Santa Rita 	4	Abril	2023-10-04T00:00:00	2024-11-08T17:00:00	4	Temperatura máxima	24.4
87155	7	Sololá	704	Santa Lucía Utatlán 	7	Santa Rita 	4	Abril	2023-10-04T00:00:00	2024-11-08T17:00:00	3	Temperatura mínima	23.1
87156	7	Sololá	704	Santa Lucía Utatlán 	7	Santa Rita 	4	Abril	2023-10-04T00:00:00	2024-11-08T17:00:00	5	Humedad	45
87157	7	Sololá	704	Santa Lucía Utatlán 	7	Santa Rita 	4	Abril	2023-10-04T00:00:00	2024-11-08T17:00:00	6	Velocidad del viento	14.5
87158	7	Sololá	704	Santa Lucía Utatlán 	7	Santa Rita 	4	Abril	2023-10-04T00:00:00	2024-11-08T17:00:00	7	Dirección del viento	14.48
87159	7	Sololá	704	Santa Lucía Utatlán 	7	Santa Rita 	4	Abril	2023-10-04T00:00:00	2024-11-08T17:00:00	1	Precipitación	0
87160	7	Sololá	704	Santa Lucía Utatlán 	7	Santa Rita 	4	Abril	2023-10-04T00:00:00	2024-11-08T17:00:00	8	Radiación solar	422
87161	7	Sololá	704	Santa Lucía Utatlán 	7	Santa Rita 	4	Abril	2023-10-04T00:00:00	2024-11-08T18:00:00	2	Temperatura media	21.7
87162	7	Sololá	704	Santa Lucía Utatlán 	7	Santa Rita 	4	Abril	2023-10-04T00:00:00	2024-11-08T18:00:00	4	Temperatura máxima	23.2
87163	7	Sololá	704	Santa Lucía Utatlán 	7	Santa Rita 	4	Abril	2023-10-04T00:00:00	2024-11-08T18:00:00	3	Temperatura mínima	21.7
87164	7	Sololá	704	Santa Lucía Utatlán 	7	Santa Rita 	4	Abril	2023-10-04T00:00:00	2024-11-08T18:00:00	5	Humedad	52
87165	7	Sololá	704	Santa Lucía Utatlán 	7	Santa Rita 	4	Abril	2023-10-04T00:00:00	2024-11-08T18:00:00	6	Velocidad del viento	12.9
87166	7	Sololá	704	Santa Lucía Utatlán 	7	Santa Rita 	4	Abril	2023-10-04T00:00:00	2024-11-08T18:00:00	7	Dirección del viento	12.87
87167	7	Sololá	704	Santa Lucía Utatlán 	7	Santa Rita 	4	Abril	2023-10-04T00:00:00	2024-11-08T18:00:00	1	Precipitación	0
87168	7	Sololá	704	Santa Lucía Utatlán 	7	Santa Rita 	4	Abril	2023-10-04T00:00:00	2024-11-08T18:00:00	8	Radiación solar	311
87169	7	Sololá	704	Santa Lucía Utatlán 	7	Santa Rita 	4	Abril	2023-10-04T00:00:00	2024-11-08T19:00:00	2	Temperatura media	19.9
87170	7	Sololá	704	Santa Lucía Utatlán 	7	Santa Rita 	4	Abril	2023-10-04T00:00:00	2024-11-08T19:00:00	4	Temperatura máxima	21.7
87171	7	Sololá	704	Santa Lucía Utatlán 	7	Santa Rita 	4	Abril	2023-10-04T00:00:00	2024-11-08T19:00:00	3	Temperatura mínima	19.9
87172	7	Sololá	704	Santa Lucía Utatlán 	7	Santa Rita 	4	Abril	2023-10-04T00:00:00	2024-11-08T19:00:00	5	Humedad	57
87173	7	Sololá	704	Santa Lucía Utatlán 	7	Santa Rita 	4	Abril	2023-10-04T00:00:00	2024-11-08T19:00:00	6	Velocidad del viento	9.7
87174	7	Sololá	704	Santa Lucía Utatlán 	7	Santa Rita 	4	Abril	2023-10-04T00:00:00	2024-11-08T19:00:00	7	Dirección del viento	9.66
87175	7	Sololá	704	Santa Lucía Utatlán 	7	Santa Rita 	4	Abril	2023-10-04T00:00:00	2024-11-08T19:00:00	1	Precipitación	0
87176	7	Sololá	704	Santa Lucía Utatlán 	7	Santa Rita 	4	Abril	2023-10-04T00:00:00	2024-11-08T19:00:00	8	Radiación solar	0
87177	7	Sololá	704	Santa Lucía Utatlán 	7	Santa Rita 	4	Abril	2023-10-04T00:00:00	2024-11-08T20:00:00	2	Temperatura media	18.5
87178	7	Sololá	704	Santa Lucía Utatlán 	7	Santa Rita 	4	Abril	2023-10-04T00:00:00	2024-11-08T20:00:00	4	Temperatura máxima	19.9
87179	7	Sololá	704	Santa Lucía Utatlán 	7	Santa Rita 	4	Abril	2023-10-04T00:00:00	2024-11-08T20:00:00	3	Temperatura mínima	18.5
87180	7	Sololá	704	Santa Lucía Utatlán 	7	Santa Rita 	4	Abril	2023-10-04T00:00:00	2024-11-08T20:00:00	5	Humedad	63
87181	7	Sololá	704	Santa Lucía Utatlán 	7	Santa Rita 	4	Abril	2023-10-04T00:00:00	2024-11-08T20:00:00	6	Velocidad del viento	4.8
87182	7	Sololá	704	Santa Lucía Utatlán 	7	Santa Rita 	4	Abril	2023-10-04T00:00:00	2024-11-08T20:00:00	7	Dirección del viento	4.83
87183	7	Sololá	704	Santa Lucía Utatlán 	7	Santa Rita 	4	Abril	2023-10-04T00:00:00	2024-11-08T20:00:00	1	Precipitación	0
87184	7	Sololá	704	Santa Lucía Utatlán 	7	Santa Rita 	4	Abril	2023-10-04T00:00:00	2024-11-08T20:00:00	8	Radiación solar	0
87185	7	Sololá	704	Santa Lucía Utatlán 	7	Santa Rita 	4	Abril	2023-10-04T00:00:00	2024-11-08T21:00:00	2	Temperatura media	17.8
87186	7	Sololá	704	Santa Lucía Utatlán 	7	Santa Rita 	4	Abril	2023-10-04T00:00:00	2024-11-08T21:00:00	4	Temperatura máxima	18.5
87187	7	Sololá	704	Santa Lucía Utatlán 	7	Santa Rita 	4	Abril	2023-10-04T00:00:00	2024-11-08T21:00:00	3	Temperatura mínima	17.8
87188	7	Sololá	704	Santa Lucía Utatlán 	7	Santa Rita 	4	Abril	2023-10-04T00:00:00	2024-11-08T21:00:00	5	Humedad	69
87189	7	Sololá	704	Santa Lucía Utatlán 	7	Santa Rita 	4	Abril	2023-10-04T00:00:00	2024-11-08T21:00:00	6	Velocidad del viento	8
87190	7	Sololá	704	Santa Lucía Utatlán 	7	Santa Rita 	4	Abril	2023-10-04T00:00:00	2024-11-08T21:00:00	7	Dirección del viento	8.05
87191	7	Sololá	704	Santa Lucía Utatlán 	7	Santa Rita 	4	Abril	2023-10-04T00:00:00	2024-11-08T21:00:00	1	Precipitación	0
87192	7	Sololá	704	Santa Lucía Utatlán 	7	Santa Rita 	4	Abril	2023-10-04T00:00:00	2024-11-08T21:00:00	8	Radiación solar	0
87193	7	Sololá	704	Santa Lucía Utatlán 	7	Santa Rita 	4	Abril	2023-10-04T00:00:00	2024-11-08T22:00:00	2	Temperatura media	17.5
87194	7	Sololá	704	Santa Lucía Utatlán 	7	Santa Rita 	4	Abril	2023-10-04T00:00:00	2024-11-08T22:00:00	4	Temperatura máxima	17.9
87195	7	Sololá	704	Santa Lucía Utatlán 	7	Santa Rita 	4	Abril	2023-10-04T00:00:00	2024-11-08T22:00:00	3	Temperatura mínima	17.4
87196	7	Sololá	704	Santa Lucía Utatlán 	7	Santa Rita 	4	Abril	2023-10-04T00:00:00	2024-11-08T22:00:00	5	Humedad	68
87197	7	Sololá	704	Santa Lucía Utatlán 	7	Santa Rita 	4	Abril	2023-10-04T00:00:00	2024-11-08T22:00:00	6	Velocidad del viento	14.5
87198	7	Sololá	704	Santa Lucía Utatlán 	7	Santa Rita 	4	Abril	2023-10-04T00:00:00	2024-11-08T22:00:00	7	Dirección del viento	14.48
87199	7	Sololá	704	Santa Lucía Utatlán 	7	Santa Rita 	4	Abril	2023-10-04T00:00:00	2024-11-08T22:00:00	1	Precipitación	0
87200	7	Sololá	704	Santa Lucía Utatlán 	7	Santa Rita 	4	Abril	2023-10-04T00:00:00	2024-11-08T22:00:00	8	Radiación solar	0
87201	7	Sololá	704	Santa Lucía Utatlán 	7	Santa Rita 	4	Abril	2023-10-04T00:00:00	2024-11-08T23:00:00	2	Temperatura media	17.6
87202	7	Sololá	704	Santa Lucía Utatlán 	7	Santa Rita 	4	Abril	2023-10-04T00:00:00	2024-11-08T23:00:00	4	Temperatura máxima	17.7
87203	7	Sololá	704	Santa Lucía Utatlán 	7	Santa Rita 	4	Abril	2023-10-04T00:00:00	2024-11-08T23:00:00	3	Temperatura mínima	17.3
87204	7	Sololá	704	Santa Lucía Utatlán 	7	Santa Rita 	4	Abril	2023-10-04T00:00:00	2024-11-08T23:00:00	5	Humedad	58
87205	7	Sololá	704	Santa Lucía Utatlán 	7	Santa Rita 	4	Abril	2023-10-04T00:00:00	2024-11-08T23:00:00	6	Velocidad del viento	14.5
87206	7	Sololá	704	Santa Lucía Utatlán 	7	Santa Rita 	4	Abril	2023-10-04T00:00:00	2024-11-08T23:00:00	7	Dirección del viento	14.48
87207	7	Sololá	704	Santa Lucía Utatlán 	7	Santa Rita 	4	Abril	2023-10-04T00:00:00	2024-11-08T23:00:00	1	Precipitación	0
87208	7	Sololá	704	Santa Lucía Utatlán 	7	Santa Rita 	4	Abril	2023-10-04T00:00:00	2024-11-08T23:00:00	8	Radiación solar	0
87209	7	Sololá	704	Santa Lucía Utatlán 	7	Santa Rita 	4	Abril	2023-11-04T00:00:00	2024-11-08T00:00:00	2	Temperatura media	17.4
87210	7	Sololá	704	Santa Lucía Utatlán 	7	Santa Rita 	4	Abril	2023-11-04T00:00:00	2024-11-08T00:00:00	4	Temperatura máxima	17.8
87211	7	Sololá	704	Santa Lucía Utatlán 	7	Santa Rita 	4	Abril	2023-11-04T00:00:00	2024-11-08T00:00:00	3	Temperatura mínima	17.3
87212	7	Sololá	704	Santa Lucía Utatlán 	7	Santa Rita 	4	Abril	2023-11-04T00:00:00	2024-11-08T00:00:00	5	Humedad	64
87213	7	Sololá	704	Santa Lucía Utatlán 	7	Santa Rita 	4	Abril	2023-11-04T00:00:00	2024-11-08T00:00:00	6	Velocidad del viento	14.5
87214	7	Sololá	704	Santa Lucía Utatlán 	7	Santa Rita 	4	Abril	2023-11-04T00:00:00	2024-11-08T00:00:00	7	Dirección del viento	14.48
87215	7	Sololá	704	Santa Lucía Utatlán 	7	Santa Rita 	4	Abril	2023-11-04T00:00:00	2024-11-08T00:00:00	1	Precipitación	0
87216	7	Sololá	704	Santa Lucía Utatlán 	7	Santa Rita 	4	Abril	2023-11-04T00:00:00	2024-11-08T00:00:00	8	Radiación solar	0
87217	7	Sololá	704	Santa Lucía Utatlán 	7	Santa Rita 	4	Abril	2023-11-04T00:00:00	2024-11-08T01:00:00	2	Temperatura media	17.6
87218	7	Sololá	704	Santa Lucía Utatlán 	7	Santa Rita 	4	Abril	2023-11-04T00:00:00	2024-11-08T01:00:00	4	Temperatura máxima	17.6
87219	7	Sololá	704	Santa Lucía Utatlán 	7	Santa Rita 	4	Abril	2023-11-04T00:00:00	2024-11-08T01:00:00	3	Temperatura mínima	17.2
87220	7	Sololá	704	Santa Lucía Utatlán 	7	Santa Rita 	4	Abril	2023-11-04T00:00:00	2024-11-08T01:00:00	5	Humedad	60
87221	7	Sololá	704	Santa Lucía Utatlán 	7	Santa Rita 	4	Abril	2023-11-04T00:00:00	2024-11-08T01:00:00	6	Velocidad del viento	12.9
87222	7	Sololá	704	Santa Lucía Utatlán 	7	Santa Rita 	4	Abril	2023-11-04T00:00:00	2024-11-08T01:00:00	7	Dirección del viento	12.87
87223	7	Sololá	704	Santa Lucía Utatlán 	7	Santa Rita 	4	Abril	2023-11-04T00:00:00	2024-11-08T01:00:00	1	Precipitación	0
87224	7	Sololá	704	Santa Lucía Utatlán 	7	Santa Rita 	4	Abril	2023-11-04T00:00:00	2024-11-08T01:00:00	8	Radiación solar	0
87225	7	Sololá	704	Santa Lucía Utatlán 	7	Santa Rita 	4	Abril	2023-11-04T00:00:00	2024-11-08T02:00:00	2	Temperatura media	17.8
87226	7	Sololá	704	Santa Lucía Utatlán 	7	Santa Rita 	4	Abril	2023-11-04T00:00:00	2024-11-08T02:00:00	4	Temperatura máxima	17.9
87227	7	Sololá	704	Santa Lucía Utatlán 	7	Santa Rita 	4	Abril	2023-11-04T00:00:00	2024-11-08T02:00:00	3	Temperatura mínima	17.5
87228	7	Sololá	704	Santa Lucía Utatlán 	7	Santa Rita 	4	Abril	2023-11-04T00:00:00	2024-11-08T02:00:00	5	Humedad	57
87229	7	Sololá	704	Santa Lucía Utatlán 	7	Santa Rita 	4	Abril	2023-11-04T00:00:00	2024-11-08T02:00:00	6	Velocidad del viento	14.5
87230	7	Sololá	704	Santa Lucía Utatlán 	7	Santa Rita 	4	Abril	2023-11-04T00:00:00	2024-11-08T02:00:00	7	Dirección del viento	14.48
87231	7	Sololá	704	Santa Lucía Utatlán 	7	Santa Rita 	4	Abril	2023-11-04T00:00:00	2024-11-08T02:00:00	1	Precipitación	0
87232	7	Sololá	704	Santa Lucía Utatlán 	7	Santa Rita 	4	Abril	2023-11-04T00:00:00	2024-11-08T02:00:00	8	Radiación solar	0
87233	7	Sololá	704	Santa Lucía Utatlán 	7	Santa Rita 	4	Abril	2023-11-04T00:00:00	2024-11-08T03:00:00	2	Temperatura media	17.6
87234	7	Sololá	704	Santa Lucía Utatlán 	7	Santa Rita 	4	Abril	2023-11-04T00:00:00	2024-11-08T03:00:00	4	Temperatura máxima	17.9
87235	7	Sololá	704	Santa Lucía Utatlán 	7	Santa Rita 	4	Abril	2023-11-04T00:00:00	2024-11-08T03:00:00	3	Temperatura mínima	17.6
87236	7	Sololá	704	Santa Lucía Utatlán 	7	Santa Rita 	4	Abril	2023-11-04T00:00:00	2024-11-08T03:00:00	5	Humedad	60
87237	7	Sololá	704	Santa Lucía Utatlán 	7	Santa Rita 	4	Abril	2023-11-04T00:00:00	2024-11-08T03:00:00	6	Velocidad del viento	11.3
87238	7	Sololá	704	Santa Lucía Utatlán 	7	Santa Rita 	4	Abril	2023-11-04T00:00:00	2024-11-08T03:00:00	7	Dirección del viento	11.27
87239	7	Sololá	704	Santa Lucía Utatlán 	7	Santa Rita 	4	Abril	2023-11-04T00:00:00	2024-11-08T03:00:00	1	Precipitación	0
87240	7	Sololá	704	Santa Lucía Utatlán 	7	Santa Rita 	4	Abril	2023-11-04T00:00:00	2024-11-08T03:00:00	8	Radiación solar	0
87241	7	Sololá	704	Santa Lucía Utatlán 	7	Santa Rita 	4	Abril	2023-11-04T00:00:00	2024-11-08T04:00:00	2	Temperatura media	17.4
87242	7	Sololá	704	Santa Lucía Utatlán 	7	Santa Rita 	4	Abril	2023-11-04T00:00:00	2024-11-08T04:00:00	4	Temperatura máxima	17.7
87243	7	Sololá	704	Santa Lucía Utatlán 	7	Santa Rita 	4	Abril	2023-11-04T00:00:00	2024-11-08T04:00:00	3	Temperatura mínima	17.2
87244	7	Sololá	704	Santa Lucía Utatlán 	7	Santa Rita 	4	Abril	2023-11-04T00:00:00	2024-11-08T04:00:00	5	Humedad	59
87245	7	Sololá	704	Santa Lucía Utatlán 	7	Santa Rita 	4	Abril	2023-11-04T00:00:00	2024-11-08T04:00:00	6	Velocidad del viento	8
87246	7	Sololá	704	Santa Lucía Utatlán 	7	Santa Rita 	4	Abril	2023-11-04T00:00:00	2024-11-08T04:00:00	7	Dirección del viento	8.05
87247	7	Sololá	704	Santa Lucía Utatlán 	7	Santa Rita 	4	Abril	2023-11-04T00:00:00	2024-11-08T04:00:00	1	Precipitación	0
87248	7	Sololá	704	Santa Lucía Utatlán 	7	Santa Rita 	4	Abril	2023-11-04T00:00:00	2024-11-08T04:00:00	8	Radiación solar	0
87249	7	Sololá	704	Santa Lucía Utatlán 	7	Santa Rita 	4	Abril	2023-11-04T00:00:00	2024-11-08T05:00:00	2	Temperatura media	18
87250	7	Sololá	704	Santa Lucía Utatlán 	7	Santa Rita 	4	Abril	2023-11-04T00:00:00	2024-11-08T05:00:00	4	Temperatura máxima	18
87251	7	Sololá	704	Santa Lucía Utatlán 	7	Santa Rita 	4	Abril	2023-11-04T00:00:00	2024-11-08T05:00:00	3	Temperatura mínima	17.4
87252	7	Sololá	704	Santa Lucía Utatlán 	7	Santa Rita 	4	Abril	2023-11-04T00:00:00	2024-11-08T05:00:00	5	Humedad	57
87253	7	Sololá	704	Santa Lucía Utatlán 	7	Santa Rita 	4	Abril	2023-11-04T00:00:00	2024-11-08T05:00:00	6	Velocidad del viento	6.4
87254	7	Sololá	704	Santa Lucía Utatlán 	7	Santa Rita 	4	Abril	2023-11-04T00:00:00	2024-11-08T05:00:00	7	Dirección del viento	6.44
87255	7	Sololá	704	Santa Lucía Utatlán 	7	Santa Rita 	4	Abril	2023-11-04T00:00:00	2024-11-08T05:00:00	1	Precipitación	0
87256	7	Sololá	704	Santa Lucía Utatlán 	7	Santa Rita 	4	Abril	2023-11-04T00:00:00	2024-11-08T05:00:00	8	Radiación solar	0
87257	7	Sololá	704	Santa Lucía Utatlán 	7	Santa Rita 	4	Abril	2023-11-04T00:00:00	2024-11-08T06:00:00	2	Temperatura media	17.6
87258	7	Sololá	704	Santa Lucía Utatlán 	7	Santa Rita 	4	Abril	2023-11-04T00:00:00	2024-11-08T06:00:00	4	Temperatura máxima	18.1
87259	7	Sololá	704	Santa Lucía Utatlán 	7	Santa Rita 	4	Abril	2023-11-04T00:00:00	2024-11-08T06:00:00	3	Temperatura mínima	17.3
87260	7	Sololá	704	Santa Lucía Utatlán 	7	Santa Rita 	4	Abril	2023-11-04T00:00:00	2024-11-08T06:00:00	5	Humedad	61
87261	7	Sololá	704	Santa Lucía Utatlán 	7	Santa Rita 	4	Abril	2023-11-04T00:00:00	2024-11-08T06:00:00	6	Velocidad del viento	6.4
87262	7	Sololá	704	Santa Lucía Utatlán 	7	Santa Rita 	4	Abril	2023-11-04T00:00:00	2024-11-08T06:00:00	7	Dirección del viento	6.44
87263	7	Sololá	704	Santa Lucía Utatlán 	7	Santa Rita 	4	Abril	2023-11-04T00:00:00	2024-11-08T06:00:00	1	Precipitación	0
87264	7	Sololá	704	Santa Lucía Utatlán 	7	Santa Rita 	4	Abril	2023-11-04T00:00:00	2024-11-08T06:00:00	8	Radiación solar	0
87265	7	Sololá	704	Santa Lucía Utatlán 	7	Santa Rita 	4	Abril	2023-11-04T00:00:00	2024-11-08T07:00:00	2	Temperatura media	15.9
87266	7	Sololá	704	Santa Lucía Utatlán 	7	Santa Rita 	4	Abril	2023-11-04T00:00:00	2024-11-08T07:00:00	4	Temperatura máxima	17.6
87267	7	Sololá	704	Santa Lucía Utatlán 	7	Santa Rita 	4	Abril	2023-11-04T00:00:00	2024-11-08T07:00:00	3	Temperatura mínima	15.9
87268	7	Sololá	704	Santa Lucía Utatlán 	7	Santa Rita 	4	Abril	2023-11-04T00:00:00	2024-11-08T07:00:00	5	Humedad	67
87269	7	Sololá	704	Santa Lucía Utatlán 	7	Santa Rita 	4	Abril	2023-11-04T00:00:00	2024-11-08T07:00:00	6	Velocidad del viento	6.4
87270	7	Sololá	704	Santa Lucía Utatlán 	7	Santa Rita 	4	Abril	2023-11-04T00:00:00	2024-11-08T07:00:00	7	Dirección del viento	6.44
87271	7	Sololá	704	Santa Lucía Utatlán 	7	Santa Rita 	4	Abril	2023-11-04T00:00:00	2024-11-08T07:00:00	1	Precipitación	0
87272	7	Sololá	704	Santa Lucía Utatlán 	7	Santa Rita 	4	Abril	2023-11-04T00:00:00	2024-11-08T07:00:00	8	Radiación solar	1
87273	7	Sololá	704	Santa Lucía Utatlán 	7	Santa Rita 	4	Abril	2023-11-04T00:00:00	2024-11-08T08:00:00	2	Temperatura media	17.3
87274	7	Sololá	704	Santa Lucía Utatlán 	7	Santa Rita 	4	Abril	2023-11-04T00:00:00	2024-11-08T08:00:00	4	Temperatura máxima	17.3
87275	7	Sololá	704	Santa Lucía Utatlán 	7	Santa Rita 	4	Abril	2023-11-04T00:00:00	2024-11-08T08:00:00	3	Temperatura mínima	15.8
87276	7	Sololá	704	Santa Lucía Utatlán 	7	Santa Rita 	4	Abril	2023-11-04T00:00:00	2024-11-08T08:00:00	5	Humedad	66
87277	7	Sololá	704	Santa Lucía Utatlán 	7	Santa Rita 	4	Abril	2023-11-04T00:00:00	2024-11-08T08:00:00	6	Velocidad del viento	6.4
87278	7	Sololá	704	Santa Lucía Utatlán 	7	Santa Rita 	4	Abril	2023-11-04T00:00:00	2024-11-08T08:00:00	7	Dirección del viento	6.44
87279	7	Sololá	704	Santa Lucía Utatlán 	7	Santa Rita 	4	Abril	2023-11-04T00:00:00	2024-11-08T08:00:00	1	Precipitación	0
87280	7	Sololá	704	Santa Lucía Utatlán 	7	Santa Rita 	4	Abril	2023-11-04T00:00:00	2024-11-08T08:00:00	8	Radiación solar	48
87281	7	Sololá	704	Santa Lucía Utatlán 	7	Santa Rita 	4	Abril	2023-11-04T00:00:00	2024-11-08T09:00:00	2	Temperatura media	20.1
87282	7	Sololá	704	Santa Lucía Utatlán 	7	Santa Rita 	4	Abril	2023-11-04T00:00:00	2024-11-08T09:00:00	4	Temperatura máxima	20.1
87283	7	Sololá	704	Santa Lucía Utatlán 	7	Santa Rita 	4	Abril	2023-11-04T00:00:00	2024-11-08T09:00:00	3	Temperatura mínima	17.3
87284	7	Sololá	704	Santa Lucía Utatlán 	7	Santa Rita 	4	Abril	2023-11-04T00:00:00	2024-11-08T09:00:00	5	Humedad	53
87285	7	Sololá	704	Santa Lucía Utatlán 	7	Santa Rita 	4	Abril	2023-11-04T00:00:00	2024-11-08T09:00:00	6	Velocidad del viento	9.7
87286	7	Sololá	704	Santa Lucía Utatlán 	7	Santa Rita 	4	Abril	2023-11-04T00:00:00	2024-11-08T09:00:00	7	Dirección del viento	9.66
87287	7	Sololá	704	Santa Lucía Utatlán 	7	Santa Rita 	4	Abril	2023-11-04T00:00:00	2024-11-08T09:00:00	1	Precipitación	0
87288	7	Sololá	704	Santa Lucía Utatlán 	7	Santa Rita 	4	Abril	2023-11-04T00:00:00	2024-11-08T09:00:00	8	Radiación solar	394
87289	7	Sololá	704	Santa Lucía Utatlán 	7	Santa Rita 	4	Abril	2023-11-04T00:00:00	2024-11-08T10:00:00	2	Temperatura media	22.2
87290	7	Sololá	704	Santa Lucía Utatlán 	7	Santa Rita 	4	Abril	2023-11-04T00:00:00	2024-11-08T10:00:00	4	Temperatura máxima	22.2
87291	7	Sololá	704	Santa Lucía Utatlán 	7	Santa Rita 	4	Abril	2023-11-04T00:00:00	2024-11-08T10:00:00	3	Temperatura mínima	19.9
87292	7	Sololá	704	Santa Lucía Utatlán 	7	Santa Rita 	4	Abril	2023-11-04T00:00:00	2024-11-08T10:00:00	5	Humedad	50
87293	7	Sololá	704	Santa Lucía Utatlán 	7	Santa Rita 	4	Abril	2023-11-04T00:00:00	2024-11-08T10:00:00	6	Velocidad del viento	6.4
87294	7	Sololá	704	Santa Lucía Utatlán 	7	Santa Rita 	4	Abril	2023-11-04T00:00:00	2024-11-08T10:00:00	7	Dirección del viento	6.44
87295	7	Sololá	704	Santa Lucía Utatlán 	7	Santa Rita 	4	Abril	2023-11-04T00:00:00	2024-11-08T10:00:00	1	Precipitación	0
87296	7	Sololá	704	Santa Lucía Utatlán 	7	Santa Rita 	4	Abril	2023-11-04T00:00:00	2024-11-08T10:00:00	8	Radiación solar	619
87297	7	Sololá	704	Santa Lucía Utatlán 	7	Santa Rita 	4	Abril	2023-11-04T00:00:00	2024-11-08T11:00:00	2	Temperatura media	23.3
87298	7	Sololá	704	Santa Lucía Utatlán 	7	Santa Rita 	4	Abril	2023-11-04T00:00:00	2024-11-08T11:00:00	4	Temperatura máxima	23.3
87299	7	Sololá	704	Santa Lucía Utatlán 	7	Santa Rita 	4	Abril	2023-11-04T00:00:00	2024-11-08T11:00:00	3	Temperatura mínima	21.9
87300	7	Sololá	704	Santa Lucía Utatlán 	7	Santa Rita 	4	Abril	2023-11-04T00:00:00	2024-11-08T11:00:00	5	Humedad	45
87301	7	Sololá	704	Santa Lucía Utatlán 	7	Santa Rita 	4	Abril	2023-11-04T00:00:00	2024-11-08T11:00:00	6	Velocidad del viento	9.7
87302	7	Sololá	704	Santa Lucía Utatlán 	7	Santa Rita 	4	Abril	2023-11-04T00:00:00	2024-11-08T11:00:00	7	Dirección del viento	9.66
87303	7	Sololá	704	Santa Lucía Utatlán 	7	Santa Rita 	4	Abril	2023-11-04T00:00:00	2024-11-08T11:00:00	1	Precipitación	0
87304	7	Sololá	704	Santa Lucía Utatlán 	7	Santa Rita 	4	Abril	2023-11-04T00:00:00	2024-11-08T11:00:00	8	Radiación solar	817
87305	7	Sololá	704	Santa Lucía Utatlán 	7	Santa Rita 	4	Abril	2023-11-04T00:00:00	2024-11-08T12:00:00	2	Temperatura media	24.2
87306	7	Sololá	704	Santa Lucía Utatlán 	7	Santa Rita 	4	Abril	2023-11-04T00:00:00	2024-11-08T12:00:00	4	Temperatura máxima	24.2
87307	7	Sololá	704	Santa Lucía Utatlán 	7	Santa Rita 	4	Abril	2023-11-04T00:00:00	2024-11-08T12:00:00	3	Temperatura mínima	23.3
87308	7	Sololá	704	Santa Lucía Utatlán 	7	Santa Rita 	4	Abril	2023-11-04T00:00:00	2024-11-08T12:00:00	5	Humedad	40
87309	7	Sololá	704	Santa Lucía Utatlán 	7	Santa Rita 	4	Abril	2023-11-04T00:00:00	2024-11-08T12:00:00	6	Velocidad del viento	9.7
87310	7	Sololá	704	Santa Lucía Utatlán 	7	Santa Rita 	4	Abril	2023-11-04T00:00:00	2024-11-08T12:00:00	7	Dirección del viento	9.66
87311	7	Sololá	704	Santa Lucía Utatlán 	7	Santa Rita 	4	Abril	2023-11-04T00:00:00	2024-11-08T12:00:00	1	Precipitación	0
87312	7	Sololá	704	Santa Lucía Utatlán 	7	Santa Rita 	4	Abril	2023-11-04T00:00:00	2024-11-08T12:00:00	8	Radiación solar	957
87313	7	Sololá	704	Santa Lucía Utatlán 	7	Santa Rita 	4	Abril	2023-11-04T00:00:00	2024-11-08T13:00:00	2	Temperatura media	25.4
87314	7	Sololá	704	Santa Lucía Utatlán 	7	Santa Rita 	4	Abril	2023-11-04T00:00:00	2024-11-08T13:00:00	4	Temperatura máxima	25.6
87315	7	Sololá	704	Santa Lucía Utatlán 	7	Santa Rita 	4	Abril	2023-11-04T00:00:00	2024-11-08T13:00:00	3	Temperatura mínima	23.9
87316	7	Sololá	704	Santa Lucía Utatlán 	7	Santa Rita 	4	Abril	2023-11-04T00:00:00	2024-11-08T13:00:00	5	Humedad	40
87317	7	Sololá	704	Santa Lucía Utatlán 	7	Santa Rita 	4	Abril	2023-11-04T00:00:00	2024-11-08T13:00:00	6	Velocidad del viento	11.3
87318	7	Sololá	704	Santa Lucía Utatlán 	7	Santa Rita 	4	Abril	2023-11-04T00:00:00	2024-11-08T13:00:00	7	Dirección del viento	11.27
87319	7	Sololá	704	Santa Lucía Utatlán 	7	Santa Rita 	4	Abril	2023-11-04T00:00:00	2024-11-08T13:00:00	1	Precipitación	0
87320	7	Sololá	704	Santa Lucía Utatlán 	7	Santa Rita 	4	Abril	2023-11-04T00:00:00	2024-11-08T13:00:00	8	Radiación solar	1028
87321	7	Sololá	704	Santa Lucía Utatlán 	7	Santa Rita 	4	Abril	2023-11-04T00:00:00	2024-11-08T14:00:00	2	Temperatura media	25.3
87322	7	Sololá	704	Santa Lucía Utatlán 	7	Santa Rita 	4	Abril	2023-11-04T00:00:00	2024-11-08T14:00:00	4	Temperatura máxima	25.9
87323	7	Sololá	704	Santa Lucía Utatlán 	7	Santa Rita 	4	Abril	2023-11-04T00:00:00	2024-11-08T14:00:00	3	Temperatura mínima	25.1
87324	7	Sololá	704	Santa Lucía Utatlán 	7	Santa Rita 	4	Abril	2023-11-04T00:00:00	2024-11-08T14:00:00	5	Humedad	39
87325	7	Sololá	704	Santa Lucía Utatlán 	7	Santa Rita 	4	Abril	2023-11-04T00:00:00	2024-11-08T14:00:00	6	Velocidad del viento	11.3
87326	7	Sololá	704	Santa Lucía Utatlán 	7	Santa Rita 	4	Abril	2023-11-04T00:00:00	2024-11-08T14:00:00	7	Dirección del viento	11.27
87327	7	Sololá	704	Santa Lucía Utatlán 	7	Santa Rita 	4	Abril	2023-11-04T00:00:00	2024-11-08T14:00:00	1	Precipitación	0
87328	7	Sololá	704	Santa Lucía Utatlán 	7	Santa Rita 	4	Abril	2023-11-04T00:00:00	2024-11-08T14:00:00	8	Radiación solar	1042
87329	7	Sololá	704	Santa Lucía Utatlán 	7	Santa Rita 	4	Abril	2023-11-04T00:00:00	2024-11-08T15:00:00	2	Temperatura media	25.4
87330	7	Sololá	704	Santa Lucía Utatlán 	7	Santa Rita 	4	Abril	2023-11-04T00:00:00	2024-11-08T15:00:00	4	Temperatura máxima	26.2
87331	7	Sololá	704	Santa Lucía Utatlán 	7	Santa Rita 	4	Abril	2023-11-04T00:00:00	2024-11-08T15:00:00	3	Temperatura mínima	25
87332	7	Sololá	704	Santa Lucía Utatlán 	7	Santa Rita 	4	Abril	2023-11-04T00:00:00	2024-11-08T15:00:00	5	Humedad	43
87333	7	Sololá	704	Santa Lucía Utatlán 	7	Santa Rita 	4	Abril	2023-11-04T00:00:00	2024-11-08T15:00:00	6	Velocidad del viento	14.5
87334	7	Sololá	704	Santa Lucía Utatlán 	7	Santa Rita 	4	Abril	2023-11-04T00:00:00	2024-11-08T15:00:00	7	Dirección del viento	14.48
87335	7	Sololá	704	Santa Lucía Utatlán 	7	Santa Rita 	4	Abril	2023-11-04T00:00:00	2024-11-08T15:00:00	1	Precipitación	0
87336	7	Sololá	704	Santa Lucía Utatlán 	7	Santa Rita 	4	Abril	2023-11-04T00:00:00	2024-11-08T15:00:00	8	Radiación solar	1061
87337	7	Sololá	704	Santa Lucía Utatlán 	7	Santa Rita 	4	Abril	2023-11-04T00:00:00	2024-11-08T16:00:00	2	Temperatura media	23.9
87338	7	Sololá	704	Santa Lucía Utatlán 	7	Santa Rita 	4	Abril	2023-11-04T00:00:00	2024-11-08T16:00:00	4	Temperatura máxima	25.4
87339	7	Sololá	704	Santa Lucía Utatlán 	7	Santa Rita 	4	Abril	2023-11-04T00:00:00	2024-11-08T16:00:00	3	Temperatura mínima	23.8
87340	7	Sololá	704	Santa Lucía Utatlán 	7	Santa Rita 	4	Abril	2023-11-04T00:00:00	2024-11-08T16:00:00	5	Humedad	50
87341	7	Sololá	704	Santa Lucía Utatlán 	7	Santa Rita 	4	Abril	2023-11-04T00:00:00	2024-11-08T16:00:00	6	Velocidad del viento	11.3
87342	7	Sololá	704	Santa Lucía Utatlán 	7	Santa Rita 	4	Abril	2023-11-04T00:00:00	2024-11-08T16:00:00	7	Dirección del viento	11.27
87343	7	Sololá	704	Santa Lucía Utatlán 	7	Santa Rita 	4	Abril	2023-11-04T00:00:00	2024-11-08T16:00:00	1	Precipitación	0
87344	7	Sololá	704	Santa Lucía Utatlán 	7	Santa Rita 	4	Abril	2023-11-04T00:00:00	2024-11-08T16:00:00	8	Radiación solar	377
87345	7	Sololá	704	Santa Lucía Utatlán 	7	Santa Rita 	4	Abril	2023-11-04T00:00:00	2024-11-08T17:00:00	2	Temperatura media	23.3
87346	7	Sololá	704	Santa Lucía Utatlán 	7	Santa Rita 	4	Abril	2023-11-04T00:00:00	2024-11-08T17:00:00	4	Temperatura máxima	23.9
87347	7	Sololá	704	Santa Lucía Utatlán 	7	Santa Rita 	4	Abril	2023-11-04T00:00:00	2024-11-08T17:00:00	3	Temperatura mínima	23
87348	7	Sololá	704	Santa Lucía Utatlán 	7	Santa Rita 	4	Abril	2023-11-04T00:00:00	2024-11-08T17:00:00	5	Humedad	54
87349	7	Sololá	704	Santa Lucía Utatlán 	7	Santa Rita 	4	Abril	2023-11-04T00:00:00	2024-11-08T17:00:00	6	Velocidad del viento	11.3
87350	7	Sololá	704	Santa Lucía Utatlán 	7	Santa Rita 	4	Abril	2023-11-04T00:00:00	2024-11-08T17:00:00	7	Dirección del viento	11.27
87351	7	Sololá	704	Santa Lucía Utatlán 	7	Santa Rita 	4	Abril	2023-11-04T00:00:00	2024-11-08T17:00:00	1	Precipitación	0
87352	7	Sololá	704	Santa Lucía Utatlán 	7	Santa Rita 	4	Abril	2023-11-04T00:00:00	2024-11-08T17:00:00	8	Radiación solar	226
87353	7	Sololá	704	Santa Lucía Utatlán 	7	Santa Rita 	4	Abril	2023-11-04T00:00:00	2024-11-08T18:00:00	2	Temperatura media	22.9
87354	7	Sololá	704	Santa Lucía Utatlán 	7	Santa Rita 	4	Abril	2023-11-04T00:00:00	2024-11-08T18:00:00	4	Temperatura máxima	23.8
87355	7	Sololá	704	Santa Lucía Utatlán 	7	Santa Rita 	4	Abril	2023-11-04T00:00:00	2024-11-08T18:00:00	3	Temperatura mínima	22.5
87356	7	Sololá	704	Santa Lucía Utatlán 	7	Santa Rita 	4	Abril	2023-11-04T00:00:00	2024-11-08T18:00:00	5	Humedad	63
87357	7	Sololá	704	Santa Lucía Utatlán 	7	Santa Rita 	4	Abril	2023-11-04T00:00:00	2024-11-08T18:00:00	6	Velocidad del viento	8
87358	7	Sololá	704	Santa Lucía Utatlán 	7	Santa Rita 	4	Abril	2023-11-04T00:00:00	2024-11-08T18:00:00	7	Dirección del viento	8.05
87359	7	Sololá	704	Santa Lucía Utatlán 	7	Santa Rita 	4	Abril	2023-11-04T00:00:00	2024-11-08T18:00:00	1	Precipitación	0
87360	7	Sololá	704	Santa Lucía Utatlán 	7	Santa Rita 	4	Abril	2023-11-04T00:00:00	2024-11-08T18:00:00	8	Radiación solar	127
87361	7	Sololá	704	Santa Lucía Utatlán 	7	Santa Rita 	4	Abril	2023-11-04T00:00:00	2024-11-08T19:00:00	2	Temperatura media	21.3
87362	7	Sololá	704	Santa Lucía Utatlán 	7	Santa Rita 	4	Abril	2023-11-04T00:00:00	2024-11-08T19:00:00	4	Temperatura máxima	22.9
87363	7	Sololá	704	Santa Lucía Utatlán 	7	Santa Rita 	4	Abril	2023-11-04T00:00:00	2024-11-08T19:00:00	3	Temperatura mínima	21.3
87364	7	Sololá	704	Santa Lucía Utatlán 	7	Santa Rita 	4	Abril	2023-11-04T00:00:00	2024-11-08T19:00:00	5	Humedad	63
87365	7	Sololá	704	Santa Lucía Utatlán 	7	Santa Rita 	4	Abril	2023-11-04T00:00:00	2024-11-08T19:00:00	6	Velocidad del viento	8
87366	7	Sololá	704	Santa Lucía Utatlán 	7	Santa Rita 	4	Abril	2023-11-04T00:00:00	2024-11-08T19:00:00	7	Dirección del viento	8.05
87367	7	Sololá	704	Santa Lucía Utatlán 	7	Santa Rita 	4	Abril	2023-11-04T00:00:00	2024-11-08T19:00:00	1	Precipitación	0
87368	7	Sololá	704	Santa Lucía Utatlán 	7	Santa Rita 	4	Abril	2023-11-04T00:00:00	2024-11-08T19:00:00	8	Radiación solar	0
87369	7	Sololá	704	Santa Lucía Utatlán 	7	Santa Rita 	4	Abril	2023-11-04T00:00:00	2024-11-08T20:00:00	2	Temperatura media	20.4
87370	7	Sololá	704	Santa Lucía Utatlán 	7	Santa Rita 	4	Abril	2023-11-04T00:00:00	2024-11-08T20:00:00	4	Temperatura máxima	21.4
87371	7	Sololá	704	Santa Lucía Utatlán 	7	Santa Rita 	4	Abril	2023-11-04T00:00:00	2024-11-08T20:00:00	3	Temperatura mínima	20.4
87372	7	Sololá	704	Santa Lucía Utatlán 	7	Santa Rita 	4	Abril	2023-11-04T00:00:00	2024-11-08T20:00:00	5	Humedad	63
87373	7	Sololá	704	Santa Lucía Utatlán 	7	Santa Rita 	4	Abril	2023-11-04T00:00:00	2024-11-08T20:00:00	6	Velocidad del viento	6.4
87374	7	Sololá	704	Santa Lucía Utatlán 	7	Santa Rita 	4	Abril	2023-11-04T00:00:00	2024-11-08T20:00:00	7	Dirección del viento	6.44
87375	7	Sololá	704	Santa Lucía Utatlán 	7	Santa Rita 	4	Abril	2023-11-04T00:00:00	2024-11-08T20:00:00	1	Precipitación	0
87376	7	Sololá	704	Santa Lucía Utatlán 	7	Santa Rita 	4	Abril	2023-11-04T00:00:00	2024-11-08T20:00:00	8	Radiación solar	0
87377	7	Sololá	704	Santa Lucía Utatlán 	7	Santa Rita 	4	Abril	2023-11-04T00:00:00	2024-11-08T21:00:00	2	Temperatura media	19.1
87378	7	Sololá	704	Santa Lucía Utatlán 	7	Santa Rita 	4	Abril	2023-11-04T00:00:00	2024-11-08T21:00:00	4	Temperatura máxima	20.4
87379	7	Sololá	704	Santa Lucía Utatlán 	7	Santa Rita 	4	Abril	2023-11-04T00:00:00	2024-11-08T21:00:00	3	Temperatura mínima	19
87380	7	Sololá	704	Santa Lucía Utatlán 	7	Santa Rita 	4	Abril	2023-11-04T00:00:00	2024-11-08T21:00:00	5	Humedad	70
87381	7	Sololá	704	Santa Lucía Utatlán 	7	Santa Rita 	4	Abril	2023-11-04T00:00:00	2024-11-08T21:00:00	6	Velocidad del viento	3.2
87382	7	Sololá	704	Santa Lucía Utatlán 	7	Santa Rita 	4	Abril	2023-11-04T00:00:00	2024-11-08T21:00:00	7	Dirección del viento	3.22
87383	7	Sololá	704	Santa Lucía Utatlán 	7	Santa Rita 	4	Abril	2023-11-04T00:00:00	2024-11-08T21:00:00	1	Precipitación	0
87384	7	Sololá	704	Santa Lucía Utatlán 	7	Santa Rita 	4	Abril	2023-11-04T00:00:00	2024-11-08T21:00:00	8	Radiación solar	0
87385	7	Sololá	704	Santa Lucía Utatlán 	7	Santa Rita 	4	Abril	2023-11-04T00:00:00	2024-11-08T22:00:00	2	Temperatura media	18.3
87386	7	Sololá	704	Santa Lucía Utatlán 	7	Santa Rita 	4	Abril	2023-11-04T00:00:00	2024-11-08T22:00:00	4	Temperatura máxima	19.1
87387	7	Sololá	704	Santa Lucía Utatlán 	7	Santa Rita 	4	Abril	2023-11-04T00:00:00	2024-11-08T22:00:00	3	Temperatura mínima	18.3
87388	7	Sololá	704	Santa Lucía Utatlán 	7	Santa Rita 	4	Abril	2023-11-04T00:00:00	2024-11-08T22:00:00	5	Humedad	71
87389	7	Sololá	704	Santa Lucía Utatlán 	7	Santa Rita 	4	Abril	2023-11-04T00:00:00	2024-11-08T22:00:00	6	Velocidad del viento	4.8
87390	7	Sololá	704	Santa Lucía Utatlán 	7	Santa Rita 	4	Abril	2023-11-04T00:00:00	2024-11-08T22:00:00	7	Dirección del viento	4.83
87391	7	Sololá	704	Santa Lucía Utatlán 	7	Santa Rita 	4	Abril	2023-11-04T00:00:00	2024-11-08T22:00:00	1	Precipitación	0
87392	7	Sololá	704	Santa Lucía Utatlán 	7	Santa Rita 	4	Abril	2023-11-04T00:00:00	2024-11-08T22:00:00	8	Radiación solar	0
87393	7	Sololá	704	Santa Lucía Utatlán 	7	Santa Rita 	4	Abril	2023-11-04T00:00:00	2024-11-08T23:00:00	2	Temperatura media	16.9
87394	7	Sololá	704	Santa Lucía Utatlán 	7	Santa Rita 	4	Abril	2023-11-04T00:00:00	2024-11-08T23:00:00	4	Temperatura máxima	18.3
87395	7	Sololá	704	Santa Lucía Utatlán 	7	Santa Rita 	4	Abril	2023-11-04T00:00:00	2024-11-08T23:00:00	3	Temperatura mínima	16.9
87396	7	Sololá	704	Santa Lucía Utatlán 	7	Santa Rita 	4	Abril	2023-11-04T00:00:00	2024-11-08T23:00:00	5	Humedad	67
87397	7	Sololá	704	Santa Lucía Utatlán 	7	Santa Rita 	4	Abril	2023-11-04T00:00:00	2024-11-08T23:00:00	6	Velocidad del viento	1.6
87398	7	Sololá	704	Santa Lucía Utatlán 	7	Santa Rita 	4	Abril	2023-11-04T00:00:00	2024-11-08T23:00:00	7	Dirección del viento	1.61
87399	7	Sololá	704	Santa Lucía Utatlán 	7	Santa Rita 	4	Abril	2023-11-04T00:00:00	2024-11-08T23:00:00	1	Precipitación	0
87400	7	Sololá	704	Santa Lucía Utatlán 	7	Santa Rita 	4	Abril	2023-11-04T00:00:00	2024-11-08T23:00:00	8	Radiación solar	0
87401	7	Sololá	704	Santa Lucía Utatlán 	7	Santa Rita 	4	Abril	2023-12-04T00:00:00	2024-11-08T00:00:00	2	Temperatura media	15.8
87402	7	Sololá	704	Santa Lucía Utatlán 	7	Santa Rita 	4	Abril	2023-12-04T00:00:00	2024-11-08T00:00:00	4	Temperatura máxima	16.9
87403	7	Sololá	704	Santa Lucía Utatlán 	7	Santa Rita 	4	Abril	2023-12-04T00:00:00	2024-11-08T00:00:00	3	Temperatura mínima	15.8
87404	7	Sololá	704	Santa Lucía Utatlán 	7	Santa Rita 	4	Abril	2023-12-04T00:00:00	2024-11-08T00:00:00	5	Humedad	69
87405	7	Sololá	704	Santa Lucía Utatlán 	7	Santa Rita 	4	Abril	2023-12-04T00:00:00	2024-11-08T00:00:00	6	Velocidad del viento	1.6
87406	7	Sololá	704	Santa Lucía Utatlán 	7	Santa Rita 	4	Abril	2023-12-04T00:00:00	2024-11-08T00:00:00	7	Dirección del viento	1.61
87407	7	Sololá	704	Santa Lucía Utatlán 	7	Santa Rita 	4	Abril	2023-12-04T00:00:00	2024-11-08T00:00:00	1	Precipitación	0
87408	7	Sololá	704	Santa Lucía Utatlán 	7	Santa Rita 	4	Abril	2023-12-04T00:00:00	2024-11-08T00:00:00	8	Radiación solar	0
87409	7	Sololá	704	Santa Lucía Utatlán 	7	Santa Rita 	4	Abril	2023-12-04T00:00:00	2024-11-08T01:00:00	2	Temperatura media	15.6
87410	7	Sololá	704	Santa Lucía Utatlán 	7	Santa Rita 	4	Abril	2023-12-04T00:00:00	2024-11-08T01:00:00	4	Temperatura máxima	15.8
87411	7	Sololá	704	Santa Lucía Utatlán 	7	Santa Rita 	4	Abril	2023-12-04T00:00:00	2024-11-08T01:00:00	3	Temperatura mínima	15.3
87412	7	Sololá	704	Santa Lucía Utatlán 	7	Santa Rita 	4	Abril	2023-12-04T00:00:00	2024-11-08T01:00:00	5	Humedad	69
87413	7	Sololá	704	Santa Lucía Utatlán 	7	Santa Rita 	4	Abril	2023-12-04T00:00:00	2024-11-08T01:00:00	6	Velocidad del viento	3.2
87414	7	Sololá	704	Santa Lucía Utatlán 	7	Santa Rita 	4	Abril	2023-12-04T00:00:00	2024-11-08T01:00:00	7	Dirección del viento	3.22
87415	7	Sololá	704	Santa Lucía Utatlán 	7	Santa Rita 	4	Abril	2023-12-04T00:00:00	2024-11-08T01:00:00	1	Precipitación	0
87416	7	Sololá	704	Santa Lucía Utatlán 	7	Santa Rita 	4	Abril	2023-12-04T00:00:00	2024-11-08T01:00:00	8	Radiación solar	0
87417	7	Sololá	704	Santa Lucía Utatlán 	7	Santa Rita 	4	Abril	2023-12-04T00:00:00	2024-11-08T02:00:00	2	Temperatura media	15.4
87418	7	Sololá	704	Santa Lucía Utatlán 	7	Santa Rita 	4	Abril	2023-12-04T00:00:00	2024-11-08T02:00:00	4	Temperatura máxima	16.7
87419	7	Sololá	704	Santa Lucía Utatlán 	7	Santa Rita 	4	Abril	2023-12-04T00:00:00	2024-11-08T02:00:00	3	Temperatura mínima	15.4
87420	7	Sololá	704	Santa Lucía Utatlán 	7	Santa Rita 	4	Abril	2023-12-04T00:00:00	2024-11-08T02:00:00	5	Humedad	69
87421	7	Sololá	704	Santa Lucía Utatlán 	7	Santa Rita 	4	Abril	2023-12-04T00:00:00	2024-11-08T02:00:00	6	Velocidad del viento	1.6
87422	7	Sololá	704	Santa Lucía Utatlán 	7	Santa Rita 	4	Abril	2023-12-04T00:00:00	2024-11-08T02:00:00	7	Dirección del viento	1.61
87423	7	Sololá	704	Santa Lucía Utatlán 	7	Santa Rita 	4	Abril	2023-12-04T00:00:00	2024-11-08T02:00:00	1	Precipitación	0
87424	7	Sololá	704	Santa Lucía Utatlán 	7	Santa Rita 	4	Abril	2023-12-04T00:00:00	2024-11-08T02:00:00	8	Radiación solar	0
87425	7	Sololá	704	Santa Lucía Utatlán 	7	Santa Rita 	4	Abril	2023-12-04T00:00:00	2024-11-08T03:00:00	2	Temperatura media	15.9
87426	7	Sololá	704	Santa Lucía Utatlán 	7	Santa Rita 	4	Abril	2023-12-04T00:00:00	2024-11-08T03:00:00	4	Temperatura máxima	16.4
87427	7	Sololá	704	Santa Lucía Utatlán 	7	Santa Rita 	4	Abril	2023-12-04T00:00:00	2024-11-08T03:00:00	3	Temperatura mínima	15.1
87428	7	Sololá	704	Santa Lucía Utatlán 	7	Santa Rita 	4	Abril	2023-12-04T00:00:00	2024-11-08T03:00:00	5	Humedad	64
87429	7	Sololá	704	Santa Lucía Utatlán 	7	Santa Rita 	4	Abril	2023-12-04T00:00:00	2024-11-08T03:00:00	6	Velocidad del viento	1.6
87430	7	Sololá	704	Santa Lucía Utatlán 	7	Santa Rita 	4	Abril	2023-12-04T00:00:00	2024-11-08T03:00:00	7	Dirección del viento	1.61
87431	7	Sololá	704	Santa Lucía Utatlán 	7	Santa Rita 	4	Abril	2023-12-04T00:00:00	2024-11-08T03:00:00	1	Precipitación	0
87432	7	Sololá	704	Santa Lucía Utatlán 	7	Santa Rita 	4	Abril	2023-12-04T00:00:00	2024-11-08T03:00:00	8	Radiación solar	0
87433	7	Sololá	704	Santa Lucía Utatlán 	7	Santa Rita 	4	Abril	2023-12-04T00:00:00	2024-11-08T04:00:00	2	Temperatura media	14.9
87434	7	Sololá	704	Santa Lucía Utatlán 	7	Santa Rita 	4	Abril	2023-12-04T00:00:00	2024-11-08T04:00:00	4	Temperatura máxima	15.9
87435	7	Sololá	704	Santa Lucía Utatlán 	7	Santa Rita 	4	Abril	2023-12-04T00:00:00	2024-11-08T04:00:00	3	Temperatura mínima	14.8
87436	7	Sololá	704	Santa Lucía Utatlán 	7	Santa Rita 	4	Abril	2023-12-04T00:00:00	2024-11-08T04:00:00	5	Humedad	62
87437	7	Sololá	704	Santa Lucía Utatlán 	7	Santa Rita 	4	Abril	2023-12-04T00:00:00	2024-11-08T04:00:00	6	Velocidad del viento	3.2
87438	7	Sololá	704	Santa Lucía Utatlán 	7	Santa Rita 	4	Abril	2023-12-04T00:00:00	2024-11-08T04:00:00	7	Dirección del viento	3.22
87439	7	Sololá	704	Santa Lucía Utatlán 	7	Santa Rita 	4	Abril	2023-12-04T00:00:00	2024-11-08T04:00:00	1	Precipitación	0
87440	7	Sololá	704	Santa Lucía Utatlán 	7	Santa Rita 	4	Abril	2023-12-04T00:00:00	2024-11-08T04:00:00	8	Radiación solar	0
87441	7	Sololá	704	Santa Lucía Utatlán 	7	Santa Rita 	4	Abril	2023-12-04T00:00:00	2024-11-08T05:00:00	2	Temperatura media	14.9
87442	7	Sololá	704	Santa Lucía Utatlán 	7	Santa Rita 	4	Abril	2023-12-04T00:00:00	2024-11-08T05:00:00	4	Temperatura máxima	15
87443	7	Sololá	704	Santa Lucía Utatlán 	7	Santa Rita 	4	Abril	2023-12-04T00:00:00	2024-11-08T05:00:00	3	Temperatura mínima	14.8
87444	7	Sololá	704	Santa Lucía Utatlán 	7	Santa Rita 	4	Abril	2023-12-04T00:00:00	2024-11-08T05:00:00	5	Humedad	57
87445	7	Sololá	704	Santa Lucía Utatlán 	7	Santa Rita 	4	Abril	2023-12-04T00:00:00	2024-11-08T05:00:00	6	Velocidad del viento	3.2
87446	7	Sololá	704	Santa Lucía Utatlán 	7	Santa Rita 	4	Abril	2023-12-04T00:00:00	2024-11-08T05:00:00	7	Dirección del viento	3.22
87447	7	Sololá	704	Santa Lucía Utatlán 	7	Santa Rita 	4	Abril	2023-12-04T00:00:00	2024-11-08T05:00:00	1	Precipitación	0
87448	7	Sololá	704	Santa Lucía Utatlán 	7	Santa Rita 	4	Abril	2023-12-04T00:00:00	2024-11-08T05:00:00	8	Radiación solar	0
87449	7	Sololá	704	Santa Lucía Utatlán 	7	Santa Rita 	4	Abril	2023-12-04T00:00:00	2024-11-08T06:00:00	2	Temperatura media	15.2
87450	7	Sololá	704	Santa Lucía Utatlán 	7	Santa Rita 	4	Abril	2023-12-04T00:00:00	2024-11-08T06:00:00	4	Temperatura máxima	15.3
87451	7	Sololá	704	Santa Lucía Utatlán 	7	Santa Rita 	4	Abril	2023-12-04T00:00:00	2024-11-08T06:00:00	3	Temperatura mínima	14.8
87452	7	Sololá	704	Santa Lucía Utatlán 	7	Santa Rita 	4	Abril	2023-12-04T00:00:00	2024-11-08T06:00:00	5	Humedad	55
87453	7	Sololá	704	Santa Lucía Utatlán 	7	Santa Rita 	4	Abril	2023-12-04T00:00:00	2024-11-08T06:00:00	6	Velocidad del viento	3.2
87454	7	Sololá	704	Santa Lucía Utatlán 	7	Santa Rita 	4	Abril	2023-12-04T00:00:00	2024-11-08T06:00:00	7	Dirección del viento	3.22
87455	7	Sololá	704	Santa Lucía Utatlán 	7	Santa Rita 	4	Abril	2023-12-04T00:00:00	2024-11-08T06:00:00	1	Precipitación	0
87456	7	Sololá	704	Santa Lucía Utatlán 	7	Santa Rita 	4	Abril	2023-12-04T00:00:00	2024-11-08T06:00:00	8	Radiación solar	0
87457	7	Sololá	704	Santa Lucía Utatlán 	7	Santa Rita 	4	Abril	2023-12-04T00:00:00	2024-11-08T07:00:00	2	Temperatura media	15.2
87458	7	Sololá	704	Santa Lucía Utatlán 	7	Santa Rita 	4	Abril	2023-12-04T00:00:00	2024-11-08T07:00:00	4	Temperatura máxima	15.2
87459	7	Sololá	704	Santa Lucía Utatlán 	7	Santa Rita 	4	Abril	2023-12-04T00:00:00	2024-11-08T07:00:00	3	Temperatura mínima	14.9
87460	7	Sololá	704	Santa Lucía Utatlán 	7	Santa Rita 	4	Abril	2023-12-04T00:00:00	2024-11-08T07:00:00	5	Humedad	55
87461	7	Sololá	704	Santa Lucía Utatlán 	7	Santa Rita 	4	Abril	2023-12-04T00:00:00	2024-11-08T07:00:00	6	Velocidad del viento	3.2
87462	7	Sololá	704	Santa Lucía Utatlán 	7	Santa Rita 	4	Abril	2023-12-04T00:00:00	2024-11-08T07:00:00	7	Dirección del viento	3.22
87463	7	Sololá	704	Santa Lucía Utatlán 	7	Santa Rita 	4	Abril	2023-12-04T00:00:00	2024-11-08T07:00:00	1	Precipitación	0
87464	7	Sololá	704	Santa Lucía Utatlán 	7	Santa Rita 	4	Abril	2023-12-04T00:00:00	2024-11-08T07:00:00	8	Radiación solar	1
87465	7	Sololá	704	Santa Lucía Utatlán 	7	Santa Rita 	4	Abril	2023-12-04T00:00:00	2024-11-08T08:00:00	2	Temperatura media	17.6
87466	7	Sololá	704	Santa Lucía Utatlán 	7	Santa Rita 	4	Abril	2023-12-04T00:00:00	2024-11-08T08:00:00	4	Temperatura máxima	17.6
87467	7	Sololá	704	Santa Lucía Utatlán 	7	Santa Rita 	4	Abril	2023-12-04T00:00:00	2024-11-08T08:00:00	3	Temperatura mínima	15.2
87468	7	Sololá	704	Santa Lucía Utatlán 	7	Santa Rita 	4	Abril	2023-12-04T00:00:00	2024-11-08T08:00:00	5	Humedad	52
87469	7	Sololá	704	Santa Lucía Utatlán 	7	Santa Rita 	4	Abril	2023-12-04T00:00:00	2024-11-08T08:00:00	6	Velocidad del viento	1.6
87470	7	Sololá	704	Santa Lucía Utatlán 	7	Santa Rita 	4	Abril	2023-12-04T00:00:00	2024-11-08T08:00:00	7	Dirección del viento	1.61
87471	7	Sololá	704	Santa Lucía Utatlán 	7	Santa Rita 	4	Abril	2023-12-04T00:00:00	2024-11-08T08:00:00	1	Precipitación	0
87472	7	Sololá	704	Santa Lucía Utatlán 	7	Santa Rita 	4	Abril	2023-12-04T00:00:00	2024-11-08T08:00:00	8	Radiación solar	76
87473	7	Sololá	704	Santa Lucía Utatlán 	7	Santa Rita 	4	Abril	2023-12-04T00:00:00	2024-11-08T09:00:00	2	Temperatura media	20.9
87474	7	Sololá	704	Santa Lucía Utatlán 	7	Santa Rita 	4	Abril	2023-12-04T00:00:00	2024-11-08T09:00:00	4	Temperatura máxima	20.9
87475	7	Sololá	704	Santa Lucía Utatlán 	7	Santa Rita 	4	Abril	2023-12-04T00:00:00	2024-11-08T09:00:00	3	Temperatura mínima	17.6
87476	7	Sololá	704	Santa Lucía Utatlán 	7	Santa Rita 	4	Abril	2023-12-04T00:00:00	2024-11-08T09:00:00	5	Humedad	45
87477	7	Sololá	704	Santa Lucía Utatlán 	7	Santa Rita 	4	Abril	2023-12-04T00:00:00	2024-11-08T09:00:00	6	Velocidad del viento	1.6
87478	7	Sololá	704	Santa Lucía Utatlán 	7	Santa Rita 	4	Abril	2023-12-04T00:00:00	2024-11-08T09:00:00	7	Dirección del viento	1.61
87479	7	Sololá	704	Santa Lucía Utatlán 	7	Santa Rita 	4	Abril	2023-12-04T00:00:00	2024-11-08T09:00:00	1	Precipitación	0
87480	7	Sololá	704	Santa Lucía Utatlán 	7	Santa Rita 	4	Abril	2023-12-04T00:00:00	2024-11-08T09:00:00	8	Radiación solar	299
87481	7	Sololá	704	Santa Lucía Utatlán 	7	Santa Rita 	4	Abril	2023-12-04T00:00:00	2024-11-08T10:00:00	2	Temperatura media	21.5
87482	7	Sololá	704	Santa Lucía Utatlán 	7	Santa Rita 	4	Abril	2023-12-04T00:00:00	2024-11-08T10:00:00	4	Temperatura máxima	22.1
87483	7	Sololá	704	Santa Lucía Utatlán 	7	Santa Rita 	4	Abril	2023-12-04T00:00:00	2024-11-08T10:00:00	3	Temperatura mínima	20.7
87484	7	Sololá	704	Santa Lucía Utatlán 	7	Santa Rita 	4	Abril	2023-12-04T00:00:00	2024-11-08T10:00:00	5	Humedad	50
87485	7	Sololá	704	Santa Lucía Utatlán 	7	Santa Rita 	4	Abril	2023-12-04T00:00:00	2024-11-08T10:00:00	6	Velocidad del viento	4.8
87486	7	Sololá	704	Santa Lucía Utatlán 	7	Santa Rita 	4	Abril	2023-12-04T00:00:00	2024-11-08T10:00:00	7	Dirección del viento	4.83
87487	7	Sololá	704	Santa Lucía Utatlán 	7	Santa Rita 	4	Abril	2023-12-04T00:00:00	2024-11-08T10:00:00	1	Precipitación	0
87488	7	Sololá	704	Santa Lucía Utatlán 	7	Santa Rita 	4	Abril	2023-12-04T00:00:00	2024-11-08T10:00:00	8	Radiación solar	466
87489	7	Sololá	704	Santa Lucía Utatlán 	7	Santa Rita 	4	Abril	2023-12-04T00:00:00	2024-11-08T11:00:00	2	Temperatura media	21.9
87490	7	Sololá	704	Santa Lucía Utatlán 	7	Santa Rita 	4	Abril	2023-12-04T00:00:00	2024-11-08T11:00:00	4	Temperatura máxima	21.9
87491	7	Sololá	704	Santa Lucía Utatlán 	7	Santa Rita 	4	Abril	2023-12-04T00:00:00	2024-11-08T11:00:00	3	Temperatura mínima	21.1
87492	7	Sololá	704	Santa Lucía Utatlán 	7	Santa Rita 	4	Abril	2023-12-04T00:00:00	2024-11-08T11:00:00	5	Humedad	58
87493	7	Sololá	704	Santa Lucía Utatlán 	7	Santa Rita 	4	Abril	2023-12-04T00:00:00	2024-11-08T11:00:00	6	Velocidad del viento	6.4
87494	7	Sololá	704	Santa Lucía Utatlán 	7	Santa Rita 	4	Abril	2023-12-04T00:00:00	2024-11-08T11:00:00	7	Dirección del viento	6.44
87495	7	Sololá	704	Santa Lucía Utatlán 	7	Santa Rita 	4	Abril	2023-12-04T00:00:00	2024-11-08T11:00:00	1	Precipitación	0
87496	7	Sololá	704	Santa Lucía Utatlán 	7	Santa Rita 	4	Abril	2023-12-04T00:00:00	2024-11-08T11:00:00	8	Radiación solar	359
87497	7	Sololá	704	Santa Lucía Utatlán 	7	Santa Rita 	4	Abril	2023-12-04T00:00:00	2024-11-08T12:00:00	2	Temperatura media	22.1
87498	7	Sololá	704	Santa Lucía Utatlán 	7	Santa Rita 	4	Abril	2023-12-04T00:00:00	2024-11-08T12:00:00	4	Temperatura máxima	22.1
87499	7	Sololá	704	Santa Lucía Utatlán 	7	Santa Rita 	4	Abril	2023-12-04T00:00:00	2024-11-08T12:00:00	3	Temperatura mínima	21.5
87500	7	Sololá	704	Santa Lucía Utatlán 	7	Santa Rita 	4	Abril	2023-12-04T00:00:00	2024-11-08T12:00:00	5	Humedad	57
87501	7	Sololá	704	Santa Lucía Utatlán 	7	Santa Rita 	4	Abril	2023-12-04T00:00:00	2024-11-08T12:00:00	6	Velocidad del viento	8
87502	7	Sololá	704	Santa Lucía Utatlán 	7	Santa Rita 	4	Abril	2023-12-04T00:00:00	2024-11-08T12:00:00	7	Dirección del viento	8.05
87503	7	Sololá	704	Santa Lucía Utatlán 	7	Santa Rita 	4	Abril	2023-12-04T00:00:00	2024-11-08T12:00:00	1	Precipitación	0
87504	7	Sololá	704	Santa Lucía Utatlán 	7	Santa Rita 	4	Abril	2023-12-04T00:00:00	2024-11-08T12:00:00	8	Radiación solar	430
87505	7	Sololá	704	Santa Lucía Utatlán 	7	Santa Rita 	4	Abril	2023-12-04T00:00:00	2024-11-08T13:00:00	2	Temperatura media	21.9
87506	7	Sololá	704	Santa Lucía Utatlán 	7	Santa Rita 	4	Abril	2023-12-04T00:00:00	2024-11-08T13:00:00	4	Temperatura máxima	22.7
87507	7	Sololá	704	Santa Lucía Utatlán 	7	Santa Rita 	4	Abril	2023-12-04T00:00:00	2024-11-08T13:00:00	3	Temperatura mínima	21.8
87508	7	Sololá	704	Santa Lucía Utatlán 	7	Santa Rita 	4	Abril	2023-12-04T00:00:00	2024-11-08T13:00:00	5	Humedad	60
87509	7	Sololá	704	Santa Lucía Utatlán 	7	Santa Rita 	4	Abril	2023-12-04T00:00:00	2024-11-08T13:00:00	6	Velocidad del viento	8
87510	7	Sololá	704	Santa Lucía Utatlán 	7	Santa Rita 	4	Abril	2023-12-04T00:00:00	2024-11-08T13:00:00	7	Dirección del viento	8.05
87511	7	Sololá	704	Santa Lucía Utatlán 	7	Santa Rita 	4	Abril	2023-12-04T00:00:00	2024-11-08T13:00:00	1	Precipitación	0
87512	7	Sololá	704	Santa Lucía Utatlán 	7	Santa Rita 	4	Abril	2023-12-04T00:00:00	2024-11-08T13:00:00	8	Radiación solar	516
87513	7	Sololá	704	Santa Lucía Utatlán 	7	Santa Rita 	4	Abril	2023-12-04T00:00:00	2024-11-08T14:00:00	2	Temperatura media	22.3
87514	7	Sololá	704	Santa Lucía Utatlán 	7	Santa Rita 	4	Abril	2023-12-04T00:00:00	2024-11-08T14:00:00	4	Temperatura máxima	22.6
87515	7	Sololá	704	Santa Lucía Utatlán 	7	Santa Rita 	4	Abril	2023-12-04T00:00:00	2024-11-08T14:00:00	3	Temperatura mínima	21.8
87516	7	Sololá	704	Santa Lucía Utatlán 	7	Santa Rita 	4	Abril	2023-12-04T00:00:00	2024-11-08T14:00:00	5	Humedad	62
87517	7	Sololá	704	Santa Lucía Utatlán 	7	Santa Rita 	4	Abril	2023-12-04T00:00:00	2024-11-08T14:00:00	6	Velocidad del viento	6.4
87518	7	Sololá	704	Santa Lucía Utatlán 	7	Santa Rita 	4	Abril	2023-12-04T00:00:00	2024-11-08T14:00:00	7	Dirección del viento	6.44
87519	7	Sololá	704	Santa Lucía Utatlán 	7	Santa Rita 	4	Abril	2023-12-04T00:00:00	2024-11-08T14:00:00	1	Precipitación	0
87520	7	Sololá	704	Santa Lucía Utatlán 	7	Santa Rita 	4	Abril	2023-12-04T00:00:00	2024-11-08T14:00:00	8	Radiación solar	365
87521	7	Sololá	704	Santa Lucía Utatlán 	7	Santa Rita 	4	Abril	2023-12-04T00:00:00	2024-11-08T15:00:00	2	Temperatura media	22
87522	7	Sololá	704	Santa Lucía Utatlán 	7	Santa Rita 	4	Abril	2023-12-04T00:00:00	2024-11-08T15:00:00	4	Temperatura máxima	22.4
87523	7	Sololá	704	Santa Lucía Utatlán 	7	Santa Rita 	4	Abril	2023-12-04T00:00:00	2024-11-08T15:00:00	3	Temperatura mínima	21.8
87524	7	Sololá	704	Santa Lucía Utatlán 	7	Santa Rita 	4	Abril	2023-12-04T00:00:00	2024-11-08T15:00:00	5	Humedad	66
87525	7	Sololá	704	Santa Lucía Utatlán 	7	Santa Rita 	4	Abril	2023-12-04T00:00:00	2024-11-08T15:00:00	6	Velocidad del viento	4.8
87526	7	Sololá	704	Santa Lucía Utatlán 	7	Santa Rita 	4	Abril	2023-12-04T00:00:00	2024-11-08T15:00:00	7	Dirección del viento	4.83
87527	7	Sololá	704	Santa Lucía Utatlán 	7	Santa Rita 	4	Abril	2023-12-04T00:00:00	2024-11-08T15:00:00	1	Precipitación	0
87528	7	Sololá	704	Santa Lucía Utatlán 	7	Santa Rita 	4	Abril	2023-12-04T00:00:00	2024-11-08T15:00:00	8	Radiación solar	244
87529	7	Sololá	704	Santa Lucía Utatlán 	7	Santa Rita 	4	Abril	2023-12-04T00:00:00	2024-11-08T16:00:00	2	Temperatura media	21.9
87530	7	Sololá	704	Santa Lucía Utatlán 	7	Santa Rita 	4	Abril	2023-12-04T00:00:00	2024-11-08T16:00:00	4	Temperatura máxima	22.1
87531	7	Sololá	704	Santa Lucía Utatlán 	7	Santa Rita 	4	Abril	2023-12-04T00:00:00	2024-11-08T16:00:00	3	Temperatura mínima	21.5
87532	7	Sololá	704	Santa Lucía Utatlán 	7	Santa Rita 	4	Abril	2023-12-04T00:00:00	2024-11-08T16:00:00	5	Humedad	71
87533	7	Sololá	704	Santa Lucía Utatlán 	7	Santa Rita 	4	Abril	2023-12-04T00:00:00	2024-11-08T16:00:00	6	Velocidad del viento	6.4
87534	7	Sololá	704	Santa Lucía Utatlán 	7	Santa Rita 	4	Abril	2023-12-04T00:00:00	2024-11-08T16:00:00	7	Dirección del viento	6.44
87535	7	Sololá	704	Santa Lucía Utatlán 	7	Santa Rita 	4	Abril	2023-12-04T00:00:00	2024-11-08T16:00:00	1	Precipitación	0
87536	7	Sololá	704	Santa Lucía Utatlán 	7	Santa Rita 	4	Abril	2023-12-04T00:00:00	2024-11-08T16:00:00	8	Radiación solar	239
87537	7	Sololá	704	Santa Lucía Utatlán 	7	Santa Rita 	4	Abril	2023-12-04T00:00:00	2024-11-08T17:00:00	2	Temperatura media	20.7
87538	7	Sololá	704	Santa Lucía Utatlán 	7	Santa Rita 	4	Abril	2023-12-04T00:00:00	2024-11-08T17:00:00	4	Temperatura máxima	21.9
87539	7	Sololá	704	Santa Lucía Utatlán 	7	Santa Rita 	4	Abril	2023-12-04T00:00:00	2024-11-08T17:00:00	3	Temperatura mínima	20.6
87540	7	Sololá	704	Santa Lucía Utatlán 	7	Santa Rita 	4	Abril	2023-12-04T00:00:00	2024-11-08T17:00:00	5	Humedad	80
87541	7	Sololá	704	Santa Lucía Utatlán 	7	Santa Rita 	4	Abril	2023-12-04T00:00:00	2024-11-08T17:00:00	6	Velocidad del viento	4.8
87542	7	Sololá	704	Santa Lucía Utatlán 	7	Santa Rita 	4	Abril	2023-12-04T00:00:00	2024-11-08T17:00:00	7	Dirección del viento	4.83
87543	7	Sololá	704	Santa Lucía Utatlán 	7	Santa Rita 	4	Abril	2023-12-04T00:00:00	2024-11-08T17:00:00	1	Precipitación	0
87544	7	Sololá	704	Santa Lucía Utatlán 	7	Santa Rita 	4	Abril	2023-12-04T00:00:00	2024-11-08T17:00:00	8	Radiación solar	88
87545	7	Sololá	704	Santa Lucía Utatlán 	7	Santa Rita 	4	Abril	2023-12-04T00:00:00	2024-11-08T18:00:00	2	Temperatura media	21.1
87546	7	Sololá	704	Santa Lucía Utatlán 	7	Santa Rita 	4	Abril	2023-12-04T00:00:00	2024-11-08T18:00:00	4	Temperatura máxima	21.8
87547	7	Sololá	704	Santa Lucía Utatlán 	7	Santa Rita 	4	Abril	2023-12-04T00:00:00	2024-11-08T18:00:00	3	Temperatura mínima	20.7
87548	7	Sololá	704	Santa Lucía Utatlán 	7	Santa Rita 	4	Abril	2023-12-04T00:00:00	2024-11-08T18:00:00	5	Humedad	76
87549	7	Sololá	704	Santa Lucía Utatlán 	7	Santa Rita 	4	Abril	2023-12-04T00:00:00	2024-11-08T18:00:00	6	Velocidad del viento	4.8
87550	7	Sololá	704	Santa Lucía Utatlán 	7	Santa Rita 	4	Abril	2023-12-04T00:00:00	2024-11-08T18:00:00	7	Dirección del viento	4.83
87551	7	Sololá	704	Santa Lucía Utatlán 	7	Santa Rita 	4	Abril	2023-12-04T00:00:00	2024-11-08T18:00:00	1	Precipitación	0
87552	7	Sololá	704	Santa Lucía Utatlán 	7	Santa Rita 	4	Abril	2023-12-04T00:00:00	2024-11-08T18:00:00	8	Radiación solar	185
87553	7	Sololá	704	Santa Lucía Utatlán 	7	Santa Rita 	4	Abril	2023-12-04T00:00:00	2024-11-08T19:00:00	2	Temperatura media	20.9
87554	7	Sololá	704	Santa Lucía Utatlán 	7	Santa Rita 	4	Abril	2023-12-04T00:00:00	2024-11-08T19:00:00	4	Temperatura máxima	21.2
87555	7	Sololá	704	Santa Lucía Utatlán 	7	Santa Rita 	4	Abril	2023-12-04T00:00:00	2024-11-08T19:00:00	3	Temperatura mínima	20.9
87556	7	Sololá	704	Santa Lucía Utatlán 	7	Santa Rita 	4	Abril	2023-12-04T00:00:00	2024-11-08T19:00:00	5	Humedad	78
87557	7	Sololá	704	Santa Lucía Utatlán 	7	Santa Rita 	4	Abril	2023-12-04T00:00:00	2024-11-08T19:00:00	6	Velocidad del viento	1.6
87558	7	Sololá	704	Santa Lucía Utatlán 	7	Santa Rita 	4	Abril	2023-12-04T00:00:00	2024-11-08T19:00:00	7	Dirección del viento	1.61
87559	7	Sololá	704	Santa Lucía Utatlán 	7	Santa Rita 	4	Abril	2023-12-04T00:00:00	2024-11-08T19:00:00	1	Precipitación	0
87560	7	Sololá	704	Santa Lucía Utatlán 	7	Santa Rita 	4	Abril	2023-12-04T00:00:00	2024-11-08T19:00:00	8	Radiación solar	0
87561	7	Sololá	704	Santa Lucía Utatlán 	7	Santa Rita 	4	Abril	2023-12-04T00:00:00	2024-11-08T20:00:00	2	Temperatura media	20.4
87562	7	Sololá	704	Santa Lucía Utatlán 	7	Santa Rita 	4	Abril	2023-12-04T00:00:00	2024-11-08T20:00:00	4	Temperatura máxima	20.9
87563	7	Sololá	704	Santa Lucía Utatlán 	7	Santa Rita 	4	Abril	2023-12-04T00:00:00	2024-11-08T20:00:00	3	Temperatura mínima	20.3
87564	7	Sololá	704	Santa Lucía Utatlán 	7	Santa Rita 	4	Abril	2023-12-04T00:00:00	2024-11-08T20:00:00	5	Humedad	76
87565	7	Sololá	704	Santa Lucía Utatlán 	7	Santa Rita 	4	Abril	2023-12-04T00:00:00	2024-11-08T20:00:00	6	Velocidad del viento	6.4
87566	7	Sololá	704	Santa Lucía Utatlán 	7	Santa Rita 	4	Abril	2023-12-04T00:00:00	2024-11-08T20:00:00	7	Dirección del viento	6.44
87567	7	Sololá	704	Santa Lucía Utatlán 	7	Santa Rita 	4	Abril	2023-12-04T00:00:00	2024-11-08T20:00:00	1	Precipitación	0
87568	7	Sololá	704	Santa Lucía Utatlán 	7	Santa Rita 	4	Abril	2023-12-04T00:00:00	2024-11-08T20:00:00	8	Radiación solar	0
87569	7	Sololá	704	Santa Lucía Utatlán 	7	Santa Rita 	4	Abril	2023-12-04T00:00:00	2024-11-08T21:00:00	2	Temperatura media	19.9
87570	7	Sololá	704	Santa Lucía Utatlán 	7	Santa Rita 	4	Abril	2023-12-04T00:00:00	2024-11-08T21:00:00	4	Temperatura máxima	20.4
87571	7	Sololá	704	Santa Lucía Utatlán 	7	Santa Rita 	4	Abril	2023-12-04T00:00:00	2024-11-08T21:00:00	3	Temperatura mínima	19.9
87572	7	Sololá	704	Santa Lucía Utatlán 	7	Santa Rita 	4	Abril	2023-12-04T00:00:00	2024-11-08T21:00:00	5	Humedad	78
87573	7	Sololá	704	Santa Lucía Utatlán 	7	Santa Rita 	4	Abril	2023-12-04T00:00:00	2024-11-08T21:00:00	6	Velocidad del viento	4.8
87574	7	Sololá	704	Santa Lucía Utatlán 	7	Santa Rita 	4	Abril	2023-12-04T00:00:00	2024-11-08T21:00:00	7	Dirección del viento	4.83
87575	7	Sololá	704	Santa Lucía Utatlán 	7	Santa Rita 	4	Abril	2023-12-04T00:00:00	2024-11-08T21:00:00	1	Precipitación	0
87576	7	Sololá	704	Santa Lucía Utatlán 	7	Santa Rita 	4	Abril	2023-12-04T00:00:00	2024-11-08T21:00:00	8	Radiación solar	0
87577	7	Sololá	704	Santa Lucía Utatlán 	7	Santa Rita 	4	Abril	2023-12-04T00:00:00	2024-11-08T22:00:00	2	Temperatura media	18.6
87578	7	Sololá	704	Santa Lucía Utatlán 	7	Santa Rita 	4	Abril	2023-12-04T00:00:00	2024-11-08T22:00:00	4	Temperatura máxima	19.9
87579	7	Sololá	704	Santa Lucía Utatlán 	7	Santa Rita 	4	Abril	2023-12-04T00:00:00	2024-11-08T22:00:00	3	Temperatura mínima	18.6
87580	7	Sololá	704	Santa Lucía Utatlán 	7	Santa Rita 	4	Abril	2023-12-04T00:00:00	2024-11-08T22:00:00	5	Humedad	81
87581	7	Sololá	704	Santa Lucía Utatlán 	7	Santa Rita 	4	Abril	2023-12-04T00:00:00	2024-11-08T22:00:00	6	Velocidad del viento	3.2
87582	7	Sololá	704	Santa Lucía Utatlán 	7	Santa Rita 	4	Abril	2023-12-04T00:00:00	2024-11-08T22:00:00	7	Dirección del viento	3.22
87583	7	Sololá	704	Santa Lucía Utatlán 	7	Santa Rita 	4	Abril	2023-12-04T00:00:00	2024-11-08T22:00:00	1	Precipitación	0
87584	7	Sololá	704	Santa Lucía Utatlán 	7	Santa Rita 	4	Abril	2023-12-04T00:00:00	2024-11-08T22:00:00	8	Radiación solar	0
87585	7	Sololá	704	Santa Lucía Utatlán 	7	Santa Rita 	4	Abril	2023-12-04T00:00:00	2024-11-08T23:00:00	2	Temperatura media	17.9
87586	7	Sololá	704	Santa Lucía Utatlán 	7	Santa Rita 	4	Abril	2023-12-04T00:00:00	2024-11-08T23:00:00	4	Temperatura máxima	18.7
87587	7	Sololá	704	Santa Lucía Utatlán 	7	Santa Rita 	4	Abril	2023-12-04T00:00:00	2024-11-08T23:00:00	3	Temperatura mínima	17.9
87588	7	Sololá	704	Santa Lucía Utatlán 	7	Santa Rita 	4	Abril	2023-12-04T00:00:00	2024-11-08T23:00:00	5	Humedad	84
87589	7	Sololá	704	Santa Lucía Utatlán 	7	Santa Rita 	4	Abril	2023-12-04T00:00:00	2024-11-08T23:00:00	6	Velocidad del viento	1.6
87590	7	Sololá	704	Santa Lucía Utatlán 	7	Santa Rita 	4	Abril	2023-12-04T00:00:00	2024-11-08T23:00:00	7	Dirección del viento	1.61
87591	7	Sololá	704	Santa Lucía Utatlán 	7	Santa Rita 	4	Abril	2023-12-04T00:00:00	2024-11-08T23:00:00	1	Precipitación	0
87592	7	Sololá	704	Santa Lucía Utatlán 	7	Santa Rita 	4	Abril	2023-12-04T00:00:00	2024-11-08T23:00:00	8	Radiación solar	0
87593	7	Sololá	704	Santa Lucía Utatlán 	7	Santa Rita 	4	Abril	2023-04-13T00:00:00	2024-11-08T00:00:00	2	Temperatura media	16.8
87594	7	Sololá	704	Santa Lucía Utatlán 	7	Santa Rita 	4	Abril	2023-04-13T00:00:00	2024-11-08T00:00:00	4	Temperatura máxima	17.9
87595	7	Sololá	704	Santa Lucía Utatlán 	7	Santa Rita 	4	Abril	2023-04-13T00:00:00	2024-11-08T00:00:00	3	Temperatura mínima	16.7
87596	7	Sololá	704	Santa Lucía Utatlán 	7	Santa Rita 	4	Abril	2023-04-13T00:00:00	2024-11-08T00:00:00	5	Humedad	87
87597	7	Sololá	704	Santa Lucía Utatlán 	7	Santa Rita 	4	Abril	2023-04-13T00:00:00	2024-11-08T00:00:00	6	Velocidad del viento	1.6
87598	7	Sololá	704	Santa Lucía Utatlán 	7	Santa Rita 	4	Abril	2023-04-13T00:00:00	2024-11-08T00:00:00	7	Dirección del viento	1.61
87599	7	Sololá	704	Santa Lucía Utatlán 	7	Santa Rita 	4	Abril	2023-04-13T00:00:00	2024-11-08T00:00:00	1	Precipitación	0
87600	7	Sololá	704	Santa Lucía Utatlán 	7	Santa Rita 	4	Abril	2023-04-13T00:00:00	2024-11-08T00:00:00	8	Radiación solar	0
87601	7	Sololá	704	Santa Lucía Utatlán 	7	Santa Rita 	4	Abril	2023-04-13T00:00:00	2024-11-08T01:00:00	2	Temperatura media	16.6
87602	7	Sololá	704	Santa Lucía Utatlán 	7	Santa Rita 	4	Abril	2023-04-13T00:00:00	2024-11-08T01:00:00	4	Temperatura máxima	16.8
87603	7	Sololá	704	Santa Lucía Utatlán 	7	Santa Rita 	4	Abril	2023-04-13T00:00:00	2024-11-08T01:00:00	3	Temperatura mínima	16.3
87604	7	Sololá	704	Santa Lucía Utatlán 	7	Santa Rita 	4	Abril	2023-04-13T00:00:00	2024-11-08T01:00:00	5	Humedad	85
87605	7	Sololá	704	Santa Lucía Utatlán 	7	Santa Rita 	4	Abril	2023-04-13T00:00:00	2024-11-08T01:00:00	6	Velocidad del viento	3.2
87606	7	Sololá	704	Santa Lucía Utatlán 	7	Santa Rita 	4	Abril	2023-04-13T00:00:00	2024-11-08T01:00:00	7	Dirección del viento	3.22
87607	7	Sololá	704	Santa Lucía Utatlán 	7	Santa Rita 	4	Abril	2023-04-13T00:00:00	2024-11-08T01:00:00	1	Precipitación	0
87608	7	Sololá	704	Santa Lucía Utatlán 	7	Santa Rita 	4	Abril	2023-04-13T00:00:00	2024-11-08T01:00:00	8	Radiación solar	0
87609	7	Sololá	704	Santa Lucía Utatlán 	7	Santa Rita 	4	Abril	2023-04-13T00:00:00	2024-11-08T02:00:00	2	Temperatura media	16.1
87610	7	Sololá	704	Santa Lucía Utatlán 	7	Santa Rita 	4	Abril	2023-04-13T00:00:00	2024-11-08T02:00:00	4	Temperatura máxima	16.9
87611	7	Sololá	704	Santa Lucía Utatlán 	7	Santa Rita 	4	Abril	2023-04-13T00:00:00	2024-11-08T02:00:00	3	Temperatura mínima	16.1
87612	7	Sololá	704	Santa Lucía Utatlán 	7	Santa Rita 	4	Abril	2023-04-13T00:00:00	2024-11-08T02:00:00	5	Humedad	84
87613	7	Sololá	704	Santa Lucía Utatlán 	7	Santa Rita 	4	Abril	2023-04-13T00:00:00	2024-11-08T02:00:00	6	Velocidad del viento	3.2
87614	7	Sololá	704	Santa Lucía Utatlán 	7	Santa Rita 	4	Abril	2023-04-13T00:00:00	2024-11-08T02:00:00	7	Dirección del viento	3.22
87615	7	Sololá	704	Santa Lucía Utatlán 	7	Santa Rita 	4	Abril	2023-04-13T00:00:00	2024-11-08T02:00:00	1	Precipitación	0
87616	7	Sololá	704	Santa Lucía Utatlán 	7	Santa Rita 	4	Abril	2023-04-13T00:00:00	2024-11-08T02:00:00	8	Radiación solar	0
87617	7	Sololá	704	Santa Lucía Utatlán 	7	Santa Rita 	4	Abril	2023-04-13T00:00:00	2024-11-08T03:00:00	2	Temperatura media	16.4
87618	7	Sololá	704	Santa Lucía Utatlán 	7	Santa Rita 	4	Abril	2023-04-13T00:00:00	2024-11-08T03:00:00	4	Temperatura máxima	16.6
87619	7	Sololá	704	Santa Lucía Utatlán 	7	Santa Rita 	4	Abril	2023-04-13T00:00:00	2024-11-08T03:00:00	3	Temperatura mínima	16.1
87620	7	Sololá	704	Santa Lucía Utatlán 	7	Santa Rita 	4	Abril	2023-04-13T00:00:00	2024-11-08T03:00:00	5	Humedad	82
87621	7	Sololá	704	Santa Lucía Utatlán 	7	Santa Rita 	4	Abril	2023-04-13T00:00:00	2024-11-08T03:00:00	6	Velocidad del viento	3.2
87622	7	Sololá	704	Santa Lucía Utatlán 	7	Santa Rita 	4	Abril	2023-04-13T00:00:00	2024-11-08T03:00:00	7	Dirección del viento	3.22
87623	7	Sololá	704	Santa Lucía Utatlán 	7	Santa Rita 	4	Abril	2023-04-13T00:00:00	2024-11-08T03:00:00	1	Precipitación	0
87624	7	Sololá	704	Santa Lucía Utatlán 	7	Santa Rita 	4	Abril	2023-04-13T00:00:00	2024-11-08T03:00:00	8	Radiación solar	0
87625	7	Sololá	704	Santa Lucía Utatlán 	7	Santa Rita 	4	Abril	2023-04-13T00:00:00	2024-11-08T04:00:00	2	Temperatura media	16.1
87626	7	Sololá	704	Santa Lucía Utatlán 	7	Santa Rita 	4	Abril	2023-04-13T00:00:00	2024-11-08T04:00:00	4	Temperatura máxima	16.4
87627	7	Sololá	704	Santa Lucía Utatlán 	7	Santa Rita 	4	Abril	2023-04-13T00:00:00	2024-11-08T04:00:00	3	Temperatura mínima	16.1
87628	7	Sololá	704	Santa Lucía Utatlán 	7	Santa Rita 	4	Abril	2023-04-13T00:00:00	2024-11-08T04:00:00	5	Humedad	82
87629	7	Sololá	704	Santa Lucía Utatlán 	7	Santa Rita 	4	Abril	2023-04-13T00:00:00	2024-11-08T04:00:00	6	Velocidad del viento	3.2
87630	7	Sololá	704	Santa Lucía Utatlán 	7	Santa Rita 	4	Abril	2023-04-13T00:00:00	2024-11-08T04:00:00	7	Dirección del viento	3.22
87631	7	Sololá	704	Santa Lucía Utatlán 	7	Santa Rita 	4	Abril	2023-04-13T00:00:00	2024-11-08T04:00:00	1	Precipitación	0
87632	7	Sololá	704	Santa Lucía Utatlán 	7	Santa Rita 	4	Abril	2023-04-13T00:00:00	2024-11-08T04:00:00	8	Radiación solar	0
87633	7	Sololá	704	Santa Lucía Utatlán 	7	Santa Rita 	4	Abril	2023-04-13T00:00:00	2024-11-08T05:00:00	2	Temperatura media	16.2
87634	7	Sololá	704	Santa Lucía Utatlán 	7	Santa Rita 	4	Abril	2023-04-13T00:00:00	2024-11-08T05:00:00	4	Temperatura máxima	16.3
87635	7	Sololá	704	Santa Lucía Utatlán 	7	Santa Rita 	4	Abril	2023-04-13T00:00:00	2024-11-08T05:00:00	3	Temperatura mínima	15.9
87636	7	Sololá	704	Santa Lucía Utatlán 	7	Santa Rita 	4	Abril	2023-04-13T00:00:00	2024-11-08T05:00:00	5	Humedad	82
87637	7	Sololá	704	Santa Lucía Utatlán 	7	Santa Rita 	4	Abril	2023-04-13T00:00:00	2024-11-08T05:00:00	6	Velocidad del viento	4.8
87638	7	Sololá	704	Santa Lucía Utatlán 	7	Santa Rita 	4	Abril	2023-04-13T00:00:00	2024-11-08T05:00:00	7	Dirección del viento	4.83
87639	7	Sololá	704	Santa Lucía Utatlán 	7	Santa Rita 	4	Abril	2023-04-13T00:00:00	2024-11-08T05:00:00	1	Precipitación	0
87640	7	Sololá	704	Santa Lucía Utatlán 	7	Santa Rita 	4	Abril	2023-04-13T00:00:00	2024-11-08T05:00:00	8	Radiación solar	0
87641	7	Sololá	704	Santa Lucía Utatlán 	7	Santa Rita 	4	Abril	2023-04-13T00:00:00	2024-11-08T06:00:00	2	Temperatura media	16.1
87642	7	Sololá	704	Santa Lucía Utatlán 	7	Santa Rita 	4	Abril	2023-04-13T00:00:00	2024-11-08T06:00:00	4	Temperatura máxima	16.4
87643	7	Sololá	704	Santa Lucía Utatlán 	7	Santa Rita 	4	Abril	2023-04-13T00:00:00	2024-11-08T06:00:00	3	Temperatura mínima	16.1
87644	7	Sololá	704	Santa Lucía Utatlán 	7	Santa Rita 	4	Abril	2023-04-13T00:00:00	2024-11-08T06:00:00	5	Humedad	84
87645	7	Sololá	704	Santa Lucía Utatlán 	7	Santa Rita 	4	Abril	2023-04-13T00:00:00	2024-11-08T06:00:00	6	Velocidad del viento	4.8
87646	7	Sololá	704	Santa Lucía Utatlán 	7	Santa Rita 	4	Abril	2023-04-13T00:00:00	2024-11-08T06:00:00	7	Dirección del viento	4.83
87647	7	Sololá	704	Santa Lucía Utatlán 	7	Santa Rita 	4	Abril	2023-04-13T00:00:00	2024-11-08T06:00:00	1	Precipitación	0
87648	7	Sololá	704	Santa Lucía Utatlán 	7	Santa Rita 	4	Abril	2023-04-13T00:00:00	2024-11-08T06:00:00	8	Radiación solar	0
87649	7	Sololá	704	Santa Lucía Utatlán 	7	Santa Rita 	4	Abril	2023-04-13T00:00:00	2024-11-08T07:00:00	2	Temperatura media	16.4
87650	7	Sololá	704	Santa Lucía Utatlán 	7	Santa Rita 	4	Abril	2023-04-13T00:00:00	2024-11-08T07:00:00	4	Temperatura máxima	16.6
87651	7	Sololá	704	Santa Lucía Utatlán 	7	Santa Rita 	4	Abril	2023-04-13T00:00:00	2024-11-08T07:00:00	3	Temperatura mínima	16.1
87652	7	Sololá	704	Santa Lucía Utatlán 	7	Santa Rita 	4	Abril	2023-04-13T00:00:00	2024-11-08T07:00:00	5	Humedad	86
87653	7	Sololá	704	Santa Lucía Utatlán 	7	Santa Rita 	4	Abril	2023-04-13T00:00:00	2024-11-08T07:00:00	6	Velocidad del viento	3.2
87654	7	Sololá	704	Santa Lucía Utatlán 	7	Santa Rita 	4	Abril	2023-04-13T00:00:00	2024-11-08T07:00:00	7	Dirección del viento	3.22
87655	7	Sololá	704	Santa Lucía Utatlán 	7	Santa Rita 	4	Abril	2023-04-13T00:00:00	2024-11-08T07:00:00	1	Precipitación	0
87656	7	Sololá	704	Santa Lucía Utatlán 	7	Santa Rita 	4	Abril	2023-04-13T00:00:00	2024-11-08T07:00:00	8	Radiación solar	1
87657	7	Sololá	704	Santa Lucía Utatlán 	7	Santa Rita 	4	Abril	2023-04-13T00:00:00	2024-11-08T08:00:00	2	Temperatura media	17.2
87658	7	Sololá	704	Santa Lucía Utatlán 	7	Santa Rita 	4	Abril	2023-04-13T00:00:00	2024-11-08T08:00:00	4	Temperatura máxima	17.2
87659	7	Sololá	704	Santa Lucía Utatlán 	7	Santa Rita 	4	Abril	2023-04-13T00:00:00	2024-11-08T08:00:00	3	Temperatura mínima	16.3
87660	7	Sololá	704	Santa Lucía Utatlán 	7	Santa Rita 	4	Abril	2023-04-13T00:00:00	2024-11-08T08:00:00	5	Humedad	85
87661	7	Sololá	704	Santa Lucía Utatlán 	7	Santa Rita 	4	Abril	2023-04-13T00:00:00	2024-11-08T08:00:00	6	Velocidad del viento	1.6
87662	7	Sololá	704	Santa Lucía Utatlán 	7	Santa Rita 	4	Abril	2023-04-13T00:00:00	2024-11-08T08:00:00	7	Dirección del viento	1.61
87663	7	Sololá	704	Santa Lucía Utatlán 	7	Santa Rita 	4	Abril	2023-04-13T00:00:00	2024-11-08T08:00:00	1	Precipitación	0
87664	7	Sololá	704	Santa Lucía Utatlán 	7	Santa Rita 	4	Abril	2023-04-13T00:00:00	2024-11-08T08:00:00	8	Radiación solar	45
87665	7	Sololá	704	Santa Lucía Utatlán 	7	Santa Rita 	4	Abril	2023-04-13T00:00:00	2024-11-08T09:00:00	2	Temperatura media	21.2
87666	7	Sololá	704	Santa Lucía Utatlán 	7	Santa Rita 	4	Abril	2023-04-13T00:00:00	2024-11-08T09:00:00	4	Temperatura máxima	21.2
87667	7	Sololá	704	Santa Lucía Utatlán 	7	Santa Rita 	4	Abril	2023-04-13T00:00:00	2024-11-08T09:00:00	3	Temperatura mínima	17.2
87668	7	Sololá	704	Santa Lucía Utatlán 	7	Santa Rita 	4	Abril	2023-04-13T00:00:00	2024-11-08T09:00:00	5	Humedad	70
87669	7	Sololá	704	Santa Lucía Utatlán 	7	Santa Rita 	4	Abril	2023-04-13T00:00:00	2024-11-08T09:00:00	6	Velocidad del viento	3.2
87670	7	Sololá	704	Santa Lucía Utatlán 	7	Santa Rita 	4	Abril	2023-04-13T00:00:00	2024-11-08T09:00:00	7	Dirección del viento	3.22
87671	7	Sololá	704	Santa Lucía Utatlán 	7	Santa Rita 	4	Abril	2023-04-13T00:00:00	2024-11-08T09:00:00	1	Precipitación	0
87672	7	Sololá	704	Santa Lucía Utatlán 	7	Santa Rita 	4	Abril	2023-04-13T00:00:00	2024-11-08T09:00:00	8	Radiación solar	354
87673	7	Sololá	704	Santa Lucía Utatlán 	7	Santa Rita 	4	Abril	2023-04-13T00:00:00	2024-11-08T10:00:00	2	Temperatura media	20.3
87674	7	Sololá	704	Santa Lucía Utatlán 	7	Santa Rita 	4	Abril	2023-04-13T00:00:00	2024-11-08T10:00:00	4	Temperatura máxima	21.3
87675	7	Sololá	704	Santa Lucía Utatlán 	7	Santa Rita 	4	Abril	2023-04-13T00:00:00	2024-11-08T10:00:00	3	Temperatura mínima	19.8
87676	7	Sololá	704	Santa Lucía Utatlán 	7	Santa Rita 	4	Abril	2023-04-13T00:00:00	2024-11-08T10:00:00	5	Humedad	74
87677	7	Sololá	704	Santa Lucía Utatlán 	7	Santa Rita 	4	Abril	2023-04-13T00:00:00	2024-11-08T10:00:00	6	Velocidad del viento	6.4
87678	7	Sololá	704	Santa Lucía Utatlán 	7	Santa Rita 	4	Abril	2023-04-13T00:00:00	2024-11-08T10:00:00	7	Dirección del viento	6.44
87679	7	Sololá	704	Santa Lucía Utatlán 	7	Santa Rita 	4	Abril	2023-04-13T00:00:00	2024-11-08T10:00:00	1	Precipitación	0
87680	7	Sololá	704	Santa Lucía Utatlán 	7	Santa Rita 	4	Abril	2023-04-13T00:00:00	2024-11-08T10:00:00	8	Radiación solar	292
87681	7	Sololá	704	Santa Lucía Utatlán 	7	Santa Rita 	4	Abril	2023-04-13T00:00:00	2024-11-08T11:00:00	2	Temperatura media	21.4
87682	7	Sololá	704	Santa Lucía Utatlán 	7	Santa Rita 	4	Abril	2023-04-13T00:00:00	2024-11-08T11:00:00	4	Temperatura máxima	21.4
87683	7	Sololá	704	Santa Lucía Utatlán 	7	Santa Rita 	4	Abril	2023-04-13T00:00:00	2024-11-08T11:00:00	3	Temperatura mínima	20.3
87684	7	Sololá	704	Santa Lucía Utatlán 	7	Santa Rita 	4	Abril	2023-04-13T00:00:00	2024-11-08T11:00:00	5	Humedad	69
87685	7	Sololá	704	Santa Lucía Utatlán 	7	Santa Rita 	4	Abril	2023-04-13T00:00:00	2024-11-08T11:00:00	6	Velocidad del viento	4.8
87686	7	Sololá	704	Santa Lucía Utatlán 	7	Santa Rita 	4	Abril	2023-04-13T00:00:00	2024-11-08T11:00:00	7	Dirección del viento	4.83
87687	7	Sololá	704	Santa Lucía Utatlán 	7	Santa Rita 	4	Abril	2023-04-13T00:00:00	2024-11-08T11:00:00	1	Precipitación	0
87688	7	Sololá	704	Santa Lucía Utatlán 	7	Santa Rita 	4	Abril	2023-04-13T00:00:00	2024-11-08T11:00:00	8	Radiación solar	331
87689	7	Sololá	704	Santa Lucía Utatlán 	7	Santa Rita 	4	Abril	2023-04-13T00:00:00	2024-11-08T12:00:00	2	Temperatura media	23.2
87690	7	Sololá	704	Santa Lucía Utatlán 	7	Santa Rita 	4	Abril	2023-04-13T00:00:00	2024-11-08T12:00:00	4	Temperatura máxima	23.2
87691	7	Sololá	704	Santa Lucía Utatlán 	7	Santa Rita 	4	Abril	2023-04-13T00:00:00	2024-11-08T12:00:00	3	Temperatura mínima	21.3
87692	7	Sololá	704	Santa Lucía Utatlán 	7	Santa Rita 	4	Abril	2023-04-13T00:00:00	2024-11-08T12:00:00	5	Humedad	64
87693	7	Sololá	704	Santa Lucía Utatlán 	7	Santa Rita 	4	Abril	2023-04-13T00:00:00	2024-11-08T12:00:00	6	Velocidad del viento	6.4
87694	7	Sololá	704	Santa Lucía Utatlán 	7	Santa Rita 	4	Abril	2023-04-13T00:00:00	2024-11-08T12:00:00	7	Dirección del viento	6.44
87695	7	Sololá	704	Santa Lucía Utatlán 	7	Santa Rita 	4	Abril	2023-04-13T00:00:00	2024-11-08T12:00:00	1	Precipitación	0
87696	7	Sololá	704	Santa Lucía Utatlán 	7	Santa Rita 	4	Abril	2023-04-13T00:00:00	2024-11-08T12:00:00	8	Radiación solar	619
87697	7	Sololá	704	Santa Lucía Utatlán 	7	Santa Rita 	4	Abril	2023-04-13T00:00:00	2024-11-08T13:00:00	2	Temperatura media	24.1
87698	7	Sololá	704	Santa Lucía Utatlán 	7	Santa Rita 	4	Abril	2023-04-13T00:00:00	2024-11-08T13:00:00	4	Temperatura máxima	24.1
87699	7	Sololá	704	Santa Lucía Utatlán 	7	Santa Rita 	4	Abril	2023-04-13T00:00:00	2024-11-08T13:00:00	3	Temperatura mínima	23
87700	7	Sololá	704	Santa Lucía Utatlán 	7	Santa Rita 	4	Abril	2023-04-13T00:00:00	2024-11-08T13:00:00	5	Humedad	62
87701	7	Sololá	704	Santa Lucía Utatlán 	7	Santa Rita 	4	Abril	2023-04-13T00:00:00	2024-11-08T13:00:00	6	Velocidad del viento	8
87702	7	Sololá	704	Santa Lucía Utatlán 	7	Santa Rita 	4	Abril	2023-04-13T00:00:00	2024-11-08T13:00:00	7	Dirección del viento	8.05
87703	7	Sololá	704	Santa Lucía Utatlán 	7	Santa Rita 	4	Abril	2023-04-13T00:00:00	2024-11-08T13:00:00	1	Precipitación	0
87704	7	Sololá	704	Santa Lucía Utatlán 	7	Santa Rita 	4	Abril	2023-04-13T00:00:00	2024-11-08T13:00:00	8	Radiación solar	983
87705	7	Sololá	704	Santa Lucía Utatlán 	7	Santa Rita 	4	Abril	2023-04-13T00:00:00	2024-11-08T14:00:00	2	Temperatura media	23.4
87706	7	Sololá	704	Santa Lucía Utatlán 	7	Santa Rita 	4	Abril	2023-04-13T00:00:00	2024-11-08T14:00:00	4	Temperatura máxima	24.1
87707	7	Sololá	704	Santa Lucía Utatlán 	7	Santa Rita 	4	Abril	2023-04-13T00:00:00	2024-11-08T14:00:00	3	Temperatura mínima	23.2
87708	7	Sololá	704	Santa Lucía Utatlán 	7	Santa Rita 	4	Abril	2023-04-13T00:00:00	2024-11-08T14:00:00	5	Humedad	68
87709	7	Sololá	704	Santa Lucía Utatlán 	7	Santa Rita 	4	Abril	2023-04-13T00:00:00	2024-11-08T14:00:00	6	Velocidad del viento	8
87710	7	Sololá	704	Santa Lucía Utatlán 	7	Santa Rita 	4	Abril	2023-04-13T00:00:00	2024-11-08T14:00:00	7	Dirección del viento	8.05
87711	7	Sololá	704	Santa Lucía Utatlán 	7	Santa Rita 	4	Abril	2023-04-13T00:00:00	2024-11-08T14:00:00	1	Precipitación	0
87712	7	Sololá	704	Santa Lucía Utatlán 	7	Santa Rita 	4	Abril	2023-04-13T00:00:00	2024-11-08T14:00:00	8	Radiación solar	277
87713	7	Sololá	704	Santa Lucía Utatlán 	7	Santa Rita 	4	Abril	2023-04-13T00:00:00	2024-11-08T15:00:00	2	Temperatura media	22.1
87714	7	Sololá	704	Santa Lucía Utatlán 	7	Santa Rita 	4	Abril	2023-04-13T00:00:00	2024-11-08T15:00:00	4	Temperatura máxima	23.6
87715	7	Sololá	704	Santa Lucía Utatlán 	7	Santa Rita 	4	Abril	2023-04-13T00:00:00	2024-11-08T15:00:00	3	Temperatura mínima	21.9
87716	7	Sololá	704	Santa Lucía Utatlán 	7	Santa Rita 	4	Abril	2023-04-13T00:00:00	2024-11-08T15:00:00	5	Humedad	77
87717	7	Sololá	704	Santa Lucía Utatlán 	7	Santa Rita 	4	Abril	2023-04-13T00:00:00	2024-11-08T15:00:00	6	Velocidad del viento	4.8
87718	7	Sololá	704	Santa Lucía Utatlán 	7	Santa Rita 	4	Abril	2023-04-13T00:00:00	2024-11-08T15:00:00	7	Dirección del viento	4.83
87719	7	Sololá	704	Santa Lucía Utatlán 	7	Santa Rita 	4	Abril	2023-04-13T00:00:00	2024-11-08T15:00:00	1	Precipitación	0
87720	7	Sololá	704	Santa Lucía Utatlán 	7	Santa Rita 	4	Abril	2023-04-13T00:00:00	2024-11-08T15:00:00	8	Radiación solar	186
87721	7	Sololá	704	Santa Lucía Utatlán 	7	Santa Rita 	4	Abril	2023-04-13T00:00:00	2024-11-08T16:00:00	2	Temperatura media	22.3
87722	7	Sololá	704	Santa Lucía Utatlán 	7	Santa Rita 	4	Abril	2023-04-13T00:00:00	2024-11-08T16:00:00	4	Temperatura máxima	22.8
87723	7	Sololá	704	Santa Lucía Utatlán 	7	Santa Rita 	4	Abril	2023-04-13T00:00:00	2024-11-08T16:00:00	3	Temperatura mínima	22.1
87724	7	Sololá	704	Santa Lucía Utatlán 	7	Santa Rita 	4	Abril	2023-04-13T00:00:00	2024-11-08T16:00:00	5	Humedad	77
87725	7	Sololá	704	Santa Lucía Utatlán 	7	Santa Rita 	4	Abril	2023-04-13T00:00:00	2024-11-08T16:00:00	6	Velocidad del viento	4.8
87726	7	Sololá	704	Santa Lucía Utatlán 	7	Santa Rita 	4	Abril	2023-04-13T00:00:00	2024-11-08T16:00:00	7	Dirección del viento	4.83
87727	7	Sololá	704	Santa Lucía Utatlán 	7	Santa Rita 	4	Abril	2023-04-13T00:00:00	2024-11-08T16:00:00	1	Precipitación	0
87728	7	Sololá	704	Santa Lucía Utatlán 	7	Santa Rita 	4	Abril	2023-04-13T00:00:00	2024-11-08T16:00:00	8	Radiación solar	222
87729	7	Sololá	704	Santa Lucía Utatlán 	7	Santa Rita 	4	Abril	2023-04-13T00:00:00	2024-11-08T17:00:00	2	Temperatura media	21.1
87730	7	Sololá	704	Santa Lucía Utatlán 	7	Santa Rita 	4	Abril	2023-04-13T00:00:00	2024-11-08T17:00:00	4	Temperatura máxima	22.3
87731	7	Sololá	704	Santa Lucía Utatlán 	7	Santa Rita 	4	Abril	2023-04-13T00:00:00	2024-11-08T17:00:00	3	Temperatura mínima	21
87732	7	Sololá	704	Santa Lucía Utatlán 	7	Santa Rita 	4	Abril	2023-04-13T00:00:00	2024-11-08T17:00:00	5	Humedad	83
87733	7	Sololá	704	Santa Lucía Utatlán 	7	Santa Rita 	4	Abril	2023-04-13T00:00:00	2024-11-08T17:00:00	6	Velocidad del viento	6.4
87734	7	Sololá	704	Santa Lucía Utatlán 	7	Santa Rita 	4	Abril	2023-04-13T00:00:00	2024-11-08T17:00:00	7	Dirección del viento	6.44
87735	7	Sololá	704	Santa Lucía Utatlán 	7	Santa Rita 	4	Abril	2023-04-13T00:00:00	2024-11-08T17:00:00	1	Precipitación	0
87736	7	Sololá	704	Santa Lucía Utatlán 	7	Santa Rita 	4	Abril	2023-04-13T00:00:00	2024-11-08T17:00:00	8	Radiación solar	106
87737	7	Sololá	704	Santa Lucía Utatlán 	7	Santa Rita 	4	Abril	2023-04-13T00:00:00	2024-11-08T18:00:00	2	Temperatura media	20.9
87738	7	Sololá	704	Santa Lucía Utatlán 	7	Santa Rita 	4	Abril	2023-04-13T00:00:00	2024-11-08T18:00:00	4	Temperatura máxima	21.1
87739	7	Sololá	704	Santa Lucía Utatlán 	7	Santa Rita 	4	Abril	2023-04-13T00:00:00	2024-11-08T18:00:00	3	Temperatura mínima	20.7
87740	7	Sololá	704	Santa Lucía Utatlán 	7	Santa Rita 	4	Abril	2023-04-13T00:00:00	2024-11-08T18:00:00	5	Humedad	83
87741	7	Sololá	704	Santa Lucía Utatlán 	7	Santa Rita 	4	Abril	2023-04-13T00:00:00	2024-11-08T18:00:00	6	Velocidad del viento	4.8
87742	7	Sololá	704	Santa Lucía Utatlán 	7	Santa Rita 	4	Abril	2023-04-13T00:00:00	2024-11-08T18:00:00	7	Dirección del viento	4.83
87743	7	Sololá	704	Santa Lucía Utatlán 	7	Santa Rita 	4	Abril	2023-04-13T00:00:00	2024-11-08T18:00:00	1	Precipitación	0
87744	7	Sololá	704	Santa Lucía Utatlán 	7	Santa Rita 	4	Abril	2023-04-13T00:00:00	2024-11-08T18:00:00	8	Radiación solar	118
87745	7	Sololá	704	Santa Lucía Utatlán 	7	Santa Rita 	4	Abril	2023-04-13T00:00:00	2024-11-08T19:00:00	2	Temperatura media	20.8
87746	7	Sololá	704	Santa Lucía Utatlán 	7	Santa Rita 	4	Abril	2023-04-13T00:00:00	2024-11-08T19:00:00	4	Temperatura máxima	21.1
87747	7	Sololá	704	Santa Lucía Utatlán 	7	Santa Rita 	4	Abril	2023-04-13T00:00:00	2024-11-08T19:00:00	3	Temperatura mínima	20.8
87748	7	Sololá	704	Santa Lucía Utatlán 	7	Santa Rita 	4	Abril	2023-04-13T00:00:00	2024-11-08T19:00:00	5	Humedad	83
87749	7	Sololá	704	Santa Lucía Utatlán 	7	Santa Rita 	4	Abril	2023-04-13T00:00:00	2024-11-08T19:00:00	6	Velocidad del viento	1.6
87750	7	Sololá	704	Santa Lucía Utatlán 	7	Santa Rita 	4	Abril	2023-04-13T00:00:00	2024-11-08T19:00:00	7	Dirección del viento	1.61
87751	7	Sololá	704	Santa Lucía Utatlán 	7	Santa Rita 	4	Abril	2023-04-13T00:00:00	2024-11-08T19:00:00	1	Precipitación	0
87752	7	Sololá	704	Santa Lucía Utatlán 	7	Santa Rita 	4	Abril	2023-04-13T00:00:00	2024-11-08T19:00:00	8	Radiación solar	0
87753	7	Sololá	704	Santa Lucía Utatlán 	7	Santa Rita 	4	Abril	2023-04-13T00:00:00	2024-11-08T20:00:00	2	Temperatura media	19.6
87754	7	Sololá	704	Santa Lucía Utatlán 	7	Santa Rita 	4	Abril	2023-04-13T00:00:00	2024-11-08T20:00:00	4	Temperatura máxima	20.8
87755	7	Sololá	704	Santa Lucía Utatlán 	7	Santa Rita 	4	Abril	2023-04-13T00:00:00	2024-11-08T20:00:00	3	Temperatura mínima	19.5
87756	7	Sololá	704	Santa Lucía Utatlán 	7	Santa Rita 	4	Abril	2023-04-13T00:00:00	2024-11-08T20:00:00	5	Humedad	88
87757	7	Sololá	704	Santa Lucía Utatlán 	7	Santa Rita 	4	Abril	2023-04-13T00:00:00	2024-11-08T20:00:00	6	Velocidad del viento	1.6
87758	7	Sololá	704	Santa Lucía Utatlán 	7	Santa Rita 	4	Abril	2023-04-13T00:00:00	2024-11-08T20:00:00	7	Dirección del viento	1.61
87759	7	Sololá	704	Santa Lucía Utatlán 	7	Santa Rita 	4	Abril	2023-04-13T00:00:00	2024-11-08T20:00:00	1	Precipitación	0
87760	7	Sololá	704	Santa Lucía Utatlán 	7	Santa Rita 	4	Abril	2023-04-13T00:00:00	2024-11-08T20:00:00	8	Radiación solar	0
87761	7	Sololá	704	Santa Lucía Utatlán 	7	Santa Rita 	4	Abril	2023-04-13T00:00:00	2024-11-08T21:00:00	2	Temperatura media	18.4
87762	7	Sololá	704	Santa Lucía Utatlán 	7	Santa Rita 	4	Abril	2023-04-13T00:00:00	2024-11-08T21:00:00	4	Temperatura máxima	19.6
87763	7	Sololá	704	Santa Lucía Utatlán 	7	Santa Rita 	4	Abril	2023-04-13T00:00:00	2024-11-08T21:00:00	3	Temperatura mínima	18.3
87764	7	Sololá	704	Santa Lucía Utatlán 	7	Santa Rita 	4	Abril	2023-04-13T00:00:00	2024-11-08T21:00:00	5	Humedad	87
87765	7	Sololá	704	Santa Lucía Utatlán 	7	Santa Rita 	4	Abril	2023-04-13T00:00:00	2024-11-08T21:00:00	6	Velocidad del viento	1.6
87766	7	Sololá	704	Santa Lucía Utatlán 	7	Santa Rita 	4	Abril	2023-04-13T00:00:00	2024-11-08T21:00:00	7	Dirección del viento	1.61
87767	7	Sololá	704	Santa Lucía Utatlán 	7	Santa Rita 	4	Abril	2023-04-13T00:00:00	2024-11-08T21:00:00	1	Precipitación	0
87768	7	Sololá	704	Santa Lucía Utatlán 	7	Santa Rita 	4	Abril	2023-04-13T00:00:00	2024-11-08T21:00:00	8	Radiación solar	0
87769	7	Sololá	704	Santa Lucía Utatlán 	7	Santa Rita 	4	Abril	2023-04-13T00:00:00	2024-11-08T22:00:00	2	Temperatura media	17.8
87770	7	Sololá	704	Santa Lucía Utatlán 	7	Santa Rita 	4	Abril	2023-04-13T00:00:00	2024-11-08T22:00:00	4	Temperatura máxima	18.5
87771	7	Sololá	704	Santa Lucía Utatlán 	7	Santa Rita 	4	Abril	2023-04-13T00:00:00	2024-11-08T22:00:00	3	Temperatura mínima	17.8
87772	7	Sololá	704	Santa Lucía Utatlán 	7	Santa Rita 	4	Abril	2023-04-13T00:00:00	2024-11-08T22:00:00	5	Humedad	85
87773	7	Sololá	704	Santa Lucía Utatlán 	7	Santa Rita 	4	Abril	2023-04-13T00:00:00	2024-11-08T22:00:00	6	Velocidad del viento	1.6
87774	7	Sololá	704	Santa Lucía Utatlán 	7	Santa Rita 	4	Abril	2023-04-13T00:00:00	2024-11-08T22:00:00	7	Dirección del viento	1.61
87775	7	Sololá	704	Santa Lucía Utatlán 	7	Santa Rita 	4	Abril	2023-04-13T00:00:00	2024-11-08T22:00:00	1	Precipitación	0
87776	7	Sololá	704	Santa Lucía Utatlán 	7	Santa Rita 	4	Abril	2023-04-13T00:00:00	2024-11-08T22:00:00	8	Radiación solar	0
87777	7	Sololá	704	Santa Lucía Utatlán 	7	Santa Rita 	4	Abril	2023-04-13T00:00:00	2024-11-08T23:00:00	2	Temperatura media	17.2
87778	7	Sololá	704	Santa Lucía Utatlán 	7	Santa Rita 	4	Abril	2023-04-13T00:00:00	2024-11-08T23:00:00	4	Temperatura máxima	17.9
87779	7	Sololá	704	Santa Lucía Utatlán 	7	Santa Rita 	4	Abril	2023-04-13T00:00:00	2024-11-08T23:00:00	3	Temperatura mínima	17.2
87780	7	Sololá	704	Santa Lucía Utatlán 	7	Santa Rita 	4	Abril	2023-04-13T00:00:00	2024-11-08T23:00:00	5	Humedad	87
87781	7	Sololá	704	Santa Lucía Utatlán 	7	Santa Rita 	4	Abril	2023-04-13T00:00:00	2024-11-08T23:00:00	6	Velocidad del viento	3.2
87782	7	Sololá	704	Santa Lucía Utatlán 	7	Santa Rita 	4	Abril	2023-04-13T00:00:00	2024-11-08T23:00:00	7	Dirección del viento	3.22
87783	7	Sololá	704	Santa Lucía Utatlán 	7	Santa Rita 	4	Abril	2023-04-13T00:00:00	2024-11-08T23:00:00	1	Precipitación	0
87784	7	Sololá	704	Santa Lucía Utatlán 	7	Santa Rita 	4	Abril	2023-04-13T00:00:00	2024-11-08T23:00:00	8	Radiación solar	0
87785	7	Sololá	704	Santa Lucía Utatlán 	7	Santa Rita 	4	Abril	2023-04-14T00:00:00	2024-11-08T00:00:00	2	Temperatura media	16.7
87786	7	Sololá	704	Santa Lucía Utatlán 	7	Santa Rita 	4	Abril	2023-04-14T00:00:00	2024-11-08T00:00:00	4	Temperatura máxima	17.3
87787	7	Sololá	704	Santa Lucía Utatlán 	7	Santa Rita 	4	Abril	2023-04-14T00:00:00	2024-11-08T00:00:00	3	Temperatura mínima	16.6
87788	7	Sololá	704	Santa Lucía Utatlán 	7	Santa Rita 	4	Abril	2023-04-14T00:00:00	2024-11-08T00:00:00	5	Humedad	87
87789	7	Sololá	704	Santa Lucía Utatlán 	7	Santa Rita 	4	Abril	2023-04-14T00:00:00	2024-11-08T00:00:00	6	Velocidad del viento	3.2
87790	7	Sololá	704	Santa Lucía Utatlán 	7	Santa Rita 	4	Abril	2023-04-14T00:00:00	2024-11-08T00:00:00	7	Dirección del viento	3.22
87791	7	Sololá	704	Santa Lucía Utatlán 	7	Santa Rita 	4	Abril	2023-04-14T00:00:00	2024-11-08T00:00:00	1	Precipitación	0
87792	7	Sololá	704	Santa Lucía Utatlán 	7	Santa Rita 	4	Abril	2023-04-14T00:00:00	2024-11-08T00:00:00	8	Radiación solar	0
87793	7	Sololá	704	Santa Lucía Utatlán 	7	Santa Rita 	4	Abril	2023-04-14T00:00:00	2024-11-08T01:00:00	2	Temperatura media	16.4
87794	7	Sololá	704	Santa Lucía Utatlán 	7	Santa Rita 	4	Abril	2023-04-14T00:00:00	2024-11-08T01:00:00	4	Temperatura máxima	16.7
87795	7	Sololá	704	Santa Lucía Utatlán 	7	Santa Rita 	4	Abril	2023-04-14T00:00:00	2024-11-08T01:00:00	3	Temperatura mínima	16.4
87796	7	Sololá	704	Santa Lucía Utatlán 	7	Santa Rita 	4	Abril	2023-04-14T00:00:00	2024-11-08T01:00:00	5	Humedad	85
87797	7	Sololá	704	Santa Lucía Utatlán 	7	Santa Rita 	4	Abril	2023-04-14T00:00:00	2024-11-08T01:00:00	6	Velocidad del viento	3.2
87798	7	Sololá	704	Santa Lucía Utatlán 	7	Santa Rita 	4	Abril	2023-04-14T00:00:00	2024-11-08T01:00:00	7	Dirección del viento	3.22
87799	7	Sololá	704	Santa Lucía Utatlán 	7	Santa Rita 	4	Abril	2023-04-14T00:00:00	2024-11-08T01:00:00	1	Precipitación	0
87800	7	Sololá	704	Santa Lucía Utatlán 	7	Santa Rita 	4	Abril	2023-04-14T00:00:00	2024-11-08T01:00:00	8	Radiación solar	0
87801	7	Sololá	704	Santa Lucía Utatlán 	7	Santa Rita 	4	Abril	2023-04-14T00:00:00	2024-11-08T02:00:00	2	Temperatura media	15.7
87802	7	Sololá	704	Santa Lucía Utatlán 	7	Santa Rita 	4	Abril	2023-04-14T00:00:00	2024-11-08T02:00:00	4	Temperatura máxima	16.4
87803	7	Sololá	704	Santa Lucía Utatlán 	7	Santa Rita 	4	Abril	2023-04-14T00:00:00	2024-11-08T02:00:00	3	Temperatura mínima	15.6
87804	7	Sololá	704	Santa Lucía Utatlán 	7	Santa Rita 	4	Abril	2023-04-14T00:00:00	2024-11-08T02:00:00	5	Humedad	82
87805	7	Sololá	704	Santa Lucía Utatlán 	7	Santa Rita 	4	Abril	2023-04-14T00:00:00	2024-11-08T02:00:00	6	Velocidad del viento	3.2
87806	7	Sololá	704	Santa Lucía Utatlán 	7	Santa Rita 	4	Abril	2023-04-14T00:00:00	2024-11-08T02:00:00	7	Dirección del viento	3.22
87807	7	Sololá	704	Santa Lucía Utatlán 	7	Santa Rita 	4	Abril	2023-04-14T00:00:00	2024-11-08T02:00:00	1	Precipitación	0
87808	7	Sololá	704	Santa Lucía Utatlán 	7	Santa Rita 	4	Abril	2023-04-14T00:00:00	2024-11-08T02:00:00	8	Radiación solar	0
87809	7	Sololá	704	Santa Lucía Utatlán 	7	Santa Rita 	4	Abril	2023-04-14T00:00:00	2024-11-08T03:00:00	2	Temperatura media	15.4
87810	7	Sololá	704	Santa Lucía Utatlán 	7	Santa Rita 	4	Abril	2023-04-14T00:00:00	2024-11-08T03:00:00	4	Temperatura máxima	15.7
87811	7	Sololá	704	Santa Lucía Utatlán 	7	Santa Rita 	4	Abril	2023-04-14T00:00:00	2024-11-08T03:00:00	3	Temperatura mínima	15.2
87812	7	Sololá	704	Santa Lucía Utatlán 	7	Santa Rita 	4	Abril	2023-04-14T00:00:00	2024-11-08T03:00:00	5	Humedad	81
87813	7	Sololá	704	Santa Lucía Utatlán 	7	Santa Rita 	4	Abril	2023-04-14T00:00:00	2024-11-08T03:00:00	6	Velocidad del viento	3.2
87814	7	Sololá	704	Santa Lucía Utatlán 	7	Santa Rita 	4	Abril	2023-04-14T00:00:00	2024-11-08T03:00:00	7	Dirección del viento	3.22
87815	7	Sololá	704	Santa Lucía Utatlán 	7	Santa Rita 	4	Abril	2023-04-14T00:00:00	2024-11-08T03:00:00	1	Precipitación	0
87816	7	Sololá	704	Santa Lucía Utatlán 	7	Santa Rita 	4	Abril	2023-04-14T00:00:00	2024-11-08T03:00:00	8	Radiación solar	0
87817	7	Sololá	704	Santa Lucía Utatlán 	7	Santa Rita 	4	Abril	2023-04-14T00:00:00	2024-11-08T04:00:00	2	Temperatura media	15.4
87818	7	Sololá	704	Santa Lucía Utatlán 	7	Santa Rita 	4	Abril	2023-04-14T00:00:00	2024-11-08T04:00:00	4	Temperatura máxima	15.8
87819	7	Sololá	704	Santa Lucía Utatlán 	7	Santa Rita 	4	Abril	2023-04-14T00:00:00	2024-11-08T04:00:00	3	Temperatura mínima	15.4
87820	7	Sololá	704	Santa Lucía Utatlán 	7	Santa Rita 	4	Abril	2023-04-14T00:00:00	2024-11-08T04:00:00	5	Humedad	82
87821	7	Sololá	704	Santa Lucía Utatlán 	7	Santa Rita 	4	Abril	2023-04-14T00:00:00	2024-11-08T04:00:00	6	Velocidad del viento	3.2
87822	7	Sololá	704	Santa Lucía Utatlán 	7	Santa Rita 	4	Abril	2023-04-14T00:00:00	2024-11-08T04:00:00	7	Dirección del viento	3.22
87823	7	Sololá	704	Santa Lucía Utatlán 	7	Santa Rita 	4	Abril	2023-04-14T00:00:00	2024-11-08T04:00:00	1	Precipitación	0
87824	7	Sololá	704	Santa Lucía Utatlán 	7	Santa Rita 	4	Abril	2023-04-14T00:00:00	2024-11-08T04:00:00	8	Radiación solar	0
87825	7	Sololá	704	Santa Lucía Utatlán 	7	Santa Rita 	4	Abril	2023-04-14T00:00:00	2024-11-08T05:00:00	2	Temperatura media	15.2
87826	7	Sololá	704	Santa Lucía Utatlán 	7	Santa Rita 	4	Abril	2023-04-14T00:00:00	2024-11-08T05:00:00	4	Temperatura máxima	15.5
87827	7	Sololá	704	Santa Lucía Utatlán 	7	Santa Rita 	4	Abril	2023-04-14T00:00:00	2024-11-08T05:00:00	3	Temperatura mínima	14.9
87828	7	Sololá	704	Santa Lucía Utatlán 	7	Santa Rita 	4	Abril	2023-04-14T00:00:00	2024-11-08T05:00:00	5	Humedad	81
87829	7	Sololá	704	Santa Lucía Utatlán 	7	Santa Rita 	4	Abril	2023-04-14T00:00:00	2024-11-08T05:00:00	6	Velocidad del viento	3.2
87830	7	Sololá	704	Santa Lucía Utatlán 	7	Santa Rita 	4	Abril	2023-04-14T00:00:00	2024-11-08T05:00:00	7	Dirección del viento	3.22
87831	7	Sololá	704	Santa Lucía Utatlán 	7	Santa Rita 	4	Abril	2023-04-14T00:00:00	2024-11-08T05:00:00	1	Precipitación	0
87832	7	Sololá	704	Santa Lucía Utatlán 	7	Santa Rita 	4	Abril	2023-04-14T00:00:00	2024-11-08T05:00:00	8	Radiación solar	0
87833	7	Sololá	704	Santa Lucía Utatlán 	7	Santa Rita 	4	Abril	2023-04-14T00:00:00	2024-11-08T06:00:00	2	Temperatura media	15.1
87834	7	Sololá	704	Santa Lucía Utatlán 	7	Santa Rita 	4	Abril	2023-04-14T00:00:00	2024-11-08T06:00:00	4	Temperatura máxima	15.3
87835	7	Sololá	704	Santa Lucía Utatlán 	7	Santa Rita 	4	Abril	2023-04-14T00:00:00	2024-11-08T06:00:00	3	Temperatura mínima	15
87836	7	Sololá	704	Santa Lucía Utatlán 	7	Santa Rita 	4	Abril	2023-04-14T00:00:00	2024-11-08T06:00:00	5	Humedad	81
87837	7	Sololá	704	Santa Lucía Utatlán 	7	Santa Rita 	4	Abril	2023-04-14T00:00:00	2024-11-08T06:00:00	6	Velocidad del viento	3.2
87838	7	Sololá	704	Santa Lucía Utatlán 	7	Santa Rita 	4	Abril	2023-04-14T00:00:00	2024-11-08T06:00:00	7	Dirección del viento	3.22
87839	7	Sololá	704	Santa Lucía Utatlán 	7	Santa Rita 	4	Abril	2023-04-14T00:00:00	2024-11-08T06:00:00	1	Precipitación	0
87840	7	Sololá	704	Santa Lucía Utatlán 	7	Santa Rita 	4	Abril	2023-04-14T00:00:00	2024-11-08T06:00:00	8	Radiación solar	0
87841	7	Sololá	704	Santa Lucía Utatlán 	7	Santa Rita 	4	Abril	2023-04-14T00:00:00	2024-11-08T07:00:00	2	Temperatura media	15.3
87842	7	Sololá	704	Santa Lucía Utatlán 	7	Santa Rita 	4	Abril	2023-04-14T00:00:00	2024-11-08T07:00:00	4	Temperatura máxima	15.3
87843	7	Sololá	704	Santa Lucía Utatlán 	7	Santa Rita 	4	Abril	2023-04-14T00:00:00	2024-11-08T07:00:00	3	Temperatura mínima	14.8
87844	7	Sololá	704	Santa Lucía Utatlán 	7	Santa Rita 	4	Abril	2023-04-14T00:00:00	2024-11-08T07:00:00	5	Humedad	81
87845	7	Sololá	704	Santa Lucía Utatlán 	7	Santa Rita 	4	Abril	2023-04-14T00:00:00	2024-11-08T07:00:00	6	Velocidad del viento	3.2
87846	7	Sololá	704	Santa Lucía Utatlán 	7	Santa Rita 	4	Abril	2023-04-14T00:00:00	2024-11-08T07:00:00	7	Dirección del viento	3.22
87847	7	Sololá	704	Santa Lucía Utatlán 	7	Santa Rita 	4	Abril	2023-04-14T00:00:00	2024-11-08T07:00:00	1	Precipitación	0
87848	7	Sololá	704	Santa Lucía Utatlán 	7	Santa Rita 	4	Abril	2023-04-14T00:00:00	2024-11-08T07:00:00	8	Radiación solar	1
87849	7	Sololá	704	Santa Lucía Utatlán 	7	Santa Rita 	4	Abril	2023-04-14T00:00:00	2024-11-08T08:00:00	2	Temperatura media	16.7
87850	7	Sololá	704	Santa Lucía Utatlán 	7	Santa Rita 	4	Abril	2023-04-14T00:00:00	2024-11-08T08:00:00	4	Temperatura máxima	16.7
87851	7	Sololá	704	Santa Lucía Utatlán 	7	Santa Rita 	4	Abril	2023-04-14T00:00:00	2024-11-08T08:00:00	3	Temperatura mínima	14.3
87852	7	Sololá	704	Santa Lucía Utatlán 	7	Santa Rita 	4	Abril	2023-04-14T00:00:00	2024-11-08T08:00:00	5	Humedad	77
87853	7	Sololá	704	Santa Lucía Utatlán 	7	Santa Rita 	4	Abril	2023-04-14T00:00:00	2024-11-08T08:00:00	6	Velocidad del viento	1.6
87854	7	Sololá	704	Santa Lucía Utatlán 	7	Santa Rita 	4	Abril	2023-04-14T00:00:00	2024-11-08T08:00:00	7	Dirección del viento	1.61
87855	7	Sololá	704	Santa Lucía Utatlán 	7	Santa Rita 	4	Abril	2023-04-14T00:00:00	2024-11-08T08:00:00	1	Precipitación	0
87856	7	Sololá	704	Santa Lucía Utatlán 	7	Santa Rita 	4	Abril	2023-04-14T00:00:00	2024-11-08T08:00:00	8	Radiación solar	96
87857	7	Sololá	704	Santa Lucía Utatlán 	7	Santa Rita 	4	Abril	2023-04-14T00:00:00	2024-11-08T09:00:00	2	Temperatura media	20.4
87858	7	Sololá	704	Santa Lucía Utatlán 	7	Santa Rita 	4	Abril	2023-04-14T00:00:00	2024-11-08T09:00:00	4	Temperatura máxima	20.4
87859	7	Sololá	704	Santa Lucía Utatlán 	7	Santa Rita 	4	Abril	2023-04-14T00:00:00	2024-11-08T09:00:00	3	Temperatura mínima	16.8
87860	7	Sololá	704	Santa Lucía Utatlán 	7	Santa Rita 	4	Abril	2023-04-14T00:00:00	2024-11-08T09:00:00	5	Humedad	60
87861	7	Sololá	704	Santa Lucía Utatlán 	7	Santa Rita 	4	Abril	2023-04-14T00:00:00	2024-11-08T09:00:00	6	Velocidad del viento	3.2
87862	7	Sololá	704	Santa Lucía Utatlán 	7	Santa Rita 	4	Abril	2023-04-14T00:00:00	2024-11-08T09:00:00	7	Dirección del viento	3.22
87863	7	Sololá	704	Santa Lucía Utatlán 	7	Santa Rita 	4	Abril	2023-04-14T00:00:00	2024-11-08T09:00:00	1	Precipitación	0
87864	7	Sololá	704	Santa Lucía Utatlán 	7	Santa Rita 	4	Abril	2023-04-14T00:00:00	2024-11-08T09:00:00	8	Radiación solar	378
87865	7	Sololá	704	Santa Lucía Utatlán 	7	Santa Rita 	4	Abril	2023-04-14T00:00:00	2024-11-08T10:00:00	2	Temperatura media	23.4
87866	7	Sololá	704	Santa Lucía Utatlán 	7	Santa Rita 	4	Abril	2023-04-14T00:00:00	2024-11-08T10:00:00	4	Temperatura máxima	23.4
87867	7	Sololá	704	Santa Lucía Utatlán 	7	Santa Rita 	4	Abril	2023-04-14T00:00:00	2024-11-08T10:00:00	3	Temperatura mínima	20.4
87868	7	Sololá	704	Santa Lucía Utatlán 	7	Santa Rita 	4	Abril	2023-04-14T00:00:00	2024-11-08T10:00:00	5	Humedad	48
87869	7	Sololá	704	Santa Lucía Utatlán 	7	Santa Rita 	4	Abril	2023-04-14T00:00:00	2024-11-08T10:00:00	6	Velocidad del viento	4.8
87870	7	Sololá	704	Santa Lucía Utatlán 	7	Santa Rita 	4	Abril	2023-04-14T00:00:00	2024-11-08T10:00:00	7	Dirección del viento	4.83
87871	7	Sololá	704	Santa Lucía Utatlán 	7	Santa Rita 	4	Abril	2023-04-14T00:00:00	2024-11-08T10:00:00	1	Precipitación	0
87872	7	Sololá	704	Santa Lucía Utatlán 	7	Santa Rita 	4	Abril	2023-04-14T00:00:00	2024-11-08T10:00:00	8	Radiación solar	612
87873	7	Sololá	704	Santa Lucía Utatlán 	7	Santa Rita 	4	Abril	2023-04-14T00:00:00	2024-11-08T11:00:00	2	Temperatura media	24.9
87874	7	Sololá	704	Santa Lucía Utatlán 	7	Santa Rita 	4	Abril	2023-04-14T00:00:00	2024-11-08T11:00:00	4	Temperatura máxima	24.9
87875	7	Sololá	704	Santa Lucía Utatlán 	7	Santa Rita 	4	Abril	2023-04-14T00:00:00	2024-11-08T11:00:00	3	Temperatura mínima	23.3
87876	7	Sololá	704	Santa Lucía Utatlán 	7	Santa Rita 	4	Abril	2023-04-14T00:00:00	2024-11-08T11:00:00	5	Humedad	44
87877	7	Sololá	704	Santa Lucía Utatlán 	7	Santa Rita 	4	Abril	2023-04-14T00:00:00	2024-11-08T11:00:00	6	Velocidad del viento	8
87878	7	Sololá	704	Santa Lucía Utatlán 	7	Santa Rita 	4	Abril	2023-04-14T00:00:00	2024-11-08T11:00:00	7	Dirección del viento	8.05
87879	7	Sololá	704	Santa Lucía Utatlán 	7	Santa Rita 	4	Abril	2023-04-14T00:00:00	2024-11-08T11:00:00	1	Precipitación	0
87880	7	Sololá	704	Santa Lucía Utatlán 	7	Santa Rita 	4	Abril	2023-04-14T00:00:00	2024-11-08T11:00:00	8	Radiación solar	814
87881	7	Sololá	704	Santa Lucía Utatlán 	7	Santa Rita 	4	Abril	2023-04-14T00:00:00	2024-11-08T12:00:00	2	Temperatura media	25.8
87882	7	Sololá	704	Santa Lucía Utatlán 	7	Santa Rita 	4	Abril	2023-04-14T00:00:00	2024-11-08T12:00:00	4	Temperatura máxima	25.8
87883	7	Sololá	704	Santa Lucía Utatlán 	7	Santa Rita 	4	Abril	2023-04-14T00:00:00	2024-11-08T12:00:00	3	Temperatura mínima	24.8
87884	7	Sololá	704	Santa Lucía Utatlán 	7	Santa Rita 	4	Abril	2023-04-14T00:00:00	2024-11-08T12:00:00	5	Humedad	40
87885	7	Sololá	704	Santa Lucía Utatlán 	7	Santa Rita 	4	Abril	2023-04-14T00:00:00	2024-11-08T12:00:00	6	Velocidad del viento	11.3
87886	7	Sololá	704	Santa Lucía Utatlán 	7	Santa Rita 	4	Abril	2023-04-14T00:00:00	2024-11-08T12:00:00	7	Dirección del viento	11.27
87887	7	Sololá	704	Santa Lucía Utatlán 	7	Santa Rita 	4	Abril	2023-04-14T00:00:00	2024-11-08T12:00:00	1	Precipitación	0
87888	7	Sololá	704	Santa Lucía Utatlán 	7	Santa Rita 	4	Abril	2023-04-14T00:00:00	2024-11-08T12:00:00	8	Radiación solar	948
87889	7	Sololá	704	Santa Lucía Utatlán 	7	Santa Rita 	4	Abril	2023-04-14T00:00:00	2024-11-08T13:00:00	2	Temperatura media	27.5
87890	7	Sololá	704	Santa Lucía Utatlán 	7	Santa Rita 	4	Abril	2023-04-14T00:00:00	2024-11-08T13:00:00	4	Temperatura máxima	27.7
87891	7	Sololá	704	Santa Lucía Utatlán 	7	Santa Rita 	4	Abril	2023-04-14T00:00:00	2024-11-08T13:00:00	3	Temperatura mínima	25.8
87892	7	Sololá	704	Santa Lucía Utatlán 	7	Santa Rita 	4	Abril	2023-04-14T00:00:00	2024-11-08T13:00:00	5	Humedad	32
87893	7	Sololá	704	Santa Lucía Utatlán 	7	Santa Rita 	4	Abril	2023-04-14T00:00:00	2024-11-08T13:00:00	6	Velocidad del viento	11.3
87894	7	Sololá	704	Santa Lucía Utatlán 	7	Santa Rita 	4	Abril	2023-04-14T00:00:00	2024-11-08T13:00:00	7	Dirección del viento	11.27
87895	7	Sololá	704	Santa Lucía Utatlán 	7	Santa Rita 	4	Abril	2023-04-14T00:00:00	2024-11-08T13:00:00	1	Precipitación	0
87896	7	Sololá	704	Santa Lucía Utatlán 	7	Santa Rita 	4	Abril	2023-04-14T00:00:00	2024-11-08T13:00:00	8	Radiación solar	1019
87897	7	Sololá	704	Santa Lucía Utatlán 	7	Santa Rita 	4	Abril	2023-04-14T00:00:00	2024-11-08T14:00:00	2	Temperatura media	26.7
87898	7	Sololá	704	Santa Lucía Utatlán 	7	Santa Rita 	4	Abril	2023-04-14T00:00:00	2024-11-08T14:00:00	4	Temperatura máxima	27.6
87899	7	Sololá	704	Santa Lucía Utatlán 	7	Santa Rita 	4	Abril	2023-04-14T00:00:00	2024-11-08T14:00:00	3	Temperatura mínima	26.4
87900	7	Sololá	704	Santa Lucía Utatlán 	7	Santa Rita 	4	Abril	2023-04-14T00:00:00	2024-11-08T14:00:00	5	Humedad	48
87901	7	Sololá	704	Santa Lucía Utatlán 	7	Santa Rita 	4	Abril	2023-04-14T00:00:00	2024-11-08T14:00:00	6	Velocidad del viento	12.9
87902	7	Sololá	704	Santa Lucía Utatlán 	7	Santa Rita 	4	Abril	2023-04-14T00:00:00	2024-11-08T14:00:00	7	Dirección del viento	12.87
87903	7	Sololá	704	Santa Lucía Utatlán 	7	Santa Rita 	4	Abril	2023-04-14T00:00:00	2024-11-08T14:00:00	1	Precipitación	0
87904	7	Sololá	704	Santa Lucía Utatlán 	7	Santa Rita 	4	Abril	2023-04-14T00:00:00	2024-11-08T14:00:00	8	Radiación solar	1020
87905	7	Sololá	704	Santa Lucía Utatlán 	7	Santa Rita 	4	Abril	2023-04-14T00:00:00	2024-11-08T15:00:00	2	Temperatura media	25.3
87906	7	Sololá	704	Santa Lucía Utatlán 	7	Santa Rita 	4	Abril	2023-04-14T00:00:00	2024-11-08T15:00:00	4	Temperatura máxima	26.8
87907	7	Sololá	704	Santa Lucía Utatlán 	7	Santa Rita 	4	Abril	2023-04-14T00:00:00	2024-11-08T15:00:00	3	Temperatura mínima	24.8
87908	7	Sololá	704	Santa Lucía Utatlán 	7	Santa Rita 	4	Abril	2023-04-14T00:00:00	2024-11-08T15:00:00	5	Humedad	63
87909	7	Sololá	704	Santa Lucía Utatlán 	7	Santa Rita 	4	Abril	2023-04-14T00:00:00	2024-11-08T15:00:00	6	Velocidad del viento	11.3
87910	7	Sololá	704	Santa Lucía Utatlán 	7	Santa Rita 	4	Abril	2023-04-14T00:00:00	2024-11-08T15:00:00	7	Dirección del viento	11.27
87911	7	Sololá	704	Santa Lucía Utatlán 	7	Santa Rita 	4	Abril	2023-04-14T00:00:00	2024-11-08T15:00:00	1	Precipitación	0
87912	7	Sololá	704	Santa Lucía Utatlán 	7	Santa Rita 	4	Abril	2023-04-14T00:00:00	2024-11-08T15:00:00	8	Radiación solar	938
87913	7	Sololá	704	Santa Lucía Utatlán 	7	Santa Rita 	4	Abril	2023-04-14T00:00:00	2024-11-08T16:00:00	2	Temperatura media	24.1
87914	7	Sololá	704	Santa Lucía Utatlán 	7	Santa Rita 	4	Abril	2023-04-14T00:00:00	2024-11-08T16:00:00	4	Temperatura máxima	25.6
87915	7	Sololá	704	Santa Lucía Utatlán 	7	Santa Rita 	4	Abril	2023-04-14T00:00:00	2024-11-08T16:00:00	3	Temperatura mínima	24.1
87916	7	Sololá	704	Santa Lucía Utatlán 	7	Santa Rita 	4	Abril	2023-04-14T00:00:00	2024-11-08T16:00:00	5	Humedad	70
87917	7	Sololá	704	Santa Lucía Utatlán 	7	Santa Rita 	4	Abril	2023-04-14T00:00:00	2024-11-08T16:00:00	6	Velocidad del viento	8
87918	7	Sololá	704	Santa Lucía Utatlán 	7	Santa Rita 	4	Abril	2023-04-14T00:00:00	2024-11-08T16:00:00	7	Dirección del viento	8.05
87919	7	Sololá	704	Santa Lucía Utatlán 	7	Santa Rita 	4	Abril	2023-04-14T00:00:00	2024-11-08T16:00:00	1	Precipitación	0
87920	7	Sololá	704	Santa Lucía Utatlán 	7	Santa Rita 	4	Abril	2023-04-14T00:00:00	2024-11-08T16:00:00	8	Radiación solar	536
87921	7	Sololá	704	Santa Lucía Utatlán 	7	Santa Rita 	4	Abril	2023-04-14T00:00:00	2024-11-08T17:00:00	2	Temperatura media	22.4
87922	7	Sololá	704	Santa Lucía Utatlán 	7	Santa Rita 	4	Abril	2023-04-14T00:00:00	2024-11-08T17:00:00	4	Temperatura máxima	24.1
87923	7	Sololá	704	Santa Lucía Utatlán 	7	Santa Rita 	4	Abril	2023-04-14T00:00:00	2024-11-08T17:00:00	3	Temperatura mínima	22.4
87924	7	Sololá	704	Santa Lucía Utatlán 	7	Santa Rita 	4	Abril	2023-04-14T00:00:00	2024-11-08T17:00:00	5	Humedad	78
87925	7	Sololá	704	Santa Lucía Utatlán 	7	Santa Rita 	4	Abril	2023-04-14T00:00:00	2024-11-08T17:00:00	6	Velocidad del viento	8
87926	7	Sololá	704	Santa Lucía Utatlán 	7	Santa Rita 	4	Abril	2023-04-14T00:00:00	2024-11-08T17:00:00	7	Dirección del viento	8.05
87927	7	Sololá	704	Santa Lucía Utatlán 	7	Santa Rita 	4	Abril	2023-04-14T00:00:00	2024-11-08T17:00:00	1	Precipitación	0
87928	7	Sololá	704	Santa Lucía Utatlán 	7	Santa Rita 	4	Abril	2023-04-14T00:00:00	2024-11-08T17:00:00	8	Radiación solar	217
87929	7	Sololá	704	Santa Lucía Utatlán 	7	Santa Rita 	4	Abril	2023-04-14T00:00:00	2024-11-08T18:00:00	2	Temperatura media	21.8
87930	7	Sololá	704	Santa Lucía Utatlán 	7	Santa Rita 	4	Abril	2023-04-14T00:00:00	2024-11-08T18:00:00	4	Temperatura máxima	22.5
87931	7	Sololá	704	Santa Lucía Utatlán 	7	Santa Rita 	4	Abril	2023-04-14T00:00:00	2024-11-08T18:00:00	3	Temperatura mínima	21.7
87932	7	Sololá	704	Santa Lucía Utatlán 	7	Santa Rita 	4	Abril	2023-04-14T00:00:00	2024-11-08T18:00:00	5	Humedad	82
87933	7	Sololá	704	Santa Lucía Utatlán 	7	Santa Rita 	4	Abril	2023-04-14T00:00:00	2024-11-08T18:00:00	6	Velocidad del viento	4.8
87934	7	Sololá	704	Santa Lucía Utatlán 	7	Santa Rita 	4	Abril	2023-04-14T00:00:00	2024-11-08T18:00:00	7	Dirección del viento	4.83
87935	7	Sololá	704	Santa Lucía Utatlán 	7	Santa Rita 	4	Abril	2023-04-14T00:00:00	2024-11-08T18:00:00	1	Precipitación	0
87936	7	Sololá	704	Santa Lucía Utatlán 	7	Santa Rita 	4	Abril	2023-04-14T00:00:00	2024-11-08T18:00:00	8	Radiación solar	86
87937	7	Sololá	704	Santa Lucía Utatlán 	7	Santa Rita 	4	Abril	2023-04-14T00:00:00	2024-11-08T19:00:00	2	Temperatura media	20.6
87938	7	Sololá	704	Santa Lucía Utatlán 	7	Santa Rita 	4	Abril	2023-04-14T00:00:00	2024-11-08T19:00:00	4	Temperatura máxima	21.8
87939	7	Sololá	704	Santa Lucía Utatlán 	7	Santa Rita 	4	Abril	2023-04-14T00:00:00	2024-11-08T19:00:00	3	Temperatura mínima	20.6
87940	7	Sololá	704	Santa Lucía Utatlán 	7	Santa Rita 	4	Abril	2023-04-14T00:00:00	2024-11-08T19:00:00	5	Humedad	86
87941	7	Sololá	704	Santa Lucía Utatlán 	7	Santa Rita 	4	Abril	2023-04-14T00:00:00	2024-11-08T19:00:00	6	Velocidad del viento	4.8
87942	7	Sololá	704	Santa Lucía Utatlán 	7	Santa Rita 	4	Abril	2023-04-14T00:00:00	2024-11-08T19:00:00	7	Dirección del viento	4.83
87943	7	Sololá	704	Santa Lucía Utatlán 	7	Santa Rita 	4	Abril	2023-04-14T00:00:00	2024-11-08T19:00:00	1	Precipitación	0
87944	7	Sololá	704	Santa Lucía Utatlán 	7	Santa Rita 	4	Abril	2023-04-14T00:00:00	2024-11-08T19:00:00	8	Radiación solar	0
87945	7	Sololá	704	Santa Lucía Utatlán 	7	Santa Rita 	4	Abril	2023-04-14T00:00:00	2024-11-08T20:00:00	2	Temperatura media	19.4
87946	7	Sololá	704	Santa Lucía Utatlán 	7	Santa Rita 	4	Abril	2023-04-14T00:00:00	2024-11-08T20:00:00	4	Temperatura máxima	20.6
87947	7	Sololá	704	Santa Lucía Utatlán 	7	Santa Rita 	4	Abril	2023-04-14T00:00:00	2024-11-08T20:00:00	3	Temperatura mínima	19.4
87948	7	Sololá	704	Santa Lucía Utatlán 	7	Santa Rita 	4	Abril	2023-04-14T00:00:00	2024-11-08T20:00:00	5	Humedad	86
87949	7	Sololá	704	Santa Lucía Utatlán 	7	Santa Rita 	4	Abril	2023-04-14T00:00:00	2024-11-08T20:00:00	6	Velocidad del viento	1.6
87950	7	Sololá	704	Santa Lucía Utatlán 	7	Santa Rita 	4	Abril	2023-04-14T00:00:00	2024-11-08T20:00:00	7	Dirección del viento	1.61
87951	7	Sololá	704	Santa Lucía Utatlán 	7	Santa Rita 	4	Abril	2023-04-14T00:00:00	2024-11-08T20:00:00	1	Precipitación	0
87952	7	Sololá	704	Santa Lucía Utatlán 	7	Santa Rita 	4	Abril	2023-04-14T00:00:00	2024-11-08T20:00:00	8	Radiación solar	0
87953	7	Sololá	704	Santa Lucía Utatlán 	7	Santa Rita 	4	Abril	2023-04-14T00:00:00	2024-11-08T21:00:00	2	Temperatura media	18.8
87954	7	Sololá	704	Santa Lucía Utatlán 	7	Santa Rita 	4	Abril	2023-04-14T00:00:00	2024-11-08T21:00:00	4	Temperatura máxima	19.4
87955	7	Sololá	704	Santa Lucía Utatlán 	7	Santa Rita 	4	Abril	2023-04-14T00:00:00	2024-11-08T21:00:00	3	Temperatura mínima	18.8
87956	7	Sololá	704	Santa Lucía Utatlán 	7	Santa Rita 	4	Abril	2023-04-14T00:00:00	2024-11-08T21:00:00	5	Humedad	86
87957	7	Sololá	704	Santa Lucía Utatlán 	7	Santa Rita 	4	Abril	2023-04-14T00:00:00	2024-11-08T21:00:00	6	Velocidad del viento	1.6
87958	7	Sololá	704	Santa Lucía Utatlán 	7	Santa Rita 	4	Abril	2023-04-14T00:00:00	2024-11-08T21:00:00	7	Dirección del viento	1.61
87959	7	Sololá	704	Santa Lucía Utatlán 	7	Santa Rita 	4	Abril	2023-04-14T00:00:00	2024-11-08T21:00:00	1	Precipitación	0
87960	7	Sololá	704	Santa Lucía Utatlán 	7	Santa Rita 	4	Abril	2023-04-14T00:00:00	2024-11-08T21:00:00	8	Radiación solar	0
87961	7	Sololá	704	Santa Lucía Utatlán 	7	Santa Rita 	4	Abril	2023-04-14T00:00:00	2024-11-08T22:00:00	2	Temperatura media	18.3
87962	7	Sololá	704	Santa Lucía Utatlán 	7	Santa Rita 	4	Abril	2023-04-14T00:00:00	2024-11-08T22:00:00	4	Temperatura máxima	18.8
87963	7	Sololá	704	Santa Lucía Utatlán 	7	Santa Rita 	4	Abril	2023-04-14T00:00:00	2024-11-08T22:00:00	3	Temperatura mínima	18.3
87964	7	Sololá	704	Santa Lucía Utatlán 	7	Santa Rita 	4	Abril	2023-04-14T00:00:00	2024-11-08T22:00:00	5	Humedad	89
87965	7	Sololá	704	Santa Lucía Utatlán 	7	Santa Rita 	4	Abril	2023-04-14T00:00:00	2024-11-08T22:00:00	6	Velocidad del viento	1.6
87966	7	Sololá	704	Santa Lucía Utatlán 	7	Santa Rita 	4	Abril	2023-04-14T00:00:00	2024-11-08T22:00:00	7	Dirección del viento	1.61
87967	7	Sololá	704	Santa Lucía Utatlán 	7	Santa Rita 	4	Abril	2023-04-14T00:00:00	2024-11-08T22:00:00	1	Precipitación	0
87968	7	Sololá	704	Santa Lucía Utatlán 	7	Santa Rita 	4	Abril	2023-04-14T00:00:00	2024-11-08T22:00:00	8	Radiación solar	0
87969	7	Sololá	704	Santa Lucía Utatlán 	7	Santa Rita 	4	Abril	2023-04-14T00:00:00	2024-11-08T23:00:00	2	Temperatura media	18
87970	7	Sololá	704	Santa Lucía Utatlán 	7	Santa Rita 	4	Abril	2023-04-14T00:00:00	2024-11-08T23:00:00	4	Temperatura máxima	18.3
87971	7	Sololá	704	Santa Lucía Utatlán 	7	Santa Rita 	4	Abril	2023-04-14T00:00:00	2024-11-08T23:00:00	3	Temperatura mínima	17.9
87972	7	Sololá	704	Santa Lucía Utatlán 	7	Santa Rita 	4	Abril	2023-04-14T00:00:00	2024-11-08T23:00:00	5	Humedad	89
87973	7	Sololá	704	Santa Lucía Utatlán 	7	Santa Rita 	4	Abril	2023-04-14T00:00:00	2024-11-08T23:00:00	6	Velocidad del viento	3.2
87974	7	Sololá	704	Santa Lucía Utatlán 	7	Santa Rita 	4	Abril	2023-04-14T00:00:00	2024-11-08T23:00:00	7	Dirección del viento	3.22
87975	7	Sololá	704	Santa Lucía Utatlán 	7	Santa Rita 	4	Abril	2023-04-14T00:00:00	2024-11-08T23:00:00	1	Precipitación	0
87976	7	Sololá	704	Santa Lucía Utatlán 	7	Santa Rita 	4	Abril	2023-04-14T00:00:00	2024-11-08T23:00:00	8	Radiación solar	0
87977	7	Sololá	704	Santa Lucía Utatlán 	7	Santa Rita 	4	Abril	2023-04-15T00:00:00	2024-11-08T00:00:00	2	Temperatura media	17.8
87978	7	Sololá	704	Santa Lucía Utatlán 	7	Santa Rita 	4	Abril	2023-04-15T00:00:00	2024-11-08T00:00:00	4	Temperatura máxima	18.1
87979	7	Sololá	704	Santa Lucía Utatlán 	7	Santa Rita 	4	Abril	2023-04-15T00:00:00	2024-11-08T00:00:00	3	Temperatura mínima	17.6
87980	7	Sololá	704	Santa Lucía Utatlán 	7	Santa Rita 	4	Abril	2023-04-15T00:00:00	2024-11-08T00:00:00	5	Humedad	87
87981	7	Sololá	704	Santa Lucía Utatlán 	7	Santa Rita 	4	Abril	2023-04-15T00:00:00	2024-11-08T00:00:00	6	Velocidad del viento	3.2
87982	7	Sololá	704	Santa Lucía Utatlán 	7	Santa Rita 	4	Abril	2023-04-15T00:00:00	2024-11-08T00:00:00	7	Dirección del viento	3.22
87983	7	Sololá	704	Santa Lucía Utatlán 	7	Santa Rita 	4	Abril	2023-04-15T00:00:00	2024-11-08T00:00:00	1	Precipitación	0
87984	7	Sololá	704	Santa Lucía Utatlán 	7	Santa Rita 	4	Abril	2023-04-15T00:00:00	2024-11-08T00:00:00	8	Radiación solar	0
87985	7	Sololá	704	Santa Lucía Utatlán 	7	Santa Rita 	4	Abril	2023-04-15T00:00:00	2024-11-08T01:00:00	2	Temperatura media	17.8
87986	7	Sololá	704	Santa Lucía Utatlán 	7	Santa Rita 	4	Abril	2023-04-15T00:00:00	2024-11-08T01:00:00	4	Temperatura máxima	18.1
87987	7	Sololá	704	Santa Lucía Utatlán 	7	Santa Rita 	4	Abril	2023-04-15T00:00:00	2024-11-08T01:00:00	3	Temperatura mínima	17.6
87988	7	Sololá	704	Santa Lucía Utatlán 	7	Santa Rita 	4	Abril	2023-04-15T00:00:00	2024-11-08T01:00:00	5	Humedad	88
87989	7	Sololá	704	Santa Lucía Utatlán 	7	Santa Rita 	4	Abril	2023-04-15T00:00:00	2024-11-08T01:00:00	6	Velocidad del viento	3.2
87990	7	Sololá	704	Santa Lucía Utatlán 	7	Santa Rita 	4	Abril	2023-04-15T00:00:00	2024-11-08T01:00:00	7	Dirección del viento	3.22
87991	7	Sololá	704	Santa Lucía Utatlán 	7	Santa Rita 	4	Abril	2023-04-15T00:00:00	2024-11-08T01:00:00	1	Precipitación	0
87992	7	Sololá	704	Santa Lucía Utatlán 	7	Santa Rita 	4	Abril	2023-04-15T00:00:00	2024-11-08T01:00:00	8	Radiación solar	0
87993	7	Sololá	704	Santa Lucía Utatlán 	7	Santa Rita 	4	Abril	2023-04-15T00:00:00	2024-11-08T02:00:00	2	Temperatura media	17.3
87994	7	Sololá	704	Santa Lucía Utatlán 	7	Santa Rita 	4	Abril	2023-04-15T00:00:00	2024-11-08T02:00:00	4	Temperatura máxima	17.8
87995	7	Sololá	704	Santa Lucía Utatlán 	7	Santa Rita 	4	Abril	2023-04-15T00:00:00	2024-11-08T02:00:00	3	Temperatura mínima	17
87996	7	Sololá	704	Santa Lucía Utatlán 	7	Santa Rita 	4	Abril	2023-04-15T00:00:00	2024-11-08T02:00:00	5	Humedad	91
87997	7	Sololá	704	Santa Lucía Utatlán 	7	Santa Rita 	4	Abril	2023-04-15T00:00:00	2024-11-08T02:00:00	6	Velocidad del viento	1.6
87998	7	Sololá	704	Santa Lucía Utatlán 	7	Santa Rita 	4	Abril	2023-04-15T00:00:00	2024-11-08T02:00:00	7	Dirección del viento	1.61
87999	7	Sololá	704	Santa Lucía Utatlán 	7	Santa Rita 	4	Abril	2023-04-15T00:00:00	2024-11-08T02:00:00	1	Precipitación	0
88000	7	Sololá	704	Santa Lucía Utatlán 	7	Santa Rita 	4	Abril	2023-04-15T00:00:00	2024-11-08T02:00:00	8	Radiación solar	0
88001	7	Sololá	704	Santa Lucía Utatlán 	7	Santa Rita 	4	Abril	2023-04-15T00:00:00	2024-11-08T03:00:00	2	Temperatura media	16.9
88002	7	Sololá	704	Santa Lucía Utatlán 	7	Santa Rita 	4	Abril	2023-04-15T00:00:00	2024-11-08T03:00:00	4	Temperatura máxima	17.4
88003	7	Sololá	704	Santa Lucía Utatlán 	7	Santa Rita 	4	Abril	2023-04-15T00:00:00	2024-11-08T03:00:00	3	Temperatura mínima	16.8
88004	7	Sololá	704	Santa Lucía Utatlán 	7	Santa Rita 	4	Abril	2023-04-15T00:00:00	2024-11-08T03:00:00	5	Humedad	90
88005	7	Sololá	704	Santa Lucía Utatlán 	7	Santa Rita 	4	Abril	2023-04-15T00:00:00	2024-11-08T03:00:00	6	Velocidad del viento	3.2
88006	7	Sololá	704	Santa Lucía Utatlán 	7	Santa Rita 	4	Abril	2023-04-15T00:00:00	2024-11-08T03:00:00	7	Dirección del viento	3.22
88007	7	Sololá	704	Santa Lucía Utatlán 	7	Santa Rita 	4	Abril	2023-04-15T00:00:00	2024-11-08T03:00:00	1	Precipitación	0
88008	7	Sololá	704	Santa Lucía Utatlán 	7	Santa Rita 	4	Abril	2023-04-15T00:00:00	2024-11-08T03:00:00	8	Radiación solar	0
88009	7	Sololá	704	Santa Lucía Utatlán 	7	Santa Rita 	4	Abril	2023-04-15T00:00:00	2024-11-08T04:00:00	2	Temperatura media	16.2
88010	7	Sololá	704	Santa Lucía Utatlán 	7	Santa Rita 	4	Abril	2023-04-15T00:00:00	2024-11-08T04:00:00	4	Temperatura máxima	16.9
88011	7	Sololá	704	Santa Lucía Utatlán 	7	Santa Rita 	4	Abril	2023-04-15T00:00:00	2024-11-08T04:00:00	3	Temperatura mínima	16.2
88012	7	Sololá	704	Santa Lucía Utatlán 	7	Santa Rita 	4	Abril	2023-04-15T00:00:00	2024-11-08T04:00:00	5	Humedad	92
88013	7	Sololá	704	Santa Lucía Utatlán 	7	Santa Rita 	4	Abril	2023-04-15T00:00:00	2024-11-08T04:00:00	6	Velocidad del viento	1.6
88014	7	Sololá	704	Santa Lucía Utatlán 	7	Santa Rita 	4	Abril	2023-04-15T00:00:00	2024-11-08T04:00:00	7	Dirección del viento	1.61
88015	7	Sololá	704	Santa Lucía Utatlán 	7	Santa Rita 	4	Abril	2023-04-15T00:00:00	2024-11-08T04:00:00	1	Precipitación	0
88016	7	Sololá	704	Santa Lucía Utatlán 	7	Santa Rita 	4	Abril	2023-04-15T00:00:00	2024-11-08T04:00:00	8	Radiación solar	0
88017	7	Sololá	704	Santa Lucía Utatlán 	7	Santa Rita 	4	Abril	2023-04-15T00:00:00	2024-11-08T05:00:00	2	Temperatura media	16.7
88018	7	Sololá	704	Santa Lucía Utatlán 	7	Santa Rita 	4	Abril	2023-04-15T00:00:00	2024-11-08T05:00:00	4	Temperatura máxima	16.8
88019	7	Sololá	704	Santa Lucía Utatlán 	7	Santa Rita 	4	Abril	2023-04-15T00:00:00	2024-11-08T05:00:00	3	Temperatura mínima	16.2
88020	7	Sololá	704	Santa Lucía Utatlán 	7	Santa Rita 	4	Abril	2023-04-15T00:00:00	2024-11-08T05:00:00	5	Humedad	86
88021	7	Sololá	704	Santa Lucía Utatlán 	7	Santa Rita 	4	Abril	2023-04-15T00:00:00	2024-11-08T05:00:00	6	Velocidad del viento	3.2
88022	7	Sololá	704	Santa Lucía Utatlán 	7	Santa Rita 	4	Abril	2023-04-15T00:00:00	2024-11-08T05:00:00	7	Dirección del viento	3.22
88023	7	Sololá	704	Santa Lucía Utatlán 	7	Santa Rita 	4	Abril	2023-04-15T00:00:00	2024-11-08T05:00:00	1	Precipitación	0
88024	7	Sololá	704	Santa Lucía Utatlán 	7	Santa Rita 	4	Abril	2023-04-15T00:00:00	2024-11-08T05:00:00	8	Radiación solar	0
88025	7	Sololá	704	Santa Lucía Utatlán 	7	Santa Rita 	4	Abril	2023-04-15T00:00:00	2024-11-08T06:00:00	2	Temperatura media	16.1
88026	7	Sololá	704	Santa Lucía Utatlán 	7	Santa Rita 	4	Abril	2023-04-15T00:00:00	2024-11-08T06:00:00	4	Temperatura máxima	16.7
88027	7	Sololá	704	Santa Lucía Utatlán 	7	Santa Rita 	4	Abril	2023-04-15T00:00:00	2024-11-08T06:00:00	3	Temperatura mínima	15.7
88028	7	Sololá	704	Santa Lucía Utatlán 	7	Santa Rita 	4	Abril	2023-04-15T00:00:00	2024-11-08T06:00:00	5	Humedad	85
88029	7	Sololá	704	Santa Lucía Utatlán 	7	Santa Rita 	4	Abril	2023-04-15T00:00:00	2024-11-08T06:00:00	6	Velocidad del viento	1.6
88030	7	Sololá	704	Santa Lucía Utatlán 	7	Santa Rita 	4	Abril	2023-04-15T00:00:00	2024-11-08T06:00:00	7	Dirección del viento	1.61
88031	7	Sololá	704	Santa Lucía Utatlán 	7	Santa Rita 	4	Abril	2023-04-15T00:00:00	2024-11-08T06:00:00	1	Precipitación	0
88032	7	Sololá	704	Santa Lucía Utatlán 	7	Santa Rita 	4	Abril	2023-04-15T00:00:00	2024-11-08T06:00:00	8	Radiación solar	0
88033	7	Sololá	704	Santa Lucía Utatlán 	7	Santa Rita 	4	Abril	2023-04-15T00:00:00	2024-11-08T07:00:00	2	Temperatura media	16.2
88034	7	Sololá	704	Santa Lucía Utatlán 	7	Santa Rita 	4	Abril	2023-04-15T00:00:00	2024-11-08T07:00:00	4	Temperatura máxima	16.2
88035	7	Sololá	704	Santa Lucía Utatlán 	7	Santa Rita 	4	Abril	2023-04-15T00:00:00	2024-11-08T07:00:00	3	Temperatura mínima	15.8
88036	7	Sololá	704	Santa Lucía Utatlán 	7	Santa Rita 	4	Abril	2023-04-15T00:00:00	2024-11-08T07:00:00	5	Humedad	84
88037	7	Sololá	704	Santa Lucía Utatlán 	7	Santa Rita 	4	Abril	2023-04-15T00:00:00	2024-11-08T07:00:00	6	Velocidad del viento	1.6
88038	7	Sololá	704	Santa Lucía Utatlán 	7	Santa Rita 	4	Abril	2023-04-15T00:00:00	2024-11-08T07:00:00	7	Dirección del viento	1.61
88039	7	Sololá	704	Santa Lucía Utatlán 	7	Santa Rita 	4	Abril	2023-04-15T00:00:00	2024-11-08T07:00:00	1	Precipitación	0
88040	7	Sololá	704	Santa Lucía Utatlán 	7	Santa Rita 	4	Abril	2023-04-15T00:00:00	2024-11-08T07:00:00	8	Radiación solar	1
88041	7	Sololá	704	Santa Lucía Utatlán 	7	Santa Rita 	4	Abril	2023-04-15T00:00:00	2024-11-08T08:00:00	2	Temperatura media	17.9
88042	7	Sololá	704	Santa Lucía Utatlán 	7	Santa Rita 	4	Abril	2023-04-15T00:00:00	2024-11-08T08:00:00	4	Temperatura máxima	17.9
88043	7	Sololá	704	Santa Lucía Utatlán 	7	Santa Rita 	4	Abril	2023-04-15T00:00:00	2024-11-08T08:00:00	3	Temperatura mínima	16.1
88044	7	Sololá	704	Santa Lucía Utatlán 	7	Santa Rita 	4	Abril	2023-04-15T00:00:00	2024-11-08T08:00:00	5	Humedad	81
88045	7	Sololá	704	Santa Lucía Utatlán 	7	Santa Rita 	4	Abril	2023-04-15T00:00:00	2024-11-08T08:00:00	6	Velocidad del viento	1.6
88046	7	Sololá	704	Santa Lucía Utatlán 	7	Santa Rita 	4	Abril	2023-04-15T00:00:00	2024-11-08T08:00:00	7	Dirección del viento	1.61
88047	7	Sololá	704	Santa Lucía Utatlán 	7	Santa Rita 	4	Abril	2023-04-15T00:00:00	2024-11-08T08:00:00	1	Precipitación	0
88048	7	Sololá	704	Santa Lucía Utatlán 	7	Santa Rita 	4	Abril	2023-04-15T00:00:00	2024-11-08T08:00:00	8	Radiación solar	94
88049	7	Sololá	704	Santa Lucía Utatlán 	7	Santa Rita 	4	Abril	2023-04-15T00:00:00	2024-11-08T09:00:00	2	Temperatura media	20.3
88050	7	Sololá	704	Santa Lucía Utatlán 	7	Santa Rita 	4	Abril	2023-04-15T00:00:00	2024-11-08T09:00:00	4	Temperatura máxima	20.5
88051	7	Sololá	704	Santa Lucía Utatlán 	7	Santa Rita 	4	Abril	2023-04-15T00:00:00	2024-11-08T09:00:00	3	Temperatura mínima	18
88052	7	Sololá	704	Santa Lucía Utatlán 	7	Santa Rita 	4	Abril	2023-04-15T00:00:00	2024-11-08T09:00:00	5	Humedad	77
88053	7	Sololá	704	Santa Lucía Utatlán 	7	Santa Rita 	4	Abril	2023-04-15T00:00:00	2024-11-08T09:00:00	6	Velocidad del viento	3.2
88054	7	Sololá	704	Santa Lucía Utatlán 	7	Santa Rita 	4	Abril	2023-04-15T00:00:00	2024-11-08T09:00:00	7	Dirección del viento	3.22
88055	7	Sololá	704	Santa Lucía Utatlán 	7	Santa Rita 	4	Abril	2023-04-15T00:00:00	2024-11-08T09:00:00	1	Precipitación	0
88056	7	Sololá	704	Santa Lucía Utatlán 	7	Santa Rita 	4	Abril	2023-04-15T00:00:00	2024-11-08T09:00:00	8	Radiación solar	300
88057	7	Sololá	704	Santa Lucía Utatlán 	7	Santa Rita 	4	Abril	2023-04-15T00:00:00	2024-11-08T10:00:00	2	Temperatura media	22.8
88058	7	Sololá	704	Santa Lucía Utatlán 	7	Santa Rita 	4	Abril	2023-04-15T00:00:00	2024-11-08T10:00:00	4	Temperatura máxima	22.8
88059	7	Sololá	704	Santa Lucía Utatlán 	7	Santa Rita 	4	Abril	2023-04-15T00:00:00	2024-11-08T10:00:00	3	Temperatura mínima	20.3
88060	7	Sololá	704	Santa Lucía Utatlán 	7	Santa Rita 	4	Abril	2023-04-15T00:00:00	2024-11-08T10:00:00	5	Humedad	68
88061	7	Sololá	704	Santa Lucía Utatlán 	7	Santa Rita 	4	Abril	2023-04-15T00:00:00	2024-11-08T10:00:00	6	Velocidad del viento	4.8
88062	7	Sololá	704	Santa Lucía Utatlán 	7	Santa Rita 	4	Abril	2023-04-15T00:00:00	2024-11-08T10:00:00	7	Dirección del viento	4.83
88063	7	Sololá	704	Santa Lucía Utatlán 	7	Santa Rita 	4	Abril	2023-04-15T00:00:00	2024-11-08T10:00:00	1	Precipitación	0
88064	7	Sololá	704	Santa Lucía Utatlán 	7	Santa Rita 	4	Abril	2023-04-15T00:00:00	2024-11-08T10:00:00	8	Radiación solar	522
88065	7	Sololá	704	Santa Lucía Utatlán 	7	Santa Rita 	4	Abril	2023-04-15T00:00:00	2024-11-08T11:00:00	2	Temperatura media	23.8
88066	7	Sololá	704	Santa Lucía Utatlán 	7	Santa Rita 	4	Abril	2023-04-15T00:00:00	2024-11-08T11:00:00	4	Temperatura máxima	24.2
88067	7	Sololá	704	Santa Lucía Utatlán 	7	Santa Rita 	4	Abril	2023-04-15T00:00:00	2024-11-08T11:00:00	3	Temperatura mínima	22.8
88068	7	Sololá	704	Santa Lucía Utatlán 	7	Santa Rita 	4	Abril	2023-04-15T00:00:00	2024-11-08T11:00:00	5	Humedad	70
88069	7	Sololá	704	Santa Lucía Utatlán 	7	Santa Rita 	4	Abril	2023-04-15T00:00:00	2024-11-08T11:00:00	6	Velocidad del viento	8
88070	7	Sololá	704	Santa Lucía Utatlán 	7	Santa Rita 	4	Abril	2023-04-15T00:00:00	2024-11-08T11:00:00	7	Dirección del viento	8.05
88071	7	Sololá	704	Santa Lucía Utatlán 	7	Santa Rita 	4	Abril	2023-04-15T00:00:00	2024-11-08T11:00:00	1	Precipitación	0
88072	7	Sololá	704	Santa Lucía Utatlán 	7	Santa Rita 	4	Abril	2023-04-15T00:00:00	2024-11-08T11:00:00	8	Radiación solar	750
88073	7	Sololá	704	Santa Lucía Utatlán 	7	Santa Rita 	4	Abril	2023-04-15T00:00:00	2024-11-08T12:00:00	2	Temperatura media	24.6
88074	7	Sololá	704	Santa Lucía Utatlán 	7	Santa Rita 	4	Abril	2023-04-15T00:00:00	2024-11-08T12:00:00	4	Temperatura máxima	25.4
88075	7	Sololá	704	Santa Lucía Utatlán 	7	Santa Rita 	4	Abril	2023-04-15T00:00:00	2024-11-08T12:00:00	3	Temperatura mínima	23.8
88076	7	Sololá	704	Santa Lucía Utatlán 	7	Santa Rita 	4	Abril	2023-04-15T00:00:00	2024-11-08T12:00:00	5	Humedad	67
88077	7	Sololá	704	Santa Lucía Utatlán 	7	Santa Rita 	4	Abril	2023-04-15T00:00:00	2024-11-08T12:00:00	6	Velocidad del viento	8
88078	7	Sololá	704	Santa Lucía Utatlán 	7	Santa Rita 	4	Abril	2023-04-15T00:00:00	2024-11-08T12:00:00	7	Dirección del viento	8.05
88079	7	Sololá	704	Santa Lucía Utatlán 	7	Santa Rita 	4	Abril	2023-04-15T00:00:00	2024-11-08T12:00:00	1	Precipitación	0
88080	7	Sololá	704	Santa Lucía Utatlán 	7	Santa Rita 	4	Abril	2023-04-15T00:00:00	2024-11-08T12:00:00	8	Radiación solar	943
88081	7	Sololá	704	Santa Lucía Utatlán 	7	Santa Rita 	4	Abril	2023-04-15T00:00:00	2024-11-08T13:00:00	2	Temperatura media	24.7
88082	7	Sololá	704	Santa Lucía Utatlán 	7	Santa Rita 	4	Abril	2023-04-15T00:00:00	2024-11-08T13:00:00	4	Temperatura máxima	24.8
88083	7	Sololá	704	Santa Lucía Utatlán 	7	Santa Rita 	4	Abril	2023-04-15T00:00:00	2024-11-08T13:00:00	3	Temperatura mínima	24.2
88084	7	Sololá	704	Santa Lucía Utatlán 	7	Santa Rita 	4	Abril	2023-04-15T00:00:00	2024-11-08T13:00:00	5	Humedad	69
88085	7	Sololá	704	Santa Lucía Utatlán 	7	Santa Rita 	4	Abril	2023-04-15T00:00:00	2024-11-08T13:00:00	6	Velocidad del viento	8
88086	7	Sololá	704	Santa Lucía Utatlán 	7	Santa Rita 	4	Abril	2023-04-15T00:00:00	2024-11-08T13:00:00	7	Dirección del viento	8.05
88087	7	Sololá	704	Santa Lucía Utatlán 	7	Santa Rita 	4	Abril	2023-04-15T00:00:00	2024-11-08T13:00:00	1	Precipitación	0
88088	7	Sololá	704	Santa Lucía Utatlán 	7	Santa Rita 	4	Abril	2023-04-15T00:00:00	2024-11-08T13:00:00	8	Radiación solar	358
88089	7	Sololá	704	Santa Lucía Utatlán 	7	Santa Rita 	4	Abril	2023-04-15T00:00:00	2024-11-08T14:00:00	2	Temperatura media	24.6
88090	7	Sololá	704	Santa Lucía Utatlán 	7	Santa Rita 	4	Abril	2023-04-15T00:00:00	2024-11-08T14:00:00	4	Temperatura máxima	25.1
88091	7	Sololá	704	Santa Lucía Utatlán 	7	Santa Rita 	4	Abril	2023-04-15T00:00:00	2024-11-08T14:00:00	3	Temperatura mínima	24.6
88092	7	Sololá	704	Santa Lucía Utatlán 	7	Santa Rita 	4	Abril	2023-04-15T00:00:00	2024-11-08T14:00:00	5	Humedad	69
88093	7	Sololá	704	Santa Lucía Utatlán 	7	Santa Rita 	4	Abril	2023-04-15T00:00:00	2024-11-08T14:00:00	6	Velocidad del viento	9.7
88094	7	Sololá	704	Santa Lucía Utatlán 	7	Santa Rita 	4	Abril	2023-04-15T00:00:00	2024-11-08T14:00:00	7	Dirección del viento	9.66
88095	7	Sololá	704	Santa Lucía Utatlán 	7	Santa Rita 	4	Abril	2023-04-15T00:00:00	2024-11-08T14:00:00	1	Precipitación	0
88096	7	Sololá	704	Santa Lucía Utatlán 	7	Santa Rita 	4	Abril	2023-04-15T00:00:00	2024-11-08T14:00:00	8	Radiación solar	565
88097	7	Sololá	704	Santa Lucía Utatlán 	7	Santa Rita 	4	Abril	2023-04-15T00:00:00	2024-11-08T15:00:00	2	Temperatura media	23.8
88098	7	Sololá	704	Santa Lucía Utatlán 	7	Santa Rita 	4	Abril	2023-04-15T00:00:00	2024-11-08T15:00:00	4	Temperatura máxima	24.8
88099	7	Sololá	704	Santa Lucía Utatlán 	7	Santa Rita 	4	Abril	2023-04-15T00:00:00	2024-11-08T15:00:00	3	Temperatura mínima	23.8
88100	7	Sololá	704	Santa Lucía Utatlán 	7	Santa Rita 	4	Abril	2023-04-15T00:00:00	2024-11-08T15:00:00	5	Humedad	75
88101	7	Sololá	704	Santa Lucía Utatlán 	7	Santa Rita 	4	Abril	2023-04-15T00:00:00	2024-11-08T15:00:00	6	Velocidad del viento	8
88102	7	Sololá	704	Santa Lucía Utatlán 	7	Santa Rita 	4	Abril	2023-04-15T00:00:00	2024-11-08T15:00:00	7	Dirección del viento	8.05
88103	7	Sololá	704	Santa Lucía Utatlán 	7	Santa Rita 	4	Abril	2023-04-15T00:00:00	2024-11-08T15:00:00	1	Precipitación	0
88104	7	Sololá	704	Santa Lucía Utatlán 	7	Santa Rita 	4	Abril	2023-04-15T00:00:00	2024-11-08T15:00:00	8	Radiación solar	287
88105	7	Sololá	704	Santa Lucía Utatlán 	7	Santa Rita 	4	Abril	2023-04-15T00:00:00	2024-11-08T16:00:00	2	Temperatura media	22.7
88106	7	Sololá	704	Santa Lucía Utatlán 	7	Santa Rita 	4	Abril	2023-04-15T00:00:00	2024-11-08T16:00:00	4	Temperatura máxima	24.2
88107	7	Sololá	704	Santa Lucía Utatlán 	7	Santa Rita 	4	Abril	2023-04-15T00:00:00	2024-11-08T16:00:00	3	Temperatura mínima	22.7
88108	7	Sololá	704	Santa Lucía Utatlán 	7	Santa Rita 	4	Abril	2023-04-15T00:00:00	2024-11-08T16:00:00	5	Humedad	80
88109	7	Sololá	704	Santa Lucía Utatlán 	7	Santa Rita 	4	Abril	2023-04-15T00:00:00	2024-11-08T16:00:00	6	Velocidad del viento	6.4
88110	7	Sololá	704	Santa Lucía Utatlán 	7	Santa Rita 	4	Abril	2023-04-15T00:00:00	2024-11-08T16:00:00	7	Dirección del viento	6.44
88111	7	Sololá	704	Santa Lucía Utatlán 	7	Santa Rita 	4	Abril	2023-04-15T00:00:00	2024-11-08T16:00:00	1	Precipitación	0
88112	7	Sololá	704	Santa Lucía Utatlán 	7	Santa Rita 	4	Abril	2023-04-15T00:00:00	2024-11-08T16:00:00	8	Radiación solar	112
88113	7	Sololá	704	Santa Lucía Utatlán 	7	Santa Rita 	4	Abril	2023-04-15T00:00:00	2024-11-08T17:00:00	2	Temperatura media	22.4
88114	7	Sololá	704	Santa Lucía Utatlán 	7	Santa Rita 	4	Abril	2023-04-15T00:00:00	2024-11-08T17:00:00	4	Temperatura máxima	22.7
88115	7	Sololá	704	Santa Lucía Utatlán 	7	Santa Rita 	4	Abril	2023-04-15T00:00:00	2024-11-08T17:00:00	3	Temperatura mínima	21.9
88116	7	Sololá	704	Santa Lucía Utatlán 	7	Santa Rita 	4	Abril	2023-04-15T00:00:00	2024-11-08T17:00:00	5	Humedad	79
88117	7	Sololá	704	Santa Lucía Utatlán 	7	Santa Rita 	4	Abril	2023-04-15T00:00:00	2024-11-08T17:00:00	6	Velocidad del viento	4.8
88118	7	Sololá	704	Santa Lucía Utatlán 	7	Santa Rita 	4	Abril	2023-04-15T00:00:00	2024-11-08T17:00:00	7	Dirección del viento	4.83
88119	7	Sololá	704	Santa Lucía Utatlán 	7	Santa Rita 	4	Abril	2023-04-15T00:00:00	2024-11-08T17:00:00	1	Precipitación	0
88120	7	Sololá	704	Santa Lucía Utatlán 	7	Santa Rita 	4	Abril	2023-04-15T00:00:00	2024-11-08T17:00:00	8	Radiación solar	141
88121	7	Sololá	704	Santa Lucía Utatlán 	7	Santa Rita 	4	Abril	2023-04-15T00:00:00	2024-11-08T18:00:00	2	Temperatura media	21.4
88122	7	Sololá	704	Santa Lucía Utatlán 	7	Santa Rita 	4	Abril	2023-04-15T00:00:00	2024-11-08T18:00:00	4	Temperatura máxima	22.6
88123	7	Sololá	704	Santa Lucía Utatlán 	7	Santa Rita 	4	Abril	2023-04-15T00:00:00	2024-11-08T18:00:00	3	Temperatura mínima	21.4
88124	7	Sololá	704	Santa Lucía Utatlán 	7	Santa Rita 	4	Abril	2023-04-15T00:00:00	2024-11-08T18:00:00	5	Humedad	85
88125	7	Sololá	704	Santa Lucía Utatlán 	7	Santa Rita 	4	Abril	2023-04-15T00:00:00	2024-11-08T18:00:00	6	Velocidad del viento	3.2
88126	7	Sololá	704	Santa Lucía Utatlán 	7	Santa Rita 	4	Abril	2023-04-15T00:00:00	2024-11-08T18:00:00	7	Dirección del viento	3.22
88127	7	Sololá	704	Santa Lucía Utatlán 	7	Santa Rita 	4	Abril	2023-04-15T00:00:00	2024-11-08T18:00:00	1	Precipitación	0
88128	7	Sololá	704	Santa Lucía Utatlán 	7	Santa Rita 	4	Abril	2023-04-15T00:00:00	2024-11-08T18:00:00	8	Radiación solar	84
88129	7	Sololá	704	Santa Lucía Utatlán 	7	Santa Rita 	4	Abril	2023-04-15T00:00:00	2024-11-08T19:00:00	2	Temperatura media	21
88130	7	Sololá	704	Santa Lucía Utatlán 	7	Santa Rita 	4	Abril	2023-04-15T00:00:00	2024-11-08T19:00:00	4	Temperatura máxima	21.4
88131	7	Sololá	704	Santa Lucía Utatlán 	7	Santa Rita 	4	Abril	2023-04-15T00:00:00	2024-11-08T19:00:00	3	Temperatura mínima	21
88132	7	Sololá	704	Santa Lucía Utatlán 	7	Santa Rita 	4	Abril	2023-04-15T00:00:00	2024-11-08T19:00:00	5	Humedad	88
88133	7	Sololá	704	Santa Lucía Utatlán 	7	Santa Rita 	4	Abril	2023-04-15T00:00:00	2024-11-08T19:00:00	6	Velocidad del viento	1.6
88134	7	Sololá	704	Santa Lucía Utatlán 	7	Santa Rita 	4	Abril	2023-04-15T00:00:00	2024-11-08T19:00:00	7	Dirección del viento	1.61
88135	7	Sololá	704	Santa Lucía Utatlán 	7	Santa Rita 	4	Abril	2023-04-15T00:00:00	2024-11-08T19:00:00	1	Precipitación	0
88136	7	Sololá	704	Santa Lucía Utatlán 	7	Santa Rita 	4	Abril	2023-04-15T00:00:00	2024-11-08T19:00:00	8	Radiación solar	0
88137	7	Sololá	704	Santa Lucía Utatlán 	7	Santa Rita 	4	Abril	2023-04-15T00:00:00	2024-11-08T20:00:00	2	Temperatura media	20.6
88138	7	Sololá	704	Santa Lucía Utatlán 	7	Santa Rita 	4	Abril	2023-04-15T00:00:00	2024-11-08T20:00:00	4	Temperatura máxima	21
88139	7	Sololá	704	Santa Lucía Utatlán 	7	Santa Rita 	4	Abril	2023-04-15T00:00:00	2024-11-08T20:00:00	3	Temperatura mínima	20.6
88140	7	Sololá	704	Santa Lucía Utatlán 	7	Santa Rita 	4	Abril	2023-04-15T00:00:00	2024-11-08T20:00:00	5	Humedad	90
88141	7	Sololá	704	Santa Lucía Utatlán 	7	Santa Rita 	4	Abril	2023-04-15T00:00:00	2024-11-08T20:00:00	6	Velocidad del viento	1.6
88142	7	Sololá	704	Santa Lucía Utatlán 	7	Santa Rita 	4	Abril	2023-04-15T00:00:00	2024-11-08T20:00:00	7	Dirección del viento	1.61
88143	7	Sololá	704	Santa Lucía Utatlán 	7	Santa Rita 	4	Abril	2023-04-15T00:00:00	2024-11-08T20:00:00	1	Precipitación	0
88144	7	Sololá	704	Santa Lucía Utatlán 	7	Santa Rita 	4	Abril	2023-04-15T00:00:00	2024-11-08T20:00:00	8	Radiación solar	0
88145	7	Sololá	704	Santa Lucía Utatlán 	7	Santa Rita 	4	Abril	2023-04-15T00:00:00	2024-11-08T21:00:00	2	Temperatura media	20.2
88146	7	Sololá	704	Santa Lucía Utatlán 	7	Santa Rita 	4	Abril	2023-04-15T00:00:00	2024-11-08T21:00:00	4	Temperatura máxima	20.6
88147	7	Sololá	704	Santa Lucía Utatlán 	7	Santa Rita 	4	Abril	2023-04-15T00:00:00	2024-11-08T21:00:00	3	Temperatura mínima	20.1
88148	7	Sololá	704	Santa Lucía Utatlán 	7	Santa Rita 	4	Abril	2023-04-15T00:00:00	2024-11-08T21:00:00	5	Humedad	91
88149	7	Sololá	704	Santa Lucía Utatlán 	7	Santa Rita 	4	Abril	2023-04-15T00:00:00	2024-11-08T21:00:00	6	Velocidad del viento	0
88150	7	Sololá	704	Santa Lucía Utatlán 	7	Santa Rita 	4	Abril	2023-04-15T00:00:00	2024-11-08T21:00:00	7	Dirección del viento	0
88151	7	Sololá	704	Santa Lucía Utatlán 	7	Santa Rita 	4	Abril	2023-04-15T00:00:00	2024-11-08T21:00:00	1	Precipitación	0
88152	7	Sololá	704	Santa Lucía Utatlán 	7	Santa Rita 	4	Abril	2023-04-15T00:00:00	2024-11-08T21:00:00	8	Radiación solar	0
88153	7	Sololá	704	Santa Lucía Utatlán 	7	Santa Rita 	4	Abril	2023-04-15T00:00:00	2024-11-08T22:00:00	2	Temperatura media	20.4
88154	7	Sololá	704	Santa Lucía Utatlán 	7	Santa Rita 	4	Abril	2023-04-15T00:00:00	2024-11-08T22:00:00	4	Temperatura máxima	20.4
88155	7	Sololá	704	Santa Lucía Utatlán 	7	Santa Rita 	4	Abril	2023-04-15T00:00:00	2024-11-08T22:00:00	3	Temperatura mínima	20.1
88156	7	Sololá	704	Santa Lucía Utatlán 	7	Santa Rita 	4	Abril	2023-04-15T00:00:00	2024-11-08T22:00:00	5	Humedad	91
88157	7	Sololá	704	Santa Lucía Utatlán 	7	Santa Rita 	4	Abril	2023-04-15T00:00:00	2024-11-08T22:00:00	6	Velocidad del viento	1.6
88158	7	Sololá	704	Santa Lucía Utatlán 	7	Santa Rita 	4	Abril	2023-04-15T00:00:00	2024-11-08T22:00:00	7	Dirección del viento	1.61
88159	7	Sololá	704	Santa Lucía Utatlán 	7	Santa Rita 	4	Abril	2023-04-15T00:00:00	2024-11-08T22:00:00	1	Precipitación	0
88160	7	Sololá	704	Santa Lucía Utatlán 	7	Santa Rita 	4	Abril	2023-04-15T00:00:00	2024-11-08T22:00:00	8	Radiación solar	0
88161	7	Sololá	704	Santa Lucía Utatlán 	7	Santa Rita 	4	Abril	2023-04-15T00:00:00	2024-11-08T23:00:00	2	Temperatura media	20.2
88162	7	Sololá	704	Santa Lucía Utatlán 	7	Santa Rita 	4	Abril	2023-04-15T00:00:00	2024-11-08T23:00:00	4	Temperatura máxima	20.4
88163	7	Sololá	704	Santa Lucía Utatlán 	7	Santa Rita 	4	Abril	2023-04-15T00:00:00	2024-11-08T23:00:00	3	Temperatura mínima	19.5
88164	7	Sololá	704	Santa Lucía Utatlán 	7	Santa Rita 	4	Abril	2023-04-15T00:00:00	2024-11-08T23:00:00	5	Humedad	73
88165	7	Sololá	704	Santa Lucía Utatlán 	7	Santa Rita 	4	Abril	2023-04-15T00:00:00	2024-11-08T23:00:00	6	Velocidad del viento	3.2
88166	7	Sololá	704	Santa Lucía Utatlán 	7	Santa Rita 	4	Abril	2023-04-15T00:00:00	2024-11-08T23:00:00	7	Dirección del viento	3.22
88167	7	Sololá	704	Santa Lucía Utatlán 	7	Santa Rita 	4	Abril	2023-04-15T00:00:00	2024-11-08T23:00:00	1	Precipitación	0
88168	7	Sololá	704	Santa Lucía Utatlán 	7	Santa Rita 	4	Abril	2023-04-15T00:00:00	2024-11-08T23:00:00	8	Radiación solar	0
88169	7	Sololá	704	Santa Lucía Utatlán 	7	Santa Rita 	4	Abril	2023-04-16T00:00:00	2024-11-08T00:00:00	2	Temperatura media	18.2
88170	7	Sololá	704	Santa Lucía Utatlán 	7	Santa Rita 	4	Abril	2023-04-16T00:00:00	2024-11-08T00:00:00	4	Temperatura máxima	20.6
88171	7	Sololá	704	Santa Lucía Utatlán 	7	Santa Rita 	4	Abril	2023-04-16T00:00:00	2024-11-08T00:00:00	3	Temperatura mínima	18.2
88172	7	Sololá	704	Santa Lucía Utatlán 	7	Santa Rita 	4	Abril	2023-04-16T00:00:00	2024-11-08T00:00:00	5	Humedad	78
88173	7	Sololá	704	Santa Lucía Utatlán 	7	Santa Rita 	4	Abril	2023-04-16T00:00:00	2024-11-08T00:00:00	6	Velocidad del viento	3.2
88174	7	Sololá	704	Santa Lucía Utatlán 	7	Santa Rita 	4	Abril	2023-04-16T00:00:00	2024-11-08T00:00:00	7	Dirección del viento	3.22
88175	7	Sololá	704	Santa Lucía Utatlán 	7	Santa Rita 	4	Abril	2023-04-16T00:00:00	2024-11-08T00:00:00	1	Precipitación	0
88176	7	Sololá	704	Santa Lucía Utatlán 	7	Santa Rita 	4	Abril	2023-04-16T00:00:00	2024-11-08T00:00:00	8	Radiación solar	0
88177	7	Sololá	704	Santa Lucía Utatlán 	7	Santa Rita 	4	Abril	2023-04-16T00:00:00	2024-11-08T01:00:00	2	Temperatura media	18.9
88178	7	Sololá	704	Santa Lucía Utatlán 	7	Santa Rita 	4	Abril	2023-04-16T00:00:00	2024-11-08T01:00:00	4	Temperatura máxima	19
88179	7	Sololá	704	Santa Lucía Utatlán 	7	Santa Rita 	4	Abril	2023-04-16T00:00:00	2024-11-08T01:00:00	3	Temperatura mínima	18.2
88180	7	Sololá	704	Santa Lucía Utatlán 	7	Santa Rita 	4	Abril	2023-04-16T00:00:00	2024-11-08T01:00:00	5	Humedad	82
88181	7	Sololá	704	Santa Lucía Utatlán 	7	Santa Rita 	4	Abril	2023-04-16T00:00:00	2024-11-08T01:00:00	6	Velocidad del viento	1.6
88182	7	Sololá	704	Santa Lucía Utatlán 	7	Santa Rita 	4	Abril	2023-04-16T00:00:00	2024-11-08T01:00:00	7	Dirección del viento	1.61
88183	7	Sololá	704	Santa Lucía Utatlán 	7	Santa Rita 	4	Abril	2023-04-16T00:00:00	2024-11-08T01:00:00	1	Precipitación	0
88184	7	Sololá	704	Santa Lucía Utatlán 	7	Santa Rita 	4	Abril	2023-04-16T00:00:00	2024-11-08T01:00:00	8	Radiación solar	0
88185	7	Sololá	704	Santa Lucía Utatlán 	7	Santa Rita 	4	Abril	2023-04-16T00:00:00	2024-11-08T02:00:00	2	Temperatura media	17.6
88186	7	Sololá	704	Santa Lucía Utatlán 	7	Santa Rita 	4	Abril	2023-04-16T00:00:00	2024-11-08T02:00:00	4	Temperatura máxima	18.9
88187	7	Sololá	704	Santa Lucía Utatlán 	7	Santa Rita 	4	Abril	2023-04-16T00:00:00	2024-11-08T02:00:00	3	Temperatura mínima	17.6
88188	7	Sololá	704	Santa Lucía Utatlán 	7	Santa Rita 	4	Abril	2023-04-16T00:00:00	2024-11-08T02:00:00	5	Humedad	87
88189	7	Sololá	704	Santa Lucía Utatlán 	7	Santa Rita 	4	Abril	2023-04-16T00:00:00	2024-11-08T02:00:00	6	Velocidad del viento	1.6
88190	7	Sololá	704	Santa Lucía Utatlán 	7	Santa Rita 	4	Abril	2023-04-16T00:00:00	2024-11-08T02:00:00	7	Dirección del viento	1.61
88191	7	Sololá	704	Santa Lucía Utatlán 	7	Santa Rita 	4	Abril	2023-04-16T00:00:00	2024-11-08T02:00:00	1	Precipitación	0
88192	7	Sololá	704	Santa Lucía Utatlán 	7	Santa Rita 	4	Abril	2023-04-16T00:00:00	2024-11-08T02:00:00	8	Radiación solar	0
88193	7	Sololá	704	Santa Lucía Utatlán 	7	Santa Rita 	4	Abril	2023-04-16T00:00:00	2024-11-08T03:00:00	2	Temperatura media	17.3
88194	7	Sololá	704	Santa Lucía Utatlán 	7	Santa Rita 	4	Abril	2023-04-16T00:00:00	2024-11-08T03:00:00	4	Temperatura máxima	17.7
88195	7	Sololá	704	Santa Lucía Utatlán 	7	Santa Rita 	4	Abril	2023-04-16T00:00:00	2024-11-08T03:00:00	3	Temperatura mínima	17.3
88196	7	Sololá	704	Santa Lucía Utatlán 	7	Santa Rita 	4	Abril	2023-04-16T00:00:00	2024-11-08T03:00:00	5	Humedad	88
88197	7	Sololá	704	Santa Lucía Utatlán 	7	Santa Rita 	4	Abril	2023-04-16T00:00:00	2024-11-08T03:00:00	6	Velocidad del viento	3.2
88198	7	Sololá	704	Santa Lucía Utatlán 	7	Santa Rita 	4	Abril	2023-04-16T00:00:00	2024-11-08T03:00:00	7	Dirección del viento	3.22
88199	7	Sololá	704	Santa Lucía Utatlán 	7	Santa Rita 	4	Abril	2023-04-16T00:00:00	2024-11-08T03:00:00	1	Precipitación	0
88200	7	Sololá	704	Santa Lucía Utatlán 	7	Santa Rita 	4	Abril	2023-04-16T00:00:00	2024-11-08T03:00:00	8	Radiación solar	0
88201	7	Sololá	704	Santa Lucía Utatlán 	7	Santa Rita 	4	Abril	2023-04-16T00:00:00	2024-11-08T04:00:00	2	Temperatura media	17.5
88202	7	Sololá	704	Santa Lucía Utatlán 	7	Santa Rita 	4	Abril	2023-04-16T00:00:00	2024-11-08T04:00:00	4	Temperatura máxima	17.7
88203	7	Sololá	704	Santa Lucía Utatlán 	7	Santa Rita 	4	Abril	2023-04-16T00:00:00	2024-11-08T04:00:00	3	Temperatura mínima	17.3
88204	7	Sololá	704	Santa Lucía Utatlán 	7	Santa Rita 	4	Abril	2023-04-16T00:00:00	2024-11-08T04:00:00	5	Humedad	86
88205	7	Sololá	704	Santa Lucía Utatlán 	7	Santa Rita 	4	Abril	2023-04-16T00:00:00	2024-11-08T04:00:00	6	Velocidad del viento	4.8
88206	7	Sololá	704	Santa Lucía Utatlán 	7	Santa Rita 	4	Abril	2023-04-16T00:00:00	2024-11-08T04:00:00	7	Dirección del viento	4.83
88207	7	Sololá	704	Santa Lucía Utatlán 	7	Santa Rita 	4	Abril	2023-04-16T00:00:00	2024-11-08T04:00:00	1	Precipitación	0
88208	7	Sololá	704	Santa Lucía Utatlán 	7	Santa Rita 	4	Abril	2023-04-16T00:00:00	2024-11-08T04:00:00	8	Radiación solar	0
88209	7	Sololá	704	Santa Lucía Utatlán 	7	Santa Rita 	4	Abril	2023-04-16T00:00:00	2024-11-08T05:00:00	2	Temperatura media	17.2
88210	7	Sololá	704	Santa Lucía Utatlán 	7	Santa Rita 	4	Abril	2023-04-16T00:00:00	2024-11-08T05:00:00	4	Temperatura máxima	17.7
88211	7	Sololá	704	Santa Lucía Utatlán 	7	Santa Rita 	4	Abril	2023-04-16T00:00:00	2024-11-08T05:00:00	3	Temperatura mínima	17.2
88212	7	Sololá	704	Santa Lucía Utatlán 	7	Santa Rita 	4	Abril	2023-04-16T00:00:00	2024-11-08T05:00:00	5	Humedad	82
88213	7	Sololá	704	Santa Lucía Utatlán 	7	Santa Rita 	4	Abril	2023-04-16T00:00:00	2024-11-08T05:00:00	6	Velocidad del viento	3.2
88214	7	Sololá	704	Santa Lucía Utatlán 	7	Santa Rita 	4	Abril	2023-04-16T00:00:00	2024-11-08T05:00:00	7	Dirección del viento	3.22
88215	7	Sololá	704	Santa Lucía Utatlán 	7	Santa Rita 	4	Abril	2023-04-16T00:00:00	2024-11-08T05:00:00	1	Precipitación	0
88216	7	Sololá	704	Santa Lucía Utatlán 	7	Santa Rita 	4	Abril	2023-04-16T00:00:00	2024-11-08T05:00:00	8	Radiación solar	0
88217	7	Sololá	704	Santa Lucía Utatlán 	7	Santa Rita 	4	Abril	2023-04-16T00:00:00	2024-11-08T06:00:00	2	Temperatura media	16
88218	7	Sololá	704	Santa Lucía Utatlán 	7	Santa Rita 	4	Abril	2023-04-16T00:00:00	2024-11-08T06:00:00	4	Temperatura máxima	17.3
88219	7	Sololá	704	Santa Lucía Utatlán 	7	Santa Rita 	4	Abril	2023-04-16T00:00:00	2024-11-08T06:00:00	3	Temperatura mínima	15.9
88220	7	Sololá	704	Santa Lucía Utatlán 	7	Santa Rita 	4	Abril	2023-04-16T00:00:00	2024-11-08T06:00:00	5	Humedad	86
88221	7	Sololá	704	Santa Lucía Utatlán 	7	Santa Rita 	4	Abril	2023-04-16T00:00:00	2024-11-08T06:00:00	6	Velocidad del viento	1.6
88222	7	Sololá	704	Santa Lucía Utatlán 	7	Santa Rita 	4	Abril	2023-04-16T00:00:00	2024-11-08T06:00:00	7	Dirección del viento	1.61
88223	7	Sololá	704	Santa Lucía Utatlán 	7	Santa Rita 	4	Abril	2023-04-16T00:00:00	2024-11-08T06:00:00	1	Precipitación	0
88224	7	Sololá	704	Santa Lucía Utatlán 	7	Santa Rita 	4	Abril	2023-04-16T00:00:00	2024-11-08T06:00:00	8	Radiación solar	0
88225	7	Sololá	704	Santa Lucía Utatlán 	7	Santa Rita 	4	Abril	2023-04-16T00:00:00	2024-11-08T07:00:00	2	Temperatura media	16.6
88226	7	Sololá	704	Santa Lucía Utatlán 	7	Santa Rita 	4	Abril	2023-04-16T00:00:00	2024-11-08T07:00:00	4	Temperatura máxima	16.7
88227	7	Sololá	704	Santa Lucía Utatlán 	7	Santa Rita 	4	Abril	2023-04-16T00:00:00	2024-11-08T07:00:00	3	Temperatura mínima	16
88228	7	Sololá	704	Santa Lucía Utatlán 	7	Santa Rita 	4	Abril	2023-04-16T00:00:00	2024-11-08T07:00:00	5	Humedad	85
88229	7	Sololá	704	Santa Lucía Utatlán 	7	Santa Rita 	4	Abril	2023-04-16T00:00:00	2024-11-08T07:00:00	6	Velocidad del viento	4.8
88230	7	Sololá	704	Santa Lucía Utatlán 	7	Santa Rita 	4	Abril	2023-04-16T00:00:00	2024-11-08T07:00:00	7	Dirección del viento	4.83
88231	7	Sololá	704	Santa Lucía Utatlán 	7	Santa Rita 	4	Abril	2023-04-16T00:00:00	2024-11-08T07:00:00	1	Precipitación	0
88232	7	Sololá	704	Santa Lucía Utatlán 	7	Santa Rita 	4	Abril	2023-04-16T00:00:00	2024-11-08T07:00:00	8	Radiación solar	1
88233	7	Sololá	704	Santa Lucía Utatlán 	7	Santa Rita 	4	Abril	2023-04-16T00:00:00	2024-11-08T08:00:00	2	Temperatura media	19.6
88234	7	Sololá	704	Santa Lucía Utatlán 	7	Santa Rita 	4	Abril	2023-04-16T00:00:00	2024-11-08T08:00:00	4	Temperatura máxima	19.6
88235	7	Sololá	704	Santa Lucía Utatlán 	7	Santa Rita 	4	Abril	2023-04-16T00:00:00	2024-11-08T08:00:00	3	Temperatura mínima	16.6
88236	7	Sololá	704	Santa Lucía Utatlán 	7	Santa Rita 	4	Abril	2023-04-16T00:00:00	2024-11-08T08:00:00	5	Humedad	81
88237	7	Sololá	704	Santa Lucía Utatlán 	7	Santa Rita 	4	Abril	2023-04-16T00:00:00	2024-11-08T08:00:00	6	Velocidad del viento	3.2
88238	7	Sololá	704	Santa Lucía Utatlán 	7	Santa Rita 	4	Abril	2023-04-16T00:00:00	2024-11-08T08:00:00	7	Dirección del viento	3.22
88239	7	Sololá	704	Santa Lucía Utatlán 	7	Santa Rita 	4	Abril	2023-04-16T00:00:00	2024-11-08T08:00:00	1	Precipitación	0
88240	7	Sololá	704	Santa Lucía Utatlán 	7	Santa Rita 	4	Abril	2023-04-16T00:00:00	2024-11-08T08:00:00	8	Radiación solar	91
88241	7	Sololá	704	Santa Lucía Utatlán 	7	Santa Rita 	4	Abril	2023-04-16T00:00:00	2024-11-08T09:00:00	2	Temperatura media	22.1
88242	7	Sololá	704	Santa Lucía Utatlán 	7	Santa Rita 	4	Abril	2023-04-16T00:00:00	2024-11-08T09:00:00	4	Temperatura máxima	22.1
88243	7	Sololá	704	Santa Lucía Utatlán 	7	Santa Rita 	4	Abril	2023-04-16T00:00:00	2024-11-08T09:00:00	3	Temperatura mínima	19.6
88244	7	Sololá	704	Santa Lucía Utatlán 	7	Santa Rita 	4	Abril	2023-04-16T00:00:00	2024-11-08T09:00:00	5	Humedad	75
88245	7	Sololá	704	Santa Lucía Utatlán 	7	Santa Rita 	4	Abril	2023-04-16T00:00:00	2024-11-08T09:00:00	6	Velocidad del viento	3.2
88246	7	Sololá	704	Santa Lucía Utatlán 	7	Santa Rita 	4	Abril	2023-04-16T00:00:00	2024-11-08T09:00:00	7	Dirección del viento	3.22
88247	7	Sololá	704	Santa Lucía Utatlán 	7	Santa Rita 	4	Abril	2023-04-16T00:00:00	2024-11-08T09:00:00	1	Precipitación	0
88248	7	Sololá	704	Santa Lucía Utatlán 	7	Santa Rita 	4	Abril	2023-04-16T00:00:00	2024-11-08T09:00:00	8	Radiación solar	348
88249	7	Sololá	704	Santa Lucía Utatlán 	7	Santa Rita 	4	Abril	2023-04-16T00:00:00	2024-11-08T10:00:00	2	Temperatura media	24.1
88250	7	Sololá	704	Santa Lucía Utatlán 	7	Santa Rita 	4	Abril	2023-04-16T00:00:00	2024-11-08T10:00:00	4	Temperatura máxima	24.2
88251	7	Sololá	704	Santa Lucía Utatlán 	7	Santa Rita 	4	Abril	2023-04-16T00:00:00	2024-11-08T10:00:00	3	Temperatura mínima	22.1
88252	7	Sololá	704	Santa Lucía Utatlán 	7	Santa Rita 	4	Abril	2023-04-16T00:00:00	2024-11-08T10:00:00	5	Humedad	61
88253	7	Sololá	704	Santa Lucía Utatlán 	7	Santa Rita 	4	Abril	2023-04-16T00:00:00	2024-11-08T10:00:00	6	Velocidad del viento	4.8
88254	7	Sololá	704	Santa Lucía Utatlán 	7	Santa Rita 	4	Abril	2023-04-16T00:00:00	2024-11-08T10:00:00	7	Dirección del viento	4.83
88255	7	Sololá	704	Santa Lucía Utatlán 	7	Santa Rita 	4	Abril	2023-04-16T00:00:00	2024-11-08T10:00:00	1	Precipitación	0
88256	7	Sololá	704	Santa Lucía Utatlán 	7	Santa Rita 	4	Abril	2023-04-16T00:00:00	2024-11-08T10:00:00	8	Radiación solar	576
88257	7	Sololá	704	Santa Lucía Utatlán 	7	Santa Rita 	4	Abril	2023-04-16T00:00:00	2024-11-08T11:00:00	2	Temperatura media	25.7
88258	7	Sololá	704	Santa Lucía Utatlán 	7	Santa Rita 	4	Abril	2023-04-16T00:00:00	2024-11-08T11:00:00	4	Temperatura máxima	25.7
88259	7	Sololá	704	Santa Lucía Utatlán 	7	Santa Rita 	4	Abril	2023-04-16T00:00:00	2024-11-08T11:00:00	3	Temperatura mínima	24.2
88260	7	Sololá	704	Santa Lucía Utatlán 	7	Santa Rita 	4	Abril	2023-04-16T00:00:00	2024-11-08T11:00:00	5	Humedad	55
88261	7	Sololá	704	Santa Lucía Utatlán 	7	Santa Rita 	4	Abril	2023-04-16T00:00:00	2024-11-08T11:00:00	6	Velocidad del viento	8
88262	7	Sololá	704	Santa Lucía Utatlán 	7	Santa Rita 	4	Abril	2023-04-16T00:00:00	2024-11-08T11:00:00	7	Dirección del viento	8.05
88263	7	Sololá	704	Santa Lucía Utatlán 	7	Santa Rita 	4	Abril	2023-04-16T00:00:00	2024-11-08T11:00:00	1	Precipitación	0
88264	7	Sololá	704	Santa Lucía Utatlán 	7	Santa Rita 	4	Abril	2023-04-16T00:00:00	2024-11-08T11:00:00	8	Radiación solar	812
88265	7	Sololá	704	Santa Lucía Utatlán 	7	Santa Rita 	4	Abril	2023-04-16T00:00:00	2024-11-08T12:00:00	2	Temperatura media	24.8
88266	7	Sololá	704	Santa Lucía Utatlán 	7	Santa Rita 	4	Abril	2023-04-16T00:00:00	2024-11-08T12:00:00	4	Temperatura máxima	26.3
88267	7	Sololá	704	Santa Lucía Utatlán 	7	Santa Rita 	4	Abril	2023-04-16T00:00:00	2024-11-08T12:00:00	3	Temperatura mínima	24.8
88268	7	Sololá	704	Santa Lucía Utatlán 	7	Santa Rita 	4	Abril	2023-04-16T00:00:00	2024-11-08T12:00:00	5	Humedad	62
88269	7	Sololá	704	Santa Lucía Utatlán 	7	Santa Rita 	4	Abril	2023-04-16T00:00:00	2024-11-08T12:00:00	6	Velocidad del viento	8
88270	7	Sololá	704	Santa Lucía Utatlán 	7	Santa Rita 	4	Abril	2023-04-16T00:00:00	2024-11-08T12:00:00	7	Dirección del viento	8.05
88271	7	Sololá	704	Santa Lucía Utatlán 	7	Santa Rita 	4	Abril	2023-04-16T00:00:00	2024-11-08T12:00:00	1	Precipitación	0
88272	7	Sololá	704	Santa Lucía Utatlán 	7	Santa Rita 	4	Abril	2023-04-16T00:00:00	2024-11-08T12:00:00	8	Radiación solar	701
88273	7	Sololá	704	Santa Lucía Utatlán 	7	Santa Rita 	4	Abril	2023-04-16T00:00:00	2024-11-08T13:00:00	2	Temperatura media	24.6
88274	7	Sololá	704	Santa Lucía Utatlán 	7	Santa Rita 	4	Abril	2023-04-16T00:00:00	2024-11-08T13:00:00	4	Temperatura máxima	26
88275	7	Sololá	704	Santa Lucía Utatlán 	7	Santa Rita 	4	Abril	2023-04-16T00:00:00	2024-11-08T13:00:00	3	Temperatura mínima	24.6
88276	7	Sololá	704	Santa Lucía Utatlán 	7	Santa Rita 	4	Abril	2023-04-16T00:00:00	2024-11-08T13:00:00	5	Humedad	65
88277	7	Sololá	704	Santa Lucía Utatlán 	7	Santa Rita 	4	Abril	2023-04-16T00:00:00	2024-11-08T13:00:00	6	Velocidad del viento	4.8
88278	7	Sololá	704	Santa Lucía Utatlán 	7	Santa Rita 	4	Abril	2023-04-16T00:00:00	2024-11-08T13:00:00	7	Dirección del viento	4.83
88279	7	Sololá	704	Santa Lucía Utatlán 	7	Santa Rita 	4	Abril	2023-04-16T00:00:00	2024-11-08T13:00:00	1	Precipitación	0
88280	7	Sololá	704	Santa Lucía Utatlán 	7	Santa Rita 	4	Abril	2023-04-16T00:00:00	2024-11-08T13:00:00	8	Radiación solar	273
88281	7	Sololá	704	Santa Lucía Utatlán 	7	Santa Rita 	4	Abril	2023-04-16T00:00:00	2024-11-08T14:00:00	2	Temperatura media	24.8
88282	7	Sololá	704	Santa Lucía Utatlán 	7	Santa Rita 	4	Abril	2023-04-16T00:00:00	2024-11-08T14:00:00	4	Temperatura máxima	25.7
88283	7	Sololá	704	Santa Lucía Utatlán 	7	Santa Rita 	4	Abril	2023-04-16T00:00:00	2024-11-08T14:00:00	3	Temperatura mínima	24.6
88284	7	Sololá	704	Santa Lucía Utatlán 	7	Santa Rita 	4	Abril	2023-04-16T00:00:00	2024-11-08T14:00:00	5	Humedad	67
88285	7	Sololá	704	Santa Lucía Utatlán 	7	Santa Rita 	4	Abril	2023-04-16T00:00:00	2024-11-08T14:00:00	6	Velocidad del viento	6.4
88286	7	Sololá	704	Santa Lucía Utatlán 	7	Santa Rita 	4	Abril	2023-04-16T00:00:00	2024-11-08T14:00:00	7	Dirección del viento	6.44
88287	7	Sololá	704	Santa Lucía Utatlán 	7	Santa Rita 	4	Abril	2023-04-16T00:00:00	2024-11-08T14:00:00	1	Precipitación	0
88288	7	Sololá	704	Santa Lucía Utatlán 	7	Santa Rita 	4	Abril	2023-04-16T00:00:00	2024-11-08T14:00:00	8	Radiación solar	374
88289	7	Sololá	704	Santa Lucía Utatlán 	7	Santa Rita 	4	Abril	2023-04-16T00:00:00	2024-11-08T15:00:00	2	Temperatura media	23.8
88290	7	Sololá	704	Santa Lucía Utatlán 	7	Santa Rita 	4	Abril	2023-04-16T00:00:00	2024-11-08T15:00:00	4	Temperatura máxima	24.8
88291	7	Sololá	704	Santa Lucía Utatlán 	7	Santa Rita 	4	Abril	2023-04-16T00:00:00	2024-11-08T15:00:00	3	Temperatura mínima	23.4
88292	7	Sololá	704	Santa Lucía Utatlán 	7	Santa Rita 	4	Abril	2023-04-16T00:00:00	2024-11-08T15:00:00	5	Humedad	75
88293	7	Sololá	704	Santa Lucía Utatlán 	7	Santa Rita 	4	Abril	2023-04-16T00:00:00	2024-11-08T15:00:00	6	Velocidad del viento	4.8
88294	7	Sololá	704	Santa Lucía Utatlán 	7	Santa Rita 	4	Abril	2023-04-16T00:00:00	2024-11-08T15:00:00	7	Dirección del viento	4.83
88295	7	Sololá	704	Santa Lucía Utatlán 	7	Santa Rita 	4	Abril	2023-04-16T00:00:00	2024-11-08T15:00:00	1	Precipitación	0
88296	7	Sololá	704	Santa Lucía Utatlán 	7	Santa Rita 	4	Abril	2023-04-16T00:00:00	2024-11-08T15:00:00	8	Radiación solar	152
88297	7	Sololá	704	Santa Lucía Utatlán 	7	Santa Rita 	4	Abril	2023-04-16T00:00:00	2024-11-08T16:00:00	2	Temperatura media	23.2
88298	7	Sololá	704	Santa Lucía Utatlán 	7	Santa Rita 	4	Abril	2023-04-16T00:00:00	2024-11-08T16:00:00	4	Temperatura máxima	23.8
88299	7	Sololá	704	Santa Lucía Utatlán 	7	Santa Rita 	4	Abril	2023-04-16T00:00:00	2024-11-08T16:00:00	3	Temperatura mínima	23.1
88300	7	Sololá	704	Santa Lucía Utatlán 	7	Santa Rita 	4	Abril	2023-04-16T00:00:00	2024-11-08T16:00:00	5	Humedad	79
88301	7	Sololá	704	Santa Lucía Utatlán 	7	Santa Rita 	4	Abril	2023-04-16T00:00:00	2024-11-08T16:00:00	6	Velocidad del viento	6.4
88302	7	Sololá	704	Santa Lucía Utatlán 	7	Santa Rita 	4	Abril	2023-04-16T00:00:00	2024-11-08T16:00:00	7	Dirección del viento	6.44
88303	7	Sololá	704	Santa Lucía Utatlán 	7	Santa Rita 	4	Abril	2023-04-16T00:00:00	2024-11-08T16:00:00	1	Precipitación	0
88304	7	Sololá	704	Santa Lucía Utatlán 	7	Santa Rita 	4	Abril	2023-04-16T00:00:00	2024-11-08T16:00:00	8	Radiación solar	195
88305	7	Sololá	704	Santa Lucía Utatlán 	7	Santa Rita 	4	Abril	2023-04-16T00:00:00	2024-11-08T17:00:00	2	Temperatura media	22.1
88306	7	Sololá	704	Santa Lucía Utatlán 	7	Santa Rita 	4	Abril	2023-04-16T00:00:00	2024-11-08T17:00:00	4	Temperatura máxima	23.3
88307	7	Sololá	704	Santa Lucía Utatlán 	7	Santa Rita 	4	Abril	2023-04-16T00:00:00	2024-11-08T17:00:00	3	Temperatura mínima	22.1
88308	7	Sololá	704	Santa Lucía Utatlán 	7	Santa Rita 	4	Abril	2023-04-16T00:00:00	2024-11-08T17:00:00	5	Humedad	85
88309	7	Sololá	704	Santa Lucía Utatlán 	7	Santa Rita 	4	Abril	2023-04-16T00:00:00	2024-11-08T17:00:00	6	Velocidad del viento	6.4
88310	7	Sololá	704	Santa Lucía Utatlán 	7	Santa Rita 	4	Abril	2023-04-16T00:00:00	2024-11-08T17:00:00	7	Dirección del viento	6.44
88311	7	Sololá	704	Santa Lucía Utatlán 	7	Santa Rita 	4	Abril	2023-04-16T00:00:00	2024-11-08T17:00:00	1	Precipitación	0
88312	7	Sololá	704	Santa Lucía Utatlán 	7	Santa Rita 	4	Abril	2023-04-16T00:00:00	2024-11-08T17:00:00	8	Radiación solar	88
88313	7	Sololá	704	Santa Lucía Utatlán 	7	Santa Rita 	4	Abril	2023-04-16T00:00:00	2024-11-08T18:00:00	2	Temperatura media	21.4
88314	7	Sololá	704	Santa Lucía Utatlán 	7	Santa Rita 	4	Abril	2023-04-16T00:00:00	2024-11-08T18:00:00	4	Temperatura máxima	22.2
88315	7	Sololá	704	Santa Lucía Utatlán 	7	Santa Rita 	4	Abril	2023-04-16T00:00:00	2024-11-08T18:00:00	3	Temperatura mínima	21.3
88316	7	Sololá	704	Santa Lucía Utatlán 	7	Santa Rita 	4	Abril	2023-04-16T00:00:00	2024-11-08T18:00:00	5	Humedad	88
88317	7	Sololá	704	Santa Lucía Utatlán 	7	Santa Rita 	4	Abril	2023-04-16T00:00:00	2024-11-08T18:00:00	6	Velocidad del viento	3.2
88318	7	Sololá	704	Santa Lucía Utatlán 	7	Santa Rita 	4	Abril	2023-04-16T00:00:00	2024-11-08T18:00:00	7	Dirección del viento	3.22
88319	7	Sololá	704	Santa Lucía Utatlán 	7	Santa Rita 	4	Abril	2023-04-16T00:00:00	2024-11-08T18:00:00	1	Precipitación	0
88320	7	Sololá	704	Santa Lucía Utatlán 	7	Santa Rita 	4	Abril	2023-04-16T00:00:00	2024-11-08T18:00:00	8	Radiación solar	14
88321	7	Sololá	704	Santa Lucía Utatlán 	7	Santa Rita 	4	Abril	2023-04-16T00:00:00	2024-11-08T19:00:00	2	Temperatura media	21.2
88322	7	Sololá	704	Santa Lucía Utatlán 	7	Santa Rita 	4	Abril	2023-04-16T00:00:00	2024-11-08T19:00:00	4	Temperatura máxima	22.3
88323	7	Sololá	704	Santa Lucía Utatlán 	7	Santa Rita 	4	Abril	2023-04-16T00:00:00	2024-11-08T19:00:00	3	Temperatura mínima	21.2
88324	7	Sololá	704	Santa Lucía Utatlán 	7	Santa Rita 	4	Abril	2023-04-16T00:00:00	2024-11-08T19:00:00	5	Humedad	76
88325	7	Sololá	704	Santa Lucía Utatlán 	7	Santa Rita 	4	Abril	2023-04-16T00:00:00	2024-11-08T19:00:00	6	Velocidad del viento	4.8
88326	7	Sololá	704	Santa Lucía Utatlán 	7	Santa Rita 	4	Abril	2023-04-16T00:00:00	2024-11-08T19:00:00	7	Dirección del viento	4.83
88327	7	Sololá	704	Santa Lucía Utatlán 	7	Santa Rita 	4	Abril	2023-04-16T00:00:00	2024-11-08T19:00:00	1	Precipitación	0
88328	7	Sololá	704	Santa Lucía Utatlán 	7	Santa Rita 	4	Abril	2023-04-16T00:00:00	2024-11-08T19:00:00	8	Radiación solar	0
88329	7	Sololá	704	Santa Lucía Utatlán 	7	Santa Rita 	4	Abril	2023-04-16T00:00:00	2024-11-08T20:00:00	2	Temperatura media	20.9
88330	7	Sololá	704	Santa Lucía Utatlán 	7	Santa Rita 	4	Abril	2023-04-16T00:00:00	2024-11-08T20:00:00	4	Temperatura máxima	21.2
88331	7	Sololá	704	Santa Lucía Utatlán 	7	Santa Rita 	4	Abril	2023-04-16T00:00:00	2024-11-08T20:00:00	3	Temperatura mínima	20.5
88332	7	Sololá	704	Santa Lucía Utatlán 	7	Santa Rita 	4	Abril	2023-04-16T00:00:00	2024-11-08T20:00:00	5	Humedad	71
88333	7	Sololá	704	Santa Lucía Utatlán 	7	Santa Rita 	4	Abril	2023-04-16T00:00:00	2024-11-08T20:00:00	6	Velocidad del viento	3.2
88334	7	Sololá	704	Santa Lucía Utatlán 	7	Santa Rita 	4	Abril	2023-04-16T00:00:00	2024-11-08T20:00:00	7	Dirección del viento	3.22
88335	7	Sololá	704	Santa Lucía Utatlán 	7	Santa Rita 	4	Abril	2023-04-16T00:00:00	2024-11-08T20:00:00	1	Precipitación	0
88336	7	Sololá	704	Santa Lucía Utatlán 	7	Santa Rita 	4	Abril	2023-04-16T00:00:00	2024-11-08T20:00:00	8	Radiación solar	0
88337	7	Sololá	704	Santa Lucía Utatlán 	7	Santa Rita 	4	Abril	2023-04-16T00:00:00	2024-11-08T21:00:00	2	Temperatura media	18.8
88338	7	Sololá	704	Santa Lucía Utatlán 	7	Santa Rita 	4	Abril	2023-04-16T00:00:00	2024-11-08T21:00:00	4	Temperatura máxima	20.9
88339	7	Sololá	704	Santa Lucía Utatlán 	7	Santa Rita 	4	Abril	2023-04-16T00:00:00	2024-11-08T21:00:00	3	Temperatura mínima	18.8
88340	7	Sololá	704	Santa Lucía Utatlán 	7	Santa Rita 	4	Abril	2023-04-16T00:00:00	2024-11-08T21:00:00	5	Humedad	72
88341	7	Sololá	704	Santa Lucía Utatlán 	7	Santa Rita 	4	Abril	2023-04-16T00:00:00	2024-11-08T21:00:00	6	Velocidad del viento	1.6
88342	7	Sololá	704	Santa Lucía Utatlán 	7	Santa Rita 	4	Abril	2023-04-16T00:00:00	2024-11-08T21:00:00	7	Dirección del viento	1.61
88343	7	Sololá	704	Santa Lucía Utatlán 	7	Santa Rita 	4	Abril	2023-04-16T00:00:00	2024-11-08T21:00:00	1	Precipitación	0
88344	7	Sololá	704	Santa Lucía Utatlán 	7	Santa Rita 	4	Abril	2023-04-16T00:00:00	2024-11-08T21:00:00	8	Radiación solar	0
88345	7	Sololá	704	Santa Lucía Utatlán 	7	Santa Rita 	4	Abril	2023-04-16T00:00:00	2024-11-08T22:00:00	2	Temperatura media	18.2
88346	7	Sololá	704	Santa Lucía Utatlán 	7	Santa Rita 	4	Abril	2023-04-16T00:00:00	2024-11-08T22:00:00	4	Temperatura máxima	18.8
88347	7	Sololá	704	Santa Lucía Utatlán 	7	Santa Rita 	4	Abril	2023-04-16T00:00:00	2024-11-08T22:00:00	3	Temperatura mínima	17.9
88348	7	Sololá	704	Santa Lucía Utatlán 	7	Santa Rita 	4	Abril	2023-04-16T00:00:00	2024-11-08T22:00:00	5	Humedad	63
88349	7	Sololá	704	Santa Lucía Utatlán 	7	Santa Rita 	4	Abril	2023-04-16T00:00:00	2024-11-08T22:00:00	6	Velocidad del viento	3.2
88350	7	Sololá	704	Santa Lucía Utatlán 	7	Santa Rita 	4	Abril	2023-04-16T00:00:00	2024-11-08T22:00:00	7	Dirección del viento	3.22
88351	7	Sololá	704	Santa Lucía Utatlán 	7	Santa Rita 	4	Abril	2023-04-16T00:00:00	2024-11-08T22:00:00	1	Precipitación	0
88352	7	Sololá	704	Santa Lucía Utatlán 	7	Santa Rita 	4	Abril	2023-04-16T00:00:00	2024-11-08T22:00:00	8	Radiación solar	0
88353	7	Sololá	704	Santa Lucía Utatlán 	7	Santa Rita 	4	Abril	2023-04-16T00:00:00	2024-11-08T23:00:00	2	Temperatura media	17.3
88354	7	Sololá	704	Santa Lucía Utatlán 	7	Santa Rita 	4	Abril	2023-04-16T00:00:00	2024-11-08T23:00:00	4	Temperatura máxima	18.2
88355	7	Sololá	704	Santa Lucía Utatlán 	7	Santa Rita 	4	Abril	2023-04-16T00:00:00	2024-11-08T23:00:00	3	Temperatura mínima	17.3
88356	7	Sololá	704	Santa Lucía Utatlán 	7	Santa Rita 	4	Abril	2023-04-16T00:00:00	2024-11-08T23:00:00	5	Humedad	70
88357	7	Sololá	704	Santa Lucía Utatlán 	7	Santa Rita 	4	Abril	2023-04-16T00:00:00	2024-11-08T23:00:00	6	Velocidad del viento	4.8
88358	7	Sololá	704	Santa Lucía Utatlán 	7	Santa Rita 	4	Abril	2023-04-16T00:00:00	2024-11-08T23:00:00	7	Dirección del viento	4.83
88359	7	Sololá	704	Santa Lucía Utatlán 	7	Santa Rita 	4	Abril	2023-04-16T00:00:00	2024-11-08T23:00:00	1	Precipitación	0
88360	7	Sololá	704	Santa Lucía Utatlán 	7	Santa Rita 	4	Abril	2023-04-16T00:00:00	2024-11-08T23:00:00	8	Radiación solar	0
88361	7	Sololá	704	Santa Lucía Utatlán 	7	Santa Rita 	4	Abril	2023-04-17T00:00:00	2024-11-08T00:00:00	2	Temperatura media	19.1
88362	7	Sololá	704	Santa Lucía Utatlán 	7	Santa Rita 	4	Abril	2023-04-17T00:00:00	2024-11-08T00:00:00	4	Temperatura máxima	19.1
88363	7	Sololá	704	Santa Lucía Utatlán 	7	Santa Rita 	4	Abril	2023-04-17T00:00:00	2024-11-08T00:00:00	3	Temperatura mínima	17.2
88364	7	Sololá	704	Santa Lucía Utatlán 	7	Santa Rita 	4	Abril	2023-04-17T00:00:00	2024-11-08T00:00:00	5	Humedad	71
88365	7	Sololá	704	Santa Lucía Utatlán 	7	Santa Rita 	4	Abril	2023-04-17T00:00:00	2024-11-08T00:00:00	6	Velocidad del viento	4.8
88366	7	Sololá	704	Santa Lucía Utatlán 	7	Santa Rita 	4	Abril	2023-04-17T00:00:00	2024-11-08T00:00:00	7	Dirección del viento	4.83
88367	7	Sololá	704	Santa Lucía Utatlán 	7	Santa Rita 	4	Abril	2023-04-17T00:00:00	2024-11-08T00:00:00	1	Precipitación	0
88368	7	Sololá	704	Santa Lucía Utatlán 	7	Santa Rita 	4	Abril	2023-04-17T00:00:00	2024-11-08T00:00:00	8	Radiación solar	0
88369	7	Sololá	704	Santa Lucía Utatlán 	7	Santa Rita 	4	Abril	2023-04-17T00:00:00	2024-11-08T01:00:00	2	Temperatura media	16.6
88370	7	Sololá	704	Santa Lucía Utatlán 	7	Santa Rita 	4	Abril	2023-04-17T00:00:00	2024-11-08T01:00:00	4	Temperatura máxima	19.1
88371	7	Sololá	704	Santa Lucía Utatlán 	7	Santa Rita 	4	Abril	2023-04-17T00:00:00	2024-11-08T01:00:00	3	Temperatura mínima	16.6
88372	7	Sololá	704	Santa Lucía Utatlán 	7	Santa Rita 	4	Abril	2023-04-17T00:00:00	2024-11-08T01:00:00	5	Humedad	78
88373	7	Sololá	704	Santa Lucía Utatlán 	7	Santa Rita 	4	Abril	2023-04-17T00:00:00	2024-11-08T01:00:00	6	Velocidad del viento	1.6
88374	7	Sololá	704	Santa Lucía Utatlán 	7	Santa Rita 	4	Abril	2023-04-17T00:00:00	2024-11-08T01:00:00	7	Dirección del viento	1.61
88375	7	Sololá	704	Santa Lucía Utatlán 	7	Santa Rita 	4	Abril	2023-04-17T00:00:00	2024-11-08T01:00:00	1	Precipitación	0
88376	7	Sololá	704	Santa Lucía Utatlán 	7	Santa Rita 	4	Abril	2023-04-17T00:00:00	2024-11-08T01:00:00	8	Radiación solar	0
88377	7	Sololá	704	Santa Lucía Utatlán 	7	Santa Rita 	4	Abril	2023-04-17T00:00:00	2024-11-08T02:00:00	2	Temperatura media	16.7
88378	7	Sololá	704	Santa Lucía Utatlán 	7	Santa Rita 	4	Abril	2023-04-17T00:00:00	2024-11-08T02:00:00	4	Temperatura máxima	16.7
88379	7	Sololá	704	Santa Lucía Utatlán 	7	Santa Rita 	4	Abril	2023-04-17T00:00:00	2024-11-08T02:00:00	3	Temperatura mínima	16.3
88380	7	Sololá	704	Santa Lucía Utatlán 	7	Santa Rita 	4	Abril	2023-04-17T00:00:00	2024-11-08T02:00:00	5	Humedad	78
88381	7	Sololá	704	Santa Lucía Utatlán 	7	Santa Rita 	4	Abril	2023-04-17T00:00:00	2024-11-08T02:00:00	6	Velocidad del viento	3.2
88382	7	Sololá	704	Santa Lucía Utatlán 	7	Santa Rita 	4	Abril	2023-04-17T00:00:00	2024-11-08T02:00:00	7	Dirección del viento	3.22
88383	7	Sololá	704	Santa Lucía Utatlán 	7	Santa Rita 	4	Abril	2023-04-17T00:00:00	2024-11-08T02:00:00	1	Precipitación	0
88384	7	Sololá	704	Santa Lucía Utatlán 	7	Santa Rita 	4	Abril	2023-04-17T00:00:00	2024-11-08T02:00:00	8	Radiación solar	0
88385	7	Sololá	704	Santa Lucía Utatlán 	7	Santa Rita 	4	Abril	2023-04-17T00:00:00	2024-11-08T03:00:00	2	Temperatura media	16.2
88386	7	Sololá	704	Santa Lucía Utatlán 	7	Santa Rita 	4	Abril	2023-04-17T00:00:00	2024-11-08T03:00:00	4	Temperatura máxima	17.1
88387	7	Sololá	704	Santa Lucía Utatlán 	7	Santa Rita 	4	Abril	2023-04-17T00:00:00	2024-11-08T03:00:00	3	Temperatura mínima	16.1
88388	7	Sololá	704	Santa Lucía Utatlán 	7	Santa Rita 	4	Abril	2023-04-17T00:00:00	2024-11-08T03:00:00	5	Humedad	78
88389	7	Sololá	704	Santa Lucía Utatlán 	7	Santa Rita 	4	Abril	2023-04-17T00:00:00	2024-11-08T03:00:00	6	Velocidad del viento	3.2
88390	7	Sololá	704	Santa Lucía Utatlán 	7	Santa Rita 	4	Abril	2023-04-17T00:00:00	2024-11-08T03:00:00	7	Dirección del viento	3.22
88391	7	Sololá	704	Santa Lucía Utatlán 	7	Santa Rita 	4	Abril	2023-04-17T00:00:00	2024-11-08T03:00:00	1	Precipitación	0
88392	7	Sololá	704	Santa Lucía Utatlán 	7	Santa Rita 	4	Abril	2023-04-17T00:00:00	2024-11-08T03:00:00	8	Radiación solar	0
88393	7	Sololá	704	Santa Lucía Utatlán 	7	Santa Rita 	4	Abril	2023-04-17T00:00:00	2024-11-08T04:00:00	2	Temperatura media	18.9
88394	7	Sololá	704	Santa Lucía Utatlán 	7	Santa Rita 	4	Abril	2023-04-17T00:00:00	2024-11-08T04:00:00	4	Temperatura máxima	19.1
88395	7	Sololá	704	Santa Lucía Utatlán 	7	Santa Rita 	4	Abril	2023-04-17T00:00:00	2024-11-08T04:00:00	3	Temperatura mínima	16.2
88396	7	Sololá	704	Santa Lucía Utatlán 	7	Santa Rita 	4	Abril	2023-04-17T00:00:00	2024-11-08T04:00:00	5	Humedad	71
88397	7	Sololá	704	Santa Lucía Utatlán 	7	Santa Rita 	4	Abril	2023-04-17T00:00:00	2024-11-08T04:00:00	6	Velocidad del viento	8
88398	7	Sololá	704	Santa Lucía Utatlán 	7	Santa Rita 	4	Abril	2023-04-17T00:00:00	2024-11-08T04:00:00	7	Dirección del viento	8.05
88399	7	Sololá	704	Santa Lucía Utatlán 	7	Santa Rita 	4	Abril	2023-04-17T00:00:00	2024-11-08T04:00:00	1	Precipitación	0
88400	7	Sololá	704	Santa Lucía Utatlán 	7	Santa Rita 	4	Abril	2023-04-17T00:00:00	2024-11-08T04:00:00	8	Radiación solar	0
88401	7	Sololá	704	Santa Lucía Utatlán 	7	Santa Rita 	4	Abril	2023-04-17T00:00:00	2024-11-08T05:00:00	2	Temperatura media	18.6
88402	7	Sololá	704	Santa Lucía Utatlán 	7	Santa Rita 	4	Abril	2023-04-17T00:00:00	2024-11-08T05:00:00	4	Temperatura máxima	19.1
88403	7	Sololá	704	Santa Lucía Utatlán 	7	Santa Rita 	4	Abril	2023-04-17T00:00:00	2024-11-08T05:00:00	3	Temperatura mínima	18.1
88404	7	Sololá	704	Santa Lucía Utatlán 	7	Santa Rita 	4	Abril	2023-04-17T00:00:00	2024-11-08T05:00:00	5	Humedad	70
88405	7	Sololá	704	Santa Lucía Utatlán 	7	Santa Rita 	4	Abril	2023-04-17T00:00:00	2024-11-08T05:00:00	6	Velocidad del viento	6.4
88406	7	Sololá	704	Santa Lucía Utatlán 	7	Santa Rita 	4	Abril	2023-04-17T00:00:00	2024-11-08T05:00:00	7	Dirección del viento	6.44
88407	7	Sololá	704	Santa Lucía Utatlán 	7	Santa Rita 	4	Abril	2023-04-17T00:00:00	2024-11-08T05:00:00	1	Precipitación	0
88408	7	Sololá	704	Santa Lucía Utatlán 	7	Santa Rita 	4	Abril	2023-04-17T00:00:00	2024-11-08T05:00:00	8	Radiación solar	0
88409	7	Sololá	704	Santa Lucía Utatlán 	7	Santa Rita 	4	Abril	2023-04-17T00:00:00	2024-11-08T06:00:00	2	Temperatura media	19.1
88410	7	Sololá	704	Santa Lucía Utatlán 	7	Santa Rita 	4	Abril	2023-04-17T00:00:00	2024-11-08T06:00:00	4	Temperatura máxima	19.4
88411	7	Sololá	704	Santa Lucía Utatlán 	7	Santa Rita 	4	Abril	2023-04-17T00:00:00	2024-11-08T06:00:00	3	Temperatura mínima	18.6
88412	7	Sololá	704	Santa Lucía Utatlán 	7	Santa Rita 	4	Abril	2023-04-17T00:00:00	2024-11-08T06:00:00	5	Humedad	70
88413	7	Sololá	704	Santa Lucía Utatlán 	7	Santa Rita 	4	Abril	2023-04-17T00:00:00	2024-11-08T06:00:00	6	Velocidad del viento	6.4
88414	7	Sololá	704	Santa Lucía Utatlán 	7	Santa Rita 	4	Abril	2023-04-17T00:00:00	2024-11-08T06:00:00	7	Dirección del viento	6.44
88415	7	Sololá	704	Santa Lucía Utatlán 	7	Santa Rita 	4	Abril	2023-04-17T00:00:00	2024-11-08T06:00:00	1	Precipitación	0
88416	7	Sololá	704	Santa Lucía Utatlán 	7	Santa Rita 	4	Abril	2023-04-17T00:00:00	2024-11-08T06:00:00	8	Radiación solar	0
88417	7	Sololá	704	Santa Lucía Utatlán 	7	Santa Rita 	4	Abril	2023-04-17T00:00:00	2024-11-08T07:00:00	2	Temperatura media	19
88418	7	Sololá	704	Santa Lucía Utatlán 	7	Santa Rita 	4	Abril	2023-04-17T00:00:00	2024-11-08T07:00:00	4	Temperatura máxima	19.2
88419	7	Sololá	704	Santa Lucía Utatlán 	7	Santa Rita 	4	Abril	2023-04-17T00:00:00	2024-11-08T07:00:00	3	Temperatura mínima	18.9
88420	7	Sololá	704	Santa Lucía Utatlán 	7	Santa Rita 	4	Abril	2023-04-17T00:00:00	2024-11-08T07:00:00	5	Humedad	71
88421	7	Sololá	704	Santa Lucía Utatlán 	7	Santa Rita 	4	Abril	2023-04-17T00:00:00	2024-11-08T07:00:00	6	Velocidad del viento	8
88422	7	Sololá	704	Santa Lucía Utatlán 	7	Santa Rita 	4	Abril	2023-04-17T00:00:00	2024-11-08T07:00:00	7	Dirección del viento	8.05
88423	7	Sololá	704	Santa Lucía Utatlán 	7	Santa Rita 	4	Abril	2023-04-17T00:00:00	2024-11-08T07:00:00	1	Precipitación	0
88424	7	Sololá	704	Santa Lucía Utatlán 	7	Santa Rita 	4	Abril	2023-04-17T00:00:00	2024-11-08T07:00:00	8	Radiación solar	1
88425	7	Sololá	704	Santa Lucía Utatlán 	7	Santa Rita 	4	Abril	2023-04-17T00:00:00	2024-11-08T08:00:00	2	Temperatura media	19.9
88426	7	Sololá	704	Santa Lucía Utatlán 	7	Santa Rita 	4	Abril	2023-04-17T00:00:00	2024-11-08T08:00:00	4	Temperatura máxima	19.9
88427	7	Sololá	704	Santa Lucía Utatlán 	7	Santa Rita 	4	Abril	2023-04-17T00:00:00	2024-11-08T08:00:00	3	Temperatura mínima	18.9
88428	7	Sololá	704	Santa Lucía Utatlán 	7	Santa Rita 	4	Abril	2023-04-17T00:00:00	2024-11-08T08:00:00	5	Humedad	70
88429	7	Sololá	704	Santa Lucía Utatlán 	7	Santa Rita 	4	Abril	2023-04-17T00:00:00	2024-11-08T08:00:00	6	Velocidad del viento	12.9
88430	7	Sololá	704	Santa Lucía Utatlán 	7	Santa Rita 	4	Abril	2023-04-17T00:00:00	2024-11-08T08:00:00	7	Dirección del viento	12.87
88431	7	Sololá	704	Santa Lucía Utatlán 	7	Santa Rita 	4	Abril	2023-04-17T00:00:00	2024-11-08T08:00:00	1	Precipitación	0
88432	7	Sololá	704	Santa Lucía Utatlán 	7	Santa Rita 	4	Abril	2023-04-17T00:00:00	2024-11-08T08:00:00	8	Radiación solar	102
88433	7	Sololá	704	Santa Lucía Utatlán 	7	Santa Rita 	4	Abril	2023-04-17T00:00:00	2024-11-08T09:00:00	2	Temperatura media	20.9
88434	7	Sololá	704	Santa Lucía Utatlán 	7	Santa Rita 	4	Abril	2023-04-17T00:00:00	2024-11-08T09:00:00	4	Temperatura máxima	20.9
88435	7	Sololá	704	Santa Lucía Utatlán 	7	Santa Rita 	4	Abril	2023-04-17T00:00:00	2024-11-08T09:00:00	3	Temperatura mínima	19.8
88436	7	Sololá	704	Santa Lucía Utatlán 	7	Santa Rita 	4	Abril	2023-04-17T00:00:00	2024-11-08T09:00:00	5	Humedad	66
88437	7	Sololá	704	Santa Lucía Utatlán 	7	Santa Rita 	4	Abril	2023-04-17T00:00:00	2024-11-08T09:00:00	6	Velocidad del viento	14.5
88438	7	Sololá	704	Santa Lucía Utatlán 	7	Santa Rita 	4	Abril	2023-04-17T00:00:00	2024-11-08T09:00:00	7	Dirección del viento	14.48
88439	7	Sololá	704	Santa Lucía Utatlán 	7	Santa Rita 	4	Abril	2023-04-17T00:00:00	2024-11-08T09:00:00	1	Precipitación	0
88440	7	Sololá	704	Santa Lucía Utatlán 	7	Santa Rita 	4	Abril	2023-04-17T00:00:00	2024-11-08T09:00:00	8	Radiación solar	331
88441	7	Sololá	704	Santa Lucía Utatlán 	7	Santa Rita 	4	Abril	2023-04-17T00:00:00	2024-11-08T10:00:00	2	Temperatura media	22.4
88442	7	Sololá	704	Santa Lucía Utatlán 	7	Santa Rita 	4	Abril	2023-04-17T00:00:00	2024-11-08T10:00:00	4	Temperatura máxima	22.4
88443	7	Sololá	704	Santa Lucía Utatlán 	7	Santa Rita 	4	Abril	2023-04-17T00:00:00	2024-11-08T10:00:00	3	Temperatura mínima	20.7
88444	7	Sololá	704	Santa Lucía Utatlán 	7	Santa Rita 	4	Abril	2023-04-17T00:00:00	2024-11-08T10:00:00	5	Humedad	54
88445	7	Sololá	704	Santa Lucía Utatlán 	7	Santa Rita 	4	Abril	2023-04-17T00:00:00	2024-11-08T10:00:00	6	Velocidad del viento	14.5
88446	7	Sololá	704	Santa Lucía Utatlán 	7	Santa Rita 	4	Abril	2023-04-17T00:00:00	2024-11-08T10:00:00	7	Dirección del viento	14.48
88447	7	Sololá	704	Santa Lucía Utatlán 	7	Santa Rita 	4	Abril	2023-04-17T00:00:00	2024-11-08T10:00:00	1	Precipitación	0
88448	7	Sololá	704	Santa Lucía Utatlán 	7	Santa Rita 	4	Abril	2023-04-17T00:00:00	2024-11-08T10:00:00	8	Radiación solar	617
88449	7	Sololá	704	Santa Lucía Utatlán 	7	Santa Rita 	4	Abril	2023-04-17T00:00:00	2024-11-08T11:00:00	2	Temperatura media	24.2
88450	7	Sololá	704	Santa Lucía Utatlán 	7	Santa Rita 	4	Abril	2023-04-17T00:00:00	2024-11-08T11:00:00	4	Temperatura máxima	24.2
88451	7	Sololá	704	Santa Lucía Utatlán 	7	Santa Rita 	4	Abril	2023-04-17T00:00:00	2024-11-08T11:00:00	3	Temperatura mínima	22.4
88452	7	Sololá	704	Santa Lucía Utatlán 	7	Santa Rita 	4	Abril	2023-04-17T00:00:00	2024-11-08T11:00:00	5	Humedad	47
88453	7	Sololá	704	Santa Lucía Utatlán 	7	Santa Rita 	4	Abril	2023-04-17T00:00:00	2024-11-08T11:00:00	6	Velocidad del viento	16.1
88454	7	Sololá	704	Santa Lucía Utatlán 	7	Santa Rita 	4	Abril	2023-04-17T00:00:00	2024-11-08T11:00:00	7	Dirección del viento	16.09
88455	7	Sololá	704	Santa Lucía Utatlán 	7	Santa Rita 	4	Abril	2023-04-17T00:00:00	2024-11-08T11:00:00	1	Precipitación	0
88456	7	Sololá	704	Santa Lucía Utatlán 	7	Santa Rita 	4	Abril	2023-04-17T00:00:00	2024-11-08T11:00:00	8	Radiación solar	833
88457	7	Sololá	704	Santa Lucía Utatlán 	7	Santa Rita 	4	Abril	2023-04-17T00:00:00	2024-11-08T12:00:00	2	Temperatura media	25
88458	7	Sololá	704	Santa Lucía Utatlán 	7	Santa Rita 	4	Abril	2023-04-17T00:00:00	2024-11-08T12:00:00	4	Temperatura máxima	25.1
88459	7	Sololá	704	Santa Lucía Utatlán 	7	Santa Rita 	4	Abril	2023-04-17T00:00:00	2024-11-08T12:00:00	3	Temperatura mínima	23.8
88460	7	Sololá	704	Santa Lucía Utatlán 	7	Santa Rita 	4	Abril	2023-04-17T00:00:00	2024-11-08T12:00:00	5	Humedad	45
88461	7	Sololá	704	Santa Lucía Utatlán 	7	Santa Rita 	4	Abril	2023-04-17T00:00:00	2024-11-08T12:00:00	6	Velocidad del viento	12.9
88462	7	Sololá	704	Santa Lucía Utatlán 	7	Santa Rita 	4	Abril	2023-04-17T00:00:00	2024-11-08T12:00:00	7	Dirección del viento	12.87
88463	7	Sololá	704	Santa Lucía Utatlán 	7	Santa Rita 	4	Abril	2023-04-17T00:00:00	2024-11-08T12:00:00	1	Precipitación	0
88464	7	Sololá	704	Santa Lucía Utatlán 	7	Santa Rita 	4	Abril	2023-04-17T00:00:00	2024-11-08T12:00:00	8	Radiación solar	997
88465	7	Sololá	704	Santa Lucía Utatlán 	7	Santa Rita 	4	Abril	2023-04-17T00:00:00	2024-11-08T13:00:00	2	Temperatura media	26.8
88466	7	Sololá	704	Santa Lucía Utatlán 	7	Santa Rita 	4	Abril	2023-04-17T00:00:00	2024-11-08T13:00:00	4	Temperatura máxima	26.8
88467	7	Sololá	704	Santa Lucía Utatlán 	7	Santa Rita 	4	Abril	2023-04-17T00:00:00	2024-11-08T13:00:00	3	Temperatura mínima	24.7
88468	7	Sololá	704	Santa Lucía Utatlán 	7	Santa Rita 	4	Abril	2023-04-17T00:00:00	2024-11-08T13:00:00	5	Humedad	38
88469	7	Sololá	704	Santa Lucía Utatlán 	7	Santa Rita 	4	Abril	2023-04-17T00:00:00	2024-11-08T13:00:00	6	Velocidad del viento	8
88470	7	Sololá	704	Santa Lucía Utatlán 	7	Santa Rita 	4	Abril	2023-04-17T00:00:00	2024-11-08T13:00:00	7	Dirección del viento	8.05
88471	7	Sololá	704	Santa Lucía Utatlán 	7	Santa Rita 	4	Abril	2023-04-17T00:00:00	2024-11-08T13:00:00	1	Precipitación	0
88472	7	Sololá	704	Santa Lucía Utatlán 	7	Santa Rita 	4	Abril	2023-04-17T00:00:00	2024-11-08T13:00:00	8	Radiación solar	1036
88473	7	Sololá	704	Santa Lucía Utatlán 	7	Santa Rita 	4	Abril	2023-04-17T00:00:00	2024-11-08T14:00:00	2	Temperatura media	24.8
88474	7	Sololá	704	Santa Lucía Utatlán 	7	Santa Rita 	4	Abril	2023-04-17T00:00:00	2024-11-08T14:00:00	4	Temperatura máxima	26.7
88475	7	Sololá	704	Santa Lucía Utatlán 	7	Santa Rita 	4	Abril	2023-04-17T00:00:00	2024-11-08T14:00:00	3	Temperatura mínima	24.7
88476	7	Sololá	704	Santa Lucía Utatlán 	7	Santa Rita 	4	Abril	2023-04-17T00:00:00	2024-11-08T14:00:00	5	Humedad	46
88477	7	Sololá	704	Santa Lucía Utatlán 	7	Santa Rita 	4	Abril	2023-04-17T00:00:00	2024-11-08T14:00:00	6	Velocidad del viento	9.7
88478	7	Sololá	704	Santa Lucía Utatlán 	7	Santa Rita 	4	Abril	2023-04-17T00:00:00	2024-11-08T14:00:00	7	Dirección del viento	9.66
88479	7	Sololá	704	Santa Lucía Utatlán 	7	Santa Rita 	4	Abril	2023-04-17T00:00:00	2024-11-08T14:00:00	1	Precipitación	0
88480	7	Sololá	704	Santa Lucía Utatlán 	7	Santa Rita 	4	Abril	2023-04-17T00:00:00	2024-11-08T14:00:00	8	Radiación solar	330
88481	7	Sololá	704	Santa Lucía Utatlán 	7	Santa Rita 	4	Abril	2023-04-17T00:00:00	2024-11-08T15:00:00	2	Temperatura media	22.4
88482	7	Sololá	704	Santa Lucía Utatlán 	7	Santa Rita 	4	Abril	2023-04-17T00:00:00	2024-11-08T15:00:00	4	Temperatura máxima	24.8
88483	7	Sololá	704	Santa Lucía Utatlán 	7	Santa Rita 	4	Abril	2023-04-17T00:00:00	2024-11-08T15:00:00	3	Temperatura mínima	22.4
88484	7	Sololá	704	Santa Lucía Utatlán 	7	Santa Rita 	4	Abril	2023-04-17T00:00:00	2024-11-08T15:00:00	5	Humedad	77
88485	7	Sololá	704	Santa Lucía Utatlán 	7	Santa Rita 	4	Abril	2023-04-17T00:00:00	2024-11-08T15:00:00	6	Velocidad del viento	6.4
88486	7	Sololá	704	Santa Lucía Utatlán 	7	Santa Rita 	4	Abril	2023-04-17T00:00:00	2024-11-08T15:00:00	7	Dirección del viento	6.44
88487	7	Sololá	704	Santa Lucía Utatlán 	7	Santa Rita 	4	Abril	2023-04-17T00:00:00	2024-11-08T15:00:00	1	Precipitación	0
88488	7	Sololá	704	Santa Lucía Utatlán 	7	Santa Rita 	4	Abril	2023-04-17T00:00:00	2024-11-08T15:00:00	8	Radiación solar	93
88489	7	Sololá	704	Santa Lucía Utatlán 	7	Santa Rita 	4	Abril	2023-04-17T00:00:00	2024-11-08T16:00:00	2	Temperatura media	20.3
88490	7	Sololá	704	Santa Lucía Utatlán 	7	Santa Rita 	4	Abril	2023-04-17T00:00:00	2024-11-08T16:00:00	4	Temperatura máxima	22.5
88491	7	Sololá	704	Santa Lucía Utatlán 	7	Santa Rita 	4	Abril	2023-04-17T00:00:00	2024-11-08T16:00:00	3	Temperatura mínima	20.3
88492	7	Sololá	704	Santa Lucía Utatlán 	7	Santa Rita 	4	Abril	2023-04-17T00:00:00	2024-11-08T16:00:00	5	Humedad	83
88493	7	Sololá	704	Santa Lucía Utatlán 	7	Santa Rita 	4	Abril	2023-04-17T00:00:00	2024-11-08T16:00:00	6	Velocidad del viento	4.8
88494	7	Sololá	704	Santa Lucía Utatlán 	7	Santa Rita 	4	Abril	2023-04-17T00:00:00	2024-11-08T16:00:00	7	Dirección del viento	4.83
88495	7	Sololá	704	Santa Lucía Utatlán 	7	Santa Rita 	4	Abril	2023-04-17T00:00:00	2024-11-08T16:00:00	1	Precipitación	0
88496	7	Sololá	704	Santa Lucía Utatlán 	7	Santa Rita 	4	Abril	2023-04-17T00:00:00	2024-11-08T16:00:00	8	Radiación solar	43
88497	7	Sololá	704	Santa Lucía Utatlán 	7	Santa Rita 	4	Abril	2023-04-17T00:00:00	2024-11-08T17:00:00	2	Temperatura media	21.4
88498	7	Sololá	704	Santa Lucía Utatlán 	7	Santa Rita 	4	Abril	2023-04-17T00:00:00	2024-11-08T17:00:00	4	Temperatura máxima	21.8
88499	7	Sololá	704	Santa Lucía Utatlán 	7	Santa Rita 	4	Abril	2023-04-17T00:00:00	2024-11-08T17:00:00	3	Temperatura mínima	20.3
88500	7	Sololá	704	Santa Lucía Utatlán 	7	Santa Rita 	4	Abril	2023-04-17T00:00:00	2024-11-08T17:00:00	5	Humedad	72
88501	7	Sololá	704	Santa Lucía Utatlán 	7	Santa Rita 	4	Abril	2023-04-17T00:00:00	2024-11-08T17:00:00	6	Velocidad del viento	4.8
88502	7	Sololá	704	Santa Lucía Utatlán 	7	Santa Rita 	4	Abril	2023-04-17T00:00:00	2024-11-08T17:00:00	7	Dirección del viento	4.83
88503	7	Sololá	704	Santa Lucía Utatlán 	7	Santa Rita 	4	Abril	2023-04-17T00:00:00	2024-11-08T17:00:00	1	Precipitación	0
88504	7	Sololá	704	Santa Lucía Utatlán 	7	Santa Rita 	4	Abril	2023-04-17T00:00:00	2024-11-08T17:00:00	8	Radiación solar	244
88505	7	Sololá	704	Santa Lucía Utatlán 	7	Santa Rita 	4	Abril	2023-04-17T00:00:00	2024-11-08T18:00:00	2	Temperatura media	21.1
88506	7	Sololá	704	Santa Lucía Utatlán 	7	Santa Rita 	4	Abril	2023-04-17T00:00:00	2024-11-08T18:00:00	4	Temperatura máxima	21.4
88507	7	Sololá	704	Santa Lucía Utatlán 	7	Santa Rita 	4	Abril	2023-04-17T00:00:00	2024-11-08T18:00:00	3	Temperatura mínima	20.4
88508	7	Sololá	704	Santa Lucía Utatlán 	7	Santa Rita 	4	Abril	2023-04-17T00:00:00	2024-11-08T18:00:00	5	Humedad	78
88509	7	Sololá	704	Santa Lucía Utatlán 	7	Santa Rita 	4	Abril	2023-04-17T00:00:00	2024-11-08T18:00:00	6	Velocidad del viento	1.6
88510	7	Sololá	704	Santa Lucía Utatlán 	7	Santa Rita 	4	Abril	2023-04-17T00:00:00	2024-11-08T18:00:00	7	Dirección del viento	1.61
88511	7	Sololá	704	Santa Lucía Utatlán 	7	Santa Rita 	4	Abril	2023-04-17T00:00:00	2024-11-08T18:00:00	1	Precipitación	0.6
88512	7	Sololá	704	Santa Lucía Utatlán 	7	Santa Rita 	4	Abril	2023-04-17T00:00:00	2024-11-08T18:00:00	8	Radiación solar	218
88513	7	Sololá	704	Santa Lucía Utatlán 	7	Santa Rita 	4	Abril	2023-04-17T00:00:00	2024-11-08T19:00:00	2	Temperatura media	21
88514	7	Sololá	704	Santa Lucía Utatlán 	7	Santa Rita 	4	Abril	2023-04-17T00:00:00	2024-11-08T19:00:00	4	Temperatura máxima	21.2
88515	7	Sololá	704	Santa Lucía Utatlán 	7	Santa Rita 	4	Abril	2023-04-17T00:00:00	2024-11-08T19:00:00	3	Temperatura mínima	20.8
88516	7	Sololá	704	Santa Lucía Utatlán 	7	Santa Rita 	4	Abril	2023-04-17T00:00:00	2024-11-08T19:00:00	5	Humedad	69
88517	7	Sololá	704	Santa Lucía Utatlán 	7	Santa Rita 	4	Abril	2023-04-17T00:00:00	2024-11-08T19:00:00	6	Velocidad del viento	1.6
88518	7	Sololá	704	Santa Lucía Utatlán 	7	Santa Rita 	4	Abril	2023-04-17T00:00:00	2024-11-08T19:00:00	7	Dirección del viento	1.61
88519	7	Sololá	704	Santa Lucía Utatlán 	7	Santa Rita 	4	Abril	2023-04-17T00:00:00	2024-11-08T19:00:00	1	Precipitación	0
88520	7	Sololá	704	Santa Lucía Utatlán 	7	Santa Rita 	4	Abril	2023-04-17T00:00:00	2024-11-08T19:00:00	8	Radiación solar	0
88521	7	Sololá	704	Santa Lucía Utatlán 	7	Santa Rita 	4	Abril	2023-04-17T00:00:00	2024-11-08T20:00:00	2	Temperatura media	18.6
88522	7	Sololá	704	Santa Lucía Utatlán 	7	Santa Rita 	4	Abril	2023-04-17T00:00:00	2024-11-08T20:00:00	4	Temperatura máxima	21
88523	7	Sololá	704	Santa Lucía Utatlán 	7	Santa Rita 	4	Abril	2023-04-17T00:00:00	2024-11-08T20:00:00	3	Temperatura mínima	18.2
88524	7	Sololá	704	Santa Lucía Utatlán 	7	Santa Rita 	4	Abril	2023-04-17T00:00:00	2024-11-08T20:00:00	5	Humedad	78
88525	7	Sololá	704	Santa Lucía Utatlán 	7	Santa Rita 	4	Abril	2023-04-17T00:00:00	2024-11-08T20:00:00	6	Velocidad del viento	3.2
88526	7	Sololá	704	Santa Lucía Utatlán 	7	Santa Rita 	4	Abril	2023-04-17T00:00:00	2024-11-08T20:00:00	7	Dirección del viento	3.22
88527	7	Sololá	704	Santa Lucía Utatlán 	7	Santa Rita 	4	Abril	2023-04-17T00:00:00	2024-11-08T20:00:00	1	Precipitación	0
88528	7	Sololá	704	Santa Lucía Utatlán 	7	Santa Rita 	4	Abril	2023-04-17T00:00:00	2024-11-08T20:00:00	8	Radiación solar	0
88529	7	Sololá	704	Santa Lucía Utatlán 	7	Santa Rita 	4	Abril	2023-04-17T00:00:00	2024-11-08T21:00:00	2	Temperatura media	18.6
88530	7	Sololá	704	Santa Lucía Utatlán 	7	Santa Rita 	4	Abril	2023-04-17T00:00:00	2024-11-08T21:00:00	4	Temperatura máxima	19.4
88531	7	Sololá	704	Santa Lucía Utatlán 	7	Santa Rita 	4	Abril	2023-04-17T00:00:00	2024-11-08T21:00:00	3	Temperatura mínima	18.6
88532	7	Sololá	704	Santa Lucía Utatlán 	7	Santa Rita 	4	Abril	2023-04-17T00:00:00	2024-11-08T21:00:00	5	Humedad	81
88533	7	Sololá	704	Santa Lucía Utatlán 	7	Santa Rita 	4	Abril	2023-04-17T00:00:00	2024-11-08T21:00:00	6	Velocidad del viento	3.2
88534	7	Sololá	704	Santa Lucía Utatlán 	7	Santa Rita 	4	Abril	2023-04-17T00:00:00	2024-11-08T21:00:00	7	Dirección del viento	3.22
88535	7	Sololá	704	Santa Lucía Utatlán 	7	Santa Rita 	4	Abril	2023-04-17T00:00:00	2024-11-08T21:00:00	1	Precipitación	0
88536	7	Sololá	704	Santa Lucía Utatlán 	7	Santa Rita 	4	Abril	2023-04-17T00:00:00	2024-11-08T21:00:00	8	Radiación solar	0
88537	7	Sololá	704	Santa Lucía Utatlán 	7	Santa Rita 	4	Abril	2023-04-17T00:00:00	2024-11-08T22:00:00	2	Temperatura media	18
88538	7	Sololá	704	Santa Lucía Utatlán 	7	Santa Rita 	4	Abril	2023-04-17T00:00:00	2024-11-08T22:00:00	4	Temperatura máxima	18.8
88539	7	Sololá	704	Santa Lucía Utatlán 	7	Santa Rita 	4	Abril	2023-04-17T00:00:00	2024-11-08T22:00:00	3	Temperatura mínima	18
88540	7	Sololá	704	Santa Lucía Utatlán 	7	Santa Rita 	4	Abril	2023-04-17T00:00:00	2024-11-08T22:00:00	5	Humedad	79
88541	7	Sololá	704	Santa Lucía Utatlán 	7	Santa Rita 	4	Abril	2023-04-17T00:00:00	2024-11-08T22:00:00	6	Velocidad del viento	3.2
88542	7	Sololá	704	Santa Lucía Utatlán 	7	Santa Rita 	4	Abril	2023-04-17T00:00:00	2024-11-08T22:00:00	7	Dirección del viento	3.22
88543	7	Sololá	704	Santa Lucía Utatlán 	7	Santa Rita 	4	Abril	2023-04-17T00:00:00	2024-11-08T22:00:00	1	Precipitación	0
88544	7	Sololá	704	Santa Lucía Utatlán 	7	Santa Rita 	4	Abril	2023-04-17T00:00:00	2024-11-08T22:00:00	8	Radiación solar	0
88545	7	Sololá	704	Santa Lucía Utatlán 	7	Santa Rita 	4	Abril	2023-04-17T00:00:00	2024-11-08T23:00:00	2	Temperatura media	18.8
88546	7	Sololá	704	Santa Lucía Utatlán 	7	Santa Rita 	4	Abril	2023-04-17T00:00:00	2024-11-08T23:00:00	4	Temperatura máxima	18.8
88547	7	Sololá	704	Santa Lucía Utatlán 	7	Santa Rita 	4	Abril	2023-04-17T00:00:00	2024-11-08T23:00:00	3	Temperatura mínima	17.4
88548	7	Sololá	704	Santa Lucía Utatlán 	7	Santa Rita 	4	Abril	2023-04-17T00:00:00	2024-11-08T23:00:00	5	Humedad	75
88549	7	Sololá	704	Santa Lucía Utatlán 	7	Santa Rita 	4	Abril	2023-04-17T00:00:00	2024-11-08T23:00:00	6	Velocidad del viento	6.4
88550	7	Sololá	704	Santa Lucía Utatlán 	7	Santa Rita 	4	Abril	2023-04-17T00:00:00	2024-11-08T23:00:00	7	Dirección del viento	6.44
88551	7	Sololá	704	Santa Lucía Utatlán 	7	Santa Rita 	4	Abril	2023-04-17T00:00:00	2024-11-08T23:00:00	1	Precipitación	0.2
88552	7	Sololá	704	Santa Lucía Utatlán 	7	Santa Rita 	4	Abril	2023-04-17T00:00:00	2024-11-08T23:00:00	8	Radiación solar	0
88553	7	Sololá	704	Santa Lucía Utatlán 	7	Santa Rita 	4	Abril	2023-04-18T00:00:00	2024-11-08T00:00:00	2	Temperatura media	18.6
88554	7	Sololá	704	Santa Lucía Utatlán 	7	Santa Rita 	4	Abril	2023-04-18T00:00:00	2024-11-08T00:00:00	4	Temperatura máxima	18.9
88555	7	Sololá	704	Santa Lucía Utatlán 	7	Santa Rita 	4	Abril	2023-04-18T00:00:00	2024-11-08T00:00:00	3	Temperatura mínima	18.6
88556	7	Sololá	704	Santa Lucía Utatlán 	7	Santa Rita 	4	Abril	2023-04-18T00:00:00	2024-11-08T00:00:00	5	Humedad	76
88557	7	Sololá	704	Santa Lucía Utatlán 	7	Santa Rita 	4	Abril	2023-04-18T00:00:00	2024-11-08T00:00:00	6	Velocidad del viento	4.8
88558	7	Sololá	704	Santa Lucía Utatlán 	7	Santa Rita 	4	Abril	2023-04-18T00:00:00	2024-11-08T00:00:00	7	Dirección del viento	4.83
88559	7	Sololá	704	Santa Lucía Utatlán 	7	Santa Rita 	4	Abril	2023-04-18T00:00:00	2024-11-08T00:00:00	1	Precipitación	0
88560	7	Sololá	704	Santa Lucía Utatlán 	7	Santa Rita 	4	Abril	2023-04-18T00:00:00	2024-11-08T00:00:00	8	Radiación solar	0
88561	7	Sololá	704	Santa Lucía Utatlán 	7	Santa Rita 	4	Abril	2023-04-18T00:00:00	2024-11-08T01:00:00	2	Temperatura media	18.4
88562	7	Sololá	704	Santa Lucía Utatlán 	7	Santa Rita 	4	Abril	2023-04-18T00:00:00	2024-11-08T01:00:00	4	Temperatura máxima	18.7
88563	7	Sololá	704	Santa Lucía Utatlán 	7	Santa Rita 	4	Abril	2023-04-18T00:00:00	2024-11-08T01:00:00	3	Temperatura mínima	18.2
88564	7	Sololá	704	Santa Lucía Utatlán 	7	Santa Rita 	4	Abril	2023-04-18T00:00:00	2024-11-08T01:00:00	5	Humedad	81
88565	7	Sololá	704	Santa Lucía Utatlán 	7	Santa Rita 	4	Abril	2023-04-18T00:00:00	2024-11-08T01:00:00	6	Velocidad del viento	6.4
88566	7	Sololá	704	Santa Lucía Utatlán 	7	Santa Rita 	4	Abril	2023-04-18T00:00:00	2024-11-08T01:00:00	7	Dirección del viento	6.44
88567	7	Sololá	704	Santa Lucía Utatlán 	7	Santa Rita 	4	Abril	2023-04-18T00:00:00	2024-11-08T01:00:00	1	Precipitación	0
88568	7	Sololá	704	Santa Lucía Utatlán 	7	Santa Rita 	4	Abril	2023-04-18T00:00:00	2024-11-08T01:00:00	8	Radiación solar	0
88569	7	Sololá	704	Santa Lucía Utatlán 	7	Santa Rita 	4	Abril	2023-04-18T00:00:00	2024-11-08T02:00:00	2	Temperatura media	17.4
88570	7	Sololá	704	Santa Lucía Utatlán 	7	Santa Rita 	4	Abril	2023-04-18T00:00:00	2024-11-08T02:00:00	4	Temperatura máxima	18.4
88571	7	Sololá	704	Santa Lucía Utatlán 	7	Santa Rita 	4	Abril	2023-04-18T00:00:00	2024-11-08T02:00:00	3	Temperatura mínima	17.4
88572	7	Sololá	704	Santa Lucía Utatlán 	7	Santa Rita 	4	Abril	2023-04-18T00:00:00	2024-11-08T02:00:00	5	Humedad	87
88573	7	Sololá	704	Santa Lucía Utatlán 	7	Santa Rita 	4	Abril	2023-04-18T00:00:00	2024-11-08T02:00:00	6	Velocidad del viento	3.2
88574	7	Sololá	704	Santa Lucía Utatlán 	7	Santa Rita 	4	Abril	2023-04-18T00:00:00	2024-11-08T02:00:00	7	Dirección del viento	3.22
88575	7	Sololá	704	Santa Lucía Utatlán 	7	Santa Rita 	4	Abril	2023-04-18T00:00:00	2024-11-08T02:00:00	1	Precipitación	0
88576	7	Sololá	704	Santa Lucía Utatlán 	7	Santa Rita 	4	Abril	2023-04-18T00:00:00	2024-11-08T02:00:00	8	Radiación solar	0
88577	7	Sololá	704	Santa Lucía Utatlán 	7	Santa Rita 	4	Abril	2023-04-18T00:00:00	2024-11-08T03:00:00	2	Temperatura media	17.2
88578	7	Sololá	704	Santa Lucía Utatlán 	7	Santa Rita 	4	Abril	2023-04-18T00:00:00	2024-11-08T03:00:00	4	Temperatura máxima	17.4
88579	7	Sololá	704	Santa Lucía Utatlán 	7	Santa Rita 	4	Abril	2023-04-18T00:00:00	2024-11-08T03:00:00	3	Temperatura mínima	17.1
88580	7	Sololá	704	Santa Lucía Utatlán 	7	Santa Rita 	4	Abril	2023-04-18T00:00:00	2024-11-08T03:00:00	5	Humedad	88
88581	7	Sololá	704	Santa Lucía Utatlán 	7	Santa Rita 	4	Abril	2023-04-18T00:00:00	2024-11-08T03:00:00	6	Velocidad del viento	1.6
88582	7	Sololá	704	Santa Lucía Utatlán 	7	Santa Rita 	4	Abril	2023-04-18T00:00:00	2024-11-08T03:00:00	7	Dirección del viento	1.61
88583	7	Sololá	704	Santa Lucía Utatlán 	7	Santa Rita 	4	Abril	2023-04-18T00:00:00	2024-11-08T03:00:00	1	Precipitación	0
88584	7	Sololá	704	Santa Lucía Utatlán 	7	Santa Rita 	4	Abril	2023-04-18T00:00:00	2024-11-08T03:00:00	8	Radiación solar	0
88585	7	Sololá	704	Santa Lucía Utatlán 	7	Santa Rita 	4	Abril	2023-04-18T00:00:00	2024-11-08T04:00:00	2	Temperatura media	18.7
88586	7	Sololá	704	Santa Lucía Utatlán 	7	Santa Rita 	4	Abril	2023-04-18T00:00:00	2024-11-08T04:00:00	4	Temperatura máxima	18.7
88587	7	Sololá	704	Santa Lucía Utatlán 	7	Santa Rita 	4	Abril	2023-04-18T00:00:00	2024-11-08T04:00:00	3	Temperatura mínima	17.2
88588	7	Sololá	704	Santa Lucía Utatlán 	7	Santa Rita 	4	Abril	2023-04-18T00:00:00	2024-11-08T04:00:00	5	Humedad	75
88589	7	Sololá	704	Santa Lucía Utatlán 	7	Santa Rita 	4	Abril	2023-04-18T00:00:00	2024-11-08T04:00:00	6	Velocidad del viento	8
88590	7	Sololá	704	Santa Lucía Utatlán 	7	Santa Rita 	4	Abril	2023-04-18T00:00:00	2024-11-08T04:00:00	7	Dirección del viento	8.05
88591	7	Sololá	704	Santa Lucía Utatlán 	7	Santa Rita 	4	Abril	2023-04-18T00:00:00	2024-11-08T04:00:00	1	Precipitación	0
88592	7	Sololá	704	Santa Lucía Utatlán 	7	Santa Rita 	4	Abril	2023-04-18T00:00:00	2024-11-08T04:00:00	8	Radiación solar	0
88593	7	Sololá	704	Santa Lucía Utatlán 	7	Santa Rita 	4	Abril	2023-04-18T00:00:00	2024-11-08T05:00:00	2	Temperatura media	16.4
88594	7	Sololá	704	Santa Lucía Utatlán 	7	Santa Rita 	4	Abril	2023-04-18T00:00:00	2024-11-08T05:00:00	4	Temperatura máxima	19.2
88595	7	Sololá	704	Santa Lucía Utatlán 	7	Santa Rita 	4	Abril	2023-04-18T00:00:00	2024-11-08T05:00:00	3	Temperatura mínima	16.4
88596	7	Sololá	704	Santa Lucía Utatlán 	7	Santa Rita 	4	Abril	2023-04-18T00:00:00	2024-11-08T05:00:00	5	Humedad	84
88597	7	Sololá	704	Santa Lucía Utatlán 	7	Santa Rita 	4	Abril	2023-04-18T00:00:00	2024-11-08T05:00:00	6	Velocidad del viento	3.2
88598	7	Sololá	704	Santa Lucía Utatlán 	7	Santa Rita 	4	Abril	2023-04-18T00:00:00	2024-11-08T05:00:00	7	Dirección del viento	3.22
88599	7	Sololá	704	Santa Lucía Utatlán 	7	Santa Rita 	4	Abril	2023-04-18T00:00:00	2024-11-08T05:00:00	1	Precipitación	0
88600	7	Sololá	704	Santa Lucía Utatlán 	7	Santa Rita 	4	Abril	2023-04-18T00:00:00	2024-11-08T05:00:00	8	Radiación solar	0
88601	7	Sololá	704	Santa Lucía Utatlán 	7	Santa Rita 	4	Abril	2023-04-18T00:00:00	2024-11-08T06:00:00	2	Temperatura media	15.7
88602	7	Sololá	704	Santa Lucía Utatlán 	7	Santa Rita 	4	Abril	2023-04-18T00:00:00	2024-11-08T06:00:00	4	Temperatura máxima	16.7
88603	7	Sololá	704	Santa Lucía Utatlán 	7	Santa Rita 	4	Abril	2023-04-18T00:00:00	2024-11-08T06:00:00	3	Temperatura mínima	15.7
88604	7	Sololá	704	Santa Lucía Utatlán 	7	Santa Rita 	4	Abril	2023-04-18T00:00:00	2024-11-08T06:00:00	5	Humedad	84
88605	7	Sololá	704	Santa Lucía Utatlán 	7	Santa Rita 	4	Abril	2023-04-18T00:00:00	2024-11-08T06:00:00	6	Velocidad del viento	3.2
88606	7	Sololá	704	Santa Lucía Utatlán 	7	Santa Rita 	4	Abril	2023-04-18T00:00:00	2024-11-08T06:00:00	7	Dirección del viento	3.22
88607	7	Sololá	704	Santa Lucía Utatlán 	7	Santa Rita 	4	Abril	2023-04-18T00:00:00	2024-11-08T06:00:00	1	Precipitación	0
88608	7	Sololá	704	Santa Lucía Utatlán 	7	Santa Rita 	4	Abril	2023-04-18T00:00:00	2024-11-08T06:00:00	8	Radiación solar	0
88609	7	Sololá	704	Santa Lucía Utatlán 	7	Santa Rita 	4	Abril	2023-04-18T00:00:00	2024-11-08T07:00:00	2	Temperatura media	15.4
88610	7	Sololá	704	Santa Lucía Utatlán 	7	Santa Rita 	4	Abril	2023-04-18T00:00:00	2024-11-08T07:00:00	4	Temperatura máxima	15.8
88611	7	Sololá	704	Santa Lucía Utatlán 	7	Santa Rita 	4	Abril	2023-04-18T00:00:00	2024-11-08T07:00:00	3	Temperatura mínima	15.4
88612	7	Sololá	704	Santa Lucía Utatlán 	7	Santa Rita 	4	Abril	2023-04-18T00:00:00	2024-11-08T07:00:00	5	Humedad	84
88613	7	Sololá	704	Santa Lucía Utatlán 	7	Santa Rita 	4	Abril	2023-04-18T00:00:00	2024-11-08T07:00:00	6	Velocidad del viento	3.2
88614	7	Sololá	704	Santa Lucía Utatlán 	7	Santa Rita 	4	Abril	2023-04-18T00:00:00	2024-11-08T07:00:00	7	Dirección del viento	3.22
88615	7	Sololá	704	Santa Lucía Utatlán 	7	Santa Rita 	4	Abril	2023-04-18T00:00:00	2024-11-08T07:00:00	1	Precipitación	0
88616	7	Sololá	704	Santa Lucía Utatlán 	7	Santa Rita 	4	Abril	2023-04-18T00:00:00	2024-11-08T07:00:00	8	Radiación solar	2
88617	7	Sololá	704	Santa Lucía Utatlán 	7	Santa Rita 	4	Abril	2023-04-18T00:00:00	2024-11-08T08:00:00	2	Temperatura media	18.6
88618	7	Sololá	704	Santa Lucía Utatlán 	7	Santa Rita 	4	Abril	2023-04-18T00:00:00	2024-11-08T08:00:00	4	Temperatura máxima	18.6
88619	7	Sololá	704	Santa Lucía Utatlán 	7	Santa Rita 	4	Abril	2023-04-18T00:00:00	2024-11-08T08:00:00	3	Temperatura mínima	15.4
88620	7	Sololá	704	Santa Lucía Utatlán 	7	Santa Rita 	4	Abril	2023-04-18T00:00:00	2024-11-08T08:00:00	5	Humedad	76
88621	7	Sololá	704	Santa Lucía Utatlán 	7	Santa Rita 	4	Abril	2023-04-18T00:00:00	2024-11-08T08:00:00	6	Velocidad del viento	1.6
88622	7	Sololá	704	Santa Lucía Utatlán 	7	Santa Rita 	4	Abril	2023-04-18T00:00:00	2024-11-08T08:00:00	7	Dirección del viento	1.61
88623	7	Sololá	704	Santa Lucía Utatlán 	7	Santa Rita 	4	Abril	2023-04-18T00:00:00	2024-11-08T08:00:00	1	Precipitación	0
88624	7	Sololá	704	Santa Lucía Utatlán 	7	Santa Rita 	4	Abril	2023-04-18T00:00:00	2024-11-08T08:00:00	8	Radiación solar	111
88625	7	Sololá	704	Santa Lucía Utatlán 	7	Santa Rita 	4	Abril	2023-04-18T00:00:00	2024-11-08T09:00:00	2	Temperatura media	21.5
88626	7	Sololá	704	Santa Lucía Utatlán 	7	Santa Rita 	4	Abril	2023-04-18T00:00:00	2024-11-08T09:00:00	4	Temperatura máxima	21.5
88627	7	Sololá	704	Santa Lucía Utatlán 	7	Santa Rita 	4	Abril	2023-04-18T00:00:00	2024-11-08T09:00:00	3	Temperatura mínima	18.6
88628	7	Sololá	704	Santa Lucía Utatlán 	7	Santa Rita 	4	Abril	2023-04-18T00:00:00	2024-11-08T09:00:00	5	Humedad	67
88629	7	Sololá	704	Santa Lucía Utatlán 	7	Santa Rita 	4	Abril	2023-04-18T00:00:00	2024-11-08T09:00:00	6	Velocidad del viento	3.2
88630	7	Sololá	704	Santa Lucía Utatlán 	7	Santa Rita 	4	Abril	2023-04-18T00:00:00	2024-11-08T09:00:00	7	Dirección del viento	3.22
88631	7	Sololá	704	Santa Lucía Utatlán 	7	Santa Rita 	4	Abril	2023-04-18T00:00:00	2024-11-08T09:00:00	1	Precipitación	0
88632	7	Sololá	704	Santa Lucía Utatlán 	7	Santa Rita 	4	Abril	2023-04-18T00:00:00	2024-11-08T09:00:00	8	Radiación solar	392
88633	7	Sololá	704	Santa Lucía Utatlán 	7	Santa Rita 	4	Abril	2023-04-18T00:00:00	2024-11-08T10:00:00	2	Temperatura media	23.2
88634	7	Sololá	704	Santa Lucía Utatlán 	7	Santa Rita 	4	Abril	2023-04-18T00:00:00	2024-11-08T10:00:00	4	Temperatura máxima	23.2
88635	7	Sololá	704	Santa Lucía Utatlán 	7	Santa Rita 	4	Abril	2023-04-18T00:00:00	2024-11-08T10:00:00	3	Temperatura mínima	21.5
88636	7	Sololá	704	Santa Lucía Utatlán 	7	Santa Rita 	4	Abril	2023-04-18T00:00:00	2024-11-08T10:00:00	5	Humedad	59
88637	7	Sololá	704	Santa Lucía Utatlán 	7	Santa Rita 	4	Abril	2023-04-18T00:00:00	2024-11-08T10:00:00	6	Velocidad del viento	6.4
88638	7	Sololá	704	Santa Lucía Utatlán 	7	Santa Rita 	4	Abril	2023-04-18T00:00:00	2024-11-08T10:00:00	7	Dirección del viento	6.44
88639	7	Sololá	704	Santa Lucía Utatlán 	7	Santa Rita 	4	Abril	2023-04-18T00:00:00	2024-11-08T10:00:00	1	Precipitación	0
88640	7	Sololá	704	Santa Lucía Utatlán 	7	Santa Rita 	4	Abril	2023-04-18T00:00:00	2024-11-08T10:00:00	8	Radiación solar	675
88641	7	Sololá	704	Santa Lucía Utatlán 	7	Santa Rita 	4	Abril	2023-04-18T00:00:00	2024-11-08T11:00:00	2	Temperatura media	24.3
88642	7	Sololá	704	Santa Lucía Utatlán 	7	Santa Rita 	4	Abril	2023-04-18T00:00:00	2024-11-08T11:00:00	4	Temperatura máxima	24.4
88643	7	Sololá	704	Santa Lucía Utatlán 	7	Santa Rita 	4	Abril	2023-04-18T00:00:00	2024-11-08T11:00:00	3	Temperatura mínima	22.6
88644	7	Sololá	704	Santa Lucía Utatlán 	7	Santa Rita 	4	Abril	2023-04-18T00:00:00	2024-11-08T11:00:00	5	Humedad	60
88645	7	Sololá	704	Santa Lucía Utatlán 	7	Santa Rita 	4	Abril	2023-04-18T00:00:00	2024-11-08T11:00:00	6	Velocidad del viento	4.8
88646	7	Sololá	704	Santa Lucía Utatlán 	7	Santa Rita 	4	Abril	2023-04-18T00:00:00	2024-11-08T11:00:00	7	Dirección del viento	4.83
88647	7	Sololá	704	Santa Lucía Utatlán 	7	Santa Rita 	4	Abril	2023-04-18T00:00:00	2024-11-08T11:00:00	1	Precipitación	0
88648	7	Sololá	704	Santa Lucía Utatlán 	7	Santa Rita 	4	Abril	2023-04-18T00:00:00	2024-11-08T11:00:00	8	Radiación solar	452
88649	7	Sololá	704	Santa Lucía Utatlán 	7	Santa Rita 	4	Abril	2023-04-18T00:00:00	2024-11-08T12:00:00	2	Temperatura media	23.6
88650	7	Sololá	704	Santa Lucía Utatlán 	7	Santa Rita 	4	Abril	2023-04-18T00:00:00	2024-11-08T12:00:00	4	Temperatura máxima	24.3
88651	7	Sololá	704	Santa Lucía Utatlán 	7	Santa Rita 	4	Abril	2023-04-18T00:00:00	2024-11-08T12:00:00	3	Temperatura mínima	22.9
88652	7	Sololá	704	Santa Lucía Utatlán 	7	Santa Rita 	4	Abril	2023-04-18T00:00:00	2024-11-08T12:00:00	5	Humedad	61
88653	7	Sololá	704	Santa Lucía Utatlán 	7	Santa Rita 	4	Abril	2023-04-18T00:00:00	2024-11-08T12:00:00	6	Velocidad del viento	4.8
88654	7	Sololá	704	Santa Lucía Utatlán 	7	Santa Rita 	4	Abril	2023-04-18T00:00:00	2024-11-08T12:00:00	7	Dirección del viento	4.83
88655	7	Sololá	704	Santa Lucía Utatlán 	7	Santa Rita 	4	Abril	2023-04-18T00:00:00	2024-11-08T12:00:00	1	Precipitación	0
88656	7	Sololá	704	Santa Lucía Utatlán 	7	Santa Rita 	4	Abril	2023-04-18T00:00:00	2024-11-08T12:00:00	8	Radiación solar	427
88657	7	Sololá	704	Santa Lucía Utatlán 	7	Santa Rita 	4	Abril	2023-04-18T00:00:00	2024-11-08T13:00:00	2	Temperatura media	22.9
88658	7	Sololá	704	Santa Lucía Utatlán 	7	Santa Rita 	4	Abril	2023-04-18T00:00:00	2024-11-08T13:00:00	4	Temperatura máxima	24.9
88659	7	Sololá	704	Santa Lucía Utatlán 	7	Santa Rita 	4	Abril	2023-04-18T00:00:00	2024-11-08T13:00:00	3	Temperatura mínima	22.8
88660	7	Sololá	704	Santa Lucía Utatlán 	7	Santa Rita 	4	Abril	2023-04-18T00:00:00	2024-11-08T13:00:00	5	Humedad	69
88661	7	Sololá	704	Santa Lucía Utatlán 	7	Santa Rita 	4	Abril	2023-04-18T00:00:00	2024-11-08T13:00:00	6	Velocidad del viento	6.4
88662	7	Sololá	704	Santa Lucía Utatlán 	7	Santa Rita 	4	Abril	2023-04-18T00:00:00	2024-11-08T13:00:00	7	Dirección del viento	6.44
88663	7	Sololá	704	Santa Lucía Utatlán 	7	Santa Rita 	4	Abril	2023-04-18T00:00:00	2024-11-08T13:00:00	1	Precipitación	0
88664	7	Sololá	704	Santa Lucía Utatlán 	7	Santa Rita 	4	Abril	2023-04-18T00:00:00	2024-11-08T13:00:00	8	Radiación solar	463
88665	7	Sololá	704	Santa Lucía Utatlán 	7	Santa Rita 	4	Abril	2023-04-18T00:00:00	2024-11-08T14:00:00	2	Temperatura media	22.1
88666	7	Sololá	704	Santa Lucía Utatlán 	7	Santa Rita 	4	Abril	2023-04-18T00:00:00	2024-11-08T14:00:00	4	Temperatura máxima	24.1
88667	7	Sololá	704	Santa Lucía Utatlán 	7	Santa Rita 	4	Abril	2023-04-18T00:00:00	2024-11-08T14:00:00	3	Temperatura mínima	22.1
88668	7	Sololá	704	Santa Lucía Utatlán 	7	Santa Rita 	4	Abril	2023-04-18T00:00:00	2024-11-08T14:00:00	5	Humedad	75
88669	7	Sololá	704	Santa Lucía Utatlán 	7	Santa Rita 	4	Abril	2023-04-18T00:00:00	2024-11-08T14:00:00	6	Velocidad del viento	6.4
88670	7	Sololá	704	Santa Lucía Utatlán 	7	Santa Rita 	4	Abril	2023-04-18T00:00:00	2024-11-08T14:00:00	7	Dirección del viento	6.44
88671	7	Sololá	704	Santa Lucía Utatlán 	7	Santa Rita 	4	Abril	2023-04-18T00:00:00	2024-11-08T14:00:00	1	Precipitación	0
88672	7	Sololá	704	Santa Lucía Utatlán 	7	Santa Rita 	4	Abril	2023-04-18T00:00:00	2024-11-08T14:00:00	8	Radiación solar	375
88673	7	Sololá	704	Santa Lucía Utatlán 	7	Santa Rita 	4	Abril	2023-04-18T00:00:00	2024-11-08T15:00:00	2	Temperatura media	21.9
88674	7	Sololá	704	Santa Lucía Utatlán 	7	Santa Rita 	4	Abril	2023-04-18T00:00:00	2024-11-08T15:00:00	4	Temperatura máxima	23.2
88675	7	Sololá	704	Santa Lucía Utatlán 	7	Santa Rita 	4	Abril	2023-04-18T00:00:00	2024-11-08T15:00:00	3	Temperatura mínima	21.7
88676	7	Sololá	704	Santa Lucía Utatlán 	7	Santa Rita 	4	Abril	2023-04-18T00:00:00	2024-11-08T15:00:00	5	Humedad	77
88677	7	Sololá	704	Santa Lucía Utatlán 	7	Santa Rita 	4	Abril	2023-04-18T00:00:00	2024-11-08T15:00:00	6	Velocidad del viento	6.4
88678	7	Sololá	704	Santa Lucía Utatlán 	7	Santa Rita 	4	Abril	2023-04-18T00:00:00	2024-11-08T15:00:00	7	Dirección del viento	6.44
88679	7	Sololá	704	Santa Lucía Utatlán 	7	Santa Rita 	4	Abril	2023-04-18T00:00:00	2024-11-08T15:00:00	1	Precipitación	0
88680	7	Sololá	704	Santa Lucía Utatlán 	7	Santa Rita 	4	Abril	2023-04-18T00:00:00	2024-11-08T15:00:00	8	Radiación solar	293
88681	7	Sololá	704	Santa Lucía Utatlán 	7	Santa Rita 	4	Abril	2023-04-18T00:00:00	2024-11-08T16:00:00	2	Temperatura media	21.1
88682	7	Sololá	704	Santa Lucía Utatlán 	7	Santa Rita 	4	Abril	2023-04-18T00:00:00	2024-11-08T16:00:00	4	Temperatura máxima	21.8
88683	7	Sololá	704	Santa Lucía Utatlán 	7	Santa Rita 	4	Abril	2023-04-18T00:00:00	2024-11-08T16:00:00	3	Temperatura mínima	21.1
88684	7	Sololá	704	Santa Lucía Utatlán 	7	Santa Rita 	4	Abril	2023-04-18T00:00:00	2024-11-08T16:00:00	5	Humedad	80
88685	7	Sololá	704	Santa Lucía Utatlán 	7	Santa Rita 	4	Abril	2023-04-18T00:00:00	2024-11-08T16:00:00	6	Velocidad del viento	4.8
88686	7	Sololá	704	Santa Lucía Utatlán 	7	Santa Rita 	4	Abril	2023-04-18T00:00:00	2024-11-08T16:00:00	7	Dirección del viento	4.83
88687	7	Sololá	704	Santa Lucía Utatlán 	7	Santa Rita 	4	Abril	2023-04-18T00:00:00	2024-11-08T16:00:00	1	Precipitación	0
88688	7	Sololá	704	Santa Lucía Utatlán 	7	Santa Rita 	4	Abril	2023-04-18T00:00:00	2024-11-08T16:00:00	8	Radiación solar	150
88689	7	Sololá	704	Santa Lucía Utatlán 	7	Santa Rita 	4	Abril	2023-04-18T00:00:00	2024-11-08T17:00:00	2	Temperatura media	21.2
88690	7	Sololá	704	Santa Lucía Utatlán 	7	Santa Rita 	4	Abril	2023-04-18T00:00:00	2024-11-08T17:00:00	4	Temperatura máxima	21.6
88691	7	Sololá	704	Santa Lucía Utatlán 	7	Santa Rita 	4	Abril	2023-04-18T00:00:00	2024-11-08T17:00:00	3	Temperatura mínima	20.9
88692	7	Sololá	704	Santa Lucía Utatlán 	7	Santa Rita 	4	Abril	2023-04-18T00:00:00	2024-11-08T17:00:00	5	Humedad	82
88693	7	Sololá	704	Santa Lucía Utatlán 	7	Santa Rita 	4	Abril	2023-04-18T00:00:00	2024-11-08T17:00:00	6	Velocidad del viento	3.2
88694	7	Sololá	704	Santa Lucía Utatlán 	7	Santa Rita 	4	Abril	2023-04-18T00:00:00	2024-11-08T17:00:00	7	Dirección del viento	3.22
88695	7	Sololá	704	Santa Lucía Utatlán 	7	Santa Rita 	4	Abril	2023-04-18T00:00:00	2024-11-08T17:00:00	1	Precipitación	0
88696	7	Sololá	704	Santa Lucía Utatlán 	7	Santa Rita 	4	Abril	2023-04-18T00:00:00	2024-11-08T17:00:00	8	Radiación solar	130
88697	7	Sololá	704	Santa Lucía Utatlán 	7	Santa Rita 	4	Abril	2023-04-18T00:00:00	2024-11-08T18:00:00	2	Temperatura media	20.3
88698	7	Sololá	704	Santa Lucía Utatlán 	7	Santa Rita 	4	Abril	2023-04-18T00:00:00	2024-11-08T18:00:00	4	Temperatura máxima	21.2
88699	7	Sololá	704	Santa Lucía Utatlán 	7	Santa Rita 	4	Abril	2023-04-18T00:00:00	2024-11-08T18:00:00	3	Temperatura mínima	20.3
88700	7	Sololá	704	Santa Lucía Utatlán 	7	Santa Rita 	4	Abril	2023-04-18T00:00:00	2024-11-08T18:00:00	5	Humedad	87
88701	7	Sololá	704	Santa Lucía Utatlán 	7	Santa Rita 	4	Abril	2023-04-18T00:00:00	2024-11-08T18:00:00	6	Velocidad del viento	3.2
88702	7	Sololá	704	Santa Lucía Utatlán 	7	Santa Rita 	4	Abril	2023-04-18T00:00:00	2024-11-08T18:00:00	7	Dirección del viento	3.22
88703	7	Sololá	704	Santa Lucía Utatlán 	7	Santa Rita 	4	Abril	2023-04-18T00:00:00	2024-11-08T18:00:00	1	Precipitación	0
88704	7	Sololá	704	Santa Lucía Utatlán 	7	Santa Rita 	4	Abril	2023-04-18T00:00:00	2024-11-08T18:00:00	8	Radiación solar	31
88705	7	Sololá	704	Santa Lucía Utatlán 	7	Santa Rita 	4	Abril	2023-04-18T00:00:00	2024-11-08T19:00:00	2	Temperatura media	19.9
88706	7	Sololá	704	Santa Lucía Utatlán 	7	Santa Rita 	4	Abril	2023-04-18T00:00:00	2024-11-08T19:00:00	4	Temperatura máxima	20.3
88707	7	Sololá	704	Santa Lucía Utatlán 	7	Santa Rita 	4	Abril	2023-04-18T00:00:00	2024-11-08T19:00:00	3	Temperatura mínima	19.9
88708	7	Sololá	704	Santa Lucía Utatlán 	7	Santa Rita 	4	Abril	2023-04-18T00:00:00	2024-11-08T19:00:00	5	Humedad	88
88709	7	Sololá	704	Santa Lucía Utatlán 	7	Santa Rita 	4	Abril	2023-04-18T00:00:00	2024-11-08T19:00:00	6	Velocidad del viento	1.6
88710	7	Sololá	704	Santa Lucía Utatlán 	7	Santa Rita 	4	Abril	2023-04-18T00:00:00	2024-11-08T19:00:00	7	Dirección del viento	1.61
88711	7	Sololá	704	Santa Lucía Utatlán 	7	Santa Rita 	4	Abril	2023-04-18T00:00:00	2024-11-08T19:00:00	1	Precipitación	0
88712	7	Sololá	704	Santa Lucía Utatlán 	7	Santa Rita 	4	Abril	2023-04-18T00:00:00	2024-11-08T19:00:00	8	Radiación solar	0
88713	7	Sololá	704	Santa Lucía Utatlán 	7	Santa Rita 	4	Abril	2023-04-18T00:00:00	2024-11-08T20:00:00	2	Temperatura media	19.4
88714	7	Sololá	704	Santa Lucía Utatlán 	7	Santa Rita 	4	Abril	2023-04-18T00:00:00	2024-11-08T20:00:00	4	Temperatura máxima	19.9
88715	7	Sololá	704	Santa Lucía Utatlán 	7	Santa Rita 	4	Abril	2023-04-18T00:00:00	2024-11-08T20:00:00	3	Temperatura mínima	19.3
88716	7	Sololá	704	Santa Lucía Utatlán 	7	Santa Rita 	4	Abril	2023-04-18T00:00:00	2024-11-08T20:00:00	5	Humedad	89
88717	7	Sololá	704	Santa Lucía Utatlán 	7	Santa Rita 	4	Abril	2023-04-18T00:00:00	2024-11-08T20:00:00	6	Velocidad del viento	1.6
88718	7	Sololá	704	Santa Lucía Utatlán 	7	Santa Rita 	4	Abril	2023-04-18T00:00:00	2024-11-08T20:00:00	7	Dirección del viento	1.61
88719	7	Sololá	704	Santa Lucía Utatlán 	7	Santa Rita 	4	Abril	2023-04-18T00:00:00	2024-11-08T20:00:00	1	Precipitación	0
88720	7	Sololá	704	Santa Lucía Utatlán 	7	Santa Rita 	4	Abril	2023-04-18T00:00:00	2024-11-08T20:00:00	8	Radiación solar	0
88721	7	Sololá	704	Santa Lucía Utatlán 	7	Santa Rita 	4	Abril	2023-04-18T00:00:00	2024-11-08T21:00:00	2	Temperatura media	18.9
88722	7	Sololá	704	Santa Lucía Utatlán 	7	Santa Rita 	4	Abril	2023-04-18T00:00:00	2024-11-08T21:00:00	4	Temperatura máxima	19.4
88723	7	Sololá	704	Santa Lucía Utatlán 	7	Santa Rita 	4	Abril	2023-04-18T00:00:00	2024-11-08T21:00:00	3	Temperatura mínima	18.4
88724	7	Sololá	704	Santa Lucía Utatlán 	7	Santa Rita 	4	Abril	2023-04-18T00:00:00	2024-11-08T21:00:00	5	Humedad	86
88725	7	Sololá	704	Santa Lucía Utatlán 	7	Santa Rita 	4	Abril	2023-04-18T00:00:00	2024-11-08T21:00:00	6	Velocidad del viento	1.6
88726	7	Sololá	704	Santa Lucía Utatlán 	7	Santa Rita 	4	Abril	2023-04-18T00:00:00	2024-11-08T21:00:00	7	Dirección del viento	1.61
88727	7	Sololá	704	Santa Lucía Utatlán 	7	Santa Rita 	4	Abril	2023-04-18T00:00:00	2024-11-08T21:00:00	1	Precipitación	0
88728	7	Sololá	704	Santa Lucía Utatlán 	7	Santa Rita 	4	Abril	2023-04-18T00:00:00	2024-11-08T21:00:00	8	Radiación solar	0
88729	7	Sololá	704	Santa Lucía Utatlán 	7	Santa Rita 	4	Abril	2023-04-18T00:00:00	2024-11-08T22:00:00	2	Temperatura media	18.3
88730	7	Sololá	704	Santa Lucía Utatlán 	7	Santa Rita 	4	Abril	2023-04-18T00:00:00	2024-11-08T22:00:00	4	Temperatura máxima	19
88731	7	Sololá	704	Santa Lucía Utatlán 	7	Santa Rita 	4	Abril	2023-04-18T00:00:00	2024-11-08T22:00:00	3	Temperatura mínima	18.3
88732	7	Sololá	704	Santa Lucía Utatlán 	7	Santa Rita 	4	Abril	2023-04-18T00:00:00	2024-11-08T22:00:00	5	Humedad	85
88733	7	Sololá	704	Santa Lucía Utatlán 	7	Santa Rita 	4	Abril	2023-04-18T00:00:00	2024-11-08T22:00:00	6	Velocidad del viento	1.6
88734	7	Sololá	704	Santa Lucía Utatlán 	7	Santa Rita 	4	Abril	2023-04-18T00:00:00	2024-11-08T22:00:00	7	Dirección del viento	1.61
88735	7	Sololá	704	Santa Lucía Utatlán 	7	Santa Rita 	4	Abril	2023-04-18T00:00:00	2024-11-08T22:00:00	1	Precipitación	0
88736	7	Sololá	704	Santa Lucía Utatlán 	7	Santa Rita 	4	Abril	2023-04-18T00:00:00	2024-11-08T22:00:00	8	Radiación solar	0
88737	7	Sololá	704	Santa Lucía Utatlán 	7	Santa Rita 	4	Abril	2023-04-18T00:00:00	2024-11-08T23:00:00	2	Temperatura media	17.6
88738	7	Sololá	704	Santa Lucía Utatlán 	7	Santa Rita 	4	Abril	2023-04-18T00:00:00	2024-11-08T23:00:00	4	Temperatura máxima	18.4
88739	7	Sololá	704	Santa Lucía Utatlán 	7	Santa Rita 	4	Abril	2023-04-18T00:00:00	2024-11-08T23:00:00	3	Temperatura mínima	17.4
88740	7	Sololá	704	Santa Lucía Utatlán 	7	Santa Rita 	4	Abril	2023-04-18T00:00:00	2024-11-08T23:00:00	5	Humedad	86
88741	7	Sololá	704	Santa Lucía Utatlán 	7	Santa Rita 	4	Abril	2023-04-18T00:00:00	2024-11-08T23:00:00	6	Velocidad del viento	3.2
88742	7	Sololá	704	Santa Lucía Utatlán 	7	Santa Rita 	4	Abril	2023-04-18T00:00:00	2024-11-08T23:00:00	7	Dirección del viento	3.22
88743	7	Sololá	704	Santa Lucía Utatlán 	7	Santa Rita 	4	Abril	2023-04-18T00:00:00	2024-11-08T23:00:00	1	Precipitación	0
88744	7	Sololá	704	Santa Lucía Utatlán 	7	Santa Rita 	4	Abril	2023-04-18T00:00:00	2024-11-08T23:00:00	8	Radiación solar	0
88745	7	Sololá	704	Santa Lucía Utatlán 	7	Santa Rita 	4	Abril	2023-04-19T00:00:00	2024-11-08T00:00:00	2	Temperatura media	16.7
88746	7	Sololá	704	Santa Lucía Utatlán 	7	Santa Rita 	4	Abril	2023-04-19T00:00:00	2024-11-08T00:00:00	4	Temperatura máxima	17.6
88747	7	Sololá	704	Santa Lucía Utatlán 	7	Santa Rita 	4	Abril	2023-04-19T00:00:00	2024-11-08T00:00:00	3	Temperatura mínima	16.7
88748	7	Sololá	704	Santa Lucía Utatlán 	7	Santa Rita 	4	Abril	2023-04-19T00:00:00	2024-11-08T00:00:00	5	Humedad	85
88749	7	Sololá	704	Santa Lucía Utatlán 	7	Santa Rita 	4	Abril	2023-04-19T00:00:00	2024-11-08T00:00:00	6	Velocidad del viento	3.2
88750	7	Sololá	704	Santa Lucía Utatlán 	7	Santa Rita 	4	Abril	2023-04-19T00:00:00	2024-11-08T00:00:00	7	Dirección del viento	3.22
88751	7	Sololá	704	Santa Lucía Utatlán 	7	Santa Rita 	4	Abril	2023-04-19T00:00:00	2024-11-08T00:00:00	1	Precipitación	0
88752	7	Sololá	704	Santa Lucía Utatlán 	7	Santa Rita 	4	Abril	2023-04-19T00:00:00	2024-11-08T00:00:00	8	Radiación solar	0
88753	7	Sololá	704	Santa Lucía Utatlán 	7	Santa Rita 	4	Abril	2023-04-19T00:00:00	2024-11-08T01:00:00	2	Temperatura media	15.9
88754	7	Sololá	704	Santa Lucía Utatlán 	7	Santa Rita 	4	Abril	2023-04-19T00:00:00	2024-11-08T01:00:00	4	Temperatura máxima	16.8
88755	7	Sololá	704	Santa Lucía Utatlán 	7	Santa Rita 	4	Abril	2023-04-19T00:00:00	2024-11-08T01:00:00	3	Temperatura mínima	15.9
88756	7	Sololá	704	Santa Lucía Utatlán 	7	Santa Rita 	4	Abril	2023-04-19T00:00:00	2024-11-08T01:00:00	5	Humedad	85
88757	7	Sololá	704	Santa Lucía Utatlán 	7	Santa Rita 	4	Abril	2023-04-19T00:00:00	2024-11-08T01:00:00	6	Velocidad del viento	3.2
88758	7	Sololá	704	Santa Lucía Utatlán 	7	Santa Rita 	4	Abril	2023-04-19T00:00:00	2024-11-08T01:00:00	7	Dirección del viento	3.22
88759	7	Sololá	704	Santa Lucía Utatlán 	7	Santa Rita 	4	Abril	2023-04-19T00:00:00	2024-11-08T01:00:00	1	Precipitación	0
88760	7	Sololá	704	Santa Lucía Utatlán 	7	Santa Rita 	4	Abril	2023-04-19T00:00:00	2024-11-08T01:00:00	8	Radiación solar	0
88761	7	Sololá	704	Santa Lucía Utatlán 	7	Santa Rita 	4	Abril	2023-04-19T00:00:00	2024-11-08T02:00:00	2	Temperatura media	15.4
88762	7	Sololá	704	Santa Lucía Utatlán 	7	Santa Rita 	4	Abril	2023-04-19T00:00:00	2024-11-08T02:00:00	4	Temperatura máxima	16.1
88763	7	Sololá	704	Santa Lucía Utatlán 	7	Santa Rita 	4	Abril	2023-04-19T00:00:00	2024-11-08T02:00:00	3	Temperatura mínima	15.3
88764	7	Sololá	704	Santa Lucía Utatlán 	7	Santa Rita 	4	Abril	2023-04-19T00:00:00	2024-11-08T02:00:00	5	Humedad	86
88765	7	Sololá	704	Santa Lucía Utatlán 	7	Santa Rita 	4	Abril	2023-04-19T00:00:00	2024-11-08T02:00:00	6	Velocidad del viento	1.6
88766	7	Sololá	704	Santa Lucía Utatlán 	7	Santa Rita 	4	Abril	2023-04-19T00:00:00	2024-11-08T02:00:00	7	Dirección del viento	1.61
88767	7	Sololá	704	Santa Lucía Utatlán 	7	Santa Rita 	4	Abril	2023-04-19T00:00:00	2024-11-08T02:00:00	1	Precipitación	0
88768	7	Sololá	704	Santa Lucía Utatlán 	7	Santa Rita 	4	Abril	2023-04-19T00:00:00	2024-11-08T02:00:00	8	Radiación solar	0
88769	7	Sololá	704	Santa Lucía Utatlán 	7	Santa Rita 	4	Abril	2023-04-19T00:00:00	2024-11-08T03:00:00	2	Temperatura media	15.1
88770	7	Sololá	704	Santa Lucía Utatlán 	7	Santa Rita 	4	Abril	2023-04-19T00:00:00	2024-11-08T03:00:00	4	Temperatura máxima	15.4
88771	7	Sololá	704	Santa Lucía Utatlán 	7	Santa Rita 	4	Abril	2023-04-19T00:00:00	2024-11-08T03:00:00	3	Temperatura mínima	15.1
88772	7	Sololá	704	Santa Lucía Utatlán 	7	Santa Rita 	4	Abril	2023-04-19T00:00:00	2024-11-08T03:00:00	5	Humedad	85
88773	7	Sololá	704	Santa Lucía Utatlán 	7	Santa Rita 	4	Abril	2023-04-19T00:00:00	2024-11-08T03:00:00	6	Velocidad del viento	3.2
88774	7	Sololá	704	Santa Lucía Utatlán 	7	Santa Rita 	4	Abril	2023-04-19T00:00:00	2024-11-08T03:00:00	7	Dirección del viento	3.22
88775	7	Sololá	704	Santa Lucía Utatlán 	7	Santa Rita 	4	Abril	2023-04-19T00:00:00	2024-11-08T03:00:00	1	Precipitación	0
88776	7	Sololá	704	Santa Lucía Utatlán 	7	Santa Rita 	4	Abril	2023-04-19T00:00:00	2024-11-08T03:00:00	8	Radiación solar	0
88777	7	Sololá	704	Santa Lucía Utatlán 	7	Santa Rita 	4	Abril	2023-04-19T00:00:00	2024-11-08T04:00:00	2	Temperatura media	14.8
88778	7	Sololá	704	Santa Lucía Utatlán 	7	Santa Rita 	4	Abril	2023-04-19T00:00:00	2024-11-08T04:00:00	4	Temperatura máxima	15.2
88779	7	Sololá	704	Santa Lucía Utatlán 	7	Santa Rita 	4	Abril	2023-04-19T00:00:00	2024-11-08T04:00:00	3	Temperatura mínima	14.7
88780	7	Sololá	704	Santa Lucía Utatlán 	7	Santa Rita 	4	Abril	2023-04-19T00:00:00	2024-11-08T04:00:00	5	Humedad	81
88781	7	Sololá	704	Santa Lucía Utatlán 	7	Santa Rita 	4	Abril	2023-04-19T00:00:00	2024-11-08T04:00:00	6	Velocidad del viento	4.8
88782	7	Sololá	704	Santa Lucía Utatlán 	7	Santa Rita 	4	Abril	2023-04-19T00:00:00	2024-11-08T04:00:00	7	Dirección del viento	4.83
88783	7	Sololá	704	Santa Lucía Utatlán 	7	Santa Rita 	4	Abril	2023-04-19T00:00:00	2024-11-08T04:00:00	1	Precipitación	0
88784	7	Sololá	704	Santa Lucía Utatlán 	7	Santa Rita 	4	Abril	2023-04-19T00:00:00	2024-11-08T04:00:00	8	Radiación solar	0
88785	7	Sololá	704	Santa Lucía Utatlán 	7	Santa Rita 	4	Abril	2023-04-19T00:00:00	2024-11-08T05:00:00	2	Temperatura media	14.9
88786	7	Sololá	704	Santa Lucía Utatlán 	7	Santa Rita 	4	Abril	2023-04-19T00:00:00	2024-11-08T05:00:00	4	Temperatura máxima	15.3
88787	7	Sololá	704	Santa Lucía Utatlán 	7	Santa Rita 	4	Abril	2023-04-19T00:00:00	2024-11-08T05:00:00	3	Temperatura mínima	14.8
88788	7	Sololá	704	Santa Lucía Utatlán 	7	Santa Rita 	4	Abril	2023-04-19T00:00:00	2024-11-08T05:00:00	5	Humedad	70
88789	7	Sololá	704	Santa Lucía Utatlán 	7	Santa Rita 	4	Abril	2023-04-19T00:00:00	2024-11-08T05:00:00	6	Velocidad del viento	4.8
88790	7	Sololá	704	Santa Lucía Utatlán 	7	Santa Rita 	4	Abril	2023-04-19T00:00:00	2024-11-08T05:00:00	7	Dirección del viento	4.83
88791	7	Sololá	704	Santa Lucía Utatlán 	7	Santa Rita 	4	Abril	2023-04-19T00:00:00	2024-11-08T05:00:00	1	Precipitación	0
88792	7	Sololá	704	Santa Lucía Utatlán 	7	Santa Rita 	4	Abril	2023-04-19T00:00:00	2024-11-08T05:00:00	8	Radiación solar	0
88793	7	Sololá	704	Santa Lucía Utatlán 	7	Santa Rita 	4	Abril	2023-04-19T00:00:00	2024-11-08T06:00:00	2	Temperatura media	15.2
88794	7	Sololá	704	Santa Lucía Utatlán 	7	Santa Rita 	4	Abril	2023-04-19T00:00:00	2024-11-08T06:00:00	4	Temperatura máxima	15.3
88795	7	Sololá	704	Santa Lucía Utatlán 	7	Santa Rita 	4	Abril	2023-04-19T00:00:00	2024-11-08T06:00:00	3	Temperatura mínima	14.6
88796	7	Sololá	704	Santa Lucía Utatlán 	7	Santa Rita 	4	Abril	2023-04-19T00:00:00	2024-11-08T06:00:00	5	Humedad	53
88797	7	Sololá	704	Santa Lucía Utatlán 	7	Santa Rita 	4	Abril	2023-04-19T00:00:00	2024-11-08T06:00:00	6	Velocidad del viento	4.8
88798	7	Sololá	704	Santa Lucía Utatlán 	7	Santa Rita 	4	Abril	2023-04-19T00:00:00	2024-11-08T06:00:00	7	Dirección del viento	4.83
88799	7	Sololá	704	Santa Lucía Utatlán 	7	Santa Rita 	4	Abril	2023-04-19T00:00:00	2024-11-08T06:00:00	1	Precipitación	0
88800	7	Sololá	704	Santa Lucía Utatlán 	7	Santa Rita 	4	Abril	2023-04-19T00:00:00	2024-11-08T06:00:00	8	Radiación solar	0
88801	7	Sololá	704	Santa Lucía Utatlán 	7	Santa Rita 	4	Abril	2023-04-19T00:00:00	2024-11-08T07:00:00	2	Temperatura media	15.1
88802	7	Sololá	704	Santa Lucía Utatlán 	7	Santa Rita 	4	Abril	2023-04-19T00:00:00	2024-11-08T07:00:00	4	Temperatura máxima	15.3
88803	7	Sololá	704	Santa Lucía Utatlán 	7	Santa Rita 	4	Abril	2023-04-19T00:00:00	2024-11-08T07:00:00	3	Temperatura mínima	15
88804	7	Sololá	704	Santa Lucía Utatlán 	7	Santa Rita 	4	Abril	2023-04-19T00:00:00	2024-11-08T07:00:00	5	Humedad	53
88805	7	Sololá	704	Santa Lucía Utatlán 	7	Santa Rita 	4	Abril	2023-04-19T00:00:00	2024-11-08T07:00:00	6	Velocidad del viento	4.8
88806	7	Sololá	704	Santa Lucía Utatlán 	7	Santa Rita 	4	Abril	2023-04-19T00:00:00	2024-11-08T07:00:00	7	Dirección del viento	4.83
88807	7	Sololá	704	Santa Lucía Utatlán 	7	Santa Rita 	4	Abril	2023-04-19T00:00:00	2024-11-08T07:00:00	1	Precipitación	0
88808	7	Sololá	704	Santa Lucía Utatlán 	7	Santa Rita 	4	Abril	2023-04-19T00:00:00	2024-11-08T07:00:00	8	Radiación solar	2
88809	7	Sololá	704	Santa Lucía Utatlán 	7	Santa Rita 	4	Abril	2023-04-19T00:00:00	2024-11-08T08:00:00	2	Temperatura media	18.8
88810	7	Sololá	704	Santa Lucía Utatlán 	7	Santa Rita 	4	Abril	2023-04-19T00:00:00	2024-11-08T08:00:00	4	Temperatura máxima	18.8
88811	7	Sololá	704	Santa Lucía Utatlán 	7	Santa Rita 	4	Abril	2023-04-19T00:00:00	2024-11-08T08:00:00	3	Temperatura mínima	15.1
88812	7	Sololá	704	Santa Lucía Utatlán 	7	Santa Rita 	4	Abril	2023-04-19T00:00:00	2024-11-08T08:00:00	5	Humedad	43
88813	7	Sololá	704	Santa Lucía Utatlán 	7	Santa Rita 	4	Abril	2023-04-19T00:00:00	2024-11-08T08:00:00	6	Velocidad del viento	3.2
88814	7	Sololá	704	Santa Lucía Utatlán 	7	Santa Rita 	4	Abril	2023-04-19T00:00:00	2024-11-08T08:00:00	7	Dirección del viento	3.22
88815	7	Sololá	704	Santa Lucía Utatlán 	7	Santa Rita 	4	Abril	2023-04-19T00:00:00	2024-11-08T08:00:00	1	Precipitación	0
88816	7	Sololá	704	Santa Lucía Utatlán 	7	Santa Rita 	4	Abril	2023-04-19T00:00:00	2024-11-08T08:00:00	8	Radiación solar	118
88817	7	Sololá	704	Santa Lucía Utatlán 	7	Santa Rita 	4	Abril	2023-04-19T00:00:00	2024-11-08T09:00:00	2	Temperatura media	21.2
88818	7	Sololá	704	Santa Lucía Utatlán 	7	Santa Rita 	4	Abril	2023-04-19T00:00:00	2024-11-08T09:00:00	4	Temperatura máxima	21.2
88819	7	Sololá	704	Santa Lucía Utatlán 	7	Santa Rita 	4	Abril	2023-04-19T00:00:00	2024-11-08T09:00:00	3	Temperatura mínima	18.7
88820	7	Sololá	704	Santa Lucía Utatlán 	7	Santa Rita 	4	Abril	2023-04-19T00:00:00	2024-11-08T09:00:00	5	Humedad	45
88821	7	Sololá	704	Santa Lucía Utatlán 	7	Santa Rita 	4	Abril	2023-04-19T00:00:00	2024-11-08T09:00:00	6	Velocidad del viento	3.2
88822	7	Sololá	704	Santa Lucía Utatlán 	7	Santa Rita 	4	Abril	2023-04-19T00:00:00	2024-11-08T09:00:00	7	Dirección del viento	3.22
88823	7	Sololá	704	Santa Lucía Utatlán 	7	Santa Rita 	4	Abril	2023-04-19T00:00:00	2024-11-08T09:00:00	1	Precipitación	0
88824	7	Sololá	704	Santa Lucía Utatlán 	7	Santa Rita 	4	Abril	2023-04-19T00:00:00	2024-11-08T09:00:00	8	Radiación solar	405
88825	7	Sololá	704	Santa Lucía Utatlán 	7	Santa Rita 	4	Abril	2023-04-19T00:00:00	2024-11-08T10:00:00	2	Temperatura media	23.4
88826	7	Sololá	704	Santa Lucía Utatlán 	7	Santa Rita 	4	Abril	2023-04-19T00:00:00	2024-11-08T10:00:00	4	Temperatura máxima	23.5
88827	7	Sololá	704	Santa Lucía Utatlán 	7	Santa Rita 	4	Abril	2023-04-19T00:00:00	2024-11-08T10:00:00	3	Temperatura mínima	21.3
88828	7	Sololá	704	Santa Lucía Utatlán 	7	Santa Rita 	4	Abril	2023-04-19T00:00:00	2024-11-08T10:00:00	5	Humedad	41
88829	7	Sololá	704	Santa Lucía Utatlán 	7	Santa Rita 	4	Abril	2023-04-19T00:00:00	2024-11-08T10:00:00	6	Velocidad del viento	4.8
88830	7	Sololá	704	Santa Lucía Utatlán 	7	Santa Rita 	4	Abril	2023-04-19T00:00:00	2024-11-08T10:00:00	7	Dirección del viento	4.83
88831	7	Sololá	704	Santa Lucía Utatlán 	7	Santa Rita 	4	Abril	2023-04-19T00:00:00	2024-11-08T10:00:00	1	Precipitación	0
88832	7	Sololá	704	Santa Lucía Utatlán 	7	Santa Rita 	4	Abril	2023-04-19T00:00:00	2024-11-08T10:00:00	8	Radiación solar	634
88833	7	Sololá	704	Santa Lucía Utatlán 	7	Santa Rita 	4	Abril	2023-04-19T00:00:00	2024-11-08T11:00:00	2	Temperatura media	25
88834	7	Sololá	704	Santa Lucía Utatlán 	7	Santa Rita 	4	Abril	2023-04-19T00:00:00	2024-11-08T11:00:00	4	Temperatura máxima	25
88835	7	Sololá	704	Santa Lucía Utatlán 	7	Santa Rita 	4	Abril	2023-04-19T00:00:00	2024-11-08T11:00:00	3	Temperatura mínima	23.4
88836	7	Sololá	704	Santa Lucía Utatlán 	7	Santa Rita 	4	Abril	2023-04-19T00:00:00	2024-11-08T11:00:00	5	Humedad	37
88837	7	Sololá	704	Santa Lucía Utatlán 	7	Santa Rita 	4	Abril	2023-04-19T00:00:00	2024-11-08T11:00:00	6	Velocidad del viento	8
88838	7	Sololá	704	Santa Lucía Utatlán 	7	Santa Rita 	4	Abril	2023-04-19T00:00:00	2024-11-08T11:00:00	7	Dirección del viento	8.05
88839	7	Sololá	704	Santa Lucía Utatlán 	7	Santa Rita 	4	Abril	2023-04-19T00:00:00	2024-11-08T11:00:00	1	Precipitación	0
88840	7	Sololá	704	Santa Lucía Utatlán 	7	Santa Rita 	4	Abril	2023-04-19T00:00:00	2024-11-08T11:00:00	8	Radiación solar	829
88841	7	Sololá	704	Santa Lucía Utatlán 	7	Santa Rita 	4	Abril	2023-04-19T00:00:00	2024-11-08T12:00:00	2	Temperatura media	26.3
88842	7	Sololá	704	Santa Lucía Utatlán 	7	Santa Rita 	4	Abril	2023-04-19T00:00:00	2024-11-08T12:00:00	4	Temperatura máxima	26.5
88843	7	Sololá	704	Santa Lucía Utatlán 	7	Santa Rita 	4	Abril	2023-04-19T00:00:00	2024-11-08T12:00:00	3	Temperatura mínima	25
88844	7	Sololá	704	Santa Lucía Utatlán 	7	Santa Rita 	4	Abril	2023-04-19T00:00:00	2024-11-08T12:00:00	5	Humedad	32
88845	7	Sololá	704	Santa Lucía Utatlán 	7	Santa Rita 	4	Abril	2023-04-19T00:00:00	2024-11-08T12:00:00	6	Velocidad del viento	9.7
88846	7	Sololá	704	Santa Lucía Utatlán 	7	Santa Rita 	4	Abril	2023-04-19T00:00:00	2024-11-08T12:00:00	7	Dirección del viento	9.66
88847	7	Sololá	704	Santa Lucía Utatlán 	7	Santa Rita 	4	Abril	2023-04-19T00:00:00	2024-11-08T12:00:00	1	Precipitación	0
88848	7	Sololá	704	Santa Lucía Utatlán 	7	Santa Rita 	4	Abril	2023-04-19T00:00:00	2024-11-08T12:00:00	8	Radiación solar	977
88849	7	Sololá	704	Santa Lucía Utatlán 	7	Santa Rita 	4	Abril	2023-04-19T00:00:00	2024-11-08T13:00:00	2	Temperatura media	26.2
88850	7	Sololá	704	Santa Lucía Utatlán 	7	Santa Rita 	4	Abril	2023-04-19T00:00:00	2024-11-08T13:00:00	4	Temperatura máxima	26.9
88851	7	Sololá	704	Santa Lucía Utatlán 	7	Santa Rita 	4	Abril	2023-04-19T00:00:00	2024-11-08T13:00:00	3	Temperatura mínima	25.9
88852	7	Sololá	704	Santa Lucía Utatlán 	7	Santa Rita 	4	Abril	2023-04-19T00:00:00	2024-11-08T13:00:00	5	Humedad	41
88853	7	Sololá	704	Santa Lucía Utatlán 	7	Santa Rita 	4	Abril	2023-04-19T00:00:00	2024-11-08T13:00:00	6	Velocidad del viento	11.3
88854	7	Sololá	704	Santa Lucía Utatlán 	7	Santa Rita 	4	Abril	2023-04-19T00:00:00	2024-11-08T13:00:00	7	Dirección del viento	11.27
88855	7	Sololá	704	Santa Lucía Utatlán 	7	Santa Rita 	4	Abril	2023-04-19T00:00:00	2024-11-08T13:00:00	1	Precipitación	0
88856	7	Sololá	704	Santa Lucía Utatlán 	7	Santa Rita 	4	Abril	2023-04-19T00:00:00	2024-11-08T13:00:00	8	Radiación solar	1038
88857	7	Sololá	704	Santa Lucía Utatlán 	7	Santa Rita 	4	Abril	2023-04-19T00:00:00	2024-11-08T14:00:00	2	Temperatura media	26.1
88858	7	Sololá	704	Santa Lucía Utatlán 	7	Santa Rita 	4	Abril	2023-04-19T00:00:00	2024-11-08T14:00:00	4	Temperatura máxima	27.2
88859	7	Sololá	704	Santa Lucía Utatlán 	7	Santa Rita 	4	Abril	2023-04-19T00:00:00	2024-11-08T14:00:00	3	Temperatura mínima	25.9
88860	7	Sololá	704	Santa Lucía Utatlán 	7	Santa Rita 	4	Abril	2023-04-19T00:00:00	2024-11-08T14:00:00	5	Humedad	55
88861	7	Sololá	704	Santa Lucía Utatlán 	7	Santa Rita 	4	Abril	2023-04-19T00:00:00	2024-11-08T14:00:00	6	Velocidad del viento	9.7
88862	7	Sololá	704	Santa Lucía Utatlán 	7	Santa Rita 	4	Abril	2023-04-19T00:00:00	2024-11-08T14:00:00	7	Dirección del viento	9.66
88863	7	Sololá	704	Santa Lucía Utatlán 	7	Santa Rita 	4	Abril	2023-04-19T00:00:00	2024-11-08T14:00:00	1	Precipitación	0
88864	7	Sololá	704	Santa Lucía Utatlán 	7	Santa Rita 	4	Abril	2023-04-19T00:00:00	2024-11-08T14:00:00	8	Radiación solar	917
88865	7	Sololá	704	Santa Lucía Utatlán 	7	Santa Rita 	4	Abril	2023-04-19T00:00:00	2024-11-08T15:00:00	2	Temperatura media	24.5
88866	7	Sololá	704	Santa Lucía Utatlán 	7	Santa Rita 	4	Abril	2023-04-19T00:00:00	2024-11-08T15:00:00	4	Temperatura máxima	26.1
88867	7	Sololá	704	Santa Lucía Utatlán 	7	Santa Rita 	4	Abril	2023-04-19T00:00:00	2024-11-08T15:00:00	3	Temperatura mínima	24.3
88868	7	Sololá	704	Santa Lucía Utatlán 	7	Santa Rita 	4	Abril	2023-04-19T00:00:00	2024-11-08T15:00:00	5	Humedad	68
88869	7	Sololá	704	Santa Lucía Utatlán 	7	Santa Rita 	4	Abril	2023-04-19T00:00:00	2024-11-08T15:00:00	6	Velocidad del viento	8
88870	7	Sololá	704	Santa Lucía Utatlán 	7	Santa Rita 	4	Abril	2023-04-19T00:00:00	2024-11-08T15:00:00	7	Dirección del viento	8.05
88871	7	Sololá	704	Santa Lucía Utatlán 	7	Santa Rita 	4	Abril	2023-04-19T00:00:00	2024-11-08T15:00:00	1	Precipitación	0
88872	7	Sololá	704	Santa Lucía Utatlán 	7	Santa Rita 	4	Abril	2023-04-19T00:00:00	2024-11-08T15:00:00	8	Radiación solar	344
88873	7	Sololá	704	Santa Lucía Utatlán 	7	Santa Rita 	4	Abril	2023-04-19T00:00:00	2024-11-08T16:00:00	2	Temperatura media	23.2
88874	7	Sololá	704	Santa Lucía Utatlán 	7	Santa Rita 	4	Abril	2023-04-19T00:00:00	2024-11-08T16:00:00	4	Temperatura máxima	24.6
88875	7	Sololá	704	Santa Lucía Utatlán 	7	Santa Rita 	4	Abril	2023-04-19T00:00:00	2024-11-08T16:00:00	3	Temperatura mínima	22.9
88876	7	Sololá	704	Santa Lucía Utatlán 	7	Santa Rita 	4	Abril	2023-04-19T00:00:00	2024-11-08T16:00:00	5	Humedad	74
88877	7	Sololá	704	Santa Lucía Utatlán 	7	Santa Rita 	4	Abril	2023-04-19T00:00:00	2024-11-08T16:00:00	6	Velocidad del viento	8
88878	7	Sololá	704	Santa Lucía Utatlán 	7	Santa Rita 	4	Abril	2023-04-19T00:00:00	2024-11-08T16:00:00	7	Dirección del viento	8.05
88879	7	Sololá	704	Santa Lucía Utatlán 	7	Santa Rita 	4	Abril	2023-04-19T00:00:00	2024-11-08T16:00:00	1	Precipitación	0
88880	7	Sololá	704	Santa Lucía Utatlán 	7	Santa Rita 	4	Abril	2023-04-19T00:00:00	2024-11-08T16:00:00	8	Radiación solar	181
88881	7	Sololá	704	Santa Lucía Utatlán 	7	Santa Rita 	4	Abril	2023-04-19T00:00:00	2024-11-08T17:00:00	2	Temperatura media	22.3
88882	7	Sololá	704	Santa Lucía Utatlán 	7	Santa Rita 	4	Abril	2023-04-19T00:00:00	2024-11-08T17:00:00	4	Temperatura máxima	24
88883	7	Sololá	704	Santa Lucía Utatlán 	7	Santa Rita 	4	Abril	2023-04-19T00:00:00	2024-11-08T17:00:00	3	Temperatura mínima	22.3
88884	7	Sololá	704	Santa Lucía Utatlán 	7	Santa Rita 	4	Abril	2023-04-19T00:00:00	2024-11-08T17:00:00	5	Humedad	79
88885	7	Sololá	704	Santa Lucía Utatlán 	7	Santa Rita 	4	Abril	2023-04-19T00:00:00	2024-11-08T17:00:00	6	Velocidad del viento	6.4
88886	7	Sololá	704	Santa Lucía Utatlán 	7	Santa Rita 	4	Abril	2023-04-19T00:00:00	2024-11-08T17:00:00	7	Dirección del viento	6.44
88887	7	Sololá	704	Santa Lucía Utatlán 	7	Santa Rita 	4	Abril	2023-04-19T00:00:00	2024-11-08T17:00:00	1	Precipitación	0
88888	7	Sololá	704	Santa Lucía Utatlán 	7	Santa Rita 	4	Abril	2023-04-19T00:00:00	2024-11-08T17:00:00	8	Radiación solar	167
88889	7	Sololá	704	Santa Lucía Utatlán 	7	Santa Rita 	4	Abril	2023-04-19T00:00:00	2024-11-08T18:00:00	2	Temperatura media	21.8
88890	7	Sololá	704	Santa Lucía Utatlán 	7	Santa Rita 	4	Abril	2023-04-19T00:00:00	2024-11-08T18:00:00	4	Temperatura máxima	22.3
88891	7	Sololá	704	Santa Lucía Utatlán 	7	Santa Rita 	4	Abril	2023-04-19T00:00:00	2024-11-08T18:00:00	3	Temperatura mínima	21.8
88892	7	Sololá	704	Santa Lucía Utatlán 	7	Santa Rita 	4	Abril	2023-04-19T00:00:00	2024-11-08T18:00:00	5	Humedad	82
88893	7	Sololá	704	Santa Lucía Utatlán 	7	Santa Rita 	4	Abril	2023-04-19T00:00:00	2024-11-08T18:00:00	6	Velocidad del viento	4.8
88894	7	Sololá	704	Santa Lucía Utatlán 	7	Santa Rita 	4	Abril	2023-04-19T00:00:00	2024-11-08T18:00:00	7	Dirección del viento	4.83
88895	7	Sololá	704	Santa Lucía Utatlán 	7	Santa Rita 	4	Abril	2023-04-19T00:00:00	2024-11-08T18:00:00	1	Precipitación	0
88896	7	Sololá	704	Santa Lucía Utatlán 	7	Santa Rita 	4	Abril	2023-04-19T00:00:00	2024-11-08T18:00:00	8	Radiación solar	87
88897	7	Sololá	704	Santa Lucía Utatlán 	7	Santa Rita 	4	Abril	2023-04-19T00:00:00	2024-11-08T19:00:00	2	Temperatura media	21.2
88898	7	Sololá	704	Santa Lucía Utatlán 	7	Santa Rita 	4	Abril	2023-04-19T00:00:00	2024-11-08T19:00:00	4	Temperatura máxima	21.8
88899	7	Sololá	704	Santa Lucía Utatlán 	7	Santa Rita 	4	Abril	2023-04-19T00:00:00	2024-11-08T19:00:00	3	Temperatura mínima	21.1
88900	7	Sololá	704	Santa Lucía Utatlán 	7	Santa Rita 	4	Abril	2023-04-19T00:00:00	2024-11-08T19:00:00	5	Humedad	85
88901	7	Sololá	704	Santa Lucía Utatlán 	7	Santa Rita 	4	Abril	2023-04-19T00:00:00	2024-11-08T19:00:00	6	Velocidad del viento	1.6
88902	7	Sololá	704	Santa Lucía Utatlán 	7	Santa Rita 	4	Abril	2023-04-19T00:00:00	2024-11-08T19:00:00	7	Dirección del viento	1.61
88903	7	Sololá	704	Santa Lucía Utatlán 	7	Santa Rita 	4	Abril	2023-04-19T00:00:00	2024-11-08T19:00:00	1	Precipitación	0
88904	7	Sololá	704	Santa Lucía Utatlán 	7	Santa Rita 	4	Abril	2023-04-19T00:00:00	2024-11-08T19:00:00	8	Radiación solar	0
88905	7	Sololá	704	Santa Lucía Utatlán 	7	Santa Rita 	4	Abril	2023-04-19T00:00:00	2024-11-08T20:00:00	2	Temperatura media	20.3
88906	7	Sololá	704	Santa Lucía Utatlán 	7	Santa Rita 	4	Abril	2023-04-19T00:00:00	2024-11-08T20:00:00	4	Temperatura máxima	21.1
88907	7	Sololá	704	Santa Lucía Utatlán 	7	Santa Rita 	4	Abril	2023-04-19T00:00:00	2024-11-08T20:00:00	3	Temperatura mínima	20.3
88908	7	Sololá	704	Santa Lucía Utatlán 	7	Santa Rita 	4	Abril	2023-04-19T00:00:00	2024-11-08T20:00:00	5	Humedad	87
88909	7	Sololá	704	Santa Lucía Utatlán 	7	Santa Rita 	4	Abril	2023-04-19T00:00:00	2024-11-08T20:00:00	6	Velocidad del viento	1.6
88910	7	Sololá	704	Santa Lucía Utatlán 	7	Santa Rita 	4	Abril	2023-04-19T00:00:00	2024-11-08T20:00:00	7	Dirección del viento	1.61
88911	7	Sololá	704	Santa Lucía Utatlán 	7	Santa Rita 	4	Abril	2023-04-19T00:00:00	2024-11-08T20:00:00	1	Precipitación	0
88912	7	Sololá	704	Santa Lucía Utatlán 	7	Santa Rita 	4	Abril	2023-04-19T00:00:00	2024-11-08T20:00:00	8	Radiación solar	0
88913	7	Sololá	704	Santa Lucía Utatlán 	7	Santa Rita 	4	Abril	2023-04-19T00:00:00	2024-11-08T21:00:00	2	Temperatura media	19.8
88914	7	Sololá	704	Santa Lucía Utatlán 	7	Santa Rita 	4	Abril	2023-04-19T00:00:00	2024-11-08T21:00:00	4	Temperatura máxima	20.3
88915	7	Sololá	704	Santa Lucía Utatlán 	7	Santa Rita 	4	Abril	2023-04-19T00:00:00	2024-11-08T21:00:00	3	Temperatura mínima	19.8
88916	7	Sololá	704	Santa Lucía Utatlán 	7	Santa Rita 	4	Abril	2023-04-19T00:00:00	2024-11-08T21:00:00	5	Humedad	88
88917	7	Sololá	704	Santa Lucía Utatlán 	7	Santa Rita 	4	Abril	2023-04-19T00:00:00	2024-11-08T21:00:00	6	Velocidad del viento	1.6
88918	7	Sololá	704	Santa Lucía Utatlán 	7	Santa Rita 	4	Abril	2023-04-19T00:00:00	2024-11-08T21:00:00	7	Dirección del viento	1.61
88919	7	Sololá	704	Santa Lucía Utatlán 	7	Santa Rita 	4	Abril	2023-04-19T00:00:00	2024-11-08T21:00:00	1	Precipitación	0
88920	7	Sololá	704	Santa Lucía Utatlán 	7	Santa Rita 	4	Abril	2023-04-19T00:00:00	2024-11-08T21:00:00	8	Radiación solar	0
88921	7	Sololá	704	Santa Lucía Utatlán 	7	Santa Rita 	4	Abril	2023-04-19T00:00:00	2024-11-08T22:00:00	2	Temperatura media	18.7
88922	7	Sololá	704	Santa Lucía Utatlán 	7	Santa Rita 	4	Abril	2023-04-19T00:00:00	2024-11-08T22:00:00	4	Temperatura máxima	19.9
88923	7	Sololá	704	Santa Lucía Utatlán 	7	Santa Rita 	4	Abril	2023-04-19T00:00:00	2024-11-08T22:00:00	3	Temperatura mínima	18.7
88924	7	Sololá	704	Santa Lucía Utatlán 	7	Santa Rita 	4	Abril	2023-04-19T00:00:00	2024-11-08T22:00:00	5	Humedad	84
88925	7	Sololá	704	Santa Lucía Utatlán 	7	Santa Rita 	4	Abril	2023-04-19T00:00:00	2024-11-08T22:00:00	6	Velocidad del viento	1.6
88926	7	Sololá	704	Santa Lucía Utatlán 	7	Santa Rita 	4	Abril	2023-04-19T00:00:00	2024-11-08T22:00:00	7	Dirección del viento	1.61
88927	7	Sololá	704	Santa Lucía Utatlán 	7	Santa Rita 	4	Abril	2023-04-19T00:00:00	2024-11-08T22:00:00	1	Precipitación	0
88928	7	Sololá	704	Santa Lucía Utatlán 	7	Santa Rita 	4	Abril	2023-04-19T00:00:00	2024-11-08T22:00:00	8	Radiación solar	0
88929	7	Sololá	704	Santa Lucía Utatlán 	7	Santa Rita 	4	Abril	2023-04-19T00:00:00	2024-11-08T23:00:00	2	Temperatura media	19.5
88930	7	Sololá	704	Santa Lucía Utatlán 	7	Santa Rita 	4	Abril	2023-04-19T00:00:00	2024-11-08T23:00:00	4	Temperatura máxima	19.5
88931	7	Sololá	704	Santa Lucía Utatlán 	7	Santa Rita 	4	Abril	2023-04-19T00:00:00	2024-11-08T23:00:00	3	Temperatura mínima	18.6
88932	7	Sololá	704	Santa Lucía Utatlán 	7	Santa Rita 	4	Abril	2023-04-19T00:00:00	2024-11-08T23:00:00	5	Humedad	79
88933	7	Sololá	704	Santa Lucía Utatlán 	7	Santa Rita 	4	Abril	2023-04-19T00:00:00	2024-11-08T23:00:00	6	Velocidad del viento	1.6
88934	7	Sololá	704	Santa Lucía Utatlán 	7	Santa Rita 	4	Abril	2023-04-19T00:00:00	2024-11-08T23:00:00	7	Dirección del viento	1.61
88935	7	Sololá	704	Santa Lucía Utatlán 	7	Santa Rita 	4	Abril	2023-04-19T00:00:00	2024-11-08T23:00:00	1	Precipitación	0
88936	7	Sololá	704	Santa Lucía Utatlán 	7	Santa Rita 	4	Abril	2023-04-19T00:00:00	2024-11-08T23:00:00	8	Radiación solar	0
88937	7	Sololá	704	Santa Lucía Utatlán 	7	Santa Rita 	4	Abril	2023-04-20T00:00:00	2024-11-08T00:00:00	2	Temperatura media	18.2
88938	7	Sololá	704	Santa Lucía Utatlán 	7	Santa Rita 	4	Abril	2023-04-20T00:00:00	2024-11-08T00:00:00	4	Temperatura máxima	20.4
88939	7	Sololá	704	Santa Lucía Utatlán 	7	Santa Rita 	4	Abril	2023-04-20T00:00:00	2024-11-08T00:00:00	3	Temperatura mínima	18.2
88940	7	Sololá	704	Santa Lucía Utatlán 	7	Santa Rita 	4	Abril	2023-04-20T00:00:00	2024-11-08T00:00:00	5	Humedad	79
88941	7	Sololá	704	Santa Lucía Utatlán 	7	Santa Rita 	4	Abril	2023-04-20T00:00:00	2024-11-08T00:00:00	6	Velocidad del viento	3.2
88942	7	Sololá	704	Santa Lucía Utatlán 	7	Santa Rita 	4	Abril	2023-04-20T00:00:00	2024-11-08T00:00:00	7	Dirección del viento	3.22
88943	7	Sololá	704	Santa Lucía Utatlán 	7	Santa Rita 	4	Abril	2023-04-20T00:00:00	2024-11-08T00:00:00	1	Precipitación	0
88944	7	Sololá	704	Santa Lucía Utatlán 	7	Santa Rita 	4	Abril	2023-04-20T00:00:00	2024-11-08T00:00:00	8	Radiación solar	0
88945	7	Sololá	704	Santa Lucía Utatlán 	7	Santa Rita 	4	Abril	2023-04-20T00:00:00	2024-11-08T01:00:00	2	Temperatura media	17.7
88946	7	Sololá	704	Santa Lucía Utatlán 	7	Santa Rita 	4	Abril	2023-04-20T00:00:00	2024-11-08T01:00:00	4	Temperatura máxima	19.3
88947	7	Sololá	704	Santa Lucía Utatlán 	7	Santa Rita 	4	Abril	2023-04-20T00:00:00	2024-11-08T01:00:00	3	Temperatura mínima	17.5
88948	7	Sololá	704	Santa Lucía Utatlán 	7	Santa Rita 	4	Abril	2023-04-20T00:00:00	2024-11-08T01:00:00	5	Humedad	77
88949	7	Sololá	704	Santa Lucía Utatlán 	7	Santa Rita 	4	Abril	2023-04-20T00:00:00	2024-11-08T01:00:00	6	Velocidad del viento	3.2
88950	7	Sololá	704	Santa Lucía Utatlán 	7	Santa Rita 	4	Abril	2023-04-20T00:00:00	2024-11-08T01:00:00	7	Dirección del viento	3.22
88951	7	Sololá	704	Santa Lucía Utatlán 	7	Santa Rita 	4	Abril	2023-04-20T00:00:00	2024-11-08T01:00:00	1	Precipitación	0
88952	7	Sololá	704	Santa Lucía Utatlán 	7	Santa Rita 	4	Abril	2023-04-20T00:00:00	2024-11-08T01:00:00	8	Radiación solar	0
88953	7	Sololá	704	Santa Lucía Utatlán 	7	Santa Rita 	4	Abril	2023-04-20T00:00:00	2024-11-08T02:00:00	2	Temperatura media	17.7
88954	7	Sololá	704	Santa Lucía Utatlán 	7	Santa Rita 	4	Abril	2023-04-20T00:00:00	2024-11-08T02:00:00	4	Temperatura máxima	18.7
88955	7	Sololá	704	Santa Lucía Utatlán 	7	Santa Rita 	4	Abril	2023-04-20T00:00:00	2024-11-08T02:00:00	3	Temperatura mínima	16.9
88956	7	Sololá	704	Santa Lucía Utatlán 	7	Santa Rita 	4	Abril	2023-04-20T00:00:00	2024-11-08T02:00:00	5	Humedad	71
88957	7	Sololá	704	Santa Lucía Utatlán 	7	Santa Rita 	4	Abril	2023-04-20T00:00:00	2024-11-08T02:00:00	6	Velocidad del viento	1.6
88958	7	Sololá	704	Santa Lucía Utatlán 	7	Santa Rita 	4	Abril	2023-04-20T00:00:00	2024-11-08T02:00:00	7	Dirección del viento	1.61
88959	7	Sololá	704	Santa Lucía Utatlán 	7	Santa Rita 	4	Abril	2023-04-20T00:00:00	2024-11-08T02:00:00	1	Precipitación	0
88960	7	Sololá	704	Santa Lucía Utatlán 	7	Santa Rita 	4	Abril	2023-04-20T00:00:00	2024-11-08T02:00:00	8	Radiación solar	0
88961	7	Sololá	704	Santa Lucía Utatlán 	7	Santa Rita 	4	Abril	2023-04-20T00:00:00	2024-11-08T03:00:00	2	Temperatura media	15.5
88962	7	Sololá	704	Santa Lucía Utatlán 	7	Santa Rita 	4	Abril	2023-04-20T00:00:00	2024-11-08T03:00:00	4	Temperatura máxima	17.8
88963	7	Sololá	704	Santa Lucía Utatlán 	7	Santa Rita 	4	Abril	2023-04-20T00:00:00	2024-11-08T03:00:00	3	Temperatura mínima	15.5
88964	7	Sololá	704	Santa Lucía Utatlán 	7	Santa Rita 	4	Abril	2023-04-20T00:00:00	2024-11-08T03:00:00	5	Humedad	74
88965	7	Sololá	704	Santa Lucía Utatlán 	7	Santa Rita 	4	Abril	2023-04-20T00:00:00	2024-11-08T03:00:00	6	Velocidad del viento	3.2
88966	7	Sololá	704	Santa Lucía Utatlán 	7	Santa Rita 	4	Abril	2023-04-20T00:00:00	2024-11-08T03:00:00	7	Dirección del viento	3.22
88967	7	Sololá	704	Santa Lucía Utatlán 	7	Santa Rita 	4	Abril	2023-04-20T00:00:00	2024-11-08T03:00:00	1	Precipitación	0
88968	7	Sololá	704	Santa Lucía Utatlán 	7	Santa Rita 	4	Abril	2023-04-20T00:00:00	2024-11-08T03:00:00	8	Radiación solar	0
88969	7	Sololá	704	Santa Lucía Utatlán 	7	Santa Rita 	4	Abril	2023-04-20T00:00:00	2024-11-08T04:00:00	2	Temperatura media	14.6
88970	7	Sololá	704	Santa Lucía Utatlán 	7	Santa Rita 	4	Abril	2023-04-20T00:00:00	2024-11-08T04:00:00	4	Temperatura máxima	16.1
88971	7	Sololá	704	Santa Lucía Utatlán 	7	Santa Rita 	4	Abril	2023-04-20T00:00:00	2024-11-08T04:00:00	3	Temperatura mínima	14.5
88972	7	Sololá	704	Santa Lucía Utatlán 	7	Santa Rita 	4	Abril	2023-04-20T00:00:00	2024-11-08T04:00:00	5	Humedad	68
88973	7	Sololá	704	Santa Lucía Utatlán 	7	Santa Rita 	4	Abril	2023-04-20T00:00:00	2024-11-08T04:00:00	6	Velocidad del viento	3.2
88974	7	Sololá	704	Santa Lucía Utatlán 	7	Santa Rita 	4	Abril	2023-04-20T00:00:00	2024-11-08T04:00:00	7	Dirección del viento	3.22
88975	7	Sololá	704	Santa Lucía Utatlán 	7	Santa Rita 	4	Abril	2023-04-20T00:00:00	2024-11-08T04:00:00	1	Precipitación	0
88976	7	Sololá	704	Santa Lucía Utatlán 	7	Santa Rita 	4	Abril	2023-04-20T00:00:00	2024-11-08T04:00:00	8	Radiación solar	0
88977	7	Sololá	704	Santa Lucía Utatlán 	7	Santa Rita 	4	Abril	2023-04-20T00:00:00	2024-11-08T05:00:00	2	Temperatura media	15.3
88978	7	Sololá	704	Santa Lucía Utatlán 	7	Santa Rita 	4	Abril	2023-04-20T00:00:00	2024-11-08T05:00:00	4	Temperatura máxima	15.4
88979	7	Sololá	704	Santa Lucía Utatlán 	7	Santa Rita 	4	Abril	2023-04-20T00:00:00	2024-11-08T05:00:00	3	Temperatura mínima	14.6
88980	7	Sololá	704	Santa Lucía Utatlán 	7	Santa Rita 	4	Abril	2023-04-20T00:00:00	2024-11-08T05:00:00	5	Humedad	69
88981	7	Sololá	704	Santa Lucía Utatlán 	7	Santa Rita 	4	Abril	2023-04-20T00:00:00	2024-11-08T05:00:00	6	Velocidad del viento	4.8
88982	7	Sololá	704	Santa Lucía Utatlán 	7	Santa Rita 	4	Abril	2023-04-20T00:00:00	2024-11-08T05:00:00	7	Dirección del viento	4.83
88983	7	Sololá	704	Santa Lucía Utatlán 	7	Santa Rita 	4	Abril	2023-04-20T00:00:00	2024-11-08T05:00:00	1	Precipitación	0
88984	7	Sololá	704	Santa Lucía Utatlán 	7	Santa Rita 	4	Abril	2023-04-20T00:00:00	2024-11-08T05:00:00	8	Radiación solar	0
88985	7	Sololá	704	Santa Lucía Utatlán 	7	Santa Rita 	4	Abril	2023-04-20T00:00:00	2024-11-08T06:00:00	2	Temperatura media	14.2
88986	7	Sololá	704	Santa Lucía Utatlán 	7	Santa Rita 	4	Abril	2023-04-20T00:00:00	2024-11-08T06:00:00	4	Temperatura máxima	15.3
88987	7	Sololá	704	Santa Lucía Utatlán 	7	Santa Rita 	4	Abril	2023-04-20T00:00:00	2024-11-08T06:00:00	3	Temperatura mínima	14.2
88988	7	Sololá	704	Santa Lucía Utatlán 	7	Santa Rita 	4	Abril	2023-04-20T00:00:00	2024-11-08T06:00:00	5	Humedad	67
88989	7	Sololá	704	Santa Lucía Utatlán 	7	Santa Rita 	4	Abril	2023-04-20T00:00:00	2024-11-08T06:00:00	6	Velocidad del viento	3.2
88990	7	Sololá	704	Santa Lucía Utatlán 	7	Santa Rita 	4	Abril	2023-04-20T00:00:00	2024-11-08T06:00:00	7	Dirección del viento	3.22
88991	7	Sololá	704	Santa Lucía Utatlán 	7	Santa Rita 	4	Abril	2023-04-20T00:00:00	2024-11-08T06:00:00	1	Precipitación	0
88992	7	Sololá	704	Santa Lucía Utatlán 	7	Santa Rita 	4	Abril	2023-04-20T00:00:00	2024-11-08T06:00:00	8	Radiación solar	0
88993	7	Sololá	704	Santa Lucía Utatlán 	7	Santa Rita 	4	Abril	2023-04-20T00:00:00	2024-11-08T07:00:00	2	Temperatura media	14.4
88994	7	Sololá	704	Santa Lucía Utatlán 	7	Santa Rita 	4	Abril	2023-04-20T00:00:00	2024-11-08T07:00:00	4	Temperatura máxima	15.1
88995	7	Sololá	704	Santa Lucía Utatlán 	7	Santa Rita 	4	Abril	2023-04-20T00:00:00	2024-11-08T07:00:00	3	Temperatura mínima	14
88996	7	Sololá	704	Santa Lucía Utatlán 	7	Santa Rita 	4	Abril	2023-04-20T00:00:00	2024-11-08T07:00:00	5	Humedad	54
88997	7	Sololá	704	Santa Lucía Utatlán 	7	Santa Rita 	4	Abril	2023-04-20T00:00:00	2024-11-08T07:00:00	6	Velocidad del viento	3.2
88998	7	Sololá	704	Santa Lucía Utatlán 	7	Santa Rita 	4	Abril	2023-04-20T00:00:00	2024-11-08T07:00:00	7	Dirección del viento	3.22
88999	7	Sololá	704	Santa Lucía Utatlán 	7	Santa Rita 	4	Abril	2023-04-20T00:00:00	2024-11-08T07:00:00	1	Precipitación	0
89000	7	Sololá	704	Santa Lucía Utatlán 	7	Santa Rita 	4	Abril	2023-04-20T00:00:00	2024-11-08T07:00:00	8	Radiación solar	1
89001	7	Sololá	704	Santa Lucía Utatlán 	7	Santa Rita 	4	Abril	2023-04-20T00:00:00	2024-11-08T08:00:00	2	Temperatura media	16.4
89002	7	Sololá	704	Santa Lucía Utatlán 	7	Santa Rita 	4	Abril	2023-04-20T00:00:00	2024-11-08T08:00:00	4	Temperatura máxima	16.5
89003	7	Sololá	704	Santa Lucía Utatlán 	7	Santa Rita 	4	Abril	2023-04-20T00:00:00	2024-11-08T08:00:00	3	Temperatura mínima	14.4
89004	7	Sololá	704	Santa Lucía Utatlán 	7	Santa Rita 	4	Abril	2023-04-20T00:00:00	2024-11-08T08:00:00	5	Humedad	60
89005	7	Sololá	704	Santa Lucía Utatlán 	7	Santa Rita 	4	Abril	2023-04-20T00:00:00	2024-11-08T08:00:00	6	Velocidad del viento	1.6
89006	7	Sololá	704	Santa Lucía Utatlán 	7	Santa Rita 	4	Abril	2023-04-20T00:00:00	2024-11-08T08:00:00	7	Dirección del viento	1.61
89007	7	Sololá	704	Santa Lucía Utatlán 	7	Santa Rita 	4	Abril	2023-04-20T00:00:00	2024-11-08T08:00:00	1	Precipitación	0
89008	7	Sololá	704	Santa Lucía Utatlán 	7	Santa Rita 	4	Abril	2023-04-20T00:00:00	2024-11-08T08:00:00	8	Radiación solar	66
89009	7	Sololá	704	Santa Lucía Utatlán 	7	Santa Rita 	4	Abril	2023-04-20T00:00:00	2024-11-08T09:00:00	2	Temperatura media	19.6
89010	7	Sololá	704	Santa Lucía Utatlán 	7	Santa Rita 	4	Abril	2023-04-20T00:00:00	2024-11-08T09:00:00	4	Temperatura máxima	19.6
89011	7	Sololá	704	Santa Lucía Utatlán 	7	Santa Rita 	4	Abril	2023-04-20T00:00:00	2024-11-08T09:00:00	3	Temperatura mínima	16.5
89012	7	Sololá	704	Santa Lucía Utatlán 	7	Santa Rita 	4	Abril	2023-04-20T00:00:00	2024-11-08T09:00:00	5	Humedad	52
89013	7	Sololá	704	Santa Lucía Utatlán 	7	Santa Rita 	4	Abril	2023-04-20T00:00:00	2024-11-08T09:00:00	6	Velocidad del viento	1.6
89014	7	Sololá	704	Santa Lucía Utatlán 	7	Santa Rita 	4	Abril	2023-04-20T00:00:00	2024-11-08T09:00:00	7	Dirección del viento	1.61
89015	7	Sololá	704	Santa Lucía Utatlán 	7	Santa Rita 	4	Abril	2023-04-20T00:00:00	2024-11-08T09:00:00	1	Precipitación	0
89016	7	Sololá	704	Santa Lucía Utatlán 	7	Santa Rita 	4	Abril	2023-04-20T00:00:00	2024-11-08T09:00:00	8	Radiación solar	263
89017	7	Sololá	704	Santa Lucía Utatlán 	7	Santa Rita 	4	Abril	2023-04-20T00:00:00	2024-11-08T10:00:00	2	Temperatura media	21.5
89018	7	Sololá	704	Santa Lucía Utatlán 	7	Santa Rita 	4	Abril	2023-04-20T00:00:00	2024-11-08T10:00:00	4	Temperatura máxima	21.6
89019	7	Sololá	704	Santa Lucía Utatlán 	7	Santa Rita 	4	Abril	2023-04-20T00:00:00	2024-11-08T10:00:00	3	Temperatura mínima	19.6
89020	7	Sololá	704	Santa Lucía Utatlán 	7	Santa Rita 	4	Abril	2023-04-20T00:00:00	2024-11-08T10:00:00	5	Humedad	53
89021	7	Sololá	704	Santa Lucía Utatlán 	7	Santa Rita 	4	Abril	2023-04-20T00:00:00	2024-11-08T10:00:00	6	Velocidad del viento	4.8
89022	7	Sololá	704	Santa Lucía Utatlán 	7	Santa Rita 	4	Abril	2023-04-20T00:00:00	2024-11-08T10:00:00	7	Dirección del viento	4.83
89023	7	Sololá	704	Santa Lucía Utatlán 	7	Santa Rita 	4	Abril	2023-04-20T00:00:00	2024-11-08T10:00:00	1	Precipitación	0
89024	7	Sololá	704	Santa Lucía Utatlán 	7	Santa Rita 	4	Abril	2023-04-20T00:00:00	2024-11-08T10:00:00	8	Radiación solar	472
89025	7	Sololá	704	Santa Lucía Utatlán 	7	Santa Rita 	4	Abril	2023-04-20T00:00:00	2024-11-08T11:00:00	2	Temperatura media	23
89026	7	Sololá	704	Santa Lucía Utatlán 	7	Santa Rita 	4	Abril	2023-04-20T00:00:00	2024-11-08T11:00:00	4	Temperatura máxima	23.2
89027	7	Sololá	704	Santa Lucía Utatlán 	7	Santa Rita 	4	Abril	2023-04-20T00:00:00	2024-11-08T11:00:00	3	Temperatura mínima	21.4
89028	7	Sololá	704	Santa Lucía Utatlán 	7	Santa Rita 	4	Abril	2023-04-20T00:00:00	2024-11-08T11:00:00	5	Humedad	51
89029	7	Sololá	704	Santa Lucía Utatlán 	7	Santa Rita 	4	Abril	2023-04-20T00:00:00	2024-11-08T11:00:00	6	Velocidad del viento	4.8
89030	7	Sololá	704	Santa Lucía Utatlán 	7	Santa Rita 	4	Abril	2023-04-20T00:00:00	2024-11-08T11:00:00	7	Dirección del viento	4.83
89031	7	Sololá	704	Santa Lucía Utatlán 	7	Santa Rita 	4	Abril	2023-04-20T00:00:00	2024-11-08T11:00:00	1	Precipitación	0
89032	7	Sololá	704	Santa Lucía Utatlán 	7	Santa Rita 	4	Abril	2023-04-20T00:00:00	2024-11-08T11:00:00	8	Radiación solar	691
89033	7	Sololá	704	Santa Lucía Utatlán 	7	Santa Rita 	4	Abril	2023-04-20T00:00:00	2024-11-08T12:00:00	2	Temperatura media	23.6
89034	7	Sololá	704	Santa Lucía Utatlán 	7	Santa Rita 	4	Abril	2023-04-20T00:00:00	2024-11-08T12:00:00	4	Temperatura máxima	24.4
89035	7	Sololá	704	Santa Lucía Utatlán 	7	Santa Rita 	4	Abril	2023-04-20T00:00:00	2024-11-08T12:00:00	3	Temperatura mínima	22.9
89036	7	Sololá	704	Santa Lucía Utatlán 	7	Santa Rita 	4	Abril	2023-04-20T00:00:00	2024-11-08T12:00:00	5	Humedad	57
89037	7	Sololá	704	Santa Lucía Utatlán 	7	Santa Rita 	4	Abril	2023-04-20T00:00:00	2024-11-08T12:00:00	6	Velocidad del viento	6.4
89038	7	Sololá	704	Santa Lucía Utatlán 	7	Santa Rita 	4	Abril	2023-04-20T00:00:00	2024-11-08T12:00:00	7	Dirección del viento	6.44
89039	7	Sololá	704	Santa Lucía Utatlán 	7	Santa Rita 	4	Abril	2023-04-20T00:00:00	2024-11-08T12:00:00	1	Precipitación	0
89040	7	Sololá	704	Santa Lucía Utatlán 	7	Santa Rita 	4	Abril	2023-04-20T00:00:00	2024-11-08T12:00:00	8	Radiación solar	656
89041	7	Sololá	704	Santa Lucía Utatlán 	7	Santa Rita 	4	Abril	2023-04-20T00:00:00	2024-11-08T13:00:00	2	Temperatura media	23.6
89042	7	Sololá	704	Santa Lucía Utatlán 	7	Santa Rita 	4	Abril	2023-04-20T00:00:00	2024-11-08T13:00:00	4	Temperatura máxima	24.3
89043	7	Sololá	704	Santa Lucía Utatlán 	7	Santa Rita 	4	Abril	2023-04-20T00:00:00	2024-11-08T13:00:00	3	Temperatura mínima	23.3
89044	7	Sololá	704	Santa Lucía Utatlán 	7	Santa Rita 	4	Abril	2023-04-20T00:00:00	2024-11-08T13:00:00	5	Humedad	62
89045	7	Sololá	704	Santa Lucía Utatlán 	7	Santa Rita 	4	Abril	2023-04-20T00:00:00	2024-11-08T13:00:00	6	Velocidad del viento	6.4
89046	7	Sololá	704	Santa Lucía Utatlán 	7	Santa Rita 	4	Abril	2023-04-20T00:00:00	2024-11-08T13:00:00	7	Dirección del viento	6.44
89047	7	Sololá	704	Santa Lucía Utatlán 	7	Santa Rita 	4	Abril	2023-04-20T00:00:00	2024-11-08T13:00:00	1	Precipitación	0
89048	7	Sololá	704	Santa Lucía Utatlán 	7	Santa Rita 	4	Abril	2023-04-20T00:00:00	2024-11-08T13:00:00	8	Radiación solar	655
89049	7	Sololá	704	Santa Lucía Utatlán 	7	Santa Rita 	4	Abril	2023-04-20T00:00:00	2024-11-08T14:00:00	2	Temperatura media	24.6
89050	7	Sololá	704	Santa Lucía Utatlán 	7	Santa Rita 	4	Abril	2023-04-20T00:00:00	2024-11-08T14:00:00	4	Temperatura máxima	24.6
89051	7	Sololá	704	Santa Lucía Utatlán 	7	Santa Rita 	4	Abril	2023-04-20T00:00:00	2024-11-08T14:00:00	3	Temperatura mínima	23.5
89052	7	Sololá	704	Santa Lucía Utatlán 	7	Santa Rita 	4	Abril	2023-04-20T00:00:00	2024-11-08T14:00:00	5	Humedad	62
89053	7	Sololá	704	Santa Lucía Utatlán 	7	Santa Rita 	4	Abril	2023-04-20T00:00:00	2024-11-08T14:00:00	6	Velocidad del viento	6.4
89054	7	Sololá	704	Santa Lucía Utatlán 	7	Santa Rita 	4	Abril	2023-04-20T00:00:00	2024-11-08T14:00:00	7	Dirección del viento	6.44
89055	7	Sololá	704	Santa Lucía Utatlán 	7	Santa Rita 	4	Abril	2023-04-20T00:00:00	2024-11-08T14:00:00	1	Precipitación	0
89056	7	Sololá	704	Santa Lucía Utatlán 	7	Santa Rita 	4	Abril	2023-04-20T00:00:00	2024-11-08T14:00:00	8	Radiación solar	691
89057	7	Sololá	704	Santa Lucía Utatlán 	7	Santa Rita 	4	Abril	2023-04-20T00:00:00	2024-11-08T15:00:00	2	Temperatura media	25.4
89058	7	Sololá	704	Santa Lucía Utatlán 	7	Santa Rita 	4	Abril	2023-04-20T00:00:00	2024-11-08T15:00:00	4	Temperatura máxima	25.7
89059	7	Sololá	704	Santa Lucía Utatlán 	7	Santa Rita 	4	Abril	2023-04-20T00:00:00	2024-11-08T15:00:00	3	Temperatura mínima	24.5
89060	7	Sololá	704	Santa Lucía Utatlán 	7	Santa Rita 	4	Abril	2023-04-20T00:00:00	2024-11-08T15:00:00	5	Humedad	51
89061	7	Sololá	704	Santa Lucía Utatlán 	7	Santa Rita 	4	Abril	2023-04-20T00:00:00	2024-11-08T15:00:00	6	Velocidad del viento	8
89062	7	Sololá	704	Santa Lucía Utatlán 	7	Santa Rita 	4	Abril	2023-04-20T00:00:00	2024-11-08T15:00:00	7	Dirección del viento	8.05
89063	7	Sololá	704	Santa Lucía Utatlán 	7	Santa Rita 	4	Abril	2023-04-20T00:00:00	2024-11-08T15:00:00	1	Precipitación	0
89064	7	Sololá	704	Santa Lucía Utatlán 	7	Santa Rita 	4	Abril	2023-04-20T00:00:00	2024-11-08T15:00:00	8	Radiación solar	725
89065	7	Sololá	704	Santa Lucía Utatlán 	7	Santa Rita 	4	Abril	2023-04-20T00:00:00	2024-11-08T16:00:00	2	Temperatura media	25.4
89066	7	Sololá	704	Santa Lucía Utatlán 	7	Santa Rita 	4	Abril	2023-04-20T00:00:00	2024-11-08T16:00:00	4	Temperatura máxima	25.7
89067	7	Sololá	704	Santa Lucía Utatlán 	7	Santa Rita 	4	Abril	2023-04-20T00:00:00	2024-11-08T16:00:00	3	Temperatura mínima	25.3
89068	7	Sololá	704	Santa Lucía Utatlán 	7	Santa Rita 	4	Abril	2023-04-20T00:00:00	2024-11-08T16:00:00	5	Humedad	60
89069	7	Sololá	704	Santa Lucía Utatlán 	7	Santa Rita 	4	Abril	2023-04-20T00:00:00	2024-11-08T16:00:00	6	Velocidad del viento	9.7
89070	7	Sololá	704	Santa Lucía Utatlán 	7	Santa Rita 	4	Abril	2023-04-20T00:00:00	2024-11-08T16:00:00	7	Dirección del viento	9.66
89071	7	Sololá	704	Santa Lucía Utatlán 	7	Santa Rita 	4	Abril	2023-04-20T00:00:00	2024-11-08T16:00:00	1	Precipitación	0
89072	7	Sololá	704	Santa Lucía Utatlán 	7	Santa Rita 	4	Abril	2023-04-20T00:00:00	2024-11-08T16:00:00	8	Radiación solar	569
89073	7	Sololá	704	Santa Lucía Utatlán 	7	Santa Rita 	4	Abril	2023-04-20T00:00:00	2024-11-08T17:00:00	2	Temperatura media	22.9
89074	7	Sololá	704	Santa Lucía Utatlán 	7	Santa Rita 	4	Abril	2023-04-20T00:00:00	2024-11-08T17:00:00	4	Temperatura máxima	25.4
89075	7	Sololá	704	Santa Lucía Utatlán 	7	Santa Rita 	4	Abril	2023-04-20T00:00:00	2024-11-08T17:00:00	3	Temperatura mínima	22.9
89076	7	Sololá	704	Santa Lucía Utatlán 	7	Santa Rita 	4	Abril	2023-04-20T00:00:00	2024-11-08T17:00:00	5	Humedad	76
89077	7	Sololá	704	Santa Lucía Utatlán 	7	Santa Rita 	4	Abril	2023-04-20T00:00:00	2024-11-08T17:00:00	6	Velocidad del viento	8
89078	7	Sololá	704	Santa Lucía Utatlán 	7	Santa Rita 	4	Abril	2023-04-20T00:00:00	2024-11-08T17:00:00	7	Dirección del viento	8.05
89079	7	Sololá	704	Santa Lucía Utatlán 	7	Santa Rita 	4	Abril	2023-04-20T00:00:00	2024-11-08T17:00:00	1	Precipitación	0
89080	7	Sololá	704	Santa Lucía Utatlán 	7	Santa Rita 	4	Abril	2023-04-20T00:00:00	2024-11-08T17:00:00	8	Radiación solar	406
89081	7	Sololá	704	Santa Lucía Utatlán 	7	Santa Rita 	4	Abril	2023-04-20T00:00:00	2024-11-08T18:00:00	2	Temperatura media	21.8
89082	7	Sololá	704	Santa Lucía Utatlán 	7	Santa Rita 	4	Abril	2023-04-20T00:00:00	2024-11-08T18:00:00	4	Temperatura máxima	23
89083	7	Sololá	704	Santa Lucía Utatlán 	7	Santa Rita 	4	Abril	2023-04-20T00:00:00	2024-11-08T18:00:00	3	Temperatura mínima	21.7
89084	7	Sololá	704	Santa Lucía Utatlán 	7	Santa Rita 	4	Abril	2023-04-20T00:00:00	2024-11-08T18:00:00	5	Humedad	80
89085	7	Sololá	704	Santa Lucía Utatlán 	7	Santa Rita 	4	Abril	2023-04-20T00:00:00	2024-11-08T18:00:00	6	Velocidad del viento	4.8
89086	7	Sololá	704	Santa Lucía Utatlán 	7	Santa Rita 	4	Abril	2023-04-20T00:00:00	2024-11-08T18:00:00	7	Dirección del viento	4.83
89087	7	Sololá	704	Santa Lucía Utatlán 	7	Santa Rita 	4	Abril	2023-04-20T00:00:00	2024-11-08T18:00:00	1	Precipitación	0
89088	7	Sololá	704	Santa Lucía Utatlán 	7	Santa Rita 	4	Abril	2023-04-20T00:00:00	2024-11-08T18:00:00	8	Radiación solar	138
89089	7	Sololá	704	Santa Lucía Utatlán 	7	Santa Rita 	4	Abril	2023-04-20T00:00:00	2024-11-08T19:00:00	2	Temperatura media	20.9
89090	7	Sololá	704	Santa Lucía Utatlán 	7	Santa Rita 	4	Abril	2023-04-20T00:00:00	2024-11-08T19:00:00	4	Temperatura máxima	21.8
89091	7	Sololá	704	Santa Lucía Utatlán 	7	Santa Rita 	4	Abril	2023-04-20T00:00:00	2024-11-08T19:00:00	3	Temperatura mínima	20.9
89092	7	Sololá	704	Santa Lucía Utatlán 	7	Santa Rita 	4	Abril	2023-04-20T00:00:00	2024-11-08T19:00:00	5	Humedad	85
89093	7	Sololá	704	Santa Lucía Utatlán 	7	Santa Rita 	4	Abril	2023-04-20T00:00:00	2024-11-08T19:00:00	6	Velocidad del viento	3.2
89094	7	Sololá	704	Santa Lucía Utatlán 	7	Santa Rita 	4	Abril	2023-04-20T00:00:00	2024-11-08T19:00:00	7	Dirección del viento	3.22
89095	7	Sololá	704	Santa Lucía Utatlán 	7	Santa Rita 	4	Abril	2023-04-20T00:00:00	2024-11-08T19:00:00	1	Precipitación	0
89096	7	Sololá	704	Santa Lucía Utatlán 	7	Santa Rita 	4	Abril	2023-04-20T00:00:00	2024-11-08T19:00:00	8	Radiación solar	0
89097	7	Sololá	704	Santa Lucía Utatlán 	7	Santa Rita 	4	Abril	2023-04-20T00:00:00	2024-11-08T20:00:00	2	Temperatura media	20.3
89098	7	Sololá	704	Santa Lucía Utatlán 	7	Santa Rita 	4	Abril	2023-04-20T00:00:00	2024-11-08T20:00:00	4	Temperatura máxima	20.9
89099	7	Sololá	704	Santa Lucía Utatlán 	7	Santa Rita 	4	Abril	2023-04-20T00:00:00	2024-11-08T20:00:00	3	Temperatura mínima	20.3
89100	7	Sololá	704	Santa Lucía Utatlán 	7	Santa Rita 	4	Abril	2023-04-20T00:00:00	2024-11-08T20:00:00	5	Humedad	88
89101	7	Sololá	704	Santa Lucía Utatlán 	7	Santa Rita 	4	Abril	2023-04-20T00:00:00	2024-11-08T20:00:00	6	Velocidad del viento	1.6
89102	7	Sololá	704	Santa Lucía Utatlán 	7	Santa Rita 	4	Abril	2023-04-20T00:00:00	2024-11-08T20:00:00	7	Dirección del viento	1.61
89103	7	Sololá	704	Santa Lucía Utatlán 	7	Santa Rita 	4	Abril	2023-04-20T00:00:00	2024-11-08T20:00:00	1	Precipitación	0
89104	7	Sololá	704	Santa Lucía Utatlán 	7	Santa Rita 	4	Abril	2023-04-20T00:00:00	2024-11-08T20:00:00	8	Radiación solar	0
89105	7	Sololá	704	Santa Lucía Utatlán 	7	Santa Rita 	4	Abril	2023-04-20T00:00:00	2024-11-08T21:00:00	2	Temperatura media	19.5
89106	7	Sololá	704	Santa Lucía Utatlán 	7	Santa Rita 	4	Abril	2023-04-20T00:00:00	2024-11-08T21:00:00	4	Temperatura máxima	20.3
89107	7	Sololá	704	Santa Lucía Utatlán 	7	Santa Rita 	4	Abril	2023-04-20T00:00:00	2024-11-08T21:00:00	3	Temperatura mínima	19.5
89108	7	Sololá	704	Santa Lucía Utatlán 	7	Santa Rita 	4	Abril	2023-04-20T00:00:00	2024-11-08T21:00:00	5	Humedad	88
89109	7	Sololá	704	Santa Lucía Utatlán 	7	Santa Rita 	4	Abril	2023-04-20T00:00:00	2024-11-08T21:00:00	6	Velocidad del viento	1.6
89110	7	Sololá	704	Santa Lucía Utatlán 	7	Santa Rita 	4	Abril	2023-04-20T00:00:00	2024-11-08T21:00:00	7	Dirección del viento	1.61
89111	7	Sololá	704	Santa Lucía Utatlán 	7	Santa Rita 	4	Abril	2023-04-20T00:00:00	2024-11-08T21:00:00	1	Precipitación	0
89112	7	Sololá	704	Santa Lucía Utatlán 	7	Santa Rita 	4	Abril	2023-04-20T00:00:00	2024-11-08T21:00:00	8	Radiación solar	0
89113	7	Sololá	704	Santa Lucía Utatlán 	7	Santa Rita 	4	Abril	2023-04-20T00:00:00	2024-11-08T22:00:00	2	Temperatura media	19.6
89114	7	Sololá	704	Santa Lucía Utatlán 	7	Santa Rita 	4	Abril	2023-04-20T00:00:00	2024-11-08T22:00:00	4	Temperatura máxima	19.6
89115	7	Sololá	704	Santa Lucía Utatlán 	7	Santa Rita 	4	Abril	2023-04-20T00:00:00	2024-11-08T22:00:00	3	Temperatura mínima	19
89116	7	Sololá	704	Santa Lucía Utatlán 	7	Santa Rita 	4	Abril	2023-04-20T00:00:00	2024-11-08T22:00:00	5	Humedad	77
89117	7	Sololá	704	Santa Lucía Utatlán 	7	Santa Rita 	4	Abril	2023-04-20T00:00:00	2024-11-08T22:00:00	6	Velocidad del viento	1.6
89118	7	Sololá	704	Santa Lucía Utatlán 	7	Santa Rita 	4	Abril	2023-04-20T00:00:00	2024-11-08T22:00:00	7	Dirección del viento	1.61
89119	7	Sololá	704	Santa Lucía Utatlán 	7	Santa Rita 	4	Abril	2023-04-20T00:00:00	2024-11-08T22:00:00	1	Precipitación	0
89120	7	Sololá	704	Santa Lucía Utatlán 	7	Santa Rita 	4	Abril	2023-04-20T00:00:00	2024-11-08T22:00:00	8	Radiación solar	0
89121	7	Sololá	704	Santa Lucía Utatlán 	7	Santa Rita 	4	Abril	2023-04-20T00:00:00	2024-11-08T23:00:00	2	Temperatura media	18.5
89122	7	Sololá	704	Santa Lucía Utatlán 	7	Santa Rita 	4	Abril	2023-04-20T00:00:00	2024-11-08T23:00:00	4	Temperatura máxima	19.6
89123	7	Sololá	704	Santa Lucía Utatlán 	7	Santa Rita 	4	Abril	2023-04-20T00:00:00	2024-11-08T23:00:00	3	Temperatura mínima	18.5
89124	7	Sololá	704	Santa Lucía Utatlán 	7	Santa Rita 	4	Abril	2023-04-20T00:00:00	2024-11-08T23:00:00	5	Humedad	82
89125	7	Sololá	704	Santa Lucía Utatlán 	7	Santa Rita 	4	Abril	2023-04-20T00:00:00	2024-11-08T23:00:00	6	Velocidad del viento	1.6
89126	7	Sololá	704	Santa Lucía Utatlán 	7	Santa Rita 	4	Abril	2023-04-20T00:00:00	2024-11-08T23:00:00	7	Dirección del viento	1.61
89127	7	Sololá	704	Santa Lucía Utatlán 	7	Santa Rita 	4	Abril	2023-04-20T00:00:00	2024-11-08T23:00:00	1	Precipitación	0
89128	7	Sololá	704	Santa Lucía Utatlán 	7	Santa Rita 	4	Abril	2023-04-20T00:00:00	2024-11-08T23:00:00	8	Radiación solar	0
89129	7	Sololá	704	Santa Lucía Utatlán 	7	Santa Rita 	4	Abril	2023-04-21T00:00:00	2024-11-08T00:00:00	2	Temperatura media	17.7
89130	7	Sololá	704	Santa Lucía Utatlán 	7	Santa Rita 	4	Abril	2023-04-21T00:00:00	2024-11-08T00:00:00	4	Temperatura máxima	18.6
89131	7	Sololá	704	Santa Lucía Utatlán 	7	Santa Rita 	4	Abril	2023-04-21T00:00:00	2024-11-08T00:00:00	3	Temperatura mínima	17.6
89132	7	Sololá	704	Santa Lucía Utatlán 	7	Santa Rita 	4	Abril	2023-04-21T00:00:00	2024-11-08T00:00:00	5	Humedad	85
89133	7	Sololá	704	Santa Lucía Utatlán 	7	Santa Rita 	4	Abril	2023-04-21T00:00:00	2024-11-08T00:00:00	6	Velocidad del viento	1.6
89134	7	Sololá	704	Santa Lucía Utatlán 	7	Santa Rita 	4	Abril	2023-04-21T00:00:00	2024-11-08T00:00:00	7	Dirección del viento	1.61
89135	7	Sololá	704	Santa Lucía Utatlán 	7	Santa Rita 	4	Abril	2023-04-21T00:00:00	2024-11-08T00:00:00	1	Precipitación	0
89136	7	Sololá	704	Santa Lucía Utatlán 	7	Santa Rita 	4	Abril	2023-04-21T00:00:00	2024-11-08T00:00:00	8	Radiación solar	0
89137	7	Sololá	704	Santa Lucía Utatlán 	7	Santa Rita 	4	Abril	2023-04-21T00:00:00	2024-11-08T01:00:00	2	Temperatura media	17.3
89138	7	Sololá	704	Santa Lucía Utatlán 	7	Santa Rita 	4	Abril	2023-04-21T00:00:00	2024-11-08T01:00:00	4	Temperatura máxima	17.7
89139	7	Sololá	704	Santa Lucía Utatlán 	7	Santa Rita 	4	Abril	2023-04-21T00:00:00	2024-11-08T01:00:00	3	Temperatura mínima	17.3
89140	7	Sololá	704	Santa Lucía Utatlán 	7	Santa Rita 	4	Abril	2023-04-21T00:00:00	2024-11-08T01:00:00	5	Humedad	85
89141	7	Sololá	704	Santa Lucía Utatlán 	7	Santa Rita 	4	Abril	2023-04-21T00:00:00	2024-11-08T01:00:00	6	Velocidad del viento	4.8
89142	7	Sololá	704	Santa Lucía Utatlán 	7	Santa Rita 	4	Abril	2023-04-21T00:00:00	2024-11-08T01:00:00	7	Dirección del viento	4.83
89143	7	Sololá	704	Santa Lucía Utatlán 	7	Santa Rita 	4	Abril	2023-04-21T00:00:00	2024-11-08T01:00:00	1	Precipitación	0
89144	7	Sololá	704	Santa Lucía Utatlán 	7	Santa Rita 	4	Abril	2023-04-21T00:00:00	2024-11-08T01:00:00	8	Radiación solar	0
89145	7	Sololá	704	Santa Lucía Utatlán 	7	Santa Rita 	4	Abril	2023-04-21T00:00:00	2024-11-08T02:00:00	2	Temperatura media	17.1
89146	7	Sololá	704	Santa Lucía Utatlán 	7	Santa Rita 	4	Abril	2023-04-21T00:00:00	2024-11-08T02:00:00	4	Temperatura máxima	17.3
89147	7	Sololá	704	Santa Lucía Utatlán 	7	Santa Rita 	4	Abril	2023-04-21T00:00:00	2024-11-08T02:00:00	3	Temperatura mínima	16.7
89148	7	Sololá	704	Santa Lucía Utatlán 	7	Santa Rita 	4	Abril	2023-04-21T00:00:00	2024-11-08T02:00:00	5	Humedad	83
89149	7	Sololá	704	Santa Lucía Utatlán 	7	Santa Rita 	4	Abril	2023-04-21T00:00:00	2024-11-08T02:00:00	6	Velocidad del viento	3.2
89150	7	Sololá	704	Santa Lucía Utatlán 	7	Santa Rita 	4	Abril	2023-04-21T00:00:00	2024-11-08T02:00:00	7	Dirección del viento	3.22
89151	7	Sololá	704	Santa Lucía Utatlán 	7	Santa Rita 	4	Abril	2023-04-21T00:00:00	2024-11-08T02:00:00	1	Precipitación	0
89152	7	Sololá	704	Santa Lucía Utatlán 	7	Santa Rita 	4	Abril	2023-04-21T00:00:00	2024-11-08T02:00:00	8	Radiación solar	0
89153	7	Sololá	704	Santa Lucía Utatlán 	7	Santa Rita 	4	Abril	2023-04-21T00:00:00	2024-11-08T03:00:00	2	Temperatura media	16.4
89154	7	Sololá	704	Santa Lucía Utatlán 	7	Santa Rita 	4	Abril	2023-04-21T00:00:00	2024-11-08T03:00:00	4	Temperatura máxima	17.1
89155	7	Sololá	704	Santa Lucía Utatlán 	7	Santa Rita 	4	Abril	2023-04-21T00:00:00	2024-11-08T03:00:00	3	Temperatura mínima	16.4
89156	7	Sololá	704	Santa Lucía Utatlán 	7	Santa Rita 	4	Abril	2023-04-21T00:00:00	2024-11-08T03:00:00	5	Humedad	78
89157	7	Sololá	704	Santa Lucía Utatlán 	7	Santa Rita 	4	Abril	2023-04-21T00:00:00	2024-11-08T03:00:00	6	Velocidad del viento	4.8
89158	7	Sololá	704	Santa Lucía Utatlán 	7	Santa Rita 	4	Abril	2023-04-21T00:00:00	2024-11-08T03:00:00	7	Dirección del viento	4.83
89159	7	Sololá	704	Santa Lucía Utatlán 	7	Santa Rita 	4	Abril	2023-04-21T00:00:00	2024-11-08T03:00:00	1	Precipitación	0
89160	7	Sololá	704	Santa Lucía Utatlán 	7	Santa Rita 	4	Abril	2023-04-21T00:00:00	2024-11-08T03:00:00	8	Radiación solar	0
89161	7	Sololá	704	Santa Lucía Utatlán 	7	Santa Rita 	4	Abril	2023-04-21T00:00:00	2024-11-08T04:00:00	2	Temperatura media	16.7
89162	7	Sololá	704	Santa Lucía Utatlán 	7	Santa Rita 	4	Abril	2023-04-21T00:00:00	2024-11-08T04:00:00	4	Temperatura máxima	16.7
89163	7	Sololá	704	Santa Lucía Utatlán 	7	Santa Rita 	4	Abril	2023-04-21T00:00:00	2024-11-08T04:00:00	3	Temperatura mínima	16.3
89164	7	Sololá	704	Santa Lucía Utatlán 	7	Santa Rita 	4	Abril	2023-04-21T00:00:00	2024-11-08T04:00:00	5	Humedad	70
89165	7	Sololá	704	Santa Lucía Utatlán 	7	Santa Rita 	4	Abril	2023-04-21T00:00:00	2024-11-08T04:00:00	6	Velocidad del viento	4.8
89166	7	Sololá	704	Santa Lucía Utatlán 	7	Santa Rita 	4	Abril	2023-04-21T00:00:00	2024-11-08T04:00:00	7	Dirección del viento	4.83
89167	7	Sololá	704	Santa Lucía Utatlán 	7	Santa Rita 	4	Abril	2023-04-21T00:00:00	2024-11-08T04:00:00	1	Precipitación	0
89168	7	Sololá	704	Santa Lucía Utatlán 	7	Santa Rita 	4	Abril	2023-04-21T00:00:00	2024-11-08T04:00:00	8	Radiación solar	0
89169	7	Sololá	704	Santa Lucía Utatlán 	7	Santa Rita 	4	Abril	2023-04-21T00:00:00	2024-11-08T05:00:00	2	Temperatura media	16.4
89170	7	Sololá	704	Santa Lucía Utatlán 	7	Santa Rita 	4	Abril	2023-04-21T00:00:00	2024-11-08T05:00:00	4	Temperatura máxima	16.9
89171	7	Sololá	704	Santa Lucía Utatlán 	7	Santa Rita 	4	Abril	2023-04-21T00:00:00	2024-11-08T05:00:00	3	Temperatura mínima	16.4
89172	7	Sololá	704	Santa Lucía Utatlán 	7	Santa Rita 	4	Abril	2023-04-21T00:00:00	2024-11-08T05:00:00	5	Humedad	65
89173	7	Sololá	704	Santa Lucía Utatlán 	7	Santa Rita 	4	Abril	2023-04-21T00:00:00	2024-11-08T05:00:00	6	Velocidad del viento	4.8
89174	7	Sololá	704	Santa Lucía Utatlán 	7	Santa Rita 	4	Abril	2023-04-21T00:00:00	2024-11-08T05:00:00	7	Dirección del viento	4.83
89175	7	Sololá	704	Santa Lucía Utatlán 	7	Santa Rita 	4	Abril	2023-04-21T00:00:00	2024-11-08T05:00:00	1	Precipitación	0
89176	7	Sololá	704	Santa Lucía Utatlán 	7	Santa Rita 	4	Abril	2023-04-21T00:00:00	2024-11-08T05:00:00	8	Radiación solar	0
89177	7	Sololá	704	Santa Lucía Utatlán 	7	Santa Rita 	4	Abril	2023-04-21T00:00:00	2024-11-08T06:00:00	2	Temperatura media	16.3
89178	7	Sololá	704	Santa Lucía Utatlán 	7	Santa Rita 	4	Abril	2023-04-21T00:00:00	2024-11-08T06:00:00	4	Temperatura máxima	16.5
89179	7	Sololá	704	Santa Lucía Utatlán 	7	Santa Rita 	4	Abril	2023-04-21T00:00:00	2024-11-08T06:00:00	3	Temperatura mínima	15.8
89180	7	Sololá	704	Santa Lucía Utatlán 	7	Santa Rita 	4	Abril	2023-04-21T00:00:00	2024-11-08T06:00:00	5	Humedad	59
89181	7	Sololá	704	Santa Lucía Utatlán 	7	Santa Rita 	4	Abril	2023-04-21T00:00:00	2024-11-08T06:00:00	6	Velocidad del viento	4.8
89182	7	Sololá	704	Santa Lucía Utatlán 	7	Santa Rita 	4	Abril	2023-04-21T00:00:00	2024-11-08T06:00:00	7	Dirección del viento	4.83
89183	7	Sololá	704	Santa Lucía Utatlán 	7	Santa Rita 	4	Abril	2023-04-21T00:00:00	2024-11-08T06:00:00	1	Precipitación	0
89184	7	Sololá	704	Santa Lucía Utatlán 	7	Santa Rita 	4	Abril	2023-04-21T00:00:00	2024-11-08T06:00:00	8	Radiación solar	0
89185	7	Sololá	704	Santa Lucía Utatlán 	7	Santa Rita 	4	Abril	2023-04-21T00:00:00	2024-11-08T07:00:00	2	Temperatura media	16.9
89186	7	Sololá	704	Santa Lucía Utatlán 	7	Santa Rita 	4	Abril	2023-04-21T00:00:00	2024-11-08T07:00:00	4	Temperatura máxima	16.9
89187	7	Sololá	704	Santa Lucía Utatlán 	7	Santa Rita 	4	Abril	2023-04-21T00:00:00	2024-11-08T07:00:00	3	Temperatura mínima	15.9
89188	7	Sololá	704	Santa Lucía Utatlán 	7	Santa Rita 	4	Abril	2023-04-21T00:00:00	2024-11-08T07:00:00	5	Humedad	64
89189	7	Sololá	704	Santa Lucía Utatlán 	7	Santa Rita 	4	Abril	2023-04-21T00:00:00	2024-11-08T07:00:00	6	Velocidad del viento	4.8
89190	7	Sololá	704	Santa Lucía Utatlán 	7	Santa Rita 	4	Abril	2023-04-21T00:00:00	2024-11-08T07:00:00	7	Dirección del viento	4.83
89191	7	Sololá	704	Santa Lucía Utatlán 	7	Santa Rita 	4	Abril	2023-04-21T00:00:00	2024-11-08T07:00:00	1	Precipitación	0
89192	7	Sololá	704	Santa Lucía Utatlán 	7	Santa Rita 	4	Abril	2023-04-21T00:00:00	2024-11-08T07:00:00	8	Radiación solar	2
89193	7	Sololá	704	Santa Lucía Utatlán 	7	Santa Rita 	4	Abril	2023-04-21T00:00:00	2024-11-08T08:00:00	2	Temperatura media	19.2
89194	7	Sololá	704	Santa Lucía Utatlán 	7	Santa Rita 	4	Abril	2023-04-21T00:00:00	2024-11-08T08:00:00	4	Temperatura máxima	19.2
89195	7	Sololá	704	Santa Lucía Utatlán 	7	Santa Rita 	4	Abril	2023-04-21T00:00:00	2024-11-08T08:00:00	3	Temperatura mínima	16.8
89196	7	Sololá	704	Santa Lucía Utatlán 	7	Santa Rita 	4	Abril	2023-04-21T00:00:00	2024-11-08T08:00:00	5	Humedad	60
89197	7	Sololá	704	Santa Lucía Utatlán 	7	Santa Rita 	4	Abril	2023-04-21T00:00:00	2024-11-08T08:00:00	6	Velocidad del viento	1.6
89198	7	Sololá	704	Santa Lucía Utatlán 	7	Santa Rita 	4	Abril	2023-04-21T00:00:00	2024-11-08T08:00:00	7	Dirección del viento	1.61
89199	7	Sololá	704	Santa Lucía Utatlán 	7	Santa Rita 	4	Abril	2023-04-21T00:00:00	2024-11-08T08:00:00	1	Precipitación	0
89200	7	Sololá	704	Santa Lucía Utatlán 	7	Santa Rita 	4	Abril	2023-04-21T00:00:00	2024-11-08T08:00:00	8	Radiación solar	115
89201	7	Sololá	704	Santa Lucía Utatlán 	7	Santa Rita 	4	Abril	2023-04-21T00:00:00	2024-11-08T09:00:00	2	Temperatura media	22
89202	7	Sololá	704	Santa Lucía Utatlán 	7	Santa Rita 	4	Abril	2023-04-21T00:00:00	2024-11-08T09:00:00	4	Temperatura máxima	22.1
89203	7	Sololá	704	Santa Lucía Utatlán 	7	Santa Rita 	4	Abril	2023-04-21T00:00:00	2024-11-08T09:00:00	3	Temperatura mínima	19.2
89204	7	Sololá	704	Santa Lucía Utatlán 	7	Santa Rita 	4	Abril	2023-04-21T00:00:00	2024-11-08T09:00:00	5	Humedad	64
89205	7	Sololá	704	Santa Lucía Utatlán 	7	Santa Rita 	4	Abril	2023-04-21T00:00:00	2024-11-08T09:00:00	6	Velocidad del viento	4.8
89206	7	Sololá	704	Santa Lucía Utatlán 	7	Santa Rita 	4	Abril	2023-04-21T00:00:00	2024-11-08T09:00:00	7	Dirección del viento	4.83
89207	7	Sololá	704	Santa Lucía Utatlán 	7	Santa Rita 	4	Abril	2023-04-21T00:00:00	2024-11-08T09:00:00	1	Precipitación	0
89208	7	Sololá	704	Santa Lucía Utatlán 	7	Santa Rita 	4	Abril	2023-04-21T00:00:00	2024-11-08T09:00:00	8	Radiación solar	375
89209	7	Sololá	704	Santa Lucía Utatlán 	7	Santa Rita 	4	Abril	2023-04-21T00:00:00	2024-11-08T10:00:00	2	Temperatura media	23.7
89210	7	Sololá	704	Santa Lucía Utatlán 	7	Santa Rita 	4	Abril	2023-04-21T00:00:00	2024-11-08T10:00:00	4	Temperatura máxima	23.7
89211	7	Sololá	704	Santa Lucía Utatlán 	7	Santa Rita 	4	Abril	2023-04-21T00:00:00	2024-11-08T10:00:00	3	Temperatura mínima	21.9
89212	7	Sololá	704	Santa Lucía Utatlán 	7	Santa Rita 	4	Abril	2023-04-21T00:00:00	2024-11-08T10:00:00	5	Humedad	56
89213	7	Sololá	704	Santa Lucía Utatlán 	7	Santa Rita 	4	Abril	2023-04-21T00:00:00	2024-11-08T10:00:00	6	Velocidad del viento	4.8
89214	7	Sololá	704	Santa Lucía Utatlán 	7	Santa Rita 	4	Abril	2023-04-21T00:00:00	2024-11-08T10:00:00	7	Dirección del viento	4.83
89215	7	Sololá	704	Santa Lucía Utatlán 	7	Santa Rita 	4	Abril	2023-04-21T00:00:00	2024-11-08T10:00:00	1	Precipitación	0
89216	7	Sololá	704	Santa Lucía Utatlán 	7	Santa Rita 	4	Abril	2023-04-21T00:00:00	2024-11-08T10:00:00	8	Radiación solar	578
89217	7	Sololá	704	Santa Lucía Utatlán 	7	Santa Rita 	4	Abril	2023-04-21T00:00:00	2024-11-08T11:00:00	2	Temperatura media	25.9
89218	7	Sololá	704	Santa Lucía Utatlán 	7	Santa Rita 	4	Abril	2023-04-21T00:00:00	2024-11-08T11:00:00	4	Temperatura máxima	26.3
89219	7	Sololá	704	Santa Lucía Utatlán 	7	Santa Rita 	4	Abril	2023-04-21T00:00:00	2024-11-08T11:00:00	3	Temperatura mínima	23.7
89220	7	Sololá	704	Santa Lucía Utatlán 	7	Santa Rita 	4	Abril	2023-04-21T00:00:00	2024-11-08T11:00:00	5	Humedad	54
89221	7	Sololá	704	Santa Lucía Utatlán 	7	Santa Rita 	4	Abril	2023-04-21T00:00:00	2024-11-08T11:00:00	6	Velocidad del viento	4.8
89222	7	Sololá	704	Santa Lucía Utatlán 	7	Santa Rita 	4	Abril	2023-04-21T00:00:00	2024-11-08T11:00:00	7	Dirección del viento	4.83
89223	7	Sololá	704	Santa Lucía Utatlán 	7	Santa Rita 	4	Abril	2023-04-21T00:00:00	2024-11-08T11:00:00	1	Precipitación	0
89224	7	Sololá	704	Santa Lucía Utatlán 	7	Santa Rita 	4	Abril	2023-04-21T00:00:00	2024-11-08T11:00:00	8	Radiación solar	787
89225	7	Sololá	704	Santa Lucía Utatlán 	7	Santa Rita 	4	Abril	2023-04-21T00:00:00	2024-11-08T12:00:00	2	Temperatura media	25.8
89226	7	Sololá	704	Santa Lucía Utatlán 	7	Santa Rita 	4	Abril	2023-04-21T00:00:00	2024-11-08T12:00:00	4	Temperatura máxima	26.2
89227	7	Sololá	704	Santa Lucía Utatlán 	7	Santa Rita 	4	Abril	2023-04-21T00:00:00	2024-11-08T12:00:00	3	Temperatura mínima	25.5
89228	7	Sololá	704	Santa Lucía Utatlán 	7	Santa Rita 	4	Abril	2023-04-21T00:00:00	2024-11-08T12:00:00	5	Humedad	63
89229	7	Sololá	704	Santa Lucía Utatlán 	7	Santa Rita 	4	Abril	2023-04-21T00:00:00	2024-11-08T12:00:00	6	Velocidad del viento	9.7
89230	7	Sololá	704	Santa Lucía Utatlán 	7	Santa Rita 	4	Abril	2023-04-21T00:00:00	2024-11-08T12:00:00	7	Dirección del viento	9.66
89231	7	Sololá	704	Santa Lucía Utatlán 	7	Santa Rita 	4	Abril	2023-04-21T00:00:00	2024-11-08T12:00:00	1	Precipitación	0
89232	7	Sololá	704	Santa Lucía Utatlán 	7	Santa Rita 	4	Abril	2023-04-21T00:00:00	2024-11-08T12:00:00	8	Radiación solar	813
89233	7	Sololá	704	Santa Lucía Utatlán 	7	Santa Rita 	4	Abril	2023-04-21T00:00:00	2024-11-08T13:00:00	2	Temperatura media	23.7
89234	7	Sololá	704	Santa Lucía Utatlán 	7	Santa Rita 	4	Abril	2023-04-21T00:00:00	2024-11-08T13:00:00	4	Temperatura máxima	25.8
89235	7	Sololá	704	Santa Lucía Utatlán 	7	Santa Rita 	4	Abril	2023-04-21T00:00:00	2024-11-08T13:00:00	3	Temperatura mínima	23.6
89236	7	Sololá	704	Santa Lucía Utatlán 	7	Santa Rita 	4	Abril	2023-04-21T00:00:00	2024-11-08T13:00:00	5	Humedad	73
89237	7	Sololá	704	Santa Lucía Utatlán 	7	Santa Rita 	4	Abril	2023-04-21T00:00:00	2024-11-08T13:00:00	6	Velocidad del viento	8
89238	7	Sololá	704	Santa Lucía Utatlán 	7	Santa Rita 	4	Abril	2023-04-21T00:00:00	2024-11-08T13:00:00	7	Dirección del viento	8.05
89239	7	Sololá	704	Santa Lucía Utatlán 	7	Santa Rita 	4	Abril	2023-04-21T00:00:00	2024-11-08T13:00:00	1	Precipitación	0
89240	7	Sololá	704	Santa Lucía Utatlán 	7	Santa Rita 	4	Abril	2023-04-21T00:00:00	2024-11-08T13:00:00	8	Radiación solar	270
89241	7	Sololá	704	Santa Lucía Utatlán 	7	Santa Rita 	4	Abril	2023-04-21T00:00:00	2024-11-08T14:00:00	2	Temperatura media	23.4
89242	7	Sololá	704	Santa Lucía Utatlán 	7	Santa Rita 	4	Abril	2023-04-21T00:00:00	2024-11-08T14:00:00	4	Temperatura máxima	23.7
89243	7	Sololá	704	Santa Lucía Utatlán 	7	Santa Rita 	4	Abril	2023-04-21T00:00:00	2024-11-08T14:00:00	3	Temperatura mínima	22.8
89244	7	Sololá	704	Santa Lucía Utatlán 	7	Santa Rita 	4	Abril	2023-04-21T00:00:00	2024-11-08T14:00:00	5	Humedad	76
89245	7	Sololá	704	Santa Lucía Utatlán 	7	Santa Rita 	4	Abril	2023-04-21T00:00:00	2024-11-08T14:00:00	6	Velocidad del viento	6.4
89246	7	Sololá	704	Santa Lucía Utatlán 	7	Santa Rita 	4	Abril	2023-04-21T00:00:00	2024-11-08T14:00:00	7	Dirección del viento	6.44
89247	7	Sololá	704	Santa Lucía Utatlán 	7	Santa Rita 	4	Abril	2023-04-21T00:00:00	2024-11-08T14:00:00	1	Precipitación	0
89248	7	Sololá	704	Santa Lucía Utatlán 	7	Santa Rita 	4	Abril	2023-04-21T00:00:00	2024-11-08T14:00:00	8	Radiación solar	280
89249	7	Sololá	704	Santa Lucía Utatlán 	7	Santa Rita 	4	Abril	2023-04-21T00:00:00	2024-11-08T15:00:00	2	Temperatura media	22.9
89250	7	Sololá	704	Santa Lucía Utatlán 	7	Santa Rita 	4	Abril	2023-04-21T00:00:00	2024-11-08T15:00:00	4	Temperatura máxima	23.8
89251	7	Sololá	704	Santa Lucía Utatlán 	7	Santa Rita 	4	Abril	2023-04-21T00:00:00	2024-11-08T15:00:00	3	Temperatura mínima	22.4
89252	7	Sololá	704	Santa Lucía Utatlán 	7	Santa Rita 	4	Abril	2023-04-21T00:00:00	2024-11-08T15:00:00	5	Humedad	78
89253	7	Sololá	704	Santa Lucía Utatlán 	7	Santa Rita 	4	Abril	2023-04-21T00:00:00	2024-11-08T15:00:00	6	Velocidad del viento	6.4
89254	7	Sololá	704	Santa Lucía Utatlán 	7	Santa Rita 	4	Abril	2023-04-21T00:00:00	2024-11-08T15:00:00	7	Dirección del viento	6.44
89255	7	Sololá	704	Santa Lucía Utatlán 	7	Santa Rita 	4	Abril	2023-04-21T00:00:00	2024-11-08T15:00:00	1	Precipitación	0
89256	7	Sololá	704	Santa Lucía Utatlán 	7	Santa Rita 	4	Abril	2023-04-21T00:00:00	2024-11-08T15:00:00	8	Radiación solar	246
89257	7	Sololá	704	Santa Lucía Utatlán 	7	Santa Rita 	4	Abril	2023-04-21T00:00:00	2024-11-08T16:00:00	2	Temperatura media	21.7
89258	7	Sololá	704	Santa Lucía Utatlán 	7	Santa Rita 	4	Abril	2023-04-21T00:00:00	2024-11-08T16:00:00	4	Temperatura máxima	22.9
89259	7	Sololá	704	Santa Lucía Utatlán 	7	Santa Rita 	4	Abril	2023-04-21T00:00:00	2024-11-08T16:00:00	3	Temperatura mínima	21.7
89260	7	Sololá	704	Santa Lucía Utatlán 	7	Santa Rita 	4	Abril	2023-04-21T00:00:00	2024-11-08T16:00:00	5	Humedad	83
89261	7	Sololá	704	Santa Lucía Utatlán 	7	Santa Rita 	4	Abril	2023-04-21T00:00:00	2024-11-08T16:00:00	6	Velocidad del viento	4.8
89262	7	Sololá	704	Santa Lucía Utatlán 	7	Santa Rita 	4	Abril	2023-04-21T00:00:00	2024-11-08T16:00:00	7	Dirección del viento	4.83
89263	7	Sololá	704	Santa Lucía Utatlán 	7	Santa Rita 	4	Abril	2023-04-21T00:00:00	2024-11-08T16:00:00	1	Precipitación	0
89264	7	Sololá	704	Santa Lucía Utatlán 	7	Santa Rita 	4	Abril	2023-04-21T00:00:00	2024-11-08T16:00:00	8	Radiación solar	103
89265	7	Sololá	704	Santa Lucía Utatlán 	7	Santa Rita 	4	Abril	2023-04-21T00:00:00	2024-11-08T17:00:00	2	Temperatura media	21.1
89266	7	Sololá	704	Santa Lucía Utatlán 	7	Santa Rita 	4	Abril	2023-04-21T00:00:00	2024-11-08T17:00:00	4	Temperatura máxima	21.8
89267	7	Sololá	704	Santa Lucía Utatlán 	7	Santa Rita 	4	Abril	2023-04-21T00:00:00	2024-11-08T17:00:00	3	Temperatura mínima	21
89268	7	Sololá	704	Santa Lucía Utatlán 	7	Santa Rita 	4	Abril	2023-04-21T00:00:00	2024-11-08T17:00:00	5	Humedad	85
89269	7	Sololá	704	Santa Lucía Utatlán 	7	Santa Rita 	4	Abril	2023-04-21T00:00:00	2024-11-08T17:00:00	6	Velocidad del viento	4.8
89270	7	Sololá	704	Santa Lucía Utatlán 	7	Santa Rita 	4	Abril	2023-04-21T00:00:00	2024-11-08T17:00:00	7	Dirección del viento	4.83
89271	7	Sololá	704	Santa Lucía Utatlán 	7	Santa Rita 	4	Abril	2023-04-21T00:00:00	2024-11-08T17:00:00	1	Precipitación	0
89272	7	Sololá	704	Santa Lucía Utatlán 	7	Santa Rita 	4	Abril	2023-04-21T00:00:00	2024-11-08T17:00:00	8	Radiación solar	63
89273	7	Sololá	704	Santa Lucía Utatlán 	7	Santa Rita 	4	Abril	2023-04-21T00:00:00	2024-11-08T18:00:00	2	Temperatura media	21.5
89274	7	Sololá	704	Santa Lucía Utatlán 	7	Santa Rita 	4	Abril	2023-04-21T00:00:00	2024-11-08T18:00:00	4	Temperatura máxima	21.6
89275	7	Sololá	704	Santa Lucía Utatlán 	7	Santa Rita 	4	Abril	2023-04-21T00:00:00	2024-11-08T18:00:00	3	Temperatura mínima	21
89276	7	Sololá	704	Santa Lucía Utatlán 	7	Santa Rita 	4	Abril	2023-04-21T00:00:00	2024-11-08T18:00:00	5	Humedad	82
89277	7	Sololá	704	Santa Lucía Utatlán 	7	Santa Rita 	4	Abril	2023-04-21T00:00:00	2024-11-08T18:00:00	6	Velocidad del viento	1.6
89278	7	Sololá	704	Santa Lucía Utatlán 	7	Santa Rita 	4	Abril	2023-04-21T00:00:00	2024-11-08T18:00:00	7	Dirección del viento	1.61
89279	7	Sololá	704	Santa Lucía Utatlán 	7	Santa Rita 	4	Abril	2023-04-21T00:00:00	2024-11-08T18:00:00	1	Precipitación	0
89280	7	Sololá	704	Santa Lucía Utatlán 	7	Santa Rita 	4	Abril	2023-04-21T00:00:00	2024-11-08T18:00:00	8	Radiación solar	38
89281	7	Sololá	704	Santa Lucía Utatlán 	7	Santa Rita 	4	Abril	2023-04-21T00:00:00	2024-11-08T19:00:00	2	Temperatura media	21.2
89282	7	Sololá	704	Santa Lucía Utatlán 	7	Santa Rita 	4	Abril	2023-04-21T00:00:00	2024-11-08T19:00:00	4	Temperatura máxima	21.6
89283	7	Sololá	704	Santa Lucía Utatlán 	7	Santa Rita 	4	Abril	2023-04-21T00:00:00	2024-11-08T19:00:00	3	Temperatura mínima	21.2
89284	7	Sololá	704	Santa Lucía Utatlán 	7	Santa Rita 	4	Abril	2023-04-21T00:00:00	2024-11-08T19:00:00	5	Humedad	83
89285	7	Sololá	704	Santa Lucía Utatlán 	7	Santa Rita 	4	Abril	2023-04-21T00:00:00	2024-11-08T19:00:00	6	Velocidad del viento	1.6
89286	7	Sololá	704	Santa Lucía Utatlán 	7	Santa Rita 	4	Abril	2023-04-21T00:00:00	2024-11-08T19:00:00	7	Dirección del viento	1.61
89287	7	Sololá	704	Santa Lucía Utatlán 	7	Santa Rita 	4	Abril	2023-04-21T00:00:00	2024-11-08T19:00:00	1	Precipitación	0
89288	7	Sololá	704	Santa Lucía Utatlán 	7	Santa Rita 	4	Abril	2023-04-21T00:00:00	2024-11-08T19:00:00	8	Radiación solar	0
89289	7	Sololá	704	Santa Lucía Utatlán 	7	Santa Rita 	4	Abril	2023-04-21T00:00:00	2024-11-08T20:00:00	2	Temperatura media	20.2
89290	7	Sololá	704	Santa Lucía Utatlán 	7	Santa Rita 	4	Abril	2023-04-21T00:00:00	2024-11-08T20:00:00	4	Temperatura máxima	21.2
89291	7	Sololá	704	Santa Lucía Utatlán 	7	Santa Rita 	4	Abril	2023-04-21T00:00:00	2024-11-08T20:00:00	3	Temperatura mínima	20.1
89292	7	Sololá	704	Santa Lucía Utatlán 	7	Santa Rita 	4	Abril	2023-04-21T00:00:00	2024-11-08T20:00:00	5	Humedad	86
89293	7	Sololá	704	Santa Lucía Utatlán 	7	Santa Rita 	4	Abril	2023-04-21T00:00:00	2024-11-08T20:00:00	6	Velocidad del viento	0
89294	7	Sololá	704	Santa Lucía Utatlán 	7	Santa Rita 	4	Abril	2023-04-21T00:00:00	2024-11-08T20:00:00	7	Dirección del viento	0
89295	7	Sololá	704	Santa Lucía Utatlán 	7	Santa Rita 	4	Abril	2023-04-21T00:00:00	2024-11-08T20:00:00	1	Precipitación	0
89296	7	Sololá	704	Santa Lucía Utatlán 	7	Santa Rita 	4	Abril	2023-04-21T00:00:00	2024-11-08T20:00:00	8	Radiación solar	0
89297	7	Sololá	704	Santa Lucía Utatlán 	7	Santa Rita 	4	Abril	2023-04-21T00:00:00	2024-11-08T21:00:00	2	Temperatura media	19.9
89298	7	Sololá	704	Santa Lucía Utatlán 	7	Santa Rita 	4	Abril	2023-04-21T00:00:00	2024-11-08T21:00:00	4	Temperatura máxima	20.2
89299	7	Sololá	704	Santa Lucía Utatlán 	7	Santa Rita 	4	Abril	2023-04-21T00:00:00	2024-11-08T21:00:00	3	Temperatura mínima	19.9
89300	7	Sololá	704	Santa Lucía Utatlán 	7	Santa Rita 	4	Abril	2023-04-21T00:00:00	2024-11-08T21:00:00	5	Humedad	87
89301	7	Sololá	704	Santa Lucía Utatlán 	7	Santa Rita 	4	Abril	2023-04-21T00:00:00	2024-11-08T21:00:00	6	Velocidad del viento	0
89302	7	Sololá	704	Santa Lucía Utatlán 	7	Santa Rita 	4	Abril	2023-04-21T00:00:00	2024-11-08T21:00:00	7	Dirección del viento	0
89303	7	Sololá	704	Santa Lucía Utatlán 	7	Santa Rita 	4	Abril	2023-04-21T00:00:00	2024-11-08T21:00:00	1	Precipitación	0
89304	7	Sololá	704	Santa Lucía Utatlán 	7	Santa Rita 	4	Abril	2023-04-21T00:00:00	2024-11-08T21:00:00	8	Radiación solar	0
89305	7	Sololá	704	Santa Lucía Utatlán 	7	Santa Rita 	4	Abril	2023-04-21T00:00:00	2024-11-08T22:00:00	2	Temperatura media	19.4
89306	7	Sololá	704	Santa Lucía Utatlán 	7	Santa Rita 	4	Abril	2023-04-21T00:00:00	2024-11-08T22:00:00	4	Temperatura máxima	19.9
89307	7	Sololá	704	Santa Lucía Utatlán 	7	Santa Rita 	4	Abril	2023-04-21T00:00:00	2024-11-08T22:00:00	3	Temperatura mínima	19.1
89308	7	Sololá	704	Santa Lucía Utatlán 	7	Santa Rita 	4	Abril	2023-04-21T00:00:00	2024-11-08T22:00:00	5	Humedad	83
89309	7	Sololá	704	Santa Lucía Utatlán 	7	Santa Rita 	4	Abril	2023-04-21T00:00:00	2024-11-08T22:00:00	6	Velocidad del viento	1.6
89310	7	Sololá	704	Santa Lucía Utatlán 	7	Santa Rita 	4	Abril	2023-04-21T00:00:00	2024-11-08T22:00:00	7	Dirección del viento	1.61
89311	7	Sololá	704	Santa Lucía Utatlán 	7	Santa Rita 	4	Abril	2023-04-21T00:00:00	2024-11-08T22:00:00	1	Precipitación	0
89312	7	Sololá	704	Santa Lucía Utatlán 	7	Santa Rita 	4	Abril	2023-04-21T00:00:00	2024-11-08T22:00:00	8	Radiación solar	0
89313	7	Sololá	704	Santa Lucía Utatlán 	7	Santa Rita 	4	Abril	2023-04-21T00:00:00	2024-11-08T23:00:00	2	Temperatura media	18.4
89314	7	Sololá	704	Santa Lucía Utatlán 	7	Santa Rita 	4	Abril	2023-04-21T00:00:00	2024-11-08T23:00:00	4	Temperatura máxima	19.6
89315	7	Sololá	704	Santa Lucía Utatlán 	7	Santa Rita 	4	Abril	2023-04-21T00:00:00	2024-11-08T23:00:00	3	Temperatura mínima	18.4
89316	7	Sololá	704	Santa Lucía Utatlán 	7	Santa Rita 	4	Abril	2023-04-21T00:00:00	2024-11-08T23:00:00	5	Humedad	78
89317	7	Sololá	704	Santa Lucía Utatlán 	7	Santa Rita 	4	Abril	2023-04-21T00:00:00	2024-11-08T23:00:00	6	Velocidad del viento	1.6
89318	7	Sololá	704	Santa Lucía Utatlán 	7	Santa Rita 	4	Abril	2023-04-21T00:00:00	2024-11-08T23:00:00	7	Dirección del viento	1.61
89319	7	Sololá	704	Santa Lucía Utatlán 	7	Santa Rita 	4	Abril	2023-04-21T00:00:00	2024-11-08T23:00:00	1	Precipitación	0
89320	7	Sololá	704	Santa Lucía Utatlán 	7	Santa Rita 	4	Abril	2023-04-21T00:00:00	2024-11-08T23:00:00	8	Radiación solar	0
89321	7	Sololá	704	Santa Lucía Utatlán 	7	Santa Rita 	4	Abril	2023-04-22T00:00:00	2024-11-08T00:00:00	2	Temperatura media	17.4
89322	7	Sololá	704	Santa Lucía Utatlán 	7	Santa Rita 	4	Abril	2023-04-22T00:00:00	2024-11-08T00:00:00	4	Temperatura máxima	18.4
89323	7	Sololá	704	Santa Lucía Utatlán 	7	Santa Rita 	4	Abril	2023-04-22T00:00:00	2024-11-08T00:00:00	3	Temperatura mínima	17.3
89324	7	Sololá	704	Santa Lucía Utatlán 	7	Santa Rita 	4	Abril	2023-04-22T00:00:00	2024-11-08T00:00:00	5	Humedad	75
89325	7	Sololá	704	Santa Lucía Utatlán 	7	Santa Rita 	4	Abril	2023-04-22T00:00:00	2024-11-08T00:00:00	6	Velocidad del viento	4.8
89326	7	Sololá	704	Santa Lucía Utatlán 	7	Santa Rita 	4	Abril	2023-04-22T00:00:00	2024-11-08T00:00:00	7	Dirección del viento	4.83
89327	7	Sololá	704	Santa Lucía Utatlán 	7	Santa Rita 	4	Abril	2023-04-22T00:00:00	2024-11-08T00:00:00	1	Precipitación	0
89328	7	Sololá	704	Santa Lucía Utatlán 	7	Santa Rita 	4	Abril	2023-04-22T00:00:00	2024-11-08T00:00:00	8	Radiación solar	0
89329	7	Sololá	704	Santa Lucía Utatlán 	7	Santa Rita 	4	Abril	2023-04-22T00:00:00	2024-11-08T01:00:00	2	Temperatura media	17.8
89330	7	Sololá	704	Santa Lucía Utatlán 	7	Santa Rita 	4	Abril	2023-04-22T00:00:00	2024-11-08T01:00:00	4	Temperatura máxima	17.9
89331	7	Sololá	704	Santa Lucía Utatlán 	7	Santa Rita 	4	Abril	2023-04-22T00:00:00	2024-11-08T01:00:00	3	Temperatura mínima	17.3
89332	7	Sololá	704	Santa Lucía Utatlán 	7	Santa Rita 	4	Abril	2023-04-22T00:00:00	2024-11-08T01:00:00	5	Humedad	70
89333	7	Sololá	704	Santa Lucía Utatlán 	7	Santa Rita 	4	Abril	2023-04-22T00:00:00	2024-11-08T01:00:00	6	Velocidad del viento	6.4
89334	7	Sololá	704	Santa Lucía Utatlán 	7	Santa Rita 	4	Abril	2023-04-22T00:00:00	2024-11-08T01:00:00	7	Dirección del viento	6.44
89335	7	Sololá	704	Santa Lucía Utatlán 	7	Santa Rita 	4	Abril	2023-04-22T00:00:00	2024-11-08T01:00:00	1	Precipitación	0
89336	7	Sololá	704	Santa Lucía Utatlán 	7	Santa Rita 	4	Abril	2023-04-22T00:00:00	2024-11-08T01:00:00	8	Radiación solar	0
89337	7	Sololá	704	Santa Lucía Utatlán 	7	Santa Rita 	4	Abril	2023-04-22T00:00:00	2024-11-08T02:00:00	2	Temperatura media	17
89338	7	Sololá	704	Santa Lucía Utatlán 	7	Santa Rita 	4	Abril	2023-04-22T00:00:00	2024-11-08T02:00:00	4	Temperatura máxima	18.2
89339	7	Sololá	704	Santa Lucía Utatlán 	7	Santa Rita 	4	Abril	2023-04-22T00:00:00	2024-11-08T02:00:00	3	Temperatura mínima	17
89340	7	Sololá	704	Santa Lucía Utatlán 	7	Santa Rita 	4	Abril	2023-04-22T00:00:00	2024-11-08T02:00:00	5	Humedad	76
89341	7	Sololá	704	Santa Lucía Utatlán 	7	Santa Rita 	4	Abril	2023-04-22T00:00:00	2024-11-08T02:00:00	6	Velocidad del viento	3.2
89342	7	Sololá	704	Santa Lucía Utatlán 	7	Santa Rita 	4	Abril	2023-04-22T00:00:00	2024-11-08T02:00:00	7	Dirección del viento	3.22
89343	7	Sololá	704	Santa Lucía Utatlán 	7	Santa Rita 	4	Abril	2023-04-22T00:00:00	2024-11-08T02:00:00	1	Precipitación	0
89344	7	Sololá	704	Santa Lucía Utatlán 	7	Santa Rita 	4	Abril	2023-04-22T00:00:00	2024-11-08T02:00:00	8	Radiación solar	0
89345	7	Sololá	704	Santa Lucía Utatlán 	7	Santa Rita 	4	Abril	2023-04-22T00:00:00	2024-11-08T03:00:00	2	Temperatura media	17.2
89346	7	Sololá	704	Santa Lucía Utatlán 	7	Santa Rita 	4	Abril	2023-04-22T00:00:00	2024-11-08T03:00:00	4	Temperatura máxima	17.3
89347	7	Sololá	704	Santa Lucía Utatlán 	7	Santa Rita 	4	Abril	2023-04-22T00:00:00	2024-11-08T03:00:00	3	Temperatura mínima	16.8
89348	7	Sololá	704	Santa Lucía Utatlán 	7	Santa Rita 	4	Abril	2023-04-22T00:00:00	2024-11-08T03:00:00	5	Humedad	75
89349	7	Sololá	704	Santa Lucía Utatlán 	7	Santa Rita 	4	Abril	2023-04-22T00:00:00	2024-11-08T03:00:00	6	Velocidad del viento	4.8
89350	7	Sololá	704	Santa Lucía Utatlán 	7	Santa Rita 	4	Abril	2023-04-22T00:00:00	2024-11-08T03:00:00	7	Dirección del viento	4.83
89351	7	Sololá	704	Santa Lucía Utatlán 	7	Santa Rita 	4	Abril	2023-04-22T00:00:00	2024-11-08T03:00:00	1	Precipitación	0
89352	7	Sololá	704	Santa Lucía Utatlán 	7	Santa Rita 	4	Abril	2023-04-22T00:00:00	2024-11-08T03:00:00	8	Radiación solar	0
89353	7	Sololá	704	Santa Lucía Utatlán 	7	Santa Rita 	4	Abril	2023-04-22T00:00:00	2024-11-08T04:00:00	2	Temperatura media	16.8
89354	7	Sololá	704	Santa Lucía Utatlán 	7	Santa Rita 	4	Abril	2023-04-22T00:00:00	2024-11-08T04:00:00	4	Temperatura máxima	17.6
89355	7	Sololá	704	Santa Lucía Utatlán 	7	Santa Rita 	4	Abril	2023-04-22T00:00:00	2024-11-08T04:00:00	3	Temperatura mínima	16.8
89356	7	Sololá	704	Santa Lucía Utatlán 	7	Santa Rita 	4	Abril	2023-04-22T00:00:00	2024-11-08T04:00:00	5	Humedad	78
89357	7	Sololá	704	Santa Lucía Utatlán 	7	Santa Rita 	4	Abril	2023-04-22T00:00:00	2024-11-08T04:00:00	6	Velocidad del viento	3.2
89358	7	Sololá	704	Santa Lucía Utatlán 	7	Santa Rita 	4	Abril	2023-04-22T00:00:00	2024-11-08T04:00:00	7	Dirección del viento	3.22
89359	7	Sololá	704	Santa Lucía Utatlán 	7	Santa Rita 	4	Abril	2023-04-22T00:00:00	2024-11-08T04:00:00	1	Precipitación	0
89360	7	Sololá	704	Santa Lucía Utatlán 	7	Santa Rita 	4	Abril	2023-04-22T00:00:00	2024-11-08T04:00:00	8	Radiación solar	0
89361	7	Sololá	704	Santa Lucía Utatlán 	7	Santa Rita 	4	Abril	2023-04-22T00:00:00	2024-11-08T05:00:00	2	Temperatura media	17.2
89362	7	Sololá	704	Santa Lucía Utatlán 	7	Santa Rita 	4	Abril	2023-04-22T00:00:00	2024-11-08T05:00:00	4	Temperatura máxima	17.5
89363	7	Sololá	704	Santa Lucía Utatlán 	7	Santa Rita 	4	Abril	2023-04-22T00:00:00	2024-11-08T05:00:00	3	Temperatura mínima	16.8
89364	7	Sololá	704	Santa Lucía Utatlán 	7	Santa Rita 	4	Abril	2023-04-22T00:00:00	2024-11-08T05:00:00	5	Humedad	73
89365	7	Sololá	704	Santa Lucía Utatlán 	7	Santa Rita 	4	Abril	2023-04-22T00:00:00	2024-11-08T05:00:00	6	Velocidad del viento	3.2
89366	7	Sololá	704	Santa Lucía Utatlán 	7	Santa Rita 	4	Abril	2023-04-22T00:00:00	2024-11-08T05:00:00	7	Dirección del viento	3.22
89367	7	Sololá	704	Santa Lucía Utatlán 	7	Santa Rita 	4	Abril	2023-04-22T00:00:00	2024-11-08T05:00:00	1	Precipitación	0
89368	7	Sololá	704	Santa Lucía Utatlán 	7	Santa Rita 	4	Abril	2023-04-22T00:00:00	2024-11-08T05:00:00	8	Radiación solar	0
89369	7	Sololá	704	Santa Lucía Utatlán 	7	Santa Rita 	4	Abril	2023-04-22T00:00:00	2024-11-08T06:00:00	2	Temperatura media	16.2
89370	7	Sololá	704	Santa Lucía Utatlán 	7	Santa Rita 	4	Abril	2023-04-22T00:00:00	2024-11-08T06:00:00	4	Temperatura máxima	17.2
89371	7	Sololá	704	Santa Lucía Utatlán 	7	Santa Rita 	4	Abril	2023-04-22T00:00:00	2024-11-08T06:00:00	3	Temperatura mínima	16.2
89372	7	Sololá	704	Santa Lucía Utatlán 	7	Santa Rita 	4	Abril	2023-04-22T00:00:00	2024-11-08T06:00:00	5	Humedad	68
89373	7	Sololá	704	Santa Lucía Utatlán 	7	Santa Rita 	4	Abril	2023-04-22T00:00:00	2024-11-08T06:00:00	6	Velocidad del viento	3.2
89374	7	Sololá	704	Santa Lucía Utatlán 	7	Santa Rita 	4	Abril	2023-04-22T00:00:00	2024-11-08T06:00:00	7	Dirección del viento	3.22
89375	7	Sololá	704	Santa Lucía Utatlán 	7	Santa Rita 	4	Abril	2023-04-22T00:00:00	2024-11-08T06:00:00	1	Precipitación	0
89376	7	Sololá	704	Santa Lucía Utatlán 	7	Santa Rita 	4	Abril	2023-04-22T00:00:00	2024-11-08T06:00:00	8	Radiación solar	0
89377	7	Sololá	704	Santa Lucía Utatlán 	7	Santa Rita 	4	Abril	2023-04-22T00:00:00	2024-11-08T07:00:00	2	Temperatura media	16.9
89378	7	Sololá	704	Santa Lucía Utatlán 	7	Santa Rita 	4	Abril	2023-04-22T00:00:00	2024-11-08T07:00:00	4	Temperatura máxima	17.3
89379	7	Sololá	704	Santa Lucía Utatlán 	7	Santa Rita 	4	Abril	2023-04-22T00:00:00	2024-11-08T07:00:00	3	Temperatura mínima	16.2
89380	7	Sololá	704	Santa Lucía Utatlán 	7	Santa Rita 	4	Abril	2023-04-22T00:00:00	2024-11-08T07:00:00	5	Humedad	55
89381	7	Sololá	704	Santa Lucía Utatlán 	7	Santa Rita 	4	Abril	2023-04-22T00:00:00	2024-11-08T07:00:00	6	Velocidad del viento	3.2
89382	7	Sololá	704	Santa Lucía Utatlán 	7	Santa Rita 	4	Abril	2023-04-22T00:00:00	2024-11-08T07:00:00	7	Dirección del viento	3.22
89383	7	Sololá	704	Santa Lucía Utatlán 	7	Santa Rita 	4	Abril	2023-04-22T00:00:00	2024-11-08T07:00:00	1	Precipitación	0
89384	7	Sololá	704	Santa Lucía Utatlán 	7	Santa Rita 	4	Abril	2023-04-22T00:00:00	2024-11-08T07:00:00	8	Radiación solar	2
89385	7	Sololá	704	Santa Lucía Utatlán 	7	Santa Rita 	4	Abril	2023-04-22T00:00:00	2024-11-08T08:00:00	2	Temperatura media	19.8
89386	7	Sololá	704	Santa Lucía Utatlán 	7	Santa Rita 	4	Abril	2023-04-22T00:00:00	2024-11-08T08:00:00	4	Temperatura máxima	19.8
89387	7	Sololá	704	Santa Lucía Utatlán 	7	Santa Rita 	4	Abril	2023-04-22T00:00:00	2024-11-08T08:00:00	3	Temperatura mínima	16.8
89388	7	Sololá	704	Santa Lucía Utatlán 	7	Santa Rita 	4	Abril	2023-04-22T00:00:00	2024-11-08T08:00:00	5	Humedad	50
89389	7	Sololá	704	Santa Lucía Utatlán 	7	Santa Rita 	4	Abril	2023-04-22T00:00:00	2024-11-08T08:00:00	6	Velocidad del viento	3.2
89390	7	Sololá	704	Santa Lucía Utatlán 	7	Santa Rita 	4	Abril	2023-04-22T00:00:00	2024-11-08T08:00:00	7	Dirección del viento	3.22
89391	7	Sololá	704	Santa Lucía Utatlán 	7	Santa Rita 	4	Abril	2023-04-22T00:00:00	2024-11-08T08:00:00	1	Precipitación	0
89392	7	Sololá	704	Santa Lucía Utatlán 	7	Santa Rita 	4	Abril	2023-04-22T00:00:00	2024-11-08T08:00:00	8	Radiación solar	116
89393	7	Sololá	704	Santa Lucía Utatlán 	7	Santa Rita 	4	Abril	2023-04-22T00:00:00	2024-11-08T09:00:00	2	Temperatura media	22.9
89394	7	Sololá	704	Santa Lucía Utatlán 	7	Santa Rita 	4	Abril	2023-04-22T00:00:00	2024-11-08T09:00:00	4	Temperatura máxima	22.9
89395	7	Sololá	704	Santa Lucía Utatlán 	7	Santa Rita 	4	Abril	2023-04-22T00:00:00	2024-11-08T09:00:00	3	Temperatura mínima	19.8
89396	7	Sololá	704	Santa Lucía Utatlán 	7	Santa Rita 	4	Abril	2023-04-22T00:00:00	2024-11-08T09:00:00	5	Humedad	42
89397	7	Sololá	704	Santa Lucía Utatlán 	7	Santa Rita 	4	Abril	2023-04-22T00:00:00	2024-11-08T09:00:00	6	Velocidad del viento	4.8
89398	7	Sololá	704	Santa Lucía Utatlán 	7	Santa Rita 	4	Abril	2023-04-22T00:00:00	2024-11-08T09:00:00	7	Dirección del viento	4.83
89399	7	Sololá	704	Santa Lucía Utatlán 	7	Santa Rita 	4	Abril	2023-04-22T00:00:00	2024-11-08T09:00:00	1	Precipitación	0
89400	7	Sololá	704	Santa Lucía Utatlán 	7	Santa Rita 	4	Abril	2023-04-22T00:00:00	2024-11-08T09:00:00	8	Radiación solar	400
89401	7	Sololá	704	Santa Lucía Utatlán 	7	Santa Rita 	4	Abril	2023-04-22T00:00:00	2024-11-08T10:00:00	2	Temperatura media	25.6
89402	7	Sololá	704	Santa Lucía Utatlán 	7	Santa Rita 	4	Abril	2023-04-22T00:00:00	2024-11-08T10:00:00	4	Temperatura máxima	25.6
89403	7	Sololá	704	Santa Lucía Utatlán 	7	Santa Rita 	4	Abril	2023-04-22T00:00:00	2024-11-08T10:00:00	3	Temperatura mínima	22.9
89404	7	Sololá	704	Santa Lucía Utatlán 	7	Santa Rita 	4	Abril	2023-04-22T00:00:00	2024-11-08T10:00:00	5	Humedad	35
89405	7	Sololá	704	Santa Lucía Utatlán 	7	Santa Rita 	4	Abril	2023-04-22T00:00:00	2024-11-08T10:00:00	6	Velocidad del viento	6.4
89406	7	Sololá	704	Santa Lucía Utatlán 	7	Santa Rita 	4	Abril	2023-04-22T00:00:00	2024-11-08T10:00:00	7	Dirección del viento	6.44
89407	7	Sololá	704	Santa Lucía Utatlán 	7	Santa Rita 	4	Abril	2023-04-22T00:00:00	2024-11-08T10:00:00	1	Precipitación	0
89408	7	Sololá	704	Santa Lucía Utatlán 	7	Santa Rita 	4	Abril	2023-04-22T00:00:00	2024-11-08T10:00:00	8	Radiación solar	626
89409	7	Sololá	704	Santa Lucía Utatlán 	7	Santa Rita 	4	Abril	2023-04-22T00:00:00	2024-11-08T11:00:00	2	Temperatura media	27
89410	7	Sololá	704	Santa Lucía Utatlán 	7	Santa Rita 	4	Abril	2023-04-22T00:00:00	2024-11-08T11:00:00	4	Temperatura máxima	27
89411	7	Sololá	704	Santa Lucía Utatlán 	7	Santa Rita 	4	Abril	2023-04-22T00:00:00	2024-11-08T11:00:00	3	Temperatura mínima	25.2
89412	7	Sololá	704	Santa Lucía Utatlán 	7	Santa Rita 	4	Abril	2023-04-22T00:00:00	2024-11-08T11:00:00	5	Humedad	31
89413	7	Sololá	704	Santa Lucía Utatlán 	7	Santa Rita 	4	Abril	2023-04-22T00:00:00	2024-11-08T11:00:00	6	Velocidad del viento	6.4
89414	7	Sololá	704	Santa Lucía Utatlán 	7	Santa Rita 	4	Abril	2023-04-22T00:00:00	2024-11-08T11:00:00	7	Dirección del viento	6.44
89415	7	Sololá	704	Santa Lucía Utatlán 	7	Santa Rita 	4	Abril	2023-04-22T00:00:00	2024-11-08T11:00:00	1	Precipitación	0
89416	7	Sololá	704	Santa Lucía Utatlán 	7	Santa Rita 	4	Abril	2023-04-22T00:00:00	2024-11-08T11:00:00	8	Radiación solar	817
89417	7	Sololá	704	Santa Lucía Utatlán 	7	Santa Rita 	4	Abril	2023-04-22T00:00:00	2024-11-08T12:00:00	2	Temperatura media	27.4
89418	7	Sololá	704	Santa Lucía Utatlán 	7	Santa Rita 	4	Abril	2023-04-22T00:00:00	2024-11-08T12:00:00	4	Temperatura máxima	27.9
89419	7	Sololá	704	Santa Lucía Utatlán 	7	Santa Rita 	4	Abril	2023-04-22T00:00:00	2024-11-08T12:00:00	3	Temperatura mínima	27
89420	7	Sololá	704	Santa Lucía Utatlán 	7	Santa Rita 	4	Abril	2023-04-22T00:00:00	2024-11-08T12:00:00	5	Humedad	33
89421	7	Sololá	704	Santa Lucía Utatlán 	7	Santa Rita 	4	Abril	2023-04-22T00:00:00	2024-11-08T12:00:00	6	Velocidad del viento	9.7
89422	7	Sololá	704	Santa Lucía Utatlán 	7	Santa Rita 	4	Abril	2023-04-22T00:00:00	2024-11-08T12:00:00	7	Dirección del viento	9.66
89423	7	Sololá	704	Santa Lucía Utatlán 	7	Santa Rita 	4	Abril	2023-04-22T00:00:00	2024-11-08T12:00:00	1	Precipitación	0
89424	7	Sololá	704	Santa Lucía Utatlán 	7	Santa Rita 	4	Abril	2023-04-22T00:00:00	2024-11-08T12:00:00	8	Radiación solar	950
89425	7	Sololá	704	Santa Lucía Utatlán 	7	Santa Rita 	4	Abril	2023-04-22T00:00:00	2024-11-08T13:00:00	2	Temperatura media	28.6
89426	7	Sololá	704	Santa Lucía Utatlán 	7	Santa Rita 	4	Abril	2023-04-22T00:00:00	2024-11-08T13:00:00	4	Temperatura máxima	28.7
89427	7	Sololá	704	Santa Lucía Utatlán 	7	Santa Rita 	4	Abril	2023-04-22T00:00:00	2024-11-08T13:00:00	3	Temperatura mínima	27.3
89428	7	Sololá	704	Santa Lucía Utatlán 	7	Santa Rita 	4	Abril	2023-04-22T00:00:00	2024-11-08T13:00:00	5	Humedad	36
89429	7	Sololá	704	Santa Lucía Utatlán 	7	Santa Rita 	4	Abril	2023-04-22T00:00:00	2024-11-08T13:00:00	6	Velocidad del viento	11.3
89430	7	Sololá	704	Santa Lucía Utatlán 	7	Santa Rita 	4	Abril	2023-04-22T00:00:00	2024-11-08T13:00:00	7	Dirección del viento	11.27
89431	7	Sololá	704	Santa Lucía Utatlán 	7	Santa Rita 	4	Abril	2023-04-22T00:00:00	2024-11-08T13:00:00	1	Precipitación	0
89432	7	Sololá	704	Santa Lucía Utatlán 	7	Santa Rita 	4	Abril	2023-04-22T00:00:00	2024-11-08T13:00:00	8	Radiación solar	1021
89433	7	Sololá	704	Santa Lucía Utatlán 	7	Santa Rita 	4	Abril	2023-04-22T00:00:00	2024-11-08T14:00:00	2	Temperatura media	27.6
89434	7	Sololá	704	Santa Lucía Utatlán 	7	Santa Rita 	4	Abril	2023-04-22T00:00:00	2024-11-08T14:00:00	4	Temperatura máxima	29.8
89435	7	Sololá	704	Santa Lucía Utatlán 	7	Santa Rita 	4	Abril	2023-04-22T00:00:00	2024-11-08T14:00:00	3	Temperatura mínima	27.6
89436	7	Sololá	704	Santa Lucía Utatlán 	7	Santa Rita 	4	Abril	2023-04-22T00:00:00	2024-11-08T14:00:00	5	Humedad	51
89437	7	Sololá	704	Santa Lucía Utatlán 	7	Santa Rita 	4	Abril	2023-04-22T00:00:00	2024-11-08T14:00:00	6	Velocidad del viento	9.7
89438	7	Sololá	704	Santa Lucía Utatlán 	7	Santa Rita 	4	Abril	2023-04-22T00:00:00	2024-11-08T14:00:00	7	Dirección del viento	9.66
89439	7	Sololá	704	Santa Lucía Utatlán 	7	Santa Rita 	4	Abril	2023-04-22T00:00:00	2024-11-08T14:00:00	1	Precipitación	0
89440	7	Sololá	704	Santa Lucía Utatlán 	7	Santa Rita 	4	Abril	2023-04-22T00:00:00	2024-11-08T14:00:00	8	Radiación solar	978
89441	7	Sololá	704	Santa Lucía Utatlán 	7	Santa Rita 	4	Abril	2023-04-22T00:00:00	2024-11-08T15:00:00	2	Temperatura media	26.3
89442	7	Sololá	704	Santa Lucía Utatlán 	7	Santa Rita 	4	Abril	2023-04-22T00:00:00	2024-11-08T15:00:00	4	Temperatura máxima	27.6
89443	7	Sololá	704	Santa Lucía Utatlán 	7	Santa Rita 	4	Abril	2023-04-22T00:00:00	2024-11-08T15:00:00	3	Temperatura mínima	25.8
89444	7	Sololá	704	Santa Lucía Utatlán 	7	Santa Rita 	4	Abril	2023-04-22T00:00:00	2024-11-08T15:00:00	5	Humedad	63
89445	7	Sololá	704	Santa Lucía Utatlán 	7	Santa Rita 	4	Abril	2023-04-22T00:00:00	2024-11-08T15:00:00	6	Velocidad del viento	8
89446	7	Sololá	704	Santa Lucía Utatlán 	7	Santa Rita 	4	Abril	2023-04-22T00:00:00	2024-11-08T15:00:00	7	Dirección del viento	8.05
89447	7	Sololá	704	Santa Lucía Utatlán 	7	Santa Rita 	4	Abril	2023-04-22T00:00:00	2024-11-08T15:00:00	1	Precipitación	0
89448	7	Sololá	704	Santa Lucía Utatlán 	7	Santa Rita 	4	Abril	2023-04-22T00:00:00	2024-11-08T15:00:00	8	Radiación solar	598
89449	7	Sololá	704	Santa Lucía Utatlán 	7	Santa Rita 	4	Abril	2023-04-22T00:00:00	2024-11-08T16:00:00	2	Temperatura media	25.2
89450	7	Sololá	704	Santa Lucía Utatlán 	7	Santa Rita 	4	Abril	2023-04-22T00:00:00	2024-11-08T16:00:00	4	Temperatura máxima	26.4
89451	7	Sololá	704	Santa Lucía Utatlán 	7	Santa Rita 	4	Abril	2023-04-22T00:00:00	2024-11-08T16:00:00	3	Temperatura mínima	24.8
89452	7	Sololá	704	Santa Lucía Utatlán 	7	Santa Rita 	4	Abril	2023-04-22T00:00:00	2024-11-08T16:00:00	5	Humedad	72
89453	7	Sololá	704	Santa Lucía Utatlán 	7	Santa Rita 	4	Abril	2023-04-22T00:00:00	2024-11-08T16:00:00	6	Velocidad del viento	9.7
89454	7	Sololá	704	Santa Lucía Utatlán 	7	Santa Rita 	4	Abril	2023-04-22T00:00:00	2024-11-08T16:00:00	7	Dirección del viento	9.66
89455	7	Sololá	704	Santa Lucía Utatlán 	7	Santa Rita 	4	Abril	2023-04-22T00:00:00	2024-11-08T16:00:00	1	Precipitación	0
89456	7	Sololá	704	Santa Lucía Utatlán 	7	Santa Rita 	4	Abril	2023-04-22T00:00:00	2024-11-08T16:00:00	8	Radiación solar	602
89457	7	Sololá	704	Santa Lucía Utatlán 	7	Santa Rita 	4	Abril	2023-04-22T00:00:00	2024-11-08T17:00:00	2	Temperatura media	23.5
89458	7	Sololá	704	Santa Lucía Utatlán 	7	Santa Rita 	4	Abril	2023-04-22T00:00:00	2024-11-08T17:00:00	4	Temperatura máxima	25.1
89459	7	Sololá	704	Santa Lucía Utatlán 	7	Santa Rita 	4	Abril	2023-04-22T00:00:00	2024-11-08T17:00:00	3	Temperatura mínima	23.4
89460	7	Sololá	704	Santa Lucía Utatlán 	7	Santa Rita 	4	Abril	2023-04-22T00:00:00	2024-11-08T17:00:00	5	Humedad	79
89461	7	Sololá	704	Santa Lucía Utatlán 	7	Santa Rita 	4	Abril	2023-04-22T00:00:00	2024-11-08T17:00:00	6	Velocidad del viento	8
89462	7	Sololá	704	Santa Lucía Utatlán 	7	Santa Rita 	4	Abril	2023-04-22T00:00:00	2024-11-08T17:00:00	7	Dirección del viento	8.05
89463	7	Sololá	704	Santa Lucía Utatlán 	7	Santa Rita 	4	Abril	2023-04-22T00:00:00	2024-11-08T17:00:00	1	Precipitación	0
89464	7	Sololá	704	Santa Lucía Utatlán 	7	Santa Rita 	4	Abril	2023-04-22T00:00:00	2024-11-08T17:00:00	8	Radiación solar	202
89465	7	Sololá	704	Santa Lucía Utatlán 	7	Santa Rita 	4	Abril	2023-04-22T00:00:00	2024-11-08T18:00:00	2	Temperatura media	23
89466	7	Sololá	704	Santa Lucía Utatlán 	7	Santa Rita 	4	Abril	2023-04-22T00:00:00	2024-11-08T18:00:00	4	Temperatura máxima	23.6
89467	7	Sololá	704	Santa Lucía Utatlán 	7	Santa Rita 	4	Abril	2023-04-22T00:00:00	2024-11-08T18:00:00	3	Temperatura mínima	22.8
89468	7	Sololá	704	Santa Lucía Utatlán 	7	Santa Rita 	4	Abril	2023-04-22T00:00:00	2024-11-08T18:00:00	5	Humedad	82
89469	7	Sololá	704	Santa Lucía Utatlán 	7	Santa Rita 	4	Abril	2023-04-22T00:00:00	2024-11-08T18:00:00	6	Velocidad del viento	3.2
89470	7	Sololá	704	Santa Lucía Utatlán 	7	Santa Rita 	4	Abril	2023-04-22T00:00:00	2024-11-08T18:00:00	7	Dirección del viento	3.22
89471	7	Sololá	704	Santa Lucía Utatlán 	7	Santa Rita 	4	Abril	2023-04-22T00:00:00	2024-11-08T18:00:00	1	Precipitación	0
89472	7	Sololá	704	Santa Lucía Utatlán 	7	Santa Rita 	4	Abril	2023-04-22T00:00:00	2024-11-08T18:00:00	8	Radiación solar	68
89473	7	Sololá	704	Santa Lucía Utatlán 	7	Santa Rita 	4	Abril	2023-04-22T00:00:00	2024-11-08T19:00:00	2	Temperatura media	22.8
89474	7	Sololá	704	Santa Lucía Utatlán 	7	Santa Rita 	4	Abril	2023-04-22T00:00:00	2024-11-08T19:00:00	4	Temperatura máxima	23.1
89475	7	Sololá	704	Santa Lucía Utatlán 	7	Santa Rita 	4	Abril	2023-04-22T00:00:00	2024-11-08T19:00:00	3	Temperatura mínima	22.6
89476	7	Sololá	704	Santa Lucía Utatlán 	7	Santa Rita 	4	Abril	2023-04-22T00:00:00	2024-11-08T19:00:00	5	Humedad	83
89477	7	Sololá	704	Santa Lucía Utatlán 	7	Santa Rita 	4	Abril	2023-04-22T00:00:00	2024-11-08T19:00:00	6	Velocidad del viento	1.6
89478	7	Sololá	704	Santa Lucía Utatlán 	7	Santa Rita 	4	Abril	2023-04-22T00:00:00	2024-11-08T19:00:00	7	Dirección del viento	1.61
89479	7	Sololá	704	Santa Lucía Utatlán 	7	Santa Rita 	4	Abril	2023-04-22T00:00:00	2024-11-08T19:00:00	1	Precipitación	0
89480	7	Sololá	704	Santa Lucía Utatlán 	7	Santa Rita 	4	Abril	2023-04-22T00:00:00	2024-11-08T19:00:00	8	Radiación solar	0
89481	7	Sololá	704	Santa Lucía Utatlán 	7	Santa Rita 	4	Abril	2023-04-22T00:00:00	2024-11-08T20:00:00	2	Temperatura media	21.6
89482	7	Sololá	704	Santa Lucía Utatlán 	7	Santa Rita 	4	Abril	2023-04-22T00:00:00	2024-11-08T20:00:00	4	Temperatura máxima	22.9
89483	7	Sololá	704	Santa Lucía Utatlán 	7	Santa Rita 	4	Abril	2023-04-22T00:00:00	2024-11-08T20:00:00	3	Temperatura mínima	21.6
89484	7	Sololá	704	Santa Lucía Utatlán 	7	Santa Rita 	4	Abril	2023-04-22T00:00:00	2024-11-08T20:00:00	5	Humedad	85
89485	7	Sololá	704	Santa Lucía Utatlán 	7	Santa Rita 	4	Abril	2023-04-22T00:00:00	2024-11-08T20:00:00	6	Velocidad del viento	3.2
89486	7	Sololá	704	Santa Lucía Utatlán 	7	Santa Rita 	4	Abril	2023-04-22T00:00:00	2024-11-08T20:00:00	7	Dirección del viento	3.22
89487	7	Sololá	704	Santa Lucía Utatlán 	7	Santa Rita 	4	Abril	2023-04-22T00:00:00	2024-11-08T20:00:00	1	Precipitación	0
89488	7	Sololá	704	Santa Lucía Utatlán 	7	Santa Rita 	4	Abril	2023-04-22T00:00:00	2024-11-08T20:00:00	8	Radiación solar	0
89489	7	Sololá	704	Santa Lucía Utatlán 	7	Santa Rita 	4	Abril	2023-04-22T00:00:00	2024-11-08T21:00:00	2	Temperatura media	20.9
89490	7	Sololá	704	Santa Lucía Utatlán 	7	Santa Rita 	4	Abril	2023-04-22T00:00:00	2024-11-08T21:00:00	4	Temperatura máxima	21.6
89491	7	Sololá	704	Santa Lucía Utatlán 	7	Santa Rita 	4	Abril	2023-04-22T00:00:00	2024-11-08T21:00:00	3	Temperatura mínima	20.8
89492	7	Sololá	704	Santa Lucía Utatlán 	7	Santa Rita 	4	Abril	2023-04-22T00:00:00	2024-11-08T21:00:00	5	Humedad	75
89493	7	Sololá	704	Santa Lucía Utatlán 	7	Santa Rita 	4	Abril	2023-04-22T00:00:00	2024-11-08T21:00:00	6	Velocidad del viento	3.2
89494	7	Sololá	704	Santa Lucía Utatlán 	7	Santa Rita 	4	Abril	2023-04-22T00:00:00	2024-11-08T21:00:00	7	Dirección del viento	3.22
89495	7	Sololá	704	Santa Lucía Utatlán 	7	Santa Rita 	4	Abril	2023-04-22T00:00:00	2024-11-08T21:00:00	1	Precipitación	0
89496	7	Sololá	704	Santa Lucía Utatlán 	7	Santa Rita 	4	Abril	2023-04-22T00:00:00	2024-11-08T21:00:00	8	Radiación solar	0
89497	7	Sololá	704	Santa Lucía Utatlán 	7	Santa Rita 	4	Abril	2023-04-22T00:00:00	2024-11-08T22:00:00	2	Temperatura media	19.6
89498	7	Sololá	704	Santa Lucía Utatlán 	7	Santa Rita 	4	Abril	2023-04-22T00:00:00	2024-11-08T22:00:00	4	Temperatura máxima	21.2
89499	7	Sololá	704	Santa Lucía Utatlán 	7	Santa Rita 	4	Abril	2023-04-22T00:00:00	2024-11-08T22:00:00	3	Temperatura mínima	19.6
89500	7	Sololá	704	Santa Lucía Utatlán 	7	Santa Rita 	4	Abril	2023-04-22T00:00:00	2024-11-08T22:00:00	5	Humedad	79
89501	7	Sololá	704	Santa Lucía Utatlán 	7	Santa Rita 	4	Abril	2023-04-22T00:00:00	2024-11-08T22:00:00	6	Velocidad del viento	3.2
89502	7	Sololá	704	Santa Lucía Utatlán 	7	Santa Rita 	4	Abril	2023-04-22T00:00:00	2024-11-08T22:00:00	7	Dirección del viento	3.22
89503	7	Sololá	704	Santa Lucía Utatlán 	7	Santa Rita 	4	Abril	2023-04-22T00:00:00	2024-11-08T22:00:00	1	Precipitación	0
89504	7	Sololá	704	Santa Lucía Utatlán 	7	Santa Rita 	4	Abril	2023-04-22T00:00:00	2024-11-08T22:00:00	8	Radiación solar	0
89505	7	Sololá	704	Santa Lucía Utatlán 	7	Santa Rita 	4	Abril	2023-04-22T00:00:00	2024-11-08T23:00:00	2	Temperatura media	19.8
89506	7	Sololá	704	Santa Lucía Utatlán 	7	Santa Rita 	4	Abril	2023-04-22T00:00:00	2024-11-08T23:00:00	4	Temperatura máxima	19.9
89507	7	Sololá	704	Santa Lucía Utatlán 	7	Santa Rita 	4	Abril	2023-04-22T00:00:00	2024-11-08T23:00:00	3	Temperatura mínima	19.3
89508	7	Sololá	704	Santa Lucía Utatlán 	7	Santa Rita 	4	Abril	2023-04-22T00:00:00	2024-11-08T23:00:00	5	Humedad	81
89509	7	Sololá	704	Santa Lucía Utatlán 	7	Santa Rita 	4	Abril	2023-04-22T00:00:00	2024-11-08T23:00:00	6	Velocidad del viento	1.6
89510	7	Sololá	704	Santa Lucía Utatlán 	7	Santa Rita 	4	Abril	2023-04-22T00:00:00	2024-11-08T23:00:00	7	Dirección del viento	1.61
89511	7	Sololá	704	Santa Lucía Utatlán 	7	Santa Rita 	4	Abril	2023-04-22T00:00:00	2024-11-08T23:00:00	1	Precipitación	0
89512	7	Sololá	704	Santa Lucía Utatlán 	7	Santa Rita 	4	Abril	2023-04-22T00:00:00	2024-11-08T23:00:00	8	Radiación solar	0
89513	7	Sololá	704	Santa Lucía Utatlán 	7	Santa Rita 	4	Abril	2023-04-23T00:00:00	2024-11-08T00:00:00	2	Temperatura media	18.7
89514	7	Sololá	704	Santa Lucía Utatlán 	7	Santa Rita 	4	Abril	2023-04-23T00:00:00	2024-11-08T00:00:00	4	Temperatura máxima	19.9
89515	7	Sololá	704	Santa Lucía Utatlán 	7	Santa Rita 	4	Abril	2023-04-23T00:00:00	2024-11-08T00:00:00	3	Temperatura mínima	18.6
89516	7	Sololá	704	Santa Lucía Utatlán 	7	Santa Rita 	4	Abril	2023-04-23T00:00:00	2024-11-08T00:00:00	5	Humedad	83
89517	7	Sololá	704	Santa Lucía Utatlán 	7	Santa Rita 	4	Abril	2023-04-23T00:00:00	2024-11-08T00:00:00	6	Velocidad del viento	1.6
89518	7	Sololá	704	Santa Lucía Utatlán 	7	Santa Rita 	4	Abril	2023-04-23T00:00:00	2024-11-08T00:00:00	7	Dirección del viento	1.61
89519	7	Sololá	704	Santa Lucía Utatlán 	7	Santa Rita 	4	Abril	2023-04-23T00:00:00	2024-11-08T00:00:00	1	Precipitación	0
89520	7	Sololá	704	Santa Lucía Utatlán 	7	Santa Rita 	4	Abril	2023-04-23T00:00:00	2024-11-08T00:00:00	8	Radiación solar	0
89521	7	Sololá	704	Santa Lucía Utatlán 	7	Santa Rita 	4	Abril	2023-04-23T00:00:00	2024-11-08T01:00:00	2	Temperatura media	18.3
89522	7	Sololá	704	Santa Lucía Utatlán 	7	Santa Rita 	4	Abril	2023-04-23T00:00:00	2024-11-08T01:00:00	4	Temperatura máxima	18.7
89523	7	Sololá	704	Santa Lucía Utatlán 	7	Santa Rita 	4	Abril	2023-04-23T00:00:00	2024-11-08T01:00:00	3	Temperatura mínima	18.2
89524	7	Sololá	704	Santa Lucía Utatlán 	7	Santa Rita 	4	Abril	2023-04-23T00:00:00	2024-11-08T01:00:00	5	Humedad	82
89525	7	Sololá	704	Santa Lucía Utatlán 	7	Santa Rita 	4	Abril	2023-04-23T00:00:00	2024-11-08T01:00:00	6	Velocidad del viento	3.2
89526	7	Sololá	704	Santa Lucía Utatlán 	7	Santa Rita 	4	Abril	2023-04-23T00:00:00	2024-11-08T01:00:00	7	Dirección del viento	3.22
89527	7	Sololá	704	Santa Lucía Utatlán 	7	Santa Rita 	4	Abril	2023-04-23T00:00:00	2024-11-08T01:00:00	1	Precipitación	0
89528	7	Sololá	704	Santa Lucía Utatlán 	7	Santa Rita 	4	Abril	2023-04-23T00:00:00	2024-11-08T01:00:00	8	Radiación solar	0
89529	7	Sololá	704	Santa Lucía Utatlán 	7	Santa Rita 	4	Abril	2023-04-23T00:00:00	2024-11-08T02:00:00	2	Temperatura media	17.5
89530	7	Sololá	704	Santa Lucía Utatlán 	7	Santa Rita 	4	Abril	2023-04-23T00:00:00	2024-11-08T02:00:00	4	Temperatura máxima	18.3
89531	7	Sololá	704	Santa Lucía Utatlán 	7	Santa Rita 	4	Abril	2023-04-23T00:00:00	2024-11-08T02:00:00	3	Temperatura mínima	17.5
89532	7	Sololá	704	Santa Lucía Utatlán 	7	Santa Rita 	4	Abril	2023-04-23T00:00:00	2024-11-08T02:00:00	5	Humedad	84
89533	7	Sololá	704	Santa Lucía Utatlán 	7	Santa Rita 	4	Abril	2023-04-23T00:00:00	2024-11-08T02:00:00	6	Velocidad del viento	1.6
89534	7	Sololá	704	Santa Lucía Utatlán 	7	Santa Rita 	4	Abril	2023-04-23T00:00:00	2024-11-08T02:00:00	7	Dirección del viento	1.61
89535	7	Sololá	704	Santa Lucía Utatlán 	7	Santa Rita 	4	Abril	2023-04-23T00:00:00	2024-11-08T02:00:00	1	Precipitación	0
89536	7	Sololá	704	Santa Lucía Utatlán 	7	Santa Rita 	4	Abril	2023-04-23T00:00:00	2024-11-08T02:00:00	8	Radiación solar	0
89537	7	Sololá	704	Santa Lucía Utatlán 	7	Santa Rita 	4	Abril	2023-04-23T00:00:00	2024-11-08T03:00:00	2	Temperatura media	17.1
89538	7	Sololá	704	Santa Lucía Utatlán 	7	Santa Rita 	4	Abril	2023-04-23T00:00:00	2024-11-08T03:00:00	4	Temperatura máxima	17.6
89539	7	Sololá	704	Santa Lucía Utatlán 	7	Santa Rita 	4	Abril	2023-04-23T00:00:00	2024-11-08T03:00:00	3	Temperatura mínima	17.1
89540	7	Sololá	704	Santa Lucía Utatlán 	7	Santa Rita 	4	Abril	2023-04-23T00:00:00	2024-11-08T03:00:00	5	Humedad	86
89541	7	Sololá	704	Santa Lucía Utatlán 	7	Santa Rita 	4	Abril	2023-04-23T00:00:00	2024-11-08T03:00:00	6	Velocidad del viento	3.2
89542	7	Sololá	704	Santa Lucía Utatlán 	7	Santa Rita 	4	Abril	2023-04-23T00:00:00	2024-11-08T03:00:00	7	Dirección del viento	3.22
89543	7	Sololá	704	Santa Lucía Utatlán 	7	Santa Rita 	4	Abril	2023-04-23T00:00:00	2024-11-08T03:00:00	1	Precipitación	0
89544	7	Sololá	704	Santa Lucía Utatlán 	7	Santa Rita 	4	Abril	2023-04-23T00:00:00	2024-11-08T03:00:00	8	Radiación solar	0
89545	7	Sololá	704	Santa Lucía Utatlán 	7	Santa Rita 	4	Abril	2023-04-23T00:00:00	2024-11-08T04:00:00	2	Temperatura media	16.3
89546	7	Sololá	704	Santa Lucía Utatlán 	7	Santa Rita 	4	Abril	2023-04-23T00:00:00	2024-11-08T04:00:00	4	Temperatura máxima	17.1
89547	7	Sololá	704	Santa Lucía Utatlán 	7	Santa Rita 	4	Abril	2023-04-23T00:00:00	2024-11-08T04:00:00	3	Temperatura mínima	16.2
89548	7	Sololá	704	Santa Lucía Utatlán 	7	Santa Rita 	4	Abril	2023-04-23T00:00:00	2024-11-08T04:00:00	5	Humedad	77
89549	7	Sololá	704	Santa Lucía Utatlán 	7	Santa Rita 	4	Abril	2023-04-23T00:00:00	2024-11-08T04:00:00	6	Velocidad del viento	3.2
89550	7	Sololá	704	Santa Lucía Utatlán 	7	Santa Rita 	4	Abril	2023-04-23T00:00:00	2024-11-08T04:00:00	7	Dirección del viento	3.22
89551	7	Sololá	704	Santa Lucía Utatlán 	7	Santa Rita 	4	Abril	2023-04-23T00:00:00	2024-11-08T04:00:00	1	Precipitación	0
89552	7	Sololá	704	Santa Lucía Utatlán 	7	Santa Rita 	4	Abril	2023-04-23T00:00:00	2024-11-08T04:00:00	8	Radiación solar	0
89553	7	Sololá	704	Santa Lucía Utatlán 	7	Santa Rita 	4	Abril	2023-04-23T00:00:00	2024-11-08T05:00:00	2	Temperatura media	16.4
89554	7	Sololá	704	Santa Lucía Utatlán 	7	Santa Rita 	4	Abril	2023-04-23T00:00:00	2024-11-08T05:00:00	4	Temperatura máxima	16.4
89555	7	Sololá	704	Santa Lucía Utatlán 	7	Santa Rita 	4	Abril	2023-04-23T00:00:00	2024-11-08T05:00:00	3	Temperatura mínima	16.1
89556	7	Sololá	704	Santa Lucía Utatlán 	7	Santa Rita 	4	Abril	2023-04-23T00:00:00	2024-11-08T05:00:00	5	Humedad	76
89557	7	Sololá	704	Santa Lucía Utatlán 	7	Santa Rita 	4	Abril	2023-04-23T00:00:00	2024-11-08T05:00:00	6	Velocidad del viento	3.2
89558	7	Sololá	704	Santa Lucía Utatlán 	7	Santa Rita 	4	Abril	2023-04-23T00:00:00	2024-11-08T05:00:00	7	Dirección del viento	3.22
89559	7	Sololá	704	Santa Lucía Utatlán 	7	Santa Rita 	4	Abril	2023-04-23T00:00:00	2024-11-08T05:00:00	1	Precipitación	0
89560	7	Sololá	704	Santa Lucía Utatlán 	7	Santa Rita 	4	Abril	2023-04-23T00:00:00	2024-11-08T05:00:00	8	Radiación solar	0
89561	7	Sololá	704	Santa Lucía Utatlán 	7	Santa Rita 	4	Abril	2023-04-23T00:00:00	2024-11-08T06:00:00	2	Temperatura media	16.8
89562	7	Sololá	704	Santa Lucía Utatlán 	7	Santa Rita 	4	Abril	2023-04-23T00:00:00	2024-11-08T06:00:00	4	Temperatura máxima	16.9
89563	7	Sololá	704	Santa Lucía Utatlán 	7	Santa Rita 	4	Abril	2023-04-23T00:00:00	2024-11-08T06:00:00	3	Temperatura mínima	16
89564	7	Sololá	704	Santa Lucía Utatlán 	7	Santa Rita 	4	Abril	2023-04-23T00:00:00	2024-11-08T06:00:00	5	Humedad	73
89565	7	Sololá	704	Santa Lucía Utatlán 	7	Santa Rita 	4	Abril	2023-04-23T00:00:00	2024-11-08T06:00:00	6	Velocidad del viento	3.2
89566	7	Sololá	704	Santa Lucía Utatlán 	7	Santa Rita 	4	Abril	2023-04-23T00:00:00	2024-11-08T06:00:00	7	Dirección del viento	3.22
89567	7	Sololá	704	Santa Lucía Utatlán 	7	Santa Rita 	4	Abril	2023-04-23T00:00:00	2024-11-08T06:00:00	1	Precipitación	0
89568	7	Sololá	704	Santa Lucía Utatlán 	7	Santa Rita 	4	Abril	2023-04-23T00:00:00	2024-11-08T06:00:00	8	Radiación solar	0
89569	7	Sololá	704	Santa Lucía Utatlán 	7	Santa Rita 	4	Abril	2023-04-23T00:00:00	2024-11-08T07:00:00	2	Temperatura media	16.8
89570	7	Sololá	704	Santa Lucía Utatlán 	7	Santa Rita 	4	Abril	2023-04-23T00:00:00	2024-11-08T07:00:00	4	Temperatura máxima	17.3
89571	7	Sololá	704	Santa Lucía Utatlán 	7	Santa Rita 	4	Abril	2023-04-23T00:00:00	2024-11-08T07:00:00	3	Temperatura mínima	16.8
89572	7	Sololá	704	Santa Lucía Utatlán 	7	Santa Rita 	4	Abril	2023-04-23T00:00:00	2024-11-08T07:00:00	5	Humedad	73
89573	7	Sololá	704	Santa Lucía Utatlán 	7	Santa Rita 	4	Abril	2023-04-23T00:00:00	2024-11-08T07:00:00	6	Velocidad del viento	3.2
89574	7	Sololá	704	Santa Lucía Utatlán 	7	Santa Rita 	4	Abril	2023-04-23T00:00:00	2024-11-08T07:00:00	7	Dirección del viento	3.22
89575	7	Sololá	704	Santa Lucía Utatlán 	7	Santa Rita 	4	Abril	2023-04-23T00:00:00	2024-11-08T07:00:00	1	Precipitación	0
89576	7	Sololá	704	Santa Lucía Utatlán 	7	Santa Rita 	4	Abril	2023-04-23T00:00:00	2024-11-08T07:00:00	8	Radiación solar	2
89577	7	Sololá	704	Santa Lucía Utatlán 	7	Santa Rita 	4	Abril	2023-04-23T00:00:00	2024-11-08T08:00:00	2	Temperatura media	19.3
89578	7	Sololá	704	Santa Lucía Utatlán 	7	Santa Rita 	4	Abril	2023-04-23T00:00:00	2024-11-08T08:00:00	4	Temperatura máxima	19.3
89579	7	Sololá	704	Santa Lucía Utatlán 	7	Santa Rita 	4	Abril	2023-04-23T00:00:00	2024-11-08T08:00:00	3	Temperatura mínima	16.7
89580	7	Sololá	704	Santa Lucía Utatlán 	7	Santa Rita 	4	Abril	2023-04-23T00:00:00	2024-11-08T08:00:00	5	Humedad	70
89581	7	Sololá	704	Santa Lucía Utatlán 	7	Santa Rita 	4	Abril	2023-04-23T00:00:00	2024-11-08T08:00:00	6	Velocidad del viento	1.6
89582	7	Sololá	704	Santa Lucía Utatlán 	7	Santa Rita 	4	Abril	2023-04-23T00:00:00	2024-11-08T08:00:00	7	Dirección del viento	1.61
89583	7	Sololá	704	Santa Lucía Utatlán 	7	Santa Rita 	4	Abril	2023-04-23T00:00:00	2024-11-08T08:00:00	1	Precipitación	0
89584	7	Sololá	704	Santa Lucía Utatlán 	7	Santa Rita 	4	Abril	2023-04-23T00:00:00	2024-11-08T08:00:00	8	Radiación solar	110
89585	7	Sololá	704	Santa Lucía Utatlán 	7	Santa Rita 	4	Abril	2023-04-23T00:00:00	2024-11-08T09:00:00	2	Temperatura media	21.7
89586	7	Sololá	704	Santa Lucía Utatlán 	7	Santa Rita 	4	Abril	2023-04-23T00:00:00	2024-11-08T09:00:00	4	Temperatura máxima	21.7
89587	7	Sololá	704	Santa Lucía Utatlán 	7	Santa Rita 	4	Abril	2023-04-23T00:00:00	2024-11-08T09:00:00	3	Temperatura mínima	19.3
89588	7	Sololá	704	Santa Lucía Utatlán 	7	Santa Rita 	4	Abril	2023-04-23T00:00:00	2024-11-08T09:00:00	5	Humedad	65
89589	7	Sololá	704	Santa Lucía Utatlán 	7	Santa Rita 	4	Abril	2023-04-23T00:00:00	2024-11-08T09:00:00	6	Velocidad del viento	1.6
89590	7	Sololá	704	Santa Lucía Utatlán 	7	Santa Rita 	4	Abril	2023-04-23T00:00:00	2024-11-08T09:00:00	7	Dirección del viento	1.61
89591	7	Sololá	704	Santa Lucía Utatlán 	7	Santa Rita 	4	Abril	2023-04-23T00:00:00	2024-11-08T09:00:00	1	Precipitación	0
89592	7	Sololá	704	Santa Lucía Utatlán 	7	Santa Rita 	4	Abril	2023-04-23T00:00:00	2024-11-08T09:00:00	8	Radiación solar	359
89593	7	Sololá	704	Santa Lucía Utatlán 	7	Santa Rita 	4	Abril	2023-04-23T00:00:00	2024-11-08T10:00:00	2	Temperatura media	23.8
89594	7	Sololá	704	Santa Lucía Utatlán 	7	Santa Rita 	4	Abril	2023-04-23T00:00:00	2024-11-08T10:00:00	4	Temperatura máxima	23.8
89595	7	Sololá	704	Santa Lucía Utatlán 	7	Santa Rita 	4	Abril	2023-04-23T00:00:00	2024-11-08T10:00:00	3	Temperatura mínima	21.7
89596	7	Sololá	704	Santa Lucía Utatlán 	7	Santa Rita 	4	Abril	2023-04-23T00:00:00	2024-11-08T10:00:00	5	Humedad	61
89597	7	Sololá	704	Santa Lucía Utatlán 	7	Santa Rita 	4	Abril	2023-04-23T00:00:00	2024-11-08T10:00:00	6	Velocidad del viento	4.8
89598	7	Sololá	704	Santa Lucía Utatlán 	7	Santa Rita 	4	Abril	2023-04-23T00:00:00	2024-11-08T10:00:00	7	Dirección del viento	4.83
89599	7	Sololá	704	Santa Lucía Utatlán 	7	Santa Rita 	4	Abril	2023-04-23T00:00:00	2024-11-08T10:00:00	1	Precipitación	0
89600	7	Sololá	704	Santa Lucía Utatlán 	7	Santa Rita 	4	Abril	2023-04-23T00:00:00	2024-11-08T10:00:00	8	Radiación solar	572
89601	7	Sololá	704	Santa Lucía Utatlán 	7	Santa Rita 	4	Abril	2023-04-23T00:00:00	2024-11-08T11:00:00	2	Temperatura media	24
89602	7	Sololá	704	Santa Lucía Utatlán 	7	Santa Rita 	4	Abril	2023-04-23T00:00:00	2024-11-08T11:00:00	4	Temperatura máxima	24.8
89603	7	Sololá	704	Santa Lucía Utatlán 	7	Santa Rita 	4	Abril	2023-04-23T00:00:00	2024-11-08T11:00:00	3	Temperatura mínima	23.8
89604	7	Sololá	704	Santa Lucía Utatlán 	7	Santa Rita 	4	Abril	2023-04-23T00:00:00	2024-11-08T11:00:00	5	Humedad	59
89605	7	Sololá	704	Santa Lucía Utatlán 	7	Santa Rita 	4	Abril	2023-04-23T00:00:00	2024-11-08T11:00:00	6	Velocidad del viento	6.4
89606	7	Sololá	704	Santa Lucía Utatlán 	7	Santa Rita 	4	Abril	2023-04-23T00:00:00	2024-11-08T11:00:00	7	Dirección del viento	6.44
89607	7	Sololá	704	Santa Lucía Utatlán 	7	Santa Rita 	4	Abril	2023-04-23T00:00:00	2024-11-08T11:00:00	1	Precipitación	0
89608	7	Sololá	704	Santa Lucía Utatlán 	7	Santa Rita 	4	Abril	2023-04-23T00:00:00	2024-11-08T11:00:00	8	Radiación solar	709
89609	7	Sololá	704	Santa Lucía Utatlán 	7	Santa Rita 	4	Abril	2023-04-23T00:00:00	2024-11-08T12:00:00	2	Temperatura media	24.6
89610	7	Sololá	704	Santa Lucía Utatlán 	7	Santa Rita 	4	Abril	2023-04-23T00:00:00	2024-11-08T12:00:00	4	Temperatura máxima	24.9
89611	7	Sololá	704	Santa Lucía Utatlán 	7	Santa Rita 	4	Abril	2023-04-23T00:00:00	2024-11-08T12:00:00	3	Temperatura mínima	23.9
89612	7	Sololá	704	Santa Lucía Utatlán 	7	Santa Rita 	4	Abril	2023-04-23T00:00:00	2024-11-08T12:00:00	5	Humedad	58
89613	7	Sololá	704	Santa Lucía Utatlán 	7	Santa Rita 	4	Abril	2023-04-23T00:00:00	2024-11-08T12:00:00	6	Velocidad del viento	6.4
89614	7	Sololá	704	Santa Lucía Utatlán 	7	Santa Rita 	4	Abril	2023-04-23T00:00:00	2024-11-08T12:00:00	7	Dirección del viento	6.44
89615	7	Sololá	704	Santa Lucía Utatlán 	7	Santa Rita 	4	Abril	2023-04-23T00:00:00	2024-11-08T12:00:00	1	Precipitación	0
89616	7	Sololá	704	Santa Lucía Utatlán 	7	Santa Rita 	4	Abril	2023-04-23T00:00:00	2024-11-08T12:00:00	8	Radiación solar	537
89617	7	Sololá	704	Santa Lucía Utatlán 	7	Santa Rita 	4	Abril	2023-04-23T00:00:00	2024-11-08T13:00:00	2	Temperatura media	25.2
89618	7	Sololá	704	Santa Lucía Utatlán 	7	Santa Rita 	4	Abril	2023-04-23T00:00:00	2024-11-08T13:00:00	4	Temperatura máxima	25.9
89619	7	Sololá	704	Santa Lucía Utatlán 	7	Santa Rita 	4	Abril	2023-04-23T00:00:00	2024-11-08T13:00:00	3	Temperatura mínima	24.4
89620	7	Sololá	704	Santa Lucía Utatlán 	7	Santa Rita 	4	Abril	2023-04-23T00:00:00	2024-11-08T13:00:00	5	Humedad	64
89621	7	Sololá	704	Santa Lucía Utatlán 	7	Santa Rita 	4	Abril	2023-04-23T00:00:00	2024-11-08T13:00:00	6	Velocidad del viento	6.4
89622	7	Sololá	704	Santa Lucía Utatlán 	7	Santa Rita 	4	Abril	2023-04-23T00:00:00	2024-11-08T13:00:00	7	Dirección del viento	6.44
89623	7	Sololá	704	Santa Lucía Utatlán 	7	Santa Rita 	4	Abril	2023-04-23T00:00:00	2024-11-08T13:00:00	1	Precipitación	0
89624	7	Sololá	704	Santa Lucía Utatlán 	7	Santa Rita 	4	Abril	2023-04-23T00:00:00	2024-11-08T13:00:00	8	Radiación solar	489
89625	7	Sololá	704	Santa Lucía Utatlán 	7	Santa Rita 	4	Abril	2023-04-23T00:00:00	2024-11-08T14:00:00	2	Temperatura media	24.7
89626	7	Sololá	704	Santa Lucía Utatlán 	7	Santa Rita 	4	Abril	2023-04-23T00:00:00	2024-11-08T14:00:00	4	Temperatura máxima	25.4
89627	7	Sololá	704	Santa Lucía Utatlán 	7	Santa Rita 	4	Abril	2023-04-23T00:00:00	2024-11-08T14:00:00	3	Temperatura mínima	24.1
89628	7	Sololá	704	Santa Lucía Utatlán 	7	Santa Rita 	4	Abril	2023-04-23T00:00:00	2024-11-08T14:00:00	5	Humedad	70
89629	7	Sololá	704	Santa Lucía Utatlán 	7	Santa Rita 	4	Abril	2023-04-23T00:00:00	2024-11-08T14:00:00	6	Velocidad del viento	8
89630	7	Sololá	704	Santa Lucía Utatlán 	7	Santa Rita 	4	Abril	2023-04-23T00:00:00	2024-11-08T14:00:00	7	Dirección del viento	8.05
89631	7	Sololá	704	Santa Lucía Utatlán 	7	Santa Rita 	4	Abril	2023-04-23T00:00:00	2024-11-08T14:00:00	1	Precipitación	0
89632	7	Sololá	704	Santa Lucía Utatlán 	7	Santa Rita 	4	Abril	2023-04-23T00:00:00	2024-11-08T14:00:00	8	Radiación solar	479
89633	7	Sololá	704	Santa Lucía Utatlán 	7	Santa Rita 	4	Abril	2023-04-23T00:00:00	2024-11-08T15:00:00	2	Temperatura media	22
89634	7	Sololá	704	Santa Lucía Utatlán 	7	Santa Rita 	4	Abril	2023-04-23T00:00:00	2024-11-08T15:00:00	4	Temperatura máxima	24.7
89635	7	Sololá	704	Santa Lucía Utatlán 	7	Santa Rita 	4	Abril	2023-04-23T00:00:00	2024-11-08T15:00:00	3	Temperatura mínima	22
89636	7	Sololá	704	Santa Lucía Utatlán 	7	Santa Rita 	4	Abril	2023-04-23T00:00:00	2024-11-08T15:00:00	5	Humedad	81
89637	7	Sololá	704	Santa Lucía Utatlán 	7	Santa Rita 	4	Abril	2023-04-23T00:00:00	2024-11-08T15:00:00	6	Velocidad del viento	6.4
89638	7	Sololá	704	Santa Lucía Utatlán 	7	Santa Rita 	4	Abril	2023-04-23T00:00:00	2024-11-08T15:00:00	7	Dirección del viento	6.44
89639	7	Sololá	704	Santa Lucía Utatlán 	7	Santa Rita 	4	Abril	2023-04-23T00:00:00	2024-11-08T15:00:00	1	Precipitación	0
89640	7	Sololá	704	Santa Lucía Utatlán 	7	Santa Rita 	4	Abril	2023-04-23T00:00:00	2024-11-08T15:00:00	8	Radiación solar	98
89641	7	Sololá	704	Santa Lucía Utatlán 	7	Santa Rita 	4	Abril	2023-04-23T00:00:00	2024-11-08T16:00:00	2	Temperatura media	21.9
89642	7	Sololá	704	Santa Lucía Utatlán 	7	Santa Rita 	4	Abril	2023-04-23T00:00:00	2024-11-08T16:00:00	4	Temperatura máxima	22
89643	7	Sololá	704	Santa Lucía Utatlán 	7	Santa Rita 	4	Abril	2023-04-23T00:00:00	2024-11-08T16:00:00	3	Temperatura mínima	21.6
89644	7	Sololá	704	Santa Lucía Utatlán 	7	Santa Rita 	4	Abril	2023-04-23T00:00:00	2024-11-08T16:00:00	5	Humedad	82
89645	7	Sololá	704	Santa Lucía Utatlán 	7	Santa Rita 	4	Abril	2023-04-23T00:00:00	2024-11-08T16:00:00	6	Velocidad del viento	4.8
89646	7	Sololá	704	Santa Lucía Utatlán 	7	Santa Rita 	4	Abril	2023-04-23T00:00:00	2024-11-08T16:00:00	7	Dirección del viento	4.83
89647	7	Sololá	704	Santa Lucía Utatlán 	7	Santa Rita 	4	Abril	2023-04-23T00:00:00	2024-11-08T16:00:00	1	Precipitación	0
89648	7	Sololá	704	Santa Lucía Utatlán 	7	Santa Rita 	4	Abril	2023-04-23T00:00:00	2024-11-08T16:00:00	8	Radiación solar	110
89649	7	Sololá	704	Santa Lucía Utatlán 	7	Santa Rita 	4	Abril	2023-04-23T00:00:00	2024-11-08T17:00:00	2	Temperatura media	21.5
89650	7	Sololá	704	Santa Lucía Utatlán 	7	Santa Rita 	4	Abril	2023-04-23T00:00:00	2024-11-08T17:00:00	4	Temperatura máxima	22.4
89651	7	Sololá	704	Santa Lucía Utatlán 	7	Santa Rita 	4	Abril	2023-04-23T00:00:00	2024-11-08T17:00:00	3	Temperatura mínima	21.5
89652	7	Sololá	704	Santa Lucía Utatlán 	7	Santa Rita 	4	Abril	2023-04-23T00:00:00	2024-11-08T17:00:00	5	Humedad	85
89653	7	Sololá	704	Santa Lucía Utatlán 	7	Santa Rita 	4	Abril	2023-04-23T00:00:00	2024-11-08T17:00:00	6	Velocidad del viento	3.2
89654	7	Sololá	704	Santa Lucía Utatlán 	7	Santa Rita 	4	Abril	2023-04-23T00:00:00	2024-11-08T17:00:00	7	Dirección del viento	3.22
89655	7	Sololá	704	Santa Lucía Utatlán 	7	Santa Rita 	4	Abril	2023-04-23T00:00:00	2024-11-08T17:00:00	1	Precipitación	0
89656	7	Sololá	704	Santa Lucía Utatlán 	7	Santa Rita 	4	Abril	2023-04-23T00:00:00	2024-11-08T17:00:00	8	Radiación solar	84
89657	7	Sololá	704	Santa Lucía Utatlán 	7	Santa Rita 	4	Abril	2023-04-23T00:00:00	2024-11-08T18:00:00	2	Temperatura media	20.8
89658	7	Sololá	704	Santa Lucía Utatlán 	7	Santa Rita 	4	Abril	2023-04-23T00:00:00	2024-11-08T18:00:00	4	Temperatura máxima	21.5
89659	7	Sololá	704	Santa Lucía Utatlán 	7	Santa Rita 	4	Abril	2023-04-23T00:00:00	2024-11-08T18:00:00	3	Temperatura mínima	20.8
89660	7	Sololá	704	Santa Lucía Utatlán 	7	Santa Rita 	4	Abril	2023-04-23T00:00:00	2024-11-08T18:00:00	5	Humedad	88
89661	7	Sololá	704	Santa Lucía Utatlán 	7	Santa Rita 	4	Abril	2023-04-23T00:00:00	2024-11-08T18:00:00	6	Velocidad del viento	3.2
89662	7	Sololá	704	Santa Lucía Utatlán 	7	Santa Rita 	4	Abril	2023-04-23T00:00:00	2024-11-08T18:00:00	7	Dirección del viento	3.22
89663	7	Sololá	704	Santa Lucía Utatlán 	7	Santa Rita 	4	Abril	2023-04-23T00:00:00	2024-11-08T18:00:00	1	Precipitación	0
89664	7	Sololá	704	Santa Lucía Utatlán 	7	Santa Rita 	4	Abril	2023-04-23T00:00:00	2024-11-08T18:00:00	8	Radiación solar	20
89665	7	Sololá	704	Santa Lucía Utatlán 	7	Santa Rita 	4	Abril	2023-04-23T00:00:00	2024-11-08T19:00:00	2	Temperatura media	20.6
89666	7	Sololá	704	Santa Lucía Utatlán 	7	Santa Rita 	4	Abril	2023-04-23T00:00:00	2024-11-08T19:00:00	4	Temperatura máxima	20.8
89667	7	Sololá	704	Santa Lucía Utatlán 	7	Santa Rita 	4	Abril	2023-04-23T00:00:00	2024-11-08T19:00:00	3	Temperatura mínima	20.6
89668	7	Sololá	704	Santa Lucía Utatlán 	7	Santa Rita 	4	Abril	2023-04-23T00:00:00	2024-11-08T19:00:00	5	Humedad	89
89669	7	Sololá	704	Santa Lucía Utatlán 	7	Santa Rita 	4	Abril	2023-04-23T00:00:00	2024-11-08T19:00:00	6	Velocidad del viento	1.6
89670	7	Sololá	704	Santa Lucía Utatlán 	7	Santa Rita 	4	Abril	2023-04-23T00:00:00	2024-11-08T19:00:00	7	Dirección del viento	1.61
89671	7	Sololá	704	Santa Lucía Utatlán 	7	Santa Rita 	4	Abril	2023-04-23T00:00:00	2024-11-08T19:00:00	1	Precipitación	0
89672	7	Sololá	704	Santa Lucía Utatlán 	7	Santa Rita 	4	Abril	2023-04-23T00:00:00	2024-11-08T19:00:00	8	Radiación solar	0
89673	7	Sololá	704	Santa Lucía Utatlán 	7	Santa Rita 	4	Abril	2023-04-23T00:00:00	2024-11-08T20:00:00	2	Temperatura media	19.8
89674	7	Sololá	704	Santa Lucía Utatlán 	7	Santa Rita 	4	Abril	2023-04-23T00:00:00	2024-11-08T20:00:00	4	Temperatura máxima	20.6
89675	7	Sololá	704	Santa Lucía Utatlán 	7	Santa Rita 	4	Abril	2023-04-23T00:00:00	2024-11-08T20:00:00	3	Temperatura mínima	19.8
89676	7	Sololá	704	Santa Lucía Utatlán 	7	Santa Rita 	4	Abril	2023-04-23T00:00:00	2024-11-08T20:00:00	5	Humedad	94
89677	7	Sololá	704	Santa Lucía Utatlán 	7	Santa Rita 	4	Abril	2023-04-23T00:00:00	2024-11-08T20:00:00	6	Velocidad del viento	1.6
89678	7	Sololá	704	Santa Lucía Utatlán 	7	Santa Rita 	4	Abril	2023-04-23T00:00:00	2024-11-08T20:00:00	7	Dirección del viento	1.61
89679	7	Sololá	704	Santa Lucía Utatlán 	7	Santa Rita 	4	Abril	2023-04-23T00:00:00	2024-11-08T20:00:00	1	Precipitación	0.6
89680	7	Sololá	704	Santa Lucía Utatlán 	7	Santa Rita 	4	Abril	2023-04-23T00:00:00	2024-11-08T20:00:00	8	Radiación solar	0
89681	7	Sololá	704	Santa Lucía Utatlán 	7	Santa Rita 	4	Abril	2023-04-23T00:00:00	2024-11-08T21:00:00	2	Temperatura media	19.6
89682	7	Sololá	704	Santa Lucía Utatlán 	7	Santa Rita 	4	Abril	2023-04-23T00:00:00	2024-11-08T21:00:00	4	Temperatura máxima	19.8
89683	7	Sololá	704	Santa Lucía Utatlán 	7	Santa Rita 	4	Abril	2023-04-23T00:00:00	2024-11-08T21:00:00	3	Temperatura mínima	19.6
89684	7	Sololá	704	Santa Lucía Utatlán 	7	Santa Rita 	4	Abril	2023-04-23T00:00:00	2024-11-08T21:00:00	5	Humedad	94
89685	7	Sololá	704	Santa Lucía Utatlán 	7	Santa Rita 	4	Abril	2023-04-23T00:00:00	2024-11-08T21:00:00	6	Velocidad del viento	0
89686	7	Sololá	704	Santa Lucía Utatlán 	7	Santa Rita 	4	Abril	2023-04-23T00:00:00	2024-11-08T21:00:00	7	Dirección del viento	0
89687	7	Sololá	704	Santa Lucía Utatlán 	7	Santa Rita 	4	Abril	2023-04-23T00:00:00	2024-11-08T21:00:00	1	Precipitación	0
89688	7	Sololá	704	Santa Lucía Utatlán 	7	Santa Rita 	4	Abril	2023-04-23T00:00:00	2024-11-08T21:00:00	8	Radiación solar	0
89689	7	Sololá	704	Santa Lucía Utatlán 	7	Santa Rita 	4	Abril	2023-04-23T00:00:00	2024-11-08T22:00:00	2	Temperatura media	18.3
89690	7	Sololá	704	Santa Lucía Utatlán 	7	Santa Rita 	4	Abril	2023-04-23T00:00:00	2024-11-08T22:00:00	4	Temperatura máxima	19.6
89691	7	Sololá	704	Santa Lucía Utatlán 	7	Santa Rita 	4	Abril	2023-04-23T00:00:00	2024-11-08T22:00:00	3	Temperatura mínima	18.3
89692	7	Sololá	704	Santa Lucía Utatlán 	7	Santa Rita 	4	Abril	2023-04-23T00:00:00	2024-11-08T22:00:00	5	Humedad	93
89693	7	Sololá	704	Santa Lucía Utatlán 	7	Santa Rita 	4	Abril	2023-04-23T00:00:00	2024-11-08T22:00:00	6	Velocidad del viento	1.6
89694	7	Sololá	704	Santa Lucía Utatlán 	7	Santa Rita 	4	Abril	2023-04-23T00:00:00	2024-11-08T22:00:00	7	Dirección del viento	1.61
89695	7	Sololá	704	Santa Lucía Utatlán 	7	Santa Rita 	4	Abril	2023-04-23T00:00:00	2024-11-08T22:00:00	1	Precipitación	0
89696	7	Sololá	704	Santa Lucía Utatlán 	7	Santa Rita 	4	Abril	2023-04-23T00:00:00	2024-11-08T22:00:00	8	Radiación solar	0
89697	7	Sololá	704	Santa Lucía Utatlán 	7	Santa Rita 	4	Abril	2023-04-23T00:00:00	2024-11-08T23:00:00	2	Temperatura media	18.9
89698	7	Sololá	704	Santa Lucía Utatlán 	7	Santa Rita 	4	Abril	2023-04-23T00:00:00	2024-11-08T23:00:00	4	Temperatura máxima	18.9
89699	7	Sololá	704	Santa Lucía Utatlán 	7	Santa Rita 	4	Abril	2023-04-23T00:00:00	2024-11-08T23:00:00	3	Temperatura mínima	18.3
89700	7	Sololá	704	Santa Lucía Utatlán 	7	Santa Rita 	4	Abril	2023-04-23T00:00:00	2024-11-08T23:00:00	5	Humedad	93
89701	7	Sololá	704	Santa Lucía Utatlán 	7	Santa Rita 	4	Abril	2023-04-23T00:00:00	2024-11-08T23:00:00	6	Velocidad del viento	1.6
89702	7	Sololá	704	Santa Lucía Utatlán 	7	Santa Rita 	4	Abril	2023-04-23T00:00:00	2024-11-08T23:00:00	7	Dirección del viento	1.61
89703	7	Sololá	704	Santa Lucía Utatlán 	7	Santa Rita 	4	Abril	2023-04-23T00:00:00	2024-11-08T23:00:00	1	Precipitación	0
89704	7	Sololá	704	Santa Lucía Utatlán 	7	Santa Rita 	4	Abril	2023-04-23T00:00:00	2024-11-08T23:00:00	8	Radiación solar	0
89705	7	Sololá	704	Santa Lucía Utatlán 	7	Santa Rita 	4	Abril	2023-04-24T00:00:00	2024-11-08T00:00:00	2	Temperatura media	18.2
89706	7	Sololá	704	Santa Lucía Utatlán 	7	Santa Rita 	4	Abril	2023-04-24T00:00:00	2024-11-08T00:00:00	4	Temperatura máxima	18.9
89707	7	Sololá	704	Santa Lucía Utatlán 	7	Santa Rita 	4	Abril	2023-04-24T00:00:00	2024-11-08T00:00:00	3	Temperatura mínima	18.2
89708	7	Sololá	704	Santa Lucía Utatlán 	7	Santa Rita 	4	Abril	2023-04-24T00:00:00	2024-11-08T00:00:00	5	Humedad	94
89709	7	Sololá	704	Santa Lucía Utatlán 	7	Santa Rita 	4	Abril	2023-04-24T00:00:00	2024-11-08T00:00:00	6	Velocidad del viento	1.6
89710	7	Sololá	704	Santa Lucía Utatlán 	7	Santa Rita 	4	Abril	2023-04-24T00:00:00	2024-11-08T00:00:00	7	Dirección del viento	1.61
89711	7	Sololá	704	Santa Lucía Utatlán 	7	Santa Rita 	4	Abril	2023-04-24T00:00:00	2024-11-08T00:00:00	1	Precipitación	0
89712	7	Sololá	704	Santa Lucía Utatlán 	7	Santa Rita 	4	Abril	2023-04-24T00:00:00	2024-11-08T00:00:00	8	Radiación solar	0
89713	7	Sololá	704	Santa Lucía Utatlán 	7	Santa Rita 	4	Abril	2023-04-24T00:00:00	2024-11-08T01:00:00	2	Temperatura media	17.8
89714	7	Sololá	704	Santa Lucía Utatlán 	7	Santa Rita 	4	Abril	2023-04-24T00:00:00	2024-11-08T01:00:00	4	Temperatura máxima	18.2
89715	7	Sololá	704	Santa Lucía Utatlán 	7	Santa Rita 	4	Abril	2023-04-24T00:00:00	2024-11-08T01:00:00	3	Temperatura mínima	17.6
89716	7	Sololá	704	Santa Lucía Utatlán 	7	Santa Rita 	4	Abril	2023-04-24T00:00:00	2024-11-08T01:00:00	5	Humedad	94
89717	7	Sololá	704	Santa Lucía Utatlán 	7	Santa Rita 	4	Abril	2023-04-24T00:00:00	2024-11-08T01:00:00	6	Velocidad del viento	1.6
89718	7	Sololá	704	Santa Lucía Utatlán 	7	Santa Rita 	4	Abril	2023-04-24T00:00:00	2024-11-08T01:00:00	7	Dirección del viento	1.61
89719	7	Sololá	704	Santa Lucía Utatlán 	7	Santa Rita 	4	Abril	2023-04-24T00:00:00	2024-11-08T01:00:00	1	Precipitación	0
89720	7	Sololá	704	Santa Lucía Utatlán 	7	Santa Rita 	4	Abril	2023-04-24T00:00:00	2024-11-08T01:00:00	8	Radiación solar	0
89721	7	Sololá	704	Santa Lucía Utatlán 	7	Santa Rita 	4	Abril	2023-04-24T00:00:00	2024-11-08T02:00:00	2	Temperatura media	18.4
89722	7	Sololá	704	Santa Lucía Utatlán 	7	Santa Rita 	4	Abril	2023-04-24T00:00:00	2024-11-08T02:00:00	4	Temperatura máxima	18.5
89723	7	Sololá	704	Santa Lucía Utatlán 	7	Santa Rita 	4	Abril	2023-04-24T00:00:00	2024-11-08T02:00:00	3	Temperatura mínima	17.8
89724	7	Sololá	704	Santa Lucía Utatlán 	7	Santa Rita 	4	Abril	2023-04-24T00:00:00	2024-11-08T02:00:00	5	Humedad	91
89725	7	Sololá	704	Santa Lucía Utatlán 	7	Santa Rita 	4	Abril	2023-04-24T00:00:00	2024-11-08T02:00:00	6	Velocidad del viento	1.6
89726	7	Sololá	704	Santa Lucía Utatlán 	7	Santa Rita 	4	Abril	2023-04-24T00:00:00	2024-11-08T02:00:00	7	Dirección del viento	1.61
89727	7	Sololá	704	Santa Lucía Utatlán 	7	Santa Rita 	4	Abril	2023-04-24T00:00:00	2024-11-08T02:00:00	1	Precipitación	0
89728	7	Sololá	704	Santa Lucía Utatlán 	7	Santa Rita 	4	Abril	2023-04-24T00:00:00	2024-11-08T02:00:00	8	Radiación solar	0
89729	7	Sololá	704	Santa Lucía Utatlán 	7	Santa Rita 	4	Abril	2023-04-24T00:00:00	2024-11-08T03:00:00	2	Temperatura media	17.7
89730	7	Sololá	704	Santa Lucía Utatlán 	7	Santa Rita 	4	Abril	2023-04-24T00:00:00	2024-11-08T03:00:00	4	Temperatura máxima	18.4
89731	7	Sololá	704	Santa Lucía Utatlán 	7	Santa Rita 	4	Abril	2023-04-24T00:00:00	2024-11-08T03:00:00	3	Temperatura mínima	17.6
89732	7	Sololá	704	Santa Lucía Utatlán 	7	Santa Rita 	4	Abril	2023-04-24T00:00:00	2024-11-08T03:00:00	5	Humedad	88
89733	7	Sololá	704	Santa Lucía Utatlán 	7	Santa Rita 	4	Abril	2023-04-24T00:00:00	2024-11-08T03:00:00	6	Velocidad del viento	3.2
89734	7	Sololá	704	Santa Lucía Utatlán 	7	Santa Rita 	4	Abril	2023-04-24T00:00:00	2024-11-08T03:00:00	7	Dirección del viento	3.22
89735	7	Sololá	704	Santa Lucía Utatlán 	7	Santa Rita 	4	Abril	2023-04-24T00:00:00	2024-11-08T03:00:00	1	Precipitación	0
89736	7	Sololá	704	Santa Lucía Utatlán 	7	Santa Rita 	4	Abril	2023-04-24T00:00:00	2024-11-08T03:00:00	8	Radiación solar	0
89737	7	Sololá	704	Santa Lucía Utatlán 	7	Santa Rita 	4	Abril	2023-04-24T00:00:00	2024-11-08T04:00:00	2	Temperatura media	17.4
89738	7	Sololá	704	Santa Lucía Utatlán 	7	Santa Rita 	4	Abril	2023-04-24T00:00:00	2024-11-08T04:00:00	4	Temperatura máxima	17.7
89739	7	Sololá	704	Santa Lucía Utatlán 	7	Santa Rita 	4	Abril	2023-04-24T00:00:00	2024-11-08T04:00:00	3	Temperatura mínima	17.3
89740	7	Sololá	704	Santa Lucía Utatlán 	7	Santa Rita 	4	Abril	2023-04-24T00:00:00	2024-11-08T04:00:00	5	Humedad	88
89741	7	Sololá	704	Santa Lucía Utatlán 	7	Santa Rita 	4	Abril	2023-04-24T00:00:00	2024-11-08T04:00:00	6	Velocidad del viento	3.2
89742	7	Sololá	704	Santa Lucía Utatlán 	7	Santa Rita 	4	Abril	2023-04-24T00:00:00	2024-11-08T04:00:00	7	Dirección del viento	3.22
89743	7	Sololá	704	Santa Lucía Utatlán 	7	Santa Rita 	4	Abril	2023-04-24T00:00:00	2024-11-08T04:00:00	1	Precipitación	0
89744	7	Sololá	704	Santa Lucía Utatlán 	7	Santa Rita 	4	Abril	2023-04-24T00:00:00	2024-11-08T04:00:00	8	Radiación solar	0
89745	7	Sololá	704	Santa Lucía Utatlán 	7	Santa Rita 	4	Abril	2023-04-24T00:00:00	2024-11-08T05:00:00	2	Temperatura media	17.2
89746	7	Sololá	704	Santa Lucía Utatlán 	7	Santa Rita 	4	Abril	2023-04-24T00:00:00	2024-11-08T05:00:00	4	Temperatura máxima	17.4
89747	7	Sololá	704	Santa Lucía Utatlán 	7	Santa Rita 	4	Abril	2023-04-24T00:00:00	2024-11-08T05:00:00	3	Temperatura mínima	17.2
89748	7	Sololá	704	Santa Lucía Utatlán 	7	Santa Rita 	4	Abril	2023-04-24T00:00:00	2024-11-08T05:00:00	5	Humedad	87
89749	7	Sololá	704	Santa Lucía Utatlán 	7	Santa Rita 	4	Abril	2023-04-24T00:00:00	2024-11-08T05:00:00	6	Velocidad del viento	3.2
89750	7	Sololá	704	Santa Lucía Utatlán 	7	Santa Rita 	4	Abril	2023-04-24T00:00:00	2024-11-08T05:00:00	7	Dirección del viento	3.22
89751	7	Sololá	704	Santa Lucía Utatlán 	7	Santa Rita 	4	Abril	2023-04-24T00:00:00	2024-11-08T05:00:00	1	Precipitación	0
89752	7	Sololá	704	Santa Lucía Utatlán 	7	Santa Rita 	4	Abril	2023-04-24T00:00:00	2024-11-08T05:00:00	8	Radiación solar	0
89753	7	Sololá	704	Santa Lucía Utatlán 	7	Santa Rita 	4	Abril	2023-04-24T00:00:00	2024-11-08T06:00:00	2	Temperatura media	16.3
89754	7	Sololá	704	Santa Lucía Utatlán 	7	Santa Rita 	4	Abril	2023-04-24T00:00:00	2024-11-08T06:00:00	4	Temperatura máxima	17.3
89755	7	Sololá	704	Santa Lucía Utatlán 	7	Santa Rita 	4	Abril	2023-04-24T00:00:00	2024-11-08T06:00:00	3	Temperatura mínima	16.3
89756	7	Sololá	704	Santa Lucía Utatlán 	7	Santa Rita 	4	Abril	2023-04-24T00:00:00	2024-11-08T06:00:00	5	Humedad	89
89757	7	Sololá	704	Santa Lucía Utatlán 	7	Santa Rita 	4	Abril	2023-04-24T00:00:00	2024-11-08T06:00:00	6	Velocidad del viento	1.6
89758	7	Sololá	704	Santa Lucía Utatlán 	7	Santa Rita 	4	Abril	2023-04-24T00:00:00	2024-11-08T06:00:00	7	Dirección del viento	1.61
89759	7	Sololá	704	Santa Lucía Utatlán 	7	Santa Rita 	4	Abril	2023-04-24T00:00:00	2024-11-08T06:00:00	1	Precipitación	0
89760	7	Sololá	704	Santa Lucía Utatlán 	7	Santa Rita 	4	Abril	2023-04-24T00:00:00	2024-11-08T06:00:00	8	Radiación solar	0
89761	7	Sololá	704	Santa Lucía Utatlán 	7	Santa Rita 	4	Abril	2023-04-24T00:00:00	2024-11-08T07:00:00	2	Temperatura media	15.9
89762	7	Sololá	704	Santa Lucía Utatlán 	7	Santa Rita 	4	Abril	2023-04-24T00:00:00	2024-11-08T07:00:00	4	Temperatura máxima	16.3
89763	7	Sololá	704	Santa Lucía Utatlán 	7	Santa Rita 	4	Abril	2023-04-24T00:00:00	2024-11-08T07:00:00	3	Temperatura mínima	15.9
89764	7	Sololá	704	Santa Lucía Utatlán 	7	Santa Rita 	4	Abril	2023-04-24T00:00:00	2024-11-08T07:00:00	5	Humedad	91
89765	7	Sololá	704	Santa Lucía Utatlán 	7	Santa Rita 	4	Abril	2023-04-24T00:00:00	2024-11-08T07:00:00	6	Velocidad del viento	1.6
89766	7	Sololá	704	Santa Lucía Utatlán 	7	Santa Rita 	4	Abril	2023-04-24T00:00:00	2024-11-08T07:00:00	7	Dirección del viento	1.61
89767	7	Sololá	704	Santa Lucía Utatlán 	7	Santa Rita 	4	Abril	2023-04-24T00:00:00	2024-11-08T07:00:00	1	Precipitación	0
89768	7	Sololá	704	Santa Lucía Utatlán 	7	Santa Rita 	4	Abril	2023-04-24T00:00:00	2024-11-08T07:00:00	8	Radiación solar	3
89769	7	Sololá	704	Santa Lucía Utatlán 	7	Santa Rita 	4	Abril	2023-04-24T00:00:00	2024-11-08T08:00:00	2	Temperatura media	18.6
89770	7	Sololá	704	Santa Lucía Utatlán 	7	Santa Rita 	4	Abril	2023-04-24T00:00:00	2024-11-08T08:00:00	4	Temperatura máxima	18.6
89771	7	Sololá	704	Santa Lucía Utatlán 	7	Santa Rita 	4	Abril	2023-04-24T00:00:00	2024-11-08T08:00:00	3	Temperatura mínima	15.8
89772	7	Sololá	704	Santa Lucía Utatlán 	7	Santa Rita 	4	Abril	2023-04-24T00:00:00	2024-11-08T08:00:00	5	Humedad	86
89773	7	Sololá	704	Santa Lucía Utatlán 	7	Santa Rita 	4	Abril	2023-04-24T00:00:00	2024-11-08T08:00:00	6	Velocidad del viento	0
89774	7	Sololá	704	Santa Lucía Utatlán 	7	Santa Rita 	4	Abril	2023-04-24T00:00:00	2024-11-08T08:00:00	7	Dirección del viento	0
89775	7	Sololá	704	Santa Lucía Utatlán 	7	Santa Rita 	4	Abril	2023-04-24T00:00:00	2024-11-08T08:00:00	1	Precipitación	0
89776	7	Sololá	704	Santa Lucía Utatlán 	7	Santa Rita 	4	Abril	2023-04-24T00:00:00	2024-11-08T08:00:00	8	Radiación solar	95
89777	7	Sololá	704	Santa Lucía Utatlán 	7	Santa Rita 	4	Abril	2023-04-24T00:00:00	2024-11-08T09:00:00	2	Temperatura media	21.2
89778	7	Sololá	704	Santa Lucía Utatlán 	7	Santa Rita 	4	Abril	2023-04-24T00:00:00	2024-11-08T09:00:00	4	Temperatura máxima	21.3
89779	7	Sololá	704	Santa Lucía Utatlán 	7	Santa Rita 	4	Abril	2023-04-24T00:00:00	2024-11-08T09:00:00	3	Temperatura mínima	18.6
89780	7	Sololá	704	Santa Lucía Utatlán 	7	Santa Rita 	4	Abril	2023-04-24T00:00:00	2024-11-08T09:00:00	5	Humedad	78
89781	7	Sololá	704	Santa Lucía Utatlán 	7	Santa Rita 	4	Abril	2023-04-24T00:00:00	2024-11-08T09:00:00	6	Velocidad del viento	1.6
89782	7	Sololá	704	Santa Lucía Utatlán 	7	Santa Rita 	4	Abril	2023-04-24T00:00:00	2024-11-08T09:00:00	7	Dirección del viento	1.61
89783	7	Sololá	704	Santa Lucía Utatlán 	7	Santa Rita 	4	Abril	2023-04-24T00:00:00	2024-11-08T09:00:00	1	Precipitación	0
89784	7	Sololá	704	Santa Lucía Utatlán 	7	Santa Rita 	4	Abril	2023-04-24T00:00:00	2024-11-08T09:00:00	8	Radiación solar	350
89785	7	Sololá	704	Santa Lucía Utatlán 	7	Santa Rita 	4	Abril	2023-04-24T00:00:00	2024-11-08T10:00:00	2	Temperatura media	21.3
89786	7	Sololá	704	Santa Lucía Utatlán 	7	Santa Rita 	4	Abril	2023-04-24T00:00:00	2024-11-08T10:00:00	4	Temperatura máxima	22.3
89787	7	Sololá	704	Santa Lucía Utatlán 	7	Santa Rita 	4	Abril	2023-04-24T00:00:00	2024-11-08T10:00:00	3	Temperatura mínima	21.3
89788	7	Sololá	704	Santa Lucía Utatlán 	7	Santa Rita 	4	Abril	2023-04-24T00:00:00	2024-11-08T10:00:00	5	Humedad	83
89789	7	Sololá	704	Santa Lucía Utatlán 	7	Santa Rita 	4	Abril	2023-04-24T00:00:00	2024-11-08T10:00:00	6	Velocidad del viento	6.4
89790	7	Sololá	704	Santa Lucía Utatlán 	7	Santa Rita 	4	Abril	2023-04-24T00:00:00	2024-11-08T10:00:00	7	Dirección del viento	6.44
89791	7	Sololá	704	Santa Lucía Utatlán 	7	Santa Rita 	4	Abril	2023-04-24T00:00:00	2024-11-08T10:00:00	1	Precipitación	0
89792	7	Sololá	704	Santa Lucía Utatlán 	7	Santa Rita 	4	Abril	2023-04-24T00:00:00	2024-11-08T10:00:00	8	Radiación solar	418
89793	7	Sololá	704	Santa Lucía Utatlán 	7	Santa Rita 	4	Abril	2023-04-24T00:00:00	2024-11-08T11:00:00	2	Temperatura media	21.4
89794	7	Sololá	704	Santa Lucía Utatlán 	7	Santa Rita 	4	Abril	2023-04-24T00:00:00	2024-11-08T11:00:00	4	Temperatura máxima	21.8
89795	7	Sololá	704	Santa Lucía Utatlán 	7	Santa Rita 	4	Abril	2023-04-24T00:00:00	2024-11-08T11:00:00	3	Temperatura mínima	21.3
89796	7	Sololá	704	Santa Lucía Utatlán 	7	Santa Rita 	4	Abril	2023-04-24T00:00:00	2024-11-08T11:00:00	5	Humedad	82
89797	7	Sololá	704	Santa Lucía Utatlán 	7	Santa Rita 	4	Abril	2023-04-24T00:00:00	2024-11-08T11:00:00	6	Velocidad del viento	6.4
89798	7	Sololá	704	Santa Lucía Utatlán 	7	Santa Rita 	4	Abril	2023-04-24T00:00:00	2024-11-08T11:00:00	7	Dirección del viento	6.44
89799	7	Sololá	704	Santa Lucía Utatlán 	7	Santa Rita 	4	Abril	2023-04-24T00:00:00	2024-11-08T11:00:00	1	Precipitación	0
89800	7	Sololá	704	Santa Lucía Utatlán 	7	Santa Rita 	4	Abril	2023-04-24T00:00:00	2024-11-08T11:00:00	8	Radiación solar	313
89801	7	Sololá	704	Santa Lucía Utatlán 	7	Santa Rita 	4	Abril	2023-04-24T00:00:00	2024-11-08T12:00:00	2	Temperatura media	21.8
89802	7	Sololá	704	Santa Lucía Utatlán 	7	Santa Rita 	4	Abril	2023-04-24T00:00:00	2024-11-08T12:00:00	4	Temperatura máxima	21.8
89803	7	Sololá	704	Santa Lucía Utatlán 	7	Santa Rita 	4	Abril	2023-04-24T00:00:00	2024-11-08T12:00:00	3	Temperatura mínima	20.8
89804	7	Sololá	704	Santa Lucía Utatlán 	7	Santa Rita 	4	Abril	2023-04-24T00:00:00	2024-11-08T12:00:00	5	Humedad	82
89805	7	Sololá	704	Santa Lucía Utatlán 	7	Santa Rita 	4	Abril	2023-04-24T00:00:00	2024-11-08T12:00:00	6	Velocidad del viento	4.8
89806	7	Sololá	704	Santa Lucía Utatlán 	7	Santa Rita 	4	Abril	2023-04-24T00:00:00	2024-11-08T12:00:00	7	Dirección del viento	4.83
89807	7	Sololá	704	Santa Lucía Utatlán 	7	Santa Rita 	4	Abril	2023-04-24T00:00:00	2024-11-08T12:00:00	1	Precipitación	0
89808	7	Sololá	704	Santa Lucía Utatlán 	7	Santa Rita 	4	Abril	2023-04-24T00:00:00	2024-11-08T12:00:00	8	Radiación solar	220
89809	7	Sololá	704	Santa Lucía Utatlán 	7	Santa Rita 	4	Abril	2023-04-24T00:00:00	2024-11-08T13:00:00	2	Temperatura media	22.8
89810	7	Sololá	704	Santa Lucía Utatlán 	7	Santa Rita 	4	Abril	2023-04-24T00:00:00	2024-11-08T13:00:00	4	Temperatura máxima	22.9
89811	7	Sololá	704	Santa Lucía Utatlán 	7	Santa Rita 	4	Abril	2023-04-24T00:00:00	2024-11-08T13:00:00	3	Temperatura mínima	21.7
89812	7	Sololá	704	Santa Lucía Utatlán 	7	Santa Rita 	4	Abril	2023-04-24T00:00:00	2024-11-08T13:00:00	5	Humedad	78
89813	7	Sololá	704	Santa Lucía Utatlán 	7	Santa Rita 	4	Abril	2023-04-24T00:00:00	2024-11-08T13:00:00	6	Velocidad del viento	4.8
89814	7	Sololá	704	Santa Lucía Utatlán 	7	Santa Rita 	4	Abril	2023-04-24T00:00:00	2024-11-08T13:00:00	7	Dirección del viento	4.83
89815	7	Sololá	704	Santa Lucía Utatlán 	7	Santa Rita 	4	Abril	2023-04-24T00:00:00	2024-11-08T13:00:00	1	Precipitación	0
89816	7	Sololá	704	Santa Lucía Utatlán 	7	Santa Rita 	4	Abril	2023-04-24T00:00:00	2024-11-08T13:00:00	8	Radiación solar	317
89817	7	Sololá	704	Santa Lucía Utatlán 	7	Santa Rita 	4	Abril	2023-04-24T00:00:00	2024-11-08T14:00:00	2	Temperatura media	21.8
89818	7	Sololá	704	Santa Lucía Utatlán 	7	Santa Rita 	4	Abril	2023-04-24T00:00:00	2024-11-08T14:00:00	4	Temperatura máxima	22.9
89819	7	Sololá	704	Santa Lucía Utatlán 	7	Santa Rita 	4	Abril	2023-04-24T00:00:00	2024-11-08T14:00:00	3	Temperatura mínima	21.8
89820	7	Sololá	704	Santa Lucía Utatlán 	7	Santa Rita 	4	Abril	2023-04-24T00:00:00	2024-11-08T14:00:00	5	Humedad	82
89821	7	Sololá	704	Santa Lucía Utatlán 	7	Santa Rita 	4	Abril	2023-04-24T00:00:00	2024-11-08T14:00:00	6	Velocidad del viento	6.4
89822	7	Sololá	704	Santa Lucía Utatlán 	7	Santa Rita 	4	Abril	2023-04-24T00:00:00	2024-11-08T14:00:00	7	Dirección del viento	6.44
89823	7	Sololá	704	Santa Lucía Utatlán 	7	Santa Rita 	4	Abril	2023-04-24T00:00:00	2024-11-08T14:00:00	1	Precipitación	0
89824	7	Sololá	704	Santa Lucía Utatlán 	7	Santa Rita 	4	Abril	2023-04-24T00:00:00	2024-11-08T14:00:00	8	Radiación solar	207
89825	7	Sololá	704	Santa Lucía Utatlán 	7	Santa Rita 	4	Abril	2023-04-24T00:00:00	2024-11-08T15:00:00	2	Temperatura media	21.3
89826	7	Sololá	704	Santa Lucía Utatlán 	7	Santa Rita 	4	Abril	2023-04-24T00:00:00	2024-11-08T15:00:00	4	Temperatura máxima	22.3
89827	7	Sololá	704	Santa Lucía Utatlán 	7	Santa Rita 	4	Abril	2023-04-24T00:00:00	2024-11-08T15:00:00	3	Temperatura mínima	21.3
89828	7	Sololá	704	Santa Lucía Utatlán 	7	Santa Rita 	4	Abril	2023-04-24T00:00:00	2024-11-08T15:00:00	5	Humedad	84
89829	7	Sololá	704	Santa Lucía Utatlán 	7	Santa Rita 	4	Abril	2023-04-24T00:00:00	2024-11-08T15:00:00	6	Velocidad del viento	3.2
89830	7	Sololá	704	Santa Lucía Utatlán 	7	Santa Rita 	4	Abril	2023-04-24T00:00:00	2024-11-08T15:00:00	7	Dirección del viento	3.22
89831	7	Sololá	704	Santa Lucía Utatlán 	7	Santa Rita 	4	Abril	2023-04-24T00:00:00	2024-11-08T15:00:00	1	Precipitación	0
89832	7	Sololá	704	Santa Lucía Utatlán 	7	Santa Rita 	4	Abril	2023-04-24T00:00:00	2024-11-08T15:00:00	8	Radiación solar	128
89833	7	Sololá	704	Santa Lucía Utatlán 	7	Santa Rita 	4	Abril	2023-04-24T00:00:00	2024-11-08T16:00:00	2	Temperatura media	20.8
89834	7	Sololá	704	Santa Lucía Utatlán 	7	Santa Rita 	4	Abril	2023-04-24T00:00:00	2024-11-08T16:00:00	4	Temperatura máxima	21.3
89835	7	Sololá	704	Santa Lucía Utatlán 	7	Santa Rita 	4	Abril	2023-04-24T00:00:00	2024-11-08T16:00:00	3	Temperatura mínima	20.8
89836	7	Sololá	704	Santa Lucía Utatlán 	7	Santa Rita 	4	Abril	2023-04-24T00:00:00	2024-11-08T16:00:00	5	Humedad	86
89837	7	Sololá	704	Santa Lucía Utatlán 	7	Santa Rita 	4	Abril	2023-04-24T00:00:00	2024-11-08T16:00:00	6	Velocidad del viento	6.4
89838	7	Sololá	704	Santa Lucía Utatlán 	7	Santa Rita 	4	Abril	2023-04-24T00:00:00	2024-11-08T16:00:00	7	Dirección del viento	6.44
89839	7	Sololá	704	Santa Lucía Utatlán 	7	Santa Rita 	4	Abril	2023-04-24T00:00:00	2024-11-08T16:00:00	1	Precipitación	0
89840	7	Sololá	704	Santa Lucía Utatlán 	7	Santa Rita 	4	Abril	2023-04-24T00:00:00	2024-11-08T16:00:00	8	Radiación solar	128
89841	7	Sololá	704	Santa Lucía Utatlán 	7	Santa Rita 	4	Abril	2023-04-24T00:00:00	2024-11-08T17:00:00	2	Temperatura media	18.3
89842	7	Sololá	704	Santa Lucía Utatlán 	7	Santa Rita 	4	Abril	2023-04-24T00:00:00	2024-11-08T17:00:00	4	Temperatura máxima	20.8
89843	7	Sololá	704	Santa Lucía Utatlán 	7	Santa Rita 	4	Abril	2023-04-24T00:00:00	2024-11-08T17:00:00	3	Temperatura mínima	18.3
89844	7	Sololá	704	Santa Lucía Utatlán 	7	Santa Rita 	4	Abril	2023-04-24T00:00:00	2024-11-08T17:00:00	5	Humedad	94
89845	7	Sololá	704	Santa Lucía Utatlán 	7	Santa Rita 	4	Abril	2023-04-24T00:00:00	2024-11-08T17:00:00	6	Velocidad del viento	4.8
89846	7	Sololá	704	Santa Lucía Utatlán 	7	Santa Rita 	4	Abril	2023-04-24T00:00:00	2024-11-08T17:00:00	7	Dirección del viento	4.83
89847	7	Sololá	704	Santa Lucía Utatlán 	7	Santa Rita 	4	Abril	2023-04-24T00:00:00	2024-11-08T17:00:00	1	Precipitación	4.4
89848	7	Sololá	704	Santa Lucía Utatlán 	7	Santa Rita 	4	Abril	2023-04-24T00:00:00	2024-11-08T17:00:00	8	Radiación solar	16
89849	7	Sololá	704	Santa Lucía Utatlán 	7	Santa Rita 	4	Abril	2023-04-24T00:00:00	2024-11-08T18:00:00	2	Temperatura media	17.3
89850	7	Sololá	704	Santa Lucía Utatlán 	7	Santa Rita 	4	Abril	2023-04-24T00:00:00	2024-11-08T18:00:00	4	Temperatura máxima	18.3
89851	7	Sololá	704	Santa Lucía Utatlán 	7	Santa Rita 	4	Abril	2023-04-24T00:00:00	2024-11-08T18:00:00	3	Temperatura mínima	17.2
89852	7	Sololá	704	Santa Lucía Utatlán 	7	Santa Rita 	4	Abril	2023-04-24T00:00:00	2024-11-08T18:00:00	5	Humedad	94
89853	7	Sololá	704	Santa Lucía Utatlán 	7	Santa Rita 	4	Abril	2023-04-24T00:00:00	2024-11-08T18:00:00	6	Velocidad del viento	1.6
89854	7	Sololá	704	Santa Lucía Utatlán 	7	Santa Rita 	4	Abril	2023-04-24T00:00:00	2024-11-08T18:00:00	7	Dirección del viento	1.61
89855	7	Sololá	704	Santa Lucía Utatlán 	7	Santa Rita 	4	Abril	2023-04-24T00:00:00	2024-11-08T18:00:00	1	Precipitación	17
89856	7	Sololá	704	Santa Lucía Utatlán 	7	Santa Rita 	4	Abril	2023-04-24T00:00:00	2024-11-08T18:00:00	8	Radiación solar	21
89857	7	Sololá	704	Santa Lucía Utatlán 	7	Santa Rita 	4	Abril	2023-04-24T00:00:00	2024-11-08T19:00:00	2	Temperatura media	17.8
89858	7	Sololá	704	Santa Lucía Utatlán 	7	Santa Rita 	4	Abril	2023-04-24T00:00:00	2024-11-08T19:00:00	4	Temperatura máxima	17.9
89859	7	Sololá	704	Santa Lucía Utatlán 	7	Santa Rita 	4	Abril	2023-04-24T00:00:00	2024-11-08T19:00:00	3	Temperatura mínima	17.3
89860	7	Sololá	704	Santa Lucía Utatlán 	7	Santa Rita 	4	Abril	2023-04-24T00:00:00	2024-11-08T19:00:00	5	Humedad	96
89861	7	Sololá	704	Santa Lucía Utatlán 	7	Santa Rita 	4	Abril	2023-04-24T00:00:00	2024-11-08T19:00:00	6	Velocidad del viento	0
89862	7	Sololá	704	Santa Lucía Utatlán 	7	Santa Rita 	4	Abril	2023-04-24T00:00:00	2024-11-08T19:00:00	7	Dirección del viento	0
89863	7	Sololá	704	Santa Lucía Utatlán 	7	Santa Rita 	4	Abril	2023-04-24T00:00:00	2024-11-08T19:00:00	1	Precipitación	3.8
89864	7	Sololá	704	Santa Lucía Utatlán 	7	Santa Rita 	4	Abril	2023-04-24T00:00:00	2024-11-08T19:00:00	8	Radiación solar	0
89865	7	Sololá	704	Santa Lucía Utatlán 	7	Santa Rita 	4	Abril	2023-04-24T00:00:00	2024-11-08T20:00:00	2	Temperatura media	17.9
89866	7	Sololá	704	Santa Lucía Utatlán 	7	Santa Rita 	4	Abril	2023-04-24T00:00:00	2024-11-08T20:00:00	4	Temperatura máxima	17.9
89867	7	Sololá	704	Santa Lucía Utatlán 	7	Santa Rita 	4	Abril	2023-04-24T00:00:00	2024-11-08T20:00:00	3	Temperatura mínima	17.7
89868	7	Sololá	704	Santa Lucía Utatlán 	7	Santa Rita 	4	Abril	2023-04-24T00:00:00	2024-11-08T20:00:00	5	Humedad	96
89869	7	Sololá	704	Santa Lucía Utatlán 	7	Santa Rita 	4	Abril	2023-04-24T00:00:00	2024-11-08T20:00:00	6	Velocidad del viento	1.6
89870	7	Sololá	704	Santa Lucía Utatlán 	7	Santa Rita 	4	Abril	2023-04-24T00:00:00	2024-11-08T20:00:00	7	Dirección del viento	1.61
89871	7	Sololá	704	Santa Lucía Utatlán 	7	Santa Rita 	4	Abril	2023-04-24T00:00:00	2024-11-08T20:00:00	1	Precipitación	0
89872	7	Sololá	704	Santa Lucía Utatlán 	7	Santa Rita 	4	Abril	2023-04-24T00:00:00	2024-11-08T20:00:00	8	Radiación solar	0
89873	7	Sololá	704	Santa Lucía Utatlán 	7	Santa Rita 	4	Abril	2023-04-24T00:00:00	2024-11-08T21:00:00	2	Temperatura media	17.7
89874	7	Sololá	704	Santa Lucía Utatlán 	7	Santa Rita 	4	Abril	2023-04-24T00:00:00	2024-11-08T21:00:00	4	Temperatura máxima	17.9
89875	7	Sololá	704	Santa Lucía Utatlán 	7	Santa Rita 	4	Abril	2023-04-24T00:00:00	2024-11-08T21:00:00	3	Temperatura mínima	17.7
89876	7	Sololá	704	Santa Lucía Utatlán 	7	Santa Rita 	4	Abril	2023-04-24T00:00:00	2024-11-08T21:00:00	5	Humedad	95
89877	7	Sololá	704	Santa Lucía Utatlán 	7	Santa Rita 	4	Abril	2023-04-24T00:00:00	2024-11-08T21:00:00	6	Velocidad del viento	1.6
89878	7	Sololá	704	Santa Lucía Utatlán 	7	Santa Rita 	4	Abril	2023-04-24T00:00:00	2024-11-08T21:00:00	7	Dirección del viento	1.61
89879	7	Sololá	704	Santa Lucía Utatlán 	7	Santa Rita 	4	Abril	2023-04-24T00:00:00	2024-11-08T21:00:00	1	Precipitación	0.2
89880	7	Sololá	704	Santa Lucía Utatlán 	7	Santa Rita 	4	Abril	2023-04-24T00:00:00	2024-11-08T21:00:00	8	Radiación solar	0
89881	7	Sololá	704	Santa Lucía Utatlán 	7	Santa Rita 	4	Abril	2023-04-24T00:00:00	2024-11-08T22:00:00	2	Temperatura media	17.7
89882	7	Sololá	704	Santa Lucía Utatlán 	7	Santa Rita 	4	Abril	2023-04-24T00:00:00	2024-11-08T22:00:00	4	Temperatura máxima	17.8
89883	7	Sololá	704	Santa Lucía Utatlán 	7	Santa Rita 	4	Abril	2023-04-24T00:00:00	2024-11-08T22:00:00	3	Temperatura mínima	17.7
89884	7	Sololá	704	Santa Lucía Utatlán 	7	Santa Rita 	4	Abril	2023-04-24T00:00:00	2024-11-08T22:00:00	5	Humedad	95
89885	7	Sololá	704	Santa Lucía Utatlán 	7	Santa Rita 	4	Abril	2023-04-24T00:00:00	2024-11-08T22:00:00	6	Velocidad del viento	0
89886	7	Sololá	704	Santa Lucía Utatlán 	7	Santa Rita 	4	Abril	2023-04-24T00:00:00	2024-11-08T22:00:00	7	Dirección del viento	0
89887	7	Sololá	704	Santa Lucía Utatlán 	7	Santa Rita 	4	Abril	2023-04-24T00:00:00	2024-11-08T22:00:00	1	Precipitación	0
89888	7	Sololá	704	Santa Lucía Utatlán 	7	Santa Rita 	4	Abril	2023-04-24T00:00:00	2024-11-08T22:00:00	8	Radiación solar	0
89889	7	Sololá	704	Santa Lucía Utatlán 	7	Santa Rita 	4	Abril	2023-04-24T00:00:00	2024-11-08T23:00:00	2	Temperatura media	17.8
89890	7	Sololá	704	Santa Lucía Utatlán 	7	Santa Rita 	4	Abril	2023-04-24T00:00:00	2024-11-08T23:00:00	4	Temperatura máxima	17.8
89891	7	Sololá	704	Santa Lucía Utatlán 	7	Santa Rita 	4	Abril	2023-04-24T00:00:00	2024-11-08T23:00:00	3	Temperatura mínima	17.6
89892	7	Sololá	704	Santa Lucía Utatlán 	7	Santa Rita 	4	Abril	2023-04-24T00:00:00	2024-11-08T23:00:00	5	Humedad	93
89893	7	Sololá	704	Santa Lucía Utatlán 	7	Santa Rita 	4	Abril	2023-04-24T00:00:00	2024-11-08T23:00:00	6	Velocidad del viento	3.2
89894	7	Sololá	704	Santa Lucía Utatlán 	7	Santa Rita 	4	Abril	2023-04-24T00:00:00	2024-11-08T23:00:00	7	Dirección del viento	3.22
89895	7	Sololá	704	Santa Lucía Utatlán 	7	Santa Rita 	4	Abril	2023-04-24T00:00:00	2024-11-08T23:00:00	1	Precipitación	0
89896	7	Sololá	704	Santa Lucía Utatlán 	7	Santa Rita 	4	Abril	2023-04-24T00:00:00	2024-11-08T23:00:00	8	Radiación solar	0
89897	7	Sololá	704	Santa Lucía Utatlán 	7	Santa Rita 	4	Abril	2023-04-25T00:00:00	2024-11-08T00:00:00	2	Temperatura media	17.6
89898	7	Sololá	704	Santa Lucía Utatlán 	7	Santa Rita 	4	Abril	2023-04-25T00:00:00	2024-11-08T00:00:00	4	Temperatura máxima	17.9
89899	7	Sololá	704	Santa Lucía Utatlán 	7	Santa Rita 	4	Abril	2023-04-25T00:00:00	2024-11-08T00:00:00	3	Temperatura mínima	17.6
89900	7	Sololá	704	Santa Lucía Utatlán 	7	Santa Rita 	4	Abril	2023-04-25T00:00:00	2024-11-08T00:00:00	5	Humedad	91
89901	7	Sololá	704	Santa Lucía Utatlán 	7	Santa Rita 	4	Abril	2023-04-25T00:00:00	2024-11-08T00:00:00	6	Velocidad del viento	1.6
89902	7	Sololá	704	Santa Lucía Utatlán 	7	Santa Rita 	4	Abril	2023-04-25T00:00:00	2024-11-08T00:00:00	7	Dirección del viento	1.61
89903	7	Sololá	704	Santa Lucía Utatlán 	7	Santa Rita 	4	Abril	2023-04-25T00:00:00	2024-11-08T00:00:00	1	Precipitación	0
89904	7	Sololá	704	Santa Lucía Utatlán 	7	Santa Rita 	4	Abril	2023-04-25T00:00:00	2024-11-08T00:00:00	8	Radiación solar	0
89905	7	Sololá	704	Santa Lucía Utatlán 	7	Santa Rita 	4	Abril	2023-04-25T00:00:00	2024-11-08T01:00:00	2	Temperatura media	17
89906	7	Sololá	704	Santa Lucía Utatlán 	7	Santa Rita 	4	Abril	2023-04-25T00:00:00	2024-11-08T01:00:00	4	Temperatura máxima	17.6
89907	7	Sololá	704	Santa Lucía Utatlán 	7	Santa Rita 	4	Abril	2023-04-25T00:00:00	2024-11-08T01:00:00	3	Temperatura mínima	16.9
89908	7	Sololá	704	Santa Lucía Utatlán 	7	Santa Rita 	4	Abril	2023-04-25T00:00:00	2024-11-08T01:00:00	5	Humedad	90
89909	7	Sololá	704	Santa Lucía Utatlán 	7	Santa Rita 	4	Abril	2023-04-25T00:00:00	2024-11-08T01:00:00	6	Velocidad del viento	3.2
89910	7	Sololá	704	Santa Lucía Utatlán 	7	Santa Rita 	4	Abril	2023-04-25T00:00:00	2024-11-08T01:00:00	7	Dirección del viento	3.22
89911	7	Sololá	704	Santa Lucía Utatlán 	7	Santa Rita 	4	Abril	2023-04-25T00:00:00	2024-11-08T01:00:00	1	Precipitación	0
89912	7	Sololá	704	Santa Lucía Utatlán 	7	Santa Rita 	4	Abril	2023-04-25T00:00:00	2024-11-08T01:00:00	8	Radiación solar	0
89913	7	Sololá	704	Santa Lucía Utatlán 	7	Santa Rita 	4	Abril	2023-04-25T00:00:00	2024-11-08T02:00:00	2	Temperatura media	16.7
89914	7	Sololá	704	Santa Lucía Utatlán 	7	Santa Rita 	4	Abril	2023-04-25T00:00:00	2024-11-08T02:00:00	4	Temperatura máxima	17
89915	7	Sololá	704	Santa Lucía Utatlán 	7	Santa Rita 	4	Abril	2023-04-25T00:00:00	2024-11-08T02:00:00	3	Temperatura mínima	16.5
89916	7	Sololá	704	Santa Lucía Utatlán 	7	Santa Rita 	4	Abril	2023-04-25T00:00:00	2024-11-08T02:00:00	5	Humedad	90
89917	7	Sololá	704	Santa Lucía Utatlán 	7	Santa Rita 	4	Abril	2023-04-25T00:00:00	2024-11-08T02:00:00	6	Velocidad del viento	3.2
89918	7	Sololá	704	Santa Lucía Utatlán 	7	Santa Rita 	4	Abril	2023-04-25T00:00:00	2024-11-08T02:00:00	7	Dirección del viento	3.22
89919	7	Sololá	704	Santa Lucía Utatlán 	7	Santa Rita 	4	Abril	2023-04-25T00:00:00	2024-11-08T02:00:00	1	Precipitación	0
89920	7	Sololá	704	Santa Lucía Utatlán 	7	Santa Rita 	4	Abril	2023-04-25T00:00:00	2024-11-08T02:00:00	8	Radiación solar	0
89921	7	Sololá	704	Santa Lucía Utatlán 	7	Santa Rita 	4	Abril	2023-04-25T00:00:00	2024-11-08T03:00:00	2	Temperatura media	16.7
89922	7	Sololá	704	Santa Lucía Utatlán 	7	Santa Rita 	4	Abril	2023-04-25T00:00:00	2024-11-08T03:00:00	4	Temperatura máxima	17
89923	7	Sololá	704	Santa Lucía Utatlán 	7	Santa Rita 	4	Abril	2023-04-25T00:00:00	2024-11-08T03:00:00	3	Temperatura mínima	16.7
89924	7	Sololá	704	Santa Lucía Utatlán 	7	Santa Rita 	4	Abril	2023-04-25T00:00:00	2024-11-08T03:00:00	5	Humedad	89
89925	7	Sololá	704	Santa Lucía Utatlán 	7	Santa Rita 	4	Abril	2023-04-25T00:00:00	2024-11-08T03:00:00	6	Velocidad del viento	1.6
89926	7	Sololá	704	Santa Lucía Utatlán 	7	Santa Rita 	4	Abril	2023-04-25T00:00:00	2024-11-08T03:00:00	7	Dirección del viento	1.61
89927	7	Sololá	704	Santa Lucía Utatlán 	7	Santa Rita 	4	Abril	2023-04-25T00:00:00	2024-11-08T03:00:00	1	Precipitación	0
89928	7	Sololá	704	Santa Lucía Utatlán 	7	Santa Rita 	4	Abril	2023-04-25T00:00:00	2024-11-08T03:00:00	8	Radiación solar	0
89929	7	Sololá	704	Santa Lucía Utatlán 	7	Santa Rita 	4	Abril	2023-04-25T00:00:00	2024-11-08T04:00:00	2	Temperatura media	16.7
89930	7	Sololá	704	Santa Lucía Utatlán 	7	Santa Rita 	4	Abril	2023-04-25T00:00:00	2024-11-08T04:00:00	4	Temperatura máxima	17.1
89931	7	Sololá	704	Santa Lucía Utatlán 	7	Santa Rita 	4	Abril	2023-04-25T00:00:00	2024-11-08T04:00:00	3	Temperatura mínima	16.7
89932	7	Sololá	704	Santa Lucía Utatlán 	7	Santa Rita 	4	Abril	2023-04-25T00:00:00	2024-11-08T04:00:00	5	Humedad	88
89933	7	Sololá	704	Santa Lucía Utatlán 	7	Santa Rita 	4	Abril	2023-04-25T00:00:00	2024-11-08T04:00:00	6	Velocidad del viento	3.2
89934	7	Sololá	704	Santa Lucía Utatlán 	7	Santa Rita 	4	Abril	2023-04-25T00:00:00	2024-11-08T04:00:00	7	Dirección del viento	3.22
89935	7	Sololá	704	Santa Lucía Utatlán 	7	Santa Rita 	4	Abril	2023-04-25T00:00:00	2024-11-08T04:00:00	1	Precipitación	0
89936	7	Sololá	704	Santa Lucía Utatlán 	7	Santa Rita 	4	Abril	2023-04-25T00:00:00	2024-11-08T04:00:00	8	Radiación solar	0
89937	7	Sololá	704	Santa Lucía Utatlán 	7	Santa Rita 	4	Abril	2023-04-25T00:00:00	2024-11-08T05:00:00	2	Temperatura media	16.7
89938	7	Sololá	704	Santa Lucía Utatlán 	7	Santa Rita 	4	Abril	2023-04-25T00:00:00	2024-11-08T05:00:00	4	Temperatura máxima	16.9
89939	7	Sololá	704	Santa Lucía Utatlán 	7	Santa Rita 	4	Abril	2023-04-25T00:00:00	2024-11-08T05:00:00	3	Temperatura mínima	16.6
89940	7	Sololá	704	Santa Lucía Utatlán 	7	Santa Rita 	4	Abril	2023-04-25T00:00:00	2024-11-08T05:00:00	5	Humedad	87
89941	7	Sololá	704	Santa Lucía Utatlán 	7	Santa Rita 	4	Abril	2023-04-25T00:00:00	2024-11-08T05:00:00	6	Velocidad del viento	4.8
89942	7	Sololá	704	Santa Lucía Utatlán 	7	Santa Rita 	4	Abril	2023-04-25T00:00:00	2024-11-08T05:00:00	7	Dirección del viento	4.83
89943	7	Sololá	704	Santa Lucía Utatlán 	7	Santa Rita 	4	Abril	2023-04-25T00:00:00	2024-11-08T05:00:00	1	Precipitación	0
89944	7	Sololá	704	Santa Lucía Utatlán 	7	Santa Rita 	4	Abril	2023-04-25T00:00:00	2024-11-08T05:00:00	8	Radiación solar	0
89945	7	Sololá	704	Santa Lucía Utatlán 	7	Santa Rita 	4	Abril	2023-04-25T00:00:00	2024-11-08T06:00:00	2	Temperatura media	16.2
89946	7	Sololá	704	Santa Lucía Utatlán 	7	Santa Rita 	4	Abril	2023-04-25T00:00:00	2024-11-08T06:00:00	4	Temperatura máxima	16.7
89947	7	Sololá	704	Santa Lucía Utatlán 	7	Santa Rita 	4	Abril	2023-04-25T00:00:00	2024-11-08T06:00:00	3	Temperatura mínima	16.1
89948	7	Sololá	704	Santa Lucía Utatlán 	7	Santa Rita 	4	Abril	2023-04-25T00:00:00	2024-11-08T06:00:00	5	Humedad	89
89949	7	Sololá	704	Santa Lucía Utatlán 	7	Santa Rita 	4	Abril	2023-04-25T00:00:00	2024-11-08T06:00:00	6	Velocidad del viento	3.2
89950	7	Sololá	704	Santa Lucía Utatlán 	7	Santa Rita 	4	Abril	2023-04-25T00:00:00	2024-11-08T06:00:00	7	Dirección del viento	3.22
89951	7	Sololá	704	Santa Lucía Utatlán 	7	Santa Rita 	4	Abril	2023-04-25T00:00:00	2024-11-08T06:00:00	1	Precipitación	0
89952	7	Sololá	704	Santa Lucía Utatlán 	7	Santa Rita 	4	Abril	2023-04-25T00:00:00	2024-11-08T06:00:00	8	Radiación solar	0
89953	7	Sololá	704	Santa Lucía Utatlán 	7	Santa Rita 	4	Abril	2023-04-25T00:00:00	2024-11-08T07:00:00	2	Temperatura media	16.5
89954	7	Sololá	704	Santa Lucía Utatlán 	7	Santa Rita 	4	Abril	2023-04-25T00:00:00	2024-11-08T07:00:00	4	Temperatura máxima	16.5
89955	7	Sololá	704	Santa Lucía Utatlán 	7	Santa Rita 	4	Abril	2023-04-25T00:00:00	2024-11-08T07:00:00	3	Temperatura mínima	16.2
89956	7	Sololá	704	Santa Lucía Utatlán 	7	Santa Rita 	4	Abril	2023-04-25T00:00:00	2024-11-08T07:00:00	5	Humedad	87
89957	7	Sololá	704	Santa Lucía Utatlán 	7	Santa Rita 	4	Abril	2023-04-25T00:00:00	2024-11-08T07:00:00	6	Velocidad del viento	3.2
89958	7	Sololá	704	Santa Lucía Utatlán 	7	Santa Rita 	4	Abril	2023-04-25T00:00:00	2024-11-08T07:00:00	7	Dirección del viento	3.22
89959	7	Sololá	704	Santa Lucía Utatlán 	7	Santa Rita 	4	Abril	2023-04-25T00:00:00	2024-11-08T07:00:00	1	Precipitación	0
89960	7	Sololá	704	Santa Lucía Utatlán 	7	Santa Rita 	4	Abril	2023-04-25T00:00:00	2024-11-08T07:00:00	8	Radiación solar	3
89961	7	Sololá	704	Santa Lucía Utatlán 	7	Santa Rita 	4	Abril	2023-04-25T00:00:00	2024-11-08T08:00:00	2	Temperatura media	18.7
89962	7	Sololá	704	Santa Lucía Utatlán 	7	Santa Rita 	4	Abril	2023-04-25T00:00:00	2024-11-08T08:00:00	4	Temperatura máxima	18.7
89963	7	Sololá	704	Santa Lucía Utatlán 	7	Santa Rita 	4	Abril	2023-04-25T00:00:00	2024-11-08T08:00:00	3	Temperatura mínima	16.4
89964	7	Sololá	704	Santa Lucía Utatlán 	7	Santa Rita 	4	Abril	2023-04-25T00:00:00	2024-11-08T08:00:00	5	Humedad	82
89965	7	Sololá	704	Santa Lucía Utatlán 	7	Santa Rita 	4	Abril	2023-04-25T00:00:00	2024-11-08T08:00:00	6	Velocidad del viento	3.2
89966	7	Sololá	704	Santa Lucía Utatlán 	7	Santa Rita 	4	Abril	2023-04-25T00:00:00	2024-11-08T08:00:00	7	Dirección del viento	3.22
89967	7	Sololá	704	Santa Lucía Utatlán 	7	Santa Rita 	4	Abril	2023-04-25T00:00:00	2024-11-08T08:00:00	1	Precipitación	0
89968	7	Sololá	704	Santa Lucía Utatlán 	7	Santa Rita 	4	Abril	2023-04-25T00:00:00	2024-11-08T08:00:00	8	Radiación solar	97
89969	7	Sololá	704	Santa Lucía Utatlán 	7	Santa Rita 	4	Abril	2023-04-25T00:00:00	2024-11-08T09:00:00	2	Temperatura media	21.4
89970	7	Sololá	704	Santa Lucía Utatlán 	7	Santa Rita 	4	Abril	2023-04-25T00:00:00	2024-11-08T09:00:00	4	Temperatura máxima	21.4
89971	7	Sololá	704	Santa Lucía Utatlán 	7	Santa Rita 	4	Abril	2023-04-25T00:00:00	2024-11-08T09:00:00	3	Temperatura mínima	18.7
89972	7	Sololá	704	Santa Lucía Utatlán 	7	Santa Rita 	4	Abril	2023-04-25T00:00:00	2024-11-08T09:00:00	5	Humedad	76
89973	7	Sololá	704	Santa Lucía Utatlán 	7	Santa Rita 	4	Abril	2023-04-25T00:00:00	2024-11-08T09:00:00	6	Velocidad del viento	1.6
89974	7	Sololá	704	Santa Lucía Utatlán 	7	Santa Rita 	4	Abril	2023-04-25T00:00:00	2024-11-08T09:00:00	7	Dirección del viento	1.61
89975	7	Sololá	704	Santa Lucía Utatlán 	7	Santa Rita 	4	Abril	2023-04-25T00:00:00	2024-11-08T09:00:00	1	Precipitación	0
89976	7	Sololá	704	Santa Lucía Utatlán 	7	Santa Rita 	4	Abril	2023-04-25T00:00:00	2024-11-08T09:00:00	8	Radiación solar	362
89977	7	Sololá	704	Santa Lucía Utatlán 	7	Santa Rita 	4	Abril	2023-04-25T00:00:00	2024-11-08T10:00:00	2	Temperatura media	23.2
89978	7	Sololá	704	Santa Lucía Utatlán 	7	Santa Rita 	4	Abril	2023-04-25T00:00:00	2024-11-08T10:00:00	4	Temperatura máxima	23.2
89979	7	Sololá	704	Santa Lucía Utatlán 	7	Santa Rita 	4	Abril	2023-04-25T00:00:00	2024-11-08T10:00:00	3	Temperatura mínima	21.4
89980	7	Sololá	704	Santa Lucía Utatlán 	7	Santa Rita 	4	Abril	2023-04-25T00:00:00	2024-11-08T10:00:00	5	Humedad	65
89981	7	Sololá	704	Santa Lucía Utatlán 	7	Santa Rita 	4	Abril	2023-04-25T00:00:00	2024-11-08T10:00:00	6	Velocidad del viento	3.2
89982	7	Sololá	704	Santa Lucía Utatlán 	7	Santa Rita 	4	Abril	2023-04-25T00:00:00	2024-11-08T10:00:00	7	Dirección del viento	3.22
89983	7	Sololá	704	Santa Lucía Utatlán 	7	Santa Rita 	4	Abril	2023-04-25T00:00:00	2024-11-08T10:00:00	1	Precipitación	0
89984	7	Sololá	704	Santa Lucía Utatlán 	7	Santa Rita 	4	Abril	2023-04-25T00:00:00	2024-11-08T10:00:00	8	Radiación solar	602
89985	7	Sololá	704	Santa Lucía Utatlán 	7	Santa Rita 	4	Abril	2023-04-25T00:00:00	2024-11-08T11:00:00	2	Temperatura media	24.6
89986	7	Sololá	704	Santa Lucía Utatlán 	7	Santa Rita 	4	Abril	2023-04-25T00:00:00	2024-11-08T11:00:00	4	Temperatura máxima	24.6
89987	7	Sololá	704	Santa Lucía Utatlán 	7	Santa Rita 	4	Abril	2023-04-25T00:00:00	2024-11-08T11:00:00	3	Temperatura mínima	23.1
89988	7	Sololá	704	Santa Lucía Utatlán 	7	Santa Rita 	4	Abril	2023-04-25T00:00:00	2024-11-08T11:00:00	5	Humedad	64
89989	7	Sololá	704	Santa Lucía Utatlán 	7	Santa Rita 	4	Abril	2023-04-25T00:00:00	2024-11-08T11:00:00	6	Velocidad del viento	4.8
89990	7	Sololá	704	Santa Lucía Utatlán 	7	Santa Rita 	4	Abril	2023-04-25T00:00:00	2024-11-08T11:00:00	7	Dirección del viento	4.83
89991	7	Sololá	704	Santa Lucía Utatlán 	7	Santa Rita 	4	Abril	2023-04-25T00:00:00	2024-11-08T11:00:00	1	Precipitación	0
89992	7	Sololá	704	Santa Lucía Utatlán 	7	Santa Rita 	4	Abril	2023-04-25T00:00:00	2024-11-08T11:00:00	8	Radiación solar	816
89993	7	Sololá	704	Santa Lucía Utatlán 	7	Santa Rita 	4	Abril	2023-04-25T00:00:00	2024-11-08T12:00:00	2	Temperatura media	24.2
89994	7	Sololá	704	Santa Lucía Utatlán 	7	Santa Rita 	4	Abril	2023-04-25T00:00:00	2024-11-08T12:00:00	4	Temperatura máxima	25.2
89995	7	Sololá	704	Santa Lucía Utatlán 	7	Santa Rita 	4	Abril	2023-04-25T00:00:00	2024-11-08T12:00:00	3	Temperatura mínima	24.1
89996	7	Sololá	704	Santa Lucía Utatlán 	7	Santa Rita 	4	Abril	2023-04-25T00:00:00	2024-11-08T12:00:00	5	Humedad	69
89997	7	Sololá	704	Santa Lucía Utatlán 	7	Santa Rita 	4	Abril	2023-04-25T00:00:00	2024-11-08T12:00:00	6	Velocidad del viento	8
89998	7	Sololá	704	Santa Lucía Utatlán 	7	Santa Rita 	4	Abril	2023-04-25T00:00:00	2024-11-08T12:00:00	7	Dirección del viento	8.05
89999	7	Sololá	704	Santa Lucía Utatlán 	7	Santa Rita 	4	Abril	2023-04-25T00:00:00	2024-11-08T12:00:00	1	Precipitación	0
90000	7	Sololá	704	Santa Lucía Utatlán 	7	Santa Rita 	4	Abril	2023-04-25T00:00:00	2024-11-08T12:00:00	8	Radiación solar	815
90001	7	Sololá	704	Santa Lucía Utatlán 	7	Santa Rita 	4	Abril	2023-04-25T00:00:00	2024-11-08T13:00:00	2	Temperatura media	25
90002	7	Sololá	704	Santa Lucía Utatlán 	7	Santa Rita 	4	Abril	2023-04-25T00:00:00	2024-11-08T13:00:00	4	Temperatura máxima	25.1
90003	7	Sololá	704	Santa Lucía Utatlán 	7	Santa Rita 	4	Abril	2023-04-25T00:00:00	2024-11-08T13:00:00	3	Temperatura mínima	23.8
90004	7	Sololá	704	Santa Lucía Utatlán 	7	Santa Rita 	4	Abril	2023-04-25T00:00:00	2024-11-08T13:00:00	5	Humedad	63
90005	7	Sololá	704	Santa Lucía Utatlán 	7	Santa Rita 	4	Abril	2023-04-25T00:00:00	2024-11-08T13:00:00	6	Velocidad del viento	4.8
90006	7	Sololá	704	Santa Lucía Utatlán 	7	Santa Rita 	4	Abril	2023-04-25T00:00:00	2024-11-08T13:00:00	7	Dirección del viento	4.83
90007	7	Sololá	704	Santa Lucía Utatlán 	7	Santa Rita 	4	Abril	2023-04-25T00:00:00	2024-11-08T13:00:00	1	Precipitación	0
90008	7	Sololá	704	Santa Lucía Utatlán 	7	Santa Rita 	4	Abril	2023-04-25T00:00:00	2024-11-08T13:00:00	8	Radiación solar	406
90009	7	Sololá	704	Santa Lucía Utatlán 	7	Santa Rita 	4	Abril	2023-04-25T00:00:00	2024-11-08T14:00:00	2	Temperatura media	23.2
90010	7	Sololá	704	Santa Lucía Utatlán 	7	Santa Rita 	4	Abril	2023-04-25T00:00:00	2024-11-08T14:00:00	4	Temperatura máxima	25.7
90011	7	Sololá	704	Santa Lucía Utatlán 	7	Santa Rita 	4	Abril	2023-04-25T00:00:00	2024-11-08T14:00:00	3	Temperatura mínima	23.2
90012	7	Sololá	704	Santa Lucía Utatlán 	7	Santa Rita 	4	Abril	2023-04-25T00:00:00	2024-11-08T14:00:00	5	Humedad	81
90013	7	Sololá	704	Santa Lucía Utatlán 	7	Santa Rita 	4	Abril	2023-04-25T00:00:00	2024-11-08T14:00:00	6	Velocidad del viento	6.4
90014	7	Sololá	704	Santa Lucía Utatlán 	7	Santa Rita 	4	Abril	2023-04-25T00:00:00	2024-11-08T14:00:00	7	Dirección del viento	6.44
90015	7	Sololá	704	Santa Lucía Utatlán 	7	Santa Rita 	4	Abril	2023-04-25T00:00:00	2024-11-08T14:00:00	1	Precipitación	0
90016	7	Sololá	704	Santa Lucía Utatlán 	7	Santa Rita 	4	Abril	2023-04-25T00:00:00	2024-11-08T14:00:00	8	Radiación solar	384
90017	7	Sololá	704	Santa Lucía Utatlán 	7	Santa Rita 	4	Abril	2023-04-25T00:00:00	2024-11-08T15:00:00	2	Temperatura media	19.3
90018	7	Sololá	704	Santa Lucía Utatlán 	7	Santa Rita 	4	Abril	2023-04-25T00:00:00	2024-11-08T15:00:00	4	Temperatura máxima	23.3
90019	7	Sololá	704	Santa Lucía Utatlán 	7	Santa Rita 	4	Abril	2023-04-25T00:00:00	2024-11-08T15:00:00	3	Temperatura mínima	19.2
90020	7	Sololá	704	Santa Lucía Utatlán 	7	Santa Rita 	4	Abril	2023-04-25T00:00:00	2024-11-08T15:00:00	5	Humedad	93
90021	7	Sololá	704	Santa Lucía Utatlán 	7	Santa Rita 	4	Abril	2023-04-25T00:00:00	2024-11-08T15:00:00	6	Velocidad del viento	4.8
90022	7	Sololá	704	Santa Lucía Utatlán 	7	Santa Rita 	4	Abril	2023-04-25T00:00:00	2024-11-08T15:00:00	7	Dirección del viento	4.83
90023	7	Sololá	704	Santa Lucía Utatlán 	7	Santa Rita 	4	Abril	2023-04-25T00:00:00	2024-11-08T15:00:00	1	Precipitación	21.6
90024	7	Sololá	704	Santa Lucía Utatlán 	7	Santa Rita 	4	Abril	2023-04-25T00:00:00	2024-11-08T15:00:00	8	Radiación solar	52
90025	7	Sololá	704	Santa Lucía Utatlán 	7	Santa Rita 	4	Abril	2023-04-25T00:00:00	2024-11-08T16:00:00	2	Temperatura media	20.9
90026	7	Sololá	704	Santa Lucía Utatlán 	7	Santa Rita 	4	Abril	2023-04-25T00:00:00	2024-11-08T16:00:00	4	Temperatura máxima	20.9
90027	7	Sololá	704	Santa Lucía Utatlán 	7	Santa Rita 	4	Abril	2023-04-25T00:00:00	2024-11-08T16:00:00	3	Temperatura mínima	19.3
90028	7	Sololá	704	Santa Lucía Utatlán 	7	Santa Rita 	4	Abril	2023-04-25T00:00:00	2024-11-08T16:00:00	5	Humedad	93
90029	7	Sololá	704	Santa Lucía Utatlán 	7	Santa Rita 	4	Abril	2023-04-25T00:00:00	2024-11-08T16:00:00	6	Velocidad del viento	0
90030	7	Sololá	704	Santa Lucía Utatlán 	7	Santa Rita 	4	Abril	2023-04-25T00:00:00	2024-11-08T16:00:00	7	Dirección del viento	0
90031	7	Sololá	704	Santa Lucía Utatlán 	7	Santa Rita 	4	Abril	2023-04-25T00:00:00	2024-11-08T16:00:00	1	Precipitación	2.6
90032	7	Sololá	704	Santa Lucía Utatlán 	7	Santa Rita 	4	Abril	2023-04-25T00:00:00	2024-11-08T16:00:00	8	Radiación solar	159
90033	7	Sololá	704	Santa Lucía Utatlán 	7	Santa Rita 	4	Abril	2023-04-25T00:00:00	2024-11-08T17:00:00	2	Temperatura media	21.5
90034	7	Sololá	704	Santa Lucía Utatlán 	7	Santa Rita 	4	Abril	2023-04-25T00:00:00	2024-11-08T17:00:00	4	Temperatura máxima	21.6
90035	7	Sololá	704	Santa Lucía Utatlán 	7	Santa Rita 	4	Abril	2023-04-25T00:00:00	2024-11-08T17:00:00	3	Temperatura mínima	20.9
90036	7	Sololá	704	Santa Lucía Utatlán 	7	Santa Rita 	4	Abril	2023-04-25T00:00:00	2024-11-08T17:00:00	5	Humedad	88
90037	7	Sololá	704	Santa Lucía Utatlán 	7	Santa Rita 	4	Abril	2023-04-25T00:00:00	2024-11-08T17:00:00	6	Velocidad del viento	1.6
90038	7	Sololá	704	Santa Lucía Utatlán 	7	Santa Rita 	4	Abril	2023-04-25T00:00:00	2024-11-08T17:00:00	7	Dirección del viento	1.61
90039	7	Sololá	704	Santa Lucía Utatlán 	7	Santa Rita 	4	Abril	2023-04-25T00:00:00	2024-11-08T17:00:00	1	Precipitación	0
90040	7	Sololá	704	Santa Lucía Utatlán 	7	Santa Rita 	4	Abril	2023-04-25T00:00:00	2024-11-08T17:00:00	8	Radiación solar	207
90041	7	Sololá	704	Santa Lucía Utatlán 	7	Santa Rita 	4	Abril	2023-04-25T00:00:00	2024-11-08T18:00:00	2	Temperatura media	21.1
90042	7	Sololá	704	Santa Lucía Utatlán 	7	Santa Rita 	4	Abril	2023-04-25T00:00:00	2024-11-08T18:00:00	4	Temperatura máxima	21.6
90043	7	Sololá	704	Santa Lucía Utatlán 	7	Santa Rita 	4	Abril	2023-04-25T00:00:00	2024-11-08T18:00:00	3	Temperatura mínima	21.1
90044	7	Sololá	704	Santa Lucía Utatlán 	7	Santa Rita 	4	Abril	2023-04-25T00:00:00	2024-11-08T18:00:00	5	Humedad	90
90045	7	Sololá	704	Santa Lucía Utatlán 	7	Santa Rita 	4	Abril	2023-04-25T00:00:00	2024-11-08T18:00:00	6	Velocidad del viento	1.6
90046	7	Sololá	704	Santa Lucía Utatlán 	7	Santa Rita 	4	Abril	2023-04-25T00:00:00	2024-11-08T18:00:00	7	Dirección del viento	1.61
90047	7	Sololá	704	Santa Lucía Utatlán 	7	Santa Rita 	4	Abril	2023-04-25T00:00:00	2024-11-08T18:00:00	1	Precipitación	0
90048	7	Sololá	704	Santa Lucía Utatlán 	7	Santa Rita 	4	Abril	2023-04-25T00:00:00	2024-11-08T18:00:00	8	Radiación solar	101
90049	7	Sololá	704	Santa Lucía Utatlán 	7	Santa Rita 	4	Abril	2023-04-25T00:00:00	2024-11-08T19:00:00	2	Temperatura media	20.7
90050	7	Sololá	704	Santa Lucía Utatlán 	7	Santa Rita 	4	Abril	2023-04-25T00:00:00	2024-11-08T19:00:00	4	Temperatura máxima	21.1
90051	7	Sololá	704	Santa Lucía Utatlán 	7	Santa Rita 	4	Abril	2023-04-25T00:00:00	2024-11-08T19:00:00	3	Temperatura mínima	20.7
90052	7	Sololá	704	Santa Lucía Utatlán 	7	Santa Rita 	4	Abril	2023-04-25T00:00:00	2024-11-08T19:00:00	5	Humedad	91
90053	7	Sololá	704	Santa Lucía Utatlán 	7	Santa Rita 	4	Abril	2023-04-25T00:00:00	2024-11-08T19:00:00	6	Velocidad del viento	1.6
90054	7	Sololá	704	Santa Lucía Utatlán 	7	Santa Rita 	4	Abril	2023-04-25T00:00:00	2024-11-08T19:00:00	7	Dirección del viento	1.61
90055	7	Sololá	704	Santa Lucía Utatlán 	7	Santa Rita 	4	Abril	2023-04-25T00:00:00	2024-11-08T19:00:00	1	Precipitación	0
90056	7	Sololá	704	Santa Lucía Utatlán 	7	Santa Rita 	4	Abril	2023-04-25T00:00:00	2024-11-08T19:00:00	8	Radiación solar	0
90057	7	Sololá	704	Santa Lucía Utatlán 	7	Santa Rita 	4	Abril	2023-04-25T00:00:00	2024-11-08T20:00:00	2	Temperatura media	20.3
90058	7	Sololá	704	Santa Lucía Utatlán 	7	Santa Rita 	4	Abril	2023-04-25T00:00:00	2024-11-08T20:00:00	4	Temperatura máxima	20.7
90059	7	Sololá	704	Santa Lucía Utatlán 	7	Santa Rita 	4	Abril	2023-04-25T00:00:00	2024-11-08T20:00:00	3	Temperatura mínima	20.3
90060	7	Sololá	704	Santa Lucía Utatlán 	7	Santa Rita 	4	Abril	2023-04-25T00:00:00	2024-11-08T20:00:00	5	Humedad	94
90061	7	Sololá	704	Santa Lucía Utatlán 	7	Santa Rita 	4	Abril	2023-04-25T00:00:00	2024-11-08T20:00:00	6	Velocidad del viento	0
90062	7	Sololá	704	Santa Lucía Utatlán 	7	Santa Rita 	4	Abril	2023-04-25T00:00:00	2024-11-08T20:00:00	7	Dirección del viento	0
90063	7	Sololá	704	Santa Lucía Utatlán 	7	Santa Rita 	4	Abril	2023-04-25T00:00:00	2024-11-08T20:00:00	1	Precipitación	0
90064	7	Sololá	704	Santa Lucía Utatlán 	7	Santa Rita 	4	Abril	2023-04-25T00:00:00	2024-11-08T20:00:00	8	Radiación solar	0
90065	7	Sololá	704	Santa Lucía Utatlán 	7	Santa Rita 	4	Abril	2023-04-25T00:00:00	2024-11-08T21:00:00	2	Temperatura media	19.8
90066	7	Sololá	704	Santa Lucía Utatlán 	7	Santa Rita 	4	Abril	2023-04-25T00:00:00	2024-11-08T21:00:00	4	Temperatura máxima	20.3
90067	7	Sololá	704	Santa Lucía Utatlán 	7	Santa Rita 	4	Abril	2023-04-25T00:00:00	2024-11-08T21:00:00	3	Temperatura mínima	19.8
90068	7	Sololá	704	Santa Lucía Utatlán 	7	Santa Rita 	4	Abril	2023-04-25T00:00:00	2024-11-08T21:00:00	5	Humedad	94
90069	7	Sololá	704	Santa Lucía Utatlán 	7	Santa Rita 	4	Abril	2023-04-25T00:00:00	2024-11-08T21:00:00	6	Velocidad del viento	0
90070	7	Sololá	704	Santa Lucía Utatlán 	7	Santa Rita 	4	Abril	2023-04-25T00:00:00	2024-11-08T21:00:00	7	Dirección del viento	0
90071	7	Sololá	704	Santa Lucía Utatlán 	7	Santa Rita 	4	Abril	2023-04-25T00:00:00	2024-11-08T21:00:00	1	Precipitación	0
90072	7	Sololá	704	Santa Lucía Utatlán 	7	Santa Rita 	4	Abril	2023-04-25T00:00:00	2024-11-08T21:00:00	8	Radiación solar	0
90073	7	Sololá	704	Santa Lucía Utatlán 	7	Santa Rita 	4	Abril	2023-04-25T00:00:00	2024-11-08T22:00:00	2	Temperatura media	18.5
90074	7	Sololá	704	Santa Lucía Utatlán 	7	Santa Rita 	4	Abril	2023-04-25T00:00:00	2024-11-08T22:00:00	4	Temperatura máxima	19.8
90075	7	Sololá	704	Santa Lucía Utatlán 	7	Santa Rita 	4	Abril	2023-04-25T00:00:00	2024-11-08T22:00:00	3	Temperatura mínima	18.5
90076	7	Sololá	704	Santa Lucía Utatlán 	7	Santa Rita 	4	Abril	2023-04-25T00:00:00	2024-11-08T22:00:00	5	Humedad	92
90077	7	Sololá	704	Santa Lucía Utatlán 	7	Santa Rita 	4	Abril	2023-04-25T00:00:00	2024-11-08T22:00:00	6	Velocidad del viento	3.2
90078	7	Sololá	704	Santa Lucía Utatlán 	7	Santa Rita 	4	Abril	2023-04-25T00:00:00	2024-11-08T22:00:00	7	Dirección del viento	3.22
90079	7	Sololá	704	Santa Lucía Utatlán 	7	Santa Rita 	4	Abril	2023-04-25T00:00:00	2024-11-08T22:00:00	1	Precipitación	0
90080	7	Sololá	704	Santa Lucía Utatlán 	7	Santa Rita 	4	Abril	2023-04-25T00:00:00	2024-11-08T22:00:00	8	Radiación solar	0
90081	7	Sololá	704	Santa Lucía Utatlán 	7	Santa Rita 	4	Abril	2023-04-25T00:00:00	2024-11-08T23:00:00	2	Temperatura media	18.1
90082	7	Sololá	704	Santa Lucía Utatlán 	7	Santa Rita 	4	Abril	2023-04-25T00:00:00	2024-11-08T23:00:00	4	Temperatura máxima	18.6
90083	7	Sololá	704	Santa Lucía Utatlán 	7	Santa Rita 	4	Abril	2023-04-25T00:00:00	2024-11-08T23:00:00	3	Temperatura mínima	18.1
90084	7	Sololá	704	Santa Lucía Utatlán 	7	Santa Rita 	4	Abril	2023-04-25T00:00:00	2024-11-08T23:00:00	5	Humedad	91
90085	7	Sololá	704	Santa Lucía Utatlán 	7	Santa Rita 	4	Abril	2023-04-25T00:00:00	2024-11-08T23:00:00	6	Velocidad del viento	3.2
90086	7	Sololá	704	Santa Lucía Utatlán 	7	Santa Rita 	4	Abril	2023-04-25T00:00:00	2024-11-08T23:00:00	7	Dirección del viento	3.22
90087	7	Sololá	704	Santa Lucía Utatlán 	7	Santa Rita 	4	Abril	2023-04-25T00:00:00	2024-11-08T23:00:00	1	Precipitación	0
90088	7	Sololá	704	Santa Lucía Utatlán 	7	Santa Rita 	4	Abril	2023-04-25T00:00:00	2024-11-08T23:00:00	8	Radiación solar	0
90089	7	Sololá	704	Santa Lucía Utatlán 	7	Santa Rita 	4	Abril	2023-04-26T00:00:00	2024-11-08T00:00:00	2	Temperatura media	18.6
90090	7	Sololá	704	Santa Lucía Utatlán 	7	Santa Rita 	4	Abril	2023-04-26T00:00:00	2024-11-08T00:00:00	4	Temperatura máxima	18.6
90091	7	Sololá	704	Santa Lucía Utatlán 	7	Santa Rita 	4	Abril	2023-04-26T00:00:00	2024-11-08T00:00:00	3	Temperatura mínima	18.1
90092	7	Sololá	704	Santa Lucía Utatlán 	7	Santa Rita 	4	Abril	2023-04-26T00:00:00	2024-11-08T00:00:00	5	Humedad	92
90093	7	Sololá	704	Santa Lucía Utatlán 	7	Santa Rita 	4	Abril	2023-04-26T00:00:00	2024-11-08T00:00:00	6	Velocidad del viento	1.6
90094	7	Sololá	704	Santa Lucía Utatlán 	7	Santa Rita 	4	Abril	2023-04-26T00:00:00	2024-11-08T00:00:00	7	Dirección del viento	1.61
90095	7	Sololá	704	Santa Lucía Utatlán 	7	Santa Rita 	4	Abril	2023-04-26T00:00:00	2024-11-08T00:00:00	1	Precipitación	0
90096	7	Sololá	704	Santa Lucía Utatlán 	7	Santa Rita 	4	Abril	2023-04-26T00:00:00	2024-11-08T00:00:00	8	Radiación solar	0
90097	7	Sololá	704	Santa Lucía Utatlán 	7	Santa Rita 	4	Abril	2023-04-26T00:00:00	2024-11-08T01:00:00	2	Temperatura media	18.5
90098	7	Sololá	704	Santa Lucía Utatlán 	7	Santa Rita 	4	Abril	2023-04-26T00:00:00	2024-11-08T01:00:00	4	Temperatura máxima	18.6
90099	7	Sololá	704	Santa Lucía Utatlán 	7	Santa Rita 	4	Abril	2023-04-26T00:00:00	2024-11-08T01:00:00	3	Temperatura mínima	18.4
90100	7	Sololá	704	Santa Lucía Utatlán 	7	Santa Rita 	4	Abril	2023-04-26T00:00:00	2024-11-08T01:00:00	5	Humedad	94
90101	7	Sololá	704	Santa Lucía Utatlán 	7	Santa Rita 	4	Abril	2023-04-26T00:00:00	2024-11-08T01:00:00	6	Velocidad del viento	0
90102	7	Sololá	704	Santa Lucía Utatlán 	7	Santa Rita 	4	Abril	2023-04-26T00:00:00	2024-11-08T01:00:00	7	Dirección del viento	0
90103	7	Sololá	704	Santa Lucía Utatlán 	7	Santa Rita 	4	Abril	2023-04-26T00:00:00	2024-11-08T01:00:00	1	Precipitación	0
90104	7	Sololá	704	Santa Lucía Utatlán 	7	Santa Rita 	4	Abril	2023-04-26T00:00:00	2024-11-08T01:00:00	8	Radiación solar	0
90105	7	Sololá	704	Santa Lucía Utatlán 	7	Santa Rita 	4	Abril	2023-04-26T00:00:00	2024-11-08T02:00:00	2	Temperatura media	18.3
90106	7	Sololá	704	Santa Lucía Utatlán 	7	Santa Rita 	4	Abril	2023-04-26T00:00:00	2024-11-08T02:00:00	4	Temperatura máxima	18.5
90107	7	Sololá	704	Santa Lucía Utatlán 	7	Santa Rita 	4	Abril	2023-04-26T00:00:00	2024-11-08T02:00:00	3	Temperatura mínima	18.3
90108	7	Sololá	704	Santa Lucía Utatlán 	7	Santa Rita 	4	Abril	2023-04-26T00:00:00	2024-11-08T02:00:00	5	Humedad	93
90109	7	Sololá	704	Santa Lucía Utatlán 	7	Santa Rita 	4	Abril	2023-04-26T00:00:00	2024-11-08T02:00:00	6	Velocidad del viento	0
90110	7	Sololá	704	Santa Lucía Utatlán 	7	Santa Rita 	4	Abril	2023-04-26T00:00:00	2024-11-08T02:00:00	7	Dirección del viento	0
90111	7	Sololá	704	Santa Lucía Utatlán 	7	Santa Rita 	4	Abril	2023-04-26T00:00:00	2024-11-08T02:00:00	1	Precipitación	0
90112	7	Sololá	704	Santa Lucía Utatlán 	7	Santa Rita 	4	Abril	2023-04-26T00:00:00	2024-11-08T02:00:00	8	Radiación solar	0
90113	7	Sololá	704	Santa Lucía Utatlán 	7	Santa Rita 	4	Abril	2023-04-26T00:00:00	2024-11-08T03:00:00	2	Temperatura media	18.2
90114	7	Sololá	704	Santa Lucía Utatlán 	7	Santa Rita 	4	Abril	2023-04-26T00:00:00	2024-11-08T03:00:00	4	Temperatura máxima	18.4
90115	7	Sololá	704	Santa Lucía Utatlán 	7	Santa Rita 	4	Abril	2023-04-26T00:00:00	2024-11-08T03:00:00	3	Temperatura mínima	18.2
90116	7	Sololá	704	Santa Lucía Utatlán 	7	Santa Rita 	4	Abril	2023-04-26T00:00:00	2024-11-08T03:00:00	5	Humedad	95
90117	7	Sololá	704	Santa Lucía Utatlán 	7	Santa Rita 	4	Abril	2023-04-26T00:00:00	2024-11-08T03:00:00	6	Velocidad del viento	0
90118	7	Sololá	704	Santa Lucía Utatlán 	7	Santa Rita 	4	Abril	2023-04-26T00:00:00	2024-11-08T03:00:00	7	Dirección del viento	0
90119	7	Sololá	704	Santa Lucía Utatlán 	7	Santa Rita 	4	Abril	2023-04-26T00:00:00	2024-11-08T03:00:00	1	Precipitación	0
90120	7	Sololá	704	Santa Lucía Utatlán 	7	Santa Rita 	4	Abril	2023-04-26T00:00:00	2024-11-08T03:00:00	8	Radiación solar	0
90121	7	Sololá	704	Santa Lucía Utatlán 	7	Santa Rita 	4	Abril	2023-04-26T00:00:00	2024-11-08T04:00:00	2	Temperatura media	18.1
90122	7	Sololá	704	Santa Lucía Utatlán 	7	Santa Rita 	4	Abril	2023-04-26T00:00:00	2024-11-08T04:00:00	4	Temperatura máxima	18.2
90123	7	Sololá	704	Santa Lucía Utatlán 	7	Santa Rita 	4	Abril	2023-04-26T00:00:00	2024-11-08T04:00:00	3	Temperatura mínima	18.1
90124	7	Sololá	704	Santa Lucía Utatlán 	7	Santa Rita 	4	Abril	2023-04-26T00:00:00	2024-11-08T04:00:00	5	Humedad	94
90125	7	Sololá	704	Santa Lucía Utatlán 	7	Santa Rita 	4	Abril	2023-04-26T00:00:00	2024-11-08T04:00:00	6	Velocidad del viento	0
90126	7	Sololá	704	Santa Lucía Utatlán 	7	Santa Rita 	4	Abril	2023-04-26T00:00:00	2024-11-08T04:00:00	7	Dirección del viento	0
90127	7	Sololá	704	Santa Lucía Utatlán 	7	Santa Rita 	4	Abril	2023-04-26T00:00:00	2024-11-08T04:00:00	1	Precipitación	0
90128	7	Sololá	704	Santa Lucía Utatlán 	7	Santa Rita 	4	Abril	2023-04-26T00:00:00	2024-11-08T04:00:00	8	Radiación solar	0
90129	7	Sololá	704	Santa Lucía Utatlán 	7	Santa Rita 	4	Abril	2023-04-26T00:00:00	2024-11-08T05:00:00	2	Temperatura media	17.9
90130	7	Sololá	704	Santa Lucía Utatlán 	7	Santa Rita 	4	Abril	2023-04-26T00:00:00	2024-11-08T05:00:00	4	Temperatura máxima	18.2
90131	7	Sololá	704	Santa Lucía Utatlán 	7	Santa Rita 	4	Abril	2023-04-26T00:00:00	2024-11-08T05:00:00	3	Temperatura mínima	17.9
90132	7	Sololá	704	Santa Lucía Utatlán 	7	Santa Rita 	4	Abril	2023-04-26T00:00:00	2024-11-08T05:00:00	5	Humedad	95
90133	7	Sololá	704	Santa Lucía Utatlán 	7	Santa Rita 	4	Abril	2023-04-26T00:00:00	2024-11-08T05:00:00	6	Velocidad del viento	0
90134	7	Sololá	704	Santa Lucía Utatlán 	7	Santa Rita 	4	Abril	2023-04-26T00:00:00	2024-11-08T05:00:00	7	Dirección del viento	0
90135	7	Sololá	704	Santa Lucía Utatlán 	7	Santa Rita 	4	Abril	2023-04-26T00:00:00	2024-11-08T05:00:00	1	Precipitación	0
90136	7	Sololá	704	Santa Lucía Utatlán 	7	Santa Rita 	4	Abril	2023-04-26T00:00:00	2024-11-08T05:00:00	8	Radiación solar	0
90137	7	Sololá	704	Santa Lucía Utatlán 	7	Santa Rita 	4	Abril	2023-04-26T00:00:00	2024-11-08T06:00:00	2	Temperatura media	18.1
90138	7	Sololá	704	Santa Lucía Utatlán 	7	Santa Rita 	4	Abril	2023-04-26T00:00:00	2024-11-08T06:00:00	4	Temperatura máxima	18.2
90139	7	Sololá	704	Santa Lucía Utatlán 	7	Santa Rita 	4	Abril	2023-04-26T00:00:00	2024-11-08T06:00:00	3	Temperatura mínima	17.9
90140	7	Sololá	704	Santa Lucía Utatlán 	7	Santa Rita 	4	Abril	2023-04-26T00:00:00	2024-11-08T06:00:00	5	Humedad	93
90141	7	Sololá	704	Santa Lucía Utatlán 	7	Santa Rita 	4	Abril	2023-04-26T00:00:00	2024-11-08T06:00:00	6	Velocidad del viento	0
90142	7	Sololá	704	Santa Lucía Utatlán 	7	Santa Rita 	4	Abril	2023-04-26T00:00:00	2024-11-08T06:00:00	7	Dirección del viento	0
90143	7	Sololá	704	Santa Lucía Utatlán 	7	Santa Rita 	4	Abril	2023-04-26T00:00:00	2024-11-08T06:00:00	1	Precipitación	0
90144	7	Sololá	704	Santa Lucía Utatlán 	7	Santa Rita 	4	Abril	2023-04-26T00:00:00	2024-11-08T06:00:00	8	Radiación solar	0
90145	7	Sololá	704	Santa Lucía Utatlán 	7	Santa Rita 	4	Abril	2023-04-26T00:00:00	2024-11-08T07:00:00	2	Temperatura media	17.4
90146	7	Sololá	704	Santa Lucía Utatlán 	7	Santa Rita 	4	Abril	2023-04-26T00:00:00	2024-11-08T07:00:00	4	Temperatura máxima	18.1
90147	7	Sololá	704	Santa Lucía Utatlán 	7	Santa Rita 	4	Abril	2023-04-26T00:00:00	2024-11-08T07:00:00	3	Temperatura mínima	17.4
90148	7	Sololá	704	Santa Lucía Utatlán 	7	Santa Rita 	4	Abril	2023-04-26T00:00:00	2024-11-08T07:00:00	5	Humedad	93
90149	7	Sololá	704	Santa Lucía Utatlán 	7	Santa Rita 	4	Abril	2023-04-26T00:00:00	2024-11-08T07:00:00	6	Velocidad del viento	1.6
90150	7	Sololá	704	Santa Lucía Utatlán 	7	Santa Rita 	4	Abril	2023-04-26T00:00:00	2024-11-08T07:00:00	7	Dirección del viento	1.61
90151	7	Sololá	704	Santa Lucía Utatlán 	7	Santa Rita 	4	Abril	2023-04-26T00:00:00	2024-11-08T07:00:00	1	Precipitación	0
90152	7	Sololá	704	Santa Lucía Utatlán 	7	Santa Rita 	4	Abril	2023-04-26T00:00:00	2024-11-08T07:00:00	8	Radiación solar	3
90153	7	Sololá	704	Santa Lucía Utatlán 	7	Santa Rita 	4	Abril	2023-04-26T00:00:00	2024-11-08T08:00:00	2	Temperatura media	18.9
90154	7	Sololá	704	Santa Lucía Utatlán 	7	Santa Rita 	4	Abril	2023-04-26T00:00:00	2024-11-08T08:00:00	4	Temperatura máxima	18.9
90155	7	Sololá	704	Santa Lucía Utatlán 	7	Santa Rita 	4	Abril	2023-04-26T00:00:00	2024-11-08T08:00:00	3	Temperatura mínima	17.4
90156	7	Sololá	704	Santa Lucía Utatlán 	7	Santa Rita 	4	Abril	2023-04-26T00:00:00	2024-11-08T08:00:00	5	Humedad	91
90157	7	Sololá	704	Santa Lucía Utatlán 	7	Santa Rita 	4	Abril	2023-04-26T00:00:00	2024-11-08T08:00:00	6	Velocidad del viento	1.6
90158	7	Sololá	704	Santa Lucía Utatlán 	7	Santa Rita 	4	Abril	2023-04-26T00:00:00	2024-11-08T08:00:00	7	Dirección del viento	1.61
90159	7	Sololá	704	Santa Lucía Utatlán 	7	Santa Rita 	4	Abril	2023-04-26T00:00:00	2024-11-08T08:00:00	1	Precipitación	0
90160	7	Sololá	704	Santa Lucía Utatlán 	7	Santa Rita 	4	Abril	2023-04-26T00:00:00	2024-11-08T08:00:00	8	Radiación solar	94
90161	7	Sololá	704	Santa Lucía Utatlán 	7	Santa Rita 	4	Abril	2023-04-26T00:00:00	2024-11-08T09:00:00	2	Temperatura media	21.2
90162	7	Sololá	704	Santa Lucía Utatlán 	7	Santa Rita 	4	Abril	2023-04-26T00:00:00	2024-11-08T09:00:00	4	Temperatura máxima	21.2
90163	7	Sololá	704	Santa Lucía Utatlán 	7	Santa Rita 	4	Abril	2023-04-26T00:00:00	2024-11-08T09:00:00	3	Temperatura mínima	18.9
90164	7	Sololá	704	Santa Lucía Utatlán 	7	Santa Rita 	4	Abril	2023-04-26T00:00:00	2024-11-08T09:00:00	5	Humedad	81
90165	7	Sololá	704	Santa Lucía Utatlán 	7	Santa Rita 	4	Abril	2023-04-26T00:00:00	2024-11-08T09:00:00	6	Velocidad del viento	1.6
90166	7	Sololá	704	Santa Lucía Utatlán 	7	Santa Rita 	4	Abril	2023-04-26T00:00:00	2024-11-08T09:00:00	7	Dirección del viento	1.61
90167	7	Sololá	704	Santa Lucía Utatlán 	7	Santa Rita 	4	Abril	2023-04-26T00:00:00	2024-11-08T09:00:00	1	Precipitación	0
90168	7	Sololá	704	Santa Lucía Utatlán 	7	Santa Rita 	4	Abril	2023-04-26T00:00:00	2024-11-08T09:00:00	8	Radiación solar	334
90169	7	Sololá	704	Santa Lucía Utatlán 	7	Santa Rita 	4	Abril	2023-04-26T00:00:00	2024-11-08T10:00:00	2	Temperatura media	22.8
90170	7	Sololá	704	Santa Lucía Utatlán 	7	Santa Rita 	4	Abril	2023-04-26T00:00:00	2024-11-08T10:00:00	4	Temperatura máxima	22.9
90171	7	Sololá	704	Santa Lucía Utatlán 	7	Santa Rita 	4	Abril	2023-04-26T00:00:00	2024-11-08T10:00:00	3	Temperatura mínima	21.2
90172	7	Sololá	704	Santa Lucía Utatlán 	7	Santa Rita 	4	Abril	2023-04-26T00:00:00	2024-11-08T10:00:00	5	Humedad	73
90173	7	Sololá	704	Santa Lucía Utatlán 	7	Santa Rita 	4	Abril	2023-04-26T00:00:00	2024-11-08T10:00:00	6	Velocidad del viento	3.2
90174	7	Sololá	704	Santa Lucía Utatlán 	7	Santa Rita 	4	Abril	2023-04-26T00:00:00	2024-11-08T10:00:00	7	Dirección del viento	3.22
90175	7	Sololá	704	Santa Lucía Utatlán 	7	Santa Rita 	4	Abril	2023-04-26T00:00:00	2024-11-08T10:00:00	1	Precipitación	0
90176	7	Sololá	704	Santa Lucía Utatlán 	7	Santa Rita 	4	Abril	2023-04-26T00:00:00	2024-11-08T10:00:00	8	Radiación solar	588
90177	7	Sololá	704	Santa Lucía Utatlán 	7	Santa Rita 	4	Abril	2023-04-26T00:00:00	2024-11-08T11:00:00	2	Temperatura media	23.7
90178	7	Sololá	704	Santa Lucía Utatlán 	7	Santa Rita 	4	Abril	2023-04-26T00:00:00	2024-11-08T11:00:00	4	Temperatura máxima	23.8
90179	7	Sololá	704	Santa Lucía Utatlán 	7	Santa Rita 	4	Abril	2023-04-26T00:00:00	2024-11-08T11:00:00	3	Temperatura mínima	22.8
90180	7	Sololá	704	Santa Lucía Utatlán 	7	Santa Rita 	4	Abril	2023-04-26T00:00:00	2024-11-08T11:00:00	5	Humedad	71
90181	7	Sololá	704	Santa Lucía Utatlán 	7	Santa Rita 	4	Abril	2023-04-26T00:00:00	2024-11-08T11:00:00	6	Velocidad del viento	4.8
90182	7	Sololá	704	Santa Lucía Utatlán 	7	Santa Rita 	4	Abril	2023-04-26T00:00:00	2024-11-08T11:00:00	7	Dirección del viento	4.83
90183	7	Sololá	704	Santa Lucía Utatlán 	7	Santa Rita 	4	Abril	2023-04-26T00:00:00	2024-11-08T11:00:00	1	Precipitación	0
90184	7	Sololá	704	Santa Lucía Utatlán 	7	Santa Rita 	4	Abril	2023-04-26T00:00:00	2024-11-08T11:00:00	8	Radiación solar	635
90185	7	Sololá	704	Santa Lucía Utatlán 	7	Santa Rita 	4	Abril	2023-04-26T00:00:00	2024-11-08T12:00:00	2	Temperatura media	22.5
90186	7	Sololá	704	Santa Lucía Utatlán 	7	Santa Rita 	4	Abril	2023-04-26T00:00:00	2024-11-08T12:00:00	4	Temperatura máxima	23.7
90187	7	Sololá	704	Santa Lucía Utatlán 	7	Santa Rita 	4	Abril	2023-04-26T00:00:00	2024-11-08T12:00:00	3	Temperatura mínima	22.5
90188	7	Sololá	704	Santa Lucía Utatlán 	7	Santa Rita 	4	Abril	2023-04-26T00:00:00	2024-11-08T12:00:00	5	Humedad	80
90189	7	Sololá	704	Santa Lucía Utatlán 	7	Santa Rita 	4	Abril	2023-04-26T00:00:00	2024-11-08T12:00:00	6	Velocidad del viento	6.4
90190	7	Sololá	704	Santa Lucía Utatlán 	7	Santa Rita 	4	Abril	2023-04-26T00:00:00	2024-11-08T12:00:00	7	Dirección del viento	6.44
90191	7	Sololá	704	Santa Lucía Utatlán 	7	Santa Rita 	4	Abril	2023-04-26T00:00:00	2024-11-08T12:00:00	1	Precipitación	0
90192	7	Sololá	704	Santa Lucía Utatlán 	7	Santa Rita 	4	Abril	2023-04-26T00:00:00	2024-11-08T12:00:00	8	Radiación solar	231
90193	7	Sololá	704	Santa Lucía Utatlán 	7	Santa Rita 	4	Abril	2023-04-26T00:00:00	2024-11-08T13:00:00	2	Temperatura media	22.7
90194	7	Sololá	704	Santa Lucía Utatlán 	7	Santa Rita 	4	Abril	2023-04-26T00:00:00	2024-11-08T13:00:00	4	Temperatura máxima	22.7
90195	7	Sololá	704	Santa Lucía Utatlán 	7	Santa Rita 	4	Abril	2023-04-26T00:00:00	2024-11-08T13:00:00	3	Temperatura mínima	22.2
90196	7	Sololá	704	Santa Lucía Utatlán 	7	Santa Rita 	4	Abril	2023-04-26T00:00:00	2024-11-08T13:00:00	5	Humedad	80
90197	7	Sololá	704	Santa Lucía Utatlán 	7	Santa Rita 	4	Abril	2023-04-26T00:00:00	2024-11-08T13:00:00	6	Velocidad del viento	4.8
90198	7	Sololá	704	Santa Lucía Utatlán 	7	Santa Rita 	4	Abril	2023-04-26T00:00:00	2024-11-08T13:00:00	7	Dirección del viento	4.83
90199	7	Sololá	704	Santa Lucía Utatlán 	7	Santa Rita 	4	Abril	2023-04-26T00:00:00	2024-11-08T13:00:00	1	Precipitación	0
90200	7	Sololá	704	Santa Lucía Utatlán 	7	Santa Rita 	4	Abril	2023-04-26T00:00:00	2024-11-08T13:00:00	8	Radiación solar	182
90201	7	Sololá	704	Santa Lucía Utatlán 	7	Santa Rita 	4	Abril	2023-04-26T00:00:00	2024-11-08T14:00:00	2	Temperatura media	21.6
90202	7	Sololá	704	Santa Lucía Utatlán 	7	Santa Rita 	4	Abril	2023-04-26T00:00:00	2024-11-08T14:00:00	4	Temperatura máxima	22.8
90203	7	Sololá	704	Santa Lucía Utatlán 	7	Santa Rita 	4	Abril	2023-04-26T00:00:00	2024-11-08T14:00:00	3	Temperatura mínima	21.6
90204	7	Sololá	704	Santa Lucía Utatlán 	7	Santa Rita 	4	Abril	2023-04-26T00:00:00	2024-11-08T14:00:00	5	Humedad	84
90205	7	Sololá	704	Santa Lucía Utatlán 	7	Santa Rita 	4	Abril	2023-04-26T00:00:00	2024-11-08T14:00:00	6	Velocidad del viento	4.8
90206	7	Sololá	704	Santa Lucía Utatlán 	7	Santa Rita 	4	Abril	2023-04-26T00:00:00	2024-11-08T14:00:00	7	Dirección del viento	4.83
90207	7	Sololá	704	Santa Lucía Utatlán 	7	Santa Rita 	4	Abril	2023-04-26T00:00:00	2024-11-08T14:00:00	1	Precipitación	0
90208	7	Sololá	704	Santa Lucía Utatlán 	7	Santa Rita 	4	Abril	2023-04-26T00:00:00	2024-11-08T14:00:00	8	Radiación solar	127
90209	7	Sololá	704	Santa Lucía Utatlán 	7	Santa Rita 	4	Abril	2023-04-26T00:00:00	2024-11-08T15:00:00	2	Temperatura media	21.5
90210	7	Sololá	704	Santa Lucía Utatlán 	7	Santa Rita 	4	Abril	2023-04-26T00:00:00	2024-11-08T15:00:00	4	Temperatura máxima	22.5
90211	7	Sololá	704	Santa Lucía Utatlán 	7	Santa Rita 	4	Abril	2023-04-26T00:00:00	2024-11-08T15:00:00	3	Temperatura mínima	21.5
90212	7	Sololá	704	Santa Lucía Utatlán 	7	Santa Rita 	4	Abril	2023-04-26T00:00:00	2024-11-08T15:00:00	5	Humedad	87
90213	7	Sololá	704	Santa Lucía Utatlán 	7	Santa Rita 	4	Abril	2023-04-26T00:00:00	2024-11-08T15:00:00	6	Velocidad del viento	3.2
90214	7	Sololá	704	Santa Lucía Utatlán 	7	Santa Rita 	4	Abril	2023-04-26T00:00:00	2024-11-08T15:00:00	7	Dirección del viento	3.22
90215	7	Sololá	704	Santa Lucía Utatlán 	7	Santa Rita 	4	Abril	2023-04-26T00:00:00	2024-11-08T15:00:00	1	Precipitación	0.8
90216	7	Sololá	704	Santa Lucía Utatlán 	7	Santa Rita 	4	Abril	2023-04-26T00:00:00	2024-11-08T15:00:00	8	Radiación solar	161
90217	7	Sololá	704	Santa Lucía Utatlán 	7	Santa Rita 	4	Abril	2023-04-26T00:00:00	2024-11-08T16:00:00	2	Temperatura media	20.3
90218	7	Sololá	704	Santa Lucía Utatlán 	7	Santa Rita 	4	Abril	2023-04-26T00:00:00	2024-11-08T16:00:00	4	Temperatura máxima	21.4
90219	7	Sololá	704	Santa Lucía Utatlán 	7	Santa Rita 	4	Abril	2023-04-26T00:00:00	2024-11-08T16:00:00	3	Temperatura mínima	20.2
90220	7	Sololá	704	Santa Lucía Utatlán 	7	Santa Rita 	4	Abril	2023-04-26T00:00:00	2024-11-08T16:00:00	5	Humedad	92
90221	7	Sololá	704	Santa Lucía Utatlán 	7	Santa Rita 	4	Abril	2023-04-26T00:00:00	2024-11-08T16:00:00	6	Velocidad del viento	1.6
90222	7	Sololá	704	Santa Lucía Utatlán 	7	Santa Rita 	4	Abril	2023-04-26T00:00:00	2024-11-08T16:00:00	7	Dirección del viento	1.61
90223	7	Sololá	704	Santa Lucía Utatlán 	7	Santa Rita 	4	Abril	2023-04-26T00:00:00	2024-11-08T16:00:00	1	Precipitación	4.4
90224	7	Sololá	704	Santa Lucía Utatlán 	7	Santa Rita 	4	Abril	2023-04-26T00:00:00	2024-11-08T16:00:00	8	Radiación solar	67
90225	7	Sololá	704	Santa Lucía Utatlán 	7	Santa Rita 	4	Abril	2023-04-26T00:00:00	2024-11-08T17:00:00	2	Temperatura media	21.6
90226	7	Sololá	704	Santa Lucía Utatlán 	7	Santa Rita 	4	Abril	2023-04-26T00:00:00	2024-11-08T17:00:00	4	Temperatura máxima	21.6
90227	7	Sololá	704	Santa Lucía Utatlán 	7	Santa Rita 	4	Abril	2023-04-26T00:00:00	2024-11-08T17:00:00	3	Temperatura mínima	20.3
90228	7	Sololá	704	Santa Lucía Utatlán 	7	Santa Rita 	4	Abril	2023-04-26T00:00:00	2024-11-08T17:00:00	5	Humedad	88
90229	7	Sololá	704	Santa Lucía Utatlán 	7	Santa Rita 	4	Abril	2023-04-26T00:00:00	2024-11-08T17:00:00	6	Velocidad del viento	1.6
90230	7	Sololá	704	Santa Lucía Utatlán 	7	Santa Rita 	4	Abril	2023-04-26T00:00:00	2024-11-08T17:00:00	7	Dirección del viento	1.61
90231	7	Sololá	704	Santa Lucía Utatlán 	7	Santa Rita 	4	Abril	2023-04-26T00:00:00	2024-11-08T17:00:00	1	Precipitación	0.2
90232	7	Sololá	704	Santa Lucía Utatlán 	7	Santa Rita 	4	Abril	2023-04-26T00:00:00	2024-11-08T17:00:00	8	Radiación solar	237
90233	7	Sololá	704	Santa Lucía Utatlán 	7	Santa Rita 	4	Abril	2023-04-26T00:00:00	2024-11-08T18:00:00	2	Temperatura media	21.2
90234	7	Sololá	704	Santa Lucía Utatlán 	7	Santa Rita 	4	Abril	2023-04-26T00:00:00	2024-11-08T18:00:00	4	Temperatura máxima	21.7
90235	7	Sololá	704	Santa Lucía Utatlán 	7	Santa Rita 	4	Abril	2023-04-26T00:00:00	2024-11-08T18:00:00	3	Temperatura mínima	21.2
90236	7	Sololá	704	Santa Lucía Utatlán 	7	Santa Rita 	4	Abril	2023-04-26T00:00:00	2024-11-08T18:00:00	5	Humedad	90
90237	7	Sololá	704	Santa Lucía Utatlán 	7	Santa Rita 	4	Abril	2023-04-26T00:00:00	2024-11-08T18:00:00	6	Velocidad del viento	1.6
90238	7	Sololá	704	Santa Lucía Utatlán 	7	Santa Rita 	4	Abril	2023-04-26T00:00:00	2024-11-08T18:00:00	7	Dirección del viento	1.61
90239	7	Sololá	704	Santa Lucía Utatlán 	7	Santa Rita 	4	Abril	2023-04-26T00:00:00	2024-11-08T18:00:00	1	Precipitación	0
90240	7	Sololá	704	Santa Lucía Utatlán 	7	Santa Rita 	4	Abril	2023-04-26T00:00:00	2024-11-08T18:00:00	8	Radiación solar	122
90241	7	Sololá	704	Santa Lucía Utatlán 	7	Santa Rita 	4	Abril	2023-04-26T00:00:00	2024-11-08T19:00:00	2	Temperatura media	20.5
90242	7	Sololá	704	Santa Lucía Utatlán 	7	Santa Rita 	4	Abril	2023-04-26T00:00:00	2024-11-08T19:00:00	4	Temperatura máxima	21.2
90243	7	Sololá	704	Santa Lucía Utatlán 	7	Santa Rita 	4	Abril	2023-04-26T00:00:00	2024-11-08T19:00:00	3	Temperatura mínima	20.4
90244	7	Sololá	704	Santa Lucía Utatlán 	7	Santa Rita 	4	Abril	2023-04-26T00:00:00	2024-11-08T19:00:00	5	Humedad	93
90245	7	Sololá	704	Santa Lucía Utatlán 	7	Santa Rita 	4	Abril	2023-04-26T00:00:00	2024-11-08T19:00:00	6	Velocidad del viento	3.2
90246	7	Sololá	704	Santa Lucía Utatlán 	7	Santa Rita 	4	Abril	2023-04-26T00:00:00	2024-11-08T19:00:00	7	Dirección del viento	3.22
90247	7	Sololá	704	Santa Lucía Utatlán 	7	Santa Rita 	4	Abril	2023-04-26T00:00:00	2024-11-08T19:00:00	1	Precipitación	0
90248	7	Sololá	704	Santa Lucía Utatlán 	7	Santa Rita 	4	Abril	2023-04-26T00:00:00	2024-11-08T19:00:00	8	Radiación solar	0
90249	7	Sololá	704	Santa Lucía Utatlán 	7	Santa Rita 	4	Abril	2023-04-26T00:00:00	2024-11-08T20:00:00	2	Temperatura media	19.3
90250	7	Sololá	704	Santa Lucía Utatlán 	7	Santa Rita 	4	Abril	2023-04-26T00:00:00	2024-11-08T20:00:00	4	Temperatura máxima	20.5
90251	7	Sololá	704	Santa Lucía Utatlán 	7	Santa Rita 	4	Abril	2023-04-26T00:00:00	2024-11-08T20:00:00	3	Temperatura mínima	19.3
90252	7	Sololá	704	Santa Lucía Utatlán 	7	Santa Rita 	4	Abril	2023-04-26T00:00:00	2024-11-08T20:00:00	5	Humedad	92
90253	7	Sololá	704	Santa Lucía Utatlán 	7	Santa Rita 	4	Abril	2023-04-26T00:00:00	2024-11-08T20:00:00	6	Velocidad del viento	0
90254	7	Sololá	704	Santa Lucía Utatlán 	7	Santa Rita 	4	Abril	2023-04-26T00:00:00	2024-11-08T20:00:00	7	Dirección del viento	0
90255	7	Sololá	704	Santa Lucía Utatlán 	7	Santa Rita 	4	Abril	2023-04-26T00:00:00	2024-11-08T20:00:00	1	Precipitación	0
90256	7	Sololá	704	Santa Lucía Utatlán 	7	Santa Rita 	4	Abril	2023-04-26T00:00:00	2024-11-08T20:00:00	8	Radiación solar	0
90257	7	Sololá	704	Santa Lucía Utatlán 	7	Santa Rita 	4	Abril	2023-04-26T00:00:00	2024-11-08T21:00:00	2	Temperatura media	18.2
90258	7	Sololá	704	Santa Lucía Utatlán 	7	Santa Rita 	4	Abril	2023-04-26T00:00:00	2024-11-08T21:00:00	4	Temperatura máxima	19.3
90259	7	Sololá	704	Santa Lucía Utatlán 	7	Santa Rita 	4	Abril	2023-04-26T00:00:00	2024-11-08T21:00:00	3	Temperatura mínima	18.2
90260	7	Sololá	704	Santa Lucía Utatlán 	7	Santa Rita 	4	Abril	2023-04-26T00:00:00	2024-11-08T21:00:00	5	Humedad	90
90261	7	Sololá	704	Santa Lucía Utatlán 	7	Santa Rita 	4	Abril	2023-04-26T00:00:00	2024-11-08T21:00:00	6	Velocidad del viento	3.2
90262	7	Sololá	704	Santa Lucía Utatlán 	7	Santa Rita 	4	Abril	2023-04-26T00:00:00	2024-11-08T21:00:00	7	Dirección del viento	3.22
90263	7	Sololá	704	Santa Lucía Utatlán 	7	Santa Rita 	4	Abril	2023-04-26T00:00:00	2024-11-08T21:00:00	1	Precipitación	0
90264	7	Sololá	704	Santa Lucía Utatlán 	7	Santa Rita 	4	Abril	2023-04-26T00:00:00	2024-11-08T21:00:00	8	Radiación solar	0
90265	7	Sololá	704	Santa Lucía Utatlán 	7	Santa Rita 	4	Abril	2023-04-26T00:00:00	2024-11-08T22:00:00	2	Temperatura media	17.6
90266	7	Sololá	704	Santa Lucía Utatlán 	7	Santa Rita 	4	Abril	2023-04-26T00:00:00	2024-11-08T22:00:00	4	Temperatura máxima	18.2
90267	7	Sololá	704	Santa Lucía Utatlán 	7	Santa Rita 	4	Abril	2023-04-26T00:00:00	2024-11-08T22:00:00	3	Temperatura mínima	17.4
90268	7	Sololá	704	Santa Lucía Utatlán 	7	Santa Rita 	4	Abril	2023-04-26T00:00:00	2024-11-08T22:00:00	5	Humedad	91
90269	7	Sololá	704	Santa Lucía Utatlán 	7	Santa Rita 	4	Abril	2023-04-26T00:00:00	2024-11-08T22:00:00	6	Velocidad del viento	1.6
90270	7	Sololá	704	Santa Lucía Utatlán 	7	Santa Rita 	4	Abril	2023-04-26T00:00:00	2024-11-08T22:00:00	7	Dirección del viento	1.61
90271	7	Sololá	704	Santa Lucía Utatlán 	7	Santa Rita 	4	Abril	2023-04-26T00:00:00	2024-11-08T22:00:00	1	Precipitación	0
90272	7	Sololá	704	Santa Lucía Utatlán 	7	Santa Rita 	4	Abril	2023-04-26T00:00:00	2024-11-08T22:00:00	8	Radiación solar	0
90273	7	Sololá	704	Santa Lucía Utatlán 	7	Santa Rita 	4	Abril	2023-04-26T00:00:00	2024-11-08T23:00:00	2	Temperatura media	17.6
90274	7	Sololá	704	Santa Lucía Utatlán 	7	Santa Rita 	4	Abril	2023-04-26T00:00:00	2024-11-08T23:00:00	4	Temperatura máxima	18
90275	7	Sololá	704	Santa Lucía Utatlán 	7	Santa Rita 	4	Abril	2023-04-26T00:00:00	2024-11-08T23:00:00	3	Temperatura mínima	17.5
90276	7	Sololá	704	Santa Lucía Utatlán 	7	Santa Rita 	4	Abril	2023-04-26T00:00:00	2024-11-08T23:00:00	5	Humedad	86
90277	7	Sololá	704	Santa Lucía Utatlán 	7	Santa Rita 	4	Abril	2023-04-26T00:00:00	2024-11-08T23:00:00	6	Velocidad del viento	3.2
90278	7	Sololá	704	Santa Lucía Utatlán 	7	Santa Rita 	4	Abril	2023-04-26T00:00:00	2024-11-08T23:00:00	7	Dirección del viento	3.22
90279	7	Sololá	704	Santa Lucía Utatlán 	7	Santa Rita 	4	Abril	2023-04-26T00:00:00	2024-11-08T23:00:00	1	Precipitación	0
90280	7	Sololá	704	Santa Lucía Utatlán 	7	Santa Rita 	4	Abril	2023-04-26T00:00:00	2024-11-08T23:00:00	8	Radiación solar	0
90281	7	Sololá	704	Santa Lucía Utatlán 	7	Santa Rita 	4	Abril	2023-04-27T00:00:00	2024-11-08T00:00:00	2	Temperatura media	17.6
90282	7	Sololá	704	Santa Lucía Utatlán 	7	Santa Rita 	4	Abril	2023-04-27T00:00:00	2024-11-08T00:00:00	4	Temperatura máxima	18
90283	7	Sololá	704	Santa Lucía Utatlán 	7	Santa Rita 	4	Abril	2023-04-27T00:00:00	2024-11-08T00:00:00	3	Temperatura mínima	17.6
90284	7	Sololá	704	Santa Lucía Utatlán 	7	Santa Rita 	4	Abril	2023-04-27T00:00:00	2024-11-08T00:00:00	5	Humedad	85
90285	7	Sololá	704	Santa Lucía Utatlán 	7	Santa Rita 	4	Abril	2023-04-27T00:00:00	2024-11-08T00:00:00	6	Velocidad del viento	4.8
90286	7	Sololá	704	Santa Lucía Utatlán 	7	Santa Rita 	4	Abril	2023-04-27T00:00:00	2024-11-08T00:00:00	7	Dirección del viento	4.83
90287	7	Sololá	704	Santa Lucía Utatlán 	7	Santa Rita 	4	Abril	2023-04-27T00:00:00	2024-11-08T00:00:00	1	Precipitación	0
90288	7	Sololá	704	Santa Lucía Utatlán 	7	Santa Rita 	4	Abril	2023-04-27T00:00:00	2024-11-08T00:00:00	8	Radiación solar	0
90289	7	Sololá	704	Santa Lucía Utatlán 	7	Santa Rita 	4	Abril	2023-04-27T00:00:00	2024-11-08T01:00:00	2	Temperatura media	17.9
90290	7	Sololá	704	Santa Lucía Utatlán 	7	Santa Rita 	4	Abril	2023-04-27T00:00:00	2024-11-08T01:00:00	4	Temperatura máxima	18
90291	7	Sololá	704	Santa Lucía Utatlán 	7	Santa Rita 	4	Abril	2023-04-27T00:00:00	2024-11-08T01:00:00	3	Temperatura mínima	17.6
90292	7	Sololá	704	Santa Lucía Utatlán 	7	Santa Rita 	4	Abril	2023-04-27T00:00:00	2024-11-08T01:00:00	5	Humedad	83
90293	7	Sololá	704	Santa Lucía Utatlán 	7	Santa Rita 	4	Abril	2023-04-27T00:00:00	2024-11-08T01:00:00	6	Velocidad del viento	4.8
90294	7	Sololá	704	Santa Lucía Utatlán 	7	Santa Rita 	4	Abril	2023-04-27T00:00:00	2024-11-08T01:00:00	7	Dirección del viento	4.83
90295	7	Sololá	704	Santa Lucía Utatlán 	7	Santa Rita 	4	Abril	2023-04-27T00:00:00	2024-11-08T01:00:00	1	Precipitación	0
90296	7	Sololá	704	Santa Lucía Utatlán 	7	Santa Rita 	4	Abril	2023-04-27T00:00:00	2024-11-08T01:00:00	8	Radiación solar	0
90297	7	Sololá	704	Santa Lucía Utatlán 	7	Santa Rita 	4	Abril	2023-04-27T00:00:00	2024-11-08T02:00:00	2	Temperatura media	17.6
90298	7	Sololá	704	Santa Lucía Utatlán 	7	Santa Rita 	4	Abril	2023-04-27T00:00:00	2024-11-08T02:00:00	4	Temperatura máxima	17.9
90299	7	Sololá	704	Santa Lucía Utatlán 	7	Santa Rita 	4	Abril	2023-04-27T00:00:00	2024-11-08T02:00:00	3	Temperatura mínima	17.6
90300	7	Sololá	704	Santa Lucía Utatlán 	7	Santa Rita 	4	Abril	2023-04-27T00:00:00	2024-11-08T02:00:00	5	Humedad	85
90301	7	Sololá	704	Santa Lucía Utatlán 	7	Santa Rita 	4	Abril	2023-04-27T00:00:00	2024-11-08T02:00:00	6	Velocidad del viento	4.8
90302	7	Sololá	704	Santa Lucía Utatlán 	7	Santa Rita 	4	Abril	2023-04-27T00:00:00	2024-11-08T02:00:00	7	Dirección del viento	4.83
90303	7	Sololá	704	Santa Lucía Utatlán 	7	Santa Rita 	4	Abril	2023-04-27T00:00:00	2024-11-08T02:00:00	1	Precipitación	0
90304	7	Sololá	704	Santa Lucía Utatlán 	7	Santa Rita 	4	Abril	2023-04-27T00:00:00	2024-11-08T02:00:00	8	Radiación solar	0
90305	7	Sololá	704	Santa Lucía Utatlán 	7	Santa Rita 	4	Abril	2023-04-27T00:00:00	2024-11-08T03:00:00	2	Temperatura media	17.6
90306	7	Sololá	704	Santa Lucía Utatlán 	7	Santa Rita 	4	Abril	2023-04-27T00:00:00	2024-11-08T03:00:00	4	Temperatura máxima	17.7
90307	7	Sololá	704	Santa Lucía Utatlán 	7	Santa Rita 	4	Abril	2023-04-27T00:00:00	2024-11-08T03:00:00	3	Temperatura mínima	17.4
90308	7	Sololá	704	Santa Lucía Utatlán 	7	Santa Rita 	4	Abril	2023-04-27T00:00:00	2024-11-08T03:00:00	5	Humedad	88
90309	7	Sololá	704	Santa Lucía Utatlán 	7	Santa Rita 	4	Abril	2023-04-27T00:00:00	2024-11-08T03:00:00	6	Velocidad del viento	4.8
90310	7	Sololá	704	Santa Lucía Utatlán 	7	Santa Rita 	4	Abril	2023-04-27T00:00:00	2024-11-08T03:00:00	7	Dirección del viento	4.83
90311	7	Sololá	704	Santa Lucía Utatlán 	7	Santa Rita 	4	Abril	2023-04-27T00:00:00	2024-11-08T03:00:00	1	Precipitación	0
90312	7	Sololá	704	Santa Lucía Utatlán 	7	Santa Rita 	4	Abril	2023-04-27T00:00:00	2024-11-08T03:00:00	8	Radiación solar	0
90313	7	Sololá	704	Santa Lucía Utatlán 	7	Santa Rita 	4	Abril	2023-04-27T00:00:00	2024-11-08T04:00:00	2	Temperatura media	17.3
90314	7	Sololá	704	Santa Lucía Utatlán 	7	Santa Rita 	4	Abril	2023-04-27T00:00:00	2024-11-08T04:00:00	4	Temperatura máxima	17.6
90315	7	Sololá	704	Santa Lucía Utatlán 	7	Santa Rita 	4	Abril	2023-04-27T00:00:00	2024-11-08T04:00:00	3	Temperatura mínima	17.3
90316	7	Sololá	704	Santa Lucía Utatlán 	7	Santa Rita 	4	Abril	2023-04-27T00:00:00	2024-11-08T04:00:00	5	Humedad	89
90317	7	Sololá	704	Santa Lucía Utatlán 	7	Santa Rita 	4	Abril	2023-04-27T00:00:00	2024-11-08T04:00:00	6	Velocidad del viento	4.8
90318	7	Sololá	704	Santa Lucía Utatlán 	7	Santa Rita 	4	Abril	2023-04-27T00:00:00	2024-11-08T04:00:00	7	Dirección del viento	4.83
90319	7	Sololá	704	Santa Lucía Utatlán 	7	Santa Rita 	4	Abril	2023-04-27T00:00:00	2024-11-08T04:00:00	1	Precipitación	0
90320	7	Sololá	704	Santa Lucía Utatlán 	7	Santa Rita 	4	Abril	2023-04-27T00:00:00	2024-11-08T04:00:00	8	Radiación solar	0
90321	7	Sololá	704	Santa Lucía Utatlán 	7	Santa Rita 	4	Abril	2023-04-27T00:00:00	2024-11-08T05:00:00	2	Temperatura media	17.3
90322	7	Sololá	704	Santa Lucía Utatlán 	7	Santa Rita 	4	Abril	2023-04-27T00:00:00	2024-11-08T05:00:00	4	Temperatura máxima	17.4
90323	7	Sololá	704	Santa Lucía Utatlán 	7	Santa Rita 	4	Abril	2023-04-27T00:00:00	2024-11-08T05:00:00	3	Temperatura mínima	17.2
90324	7	Sololá	704	Santa Lucía Utatlán 	7	Santa Rita 	4	Abril	2023-04-27T00:00:00	2024-11-08T05:00:00	5	Humedad	87
90325	7	Sololá	704	Santa Lucía Utatlán 	7	Santa Rita 	4	Abril	2023-04-27T00:00:00	2024-11-08T05:00:00	6	Velocidad del viento	3.2
90326	7	Sololá	704	Santa Lucía Utatlán 	7	Santa Rita 	4	Abril	2023-04-27T00:00:00	2024-11-08T05:00:00	7	Dirección del viento	3.22
90327	7	Sololá	704	Santa Lucía Utatlán 	7	Santa Rita 	4	Abril	2023-04-27T00:00:00	2024-11-08T05:00:00	1	Precipitación	0
90328	7	Sololá	704	Santa Lucía Utatlán 	7	Santa Rita 	4	Abril	2023-04-27T00:00:00	2024-11-08T05:00:00	8	Radiación solar	0
90329	7	Sololá	704	Santa Lucía Utatlán 	7	Santa Rita 	4	Abril	2023-04-27T00:00:00	2024-11-08T06:00:00	2	Temperatura media	17.2
90330	7	Sololá	704	Santa Lucía Utatlán 	7	Santa Rita 	4	Abril	2023-04-27T00:00:00	2024-11-08T06:00:00	4	Temperatura máxima	17.3
90331	7	Sololá	704	Santa Lucía Utatlán 	7	Santa Rita 	4	Abril	2023-04-27T00:00:00	2024-11-08T06:00:00	3	Temperatura mínima	17.2
90332	7	Sololá	704	Santa Lucía Utatlán 	7	Santa Rita 	4	Abril	2023-04-27T00:00:00	2024-11-08T06:00:00	5	Humedad	88
90333	7	Sololá	704	Santa Lucía Utatlán 	7	Santa Rita 	4	Abril	2023-04-27T00:00:00	2024-11-08T06:00:00	6	Velocidad del viento	3.2
90334	7	Sololá	704	Santa Lucía Utatlán 	7	Santa Rita 	4	Abril	2023-04-27T00:00:00	2024-11-08T06:00:00	7	Dirección del viento	3.22
90335	7	Sololá	704	Santa Lucía Utatlán 	7	Santa Rita 	4	Abril	2023-04-27T00:00:00	2024-11-08T06:00:00	1	Precipitación	0
90336	7	Sololá	704	Santa Lucía Utatlán 	7	Santa Rita 	4	Abril	2023-04-27T00:00:00	2024-11-08T06:00:00	8	Radiación solar	0
90337	7	Sololá	704	Santa Lucía Utatlán 	7	Santa Rita 	4	Abril	2023-04-27T00:00:00	2024-11-08T07:00:00	2	Temperatura media	17.3
90338	7	Sololá	704	Santa Lucía Utatlán 	7	Santa Rita 	4	Abril	2023-04-27T00:00:00	2024-11-08T07:00:00	4	Temperatura máxima	17.6
90339	7	Sololá	704	Santa Lucía Utatlán 	7	Santa Rita 	4	Abril	2023-04-27T00:00:00	2024-11-08T07:00:00	3	Temperatura mínima	17.1
90340	7	Sololá	704	Santa Lucía Utatlán 	7	Santa Rita 	4	Abril	2023-04-27T00:00:00	2024-11-08T07:00:00	5	Humedad	85
90341	7	Sololá	704	Santa Lucía Utatlán 	7	Santa Rita 	4	Abril	2023-04-27T00:00:00	2024-11-08T07:00:00	6	Velocidad del viento	4.8
90342	7	Sololá	704	Santa Lucía Utatlán 	7	Santa Rita 	4	Abril	2023-04-27T00:00:00	2024-11-08T07:00:00	7	Dirección del viento	4.83
90343	7	Sololá	704	Santa Lucía Utatlán 	7	Santa Rita 	4	Abril	2023-04-27T00:00:00	2024-11-08T07:00:00	1	Precipitación	0
90344	7	Sololá	704	Santa Lucía Utatlán 	7	Santa Rita 	4	Abril	2023-04-27T00:00:00	2024-11-08T07:00:00	8	Radiación solar	3
90345	7	Sololá	704	Santa Lucía Utatlán 	7	Santa Rita 	4	Abril	2023-04-27T00:00:00	2024-11-08T08:00:00	2	Temperatura media	19.6
90346	7	Sololá	704	Santa Lucía Utatlán 	7	Santa Rita 	4	Abril	2023-04-27T00:00:00	2024-11-08T08:00:00	4	Temperatura máxima	19.6
90347	7	Sololá	704	Santa Lucía Utatlán 	7	Santa Rita 	4	Abril	2023-04-27T00:00:00	2024-11-08T08:00:00	3	Temperatura mínima	17.3
90348	7	Sololá	704	Santa Lucía Utatlán 	7	Santa Rita 	4	Abril	2023-04-27T00:00:00	2024-11-08T08:00:00	5	Humedad	79
90349	7	Sololá	704	Santa Lucía Utatlán 	7	Santa Rita 	4	Abril	2023-04-27T00:00:00	2024-11-08T08:00:00	6	Velocidad del viento	3.2
90350	7	Sololá	704	Santa Lucía Utatlán 	7	Santa Rita 	4	Abril	2023-04-27T00:00:00	2024-11-08T08:00:00	7	Dirección del viento	3.22
90351	7	Sololá	704	Santa Lucía Utatlán 	7	Santa Rita 	4	Abril	2023-04-27T00:00:00	2024-11-08T08:00:00	1	Precipitación	0
90352	7	Sololá	704	Santa Lucía Utatlán 	7	Santa Rita 	4	Abril	2023-04-27T00:00:00	2024-11-08T08:00:00	8	Radiación solar	116
90353	7	Sololá	704	Santa Lucía Utatlán 	7	Santa Rita 	4	Abril	2023-04-27T00:00:00	2024-11-08T09:00:00	2	Temperatura media	21.6
90354	7	Sololá	704	Santa Lucía Utatlán 	7	Santa Rita 	4	Abril	2023-04-27T00:00:00	2024-11-08T09:00:00	4	Temperatura máxima	21.6
90355	7	Sololá	704	Santa Lucía Utatlán 	7	Santa Rita 	4	Abril	2023-04-27T00:00:00	2024-11-08T09:00:00	3	Temperatura mínima	19.6
90356	7	Sololá	704	Santa Lucía Utatlán 	7	Santa Rita 	4	Abril	2023-04-27T00:00:00	2024-11-08T09:00:00	5	Humedad	73
90357	7	Sololá	704	Santa Lucía Utatlán 	7	Santa Rita 	4	Abril	2023-04-27T00:00:00	2024-11-08T09:00:00	6	Velocidad del viento	1.6
90358	7	Sololá	704	Santa Lucía Utatlán 	7	Santa Rita 	4	Abril	2023-04-27T00:00:00	2024-11-08T09:00:00	7	Dirección del viento	1.61
90359	7	Sololá	704	Santa Lucía Utatlán 	7	Santa Rita 	4	Abril	2023-04-27T00:00:00	2024-11-08T09:00:00	1	Precipitación	0
90360	7	Sololá	704	Santa Lucía Utatlán 	7	Santa Rita 	4	Abril	2023-04-27T00:00:00	2024-11-08T09:00:00	8	Radiación solar	360
90361	7	Sololá	704	Santa Lucía Utatlán 	7	Santa Rita 	4	Abril	2023-04-27T00:00:00	2024-11-08T10:00:00	2	Temperatura media	23.7
90362	7	Sololá	704	Santa Lucía Utatlán 	7	Santa Rita 	4	Abril	2023-04-27T00:00:00	2024-11-08T10:00:00	4	Temperatura máxima	23.8
90363	7	Sololá	704	Santa Lucía Utatlán 	7	Santa Rita 	4	Abril	2023-04-27T00:00:00	2024-11-08T10:00:00	3	Temperatura mínima	21.6
90364	7	Sololá	704	Santa Lucía Utatlán 	7	Santa Rita 	4	Abril	2023-04-27T00:00:00	2024-11-08T10:00:00	5	Humedad	63
90365	7	Sololá	704	Santa Lucía Utatlán 	7	Santa Rita 	4	Abril	2023-04-27T00:00:00	2024-11-08T10:00:00	6	Velocidad del viento	4.8
90366	7	Sololá	704	Santa Lucía Utatlán 	7	Santa Rita 	4	Abril	2023-04-27T00:00:00	2024-11-08T10:00:00	7	Dirección del viento	4.83
90367	7	Sololá	704	Santa Lucía Utatlán 	7	Santa Rita 	4	Abril	2023-04-27T00:00:00	2024-11-08T10:00:00	1	Precipitación	0
90368	7	Sololá	704	Santa Lucía Utatlán 	7	Santa Rita 	4	Abril	2023-04-27T00:00:00	2024-11-08T10:00:00	8	Radiación solar	617
90369	7	Sololá	704	Santa Lucía Utatlán 	7	Santa Rita 	4	Abril	2023-04-27T00:00:00	2024-11-08T11:00:00	2	Temperatura media	24.9
90370	7	Sololá	704	Santa Lucía Utatlán 	7	Santa Rita 	4	Abril	2023-04-27T00:00:00	2024-11-08T11:00:00	4	Temperatura máxima	25.1
90371	7	Sololá	704	Santa Lucía Utatlán 	7	Santa Rita 	4	Abril	2023-04-27T00:00:00	2024-11-08T11:00:00	3	Temperatura mínima	23.7
90372	7	Sololá	704	Santa Lucía Utatlán 	7	Santa Rita 	4	Abril	2023-04-27T00:00:00	2024-11-08T11:00:00	5	Humedad	61
90373	7	Sololá	704	Santa Lucía Utatlán 	7	Santa Rita 	4	Abril	2023-04-27T00:00:00	2024-11-08T11:00:00	6	Velocidad del viento	4.8
90374	7	Sololá	704	Santa Lucía Utatlán 	7	Santa Rita 	4	Abril	2023-04-27T00:00:00	2024-11-08T11:00:00	7	Dirección del viento	4.83
90375	7	Sololá	704	Santa Lucía Utatlán 	7	Santa Rita 	4	Abril	2023-04-27T00:00:00	2024-11-08T11:00:00	1	Precipitación	0
90376	7	Sololá	704	Santa Lucía Utatlán 	7	Santa Rita 	4	Abril	2023-04-27T00:00:00	2024-11-08T11:00:00	8	Radiación solar	819
90377	7	Sololá	704	Santa Lucía Utatlán 	7	Santa Rita 	4	Abril	2023-04-27T00:00:00	2024-11-08T12:00:00	2	Temperatura media	24.1
90378	7	Sololá	704	Santa Lucía Utatlán 	7	Santa Rita 	4	Abril	2023-04-27T00:00:00	2024-11-08T12:00:00	4	Temperatura máxima	25
90379	7	Sololá	704	Santa Lucía Utatlán 	7	Santa Rita 	4	Abril	2023-04-27T00:00:00	2024-11-08T12:00:00	3	Temperatura mínima	23.4
90380	7	Sololá	704	Santa Lucía Utatlán 	7	Santa Rita 	4	Abril	2023-04-27T00:00:00	2024-11-08T12:00:00	5	Humedad	66
90381	7	Sololá	704	Santa Lucía Utatlán 	7	Santa Rita 	4	Abril	2023-04-27T00:00:00	2024-11-08T12:00:00	6	Velocidad del viento	6.4
90382	7	Sololá	704	Santa Lucía Utatlán 	7	Santa Rita 	4	Abril	2023-04-27T00:00:00	2024-11-08T12:00:00	7	Dirección del viento	6.44
90383	7	Sololá	704	Santa Lucía Utatlán 	7	Santa Rita 	4	Abril	2023-04-27T00:00:00	2024-11-08T12:00:00	1	Precipitación	0
90384	7	Sololá	704	Santa Lucía Utatlán 	7	Santa Rita 	4	Abril	2023-04-27T00:00:00	2024-11-08T12:00:00	8	Radiación solar	699
90385	7	Sololá	704	Santa Lucía Utatlán 	7	Santa Rita 	4	Abril	2023-04-27T00:00:00	2024-11-08T13:00:00	2	Temperatura media	24.1
90386	7	Sololá	704	Santa Lucía Utatlán 	7	Santa Rita 	4	Abril	2023-04-27T00:00:00	2024-11-08T13:00:00	4	Temperatura máxima	24.8
90387	7	Sololá	704	Santa Lucía Utatlán 	7	Santa Rita 	4	Abril	2023-04-27T00:00:00	2024-11-08T13:00:00	3	Temperatura mínima	24.1
90388	7	Sololá	704	Santa Lucía Utatlán 	7	Santa Rita 	4	Abril	2023-04-27T00:00:00	2024-11-08T13:00:00	5	Humedad	75
90389	7	Sololá	704	Santa Lucía Utatlán 	7	Santa Rita 	4	Abril	2023-04-27T00:00:00	2024-11-08T13:00:00	6	Velocidad del viento	6.4
90390	7	Sololá	704	Santa Lucía Utatlán 	7	Santa Rita 	4	Abril	2023-04-27T00:00:00	2024-11-08T13:00:00	7	Dirección del viento	6.44
90391	7	Sololá	704	Santa Lucía Utatlán 	7	Santa Rita 	4	Abril	2023-04-27T00:00:00	2024-11-08T13:00:00	1	Precipitación	0
90392	7	Sololá	704	Santa Lucía Utatlán 	7	Santa Rita 	4	Abril	2023-04-27T00:00:00	2024-11-08T13:00:00	8	Radiación solar	516
90393	7	Sololá	704	Santa Lucía Utatlán 	7	Santa Rita 	4	Abril	2023-04-27T00:00:00	2024-11-08T14:00:00	2	Temperatura media	23.4
90394	7	Sololá	704	Santa Lucía Utatlán 	7	Santa Rita 	4	Abril	2023-04-27T00:00:00	2024-11-08T14:00:00	4	Temperatura máxima	24.5
90395	7	Sololá	704	Santa Lucía Utatlán 	7	Santa Rita 	4	Abril	2023-04-27T00:00:00	2024-11-08T14:00:00	3	Temperatura mínima	23.4
90396	7	Sololá	704	Santa Lucía Utatlán 	7	Santa Rita 	4	Abril	2023-04-27T00:00:00	2024-11-08T14:00:00	5	Humedad	80
90397	7	Sololá	704	Santa Lucía Utatlán 	7	Santa Rita 	4	Abril	2023-04-27T00:00:00	2024-11-08T14:00:00	6	Velocidad del viento	8
90398	7	Sololá	704	Santa Lucía Utatlán 	7	Santa Rita 	4	Abril	2023-04-27T00:00:00	2024-11-08T14:00:00	7	Dirección del viento	8.05
90399	7	Sololá	704	Santa Lucía Utatlán 	7	Santa Rita 	4	Abril	2023-04-27T00:00:00	2024-11-08T14:00:00	1	Precipitación	0
90400	7	Sololá	704	Santa Lucía Utatlán 	7	Santa Rita 	4	Abril	2023-04-27T00:00:00	2024-11-08T14:00:00	8	Radiación solar	418
90401	7	Sololá	704	Santa Lucía Utatlán 	7	Santa Rita 	4	Abril	2023-04-27T00:00:00	2024-11-08T15:00:00	2	Temperatura media	24.1
90402	7	Sololá	704	Santa Lucía Utatlán 	7	Santa Rita 	4	Abril	2023-04-27T00:00:00	2024-11-08T15:00:00	4	Temperatura máxima	24.1
90403	7	Sololá	704	Santa Lucía Utatlán 	7	Santa Rita 	4	Abril	2023-04-27T00:00:00	2024-11-08T15:00:00	3	Temperatura mínima	23
90404	7	Sololá	704	Santa Lucía Utatlán 	7	Santa Rita 	4	Abril	2023-04-27T00:00:00	2024-11-08T15:00:00	5	Humedad	74
90405	7	Sololá	704	Santa Lucía Utatlán 	7	Santa Rita 	4	Abril	2023-04-27T00:00:00	2024-11-08T15:00:00	6	Velocidad del viento	6.4
90406	7	Sololá	704	Santa Lucía Utatlán 	7	Santa Rita 	4	Abril	2023-04-27T00:00:00	2024-11-08T15:00:00	7	Dirección del viento	6.44
90407	7	Sololá	704	Santa Lucía Utatlán 	7	Santa Rita 	4	Abril	2023-04-27T00:00:00	2024-11-08T15:00:00	1	Precipitación	0
90408	7	Sololá	704	Santa Lucía Utatlán 	7	Santa Rita 	4	Abril	2023-04-27T00:00:00	2024-11-08T15:00:00	8	Radiación solar	248
90409	7	Sololá	704	Santa Lucía Utatlán 	7	Santa Rita 	4	Abril	2023-04-27T00:00:00	2024-11-08T16:00:00	2	Temperatura media	22.6
90410	7	Sololá	704	Santa Lucía Utatlán 	7	Santa Rita 	4	Abril	2023-04-27T00:00:00	2024-11-08T16:00:00	4	Temperatura máxima	24.9
90411	7	Sololá	704	Santa Lucía Utatlán 	7	Santa Rita 	4	Abril	2023-04-27T00:00:00	2024-11-08T16:00:00	3	Temperatura mínima	22.6
90412	7	Sololá	704	Santa Lucía Utatlán 	7	Santa Rita 	4	Abril	2023-04-27T00:00:00	2024-11-08T16:00:00	5	Humedad	81
90413	7	Sololá	704	Santa Lucía Utatlán 	7	Santa Rita 	4	Abril	2023-04-27T00:00:00	2024-11-08T16:00:00	6	Velocidad del viento	8
90414	7	Sololá	704	Santa Lucía Utatlán 	7	Santa Rita 	4	Abril	2023-04-27T00:00:00	2024-11-08T16:00:00	7	Dirección del viento	8.05
90415	7	Sololá	704	Santa Lucía Utatlán 	7	Santa Rita 	4	Abril	2023-04-27T00:00:00	2024-11-08T16:00:00	1	Precipitación	0
90416	7	Sololá	704	Santa Lucía Utatlán 	7	Santa Rita 	4	Abril	2023-04-27T00:00:00	2024-11-08T16:00:00	8	Radiación solar	389
90417	7	Sololá	704	Santa Lucía Utatlán 	7	Santa Rita 	4	Abril	2023-04-27T00:00:00	2024-11-08T17:00:00	2	Temperatura media	21.8
90418	7	Sololá	704	Santa Lucía Utatlán 	7	Santa Rita 	4	Abril	2023-04-27T00:00:00	2024-11-08T17:00:00	4	Temperatura máxima	22.6
90419	7	Sololá	704	Santa Lucía Utatlán 	7	Santa Rita 	4	Abril	2023-04-27T00:00:00	2024-11-08T17:00:00	3	Temperatura mínima	21.6
90420	7	Sololá	704	Santa Lucía Utatlán 	7	Santa Rita 	4	Abril	2023-04-27T00:00:00	2024-11-08T17:00:00	5	Humedad	85
90421	7	Sololá	704	Santa Lucía Utatlán 	7	Santa Rita 	4	Abril	2023-04-27T00:00:00	2024-11-08T17:00:00	6	Velocidad del viento	4.8
90422	7	Sololá	704	Santa Lucía Utatlán 	7	Santa Rita 	4	Abril	2023-04-27T00:00:00	2024-11-08T17:00:00	7	Dirección del viento	4.83
90423	7	Sololá	704	Santa Lucía Utatlán 	7	Santa Rita 	4	Abril	2023-04-27T00:00:00	2024-11-08T17:00:00	1	Precipitación	0.2
90424	7	Sololá	704	Santa Lucía Utatlán 	7	Santa Rita 	4	Abril	2023-04-27T00:00:00	2024-11-08T17:00:00	8	Radiación solar	72
90425	7	Sololá	704	Santa Lucía Utatlán 	7	Santa Rita 	4	Abril	2023-04-27T00:00:00	2024-11-08T18:00:00	2	Temperatura media	21.3
90426	7	Sololá	704	Santa Lucía Utatlán 	7	Santa Rita 	4	Abril	2023-04-27T00:00:00	2024-11-08T18:00:00	4	Temperatura máxima	22.1
90427	7	Sololá	704	Santa Lucía Utatlán 	7	Santa Rita 	4	Abril	2023-04-27T00:00:00	2024-11-08T18:00:00	3	Temperatura mínima	21.3
90428	7	Sololá	704	Santa Lucía Utatlán 	7	Santa Rita 	4	Abril	2023-04-27T00:00:00	2024-11-08T18:00:00	5	Humedad	89
90429	7	Sololá	704	Santa Lucía Utatlán 	7	Santa Rita 	4	Abril	2023-04-27T00:00:00	2024-11-08T18:00:00	6	Velocidad del viento	3.2
90430	7	Sololá	704	Santa Lucía Utatlán 	7	Santa Rita 	4	Abril	2023-04-27T00:00:00	2024-11-08T18:00:00	7	Dirección del viento	3.22
90431	7	Sololá	704	Santa Lucía Utatlán 	7	Santa Rita 	4	Abril	2023-04-27T00:00:00	2024-11-08T18:00:00	1	Precipitación	0
90432	7	Sololá	704	Santa Lucía Utatlán 	7	Santa Rita 	4	Abril	2023-04-27T00:00:00	2024-11-08T18:00:00	8	Radiación solar	83
90433	7	Sololá	704	Santa Lucía Utatlán 	7	Santa Rita 	4	Abril	2023-04-27T00:00:00	2024-11-08T19:00:00	2	Temperatura media	20.7
90434	7	Sololá	704	Santa Lucía Utatlán 	7	Santa Rita 	4	Abril	2023-04-27T00:00:00	2024-11-08T19:00:00	4	Temperatura máxima	21.3
90435	7	Sololá	704	Santa Lucía Utatlán 	7	Santa Rita 	4	Abril	2023-04-27T00:00:00	2024-11-08T19:00:00	3	Temperatura mínima	20.6
90436	7	Sololá	704	Santa Lucía Utatlán 	7	Santa Rita 	4	Abril	2023-04-27T00:00:00	2024-11-08T19:00:00	5	Humedad	91
90437	7	Sololá	704	Santa Lucía Utatlán 	7	Santa Rita 	4	Abril	2023-04-27T00:00:00	2024-11-08T19:00:00	6	Velocidad del viento	1.6
90438	7	Sololá	704	Santa Lucía Utatlán 	7	Santa Rita 	4	Abril	2023-04-27T00:00:00	2024-11-08T19:00:00	7	Dirección del viento	1.61
90439	7	Sololá	704	Santa Lucía Utatlán 	7	Santa Rita 	4	Abril	2023-04-27T00:00:00	2024-11-08T19:00:00	1	Precipitación	0
90440	7	Sololá	704	Santa Lucía Utatlán 	7	Santa Rita 	4	Abril	2023-04-27T00:00:00	2024-11-08T19:00:00	8	Radiación solar	0
90441	7	Sololá	704	Santa Lucía Utatlán 	7	Santa Rita 	4	Abril	2023-04-27T00:00:00	2024-11-08T20:00:00	2	Temperatura media	20.3
90442	7	Sololá	704	Santa Lucía Utatlán 	7	Santa Rita 	4	Abril	2023-04-27T00:00:00	2024-11-08T20:00:00	4	Temperatura máxima	20.7
90443	7	Sololá	704	Santa Lucía Utatlán 	7	Santa Rita 	4	Abril	2023-04-27T00:00:00	2024-11-08T20:00:00	3	Temperatura mínima	20.3
90444	7	Sololá	704	Santa Lucía Utatlán 	7	Santa Rita 	4	Abril	2023-04-27T00:00:00	2024-11-08T20:00:00	5	Humedad	91
90445	7	Sololá	704	Santa Lucía Utatlán 	7	Santa Rita 	4	Abril	2023-04-27T00:00:00	2024-11-08T20:00:00	6	Velocidad del viento	3.2
90446	7	Sololá	704	Santa Lucía Utatlán 	7	Santa Rita 	4	Abril	2023-04-27T00:00:00	2024-11-08T20:00:00	7	Dirección del viento	3.22
90447	7	Sololá	704	Santa Lucía Utatlán 	7	Santa Rita 	4	Abril	2023-04-27T00:00:00	2024-11-08T20:00:00	1	Precipitación	0
90448	7	Sololá	704	Santa Lucía Utatlán 	7	Santa Rita 	4	Abril	2023-04-27T00:00:00	2024-11-08T20:00:00	8	Radiación solar	0
90449	7	Sololá	704	Santa Lucía Utatlán 	7	Santa Rita 	4	Abril	2023-04-27T00:00:00	2024-11-08T21:00:00	2	Temperatura media	20.1
90450	7	Sololá	704	Santa Lucía Utatlán 	7	Santa Rita 	4	Abril	2023-04-27T00:00:00	2024-11-08T21:00:00	4	Temperatura máxima	20.3
90451	7	Sololá	704	Santa Lucía Utatlán 	7	Santa Rita 	4	Abril	2023-04-27T00:00:00	2024-11-08T21:00:00	3	Temperatura mínima	20.1
90452	7	Sololá	704	Santa Lucía Utatlán 	7	Santa Rita 	4	Abril	2023-04-27T00:00:00	2024-11-08T21:00:00	5	Humedad	91
90453	7	Sololá	704	Santa Lucía Utatlán 	7	Santa Rita 	4	Abril	2023-04-27T00:00:00	2024-11-08T21:00:00	6	Velocidad del viento	1.6
90454	7	Sololá	704	Santa Lucía Utatlán 	7	Santa Rita 	4	Abril	2023-04-27T00:00:00	2024-11-08T21:00:00	7	Dirección del viento	1.61
90455	7	Sololá	704	Santa Lucía Utatlán 	7	Santa Rita 	4	Abril	2023-04-27T00:00:00	2024-11-08T21:00:00	1	Precipitación	0
90456	7	Sololá	704	Santa Lucía Utatlán 	7	Santa Rita 	4	Abril	2023-04-27T00:00:00	2024-11-08T21:00:00	8	Radiación solar	0
90457	7	Sololá	704	Santa Lucía Utatlán 	7	Santa Rita 	4	Abril	2023-04-27T00:00:00	2024-11-08T22:00:00	2	Temperatura media	19.9
90458	7	Sololá	704	Santa Lucía Utatlán 	7	Santa Rita 	4	Abril	2023-04-27T00:00:00	2024-11-08T22:00:00	4	Temperatura máxima	20.3
90459	7	Sololá	704	Santa Lucía Utatlán 	7	Santa Rita 	4	Abril	2023-04-27T00:00:00	2024-11-08T22:00:00	3	Temperatura mínima	19.9
90460	7	Sololá	704	Santa Lucía Utatlán 	7	Santa Rita 	4	Abril	2023-04-27T00:00:00	2024-11-08T22:00:00	5	Humedad	92
90461	7	Sololá	704	Santa Lucía Utatlán 	7	Santa Rita 	4	Abril	2023-04-27T00:00:00	2024-11-08T22:00:00	6	Velocidad del viento	0
90462	7	Sololá	704	Santa Lucía Utatlán 	7	Santa Rita 	4	Abril	2023-04-27T00:00:00	2024-11-08T22:00:00	7	Dirección del viento	0
90463	7	Sololá	704	Santa Lucía Utatlán 	7	Santa Rita 	4	Abril	2023-04-27T00:00:00	2024-11-08T22:00:00	1	Precipitación	0
90464	7	Sololá	704	Santa Lucía Utatlán 	7	Santa Rita 	4	Abril	2023-04-27T00:00:00	2024-11-08T22:00:00	8	Radiación solar	0
90465	7	Sololá	704	Santa Lucía Utatlán 	7	Santa Rita 	4	Abril	2023-04-27T00:00:00	2024-11-08T23:00:00	2	Temperatura media	19.4
90466	7	Sololá	704	Santa Lucía Utatlán 	7	Santa Rita 	4	Abril	2023-04-27T00:00:00	2024-11-08T23:00:00	4	Temperatura máxima	19.9
90467	7	Sololá	704	Santa Lucía Utatlán 	7	Santa Rita 	4	Abril	2023-04-27T00:00:00	2024-11-08T23:00:00	3	Temperatura mínima	19.1
90468	7	Sololá	704	Santa Lucía Utatlán 	7	Santa Rita 	4	Abril	2023-04-27T00:00:00	2024-11-08T23:00:00	5	Humedad	94
90469	7	Sololá	704	Santa Lucía Utatlán 	7	Santa Rita 	4	Abril	2023-04-27T00:00:00	2024-11-08T23:00:00	6	Velocidad del viento	1.6
90470	7	Sololá	704	Santa Lucía Utatlán 	7	Santa Rita 	4	Abril	2023-04-27T00:00:00	2024-11-08T23:00:00	7	Dirección del viento	1.61
90471	7	Sololá	704	Santa Lucía Utatlán 	7	Santa Rita 	4	Abril	2023-04-27T00:00:00	2024-11-08T23:00:00	1	Precipitación	0
90472	7	Sololá	704	Santa Lucía Utatlán 	7	Santa Rita 	4	Abril	2023-04-27T00:00:00	2024-11-08T23:00:00	8	Radiación solar	0
90473	7	Sololá	704	Santa Lucía Utatlán 	7	Santa Rita 	4	Abril	2023-04-28T00:00:00	2024-11-08T00:00:00	2	Temperatura media	18.5
90474	7	Sololá	704	Santa Lucía Utatlán 	7	Santa Rita 	4	Abril	2023-04-28T00:00:00	2024-11-08T00:00:00	4	Temperatura máxima	19.5
90475	7	Sololá	704	Santa Lucía Utatlán 	7	Santa Rita 	4	Abril	2023-04-28T00:00:00	2024-11-08T00:00:00	3	Temperatura mínima	18.5
90476	7	Sololá	704	Santa Lucía Utatlán 	7	Santa Rita 	4	Abril	2023-04-28T00:00:00	2024-11-08T00:00:00	5	Humedad	92
90477	7	Sololá	704	Santa Lucía Utatlán 	7	Santa Rita 	4	Abril	2023-04-28T00:00:00	2024-11-08T00:00:00	6	Velocidad del viento	0
90478	7	Sololá	704	Santa Lucía Utatlán 	7	Santa Rita 	4	Abril	2023-04-28T00:00:00	2024-11-08T00:00:00	7	Dirección del viento	0
90479	7	Sololá	704	Santa Lucía Utatlán 	7	Santa Rita 	4	Abril	2023-04-28T00:00:00	2024-11-08T00:00:00	1	Precipitación	0
90480	7	Sololá	704	Santa Lucía Utatlán 	7	Santa Rita 	4	Abril	2023-04-28T00:00:00	2024-11-08T00:00:00	8	Radiación solar	0
90481	7	Sololá	704	Santa Lucía Utatlán 	7	Santa Rita 	4	Abril	2023-04-28T00:00:00	2024-11-08T01:00:00	2	Temperatura media	17.8
90482	7	Sololá	704	Santa Lucía Utatlán 	7	Santa Rita 	4	Abril	2023-04-28T00:00:00	2024-11-08T01:00:00	4	Temperatura máxima	18.5
90483	7	Sololá	704	Santa Lucía Utatlán 	7	Santa Rita 	4	Abril	2023-04-28T00:00:00	2024-11-08T01:00:00	3	Temperatura mínima	17.8
90484	7	Sololá	704	Santa Lucía Utatlán 	7	Santa Rita 	4	Abril	2023-04-28T00:00:00	2024-11-08T01:00:00	5	Humedad	93
90485	7	Sololá	704	Santa Lucía Utatlán 	7	Santa Rita 	4	Abril	2023-04-28T00:00:00	2024-11-08T01:00:00	6	Velocidad del viento	1.6
90486	7	Sololá	704	Santa Lucía Utatlán 	7	Santa Rita 	4	Abril	2023-04-28T00:00:00	2024-11-08T01:00:00	7	Dirección del viento	1.61
90487	7	Sololá	704	Santa Lucía Utatlán 	7	Santa Rita 	4	Abril	2023-04-28T00:00:00	2024-11-08T01:00:00	1	Precipitación	0
90488	7	Sololá	704	Santa Lucía Utatlán 	7	Santa Rita 	4	Abril	2023-04-28T00:00:00	2024-11-08T01:00:00	8	Radiación solar	0
90489	7	Sololá	704	Santa Lucía Utatlán 	7	Santa Rita 	4	Abril	2023-04-28T00:00:00	2024-11-08T02:00:00	2	Temperatura media	17.6
90490	7	Sololá	704	Santa Lucía Utatlán 	7	Santa Rita 	4	Abril	2023-04-28T00:00:00	2024-11-08T02:00:00	4	Temperatura máxima	17.8
90491	7	Sololá	704	Santa Lucía Utatlán 	7	Santa Rita 	4	Abril	2023-04-28T00:00:00	2024-11-08T02:00:00	3	Temperatura mínima	17.3
90492	7	Sololá	704	Santa Lucía Utatlán 	7	Santa Rita 	4	Abril	2023-04-28T00:00:00	2024-11-08T02:00:00	5	Humedad	92
90493	7	Sololá	704	Santa Lucía Utatlán 	7	Santa Rita 	4	Abril	2023-04-28T00:00:00	2024-11-08T02:00:00	6	Velocidad del viento	1.6
90494	7	Sololá	704	Santa Lucía Utatlán 	7	Santa Rita 	4	Abril	2023-04-28T00:00:00	2024-11-08T02:00:00	7	Dirección del viento	1.61
90495	7	Sololá	704	Santa Lucía Utatlán 	7	Santa Rita 	4	Abril	2023-04-28T00:00:00	2024-11-08T02:00:00	1	Precipitación	0
90496	7	Sololá	704	Santa Lucía Utatlán 	7	Santa Rita 	4	Abril	2023-04-28T00:00:00	2024-11-08T02:00:00	8	Radiación solar	0
90497	7	Sololá	704	Santa Lucía Utatlán 	7	Santa Rita 	4	Abril	2023-04-28T00:00:00	2024-11-08T03:00:00	2	Temperatura media	17.7
90498	7	Sololá	704	Santa Lucía Utatlán 	7	Santa Rita 	4	Abril	2023-04-28T00:00:00	2024-11-08T03:00:00	4	Temperatura máxima	17.7
90499	7	Sololá	704	Santa Lucía Utatlán 	7	Santa Rita 	4	Abril	2023-04-28T00:00:00	2024-11-08T03:00:00	3	Temperatura mínima	17.5
90500	7	Sololá	704	Santa Lucía Utatlán 	7	Santa Rita 	4	Abril	2023-04-28T00:00:00	2024-11-08T03:00:00	5	Humedad	90
90501	7	Sololá	704	Santa Lucía Utatlán 	7	Santa Rita 	4	Abril	2023-04-28T00:00:00	2024-11-08T03:00:00	6	Velocidad del viento	3.2
90502	7	Sololá	704	Santa Lucía Utatlán 	7	Santa Rita 	4	Abril	2023-04-28T00:00:00	2024-11-08T03:00:00	7	Dirección del viento	3.22
90503	7	Sololá	704	Santa Lucía Utatlán 	7	Santa Rita 	4	Abril	2023-04-28T00:00:00	2024-11-08T03:00:00	1	Precipitación	0
90504	7	Sololá	704	Santa Lucía Utatlán 	7	Santa Rita 	4	Abril	2023-04-28T00:00:00	2024-11-08T03:00:00	8	Radiación solar	0
90505	7	Sololá	704	Santa Lucía Utatlán 	7	Santa Rita 	4	Abril	2023-04-28T00:00:00	2024-11-08T04:00:00	2	Temperatura media	17.4
90506	7	Sololá	704	Santa Lucía Utatlán 	7	Santa Rita 	4	Abril	2023-04-28T00:00:00	2024-11-08T04:00:00	4	Temperatura máxima	17.7
90507	7	Sololá	704	Santa Lucía Utatlán 	7	Santa Rita 	4	Abril	2023-04-28T00:00:00	2024-11-08T04:00:00	3	Temperatura mínima	17.4
90508	7	Sololá	704	Santa Lucía Utatlán 	7	Santa Rita 	4	Abril	2023-04-28T00:00:00	2024-11-08T04:00:00	5	Humedad	89
90509	7	Sololá	704	Santa Lucía Utatlán 	7	Santa Rita 	4	Abril	2023-04-28T00:00:00	2024-11-08T04:00:00	6	Velocidad del viento	3.2
90510	7	Sololá	704	Santa Lucía Utatlán 	7	Santa Rita 	4	Abril	2023-04-28T00:00:00	2024-11-08T04:00:00	7	Dirección del viento	3.22
90511	7	Sololá	704	Santa Lucía Utatlán 	7	Santa Rita 	4	Abril	2023-04-28T00:00:00	2024-11-08T04:00:00	1	Precipitación	0
90512	7	Sololá	704	Santa Lucía Utatlán 	7	Santa Rita 	4	Abril	2023-04-28T00:00:00	2024-11-08T04:00:00	8	Radiación solar	0
90513	7	Sololá	704	Santa Lucía Utatlán 	7	Santa Rita 	4	Abril	2023-04-28T00:00:00	2024-11-08T05:00:00	2	Temperatura media	17.4
90514	7	Sololá	704	Santa Lucía Utatlán 	7	Santa Rita 	4	Abril	2023-04-28T00:00:00	2024-11-08T05:00:00	4	Temperatura máxima	17.6
90515	7	Sololá	704	Santa Lucía Utatlán 	7	Santa Rita 	4	Abril	2023-04-28T00:00:00	2024-11-08T05:00:00	3	Temperatura mínima	17.3
90516	7	Sololá	704	Santa Lucía Utatlán 	7	Santa Rita 	4	Abril	2023-04-28T00:00:00	2024-11-08T05:00:00	5	Humedad	88
90517	7	Sololá	704	Santa Lucía Utatlán 	7	Santa Rita 	4	Abril	2023-04-28T00:00:00	2024-11-08T05:00:00	6	Velocidad del viento	3.2
90518	7	Sololá	704	Santa Lucía Utatlán 	7	Santa Rita 	4	Abril	2023-04-28T00:00:00	2024-11-08T05:00:00	7	Dirección del viento	3.22
90519	7	Sololá	704	Santa Lucía Utatlán 	7	Santa Rita 	4	Abril	2023-04-28T00:00:00	2024-11-08T05:00:00	1	Precipitación	0
90520	7	Sololá	704	Santa Lucía Utatlán 	7	Santa Rita 	4	Abril	2023-04-28T00:00:00	2024-11-08T05:00:00	8	Radiación solar	0
90521	7	Sololá	704	Santa Lucía Utatlán 	7	Santa Rita 	4	Abril	2023-04-28T00:00:00	2024-11-08T06:00:00	2	Temperatura media	17.6
90522	7	Sololá	704	Santa Lucía Utatlán 	7	Santa Rita 	4	Abril	2023-04-28T00:00:00	2024-11-08T06:00:00	4	Temperatura máxima	17.7
90523	7	Sololá	704	Santa Lucía Utatlán 	7	Santa Rita 	4	Abril	2023-04-28T00:00:00	2024-11-08T06:00:00	3	Temperatura mínima	17.4
90524	7	Sololá	704	Santa Lucía Utatlán 	7	Santa Rita 	4	Abril	2023-04-28T00:00:00	2024-11-08T06:00:00	5	Humedad	88
90525	7	Sololá	704	Santa Lucía Utatlán 	7	Santa Rita 	4	Abril	2023-04-28T00:00:00	2024-11-08T06:00:00	6	Velocidad del viento	3.2
90526	7	Sololá	704	Santa Lucía Utatlán 	7	Santa Rita 	4	Abril	2023-04-28T00:00:00	2024-11-08T06:00:00	7	Dirección del viento	3.22
90527	7	Sololá	704	Santa Lucía Utatlán 	7	Santa Rita 	4	Abril	2023-04-28T00:00:00	2024-11-08T06:00:00	1	Precipitación	0
90528	7	Sololá	704	Santa Lucía Utatlán 	7	Santa Rita 	4	Abril	2023-04-28T00:00:00	2024-11-08T06:00:00	8	Radiación solar	0
90529	7	Sololá	704	Santa Lucía Utatlán 	7	Santa Rita 	4	Abril	2023-04-28T00:00:00	2024-11-08T07:00:00	2	Temperatura media	17.3
90530	7	Sololá	704	Santa Lucía Utatlán 	7	Santa Rita 	4	Abril	2023-04-28T00:00:00	2024-11-08T07:00:00	4	Temperatura máxima	17.7
90531	7	Sololá	704	Santa Lucía Utatlán 	7	Santa Rita 	4	Abril	2023-04-28T00:00:00	2024-11-08T07:00:00	3	Temperatura mínima	17.3
90532	7	Sololá	704	Santa Lucía Utatlán 	7	Santa Rita 	4	Abril	2023-04-28T00:00:00	2024-11-08T07:00:00	5	Humedad	88
90533	7	Sololá	704	Santa Lucía Utatlán 	7	Santa Rita 	4	Abril	2023-04-28T00:00:00	2024-11-08T07:00:00	6	Velocidad del viento	1.6
90534	7	Sololá	704	Santa Lucía Utatlán 	7	Santa Rita 	4	Abril	2023-04-28T00:00:00	2024-11-08T07:00:00	7	Dirección del viento	1.61
90535	7	Sololá	704	Santa Lucía Utatlán 	7	Santa Rita 	4	Abril	2023-04-28T00:00:00	2024-11-08T07:00:00	1	Precipitación	0
90536	7	Sololá	704	Santa Lucía Utatlán 	7	Santa Rita 	4	Abril	2023-04-28T00:00:00	2024-11-08T07:00:00	8	Radiación solar	4
90537	7	Sololá	704	Santa Lucía Utatlán 	7	Santa Rita 	4	Abril	2023-04-28T00:00:00	2024-11-08T08:00:00	2	Temperatura media	19.6
90538	7	Sololá	704	Santa Lucía Utatlán 	7	Santa Rita 	4	Abril	2023-04-28T00:00:00	2024-11-08T08:00:00	4	Temperatura máxima	19.6
90539	7	Sololá	704	Santa Lucía Utatlán 	7	Santa Rita 	4	Abril	2023-04-28T00:00:00	2024-11-08T08:00:00	3	Temperatura mínima	17.3
90540	7	Sololá	704	Santa Lucía Utatlán 	7	Santa Rita 	4	Abril	2023-04-28T00:00:00	2024-11-08T08:00:00	5	Humedad	86
90541	7	Sololá	704	Santa Lucía Utatlán 	7	Santa Rita 	4	Abril	2023-04-28T00:00:00	2024-11-08T08:00:00	6	Velocidad del viento	1.6
90542	7	Sololá	704	Santa Lucía Utatlán 	7	Santa Rita 	4	Abril	2023-04-28T00:00:00	2024-11-08T08:00:00	7	Dirección del viento	1.61
90543	7	Sololá	704	Santa Lucía Utatlán 	7	Santa Rita 	4	Abril	2023-04-28T00:00:00	2024-11-08T08:00:00	1	Precipitación	0
90544	7	Sololá	704	Santa Lucía Utatlán 	7	Santa Rita 	4	Abril	2023-04-28T00:00:00	2024-11-08T08:00:00	8	Radiación solar	105
90545	7	Sololá	704	Santa Lucía Utatlán 	7	Santa Rita 	4	Abril	2023-04-28T00:00:00	2024-11-08T09:00:00	2	Temperatura media	23.4
90546	7	Sololá	704	Santa Lucía Utatlán 	7	Santa Rita 	4	Abril	2023-04-28T00:00:00	2024-11-08T09:00:00	4	Temperatura máxima	23.4
90547	7	Sololá	704	Santa Lucía Utatlán 	7	Santa Rita 	4	Abril	2023-04-28T00:00:00	2024-11-08T09:00:00	3	Temperatura mínima	19.6
90548	7	Sololá	704	Santa Lucía Utatlán 	7	Santa Rita 	4	Abril	2023-04-28T00:00:00	2024-11-08T09:00:00	5	Humedad	69
90549	7	Sololá	704	Santa Lucía Utatlán 	7	Santa Rita 	4	Abril	2023-04-28T00:00:00	2024-11-08T09:00:00	6	Velocidad del viento	0
90550	7	Sololá	704	Santa Lucía Utatlán 	7	Santa Rita 	4	Abril	2023-04-28T00:00:00	2024-11-08T09:00:00	7	Dirección del viento	0
90551	7	Sololá	704	Santa Lucía Utatlán 	7	Santa Rita 	4	Abril	2023-04-28T00:00:00	2024-11-08T09:00:00	1	Precipitación	0
90552	7	Sololá	704	Santa Lucía Utatlán 	7	Santa Rita 	4	Abril	2023-04-28T00:00:00	2024-11-08T09:00:00	8	Radiación solar	359
90553	7	Sololá	704	Santa Lucía Utatlán 	7	Santa Rita 	4	Abril	2023-04-28T00:00:00	2024-11-08T10:00:00	2	Temperatura media	24.8
90554	7	Sololá	704	Santa Lucía Utatlán 	7	Santa Rita 	4	Abril	2023-04-28T00:00:00	2024-11-08T10:00:00	4	Temperatura máxima	24.8
90555	7	Sololá	704	Santa Lucía Utatlán 	7	Santa Rita 	4	Abril	2023-04-28T00:00:00	2024-11-08T10:00:00	3	Temperatura mínima	23.4
90556	7	Sololá	704	Santa Lucía Utatlán 	7	Santa Rita 	4	Abril	2023-04-28T00:00:00	2024-11-08T10:00:00	5	Humedad	68
90557	7	Sololá	704	Santa Lucía Utatlán 	7	Santa Rita 	4	Abril	2023-04-28T00:00:00	2024-11-08T10:00:00	6	Velocidad del viento	3.2
90558	7	Sololá	704	Santa Lucía Utatlán 	7	Santa Rita 	4	Abril	2023-04-28T00:00:00	2024-11-08T10:00:00	7	Dirección del viento	3.22
90559	7	Sololá	704	Santa Lucía Utatlán 	7	Santa Rita 	4	Abril	2023-04-28T00:00:00	2024-11-08T10:00:00	1	Precipitación	0
90560	7	Sololá	704	Santa Lucía Utatlán 	7	Santa Rita 	4	Abril	2023-04-28T00:00:00	2024-11-08T10:00:00	8	Radiación solar	591
90561	7	Sololá	704	Santa Lucía Utatlán 	7	Santa Rita 	4	Abril	2023-04-28T00:00:00	2024-11-08T11:00:00	2	Temperatura media	24.7
90562	7	Sololá	704	Santa Lucía Utatlán 	7	Santa Rita 	4	Abril	2023-04-28T00:00:00	2024-11-08T11:00:00	4	Temperatura máxima	25.7
90563	7	Sololá	704	Santa Lucía Utatlán 	7	Santa Rita 	4	Abril	2023-04-28T00:00:00	2024-11-08T11:00:00	3	Temperatura mínima	24.6
90564	7	Sololá	704	Santa Lucía Utatlán 	7	Santa Rita 	4	Abril	2023-04-28T00:00:00	2024-11-08T11:00:00	5	Humedad	67
90565	7	Sololá	704	Santa Lucía Utatlán 	7	Santa Rita 	4	Abril	2023-04-28T00:00:00	2024-11-08T11:00:00	6	Velocidad del viento	6.4
90566	7	Sololá	704	Santa Lucía Utatlán 	7	Santa Rita 	4	Abril	2023-04-28T00:00:00	2024-11-08T11:00:00	7	Dirección del viento	6.44
90567	7	Sololá	704	Santa Lucía Utatlán 	7	Santa Rita 	4	Abril	2023-04-28T00:00:00	2024-11-08T11:00:00	1	Precipitación	0
90568	7	Sololá	704	Santa Lucía Utatlán 	7	Santa Rita 	4	Abril	2023-04-28T00:00:00	2024-11-08T11:00:00	8	Radiación solar	643
90569	7	Sololá	704	Santa Lucía Utatlán 	7	Santa Rita 	4	Abril	2023-04-28T00:00:00	2024-11-08T12:00:00	2	Temperatura media	25.8
90570	7	Sololá	704	Santa Lucía Utatlán 	7	Santa Rita 	4	Abril	2023-04-28T00:00:00	2024-11-08T12:00:00	4	Temperatura máxima	26.4
90571	7	Sololá	704	Santa Lucía Utatlán 	7	Santa Rita 	4	Abril	2023-04-28T00:00:00	2024-11-08T12:00:00	3	Temperatura mínima	24.6
90572	7	Sololá	704	Santa Lucía Utatlán 	7	Santa Rita 	4	Abril	2023-04-28T00:00:00	2024-11-08T12:00:00	5	Humedad	63
90573	7	Sololá	704	Santa Lucía Utatlán 	7	Santa Rita 	4	Abril	2023-04-28T00:00:00	2024-11-08T12:00:00	6	Velocidad del viento	8
90574	7	Sololá	704	Santa Lucía Utatlán 	7	Santa Rita 	4	Abril	2023-04-28T00:00:00	2024-11-08T12:00:00	7	Dirección del viento	8.05
90575	7	Sololá	704	Santa Lucía Utatlán 	7	Santa Rita 	4	Abril	2023-04-28T00:00:00	2024-11-08T12:00:00	1	Precipitación	0
90576	7	Sololá	704	Santa Lucía Utatlán 	7	Santa Rita 	4	Abril	2023-04-28T00:00:00	2024-11-08T12:00:00	8	Radiación solar	669
90577	7	Sololá	704	Santa Lucía Utatlán 	7	Santa Rita 	4	Abril	2023-04-28T00:00:00	2024-11-08T13:00:00	2	Temperatura media	25.6
90578	7	Sololá	704	Santa Lucía Utatlán 	7	Santa Rita 	4	Abril	2023-04-28T00:00:00	2024-11-08T13:00:00	4	Temperatura máxima	26.5
90579	7	Sololá	704	Santa Lucía Utatlán 	7	Santa Rita 	4	Abril	2023-04-28T00:00:00	2024-11-08T13:00:00	3	Temperatura mínima	25.5
90580	7	Sololá	704	Santa Lucía Utatlán 	7	Santa Rita 	4	Abril	2023-04-28T00:00:00	2024-11-08T13:00:00	5	Humedad	68
90581	7	Sololá	704	Santa Lucía Utatlán 	7	Santa Rita 	4	Abril	2023-04-28T00:00:00	2024-11-08T13:00:00	6	Velocidad del viento	8
90582	7	Sololá	704	Santa Lucía Utatlán 	7	Santa Rita 	4	Abril	2023-04-28T00:00:00	2024-11-08T13:00:00	7	Dirección del viento	8.05
90583	7	Sololá	704	Santa Lucía Utatlán 	7	Santa Rita 	4	Abril	2023-04-28T00:00:00	2024-11-08T13:00:00	1	Precipitación	0
90584	7	Sololá	704	Santa Lucía Utatlán 	7	Santa Rita 	4	Abril	2023-04-28T00:00:00	2024-11-08T13:00:00	8	Radiación solar	717
90585	7	Sololá	704	Santa Lucía Utatlán 	7	Santa Rita 	4	Abril	2023-04-28T00:00:00	2024-11-08T14:00:00	2	Temperatura media	24.3
90586	7	Sololá	704	Santa Lucía Utatlán 	7	Santa Rita 	4	Abril	2023-04-28T00:00:00	2024-11-08T14:00:00	4	Temperatura máxima	25.8
90587	7	Sololá	704	Santa Lucía Utatlán 	7	Santa Rita 	4	Abril	2023-04-28T00:00:00	2024-11-08T14:00:00	3	Temperatura mínima	24.3
90588	7	Sololá	704	Santa Lucía Utatlán 	7	Santa Rita 	4	Abril	2023-04-28T00:00:00	2024-11-08T14:00:00	5	Humedad	79
90589	7	Sololá	704	Santa Lucía Utatlán 	7	Santa Rita 	4	Abril	2023-04-28T00:00:00	2024-11-08T14:00:00	6	Velocidad del viento	9.7
90590	7	Sololá	704	Santa Lucía Utatlán 	7	Santa Rita 	4	Abril	2023-04-28T00:00:00	2024-11-08T14:00:00	7	Dirección del viento	9.66
90591	7	Sololá	704	Santa Lucía Utatlán 	7	Santa Rita 	4	Abril	2023-04-28T00:00:00	2024-11-08T14:00:00	1	Precipitación	0
90592	7	Sololá	704	Santa Lucía Utatlán 	7	Santa Rita 	4	Abril	2023-04-28T00:00:00	2024-11-08T14:00:00	8	Radiación solar	860
90593	7	Sololá	704	Santa Lucía Utatlán 	7	Santa Rita 	4	Abril	2023-04-28T00:00:00	2024-11-08T15:00:00	2	Temperatura media	22.7
90594	7	Sololá	704	Santa Lucía Utatlán 	7	Santa Rita 	4	Abril	2023-04-28T00:00:00	2024-11-08T15:00:00	4	Temperatura máxima	24.5
90595	7	Sololá	704	Santa Lucía Utatlán 	7	Santa Rita 	4	Abril	2023-04-28T00:00:00	2024-11-08T15:00:00	3	Temperatura mínima	22.7
90596	7	Sololá	704	Santa Lucía Utatlán 	7	Santa Rita 	4	Abril	2023-04-28T00:00:00	2024-11-08T15:00:00	5	Humedad	81
90597	7	Sololá	704	Santa Lucía Utatlán 	7	Santa Rita 	4	Abril	2023-04-28T00:00:00	2024-11-08T15:00:00	6	Velocidad del viento	4.8
90598	7	Sololá	704	Santa Lucía Utatlán 	7	Santa Rita 	4	Abril	2023-04-28T00:00:00	2024-11-08T15:00:00	7	Dirección del viento	4.83
90599	7	Sololá	704	Santa Lucía Utatlán 	7	Santa Rita 	4	Abril	2023-04-28T00:00:00	2024-11-08T15:00:00	1	Precipitación	0
90600	7	Sololá	704	Santa Lucía Utatlán 	7	Santa Rita 	4	Abril	2023-04-28T00:00:00	2024-11-08T15:00:00	8	Radiación solar	160
90601	7	Sololá	704	Santa Lucía Utatlán 	7	Santa Rita 	4	Abril	2023-04-28T00:00:00	2024-11-08T16:00:00	2	Temperatura media	22.3
90602	7	Sololá	704	Santa Lucía Utatlán 	7	Santa Rita 	4	Abril	2023-04-28T00:00:00	2024-11-08T16:00:00	4	Temperatura máxima	23
90603	7	Sololá	704	Santa Lucía Utatlán 	7	Santa Rita 	4	Abril	2023-04-28T00:00:00	2024-11-08T16:00:00	3	Temperatura mínima	22.3
90604	7	Sololá	704	Santa Lucía Utatlán 	7	Santa Rita 	4	Abril	2023-04-28T00:00:00	2024-11-08T16:00:00	5	Humedad	84
90605	7	Sololá	704	Santa Lucía Utatlán 	7	Santa Rita 	4	Abril	2023-04-28T00:00:00	2024-11-08T16:00:00	6	Velocidad del viento	4.8
90606	7	Sololá	704	Santa Lucía Utatlán 	7	Santa Rita 	4	Abril	2023-04-28T00:00:00	2024-11-08T16:00:00	7	Dirección del viento	4.83
90607	7	Sololá	704	Santa Lucía Utatlán 	7	Santa Rita 	4	Abril	2023-04-28T00:00:00	2024-11-08T16:00:00	1	Precipitación	0
90608	7	Sololá	704	Santa Lucía Utatlán 	7	Santa Rita 	4	Abril	2023-04-28T00:00:00	2024-11-08T16:00:00	8	Radiación solar	111
90609	7	Sololá	704	Santa Lucía Utatlán 	7	Santa Rita 	4	Abril	2023-04-28T00:00:00	2024-11-08T17:00:00	2	Temperatura media	22
90610	7	Sololá	704	Santa Lucía Utatlán 	7	Santa Rita 	4	Abril	2023-04-28T00:00:00	2024-11-08T17:00:00	4	Temperatura máxima	22.3
90611	7	Sololá	704	Santa Lucía Utatlán 	7	Santa Rita 	4	Abril	2023-04-28T00:00:00	2024-11-08T17:00:00	3	Temperatura mínima	21.6
90612	7	Sololá	704	Santa Lucía Utatlán 	7	Santa Rita 	4	Abril	2023-04-28T00:00:00	2024-11-08T17:00:00	5	Humedad	86
90613	7	Sololá	704	Santa Lucía Utatlán 	7	Santa Rita 	4	Abril	2023-04-28T00:00:00	2024-11-08T17:00:00	6	Velocidad del viento	3.2
90614	7	Sololá	704	Santa Lucía Utatlán 	7	Santa Rita 	4	Abril	2023-04-28T00:00:00	2024-11-08T17:00:00	7	Dirección del viento	3.22
90615	7	Sololá	704	Santa Lucía Utatlán 	7	Santa Rita 	4	Abril	2023-04-28T00:00:00	2024-11-08T17:00:00	1	Precipitación	0
90616	7	Sololá	704	Santa Lucía Utatlán 	7	Santa Rita 	4	Abril	2023-04-28T00:00:00	2024-11-08T17:00:00	8	Radiación solar	89
90617	7	Sololá	704	Santa Lucía Utatlán 	7	Santa Rita 	4	Abril	2023-04-28T00:00:00	2024-11-08T18:00:00	2	Temperatura media	22.2
90618	7	Sololá	704	Santa Lucía Utatlán 	7	Santa Rita 	4	Abril	2023-04-28T00:00:00	2024-11-08T18:00:00	4	Temperatura máxima	22.3
90619	7	Sololá	704	Santa Lucía Utatlán 	7	Santa Rita 	4	Abril	2023-04-28T00:00:00	2024-11-08T18:00:00	3	Temperatura mínima	21.8
90620	7	Sololá	704	Santa Lucía Utatlán 	7	Santa Rita 	4	Abril	2023-04-28T00:00:00	2024-11-08T18:00:00	5	Humedad	85
90621	7	Sololá	704	Santa Lucía Utatlán 	7	Santa Rita 	4	Abril	2023-04-28T00:00:00	2024-11-08T18:00:00	6	Velocidad del viento	3.2
90622	7	Sololá	704	Santa Lucía Utatlán 	7	Santa Rita 	4	Abril	2023-04-28T00:00:00	2024-11-08T18:00:00	7	Dirección del viento	3.22
90623	7	Sololá	704	Santa Lucía Utatlán 	7	Santa Rita 	4	Abril	2023-04-28T00:00:00	2024-11-08T18:00:00	1	Precipitación	0
90624	7	Sololá	704	Santa Lucía Utatlán 	7	Santa Rita 	4	Abril	2023-04-28T00:00:00	2024-11-08T18:00:00	8	Radiación solar	126
90625	7	Sololá	704	Santa Lucía Utatlán 	7	Santa Rita 	4	Abril	2023-04-28T00:00:00	2024-11-08T19:00:00	2	Temperatura media	20.9
90626	7	Sololá	704	Santa Lucía Utatlán 	7	Santa Rita 	4	Abril	2023-04-28T00:00:00	2024-11-08T19:00:00	4	Temperatura máxima	22.2
90627	7	Sololá	704	Santa Lucía Utatlán 	7	Santa Rita 	4	Abril	2023-04-28T00:00:00	2024-11-08T19:00:00	3	Temperatura mínima	20.9
90628	7	Sololá	704	Santa Lucía Utatlán 	7	Santa Rita 	4	Abril	2023-04-28T00:00:00	2024-11-08T19:00:00	5	Humedad	91
90629	7	Sololá	704	Santa Lucía Utatlán 	7	Santa Rita 	4	Abril	2023-04-28T00:00:00	2024-11-08T19:00:00	6	Velocidad del viento	3.2
90630	7	Sololá	704	Santa Lucía Utatlán 	7	Santa Rita 	4	Abril	2023-04-28T00:00:00	2024-11-08T19:00:00	7	Dirección del viento	3.22
90631	7	Sololá	704	Santa Lucía Utatlán 	7	Santa Rita 	4	Abril	2023-04-28T00:00:00	2024-11-08T19:00:00	1	Precipitación	0
90632	7	Sololá	704	Santa Lucía Utatlán 	7	Santa Rita 	4	Abril	2023-04-28T00:00:00	2024-11-08T19:00:00	8	Radiación solar	0
90633	7	Sololá	704	Santa Lucía Utatlán 	7	Santa Rita 	4	Abril	2023-04-28T00:00:00	2024-11-08T20:00:00	2	Temperatura media	20.7
90634	7	Sololá	704	Santa Lucía Utatlán 	7	Santa Rita 	4	Abril	2023-04-28T00:00:00	2024-11-08T20:00:00	4	Temperatura máxima	20.9
90635	7	Sololá	704	Santa Lucía Utatlán 	7	Santa Rita 	4	Abril	2023-04-28T00:00:00	2024-11-08T20:00:00	3	Temperatura mínima	20.6
90636	7	Sololá	704	Santa Lucía Utatlán 	7	Santa Rita 	4	Abril	2023-04-28T00:00:00	2024-11-08T20:00:00	5	Humedad	91
90637	7	Sololá	704	Santa Lucía Utatlán 	7	Santa Rita 	4	Abril	2023-04-28T00:00:00	2024-11-08T20:00:00	6	Velocidad del viento	1.6
90638	7	Sololá	704	Santa Lucía Utatlán 	7	Santa Rita 	4	Abril	2023-04-28T00:00:00	2024-11-08T20:00:00	7	Dirección del viento	1.61
90639	7	Sololá	704	Santa Lucía Utatlán 	7	Santa Rita 	4	Abril	2023-04-28T00:00:00	2024-11-08T20:00:00	1	Precipitación	0
90640	7	Sololá	704	Santa Lucía Utatlán 	7	Santa Rita 	4	Abril	2023-04-28T00:00:00	2024-11-08T20:00:00	8	Radiación solar	0
90641	7	Sololá	704	Santa Lucía Utatlán 	7	Santa Rita 	4	Abril	2023-04-28T00:00:00	2024-11-08T21:00:00	2	Temperatura media	20.6
90642	7	Sololá	704	Santa Lucía Utatlán 	7	Santa Rita 	4	Abril	2023-04-28T00:00:00	2024-11-08T21:00:00	4	Temperatura máxima	20.7
90643	7	Sololá	704	Santa Lucía Utatlán 	7	Santa Rita 	4	Abril	2023-04-28T00:00:00	2024-11-08T21:00:00	3	Temperatura mínima	20.4
90644	7	Sololá	704	Santa Lucía Utatlán 	7	Santa Rita 	4	Abril	2023-04-28T00:00:00	2024-11-08T21:00:00	5	Humedad	91
90645	7	Sololá	704	Santa Lucía Utatlán 	7	Santa Rita 	4	Abril	2023-04-28T00:00:00	2024-11-08T21:00:00	6	Velocidad del viento	0
90646	7	Sololá	704	Santa Lucía Utatlán 	7	Santa Rita 	4	Abril	2023-04-28T00:00:00	2024-11-08T21:00:00	7	Dirección del viento	0
90647	7	Sololá	704	Santa Lucía Utatlán 	7	Santa Rita 	4	Abril	2023-04-28T00:00:00	2024-11-08T21:00:00	1	Precipitación	0
90648	7	Sololá	704	Santa Lucía Utatlán 	7	Santa Rita 	4	Abril	2023-04-28T00:00:00	2024-11-08T21:00:00	8	Radiación solar	0
90649	7	Sololá	704	Santa Lucía Utatlán 	7	Santa Rita 	4	Abril	2023-04-28T00:00:00	2024-11-08T22:00:00	2	Temperatura media	20.1
90650	7	Sololá	704	Santa Lucía Utatlán 	7	Santa Rita 	4	Abril	2023-04-28T00:00:00	2024-11-08T22:00:00	4	Temperatura máxima	20.6
90651	7	Sololá	704	Santa Lucía Utatlán 	7	Santa Rita 	4	Abril	2023-04-28T00:00:00	2024-11-08T22:00:00	3	Temperatura mínima	20
90652	7	Sololá	704	Santa Lucía Utatlán 	7	Santa Rita 	4	Abril	2023-04-28T00:00:00	2024-11-08T22:00:00	5	Humedad	95
90653	7	Sololá	704	Santa Lucía Utatlán 	7	Santa Rita 	4	Abril	2023-04-28T00:00:00	2024-11-08T22:00:00	6	Velocidad del viento	1.6
90654	7	Sololá	704	Santa Lucía Utatlán 	7	Santa Rita 	4	Abril	2023-04-28T00:00:00	2024-11-08T22:00:00	7	Dirección del viento	1.61
90655	7	Sololá	704	Santa Lucía Utatlán 	7	Santa Rita 	4	Abril	2023-04-28T00:00:00	2024-11-08T22:00:00	1	Precipitación	1
90656	7	Sololá	704	Santa Lucía Utatlán 	7	Santa Rita 	4	Abril	2023-04-28T00:00:00	2024-11-08T22:00:00	8	Radiación solar	0
90657	7	Sololá	704	Santa Lucía Utatlán 	7	Santa Rita 	4	Abril	2023-04-28T00:00:00	2024-11-08T23:00:00	2	Temperatura media	20
90658	7	Sololá	704	Santa Lucía Utatlán 	7	Santa Rita 	4	Abril	2023-04-28T00:00:00	2024-11-08T23:00:00	4	Temperatura máxima	20.1
90659	7	Sololá	704	Santa Lucía Utatlán 	7	Santa Rita 	4	Abril	2023-04-28T00:00:00	2024-11-08T23:00:00	3	Temperatura mínima	19.9
90660	7	Sololá	704	Santa Lucía Utatlán 	7	Santa Rita 	4	Abril	2023-04-28T00:00:00	2024-11-08T23:00:00	5	Humedad	95
90661	7	Sololá	704	Santa Lucía Utatlán 	7	Santa Rita 	4	Abril	2023-04-28T00:00:00	2024-11-08T23:00:00	6	Velocidad del viento	0
90662	7	Sololá	704	Santa Lucía Utatlán 	7	Santa Rita 	4	Abril	2023-04-28T00:00:00	2024-11-08T23:00:00	7	Dirección del viento	0
90663	7	Sololá	704	Santa Lucía Utatlán 	7	Santa Rita 	4	Abril	2023-04-28T00:00:00	2024-11-08T23:00:00	1	Precipitación	1.4
90664	7	Sololá	704	Santa Lucía Utatlán 	7	Santa Rita 	4	Abril	2023-04-28T00:00:00	2024-11-08T23:00:00	8	Radiación solar	0
90665	7	Sololá	704	Santa Lucía Utatlán 	7	Santa Rita 	4	Abril	2023-04-29T00:00:00	2024-11-08T00:00:00	2	Temperatura media	19.2
90666	7	Sololá	704	Santa Lucía Utatlán 	7	Santa Rita 	4	Abril	2023-04-29T00:00:00	2024-11-08T00:00:00	4	Temperatura máxima	20.1
90667	7	Sololá	704	Santa Lucía Utatlán 	7	Santa Rita 	4	Abril	2023-04-29T00:00:00	2024-11-08T00:00:00	3	Temperatura mínima	19.2
90668	7	Sololá	704	Santa Lucía Utatlán 	7	Santa Rita 	4	Abril	2023-04-29T00:00:00	2024-11-08T00:00:00	5	Humedad	94
90669	7	Sololá	704	Santa Lucía Utatlán 	7	Santa Rita 	4	Abril	2023-04-29T00:00:00	2024-11-08T00:00:00	6	Velocidad del viento	1.6
90670	7	Sololá	704	Santa Lucía Utatlán 	7	Santa Rita 	4	Abril	2023-04-29T00:00:00	2024-11-08T00:00:00	7	Dirección del viento	1.61
90671	7	Sololá	704	Santa Lucía Utatlán 	7	Santa Rita 	4	Abril	2023-04-29T00:00:00	2024-11-08T00:00:00	1	Precipitación	10.8
90672	7	Sololá	704	Santa Lucía Utatlán 	7	Santa Rita 	4	Abril	2023-04-29T00:00:00	2024-11-08T00:00:00	8	Radiación solar	0
90673	7	Sololá	704	Santa Lucía Utatlán 	7	Santa Rita 	4	Abril	2023-04-29T00:00:00	2024-11-08T01:00:00	2	Temperatura media	17.8
90674	7	Sololá	704	Santa Lucía Utatlán 	7	Santa Rita 	4	Abril	2023-04-29T00:00:00	2024-11-08T01:00:00	4	Temperatura máxima	19.3
90675	7	Sololá	704	Santa Lucía Utatlán 	7	Santa Rita 	4	Abril	2023-04-29T00:00:00	2024-11-08T01:00:00	3	Temperatura mínima	17.8
90676	7	Sololá	704	Santa Lucía Utatlán 	7	Santa Rita 	4	Abril	2023-04-29T00:00:00	2024-11-08T01:00:00	5	Humedad	91
90677	7	Sololá	704	Santa Lucía Utatlán 	7	Santa Rita 	4	Abril	2023-04-29T00:00:00	2024-11-08T01:00:00	6	Velocidad del viento	3.2
90678	7	Sololá	704	Santa Lucía Utatlán 	7	Santa Rita 	4	Abril	2023-04-29T00:00:00	2024-11-08T01:00:00	7	Dirección del viento	3.22
90679	7	Sololá	704	Santa Lucía Utatlán 	7	Santa Rita 	4	Abril	2023-04-29T00:00:00	2024-11-08T01:00:00	1	Precipitación	2.2
90680	7	Sololá	704	Santa Lucía Utatlán 	7	Santa Rita 	4	Abril	2023-04-29T00:00:00	2024-11-08T01:00:00	8	Radiación solar	0
90681	7	Sololá	704	Santa Lucía Utatlán 	7	Santa Rita 	4	Abril	2023-04-29T00:00:00	2024-11-08T02:00:00	2	Temperatura media	17.6
90682	7	Sololá	704	Santa Lucía Utatlán 	7	Santa Rita 	4	Abril	2023-04-29T00:00:00	2024-11-08T02:00:00	4	Temperatura máxima	17.8
90683	7	Sololá	704	Santa Lucía Utatlán 	7	Santa Rita 	4	Abril	2023-04-29T00:00:00	2024-11-08T02:00:00	3	Temperatura mínima	17.5
90684	7	Sololá	704	Santa Lucía Utatlán 	7	Santa Rita 	4	Abril	2023-04-29T00:00:00	2024-11-08T02:00:00	5	Humedad	92
90685	7	Sololá	704	Santa Lucía Utatlán 	7	Santa Rita 	4	Abril	2023-04-29T00:00:00	2024-11-08T02:00:00	6	Velocidad del viento	1.6
90686	7	Sololá	704	Santa Lucía Utatlán 	7	Santa Rita 	4	Abril	2023-04-29T00:00:00	2024-11-08T02:00:00	7	Dirección del viento	1.61
90687	7	Sololá	704	Santa Lucía Utatlán 	7	Santa Rita 	4	Abril	2023-04-29T00:00:00	2024-11-08T02:00:00	1	Precipitación	0
90688	7	Sololá	704	Santa Lucía Utatlán 	7	Santa Rita 	4	Abril	2023-04-29T00:00:00	2024-11-08T02:00:00	8	Radiación solar	0
90689	7	Sololá	704	Santa Lucía Utatlán 	7	Santa Rita 	4	Abril	2023-04-29T00:00:00	2024-11-08T03:00:00	2	Temperatura media	17.6
90690	7	Sololá	704	Santa Lucía Utatlán 	7	Santa Rita 	4	Abril	2023-04-29T00:00:00	2024-11-08T03:00:00	4	Temperatura máxima	17.7
90691	7	Sololá	704	Santa Lucía Utatlán 	7	Santa Rita 	4	Abril	2023-04-29T00:00:00	2024-11-08T03:00:00	3	Temperatura mínima	17.5
90692	7	Sololá	704	Santa Lucía Utatlán 	7	Santa Rita 	4	Abril	2023-04-29T00:00:00	2024-11-08T03:00:00	5	Humedad	92
90693	7	Sololá	704	Santa Lucía Utatlán 	7	Santa Rita 	4	Abril	2023-04-29T00:00:00	2024-11-08T03:00:00	6	Velocidad del viento	1.6
90694	7	Sololá	704	Santa Lucía Utatlán 	7	Santa Rita 	4	Abril	2023-04-29T00:00:00	2024-11-08T03:00:00	7	Dirección del viento	1.61
90695	7	Sololá	704	Santa Lucía Utatlán 	7	Santa Rita 	4	Abril	2023-04-29T00:00:00	2024-11-08T03:00:00	1	Precipitación	0
90696	7	Sololá	704	Santa Lucía Utatlán 	7	Santa Rita 	4	Abril	2023-04-29T00:00:00	2024-11-08T03:00:00	8	Radiación solar	0
90697	7	Sololá	704	Santa Lucía Utatlán 	7	Santa Rita 	4	Abril	2023-04-29T00:00:00	2024-11-08T04:00:00	2	Temperatura media	17.1
90698	7	Sololá	704	Santa Lucía Utatlán 	7	Santa Rita 	4	Abril	2023-04-29T00:00:00	2024-11-08T04:00:00	4	Temperatura máxima	17.6
90699	7	Sololá	704	Santa Lucía Utatlán 	7	Santa Rita 	4	Abril	2023-04-29T00:00:00	2024-11-08T04:00:00	3	Temperatura mínima	17.1
90700	7	Sololá	704	Santa Lucía Utatlán 	7	Santa Rita 	4	Abril	2023-04-29T00:00:00	2024-11-08T04:00:00	5	Humedad	91
90701	7	Sololá	704	Santa Lucía Utatlán 	7	Santa Rita 	4	Abril	2023-04-29T00:00:00	2024-11-08T04:00:00	6	Velocidad del viento	1.6
90702	7	Sololá	704	Santa Lucía Utatlán 	7	Santa Rita 	4	Abril	2023-04-29T00:00:00	2024-11-08T04:00:00	7	Dirección del viento	1.61
90703	7	Sololá	704	Santa Lucía Utatlán 	7	Santa Rita 	4	Abril	2023-04-29T00:00:00	2024-11-08T04:00:00	1	Precipitación	0
90704	7	Sololá	704	Santa Lucía Utatlán 	7	Santa Rita 	4	Abril	2023-04-29T00:00:00	2024-11-08T04:00:00	8	Radiación solar	0
90705	7	Sololá	704	Santa Lucía Utatlán 	7	Santa Rita 	4	Abril	2023-04-29T00:00:00	2024-11-08T05:00:00	2	Temperatura media	16.8
90706	7	Sololá	704	Santa Lucía Utatlán 	7	Santa Rita 	4	Abril	2023-04-29T00:00:00	2024-11-08T05:00:00	4	Temperatura máxima	17.2
90707	7	Sololá	704	Santa Lucía Utatlán 	7	Santa Rita 	4	Abril	2023-04-29T00:00:00	2024-11-08T05:00:00	3	Temperatura mínima	16.8
90708	7	Sololá	704	Santa Lucía Utatlán 	7	Santa Rita 	4	Abril	2023-04-29T00:00:00	2024-11-08T05:00:00	5	Humedad	92
90709	7	Sololá	704	Santa Lucía Utatlán 	7	Santa Rita 	4	Abril	2023-04-29T00:00:00	2024-11-08T05:00:00	6	Velocidad del viento	1.6
90710	7	Sololá	704	Santa Lucía Utatlán 	7	Santa Rita 	4	Abril	2023-04-29T00:00:00	2024-11-08T05:00:00	7	Dirección del viento	1.61
90711	7	Sololá	704	Santa Lucía Utatlán 	7	Santa Rita 	4	Abril	2023-04-29T00:00:00	2024-11-08T05:00:00	1	Precipitación	0
90712	7	Sololá	704	Santa Lucía Utatlán 	7	Santa Rita 	4	Abril	2023-04-29T00:00:00	2024-11-08T05:00:00	8	Radiación solar	0
90713	7	Sololá	704	Santa Lucía Utatlán 	7	Santa Rita 	4	Abril	2023-04-29T00:00:00	2024-11-08T06:00:00	2	Temperatura media	16.3
90714	7	Sololá	704	Santa Lucía Utatlán 	7	Santa Rita 	4	Abril	2023-04-29T00:00:00	2024-11-08T06:00:00	4	Temperatura máxima	16.9
90715	7	Sololá	704	Santa Lucía Utatlán 	7	Santa Rita 	4	Abril	2023-04-29T00:00:00	2024-11-08T06:00:00	3	Temperatura mínima	16.3
90716	7	Sololá	704	Santa Lucía Utatlán 	7	Santa Rita 	4	Abril	2023-04-29T00:00:00	2024-11-08T06:00:00	5	Humedad	93
90717	7	Sololá	704	Santa Lucía Utatlán 	7	Santa Rita 	4	Abril	2023-04-29T00:00:00	2024-11-08T06:00:00	6	Velocidad del viento	0
90718	7	Sololá	704	Santa Lucía Utatlán 	7	Santa Rita 	4	Abril	2023-04-29T00:00:00	2024-11-08T06:00:00	7	Dirección del viento	0
90719	7	Sololá	704	Santa Lucía Utatlán 	7	Santa Rita 	4	Abril	2023-04-29T00:00:00	2024-11-08T06:00:00	1	Precipitación	0
90720	7	Sololá	704	Santa Lucía Utatlán 	7	Santa Rita 	4	Abril	2023-04-29T00:00:00	2024-11-08T06:00:00	8	Radiación solar	0
90721	7	Sololá	704	Santa Lucía Utatlán 	7	Santa Rita 	4	Abril	2023-04-29T00:00:00	2024-11-08T07:00:00	2	Temperatura media	16.6
90722	7	Sololá	704	Santa Lucía Utatlán 	7	Santa Rita 	4	Abril	2023-04-29T00:00:00	2024-11-08T07:00:00	4	Temperatura máxima	16.7
90723	7	Sololá	704	Santa Lucía Utatlán 	7	Santa Rita 	4	Abril	2023-04-29T00:00:00	2024-11-08T07:00:00	3	Temperatura mínima	16.1
90724	7	Sololá	704	Santa Lucía Utatlán 	7	Santa Rita 	4	Abril	2023-04-29T00:00:00	2024-11-08T07:00:00	5	Humedad	91
90725	7	Sololá	704	Santa Lucía Utatlán 	7	Santa Rita 	4	Abril	2023-04-29T00:00:00	2024-11-08T07:00:00	6	Velocidad del viento	3.2
90726	7	Sololá	704	Santa Lucía Utatlán 	7	Santa Rita 	4	Abril	2023-04-29T00:00:00	2024-11-08T07:00:00	7	Dirección del viento	3.22
90727	7	Sololá	704	Santa Lucía Utatlán 	7	Santa Rita 	4	Abril	2023-04-29T00:00:00	2024-11-08T07:00:00	1	Precipitación	0
90728	7	Sololá	704	Santa Lucía Utatlán 	7	Santa Rita 	4	Abril	2023-04-29T00:00:00	2024-11-08T07:00:00	8	Radiación solar	3
90729	7	Sololá	704	Santa Lucía Utatlán 	7	Santa Rita 	4	Abril	2023-04-29T00:00:00	2024-11-08T08:00:00	2	Temperatura media	17.8
90730	7	Sololá	704	Santa Lucía Utatlán 	7	Santa Rita 	4	Abril	2023-04-29T00:00:00	2024-11-08T08:00:00	4	Temperatura máxima	17.8
90731	7	Sololá	704	Santa Lucía Utatlán 	7	Santa Rita 	4	Abril	2023-04-29T00:00:00	2024-11-08T08:00:00	3	Temperatura mínima	16.6
90732	7	Sololá	704	Santa Lucía Utatlán 	7	Santa Rita 	4	Abril	2023-04-29T00:00:00	2024-11-08T08:00:00	5	Humedad	92
90733	7	Sololá	704	Santa Lucía Utatlán 	7	Santa Rita 	4	Abril	2023-04-29T00:00:00	2024-11-08T08:00:00	6	Velocidad del viento	1.6
90734	7	Sololá	704	Santa Lucía Utatlán 	7	Santa Rita 	4	Abril	2023-04-29T00:00:00	2024-11-08T08:00:00	7	Dirección del viento	1.61
90735	7	Sololá	704	Santa Lucía Utatlán 	7	Santa Rita 	4	Abril	2023-04-29T00:00:00	2024-11-08T08:00:00	1	Precipitación	0
90736	7	Sololá	704	Santa Lucía Utatlán 	7	Santa Rita 	4	Abril	2023-04-29T00:00:00	2024-11-08T08:00:00	8	Radiación solar	76
90737	7	Sololá	704	Santa Lucía Utatlán 	7	Santa Rita 	4	Abril	2023-04-29T00:00:00	2024-11-08T09:00:00	2	Temperatura media	21.2
90738	7	Sololá	704	Santa Lucía Utatlán 	7	Santa Rita 	4	Abril	2023-04-29T00:00:00	2024-11-08T09:00:00	4	Temperatura máxima	21.2
90739	7	Sololá	704	Santa Lucía Utatlán 	7	Santa Rita 	4	Abril	2023-04-29T00:00:00	2024-11-08T09:00:00	3	Temperatura mínima	17.7
90740	7	Sololá	704	Santa Lucía Utatlán 	7	Santa Rita 	4	Abril	2023-04-29T00:00:00	2024-11-08T09:00:00	5	Humedad	79
90741	7	Sololá	704	Santa Lucía Utatlán 	7	Santa Rita 	4	Abril	2023-04-29T00:00:00	2024-11-08T09:00:00	6	Velocidad del viento	0
90742	7	Sololá	704	Santa Lucía Utatlán 	7	Santa Rita 	4	Abril	2023-04-29T00:00:00	2024-11-08T09:00:00	7	Dirección del viento	0
90743	7	Sololá	704	Santa Lucía Utatlán 	7	Santa Rita 	4	Abril	2023-04-29T00:00:00	2024-11-08T09:00:00	1	Precipitación	0
90744	7	Sololá	704	Santa Lucía Utatlán 	7	Santa Rita 	4	Abril	2023-04-29T00:00:00	2024-11-08T09:00:00	8	Radiación solar	325
90745	7	Sololá	704	Santa Lucía Utatlán 	7	Santa Rita 	4	Abril	2023-04-29T00:00:00	2024-11-08T10:00:00	2	Temperatura media	23.7
90746	7	Sololá	704	Santa Lucía Utatlán 	7	Santa Rita 	4	Abril	2023-04-29T00:00:00	2024-11-08T10:00:00	4	Temperatura máxima	23.7
90747	7	Sololá	704	Santa Lucía Utatlán 	7	Santa Rita 	4	Abril	2023-04-29T00:00:00	2024-11-08T10:00:00	3	Temperatura mínima	21.2
90748	7	Sololá	704	Santa Lucía Utatlán 	7	Santa Rita 	4	Abril	2023-04-29T00:00:00	2024-11-08T10:00:00	5	Humedad	72
90749	7	Sololá	704	Santa Lucía Utatlán 	7	Santa Rita 	4	Abril	2023-04-29T00:00:00	2024-11-08T10:00:00	6	Velocidad del viento	3.2
90750	7	Sololá	704	Santa Lucía Utatlán 	7	Santa Rita 	4	Abril	2023-04-29T00:00:00	2024-11-08T10:00:00	7	Dirección del viento	3.22
90751	7	Sololá	704	Santa Lucía Utatlán 	7	Santa Rita 	4	Abril	2023-04-29T00:00:00	2024-11-08T10:00:00	1	Precipitación	0
90752	7	Sololá	704	Santa Lucía Utatlán 	7	Santa Rita 	4	Abril	2023-04-29T00:00:00	2024-11-08T10:00:00	8	Radiación solar	572
90753	7	Sololá	704	Santa Lucía Utatlán 	7	Santa Rita 	4	Abril	2023-04-29T00:00:00	2024-11-08T11:00:00	2	Temperatura media	23.4
90754	7	Sololá	704	Santa Lucía Utatlán 	7	Santa Rita 	4	Abril	2023-04-29T00:00:00	2024-11-08T11:00:00	4	Temperatura máxima	24.4
90755	7	Sololá	704	Santa Lucía Utatlán 	7	Santa Rita 	4	Abril	2023-04-29T00:00:00	2024-11-08T11:00:00	3	Temperatura mínima	23.4
90756	7	Sololá	704	Santa Lucía Utatlán 	7	Santa Rita 	4	Abril	2023-04-29T00:00:00	2024-11-08T11:00:00	5	Humedad	80
90757	7	Sololá	704	Santa Lucía Utatlán 	7	Santa Rita 	4	Abril	2023-04-29T00:00:00	2024-11-08T11:00:00	6	Velocidad del viento	6.4
90758	7	Sololá	704	Santa Lucía Utatlán 	7	Santa Rita 	4	Abril	2023-04-29T00:00:00	2024-11-08T11:00:00	7	Dirección del viento	6.44
90759	7	Sololá	704	Santa Lucía Utatlán 	7	Santa Rita 	4	Abril	2023-04-29T00:00:00	2024-11-08T11:00:00	1	Precipitación	0
90760	7	Sololá	704	Santa Lucía Utatlán 	7	Santa Rita 	4	Abril	2023-04-29T00:00:00	2024-11-08T11:00:00	8	Radiación solar	753
90761	7	Sololá	704	Santa Lucía Utatlán 	7	Santa Rita 	4	Abril	2023-04-29T00:00:00	2024-11-08T12:00:00	2	Temperatura media	23.7
90762	7	Sololá	704	Santa Lucía Utatlán 	7	Santa Rita 	4	Abril	2023-04-29T00:00:00	2024-11-08T12:00:00	4	Temperatura máxima	23.9
90763	7	Sololá	704	Santa Lucía Utatlán 	7	Santa Rita 	4	Abril	2023-04-29T00:00:00	2024-11-08T12:00:00	3	Temperatura mínima	23.4
90764	7	Sololá	704	Santa Lucía Utatlán 	7	Santa Rita 	4	Abril	2023-04-29T00:00:00	2024-11-08T12:00:00	5	Humedad	77
90765	7	Sololá	704	Santa Lucía Utatlán 	7	Santa Rita 	4	Abril	2023-04-29T00:00:00	2024-11-08T12:00:00	6	Velocidad del viento	8
90766	7	Sololá	704	Santa Lucía Utatlán 	7	Santa Rita 	4	Abril	2023-04-29T00:00:00	2024-11-08T12:00:00	7	Dirección del viento	8.05
90767	7	Sololá	704	Santa Lucía Utatlán 	7	Santa Rita 	4	Abril	2023-04-29T00:00:00	2024-11-08T12:00:00	1	Precipitación	0
90768	7	Sololá	704	Santa Lucía Utatlán 	7	Santa Rita 	4	Abril	2023-04-29T00:00:00	2024-11-08T12:00:00	8	Radiación solar	871
90769	7	Sololá	704	Santa Lucía Utatlán 	7	Santa Rita 	4	Abril	2023-04-29T00:00:00	2024-11-08T13:00:00	2	Temperatura media	23.3
90770	7	Sololá	704	Santa Lucía Utatlán 	7	Santa Rita 	4	Abril	2023-04-29T00:00:00	2024-11-08T13:00:00	4	Temperatura máxima	24.3
90771	7	Sololá	704	Santa Lucía Utatlán 	7	Santa Rita 	4	Abril	2023-04-29T00:00:00	2024-11-08T13:00:00	3	Temperatura mínima	23.3
90772	7	Sololá	704	Santa Lucía Utatlán 	7	Santa Rita 	4	Abril	2023-04-29T00:00:00	2024-11-08T13:00:00	5	Humedad	82
90773	7	Sololá	704	Santa Lucía Utatlán 	7	Santa Rita 	4	Abril	2023-04-29T00:00:00	2024-11-08T13:00:00	6	Velocidad del viento	8
90774	7	Sololá	704	Santa Lucía Utatlán 	7	Santa Rita 	4	Abril	2023-04-29T00:00:00	2024-11-08T13:00:00	7	Dirección del viento	8.05
90775	7	Sololá	704	Santa Lucía Utatlán 	7	Santa Rita 	4	Abril	2023-04-29T00:00:00	2024-11-08T13:00:00	1	Precipitación	0
90776	7	Sololá	704	Santa Lucía Utatlán 	7	Santa Rita 	4	Abril	2023-04-29T00:00:00	2024-11-08T13:00:00	8	Radiación solar	487
90777	7	Sololá	704	Santa Lucía Utatlán 	7	Santa Rita 	4	Abril	2023-04-29T00:00:00	2024-11-08T14:00:00	2	Temperatura media	23.9
90778	7	Sololá	704	Santa Lucía Utatlán 	7	Santa Rita 	4	Abril	2023-04-29T00:00:00	2024-11-08T14:00:00	4	Temperatura máxima	24.1
90779	7	Sololá	704	Santa Lucía Utatlán 	7	Santa Rita 	4	Abril	2023-04-29T00:00:00	2024-11-08T14:00:00	3	Temperatura mínima	23.2
90780	7	Sololá	704	Santa Lucía Utatlán 	7	Santa Rita 	4	Abril	2023-04-29T00:00:00	2024-11-08T14:00:00	5	Humedad	80
90781	7	Sololá	704	Santa Lucía Utatlán 	7	Santa Rita 	4	Abril	2023-04-29T00:00:00	2024-11-08T14:00:00	6	Velocidad del viento	4.8
90782	7	Sololá	704	Santa Lucía Utatlán 	7	Santa Rita 	4	Abril	2023-04-29T00:00:00	2024-11-08T14:00:00	7	Dirección del viento	4.83
90783	7	Sololá	704	Santa Lucía Utatlán 	7	Santa Rita 	4	Abril	2023-04-29T00:00:00	2024-11-08T14:00:00	1	Precipitación	0
90784	7	Sololá	704	Santa Lucía Utatlán 	7	Santa Rita 	4	Abril	2023-04-29T00:00:00	2024-11-08T14:00:00	8	Radiación solar	294
90785	7	Sololá	704	Santa Lucía Utatlán 	7	Santa Rita 	4	Abril	2023-04-29T00:00:00	2024-11-08T15:00:00	2	Temperatura media	23.2
90786	7	Sololá	704	Santa Lucía Utatlán 	7	Santa Rita 	4	Abril	2023-04-29T00:00:00	2024-11-08T15:00:00	4	Temperatura máxima	23.9
90787	7	Sololá	704	Santa Lucía Utatlán 	7	Santa Rita 	4	Abril	2023-04-29T00:00:00	2024-11-08T15:00:00	3	Temperatura mínima	23.2
90788	7	Sololá	704	Santa Lucía Utatlán 	7	Santa Rita 	4	Abril	2023-04-29T00:00:00	2024-11-08T15:00:00	5	Humedad	86
90789	7	Sololá	704	Santa Lucía Utatlán 	7	Santa Rita 	4	Abril	2023-04-29T00:00:00	2024-11-08T15:00:00	6	Velocidad del viento	3.2
90790	7	Sololá	704	Santa Lucía Utatlán 	7	Santa Rita 	4	Abril	2023-04-29T00:00:00	2024-11-08T15:00:00	7	Dirección del viento	3.22
90791	7	Sololá	704	Santa Lucía Utatlán 	7	Santa Rita 	4	Abril	2023-04-29T00:00:00	2024-11-08T15:00:00	1	Precipitación	0.4
90792	7	Sololá	704	Santa Lucía Utatlán 	7	Santa Rita 	4	Abril	2023-04-29T00:00:00	2024-11-08T15:00:00	8	Radiación solar	189
90793	7	Sololá	704	Santa Lucía Utatlán 	7	Santa Rita 	4	Abril	2023-04-29T00:00:00	2024-11-08T16:00:00	2	Temperatura media	21.8
90794	7	Sololá	704	Santa Lucía Utatlán 	7	Santa Rita 	4	Abril	2023-04-29T00:00:00	2024-11-08T16:00:00	4	Temperatura máxima	23.2
90795	7	Sololá	704	Santa Lucía Utatlán 	7	Santa Rita 	4	Abril	2023-04-29T00:00:00	2024-11-08T16:00:00	3	Temperatura mínima	21.8
90796	7	Sololá	704	Santa Lucía Utatlán 	7	Santa Rita 	4	Abril	2023-04-29T00:00:00	2024-11-08T16:00:00	5	Humedad	91
90797	7	Sololá	704	Santa Lucía Utatlán 	7	Santa Rita 	4	Abril	2023-04-29T00:00:00	2024-11-08T16:00:00	6	Velocidad del viento	6.4
90798	7	Sololá	704	Santa Lucía Utatlán 	7	Santa Rita 	4	Abril	2023-04-29T00:00:00	2024-11-08T16:00:00	7	Dirección del viento	6.44
90799	7	Sololá	704	Santa Lucía Utatlán 	7	Santa Rita 	4	Abril	2023-04-29T00:00:00	2024-11-08T16:00:00	1	Precipitación	0
90800	7	Sololá	704	Santa Lucía Utatlán 	7	Santa Rita 	4	Abril	2023-04-29T00:00:00	2024-11-08T16:00:00	8	Radiación solar	235
90801	7	Sololá	704	Santa Lucía Utatlán 	7	Santa Rita 	4	Abril	2023-04-29T00:00:00	2024-11-08T17:00:00	2	Temperatura media	21.1
90802	7	Sololá	704	Santa Lucía Utatlán 	7	Santa Rita 	4	Abril	2023-04-29T00:00:00	2024-11-08T17:00:00	4	Temperatura máxima	21.8
90803	7	Sololá	704	Santa Lucía Utatlán 	7	Santa Rita 	4	Abril	2023-04-29T00:00:00	2024-11-08T17:00:00	3	Temperatura mínima	20.9
90804	7	Sololá	704	Santa Lucía Utatlán 	7	Santa Rita 	4	Abril	2023-04-29T00:00:00	2024-11-08T17:00:00	5	Humedad	92
90805	7	Sololá	704	Santa Lucía Utatlán 	7	Santa Rita 	4	Abril	2023-04-29T00:00:00	2024-11-08T17:00:00	6	Velocidad del viento	4.8
90806	7	Sololá	704	Santa Lucía Utatlán 	7	Santa Rita 	4	Abril	2023-04-29T00:00:00	2024-11-08T17:00:00	7	Dirección del viento	4.83
90807	7	Sololá	704	Santa Lucía Utatlán 	7	Santa Rita 	4	Abril	2023-04-29T00:00:00	2024-11-08T17:00:00	1	Precipitación	0
90808	7	Sololá	704	Santa Lucía Utatlán 	7	Santa Rita 	4	Abril	2023-04-29T00:00:00	2024-11-08T17:00:00	8	Radiación solar	111
90809	7	Sololá	704	Santa Lucía Utatlán 	7	Santa Rita 	4	Abril	2023-04-29T00:00:00	2024-11-08T18:00:00	2	Temperatura media	19.4
90810	7	Sololá	704	Santa Lucía Utatlán 	7	Santa Rita 	4	Abril	2023-04-29T00:00:00	2024-11-08T18:00:00	4	Temperatura máxima	21.4
90811	7	Sololá	704	Santa Lucía Utatlán 	7	Santa Rita 	4	Abril	2023-04-29T00:00:00	2024-11-08T18:00:00	3	Temperatura mínima	19.4
90812	7	Sololá	704	Santa Lucía Utatlán 	7	Santa Rita 	4	Abril	2023-04-29T00:00:00	2024-11-08T18:00:00	5	Humedad	90
90813	7	Sololá	704	Santa Lucía Utatlán 	7	Santa Rita 	4	Abril	2023-04-29T00:00:00	2024-11-08T18:00:00	6	Velocidad del viento	4.8
90814	7	Sololá	704	Santa Lucía Utatlán 	7	Santa Rita 	4	Abril	2023-04-29T00:00:00	2024-11-08T18:00:00	7	Dirección del viento	4.83
90815	7	Sololá	704	Santa Lucía Utatlán 	7	Santa Rita 	4	Abril	2023-04-29T00:00:00	2024-11-08T18:00:00	1	Precipitación	3
90816	7	Sololá	704	Santa Lucía Utatlán 	7	Santa Rita 	4	Abril	2023-04-29T00:00:00	2024-11-08T18:00:00	8	Radiación solar	34
90817	7	Sololá	704	Santa Lucía Utatlán 	7	Santa Rita 	4	Abril	2023-04-29T00:00:00	2024-11-08T19:00:00	2	Temperatura media	19.2
90818	7	Sololá	704	Santa Lucía Utatlán 	7	Santa Rita 	4	Abril	2023-04-29T00:00:00	2024-11-08T19:00:00	4	Temperatura máxima	19.4
90819	7	Sololá	704	Santa Lucía Utatlán 	7	Santa Rita 	4	Abril	2023-04-29T00:00:00	2024-11-08T19:00:00	3	Temperatura mínima	19
90820	7	Sololá	704	Santa Lucía Utatlán 	7	Santa Rita 	4	Abril	2023-04-29T00:00:00	2024-11-08T19:00:00	5	Humedad	93
90821	7	Sololá	704	Santa Lucía Utatlán 	7	Santa Rita 	4	Abril	2023-04-29T00:00:00	2024-11-08T19:00:00	6	Velocidad del viento	1.6
90822	7	Sololá	704	Santa Lucía Utatlán 	7	Santa Rita 	4	Abril	2023-04-29T00:00:00	2024-11-08T19:00:00	7	Dirección del viento	1.61
90823	7	Sololá	704	Santa Lucía Utatlán 	7	Santa Rita 	4	Abril	2023-04-29T00:00:00	2024-11-08T19:00:00	1	Precipitación	0.2
90824	7	Sololá	704	Santa Lucía Utatlán 	7	Santa Rita 	4	Abril	2023-04-29T00:00:00	2024-11-08T19:00:00	8	Radiación solar	0
90825	7	Sololá	704	Santa Lucía Utatlán 	7	Santa Rita 	4	Abril	2023-04-29T00:00:00	2024-11-08T20:00:00	2	Temperatura media	18.5
90826	7	Sololá	704	Santa Lucía Utatlán 	7	Santa Rita 	4	Abril	2023-04-29T00:00:00	2024-11-08T20:00:00	4	Temperatura máxima	19.3
90827	7	Sololá	704	Santa Lucía Utatlán 	7	Santa Rita 	4	Abril	2023-04-29T00:00:00	2024-11-08T20:00:00	3	Temperatura mínima	18.2
90828	7	Sololá	704	Santa Lucía Utatlán 	7	Santa Rita 	4	Abril	2023-04-29T00:00:00	2024-11-08T20:00:00	5	Humedad	92
90829	7	Sololá	704	Santa Lucía Utatlán 	7	Santa Rita 	4	Abril	2023-04-29T00:00:00	2024-11-08T20:00:00	6	Velocidad del viento	3.2
90830	7	Sololá	704	Santa Lucía Utatlán 	7	Santa Rita 	4	Abril	2023-04-29T00:00:00	2024-11-08T20:00:00	7	Dirección del viento	3.22
90831	7	Sololá	704	Santa Lucía Utatlán 	7	Santa Rita 	4	Abril	2023-04-29T00:00:00	2024-11-08T20:00:00	1	Precipitación	0
90832	7	Sololá	704	Santa Lucía Utatlán 	7	Santa Rita 	4	Abril	2023-04-29T00:00:00	2024-11-08T20:00:00	8	Radiación solar	0
90833	7	Sololá	704	Santa Lucía Utatlán 	7	Santa Rita 	4	Abril	2023-04-29T00:00:00	2024-11-08T21:00:00	2	Temperatura media	18
90834	7	Sololá	704	Santa Lucía Utatlán 	7	Santa Rita 	4	Abril	2023-04-29T00:00:00	2024-11-08T21:00:00	4	Temperatura máxima	18.6
90835	7	Sololá	704	Santa Lucía Utatlán 	7	Santa Rita 	4	Abril	2023-04-29T00:00:00	2024-11-08T21:00:00	3	Temperatura mínima	18
90836	7	Sololá	704	Santa Lucía Utatlán 	7	Santa Rita 	4	Abril	2023-04-29T00:00:00	2024-11-08T21:00:00	5	Humedad	90
90837	7	Sololá	704	Santa Lucía Utatlán 	7	Santa Rita 	4	Abril	2023-04-29T00:00:00	2024-11-08T21:00:00	6	Velocidad del viento	1.6
90838	7	Sololá	704	Santa Lucía Utatlán 	7	Santa Rita 	4	Abril	2023-04-29T00:00:00	2024-11-08T21:00:00	7	Dirección del viento	1.61
90839	7	Sololá	704	Santa Lucía Utatlán 	7	Santa Rita 	4	Abril	2023-04-29T00:00:00	2024-11-08T21:00:00	1	Precipitación	0
90840	7	Sololá	704	Santa Lucía Utatlán 	7	Santa Rita 	4	Abril	2023-04-29T00:00:00	2024-11-08T21:00:00	8	Radiación solar	0
90841	7	Sololá	704	Santa Lucía Utatlán 	7	Santa Rita 	4	Abril	2023-04-29T00:00:00	2024-11-08T22:00:00	2	Temperatura media	17.8
90842	7	Sololá	704	Santa Lucía Utatlán 	7	Santa Rita 	4	Abril	2023-04-29T00:00:00	2024-11-08T22:00:00	4	Temperatura máxima	18
90843	7	Sololá	704	Santa Lucía Utatlán 	7	Santa Rita 	4	Abril	2023-04-29T00:00:00	2024-11-08T22:00:00	3	Temperatura mínima	17.6
90844	7	Sololá	704	Santa Lucía Utatlán 	7	Santa Rita 	4	Abril	2023-04-29T00:00:00	2024-11-08T22:00:00	5	Humedad	86
90845	7	Sololá	704	Santa Lucía Utatlán 	7	Santa Rita 	4	Abril	2023-04-29T00:00:00	2024-11-08T22:00:00	6	Velocidad del viento	4.8
90846	7	Sololá	704	Santa Lucía Utatlán 	7	Santa Rita 	4	Abril	2023-04-29T00:00:00	2024-11-08T22:00:00	7	Dirección del viento	4.83
90847	7	Sololá	704	Santa Lucía Utatlán 	7	Santa Rita 	4	Abril	2023-04-29T00:00:00	2024-11-08T22:00:00	1	Precipitación	0
90848	7	Sololá	704	Santa Lucía Utatlán 	7	Santa Rita 	4	Abril	2023-04-29T00:00:00	2024-11-08T22:00:00	8	Radiación solar	0
90849	7	Sololá	704	Santa Lucía Utatlán 	7	Santa Rita 	4	Abril	2023-04-29T00:00:00	2024-11-08T23:00:00	2	Temperatura media	17.8
90850	7	Sololá	704	Santa Lucía Utatlán 	7	Santa Rita 	4	Abril	2023-04-29T00:00:00	2024-11-08T23:00:00	4	Temperatura máxima	18.3
90851	7	Sololá	704	Santa Lucía Utatlán 	7	Santa Rita 	4	Abril	2023-04-29T00:00:00	2024-11-08T23:00:00	3	Temperatura mínima	17.8
90852	7	Sololá	704	Santa Lucía Utatlán 	7	Santa Rita 	4	Abril	2023-04-29T00:00:00	2024-11-08T23:00:00	5	Humedad	89
90853	7	Sololá	704	Santa Lucía Utatlán 	7	Santa Rita 	4	Abril	2023-04-29T00:00:00	2024-11-08T23:00:00	6	Velocidad del viento	3.2
90854	7	Sololá	704	Santa Lucía Utatlán 	7	Santa Rita 	4	Abril	2023-04-29T00:00:00	2024-11-08T23:00:00	7	Dirección del viento	3.22
90855	7	Sololá	704	Santa Lucía Utatlán 	7	Santa Rita 	4	Abril	2023-04-29T00:00:00	2024-11-08T23:00:00	1	Precipitación	0
90856	7	Sololá	704	Santa Lucía Utatlán 	7	Santa Rita 	4	Abril	2023-04-29T00:00:00	2024-11-08T23:00:00	8	Radiación solar	0
90857	7	Sololá	704	Santa Lucía Utatlán 	7	Santa Rita 	4	Abril	2023-04-30T00:00:00	2024-11-08T00:00:00	2	Temperatura media	19.6
90858	7	Sololá	704	Santa Lucía Utatlán 	7	Santa Rita 	4	Abril	2023-04-30T00:00:00	2024-11-08T00:00:00	4	Temperatura máxima	19.6
90859	7	Sololá	704	Santa Lucía Utatlán 	7	Santa Rita 	4	Abril	2023-04-30T00:00:00	2024-11-08T00:00:00	3	Temperatura mínima	17.6
90860	7	Sololá	704	Santa Lucía Utatlán 	7	Santa Rita 	4	Abril	2023-04-30T00:00:00	2024-11-08T00:00:00	5	Humedad	81
90861	7	Sololá	704	Santa Lucía Utatlán 	7	Santa Rita 	4	Abril	2023-04-30T00:00:00	2024-11-08T00:00:00	6	Velocidad del viento	3.2
90862	7	Sololá	704	Santa Lucía Utatlán 	7	Santa Rita 	4	Abril	2023-04-30T00:00:00	2024-11-08T00:00:00	7	Dirección del viento	3.22
90863	7	Sololá	704	Santa Lucía Utatlán 	7	Santa Rita 	4	Abril	2023-04-30T00:00:00	2024-11-08T00:00:00	1	Precipitación	0
90864	7	Sololá	704	Santa Lucía Utatlán 	7	Santa Rita 	4	Abril	2023-04-30T00:00:00	2024-11-08T00:00:00	8	Radiación solar	0
90865	7	Sololá	704	Santa Lucía Utatlán 	7	Santa Rita 	4	Abril	2023-04-30T00:00:00	2024-11-08T01:00:00	2	Temperatura media	17.8
90866	7	Sololá	704	Santa Lucía Utatlán 	7	Santa Rita 	4	Abril	2023-04-30T00:00:00	2024-11-08T01:00:00	4	Temperatura máxima	20.5
90867	7	Sololá	704	Santa Lucía Utatlán 	7	Santa Rita 	4	Abril	2023-04-30T00:00:00	2024-11-08T01:00:00	3	Temperatura mínima	17.6
90868	7	Sololá	704	Santa Lucía Utatlán 	7	Santa Rita 	4	Abril	2023-04-30T00:00:00	2024-11-08T01:00:00	5	Humedad	89
90869	7	Sololá	704	Santa Lucía Utatlán 	7	Santa Rita 	4	Abril	2023-04-30T00:00:00	2024-11-08T01:00:00	6	Velocidad del viento	4.8
90870	7	Sololá	704	Santa Lucía Utatlán 	7	Santa Rita 	4	Abril	2023-04-30T00:00:00	2024-11-08T01:00:00	7	Dirección del viento	4.83
90871	7	Sololá	704	Santa Lucía Utatlán 	7	Santa Rita 	4	Abril	2023-04-30T00:00:00	2024-11-08T01:00:00	1	Precipitación	0
90872	7	Sololá	704	Santa Lucía Utatlán 	7	Santa Rita 	4	Abril	2023-04-30T00:00:00	2024-11-08T01:00:00	8	Radiación solar	0
90873	7	Sololá	704	Santa Lucía Utatlán 	7	Santa Rita 	4	Abril	2023-04-30T00:00:00	2024-11-08T02:00:00	2	Temperatura media	17.1
90874	7	Sololá	704	Santa Lucía Utatlán 	7	Santa Rita 	4	Abril	2023-04-30T00:00:00	2024-11-08T02:00:00	4	Temperatura máxima	17.8
90875	7	Sololá	704	Santa Lucía Utatlán 	7	Santa Rita 	4	Abril	2023-04-30T00:00:00	2024-11-08T02:00:00	3	Temperatura mínima	17.1
90876	7	Sololá	704	Santa Lucía Utatlán 	7	Santa Rita 	4	Abril	2023-04-30T00:00:00	2024-11-08T02:00:00	5	Humedad	91
90877	7	Sololá	704	Santa Lucía Utatlán 	7	Santa Rita 	4	Abril	2023-04-30T00:00:00	2024-11-08T02:00:00	6	Velocidad del viento	1.6
90878	7	Sololá	704	Santa Lucía Utatlán 	7	Santa Rita 	4	Abril	2023-04-30T00:00:00	2024-11-08T02:00:00	7	Dirección del viento	1.61
90879	7	Sololá	704	Santa Lucía Utatlán 	7	Santa Rita 	4	Abril	2023-04-30T00:00:00	2024-11-08T02:00:00	1	Precipitación	0
90880	7	Sololá	704	Santa Lucía Utatlán 	7	Santa Rita 	4	Abril	2023-04-30T00:00:00	2024-11-08T02:00:00	8	Radiación solar	0
90881	7	Sololá	704	Santa Lucía Utatlán 	7	Santa Rita 	4	Abril	2023-04-30T00:00:00	2024-11-08T03:00:00	2	Temperatura media	17.7
90882	7	Sololá	704	Santa Lucía Utatlán 	7	Santa Rita 	4	Abril	2023-04-30T00:00:00	2024-11-08T03:00:00	4	Temperatura máxima	18.7
90883	7	Sololá	704	Santa Lucía Utatlán 	7	Santa Rita 	4	Abril	2023-04-30T00:00:00	2024-11-08T03:00:00	3	Temperatura mínima	16.9
90884	7	Sololá	704	Santa Lucía Utatlán 	7	Santa Rita 	4	Abril	2023-04-30T00:00:00	2024-11-08T03:00:00	5	Humedad	88
90885	7	Sololá	704	Santa Lucía Utatlán 	7	Santa Rita 	4	Abril	2023-04-30T00:00:00	2024-11-08T03:00:00	6	Velocidad del viento	4.8
90886	7	Sololá	704	Santa Lucía Utatlán 	7	Santa Rita 	4	Abril	2023-04-30T00:00:00	2024-11-08T03:00:00	7	Dirección del viento	4.83
90887	7	Sololá	704	Santa Lucía Utatlán 	7	Santa Rita 	4	Abril	2023-04-30T00:00:00	2024-11-08T03:00:00	1	Precipitación	0
90888	7	Sololá	704	Santa Lucía Utatlán 	7	Santa Rita 	4	Abril	2023-04-30T00:00:00	2024-11-08T03:00:00	8	Radiación solar	0
90889	7	Sololá	704	Santa Lucía Utatlán 	7	Santa Rita 	4	Abril	2023-04-30T00:00:00	2024-11-08T04:00:00	2	Temperatura media	19.3
90890	7	Sololá	704	Santa Lucía Utatlán 	7	Santa Rita 	4	Abril	2023-04-30T00:00:00	2024-11-08T04:00:00	4	Temperatura máxima	19.3
90891	7	Sololá	704	Santa Lucía Utatlán 	7	Santa Rita 	4	Abril	2023-04-30T00:00:00	2024-11-08T04:00:00	3	Temperatura mínima	17.8
90892	7	Sololá	704	Santa Lucía Utatlán 	7	Santa Rita 	4	Abril	2023-04-30T00:00:00	2024-11-08T04:00:00	5	Humedad	79
90893	7	Sololá	704	Santa Lucía Utatlán 	7	Santa Rita 	4	Abril	2023-04-30T00:00:00	2024-11-08T04:00:00	6	Velocidad del viento	8
90894	7	Sololá	704	Santa Lucía Utatlán 	7	Santa Rita 	4	Abril	2023-04-30T00:00:00	2024-11-08T04:00:00	7	Dirección del viento	8.05
90895	7	Sololá	704	Santa Lucía Utatlán 	7	Santa Rita 	4	Abril	2023-04-30T00:00:00	2024-11-08T04:00:00	1	Precipitación	0
90896	7	Sololá	704	Santa Lucía Utatlán 	7	Santa Rita 	4	Abril	2023-04-30T00:00:00	2024-11-08T04:00:00	8	Radiación solar	0
90897	7	Sololá	704	Santa Lucía Utatlán 	7	Santa Rita 	4	Abril	2023-04-30T00:00:00	2024-11-08T05:00:00	2	Temperatura media	19.6
90898	7	Sololá	704	Santa Lucía Utatlán 	7	Santa Rita 	4	Abril	2023-04-30T00:00:00	2024-11-08T05:00:00	4	Temperatura máxima	19.6
90899	7	Sololá	704	Santa Lucía Utatlán 	7	Santa Rita 	4	Abril	2023-04-30T00:00:00	2024-11-08T05:00:00	3	Temperatura mínima	19.2
90900	7	Sololá	704	Santa Lucía Utatlán 	7	Santa Rita 	4	Abril	2023-04-30T00:00:00	2024-11-08T05:00:00	5	Humedad	77
90901	7	Sololá	704	Santa Lucía Utatlán 	7	Santa Rita 	4	Abril	2023-04-30T00:00:00	2024-11-08T05:00:00	6	Velocidad del viento	8
90902	7	Sololá	704	Santa Lucía Utatlán 	7	Santa Rita 	4	Abril	2023-04-30T00:00:00	2024-11-08T05:00:00	7	Dirección del viento	8.05
90903	7	Sololá	704	Santa Lucía Utatlán 	7	Santa Rita 	4	Abril	2023-04-30T00:00:00	2024-11-08T05:00:00	1	Precipitación	0
90904	7	Sololá	704	Santa Lucía Utatlán 	7	Santa Rita 	4	Abril	2023-04-30T00:00:00	2024-11-08T05:00:00	8	Radiación solar	0
90905	7	Sololá	704	Santa Lucía Utatlán 	7	Santa Rita 	4	Abril	2023-04-30T00:00:00	2024-11-08T06:00:00	2	Temperatura media	18.7
90906	7	Sololá	704	Santa Lucía Utatlán 	7	Santa Rita 	4	Abril	2023-04-30T00:00:00	2024-11-08T06:00:00	4	Temperatura máxima	19.6
90907	7	Sololá	704	Santa Lucía Utatlán 	7	Santa Rita 	4	Abril	2023-04-30T00:00:00	2024-11-08T06:00:00	3	Temperatura mínima	18.6
90908	7	Sololá	704	Santa Lucía Utatlán 	7	Santa Rita 	4	Abril	2023-04-30T00:00:00	2024-11-08T06:00:00	5	Humedad	85
90909	7	Sololá	704	Santa Lucía Utatlán 	7	Santa Rita 	4	Abril	2023-04-30T00:00:00	2024-11-08T06:00:00	6	Velocidad del viento	9.7
90910	7	Sololá	704	Santa Lucía Utatlán 	7	Santa Rita 	4	Abril	2023-04-30T00:00:00	2024-11-08T06:00:00	7	Dirección del viento	9.66
90911	7	Sololá	704	Santa Lucía Utatlán 	7	Santa Rita 	4	Abril	2023-04-30T00:00:00	2024-11-08T06:00:00	1	Precipitación	0
90912	7	Sololá	704	Santa Lucía Utatlán 	7	Santa Rita 	4	Abril	2023-04-30T00:00:00	2024-11-08T06:00:00	8	Radiación solar	0
90913	7	Sololá	704	Santa Lucía Utatlán 	7	Santa Rita 	4	Abril	2023-04-30T00:00:00	2024-11-08T07:00:00	2	Temperatura media	19.6
90914	7	Sololá	704	Santa Lucía Utatlán 	7	Santa Rita 	4	Abril	2023-04-30T00:00:00	2024-11-08T07:00:00	4	Temperatura máxima	19.6
90915	7	Sololá	704	Santa Lucía Utatlán 	7	Santa Rita 	4	Abril	2023-04-30T00:00:00	2024-11-08T07:00:00	3	Temperatura mínima	18.6
90916	7	Sololá	704	Santa Lucía Utatlán 	7	Santa Rita 	4	Abril	2023-04-30T00:00:00	2024-11-08T07:00:00	5	Humedad	79
90917	7	Sololá	704	Santa Lucía Utatlán 	7	Santa Rita 	4	Abril	2023-04-30T00:00:00	2024-11-08T07:00:00	6	Velocidad del viento	8
90918	7	Sololá	704	Santa Lucía Utatlán 	7	Santa Rita 	4	Abril	2023-04-30T00:00:00	2024-11-08T07:00:00	7	Dirección del viento	8.05
90919	7	Sololá	704	Santa Lucía Utatlán 	7	Santa Rita 	4	Abril	2023-04-30T00:00:00	2024-11-08T07:00:00	1	Precipitación	0
90920	7	Sololá	704	Santa Lucía Utatlán 	7	Santa Rita 	4	Abril	2023-04-30T00:00:00	2024-11-08T07:00:00	8	Radiación solar	3
90921	7	Sololá	704	Santa Lucía Utatlán 	7	Santa Rita 	4	Abril	2023-04-30T00:00:00	2024-11-08T08:00:00	2	Temperatura media	20.9
90922	7	Sololá	704	Santa Lucía Utatlán 	7	Santa Rita 	4	Abril	2023-04-30T00:00:00	2024-11-08T08:00:00	4	Temperatura máxima	20.9
90923	7	Sololá	704	Santa Lucía Utatlán 	7	Santa Rita 	4	Abril	2023-04-30T00:00:00	2024-11-08T08:00:00	3	Temperatura mínima	19.3
90924	7	Sololá	704	Santa Lucía Utatlán 	7	Santa Rita 	4	Abril	2023-04-30T00:00:00	2024-11-08T08:00:00	5	Humedad	71
90925	7	Sololá	704	Santa Lucía Utatlán 	7	Santa Rita 	4	Abril	2023-04-30T00:00:00	2024-11-08T08:00:00	6	Velocidad del viento	14.5
90926	7	Sololá	704	Santa Lucía Utatlán 	7	Santa Rita 	4	Abril	2023-04-30T00:00:00	2024-11-08T08:00:00	7	Dirección del viento	14.48
90927	7	Sololá	704	Santa Lucía Utatlán 	7	Santa Rita 	4	Abril	2023-04-30T00:00:00	2024-11-08T08:00:00	1	Precipitación	0
90928	7	Sololá	704	Santa Lucía Utatlán 	7	Santa Rita 	4	Abril	2023-04-30T00:00:00	2024-11-08T08:00:00	8	Radiación solar	116
90929	7	Sololá	704	Santa Lucía Utatlán 	7	Santa Rita 	4	Abril	2023-04-30T00:00:00	2024-11-08T09:00:00	2	Temperatura media	22.8
90930	7	Sololá	704	Santa Lucía Utatlán 	7	Santa Rita 	4	Abril	2023-04-30T00:00:00	2024-11-08T09:00:00	4	Temperatura máxima	22.8
90931	7	Sololá	704	Santa Lucía Utatlán 	7	Santa Rita 	4	Abril	2023-04-30T00:00:00	2024-11-08T09:00:00	3	Temperatura mínima	20.9
90932	7	Sololá	704	Santa Lucía Utatlán 	7	Santa Rita 	4	Abril	2023-04-30T00:00:00	2024-11-08T09:00:00	5	Humedad	61
90933	7	Sololá	704	Santa Lucía Utatlán 	7	Santa Rita 	4	Abril	2023-04-30T00:00:00	2024-11-08T09:00:00	6	Velocidad del viento	14.5
90934	7	Sololá	704	Santa Lucía Utatlán 	7	Santa Rita 	4	Abril	2023-04-30T00:00:00	2024-11-08T09:00:00	7	Dirección del viento	14.48
90935	7	Sololá	704	Santa Lucía Utatlán 	7	Santa Rita 	4	Abril	2023-04-30T00:00:00	2024-11-08T09:00:00	1	Precipitación	0
90936	7	Sololá	704	Santa Lucía Utatlán 	7	Santa Rita 	4	Abril	2023-04-30T00:00:00	2024-11-08T09:00:00	8	Radiación solar	346
90937	7	Sololá	704	Santa Lucía Utatlán 	7	Santa Rita 	4	Abril	2023-04-30T00:00:00	2024-11-08T10:00:00	2	Temperatura media	25.2
90938	7	Sololá	704	Santa Lucía Utatlán 	7	Santa Rita 	4	Abril	2023-04-30T00:00:00	2024-11-08T10:00:00	4	Temperatura máxima	25.2
90939	7	Sololá	704	Santa Lucía Utatlán 	7	Santa Rita 	4	Abril	2023-04-30T00:00:00	2024-11-08T10:00:00	3	Temperatura mínima	22.8
90940	7	Sololá	704	Santa Lucía Utatlán 	7	Santa Rita 	4	Abril	2023-04-30T00:00:00	2024-11-08T10:00:00	5	Humedad	54
90941	7	Sololá	704	Santa Lucía Utatlán 	7	Santa Rita 	4	Abril	2023-04-30T00:00:00	2024-11-08T10:00:00	6	Velocidad del viento	8
90942	7	Sololá	704	Santa Lucía Utatlán 	7	Santa Rita 	4	Abril	2023-04-30T00:00:00	2024-11-08T10:00:00	7	Dirección del viento	8.05
90943	7	Sololá	704	Santa Lucía Utatlán 	7	Santa Rita 	4	Abril	2023-04-30T00:00:00	2024-11-08T10:00:00	1	Precipitación	0
90944	7	Sololá	704	Santa Lucía Utatlán 	7	Santa Rita 	4	Abril	2023-04-30T00:00:00	2024-11-08T10:00:00	8	Radiación solar	636
90945	7	Sololá	704	Santa Lucía Utatlán 	7	Santa Rita 	4	Abril	2023-04-30T00:00:00	2024-11-08T11:00:00	2	Temperatura media	26.7
90946	7	Sololá	704	Santa Lucía Utatlán 	7	Santa Rita 	4	Abril	2023-04-30T00:00:00	2024-11-08T11:00:00	4	Temperatura máxima	26.8
90947	7	Sololá	704	Santa Lucía Utatlán 	7	Santa Rita 	4	Abril	2023-04-30T00:00:00	2024-11-08T11:00:00	3	Temperatura mínima	25.1
90948	7	Sololá	704	Santa Lucía Utatlán 	7	Santa Rita 	4	Abril	2023-04-30T00:00:00	2024-11-08T11:00:00	5	Humedad	52
90949	7	Sololá	704	Santa Lucía Utatlán 	7	Santa Rita 	4	Abril	2023-04-30T00:00:00	2024-11-08T11:00:00	6	Velocidad del viento	6.4
90950	7	Sololá	704	Santa Lucía Utatlán 	7	Santa Rita 	4	Abril	2023-04-30T00:00:00	2024-11-08T11:00:00	7	Dirección del viento	6.44
90951	7	Sololá	704	Santa Lucía Utatlán 	7	Santa Rita 	4	Abril	2023-04-30T00:00:00	2024-11-08T11:00:00	1	Precipitación	0
90952	7	Sololá	704	Santa Lucía Utatlán 	7	Santa Rita 	4	Abril	2023-04-30T00:00:00	2024-11-08T11:00:00	8	Radiación solar	803
90953	7	Sololá	704	Santa Lucía Utatlán 	7	Santa Rita 	4	Abril	2023-04-30T00:00:00	2024-11-08T12:00:00	2	Temperatura media	25.9
90954	7	Sololá	704	Santa Lucía Utatlán 	7	Santa Rita 	4	Abril	2023-04-30T00:00:00	2024-11-08T12:00:00	4	Temperatura máxima	26.8
90955	7	Sololá	704	Santa Lucía Utatlán 	7	Santa Rita 	4	Abril	2023-04-30T00:00:00	2024-11-08T12:00:00	3	Temperatura mínima	25.8
90956	7	Sololá	704	Santa Lucía Utatlán 	7	Santa Rita 	4	Abril	2023-04-30T00:00:00	2024-11-08T12:00:00	5	Humedad	63
90957	7	Sololá	704	Santa Lucía Utatlán 	7	Santa Rita 	4	Abril	2023-04-30T00:00:00	2024-11-08T12:00:00	6	Velocidad del viento	9.7
90958	7	Sololá	704	Santa Lucía Utatlán 	7	Santa Rita 	4	Abril	2023-04-30T00:00:00	2024-11-08T12:00:00	7	Dirección del viento	9.66
90959	7	Sololá	704	Santa Lucía Utatlán 	7	Santa Rita 	4	Abril	2023-04-30T00:00:00	2024-11-08T12:00:00	1	Precipitación	0
90960	7	Sololá	704	Santa Lucía Utatlán 	7	Santa Rita 	4	Abril	2023-04-30T00:00:00	2024-11-08T12:00:00	8	Radiación solar	918
90961	7	Sololá	704	Santa Lucía Utatlán 	7	Santa Rita 	4	Abril	2023-04-30T00:00:00	2024-11-08T13:00:00	2	Temperatura media	26.8
90962	7	Sololá	704	Santa Lucía Utatlán 	7	Santa Rita 	4	Abril	2023-04-30T00:00:00	2024-11-08T13:00:00	4	Temperatura máxima	26.8
90963	7	Sololá	704	Santa Lucía Utatlán 	7	Santa Rita 	4	Abril	2023-04-30T00:00:00	2024-11-08T13:00:00	3	Temperatura mínima	25.7
90964	7	Sololá	704	Santa Lucía Utatlán 	7	Santa Rita 	4	Abril	2023-04-30T00:00:00	2024-11-08T13:00:00	5	Humedad	56
90965	7	Sololá	704	Santa Lucía Utatlán 	7	Santa Rita 	4	Abril	2023-04-30T00:00:00	2024-11-08T13:00:00	6	Velocidad del viento	9.7
90966	7	Sololá	704	Santa Lucía Utatlán 	7	Santa Rita 	4	Abril	2023-04-30T00:00:00	2024-11-08T13:00:00	7	Dirección del viento	9.66
90967	7	Sololá	704	Santa Lucía Utatlán 	7	Santa Rita 	4	Abril	2023-04-30T00:00:00	2024-11-08T13:00:00	1	Precipitación	0
90968	7	Sololá	704	Santa Lucía Utatlán 	7	Santa Rita 	4	Abril	2023-04-30T00:00:00	2024-11-08T13:00:00	8	Radiación solar	1037
90969	7	Sololá	704	Santa Lucía Utatlán 	7	Santa Rita 	4	Abril	2023-04-30T00:00:00	2024-11-08T14:00:00	2	Temperatura media	27.1
90970	7	Sololá	704	Santa Lucía Utatlán 	7	Santa Rita 	4	Abril	2023-04-30T00:00:00	2024-11-08T14:00:00	4	Temperatura máxima	27.3
90971	7	Sololá	704	Santa Lucía Utatlán 	7	Santa Rita 	4	Abril	2023-04-30T00:00:00	2024-11-08T14:00:00	3	Temperatura mínima	26.8
90972	7	Sololá	704	Santa Lucía Utatlán 	7	Santa Rita 	4	Abril	2023-04-30T00:00:00	2024-11-08T14:00:00	5	Humedad	61
90973	7	Sololá	704	Santa Lucía Utatlán 	7	Santa Rita 	4	Abril	2023-04-30T00:00:00	2024-11-08T14:00:00	6	Velocidad del viento	11.3
90974	7	Sololá	704	Santa Lucía Utatlán 	7	Santa Rita 	4	Abril	2023-04-30T00:00:00	2024-11-08T14:00:00	7	Dirección del viento	11.27
90975	7	Sololá	704	Santa Lucía Utatlán 	7	Santa Rita 	4	Abril	2023-04-30T00:00:00	2024-11-08T14:00:00	1	Precipitación	0
90976	7	Sololá	704	Santa Lucía Utatlán 	7	Santa Rita 	4	Abril	2023-04-30T00:00:00	2024-11-08T14:00:00	8	Radiación solar	1002
90977	7	Sololá	704	Santa Lucía Utatlán 	7	Santa Rita 	4	Abril	2023-04-30T00:00:00	2024-11-08T15:00:00	2	Temperatura media	24.6
90978	7	Sololá	704	Santa Lucía Utatlán 	7	Santa Rita 	4	Abril	2023-04-30T00:00:00	2024-11-08T15:00:00	4	Temperatura máxima	27.1
90979	7	Sololá	704	Santa Lucía Utatlán 	7	Santa Rita 	4	Abril	2023-04-30T00:00:00	2024-11-08T15:00:00	3	Temperatura mínima	24.6
90980	7	Sololá	704	Santa Lucía Utatlán 	7	Santa Rita 	4	Abril	2023-04-30T00:00:00	2024-11-08T15:00:00	5	Humedad	76
90981	7	Sololá	704	Santa Lucía Utatlán 	7	Santa Rita 	4	Abril	2023-04-30T00:00:00	2024-11-08T15:00:00	6	Velocidad del viento	8
90982	7	Sololá	704	Santa Lucía Utatlán 	7	Santa Rita 	4	Abril	2023-04-30T00:00:00	2024-11-08T15:00:00	7	Dirección del viento	8.05
90983	7	Sololá	704	Santa Lucía Utatlán 	7	Santa Rita 	4	Abril	2023-04-30T00:00:00	2024-11-08T15:00:00	1	Precipitación	0
90984	7	Sololá	704	Santa Lucía Utatlán 	7	Santa Rita 	4	Abril	2023-04-30T00:00:00	2024-11-08T15:00:00	8	Radiación solar	252
90985	7	Sololá	704	Santa Lucía Utatlán 	7	Santa Rita 	4	Abril	2023-04-30T00:00:00	2024-11-08T16:00:00	2	Temperatura media	23.2
90986	7	Sololá	704	Santa Lucía Utatlán 	7	Santa Rita 	4	Abril	2023-04-30T00:00:00	2024-11-08T16:00:00	4	Temperatura máxima	24.7
90987	7	Sololá	704	Santa Lucía Utatlán 	7	Santa Rita 	4	Abril	2023-04-30T00:00:00	2024-11-08T16:00:00	3	Temperatura mínima	23.2
90988	7	Sololá	704	Santa Lucía Utatlán 	7	Santa Rita 	4	Abril	2023-04-30T00:00:00	2024-11-08T16:00:00	5	Humedad	82
90989	7	Sololá	704	Santa Lucía Utatlán 	7	Santa Rita 	4	Abril	2023-04-30T00:00:00	2024-11-08T16:00:00	6	Velocidad del viento	6.4
90990	7	Sololá	704	Santa Lucía Utatlán 	7	Santa Rita 	4	Abril	2023-04-30T00:00:00	2024-11-08T16:00:00	7	Dirección del viento	6.44
90991	7	Sololá	704	Santa Lucía Utatlán 	7	Santa Rita 	4	Abril	2023-04-30T00:00:00	2024-11-08T16:00:00	1	Precipitación	0
90992	7	Sololá	704	Santa Lucía Utatlán 	7	Santa Rita 	4	Abril	2023-04-30T00:00:00	2024-11-08T16:00:00	8	Radiación solar	158
90993	7	Sololá	704	Santa Lucía Utatlán 	7	Santa Rita 	4	Abril	2023-04-30T00:00:00	2024-11-08T17:00:00	2	Temperatura media	23.7
90994	7	Sololá	704	Santa Lucía Utatlán 	7	Santa Rita 	4	Abril	2023-04-30T00:00:00	2024-11-08T17:00:00	4	Temperatura máxima	23.8
90995	7	Sololá	704	Santa Lucía Utatlán 	7	Santa Rita 	4	Abril	2023-04-30T00:00:00	2024-11-08T17:00:00	3	Temperatura mínima	22.7
90996	7	Sololá	704	Santa Lucía Utatlán 	7	Santa Rita 	4	Abril	2023-04-30T00:00:00	2024-11-08T17:00:00	5	Humedad	82
90997	7	Sololá	704	Santa Lucía Utatlán 	7	Santa Rita 	4	Abril	2023-04-30T00:00:00	2024-11-08T17:00:00	6	Velocidad del viento	3.2
90998	7	Sololá	704	Santa Lucía Utatlán 	7	Santa Rita 	4	Abril	2023-04-30T00:00:00	2024-11-08T17:00:00	7	Dirección del viento	3.22
90999	7	Sololá	704	Santa Lucía Utatlán 	7	Santa Rita 	4	Abril	2023-04-30T00:00:00	2024-11-08T17:00:00	1	Precipitación	0
91000	7	Sololá	704	Santa Lucía Utatlán 	7	Santa Rita 	4	Abril	2023-04-30T00:00:00	2024-11-08T17:00:00	8	Radiación solar	137
91001	7	Sololá	704	Santa Lucía Utatlán 	7	Santa Rita 	4	Abril	2023-04-30T00:00:00	2024-11-08T18:00:00	2	Temperatura media	22.1
91002	7	Sololá	704	Santa Lucía Utatlán 	7	Santa Rita 	4	Abril	2023-04-30T00:00:00	2024-11-08T18:00:00	4	Temperatura máxima	23.7
91003	7	Sololá	704	Santa Lucía Utatlán 	7	Santa Rita 	4	Abril	2023-04-30T00:00:00	2024-11-08T18:00:00	3	Temperatura mínima	22.1
91004	7	Sololá	704	Santa Lucía Utatlán 	7	Santa Rita 	4	Abril	2023-04-30T00:00:00	2024-11-08T18:00:00	5	Humedad	89
91005	7	Sololá	704	Santa Lucía Utatlán 	7	Santa Rita 	4	Abril	2023-04-30T00:00:00	2024-11-08T18:00:00	6	Velocidad del viento	4.8
91006	7	Sololá	704	Santa Lucía Utatlán 	7	Santa Rita 	4	Abril	2023-04-30T00:00:00	2024-11-08T18:00:00	7	Dirección del viento	4.83
91007	7	Sololá	704	Santa Lucía Utatlán 	7	Santa Rita 	4	Abril	2023-04-30T00:00:00	2024-11-08T18:00:00	1	Precipitación	0
91008	7	Sololá	704	Santa Lucía Utatlán 	7	Santa Rita 	4	Abril	2023-04-30T00:00:00	2024-11-08T18:00:00	8	Radiación solar	64
91009	7	Sololá	704	Santa Lucía Utatlán 	7	Santa Rita 	4	Abril	2023-04-30T00:00:00	2024-11-08T19:00:00	2	Temperatura media	21.6
91010	7	Sololá	704	Santa Lucía Utatlán 	7	Santa Rita 	4	Abril	2023-04-30T00:00:00	2024-11-08T19:00:00	4	Temperatura máxima	22.1
91011	7	Sololá	704	Santa Lucía Utatlán 	7	Santa Rita 	4	Abril	2023-04-30T00:00:00	2024-11-08T19:00:00	3	Temperatura mínima	21.6
91012	7	Sololá	704	Santa Lucía Utatlán 	7	Santa Rita 	4	Abril	2023-04-30T00:00:00	2024-11-08T19:00:00	5	Humedad	88
91013	7	Sololá	704	Santa Lucía Utatlán 	7	Santa Rita 	4	Abril	2023-04-30T00:00:00	2024-11-08T19:00:00	6	Velocidad del viento	3.2
91014	7	Sololá	704	Santa Lucía Utatlán 	7	Santa Rita 	4	Abril	2023-04-30T00:00:00	2024-11-08T19:00:00	7	Dirección del viento	3.22
91015	7	Sololá	704	Santa Lucía Utatlán 	7	Santa Rita 	4	Abril	2023-04-30T00:00:00	2024-11-08T19:00:00	1	Precipitación	0
91016	7	Sololá	704	Santa Lucía Utatlán 	7	Santa Rita 	4	Abril	2023-04-30T00:00:00	2024-11-08T19:00:00	8	Radiación solar	0
91017	7	Sololá	704	Santa Lucía Utatlán 	7	Santa Rita 	4	Abril	2023-04-30T00:00:00	2024-11-08T20:00:00	2	Temperatura media	20.8
91018	7	Sololá	704	Santa Lucía Utatlán 	7	Santa Rita 	4	Abril	2023-04-30T00:00:00	2024-11-08T20:00:00	4	Temperatura máxima	21.8
91019	7	Sololá	704	Santa Lucía Utatlán 	7	Santa Rita 	4	Abril	2023-04-30T00:00:00	2024-11-08T20:00:00	3	Temperatura mínima	20.8
91020	7	Sololá	704	Santa Lucía Utatlán 	7	Santa Rita 	4	Abril	2023-04-30T00:00:00	2024-11-08T20:00:00	5	Humedad	83
91021	7	Sololá	704	Santa Lucía Utatlán 	7	Santa Rita 	4	Abril	2023-04-30T00:00:00	2024-11-08T20:00:00	6	Velocidad del viento	3.2
91022	7	Sololá	704	Santa Lucía Utatlán 	7	Santa Rita 	4	Abril	2023-04-30T00:00:00	2024-11-08T20:00:00	7	Dirección del viento	3.22
91023	7	Sololá	704	Santa Lucía Utatlán 	7	Santa Rita 	4	Abril	2023-04-30T00:00:00	2024-11-08T20:00:00	1	Precipitación	0
91024	7	Sololá	704	Santa Lucía Utatlán 	7	Santa Rita 	4	Abril	2023-04-30T00:00:00	2024-11-08T20:00:00	8	Radiación solar	0
91025	7	Sololá	704	Santa Lucía Utatlán 	7	Santa Rita 	4	Abril	2023-04-30T00:00:00	2024-11-08T21:00:00	2	Temperatura media	21.1
91026	7	Sololá	704	Santa Lucía Utatlán 	7	Santa Rita 	4	Abril	2023-04-30T00:00:00	2024-11-08T21:00:00	4	Temperatura máxima	21.1
91027	7	Sololá	704	Santa Lucía Utatlán 	7	Santa Rita 	4	Abril	2023-04-30T00:00:00	2024-11-08T21:00:00	3	Temperatura mínima	20.3
91028	7	Sololá	704	Santa Lucía Utatlán 	7	Santa Rita 	4	Abril	2023-04-30T00:00:00	2024-11-08T21:00:00	5	Humedad	78
91029	7	Sololá	704	Santa Lucía Utatlán 	7	Santa Rita 	4	Abril	2023-04-30T00:00:00	2024-11-08T21:00:00	6	Velocidad del viento	4.8
91030	7	Sololá	704	Santa Lucía Utatlán 	7	Santa Rita 	4	Abril	2023-04-30T00:00:00	2024-11-08T21:00:00	7	Dirección del viento	4.83
91031	7	Sololá	704	Santa Lucía Utatlán 	7	Santa Rita 	4	Abril	2023-04-30T00:00:00	2024-11-08T21:00:00	1	Precipitación	0
91032	7	Sololá	704	Santa Lucía Utatlán 	7	Santa Rita 	4	Abril	2023-04-30T00:00:00	2024-11-08T21:00:00	8	Radiación solar	0
91033	7	Sololá	704	Santa Lucía Utatlán 	7	Santa Rita 	4	Abril	2023-04-30T00:00:00	2024-11-08T22:00:00	2	Temperatura media	19.6
91034	7	Sololá	704	Santa Lucía Utatlán 	7	Santa Rita 	4	Abril	2023-04-30T00:00:00	2024-11-08T22:00:00	4	Temperatura máxima	21.1
91035	7	Sololá	704	Santa Lucía Utatlán 	7	Santa Rita 	4	Abril	2023-04-30T00:00:00	2024-11-08T22:00:00	3	Temperatura mínima	19.6
91036	7	Sololá	704	Santa Lucía Utatlán 	7	Santa Rita 	4	Abril	2023-04-30T00:00:00	2024-11-08T22:00:00	5	Humedad	85
91037	7	Sololá	704	Santa Lucía Utatlán 	7	Santa Rita 	4	Abril	2023-04-30T00:00:00	2024-11-08T22:00:00	6	Velocidad del viento	3.2
91038	7	Sololá	704	Santa Lucía Utatlán 	7	Santa Rita 	4	Abril	2023-04-30T00:00:00	2024-11-08T22:00:00	7	Dirección del viento	3.22
91039	7	Sololá	704	Santa Lucía Utatlán 	7	Santa Rita 	4	Abril	2023-04-30T00:00:00	2024-11-08T22:00:00	1	Precipitación	0
91040	7	Sololá	704	Santa Lucía Utatlán 	7	Santa Rita 	4	Abril	2023-04-30T00:00:00	2024-11-08T22:00:00	8	Radiación solar	0
91041	7	Sololá	704	Santa Lucía Utatlán 	7	Santa Rita 	4	Abril	2023-04-30T00:00:00	2024-11-08T23:00:00	2	Temperatura media	18.3
91042	7	Sololá	704	Santa Lucía Utatlán 	7	Santa Rita 	4	Abril	2023-04-30T00:00:00	2024-11-08T23:00:00	4	Temperatura máxima	19.6
91043	7	Sololá	704	Santa Lucía Utatlán 	7	Santa Rita 	4	Abril	2023-04-30T00:00:00	2024-11-08T23:00:00	3	Temperatura mínima	18.3
91044	7	Sololá	704	Santa Lucía Utatlán 	7	Santa Rita 	4	Abril	2023-04-30T00:00:00	2024-11-08T23:00:00	5	Humedad	89
91045	7	Sololá	704	Santa Lucía Utatlán 	7	Santa Rita 	4	Abril	2023-04-30T00:00:00	2024-11-08T23:00:00	6	Velocidad del viento	1.6
91046	7	Sololá	704	Santa Lucía Utatlán 	7	Santa Rita 	4	Abril	2023-04-30T00:00:00	2024-11-08T23:00:00	7	Dirección del viento	1.61
91047	7	Sololá	704	Santa Lucía Utatlán 	7	Santa Rita 	4	Abril	2023-04-30T00:00:00	2024-11-08T23:00:00	1	Precipitación	0
91048	7	Sololá	704	Santa Lucía Utatlán 	7	Santa Rita 	4	Abril	2023-04-30T00:00:00	2024-11-08T23:00:00	8	Radiación solar	0
91049	7	Sololá	704	Santa Lucía Utatlán 	7	Santa Rita 	5	Mayo	2023-01-05T00:00:00	2024-11-08T00:00:00	2	Temperatura media	17.6
91050	7	Sololá	704	Santa Lucía Utatlán 	7	Santa Rita 	5	Mayo	2023-01-05T00:00:00	2024-11-08T00:00:00	4	Temperatura máxima	18.3
91051	7	Sololá	704	Santa Lucía Utatlán 	7	Santa Rita 	5	Mayo	2023-01-05T00:00:00	2024-11-08T00:00:00	3	Temperatura mínima	17.6
91052	7	Sololá	704	Santa Lucía Utatlán 	7	Santa Rita 	5	Mayo	2023-01-05T00:00:00	2024-11-08T00:00:00	5	Humedad	90
91053	7	Sololá	704	Santa Lucía Utatlán 	7	Santa Rita 	5	Mayo	2023-01-05T00:00:00	2024-11-08T00:00:00	6	Velocidad del viento	1.6
91054	7	Sololá	704	Santa Lucía Utatlán 	7	Santa Rita 	5	Mayo	2023-01-05T00:00:00	2024-11-08T00:00:00	7	Dirección del viento	1.61
91055	7	Sololá	704	Santa Lucía Utatlán 	7	Santa Rita 	5	Mayo	2023-01-05T00:00:00	2024-11-08T00:00:00	1	Precipitación	0
91056	7	Sololá	704	Santa Lucía Utatlán 	7	Santa Rita 	5	Mayo	2023-01-05T00:00:00	2024-11-08T00:00:00	8	Radiación solar	0
91057	7	Sololá	704	Santa Lucía Utatlán 	7	Santa Rita 	5	Mayo	2023-01-05T00:00:00	2024-11-08T01:00:00	2	Temperatura media	16.8
91058	7	Sololá	704	Santa Lucía Utatlán 	7	Santa Rita 	5	Mayo	2023-01-05T00:00:00	2024-11-08T01:00:00	4	Temperatura máxima	17.6
91059	7	Sololá	704	Santa Lucía Utatlán 	7	Santa Rita 	5	Mayo	2023-01-05T00:00:00	2024-11-08T01:00:00	3	Temperatura mínima	16.8
91060	7	Sololá	704	Santa Lucía Utatlán 	7	Santa Rita 	5	Mayo	2023-01-05T00:00:00	2024-11-08T01:00:00	5	Humedad	89
91061	7	Sololá	704	Santa Lucía Utatlán 	7	Santa Rita 	5	Mayo	2023-01-05T00:00:00	2024-11-08T01:00:00	6	Velocidad del viento	1.6
91062	7	Sololá	704	Santa Lucía Utatlán 	7	Santa Rita 	5	Mayo	2023-01-05T00:00:00	2024-11-08T01:00:00	7	Dirección del viento	1.61
91063	7	Sololá	704	Santa Lucía Utatlán 	7	Santa Rita 	5	Mayo	2023-01-05T00:00:00	2024-11-08T01:00:00	1	Precipitación	0
91064	7	Sololá	704	Santa Lucía Utatlán 	7	Santa Rita 	5	Mayo	2023-01-05T00:00:00	2024-11-08T01:00:00	8	Radiación solar	0
91065	7	Sololá	704	Santa Lucía Utatlán 	7	Santa Rita 	5	Mayo	2023-01-05T00:00:00	2024-11-08T02:00:00	2	Temperatura media	16.4
91066	7	Sololá	704	Santa Lucía Utatlán 	7	Santa Rita 	5	Mayo	2023-01-05T00:00:00	2024-11-08T02:00:00	4	Temperatura máxima	16.9
91067	7	Sololá	704	Santa Lucía Utatlán 	7	Santa Rita 	5	Mayo	2023-01-05T00:00:00	2024-11-08T02:00:00	3	Temperatura mínima	16.4
91068	7	Sololá	704	Santa Lucía Utatlán 	7	Santa Rita 	5	Mayo	2023-01-05T00:00:00	2024-11-08T02:00:00	5	Humedad	88
91069	7	Sololá	704	Santa Lucía Utatlán 	7	Santa Rita 	5	Mayo	2023-01-05T00:00:00	2024-11-08T02:00:00	6	Velocidad del viento	1.6
91070	7	Sololá	704	Santa Lucía Utatlán 	7	Santa Rita 	5	Mayo	2023-01-05T00:00:00	2024-11-08T02:00:00	7	Dirección del viento	1.61
91071	7	Sololá	704	Santa Lucía Utatlán 	7	Santa Rita 	5	Mayo	2023-01-05T00:00:00	2024-11-08T02:00:00	1	Precipitación	0
91072	7	Sololá	704	Santa Lucía Utatlán 	7	Santa Rita 	5	Mayo	2023-01-05T00:00:00	2024-11-08T02:00:00	8	Radiación solar	0
91073	7	Sololá	704	Santa Lucía Utatlán 	7	Santa Rita 	5	Mayo	2023-01-05T00:00:00	2024-11-08T03:00:00	2	Temperatura media	16.6
91074	7	Sololá	704	Santa Lucía Utatlán 	7	Santa Rita 	5	Mayo	2023-01-05T00:00:00	2024-11-08T03:00:00	4	Temperatura máxima	16.7
91075	7	Sololá	704	Santa Lucía Utatlán 	7	Santa Rita 	5	Mayo	2023-01-05T00:00:00	2024-11-08T03:00:00	3	Temperatura mínima	16.4
91076	7	Sololá	704	Santa Lucía Utatlán 	7	Santa Rita 	5	Mayo	2023-01-05T00:00:00	2024-11-08T03:00:00	5	Humedad	85
91077	7	Sololá	704	Santa Lucía Utatlán 	7	Santa Rita 	5	Mayo	2023-01-05T00:00:00	2024-11-08T03:00:00	6	Velocidad del viento	1.6
91078	7	Sololá	704	Santa Lucía Utatlán 	7	Santa Rita 	5	Mayo	2023-01-05T00:00:00	2024-11-08T03:00:00	7	Dirección del viento	1.61
91079	7	Sololá	704	Santa Lucía Utatlán 	7	Santa Rita 	5	Mayo	2023-01-05T00:00:00	2024-11-08T03:00:00	1	Precipitación	0
91080	7	Sololá	704	Santa Lucía Utatlán 	7	Santa Rita 	5	Mayo	2023-01-05T00:00:00	2024-11-08T03:00:00	8	Radiación solar	0
91081	7	Sololá	704	Santa Lucía Utatlán 	7	Santa Rita 	5	Mayo	2023-01-05T00:00:00	2024-11-08T04:00:00	2	Temperatura media	16.7
91082	7	Sololá	704	Santa Lucía Utatlán 	7	Santa Rita 	5	Mayo	2023-01-05T00:00:00	2024-11-08T04:00:00	4	Temperatura máxima	16.8
91083	7	Sololá	704	Santa Lucía Utatlán 	7	Santa Rita 	5	Mayo	2023-01-05T00:00:00	2024-11-08T04:00:00	3	Temperatura mínima	16.6
91084	7	Sololá	704	Santa Lucía Utatlán 	7	Santa Rita 	5	Mayo	2023-01-05T00:00:00	2024-11-08T04:00:00	5	Humedad	85
91085	7	Sololá	704	Santa Lucía Utatlán 	7	Santa Rita 	5	Mayo	2023-01-05T00:00:00	2024-11-08T04:00:00	6	Velocidad del viento	1.6
91086	7	Sololá	704	Santa Lucía Utatlán 	7	Santa Rita 	5	Mayo	2023-01-05T00:00:00	2024-11-08T04:00:00	7	Dirección del viento	1.61
91087	7	Sololá	704	Santa Lucía Utatlán 	7	Santa Rita 	5	Mayo	2023-01-05T00:00:00	2024-11-08T04:00:00	1	Precipitación	0
91088	7	Sololá	704	Santa Lucía Utatlán 	7	Santa Rita 	5	Mayo	2023-01-05T00:00:00	2024-11-08T04:00:00	8	Radiación solar	0
91089	7	Sololá	704	Santa Lucía Utatlán 	7	Santa Rita 	5	Mayo	2023-01-05T00:00:00	2024-11-08T05:00:00	2	Temperatura media	17.3
91090	7	Sololá	704	Santa Lucía Utatlán 	7	Santa Rita 	5	Mayo	2023-01-05T00:00:00	2024-11-08T05:00:00	4	Temperatura máxima	17.3
91091	7	Sololá	704	Santa Lucía Utatlán 	7	Santa Rita 	5	Mayo	2023-01-05T00:00:00	2024-11-08T05:00:00	3	Temperatura mínima	16.7
91092	7	Sololá	704	Santa Lucía Utatlán 	7	Santa Rita 	5	Mayo	2023-01-05T00:00:00	2024-11-08T05:00:00	5	Humedad	85
91093	7	Sololá	704	Santa Lucía Utatlán 	7	Santa Rita 	5	Mayo	2023-01-05T00:00:00	2024-11-08T05:00:00	6	Velocidad del viento	1.6
91094	7	Sololá	704	Santa Lucía Utatlán 	7	Santa Rita 	5	Mayo	2023-01-05T00:00:00	2024-11-08T05:00:00	7	Dirección del viento	1.61
91095	7	Sololá	704	Santa Lucía Utatlán 	7	Santa Rita 	5	Mayo	2023-01-05T00:00:00	2024-11-08T05:00:00	1	Precipitación	0
91096	7	Sololá	704	Santa Lucía Utatlán 	7	Santa Rita 	5	Mayo	2023-01-05T00:00:00	2024-11-08T05:00:00	8	Radiación solar	0
91097	7	Sololá	704	Santa Lucía Utatlán 	7	Santa Rita 	5	Mayo	2023-01-05T00:00:00	2024-11-08T06:00:00	2	Temperatura media	17.3
91098	7	Sololá	704	Santa Lucía Utatlán 	7	Santa Rita 	5	Mayo	2023-01-05T00:00:00	2024-11-08T06:00:00	4	Temperatura máxima	17.3
91099	7	Sololá	704	Santa Lucía Utatlán 	7	Santa Rita 	5	Mayo	2023-01-05T00:00:00	2024-11-08T06:00:00	3	Temperatura mínima	16.9
91100	7	Sololá	704	Santa Lucía Utatlán 	7	Santa Rita 	5	Mayo	2023-01-05T00:00:00	2024-11-08T06:00:00	5	Humedad	87
91101	7	Sololá	704	Santa Lucía Utatlán 	7	Santa Rita 	5	Mayo	2023-01-05T00:00:00	2024-11-08T06:00:00	6	Velocidad del viento	1.6
91102	7	Sololá	704	Santa Lucía Utatlán 	7	Santa Rita 	5	Mayo	2023-01-05T00:00:00	2024-11-08T06:00:00	7	Dirección del viento	1.61
91103	7	Sololá	704	Santa Lucía Utatlán 	7	Santa Rita 	5	Mayo	2023-01-05T00:00:00	2024-11-08T06:00:00	1	Precipitación	0
91104	7	Sololá	704	Santa Lucía Utatlán 	7	Santa Rita 	5	Mayo	2023-01-05T00:00:00	2024-11-08T06:00:00	8	Radiación solar	0
91105	7	Sololá	704	Santa Lucía Utatlán 	7	Santa Rita 	5	Mayo	2023-01-05T00:00:00	2024-11-08T07:00:00	2	Temperatura media	16.3
91106	7	Sololá	704	Santa Lucía Utatlán 	7	Santa Rita 	5	Mayo	2023-01-05T00:00:00	2024-11-08T07:00:00	4	Temperatura máxima	17.4
91107	7	Sololá	704	Santa Lucía Utatlán 	7	Santa Rita 	5	Mayo	2023-01-05T00:00:00	2024-11-08T07:00:00	3	Temperatura mínima	16.3
91108	7	Sololá	704	Santa Lucía Utatlán 	7	Santa Rita 	5	Mayo	2023-01-05T00:00:00	2024-11-08T07:00:00	5	Humedad	89
91109	7	Sololá	704	Santa Lucía Utatlán 	7	Santa Rita 	5	Mayo	2023-01-05T00:00:00	2024-11-08T07:00:00	6	Velocidad del viento	1.6
91110	7	Sololá	704	Santa Lucía Utatlán 	7	Santa Rita 	5	Mayo	2023-01-05T00:00:00	2024-11-08T07:00:00	7	Dirección del viento	1.61
91111	7	Sololá	704	Santa Lucía Utatlán 	7	Santa Rita 	5	Mayo	2023-01-05T00:00:00	2024-11-08T07:00:00	1	Precipitación	0
91112	7	Sololá	704	Santa Lucía Utatlán 	7	Santa Rita 	5	Mayo	2023-01-05T00:00:00	2024-11-08T07:00:00	8	Radiación solar	3
91113	7	Sololá	704	Santa Lucía Utatlán 	7	Santa Rita 	5	Mayo	2023-01-05T00:00:00	2024-11-08T08:00:00	2	Temperatura media	19.6
91114	7	Sololá	704	Santa Lucía Utatlán 	7	Santa Rita 	5	Mayo	2023-01-05T00:00:00	2024-11-08T08:00:00	4	Temperatura máxima	19.6
91115	7	Sololá	704	Santa Lucía Utatlán 	7	Santa Rita 	5	Mayo	2023-01-05T00:00:00	2024-11-08T08:00:00	3	Temperatura mínima	16.2
91116	7	Sololá	704	Santa Lucía Utatlán 	7	Santa Rita 	5	Mayo	2023-01-05T00:00:00	2024-11-08T08:00:00	5	Humedad	81
91117	7	Sololá	704	Santa Lucía Utatlán 	7	Santa Rita 	5	Mayo	2023-01-05T00:00:00	2024-11-08T08:00:00	6	Velocidad del viento	1.6
91118	7	Sololá	704	Santa Lucía Utatlán 	7	Santa Rita 	5	Mayo	2023-01-05T00:00:00	2024-11-08T08:00:00	7	Dirección del viento	1.61
91119	7	Sololá	704	Santa Lucía Utatlán 	7	Santa Rita 	5	Mayo	2023-01-05T00:00:00	2024-11-08T08:00:00	1	Precipitación	0
91120	7	Sololá	704	Santa Lucía Utatlán 	7	Santa Rita 	5	Mayo	2023-01-05T00:00:00	2024-11-08T08:00:00	8	Radiación solar	113
91121	7	Sololá	704	Santa Lucía Utatlán 	7	Santa Rita 	5	Mayo	2023-01-05T00:00:00	2024-11-08T09:00:00	2	Temperatura media	21.7
91122	7	Sololá	704	Santa Lucía Utatlán 	7	Santa Rita 	5	Mayo	2023-01-05T00:00:00	2024-11-08T09:00:00	4	Temperatura máxima	21.7
91123	7	Sololá	704	Santa Lucía Utatlán 	7	Santa Rita 	5	Mayo	2023-01-05T00:00:00	2024-11-08T09:00:00	3	Temperatura mínima	19.6
91124	7	Sololá	704	Santa Lucía Utatlán 	7	Santa Rita 	5	Mayo	2023-01-05T00:00:00	2024-11-08T09:00:00	5	Humedad	75
91125	7	Sololá	704	Santa Lucía Utatlán 	7	Santa Rita 	5	Mayo	2023-01-05T00:00:00	2024-11-08T09:00:00	6	Velocidad del viento	3.2
91126	7	Sololá	704	Santa Lucía Utatlán 	7	Santa Rita 	5	Mayo	2023-01-05T00:00:00	2024-11-08T09:00:00	7	Dirección del viento	3.22
91127	7	Sololá	704	Santa Lucía Utatlán 	7	Santa Rita 	5	Mayo	2023-01-05T00:00:00	2024-11-08T09:00:00	1	Precipitación	0
91128	7	Sololá	704	Santa Lucía Utatlán 	7	Santa Rita 	5	Mayo	2023-01-05T00:00:00	2024-11-08T09:00:00	8	Radiación solar	395
91129	7	Sololá	704	Santa Lucía Utatlán 	7	Santa Rita 	5	Mayo	2023-01-05T00:00:00	2024-11-08T10:00:00	2	Temperatura media	23.4
91130	7	Sololá	704	Santa Lucía Utatlán 	7	Santa Rita 	5	Mayo	2023-01-05T00:00:00	2024-11-08T10:00:00	4	Temperatura máxima	23.4
91131	7	Sololá	704	Santa Lucía Utatlán 	7	Santa Rita 	5	Mayo	2023-01-05T00:00:00	2024-11-08T10:00:00	3	Temperatura mínima	21.7
91132	7	Sololá	704	Santa Lucía Utatlán 	7	Santa Rita 	5	Mayo	2023-01-05T00:00:00	2024-11-08T10:00:00	5	Humedad	72
91133	7	Sololá	704	Santa Lucía Utatlán 	7	Santa Rita 	5	Mayo	2023-01-05T00:00:00	2024-11-08T10:00:00	6	Velocidad del viento	4.8
91134	7	Sololá	704	Santa Lucía Utatlán 	7	Santa Rita 	5	Mayo	2023-01-05T00:00:00	2024-11-08T10:00:00	7	Dirección del viento	4.83
91135	7	Sololá	704	Santa Lucía Utatlán 	7	Santa Rita 	5	Mayo	2023-01-05T00:00:00	2024-11-08T10:00:00	1	Precipitación	0
91136	7	Sololá	704	Santa Lucía Utatlán 	7	Santa Rita 	5	Mayo	2023-01-05T00:00:00	2024-11-08T10:00:00	8	Radiación solar	617
91137	7	Sololá	704	Santa Lucía Utatlán 	7	Santa Rita 	5	Mayo	2023-01-05T00:00:00	2024-11-08T11:00:00	2	Temperatura media	24.5
91138	7	Sololá	704	Santa Lucía Utatlán 	7	Santa Rita 	5	Mayo	2023-01-05T00:00:00	2024-11-08T11:00:00	4	Temperatura máxima	24.6
91139	7	Sololá	704	Santa Lucía Utatlán 	7	Santa Rita 	5	Mayo	2023-01-05T00:00:00	2024-11-08T11:00:00	3	Temperatura mínima	23.4
91140	7	Sololá	704	Santa Lucía Utatlán 	7	Santa Rita 	5	Mayo	2023-01-05T00:00:00	2024-11-08T11:00:00	5	Humedad	68
91141	7	Sololá	704	Santa Lucía Utatlán 	7	Santa Rita 	5	Mayo	2023-01-05T00:00:00	2024-11-08T11:00:00	6	Velocidad del viento	4.8
91142	7	Sololá	704	Santa Lucía Utatlán 	7	Santa Rita 	5	Mayo	2023-01-05T00:00:00	2024-11-08T11:00:00	7	Dirección del viento	4.83
91143	7	Sololá	704	Santa Lucía Utatlán 	7	Santa Rita 	5	Mayo	2023-01-05T00:00:00	2024-11-08T11:00:00	1	Precipitación	0
91144	7	Sololá	704	Santa Lucía Utatlán 	7	Santa Rita 	5	Mayo	2023-01-05T00:00:00	2024-11-08T11:00:00	8	Radiación solar	829
91145	7	Sololá	704	Santa Lucía Utatlán 	7	Santa Rita 	5	Mayo	2023-01-05T00:00:00	2024-11-08T12:00:00	2	Temperatura media	26.4
91146	7	Sololá	704	Santa Lucía Utatlán 	7	Santa Rita 	5	Mayo	2023-01-05T00:00:00	2024-11-08T12:00:00	4	Temperatura máxima	26.5
91147	7	Sololá	704	Santa Lucía Utatlán 	7	Santa Rita 	5	Mayo	2023-01-05T00:00:00	2024-11-08T12:00:00	3	Temperatura mínima	24.3
91148	7	Sololá	704	Santa Lucía Utatlán 	7	Santa Rita 	5	Mayo	2023-01-05T00:00:00	2024-11-08T12:00:00	5	Humedad	60
91149	7	Sololá	704	Santa Lucía Utatlán 	7	Santa Rita 	5	Mayo	2023-01-05T00:00:00	2024-11-08T12:00:00	6	Velocidad del viento	4.8
91150	7	Sololá	704	Santa Lucía Utatlán 	7	Santa Rita 	5	Mayo	2023-01-05T00:00:00	2024-11-08T12:00:00	7	Dirección del viento	4.83
91151	7	Sololá	704	Santa Lucía Utatlán 	7	Santa Rita 	5	Mayo	2023-01-05T00:00:00	2024-11-08T12:00:00	1	Precipitación	0
91152	7	Sololá	704	Santa Lucía Utatlán 	7	Santa Rita 	5	Mayo	2023-01-05T00:00:00	2024-11-08T12:00:00	8	Radiación solar	931
91153	7	Sololá	704	Santa Lucía Utatlán 	7	Santa Rita 	5	Mayo	2023-01-05T00:00:00	2024-11-08T13:00:00	2	Temperatura media	26.3
91154	7	Sololá	704	Santa Lucía Utatlán 	7	Santa Rita 	5	Mayo	2023-01-05T00:00:00	2024-11-08T13:00:00	4	Temperatura máxima	26.4
91155	7	Sololá	704	Santa Lucía Utatlán 	7	Santa Rita 	5	Mayo	2023-01-05T00:00:00	2024-11-08T13:00:00	3	Temperatura mínima	25.9
91156	7	Sololá	704	Santa Lucía Utatlán 	7	Santa Rita 	5	Mayo	2023-01-05T00:00:00	2024-11-08T13:00:00	5	Humedad	61
91157	7	Sololá	704	Santa Lucía Utatlán 	7	Santa Rita 	5	Mayo	2023-01-05T00:00:00	2024-11-08T13:00:00	6	Velocidad del viento	8
91158	7	Sololá	704	Santa Lucía Utatlán 	7	Santa Rita 	5	Mayo	2023-01-05T00:00:00	2024-11-08T13:00:00	7	Dirección del viento	8.05
91159	7	Sololá	704	Santa Lucía Utatlán 	7	Santa Rita 	5	Mayo	2023-01-05T00:00:00	2024-11-08T13:00:00	1	Precipitación	0
91160	7	Sololá	704	Santa Lucía Utatlán 	7	Santa Rita 	5	Mayo	2023-01-05T00:00:00	2024-11-08T13:00:00	8	Radiación solar	1019
91161	7	Sololá	704	Santa Lucía Utatlán 	7	Santa Rita 	5	Mayo	2023-01-05T00:00:00	2024-11-08T14:00:00	2	Temperatura media	26.2
91162	7	Sololá	704	Santa Lucía Utatlán 	7	Santa Rita 	5	Mayo	2023-01-05T00:00:00	2024-11-08T14:00:00	4	Temperatura máxima	26.4
91163	7	Sololá	704	Santa Lucía Utatlán 	7	Santa Rita 	5	Mayo	2023-01-05T00:00:00	2024-11-08T14:00:00	3	Temperatura mínima	26.2
91164	7	Sololá	704	Santa Lucía Utatlán 	7	Santa Rita 	5	Mayo	2023-01-05T00:00:00	2024-11-08T14:00:00	5	Humedad	64
91165	7	Sololá	704	Santa Lucía Utatlán 	7	Santa Rita 	5	Mayo	2023-01-05T00:00:00	2024-11-08T14:00:00	6	Velocidad del viento	8
91166	7	Sololá	704	Santa Lucía Utatlán 	7	Santa Rita 	5	Mayo	2023-01-05T00:00:00	2024-11-08T14:00:00	7	Dirección del viento	8.05
91167	7	Sololá	704	Santa Lucía Utatlán 	7	Santa Rita 	5	Mayo	2023-01-05T00:00:00	2024-11-08T14:00:00	1	Precipitación	0
91168	7	Sololá	704	Santa Lucía Utatlán 	7	Santa Rita 	5	Mayo	2023-01-05T00:00:00	2024-11-08T14:00:00	8	Radiación solar	830
91169	7	Sololá	704	Santa Lucía Utatlán 	7	Santa Rita 	5	Mayo	2023-01-05T00:00:00	2024-11-08T15:00:00	2	Temperatura media	24.9
91170	7	Sololá	704	Santa Lucía Utatlán 	7	Santa Rita 	5	Mayo	2023-01-05T00:00:00	2024-11-08T15:00:00	4	Temperatura máxima	26.2
91171	7	Sololá	704	Santa Lucía Utatlán 	7	Santa Rita 	5	Mayo	2023-01-05T00:00:00	2024-11-08T15:00:00	3	Temperatura mínima	24.9
91172	7	Sololá	704	Santa Lucía Utatlán 	7	Santa Rita 	5	Mayo	2023-01-05T00:00:00	2024-11-08T15:00:00	5	Humedad	74
91173	7	Sololá	704	Santa Lucía Utatlán 	7	Santa Rita 	5	Mayo	2023-01-05T00:00:00	2024-11-08T15:00:00	6	Velocidad del viento	8
91174	7	Sololá	704	Santa Lucía Utatlán 	7	Santa Rita 	5	Mayo	2023-01-05T00:00:00	2024-11-08T15:00:00	7	Dirección del viento	8.05
91175	7	Sololá	704	Santa Lucía Utatlán 	7	Santa Rita 	5	Mayo	2023-01-05T00:00:00	2024-11-08T15:00:00	1	Precipitación	0
91176	7	Sololá	704	Santa Lucía Utatlán 	7	Santa Rita 	5	Mayo	2023-01-05T00:00:00	2024-11-08T15:00:00	8	Radiación solar	701
91177	7	Sololá	704	Santa Lucía Utatlán 	7	Santa Rita 	5	Mayo	2023-01-05T00:00:00	2024-11-08T16:00:00	2	Temperatura media	23.6
91178	7	Sololá	704	Santa Lucía Utatlán 	7	Santa Rita 	5	Mayo	2023-01-05T00:00:00	2024-11-08T16:00:00	4	Temperatura máxima	24.9
91179	7	Sololá	704	Santa Lucía Utatlán 	7	Santa Rita 	5	Mayo	2023-01-05T00:00:00	2024-11-08T16:00:00	3	Temperatura mínima	23.6
91180	7	Sololá	704	Santa Lucía Utatlán 	7	Santa Rita 	5	Mayo	2023-01-05T00:00:00	2024-11-08T16:00:00	5	Humedad	82
91181	7	Sololá	704	Santa Lucía Utatlán 	7	Santa Rita 	5	Mayo	2023-01-05T00:00:00	2024-11-08T16:00:00	6	Velocidad del viento	8
91182	7	Sololá	704	Santa Lucía Utatlán 	7	Santa Rita 	5	Mayo	2023-01-05T00:00:00	2024-11-08T16:00:00	7	Dirección del viento	8.05
91183	7	Sololá	704	Santa Lucía Utatlán 	7	Santa Rita 	5	Mayo	2023-01-05T00:00:00	2024-11-08T16:00:00	1	Precipitación	0
91184	7	Sololá	704	Santa Lucía Utatlán 	7	Santa Rita 	5	Mayo	2023-01-05T00:00:00	2024-11-08T16:00:00	8	Radiación solar	231
91185	7	Sololá	704	Santa Lucía Utatlán 	7	Santa Rita 	5	Mayo	2023-01-05T00:00:00	2024-11-08T17:00:00	2	Temperatura media	22.6
91186	7	Sololá	704	Santa Lucía Utatlán 	7	Santa Rita 	5	Mayo	2023-01-05T00:00:00	2024-11-08T17:00:00	4	Temperatura máxima	23.6
91187	7	Sololá	704	Santa Lucía Utatlán 	7	Santa Rita 	5	Mayo	2023-01-05T00:00:00	2024-11-08T17:00:00	3	Temperatura mínima	22.6
91188	7	Sololá	704	Santa Lucía Utatlán 	7	Santa Rita 	5	Mayo	2023-01-05T00:00:00	2024-11-08T17:00:00	5	Humedad	82
91189	7	Sololá	704	Santa Lucía Utatlán 	7	Santa Rita 	5	Mayo	2023-01-05T00:00:00	2024-11-08T17:00:00	6	Velocidad del viento	4.8
91190	7	Sololá	704	Santa Lucía Utatlán 	7	Santa Rita 	5	Mayo	2023-01-05T00:00:00	2024-11-08T17:00:00	7	Dirección del viento	4.83
91191	7	Sololá	704	Santa Lucía Utatlán 	7	Santa Rita 	5	Mayo	2023-01-05T00:00:00	2024-11-08T17:00:00	1	Precipitación	0
91192	7	Sololá	704	Santa Lucía Utatlán 	7	Santa Rita 	5	Mayo	2023-01-05T00:00:00	2024-11-08T17:00:00	8	Radiación solar	91
91193	7	Sololá	704	Santa Lucía Utatlán 	7	Santa Rita 	5	Mayo	2023-01-05T00:00:00	2024-11-08T18:00:00	2	Temperatura media	22.9
91194	7	Sololá	704	Santa Lucía Utatlán 	7	Santa Rita 	5	Mayo	2023-01-05T00:00:00	2024-11-08T18:00:00	4	Temperatura máxima	23.1
91195	7	Sololá	704	Santa Lucía Utatlán 	7	Santa Rita 	5	Mayo	2023-01-05T00:00:00	2024-11-08T18:00:00	3	Temperatura mínima	22.6
91196	7	Sololá	704	Santa Lucía Utatlán 	7	Santa Rita 	5	Mayo	2023-01-05T00:00:00	2024-11-08T18:00:00	5	Humedad	83
91197	7	Sololá	704	Santa Lucía Utatlán 	7	Santa Rita 	5	Mayo	2023-01-05T00:00:00	2024-11-08T18:00:00	6	Velocidad del viento	3.2
91198	7	Sololá	704	Santa Lucía Utatlán 	7	Santa Rita 	5	Mayo	2023-01-05T00:00:00	2024-11-08T18:00:00	7	Dirección del viento	3.22
91199	7	Sololá	704	Santa Lucía Utatlán 	7	Santa Rita 	5	Mayo	2023-01-05T00:00:00	2024-11-08T18:00:00	1	Precipitación	0
91200	7	Sololá	704	Santa Lucía Utatlán 	7	Santa Rita 	5	Mayo	2023-01-05T00:00:00	2024-11-08T18:00:00	8	Radiación solar	180
91201	7	Sololá	704	Santa Lucía Utatlán 	7	Santa Rita 	5	Mayo	2023-01-05T00:00:00	2024-11-08T19:00:00	2	Temperatura media	21.8
91202	7	Sololá	704	Santa Lucía Utatlán 	7	Santa Rita 	5	Mayo	2023-01-05T00:00:00	2024-11-08T19:00:00	4	Temperatura máxima	22.9
91203	7	Sololá	704	Santa Lucía Utatlán 	7	Santa Rita 	5	Mayo	2023-01-05T00:00:00	2024-11-08T19:00:00	3	Temperatura mínima	21.8
91204	7	Sololá	704	Santa Lucía Utatlán 	7	Santa Rita 	5	Mayo	2023-01-05T00:00:00	2024-11-08T19:00:00	5	Humedad	88
91205	7	Sololá	704	Santa Lucía Utatlán 	7	Santa Rita 	5	Mayo	2023-01-05T00:00:00	2024-11-08T19:00:00	6	Velocidad del viento	1.6
91206	7	Sololá	704	Santa Lucía Utatlán 	7	Santa Rita 	5	Mayo	2023-01-05T00:00:00	2024-11-08T19:00:00	7	Dirección del viento	1.61
91207	7	Sololá	704	Santa Lucía Utatlán 	7	Santa Rita 	5	Mayo	2023-01-05T00:00:00	2024-11-08T19:00:00	1	Precipitación	0
91208	7	Sololá	704	Santa Lucía Utatlán 	7	Santa Rita 	5	Mayo	2023-01-05T00:00:00	2024-11-08T19:00:00	8	Radiación solar	0
91209	7	Sololá	704	Santa Lucía Utatlán 	7	Santa Rita 	5	Mayo	2023-01-05T00:00:00	2024-11-08T20:00:00	2	Temperatura media	21.1
91210	7	Sololá	704	Santa Lucía Utatlán 	7	Santa Rita 	5	Mayo	2023-01-05T00:00:00	2024-11-08T20:00:00	4	Temperatura máxima	21.8
91211	7	Sololá	704	Santa Lucía Utatlán 	7	Santa Rita 	5	Mayo	2023-01-05T00:00:00	2024-11-08T20:00:00	3	Temperatura mínima	21.1
91212	7	Sololá	704	Santa Lucía Utatlán 	7	Santa Rita 	5	Mayo	2023-01-05T00:00:00	2024-11-08T20:00:00	5	Humedad	90
91213	7	Sololá	704	Santa Lucía Utatlán 	7	Santa Rita 	5	Mayo	2023-01-05T00:00:00	2024-11-08T20:00:00	6	Velocidad del viento	1.6
91214	7	Sololá	704	Santa Lucía Utatlán 	7	Santa Rita 	5	Mayo	2023-01-05T00:00:00	2024-11-08T20:00:00	7	Dirección del viento	1.61
91215	7	Sololá	704	Santa Lucía Utatlán 	7	Santa Rita 	5	Mayo	2023-01-05T00:00:00	2024-11-08T20:00:00	1	Precipitación	0
91216	7	Sololá	704	Santa Lucía Utatlán 	7	Santa Rita 	5	Mayo	2023-01-05T00:00:00	2024-11-08T20:00:00	8	Radiación solar	0
91217	7	Sololá	704	Santa Lucía Utatlán 	7	Santa Rita 	5	Mayo	2023-01-05T00:00:00	2024-11-08T21:00:00	2	Temperatura media	20.6
91218	7	Sololá	704	Santa Lucía Utatlán 	7	Santa Rita 	5	Mayo	2023-01-05T00:00:00	2024-11-08T21:00:00	4	Temperatura máxima	21.1
91219	7	Sololá	704	Santa Lucía Utatlán 	7	Santa Rita 	5	Mayo	2023-01-05T00:00:00	2024-11-08T21:00:00	3	Temperatura mínima	20.6
91220	7	Sololá	704	Santa Lucía Utatlán 	7	Santa Rita 	5	Mayo	2023-01-05T00:00:00	2024-11-08T21:00:00	5	Humedad	93
91221	7	Sololá	704	Santa Lucía Utatlán 	7	Santa Rita 	5	Mayo	2023-01-05T00:00:00	2024-11-08T21:00:00	6	Velocidad del viento	3.2
91222	7	Sololá	704	Santa Lucía Utatlán 	7	Santa Rita 	5	Mayo	2023-01-05T00:00:00	2024-11-08T21:00:00	7	Dirección del viento	3.22
91223	7	Sololá	704	Santa Lucía Utatlán 	7	Santa Rita 	5	Mayo	2023-01-05T00:00:00	2024-11-08T21:00:00	1	Precipitación	4.2
91224	7	Sololá	704	Santa Lucía Utatlán 	7	Santa Rita 	5	Mayo	2023-01-05T00:00:00	2024-11-08T21:00:00	8	Radiación solar	0
91225	7	Sololá	704	Santa Lucía Utatlán 	7	Santa Rita 	5	Mayo	2023-01-05T00:00:00	2024-11-08T22:00:00	2	Temperatura media	19.8
91226	7	Sololá	704	Santa Lucía Utatlán 	7	Santa Rita 	5	Mayo	2023-01-05T00:00:00	2024-11-08T22:00:00	4	Temperatura máxima	20.6
91227	7	Sololá	704	Santa Lucía Utatlán 	7	Santa Rita 	5	Mayo	2023-01-05T00:00:00	2024-11-08T22:00:00	3	Temperatura mínima	19.8
91228	7	Sololá	704	Santa Lucía Utatlán 	7	Santa Rita 	5	Mayo	2023-01-05T00:00:00	2024-11-08T22:00:00	5	Humedad	84
91229	7	Sololá	704	Santa Lucía Utatlán 	7	Santa Rita 	5	Mayo	2023-01-05T00:00:00	2024-11-08T22:00:00	6	Velocidad del viento	3.2
91230	7	Sololá	704	Santa Lucía Utatlán 	7	Santa Rita 	5	Mayo	2023-01-05T00:00:00	2024-11-08T22:00:00	7	Dirección del viento	3.22
91231	7	Sololá	704	Santa Lucía Utatlán 	7	Santa Rita 	5	Mayo	2023-01-05T00:00:00	2024-11-08T22:00:00	1	Precipitación	3.6
91232	7	Sololá	704	Santa Lucía Utatlán 	7	Santa Rita 	5	Mayo	2023-01-05T00:00:00	2024-11-08T22:00:00	8	Radiación solar	0
91233	7	Sololá	704	Santa Lucía Utatlán 	7	Santa Rita 	5	Mayo	2023-01-05T00:00:00	2024-11-08T23:00:00	2	Temperatura media	17.7
91234	7	Sololá	704	Santa Lucía Utatlán 	7	Santa Rita 	5	Mayo	2023-01-05T00:00:00	2024-11-08T23:00:00	4	Temperatura máxima	19.8
91235	7	Sololá	704	Santa Lucía Utatlán 	7	Santa Rita 	5	Mayo	2023-01-05T00:00:00	2024-11-08T23:00:00	3	Temperatura mínima	17.6
91236	7	Sololá	704	Santa Lucía Utatlán 	7	Santa Rita 	5	Mayo	2023-01-05T00:00:00	2024-11-08T23:00:00	5	Humedad	91
91237	7	Sololá	704	Santa Lucía Utatlán 	7	Santa Rita 	5	Mayo	2023-01-05T00:00:00	2024-11-08T23:00:00	6	Velocidad del viento	1.6
91238	7	Sololá	704	Santa Lucía Utatlán 	7	Santa Rita 	5	Mayo	2023-01-05T00:00:00	2024-11-08T23:00:00	7	Dirección del viento	1.61
91239	7	Sololá	704	Santa Lucía Utatlán 	7	Santa Rita 	5	Mayo	2023-01-05T00:00:00	2024-11-08T23:00:00	1	Precipitación	2
91240	7	Sololá	704	Santa Lucía Utatlán 	7	Santa Rita 	5	Mayo	2023-01-05T00:00:00	2024-11-08T23:00:00	8	Radiación solar	0
91241	7	Sololá	704	Santa Lucía Utatlán 	7	Santa Rita 	5	Mayo	2023-02-05T00:00:00	2024-11-08T00:00:00	2	Temperatura media	17.5
91242	7	Sololá	704	Santa Lucía Utatlán 	7	Santa Rita 	5	Mayo	2023-02-05T00:00:00	2024-11-08T00:00:00	4	Temperatura máxima	17.7
91243	7	Sololá	704	Santa Lucía Utatlán 	7	Santa Rita 	5	Mayo	2023-02-05T00:00:00	2024-11-08T00:00:00	3	Temperatura mínima	17.2
91244	7	Sololá	704	Santa Lucía Utatlán 	7	Santa Rita 	5	Mayo	2023-02-05T00:00:00	2024-11-08T00:00:00	5	Humedad	94
91245	7	Sololá	704	Santa Lucía Utatlán 	7	Santa Rita 	5	Mayo	2023-02-05T00:00:00	2024-11-08T00:00:00	6	Velocidad del viento	0
91246	7	Sololá	704	Santa Lucía Utatlán 	7	Santa Rita 	5	Mayo	2023-02-05T00:00:00	2024-11-08T00:00:00	7	Dirección del viento	0
91247	7	Sololá	704	Santa Lucía Utatlán 	7	Santa Rita 	5	Mayo	2023-02-05T00:00:00	2024-11-08T00:00:00	1	Precipitación	0
91248	7	Sololá	704	Santa Lucía Utatlán 	7	Santa Rita 	5	Mayo	2023-02-05T00:00:00	2024-11-08T00:00:00	8	Radiación solar	0
91249	7	Sololá	704	Santa Lucía Utatlán 	7	Santa Rita 	5	Mayo	2023-02-05T00:00:00	2024-11-08T01:00:00	2	Temperatura media	17.9
91250	7	Sololá	704	Santa Lucía Utatlán 	7	Santa Rita 	5	Mayo	2023-02-05T00:00:00	2024-11-08T01:00:00	4	Temperatura máxima	17.9
91251	7	Sololá	704	Santa Lucía Utatlán 	7	Santa Rita 	5	Mayo	2023-02-05T00:00:00	2024-11-08T01:00:00	3	Temperatura mínima	17.5
91252	7	Sololá	704	Santa Lucía Utatlán 	7	Santa Rita 	5	Mayo	2023-02-05T00:00:00	2024-11-08T01:00:00	5	Humedad	95
91253	7	Sololá	704	Santa Lucía Utatlán 	7	Santa Rita 	5	Mayo	2023-02-05T00:00:00	2024-11-08T01:00:00	6	Velocidad del viento	1.6
91254	7	Sololá	704	Santa Lucía Utatlán 	7	Santa Rita 	5	Mayo	2023-02-05T00:00:00	2024-11-08T01:00:00	7	Dirección del viento	1.61
91255	7	Sololá	704	Santa Lucía Utatlán 	7	Santa Rita 	5	Mayo	2023-02-05T00:00:00	2024-11-08T01:00:00	1	Precipitación	0.2
91256	7	Sololá	704	Santa Lucía Utatlán 	7	Santa Rita 	5	Mayo	2023-02-05T00:00:00	2024-11-08T01:00:00	8	Radiación solar	0
91257	7	Sololá	704	Santa Lucía Utatlán 	7	Santa Rita 	5	Mayo	2023-02-05T00:00:00	2024-11-08T02:00:00	2	Temperatura media	18.1
91258	7	Sololá	704	Santa Lucía Utatlán 	7	Santa Rita 	5	Mayo	2023-02-05T00:00:00	2024-11-08T02:00:00	4	Temperatura máxima	18.2
91259	7	Sololá	704	Santa Lucía Utatlán 	7	Santa Rita 	5	Mayo	2023-02-05T00:00:00	2024-11-08T02:00:00	3	Temperatura mínima	17.9
91260	7	Sololá	704	Santa Lucía Utatlán 	7	Santa Rita 	5	Mayo	2023-02-05T00:00:00	2024-11-08T02:00:00	5	Humedad	94
91261	7	Sololá	704	Santa Lucía Utatlán 	7	Santa Rita 	5	Mayo	2023-02-05T00:00:00	2024-11-08T02:00:00	6	Velocidad del viento	1.6
91262	7	Sololá	704	Santa Lucía Utatlán 	7	Santa Rita 	5	Mayo	2023-02-05T00:00:00	2024-11-08T02:00:00	7	Dirección del viento	1.61
91263	7	Sololá	704	Santa Lucía Utatlán 	7	Santa Rita 	5	Mayo	2023-02-05T00:00:00	2024-11-08T02:00:00	1	Precipitación	0
91264	7	Sololá	704	Santa Lucía Utatlán 	7	Santa Rita 	5	Mayo	2023-02-05T00:00:00	2024-11-08T02:00:00	8	Radiación solar	0
91265	7	Sololá	704	Santa Lucía Utatlán 	7	Santa Rita 	5	Mayo	2023-02-05T00:00:00	2024-11-08T03:00:00	2	Temperatura media	17.9
91266	7	Sololá	704	Santa Lucía Utatlán 	7	Santa Rita 	5	Mayo	2023-02-05T00:00:00	2024-11-08T03:00:00	4	Temperatura máxima	18.2
91267	7	Sololá	704	Santa Lucía Utatlán 	7	Santa Rita 	5	Mayo	2023-02-05T00:00:00	2024-11-08T03:00:00	3	Temperatura mínima	17.9
91268	7	Sololá	704	Santa Lucía Utatlán 	7	Santa Rita 	5	Mayo	2023-02-05T00:00:00	2024-11-08T03:00:00	5	Humedad	93
91269	7	Sololá	704	Santa Lucía Utatlán 	7	Santa Rita 	5	Mayo	2023-02-05T00:00:00	2024-11-08T03:00:00	6	Velocidad del viento	1.6
91270	7	Sololá	704	Santa Lucía Utatlán 	7	Santa Rita 	5	Mayo	2023-02-05T00:00:00	2024-11-08T03:00:00	7	Dirección del viento	1.61
91271	7	Sololá	704	Santa Lucía Utatlán 	7	Santa Rita 	5	Mayo	2023-02-05T00:00:00	2024-11-08T03:00:00	1	Precipitación	0
91272	7	Sololá	704	Santa Lucía Utatlán 	7	Santa Rita 	5	Mayo	2023-02-05T00:00:00	2024-11-08T03:00:00	8	Radiación solar	0
91273	7	Sololá	704	Santa Lucía Utatlán 	7	Santa Rita 	5	Mayo	2023-02-05T00:00:00	2024-11-08T04:00:00	2	Temperatura media	17.4
91274	7	Sololá	704	Santa Lucía Utatlán 	7	Santa Rita 	5	Mayo	2023-02-05T00:00:00	2024-11-08T04:00:00	4	Temperatura máxima	17.9
91275	7	Sololá	704	Santa Lucía Utatlán 	7	Santa Rita 	5	Mayo	2023-02-05T00:00:00	2024-11-08T04:00:00	3	Temperatura mínima	17.4
91276	7	Sololá	704	Santa Lucía Utatlán 	7	Santa Rita 	5	Mayo	2023-02-05T00:00:00	2024-11-08T04:00:00	5	Humedad	92
91277	7	Sololá	704	Santa Lucía Utatlán 	7	Santa Rita 	5	Mayo	2023-02-05T00:00:00	2024-11-08T04:00:00	6	Velocidad del viento	3.2
91278	7	Sololá	704	Santa Lucía Utatlán 	7	Santa Rita 	5	Mayo	2023-02-05T00:00:00	2024-11-08T04:00:00	7	Dirección del viento	3.22
91279	7	Sololá	704	Santa Lucía Utatlán 	7	Santa Rita 	5	Mayo	2023-02-05T00:00:00	2024-11-08T04:00:00	1	Precipitación	0
91280	7	Sololá	704	Santa Lucía Utatlán 	7	Santa Rita 	5	Mayo	2023-02-05T00:00:00	2024-11-08T04:00:00	8	Radiación solar	0
91281	7	Sololá	704	Santa Lucía Utatlán 	7	Santa Rita 	5	Mayo	2023-02-05T00:00:00	2024-11-08T05:00:00	2	Temperatura media	16.8
91282	7	Sololá	704	Santa Lucía Utatlán 	7	Santa Rita 	5	Mayo	2023-02-05T00:00:00	2024-11-08T05:00:00	4	Temperatura máxima	17.4
91283	7	Sololá	704	Santa Lucía Utatlán 	7	Santa Rita 	5	Mayo	2023-02-05T00:00:00	2024-11-08T05:00:00	3	Temperatura mínima	16.8
91284	7	Sololá	704	Santa Lucía Utatlán 	7	Santa Rita 	5	Mayo	2023-02-05T00:00:00	2024-11-08T05:00:00	5	Humedad	91
91285	7	Sololá	704	Santa Lucía Utatlán 	7	Santa Rita 	5	Mayo	2023-02-05T00:00:00	2024-11-08T05:00:00	6	Velocidad del viento	3.2
91286	7	Sololá	704	Santa Lucía Utatlán 	7	Santa Rita 	5	Mayo	2023-02-05T00:00:00	2024-11-08T05:00:00	7	Dirección del viento	3.22
91287	7	Sololá	704	Santa Lucía Utatlán 	7	Santa Rita 	5	Mayo	2023-02-05T00:00:00	2024-11-08T05:00:00	1	Precipitación	0
91288	7	Sololá	704	Santa Lucía Utatlán 	7	Santa Rita 	5	Mayo	2023-02-05T00:00:00	2024-11-08T05:00:00	8	Radiación solar	0
91289	7	Sololá	704	Santa Lucía Utatlán 	7	Santa Rita 	5	Mayo	2023-02-05T00:00:00	2024-11-08T06:00:00	2	Temperatura media	16.7
91290	7	Sololá	704	Santa Lucía Utatlán 	7	Santa Rita 	5	Mayo	2023-02-05T00:00:00	2024-11-08T06:00:00	4	Temperatura máxima	16.8
91291	7	Sololá	704	Santa Lucía Utatlán 	7	Santa Rita 	5	Mayo	2023-02-05T00:00:00	2024-11-08T06:00:00	3	Temperatura mínima	16.7
91292	7	Sololá	704	Santa Lucía Utatlán 	7	Santa Rita 	5	Mayo	2023-02-05T00:00:00	2024-11-08T06:00:00	5	Humedad	92
91293	7	Sololá	704	Santa Lucía Utatlán 	7	Santa Rita 	5	Mayo	2023-02-05T00:00:00	2024-11-08T06:00:00	6	Velocidad del viento	3.2
91294	7	Sololá	704	Santa Lucía Utatlán 	7	Santa Rita 	5	Mayo	2023-02-05T00:00:00	2024-11-08T06:00:00	7	Dirección del viento	3.22
91295	7	Sololá	704	Santa Lucía Utatlán 	7	Santa Rita 	5	Mayo	2023-02-05T00:00:00	2024-11-08T06:00:00	1	Precipitación	0
91296	7	Sololá	704	Santa Lucía Utatlán 	7	Santa Rita 	5	Mayo	2023-02-05T00:00:00	2024-11-08T06:00:00	8	Radiación solar	0
91297	7	Sololá	704	Santa Lucía Utatlán 	7	Santa Rita 	5	Mayo	2023-02-05T00:00:00	2024-11-08T07:00:00	2	Temperatura media	16.7
91298	7	Sololá	704	Santa Lucía Utatlán 	7	Santa Rita 	5	Mayo	2023-02-05T00:00:00	2024-11-08T07:00:00	4	Temperatura máxima	16.7
91299	7	Sololá	704	Santa Lucía Utatlán 	7	Santa Rita 	5	Mayo	2023-02-05T00:00:00	2024-11-08T07:00:00	3	Temperatura mínima	16.4
91300	7	Sololá	704	Santa Lucía Utatlán 	7	Santa Rita 	5	Mayo	2023-02-05T00:00:00	2024-11-08T07:00:00	5	Humedad	93
91301	7	Sololá	704	Santa Lucía Utatlán 	7	Santa Rita 	5	Mayo	2023-02-05T00:00:00	2024-11-08T07:00:00	6	Velocidad del viento	3.2
91302	7	Sololá	704	Santa Lucía Utatlán 	7	Santa Rita 	5	Mayo	2023-02-05T00:00:00	2024-11-08T07:00:00	7	Dirección del viento	3.22
91303	7	Sololá	704	Santa Lucía Utatlán 	7	Santa Rita 	5	Mayo	2023-02-05T00:00:00	2024-11-08T07:00:00	1	Precipitación	0
91304	7	Sololá	704	Santa Lucía Utatlán 	7	Santa Rita 	5	Mayo	2023-02-05T00:00:00	2024-11-08T07:00:00	8	Radiación solar	4
91305	7	Sololá	704	Santa Lucía Utatlán 	7	Santa Rita 	5	Mayo	2023-02-05T00:00:00	2024-11-08T08:00:00	2	Temperatura media	18.6
91306	7	Sololá	704	Santa Lucía Utatlán 	7	Santa Rita 	5	Mayo	2023-02-05T00:00:00	2024-11-08T08:00:00	4	Temperatura máxima	18.6
91307	7	Sololá	704	Santa Lucía Utatlán 	7	Santa Rita 	5	Mayo	2023-02-05T00:00:00	2024-11-08T08:00:00	3	Temperatura mínima	16.7
91308	7	Sololá	704	Santa Lucía Utatlán 	7	Santa Rita 	5	Mayo	2023-02-05T00:00:00	2024-11-08T08:00:00	5	Humedad	92
91309	7	Sololá	704	Santa Lucía Utatlán 	7	Santa Rita 	5	Mayo	2023-02-05T00:00:00	2024-11-08T08:00:00	6	Velocidad del viento	1.6
91310	7	Sololá	704	Santa Lucía Utatlán 	7	Santa Rita 	5	Mayo	2023-02-05T00:00:00	2024-11-08T08:00:00	7	Dirección del viento	1.61
91311	7	Sololá	704	Santa Lucía Utatlán 	7	Santa Rita 	5	Mayo	2023-02-05T00:00:00	2024-11-08T08:00:00	1	Precipitación	0
91312	7	Sololá	704	Santa Lucía Utatlán 	7	Santa Rita 	5	Mayo	2023-02-05T00:00:00	2024-11-08T08:00:00	8	Radiación solar	92
91313	7	Sololá	704	Santa Lucía Utatlán 	7	Santa Rita 	5	Mayo	2023-02-05T00:00:00	2024-11-08T09:00:00	2	Temperatura media	20.8
91314	7	Sololá	704	Santa Lucía Utatlán 	7	Santa Rita 	5	Mayo	2023-02-05T00:00:00	2024-11-08T09:00:00	4	Temperatura máxima	20.9
91315	7	Sololá	704	Santa Lucía Utatlán 	7	Santa Rita 	5	Mayo	2023-02-05T00:00:00	2024-11-08T09:00:00	3	Temperatura mínima	18.6
91316	7	Sololá	704	Santa Lucía Utatlán 	7	Santa Rita 	5	Mayo	2023-02-05T00:00:00	2024-11-08T09:00:00	5	Humedad	83
91317	7	Sololá	704	Santa Lucía Utatlán 	7	Santa Rita 	5	Mayo	2023-02-05T00:00:00	2024-11-08T09:00:00	6	Velocidad del viento	1.6
91318	7	Sololá	704	Santa Lucía Utatlán 	7	Santa Rita 	5	Mayo	2023-02-05T00:00:00	2024-11-08T09:00:00	7	Dirección del viento	1.61
91319	7	Sololá	704	Santa Lucía Utatlán 	7	Santa Rita 	5	Mayo	2023-02-05T00:00:00	2024-11-08T09:00:00	1	Precipitación	0
91320	7	Sololá	704	Santa Lucía Utatlán 	7	Santa Rita 	5	Mayo	2023-02-05T00:00:00	2024-11-08T09:00:00	8	Radiación solar	325
91321	7	Sololá	704	Santa Lucía Utatlán 	7	Santa Rita 	5	Mayo	2023-02-05T00:00:00	2024-11-08T10:00:00	2	Temperatura media	22.4
91322	7	Sololá	704	Santa Lucía Utatlán 	7	Santa Rita 	5	Mayo	2023-02-05T00:00:00	2024-11-08T10:00:00	4	Temperatura máxima	22.4
91323	7	Sololá	704	Santa Lucía Utatlán 	7	Santa Rita 	5	Mayo	2023-02-05T00:00:00	2024-11-08T10:00:00	3	Temperatura mínima	20.8
91324	7	Sololá	704	Santa Lucía Utatlán 	7	Santa Rita 	5	Mayo	2023-02-05T00:00:00	2024-11-08T10:00:00	5	Humedad	80
91325	7	Sololá	704	Santa Lucía Utatlán 	7	Santa Rita 	5	Mayo	2023-02-05T00:00:00	2024-11-08T10:00:00	6	Velocidad del viento	3.2
91326	7	Sololá	704	Santa Lucía Utatlán 	7	Santa Rita 	5	Mayo	2023-02-05T00:00:00	2024-11-08T10:00:00	7	Dirección del viento	3.22
91327	7	Sololá	704	Santa Lucía Utatlán 	7	Santa Rita 	5	Mayo	2023-02-05T00:00:00	2024-11-08T10:00:00	1	Precipitación	0
91328	7	Sololá	704	Santa Lucía Utatlán 	7	Santa Rita 	5	Mayo	2023-02-05T00:00:00	2024-11-08T10:00:00	8	Radiación solar	545
91329	7	Sololá	704	Santa Lucía Utatlán 	7	Santa Rita 	5	Mayo	2023-02-05T00:00:00	2024-11-08T11:00:00	2	Temperatura media	24
91330	7	Sololá	704	Santa Lucía Utatlán 	7	Santa Rita 	5	Mayo	2023-02-05T00:00:00	2024-11-08T11:00:00	4	Temperatura máxima	24
91331	7	Sololá	704	Santa Lucía Utatlán 	7	Santa Rita 	5	Mayo	2023-02-05T00:00:00	2024-11-08T11:00:00	3	Temperatura mínima	22.5
91332	7	Sololá	704	Santa Lucía Utatlán 	7	Santa Rita 	5	Mayo	2023-02-05T00:00:00	2024-11-08T11:00:00	5	Humedad	73
91333	7	Sololá	704	Santa Lucía Utatlán 	7	Santa Rita 	5	Mayo	2023-02-05T00:00:00	2024-11-08T11:00:00	6	Velocidad del viento	4.8
91334	7	Sololá	704	Santa Lucía Utatlán 	7	Santa Rita 	5	Mayo	2023-02-05T00:00:00	2024-11-08T11:00:00	7	Dirección del viento	4.83
91335	7	Sololá	704	Santa Lucía Utatlán 	7	Santa Rita 	5	Mayo	2023-02-05T00:00:00	2024-11-08T11:00:00	1	Precipitación	0
91336	7	Sololá	704	Santa Lucía Utatlán 	7	Santa Rita 	5	Mayo	2023-02-05T00:00:00	2024-11-08T11:00:00	8	Radiación solar	813
91337	7	Sololá	704	Santa Lucía Utatlán 	7	Santa Rita 	5	Mayo	2023-02-05T00:00:00	2024-11-08T12:00:00	2	Temperatura media	24.1
91338	7	Sololá	704	Santa Lucía Utatlán 	7	Santa Rita 	5	Mayo	2023-02-05T00:00:00	2024-11-08T12:00:00	4	Temperatura máxima	24.8
91339	7	Sololá	704	Santa Lucía Utatlán 	7	Santa Rita 	5	Mayo	2023-02-05T00:00:00	2024-11-08T12:00:00	3	Temperatura mínima	23.8
91340	7	Sololá	704	Santa Lucía Utatlán 	7	Santa Rita 	5	Mayo	2023-02-05T00:00:00	2024-11-08T12:00:00	5	Humedad	76
91341	7	Sololá	704	Santa Lucía Utatlán 	7	Santa Rita 	5	Mayo	2023-02-05T00:00:00	2024-11-08T12:00:00	6	Velocidad del viento	6.4
91342	7	Sololá	704	Santa Lucía Utatlán 	7	Santa Rita 	5	Mayo	2023-02-05T00:00:00	2024-11-08T12:00:00	7	Dirección del viento	6.44
91343	7	Sololá	704	Santa Lucía Utatlán 	7	Santa Rita 	5	Mayo	2023-02-05T00:00:00	2024-11-08T12:00:00	1	Precipitación	0
91344	7	Sololá	704	Santa Lucía Utatlán 	7	Santa Rita 	5	Mayo	2023-02-05T00:00:00	2024-11-08T12:00:00	8	Radiación solar	709
91345	7	Sololá	704	Santa Lucía Utatlán 	7	Santa Rita 	5	Mayo	2023-02-05T00:00:00	2024-11-08T13:00:00	2	Temperatura media	23.1
91346	7	Sololá	704	Santa Lucía Utatlán 	7	Santa Rita 	5	Mayo	2023-02-05T00:00:00	2024-11-08T13:00:00	4	Temperatura máxima	24.4
91347	7	Sololá	704	Santa Lucía Utatlán 	7	Santa Rita 	5	Mayo	2023-02-05T00:00:00	2024-11-08T13:00:00	3	Temperatura mínima	23
91348	7	Sololá	704	Santa Lucía Utatlán 	7	Santa Rita 	5	Mayo	2023-02-05T00:00:00	2024-11-08T13:00:00	5	Humedad	82
91349	7	Sololá	704	Santa Lucía Utatlán 	7	Santa Rita 	5	Mayo	2023-02-05T00:00:00	2024-11-08T13:00:00	6	Velocidad del viento	8
91350	7	Sololá	704	Santa Lucía Utatlán 	7	Santa Rita 	5	Mayo	2023-02-05T00:00:00	2024-11-08T13:00:00	7	Dirección del viento	8.05
91351	7	Sololá	704	Santa Lucía Utatlán 	7	Santa Rita 	5	Mayo	2023-02-05T00:00:00	2024-11-08T13:00:00	1	Precipitación	0
91352	7	Sololá	704	Santa Lucía Utatlán 	7	Santa Rita 	5	Mayo	2023-02-05T00:00:00	2024-11-08T13:00:00	8	Radiación solar	462
91353	7	Sololá	704	Santa Lucía Utatlán 	7	Santa Rita 	5	Mayo	2023-02-05T00:00:00	2024-11-08T14:00:00	2	Temperatura media	23.9
91354	7	Sololá	704	Santa Lucía Utatlán 	7	Santa Rita 	5	Mayo	2023-02-05T00:00:00	2024-11-08T14:00:00	4	Temperatura máxima	24.5
91355	7	Sololá	704	Santa Lucía Utatlán 	7	Santa Rita 	5	Mayo	2023-02-05T00:00:00	2024-11-08T14:00:00	3	Temperatura mínima	22.8
91356	7	Sololá	704	Santa Lucía Utatlán 	7	Santa Rita 	5	Mayo	2023-02-05T00:00:00	2024-11-08T14:00:00	5	Humedad	78
91357	7	Sololá	704	Santa Lucía Utatlán 	7	Santa Rita 	5	Mayo	2023-02-05T00:00:00	2024-11-08T14:00:00	6	Velocidad del viento	6.4
91358	7	Sololá	704	Santa Lucía Utatlán 	7	Santa Rita 	5	Mayo	2023-02-05T00:00:00	2024-11-08T14:00:00	7	Dirección del viento	6.44
91359	7	Sololá	704	Santa Lucía Utatlán 	7	Santa Rita 	5	Mayo	2023-02-05T00:00:00	2024-11-08T14:00:00	1	Precipitación	0
91360	7	Sololá	704	Santa Lucía Utatlán 	7	Santa Rita 	5	Mayo	2023-02-05T00:00:00	2024-11-08T14:00:00	8	Radiación solar	428
91361	7	Sololá	704	Santa Lucía Utatlán 	7	Santa Rita 	5	Mayo	2023-02-05T00:00:00	2024-11-08T15:00:00	2	Temperatura media	23.1
91362	7	Sololá	704	Santa Lucía Utatlán 	7	Santa Rita 	5	Mayo	2023-02-05T00:00:00	2024-11-08T15:00:00	4	Temperatura máxima	24.4
91363	7	Sololá	704	Santa Lucía Utatlán 	7	Santa Rita 	5	Mayo	2023-02-05T00:00:00	2024-11-08T15:00:00	3	Temperatura mínima	23.1
91364	7	Sololá	704	Santa Lucía Utatlán 	7	Santa Rita 	5	Mayo	2023-02-05T00:00:00	2024-11-08T15:00:00	5	Humedad	82
91365	7	Sololá	704	Santa Lucía Utatlán 	7	Santa Rita 	5	Mayo	2023-02-05T00:00:00	2024-11-08T15:00:00	6	Velocidad del viento	4.8
91366	7	Sololá	704	Santa Lucía Utatlán 	7	Santa Rita 	5	Mayo	2023-02-05T00:00:00	2024-11-08T15:00:00	7	Dirección del viento	4.83
91367	7	Sololá	704	Santa Lucía Utatlán 	7	Santa Rita 	5	Mayo	2023-02-05T00:00:00	2024-11-08T15:00:00	1	Precipitación	0
91368	7	Sololá	704	Santa Lucía Utatlán 	7	Santa Rita 	5	Mayo	2023-02-05T00:00:00	2024-11-08T15:00:00	8	Radiación solar	285
91369	7	Sololá	704	Santa Lucía Utatlán 	7	Santa Rita 	5	Mayo	2023-02-05T00:00:00	2024-11-08T16:00:00	2	Temperatura media	19.2
91370	7	Sololá	704	Santa Lucía Utatlán 	7	Santa Rita 	5	Mayo	2023-02-05T00:00:00	2024-11-08T16:00:00	4	Temperatura máxima	23.1
91371	7	Sololá	704	Santa Lucía Utatlán 	7	Santa Rita 	5	Mayo	2023-02-05T00:00:00	2024-11-08T16:00:00	3	Temperatura mínima	19.1
91372	7	Sololá	704	Santa Lucía Utatlán 	7	Santa Rita 	5	Mayo	2023-02-05T00:00:00	2024-11-08T16:00:00	5	Humedad	92
91373	7	Sololá	704	Santa Lucía Utatlán 	7	Santa Rita 	5	Mayo	2023-02-05T00:00:00	2024-11-08T16:00:00	6	Velocidad del viento	6.4
91374	7	Sololá	704	Santa Lucía Utatlán 	7	Santa Rita 	5	Mayo	2023-02-05T00:00:00	2024-11-08T16:00:00	7	Dirección del viento	6.44
91375	7	Sololá	704	Santa Lucía Utatlán 	7	Santa Rita 	5	Mayo	2023-02-05T00:00:00	2024-11-08T16:00:00	1	Precipitación	17
91376	7	Sololá	704	Santa Lucía Utatlán 	7	Santa Rita 	5	Mayo	2023-02-05T00:00:00	2024-11-08T16:00:00	8	Radiación solar	53
91377	7	Sololá	704	Santa Lucía Utatlán 	7	Santa Rita 	5	Mayo	2023-02-05T00:00:00	2024-11-08T17:00:00	2	Temperatura media	20.2
91378	7	Sololá	704	Santa Lucía Utatlán 	7	Santa Rita 	5	Mayo	2023-02-05T00:00:00	2024-11-08T17:00:00	4	Temperatura máxima	20.2
91379	7	Sololá	704	Santa Lucía Utatlán 	7	Santa Rita 	5	Mayo	2023-02-05T00:00:00	2024-11-08T17:00:00	3	Temperatura mínima	19.2
91380	7	Sololá	704	Santa Lucía Utatlán 	7	Santa Rita 	5	Mayo	2023-02-05T00:00:00	2024-11-08T17:00:00	5	Humedad	95
91381	7	Sololá	704	Santa Lucía Utatlán 	7	Santa Rita 	5	Mayo	2023-02-05T00:00:00	2024-11-08T17:00:00	6	Velocidad del viento	3.2
91382	7	Sololá	704	Santa Lucía Utatlán 	7	Santa Rita 	5	Mayo	2023-02-05T00:00:00	2024-11-08T17:00:00	7	Dirección del viento	3.22
91383	7	Sololá	704	Santa Lucía Utatlán 	7	Santa Rita 	5	Mayo	2023-02-05T00:00:00	2024-11-08T17:00:00	1	Precipitación	0.4
91384	7	Sololá	704	Santa Lucía Utatlán 	7	Santa Rita 	5	Mayo	2023-02-05T00:00:00	2024-11-08T17:00:00	8	Radiación solar	22
91385	7	Sololá	704	Santa Lucía Utatlán 	7	Santa Rita 	5	Mayo	2023-02-05T00:00:00	2024-11-08T18:00:00	2	Temperatura media	19.4
91386	7	Sololá	704	Santa Lucía Utatlán 	7	Santa Rita 	5	Mayo	2023-02-05T00:00:00	2024-11-08T18:00:00	4	Temperatura máxima	20.2
91387	7	Sololá	704	Santa Lucía Utatlán 	7	Santa Rita 	5	Mayo	2023-02-05T00:00:00	2024-11-08T18:00:00	3	Temperatura mínima	19.4
91388	7	Sololá	704	Santa Lucía Utatlán 	7	Santa Rita 	5	Mayo	2023-02-05T00:00:00	2024-11-08T18:00:00	5	Humedad	94
91389	7	Sololá	704	Santa Lucía Utatlán 	7	Santa Rita 	5	Mayo	2023-02-05T00:00:00	2024-11-08T18:00:00	6	Velocidad del viento	3.2
91390	7	Sololá	704	Santa Lucía Utatlán 	7	Santa Rita 	5	Mayo	2023-02-05T00:00:00	2024-11-08T18:00:00	7	Dirección del viento	3.22
91391	7	Sololá	704	Santa Lucía Utatlán 	7	Santa Rita 	5	Mayo	2023-02-05T00:00:00	2024-11-08T18:00:00	1	Precipitación	3.2
91392	7	Sololá	704	Santa Lucía Utatlán 	7	Santa Rita 	5	Mayo	2023-02-05T00:00:00	2024-11-08T18:00:00	8	Radiación solar	2
91393	7	Sololá	704	Santa Lucía Utatlán 	7	Santa Rita 	5	Mayo	2023-02-05T00:00:00	2024-11-08T19:00:00	2	Temperatura media	18.9
91394	7	Sololá	704	Santa Lucía Utatlán 	7	Santa Rita 	5	Mayo	2023-02-05T00:00:00	2024-11-08T19:00:00	4	Temperatura máxima	19.4
91395	7	Sololá	704	Santa Lucía Utatlán 	7	Santa Rita 	5	Mayo	2023-02-05T00:00:00	2024-11-08T19:00:00	3	Temperatura mínima	18.8
91396	7	Sololá	704	Santa Lucía Utatlán 	7	Santa Rita 	5	Mayo	2023-02-05T00:00:00	2024-11-08T19:00:00	5	Humedad	96
91397	7	Sololá	704	Santa Lucía Utatlán 	7	Santa Rita 	5	Mayo	2023-02-05T00:00:00	2024-11-08T19:00:00	6	Velocidad del viento	1.6
91398	7	Sololá	704	Santa Lucía Utatlán 	7	Santa Rita 	5	Mayo	2023-02-05T00:00:00	2024-11-08T19:00:00	7	Dirección del viento	1.61
91399	7	Sololá	704	Santa Lucía Utatlán 	7	Santa Rita 	5	Mayo	2023-02-05T00:00:00	2024-11-08T19:00:00	1	Precipitación	3.6
91400	7	Sololá	704	Santa Lucía Utatlán 	7	Santa Rita 	5	Mayo	2023-02-05T00:00:00	2024-11-08T19:00:00	8	Radiación solar	0
91401	7	Sololá	704	Santa Lucía Utatlán 	7	Santa Rita 	5	Mayo	2023-02-05T00:00:00	2024-11-08T20:00:00	2	Temperatura media	19.7
91402	7	Sololá	704	Santa Lucía Utatlán 	7	Santa Rita 	5	Mayo	2023-02-05T00:00:00	2024-11-08T20:00:00	4	Temperatura máxima	19.7
91403	7	Sololá	704	Santa Lucía Utatlán 	7	Santa Rita 	5	Mayo	2023-02-05T00:00:00	2024-11-08T20:00:00	3	Temperatura mínima	18.4
91404	7	Sololá	704	Santa Lucía Utatlán 	7	Santa Rita 	5	Mayo	2023-02-05T00:00:00	2024-11-08T20:00:00	5	Humedad	71
91405	7	Sololá	704	Santa Lucía Utatlán 	7	Santa Rita 	5	Mayo	2023-02-05T00:00:00	2024-11-08T20:00:00	6	Velocidad del viento	6.4
91406	7	Sololá	704	Santa Lucía Utatlán 	7	Santa Rita 	5	Mayo	2023-02-05T00:00:00	2024-11-08T20:00:00	7	Dirección del viento	6.44
91407	7	Sololá	704	Santa Lucía Utatlán 	7	Santa Rita 	5	Mayo	2023-02-05T00:00:00	2024-11-08T20:00:00	1	Precipitación	1.6
91408	7	Sololá	704	Santa Lucía Utatlán 	7	Santa Rita 	5	Mayo	2023-02-05T00:00:00	2024-11-08T20:00:00	8	Radiación solar	0
91409	7	Sololá	704	Santa Lucía Utatlán 	7	Santa Rita 	5	Mayo	2023-02-05T00:00:00	2024-11-08T21:00:00	2	Temperatura media	20.6
91410	7	Sololá	704	Santa Lucía Utatlán 	7	Santa Rita 	5	Mayo	2023-02-05T00:00:00	2024-11-08T21:00:00	4	Temperatura máxima	21
91411	7	Sololá	704	Santa Lucía Utatlán 	7	Santa Rita 	5	Mayo	2023-02-05T00:00:00	2024-11-08T21:00:00	3	Temperatura mínima	19.7
91412	7	Sololá	704	Santa Lucía Utatlán 	7	Santa Rita 	5	Mayo	2023-02-05T00:00:00	2024-11-08T21:00:00	5	Humedad	59
91413	7	Sololá	704	Santa Lucía Utatlán 	7	Santa Rita 	5	Mayo	2023-02-05T00:00:00	2024-11-08T21:00:00	6	Velocidad del viento	11.3
91414	7	Sololá	704	Santa Lucía Utatlán 	7	Santa Rita 	5	Mayo	2023-02-05T00:00:00	2024-11-08T21:00:00	7	Dirección del viento	11.27
91415	7	Sololá	704	Santa Lucía Utatlán 	7	Santa Rita 	5	Mayo	2023-02-05T00:00:00	2024-11-08T21:00:00	1	Precipitación	0
91416	7	Sololá	704	Santa Lucía Utatlán 	7	Santa Rita 	5	Mayo	2023-02-05T00:00:00	2024-11-08T21:00:00	8	Radiación solar	0
91417	7	Sololá	704	Santa Lucía Utatlán 	7	Santa Rita 	5	Mayo	2023-02-05T00:00:00	2024-11-08T22:00:00	2	Temperatura media	21
91418	7	Sololá	704	Santa Lucía Utatlán 	7	Santa Rita 	5	Mayo	2023-02-05T00:00:00	2024-11-08T22:00:00	4	Temperatura máxima	21.7
91419	7	Sololá	704	Santa Lucía Utatlán 	7	Santa Rita 	5	Mayo	2023-02-05T00:00:00	2024-11-08T22:00:00	3	Temperatura mínima	20.2
91420	7	Sololá	704	Santa Lucía Utatlán 	7	Santa Rita 	5	Mayo	2023-02-05T00:00:00	2024-11-08T22:00:00	5	Humedad	54
91421	7	Sololá	704	Santa Lucía Utatlán 	7	Santa Rita 	5	Mayo	2023-02-05T00:00:00	2024-11-08T22:00:00	6	Velocidad del viento	6.4
91422	7	Sololá	704	Santa Lucía Utatlán 	7	Santa Rita 	5	Mayo	2023-02-05T00:00:00	2024-11-08T22:00:00	7	Dirección del viento	6.44
91423	7	Sololá	704	Santa Lucía Utatlán 	7	Santa Rita 	5	Mayo	2023-02-05T00:00:00	2024-11-08T22:00:00	1	Precipitación	0
91424	7	Sololá	704	Santa Lucía Utatlán 	7	Santa Rita 	5	Mayo	2023-02-05T00:00:00	2024-11-08T22:00:00	8	Radiación solar	0
91425	7	Sololá	704	Santa Lucía Utatlán 	7	Santa Rita 	5	Mayo	2023-02-05T00:00:00	2024-11-08T23:00:00	2	Temperatura media	20.4
91426	7	Sololá	704	Santa Lucía Utatlán 	7	Santa Rita 	5	Mayo	2023-02-05T00:00:00	2024-11-08T23:00:00	4	Temperatura máxima	21.8
91427	7	Sololá	704	Santa Lucía Utatlán 	7	Santa Rita 	5	Mayo	2023-02-05T00:00:00	2024-11-08T23:00:00	3	Temperatura mínima	20.4
91428	7	Sololá	704	Santa Lucía Utatlán 	7	Santa Rita 	5	Mayo	2023-02-05T00:00:00	2024-11-08T23:00:00	5	Humedad	60
91429	7	Sololá	704	Santa Lucía Utatlán 	7	Santa Rita 	5	Mayo	2023-02-05T00:00:00	2024-11-08T23:00:00	6	Velocidad del viento	4.8
91430	7	Sololá	704	Santa Lucía Utatlán 	7	Santa Rita 	5	Mayo	2023-02-05T00:00:00	2024-11-08T23:00:00	7	Dirección del viento	4.83
91431	7	Sololá	704	Santa Lucía Utatlán 	7	Santa Rita 	5	Mayo	2023-02-05T00:00:00	2024-11-08T23:00:00	1	Precipitación	0
91432	7	Sololá	704	Santa Lucía Utatlán 	7	Santa Rita 	5	Mayo	2023-02-05T00:00:00	2024-11-08T23:00:00	8	Radiación solar	0
91433	7	Sololá	704	Santa Lucía Utatlán 	7	Santa Rita 	5	Mayo	2023-03-05T00:00:00	2024-11-08T00:00:00	2	Temperatura media	19.5
91434	7	Sololá	704	Santa Lucía Utatlán 	7	Santa Rita 	5	Mayo	2023-03-05T00:00:00	2024-11-08T00:00:00	4	Temperatura máxima	20.7
91435	7	Sololá	704	Santa Lucía Utatlán 	7	Santa Rita 	5	Mayo	2023-03-05T00:00:00	2024-11-08T00:00:00	3	Temperatura mínima	19.3
91436	7	Sololá	704	Santa Lucía Utatlán 	7	Santa Rita 	5	Mayo	2023-03-05T00:00:00	2024-11-08T00:00:00	5	Humedad	57
91437	7	Sololá	704	Santa Lucía Utatlán 	7	Santa Rita 	5	Mayo	2023-03-05T00:00:00	2024-11-08T00:00:00	6	Velocidad del viento	3.2
91438	7	Sololá	704	Santa Lucía Utatlán 	7	Santa Rita 	5	Mayo	2023-03-05T00:00:00	2024-11-08T00:00:00	7	Dirección del viento	3.22
91439	7	Sololá	704	Santa Lucía Utatlán 	7	Santa Rita 	5	Mayo	2023-03-05T00:00:00	2024-11-08T00:00:00	1	Precipitación	0
91440	7	Sololá	704	Santa Lucía Utatlán 	7	Santa Rita 	5	Mayo	2023-03-05T00:00:00	2024-11-08T00:00:00	8	Radiación solar	0
91441	7	Sololá	704	Santa Lucía Utatlán 	7	Santa Rita 	5	Mayo	2023-03-05T00:00:00	2024-11-08T01:00:00	2	Temperatura media	21.8
91442	7	Sololá	704	Santa Lucía Utatlán 	7	Santa Rita 	5	Mayo	2023-03-05T00:00:00	2024-11-08T01:00:00	4	Temperatura máxima	21.8
91443	7	Sololá	704	Santa Lucía Utatlán 	7	Santa Rita 	5	Mayo	2023-03-05T00:00:00	2024-11-08T01:00:00	3	Temperatura mínima	19.4
91444	7	Sololá	704	Santa Lucía Utatlán 	7	Santa Rita 	5	Mayo	2023-03-05T00:00:00	2024-11-08T01:00:00	5	Humedad	55
91445	7	Sololá	704	Santa Lucía Utatlán 	7	Santa Rita 	5	Mayo	2023-03-05T00:00:00	2024-11-08T01:00:00	6	Velocidad del viento	9.7
91446	7	Sololá	704	Santa Lucía Utatlán 	7	Santa Rita 	5	Mayo	2023-03-05T00:00:00	2024-11-08T01:00:00	7	Dirección del viento	9.66
91447	7	Sololá	704	Santa Lucía Utatlán 	7	Santa Rita 	5	Mayo	2023-03-05T00:00:00	2024-11-08T01:00:00	1	Precipitación	0
91448	7	Sololá	704	Santa Lucía Utatlán 	7	Santa Rita 	5	Mayo	2023-03-05T00:00:00	2024-11-08T01:00:00	8	Radiación solar	0
91449	7	Sololá	704	Santa Lucía Utatlán 	7	Santa Rita 	5	Mayo	2023-03-05T00:00:00	2024-11-08T02:00:00	2	Temperatura media	21.6
91450	7	Sololá	704	Santa Lucía Utatlán 	7	Santa Rita 	5	Mayo	2023-03-05T00:00:00	2024-11-08T02:00:00	4	Temperatura máxima	22.7
91451	7	Sololá	704	Santa Lucía Utatlán 	7	Santa Rita 	5	Mayo	2023-03-05T00:00:00	2024-11-08T02:00:00	3	Temperatura mínima	21.6
91452	7	Sololá	704	Santa Lucía Utatlán 	7	Santa Rita 	5	Mayo	2023-03-05T00:00:00	2024-11-08T02:00:00	5	Humedad	56
91453	7	Sololá	704	Santa Lucía Utatlán 	7	Santa Rita 	5	Mayo	2023-03-05T00:00:00	2024-11-08T02:00:00	6	Velocidad del viento	8
91454	7	Sololá	704	Santa Lucía Utatlán 	7	Santa Rita 	5	Mayo	2023-03-05T00:00:00	2024-11-08T02:00:00	7	Dirección del viento	8.05
91455	7	Sololá	704	Santa Lucía Utatlán 	7	Santa Rita 	5	Mayo	2023-03-05T00:00:00	2024-11-08T02:00:00	1	Precipitación	0
91456	7	Sololá	704	Santa Lucía Utatlán 	7	Santa Rita 	5	Mayo	2023-03-05T00:00:00	2024-11-08T02:00:00	8	Radiación solar	0
91457	7	Sololá	704	Santa Lucía Utatlán 	7	Santa Rita 	5	Mayo	2023-03-05T00:00:00	2024-11-08T03:00:00	2	Temperatura media	21.3
91458	7	Sololá	704	Santa Lucía Utatlán 	7	Santa Rita 	5	Mayo	2023-03-05T00:00:00	2024-11-08T03:00:00	4	Temperatura máxima	22.5
91459	7	Sololá	704	Santa Lucía Utatlán 	7	Santa Rita 	5	Mayo	2023-03-05T00:00:00	2024-11-08T03:00:00	3	Temperatura mínima	20.2
91460	7	Sololá	704	Santa Lucía Utatlán 	7	Santa Rita 	5	Mayo	2023-03-05T00:00:00	2024-11-08T03:00:00	5	Humedad	50
91461	7	Sololá	704	Santa Lucía Utatlán 	7	Santa Rita 	5	Mayo	2023-03-05T00:00:00	2024-11-08T03:00:00	6	Velocidad del viento	3.2
91462	7	Sololá	704	Santa Lucía Utatlán 	7	Santa Rita 	5	Mayo	2023-03-05T00:00:00	2024-11-08T03:00:00	7	Dirección del viento	3.22
91463	7	Sololá	704	Santa Lucía Utatlán 	7	Santa Rita 	5	Mayo	2023-03-05T00:00:00	2024-11-08T03:00:00	1	Precipitación	0
91464	7	Sololá	704	Santa Lucía Utatlán 	7	Santa Rita 	5	Mayo	2023-03-05T00:00:00	2024-11-08T03:00:00	8	Radiación solar	0
91465	7	Sololá	704	Santa Lucía Utatlán 	7	Santa Rita 	5	Mayo	2023-03-05T00:00:00	2024-11-08T04:00:00	2	Temperatura media	19.2
91466	7	Sololá	704	Santa Lucía Utatlán 	7	Santa Rita 	5	Mayo	2023-03-05T00:00:00	2024-11-08T04:00:00	4	Temperatura máxima	22.3
91467	7	Sololá	704	Santa Lucía Utatlán 	7	Santa Rita 	5	Mayo	2023-03-05T00:00:00	2024-11-08T04:00:00	3	Temperatura mínima	19.2
91468	7	Sololá	704	Santa Lucía Utatlán 	7	Santa Rita 	5	Mayo	2023-03-05T00:00:00	2024-11-08T04:00:00	5	Humedad	63
91469	7	Sololá	704	Santa Lucía Utatlán 	7	Santa Rita 	5	Mayo	2023-03-05T00:00:00	2024-11-08T04:00:00	6	Velocidad del viento	3.2
91470	7	Sololá	704	Santa Lucía Utatlán 	7	Santa Rita 	5	Mayo	2023-03-05T00:00:00	2024-11-08T04:00:00	7	Dirección del viento	3.22
91471	7	Sololá	704	Santa Lucía Utatlán 	7	Santa Rita 	5	Mayo	2023-03-05T00:00:00	2024-11-08T04:00:00	1	Precipitación	0
91472	7	Sololá	704	Santa Lucía Utatlán 	7	Santa Rita 	5	Mayo	2023-03-05T00:00:00	2024-11-08T04:00:00	8	Radiación solar	0
91473	7	Sololá	704	Santa Lucía Utatlán 	7	Santa Rita 	5	Mayo	2023-03-05T00:00:00	2024-11-08T05:00:00	2	Temperatura media	18.2
91474	7	Sololá	704	Santa Lucía Utatlán 	7	Santa Rita 	5	Mayo	2023-03-05T00:00:00	2024-11-08T05:00:00	4	Temperatura máxima	19.2
91475	7	Sololá	704	Santa Lucía Utatlán 	7	Santa Rita 	5	Mayo	2023-03-05T00:00:00	2024-11-08T05:00:00	3	Temperatura mínima	18.1
91476	7	Sololá	704	Santa Lucía Utatlán 	7	Santa Rita 	5	Mayo	2023-03-05T00:00:00	2024-11-08T05:00:00	5	Humedad	63
91477	7	Sololá	704	Santa Lucía Utatlán 	7	Santa Rita 	5	Mayo	2023-03-05T00:00:00	2024-11-08T05:00:00	6	Velocidad del viento	4.8
91478	7	Sololá	704	Santa Lucía Utatlán 	7	Santa Rita 	5	Mayo	2023-03-05T00:00:00	2024-11-08T05:00:00	7	Dirección del viento	4.83
91479	7	Sololá	704	Santa Lucía Utatlán 	7	Santa Rita 	5	Mayo	2023-03-05T00:00:00	2024-11-08T05:00:00	1	Precipitación	0
91480	7	Sololá	704	Santa Lucía Utatlán 	7	Santa Rita 	5	Mayo	2023-03-05T00:00:00	2024-11-08T05:00:00	8	Radiación solar	0
91481	7	Sololá	704	Santa Lucía Utatlán 	7	Santa Rita 	5	Mayo	2023-03-05T00:00:00	2024-11-08T06:00:00	2	Temperatura media	17.6
91482	7	Sololá	704	Santa Lucía Utatlán 	7	Santa Rita 	5	Mayo	2023-03-05T00:00:00	2024-11-08T06:00:00	4	Temperatura máxima	18.2
91483	7	Sololá	704	Santa Lucía Utatlán 	7	Santa Rita 	5	Mayo	2023-03-05T00:00:00	2024-11-08T06:00:00	3	Temperatura mínima	17.6
91484	7	Sololá	704	Santa Lucía Utatlán 	7	Santa Rita 	5	Mayo	2023-03-05T00:00:00	2024-11-08T06:00:00	5	Humedad	67
91485	7	Sololá	704	Santa Lucía Utatlán 	7	Santa Rita 	5	Mayo	2023-03-05T00:00:00	2024-11-08T06:00:00	6	Velocidad del viento	3.2
91486	7	Sololá	704	Santa Lucía Utatlán 	7	Santa Rita 	5	Mayo	2023-03-05T00:00:00	2024-11-08T06:00:00	7	Dirección del viento	3.22
91487	7	Sololá	704	Santa Lucía Utatlán 	7	Santa Rita 	5	Mayo	2023-03-05T00:00:00	2024-11-08T06:00:00	1	Precipitación	0
91488	7	Sololá	704	Santa Lucía Utatlán 	7	Santa Rita 	5	Mayo	2023-03-05T00:00:00	2024-11-08T06:00:00	8	Radiación solar	0
91489	7	Sololá	704	Santa Lucía Utatlán 	7	Santa Rita 	5	Mayo	2023-03-05T00:00:00	2024-11-08T07:00:00	2	Temperatura media	18.1
91490	7	Sololá	704	Santa Lucía Utatlán 	7	Santa Rita 	5	Mayo	2023-03-05T00:00:00	2024-11-08T07:00:00	4	Temperatura máxima	18.2
91491	7	Sololá	704	Santa Lucía Utatlán 	7	Santa Rita 	5	Mayo	2023-03-05T00:00:00	2024-11-08T07:00:00	3	Temperatura mínima	17.5
91492	7	Sololá	704	Santa Lucía Utatlán 	7	Santa Rita 	5	Mayo	2023-03-05T00:00:00	2024-11-08T07:00:00	5	Humedad	66
91493	7	Sololá	704	Santa Lucía Utatlán 	7	Santa Rita 	5	Mayo	2023-03-05T00:00:00	2024-11-08T07:00:00	6	Velocidad del viento	3.2
91494	7	Sololá	704	Santa Lucía Utatlán 	7	Santa Rita 	5	Mayo	2023-03-05T00:00:00	2024-11-08T07:00:00	7	Dirección del viento	3.22
91495	7	Sololá	704	Santa Lucía Utatlán 	7	Santa Rita 	5	Mayo	2023-03-05T00:00:00	2024-11-08T07:00:00	1	Precipitación	0
91496	7	Sololá	704	Santa Lucía Utatlán 	7	Santa Rita 	5	Mayo	2023-03-05T00:00:00	2024-11-08T07:00:00	8	Radiación solar	2
91497	7	Sololá	704	Santa Lucía Utatlán 	7	Santa Rita 	5	Mayo	2023-03-05T00:00:00	2024-11-08T08:00:00	2	Temperatura media	20.7
91498	7	Sololá	704	Santa Lucía Utatlán 	7	Santa Rita 	5	Mayo	2023-03-05T00:00:00	2024-11-08T08:00:00	4	Temperatura máxima	20.7
91499	7	Sololá	704	Santa Lucía Utatlán 	7	Santa Rita 	5	Mayo	2023-03-05T00:00:00	2024-11-08T08:00:00	3	Temperatura mínima	18.1
91500	7	Sololá	704	Santa Lucía Utatlán 	7	Santa Rita 	5	Mayo	2023-03-05T00:00:00	2024-11-08T08:00:00	5	Humedad	63
91501	7	Sololá	704	Santa Lucía Utatlán 	7	Santa Rita 	5	Mayo	2023-03-05T00:00:00	2024-11-08T08:00:00	6	Velocidad del viento	1.6
91502	7	Sololá	704	Santa Lucía Utatlán 	7	Santa Rita 	5	Mayo	2023-03-05T00:00:00	2024-11-08T08:00:00	7	Dirección del viento	1.61
91503	7	Sololá	704	Santa Lucía Utatlán 	7	Santa Rita 	5	Mayo	2023-03-05T00:00:00	2024-11-08T08:00:00	1	Precipitación	0
91504	7	Sololá	704	Santa Lucía Utatlán 	7	Santa Rita 	5	Mayo	2023-03-05T00:00:00	2024-11-08T08:00:00	8	Radiación solar	128
91505	7	Sololá	704	Santa Lucía Utatlán 	7	Santa Rita 	5	Mayo	2023-03-05T00:00:00	2024-11-08T09:00:00	2	Temperatura media	23
91506	7	Sololá	704	Santa Lucía Utatlán 	7	Santa Rita 	5	Mayo	2023-03-05T00:00:00	2024-11-08T09:00:00	4	Temperatura máxima	23.1
91507	7	Sololá	704	Santa Lucía Utatlán 	7	Santa Rita 	5	Mayo	2023-03-05T00:00:00	2024-11-08T09:00:00	3	Temperatura mínima	20.7
91508	7	Sololá	704	Santa Lucía Utatlán 	7	Santa Rita 	5	Mayo	2023-03-05T00:00:00	2024-11-08T09:00:00	5	Humedad	55
91509	7	Sololá	704	Santa Lucía Utatlán 	7	Santa Rita 	5	Mayo	2023-03-05T00:00:00	2024-11-08T09:00:00	6	Velocidad del viento	1.6
91510	7	Sololá	704	Santa Lucía Utatlán 	7	Santa Rita 	5	Mayo	2023-03-05T00:00:00	2024-11-08T09:00:00	7	Dirección del viento	1.61
91511	7	Sololá	704	Santa Lucía Utatlán 	7	Santa Rita 	5	Mayo	2023-03-05T00:00:00	2024-11-08T09:00:00	1	Precipitación	0
91512	7	Sololá	704	Santa Lucía Utatlán 	7	Santa Rita 	5	Mayo	2023-03-05T00:00:00	2024-11-08T09:00:00	8	Radiación solar	434
91513	7	Sololá	704	Santa Lucía Utatlán 	7	Santa Rita 	5	Mayo	2023-03-05T00:00:00	2024-11-08T10:00:00	2	Temperatura media	24.3
91514	7	Sololá	704	Santa Lucía Utatlán 	7	Santa Rita 	5	Mayo	2023-03-05T00:00:00	2024-11-08T10:00:00	4	Temperatura máxima	24.3
91515	7	Sololá	704	Santa Lucía Utatlán 	7	Santa Rita 	5	Mayo	2023-03-05T00:00:00	2024-11-08T10:00:00	3	Temperatura mínima	23
91516	7	Sololá	704	Santa Lucía Utatlán 	7	Santa Rita 	5	Mayo	2023-03-05T00:00:00	2024-11-08T10:00:00	5	Humedad	57
91517	7	Sololá	704	Santa Lucía Utatlán 	7	Santa Rita 	5	Mayo	2023-03-05T00:00:00	2024-11-08T10:00:00	6	Velocidad del viento	3.2
91518	7	Sololá	704	Santa Lucía Utatlán 	7	Santa Rita 	5	Mayo	2023-03-05T00:00:00	2024-11-08T10:00:00	7	Dirección del viento	3.22
91519	7	Sololá	704	Santa Lucía Utatlán 	7	Santa Rita 	5	Mayo	2023-03-05T00:00:00	2024-11-08T10:00:00	1	Precipitación	0
91520	7	Sololá	704	Santa Lucía Utatlán 	7	Santa Rita 	5	Mayo	2023-03-05T00:00:00	2024-11-08T10:00:00	8	Radiación solar	638
91521	7	Sololá	704	Santa Lucía Utatlán 	7	Santa Rita 	5	Mayo	2023-03-05T00:00:00	2024-11-08T11:00:00	2	Temperatura media	25.8
91522	7	Sololá	704	Santa Lucía Utatlán 	7	Santa Rita 	5	Mayo	2023-03-05T00:00:00	2024-11-08T11:00:00	4	Temperatura máxima	25.9
91523	7	Sololá	704	Santa Lucía Utatlán 	7	Santa Rita 	5	Mayo	2023-03-05T00:00:00	2024-11-08T11:00:00	3	Temperatura mínima	24.2
91524	7	Sololá	704	Santa Lucía Utatlán 	7	Santa Rita 	5	Mayo	2023-03-05T00:00:00	2024-11-08T11:00:00	5	Humedad	56
91525	7	Sololá	704	Santa Lucía Utatlán 	7	Santa Rita 	5	Mayo	2023-03-05T00:00:00	2024-11-08T11:00:00	6	Velocidad del viento	4.8
91526	7	Sololá	704	Santa Lucía Utatlán 	7	Santa Rita 	5	Mayo	2023-03-05T00:00:00	2024-11-08T11:00:00	7	Dirección del viento	4.83
91527	7	Sololá	704	Santa Lucía Utatlán 	7	Santa Rita 	5	Mayo	2023-03-05T00:00:00	2024-11-08T11:00:00	1	Precipitación	0
91528	7	Sololá	704	Santa Lucía Utatlán 	7	Santa Rita 	5	Mayo	2023-03-05T00:00:00	2024-11-08T11:00:00	8	Radiación solar	809
91529	7	Sololá	704	Santa Lucía Utatlán 	7	Santa Rita 	5	Mayo	2023-03-05T00:00:00	2024-11-08T12:00:00	2	Temperatura media	26.2
91530	7	Sololá	704	Santa Lucía Utatlán 	7	Santa Rita 	5	Mayo	2023-03-05T00:00:00	2024-11-08T12:00:00	4	Temperatura máxima	26.4
91531	7	Sololá	704	Santa Lucía Utatlán 	7	Santa Rita 	5	Mayo	2023-03-05T00:00:00	2024-11-08T12:00:00	3	Temperatura mínima	25.7
91532	7	Sololá	704	Santa Lucía Utatlán 	7	Santa Rita 	5	Mayo	2023-03-05T00:00:00	2024-11-08T12:00:00	5	Humedad	56
91533	7	Sololá	704	Santa Lucía Utatlán 	7	Santa Rita 	5	Mayo	2023-03-05T00:00:00	2024-11-08T12:00:00	6	Velocidad del viento	6.4
91534	7	Sololá	704	Santa Lucía Utatlán 	7	Santa Rita 	5	Mayo	2023-03-05T00:00:00	2024-11-08T12:00:00	7	Dirección del viento	6.44
91535	7	Sololá	704	Santa Lucía Utatlán 	7	Santa Rita 	5	Mayo	2023-03-05T00:00:00	2024-11-08T12:00:00	1	Precipitación	0
91536	7	Sololá	704	Santa Lucía Utatlán 	7	Santa Rita 	5	Mayo	2023-03-05T00:00:00	2024-11-08T12:00:00	8	Radiación solar	947
91537	7	Sololá	704	Santa Lucía Utatlán 	7	Santa Rita 	5	Mayo	2023-03-05T00:00:00	2024-11-08T13:00:00	2	Temperatura media	27.1
91538	7	Sololá	704	Santa Lucía Utatlán 	7	Santa Rita 	5	Mayo	2023-03-05T00:00:00	2024-11-08T13:00:00	4	Temperatura máxima	27.1
91539	7	Sololá	704	Santa Lucía Utatlán 	7	Santa Rita 	5	Mayo	2023-03-05T00:00:00	2024-11-08T13:00:00	3	Temperatura mínima	26.2
91540	7	Sololá	704	Santa Lucía Utatlán 	7	Santa Rita 	5	Mayo	2023-03-05T00:00:00	2024-11-08T13:00:00	5	Humedad	54
91541	7	Sololá	704	Santa Lucía Utatlán 	7	Santa Rita 	5	Mayo	2023-03-05T00:00:00	2024-11-08T13:00:00	6	Velocidad del viento	8
91542	7	Sololá	704	Santa Lucía Utatlán 	7	Santa Rita 	5	Mayo	2023-03-05T00:00:00	2024-11-08T13:00:00	7	Dirección del viento	8.05
91543	7	Sololá	704	Santa Lucía Utatlán 	7	Santa Rita 	5	Mayo	2023-03-05T00:00:00	2024-11-08T13:00:00	1	Precipitación	0
91544	7	Sololá	704	Santa Lucía Utatlán 	7	Santa Rita 	5	Mayo	2023-03-05T00:00:00	2024-11-08T13:00:00	8	Radiación solar	1049
91545	7	Sololá	704	Santa Lucía Utatlán 	7	Santa Rita 	5	Mayo	2023-03-05T00:00:00	2024-11-08T14:00:00	2	Temperatura media	25.4
91546	7	Sololá	704	Santa Lucía Utatlán 	7	Santa Rita 	5	Mayo	2023-03-05T00:00:00	2024-11-08T14:00:00	4	Temperatura máxima	27.1
91547	7	Sololá	704	Santa Lucía Utatlán 	7	Santa Rita 	5	Mayo	2023-03-05T00:00:00	2024-11-08T14:00:00	3	Temperatura mínima	25.3
91548	7	Sololá	704	Santa Lucía Utatlán 	7	Santa Rita 	5	Mayo	2023-03-05T00:00:00	2024-11-08T14:00:00	5	Humedad	71
91549	7	Sololá	704	Santa Lucía Utatlán 	7	Santa Rita 	5	Mayo	2023-03-05T00:00:00	2024-11-08T14:00:00	6	Velocidad del viento	6.4
91550	7	Sololá	704	Santa Lucía Utatlán 	7	Santa Rita 	5	Mayo	2023-03-05T00:00:00	2024-11-08T14:00:00	7	Dirección del viento	6.44
91551	7	Sololá	704	Santa Lucía Utatlán 	7	Santa Rita 	5	Mayo	2023-03-05T00:00:00	2024-11-08T14:00:00	1	Precipitación	0
91552	7	Sololá	704	Santa Lucía Utatlán 	7	Santa Rita 	5	Mayo	2023-03-05T00:00:00	2024-11-08T14:00:00	8	Radiación solar	607
91553	7	Sololá	704	Santa Lucía Utatlán 	7	Santa Rita 	5	Mayo	2023-03-05T00:00:00	2024-11-08T15:00:00	2	Temperatura media	25.8
91554	7	Sololá	704	Santa Lucía Utatlán 	7	Santa Rita 	5	Mayo	2023-03-05T00:00:00	2024-11-08T15:00:00	4	Temperatura máxima	25.8
91555	7	Sololá	704	Santa Lucía Utatlán 	7	Santa Rita 	5	Mayo	2023-03-05T00:00:00	2024-11-08T15:00:00	3	Temperatura mínima	24.9
91556	7	Sololá	704	Santa Lucía Utatlán 	7	Santa Rita 	5	Mayo	2023-03-05T00:00:00	2024-11-08T15:00:00	5	Humedad	57
91557	7	Sololá	704	Santa Lucía Utatlán 	7	Santa Rita 	5	Mayo	2023-03-05T00:00:00	2024-11-08T15:00:00	6	Velocidad del viento	3.2
91558	7	Sololá	704	Santa Lucía Utatlán 	7	Santa Rita 	5	Mayo	2023-03-05T00:00:00	2024-11-08T15:00:00	7	Dirección del viento	3.22
91559	7	Sololá	704	Santa Lucía Utatlán 	7	Santa Rita 	5	Mayo	2023-03-05T00:00:00	2024-11-08T15:00:00	1	Precipitación	0
91560	7	Sololá	704	Santa Lucía Utatlán 	7	Santa Rita 	5	Mayo	2023-03-05T00:00:00	2024-11-08T15:00:00	8	Radiación solar	221
91561	7	Sololá	704	Santa Lucía Utatlán 	7	Santa Rita 	5	Mayo	2023-03-05T00:00:00	2024-11-08T16:00:00	2	Temperatura media	24
91562	7	Sololá	704	Santa Lucía Utatlán 	7	Santa Rita 	5	Mayo	2023-03-05T00:00:00	2024-11-08T16:00:00	4	Temperatura máxima	25.8
91563	7	Sololá	704	Santa Lucía Utatlán 	7	Santa Rita 	5	Mayo	2023-03-05T00:00:00	2024-11-08T16:00:00	3	Temperatura mínima	24
91564	7	Sololá	704	Santa Lucía Utatlán 	7	Santa Rita 	5	Mayo	2023-03-05T00:00:00	2024-11-08T16:00:00	5	Humedad	79
91565	7	Sololá	704	Santa Lucía Utatlán 	7	Santa Rita 	5	Mayo	2023-03-05T00:00:00	2024-11-08T16:00:00	6	Velocidad del viento	4.8
91566	7	Sololá	704	Santa Lucía Utatlán 	7	Santa Rita 	5	Mayo	2023-03-05T00:00:00	2024-11-08T16:00:00	7	Dirección del viento	4.83
91567	7	Sololá	704	Santa Lucía Utatlán 	7	Santa Rita 	5	Mayo	2023-03-05T00:00:00	2024-11-08T16:00:00	1	Precipitación	0
91568	7	Sololá	704	Santa Lucía Utatlán 	7	Santa Rita 	5	Mayo	2023-03-05T00:00:00	2024-11-08T16:00:00	8	Radiación solar	138
91569	7	Sololá	704	Santa Lucía Utatlán 	7	Santa Rita 	5	Mayo	2023-03-05T00:00:00	2024-11-08T17:00:00	2	Temperatura media	20.8
91570	7	Sololá	704	Santa Lucía Utatlán 	7	Santa Rita 	5	Mayo	2023-03-05T00:00:00	2024-11-08T17:00:00	4	Temperatura máxima	24
91571	7	Sololá	704	Santa Lucía Utatlán 	7	Santa Rita 	5	Mayo	2023-03-05T00:00:00	2024-11-08T17:00:00	3	Temperatura mínima	20.8
91572	7	Sololá	704	Santa Lucía Utatlán 	7	Santa Rita 	5	Mayo	2023-03-05T00:00:00	2024-11-08T17:00:00	5	Humedad	89
91573	7	Sololá	704	Santa Lucía Utatlán 	7	Santa Rita 	5	Mayo	2023-03-05T00:00:00	2024-11-08T17:00:00	6	Velocidad del viento	6.4
91574	7	Sololá	704	Santa Lucía Utatlán 	7	Santa Rita 	5	Mayo	2023-03-05T00:00:00	2024-11-08T17:00:00	7	Dirección del viento	6.44
91575	7	Sololá	704	Santa Lucía Utatlán 	7	Santa Rita 	5	Mayo	2023-03-05T00:00:00	2024-11-08T17:00:00	1	Precipitación	7.6
91576	7	Sololá	704	Santa Lucía Utatlán 	7	Santa Rita 	5	Mayo	2023-03-05T00:00:00	2024-11-08T17:00:00	8	Radiación solar	178
91577	7	Sololá	704	Santa Lucía Utatlán 	7	Santa Rita 	5	Mayo	2023-03-05T00:00:00	2024-11-08T18:00:00	2	Temperatura media	23.3
91578	7	Sololá	704	Santa Lucía Utatlán 	7	Santa Rita 	5	Mayo	2023-03-05T00:00:00	2024-11-08T18:00:00	4	Temperatura máxima	23.3
91579	7	Sololá	704	Santa Lucía Utatlán 	7	Santa Rita 	5	Mayo	2023-03-05T00:00:00	2024-11-08T18:00:00	3	Temperatura mínima	20.6
91580	7	Sololá	704	Santa Lucía Utatlán 	7	Santa Rita 	5	Mayo	2023-03-05T00:00:00	2024-11-08T18:00:00	5	Humedad	82
91581	7	Sololá	704	Santa Lucía Utatlán 	7	Santa Rita 	5	Mayo	2023-03-05T00:00:00	2024-11-08T18:00:00	6	Velocidad del viento	3.2
91582	7	Sololá	704	Santa Lucía Utatlán 	7	Santa Rita 	5	Mayo	2023-03-05T00:00:00	2024-11-08T18:00:00	7	Dirección del viento	3.22
91583	7	Sololá	704	Santa Lucía Utatlán 	7	Santa Rita 	5	Mayo	2023-03-05T00:00:00	2024-11-08T18:00:00	1	Precipitación	0.8
91584	7	Sololá	704	Santa Lucía Utatlán 	7	Santa Rita 	5	Mayo	2023-03-05T00:00:00	2024-11-08T18:00:00	8	Radiación solar	310
91585	7	Sololá	704	Santa Lucía Utatlán 	7	Santa Rita 	5	Mayo	2023-03-05T00:00:00	2024-11-08T19:00:00	2	Temperatura media	21.5
91586	7	Sololá	704	Santa Lucía Utatlán 	7	Santa Rita 	5	Mayo	2023-03-05T00:00:00	2024-11-08T19:00:00	4	Temperatura máxima	23.8
91587	7	Sololá	704	Santa Lucía Utatlán 	7	Santa Rita 	5	Mayo	2023-03-05T00:00:00	2024-11-08T19:00:00	3	Temperatura mínima	21.4
91588	7	Sololá	704	Santa Lucía Utatlán 	7	Santa Rita 	5	Mayo	2023-03-05T00:00:00	2024-11-08T19:00:00	5	Humedad	81
91589	7	Sololá	704	Santa Lucía Utatlán 	7	Santa Rita 	5	Mayo	2023-03-05T00:00:00	2024-11-08T19:00:00	6	Velocidad del viento	4.8
91590	7	Sololá	704	Santa Lucía Utatlán 	7	Santa Rita 	5	Mayo	2023-03-05T00:00:00	2024-11-08T19:00:00	7	Dirección del viento	4.83
91591	7	Sololá	704	Santa Lucía Utatlán 	7	Santa Rita 	5	Mayo	2023-03-05T00:00:00	2024-11-08T19:00:00	1	Precipitación	0
91592	7	Sololá	704	Santa Lucía Utatlán 	7	Santa Rita 	5	Mayo	2023-03-05T00:00:00	2024-11-08T19:00:00	8	Radiación solar	0
91593	7	Sololá	704	Santa Lucía Utatlán 	7	Santa Rita 	5	Mayo	2023-03-05T00:00:00	2024-11-08T20:00:00	2	Temperatura media	20.4
91594	7	Sololá	704	Santa Lucía Utatlán 	7	Santa Rita 	5	Mayo	2023-03-05T00:00:00	2024-11-08T20:00:00	4	Temperatura máxima	21.6
91595	7	Sololá	704	Santa Lucía Utatlán 	7	Santa Rita 	5	Mayo	2023-03-05T00:00:00	2024-11-08T20:00:00	3	Temperatura mínima	19.7
91596	7	Sololá	704	Santa Lucía Utatlán 	7	Santa Rita 	5	Mayo	2023-03-05T00:00:00	2024-11-08T20:00:00	5	Humedad	80
91597	7	Sololá	704	Santa Lucía Utatlán 	7	Santa Rita 	5	Mayo	2023-03-05T00:00:00	2024-11-08T20:00:00	6	Velocidad del viento	4.8
91598	7	Sololá	704	Santa Lucía Utatlán 	7	Santa Rita 	5	Mayo	2023-03-05T00:00:00	2024-11-08T20:00:00	7	Dirección del viento	4.83
91599	7	Sololá	704	Santa Lucía Utatlán 	7	Santa Rita 	5	Mayo	2023-03-05T00:00:00	2024-11-08T20:00:00	1	Precipitación	0
91600	7	Sololá	704	Santa Lucía Utatlán 	7	Santa Rita 	5	Mayo	2023-03-05T00:00:00	2024-11-08T20:00:00	8	Radiación solar	0
91601	7	Sololá	704	Santa Lucía Utatlán 	7	Santa Rita 	5	Mayo	2023-03-05T00:00:00	2024-11-08T21:00:00	2	Temperatura media	21.3
91602	7	Sololá	704	Santa Lucía Utatlán 	7	Santa Rita 	5	Mayo	2023-03-05T00:00:00	2024-11-08T21:00:00	4	Temperatura máxima	21.8
91603	7	Sololá	704	Santa Lucía Utatlán 	7	Santa Rita 	5	Mayo	2023-03-05T00:00:00	2024-11-08T21:00:00	3	Temperatura mínima	20.1
91604	7	Sololá	704	Santa Lucía Utatlán 	7	Santa Rita 	5	Mayo	2023-03-05T00:00:00	2024-11-08T21:00:00	5	Humedad	68
91605	7	Sololá	704	Santa Lucía Utatlán 	7	Santa Rita 	5	Mayo	2023-03-05T00:00:00	2024-11-08T21:00:00	6	Velocidad del viento	4.8
91606	7	Sololá	704	Santa Lucía Utatlán 	7	Santa Rita 	5	Mayo	2023-03-05T00:00:00	2024-11-08T21:00:00	7	Dirección del viento	4.83
91607	7	Sololá	704	Santa Lucía Utatlán 	7	Santa Rita 	5	Mayo	2023-03-05T00:00:00	2024-11-08T21:00:00	1	Precipitación	0
91608	7	Sololá	704	Santa Lucía Utatlán 	7	Santa Rita 	5	Mayo	2023-03-05T00:00:00	2024-11-08T21:00:00	8	Radiación solar	0
91609	7	Sololá	704	Santa Lucía Utatlán 	7	Santa Rita 	5	Mayo	2023-03-05T00:00:00	2024-11-08T22:00:00	2	Temperatura media	18.6
91610	7	Sololá	704	Santa Lucía Utatlán 	7	Santa Rita 	5	Mayo	2023-03-05T00:00:00	2024-11-08T22:00:00	4	Temperatura máxima	21.3
91611	7	Sololá	704	Santa Lucía Utatlán 	7	Santa Rita 	5	Mayo	2023-03-05T00:00:00	2024-11-08T22:00:00	3	Temperatura mínima	18.6
91612	7	Sololá	704	Santa Lucía Utatlán 	7	Santa Rita 	5	Mayo	2023-03-05T00:00:00	2024-11-08T22:00:00	5	Humedad	83
91613	7	Sololá	704	Santa Lucía Utatlán 	7	Santa Rita 	5	Mayo	2023-03-05T00:00:00	2024-11-08T22:00:00	6	Velocidad del viento	3.2
91614	7	Sololá	704	Santa Lucía Utatlán 	7	Santa Rita 	5	Mayo	2023-03-05T00:00:00	2024-11-08T22:00:00	7	Dirección del viento	3.22
91615	7	Sololá	704	Santa Lucía Utatlán 	7	Santa Rita 	5	Mayo	2023-03-05T00:00:00	2024-11-08T22:00:00	1	Precipitación	0
91616	7	Sololá	704	Santa Lucía Utatlán 	7	Santa Rita 	5	Mayo	2023-03-05T00:00:00	2024-11-08T22:00:00	8	Radiación solar	0
91617	7	Sololá	704	Santa Lucía Utatlán 	7	Santa Rita 	5	Mayo	2023-03-05T00:00:00	2024-11-08T23:00:00	2	Temperatura media	18.2
91618	7	Sololá	704	Santa Lucía Utatlán 	7	Santa Rita 	5	Mayo	2023-03-05T00:00:00	2024-11-08T23:00:00	4	Temperatura máxima	18.6
91619	7	Sololá	704	Santa Lucía Utatlán 	7	Santa Rita 	5	Mayo	2023-03-05T00:00:00	2024-11-08T23:00:00	3	Temperatura mínima	18.1
91620	7	Sololá	704	Santa Lucía Utatlán 	7	Santa Rita 	5	Mayo	2023-03-05T00:00:00	2024-11-08T23:00:00	5	Humedad	83
91621	7	Sololá	704	Santa Lucía Utatlán 	7	Santa Rita 	5	Mayo	2023-03-05T00:00:00	2024-11-08T23:00:00	6	Velocidad del viento	3.2
91622	7	Sololá	704	Santa Lucía Utatlán 	7	Santa Rita 	5	Mayo	2023-03-05T00:00:00	2024-11-08T23:00:00	7	Dirección del viento	3.22
91623	7	Sololá	704	Santa Lucía Utatlán 	7	Santa Rita 	5	Mayo	2023-03-05T00:00:00	2024-11-08T23:00:00	1	Precipitación	0
91624	7	Sololá	704	Santa Lucía Utatlán 	7	Santa Rita 	5	Mayo	2023-03-05T00:00:00	2024-11-08T23:00:00	8	Radiación solar	0
91625	7	Sololá	704	Santa Lucía Utatlán 	7	Santa Rita 	5	Mayo	2023-04-05T00:00:00	2024-11-08T00:00:00	2	Temperatura media	17.5
91626	7	Sololá	704	Santa Lucía Utatlán 	7	Santa Rita 	5	Mayo	2023-04-05T00:00:00	2024-11-08T00:00:00	4	Temperatura máxima	18.2
91627	7	Sololá	704	Santa Lucía Utatlán 	7	Santa Rita 	5	Mayo	2023-04-05T00:00:00	2024-11-08T00:00:00	3	Temperatura mínima	17.4
91628	7	Sololá	704	Santa Lucía Utatlán 	7	Santa Rita 	5	Mayo	2023-04-05T00:00:00	2024-11-08T00:00:00	5	Humedad	83
91629	7	Sololá	704	Santa Lucía Utatlán 	7	Santa Rita 	5	Mayo	2023-04-05T00:00:00	2024-11-08T00:00:00	6	Velocidad del viento	3.2
91630	7	Sololá	704	Santa Lucía Utatlán 	7	Santa Rita 	5	Mayo	2023-04-05T00:00:00	2024-11-08T00:00:00	7	Dirección del viento	3.22
91631	7	Sololá	704	Santa Lucía Utatlán 	7	Santa Rita 	5	Mayo	2023-04-05T00:00:00	2024-11-08T00:00:00	1	Precipitación	0
91632	7	Sololá	704	Santa Lucía Utatlán 	7	Santa Rita 	5	Mayo	2023-04-05T00:00:00	2024-11-08T00:00:00	8	Radiación solar	0
91633	7	Sololá	704	Santa Lucía Utatlán 	7	Santa Rita 	5	Mayo	2023-04-05T00:00:00	2024-11-08T01:00:00	2	Temperatura media	17.4
91634	7	Sololá	704	Santa Lucía Utatlán 	7	Santa Rita 	5	Mayo	2023-04-05T00:00:00	2024-11-08T01:00:00	4	Temperatura máxima	17.6
91635	7	Sololá	704	Santa Lucía Utatlán 	7	Santa Rita 	5	Mayo	2023-04-05T00:00:00	2024-11-08T01:00:00	3	Temperatura mínima	17.3
91636	7	Sololá	704	Santa Lucía Utatlán 	7	Santa Rita 	5	Mayo	2023-04-05T00:00:00	2024-11-08T01:00:00	5	Humedad	86
91637	7	Sololá	704	Santa Lucía Utatlán 	7	Santa Rita 	5	Mayo	2023-04-05T00:00:00	2024-11-08T01:00:00	6	Velocidad del viento	3.2
91638	7	Sololá	704	Santa Lucía Utatlán 	7	Santa Rita 	5	Mayo	2023-04-05T00:00:00	2024-11-08T01:00:00	7	Dirección del viento	3.22
91639	7	Sololá	704	Santa Lucía Utatlán 	7	Santa Rita 	5	Mayo	2023-04-05T00:00:00	2024-11-08T01:00:00	1	Precipitación	0
91640	7	Sololá	704	Santa Lucía Utatlán 	7	Santa Rita 	5	Mayo	2023-04-05T00:00:00	2024-11-08T01:00:00	8	Radiación solar	0
91641	7	Sololá	704	Santa Lucía Utatlán 	7	Santa Rita 	5	Mayo	2023-04-05T00:00:00	2024-11-08T02:00:00	2	Temperatura media	18.3
91642	7	Sololá	704	Santa Lucía Utatlán 	7	Santa Rita 	5	Mayo	2023-04-05T00:00:00	2024-11-08T02:00:00	4	Temperatura máxima	18.3
91643	7	Sololá	704	Santa Lucía Utatlán 	7	Santa Rita 	5	Mayo	2023-04-05T00:00:00	2024-11-08T02:00:00	3	Temperatura mínima	17.2
91644	7	Sololá	704	Santa Lucía Utatlán 	7	Santa Rita 	5	Mayo	2023-04-05T00:00:00	2024-11-08T02:00:00	5	Humedad	79
91645	7	Sololá	704	Santa Lucía Utatlán 	7	Santa Rita 	5	Mayo	2023-04-05T00:00:00	2024-11-08T02:00:00	6	Velocidad del viento	3.2
91646	7	Sololá	704	Santa Lucía Utatlán 	7	Santa Rita 	5	Mayo	2023-04-05T00:00:00	2024-11-08T02:00:00	7	Dirección del viento	3.22
91647	7	Sololá	704	Santa Lucía Utatlán 	7	Santa Rita 	5	Mayo	2023-04-05T00:00:00	2024-11-08T02:00:00	1	Precipitación	0
91648	7	Sololá	704	Santa Lucía Utatlán 	7	Santa Rita 	5	Mayo	2023-04-05T00:00:00	2024-11-08T02:00:00	8	Radiación solar	0
91649	7	Sololá	704	Santa Lucía Utatlán 	7	Santa Rita 	5	Mayo	2023-04-05T00:00:00	2024-11-08T03:00:00	2	Temperatura media	17.6
91650	7	Sololá	704	Santa Lucía Utatlán 	7	Santa Rita 	5	Mayo	2023-04-05T00:00:00	2024-11-08T03:00:00	4	Temperatura máxima	19.9
91651	7	Sololá	704	Santa Lucía Utatlán 	7	Santa Rita 	5	Mayo	2023-04-05T00:00:00	2024-11-08T03:00:00	3	Temperatura mínima	17.6
91652	7	Sololá	704	Santa Lucía Utatlán 	7	Santa Rita 	5	Mayo	2023-04-05T00:00:00	2024-11-08T03:00:00	5	Humedad	76
91653	7	Sololá	704	Santa Lucía Utatlán 	7	Santa Rita 	5	Mayo	2023-04-05T00:00:00	2024-11-08T03:00:00	6	Velocidad del viento	3.2
91654	7	Sololá	704	Santa Lucía Utatlán 	7	Santa Rita 	5	Mayo	2023-04-05T00:00:00	2024-11-08T03:00:00	7	Dirección del viento	3.22
91655	7	Sololá	704	Santa Lucía Utatlán 	7	Santa Rita 	5	Mayo	2023-04-05T00:00:00	2024-11-08T03:00:00	1	Precipitación	0
91656	7	Sololá	704	Santa Lucía Utatlán 	7	Santa Rita 	5	Mayo	2023-04-05T00:00:00	2024-11-08T03:00:00	8	Radiación solar	0
91657	7	Sololá	704	Santa Lucía Utatlán 	7	Santa Rita 	5	Mayo	2023-04-05T00:00:00	2024-11-08T04:00:00	2	Temperatura media	17.2
91658	7	Sololá	704	Santa Lucía Utatlán 	7	Santa Rita 	5	Mayo	2023-04-05T00:00:00	2024-11-08T04:00:00	4	Temperatura máxima	17.8
91659	7	Sololá	704	Santa Lucía Utatlán 	7	Santa Rita 	5	Mayo	2023-04-05T00:00:00	2024-11-08T04:00:00	3	Temperatura mínima	17.1
91660	7	Sololá	704	Santa Lucía Utatlán 	7	Santa Rita 	5	Mayo	2023-04-05T00:00:00	2024-11-08T04:00:00	5	Humedad	80
91661	7	Sololá	704	Santa Lucía Utatlán 	7	Santa Rita 	5	Mayo	2023-04-05T00:00:00	2024-11-08T04:00:00	6	Velocidad del viento	1.6
91662	7	Sololá	704	Santa Lucía Utatlán 	7	Santa Rita 	5	Mayo	2023-04-05T00:00:00	2024-11-08T04:00:00	7	Dirección del viento	1.61
91663	7	Sololá	704	Santa Lucía Utatlán 	7	Santa Rita 	5	Mayo	2023-04-05T00:00:00	2024-11-08T04:00:00	1	Precipitación	0
91664	7	Sololá	704	Santa Lucía Utatlán 	7	Santa Rita 	5	Mayo	2023-04-05T00:00:00	2024-11-08T04:00:00	8	Radiación solar	0
91665	7	Sololá	704	Santa Lucía Utatlán 	7	Santa Rita 	5	Mayo	2023-04-05T00:00:00	2024-11-08T05:00:00	2	Temperatura media	18.8
91666	7	Sololá	704	Santa Lucía Utatlán 	7	Santa Rita 	5	Mayo	2023-04-05T00:00:00	2024-11-08T05:00:00	4	Temperatura máxima	18.8
91667	7	Sololá	704	Santa Lucía Utatlán 	7	Santa Rita 	5	Mayo	2023-04-05T00:00:00	2024-11-08T05:00:00	3	Temperatura mínima	17.2
91668	7	Sololá	704	Santa Lucía Utatlán 	7	Santa Rita 	5	Mayo	2023-04-05T00:00:00	2024-11-08T05:00:00	5	Humedad	76
91669	7	Sololá	704	Santa Lucía Utatlán 	7	Santa Rita 	5	Mayo	2023-04-05T00:00:00	2024-11-08T05:00:00	6	Velocidad del viento	3.2
91670	7	Sololá	704	Santa Lucía Utatlán 	7	Santa Rita 	5	Mayo	2023-04-05T00:00:00	2024-11-08T05:00:00	7	Dirección del viento	3.22
91671	7	Sololá	704	Santa Lucía Utatlán 	7	Santa Rita 	5	Mayo	2023-04-05T00:00:00	2024-11-08T05:00:00	1	Precipitación	0
91672	7	Sololá	704	Santa Lucía Utatlán 	7	Santa Rita 	5	Mayo	2023-04-05T00:00:00	2024-11-08T05:00:00	8	Radiación solar	0
91673	7	Sololá	704	Santa Lucía Utatlán 	7	Santa Rita 	5	Mayo	2023-04-05T00:00:00	2024-11-08T06:00:00	2	Temperatura media	18
91674	7	Sololá	704	Santa Lucía Utatlán 	7	Santa Rita 	5	Mayo	2023-04-05T00:00:00	2024-11-08T06:00:00	4	Temperatura máxima	18.9
91675	7	Sololá	704	Santa Lucía Utatlán 	7	Santa Rita 	5	Mayo	2023-04-05T00:00:00	2024-11-08T06:00:00	3	Temperatura mínima	17.9
91676	7	Sololá	704	Santa Lucía Utatlán 	7	Santa Rita 	5	Mayo	2023-04-05T00:00:00	2024-11-08T06:00:00	5	Humedad	79
91677	7	Sololá	704	Santa Lucía Utatlán 	7	Santa Rita 	5	Mayo	2023-04-05T00:00:00	2024-11-08T06:00:00	6	Velocidad del viento	1.6
91678	7	Sololá	704	Santa Lucía Utatlán 	7	Santa Rita 	5	Mayo	2023-04-05T00:00:00	2024-11-08T06:00:00	7	Dirección del viento	1.61
91679	7	Sololá	704	Santa Lucía Utatlán 	7	Santa Rita 	5	Mayo	2023-04-05T00:00:00	2024-11-08T06:00:00	1	Precipitación	0
91680	7	Sololá	704	Santa Lucía Utatlán 	7	Santa Rita 	5	Mayo	2023-04-05T00:00:00	2024-11-08T06:00:00	8	Radiación solar	0
91681	7	Sololá	704	Santa Lucía Utatlán 	7	Santa Rita 	5	Mayo	2023-04-05T00:00:00	2024-11-08T07:00:00	2	Temperatura media	18.4
91682	7	Sololá	704	Santa Lucía Utatlán 	7	Santa Rita 	5	Mayo	2023-04-05T00:00:00	2024-11-08T07:00:00	4	Temperatura máxima	18.4
91683	7	Sololá	704	Santa Lucía Utatlán 	7	Santa Rita 	5	Mayo	2023-04-05T00:00:00	2024-11-08T07:00:00	3	Temperatura mínima	17.6
91684	7	Sololá	704	Santa Lucía Utatlán 	7	Santa Rita 	5	Mayo	2023-04-05T00:00:00	2024-11-08T07:00:00	5	Humedad	77
91685	7	Sololá	704	Santa Lucía Utatlán 	7	Santa Rita 	5	Mayo	2023-04-05T00:00:00	2024-11-08T07:00:00	6	Velocidad del viento	3.2
91686	7	Sololá	704	Santa Lucía Utatlán 	7	Santa Rita 	5	Mayo	2023-04-05T00:00:00	2024-11-08T07:00:00	7	Dirección del viento	3.22
91687	7	Sololá	704	Santa Lucía Utatlán 	7	Santa Rita 	5	Mayo	2023-04-05T00:00:00	2024-11-08T07:00:00	1	Precipitación	0
91688	7	Sololá	704	Santa Lucía Utatlán 	7	Santa Rita 	5	Mayo	2023-04-05T00:00:00	2024-11-08T07:00:00	8	Radiación solar	8
91689	7	Sololá	704	Santa Lucía Utatlán 	7	Santa Rita 	5	Mayo	2023-04-05T00:00:00	2024-11-08T08:00:00	2	Temperatura media	20.3
91690	7	Sololá	704	Santa Lucía Utatlán 	7	Santa Rita 	5	Mayo	2023-04-05T00:00:00	2024-11-08T08:00:00	4	Temperatura máxima	20.3
91691	7	Sololá	704	Santa Lucía Utatlán 	7	Santa Rita 	5	Mayo	2023-04-05T00:00:00	2024-11-08T08:00:00	3	Temperatura mínima	18.4
91692	7	Sololá	704	Santa Lucía Utatlán 	7	Santa Rita 	5	Mayo	2023-04-05T00:00:00	2024-11-08T08:00:00	5	Humedad	72
91693	7	Sololá	704	Santa Lucía Utatlán 	7	Santa Rita 	5	Mayo	2023-04-05T00:00:00	2024-11-08T08:00:00	6	Velocidad del viento	1.6
91694	7	Sololá	704	Santa Lucía Utatlán 	7	Santa Rita 	5	Mayo	2023-04-05T00:00:00	2024-11-08T08:00:00	7	Dirección del viento	1.61
91695	7	Sololá	704	Santa Lucía Utatlán 	7	Santa Rita 	5	Mayo	2023-04-05T00:00:00	2024-11-08T08:00:00	1	Precipitación	0
91696	7	Sololá	704	Santa Lucía Utatlán 	7	Santa Rita 	5	Mayo	2023-04-05T00:00:00	2024-11-08T08:00:00	8	Radiación solar	110
91697	7	Sololá	704	Santa Lucía Utatlán 	7	Santa Rita 	5	Mayo	2023-04-05T00:00:00	2024-11-08T09:00:00	2	Temperatura media	22.4
91698	7	Sololá	704	Santa Lucía Utatlán 	7	Santa Rita 	5	Mayo	2023-04-05T00:00:00	2024-11-08T09:00:00	4	Temperatura máxima	22.4
91699	7	Sololá	704	Santa Lucía Utatlán 	7	Santa Rita 	5	Mayo	2023-04-05T00:00:00	2024-11-08T09:00:00	3	Temperatura mínima	20.3
91700	7	Sololá	704	Santa Lucía Utatlán 	7	Santa Rita 	5	Mayo	2023-04-05T00:00:00	2024-11-08T09:00:00	5	Humedad	69
91701	7	Sololá	704	Santa Lucía Utatlán 	7	Santa Rita 	5	Mayo	2023-04-05T00:00:00	2024-11-08T09:00:00	6	Velocidad del viento	3.2
91702	7	Sololá	704	Santa Lucía Utatlán 	7	Santa Rita 	5	Mayo	2023-04-05T00:00:00	2024-11-08T09:00:00	7	Dirección del viento	3.22
91703	7	Sololá	704	Santa Lucía Utatlán 	7	Santa Rita 	5	Mayo	2023-04-05T00:00:00	2024-11-08T09:00:00	1	Precipitación	0
91704	7	Sololá	704	Santa Lucía Utatlán 	7	Santa Rita 	5	Mayo	2023-04-05T00:00:00	2024-11-08T09:00:00	8	Radiación solar	413
91705	7	Sololá	704	Santa Lucía Utatlán 	7	Santa Rita 	5	Mayo	2023-04-05T00:00:00	2024-11-08T10:00:00	2	Temperatura media	24.4
91706	7	Sololá	704	Santa Lucía Utatlán 	7	Santa Rita 	5	Mayo	2023-04-05T00:00:00	2024-11-08T10:00:00	4	Temperatura máxima	24.4
91707	7	Sololá	704	Santa Lucía Utatlán 	7	Santa Rita 	5	Mayo	2023-04-05T00:00:00	2024-11-08T10:00:00	3	Temperatura mínima	22.4
91708	7	Sololá	704	Santa Lucía Utatlán 	7	Santa Rita 	5	Mayo	2023-04-05T00:00:00	2024-11-08T10:00:00	5	Humedad	65
91709	7	Sololá	704	Santa Lucía Utatlán 	7	Santa Rita 	5	Mayo	2023-04-05T00:00:00	2024-11-08T10:00:00	6	Velocidad del viento	4.8
91710	7	Sololá	704	Santa Lucía Utatlán 	7	Santa Rita 	5	Mayo	2023-04-05T00:00:00	2024-11-08T10:00:00	7	Dirección del viento	4.83
91711	7	Sololá	704	Santa Lucía Utatlán 	7	Santa Rita 	5	Mayo	2023-04-05T00:00:00	2024-11-08T10:00:00	1	Precipitación	0
91712	7	Sololá	704	Santa Lucía Utatlán 	7	Santa Rita 	5	Mayo	2023-04-05T00:00:00	2024-11-08T10:00:00	8	Radiación solar	624
91713	7	Sololá	704	Santa Lucía Utatlán 	7	Santa Rita 	5	Mayo	2023-04-05T00:00:00	2024-11-08T11:00:00	2	Temperatura media	24.9
91714	7	Sololá	704	Santa Lucía Utatlán 	7	Santa Rita 	5	Mayo	2023-04-05T00:00:00	2024-11-08T11:00:00	4	Temperatura máxima	24.9
91715	7	Sololá	704	Santa Lucía Utatlán 	7	Santa Rita 	5	Mayo	2023-04-05T00:00:00	2024-11-08T11:00:00	3	Temperatura mínima	24.3
91716	7	Sololá	704	Santa Lucía Utatlán 	7	Santa Rita 	5	Mayo	2023-04-05T00:00:00	2024-11-08T11:00:00	5	Humedad	64
91717	7	Sololá	704	Santa Lucía Utatlán 	7	Santa Rita 	5	Mayo	2023-04-05T00:00:00	2024-11-08T11:00:00	6	Velocidad del viento	6.4
91718	7	Sololá	704	Santa Lucía Utatlán 	7	Santa Rita 	5	Mayo	2023-04-05T00:00:00	2024-11-08T11:00:00	7	Dirección del viento	6.44
91719	7	Sololá	704	Santa Lucía Utatlán 	7	Santa Rita 	5	Mayo	2023-04-05T00:00:00	2024-11-08T11:00:00	1	Precipitación	0
91720	7	Sololá	704	Santa Lucía Utatlán 	7	Santa Rita 	5	Mayo	2023-04-05T00:00:00	2024-11-08T11:00:00	8	Radiación solar	824
91721	7	Sololá	704	Santa Lucía Utatlán 	7	Santa Rita 	5	Mayo	2023-04-05T00:00:00	2024-11-08T12:00:00	2	Temperatura media	25.6
91722	7	Sololá	704	Santa Lucía Utatlán 	7	Santa Rita 	5	Mayo	2023-04-05T00:00:00	2024-11-08T12:00:00	4	Temperatura máxima	25.6
91723	7	Sololá	704	Santa Lucía Utatlán 	7	Santa Rita 	5	Mayo	2023-04-05T00:00:00	2024-11-08T12:00:00	3	Temperatura mínima	24.7
91724	7	Sololá	704	Santa Lucía Utatlán 	7	Santa Rita 	5	Mayo	2023-04-05T00:00:00	2024-11-08T12:00:00	5	Humedad	64
91725	7	Sololá	704	Santa Lucía Utatlán 	7	Santa Rita 	5	Mayo	2023-04-05T00:00:00	2024-11-08T12:00:00	6	Velocidad del viento	11.3
91726	7	Sololá	704	Santa Lucía Utatlán 	7	Santa Rita 	5	Mayo	2023-04-05T00:00:00	2024-11-08T12:00:00	7	Dirección del viento	11.27
91727	7	Sololá	704	Santa Lucía Utatlán 	7	Santa Rita 	5	Mayo	2023-04-05T00:00:00	2024-11-08T12:00:00	1	Precipitación	0
91728	7	Sololá	704	Santa Lucía Utatlán 	7	Santa Rita 	5	Mayo	2023-04-05T00:00:00	2024-11-08T12:00:00	8	Radiación solar	980
91729	7	Sololá	704	Santa Lucía Utatlán 	7	Santa Rita 	5	Mayo	2023-04-05T00:00:00	2024-11-08T13:00:00	2	Temperatura media	25.6
91730	7	Sololá	704	Santa Lucía Utatlán 	7	Santa Rita 	5	Mayo	2023-04-05T00:00:00	2024-11-08T13:00:00	4	Temperatura máxima	26
91731	7	Sololá	704	Santa Lucía Utatlán 	7	Santa Rita 	5	Mayo	2023-04-05T00:00:00	2024-11-08T13:00:00	3	Temperatura mínima	25.4
91732	7	Sololá	704	Santa Lucía Utatlán 	7	Santa Rita 	5	Mayo	2023-04-05T00:00:00	2024-11-08T13:00:00	5	Humedad	57
91733	7	Sololá	704	Santa Lucía Utatlán 	7	Santa Rita 	5	Mayo	2023-04-05T00:00:00	2024-11-08T13:00:00	6	Velocidad del viento	14.5
91734	7	Sololá	704	Santa Lucía Utatlán 	7	Santa Rita 	5	Mayo	2023-04-05T00:00:00	2024-11-08T13:00:00	7	Dirección del viento	14.48
91735	7	Sololá	704	Santa Lucía Utatlán 	7	Santa Rita 	5	Mayo	2023-04-05T00:00:00	2024-11-08T13:00:00	1	Precipitación	0
91736	7	Sololá	704	Santa Lucía Utatlán 	7	Santa Rita 	5	Mayo	2023-04-05T00:00:00	2024-11-08T13:00:00	8	Radiación solar	860
91737	7	Sololá	704	Santa Lucía Utatlán 	7	Santa Rita 	5	Mayo	2023-04-05T00:00:00	2024-11-08T14:00:00	2	Temperatura media	25.8
91738	7	Sololá	704	Santa Lucía Utatlán 	7	Santa Rita 	5	Mayo	2023-04-05T00:00:00	2024-11-08T14:00:00	4	Temperatura máxima	26.1
91739	7	Sololá	704	Santa Lucía Utatlán 	7	Santa Rita 	5	Mayo	2023-04-05T00:00:00	2024-11-08T14:00:00	3	Temperatura mínima	25.2
91740	7	Sololá	704	Santa Lucía Utatlán 	7	Santa Rita 	5	Mayo	2023-04-05T00:00:00	2024-11-08T14:00:00	5	Humedad	57
91741	7	Sololá	704	Santa Lucía Utatlán 	7	Santa Rita 	5	Mayo	2023-04-05T00:00:00	2024-11-08T14:00:00	6	Velocidad del viento	11.3
91742	7	Sololá	704	Santa Lucía Utatlán 	7	Santa Rita 	5	Mayo	2023-04-05T00:00:00	2024-11-08T14:00:00	7	Dirección del viento	11.27
91743	7	Sololá	704	Santa Lucía Utatlán 	7	Santa Rita 	5	Mayo	2023-04-05T00:00:00	2024-11-08T14:00:00	1	Precipitación	0
91744	7	Sololá	704	Santa Lucía Utatlán 	7	Santa Rita 	5	Mayo	2023-04-05T00:00:00	2024-11-08T14:00:00	8	Radiación solar	500
91745	7	Sololá	704	Santa Lucía Utatlán 	7	Santa Rita 	5	Mayo	2023-04-05T00:00:00	2024-11-08T15:00:00	2	Temperatura media	25.6
91746	7	Sololá	704	Santa Lucía Utatlán 	7	Santa Rita 	5	Mayo	2023-04-05T00:00:00	2024-11-08T15:00:00	4	Temperatura máxima	26
91747	7	Sololá	704	Santa Lucía Utatlán 	7	Santa Rita 	5	Mayo	2023-04-05T00:00:00	2024-11-08T15:00:00	3	Temperatura mínima	25.2
91748	7	Sololá	704	Santa Lucía Utatlán 	7	Santa Rita 	5	Mayo	2023-04-05T00:00:00	2024-11-08T15:00:00	5	Humedad	60
91749	7	Sololá	704	Santa Lucía Utatlán 	7	Santa Rita 	5	Mayo	2023-04-05T00:00:00	2024-11-08T15:00:00	6	Velocidad del viento	9.7
91750	7	Sololá	704	Santa Lucía Utatlán 	7	Santa Rita 	5	Mayo	2023-04-05T00:00:00	2024-11-08T15:00:00	7	Dirección del viento	9.66
91751	7	Sololá	704	Santa Lucía Utatlán 	7	Santa Rita 	5	Mayo	2023-04-05T00:00:00	2024-11-08T15:00:00	1	Precipitación	0
91752	7	Sololá	704	Santa Lucía Utatlán 	7	Santa Rita 	5	Mayo	2023-04-05T00:00:00	2024-11-08T15:00:00	8	Radiación solar	288
91753	7	Sololá	704	Santa Lucía Utatlán 	7	Santa Rita 	5	Mayo	2023-04-05T00:00:00	2024-11-08T16:00:00	2	Temperatura media	26.2
91754	7	Sololá	704	Santa Lucía Utatlán 	7	Santa Rita 	5	Mayo	2023-04-05T00:00:00	2024-11-08T16:00:00	4	Temperatura máxima	26.3
91755	7	Sololá	704	Santa Lucía Utatlán 	7	Santa Rita 	5	Mayo	2023-04-05T00:00:00	2024-11-08T16:00:00	3	Temperatura mínima	25.3
91756	7	Sololá	704	Santa Lucía Utatlán 	7	Santa Rita 	5	Mayo	2023-04-05T00:00:00	2024-11-08T16:00:00	5	Humedad	58
91757	7	Sololá	704	Santa Lucía Utatlán 	7	Santa Rita 	5	Mayo	2023-04-05T00:00:00	2024-11-08T16:00:00	6	Velocidad del viento	9.7
91758	7	Sololá	704	Santa Lucía Utatlán 	7	Santa Rita 	5	Mayo	2023-04-05T00:00:00	2024-11-08T16:00:00	7	Dirección del viento	9.66
91759	7	Sololá	704	Santa Lucía Utatlán 	7	Santa Rita 	5	Mayo	2023-04-05T00:00:00	2024-11-08T16:00:00	1	Precipitación	0
91760	7	Sololá	704	Santa Lucía Utatlán 	7	Santa Rita 	5	Mayo	2023-04-05T00:00:00	2024-11-08T16:00:00	8	Radiación solar	419
91761	7	Sololá	704	Santa Lucía Utatlán 	7	Santa Rita 	5	Mayo	2023-04-05T00:00:00	2024-11-08T17:00:00	2	Temperatura media	25.3
91762	7	Sololá	704	Santa Lucía Utatlán 	7	Santa Rita 	5	Mayo	2023-04-05T00:00:00	2024-11-08T17:00:00	4	Temperatura máxima	26.8
91763	7	Sololá	704	Santa Lucía Utatlán 	7	Santa Rita 	5	Mayo	2023-04-05T00:00:00	2024-11-08T17:00:00	3	Temperatura mínima	25.3
91764	7	Sololá	704	Santa Lucía Utatlán 	7	Santa Rita 	5	Mayo	2023-04-05T00:00:00	2024-11-08T17:00:00	5	Humedad	64
91765	7	Sololá	704	Santa Lucía Utatlán 	7	Santa Rita 	5	Mayo	2023-04-05T00:00:00	2024-11-08T17:00:00	6	Velocidad del viento	8
91766	7	Sololá	704	Santa Lucía Utatlán 	7	Santa Rita 	5	Mayo	2023-04-05T00:00:00	2024-11-08T17:00:00	7	Dirección del viento	8.05
91767	7	Sololá	704	Santa Lucía Utatlán 	7	Santa Rita 	5	Mayo	2023-04-05T00:00:00	2024-11-08T17:00:00	1	Precipitación	0
91768	7	Sololá	704	Santa Lucía Utatlán 	7	Santa Rita 	5	Mayo	2023-04-05T00:00:00	2024-11-08T17:00:00	8	Radiación solar	275
91769	7	Sololá	704	Santa Lucía Utatlán 	7	Santa Rita 	5	Mayo	2023-04-05T00:00:00	2024-11-08T18:00:00	2	Temperatura media	23.8
91770	7	Sololá	704	Santa Lucía Utatlán 	7	Santa Rita 	5	Mayo	2023-04-05T00:00:00	2024-11-08T18:00:00	4	Temperatura máxima	25.3
91771	7	Sololá	704	Santa Lucía Utatlán 	7	Santa Rita 	5	Mayo	2023-04-05T00:00:00	2024-11-08T18:00:00	3	Temperatura mínima	23.8
91772	7	Sololá	704	Santa Lucía Utatlán 	7	Santa Rita 	5	Mayo	2023-04-05T00:00:00	2024-11-08T18:00:00	5	Humedad	67
91773	7	Sololá	704	Santa Lucía Utatlán 	7	Santa Rita 	5	Mayo	2023-04-05T00:00:00	2024-11-08T18:00:00	6	Velocidad del viento	8
91774	7	Sololá	704	Santa Lucía Utatlán 	7	Santa Rita 	5	Mayo	2023-04-05T00:00:00	2024-11-08T18:00:00	7	Dirección del viento	8.05
91775	7	Sololá	704	Santa Lucía Utatlán 	7	Santa Rita 	5	Mayo	2023-04-05T00:00:00	2024-11-08T18:00:00	1	Precipitación	0
91776	7	Sololá	704	Santa Lucía Utatlán 	7	Santa Rita 	5	Mayo	2023-04-05T00:00:00	2024-11-08T18:00:00	8	Radiación solar	100
91777	7	Sololá	704	Santa Lucía Utatlán 	7	Santa Rita 	5	Mayo	2023-04-05T00:00:00	2024-11-08T19:00:00	2	Temperatura media	23.3
91778	7	Sololá	704	Santa Lucía Utatlán 	7	Santa Rita 	5	Mayo	2023-04-05T00:00:00	2024-11-08T19:00:00	4	Temperatura máxima	23.8
91779	7	Sololá	704	Santa Lucía Utatlán 	7	Santa Rita 	5	Mayo	2023-04-05T00:00:00	2024-11-08T19:00:00	3	Temperatura mínima	23.3
91780	7	Sololá	704	Santa Lucía Utatlán 	7	Santa Rita 	5	Mayo	2023-04-05T00:00:00	2024-11-08T19:00:00	5	Humedad	68
91781	7	Sololá	704	Santa Lucía Utatlán 	7	Santa Rita 	5	Mayo	2023-04-05T00:00:00	2024-11-08T19:00:00	6	Velocidad del viento	6.4
91782	7	Sololá	704	Santa Lucía Utatlán 	7	Santa Rita 	5	Mayo	2023-04-05T00:00:00	2024-11-08T19:00:00	7	Dirección del viento	6.44
91783	7	Sololá	704	Santa Lucía Utatlán 	7	Santa Rita 	5	Mayo	2023-04-05T00:00:00	2024-11-08T19:00:00	1	Precipitación	0
91784	7	Sololá	704	Santa Lucía Utatlán 	7	Santa Rita 	5	Mayo	2023-04-05T00:00:00	2024-11-08T19:00:00	8	Radiación solar	0
91785	7	Sololá	704	Santa Lucía Utatlán 	7	Santa Rita 	5	Mayo	2023-04-05T00:00:00	2024-11-08T20:00:00	2	Temperatura media	22.7
91786	7	Sololá	704	Santa Lucía Utatlán 	7	Santa Rita 	5	Mayo	2023-04-05T00:00:00	2024-11-08T20:00:00	4	Temperatura máxima	23.3
91787	7	Sololá	704	Santa Lucía Utatlán 	7	Santa Rita 	5	Mayo	2023-04-05T00:00:00	2024-11-08T20:00:00	3	Temperatura mínima	22.7
91788	7	Sololá	704	Santa Lucía Utatlán 	7	Santa Rita 	5	Mayo	2023-04-05T00:00:00	2024-11-08T20:00:00	5	Humedad	71
91789	7	Sololá	704	Santa Lucía Utatlán 	7	Santa Rita 	5	Mayo	2023-04-05T00:00:00	2024-11-08T20:00:00	6	Velocidad del viento	4.8
91790	7	Sololá	704	Santa Lucía Utatlán 	7	Santa Rita 	5	Mayo	2023-04-05T00:00:00	2024-11-08T20:00:00	7	Dirección del viento	4.83
91791	7	Sololá	704	Santa Lucía Utatlán 	7	Santa Rita 	5	Mayo	2023-04-05T00:00:00	2024-11-08T20:00:00	1	Precipitación	0
91792	7	Sololá	704	Santa Lucía Utatlán 	7	Santa Rita 	5	Mayo	2023-04-05T00:00:00	2024-11-08T20:00:00	8	Radiación solar	0
91793	7	Sololá	704	Santa Lucía Utatlán 	7	Santa Rita 	5	Mayo	2023-04-05T00:00:00	2024-11-08T21:00:00	2	Temperatura media	21.6
91794	7	Sololá	704	Santa Lucía Utatlán 	7	Santa Rita 	5	Mayo	2023-04-05T00:00:00	2024-11-08T21:00:00	4	Temperatura máxima	22.8
91795	7	Sololá	704	Santa Lucía Utatlán 	7	Santa Rita 	5	Mayo	2023-04-05T00:00:00	2024-11-08T21:00:00	3	Temperatura mínima	21.6
91796	7	Sololá	704	Santa Lucía Utatlán 	7	Santa Rita 	5	Mayo	2023-04-05T00:00:00	2024-11-08T21:00:00	5	Humedad	77
91797	7	Sololá	704	Santa Lucía Utatlán 	7	Santa Rita 	5	Mayo	2023-04-05T00:00:00	2024-11-08T21:00:00	6	Velocidad del viento	3.2
91798	7	Sololá	704	Santa Lucía Utatlán 	7	Santa Rita 	5	Mayo	2023-04-05T00:00:00	2024-11-08T21:00:00	7	Dirección del viento	3.22
91799	7	Sololá	704	Santa Lucía Utatlán 	7	Santa Rita 	5	Mayo	2023-04-05T00:00:00	2024-11-08T21:00:00	1	Precipitación	0
91800	7	Sololá	704	Santa Lucía Utatlán 	7	Santa Rita 	5	Mayo	2023-04-05T00:00:00	2024-11-08T21:00:00	8	Radiación solar	0
91801	7	Sololá	704	Santa Lucía Utatlán 	7	Santa Rita 	5	Mayo	2023-04-05T00:00:00	2024-11-08T22:00:00	2	Temperatura media	20.1
91802	7	Sololá	704	Santa Lucía Utatlán 	7	Santa Rita 	5	Mayo	2023-04-05T00:00:00	2024-11-08T22:00:00	4	Temperatura máxima	21.6
91803	7	Sololá	704	Santa Lucía Utatlán 	7	Santa Rita 	5	Mayo	2023-04-05T00:00:00	2024-11-08T22:00:00	3	Temperatura mínima	19.9
91804	7	Sololá	704	Santa Lucía Utatlán 	7	Santa Rita 	5	Mayo	2023-04-05T00:00:00	2024-11-08T22:00:00	5	Humedad	82
91805	7	Sololá	704	Santa Lucía Utatlán 	7	Santa Rita 	5	Mayo	2023-04-05T00:00:00	2024-11-08T22:00:00	6	Velocidad del viento	1.6
91806	7	Sololá	704	Santa Lucía Utatlán 	7	Santa Rita 	5	Mayo	2023-04-05T00:00:00	2024-11-08T22:00:00	7	Dirección del viento	1.61
91807	7	Sololá	704	Santa Lucía Utatlán 	7	Santa Rita 	5	Mayo	2023-04-05T00:00:00	2024-11-08T22:00:00	1	Precipitación	0
91808	7	Sololá	704	Santa Lucía Utatlán 	7	Santa Rita 	5	Mayo	2023-04-05T00:00:00	2024-11-08T22:00:00	8	Radiación solar	0
91809	7	Sololá	704	Santa Lucía Utatlán 	7	Santa Rita 	5	Mayo	2023-04-05T00:00:00	2024-11-08T23:00:00	2	Temperatura media	21.6
91810	7	Sololá	704	Santa Lucía Utatlán 	7	Santa Rita 	5	Mayo	2023-04-05T00:00:00	2024-11-08T23:00:00	4	Temperatura máxima	21.6
91811	7	Sololá	704	Santa Lucía Utatlán 	7	Santa Rita 	5	Mayo	2023-04-05T00:00:00	2024-11-08T23:00:00	3	Temperatura mínima	19.6
91812	7	Sololá	704	Santa Lucía Utatlán 	7	Santa Rita 	5	Mayo	2023-04-05T00:00:00	2024-11-08T23:00:00	5	Humedad	68
91813	7	Sololá	704	Santa Lucía Utatlán 	7	Santa Rita 	5	Mayo	2023-04-05T00:00:00	2024-11-08T23:00:00	6	Velocidad del viento	3.2
91814	7	Sololá	704	Santa Lucía Utatlán 	7	Santa Rita 	5	Mayo	2023-04-05T00:00:00	2024-11-08T23:00:00	7	Dirección del viento	3.22
91815	7	Sololá	704	Santa Lucía Utatlán 	7	Santa Rita 	5	Mayo	2023-04-05T00:00:00	2024-11-08T23:00:00	1	Precipitación	0
91816	7	Sololá	704	Santa Lucía Utatlán 	7	Santa Rita 	5	Mayo	2023-04-05T00:00:00	2024-11-08T23:00:00	8	Radiación solar	0
91817	7	Sololá	704	Santa Lucía Utatlán 	7	Santa Rita 	5	Mayo	2023-05-05T00:00:00	2024-11-08T00:00:00	2	Temperatura media	19.5
91818	7	Sololá	704	Santa Lucía Utatlán 	7	Santa Rita 	5	Mayo	2023-05-05T00:00:00	2024-11-08T00:00:00	4	Temperatura máxima	22
91819	7	Sololá	704	Santa Lucía Utatlán 	7	Santa Rita 	5	Mayo	2023-05-05T00:00:00	2024-11-08T00:00:00	3	Temperatura mínima	19.4
91820	7	Sololá	704	Santa Lucía Utatlán 	7	Santa Rita 	5	Mayo	2023-05-05T00:00:00	2024-11-08T00:00:00	5	Humedad	76
91821	7	Sololá	704	Santa Lucía Utatlán 	7	Santa Rita 	5	Mayo	2023-05-05T00:00:00	2024-11-08T00:00:00	6	Velocidad del viento	3.2
91822	7	Sololá	704	Santa Lucía Utatlán 	7	Santa Rita 	5	Mayo	2023-05-05T00:00:00	2024-11-08T00:00:00	7	Dirección del viento	3.22
91823	7	Sololá	704	Santa Lucía Utatlán 	7	Santa Rita 	5	Mayo	2023-05-05T00:00:00	2024-11-08T00:00:00	1	Precipitación	0
91824	7	Sololá	704	Santa Lucía Utatlán 	7	Santa Rita 	5	Mayo	2023-05-05T00:00:00	2024-11-08T00:00:00	8	Radiación solar	0
91825	7	Sololá	704	Santa Lucía Utatlán 	7	Santa Rita 	5	Mayo	2023-05-05T00:00:00	2024-11-08T01:00:00	2	Temperatura media	18.4
91826	7	Sololá	704	Santa Lucía Utatlán 	7	Santa Rita 	5	Mayo	2023-05-05T00:00:00	2024-11-08T01:00:00	4	Temperatura máxima	19.9
91827	7	Sololá	704	Santa Lucía Utatlán 	7	Santa Rita 	5	Mayo	2023-05-05T00:00:00	2024-11-08T01:00:00	3	Temperatura mínima	18.4
91828	7	Sololá	704	Santa Lucía Utatlán 	7	Santa Rita 	5	Mayo	2023-05-05T00:00:00	2024-11-08T01:00:00	5	Humedad	81
91829	7	Sololá	704	Santa Lucía Utatlán 	7	Santa Rita 	5	Mayo	2023-05-05T00:00:00	2024-11-08T01:00:00	6	Velocidad del viento	1.6
91830	7	Sololá	704	Santa Lucía Utatlán 	7	Santa Rita 	5	Mayo	2023-05-05T00:00:00	2024-11-08T01:00:00	7	Dirección del viento	1.61
91831	7	Sololá	704	Santa Lucía Utatlán 	7	Santa Rita 	5	Mayo	2023-05-05T00:00:00	2024-11-08T01:00:00	1	Precipitación	0
91832	7	Sololá	704	Santa Lucía Utatlán 	7	Santa Rita 	5	Mayo	2023-05-05T00:00:00	2024-11-08T01:00:00	8	Radiación solar	0
91833	7	Sololá	704	Santa Lucía Utatlán 	7	Santa Rita 	5	Mayo	2023-05-05T00:00:00	2024-11-08T02:00:00	2	Temperatura media	17.7
91834	7	Sololá	704	Santa Lucía Utatlán 	7	Santa Rita 	5	Mayo	2023-05-05T00:00:00	2024-11-08T02:00:00	4	Temperatura máxima	18.4
91835	7	Sololá	704	Santa Lucía Utatlán 	7	Santa Rita 	5	Mayo	2023-05-05T00:00:00	2024-11-08T02:00:00	3	Temperatura mínima	17.6
91836	7	Sololá	704	Santa Lucía Utatlán 	7	Santa Rita 	5	Mayo	2023-05-05T00:00:00	2024-11-08T02:00:00	5	Humedad	79
91837	7	Sololá	704	Santa Lucía Utatlán 	7	Santa Rita 	5	Mayo	2023-05-05T00:00:00	2024-11-08T02:00:00	6	Velocidad del viento	3.2
91838	7	Sololá	704	Santa Lucía Utatlán 	7	Santa Rita 	5	Mayo	2023-05-05T00:00:00	2024-11-08T02:00:00	7	Dirección del viento	3.22
91839	7	Sololá	704	Santa Lucía Utatlán 	7	Santa Rita 	5	Mayo	2023-05-05T00:00:00	2024-11-08T02:00:00	1	Precipitación	0
91840	7	Sololá	704	Santa Lucía Utatlán 	7	Santa Rita 	5	Mayo	2023-05-05T00:00:00	2024-11-08T02:00:00	8	Radiación solar	0
91841	7	Sololá	704	Santa Lucía Utatlán 	7	Santa Rita 	5	Mayo	2023-05-05T00:00:00	2024-11-08T03:00:00	2	Temperatura media	17.7
91842	7	Sololá	704	Santa Lucía Utatlán 	7	Santa Rita 	5	Mayo	2023-05-05T00:00:00	2024-11-08T03:00:00	4	Temperatura máxima	17.8
91843	7	Sololá	704	Santa Lucía Utatlán 	7	Santa Rita 	5	Mayo	2023-05-05T00:00:00	2024-11-08T03:00:00	3	Temperatura mínima	17.3
91844	7	Sololá	704	Santa Lucía Utatlán 	7	Santa Rita 	5	Mayo	2023-05-05T00:00:00	2024-11-08T03:00:00	5	Humedad	73
91845	7	Sololá	704	Santa Lucía Utatlán 	7	Santa Rita 	5	Mayo	2023-05-05T00:00:00	2024-11-08T03:00:00	6	Velocidad del viento	3.2
91846	7	Sololá	704	Santa Lucía Utatlán 	7	Santa Rita 	5	Mayo	2023-05-05T00:00:00	2024-11-08T03:00:00	7	Dirección del viento	3.22
91847	7	Sololá	704	Santa Lucía Utatlán 	7	Santa Rita 	5	Mayo	2023-05-05T00:00:00	2024-11-08T03:00:00	1	Precipitación	0
91848	7	Sololá	704	Santa Lucía Utatlán 	7	Santa Rita 	5	Mayo	2023-05-05T00:00:00	2024-11-08T03:00:00	8	Radiación solar	0
91849	7	Sololá	704	Santa Lucía Utatlán 	7	Santa Rita 	5	Mayo	2023-05-05T00:00:00	2024-11-08T04:00:00	2	Temperatura media	17.4
91850	7	Sololá	704	Santa Lucía Utatlán 	7	Santa Rita 	5	Mayo	2023-05-05T00:00:00	2024-11-08T04:00:00	4	Temperatura máxima	17.7
91851	7	Sololá	704	Santa Lucía Utatlán 	7	Santa Rita 	5	Mayo	2023-05-05T00:00:00	2024-11-08T04:00:00	3	Temperatura mínima	17.1
91852	7	Sololá	704	Santa Lucía Utatlán 	7	Santa Rita 	5	Mayo	2023-05-05T00:00:00	2024-11-08T04:00:00	5	Humedad	70
91853	7	Sololá	704	Santa Lucía Utatlán 	7	Santa Rita 	5	Mayo	2023-05-05T00:00:00	2024-11-08T04:00:00	6	Velocidad del viento	1.6
91854	7	Sololá	704	Santa Lucía Utatlán 	7	Santa Rita 	5	Mayo	2023-05-05T00:00:00	2024-11-08T04:00:00	7	Dirección del viento	1.61
91855	7	Sololá	704	Santa Lucía Utatlán 	7	Santa Rita 	5	Mayo	2023-05-05T00:00:00	2024-11-08T04:00:00	1	Precipitación	0
91856	7	Sololá	704	Santa Lucía Utatlán 	7	Santa Rita 	5	Mayo	2023-05-05T00:00:00	2024-11-08T04:00:00	8	Radiación solar	0
91857	7	Sololá	704	Santa Lucía Utatlán 	7	Santa Rita 	5	Mayo	2023-05-05T00:00:00	2024-11-08T05:00:00	2	Temperatura media	17.8
91858	7	Sololá	704	Santa Lucía Utatlán 	7	Santa Rita 	5	Mayo	2023-05-05T00:00:00	2024-11-08T05:00:00	4	Temperatura máxima	17.8
91859	7	Sololá	704	Santa Lucía Utatlán 	7	Santa Rita 	5	Mayo	2023-05-05T00:00:00	2024-11-08T05:00:00	3	Temperatura mínima	17.1
91860	7	Sololá	704	Santa Lucía Utatlán 	7	Santa Rita 	5	Mayo	2023-05-05T00:00:00	2024-11-08T05:00:00	5	Humedad	61
91861	7	Sololá	704	Santa Lucía Utatlán 	7	Santa Rita 	5	Mayo	2023-05-05T00:00:00	2024-11-08T05:00:00	6	Velocidad del viento	1.6
91862	7	Sololá	704	Santa Lucía Utatlán 	7	Santa Rita 	5	Mayo	2023-05-05T00:00:00	2024-11-08T05:00:00	7	Dirección del viento	1.61
91863	7	Sololá	704	Santa Lucía Utatlán 	7	Santa Rita 	5	Mayo	2023-05-05T00:00:00	2024-11-08T05:00:00	1	Precipitación	0
91864	7	Sololá	704	Santa Lucía Utatlán 	7	Santa Rita 	5	Mayo	2023-05-05T00:00:00	2024-11-08T05:00:00	8	Radiación solar	0
91865	7	Sololá	704	Santa Lucía Utatlán 	7	Santa Rita 	5	Mayo	2023-05-05T00:00:00	2024-11-08T06:00:00	2	Temperatura media	17.2
91866	7	Sololá	704	Santa Lucía Utatlán 	7	Santa Rita 	5	Mayo	2023-05-05T00:00:00	2024-11-08T06:00:00	4	Temperatura máxima	18.2
91867	7	Sololá	704	Santa Lucía Utatlán 	7	Santa Rita 	5	Mayo	2023-05-05T00:00:00	2024-11-08T06:00:00	3	Temperatura mínima	16.8
91868	7	Sololá	704	Santa Lucía Utatlán 	7	Santa Rita 	5	Mayo	2023-05-05T00:00:00	2024-11-08T06:00:00	5	Humedad	68
91869	7	Sololá	704	Santa Lucía Utatlán 	7	Santa Rita 	5	Mayo	2023-05-05T00:00:00	2024-11-08T06:00:00	6	Velocidad del viento	3.2
91870	7	Sololá	704	Santa Lucía Utatlán 	7	Santa Rita 	5	Mayo	2023-05-05T00:00:00	2024-11-08T06:00:00	7	Dirección del viento	3.22
91871	7	Sololá	704	Santa Lucía Utatlán 	7	Santa Rita 	5	Mayo	2023-05-05T00:00:00	2024-11-08T06:00:00	1	Precipitación	0
91872	7	Sololá	704	Santa Lucía Utatlán 	7	Santa Rita 	5	Mayo	2023-05-05T00:00:00	2024-11-08T06:00:00	8	Radiación solar	0
91873	7	Sololá	704	Santa Lucía Utatlán 	7	Santa Rita 	5	Mayo	2023-05-05T00:00:00	2024-11-08T07:00:00	2	Temperatura media	17.6
91874	7	Sololá	704	Santa Lucía Utatlán 	7	Santa Rita 	5	Mayo	2023-05-05T00:00:00	2024-11-08T07:00:00	4	Temperatura máxima	17.6
91875	7	Sololá	704	Santa Lucía Utatlán 	7	Santa Rita 	5	Mayo	2023-05-05T00:00:00	2024-11-08T07:00:00	3	Temperatura mínima	17
91876	7	Sololá	704	Santa Lucía Utatlán 	7	Santa Rita 	5	Mayo	2023-05-05T00:00:00	2024-11-08T07:00:00	5	Humedad	71
91877	7	Sololá	704	Santa Lucía Utatlán 	7	Santa Rita 	5	Mayo	2023-05-05T00:00:00	2024-11-08T07:00:00	6	Velocidad del viento	1.6
91878	7	Sololá	704	Santa Lucía Utatlán 	7	Santa Rita 	5	Mayo	2023-05-05T00:00:00	2024-11-08T07:00:00	7	Dirección del viento	1.61
91879	7	Sololá	704	Santa Lucía Utatlán 	7	Santa Rita 	5	Mayo	2023-05-05T00:00:00	2024-11-08T07:00:00	1	Precipitación	0
91880	7	Sololá	704	Santa Lucía Utatlán 	7	Santa Rita 	5	Mayo	2023-05-05T00:00:00	2024-11-08T07:00:00	8	Radiación solar	5
91881	7	Sololá	704	Santa Lucía Utatlán 	7	Santa Rita 	5	Mayo	2023-05-05T00:00:00	2024-11-08T08:00:00	2	Temperatura media	20.4
91882	7	Sololá	704	Santa Lucía Utatlán 	7	Santa Rita 	5	Mayo	2023-05-05T00:00:00	2024-11-08T08:00:00	4	Temperatura máxima	20.4
91883	7	Sololá	704	Santa Lucía Utatlán 	7	Santa Rita 	5	Mayo	2023-05-05T00:00:00	2024-11-08T08:00:00	3	Temperatura mínima	17.6
91884	7	Sololá	704	Santa Lucía Utatlán 	7	Santa Rita 	5	Mayo	2023-05-05T00:00:00	2024-11-08T08:00:00	5	Humedad	60
91885	7	Sololá	704	Santa Lucía Utatlán 	7	Santa Rita 	5	Mayo	2023-05-05T00:00:00	2024-11-08T08:00:00	6	Velocidad del viento	3.2
91886	7	Sololá	704	Santa Lucía Utatlán 	7	Santa Rita 	5	Mayo	2023-05-05T00:00:00	2024-11-08T08:00:00	7	Dirección del viento	3.22
91887	7	Sololá	704	Santa Lucía Utatlán 	7	Santa Rita 	5	Mayo	2023-05-05T00:00:00	2024-11-08T08:00:00	1	Precipitación	0
91888	7	Sololá	704	Santa Lucía Utatlán 	7	Santa Rita 	5	Mayo	2023-05-05T00:00:00	2024-11-08T08:00:00	8	Radiación solar	119
91889	7	Sololá	704	Santa Lucía Utatlán 	7	Santa Rita 	5	Mayo	2023-05-05T00:00:00	2024-11-08T09:00:00	2	Temperatura media	24.6
91890	7	Sololá	704	Santa Lucía Utatlán 	7	Santa Rita 	5	Mayo	2023-05-05T00:00:00	2024-11-08T09:00:00	4	Temperatura máxima	24.6
91891	7	Sololá	704	Santa Lucía Utatlán 	7	Santa Rita 	5	Mayo	2023-05-05T00:00:00	2024-11-08T09:00:00	3	Temperatura mínima	20.4
91892	7	Sololá	704	Santa Lucía Utatlán 	7	Santa Rita 	5	Mayo	2023-05-05T00:00:00	2024-11-08T09:00:00	5	Humedad	42
91893	7	Sololá	704	Santa Lucía Utatlán 	7	Santa Rita 	5	Mayo	2023-05-05T00:00:00	2024-11-08T09:00:00	6	Velocidad del viento	3.2
91894	7	Sololá	704	Santa Lucía Utatlán 	7	Santa Rita 	5	Mayo	2023-05-05T00:00:00	2024-11-08T09:00:00	7	Dirección del viento	3.22
91895	7	Sololá	704	Santa Lucía Utatlán 	7	Santa Rita 	5	Mayo	2023-05-05T00:00:00	2024-11-08T09:00:00	1	Precipitación	0
91896	7	Sololá	704	Santa Lucía Utatlán 	7	Santa Rita 	5	Mayo	2023-05-05T00:00:00	2024-11-08T09:00:00	8	Radiación solar	412
91897	7	Sololá	704	Santa Lucía Utatlán 	7	Santa Rita 	5	Mayo	2023-05-05T00:00:00	2024-11-08T10:00:00	2	Temperatura media	26.1
91898	7	Sololá	704	Santa Lucía Utatlán 	7	Santa Rita 	5	Mayo	2023-05-05T00:00:00	2024-11-08T10:00:00	4	Temperatura máxima	26.1
91899	7	Sololá	704	Santa Lucía Utatlán 	7	Santa Rita 	5	Mayo	2023-05-05T00:00:00	2024-11-08T10:00:00	3	Temperatura mínima	24.6
91900	7	Sololá	704	Santa Lucía Utatlán 	7	Santa Rita 	5	Mayo	2023-05-05T00:00:00	2024-11-08T10:00:00	5	Humedad	35
91901	7	Sololá	704	Santa Lucía Utatlán 	7	Santa Rita 	5	Mayo	2023-05-05T00:00:00	2024-11-08T10:00:00	6	Velocidad del viento	8
91902	7	Sololá	704	Santa Lucía Utatlán 	7	Santa Rita 	5	Mayo	2023-05-05T00:00:00	2024-11-08T10:00:00	7	Dirección del viento	8.05
91903	7	Sololá	704	Santa Lucía Utatlán 	7	Santa Rita 	5	Mayo	2023-05-05T00:00:00	2024-11-08T10:00:00	1	Precipitación	0
91904	7	Sololá	704	Santa Lucía Utatlán 	7	Santa Rita 	5	Mayo	2023-05-05T00:00:00	2024-11-08T10:00:00	8	Radiación solar	656
91905	7	Sololá	704	Santa Lucía Utatlán 	7	Santa Rita 	5	Mayo	2023-05-05T00:00:00	2024-11-08T11:00:00	2	Temperatura media	25.9
91906	7	Sololá	704	Santa Lucía Utatlán 	7	Santa Rita 	5	Mayo	2023-05-05T00:00:00	2024-11-08T11:00:00	4	Temperatura máxima	26.3
91907	7	Sololá	704	Santa Lucía Utatlán 	7	Santa Rita 	5	Mayo	2023-05-05T00:00:00	2024-11-08T11:00:00	3	Temperatura mínima	25.9
91908	7	Sololá	704	Santa Lucía Utatlán 	7	Santa Rita 	5	Mayo	2023-05-05T00:00:00	2024-11-08T11:00:00	5	Humedad	37
91909	7	Sololá	704	Santa Lucía Utatlán 	7	Santa Rita 	5	Mayo	2023-05-05T00:00:00	2024-11-08T11:00:00	6	Velocidad del viento	11.3
91910	7	Sololá	704	Santa Lucía Utatlán 	7	Santa Rita 	5	Mayo	2023-05-05T00:00:00	2024-11-08T11:00:00	7	Dirección del viento	11.27
91911	7	Sololá	704	Santa Lucía Utatlán 	7	Santa Rita 	5	Mayo	2023-05-05T00:00:00	2024-11-08T11:00:00	1	Precipitación	0
91912	7	Sololá	704	Santa Lucía Utatlán 	7	Santa Rita 	5	Mayo	2023-05-05T00:00:00	2024-11-08T11:00:00	8	Radiación solar	837
91913	7	Sololá	704	Santa Lucía Utatlán 	7	Santa Rita 	5	Mayo	2023-05-05T00:00:00	2024-11-08T12:00:00	2	Temperatura media	26.8
91914	7	Sololá	704	Santa Lucía Utatlán 	7	Santa Rita 	5	Mayo	2023-05-05T00:00:00	2024-11-08T12:00:00	4	Temperatura máxima	26.8
91915	7	Sololá	704	Santa Lucía Utatlán 	7	Santa Rita 	5	Mayo	2023-05-05T00:00:00	2024-11-08T12:00:00	3	Temperatura mínima	25.9
91916	7	Sololá	704	Santa Lucía Utatlán 	7	Santa Rita 	5	Mayo	2023-05-05T00:00:00	2024-11-08T12:00:00	5	Humedad	34
91917	7	Sololá	704	Santa Lucía Utatlán 	7	Santa Rita 	5	Mayo	2023-05-05T00:00:00	2024-11-08T12:00:00	6	Velocidad del viento	12.9
91918	7	Sololá	704	Santa Lucía Utatlán 	7	Santa Rita 	5	Mayo	2023-05-05T00:00:00	2024-11-08T12:00:00	7	Dirección del viento	12.87
91919	7	Sololá	704	Santa Lucía Utatlán 	7	Santa Rita 	5	Mayo	2023-05-05T00:00:00	2024-11-08T12:00:00	1	Precipitación	0
91920	7	Sololá	704	Santa Lucía Utatlán 	7	Santa Rita 	5	Mayo	2023-05-05T00:00:00	2024-11-08T12:00:00	8	Radiación solar	979
91921	7	Sololá	704	Santa Lucía Utatlán 	7	Santa Rita 	5	Mayo	2023-05-05T00:00:00	2024-11-08T13:00:00	2	Temperatura media	26.8
91922	7	Sololá	704	Santa Lucía Utatlán 	7	Santa Rita 	5	Mayo	2023-05-05T00:00:00	2024-11-08T13:00:00	4	Temperatura máxima	27.1
91923	7	Sololá	704	Santa Lucía Utatlán 	7	Santa Rita 	5	Mayo	2023-05-05T00:00:00	2024-11-08T13:00:00	3	Temperatura mínima	26.4
91924	7	Sololá	704	Santa Lucía Utatlán 	7	Santa Rita 	5	Mayo	2023-05-05T00:00:00	2024-11-08T13:00:00	5	Humedad	37
91925	7	Sololá	704	Santa Lucía Utatlán 	7	Santa Rita 	5	Mayo	2023-05-05T00:00:00	2024-11-08T13:00:00	6	Velocidad del viento	12.9
91926	7	Sololá	704	Santa Lucía Utatlán 	7	Santa Rita 	5	Mayo	2023-05-05T00:00:00	2024-11-08T13:00:00	7	Dirección del viento	12.87
91927	7	Sololá	704	Santa Lucía Utatlán 	7	Santa Rita 	5	Mayo	2023-05-05T00:00:00	2024-11-08T13:00:00	1	Precipitación	0
91928	7	Sololá	704	Santa Lucía Utatlán 	7	Santa Rita 	5	Mayo	2023-05-05T00:00:00	2024-11-08T13:00:00	8	Radiación solar	1028
91929	7	Sololá	704	Santa Lucía Utatlán 	7	Santa Rita 	5	Mayo	2023-05-05T00:00:00	2024-11-08T14:00:00	2	Temperatura media	27.4
91930	7	Sololá	704	Santa Lucía Utatlán 	7	Santa Rita 	5	Mayo	2023-05-05T00:00:00	2024-11-08T14:00:00	4	Temperatura máxima	27.7
91931	7	Sololá	704	Santa Lucía Utatlán 	7	Santa Rita 	5	Mayo	2023-05-05T00:00:00	2024-11-08T14:00:00	3	Temperatura mínima	26.8
91932	7	Sololá	704	Santa Lucía Utatlán 	7	Santa Rita 	5	Mayo	2023-05-05T00:00:00	2024-11-08T14:00:00	5	Humedad	33
91933	7	Sololá	704	Santa Lucía Utatlán 	7	Santa Rita 	5	Mayo	2023-05-05T00:00:00	2024-11-08T14:00:00	6	Velocidad del viento	11.3
91934	7	Sololá	704	Santa Lucía Utatlán 	7	Santa Rita 	5	Mayo	2023-05-05T00:00:00	2024-11-08T14:00:00	7	Dirección del viento	11.27
91935	7	Sololá	704	Santa Lucía Utatlán 	7	Santa Rita 	5	Mayo	2023-05-05T00:00:00	2024-11-08T14:00:00	1	Precipitación	0
91936	7	Sololá	704	Santa Lucía Utatlán 	7	Santa Rita 	5	Mayo	2023-05-05T00:00:00	2024-11-08T14:00:00	8	Radiación solar	1019
91937	7	Sololá	704	Santa Lucía Utatlán 	7	Santa Rita 	5	Mayo	2023-05-05T00:00:00	2024-11-08T15:00:00	2	Temperatura media	27.8
91938	7	Sololá	704	Santa Lucía Utatlán 	7	Santa Rita 	5	Mayo	2023-05-05T00:00:00	2024-11-08T15:00:00	4	Temperatura máxima	27.9
91939	7	Sololá	704	Santa Lucía Utatlán 	7	Santa Rita 	5	Mayo	2023-05-05T00:00:00	2024-11-08T15:00:00	3	Temperatura mínima	27.3
91940	7	Sololá	704	Santa Lucía Utatlán 	7	Santa Rita 	5	Mayo	2023-05-05T00:00:00	2024-11-08T15:00:00	5	Humedad	30
91941	7	Sololá	704	Santa Lucía Utatlán 	7	Santa Rita 	5	Mayo	2023-05-05T00:00:00	2024-11-08T15:00:00	6	Velocidad del viento	11.3
91942	7	Sololá	704	Santa Lucía Utatlán 	7	Santa Rita 	5	Mayo	2023-05-05T00:00:00	2024-11-08T15:00:00	7	Dirección del viento	11.27
91943	7	Sololá	704	Santa Lucía Utatlán 	7	Santa Rita 	5	Mayo	2023-05-05T00:00:00	2024-11-08T15:00:00	1	Precipitación	0
91944	7	Sololá	704	Santa Lucía Utatlán 	7	Santa Rita 	5	Mayo	2023-05-05T00:00:00	2024-11-08T15:00:00	8	Radiación solar	937
91945	7	Sololá	704	Santa Lucía Utatlán 	7	Santa Rita 	5	Mayo	2023-05-05T00:00:00	2024-11-08T16:00:00	2	Temperatura media	27.6
91946	7	Sololá	704	Santa Lucía Utatlán 	7	Santa Rita 	5	Mayo	2023-05-05T00:00:00	2024-11-08T16:00:00	4	Temperatura máxima	27.9
91947	7	Sololá	704	Santa Lucía Utatlán 	7	Santa Rita 	5	Mayo	2023-05-05T00:00:00	2024-11-08T16:00:00	3	Temperatura mínima	27.2
91948	7	Sololá	704	Santa Lucía Utatlán 	7	Santa Rita 	5	Mayo	2023-05-05T00:00:00	2024-11-08T16:00:00	5	Humedad	33
91949	7	Sololá	704	Santa Lucía Utatlán 	7	Santa Rita 	5	Mayo	2023-05-05T00:00:00	2024-11-08T16:00:00	6	Velocidad del viento	12.9
91950	7	Sololá	704	Santa Lucía Utatlán 	7	Santa Rita 	5	Mayo	2023-05-05T00:00:00	2024-11-08T16:00:00	7	Dirección del viento	12.87
91951	7	Sololá	704	Santa Lucía Utatlán 	7	Santa Rita 	5	Mayo	2023-05-05T00:00:00	2024-11-08T16:00:00	1	Precipitación	0
91952	7	Sololá	704	Santa Lucía Utatlán 	7	Santa Rita 	5	Mayo	2023-05-05T00:00:00	2024-11-08T16:00:00	8	Radiación solar	802
91953	7	Sololá	704	Santa Lucía Utatlán 	7	Santa Rita 	5	Mayo	2023-05-05T00:00:00	2024-11-08T17:00:00	2	Temperatura media	27.2
91954	7	Sololá	704	Santa Lucía Utatlán 	7	Santa Rita 	5	Mayo	2023-05-05T00:00:00	2024-11-08T17:00:00	4	Temperatura máxima	27.8
91955	7	Sololá	704	Santa Lucía Utatlán 	7	Santa Rita 	5	Mayo	2023-05-05T00:00:00	2024-11-08T17:00:00	3	Temperatura mínima	27.1
91956	7	Sololá	704	Santa Lucía Utatlán 	7	Santa Rita 	5	Mayo	2023-05-05T00:00:00	2024-11-08T17:00:00	5	Humedad	47
91957	7	Sololá	704	Santa Lucía Utatlán 	7	Santa Rita 	5	Mayo	2023-05-05T00:00:00	2024-11-08T17:00:00	6	Velocidad del viento	11.3
91958	7	Sololá	704	Santa Lucía Utatlán 	7	Santa Rita 	5	Mayo	2023-05-05T00:00:00	2024-11-08T17:00:00	7	Dirección del viento	11.27
91959	7	Sololá	704	Santa Lucía Utatlán 	7	Santa Rita 	5	Mayo	2023-05-05T00:00:00	2024-11-08T17:00:00	1	Precipitación	0
91960	7	Sololá	704	Santa Lucía Utatlán 	7	Santa Rita 	5	Mayo	2023-05-05T00:00:00	2024-11-08T17:00:00	8	Radiación solar	593
91961	7	Sololá	704	Santa Lucía Utatlán 	7	Santa Rita 	5	Mayo	2023-05-05T00:00:00	2024-11-08T18:00:00	2	Temperatura media	26.8
91962	7	Sololá	704	Santa Lucía Utatlán 	7	Santa Rita 	5	Mayo	2023-05-05T00:00:00	2024-11-08T18:00:00	4	Temperatura máxima	27.2
91963	7	Sololá	704	Santa Lucía Utatlán 	7	Santa Rita 	5	Mayo	2023-05-05T00:00:00	2024-11-08T18:00:00	3	Temperatura mínima	26.2
91964	7	Sololá	704	Santa Lucía Utatlán 	7	Santa Rita 	5	Mayo	2023-05-05T00:00:00	2024-11-08T18:00:00	5	Humedad	38
91965	7	Sololá	704	Santa Lucía Utatlán 	7	Santa Rita 	5	Mayo	2023-05-05T00:00:00	2024-11-08T18:00:00	6	Velocidad del viento	9.7
91966	7	Sololá	704	Santa Lucía Utatlán 	7	Santa Rita 	5	Mayo	2023-05-05T00:00:00	2024-11-08T18:00:00	7	Dirección del viento	9.66
91967	7	Sololá	704	Santa Lucía Utatlán 	7	Santa Rita 	5	Mayo	2023-05-05T00:00:00	2024-11-08T18:00:00	1	Precipitación	0
91968	7	Sololá	704	Santa Lucía Utatlán 	7	Santa Rita 	5	Mayo	2023-05-05T00:00:00	2024-11-08T18:00:00	8	Radiación solar	366
91969	7	Sololá	704	Santa Lucía Utatlán 	7	Santa Rita 	5	Mayo	2023-05-05T00:00:00	2024-11-08T19:00:00	2	Temperatura media	25.3
91970	7	Sololá	704	Santa Lucía Utatlán 	7	Santa Rita 	5	Mayo	2023-05-05T00:00:00	2024-11-08T19:00:00	4	Temperatura máxima	26.8
91971	7	Sololá	704	Santa Lucía Utatlán 	7	Santa Rita 	5	Mayo	2023-05-05T00:00:00	2024-11-08T19:00:00	3	Temperatura mínima	25.3
91972	7	Sololá	704	Santa Lucía Utatlán 	7	Santa Rita 	5	Mayo	2023-05-05T00:00:00	2024-11-08T19:00:00	5	Humedad	48
91973	7	Sololá	704	Santa Lucía Utatlán 	7	Santa Rita 	5	Mayo	2023-05-05T00:00:00	2024-11-08T19:00:00	6	Velocidad del viento	6.4
91974	7	Sololá	704	Santa Lucía Utatlán 	7	Santa Rita 	5	Mayo	2023-05-05T00:00:00	2024-11-08T19:00:00	7	Dirección del viento	6.44
91975	7	Sololá	704	Santa Lucía Utatlán 	7	Santa Rita 	5	Mayo	2023-05-05T00:00:00	2024-11-08T19:00:00	1	Precipitación	0
91976	7	Sololá	704	Santa Lucía Utatlán 	7	Santa Rita 	5	Mayo	2023-05-05T00:00:00	2024-11-08T19:00:00	8	Radiación solar	0
91977	7	Sololá	704	Santa Lucía Utatlán 	7	Santa Rita 	5	Mayo	2023-05-05T00:00:00	2024-11-08T20:00:00	2	Temperatura media	23.9
91978	7	Sololá	704	Santa Lucía Utatlán 	7	Santa Rita 	5	Mayo	2023-05-05T00:00:00	2024-11-08T20:00:00	4	Temperatura máxima	25.3
91979	7	Sololá	704	Santa Lucía Utatlán 	7	Santa Rita 	5	Mayo	2023-05-05T00:00:00	2024-11-08T20:00:00	3	Temperatura mínima	23.9
91980	7	Sololá	704	Santa Lucía Utatlán 	7	Santa Rita 	5	Mayo	2023-05-05T00:00:00	2024-11-08T20:00:00	5	Humedad	61
91981	7	Sololá	704	Santa Lucía Utatlán 	7	Santa Rita 	5	Mayo	2023-05-05T00:00:00	2024-11-08T20:00:00	6	Velocidad del viento	4.8
91982	7	Sololá	704	Santa Lucía Utatlán 	7	Santa Rita 	5	Mayo	2023-05-05T00:00:00	2024-11-08T20:00:00	7	Dirección del viento	4.83
91983	7	Sololá	704	Santa Lucía Utatlán 	7	Santa Rita 	5	Mayo	2023-05-05T00:00:00	2024-11-08T20:00:00	1	Precipitación	0
91984	7	Sololá	704	Santa Lucía Utatlán 	7	Santa Rita 	5	Mayo	2023-05-05T00:00:00	2024-11-08T20:00:00	8	Radiación solar	0
91985	7	Sololá	704	Santa Lucía Utatlán 	7	Santa Rita 	5	Mayo	2023-05-05T00:00:00	2024-11-08T21:00:00	2	Temperatura media	22.8
91986	7	Sololá	704	Santa Lucía Utatlán 	7	Santa Rita 	5	Mayo	2023-05-05T00:00:00	2024-11-08T21:00:00	4	Temperatura máxima	23.9
91987	7	Sololá	704	Santa Lucía Utatlán 	7	Santa Rita 	5	Mayo	2023-05-05T00:00:00	2024-11-08T21:00:00	3	Temperatura mínima	22.8
91988	7	Sololá	704	Santa Lucía Utatlán 	7	Santa Rita 	5	Mayo	2023-05-05T00:00:00	2024-11-08T21:00:00	5	Humedad	70
91989	7	Sololá	704	Santa Lucía Utatlán 	7	Santa Rita 	5	Mayo	2023-05-05T00:00:00	2024-11-08T21:00:00	6	Velocidad del viento	4.8
91990	7	Sololá	704	Santa Lucía Utatlán 	7	Santa Rita 	5	Mayo	2023-05-05T00:00:00	2024-11-08T21:00:00	7	Dirección del viento	4.83
91991	7	Sololá	704	Santa Lucía Utatlán 	7	Santa Rita 	5	Mayo	2023-05-05T00:00:00	2024-11-08T21:00:00	1	Precipitación	0
91992	7	Sololá	704	Santa Lucía Utatlán 	7	Santa Rita 	5	Mayo	2023-05-05T00:00:00	2024-11-08T21:00:00	8	Radiación solar	0
91993	7	Sololá	704	Santa Lucía Utatlán 	7	Santa Rita 	5	Mayo	2023-05-05T00:00:00	2024-11-08T22:00:00	2	Temperatura media	20.6
91994	7	Sololá	704	Santa Lucía Utatlán 	7	Santa Rita 	5	Mayo	2023-05-05T00:00:00	2024-11-08T22:00:00	4	Temperatura máxima	22.8
91995	7	Sololá	704	Santa Lucía Utatlán 	7	Santa Rita 	5	Mayo	2023-05-05T00:00:00	2024-11-08T22:00:00	3	Temperatura mínima	20.6
91996	7	Sololá	704	Santa Lucía Utatlán 	7	Santa Rita 	5	Mayo	2023-05-05T00:00:00	2024-11-08T22:00:00	5	Humedad	74
91997	7	Sololá	704	Santa Lucía Utatlán 	7	Santa Rita 	5	Mayo	2023-05-05T00:00:00	2024-11-08T22:00:00	6	Velocidad del viento	3.2
91998	7	Sololá	704	Santa Lucía Utatlán 	7	Santa Rita 	5	Mayo	2023-05-05T00:00:00	2024-11-08T22:00:00	7	Dirección del viento	3.22
91999	7	Sololá	704	Santa Lucía Utatlán 	7	Santa Rita 	5	Mayo	2023-05-05T00:00:00	2024-11-08T22:00:00	1	Precipitación	0
92000	7	Sololá	704	Santa Lucía Utatlán 	7	Santa Rita 	5	Mayo	2023-05-05T00:00:00	2024-11-08T22:00:00	8	Radiación solar	0
92001	7	Sololá	704	Santa Lucía Utatlán 	7	Santa Rita 	5	Mayo	2023-05-05T00:00:00	2024-11-08T23:00:00	2	Temperatura media	19.7
92002	7	Sololá	704	Santa Lucía Utatlán 	7	Santa Rita 	5	Mayo	2023-05-05T00:00:00	2024-11-08T23:00:00	4	Temperatura máxima	21.4
92003	7	Sololá	704	Santa Lucía Utatlán 	7	Santa Rita 	5	Mayo	2023-05-05T00:00:00	2024-11-08T23:00:00	3	Temperatura mínima	19.7
92004	7	Sololá	704	Santa Lucía Utatlán 	7	Santa Rita 	5	Mayo	2023-05-05T00:00:00	2024-11-08T23:00:00	5	Humedad	77
92005	7	Sololá	704	Santa Lucía Utatlán 	7	Santa Rita 	5	Mayo	2023-05-05T00:00:00	2024-11-08T23:00:00	6	Velocidad del viento	3.2
92006	7	Sololá	704	Santa Lucía Utatlán 	7	Santa Rita 	5	Mayo	2023-05-05T00:00:00	2024-11-08T23:00:00	7	Dirección del viento	3.22
92007	7	Sololá	704	Santa Lucía Utatlán 	7	Santa Rita 	5	Mayo	2023-05-05T00:00:00	2024-11-08T23:00:00	1	Precipitación	0
92008	7	Sololá	704	Santa Lucía Utatlán 	7	Santa Rita 	5	Mayo	2023-05-05T00:00:00	2024-11-08T23:00:00	8	Radiación solar	0
92009	7	Sololá	704	Santa Lucía Utatlán 	7	Santa Rita 	5	Mayo	2023-06-05T00:00:00	2024-11-08T00:00:00	2	Temperatura media	19.3
92010	7	Sololá	704	Santa Lucía Utatlán 	7	Santa Rita 	5	Mayo	2023-06-05T00:00:00	2024-11-08T00:00:00	4	Temperatura máxima	20
92011	7	Sololá	704	Santa Lucía Utatlán 	7	Santa Rita 	5	Mayo	2023-06-05T00:00:00	2024-11-08T00:00:00	3	Temperatura mínima	18.9
92012	7	Sololá	704	Santa Lucía Utatlán 	7	Santa Rita 	5	Mayo	2023-06-05T00:00:00	2024-11-08T00:00:00	5	Humedad	71
92013	7	Sololá	704	Santa Lucía Utatlán 	7	Santa Rita 	5	Mayo	2023-06-05T00:00:00	2024-11-08T00:00:00	6	Velocidad del viento	3.2
92014	7	Sololá	704	Santa Lucía Utatlán 	7	Santa Rita 	5	Mayo	2023-06-05T00:00:00	2024-11-08T00:00:00	7	Dirección del viento	3.22
92015	7	Sololá	704	Santa Lucía Utatlán 	7	Santa Rita 	5	Mayo	2023-06-05T00:00:00	2024-11-08T00:00:00	1	Precipitación	0
92016	7	Sololá	704	Santa Lucía Utatlán 	7	Santa Rita 	5	Mayo	2023-06-05T00:00:00	2024-11-08T00:00:00	8	Radiación solar	0
92017	7	Sololá	704	Santa Lucía Utatlán 	7	Santa Rita 	5	Mayo	2023-06-05T00:00:00	2024-11-08T01:00:00	2	Temperatura media	17.7
92018	7	Sololá	704	Santa Lucía Utatlán 	7	Santa Rita 	5	Mayo	2023-06-05T00:00:00	2024-11-08T01:00:00	4	Temperatura máxima	19.4
92019	7	Sololá	704	Santa Lucía Utatlán 	7	Santa Rita 	5	Mayo	2023-06-05T00:00:00	2024-11-08T01:00:00	3	Temperatura mínima	17.6
92020	7	Sololá	704	Santa Lucía Utatlán 	7	Santa Rita 	5	Mayo	2023-06-05T00:00:00	2024-11-08T01:00:00	5	Humedad	61
92021	7	Sololá	704	Santa Lucía Utatlán 	7	Santa Rita 	5	Mayo	2023-06-05T00:00:00	2024-11-08T01:00:00	6	Velocidad del viento	1.6
92022	7	Sololá	704	Santa Lucía Utatlán 	7	Santa Rita 	5	Mayo	2023-06-05T00:00:00	2024-11-08T01:00:00	7	Dirección del viento	1.61
92023	7	Sololá	704	Santa Lucía Utatlán 	7	Santa Rita 	5	Mayo	2023-06-05T00:00:00	2024-11-08T01:00:00	1	Precipitación	0
92024	7	Sololá	704	Santa Lucía Utatlán 	7	Santa Rita 	5	Mayo	2023-06-05T00:00:00	2024-11-08T01:00:00	8	Radiación solar	0
92025	7	Sololá	704	Santa Lucía Utatlán 	7	Santa Rita 	5	Mayo	2023-06-05T00:00:00	2024-11-08T02:00:00	2	Temperatura media	17.6
92026	7	Sololá	704	Santa Lucía Utatlán 	7	Santa Rita 	5	Mayo	2023-06-05T00:00:00	2024-11-08T02:00:00	4	Temperatura máxima	17.8
92027	7	Sololá	704	Santa Lucía Utatlán 	7	Santa Rita 	5	Mayo	2023-06-05T00:00:00	2024-11-08T02:00:00	3	Temperatura mínima	17.4
92028	7	Sololá	704	Santa Lucía Utatlán 	7	Santa Rita 	5	Mayo	2023-06-05T00:00:00	2024-11-08T02:00:00	5	Humedad	60
92029	7	Sololá	704	Santa Lucía Utatlán 	7	Santa Rita 	5	Mayo	2023-06-05T00:00:00	2024-11-08T02:00:00	6	Velocidad del viento	3.2
92030	7	Sololá	704	Santa Lucía Utatlán 	7	Santa Rita 	5	Mayo	2023-06-05T00:00:00	2024-11-08T02:00:00	7	Dirección del viento	3.22
92031	7	Sololá	704	Santa Lucía Utatlán 	7	Santa Rita 	5	Mayo	2023-06-05T00:00:00	2024-11-08T02:00:00	1	Precipitación	0
92032	7	Sololá	704	Santa Lucía Utatlán 	7	Santa Rita 	5	Mayo	2023-06-05T00:00:00	2024-11-08T02:00:00	8	Radiación solar	0
92033	7	Sololá	704	Santa Lucía Utatlán 	7	Santa Rita 	5	Mayo	2023-06-05T00:00:00	2024-11-08T03:00:00	2	Temperatura media	17.3
92034	7	Sololá	704	Santa Lucía Utatlán 	7	Santa Rita 	5	Mayo	2023-06-05T00:00:00	2024-11-08T03:00:00	4	Temperatura máxima	17.8
92035	7	Sololá	704	Santa Lucía Utatlán 	7	Santa Rita 	5	Mayo	2023-06-05T00:00:00	2024-11-08T03:00:00	3	Temperatura mínima	17.3
92036	7	Sololá	704	Santa Lucía Utatlán 	7	Santa Rita 	5	Mayo	2023-06-05T00:00:00	2024-11-08T03:00:00	5	Humedad	49
92037	7	Sololá	704	Santa Lucía Utatlán 	7	Santa Rita 	5	Mayo	2023-06-05T00:00:00	2024-11-08T03:00:00	6	Velocidad del viento	3.2
92038	7	Sololá	704	Santa Lucía Utatlán 	7	Santa Rita 	5	Mayo	2023-06-05T00:00:00	2024-11-08T03:00:00	7	Dirección del viento	3.22
92039	7	Sololá	704	Santa Lucía Utatlán 	7	Santa Rita 	5	Mayo	2023-06-05T00:00:00	2024-11-08T03:00:00	1	Precipitación	0
92040	7	Sololá	704	Santa Lucía Utatlán 	7	Santa Rita 	5	Mayo	2023-06-05T00:00:00	2024-11-08T03:00:00	8	Radiación solar	0
92041	7	Sololá	704	Santa Lucía Utatlán 	7	Santa Rita 	5	Mayo	2023-06-05T00:00:00	2024-11-08T04:00:00	2	Temperatura media	17.2
92042	7	Sololá	704	Santa Lucía Utatlán 	7	Santa Rita 	5	Mayo	2023-06-05T00:00:00	2024-11-08T04:00:00	4	Temperatura máxima	17.4
92043	7	Sololá	704	Santa Lucía Utatlán 	7	Santa Rita 	5	Mayo	2023-06-05T00:00:00	2024-11-08T04:00:00	3	Temperatura mínima	17.1
92044	7	Sololá	704	Santa Lucía Utatlán 	7	Santa Rita 	5	Mayo	2023-06-05T00:00:00	2024-11-08T04:00:00	5	Humedad	41
92045	7	Sololá	704	Santa Lucía Utatlán 	7	Santa Rita 	5	Mayo	2023-06-05T00:00:00	2024-11-08T04:00:00	6	Velocidad del viento	3.2
92046	7	Sololá	704	Santa Lucía Utatlán 	7	Santa Rita 	5	Mayo	2023-06-05T00:00:00	2024-11-08T04:00:00	7	Dirección del viento	3.22
92047	7	Sololá	704	Santa Lucía Utatlán 	7	Santa Rita 	5	Mayo	2023-06-05T00:00:00	2024-11-08T04:00:00	1	Precipitación	0
92048	7	Sololá	704	Santa Lucía Utatlán 	7	Santa Rita 	5	Mayo	2023-06-05T00:00:00	2024-11-08T04:00:00	8	Radiación solar	0
92049	7	Sololá	704	Santa Lucía Utatlán 	7	Santa Rita 	5	Mayo	2023-06-05T00:00:00	2024-11-08T05:00:00	2	Temperatura media	17.2
92050	7	Sololá	704	Santa Lucía Utatlán 	7	Santa Rita 	5	Mayo	2023-06-05T00:00:00	2024-11-08T05:00:00	4	Temperatura máxima	17.4
92051	7	Sololá	704	Santa Lucía Utatlán 	7	Santa Rita 	5	Mayo	2023-06-05T00:00:00	2024-11-08T05:00:00	3	Temperatura mínima	17.1
92052	7	Sololá	704	Santa Lucía Utatlán 	7	Santa Rita 	5	Mayo	2023-06-05T00:00:00	2024-11-08T05:00:00	5	Humedad	45
92053	7	Sololá	704	Santa Lucía Utatlán 	7	Santa Rita 	5	Mayo	2023-06-05T00:00:00	2024-11-08T05:00:00	6	Velocidad del viento	3.2
92054	7	Sololá	704	Santa Lucía Utatlán 	7	Santa Rita 	5	Mayo	2023-06-05T00:00:00	2024-11-08T05:00:00	7	Dirección del viento	3.22
92055	7	Sololá	704	Santa Lucía Utatlán 	7	Santa Rita 	5	Mayo	2023-06-05T00:00:00	2024-11-08T05:00:00	1	Precipitación	0
92056	7	Sololá	704	Santa Lucía Utatlán 	7	Santa Rita 	5	Mayo	2023-06-05T00:00:00	2024-11-08T05:00:00	8	Radiación solar	0
92057	7	Sololá	704	Santa Lucía Utatlán 	7	Santa Rita 	5	Mayo	2023-06-05T00:00:00	2024-11-08T06:00:00	2	Temperatura media	16.7
92058	7	Sololá	704	Santa Lucía Utatlán 	7	Santa Rita 	5	Mayo	2023-06-05T00:00:00	2024-11-08T06:00:00	4	Temperatura máxima	17.3
92059	7	Sololá	704	Santa Lucía Utatlán 	7	Santa Rita 	5	Mayo	2023-06-05T00:00:00	2024-11-08T06:00:00	3	Temperatura mínima	16.7
92060	7	Sololá	704	Santa Lucía Utatlán 	7	Santa Rita 	5	Mayo	2023-06-05T00:00:00	2024-11-08T06:00:00	5	Humedad	46
92061	7	Sololá	704	Santa Lucía Utatlán 	7	Santa Rita 	5	Mayo	2023-06-05T00:00:00	2024-11-08T06:00:00	6	Velocidad del viento	3.2
92062	7	Sololá	704	Santa Lucía Utatlán 	7	Santa Rita 	5	Mayo	2023-06-05T00:00:00	2024-11-08T06:00:00	7	Dirección del viento	3.22
92063	7	Sololá	704	Santa Lucía Utatlán 	7	Santa Rita 	5	Mayo	2023-06-05T00:00:00	2024-11-08T06:00:00	1	Precipitación	0
92064	7	Sololá	704	Santa Lucía Utatlán 	7	Santa Rita 	5	Mayo	2023-06-05T00:00:00	2024-11-08T06:00:00	8	Radiación solar	0
92065	7	Sololá	704	Santa Lucía Utatlán 	7	Santa Rita 	5	Mayo	2023-06-05T00:00:00	2024-11-08T07:00:00	2	Temperatura media	16.4
92066	7	Sololá	704	Santa Lucía Utatlán 	7	Santa Rita 	5	Mayo	2023-06-05T00:00:00	2024-11-08T07:00:00	4	Temperatura máxima	16.8
92067	7	Sololá	704	Santa Lucía Utatlán 	7	Santa Rita 	5	Mayo	2023-06-05T00:00:00	2024-11-08T07:00:00	3	Temperatura mínima	16.3
92068	7	Sololá	704	Santa Lucía Utatlán 	7	Santa Rita 	5	Mayo	2023-06-05T00:00:00	2024-11-08T07:00:00	5	Humedad	49
92069	7	Sololá	704	Santa Lucía Utatlán 	7	Santa Rita 	5	Mayo	2023-06-05T00:00:00	2024-11-08T07:00:00	6	Velocidad del viento	3.2
92070	7	Sololá	704	Santa Lucía Utatlán 	7	Santa Rita 	5	Mayo	2023-06-05T00:00:00	2024-11-08T07:00:00	7	Dirección del viento	3.22
92071	7	Sololá	704	Santa Lucía Utatlán 	7	Santa Rita 	5	Mayo	2023-06-05T00:00:00	2024-11-08T07:00:00	1	Precipitación	0
92072	7	Sololá	704	Santa Lucía Utatlán 	7	Santa Rita 	5	Mayo	2023-06-05T00:00:00	2024-11-08T07:00:00	8	Radiación solar	4
92073	7	Sololá	704	Santa Lucía Utatlán 	7	Santa Rita 	5	Mayo	2023-06-05T00:00:00	2024-11-08T08:00:00	2	Temperatura media	19.6
92074	7	Sololá	704	Santa Lucía Utatlán 	7	Santa Rita 	5	Mayo	2023-06-05T00:00:00	2024-11-08T08:00:00	4	Temperatura máxima	19.6
92075	7	Sololá	704	Santa Lucía Utatlán 	7	Santa Rita 	5	Mayo	2023-06-05T00:00:00	2024-11-08T08:00:00	3	Temperatura mínima	16.4
92076	7	Sololá	704	Santa Lucía Utatlán 	7	Santa Rita 	5	Mayo	2023-06-05T00:00:00	2024-11-08T08:00:00	5	Humedad	56
92077	7	Sololá	704	Santa Lucía Utatlán 	7	Santa Rita 	5	Mayo	2023-06-05T00:00:00	2024-11-08T08:00:00	6	Velocidad del viento	3.2
92078	7	Sololá	704	Santa Lucía Utatlán 	7	Santa Rita 	5	Mayo	2023-06-05T00:00:00	2024-11-08T08:00:00	7	Dirección del viento	3.22
92079	7	Sololá	704	Santa Lucía Utatlán 	7	Santa Rita 	5	Mayo	2023-06-05T00:00:00	2024-11-08T08:00:00	1	Precipitación	0
92080	7	Sololá	704	Santa Lucía Utatlán 	7	Santa Rita 	5	Mayo	2023-06-05T00:00:00	2024-11-08T08:00:00	8	Radiación solar	127
92081	7	Sololá	704	Santa Lucía Utatlán 	7	Santa Rita 	5	Mayo	2023-06-05T00:00:00	2024-11-08T09:00:00	2	Temperatura media	21.9
92082	7	Sololá	704	Santa Lucía Utatlán 	7	Santa Rita 	5	Mayo	2023-06-05T00:00:00	2024-11-08T09:00:00	4	Temperatura máxima	21.9
92083	7	Sololá	704	Santa Lucía Utatlán 	7	Santa Rita 	5	Mayo	2023-06-05T00:00:00	2024-11-08T09:00:00	3	Temperatura mínima	19.5
92084	7	Sololá	704	Santa Lucía Utatlán 	7	Santa Rita 	5	Mayo	2023-06-05T00:00:00	2024-11-08T09:00:00	5	Humedad	52
92085	7	Sololá	704	Santa Lucía Utatlán 	7	Santa Rita 	5	Mayo	2023-06-05T00:00:00	2024-11-08T09:00:00	6	Velocidad del viento	3.2
92086	7	Sololá	704	Santa Lucía Utatlán 	7	Santa Rita 	5	Mayo	2023-06-05T00:00:00	2024-11-08T09:00:00	7	Dirección del viento	3.22
92087	7	Sololá	704	Santa Lucía Utatlán 	7	Santa Rita 	5	Mayo	2023-06-05T00:00:00	2024-11-08T09:00:00	1	Precipitación	0
92088	7	Sololá	704	Santa Lucía Utatlán 	7	Santa Rita 	5	Mayo	2023-06-05T00:00:00	2024-11-08T09:00:00	8	Radiación solar	443
92089	7	Sololá	704	Santa Lucía Utatlán 	7	Santa Rita 	5	Mayo	2023-06-05T00:00:00	2024-11-08T10:00:00	2	Temperatura media	25.2
92090	7	Sololá	704	Santa Lucía Utatlán 	7	Santa Rita 	5	Mayo	2023-06-05T00:00:00	2024-11-08T10:00:00	4	Temperatura máxima	25.2
92091	7	Sololá	704	Santa Lucía Utatlán 	7	Santa Rita 	5	Mayo	2023-06-05T00:00:00	2024-11-08T10:00:00	3	Temperatura mínima	21.9
92092	7	Sololá	704	Santa Lucía Utatlán 	7	Santa Rita 	5	Mayo	2023-06-05T00:00:00	2024-11-08T10:00:00	5	Humedad	43
92093	7	Sololá	704	Santa Lucía Utatlán 	7	Santa Rita 	5	Mayo	2023-06-05T00:00:00	2024-11-08T10:00:00	6	Velocidad del viento	3.2
92094	7	Sololá	704	Santa Lucía Utatlán 	7	Santa Rita 	5	Mayo	2023-06-05T00:00:00	2024-11-08T10:00:00	7	Dirección del viento	3.22
92095	7	Sololá	704	Santa Lucía Utatlán 	7	Santa Rita 	5	Mayo	2023-06-05T00:00:00	2024-11-08T10:00:00	1	Precipitación	0
92096	7	Sololá	704	Santa Lucía Utatlán 	7	Santa Rita 	5	Mayo	2023-06-05T00:00:00	2024-11-08T10:00:00	8	Radiación solar	674
92097	7	Sololá	704	Santa Lucía Utatlán 	7	Santa Rita 	5	Mayo	2023-06-05T00:00:00	2024-11-08T11:00:00	2	Temperatura media	25.4
92098	7	Sololá	704	Santa Lucía Utatlán 	7	Santa Rita 	5	Mayo	2023-06-05T00:00:00	2024-11-08T11:00:00	4	Temperatura máxima	26.1
92099	7	Sololá	704	Santa Lucía Utatlán 	7	Santa Rita 	5	Mayo	2023-06-05T00:00:00	2024-11-08T11:00:00	3	Temperatura mínima	25.2
92100	7	Sololá	704	Santa Lucía Utatlán 	7	Santa Rita 	5	Mayo	2023-06-05T00:00:00	2024-11-08T11:00:00	5	Humedad	42
92101	7	Sololá	704	Santa Lucía Utatlán 	7	Santa Rita 	5	Mayo	2023-06-05T00:00:00	2024-11-08T11:00:00	6	Velocidad del viento	8
92102	7	Sololá	704	Santa Lucía Utatlán 	7	Santa Rita 	5	Mayo	2023-06-05T00:00:00	2024-11-08T11:00:00	7	Dirección del viento	8.05
92103	7	Sololá	704	Santa Lucía Utatlán 	7	Santa Rita 	5	Mayo	2023-06-05T00:00:00	2024-11-08T11:00:00	1	Precipitación	0
92104	7	Sololá	704	Santa Lucía Utatlán 	7	Santa Rita 	5	Mayo	2023-06-05T00:00:00	2024-11-08T11:00:00	8	Radiación solar	857
92105	7	Sololá	704	Santa Lucía Utatlán 	7	Santa Rita 	5	Mayo	2023-06-05T00:00:00	2024-11-08T12:00:00	2	Temperatura media	26.1
92106	7	Sololá	704	Santa Lucía Utatlán 	7	Santa Rita 	5	Mayo	2023-06-05T00:00:00	2024-11-08T12:00:00	4	Temperatura máxima	26.1
92107	7	Sololá	704	Santa Lucía Utatlán 	7	Santa Rita 	5	Mayo	2023-06-05T00:00:00	2024-11-08T12:00:00	3	Temperatura mínima	25.2
92108	7	Sololá	704	Santa Lucía Utatlán 	7	Santa Rita 	5	Mayo	2023-06-05T00:00:00	2024-11-08T12:00:00	5	Humedad	43
92109	7	Sololá	704	Santa Lucía Utatlán 	7	Santa Rita 	5	Mayo	2023-06-05T00:00:00	2024-11-08T12:00:00	6	Velocidad del viento	6.4
92110	7	Sololá	704	Santa Lucía Utatlán 	7	Santa Rita 	5	Mayo	2023-06-05T00:00:00	2024-11-08T12:00:00	7	Dirección del viento	6.44
92111	7	Sololá	704	Santa Lucía Utatlán 	7	Santa Rita 	5	Mayo	2023-06-05T00:00:00	2024-11-08T12:00:00	1	Precipitación	0
92112	7	Sololá	704	Santa Lucía Utatlán 	7	Santa Rita 	5	Mayo	2023-06-05T00:00:00	2024-11-08T12:00:00	8	Radiación solar	983
92113	7	Sololá	704	Santa Lucía Utatlán 	7	Santa Rita 	5	Mayo	2023-06-05T00:00:00	2024-11-08T13:00:00	2	Temperatura media	26.8
92114	7	Sololá	704	Santa Lucía Utatlán 	7	Santa Rita 	5	Mayo	2023-06-05T00:00:00	2024-11-08T13:00:00	4	Temperatura máxima	27.1
92115	7	Sololá	704	Santa Lucía Utatlán 	7	Santa Rita 	5	Mayo	2023-06-05T00:00:00	2024-11-08T13:00:00	3	Temperatura mínima	26
92116	7	Sololá	704	Santa Lucía Utatlán 	7	Santa Rita 	5	Mayo	2023-06-05T00:00:00	2024-11-08T13:00:00	5	Humedad	34
92117	7	Sololá	704	Santa Lucía Utatlán 	7	Santa Rita 	5	Mayo	2023-06-05T00:00:00	2024-11-08T13:00:00	6	Velocidad del viento	9.7
92118	7	Sololá	704	Santa Lucía Utatlán 	7	Santa Rita 	5	Mayo	2023-06-05T00:00:00	2024-11-08T13:00:00	7	Dirección del viento	9.66
92119	7	Sololá	704	Santa Lucía Utatlán 	7	Santa Rita 	5	Mayo	2023-06-05T00:00:00	2024-11-08T13:00:00	1	Precipitación	0
92120	7	Sololá	704	Santa Lucía Utatlán 	7	Santa Rita 	5	Mayo	2023-06-05T00:00:00	2024-11-08T13:00:00	8	Radiación solar	1043
92121	7	Sololá	704	Santa Lucía Utatlán 	7	Santa Rita 	5	Mayo	2023-06-05T00:00:00	2024-11-08T14:00:00	2	Temperatura media	27.3
92122	7	Sololá	704	Santa Lucía Utatlán 	7	Santa Rita 	5	Mayo	2023-06-05T00:00:00	2024-11-08T14:00:00	4	Temperatura máxima	27.4
92123	7	Sololá	704	Santa Lucía Utatlán 	7	Santa Rita 	5	Mayo	2023-06-05T00:00:00	2024-11-08T14:00:00	3	Temperatura mínima	26.8
92124	7	Sololá	704	Santa Lucía Utatlán 	7	Santa Rita 	5	Mayo	2023-06-05T00:00:00	2024-11-08T14:00:00	5	Humedad	32
92125	7	Sololá	704	Santa Lucía Utatlán 	7	Santa Rita 	5	Mayo	2023-06-05T00:00:00	2024-11-08T14:00:00	6	Velocidad del viento	11.3
92126	7	Sololá	704	Santa Lucía Utatlán 	7	Santa Rita 	5	Mayo	2023-06-05T00:00:00	2024-11-08T14:00:00	7	Dirección del viento	11.27
92127	7	Sololá	704	Santa Lucía Utatlán 	7	Santa Rita 	5	Mayo	2023-06-05T00:00:00	2024-11-08T14:00:00	1	Precipitación	0
92128	7	Sololá	704	Santa Lucía Utatlán 	7	Santa Rita 	5	Mayo	2023-06-05T00:00:00	2024-11-08T14:00:00	8	Radiación solar	1043
92129	7	Sololá	704	Santa Lucía Utatlán 	7	Santa Rita 	5	Mayo	2023-06-05T00:00:00	2024-11-08T15:00:00	2	Temperatura media	27.2
92130	7	Sololá	704	Santa Lucía Utatlán 	7	Santa Rita 	5	Mayo	2023-06-05T00:00:00	2024-11-08T15:00:00	4	Temperatura máxima	27.5
92131	7	Sololá	704	Santa Lucía Utatlán 	7	Santa Rita 	5	Mayo	2023-06-05T00:00:00	2024-11-08T15:00:00	3	Temperatura mínima	26.9
92132	7	Sololá	704	Santa Lucía Utatlán 	7	Santa Rita 	5	Mayo	2023-06-05T00:00:00	2024-11-08T15:00:00	5	Humedad	34
92133	7	Sololá	704	Santa Lucía Utatlán 	7	Santa Rita 	5	Mayo	2023-06-05T00:00:00	2024-11-08T15:00:00	6	Velocidad del viento	11.3
92134	7	Sololá	704	Santa Lucía Utatlán 	7	Santa Rita 	5	Mayo	2023-06-05T00:00:00	2024-11-08T15:00:00	7	Dirección del viento	11.27
92135	7	Sololá	704	Santa Lucía Utatlán 	7	Santa Rita 	5	Mayo	2023-06-05T00:00:00	2024-11-08T15:00:00	1	Precipitación	0
92136	7	Sololá	704	Santa Lucía Utatlán 	7	Santa Rita 	5	Mayo	2023-06-05T00:00:00	2024-11-08T15:00:00	8	Radiación solar	892
92137	7	Sololá	704	Santa Lucía Utatlán 	7	Santa Rita 	5	Mayo	2023-06-05T00:00:00	2024-11-08T16:00:00	2	Temperatura media	26.9
92138	7	Sololá	704	Santa Lucía Utatlán 	7	Santa Rita 	5	Mayo	2023-06-05T00:00:00	2024-11-08T16:00:00	4	Temperatura máxima	27.2
92139	7	Sololá	704	Santa Lucía Utatlán 	7	Santa Rita 	5	Mayo	2023-06-05T00:00:00	2024-11-08T16:00:00	3	Temperatura mínima	26.8
92140	7	Sololá	704	Santa Lucía Utatlán 	7	Santa Rita 	5	Mayo	2023-06-05T00:00:00	2024-11-08T16:00:00	5	Humedad	25
92141	7	Sololá	704	Santa Lucía Utatlán 	7	Santa Rita 	5	Mayo	2023-06-05T00:00:00	2024-11-08T16:00:00	6	Velocidad del viento	12.9
92142	7	Sololá	704	Santa Lucía Utatlán 	7	Santa Rita 	5	Mayo	2023-06-05T00:00:00	2024-11-08T16:00:00	7	Dirección del viento	12.87
92143	7	Sololá	704	Santa Lucía Utatlán 	7	Santa Rita 	5	Mayo	2023-06-05T00:00:00	2024-11-08T16:00:00	1	Precipitación	0
92144	7	Sololá	704	Santa Lucía Utatlán 	7	Santa Rita 	5	Mayo	2023-06-05T00:00:00	2024-11-08T16:00:00	8	Radiación solar	746
92145	7	Sololá	704	Santa Lucía Utatlán 	7	Santa Rita 	5	Mayo	2023-06-05T00:00:00	2024-11-08T17:00:00	2	Temperatura media	26.7
92146	7	Sololá	704	Santa Lucía Utatlán 	7	Santa Rita 	5	Mayo	2023-06-05T00:00:00	2024-11-08T17:00:00	4	Temperatura máxima	27.2
92147	7	Sololá	704	Santa Lucía Utatlán 	7	Santa Rita 	5	Mayo	2023-06-05T00:00:00	2024-11-08T17:00:00	3	Temperatura mínima	26.6
92148	7	Sololá	704	Santa Lucía Utatlán 	7	Santa Rita 	5	Mayo	2023-06-05T00:00:00	2024-11-08T17:00:00	5	Humedad	38
92149	7	Sololá	704	Santa Lucía Utatlán 	7	Santa Rita 	5	Mayo	2023-06-05T00:00:00	2024-11-08T17:00:00	6	Velocidad del viento	9.7
92150	7	Sololá	704	Santa Lucía Utatlán 	7	Santa Rita 	5	Mayo	2023-06-05T00:00:00	2024-11-08T17:00:00	7	Dirección del viento	9.66
92151	7	Sololá	704	Santa Lucía Utatlán 	7	Santa Rita 	5	Mayo	2023-06-05T00:00:00	2024-11-08T17:00:00	1	Precipitación	0
92152	7	Sololá	704	Santa Lucía Utatlán 	7	Santa Rita 	5	Mayo	2023-06-05T00:00:00	2024-11-08T17:00:00	8	Radiación solar	618
92153	7	Sololá	704	Santa Lucía Utatlán 	7	Santa Rita 	5	Mayo	2023-06-05T00:00:00	2024-11-08T18:00:00	2	Temperatura media	25.6
92154	7	Sololá	704	Santa Lucía Utatlán 	7	Santa Rita 	5	Mayo	2023-06-05T00:00:00	2024-11-08T18:00:00	4	Temperatura máxima	27.4
92155	7	Sololá	704	Santa Lucía Utatlán 	7	Santa Rita 	5	Mayo	2023-06-05T00:00:00	2024-11-08T18:00:00	3	Temperatura mínima	25.6
92156	7	Sololá	704	Santa Lucía Utatlán 	7	Santa Rita 	5	Mayo	2023-06-05T00:00:00	2024-11-08T18:00:00	5	Humedad	48
92157	7	Sololá	704	Santa Lucía Utatlán 	7	Santa Rita 	5	Mayo	2023-06-05T00:00:00	2024-11-08T18:00:00	6	Velocidad del viento	8
92158	7	Sololá	704	Santa Lucía Utatlán 	7	Santa Rita 	5	Mayo	2023-06-05T00:00:00	2024-11-08T18:00:00	7	Dirección del viento	8.05
92159	7	Sololá	704	Santa Lucía Utatlán 	7	Santa Rita 	5	Mayo	2023-06-05T00:00:00	2024-11-08T18:00:00	1	Precipitación	0
92160	7	Sololá	704	Santa Lucía Utatlán 	7	Santa Rita 	5	Mayo	2023-06-05T00:00:00	2024-11-08T18:00:00	8	Radiación solar	326
92161	7	Sololá	704	Santa Lucía Utatlán 	7	Santa Rita 	5	Mayo	2023-06-05T00:00:00	2024-11-08T19:00:00	2	Temperatura media	24.3
92162	7	Sololá	704	Santa Lucía Utatlán 	7	Santa Rita 	5	Mayo	2023-06-05T00:00:00	2024-11-08T19:00:00	4	Temperatura máxima	25.8
92163	7	Sololá	704	Santa Lucía Utatlán 	7	Santa Rita 	5	Mayo	2023-06-05T00:00:00	2024-11-08T19:00:00	3	Temperatura mínima	24.3
92164	7	Sololá	704	Santa Lucía Utatlán 	7	Santa Rita 	5	Mayo	2023-06-05T00:00:00	2024-11-08T19:00:00	5	Humedad	51
92165	7	Sololá	704	Santa Lucía Utatlán 	7	Santa Rita 	5	Mayo	2023-06-05T00:00:00	2024-11-08T19:00:00	6	Velocidad del viento	6.4
92166	7	Sololá	704	Santa Lucía Utatlán 	7	Santa Rita 	5	Mayo	2023-06-05T00:00:00	2024-11-08T19:00:00	7	Dirección del viento	6.44
92167	7	Sololá	704	Santa Lucía Utatlán 	7	Santa Rita 	5	Mayo	2023-06-05T00:00:00	2024-11-08T19:00:00	1	Precipitación	0
92168	7	Sololá	704	Santa Lucía Utatlán 	7	Santa Rita 	5	Mayo	2023-06-05T00:00:00	2024-11-08T19:00:00	8	Radiación solar	0
92169	7	Sololá	704	Santa Lucía Utatlán 	7	Santa Rita 	5	Mayo	2023-06-05T00:00:00	2024-11-08T20:00:00	2	Temperatura media	22.8
92170	7	Sololá	704	Santa Lucía Utatlán 	7	Santa Rita 	5	Mayo	2023-06-05T00:00:00	2024-11-08T20:00:00	4	Temperatura máxima	24.3
92171	7	Sololá	704	Santa Lucía Utatlán 	7	Santa Rita 	5	Mayo	2023-06-05T00:00:00	2024-11-08T20:00:00	3	Temperatura mínima	22.8
92172	7	Sololá	704	Santa Lucía Utatlán 	7	Santa Rita 	5	Mayo	2023-06-05T00:00:00	2024-11-08T20:00:00	5	Humedad	58
92173	7	Sololá	704	Santa Lucía Utatlán 	7	Santa Rita 	5	Mayo	2023-06-05T00:00:00	2024-11-08T20:00:00	6	Velocidad del viento	4.8
92174	7	Sololá	704	Santa Lucía Utatlán 	7	Santa Rita 	5	Mayo	2023-06-05T00:00:00	2024-11-08T20:00:00	7	Dirección del viento	4.83
92175	7	Sololá	704	Santa Lucía Utatlán 	7	Santa Rita 	5	Mayo	2023-06-05T00:00:00	2024-11-08T20:00:00	1	Precipitación	0
92176	7	Sololá	704	Santa Lucía Utatlán 	7	Santa Rita 	5	Mayo	2023-06-05T00:00:00	2024-11-08T20:00:00	8	Radiación solar	0
92177	7	Sololá	704	Santa Lucía Utatlán 	7	Santa Rita 	5	Mayo	2023-06-05T00:00:00	2024-11-08T21:00:00	2	Temperatura media	20.4
92178	7	Sololá	704	Santa Lucía Utatlán 	7	Santa Rita 	5	Mayo	2023-06-05T00:00:00	2024-11-08T21:00:00	4	Temperatura máxima	22.8
92179	7	Sololá	704	Santa Lucía Utatlán 	7	Santa Rita 	5	Mayo	2023-06-05T00:00:00	2024-11-08T21:00:00	3	Temperatura mínima	20.4
92180	7	Sololá	704	Santa Lucía Utatlán 	7	Santa Rita 	5	Mayo	2023-06-05T00:00:00	2024-11-08T21:00:00	5	Humedad	69
92181	7	Sololá	704	Santa Lucía Utatlán 	7	Santa Rita 	5	Mayo	2023-06-05T00:00:00	2024-11-08T21:00:00	6	Velocidad del viento	3.2
92182	7	Sololá	704	Santa Lucía Utatlán 	7	Santa Rita 	5	Mayo	2023-06-05T00:00:00	2024-11-08T21:00:00	7	Dirección del viento	3.22
92183	7	Sololá	704	Santa Lucía Utatlán 	7	Santa Rita 	5	Mayo	2023-06-05T00:00:00	2024-11-08T21:00:00	1	Precipitación	0
92184	7	Sololá	704	Santa Lucía Utatlán 	7	Santa Rita 	5	Mayo	2023-06-05T00:00:00	2024-11-08T21:00:00	8	Radiación solar	0
92185	7	Sololá	704	Santa Lucía Utatlán 	7	Santa Rita 	5	Mayo	2023-06-05T00:00:00	2024-11-08T22:00:00	2	Temperatura media	18.9
92186	7	Sololá	704	Santa Lucía Utatlán 	7	Santa Rita 	5	Mayo	2023-06-05T00:00:00	2024-11-08T22:00:00	4	Temperatura máxima	20.4
92187	7	Sololá	704	Santa Lucía Utatlán 	7	Santa Rita 	5	Mayo	2023-06-05T00:00:00	2024-11-08T22:00:00	3	Temperatura mínima	18.7
92188	7	Sololá	704	Santa Lucía Utatlán 	7	Santa Rita 	5	Mayo	2023-06-05T00:00:00	2024-11-08T22:00:00	5	Humedad	73
92189	7	Sololá	704	Santa Lucía Utatlán 	7	Santa Rita 	5	Mayo	2023-06-05T00:00:00	2024-11-08T22:00:00	6	Velocidad del viento	3.2
92190	7	Sololá	704	Santa Lucía Utatlán 	7	Santa Rita 	5	Mayo	2023-06-05T00:00:00	2024-11-08T22:00:00	7	Dirección del viento	3.22
92191	7	Sololá	704	Santa Lucía Utatlán 	7	Santa Rita 	5	Mayo	2023-06-05T00:00:00	2024-11-08T22:00:00	1	Precipitación	0
92192	7	Sololá	704	Santa Lucía Utatlán 	7	Santa Rita 	5	Mayo	2023-06-05T00:00:00	2024-11-08T22:00:00	8	Radiación solar	0
92193	7	Sololá	704	Santa Lucía Utatlán 	7	Santa Rita 	5	Mayo	2023-06-05T00:00:00	2024-11-08T23:00:00	2	Temperatura media	20.9
92194	7	Sololá	704	Santa Lucía Utatlán 	7	Santa Rita 	5	Mayo	2023-06-05T00:00:00	2024-11-08T23:00:00	4	Temperatura máxima	20.9
92195	7	Sololá	704	Santa Lucía Utatlán 	7	Santa Rita 	5	Mayo	2023-06-05T00:00:00	2024-11-08T23:00:00	3	Temperatura mínima	18.6
92196	7	Sololá	704	Santa Lucía Utatlán 	7	Santa Rita 	5	Mayo	2023-06-05T00:00:00	2024-11-08T23:00:00	5	Humedad	44
92197	7	Sololá	704	Santa Lucía Utatlán 	7	Santa Rita 	5	Mayo	2023-06-05T00:00:00	2024-11-08T23:00:00	6	Velocidad del viento	3.2
92198	7	Sololá	704	Santa Lucía Utatlán 	7	Santa Rita 	5	Mayo	2023-06-05T00:00:00	2024-11-08T23:00:00	7	Dirección del viento	3.22
92199	7	Sololá	704	Santa Lucía Utatlán 	7	Santa Rita 	5	Mayo	2023-06-05T00:00:00	2024-11-08T23:00:00	1	Precipitación	0
92200	7	Sololá	704	Santa Lucía Utatlán 	7	Santa Rita 	5	Mayo	2023-06-05T00:00:00	2024-11-08T23:00:00	8	Radiación solar	0
92201	7	Sololá	704	Santa Lucía Utatlán 	7	Santa Rita 	5	Mayo	2023-07-05T00:00:00	2024-11-08T00:00:00	2	Temperatura media	18.9
92202	7	Sololá	704	Santa Lucía Utatlán 	7	Santa Rita 	5	Mayo	2023-07-05T00:00:00	2024-11-08T00:00:00	4	Temperatura máxima	22.4
92203	7	Sololá	704	Santa Lucía Utatlán 	7	Santa Rita 	5	Mayo	2023-07-05T00:00:00	2024-11-08T00:00:00	3	Temperatura mínima	18.8
92204	7	Sololá	704	Santa Lucía Utatlán 	7	Santa Rita 	5	Mayo	2023-07-05T00:00:00	2024-11-08T00:00:00	5	Humedad	48
92205	7	Sololá	704	Santa Lucía Utatlán 	7	Santa Rita 	5	Mayo	2023-07-05T00:00:00	2024-11-08T00:00:00	6	Velocidad del viento	3.2
92206	7	Sololá	704	Santa Lucía Utatlán 	7	Santa Rita 	5	Mayo	2023-07-05T00:00:00	2024-11-08T00:00:00	7	Dirección del viento	3.22
92207	7	Sololá	704	Santa Lucía Utatlán 	7	Santa Rita 	5	Mayo	2023-07-05T00:00:00	2024-11-08T00:00:00	1	Precipitación	0
92208	7	Sololá	704	Santa Lucía Utatlán 	7	Santa Rita 	5	Mayo	2023-07-05T00:00:00	2024-11-08T00:00:00	8	Radiación solar	0
92209	7	Sololá	704	Santa Lucía Utatlán 	7	Santa Rita 	5	Mayo	2023-07-05T00:00:00	2024-11-08T01:00:00	2	Temperatura media	17.9
92210	7	Sololá	704	Santa Lucía Utatlán 	7	Santa Rita 	5	Mayo	2023-07-05T00:00:00	2024-11-08T01:00:00	4	Temperatura máxima	19.6
92211	7	Sololá	704	Santa Lucía Utatlán 	7	Santa Rita 	5	Mayo	2023-07-05T00:00:00	2024-11-08T01:00:00	3	Temperatura mínima	17.9
92212	7	Sololá	704	Santa Lucía Utatlán 	7	Santa Rita 	5	Mayo	2023-07-05T00:00:00	2024-11-08T01:00:00	5	Humedad	48
92213	7	Sololá	704	Santa Lucía Utatlán 	7	Santa Rita 	5	Mayo	2023-07-05T00:00:00	2024-11-08T01:00:00	6	Velocidad del viento	3.2
92214	7	Sololá	704	Santa Lucía Utatlán 	7	Santa Rita 	5	Mayo	2023-07-05T00:00:00	2024-11-08T01:00:00	7	Dirección del viento	3.22
92215	7	Sololá	704	Santa Lucía Utatlán 	7	Santa Rita 	5	Mayo	2023-07-05T00:00:00	2024-11-08T01:00:00	1	Precipitación	0
92216	7	Sololá	704	Santa Lucía Utatlán 	7	Santa Rita 	5	Mayo	2023-07-05T00:00:00	2024-11-08T01:00:00	8	Radiación solar	0
92217	7	Sololá	704	Santa Lucía Utatlán 	7	Santa Rita 	5	Mayo	2023-07-05T00:00:00	2024-11-08T02:00:00	2	Temperatura media	17.4
92218	7	Sololá	704	Santa Lucía Utatlán 	7	Santa Rita 	5	Mayo	2023-07-05T00:00:00	2024-11-08T02:00:00	4	Temperatura máxima	17.9
92219	7	Sololá	704	Santa Lucía Utatlán 	7	Santa Rita 	5	Mayo	2023-07-05T00:00:00	2024-11-08T02:00:00	3	Temperatura mínima	17.3
92220	7	Sololá	704	Santa Lucía Utatlán 	7	Santa Rita 	5	Mayo	2023-07-05T00:00:00	2024-11-08T02:00:00	5	Humedad	45
92221	7	Sololá	704	Santa Lucía Utatlán 	7	Santa Rita 	5	Mayo	2023-07-05T00:00:00	2024-11-08T02:00:00	6	Velocidad del viento	3.2
92222	7	Sololá	704	Santa Lucía Utatlán 	7	Santa Rita 	5	Mayo	2023-07-05T00:00:00	2024-11-08T02:00:00	7	Dirección del viento	3.22
92223	7	Sololá	704	Santa Lucía Utatlán 	7	Santa Rita 	5	Mayo	2023-07-05T00:00:00	2024-11-08T02:00:00	1	Precipitación	0
92224	7	Sololá	704	Santa Lucía Utatlán 	7	Santa Rita 	5	Mayo	2023-07-05T00:00:00	2024-11-08T02:00:00	8	Radiación solar	0
92225	7	Sololá	704	Santa Lucía Utatlán 	7	Santa Rita 	5	Mayo	2023-07-05T00:00:00	2024-11-08T03:00:00	2	Temperatura media	17.6
92226	7	Sololá	704	Santa Lucía Utatlán 	7	Santa Rita 	5	Mayo	2023-07-05T00:00:00	2024-11-08T03:00:00	4	Temperatura máxima	17.7
92227	7	Sololá	704	Santa Lucía Utatlán 	7	Santa Rita 	5	Mayo	2023-07-05T00:00:00	2024-11-08T03:00:00	3	Temperatura mínima	17.4
92228	7	Sololá	704	Santa Lucía Utatlán 	7	Santa Rita 	5	Mayo	2023-07-05T00:00:00	2024-11-08T03:00:00	5	Humedad	44
92229	7	Sololá	704	Santa Lucía Utatlán 	7	Santa Rita 	5	Mayo	2023-07-05T00:00:00	2024-11-08T03:00:00	6	Velocidad del viento	4.8
92230	7	Sololá	704	Santa Lucía Utatlán 	7	Santa Rita 	5	Mayo	2023-07-05T00:00:00	2024-11-08T03:00:00	7	Dirección del viento	4.83
92231	7	Sololá	704	Santa Lucía Utatlán 	7	Santa Rita 	5	Mayo	2023-07-05T00:00:00	2024-11-08T03:00:00	1	Precipitación	0
92232	7	Sololá	704	Santa Lucía Utatlán 	7	Santa Rita 	5	Mayo	2023-07-05T00:00:00	2024-11-08T03:00:00	8	Radiación solar	0
92233	7	Sololá	704	Santa Lucía Utatlán 	7	Santa Rita 	5	Mayo	2023-07-05T00:00:00	2024-11-08T04:00:00	2	Temperatura media	18.2
92234	7	Sololá	704	Santa Lucía Utatlán 	7	Santa Rita 	5	Mayo	2023-07-05T00:00:00	2024-11-08T04:00:00	4	Temperatura máxima	18.2
92235	7	Sololá	704	Santa Lucía Utatlán 	7	Santa Rita 	5	Mayo	2023-07-05T00:00:00	2024-11-08T04:00:00	3	Temperatura mínima	17.5
92236	7	Sololá	704	Santa Lucía Utatlán 	7	Santa Rita 	5	Mayo	2023-07-05T00:00:00	2024-11-08T04:00:00	5	Humedad	35
92237	7	Sololá	704	Santa Lucía Utatlán 	7	Santa Rita 	5	Mayo	2023-07-05T00:00:00	2024-11-08T04:00:00	6	Velocidad del viento	4.8
92238	7	Sololá	704	Santa Lucía Utatlán 	7	Santa Rita 	5	Mayo	2023-07-05T00:00:00	2024-11-08T04:00:00	7	Dirección del viento	4.83
92239	7	Sololá	704	Santa Lucía Utatlán 	7	Santa Rita 	5	Mayo	2023-07-05T00:00:00	2024-11-08T04:00:00	1	Precipitación	0
92240	7	Sololá	704	Santa Lucía Utatlán 	7	Santa Rita 	5	Mayo	2023-07-05T00:00:00	2024-11-08T04:00:00	8	Radiación solar	0
92241	7	Sololá	704	Santa Lucía Utatlán 	7	Santa Rita 	5	Mayo	2023-07-05T00:00:00	2024-11-08T05:00:00	2	Temperatura media	17.6
92242	7	Sololá	704	Santa Lucía Utatlán 	7	Santa Rita 	5	Mayo	2023-07-05T00:00:00	2024-11-08T05:00:00	4	Temperatura máxima	20.1
92243	7	Sololá	704	Santa Lucía Utatlán 	7	Santa Rita 	5	Mayo	2023-07-05T00:00:00	2024-11-08T05:00:00	3	Temperatura mínima	17.5
92244	7	Sololá	704	Santa Lucía Utatlán 	7	Santa Rita 	5	Mayo	2023-07-05T00:00:00	2024-11-08T05:00:00	5	Humedad	35
92245	7	Sololá	704	Santa Lucía Utatlán 	7	Santa Rita 	5	Mayo	2023-07-05T00:00:00	2024-11-08T05:00:00	6	Velocidad del viento	3.2
92246	7	Sololá	704	Santa Lucía Utatlán 	7	Santa Rita 	5	Mayo	2023-07-05T00:00:00	2024-11-08T05:00:00	7	Dirección del viento	3.22
92247	7	Sololá	704	Santa Lucía Utatlán 	7	Santa Rita 	5	Mayo	2023-07-05T00:00:00	2024-11-08T05:00:00	1	Precipitación	0
92248	7	Sololá	704	Santa Lucía Utatlán 	7	Santa Rita 	5	Mayo	2023-07-05T00:00:00	2024-11-08T05:00:00	8	Radiación solar	0
92249	7	Sololá	704	Santa Lucía Utatlán 	7	Santa Rita 	5	Mayo	2023-07-05T00:00:00	2024-11-08T06:00:00	2	Temperatura media	17.7
92250	7	Sololá	704	Santa Lucía Utatlán 	7	Santa Rita 	5	Mayo	2023-07-05T00:00:00	2024-11-08T06:00:00	4	Temperatura máxima	17.8
92251	7	Sololá	704	Santa Lucía Utatlán 	7	Santa Rita 	5	Mayo	2023-07-05T00:00:00	2024-11-08T06:00:00	3	Temperatura mínima	17.5
92252	7	Sololá	704	Santa Lucía Utatlán 	7	Santa Rita 	5	Mayo	2023-07-05T00:00:00	2024-11-08T06:00:00	5	Humedad	35
92253	7	Sololá	704	Santa Lucía Utatlán 	7	Santa Rita 	5	Mayo	2023-07-05T00:00:00	2024-11-08T06:00:00	6	Velocidad del viento	3.2
92254	7	Sololá	704	Santa Lucía Utatlán 	7	Santa Rita 	5	Mayo	2023-07-05T00:00:00	2024-11-08T06:00:00	7	Dirección del viento	3.22
92255	7	Sololá	704	Santa Lucía Utatlán 	7	Santa Rita 	5	Mayo	2023-07-05T00:00:00	2024-11-08T06:00:00	1	Precipitación	0
92256	7	Sololá	704	Santa Lucía Utatlán 	7	Santa Rita 	5	Mayo	2023-07-05T00:00:00	2024-11-08T06:00:00	8	Radiación solar	0
92257	7	Sololá	704	Santa Lucía Utatlán 	7	Santa Rita 	5	Mayo	2023-07-05T00:00:00	2024-11-08T07:00:00	2	Temperatura media	17.7
92258	7	Sololá	704	Santa Lucía Utatlán 	7	Santa Rita 	5	Mayo	2023-07-05T00:00:00	2024-11-08T07:00:00	4	Temperatura máxima	17.7
92259	7	Sololá	704	Santa Lucía Utatlán 	7	Santa Rita 	5	Mayo	2023-07-05T00:00:00	2024-11-08T07:00:00	3	Temperatura mínima	17.4
92260	7	Sololá	704	Santa Lucía Utatlán 	7	Santa Rita 	5	Mayo	2023-07-05T00:00:00	2024-11-08T07:00:00	5	Humedad	36
92261	7	Sololá	704	Santa Lucía Utatlán 	7	Santa Rita 	5	Mayo	2023-07-05T00:00:00	2024-11-08T07:00:00	6	Velocidad del viento	4.8
92262	7	Sololá	704	Santa Lucía Utatlán 	7	Santa Rita 	5	Mayo	2023-07-05T00:00:00	2024-11-08T07:00:00	7	Dirección del viento	4.83
92263	7	Sololá	704	Santa Lucía Utatlán 	7	Santa Rita 	5	Mayo	2023-07-05T00:00:00	2024-11-08T07:00:00	1	Precipitación	0
92264	7	Sololá	704	Santa Lucía Utatlán 	7	Santa Rita 	5	Mayo	2023-07-05T00:00:00	2024-11-08T07:00:00	8	Radiación solar	5
92265	7	Sololá	704	Santa Lucía Utatlán 	7	Santa Rita 	5	Mayo	2023-07-05T00:00:00	2024-11-08T08:00:00	2	Temperatura media	19.9
92266	7	Sololá	704	Santa Lucía Utatlán 	7	Santa Rita 	5	Mayo	2023-07-05T00:00:00	2024-11-08T08:00:00	4	Temperatura máxima	19.9
92267	7	Sololá	704	Santa Lucía Utatlán 	7	Santa Rita 	5	Mayo	2023-07-05T00:00:00	2024-11-08T08:00:00	3	Temperatura mínima	17.7
92268	7	Sololá	704	Santa Lucía Utatlán 	7	Santa Rita 	5	Mayo	2023-07-05T00:00:00	2024-11-08T08:00:00	5	Humedad	32
92269	7	Sololá	704	Santa Lucía Utatlán 	7	Santa Rita 	5	Mayo	2023-07-05T00:00:00	2024-11-08T08:00:00	6	Velocidad del viento	1.6
92270	7	Sololá	704	Santa Lucía Utatlán 	7	Santa Rita 	5	Mayo	2023-07-05T00:00:00	2024-11-08T08:00:00	7	Dirección del viento	1.61
92271	7	Sololá	704	Santa Lucía Utatlán 	7	Santa Rita 	5	Mayo	2023-07-05T00:00:00	2024-11-08T08:00:00	1	Precipitación	0
92272	7	Sololá	704	Santa Lucía Utatlán 	7	Santa Rita 	5	Mayo	2023-07-05T00:00:00	2024-11-08T08:00:00	8	Radiación solar	93
92273	7	Sololá	704	Santa Lucía Utatlán 	7	Santa Rita 	5	Mayo	2023-07-05T00:00:00	2024-11-08T09:00:00	2	Temperatura media	22.8
92274	7	Sololá	704	Santa Lucía Utatlán 	7	Santa Rita 	5	Mayo	2023-07-05T00:00:00	2024-11-08T09:00:00	4	Temperatura máxima	22.8
92275	7	Sololá	704	Santa Lucía Utatlán 	7	Santa Rita 	5	Mayo	2023-07-05T00:00:00	2024-11-08T09:00:00	3	Temperatura mínima	20
92276	7	Sololá	704	Santa Lucía Utatlán 	7	Santa Rita 	5	Mayo	2023-07-05T00:00:00	2024-11-08T09:00:00	5	Humedad	35
92277	7	Sololá	704	Santa Lucía Utatlán 	7	Santa Rita 	5	Mayo	2023-07-05T00:00:00	2024-11-08T09:00:00	6	Velocidad del viento	1.6
92278	7	Sololá	704	Santa Lucía Utatlán 	7	Santa Rita 	5	Mayo	2023-07-05T00:00:00	2024-11-08T09:00:00	7	Dirección del viento	1.61
92279	7	Sololá	704	Santa Lucía Utatlán 	7	Santa Rita 	5	Mayo	2023-07-05T00:00:00	2024-11-08T09:00:00	1	Precipitación	0
92280	7	Sololá	704	Santa Lucía Utatlán 	7	Santa Rita 	5	Mayo	2023-07-05T00:00:00	2024-11-08T09:00:00	8	Radiación solar	380
92281	7	Sololá	704	Santa Lucía Utatlán 	7	Santa Rita 	5	Mayo	2023-07-05T00:00:00	2024-11-08T10:00:00	2	Temperatura media	25.8
92282	7	Sololá	704	Santa Lucía Utatlán 	7	Santa Rita 	5	Mayo	2023-07-05T00:00:00	2024-11-08T10:00:00	4	Temperatura máxima	25.8
92283	7	Sololá	704	Santa Lucía Utatlán 	7	Santa Rita 	5	Mayo	2023-07-05T00:00:00	2024-11-08T10:00:00	3	Temperatura mínima	22.8
92284	7	Sololá	704	Santa Lucía Utatlán 	7	Santa Rita 	5	Mayo	2023-07-05T00:00:00	2024-11-08T10:00:00	5	Humedad	24
92285	7	Sololá	704	Santa Lucía Utatlán 	7	Santa Rita 	5	Mayo	2023-07-05T00:00:00	2024-11-08T10:00:00	6	Velocidad del viento	4.8
92286	7	Sololá	704	Santa Lucía Utatlán 	7	Santa Rita 	5	Mayo	2023-07-05T00:00:00	2024-11-08T10:00:00	7	Dirección del viento	4.83
92287	7	Sololá	704	Santa Lucía Utatlán 	7	Santa Rita 	5	Mayo	2023-07-05T00:00:00	2024-11-08T10:00:00	1	Precipitación	0
92288	7	Sololá	704	Santa Lucía Utatlán 	7	Santa Rita 	5	Mayo	2023-07-05T00:00:00	2024-11-08T10:00:00	8	Radiación solar	673
92289	7	Sololá	704	Santa Lucía Utatlán 	7	Santa Rita 	5	Mayo	2023-07-05T00:00:00	2024-11-08T11:00:00	2	Temperatura media	26.1
92290	7	Sololá	704	Santa Lucía Utatlán 	7	Santa Rita 	5	Mayo	2023-07-05T00:00:00	2024-11-08T11:00:00	4	Temperatura máxima	26.2
92291	7	Sololá	704	Santa Lucía Utatlán 	7	Santa Rita 	5	Mayo	2023-07-05T00:00:00	2024-11-08T11:00:00	3	Temperatura mínima	25.7
92292	7	Sololá	704	Santa Lucía Utatlán 	7	Santa Rita 	5	Mayo	2023-07-05T00:00:00	2024-11-08T11:00:00	5	Humedad	29
92293	7	Sololá	704	Santa Lucía Utatlán 	7	Santa Rita 	5	Mayo	2023-07-05T00:00:00	2024-11-08T11:00:00	6	Velocidad del viento	8
92294	7	Sololá	704	Santa Lucía Utatlán 	7	Santa Rita 	5	Mayo	2023-07-05T00:00:00	2024-11-08T11:00:00	7	Dirección del viento	8.05
92295	7	Sololá	704	Santa Lucía Utatlán 	7	Santa Rita 	5	Mayo	2023-07-05T00:00:00	2024-11-08T11:00:00	1	Precipitación	0
92296	7	Sololá	704	Santa Lucía Utatlán 	7	Santa Rita 	5	Mayo	2023-07-05T00:00:00	2024-11-08T11:00:00	8	Radiación solar	854
92297	7	Sololá	704	Santa Lucía Utatlán 	7	Santa Rita 	5	Mayo	2023-07-05T00:00:00	2024-11-08T12:00:00	2	Temperatura media	26.7
92298	7	Sololá	704	Santa Lucía Utatlán 	7	Santa Rita 	5	Mayo	2023-07-05T00:00:00	2024-11-08T12:00:00	4	Temperatura máxima	26.9
92299	7	Sololá	704	Santa Lucía Utatlán 	7	Santa Rita 	5	Mayo	2023-07-05T00:00:00	2024-11-08T12:00:00	3	Temperatura mínima	25.9
92300	7	Sololá	704	Santa Lucía Utatlán 	7	Santa Rita 	5	Mayo	2023-07-05T00:00:00	2024-11-08T12:00:00	5	Humedad	30
92301	7	Sololá	704	Santa Lucía Utatlán 	7	Santa Rita 	5	Mayo	2023-07-05T00:00:00	2024-11-08T12:00:00	6	Velocidad del viento	9.7
92302	7	Sololá	704	Santa Lucía Utatlán 	7	Santa Rita 	5	Mayo	2023-07-05T00:00:00	2024-11-08T12:00:00	7	Dirección del viento	9.66
92303	7	Sololá	704	Santa Lucía Utatlán 	7	Santa Rita 	5	Mayo	2023-07-05T00:00:00	2024-11-08T12:00:00	1	Precipitación	0
92304	7	Sololá	704	Santa Lucía Utatlán 	7	Santa Rita 	5	Mayo	2023-07-05T00:00:00	2024-11-08T12:00:00	8	Radiación solar	984
92305	7	Sololá	704	Santa Lucía Utatlán 	7	Santa Rita 	5	Mayo	2023-07-05T00:00:00	2024-11-08T13:00:00	2	Temperatura media	27.1
92306	7	Sololá	704	Santa Lucía Utatlán 	7	Santa Rita 	5	Mayo	2023-07-05T00:00:00	2024-11-08T13:00:00	4	Temperatura máxima	27.2
92307	7	Sololá	704	Santa Lucía Utatlán 	7	Santa Rita 	5	Mayo	2023-07-05T00:00:00	2024-11-08T13:00:00	3	Temperatura mínima	26.6
92308	7	Sololá	704	Santa Lucía Utatlán 	7	Santa Rita 	5	Mayo	2023-07-05T00:00:00	2024-11-08T13:00:00	5	Humedad	27
92309	7	Sololá	704	Santa Lucía Utatlán 	7	Santa Rita 	5	Mayo	2023-07-05T00:00:00	2024-11-08T13:00:00	6	Velocidad del viento	11.3
92310	7	Sololá	704	Santa Lucía Utatlán 	7	Santa Rita 	5	Mayo	2023-07-05T00:00:00	2024-11-08T13:00:00	7	Dirección del viento	11.27
92311	7	Sololá	704	Santa Lucía Utatlán 	7	Santa Rita 	5	Mayo	2023-07-05T00:00:00	2024-11-08T13:00:00	1	Precipitación	0
92312	7	Sololá	704	Santa Lucía Utatlán 	7	Santa Rita 	5	Mayo	2023-07-05T00:00:00	2024-11-08T13:00:00	8	Radiación solar	1056
92313	7	Sololá	704	Santa Lucía Utatlán 	7	Santa Rita 	5	Mayo	2023-07-05T00:00:00	2024-11-08T14:00:00	2	Temperatura media	27.2
92314	7	Sololá	704	Santa Lucía Utatlán 	7	Santa Rita 	5	Mayo	2023-07-05T00:00:00	2024-11-08T14:00:00	4	Temperatura máxima	27.6
92315	7	Sololá	704	Santa Lucía Utatlán 	7	Santa Rita 	5	Mayo	2023-07-05T00:00:00	2024-11-08T14:00:00	3	Temperatura mínima	26.8
92316	7	Sololá	704	Santa Lucía Utatlán 	7	Santa Rita 	5	Mayo	2023-07-05T00:00:00	2024-11-08T14:00:00	5	Humedad	26
92317	7	Sololá	704	Santa Lucía Utatlán 	7	Santa Rita 	5	Mayo	2023-07-05T00:00:00	2024-11-08T14:00:00	6	Velocidad del viento	11.3
92318	7	Sololá	704	Santa Lucía Utatlán 	7	Santa Rita 	5	Mayo	2023-07-05T00:00:00	2024-11-08T14:00:00	7	Dirección del viento	11.27
92319	7	Sololá	704	Santa Lucía Utatlán 	7	Santa Rita 	5	Mayo	2023-07-05T00:00:00	2024-11-08T14:00:00	1	Precipitación	0
92320	7	Sololá	704	Santa Lucía Utatlán 	7	Santa Rita 	5	Mayo	2023-07-05T00:00:00	2024-11-08T14:00:00	8	Radiación solar	1047
92321	7	Sololá	704	Santa Lucía Utatlán 	7	Santa Rita 	5	Mayo	2023-07-05T00:00:00	2024-11-08T15:00:00	2	Temperatura media	27.9
92322	7	Sololá	704	Santa Lucía Utatlán 	7	Santa Rita 	5	Mayo	2023-07-05T00:00:00	2024-11-08T15:00:00	4	Temperatura máxima	28.1
92323	7	Sololá	704	Santa Lucía Utatlán 	7	Santa Rita 	5	Mayo	2023-07-05T00:00:00	2024-11-08T15:00:00	3	Temperatura mínima	27.2
92324	7	Sololá	704	Santa Lucía Utatlán 	7	Santa Rita 	5	Mayo	2023-07-05T00:00:00	2024-11-08T15:00:00	5	Humedad	20
92325	7	Sololá	704	Santa Lucía Utatlán 	7	Santa Rita 	5	Mayo	2023-07-05T00:00:00	2024-11-08T15:00:00	6	Velocidad del viento	11.3
92326	7	Sololá	704	Santa Lucía Utatlán 	7	Santa Rita 	5	Mayo	2023-07-05T00:00:00	2024-11-08T15:00:00	7	Dirección del viento	11.27
92327	7	Sololá	704	Santa Lucía Utatlán 	7	Santa Rita 	5	Mayo	2023-07-05T00:00:00	2024-11-08T15:00:00	1	Precipitación	0
92328	7	Sololá	704	Santa Lucía Utatlán 	7	Santa Rita 	5	Mayo	2023-07-05T00:00:00	2024-11-08T15:00:00	8	Radiación solar	967
92329	7	Sololá	704	Santa Lucía Utatlán 	7	Santa Rita 	5	Mayo	2023-07-05T00:00:00	2024-11-08T16:00:00	2	Temperatura media	28.1
92330	7	Sololá	704	Santa Lucía Utatlán 	7	Santa Rita 	5	Mayo	2023-07-05T00:00:00	2024-11-08T16:00:00	4	Temperatura máxima	28.4
92331	7	Sololá	704	Santa Lucía Utatlán 	7	Santa Rita 	5	Mayo	2023-07-05T00:00:00	2024-11-08T16:00:00	3	Temperatura mínima	27.7
92332	7	Sololá	704	Santa Lucía Utatlán 	7	Santa Rita 	5	Mayo	2023-07-05T00:00:00	2024-11-08T16:00:00	5	Humedad	20
92333	7	Sololá	704	Santa Lucía Utatlán 	7	Santa Rita 	5	Mayo	2023-07-05T00:00:00	2024-11-08T16:00:00	6	Velocidad del viento	11.3
92334	7	Sololá	704	Santa Lucía Utatlán 	7	Santa Rita 	5	Mayo	2023-07-05T00:00:00	2024-11-08T16:00:00	7	Dirección del viento	11.27
92335	7	Sololá	704	Santa Lucía Utatlán 	7	Santa Rita 	5	Mayo	2023-07-05T00:00:00	2024-11-08T16:00:00	1	Precipitación	0
92336	7	Sololá	704	Santa Lucía Utatlán 	7	Santa Rita 	5	Mayo	2023-07-05T00:00:00	2024-11-08T16:00:00	8	Radiación solar	828
92337	7	Sololá	704	Santa Lucía Utatlán 	7	Santa Rita 	5	Mayo	2023-07-05T00:00:00	2024-11-08T17:00:00	2	Temperatura media	27.7
92338	7	Sololá	704	Santa Lucía Utatlán 	7	Santa Rita 	5	Mayo	2023-07-05T00:00:00	2024-11-08T17:00:00	4	Temperatura máxima	28.2
92339	7	Sololá	704	Santa Lucía Utatlán 	7	Santa Rita 	5	Mayo	2023-07-05T00:00:00	2024-11-08T17:00:00	3	Temperatura mínima	27.5
92340	7	Sololá	704	Santa Lucía Utatlán 	7	Santa Rita 	5	Mayo	2023-07-05T00:00:00	2024-11-08T17:00:00	5	Humedad	30
92341	7	Sololá	704	Santa Lucía Utatlán 	7	Santa Rita 	5	Mayo	2023-07-05T00:00:00	2024-11-08T17:00:00	6	Velocidad del viento	12.9
92342	7	Sololá	704	Santa Lucía Utatlán 	7	Santa Rita 	5	Mayo	2023-07-05T00:00:00	2024-11-08T17:00:00	7	Dirección del viento	12.87
92343	7	Sololá	704	Santa Lucía Utatlán 	7	Santa Rita 	5	Mayo	2023-07-05T00:00:00	2024-11-08T17:00:00	1	Precipitación	0
92344	7	Sololá	704	Santa Lucía Utatlán 	7	Santa Rita 	5	Mayo	2023-07-05T00:00:00	2024-11-08T17:00:00	8	Radiación solar	614
92345	7	Sololá	704	Santa Lucía Utatlán 	7	Santa Rita 	5	Mayo	2023-07-05T00:00:00	2024-11-08T18:00:00	2	Temperatura media	26.7
92346	7	Sololá	704	Santa Lucía Utatlán 	7	Santa Rita 	5	Mayo	2023-07-05T00:00:00	2024-11-08T18:00:00	4	Temperatura máxima	27.8
92347	7	Sololá	704	Santa Lucía Utatlán 	7	Santa Rita 	5	Mayo	2023-07-05T00:00:00	2024-11-08T18:00:00	3	Temperatura mínima	26.7
92348	7	Sololá	704	Santa Lucía Utatlán 	7	Santa Rita 	5	Mayo	2023-07-05T00:00:00	2024-11-08T18:00:00	5	Humedad	43
92349	7	Sololá	704	Santa Lucía Utatlán 	7	Santa Rita 	5	Mayo	2023-07-05T00:00:00	2024-11-08T18:00:00	6	Velocidad del viento	9.7
92350	7	Sololá	704	Santa Lucía Utatlán 	7	Santa Rita 	5	Mayo	2023-07-05T00:00:00	2024-11-08T18:00:00	7	Dirección del viento	9.66
92351	7	Sololá	704	Santa Lucía Utatlán 	7	Santa Rita 	5	Mayo	2023-07-05T00:00:00	2024-11-08T18:00:00	1	Precipitación	0
92352	7	Sololá	704	Santa Lucía Utatlán 	7	Santa Rita 	5	Mayo	2023-07-05T00:00:00	2024-11-08T18:00:00	8	Radiación solar	366
92353	7	Sololá	704	Santa Lucía Utatlán 	7	Santa Rita 	5	Mayo	2023-07-05T00:00:00	2024-11-08T19:00:00	2	Temperatura media	24.9
92354	7	Sololá	704	Santa Lucía Utatlán 	7	Santa Rita 	5	Mayo	2023-07-05T00:00:00	2024-11-08T19:00:00	4	Temperatura máxima	26.7
92355	7	Sololá	704	Santa Lucía Utatlán 	7	Santa Rita 	5	Mayo	2023-07-05T00:00:00	2024-11-08T19:00:00	3	Temperatura mínima	24.9
92356	7	Sololá	704	Santa Lucía Utatlán 	7	Santa Rita 	5	Mayo	2023-07-05T00:00:00	2024-11-08T19:00:00	5	Humedad	47
92357	7	Sololá	704	Santa Lucía Utatlán 	7	Santa Rita 	5	Mayo	2023-07-05T00:00:00	2024-11-08T19:00:00	6	Velocidad del viento	4.8
92358	7	Sololá	704	Santa Lucía Utatlán 	7	Santa Rita 	5	Mayo	2023-07-05T00:00:00	2024-11-08T19:00:00	7	Dirección del viento	4.83
92359	7	Sololá	704	Santa Lucía Utatlán 	7	Santa Rita 	5	Mayo	2023-07-05T00:00:00	2024-11-08T19:00:00	1	Precipitación	0
92360	7	Sololá	704	Santa Lucía Utatlán 	7	Santa Rita 	5	Mayo	2023-07-05T00:00:00	2024-11-08T19:00:00	8	Radiación solar	0
92361	7	Sololá	704	Santa Lucía Utatlán 	7	Santa Rita 	5	Mayo	2023-07-05T00:00:00	2024-11-08T20:00:00	2	Temperatura media	22.1
92362	7	Sololá	704	Santa Lucía Utatlán 	7	Santa Rita 	5	Mayo	2023-07-05T00:00:00	2024-11-08T20:00:00	4	Temperatura máxima	24.9
92363	7	Sololá	704	Santa Lucía Utatlán 	7	Santa Rita 	5	Mayo	2023-07-05T00:00:00	2024-11-08T20:00:00	3	Temperatura mínima	22.1
92364	7	Sololá	704	Santa Lucía Utatlán 	7	Santa Rita 	5	Mayo	2023-07-05T00:00:00	2024-11-08T20:00:00	5	Humedad	61
92365	7	Sololá	704	Santa Lucía Utatlán 	7	Santa Rita 	5	Mayo	2023-07-05T00:00:00	2024-11-08T20:00:00	6	Velocidad del viento	3.2
92366	7	Sololá	704	Santa Lucía Utatlán 	7	Santa Rita 	5	Mayo	2023-07-05T00:00:00	2024-11-08T20:00:00	7	Dirección del viento	3.22
92367	7	Sololá	704	Santa Lucía Utatlán 	7	Santa Rita 	5	Mayo	2023-07-05T00:00:00	2024-11-08T20:00:00	1	Precipitación	0
92368	7	Sololá	704	Santa Lucía Utatlán 	7	Santa Rita 	5	Mayo	2023-07-05T00:00:00	2024-11-08T20:00:00	8	Radiación solar	0
92369	7	Sololá	704	Santa Lucía Utatlán 	7	Santa Rita 	5	Mayo	2023-07-05T00:00:00	2024-11-08T21:00:00	2	Temperatura media	19.9
92370	7	Sololá	704	Santa Lucía Utatlán 	7	Santa Rita 	5	Mayo	2023-07-05T00:00:00	2024-11-08T21:00:00	4	Temperatura máxima	22.1
92371	7	Sololá	704	Santa Lucía Utatlán 	7	Santa Rita 	5	Mayo	2023-07-05T00:00:00	2024-11-08T21:00:00	3	Temperatura mínima	19.8
92372	7	Sololá	704	Santa Lucía Utatlán 	7	Santa Rita 	5	Mayo	2023-07-05T00:00:00	2024-11-08T21:00:00	5	Humedad	70
92373	7	Sololá	704	Santa Lucía Utatlán 	7	Santa Rita 	5	Mayo	2023-07-05T00:00:00	2024-11-08T21:00:00	6	Velocidad del viento	3.2
92374	7	Sololá	704	Santa Lucía Utatlán 	7	Santa Rita 	5	Mayo	2023-07-05T00:00:00	2024-11-08T21:00:00	7	Dirección del viento	3.22
92375	7	Sololá	704	Santa Lucía Utatlán 	7	Santa Rita 	5	Mayo	2023-07-05T00:00:00	2024-11-08T21:00:00	1	Precipitación	0
92376	7	Sololá	704	Santa Lucía Utatlán 	7	Santa Rita 	5	Mayo	2023-07-05T00:00:00	2024-11-08T21:00:00	8	Radiación solar	0
92377	7	Sololá	704	Santa Lucía Utatlán 	7	Santa Rita 	5	Mayo	2023-07-05T00:00:00	2024-11-08T22:00:00	2	Temperatura media	21.8
92378	7	Sololá	704	Santa Lucía Utatlán 	7	Santa Rita 	5	Mayo	2023-07-05T00:00:00	2024-11-08T22:00:00	4	Temperatura máxima	21.8
92379	7	Sololá	704	Santa Lucía Utatlán 	7	Santa Rita 	5	Mayo	2023-07-05T00:00:00	2024-11-08T22:00:00	3	Temperatura mínima	19.8
92380	7	Sololá	704	Santa Lucía Utatlán 	7	Santa Rita 	5	Mayo	2023-07-05T00:00:00	2024-11-08T22:00:00	5	Humedad	56
92381	7	Sololá	704	Santa Lucía Utatlán 	7	Santa Rita 	5	Mayo	2023-07-05T00:00:00	2024-11-08T22:00:00	6	Velocidad del viento	4.8
92382	7	Sololá	704	Santa Lucía Utatlán 	7	Santa Rita 	5	Mayo	2023-07-05T00:00:00	2024-11-08T22:00:00	7	Dirección del viento	4.83
92383	7	Sololá	704	Santa Lucía Utatlán 	7	Santa Rita 	5	Mayo	2023-07-05T00:00:00	2024-11-08T22:00:00	1	Precipitación	0
92384	7	Sololá	704	Santa Lucía Utatlán 	7	Santa Rita 	5	Mayo	2023-07-05T00:00:00	2024-11-08T22:00:00	8	Radiación solar	0
92385	7	Sololá	704	Santa Lucía Utatlán 	7	Santa Rita 	5	Mayo	2023-07-05T00:00:00	2024-11-08T23:00:00	2	Temperatura media	23
92386	7	Sololá	704	Santa Lucía Utatlán 	7	Santa Rita 	5	Mayo	2023-07-05T00:00:00	2024-11-08T23:00:00	4	Temperatura máxima	23
92387	7	Sololá	704	Santa Lucía Utatlán 	7	Santa Rita 	5	Mayo	2023-07-05T00:00:00	2024-11-08T23:00:00	3	Temperatura mínima	21.7
92388	7	Sololá	704	Santa Lucía Utatlán 	7	Santa Rita 	5	Mayo	2023-07-05T00:00:00	2024-11-08T23:00:00	5	Humedad	36
92389	7	Sololá	704	Santa Lucía Utatlán 	7	Santa Rita 	5	Mayo	2023-07-05T00:00:00	2024-11-08T23:00:00	6	Velocidad del viento	6.4
92390	7	Sololá	704	Santa Lucía Utatlán 	7	Santa Rita 	5	Mayo	2023-07-05T00:00:00	2024-11-08T23:00:00	7	Dirección del viento	6.44
92391	7	Sololá	704	Santa Lucía Utatlán 	7	Santa Rita 	5	Mayo	2023-07-05T00:00:00	2024-11-08T23:00:00	1	Precipitación	0
92392	7	Sololá	704	Santa Lucía Utatlán 	7	Santa Rita 	5	Mayo	2023-07-05T00:00:00	2024-11-08T23:00:00	8	Radiación solar	0
92393	7	Sololá	704	Santa Lucía Utatlán 	7	Santa Rita 	5	Mayo	2023-08-05T00:00:00	2024-11-08T00:00:00	2	Temperatura media	19.9
92394	7	Sololá	704	Santa Lucía Utatlán 	7	Santa Rita 	5	Mayo	2023-08-05T00:00:00	2024-11-08T00:00:00	4	Temperatura máxima	23.1
92395	7	Sololá	704	Santa Lucía Utatlán 	7	Santa Rita 	5	Mayo	2023-08-05T00:00:00	2024-11-08T00:00:00	3	Temperatura mínima	19.7
92396	7	Sololá	704	Santa Lucía Utatlán 	7	Santa Rita 	5	Mayo	2023-08-05T00:00:00	2024-11-08T00:00:00	5	Humedad	40
92397	7	Sololá	704	Santa Lucía Utatlán 	7	Santa Rita 	5	Mayo	2023-08-05T00:00:00	2024-11-08T00:00:00	6	Velocidad del viento	3.2
92398	7	Sololá	704	Santa Lucía Utatlán 	7	Santa Rita 	5	Mayo	2023-08-05T00:00:00	2024-11-08T00:00:00	7	Dirección del viento	3.22
92399	7	Sololá	704	Santa Lucía Utatlán 	7	Santa Rita 	5	Mayo	2023-08-05T00:00:00	2024-11-08T00:00:00	1	Precipitación	0
92400	7	Sololá	704	Santa Lucía Utatlán 	7	Santa Rita 	5	Mayo	2023-08-05T00:00:00	2024-11-08T00:00:00	8	Radiación solar	0
92401	7	Sololá	704	Santa Lucía Utatlán 	7	Santa Rita 	5	Mayo	2023-08-05T00:00:00	2024-11-08T01:00:00	2	Temperatura media	21.1
92402	7	Sololá	704	Santa Lucía Utatlán 	7	Santa Rita 	5	Mayo	2023-08-05T00:00:00	2024-11-08T01:00:00	4	Temperatura máxima	21.7
92403	7	Sololá	704	Santa Lucía Utatlán 	7	Santa Rita 	5	Mayo	2023-08-05T00:00:00	2024-11-08T01:00:00	3	Temperatura mínima	19.7
92404	7	Sololá	704	Santa Lucía Utatlán 	7	Santa Rita 	5	Mayo	2023-08-05T00:00:00	2024-11-08T01:00:00	5	Humedad	36
92405	7	Sololá	704	Santa Lucía Utatlán 	7	Santa Rita 	5	Mayo	2023-08-05T00:00:00	2024-11-08T01:00:00	6	Velocidad del viento	3.2
92406	7	Sololá	704	Santa Lucía Utatlán 	7	Santa Rita 	5	Mayo	2023-08-05T00:00:00	2024-11-08T01:00:00	7	Dirección del viento	3.22
92407	7	Sololá	704	Santa Lucía Utatlán 	7	Santa Rita 	5	Mayo	2023-08-05T00:00:00	2024-11-08T01:00:00	1	Precipitación	0
92408	7	Sololá	704	Santa Lucía Utatlán 	7	Santa Rita 	5	Mayo	2023-08-05T00:00:00	2024-11-08T01:00:00	8	Radiación solar	0
92409	7	Sololá	704	Santa Lucía Utatlán 	7	Santa Rita 	5	Mayo	2023-08-05T00:00:00	2024-11-08T02:00:00	2	Temperatura media	18
92410	7	Sololá	704	Santa Lucía Utatlán 	7	Santa Rita 	5	Mayo	2023-08-05T00:00:00	2024-11-08T02:00:00	4	Temperatura máxima	21.1
92411	7	Sololá	704	Santa Lucía Utatlán 	7	Santa Rita 	5	Mayo	2023-08-05T00:00:00	2024-11-08T02:00:00	3	Temperatura mínima	17.9
92412	7	Sololá	704	Santa Lucía Utatlán 	7	Santa Rita 	5	Mayo	2023-08-05T00:00:00	2024-11-08T02:00:00	5	Humedad	45
92413	7	Sololá	704	Santa Lucía Utatlán 	7	Santa Rita 	5	Mayo	2023-08-05T00:00:00	2024-11-08T02:00:00	6	Velocidad del viento	1.6
92414	7	Sololá	704	Santa Lucía Utatlán 	7	Santa Rita 	5	Mayo	2023-08-05T00:00:00	2024-11-08T02:00:00	7	Dirección del viento	1.61
92415	7	Sololá	704	Santa Lucía Utatlán 	7	Santa Rita 	5	Mayo	2023-08-05T00:00:00	2024-11-08T02:00:00	1	Precipitación	0
92416	7	Sololá	704	Santa Lucía Utatlán 	7	Santa Rita 	5	Mayo	2023-08-05T00:00:00	2024-11-08T02:00:00	8	Radiación solar	0
92417	7	Sololá	704	Santa Lucía Utatlán 	7	Santa Rita 	5	Mayo	2023-08-05T00:00:00	2024-11-08T03:00:00	2	Temperatura media	17.6
92418	7	Sololá	704	Santa Lucía Utatlán 	7	Santa Rita 	5	Mayo	2023-08-05T00:00:00	2024-11-08T03:00:00	4	Temperatura máxima	18
92419	7	Sololá	704	Santa Lucía Utatlán 	7	Santa Rita 	5	Mayo	2023-08-05T00:00:00	2024-11-08T03:00:00	3	Temperatura mínima	17.5
92420	7	Sololá	704	Santa Lucía Utatlán 	7	Santa Rita 	5	Mayo	2023-08-05T00:00:00	2024-11-08T03:00:00	5	Humedad	47
92421	7	Sololá	704	Santa Lucía Utatlán 	7	Santa Rita 	5	Mayo	2023-08-05T00:00:00	2024-11-08T03:00:00	6	Velocidad del viento	3.2
92422	7	Sololá	704	Santa Lucía Utatlán 	7	Santa Rita 	5	Mayo	2023-08-05T00:00:00	2024-11-08T03:00:00	7	Dirección del viento	3.22
92423	7	Sololá	704	Santa Lucía Utatlán 	7	Santa Rita 	5	Mayo	2023-08-05T00:00:00	2024-11-08T03:00:00	1	Precipitación	0
92424	7	Sololá	704	Santa Lucía Utatlán 	7	Santa Rita 	5	Mayo	2023-08-05T00:00:00	2024-11-08T03:00:00	8	Radiación solar	0
92425	7	Sololá	704	Santa Lucía Utatlán 	7	Santa Rita 	5	Mayo	2023-08-05T00:00:00	2024-11-08T04:00:00	2	Temperatura media	17.9
92426	7	Sololá	704	Santa Lucía Utatlán 	7	Santa Rita 	5	Mayo	2023-08-05T00:00:00	2024-11-08T04:00:00	4	Temperatura máxima	18
92427	7	Sololá	704	Santa Lucía Utatlán 	7	Santa Rita 	5	Mayo	2023-08-05T00:00:00	2024-11-08T04:00:00	3	Temperatura mínima	17.6
92428	7	Sololá	704	Santa Lucía Utatlán 	7	Santa Rita 	5	Mayo	2023-08-05T00:00:00	2024-11-08T04:00:00	5	Humedad	47
92429	7	Sololá	704	Santa Lucía Utatlán 	7	Santa Rita 	5	Mayo	2023-08-05T00:00:00	2024-11-08T04:00:00	6	Velocidad del viento	3.2
92430	7	Sololá	704	Santa Lucía Utatlán 	7	Santa Rita 	5	Mayo	2023-08-05T00:00:00	2024-11-08T04:00:00	7	Dirección del viento	3.22
92431	7	Sololá	704	Santa Lucía Utatlán 	7	Santa Rita 	5	Mayo	2023-08-05T00:00:00	2024-11-08T04:00:00	1	Precipitación	0
92432	7	Sololá	704	Santa Lucía Utatlán 	7	Santa Rita 	5	Mayo	2023-08-05T00:00:00	2024-11-08T04:00:00	8	Radiación solar	0
92433	7	Sololá	704	Santa Lucía Utatlán 	7	Santa Rita 	5	Mayo	2023-08-05T00:00:00	2024-11-08T05:00:00	2	Temperatura media	17.6
92434	7	Sololá	704	Santa Lucía Utatlán 	7	Santa Rita 	5	Mayo	2023-08-05T00:00:00	2024-11-08T05:00:00	4	Temperatura máxima	17.9
92435	7	Sololá	704	Santa Lucía Utatlán 	7	Santa Rita 	5	Mayo	2023-08-05T00:00:00	2024-11-08T05:00:00	3	Temperatura mínima	17.4
92436	7	Sololá	704	Santa Lucía Utatlán 	7	Santa Rita 	5	Mayo	2023-08-05T00:00:00	2024-11-08T05:00:00	5	Humedad	49
92437	7	Sololá	704	Santa Lucía Utatlán 	7	Santa Rita 	5	Mayo	2023-08-05T00:00:00	2024-11-08T05:00:00	6	Velocidad del viento	1.6
92438	7	Sololá	704	Santa Lucía Utatlán 	7	Santa Rita 	5	Mayo	2023-08-05T00:00:00	2024-11-08T05:00:00	7	Dirección del viento	1.61
92439	7	Sololá	704	Santa Lucía Utatlán 	7	Santa Rita 	5	Mayo	2023-08-05T00:00:00	2024-11-08T05:00:00	1	Precipitación	0
92440	7	Sololá	704	Santa Lucía Utatlán 	7	Santa Rita 	5	Mayo	2023-08-05T00:00:00	2024-11-08T05:00:00	8	Radiación solar	0
92441	7	Sololá	704	Santa Lucía Utatlán 	7	Santa Rita 	5	Mayo	2023-08-05T00:00:00	2024-11-08T06:00:00	2	Temperatura media	17.4
92442	7	Sololá	704	Santa Lucía Utatlán 	7	Santa Rita 	5	Mayo	2023-08-05T00:00:00	2024-11-08T06:00:00	4	Temperatura máxima	17.6
92443	7	Sololá	704	Santa Lucía Utatlán 	7	Santa Rita 	5	Mayo	2023-08-05T00:00:00	2024-11-08T06:00:00	3	Temperatura mínima	17.2
92444	7	Sololá	704	Santa Lucía Utatlán 	7	Santa Rita 	5	Mayo	2023-08-05T00:00:00	2024-11-08T06:00:00	5	Humedad	51
92445	7	Sololá	704	Santa Lucía Utatlán 	7	Santa Rita 	5	Mayo	2023-08-05T00:00:00	2024-11-08T06:00:00	6	Velocidad del viento	3.2
92446	7	Sololá	704	Santa Lucía Utatlán 	7	Santa Rita 	5	Mayo	2023-08-05T00:00:00	2024-11-08T06:00:00	7	Dirección del viento	3.22
92447	7	Sololá	704	Santa Lucía Utatlán 	7	Santa Rita 	5	Mayo	2023-08-05T00:00:00	2024-11-08T06:00:00	1	Precipitación	0
92448	7	Sololá	704	Santa Lucía Utatlán 	7	Santa Rita 	5	Mayo	2023-08-05T00:00:00	2024-11-08T06:00:00	8	Radiación solar	0
92449	7	Sololá	704	Santa Lucía Utatlán 	7	Santa Rita 	5	Mayo	2023-08-05T00:00:00	2024-11-08T07:00:00	2	Temperatura media	17.2
92450	7	Sololá	704	Santa Lucía Utatlán 	7	Santa Rita 	5	Mayo	2023-08-05T00:00:00	2024-11-08T07:00:00	4	Temperatura máxima	17.4
92451	7	Sololá	704	Santa Lucía Utatlán 	7	Santa Rita 	5	Mayo	2023-08-05T00:00:00	2024-11-08T07:00:00	3	Temperatura mínima	17
92452	7	Sololá	704	Santa Lucía Utatlán 	7	Santa Rita 	5	Mayo	2023-08-05T00:00:00	2024-11-08T07:00:00	5	Humedad	49
92453	7	Sololá	704	Santa Lucía Utatlán 	7	Santa Rita 	5	Mayo	2023-08-05T00:00:00	2024-11-08T07:00:00	6	Velocidad del viento	3.2
92454	7	Sololá	704	Santa Lucía Utatlán 	7	Santa Rita 	5	Mayo	2023-08-05T00:00:00	2024-11-08T07:00:00	7	Dirección del viento	3.22
92455	7	Sololá	704	Santa Lucía Utatlán 	7	Santa Rita 	5	Mayo	2023-08-05T00:00:00	2024-11-08T07:00:00	1	Precipitación	0
92456	7	Sololá	704	Santa Lucía Utatlán 	7	Santa Rita 	5	Mayo	2023-08-05T00:00:00	2024-11-08T07:00:00	8	Radiación solar	6
92457	7	Sololá	704	Santa Lucía Utatlán 	7	Santa Rita 	5	Mayo	2023-08-05T00:00:00	2024-11-08T08:00:00	2	Temperatura media	20.1
92458	7	Sololá	704	Santa Lucía Utatlán 	7	Santa Rita 	5	Mayo	2023-08-05T00:00:00	2024-11-08T08:00:00	4	Temperatura máxima	20.1
92459	7	Sololá	704	Santa Lucía Utatlán 	7	Santa Rita 	5	Mayo	2023-08-05T00:00:00	2024-11-08T08:00:00	3	Temperatura mínima	17.3
92460	7	Sololá	704	Santa Lucía Utatlán 	7	Santa Rita 	5	Mayo	2023-08-05T00:00:00	2024-11-08T08:00:00	5	Humedad	49
92461	7	Sololá	704	Santa Lucía Utatlán 	7	Santa Rita 	5	Mayo	2023-08-05T00:00:00	2024-11-08T08:00:00	6	Velocidad del viento	1.6
92462	7	Sololá	704	Santa Lucía Utatlán 	7	Santa Rita 	5	Mayo	2023-08-05T00:00:00	2024-11-08T08:00:00	7	Dirección del viento	1.61
92463	7	Sololá	704	Santa Lucía Utatlán 	7	Santa Rita 	5	Mayo	2023-08-05T00:00:00	2024-11-08T08:00:00	1	Precipitación	0
92464	7	Sololá	704	Santa Lucía Utatlán 	7	Santa Rita 	5	Mayo	2023-08-05T00:00:00	2024-11-08T08:00:00	8	Radiación solar	124
92465	7	Sololá	704	Santa Lucía Utatlán 	7	Santa Rita 	5	Mayo	2023-08-05T00:00:00	2024-11-08T09:00:00	2	Temperatura media	22.8
92466	7	Sololá	704	Santa Lucía Utatlán 	7	Santa Rita 	5	Mayo	2023-08-05T00:00:00	2024-11-08T09:00:00	4	Temperatura máxima	22.8
92467	7	Sololá	704	Santa Lucía Utatlán 	7	Santa Rita 	5	Mayo	2023-08-05T00:00:00	2024-11-08T09:00:00	3	Temperatura mínima	20.1
92468	7	Sololá	704	Santa Lucía Utatlán 	7	Santa Rita 	5	Mayo	2023-08-05T00:00:00	2024-11-08T09:00:00	5	Humedad	42
92469	7	Sololá	704	Santa Lucía Utatlán 	7	Santa Rita 	5	Mayo	2023-08-05T00:00:00	2024-11-08T09:00:00	6	Velocidad del viento	3.2
92470	7	Sololá	704	Santa Lucía Utatlán 	7	Santa Rita 	5	Mayo	2023-08-05T00:00:00	2024-11-08T09:00:00	7	Dirección del viento	3.22
92471	7	Sololá	704	Santa Lucía Utatlán 	7	Santa Rita 	5	Mayo	2023-08-05T00:00:00	2024-11-08T09:00:00	1	Precipitación	0
92472	7	Sololá	704	Santa Lucía Utatlán 	7	Santa Rita 	5	Mayo	2023-08-05T00:00:00	2024-11-08T09:00:00	8	Radiación solar	413
92473	7	Sololá	704	Santa Lucía Utatlán 	7	Santa Rita 	5	Mayo	2023-08-05T00:00:00	2024-11-08T10:00:00	2	Temperatura media	26.3
92474	7	Sololá	704	Santa Lucía Utatlán 	7	Santa Rita 	5	Mayo	2023-08-05T00:00:00	2024-11-08T10:00:00	4	Temperatura máxima	26.3
92475	7	Sololá	704	Santa Lucía Utatlán 	7	Santa Rita 	5	Mayo	2023-08-05T00:00:00	2024-11-08T10:00:00	3	Temperatura mínima	22.8
92476	7	Sololá	704	Santa Lucía Utatlán 	7	Santa Rita 	5	Mayo	2023-08-05T00:00:00	2024-11-08T10:00:00	5	Humedad	33
92477	7	Sololá	704	Santa Lucía Utatlán 	7	Santa Rita 	5	Mayo	2023-08-05T00:00:00	2024-11-08T10:00:00	6	Velocidad del viento	4.8
92478	7	Sololá	704	Santa Lucía Utatlán 	7	Santa Rita 	5	Mayo	2023-08-05T00:00:00	2024-11-08T10:00:00	7	Dirección del viento	4.83
92479	7	Sololá	704	Santa Lucía Utatlán 	7	Santa Rita 	5	Mayo	2023-08-05T00:00:00	2024-11-08T10:00:00	1	Precipitación	0
92480	7	Sololá	704	Santa Lucía Utatlán 	7	Santa Rita 	5	Mayo	2023-08-05T00:00:00	2024-11-08T10:00:00	8	Radiación solar	629
92481	7	Sololá	704	Santa Lucía Utatlán 	7	Santa Rita 	5	Mayo	2023-08-05T00:00:00	2024-11-08T11:00:00	2	Temperatura media	26.7
92482	7	Sololá	704	Santa Lucía Utatlán 	7	Santa Rita 	5	Mayo	2023-08-05T00:00:00	2024-11-08T11:00:00	4	Temperatura máxima	26.7
92483	7	Sololá	704	Santa Lucía Utatlán 	7	Santa Rita 	5	Mayo	2023-08-05T00:00:00	2024-11-08T11:00:00	3	Temperatura mínima	26.1
92484	7	Sololá	704	Santa Lucía Utatlán 	7	Santa Rita 	5	Mayo	2023-08-05T00:00:00	2024-11-08T11:00:00	5	Humedad	32
92485	7	Sololá	704	Santa Lucía Utatlán 	7	Santa Rita 	5	Mayo	2023-08-05T00:00:00	2024-11-08T11:00:00	6	Velocidad del viento	11.3
92486	7	Sololá	704	Santa Lucía Utatlán 	7	Santa Rita 	5	Mayo	2023-08-05T00:00:00	2024-11-08T11:00:00	7	Dirección del viento	11.27
92487	7	Sololá	704	Santa Lucía Utatlán 	7	Santa Rita 	5	Mayo	2023-08-05T00:00:00	2024-11-08T11:00:00	1	Precipitación	0
92488	7	Sololá	704	Santa Lucía Utatlán 	7	Santa Rita 	5	Mayo	2023-08-05T00:00:00	2024-11-08T11:00:00	8	Radiación solar	847
92489	7	Sololá	704	Santa Lucía Utatlán 	7	Santa Rita 	5	Mayo	2023-08-05T00:00:00	2024-11-08T12:00:00	2	Temperatura media	26.7
92490	7	Sololá	704	Santa Lucía Utatlán 	7	Santa Rita 	5	Mayo	2023-08-05T00:00:00	2024-11-08T12:00:00	4	Temperatura máxima	27.2
92491	7	Sololá	704	Santa Lucía Utatlán 	7	Santa Rita 	5	Mayo	2023-08-05T00:00:00	2024-11-08T12:00:00	3	Temperatura mínima	26.4
92492	7	Sololá	704	Santa Lucía Utatlán 	7	Santa Rita 	5	Mayo	2023-08-05T00:00:00	2024-11-08T12:00:00	5	Humedad	30
92493	7	Sololá	704	Santa Lucía Utatlán 	7	Santa Rita 	5	Mayo	2023-08-05T00:00:00	2024-11-08T12:00:00	6	Velocidad del viento	11.3
92494	7	Sololá	704	Santa Lucía Utatlán 	7	Santa Rita 	5	Mayo	2023-08-05T00:00:00	2024-11-08T12:00:00	7	Dirección del viento	11.27
92495	7	Sololá	704	Santa Lucía Utatlán 	7	Santa Rita 	5	Mayo	2023-08-05T00:00:00	2024-11-08T12:00:00	1	Precipitación	0
92496	7	Sololá	704	Santa Lucía Utatlán 	7	Santa Rita 	5	Mayo	2023-08-05T00:00:00	2024-11-08T12:00:00	8	Radiación solar	969
92497	7	Sololá	704	Santa Lucía Utatlán 	7	Santa Rita 	5	Mayo	2023-08-05T00:00:00	2024-11-08T13:00:00	2	Temperatura media	27.7
92498	7	Sololá	704	Santa Lucía Utatlán 	7	Santa Rita 	5	Mayo	2023-08-05T00:00:00	2024-11-08T13:00:00	4	Temperatura máxima	27.8
92499	7	Sololá	704	Santa Lucía Utatlán 	7	Santa Rita 	5	Mayo	2023-08-05T00:00:00	2024-11-08T13:00:00	3	Temperatura mínima	26.7
92500	7	Sololá	704	Santa Lucía Utatlán 	7	Santa Rita 	5	Mayo	2023-08-05T00:00:00	2024-11-08T13:00:00	5	Humedad	29
92501	7	Sololá	704	Santa Lucía Utatlán 	7	Santa Rita 	5	Mayo	2023-08-05T00:00:00	2024-11-08T13:00:00	6	Velocidad del viento	9.7
92502	7	Sololá	704	Santa Lucía Utatlán 	7	Santa Rita 	5	Mayo	2023-08-05T00:00:00	2024-11-08T13:00:00	7	Dirección del viento	9.66
92503	7	Sololá	704	Santa Lucía Utatlán 	7	Santa Rita 	5	Mayo	2023-08-05T00:00:00	2024-11-08T13:00:00	1	Precipitación	0
92504	7	Sololá	704	Santa Lucía Utatlán 	7	Santa Rita 	5	Mayo	2023-08-05T00:00:00	2024-11-08T13:00:00	8	Radiación solar	1033
92505	7	Sololá	704	Santa Lucía Utatlán 	7	Santa Rita 	5	Mayo	2023-08-05T00:00:00	2024-11-08T14:00:00	2	Temperatura media	27.8
92506	7	Sololá	704	Santa Lucía Utatlán 	7	Santa Rita 	5	Mayo	2023-08-05T00:00:00	2024-11-08T14:00:00	4	Temperatura máxima	27.8
92507	7	Sololá	704	Santa Lucía Utatlán 	7	Santa Rita 	5	Mayo	2023-08-05T00:00:00	2024-11-08T14:00:00	3	Temperatura mínima	27.2
92508	7	Sololá	704	Santa Lucía Utatlán 	7	Santa Rita 	5	Mayo	2023-08-05T00:00:00	2024-11-08T14:00:00	5	Humedad	33
92509	7	Sololá	704	Santa Lucía Utatlán 	7	Santa Rita 	5	Mayo	2023-08-05T00:00:00	2024-11-08T14:00:00	6	Velocidad del viento	12.9
92510	7	Sololá	704	Santa Lucía Utatlán 	7	Santa Rita 	5	Mayo	2023-08-05T00:00:00	2024-11-08T14:00:00	7	Dirección del viento	12.87
92511	7	Sololá	704	Santa Lucía Utatlán 	7	Santa Rita 	5	Mayo	2023-08-05T00:00:00	2024-11-08T14:00:00	1	Precipitación	0
92512	7	Sololá	704	Santa Lucía Utatlán 	7	Santa Rita 	5	Mayo	2023-08-05T00:00:00	2024-11-08T14:00:00	8	Radiación solar	1010
92513	7	Sololá	704	Santa Lucía Utatlán 	7	Santa Rita 	5	Mayo	2023-08-05T00:00:00	2024-11-08T15:00:00	2	Temperatura media	27.7
92514	7	Sololá	704	Santa Lucía Utatlán 	7	Santa Rita 	5	Mayo	2023-08-05T00:00:00	2024-11-08T15:00:00	4	Temperatura máxima	28
92515	7	Sololá	704	Santa Lucía Utatlán 	7	Santa Rita 	5	Mayo	2023-08-05T00:00:00	2024-11-08T15:00:00	3	Temperatura mínima	27.3
92516	7	Sololá	704	Santa Lucía Utatlán 	7	Santa Rita 	5	Mayo	2023-08-05T00:00:00	2024-11-08T15:00:00	5	Humedad	42
92517	7	Sololá	704	Santa Lucía Utatlán 	7	Santa Rita 	5	Mayo	2023-08-05T00:00:00	2024-11-08T15:00:00	6	Velocidad del viento	12.9
92518	7	Sololá	704	Santa Lucía Utatlán 	7	Santa Rita 	5	Mayo	2023-08-05T00:00:00	2024-11-08T15:00:00	7	Dirección del viento	12.87
92519	7	Sololá	704	Santa Lucía Utatlán 	7	Santa Rita 	5	Mayo	2023-08-05T00:00:00	2024-11-08T15:00:00	1	Precipitación	0
92520	7	Sololá	704	Santa Lucía Utatlán 	7	Santa Rita 	5	Mayo	2023-08-05T00:00:00	2024-11-08T15:00:00	8	Radiación solar	931
92521	7	Sololá	704	Santa Lucía Utatlán 	7	Santa Rita 	5	Mayo	2023-08-05T00:00:00	2024-11-08T16:00:00	2	Temperatura media	27.1
92522	7	Sololá	704	Santa Lucía Utatlán 	7	Santa Rita 	5	Mayo	2023-08-05T00:00:00	2024-11-08T16:00:00	4	Temperatura máxima	28.1
92523	7	Sololá	704	Santa Lucía Utatlán 	7	Santa Rita 	5	Mayo	2023-08-05T00:00:00	2024-11-08T16:00:00	3	Temperatura mínima	27.1
92524	7	Sololá	704	Santa Lucía Utatlán 	7	Santa Rita 	5	Mayo	2023-08-05T00:00:00	2024-11-08T16:00:00	5	Humedad	45
92525	7	Sololá	704	Santa Lucía Utatlán 	7	Santa Rita 	5	Mayo	2023-08-05T00:00:00	2024-11-08T16:00:00	6	Velocidad del viento	12.9
92526	7	Sololá	704	Santa Lucía Utatlán 	7	Santa Rita 	5	Mayo	2023-08-05T00:00:00	2024-11-08T16:00:00	7	Dirección del viento	12.87
92527	7	Sololá	704	Santa Lucía Utatlán 	7	Santa Rita 	5	Mayo	2023-08-05T00:00:00	2024-11-08T16:00:00	1	Precipitación	0
92528	7	Sololá	704	Santa Lucía Utatlán 	7	Santa Rita 	5	Mayo	2023-08-05T00:00:00	2024-11-08T16:00:00	8	Radiación solar	797
92529	7	Sololá	704	Santa Lucía Utatlán 	7	Santa Rita 	5	Mayo	2023-08-05T00:00:00	2024-11-08T17:00:00	2	Temperatura media	26.2
92530	7	Sololá	704	Santa Lucía Utatlán 	7	Santa Rita 	5	Mayo	2023-08-05T00:00:00	2024-11-08T17:00:00	4	Temperatura máxima	27.2
92531	7	Sololá	704	Santa Lucía Utatlán 	7	Santa Rita 	5	Mayo	2023-08-05T00:00:00	2024-11-08T17:00:00	3	Temperatura mínima	26.2
92532	7	Sololá	704	Santa Lucía Utatlán 	7	Santa Rita 	5	Mayo	2023-08-05T00:00:00	2024-11-08T17:00:00	5	Humedad	62
92533	7	Sololá	704	Santa Lucía Utatlán 	7	Santa Rita 	5	Mayo	2023-08-05T00:00:00	2024-11-08T17:00:00	6	Velocidad del viento	11.3
92534	7	Sololá	704	Santa Lucía Utatlán 	7	Santa Rita 	5	Mayo	2023-08-05T00:00:00	2024-11-08T17:00:00	7	Dirección del viento	11.27
92535	7	Sololá	704	Santa Lucía Utatlán 	7	Santa Rita 	5	Mayo	2023-08-05T00:00:00	2024-11-08T17:00:00	1	Precipitación	0
92536	7	Sololá	704	Santa Lucía Utatlán 	7	Santa Rita 	5	Mayo	2023-08-05T00:00:00	2024-11-08T17:00:00	8	Radiación solar	571
92537	7	Sololá	704	Santa Lucía Utatlán 	7	Santa Rita 	5	Mayo	2023-08-05T00:00:00	2024-11-08T18:00:00	2	Temperatura media	23.4
92538	7	Sololá	704	Santa Lucía Utatlán 	7	Santa Rita 	5	Mayo	2023-08-05T00:00:00	2024-11-08T18:00:00	4	Temperatura máxima	26.2
92539	7	Sololá	704	Santa Lucía Utatlán 	7	Santa Rita 	5	Mayo	2023-08-05T00:00:00	2024-11-08T18:00:00	3	Temperatura mínima	23.4
92540	7	Sololá	704	Santa Lucía Utatlán 	7	Santa Rita 	5	Mayo	2023-08-05T00:00:00	2024-11-08T18:00:00	5	Humedad	80
92541	7	Sololá	704	Santa Lucía Utatlán 	7	Santa Rita 	5	Mayo	2023-08-05T00:00:00	2024-11-08T18:00:00	6	Velocidad del viento	8
92542	7	Sololá	704	Santa Lucía Utatlán 	7	Santa Rita 	5	Mayo	2023-08-05T00:00:00	2024-11-08T18:00:00	7	Dirección del viento	8.05
92543	7	Sololá	704	Santa Lucía Utatlán 	7	Santa Rita 	5	Mayo	2023-08-05T00:00:00	2024-11-08T18:00:00	1	Precipitación	0
92544	7	Sololá	704	Santa Lucía Utatlán 	7	Santa Rita 	5	Mayo	2023-08-05T00:00:00	2024-11-08T18:00:00	8	Radiación solar	148
92545	7	Sololá	704	Santa Lucía Utatlán 	7	Santa Rita 	5	Mayo	2023-08-05T00:00:00	2024-11-08T19:00:00	2	Temperatura media	22.1
92546	7	Sololá	704	Santa Lucía Utatlán 	7	Santa Rita 	5	Mayo	2023-08-05T00:00:00	2024-11-08T19:00:00	4	Temperatura máxima	23.4
92547	7	Sololá	704	Santa Lucía Utatlán 	7	Santa Rita 	5	Mayo	2023-08-05T00:00:00	2024-11-08T19:00:00	3	Temperatura mínima	22.1
92548	7	Sololá	704	Santa Lucía Utatlán 	7	Santa Rita 	5	Mayo	2023-08-05T00:00:00	2024-11-08T19:00:00	5	Humedad	87
92549	7	Sololá	704	Santa Lucía Utatlán 	7	Santa Rita 	5	Mayo	2023-08-05T00:00:00	2024-11-08T19:00:00	6	Velocidad del viento	4.8
92550	7	Sololá	704	Santa Lucía Utatlán 	7	Santa Rita 	5	Mayo	2023-08-05T00:00:00	2024-11-08T19:00:00	7	Dirección del viento	4.83
92551	7	Sololá	704	Santa Lucía Utatlán 	7	Santa Rita 	5	Mayo	2023-08-05T00:00:00	2024-11-08T19:00:00	1	Precipitación	0
92552	7	Sololá	704	Santa Lucía Utatlán 	7	Santa Rita 	5	Mayo	2023-08-05T00:00:00	2024-11-08T19:00:00	8	Radiación solar	0
92553	7	Sololá	704	Santa Lucía Utatlán 	7	Santa Rita 	5	Mayo	2023-08-05T00:00:00	2024-11-08T20:00:00	2	Temperatura media	22.4
92554	7	Sololá	704	Santa Lucía Utatlán 	7	Santa Rita 	5	Mayo	2023-08-05T00:00:00	2024-11-08T20:00:00	4	Temperatura máxima	22.6
92555	7	Sololá	704	Santa Lucía Utatlán 	7	Santa Rita 	5	Mayo	2023-08-05T00:00:00	2024-11-08T20:00:00	3	Temperatura mínima	22
92556	7	Sololá	704	Santa Lucía Utatlán 	7	Santa Rita 	5	Mayo	2023-08-05T00:00:00	2024-11-08T20:00:00	5	Humedad	78
92557	7	Sololá	704	Santa Lucía Utatlán 	7	Santa Rita 	5	Mayo	2023-08-05T00:00:00	2024-11-08T20:00:00	6	Velocidad del viento	4.8
92558	7	Sololá	704	Santa Lucía Utatlán 	7	Santa Rita 	5	Mayo	2023-08-05T00:00:00	2024-11-08T20:00:00	7	Dirección del viento	4.83
92559	7	Sololá	704	Santa Lucía Utatlán 	7	Santa Rita 	5	Mayo	2023-08-05T00:00:00	2024-11-08T20:00:00	1	Precipitación	0
92560	7	Sololá	704	Santa Lucía Utatlán 	7	Santa Rita 	5	Mayo	2023-08-05T00:00:00	2024-11-08T20:00:00	8	Radiación solar	0
92561	7	Sololá	704	Santa Lucía Utatlán 	7	Santa Rita 	5	Mayo	2023-08-05T00:00:00	2024-11-08T21:00:00	2	Temperatura media	21.9
92562	7	Sololá	704	Santa Lucía Utatlán 	7	Santa Rita 	5	Mayo	2023-08-05T00:00:00	2024-11-08T21:00:00	4	Temperatura máxima	22.4
92563	7	Sololá	704	Santa Lucía Utatlán 	7	Santa Rita 	5	Mayo	2023-08-05T00:00:00	2024-11-08T21:00:00	3	Temperatura mínima	21.9
92564	7	Sololá	704	Santa Lucía Utatlán 	7	Santa Rita 	5	Mayo	2023-08-05T00:00:00	2024-11-08T21:00:00	5	Humedad	73
92565	7	Sololá	704	Santa Lucía Utatlán 	7	Santa Rita 	5	Mayo	2023-08-05T00:00:00	2024-11-08T21:00:00	6	Velocidad del viento	3.2
92566	7	Sololá	704	Santa Lucía Utatlán 	7	Santa Rita 	5	Mayo	2023-08-05T00:00:00	2024-11-08T21:00:00	7	Dirección del viento	3.22
92567	7	Sololá	704	Santa Lucía Utatlán 	7	Santa Rita 	5	Mayo	2023-08-05T00:00:00	2024-11-08T21:00:00	1	Precipitación	0
92568	7	Sololá	704	Santa Lucía Utatlán 	7	Santa Rita 	5	Mayo	2023-08-05T00:00:00	2024-11-08T21:00:00	8	Radiación solar	0
92569	7	Sololá	704	Santa Lucía Utatlán 	7	Santa Rita 	5	Mayo	2023-08-05T00:00:00	2024-11-08T22:00:00	2	Temperatura media	20.3
92570	7	Sololá	704	Santa Lucía Utatlán 	7	Santa Rita 	5	Mayo	2023-08-05T00:00:00	2024-11-08T22:00:00	4	Temperatura máxima	21.9
92571	7	Sololá	704	Santa Lucía Utatlán 	7	Santa Rita 	5	Mayo	2023-08-05T00:00:00	2024-11-08T22:00:00	3	Temperatura mínima	20.3
92572	7	Sololá	704	Santa Lucía Utatlán 	7	Santa Rita 	5	Mayo	2023-08-05T00:00:00	2024-11-08T22:00:00	5	Humedad	77
92573	7	Sololá	704	Santa Lucía Utatlán 	7	Santa Rita 	5	Mayo	2023-08-05T00:00:00	2024-11-08T22:00:00	6	Velocidad del viento	1.6
92574	7	Sololá	704	Santa Lucía Utatlán 	7	Santa Rita 	5	Mayo	2023-08-05T00:00:00	2024-11-08T22:00:00	7	Dirección del viento	1.61
92575	7	Sololá	704	Santa Lucía Utatlán 	7	Santa Rita 	5	Mayo	2023-08-05T00:00:00	2024-11-08T22:00:00	1	Precipitación	0
92576	7	Sololá	704	Santa Lucía Utatlán 	7	Santa Rita 	5	Mayo	2023-08-05T00:00:00	2024-11-08T22:00:00	8	Radiación solar	0
92577	7	Sololá	704	Santa Lucía Utatlán 	7	Santa Rita 	5	Mayo	2023-08-05T00:00:00	2024-11-08T23:00:00	2	Temperatura media	19.6
92578	7	Sololá	704	Santa Lucía Utatlán 	7	Santa Rita 	5	Mayo	2023-08-05T00:00:00	2024-11-08T23:00:00	4	Temperatura máxima	20.4
92579	7	Sololá	704	Santa Lucía Utatlán 	7	Santa Rita 	5	Mayo	2023-08-05T00:00:00	2024-11-08T23:00:00	3	Temperatura mínima	19.6
92580	7	Sololá	704	Santa Lucía Utatlán 	7	Santa Rita 	5	Mayo	2023-08-05T00:00:00	2024-11-08T23:00:00	5	Humedad	81
92581	7	Sololá	704	Santa Lucía Utatlán 	7	Santa Rita 	5	Mayo	2023-08-05T00:00:00	2024-11-08T23:00:00	6	Velocidad del viento	1.6
92582	7	Sololá	704	Santa Lucía Utatlán 	7	Santa Rita 	5	Mayo	2023-08-05T00:00:00	2024-11-08T23:00:00	7	Dirección del viento	1.61
92583	7	Sololá	704	Santa Lucía Utatlán 	7	Santa Rita 	5	Mayo	2023-08-05T00:00:00	2024-11-08T23:00:00	1	Precipitación	0
92584	7	Sololá	704	Santa Lucía Utatlán 	7	Santa Rita 	5	Mayo	2023-08-05T00:00:00	2024-11-08T23:00:00	8	Radiación solar	0
92585	7	Sololá	704	Santa Lucía Utatlán 	7	Santa Rita 	5	Mayo	2023-09-05T00:00:00	2024-11-08T00:00:00	2	Temperatura media	18.4
92586	7	Sololá	704	Santa Lucía Utatlán 	7	Santa Rita 	5	Mayo	2023-09-05T00:00:00	2024-11-08T00:00:00	4	Temperatura máxima	19.8
92587	7	Sololá	704	Santa Lucía Utatlán 	7	Santa Rita 	5	Mayo	2023-09-05T00:00:00	2024-11-08T00:00:00	3	Temperatura mínima	18.4
92588	7	Sololá	704	Santa Lucía Utatlán 	7	Santa Rita 	5	Mayo	2023-09-05T00:00:00	2024-11-08T00:00:00	5	Humedad	74
92589	7	Sololá	704	Santa Lucía Utatlán 	7	Santa Rita 	5	Mayo	2023-09-05T00:00:00	2024-11-08T00:00:00	6	Velocidad del viento	1.6
92590	7	Sololá	704	Santa Lucía Utatlán 	7	Santa Rita 	5	Mayo	2023-09-05T00:00:00	2024-11-08T00:00:00	7	Dirección del viento	1.61
92591	7	Sololá	704	Santa Lucía Utatlán 	7	Santa Rita 	5	Mayo	2023-09-05T00:00:00	2024-11-08T00:00:00	1	Precipitación	0
92592	7	Sololá	704	Santa Lucía Utatlán 	7	Santa Rita 	5	Mayo	2023-09-05T00:00:00	2024-11-08T00:00:00	8	Radiación solar	0
92593	7	Sololá	704	Santa Lucía Utatlán 	7	Santa Rita 	5	Mayo	2023-09-05T00:00:00	2024-11-08T01:00:00	2	Temperatura media	17.7
92594	7	Sololá	704	Santa Lucía Utatlán 	7	Santa Rita 	5	Mayo	2023-09-05T00:00:00	2024-11-08T01:00:00	4	Temperatura máxima	18.4
92595	7	Sololá	704	Santa Lucía Utatlán 	7	Santa Rita 	5	Mayo	2023-09-05T00:00:00	2024-11-08T01:00:00	3	Temperatura mínima	17.7
92596	7	Sololá	704	Santa Lucía Utatlán 	7	Santa Rita 	5	Mayo	2023-09-05T00:00:00	2024-11-08T01:00:00	5	Humedad	72
92597	7	Sololá	704	Santa Lucía Utatlán 	7	Santa Rita 	5	Mayo	2023-09-05T00:00:00	2024-11-08T01:00:00	6	Velocidad del viento	1.6
92598	7	Sololá	704	Santa Lucía Utatlán 	7	Santa Rita 	5	Mayo	2023-09-05T00:00:00	2024-11-08T01:00:00	7	Dirección del viento	1.61
92599	7	Sololá	704	Santa Lucía Utatlán 	7	Santa Rita 	5	Mayo	2023-09-05T00:00:00	2024-11-08T01:00:00	1	Precipitación	0
92600	7	Sololá	704	Santa Lucía Utatlán 	7	Santa Rita 	5	Mayo	2023-09-05T00:00:00	2024-11-08T01:00:00	8	Radiación solar	0
92601	7	Sololá	704	Santa Lucía Utatlán 	7	Santa Rita 	5	Mayo	2023-09-05T00:00:00	2024-11-08T02:00:00	2	Temperatura media	17.6
92602	7	Sololá	704	Santa Lucía Utatlán 	7	Santa Rita 	5	Mayo	2023-09-05T00:00:00	2024-11-08T02:00:00	4	Temperatura máxima	17.9
92603	7	Sololá	704	Santa Lucía Utatlán 	7	Santa Rita 	5	Mayo	2023-09-05T00:00:00	2024-11-08T02:00:00	3	Temperatura mínima	17.4
92604	7	Sololá	704	Santa Lucía Utatlán 	7	Santa Rita 	5	Mayo	2023-09-05T00:00:00	2024-11-08T02:00:00	5	Humedad	60
92605	7	Sololá	704	Santa Lucía Utatlán 	7	Santa Rita 	5	Mayo	2023-09-05T00:00:00	2024-11-08T02:00:00	6	Velocidad del viento	1.6
92606	7	Sololá	704	Santa Lucía Utatlán 	7	Santa Rita 	5	Mayo	2023-09-05T00:00:00	2024-11-08T02:00:00	7	Dirección del viento	1.61
92607	7	Sololá	704	Santa Lucía Utatlán 	7	Santa Rita 	5	Mayo	2023-09-05T00:00:00	2024-11-08T02:00:00	1	Precipitación	0
92608	7	Sololá	704	Santa Lucía Utatlán 	7	Santa Rita 	5	Mayo	2023-09-05T00:00:00	2024-11-08T02:00:00	8	Radiación solar	0
92609	7	Sololá	704	Santa Lucía Utatlán 	7	Santa Rita 	5	Mayo	2023-09-05T00:00:00	2024-11-08T03:00:00	2	Temperatura media	17.5
92610	7	Sololá	704	Santa Lucía Utatlán 	7	Santa Rita 	5	Mayo	2023-09-05T00:00:00	2024-11-08T03:00:00	4	Temperatura máxima	17.6
92611	7	Sololá	704	Santa Lucía Utatlán 	7	Santa Rita 	5	Mayo	2023-09-05T00:00:00	2024-11-08T03:00:00	3	Temperatura mínima	17.4
92612	7	Sololá	704	Santa Lucía Utatlán 	7	Santa Rita 	5	Mayo	2023-09-05T00:00:00	2024-11-08T03:00:00	5	Humedad	54
92613	7	Sololá	704	Santa Lucía Utatlán 	7	Santa Rita 	5	Mayo	2023-09-05T00:00:00	2024-11-08T03:00:00	6	Velocidad del viento	3.2
92614	7	Sololá	704	Santa Lucía Utatlán 	7	Santa Rita 	5	Mayo	2023-09-05T00:00:00	2024-11-08T03:00:00	7	Dirección del viento	3.22
92615	7	Sololá	704	Santa Lucía Utatlán 	7	Santa Rita 	5	Mayo	2023-09-05T00:00:00	2024-11-08T03:00:00	1	Precipitación	0
92616	7	Sololá	704	Santa Lucía Utatlán 	7	Santa Rita 	5	Mayo	2023-09-05T00:00:00	2024-11-08T03:00:00	8	Radiación solar	0
92617	7	Sololá	704	Santa Lucía Utatlán 	7	Santa Rita 	5	Mayo	2023-09-05T00:00:00	2024-11-08T04:00:00	2	Temperatura media	17.3
92618	7	Sololá	704	Santa Lucía Utatlán 	7	Santa Rita 	5	Mayo	2023-09-05T00:00:00	2024-11-08T04:00:00	4	Temperatura máxima	17.5
92619	7	Sololá	704	Santa Lucía Utatlán 	7	Santa Rita 	5	Mayo	2023-09-05T00:00:00	2024-11-08T04:00:00	3	Temperatura mínima	17.1
92620	7	Sololá	704	Santa Lucía Utatlán 	7	Santa Rita 	5	Mayo	2023-09-05T00:00:00	2024-11-08T04:00:00	5	Humedad	52
92621	7	Sololá	704	Santa Lucía Utatlán 	7	Santa Rita 	5	Mayo	2023-09-05T00:00:00	2024-11-08T04:00:00	6	Velocidad del viento	3.2
92622	7	Sololá	704	Santa Lucía Utatlán 	7	Santa Rita 	5	Mayo	2023-09-05T00:00:00	2024-11-08T04:00:00	7	Dirección del viento	3.22
92623	7	Sololá	704	Santa Lucía Utatlán 	7	Santa Rita 	5	Mayo	2023-09-05T00:00:00	2024-11-08T04:00:00	1	Precipitación	0
92624	7	Sololá	704	Santa Lucía Utatlán 	7	Santa Rita 	5	Mayo	2023-09-05T00:00:00	2024-11-08T04:00:00	8	Radiación solar	0
92625	7	Sololá	704	Santa Lucía Utatlán 	7	Santa Rita 	5	Mayo	2023-09-05T00:00:00	2024-11-08T05:00:00	2	Temperatura media	16.8
92626	7	Sololá	704	Santa Lucía Utatlán 	7	Santa Rita 	5	Mayo	2023-09-05T00:00:00	2024-11-08T05:00:00	4	Temperatura máxima	17.4
92627	7	Sololá	704	Santa Lucía Utatlán 	7	Santa Rita 	5	Mayo	2023-09-05T00:00:00	2024-11-08T05:00:00	3	Temperatura mínima	16.8
92628	7	Sololá	704	Santa Lucía Utatlán 	7	Santa Rita 	5	Mayo	2023-09-05T00:00:00	2024-11-08T05:00:00	5	Humedad	55
92629	7	Sololá	704	Santa Lucía Utatlán 	7	Santa Rita 	5	Mayo	2023-09-05T00:00:00	2024-11-08T05:00:00	6	Velocidad del viento	3.2
92630	7	Sololá	704	Santa Lucía Utatlán 	7	Santa Rita 	5	Mayo	2023-09-05T00:00:00	2024-11-08T05:00:00	7	Dirección del viento	3.22
92631	7	Sololá	704	Santa Lucía Utatlán 	7	Santa Rita 	5	Mayo	2023-09-05T00:00:00	2024-11-08T05:00:00	1	Precipitación	0
92632	7	Sololá	704	Santa Lucía Utatlán 	7	Santa Rita 	5	Mayo	2023-09-05T00:00:00	2024-11-08T05:00:00	8	Radiación solar	0
92633	7	Sololá	704	Santa Lucía Utatlán 	7	Santa Rita 	5	Mayo	2023-09-05T00:00:00	2024-11-08T06:00:00	2	Temperatura media	17
92634	7	Sololá	704	Santa Lucía Utatlán 	7	Santa Rita 	5	Mayo	2023-09-05T00:00:00	2024-11-08T06:00:00	4	Temperatura máxima	17.1
92635	7	Sololá	704	Santa Lucía Utatlán 	7	Santa Rita 	5	Mayo	2023-09-05T00:00:00	2024-11-08T06:00:00	3	Temperatura mínima	16.6
92636	7	Sololá	704	Santa Lucía Utatlán 	7	Santa Rita 	5	Mayo	2023-09-05T00:00:00	2024-11-08T06:00:00	5	Humedad	57
92637	7	Sololá	704	Santa Lucía Utatlán 	7	Santa Rita 	5	Mayo	2023-09-05T00:00:00	2024-11-08T06:00:00	6	Velocidad del viento	3.2
92638	7	Sololá	704	Santa Lucía Utatlán 	7	Santa Rita 	5	Mayo	2023-09-05T00:00:00	2024-11-08T06:00:00	7	Dirección del viento	3.22
92639	7	Sololá	704	Santa Lucía Utatlán 	7	Santa Rita 	5	Mayo	2023-09-05T00:00:00	2024-11-08T06:00:00	1	Precipitación	0
92640	7	Sololá	704	Santa Lucía Utatlán 	7	Santa Rita 	5	Mayo	2023-09-05T00:00:00	2024-11-08T06:00:00	8	Radiación solar	0
92641	7	Sololá	704	Santa Lucía Utatlán 	7	Santa Rita 	5	Mayo	2023-09-05T00:00:00	2024-11-08T07:00:00	2	Temperatura media	17.4
92642	7	Sololá	704	Santa Lucía Utatlán 	7	Santa Rita 	5	Mayo	2023-09-05T00:00:00	2024-11-08T07:00:00	4	Temperatura máxima	17.4
92643	7	Sololá	704	Santa Lucía Utatlán 	7	Santa Rita 	5	Mayo	2023-09-05T00:00:00	2024-11-08T07:00:00	3	Temperatura mínima	16.8
92644	7	Sololá	704	Santa Lucía Utatlán 	7	Santa Rita 	5	Mayo	2023-09-05T00:00:00	2024-11-08T07:00:00	5	Humedad	59
92645	7	Sololá	704	Santa Lucía Utatlán 	7	Santa Rita 	5	Mayo	2023-09-05T00:00:00	2024-11-08T07:00:00	6	Velocidad del viento	3.2
92646	7	Sololá	704	Santa Lucía Utatlán 	7	Santa Rita 	5	Mayo	2023-09-05T00:00:00	2024-11-08T07:00:00	7	Dirección del viento	3.22
92647	7	Sololá	704	Santa Lucía Utatlán 	7	Santa Rita 	5	Mayo	2023-09-05T00:00:00	2024-11-08T07:00:00	1	Precipitación	0
92648	7	Sololá	704	Santa Lucía Utatlán 	7	Santa Rita 	5	Mayo	2023-09-05T00:00:00	2024-11-08T07:00:00	8	Radiación solar	7
92649	7	Sololá	704	Santa Lucía Utatlán 	7	Santa Rita 	5	Mayo	2023-09-05T00:00:00	2024-11-08T08:00:00	2	Temperatura media	19.2
92650	7	Sololá	704	Santa Lucía Utatlán 	7	Santa Rita 	5	Mayo	2023-09-05T00:00:00	2024-11-08T08:00:00	4	Temperatura máxima	19.2
92651	7	Sololá	704	Santa Lucía Utatlán 	7	Santa Rita 	5	Mayo	2023-09-05T00:00:00	2024-11-08T08:00:00	3	Temperatura mínima	17.4
92652	7	Sololá	704	Santa Lucía Utatlán 	7	Santa Rita 	5	Mayo	2023-09-05T00:00:00	2024-11-08T08:00:00	5	Humedad	61
92653	7	Sololá	704	Santa Lucía Utatlán 	7	Santa Rita 	5	Mayo	2023-09-05T00:00:00	2024-11-08T08:00:00	6	Velocidad del viento	1.6
92654	7	Sololá	704	Santa Lucía Utatlán 	7	Santa Rita 	5	Mayo	2023-09-05T00:00:00	2024-11-08T08:00:00	7	Dirección del viento	1.61
92655	7	Sololá	704	Santa Lucía Utatlán 	7	Santa Rita 	5	Mayo	2023-09-05T00:00:00	2024-11-08T08:00:00	1	Precipitación	0
92656	7	Sololá	704	Santa Lucía Utatlán 	7	Santa Rita 	5	Mayo	2023-09-05T00:00:00	2024-11-08T08:00:00	8	Radiación solar	125
92657	7	Sololá	704	Santa Lucía Utatlán 	7	Santa Rita 	5	Mayo	2023-09-05T00:00:00	2024-11-08T09:00:00	2	Temperatura media	22.1
92658	7	Sololá	704	Santa Lucía Utatlán 	7	Santa Rita 	5	Mayo	2023-09-05T00:00:00	2024-11-08T09:00:00	4	Temperatura máxima	22.1
92659	7	Sololá	704	Santa Lucía Utatlán 	7	Santa Rita 	5	Mayo	2023-09-05T00:00:00	2024-11-08T09:00:00	3	Temperatura mínima	19.2
92660	7	Sololá	704	Santa Lucía Utatlán 	7	Santa Rita 	5	Mayo	2023-09-05T00:00:00	2024-11-08T09:00:00	5	Humedad	58
92661	7	Sololá	704	Santa Lucía Utatlán 	7	Santa Rita 	5	Mayo	2023-09-05T00:00:00	2024-11-08T09:00:00	6	Velocidad del viento	1.6
92662	7	Sololá	704	Santa Lucía Utatlán 	7	Santa Rita 	5	Mayo	2023-09-05T00:00:00	2024-11-08T09:00:00	7	Dirección del viento	1.61
92663	7	Sololá	704	Santa Lucía Utatlán 	7	Santa Rita 	5	Mayo	2023-09-05T00:00:00	2024-11-08T09:00:00	1	Precipitación	0
92664	7	Sololá	704	Santa Lucía Utatlán 	7	Santa Rita 	5	Mayo	2023-09-05T00:00:00	2024-11-08T09:00:00	8	Radiación solar	366
92665	7	Sololá	704	Santa Lucía Utatlán 	7	Santa Rita 	5	Mayo	2023-09-05T00:00:00	2024-11-08T10:00:00	2	Temperatura media	24.2
92666	7	Sololá	704	Santa Lucía Utatlán 	7	Santa Rita 	5	Mayo	2023-09-05T00:00:00	2024-11-08T10:00:00	4	Temperatura máxima	24.2
92667	7	Sololá	704	Santa Lucía Utatlán 	7	Santa Rita 	5	Mayo	2023-09-05T00:00:00	2024-11-08T10:00:00	3	Temperatura mínima	22.1
92668	7	Sololá	704	Santa Lucía Utatlán 	7	Santa Rita 	5	Mayo	2023-09-05T00:00:00	2024-11-08T10:00:00	5	Humedad	51
92669	7	Sololá	704	Santa Lucía Utatlán 	7	Santa Rita 	5	Mayo	2023-09-05T00:00:00	2024-11-08T10:00:00	6	Velocidad del viento	4.8
92670	7	Sololá	704	Santa Lucía Utatlán 	7	Santa Rita 	5	Mayo	2023-09-05T00:00:00	2024-11-08T10:00:00	7	Dirección del viento	4.83
92671	7	Sololá	704	Santa Lucía Utatlán 	7	Santa Rita 	5	Mayo	2023-09-05T00:00:00	2024-11-08T10:00:00	1	Precipitación	0
92672	7	Sololá	704	Santa Lucía Utatlán 	7	Santa Rita 	5	Mayo	2023-09-05T00:00:00	2024-11-08T10:00:00	8	Radiación solar	642
92673	7	Sololá	704	Santa Lucía Utatlán 	7	Santa Rita 	5	Mayo	2023-09-05T00:00:00	2024-11-08T11:00:00	2	Temperatura media	25.1
92674	7	Sololá	704	Santa Lucía Utatlán 	7	Santa Rita 	5	Mayo	2023-09-05T00:00:00	2024-11-08T11:00:00	4	Temperatura máxima	25.1
92675	7	Sololá	704	Santa Lucía Utatlán 	7	Santa Rita 	5	Mayo	2023-09-05T00:00:00	2024-11-08T11:00:00	3	Temperatura mínima	24.1
92676	7	Sololá	704	Santa Lucía Utatlán 	7	Santa Rita 	5	Mayo	2023-09-05T00:00:00	2024-11-08T11:00:00	5	Humedad	58
92677	7	Sololá	704	Santa Lucía Utatlán 	7	Santa Rita 	5	Mayo	2023-09-05T00:00:00	2024-11-08T11:00:00	6	Velocidad del viento	6.4
92678	7	Sololá	704	Santa Lucía Utatlán 	7	Santa Rita 	5	Mayo	2023-09-05T00:00:00	2024-11-08T11:00:00	7	Dirección del viento	6.44
92679	7	Sololá	704	Santa Lucía Utatlán 	7	Santa Rita 	5	Mayo	2023-09-05T00:00:00	2024-11-08T11:00:00	1	Precipitación	0
92680	7	Sololá	704	Santa Lucía Utatlán 	7	Santa Rita 	5	Mayo	2023-09-05T00:00:00	2024-11-08T11:00:00	8	Radiación solar	824
92681	7	Sololá	704	Santa Lucía Utatlán 	7	Santa Rita 	5	Mayo	2023-09-05T00:00:00	2024-11-08T12:00:00	2	Temperatura media	26.1
92682	7	Sololá	704	Santa Lucía Utatlán 	7	Santa Rita 	5	Mayo	2023-09-05T00:00:00	2024-11-08T12:00:00	4	Temperatura máxima	26.3
92683	7	Sololá	704	Santa Lucía Utatlán 	7	Santa Rita 	5	Mayo	2023-09-05T00:00:00	2024-11-08T12:00:00	3	Temperatura mínima	25.1
92684	7	Sololá	704	Santa Lucía Utatlán 	7	Santa Rita 	5	Mayo	2023-09-05T00:00:00	2024-11-08T12:00:00	5	Humedad	56
92685	7	Sololá	704	Santa Lucía Utatlán 	7	Santa Rita 	5	Mayo	2023-09-05T00:00:00	2024-11-08T12:00:00	6	Velocidad del viento	6.4
92686	7	Sololá	704	Santa Lucía Utatlán 	7	Santa Rita 	5	Mayo	2023-09-05T00:00:00	2024-11-08T12:00:00	7	Dirección del viento	6.44
92687	7	Sololá	704	Santa Lucía Utatlán 	7	Santa Rita 	5	Mayo	2023-09-05T00:00:00	2024-11-08T12:00:00	1	Precipitación	0
92688	7	Sololá	704	Santa Lucía Utatlán 	7	Santa Rita 	5	Mayo	2023-09-05T00:00:00	2024-11-08T12:00:00	8	Radiación solar	935
92689	7	Sololá	704	Santa Lucía Utatlán 	7	Santa Rita 	5	Mayo	2023-09-05T00:00:00	2024-11-08T13:00:00	2	Temperatura media	26
92690	7	Sololá	704	Santa Lucía Utatlán 	7	Santa Rita 	5	Mayo	2023-09-05T00:00:00	2024-11-08T13:00:00	4	Temperatura máxima	27.1
92691	7	Sololá	704	Santa Lucía Utatlán 	7	Santa Rita 	5	Mayo	2023-09-05T00:00:00	2024-11-08T13:00:00	3	Temperatura mínima	25.6
92692	7	Sololá	704	Santa Lucía Utatlán 	7	Santa Rita 	5	Mayo	2023-09-05T00:00:00	2024-11-08T13:00:00	5	Humedad	57
92693	7	Sololá	704	Santa Lucía Utatlán 	7	Santa Rita 	5	Mayo	2023-09-05T00:00:00	2024-11-08T13:00:00	6	Velocidad del viento	8
92694	7	Sololá	704	Santa Lucía Utatlán 	7	Santa Rita 	5	Mayo	2023-09-05T00:00:00	2024-11-08T13:00:00	7	Dirección del viento	8.05
92695	7	Sololá	704	Santa Lucía Utatlán 	7	Santa Rita 	5	Mayo	2023-09-05T00:00:00	2024-11-08T13:00:00	1	Precipitación	0
92696	7	Sololá	704	Santa Lucía Utatlán 	7	Santa Rita 	5	Mayo	2023-09-05T00:00:00	2024-11-08T13:00:00	8	Radiación solar	886
92697	7	Sololá	704	Santa Lucía Utatlán 	7	Santa Rita 	5	Mayo	2023-09-05T00:00:00	2024-11-08T14:00:00	2	Temperatura media	24.9
92698	7	Sololá	704	Santa Lucía Utatlán 	7	Santa Rita 	5	Mayo	2023-09-05T00:00:00	2024-11-08T14:00:00	4	Temperatura máxima	27.3
92699	7	Sololá	704	Santa Lucía Utatlán 	7	Santa Rita 	5	Mayo	2023-09-05T00:00:00	2024-11-08T14:00:00	3	Temperatura mínima	24.9
92700	7	Sololá	704	Santa Lucía Utatlán 	7	Santa Rita 	5	Mayo	2023-09-05T00:00:00	2024-11-08T14:00:00	5	Humedad	69
92701	7	Sololá	704	Santa Lucía Utatlán 	7	Santa Rita 	5	Mayo	2023-09-05T00:00:00	2024-11-08T14:00:00	6	Velocidad del viento	6.4
92702	7	Sololá	704	Santa Lucía Utatlán 	7	Santa Rita 	5	Mayo	2023-09-05T00:00:00	2024-11-08T14:00:00	7	Dirección del viento	6.44
92703	7	Sololá	704	Santa Lucía Utatlán 	7	Santa Rita 	5	Mayo	2023-09-05T00:00:00	2024-11-08T14:00:00	1	Precipitación	0
92704	7	Sololá	704	Santa Lucía Utatlán 	7	Santa Rita 	5	Mayo	2023-09-05T00:00:00	2024-11-08T14:00:00	8	Radiación solar	691
92705	7	Sololá	704	Santa Lucía Utatlán 	7	Santa Rita 	5	Mayo	2023-09-05T00:00:00	2024-11-08T15:00:00	2	Temperatura media	24.2
92706	7	Sololá	704	Santa Lucía Utatlán 	7	Santa Rita 	5	Mayo	2023-09-05T00:00:00	2024-11-08T15:00:00	4	Temperatura máxima	25.5
92707	7	Sololá	704	Santa Lucía Utatlán 	7	Santa Rita 	5	Mayo	2023-09-05T00:00:00	2024-11-08T15:00:00	3	Temperatura mínima	24.2
92708	7	Sololá	704	Santa Lucía Utatlán 	7	Santa Rita 	5	Mayo	2023-09-05T00:00:00	2024-11-08T15:00:00	5	Humedad	74
92709	7	Sololá	704	Santa Lucía Utatlán 	7	Santa Rita 	5	Mayo	2023-09-05T00:00:00	2024-11-08T15:00:00	6	Velocidad del viento	6.4
92710	7	Sololá	704	Santa Lucía Utatlán 	7	Santa Rita 	5	Mayo	2023-09-05T00:00:00	2024-11-08T15:00:00	7	Dirección del viento	6.44
92711	7	Sololá	704	Santa Lucía Utatlán 	7	Santa Rita 	5	Mayo	2023-09-05T00:00:00	2024-11-08T15:00:00	1	Precipitación	0
92712	7	Sololá	704	Santa Lucía Utatlán 	7	Santa Rita 	5	Mayo	2023-09-05T00:00:00	2024-11-08T15:00:00	8	Radiación solar	255
92713	7	Sololá	704	Santa Lucía Utatlán 	7	Santa Rita 	5	Mayo	2023-09-05T00:00:00	2024-11-08T16:00:00	2	Temperatura media	24.8
92714	7	Sololá	704	Santa Lucía Utatlán 	7	Santa Rita 	5	Mayo	2023-09-05T00:00:00	2024-11-08T16:00:00	4	Temperatura máxima	25.1
92715	7	Sololá	704	Santa Lucía Utatlán 	7	Santa Rita 	5	Mayo	2023-09-05T00:00:00	2024-11-08T16:00:00	3	Temperatura mínima	24.1
92716	7	Sololá	704	Santa Lucía Utatlán 	7	Santa Rita 	5	Mayo	2023-09-05T00:00:00	2024-11-08T16:00:00	5	Humedad	74
92717	7	Sololá	704	Santa Lucía Utatlán 	7	Santa Rita 	5	Mayo	2023-09-05T00:00:00	2024-11-08T16:00:00	6	Velocidad del viento	4.8
92718	7	Sololá	704	Santa Lucía Utatlán 	7	Santa Rita 	5	Mayo	2023-09-05T00:00:00	2024-11-08T16:00:00	7	Dirección del viento	4.83
92719	7	Sololá	704	Santa Lucía Utatlán 	7	Santa Rita 	5	Mayo	2023-09-05T00:00:00	2024-11-08T16:00:00	1	Precipitación	0
92720	7	Sololá	704	Santa Lucía Utatlán 	7	Santa Rita 	5	Mayo	2023-09-05T00:00:00	2024-11-08T16:00:00	8	Radiación solar	247
92721	7	Sololá	704	Santa Lucía Utatlán 	7	Santa Rita 	5	Mayo	2023-09-05T00:00:00	2024-11-08T17:00:00	2	Temperatura media	24.3
92722	7	Sololá	704	Santa Lucía Utatlán 	7	Santa Rita 	5	Mayo	2023-09-05T00:00:00	2024-11-08T17:00:00	4	Temperatura máxima	24.8
92723	7	Sololá	704	Santa Lucía Utatlán 	7	Santa Rita 	5	Mayo	2023-09-05T00:00:00	2024-11-08T17:00:00	3	Temperatura mínima	23.6
92724	7	Sololá	704	Santa Lucía Utatlán 	7	Santa Rita 	5	Mayo	2023-09-05T00:00:00	2024-11-08T17:00:00	5	Humedad	72
92725	7	Sololá	704	Santa Lucía Utatlán 	7	Santa Rita 	5	Mayo	2023-09-05T00:00:00	2024-11-08T17:00:00	6	Velocidad del viento	6.4
92726	7	Sololá	704	Santa Lucía Utatlán 	7	Santa Rita 	5	Mayo	2023-09-05T00:00:00	2024-11-08T17:00:00	7	Dirección del viento	6.44
92727	7	Sololá	704	Santa Lucía Utatlán 	7	Santa Rita 	5	Mayo	2023-09-05T00:00:00	2024-11-08T17:00:00	1	Precipitación	0
92728	7	Sololá	704	Santa Lucía Utatlán 	7	Santa Rita 	5	Mayo	2023-09-05T00:00:00	2024-11-08T17:00:00	8	Radiación solar	195
92729	7	Sololá	704	Santa Lucía Utatlán 	7	Santa Rita 	5	Mayo	2023-09-05T00:00:00	2024-11-08T18:00:00	2	Temperatura media	22.6
92730	7	Sololá	704	Santa Lucía Utatlán 	7	Santa Rita 	5	Mayo	2023-09-05T00:00:00	2024-11-08T18:00:00	4	Temperatura máxima	24.3
92731	7	Sololá	704	Santa Lucía Utatlán 	7	Santa Rita 	5	Mayo	2023-09-05T00:00:00	2024-11-08T18:00:00	3	Temperatura mínima	22.6
92732	7	Sololá	704	Santa Lucía Utatlán 	7	Santa Rita 	5	Mayo	2023-09-05T00:00:00	2024-11-08T18:00:00	5	Humedad	85
92733	7	Sololá	704	Santa Lucía Utatlán 	7	Santa Rita 	5	Mayo	2023-09-05T00:00:00	2024-11-08T18:00:00	6	Velocidad del viento	4.8
92734	7	Sololá	704	Santa Lucía Utatlán 	7	Santa Rita 	5	Mayo	2023-09-05T00:00:00	2024-11-08T18:00:00	7	Dirección del viento	4.83
92735	7	Sololá	704	Santa Lucía Utatlán 	7	Santa Rita 	5	Mayo	2023-09-05T00:00:00	2024-11-08T18:00:00	1	Precipitación	0
92736	7	Sololá	704	Santa Lucía Utatlán 	7	Santa Rita 	5	Mayo	2023-09-05T00:00:00	2024-11-08T18:00:00	8	Radiación solar	93
92737	7	Sololá	704	Santa Lucía Utatlán 	7	Santa Rita 	5	Mayo	2023-09-05T00:00:00	2024-11-08T19:00:00	2	Temperatura media	21.8
92738	7	Sololá	704	Santa Lucía Utatlán 	7	Santa Rita 	5	Mayo	2023-09-05T00:00:00	2024-11-08T19:00:00	4	Temperatura máxima	22.6
92739	7	Sololá	704	Santa Lucía Utatlán 	7	Santa Rita 	5	Mayo	2023-09-05T00:00:00	2024-11-08T19:00:00	3	Temperatura mínima	21.8
92740	7	Sololá	704	Santa Lucía Utatlán 	7	Santa Rita 	5	Mayo	2023-09-05T00:00:00	2024-11-08T19:00:00	5	Humedad	88
92741	7	Sololá	704	Santa Lucía Utatlán 	7	Santa Rita 	5	Mayo	2023-09-05T00:00:00	2024-11-08T19:00:00	6	Velocidad del viento	1.6
92742	7	Sololá	704	Santa Lucía Utatlán 	7	Santa Rita 	5	Mayo	2023-09-05T00:00:00	2024-11-08T19:00:00	7	Dirección del viento	1.61
92743	7	Sololá	704	Santa Lucía Utatlán 	7	Santa Rita 	5	Mayo	2023-09-05T00:00:00	2024-11-08T19:00:00	1	Precipitación	0
92744	7	Sololá	704	Santa Lucía Utatlán 	7	Santa Rita 	5	Mayo	2023-09-05T00:00:00	2024-11-08T19:00:00	8	Radiación solar	0
92745	7	Sololá	704	Santa Lucía Utatlán 	7	Santa Rita 	5	Mayo	2023-09-05T00:00:00	2024-11-08T20:00:00	2	Temperatura media	21.3
92746	7	Sololá	704	Santa Lucía Utatlán 	7	Santa Rita 	5	Mayo	2023-09-05T00:00:00	2024-11-08T20:00:00	4	Temperatura máxima	21.8
92747	7	Sololá	704	Santa Lucía Utatlán 	7	Santa Rita 	5	Mayo	2023-09-05T00:00:00	2024-11-08T20:00:00	3	Temperatura mínima	21.3
92748	7	Sololá	704	Santa Lucía Utatlán 	7	Santa Rita 	5	Mayo	2023-09-05T00:00:00	2024-11-08T20:00:00	5	Humedad	91
92749	7	Sololá	704	Santa Lucía Utatlán 	7	Santa Rita 	5	Mayo	2023-09-05T00:00:00	2024-11-08T20:00:00	6	Velocidad del viento	1.6
92750	7	Sololá	704	Santa Lucía Utatlán 	7	Santa Rita 	5	Mayo	2023-09-05T00:00:00	2024-11-08T20:00:00	7	Dirección del viento	1.61
92751	7	Sololá	704	Santa Lucía Utatlán 	7	Santa Rita 	5	Mayo	2023-09-05T00:00:00	2024-11-08T20:00:00	1	Precipitación	0
92752	7	Sololá	704	Santa Lucía Utatlán 	7	Santa Rita 	5	Mayo	2023-09-05T00:00:00	2024-11-08T20:00:00	8	Radiación solar	0
92753	7	Sololá	704	Santa Lucía Utatlán 	7	Santa Rita 	5	Mayo	2023-09-05T00:00:00	2024-11-08T21:00:00	2	Temperatura media	21.1
92754	7	Sololá	704	Santa Lucía Utatlán 	7	Santa Rita 	5	Mayo	2023-09-05T00:00:00	2024-11-08T21:00:00	4	Temperatura máxima	21.3
92755	7	Sololá	704	Santa Lucía Utatlán 	7	Santa Rita 	5	Mayo	2023-09-05T00:00:00	2024-11-08T21:00:00	3	Temperatura mínima	21
92756	7	Sololá	704	Santa Lucía Utatlán 	7	Santa Rita 	5	Mayo	2023-09-05T00:00:00	2024-11-08T21:00:00	5	Humedad	90
92757	7	Sololá	704	Santa Lucía Utatlán 	7	Santa Rita 	5	Mayo	2023-09-05T00:00:00	2024-11-08T21:00:00	6	Velocidad del viento	1.6
92758	7	Sololá	704	Santa Lucía Utatlán 	7	Santa Rita 	5	Mayo	2023-09-05T00:00:00	2024-11-08T21:00:00	7	Dirección del viento	1.61
92759	7	Sololá	704	Santa Lucía Utatlán 	7	Santa Rita 	5	Mayo	2023-09-05T00:00:00	2024-11-08T21:00:00	1	Precipitación	0
92760	7	Sololá	704	Santa Lucía Utatlán 	7	Santa Rita 	5	Mayo	2023-09-05T00:00:00	2024-11-08T21:00:00	8	Radiación solar	0
92761	7	Sololá	704	Santa Lucía Utatlán 	7	Santa Rita 	5	Mayo	2023-09-05T00:00:00	2024-11-08T22:00:00	2	Temperatura media	20.9
92762	7	Sololá	704	Santa Lucía Utatlán 	7	Santa Rita 	5	Mayo	2023-09-05T00:00:00	2024-11-08T22:00:00	4	Temperatura máxima	21.1
92763	7	Sololá	704	Santa Lucía Utatlán 	7	Santa Rita 	5	Mayo	2023-09-05T00:00:00	2024-11-08T22:00:00	3	Temperatura mínima	20.8
92764	7	Sololá	704	Santa Lucía Utatlán 	7	Santa Rita 	5	Mayo	2023-09-05T00:00:00	2024-11-08T22:00:00	5	Humedad	90
92765	7	Sololá	704	Santa Lucía Utatlán 	7	Santa Rita 	5	Mayo	2023-09-05T00:00:00	2024-11-08T22:00:00	6	Velocidad del viento	1.6
92766	7	Sololá	704	Santa Lucía Utatlán 	7	Santa Rita 	5	Mayo	2023-09-05T00:00:00	2024-11-08T22:00:00	7	Dirección del viento	1.61
92767	7	Sololá	704	Santa Lucía Utatlán 	7	Santa Rita 	5	Mayo	2023-09-05T00:00:00	2024-11-08T22:00:00	1	Precipitación	0
92768	7	Sololá	704	Santa Lucía Utatlán 	7	Santa Rita 	5	Mayo	2023-09-05T00:00:00	2024-11-08T22:00:00	8	Radiación solar	0
92769	7	Sololá	704	Santa Lucía Utatlán 	7	Santa Rita 	5	Mayo	2023-09-05T00:00:00	2024-11-08T23:00:00	2	Temperatura media	20.3
92770	7	Sololá	704	Santa Lucía Utatlán 	7	Santa Rita 	5	Mayo	2023-09-05T00:00:00	2024-11-08T23:00:00	4	Temperatura máxima	20.9
92771	7	Sololá	704	Santa Lucía Utatlán 	7	Santa Rita 	5	Mayo	2023-09-05T00:00:00	2024-11-08T23:00:00	3	Temperatura mínima	20.3
92772	7	Sololá	704	Santa Lucía Utatlán 	7	Santa Rita 	5	Mayo	2023-09-05T00:00:00	2024-11-08T23:00:00	5	Humedad	89
92773	7	Sololá	704	Santa Lucía Utatlán 	7	Santa Rita 	5	Mayo	2023-09-05T00:00:00	2024-11-08T23:00:00	6	Velocidad del viento	0
92774	7	Sololá	704	Santa Lucía Utatlán 	7	Santa Rita 	5	Mayo	2023-09-05T00:00:00	2024-11-08T23:00:00	7	Dirección del viento	0
92775	7	Sololá	704	Santa Lucía Utatlán 	7	Santa Rita 	5	Mayo	2023-09-05T00:00:00	2024-11-08T23:00:00	1	Precipitación	0
92776	7	Sololá	704	Santa Lucía Utatlán 	7	Santa Rita 	5	Mayo	2023-09-05T00:00:00	2024-11-08T23:00:00	8	Radiación solar	0
92777	7	Sololá	704	Santa Lucía Utatlán 	7	Santa Rita 	5	Mayo	2023-10-05T00:00:00	2024-11-08T00:00:00	2	Temperatura media	20.3
92778	7	Sololá	704	Santa Lucía Utatlán 	7	Santa Rita 	5	Mayo	2023-10-05T00:00:00	2024-11-08T00:00:00	4	Temperatura máxima	20.4
92779	7	Sololá	704	Santa Lucía Utatlán 	7	Santa Rita 	5	Mayo	2023-10-05T00:00:00	2024-11-08T00:00:00	3	Temperatura mínima	20.2
92780	7	Sololá	704	Santa Lucía Utatlán 	7	Santa Rita 	5	Mayo	2023-10-05T00:00:00	2024-11-08T00:00:00	5	Humedad	91
92781	7	Sololá	704	Santa Lucía Utatlán 	7	Santa Rita 	5	Mayo	2023-10-05T00:00:00	2024-11-08T00:00:00	6	Velocidad del viento	0
92782	7	Sololá	704	Santa Lucía Utatlán 	7	Santa Rita 	5	Mayo	2023-10-05T00:00:00	2024-11-08T00:00:00	7	Dirección del viento	0
92783	7	Sololá	704	Santa Lucía Utatlán 	7	Santa Rita 	5	Mayo	2023-10-05T00:00:00	2024-11-08T00:00:00	1	Precipitación	0
92784	7	Sololá	704	Santa Lucía Utatlán 	7	Santa Rita 	5	Mayo	2023-10-05T00:00:00	2024-11-08T00:00:00	8	Radiación solar	0
92785	7	Sololá	704	Santa Lucía Utatlán 	7	Santa Rita 	5	Mayo	2023-10-05T00:00:00	2024-11-08T01:00:00	2	Temperatura media	19.9
92786	7	Sololá	704	Santa Lucía Utatlán 	7	Santa Rita 	5	Mayo	2023-10-05T00:00:00	2024-11-08T01:00:00	4	Temperatura máxima	20.3
92787	7	Sololá	704	Santa Lucía Utatlán 	7	Santa Rita 	5	Mayo	2023-10-05T00:00:00	2024-11-08T01:00:00	3	Temperatura mínima	19.8
92788	7	Sololá	704	Santa Lucía Utatlán 	7	Santa Rita 	5	Mayo	2023-10-05T00:00:00	2024-11-08T01:00:00	5	Humedad	91
92789	7	Sololá	704	Santa Lucía Utatlán 	7	Santa Rita 	5	Mayo	2023-10-05T00:00:00	2024-11-08T01:00:00	6	Velocidad del viento	0
92790	7	Sololá	704	Santa Lucía Utatlán 	7	Santa Rita 	5	Mayo	2023-10-05T00:00:00	2024-11-08T01:00:00	7	Dirección del viento	0
92791	7	Sololá	704	Santa Lucía Utatlán 	7	Santa Rita 	5	Mayo	2023-10-05T00:00:00	2024-11-08T01:00:00	1	Precipitación	0
92792	7	Sololá	704	Santa Lucía Utatlán 	7	Santa Rita 	5	Mayo	2023-10-05T00:00:00	2024-11-08T01:00:00	8	Radiación solar	0
92793	7	Sololá	704	Santa Lucía Utatlán 	7	Santa Rita 	5	Mayo	2023-10-05T00:00:00	2024-11-08T02:00:00	2	Temperatura media	19.7
92794	7	Sololá	704	Santa Lucía Utatlán 	7	Santa Rita 	5	Mayo	2023-10-05T00:00:00	2024-11-08T02:00:00	4	Temperatura máxima	20
92795	7	Sololá	704	Santa Lucía Utatlán 	7	Santa Rita 	5	Mayo	2023-10-05T00:00:00	2024-11-08T02:00:00	3	Temperatura mínima	19.6
92796	7	Sololá	704	Santa Lucía Utatlán 	7	Santa Rita 	5	Mayo	2023-10-05T00:00:00	2024-11-08T02:00:00	5	Humedad	91
92797	7	Sololá	704	Santa Lucía Utatlán 	7	Santa Rita 	5	Mayo	2023-10-05T00:00:00	2024-11-08T02:00:00	6	Velocidad del viento	0
92798	7	Sololá	704	Santa Lucía Utatlán 	7	Santa Rita 	5	Mayo	2023-10-05T00:00:00	2024-11-08T02:00:00	7	Dirección del viento	0
92799	7	Sololá	704	Santa Lucía Utatlán 	7	Santa Rita 	5	Mayo	2023-10-05T00:00:00	2024-11-08T02:00:00	1	Precipitación	0
92800	7	Sololá	704	Santa Lucía Utatlán 	7	Santa Rita 	5	Mayo	2023-10-05T00:00:00	2024-11-08T02:00:00	8	Radiación solar	0
92801	7	Sololá	704	Santa Lucía Utatlán 	7	Santa Rita 	5	Mayo	2023-10-05T00:00:00	2024-11-08T03:00:00	2	Temperatura media	19.1
92802	7	Sololá	704	Santa Lucía Utatlán 	7	Santa Rita 	5	Mayo	2023-10-05T00:00:00	2024-11-08T03:00:00	4	Temperatura máxima	19.7
92803	7	Sololá	704	Santa Lucía Utatlán 	7	Santa Rita 	5	Mayo	2023-10-05T00:00:00	2024-11-08T03:00:00	3	Temperatura mínima	19
92804	7	Sololá	704	Santa Lucía Utatlán 	7	Santa Rita 	5	Mayo	2023-10-05T00:00:00	2024-11-08T03:00:00	5	Humedad	93
92805	7	Sololá	704	Santa Lucía Utatlán 	7	Santa Rita 	5	Mayo	2023-10-05T00:00:00	2024-11-08T03:00:00	6	Velocidad del viento	0
92806	7	Sololá	704	Santa Lucía Utatlán 	7	Santa Rita 	5	Mayo	2023-10-05T00:00:00	2024-11-08T03:00:00	7	Dirección del viento	0
92807	7	Sololá	704	Santa Lucía Utatlán 	7	Santa Rita 	5	Mayo	2023-10-05T00:00:00	2024-11-08T03:00:00	1	Precipitación	0
92808	7	Sololá	704	Santa Lucía Utatlán 	7	Santa Rita 	5	Mayo	2023-10-05T00:00:00	2024-11-08T03:00:00	8	Radiación solar	0
92809	7	Sololá	704	Santa Lucía Utatlán 	7	Santa Rita 	5	Mayo	2023-10-05T00:00:00	2024-11-08T04:00:00	2	Temperatura media	18.2
92810	7	Sololá	704	Santa Lucía Utatlán 	7	Santa Rita 	5	Mayo	2023-10-05T00:00:00	2024-11-08T04:00:00	4	Temperatura máxima	19.1
92811	7	Sololá	704	Santa Lucía Utatlán 	7	Santa Rita 	5	Mayo	2023-10-05T00:00:00	2024-11-08T04:00:00	3	Temperatura mínima	18.2
92812	7	Sololá	704	Santa Lucía Utatlán 	7	Santa Rita 	5	Mayo	2023-10-05T00:00:00	2024-11-08T04:00:00	5	Humedad	91
92813	7	Sololá	704	Santa Lucía Utatlán 	7	Santa Rita 	5	Mayo	2023-10-05T00:00:00	2024-11-08T04:00:00	6	Velocidad del viento	0
92814	7	Sololá	704	Santa Lucía Utatlán 	7	Santa Rita 	5	Mayo	2023-10-05T00:00:00	2024-11-08T04:00:00	7	Dirección del viento	0
92815	7	Sololá	704	Santa Lucía Utatlán 	7	Santa Rita 	5	Mayo	2023-10-05T00:00:00	2024-11-08T04:00:00	1	Precipitación	0
92816	7	Sololá	704	Santa Lucía Utatlán 	7	Santa Rita 	5	Mayo	2023-10-05T00:00:00	2024-11-08T04:00:00	8	Radiación solar	0
92817	7	Sololá	704	Santa Lucía Utatlán 	7	Santa Rita 	5	Mayo	2023-10-05T00:00:00	2024-11-08T05:00:00	2	Temperatura media	17.7
92818	7	Sololá	704	Santa Lucía Utatlán 	7	Santa Rita 	5	Mayo	2023-10-05T00:00:00	2024-11-08T05:00:00	4	Temperatura máxima	18.2
92819	7	Sololá	704	Santa Lucía Utatlán 	7	Santa Rita 	5	Mayo	2023-10-05T00:00:00	2024-11-08T05:00:00	3	Temperatura mínima	17.7
92820	7	Sololá	704	Santa Lucía Utatlán 	7	Santa Rita 	5	Mayo	2023-10-05T00:00:00	2024-11-08T05:00:00	5	Humedad	93
92821	7	Sololá	704	Santa Lucía Utatlán 	7	Santa Rita 	5	Mayo	2023-10-05T00:00:00	2024-11-08T05:00:00	6	Velocidad del viento	1.6
92822	7	Sololá	704	Santa Lucía Utatlán 	7	Santa Rita 	5	Mayo	2023-10-05T00:00:00	2024-11-08T05:00:00	7	Dirección del viento	1.61
92823	7	Sololá	704	Santa Lucía Utatlán 	7	Santa Rita 	5	Mayo	2023-10-05T00:00:00	2024-11-08T05:00:00	1	Precipitación	0
92824	7	Sololá	704	Santa Lucía Utatlán 	7	Santa Rita 	5	Mayo	2023-10-05T00:00:00	2024-11-08T05:00:00	8	Radiación solar	0
92825	7	Sololá	704	Santa Lucía Utatlán 	7	Santa Rita 	5	Mayo	2023-10-05T00:00:00	2024-11-08T06:00:00	2	Temperatura media	17.1
92826	7	Sololá	704	Santa Lucía Utatlán 	7	Santa Rita 	5	Mayo	2023-10-05T00:00:00	2024-11-08T06:00:00	4	Temperatura máxima	17.8
92827	7	Sololá	704	Santa Lucía Utatlán 	7	Santa Rita 	5	Mayo	2023-10-05T00:00:00	2024-11-08T06:00:00	3	Temperatura mínima	17.1
92828	7	Sololá	704	Santa Lucía Utatlán 	7	Santa Rita 	5	Mayo	2023-10-05T00:00:00	2024-11-08T06:00:00	5	Humedad	93
92829	7	Sololá	704	Santa Lucía Utatlán 	7	Santa Rita 	5	Mayo	2023-10-05T00:00:00	2024-11-08T06:00:00	6	Velocidad del viento	1.6
92830	7	Sololá	704	Santa Lucía Utatlán 	7	Santa Rita 	5	Mayo	2023-10-05T00:00:00	2024-11-08T06:00:00	7	Dirección del viento	1.61
92831	7	Sololá	704	Santa Lucía Utatlán 	7	Santa Rita 	5	Mayo	2023-10-05T00:00:00	2024-11-08T06:00:00	1	Precipitación	0
92832	7	Sololá	704	Santa Lucía Utatlán 	7	Santa Rita 	5	Mayo	2023-10-05T00:00:00	2024-11-08T06:00:00	8	Radiación solar	0
92833	7	Sololá	704	Santa Lucía Utatlán 	7	Santa Rita 	5	Mayo	2023-10-05T00:00:00	2024-11-08T07:00:00	2	Temperatura media	17.1
92834	7	Sololá	704	Santa Lucía Utatlán 	7	Santa Rita 	5	Mayo	2023-10-05T00:00:00	2024-11-08T07:00:00	4	Temperatura máxima	17.2
92835	7	Sololá	704	Santa Lucía Utatlán 	7	Santa Rita 	5	Mayo	2023-10-05T00:00:00	2024-11-08T07:00:00	3	Temperatura mínima	16.9
92836	7	Sololá	704	Santa Lucía Utatlán 	7	Santa Rita 	5	Mayo	2023-10-05T00:00:00	2024-11-08T07:00:00	5	Humedad	94
92837	7	Sololá	704	Santa Lucía Utatlán 	7	Santa Rita 	5	Mayo	2023-10-05T00:00:00	2024-11-08T07:00:00	6	Velocidad del viento	1.6
92838	7	Sololá	704	Santa Lucía Utatlán 	7	Santa Rita 	5	Mayo	2023-10-05T00:00:00	2024-11-08T07:00:00	7	Dirección del viento	1.61
92839	7	Sololá	704	Santa Lucía Utatlán 	7	Santa Rita 	5	Mayo	2023-10-05T00:00:00	2024-11-08T07:00:00	1	Precipitación	0
92840	7	Sololá	704	Santa Lucía Utatlán 	7	Santa Rita 	5	Mayo	2023-10-05T00:00:00	2024-11-08T07:00:00	8	Radiación solar	6
92841	7	Sololá	704	Santa Lucía Utatlán 	7	Santa Rita 	5	Mayo	2023-10-05T00:00:00	2024-11-08T08:00:00	2	Temperatura media	19.2
92842	7	Sololá	704	Santa Lucía Utatlán 	7	Santa Rita 	5	Mayo	2023-10-05T00:00:00	2024-11-08T08:00:00	4	Temperatura máxima	19.2
92843	7	Sololá	704	Santa Lucía Utatlán 	7	Santa Rita 	5	Mayo	2023-10-05T00:00:00	2024-11-08T08:00:00	3	Temperatura mínima	17.1
92844	7	Sololá	704	Santa Lucía Utatlán 	7	Santa Rita 	5	Mayo	2023-10-05T00:00:00	2024-11-08T08:00:00	5	Humedad	90
92845	7	Sololá	704	Santa Lucía Utatlán 	7	Santa Rita 	5	Mayo	2023-10-05T00:00:00	2024-11-08T08:00:00	6	Velocidad del viento	1.6
92846	7	Sololá	704	Santa Lucía Utatlán 	7	Santa Rita 	5	Mayo	2023-10-05T00:00:00	2024-11-08T08:00:00	7	Dirección del viento	1.61
92847	7	Sololá	704	Santa Lucía Utatlán 	7	Santa Rita 	5	Mayo	2023-10-05T00:00:00	2024-11-08T08:00:00	1	Precipitación	0
92848	7	Sololá	704	Santa Lucía Utatlán 	7	Santa Rita 	5	Mayo	2023-10-05T00:00:00	2024-11-08T08:00:00	8	Radiación solar	99
92849	7	Sololá	704	Santa Lucía Utatlán 	7	Santa Rita 	5	Mayo	2023-10-05T00:00:00	2024-11-08T09:00:00	2	Temperatura media	21.6
92850	7	Sololá	704	Santa Lucía Utatlán 	7	Santa Rita 	5	Mayo	2023-10-05T00:00:00	2024-11-08T09:00:00	4	Temperatura máxima	21.8
92851	7	Sololá	704	Santa Lucía Utatlán 	7	Santa Rita 	5	Mayo	2023-10-05T00:00:00	2024-11-08T09:00:00	3	Temperatura mínima	19.2
92852	7	Sololá	704	Santa Lucía Utatlán 	7	Santa Rita 	5	Mayo	2023-10-05T00:00:00	2024-11-08T09:00:00	5	Humedad	81
92853	7	Sololá	704	Santa Lucía Utatlán 	7	Santa Rita 	5	Mayo	2023-10-05T00:00:00	2024-11-08T09:00:00	6	Velocidad del viento	3.2
92854	7	Sololá	704	Santa Lucía Utatlán 	7	Santa Rita 	5	Mayo	2023-10-05T00:00:00	2024-11-08T09:00:00	7	Dirección del viento	3.22
92855	7	Sololá	704	Santa Lucía Utatlán 	7	Santa Rita 	5	Mayo	2023-10-05T00:00:00	2024-11-08T09:00:00	1	Precipitación	0
92856	7	Sololá	704	Santa Lucía Utatlán 	7	Santa Rita 	5	Mayo	2023-10-05T00:00:00	2024-11-08T09:00:00	8	Radiación solar	270
92857	7	Sololá	704	Santa Lucía Utatlán 	7	Santa Rita 	5	Mayo	2023-10-05T00:00:00	2024-11-08T10:00:00	2	Temperatura media	23.2
92858	7	Sololá	704	Santa Lucía Utatlán 	7	Santa Rita 	5	Mayo	2023-10-05T00:00:00	2024-11-08T10:00:00	4	Temperatura máxima	23.2
92859	7	Sololá	704	Santa Lucía Utatlán 	7	Santa Rita 	5	Mayo	2023-10-05T00:00:00	2024-11-08T10:00:00	3	Temperatura mínima	21.7
92860	7	Sololá	704	Santa Lucía Utatlán 	7	Santa Rita 	5	Mayo	2023-10-05T00:00:00	2024-11-08T10:00:00	5	Humedad	69
92861	7	Sololá	704	Santa Lucía Utatlán 	7	Santa Rita 	5	Mayo	2023-10-05T00:00:00	2024-11-08T10:00:00	6	Velocidad del viento	3.2
92862	7	Sololá	704	Santa Lucía Utatlán 	7	Santa Rita 	5	Mayo	2023-10-05T00:00:00	2024-11-08T10:00:00	7	Dirección del viento	3.22
92863	7	Sololá	704	Santa Lucía Utatlán 	7	Santa Rita 	5	Mayo	2023-10-05T00:00:00	2024-11-08T10:00:00	1	Precipitación	0
92864	7	Sololá	704	Santa Lucía Utatlán 	7	Santa Rita 	5	Mayo	2023-10-05T00:00:00	2024-11-08T10:00:00	8	Radiación solar	360
92865	7	Sololá	704	Santa Lucía Utatlán 	7	Santa Rita 	5	Mayo	2023-10-05T00:00:00	2024-11-08T11:00:00	2	Temperatura media	23.6
92866	7	Sololá	704	Santa Lucía Utatlán 	7	Santa Rita 	5	Mayo	2023-10-05T00:00:00	2024-11-08T11:00:00	4	Temperatura máxima	24.4
92867	7	Sololá	704	Santa Lucía Utatlán 	7	Santa Rita 	5	Mayo	2023-10-05T00:00:00	2024-11-08T11:00:00	3	Temperatura mínima	23.2
92868	7	Sololá	704	Santa Lucía Utatlán 	7	Santa Rita 	5	Mayo	2023-10-05T00:00:00	2024-11-08T11:00:00	5	Humedad	77
92869	7	Sololá	704	Santa Lucía Utatlán 	7	Santa Rita 	5	Mayo	2023-10-05T00:00:00	2024-11-08T11:00:00	6	Velocidad del viento	4.8
92870	7	Sololá	704	Santa Lucía Utatlán 	7	Santa Rita 	5	Mayo	2023-10-05T00:00:00	2024-11-08T11:00:00	7	Dirección del viento	4.83
92871	7	Sololá	704	Santa Lucía Utatlán 	7	Santa Rita 	5	Mayo	2023-10-05T00:00:00	2024-11-08T11:00:00	1	Precipitación	0
92872	7	Sololá	704	Santa Lucía Utatlán 	7	Santa Rita 	5	Mayo	2023-10-05T00:00:00	2024-11-08T11:00:00	8	Radiación solar	519
92873	7	Sololá	704	Santa Lucía Utatlán 	7	Santa Rita 	5	Mayo	2023-10-05T00:00:00	2024-11-08T12:00:00	2	Temperatura media	23.7
92874	7	Sololá	704	Santa Lucía Utatlán 	7	Santa Rita 	5	Mayo	2023-10-05T00:00:00	2024-11-08T12:00:00	4	Temperatura máxima	24.4
92875	7	Sololá	704	Santa Lucía Utatlán 	7	Santa Rita 	5	Mayo	2023-10-05T00:00:00	2024-11-08T12:00:00	3	Temperatura mínima	23.4
92876	7	Sololá	704	Santa Lucía Utatlán 	7	Santa Rita 	5	Mayo	2023-10-05T00:00:00	2024-11-08T12:00:00	5	Humedad	77
92877	7	Sololá	704	Santa Lucía Utatlán 	7	Santa Rita 	5	Mayo	2023-10-05T00:00:00	2024-11-08T12:00:00	6	Velocidad del viento	6.4
92878	7	Sololá	704	Santa Lucía Utatlán 	7	Santa Rita 	5	Mayo	2023-10-05T00:00:00	2024-11-08T12:00:00	7	Dirección del viento	6.44
92879	7	Sololá	704	Santa Lucía Utatlán 	7	Santa Rita 	5	Mayo	2023-10-05T00:00:00	2024-11-08T12:00:00	1	Precipitación	0
92880	7	Sololá	704	Santa Lucía Utatlán 	7	Santa Rita 	5	Mayo	2023-10-05T00:00:00	2024-11-08T12:00:00	8	Radiación solar	424
92881	7	Sololá	704	Santa Lucía Utatlán 	7	Santa Rita 	5	Mayo	2023-10-05T00:00:00	2024-11-08T13:00:00	2	Temperatura media	22.6
92882	7	Sololá	704	Santa Lucía Utatlán 	7	Santa Rita 	5	Mayo	2023-10-05T00:00:00	2024-11-08T13:00:00	4	Temperatura máxima	23.9
92883	7	Sololá	704	Santa Lucía Utatlán 	7	Santa Rita 	5	Mayo	2023-10-05T00:00:00	2024-11-08T13:00:00	3	Temperatura mínima	22.4
92884	7	Sololá	704	Santa Lucía Utatlán 	7	Santa Rita 	5	Mayo	2023-10-05T00:00:00	2024-11-08T13:00:00	5	Humedad	83
92885	7	Sololá	704	Santa Lucía Utatlán 	7	Santa Rita 	5	Mayo	2023-10-05T00:00:00	2024-11-08T13:00:00	6	Velocidad del viento	4.8
92886	7	Sololá	704	Santa Lucía Utatlán 	7	Santa Rita 	5	Mayo	2023-10-05T00:00:00	2024-11-08T13:00:00	7	Dirección del viento	4.83
92887	7	Sololá	704	Santa Lucía Utatlán 	7	Santa Rita 	5	Mayo	2023-10-05T00:00:00	2024-11-08T13:00:00	1	Precipitación	0
92888	7	Sololá	704	Santa Lucía Utatlán 	7	Santa Rita 	5	Mayo	2023-10-05T00:00:00	2024-11-08T13:00:00	8	Radiación solar	163
92889	7	Sololá	704	Santa Lucía Utatlán 	7	Santa Rita 	5	Mayo	2023-10-05T00:00:00	2024-11-08T14:00:00	2	Temperatura media	22.7
92890	7	Sololá	704	Santa Lucía Utatlán 	7	Santa Rita 	5	Mayo	2023-10-05T00:00:00	2024-11-08T14:00:00	4	Temperatura máxima	23.1
92891	7	Sololá	704	Santa Lucía Utatlán 	7	Santa Rita 	5	Mayo	2023-10-05T00:00:00	2024-11-08T14:00:00	3	Temperatura mínima	22.6
92892	7	Sololá	704	Santa Lucía Utatlán 	7	Santa Rita 	5	Mayo	2023-10-05T00:00:00	2024-11-08T14:00:00	5	Humedad	84
92893	7	Sololá	704	Santa Lucía Utatlán 	7	Santa Rita 	5	Mayo	2023-10-05T00:00:00	2024-11-08T14:00:00	6	Velocidad del viento	4.8
92894	7	Sololá	704	Santa Lucía Utatlán 	7	Santa Rita 	5	Mayo	2023-10-05T00:00:00	2024-11-08T14:00:00	7	Dirección del viento	4.83
92895	7	Sololá	704	Santa Lucía Utatlán 	7	Santa Rita 	5	Mayo	2023-10-05T00:00:00	2024-11-08T14:00:00	1	Precipitación	0
92896	7	Sololá	704	Santa Lucía Utatlán 	7	Santa Rita 	5	Mayo	2023-10-05T00:00:00	2024-11-08T14:00:00	8	Radiación solar	265
92897	7	Sololá	704	Santa Lucía Utatlán 	7	Santa Rita 	5	Mayo	2023-10-05T00:00:00	2024-11-08T15:00:00	2	Temperatura media	22.8
92898	7	Sololá	704	Santa Lucía Utatlán 	7	Santa Rita 	5	Mayo	2023-10-05T00:00:00	2024-11-08T15:00:00	4	Temperatura máxima	23.9
92899	7	Sololá	704	Santa Lucía Utatlán 	7	Santa Rita 	5	Mayo	2023-10-05T00:00:00	2024-11-08T15:00:00	3	Temperatura mínima	22.6
92900	7	Sololá	704	Santa Lucía Utatlán 	7	Santa Rita 	5	Mayo	2023-10-05T00:00:00	2024-11-08T15:00:00	5	Humedad	84
92901	7	Sololá	704	Santa Lucía Utatlán 	7	Santa Rita 	5	Mayo	2023-10-05T00:00:00	2024-11-08T15:00:00	6	Velocidad del viento	3.2
92902	7	Sololá	704	Santa Lucía Utatlán 	7	Santa Rita 	5	Mayo	2023-10-05T00:00:00	2024-11-08T15:00:00	7	Dirección del viento	3.22
92903	7	Sololá	704	Santa Lucía Utatlán 	7	Santa Rita 	5	Mayo	2023-10-05T00:00:00	2024-11-08T15:00:00	1	Precipitación	0
92904	7	Sololá	704	Santa Lucía Utatlán 	7	Santa Rita 	5	Mayo	2023-10-05T00:00:00	2024-11-08T15:00:00	8	Radiación solar	233
92905	7	Sololá	704	Santa Lucía Utatlán 	7	Santa Rita 	5	Mayo	2023-10-05T00:00:00	2024-11-08T16:00:00	2	Temperatura media	20.7
92906	7	Sololá	704	Santa Lucía Utatlán 	7	Santa Rita 	5	Mayo	2023-10-05T00:00:00	2024-11-08T16:00:00	4	Temperatura máxima	22.8
92907	7	Sololá	704	Santa Lucía Utatlán 	7	Santa Rita 	5	Mayo	2023-10-05T00:00:00	2024-11-08T16:00:00	3	Temperatura mínima	20.7
92908	7	Sololá	704	Santa Lucía Utatlán 	7	Santa Rita 	5	Mayo	2023-10-05T00:00:00	2024-11-08T16:00:00	5	Humedad	91
92909	7	Sololá	704	Santa Lucía Utatlán 	7	Santa Rita 	5	Mayo	2023-10-05T00:00:00	2024-11-08T16:00:00	6	Velocidad del viento	6.4
92910	7	Sololá	704	Santa Lucía Utatlán 	7	Santa Rita 	5	Mayo	2023-10-05T00:00:00	2024-11-08T16:00:00	7	Dirección del viento	6.44
92911	7	Sololá	704	Santa Lucía Utatlán 	7	Santa Rita 	5	Mayo	2023-10-05T00:00:00	2024-11-08T16:00:00	1	Precipitación	6.4
92912	7	Sololá	704	Santa Lucía Utatlán 	7	Santa Rita 	5	Mayo	2023-10-05T00:00:00	2024-11-08T16:00:00	8	Radiación solar	44
92913	7	Sololá	704	Santa Lucía Utatlán 	7	Santa Rita 	5	Mayo	2023-10-05T00:00:00	2024-11-08T17:00:00	2	Temperatura media	19.4
92914	7	Sololá	704	Santa Lucía Utatlán 	7	Santa Rita 	5	Mayo	2023-10-05T00:00:00	2024-11-08T17:00:00	4	Temperatura máxima	20.7
92915	7	Sololá	704	Santa Lucía Utatlán 	7	Santa Rita 	5	Mayo	2023-10-05T00:00:00	2024-11-08T17:00:00	3	Temperatura mínima	19.3
92916	7	Sololá	704	Santa Lucía Utatlán 	7	Santa Rita 	5	Mayo	2023-10-05T00:00:00	2024-11-08T17:00:00	5	Humedad	94
92917	7	Sololá	704	Santa Lucía Utatlán 	7	Santa Rita 	5	Mayo	2023-10-05T00:00:00	2024-11-08T17:00:00	6	Velocidad del viento	3.2
92918	7	Sololá	704	Santa Lucía Utatlán 	7	Santa Rita 	5	Mayo	2023-10-05T00:00:00	2024-11-08T17:00:00	7	Dirección del viento	3.22
92919	7	Sololá	704	Santa Lucía Utatlán 	7	Santa Rita 	5	Mayo	2023-10-05T00:00:00	2024-11-08T17:00:00	1	Precipitación	9.8
92920	7	Sololá	704	Santa Lucía Utatlán 	7	Santa Rita 	5	Mayo	2023-10-05T00:00:00	2024-11-08T17:00:00	8	Radiación solar	21
92921	7	Sololá	704	Santa Lucía Utatlán 	7	Santa Rita 	5	Mayo	2023-10-05T00:00:00	2024-11-08T18:00:00	2	Temperatura media	19.9
92922	7	Sololá	704	Santa Lucía Utatlán 	7	Santa Rita 	5	Mayo	2023-10-05T00:00:00	2024-11-08T18:00:00	4	Temperatura máxima	19.9
92923	7	Sololá	704	Santa Lucía Utatlán 	7	Santa Rita 	5	Mayo	2023-10-05T00:00:00	2024-11-08T18:00:00	3	Temperatura mínima	19.3
92924	7	Sololá	704	Santa Lucía Utatlán 	7	Santa Rita 	5	Mayo	2023-10-05T00:00:00	2024-11-08T18:00:00	5	Humedad	95
92925	7	Sololá	704	Santa Lucía Utatlán 	7	Santa Rita 	5	Mayo	2023-10-05T00:00:00	2024-11-08T18:00:00	6	Velocidad del viento	1.6
92926	7	Sololá	704	Santa Lucía Utatlán 	7	Santa Rita 	5	Mayo	2023-10-05T00:00:00	2024-11-08T18:00:00	7	Dirección del viento	1.61
92927	7	Sololá	704	Santa Lucía Utatlán 	7	Santa Rita 	5	Mayo	2023-10-05T00:00:00	2024-11-08T18:00:00	1	Precipitación	0.2
92928	7	Sololá	704	Santa Lucía Utatlán 	7	Santa Rita 	5	Mayo	2023-10-05T00:00:00	2024-11-08T18:00:00	8	Radiación solar	26
92929	7	Sololá	704	Santa Lucía Utatlán 	7	Santa Rita 	5	Mayo	2023-10-05T00:00:00	2024-11-08T19:00:00	2	Temperatura media	19.9
92930	7	Sololá	704	Santa Lucía Utatlán 	7	Santa Rita 	5	Mayo	2023-10-05T00:00:00	2024-11-08T19:00:00	4	Temperatura máxima	20.1
92931	7	Sololá	704	Santa Lucía Utatlán 	7	Santa Rita 	5	Mayo	2023-10-05T00:00:00	2024-11-08T19:00:00	3	Temperatura mínima	19.8
92932	7	Sololá	704	Santa Lucía Utatlán 	7	Santa Rita 	5	Mayo	2023-10-05T00:00:00	2024-11-08T19:00:00	5	Humedad	95
92933	7	Sololá	704	Santa Lucía Utatlán 	7	Santa Rita 	5	Mayo	2023-10-05T00:00:00	2024-11-08T19:00:00	6	Velocidad del viento	0
92934	7	Sololá	704	Santa Lucía Utatlán 	7	Santa Rita 	5	Mayo	2023-10-05T00:00:00	2024-11-08T19:00:00	7	Dirección del viento	0
92935	7	Sololá	704	Santa Lucía Utatlán 	7	Santa Rita 	5	Mayo	2023-10-05T00:00:00	2024-11-08T19:00:00	1	Precipitación	2.8
92936	7	Sololá	704	Santa Lucía Utatlán 	7	Santa Rita 	5	Mayo	2023-10-05T00:00:00	2024-11-08T19:00:00	8	Radiación solar	0
92937	7	Sololá	704	Santa Lucía Utatlán 	7	Santa Rita 	5	Mayo	2023-10-05T00:00:00	2024-11-08T20:00:00	2	Temperatura media	19.5
92938	7	Sololá	704	Santa Lucía Utatlán 	7	Santa Rita 	5	Mayo	2023-10-05T00:00:00	2024-11-08T20:00:00	4	Temperatura máxima	19.9
92939	7	Sololá	704	Santa Lucía Utatlán 	7	Santa Rita 	5	Mayo	2023-10-05T00:00:00	2024-11-08T20:00:00	3	Temperatura mínima	19.5
92940	7	Sololá	704	Santa Lucía Utatlán 	7	Santa Rita 	5	Mayo	2023-10-05T00:00:00	2024-11-08T20:00:00	5	Humedad	95
92941	7	Sololá	704	Santa Lucía Utatlán 	7	Santa Rita 	5	Mayo	2023-10-05T00:00:00	2024-11-08T20:00:00	6	Velocidad del viento	1.6
92942	7	Sololá	704	Santa Lucía Utatlán 	7	Santa Rita 	5	Mayo	2023-10-05T00:00:00	2024-11-08T20:00:00	7	Dirección del viento	1.61
92943	7	Sololá	704	Santa Lucía Utatlán 	7	Santa Rita 	5	Mayo	2023-10-05T00:00:00	2024-11-08T20:00:00	1	Precipitación	2.6
92944	7	Sololá	704	Santa Lucía Utatlán 	7	Santa Rita 	5	Mayo	2023-10-05T00:00:00	2024-11-08T20:00:00	8	Radiación solar	0
92945	7	Sololá	704	Santa Lucía Utatlán 	7	Santa Rita 	5	Mayo	2023-10-05T00:00:00	2024-11-08T21:00:00	2	Temperatura media	17.3
92946	7	Sololá	704	Santa Lucía Utatlán 	7	Santa Rita 	5	Mayo	2023-10-05T00:00:00	2024-11-08T21:00:00	4	Temperatura máxima	19.6
92947	7	Sololá	704	Santa Lucía Utatlán 	7	Santa Rita 	5	Mayo	2023-10-05T00:00:00	2024-11-08T21:00:00	3	Temperatura mínima	17.3
92948	7	Sololá	704	Santa Lucía Utatlán 	7	Santa Rita 	5	Mayo	2023-10-05T00:00:00	2024-11-08T21:00:00	5	Humedad	92
92949	7	Sololá	704	Santa Lucía Utatlán 	7	Santa Rita 	5	Mayo	2023-10-05T00:00:00	2024-11-08T21:00:00	6	Velocidad del viento	4.8
92950	7	Sololá	704	Santa Lucía Utatlán 	7	Santa Rita 	5	Mayo	2023-10-05T00:00:00	2024-11-08T21:00:00	7	Dirección del viento	4.83
92951	7	Sololá	704	Santa Lucía Utatlán 	7	Santa Rita 	5	Mayo	2023-10-05T00:00:00	2024-11-08T21:00:00	1	Precipitación	17.4
92952	7	Sololá	704	Santa Lucía Utatlán 	7	Santa Rita 	5	Mayo	2023-10-05T00:00:00	2024-11-08T21:00:00	8	Radiación solar	0
92953	7	Sololá	704	Santa Lucía Utatlán 	7	Santa Rita 	5	Mayo	2023-10-05T00:00:00	2024-11-08T22:00:00	2	Temperatura media	15.9
92954	7	Sololá	704	Santa Lucía Utatlán 	7	Santa Rita 	5	Mayo	2023-10-05T00:00:00	2024-11-08T22:00:00	4	Temperatura máxima	17.3
92955	7	Sololá	704	Santa Lucía Utatlán 	7	Santa Rita 	5	Mayo	2023-10-05T00:00:00	2024-11-08T22:00:00	3	Temperatura mínima	15.9
92956	7	Sololá	704	Santa Lucía Utatlán 	7	Santa Rita 	5	Mayo	2023-10-05T00:00:00	2024-11-08T22:00:00	5	Humedad	91
92957	7	Sololá	704	Santa Lucía Utatlán 	7	Santa Rita 	5	Mayo	2023-10-05T00:00:00	2024-11-08T22:00:00	6	Velocidad del viento	1.6
92958	7	Sololá	704	Santa Lucía Utatlán 	7	Santa Rita 	5	Mayo	2023-10-05T00:00:00	2024-11-08T22:00:00	7	Dirección del viento	1.61
92959	7	Sololá	704	Santa Lucía Utatlán 	7	Santa Rita 	5	Mayo	2023-10-05T00:00:00	2024-11-08T22:00:00	1	Precipitación	1
92960	7	Sololá	704	Santa Lucía Utatlán 	7	Santa Rita 	5	Mayo	2023-10-05T00:00:00	2024-11-08T22:00:00	8	Radiación solar	0
92961	7	Sololá	704	Santa Lucía Utatlán 	7	Santa Rita 	5	Mayo	2023-10-05T00:00:00	2024-11-08T23:00:00	2	Temperatura media	16
92962	7	Sololá	704	Santa Lucía Utatlán 	7	Santa Rita 	5	Mayo	2023-10-05T00:00:00	2024-11-08T23:00:00	4	Temperatura máxima	16.1
92963	7	Sololá	704	Santa Lucía Utatlán 	7	Santa Rita 	5	Mayo	2023-10-05T00:00:00	2024-11-08T23:00:00	3	Temperatura mínima	15.7
92964	7	Sololá	704	Santa Lucía Utatlán 	7	Santa Rita 	5	Mayo	2023-10-05T00:00:00	2024-11-08T23:00:00	5	Humedad	89
92965	7	Sololá	704	Santa Lucía Utatlán 	7	Santa Rita 	5	Mayo	2023-10-05T00:00:00	2024-11-08T23:00:00	6	Velocidad del viento	3.2
92966	7	Sololá	704	Santa Lucía Utatlán 	7	Santa Rita 	5	Mayo	2023-10-05T00:00:00	2024-11-08T23:00:00	7	Dirección del viento	3.22
92967	7	Sololá	704	Santa Lucía Utatlán 	7	Santa Rita 	5	Mayo	2023-10-05T00:00:00	2024-11-08T23:00:00	1	Precipitación	0
92968	7	Sololá	704	Santa Lucía Utatlán 	7	Santa Rita 	5	Mayo	2023-10-05T00:00:00	2024-11-08T23:00:00	8	Radiación solar	0
92969	7	Sololá	704	Santa Lucía Utatlán 	7	Santa Rita 	5	Mayo	2023-11-05T00:00:00	2024-11-08T00:00:00	2	Temperatura media	17.8
92970	7	Sololá	704	Santa Lucía Utatlán 	7	Santa Rita 	5	Mayo	2023-11-05T00:00:00	2024-11-08T00:00:00	4	Temperatura máxima	18.2
92971	7	Sololá	704	Santa Lucía Utatlán 	7	Santa Rita 	5	Mayo	2023-11-05T00:00:00	2024-11-08T00:00:00	3	Temperatura mínima	15.9
92972	7	Sololá	704	Santa Lucía Utatlán 	7	Santa Rita 	5	Mayo	2023-11-05T00:00:00	2024-11-08T00:00:00	5	Humedad	77
92973	7	Sololá	704	Santa Lucía Utatlán 	7	Santa Rita 	5	Mayo	2023-11-05T00:00:00	2024-11-08T00:00:00	6	Velocidad del viento	4.8
92974	7	Sololá	704	Santa Lucía Utatlán 	7	Santa Rita 	5	Mayo	2023-11-05T00:00:00	2024-11-08T00:00:00	7	Dirección del viento	4.83
92975	7	Sololá	704	Santa Lucía Utatlán 	7	Santa Rita 	5	Mayo	2023-11-05T00:00:00	2024-11-08T00:00:00	1	Precipitación	0
92976	7	Sololá	704	Santa Lucía Utatlán 	7	Santa Rita 	5	Mayo	2023-11-05T00:00:00	2024-11-08T00:00:00	8	Radiación solar	0
92977	7	Sololá	704	Santa Lucía Utatlán 	7	Santa Rita 	5	Mayo	2023-11-05T00:00:00	2024-11-08T01:00:00	2	Temperatura media	16.1
92978	7	Sololá	704	Santa Lucía Utatlán 	7	Santa Rita 	5	Mayo	2023-11-05T00:00:00	2024-11-08T01:00:00	4	Temperatura máxima	18.6
92979	7	Sololá	704	Santa Lucía Utatlán 	7	Santa Rita 	5	Mayo	2023-11-05T00:00:00	2024-11-08T01:00:00	3	Temperatura mínima	16.1
92980	7	Sololá	704	Santa Lucía Utatlán 	7	Santa Rita 	5	Mayo	2023-11-05T00:00:00	2024-11-08T01:00:00	5	Humedad	88
92981	7	Sololá	704	Santa Lucía Utatlán 	7	Santa Rita 	5	Mayo	2023-11-05T00:00:00	2024-11-08T01:00:00	6	Velocidad del viento	3.2
92982	7	Sololá	704	Santa Lucía Utatlán 	7	Santa Rita 	5	Mayo	2023-11-05T00:00:00	2024-11-08T01:00:00	7	Dirección del viento	3.22
92983	7	Sololá	704	Santa Lucía Utatlán 	7	Santa Rita 	5	Mayo	2023-11-05T00:00:00	2024-11-08T01:00:00	1	Precipitación	0
92984	7	Sololá	704	Santa Lucía Utatlán 	7	Santa Rita 	5	Mayo	2023-11-05T00:00:00	2024-11-08T01:00:00	8	Radiación solar	0
92985	7	Sololá	704	Santa Lucía Utatlán 	7	Santa Rita 	5	Mayo	2023-11-05T00:00:00	2024-11-08T02:00:00	2	Temperatura media	15.6
92986	7	Sololá	704	Santa Lucía Utatlán 	7	Santa Rita 	5	Mayo	2023-11-05T00:00:00	2024-11-08T02:00:00	4	Temperatura máxima	16.1
92987	7	Sololá	704	Santa Lucía Utatlán 	7	Santa Rita 	5	Mayo	2023-11-05T00:00:00	2024-11-08T02:00:00	3	Temperatura mínima	15.5
92988	7	Sololá	704	Santa Lucía Utatlán 	7	Santa Rita 	5	Mayo	2023-11-05T00:00:00	2024-11-08T02:00:00	5	Humedad	89
92989	7	Sololá	704	Santa Lucía Utatlán 	7	Santa Rita 	5	Mayo	2023-11-05T00:00:00	2024-11-08T02:00:00	6	Velocidad del viento	3.2
92990	7	Sololá	704	Santa Lucía Utatlán 	7	Santa Rita 	5	Mayo	2023-11-05T00:00:00	2024-11-08T02:00:00	7	Dirección del viento	3.22
92991	7	Sololá	704	Santa Lucía Utatlán 	7	Santa Rita 	5	Mayo	2023-11-05T00:00:00	2024-11-08T02:00:00	1	Precipitación	0
92992	7	Sololá	704	Santa Lucía Utatlán 	7	Santa Rita 	5	Mayo	2023-11-05T00:00:00	2024-11-08T02:00:00	8	Radiación solar	0
92993	7	Sololá	704	Santa Lucía Utatlán 	7	Santa Rita 	5	Mayo	2023-11-05T00:00:00	2024-11-08T03:00:00	2	Temperatura media	16.5
92994	7	Sololá	704	Santa Lucía Utatlán 	7	Santa Rita 	5	Mayo	2023-11-05T00:00:00	2024-11-08T03:00:00	4	Temperatura máxima	16.6
92995	7	Sololá	704	Santa Lucía Utatlán 	7	Santa Rita 	5	Mayo	2023-11-05T00:00:00	2024-11-08T03:00:00	3	Temperatura mínima	15.6
92996	7	Sololá	704	Santa Lucía Utatlán 	7	Santa Rita 	5	Mayo	2023-11-05T00:00:00	2024-11-08T03:00:00	5	Humedad	87
92997	7	Sololá	704	Santa Lucía Utatlán 	7	Santa Rita 	5	Mayo	2023-11-05T00:00:00	2024-11-08T03:00:00	6	Velocidad del viento	3.2
92998	7	Sololá	704	Santa Lucía Utatlán 	7	Santa Rita 	5	Mayo	2023-11-05T00:00:00	2024-11-08T03:00:00	7	Dirección del viento	3.22
92999	7	Sololá	704	Santa Lucía Utatlán 	7	Santa Rita 	5	Mayo	2023-11-05T00:00:00	2024-11-08T03:00:00	1	Precipitación	0
93000	7	Sololá	704	Santa Lucía Utatlán 	7	Santa Rita 	5	Mayo	2023-11-05T00:00:00	2024-11-08T03:00:00	8	Radiación solar	0
93001	7	Sololá	704	Santa Lucía Utatlán 	7	Santa Rita 	5	Mayo	2023-11-05T00:00:00	2024-11-08T04:00:00	2	Temperatura media	16.2
93002	7	Sololá	704	Santa Lucía Utatlán 	7	Santa Rita 	5	Mayo	2023-11-05T00:00:00	2024-11-08T04:00:00	4	Temperatura máxima	16.6
93003	7	Sololá	704	Santa Lucía Utatlán 	7	Santa Rita 	5	Mayo	2023-11-05T00:00:00	2024-11-08T04:00:00	3	Temperatura mínima	16.2
93004	7	Sololá	704	Santa Lucía Utatlán 	7	Santa Rita 	5	Mayo	2023-11-05T00:00:00	2024-11-08T04:00:00	5	Humedad	84
93005	7	Sololá	704	Santa Lucía Utatlán 	7	Santa Rita 	5	Mayo	2023-11-05T00:00:00	2024-11-08T04:00:00	6	Velocidad del viento	3.2
93006	7	Sololá	704	Santa Lucía Utatlán 	7	Santa Rita 	5	Mayo	2023-11-05T00:00:00	2024-11-08T04:00:00	7	Dirección del viento	3.22
93007	7	Sololá	704	Santa Lucía Utatlán 	7	Santa Rita 	5	Mayo	2023-11-05T00:00:00	2024-11-08T04:00:00	1	Precipitación	0
93008	7	Sololá	704	Santa Lucía Utatlán 	7	Santa Rita 	5	Mayo	2023-11-05T00:00:00	2024-11-08T04:00:00	8	Radiación solar	0
93009	7	Sololá	704	Santa Lucía Utatlán 	7	Santa Rita 	5	Mayo	2023-11-05T00:00:00	2024-11-08T05:00:00	2	Temperatura media	15.9
93010	7	Sololá	704	Santa Lucía Utatlán 	7	Santa Rita 	5	Mayo	2023-11-05T00:00:00	2024-11-08T05:00:00	4	Temperatura máxima	16.2
93011	7	Sololá	704	Santa Lucía Utatlán 	7	Santa Rita 	5	Mayo	2023-11-05T00:00:00	2024-11-08T05:00:00	3	Temperatura mínima	15.8
93012	7	Sololá	704	Santa Lucía Utatlán 	7	Santa Rita 	5	Mayo	2023-11-05T00:00:00	2024-11-08T05:00:00	5	Humedad	83
93013	7	Sololá	704	Santa Lucía Utatlán 	7	Santa Rita 	5	Mayo	2023-11-05T00:00:00	2024-11-08T05:00:00	6	Velocidad del viento	1.6
93014	7	Sololá	704	Santa Lucía Utatlán 	7	Santa Rita 	5	Mayo	2023-11-05T00:00:00	2024-11-08T05:00:00	7	Dirección del viento	1.61
93015	7	Sololá	704	Santa Lucía Utatlán 	7	Santa Rita 	5	Mayo	2023-11-05T00:00:00	2024-11-08T05:00:00	1	Precipitación	0
93016	7	Sololá	704	Santa Lucía Utatlán 	7	Santa Rita 	5	Mayo	2023-11-05T00:00:00	2024-11-08T05:00:00	8	Radiación solar	0
93017	7	Sololá	704	Santa Lucía Utatlán 	7	Santa Rita 	5	Mayo	2023-11-05T00:00:00	2024-11-08T06:00:00	2	Temperatura media	16.6
93018	7	Sololá	704	Santa Lucía Utatlán 	7	Santa Rita 	5	Mayo	2023-11-05T00:00:00	2024-11-08T06:00:00	4	Temperatura máxima	16.6
93019	7	Sololá	704	Santa Lucía Utatlán 	7	Santa Rita 	5	Mayo	2023-11-05T00:00:00	2024-11-08T06:00:00	3	Temperatura mínima	15.9
93020	7	Sololá	704	Santa Lucía Utatlán 	7	Santa Rita 	5	Mayo	2023-11-05T00:00:00	2024-11-08T06:00:00	5	Humedad	86
93021	7	Sololá	704	Santa Lucía Utatlán 	7	Santa Rita 	5	Mayo	2023-11-05T00:00:00	2024-11-08T06:00:00	6	Velocidad del viento	3.2
93022	7	Sololá	704	Santa Lucía Utatlán 	7	Santa Rita 	5	Mayo	2023-11-05T00:00:00	2024-11-08T06:00:00	7	Dirección del viento	3.22
93023	7	Sololá	704	Santa Lucía Utatlán 	7	Santa Rita 	5	Mayo	2023-11-05T00:00:00	2024-11-08T06:00:00	1	Precipitación	0
93024	7	Sololá	704	Santa Lucía Utatlán 	7	Santa Rita 	5	Mayo	2023-11-05T00:00:00	2024-11-08T06:00:00	8	Radiación solar	0
93025	7	Sololá	704	Santa Lucía Utatlán 	7	Santa Rita 	5	Mayo	2023-11-05T00:00:00	2024-11-08T07:00:00	2	Temperatura media	16.9
93026	7	Sololá	704	Santa Lucía Utatlán 	7	Santa Rita 	5	Mayo	2023-11-05T00:00:00	2024-11-08T07:00:00	4	Temperatura máxima	17
93027	7	Sololá	704	Santa Lucía Utatlán 	7	Santa Rita 	5	Mayo	2023-11-05T00:00:00	2024-11-08T07:00:00	3	Temperatura mínima	16.6
93028	7	Sololá	704	Santa Lucía Utatlán 	7	Santa Rita 	5	Mayo	2023-11-05T00:00:00	2024-11-08T07:00:00	5	Humedad	86
93029	7	Sololá	704	Santa Lucía Utatlán 	7	Santa Rita 	5	Mayo	2023-11-05T00:00:00	2024-11-08T07:00:00	6	Velocidad del viento	3.2
93030	7	Sololá	704	Santa Lucía Utatlán 	7	Santa Rita 	5	Mayo	2023-11-05T00:00:00	2024-11-08T07:00:00	7	Dirección del viento	3.22
93031	7	Sololá	704	Santa Lucía Utatlán 	7	Santa Rita 	5	Mayo	2023-11-05T00:00:00	2024-11-08T07:00:00	1	Precipitación	0
93032	7	Sololá	704	Santa Lucía Utatlán 	7	Santa Rita 	5	Mayo	2023-11-05T00:00:00	2024-11-08T07:00:00	8	Radiación solar	5
93033	7	Sololá	704	Santa Lucía Utatlán 	7	Santa Rita 	5	Mayo	2023-11-05T00:00:00	2024-11-08T08:00:00	2	Temperatura media	19.9
93034	7	Sololá	704	Santa Lucía Utatlán 	7	Santa Rita 	5	Mayo	2023-11-05T00:00:00	2024-11-08T08:00:00	4	Temperatura máxima	19.9
93035	7	Sololá	704	Santa Lucía Utatlán 	7	Santa Rita 	5	Mayo	2023-11-05T00:00:00	2024-11-08T08:00:00	3	Temperatura mínima	16.9
93036	7	Sololá	704	Santa Lucía Utatlán 	7	Santa Rita 	5	Mayo	2023-11-05T00:00:00	2024-11-08T08:00:00	5	Humedad	74
93037	7	Sololá	704	Santa Lucía Utatlán 	7	Santa Rita 	5	Mayo	2023-11-05T00:00:00	2024-11-08T08:00:00	6	Velocidad del viento	1.6
93038	7	Sololá	704	Santa Lucía Utatlán 	7	Santa Rita 	5	Mayo	2023-11-05T00:00:00	2024-11-08T08:00:00	7	Dirección del viento	1.61
93039	7	Sololá	704	Santa Lucía Utatlán 	7	Santa Rita 	5	Mayo	2023-11-05T00:00:00	2024-11-08T08:00:00	1	Precipitación	0
93040	7	Sololá	704	Santa Lucía Utatlán 	7	Santa Rita 	5	Mayo	2023-11-05T00:00:00	2024-11-08T08:00:00	8	Radiación solar	110
93041	7	Sololá	704	Santa Lucía Utatlán 	7	Santa Rita 	5	Mayo	2023-11-05T00:00:00	2024-11-08T09:00:00	2	Temperatura media	21.1
93042	7	Sololá	704	Santa Lucía Utatlán 	7	Santa Rita 	5	Mayo	2023-11-05T00:00:00	2024-11-08T09:00:00	4	Temperatura máxima	21.1
93043	7	Sololá	704	Santa Lucía Utatlán 	7	Santa Rita 	5	Mayo	2023-11-05T00:00:00	2024-11-08T09:00:00	3	Temperatura mínima	19.9
93044	7	Sololá	704	Santa Lucía Utatlán 	7	Santa Rita 	5	Mayo	2023-11-05T00:00:00	2024-11-08T09:00:00	5	Humedad	72
93045	7	Sololá	704	Santa Lucía Utatlán 	7	Santa Rita 	5	Mayo	2023-11-05T00:00:00	2024-11-08T09:00:00	6	Velocidad del viento	1.6
93046	7	Sololá	704	Santa Lucía Utatlán 	7	Santa Rita 	5	Mayo	2023-11-05T00:00:00	2024-11-08T09:00:00	7	Dirección del viento	1.61
93047	7	Sololá	704	Santa Lucía Utatlán 	7	Santa Rita 	5	Mayo	2023-11-05T00:00:00	2024-11-08T09:00:00	1	Precipitación	0
93048	7	Sololá	704	Santa Lucía Utatlán 	7	Santa Rita 	5	Mayo	2023-11-05T00:00:00	2024-11-08T09:00:00	8	Radiación solar	401
93049	7	Sololá	704	Santa Lucía Utatlán 	7	Santa Rita 	5	Mayo	2023-11-05T00:00:00	2024-11-08T10:00:00	2	Temperatura media	22.6
93050	7	Sololá	704	Santa Lucía Utatlán 	7	Santa Rita 	5	Mayo	2023-11-05T00:00:00	2024-11-08T10:00:00	4	Temperatura máxima	22.8
93051	7	Sololá	704	Santa Lucía Utatlán 	7	Santa Rita 	5	Mayo	2023-11-05T00:00:00	2024-11-08T10:00:00	3	Temperatura mínima	21.1
93052	7	Sololá	704	Santa Lucía Utatlán 	7	Santa Rita 	5	Mayo	2023-11-05T00:00:00	2024-11-08T10:00:00	5	Humedad	70
93053	7	Sololá	704	Santa Lucía Utatlán 	7	Santa Rita 	5	Mayo	2023-11-05T00:00:00	2024-11-08T10:00:00	6	Velocidad del viento	4.8
93054	7	Sololá	704	Santa Lucía Utatlán 	7	Santa Rita 	5	Mayo	2023-11-05T00:00:00	2024-11-08T10:00:00	7	Dirección del viento	4.83
93055	7	Sololá	704	Santa Lucía Utatlán 	7	Santa Rita 	5	Mayo	2023-11-05T00:00:00	2024-11-08T10:00:00	1	Precipitación	0
93056	7	Sololá	704	Santa Lucía Utatlán 	7	Santa Rita 	5	Mayo	2023-11-05T00:00:00	2024-11-08T10:00:00	8	Radiación solar	641
93057	7	Sololá	704	Santa Lucía Utatlán 	7	Santa Rita 	5	Mayo	2023-11-05T00:00:00	2024-11-08T11:00:00	2	Temperatura media	22.8
93058	7	Sololá	704	Santa Lucía Utatlán 	7	Santa Rita 	5	Mayo	2023-11-05T00:00:00	2024-11-08T11:00:00	4	Temperatura máxima	23
93059	7	Sololá	704	Santa Lucía Utatlán 	7	Santa Rita 	5	Mayo	2023-11-05T00:00:00	2024-11-08T11:00:00	3	Temperatura mínima	22.2
93060	7	Sololá	704	Santa Lucía Utatlán 	7	Santa Rita 	5	Mayo	2023-11-05T00:00:00	2024-11-08T11:00:00	5	Humedad	73
93061	7	Sololá	704	Santa Lucía Utatlán 	7	Santa Rita 	5	Mayo	2023-11-05T00:00:00	2024-11-08T11:00:00	6	Velocidad del viento	4.8
93062	7	Sololá	704	Santa Lucía Utatlán 	7	Santa Rita 	5	Mayo	2023-11-05T00:00:00	2024-11-08T11:00:00	7	Dirección del viento	4.83
93063	7	Sololá	704	Santa Lucía Utatlán 	7	Santa Rita 	5	Mayo	2023-11-05T00:00:00	2024-11-08T11:00:00	1	Precipitación	0
93064	7	Sololá	704	Santa Lucía Utatlán 	7	Santa Rita 	5	Mayo	2023-11-05T00:00:00	2024-11-08T11:00:00	8	Radiación solar	470
93065	7	Sololá	704	Santa Lucía Utatlán 	7	Santa Rita 	5	Mayo	2023-11-05T00:00:00	2024-11-08T12:00:00	2	Temperatura media	22.4
93066	7	Sololá	704	Santa Lucía Utatlán 	7	Santa Rita 	5	Mayo	2023-11-05T00:00:00	2024-11-08T12:00:00	4	Temperatura máxima	23.4
93067	7	Sololá	704	Santa Lucía Utatlán 	7	Santa Rita 	5	Mayo	2023-11-05T00:00:00	2024-11-08T12:00:00	3	Temperatura mínima	22.3
93068	7	Sololá	704	Santa Lucía Utatlán 	7	Santa Rita 	5	Mayo	2023-11-05T00:00:00	2024-11-08T12:00:00	5	Humedad	78
93069	7	Sololá	704	Santa Lucía Utatlán 	7	Santa Rita 	5	Mayo	2023-11-05T00:00:00	2024-11-08T12:00:00	6	Velocidad del viento	4.8
93070	7	Sololá	704	Santa Lucía Utatlán 	7	Santa Rita 	5	Mayo	2023-11-05T00:00:00	2024-11-08T12:00:00	7	Dirección del viento	4.83
93071	7	Sololá	704	Santa Lucía Utatlán 	7	Santa Rita 	5	Mayo	2023-11-05T00:00:00	2024-11-08T12:00:00	1	Precipitación	0
93072	7	Sololá	704	Santa Lucía Utatlán 	7	Santa Rita 	5	Mayo	2023-11-05T00:00:00	2024-11-08T12:00:00	8	Radiación solar	483
93073	7	Sololá	704	Santa Lucía Utatlán 	7	Santa Rita 	5	Mayo	2023-11-05T00:00:00	2024-11-08T13:00:00	2	Temperatura media	21.6
93074	7	Sololá	704	Santa Lucía Utatlán 	7	Santa Rita 	5	Mayo	2023-11-05T00:00:00	2024-11-08T13:00:00	4	Temperatura máxima	22.5
93075	7	Sololá	704	Santa Lucía Utatlán 	7	Santa Rita 	5	Mayo	2023-11-05T00:00:00	2024-11-08T13:00:00	3	Temperatura mínima	21.6
93076	7	Sololá	704	Santa Lucía Utatlán 	7	Santa Rita 	5	Mayo	2023-11-05T00:00:00	2024-11-08T13:00:00	5	Humedad	81
93077	7	Sololá	704	Santa Lucía Utatlán 	7	Santa Rita 	5	Mayo	2023-11-05T00:00:00	2024-11-08T13:00:00	6	Velocidad del viento	6.4
93078	7	Sololá	704	Santa Lucía Utatlán 	7	Santa Rita 	5	Mayo	2023-11-05T00:00:00	2024-11-08T13:00:00	7	Dirección del viento	6.44
93079	7	Sololá	704	Santa Lucía Utatlán 	7	Santa Rita 	5	Mayo	2023-11-05T00:00:00	2024-11-08T13:00:00	1	Precipitación	0
93080	7	Sololá	704	Santa Lucía Utatlán 	7	Santa Rita 	5	Mayo	2023-11-05T00:00:00	2024-11-08T13:00:00	8	Radiación solar	203
93081	7	Sololá	704	Santa Lucía Utatlán 	7	Santa Rita 	5	Mayo	2023-11-05T00:00:00	2024-11-08T14:00:00	2	Temperatura media	21.6
93082	7	Sololá	704	Santa Lucía Utatlán 	7	Santa Rita 	5	Mayo	2023-11-05T00:00:00	2024-11-08T14:00:00	4	Temperatura máxima	21.8
93083	7	Sololá	704	Santa Lucía Utatlán 	7	Santa Rita 	5	Mayo	2023-11-05T00:00:00	2024-11-08T14:00:00	3	Temperatura mínima	21.5
93084	7	Sololá	704	Santa Lucía Utatlán 	7	Santa Rita 	5	Mayo	2023-11-05T00:00:00	2024-11-08T14:00:00	5	Humedad	83
93085	7	Sololá	704	Santa Lucía Utatlán 	7	Santa Rita 	5	Mayo	2023-11-05T00:00:00	2024-11-08T14:00:00	6	Velocidad del viento	4.8
93086	7	Sololá	704	Santa Lucía Utatlán 	7	Santa Rita 	5	Mayo	2023-11-05T00:00:00	2024-11-08T14:00:00	7	Dirección del viento	4.83
93087	7	Sololá	704	Santa Lucía Utatlán 	7	Santa Rita 	5	Mayo	2023-11-05T00:00:00	2024-11-08T14:00:00	1	Precipitación	0
93088	7	Sololá	704	Santa Lucía Utatlán 	7	Santa Rita 	5	Mayo	2023-11-05T00:00:00	2024-11-08T14:00:00	8	Radiación solar	156
93089	7	Sololá	704	Santa Lucía Utatlán 	7	Santa Rita 	5	Mayo	2023-11-05T00:00:00	2024-11-08T15:00:00	2	Temperatura media	22.4
93090	7	Sololá	704	Santa Lucía Utatlán 	7	Santa Rita 	5	Mayo	2023-11-05T00:00:00	2024-11-08T15:00:00	4	Temperatura máxima	22.4
93091	7	Sololá	704	Santa Lucía Utatlán 	7	Santa Rita 	5	Mayo	2023-11-05T00:00:00	2024-11-08T15:00:00	3	Temperatura mínima	21.4
93092	7	Sololá	704	Santa Lucía Utatlán 	7	Santa Rita 	5	Mayo	2023-11-05T00:00:00	2024-11-08T15:00:00	5	Humedad	80
93093	7	Sololá	704	Santa Lucía Utatlán 	7	Santa Rita 	5	Mayo	2023-11-05T00:00:00	2024-11-08T15:00:00	6	Velocidad del viento	3.2
93094	7	Sololá	704	Santa Lucía Utatlán 	7	Santa Rita 	5	Mayo	2023-11-05T00:00:00	2024-11-08T15:00:00	7	Dirección del viento	3.22
93095	7	Sololá	704	Santa Lucía Utatlán 	7	Santa Rita 	5	Mayo	2023-11-05T00:00:00	2024-11-08T15:00:00	1	Precipitación	0
93096	7	Sololá	704	Santa Lucía Utatlán 	7	Santa Rita 	5	Mayo	2023-11-05T00:00:00	2024-11-08T15:00:00	8	Radiación solar	305
93097	7	Sololá	704	Santa Lucía Utatlán 	7	Santa Rita 	5	Mayo	2023-11-05T00:00:00	2024-11-08T16:00:00	2	Temperatura media	22.4
93098	7	Sololá	704	Santa Lucía Utatlán 	7	Santa Rita 	5	Mayo	2023-11-05T00:00:00	2024-11-08T16:00:00	4	Temperatura máxima	22.9
93099	7	Sololá	704	Santa Lucía Utatlán 	7	Santa Rita 	5	Mayo	2023-11-05T00:00:00	2024-11-08T16:00:00	3	Temperatura mínima	22.3
93100	7	Sololá	704	Santa Lucía Utatlán 	7	Santa Rita 	5	Mayo	2023-11-05T00:00:00	2024-11-08T16:00:00	5	Humedad	84
93101	7	Sololá	704	Santa Lucía Utatlán 	7	Santa Rita 	5	Mayo	2023-11-05T00:00:00	2024-11-08T16:00:00	6	Velocidad del viento	3.2
93102	7	Sololá	704	Santa Lucía Utatlán 	7	Santa Rita 	5	Mayo	2023-11-05T00:00:00	2024-11-08T16:00:00	7	Dirección del viento	3.22
93103	7	Sololá	704	Santa Lucía Utatlán 	7	Santa Rita 	5	Mayo	2023-11-05T00:00:00	2024-11-08T16:00:00	1	Precipitación	0
93104	7	Sololá	704	Santa Lucía Utatlán 	7	Santa Rita 	5	Mayo	2023-11-05T00:00:00	2024-11-08T16:00:00	8	Radiación solar	249
93105	7	Sololá	704	Santa Lucía Utatlán 	7	Santa Rita 	5	Mayo	2023-11-05T00:00:00	2024-11-08T17:00:00	2	Temperatura media	20.4
93106	7	Sololá	704	Santa Lucía Utatlán 	7	Santa Rita 	5	Mayo	2023-11-05T00:00:00	2024-11-08T17:00:00	4	Temperatura máxima	22.4
93107	7	Sololá	704	Santa Lucía Utatlán 	7	Santa Rita 	5	Mayo	2023-11-05T00:00:00	2024-11-08T17:00:00	3	Temperatura mínima	20.4
93108	7	Sololá	704	Santa Lucía Utatlán 	7	Santa Rita 	5	Mayo	2023-11-05T00:00:00	2024-11-08T17:00:00	5	Humedad	91
93109	7	Sololá	704	Santa Lucía Utatlán 	7	Santa Rita 	5	Mayo	2023-11-05T00:00:00	2024-11-08T17:00:00	6	Velocidad del viento	4.8
93110	7	Sololá	704	Santa Lucía Utatlán 	7	Santa Rita 	5	Mayo	2023-11-05T00:00:00	2024-11-08T17:00:00	7	Dirección del viento	4.83
93111	7	Sololá	704	Santa Lucía Utatlán 	7	Santa Rita 	5	Mayo	2023-11-05T00:00:00	2024-11-08T17:00:00	1	Precipitación	0.4
93112	7	Sololá	704	Santa Lucía Utatlán 	7	Santa Rita 	5	Mayo	2023-11-05T00:00:00	2024-11-08T17:00:00	8	Radiación solar	69
93113	7	Sololá	704	Santa Lucía Utatlán 	7	Santa Rita 	5	Mayo	2023-11-05T00:00:00	2024-11-08T18:00:00	2	Temperatura media	20.8
93114	7	Sololá	704	Santa Lucía Utatlán 	7	Santa Rita 	5	Mayo	2023-11-05T00:00:00	2024-11-08T18:00:00	4	Temperatura máxima	21.1
93115	7	Sololá	704	Santa Lucía Utatlán 	7	Santa Rita 	5	Mayo	2023-11-05T00:00:00	2024-11-08T18:00:00	3	Temperatura mínima	20.4
93116	7	Sololá	704	Santa Lucía Utatlán 	7	Santa Rita 	5	Mayo	2023-11-05T00:00:00	2024-11-08T18:00:00	5	Humedad	88
93117	7	Sololá	704	Santa Lucía Utatlán 	7	Santa Rita 	5	Mayo	2023-11-05T00:00:00	2024-11-08T18:00:00	6	Velocidad del viento	1.6
93118	7	Sololá	704	Santa Lucía Utatlán 	7	Santa Rita 	5	Mayo	2023-11-05T00:00:00	2024-11-08T18:00:00	7	Dirección del viento	1.61
93119	7	Sololá	704	Santa Lucía Utatlán 	7	Santa Rita 	5	Mayo	2023-11-05T00:00:00	2024-11-08T18:00:00	1	Precipitación	0
93120	7	Sololá	704	Santa Lucía Utatlán 	7	Santa Rita 	5	Mayo	2023-11-05T00:00:00	2024-11-08T18:00:00	8	Radiación solar	121
93121	7	Sololá	704	Santa Lucía Utatlán 	7	Santa Rita 	5	Mayo	2023-11-05T00:00:00	2024-11-08T19:00:00	2	Temperatura media	20.4
93122	7	Sololá	704	Santa Lucía Utatlán 	7	Santa Rita 	5	Mayo	2023-11-05T00:00:00	2024-11-08T19:00:00	4	Temperatura máxima	21
93123	7	Sololá	704	Santa Lucía Utatlán 	7	Santa Rita 	5	Mayo	2023-11-05T00:00:00	2024-11-08T19:00:00	3	Temperatura mínima	20.4
93124	7	Sololá	704	Santa Lucía Utatlán 	7	Santa Rita 	5	Mayo	2023-11-05T00:00:00	2024-11-08T19:00:00	5	Humedad	89
93125	7	Sololá	704	Santa Lucía Utatlán 	7	Santa Rita 	5	Mayo	2023-11-05T00:00:00	2024-11-08T19:00:00	6	Velocidad del viento	1.6
93126	7	Sololá	704	Santa Lucía Utatlán 	7	Santa Rita 	5	Mayo	2023-11-05T00:00:00	2024-11-08T19:00:00	7	Dirección del viento	1.61
93127	7	Sololá	704	Santa Lucía Utatlán 	7	Santa Rita 	5	Mayo	2023-11-05T00:00:00	2024-11-08T19:00:00	1	Precipitación	0
93128	7	Sololá	704	Santa Lucía Utatlán 	7	Santa Rita 	5	Mayo	2023-11-05T00:00:00	2024-11-08T19:00:00	8	Radiación solar	0
93129	7	Sololá	704	Santa Lucía Utatlán 	7	Santa Rita 	5	Mayo	2023-11-05T00:00:00	2024-11-08T20:00:00	2	Temperatura media	20.1
93130	7	Sololá	704	Santa Lucía Utatlán 	7	Santa Rita 	5	Mayo	2023-11-05T00:00:00	2024-11-08T20:00:00	4	Temperatura máxima	20.4
93131	7	Sololá	704	Santa Lucía Utatlán 	7	Santa Rita 	5	Mayo	2023-11-05T00:00:00	2024-11-08T20:00:00	3	Temperatura mínima	20
93132	7	Sololá	704	Santa Lucía Utatlán 	7	Santa Rita 	5	Mayo	2023-11-05T00:00:00	2024-11-08T20:00:00	5	Humedad	92
93133	7	Sololá	704	Santa Lucía Utatlán 	7	Santa Rita 	5	Mayo	2023-11-05T00:00:00	2024-11-08T20:00:00	6	Velocidad del viento	0
93134	7	Sololá	704	Santa Lucía Utatlán 	7	Santa Rita 	5	Mayo	2023-11-05T00:00:00	2024-11-08T20:00:00	7	Dirección del viento	0
93135	7	Sololá	704	Santa Lucía Utatlán 	7	Santa Rita 	5	Mayo	2023-11-05T00:00:00	2024-11-08T20:00:00	1	Precipitación	0.6
93136	7	Sololá	704	Santa Lucía Utatlán 	7	Santa Rita 	5	Mayo	2023-11-05T00:00:00	2024-11-08T20:00:00	8	Radiación solar	0
93137	7	Sololá	704	Santa Lucía Utatlán 	7	Santa Rita 	5	Mayo	2023-11-05T00:00:00	2024-11-08T21:00:00	2	Temperatura media	18.9
93138	7	Sololá	704	Santa Lucía Utatlán 	7	Santa Rita 	5	Mayo	2023-11-05T00:00:00	2024-11-08T21:00:00	4	Temperatura máxima	20.1
93139	7	Sololá	704	Santa Lucía Utatlán 	7	Santa Rita 	5	Mayo	2023-11-05T00:00:00	2024-11-08T21:00:00	3	Temperatura mínima	18.7
93140	7	Sololá	704	Santa Lucía Utatlán 	7	Santa Rita 	5	Mayo	2023-11-05T00:00:00	2024-11-08T21:00:00	5	Humedad	89
93141	7	Sololá	704	Santa Lucía Utatlán 	7	Santa Rita 	5	Mayo	2023-11-05T00:00:00	2024-11-08T21:00:00	6	Velocidad del viento	3.2
93142	7	Sololá	704	Santa Lucía Utatlán 	7	Santa Rita 	5	Mayo	2023-11-05T00:00:00	2024-11-08T21:00:00	7	Dirección del viento	3.22
93143	7	Sololá	704	Santa Lucía Utatlán 	7	Santa Rita 	5	Mayo	2023-11-05T00:00:00	2024-11-08T21:00:00	1	Precipitación	1.6
93144	7	Sololá	704	Santa Lucía Utatlán 	7	Santa Rita 	5	Mayo	2023-11-05T00:00:00	2024-11-08T21:00:00	8	Radiación solar	0
93145	7	Sololá	704	Santa Lucía Utatlán 	7	Santa Rita 	5	Mayo	2023-11-05T00:00:00	2024-11-08T22:00:00	2	Temperatura media	17.9
93146	7	Sololá	704	Santa Lucía Utatlán 	7	Santa Rita 	5	Mayo	2023-11-05T00:00:00	2024-11-08T22:00:00	4	Temperatura máxima	18.9
93147	7	Sololá	704	Santa Lucía Utatlán 	7	Santa Rita 	5	Mayo	2023-11-05T00:00:00	2024-11-08T22:00:00	3	Temperatura mínima	17.9
93148	7	Sololá	704	Santa Lucía Utatlán 	7	Santa Rita 	5	Mayo	2023-11-05T00:00:00	2024-11-08T22:00:00	5	Humedad	92
93149	7	Sololá	704	Santa Lucía Utatlán 	7	Santa Rita 	5	Mayo	2023-11-05T00:00:00	2024-11-08T22:00:00	6	Velocidad del viento	1.6
93150	7	Sololá	704	Santa Lucía Utatlán 	7	Santa Rita 	5	Mayo	2023-11-05T00:00:00	2024-11-08T22:00:00	7	Dirección del viento	1.61
93151	7	Sololá	704	Santa Lucía Utatlán 	7	Santa Rita 	5	Mayo	2023-11-05T00:00:00	2024-11-08T22:00:00	1	Precipitación	0.4
93152	7	Sololá	704	Santa Lucía Utatlán 	7	Santa Rita 	5	Mayo	2023-11-05T00:00:00	2024-11-08T22:00:00	8	Radiación solar	0
93153	7	Sololá	704	Santa Lucía Utatlán 	7	Santa Rita 	5	Mayo	2023-11-05T00:00:00	2024-11-08T23:00:00	2	Temperatura media	17.9
93154	7	Sololá	704	Santa Lucía Utatlán 	7	Santa Rita 	5	Mayo	2023-11-05T00:00:00	2024-11-08T23:00:00	4	Temperatura máxima	18.1
93155	7	Sololá	704	Santa Lucía Utatlán 	7	Santa Rita 	5	Mayo	2023-11-05T00:00:00	2024-11-08T23:00:00	3	Temperatura mínima	17.8
93156	7	Sololá	704	Santa Lucía Utatlán 	7	Santa Rita 	5	Mayo	2023-11-05T00:00:00	2024-11-08T23:00:00	5	Humedad	93
93157	7	Sololá	704	Santa Lucía Utatlán 	7	Santa Rita 	5	Mayo	2023-11-05T00:00:00	2024-11-08T23:00:00	6	Velocidad del viento	1.6
93158	7	Sololá	704	Santa Lucía Utatlán 	7	Santa Rita 	5	Mayo	2023-11-05T00:00:00	2024-11-08T23:00:00	7	Dirección del viento	1.61
93159	7	Sololá	704	Santa Lucía Utatlán 	7	Santa Rita 	5	Mayo	2023-11-05T00:00:00	2024-11-08T23:00:00	1	Precipitación	0.4
93160	7	Sololá	704	Santa Lucía Utatlán 	7	Santa Rita 	5	Mayo	2023-11-05T00:00:00	2024-11-08T23:00:00	8	Radiación solar	0
93161	7	Sololá	704	Santa Lucía Utatlán 	7	Santa Rita 	5	Mayo	2023-12-05T00:00:00	2024-11-08T00:00:00	2	Temperatura media	17.4
93162	7	Sololá	704	Santa Lucía Utatlán 	7	Santa Rita 	5	Mayo	2023-12-05T00:00:00	2024-11-08T00:00:00	4	Temperatura máxima	17.9
93163	7	Sololá	704	Santa Lucía Utatlán 	7	Santa Rita 	5	Mayo	2023-12-05T00:00:00	2024-11-08T00:00:00	3	Temperatura mínima	17.4
93164	7	Sololá	704	Santa Lucía Utatlán 	7	Santa Rita 	5	Mayo	2023-12-05T00:00:00	2024-11-08T00:00:00	5	Humedad	94
93165	7	Sololá	704	Santa Lucía Utatlán 	7	Santa Rita 	5	Mayo	2023-12-05T00:00:00	2024-11-08T00:00:00	6	Velocidad del viento	1.6
93166	7	Sololá	704	Santa Lucía Utatlán 	7	Santa Rita 	5	Mayo	2023-12-05T00:00:00	2024-11-08T00:00:00	7	Dirección del viento	1.61
93167	7	Sololá	704	Santa Lucía Utatlán 	7	Santa Rita 	5	Mayo	2023-12-05T00:00:00	2024-11-08T00:00:00	1	Precipitación	0
93168	7	Sololá	704	Santa Lucía Utatlán 	7	Santa Rita 	5	Mayo	2023-12-05T00:00:00	2024-11-08T00:00:00	8	Radiación solar	0
93169	7	Sololá	704	Santa Lucía Utatlán 	7	Santa Rita 	5	Mayo	2023-12-05T00:00:00	2024-11-08T01:00:00	2	Temperatura media	16.8
93170	7	Sololá	704	Santa Lucía Utatlán 	7	Santa Rita 	5	Mayo	2023-12-05T00:00:00	2024-11-08T01:00:00	4	Temperatura máxima	17.4
93171	7	Sololá	704	Santa Lucía Utatlán 	7	Santa Rita 	5	Mayo	2023-12-05T00:00:00	2024-11-08T01:00:00	3	Temperatura mínima	16.8
93172	7	Sololá	704	Santa Lucía Utatlán 	7	Santa Rita 	5	Mayo	2023-12-05T00:00:00	2024-11-08T01:00:00	5	Humedad	94
93173	7	Sololá	704	Santa Lucía Utatlán 	7	Santa Rita 	5	Mayo	2023-12-05T00:00:00	2024-11-08T01:00:00	6	Velocidad del viento	1.6
93174	7	Sololá	704	Santa Lucía Utatlán 	7	Santa Rita 	5	Mayo	2023-12-05T00:00:00	2024-11-08T01:00:00	7	Dirección del viento	1.61
93175	7	Sololá	704	Santa Lucía Utatlán 	7	Santa Rita 	5	Mayo	2023-12-05T00:00:00	2024-11-08T01:00:00	1	Precipitación	0
93176	7	Sololá	704	Santa Lucía Utatlán 	7	Santa Rita 	5	Mayo	2023-12-05T00:00:00	2024-11-08T01:00:00	8	Radiación solar	0
93177	7	Sololá	704	Santa Lucía Utatlán 	7	Santa Rita 	5	Mayo	2023-12-05T00:00:00	2024-11-08T02:00:00	2	Temperatura media	16.7
93178	7	Sololá	704	Santa Lucía Utatlán 	7	Santa Rita 	5	Mayo	2023-12-05T00:00:00	2024-11-08T02:00:00	4	Temperatura máxima	16.8
93179	7	Sololá	704	Santa Lucía Utatlán 	7	Santa Rita 	5	Mayo	2023-12-05T00:00:00	2024-11-08T02:00:00	3	Temperatura mínima	16.7
93180	7	Sololá	704	Santa Lucía Utatlán 	7	Santa Rita 	5	Mayo	2023-12-05T00:00:00	2024-11-08T02:00:00	5	Humedad	94
93181	7	Sololá	704	Santa Lucía Utatlán 	7	Santa Rita 	5	Mayo	2023-12-05T00:00:00	2024-11-08T02:00:00	6	Velocidad del viento	1.6
93182	7	Sololá	704	Santa Lucía Utatlán 	7	Santa Rita 	5	Mayo	2023-12-05T00:00:00	2024-11-08T02:00:00	7	Dirección del viento	1.61
93183	7	Sololá	704	Santa Lucía Utatlán 	7	Santa Rita 	5	Mayo	2023-12-05T00:00:00	2024-11-08T02:00:00	1	Precipitación	0
93184	7	Sololá	704	Santa Lucía Utatlán 	7	Santa Rita 	5	Mayo	2023-12-05T00:00:00	2024-11-08T02:00:00	8	Radiación solar	0
93185	7	Sololá	704	Santa Lucía Utatlán 	7	Santa Rita 	5	Mayo	2023-12-05T00:00:00	2024-11-08T03:00:00	2	Temperatura media	17
93186	7	Sololá	704	Santa Lucía Utatlán 	7	Santa Rita 	5	Mayo	2023-12-05T00:00:00	2024-11-08T03:00:00	4	Temperatura máxima	17
93187	7	Sololá	704	Santa Lucía Utatlán 	7	Santa Rita 	5	Mayo	2023-12-05T00:00:00	2024-11-08T03:00:00	3	Temperatura mínima	16.4
93188	7	Sololá	704	Santa Lucía Utatlán 	7	Santa Rita 	5	Mayo	2023-12-05T00:00:00	2024-11-08T03:00:00	5	Humedad	95
93189	7	Sololá	704	Santa Lucía Utatlán 	7	Santa Rita 	5	Mayo	2023-12-05T00:00:00	2024-11-08T03:00:00	6	Velocidad del viento	1.6
93190	7	Sololá	704	Santa Lucía Utatlán 	7	Santa Rita 	5	Mayo	2023-12-05T00:00:00	2024-11-08T03:00:00	7	Dirección del viento	1.61
93191	7	Sololá	704	Santa Lucía Utatlán 	7	Santa Rita 	5	Mayo	2023-12-05T00:00:00	2024-11-08T03:00:00	1	Precipitación	0
93192	7	Sololá	704	Santa Lucía Utatlán 	7	Santa Rita 	5	Mayo	2023-12-05T00:00:00	2024-11-08T03:00:00	8	Radiación solar	0
93193	7	Sololá	704	Santa Lucía Utatlán 	7	Santa Rita 	5	Mayo	2023-12-05T00:00:00	2024-11-08T04:00:00	2	Temperatura media	17.4
93194	7	Sololá	704	Santa Lucía Utatlán 	7	Santa Rita 	5	Mayo	2023-12-05T00:00:00	2024-11-08T04:00:00	4	Temperatura máxima	17.5
93195	7	Sololá	704	Santa Lucía Utatlán 	7	Santa Rita 	5	Mayo	2023-12-05T00:00:00	2024-11-08T04:00:00	3	Temperatura mínima	16.9
93196	7	Sololá	704	Santa Lucía Utatlán 	7	Santa Rita 	5	Mayo	2023-12-05T00:00:00	2024-11-08T04:00:00	5	Humedad	92
93197	7	Sololá	704	Santa Lucía Utatlán 	7	Santa Rita 	5	Mayo	2023-12-05T00:00:00	2024-11-08T04:00:00	6	Velocidad del viento	1.6
93198	7	Sololá	704	Santa Lucía Utatlán 	7	Santa Rita 	5	Mayo	2023-12-05T00:00:00	2024-11-08T04:00:00	7	Dirección del viento	1.61
93199	7	Sololá	704	Santa Lucía Utatlán 	7	Santa Rita 	5	Mayo	2023-12-05T00:00:00	2024-11-08T04:00:00	1	Precipitación	0
93200	7	Sololá	704	Santa Lucía Utatlán 	7	Santa Rita 	5	Mayo	2023-12-05T00:00:00	2024-11-08T04:00:00	8	Radiación solar	0
93201	7	Sololá	704	Santa Lucía Utatlán 	7	Santa Rita 	5	Mayo	2023-12-05T00:00:00	2024-11-08T05:00:00	2	Temperatura media	16.6
93202	7	Sololá	704	Santa Lucía Utatlán 	7	Santa Rita 	5	Mayo	2023-12-05T00:00:00	2024-11-08T05:00:00	4	Temperatura máxima	17.4
93203	7	Sololá	704	Santa Lucía Utatlán 	7	Santa Rita 	5	Mayo	2023-12-05T00:00:00	2024-11-08T05:00:00	3	Temperatura mínima	16.6
93204	7	Sololá	704	Santa Lucía Utatlán 	7	Santa Rita 	5	Mayo	2023-12-05T00:00:00	2024-11-08T05:00:00	5	Humedad	94
93205	7	Sololá	704	Santa Lucía Utatlán 	7	Santa Rita 	5	Mayo	2023-12-05T00:00:00	2024-11-08T05:00:00	6	Velocidad del viento	1.6
93206	7	Sololá	704	Santa Lucía Utatlán 	7	Santa Rita 	5	Mayo	2023-12-05T00:00:00	2024-11-08T05:00:00	7	Dirección del viento	1.61
93207	7	Sololá	704	Santa Lucía Utatlán 	7	Santa Rita 	5	Mayo	2023-12-05T00:00:00	2024-11-08T05:00:00	1	Precipitación	0
93208	7	Sololá	704	Santa Lucía Utatlán 	7	Santa Rita 	5	Mayo	2023-12-05T00:00:00	2024-11-08T05:00:00	8	Radiación solar	0
93209	7	Sololá	704	Santa Lucía Utatlán 	7	Santa Rita 	5	Mayo	2023-12-05T00:00:00	2024-11-08T06:00:00	2	Temperatura media	16.7
93210	7	Sololá	704	Santa Lucía Utatlán 	7	Santa Rita 	5	Mayo	2023-12-05T00:00:00	2024-11-08T06:00:00	4	Temperatura máxima	16.7
93211	7	Sololá	704	Santa Lucía Utatlán 	7	Santa Rita 	5	Mayo	2023-12-05T00:00:00	2024-11-08T06:00:00	3	Temperatura mínima	16.6
93212	7	Sololá	704	Santa Lucía Utatlán 	7	Santa Rita 	5	Mayo	2023-12-05T00:00:00	2024-11-08T06:00:00	5	Humedad	91
93213	7	Sololá	704	Santa Lucía Utatlán 	7	Santa Rita 	5	Mayo	2023-12-05T00:00:00	2024-11-08T06:00:00	6	Velocidad del viento	1.6
93214	7	Sololá	704	Santa Lucía Utatlán 	7	Santa Rita 	5	Mayo	2023-12-05T00:00:00	2024-11-08T06:00:00	7	Dirección del viento	1.61
93215	7	Sololá	704	Santa Lucía Utatlán 	7	Santa Rita 	5	Mayo	2023-12-05T00:00:00	2024-11-08T06:00:00	1	Precipitación	0.2
93216	7	Sololá	704	Santa Lucía Utatlán 	7	Santa Rita 	5	Mayo	2023-12-05T00:00:00	2024-11-08T06:00:00	8	Radiación solar	0
93217	7	Sololá	704	Santa Lucía Utatlán 	7	Santa Rita 	5	Mayo	2023-12-05T00:00:00	2024-11-08T07:00:00	2	Temperatura media	16.4
93218	7	Sololá	704	Santa Lucía Utatlán 	7	Santa Rita 	5	Mayo	2023-12-05T00:00:00	2024-11-08T07:00:00	4	Temperatura máxima	16.7
93219	7	Sololá	704	Santa Lucía Utatlán 	7	Santa Rita 	5	Mayo	2023-12-05T00:00:00	2024-11-08T07:00:00	3	Temperatura mínima	16.4
93220	7	Sololá	704	Santa Lucía Utatlán 	7	Santa Rita 	5	Mayo	2023-12-05T00:00:00	2024-11-08T07:00:00	5	Humedad	90
93221	7	Sololá	704	Santa Lucía Utatlán 	7	Santa Rita 	5	Mayo	2023-12-05T00:00:00	2024-11-08T07:00:00	6	Velocidad del viento	1.6
93222	7	Sololá	704	Santa Lucía Utatlán 	7	Santa Rita 	5	Mayo	2023-12-05T00:00:00	2024-11-08T07:00:00	7	Dirección del viento	1.61
93223	7	Sololá	704	Santa Lucía Utatlán 	7	Santa Rita 	5	Mayo	2023-12-05T00:00:00	2024-11-08T07:00:00	1	Precipitación	0
93224	7	Sololá	704	Santa Lucía Utatlán 	7	Santa Rita 	5	Mayo	2023-12-05T00:00:00	2024-11-08T07:00:00	8	Radiación solar	7
93225	7	Sololá	704	Santa Lucía Utatlán 	7	Santa Rita 	5	Mayo	2023-12-05T00:00:00	2024-11-08T08:00:00	2	Temperatura media	19
93226	7	Sololá	704	Santa Lucía Utatlán 	7	Santa Rita 	5	Mayo	2023-12-05T00:00:00	2024-11-08T08:00:00	4	Temperatura máxima	19
93227	7	Sololá	704	Santa Lucía Utatlán 	7	Santa Rita 	5	Mayo	2023-12-05T00:00:00	2024-11-08T08:00:00	3	Temperatura mínima	16.4
93228	7	Sololá	704	Santa Lucía Utatlán 	7	Santa Rita 	5	Mayo	2023-12-05T00:00:00	2024-11-08T08:00:00	5	Humedad	88
93229	7	Sololá	704	Santa Lucía Utatlán 	7	Santa Rita 	5	Mayo	2023-12-05T00:00:00	2024-11-08T08:00:00	6	Velocidad del viento	0
93230	7	Sololá	704	Santa Lucía Utatlán 	7	Santa Rita 	5	Mayo	2023-12-05T00:00:00	2024-11-08T08:00:00	7	Dirección del viento	0
93231	7	Sololá	704	Santa Lucía Utatlán 	7	Santa Rita 	5	Mayo	2023-12-05T00:00:00	2024-11-08T08:00:00	1	Precipitación	0
93232	7	Sololá	704	Santa Lucía Utatlán 	7	Santa Rita 	5	Mayo	2023-12-05T00:00:00	2024-11-08T08:00:00	8	Radiación solar	125
93233	7	Sololá	704	Santa Lucía Utatlán 	7	Santa Rita 	5	Mayo	2023-12-05T00:00:00	2024-11-08T09:00:00	2	Temperatura media	21.4
93234	7	Sololá	704	Santa Lucía Utatlán 	7	Santa Rita 	5	Mayo	2023-12-05T00:00:00	2024-11-08T09:00:00	4	Temperatura máxima	21.4
93235	7	Sololá	704	Santa Lucía Utatlán 	7	Santa Rita 	5	Mayo	2023-12-05T00:00:00	2024-11-08T09:00:00	3	Temperatura mínima	19
93236	7	Sololá	704	Santa Lucía Utatlán 	7	Santa Rita 	5	Mayo	2023-12-05T00:00:00	2024-11-08T09:00:00	5	Humedad	82
93237	7	Sololá	704	Santa Lucía Utatlán 	7	Santa Rita 	5	Mayo	2023-12-05T00:00:00	2024-11-08T09:00:00	6	Velocidad del viento	0
93238	7	Sololá	704	Santa Lucía Utatlán 	7	Santa Rita 	5	Mayo	2023-12-05T00:00:00	2024-11-08T09:00:00	7	Dirección del viento	0
93239	7	Sololá	704	Santa Lucía Utatlán 	7	Santa Rita 	5	Mayo	2023-12-05T00:00:00	2024-11-08T09:00:00	1	Precipitación	0
93240	7	Sololá	704	Santa Lucía Utatlán 	7	Santa Rita 	5	Mayo	2023-12-05T00:00:00	2024-11-08T09:00:00	8	Radiación solar	289
93241	7	Sololá	704	Santa Lucía Utatlán 	7	Santa Rita 	5	Mayo	2023-12-05T00:00:00	2024-11-08T10:00:00	2	Temperatura media	22.4
93242	7	Sololá	704	Santa Lucía Utatlán 	7	Santa Rita 	5	Mayo	2023-12-05T00:00:00	2024-11-08T10:00:00	4	Temperatura máxima	22.4
93243	7	Sololá	704	Santa Lucía Utatlán 	7	Santa Rita 	5	Mayo	2023-12-05T00:00:00	2024-11-08T10:00:00	3	Temperatura mínima	21.4
93244	7	Sololá	704	Santa Lucía Utatlán 	7	Santa Rita 	5	Mayo	2023-12-05T00:00:00	2024-11-08T10:00:00	5	Humedad	76
93245	7	Sololá	704	Santa Lucía Utatlán 	7	Santa Rita 	5	Mayo	2023-12-05T00:00:00	2024-11-08T10:00:00	6	Velocidad del viento	3.2
93246	7	Sololá	704	Santa Lucía Utatlán 	7	Santa Rita 	5	Mayo	2023-12-05T00:00:00	2024-11-08T10:00:00	7	Dirección del viento	3.22
93247	7	Sololá	704	Santa Lucía Utatlán 	7	Santa Rita 	5	Mayo	2023-12-05T00:00:00	2024-11-08T10:00:00	1	Precipitación	0
93248	7	Sololá	704	Santa Lucía Utatlán 	7	Santa Rita 	5	Mayo	2023-12-05T00:00:00	2024-11-08T10:00:00	8	Radiación solar	529
93249	7	Sololá	704	Santa Lucía Utatlán 	7	Santa Rita 	5	Mayo	2023-12-05T00:00:00	2024-11-08T11:00:00	2	Temperatura media	22.9
93250	7	Sololá	704	Santa Lucía Utatlán 	7	Santa Rita 	5	Mayo	2023-12-05T00:00:00	2024-11-08T11:00:00	4	Temperatura máxima	22.9
93251	7	Sololá	704	Santa Lucía Utatlán 	7	Santa Rita 	5	Mayo	2023-12-05T00:00:00	2024-11-08T11:00:00	3	Temperatura mínima	22.4
93252	7	Sololá	704	Santa Lucía Utatlán 	7	Santa Rita 	5	Mayo	2023-12-05T00:00:00	2024-11-08T11:00:00	5	Humedad	77
93253	7	Sololá	704	Santa Lucía Utatlán 	7	Santa Rita 	5	Mayo	2023-12-05T00:00:00	2024-11-08T11:00:00	6	Velocidad del viento	4.8
93254	7	Sololá	704	Santa Lucía Utatlán 	7	Santa Rita 	5	Mayo	2023-12-05T00:00:00	2024-11-08T11:00:00	7	Dirección del viento	4.83
93255	7	Sololá	704	Santa Lucía Utatlán 	7	Santa Rita 	5	Mayo	2023-12-05T00:00:00	2024-11-08T11:00:00	1	Precipitación	0
93256	7	Sololá	704	Santa Lucía Utatlán 	7	Santa Rita 	5	Mayo	2023-12-05T00:00:00	2024-11-08T11:00:00	8	Radiación solar	697
93257	7	Sololá	704	Santa Lucía Utatlán 	7	Santa Rita 	5	Mayo	2023-12-05T00:00:00	2024-11-08T12:00:00	2	Temperatura media	24.2
93258	7	Sololá	704	Santa Lucía Utatlán 	7	Santa Rita 	5	Mayo	2023-12-05T00:00:00	2024-11-08T12:00:00	4	Temperatura máxima	24.2
93259	7	Sololá	704	Santa Lucía Utatlán 	7	Santa Rita 	5	Mayo	2023-12-05T00:00:00	2024-11-08T12:00:00	3	Temperatura mínima	22.9
93260	7	Sololá	704	Santa Lucía Utatlán 	7	Santa Rita 	5	Mayo	2023-12-05T00:00:00	2024-11-08T12:00:00	5	Humedad	72
93261	7	Sololá	704	Santa Lucía Utatlán 	7	Santa Rita 	5	Mayo	2023-12-05T00:00:00	2024-11-08T12:00:00	6	Velocidad del viento	3.2
93262	7	Sololá	704	Santa Lucía Utatlán 	7	Santa Rita 	5	Mayo	2023-12-05T00:00:00	2024-11-08T12:00:00	7	Dirección del viento	3.22
93263	7	Sololá	704	Santa Lucía Utatlán 	7	Santa Rita 	5	Mayo	2023-12-05T00:00:00	2024-11-08T12:00:00	1	Precipitación	0
93264	7	Sololá	704	Santa Lucía Utatlán 	7	Santa Rita 	5	Mayo	2023-12-05T00:00:00	2024-11-08T12:00:00	8	Radiación solar	528
93265	7	Sololá	704	Santa Lucía Utatlán 	7	Santa Rita 	5	Mayo	2023-12-05T00:00:00	2024-11-08T13:00:00	2	Temperatura media	23.5
93266	7	Sololá	704	Santa Lucía Utatlán 	7	Santa Rita 	5	Mayo	2023-12-05T00:00:00	2024-11-08T13:00:00	4	Temperatura máxima	24.9
93267	7	Sololá	704	Santa Lucía Utatlán 	7	Santa Rita 	5	Mayo	2023-12-05T00:00:00	2024-11-08T13:00:00	3	Temperatura mínima	23.5
93268	7	Sololá	704	Santa Lucía Utatlán 	7	Santa Rita 	5	Mayo	2023-12-05T00:00:00	2024-11-08T13:00:00	5	Humedad	76
93269	7	Sololá	704	Santa Lucía Utatlán 	7	Santa Rita 	5	Mayo	2023-12-05T00:00:00	2024-11-08T13:00:00	6	Velocidad del viento	4.8
93270	7	Sololá	704	Santa Lucía Utatlán 	7	Santa Rita 	5	Mayo	2023-12-05T00:00:00	2024-11-08T13:00:00	7	Dirección del viento	4.83
93271	7	Sololá	704	Santa Lucía Utatlán 	7	Santa Rita 	5	Mayo	2023-12-05T00:00:00	2024-11-08T13:00:00	1	Precipitación	0
93272	7	Sololá	704	Santa Lucía Utatlán 	7	Santa Rita 	5	Mayo	2023-12-05T00:00:00	2024-11-08T13:00:00	8	Radiación solar	382
93273	7	Sololá	704	Santa Lucía Utatlán 	7	Santa Rita 	5	Mayo	2023-12-05T00:00:00	2024-11-08T14:00:00	2	Temperatura media	23.8
93274	7	Sololá	704	Santa Lucía Utatlán 	7	Santa Rita 	5	Mayo	2023-12-05T00:00:00	2024-11-08T14:00:00	4	Temperatura máxima	24.7
93275	7	Sololá	704	Santa Lucía Utatlán 	7	Santa Rita 	5	Mayo	2023-12-05T00:00:00	2024-11-08T14:00:00	3	Temperatura mínima	23.2
93276	7	Sololá	704	Santa Lucía Utatlán 	7	Santa Rita 	5	Mayo	2023-12-05T00:00:00	2024-11-08T14:00:00	5	Humedad	78
93277	7	Sololá	704	Santa Lucía Utatlán 	7	Santa Rita 	5	Mayo	2023-12-05T00:00:00	2024-11-08T14:00:00	6	Velocidad del viento	4.8
93278	7	Sololá	704	Santa Lucía Utatlán 	7	Santa Rita 	5	Mayo	2023-12-05T00:00:00	2024-11-08T14:00:00	7	Dirección del viento	4.83
93279	7	Sololá	704	Santa Lucía Utatlán 	7	Santa Rita 	5	Mayo	2023-12-05T00:00:00	2024-11-08T14:00:00	1	Precipitación	0
93280	7	Sololá	704	Santa Lucía Utatlán 	7	Santa Rita 	5	Mayo	2023-12-05T00:00:00	2024-11-08T14:00:00	8	Radiación solar	345
93281	7	Sololá	704	Santa Lucía Utatlán 	7	Santa Rita 	5	Mayo	2023-12-05T00:00:00	2024-11-08T15:00:00	2	Temperatura media	23
93282	7	Sololá	704	Santa Lucía Utatlán 	7	Santa Rita 	5	Mayo	2023-12-05T00:00:00	2024-11-08T15:00:00	4	Temperatura máxima	23.8
93283	7	Sololá	704	Santa Lucía Utatlán 	7	Santa Rita 	5	Mayo	2023-12-05T00:00:00	2024-11-08T15:00:00	3	Temperatura mínima	22.7
93284	7	Sololá	704	Santa Lucía Utatlán 	7	Santa Rita 	5	Mayo	2023-12-05T00:00:00	2024-11-08T15:00:00	5	Humedad	84
93285	7	Sololá	704	Santa Lucía Utatlán 	7	Santa Rita 	5	Mayo	2023-12-05T00:00:00	2024-11-08T15:00:00	6	Velocidad del viento	4.8
93286	7	Sololá	704	Santa Lucía Utatlán 	7	Santa Rita 	5	Mayo	2023-12-05T00:00:00	2024-11-08T15:00:00	7	Dirección del viento	4.83
93287	7	Sololá	704	Santa Lucía Utatlán 	7	Santa Rita 	5	Mayo	2023-12-05T00:00:00	2024-11-08T15:00:00	1	Precipitación	0
93288	7	Sololá	704	Santa Lucía Utatlán 	7	Santa Rita 	5	Mayo	2023-12-05T00:00:00	2024-11-08T15:00:00	8	Radiación solar	147
93289	7	Sololá	704	Santa Lucía Utatlán 	7	Santa Rita 	5	Mayo	2023-12-05T00:00:00	2024-11-08T16:00:00	2	Temperatura media	22.3
93290	7	Sololá	704	Santa Lucía Utatlán 	7	Santa Rita 	5	Mayo	2023-12-05T00:00:00	2024-11-08T16:00:00	4	Temperatura máxima	23.2
93291	7	Sololá	704	Santa Lucía Utatlán 	7	Santa Rita 	5	Mayo	2023-12-05T00:00:00	2024-11-08T16:00:00	3	Temperatura mínima	22.3
93292	7	Sololá	704	Santa Lucía Utatlán 	7	Santa Rita 	5	Mayo	2023-12-05T00:00:00	2024-11-08T16:00:00	5	Humedad	85
93293	7	Sololá	704	Santa Lucía Utatlán 	7	Santa Rita 	5	Mayo	2023-12-05T00:00:00	2024-11-08T16:00:00	6	Velocidad del viento	4.8
93294	7	Sololá	704	Santa Lucía Utatlán 	7	Santa Rita 	5	Mayo	2023-12-05T00:00:00	2024-11-08T16:00:00	7	Dirección del viento	4.83
93295	7	Sololá	704	Santa Lucía Utatlán 	7	Santa Rita 	5	Mayo	2023-12-05T00:00:00	2024-11-08T16:00:00	1	Precipitación	0
93296	7	Sololá	704	Santa Lucía Utatlán 	7	Santa Rita 	5	Mayo	2023-12-05T00:00:00	2024-11-08T16:00:00	8	Radiación solar	119
93297	7	Sololá	704	Santa Lucía Utatlán 	7	Santa Rita 	5	Mayo	2023-12-05T00:00:00	2024-11-08T17:00:00	2	Temperatura media	21.6
93298	7	Sololá	704	Santa Lucía Utatlán 	7	Santa Rita 	5	Mayo	2023-12-05T00:00:00	2024-11-08T17:00:00	4	Temperatura máxima	22.3
93299	7	Sololá	704	Santa Lucía Utatlán 	7	Santa Rita 	5	Mayo	2023-12-05T00:00:00	2024-11-08T17:00:00	3	Temperatura mínima	21.6
93300	7	Sololá	704	Santa Lucía Utatlán 	7	Santa Rita 	5	Mayo	2023-12-05T00:00:00	2024-11-08T17:00:00	5	Humedad	88
93301	7	Sololá	704	Santa Lucía Utatlán 	7	Santa Rita 	5	Mayo	2023-12-05T00:00:00	2024-11-08T17:00:00	6	Velocidad del viento	3.2
93302	7	Sololá	704	Santa Lucía Utatlán 	7	Santa Rita 	5	Mayo	2023-12-05T00:00:00	2024-11-08T17:00:00	7	Dirección del viento	3.22
93303	7	Sololá	704	Santa Lucía Utatlán 	7	Santa Rita 	5	Mayo	2023-12-05T00:00:00	2024-11-08T17:00:00	1	Precipitación	0
93304	7	Sololá	704	Santa Lucía Utatlán 	7	Santa Rita 	5	Mayo	2023-12-05T00:00:00	2024-11-08T17:00:00	8	Radiación solar	53
93305	7	Sololá	704	Santa Lucía Utatlán 	7	Santa Rita 	5	Mayo	2023-12-05T00:00:00	2024-11-08T18:00:00	2	Temperatura media	21.2
93306	7	Sololá	704	Santa Lucía Utatlán 	7	Santa Rita 	5	Mayo	2023-12-05T00:00:00	2024-11-08T18:00:00	4	Temperatura máxima	21.7
93307	7	Sololá	704	Santa Lucía Utatlán 	7	Santa Rita 	5	Mayo	2023-12-05T00:00:00	2024-11-08T18:00:00	3	Temperatura mínima	21.2
93308	7	Sololá	704	Santa Lucía Utatlán 	7	Santa Rita 	5	Mayo	2023-12-05T00:00:00	2024-11-08T18:00:00	5	Humedad	91
93309	7	Sololá	704	Santa Lucía Utatlán 	7	Santa Rita 	5	Mayo	2023-12-05T00:00:00	2024-11-08T18:00:00	6	Velocidad del viento	1.6
93310	7	Sololá	704	Santa Lucía Utatlán 	7	Santa Rita 	5	Mayo	2023-12-05T00:00:00	2024-11-08T18:00:00	7	Dirección del viento	1.61
93311	7	Sololá	704	Santa Lucía Utatlán 	7	Santa Rita 	5	Mayo	2023-12-05T00:00:00	2024-11-08T18:00:00	1	Precipitación	0
93312	7	Sololá	704	Santa Lucía Utatlán 	7	Santa Rita 	5	Mayo	2023-12-05T00:00:00	2024-11-08T18:00:00	8	Radiación solar	37
93313	7	Sololá	704	Santa Lucía Utatlán 	7	Santa Rita 	5	Mayo	2023-12-05T00:00:00	2024-11-08T19:00:00	2	Temperatura media	20.4
93314	7	Sololá	704	Santa Lucía Utatlán 	7	Santa Rita 	5	Mayo	2023-12-05T00:00:00	2024-11-08T19:00:00	4	Temperatura máxima	21.2
93315	7	Sololá	704	Santa Lucía Utatlán 	7	Santa Rita 	5	Mayo	2023-12-05T00:00:00	2024-11-08T19:00:00	3	Temperatura mínima	20.4
93316	7	Sololá	704	Santa Lucía Utatlán 	7	Santa Rita 	5	Mayo	2023-12-05T00:00:00	2024-11-08T19:00:00	5	Humedad	95
93317	7	Sololá	704	Santa Lucía Utatlán 	7	Santa Rita 	5	Mayo	2023-12-05T00:00:00	2024-11-08T19:00:00	6	Velocidad del viento	3.2
93318	7	Sololá	704	Santa Lucía Utatlán 	7	Santa Rita 	5	Mayo	2023-12-05T00:00:00	2024-11-08T19:00:00	7	Dirección del viento	3.22
93319	7	Sololá	704	Santa Lucía Utatlán 	7	Santa Rita 	5	Mayo	2023-12-05T00:00:00	2024-11-08T19:00:00	1	Precipitación	0
93320	7	Sololá	704	Santa Lucía Utatlán 	7	Santa Rita 	5	Mayo	2023-12-05T00:00:00	2024-11-08T19:00:00	8	Radiación solar	0
93321	7	Sololá	704	Santa Lucía Utatlán 	7	Santa Rita 	5	Mayo	2023-12-05T00:00:00	2024-11-08T20:00:00	2	Temperatura media	20.2
93322	7	Sololá	704	Santa Lucía Utatlán 	7	Santa Rita 	5	Mayo	2023-12-05T00:00:00	2024-11-08T20:00:00	4	Temperatura máxima	20.4
93323	7	Sololá	704	Santa Lucía Utatlán 	7	Santa Rita 	5	Mayo	2023-12-05T00:00:00	2024-11-08T20:00:00	3	Temperatura mínima	20.2
93324	7	Sololá	704	Santa Lucía Utatlán 	7	Santa Rita 	5	Mayo	2023-12-05T00:00:00	2024-11-08T20:00:00	5	Humedad	95
93325	7	Sololá	704	Santa Lucía Utatlán 	7	Santa Rita 	5	Mayo	2023-12-05T00:00:00	2024-11-08T20:00:00	6	Velocidad del viento	1.6
93326	7	Sololá	704	Santa Lucía Utatlán 	7	Santa Rita 	5	Mayo	2023-12-05T00:00:00	2024-11-08T20:00:00	7	Dirección del viento	1.61
93327	7	Sololá	704	Santa Lucía Utatlán 	7	Santa Rita 	5	Mayo	2023-12-05T00:00:00	2024-11-08T20:00:00	1	Precipitación	0
93328	7	Sololá	704	Santa Lucía Utatlán 	7	Santa Rita 	5	Mayo	2023-12-05T00:00:00	2024-11-08T20:00:00	8	Radiación solar	0
93329	7	Sololá	704	Santa Lucía Utatlán 	7	Santa Rita 	5	Mayo	2023-12-05T00:00:00	2024-11-08T21:00:00	2	Temperatura media	19.9
93330	7	Sololá	704	Santa Lucía Utatlán 	7	Santa Rita 	5	Mayo	2023-12-05T00:00:00	2024-11-08T21:00:00	4	Temperatura máxima	20.2
93331	7	Sololá	704	Santa Lucía Utatlán 	7	Santa Rita 	5	Mayo	2023-12-05T00:00:00	2024-11-08T21:00:00	3	Temperatura mínima	19.8
93332	7	Sololá	704	Santa Lucía Utatlán 	7	Santa Rita 	5	Mayo	2023-12-05T00:00:00	2024-11-08T21:00:00	5	Humedad	92
93333	7	Sololá	704	Santa Lucía Utatlán 	7	Santa Rita 	5	Mayo	2023-12-05T00:00:00	2024-11-08T21:00:00	6	Velocidad del viento	1.6
93334	7	Sololá	704	Santa Lucía Utatlán 	7	Santa Rita 	5	Mayo	2023-12-05T00:00:00	2024-11-08T21:00:00	7	Dirección del viento	1.61
93335	7	Sololá	704	Santa Lucía Utatlán 	7	Santa Rita 	5	Mayo	2023-12-05T00:00:00	2024-11-08T21:00:00	1	Precipitación	0
93336	7	Sololá	704	Santa Lucía Utatlán 	7	Santa Rita 	5	Mayo	2023-12-05T00:00:00	2024-11-08T21:00:00	8	Radiación solar	0
93337	7	Sololá	704	Santa Lucía Utatlán 	7	Santa Rita 	5	Mayo	2023-12-05T00:00:00	2024-11-08T22:00:00	2	Temperatura media	19.1
93338	7	Sololá	704	Santa Lucía Utatlán 	7	Santa Rita 	5	Mayo	2023-12-05T00:00:00	2024-11-08T22:00:00	4	Temperatura máxima	19.9
93339	7	Sololá	704	Santa Lucía Utatlán 	7	Santa Rita 	5	Mayo	2023-12-05T00:00:00	2024-11-08T22:00:00	3	Temperatura mínima	19
93340	7	Sololá	704	Santa Lucía Utatlán 	7	Santa Rita 	5	Mayo	2023-12-05T00:00:00	2024-11-08T22:00:00	5	Humedad	91
93341	7	Sololá	704	Santa Lucía Utatlán 	7	Santa Rita 	5	Mayo	2023-12-05T00:00:00	2024-11-08T22:00:00	6	Velocidad del viento	1.6
93342	7	Sololá	704	Santa Lucía Utatlán 	7	Santa Rita 	5	Mayo	2023-12-05T00:00:00	2024-11-08T22:00:00	7	Dirección del viento	1.61
93343	7	Sololá	704	Santa Lucía Utatlán 	7	Santa Rita 	5	Mayo	2023-12-05T00:00:00	2024-11-08T22:00:00	1	Precipitación	0.2
93344	7	Sololá	704	Santa Lucía Utatlán 	7	Santa Rita 	5	Mayo	2023-12-05T00:00:00	2024-11-08T22:00:00	8	Radiación solar	0
93345	7	Sololá	704	Santa Lucía Utatlán 	7	Santa Rita 	5	Mayo	2023-12-05T00:00:00	2024-11-08T23:00:00	2	Temperatura media	18
93346	7	Sololá	704	Santa Lucía Utatlán 	7	Santa Rita 	5	Mayo	2023-12-05T00:00:00	2024-11-08T23:00:00	4	Temperatura máxima	19.1
93347	7	Sololá	704	Santa Lucía Utatlán 	7	Santa Rita 	5	Mayo	2023-12-05T00:00:00	2024-11-08T23:00:00	3	Temperatura mínima	18
93348	7	Sololá	704	Santa Lucía Utatlán 	7	Santa Rita 	5	Mayo	2023-12-05T00:00:00	2024-11-08T23:00:00	5	Humedad	90
93349	7	Sololá	704	Santa Lucía Utatlán 	7	Santa Rita 	5	Mayo	2023-12-05T00:00:00	2024-11-08T23:00:00	6	Velocidad del viento	1.6
93350	7	Sololá	704	Santa Lucía Utatlán 	7	Santa Rita 	5	Mayo	2023-12-05T00:00:00	2024-11-08T23:00:00	7	Dirección del viento	1.61
93351	7	Sololá	704	Santa Lucía Utatlán 	7	Santa Rita 	5	Mayo	2023-12-05T00:00:00	2024-11-08T23:00:00	1	Precipitación	0
93352	7	Sololá	704	Santa Lucía Utatlán 	7	Santa Rita 	5	Mayo	2023-12-05T00:00:00	2024-11-08T23:00:00	8	Radiación solar	0
93353	7	Sololá	704	Santa Lucía Utatlán 	7	Santa Rita 	5	Mayo	2023-05-13T00:00:00	2024-11-08T00:00:00	2	Temperatura media	17.6
93354	7	Sololá	704	Santa Lucía Utatlán 	7	Santa Rita 	5	Mayo	2023-05-13T00:00:00	2024-11-08T00:00:00	4	Temperatura máxima	18
93355	7	Sololá	704	Santa Lucía Utatlán 	7	Santa Rita 	5	Mayo	2023-05-13T00:00:00	2024-11-08T00:00:00	3	Temperatura mínima	17.6
93356	7	Sololá	704	Santa Lucía Utatlán 	7	Santa Rita 	5	Mayo	2023-05-13T00:00:00	2024-11-08T00:00:00	5	Humedad	93
93357	7	Sololá	704	Santa Lucía Utatlán 	7	Santa Rita 	5	Mayo	2023-05-13T00:00:00	2024-11-08T00:00:00	6	Velocidad del viento	1.6
93358	7	Sololá	704	Santa Lucía Utatlán 	7	Santa Rita 	5	Mayo	2023-05-13T00:00:00	2024-11-08T00:00:00	7	Dirección del viento	1.61
93359	7	Sololá	704	Santa Lucía Utatlán 	7	Santa Rita 	5	Mayo	2023-05-13T00:00:00	2024-11-08T00:00:00	1	Precipitación	0
93360	7	Sololá	704	Santa Lucía Utatlán 	7	Santa Rita 	5	Mayo	2023-05-13T00:00:00	2024-11-08T00:00:00	8	Radiación solar	0
93361	7	Sololá	704	Santa Lucía Utatlán 	7	Santa Rita 	5	Mayo	2023-05-13T00:00:00	2024-11-08T01:00:00	2	Temperatura media	17.8
93362	7	Sololá	704	Santa Lucía Utatlán 	7	Santa Rita 	5	Mayo	2023-05-13T00:00:00	2024-11-08T01:00:00	4	Temperatura máxima	18
93363	7	Sololá	704	Santa Lucía Utatlán 	7	Santa Rita 	5	Mayo	2023-05-13T00:00:00	2024-11-08T01:00:00	3	Temperatura mínima	17.6
93364	7	Sololá	704	Santa Lucía Utatlán 	7	Santa Rita 	5	Mayo	2023-05-13T00:00:00	2024-11-08T01:00:00	5	Humedad	93
93365	7	Sololá	704	Santa Lucía Utatlán 	7	Santa Rita 	5	Mayo	2023-05-13T00:00:00	2024-11-08T01:00:00	6	Velocidad del viento	1.6
93366	7	Sololá	704	Santa Lucía Utatlán 	7	Santa Rita 	5	Mayo	2023-05-13T00:00:00	2024-11-08T01:00:00	7	Dirección del viento	1.61
93367	7	Sololá	704	Santa Lucía Utatlán 	7	Santa Rita 	5	Mayo	2023-05-13T00:00:00	2024-11-08T01:00:00	1	Precipitación	0
93368	7	Sololá	704	Santa Lucía Utatlán 	7	Santa Rita 	5	Mayo	2023-05-13T00:00:00	2024-11-08T01:00:00	8	Radiación solar	0
93369	7	Sololá	704	Santa Lucía Utatlán 	7	Santa Rita 	5	Mayo	2023-05-13T00:00:00	2024-11-08T02:00:00	2	Temperatura media	17.2
93370	7	Sololá	704	Santa Lucía Utatlán 	7	Santa Rita 	5	Mayo	2023-05-13T00:00:00	2024-11-08T02:00:00	4	Temperatura máxima	17.8
93371	7	Sololá	704	Santa Lucía Utatlán 	7	Santa Rita 	5	Mayo	2023-05-13T00:00:00	2024-11-08T02:00:00	3	Temperatura mínima	17.2
93372	7	Sololá	704	Santa Lucía Utatlán 	7	Santa Rita 	5	Mayo	2023-05-13T00:00:00	2024-11-08T02:00:00	5	Humedad	93
93373	7	Sololá	704	Santa Lucía Utatlán 	7	Santa Rita 	5	Mayo	2023-05-13T00:00:00	2024-11-08T02:00:00	6	Velocidad del viento	0
93374	7	Sololá	704	Santa Lucía Utatlán 	7	Santa Rita 	5	Mayo	2023-05-13T00:00:00	2024-11-08T02:00:00	7	Dirección del viento	0
93375	7	Sololá	704	Santa Lucía Utatlán 	7	Santa Rita 	5	Mayo	2023-05-13T00:00:00	2024-11-08T02:00:00	1	Precipitación	0
93376	7	Sololá	704	Santa Lucía Utatlán 	7	Santa Rita 	5	Mayo	2023-05-13T00:00:00	2024-11-08T02:00:00	8	Radiación solar	0
93377	7	Sololá	704	Santa Lucía Utatlán 	7	Santa Rita 	5	Mayo	2023-05-13T00:00:00	2024-11-08T03:00:00	2	Temperatura media	17.1
93378	7	Sololá	704	Santa Lucía Utatlán 	7	Santa Rita 	5	Mayo	2023-05-13T00:00:00	2024-11-08T03:00:00	4	Temperatura máxima	17.2
93379	7	Sololá	704	Santa Lucía Utatlán 	7	Santa Rita 	5	Mayo	2023-05-13T00:00:00	2024-11-08T03:00:00	3	Temperatura mínima	16.9
93380	7	Sololá	704	Santa Lucía Utatlán 	7	Santa Rita 	5	Mayo	2023-05-13T00:00:00	2024-11-08T03:00:00	5	Humedad	94
93381	7	Sololá	704	Santa Lucía Utatlán 	7	Santa Rita 	5	Mayo	2023-05-13T00:00:00	2024-11-08T03:00:00	6	Velocidad del viento	0
93382	7	Sololá	704	Santa Lucía Utatlán 	7	Santa Rita 	5	Mayo	2023-05-13T00:00:00	2024-11-08T03:00:00	7	Dirección del viento	0
93383	7	Sololá	704	Santa Lucía Utatlán 	7	Santa Rita 	5	Mayo	2023-05-13T00:00:00	2024-11-08T03:00:00	1	Precipitación	0
93384	7	Sololá	704	Santa Lucía Utatlán 	7	Santa Rita 	5	Mayo	2023-05-13T00:00:00	2024-11-08T03:00:00	8	Radiación solar	0
93385	7	Sololá	704	Santa Lucía Utatlán 	7	Santa Rita 	5	Mayo	2023-05-13T00:00:00	2024-11-08T04:00:00	2	Temperatura media	16.8
93386	7	Sololá	704	Santa Lucía Utatlán 	7	Santa Rita 	5	Mayo	2023-05-13T00:00:00	2024-11-08T04:00:00	4	Temperatura máxima	17.3
93387	7	Sololá	704	Santa Lucía Utatlán 	7	Santa Rita 	5	Mayo	2023-05-13T00:00:00	2024-11-08T04:00:00	3	Temperatura mínima	16.8
93388	7	Sololá	704	Santa Lucía Utatlán 	7	Santa Rita 	5	Mayo	2023-05-13T00:00:00	2024-11-08T04:00:00	5	Humedad	92
93389	7	Sololá	704	Santa Lucía Utatlán 	7	Santa Rita 	5	Mayo	2023-05-13T00:00:00	2024-11-08T04:00:00	6	Velocidad del viento	1.6
93390	7	Sololá	704	Santa Lucía Utatlán 	7	Santa Rita 	5	Mayo	2023-05-13T00:00:00	2024-11-08T04:00:00	7	Dirección del viento	1.61
93391	7	Sololá	704	Santa Lucía Utatlán 	7	Santa Rita 	5	Mayo	2023-05-13T00:00:00	2024-11-08T04:00:00	1	Precipitación	0
93392	7	Sololá	704	Santa Lucía Utatlán 	7	Santa Rita 	5	Mayo	2023-05-13T00:00:00	2024-11-08T04:00:00	8	Radiación solar	0
93393	7	Sololá	704	Santa Lucía Utatlán 	7	Santa Rita 	5	Mayo	2023-05-13T00:00:00	2024-11-08T05:00:00	2	Temperatura media	16.2
93394	7	Sololá	704	Santa Lucía Utatlán 	7	Santa Rita 	5	Mayo	2023-05-13T00:00:00	2024-11-08T05:00:00	4	Temperatura máxima	16.8
93395	7	Sololá	704	Santa Lucía Utatlán 	7	Santa Rita 	5	Mayo	2023-05-13T00:00:00	2024-11-08T05:00:00	3	Temperatura mínima	16.2
93396	7	Sololá	704	Santa Lucía Utatlán 	7	Santa Rita 	5	Mayo	2023-05-13T00:00:00	2024-11-08T05:00:00	5	Humedad	92
93397	7	Sololá	704	Santa Lucía Utatlán 	7	Santa Rita 	5	Mayo	2023-05-13T00:00:00	2024-11-08T05:00:00	6	Velocidad del viento	1.6
93398	7	Sololá	704	Santa Lucía Utatlán 	7	Santa Rita 	5	Mayo	2023-05-13T00:00:00	2024-11-08T05:00:00	7	Dirección del viento	1.61
93399	7	Sololá	704	Santa Lucía Utatlán 	7	Santa Rita 	5	Mayo	2023-05-13T00:00:00	2024-11-08T05:00:00	1	Precipitación	0
93400	7	Sololá	704	Santa Lucía Utatlán 	7	Santa Rita 	5	Mayo	2023-05-13T00:00:00	2024-11-08T05:00:00	8	Radiación solar	0
93401	7	Sololá	704	Santa Lucía Utatlán 	7	Santa Rita 	5	Mayo	2023-05-13T00:00:00	2024-11-08T06:00:00	2	Temperatura media	16.5
93402	7	Sololá	704	Santa Lucía Utatlán 	7	Santa Rita 	5	Mayo	2023-05-13T00:00:00	2024-11-08T06:00:00	4	Temperatura máxima	16.5
93403	7	Sololá	704	Santa Lucía Utatlán 	7	Santa Rita 	5	Mayo	2023-05-13T00:00:00	2024-11-08T06:00:00	3	Temperatura mínima	16.2
93404	7	Sololá	704	Santa Lucía Utatlán 	7	Santa Rita 	5	Mayo	2023-05-13T00:00:00	2024-11-08T06:00:00	5	Humedad	90
93405	7	Sololá	704	Santa Lucía Utatlán 	7	Santa Rita 	5	Mayo	2023-05-13T00:00:00	2024-11-08T06:00:00	6	Velocidad del viento	1.6
93406	7	Sololá	704	Santa Lucía Utatlán 	7	Santa Rita 	5	Mayo	2023-05-13T00:00:00	2024-11-08T06:00:00	7	Dirección del viento	1.61
93407	7	Sololá	704	Santa Lucía Utatlán 	7	Santa Rita 	5	Mayo	2023-05-13T00:00:00	2024-11-08T06:00:00	1	Precipitación	0
93408	7	Sololá	704	Santa Lucía Utatlán 	7	Santa Rita 	5	Mayo	2023-05-13T00:00:00	2024-11-08T06:00:00	8	Radiación solar	0
93409	7	Sololá	704	Santa Lucía Utatlán 	7	Santa Rita 	5	Mayo	2023-05-13T00:00:00	2024-11-08T07:00:00	2	Temperatura media	15.8
93410	7	Sololá	704	Santa Lucía Utatlán 	7	Santa Rita 	5	Mayo	2023-05-13T00:00:00	2024-11-08T07:00:00	4	Temperatura máxima	16.6
93411	7	Sololá	704	Santa Lucía Utatlán 	7	Santa Rita 	5	Mayo	2023-05-13T00:00:00	2024-11-08T07:00:00	3	Temperatura mínima	15.7
93412	7	Sololá	704	Santa Lucía Utatlán 	7	Santa Rita 	5	Mayo	2023-05-13T00:00:00	2024-11-08T07:00:00	5	Humedad	93
93413	7	Sololá	704	Santa Lucía Utatlán 	7	Santa Rita 	5	Mayo	2023-05-13T00:00:00	2024-11-08T07:00:00	6	Velocidad del viento	0
93414	7	Sololá	704	Santa Lucía Utatlán 	7	Santa Rita 	5	Mayo	2023-05-13T00:00:00	2024-11-08T07:00:00	7	Dirección del viento	0
93415	7	Sololá	704	Santa Lucía Utatlán 	7	Santa Rita 	5	Mayo	2023-05-13T00:00:00	2024-11-08T07:00:00	1	Precipitación	0
93416	7	Sololá	704	Santa Lucía Utatlán 	7	Santa Rita 	5	Mayo	2023-05-13T00:00:00	2024-11-08T07:00:00	8	Radiación solar	5
93417	7	Sololá	704	Santa Lucía Utatlán 	7	Santa Rita 	5	Mayo	2023-05-13T00:00:00	2024-11-08T08:00:00	2	Temperatura media	18.8
93418	7	Sololá	704	Santa Lucía Utatlán 	7	Santa Rita 	5	Mayo	2023-05-13T00:00:00	2024-11-08T08:00:00	4	Temperatura máxima	18.8
93419	7	Sololá	704	Santa Lucía Utatlán 	7	Santa Rita 	5	Mayo	2023-05-13T00:00:00	2024-11-08T08:00:00	3	Temperatura mínima	15.8
93420	7	Sololá	704	Santa Lucía Utatlán 	7	Santa Rita 	5	Mayo	2023-05-13T00:00:00	2024-11-08T08:00:00	5	Humedad	86
93421	7	Sololá	704	Santa Lucía Utatlán 	7	Santa Rita 	5	Mayo	2023-05-13T00:00:00	2024-11-08T08:00:00	6	Velocidad del viento	1.6
93422	7	Sololá	704	Santa Lucía Utatlán 	7	Santa Rita 	5	Mayo	2023-05-13T00:00:00	2024-11-08T08:00:00	7	Dirección del viento	1.61
93423	7	Sololá	704	Santa Lucía Utatlán 	7	Santa Rita 	5	Mayo	2023-05-13T00:00:00	2024-11-08T08:00:00	1	Precipitación	0
93424	7	Sololá	704	Santa Lucía Utatlán 	7	Santa Rita 	5	Mayo	2023-05-13T00:00:00	2024-11-08T08:00:00	8	Radiación solar	98
93425	7	Sololá	704	Santa Lucía Utatlán 	7	Santa Rita 	5	Mayo	2023-05-13T00:00:00	2024-11-08T09:00:00	2	Temperatura media	21.4
93426	7	Sololá	704	Santa Lucía Utatlán 	7	Santa Rita 	5	Mayo	2023-05-13T00:00:00	2024-11-08T09:00:00	4	Temperatura máxima	21.4
93427	7	Sololá	704	Santa Lucía Utatlán 	7	Santa Rita 	5	Mayo	2023-05-13T00:00:00	2024-11-08T09:00:00	3	Temperatura mínima	18.9
93428	7	Sololá	704	Santa Lucía Utatlán 	7	Santa Rita 	5	Mayo	2023-05-13T00:00:00	2024-11-08T09:00:00	5	Humedad	78
93429	7	Sololá	704	Santa Lucía Utatlán 	7	Santa Rita 	5	Mayo	2023-05-13T00:00:00	2024-11-08T09:00:00	6	Velocidad del viento	3.2
93430	7	Sololá	704	Santa Lucía Utatlán 	7	Santa Rita 	5	Mayo	2023-05-13T00:00:00	2024-11-08T09:00:00	7	Dirección del viento	3.22
93431	7	Sololá	704	Santa Lucía Utatlán 	7	Santa Rita 	5	Mayo	2023-05-13T00:00:00	2024-11-08T09:00:00	1	Precipitación	0
93432	7	Sololá	704	Santa Lucía Utatlán 	7	Santa Rita 	5	Mayo	2023-05-13T00:00:00	2024-11-08T09:00:00	8	Radiación solar	371
93433	7	Sololá	704	Santa Lucía Utatlán 	7	Santa Rita 	5	Mayo	2023-05-13T00:00:00	2024-11-08T10:00:00	2	Temperatura media	23.6
93434	7	Sololá	704	Santa Lucía Utatlán 	7	Santa Rita 	5	Mayo	2023-05-13T00:00:00	2024-11-08T10:00:00	4	Temperatura máxima	23.6
93435	7	Sololá	704	Santa Lucía Utatlán 	7	Santa Rita 	5	Mayo	2023-05-13T00:00:00	2024-11-08T10:00:00	3	Temperatura mínima	21.4
93436	7	Sololá	704	Santa Lucía Utatlán 	7	Santa Rita 	5	Mayo	2023-05-13T00:00:00	2024-11-08T10:00:00	5	Humedad	74
93437	7	Sololá	704	Santa Lucía Utatlán 	7	Santa Rita 	5	Mayo	2023-05-13T00:00:00	2024-11-08T10:00:00	6	Velocidad del viento	4.8
93438	7	Sololá	704	Santa Lucía Utatlán 	7	Santa Rita 	5	Mayo	2023-05-13T00:00:00	2024-11-08T10:00:00	7	Dirección del viento	4.83
93439	7	Sololá	704	Santa Lucía Utatlán 	7	Santa Rita 	5	Mayo	2023-05-13T00:00:00	2024-11-08T10:00:00	1	Precipitación	0
93440	7	Sololá	704	Santa Lucía Utatlán 	7	Santa Rita 	5	Mayo	2023-05-13T00:00:00	2024-11-08T10:00:00	8	Radiación solar	619
93441	7	Sololá	704	Santa Lucía Utatlán 	7	Santa Rita 	5	Mayo	2023-05-13T00:00:00	2024-11-08T11:00:00	2	Temperatura media	23.5
93442	7	Sololá	704	Santa Lucía Utatlán 	7	Santa Rita 	5	Mayo	2023-05-13T00:00:00	2024-11-08T11:00:00	4	Temperatura máxima	23.9
93443	7	Sololá	704	Santa Lucía Utatlán 	7	Santa Rita 	5	Mayo	2023-05-13T00:00:00	2024-11-08T11:00:00	3	Temperatura mínima	22.9
93444	7	Sololá	704	Santa Lucía Utatlán 	7	Santa Rita 	5	Mayo	2023-05-13T00:00:00	2024-11-08T11:00:00	5	Humedad	73
93445	7	Sololá	704	Santa Lucía Utatlán 	7	Santa Rita 	5	Mayo	2023-05-13T00:00:00	2024-11-08T11:00:00	6	Velocidad del viento	6.4
93446	7	Sololá	704	Santa Lucía Utatlán 	7	Santa Rita 	5	Mayo	2023-05-13T00:00:00	2024-11-08T11:00:00	7	Dirección del viento	6.44
93447	7	Sololá	704	Santa Lucía Utatlán 	7	Santa Rita 	5	Mayo	2023-05-13T00:00:00	2024-11-08T11:00:00	1	Precipitación	0
93448	7	Sololá	704	Santa Lucía Utatlán 	7	Santa Rita 	5	Mayo	2023-05-13T00:00:00	2024-11-08T11:00:00	8	Radiación solar	516
93449	7	Sololá	704	Santa Lucía Utatlán 	7	Santa Rita 	5	Mayo	2023-05-13T00:00:00	2024-11-08T12:00:00	2	Temperatura media	21.6
93450	7	Sololá	704	Santa Lucía Utatlán 	7	Santa Rita 	5	Mayo	2023-05-13T00:00:00	2024-11-08T12:00:00	4	Temperatura máxima	23.6
93451	7	Sololá	704	Santa Lucía Utatlán 	7	Santa Rita 	5	Mayo	2023-05-13T00:00:00	2024-11-08T12:00:00	3	Temperatura mínima	21.6
93452	7	Sololá	704	Santa Lucía Utatlán 	7	Santa Rita 	5	Mayo	2023-05-13T00:00:00	2024-11-08T12:00:00	5	Humedad	82
93453	7	Sololá	704	Santa Lucía Utatlán 	7	Santa Rita 	5	Mayo	2023-05-13T00:00:00	2024-11-08T12:00:00	6	Velocidad del viento	4.8
93454	7	Sololá	704	Santa Lucía Utatlán 	7	Santa Rita 	5	Mayo	2023-05-13T00:00:00	2024-11-08T12:00:00	7	Dirección del viento	4.83
93455	7	Sololá	704	Santa Lucía Utatlán 	7	Santa Rita 	5	Mayo	2023-05-13T00:00:00	2024-11-08T12:00:00	1	Precipitación	0
93456	7	Sololá	704	Santa Lucía Utatlán 	7	Santa Rita 	5	Mayo	2023-05-13T00:00:00	2024-11-08T12:00:00	8	Radiación solar	165
93457	7	Sololá	704	Santa Lucía Utatlán 	7	Santa Rita 	5	Mayo	2023-05-13T00:00:00	2024-11-08T13:00:00	2	Temperatura media	22.1
93458	7	Sololá	704	Santa Lucía Utatlán 	7	Santa Rita 	5	Mayo	2023-05-13T00:00:00	2024-11-08T13:00:00	4	Temperatura máxima	22.1
93459	7	Sololá	704	Santa Lucía Utatlán 	7	Santa Rita 	5	Mayo	2023-05-13T00:00:00	2024-11-08T13:00:00	3	Temperatura mínima	21.6
93460	7	Sololá	704	Santa Lucía Utatlán 	7	Santa Rita 	5	Mayo	2023-05-13T00:00:00	2024-11-08T13:00:00	5	Humedad	81
93461	7	Sololá	704	Santa Lucía Utatlán 	7	Santa Rita 	5	Mayo	2023-05-13T00:00:00	2024-11-08T13:00:00	6	Velocidad del viento	3.2
93462	7	Sololá	704	Santa Lucía Utatlán 	7	Santa Rita 	5	Mayo	2023-05-13T00:00:00	2024-11-08T13:00:00	7	Dirección del viento	3.22
93463	7	Sololá	704	Santa Lucía Utatlán 	7	Santa Rita 	5	Mayo	2023-05-13T00:00:00	2024-11-08T13:00:00	1	Precipitación	0
93464	7	Sololá	704	Santa Lucía Utatlán 	7	Santa Rita 	5	Mayo	2023-05-13T00:00:00	2024-11-08T13:00:00	8	Radiación solar	240
93465	7	Sololá	704	Santa Lucía Utatlán 	7	Santa Rita 	5	Mayo	2023-05-13T00:00:00	2024-11-08T14:00:00	2	Temperatura media	22.4
93466	7	Sololá	704	Santa Lucía Utatlán 	7	Santa Rita 	5	Mayo	2023-05-13T00:00:00	2024-11-08T14:00:00	4	Temperatura máxima	22.7
93467	7	Sololá	704	Santa Lucía Utatlán 	7	Santa Rita 	5	Mayo	2023-05-13T00:00:00	2024-11-08T14:00:00	3	Temperatura mínima	22.1
93468	7	Sololá	704	Santa Lucía Utatlán 	7	Santa Rita 	5	Mayo	2023-05-13T00:00:00	2024-11-08T14:00:00	5	Humedad	84
93469	7	Sololá	704	Santa Lucía Utatlán 	7	Santa Rita 	5	Mayo	2023-05-13T00:00:00	2024-11-08T14:00:00	6	Velocidad del viento	3.2
93470	7	Sololá	704	Santa Lucía Utatlán 	7	Santa Rita 	5	Mayo	2023-05-13T00:00:00	2024-11-08T14:00:00	7	Dirección del viento	3.22
93471	7	Sololá	704	Santa Lucía Utatlán 	7	Santa Rita 	5	Mayo	2023-05-13T00:00:00	2024-11-08T14:00:00	1	Precipitación	0
93472	7	Sololá	704	Santa Lucía Utatlán 	7	Santa Rita 	5	Mayo	2023-05-13T00:00:00	2024-11-08T14:00:00	8	Radiación solar	238
93473	7	Sololá	704	Santa Lucía Utatlán 	7	Santa Rita 	5	Mayo	2023-05-13T00:00:00	2024-11-08T15:00:00	2	Temperatura media	20.6
93474	7	Sololá	704	Santa Lucía Utatlán 	7	Santa Rita 	5	Mayo	2023-05-13T00:00:00	2024-11-08T15:00:00	4	Temperatura máxima	22.4
93475	7	Sololá	704	Santa Lucía Utatlán 	7	Santa Rita 	5	Mayo	2023-05-13T00:00:00	2024-11-08T15:00:00	3	Temperatura mínima	20.6
93476	7	Sololá	704	Santa Lucía Utatlán 	7	Santa Rita 	5	Mayo	2023-05-13T00:00:00	2024-11-08T15:00:00	5	Humedad	91
93477	7	Sololá	704	Santa Lucía Utatlán 	7	Santa Rita 	5	Mayo	2023-05-13T00:00:00	2024-11-08T15:00:00	6	Velocidad del viento	4.8
93478	7	Sololá	704	Santa Lucía Utatlán 	7	Santa Rita 	5	Mayo	2023-05-13T00:00:00	2024-11-08T15:00:00	7	Dirección del viento	4.83
93479	7	Sololá	704	Santa Lucía Utatlán 	7	Santa Rita 	5	Mayo	2023-05-13T00:00:00	2024-11-08T15:00:00	1	Precipitación	0
93480	7	Sololá	704	Santa Lucía Utatlán 	7	Santa Rita 	5	Mayo	2023-05-13T00:00:00	2024-11-08T15:00:00	8	Radiación solar	57
93481	7	Sololá	704	Santa Lucía Utatlán 	7	Santa Rita 	5	Mayo	2023-05-13T00:00:00	2024-11-08T16:00:00	2	Temperatura media	21
93482	7	Sololá	704	Santa Lucía Utatlán 	7	Santa Rita 	5	Mayo	2023-05-13T00:00:00	2024-11-08T16:00:00	4	Temperatura máxima	21
93483	7	Sololá	704	Santa Lucía Utatlán 	7	Santa Rita 	5	Mayo	2023-05-13T00:00:00	2024-11-08T16:00:00	3	Temperatura mínima	20.6
93484	7	Sololá	704	Santa Lucía Utatlán 	7	Santa Rita 	5	Mayo	2023-05-13T00:00:00	2024-11-08T16:00:00	5	Humedad	90
93485	7	Sololá	704	Santa Lucía Utatlán 	7	Santa Rita 	5	Mayo	2023-05-13T00:00:00	2024-11-08T16:00:00	6	Velocidad del viento	3.2
93486	7	Sololá	704	Santa Lucía Utatlán 	7	Santa Rita 	5	Mayo	2023-05-13T00:00:00	2024-11-08T16:00:00	7	Dirección del viento	3.22
93487	7	Sololá	704	Santa Lucía Utatlán 	7	Santa Rita 	5	Mayo	2023-05-13T00:00:00	2024-11-08T16:00:00	1	Precipitación	0.2
93488	7	Sololá	704	Santa Lucía Utatlán 	7	Santa Rita 	5	Mayo	2023-05-13T00:00:00	2024-11-08T16:00:00	8	Radiación solar	174
93489	7	Sololá	704	Santa Lucía Utatlán 	7	Santa Rita 	5	Mayo	2023-05-13T00:00:00	2024-11-08T17:00:00	2	Temperatura media	18.9
93490	7	Sololá	704	Santa Lucía Utatlán 	7	Santa Rita 	5	Mayo	2023-05-13T00:00:00	2024-11-08T17:00:00	4	Temperatura máxima	21.1
93491	7	Sololá	704	Santa Lucía Utatlán 	7	Santa Rita 	5	Mayo	2023-05-13T00:00:00	2024-11-08T17:00:00	3	Temperatura mínima	18.8
93492	7	Sololá	704	Santa Lucía Utatlán 	7	Santa Rita 	5	Mayo	2023-05-13T00:00:00	2024-11-08T17:00:00	5	Humedad	90
93493	7	Sololá	704	Santa Lucía Utatlán 	7	Santa Rita 	5	Mayo	2023-05-13T00:00:00	2024-11-08T17:00:00	6	Velocidad del viento	4.8
93494	7	Sololá	704	Santa Lucía Utatlán 	7	Santa Rita 	5	Mayo	2023-05-13T00:00:00	2024-11-08T17:00:00	7	Dirección del viento	4.83
93495	7	Sololá	704	Santa Lucía Utatlán 	7	Santa Rita 	5	Mayo	2023-05-13T00:00:00	2024-11-08T17:00:00	1	Precipitación	9.6
93496	7	Sololá	704	Santa Lucía Utatlán 	7	Santa Rita 	5	Mayo	2023-05-13T00:00:00	2024-11-08T17:00:00	8	Radiación solar	46
93497	7	Sololá	704	Santa Lucía Utatlán 	7	Santa Rita 	5	Mayo	2023-05-13T00:00:00	2024-11-08T18:00:00	2	Temperatura media	18.7
93498	7	Sololá	704	Santa Lucía Utatlán 	7	Santa Rita 	5	Mayo	2023-05-13T00:00:00	2024-11-08T18:00:00	4	Temperatura máxima	18.8
93499	7	Sololá	704	Santa Lucía Utatlán 	7	Santa Rita 	5	Mayo	2023-05-13T00:00:00	2024-11-08T18:00:00	3	Temperatura mínima	18.3
93500	7	Sololá	704	Santa Lucía Utatlán 	7	Santa Rita 	5	Mayo	2023-05-13T00:00:00	2024-11-08T18:00:00	5	Humedad	94
93501	7	Sololá	704	Santa Lucía Utatlán 	7	Santa Rita 	5	Mayo	2023-05-13T00:00:00	2024-11-08T18:00:00	6	Velocidad del viento	3.2
93502	7	Sololá	704	Santa Lucía Utatlán 	7	Santa Rita 	5	Mayo	2023-05-13T00:00:00	2024-11-08T18:00:00	7	Dirección del viento	3.22
93503	7	Sololá	704	Santa Lucía Utatlán 	7	Santa Rita 	5	Mayo	2023-05-13T00:00:00	2024-11-08T18:00:00	1	Precipitación	0.4
93504	7	Sololá	704	Santa Lucía Utatlán 	7	Santa Rita 	5	Mayo	2023-05-13T00:00:00	2024-11-08T18:00:00	8	Radiación solar	58
93505	7	Sololá	704	Santa Lucía Utatlán 	7	Santa Rita 	5	Mayo	2023-05-13T00:00:00	2024-11-08T19:00:00	2	Temperatura media	18.7
93506	7	Sololá	704	Santa Lucía Utatlán 	7	Santa Rita 	5	Mayo	2023-05-13T00:00:00	2024-11-08T19:00:00	4	Temperatura máxima	19
93507	7	Sololá	704	Santa Lucía Utatlán 	7	Santa Rita 	5	Mayo	2023-05-13T00:00:00	2024-11-08T19:00:00	3	Temperatura mínima	18.7
93508	7	Sololá	704	Santa Lucía Utatlán 	7	Santa Rita 	5	Mayo	2023-05-13T00:00:00	2024-11-08T19:00:00	5	Humedad	94
93509	7	Sololá	704	Santa Lucía Utatlán 	7	Santa Rita 	5	Mayo	2023-05-13T00:00:00	2024-11-08T19:00:00	6	Velocidad del viento	1.6
93510	7	Sololá	704	Santa Lucía Utatlán 	7	Santa Rita 	5	Mayo	2023-05-13T00:00:00	2024-11-08T19:00:00	7	Dirección del viento	1.61
93511	7	Sololá	704	Santa Lucía Utatlán 	7	Santa Rita 	5	Mayo	2023-05-13T00:00:00	2024-11-08T19:00:00	1	Precipitación	0.4
93512	7	Sololá	704	Santa Lucía Utatlán 	7	Santa Rita 	5	Mayo	2023-05-13T00:00:00	2024-11-08T19:00:00	8	Radiación solar	0
93513	7	Sololá	704	Santa Lucía Utatlán 	7	Santa Rita 	5	Mayo	2023-05-13T00:00:00	2024-11-08T20:00:00	2	Temperatura media	19.3
93514	7	Sololá	704	Santa Lucía Utatlán 	7	Santa Rita 	5	Mayo	2023-05-13T00:00:00	2024-11-08T20:00:00	4	Temperatura máxima	19.5
93515	7	Sololá	704	Santa Lucía Utatlán 	7	Santa Rita 	5	Mayo	2023-05-13T00:00:00	2024-11-08T20:00:00	3	Temperatura mínima	18.5
93516	7	Sololá	704	Santa Lucía Utatlán 	7	Santa Rita 	5	Mayo	2023-05-13T00:00:00	2024-11-08T20:00:00	5	Humedad	78
93517	7	Sololá	704	Santa Lucía Utatlán 	7	Santa Rita 	5	Mayo	2023-05-13T00:00:00	2024-11-08T20:00:00	6	Velocidad del viento	3.2
93518	7	Sololá	704	Santa Lucía Utatlán 	7	Santa Rita 	5	Mayo	2023-05-13T00:00:00	2024-11-08T20:00:00	7	Dirección del viento	3.22
93519	7	Sololá	704	Santa Lucía Utatlán 	7	Santa Rita 	5	Mayo	2023-05-13T00:00:00	2024-11-08T20:00:00	1	Precipitación	0.4
93520	7	Sololá	704	Santa Lucía Utatlán 	7	Santa Rita 	5	Mayo	2023-05-13T00:00:00	2024-11-08T20:00:00	8	Radiación solar	0
93521	7	Sololá	704	Santa Lucía Utatlán 	7	Santa Rita 	5	Mayo	2023-05-13T00:00:00	2024-11-08T21:00:00	2	Temperatura media	21.2
93522	7	Sololá	704	Santa Lucía Utatlán 	7	Santa Rita 	5	Mayo	2023-05-13T00:00:00	2024-11-08T21:00:00	4	Temperatura máxima	21.2
93523	7	Sololá	704	Santa Lucía Utatlán 	7	Santa Rita 	5	Mayo	2023-05-13T00:00:00	2024-11-08T21:00:00	3	Temperatura mínima	18.7
93524	7	Sololá	704	Santa Lucía Utatlán 	7	Santa Rita 	5	Mayo	2023-05-13T00:00:00	2024-11-08T21:00:00	5	Humedad	66
93525	7	Sololá	704	Santa Lucía Utatlán 	7	Santa Rita 	5	Mayo	2023-05-13T00:00:00	2024-11-08T21:00:00	6	Velocidad del viento	8
93526	7	Sololá	704	Santa Lucía Utatlán 	7	Santa Rita 	5	Mayo	2023-05-13T00:00:00	2024-11-08T21:00:00	7	Dirección del viento	8.05
93527	7	Sololá	704	Santa Lucía Utatlán 	7	Santa Rita 	5	Mayo	2023-05-13T00:00:00	2024-11-08T21:00:00	1	Precipitación	0.2
93528	7	Sololá	704	Santa Lucía Utatlán 	7	Santa Rita 	5	Mayo	2023-05-13T00:00:00	2024-11-08T21:00:00	8	Radiación solar	0
93529	7	Sololá	704	Santa Lucía Utatlán 	7	Santa Rita 	5	Mayo	2023-05-13T00:00:00	2024-11-08T22:00:00	2	Temperatura media	19.1
93530	7	Sololá	704	Santa Lucía Utatlán 	7	Santa Rita 	5	Mayo	2023-05-13T00:00:00	2024-11-08T22:00:00	4	Temperatura máxima	21.7
93531	7	Sololá	704	Santa Lucía Utatlán 	7	Santa Rita 	5	Mayo	2023-05-13T00:00:00	2024-11-08T22:00:00	3	Temperatura mínima	19.1
93532	7	Sololá	704	Santa Lucía Utatlán 	7	Santa Rita 	5	Mayo	2023-05-13T00:00:00	2024-11-08T22:00:00	5	Humedad	72
93533	7	Sololá	704	Santa Lucía Utatlán 	7	Santa Rita 	5	Mayo	2023-05-13T00:00:00	2024-11-08T22:00:00	6	Velocidad del viento	9.7
93534	7	Sololá	704	Santa Lucía Utatlán 	7	Santa Rita 	5	Mayo	2023-05-13T00:00:00	2024-11-08T22:00:00	7	Dirección del viento	9.66
93535	7	Sololá	704	Santa Lucía Utatlán 	7	Santa Rita 	5	Mayo	2023-05-13T00:00:00	2024-11-08T22:00:00	1	Precipitación	0
93536	7	Sololá	704	Santa Lucía Utatlán 	7	Santa Rita 	5	Mayo	2023-05-13T00:00:00	2024-11-08T22:00:00	8	Radiación solar	0
93537	7	Sololá	704	Santa Lucía Utatlán 	7	Santa Rita 	5	Mayo	2023-05-13T00:00:00	2024-11-08T23:00:00	2	Temperatura media	16.9
93538	7	Sololá	704	Santa Lucía Utatlán 	7	Santa Rita 	5	Mayo	2023-05-13T00:00:00	2024-11-08T23:00:00	4	Temperatura máxima	19.1
93539	7	Sololá	704	Santa Lucía Utatlán 	7	Santa Rita 	5	Mayo	2023-05-13T00:00:00	2024-11-08T23:00:00	3	Temperatura mínima	16.9
93540	7	Sololá	704	Santa Lucía Utatlán 	7	Santa Rita 	5	Mayo	2023-05-13T00:00:00	2024-11-08T23:00:00	5	Humedad	85
93541	7	Sololá	704	Santa Lucía Utatlán 	7	Santa Rita 	5	Mayo	2023-05-13T00:00:00	2024-11-08T23:00:00	6	Velocidad del viento	3.2
93542	7	Sololá	704	Santa Lucía Utatlán 	7	Santa Rita 	5	Mayo	2023-05-13T00:00:00	2024-11-08T23:00:00	7	Dirección del viento	3.22
93543	7	Sololá	704	Santa Lucía Utatlán 	7	Santa Rita 	5	Mayo	2023-05-13T00:00:00	2024-11-08T23:00:00	1	Precipitación	0
93544	7	Sololá	704	Santa Lucía Utatlán 	7	Santa Rita 	5	Mayo	2023-05-13T00:00:00	2024-11-08T23:00:00	8	Radiación solar	0
93545	7	Sololá	704	Santa Lucía Utatlán 	7	Santa Rita 	5	Mayo	2023-05-14T00:00:00	2024-11-08T00:00:00	2	Temperatura media	16.5
93546	7	Sololá	704	Santa Lucía Utatlán 	7	Santa Rita 	5	Mayo	2023-05-14T00:00:00	2024-11-08T00:00:00	4	Temperatura máxima	17.2
93547	7	Sololá	704	Santa Lucía Utatlán 	7	Santa Rita 	5	Mayo	2023-05-14T00:00:00	2024-11-08T00:00:00	3	Temperatura mínima	16.5
93548	7	Sololá	704	Santa Lucía Utatlán 	7	Santa Rita 	5	Mayo	2023-05-14T00:00:00	2024-11-08T00:00:00	5	Humedad	91
93549	7	Sololá	704	Santa Lucía Utatlán 	7	Santa Rita 	5	Mayo	2023-05-14T00:00:00	2024-11-08T00:00:00	6	Velocidad del viento	3.2
93550	7	Sololá	704	Santa Lucía Utatlán 	7	Santa Rita 	5	Mayo	2023-05-14T00:00:00	2024-11-08T00:00:00	7	Dirección del viento	3.22
93551	7	Sololá	704	Santa Lucía Utatlán 	7	Santa Rita 	5	Mayo	2023-05-14T00:00:00	2024-11-08T00:00:00	1	Precipitación	0
93552	7	Sololá	704	Santa Lucía Utatlán 	7	Santa Rita 	5	Mayo	2023-05-14T00:00:00	2024-11-08T00:00:00	8	Radiación solar	0
93553	7	Sololá	704	Santa Lucía Utatlán 	7	Santa Rita 	5	Mayo	2023-05-14T00:00:00	2024-11-08T01:00:00	2	Temperatura media	16.4
93554	7	Sololá	704	Santa Lucía Utatlán 	7	Santa Rita 	5	Mayo	2023-05-14T00:00:00	2024-11-08T01:00:00	4	Temperatura máxima	16.5
93555	7	Sololá	704	Santa Lucía Utatlán 	7	Santa Rita 	5	Mayo	2023-05-14T00:00:00	2024-11-08T01:00:00	3	Temperatura mínima	16.2
93556	7	Sololá	704	Santa Lucía Utatlán 	7	Santa Rita 	5	Mayo	2023-05-14T00:00:00	2024-11-08T01:00:00	5	Humedad	90
93557	7	Sololá	704	Santa Lucía Utatlán 	7	Santa Rita 	5	Mayo	2023-05-14T00:00:00	2024-11-08T01:00:00	6	Velocidad del viento	3.2
93558	7	Sololá	704	Santa Lucía Utatlán 	7	Santa Rita 	5	Mayo	2023-05-14T00:00:00	2024-11-08T01:00:00	7	Dirección del viento	3.22
93559	7	Sololá	704	Santa Lucía Utatlán 	7	Santa Rita 	5	Mayo	2023-05-14T00:00:00	2024-11-08T01:00:00	1	Precipitación	0
93560	7	Sololá	704	Santa Lucía Utatlán 	7	Santa Rita 	5	Mayo	2023-05-14T00:00:00	2024-11-08T01:00:00	8	Radiación solar	0
93561	7	Sololá	704	Santa Lucía Utatlán 	7	Santa Rita 	5	Mayo	2023-05-14T00:00:00	2024-11-08T02:00:00	2	Temperatura media	16.8
93562	7	Sololá	704	Santa Lucía Utatlán 	7	Santa Rita 	5	Mayo	2023-05-14T00:00:00	2024-11-08T02:00:00	4	Temperatura máxima	16.8
93563	7	Sololá	704	Santa Lucía Utatlán 	7	Santa Rita 	5	Mayo	2023-05-14T00:00:00	2024-11-08T02:00:00	3	Temperatura mínima	16.1
93564	7	Sololá	704	Santa Lucía Utatlán 	7	Santa Rita 	5	Mayo	2023-05-14T00:00:00	2024-11-08T02:00:00	5	Humedad	93
93565	7	Sololá	704	Santa Lucía Utatlán 	7	Santa Rita 	5	Mayo	2023-05-14T00:00:00	2024-11-08T02:00:00	6	Velocidad del viento	1.6
93566	7	Sololá	704	Santa Lucía Utatlán 	7	Santa Rita 	5	Mayo	2023-05-14T00:00:00	2024-11-08T02:00:00	7	Dirección del viento	1.61
93567	7	Sololá	704	Santa Lucía Utatlán 	7	Santa Rita 	5	Mayo	2023-05-14T00:00:00	2024-11-08T02:00:00	1	Precipitación	0
93568	7	Sololá	704	Santa Lucía Utatlán 	7	Santa Rita 	5	Mayo	2023-05-14T00:00:00	2024-11-08T02:00:00	8	Radiación solar	0
93569	7	Sololá	704	Santa Lucía Utatlán 	7	Santa Rita 	5	Mayo	2023-05-14T00:00:00	2024-11-08T03:00:00	2	Temperatura media	17
93570	7	Sololá	704	Santa Lucía Utatlán 	7	Santa Rita 	5	Mayo	2023-05-14T00:00:00	2024-11-08T03:00:00	4	Temperatura máxima	17.9
93571	7	Sololá	704	Santa Lucía Utatlán 	7	Santa Rita 	5	Mayo	2023-05-14T00:00:00	2024-11-08T03:00:00	3	Temperatura mínima	16.8
93572	7	Sololá	704	Santa Lucía Utatlán 	7	Santa Rita 	5	Mayo	2023-05-14T00:00:00	2024-11-08T03:00:00	5	Humedad	93
93573	7	Sololá	704	Santa Lucía Utatlán 	7	Santa Rita 	5	Mayo	2023-05-14T00:00:00	2024-11-08T03:00:00	6	Velocidad del viento	1.6
93574	7	Sololá	704	Santa Lucía Utatlán 	7	Santa Rita 	5	Mayo	2023-05-14T00:00:00	2024-11-08T03:00:00	7	Dirección del viento	1.61
93575	7	Sololá	704	Santa Lucía Utatlán 	7	Santa Rita 	5	Mayo	2023-05-14T00:00:00	2024-11-08T03:00:00	1	Precipitación	0
93576	7	Sololá	704	Santa Lucía Utatlán 	7	Santa Rita 	5	Mayo	2023-05-14T00:00:00	2024-11-08T03:00:00	8	Radiación solar	0
93577	7	Sololá	704	Santa Lucía Utatlán 	7	Santa Rita 	5	Mayo	2023-05-14T00:00:00	2024-11-08T04:00:00	2	Temperatura media	16.8
93578	7	Sololá	704	Santa Lucía Utatlán 	7	Santa Rita 	5	Mayo	2023-05-14T00:00:00	2024-11-08T04:00:00	4	Temperatura máxima	17.4
93579	7	Sololá	704	Santa Lucía Utatlán 	7	Santa Rita 	5	Mayo	2023-05-14T00:00:00	2024-11-08T04:00:00	3	Temperatura mínima	16.4
93580	7	Sololá	704	Santa Lucía Utatlán 	7	Santa Rita 	5	Mayo	2023-05-14T00:00:00	2024-11-08T04:00:00	5	Humedad	94
93581	7	Sololá	704	Santa Lucía Utatlán 	7	Santa Rita 	5	Mayo	2023-05-14T00:00:00	2024-11-08T04:00:00	6	Velocidad del viento	3.2
93582	7	Sololá	704	Santa Lucía Utatlán 	7	Santa Rita 	5	Mayo	2023-05-14T00:00:00	2024-11-08T04:00:00	7	Dirección del viento	3.22
93583	7	Sololá	704	Santa Lucía Utatlán 	7	Santa Rita 	5	Mayo	2023-05-14T00:00:00	2024-11-08T04:00:00	1	Precipitación	0
93584	7	Sololá	704	Santa Lucía Utatlán 	7	Santa Rita 	5	Mayo	2023-05-14T00:00:00	2024-11-08T04:00:00	8	Radiación solar	0
93585	7	Sololá	704	Santa Lucía Utatlán 	7	Santa Rita 	5	Mayo	2023-05-14T00:00:00	2024-11-08T05:00:00	2	Temperatura media	17.8
93586	7	Sololá	704	Santa Lucía Utatlán 	7	Santa Rita 	5	Mayo	2023-05-14T00:00:00	2024-11-08T05:00:00	4	Temperatura máxima	17.8
93587	7	Sololá	704	Santa Lucía Utatlán 	7	Santa Rita 	5	Mayo	2023-05-14T00:00:00	2024-11-08T05:00:00	3	Temperatura mínima	16.8
93588	7	Sololá	704	Santa Lucía Utatlán 	7	Santa Rita 	5	Mayo	2023-05-14T00:00:00	2024-11-08T05:00:00	5	Humedad	89
93589	7	Sololá	704	Santa Lucía Utatlán 	7	Santa Rita 	5	Mayo	2023-05-14T00:00:00	2024-11-08T05:00:00	6	Velocidad del viento	1.6
93590	7	Sololá	704	Santa Lucía Utatlán 	7	Santa Rita 	5	Mayo	2023-05-14T00:00:00	2024-11-08T05:00:00	7	Dirección del viento	1.61
93591	7	Sololá	704	Santa Lucía Utatlán 	7	Santa Rita 	5	Mayo	2023-05-14T00:00:00	2024-11-08T05:00:00	1	Precipitación	0
93592	7	Sololá	704	Santa Lucía Utatlán 	7	Santa Rita 	5	Mayo	2023-05-14T00:00:00	2024-11-08T05:00:00	8	Radiación solar	0
93593	7	Sololá	704	Santa Lucía Utatlán 	7	Santa Rita 	5	Mayo	2023-05-14T00:00:00	2024-11-08T06:00:00	2	Temperatura media	17.8
93594	7	Sololá	704	Santa Lucía Utatlán 	7	Santa Rita 	5	Mayo	2023-05-14T00:00:00	2024-11-08T06:00:00	4	Temperatura máxima	19.4
93595	7	Sololá	704	Santa Lucía Utatlán 	7	Santa Rita 	5	Mayo	2023-05-14T00:00:00	2024-11-08T06:00:00	3	Temperatura mínima	17.6
93596	7	Sololá	704	Santa Lucía Utatlán 	7	Santa Rita 	5	Mayo	2023-05-14T00:00:00	2024-11-08T06:00:00	5	Humedad	77
93597	7	Sololá	704	Santa Lucía Utatlán 	7	Santa Rita 	5	Mayo	2023-05-14T00:00:00	2024-11-08T06:00:00	6	Velocidad del viento	8
93598	7	Sololá	704	Santa Lucía Utatlán 	7	Santa Rita 	5	Mayo	2023-05-14T00:00:00	2024-11-08T06:00:00	7	Dirección del viento	8.05
93599	7	Sololá	704	Santa Lucía Utatlán 	7	Santa Rita 	5	Mayo	2023-05-14T00:00:00	2024-11-08T06:00:00	1	Precipitación	0
93600	7	Sololá	704	Santa Lucía Utatlán 	7	Santa Rita 	5	Mayo	2023-05-14T00:00:00	2024-11-08T06:00:00	8	Radiación solar	0
93601	7	Sololá	704	Santa Lucía Utatlán 	7	Santa Rita 	5	Mayo	2023-05-14T00:00:00	2024-11-08T07:00:00	2	Temperatura media	17.1
93602	7	Sololá	704	Santa Lucía Utatlán 	7	Santa Rita 	5	Mayo	2023-05-14T00:00:00	2024-11-08T07:00:00	4	Temperatura máxima	18.2
93603	7	Sololá	704	Santa Lucía Utatlán 	7	Santa Rita 	5	Mayo	2023-05-14T00:00:00	2024-11-08T07:00:00	3	Temperatura mínima	17.1
93604	7	Sololá	704	Santa Lucía Utatlán 	7	Santa Rita 	5	Mayo	2023-05-14T00:00:00	2024-11-08T07:00:00	5	Humedad	87
93605	7	Sololá	704	Santa Lucía Utatlán 	7	Santa Rita 	5	Mayo	2023-05-14T00:00:00	2024-11-08T07:00:00	6	Velocidad del viento	4.8
93606	7	Sololá	704	Santa Lucía Utatlán 	7	Santa Rita 	5	Mayo	2023-05-14T00:00:00	2024-11-08T07:00:00	7	Dirección del viento	4.83
93607	7	Sololá	704	Santa Lucía Utatlán 	7	Santa Rita 	5	Mayo	2023-05-14T00:00:00	2024-11-08T07:00:00	1	Precipitación	0
93608	7	Sololá	704	Santa Lucía Utatlán 	7	Santa Rita 	5	Mayo	2023-05-14T00:00:00	2024-11-08T07:00:00	8	Radiación solar	1
93609	7	Sololá	704	Santa Lucía Utatlán 	7	Santa Rita 	5	Mayo	2023-05-14T00:00:00	2024-11-08T08:00:00	2	Temperatura media	17.6
93610	7	Sololá	704	Santa Lucía Utatlán 	7	Santa Rita 	5	Mayo	2023-05-14T00:00:00	2024-11-08T08:00:00	4	Temperatura máxima	17.7
93611	7	Sololá	704	Santa Lucía Utatlán 	7	Santa Rita 	5	Mayo	2023-05-14T00:00:00	2024-11-08T08:00:00	3	Temperatura mínima	16.9
93612	7	Sololá	704	Santa Lucía Utatlán 	7	Santa Rita 	5	Mayo	2023-05-14T00:00:00	2024-11-08T08:00:00	5	Humedad	84
93613	7	Sololá	704	Santa Lucía Utatlán 	7	Santa Rita 	5	Mayo	2023-05-14T00:00:00	2024-11-08T08:00:00	6	Velocidad del viento	3.2
93614	7	Sololá	704	Santa Lucía Utatlán 	7	Santa Rita 	5	Mayo	2023-05-14T00:00:00	2024-11-08T08:00:00	7	Dirección del viento	3.22
93615	7	Sololá	704	Santa Lucía Utatlán 	7	Santa Rita 	5	Mayo	2023-05-14T00:00:00	2024-11-08T08:00:00	1	Precipitación	0
93616	7	Sololá	704	Santa Lucía Utatlán 	7	Santa Rita 	5	Mayo	2023-05-14T00:00:00	2024-11-08T08:00:00	8	Radiación solar	31
93617	7	Sololá	704	Santa Lucía Utatlán 	7	Santa Rita 	5	Mayo	2023-05-14T00:00:00	2024-11-08T09:00:00	2	Temperatura media	20.6
93618	7	Sololá	704	Santa Lucía Utatlán 	7	Santa Rita 	5	Mayo	2023-05-14T00:00:00	2024-11-08T09:00:00	4	Temperatura máxima	20.6
93619	7	Sololá	704	Santa Lucía Utatlán 	7	Santa Rita 	5	Mayo	2023-05-14T00:00:00	2024-11-08T09:00:00	3	Temperatura mínima	17.5
93620	7	Sololá	704	Santa Lucía Utatlán 	7	Santa Rita 	5	Mayo	2023-05-14T00:00:00	2024-11-08T09:00:00	5	Humedad	59
93621	7	Sololá	704	Santa Lucía Utatlán 	7	Santa Rita 	5	Mayo	2023-05-14T00:00:00	2024-11-08T09:00:00	6	Velocidad del viento	3.2
93622	7	Sololá	704	Santa Lucía Utatlán 	7	Santa Rita 	5	Mayo	2023-05-14T00:00:00	2024-11-08T09:00:00	7	Dirección del viento	3.22
93623	7	Sololá	704	Santa Lucía Utatlán 	7	Santa Rita 	5	Mayo	2023-05-14T00:00:00	2024-11-08T09:00:00	1	Precipitación	0
93624	7	Sololá	704	Santa Lucía Utatlán 	7	Santa Rita 	5	Mayo	2023-05-14T00:00:00	2024-11-08T09:00:00	8	Radiación solar	148
93625	7	Sololá	704	Santa Lucía Utatlán 	7	Santa Rita 	5	Mayo	2023-05-14T00:00:00	2024-11-08T10:00:00	2	Temperatura media	23.6
93626	7	Sololá	704	Santa Lucía Utatlán 	7	Santa Rita 	5	Mayo	2023-05-14T00:00:00	2024-11-08T10:00:00	4	Temperatura máxima	23.6
93627	7	Sololá	704	Santa Lucía Utatlán 	7	Santa Rita 	5	Mayo	2023-05-14T00:00:00	2024-11-08T10:00:00	3	Temperatura mínima	20.6
93628	7	Sololá	704	Santa Lucía Utatlán 	7	Santa Rita 	5	Mayo	2023-05-14T00:00:00	2024-11-08T10:00:00	5	Humedad	51
93629	7	Sololá	704	Santa Lucía Utatlán 	7	Santa Rita 	5	Mayo	2023-05-14T00:00:00	2024-11-08T10:00:00	6	Velocidad del viento	3.2
93630	7	Sololá	704	Santa Lucía Utatlán 	7	Santa Rita 	5	Mayo	2023-05-14T00:00:00	2024-11-08T10:00:00	7	Dirección del viento	3.22
93631	7	Sololá	704	Santa Lucía Utatlán 	7	Santa Rita 	5	Mayo	2023-05-14T00:00:00	2024-11-08T10:00:00	1	Precipitación	0
93632	7	Sololá	704	Santa Lucía Utatlán 	7	Santa Rita 	5	Mayo	2023-05-14T00:00:00	2024-11-08T10:00:00	8	Radiación solar	499
93633	7	Sololá	704	Santa Lucía Utatlán 	7	Santa Rita 	5	Mayo	2023-05-14T00:00:00	2024-11-08T11:00:00	2	Temperatura media	23.7
93634	7	Sololá	704	Santa Lucía Utatlán 	7	Santa Rita 	5	Mayo	2023-05-14T00:00:00	2024-11-08T11:00:00	4	Temperatura máxima	24.6
93635	7	Sololá	704	Santa Lucía Utatlán 	7	Santa Rita 	5	Mayo	2023-05-14T00:00:00	2024-11-08T11:00:00	3	Temperatura mínima	23.6
93636	7	Sololá	704	Santa Lucía Utatlán 	7	Santa Rita 	5	Mayo	2023-05-14T00:00:00	2024-11-08T11:00:00	5	Humedad	52
93637	7	Sololá	704	Santa Lucía Utatlán 	7	Santa Rita 	5	Mayo	2023-05-14T00:00:00	2024-11-08T11:00:00	6	Velocidad del viento	4.8
93638	7	Sololá	704	Santa Lucía Utatlán 	7	Santa Rita 	5	Mayo	2023-05-14T00:00:00	2024-11-08T11:00:00	7	Dirección del viento	4.83
93639	7	Sololá	704	Santa Lucía Utatlán 	7	Santa Rita 	5	Mayo	2023-05-14T00:00:00	2024-11-08T11:00:00	1	Precipitación	0
93640	7	Sololá	704	Santa Lucía Utatlán 	7	Santa Rita 	5	Mayo	2023-05-14T00:00:00	2024-11-08T11:00:00	8	Radiación solar	606
93641	7	Sololá	704	Santa Lucía Utatlán 	7	Santa Rita 	5	Mayo	2023-05-14T00:00:00	2024-11-08T12:00:00	2	Temperatura media	22.9
93642	7	Sololá	704	Santa Lucía Utatlán 	7	Santa Rita 	5	Mayo	2023-05-14T00:00:00	2024-11-08T12:00:00	4	Temperatura máxima	23.8
93643	7	Sololá	704	Santa Lucía Utatlán 	7	Santa Rita 	5	Mayo	2023-05-14T00:00:00	2024-11-08T12:00:00	3	Temperatura mínima	22.9
93644	7	Sololá	704	Santa Lucía Utatlán 	7	Santa Rita 	5	Mayo	2023-05-14T00:00:00	2024-11-08T12:00:00	5	Humedad	65
93645	7	Sololá	704	Santa Lucía Utatlán 	7	Santa Rita 	5	Mayo	2023-05-14T00:00:00	2024-11-08T12:00:00	6	Velocidad del viento	6.4
93646	7	Sololá	704	Santa Lucía Utatlán 	7	Santa Rita 	5	Mayo	2023-05-14T00:00:00	2024-11-08T12:00:00	7	Dirección del viento	6.44
93647	7	Sololá	704	Santa Lucía Utatlán 	7	Santa Rita 	5	Mayo	2023-05-14T00:00:00	2024-11-08T12:00:00	1	Precipitación	0
93648	7	Sololá	704	Santa Lucía Utatlán 	7	Santa Rita 	5	Mayo	2023-05-14T00:00:00	2024-11-08T12:00:00	8	Radiación solar	584
93649	7	Sololá	704	Santa Lucía Utatlán 	7	Santa Rita 	5	Mayo	2023-05-14T00:00:00	2024-11-08T13:00:00	2	Temperatura media	22.8
93650	7	Sololá	704	Santa Lucía Utatlán 	7	Santa Rita 	5	Mayo	2023-05-14T00:00:00	2024-11-08T13:00:00	4	Temperatura máxima	23.7
93651	7	Sololá	704	Santa Lucía Utatlán 	7	Santa Rita 	5	Mayo	2023-05-14T00:00:00	2024-11-08T13:00:00	3	Temperatura mínima	22.8
93652	7	Sololá	704	Santa Lucía Utatlán 	7	Santa Rita 	5	Mayo	2023-05-14T00:00:00	2024-11-08T13:00:00	5	Humedad	64
93653	7	Sololá	704	Santa Lucía Utatlán 	7	Santa Rita 	5	Mayo	2023-05-14T00:00:00	2024-11-08T13:00:00	6	Velocidad del viento	6.4
93654	7	Sololá	704	Santa Lucía Utatlán 	7	Santa Rita 	5	Mayo	2023-05-14T00:00:00	2024-11-08T13:00:00	7	Dirección del viento	6.44
93655	7	Sololá	704	Santa Lucía Utatlán 	7	Santa Rita 	5	Mayo	2023-05-14T00:00:00	2024-11-08T13:00:00	1	Precipitación	0
93656	7	Sololá	704	Santa Lucía Utatlán 	7	Santa Rita 	5	Mayo	2023-05-14T00:00:00	2024-11-08T13:00:00	8	Radiación solar	762
93657	7	Sololá	704	Santa Lucía Utatlán 	7	Santa Rita 	5	Mayo	2023-05-14T00:00:00	2024-11-08T14:00:00	2	Temperatura media	23.7
93658	7	Sololá	704	Santa Lucía Utatlán 	7	Santa Rita 	5	Mayo	2023-05-14T00:00:00	2024-11-08T14:00:00	4	Temperatura máxima	23.7
93659	7	Sololá	704	Santa Lucía Utatlán 	7	Santa Rita 	5	Mayo	2023-05-14T00:00:00	2024-11-08T14:00:00	3	Temperatura mínima	22.3
93660	7	Sololá	704	Santa Lucía Utatlán 	7	Santa Rita 	5	Mayo	2023-05-14T00:00:00	2024-11-08T14:00:00	5	Humedad	64
93661	7	Sololá	704	Santa Lucía Utatlán 	7	Santa Rita 	5	Mayo	2023-05-14T00:00:00	2024-11-08T14:00:00	6	Velocidad del viento	4.8
93662	7	Sololá	704	Santa Lucía Utatlán 	7	Santa Rita 	5	Mayo	2023-05-14T00:00:00	2024-11-08T14:00:00	7	Dirección del viento	4.83
93663	7	Sololá	704	Santa Lucía Utatlán 	7	Santa Rita 	5	Mayo	2023-05-14T00:00:00	2024-11-08T14:00:00	1	Precipitación	0
93664	7	Sololá	704	Santa Lucía Utatlán 	7	Santa Rita 	5	Mayo	2023-05-14T00:00:00	2024-11-08T14:00:00	8	Radiación solar	430
93665	7	Sololá	704	Santa Lucía Utatlán 	7	Santa Rita 	5	Mayo	2023-05-14T00:00:00	2024-11-08T15:00:00	2	Temperatura media	24.3
93666	7	Sololá	704	Santa Lucía Utatlán 	7	Santa Rita 	5	Mayo	2023-05-14T00:00:00	2024-11-08T15:00:00	4	Temperatura máxima	24.8
93667	7	Sololá	704	Santa Lucía Utatlán 	7	Santa Rita 	5	Mayo	2023-05-14T00:00:00	2024-11-08T15:00:00	3	Temperatura mínima	23.7
93668	7	Sololá	704	Santa Lucía Utatlán 	7	Santa Rita 	5	Mayo	2023-05-14T00:00:00	2024-11-08T15:00:00	5	Humedad	63
93669	7	Sololá	704	Santa Lucía Utatlán 	7	Santa Rita 	5	Mayo	2023-05-14T00:00:00	2024-11-08T15:00:00	6	Velocidad del viento	4.8
93670	7	Sololá	704	Santa Lucía Utatlán 	7	Santa Rita 	5	Mayo	2023-05-14T00:00:00	2024-11-08T15:00:00	7	Dirección del viento	4.83
93671	7	Sololá	704	Santa Lucía Utatlán 	7	Santa Rita 	5	Mayo	2023-05-14T00:00:00	2024-11-08T15:00:00	1	Precipitación	0
93672	7	Sololá	704	Santa Lucía Utatlán 	7	Santa Rita 	5	Mayo	2023-05-14T00:00:00	2024-11-08T15:00:00	8	Radiación solar	699
93673	7	Sololá	704	Santa Lucía Utatlán 	7	Santa Rita 	5	Mayo	2023-05-14T00:00:00	2024-11-08T16:00:00	2	Temperatura media	24.4
93674	7	Sololá	704	Santa Lucía Utatlán 	7	Santa Rita 	5	Mayo	2023-05-14T00:00:00	2024-11-08T16:00:00	4	Temperatura máxima	24.6
93675	7	Sololá	704	Santa Lucía Utatlán 	7	Santa Rita 	5	Mayo	2023-05-14T00:00:00	2024-11-08T16:00:00	3	Temperatura mínima	23.8
93676	7	Sololá	704	Santa Lucía Utatlán 	7	Santa Rita 	5	Mayo	2023-05-14T00:00:00	2024-11-08T16:00:00	5	Humedad	64
93677	7	Sololá	704	Santa Lucía Utatlán 	7	Santa Rita 	5	Mayo	2023-05-14T00:00:00	2024-11-08T16:00:00	6	Velocidad del viento	6.4
93678	7	Sololá	704	Santa Lucía Utatlán 	7	Santa Rita 	5	Mayo	2023-05-14T00:00:00	2024-11-08T16:00:00	7	Dirección del viento	6.44
93679	7	Sololá	704	Santa Lucía Utatlán 	7	Santa Rita 	5	Mayo	2023-05-14T00:00:00	2024-11-08T16:00:00	1	Precipitación	0
93680	7	Sololá	704	Santa Lucía Utatlán 	7	Santa Rita 	5	Mayo	2023-05-14T00:00:00	2024-11-08T16:00:00	8	Radiación solar	670
93681	7	Sololá	704	Santa Lucía Utatlán 	7	Santa Rita 	5	Mayo	2023-05-14T00:00:00	2024-11-08T17:00:00	2	Temperatura media	23.6
93682	7	Sololá	704	Santa Lucía Utatlán 	7	Santa Rita 	5	Mayo	2023-05-14T00:00:00	2024-11-08T17:00:00	4	Temperatura máxima	24.4
93683	7	Sololá	704	Santa Lucía Utatlán 	7	Santa Rita 	5	Mayo	2023-05-14T00:00:00	2024-11-08T17:00:00	3	Temperatura mínima	23.3
93684	7	Sololá	704	Santa Lucía Utatlán 	7	Santa Rita 	5	Mayo	2023-05-14T00:00:00	2024-11-08T17:00:00	5	Humedad	69
93685	7	Sololá	704	Santa Lucía Utatlán 	7	Santa Rita 	5	Mayo	2023-05-14T00:00:00	2024-11-08T17:00:00	6	Velocidad del viento	6.4
93686	7	Sololá	704	Santa Lucía Utatlán 	7	Santa Rita 	5	Mayo	2023-05-14T00:00:00	2024-11-08T17:00:00	7	Dirección del viento	6.44
93687	7	Sololá	704	Santa Lucía Utatlán 	7	Santa Rita 	5	Mayo	2023-05-14T00:00:00	2024-11-08T17:00:00	1	Precipitación	0
93688	7	Sololá	704	Santa Lucía Utatlán 	7	Santa Rita 	5	Mayo	2023-05-14T00:00:00	2024-11-08T17:00:00	8	Radiación solar	322
93689	7	Sololá	704	Santa Lucía Utatlán 	7	Santa Rita 	5	Mayo	2023-05-14T00:00:00	2024-11-08T18:00:00	2	Temperatura media	23.2
93690	7	Sololá	704	Santa Lucía Utatlán 	7	Santa Rita 	5	Mayo	2023-05-14T00:00:00	2024-11-08T18:00:00	4	Temperatura máxima	23.6
93691	7	Sololá	704	Santa Lucía Utatlán 	7	Santa Rita 	5	Mayo	2023-05-14T00:00:00	2024-11-08T18:00:00	3	Temperatura mínima	23.2
93692	7	Sololá	704	Santa Lucía Utatlán 	7	Santa Rita 	5	Mayo	2023-05-14T00:00:00	2024-11-08T18:00:00	5	Humedad	74
93693	7	Sololá	704	Santa Lucía Utatlán 	7	Santa Rita 	5	Mayo	2023-05-14T00:00:00	2024-11-08T18:00:00	6	Velocidad del viento	1.6
93694	7	Sololá	704	Santa Lucía Utatlán 	7	Santa Rita 	5	Mayo	2023-05-14T00:00:00	2024-11-08T18:00:00	7	Dirección del viento	1.61
93695	7	Sololá	704	Santa Lucía Utatlán 	7	Santa Rita 	5	Mayo	2023-05-14T00:00:00	2024-11-08T18:00:00	1	Precipitación	0
93696	7	Sololá	704	Santa Lucía Utatlán 	7	Santa Rita 	5	Mayo	2023-05-14T00:00:00	2024-11-08T18:00:00	8	Radiación solar	135
93697	7	Sololá	704	Santa Lucía Utatlán 	7	Santa Rita 	5	Mayo	2023-05-14T00:00:00	2024-11-08T19:00:00	2	Temperatura media	21.9
93698	7	Sololá	704	Santa Lucía Utatlán 	7	Santa Rita 	5	Mayo	2023-05-14T00:00:00	2024-11-08T19:00:00	4	Temperatura máxima	23.3
93699	7	Sololá	704	Santa Lucía Utatlán 	7	Santa Rita 	5	Mayo	2023-05-14T00:00:00	2024-11-08T19:00:00	3	Temperatura mínima	21.9
93700	7	Sololá	704	Santa Lucía Utatlán 	7	Santa Rita 	5	Mayo	2023-05-14T00:00:00	2024-11-08T19:00:00	5	Humedad	82
93701	7	Sololá	704	Santa Lucía Utatlán 	7	Santa Rita 	5	Mayo	2023-05-14T00:00:00	2024-11-08T19:00:00	6	Velocidad del viento	4.8
93702	7	Sololá	704	Santa Lucía Utatlán 	7	Santa Rita 	5	Mayo	2023-05-14T00:00:00	2024-11-08T19:00:00	7	Dirección del viento	4.83
93703	7	Sololá	704	Santa Lucía Utatlán 	7	Santa Rita 	5	Mayo	2023-05-14T00:00:00	2024-11-08T19:00:00	1	Precipitación	0
93704	7	Sololá	704	Santa Lucía Utatlán 	7	Santa Rita 	5	Mayo	2023-05-14T00:00:00	2024-11-08T19:00:00	8	Radiación solar	0
93705	7	Sololá	704	Santa Lucía Utatlán 	7	Santa Rita 	5	Mayo	2023-05-14T00:00:00	2024-11-08T20:00:00	2	Temperatura media	20.4
93706	7	Sololá	704	Santa Lucía Utatlán 	7	Santa Rita 	5	Mayo	2023-05-14T00:00:00	2024-11-08T20:00:00	4	Temperatura máxima	21.9
93707	7	Sololá	704	Santa Lucía Utatlán 	7	Santa Rita 	5	Mayo	2023-05-14T00:00:00	2024-11-08T20:00:00	3	Temperatura mínima	20.4
93708	7	Sololá	704	Santa Lucía Utatlán 	7	Santa Rita 	5	Mayo	2023-05-14T00:00:00	2024-11-08T20:00:00	5	Humedad	92
93709	7	Sololá	704	Santa Lucía Utatlán 	7	Santa Rita 	5	Mayo	2023-05-14T00:00:00	2024-11-08T20:00:00	6	Velocidad del viento	4.8
93710	7	Sololá	704	Santa Lucía Utatlán 	7	Santa Rita 	5	Mayo	2023-05-14T00:00:00	2024-11-08T20:00:00	7	Dirección del viento	4.83
93711	7	Sololá	704	Santa Lucía Utatlán 	7	Santa Rita 	5	Mayo	2023-05-14T00:00:00	2024-11-08T20:00:00	1	Precipitación	1.2
93712	7	Sololá	704	Santa Lucía Utatlán 	7	Santa Rita 	5	Mayo	2023-05-14T00:00:00	2024-11-08T20:00:00	8	Radiación solar	0
93713	7	Sololá	704	Santa Lucía Utatlán 	7	Santa Rita 	5	Mayo	2023-05-14T00:00:00	2024-11-08T21:00:00	2	Temperatura media	19.2
93714	7	Sololá	704	Santa Lucía Utatlán 	7	Santa Rita 	5	Mayo	2023-05-14T00:00:00	2024-11-08T21:00:00	4	Temperatura máxima	20.4
93715	7	Sololá	704	Santa Lucía Utatlán 	7	Santa Rita 	5	Mayo	2023-05-14T00:00:00	2024-11-08T21:00:00	3	Temperatura mínima	19.2
93716	7	Sololá	704	Santa Lucía Utatlán 	7	Santa Rita 	5	Mayo	2023-05-14T00:00:00	2024-11-08T21:00:00	5	Humedad	92
93717	7	Sololá	704	Santa Lucía Utatlán 	7	Santa Rita 	5	Mayo	2023-05-14T00:00:00	2024-11-08T21:00:00	6	Velocidad del viento	1.6
93718	7	Sololá	704	Santa Lucía Utatlán 	7	Santa Rita 	5	Mayo	2023-05-14T00:00:00	2024-11-08T21:00:00	7	Dirección del viento	1.61
93719	7	Sololá	704	Santa Lucía Utatlán 	7	Santa Rita 	5	Mayo	2023-05-14T00:00:00	2024-11-08T21:00:00	1	Precipitación	1.8
93720	7	Sololá	704	Santa Lucía Utatlán 	7	Santa Rita 	5	Mayo	2023-05-14T00:00:00	2024-11-08T21:00:00	8	Radiación solar	0
93721	7	Sololá	704	Santa Lucía Utatlán 	7	Santa Rita 	5	Mayo	2023-05-14T00:00:00	2024-11-08T22:00:00	2	Temperatura media	18.3
93722	7	Sololá	704	Santa Lucía Utatlán 	7	Santa Rita 	5	Mayo	2023-05-14T00:00:00	2024-11-08T22:00:00	4	Temperatura máxima	19.2
93723	7	Sololá	704	Santa Lucía Utatlán 	7	Santa Rita 	5	Mayo	2023-05-14T00:00:00	2024-11-08T22:00:00	3	Temperatura mínima	18.3
93724	7	Sololá	704	Santa Lucía Utatlán 	7	Santa Rita 	5	Mayo	2023-05-14T00:00:00	2024-11-08T22:00:00	5	Humedad	92
93725	7	Sololá	704	Santa Lucía Utatlán 	7	Santa Rita 	5	Mayo	2023-05-14T00:00:00	2024-11-08T22:00:00	6	Velocidad del viento	1.6
93726	7	Sololá	704	Santa Lucía Utatlán 	7	Santa Rita 	5	Mayo	2023-05-14T00:00:00	2024-11-08T22:00:00	7	Dirección del viento	1.61
93727	7	Sololá	704	Santa Lucía Utatlán 	7	Santa Rita 	5	Mayo	2023-05-14T00:00:00	2024-11-08T22:00:00	1	Precipitación	0
93728	7	Sololá	704	Santa Lucía Utatlán 	7	Santa Rita 	5	Mayo	2023-05-14T00:00:00	2024-11-08T22:00:00	8	Radiación solar	0
93729	7	Sololá	704	Santa Lucía Utatlán 	7	Santa Rita 	5	Mayo	2023-05-14T00:00:00	2024-11-08T23:00:00	2	Temperatura media	17.9
93730	7	Sololá	704	Santa Lucía Utatlán 	7	Santa Rita 	5	Mayo	2023-05-14T00:00:00	2024-11-08T23:00:00	4	Temperatura máxima	18.3
93731	7	Sololá	704	Santa Lucía Utatlán 	7	Santa Rita 	5	Mayo	2023-05-14T00:00:00	2024-11-08T23:00:00	3	Temperatura mínima	17.9
93732	7	Sololá	704	Santa Lucía Utatlán 	7	Santa Rita 	5	Mayo	2023-05-14T00:00:00	2024-11-08T23:00:00	5	Humedad	92
93733	7	Sololá	704	Santa Lucía Utatlán 	7	Santa Rita 	5	Mayo	2023-05-14T00:00:00	2024-11-08T23:00:00	6	Velocidad del viento	1.6
93734	7	Sololá	704	Santa Lucía Utatlán 	7	Santa Rita 	5	Mayo	2023-05-14T00:00:00	2024-11-08T23:00:00	7	Dirección del viento	1.61
93735	7	Sololá	704	Santa Lucía Utatlán 	7	Santa Rita 	5	Mayo	2023-05-14T00:00:00	2024-11-08T23:00:00	1	Precipitación	0
93736	7	Sololá	704	Santa Lucía Utatlán 	7	Santa Rita 	5	Mayo	2023-05-14T00:00:00	2024-11-08T23:00:00	8	Radiación solar	0
93737	7	Sololá	704	Santa Lucía Utatlán 	7	Santa Rita 	5	Mayo	2023-05-15T00:00:00	2024-11-08T00:00:00	2	Temperatura media	17.4
93738	7	Sololá	704	Santa Lucía Utatlán 	7	Santa Rita 	5	Mayo	2023-05-15T00:00:00	2024-11-08T00:00:00	4	Temperatura máxima	17.9
93739	7	Sololá	704	Santa Lucía Utatlán 	7	Santa Rita 	5	Mayo	2023-05-15T00:00:00	2024-11-08T00:00:00	3	Temperatura mínima	17.2
93740	7	Sololá	704	Santa Lucía Utatlán 	7	Santa Rita 	5	Mayo	2023-05-15T00:00:00	2024-11-08T00:00:00	5	Humedad	93
93741	7	Sololá	704	Santa Lucía Utatlán 	7	Santa Rita 	5	Mayo	2023-05-15T00:00:00	2024-11-08T00:00:00	6	Velocidad del viento	1.6
93742	7	Sololá	704	Santa Lucía Utatlán 	7	Santa Rita 	5	Mayo	2023-05-15T00:00:00	2024-11-08T00:00:00	7	Dirección del viento	1.61
93743	7	Sololá	704	Santa Lucía Utatlán 	7	Santa Rita 	5	Mayo	2023-05-15T00:00:00	2024-11-08T00:00:00	1	Precipitación	0
93744	7	Sololá	704	Santa Lucía Utatlán 	7	Santa Rita 	5	Mayo	2023-05-15T00:00:00	2024-11-08T00:00:00	8	Radiación solar	0
93745	7	Sololá	704	Santa Lucía Utatlán 	7	Santa Rita 	5	Mayo	2023-05-15T00:00:00	2024-11-08T01:00:00	2	Temperatura media	17.6
93746	7	Sololá	704	Santa Lucía Utatlán 	7	Santa Rita 	5	Mayo	2023-05-15T00:00:00	2024-11-08T01:00:00	4	Temperatura máxima	17.7
93747	7	Sololá	704	Santa Lucía Utatlán 	7	Santa Rita 	5	Mayo	2023-05-15T00:00:00	2024-11-08T01:00:00	3	Temperatura mínima	17.4
93748	7	Sololá	704	Santa Lucía Utatlán 	7	Santa Rita 	5	Mayo	2023-05-15T00:00:00	2024-11-08T01:00:00	5	Humedad	91
93749	7	Sololá	704	Santa Lucía Utatlán 	7	Santa Rita 	5	Mayo	2023-05-15T00:00:00	2024-11-08T01:00:00	6	Velocidad del viento	3.2
93750	7	Sololá	704	Santa Lucía Utatlán 	7	Santa Rita 	5	Mayo	2023-05-15T00:00:00	2024-11-08T01:00:00	7	Dirección del viento	3.22
93751	7	Sololá	704	Santa Lucía Utatlán 	7	Santa Rita 	5	Mayo	2023-05-15T00:00:00	2024-11-08T01:00:00	1	Precipitación	0
93752	7	Sololá	704	Santa Lucía Utatlán 	7	Santa Rita 	5	Mayo	2023-05-15T00:00:00	2024-11-08T01:00:00	8	Radiación solar	0
93753	7	Sololá	704	Santa Lucía Utatlán 	7	Santa Rita 	5	Mayo	2023-05-15T00:00:00	2024-11-08T02:00:00	2	Temperatura media	18.6
93754	7	Sololá	704	Santa Lucía Utatlán 	7	Santa Rita 	5	Mayo	2023-05-15T00:00:00	2024-11-08T02:00:00	4	Temperatura máxima	18.6
93755	7	Sololá	704	Santa Lucía Utatlán 	7	Santa Rita 	5	Mayo	2023-05-15T00:00:00	2024-11-08T02:00:00	3	Temperatura mínima	17.2
93756	7	Sololá	704	Santa Lucía Utatlán 	7	Santa Rita 	5	Mayo	2023-05-15T00:00:00	2024-11-08T02:00:00	5	Humedad	84
93757	7	Sololá	704	Santa Lucía Utatlán 	7	Santa Rita 	5	Mayo	2023-05-15T00:00:00	2024-11-08T02:00:00	6	Velocidad del viento	3.2
93758	7	Sololá	704	Santa Lucía Utatlán 	7	Santa Rita 	5	Mayo	2023-05-15T00:00:00	2024-11-08T02:00:00	7	Dirección del viento	3.22
93759	7	Sololá	704	Santa Lucía Utatlán 	7	Santa Rita 	5	Mayo	2023-05-15T00:00:00	2024-11-08T02:00:00	1	Precipitación	0
93760	7	Sololá	704	Santa Lucía Utatlán 	7	Santa Rita 	5	Mayo	2023-05-15T00:00:00	2024-11-08T02:00:00	8	Radiación solar	0
93761	7	Sololá	704	Santa Lucía Utatlán 	7	Santa Rita 	5	Mayo	2023-05-15T00:00:00	2024-11-08T03:00:00	2	Temperatura media	17.3
93762	7	Sololá	704	Santa Lucía Utatlán 	7	Santa Rita 	5	Mayo	2023-05-15T00:00:00	2024-11-08T03:00:00	4	Temperatura máxima	18.9
93763	7	Sololá	704	Santa Lucía Utatlán 	7	Santa Rita 	5	Mayo	2023-05-15T00:00:00	2024-11-08T03:00:00	3	Temperatura mínima	17.1
93764	7	Sololá	704	Santa Lucía Utatlán 	7	Santa Rita 	5	Mayo	2023-05-15T00:00:00	2024-11-08T03:00:00	5	Humedad	89
93765	7	Sololá	704	Santa Lucía Utatlán 	7	Santa Rita 	5	Mayo	2023-05-15T00:00:00	2024-11-08T03:00:00	6	Velocidad del viento	1.6
93766	7	Sololá	704	Santa Lucía Utatlán 	7	Santa Rita 	5	Mayo	2023-05-15T00:00:00	2024-11-08T03:00:00	7	Dirección del viento	1.61
93767	7	Sololá	704	Santa Lucía Utatlán 	7	Santa Rita 	5	Mayo	2023-05-15T00:00:00	2024-11-08T03:00:00	1	Precipitación	0
93768	7	Sololá	704	Santa Lucía Utatlán 	7	Santa Rita 	5	Mayo	2023-05-15T00:00:00	2024-11-08T03:00:00	8	Radiación solar	0
93769	7	Sololá	704	Santa Lucía Utatlán 	7	Santa Rita 	5	Mayo	2023-05-15T00:00:00	2024-11-08T04:00:00	2	Temperatura media	17.8
93770	7	Sololá	704	Santa Lucía Utatlán 	7	Santa Rita 	5	Mayo	2023-05-15T00:00:00	2024-11-08T04:00:00	4	Temperatura máxima	17.8
93771	7	Sololá	704	Santa Lucía Utatlán 	7	Santa Rita 	5	Mayo	2023-05-15T00:00:00	2024-11-08T04:00:00	3	Temperatura mínima	17.2
93772	7	Sololá	704	Santa Lucía Utatlán 	7	Santa Rita 	5	Mayo	2023-05-15T00:00:00	2024-11-08T04:00:00	5	Humedad	87
93773	7	Sololá	704	Santa Lucía Utatlán 	7	Santa Rita 	5	Mayo	2023-05-15T00:00:00	2024-11-08T04:00:00	6	Velocidad del viento	3.2
93774	7	Sololá	704	Santa Lucía Utatlán 	7	Santa Rita 	5	Mayo	2023-05-15T00:00:00	2024-11-08T04:00:00	7	Dirección del viento	3.22
93775	7	Sololá	704	Santa Lucía Utatlán 	7	Santa Rita 	5	Mayo	2023-05-15T00:00:00	2024-11-08T04:00:00	1	Precipitación	0
93776	7	Sololá	704	Santa Lucía Utatlán 	7	Santa Rita 	5	Mayo	2023-05-15T00:00:00	2024-11-08T04:00:00	8	Radiación solar	0
93777	7	Sololá	704	Santa Lucía Utatlán 	7	Santa Rita 	5	Mayo	2023-05-15T00:00:00	2024-11-08T05:00:00	2	Temperatura media	16.6
93778	7	Sololá	704	Santa Lucía Utatlán 	7	Santa Rita 	5	Mayo	2023-05-15T00:00:00	2024-11-08T05:00:00	4	Temperatura máxima	17.9
93779	7	Sololá	704	Santa Lucía Utatlán 	7	Santa Rita 	5	Mayo	2023-05-15T00:00:00	2024-11-08T05:00:00	3	Temperatura mínima	16.2
93780	7	Sololá	704	Santa Lucía Utatlán 	7	Santa Rita 	5	Mayo	2023-05-15T00:00:00	2024-11-08T05:00:00	5	Humedad	91
93781	7	Sololá	704	Santa Lucía Utatlán 	7	Santa Rita 	5	Mayo	2023-05-15T00:00:00	2024-11-08T05:00:00	6	Velocidad del viento	1.6
93782	7	Sololá	704	Santa Lucía Utatlán 	7	Santa Rita 	5	Mayo	2023-05-15T00:00:00	2024-11-08T05:00:00	7	Dirección del viento	1.61
93783	7	Sololá	704	Santa Lucía Utatlán 	7	Santa Rita 	5	Mayo	2023-05-15T00:00:00	2024-11-08T05:00:00	1	Precipitación	0
93784	7	Sololá	704	Santa Lucía Utatlán 	7	Santa Rita 	5	Mayo	2023-05-15T00:00:00	2024-11-08T05:00:00	8	Radiación solar	0
93785	7	Sololá	704	Santa Lucía Utatlán 	7	Santa Rita 	5	Mayo	2023-05-15T00:00:00	2024-11-08T06:00:00	2	Temperatura media	16.7
93786	7	Sololá	704	Santa Lucía Utatlán 	7	Santa Rita 	5	Mayo	2023-05-15T00:00:00	2024-11-08T06:00:00	4	Temperatura máxima	16.8
93787	7	Sololá	704	Santa Lucía Utatlán 	7	Santa Rita 	5	Mayo	2023-05-15T00:00:00	2024-11-08T06:00:00	3	Temperatura mínima	16.5
93788	7	Sololá	704	Santa Lucía Utatlán 	7	Santa Rita 	5	Mayo	2023-05-15T00:00:00	2024-11-08T06:00:00	5	Humedad	91
93789	7	Sololá	704	Santa Lucía Utatlán 	7	Santa Rita 	5	Mayo	2023-05-15T00:00:00	2024-11-08T06:00:00	6	Velocidad del viento	3.2
93790	7	Sololá	704	Santa Lucía Utatlán 	7	Santa Rita 	5	Mayo	2023-05-15T00:00:00	2024-11-08T06:00:00	7	Dirección del viento	3.22
93791	7	Sololá	704	Santa Lucía Utatlán 	7	Santa Rita 	5	Mayo	2023-05-15T00:00:00	2024-11-08T06:00:00	1	Precipitación	0
93792	7	Sololá	704	Santa Lucía Utatlán 	7	Santa Rita 	5	Mayo	2023-05-15T00:00:00	2024-11-08T06:00:00	8	Radiación solar	0
93793	7	Sololá	704	Santa Lucía Utatlán 	7	Santa Rita 	5	Mayo	2023-05-15T00:00:00	2024-11-08T07:00:00	2	Temperatura media	17.1
93794	7	Sololá	704	Santa Lucía Utatlán 	7	Santa Rita 	5	Mayo	2023-05-15T00:00:00	2024-11-08T07:00:00	4	Temperatura máxima	17.1
93795	7	Sololá	704	Santa Lucía Utatlán 	7	Santa Rita 	5	Mayo	2023-05-15T00:00:00	2024-11-08T07:00:00	3	Temperatura mínima	16.7
93796	7	Sololá	704	Santa Lucía Utatlán 	7	Santa Rita 	5	Mayo	2023-05-15T00:00:00	2024-11-08T07:00:00	5	Humedad	90
93797	7	Sololá	704	Santa Lucía Utatlán 	7	Santa Rita 	5	Mayo	2023-05-15T00:00:00	2024-11-08T07:00:00	6	Velocidad del viento	1.6
93798	7	Sololá	704	Santa Lucía Utatlán 	7	Santa Rita 	5	Mayo	2023-05-15T00:00:00	2024-11-08T07:00:00	7	Dirección del viento	1.61
93799	7	Sololá	704	Santa Lucía Utatlán 	7	Santa Rita 	5	Mayo	2023-05-15T00:00:00	2024-11-08T07:00:00	1	Precipitación	0
93800	7	Sololá	704	Santa Lucía Utatlán 	7	Santa Rita 	5	Mayo	2023-05-15T00:00:00	2024-11-08T07:00:00	8	Radiación solar	5
93801	7	Sololá	704	Santa Lucía Utatlán 	7	Santa Rita 	5	Mayo	2023-05-15T00:00:00	2024-11-08T08:00:00	2	Temperatura media	18.3
93802	7	Sololá	704	Santa Lucía Utatlán 	7	Santa Rita 	5	Mayo	2023-05-15T00:00:00	2024-11-08T08:00:00	4	Temperatura máxima	18.3
93803	7	Sololá	704	Santa Lucía Utatlán 	7	Santa Rita 	5	Mayo	2023-05-15T00:00:00	2024-11-08T08:00:00	3	Temperatura mínima	16.9
93804	7	Sololá	704	Santa Lucía Utatlán 	7	Santa Rita 	5	Mayo	2023-05-15T00:00:00	2024-11-08T08:00:00	5	Humedad	91
93805	7	Sololá	704	Santa Lucía Utatlán 	7	Santa Rita 	5	Mayo	2023-05-15T00:00:00	2024-11-08T08:00:00	6	Velocidad del viento	1.6
93806	7	Sololá	704	Santa Lucía Utatlán 	7	Santa Rita 	5	Mayo	2023-05-15T00:00:00	2024-11-08T08:00:00	7	Dirección del viento	1.61
93807	7	Sololá	704	Santa Lucía Utatlán 	7	Santa Rita 	5	Mayo	2023-05-15T00:00:00	2024-11-08T08:00:00	1	Precipitación	0
93808	7	Sololá	704	Santa Lucía Utatlán 	7	Santa Rita 	5	Mayo	2023-05-15T00:00:00	2024-11-08T08:00:00	8	Radiación solar	63
93809	7	Sololá	704	Santa Lucía Utatlán 	7	Santa Rita 	5	Mayo	2023-05-15T00:00:00	2024-11-08T09:00:00	2	Temperatura media	20.4
93810	7	Sololá	704	Santa Lucía Utatlán 	7	Santa Rita 	5	Mayo	2023-05-15T00:00:00	2024-11-08T09:00:00	4	Temperatura máxima	20.4
93811	7	Sololá	704	Santa Lucía Utatlán 	7	Santa Rita 	5	Mayo	2023-05-15T00:00:00	2024-11-08T09:00:00	3	Temperatura mínima	18.3
93812	7	Sololá	704	Santa Lucía Utatlán 	7	Santa Rita 	5	Mayo	2023-05-15T00:00:00	2024-11-08T09:00:00	5	Humedad	83
93813	7	Sololá	704	Santa Lucía Utatlán 	7	Santa Rita 	5	Mayo	2023-05-15T00:00:00	2024-11-08T09:00:00	6	Velocidad del viento	0
93814	7	Sololá	704	Santa Lucía Utatlán 	7	Santa Rita 	5	Mayo	2023-05-15T00:00:00	2024-11-08T09:00:00	7	Dirección del viento	0
93815	7	Sololá	704	Santa Lucía Utatlán 	7	Santa Rita 	5	Mayo	2023-05-15T00:00:00	2024-11-08T09:00:00	1	Precipitación	0
93816	7	Sololá	704	Santa Lucía Utatlán 	7	Santa Rita 	5	Mayo	2023-05-15T00:00:00	2024-11-08T09:00:00	8	Radiación solar	172
93817	7	Sololá	704	Santa Lucía Utatlán 	7	Santa Rita 	5	Mayo	2023-05-15T00:00:00	2024-11-08T10:00:00	2	Temperatura media	21
93818	7	Sololá	704	Santa Lucía Utatlán 	7	Santa Rita 	5	Mayo	2023-05-15T00:00:00	2024-11-08T10:00:00	4	Temperatura máxima	21.5
93819	7	Sololá	704	Santa Lucía Utatlán 	7	Santa Rita 	5	Mayo	2023-05-15T00:00:00	2024-11-08T10:00:00	3	Temperatura mínima	20.4
93820	7	Sololá	704	Santa Lucía Utatlán 	7	Santa Rita 	5	Mayo	2023-05-15T00:00:00	2024-11-08T10:00:00	5	Humedad	80
93821	7	Sololá	704	Santa Lucía Utatlán 	7	Santa Rita 	5	Mayo	2023-05-15T00:00:00	2024-11-08T10:00:00	6	Velocidad del viento	3.2
93822	7	Sololá	704	Santa Lucía Utatlán 	7	Santa Rita 	5	Mayo	2023-05-15T00:00:00	2024-11-08T10:00:00	7	Dirección del viento	3.22
93823	7	Sololá	704	Santa Lucía Utatlán 	7	Santa Rita 	5	Mayo	2023-05-15T00:00:00	2024-11-08T10:00:00	1	Precipitación	0.2
93824	7	Sololá	704	Santa Lucía Utatlán 	7	Santa Rita 	5	Mayo	2023-05-15T00:00:00	2024-11-08T10:00:00	8	Radiación solar	341
93825	7	Sololá	704	Santa Lucía Utatlán 	7	Santa Rita 	5	Mayo	2023-05-15T00:00:00	2024-11-08T11:00:00	2	Temperatura media	21.3
93826	7	Sololá	704	Santa Lucía Utatlán 	7	Santa Rita 	5	Mayo	2023-05-15T00:00:00	2024-11-08T11:00:00	4	Temperatura máxima	21.4
93827	7	Sololá	704	Santa Lucía Utatlán 	7	Santa Rita 	5	Mayo	2023-05-15T00:00:00	2024-11-08T11:00:00	3	Temperatura mínima	20.5
93828	7	Sololá	704	Santa Lucía Utatlán 	7	Santa Rita 	5	Mayo	2023-05-15T00:00:00	2024-11-08T11:00:00	5	Humedad	82
93829	7	Sololá	704	Santa Lucía Utatlán 	7	Santa Rita 	5	Mayo	2023-05-15T00:00:00	2024-11-08T11:00:00	6	Velocidad del viento	3.2
93830	7	Sololá	704	Santa Lucía Utatlán 	7	Santa Rita 	5	Mayo	2023-05-15T00:00:00	2024-11-08T11:00:00	7	Dirección del viento	3.22
93831	7	Sololá	704	Santa Lucía Utatlán 	7	Santa Rita 	5	Mayo	2023-05-15T00:00:00	2024-11-08T11:00:00	1	Precipitación	0
93832	7	Sololá	704	Santa Lucía Utatlán 	7	Santa Rita 	5	Mayo	2023-05-15T00:00:00	2024-11-08T11:00:00	8	Radiación solar	222
93833	7	Sololá	704	Santa Lucía Utatlán 	7	Santa Rita 	5	Mayo	2023-05-15T00:00:00	2024-11-08T12:00:00	2	Temperatura media	21.1
93834	7	Sololá	704	Santa Lucía Utatlán 	7	Santa Rita 	5	Mayo	2023-05-15T00:00:00	2024-11-08T12:00:00	4	Temperatura máxima	21.7
93835	7	Sololá	704	Santa Lucía Utatlán 	7	Santa Rita 	5	Mayo	2023-05-15T00:00:00	2024-11-08T12:00:00	3	Temperatura mínima	20.7
93836	7	Sololá	704	Santa Lucía Utatlán 	7	Santa Rita 	5	Mayo	2023-05-15T00:00:00	2024-11-08T12:00:00	5	Humedad	81
93837	7	Sololá	704	Santa Lucía Utatlán 	7	Santa Rita 	5	Mayo	2023-05-15T00:00:00	2024-11-08T12:00:00	6	Velocidad del viento	4.8
93838	7	Sololá	704	Santa Lucía Utatlán 	7	Santa Rita 	5	Mayo	2023-05-15T00:00:00	2024-11-08T12:00:00	7	Dirección del viento	4.83
93839	7	Sololá	704	Santa Lucía Utatlán 	7	Santa Rita 	5	Mayo	2023-05-15T00:00:00	2024-11-08T12:00:00	1	Precipitación	0
93840	7	Sololá	704	Santa Lucía Utatlán 	7	Santa Rita 	5	Mayo	2023-05-15T00:00:00	2024-11-08T12:00:00	8	Radiación solar	257
93841	7	Sololá	704	Santa Lucía Utatlán 	7	Santa Rita 	5	Mayo	2023-05-15T00:00:00	2024-11-08T13:00:00	2	Temperatura media	21.2
93842	7	Sololá	704	Santa Lucía Utatlán 	7	Santa Rita 	5	Mayo	2023-05-15T00:00:00	2024-11-08T13:00:00	4	Temperatura máxima	21.3
93843	7	Sololá	704	Santa Lucía Utatlán 	7	Santa Rita 	5	Mayo	2023-05-15T00:00:00	2024-11-08T13:00:00	3	Temperatura mínima	20.9
93844	7	Sololá	704	Santa Lucía Utatlán 	7	Santa Rita 	5	Mayo	2023-05-15T00:00:00	2024-11-08T13:00:00	5	Humedad	83
93845	7	Sololá	704	Santa Lucía Utatlán 	7	Santa Rita 	5	Mayo	2023-05-15T00:00:00	2024-11-08T13:00:00	6	Velocidad del viento	4.8
93846	7	Sololá	704	Santa Lucía Utatlán 	7	Santa Rita 	5	Mayo	2023-05-15T00:00:00	2024-11-08T13:00:00	7	Dirección del viento	4.83
93847	7	Sololá	704	Santa Lucía Utatlán 	7	Santa Rita 	5	Mayo	2023-05-15T00:00:00	2024-11-08T13:00:00	1	Precipitación	0
93848	7	Sololá	704	Santa Lucía Utatlán 	7	Santa Rita 	5	Mayo	2023-05-15T00:00:00	2024-11-08T13:00:00	8	Radiación solar	202
93849	7	Sololá	704	Santa Lucía Utatlán 	7	Santa Rita 	5	Mayo	2023-05-15T00:00:00	2024-11-08T14:00:00	2	Temperatura media	22.6
93850	7	Sololá	704	Santa Lucía Utatlán 	7	Santa Rita 	5	Mayo	2023-05-15T00:00:00	2024-11-08T14:00:00	4	Temperatura máxima	22.8
93851	7	Sololá	704	Santa Lucía Utatlán 	7	Santa Rita 	5	Mayo	2023-05-15T00:00:00	2024-11-08T14:00:00	3	Temperatura mínima	21.2
93852	7	Sololá	704	Santa Lucía Utatlán 	7	Santa Rita 	5	Mayo	2023-05-15T00:00:00	2024-11-08T14:00:00	5	Humedad	78
93853	7	Sololá	704	Santa Lucía Utatlán 	7	Santa Rita 	5	Mayo	2023-05-15T00:00:00	2024-11-08T14:00:00	6	Velocidad del viento	3.2
93854	7	Sololá	704	Santa Lucía Utatlán 	7	Santa Rita 	5	Mayo	2023-05-15T00:00:00	2024-11-08T14:00:00	7	Dirección del viento	3.22
93855	7	Sololá	704	Santa Lucía Utatlán 	7	Santa Rita 	5	Mayo	2023-05-15T00:00:00	2024-11-08T14:00:00	1	Precipitación	0
93856	7	Sololá	704	Santa Lucía Utatlán 	7	Santa Rita 	5	Mayo	2023-05-15T00:00:00	2024-11-08T14:00:00	8	Radiación solar	358
93857	7	Sololá	704	Santa Lucía Utatlán 	7	Santa Rita 	5	Mayo	2023-05-15T00:00:00	2024-11-08T15:00:00	2	Temperatura media	22.1
93858	7	Sololá	704	Santa Lucía Utatlán 	7	Santa Rita 	5	Mayo	2023-05-15T00:00:00	2024-11-08T15:00:00	4	Temperatura máxima	22.7
93859	7	Sololá	704	Santa Lucía Utatlán 	7	Santa Rita 	5	Mayo	2023-05-15T00:00:00	2024-11-08T15:00:00	3	Temperatura mínima	22.1
93860	7	Sololá	704	Santa Lucía Utatlán 	7	Santa Rita 	5	Mayo	2023-05-15T00:00:00	2024-11-08T15:00:00	5	Humedad	84
93861	7	Sololá	704	Santa Lucía Utatlán 	7	Santa Rita 	5	Mayo	2023-05-15T00:00:00	2024-11-08T15:00:00	6	Velocidad del viento	3.2
93862	7	Sololá	704	Santa Lucía Utatlán 	7	Santa Rita 	5	Mayo	2023-05-15T00:00:00	2024-11-08T15:00:00	7	Dirección del viento	3.22
93863	7	Sololá	704	Santa Lucía Utatlán 	7	Santa Rita 	5	Mayo	2023-05-15T00:00:00	2024-11-08T15:00:00	1	Precipitación	0
93864	7	Sololá	704	Santa Lucía Utatlán 	7	Santa Rita 	5	Mayo	2023-05-15T00:00:00	2024-11-08T15:00:00	8	Radiación solar	194
93865	7	Sololá	704	Santa Lucía Utatlán 	7	Santa Rita 	5	Mayo	2023-05-15T00:00:00	2024-11-08T16:00:00	2	Temperatura media	22.1
93866	7	Sololá	704	Santa Lucía Utatlán 	7	Santa Rita 	5	Mayo	2023-05-15T00:00:00	2024-11-08T16:00:00	4	Temperatura máxima	22.2
93867	7	Sololá	704	Santa Lucía Utatlán 	7	Santa Rita 	5	Mayo	2023-05-15T00:00:00	2024-11-08T16:00:00	3	Temperatura mínima	21.7
93868	7	Sololá	704	Santa Lucía Utatlán 	7	Santa Rita 	5	Mayo	2023-05-15T00:00:00	2024-11-08T16:00:00	5	Humedad	85
93869	7	Sololá	704	Santa Lucía Utatlán 	7	Santa Rita 	5	Mayo	2023-05-15T00:00:00	2024-11-08T16:00:00	6	Velocidad del viento	3.2
93870	7	Sololá	704	Santa Lucía Utatlán 	7	Santa Rita 	5	Mayo	2023-05-15T00:00:00	2024-11-08T16:00:00	7	Dirección del viento	3.22
93871	7	Sololá	704	Santa Lucía Utatlán 	7	Santa Rita 	5	Mayo	2023-05-15T00:00:00	2024-11-08T16:00:00	1	Precipitación	0
93872	7	Sololá	704	Santa Lucía Utatlán 	7	Santa Rita 	5	Mayo	2023-05-15T00:00:00	2024-11-08T16:00:00	8	Radiación solar	212
93873	7	Sololá	704	Santa Lucía Utatlán 	7	Santa Rita 	5	Mayo	2023-05-15T00:00:00	2024-11-08T17:00:00	2	Temperatura media	21.1
93874	7	Sololá	704	Santa Lucía Utatlán 	7	Santa Rita 	5	Mayo	2023-05-15T00:00:00	2024-11-08T17:00:00	4	Temperatura máxima	22
93875	7	Sololá	704	Santa Lucía Utatlán 	7	Santa Rita 	5	Mayo	2023-05-15T00:00:00	2024-11-08T17:00:00	3	Temperatura mínima	21.1
93876	7	Sololá	704	Santa Lucía Utatlán 	7	Santa Rita 	5	Mayo	2023-05-15T00:00:00	2024-11-08T17:00:00	5	Humedad	90
93877	7	Sololá	704	Santa Lucía Utatlán 	7	Santa Rita 	5	Mayo	2023-05-15T00:00:00	2024-11-08T17:00:00	6	Velocidad del viento	1.6
93878	7	Sololá	704	Santa Lucía Utatlán 	7	Santa Rita 	5	Mayo	2023-05-15T00:00:00	2024-11-08T17:00:00	7	Dirección del viento	1.61
93879	7	Sololá	704	Santa Lucía Utatlán 	7	Santa Rita 	5	Mayo	2023-05-15T00:00:00	2024-11-08T17:00:00	1	Precipitación	1
93880	7	Sololá	704	Santa Lucía Utatlán 	7	Santa Rita 	5	Mayo	2023-05-15T00:00:00	2024-11-08T17:00:00	8	Radiación solar	94
93881	7	Sololá	704	Santa Lucía Utatlán 	7	Santa Rita 	5	Mayo	2023-05-15T00:00:00	2024-11-08T18:00:00	2	Temperatura media	20.6
93882	7	Sololá	704	Santa Lucía Utatlán 	7	Santa Rita 	5	Mayo	2023-05-15T00:00:00	2024-11-08T18:00:00	4	Temperatura máxima	21.2
93883	7	Sololá	704	Santa Lucía Utatlán 	7	Santa Rita 	5	Mayo	2023-05-15T00:00:00	2024-11-08T18:00:00	3	Temperatura mínima	20.6
93884	7	Sololá	704	Santa Lucía Utatlán 	7	Santa Rita 	5	Mayo	2023-05-15T00:00:00	2024-11-08T18:00:00	5	Humedad	94
93885	7	Sololá	704	Santa Lucía Utatlán 	7	Santa Rita 	5	Mayo	2023-05-15T00:00:00	2024-11-08T18:00:00	6	Velocidad del viento	1.6
93886	7	Sololá	704	Santa Lucía Utatlán 	7	Santa Rita 	5	Mayo	2023-05-15T00:00:00	2024-11-08T18:00:00	7	Dirección del viento	1.61
93887	7	Sololá	704	Santa Lucía Utatlán 	7	Santa Rita 	5	Mayo	2023-05-15T00:00:00	2024-11-08T18:00:00	1	Precipitación	0.8
93888	7	Sololá	704	Santa Lucía Utatlán 	7	Santa Rita 	5	Mayo	2023-05-15T00:00:00	2024-11-08T18:00:00	8	Radiación solar	12
93889	7	Sololá	704	Santa Lucía Utatlán 	7	Santa Rita 	5	Mayo	2023-05-15T00:00:00	2024-11-08T19:00:00	2	Temperatura media	18.7
93890	7	Sololá	704	Santa Lucía Utatlán 	7	Santa Rita 	5	Mayo	2023-05-15T00:00:00	2024-11-08T19:00:00	4	Temperatura máxima	20.6
93891	7	Sololá	704	Santa Lucía Utatlán 	7	Santa Rita 	5	Mayo	2023-05-15T00:00:00	2024-11-08T19:00:00	3	Temperatura mínima	18.3
93892	7	Sololá	704	Santa Lucía Utatlán 	7	Santa Rita 	5	Mayo	2023-05-15T00:00:00	2024-11-08T19:00:00	5	Humedad	82
93893	7	Sololá	704	Santa Lucía Utatlán 	7	Santa Rita 	5	Mayo	2023-05-15T00:00:00	2024-11-08T19:00:00	6	Velocidad del viento	6.4
93894	7	Sololá	704	Santa Lucía Utatlán 	7	Santa Rita 	5	Mayo	2023-05-15T00:00:00	2024-11-08T19:00:00	7	Dirección del viento	6.44
93895	7	Sololá	704	Santa Lucía Utatlán 	7	Santa Rita 	5	Mayo	2023-05-15T00:00:00	2024-11-08T19:00:00	1	Precipitación	4.8
93896	7	Sololá	704	Santa Lucía Utatlán 	7	Santa Rita 	5	Mayo	2023-05-15T00:00:00	2024-11-08T19:00:00	8	Radiación solar	0
93897	7	Sololá	704	Santa Lucía Utatlán 	7	Santa Rita 	5	Mayo	2023-05-15T00:00:00	2024-11-08T20:00:00	2	Temperatura media	17.8
93898	7	Sololá	704	Santa Lucía Utatlán 	7	Santa Rita 	5	Mayo	2023-05-15T00:00:00	2024-11-08T20:00:00	4	Temperatura máxima	18.7
93899	7	Sololá	704	Santa Lucía Utatlán 	7	Santa Rita 	5	Mayo	2023-05-15T00:00:00	2024-11-08T20:00:00	3	Temperatura mínima	17.8
93900	7	Sololá	704	Santa Lucía Utatlán 	7	Santa Rita 	5	Mayo	2023-05-15T00:00:00	2024-11-08T20:00:00	5	Humedad	93
93901	7	Sololá	704	Santa Lucía Utatlán 	7	Santa Rita 	5	Mayo	2023-05-15T00:00:00	2024-11-08T20:00:00	6	Velocidad del viento	4.8
93902	7	Sololá	704	Santa Lucía Utatlán 	7	Santa Rita 	5	Mayo	2023-05-15T00:00:00	2024-11-08T20:00:00	7	Dirección del viento	4.83
93903	7	Sololá	704	Santa Lucía Utatlán 	7	Santa Rita 	5	Mayo	2023-05-15T00:00:00	2024-11-08T20:00:00	1	Precipitación	0.2
93904	7	Sololá	704	Santa Lucía Utatlán 	7	Santa Rita 	5	Mayo	2023-05-15T00:00:00	2024-11-08T20:00:00	8	Radiación solar	0
93905	7	Sololá	704	Santa Lucía Utatlán 	7	Santa Rita 	5	Mayo	2023-05-15T00:00:00	2024-11-08T21:00:00	2	Temperatura media	17.6
93906	7	Sololá	704	Santa Lucía Utatlán 	7	Santa Rita 	5	Mayo	2023-05-15T00:00:00	2024-11-08T21:00:00	4	Temperatura máxima	17.9
93907	7	Sololá	704	Santa Lucía Utatlán 	7	Santa Rita 	5	Mayo	2023-05-15T00:00:00	2024-11-08T21:00:00	3	Temperatura mínima	17.4
93908	7	Sololá	704	Santa Lucía Utatlán 	7	Santa Rita 	5	Mayo	2023-05-15T00:00:00	2024-11-08T21:00:00	5	Humedad	88
93909	7	Sololá	704	Santa Lucía Utatlán 	7	Santa Rita 	5	Mayo	2023-05-15T00:00:00	2024-11-08T21:00:00	6	Velocidad del viento	3.2
93910	7	Sololá	704	Santa Lucía Utatlán 	7	Santa Rita 	5	Mayo	2023-05-15T00:00:00	2024-11-08T21:00:00	7	Dirección del viento	3.22
93911	7	Sololá	704	Santa Lucía Utatlán 	7	Santa Rita 	5	Mayo	2023-05-15T00:00:00	2024-11-08T21:00:00	1	Precipitación	0
93912	7	Sololá	704	Santa Lucía Utatlán 	7	Santa Rita 	5	Mayo	2023-05-15T00:00:00	2024-11-08T21:00:00	8	Radiación solar	0
93913	7	Sololá	704	Santa Lucía Utatlán 	7	Santa Rita 	5	Mayo	2023-05-15T00:00:00	2024-11-08T22:00:00	2	Temperatura media	17
93914	7	Sololá	704	Santa Lucía Utatlán 	7	Santa Rita 	5	Mayo	2023-05-15T00:00:00	2024-11-08T22:00:00	4	Temperatura máxima	17.6
93915	7	Sololá	704	Santa Lucía Utatlán 	7	Santa Rita 	5	Mayo	2023-05-15T00:00:00	2024-11-08T22:00:00	3	Temperatura mínima	16.9
93916	7	Sololá	704	Santa Lucía Utatlán 	7	Santa Rita 	5	Mayo	2023-05-15T00:00:00	2024-11-08T22:00:00	5	Humedad	86
93917	7	Sololá	704	Santa Lucía Utatlán 	7	Santa Rita 	5	Mayo	2023-05-15T00:00:00	2024-11-08T22:00:00	6	Velocidad del viento	3.2
93918	7	Sololá	704	Santa Lucía Utatlán 	7	Santa Rita 	5	Mayo	2023-05-15T00:00:00	2024-11-08T22:00:00	7	Dirección del viento	3.22
93919	7	Sololá	704	Santa Lucía Utatlán 	7	Santa Rita 	5	Mayo	2023-05-15T00:00:00	2024-11-08T22:00:00	1	Precipitación	0
93920	7	Sololá	704	Santa Lucía Utatlán 	7	Santa Rita 	5	Mayo	2023-05-15T00:00:00	2024-11-08T22:00:00	8	Radiación solar	0
93921	7	Sololá	704	Santa Lucía Utatlán 	7	Santa Rita 	5	Mayo	2023-05-15T00:00:00	2024-11-08T23:00:00	2	Temperatura media	16.3
93922	7	Sololá	704	Santa Lucía Utatlán 	7	Santa Rita 	5	Mayo	2023-05-15T00:00:00	2024-11-08T23:00:00	4	Temperatura máxima	17
93923	7	Sololá	704	Santa Lucía Utatlán 	7	Santa Rita 	5	Mayo	2023-05-15T00:00:00	2024-11-08T23:00:00	3	Temperatura mínima	16.3
93924	7	Sololá	704	Santa Lucía Utatlán 	7	Santa Rita 	5	Mayo	2023-05-15T00:00:00	2024-11-08T23:00:00	5	Humedad	88
93925	7	Sololá	704	Santa Lucía Utatlán 	7	Santa Rita 	5	Mayo	2023-05-15T00:00:00	2024-11-08T23:00:00	6	Velocidad del viento	3.2
93926	7	Sololá	704	Santa Lucía Utatlán 	7	Santa Rita 	5	Mayo	2023-05-15T00:00:00	2024-11-08T23:00:00	7	Dirección del viento	3.22
93927	7	Sololá	704	Santa Lucía Utatlán 	7	Santa Rita 	5	Mayo	2023-05-15T00:00:00	2024-11-08T23:00:00	1	Precipitación	0
93928	7	Sololá	704	Santa Lucía Utatlán 	7	Santa Rita 	5	Mayo	2023-05-15T00:00:00	2024-11-08T23:00:00	8	Radiación solar	0
93929	7	Sololá	704	Santa Lucía Utatlán 	7	Santa Rita 	5	Mayo	2023-05-16T00:00:00	2024-11-08T00:00:00	2	Temperatura media	16.1
93930	7	Sololá	704	Santa Lucía Utatlán 	7	Santa Rita 	5	Mayo	2023-05-16T00:00:00	2024-11-08T00:00:00	4	Temperatura máxima	16.4
93931	7	Sololá	704	Santa Lucía Utatlán 	7	Santa Rita 	5	Mayo	2023-05-16T00:00:00	2024-11-08T00:00:00	3	Temperatura mínima	15.9
93932	7	Sololá	704	Santa Lucía Utatlán 	7	Santa Rita 	5	Mayo	2023-05-16T00:00:00	2024-11-08T00:00:00	5	Humedad	84
93933	7	Sololá	704	Santa Lucía Utatlán 	7	Santa Rita 	5	Mayo	2023-05-16T00:00:00	2024-11-08T00:00:00	6	Velocidad del viento	3.2
93934	7	Sololá	704	Santa Lucía Utatlán 	7	Santa Rita 	5	Mayo	2023-05-16T00:00:00	2024-11-08T00:00:00	7	Dirección del viento	3.22
93935	7	Sololá	704	Santa Lucía Utatlán 	7	Santa Rita 	5	Mayo	2023-05-16T00:00:00	2024-11-08T00:00:00	1	Precipitación	0
93936	7	Sololá	704	Santa Lucía Utatlán 	7	Santa Rita 	5	Mayo	2023-05-16T00:00:00	2024-11-08T00:00:00	8	Radiación solar	0
93937	7	Sololá	704	Santa Lucía Utatlán 	7	Santa Rita 	5	Mayo	2023-05-16T00:00:00	2024-11-08T01:00:00	2	Temperatura media	16.9
93938	7	Sololá	704	Santa Lucía Utatlán 	7	Santa Rita 	5	Mayo	2023-05-16T00:00:00	2024-11-08T01:00:00	4	Temperatura máxima	16.9
93939	7	Sololá	704	Santa Lucía Utatlán 	7	Santa Rita 	5	Mayo	2023-05-16T00:00:00	2024-11-08T01:00:00	3	Temperatura mínima	16.1
93940	7	Sololá	704	Santa Lucía Utatlán 	7	Santa Rita 	5	Mayo	2023-05-16T00:00:00	2024-11-08T01:00:00	5	Humedad	82
93941	7	Sololá	704	Santa Lucía Utatlán 	7	Santa Rita 	5	Mayo	2023-05-16T00:00:00	2024-11-08T01:00:00	6	Velocidad del viento	3.2
93942	7	Sololá	704	Santa Lucía Utatlán 	7	Santa Rita 	5	Mayo	2023-05-16T00:00:00	2024-11-08T01:00:00	7	Dirección del viento	3.22
93943	7	Sololá	704	Santa Lucía Utatlán 	7	Santa Rita 	5	Mayo	2023-05-16T00:00:00	2024-11-08T01:00:00	1	Precipitación	0
93944	7	Sololá	704	Santa Lucía Utatlán 	7	Santa Rita 	5	Mayo	2023-05-16T00:00:00	2024-11-08T01:00:00	8	Radiación solar	0
93945	7	Sololá	704	Santa Lucía Utatlán 	7	Santa Rita 	5	Mayo	2023-05-16T00:00:00	2024-11-08T02:00:00	2	Temperatura media	17.3
93946	7	Sololá	704	Santa Lucía Utatlán 	7	Santa Rita 	5	Mayo	2023-05-16T00:00:00	2024-11-08T02:00:00	4	Temperatura máxima	17.5
93947	7	Sololá	704	Santa Lucía Utatlán 	7	Santa Rita 	5	Mayo	2023-05-16T00:00:00	2024-11-08T02:00:00	3	Temperatura mínima	16.7
93948	7	Sololá	704	Santa Lucía Utatlán 	7	Santa Rita 	5	Mayo	2023-05-16T00:00:00	2024-11-08T02:00:00	5	Humedad	81
93949	7	Sololá	704	Santa Lucía Utatlán 	7	Santa Rita 	5	Mayo	2023-05-16T00:00:00	2024-11-08T02:00:00	6	Velocidad del viento	4.8
93950	7	Sololá	704	Santa Lucía Utatlán 	7	Santa Rita 	5	Mayo	2023-05-16T00:00:00	2024-11-08T02:00:00	7	Dirección del viento	4.83
93951	7	Sololá	704	Santa Lucía Utatlán 	7	Santa Rita 	5	Mayo	2023-05-16T00:00:00	2024-11-08T02:00:00	1	Precipitación	0
93952	7	Sololá	704	Santa Lucía Utatlán 	7	Santa Rita 	5	Mayo	2023-05-16T00:00:00	2024-11-08T02:00:00	8	Radiación solar	0
93953	7	Sololá	704	Santa Lucía Utatlán 	7	Santa Rita 	5	Mayo	2023-05-16T00:00:00	2024-11-08T03:00:00	2	Temperatura media	16.2
93954	7	Sololá	704	Santa Lucía Utatlán 	7	Santa Rita 	5	Mayo	2023-05-16T00:00:00	2024-11-08T03:00:00	4	Temperatura máxima	17.2
93955	7	Sololá	704	Santa Lucía Utatlán 	7	Santa Rita 	5	Mayo	2023-05-16T00:00:00	2024-11-08T03:00:00	3	Temperatura mínima	16
93956	7	Sololá	704	Santa Lucía Utatlán 	7	Santa Rita 	5	Mayo	2023-05-16T00:00:00	2024-11-08T03:00:00	5	Humedad	84
93957	7	Sololá	704	Santa Lucía Utatlán 	7	Santa Rita 	5	Mayo	2023-05-16T00:00:00	2024-11-08T03:00:00	6	Velocidad del viento	3.2
93958	7	Sololá	704	Santa Lucía Utatlán 	7	Santa Rita 	5	Mayo	2023-05-16T00:00:00	2024-11-08T03:00:00	7	Dirección del viento	3.22
93959	7	Sololá	704	Santa Lucía Utatlán 	7	Santa Rita 	5	Mayo	2023-05-16T00:00:00	2024-11-08T03:00:00	1	Precipitación	0
93960	7	Sololá	704	Santa Lucía Utatlán 	7	Santa Rita 	5	Mayo	2023-05-16T00:00:00	2024-11-08T03:00:00	8	Radiación solar	0
93961	7	Sololá	704	Santa Lucía Utatlán 	7	Santa Rita 	5	Mayo	2023-05-16T00:00:00	2024-11-08T04:00:00	2	Temperatura media	15.7
93962	7	Sololá	704	Santa Lucía Utatlán 	7	Santa Rita 	5	Mayo	2023-05-16T00:00:00	2024-11-08T04:00:00	4	Temperatura máxima	16.4
93963	7	Sololá	704	Santa Lucía Utatlán 	7	Santa Rita 	5	Mayo	2023-05-16T00:00:00	2024-11-08T04:00:00	3	Temperatura mínima	15.7
93964	7	Sololá	704	Santa Lucía Utatlán 	7	Santa Rita 	5	Mayo	2023-05-16T00:00:00	2024-11-08T04:00:00	5	Humedad	86
93965	7	Sololá	704	Santa Lucía Utatlán 	7	Santa Rita 	5	Mayo	2023-05-16T00:00:00	2024-11-08T04:00:00	6	Velocidad del viento	3.2
93966	7	Sololá	704	Santa Lucía Utatlán 	7	Santa Rita 	5	Mayo	2023-05-16T00:00:00	2024-11-08T04:00:00	7	Dirección del viento	3.22
93967	7	Sololá	704	Santa Lucía Utatlán 	7	Santa Rita 	5	Mayo	2023-05-16T00:00:00	2024-11-08T04:00:00	1	Precipitación	0
93968	7	Sololá	704	Santa Lucía Utatlán 	7	Santa Rita 	5	Mayo	2023-05-16T00:00:00	2024-11-08T04:00:00	8	Radiación solar	0
93969	7	Sololá	704	Santa Lucía Utatlán 	7	Santa Rita 	5	Mayo	2023-05-16T00:00:00	2024-11-08T05:00:00	2	Temperatura media	15.8
93970	7	Sololá	704	Santa Lucía Utatlán 	7	Santa Rita 	5	Mayo	2023-05-16T00:00:00	2024-11-08T05:00:00	4	Temperatura máxima	15.9
93971	7	Sololá	704	Santa Lucía Utatlán 	7	Santa Rita 	5	Mayo	2023-05-16T00:00:00	2024-11-08T05:00:00	3	Temperatura mínima	15.6
93972	7	Sololá	704	Santa Lucía Utatlán 	7	Santa Rita 	5	Mayo	2023-05-16T00:00:00	2024-11-08T05:00:00	5	Humedad	84
93973	7	Sololá	704	Santa Lucía Utatlán 	7	Santa Rita 	5	Mayo	2023-05-16T00:00:00	2024-11-08T05:00:00	6	Velocidad del viento	4.8
93974	7	Sololá	704	Santa Lucía Utatlán 	7	Santa Rita 	5	Mayo	2023-05-16T00:00:00	2024-11-08T05:00:00	7	Dirección del viento	4.83
93975	7	Sololá	704	Santa Lucía Utatlán 	7	Santa Rita 	5	Mayo	2023-05-16T00:00:00	2024-11-08T05:00:00	1	Precipitación	0
93976	7	Sololá	704	Santa Lucía Utatlán 	7	Santa Rita 	5	Mayo	2023-05-16T00:00:00	2024-11-08T05:00:00	8	Radiación solar	0
93977	7	Sololá	704	Santa Lucía Utatlán 	7	Santa Rita 	5	Mayo	2023-05-16T00:00:00	2024-11-08T06:00:00	2	Temperatura media	16.4
93978	7	Sololá	704	Santa Lucía Utatlán 	7	Santa Rita 	5	Mayo	2023-05-16T00:00:00	2024-11-08T06:00:00	4	Temperatura máxima	16.6
93979	7	Sololá	704	Santa Lucía Utatlán 	7	Santa Rita 	5	Mayo	2023-05-16T00:00:00	2024-11-08T06:00:00	3	Temperatura mínima	15.7
93980	7	Sololá	704	Santa Lucía Utatlán 	7	Santa Rita 	5	Mayo	2023-05-16T00:00:00	2024-11-08T06:00:00	5	Humedad	83
93981	7	Sololá	704	Santa Lucía Utatlán 	7	Santa Rita 	5	Mayo	2023-05-16T00:00:00	2024-11-08T06:00:00	6	Velocidad del viento	3.2
93982	7	Sololá	704	Santa Lucía Utatlán 	7	Santa Rita 	5	Mayo	2023-05-16T00:00:00	2024-11-08T06:00:00	7	Dirección del viento	3.22
93983	7	Sololá	704	Santa Lucía Utatlán 	7	Santa Rita 	5	Mayo	2023-05-16T00:00:00	2024-11-08T06:00:00	1	Precipitación	0
93984	7	Sololá	704	Santa Lucía Utatlán 	7	Santa Rita 	5	Mayo	2023-05-16T00:00:00	2024-11-08T06:00:00	8	Radiación solar	0
93985	7	Sololá	704	Santa Lucía Utatlán 	7	Santa Rita 	5	Mayo	2023-05-16T00:00:00	2024-11-08T07:00:00	2	Temperatura media	16.4
93986	7	Sololá	704	Santa Lucía Utatlán 	7	Santa Rita 	5	Mayo	2023-05-16T00:00:00	2024-11-08T07:00:00	4	Temperatura máxima	16.6
93987	7	Sololá	704	Santa Lucía Utatlán 	7	Santa Rita 	5	Mayo	2023-05-16T00:00:00	2024-11-08T07:00:00	3	Temperatura mínima	16
93988	7	Sololá	704	Santa Lucía Utatlán 	7	Santa Rita 	5	Mayo	2023-05-16T00:00:00	2024-11-08T07:00:00	5	Humedad	83
93989	7	Sololá	704	Santa Lucía Utatlán 	7	Santa Rita 	5	Mayo	2023-05-16T00:00:00	2024-11-08T07:00:00	6	Velocidad del viento	3.2
93990	7	Sololá	704	Santa Lucía Utatlán 	7	Santa Rita 	5	Mayo	2023-05-16T00:00:00	2024-11-08T07:00:00	7	Dirección del viento	3.22
93991	7	Sololá	704	Santa Lucía Utatlán 	7	Santa Rita 	5	Mayo	2023-05-16T00:00:00	2024-11-08T07:00:00	1	Precipitación	0
93992	7	Sololá	704	Santa Lucía Utatlán 	7	Santa Rita 	5	Mayo	2023-05-16T00:00:00	2024-11-08T07:00:00	8	Radiación solar	6
93993	7	Sololá	704	Santa Lucía Utatlán 	7	Santa Rita 	5	Mayo	2023-05-16T00:00:00	2024-11-08T08:00:00	2	Temperatura media	18.8
93994	7	Sololá	704	Santa Lucía Utatlán 	7	Santa Rita 	5	Mayo	2023-05-16T00:00:00	2024-11-08T08:00:00	4	Temperatura máxima	18.8
93995	7	Sololá	704	Santa Lucía Utatlán 	7	Santa Rita 	5	Mayo	2023-05-16T00:00:00	2024-11-08T08:00:00	3	Temperatura mínima	16.3
93996	7	Sololá	704	Santa Lucía Utatlán 	7	Santa Rita 	5	Mayo	2023-05-16T00:00:00	2024-11-08T08:00:00	5	Humedad	76
93997	7	Sololá	704	Santa Lucía Utatlán 	7	Santa Rita 	5	Mayo	2023-05-16T00:00:00	2024-11-08T08:00:00	6	Velocidad del viento	1.6
93998	7	Sololá	704	Santa Lucía Utatlán 	7	Santa Rita 	5	Mayo	2023-05-16T00:00:00	2024-11-08T08:00:00	7	Dirección del viento	1.61
93999	7	Sololá	704	Santa Lucía Utatlán 	7	Santa Rita 	5	Mayo	2023-05-16T00:00:00	2024-11-08T08:00:00	1	Precipitación	0
94000	7	Sololá	704	Santa Lucía Utatlán 	7	Santa Rita 	5	Mayo	2023-05-16T00:00:00	2024-11-08T08:00:00	8	Radiación solar	105
94001	7	Sololá	704	Santa Lucía Utatlán 	7	Santa Rita 	5	Mayo	2023-05-16T00:00:00	2024-11-08T09:00:00	2	Temperatura media	21.4
94002	7	Sololá	704	Santa Lucía Utatlán 	7	Santa Rita 	5	Mayo	2023-05-16T00:00:00	2024-11-08T09:00:00	4	Temperatura máxima	21.4
94003	7	Sololá	704	Santa Lucía Utatlán 	7	Santa Rita 	5	Mayo	2023-05-16T00:00:00	2024-11-08T09:00:00	3	Temperatura mínima	18.9
94004	7	Sololá	704	Santa Lucía Utatlán 	7	Santa Rita 	5	Mayo	2023-05-16T00:00:00	2024-11-08T09:00:00	5	Humedad	71
94005	7	Sololá	704	Santa Lucía Utatlán 	7	Santa Rita 	5	Mayo	2023-05-16T00:00:00	2024-11-08T09:00:00	6	Velocidad del viento	3.2
94006	7	Sololá	704	Santa Lucía Utatlán 	7	Santa Rita 	5	Mayo	2023-05-16T00:00:00	2024-11-08T09:00:00	7	Dirección del viento	3.22
94007	7	Sololá	704	Santa Lucía Utatlán 	7	Santa Rita 	5	Mayo	2023-05-16T00:00:00	2024-11-08T09:00:00	1	Precipitación	0
94008	7	Sololá	704	Santa Lucía Utatlán 	7	Santa Rita 	5	Mayo	2023-05-16T00:00:00	2024-11-08T09:00:00	8	Radiación solar	424
94009	7	Sololá	704	Santa Lucía Utatlán 	7	Santa Rita 	5	Mayo	2023-05-16T00:00:00	2024-11-08T10:00:00	2	Temperatura media	22.6
94010	7	Sololá	704	Santa Lucía Utatlán 	7	Santa Rita 	5	Mayo	2023-05-16T00:00:00	2024-11-08T10:00:00	4	Temperatura máxima	22.7
94011	7	Sololá	704	Santa Lucía Utatlán 	7	Santa Rita 	5	Mayo	2023-05-16T00:00:00	2024-11-08T10:00:00	3	Temperatura mínima	21.4
94012	7	Sololá	704	Santa Lucía Utatlán 	7	Santa Rita 	5	Mayo	2023-05-16T00:00:00	2024-11-08T10:00:00	5	Humedad	72
94013	7	Sololá	704	Santa Lucía Utatlán 	7	Santa Rita 	5	Mayo	2023-05-16T00:00:00	2024-11-08T10:00:00	6	Velocidad del viento	3.2
94014	7	Sololá	704	Santa Lucía Utatlán 	7	Santa Rita 	5	Mayo	2023-05-16T00:00:00	2024-11-08T10:00:00	7	Dirección del viento	3.22
94015	7	Sololá	704	Santa Lucía Utatlán 	7	Santa Rita 	5	Mayo	2023-05-16T00:00:00	2024-11-08T10:00:00	1	Precipitación	0
94016	7	Sololá	704	Santa Lucía Utatlán 	7	Santa Rita 	5	Mayo	2023-05-16T00:00:00	2024-11-08T10:00:00	8	Radiación solar	653
94017	7	Sololá	704	Santa Lucía Utatlán 	7	Santa Rita 	5	Mayo	2023-05-16T00:00:00	2024-11-08T11:00:00	2	Temperatura media	21.4
94018	7	Sololá	704	Santa Lucía Utatlán 	7	Santa Rita 	5	Mayo	2023-05-16T00:00:00	2024-11-08T11:00:00	4	Temperatura máxima	22.9
94019	7	Sololá	704	Santa Lucía Utatlán 	7	Santa Rita 	5	Mayo	2023-05-16T00:00:00	2024-11-08T11:00:00	3	Temperatura mínima	21.4
94020	7	Sololá	704	Santa Lucía Utatlán 	7	Santa Rita 	5	Mayo	2023-05-16T00:00:00	2024-11-08T11:00:00	5	Humedad	77
94021	7	Sololá	704	Santa Lucía Utatlán 	7	Santa Rita 	5	Mayo	2023-05-16T00:00:00	2024-11-08T11:00:00	6	Velocidad del viento	6.4
94022	7	Sololá	704	Santa Lucía Utatlán 	7	Santa Rita 	5	Mayo	2023-05-16T00:00:00	2024-11-08T11:00:00	7	Dirección del viento	6.44
94023	7	Sololá	704	Santa Lucía Utatlán 	7	Santa Rita 	5	Mayo	2023-05-16T00:00:00	2024-11-08T11:00:00	1	Precipitación	0
94024	7	Sololá	704	Santa Lucía Utatlán 	7	Santa Rita 	5	Mayo	2023-05-16T00:00:00	2024-11-08T11:00:00	8	Radiación solar	610
94025	7	Sololá	704	Santa Lucía Utatlán 	7	Santa Rita 	5	Mayo	2023-05-16T00:00:00	2024-11-08T12:00:00	2	Temperatura media	21.8
94026	7	Sololá	704	Santa Lucía Utatlán 	7	Santa Rita 	5	Mayo	2023-05-16T00:00:00	2024-11-08T12:00:00	4	Temperatura máxima	22.1
94027	7	Sololá	704	Santa Lucía Utatlán 	7	Santa Rita 	5	Mayo	2023-05-16T00:00:00	2024-11-08T12:00:00	3	Temperatura mínima	21.3
94028	7	Sololá	704	Santa Lucía Utatlán 	7	Santa Rita 	5	Mayo	2023-05-16T00:00:00	2024-11-08T12:00:00	5	Humedad	74
94029	7	Sololá	704	Santa Lucía Utatlán 	7	Santa Rita 	5	Mayo	2023-05-16T00:00:00	2024-11-08T12:00:00	6	Velocidad del viento	4.8
94030	7	Sololá	704	Santa Lucía Utatlán 	7	Santa Rita 	5	Mayo	2023-05-16T00:00:00	2024-11-08T12:00:00	7	Dirección del viento	4.83
94031	7	Sololá	704	Santa Lucía Utatlán 	7	Santa Rita 	5	Mayo	2023-05-16T00:00:00	2024-11-08T12:00:00	1	Precipitación	0
94032	7	Sololá	704	Santa Lucía Utatlán 	7	Santa Rita 	5	Mayo	2023-05-16T00:00:00	2024-11-08T12:00:00	8	Radiación solar	303
94033	7	Sololá	704	Santa Lucía Utatlán 	7	Santa Rita 	5	Mayo	2023-05-16T00:00:00	2024-11-08T13:00:00	2	Temperatura media	24.2
94034	7	Sololá	704	Santa Lucía Utatlán 	7	Santa Rita 	5	Mayo	2023-05-16T00:00:00	2024-11-08T13:00:00	4	Temperatura máxima	24.5
94035	7	Sololá	704	Santa Lucía Utatlán 	7	Santa Rita 	5	Mayo	2023-05-16T00:00:00	2024-11-08T13:00:00	3	Temperatura mínima	21.8
94036	7	Sololá	704	Santa Lucía Utatlán 	7	Santa Rita 	5	Mayo	2023-05-16T00:00:00	2024-11-08T13:00:00	5	Humedad	68
94037	7	Sololá	704	Santa Lucía Utatlán 	7	Santa Rita 	5	Mayo	2023-05-16T00:00:00	2024-11-08T13:00:00	6	Velocidad del viento	3.2
94038	7	Sololá	704	Santa Lucía Utatlán 	7	Santa Rita 	5	Mayo	2023-05-16T00:00:00	2024-11-08T13:00:00	7	Dirección del viento	3.22
94039	7	Sololá	704	Santa Lucía Utatlán 	7	Santa Rita 	5	Mayo	2023-05-16T00:00:00	2024-11-08T13:00:00	1	Precipitación	0
94040	7	Sololá	704	Santa Lucía Utatlán 	7	Santa Rita 	5	Mayo	2023-05-16T00:00:00	2024-11-08T13:00:00	8	Radiación solar	604
94041	7	Sololá	704	Santa Lucía Utatlán 	7	Santa Rita 	5	Mayo	2023-05-16T00:00:00	2024-11-08T14:00:00	2	Temperatura media	23.1
94042	7	Sololá	704	Santa Lucía Utatlán 	7	Santa Rita 	5	Mayo	2023-05-16T00:00:00	2024-11-08T14:00:00	4	Temperatura máxima	24.2
94043	7	Sololá	704	Santa Lucía Utatlán 	7	Santa Rita 	5	Mayo	2023-05-16T00:00:00	2024-11-08T14:00:00	3	Temperatura mínima	23.1
94044	7	Sololá	704	Santa Lucía Utatlán 	7	Santa Rita 	5	Mayo	2023-05-16T00:00:00	2024-11-08T14:00:00	5	Humedad	73
94045	7	Sololá	704	Santa Lucía Utatlán 	7	Santa Rita 	5	Mayo	2023-05-16T00:00:00	2024-11-08T14:00:00	6	Velocidad del viento	4.8
94046	7	Sololá	704	Santa Lucía Utatlán 	7	Santa Rita 	5	Mayo	2023-05-16T00:00:00	2024-11-08T14:00:00	7	Dirección del viento	4.83
94047	7	Sololá	704	Santa Lucía Utatlán 	7	Santa Rita 	5	Mayo	2023-05-16T00:00:00	2024-11-08T14:00:00	1	Precipitación	0
94048	7	Sololá	704	Santa Lucía Utatlán 	7	Santa Rita 	5	Mayo	2023-05-16T00:00:00	2024-11-08T14:00:00	8	Radiación solar	257
94049	7	Sololá	704	Santa Lucía Utatlán 	7	Santa Rita 	5	Mayo	2023-05-16T00:00:00	2024-11-08T15:00:00	2	Temperatura media	22.2
94050	7	Sololá	704	Santa Lucía Utatlán 	7	Santa Rita 	5	Mayo	2023-05-16T00:00:00	2024-11-08T15:00:00	4	Temperatura máxima	23.2
94051	7	Sololá	704	Santa Lucía Utatlán 	7	Santa Rita 	5	Mayo	2023-05-16T00:00:00	2024-11-08T15:00:00	3	Temperatura mínima	22
94052	7	Sololá	704	Santa Lucía Utatlán 	7	Santa Rita 	5	Mayo	2023-05-16T00:00:00	2024-11-08T15:00:00	5	Humedad	79
94053	7	Sololá	704	Santa Lucía Utatlán 	7	Santa Rita 	5	Mayo	2023-05-16T00:00:00	2024-11-08T15:00:00	6	Velocidad del viento	4.8
94054	7	Sololá	704	Santa Lucía Utatlán 	7	Santa Rita 	5	Mayo	2023-05-16T00:00:00	2024-11-08T15:00:00	7	Dirección del viento	4.83
94055	7	Sololá	704	Santa Lucía Utatlán 	7	Santa Rita 	5	Mayo	2023-05-16T00:00:00	2024-11-08T15:00:00	1	Precipitación	0
94056	7	Sololá	704	Santa Lucía Utatlán 	7	Santa Rita 	5	Mayo	2023-05-16T00:00:00	2024-11-08T15:00:00	8	Radiación solar	210
94057	7	Sololá	704	Santa Lucía Utatlán 	7	Santa Rita 	5	Mayo	2023-05-16T00:00:00	2024-11-08T16:00:00	2	Temperatura media	22.2
94058	7	Sololá	704	Santa Lucía Utatlán 	7	Santa Rita 	5	Mayo	2023-05-16T00:00:00	2024-11-08T16:00:00	4	Temperatura máxima	22.3
94059	7	Sololá	704	Santa Lucía Utatlán 	7	Santa Rita 	5	Mayo	2023-05-16T00:00:00	2024-11-08T16:00:00	3	Temperatura mínima	21.8
94060	7	Sololá	704	Santa Lucía Utatlán 	7	Santa Rita 	5	Mayo	2023-05-16T00:00:00	2024-11-08T16:00:00	5	Humedad	75
94061	7	Sololá	704	Santa Lucía Utatlán 	7	Santa Rita 	5	Mayo	2023-05-16T00:00:00	2024-11-08T16:00:00	6	Velocidad del viento	4.8
94062	7	Sololá	704	Santa Lucía Utatlán 	7	Santa Rita 	5	Mayo	2023-05-16T00:00:00	2024-11-08T16:00:00	7	Dirección del viento	4.83
94063	7	Sololá	704	Santa Lucía Utatlán 	7	Santa Rita 	5	Mayo	2023-05-16T00:00:00	2024-11-08T16:00:00	1	Precipitación	0
94064	7	Sololá	704	Santa Lucía Utatlán 	7	Santa Rita 	5	Mayo	2023-05-16T00:00:00	2024-11-08T16:00:00	8	Radiación solar	188
94065	7	Sololá	704	Santa Lucía Utatlán 	7	Santa Rita 	5	Mayo	2023-05-16T00:00:00	2024-11-08T17:00:00	2	Temperatura media	22.9
94066	7	Sololá	704	Santa Lucía Utatlán 	7	Santa Rita 	5	Mayo	2023-05-16T00:00:00	2024-11-08T17:00:00	4	Temperatura máxima	23.2
94067	7	Sololá	704	Santa Lucía Utatlán 	7	Santa Rita 	5	Mayo	2023-05-16T00:00:00	2024-11-08T17:00:00	3	Temperatura mínima	22.2
94068	7	Sololá	704	Santa Lucía Utatlán 	7	Santa Rita 	5	Mayo	2023-05-16T00:00:00	2024-11-08T17:00:00	5	Humedad	71
94069	7	Sololá	704	Santa Lucía Utatlán 	7	Santa Rita 	5	Mayo	2023-05-16T00:00:00	2024-11-08T17:00:00	6	Velocidad del viento	4.8
94070	7	Sololá	704	Santa Lucía Utatlán 	7	Santa Rita 	5	Mayo	2023-05-16T00:00:00	2024-11-08T17:00:00	7	Dirección del viento	4.83
94071	7	Sololá	704	Santa Lucía Utatlán 	7	Santa Rita 	5	Mayo	2023-05-16T00:00:00	2024-11-08T17:00:00	1	Precipitación	0
94072	7	Sololá	704	Santa Lucía Utatlán 	7	Santa Rita 	5	Mayo	2023-05-16T00:00:00	2024-11-08T17:00:00	8	Radiación solar	361
94073	7	Sololá	704	Santa Lucía Utatlán 	7	Santa Rita 	5	Mayo	2023-05-16T00:00:00	2024-11-08T18:00:00	2	Temperatura media	20.8
94074	7	Sololá	704	Santa Lucía Utatlán 	7	Santa Rita 	5	Mayo	2023-05-16T00:00:00	2024-11-08T18:00:00	4	Temperatura máxima	23
94075	7	Sololá	704	Santa Lucía Utatlán 	7	Santa Rita 	5	Mayo	2023-05-16T00:00:00	2024-11-08T18:00:00	3	Temperatura mínima	20.7
94076	7	Sololá	704	Santa Lucía Utatlán 	7	Santa Rita 	5	Mayo	2023-05-16T00:00:00	2024-11-08T18:00:00	5	Humedad	85
94077	7	Sololá	704	Santa Lucía Utatlán 	7	Santa Rita 	5	Mayo	2023-05-16T00:00:00	2024-11-08T18:00:00	6	Velocidad del viento	4.8
94078	7	Sololá	704	Santa Lucía Utatlán 	7	Santa Rita 	5	Mayo	2023-05-16T00:00:00	2024-11-08T18:00:00	7	Dirección del viento	4.83
94079	7	Sololá	704	Santa Lucía Utatlán 	7	Santa Rita 	5	Mayo	2023-05-16T00:00:00	2024-11-08T18:00:00	1	Precipitación	0
94080	7	Sololá	704	Santa Lucía Utatlán 	7	Santa Rita 	5	Mayo	2023-05-16T00:00:00	2024-11-08T18:00:00	8	Radiación solar	107
94081	7	Sololá	704	Santa Lucía Utatlán 	7	Santa Rita 	5	Mayo	2023-05-16T00:00:00	2024-11-08T19:00:00	2	Temperatura media	20.1
94082	7	Sololá	704	Santa Lucía Utatlán 	7	Santa Rita 	5	Mayo	2023-05-16T00:00:00	2024-11-08T19:00:00	4	Temperatura máxima	20.9
94083	7	Sololá	704	Santa Lucía Utatlán 	7	Santa Rita 	5	Mayo	2023-05-16T00:00:00	2024-11-08T19:00:00	3	Temperatura mínima	20.1
94084	7	Sololá	704	Santa Lucía Utatlán 	7	Santa Rita 	5	Mayo	2023-05-16T00:00:00	2024-11-08T19:00:00	5	Humedad	91
94085	7	Sololá	704	Santa Lucía Utatlán 	7	Santa Rita 	5	Mayo	2023-05-16T00:00:00	2024-11-08T19:00:00	6	Velocidad del viento	3.2
94086	7	Sololá	704	Santa Lucía Utatlán 	7	Santa Rita 	5	Mayo	2023-05-16T00:00:00	2024-11-08T19:00:00	7	Dirección del viento	3.22
94087	7	Sololá	704	Santa Lucía Utatlán 	7	Santa Rita 	5	Mayo	2023-05-16T00:00:00	2024-11-08T19:00:00	1	Precipitación	0
94088	7	Sololá	704	Santa Lucía Utatlán 	7	Santa Rita 	5	Mayo	2023-05-16T00:00:00	2024-11-08T19:00:00	8	Radiación solar	0
94089	7	Sololá	704	Santa Lucía Utatlán 	7	Santa Rita 	5	Mayo	2023-05-16T00:00:00	2024-11-08T20:00:00	2	Temperatura media	19.8
94090	7	Sololá	704	Santa Lucía Utatlán 	7	Santa Rita 	5	Mayo	2023-05-16T00:00:00	2024-11-08T20:00:00	4	Temperatura máxima	20.1
94091	7	Sololá	704	Santa Lucía Utatlán 	7	Santa Rita 	5	Mayo	2023-05-16T00:00:00	2024-11-08T20:00:00	3	Temperatura mínima	19.8
94092	7	Sololá	704	Santa Lucía Utatlán 	7	Santa Rita 	5	Mayo	2023-05-16T00:00:00	2024-11-08T20:00:00	5	Humedad	91
94093	7	Sololá	704	Santa Lucía Utatlán 	7	Santa Rita 	5	Mayo	2023-05-16T00:00:00	2024-11-08T20:00:00	6	Velocidad del viento	1.6
94094	7	Sololá	704	Santa Lucía Utatlán 	7	Santa Rita 	5	Mayo	2023-05-16T00:00:00	2024-11-08T20:00:00	7	Dirección del viento	1.61
94095	7	Sololá	704	Santa Lucía Utatlán 	7	Santa Rita 	5	Mayo	2023-05-16T00:00:00	2024-11-08T20:00:00	1	Precipitación	0
94096	7	Sololá	704	Santa Lucía Utatlán 	7	Santa Rita 	5	Mayo	2023-05-16T00:00:00	2024-11-08T20:00:00	8	Radiación solar	0
94097	7	Sololá	704	Santa Lucía Utatlán 	7	Santa Rita 	5	Mayo	2023-05-16T00:00:00	2024-11-08T21:00:00	2	Temperatura media	19.6
94098	7	Sololá	704	Santa Lucía Utatlán 	7	Santa Rita 	5	Mayo	2023-05-16T00:00:00	2024-11-08T21:00:00	4	Temperatura máxima	19.8
94099	7	Sololá	704	Santa Lucía Utatlán 	7	Santa Rita 	5	Mayo	2023-05-16T00:00:00	2024-11-08T21:00:00	3	Temperatura mínima	19.6
94100	7	Sololá	704	Santa Lucía Utatlán 	7	Santa Rita 	5	Mayo	2023-05-16T00:00:00	2024-11-08T21:00:00	5	Humedad	92
94101	7	Sololá	704	Santa Lucía Utatlán 	7	Santa Rita 	5	Mayo	2023-05-16T00:00:00	2024-11-08T21:00:00	6	Velocidad del viento	1.6
94102	7	Sololá	704	Santa Lucía Utatlán 	7	Santa Rita 	5	Mayo	2023-05-16T00:00:00	2024-11-08T21:00:00	7	Dirección del viento	1.61
94103	7	Sololá	704	Santa Lucía Utatlán 	7	Santa Rita 	5	Mayo	2023-05-16T00:00:00	2024-11-08T21:00:00	1	Precipitación	0
94104	7	Sololá	704	Santa Lucía Utatlán 	7	Santa Rita 	5	Mayo	2023-05-16T00:00:00	2024-11-08T21:00:00	8	Radiación solar	0
94105	7	Sololá	704	Santa Lucía Utatlán 	7	Santa Rita 	5	Mayo	2023-05-16T00:00:00	2024-11-08T22:00:00	2	Temperatura media	18.3
94106	7	Sololá	704	Santa Lucía Utatlán 	7	Santa Rita 	5	Mayo	2023-05-16T00:00:00	2024-11-08T22:00:00	4	Temperatura máxima	19.6
94107	7	Sololá	704	Santa Lucía Utatlán 	7	Santa Rita 	5	Mayo	2023-05-16T00:00:00	2024-11-08T22:00:00	3	Temperatura mínima	18.3
94108	7	Sololá	704	Santa Lucía Utatlán 	7	Santa Rita 	5	Mayo	2023-05-16T00:00:00	2024-11-08T22:00:00	5	Humedad	91
94109	7	Sololá	704	Santa Lucía Utatlán 	7	Santa Rita 	5	Mayo	2023-05-16T00:00:00	2024-11-08T22:00:00	6	Velocidad del viento	1.6
94110	7	Sololá	704	Santa Lucía Utatlán 	7	Santa Rita 	5	Mayo	2023-05-16T00:00:00	2024-11-08T22:00:00	7	Dirección del viento	1.61
94111	7	Sololá	704	Santa Lucía Utatlán 	7	Santa Rita 	5	Mayo	2023-05-16T00:00:00	2024-11-08T22:00:00	1	Precipitación	0
94112	7	Sololá	704	Santa Lucía Utatlán 	7	Santa Rita 	5	Mayo	2023-05-16T00:00:00	2024-11-08T22:00:00	8	Radiación solar	0
94113	7	Sololá	704	Santa Lucía Utatlán 	7	Santa Rita 	5	Mayo	2023-05-16T00:00:00	2024-11-08T23:00:00	2	Temperatura media	17.9
94114	7	Sololá	704	Santa Lucía Utatlán 	7	Santa Rita 	5	Mayo	2023-05-16T00:00:00	2024-11-08T23:00:00	4	Temperatura máxima	18.3
94115	7	Sololá	704	Santa Lucía Utatlán 	7	Santa Rita 	5	Mayo	2023-05-16T00:00:00	2024-11-08T23:00:00	3	Temperatura mínima	17.7
94116	7	Sololá	704	Santa Lucía Utatlán 	7	Santa Rita 	5	Mayo	2023-05-16T00:00:00	2024-11-08T23:00:00	5	Humedad	93
94117	7	Sololá	704	Santa Lucía Utatlán 	7	Santa Rita 	5	Mayo	2023-05-16T00:00:00	2024-11-08T23:00:00	6	Velocidad del viento	1.6
94118	7	Sololá	704	Santa Lucía Utatlán 	7	Santa Rita 	5	Mayo	2023-05-16T00:00:00	2024-11-08T23:00:00	7	Dirección del viento	1.61
94119	7	Sololá	704	Santa Lucía Utatlán 	7	Santa Rita 	5	Mayo	2023-05-16T00:00:00	2024-11-08T23:00:00	1	Precipitación	0
94120	7	Sololá	704	Santa Lucía Utatlán 	7	Santa Rita 	5	Mayo	2023-05-16T00:00:00	2024-11-08T23:00:00	8	Radiación solar	0
94121	7	Sololá	704	Santa Lucía Utatlán 	7	Santa Rita 	5	Mayo	2023-05-17T00:00:00	2024-11-08T00:00:00	2	Temperatura media	17.6
94122	7	Sololá	704	Santa Lucía Utatlán 	7	Santa Rita 	5	Mayo	2023-05-17T00:00:00	2024-11-08T00:00:00	4	Temperatura máxima	18
94123	7	Sololá	704	Santa Lucía Utatlán 	7	Santa Rita 	5	Mayo	2023-05-17T00:00:00	2024-11-08T00:00:00	3	Temperatura mínima	17.6
94124	7	Sololá	704	Santa Lucía Utatlán 	7	Santa Rita 	5	Mayo	2023-05-17T00:00:00	2024-11-08T00:00:00	5	Humedad	93
94125	7	Sololá	704	Santa Lucía Utatlán 	7	Santa Rita 	5	Mayo	2023-05-17T00:00:00	2024-11-08T00:00:00	6	Velocidad del viento	0
94126	7	Sololá	704	Santa Lucía Utatlán 	7	Santa Rita 	5	Mayo	2023-05-17T00:00:00	2024-11-08T00:00:00	7	Dirección del viento	0
94127	7	Sololá	704	Santa Lucía Utatlán 	7	Santa Rita 	5	Mayo	2023-05-17T00:00:00	2024-11-08T00:00:00	1	Precipitación	0
94128	7	Sololá	704	Santa Lucía Utatlán 	7	Santa Rita 	5	Mayo	2023-05-17T00:00:00	2024-11-08T00:00:00	8	Radiación solar	0
94129	7	Sololá	704	Santa Lucía Utatlán 	7	Santa Rita 	5	Mayo	2023-05-17T00:00:00	2024-11-08T01:00:00	2	Temperatura media	17.7
94130	7	Sololá	704	Santa Lucía Utatlán 	7	Santa Rita 	5	Mayo	2023-05-17T00:00:00	2024-11-08T01:00:00	4	Temperatura máxima	17.8
94131	7	Sololá	704	Santa Lucía Utatlán 	7	Santa Rita 	5	Mayo	2023-05-17T00:00:00	2024-11-08T01:00:00	3	Temperatura mínima	17.6
94132	7	Sololá	704	Santa Lucía Utatlán 	7	Santa Rita 	5	Mayo	2023-05-17T00:00:00	2024-11-08T01:00:00	5	Humedad	91
94133	7	Sololá	704	Santa Lucía Utatlán 	7	Santa Rita 	5	Mayo	2023-05-17T00:00:00	2024-11-08T01:00:00	6	Velocidad del viento	1.6
94134	7	Sololá	704	Santa Lucía Utatlán 	7	Santa Rita 	5	Mayo	2023-05-17T00:00:00	2024-11-08T01:00:00	7	Dirección del viento	1.61
94135	7	Sololá	704	Santa Lucía Utatlán 	7	Santa Rita 	5	Mayo	2023-05-17T00:00:00	2024-11-08T01:00:00	1	Precipitación	0
94136	7	Sololá	704	Santa Lucía Utatlán 	7	Santa Rita 	5	Mayo	2023-05-17T00:00:00	2024-11-08T01:00:00	8	Radiación solar	0
94137	7	Sololá	704	Santa Lucía Utatlán 	7	Santa Rita 	5	Mayo	2023-05-17T00:00:00	2024-11-08T02:00:00	2	Temperatura media	17
94138	7	Sololá	704	Santa Lucía Utatlán 	7	Santa Rita 	5	Mayo	2023-05-17T00:00:00	2024-11-08T02:00:00	4	Temperatura máxima	17.7
94139	7	Sololá	704	Santa Lucía Utatlán 	7	Santa Rita 	5	Mayo	2023-05-17T00:00:00	2024-11-08T02:00:00	3	Temperatura mínima	17
94140	7	Sololá	704	Santa Lucía Utatlán 	7	Santa Rita 	5	Mayo	2023-05-17T00:00:00	2024-11-08T02:00:00	5	Humedad	90
94141	7	Sololá	704	Santa Lucía Utatlán 	7	Santa Rita 	5	Mayo	2023-05-17T00:00:00	2024-11-08T02:00:00	6	Velocidad del viento	1.6
94142	7	Sololá	704	Santa Lucía Utatlán 	7	Santa Rita 	5	Mayo	2023-05-17T00:00:00	2024-11-08T02:00:00	7	Dirección del viento	1.61
94143	7	Sololá	704	Santa Lucía Utatlán 	7	Santa Rita 	5	Mayo	2023-05-17T00:00:00	2024-11-08T02:00:00	1	Precipitación	0
94144	7	Sololá	704	Santa Lucía Utatlán 	7	Santa Rita 	5	Mayo	2023-05-17T00:00:00	2024-11-08T02:00:00	8	Radiación solar	0
94145	7	Sololá	704	Santa Lucía Utatlán 	7	Santa Rita 	5	Mayo	2023-05-17T00:00:00	2024-11-08T03:00:00	2	Temperatura media	17.3
94146	7	Sololá	704	Santa Lucía Utatlán 	7	Santa Rita 	5	Mayo	2023-05-17T00:00:00	2024-11-08T03:00:00	4	Temperatura máxima	17.4
94147	7	Sololá	704	Santa Lucía Utatlán 	7	Santa Rita 	5	Mayo	2023-05-17T00:00:00	2024-11-08T03:00:00	3	Temperatura mínima	17
94148	7	Sololá	704	Santa Lucía Utatlán 	7	Santa Rita 	5	Mayo	2023-05-17T00:00:00	2024-11-08T03:00:00	5	Humedad	88
94149	7	Sololá	704	Santa Lucía Utatlán 	7	Santa Rita 	5	Mayo	2023-05-17T00:00:00	2024-11-08T03:00:00	6	Velocidad del viento	3.2
94150	7	Sololá	704	Santa Lucía Utatlán 	7	Santa Rita 	5	Mayo	2023-05-17T00:00:00	2024-11-08T03:00:00	7	Dirección del viento	3.22
94151	7	Sololá	704	Santa Lucía Utatlán 	7	Santa Rita 	5	Mayo	2023-05-17T00:00:00	2024-11-08T03:00:00	1	Precipitación	0
94152	7	Sololá	704	Santa Lucía Utatlán 	7	Santa Rita 	5	Mayo	2023-05-17T00:00:00	2024-11-08T03:00:00	8	Radiación solar	0
94153	7	Sololá	704	Santa Lucía Utatlán 	7	Santa Rita 	5	Mayo	2023-05-17T00:00:00	2024-11-08T04:00:00	2	Temperatura media	17.1
94154	7	Sololá	704	Santa Lucía Utatlán 	7	Santa Rita 	5	Mayo	2023-05-17T00:00:00	2024-11-08T04:00:00	4	Temperatura máxima	17.4
94155	7	Sololá	704	Santa Lucía Utatlán 	7	Santa Rita 	5	Mayo	2023-05-17T00:00:00	2024-11-08T04:00:00	3	Temperatura mínima	16.9
94156	7	Sololá	704	Santa Lucía Utatlán 	7	Santa Rita 	5	Mayo	2023-05-17T00:00:00	2024-11-08T04:00:00	5	Humedad	87
94157	7	Sololá	704	Santa Lucía Utatlán 	7	Santa Rita 	5	Mayo	2023-05-17T00:00:00	2024-11-08T04:00:00	6	Velocidad del viento	3.2
94158	7	Sololá	704	Santa Lucía Utatlán 	7	Santa Rita 	5	Mayo	2023-05-17T00:00:00	2024-11-08T04:00:00	7	Dirección del viento	3.22
94159	7	Sololá	704	Santa Lucía Utatlán 	7	Santa Rita 	5	Mayo	2023-05-17T00:00:00	2024-11-08T04:00:00	1	Precipitación	0
94160	7	Sololá	704	Santa Lucía Utatlán 	7	Santa Rita 	5	Mayo	2023-05-17T00:00:00	2024-11-08T04:00:00	8	Radiación solar	0
94161	7	Sololá	704	Santa Lucía Utatlán 	7	Santa Rita 	5	Mayo	2023-05-17T00:00:00	2024-11-08T05:00:00	2	Temperatura media	16.6
94162	7	Sololá	704	Santa Lucía Utatlán 	7	Santa Rita 	5	Mayo	2023-05-17T00:00:00	2024-11-08T05:00:00	4	Temperatura máxima	17.3
94163	7	Sololá	704	Santa Lucía Utatlán 	7	Santa Rita 	5	Mayo	2023-05-17T00:00:00	2024-11-08T05:00:00	3	Temperatura mínima	16.6
94164	7	Sololá	704	Santa Lucía Utatlán 	7	Santa Rita 	5	Mayo	2023-05-17T00:00:00	2024-11-08T05:00:00	5	Humedad	88
94165	7	Sololá	704	Santa Lucía Utatlán 	7	Santa Rita 	5	Mayo	2023-05-17T00:00:00	2024-11-08T05:00:00	6	Velocidad del viento	1.6
94166	7	Sololá	704	Santa Lucía Utatlán 	7	Santa Rita 	5	Mayo	2023-05-17T00:00:00	2024-11-08T05:00:00	7	Dirección del viento	1.61
94167	7	Sololá	704	Santa Lucía Utatlán 	7	Santa Rita 	5	Mayo	2023-05-17T00:00:00	2024-11-08T05:00:00	1	Precipitación	0
94168	7	Sololá	704	Santa Lucía Utatlán 	7	Santa Rita 	5	Mayo	2023-05-17T00:00:00	2024-11-08T05:00:00	8	Radiación solar	0
94169	7	Sololá	704	Santa Lucía Utatlán 	7	Santa Rita 	5	Mayo	2023-05-17T00:00:00	2024-11-08T06:00:00	2	Temperatura media	17
94170	7	Sololá	704	Santa Lucía Utatlán 	7	Santa Rita 	5	Mayo	2023-05-17T00:00:00	2024-11-08T06:00:00	4	Temperatura máxima	17.1
94171	7	Sololá	704	Santa Lucía Utatlán 	7	Santa Rita 	5	Mayo	2023-05-17T00:00:00	2024-11-08T06:00:00	3	Temperatura mínima	16.6
94172	7	Sololá	704	Santa Lucía Utatlán 	7	Santa Rita 	5	Mayo	2023-05-17T00:00:00	2024-11-08T06:00:00	5	Humedad	84
94173	7	Sololá	704	Santa Lucía Utatlán 	7	Santa Rita 	5	Mayo	2023-05-17T00:00:00	2024-11-08T06:00:00	6	Velocidad del viento	3.2
94174	7	Sololá	704	Santa Lucía Utatlán 	7	Santa Rita 	5	Mayo	2023-05-17T00:00:00	2024-11-08T06:00:00	7	Dirección del viento	3.22
94175	7	Sololá	704	Santa Lucía Utatlán 	7	Santa Rita 	5	Mayo	2023-05-17T00:00:00	2024-11-08T06:00:00	1	Precipitación	0
94176	7	Sololá	704	Santa Lucía Utatlán 	7	Santa Rita 	5	Mayo	2023-05-17T00:00:00	2024-11-08T06:00:00	8	Radiación solar	0
94177	7	Sololá	704	Santa Lucía Utatlán 	7	Santa Rita 	5	Mayo	2023-05-17T00:00:00	2024-11-08T07:00:00	2	Temperatura media	16.7
94178	7	Sololá	704	Santa Lucía Utatlán 	7	Santa Rita 	5	Mayo	2023-05-17T00:00:00	2024-11-08T07:00:00	4	Temperatura máxima	17.1
94179	7	Sololá	704	Santa Lucía Utatlán 	7	Santa Rita 	5	Mayo	2023-05-17T00:00:00	2024-11-08T07:00:00	3	Temperatura mínima	16.4
94180	7	Sololá	704	Santa Lucía Utatlán 	7	Santa Rita 	5	Mayo	2023-05-17T00:00:00	2024-11-08T07:00:00	5	Humedad	86
94181	7	Sololá	704	Santa Lucía Utatlán 	7	Santa Rita 	5	Mayo	2023-05-17T00:00:00	2024-11-08T07:00:00	6	Velocidad del viento	3.2
94182	7	Sololá	704	Santa Lucía Utatlán 	7	Santa Rita 	5	Mayo	2023-05-17T00:00:00	2024-11-08T07:00:00	7	Dirección del viento	3.22
94183	7	Sololá	704	Santa Lucía Utatlán 	7	Santa Rita 	5	Mayo	2023-05-17T00:00:00	2024-11-08T07:00:00	1	Precipitación	0
94184	7	Sololá	704	Santa Lucía Utatlán 	7	Santa Rita 	5	Mayo	2023-05-17T00:00:00	2024-11-08T07:00:00	8	Radiación solar	5
94185	7	Sololá	704	Santa Lucía Utatlán 	7	Santa Rita 	5	Mayo	2023-05-17T00:00:00	2024-11-08T08:00:00	2	Temperatura media	18.9
94186	7	Sololá	704	Santa Lucía Utatlán 	7	Santa Rita 	5	Mayo	2023-05-17T00:00:00	2024-11-08T08:00:00	4	Temperatura máxima	18.9
94187	7	Sololá	704	Santa Lucía Utatlán 	7	Santa Rita 	5	Mayo	2023-05-17T00:00:00	2024-11-08T08:00:00	3	Temperatura mínima	16.3
94188	7	Sololá	704	Santa Lucía Utatlán 	7	Santa Rita 	5	Mayo	2023-05-17T00:00:00	2024-11-08T08:00:00	5	Humedad	82
94189	7	Sololá	704	Santa Lucía Utatlán 	7	Santa Rita 	5	Mayo	2023-05-17T00:00:00	2024-11-08T08:00:00	6	Velocidad del viento	1.6
94190	7	Sololá	704	Santa Lucía Utatlán 	7	Santa Rita 	5	Mayo	2023-05-17T00:00:00	2024-11-08T08:00:00	7	Dirección del viento	1.61
94191	7	Sololá	704	Santa Lucía Utatlán 	7	Santa Rita 	5	Mayo	2023-05-17T00:00:00	2024-11-08T08:00:00	1	Precipitación	0
94192	7	Sololá	704	Santa Lucía Utatlán 	7	Santa Rita 	5	Mayo	2023-05-17T00:00:00	2024-11-08T08:00:00	8	Radiación solar	108
94193	7	Sololá	704	Santa Lucía Utatlán 	7	Santa Rita 	5	Mayo	2023-05-17T00:00:00	2024-11-08T09:00:00	2	Temperatura media	21.9
94194	7	Sololá	704	Santa Lucía Utatlán 	7	Santa Rita 	5	Mayo	2023-05-17T00:00:00	2024-11-08T09:00:00	4	Temperatura máxima	21.9
94195	7	Sololá	704	Santa Lucía Utatlán 	7	Santa Rita 	5	Mayo	2023-05-17T00:00:00	2024-11-08T09:00:00	3	Temperatura mínima	18.9
94196	7	Sololá	704	Santa Lucía Utatlán 	7	Santa Rita 	5	Mayo	2023-05-17T00:00:00	2024-11-08T09:00:00	5	Humedad	71
94197	7	Sololá	704	Santa Lucía Utatlán 	7	Santa Rita 	5	Mayo	2023-05-17T00:00:00	2024-11-08T09:00:00	6	Velocidad del viento	3.2
94198	7	Sololá	704	Santa Lucía Utatlán 	7	Santa Rita 	5	Mayo	2023-05-17T00:00:00	2024-11-08T09:00:00	7	Dirección del viento	3.22
94199	7	Sololá	704	Santa Lucía Utatlán 	7	Santa Rita 	5	Mayo	2023-05-17T00:00:00	2024-11-08T09:00:00	1	Precipitación	0
94200	7	Sololá	704	Santa Lucía Utatlán 	7	Santa Rita 	5	Mayo	2023-05-17T00:00:00	2024-11-08T09:00:00	8	Radiación solar	432
94201	7	Sololá	704	Santa Lucía Utatlán 	7	Santa Rita 	5	Mayo	2023-05-17T00:00:00	2024-11-08T10:00:00	2	Temperatura media	24.1
94202	7	Sololá	704	Santa Lucía Utatlán 	7	Santa Rita 	5	Mayo	2023-05-17T00:00:00	2024-11-08T10:00:00	4	Temperatura máxima	24.1
94203	7	Sololá	704	Santa Lucía Utatlán 	7	Santa Rita 	5	Mayo	2023-05-17T00:00:00	2024-11-08T10:00:00	3	Temperatura mínima	21.9
94204	7	Sololá	704	Santa Lucía Utatlán 	7	Santa Rita 	5	Mayo	2023-05-17T00:00:00	2024-11-08T10:00:00	5	Humedad	61
94205	7	Sololá	704	Santa Lucía Utatlán 	7	Santa Rita 	5	Mayo	2023-05-17T00:00:00	2024-11-08T10:00:00	6	Velocidad del viento	3.2
94206	7	Sololá	704	Santa Lucía Utatlán 	7	Santa Rita 	5	Mayo	2023-05-17T00:00:00	2024-11-08T10:00:00	7	Dirección del viento	3.22
94207	7	Sololá	704	Santa Lucía Utatlán 	7	Santa Rita 	5	Mayo	2023-05-17T00:00:00	2024-11-08T10:00:00	1	Precipitación	0
94208	7	Sololá	704	Santa Lucía Utatlán 	7	Santa Rita 	5	Mayo	2023-05-17T00:00:00	2024-11-08T10:00:00	8	Radiación solar	659
94209	7	Sololá	704	Santa Lucía Utatlán 	7	Santa Rita 	5	Mayo	2023-05-17T00:00:00	2024-11-08T11:00:00	2	Temperatura media	24.4
94210	7	Sololá	704	Santa Lucía Utatlán 	7	Santa Rita 	5	Mayo	2023-05-17T00:00:00	2024-11-08T11:00:00	4	Temperatura máxima	24.7
94211	7	Sololá	704	Santa Lucía Utatlán 	7	Santa Rita 	5	Mayo	2023-05-17T00:00:00	2024-11-08T11:00:00	3	Temperatura mínima	23.9
94212	7	Sololá	704	Santa Lucía Utatlán 	7	Santa Rita 	5	Mayo	2023-05-17T00:00:00	2024-11-08T11:00:00	5	Humedad	63
94213	7	Sololá	704	Santa Lucía Utatlán 	7	Santa Rita 	5	Mayo	2023-05-17T00:00:00	2024-11-08T11:00:00	6	Velocidad del viento	4.8
94214	7	Sololá	704	Santa Lucía Utatlán 	7	Santa Rita 	5	Mayo	2023-05-17T00:00:00	2024-11-08T11:00:00	7	Dirección del viento	4.83
94215	7	Sololá	704	Santa Lucía Utatlán 	7	Santa Rita 	5	Mayo	2023-05-17T00:00:00	2024-11-08T11:00:00	1	Precipitación	0
94216	7	Sololá	704	Santa Lucía Utatlán 	7	Santa Rita 	5	Mayo	2023-05-17T00:00:00	2024-11-08T11:00:00	8	Radiación solar	814
94217	7	Sololá	704	Santa Lucía Utatlán 	7	Santa Rita 	5	Mayo	2023-05-17T00:00:00	2024-11-08T12:00:00	2	Temperatura media	24.9
94218	7	Sololá	704	Santa Lucía Utatlán 	7	Santa Rita 	5	Mayo	2023-05-17T00:00:00	2024-11-08T12:00:00	4	Temperatura máxima	25.2
94219	7	Sololá	704	Santa Lucía Utatlán 	7	Santa Rita 	5	Mayo	2023-05-17T00:00:00	2024-11-08T12:00:00	3	Temperatura mínima	24.4
94220	7	Sololá	704	Santa Lucía Utatlán 	7	Santa Rita 	5	Mayo	2023-05-17T00:00:00	2024-11-08T12:00:00	5	Humedad	64
94221	7	Sololá	704	Santa Lucía Utatlán 	7	Santa Rita 	5	Mayo	2023-05-17T00:00:00	2024-11-08T12:00:00	6	Velocidad del viento	8
94222	7	Sololá	704	Santa Lucía Utatlán 	7	Santa Rita 	5	Mayo	2023-05-17T00:00:00	2024-11-08T12:00:00	7	Dirección del viento	8.05
94223	7	Sololá	704	Santa Lucía Utatlán 	7	Santa Rita 	5	Mayo	2023-05-17T00:00:00	2024-11-08T12:00:00	1	Precipitación	0
94224	7	Sololá	704	Santa Lucía Utatlán 	7	Santa Rita 	5	Mayo	2023-05-17T00:00:00	2024-11-08T12:00:00	8	Radiación solar	1010
94225	7	Sololá	704	Santa Lucía Utatlán 	7	Santa Rita 	5	Mayo	2023-05-17T00:00:00	2024-11-08T13:00:00	2	Temperatura media	25.5
94226	7	Sololá	704	Santa Lucía Utatlán 	7	Santa Rita 	5	Mayo	2023-05-17T00:00:00	2024-11-08T13:00:00	4	Temperatura máxima	25.6
94227	7	Sololá	704	Santa Lucía Utatlán 	7	Santa Rita 	5	Mayo	2023-05-17T00:00:00	2024-11-08T13:00:00	3	Temperatura mínima	24.5
94228	7	Sololá	704	Santa Lucía Utatlán 	7	Santa Rita 	5	Mayo	2023-05-17T00:00:00	2024-11-08T13:00:00	5	Humedad	64
94229	7	Sololá	704	Santa Lucía Utatlán 	7	Santa Rita 	5	Mayo	2023-05-17T00:00:00	2024-11-08T13:00:00	6	Velocidad del viento	6.4
94230	7	Sololá	704	Santa Lucía Utatlán 	7	Santa Rita 	5	Mayo	2023-05-17T00:00:00	2024-11-08T13:00:00	7	Dirección del viento	6.44
94231	7	Sololá	704	Santa Lucía Utatlán 	7	Santa Rita 	5	Mayo	2023-05-17T00:00:00	2024-11-08T13:00:00	1	Precipitación	0
94232	7	Sololá	704	Santa Lucía Utatlán 	7	Santa Rita 	5	Mayo	2023-05-17T00:00:00	2024-11-08T13:00:00	8	Radiación solar	822
94233	7	Sololá	704	Santa Lucía Utatlán 	7	Santa Rita 	5	Mayo	2023-05-17T00:00:00	2024-11-08T14:00:00	2	Temperatura media	24.8
94234	7	Sololá	704	Santa Lucía Utatlán 	7	Santa Rita 	5	Mayo	2023-05-17T00:00:00	2024-11-08T14:00:00	4	Temperatura máxima	25.5
94235	7	Sololá	704	Santa Lucía Utatlán 	7	Santa Rita 	5	Mayo	2023-05-17T00:00:00	2024-11-08T14:00:00	3	Temperatura mínima	24.4
94236	7	Sololá	704	Santa Lucía Utatlán 	7	Santa Rita 	5	Mayo	2023-05-17T00:00:00	2024-11-08T14:00:00	5	Humedad	68
94237	7	Sololá	704	Santa Lucía Utatlán 	7	Santa Rita 	5	Mayo	2023-05-17T00:00:00	2024-11-08T14:00:00	6	Velocidad del viento	4.8
94238	7	Sololá	704	Santa Lucía Utatlán 	7	Santa Rita 	5	Mayo	2023-05-17T00:00:00	2024-11-08T14:00:00	7	Dirección del viento	4.83
94239	7	Sololá	704	Santa Lucía Utatlán 	7	Santa Rita 	5	Mayo	2023-05-17T00:00:00	2024-11-08T14:00:00	1	Precipitación	0
94240	7	Sololá	704	Santa Lucía Utatlán 	7	Santa Rita 	5	Mayo	2023-05-17T00:00:00	2024-11-08T14:00:00	8	Radiación solar	378
94241	7	Sololá	704	Santa Lucía Utatlán 	7	Santa Rita 	5	Mayo	2023-05-17T00:00:00	2024-11-08T15:00:00	2	Temperatura media	23.3
94242	7	Sololá	704	Santa Lucía Utatlán 	7	Santa Rita 	5	Mayo	2023-05-17T00:00:00	2024-11-08T15:00:00	4	Temperatura máxima	25.1
94243	7	Sololá	704	Santa Lucía Utatlán 	7	Santa Rita 	5	Mayo	2023-05-17T00:00:00	2024-11-08T15:00:00	3	Temperatura mínima	23.2
94244	7	Sololá	704	Santa Lucía Utatlán 	7	Santa Rita 	5	Mayo	2023-05-17T00:00:00	2024-11-08T15:00:00	5	Humedad	79
94245	7	Sololá	704	Santa Lucía Utatlán 	7	Santa Rita 	5	Mayo	2023-05-17T00:00:00	2024-11-08T15:00:00	6	Velocidad del viento	6.4
94246	7	Sololá	704	Santa Lucía Utatlán 	7	Santa Rita 	5	Mayo	2023-05-17T00:00:00	2024-11-08T15:00:00	7	Dirección del viento	6.44
94247	7	Sololá	704	Santa Lucía Utatlán 	7	Santa Rita 	5	Mayo	2023-05-17T00:00:00	2024-11-08T15:00:00	1	Precipitación	0
94248	7	Sololá	704	Santa Lucía Utatlán 	7	Santa Rita 	5	Mayo	2023-05-17T00:00:00	2024-11-08T15:00:00	8	Radiación solar	132
94249	7	Sololá	704	Santa Lucía Utatlán 	7	Santa Rita 	5	Mayo	2023-05-17T00:00:00	2024-11-08T16:00:00	2	Temperatura media	22.6
94250	7	Sololá	704	Santa Lucía Utatlán 	7	Santa Rita 	5	Mayo	2023-05-17T00:00:00	2024-11-08T16:00:00	4	Temperatura máxima	23.2
94251	7	Sololá	704	Santa Lucía Utatlán 	7	Santa Rita 	5	Mayo	2023-05-17T00:00:00	2024-11-08T16:00:00	3	Temperatura mínima	22.5
94252	7	Sololá	704	Santa Lucía Utatlán 	7	Santa Rita 	5	Mayo	2023-05-17T00:00:00	2024-11-08T16:00:00	5	Humedad	85
94253	7	Sololá	704	Santa Lucía Utatlán 	7	Santa Rita 	5	Mayo	2023-05-17T00:00:00	2024-11-08T16:00:00	6	Velocidad del viento	4.8
94254	7	Sololá	704	Santa Lucía Utatlán 	7	Santa Rita 	5	Mayo	2023-05-17T00:00:00	2024-11-08T16:00:00	7	Dirección del viento	4.83
94255	7	Sololá	704	Santa Lucía Utatlán 	7	Santa Rita 	5	Mayo	2023-05-17T00:00:00	2024-11-08T16:00:00	1	Precipitación	0
94256	7	Sololá	704	Santa Lucía Utatlán 	7	Santa Rita 	5	Mayo	2023-05-17T00:00:00	2024-11-08T16:00:00	8	Radiación solar	104
94257	7	Sololá	704	Santa Lucía Utatlán 	7	Santa Rita 	5	Mayo	2023-05-17T00:00:00	2024-11-08T17:00:00	2	Temperatura media	22.1
94258	7	Sololá	704	Santa Lucía Utatlán 	7	Santa Rita 	5	Mayo	2023-05-17T00:00:00	2024-11-08T17:00:00	4	Temperatura máxima	22.9
94259	7	Sololá	704	Santa Lucía Utatlán 	7	Santa Rita 	5	Mayo	2023-05-17T00:00:00	2024-11-08T17:00:00	3	Temperatura mínima	22.1
94260	7	Sololá	704	Santa Lucía Utatlán 	7	Santa Rita 	5	Mayo	2023-05-17T00:00:00	2024-11-08T17:00:00	5	Humedad	88
94261	7	Sololá	704	Santa Lucía Utatlán 	7	Santa Rita 	5	Mayo	2023-05-17T00:00:00	2024-11-08T17:00:00	6	Velocidad del viento	4.8
94262	7	Sololá	704	Santa Lucía Utatlán 	7	Santa Rita 	5	Mayo	2023-05-17T00:00:00	2024-11-08T17:00:00	7	Dirección del viento	4.83
94263	7	Sololá	704	Santa Lucía Utatlán 	7	Santa Rita 	5	Mayo	2023-05-17T00:00:00	2024-11-08T17:00:00	1	Precipitación	0
94264	7	Sololá	704	Santa Lucía Utatlán 	7	Santa Rita 	5	Mayo	2023-05-17T00:00:00	2024-11-08T17:00:00	8	Radiación solar	161
94265	7	Sololá	704	Santa Lucía Utatlán 	7	Santa Rita 	5	Mayo	2023-05-17T00:00:00	2024-11-08T18:00:00	2	Temperatura media	21.2
94266	7	Sololá	704	Santa Lucía Utatlán 	7	Santa Rita 	5	Mayo	2023-05-17T00:00:00	2024-11-08T18:00:00	4	Temperatura máxima	22.1
94267	7	Sololá	704	Santa Lucía Utatlán 	7	Santa Rita 	5	Mayo	2023-05-17T00:00:00	2024-11-08T18:00:00	3	Temperatura mínima	21.2
94268	7	Sololá	704	Santa Lucía Utatlán 	7	Santa Rita 	5	Mayo	2023-05-17T00:00:00	2024-11-08T18:00:00	5	Humedad	91
94269	7	Sololá	704	Santa Lucía Utatlán 	7	Santa Rita 	5	Mayo	2023-05-17T00:00:00	2024-11-08T18:00:00	6	Velocidad del viento	4.8
94270	7	Sololá	704	Santa Lucía Utatlán 	7	Santa Rita 	5	Mayo	2023-05-17T00:00:00	2024-11-08T18:00:00	7	Dirección del viento	4.83
94271	7	Sololá	704	Santa Lucía Utatlán 	7	Santa Rita 	5	Mayo	2023-05-17T00:00:00	2024-11-08T18:00:00	1	Precipitación	0
94272	7	Sololá	704	Santa Lucía Utatlán 	7	Santa Rita 	5	Mayo	2023-05-17T00:00:00	2024-11-08T18:00:00	8	Radiación solar	22
94273	7	Sololá	704	Santa Lucía Utatlán 	7	Santa Rita 	5	Mayo	2023-05-17T00:00:00	2024-11-08T19:00:00	2	Temperatura media	20.5
94274	7	Sololá	704	Santa Lucía Utatlán 	7	Santa Rita 	5	Mayo	2023-05-17T00:00:00	2024-11-08T19:00:00	4	Temperatura máxima	21.2
94275	7	Sololá	704	Santa Lucía Utatlán 	7	Santa Rita 	5	Mayo	2023-05-17T00:00:00	2024-11-08T19:00:00	3	Temperatura mínima	20.4
94276	7	Sololá	704	Santa Lucía Utatlán 	7	Santa Rita 	5	Mayo	2023-05-17T00:00:00	2024-11-08T19:00:00	5	Humedad	94
94277	7	Sololá	704	Santa Lucía Utatlán 	7	Santa Rita 	5	Mayo	2023-05-17T00:00:00	2024-11-08T19:00:00	6	Velocidad del viento	3.2
94278	7	Sololá	704	Santa Lucía Utatlán 	7	Santa Rita 	5	Mayo	2023-05-17T00:00:00	2024-11-08T19:00:00	7	Dirección del viento	3.22
94279	7	Sololá	704	Santa Lucía Utatlán 	7	Santa Rita 	5	Mayo	2023-05-17T00:00:00	2024-11-08T19:00:00	1	Precipitación	2.4
94280	7	Sololá	704	Santa Lucía Utatlán 	7	Santa Rita 	5	Mayo	2023-05-17T00:00:00	2024-11-08T19:00:00	8	Radiación solar	0
94281	7	Sololá	704	Santa Lucía Utatlán 	7	Santa Rita 	5	Mayo	2023-05-17T00:00:00	2024-11-08T20:00:00	2	Temperatura media	20.2
94282	7	Sololá	704	Santa Lucía Utatlán 	7	Santa Rita 	5	Mayo	2023-05-17T00:00:00	2024-11-08T20:00:00	4	Temperatura máxima	20.5
94283	7	Sololá	704	Santa Lucía Utatlán 	7	Santa Rita 	5	Mayo	2023-05-17T00:00:00	2024-11-08T20:00:00	3	Temperatura mínima	20.2
94284	7	Sololá	704	Santa Lucía Utatlán 	7	Santa Rita 	5	Mayo	2023-05-17T00:00:00	2024-11-08T20:00:00	5	Humedad	94
94285	7	Sololá	704	Santa Lucía Utatlán 	7	Santa Rita 	5	Mayo	2023-05-17T00:00:00	2024-11-08T20:00:00	6	Velocidad del viento	3.2
94286	7	Sololá	704	Santa Lucía Utatlán 	7	Santa Rita 	5	Mayo	2023-05-17T00:00:00	2024-11-08T20:00:00	7	Dirección del viento	3.22
94287	7	Sololá	704	Santa Lucía Utatlán 	7	Santa Rita 	5	Mayo	2023-05-17T00:00:00	2024-11-08T20:00:00	1	Precipitación	0.4
94288	7	Sololá	704	Santa Lucía Utatlán 	7	Santa Rita 	5	Mayo	2023-05-17T00:00:00	2024-11-08T20:00:00	8	Radiación solar	0
94289	7	Sololá	704	Santa Lucía Utatlán 	7	Santa Rita 	5	Mayo	2023-05-17T00:00:00	2024-11-08T21:00:00	2	Temperatura media	19.4
94290	7	Sololá	704	Santa Lucía Utatlán 	7	Santa Rita 	5	Mayo	2023-05-17T00:00:00	2024-11-08T21:00:00	4	Temperatura máxima	20.2
94291	7	Sololá	704	Santa Lucía Utatlán 	7	Santa Rita 	5	Mayo	2023-05-17T00:00:00	2024-11-08T21:00:00	3	Temperatura mínima	19.4
94292	7	Sololá	704	Santa Lucía Utatlán 	7	Santa Rita 	5	Mayo	2023-05-17T00:00:00	2024-11-08T21:00:00	5	Humedad	93
94293	7	Sololá	704	Santa Lucía Utatlán 	7	Santa Rita 	5	Mayo	2023-05-17T00:00:00	2024-11-08T21:00:00	6	Velocidad del viento	1.6
94294	7	Sololá	704	Santa Lucía Utatlán 	7	Santa Rita 	5	Mayo	2023-05-17T00:00:00	2024-11-08T21:00:00	7	Dirección del viento	1.61
94295	7	Sololá	704	Santa Lucía Utatlán 	7	Santa Rita 	5	Mayo	2023-05-17T00:00:00	2024-11-08T21:00:00	1	Precipitación	0.4
94296	7	Sololá	704	Santa Lucía Utatlán 	7	Santa Rita 	5	Mayo	2023-05-17T00:00:00	2024-11-08T21:00:00	8	Radiación solar	0
94297	7	Sololá	704	Santa Lucía Utatlán 	7	Santa Rita 	5	Mayo	2023-05-17T00:00:00	2024-11-08T22:00:00	2	Temperatura media	18.2
94298	7	Sololá	704	Santa Lucía Utatlán 	7	Santa Rita 	5	Mayo	2023-05-17T00:00:00	2024-11-08T22:00:00	4	Temperatura máxima	19.3
94299	7	Sololá	704	Santa Lucía Utatlán 	7	Santa Rita 	5	Mayo	2023-05-17T00:00:00	2024-11-08T22:00:00	3	Temperatura mínima	18.2
94300	7	Sololá	704	Santa Lucía Utatlán 	7	Santa Rita 	5	Mayo	2023-05-17T00:00:00	2024-11-08T22:00:00	5	Humedad	92
94301	7	Sololá	704	Santa Lucía Utatlán 	7	Santa Rita 	5	Mayo	2023-05-17T00:00:00	2024-11-08T22:00:00	6	Velocidad del viento	1.6
94302	7	Sololá	704	Santa Lucía Utatlán 	7	Santa Rita 	5	Mayo	2023-05-17T00:00:00	2024-11-08T22:00:00	7	Dirección del viento	1.61
94303	7	Sololá	704	Santa Lucía Utatlán 	7	Santa Rita 	5	Mayo	2023-05-17T00:00:00	2024-11-08T22:00:00	1	Precipitación	0
94304	7	Sololá	704	Santa Lucía Utatlán 	7	Santa Rita 	5	Mayo	2023-05-17T00:00:00	2024-11-08T22:00:00	8	Radiación solar	0
94305	7	Sololá	704	Santa Lucía Utatlán 	7	Santa Rita 	5	Mayo	2023-05-17T00:00:00	2024-11-08T23:00:00	2	Temperatura media	17.8
94306	7	Sololá	704	Santa Lucía Utatlán 	7	Santa Rita 	5	Mayo	2023-05-17T00:00:00	2024-11-08T23:00:00	4	Temperatura máxima	18.2
94307	7	Sololá	704	Santa Lucía Utatlán 	7	Santa Rita 	5	Mayo	2023-05-17T00:00:00	2024-11-08T23:00:00	3	Temperatura mínima	17.8
94308	7	Sololá	704	Santa Lucía Utatlán 	7	Santa Rita 	5	Mayo	2023-05-17T00:00:00	2024-11-08T23:00:00	5	Humedad	93
94309	7	Sololá	704	Santa Lucía Utatlán 	7	Santa Rita 	5	Mayo	2023-05-17T00:00:00	2024-11-08T23:00:00	6	Velocidad del viento	3.2
94310	7	Sololá	704	Santa Lucía Utatlán 	7	Santa Rita 	5	Mayo	2023-05-17T00:00:00	2024-11-08T23:00:00	7	Dirección del viento	3.22
94311	7	Sololá	704	Santa Lucía Utatlán 	7	Santa Rita 	5	Mayo	2023-05-17T00:00:00	2024-11-08T23:00:00	1	Precipitación	0
94312	7	Sololá	704	Santa Lucía Utatlán 	7	Santa Rita 	5	Mayo	2023-05-17T00:00:00	2024-11-08T23:00:00	8	Radiación solar	0
94313	7	Sololá	704	Santa Lucía Utatlán 	7	Santa Rita 	5	Mayo	2023-05-18T00:00:00	2024-11-08T00:00:00	2	Temperatura media	17.6
94314	7	Sololá	704	Santa Lucía Utatlán 	7	Santa Rita 	5	Mayo	2023-05-18T00:00:00	2024-11-08T00:00:00	4	Temperatura máxima	17.9
94315	7	Sololá	704	Santa Lucía Utatlán 	7	Santa Rita 	5	Mayo	2023-05-18T00:00:00	2024-11-08T00:00:00	3	Temperatura mínima	17.6
94316	7	Sololá	704	Santa Lucía Utatlán 	7	Santa Rita 	5	Mayo	2023-05-18T00:00:00	2024-11-08T00:00:00	5	Humedad	94
94317	7	Sololá	704	Santa Lucía Utatlán 	7	Santa Rita 	5	Mayo	2023-05-18T00:00:00	2024-11-08T00:00:00	6	Velocidad del viento	1.6
94318	7	Sololá	704	Santa Lucía Utatlán 	7	Santa Rita 	5	Mayo	2023-05-18T00:00:00	2024-11-08T00:00:00	7	Dirección del viento	1.61
94319	7	Sololá	704	Santa Lucía Utatlán 	7	Santa Rita 	5	Mayo	2023-05-18T00:00:00	2024-11-08T00:00:00	1	Precipitación	0
94320	7	Sololá	704	Santa Lucía Utatlán 	7	Santa Rita 	5	Mayo	2023-05-18T00:00:00	2024-11-08T00:00:00	8	Radiación solar	0
94321	7	Sololá	704	Santa Lucía Utatlán 	7	Santa Rita 	5	Mayo	2023-05-18T00:00:00	2024-11-08T01:00:00	2	Temperatura media	17.4
94322	7	Sololá	704	Santa Lucía Utatlán 	7	Santa Rita 	5	Mayo	2023-05-18T00:00:00	2024-11-08T01:00:00	4	Temperatura máxima	17.6
94323	7	Sololá	704	Santa Lucía Utatlán 	7	Santa Rita 	5	Mayo	2023-05-18T00:00:00	2024-11-08T01:00:00	3	Temperatura mínima	17.4
94324	7	Sololá	704	Santa Lucía Utatlán 	7	Santa Rita 	5	Mayo	2023-05-18T00:00:00	2024-11-08T01:00:00	5	Humedad	93
94325	7	Sololá	704	Santa Lucía Utatlán 	7	Santa Rita 	5	Mayo	2023-05-18T00:00:00	2024-11-08T01:00:00	6	Velocidad del viento	3.2
94326	7	Sololá	704	Santa Lucía Utatlán 	7	Santa Rita 	5	Mayo	2023-05-18T00:00:00	2024-11-08T01:00:00	7	Dirección del viento	3.22
94327	7	Sololá	704	Santa Lucía Utatlán 	7	Santa Rita 	5	Mayo	2023-05-18T00:00:00	2024-11-08T01:00:00	1	Precipitación	0
94328	7	Sololá	704	Santa Lucía Utatlán 	7	Santa Rita 	5	Mayo	2023-05-18T00:00:00	2024-11-08T01:00:00	8	Radiación solar	0
94329	7	Sololá	704	Santa Lucía Utatlán 	7	Santa Rita 	5	Mayo	2023-05-18T00:00:00	2024-11-08T02:00:00	2	Temperatura media	17.6
94330	7	Sololá	704	Santa Lucía Utatlán 	7	Santa Rita 	5	Mayo	2023-05-18T00:00:00	2024-11-08T02:00:00	4	Temperatura máxima	17.7
94331	7	Sololá	704	Santa Lucía Utatlán 	7	Santa Rita 	5	Mayo	2023-05-18T00:00:00	2024-11-08T02:00:00	3	Temperatura mínima	17.3
94332	7	Sololá	704	Santa Lucía Utatlán 	7	Santa Rita 	5	Mayo	2023-05-18T00:00:00	2024-11-08T02:00:00	5	Humedad	95
94333	7	Sololá	704	Santa Lucía Utatlán 	7	Santa Rita 	5	Mayo	2023-05-18T00:00:00	2024-11-08T02:00:00	6	Velocidad del viento	1.6
94334	7	Sololá	704	Santa Lucía Utatlán 	7	Santa Rita 	5	Mayo	2023-05-18T00:00:00	2024-11-08T02:00:00	7	Dirección del viento	1.61
94335	7	Sololá	704	Santa Lucía Utatlán 	7	Santa Rita 	5	Mayo	2023-05-18T00:00:00	2024-11-08T02:00:00	1	Precipitación	0
94336	7	Sololá	704	Santa Lucía Utatlán 	7	Santa Rita 	5	Mayo	2023-05-18T00:00:00	2024-11-08T02:00:00	8	Radiación solar	0
94337	7	Sololá	704	Santa Lucía Utatlán 	7	Santa Rita 	5	Mayo	2023-05-18T00:00:00	2024-11-08T03:00:00	2	Temperatura media	17.3
94338	7	Sololá	704	Santa Lucía Utatlán 	7	Santa Rita 	5	Mayo	2023-05-18T00:00:00	2024-11-08T03:00:00	4	Temperatura máxima	17.6
94339	7	Sololá	704	Santa Lucía Utatlán 	7	Santa Rita 	5	Mayo	2023-05-18T00:00:00	2024-11-08T03:00:00	3	Temperatura mínima	17.3
94340	7	Sololá	704	Santa Lucía Utatlán 	7	Santa Rita 	5	Mayo	2023-05-18T00:00:00	2024-11-08T03:00:00	5	Humedad	92
94341	7	Sololá	704	Santa Lucía Utatlán 	7	Santa Rita 	5	Mayo	2023-05-18T00:00:00	2024-11-08T03:00:00	6	Velocidad del viento	3.2
94342	7	Sololá	704	Santa Lucía Utatlán 	7	Santa Rita 	5	Mayo	2023-05-18T00:00:00	2024-11-08T03:00:00	7	Dirección del viento	3.22
94343	7	Sololá	704	Santa Lucía Utatlán 	7	Santa Rita 	5	Mayo	2023-05-18T00:00:00	2024-11-08T03:00:00	1	Precipitación	0
94344	7	Sololá	704	Santa Lucía Utatlán 	7	Santa Rita 	5	Mayo	2023-05-18T00:00:00	2024-11-08T03:00:00	8	Radiación solar	0
94345	7	Sololá	704	Santa Lucía Utatlán 	7	Santa Rita 	5	Mayo	2023-05-18T00:00:00	2024-11-08T04:00:00	2	Temperatura media	17
94346	7	Sololá	704	Santa Lucía Utatlán 	7	Santa Rita 	5	Mayo	2023-05-18T00:00:00	2024-11-08T04:00:00	4	Temperatura máxima	17.3
94347	7	Sololá	704	Santa Lucía Utatlán 	7	Santa Rita 	5	Mayo	2023-05-18T00:00:00	2024-11-08T04:00:00	3	Temperatura mínima	16.8
94348	7	Sololá	704	Santa Lucía Utatlán 	7	Santa Rita 	5	Mayo	2023-05-18T00:00:00	2024-11-08T04:00:00	5	Humedad	92
94349	7	Sololá	704	Santa Lucía Utatlán 	7	Santa Rita 	5	Mayo	2023-05-18T00:00:00	2024-11-08T04:00:00	6	Velocidad del viento	1.6
94350	7	Sololá	704	Santa Lucía Utatlán 	7	Santa Rita 	5	Mayo	2023-05-18T00:00:00	2024-11-08T04:00:00	7	Dirección del viento	1.61
94351	7	Sololá	704	Santa Lucía Utatlán 	7	Santa Rita 	5	Mayo	2023-05-18T00:00:00	2024-11-08T04:00:00	1	Precipitación	0
94352	7	Sololá	704	Santa Lucía Utatlán 	7	Santa Rita 	5	Mayo	2023-05-18T00:00:00	2024-11-08T04:00:00	8	Radiación solar	0
94353	7	Sololá	704	Santa Lucía Utatlán 	7	Santa Rita 	5	Mayo	2023-05-18T00:00:00	2024-11-08T05:00:00	2	Temperatura media	16.8
94354	7	Sololá	704	Santa Lucía Utatlán 	7	Santa Rita 	5	Mayo	2023-05-18T00:00:00	2024-11-08T05:00:00	4	Temperatura máxima	17.1
94355	7	Sololá	704	Santa Lucía Utatlán 	7	Santa Rita 	5	Mayo	2023-05-18T00:00:00	2024-11-08T05:00:00	3	Temperatura mínima	16.8
94356	7	Sololá	704	Santa Lucía Utatlán 	7	Santa Rita 	5	Mayo	2023-05-18T00:00:00	2024-11-08T05:00:00	5	Humedad	90
94357	7	Sololá	704	Santa Lucía Utatlán 	7	Santa Rita 	5	Mayo	2023-05-18T00:00:00	2024-11-08T05:00:00	6	Velocidad del viento	3.2
94358	7	Sololá	704	Santa Lucía Utatlán 	7	Santa Rita 	5	Mayo	2023-05-18T00:00:00	2024-11-08T05:00:00	7	Dirección del viento	3.22
94359	7	Sololá	704	Santa Lucía Utatlán 	7	Santa Rita 	5	Mayo	2023-05-18T00:00:00	2024-11-08T05:00:00	1	Precipitación	0
94360	7	Sololá	704	Santa Lucía Utatlán 	7	Santa Rita 	5	Mayo	2023-05-18T00:00:00	2024-11-08T05:00:00	8	Radiación solar	0
94361	7	Sololá	704	Santa Lucía Utatlán 	7	Santa Rita 	5	Mayo	2023-05-18T00:00:00	2024-11-08T06:00:00	2	Temperatura media	16.4
94362	7	Sololá	704	Santa Lucía Utatlán 	7	Santa Rita 	5	Mayo	2023-05-18T00:00:00	2024-11-08T06:00:00	4	Temperatura máxima	16.9
94363	7	Sololá	704	Santa Lucía Utatlán 	7	Santa Rita 	5	Mayo	2023-05-18T00:00:00	2024-11-08T06:00:00	3	Temperatura mínima	16.4
94364	7	Sololá	704	Santa Lucía Utatlán 	7	Santa Rita 	5	Mayo	2023-05-18T00:00:00	2024-11-08T06:00:00	5	Humedad	92
94365	7	Sololá	704	Santa Lucía Utatlán 	7	Santa Rita 	5	Mayo	2023-05-18T00:00:00	2024-11-08T06:00:00	6	Velocidad del viento	1.6
94366	7	Sololá	704	Santa Lucía Utatlán 	7	Santa Rita 	5	Mayo	2023-05-18T00:00:00	2024-11-08T06:00:00	7	Dirección del viento	1.61
94367	7	Sololá	704	Santa Lucía Utatlán 	7	Santa Rita 	5	Mayo	2023-05-18T00:00:00	2024-11-08T06:00:00	1	Precipitación	0
94368	7	Sololá	704	Santa Lucía Utatlán 	7	Santa Rita 	5	Mayo	2023-05-18T00:00:00	2024-11-08T06:00:00	8	Radiación solar	0
94369	7	Sololá	704	Santa Lucía Utatlán 	7	Santa Rita 	5	Mayo	2023-05-18T00:00:00	2024-11-08T07:00:00	2	Temperatura media	16.8
94370	7	Sololá	704	Santa Lucía Utatlán 	7	Santa Rita 	5	Mayo	2023-05-18T00:00:00	2024-11-08T07:00:00	4	Temperatura máxima	16.8
94371	7	Sololá	704	Santa Lucía Utatlán 	7	Santa Rita 	5	Mayo	2023-05-18T00:00:00	2024-11-08T07:00:00	3	Temperatura mínima	16.4
94372	7	Sololá	704	Santa Lucía Utatlán 	7	Santa Rita 	5	Mayo	2023-05-18T00:00:00	2024-11-08T07:00:00	5	Humedad	91
94373	7	Sololá	704	Santa Lucía Utatlán 	7	Santa Rita 	5	Mayo	2023-05-18T00:00:00	2024-11-08T07:00:00	6	Velocidad del viento	3.2
94374	7	Sololá	704	Santa Lucía Utatlán 	7	Santa Rita 	5	Mayo	2023-05-18T00:00:00	2024-11-08T07:00:00	7	Dirección del viento	3.22
94375	7	Sololá	704	Santa Lucía Utatlán 	7	Santa Rita 	5	Mayo	2023-05-18T00:00:00	2024-11-08T07:00:00	1	Precipitación	0.2
94376	7	Sololá	704	Santa Lucía Utatlán 	7	Santa Rita 	5	Mayo	2023-05-18T00:00:00	2024-11-08T07:00:00	8	Radiación solar	8
94377	7	Sololá	704	Santa Lucía Utatlán 	7	Santa Rita 	5	Mayo	2023-05-18T00:00:00	2024-11-08T08:00:00	2	Temperatura media	19
94378	7	Sololá	704	Santa Lucía Utatlán 	7	Santa Rita 	5	Mayo	2023-05-18T00:00:00	2024-11-08T08:00:00	4	Temperatura máxima	19
94379	7	Sololá	704	Santa Lucía Utatlán 	7	Santa Rita 	5	Mayo	2023-05-18T00:00:00	2024-11-08T08:00:00	3	Temperatura mínima	16.6
94380	7	Sololá	704	Santa Lucía Utatlán 	7	Santa Rita 	5	Mayo	2023-05-18T00:00:00	2024-11-08T08:00:00	5	Humedad	88
94381	7	Sololá	704	Santa Lucía Utatlán 	7	Santa Rita 	5	Mayo	2023-05-18T00:00:00	2024-11-08T08:00:00	6	Velocidad del viento	1.6
94382	7	Sololá	704	Santa Lucía Utatlán 	7	Santa Rita 	5	Mayo	2023-05-18T00:00:00	2024-11-08T08:00:00	7	Dirección del viento	1.61
94383	7	Sololá	704	Santa Lucía Utatlán 	7	Santa Rita 	5	Mayo	2023-05-18T00:00:00	2024-11-08T08:00:00	1	Precipitación	0
94384	7	Sololá	704	Santa Lucía Utatlán 	7	Santa Rita 	5	Mayo	2023-05-18T00:00:00	2024-11-08T08:00:00	8	Radiación solar	113
94385	7	Sololá	704	Santa Lucía Utatlán 	7	Santa Rita 	5	Mayo	2023-05-18T00:00:00	2024-11-08T09:00:00	2	Temperatura media	20.9
94386	7	Sololá	704	Santa Lucía Utatlán 	7	Santa Rita 	5	Mayo	2023-05-18T00:00:00	2024-11-08T09:00:00	4	Temperatura máxima	20.9
94387	7	Sololá	704	Santa Lucía Utatlán 	7	Santa Rita 	5	Mayo	2023-05-18T00:00:00	2024-11-08T09:00:00	3	Temperatura mínima	19
94388	7	Sololá	704	Santa Lucía Utatlán 	7	Santa Rita 	5	Mayo	2023-05-18T00:00:00	2024-11-08T09:00:00	5	Humedad	79
94389	7	Sololá	704	Santa Lucía Utatlán 	7	Santa Rita 	5	Mayo	2023-05-18T00:00:00	2024-11-08T09:00:00	6	Velocidad del viento	1.6
94390	7	Sololá	704	Santa Lucía Utatlán 	7	Santa Rita 	5	Mayo	2023-05-18T00:00:00	2024-11-08T09:00:00	7	Dirección del viento	1.61
94391	7	Sololá	704	Santa Lucía Utatlán 	7	Santa Rita 	5	Mayo	2023-05-18T00:00:00	2024-11-08T09:00:00	1	Precipitación	0
94392	7	Sololá	704	Santa Lucía Utatlán 	7	Santa Rita 	5	Mayo	2023-05-18T00:00:00	2024-11-08T09:00:00	8	Radiación solar	309
94393	7	Sololá	704	Santa Lucía Utatlán 	7	Santa Rita 	5	Mayo	2023-05-18T00:00:00	2024-11-08T10:00:00	2	Temperatura media	23.2
94394	7	Sololá	704	Santa Lucía Utatlán 	7	Santa Rita 	5	Mayo	2023-05-18T00:00:00	2024-11-08T10:00:00	4	Temperatura máxima	23.2
94395	7	Sololá	704	Santa Lucía Utatlán 	7	Santa Rita 	5	Mayo	2023-05-18T00:00:00	2024-11-08T10:00:00	3	Temperatura mínima	20.9
94396	7	Sololá	704	Santa Lucía Utatlán 	7	Santa Rita 	5	Mayo	2023-05-18T00:00:00	2024-11-08T10:00:00	5	Humedad	74
94397	7	Sololá	704	Santa Lucía Utatlán 	7	Santa Rita 	5	Mayo	2023-05-18T00:00:00	2024-11-08T10:00:00	6	Velocidad del viento	3.2
94398	7	Sololá	704	Santa Lucía Utatlán 	7	Santa Rita 	5	Mayo	2023-05-18T00:00:00	2024-11-08T10:00:00	7	Dirección del viento	3.22
94399	7	Sololá	704	Santa Lucía Utatlán 	7	Santa Rita 	5	Mayo	2023-05-18T00:00:00	2024-11-08T10:00:00	1	Precipitación	0
94400	7	Sololá	704	Santa Lucía Utatlán 	7	Santa Rita 	5	Mayo	2023-05-18T00:00:00	2024-11-08T10:00:00	8	Radiación solar	605
94401	7	Sololá	704	Santa Lucía Utatlán 	7	Santa Rita 	5	Mayo	2023-05-18T00:00:00	2024-11-08T11:00:00	2	Temperatura media	24.6
94402	7	Sololá	704	Santa Lucía Utatlán 	7	Santa Rita 	5	Mayo	2023-05-18T00:00:00	2024-11-08T11:00:00	4	Temperatura máxima	24.7
94403	7	Sololá	704	Santa Lucía Utatlán 	7	Santa Rita 	5	Mayo	2023-05-18T00:00:00	2024-11-08T11:00:00	3	Temperatura mínima	23.2
94404	7	Sololá	704	Santa Lucía Utatlán 	7	Santa Rita 	5	Mayo	2023-05-18T00:00:00	2024-11-08T11:00:00	5	Humedad	70
94405	7	Sololá	704	Santa Lucía Utatlán 	7	Santa Rita 	5	Mayo	2023-05-18T00:00:00	2024-11-08T11:00:00	6	Velocidad del viento	4.8
94406	7	Sololá	704	Santa Lucía Utatlán 	7	Santa Rita 	5	Mayo	2023-05-18T00:00:00	2024-11-08T11:00:00	7	Dirección del viento	4.83
94407	7	Sololá	704	Santa Lucía Utatlán 	7	Santa Rita 	5	Mayo	2023-05-18T00:00:00	2024-11-08T11:00:00	1	Precipitación	0
94408	7	Sololá	704	Santa Lucía Utatlán 	7	Santa Rita 	5	Mayo	2023-05-18T00:00:00	2024-11-08T11:00:00	8	Radiación solar	754
94409	7	Sololá	704	Santa Lucía Utatlán 	7	Santa Rita 	5	Mayo	2023-05-18T00:00:00	2024-11-08T12:00:00	2	Temperatura media	24.7
94410	7	Sololá	704	Santa Lucía Utatlán 	7	Santa Rita 	5	Mayo	2023-05-18T00:00:00	2024-11-08T12:00:00	4	Temperatura máxima	24.7
94411	7	Sololá	704	Santa Lucía Utatlán 	7	Santa Rita 	5	Mayo	2023-05-18T00:00:00	2024-11-08T12:00:00	3	Temperatura mínima	24.1
94412	7	Sololá	704	Santa Lucía Utatlán 	7	Santa Rita 	5	Mayo	2023-05-18T00:00:00	2024-11-08T12:00:00	5	Humedad	68
94413	7	Sololá	704	Santa Lucía Utatlán 	7	Santa Rita 	5	Mayo	2023-05-18T00:00:00	2024-11-08T12:00:00	6	Velocidad del viento	8
94414	7	Sololá	704	Santa Lucía Utatlán 	7	Santa Rita 	5	Mayo	2023-05-18T00:00:00	2024-11-08T12:00:00	7	Dirección del viento	8.05
94415	7	Sololá	704	Santa Lucía Utatlán 	7	Santa Rita 	5	Mayo	2023-05-18T00:00:00	2024-11-08T12:00:00	1	Precipitación	0
94416	7	Sololá	704	Santa Lucía Utatlán 	7	Santa Rita 	5	Mayo	2023-05-18T00:00:00	2024-11-08T12:00:00	8	Radiación solar	654
94417	7	Sololá	704	Santa Lucía Utatlán 	7	Santa Rita 	5	Mayo	2023-05-18T00:00:00	2024-11-08T13:00:00	2	Temperatura media	24.7
94418	7	Sololá	704	Santa Lucía Utatlán 	7	Santa Rita 	5	Mayo	2023-05-18T00:00:00	2024-11-08T13:00:00	4	Temperatura máxima	25.2
94419	7	Sololá	704	Santa Lucía Utatlán 	7	Santa Rita 	5	Mayo	2023-05-18T00:00:00	2024-11-08T13:00:00	3	Temperatura mínima	24.4
94420	7	Sololá	704	Santa Lucía Utatlán 	7	Santa Rita 	5	Mayo	2023-05-18T00:00:00	2024-11-08T13:00:00	5	Humedad	68
94421	7	Sololá	704	Santa Lucía Utatlán 	7	Santa Rita 	5	Mayo	2023-05-18T00:00:00	2024-11-08T13:00:00	6	Velocidad del viento	6.4
94422	7	Sololá	704	Santa Lucía Utatlán 	7	Santa Rita 	5	Mayo	2023-05-18T00:00:00	2024-11-08T13:00:00	7	Dirección del viento	6.44
94423	7	Sololá	704	Santa Lucía Utatlán 	7	Santa Rita 	5	Mayo	2023-05-18T00:00:00	2024-11-08T13:00:00	1	Precipitación	0
94424	7	Sololá	704	Santa Lucía Utatlán 	7	Santa Rita 	5	Mayo	2023-05-18T00:00:00	2024-11-08T13:00:00	8	Radiación solar	395
94425	7	Sololá	704	Santa Lucía Utatlán 	7	Santa Rita 	5	Mayo	2023-05-18T00:00:00	2024-11-08T14:00:00	2	Temperatura media	24.4
94426	7	Sololá	704	Santa Lucía Utatlán 	7	Santa Rita 	5	Mayo	2023-05-18T00:00:00	2024-11-08T14:00:00	4	Temperatura máxima	24.7
94427	7	Sololá	704	Santa Lucía Utatlán 	7	Santa Rita 	5	Mayo	2023-05-18T00:00:00	2024-11-08T14:00:00	3	Temperatura mínima	24.3
94428	7	Sololá	704	Santa Lucía Utatlán 	7	Santa Rita 	5	Mayo	2023-05-18T00:00:00	2024-11-08T14:00:00	5	Humedad	73
94429	7	Sololá	704	Santa Lucía Utatlán 	7	Santa Rita 	5	Mayo	2023-05-18T00:00:00	2024-11-08T14:00:00	6	Velocidad del viento	6.4
94430	7	Sololá	704	Santa Lucía Utatlán 	7	Santa Rita 	5	Mayo	2023-05-18T00:00:00	2024-11-08T14:00:00	7	Dirección del viento	6.44
94431	7	Sololá	704	Santa Lucía Utatlán 	7	Santa Rita 	5	Mayo	2023-05-18T00:00:00	2024-11-08T14:00:00	1	Precipitación	0
94432	7	Sololá	704	Santa Lucía Utatlán 	7	Santa Rita 	5	Mayo	2023-05-18T00:00:00	2024-11-08T14:00:00	8	Radiación solar	378
94433	7	Sololá	704	Santa Lucía Utatlán 	7	Santa Rita 	5	Mayo	2023-05-18T00:00:00	2024-11-08T15:00:00	2	Temperatura media	24.2
94434	7	Sololá	704	Santa Lucía Utatlán 	7	Santa Rita 	5	Mayo	2023-05-18T00:00:00	2024-11-08T15:00:00	4	Temperatura máxima	24.5
94435	7	Sololá	704	Santa Lucía Utatlán 	7	Santa Rita 	5	Mayo	2023-05-18T00:00:00	2024-11-08T15:00:00	3	Temperatura mínima	24.2
94436	7	Sololá	704	Santa Lucía Utatlán 	7	Santa Rita 	5	Mayo	2023-05-18T00:00:00	2024-11-08T15:00:00	5	Humedad	76
94437	7	Sololá	704	Santa Lucía Utatlán 	7	Santa Rita 	5	Mayo	2023-05-18T00:00:00	2024-11-08T15:00:00	6	Velocidad del viento	4.8
94438	7	Sololá	704	Santa Lucía Utatlán 	7	Santa Rita 	5	Mayo	2023-05-18T00:00:00	2024-11-08T15:00:00	7	Dirección del viento	4.83
94439	7	Sololá	704	Santa Lucía Utatlán 	7	Santa Rita 	5	Mayo	2023-05-18T00:00:00	2024-11-08T15:00:00	1	Precipitación	0
94440	7	Sololá	704	Santa Lucía Utatlán 	7	Santa Rita 	5	Mayo	2023-05-18T00:00:00	2024-11-08T15:00:00	8	Radiación solar	277
94441	7	Sololá	704	Santa Lucía Utatlán 	7	Santa Rita 	5	Mayo	2023-05-18T00:00:00	2024-11-08T16:00:00	2	Temperatura media	24.6
94442	7	Sololá	704	Santa Lucía Utatlán 	7	Santa Rita 	5	Mayo	2023-05-18T00:00:00	2024-11-08T16:00:00	4	Temperatura máxima	24.7
94443	7	Sololá	704	Santa Lucía Utatlán 	7	Santa Rita 	5	Mayo	2023-05-18T00:00:00	2024-11-08T16:00:00	3	Temperatura mínima	24.1
94444	7	Sololá	704	Santa Lucía Utatlán 	7	Santa Rita 	5	Mayo	2023-05-18T00:00:00	2024-11-08T16:00:00	5	Humedad	76
94445	7	Sololá	704	Santa Lucía Utatlán 	7	Santa Rita 	5	Mayo	2023-05-18T00:00:00	2024-11-08T16:00:00	6	Velocidad del viento	4.8
94446	7	Sololá	704	Santa Lucía Utatlán 	7	Santa Rita 	5	Mayo	2023-05-18T00:00:00	2024-11-08T16:00:00	7	Dirección del viento	4.83
94447	7	Sololá	704	Santa Lucía Utatlán 	7	Santa Rita 	5	Mayo	2023-05-18T00:00:00	2024-11-08T16:00:00	1	Precipitación	0
94448	7	Sololá	704	Santa Lucía Utatlán 	7	Santa Rita 	5	Mayo	2023-05-18T00:00:00	2024-11-08T16:00:00	8	Radiación solar	367
94449	7	Sololá	704	Santa Lucía Utatlán 	7	Santa Rita 	5	Mayo	2023-05-18T00:00:00	2024-11-08T17:00:00	2	Temperatura media	24.2
94450	7	Sololá	704	Santa Lucía Utatlán 	7	Santa Rita 	5	Mayo	2023-05-18T00:00:00	2024-11-08T17:00:00	4	Temperatura máxima	24.7
94451	7	Sololá	704	Santa Lucía Utatlán 	7	Santa Rita 	5	Mayo	2023-05-18T00:00:00	2024-11-08T17:00:00	3	Temperatura mínima	24.2
94452	7	Sololá	704	Santa Lucía Utatlán 	7	Santa Rita 	5	Mayo	2023-05-18T00:00:00	2024-11-08T17:00:00	5	Humedad	79
94453	7	Sololá	704	Santa Lucía Utatlán 	7	Santa Rita 	5	Mayo	2023-05-18T00:00:00	2024-11-08T17:00:00	6	Velocidad del viento	6.4
94454	7	Sololá	704	Santa Lucía Utatlán 	7	Santa Rita 	5	Mayo	2023-05-18T00:00:00	2024-11-08T17:00:00	7	Dirección del viento	6.44
94455	7	Sololá	704	Santa Lucía Utatlán 	7	Santa Rita 	5	Mayo	2023-05-18T00:00:00	2024-11-08T17:00:00	1	Precipitación	0
94456	7	Sololá	704	Santa Lucía Utatlán 	7	Santa Rita 	5	Mayo	2023-05-18T00:00:00	2024-11-08T17:00:00	8	Radiación solar	202
94457	7	Sololá	704	Santa Lucía Utatlán 	7	Santa Rita 	5	Mayo	2023-05-18T00:00:00	2024-11-08T18:00:00	2	Temperatura media	23.1
94458	7	Sololá	704	Santa Lucía Utatlán 	7	Santa Rita 	5	Mayo	2023-05-18T00:00:00	2024-11-08T18:00:00	4	Temperatura máxima	24.2
94459	7	Sololá	704	Santa Lucía Utatlán 	7	Santa Rita 	5	Mayo	2023-05-18T00:00:00	2024-11-08T18:00:00	3	Temperatura mínima	23.1
94460	7	Sololá	704	Santa Lucía Utatlán 	7	Santa Rita 	5	Mayo	2023-05-18T00:00:00	2024-11-08T18:00:00	5	Humedad	86
94461	7	Sololá	704	Santa Lucía Utatlán 	7	Santa Rita 	5	Mayo	2023-05-18T00:00:00	2024-11-08T18:00:00	6	Velocidad del viento	4.8
94462	7	Sololá	704	Santa Lucía Utatlán 	7	Santa Rita 	5	Mayo	2023-05-18T00:00:00	2024-11-08T18:00:00	7	Dirección del viento	4.83
94463	7	Sololá	704	Santa Lucía Utatlán 	7	Santa Rita 	5	Mayo	2023-05-18T00:00:00	2024-11-08T18:00:00	1	Precipitación	0
94464	7	Sololá	704	Santa Lucía Utatlán 	7	Santa Rita 	5	Mayo	2023-05-18T00:00:00	2024-11-08T18:00:00	8	Radiación solar	135
94465	7	Sololá	704	Santa Lucía Utatlán 	7	Santa Rita 	5	Mayo	2023-05-18T00:00:00	2024-11-08T19:00:00	2	Temperatura media	22.8
94466	7	Sololá	704	Santa Lucía Utatlán 	7	Santa Rita 	5	Mayo	2023-05-18T00:00:00	2024-11-08T19:00:00	4	Temperatura máxima	23.2
94467	7	Sololá	704	Santa Lucía Utatlán 	7	Santa Rita 	5	Mayo	2023-05-18T00:00:00	2024-11-08T19:00:00	3	Temperatura mínima	22.3
94468	7	Sololá	704	Santa Lucía Utatlán 	7	Santa Rita 	5	Mayo	2023-05-18T00:00:00	2024-11-08T19:00:00	5	Humedad	79
94469	7	Sololá	704	Santa Lucía Utatlán 	7	Santa Rita 	5	Mayo	2023-05-18T00:00:00	2024-11-08T19:00:00	6	Velocidad del viento	4.8
94470	7	Sololá	704	Santa Lucía Utatlán 	7	Santa Rita 	5	Mayo	2023-05-18T00:00:00	2024-11-08T19:00:00	7	Dirección del viento	4.83
94471	7	Sololá	704	Santa Lucía Utatlán 	7	Santa Rita 	5	Mayo	2023-05-18T00:00:00	2024-11-08T19:00:00	1	Precipitación	0
94472	7	Sololá	704	Santa Lucía Utatlán 	7	Santa Rita 	5	Mayo	2023-05-18T00:00:00	2024-11-08T19:00:00	8	Radiación solar	0
94473	7	Sololá	704	Santa Lucía Utatlán 	7	Santa Rita 	5	Mayo	2023-05-18T00:00:00	2024-11-08T20:00:00	2	Temperatura media	22.6
94474	7	Sololá	704	Santa Lucía Utatlán 	7	Santa Rita 	5	Mayo	2023-05-18T00:00:00	2024-11-08T20:00:00	4	Temperatura máxima	22.9
94475	7	Sololá	704	Santa Lucía Utatlán 	7	Santa Rita 	5	Mayo	2023-05-18T00:00:00	2024-11-08T20:00:00	3	Temperatura mínima	22.3
94476	7	Sololá	704	Santa Lucía Utatlán 	7	Santa Rita 	5	Mayo	2023-05-18T00:00:00	2024-11-08T20:00:00	5	Humedad	69
94477	7	Sololá	704	Santa Lucía Utatlán 	7	Santa Rita 	5	Mayo	2023-05-18T00:00:00	2024-11-08T20:00:00	6	Velocidad del viento	4.8
94478	7	Sololá	704	Santa Lucía Utatlán 	7	Santa Rita 	5	Mayo	2023-05-18T00:00:00	2024-11-08T20:00:00	7	Dirección del viento	4.83
94479	7	Sololá	704	Santa Lucía Utatlán 	7	Santa Rita 	5	Mayo	2023-05-18T00:00:00	2024-11-08T20:00:00	1	Precipitación	0
94480	7	Sololá	704	Santa Lucía Utatlán 	7	Santa Rita 	5	Mayo	2023-05-18T00:00:00	2024-11-08T20:00:00	8	Radiación solar	0
94481	7	Sololá	704	Santa Lucía Utatlán 	7	Santa Rita 	5	Mayo	2023-05-18T00:00:00	2024-11-08T21:00:00	2	Temperatura media	20.4
94482	7	Sololá	704	Santa Lucía Utatlán 	7	Santa Rita 	5	Mayo	2023-05-18T00:00:00	2024-11-08T21:00:00	4	Temperatura máxima	22.6
94483	7	Sololá	704	Santa Lucía Utatlán 	7	Santa Rita 	5	Mayo	2023-05-18T00:00:00	2024-11-08T21:00:00	3	Temperatura mínima	20.4
94484	7	Sololá	704	Santa Lucía Utatlán 	7	Santa Rita 	5	Mayo	2023-05-18T00:00:00	2024-11-08T21:00:00	5	Humedad	78
94485	7	Sololá	704	Santa Lucía Utatlán 	7	Santa Rita 	5	Mayo	2023-05-18T00:00:00	2024-11-08T21:00:00	6	Velocidad del viento	1.6
94486	7	Sololá	704	Santa Lucía Utatlán 	7	Santa Rita 	5	Mayo	2023-05-18T00:00:00	2024-11-08T21:00:00	7	Dirección del viento	1.61
94487	7	Sololá	704	Santa Lucía Utatlán 	7	Santa Rita 	5	Mayo	2023-05-18T00:00:00	2024-11-08T21:00:00	1	Precipitación	0
94488	7	Sololá	704	Santa Lucía Utatlán 	7	Santa Rita 	5	Mayo	2023-05-18T00:00:00	2024-11-08T21:00:00	8	Radiación solar	0
94489	7	Sololá	704	Santa Lucía Utatlán 	7	Santa Rita 	5	Mayo	2023-05-18T00:00:00	2024-11-08T22:00:00	2	Temperatura media	19.6
94490	7	Sololá	704	Santa Lucía Utatlán 	7	Santa Rita 	5	Mayo	2023-05-18T00:00:00	2024-11-08T22:00:00	4	Temperatura máxima	20.4
94491	7	Sololá	704	Santa Lucía Utatlán 	7	Santa Rita 	5	Mayo	2023-05-18T00:00:00	2024-11-08T22:00:00	3	Temperatura mínima	19.6
94492	7	Sololá	704	Santa Lucía Utatlán 	7	Santa Rita 	5	Mayo	2023-05-18T00:00:00	2024-11-08T22:00:00	5	Humedad	83
94493	7	Sololá	704	Santa Lucía Utatlán 	7	Santa Rita 	5	Mayo	2023-05-18T00:00:00	2024-11-08T22:00:00	6	Velocidad del viento	1.6
94494	7	Sololá	704	Santa Lucía Utatlán 	7	Santa Rita 	5	Mayo	2023-05-18T00:00:00	2024-11-08T22:00:00	7	Dirección del viento	1.61
94495	7	Sololá	704	Santa Lucía Utatlán 	7	Santa Rita 	5	Mayo	2023-05-18T00:00:00	2024-11-08T22:00:00	1	Precipitación	0
94496	7	Sololá	704	Santa Lucía Utatlán 	7	Santa Rita 	5	Mayo	2023-05-18T00:00:00	2024-11-08T22:00:00	8	Radiación solar	0
94497	7	Sololá	704	Santa Lucía Utatlán 	7	Santa Rita 	5	Mayo	2023-05-18T00:00:00	2024-11-08T23:00:00	2	Temperatura media	19.1
94498	7	Sololá	704	Santa Lucía Utatlán 	7	Santa Rita 	5	Mayo	2023-05-18T00:00:00	2024-11-08T23:00:00	4	Temperatura máxima	19.6
94499	7	Sololá	704	Santa Lucía Utatlán 	7	Santa Rita 	5	Mayo	2023-05-18T00:00:00	2024-11-08T23:00:00	3	Temperatura mínima	19.1
94500	7	Sololá	704	Santa Lucía Utatlán 	7	Santa Rita 	5	Mayo	2023-05-18T00:00:00	2024-11-08T23:00:00	5	Humedad	86
94501	7	Sololá	704	Santa Lucía Utatlán 	7	Santa Rita 	5	Mayo	2023-05-18T00:00:00	2024-11-08T23:00:00	6	Velocidad del viento	1.6
94502	7	Sololá	704	Santa Lucía Utatlán 	7	Santa Rita 	5	Mayo	2023-05-18T00:00:00	2024-11-08T23:00:00	7	Dirección del viento	1.61
94503	7	Sololá	704	Santa Lucía Utatlán 	7	Santa Rita 	5	Mayo	2023-05-18T00:00:00	2024-11-08T23:00:00	1	Precipitación	0
94504	7	Sololá	704	Santa Lucía Utatlán 	7	Santa Rita 	5	Mayo	2023-05-18T00:00:00	2024-11-08T23:00:00	8	Radiación solar	0
94505	7	Sololá	704	Santa Lucía Utatlán 	7	Santa Rita 	5	Mayo	2023-05-19T00:00:00	2024-11-08T00:00:00	2	Temperatura media	18.4
94506	7	Sololá	704	Santa Lucía Utatlán 	7	Santa Rita 	5	Mayo	2023-05-19T00:00:00	2024-11-08T00:00:00	4	Temperatura máxima	19.1
94507	7	Sololá	704	Santa Lucía Utatlán 	7	Santa Rita 	5	Mayo	2023-05-19T00:00:00	2024-11-08T00:00:00	3	Temperatura mínima	18.3
94508	7	Sololá	704	Santa Lucía Utatlán 	7	Santa Rita 	5	Mayo	2023-05-19T00:00:00	2024-11-08T00:00:00	5	Humedad	85
94509	7	Sololá	704	Santa Lucía Utatlán 	7	Santa Rita 	5	Mayo	2023-05-19T00:00:00	2024-11-08T00:00:00	6	Velocidad del viento	3.2
94510	7	Sololá	704	Santa Lucía Utatlán 	7	Santa Rita 	5	Mayo	2023-05-19T00:00:00	2024-11-08T00:00:00	7	Dirección del viento	3.22
94511	7	Sololá	704	Santa Lucía Utatlán 	7	Santa Rita 	5	Mayo	2023-05-19T00:00:00	2024-11-08T00:00:00	1	Precipitación	0
94512	7	Sololá	704	Santa Lucía Utatlán 	7	Santa Rita 	5	Mayo	2023-05-19T00:00:00	2024-11-08T00:00:00	8	Radiación solar	0
94513	7	Sololá	704	Santa Lucía Utatlán 	7	Santa Rita 	5	Mayo	2023-05-19T00:00:00	2024-11-08T01:00:00	2	Temperatura media	18.3
94514	7	Sololá	704	Santa Lucía Utatlán 	7	Santa Rita 	5	Mayo	2023-05-19T00:00:00	2024-11-08T01:00:00	4	Temperatura máxima	18.4
94515	7	Sololá	704	Santa Lucía Utatlán 	7	Santa Rita 	5	Mayo	2023-05-19T00:00:00	2024-11-08T01:00:00	3	Temperatura mínima	18
94516	7	Sololá	704	Santa Lucía Utatlán 	7	Santa Rita 	5	Mayo	2023-05-19T00:00:00	2024-11-08T01:00:00	5	Humedad	84
94517	7	Sololá	704	Santa Lucía Utatlán 	7	Santa Rita 	5	Mayo	2023-05-19T00:00:00	2024-11-08T01:00:00	6	Velocidad del viento	3.2
94518	7	Sololá	704	Santa Lucía Utatlán 	7	Santa Rita 	5	Mayo	2023-05-19T00:00:00	2024-11-08T01:00:00	7	Dirección del viento	3.22
94519	7	Sololá	704	Santa Lucía Utatlán 	7	Santa Rita 	5	Mayo	2023-05-19T00:00:00	2024-11-08T01:00:00	1	Precipitación	0
94520	7	Sololá	704	Santa Lucía Utatlán 	7	Santa Rita 	5	Mayo	2023-05-19T00:00:00	2024-11-08T01:00:00	8	Radiación solar	0
94521	7	Sololá	704	Santa Lucía Utatlán 	7	Santa Rita 	5	Mayo	2023-05-19T00:00:00	2024-11-08T02:00:00	2	Temperatura media	17.8
94522	7	Sololá	704	Santa Lucía Utatlán 	7	Santa Rita 	5	Mayo	2023-05-19T00:00:00	2024-11-08T02:00:00	4	Temperatura máxima	18.4
94523	7	Sololá	704	Santa Lucía Utatlán 	7	Santa Rita 	5	Mayo	2023-05-19T00:00:00	2024-11-08T02:00:00	3	Temperatura mínima	17.8
94524	7	Sololá	704	Santa Lucía Utatlán 	7	Santa Rita 	5	Mayo	2023-05-19T00:00:00	2024-11-08T02:00:00	5	Humedad	86
94525	7	Sololá	704	Santa Lucía Utatlán 	7	Santa Rita 	5	Mayo	2023-05-19T00:00:00	2024-11-08T02:00:00	6	Velocidad del viento	1.6
94526	7	Sololá	704	Santa Lucía Utatlán 	7	Santa Rita 	5	Mayo	2023-05-19T00:00:00	2024-11-08T02:00:00	7	Dirección del viento	1.61
94527	7	Sololá	704	Santa Lucía Utatlán 	7	Santa Rita 	5	Mayo	2023-05-19T00:00:00	2024-11-08T02:00:00	1	Precipitación	0
94528	7	Sololá	704	Santa Lucía Utatlán 	7	Santa Rita 	5	Mayo	2023-05-19T00:00:00	2024-11-08T02:00:00	8	Radiación solar	0
94529	7	Sololá	704	Santa Lucía Utatlán 	7	Santa Rita 	5	Mayo	2023-05-19T00:00:00	2024-11-08T03:00:00	2	Temperatura media	17.9
94530	7	Sololá	704	Santa Lucía Utatlán 	7	Santa Rita 	5	Mayo	2023-05-19T00:00:00	2024-11-08T03:00:00	4	Temperatura máxima	17.9
94531	7	Sololá	704	Santa Lucía Utatlán 	7	Santa Rita 	5	Mayo	2023-05-19T00:00:00	2024-11-08T03:00:00	3	Temperatura mínima	17.6
94532	7	Sololá	704	Santa Lucía Utatlán 	7	Santa Rita 	5	Mayo	2023-05-19T00:00:00	2024-11-08T03:00:00	5	Humedad	87
94533	7	Sololá	704	Santa Lucía Utatlán 	7	Santa Rita 	5	Mayo	2023-05-19T00:00:00	2024-11-08T03:00:00	6	Velocidad del viento	3.2
94534	7	Sololá	704	Santa Lucía Utatlán 	7	Santa Rita 	5	Mayo	2023-05-19T00:00:00	2024-11-08T03:00:00	7	Dirección del viento	3.22
94535	7	Sololá	704	Santa Lucía Utatlán 	7	Santa Rita 	5	Mayo	2023-05-19T00:00:00	2024-11-08T03:00:00	1	Precipitación	0
94536	7	Sololá	704	Santa Lucía Utatlán 	7	Santa Rita 	5	Mayo	2023-05-19T00:00:00	2024-11-08T03:00:00	8	Radiación solar	0
94537	7	Sololá	704	Santa Lucía Utatlán 	7	Santa Rita 	5	Mayo	2023-05-19T00:00:00	2024-11-08T04:00:00	2	Temperatura media	18.2
94538	7	Sololá	704	Santa Lucía Utatlán 	7	Santa Rita 	5	Mayo	2023-05-19T00:00:00	2024-11-08T04:00:00	4	Temperatura máxima	18.2
94539	7	Sololá	704	Santa Lucía Utatlán 	7	Santa Rita 	5	Mayo	2023-05-19T00:00:00	2024-11-08T04:00:00	3	Temperatura mínima	17.8
94540	7	Sololá	704	Santa Lucía Utatlán 	7	Santa Rita 	5	Mayo	2023-05-19T00:00:00	2024-11-08T04:00:00	5	Humedad	89
94541	7	Sololá	704	Santa Lucía Utatlán 	7	Santa Rita 	5	Mayo	2023-05-19T00:00:00	2024-11-08T04:00:00	6	Velocidad del viento	1.6
94542	7	Sololá	704	Santa Lucía Utatlán 	7	Santa Rita 	5	Mayo	2023-05-19T00:00:00	2024-11-08T04:00:00	7	Dirección del viento	1.61
94543	7	Sololá	704	Santa Lucía Utatlán 	7	Santa Rita 	5	Mayo	2023-05-19T00:00:00	2024-11-08T04:00:00	1	Precipitación	0
94544	7	Sololá	704	Santa Lucía Utatlán 	7	Santa Rita 	5	Mayo	2023-05-19T00:00:00	2024-11-08T04:00:00	8	Radiación solar	0
94545	7	Sololá	704	Santa Lucía Utatlán 	7	Santa Rita 	5	Mayo	2023-05-19T00:00:00	2024-11-08T05:00:00	2	Temperatura media	17.6
94546	7	Sololá	704	Santa Lucía Utatlán 	7	Santa Rita 	5	Mayo	2023-05-19T00:00:00	2024-11-08T05:00:00	4	Temperatura máxima	18.4
94547	7	Sololá	704	Santa Lucía Utatlán 	7	Santa Rita 	5	Mayo	2023-05-19T00:00:00	2024-11-08T05:00:00	3	Temperatura mínima	17.6
94548	7	Sololá	704	Santa Lucía Utatlán 	7	Santa Rita 	5	Mayo	2023-05-19T00:00:00	2024-11-08T05:00:00	5	Humedad	89
94549	7	Sololá	704	Santa Lucía Utatlán 	7	Santa Rita 	5	Mayo	2023-05-19T00:00:00	2024-11-08T05:00:00	6	Velocidad del viento	1.6
94550	7	Sololá	704	Santa Lucía Utatlán 	7	Santa Rita 	5	Mayo	2023-05-19T00:00:00	2024-11-08T05:00:00	7	Dirección del viento	1.61
94551	7	Sololá	704	Santa Lucía Utatlán 	7	Santa Rita 	5	Mayo	2023-05-19T00:00:00	2024-11-08T05:00:00	1	Precipitación	0
94552	7	Sololá	704	Santa Lucía Utatlán 	7	Santa Rita 	5	Mayo	2023-05-19T00:00:00	2024-11-08T05:00:00	8	Radiación solar	0
94553	7	Sololá	704	Santa Lucía Utatlán 	7	Santa Rita 	5	Mayo	2023-05-19T00:00:00	2024-11-08T06:00:00	2	Temperatura media	17.3
94554	7	Sololá	704	Santa Lucía Utatlán 	7	Santa Rita 	5	Mayo	2023-05-19T00:00:00	2024-11-08T06:00:00	4	Temperatura máxima	17.7
94555	7	Sololá	704	Santa Lucía Utatlán 	7	Santa Rita 	5	Mayo	2023-05-19T00:00:00	2024-11-08T06:00:00	3	Temperatura mínima	17.3
94556	7	Sololá	704	Santa Lucía Utatlán 	7	Santa Rita 	5	Mayo	2023-05-19T00:00:00	2024-11-08T06:00:00	5	Humedad	87
94557	7	Sololá	704	Santa Lucía Utatlán 	7	Santa Rita 	5	Mayo	2023-05-19T00:00:00	2024-11-08T06:00:00	6	Velocidad del viento	3.2
94558	7	Sololá	704	Santa Lucía Utatlán 	7	Santa Rita 	5	Mayo	2023-05-19T00:00:00	2024-11-08T06:00:00	7	Dirección del viento	3.22
94559	7	Sololá	704	Santa Lucía Utatlán 	7	Santa Rita 	5	Mayo	2023-05-19T00:00:00	2024-11-08T06:00:00	1	Precipitación	0
94560	7	Sololá	704	Santa Lucía Utatlán 	7	Santa Rita 	5	Mayo	2023-05-19T00:00:00	2024-11-08T06:00:00	8	Radiación solar	0
94561	7	Sololá	704	Santa Lucía Utatlán 	7	Santa Rita 	5	Mayo	2023-05-19T00:00:00	2024-11-08T07:00:00	2	Temperatura media	16.8
94562	7	Sololá	704	Santa Lucía Utatlán 	7	Santa Rita 	5	Mayo	2023-05-19T00:00:00	2024-11-08T07:00:00	4	Temperatura máxima	17.3
94563	7	Sololá	704	Santa Lucía Utatlán 	7	Santa Rita 	5	Mayo	2023-05-19T00:00:00	2024-11-08T07:00:00	3	Temperatura mínima	16.8
94564	7	Sololá	704	Santa Lucía Utatlán 	7	Santa Rita 	5	Mayo	2023-05-19T00:00:00	2024-11-08T07:00:00	5	Humedad	89
94565	7	Sololá	704	Santa Lucía Utatlán 	7	Santa Rita 	5	Mayo	2023-05-19T00:00:00	2024-11-08T07:00:00	6	Velocidad del viento	3.2
94566	7	Sololá	704	Santa Lucía Utatlán 	7	Santa Rita 	5	Mayo	2023-05-19T00:00:00	2024-11-08T07:00:00	7	Dirección del viento	3.22
94567	7	Sololá	704	Santa Lucía Utatlán 	7	Santa Rita 	5	Mayo	2023-05-19T00:00:00	2024-11-08T07:00:00	1	Precipitación	0
94568	7	Sololá	704	Santa Lucía Utatlán 	7	Santa Rita 	5	Mayo	2023-05-19T00:00:00	2024-11-08T07:00:00	8	Radiación solar	5
94569	7	Sololá	704	Santa Lucía Utatlán 	7	Santa Rita 	5	Mayo	2023-05-19T00:00:00	2024-11-08T08:00:00	2	Temperatura media	19.3
94570	7	Sololá	704	Santa Lucía Utatlán 	7	Santa Rita 	5	Mayo	2023-05-19T00:00:00	2024-11-08T08:00:00	4	Temperatura máxima	19.3
94571	7	Sololá	704	Santa Lucía Utatlán 	7	Santa Rita 	5	Mayo	2023-05-19T00:00:00	2024-11-08T08:00:00	3	Temperatura mínima	16.8
94572	7	Sololá	704	Santa Lucía Utatlán 	7	Santa Rita 	5	Mayo	2023-05-19T00:00:00	2024-11-08T08:00:00	5	Humedad	83
94573	7	Sololá	704	Santa Lucía Utatlán 	7	Santa Rita 	5	Mayo	2023-05-19T00:00:00	2024-11-08T08:00:00	6	Velocidad del viento	1.6
94574	7	Sololá	704	Santa Lucía Utatlán 	7	Santa Rita 	5	Mayo	2023-05-19T00:00:00	2024-11-08T08:00:00	7	Dirección del viento	1.61
94575	7	Sololá	704	Santa Lucía Utatlán 	7	Santa Rita 	5	Mayo	2023-05-19T00:00:00	2024-11-08T08:00:00	1	Precipitación	0
94576	7	Sololá	704	Santa Lucía Utatlán 	7	Santa Rita 	5	Mayo	2023-05-19T00:00:00	2024-11-08T08:00:00	8	Radiación solar	86
94577	7	Sololá	704	Santa Lucía Utatlán 	7	Santa Rita 	5	Mayo	2023-05-19T00:00:00	2024-11-08T09:00:00	2	Temperatura media	24.1
94578	7	Sololá	704	Santa Lucía Utatlán 	7	Santa Rita 	5	Mayo	2023-05-19T00:00:00	2024-11-08T09:00:00	4	Temperatura máxima	24.1
94579	7	Sololá	704	Santa Lucía Utatlán 	7	Santa Rita 	5	Mayo	2023-05-19T00:00:00	2024-11-08T09:00:00	3	Temperatura mínima	19.3
94580	7	Sololá	704	Santa Lucía Utatlán 	7	Santa Rita 	5	Mayo	2023-05-19T00:00:00	2024-11-08T09:00:00	5	Humedad	51
94581	7	Sololá	704	Santa Lucía Utatlán 	7	Santa Rita 	5	Mayo	2023-05-19T00:00:00	2024-11-08T09:00:00	6	Velocidad del viento	4.8
94582	7	Sololá	704	Santa Lucía Utatlán 	7	Santa Rita 	5	Mayo	2023-05-19T00:00:00	2024-11-08T09:00:00	7	Dirección del viento	4.83
94583	7	Sololá	704	Santa Lucía Utatlán 	7	Santa Rita 	5	Mayo	2023-05-19T00:00:00	2024-11-08T09:00:00	1	Precipitación	0
94584	7	Sololá	704	Santa Lucía Utatlán 	7	Santa Rita 	5	Mayo	2023-05-19T00:00:00	2024-11-08T09:00:00	8	Radiación solar	425
94585	7	Sololá	704	Santa Lucía Utatlán 	7	Santa Rita 	5	Mayo	2023-05-19T00:00:00	2024-11-08T10:00:00	2	Temperatura media	25.5
94586	7	Sololá	704	Santa Lucía Utatlán 	7	Santa Rita 	5	Mayo	2023-05-19T00:00:00	2024-11-08T10:00:00	4	Temperatura máxima	25.6
94587	7	Sololá	704	Santa Lucía Utatlán 	7	Santa Rita 	5	Mayo	2023-05-19T00:00:00	2024-11-08T10:00:00	3	Temperatura mínima	24.1
94588	7	Sololá	704	Santa Lucía Utatlán 	7	Santa Rita 	5	Mayo	2023-05-19T00:00:00	2024-11-08T10:00:00	5	Humedad	48
94589	7	Sololá	704	Santa Lucía Utatlán 	7	Santa Rita 	5	Mayo	2023-05-19T00:00:00	2024-11-08T10:00:00	6	Velocidad del viento	4.8
94590	7	Sololá	704	Santa Lucía Utatlán 	7	Santa Rita 	5	Mayo	2023-05-19T00:00:00	2024-11-08T10:00:00	7	Dirección del viento	4.83
94591	7	Sololá	704	Santa Lucía Utatlán 	7	Santa Rita 	5	Mayo	2023-05-19T00:00:00	2024-11-08T10:00:00	1	Precipitación	0
94592	7	Sololá	704	Santa Lucía Utatlán 	7	Santa Rita 	5	Mayo	2023-05-19T00:00:00	2024-11-08T10:00:00	8	Radiación solar	655
94593	7	Sololá	704	Santa Lucía Utatlán 	7	Santa Rita 	5	Mayo	2023-05-19T00:00:00	2024-11-08T11:00:00	2	Temperatura media	26.2
94594	7	Sololá	704	Santa Lucía Utatlán 	7	Santa Rita 	5	Mayo	2023-05-19T00:00:00	2024-11-08T11:00:00	4	Temperatura máxima	26.6
94595	7	Sololá	704	Santa Lucía Utatlán 	7	Santa Rita 	5	Mayo	2023-05-19T00:00:00	2024-11-08T11:00:00	3	Temperatura mínima	25.4
94596	7	Sololá	704	Santa Lucía Utatlán 	7	Santa Rita 	5	Mayo	2023-05-19T00:00:00	2024-11-08T11:00:00	5	Humedad	42
94597	7	Sololá	704	Santa Lucía Utatlán 	7	Santa Rita 	5	Mayo	2023-05-19T00:00:00	2024-11-08T11:00:00	6	Velocidad del viento	6.4
94598	7	Sololá	704	Santa Lucía Utatlán 	7	Santa Rita 	5	Mayo	2023-05-19T00:00:00	2024-11-08T11:00:00	7	Dirección del viento	6.44
94599	7	Sololá	704	Santa Lucía Utatlán 	7	Santa Rita 	5	Mayo	2023-05-19T00:00:00	2024-11-08T11:00:00	1	Precipitación	0
94600	7	Sololá	704	Santa Lucía Utatlán 	7	Santa Rita 	5	Mayo	2023-05-19T00:00:00	2024-11-08T11:00:00	8	Radiación solar	835
94601	7	Sololá	704	Santa Lucía Utatlán 	7	Santa Rita 	5	Mayo	2023-05-19T00:00:00	2024-11-08T12:00:00	2	Temperatura media	26.1
94602	7	Sololá	704	Santa Lucía Utatlán 	7	Santa Rita 	5	Mayo	2023-05-19T00:00:00	2024-11-08T12:00:00	4	Temperatura máxima	26.6
94603	7	Sololá	704	Santa Lucía Utatlán 	7	Santa Rita 	5	Mayo	2023-05-19T00:00:00	2024-11-08T12:00:00	3	Temperatura mínima	25.8
94604	7	Sololá	704	Santa Lucía Utatlán 	7	Santa Rita 	5	Mayo	2023-05-19T00:00:00	2024-11-08T12:00:00	5	Humedad	46
94605	7	Sololá	704	Santa Lucía Utatlán 	7	Santa Rita 	5	Mayo	2023-05-19T00:00:00	2024-11-08T12:00:00	6	Velocidad del viento	8
94606	7	Sololá	704	Santa Lucía Utatlán 	7	Santa Rita 	5	Mayo	2023-05-19T00:00:00	2024-11-08T12:00:00	7	Dirección del viento	8.05
94607	7	Sololá	704	Santa Lucía Utatlán 	7	Santa Rita 	5	Mayo	2023-05-19T00:00:00	2024-11-08T12:00:00	1	Precipitación	0
94608	7	Sololá	704	Santa Lucía Utatlán 	7	Santa Rita 	5	Mayo	2023-05-19T00:00:00	2024-11-08T12:00:00	8	Radiación solar	890
94609	7	Sololá	704	Santa Lucía Utatlán 	7	Santa Rita 	5	Mayo	2023-05-19T00:00:00	2024-11-08T13:00:00	2	Temperatura media	26.4
94610	7	Sololá	704	Santa Lucía Utatlán 	7	Santa Rita 	5	Mayo	2023-05-19T00:00:00	2024-11-08T13:00:00	4	Temperatura máxima	26.4
94611	7	Sololá	704	Santa Lucía Utatlán 	7	Santa Rita 	5	Mayo	2023-05-19T00:00:00	2024-11-08T13:00:00	3	Temperatura mínima	25.8
94612	7	Sololá	704	Santa Lucía Utatlán 	7	Santa Rita 	5	Mayo	2023-05-19T00:00:00	2024-11-08T13:00:00	5	Humedad	46
94613	7	Sololá	704	Santa Lucía Utatlán 	7	Santa Rita 	5	Mayo	2023-05-19T00:00:00	2024-11-08T13:00:00	6	Velocidad del viento	8
94614	7	Sololá	704	Santa Lucía Utatlán 	7	Santa Rita 	5	Mayo	2023-05-19T00:00:00	2024-11-08T13:00:00	7	Dirección del viento	8.05
94615	7	Sololá	704	Santa Lucía Utatlán 	7	Santa Rita 	5	Mayo	2023-05-19T00:00:00	2024-11-08T13:00:00	1	Precipitación	0
94616	7	Sololá	704	Santa Lucía Utatlán 	7	Santa Rita 	5	Mayo	2023-05-19T00:00:00	2024-11-08T13:00:00	8	Radiación solar	1020
94617	7	Sololá	704	Santa Lucía Utatlán 	7	Santa Rita 	5	Mayo	2023-05-19T00:00:00	2024-11-08T14:00:00	2	Temperatura media	27.3
94618	7	Sololá	704	Santa Lucía Utatlán 	7	Santa Rita 	5	Mayo	2023-05-19T00:00:00	2024-11-08T14:00:00	4	Temperatura máxima	27.4
94619	7	Sololá	704	Santa Lucía Utatlán 	7	Santa Rita 	5	Mayo	2023-05-19T00:00:00	2024-11-08T14:00:00	3	Temperatura mínima	26.1
94620	7	Sololá	704	Santa Lucía Utatlán 	7	Santa Rita 	5	Mayo	2023-05-19T00:00:00	2024-11-08T14:00:00	5	Humedad	44
94621	7	Sololá	704	Santa Lucía Utatlán 	7	Santa Rita 	5	Mayo	2023-05-19T00:00:00	2024-11-08T14:00:00	6	Velocidad del viento	8
94622	7	Sololá	704	Santa Lucía Utatlán 	7	Santa Rita 	5	Mayo	2023-05-19T00:00:00	2024-11-08T14:00:00	7	Dirección del viento	8.05
94623	7	Sololá	704	Santa Lucía Utatlán 	7	Santa Rita 	5	Mayo	2023-05-19T00:00:00	2024-11-08T14:00:00	1	Precipitación	0
94624	7	Sololá	704	Santa Lucía Utatlán 	7	Santa Rita 	5	Mayo	2023-05-19T00:00:00	2024-11-08T14:00:00	8	Radiación solar	1047
94625	7	Sololá	704	Santa Lucía Utatlán 	7	Santa Rita 	5	Mayo	2023-05-19T00:00:00	2024-11-08T15:00:00	2	Temperatura media	25.4
94626	7	Sololá	704	Santa Lucía Utatlán 	7	Santa Rita 	5	Mayo	2023-05-19T00:00:00	2024-11-08T15:00:00	4	Temperatura máxima	27.3
94627	7	Sololá	704	Santa Lucía Utatlán 	7	Santa Rita 	5	Mayo	2023-05-19T00:00:00	2024-11-08T15:00:00	3	Temperatura mínima	25.3
94628	7	Sololá	704	Santa Lucía Utatlán 	7	Santa Rita 	5	Mayo	2023-05-19T00:00:00	2024-11-08T15:00:00	5	Humedad	53
94629	7	Sololá	704	Santa Lucía Utatlán 	7	Santa Rita 	5	Mayo	2023-05-19T00:00:00	2024-11-08T15:00:00	6	Velocidad del viento	12.9
94630	7	Sololá	704	Santa Lucía Utatlán 	7	Santa Rita 	5	Mayo	2023-05-19T00:00:00	2024-11-08T15:00:00	7	Dirección del viento	12.87
94631	7	Sololá	704	Santa Lucía Utatlán 	7	Santa Rita 	5	Mayo	2023-05-19T00:00:00	2024-11-08T15:00:00	1	Precipitación	0
94632	7	Sololá	704	Santa Lucía Utatlán 	7	Santa Rita 	5	Mayo	2023-05-19T00:00:00	2024-11-08T15:00:00	8	Radiación solar	466
94633	7	Sololá	704	Santa Lucía Utatlán 	7	Santa Rita 	5	Mayo	2023-05-19T00:00:00	2024-11-08T16:00:00	2	Temperatura media	25.7
94634	7	Sololá	704	Santa Lucía Utatlán 	7	Santa Rita 	5	Mayo	2023-05-19T00:00:00	2024-11-08T16:00:00	4	Temperatura máxima	25.7
94635	7	Sololá	704	Santa Lucía Utatlán 	7	Santa Rita 	5	Mayo	2023-05-19T00:00:00	2024-11-08T16:00:00	3	Temperatura mínima	24.8
94636	7	Sololá	704	Santa Lucía Utatlán 	7	Santa Rita 	5	Mayo	2023-05-19T00:00:00	2024-11-08T16:00:00	5	Humedad	56
94637	7	Sololá	704	Santa Lucía Utatlán 	7	Santa Rita 	5	Mayo	2023-05-19T00:00:00	2024-11-08T16:00:00	6	Velocidad del viento	9.7
94638	7	Sololá	704	Santa Lucía Utatlán 	7	Santa Rita 	5	Mayo	2023-05-19T00:00:00	2024-11-08T16:00:00	7	Dirección del viento	9.66
94639	7	Sololá	704	Santa Lucía Utatlán 	7	Santa Rita 	5	Mayo	2023-05-19T00:00:00	2024-11-08T16:00:00	1	Precipitación	0
94640	7	Sololá	704	Santa Lucía Utatlán 	7	Santa Rita 	5	Mayo	2023-05-19T00:00:00	2024-11-08T16:00:00	8	Radiación solar	295
94641	7	Sololá	704	Santa Lucía Utatlán 	7	Santa Rita 	5	Mayo	2023-05-19T00:00:00	2024-11-08T17:00:00	2	Temperatura media	25.7
94642	7	Sololá	704	Santa Lucía Utatlán 	7	Santa Rita 	5	Mayo	2023-05-19T00:00:00	2024-11-08T17:00:00	4	Temperatura máxima	25.7
94643	7	Sololá	704	Santa Lucía Utatlán 	7	Santa Rita 	5	Mayo	2023-05-19T00:00:00	2024-11-08T17:00:00	3	Temperatura mínima	25
94644	7	Sololá	704	Santa Lucía Utatlán 	7	Santa Rita 	5	Mayo	2023-05-19T00:00:00	2024-11-08T17:00:00	5	Humedad	55
94645	7	Sololá	704	Santa Lucía Utatlán 	7	Santa Rita 	5	Mayo	2023-05-19T00:00:00	2024-11-08T17:00:00	6	Velocidad del viento	9.7
94646	7	Sololá	704	Santa Lucía Utatlán 	7	Santa Rita 	5	Mayo	2023-05-19T00:00:00	2024-11-08T17:00:00	7	Dirección del viento	9.66
94647	7	Sololá	704	Santa Lucía Utatlán 	7	Santa Rita 	5	Mayo	2023-05-19T00:00:00	2024-11-08T17:00:00	1	Precipitación	0
94648	7	Sololá	704	Santa Lucía Utatlán 	7	Santa Rita 	5	Mayo	2023-05-19T00:00:00	2024-11-08T17:00:00	8	Radiación solar	322
94649	7	Sololá	704	Santa Lucía Utatlán 	7	Santa Rita 	5	Mayo	2023-05-19T00:00:00	2024-11-08T18:00:00	2	Temperatura media	24
94650	7	Sololá	704	Santa Lucía Utatlán 	7	Santa Rita 	5	Mayo	2023-05-19T00:00:00	2024-11-08T18:00:00	4	Temperatura máxima	26.1
94651	7	Sololá	704	Santa Lucía Utatlán 	7	Santa Rita 	5	Mayo	2023-05-19T00:00:00	2024-11-08T18:00:00	3	Temperatura mínima	24
94652	7	Sololá	704	Santa Lucía Utatlán 	7	Santa Rita 	5	Mayo	2023-05-19T00:00:00	2024-11-08T18:00:00	5	Humedad	61
94653	7	Sololá	704	Santa Lucía Utatlán 	7	Santa Rita 	5	Mayo	2023-05-19T00:00:00	2024-11-08T18:00:00	6	Velocidad del viento	9.7
94654	7	Sololá	704	Santa Lucía Utatlán 	7	Santa Rita 	5	Mayo	2023-05-19T00:00:00	2024-11-08T18:00:00	7	Dirección del viento	9.66
94655	7	Sololá	704	Santa Lucía Utatlán 	7	Santa Rita 	5	Mayo	2023-05-19T00:00:00	2024-11-08T18:00:00	1	Precipitación	0
94656	7	Sololá	704	Santa Lucía Utatlán 	7	Santa Rita 	5	Mayo	2023-05-19T00:00:00	2024-11-08T18:00:00	8	Radiación solar	124
94657	7	Sololá	704	Santa Lucía Utatlán 	7	Santa Rita 	5	Mayo	2023-05-19T00:00:00	2024-11-08T19:00:00	2	Temperatura media	23.4
94658	7	Sololá	704	Santa Lucía Utatlán 	7	Santa Rita 	5	Mayo	2023-05-19T00:00:00	2024-11-08T19:00:00	4	Temperatura máxima	24
94659	7	Sololá	704	Santa Lucía Utatlán 	7	Santa Rita 	5	Mayo	2023-05-19T00:00:00	2024-11-08T19:00:00	3	Temperatura mínima	23.4
94660	7	Sololá	704	Santa Lucía Utatlán 	7	Santa Rita 	5	Mayo	2023-05-19T00:00:00	2024-11-08T19:00:00	5	Humedad	65
94661	7	Sololá	704	Santa Lucía Utatlán 	7	Santa Rita 	5	Mayo	2023-05-19T00:00:00	2024-11-08T19:00:00	6	Velocidad del viento	8
94662	7	Sololá	704	Santa Lucía Utatlán 	7	Santa Rita 	5	Mayo	2023-05-19T00:00:00	2024-11-08T19:00:00	7	Dirección del viento	8.05
94663	7	Sololá	704	Santa Lucía Utatlán 	7	Santa Rita 	5	Mayo	2023-05-19T00:00:00	2024-11-08T19:00:00	1	Precipitación	0
94664	7	Sololá	704	Santa Lucía Utatlán 	7	Santa Rita 	5	Mayo	2023-05-19T00:00:00	2024-11-08T19:00:00	8	Radiación solar	0
94665	7	Sololá	704	Santa Lucía Utatlán 	7	Santa Rita 	5	Mayo	2023-05-19T00:00:00	2024-11-08T20:00:00	2	Temperatura media	22.6
94666	7	Sololá	704	Santa Lucía Utatlán 	7	Santa Rita 	5	Mayo	2023-05-19T00:00:00	2024-11-08T20:00:00	4	Temperatura máxima	23.4
94667	7	Sololá	704	Santa Lucía Utatlán 	7	Santa Rita 	5	Mayo	2023-05-19T00:00:00	2024-11-08T20:00:00	3	Temperatura mínima	22.5
94668	7	Sololá	704	Santa Lucía Utatlán 	7	Santa Rita 	5	Mayo	2023-05-19T00:00:00	2024-11-08T20:00:00	5	Humedad	70
94669	7	Sololá	704	Santa Lucía Utatlán 	7	Santa Rita 	5	Mayo	2023-05-19T00:00:00	2024-11-08T20:00:00	6	Velocidad del viento	4.8
94670	7	Sololá	704	Santa Lucía Utatlán 	7	Santa Rita 	5	Mayo	2023-05-19T00:00:00	2024-11-08T20:00:00	7	Dirección del viento	4.83
94671	7	Sololá	704	Santa Lucía Utatlán 	7	Santa Rita 	5	Mayo	2023-05-19T00:00:00	2024-11-08T20:00:00	1	Precipitación	0
94672	7	Sololá	704	Santa Lucía Utatlán 	7	Santa Rita 	5	Mayo	2023-05-19T00:00:00	2024-11-08T20:00:00	8	Radiación solar	0
94673	7	Sololá	704	Santa Lucía Utatlán 	7	Santa Rita 	5	Mayo	2023-05-19T00:00:00	2024-11-08T21:00:00	2	Temperatura media	21.6
94674	7	Sololá	704	Santa Lucía Utatlán 	7	Santa Rita 	5	Mayo	2023-05-19T00:00:00	2024-11-08T21:00:00	4	Temperatura máxima	22.6
94675	7	Sololá	704	Santa Lucía Utatlán 	7	Santa Rita 	5	Mayo	2023-05-19T00:00:00	2024-11-08T21:00:00	3	Temperatura mínima	21.6
94676	7	Sololá	704	Santa Lucía Utatlán 	7	Santa Rita 	5	Mayo	2023-05-19T00:00:00	2024-11-08T21:00:00	5	Humedad	74
94677	7	Sololá	704	Santa Lucía Utatlán 	7	Santa Rita 	5	Mayo	2023-05-19T00:00:00	2024-11-08T21:00:00	6	Velocidad del viento	3.2
94678	7	Sololá	704	Santa Lucía Utatlán 	7	Santa Rita 	5	Mayo	2023-05-19T00:00:00	2024-11-08T21:00:00	7	Dirección del viento	3.22
94679	7	Sololá	704	Santa Lucía Utatlán 	7	Santa Rita 	5	Mayo	2023-05-19T00:00:00	2024-11-08T21:00:00	1	Precipitación	0
94680	7	Sololá	704	Santa Lucía Utatlán 	7	Santa Rita 	5	Mayo	2023-05-19T00:00:00	2024-11-08T21:00:00	8	Radiación solar	0
94681	7	Sololá	704	Santa Lucía Utatlán 	7	Santa Rita 	5	Mayo	2023-05-19T00:00:00	2024-11-08T22:00:00	2	Temperatura media	20.9
94682	7	Sololá	704	Santa Lucía Utatlán 	7	Santa Rita 	5	Mayo	2023-05-19T00:00:00	2024-11-08T22:00:00	4	Temperatura máxima	21.7
94683	7	Sololá	704	Santa Lucía Utatlán 	7	Santa Rita 	5	Mayo	2023-05-19T00:00:00	2024-11-08T22:00:00	3	Temperatura mínima	20.9
94684	7	Sololá	704	Santa Lucía Utatlán 	7	Santa Rita 	5	Mayo	2023-05-19T00:00:00	2024-11-08T22:00:00	5	Humedad	73
94685	7	Sololá	704	Santa Lucía Utatlán 	7	Santa Rita 	5	Mayo	2023-05-19T00:00:00	2024-11-08T22:00:00	6	Velocidad del viento	3.2
94686	7	Sololá	704	Santa Lucía Utatlán 	7	Santa Rita 	5	Mayo	2023-05-19T00:00:00	2024-11-08T22:00:00	7	Dirección del viento	3.22
94687	7	Sololá	704	Santa Lucía Utatlán 	7	Santa Rita 	5	Mayo	2023-05-19T00:00:00	2024-11-08T22:00:00	1	Precipitación	0
94688	7	Sololá	704	Santa Lucía Utatlán 	7	Santa Rita 	5	Mayo	2023-05-19T00:00:00	2024-11-08T22:00:00	8	Radiación solar	0
94689	7	Sololá	704	Santa Lucía Utatlán 	7	Santa Rita 	5	Mayo	2023-05-19T00:00:00	2024-11-08T23:00:00	2	Temperatura media	20.2
94690	7	Sololá	704	Santa Lucía Utatlán 	7	Santa Rita 	5	Mayo	2023-05-19T00:00:00	2024-11-08T23:00:00	4	Temperatura máxima	20.9
94691	7	Sololá	704	Santa Lucía Utatlán 	7	Santa Rita 	5	Mayo	2023-05-19T00:00:00	2024-11-08T23:00:00	3	Temperatura mínima	19.6
94692	7	Sololá	704	Santa Lucía Utatlán 	7	Santa Rita 	5	Mayo	2023-05-19T00:00:00	2024-11-08T23:00:00	5	Humedad	72
94693	7	Sololá	704	Santa Lucía Utatlán 	7	Santa Rita 	5	Mayo	2023-05-19T00:00:00	2024-11-08T23:00:00	6	Velocidad del viento	1.6
94694	7	Sololá	704	Santa Lucía Utatlán 	7	Santa Rita 	5	Mayo	2023-05-19T00:00:00	2024-11-08T23:00:00	7	Dirección del viento	1.61
94695	7	Sololá	704	Santa Lucía Utatlán 	7	Santa Rita 	5	Mayo	2023-05-19T00:00:00	2024-11-08T23:00:00	1	Precipitación	0
94696	7	Sololá	704	Santa Lucía Utatlán 	7	Santa Rita 	5	Mayo	2023-05-19T00:00:00	2024-11-08T23:00:00	8	Radiación solar	0
94697	7	Sololá	704	Santa Lucía Utatlán 	7	Santa Rita 	5	Mayo	2023-05-20T00:00:00	2024-11-08T00:00:00	2	Temperatura media	18.4
94698	7	Sololá	704	Santa Lucía Utatlán 	7	Santa Rita 	5	Mayo	2023-05-20T00:00:00	2024-11-08T00:00:00	4	Temperatura máxima	20.2
94699	7	Sololá	704	Santa Lucía Utatlán 	7	Santa Rita 	5	Mayo	2023-05-20T00:00:00	2024-11-08T00:00:00	3	Temperatura mínima	18.4
94700	7	Sololá	704	Santa Lucía Utatlán 	7	Santa Rita 	5	Mayo	2023-05-20T00:00:00	2024-11-08T00:00:00	5	Humedad	81
94701	7	Sololá	704	Santa Lucía Utatlán 	7	Santa Rita 	5	Mayo	2023-05-20T00:00:00	2024-11-08T00:00:00	6	Velocidad del viento	1.6
94702	7	Sololá	704	Santa Lucía Utatlán 	7	Santa Rita 	5	Mayo	2023-05-20T00:00:00	2024-11-08T00:00:00	7	Dirección del viento	1.61
94703	7	Sololá	704	Santa Lucía Utatlán 	7	Santa Rita 	5	Mayo	2023-05-20T00:00:00	2024-11-08T00:00:00	1	Precipitación	0
94704	7	Sololá	704	Santa Lucía Utatlán 	7	Santa Rita 	5	Mayo	2023-05-20T00:00:00	2024-11-08T00:00:00	8	Radiación solar	0
94705	7	Sololá	704	Santa Lucía Utatlán 	7	Santa Rita 	5	Mayo	2023-05-20T00:00:00	2024-11-08T01:00:00	2	Temperatura media	18.1
94706	7	Sololá	704	Santa Lucía Utatlán 	7	Santa Rita 	5	Mayo	2023-05-20T00:00:00	2024-11-08T01:00:00	4	Temperatura máxima	18.4
94707	7	Sololá	704	Santa Lucía Utatlán 	7	Santa Rita 	5	Mayo	2023-05-20T00:00:00	2024-11-08T01:00:00	3	Temperatura mínima	17.9
94708	7	Sololá	704	Santa Lucía Utatlán 	7	Santa Rita 	5	Mayo	2023-05-20T00:00:00	2024-11-08T01:00:00	5	Humedad	82
94709	7	Sololá	704	Santa Lucía Utatlán 	7	Santa Rita 	5	Mayo	2023-05-20T00:00:00	2024-11-08T01:00:00	6	Velocidad del viento	1.6
94710	7	Sololá	704	Santa Lucía Utatlán 	7	Santa Rita 	5	Mayo	2023-05-20T00:00:00	2024-11-08T01:00:00	7	Dirección del viento	1.61
94711	7	Sololá	704	Santa Lucía Utatlán 	7	Santa Rita 	5	Mayo	2023-05-20T00:00:00	2024-11-08T01:00:00	1	Precipitación	0
94712	7	Sololá	704	Santa Lucía Utatlán 	7	Santa Rita 	5	Mayo	2023-05-20T00:00:00	2024-11-08T01:00:00	8	Radiación solar	0
94713	7	Sololá	704	Santa Lucía Utatlán 	7	Santa Rita 	5	Mayo	2023-05-20T00:00:00	2024-11-08T02:00:00	2	Temperatura media	17.2
94714	7	Sololá	704	Santa Lucía Utatlán 	7	Santa Rita 	5	Mayo	2023-05-20T00:00:00	2024-11-08T02:00:00	4	Temperatura máxima	18
94715	7	Sololá	704	Santa Lucía Utatlán 	7	Santa Rita 	5	Mayo	2023-05-20T00:00:00	2024-11-08T02:00:00	3	Temperatura mínima	17.2
94716	7	Sololá	704	Santa Lucía Utatlán 	7	Santa Rita 	5	Mayo	2023-05-20T00:00:00	2024-11-08T02:00:00	5	Humedad	80
94717	7	Sololá	704	Santa Lucía Utatlán 	7	Santa Rita 	5	Mayo	2023-05-20T00:00:00	2024-11-08T02:00:00	6	Velocidad del viento	1.6
94718	7	Sololá	704	Santa Lucía Utatlán 	7	Santa Rita 	5	Mayo	2023-05-20T00:00:00	2024-11-08T02:00:00	7	Dirección del viento	1.61
94719	7	Sololá	704	Santa Lucía Utatlán 	7	Santa Rita 	5	Mayo	2023-05-20T00:00:00	2024-11-08T02:00:00	1	Precipitación	0
94720	7	Sololá	704	Santa Lucía Utatlán 	7	Santa Rita 	5	Mayo	2023-05-20T00:00:00	2024-11-08T02:00:00	8	Radiación solar	0
94721	7	Sololá	704	Santa Lucía Utatlán 	7	Santa Rita 	5	Mayo	2023-05-20T00:00:00	2024-11-08T03:00:00	2	Temperatura media	17.2
94722	7	Sololá	704	Santa Lucía Utatlán 	7	Santa Rita 	5	Mayo	2023-05-20T00:00:00	2024-11-08T03:00:00	4	Temperatura máxima	17.4
94723	7	Sololá	704	Santa Lucía Utatlán 	7	Santa Rita 	5	Mayo	2023-05-20T00:00:00	2024-11-08T03:00:00	3	Temperatura mínima	17.1
94724	7	Sololá	704	Santa Lucía Utatlán 	7	Santa Rita 	5	Mayo	2023-05-20T00:00:00	2024-11-08T03:00:00	5	Humedad	74
94725	7	Sololá	704	Santa Lucía Utatlán 	7	Santa Rita 	5	Mayo	2023-05-20T00:00:00	2024-11-08T03:00:00	6	Velocidad del viento	3.2
94726	7	Sololá	704	Santa Lucía Utatlán 	7	Santa Rita 	5	Mayo	2023-05-20T00:00:00	2024-11-08T03:00:00	7	Dirección del viento	3.22
94727	7	Sololá	704	Santa Lucía Utatlán 	7	Santa Rita 	5	Mayo	2023-05-20T00:00:00	2024-11-08T03:00:00	1	Precipitación	0
94728	7	Sololá	704	Santa Lucía Utatlán 	7	Santa Rita 	5	Mayo	2023-05-20T00:00:00	2024-11-08T03:00:00	8	Radiación solar	0
94729	7	Sololá	704	Santa Lucía Utatlán 	7	Santa Rita 	5	Mayo	2023-05-20T00:00:00	2024-11-08T04:00:00	2	Temperatura media	17
94730	7	Sololá	704	Santa Lucía Utatlán 	7	Santa Rita 	5	Mayo	2023-05-20T00:00:00	2024-11-08T04:00:00	4	Temperatura máxima	17.2
94731	7	Sololá	704	Santa Lucía Utatlán 	7	Santa Rita 	5	Mayo	2023-05-20T00:00:00	2024-11-08T04:00:00	3	Temperatura mínima	16.7
94732	7	Sololá	704	Santa Lucía Utatlán 	7	Santa Rita 	5	Mayo	2023-05-20T00:00:00	2024-11-08T04:00:00	5	Humedad	73
94733	7	Sololá	704	Santa Lucía Utatlán 	7	Santa Rita 	5	Mayo	2023-05-20T00:00:00	2024-11-08T04:00:00	6	Velocidad del viento	3.2
94734	7	Sololá	704	Santa Lucía Utatlán 	7	Santa Rita 	5	Mayo	2023-05-20T00:00:00	2024-11-08T04:00:00	7	Dirección del viento	3.22
94735	7	Sololá	704	Santa Lucía Utatlán 	7	Santa Rita 	5	Mayo	2023-05-20T00:00:00	2024-11-08T04:00:00	1	Precipitación	0
94736	7	Sololá	704	Santa Lucía Utatlán 	7	Santa Rita 	5	Mayo	2023-05-20T00:00:00	2024-11-08T04:00:00	8	Radiación solar	0
94737	7	Sololá	704	Santa Lucía Utatlán 	7	Santa Rita 	5	Mayo	2023-05-20T00:00:00	2024-11-08T05:00:00	2	Temperatura media	20.7
94738	7	Sololá	704	Santa Lucía Utatlán 	7	Santa Rita 	5	Mayo	2023-05-20T00:00:00	2024-11-08T05:00:00	4	Temperatura máxima	20.7
94739	7	Sololá	704	Santa Lucía Utatlán 	7	Santa Rita 	5	Mayo	2023-05-20T00:00:00	2024-11-08T05:00:00	3	Temperatura mínima	17
94740	7	Sololá	704	Santa Lucía Utatlán 	7	Santa Rita 	5	Mayo	2023-05-20T00:00:00	2024-11-08T05:00:00	5	Humedad	55
94741	7	Sololá	704	Santa Lucía Utatlán 	7	Santa Rita 	5	Mayo	2023-05-20T00:00:00	2024-11-08T05:00:00	6	Velocidad del viento	6.4
94742	7	Sololá	704	Santa Lucía Utatlán 	7	Santa Rita 	5	Mayo	2023-05-20T00:00:00	2024-11-08T05:00:00	7	Dirección del viento	6.44
94743	7	Sololá	704	Santa Lucía Utatlán 	7	Santa Rita 	5	Mayo	2023-05-20T00:00:00	2024-11-08T05:00:00	1	Precipitación	0
94744	7	Sololá	704	Santa Lucía Utatlán 	7	Santa Rita 	5	Mayo	2023-05-20T00:00:00	2024-11-08T05:00:00	8	Radiación solar	0
94745	7	Sololá	704	Santa Lucía Utatlán 	7	Santa Rita 	5	Mayo	2023-05-20T00:00:00	2024-11-08T06:00:00	2	Temperatura media	19.7
94746	7	Sololá	704	Santa Lucía Utatlán 	7	Santa Rita 	5	Mayo	2023-05-20T00:00:00	2024-11-08T06:00:00	4	Temperatura máxima	20.8
94747	7	Sololá	704	Santa Lucía Utatlán 	7	Santa Rita 	5	Mayo	2023-05-20T00:00:00	2024-11-08T06:00:00	3	Temperatura mínima	19.6
94748	7	Sololá	704	Santa Lucía Utatlán 	7	Santa Rita 	5	Mayo	2023-05-20T00:00:00	2024-11-08T06:00:00	5	Humedad	59
94749	7	Sololá	704	Santa Lucía Utatlán 	7	Santa Rita 	5	Mayo	2023-05-20T00:00:00	2024-11-08T06:00:00	6	Velocidad del viento	4.8
94750	7	Sololá	704	Santa Lucía Utatlán 	7	Santa Rita 	5	Mayo	2023-05-20T00:00:00	2024-11-08T06:00:00	7	Dirección del viento	4.83
94751	7	Sololá	704	Santa Lucía Utatlán 	7	Santa Rita 	5	Mayo	2023-05-20T00:00:00	2024-11-08T06:00:00	1	Precipitación	0
94752	7	Sololá	704	Santa Lucía Utatlán 	7	Santa Rita 	5	Mayo	2023-05-20T00:00:00	2024-11-08T06:00:00	8	Radiación solar	0
94753	7	Sololá	704	Santa Lucía Utatlán 	7	Santa Rita 	5	Mayo	2023-05-20T00:00:00	2024-11-08T07:00:00	2	Temperatura media	17.5
94754	7	Sololá	704	Santa Lucía Utatlán 	7	Santa Rita 	5	Mayo	2023-05-20T00:00:00	2024-11-08T07:00:00	4	Temperatura máxima	19.7
94755	7	Sololá	704	Santa Lucía Utatlán 	7	Santa Rita 	5	Mayo	2023-05-20T00:00:00	2024-11-08T07:00:00	3	Temperatura mínima	17.1
94756	7	Sololá	704	Santa Lucía Utatlán 	7	Santa Rita 	5	Mayo	2023-05-20T00:00:00	2024-11-08T07:00:00	5	Humedad	64
94757	7	Sololá	704	Santa Lucía Utatlán 	7	Santa Rita 	5	Mayo	2023-05-20T00:00:00	2024-11-08T07:00:00	6	Velocidad del viento	3.2
94758	7	Sololá	704	Santa Lucía Utatlán 	7	Santa Rita 	5	Mayo	2023-05-20T00:00:00	2024-11-08T07:00:00	7	Dirección del viento	3.22
94759	7	Sololá	704	Santa Lucía Utatlán 	7	Santa Rita 	5	Mayo	2023-05-20T00:00:00	2024-11-08T07:00:00	1	Precipitación	0
94760	7	Sololá	704	Santa Lucía Utatlán 	7	Santa Rita 	5	Mayo	2023-05-20T00:00:00	2024-11-08T07:00:00	8	Radiación solar	10
94761	7	Sololá	704	Santa Lucía Utatlán 	7	Santa Rita 	5	Mayo	2023-05-20T00:00:00	2024-11-08T08:00:00	2	Temperatura media	19.3
94762	7	Sololá	704	Santa Lucía Utatlán 	7	Santa Rita 	5	Mayo	2023-05-20T00:00:00	2024-11-08T08:00:00	4	Temperatura máxima	19.3
94763	7	Sololá	704	Santa Lucía Utatlán 	7	Santa Rita 	5	Mayo	2023-05-20T00:00:00	2024-11-08T08:00:00	3	Temperatura mínima	17.5
94764	7	Sololá	704	Santa Lucía Utatlán 	7	Santa Rita 	5	Mayo	2023-05-20T00:00:00	2024-11-08T08:00:00	5	Humedad	64
94765	7	Sololá	704	Santa Lucía Utatlán 	7	Santa Rita 	5	Mayo	2023-05-20T00:00:00	2024-11-08T08:00:00	6	Velocidad del viento	1.6
94766	7	Sololá	704	Santa Lucía Utatlán 	7	Santa Rita 	5	Mayo	2023-05-20T00:00:00	2024-11-08T08:00:00	7	Dirección del viento	1.61
94767	7	Sololá	704	Santa Lucía Utatlán 	7	Santa Rita 	5	Mayo	2023-05-20T00:00:00	2024-11-08T08:00:00	1	Precipitación	0
94768	7	Sololá	704	Santa Lucía Utatlán 	7	Santa Rita 	5	Mayo	2023-05-20T00:00:00	2024-11-08T08:00:00	8	Radiación solar	115
94769	7	Sololá	704	Santa Lucía Utatlán 	7	Santa Rita 	5	Mayo	2023-05-20T00:00:00	2024-11-08T09:00:00	2	Temperatura media	22.7
94770	7	Sololá	704	Santa Lucía Utatlán 	7	Santa Rita 	5	Mayo	2023-05-20T00:00:00	2024-11-08T09:00:00	4	Temperatura máxima	22.7
94771	7	Sololá	704	Santa Lucía Utatlán 	7	Santa Rita 	5	Mayo	2023-05-20T00:00:00	2024-11-08T09:00:00	3	Temperatura mínima	19.3
94772	7	Sololá	704	Santa Lucía Utatlán 	7	Santa Rita 	5	Mayo	2023-05-20T00:00:00	2024-11-08T09:00:00	5	Humedad	53
94773	7	Sololá	704	Santa Lucía Utatlán 	7	Santa Rita 	5	Mayo	2023-05-20T00:00:00	2024-11-08T09:00:00	6	Velocidad del viento	3.2
94774	7	Sololá	704	Santa Lucía Utatlán 	7	Santa Rita 	5	Mayo	2023-05-20T00:00:00	2024-11-08T09:00:00	7	Dirección del viento	3.22
94775	7	Sololá	704	Santa Lucía Utatlán 	7	Santa Rita 	5	Mayo	2023-05-20T00:00:00	2024-11-08T09:00:00	1	Precipitación	0
94776	7	Sololá	704	Santa Lucía Utatlán 	7	Santa Rita 	5	Mayo	2023-05-20T00:00:00	2024-11-08T09:00:00	8	Radiación solar	403
94777	7	Sololá	704	Santa Lucía Utatlán 	7	Santa Rita 	5	Mayo	2023-05-20T00:00:00	2024-11-08T10:00:00	2	Temperatura media	25.2
94778	7	Sololá	704	Santa Lucía Utatlán 	7	Santa Rita 	5	Mayo	2023-05-20T00:00:00	2024-11-08T10:00:00	4	Temperatura máxima	25.2
94779	7	Sololá	704	Santa Lucía Utatlán 	7	Santa Rita 	5	Mayo	2023-05-20T00:00:00	2024-11-08T10:00:00	3	Temperatura mínima	22.7
94780	7	Sololá	704	Santa Lucía Utatlán 	7	Santa Rita 	5	Mayo	2023-05-20T00:00:00	2024-11-08T10:00:00	5	Humedad	45
94781	7	Sololá	704	Santa Lucía Utatlán 	7	Santa Rita 	5	Mayo	2023-05-20T00:00:00	2024-11-08T10:00:00	6	Velocidad del viento	3.2
94782	7	Sololá	704	Santa Lucía Utatlán 	7	Santa Rita 	5	Mayo	2023-05-20T00:00:00	2024-11-08T10:00:00	7	Dirección del viento	3.22
94783	7	Sololá	704	Santa Lucía Utatlán 	7	Santa Rita 	5	Mayo	2023-05-20T00:00:00	2024-11-08T10:00:00	1	Precipitación	0
94784	7	Sololá	704	Santa Lucía Utatlán 	7	Santa Rita 	5	Mayo	2023-05-20T00:00:00	2024-11-08T10:00:00	8	Radiación solar	645
94785	7	Sololá	704	Santa Lucía Utatlán 	7	Santa Rita 	5	Mayo	2023-05-20T00:00:00	2024-11-08T11:00:00	2	Temperatura media	24.2
94786	7	Sololá	704	Santa Lucía Utatlán 	7	Santa Rita 	5	Mayo	2023-05-20T00:00:00	2024-11-08T11:00:00	4	Temperatura máxima	26.2
94787	7	Sololá	704	Santa Lucía Utatlán 	7	Santa Rita 	5	Mayo	2023-05-20T00:00:00	2024-11-08T11:00:00	3	Temperatura mínima	24.2
94788	7	Sololá	704	Santa Lucía Utatlán 	7	Santa Rita 	5	Mayo	2023-05-20T00:00:00	2024-11-08T11:00:00	5	Humedad	48
94789	7	Sololá	704	Santa Lucía Utatlán 	7	Santa Rita 	5	Mayo	2023-05-20T00:00:00	2024-11-08T11:00:00	6	Velocidad del viento	6.4
94790	7	Sololá	704	Santa Lucía Utatlán 	7	Santa Rita 	5	Mayo	2023-05-20T00:00:00	2024-11-08T11:00:00	7	Dirección del viento	6.44
94791	7	Sololá	704	Santa Lucía Utatlán 	7	Santa Rita 	5	Mayo	2023-05-20T00:00:00	2024-11-08T11:00:00	1	Precipitación	0
94792	7	Sololá	704	Santa Lucía Utatlán 	7	Santa Rita 	5	Mayo	2023-05-20T00:00:00	2024-11-08T11:00:00	8	Radiación solar	780
94793	7	Sololá	704	Santa Lucía Utatlán 	7	Santa Rita 	5	Mayo	2023-05-20T00:00:00	2024-11-08T12:00:00	2	Temperatura media	24.8
94794	7	Sololá	704	Santa Lucía Utatlán 	7	Santa Rita 	5	Mayo	2023-05-20T00:00:00	2024-11-08T12:00:00	4	Temperatura máxima	25
94795	7	Sololá	704	Santa Lucía Utatlán 	7	Santa Rita 	5	Mayo	2023-05-20T00:00:00	2024-11-08T12:00:00	3	Temperatura mínima	24.1
94796	7	Sololá	704	Santa Lucía Utatlán 	7	Santa Rita 	5	Mayo	2023-05-20T00:00:00	2024-11-08T12:00:00	5	Humedad	51
94797	7	Sololá	704	Santa Lucía Utatlán 	7	Santa Rita 	5	Mayo	2023-05-20T00:00:00	2024-11-08T12:00:00	6	Velocidad del viento	11.3
94798	7	Sololá	704	Santa Lucía Utatlán 	7	Santa Rita 	5	Mayo	2023-05-20T00:00:00	2024-11-08T12:00:00	7	Dirección del viento	11.27
94799	7	Sololá	704	Santa Lucía Utatlán 	7	Santa Rita 	5	Mayo	2023-05-20T00:00:00	2024-11-08T12:00:00	1	Precipitación	0
94800	7	Sololá	704	Santa Lucía Utatlán 	7	Santa Rita 	5	Mayo	2023-05-20T00:00:00	2024-11-08T12:00:00	8	Radiación solar	925
94801	7	Sololá	704	Santa Lucía Utatlán 	7	Santa Rita 	5	Mayo	2023-05-20T00:00:00	2024-11-08T13:00:00	2	Temperatura media	26.3
94802	7	Sololá	704	Santa Lucía Utatlán 	7	Santa Rita 	5	Mayo	2023-05-20T00:00:00	2024-11-08T13:00:00	4	Temperatura máxima	26.4
94803	7	Sololá	704	Santa Lucía Utatlán 	7	Santa Rita 	5	Mayo	2023-05-20T00:00:00	2024-11-08T13:00:00	3	Temperatura mínima	24.7
94804	7	Sololá	704	Santa Lucía Utatlán 	7	Santa Rita 	5	Mayo	2023-05-20T00:00:00	2024-11-08T13:00:00	5	Humedad	42
94805	7	Sololá	704	Santa Lucía Utatlán 	7	Santa Rita 	5	Mayo	2023-05-20T00:00:00	2024-11-08T13:00:00	6	Velocidad del viento	9.7
94806	7	Sololá	704	Santa Lucía Utatlán 	7	Santa Rita 	5	Mayo	2023-05-20T00:00:00	2024-11-08T13:00:00	7	Dirección del viento	9.66
94807	7	Sololá	704	Santa Lucía Utatlán 	7	Santa Rita 	5	Mayo	2023-05-20T00:00:00	2024-11-08T13:00:00	1	Precipitación	0
94808	7	Sololá	704	Santa Lucía Utatlán 	7	Santa Rita 	5	Mayo	2023-05-20T00:00:00	2024-11-08T13:00:00	8	Radiación solar	1023
94809	7	Sololá	704	Santa Lucía Utatlán 	7	Santa Rita 	5	Mayo	2023-05-20T00:00:00	2024-11-08T14:00:00	2	Temperatura media	26.8
94810	7	Sololá	704	Santa Lucía Utatlán 	7	Santa Rita 	5	Mayo	2023-05-20T00:00:00	2024-11-08T14:00:00	4	Temperatura máxima	26.9
94811	7	Sololá	704	Santa Lucía Utatlán 	7	Santa Rita 	5	Mayo	2023-05-20T00:00:00	2024-11-08T14:00:00	3	Temperatura mínima	26.3
94812	7	Sololá	704	Santa Lucía Utatlán 	7	Santa Rita 	5	Mayo	2023-05-20T00:00:00	2024-11-08T14:00:00	5	Humedad	43
94813	7	Sololá	704	Santa Lucía Utatlán 	7	Santa Rita 	5	Mayo	2023-05-20T00:00:00	2024-11-08T14:00:00	6	Velocidad del viento	8
94814	7	Sololá	704	Santa Lucía Utatlán 	7	Santa Rita 	5	Mayo	2023-05-20T00:00:00	2024-11-08T14:00:00	7	Dirección del viento	8.05
94815	7	Sololá	704	Santa Lucía Utatlán 	7	Santa Rita 	5	Mayo	2023-05-20T00:00:00	2024-11-08T14:00:00	1	Precipitación	0
94816	7	Sololá	704	Santa Lucía Utatlán 	7	Santa Rita 	5	Mayo	2023-05-20T00:00:00	2024-11-08T14:00:00	8	Radiación solar	991
94817	7	Sololá	704	Santa Lucía Utatlán 	7	Santa Rita 	5	Mayo	2023-05-20T00:00:00	2024-11-08T15:00:00	2	Temperatura media	26.7
94818	7	Sololá	704	Santa Lucía Utatlán 	7	Santa Rita 	5	Mayo	2023-05-20T00:00:00	2024-11-08T15:00:00	4	Temperatura máxima	27.4
94819	7	Sololá	704	Santa Lucía Utatlán 	7	Santa Rita 	5	Mayo	2023-05-20T00:00:00	2024-11-08T15:00:00	3	Temperatura mínima	26.3
94820	7	Sololá	704	Santa Lucía Utatlán 	7	Santa Rita 	5	Mayo	2023-05-20T00:00:00	2024-11-08T15:00:00	5	Humedad	44
94821	7	Sololá	704	Santa Lucía Utatlán 	7	Santa Rita 	5	Mayo	2023-05-20T00:00:00	2024-11-08T15:00:00	6	Velocidad del viento	9.7
94822	7	Sololá	704	Santa Lucía Utatlán 	7	Santa Rita 	5	Mayo	2023-05-20T00:00:00	2024-11-08T15:00:00	7	Dirección del viento	9.66
94823	7	Sololá	704	Santa Lucía Utatlán 	7	Santa Rita 	5	Mayo	2023-05-20T00:00:00	2024-11-08T15:00:00	1	Precipitación	0
94824	7	Sololá	704	Santa Lucía Utatlán 	7	Santa Rita 	5	Mayo	2023-05-20T00:00:00	2024-11-08T15:00:00	8	Radiación solar	915
94825	7	Sololá	704	Santa Lucía Utatlán 	7	Santa Rita 	5	Mayo	2023-05-20T00:00:00	2024-11-08T16:00:00	2	Temperatura media	26.3
94826	7	Sololá	704	Santa Lucía Utatlán 	7	Santa Rita 	5	Mayo	2023-05-20T00:00:00	2024-11-08T16:00:00	4	Temperatura máxima	27.3
94827	7	Sololá	704	Santa Lucía Utatlán 	7	Santa Rita 	5	Mayo	2023-05-20T00:00:00	2024-11-08T16:00:00	3	Temperatura mínima	26.2
94828	7	Sololá	704	Santa Lucía Utatlán 	7	Santa Rita 	5	Mayo	2023-05-20T00:00:00	2024-11-08T16:00:00	5	Humedad	48
94829	7	Sololá	704	Santa Lucía Utatlán 	7	Santa Rita 	5	Mayo	2023-05-20T00:00:00	2024-11-08T16:00:00	6	Velocidad del viento	9.7
94830	7	Sololá	704	Santa Lucía Utatlán 	7	Santa Rita 	5	Mayo	2023-05-20T00:00:00	2024-11-08T16:00:00	7	Dirección del viento	9.66
94831	7	Sololá	704	Santa Lucía Utatlán 	7	Santa Rita 	5	Mayo	2023-05-20T00:00:00	2024-11-08T16:00:00	1	Precipitación	0
94832	7	Sololá	704	Santa Lucía Utatlán 	7	Santa Rita 	5	Mayo	2023-05-20T00:00:00	2024-11-08T16:00:00	8	Radiación solar	803
94833	7	Sololá	704	Santa Lucía Utatlán 	7	Santa Rita 	5	Mayo	2023-05-20T00:00:00	2024-11-08T17:00:00	2	Temperatura media	26.3
94834	7	Sololá	704	Santa Lucía Utatlán 	7	Santa Rita 	5	Mayo	2023-05-20T00:00:00	2024-11-08T17:00:00	4	Temperatura máxima	27
94835	7	Sololá	704	Santa Lucía Utatlán 	7	Santa Rita 	5	Mayo	2023-05-20T00:00:00	2024-11-08T17:00:00	3	Temperatura mínima	26.1
94836	7	Sololá	704	Santa Lucía Utatlán 	7	Santa Rita 	5	Mayo	2023-05-20T00:00:00	2024-11-08T17:00:00	5	Humedad	50
94837	7	Sololá	704	Santa Lucía Utatlán 	7	Santa Rita 	5	Mayo	2023-05-20T00:00:00	2024-11-08T17:00:00	6	Velocidad del viento	6.4
94838	7	Sololá	704	Santa Lucía Utatlán 	7	Santa Rita 	5	Mayo	2023-05-20T00:00:00	2024-11-08T17:00:00	7	Dirección del viento	6.44
94839	7	Sololá	704	Santa Lucía Utatlán 	7	Santa Rita 	5	Mayo	2023-05-20T00:00:00	2024-11-08T17:00:00	1	Precipitación	0
94840	7	Sololá	704	Santa Lucía Utatlán 	7	Santa Rita 	5	Mayo	2023-05-20T00:00:00	2024-11-08T17:00:00	8	Radiación solar	598
94841	7	Sololá	704	Santa Lucía Utatlán 	7	Santa Rita 	5	Mayo	2023-05-20T00:00:00	2024-11-08T18:00:00	2	Temperatura media	25
94842	7	Sololá	704	Santa Lucía Utatlán 	7	Santa Rita 	5	Mayo	2023-05-20T00:00:00	2024-11-08T18:00:00	4	Temperatura máxima	26.3
94843	7	Sololá	704	Santa Lucía Utatlán 	7	Santa Rita 	5	Mayo	2023-05-20T00:00:00	2024-11-08T18:00:00	3	Temperatura mínima	24.8
94844	7	Sololá	704	Santa Lucía Utatlán 	7	Santa Rita 	5	Mayo	2023-05-20T00:00:00	2024-11-08T18:00:00	5	Humedad	50
94845	7	Sololá	704	Santa Lucía Utatlán 	7	Santa Rita 	5	Mayo	2023-05-20T00:00:00	2024-11-08T18:00:00	6	Velocidad del viento	8
94846	7	Sololá	704	Santa Lucía Utatlán 	7	Santa Rita 	5	Mayo	2023-05-20T00:00:00	2024-11-08T18:00:00	7	Dirección del viento	8.05
94847	7	Sololá	704	Santa Lucía Utatlán 	7	Santa Rita 	5	Mayo	2023-05-20T00:00:00	2024-11-08T18:00:00	1	Precipitación	0
94848	7	Sololá	704	Santa Lucía Utatlán 	7	Santa Rita 	5	Mayo	2023-05-20T00:00:00	2024-11-08T18:00:00	8	Radiación solar	311
94849	7	Sololá	704	Santa Lucía Utatlán 	7	Santa Rita 	5	Mayo	2023-05-20T00:00:00	2024-11-08T19:00:00	2	Temperatura media	22.9
94850	7	Sololá	704	Santa Lucía Utatlán 	7	Santa Rita 	5	Mayo	2023-05-20T00:00:00	2024-11-08T19:00:00	4	Temperatura máxima	25
94851	7	Sololá	704	Santa Lucía Utatlán 	7	Santa Rita 	5	Mayo	2023-05-20T00:00:00	2024-11-08T19:00:00	3	Temperatura mínima	22.9
94852	7	Sololá	704	Santa Lucía Utatlán 	7	Santa Rita 	5	Mayo	2023-05-20T00:00:00	2024-11-08T19:00:00	5	Humedad	63
94853	7	Sololá	704	Santa Lucía Utatlán 	7	Santa Rita 	5	Mayo	2023-05-20T00:00:00	2024-11-08T19:00:00	6	Velocidad del viento	6.4
94854	7	Sololá	704	Santa Lucía Utatlán 	7	Santa Rita 	5	Mayo	2023-05-20T00:00:00	2024-11-08T19:00:00	7	Dirección del viento	6.44
94855	7	Sololá	704	Santa Lucía Utatlán 	7	Santa Rita 	5	Mayo	2023-05-20T00:00:00	2024-11-08T19:00:00	1	Precipitación	0
94856	7	Sololá	704	Santa Lucía Utatlán 	7	Santa Rita 	5	Mayo	2023-05-20T00:00:00	2024-11-08T19:00:00	8	Radiación solar	0
94857	7	Sololá	704	Santa Lucía Utatlán 	7	Santa Rita 	5	Mayo	2023-05-20T00:00:00	2024-11-08T20:00:00	2	Temperatura media	21.8
94858	7	Sololá	704	Santa Lucía Utatlán 	7	Santa Rita 	5	Mayo	2023-05-20T00:00:00	2024-11-08T20:00:00	4	Temperatura máxima	22.9
94859	7	Sololá	704	Santa Lucía Utatlán 	7	Santa Rita 	5	Mayo	2023-05-20T00:00:00	2024-11-08T20:00:00	3	Temperatura mínima	21.8
94860	7	Sololá	704	Santa Lucía Utatlán 	7	Santa Rita 	5	Mayo	2023-05-20T00:00:00	2024-11-08T20:00:00	5	Humedad	71
94861	7	Sololá	704	Santa Lucía Utatlán 	7	Santa Rita 	5	Mayo	2023-05-20T00:00:00	2024-11-08T20:00:00	6	Velocidad del viento	1.6
94862	7	Sololá	704	Santa Lucía Utatlán 	7	Santa Rita 	5	Mayo	2023-05-20T00:00:00	2024-11-08T20:00:00	7	Dirección del viento	1.61
94863	7	Sololá	704	Santa Lucía Utatlán 	7	Santa Rita 	5	Mayo	2023-05-20T00:00:00	2024-11-08T20:00:00	1	Precipitación	0
94864	7	Sololá	704	Santa Lucía Utatlán 	7	Santa Rita 	5	Mayo	2023-05-20T00:00:00	2024-11-08T20:00:00	8	Radiación solar	0
94865	7	Sololá	704	Santa Lucía Utatlán 	7	Santa Rita 	5	Mayo	2023-05-20T00:00:00	2024-11-08T21:00:00	2	Temperatura media	21
94866	7	Sololá	704	Santa Lucía Utatlán 	7	Santa Rita 	5	Mayo	2023-05-20T00:00:00	2024-11-08T21:00:00	4	Temperatura máxima	21.8
94867	7	Sololá	704	Santa Lucía Utatlán 	7	Santa Rita 	5	Mayo	2023-05-20T00:00:00	2024-11-08T21:00:00	3	Temperatura mínima	20.9
94868	7	Sololá	704	Santa Lucía Utatlán 	7	Santa Rita 	5	Mayo	2023-05-20T00:00:00	2024-11-08T21:00:00	5	Humedad	75
94869	7	Sololá	704	Santa Lucía Utatlán 	7	Santa Rita 	5	Mayo	2023-05-20T00:00:00	2024-11-08T21:00:00	6	Velocidad del viento	3.2
94870	7	Sololá	704	Santa Lucía Utatlán 	7	Santa Rita 	5	Mayo	2023-05-20T00:00:00	2024-11-08T21:00:00	7	Dirección del viento	3.22
94871	7	Sololá	704	Santa Lucía Utatlán 	7	Santa Rita 	5	Mayo	2023-05-20T00:00:00	2024-11-08T21:00:00	1	Precipitación	0
94872	7	Sololá	704	Santa Lucía Utatlán 	7	Santa Rita 	5	Mayo	2023-05-20T00:00:00	2024-11-08T21:00:00	8	Radiación solar	0
94873	7	Sololá	704	Santa Lucía Utatlán 	7	Santa Rita 	5	Mayo	2023-05-20T00:00:00	2024-11-08T22:00:00	2	Temperatura media	20.2
94874	7	Sololá	704	Santa Lucía Utatlán 	7	Santa Rita 	5	Mayo	2023-05-20T00:00:00	2024-11-08T22:00:00	4	Temperatura máxima	21
94875	7	Sololá	704	Santa Lucía Utatlán 	7	Santa Rita 	5	Mayo	2023-05-20T00:00:00	2024-11-08T22:00:00	3	Temperatura mínima	20.2
94876	7	Sololá	704	Santa Lucía Utatlán 	7	Santa Rita 	5	Mayo	2023-05-20T00:00:00	2024-11-08T22:00:00	5	Humedad	78
94877	7	Sololá	704	Santa Lucía Utatlán 	7	Santa Rita 	5	Mayo	2023-05-20T00:00:00	2024-11-08T22:00:00	6	Velocidad del viento	1.6
94878	7	Sololá	704	Santa Lucía Utatlán 	7	Santa Rita 	5	Mayo	2023-05-20T00:00:00	2024-11-08T22:00:00	7	Dirección del viento	1.61
94879	7	Sololá	704	Santa Lucía Utatlán 	7	Santa Rita 	5	Mayo	2023-05-20T00:00:00	2024-11-08T22:00:00	1	Precipitación	0
94880	7	Sololá	704	Santa Lucía Utatlán 	7	Santa Rita 	5	Mayo	2023-05-20T00:00:00	2024-11-08T22:00:00	8	Radiación solar	0
94881	7	Sololá	704	Santa Lucía Utatlán 	7	Santa Rita 	5	Mayo	2023-05-20T00:00:00	2024-11-08T23:00:00	2	Temperatura media	19.8
94882	7	Sololá	704	Santa Lucía Utatlán 	7	Santa Rita 	5	Mayo	2023-05-20T00:00:00	2024-11-08T23:00:00	4	Temperatura máxima	20.2
94883	7	Sololá	704	Santa Lucía Utatlán 	7	Santa Rita 	5	Mayo	2023-05-20T00:00:00	2024-11-08T23:00:00	3	Temperatura mínima	19.6
94884	7	Sololá	704	Santa Lucía Utatlán 	7	Santa Rita 	5	Mayo	2023-05-20T00:00:00	2024-11-08T23:00:00	5	Humedad	72
94885	7	Sololá	704	Santa Lucía Utatlán 	7	Santa Rita 	5	Mayo	2023-05-20T00:00:00	2024-11-08T23:00:00	6	Velocidad del viento	1.6
94886	7	Sololá	704	Santa Lucía Utatlán 	7	Santa Rita 	5	Mayo	2023-05-20T00:00:00	2024-11-08T23:00:00	7	Dirección del viento	1.61
94887	7	Sololá	704	Santa Lucía Utatlán 	7	Santa Rita 	5	Mayo	2023-05-20T00:00:00	2024-11-08T23:00:00	1	Precipitación	0
94888	7	Sololá	704	Santa Lucía Utatlán 	7	Santa Rita 	5	Mayo	2023-05-20T00:00:00	2024-11-08T23:00:00	8	Radiación solar	0
94889	7	Sololá	704	Santa Lucía Utatlán 	7	Santa Rita 	5	Mayo	2023-05-21T00:00:00	2024-11-08T00:00:00	2	Temperatura media	18.5
94890	7	Sololá	704	Santa Lucía Utatlán 	7	Santa Rita 	5	Mayo	2023-05-21T00:00:00	2024-11-08T00:00:00	4	Temperatura máxima	19.9
94891	7	Sololá	704	Santa Lucía Utatlán 	7	Santa Rita 	5	Mayo	2023-05-21T00:00:00	2024-11-08T00:00:00	3	Temperatura mínima	18.5
94892	7	Sololá	704	Santa Lucía Utatlán 	7	Santa Rita 	5	Mayo	2023-05-21T00:00:00	2024-11-08T00:00:00	5	Humedad	78
94893	7	Sololá	704	Santa Lucía Utatlán 	7	Santa Rita 	5	Mayo	2023-05-21T00:00:00	2024-11-08T00:00:00	6	Velocidad del viento	4.8
94894	7	Sololá	704	Santa Lucía Utatlán 	7	Santa Rita 	5	Mayo	2023-05-21T00:00:00	2024-11-08T00:00:00	7	Dirección del viento	4.83
94895	7	Sololá	704	Santa Lucía Utatlán 	7	Santa Rita 	5	Mayo	2023-05-21T00:00:00	2024-11-08T00:00:00	1	Precipitación	0
94896	7	Sololá	704	Santa Lucía Utatlán 	7	Santa Rita 	5	Mayo	2023-05-21T00:00:00	2024-11-08T00:00:00	8	Radiación solar	0
94897	7	Sololá	704	Santa Lucía Utatlán 	7	Santa Rita 	5	Mayo	2023-05-21T00:00:00	2024-11-08T01:00:00	2	Temperatura media	17.6
94898	7	Sololá	704	Santa Lucía Utatlán 	7	Santa Rita 	5	Mayo	2023-05-21T00:00:00	2024-11-08T01:00:00	4	Temperatura máxima	18.5
94899	7	Sololá	704	Santa Lucía Utatlán 	7	Santa Rita 	5	Mayo	2023-05-21T00:00:00	2024-11-08T01:00:00	3	Temperatura mínima	17.4
94900	7	Sololá	704	Santa Lucía Utatlán 	7	Santa Rita 	5	Mayo	2023-05-21T00:00:00	2024-11-08T01:00:00	5	Humedad	82
94901	7	Sololá	704	Santa Lucía Utatlán 	7	Santa Rita 	5	Mayo	2023-05-21T00:00:00	2024-11-08T01:00:00	6	Velocidad del viento	1.6
94902	7	Sololá	704	Santa Lucía Utatlán 	7	Santa Rita 	5	Mayo	2023-05-21T00:00:00	2024-11-08T01:00:00	7	Dirección del viento	1.61
94903	7	Sololá	704	Santa Lucía Utatlán 	7	Santa Rita 	5	Mayo	2023-05-21T00:00:00	2024-11-08T01:00:00	1	Precipitación	0
94904	7	Sololá	704	Santa Lucía Utatlán 	7	Santa Rita 	5	Mayo	2023-05-21T00:00:00	2024-11-08T01:00:00	8	Radiación solar	0
94905	7	Sololá	704	Santa Lucía Utatlán 	7	Santa Rita 	5	Mayo	2023-05-21T00:00:00	2024-11-08T02:00:00	2	Temperatura media	16.9
94906	7	Sololá	704	Santa Lucía Utatlán 	7	Santa Rita 	5	Mayo	2023-05-21T00:00:00	2024-11-08T02:00:00	4	Temperatura máxima	17.6
94907	7	Sololá	704	Santa Lucía Utatlán 	7	Santa Rita 	5	Mayo	2023-05-21T00:00:00	2024-11-08T02:00:00	3	Temperatura mínima	16.8
94908	7	Sololá	704	Santa Lucía Utatlán 	7	Santa Rita 	5	Mayo	2023-05-21T00:00:00	2024-11-08T02:00:00	5	Humedad	85
94909	7	Sololá	704	Santa Lucía Utatlán 	7	Santa Rita 	5	Mayo	2023-05-21T00:00:00	2024-11-08T02:00:00	6	Velocidad del viento	1.6
94910	7	Sololá	704	Santa Lucía Utatlán 	7	Santa Rita 	5	Mayo	2023-05-21T00:00:00	2024-11-08T02:00:00	7	Dirección del viento	1.61
94911	7	Sololá	704	Santa Lucía Utatlán 	7	Santa Rita 	5	Mayo	2023-05-21T00:00:00	2024-11-08T02:00:00	1	Precipitación	0
94912	7	Sololá	704	Santa Lucía Utatlán 	7	Santa Rita 	5	Mayo	2023-05-21T00:00:00	2024-11-08T02:00:00	8	Radiación solar	0
94913	7	Sololá	704	Santa Lucía Utatlán 	7	Santa Rita 	5	Mayo	2023-05-21T00:00:00	2024-11-08T03:00:00	2	Temperatura media	16.8
94914	7	Sololá	704	Santa Lucía Utatlán 	7	Santa Rita 	5	Mayo	2023-05-21T00:00:00	2024-11-08T03:00:00	4	Temperatura máxima	17
94915	7	Sololá	704	Santa Lucía Utatlán 	7	Santa Rita 	5	Mayo	2023-05-21T00:00:00	2024-11-08T03:00:00	3	Temperatura mínima	16.7
94916	7	Sololá	704	Santa Lucía Utatlán 	7	Santa Rita 	5	Mayo	2023-05-21T00:00:00	2024-11-08T03:00:00	5	Humedad	85
94917	7	Sololá	704	Santa Lucía Utatlán 	7	Santa Rita 	5	Mayo	2023-05-21T00:00:00	2024-11-08T03:00:00	6	Velocidad del viento	1.6
94918	7	Sololá	704	Santa Lucía Utatlán 	7	Santa Rita 	5	Mayo	2023-05-21T00:00:00	2024-11-08T03:00:00	7	Dirección del viento	1.61
94919	7	Sololá	704	Santa Lucía Utatlán 	7	Santa Rita 	5	Mayo	2023-05-21T00:00:00	2024-11-08T03:00:00	1	Precipitación	0
94920	7	Sololá	704	Santa Lucía Utatlán 	7	Santa Rita 	5	Mayo	2023-05-21T00:00:00	2024-11-08T03:00:00	8	Radiación solar	0
94921	7	Sololá	704	Santa Lucía Utatlán 	7	Santa Rita 	5	Mayo	2023-05-21T00:00:00	2024-11-08T04:00:00	2	Temperatura media	19.7
94922	7	Sololá	704	Santa Lucía Utatlán 	7	Santa Rita 	5	Mayo	2023-05-21T00:00:00	2024-11-08T04:00:00	4	Temperatura máxima	19.7
94923	7	Sololá	704	Santa Lucía Utatlán 	7	Santa Rita 	5	Mayo	2023-05-21T00:00:00	2024-11-08T04:00:00	3	Temperatura mínima	16.8
94924	7	Sololá	704	Santa Lucía Utatlán 	7	Santa Rita 	5	Mayo	2023-05-21T00:00:00	2024-11-08T04:00:00	5	Humedad	74
94925	7	Sololá	704	Santa Lucía Utatlán 	7	Santa Rita 	5	Mayo	2023-05-21T00:00:00	2024-11-08T04:00:00	6	Velocidad del viento	3.2
94926	7	Sololá	704	Santa Lucía Utatlán 	7	Santa Rita 	5	Mayo	2023-05-21T00:00:00	2024-11-08T04:00:00	7	Dirección del viento	3.22
94927	7	Sololá	704	Santa Lucía Utatlán 	7	Santa Rita 	5	Mayo	2023-05-21T00:00:00	2024-11-08T04:00:00	1	Precipitación	0
94928	7	Sololá	704	Santa Lucía Utatlán 	7	Santa Rita 	5	Mayo	2023-05-21T00:00:00	2024-11-08T04:00:00	8	Radiación solar	0
94929	7	Sololá	704	Santa Lucía Utatlán 	7	Santa Rita 	5	Mayo	2023-05-21T00:00:00	2024-11-08T05:00:00	2	Temperatura media	18.7
94930	7	Sololá	704	Santa Lucía Utatlán 	7	Santa Rita 	5	Mayo	2023-05-21T00:00:00	2024-11-08T05:00:00	4	Temperatura máxima	20.1
94931	7	Sololá	704	Santa Lucía Utatlán 	7	Santa Rita 	5	Mayo	2023-05-21T00:00:00	2024-11-08T05:00:00	3	Temperatura mínima	18.7
94932	7	Sololá	704	Santa Lucía Utatlán 	7	Santa Rita 	5	Mayo	2023-05-21T00:00:00	2024-11-08T05:00:00	5	Humedad	78
94933	7	Sololá	704	Santa Lucía Utatlán 	7	Santa Rita 	5	Mayo	2023-05-21T00:00:00	2024-11-08T05:00:00	6	Velocidad del viento	3.2
94934	7	Sololá	704	Santa Lucía Utatlán 	7	Santa Rita 	5	Mayo	2023-05-21T00:00:00	2024-11-08T05:00:00	7	Dirección del viento	3.22
94935	7	Sololá	704	Santa Lucía Utatlán 	7	Santa Rita 	5	Mayo	2023-05-21T00:00:00	2024-11-08T05:00:00	1	Precipitación	0
94936	7	Sololá	704	Santa Lucía Utatlán 	7	Santa Rita 	5	Mayo	2023-05-21T00:00:00	2024-11-08T05:00:00	8	Radiación solar	0
94937	7	Sololá	704	Santa Lucía Utatlán 	7	Santa Rita 	5	Mayo	2023-05-21T00:00:00	2024-11-08T06:00:00	2	Temperatura media	17.7
94938	7	Sololá	704	Santa Lucía Utatlán 	7	Santa Rita 	5	Mayo	2023-05-21T00:00:00	2024-11-08T06:00:00	4	Temperatura máxima	18.7
94939	7	Sololá	704	Santa Lucía Utatlán 	7	Santa Rita 	5	Mayo	2023-05-21T00:00:00	2024-11-08T06:00:00	3	Temperatura mínima	17.3
94940	7	Sololá	704	Santa Lucía Utatlán 	7	Santa Rita 	5	Mayo	2023-05-21T00:00:00	2024-11-08T06:00:00	5	Humedad	83
94941	7	Sololá	704	Santa Lucía Utatlán 	7	Santa Rita 	5	Mayo	2023-05-21T00:00:00	2024-11-08T06:00:00	6	Velocidad del viento	1.6
94942	7	Sololá	704	Santa Lucía Utatlán 	7	Santa Rita 	5	Mayo	2023-05-21T00:00:00	2024-11-08T06:00:00	7	Dirección del viento	1.61
94943	7	Sololá	704	Santa Lucía Utatlán 	7	Santa Rita 	5	Mayo	2023-05-21T00:00:00	2024-11-08T06:00:00	1	Precipitación	0
94944	7	Sololá	704	Santa Lucía Utatlán 	7	Santa Rita 	5	Mayo	2023-05-21T00:00:00	2024-11-08T06:00:00	8	Radiación solar	0
94945	7	Sololá	704	Santa Lucía Utatlán 	7	Santa Rita 	5	Mayo	2023-05-21T00:00:00	2024-11-08T07:00:00	2	Temperatura media	19.4
94946	7	Sololá	704	Santa Lucía Utatlán 	7	Santa Rita 	5	Mayo	2023-05-21T00:00:00	2024-11-08T07:00:00	4	Temperatura máxima	19.4
94947	7	Sololá	704	Santa Lucía Utatlán 	7	Santa Rita 	5	Mayo	2023-05-21T00:00:00	2024-11-08T07:00:00	3	Temperatura mínima	17.7
94948	7	Sololá	704	Santa Lucía Utatlán 	7	Santa Rita 	5	Mayo	2023-05-21T00:00:00	2024-11-08T07:00:00	5	Humedad	81
94949	7	Sololá	704	Santa Lucía Utatlán 	7	Santa Rita 	5	Mayo	2023-05-21T00:00:00	2024-11-08T07:00:00	6	Velocidad del viento	1.6
94950	7	Sololá	704	Santa Lucía Utatlán 	7	Santa Rita 	5	Mayo	2023-05-21T00:00:00	2024-11-08T07:00:00	7	Dirección del viento	1.61
94951	7	Sololá	704	Santa Lucía Utatlán 	7	Santa Rita 	5	Mayo	2023-05-21T00:00:00	2024-11-08T07:00:00	1	Precipitación	0
94952	7	Sololá	704	Santa Lucía Utatlán 	7	Santa Rita 	5	Mayo	2023-05-21T00:00:00	2024-11-08T07:00:00	8	Radiación solar	1
94953	7	Sololá	704	Santa Lucía Utatlán 	7	Santa Rita 	5	Mayo	2023-05-21T00:00:00	2024-11-08T08:00:00	2	Temperatura media	19.6
94954	7	Sololá	704	Santa Lucía Utatlán 	7	Santa Rita 	5	Mayo	2023-05-21T00:00:00	2024-11-08T08:00:00	4	Temperatura máxima	20.5
94955	7	Sololá	704	Santa Lucía Utatlán 	7	Santa Rita 	5	Mayo	2023-05-21T00:00:00	2024-11-08T08:00:00	3	Temperatura mínima	19.5
94956	7	Sololá	704	Santa Lucía Utatlán 	7	Santa Rita 	5	Mayo	2023-05-21T00:00:00	2024-11-08T08:00:00	5	Humedad	80
94957	7	Sololá	704	Santa Lucía Utatlán 	7	Santa Rita 	5	Mayo	2023-05-21T00:00:00	2024-11-08T08:00:00	6	Velocidad del viento	3.2
94958	7	Sololá	704	Santa Lucía Utatlán 	7	Santa Rita 	5	Mayo	2023-05-21T00:00:00	2024-11-08T08:00:00	7	Dirección del viento	3.22
94959	7	Sololá	704	Santa Lucía Utatlán 	7	Santa Rita 	5	Mayo	2023-05-21T00:00:00	2024-11-08T08:00:00	1	Precipitación	0
94960	7	Sololá	704	Santa Lucía Utatlán 	7	Santa Rita 	5	Mayo	2023-05-21T00:00:00	2024-11-08T08:00:00	8	Radiación solar	42
94961	7	Sololá	704	Santa Lucía Utatlán 	7	Santa Rita 	5	Mayo	2023-05-21T00:00:00	2024-11-08T09:00:00	2	Temperatura media	19.5
94962	7	Sololá	704	Santa Lucía Utatlán 	7	Santa Rita 	5	Mayo	2023-05-21T00:00:00	2024-11-08T09:00:00	4	Temperatura máxima	19.7
94963	7	Sololá	704	Santa Lucía Utatlán 	7	Santa Rita 	5	Mayo	2023-05-21T00:00:00	2024-11-08T09:00:00	3	Temperatura mínima	19.2
94964	7	Sololá	704	Santa Lucía Utatlán 	7	Santa Rita 	5	Mayo	2023-05-21T00:00:00	2024-11-08T09:00:00	5	Humedad	83
94965	7	Sololá	704	Santa Lucía Utatlán 	7	Santa Rita 	5	Mayo	2023-05-21T00:00:00	2024-11-08T09:00:00	6	Velocidad del viento	1.6
94966	7	Sololá	704	Santa Lucía Utatlán 	7	Santa Rita 	5	Mayo	2023-05-21T00:00:00	2024-11-08T09:00:00	7	Dirección del viento	1.61
94967	7	Sololá	704	Santa Lucía Utatlán 	7	Santa Rita 	5	Mayo	2023-05-21T00:00:00	2024-11-08T09:00:00	1	Precipitación	0
94968	7	Sololá	704	Santa Lucía Utatlán 	7	Santa Rita 	5	Mayo	2023-05-21T00:00:00	2024-11-08T09:00:00	8	Radiación solar	116
94969	7	Sololá	704	Santa Lucía Utatlán 	7	Santa Rita 	5	Mayo	2023-05-21T00:00:00	2024-11-08T10:00:00	2	Temperatura media	21.2
94970	7	Sololá	704	Santa Lucía Utatlán 	7	Santa Rita 	5	Mayo	2023-05-21T00:00:00	2024-11-08T10:00:00	4	Temperatura máxima	21.9
94971	7	Sololá	704	Santa Lucía Utatlán 	7	Santa Rita 	5	Mayo	2023-05-21T00:00:00	2024-11-08T10:00:00	3	Temperatura mínima	19.5
94972	7	Sololá	704	Santa Lucía Utatlán 	7	Santa Rita 	5	Mayo	2023-05-21T00:00:00	2024-11-08T10:00:00	5	Humedad	77
94973	7	Sololá	704	Santa Lucía Utatlán 	7	Santa Rita 	5	Mayo	2023-05-21T00:00:00	2024-11-08T10:00:00	6	Velocidad del viento	3.2
94974	7	Sololá	704	Santa Lucía Utatlán 	7	Santa Rita 	5	Mayo	2023-05-21T00:00:00	2024-11-08T10:00:00	7	Dirección del viento	3.22
94975	7	Sololá	704	Santa Lucía Utatlán 	7	Santa Rita 	5	Mayo	2023-05-21T00:00:00	2024-11-08T10:00:00	1	Precipitación	0
94976	7	Sololá	704	Santa Lucía Utatlán 	7	Santa Rita 	5	Mayo	2023-05-21T00:00:00	2024-11-08T10:00:00	8	Radiación solar	273
94977	7	Sololá	704	Santa Lucía Utatlán 	7	Santa Rita 	5	Mayo	2023-05-21T00:00:00	2024-11-08T11:00:00	2	Temperatura media	22.2
94978	7	Sololá	704	Santa Lucía Utatlán 	7	Santa Rita 	5	Mayo	2023-05-21T00:00:00	2024-11-08T11:00:00	4	Temperatura máxima	22.2
94979	7	Sololá	704	Santa Lucía Utatlán 	7	Santa Rita 	5	Mayo	2023-05-21T00:00:00	2024-11-08T11:00:00	3	Temperatura mínima	21.2
94980	7	Sololá	704	Santa Lucía Utatlán 	7	Santa Rita 	5	Mayo	2023-05-21T00:00:00	2024-11-08T11:00:00	5	Humedad	70
94981	7	Sololá	704	Santa Lucía Utatlán 	7	Santa Rita 	5	Mayo	2023-05-21T00:00:00	2024-11-08T11:00:00	6	Velocidad del viento	3.2
94982	7	Sololá	704	Santa Lucía Utatlán 	7	Santa Rita 	5	Mayo	2023-05-21T00:00:00	2024-11-08T11:00:00	7	Dirección del viento	3.22
94983	7	Sololá	704	Santa Lucía Utatlán 	7	Santa Rita 	5	Mayo	2023-05-21T00:00:00	2024-11-08T11:00:00	1	Precipitación	0
94984	7	Sololá	704	Santa Lucía Utatlán 	7	Santa Rita 	5	Mayo	2023-05-21T00:00:00	2024-11-08T11:00:00	8	Radiación solar	319
94985	7	Sololá	704	Santa Lucía Utatlán 	7	Santa Rita 	5	Mayo	2023-05-21T00:00:00	2024-11-08T12:00:00	2	Temperatura media	22.6
94986	7	Sololá	704	Santa Lucía Utatlán 	7	Santa Rita 	5	Mayo	2023-05-21T00:00:00	2024-11-08T12:00:00	4	Temperatura máxima	22.6
94987	7	Sololá	704	Santa Lucía Utatlán 	7	Santa Rita 	5	Mayo	2023-05-21T00:00:00	2024-11-08T12:00:00	3	Temperatura mínima	22.2
94988	7	Sololá	704	Santa Lucía Utatlán 	7	Santa Rita 	5	Mayo	2023-05-21T00:00:00	2024-11-08T12:00:00	5	Humedad	70
94989	7	Sololá	704	Santa Lucía Utatlán 	7	Santa Rita 	5	Mayo	2023-05-21T00:00:00	2024-11-08T12:00:00	6	Velocidad del viento	3.2
94990	7	Sololá	704	Santa Lucía Utatlán 	7	Santa Rita 	5	Mayo	2023-05-21T00:00:00	2024-11-08T12:00:00	7	Dirección del viento	3.22
94991	7	Sololá	704	Santa Lucía Utatlán 	7	Santa Rita 	5	Mayo	2023-05-21T00:00:00	2024-11-08T12:00:00	1	Precipitación	0
94992	7	Sololá	704	Santa Lucía Utatlán 	7	Santa Rita 	5	Mayo	2023-05-21T00:00:00	2024-11-08T12:00:00	8	Radiación solar	224
94993	7	Sololá	704	Santa Lucía Utatlán 	7	Santa Rita 	5	Mayo	2023-05-21T00:00:00	2024-11-08T13:00:00	2	Temperatura media	22.9
94994	7	Sololá	704	Santa Lucía Utatlán 	7	Santa Rita 	5	Mayo	2023-05-21T00:00:00	2024-11-08T13:00:00	4	Temperatura máxima	23.1
94995	7	Sololá	704	Santa Lucía Utatlán 	7	Santa Rita 	5	Mayo	2023-05-21T00:00:00	2024-11-08T13:00:00	3	Temperatura mínima	22.6
94996	7	Sololá	704	Santa Lucía Utatlán 	7	Santa Rita 	5	Mayo	2023-05-21T00:00:00	2024-11-08T13:00:00	5	Humedad	69
94997	7	Sololá	704	Santa Lucía Utatlán 	7	Santa Rita 	5	Mayo	2023-05-21T00:00:00	2024-11-08T13:00:00	6	Velocidad del viento	1.6
94998	7	Sololá	704	Santa Lucía Utatlán 	7	Santa Rita 	5	Mayo	2023-05-21T00:00:00	2024-11-08T13:00:00	7	Dirección del viento	1.61
94999	7	Sololá	704	Santa Lucía Utatlán 	7	Santa Rita 	5	Mayo	2023-05-21T00:00:00	2024-11-08T13:00:00	1	Precipitación	0
95000	7	Sololá	704	Santa Lucía Utatlán 	7	Santa Rita 	5	Mayo	2023-05-21T00:00:00	2024-11-08T13:00:00	8	Radiación solar	195
95001	7	Sololá	704	Santa Lucía Utatlán 	7	Santa Rita 	5	Mayo	2023-05-21T00:00:00	2024-11-08T14:00:00	2	Temperatura media	21.9
95002	7	Sololá	704	Santa Lucía Utatlán 	7	Santa Rita 	5	Mayo	2023-05-21T00:00:00	2024-11-08T14:00:00	4	Temperatura máxima	22.9
95003	7	Sololá	704	Santa Lucía Utatlán 	7	Santa Rita 	5	Mayo	2023-05-21T00:00:00	2024-11-08T14:00:00	3	Temperatura mínima	21.8
95004	7	Sololá	704	Santa Lucía Utatlán 	7	Santa Rita 	5	Mayo	2023-05-21T00:00:00	2024-11-08T14:00:00	5	Humedad	76
95005	7	Sololá	704	Santa Lucía Utatlán 	7	Santa Rita 	5	Mayo	2023-05-21T00:00:00	2024-11-08T14:00:00	6	Velocidad del viento	3.2
95006	7	Sololá	704	Santa Lucía Utatlán 	7	Santa Rita 	5	Mayo	2023-05-21T00:00:00	2024-11-08T14:00:00	7	Dirección del viento	3.22
95007	7	Sololá	704	Santa Lucía Utatlán 	7	Santa Rita 	5	Mayo	2023-05-21T00:00:00	2024-11-08T14:00:00	1	Precipitación	0
95008	7	Sololá	704	Santa Lucía Utatlán 	7	Santa Rita 	5	Mayo	2023-05-21T00:00:00	2024-11-08T14:00:00	8	Radiación solar	112
95009	7	Sololá	704	Santa Lucía Utatlán 	7	Santa Rita 	5	Mayo	2023-05-21T00:00:00	2024-11-08T15:00:00	2	Temperatura media	22.2
95010	7	Sololá	704	Santa Lucía Utatlán 	7	Santa Rita 	5	Mayo	2023-05-21T00:00:00	2024-11-08T15:00:00	4	Temperatura máxima	22.3
95011	7	Sololá	704	Santa Lucía Utatlán 	7	Santa Rita 	5	Mayo	2023-05-21T00:00:00	2024-11-08T15:00:00	3	Temperatura mínima	21.8
95012	7	Sololá	704	Santa Lucía Utatlán 	7	Santa Rita 	5	Mayo	2023-05-21T00:00:00	2024-11-08T15:00:00	5	Humedad	77
95013	7	Sololá	704	Santa Lucía Utatlán 	7	Santa Rita 	5	Mayo	2023-05-21T00:00:00	2024-11-08T15:00:00	6	Velocidad del viento	1.6
95014	7	Sololá	704	Santa Lucía Utatlán 	7	Santa Rita 	5	Mayo	2023-05-21T00:00:00	2024-11-08T15:00:00	7	Dirección del viento	1.61
95015	7	Sololá	704	Santa Lucía Utatlán 	7	Santa Rita 	5	Mayo	2023-05-21T00:00:00	2024-11-08T15:00:00	1	Precipitación	0
95016	7	Sololá	704	Santa Lucía Utatlán 	7	Santa Rita 	5	Mayo	2023-05-21T00:00:00	2024-11-08T15:00:00	8	Radiación solar	177
95017	7	Sololá	704	Santa Lucía Utatlán 	7	Santa Rita 	5	Mayo	2023-05-21T00:00:00	2024-11-08T16:00:00	2	Temperatura media	22.9
95018	7	Sololá	704	Santa Lucía Utatlán 	7	Santa Rita 	5	Mayo	2023-05-21T00:00:00	2024-11-08T16:00:00	4	Temperatura máxima	22.9
95019	7	Sololá	704	Santa Lucía Utatlán 	7	Santa Rita 	5	Mayo	2023-05-21T00:00:00	2024-11-08T16:00:00	3	Temperatura mínima	22.2
95020	7	Sololá	704	Santa Lucía Utatlán 	7	Santa Rita 	5	Mayo	2023-05-21T00:00:00	2024-11-08T16:00:00	5	Humedad	76
95021	7	Sololá	704	Santa Lucía Utatlán 	7	Santa Rita 	5	Mayo	2023-05-21T00:00:00	2024-11-08T16:00:00	6	Velocidad del viento	3.2
95022	7	Sololá	704	Santa Lucía Utatlán 	7	Santa Rita 	5	Mayo	2023-05-21T00:00:00	2024-11-08T16:00:00	7	Dirección del viento	3.22
95023	7	Sololá	704	Santa Lucía Utatlán 	7	Santa Rita 	5	Mayo	2023-05-21T00:00:00	2024-11-08T16:00:00	1	Precipitación	0
95024	7	Sololá	704	Santa Lucía Utatlán 	7	Santa Rita 	5	Mayo	2023-05-21T00:00:00	2024-11-08T16:00:00	8	Radiación solar	222
95025	7	Sololá	704	Santa Lucía Utatlán 	7	Santa Rita 	5	Mayo	2023-05-21T00:00:00	2024-11-08T17:00:00	2	Temperatura media	23
95026	7	Sololá	704	Santa Lucía Utatlán 	7	Santa Rita 	5	Mayo	2023-05-21T00:00:00	2024-11-08T17:00:00	4	Temperatura máxima	23.8
95027	7	Sololá	704	Santa Lucía Utatlán 	7	Santa Rita 	5	Mayo	2023-05-21T00:00:00	2024-11-08T17:00:00	3	Temperatura mínima	22.9
95028	7	Sololá	704	Santa Lucía Utatlán 	7	Santa Rita 	5	Mayo	2023-05-21T00:00:00	2024-11-08T17:00:00	5	Humedad	74
95029	7	Sololá	704	Santa Lucía Utatlán 	7	Santa Rita 	5	Mayo	2023-05-21T00:00:00	2024-11-08T17:00:00	6	Velocidad del viento	6.4
95030	7	Sololá	704	Santa Lucía Utatlán 	7	Santa Rita 	5	Mayo	2023-05-21T00:00:00	2024-11-08T17:00:00	7	Dirección del viento	6.44
95031	7	Sololá	704	Santa Lucía Utatlán 	7	Santa Rita 	5	Mayo	2023-05-21T00:00:00	2024-11-08T17:00:00	1	Precipitación	0
95032	7	Sololá	704	Santa Lucía Utatlán 	7	Santa Rita 	5	Mayo	2023-05-21T00:00:00	2024-11-08T17:00:00	8	Radiación solar	184
95033	7	Sololá	704	Santa Lucía Utatlán 	7	Santa Rita 	5	Mayo	2023-05-21T00:00:00	2024-11-08T18:00:00	2	Temperatura media	22.1
95034	7	Sololá	704	Santa Lucía Utatlán 	7	Santa Rita 	5	Mayo	2023-05-21T00:00:00	2024-11-08T18:00:00	4	Temperatura máxima	23.1
95035	7	Sololá	704	Santa Lucía Utatlán 	7	Santa Rita 	5	Mayo	2023-05-21T00:00:00	2024-11-08T18:00:00	3	Temperatura mínima	22.1
95036	7	Sololá	704	Santa Lucía Utatlán 	7	Santa Rita 	5	Mayo	2023-05-21T00:00:00	2024-11-08T18:00:00	5	Humedad	79
95037	7	Sololá	704	Santa Lucía Utatlán 	7	Santa Rita 	5	Mayo	2023-05-21T00:00:00	2024-11-08T18:00:00	6	Velocidad del viento	8
95038	7	Sololá	704	Santa Lucía Utatlán 	7	Santa Rita 	5	Mayo	2023-05-21T00:00:00	2024-11-08T18:00:00	7	Dirección del viento	8.05
95039	7	Sololá	704	Santa Lucía Utatlán 	7	Santa Rita 	5	Mayo	2023-05-21T00:00:00	2024-11-08T18:00:00	1	Precipitación	0
95040	7	Sololá	704	Santa Lucía Utatlán 	7	Santa Rita 	5	Mayo	2023-05-21T00:00:00	2024-11-08T18:00:00	8	Radiación solar	122
95041	7	Sololá	704	Santa Lucía Utatlán 	7	Santa Rita 	5	Mayo	2023-05-21T00:00:00	2024-11-08T19:00:00	2	Temperatura media	21.3
95042	7	Sololá	704	Santa Lucía Utatlán 	7	Santa Rita 	5	Mayo	2023-05-21T00:00:00	2024-11-08T19:00:00	4	Temperatura máxima	22.1
95043	7	Sololá	704	Santa Lucía Utatlán 	7	Santa Rita 	5	Mayo	2023-05-21T00:00:00	2024-11-08T19:00:00	3	Temperatura mínima	21.3
95044	7	Sololá	704	Santa Lucía Utatlán 	7	Santa Rita 	5	Mayo	2023-05-21T00:00:00	2024-11-08T19:00:00	5	Humedad	84
95045	7	Sololá	704	Santa Lucía Utatlán 	7	Santa Rita 	5	Mayo	2023-05-21T00:00:00	2024-11-08T19:00:00	6	Velocidad del viento	4.8
95046	7	Sololá	704	Santa Lucía Utatlán 	7	Santa Rita 	5	Mayo	2023-05-21T00:00:00	2024-11-08T19:00:00	7	Dirección del viento	4.83
95047	7	Sololá	704	Santa Lucía Utatlán 	7	Santa Rita 	5	Mayo	2023-05-21T00:00:00	2024-11-08T19:00:00	1	Precipitación	0
95048	7	Sololá	704	Santa Lucía Utatlán 	7	Santa Rita 	5	Mayo	2023-05-21T00:00:00	2024-11-08T19:00:00	8	Radiación solar	0
95049	7	Sololá	704	Santa Lucía Utatlán 	7	Santa Rita 	5	Mayo	2023-05-21T00:00:00	2024-11-08T20:00:00	2	Temperatura media	20.9
95050	7	Sololá	704	Santa Lucía Utatlán 	7	Santa Rita 	5	Mayo	2023-05-21T00:00:00	2024-11-08T20:00:00	4	Temperatura máxima	21.3
95051	7	Sololá	704	Santa Lucía Utatlán 	7	Santa Rita 	5	Mayo	2023-05-21T00:00:00	2024-11-08T20:00:00	3	Temperatura mínima	20.9
95052	7	Sololá	704	Santa Lucía Utatlán 	7	Santa Rita 	5	Mayo	2023-05-21T00:00:00	2024-11-08T20:00:00	5	Humedad	84
95053	7	Sololá	704	Santa Lucía Utatlán 	7	Santa Rita 	5	Mayo	2023-05-21T00:00:00	2024-11-08T20:00:00	6	Velocidad del viento	1.6
95054	7	Sololá	704	Santa Lucía Utatlán 	7	Santa Rita 	5	Mayo	2023-05-21T00:00:00	2024-11-08T20:00:00	7	Dirección del viento	1.61
95055	7	Sololá	704	Santa Lucía Utatlán 	7	Santa Rita 	5	Mayo	2023-05-21T00:00:00	2024-11-08T20:00:00	1	Precipitación	0
95056	7	Sololá	704	Santa Lucía Utatlán 	7	Santa Rita 	5	Mayo	2023-05-21T00:00:00	2024-11-08T20:00:00	8	Radiación solar	0
95057	7	Sololá	704	Santa Lucía Utatlán 	7	Santa Rita 	5	Mayo	2023-05-21T00:00:00	2024-11-08T21:00:00	2	Temperatura media	20.9
95058	7	Sololá	704	Santa Lucía Utatlán 	7	Santa Rita 	5	Mayo	2023-05-21T00:00:00	2024-11-08T21:00:00	4	Temperatura máxima	21
95059	7	Sololá	704	Santa Lucía Utatlán 	7	Santa Rita 	5	Mayo	2023-05-21T00:00:00	2024-11-08T21:00:00	3	Temperatura mínima	20.8
95060	7	Sololá	704	Santa Lucía Utatlán 	7	Santa Rita 	5	Mayo	2023-05-21T00:00:00	2024-11-08T21:00:00	5	Humedad	84
95061	7	Sololá	704	Santa Lucía Utatlán 	7	Santa Rita 	5	Mayo	2023-05-21T00:00:00	2024-11-08T21:00:00	6	Velocidad del viento	1.6
95062	7	Sololá	704	Santa Lucía Utatlán 	7	Santa Rita 	5	Mayo	2023-05-21T00:00:00	2024-11-08T21:00:00	7	Dirección del viento	1.61
95063	7	Sololá	704	Santa Lucía Utatlán 	7	Santa Rita 	5	Mayo	2023-05-21T00:00:00	2024-11-08T21:00:00	1	Precipitación	0
95064	7	Sololá	704	Santa Lucía Utatlán 	7	Santa Rita 	5	Mayo	2023-05-21T00:00:00	2024-11-08T21:00:00	8	Radiación solar	0
95065	7	Sololá	704	Santa Lucía Utatlán 	7	Santa Rita 	5	Mayo	2023-05-21T00:00:00	2024-11-08T22:00:00	2	Temperatura media	19.9
95066	7	Sololá	704	Santa Lucía Utatlán 	7	Santa Rita 	5	Mayo	2023-05-21T00:00:00	2024-11-08T22:00:00	4	Temperatura máxima	20.9
95067	7	Sololá	704	Santa Lucía Utatlán 	7	Santa Rita 	5	Mayo	2023-05-21T00:00:00	2024-11-08T22:00:00	3	Temperatura mínima	19.9
95068	7	Sololá	704	Santa Lucía Utatlán 	7	Santa Rita 	5	Mayo	2023-05-21T00:00:00	2024-11-08T22:00:00	5	Humedad	88
95069	7	Sololá	704	Santa Lucía Utatlán 	7	Santa Rita 	5	Mayo	2023-05-21T00:00:00	2024-11-08T22:00:00	6	Velocidad del viento	1.6
95070	7	Sololá	704	Santa Lucía Utatlán 	7	Santa Rita 	5	Mayo	2023-05-21T00:00:00	2024-11-08T22:00:00	7	Dirección del viento	1.61
95071	7	Sololá	704	Santa Lucía Utatlán 	7	Santa Rita 	5	Mayo	2023-05-21T00:00:00	2024-11-08T22:00:00	1	Precipitación	0
95072	7	Sololá	704	Santa Lucía Utatlán 	7	Santa Rita 	5	Mayo	2023-05-21T00:00:00	2024-11-08T22:00:00	8	Radiación solar	0
95073	7	Sololá	704	Santa Lucía Utatlán 	7	Santa Rita 	5	Mayo	2023-05-21T00:00:00	2024-11-08T23:00:00	2	Temperatura media	19.2
95074	7	Sololá	704	Santa Lucía Utatlán 	7	Santa Rita 	5	Mayo	2023-05-21T00:00:00	2024-11-08T23:00:00	4	Temperatura máxima	20
95075	7	Sololá	704	Santa Lucía Utatlán 	7	Santa Rita 	5	Mayo	2023-05-21T00:00:00	2024-11-08T23:00:00	3	Temperatura mínima	19.2
95076	7	Sololá	704	Santa Lucía Utatlán 	7	Santa Rita 	5	Mayo	2023-05-21T00:00:00	2024-11-08T23:00:00	5	Humedad	88
95077	7	Sololá	704	Santa Lucía Utatlán 	7	Santa Rita 	5	Mayo	2023-05-21T00:00:00	2024-11-08T23:00:00	6	Velocidad del viento	1.6
95078	7	Sololá	704	Santa Lucía Utatlán 	7	Santa Rita 	5	Mayo	2023-05-21T00:00:00	2024-11-08T23:00:00	7	Dirección del viento	1.61
95079	7	Sololá	704	Santa Lucía Utatlán 	7	Santa Rita 	5	Mayo	2023-05-21T00:00:00	2024-11-08T23:00:00	1	Precipitación	0
95080	7	Sololá	704	Santa Lucía Utatlán 	7	Santa Rita 	5	Mayo	2023-05-21T00:00:00	2024-11-08T23:00:00	8	Radiación solar	0
95081	7	Sololá	704	Santa Lucía Utatlán 	7	Santa Rita 	5	Mayo	2023-05-22T00:00:00	2024-11-08T00:00:00	2	Temperatura media	18.6
95082	7	Sololá	704	Santa Lucía Utatlán 	7	Santa Rita 	5	Mayo	2023-05-22T00:00:00	2024-11-08T00:00:00	4	Temperatura máxima	19.2
95083	7	Sololá	704	Santa Lucía Utatlán 	7	Santa Rita 	5	Mayo	2023-05-22T00:00:00	2024-11-08T00:00:00	3	Temperatura mínima	18.6
95084	7	Sololá	704	Santa Lucía Utatlán 	7	Santa Rita 	5	Mayo	2023-05-22T00:00:00	2024-11-08T00:00:00	5	Humedad	90
95085	7	Sololá	704	Santa Lucía Utatlán 	7	Santa Rita 	5	Mayo	2023-05-22T00:00:00	2024-11-08T00:00:00	6	Velocidad del viento	1.6
95086	7	Sololá	704	Santa Lucía Utatlán 	7	Santa Rita 	5	Mayo	2023-05-22T00:00:00	2024-11-08T00:00:00	7	Dirección del viento	1.61
95087	7	Sololá	704	Santa Lucía Utatlán 	7	Santa Rita 	5	Mayo	2023-05-22T00:00:00	2024-11-08T00:00:00	1	Precipitación	0
95088	7	Sololá	704	Santa Lucía Utatlán 	7	Santa Rita 	5	Mayo	2023-05-22T00:00:00	2024-11-08T00:00:00	8	Radiación solar	0
95089	7	Sololá	704	Santa Lucía Utatlán 	7	Santa Rita 	5	Mayo	2023-05-22T00:00:00	2024-11-08T01:00:00	2	Temperatura media	17.8
95090	7	Sololá	704	Santa Lucía Utatlán 	7	Santa Rita 	5	Mayo	2023-05-22T00:00:00	2024-11-08T01:00:00	4	Temperatura máxima	18.6
95091	7	Sololá	704	Santa Lucía Utatlán 	7	Santa Rita 	5	Mayo	2023-05-22T00:00:00	2024-11-08T01:00:00	3	Temperatura mínima	17.8
95092	7	Sololá	704	Santa Lucía Utatlán 	7	Santa Rita 	5	Mayo	2023-05-22T00:00:00	2024-11-08T01:00:00	5	Humedad	92
95093	7	Sololá	704	Santa Lucía Utatlán 	7	Santa Rita 	5	Mayo	2023-05-22T00:00:00	2024-11-08T01:00:00	6	Velocidad del viento	0
95094	7	Sololá	704	Santa Lucía Utatlán 	7	Santa Rita 	5	Mayo	2023-05-22T00:00:00	2024-11-08T01:00:00	7	Dirección del viento	0
95095	7	Sololá	704	Santa Lucía Utatlán 	7	Santa Rita 	5	Mayo	2023-05-22T00:00:00	2024-11-08T01:00:00	1	Precipitación	0
95096	7	Sololá	704	Santa Lucía Utatlán 	7	Santa Rita 	5	Mayo	2023-05-22T00:00:00	2024-11-08T01:00:00	8	Radiación solar	0
95097	7	Sololá	704	Santa Lucía Utatlán 	7	Santa Rita 	5	Mayo	2023-05-22T00:00:00	2024-11-08T02:00:00	2	Temperatura media	17.1
95098	7	Sololá	704	Santa Lucía Utatlán 	7	Santa Rita 	5	Mayo	2023-05-22T00:00:00	2024-11-08T02:00:00	4	Temperatura máxima	17.8
95099	7	Sololá	704	Santa Lucía Utatlán 	7	Santa Rita 	5	Mayo	2023-05-22T00:00:00	2024-11-08T02:00:00	3	Temperatura mínima	17.1
95100	7	Sololá	704	Santa Lucía Utatlán 	7	Santa Rita 	5	Mayo	2023-05-22T00:00:00	2024-11-08T02:00:00	5	Humedad	91
95101	7	Sololá	704	Santa Lucía Utatlán 	7	Santa Rita 	5	Mayo	2023-05-22T00:00:00	2024-11-08T02:00:00	6	Velocidad del viento	1.6
95102	7	Sololá	704	Santa Lucía Utatlán 	7	Santa Rita 	5	Mayo	2023-05-22T00:00:00	2024-11-08T02:00:00	7	Dirección del viento	1.61
95103	7	Sololá	704	Santa Lucía Utatlán 	7	Santa Rita 	5	Mayo	2023-05-22T00:00:00	2024-11-08T02:00:00	1	Precipitación	0
95104	7	Sololá	704	Santa Lucía Utatlán 	7	Santa Rita 	5	Mayo	2023-05-22T00:00:00	2024-11-08T02:00:00	8	Radiación solar	0
95105	7	Sololá	704	Santa Lucía Utatlán 	7	Santa Rita 	5	Mayo	2023-05-22T00:00:00	2024-11-08T03:00:00	2	Temperatura media	17.3
95106	7	Sololá	704	Santa Lucía Utatlán 	7	Santa Rita 	5	Mayo	2023-05-22T00:00:00	2024-11-08T03:00:00	4	Temperatura máxima	17.6
95107	7	Sololá	704	Santa Lucía Utatlán 	7	Santa Rita 	5	Mayo	2023-05-22T00:00:00	2024-11-08T03:00:00	3	Temperatura mínima	17.1
95108	7	Sololá	704	Santa Lucía Utatlán 	7	Santa Rita 	5	Mayo	2023-05-22T00:00:00	2024-11-08T03:00:00	5	Humedad	90
95109	7	Sololá	704	Santa Lucía Utatlán 	7	Santa Rita 	5	Mayo	2023-05-22T00:00:00	2024-11-08T03:00:00	6	Velocidad del viento	1.6
95110	7	Sololá	704	Santa Lucía Utatlán 	7	Santa Rita 	5	Mayo	2023-05-22T00:00:00	2024-11-08T03:00:00	7	Dirección del viento	1.61
95111	7	Sololá	704	Santa Lucía Utatlán 	7	Santa Rita 	5	Mayo	2023-05-22T00:00:00	2024-11-08T03:00:00	1	Precipitación	0
95112	7	Sololá	704	Santa Lucía Utatlán 	7	Santa Rita 	5	Mayo	2023-05-22T00:00:00	2024-11-08T03:00:00	8	Radiación solar	0
95113	7	Sololá	704	Santa Lucía Utatlán 	7	Santa Rita 	5	Mayo	2023-05-22T00:00:00	2024-11-08T04:00:00	2	Temperatura media	17.6
95114	7	Sololá	704	Santa Lucía Utatlán 	7	Santa Rita 	5	Mayo	2023-05-22T00:00:00	2024-11-08T04:00:00	4	Temperatura máxima	17.6
95115	7	Sololá	704	Santa Lucía Utatlán 	7	Santa Rita 	5	Mayo	2023-05-22T00:00:00	2024-11-08T04:00:00	3	Temperatura mínima	17.3
95116	7	Sololá	704	Santa Lucía Utatlán 	7	Santa Rita 	5	Mayo	2023-05-22T00:00:00	2024-11-08T04:00:00	5	Humedad	88
95117	7	Sololá	704	Santa Lucía Utatlán 	7	Santa Rita 	5	Mayo	2023-05-22T00:00:00	2024-11-08T04:00:00	6	Velocidad del viento	1.6
95118	7	Sololá	704	Santa Lucía Utatlán 	7	Santa Rita 	5	Mayo	2023-05-22T00:00:00	2024-11-08T04:00:00	7	Dirección del viento	1.61
95119	7	Sololá	704	Santa Lucía Utatlán 	7	Santa Rita 	5	Mayo	2023-05-22T00:00:00	2024-11-08T04:00:00	1	Precipitación	0
95120	7	Sololá	704	Santa Lucía Utatlán 	7	Santa Rita 	5	Mayo	2023-05-22T00:00:00	2024-11-08T04:00:00	8	Radiación solar	0
95121	7	Sololá	704	Santa Lucía Utatlán 	7	Santa Rita 	5	Mayo	2023-05-22T00:00:00	2024-11-08T05:00:00	2	Temperatura media	17.9
95122	7	Sololá	704	Santa Lucía Utatlán 	7	Santa Rita 	5	Mayo	2023-05-22T00:00:00	2024-11-08T05:00:00	4	Temperatura máxima	17.9
95123	7	Sololá	704	Santa Lucía Utatlán 	7	Santa Rita 	5	Mayo	2023-05-22T00:00:00	2024-11-08T05:00:00	3	Temperatura mínima	17.3
95124	7	Sololá	704	Santa Lucía Utatlán 	7	Santa Rita 	5	Mayo	2023-05-22T00:00:00	2024-11-08T05:00:00	5	Humedad	90
95125	7	Sololá	704	Santa Lucía Utatlán 	7	Santa Rita 	5	Mayo	2023-05-22T00:00:00	2024-11-08T05:00:00	6	Velocidad del viento	0
95126	7	Sololá	704	Santa Lucía Utatlán 	7	Santa Rita 	5	Mayo	2023-05-22T00:00:00	2024-11-08T05:00:00	7	Dirección del viento	0
95127	7	Sololá	704	Santa Lucía Utatlán 	7	Santa Rita 	5	Mayo	2023-05-22T00:00:00	2024-11-08T05:00:00	1	Precipitación	0
95128	7	Sololá	704	Santa Lucía Utatlán 	7	Santa Rita 	5	Mayo	2023-05-22T00:00:00	2024-11-08T05:00:00	8	Radiación solar	0
95129	7	Sololá	704	Santa Lucía Utatlán 	7	Santa Rita 	5	Mayo	2023-05-22T00:00:00	2024-11-08T06:00:00	2	Temperatura media	18.2
95130	7	Sololá	704	Santa Lucía Utatlán 	7	Santa Rita 	5	Mayo	2023-05-22T00:00:00	2024-11-08T06:00:00	4	Temperatura máxima	18.3
95131	7	Sololá	704	Santa Lucía Utatlán 	7	Santa Rita 	5	Mayo	2023-05-22T00:00:00	2024-11-08T06:00:00	3	Temperatura mínima	17.9
95132	7	Sololá	704	Santa Lucía Utatlán 	7	Santa Rita 	5	Mayo	2023-05-22T00:00:00	2024-11-08T06:00:00	5	Humedad	89
95133	7	Sololá	704	Santa Lucía Utatlán 	7	Santa Rita 	5	Mayo	2023-05-22T00:00:00	2024-11-08T06:00:00	6	Velocidad del viento	0
95134	7	Sololá	704	Santa Lucía Utatlán 	7	Santa Rita 	5	Mayo	2023-05-22T00:00:00	2024-11-08T06:00:00	7	Dirección del viento	0
95135	7	Sololá	704	Santa Lucía Utatlán 	7	Santa Rita 	5	Mayo	2023-05-22T00:00:00	2024-11-08T06:00:00	1	Precipitación	0
95136	7	Sololá	704	Santa Lucía Utatlán 	7	Santa Rita 	5	Mayo	2023-05-22T00:00:00	2024-11-08T06:00:00	8	Radiación solar	0
95137	7	Sololá	704	Santa Lucía Utatlán 	7	Santa Rita 	5	Mayo	2023-05-22T00:00:00	2024-11-08T07:00:00	2	Temperatura media	18.2
95138	7	Sololá	704	Santa Lucía Utatlán 	7	Santa Rita 	5	Mayo	2023-05-22T00:00:00	2024-11-08T07:00:00	4	Temperatura máxima	18.3
95139	7	Sololá	704	Santa Lucía Utatlán 	7	Santa Rita 	5	Mayo	2023-05-22T00:00:00	2024-11-08T07:00:00	3	Temperatura mínima	18.2
95140	7	Sololá	704	Santa Lucía Utatlán 	7	Santa Rita 	5	Mayo	2023-05-22T00:00:00	2024-11-08T07:00:00	5	Humedad	90
95141	7	Sololá	704	Santa Lucía Utatlán 	7	Santa Rita 	5	Mayo	2023-05-22T00:00:00	2024-11-08T07:00:00	6	Velocidad del viento	0
95142	7	Sololá	704	Santa Lucía Utatlán 	7	Santa Rita 	5	Mayo	2023-05-22T00:00:00	2024-11-08T07:00:00	7	Dirección del viento	0
95143	7	Sololá	704	Santa Lucía Utatlán 	7	Santa Rita 	5	Mayo	2023-05-22T00:00:00	2024-11-08T07:00:00	1	Precipitación	0
95144	7	Sololá	704	Santa Lucía Utatlán 	7	Santa Rita 	5	Mayo	2023-05-22T00:00:00	2024-11-08T07:00:00	8	Radiación solar	5
95145	7	Sololá	704	Santa Lucía Utatlán 	7	Santa Rita 	5	Mayo	2023-05-22T00:00:00	2024-11-08T08:00:00	2	Temperatura media	18.8
95146	7	Sololá	704	Santa Lucía Utatlán 	7	Santa Rita 	5	Mayo	2023-05-22T00:00:00	2024-11-08T08:00:00	4	Temperatura máxima	18.8
95147	7	Sololá	704	Santa Lucía Utatlán 	7	Santa Rita 	5	Mayo	2023-05-22T00:00:00	2024-11-08T08:00:00	3	Temperatura mínima	18.2
95148	7	Sololá	704	Santa Lucía Utatlán 	7	Santa Rita 	5	Mayo	2023-05-22T00:00:00	2024-11-08T08:00:00	5	Humedad	91
95149	7	Sololá	704	Santa Lucía Utatlán 	7	Santa Rita 	5	Mayo	2023-05-22T00:00:00	2024-11-08T08:00:00	6	Velocidad del viento	0
95150	7	Sololá	704	Santa Lucía Utatlán 	7	Santa Rita 	5	Mayo	2023-05-22T00:00:00	2024-11-08T08:00:00	7	Dirección del viento	0
95151	7	Sololá	704	Santa Lucía Utatlán 	7	Santa Rita 	5	Mayo	2023-05-22T00:00:00	2024-11-08T08:00:00	1	Precipitación	0
95152	7	Sololá	704	Santa Lucía Utatlán 	7	Santa Rita 	5	Mayo	2023-05-22T00:00:00	2024-11-08T08:00:00	8	Radiación solar	44
95153	7	Sololá	704	Santa Lucía Utatlán 	7	Santa Rita 	5	Mayo	2023-05-22T00:00:00	2024-11-08T09:00:00	2	Temperatura media	20.7
95154	7	Sololá	704	Santa Lucía Utatlán 	7	Santa Rita 	5	Mayo	2023-05-22T00:00:00	2024-11-08T09:00:00	4	Temperatura máxima	20.7
95155	7	Sololá	704	Santa Lucía Utatlán 	7	Santa Rita 	5	Mayo	2023-05-22T00:00:00	2024-11-08T09:00:00	3	Temperatura mínima	18.8
95156	7	Sololá	704	Santa Lucía Utatlán 	7	Santa Rita 	5	Mayo	2023-05-22T00:00:00	2024-11-08T09:00:00	5	Humedad	82
95157	7	Sololá	704	Santa Lucía Utatlán 	7	Santa Rita 	5	Mayo	2023-05-22T00:00:00	2024-11-08T09:00:00	6	Velocidad del viento	0
95158	7	Sololá	704	Santa Lucía Utatlán 	7	Santa Rita 	5	Mayo	2023-05-22T00:00:00	2024-11-08T09:00:00	7	Dirección del viento	0
95159	7	Sololá	704	Santa Lucía Utatlán 	7	Santa Rita 	5	Mayo	2023-05-22T00:00:00	2024-11-08T09:00:00	1	Precipitación	0
95160	7	Sololá	704	Santa Lucía Utatlán 	7	Santa Rita 	5	Mayo	2023-05-22T00:00:00	2024-11-08T09:00:00	8	Radiación solar	175
95161	7	Sololá	704	Santa Lucía Utatlán 	7	Santa Rita 	5	Mayo	2023-05-22T00:00:00	2024-11-08T10:00:00	2	Temperatura media	22.6
95162	7	Sololá	704	Santa Lucía Utatlán 	7	Santa Rita 	5	Mayo	2023-05-22T00:00:00	2024-11-08T10:00:00	4	Temperatura máxima	22.6
95163	7	Sololá	704	Santa Lucía Utatlán 	7	Santa Rita 	5	Mayo	2023-05-22T00:00:00	2024-11-08T10:00:00	3	Temperatura mínima	20.6
95164	7	Sololá	704	Santa Lucía Utatlán 	7	Santa Rita 	5	Mayo	2023-05-22T00:00:00	2024-11-08T10:00:00	5	Humedad	75
95165	7	Sololá	704	Santa Lucía Utatlán 	7	Santa Rita 	5	Mayo	2023-05-22T00:00:00	2024-11-08T10:00:00	6	Velocidad del viento	1.6
95166	7	Sololá	704	Santa Lucía Utatlán 	7	Santa Rita 	5	Mayo	2023-05-22T00:00:00	2024-11-08T10:00:00	7	Dirección del viento	1.61
95167	7	Sololá	704	Santa Lucía Utatlán 	7	Santa Rita 	5	Mayo	2023-05-22T00:00:00	2024-11-08T10:00:00	1	Precipitación	0
95168	7	Sololá	704	Santa Lucía Utatlán 	7	Santa Rita 	5	Mayo	2023-05-22T00:00:00	2024-11-08T10:00:00	8	Radiación solar	348
95169	7	Sololá	704	Santa Lucía Utatlán 	7	Santa Rita 	5	Mayo	2023-05-22T00:00:00	2024-11-08T11:00:00	2	Temperatura media	23.4
95170	7	Sololá	704	Santa Lucía Utatlán 	7	Santa Rita 	5	Mayo	2023-05-22T00:00:00	2024-11-08T11:00:00	4	Temperatura máxima	23.6
95171	7	Sololá	704	Santa Lucía Utatlán 	7	Santa Rita 	5	Mayo	2023-05-22T00:00:00	2024-11-08T11:00:00	3	Temperatura mínima	22.6
95172	7	Sololá	704	Santa Lucía Utatlán 	7	Santa Rita 	5	Mayo	2023-05-22T00:00:00	2024-11-08T11:00:00	5	Humedad	75
95173	7	Sololá	704	Santa Lucía Utatlán 	7	Santa Rita 	5	Mayo	2023-05-22T00:00:00	2024-11-08T11:00:00	6	Velocidad del viento	3.2
95174	7	Sololá	704	Santa Lucía Utatlán 	7	Santa Rita 	5	Mayo	2023-05-22T00:00:00	2024-11-08T11:00:00	7	Dirección del viento	3.22
95175	7	Sololá	704	Santa Lucía Utatlán 	7	Santa Rita 	5	Mayo	2023-05-22T00:00:00	2024-11-08T11:00:00	1	Precipitación	0
95176	7	Sololá	704	Santa Lucía Utatlán 	7	Santa Rita 	5	Mayo	2023-05-22T00:00:00	2024-11-08T11:00:00	8	Radiación solar	454
95177	7	Sololá	704	Santa Lucía Utatlán 	7	Santa Rita 	5	Mayo	2023-05-22T00:00:00	2024-11-08T12:00:00	2	Temperatura media	24
95178	7	Sololá	704	Santa Lucía Utatlán 	7	Santa Rita 	5	Mayo	2023-05-22T00:00:00	2024-11-08T12:00:00	4	Temperatura máxima	24.4
95179	7	Sololá	704	Santa Lucía Utatlán 	7	Santa Rita 	5	Mayo	2023-05-22T00:00:00	2024-11-08T12:00:00	3	Temperatura mínima	23.4
95180	7	Sololá	704	Santa Lucía Utatlán 	7	Santa Rita 	5	Mayo	2023-05-22T00:00:00	2024-11-08T12:00:00	5	Humedad	75
95181	7	Sololá	704	Santa Lucía Utatlán 	7	Santa Rita 	5	Mayo	2023-05-22T00:00:00	2024-11-08T12:00:00	6	Velocidad del viento	3.2
95182	7	Sololá	704	Santa Lucía Utatlán 	7	Santa Rita 	5	Mayo	2023-05-22T00:00:00	2024-11-08T12:00:00	7	Dirección del viento	3.22
95183	7	Sololá	704	Santa Lucía Utatlán 	7	Santa Rita 	5	Mayo	2023-05-22T00:00:00	2024-11-08T12:00:00	1	Precipitación	0
95184	7	Sololá	704	Santa Lucía Utatlán 	7	Santa Rita 	5	Mayo	2023-05-22T00:00:00	2024-11-08T12:00:00	8	Radiación solar	361
95185	7	Sololá	704	Santa Lucía Utatlán 	7	Santa Rita 	5	Mayo	2023-05-22T00:00:00	2024-11-08T13:00:00	2	Temperatura media	23.2
95186	7	Sololá	704	Santa Lucía Utatlán 	7	Santa Rita 	5	Mayo	2023-05-22T00:00:00	2024-11-08T13:00:00	4	Temperatura máxima	24.4
95187	7	Sololá	704	Santa Lucía Utatlán 	7	Santa Rita 	5	Mayo	2023-05-22T00:00:00	2024-11-08T13:00:00	3	Temperatura mínima	23.1
95188	7	Sololá	704	Santa Lucía Utatlán 	7	Santa Rita 	5	Mayo	2023-05-22T00:00:00	2024-11-08T13:00:00	5	Humedad	76
95189	7	Sololá	704	Santa Lucía Utatlán 	7	Santa Rita 	5	Mayo	2023-05-22T00:00:00	2024-11-08T13:00:00	6	Velocidad del viento	6.4
95190	7	Sololá	704	Santa Lucía Utatlán 	7	Santa Rita 	5	Mayo	2023-05-22T00:00:00	2024-11-08T13:00:00	7	Dirección del viento	6.44
95191	7	Sololá	704	Santa Lucía Utatlán 	7	Santa Rita 	5	Mayo	2023-05-22T00:00:00	2024-11-08T13:00:00	1	Precipitación	0
95192	7	Sololá	704	Santa Lucía Utatlán 	7	Santa Rita 	5	Mayo	2023-05-22T00:00:00	2024-11-08T13:00:00	8	Radiación solar	255
95193	7	Sololá	704	Santa Lucía Utatlán 	7	Santa Rita 	5	Mayo	2023-05-22T00:00:00	2024-11-08T14:00:00	2	Temperatura media	22.6
95194	7	Sololá	704	Santa Lucía Utatlán 	7	Santa Rita 	5	Mayo	2023-05-22T00:00:00	2024-11-08T14:00:00	4	Temperatura máxima	23.2
95195	7	Sololá	704	Santa Lucía Utatlán 	7	Santa Rita 	5	Mayo	2023-05-22T00:00:00	2024-11-08T14:00:00	3	Temperatura mínima	22.5
95196	7	Sololá	704	Santa Lucía Utatlán 	7	Santa Rita 	5	Mayo	2023-05-22T00:00:00	2024-11-08T14:00:00	5	Humedad	81
95197	7	Sololá	704	Santa Lucía Utatlán 	7	Santa Rita 	5	Mayo	2023-05-22T00:00:00	2024-11-08T14:00:00	6	Velocidad del viento	4.8
95198	7	Sololá	704	Santa Lucía Utatlán 	7	Santa Rita 	5	Mayo	2023-05-22T00:00:00	2024-11-08T14:00:00	7	Dirección del viento	4.83
95199	7	Sololá	704	Santa Lucía Utatlán 	7	Santa Rita 	5	Mayo	2023-05-22T00:00:00	2024-11-08T14:00:00	1	Precipitación	0
95200	7	Sololá	704	Santa Lucía Utatlán 	7	Santa Rita 	5	Mayo	2023-05-22T00:00:00	2024-11-08T14:00:00	8	Radiación solar	141
95201	7	Sololá	704	Santa Lucía Utatlán 	7	Santa Rita 	5	Mayo	2023-05-22T00:00:00	2024-11-08T15:00:00	2	Temperatura media	22.9
95202	7	Sololá	704	Santa Lucía Utatlán 	7	Santa Rita 	5	Mayo	2023-05-22T00:00:00	2024-11-08T15:00:00	4	Temperatura máxima	23.3
95203	7	Sololá	704	Santa Lucía Utatlán 	7	Santa Rita 	5	Mayo	2023-05-22T00:00:00	2024-11-08T15:00:00	3	Temperatura mínima	22.6
95204	7	Sololá	704	Santa Lucía Utatlán 	7	Santa Rita 	5	Mayo	2023-05-22T00:00:00	2024-11-08T15:00:00	5	Humedad	80
95205	7	Sololá	704	Santa Lucía Utatlán 	7	Santa Rita 	5	Mayo	2023-05-22T00:00:00	2024-11-08T15:00:00	6	Velocidad del viento	3.2
95206	7	Sololá	704	Santa Lucía Utatlán 	7	Santa Rita 	5	Mayo	2023-05-22T00:00:00	2024-11-08T15:00:00	7	Dirección del viento	3.22
95207	7	Sololá	704	Santa Lucía Utatlán 	7	Santa Rita 	5	Mayo	2023-05-22T00:00:00	2024-11-08T15:00:00	1	Precipitación	0
95208	7	Sololá	704	Santa Lucía Utatlán 	7	Santa Rita 	5	Mayo	2023-05-22T00:00:00	2024-11-08T15:00:00	8	Radiación solar	216
95209	7	Sololá	704	Santa Lucía Utatlán 	7	Santa Rita 	5	Mayo	2023-05-22T00:00:00	2024-11-08T16:00:00	2	Temperatura media	22.4
95210	7	Sololá	704	Santa Lucía Utatlán 	7	Santa Rita 	5	Mayo	2023-05-22T00:00:00	2024-11-08T16:00:00	4	Temperatura máxima	23
95211	7	Sololá	704	Santa Lucía Utatlán 	7	Santa Rita 	5	Mayo	2023-05-22T00:00:00	2024-11-08T16:00:00	3	Temperatura mínima	22.3
95212	7	Sololá	704	Santa Lucía Utatlán 	7	Santa Rita 	5	Mayo	2023-05-22T00:00:00	2024-11-08T16:00:00	5	Humedad	86
95213	7	Sololá	704	Santa Lucía Utatlán 	7	Santa Rita 	5	Mayo	2023-05-22T00:00:00	2024-11-08T16:00:00	6	Velocidad del viento	6.4
95214	7	Sololá	704	Santa Lucía Utatlán 	7	Santa Rita 	5	Mayo	2023-05-22T00:00:00	2024-11-08T16:00:00	7	Dirección del viento	6.44
95215	7	Sololá	704	Santa Lucía Utatlán 	7	Santa Rita 	5	Mayo	2023-05-22T00:00:00	2024-11-08T16:00:00	1	Precipitación	0
95216	7	Sololá	704	Santa Lucía Utatlán 	7	Santa Rita 	5	Mayo	2023-05-22T00:00:00	2024-11-08T16:00:00	8	Radiación solar	195
95217	7	Sololá	704	Santa Lucía Utatlán 	7	Santa Rita 	5	Mayo	2023-05-22T00:00:00	2024-11-08T17:00:00	2	Temperatura media	22.8
95218	7	Sololá	704	Santa Lucía Utatlán 	7	Santa Rita 	5	Mayo	2023-05-22T00:00:00	2024-11-08T17:00:00	4	Temperatura máxima	22.8
95219	7	Sololá	704	Santa Lucía Utatlán 	7	Santa Rita 	5	Mayo	2023-05-22T00:00:00	2024-11-08T17:00:00	3	Temperatura mínima	22.2
95220	7	Sololá	704	Santa Lucía Utatlán 	7	Santa Rita 	5	Mayo	2023-05-22T00:00:00	2024-11-08T17:00:00	5	Humedad	83
95221	7	Sololá	704	Santa Lucía Utatlán 	7	Santa Rita 	5	Mayo	2023-05-22T00:00:00	2024-11-08T17:00:00	6	Velocidad del viento	6.4
95222	7	Sololá	704	Santa Lucía Utatlán 	7	Santa Rita 	5	Mayo	2023-05-22T00:00:00	2024-11-08T17:00:00	7	Dirección del viento	6.44
95223	7	Sololá	704	Santa Lucía Utatlán 	7	Santa Rita 	5	Mayo	2023-05-22T00:00:00	2024-11-08T17:00:00	1	Precipitación	0
95224	7	Sololá	704	Santa Lucía Utatlán 	7	Santa Rita 	5	Mayo	2023-05-22T00:00:00	2024-11-08T17:00:00	8	Radiación solar	163
95225	7	Sololá	704	Santa Lucía Utatlán 	7	Santa Rita 	5	Mayo	2023-05-22T00:00:00	2024-11-08T18:00:00	2	Temperatura media	22
95226	7	Sololá	704	Santa Lucía Utatlán 	7	Santa Rita 	5	Mayo	2023-05-22T00:00:00	2024-11-08T18:00:00	4	Temperatura máxima	22.8
95227	7	Sololá	704	Santa Lucía Utatlán 	7	Santa Rita 	5	Mayo	2023-05-22T00:00:00	2024-11-08T18:00:00	3	Temperatura mínima	21.9
95228	7	Sololá	704	Santa Lucía Utatlán 	7	Santa Rita 	5	Mayo	2023-05-22T00:00:00	2024-11-08T18:00:00	5	Humedad	82
95229	7	Sololá	704	Santa Lucía Utatlán 	7	Santa Rita 	5	Mayo	2023-05-22T00:00:00	2024-11-08T18:00:00	6	Velocidad del viento	4.8
95230	7	Sololá	704	Santa Lucía Utatlán 	7	Santa Rita 	5	Mayo	2023-05-22T00:00:00	2024-11-08T18:00:00	7	Dirección del viento	4.83
95231	7	Sololá	704	Santa Lucía Utatlán 	7	Santa Rita 	5	Mayo	2023-05-22T00:00:00	2024-11-08T18:00:00	1	Precipitación	0
95232	7	Sololá	704	Santa Lucía Utatlán 	7	Santa Rita 	5	Mayo	2023-05-22T00:00:00	2024-11-08T18:00:00	8	Radiación solar	65
95233	7	Sololá	704	Santa Lucía Utatlán 	7	Santa Rita 	5	Mayo	2023-05-22T00:00:00	2024-11-08T19:00:00	2	Temperatura media	21.6
95234	7	Sololá	704	Santa Lucía Utatlán 	7	Santa Rita 	5	Mayo	2023-05-22T00:00:00	2024-11-08T19:00:00	4	Temperatura máxima	22.1
95235	7	Sololá	704	Santa Lucía Utatlán 	7	Santa Rita 	5	Mayo	2023-05-22T00:00:00	2024-11-08T19:00:00	3	Temperatura mínima	21.6
95236	7	Sololá	704	Santa Lucía Utatlán 	7	Santa Rita 	5	Mayo	2023-05-22T00:00:00	2024-11-08T19:00:00	5	Humedad	81
95237	7	Sololá	704	Santa Lucía Utatlán 	7	Santa Rita 	5	Mayo	2023-05-22T00:00:00	2024-11-08T19:00:00	6	Velocidad del viento	3.2
95238	7	Sololá	704	Santa Lucía Utatlán 	7	Santa Rita 	5	Mayo	2023-05-22T00:00:00	2024-11-08T19:00:00	7	Dirección del viento	3.22
95239	7	Sololá	704	Santa Lucía Utatlán 	7	Santa Rita 	5	Mayo	2023-05-22T00:00:00	2024-11-08T19:00:00	1	Precipitación	0
95240	7	Sololá	704	Santa Lucía Utatlán 	7	Santa Rita 	5	Mayo	2023-05-22T00:00:00	2024-11-08T19:00:00	8	Radiación solar	0
95241	7	Sololá	704	Santa Lucía Utatlán 	7	Santa Rita 	5	Mayo	2023-05-22T00:00:00	2024-11-08T20:00:00	2	Temperatura media	21.2
95242	7	Sololá	704	Santa Lucía Utatlán 	7	Santa Rita 	5	Mayo	2023-05-22T00:00:00	2024-11-08T20:00:00	4	Temperatura máxima	21.7
95243	7	Sololá	704	Santa Lucía Utatlán 	7	Santa Rita 	5	Mayo	2023-05-22T00:00:00	2024-11-08T20:00:00	3	Temperatura mínima	21.2
95244	7	Sololá	704	Santa Lucía Utatlán 	7	Santa Rita 	5	Mayo	2023-05-22T00:00:00	2024-11-08T20:00:00	5	Humedad	82
95245	7	Sololá	704	Santa Lucía Utatlán 	7	Santa Rita 	5	Mayo	2023-05-22T00:00:00	2024-11-08T20:00:00	6	Velocidad del viento	3.2
95246	7	Sololá	704	Santa Lucía Utatlán 	7	Santa Rita 	5	Mayo	2023-05-22T00:00:00	2024-11-08T20:00:00	7	Dirección del viento	3.22
95247	7	Sololá	704	Santa Lucía Utatlán 	7	Santa Rita 	5	Mayo	2023-05-22T00:00:00	2024-11-08T20:00:00	1	Precipitación	0
95248	7	Sololá	704	Santa Lucía Utatlán 	7	Santa Rita 	5	Mayo	2023-05-22T00:00:00	2024-11-08T20:00:00	8	Radiación solar	0
95249	7	Sololá	704	Santa Lucía Utatlán 	7	Santa Rita 	5	Mayo	2023-05-22T00:00:00	2024-11-08T21:00:00	2	Temperatura media	20.4
95250	7	Sololá	704	Santa Lucía Utatlán 	7	Santa Rita 	5	Mayo	2023-05-22T00:00:00	2024-11-08T21:00:00	4	Temperatura máxima	21.2
95251	7	Sololá	704	Santa Lucía Utatlán 	7	Santa Rita 	5	Mayo	2023-05-22T00:00:00	2024-11-08T21:00:00	3	Temperatura mínima	20.4
95252	7	Sololá	704	Santa Lucía Utatlán 	7	Santa Rita 	5	Mayo	2023-05-22T00:00:00	2024-11-08T21:00:00	5	Humedad	85
95253	7	Sololá	704	Santa Lucía Utatlán 	7	Santa Rita 	5	Mayo	2023-05-22T00:00:00	2024-11-08T21:00:00	6	Velocidad del viento	1.6
95254	7	Sololá	704	Santa Lucía Utatlán 	7	Santa Rita 	5	Mayo	2023-05-22T00:00:00	2024-11-08T21:00:00	7	Dirección del viento	1.61
95255	7	Sololá	704	Santa Lucía Utatlán 	7	Santa Rita 	5	Mayo	2023-05-22T00:00:00	2024-11-08T21:00:00	1	Precipitación	0
95256	7	Sololá	704	Santa Lucía Utatlán 	7	Santa Rita 	5	Mayo	2023-05-22T00:00:00	2024-11-08T21:00:00	8	Radiación solar	0
95257	7	Sololá	704	Santa Lucía Utatlán 	7	Santa Rita 	5	Mayo	2023-05-22T00:00:00	2024-11-08T22:00:00	2	Temperatura media	20.4
95258	7	Sololá	704	Santa Lucía Utatlán 	7	Santa Rita 	5	Mayo	2023-05-22T00:00:00	2024-11-08T22:00:00	4	Temperatura máxima	20.8
95259	7	Sololá	704	Santa Lucía Utatlán 	7	Santa Rita 	5	Mayo	2023-05-22T00:00:00	2024-11-08T22:00:00	3	Temperatura mínima	19.8
95260	7	Sololá	704	Santa Lucía Utatlán 	7	Santa Rita 	5	Mayo	2023-05-22T00:00:00	2024-11-08T22:00:00	5	Humedad	86
95261	7	Sololá	704	Santa Lucía Utatlán 	7	Santa Rita 	5	Mayo	2023-05-22T00:00:00	2024-11-08T22:00:00	6	Velocidad del viento	3.2
95262	7	Sololá	704	Santa Lucía Utatlán 	7	Santa Rita 	5	Mayo	2023-05-22T00:00:00	2024-11-08T22:00:00	7	Dirección del viento	3.22
95263	7	Sololá	704	Santa Lucía Utatlán 	7	Santa Rita 	5	Mayo	2023-05-22T00:00:00	2024-11-08T22:00:00	1	Precipitación	0
95264	7	Sololá	704	Santa Lucía Utatlán 	7	Santa Rita 	5	Mayo	2023-05-22T00:00:00	2024-11-08T22:00:00	8	Radiación solar	0
95265	7	Sololá	704	Santa Lucía Utatlán 	7	Santa Rita 	5	Mayo	2023-05-22T00:00:00	2024-11-08T23:00:00	2	Temperatura media	19.1
95266	7	Sololá	704	Santa Lucía Utatlán 	7	Santa Rita 	5	Mayo	2023-05-22T00:00:00	2024-11-08T23:00:00	4	Temperatura máxima	20.4
95267	7	Sololá	704	Santa Lucía Utatlán 	7	Santa Rita 	5	Mayo	2023-05-22T00:00:00	2024-11-08T23:00:00	3	Temperatura mínima	19.1
95268	7	Sololá	704	Santa Lucía Utatlán 	7	Santa Rita 	5	Mayo	2023-05-22T00:00:00	2024-11-08T23:00:00	5	Humedad	89
95269	7	Sololá	704	Santa Lucía Utatlán 	7	Santa Rita 	5	Mayo	2023-05-22T00:00:00	2024-11-08T23:00:00	6	Velocidad del viento	1.6
95270	7	Sololá	704	Santa Lucía Utatlán 	7	Santa Rita 	5	Mayo	2023-05-22T00:00:00	2024-11-08T23:00:00	7	Dirección del viento	1.61
95271	7	Sololá	704	Santa Lucía Utatlán 	7	Santa Rita 	5	Mayo	2023-05-22T00:00:00	2024-11-08T23:00:00	1	Precipitación	0
95272	7	Sololá	704	Santa Lucía Utatlán 	7	Santa Rita 	5	Mayo	2023-05-22T00:00:00	2024-11-08T23:00:00	8	Radiación solar	0
95273	7	Sololá	704	Santa Lucía Utatlán 	7	Santa Rita 	5	Mayo	2023-05-23T00:00:00	2024-11-08T00:00:00	2	Temperatura media	20
95274	7	Sololá	704	Santa Lucía Utatlán 	7	Santa Rita 	5	Mayo	2023-05-23T00:00:00	2024-11-08T00:00:00	4	Temperatura máxima	20.2
95275	7	Sololá	704	Santa Lucía Utatlán 	7	Santa Rita 	5	Mayo	2023-05-23T00:00:00	2024-11-08T00:00:00	3	Temperatura mínima	19
95276	7	Sololá	704	Santa Lucía Utatlán 	7	Santa Rita 	5	Mayo	2023-05-23T00:00:00	2024-11-08T00:00:00	5	Humedad	82
95277	7	Sololá	704	Santa Lucía Utatlán 	7	Santa Rita 	5	Mayo	2023-05-23T00:00:00	2024-11-08T00:00:00	6	Velocidad del viento	3.2
95278	7	Sololá	704	Santa Lucía Utatlán 	7	Santa Rita 	5	Mayo	2023-05-23T00:00:00	2024-11-08T00:00:00	7	Dirección del viento	3.22
95279	7	Sololá	704	Santa Lucía Utatlán 	7	Santa Rita 	5	Mayo	2023-05-23T00:00:00	2024-11-08T00:00:00	1	Precipitación	0
95280	7	Sololá	704	Santa Lucía Utatlán 	7	Santa Rita 	5	Mayo	2023-05-23T00:00:00	2024-11-08T00:00:00	8	Radiación solar	0
95281	7	Sololá	704	Santa Lucía Utatlán 	7	Santa Rita 	5	Mayo	2023-05-23T00:00:00	2024-11-08T01:00:00	2	Temperatura media	20.8
95282	7	Sololá	704	Santa Lucía Utatlán 	7	Santa Rita 	5	Mayo	2023-05-23T00:00:00	2024-11-08T01:00:00	4	Temperatura máxima	20.8
95283	7	Sololá	704	Santa Lucía Utatlán 	7	Santa Rita 	5	Mayo	2023-05-23T00:00:00	2024-11-08T01:00:00	3	Temperatura mínima	20
95284	7	Sololá	704	Santa Lucía Utatlán 	7	Santa Rita 	5	Mayo	2023-05-23T00:00:00	2024-11-08T01:00:00	5	Humedad	76
95285	7	Sololá	704	Santa Lucía Utatlán 	7	Santa Rita 	5	Mayo	2023-05-23T00:00:00	2024-11-08T01:00:00	6	Velocidad del viento	4.8
95286	7	Sololá	704	Santa Lucía Utatlán 	7	Santa Rita 	5	Mayo	2023-05-23T00:00:00	2024-11-08T01:00:00	7	Dirección del viento	4.83
95287	7	Sololá	704	Santa Lucía Utatlán 	7	Santa Rita 	5	Mayo	2023-05-23T00:00:00	2024-11-08T01:00:00	1	Precipitación	0
95288	7	Sololá	704	Santa Lucía Utatlán 	7	Santa Rita 	5	Mayo	2023-05-23T00:00:00	2024-11-08T01:00:00	8	Radiación solar	0
95289	7	Sololá	704	Santa Lucía Utatlán 	7	Santa Rita 	5	Mayo	2023-05-23T00:00:00	2024-11-08T02:00:00	2	Temperatura media	18.2
95290	7	Sololá	704	Santa Lucía Utatlán 	7	Santa Rita 	5	Mayo	2023-05-23T00:00:00	2024-11-08T02:00:00	4	Temperatura máxima	20.8
95291	7	Sololá	704	Santa Lucía Utatlán 	7	Santa Rita 	5	Mayo	2023-05-23T00:00:00	2024-11-08T02:00:00	3	Temperatura mínima	18.2
95292	7	Sololá	704	Santa Lucía Utatlán 	7	Santa Rita 	5	Mayo	2023-05-23T00:00:00	2024-11-08T02:00:00	5	Humedad	87
95293	7	Sololá	704	Santa Lucía Utatlán 	7	Santa Rita 	5	Mayo	2023-05-23T00:00:00	2024-11-08T02:00:00	6	Velocidad del viento	1.6
95294	7	Sololá	704	Santa Lucía Utatlán 	7	Santa Rita 	5	Mayo	2023-05-23T00:00:00	2024-11-08T02:00:00	7	Dirección del viento	1.61
95295	7	Sololá	704	Santa Lucía Utatlán 	7	Santa Rita 	5	Mayo	2023-05-23T00:00:00	2024-11-08T02:00:00	1	Precipitación	0
95296	7	Sololá	704	Santa Lucía Utatlán 	7	Santa Rita 	5	Mayo	2023-05-23T00:00:00	2024-11-08T02:00:00	8	Radiación solar	0
95297	7	Sololá	704	Santa Lucía Utatlán 	7	Santa Rita 	5	Mayo	2023-05-23T00:00:00	2024-11-08T03:00:00	2	Temperatura media	17.1
95298	7	Sololá	704	Santa Lucía Utatlán 	7	Santa Rita 	5	Mayo	2023-05-23T00:00:00	2024-11-08T03:00:00	4	Temperatura máxima	18.3
95299	7	Sololá	704	Santa Lucía Utatlán 	7	Santa Rita 	5	Mayo	2023-05-23T00:00:00	2024-11-08T03:00:00	3	Temperatura mínima	17.1
95300	7	Sololá	704	Santa Lucía Utatlán 	7	Santa Rita 	5	Mayo	2023-05-23T00:00:00	2024-11-08T03:00:00	5	Humedad	91
95301	7	Sololá	704	Santa Lucía Utatlán 	7	Santa Rita 	5	Mayo	2023-05-23T00:00:00	2024-11-08T03:00:00	6	Velocidad del viento	1.6
95302	7	Sololá	704	Santa Lucía Utatlán 	7	Santa Rita 	5	Mayo	2023-05-23T00:00:00	2024-11-08T03:00:00	7	Dirección del viento	1.61
95303	7	Sololá	704	Santa Lucía Utatlán 	7	Santa Rita 	5	Mayo	2023-05-23T00:00:00	2024-11-08T03:00:00	1	Precipitación	0
95304	7	Sololá	704	Santa Lucía Utatlán 	7	Santa Rita 	5	Mayo	2023-05-23T00:00:00	2024-11-08T03:00:00	8	Radiación solar	0
95305	7	Sololá	704	Santa Lucía Utatlán 	7	Santa Rita 	5	Mayo	2023-05-23T00:00:00	2024-11-08T04:00:00	2	Temperatura media	17.4
95306	7	Sololá	704	Santa Lucía Utatlán 	7	Santa Rita 	5	Mayo	2023-05-23T00:00:00	2024-11-08T04:00:00	4	Temperatura máxima	17.4
95307	7	Sololá	704	Santa Lucía Utatlán 	7	Santa Rita 	5	Mayo	2023-05-23T00:00:00	2024-11-08T04:00:00	3	Temperatura mínima	16.9
95308	7	Sololá	704	Santa Lucía Utatlán 	7	Santa Rita 	5	Mayo	2023-05-23T00:00:00	2024-11-08T04:00:00	5	Humedad	91
95309	7	Sololá	704	Santa Lucía Utatlán 	7	Santa Rita 	5	Mayo	2023-05-23T00:00:00	2024-11-08T04:00:00	6	Velocidad del viento	1.6
95310	7	Sololá	704	Santa Lucía Utatlán 	7	Santa Rita 	5	Mayo	2023-05-23T00:00:00	2024-11-08T04:00:00	7	Dirección del viento	1.61
95311	7	Sololá	704	Santa Lucía Utatlán 	7	Santa Rita 	5	Mayo	2023-05-23T00:00:00	2024-11-08T04:00:00	1	Precipitación	0
95312	7	Sololá	704	Santa Lucía Utatlán 	7	Santa Rita 	5	Mayo	2023-05-23T00:00:00	2024-11-08T04:00:00	8	Radiación solar	0
95313	7	Sololá	704	Santa Lucía Utatlán 	7	Santa Rita 	5	Mayo	2023-05-23T00:00:00	2024-11-08T05:00:00	2	Temperatura media	16.6
95314	7	Sololá	704	Santa Lucía Utatlán 	7	Santa Rita 	5	Mayo	2023-05-23T00:00:00	2024-11-08T05:00:00	4	Temperatura máxima	17.3
95315	7	Sololá	704	Santa Lucía Utatlán 	7	Santa Rita 	5	Mayo	2023-05-23T00:00:00	2024-11-08T05:00:00	3	Temperatura mínima	16.5
95316	7	Sololá	704	Santa Lucía Utatlán 	7	Santa Rita 	5	Mayo	2023-05-23T00:00:00	2024-11-08T05:00:00	5	Humedad	93
95317	7	Sololá	704	Santa Lucía Utatlán 	7	Santa Rita 	5	Mayo	2023-05-23T00:00:00	2024-11-08T05:00:00	6	Velocidad del viento	0
95318	7	Sololá	704	Santa Lucía Utatlán 	7	Santa Rita 	5	Mayo	2023-05-23T00:00:00	2024-11-08T05:00:00	7	Dirección del viento	0
95319	7	Sololá	704	Santa Lucía Utatlán 	7	Santa Rita 	5	Mayo	2023-05-23T00:00:00	2024-11-08T05:00:00	1	Precipitación	0
95320	7	Sololá	704	Santa Lucía Utatlán 	7	Santa Rita 	5	Mayo	2023-05-23T00:00:00	2024-11-08T05:00:00	8	Radiación solar	0
95321	7	Sololá	704	Santa Lucía Utatlán 	7	Santa Rita 	5	Mayo	2023-05-23T00:00:00	2024-11-08T06:00:00	2	Temperatura media	16.7
95322	7	Sololá	704	Santa Lucía Utatlán 	7	Santa Rita 	5	Mayo	2023-05-23T00:00:00	2024-11-08T06:00:00	4	Temperatura máxima	16.8
95323	7	Sololá	704	Santa Lucía Utatlán 	7	Santa Rita 	5	Mayo	2023-05-23T00:00:00	2024-11-08T06:00:00	3	Temperatura mínima	16.4
95324	7	Sololá	704	Santa Lucía Utatlán 	7	Santa Rita 	5	Mayo	2023-05-23T00:00:00	2024-11-08T06:00:00	5	Humedad	92
95325	7	Sololá	704	Santa Lucía Utatlán 	7	Santa Rita 	5	Mayo	2023-05-23T00:00:00	2024-11-08T06:00:00	6	Velocidad del viento	1.6
95326	7	Sololá	704	Santa Lucía Utatlán 	7	Santa Rita 	5	Mayo	2023-05-23T00:00:00	2024-11-08T06:00:00	7	Dirección del viento	1.61
95327	7	Sololá	704	Santa Lucía Utatlán 	7	Santa Rita 	5	Mayo	2023-05-23T00:00:00	2024-11-08T06:00:00	1	Precipitación	0
95328	7	Sololá	704	Santa Lucía Utatlán 	7	Santa Rita 	5	Mayo	2023-05-23T00:00:00	2024-11-08T06:00:00	8	Radiación solar	0
95329	7	Sololá	704	Santa Lucía Utatlán 	7	Santa Rita 	5	Mayo	2023-05-23T00:00:00	2024-11-08T07:00:00	2	Temperatura media	17
95330	7	Sololá	704	Santa Lucía Utatlán 	7	Santa Rita 	5	Mayo	2023-05-23T00:00:00	2024-11-08T07:00:00	4	Temperatura máxima	17
95331	7	Sololá	704	Santa Lucía Utatlán 	7	Santa Rita 	5	Mayo	2023-05-23T00:00:00	2024-11-08T07:00:00	3	Temperatura mínima	16.7
95332	7	Sololá	704	Santa Lucía Utatlán 	7	Santa Rita 	5	Mayo	2023-05-23T00:00:00	2024-11-08T07:00:00	5	Humedad	90
95333	7	Sololá	704	Santa Lucía Utatlán 	7	Santa Rita 	5	Mayo	2023-05-23T00:00:00	2024-11-08T07:00:00	6	Velocidad del viento	1.6
95334	7	Sololá	704	Santa Lucía Utatlán 	7	Santa Rita 	5	Mayo	2023-05-23T00:00:00	2024-11-08T07:00:00	7	Dirección del viento	1.61
95335	7	Sololá	704	Santa Lucía Utatlán 	7	Santa Rita 	5	Mayo	2023-05-23T00:00:00	2024-11-08T07:00:00	1	Precipitación	0
95336	7	Sololá	704	Santa Lucía Utatlán 	7	Santa Rita 	5	Mayo	2023-05-23T00:00:00	2024-11-08T07:00:00	8	Radiación solar	10
95337	7	Sololá	704	Santa Lucía Utatlán 	7	Santa Rita 	5	Mayo	2023-05-23T00:00:00	2024-11-08T08:00:00	2	Temperatura media	18.9
95338	7	Sololá	704	Santa Lucía Utatlán 	7	Santa Rita 	5	Mayo	2023-05-23T00:00:00	2024-11-08T08:00:00	4	Temperatura máxima	18.9
95339	7	Sololá	704	Santa Lucía Utatlán 	7	Santa Rita 	5	Mayo	2023-05-23T00:00:00	2024-11-08T08:00:00	3	Temperatura mínima	17
95340	7	Sololá	704	Santa Lucía Utatlán 	7	Santa Rita 	5	Mayo	2023-05-23T00:00:00	2024-11-08T08:00:00	5	Humedad	88
95341	7	Sololá	704	Santa Lucía Utatlán 	7	Santa Rita 	5	Mayo	2023-05-23T00:00:00	2024-11-08T08:00:00	6	Velocidad del viento	0
95342	7	Sololá	704	Santa Lucía Utatlán 	7	Santa Rita 	5	Mayo	2023-05-23T00:00:00	2024-11-08T08:00:00	7	Dirección del viento	0
95343	7	Sololá	704	Santa Lucía Utatlán 	7	Santa Rita 	5	Mayo	2023-05-23T00:00:00	2024-11-08T08:00:00	1	Precipitación	0
95344	7	Sololá	704	Santa Lucía Utatlán 	7	Santa Rita 	5	Mayo	2023-05-23T00:00:00	2024-11-08T08:00:00	8	Radiación solar	105
95345	7	Sololá	704	Santa Lucía Utatlán 	7	Santa Rita 	5	Mayo	2023-05-23T00:00:00	2024-11-08T09:00:00	2	Temperatura media	22.2
95346	7	Sololá	704	Santa Lucía Utatlán 	7	Santa Rita 	5	Mayo	2023-05-23T00:00:00	2024-11-08T09:00:00	4	Temperatura máxima	22.2
95347	7	Sololá	704	Santa Lucía Utatlán 	7	Santa Rita 	5	Mayo	2023-05-23T00:00:00	2024-11-08T09:00:00	3	Temperatura mínima	19
95348	7	Sololá	704	Santa Lucía Utatlán 	7	Santa Rita 	5	Mayo	2023-05-23T00:00:00	2024-11-08T09:00:00	5	Humedad	74
95349	7	Sololá	704	Santa Lucía Utatlán 	7	Santa Rita 	5	Mayo	2023-05-23T00:00:00	2024-11-08T09:00:00	6	Velocidad del viento	1.6
95350	7	Sololá	704	Santa Lucía Utatlán 	7	Santa Rita 	5	Mayo	2023-05-23T00:00:00	2024-11-08T09:00:00	7	Dirección del viento	1.61
95351	7	Sololá	704	Santa Lucía Utatlán 	7	Santa Rita 	5	Mayo	2023-05-23T00:00:00	2024-11-08T09:00:00	1	Precipitación	0
95352	7	Sololá	704	Santa Lucía Utatlán 	7	Santa Rita 	5	Mayo	2023-05-23T00:00:00	2024-11-08T09:00:00	8	Radiación solar	373
95353	7	Sololá	704	Santa Lucía Utatlán 	7	Santa Rita 	5	Mayo	2023-05-23T00:00:00	2024-11-08T10:00:00	2	Temperatura media	24.2
95354	7	Sololá	704	Santa Lucía Utatlán 	7	Santa Rita 	5	Mayo	2023-05-23T00:00:00	2024-11-08T10:00:00	4	Temperatura máxima	24.2
95355	7	Sololá	704	Santa Lucía Utatlán 	7	Santa Rita 	5	Mayo	2023-05-23T00:00:00	2024-11-08T10:00:00	3	Temperatura mínima	22.3
95356	7	Sololá	704	Santa Lucía Utatlán 	7	Santa Rita 	5	Mayo	2023-05-23T00:00:00	2024-11-08T10:00:00	5	Humedad	64
95357	7	Sololá	704	Santa Lucía Utatlán 	7	Santa Rita 	5	Mayo	2023-05-23T00:00:00	2024-11-08T10:00:00	6	Velocidad del viento	4.8
95358	7	Sololá	704	Santa Lucía Utatlán 	7	Santa Rita 	5	Mayo	2023-05-23T00:00:00	2024-11-08T10:00:00	7	Dirección del viento	4.83
95359	7	Sololá	704	Santa Lucía Utatlán 	7	Santa Rita 	5	Mayo	2023-05-23T00:00:00	2024-11-08T10:00:00	1	Precipitación	0
95360	7	Sololá	704	Santa Lucía Utatlán 	7	Santa Rita 	5	Mayo	2023-05-23T00:00:00	2024-11-08T10:00:00	8	Radiación solar	606
95361	7	Sololá	704	Santa Lucía Utatlán 	7	Santa Rita 	5	Mayo	2023-05-23T00:00:00	2024-11-08T11:00:00	2	Temperatura media	24.8
95362	7	Sololá	704	Santa Lucía Utatlán 	7	Santa Rita 	5	Mayo	2023-05-23T00:00:00	2024-11-08T11:00:00	4	Temperatura máxima	25.1
95363	7	Sololá	704	Santa Lucía Utatlán 	7	Santa Rita 	5	Mayo	2023-05-23T00:00:00	2024-11-08T11:00:00	3	Temperatura mínima	24.2
95364	7	Sololá	704	Santa Lucía Utatlán 	7	Santa Rita 	5	Mayo	2023-05-23T00:00:00	2024-11-08T11:00:00	5	Humedad	61
95365	7	Sololá	704	Santa Lucía Utatlán 	7	Santa Rita 	5	Mayo	2023-05-23T00:00:00	2024-11-08T11:00:00	6	Velocidad del viento	4.8
95366	7	Sololá	704	Santa Lucía Utatlán 	7	Santa Rita 	5	Mayo	2023-05-23T00:00:00	2024-11-08T11:00:00	7	Dirección del viento	4.83
95367	7	Sololá	704	Santa Lucía Utatlán 	7	Santa Rita 	5	Mayo	2023-05-23T00:00:00	2024-11-08T11:00:00	1	Precipitación	0
95368	7	Sololá	704	Santa Lucía Utatlán 	7	Santa Rita 	5	Mayo	2023-05-23T00:00:00	2024-11-08T11:00:00	8	Radiación solar	860
95369	7	Sololá	704	Santa Lucía Utatlán 	7	Santa Rita 	5	Mayo	2023-05-23T00:00:00	2024-11-08T12:00:00	2	Temperatura media	24.6
95370	7	Sololá	704	Santa Lucía Utatlán 	7	Santa Rita 	5	Mayo	2023-05-23T00:00:00	2024-11-08T12:00:00	4	Temperatura máxima	25.5
95371	7	Sololá	704	Santa Lucía Utatlán 	7	Santa Rita 	5	Mayo	2023-05-23T00:00:00	2024-11-08T12:00:00	3	Temperatura mínima	24.5
95372	7	Sololá	704	Santa Lucía Utatlán 	7	Santa Rita 	5	Mayo	2023-05-23T00:00:00	2024-11-08T12:00:00	5	Humedad	66
95373	7	Sololá	704	Santa Lucía Utatlán 	7	Santa Rita 	5	Mayo	2023-05-23T00:00:00	2024-11-08T12:00:00	6	Velocidad del viento	6.4
95374	7	Sololá	704	Santa Lucía Utatlán 	7	Santa Rita 	5	Mayo	2023-05-23T00:00:00	2024-11-08T12:00:00	7	Dirección del viento	6.44
95375	7	Sololá	704	Santa Lucía Utatlán 	7	Santa Rita 	5	Mayo	2023-05-23T00:00:00	2024-11-08T12:00:00	1	Precipitación	0
95376	7	Sololá	704	Santa Lucía Utatlán 	7	Santa Rita 	5	Mayo	2023-05-23T00:00:00	2024-11-08T12:00:00	8	Radiación solar	614
95377	7	Sololá	704	Santa Lucía Utatlán 	7	Santa Rita 	5	Mayo	2023-05-23T00:00:00	2024-11-08T13:00:00	2	Temperatura media	24.2
95378	7	Sololá	704	Santa Lucía Utatlán 	7	Santa Rita 	5	Mayo	2023-05-23T00:00:00	2024-11-08T13:00:00	4	Temperatura máxima	25.2
95379	7	Sololá	704	Santa Lucía Utatlán 	7	Santa Rita 	5	Mayo	2023-05-23T00:00:00	2024-11-08T13:00:00	3	Temperatura mínima	24.2
95380	7	Sololá	704	Santa Lucía Utatlán 	7	Santa Rita 	5	Mayo	2023-05-23T00:00:00	2024-11-08T13:00:00	5	Humedad	72
95381	7	Sololá	704	Santa Lucía Utatlán 	7	Santa Rita 	5	Mayo	2023-05-23T00:00:00	2024-11-08T13:00:00	6	Velocidad del viento	6.4
95382	7	Sololá	704	Santa Lucía Utatlán 	7	Santa Rita 	5	Mayo	2023-05-23T00:00:00	2024-11-08T13:00:00	7	Dirección del viento	6.44
95383	7	Sololá	704	Santa Lucía Utatlán 	7	Santa Rita 	5	Mayo	2023-05-23T00:00:00	2024-11-08T13:00:00	1	Precipitación	0
95384	7	Sololá	704	Santa Lucía Utatlán 	7	Santa Rita 	5	Mayo	2023-05-23T00:00:00	2024-11-08T13:00:00	8	Radiación solar	416
95385	7	Sololá	704	Santa Lucía Utatlán 	7	Santa Rita 	5	Mayo	2023-05-23T00:00:00	2024-11-08T14:00:00	2	Temperatura media	23.9
95386	7	Sololá	704	Santa Lucía Utatlán 	7	Santa Rita 	5	Mayo	2023-05-23T00:00:00	2024-11-08T14:00:00	4	Temperatura máxima	24.2
95387	7	Sololá	704	Santa Lucía Utatlán 	7	Santa Rita 	5	Mayo	2023-05-23T00:00:00	2024-11-08T14:00:00	3	Temperatura mínima	23.3
95388	7	Sololá	704	Santa Lucía Utatlán 	7	Santa Rita 	5	Mayo	2023-05-23T00:00:00	2024-11-08T14:00:00	5	Humedad	77
95389	7	Sololá	704	Santa Lucía Utatlán 	7	Santa Rita 	5	Mayo	2023-05-23T00:00:00	2024-11-08T14:00:00	6	Velocidad del viento	4.8
95390	7	Sololá	704	Santa Lucía Utatlán 	7	Santa Rita 	5	Mayo	2023-05-23T00:00:00	2024-11-08T14:00:00	7	Dirección del viento	4.83
95391	7	Sololá	704	Santa Lucía Utatlán 	7	Santa Rita 	5	Mayo	2023-05-23T00:00:00	2024-11-08T14:00:00	1	Precipitación	0
95392	7	Sololá	704	Santa Lucía Utatlán 	7	Santa Rita 	5	Mayo	2023-05-23T00:00:00	2024-11-08T14:00:00	8	Radiación solar	301
95393	7	Sololá	704	Santa Lucía Utatlán 	7	Santa Rita 	5	Mayo	2023-05-23T00:00:00	2024-11-08T15:00:00	2	Temperatura media	22.9
95394	7	Sololá	704	Santa Lucía Utatlán 	7	Santa Rita 	5	Mayo	2023-05-23T00:00:00	2024-11-08T15:00:00	4	Temperatura máxima	24.3
95395	7	Sololá	704	Santa Lucía Utatlán 	7	Santa Rita 	5	Mayo	2023-05-23T00:00:00	2024-11-08T15:00:00	3	Temperatura mínima	22.9
95396	7	Sololá	704	Santa Lucía Utatlán 	7	Santa Rita 	5	Mayo	2023-05-23T00:00:00	2024-11-08T15:00:00	5	Humedad	81
95397	7	Sololá	704	Santa Lucía Utatlán 	7	Santa Rita 	5	Mayo	2023-05-23T00:00:00	2024-11-08T15:00:00	6	Velocidad del viento	6.4
95398	7	Sololá	704	Santa Lucía Utatlán 	7	Santa Rita 	5	Mayo	2023-05-23T00:00:00	2024-11-08T15:00:00	7	Dirección del viento	6.44
95399	7	Sololá	704	Santa Lucía Utatlán 	7	Santa Rita 	5	Mayo	2023-05-23T00:00:00	2024-11-08T15:00:00	1	Precipitación	0
95400	7	Sololá	704	Santa Lucía Utatlán 	7	Santa Rita 	5	Mayo	2023-05-23T00:00:00	2024-11-08T15:00:00	8	Radiación solar	335
95401	7	Sololá	704	Santa Lucía Utatlán 	7	Santa Rita 	5	Mayo	2023-05-23T00:00:00	2024-11-08T16:00:00	2	Temperatura media	23.1
95402	7	Sololá	704	Santa Lucía Utatlán 	7	Santa Rita 	5	Mayo	2023-05-23T00:00:00	2024-11-08T16:00:00	4	Temperatura máxima	23.4
95403	7	Sololá	704	Santa Lucía Utatlán 	7	Santa Rita 	5	Mayo	2023-05-23T00:00:00	2024-11-08T16:00:00	3	Temperatura mínima	22.8
95404	7	Sololá	704	Santa Lucía Utatlán 	7	Santa Rita 	5	Mayo	2023-05-23T00:00:00	2024-11-08T16:00:00	5	Humedad	83
95405	7	Sololá	704	Santa Lucía Utatlán 	7	Santa Rita 	5	Mayo	2023-05-23T00:00:00	2024-11-08T16:00:00	6	Velocidad del viento	4.8
95406	7	Sololá	704	Santa Lucía Utatlán 	7	Santa Rita 	5	Mayo	2023-05-23T00:00:00	2024-11-08T16:00:00	7	Dirección del viento	4.83
95407	7	Sololá	704	Santa Lucía Utatlán 	7	Santa Rita 	5	Mayo	2023-05-23T00:00:00	2024-11-08T16:00:00	1	Precipitación	0
95408	7	Sololá	704	Santa Lucía Utatlán 	7	Santa Rita 	5	Mayo	2023-05-23T00:00:00	2024-11-08T16:00:00	8	Radiación solar	229
95409	7	Sololá	704	Santa Lucía Utatlán 	7	Santa Rita 	5	Mayo	2023-05-23T00:00:00	2024-11-08T17:00:00	2	Temperatura media	22.6
95410	7	Sololá	704	Santa Lucía Utatlán 	7	Santa Rita 	5	Mayo	2023-05-23T00:00:00	2024-11-08T17:00:00	4	Temperatura máxima	23.3
95411	7	Sololá	704	Santa Lucía Utatlán 	7	Santa Rita 	5	Mayo	2023-05-23T00:00:00	2024-11-08T17:00:00	3	Temperatura mínima	22.5
95412	7	Sololá	704	Santa Lucía Utatlán 	7	Santa Rita 	5	Mayo	2023-05-23T00:00:00	2024-11-08T17:00:00	5	Humedad	85
95413	7	Sololá	704	Santa Lucía Utatlán 	7	Santa Rita 	5	Mayo	2023-05-23T00:00:00	2024-11-08T17:00:00	6	Velocidad del viento	4.8
95414	7	Sololá	704	Santa Lucía Utatlán 	7	Santa Rita 	5	Mayo	2023-05-23T00:00:00	2024-11-08T17:00:00	7	Dirección del viento	4.83
95415	7	Sololá	704	Santa Lucía Utatlán 	7	Santa Rita 	5	Mayo	2023-05-23T00:00:00	2024-11-08T17:00:00	1	Precipitación	0
95416	7	Sololá	704	Santa Lucía Utatlán 	7	Santa Rita 	5	Mayo	2023-05-23T00:00:00	2024-11-08T17:00:00	8	Radiación solar	131
95417	7	Sololá	704	Santa Lucía Utatlán 	7	Santa Rita 	5	Mayo	2023-05-23T00:00:00	2024-11-08T18:00:00	2	Temperatura media	22.4
95418	7	Sololá	704	Santa Lucía Utatlán 	7	Santa Rita 	5	Mayo	2023-05-23T00:00:00	2024-11-08T18:00:00	4	Temperatura máxima	22.7
95419	7	Sololá	704	Santa Lucía Utatlán 	7	Santa Rita 	5	Mayo	2023-05-23T00:00:00	2024-11-08T18:00:00	3	Temperatura mínima	22.3
95420	7	Sololá	704	Santa Lucía Utatlán 	7	Santa Rita 	5	Mayo	2023-05-23T00:00:00	2024-11-08T18:00:00	5	Humedad	86
95421	7	Sololá	704	Santa Lucía Utatlán 	7	Santa Rita 	5	Mayo	2023-05-23T00:00:00	2024-11-08T18:00:00	6	Velocidad del viento	3.2
95422	7	Sololá	704	Santa Lucía Utatlán 	7	Santa Rita 	5	Mayo	2023-05-23T00:00:00	2024-11-08T18:00:00	7	Dirección del viento	3.22
95423	7	Sololá	704	Santa Lucía Utatlán 	7	Santa Rita 	5	Mayo	2023-05-23T00:00:00	2024-11-08T18:00:00	1	Precipitación	0
95424	7	Sololá	704	Santa Lucía Utatlán 	7	Santa Rita 	5	Mayo	2023-05-23T00:00:00	2024-11-08T18:00:00	8	Radiación solar	107
95425	7	Sololá	704	Santa Lucía Utatlán 	7	Santa Rita 	5	Mayo	2023-05-23T00:00:00	2024-11-08T19:00:00	2	Temperatura media	21.7
95426	7	Sololá	704	Santa Lucía Utatlán 	7	Santa Rita 	5	Mayo	2023-05-23T00:00:00	2024-11-08T19:00:00	4	Temperatura máxima	22.4
95427	7	Sololá	704	Santa Lucía Utatlán 	7	Santa Rita 	5	Mayo	2023-05-23T00:00:00	2024-11-08T19:00:00	3	Temperatura mínima	21.6
95428	7	Sololá	704	Santa Lucía Utatlán 	7	Santa Rita 	5	Mayo	2023-05-23T00:00:00	2024-11-08T19:00:00	5	Humedad	90
95429	7	Sololá	704	Santa Lucía Utatlán 	7	Santa Rita 	5	Mayo	2023-05-23T00:00:00	2024-11-08T19:00:00	6	Velocidad del viento	1.6
95430	7	Sololá	704	Santa Lucía Utatlán 	7	Santa Rita 	5	Mayo	2023-05-23T00:00:00	2024-11-08T19:00:00	7	Dirección del viento	1.61
95431	7	Sololá	704	Santa Lucía Utatlán 	7	Santa Rita 	5	Mayo	2023-05-23T00:00:00	2024-11-08T19:00:00	1	Precipitación	0
95432	7	Sololá	704	Santa Lucía Utatlán 	7	Santa Rita 	5	Mayo	2023-05-23T00:00:00	2024-11-08T19:00:00	8	Radiación solar	0
95433	7	Sololá	704	Santa Lucía Utatlán 	7	Santa Rita 	5	Mayo	2023-05-23T00:00:00	2024-11-08T20:00:00	2	Temperatura media	21.2
95434	7	Sololá	704	Santa Lucía Utatlán 	7	Santa Rita 	5	Mayo	2023-05-23T00:00:00	2024-11-08T20:00:00	4	Temperatura máxima	21.6
95435	7	Sololá	704	Santa Lucía Utatlán 	7	Santa Rita 	5	Mayo	2023-05-23T00:00:00	2024-11-08T20:00:00	3	Temperatura mínima	21.1
95436	7	Sololá	704	Santa Lucía Utatlán 	7	Santa Rita 	5	Mayo	2023-05-23T00:00:00	2024-11-08T20:00:00	5	Humedad	89
95437	7	Sololá	704	Santa Lucía Utatlán 	7	Santa Rita 	5	Mayo	2023-05-23T00:00:00	2024-11-08T20:00:00	6	Velocidad del viento	1.6
95438	7	Sololá	704	Santa Lucía Utatlán 	7	Santa Rita 	5	Mayo	2023-05-23T00:00:00	2024-11-08T20:00:00	7	Dirección del viento	1.61
95439	7	Sololá	704	Santa Lucía Utatlán 	7	Santa Rita 	5	Mayo	2023-05-23T00:00:00	2024-11-08T20:00:00	1	Precipitación	0
95440	7	Sololá	704	Santa Lucía Utatlán 	7	Santa Rita 	5	Mayo	2023-05-23T00:00:00	2024-11-08T20:00:00	8	Radiación solar	0
95441	7	Sololá	704	Santa Lucía Utatlán 	7	Santa Rita 	5	Mayo	2023-05-23T00:00:00	2024-11-08T21:00:00	2	Temperatura media	21.8
95442	7	Sololá	704	Santa Lucía Utatlán 	7	Santa Rita 	5	Mayo	2023-05-23T00:00:00	2024-11-08T21:00:00	4	Temperatura máxima	22.1
95443	7	Sololá	704	Santa Lucía Utatlán 	7	Santa Rita 	5	Mayo	2023-05-23T00:00:00	2024-11-08T21:00:00	3	Temperatura mínima	21.2
95444	7	Sololá	704	Santa Lucía Utatlán 	7	Santa Rita 	5	Mayo	2023-05-23T00:00:00	2024-11-08T21:00:00	5	Humedad	73
95445	7	Sololá	704	Santa Lucía Utatlán 	7	Santa Rita 	5	Mayo	2023-05-23T00:00:00	2024-11-08T21:00:00	6	Velocidad del viento	8
95446	7	Sololá	704	Santa Lucía Utatlán 	7	Santa Rita 	5	Mayo	2023-05-23T00:00:00	2024-11-08T21:00:00	7	Dirección del viento	8.05
95447	7	Sololá	704	Santa Lucía Utatlán 	7	Santa Rita 	5	Mayo	2023-05-23T00:00:00	2024-11-08T21:00:00	1	Precipitación	0
95448	7	Sololá	704	Santa Lucía Utatlán 	7	Santa Rita 	5	Mayo	2023-05-23T00:00:00	2024-11-08T21:00:00	8	Radiación solar	0
95449	7	Sololá	704	Santa Lucía Utatlán 	7	Santa Rita 	5	Mayo	2023-05-23T00:00:00	2024-11-08T22:00:00	2	Temperatura media	20.7
95450	7	Sololá	704	Santa Lucía Utatlán 	7	Santa Rita 	5	Mayo	2023-05-23T00:00:00	2024-11-08T22:00:00	4	Temperatura máxima	21.8
95451	7	Sololá	704	Santa Lucía Utatlán 	7	Santa Rita 	5	Mayo	2023-05-23T00:00:00	2024-11-08T22:00:00	3	Temperatura mínima	20.7
95452	7	Sololá	704	Santa Lucía Utatlán 	7	Santa Rita 	5	Mayo	2023-05-23T00:00:00	2024-11-08T22:00:00	5	Humedad	81
95453	7	Sololá	704	Santa Lucía Utatlán 	7	Santa Rita 	5	Mayo	2023-05-23T00:00:00	2024-11-08T22:00:00	6	Velocidad del viento	1.6
95454	7	Sololá	704	Santa Lucía Utatlán 	7	Santa Rita 	5	Mayo	2023-05-23T00:00:00	2024-11-08T22:00:00	7	Dirección del viento	1.61
95455	7	Sololá	704	Santa Lucía Utatlán 	7	Santa Rita 	5	Mayo	2023-05-23T00:00:00	2024-11-08T22:00:00	1	Precipitación	0
95456	7	Sololá	704	Santa Lucía Utatlán 	7	Santa Rita 	5	Mayo	2023-05-23T00:00:00	2024-11-08T22:00:00	8	Radiación solar	0
95457	7	Sololá	704	Santa Lucía Utatlán 	7	Santa Rita 	5	Mayo	2023-05-23T00:00:00	2024-11-08T23:00:00	2	Temperatura media	19.2
95458	7	Sololá	704	Santa Lucía Utatlán 	7	Santa Rita 	5	Mayo	2023-05-23T00:00:00	2024-11-08T23:00:00	4	Temperatura máxima	20.7
95459	7	Sololá	704	Santa Lucía Utatlán 	7	Santa Rita 	5	Mayo	2023-05-23T00:00:00	2024-11-08T23:00:00	3	Temperatura mínima	19.2
95460	7	Sololá	704	Santa Lucía Utatlán 	7	Santa Rita 	5	Mayo	2023-05-23T00:00:00	2024-11-08T23:00:00	5	Humedad	82
95461	7	Sololá	704	Santa Lucía Utatlán 	7	Santa Rita 	5	Mayo	2023-05-23T00:00:00	2024-11-08T23:00:00	6	Velocidad del viento	1.6
95462	7	Sololá	704	Santa Lucía Utatlán 	7	Santa Rita 	5	Mayo	2023-05-23T00:00:00	2024-11-08T23:00:00	7	Dirección del viento	1.61
95463	7	Sololá	704	Santa Lucía Utatlán 	7	Santa Rita 	5	Mayo	2023-05-23T00:00:00	2024-11-08T23:00:00	1	Precipitación	0
95464	7	Sololá	704	Santa Lucía Utatlán 	7	Santa Rita 	5	Mayo	2023-05-23T00:00:00	2024-11-08T23:00:00	8	Radiación solar	0
95465	7	Sololá	704	Santa Lucía Utatlán 	7	Santa Rita 	5	Mayo	2023-05-24T00:00:00	2024-11-08T00:00:00	2	Temperatura media	18.1
95466	7	Sololá	704	Santa Lucía Utatlán 	7	Santa Rita 	5	Mayo	2023-05-24T00:00:00	2024-11-08T00:00:00	4	Temperatura máxima	19.2
95467	7	Sololá	704	Santa Lucía Utatlán 	7	Santa Rita 	5	Mayo	2023-05-24T00:00:00	2024-11-08T00:00:00	3	Temperatura mínima	18.1
95468	7	Sololá	704	Santa Lucía Utatlán 	7	Santa Rita 	5	Mayo	2023-05-24T00:00:00	2024-11-08T00:00:00	5	Humedad	85
95469	7	Sololá	704	Santa Lucía Utatlán 	7	Santa Rita 	5	Mayo	2023-05-24T00:00:00	2024-11-08T00:00:00	6	Velocidad del viento	3.2
95470	7	Sololá	704	Santa Lucía Utatlán 	7	Santa Rita 	5	Mayo	2023-05-24T00:00:00	2024-11-08T00:00:00	7	Dirección del viento	3.22
95471	7	Sololá	704	Santa Lucía Utatlán 	7	Santa Rita 	5	Mayo	2023-05-24T00:00:00	2024-11-08T00:00:00	1	Precipitación	0
95472	7	Sololá	704	Santa Lucía Utatlán 	7	Santa Rita 	5	Mayo	2023-05-24T00:00:00	2024-11-08T00:00:00	8	Radiación solar	0
95473	7	Sololá	704	Santa Lucía Utatlán 	7	Santa Rita 	5	Mayo	2023-05-24T00:00:00	2024-11-08T01:00:00	2	Temperatura media	17.4
95474	7	Sololá	704	Santa Lucía Utatlán 	7	Santa Rita 	5	Mayo	2023-05-24T00:00:00	2024-11-08T01:00:00	4	Temperatura máxima	18.1
95475	7	Sololá	704	Santa Lucía Utatlán 	7	Santa Rita 	5	Mayo	2023-05-24T00:00:00	2024-11-08T01:00:00	3	Temperatura mínima	17.4
95476	7	Sololá	704	Santa Lucía Utatlán 	7	Santa Rita 	5	Mayo	2023-05-24T00:00:00	2024-11-08T01:00:00	5	Humedad	86
95477	7	Sololá	704	Santa Lucía Utatlán 	7	Santa Rita 	5	Mayo	2023-05-24T00:00:00	2024-11-08T01:00:00	6	Velocidad del viento	1.6
95478	7	Sololá	704	Santa Lucía Utatlán 	7	Santa Rita 	5	Mayo	2023-05-24T00:00:00	2024-11-08T01:00:00	7	Dirección del viento	1.61
95479	7	Sololá	704	Santa Lucía Utatlán 	7	Santa Rita 	5	Mayo	2023-05-24T00:00:00	2024-11-08T01:00:00	1	Precipitación	0
95480	7	Sololá	704	Santa Lucía Utatlán 	7	Santa Rita 	5	Mayo	2023-05-24T00:00:00	2024-11-08T01:00:00	8	Radiación solar	0
95481	7	Sololá	704	Santa Lucía Utatlán 	7	Santa Rita 	5	Mayo	2023-05-24T00:00:00	2024-11-08T02:00:00	2	Temperatura media	17
95482	7	Sololá	704	Santa Lucía Utatlán 	7	Santa Rita 	5	Mayo	2023-05-24T00:00:00	2024-11-08T02:00:00	4	Temperatura máxima	17.4
95483	7	Sololá	704	Santa Lucía Utatlán 	7	Santa Rita 	5	Mayo	2023-05-24T00:00:00	2024-11-08T02:00:00	3	Temperatura mínima	16.9
95484	7	Sololá	704	Santa Lucía Utatlán 	7	Santa Rita 	5	Mayo	2023-05-24T00:00:00	2024-11-08T02:00:00	5	Humedad	88
95485	7	Sololá	704	Santa Lucía Utatlán 	7	Santa Rita 	5	Mayo	2023-05-24T00:00:00	2024-11-08T02:00:00	6	Velocidad del viento	1.6
95486	7	Sololá	704	Santa Lucía Utatlán 	7	Santa Rita 	5	Mayo	2023-05-24T00:00:00	2024-11-08T02:00:00	7	Dirección del viento	1.61
95487	7	Sololá	704	Santa Lucía Utatlán 	7	Santa Rita 	5	Mayo	2023-05-24T00:00:00	2024-11-08T02:00:00	1	Precipitación	0
95488	7	Sololá	704	Santa Lucía Utatlán 	7	Santa Rita 	5	Mayo	2023-05-24T00:00:00	2024-11-08T02:00:00	8	Radiación solar	0
95489	7	Sololá	704	Santa Lucía Utatlán 	7	Santa Rita 	5	Mayo	2023-05-24T00:00:00	2024-11-08T03:00:00	2	Temperatura media	17.2
95490	7	Sololá	704	Santa Lucía Utatlán 	7	Santa Rita 	5	Mayo	2023-05-24T00:00:00	2024-11-08T03:00:00	4	Temperatura máxima	17.2
95491	7	Sololá	704	Santa Lucía Utatlán 	7	Santa Rita 	5	Mayo	2023-05-24T00:00:00	2024-11-08T03:00:00	3	Temperatura mínima	16.8
95492	7	Sololá	704	Santa Lucía Utatlán 	7	Santa Rita 	5	Mayo	2023-05-24T00:00:00	2024-11-08T03:00:00	5	Humedad	87
95493	7	Sololá	704	Santa Lucía Utatlán 	7	Santa Rita 	5	Mayo	2023-05-24T00:00:00	2024-11-08T03:00:00	6	Velocidad del viento	1.6
95494	7	Sololá	704	Santa Lucía Utatlán 	7	Santa Rita 	5	Mayo	2023-05-24T00:00:00	2024-11-08T03:00:00	7	Dirección del viento	1.61
95495	7	Sololá	704	Santa Lucía Utatlán 	7	Santa Rita 	5	Mayo	2023-05-24T00:00:00	2024-11-08T03:00:00	1	Precipitación	0
95496	7	Sololá	704	Santa Lucía Utatlán 	7	Santa Rita 	5	Mayo	2023-05-24T00:00:00	2024-11-08T03:00:00	8	Radiación solar	0
95497	7	Sololá	704	Santa Lucía Utatlán 	7	Santa Rita 	5	Mayo	2023-05-24T00:00:00	2024-11-08T04:00:00	2	Temperatura media	16.7
95498	7	Sololá	704	Santa Lucía Utatlán 	7	Santa Rita 	5	Mayo	2023-05-24T00:00:00	2024-11-08T04:00:00	4	Temperatura máxima	17.2
95499	7	Sololá	704	Santa Lucía Utatlán 	7	Santa Rita 	5	Mayo	2023-05-24T00:00:00	2024-11-08T04:00:00	3	Temperatura mínima	16.6
95500	7	Sololá	704	Santa Lucía Utatlán 	7	Santa Rita 	5	Mayo	2023-05-24T00:00:00	2024-11-08T04:00:00	5	Humedad	88
95501	7	Sololá	704	Santa Lucía Utatlán 	7	Santa Rita 	5	Mayo	2023-05-24T00:00:00	2024-11-08T04:00:00	6	Velocidad del viento	0
95502	7	Sololá	704	Santa Lucía Utatlán 	7	Santa Rita 	5	Mayo	2023-05-24T00:00:00	2024-11-08T04:00:00	7	Dirección del viento	0
95503	7	Sololá	704	Santa Lucía Utatlán 	7	Santa Rita 	5	Mayo	2023-05-24T00:00:00	2024-11-08T04:00:00	1	Precipitación	0
95504	7	Sololá	704	Santa Lucía Utatlán 	7	Santa Rita 	5	Mayo	2023-05-24T00:00:00	2024-11-08T04:00:00	8	Radiación solar	0
95505	7	Sololá	704	Santa Lucía Utatlán 	7	Santa Rita 	5	Mayo	2023-05-24T00:00:00	2024-11-08T05:00:00	2	Temperatura media	16.4
95506	7	Sololá	704	Santa Lucía Utatlán 	7	Santa Rita 	5	Mayo	2023-05-24T00:00:00	2024-11-08T05:00:00	4	Temperatura máxima	16.8
95507	7	Sololá	704	Santa Lucía Utatlán 	7	Santa Rita 	5	Mayo	2023-05-24T00:00:00	2024-11-08T05:00:00	3	Temperatura mínima	16.3
95508	7	Sololá	704	Santa Lucía Utatlán 	7	Santa Rita 	5	Mayo	2023-05-24T00:00:00	2024-11-08T05:00:00	5	Humedad	87
95509	7	Sololá	704	Santa Lucía Utatlán 	7	Santa Rita 	5	Mayo	2023-05-24T00:00:00	2024-11-08T05:00:00	6	Velocidad del viento	0
95510	7	Sololá	704	Santa Lucía Utatlán 	7	Santa Rita 	5	Mayo	2023-05-24T00:00:00	2024-11-08T05:00:00	7	Dirección del viento	0
95511	7	Sololá	704	Santa Lucía Utatlán 	7	Santa Rita 	5	Mayo	2023-05-24T00:00:00	2024-11-08T05:00:00	1	Precipitación	0
95512	7	Sololá	704	Santa Lucía Utatlán 	7	Santa Rita 	5	Mayo	2023-05-24T00:00:00	2024-11-08T05:00:00	8	Radiación solar	0
95513	7	Sololá	704	Santa Lucía Utatlán 	7	Santa Rita 	5	Mayo	2023-05-24T00:00:00	2024-11-08T06:00:00	2	Temperatura media	16.5
95514	7	Sololá	704	Santa Lucía Utatlán 	7	Santa Rita 	5	Mayo	2023-05-24T00:00:00	2024-11-08T06:00:00	4	Temperatura máxima	16.7
95515	7	Sololá	704	Santa Lucía Utatlán 	7	Santa Rita 	5	Mayo	2023-05-24T00:00:00	2024-11-08T06:00:00	3	Temperatura mínima	16.3
95516	7	Sololá	704	Santa Lucía Utatlán 	7	Santa Rita 	5	Mayo	2023-05-24T00:00:00	2024-11-08T06:00:00	5	Humedad	85
95517	7	Sololá	704	Santa Lucía Utatlán 	7	Santa Rita 	5	Mayo	2023-05-24T00:00:00	2024-11-08T06:00:00	6	Velocidad del viento	1.6
95518	7	Sololá	704	Santa Lucía Utatlán 	7	Santa Rita 	5	Mayo	2023-05-24T00:00:00	2024-11-08T06:00:00	7	Dirección del viento	1.61
95519	7	Sololá	704	Santa Lucía Utatlán 	7	Santa Rita 	5	Mayo	2023-05-24T00:00:00	2024-11-08T06:00:00	1	Precipitación	0
95520	7	Sololá	704	Santa Lucía Utatlán 	7	Santa Rita 	5	Mayo	2023-05-24T00:00:00	2024-11-08T06:00:00	8	Radiación solar	0
95521	7	Sololá	704	Santa Lucía Utatlán 	7	Santa Rita 	5	Mayo	2023-05-24T00:00:00	2024-11-08T07:00:00	2	Temperatura media	16.5
95522	7	Sololá	704	Santa Lucía Utatlán 	7	Santa Rita 	5	Mayo	2023-05-24T00:00:00	2024-11-08T07:00:00	4	Temperatura máxima	16.6
95523	7	Sololá	704	Santa Lucía Utatlán 	7	Santa Rita 	5	Mayo	2023-05-24T00:00:00	2024-11-08T07:00:00	3	Temperatura mínima	16.3
95524	7	Sololá	704	Santa Lucía Utatlán 	7	Santa Rita 	5	Mayo	2023-05-24T00:00:00	2024-11-08T07:00:00	5	Humedad	84
95525	7	Sololá	704	Santa Lucía Utatlán 	7	Santa Rita 	5	Mayo	2023-05-24T00:00:00	2024-11-08T07:00:00	6	Velocidad del viento	1.6
95526	7	Sololá	704	Santa Lucía Utatlán 	7	Santa Rita 	5	Mayo	2023-05-24T00:00:00	2024-11-08T07:00:00	7	Dirección del viento	1.61
95527	7	Sololá	704	Santa Lucía Utatlán 	7	Santa Rita 	5	Mayo	2023-05-24T00:00:00	2024-11-08T07:00:00	1	Precipitación	0
95528	7	Sololá	704	Santa Lucía Utatlán 	7	Santa Rita 	5	Mayo	2023-05-24T00:00:00	2024-11-08T07:00:00	8	Radiación solar	9
95529	7	Sololá	704	Santa Lucía Utatlán 	7	Santa Rita 	5	Mayo	2023-05-24T00:00:00	2024-11-08T08:00:00	2	Temperatura media	18.4
95530	7	Sololá	704	Santa Lucía Utatlán 	7	Santa Rita 	5	Mayo	2023-05-24T00:00:00	2024-11-08T08:00:00	4	Temperatura máxima	18.4
95531	7	Sololá	704	Santa Lucía Utatlán 	7	Santa Rita 	5	Mayo	2023-05-24T00:00:00	2024-11-08T08:00:00	3	Temperatura mínima	16.1
95532	7	Sololá	704	Santa Lucía Utatlán 	7	Santa Rita 	5	Mayo	2023-05-24T00:00:00	2024-11-08T08:00:00	5	Humedad	80
95533	7	Sololá	704	Santa Lucía Utatlán 	7	Santa Rita 	5	Mayo	2023-05-24T00:00:00	2024-11-08T08:00:00	6	Velocidad del viento	1.6
95534	7	Sololá	704	Santa Lucía Utatlán 	7	Santa Rita 	5	Mayo	2023-05-24T00:00:00	2024-11-08T08:00:00	7	Dirección del viento	1.61
95535	7	Sololá	704	Santa Lucía Utatlán 	7	Santa Rita 	5	Mayo	2023-05-24T00:00:00	2024-11-08T08:00:00	1	Precipitación	0
95536	7	Sololá	704	Santa Lucía Utatlán 	7	Santa Rita 	5	Mayo	2023-05-24T00:00:00	2024-11-08T08:00:00	8	Radiación solar	105
95537	7	Sololá	704	Santa Lucía Utatlán 	7	Santa Rita 	5	Mayo	2023-05-24T00:00:00	2024-11-08T09:00:00	2	Temperatura media	21.6
95538	7	Sololá	704	Santa Lucía Utatlán 	7	Santa Rita 	5	Mayo	2023-05-24T00:00:00	2024-11-08T09:00:00	4	Temperatura máxima	21.6
95539	7	Sololá	704	Santa Lucía Utatlán 	7	Santa Rita 	5	Mayo	2023-05-24T00:00:00	2024-11-08T09:00:00	3	Temperatura mínima	18.4
95540	7	Sololá	704	Santa Lucía Utatlán 	7	Santa Rita 	5	Mayo	2023-05-24T00:00:00	2024-11-08T09:00:00	5	Humedad	69
95541	7	Sololá	704	Santa Lucía Utatlán 	7	Santa Rita 	5	Mayo	2023-05-24T00:00:00	2024-11-08T09:00:00	6	Velocidad del viento	3.2
95542	7	Sololá	704	Santa Lucía Utatlán 	7	Santa Rita 	5	Mayo	2023-05-24T00:00:00	2024-11-08T09:00:00	7	Dirección del viento	3.22
95543	7	Sololá	704	Santa Lucía Utatlán 	7	Santa Rita 	5	Mayo	2023-05-24T00:00:00	2024-11-08T09:00:00	1	Precipitación	0
95544	7	Sololá	704	Santa Lucía Utatlán 	7	Santa Rita 	5	Mayo	2023-05-24T00:00:00	2024-11-08T09:00:00	8	Radiación solar	418
95545	7	Sololá	704	Santa Lucía Utatlán 	7	Santa Rita 	5	Mayo	2023-05-24T00:00:00	2024-11-08T10:00:00	2	Temperatura media	23.5
95546	7	Sololá	704	Santa Lucía Utatlán 	7	Santa Rita 	5	Mayo	2023-05-24T00:00:00	2024-11-08T10:00:00	4	Temperatura máxima	23.7
95547	7	Sololá	704	Santa Lucía Utatlán 	7	Santa Rita 	5	Mayo	2023-05-24T00:00:00	2024-11-08T10:00:00	3	Temperatura mínima	21.6
95548	7	Sololá	704	Santa Lucía Utatlán 	7	Santa Rita 	5	Mayo	2023-05-24T00:00:00	2024-11-08T10:00:00	5	Humedad	59
95549	7	Sololá	704	Santa Lucía Utatlán 	7	Santa Rita 	5	Mayo	2023-05-24T00:00:00	2024-11-08T10:00:00	6	Velocidad del viento	4.8
95550	7	Sololá	704	Santa Lucía Utatlán 	7	Santa Rita 	5	Mayo	2023-05-24T00:00:00	2024-11-08T10:00:00	7	Dirección del viento	4.83
95551	7	Sololá	704	Santa Lucía Utatlán 	7	Santa Rita 	5	Mayo	2023-05-24T00:00:00	2024-11-08T10:00:00	1	Precipitación	0
95552	7	Sololá	704	Santa Lucía Utatlán 	7	Santa Rita 	5	Mayo	2023-05-24T00:00:00	2024-11-08T10:00:00	8	Radiación solar	628
95553	7	Sololá	704	Santa Lucía Utatlán 	7	Santa Rita 	5	Mayo	2023-05-24T00:00:00	2024-11-08T11:00:00	2	Temperatura media	24.1
95554	7	Sololá	704	Santa Lucía Utatlán 	7	Santa Rita 	5	Mayo	2023-05-24T00:00:00	2024-11-08T11:00:00	4	Temperatura máxima	24.1
95555	7	Sololá	704	Santa Lucía Utatlán 	7	Santa Rita 	5	Mayo	2023-05-24T00:00:00	2024-11-08T11:00:00	3	Temperatura mínima	23.3
95556	7	Sololá	704	Santa Lucía Utatlán 	7	Santa Rita 	5	Mayo	2023-05-24T00:00:00	2024-11-08T11:00:00	5	Humedad	57
95557	7	Sololá	704	Santa Lucía Utatlán 	7	Santa Rita 	5	Mayo	2023-05-24T00:00:00	2024-11-08T11:00:00	6	Velocidad del viento	4.8
95558	7	Sololá	704	Santa Lucía Utatlán 	7	Santa Rita 	5	Mayo	2023-05-24T00:00:00	2024-11-08T11:00:00	7	Dirección del viento	4.83
95559	7	Sololá	704	Santa Lucía Utatlán 	7	Santa Rita 	5	Mayo	2023-05-24T00:00:00	2024-11-08T11:00:00	1	Precipitación	0
95560	7	Sololá	704	Santa Lucía Utatlán 	7	Santa Rita 	5	Mayo	2023-05-24T00:00:00	2024-11-08T11:00:00	8	Radiación solar	725
95561	7	Sololá	704	Santa Lucía Utatlán 	7	Santa Rita 	5	Mayo	2023-05-24T00:00:00	2024-11-08T12:00:00	2	Temperatura media	24.6
95562	7	Sololá	704	Santa Lucía Utatlán 	7	Santa Rita 	5	Mayo	2023-05-24T00:00:00	2024-11-08T12:00:00	4	Temperatura máxima	25.2
95563	7	Sololá	704	Santa Lucía Utatlán 	7	Santa Rita 	5	Mayo	2023-05-24T00:00:00	2024-11-08T12:00:00	3	Temperatura mínima	24.1
95564	7	Sololá	704	Santa Lucía Utatlán 	7	Santa Rita 	5	Mayo	2023-05-24T00:00:00	2024-11-08T12:00:00	5	Humedad	56
95565	7	Sololá	704	Santa Lucía Utatlán 	7	Santa Rita 	5	Mayo	2023-05-24T00:00:00	2024-11-08T12:00:00	6	Velocidad del viento	4.8
95566	7	Sololá	704	Santa Lucía Utatlán 	7	Santa Rita 	5	Mayo	2023-05-24T00:00:00	2024-11-08T12:00:00	7	Dirección del viento	4.83
95567	7	Sololá	704	Santa Lucía Utatlán 	7	Santa Rita 	5	Mayo	2023-05-24T00:00:00	2024-11-08T12:00:00	1	Precipitación	0
95568	7	Sololá	704	Santa Lucía Utatlán 	7	Santa Rita 	5	Mayo	2023-05-24T00:00:00	2024-11-08T12:00:00	8	Radiación solar	823
95569	7	Sololá	704	Santa Lucía Utatlán 	7	Santa Rita 	5	Mayo	2023-05-24T00:00:00	2024-11-08T13:00:00	2	Temperatura media	26.1
95570	7	Sololá	704	Santa Lucía Utatlán 	7	Santa Rita 	5	Mayo	2023-05-24T00:00:00	2024-11-08T13:00:00	4	Temperatura máxima	26.1
95571	7	Sololá	704	Santa Lucía Utatlán 	7	Santa Rita 	5	Mayo	2023-05-24T00:00:00	2024-11-08T13:00:00	3	Temperatura mínima	24.5
95572	7	Sololá	704	Santa Lucía Utatlán 	7	Santa Rita 	5	Mayo	2023-05-24T00:00:00	2024-11-08T13:00:00	5	Humedad	57
95573	7	Sololá	704	Santa Lucía Utatlán 	7	Santa Rita 	5	Mayo	2023-05-24T00:00:00	2024-11-08T13:00:00	6	Velocidad del viento	6.4
95574	7	Sololá	704	Santa Lucía Utatlán 	7	Santa Rita 	5	Mayo	2023-05-24T00:00:00	2024-11-08T13:00:00	7	Dirección del viento	6.44
95575	7	Sololá	704	Santa Lucía Utatlán 	7	Santa Rita 	5	Mayo	2023-05-24T00:00:00	2024-11-08T13:00:00	1	Precipitación	0
95576	7	Sololá	704	Santa Lucía Utatlán 	7	Santa Rita 	5	Mayo	2023-05-24T00:00:00	2024-11-08T13:00:00	8	Radiación solar	845
95577	7	Sololá	704	Santa Lucía Utatlán 	7	Santa Rita 	5	Mayo	2023-05-24T00:00:00	2024-11-08T14:00:00	2	Temperatura media	25.8
95578	7	Sololá	704	Santa Lucía Utatlán 	7	Santa Rita 	5	Mayo	2023-05-24T00:00:00	2024-11-08T14:00:00	4	Temperatura máxima	26.5
95579	7	Sololá	704	Santa Lucía Utatlán 	7	Santa Rita 	5	Mayo	2023-05-24T00:00:00	2024-11-08T14:00:00	3	Temperatura mínima	24.9
95580	7	Sololá	704	Santa Lucía Utatlán 	7	Santa Rita 	5	Mayo	2023-05-24T00:00:00	2024-11-08T14:00:00	5	Humedad	64
95581	7	Sololá	704	Santa Lucía Utatlán 	7	Santa Rita 	5	Mayo	2023-05-24T00:00:00	2024-11-08T14:00:00	6	Velocidad del viento	6.4
95582	7	Sololá	704	Santa Lucía Utatlán 	7	Santa Rita 	5	Mayo	2023-05-24T00:00:00	2024-11-08T14:00:00	7	Dirección del viento	6.44
95583	7	Sololá	704	Santa Lucía Utatlán 	7	Santa Rita 	5	Mayo	2023-05-24T00:00:00	2024-11-08T14:00:00	1	Precipitación	0
95584	7	Sololá	704	Santa Lucía Utatlán 	7	Santa Rita 	5	Mayo	2023-05-24T00:00:00	2024-11-08T14:00:00	8	Radiación solar	784
95585	7	Sololá	704	Santa Lucía Utatlán 	7	Santa Rita 	5	Mayo	2023-05-24T00:00:00	2024-11-08T15:00:00	2	Temperatura media	25.6
95586	7	Sololá	704	Santa Lucía Utatlán 	7	Santa Rita 	5	Mayo	2023-05-24T00:00:00	2024-11-08T15:00:00	4	Temperatura máxima	26
95587	7	Sololá	704	Santa Lucía Utatlán 	7	Santa Rita 	5	Mayo	2023-05-24T00:00:00	2024-11-08T15:00:00	3	Temperatura mínima	25.2
95588	7	Sololá	704	Santa Lucía Utatlán 	7	Santa Rita 	5	Mayo	2023-05-24T00:00:00	2024-11-08T15:00:00	5	Humedad	67
95589	7	Sololá	704	Santa Lucía Utatlán 	7	Santa Rita 	5	Mayo	2023-05-24T00:00:00	2024-11-08T15:00:00	6	Velocidad del viento	8
95590	7	Sololá	704	Santa Lucía Utatlán 	7	Santa Rita 	5	Mayo	2023-05-24T00:00:00	2024-11-08T15:00:00	7	Dirección del viento	8.05
95591	7	Sololá	704	Santa Lucía Utatlán 	7	Santa Rita 	5	Mayo	2023-05-24T00:00:00	2024-11-08T15:00:00	1	Precipitación	0
95592	7	Sololá	704	Santa Lucía Utatlán 	7	Santa Rita 	5	Mayo	2023-05-24T00:00:00	2024-11-08T15:00:00	8	Radiación solar	901
95593	7	Sololá	704	Santa Lucía Utatlán 	7	Santa Rita 	5	Mayo	2023-05-24T00:00:00	2024-11-08T16:00:00	2	Temperatura media	25.1
95594	7	Sololá	704	Santa Lucía Utatlán 	7	Santa Rita 	5	Mayo	2023-05-24T00:00:00	2024-11-08T16:00:00	4	Temperatura máxima	25.6
95595	7	Sololá	704	Santa Lucía Utatlán 	7	Santa Rita 	5	Mayo	2023-05-24T00:00:00	2024-11-08T16:00:00	3	Temperatura mínima	24.5
95596	7	Sololá	704	Santa Lucía Utatlán 	7	Santa Rita 	5	Mayo	2023-05-24T00:00:00	2024-11-08T16:00:00	5	Humedad	73
95597	7	Sololá	704	Santa Lucía Utatlán 	7	Santa Rita 	5	Mayo	2023-05-24T00:00:00	2024-11-08T16:00:00	6	Velocidad del viento	8
95598	7	Sololá	704	Santa Lucía Utatlán 	7	Santa Rita 	5	Mayo	2023-05-24T00:00:00	2024-11-08T16:00:00	7	Dirección del viento	8.05
95599	7	Sololá	704	Santa Lucía Utatlán 	7	Santa Rita 	5	Mayo	2023-05-24T00:00:00	2024-11-08T16:00:00	1	Precipitación	0
95600	7	Sololá	704	Santa Lucía Utatlán 	7	Santa Rita 	5	Mayo	2023-05-24T00:00:00	2024-11-08T16:00:00	8	Radiación solar	577
95601	7	Sololá	704	Santa Lucía Utatlán 	7	Santa Rita 	5	Mayo	2023-05-24T00:00:00	2024-11-08T17:00:00	2	Temperatura media	23.4
95602	7	Sololá	704	Santa Lucía Utatlán 	7	Santa Rita 	5	Mayo	2023-05-24T00:00:00	2024-11-08T17:00:00	4	Temperatura máxima	25.1
95603	7	Sololá	704	Santa Lucía Utatlán 	7	Santa Rita 	5	Mayo	2023-05-24T00:00:00	2024-11-08T17:00:00	3	Temperatura mínima	23.4
95604	7	Sololá	704	Santa Lucía Utatlán 	7	Santa Rita 	5	Mayo	2023-05-24T00:00:00	2024-11-08T17:00:00	5	Humedad	80
95605	7	Sololá	704	Santa Lucía Utatlán 	7	Santa Rita 	5	Mayo	2023-05-24T00:00:00	2024-11-08T17:00:00	6	Velocidad del viento	6.4
95606	7	Sololá	704	Santa Lucía Utatlán 	7	Santa Rita 	5	Mayo	2023-05-24T00:00:00	2024-11-08T17:00:00	7	Dirección del viento	6.44
95607	7	Sololá	704	Santa Lucía Utatlán 	7	Santa Rita 	5	Mayo	2023-05-24T00:00:00	2024-11-08T17:00:00	1	Precipitación	0
95608	7	Sololá	704	Santa Lucía Utatlán 	7	Santa Rita 	5	Mayo	2023-05-24T00:00:00	2024-11-08T17:00:00	8	Radiación solar	220
95609	7	Sololá	704	Santa Lucía Utatlán 	7	Santa Rita 	5	Mayo	2023-05-24T00:00:00	2024-11-08T18:00:00	2	Temperatura media	22.9
95610	7	Sololá	704	Santa Lucía Utatlán 	7	Santa Rita 	5	Mayo	2023-05-24T00:00:00	2024-11-08T18:00:00	4	Temperatura máxima	23.6
95611	7	Sololá	704	Santa Lucía Utatlán 	7	Santa Rita 	5	Mayo	2023-05-24T00:00:00	2024-11-08T18:00:00	3	Temperatura mínima	22.8
95612	7	Sololá	704	Santa Lucía Utatlán 	7	Santa Rita 	5	Mayo	2023-05-24T00:00:00	2024-11-08T18:00:00	5	Humedad	84
95613	7	Sololá	704	Santa Lucía Utatlán 	7	Santa Rita 	5	Mayo	2023-05-24T00:00:00	2024-11-08T18:00:00	6	Velocidad del viento	3.2
95614	7	Sololá	704	Santa Lucía Utatlán 	7	Santa Rita 	5	Mayo	2023-05-24T00:00:00	2024-11-08T18:00:00	7	Dirección del viento	3.22
95615	7	Sololá	704	Santa Lucía Utatlán 	7	Santa Rita 	5	Mayo	2023-05-24T00:00:00	2024-11-08T18:00:00	1	Precipitación	0
95616	7	Sololá	704	Santa Lucía Utatlán 	7	Santa Rita 	5	Mayo	2023-05-24T00:00:00	2024-11-08T18:00:00	8	Radiación solar	90
95617	7	Sololá	704	Santa Lucía Utatlán 	7	Santa Rita 	5	Mayo	2023-05-24T00:00:00	2024-11-08T19:00:00	2	Temperatura media	22.1
95618	7	Sololá	704	Santa Lucía Utatlán 	7	Santa Rita 	5	Mayo	2023-05-24T00:00:00	2024-11-08T19:00:00	4	Temperatura máxima	22.8
95619	7	Sololá	704	Santa Lucía Utatlán 	7	Santa Rita 	5	Mayo	2023-05-24T00:00:00	2024-11-08T19:00:00	3	Temperatura mínima	22.1
95620	7	Sololá	704	Santa Lucía Utatlán 	7	Santa Rita 	5	Mayo	2023-05-24T00:00:00	2024-11-08T19:00:00	5	Humedad	86
95621	7	Sololá	704	Santa Lucía Utatlán 	7	Santa Rita 	5	Mayo	2023-05-24T00:00:00	2024-11-08T19:00:00	6	Velocidad del viento	3.2
95622	7	Sololá	704	Santa Lucía Utatlán 	7	Santa Rita 	5	Mayo	2023-05-24T00:00:00	2024-11-08T19:00:00	7	Dirección del viento	3.22
95623	7	Sololá	704	Santa Lucía Utatlán 	7	Santa Rita 	5	Mayo	2023-05-24T00:00:00	2024-11-08T19:00:00	1	Precipitación	0
95624	7	Sololá	704	Santa Lucía Utatlán 	7	Santa Rita 	5	Mayo	2023-05-24T00:00:00	2024-11-08T19:00:00	8	Radiación solar	0
95625	7	Sololá	704	Santa Lucía Utatlán 	7	Santa Rita 	5	Mayo	2023-05-24T00:00:00	2024-11-08T20:00:00	2	Temperatura media	21.8
95626	7	Sololá	704	Santa Lucía Utatlán 	7	Santa Rita 	5	Mayo	2023-05-24T00:00:00	2024-11-08T20:00:00	4	Temperatura máxima	22.1
95627	7	Sololá	704	Santa Lucía Utatlán 	7	Santa Rita 	5	Mayo	2023-05-24T00:00:00	2024-11-08T20:00:00	3	Temperatura mínima	21.8
95628	7	Sololá	704	Santa Lucía Utatlán 	7	Santa Rita 	5	Mayo	2023-05-24T00:00:00	2024-11-08T20:00:00	5	Humedad	90
95629	7	Sololá	704	Santa Lucía Utatlán 	7	Santa Rita 	5	Mayo	2023-05-24T00:00:00	2024-11-08T20:00:00	6	Velocidad del viento	1.6
95630	7	Sololá	704	Santa Lucía Utatlán 	7	Santa Rita 	5	Mayo	2023-05-24T00:00:00	2024-11-08T20:00:00	7	Dirección del viento	1.61
95631	7	Sololá	704	Santa Lucía Utatlán 	7	Santa Rita 	5	Mayo	2023-05-24T00:00:00	2024-11-08T20:00:00	1	Precipitación	0
95632	7	Sololá	704	Santa Lucía Utatlán 	7	Santa Rita 	5	Mayo	2023-05-24T00:00:00	2024-11-08T20:00:00	8	Radiación solar	0
95633	7	Sololá	704	Santa Lucía Utatlán 	7	Santa Rita 	5	Mayo	2023-05-24T00:00:00	2024-11-08T21:00:00	2	Temperatura media	21.3
95634	7	Sololá	704	Santa Lucía Utatlán 	7	Santa Rita 	5	Mayo	2023-05-24T00:00:00	2024-11-08T21:00:00	4	Temperatura máxima	21.8
95635	7	Sololá	704	Santa Lucía Utatlán 	7	Santa Rita 	5	Mayo	2023-05-24T00:00:00	2024-11-08T21:00:00	3	Temperatura mínima	21.3
95636	7	Sololá	704	Santa Lucía Utatlán 	7	Santa Rita 	5	Mayo	2023-05-24T00:00:00	2024-11-08T21:00:00	5	Humedad	89
95637	7	Sololá	704	Santa Lucía Utatlán 	7	Santa Rita 	5	Mayo	2023-05-24T00:00:00	2024-11-08T21:00:00	6	Velocidad del viento	0
95638	7	Sololá	704	Santa Lucía Utatlán 	7	Santa Rita 	5	Mayo	2023-05-24T00:00:00	2024-11-08T21:00:00	7	Dirección del viento	0
95639	7	Sololá	704	Santa Lucía Utatlán 	7	Santa Rita 	5	Mayo	2023-05-24T00:00:00	2024-11-08T21:00:00	1	Precipitación	0
95640	7	Sololá	704	Santa Lucía Utatlán 	7	Santa Rita 	5	Mayo	2023-05-24T00:00:00	2024-11-08T21:00:00	8	Radiación solar	0
95641	7	Sololá	704	Santa Lucía Utatlán 	7	Santa Rita 	5	Mayo	2023-05-24T00:00:00	2024-11-08T22:00:00	2	Temperatura media	20.9
95642	7	Sololá	704	Santa Lucía Utatlán 	7	Santa Rita 	5	Mayo	2023-05-24T00:00:00	2024-11-08T22:00:00	4	Temperatura máxima	21.3
95643	7	Sololá	704	Santa Lucía Utatlán 	7	Santa Rita 	5	Mayo	2023-05-24T00:00:00	2024-11-08T22:00:00	3	Temperatura mínima	20.8
95644	7	Sololá	704	Santa Lucía Utatlán 	7	Santa Rita 	5	Mayo	2023-05-24T00:00:00	2024-11-08T22:00:00	5	Humedad	85
95645	7	Sololá	704	Santa Lucía Utatlán 	7	Santa Rita 	5	Mayo	2023-05-24T00:00:00	2024-11-08T22:00:00	6	Velocidad del viento	1.6
95646	7	Sololá	704	Santa Lucía Utatlán 	7	Santa Rita 	5	Mayo	2023-05-24T00:00:00	2024-11-08T22:00:00	7	Dirección del viento	1.61
95647	7	Sololá	704	Santa Lucía Utatlán 	7	Santa Rita 	5	Mayo	2023-05-24T00:00:00	2024-11-08T22:00:00	1	Precipitación	0
95648	7	Sololá	704	Santa Lucía Utatlán 	7	Santa Rita 	5	Mayo	2023-05-24T00:00:00	2024-11-08T22:00:00	8	Radiación solar	0
95649	7	Sololá	704	Santa Lucía Utatlán 	7	Santa Rita 	5	Mayo	2023-05-24T00:00:00	2024-11-08T23:00:00	2	Temperatura media	20.5
95650	7	Sololá	704	Santa Lucía Utatlán 	7	Santa Rita 	5	Mayo	2023-05-24T00:00:00	2024-11-08T23:00:00	4	Temperatura máxima	20.9
95651	7	Sololá	704	Santa Lucía Utatlán 	7	Santa Rita 	5	Mayo	2023-05-24T00:00:00	2024-11-08T23:00:00	3	Temperatura mínima	20.4
95652	7	Sololá	704	Santa Lucía Utatlán 	7	Santa Rita 	5	Mayo	2023-05-24T00:00:00	2024-11-08T23:00:00	5	Humedad	88
95653	7	Sololá	704	Santa Lucía Utatlán 	7	Santa Rita 	5	Mayo	2023-05-24T00:00:00	2024-11-08T23:00:00	6	Velocidad del viento	0
95654	7	Sololá	704	Santa Lucía Utatlán 	7	Santa Rita 	5	Mayo	2023-05-24T00:00:00	2024-11-08T23:00:00	7	Dirección del viento	0
95655	7	Sololá	704	Santa Lucía Utatlán 	7	Santa Rita 	5	Mayo	2023-05-24T00:00:00	2024-11-08T23:00:00	1	Precipitación	0
95656	7	Sololá	704	Santa Lucía Utatlán 	7	Santa Rita 	5	Mayo	2023-05-24T00:00:00	2024-11-08T23:00:00	8	Radiación solar	0
95657	7	Sololá	704	Santa Lucía Utatlán 	7	Santa Rita 	5	Mayo	2023-05-25T00:00:00	2024-11-08T00:00:00	2	Temperatura media	20
95658	7	Sololá	704	Santa Lucía Utatlán 	7	Santa Rita 	5	Mayo	2023-05-25T00:00:00	2024-11-08T00:00:00	4	Temperatura máxima	20.5
95659	7	Sololá	704	Santa Lucía Utatlán 	7	Santa Rita 	5	Mayo	2023-05-25T00:00:00	2024-11-08T00:00:00	3	Temperatura mínima	20
95660	7	Sololá	704	Santa Lucía Utatlán 	7	Santa Rita 	5	Mayo	2023-05-25T00:00:00	2024-11-08T00:00:00	5	Humedad	88
95661	7	Sololá	704	Santa Lucía Utatlán 	7	Santa Rita 	5	Mayo	2023-05-25T00:00:00	2024-11-08T00:00:00	6	Velocidad del viento	0
95662	7	Sololá	704	Santa Lucía Utatlán 	7	Santa Rita 	5	Mayo	2023-05-25T00:00:00	2024-11-08T00:00:00	7	Dirección del viento	0
95663	7	Sololá	704	Santa Lucía Utatlán 	7	Santa Rita 	5	Mayo	2023-05-25T00:00:00	2024-11-08T00:00:00	1	Precipitación	0
95664	7	Sololá	704	Santa Lucía Utatlán 	7	Santa Rita 	5	Mayo	2023-05-25T00:00:00	2024-11-08T00:00:00	8	Radiación solar	0
95665	7	Sololá	704	Santa Lucía Utatlán 	7	Santa Rita 	5	Mayo	2023-05-25T00:00:00	2024-11-08T01:00:00	2	Temperatura media	18.8
95666	7	Sololá	704	Santa Lucía Utatlán 	7	Santa Rita 	5	Mayo	2023-05-25T00:00:00	2024-11-08T01:00:00	4	Temperatura máxima	20
95667	7	Sololá	704	Santa Lucía Utatlán 	7	Santa Rita 	5	Mayo	2023-05-25T00:00:00	2024-11-08T01:00:00	3	Temperatura mínima	18.8
95668	7	Sololá	704	Santa Lucía Utatlán 	7	Santa Rita 	5	Mayo	2023-05-25T00:00:00	2024-11-08T01:00:00	5	Humedad	91
95669	7	Sololá	704	Santa Lucía Utatlán 	7	Santa Rita 	5	Mayo	2023-05-25T00:00:00	2024-11-08T01:00:00	6	Velocidad del viento	1.6
95670	7	Sololá	704	Santa Lucía Utatlán 	7	Santa Rita 	5	Mayo	2023-05-25T00:00:00	2024-11-08T01:00:00	7	Dirección del viento	1.61
95671	7	Sololá	704	Santa Lucía Utatlán 	7	Santa Rita 	5	Mayo	2023-05-25T00:00:00	2024-11-08T01:00:00	1	Precipitación	0
95672	7	Sololá	704	Santa Lucía Utatlán 	7	Santa Rita 	5	Mayo	2023-05-25T00:00:00	2024-11-08T01:00:00	8	Radiación solar	0
95673	7	Sololá	704	Santa Lucía Utatlán 	7	Santa Rita 	5	Mayo	2023-05-25T00:00:00	2024-11-08T02:00:00	2	Temperatura media	18.4
95674	7	Sololá	704	Santa Lucía Utatlán 	7	Santa Rita 	5	Mayo	2023-05-25T00:00:00	2024-11-08T02:00:00	4	Temperatura máxima	18.8
95675	7	Sololá	704	Santa Lucía Utatlán 	7	Santa Rita 	5	Mayo	2023-05-25T00:00:00	2024-11-08T02:00:00	3	Temperatura mínima	18.4
95676	7	Sololá	704	Santa Lucía Utatlán 	7	Santa Rita 	5	Mayo	2023-05-25T00:00:00	2024-11-08T02:00:00	5	Humedad	92
95677	7	Sololá	704	Santa Lucía Utatlán 	7	Santa Rita 	5	Mayo	2023-05-25T00:00:00	2024-11-08T02:00:00	6	Velocidad del viento	0
95678	7	Sololá	704	Santa Lucía Utatlán 	7	Santa Rita 	5	Mayo	2023-05-25T00:00:00	2024-11-08T02:00:00	7	Dirección del viento	0
95679	7	Sololá	704	Santa Lucía Utatlán 	7	Santa Rita 	5	Mayo	2023-05-25T00:00:00	2024-11-08T02:00:00	1	Precipitación	0
95680	7	Sololá	704	Santa Lucía Utatlán 	7	Santa Rita 	5	Mayo	2023-05-25T00:00:00	2024-11-08T02:00:00	8	Radiación solar	0
95681	7	Sololá	704	Santa Lucía Utatlán 	7	Santa Rita 	5	Mayo	2023-05-25T00:00:00	2024-11-08T03:00:00	2	Temperatura media	17.8
95682	7	Sololá	704	Santa Lucía Utatlán 	7	Santa Rita 	5	Mayo	2023-05-25T00:00:00	2024-11-08T03:00:00	4	Temperatura máxima	18.4
95683	7	Sololá	704	Santa Lucía Utatlán 	7	Santa Rita 	5	Mayo	2023-05-25T00:00:00	2024-11-08T03:00:00	3	Temperatura mínima	17.8
95684	7	Sololá	704	Santa Lucía Utatlán 	7	Santa Rita 	5	Mayo	2023-05-25T00:00:00	2024-11-08T03:00:00	5	Humedad	89
95685	7	Sololá	704	Santa Lucía Utatlán 	7	Santa Rita 	5	Mayo	2023-05-25T00:00:00	2024-11-08T03:00:00	6	Velocidad del viento	1.6
95686	7	Sololá	704	Santa Lucía Utatlán 	7	Santa Rita 	5	Mayo	2023-05-25T00:00:00	2024-11-08T03:00:00	7	Dirección del viento	1.61
95687	7	Sololá	704	Santa Lucía Utatlán 	7	Santa Rita 	5	Mayo	2023-05-25T00:00:00	2024-11-08T03:00:00	1	Precipitación	0
95688	7	Sololá	704	Santa Lucía Utatlán 	7	Santa Rita 	5	Mayo	2023-05-25T00:00:00	2024-11-08T03:00:00	8	Radiación solar	0
95689	7	Sololá	704	Santa Lucía Utatlán 	7	Santa Rita 	5	Mayo	2023-05-25T00:00:00	2024-11-08T04:00:00	2	Temperatura media	17
95690	7	Sololá	704	Santa Lucía Utatlán 	7	Santa Rita 	5	Mayo	2023-05-25T00:00:00	2024-11-08T04:00:00	4	Temperatura máxima	17.8
95691	7	Sololá	704	Santa Lucía Utatlán 	7	Santa Rita 	5	Mayo	2023-05-25T00:00:00	2024-11-08T04:00:00	3	Temperatura mínima	17
95692	7	Sololá	704	Santa Lucía Utatlán 	7	Santa Rita 	5	Mayo	2023-05-25T00:00:00	2024-11-08T04:00:00	5	Humedad	81
95693	7	Sololá	704	Santa Lucía Utatlán 	7	Santa Rita 	5	Mayo	2023-05-25T00:00:00	2024-11-08T04:00:00	6	Velocidad del viento	1.6
95694	7	Sololá	704	Santa Lucía Utatlán 	7	Santa Rita 	5	Mayo	2023-05-25T00:00:00	2024-11-08T04:00:00	7	Dirección del viento	1.61
95695	7	Sololá	704	Santa Lucía Utatlán 	7	Santa Rita 	5	Mayo	2023-05-25T00:00:00	2024-11-08T04:00:00	1	Precipitación	0
95696	7	Sololá	704	Santa Lucía Utatlán 	7	Santa Rita 	5	Mayo	2023-05-25T00:00:00	2024-11-08T04:00:00	8	Radiación solar	0
95697	7	Sololá	704	Santa Lucía Utatlán 	7	Santa Rita 	5	Mayo	2023-05-25T00:00:00	2024-11-08T05:00:00	2	Temperatura media	16.6
95698	7	Sololá	704	Santa Lucía Utatlán 	7	Santa Rita 	5	Mayo	2023-05-25T00:00:00	2024-11-08T05:00:00	4	Temperatura máxima	17.1
95699	7	Sololá	704	Santa Lucía Utatlán 	7	Santa Rita 	5	Mayo	2023-05-25T00:00:00	2024-11-08T05:00:00	3	Temperatura mínima	16.6
95700	7	Sololá	704	Santa Lucía Utatlán 	7	Santa Rita 	5	Mayo	2023-05-25T00:00:00	2024-11-08T05:00:00	5	Humedad	83
95701	7	Sololá	704	Santa Lucía Utatlán 	7	Santa Rita 	5	Mayo	2023-05-25T00:00:00	2024-11-08T05:00:00	6	Velocidad del viento	1.6
95702	7	Sololá	704	Santa Lucía Utatlán 	7	Santa Rita 	5	Mayo	2023-05-25T00:00:00	2024-11-08T05:00:00	7	Dirección del viento	1.61
95703	7	Sololá	704	Santa Lucía Utatlán 	7	Santa Rita 	5	Mayo	2023-05-25T00:00:00	2024-11-08T05:00:00	1	Precipitación	0
95704	7	Sololá	704	Santa Lucía Utatlán 	7	Santa Rita 	5	Mayo	2023-05-25T00:00:00	2024-11-08T05:00:00	8	Radiación solar	0
95705	7	Sololá	704	Santa Lucía Utatlán 	7	Santa Rita 	5	Mayo	2023-05-25T00:00:00	2024-11-08T06:00:00	2	Temperatura media	16.9
95706	7	Sololá	704	Santa Lucía Utatlán 	7	Santa Rita 	5	Mayo	2023-05-25T00:00:00	2024-11-08T06:00:00	4	Temperatura máxima	17.1
95707	7	Sololá	704	Santa Lucía Utatlán 	7	Santa Rita 	5	Mayo	2023-05-25T00:00:00	2024-11-08T06:00:00	3	Temperatura mínima	16.6
95708	7	Sololá	704	Santa Lucía Utatlán 	7	Santa Rita 	5	Mayo	2023-05-25T00:00:00	2024-11-08T06:00:00	5	Humedad	85
95709	7	Sololá	704	Santa Lucía Utatlán 	7	Santa Rita 	5	Mayo	2023-05-25T00:00:00	2024-11-08T06:00:00	6	Velocidad del viento	1.6
95710	7	Sololá	704	Santa Lucía Utatlán 	7	Santa Rita 	5	Mayo	2023-05-25T00:00:00	2024-11-08T06:00:00	7	Dirección del viento	1.61
95711	7	Sololá	704	Santa Lucía Utatlán 	7	Santa Rita 	5	Mayo	2023-05-25T00:00:00	2024-11-08T06:00:00	1	Precipitación	0
95712	7	Sololá	704	Santa Lucía Utatlán 	7	Santa Rita 	5	Mayo	2023-05-25T00:00:00	2024-11-08T06:00:00	8	Radiación solar	0
95713	7	Sololá	704	Santa Lucía Utatlán 	7	Santa Rita 	5	Mayo	2023-05-25T00:00:00	2024-11-08T07:00:00	2	Temperatura media	17.5
95714	7	Sololá	704	Santa Lucía Utatlán 	7	Santa Rita 	5	Mayo	2023-05-25T00:00:00	2024-11-08T07:00:00	4	Temperatura máxima	17.5
95715	7	Sololá	704	Santa Lucía Utatlán 	7	Santa Rita 	5	Mayo	2023-05-25T00:00:00	2024-11-08T07:00:00	3	Temperatura mínima	16.8
95716	7	Sololá	704	Santa Lucía Utatlán 	7	Santa Rita 	5	Mayo	2023-05-25T00:00:00	2024-11-08T07:00:00	5	Humedad	86
95717	7	Sololá	704	Santa Lucía Utatlán 	7	Santa Rita 	5	Mayo	2023-05-25T00:00:00	2024-11-08T07:00:00	6	Velocidad del viento	1.6
95718	7	Sololá	704	Santa Lucía Utatlán 	7	Santa Rita 	5	Mayo	2023-05-25T00:00:00	2024-11-08T07:00:00	7	Dirección del viento	1.61
95719	7	Sololá	704	Santa Lucía Utatlán 	7	Santa Rita 	5	Mayo	2023-05-25T00:00:00	2024-11-08T07:00:00	1	Precipitación	0
95720	7	Sololá	704	Santa Lucía Utatlán 	7	Santa Rita 	5	Mayo	2023-05-25T00:00:00	2024-11-08T07:00:00	8	Radiación solar	14
95721	7	Sololá	704	Santa Lucía Utatlán 	7	Santa Rita 	5	Mayo	2023-05-25T00:00:00	2024-11-08T08:00:00	2	Temperatura media	19.3
95722	7	Sololá	704	Santa Lucía Utatlán 	7	Santa Rita 	5	Mayo	2023-05-25T00:00:00	2024-11-08T08:00:00	4	Temperatura máxima	19.3
95723	7	Sololá	704	Santa Lucía Utatlán 	7	Santa Rita 	5	Mayo	2023-05-25T00:00:00	2024-11-08T08:00:00	3	Temperatura mínima	17.5
95724	7	Sololá	704	Santa Lucía Utatlán 	7	Santa Rita 	5	Mayo	2023-05-25T00:00:00	2024-11-08T08:00:00	5	Humedad	85
95725	7	Sololá	704	Santa Lucía Utatlán 	7	Santa Rita 	5	Mayo	2023-05-25T00:00:00	2024-11-08T08:00:00	6	Velocidad del viento	0
95726	7	Sololá	704	Santa Lucía Utatlán 	7	Santa Rita 	5	Mayo	2023-05-25T00:00:00	2024-11-08T08:00:00	7	Dirección del viento	0
95727	7	Sololá	704	Santa Lucía Utatlán 	7	Santa Rita 	5	Mayo	2023-05-25T00:00:00	2024-11-08T08:00:00	1	Precipitación	0
95728	7	Sololá	704	Santa Lucía Utatlán 	7	Santa Rita 	5	Mayo	2023-05-25T00:00:00	2024-11-08T08:00:00	8	Radiación solar	120
95729	7	Sololá	704	Santa Lucía Utatlán 	7	Santa Rita 	5	Mayo	2023-05-25T00:00:00	2024-11-08T09:00:00	2	Temperatura media	22.1
95730	7	Sololá	704	Santa Lucía Utatlán 	7	Santa Rita 	5	Mayo	2023-05-25T00:00:00	2024-11-08T09:00:00	4	Temperatura máxima	22.1
95731	7	Sololá	704	Santa Lucía Utatlán 	7	Santa Rita 	5	Mayo	2023-05-25T00:00:00	2024-11-08T09:00:00	3	Temperatura mínima	19.3
95732	7	Sololá	704	Santa Lucía Utatlán 	7	Santa Rita 	5	Mayo	2023-05-25T00:00:00	2024-11-08T09:00:00	5	Humedad	72
95733	7	Sololá	704	Santa Lucía Utatlán 	7	Santa Rita 	5	Mayo	2023-05-25T00:00:00	2024-11-08T09:00:00	6	Velocidad del viento	1.6
95734	7	Sololá	704	Santa Lucía Utatlán 	7	Santa Rita 	5	Mayo	2023-05-25T00:00:00	2024-11-08T09:00:00	7	Dirección del viento	1.61
95735	7	Sololá	704	Santa Lucía Utatlán 	7	Santa Rita 	5	Mayo	2023-05-25T00:00:00	2024-11-08T09:00:00	1	Precipitación	0
95736	7	Sololá	704	Santa Lucía Utatlán 	7	Santa Rita 	5	Mayo	2023-05-25T00:00:00	2024-11-08T09:00:00	8	Radiación solar	359
95737	7	Sololá	704	Santa Lucía Utatlán 	7	Santa Rita 	5	Mayo	2023-05-25T00:00:00	2024-11-08T10:00:00	2	Temperatura media	24.2
95738	7	Sololá	704	Santa Lucía Utatlán 	7	Santa Rita 	5	Mayo	2023-05-25T00:00:00	2024-11-08T10:00:00	4	Temperatura máxima	24.2
95739	7	Sololá	704	Santa Lucía Utatlán 	7	Santa Rita 	5	Mayo	2023-05-25T00:00:00	2024-11-08T10:00:00	3	Temperatura mínima	22.1
95740	7	Sololá	704	Santa Lucía Utatlán 	7	Santa Rita 	5	Mayo	2023-05-25T00:00:00	2024-11-08T10:00:00	5	Humedad	67
95741	7	Sololá	704	Santa Lucía Utatlán 	7	Santa Rita 	5	Mayo	2023-05-25T00:00:00	2024-11-08T10:00:00	6	Velocidad del viento	4.8
95742	7	Sololá	704	Santa Lucía Utatlán 	7	Santa Rita 	5	Mayo	2023-05-25T00:00:00	2024-11-08T10:00:00	7	Dirección del viento	4.83
95743	7	Sololá	704	Santa Lucía Utatlán 	7	Santa Rita 	5	Mayo	2023-05-25T00:00:00	2024-11-08T10:00:00	1	Precipitación	0
95744	7	Sololá	704	Santa Lucía Utatlán 	7	Santa Rita 	5	Mayo	2023-05-25T00:00:00	2024-11-08T10:00:00	8	Radiación solar	641
95745	7	Sololá	704	Santa Lucía Utatlán 	7	Santa Rita 	5	Mayo	2023-05-25T00:00:00	2024-11-08T11:00:00	2	Temperatura media	24.3
95746	7	Sololá	704	Santa Lucía Utatlán 	7	Santa Rita 	5	Mayo	2023-05-25T00:00:00	2024-11-08T11:00:00	4	Temperatura máxima	24.3
95747	7	Sololá	704	Santa Lucía Utatlán 	7	Santa Rita 	5	Mayo	2023-05-25T00:00:00	2024-11-08T11:00:00	3	Temperatura mínima	24.3
95748	7	Sololá	704	Santa Lucía Utatlán 	7	Santa Rita 	5	Mayo	2023-05-25T00:00:00	2024-11-08T11:00:00	5	Humedad	65
95749	7	Sololá	704	Santa Lucía Utatlán 	7	Santa Rita 	5	Mayo	2023-05-25T00:00:00	2024-11-08T11:00:00	6	Velocidad del viento	6.4
95750	7	Sololá	704	Santa Lucía Utatlán 	7	Santa Rita 	5	Mayo	2023-05-25T00:00:00	2024-11-08T11:00:00	7	Dirección del viento	0.11
95751	7	Sololá	704	Santa Lucía Utatlán 	7	Santa Rita 	5	Mayo	2023-05-25T00:00:00	2024-11-08T11:00:00	1	Precipitación	0
95752	7	Sololá	704	Santa Lucía Utatlán 	7	Santa Rita 	5	Mayo	2023-05-25T00:00:00	2024-11-08T11:00:00	8	Radiación solar	279
95753	7	Sololá	704	Santa Lucía Utatlán 	7	Santa Rita 	5	Mayo	2023-05-25T00:00:00	2024-11-08T12:00:00	2	Temperatura media	25.3
95754	7	Sololá	704	Santa Lucía Utatlán 	7	Santa Rita 	5	Mayo	2023-05-25T00:00:00	2024-11-08T12:00:00	4	Temperatura máxima	25.9
95755	7	Sololá	704	Santa Lucía Utatlán 	7	Santa Rita 	5	Mayo	2023-05-25T00:00:00	2024-11-08T12:00:00	3	Temperatura mínima	24.6
95756	7	Sololá	704	Santa Lucía Utatlán 	7	Santa Rita 	5	Mayo	2023-05-25T00:00:00	2024-11-08T12:00:00	5	Humedad	59
95757	7	Sololá	704	Santa Lucía Utatlán 	7	Santa Rita 	5	Mayo	2023-05-25T00:00:00	2024-11-08T12:00:00	6	Velocidad del viento	4.8
95758	7	Sololá	704	Santa Lucía Utatlán 	7	Santa Rita 	5	Mayo	2023-05-25T00:00:00	2024-11-08T12:00:00	7	Dirección del viento	4.83
95759	7	Sololá	704	Santa Lucía Utatlán 	7	Santa Rita 	5	Mayo	2023-05-25T00:00:00	2024-11-08T12:00:00	1	Precipitación	0
95760	7	Sololá	704	Santa Lucía Utatlán 	7	Santa Rita 	5	Mayo	2023-05-25T00:00:00	2024-11-08T12:00:00	8	Radiación solar	557
95761	7	Sololá	704	Santa Lucía Utatlán 	7	Santa Rita 	5	Mayo	2023-05-25T00:00:00	2024-11-08T13:00:00	2	Temperatura media	24.6
95762	7	Sololá	704	Santa Lucía Utatlán 	7	Santa Rita 	5	Mayo	2023-05-25T00:00:00	2024-11-08T13:00:00	4	Temperatura máxima	26.1
95763	7	Sololá	704	Santa Lucía Utatlán 	7	Santa Rita 	5	Mayo	2023-05-25T00:00:00	2024-11-08T13:00:00	3	Temperatura mínima	24.6
95764	7	Sololá	704	Santa Lucía Utatlán 	7	Santa Rita 	5	Mayo	2023-05-25T00:00:00	2024-11-08T13:00:00	5	Humedad	72
95765	7	Sololá	704	Santa Lucía Utatlán 	7	Santa Rita 	5	Mayo	2023-05-25T00:00:00	2024-11-08T13:00:00	6	Velocidad del viento	6.4
95766	7	Sololá	704	Santa Lucía Utatlán 	7	Santa Rita 	5	Mayo	2023-05-25T00:00:00	2024-11-08T13:00:00	7	Dirección del viento	6.44
95767	7	Sololá	704	Santa Lucía Utatlán 	7	Santa Rita 	5	Mayo	2023-05-25T00:00:00	2024-11-08T13:00:00	1	Precipitación	0
95768	7	Sololá	704	Santa Lucía Utatlán 	7	Santa Rita 	5	Mayo	2023-05-25T00:00:00	2024-11-08T13:00:00	8	Radiación solar	420
95769	7	Sololá	704	Santa Lucía Utatlán 	7	Santa Rita 	5	Mayo	2023-05-25T00:00:00	2024-11-08T14:00:00	2	Temperatura media	23.7
95770	7	Sololá	704	Santa Lucía Utatlán 	7	Santa Rita 	5	Mayo	2023-05-25T00:00:00	2024-11-08T14:00:00	4	Temperatura máxima	24.6
95771	7	Sololá	704	Santa Lucía Utatlán 	7	Santa Rita 	5	Mayo	2023-05-25T00:00:00	2024-11-08T14:00:00	3	Temperatura mínima	23.4
95772	7	Sololá	704	Santa Lucía Utatlán 	7	Santa Rita 	5	Mayo	2023-05-25T00:00:00	2024-11-08T14:00:00	5	Humedad	78
95773	7	Sololá	704	Santa Lucía Utatlán 	7	Santa Rita 	5	Mayo	2023-05-25T00:00:00	2024-11-08T14:00:00	6	Velocidad del viento	4.8
95774	7	Sololá	704	Santa Lucía Utatlán 	7	Santa Rita 	5	Mayo	2023-05-25T00:00:00	2024-11-08T14:00:00	7	Dirección del viento	4.83
95775	7	Sololá	704	Santa Lucía Utatlán 	7	Santa Rita 	5	Mayo	2023-05-25T00:00:00	2024-11-08T14:00:00	1	Precipitación	0
95776	7	Sololá	704	Santa Lucía Utatlán 	7	Santa Rita 	5	Mayo	2023-05-25T00:00:00	2024-11-08T14:00:00	8	Radiación solar	159
95777	7	Sololá	704	Santa Lucía Utatlán 	7	Santa Rita 	5	Mayo	2023-05-25T00:00:00	2024-11-08T15:00:00	2	Temperatura media	23.4
95778	7	Sololá	704	Santa Lucía Utatlán 	7	Santa Rita 	5	Mayo	2023-05-25T00:00:00	2024-11-08T15:00:00	4	Temperatura máxima	23.8
95779	7	Sololá	704	Santa Lucía Utatlán 	7	Santa Rita 	5	Mayo	2023-05-25T00:00:00	2024-11-08T15:00:00	3	Temperatura mínima	23.2
95780	7	Sololá	704	Santa Lucía Utatlán 	7	Santa Rita 	5	Mayo	2023-05-25T00:00:00	2024-11-08T15:00:00	5	Humedad	81
95781	7	Sololá	704	Santa Lucía Utatlán 	7	Santa Rita 	5	Mayo	2023-05-25T00:00:00	2024-11-08T15:00:00	6	Velocidad del viento	3.2
95782	7	Sololá	704	Santa Lucía Utatlán 	7	Santa Rita 	5	Mayo	2023-05-25T00:00:00	2024-11-08T15:00:00	7	Dirección del viento	3.22
95783	7	Sololá	704	Santa Lucía Utatlán 	7	Santa Rita 	5	Mayo	2023-05-25T00:00:00	2024-11-08T15:00:00	1	Precipitación	0
95784	7	Sololá	704	Santa Lucía Utatlán 	7	Santa Rita 	5	Mayo	2023-05-25T00:00:00	2024-11-08T15:00:00	8	Radiación solar	164
95785	7	Sololá	704	Santa Lucía Utatlán 	7	Santa Rita 	5	Mayo	2023-05-25T00:00:00	2024-11-08T16:00:00	2	Temperatura media	22.6
95786	7	Sololá	704	Santa Lucía Utatlán 	7	Santa Rita 	5	Mayo	2023-05-25T00:00:00	2024-11-08T16:00:00	4	Temperatura máxima	23.4
95787	7	Sololá	704	Santa Lucía Utatlán 	7	Santa Rita 	5	Mayo	2023-05-25T00:00:00	2024-11-08T16:00:00	3	Temperatura mínima	22.6
95788	7	Sololá	704	Santa Lucía Utatlán 	7	Santa Rita 	5	Mayo	2023-05-25T00:00:00	2024-11-08T16:00:00	5	Humedad	86
95789	7	Sololá	704	Santa Lucía Utatlán 	7	Santa Rita 	5	Mayo	2023-05-25T00:00:00	2024-11-08T16:00:00	6	Velocidad del viento	3.2
95790	7	Sololá	704	Santa Lucía Utatlán 	7	Santa Rita 	5	Mayo	2023-05-25T00:00:00	2024-11-08T16:00:00	7	Dirección del viento	3.22
95791	7	Sololá	704	Santa Lucía Utatlán 	7	Santa Rita 	5	Mayo	2023-05-25T00:00:00	2024-11-08T16:00:00	1	Precipitación	0
95792	7	Sololá	704	Santa Lucía Utatlán 	7	Santa Rita 	5	Mayo	2023-05-25T00:00:00	2024-11-08T16:00:00	8	Radiación solar	56
95793	7	Sololá	704	Santa Lucía Utatlán 	7	Santa Rita 	5	Mayo	2023-05-25T00:00:00	2024-11-08T17:00:00	2	Temperatura media	21.8
95794	7	Sololá	704	Santa Lucía Utatlán 	7	Santa Rita 	5	Mayo	2023-05-25T00:00:00	2024-11-08T17:00:00	4	Temperatura máxima	22.6
95795	7	Sololá	704	Santa Lucía Utatlán 	7	Santa Rita 	5	Mayo	2023-05-25T00:00:00	2024-11-08T17:00:00	3	Temperatura mínima	21.8
95796	7	Sololá	704	Santa Lucía Utatlán 	7	Santa Rita 	5	Mayo	2023-05-25T00:00:00	2024-11-08T17:00:00	5	Humedad	88
95797	7	Sololá	704	Santa Lucía Utatlán 	7	Santa Rita 	5	Mayo	2023-05-25T00:00:00	2024-11-08T17:00:00	6	Velocidad del viento	3.2
95798	7	Sololá	704	Santa Lucía Utatlán 	7	Santa Rita 	5	Mayo	2023-05-25T00:00:00	2024-11-08T17:00:00	7	Dirección del viento	3.22
95799	7	Sololá	704	Santa Lucía Utatlán 	7	Santa Rita 	5	Mayo	2023-05-25T00:00:00	2024-11-08T17:00:00	1	Precipitación	0
95800	7	Sololá	704	Santa Lucía Utatlán 	7	Santa Rita 	5	Mayo	2023-05-25T00:00:00	2024-11-08T17:00:00	8	Radiación solar	47
95801	7	Sololá	704	Santa Lucía Utatlán 	7	Santa Rita 	5	Mayo	2023-05-25T00:00:00	2024-11-08T18:00:00	2	Temperatura media	20.2
95802	7	Sololá	704	Santa Lucía Utatlán 	7	Santa Rita 	5	Mayo	2023-05-25T00:00:00	2024-11-08T18:00:00	4	Temperatura máxima	21.8
95803	7	Sololá	704	Santa Lucía Utatlán 	7	Santa Rita 	5	Mayo	2023-05-25T00:00:00	2024-11-08T18:00:00	3	Temperatura mínima	20.2
95804	7	Sololá	704	Santa Lucía Utatlán 	7	Santa Rita 	5	Mayo	2023-05-25T00:00:00	2024-11-08T18:00:00	5	Humedad	92
95805	7	Sololá	704	Santa Lucía Utatlán 	7	Santa Rita 	5	Mayo	2023-05-25T00:00:00	2024-11-08T18:00:00	6	Velocidad del viento	1.6
95806	7	Sololá	704	Santa Lucía Utatlán 	7	Santa Rita 	5	Mayo	2023-05-25T00:00:00	2024-11-08T18:00:00	7	Dirección del viento	1.61
95807	7	Sololá	704	Santa Lucía Utatlán 	7	Santa Rita 	5	Mayo	2023-05-25T00:00:00	2024-11-08T18:00:00	1	Precipitación	4.4
95808	7	Sololá	704	Santa Lucía Utatlán 	7	Santa Rita 	5	Mayo	2023-05-25T00:00:00	2024-11-08T18:00:00	8	Radiación solar	3
95809	7	Sololá	704	Santa Lucía Utatlán 	7	Santa Rita 	5	Mayo	2023-05-25T00:00:00	2024-11-08T19:00:00	2	Temperatura media	19.8
95810	7	Sololá	704	Santa Lucía Utatlán 	7	Santa Rita 	5	Mayo	2023-05-25T00:00:00	2024-11-08T19:00:00	4	Temperatura máxima	20.3
95811	7	Sololá	704	Santa Lucía Utatlán 	7	Santa Rita 	5	Mayo	2023-05-25T00:00:00	2024-11-08T19:00:00	3	Temperatura mínima	19.8
95812	7	Sololá	704	Santa Lucía Utatlán 	7	Santa Rita 	5	Mayo	2023-05-25T00:00:00	2024-11-08T19:00:00	5	Humedad	93
95813	7	Sololá	704	Santa Lucía Utatlán 	7	Santa Rita 	5	Mayo	2023-05-25T00:00:00	2024-11-08T19:00:00	6	Velocidad del viento	1.6
95814	7	Sololá	704	Santa Lucía Utatlán 	7	Santa Rita 	5	Mayo	2023-05-25T00:00:00	2024-11-08T19:00:00	7	Dirección del viento	1.61
95815	7	Sololá	704	Santa Lucía Utatlán 	7	Santa Rita 	5	Mayo	2023-05-25T00:00:00	2024-11-08T19:00:00	1	Precipitación	0
95816	7	Sololá	704	Santa Lucía Utatlán 	7	Santa Rita 	5	Mayo	2023-05-25T00:00:00	2024-11-08T19:00:00	8	Radiación solar	0
95817	7	Sololá	704	Santa Lucía Utatlán 	7	Santa Rita 	5	Mayo	2023-05-25T00:00:00	2024-11-08T20:00:00	2	Temperatura media	19.8
95818	7	Sololá	704	Santa Lucía Utatlán 	7	Santa Rita 	5	Mayo	2023-05-25T00:00:00	2024-11-08T20:00:00	4	Temperatura máxima	19.9
95819	7	Sololá	704	Santa Lucía Utatlán 	7	Santa Rita 	5	Mayo	2023-05-25T00:00:00	2024-11-08T20:00:00	3	Temperatura mínima	19.6
95820	7	Sololá	704	Santa Lucía Utatlán 	7	Santa Rita 	5	Mayo	2023-05-25T00:00:00	2024-11-08T20:00:00	5	Humedad	95
95821	7	Sololá	704	Santa Lucía Utatlán 	7	Santa Rita 	5	Mayo	2023-05-25T00:00:00	2024-11-08T20:00:00	6	Velocidad del viento	1.6
95822	7	Sololá	704	Santa Lucía Utatlán 	7	Santa Rita 	5	Mayo	2023-05-25T00:00:00	2024-11-08T20:00:00	7	Dirección del viento	1.61
95823	7	Sololá	704	Santa Lucía Utatlán 	7	Santa Rita 	5	Mayo	2023-05-25T00:00:00	2024-11-08T20:00:00	1	Precipitación	0
95824	7	Sololá	704	Santa Lucía Utatlán 	7	Santa Rita 	5	Mayo	2023-05-25T00:00:00	2024-11-08T20:00:00	8	Radiación solar	0
95825	7	Sololá	704	Santa Lucía Utatlán 	7	Santa Rita 	5	Mayo	2023-05-25T00:00:00	2024-11-08T21:00:00	2	Temperatura media	19.1
95826	7	Sololá	704	Santa Lucía Utatlán 	7	Santa Rita 	5	Mayo	2023-05-25T00:00:00	2024-11-08T21:00:00	4	Temperatura máxima	19.8
95827	7	Sololá	704	Santa Lucía Utatlán 	7	Santa Rita 	5	Mayo	2023-05-25T00:00:00	2024-11-08T21:00:00	3	Temperatura mínima	19.1
95828	7	Sololá	704	Santa Lucía Utatlán 	7	Santa Rita 	5	Mayo	2023-05-25T00:00:00	2024-11-08T21:00:00	5	Humedad	91
95829	7	Sololá	704	Santa Lucía Utatlán 	7	Santa Rita 	5	Mayo	2023-05-25T00:00:00	2024-11-08T21:00:00	6	Velocidad del viento	3.2
95830	7	Sololá	704	Santa Lucía Utatlán 	7	Santa Rita 	5	Mayo	2023-05-25T00:00:00	2024-11-08T21:00:00	7	Dirección del viento	3.22
95831	7	Sololá	704	Santa Lucía Utatlán 	7	Santa Rita 	5	Mayo	2023-05-25T00:00:00	2024-11-08T21:00:00	1	Precipitación	0
95832	7	Sololá	704	Santa Lucía Utatlán 	7	Santa Rita 	5	Mayo	2023-05-25T00:00:00	2024-11-08T21:00:00	8	Radiación solar	0
95833	7	Sololá	704	Santa Lucía Utatlán 	7	Santa Rita 	5	Mayo	2023-05-25T00:00:00	2024-11-08T22:00:00	2	Temperatura media	18.9
95834	7	Sololá	704	Santa Lucía Utatlán 	7	Santa Rita 	5	Mayo	2023-05-25T00:00:00	2024-11-08T22:00:00	4	Temperatura máxima	19.1
95835	7	Sololá	704	Santa Lucía Utatlán 	7	Santa Rita 	5	Mayo	2023-05-25T00:00:00	2024-11-08T22:00:00	3	Temperatura mínima	18.9
95836	7	Sololá	704	Santa Lucía Utatlán 	7	Santa Rita 	5	Mayo	2023-05-25T00:00:00	2024-11-08T22:00:00	5	Humedad	93
95837	7	Sololá	704	Santa Lucía Utatlán 	7	Santa Rita 	5	Mayo	2023-05-25T00:00:00	2024-11-08T22:00:00	6	Velocidad del viento	1.6
95838	7	Sololá	704	Santa Lucía Utatlán 	7	Santa Rita 	5	Mayo	2023-05-25T00:00:00	2024-11-08T22:00:00	7	Dirección del viento	1.61
95839	7	Sololá	704	Santa Lucía Utatlán 	7	Santa Rita 	5	Mayo	2023-05-25T00:00:00	2024-11-08T22:00:00	1	Precipitación	0
95840	7	Sololá	704	Santa Lucía Utatlán 	7	Santa Rita 	5	Mayo	2023-05-25T00:00:00	2024-11-08T22:00:00	8	Radiación solar	0
95841	7	Sololá	704	Santa Lucía Utatlán 	7	Santa Rita 	5	Mayo	2023-05-25T00:00:00	2024-11-08T23:00:00	2	Temperatura media	18.2
95842	7	Sololá	704	Santa Lucía Utatlán 	7	Santa Rita 	5	Mayo	2023-05-25T00:00:00	2024-11-08T23:00:00	4	Temperatura máxima	19.1
95843	7	Sololá	704	Santa Lucía Utatlán 	7	Santa Rita 	5	Mayo	2023-05-25T00:00:00	2024-11-08T23:00:00	3	Temperatura mínima	18.2
95844	7	Sololá	704	Santa Lucía Utatlán 	7	Santa Rita 	5	Mayo	2023-05-25T00:00:00	2024-11-08T23:00:00	5	Humedad	91
95845	7	Sololá	704	Santa Lucía Utatlán 	7	Santa Rita 	5	Mayo	2023-05-25T00:00:00	2024-11-08T23:00:00	6	Velocidad del viento	3.2
95846	7	Sololá	704	Santa Lucía Utatlán 	7	Santa Rita 	5	Mayo	2023-05-25T00:00:00	2024-11-08T23:00:00	7	Dirección del viento	3.22
95847	7	Sololá	704	Santa Lucía Utatlán 	7	Santa Rita 	5	Mayo	2023-05-25T00:00:00	2024-11-08T23:00:00	1	Precipitación	0
95848	7	Sololá	704	Santa Lucía Utatlán 	7	Santa Rita 	5	Mayo	2023-05-25T00:00:00	2024-11-08T23:00:00	8	Radiación solar	0
95849	7	Sololá	704	Santa Lucía Utatlán 	7	Santa Rita 	5	Mayo	2023-05-26T00:00:00	2024-11-08T00:00:00	2	Temperatura media	17.6
95850	7	Sololá	704	Santa Lucía Utatlán 	7	Santa Rita 	5	Mayo	2023-05-26T00:00:00	2024-11-08T00:00:00	4	Temperatura máxima	18.2
95851	7	Sololá	704	Santa Lucía Utatlán 	7	Santa Rita 	5	Mayo	2023-05-26T00:00:00	2024-11-08T00:00:00	3	Temperatura mínima	17.5
95852	7	Sololá	704	Santa Lucía Utatlán 	7	Santa Rita 	5	Mayo	2023-05-26T00:00:00	2024-11-08T00:00:00	5	Humedad	93
95853	7	Sololá	704	Santa Lucía Utatlán 	7	Santa Rita 	5	Mayo	2023-05-26T00:00:00	2024-11-08T00:00:00	6	Velocidad del viento	3.2
95854	7	Sololá	704	Santa Lucía Utatlán 	7	Santa Rita 	5	Mayo	2023-05-26T00:00:00	2024-11-08T00:00:00	7	Dirección del viento	3.22
95855	7	Sololá	704	Santa Lucía Utatlán 	7	Santa Rita 	5	Mayo	2023-05-26T00:00:00	2024-11-08T00:00:00	1	Precipitación	0
95856	7	Sololá	704	Santa Lucía Utatlán 	7	Santa Rita 	5	Mayo	2023-05-26T00:00:00	2024-11-08T00:00:00	8	Radiación solar	0
95857	7	Sololá	704	Santa Lucía Utatlán 	7	Santa Rita 	5	Mayo	2023-05-26T00:00:00	2024-11-08T01:00:00	2	Temperatura media	17.3
95858	7	Sololá	704	Santa Lucía Utatlán 	7	Santa Rita 	5	Mayo	2023-05-26T00:00:00	2024-11-08T01:00:00	4	Temperatura máxima	17.5
95859	7	Sololá	704	Santa Lucía Utatlán 	7	Santa Rita 	5	Mayo	2023-05-26T00:00:00	2024-11-08T01:00:00	3	Temperatura mínima	17.3
95860	7	Sololá	704	Santa Lucía Utatlán 	7	Santa Rita 	5	Mayo	2023-05-26T00:00:00	2024-11-08T01:00:00	5	Humedad	92
95861	7	Sololá	704	Santa Lucía Utatlán 	7	Santa Rita 	5	Mayo	2023-05-26T00:00:00	2024-11-08T01:00:00	6	Velocidad del viento	3.2
95862	7	Sololá	704	Santa Lucía Utatlán 	7	Santa Rita 	5	Mayo	2023-05-26T00:00:00	2024-11-08T01:00:00	7	Dirección del viento	3.22
95863	7	Sololá	704	Santa Lucía Utatlán 	7	Santa Rita 	5	Mayo	2023-05-26T00:00:00	2024-11-08T01:00:00	1	Precipitación	0
95864	7	Sololá	704	Santa Lucía Utatlán 	7	Santa Rita 	5	Mayo	2023-05-26T00:00:00	2024-11-08T01:00:00	8	Radiación solar	0
95865	7	Sololá	704	Santa Lucía Utatlán 	7	Santa Rita 	5	Mayo	2023-05-26T00:00:00	2024-11-08T02:00:00	2	Temperatura media	16.8
95866	7	Sololá	704	Santa Lucía Utatlán 	7	Santa Rita 	5	Mayo	2023-05-26T00:00:00	2024-11-08T02:00:00	4	Temperatura máxima	17.4
95867	7	Sololá	704	Santa Lucía Utatlán 	7	Santa Rita 	5	Mayo	2023-05-26T00:00:00	2024-11-08T02:00:00	3	Temperatura mínima	16.7
95868	7	Sololá	704	Santa Lucía Utatlán 	7	Santa Rita 	5	Mayo	2023-05-26T00:00:00	2024-11-08T02:00:00	5	Humedad	93
95869	7	Sololá	704	Santa Lucía Utatlán 	7	Santa Rita 	5	Mayo	2023-05-26T00:00:00	2024-11-08T02:00:00	6	Velocidad del viento	1.6
95870	7	Sololá	704	Santa Lucía Utatlán 	7	Santa Rita 	5	Mayo	2023-05-26T00:00:00	2024-11-08T02:00:00	7	Dirección del viento	1.61
95871	7	Sololá	704	Santa Lucía Utatlán 	7	Santa Rita 	5	Mayo	2023-05-26T00:00:00	2024-11-08T02:00:00	1	Precipitación	0
95872	7	Sololá	704	Santa Lucía Utatlán 	7	Santa Rita 	5	Mayo	2023-05-26T00:00:00	2024-11-08T02:00:00	8	Radiación solar	0
95873	7	Sololá	704	Santa Lucía Utatlán 	7	Santa Rita 	5	Mayo	2023-05-26T00:00:00	2024-11-08T03:00:00	2	Temperatura media	16.7
95874	7	Sololá	704	Santa Lucía Utatlán 	7	Santa Rita 	5	Mayo	2023-05-26T00:00:00	2024-11-08T03:00:00	4	Temperatura máxima	16.9
95875	7	Sololá	704	Santa Lucía Utatlán 	7	Santa Rita 	5	Mayo	2023-05-26T00:00:00	2024-11-08T03:00:00	3	Temperatura mínima	16.6
95876	7	Sololá	704	Santa Lucía Utatlán 	7	Santa Rita 	5	Mayo	2023-05-26T00:00:00	2024-11-08T03:00:00	5	Humedad	92
95877	7	Sololá	704	Santa Lucía Utatlán 	7	Santa Rita 	5	Mayo	2023-05-26T00:00:00	2024-11-08T03:00:00	6	Velocidad del viento	3.2
95878	7	Sololá	704	Santa Lucía Utatlán 	7	Santa Rita 	5	Mayo	2023-05-26T00:00:00	2024-11-08T03:00:00	7	Dirección del viento	3.22
95879	7	Sololá	704	Santa Lucía Utatlán 	7	Santa Rita 	5	Mayo	2023-05-26T00:00:00	2024-11-08T03:00:00	1	Precipitación	0
95880	7	Sololá	704	Santa Lucía Utatlán 	7	Santa Rita 	5	Mayo	2023-05-26T00:00:00	2024-11-08T03:00:00	8	Radiación solar	0
95881	7	Sololá	704	Santa Lucía Utatlán 	7	Santa Rita 	5	Mayo	2023-05-26T00:00:00	2024-11-08T04:00:00	2	Temperatura media	16.4
95882	7	Sololá	704	Santa Lucía Utatlán 	7	Santa Rita 	5	Mayo	2023-05-26T00:00:00	2024-11-08T04:00:00	4	Temperatura máxima	16.7
95883	7	Sololá	704	Santa Lucía Utatlán 	7	Santa Rita 	5	Mayo	2023-05-26T00:00:00	2024-11-08T04:00:00	3	Temperatura mínima	16.4
95884	7	Sololá	704	Santa Lucía Utatlán 	7	Santa Rita 	5	Mayo	2023-05-26T00:00:00	2024-11-08T04:00:00	5	Humedad	91
95885	7	Sololá	704	Santa Lucía Utatlán 	7	Santa Rita 	5	Mayo	2023-05-26T00:00:00	2024-11-08T04:00:00	6	Velocidad del viento	4.8
95886	7	Sololá	704	Santa Lucía Utatlán 	7	Santa Rita 	5	Mayo	2023-05-26T00:00:00	2024-11-08T04:00:00	7	Dirección del viento	4.83
95887	7	Sololá	704	Santa Lucía Utatlán 	7	Santa Rita 	5	Mayo	2023-05-26T00:00:00	2024-11-08T04:00:00	1	Precipitación	0
95888	7	Sololá	704	Santa Lucía Utatlán 	7	Santa Rita 	5	Mayo	2023-05-26T00:00:00	2024-11-08T04:00:00	8	Radiación solar	0
95889	7	Sololá	704	Santa Lucía Utatlán 	7	Santa Rita 	5	Mayo	2023-05-26T00:00:00	2024-11-08T05:00:00	2	Temperatura media	16.6
95890	7	Sololá	704	Santa Lucía Utatlán 	7	Santa Rita 	5	Mayo	2023-05-26T00:00:00	2024-11-08T05:00:00	4	Temperatura máxima	16.7
95891	7	Sololá	704	Santa Lucía Utatlán 	7	Santa Rita 	5	Mayo	2023-05-26T00:00:00	2024-11-08T05:00:00	3	Temperatura mínima	16.3
95892	7	Sololá	704	Santa Lucía Utatlán 	7	Santa Rita 	5	Mayo	2023-05-26T00:00:00	2024-11-08T05:00:00	5	Humedad	89
95893	7	Sololá	704	Santa Lucía Utatlán 	7	Santa Rita 	5	Mayo	2023-05-26T00:00:00	2024-11-08T05:00:00	6	Velocidad del viento	4.8
95894	7	Sololá	704	Santa Lucía Utatlán 	7	Santa Rita 	5	Mayo	2023-05-26T00:00:00	2024-11-08T05:00:00	7	Dirección del viento	4.83
95895	7	Sololá	704	Santa Lucía Utatlán 	7	Santa Rita 	5	Mayo	2023-05-26T00:00:00	2024-11-08T05:00:00	1	Precipitación	0
95896	7	Sololá	704	Santa Lucía Utatlán 	7	Santa Rita 	5	Mayo	2023-05-26T00:00:00	2024-11-08T05:00:00	8	Radiación solar	0
95897	7	Sololá	704	Santa Lucía Utatlán 	7	Santa Rita 	5	Mayo	2023-05-26T00:00:00	2024-11-08T06:00:00	2	Temperatura media	16.5
95898	7	Sololá	704	Santa Lucía Utatlán 	7	Santa Rita 	5	Mayo	2023-05-26T00:00:00	2024-11-08T06:00:00	4	Temperatura máxima	16.7
95899	7	Sololá	704	Santa Lucía Utatlán 	7	Santa Rita 	5	Mayo	2023-05-26T00:00:00	2024-11-08T06:00:00	3	Temperatura mínima	15.7
95900	7	Sololá	704	Santa Lucía Utatlán 	7	Santa Rita 	5	Mayo	2023-05-26T00:00:00	2024-11-08T06:00:00	5	Humedad	91
95901	7	Sololá	704	Santa Lucía Utatlán 	7	Santa Rita 	5	Mayo	2023-05-26T00:00:00	2024-11-08T06:00:00	6	Velocidad del viento	3.2
95902	7	Sololá	704	Santa Lucía Utatlán 	7	Santa Rita 	5	Mayo	2023-05-26T00:00:00	2024-11-08T06:00:00	7	Dirección del viento	3.22
95903	7	Sololá	704	Santa Lucía Utatlán 	7	Santa Rita 	5	Mayo	2023-05-26T00:00:00	2024-11-08T06:00:00	1	Precipitación	0
95904	7	Sololá	704	Santa Lucía Utatlán 	7	Santa Rita 	5	Mayo	2023-05-26T00:00:00	2024-11-08T06:00:00	8	Radiación solar	6
95905	7	Sololá	704	Santa Lucía Utatlán 	7	Santa Rita 	5	Mayo	2023-05-26T00:00:00	2024-11-08T07:00:00	2	Temperatura media	18.1
95906	7	Sololá	704	Santa Lucía Utatlán 	7	Santa Rita 	5	Mayo	2023-05-26T00:00:00	2024-11-08T07:00:00	4	Temperatura máxima	18.1
95907	7	Sololá	704	Santa Lucía Utatlán 	7	Santa Rita 	5	Mayo	2023-05-26T00:00:00	2024-11-08T07:00:00	3	Temperatura mínima	16.5
95908	7	Sololá	704	Santa Lucía Utatlán 	7	Santa Rita 	5	Mayo	2023-05-26T00:00:00	2024-11-08T07:00:00	5	Humedad	92
95909	7	Sololá	704	Santa Lucía Utatlán 	7	Santa Rita 	5	Mayo	2023-05-26T00:00:00	2024-11-08T07:00:00	6	Velocidad del viento	1.6
95910	7	Sololá	704	Santa Lucía Utatlán 	7	Santa Rita 	5	Mayo	2023-05-26T00:00:00	2024-11-08T07:00:00	7	Dirección del viento	1.61
95911	7	Sololá	704	Santa Lucía Utatlán 	7	Santa Rita 	5	Mayo	2023-05-26T00:00:00	2024-11-08T07:00:00	1	Precipitación	0
95912	7	Sololá	704	Santa Lucía Utatlán 	7	Santa Rita 	5	Mayo	2023-05-26T00:00:00	2024-11-08T07:00:00	8	Radiación solar	94
95913	7	Sololá	704	Santa Lucía Utatlán 	7	Santa Rita 	5	Mayo	2023-05-26T00:00:00	2024-11-08T08:00:00	2	Temperatura media	19.1
95914	7	Sololá	704	Santa Lucía Utatlán 	7	Santa Rita 	5	Mayo	2023-05-26T00:00:00	2024-11-08T08:00:00	4	Temperatura máxima	19.1
95915	7	Sololá	704	Santa Lucía Utatlán 	7	Santa Rita 	5	Mayo	2023-05-26T00:00:00	2024-11-08T08:00:00	3	Temperatura mínima	17.9
95916	7	Sololá	704	Santa Lucía Utatlán 	7	Santa Rita 	5	Mayo	2023-05-26T00:00:00	2024-11-08T08:00:00	5	Humedad	91
95917	7	Sololá	704	Santa Lucía Utatlán 	7	Santa Rita 	5	Mayo	2023-05-26T00:00:00	2024-11-08T08:00:00	6	Velocidad del viento	0
95918	7	Sololá	704	Santa Lucía Utatlán 	7	Santa Rita 	5	Mayo	2023-05-26T00:00:00	2024-11-08T08:00:00	7	Dirección del viento	0
95919	7	Sololá	704	Santa Lucía Utatlán 	7	Santa Rita 	5	Mayo	2023-05-26T00:00:00	2024-11-08T08:00:00	1	Precipitación	0
95920	7	Sololá	704	Santa Lucía Utatlán 	7	Santa Rita 	5	Mayo	2023-05-26T00:00:00	2024-11-08T08:00:00	8	Radiación solar	186
95921	7	Sololá	704	Santa Lucía Utatlán 	7	Santa Rita 	5	Mayo	2023-05-26T00:00:00	2024-11-08T09:00:00	2	Temperatura media	20.6
95922	7	Sololá	704	Santa Lucía Utatlán 	7	Santa Rita 	5	Mayo	2023-05-26T00:00:00	2024-11-08T09:00:00	4	Temperatura máxima	20.6
95923	7	Sololá	704	Santa Lucía Utatlán 	7	Santa Rita 	5	Mayo	2023-05-26T00:00:00	2024-11-08T09:00:00	3	Temperatura mínima	19.1
95924	7	Sololá	704	Santa Lucía Utatlán 	7	Santa Rita 	5	Mayo	2023-05-26T00:00:00	2024-11-08T09:00:00	5	Humedad	83
95925	7	Sololá	704	Santa Lucía Utatlán 	7	Santa Rita 	5	Mayo	2023-05-26T00:00:00	2024-11-08T09:00:00	6	Velocidad del viento	3.2
95926	7	Sololá	704	Santa Lucía Utatlán 	7	Santa Rita 	5	Mayo	2023-05-26T00:00:00	2024-11-08T09:00:00	7	Dirección del viento	3.22
95927	7	Sololá	704	Santa Lucía Utatlán 	7	Santa Rita 	5	Mayo	2023-05-26T00:00:00	2024-11-08T09:00:00	1	Precipitación	0
95928	7	Sololá	704	Santa Lucía Utatlán 	7	Santa Rita 	5	Mayo	2023-05-26T00:00:00	2024-11-08T09:00:00	8	Radiación solar	334
95929	7	Sololá	704	Santa Lucía Utatlán 	7	Santa Rita 	5	Mayo	2023-05-26T00:00:00	2024-11-08T10:00:00	2	Temperatura media	21.2
95930	7	Sololá	704	Santa Lucía Utatlán 	7	Santa Rita 	5	Mayo	2023-05-26T00:00:00	2024-11-08T10:00:00	4	Temperatura máxima	21.2
95931	7	Sololá	704	Santa Lucía Utatlán 	7	Santa Rita 	5	Mayo	2023-05-26T00:00:00	2024-11-08T10:00:00	3	Temperatura mínima	20.6
95932	7	Sololá	704	Santa Lucía Utatlán 	7	Santa Rita 	5	Mayo	2023-05-26T00:00:00	2024-11-08T10:00:00	5	Humedad	80
95933	7	Sololá	704	Santa Lucía Utatlán 	7	Santa Rita 	5	Mayo	2023-05-26T00:00:00	2024-11-08T10:00:00	6	Velocidad del viento	3.2
95934	7	Sololá	704	Santa Lucía Utatlán 	7	Santa Rita 	5	Mayo	2023-05-26T00:00:00	2024-11-08T10:00:00	7	Dirección del viento	3.22
95935	7	Sololá	704	Santa Lucía Utatlán 	7	Santa Rita 	5	Mayo	2023-05-26T00:00:00	2024-11-08T10:00:00	1	Precipitación	0
95936	7	Sololá	704	Santa Lucía Utatlán 	7	Santa Rita 	5	Mayo	2023-05-26T00:00:00	2024-11-08T10:00:00	8	Radiación solar	315
95937	7	Sololá	704	Santa Lucía Utatlán 	7	Santa Rita 	5	Mayo	2023-05-26T00:00:00	2024-11-08T11:00:00	2	Temperatura media	21.8
95938	7	Sololá	704	Santa Lucía Utatlán 	7	Santa Rita 	5	Mayo	2023-05-26T00:00:00	2024-11-08T11:00:00	4	Temperatura máxima	21.8
95939	7	Sololá	704	Santa Lucía Utatlán 	7	Santa Rita 	5	Mayo	2023-05-26T00:00:00	2024-11-08T11:00:00	3	Temperatura mínima	21.2
95940	7	Sololá	704	Santa Lucía Utatlán 	7	Santa Rita 	5	Mayo	2023-05-26T00:00:00	2024-11-08T11:00:00	5	Humedad	80
95941	7	Sololá	704	Santa Lucía Utatlán 	7	Santa Rita 	5	Mayo	2023-05-26T00:00:00	2024-11-08T11:00:00	6	Velocidad del viento	3.2
95942	7	Sololá	704	Santa Lucía Utatlán 	7	Santa Rita 	5	Mayo	2023-05-26T00:00:00	2024-11-08T11:00:00	7	Dirección del viento	3.22
95943	7	Sololá	704	Santa Lucía Utatlán 	7	Santa Rita 	5	Mayo	2023-05-26T00:00:00	2024-11-08T11:00:00	1	Precipitación	0
95944	7	Sololá	704	Santa Lucía Utatlán 	7	Santa Rita 	5	Mayo	2023-05-26T00:00:00	2024-11-08T11:00:00	8	Radiación solar	346
95945	7	Sololá	704	Santa Lucía Utatlán 	7	Santa Rita 	5	Mayo	2023-05-26T00:00:00	2024-11-08T12:00:00	2	Temperatura media	23.8
95946	7	Sololá	704	Santa Lucía Utatlán 	7	Santa Rita 	5	Mayo	2023-05-26T00:00:00	2024-11-08T12:00:00	4	Temperatura máxima	23.8
95947	7	Sololá	704	Santa Lucía Utatlán 	7	Santa Rita 	5	Mayo	2023-05-26T00:00:00	2024-11-08T12:00:00	3	Temperatura mínima	21.7
95948	7	Sololá	704	Santa Lucía Utatlán 	7	Santa Rita 	5	Mayo	2023-05-26T00:00:00	2024-11-08T12:00:00	5	Humedad	71
95949	7	Sololá	704	Santa Lucía Utatlán 	7	Santa Rita 	5	Mayo	2023-05-26T00:00:00	2024-11-08T12:00:00	6	Velocidad del viento	3.2
95950	7	Sololá	704	Santa Lucía Utatlán 	7	Santa Rita 	5	Mayo	2023-05-26T00:00:00	2024-11-08T12:00:00	7	Dirección del viento	3.22
95951	7	Sololá	704	Santa Lucía Utatlán 	7	Santa Rita 	5	Mayo	2023-05-26T00:00:00	2024-11-08T12:00:00	1	Precipitación	0
95952	7	Sololá	704	Santa Lucía Utatlán 	7	Santa Rita 	5	Mayo	2023-05-26T00:00:00	2024-11-08T12:00:00	8	Radiación solar	481
95953	7	Sololá	704	Santa Lucía Utatlán 	7	Santa Rita 	5	Mayo	2023-05-26T00:00:00	2024-11-08T13:00:00	2	Temperatura media	24.1
95954	7	Sololá	704	Santa Lucía Utatlán 	7	Santa Rita 	5	Mayo	2023-05-26T00:00:00	2024-11-08T13:00:00	4	Temperatura máxima	24.4
95955	7	Sololá	704	Santa Lucía Utatlán 	7	Santa Rita 	5	Mayo	2023-05-26T00:00:00	2024-11-08T13:00:00	3	Temperatura mínima	23.8
95956	7	Sololá	704	Santa Lucía Utatlán 	7	Santa Rita 	5	Mayo	2023-05-26T00:00:00	2024-11-08T13:00:00	5	Humedad	68
95957	7	Sololá	704	Santa Lucía Utatlán 	7	Santa Rita 	5	Mayo	2023-05-26T00:00:00	2024-11-08T13:00:00	6	Velocidad del viento	6.4
95958	7	Sololá	704	Santa Lucía Utatlán 	7	Santa Rita 	5	Mayo	2023-05-26T00:00:00	2024-11-08T13:00:00	7	Dirección del viento	6.44
95959	7	Sololá	704	Santa Lucía Utatlán 	7	Santa Rita 	5	Mayo	2023-05-26T00:00:00	2024-11-08T13:00:00	1	Precipitación	0
95960	7	Sololá	704	Santa Lucía Utatlán 	7	Santa Rita 	5	Mayo	2023-05-26T00:00:00	2024-11-08T13:00:00	8	Radiación solar	802
95961	7	Sololá	704	Santa Lucía Utatlán 	7	Santa Rita 	5	Mayo	2023-05-26T00:00:00	2024-11-08T14:00:00	2	Temperatura media	23.9
95962	7	Sololá	704	Santa Lucía Utatlán 	7	Santa Rita 	5	Mayo	2023-05-26T00:00:00	2024-11-08T14:00:00	4	Temperatura máxima	24.8
95963	7	Sololá	704	Santa Lucía Utatlán 	7	Santa Rita 	5	Mayo	2023-05-26T00:00:00	2024-11-08T14:00:00	3	Temperatura mínima	23.9
95964	7	Sololá	704	Santa Lucía Utatlán 	7	Santa Rita 	5	Mayo	2023-05-26T00:00:00	2024-11-08T14:00:00	5	Humedad	73
95965	7	Sololá	704	Santa Lucía Utatlán 	7	Santa Rita 	5	Mayo	2023-05-26T00:00:00	2024-11-08T14:00:00	6	Velocidad del viento	6.4
95966	7	Sololá	704	Santa Lucía Utatlán 	7	Santa Rita 	5	Mayo	2023-05-26T00:00:00	2024-11-08T14:00:00	7	Dirección del viento	6.44
95967	7	Sololá	704	Santa Lucía Utatlán 	7	Santa Rita 	5	Mayo	2023-05-26T00:00:00	2024-11-08T14:00:00	1	Precipitación	0
95968	7	Sololá	704	Santa Lucía Utatlán 	7	Santa Rita 	5	Mayo	2023-05-26T00:00:00	2024-11-08T14:00:00	8	Radiación solar	646
95969	7	Sololá	704	Santa Lucía Utatlán 	7	Santa Rita 	5	Mayo	2023-05-26T00:00:00	2024-11-08T15:00:00	2	Temperatura media	24.2
95970	7	Sololá	704	Santa Lucía Utatlán 	7	Santa Rita 	5	Mayo	2023-05-26T00:00:00	2024-11-08T15:00:00	4	Temperatura máxima	24.6
95971	7	Sololá	704	Santa Lucía Utatlán 	7	Santa Rita 	5	Mayo	2023-05-26T00:00:00	2024-11-08T15:00:00	3	Temperatura mínima	23.7
95972	7	Sololá	704	Santa Lucía Utatlán 	7	Santa Rita 	5	Mayo	2023-05-26T00:00:00	2024-11-08T15:00:00	5	Humedad	71
95973	7	Sololá	704	Santa Lucía Utatlán 	7	Santa Rita 	5	Mayo	2023-05-26T00:00:00	2024-11-08T15:00:00	6	Velocidad del viento	6.4
95974	7	Sololá	704	Santa Lucía Utatlán 	7	Santa Rita 	5	Mayo	2023-05-26T00:00:00	2024-11-08T15:00:00	7	Dirección del viento	6.44
95975	7	Sololá	704	Santa Lucía Utatlán 	7	Santa Rita 	5	Mayo	2023-05-26T00:00:00	2024-11-08T15:00:00	1	Precipitación	0
95976	7	Sololá	704	Santa Lucía Utatlán 	7	Santa Rita 	5	Mayo	2023-05-26T00:00:00	2024-11-08T15:00:00	8	Radiación solar	689
95977	7	Sololá	704	Santa Lucía Utatlán 	7	Santa Rita 	5	Mayo	2023-05-26T00:00:00	2024-11-08T16:00:00	2	Temperatura media	23.2
95978	7	Sololá	704	Santa Lucía Utatlán 	7	Santa Rita 	5	Mayo	2023-05-26T00:00:00	2024-11-08T16:00:00	4	Temperatura máxima	24.2
95979	7	Sololá	704	Santa Lucía Utatlán 	7	Santa Rita 	5	Mayo	2023-05-26T00:00:00	2024-11-08T16:00:00	3	Temperatura mínima	23.2
95980	7	Sololá	704	Santa Lucía Utatlán 	7	Santa Rita 	5	Mayo	2023-05-26T00:00:00	2024-11-08T16:00:00	5	Humedad	76
95981	7	Sololá	704	Santa Lucía Utatlán 	7	Santa Rita 	5	Mayo	2023-05-26T00:00:00	2024-11-08T16:00:00	6	Velocidad del viento	4.8
95982	7	Sololá	704	Santa Lucía Utatlán 	7	Santa Rita 	5	Mayo	2023-05-26T00:00:00	2024-11-08T16:00:00	7	Dirección del viento	4.83
95983	7	Sololá	704	Santa Lucía Utatlán 	7	Santa Rita 	5	Mayo	2023-05-26T00:00:00	2024-11-08T16:00:00	1	Precipitación	0
95984	7	Sololá	704	Santa Lucía Utatlán 	7	Santa Rita 	5	Mayo	2023-05-26T00:00:00	2024-11-08T16:00:00	8	Radiación solar	249
95985	7	Sololá	704	Santa Lucía Utatlán 	7	Santa Rita 	5	Mayo	2023-05-26T00:00:00	2024-11-08T17:00:00	2	Temperatura media	21.5
95986	7	Sololá	704	Santa Lucía Utatlán 	7	Santa Rita 	5	Mayo	2023-05-26T00:00:00	2024-11-08T17:00:00	4	Temperatura máxima	23.2
95987	7	Sololá	704	Santa Lucía Utatlán 	7	Santa Rita 	5	Mayo	2023-05-26T00:00:00	2024-11-08T17:00:00	3	Temperatura mínima	21.4
95988	7	Sololá	704	Santa Lucía Utatlán 	7	Santa Rita 	5	Mayo	2023-05-26T00:00:00	2024-11-08T17:00:00	5	Humedad	88
95989	7	Sololá	704	Santa Lucía Utatlán 	7	Santa Rita 	5	Mayo	2023-05-26T00:00:00	2024-11-08T17:00:00	6	Velocidad del viento	4.8
95990	7	Sololá	704	Santa Lucía Utatlán 	7	Santa Rita 	5	Mayo	2023-05-26T00:00:00	2024-11-08T17:00:00	7	Dirección del viento	4.83
95991	7	Sololá	704	Santa Lucía Utatlán 	7	Santa Rita 	5	Mayo	2023-05-26T00:00:00	2024-11-08T17:00:00	1	Precipitación	0
95992	7	Sololá	704	Santa Lucía Utatlán 	7	Santa Rita 	5	Mayo	2023-05-26T00:00:00	2024-11-08T17:00:00	8	Radiación solar	50
95993	7	Sololá	704	Santa Lucía Utatlán 	7	Santa Rita 	5	Mayo	2023-05-26T00:00:00	2024-11-08T18:00:00	2	Temperatura media	21.2
95994	7	Sololá	704	Santa Lucía Utatlán 	7	Santa Rita 	5	Mayo	2023-05-26T00:00:00	2024-11-08T18:00:00	4	Temperatura máxima	21.6
95995	7	Sololá	704	Santa Lucía Utatlán 	7	Santa Rita 	5	Mayo	2023-05-26T00:00:00	2024-11-08T18:00:00	3	Temperatura mínima	21.1
95996	7	Sololá	704	Santa Lucía Utatlán 	7	Santa Rita 	5	Mayo	2023-05-26T00:00:00	2024-11-08T18:00:00	5	Humedad	90
95997	7	Sololá	704	Santa Lucía Utatlán 	7	Santa Rita 	5	Mayo	2023-05-26T00:00:00	2024-11-08T18:00:00	6	Velocidad del viento	1.6
95998	7	Sololá	704	Santa Lucía Utatlán 	7	Santa Rita 	5	Mayo	2023-05-26T00:00:00	2024-11-08T18:00:00	7	Dirección del viento	1.61
95999	7	Sololá	704	Santa Lucía Utatlán 	7	Santa Rita 	5	Mayo	2023-05-26T00:00:00	2024-11-08T18:00:00	1	Precipitación	0
96000	7	Sololá	704	Santa Lucía Utatlán 	7	Santa Rita 	5	Mayo	2023-05-26T00:00:00	2024-11-08T18:00:00	8	Radiación solar	18
96001	7	Sololá	704	Santa Lucía Utatlán 	7	Santa Rita 	5	Mayo	2023-05-26T00:00:00	2024-11-08T19:00:00	2	Temperatura media	20.6
96002	7	Sololá	704	Santa Lucía Utatlán 	7	Santa Rita 	5	Mayo	2023-05-26T00:00:00	2024-11-08T19:00:00	4	Temperatura máxima	21.3
96003	7	Sololá	704	Santa Lucía Utatlán 	7	Santa Rita 	5	Mayo	2023-05-26T00:00:00	2024-11-08T19:00:00	3	Temperatura mínima	20.6
96004	7	Sololá	704	Santa Lucía Utatlán 	7	Santa Rita 	5	Mayo	2023-05-26T00:00:00	2024-11-08T19:00:00	5	Humedad	93
96005	7	Sololá	704	Santa Lucía Utatlán 	7	Santa Rita 	5	Mayo	2023-05-26T00:00:00	2024-11-08T19:00:00	6	Velocidad del viento	1.6
96006	7	Sololá	704	Santa Lucía Utatlán 	7	Santa Rita 	5	Mayo	2023-05-26T00:00:00	2024-11-08T19:00:00	7	Dirección del viento	1.61
96007	7	Sololá	704	Santa Lucía Utatlán 	7	Santa Rita 	5	Mayo	2023-05-26T00:00:00	2024-11-08T19:00:00	1	Precipitación	0
96008	7	Sololá	704	Santa Lucía Utatlán 	7	Santa Rita 	5	Mayo	2023-05-26T00:00:00	2024-11-08T19:00:00	8	Radiación solar	0
96009	7	Sololá	704	Santa Lucía Utatlán 	7	Santa Rita 	5	Mayo	2023-05-26T00:00:00	2024-11-08T20:00:00	2	Temperatura media	18.8
96010	7	Sololá	704	Santa Lucía Utatlán 	7	Santa Rita 	5	Mayo	2023-05-26T00:00:00	2024-11-08T20:00:00	4	Temperatura máxima	20.6
96011	7	Sololá	704	Santa Lucía Utatlán 	7	Santa Rita 	5	Mayo	2023-05-26T00:00:00	2024-11-08T20:00:00	3	Temperatura mínima	18.8
96012	7	Sololá	704	Santa Lucía Utatlán 	7	Santa Rita 	5	Mayo	2023-05-26T00:00:00	2024-11-08T20:00:00	5	Humedad	82
96013	7	Sololá	704	Santa Lucía Utatlán 	7	Santa Rita 	5	Mayo	2023-05-26T00:00:00	2024-11-08T20:00:00	6	Velocidad del viento	3.2
96014	7	Sololá	704	Santa Lucía Utatlán 	7	Santa Rita 	5	Mayo	2023-05-26T00:00:00	2024-11-08T20:00:00	7	Dirección del viento	3.22
96015	7	Sololá	704	Santa Lucía Utatlán 	7	Santa Rita 	5	Mayo	2023-05-26T00:00:00	2024-11-08T20:00:00	1	Precipitación	0
96016	7	Sololá	704	Santa Lucía Utatlán 	7	Santa Rita 	5	Mayo	2023-05-26T00:00:00	2024-11-08T20:00:00	8	Radiación solar	0
96017	7	Sololá	704	Santa Lucía Utatlán 	7	Santa Rita 	5	Mayo	2023-05-26T00:00:00	2024-11-08T21:00:00	2	Temperatura media	18.4
96018	7	Sololá	704	Santa Lucía Utatlán 	7	Santa Rita 	5	Mayo	2023-05-26T00:00:00	2024-11-08T21:00:00	4	Temperatura máxima	18.8
96019	7	Sololá	704	Santa Lucía Utatlán 	7	Santa Rita 	5	Mayo	2023-05-26T00:00:00	2024-11-08T21:00:00	3	Temperatura mínima	18.4
96020	7	Sololá	704	Santa Lucía Utatlán 	7	Santa Rita 	5	Mayo	2023-05-26T00:00:00	2024-11-08T21:00:00	5	Humedad	86
96021	7	Sololá	704	Santa Lucía Utatlán 	7	Santa Rita 	5	Mayo	2023-05-26T00:00:00	2024-11-08T21:00:00	6	Velocidad del viento	3.2
96022	7	Sololá	704	Santa Lucía Utatlán 	7	Santa Rita 	5	Mayo	2023-05-26T00:00:00	2024-11-08T21:00:00	7	Dirección del viento	3.22
96023	7	Sololá	704	Santa Lucía Utatlán 	7	Santa Rita 	5	Mayo	2023-05-26T00:00:00	2024-11-08T21:00:00	1	Precipitación	0
96024	7	Sololá	704	Santa Lucía Utatlán 	7	Santa Rita 	5	Mayo	2023-05-26T00:00:00	2024-11-08T21:00:00	8	Radiación solar	0
96025	7	Sololá	704	Santa Lucía Utatlán 	7	Santa Rita 	5	Mayo	2023-05-26T00:00:00	2024-11-08T22:00:00	2	Temperatura media	18.1
96026	7	Sololá	704	Santa Lucía Utatlán 	7	Santa Rita 	5	Mayo	2023-05-26T00:00:00	2024-11-08T22:00:00	4	Temperatura máxima	18.4
96027	7	Sololá	704	Santa Lucía Utatlán 	7	Santa Rita 	5	Mayo	2023-05-26T00:00:00	2024-11-08T22:00:00	3	Temperatura mínima	17.8
96028	7	Sololá	704	Santa Lucía Utatlán 	7	Santa Rita 	5	Mayo	2023-05-26T00:00:00	2024-11-08T22:00:00	5	Humedad	78
96029	7	Sololá	704	Santa Lucía Utatlán 	7	Santa Rita 	5	Mayo	2023-05-26T00:00:00	2024-11-08T22:00:00	6	Velocidad del viento	3.2
96030	7	Sololá	704	Santa Lucía Utatlán 	7	Santa Rita 	5	Mayo	2023-05-26T00:00:00	2024-11-08T22:00:00	7	Dirección del viento	3.22
96031	7	Sololá	704	Santa Lucía Utatlán 	7	Santa Rita 	5	Mayo	2023-05-26T00:00:00	2024-11-08T22:00:00	1	Precipitación	0
96032	7	Sololá	704	Santa Lucía Utatlán 	7	Santa Rita 	5	Mayo	2023-05-26T00:00:00	2024-11-08T22:00:00	8	Radiación solar	0
96033	7	Sololá	704	Santa Lucía Utatlán 	7	Santa Rita 	5	Mayo	2023-05-26T00:00:00	2024-11-08T23:00:00	2	Temperatura media	17.3
96034	7	Sololá	704	Santa Lucía Utatlán 	7	Santa Rita 	5	Mayo	2023-05-26T00:00:00	2024-11-08T23:00:00	4	Temperatura máxima	18.2
96035	7	Sololá	704	Santa Lucía Utatlán 	7	Santa Rita 	5	Mayo	2023-05-26T00:00:00	2024-11-08T23:00:00	3	Temperatura mínima	17.3
96036	7	Sololá	704	Santa Lucía Utatlán 	7	Santa Rita 	5	Mayo	2023-05-26T00:00:00	2024-11-08T23:00:00	5	Humedad	77
96037	7	Sololá	704	Santa Lucía Utatlán 	7	Santa Rita 	5	Mayo	2023-05-26T00:00:00	2024-11-08T23:00:00	6	Velocidad del viento	3.2
96038	7	Sololá	704	Santa Lucía Utatlán 	7	Santa Rita 	5	Mayo	2023-05-26T00:00:00	2024-11-08T23:00:00	7	Dirección del viento	3.22
96039	7	Sololá	704	Santa Lucía Utatlán 	7	Santa Rita 	5	Mayo	2023-05-26T00:00:00	2024-11-08T23:00:00	1	Precipitación	0
96040	7	Sololá	704	Santa Lucía Utatlán 	7	Santa Rita 	5	Mayo	2023-05-26T00:00:00	2024-11-08T23:00:00	8	Radiación solar	0
96041	7	Sololá	704	Santa Lucía Utatlán 	7	Santa Rita 	5	Mayo	2023-05-27T00:00:00	2024-11-08T00:00:00	2	Temperatura media	16.5
96042	7	Sololá	704	Santa Lucía Utatlán 	7	Santa Rita 	5	Mayo	2023-05-27T00:00:00	2024-11-08T00:00:00	4	Temperatura máxima	17.3
96043	7	Sololá	704	Santa Lucía Utatlán 	7	Santa Rita 	5	Mayo	2023-05-27T00:00:00	2024-11-08T00:00:00	3	Temperatura mínima	16.5
96044	7	Sololá	704	Santa Lucía Utatlán 	7	Santa Rita 	5	Mayo	2023-05-27T00:00:00	2024-11-08T00:00:00	5	Humedad	82
96045	7	Sololá	704	Santa Lucía Utatlán 	7	Santa Rita 	5	Mayo	2023-05-27T00:00:00	2024-11-08T00:00:00	6	Velocidad del viento	4.8
96046	7	Sololá	704	Santa Lucía Utatlán 	7	Santa Rita 	5	Mayo	2023-05-27T00:00:00	2024-11-08T00:00:00	7	Dirección del viento	4.83
96047	7	Sololá	704	Santa Lucía Utatlán 	7	Santa Rita 	5	Mayo	2023-05-27T00:00:00	2024-11-08T00:00:00	1	Precipitación	0
96048	7	Sololá	704	Santa Lucía Utatlán 	7	Santa Rita 	5	Mayo	2023-05-27T00:00:00	2024-11-08T00:00:00	8	Radiación solar	0
96049	7	Sololá	704	Santa Lucía Utatlán 	7	Santa Rita 	5	Mayo	2023-05-27T00:00:00	2024-11-08T01:00:00	2	Temperatura media	16.4
96050	7	Sololá	704	Santa Lucía Utatlán 	7	Santa Rita 	5	Mayo	2023-05-27T00:00:00	2024-11-08T01:00:00	4	Temperatura máxima	16.6
96051	7	Sololá	704	Santa Lucía Utatlán 	7	Santa Rita 	5	Mayo	2023-05-27T00:00:00	2024-11-08T01:00:00	3	Temperatura mínima	16.2
96052	7	Sololá	704	Santa Lucía Utatlán 	7	Santa Rita 	5	Mayo	2023-05-27T00:00:00	2024-11-08T01:00:00	5	Humedad	80
96053	7	Sololá	704	Santa Lucía Utatlán 	7	Santa Rita 	5	Mayo	2023-05-27T00:00:00	2024-11-08T01:00:00	6	Velocidad del viento	4.8
96054	7	Sololá	704	Santa Lucía Utatlán 	7	Santa Rita 	5	Mayo	2023-05-27T00:00:00	2024-11-08T01:00:00	7	Dirección del viento	4.83
96055	7	Sololá	704	Santa Lucía Utatlán 	7	Santa Rita 	5	Mayo	2023-05-27T00:00:00	2024-11-08T01:00:00	1	Precipitación	0
96056	7	Sololá	704	Santa Lucía Utatlán 	7	Santa Rita 	5	Mayo	2023-05-27T00:00:00	2024-11-08T01:00:00	8	Radiación solar	0
96057	7	Sololá	704	Santa Lucía Utatlán 	7	Santa Rita 	5	Mayo	2023-05-27T00:00:00	2024-11-08T02:00:00	2	Temperatura media	16.4
96058	7	Sololá	704	Santa Lucía Utatlán 	7	Santa Rita 	5	Mayo	2023-05-27T00:00:00	2024-11-08T02:00:00	4	Temperatura máxima	16.8
96059	7	Sololá	704	Santa Lucía Utatlán 	7	Santa Rita 	5	Mayo	2023-05-27T00:00:00	2024-11-08T02:00:00	3	Temperatura mínima	15.7
96060	7	Sololá	704	Santa Lucía Utatlán 	7	Santa Rita 	5	Mayo	2023-05-27T00:00:00	2024-11-08T02:00:00	5	Humedad	84
96061	7	Sololá	704	Santa Lucía Utatlán 	7	Santa Rita 	5	Mayo	2023-05-27T00:00:00	2024-11-08T02:00:00	6	Velocidad del viento	3.2
96062	7	Sololá	704	Santa Lucía Utatlán 	7	Santa Rita 	5	Mayo	2023-05-27T00:00:00	2024-11-08T02:00:00	7	Dirección del viento	3.22
96063	7	Sololá	704	Santa Lucía Utatlán 	7	Santa Rita 	5	Mayo	2023-05-27T00:00:00	2024-11-08T02:00:00	1	Precipitación	0
96064	7	Sololá	704	Santa Lucía Utatlán 	7	Santa Rita 	5	Mayo	2023-05-27T00:00:00	2024-11-08T02:00:00	8	Radiación solar	0
96065	7	Sololá	704	Santa Lucía Utatlán 	7	Santa Rita 	5	Mayo	2023-05-27T00:00:00	2024-11-08T03:00:00	2	Temperatura media	16.2
96066	7	Sololá	704	Santa Lucía Utatlán 	7	Santa Rita 	5	Mayo	2023-05-27T00:00:00	2024-11-08T03:00:00	4	Temperatura máxima	16.5
96067	7	Sololá	704	Santa Lucía Utatlán 	7	Santa Rita 	5	Mayo	2023-05-27T00:00:00	2024-11-08T03:00:00	3	Temperatura mínima	16.1
96068	7	Sololá	704	Santa Lucía Utatlán 	7	Santa Rita 	5	Mayo	2023-05-27T00:00:00	2024-11-08T03:00:00	5	Humedad	81
96069	7	Sololá	704	Santa Lucía Utatlán 	7	Santa Rita 	5	Mayo	2023-05-27T00:00:00	2024-11-08T03:00:00	6	Velocidad del viento	4.8
96070	7	Sololá	704	Santa Lucía Utatlán 	7	Santa Rita 	5	Mayo	2023-05-27T00:00:00	2024-11-08T03:00:00	7	Dirección del viento	4.83
96071	7	Sololá	704	Santa Lucía Utatlán 	7	Santa Rita 	5	Mayo	2023-05-27T00:00:00	2024-11-08T03:00:00	1	Precipitación	0
96072	7	Sololá	704	Santa Lucía Utatlán 	7	Santa Rita 	5	Mayo	2023-05-27T00:00:00	2024-11-08T03:00:00	8	Radiación solar	0
96073	7	Sololá	704	Santa Lucía Utatlán 	7	Santa Rita 	5	Mayo	2023-05-27T00:00:00	2024-11-08T04:00:00	2	Temperatura media	16.1
96074	7	Sololá	704	Santa Lucía Utatlán 	7	Santa Rita 	5	Mayo	2023-05-27T00:00:00	2024-11-08T04:00:00	4	Temperatura máxima	16.3
96075	7	Sololá	704	Santa Lucía Utatlán 	7	Santa Rita 	5	Mayo	2023-05-27T00:00:00	2024-11-08T04:00:00	3	Temperatura mínima	15.9
96076	7	Sololá	704	Santa Lucía Utatlán 	7	Santa Rita 	5	Mayo	2023-05-27T00:00:00	2024-11-08T04:00:00	5	Humedad	82
96077	7	Sololá	704	Santa Lucía Utatlán 	7	Santa Rita 	5	Mayo	2023-05-27T00:00:00	2024-11-08T04:00:00	6	Velocidad del viento	3.2
96078	7	Sololá	704	Santa Lucía Utatlán 	7	Santa Rita 	5	Mayo	2023-05-27T00:00:00	2024-11-08T04:00:00	7	Dirección del viento	3.22
96079	7	Sololá	704	Santa Lucía Utatlán 	7	Santa Rita 	5	Mayo	2023-05-27T00:00:00	2024-11-08T04:00:00	1	Precipitación	0
96080	7	Sololá	704	Santa Lucía Utatlán 	7	Santa Rita 	5	Mayo	2023-05-27T00:00:00	2024-11-08T04:00:00	8	Radiación solar	0
96081	7	Sololá	704	Santa Lucía Utatlán 	7	Santa Rita 	5	Mayo	2023-05-27T00:00:00	2024-11-08T05:00:00	2	Temperatura media	15.4
96082	7	Sololá	704	Santa Lucía Utatlán 	7	Santa Rita 	5	Mayo	2023-05-27T00:00:00	2024-11-08T05:00:00	4	Temperatura máxima	16.5
96083	7	Sololá	704	Santa Lucía Utatlán 	7	Santa Rita 	5	Mayo	2023-05-27T00:00:00	2024-11-08T05:00:00	3	Temperatura mínima	15.4
96084	7	Sololá	704	Santa Lucía Utatlán 	7	Santa Rita 	5	Mayo	2023-05-27T00:00:00	2024-11-08T05:00:00	5	Humedad	85
96085	7	Sololá	704	Santa Lucía Utatlán 	7	Santa Rita 	5	Mayo	2023-05-27T00:00:00	2024-11-08T05:00:00	6	Velocidad del viento	3.2
96086	7	Sololá	704	Santa Lucía Utatlán 	7	Santa Rita 	5	Mayo	2023-05-27T00:00:00	2024-11-08T05:00:00	7	Dirección del viento	3.22
96087	7	Sololá	704	Santa Lucía Utatlán 	7	Santa Rita 	5	Mayo	2023-05-27T00:00:00	2024-11-08T05:00:00	1	Precipitación	0
96088	7	Sololá	704	Santa Lucía Utatlán 	7	Santa Rita 	5	Mayo	2023-05-27T00:00:00	2024-11-08T05:00:00	8	Radiación solar	0
96089	7	Sololá	704	Santa Lucía Utatlán 	7	Santa Rita 	5	Mayo	2023-05-27T00:00:00	2024-11-08T06:00:00	2	Temperatura media	15.7
96090	7	Sololá	704	Santa Lucía Utatlán 	7	Santa Rita 	5	Mayo	2023-05-27T00:00:00	2024-11-08T06:00:00	4	Temperatura máxima	15.9
96091	7	Sololá	704	Santa Lucía Utatlán 	7	Santa Rita 	5	Mayo	2023-05-27T00:00:00	2024-11-08T06:00:00	3	Temperatura mínima	15.4
96092	7	Sololá	704	Santa Lucía Utatlán 	7	Santa Rita 	5	Mayo	2023-05-27T00:00:00	2024-11-08T06:00:00	5	Humedad	85
96093	7	Sololá	704	Santa Lucía Utatlán 	7	Santa Rita 	5	Mayo	2023-05-27T00:00:00	2024-11-08T06:00:00	6	Velocidad del viento	4.8
96094	7	Sololá	704	Santa Lucía Utatlán 	7	Santa Rita 	5	Mayo	2023-05-27T00:00:00	2024-11-08T06:00:00	7	Dirección del viento	4.83
96095	7	Sololá	704	Santa Lucía Utatlán 	7	Santa Rita 	5	Mayo	2023-05-27T00:00:00	2024-11-08T06:00:00	1	Precipitación	0
96096	7	Sololá	704	Santa Lucía Utatlán 	7	Santa Rita 	5	Mayo	2023-05-27T00:00:00	2024-11-08T06:00:00	8	Radiación solar	6
96097	7	Sololá	704	Santa Lucía Utatlán 	7	Santa Rita 	5	Mayo	2023-05-27T00:00:00	2024-11-08T07:00:00	2	Temperatura media	17.4
96098	7	Sololá	704	Santa Lucía Utatlán 	7	Santa Rita 	5	Mayo	2023-05-27T00:00:00	2024-11-08T07:00:00	4	Temperatura máxima	17.4
96099	7	Sololá	704	Santa Lucía Utatlán 	7	Santa Rita 	5	Mayo	2023-05-27T00:00:00	2024-11-08T07:00:00	3	Temperatura mínima	15.7
96100	7	Sololá	704	Santa Lucía Utatlán 	7	Santa Rita 	5	Mayo	2023-05-27T00:00:00	2024-11-08T07:00:00	5	Humedad	84
96101	7	Sololá	704	Santa Lucía Utatlán 	7	Santa Rita 	5	Mayo	2023-05-27T00:00:00	2024-11-08T07:00:00	6	Velocidad del viento	1.6
96102	7	Sololá	704	Santa Lucía Utatlán 	7	Santa Rita 	5	Mayo	2023-05-27T00:00:00	2024-11-08T07:00:00	7	Dirección del viento	1.61
96103	7	Sololá	704	Santa Lucía Utatlán 	7	Santa Rita 	5	Mayo	2023-05-27T00:00:00	2024-11-08T07:00:00	1	Precipitación	0
96104	7	Sololá	704	Santa Lucía Utatlán 	7	Santa Rita 	5	Mayo	2023-05-27T00:00:00	2024-11-08T07:00:00	8	Radiación solar	94
96105	7	Sololá	704	Santa Lucía Utatlán 	7	Santa Rita 	5	Mayo	2023-05-27T00:00:00	2024-11-08T08:00:00	2	Temperatura media	19.6
96106	7	Sololá	704	Santa Lucía Utatlán 	7	Santa Rita 	5	Mayo	2023-05-27T00:00:00	2024-11-08T08:00:00	4	Temperatura máxima	19.6
96107	7	Sololá	704	Santa Lucía Utatlán 	7	Santa Rita 	5	Mayo	2023-05-27T00:00:00	2024-11-08T08:00:00	3	Temperatura mínima	17.4
96108	7	Sololá	704	Santa Lucía Utatlán 	7	Santa Rita 	5	Mayo	2023-05-27T00:00:00	2024-11-08T08:00:00	5	Humedad	78
96109	7	Sololá	704	Santa Lucía Utatlán 	7	Santa Rita 	5	Mayo	2023-05-27T00:00:00	2024-11-08T08:00:00	6	Velocidad del viento	0
96110	7	Sololá	704	Santa Lucía Utatlán 	7	Santa Rita 	5	Mayo	2023-05-27T00:00:00	2024-11-08T08:00:00	7	Dirección del viento	0
96111	7	Sololá	704	Santa Lucía Utatlán 	7	Santa Rita 	5	Mayo	2023-05-27T00:00:00	2024-11-08T08:00:00	1	Precipitación	0
96112	7	Sololá	704	Santa Lucía Utatlán 	7	Santa Rita 	5	Mayo	2023-05-27T00:00:00	2024-11-08T08:00:00	8	Radiación solar	218
96113	7	Sololá	704	Santa Lucía Utatlán 	7	Santa Rita 	5	Mayo	2023-05-27T00:00:00	2024-11-08T09:00:00	2	Temperatura media	20.2
96114	7	Sololá	704	Santa Lucía Utatlán 	7	Santa Rita 	5	Mayo	2023-05-27T00:00:00	2024-11-08T09:00:00	4	Temperatura máxima	20.3
96115	7	Sololá	704	Santa Lucía Utatlán 	7	Santa Rita 	5	Mayo	2023-05-27T00:00:00	2024-11-08T09:00:00	3	Temperatura mínima	19.6
96116	7	Sololá	704	Santa Lucía Utatlán 	7	Santa Rita 	5	Mayo	2023-05-27T00:00:00	2024-11-08T09:00:00	5	Humedad	77
96117	7	Sololá	704	Santa Lucía Utatlán 	7	Santa Rita 	5	Mayo	2023-05-27T00:00:00	2024-11-08T09:00:00	6	Velocidad del viento	1.6
96118	7	Sololá	704	Santa Lucía Utatlán 	7	Santa Rita 	5	Mayo	2023-05-27T00:00:00	2024-11-08T09:00:00	7	Dirección del viento	1.61
96119	7	Sololá	704	Santa Lucía Utatlán 	7	Santa Rita 	5	Mayo	2023-05-27T00:00:00	2024-11-08T09:00:00	1	Precipitación	0
96120	7	Sololá	704	Santa Lucía Utatlán 	7	Santa Rita 	5	Mayo	2023-05-27T00:00:00	2024-11-08T09:00:00	8	Radiación solar	205
96121	7	Sololá	704	Santa Lucía Utatlán 	7	Santa Rita 	5	Mayo	2023-05-27T00:00:00	2024-11-08T10:00:00	2	Temperatura media	21.6
96122	7	Sololá	704	Santa Lucía Utatlán 	7	Santa Rita 	5	Mayo	2023-05-27T00:00:00	2024-11-08T10:00:00	4	Temperatura máxima	21.6
96123	7	Sololá	704	Santa Lucía Utatlán 	7	Santa Rita 	5	Mayo	2023-05-27T00:00:00	2024-11-08T10:00:00	3	Temperatura mínima	20.2
96124	7	Sololá	704	Santa Lucía Utatlán 	7	Santa Rita 	5	Mayo	2023-05-27T00:00:00	2024-11-08T10:00:00	5	Humedad	61
96125	7	Sololá	704	Santa Lucía Utatlán 	7	Santa Rita 	5	Mayo	2023-05-27T00:00:00	2024-11-08T10:00:00	6	Velocidad del viento	1.6
96126	7	Sololá	704	Santa Lucía Utatlán 	7	Santa Rita 	5	Mayo	2023-05-27T00:00:00	2024-11-08T10:00:00	7	Dirección del viento	1.61
96127	7	Sololá	704	Santa Lucía Utatlán 	7	Santa Rita 	5	Mayo	2023-05-27T00:00:00	2024-11-08T10:00:00	1	Precipitación	0
96128	7	Sololá	704	Santa Lucía Utatlán 	7	Santa Rita 	5	Mayo	2023-05-27T00:00:00	2024-11-08T10:00:00	8	Radiación solar	331
96129	7	Sololá	704	Santa Lucía Utatlán 	7	Santa Rita 	5	Mayo	2023-05-27T00:00:00	2024-11-08T11:00:00	2	Temperatura media	23.1
96130	7	Sololá	704	Santa Lucía Utatlán 	7	Santa Rita 	5	Mayo	2023-05-27T00:00:00	2024-11-08T11:00:00	4	Temperatura máxima	23.1
96131	7	Sololá	704	Santa Lucía Utatlán 	7	Santa Rita 	5	Mayo	2023-05-27T00:00:00	2024-11-08T11:00:00	3	Temperatura mínima	21.6
96132	7	Sololá	704	Santa Lucía Utatlán 	7	Santa Rita 	5	Mayo	2023-05-27T00:00:00	2024-11-08T11:00:00	5	Humedad	58
96133	7	Sololá	704	Santa Lucía Utatlán 	7	Santa Rita 	5	Mayo	2023-05-27T00:00:00	2024-11-08T11:00:00	6	Velocidad del viento	3.2
96134	7	Sololá	704	Santa Lucía Utatlán 	7	Santa Rita 	5	Mayo	2023-05-27T00:00:00	2024-11-08T11:00:00	7	Dirección del viento	3.22
96135	7	Sololá	704	Santa Lucía Utatlán 	7	Santa Rita 	5	Mayo	2023-05-27T00:00:00	2024-11-08T11:00:00	1	Precipitación	0
96136	7	Sololá	704	Santa Lucía Utatlán 	7	Santa Rita 	5	Mayo	2023-05-27T00:00:00	2024-11-08T11:00:00	8	Radiación solar	637
96137	7	Sololá	704	Santa Lucía Utatlán 	7	Santa Rita 	5	Mayo	2023-05-27T00:00:00	2024-11-08T12:00:00	2	Temperatura media	24.4
96138	7	Sololá	704	Santa Lucía Utatlán 	7	Santa Rita 	5	Mayo	2023-05-27T00:00:00	2024-11-08T12:00:00	4	Temperatura máxima	24.8
96139	7	Sololá	704	Santa Lucía Utatlán 	7	Santa Rita 	5	Mayo	2023-05-27T00:00:00	2024-11-08T12:00:00	3	Temperatura mínima	23.1
96140	7	Sololá	704	Santa Lucía Utatlán 	7	Santa Rita 	5	Mayo	2023-05-27T00:00:00	2024-11-08T12:00:00	5	Humedad	58
96141	7	Sololá	704	Santa Lucía Utatlán 	7	Santa Rita 	5	Mayo	2023-05-27T00:00:00	2024-11-08T12:00:00	6	Velocidad del viento	6.4
96142	7	Sololá	704	Santa Lucía Utatlán 	7	Santa Rita 	5	Mayo	2023-05-27T00:00:00	2024-11-08T12:00:00	7	Dirección del viento	6.44
96143	7	Sololá	704	Santa Lucía Utatlán 	7	Santa Rita 	5	Mayo	2023-05-27T00:00:00	2024-11-08T12:00:00	1	Precipitación	0
96144	7	Sololá	704	Santa Lucía Utatlán 	7	Santa Rita 	5	Mayo	2023-05-27T00:00:00	2024-11-08T12:00:00	8	Radiación solar	1002
96145	7	Sololá	704	Santa Lucía Utatlán 	7	Santa Rita 	5	Mayo	2023-05-27T00:00:00	2024-11-08T13:00:00	2	Temperatura media	22.9
96146	7	Sololá	704	Santa Lucía Utatlán 	7	Santa Rita 	5	Mayo	2023-05-27T00:00:00	2024-11-08T13:00:00	4	Temperatura máxima	25.3
96147	7	Sololá	704	Santa Lucía Utatlán 	7	Santa Rita 	5	Mayo	2023-05-27T00:00:00	2024-11-08T13:00:00	3	Temperatura mínima	22.9
96148	7	Sololá	704	Santa Lucía Utatlán 	7	Santa Rita 	5	Mayo	2023-05-27T00:00:00	2024-11-08T13:00:00	5	Humedad	67
96149	7	Sololá	704	Santa Lucía Utatlán 	7	Santa Rita 	5	Mayo	2023-05-27T00:00:00	2024-11-08T13:00:00	6	Velocidad del viento	6.4
96150	7	Sololá	704	Santa Lucía Utatlán 	7	Santa Rita 	5	Mayo	2023-05-27T00:00:00	2024-11-08T13:00:00	7	Dirección del viento	6.44
96151	7	Sololá	704	Santa Lucía Utatlán 	7	Santa Rita 	5	Mayo	2023-05-27T00:00:00	2024-11-08T13:00:00	1	Precipitación	0
96152	7	Sololá	704	Santa Lucía Utatlán 	7	Santa Rita 	5	Mayo	2023-05-27T00:00:00	2024-11-08T13:00:00	8	Radiación solar	309
96153	7	Sololá	704	Santa Lucía Utatlán 	7	Santa Rita 	5	Mayo	2023-05-27T00:00:00	2024-11-08T14:00:00	2	Temperatura media	22.8
96154	7	Sololá	704	Santa Lucía Utatlán 	7	Santa Rita 	5	Mayo	2023-05-27T00:00:00	2024-11-08T14:00:00	4	Temperatura máxima	23.7
96155	7	Sololá	704	Santa Lucía Utatlán 	7	Santa Rita 	5	Mayo	2023-05-27T00:00:00	2024-11-08T14:00:00	3	Temperatura mínima	22.8
96156	7	Sololá	704	Santa Lucía Utatlán 	7	Santa Rita 	5	Mayo	2023-05-27T00:00:00	2024-11-08T14:00:00	5	Humedad	71
96157	7	Sololá	704	Santa Lucía Utatlán 	7	Santa Rita 	5	Mayo	2023-05-27T00:00:00	2024-11-08T14:00:00	6	Velocidad del viento	4.8
96158	7	Sololá	704	Santa Lucía Utatlán 	7	Santa Rita 	5	Mayo	2023-05-27T00:00:00	2024-11-08T14:00:00	7	Dirección del viento	4.83
96159	7	Sololá	704	Santa Lucía Utatlán 	7	Santa Rita 	5	Mayo	2023-05-27T00:00:00	2024-11-08T14:00:00	1	Precipitación	0
96160	7	Sololá	704	Santa Lucía Utatlán 	7	Santa Rita 	5	Mayo	2023-05-27T00:00:00	2024-11-08T14:00:00	8	Radiación solar	416
96161	7	Sololá	704	Santa Lucía Utatlán 	7	Santa Rita 	5	Mayo	2023-05-27T00:00:00	2024-11-08T15:00:00	2	Temperatura media	23.7
96162	7	Sololá	704	Santa Lucía Utatlán 	7	Santa Rita 	5	Mayo	2023-05-27T00:00:00	2024-11-08T15:00:00	4	Temperatura máxima	24.1
96163	7	Sololá	704	Santa Lucía Utatlán 	7	Santa Rita 	5	Mayo	2023-05-27T00:00:00	2024-11-08T15:00:00	3	Temperatura mínima	22.8
96164	7	Sololá	704	Santa Lucía Utatlán 	7	Santa Rita 	5	Mayo	2023-05-27T00:00:00	2024-11-08T15:00:00	5	Humedad	69
96165	7	Sololá	704	Santa Lucía Utatlán 	7	Santa Rita 	5	Mayo	2023-05-27T00:00:00	2024-11-08T15:00:00	6	Velocidad del viento	4.8
96166	7	Sololá	704	Santa Lucía Utatlán 	7	Santa Rita 	5	Mayo	2023-05-27T00:00:00	2024-11-08T15:00:00	7	Dirección del viento	4.83
96167	7	Sololá	704	Santa Lucía Utatlán 	7	Santa Rita 	5	Mayo	2023-05-27T00:00:00	2024-11-08T15:00:00	1	Precipitación	0
96168	7	Sololá	704	Santa Lucía Utatlán 	7	Santa Rita 	5	Mayo	2023-05-27T00:00:00	2024-11-08T15:00:00	8	Radiación solar	418
96169	7	Sololá	704	Santa Lucía Utatlán 	7	Santa Rita 	5	Mayo	2023-05-27T00:00:00	2024-11-08T16:00:00	2	Temperatura media	22.8
96170	7	Sololá	704	Santa Lucía Utatlán 	7	Santa Rita 	5	Mayo	2023-05-27T00:00:00	2024-11-08T16:00:00	4	Temperatura máxima	23.8
96171	7	Sololá	704	Santa Lucía Utatlán 	7	Santa Rita 	5	Mayo	2023-05-27T00:00:00	2024-11-08T16:00:00	3	Temperatura mínima	22.7
96172	7	Sololá	704	Santa Lucía Utatlán 	7	Santa Rita 	5	Mayo	2023-05-27T00:00:00	2024-11-08T16:00:00	5	Humedad	76
96173	7	Sololá	704	Santa Lucía Utatlán 	7	Santa Rita 	5	Mayo	2023-05-27T00:00:00	2024-11-08T16:00:00	6	Velocidad del viento	4.8
96174	7	Sololá	704	Santa Lucía Utatlán 	7	Santa Rita 	5	Mayo	2023-05-27T00:00:00	2024-11-08T16:00:00	7	Dirección del viento	4.83
96175	7	Sololá	704	Santa Lucía Utatlán 	7	Santa Rita 	5	Mayo	2023-05-27T00:00:00	2024-11-08T16:00:00	1	Precipitación	0
96176	7	Sololá	704	Santa Lucía Utatlán 	7	Santa Rita 	5	Mayo	2023-05-27T00:00:00	2024-11-08T16:00:00	8	Radiación solar	227
96177	7	Sololá	704	Santa Lucía Utatlán 	7	Santa Rita 	5	Mayo	2023-05-27T00:00:00	2024-11-08T17:00:00	2	Temperatura media	22.6
96178	7	Sololá	704	Santa Lucía Utatlán 	7	Santa Rita 	5	Mayo	2023-05-27T00:00:00	2024-11-08T17:00:00	4	Temperatura máxima	23.1
96179	7	Sololá	704	Santa Lucía Utatlán 	7	Santa Rita 	5	Mayo	2023-05-27T00:00:00	2024-11-08T17:00:00	3	Temperatura mínima	22.6
96180	7	Sololá	704	Santa Lucía Utatlán 	7	Santa Rita 	5	Mayo	2023-05-27T00:00:00	2024-11-08T17:00:00	5	Humedad	77
96181	7	Sololá	704	Santa Lucía Utatlán 	7	Santa Rita 	5	Mayo	2023-05-27T00:00:00	2024-11-08T17:00:00	6	Velocidad del viento	3.2
96182	7	Sololá	704	Santa Lucía Utatlán 	7	Santa Rita 	5	Mayo	2023-05-27T00:00:00	2024-11-08T17:00:00	7	Dirección del viento	3.22
96183	7	Sololá	704	Santa Lucía Utatlán 	7	Santa Rita 	5	Mayo	2023-05-27T00:00:00	2024-11-08T17:00:00	1	Precipitación	0
96184	7	Sololá	704	Santa Lucía Utatlán 	7	Santa Rita 	5	Mayo	2023-05-27T00:00:00	2024-11-08T17:00:00	8	Radiación solar	165
96185	7	Sololá	704	Santa Lucía Utatlán 	7	Santa Rita 	5	Mayo	2023-05-27T00:00:00	2024-11-08T18:00:00	2	Temperatura media	21.1
96186	7	Sololá	704	Santa Lucía Utatlán 	7	Santa Rita 	5	Mayo	2023-05-27T00:00:00	2024-11-08T18:00:00	4	Temperatura máxima	22.6
96187	7	Sololá	704	Santa Lucía Utatlán 	7	Santa Rita 	5	Mayo	2023-05-27T00:00:00	2024-11-08T18:00:00	3	Temperatura mínima	21.1
96188	7	Sololá	704	Santa Lucía Utatlán 	7	Santa Rita 	5	Mayo	2023-05-27T00:00:00	2024-11-08T18:00:00	5	Humedad	88
96189	7	Sololá	704	Santa Lucía Utatlán 	7	Santa Rita 	5	Mayo	2023-05-27T00:00:00	2024-11-08T18:00:00	6	Velocidad del viento	4.8
96190	7	Sololá	704	Santa Lucía Utatlán 	7	Santa Rita 	5	Mayo	2023-05-27T00:00:00	2024-11-08T18:00:00	7	Dirección del viento	4.83
96191	7	Sololá	704	Santa Lucía Utatlán 	7	Santa Rita 	5	Mayo	2023-05-27T00:00:00	2024-11-08T18:00:00	1	Precipitación	0
96192	7	Sololá	704	Santa Lucía Utatlán 	7	Santa Rita 	5	Mayo	2023-05-27T00:00:00	2024-11-08T18:00:00	8	Radiación solar	60
96193	7	Sololá	704	Santa Lucía Utatlán 	7	Santa Rita 	5	Mayo	2023-05-27T00:00:00	2024-11-08T19:00:00	2	Temperatura media	20.7
96194	7	Sololá	704	Santa Lucía Utatlán 	7	Santa Rita 	5	Mayo	2023-05-27T00:00:00	2024-11-08T19:00:00	4	Temperatura máxima	21.1
96195	7	Sololá	704	Santa Lucía Utatlán 	7	Santa Rita 	5	Mayo	2023-05-27T00:00:00	2024-11-08T19:00:00	3	Temperatura mínima	20.7
96196	7	Sololá	704	Santa Lucía Utatlán 	7	Santa Rita 	5	Mayo	2023-05-27T00:00:00	2024-11-08T19:00:00	5	Humedad	90
96197	7	Sololá	704	Santa Lucía Utatlán 	7	Santa Rita 	5	Mayo	2023-05-27T00:00:00	2024-11-08T19:00:00	6	Velocidad del viento	3.2
96198	7	Sololá	704	Santa Lucía Utatlán 	7	Santa Rita 	5	Mayo	2023-05-27T00:00:00	2024-11-08T19:00:00	7	Dirección del viento	3.22
96199	7	Sololá	704	Santa Lucía Utatlán 	7	Santa Rita 	5	Mayo	2023-05-27T00:00:00	2024-11-08T19:00:00	1	Precipitación	0
96200	7	Sololá	704	Santa Lucía Utatlán 	7	Santa Rita 	5	Mayo	2023-05-27T00:00:00	2024-11-08T19:00:00	8	Radiación solar	0
96201	7	Sololá	704	Santa Lucía Utatlán 	7	Santa Rita 	5	Mayo	2023-05-27T00:00:00	2024-11-08T20:00:00	2	Temperatura media	20.4
96202	7	Sololá	704	Santa Lucía Utatlán 	7	Santa Rita 	5	Mayo	2023-05-27T00:00:00	2024-11-08T20:00:00	4	Temperatura máxima	20.7
96203	7	Sololá	704	Santa Lucía Utatlán 	7	Santa Rita 	5	Mayo	2023-05-27T00:00:00	2024-11-08T20:00:00	3	Temperatura mínima	20.4
96204	7	Sololá	704	Santa Lucía Utatlán 	7	Santa Rita 	5	Mayo	2023-05-27T00:00:00	2024-11-08T20:00:00	5	Humedad	92
96205	7	Sololá	704	Santa Lucía Utatlán 	7	Santa Rita 	5	Mayo	2023-05-27T00:00:00	2024-11-08T20:00:00	6	Velocidad del viento	1.6
96206	7	Sololá	704	Santa Lucía Utatlán 	7	Santa Rita 	5	Mayo	2023-05-27T00:00:00	2024-11-08T20:00:00	7	Dirección del viento	1.61
96207	7	Sololá	704	Santa Lucía Utatlán 	7	Santa Rita 	5	Mayo	2023-05-27T00:00:00	2024-11-08T20:00:00	1	Precipitación	0
96208	7	Sololá	704	Santa Lucía Utatlán 	7	Santa Rita 	5	Mayo	2023-05-27T00:00:00	2024-11-08T20:00:00	8	Radiación solar	0
96209	7	Sololá	704	Santa Lucía Utatlán 	7	Santa Rita 	5	Mayo	2023-05-27T00:00:00	2024-11-08T21:00:00	2	Temperatura media	20.1
96210	7	Sololá	704	Santa Lucía Utatlán 	7	Santa Rita 	5	Mayo	2023-05-27T00:00:00	2024-11-08T21:00:00	4	Temperatura máxima	20.4
96211	7	Sololá	704	Santa Lucía Utatlán 	7	Santa Rita 	5	Mayo	2023-05-27T00:00:00	2024-11-08T21:00:00	3	Temperatura mínima	20.1
96212	7	Sololá	704	Santa Lucía Utatlán 	7	Santa Rita 	5	Mayo	2023-05-27T00:00:00	2024-11-08T21:00:00	5	Humedad	93
96213	7	Sololá	704	Santa Lucía Utatlán 	7	Santa Rita 	5	Mayo	2023-05-27T00:00:00	2024-11-08T21:00:00	6	Velocidad del viento	1.6
96214	7	Sololá	704	Santa Lucía Utatlán 	7	Santa Rita 	5	Mayo	2023-05-27T00:00:00	2024-11-08T21:00:00	7	Dirección del viento	1.61
96215	7	Sololá	704	Santa Lucía Utatlán 	7	Santa Rita 	5	Mayo	2023-05-27T00:00:00	2024-11-08T21:00:00	1	Precipitación	0
96216	7	Sololá	704	Santa Lucía Utatlán 	7	Santa Rita 	5	Mayo	2023-05-27T00:00:00	2024-11-08T21:00:00	8	Radiación solar	0
96217	7	Sololá	704	Santa Lucía Utatlán 	7	Santa Rita 	5	Mayo	2023-05-27T00:00:00	2024-11-08T22:00:00	2	Temperatura media	19.4
96218	7	Sololá	704	Santa Lucía Utatlán 	7	Santa Rita 	5	Mayo	2023-05-27T00:00:00	2024-11-08T22:00:00	4	Temperatura máxima	20.1
96219	7	Sololá	704	Santa Lucía Utatlán 	7	Santa Rita 	5	Mayo	2023-05-27T00:00:00	2024-11-08T22:00:00	3	Temperatura mínima	19.4
96220	7	Sololá	704	Santa Lucía Utatlán 	7	Santa Rita 	5	Mayo	2023-05-27T00:00:00	2024-11-08T22:00:00	5	Humedad	95
96221	7	Sololá	704	Santa Lucía Utatlán 	7	Santa Rita 	5	Mayo	2023-05-27T00:00:00	2024-11-08T22:00:00	6	Velocidad del viento	1.6
96222	7	Sololá	704	Santa Lucía Utatlán 	7	Santa Rita 	5	Mayo	2023-05-27T00:00:00	2024-11-08T22:00:00	7	Dirección del viento	1.61
96223	7	Sololá	704	Santa Lucía Utatlán 	7	Santa Rita 	5	Mayo	2023-05-27T00:00:00	2024-11-08T22:00:00	1	Precipitación	0.2
96224	7	Sololá	704	Santa Lucía Utatlán 	7	Santa Rita 	5	Mayo	2023-05-27T00:00:00	2024-11-08T22:00:00	8	Radiación solar	0
96225	7	Sololá	704	Santa Lucía Utatlán 	7	Santa Rita 	5	Mayo	2023-05-27T00:00:00	2024-11-08T23:00:00	2	Temperatura media	18.6
96226	7	Sololá	704	Santa Lucía Utatlán 	7	Santa Rita 	5	Mayo	2023-05-27T00:00:00	2024-11-08T23:00:00	4	Temperatura máxima	19.4
96227	7	Sololá	704	Santa Lucía Utatlán 	7	Santa Rita 	5	Mayo	2023-05-27T00:00:00	2024-11-08T23:00:00	3	Temperatura mínima	18.6
96228	7	Sololá	704	Santa Lucía Utatlán 	7	Santa Rita 	5	Mayo	2023-05-27T00:00:00	2024-11-08T23:00:00	5	Humedad	94
96229	7	Sololá	704	Santa Lucía Utatlán 	7	Santa Rita 	5	Mayo	2023-05-27T00:00:00	2024-11-08T23:00:00	6	Velocidad del viento	1.6
96230	7	Sololá	704	Santa Lucía Utatlán 	7	Santa Rita 	5	Mayo	2023-05-27T00:00:00	2024-11-08T23:00:00	7	Dirección del viento	1.61
96231	7	Sololá	704	Santa Lucía Utatlán 	7	Santa Rita 	5	Mayo	2023-05-27T00:00:00	2024-11-08T23:00:00	1	Precipitación	6.4
96232	7	Sololá	704	Santa Lucía Utatlán 	7	Santa Rita 	5	Mayo	2023-05-27T00:00:00	2024-11-08T23:00:00	8	Radiación solar	0
96233	7	Sololá	704	Santa Lucía Utatlán 	7	Santa Rita 	5	Mayo	2023-05-28T00:00:00	2024-11-08T00:00:00	2	Temperatura media	18.5
96234	7	Sololá	704	Santa Lucía Utatlán 	7	Santa Rita 	5	Mayo	2023-05-28T00:00:00	2024-11-08T00:00:00	4	Temperatura máxima	18.6
96235	7	Sololá	704	Santa Lucía Utatlán 	7	Santa Rita 	5	Mayo	2023-05-28T00:00:00	2024-11-08T00:00:00	3	Temperatura mínima	18.4
96236	7	Sololá	704	Santa Lucía Utatlán 	7	Santa Rita 	5	Mayo	2023-05-28T00:00:00	2024-11-08T00:00:00	5	Humedad	96
96237	7	Sololá	704	Santa Lucía Utatlán 	7	Santa Rita 	5	Mayo	2023-05-28T00:00:00	2024-11-08T00:00:00	6	Velocidad del viento	0
96238	7	Sololá	704	Santa Lucía Utatlán 	7	Santa Rita 	5	Mayo	2023-05-28T00:00:00	2024-11-08T00:00:00	7	Dirección del viento	0
96239	7	Sololá	704	Santa Lucía Utatlán 	7	Santa Rita 	5	Mayo	2023-05-28T00:00:00	2024-11-08T00:00:00	1	Precipitación	1
96240	7	Sololá	704	Santa Lucía Utatlán 	7	Santa Rita 	5	Mayo	2023-05-28T00:00:00	2024-11-08T00:00:00	8	Radiación solar	0
96241	7	Sololá	704	Santa Lucía Utatlán 	7	Santa Rita 	5	Mayo	2023-05-28T00:00:00	2024-11-08T01:00:00	2	Temperatura media	18.4
96242	7	Sololá	704	Santa Lucía Utatlán 	7	Santa Rita 	5	Mayo	2023-05-28T00:00:00	2024-11-08T01:00:00	4	Temperatura máxima	18.6
96243	7	Sololá	704	Santa Lucía Utatlán 	7	Santa Rita 	5	Mayo	2023-05-28T00:00:00	2024-11-08T01:00:00	3	Temperatura mínima	18.4
96244	7	Sololá	704	Santa Lucía Utatlán 	7	Santa Rita 	5	Mayo	2023-05-28T00:00:00	2024-11-08T01:00:00	5	Humedad	96
96245	7	Sololá	704	Santa Lucía Utatlán 	7	Santa Rita 	5	Mayo	2023-05-28T00:00:00	2024-11-08T01:00:00	6	Velocidad del viento	0
96246	7	Sololá	704	Santa Lucía Utatlán 	7	Santa Rita 	5	Mayo	2023-05-28T00:00:00	2024-11-08T01:00:00	7	Dirección del viento	0
96247	7	Sololá	704	Santa Lucía Utatlán 	7	Santa Rita 	5	Mayo	2023-05-28T00:00:00	2024-11-08T01:00:00	1	Precipitación	1
96248	7	Sololá	704	Santa Lucía Utatlán 	7	Santa Rita 	5	Mayo	2023-05-28T00:00:00	2024-11-08T01:00:00	8	Radiación solar	0
96249	7	Sololá	704	Santa Lucía Utatlán 	7	Santa Rita 	5	Mayo	2023-05-28T00:00:00	2024-11-08T02:00:00	2	Temperatura media	18.1
96250	7	Sololá	704	Santa Lucía Utatlán 	7	Santa Rita 	5	Mayo	2023-05-28T00:00:00	2024-11-08T02:00:00	4	Temperatura máxima	18.4
96251	7	Sololá	704	Santa Lucía Utatlán 	7	Santa Rita 	5	Mayo	2023-05-28T00:00:00	2024-11-08T02:00:00	3	Temperatura mínima	18.1
96252	7	Sololá	704	Santa Lucía Utatlán 	7	Santa Rita 	5	Mayo	2023-05-28T00:00:00	2024-11-08T02:00:00	5	Humedad	96
96253	7	Sololá	704	Santa Lucía Utatlán 	7	Santa Rita 	5	Mayo	2023-05-28T00:00:00	2024-11-08T02:00:00	6	Velocidad del viento	0
96254	7	Sololá	704	Santa Lucía Utatlán 	7	Santa Rita 	5	Mayo	2023-05-28T00:00:00	2024-11-08T02:00:00	7	Dirección del viento	0
96255	7	Sololá	704	Santa Lucía Utatlán 	7	Santa Rita 	5	Mayo	2023-05-28T00:00:00	2024-11-08T02:00:00	1	Precipitación	0.6
96256	7	Sololá	704	Santa Lucía Utatlán 	7	Santa Rita 	5	Mayo	2023-05-28T00:00:00	2024-11-08T02:00:00	8	Radiación solar	0
96257	7	Sololá	704	Santa Lucía Utatlán 	7	Santa Rita 	5	Mayo	2023-05-28T00:00:00	2024-11-08T03:00:00	2	Temperatura media	17.9
96258	7	Sololá	704	Santa Lucía Utatlán 	7	Santa Rita 	5	Mayo	2023-05-28T00:00:00	2024-11-08T03:00:00	4	Temperatura máxima	18.1
96259	7	Sololá	704	Santa Lucía Utatlán 	7	Santa Rita 	5	Mayo	2023-05-28T00:00:00	2024-11-08T03:00:00	3	Temperatura mínima	17.9
96260	7	Sololá	704	Santa Lucía Utatlán 	7	Santa Rita 	5	Mayo	2023-05-28T00:00:00	2024-11-08T03:00:00	5	Humedad	97
96261	7	Sololá	704	Santa Lucía Utatlán 	7	Santa Rita 	5	Mayo	2023-05-28T00:00:00	2024-11-08T03:00:00	6	Velocidad del viento	1.6
96262	7	Sololá	704	Santa Lucía Utatlán 	7	Santa Rita 	5	Mayo	2023-05-28T00:00:00	2024-11-08T03:00:00	7	Dirección del viento	1.61
96263	7	Sololá	704	Santa Lucía Utatlán 	7	Santa Rita 	5	Mayo	2023-05-28T00:00:00	2024-11-08T03:00:00	1	Precipitación	1.2
96264	7	Sololá	704	Santa Lucía Utatlán 	7	Santa Rita 	5	Mayo	2023-05-28T00:00:00	2024-11-08T03:00:00	8	Radiación solar	0
96265	7	Sololá	704	Santa Lucía Utatlán 	7	Santa Rita 	5	Mayo	2023-05-28T00:00:00	2024-11-08T04:00:00	2	Temperatura media	18
96266	7	Sololá	704	Santa Lucía Utatlán 	7	Santa Rita 	5	Mayo	2023-05-28T00:00:00	2024-11-08T04:00:00	4	Temperatura máxima	18
96267	7	Sololá	704	Santa Lucía Utatlán 	7	Santa Rita 	5	Mayo	2023-05-28T00:00:00	2024-11-08T04:00:00	3	Temperatura mínima	17.9
96268	7	Sololá	704	Santa Lucía Utatlán 	7	Santa Rita 	5	Mayo	2023-05-28T00:00:00	2024-11-08T04:00:00	5	Humedad	97
96269	7	Sololá	704	Santa Lucía Utatlán 	7	Santa Rita 	5	Mayo	2023-05-28T00:00:00	2024-11-08T04:00:00	6	Velocidad del viento	0
96270	7	Sololá	704	Santa Lucía Utatlán 	7	Santa Rita 	5	Mayo	2023-05-28T00:00:00	2024-11-08T04:00:00	7	Dirección del viento	0
96271	7	Sololá	704	Santa Lucía Utatlán 	7	Santa Rita 	5	Mayo	2023-05-28T00:00:00	2024-11-08T04:00:00	1	Precipitación	0.6
96272	7	Sololá	704	Santa Lucía Utatlán 	7	Santa Rita 	5	Mayo	2023-05-28T00:00:00	2024-11-08T04:00:00	8	Radiación solar	0
96273	7	Sololá	704	Santa Lucía Utatlán 	7	Santa Rita 	5	Mayo	2023-05-28T00:00:00	2024-11-08T05:00:00	2	Temperatura media	17.9
96274	7	Sololá	704	Santa Lucía Utatlán 	7	Santa Rita 	5	Mayo	2023-05-28T00:00:00	2024-11-08T05:00:00	4	Temperatura máxima	18
96275	7	Sololá	704	Santa Lucía Utatlán 	7	Santa Rita 	5	Mayo	2023-05-28T00:00:00	2024-11-08T05:00:00	3	Temperatura mínima	17.8
96276	7	Sololá	704	Santa Lucía Utatlán 	7	Santa Rita 	5	Mayo	2023-05-28T00:00:00	2024-11-08T05:00:00	5	Humedad	97
96277	7	Sololá	704	Santa Lucía Utatlán 	7	Santa Rita 	5	Mayo	2023-05-28T00:00:00	2024-11-08T05:00:00	6	Velocidad del viento	0
96278	7	Sololá	704	Santa Lucía Utatlán 	7	Santa Rita 	5	Mayo	2023-05-28T00:00:00	2024-11-08T05:00:00	7	Dirección del viento	0
96279	7	Sololá	704	Santa Lucía Utatlán 	7	Santa Rita 	5	Mayo	2023-05-28T00:00:00	2024-11-08T05:00:00	1	Precipitación	0
96280	7	Sololá	704	Santa Lucía Utatlán 	7	Santa Rita 	5	Mayo	2023-05-28T00:00:00	2024-11-08T05:00:00	8	Radiación solar	0
96281	7	Sololá	704	Santa Lucía Utatlán 	7	Santa Rita 	5	Mayo	2023-05-28T00:00:00	2024-11-08T06:00:00	2	Temperatura media	17.9
96282	7	Sololá	704	Santa Lucía Utatlán 	7	Santa Rita 	5	Mayo	2023-05-28T00:00:00	2024-11-08T06:00:00	4	Temperatura máxima	18
96283	7	Sololá	704	Santa Lucía Utatlán 	7	Santa Rita 	5	Mayo	2023-05-28T00:00:00	2024-11-08T06:00:00	3	Temperatura mínima	17.8
96284	7	Sololá	704	Santa Lucía Utatlán 	7	Santa Rita 	5	Mayo	2023-05-28T00:00:00	2024-11-08T06:00:00	5	Humedad	97
96285	7	Sololá	704	Santa Lucía Utatlán 	7	Santa Rita 	5	Mayo	2023-05-28T00:00:00	2024-11-08T06:00:00	6	Velocidad del viento	0
96286	7	Sololá	704	Santa Lucía Utatlán 	7	Santa Rita 	5	Mayo	2023-05-28T00:00:00	2024-11-08T06:00:00	7	Dirección del viento	0
96287	7	Sololá	704	Santa Lucía Utatlán 	7	Santa Rita 	5	Mayo	2023-05-28T00:00:00	2024-11-08T06:00:00	1	Precipitación	0
96288	7	Sololá	704	Santa Lucía Utatlán 	7	Santa Rita 	5	Mayo	2023-05-28T00:00:00	2024-11-08T06:00:00	8	Radiación solar	0
96289	7	Sololá	704	Santa Lucía Utatlán 	7	Santa Rita 	5	Mayo	2023-05-28T00:00:00	2024-11-08T07:00:00	2	Temperatura media	18.2
96290	7	Sololá	704	Santa Lucía Utatlán 	7	Santa Rita 	5	Mayo	2023-05-28T00:00:00	2024-11-08T07:00:00	4	Temperatura máxima	18.2
96291	7	Sololá	704	Santa Lucía Utatlán 	7	Santa Rita 	5	Mayo	2023-05-28T00:00:00	2024-11-08T07:00:00	3	Temperatura mínima	17.9
96292	7	Sololá	704	Santa Lucía Utatlán 	7	Santa Rita 	5	Mayo	2023-05-28T00:00:00	2024-11-08T07:00:00	5	Humedad	97
96293	7	Sololá	704	Santa Lucía Utatlán 	7	Santa Rita 	5	Mayo	2023-05-28T00:00:00	2024-11-08T07:00:00	6	Velocidad del viento	0
96294	7	Sololá	704	Santa Lucía Utatlán 	7	Santa Rita 	5	Mayo	2023-05-28T00:00:00	2024-11-08T07:00:00	7	Dirección del viento	0
96295	7	Sololá	704	Santa Lucía Utatlán 	7	Santa Rita 	5	Mayo	2023-05-28T00:00:00	2024-11-08T07:00:00	1	Precipitación	0.2
96296	7	Sololá	704	Santa Lucía Utatlán 	7	Santa Rita 	5	Mayo	2023-05-28T00:00:00	2024-11-08T07:00:00	8	Radiación solar	15
96297	7	Sololá	704	Santa Lucía Utatlán 	7	Santa Rita 	5	Mayo	2023-05-28T00:00:00	2024-11-08T08:00:00	2	Temperatura media	20.1
96298	7	Sololá	704	Santa Lucía Utatlán 	7	Santa Rita 	5	Mayo	2023-05-28T00:00:00	2024-11-08T08:00:00	4	Temperatura máxima	20.1
96299	7	Sololá	704	Santa Lucía Utatlán 	7	Santa Rita 	5	Mayo	2023-05-28T00:00:00	2024-11-08T08:00:00	3	Temperatura mínima	18.2
96300	7	Sololá	704	Santa Lucía Utatlán 	7	Santa Rita 	5	Mayo	2023-05-28T00:00:00	2024-11-08T08:00:00	5	Humedad	91
96301	7	Sololá	704	Santa Lucía Utatlán 	7	Santa Rita 	5	Mayo	2023-05-28T00:00:00	2024-11-08T08:00:00	6	Velocidad del viento	0
96302	7	Sololá	704	Santa Lucía Utatlán 	7	Santa Rita 	5	Mayo	2023-05-28T00:00:00	2024-11-08T08:00:00	7	Dirección del viento	0
96303	7	Sololá	704	Santa Lucía Utatlán 	7	Santa Rita 	5	Mayo	2023-05-28T00:00:00	2024-11-08T08:00:00	1	Precipitación	0
96304	7	Sololá	704	Santa Lucía Utatlán 	7	Santa Rita 	5	Mayo	2023-05-28T00:00:00	2024-11-08T08:00:00	8	Radiación solar	168
96305	7	Sololá	704	Santa Lucía Utatlán 	7	Santa Rita 	5	Mayo	2023-05-28T00:00:00	2024-11-08T09:00:00	2	Temperatura media	20.9
96306	7	Sololá	704	Santa Lucía Utatlán 	7	Santa Rita 	5	Mayo	2023-05-28T00:00:00	2024-11-08T09:00:00	4	Temperatura máxima	21.6
96307	7	Sololá	704	Santa Lucía Utatlán 	7	Santa Rita 	5	Mayo	2023-05-28T00:00:00	2024-11-08T09:00:00	3	Temperatura mínima	20.1
96308	7	Sololá	704	Santa Lucía Utatlán 	7	Santa Rita 	5	Mayo	2023-05-28T00:00:00	2024-11-08T09:00:00	5	Humedad	86
96309	7	Sololá	704	Santa Lucía Utatlán 	7	Santa Rita 	5	Mayo	2023-05-28T00:00:00	2024-11-08T09:00:00	6	Velocidad del viento	4.8
96310	7	Sololá	704	Santa Lucía Utatlán 	7	Santa Rita 	5	Mayo	2023-05-28T00:00:00	2024-11-08T09:00:00	7	Dirección del viento	4.83
96311	7	Sololá	704	Santa Lucía Utatlán 	7	Santa Rita 	5	Mayo	2023-05-28T00:00:00	2024-11-08T09:00:00	1	Precipitación	0
96312	7	Sololá	704	Santa Lucía Utatlán 	7	Santa Rita 	5	Mayo	2023-05-28T00:00:00	2024-11-08T09:00:00	8	Radiación solar	413
96313	7	Sololá	704	Santa Lucía Utatlán 	7	Santa Rita 	5	Mayo	2023-05-28T00:00:00	2024-11-08T10:00:00	2	Temperatura media	20.8
96314	7	Sololá	704	Santa Lucía Utatlán 	7	Santa Rita 	5	Mayo	2023-05-28T00:00:00	2024-11-08T10:00:00	4	Temperatura máxima	20.9
96315	7	Sololá	704	Santa Lucía Utatlán 	7	Santa Rita 	5	Mayo	2023-05-28T00:00:00	2024-11-08T10:00:00	3	Temperatura mínima	20.2
96316	7	Sololá	704	Santa Lucía Utatlán 	7	Santa Rita 	5	Mayo	2023-05-28T00:00:00	2024-11-08T10:00:00	5	Humedad	85
96317	7	Sololá	704	Santa Lucía Utatlán 	7	Santa Rita 	5	Mayo	2023-05-28T00:00:00	2024-11-08T10:00:00	6	Velocidad del viento	4.8
96318	7	Sololá	704	Santa Lucía Utatlán 	7	Santa Rita 	5	Mayo	2023-05-28T00:00:00	2024-11-08T10:00:00	7	Dirección del viento	4.83
96319	7	Sololá	704	Santa Lucía Utatlán 	7	Santa Rita 	5	Mayo	2023-05-28T00:00:00	2024-11-08T10:00:00	1	Precipitación	0
96320	7	Sololá	704	Santa Lucía Utatlán 	7	Santa Rita 	5	Mayo	2023-05-28T00:00:00	2024-11-08T10:00:00	8	Radiación solar	226
96321	7	Sololá	704	Santa Lucía Utatlán 	7	Santa Rita 	5	Mayo	2023-05-28T00:00:00	2024-11-08T11:00:00	2	Temperatura media	21.4
96322	7	Sololá	704	Santa Lucía Utatlán 	7	Santa Rita 	5	Mayo	2023-05-28T00:00:00	2024-11-08T11:00:00	4	Temperatura máxima	21.9
96323	7	Sololá	704	Santa Lucía Utatlán 	7	Santa Rita 	5	Mayo	2023-05-28T00:00:00	2024-11-08T11:00:00	3	Temperatura mínima	20.8
96324	7	Sololá	704	Santa Lucía Utatlán 	7	Santa Rita 	5	Mayo	2023-05-28T00:00:00	2024-11-08T11:00:00	5	Humedad	81
96325	7	Sololá	704	Santa Lucía Utatlán 	7	Santa Rita 	5	Mayo	2023-05-28T00:00:00	2024-11-08T11:00:00	6	Velocidad del viento	3.2
96326	7	Sololá	704	Santa Lucía Utatlán 	7	Santa Rita 	5	Mayo	2023-05-28T00:00:00	2024-11-08T11:00:00	7	Dirección del viento	3.22
96327	7	Sololá	704	Santa Lucía Utatlán 	7	Santa Rita 	5	Mayo	2023-05-28T00:00:00	2024-11-08T11:00:00	1	Precipitación	0
96328	7	Sololá	704	Santa Lucía Utatlán 	7	Santa Rita 	5	Mayo	2023-05-28T00:00:00	2024-11-08T11:00:00	8	Radiación solar	245
96329	7	Sololá	704	Santa Lucía Utatlán 	7	Santa Rita 	5	Mayo	2023-05-28T00:00:00	2024-11-08T12:00:00	2	Temperatura media	21.2
96330	7	Sololá	704	Santa Lucía Utatlán 	7	Santa Rita 	5	Mayo	2023-05-28T00:00:00	2024-11-08T12:00:00	4	Temperatura máxima	21.7
96331	7	Sololá	704	Santa Lucía Utatlán 	7	Santa Rita 	5	Mayo	2023-05-28T00:00:00	2024-11-08T12:00:00	3	Temperatura mínima	21.2
96332	7	Sololá	704	Santa Lucía Utatlán 	7	Santa Rita 	5	Mayo	2023-05-28T00:00:00	2024-11-08T12:00:00	5	Humedad	88
96333	7	Sololá	704	Santa Lucía Utatlán 	7	Santa Rita 	5	Mayo	2023-05-28T00:00:00	2024-11-08T12:00:00	6	Velocidad del viento	3.2
96334	7	Sololá	704	Santa Lucía Utatlán 	7	Santa Rita 	5	Mayo	2023-05-28T00:00:00	2024-11-08T12:00:00	7	Dirección del viento	3.22
96335	7	Sololá	704	Santa Lucía Utatlán 	7	Santa Rita 	5	Mayo	2023-05-28T00:00:00	2024-11-08T12:00:00	1	Precipitación	0
96336	7	Sololá	704	Santa Lucía Utatlán 	7	Santa Rita 	5	Mayo	2023-05-28T00:00:00	2024-11-08T12:00:00	8	Radiación solar	154
96337	7	Sololá	704	Santa Lucía Utatlán 	7	Santa Rita 	5	Mayo	2023-05-28T00:00:00	2024-11-08T13:00:00	2	Temperatura media	22.5
96338	7	Sololá	704	Santa Lucía Utatlán 	7	Santa Rita 	5	Mayo	2023-05-28T00:00:00	2024-11-08T13:00:00	4	Temperatura máxima	22.5
96339	7	Sololá	704	Santa Lucía Utatlán 	7	Santa Rita 	5	Mayo	2023-05-28T00:00:00	2024-11-08T13:00:00	3	Temperatura mínima	21.1
96340	7	Sololá	704	Santa Lucía Utatlán 	7	Santa Rita 	5	Mayo	2023-05-28T00:00:00	2024-11-08T13:00:00	5	Humedad	83
96341	7	Sololá	704	Santa Lucía Utatlán 	7	Santa Rita 	5	Mayo	2023-05-28T00:00:00	2024-11-08T13:00:00	6	Velocidad del viento	3.2
96342	7	Sololá	704	Santa Lucía Utatlán 	7	Santa Rita 	5	Mayo	2023-05-28T00:00:00	2024-11-08T13:00:00	7	Dirección del viento	3.22
96343	7	Sololá	704	Santa Lucía Utatlán 	7	Santa Rita 	5	Mayo	2023-05-28T00:00:00	2024-11-08T13:00:00	1	Precipitación	0
96344	7	Sololá	704	Santa Lucía Utatlán 	7	Santa Rita 	5	Mayo	2023-05-28T00:00:00	2024-11-08T13:00:00	8	Radiación solar	349
96345	7	Sololá	704	Santa Lucía Utatlán 	7	Santa Rita 	5	Mayo	2023-05-28T00:00:00	2024-11-08T14:00:00	2	Temperatura media	22
96346	7	Sololá	704	Santa Lucía Utatlán 	7	Santa Rita 	5	Mayo	2023-05-28T00:00:00	2024-11-08T14:00:00	4	Temperatura máxima	23.1
96347	7	Sololá	704	Santa Lucía Utatlán 	7	Santa Rita 	5	Mayo	2023-05-28T00:00:00	2024-11-08T14:00:00	3	Temperatura mínima	21.9
96348	7	Sololá	704	Santa Lucía Utatlán 	7	Santa Rita 	5	Mayo	2023-05-28T00:00:00	2024-11-08T14:00:00	5	Humedad	87
96349	7	Sololá	704	Santa Lucía Utatlán 	7	Santa Rita 	5	Mayo	2023-05-28T00:00:00	2024-11-08T14:00:00	6	Velocidad del viento	4.8
96350	7	Sololá	704	Santa Lucía Utatlán 	7	Santa Rita 	5	Mayo	2023-05-28T00:00:00	2024-11-08T14:00:00	7	Dirección del viento	4.83
96351	7	Sololá	704	Santa Lucía Utatlán 	7	Santa Rita 	5	Mayo	2023-05-28T00:00:00	2024-11-08T14:00:00	1	Precipitación	0
96352	7	Sololá	704	Santa Lucía Utatlán 	7	Santa Rita 	5	Mayo	2023-05-28T00:00:00	2024-11-08T14:00:00	8	Radiación solar	212
96353	7	Sololá	704	Santa Lucía Utatlán 	7	Santa Rita 	5	Mayo	2023-05-28T00:00:00	2024-11-08T15:00:00	2	Temperatura media	21
96354	7	Sololá	704	Santa Lucía Utatlán 	7	Santa Rita 	5	Mayo	2023-05-28T00:00:00	2024-11-08T15:00:00	4	Temperatura máxima	21.9
96355	7	Sololá	704	Santa Lucía Utatlán 	7	Santa Rita 	5	Mayo	2023-05-28T00:00:00	2024-11-08T15:00:00	3	Temperatura mínima	20.8
96356	7	Sololá	704	Santa Lucía Utatlán 	7	Santa Rita 	5	Mayo	2023-05-28T00:00:00	2024-11-08T15:00:00	5	Humedad	91
96357	7	Sololá	704	Santa Lucía Utatlán 	7	Santa Rita 	5	Mayo	2023-05-28T00:00:00	2024-11-08T15:00:00	6	Velocidad del viento	3.2
96358	7	Sololá	704	Santa Lucía Utatlán 	7	Santa Rita 	5	Mayo	2023-05-28T00:00:00	2024-11-08T15:00:00	7	Dirección del viento	3.22
96359	7	Sololá	704	Santa Lucía Utatlán 	7	Santa Rita 	5	Mayo	2023-05-28T00:00:00	2024-11-08T15:00:00	1	Precipitación	0
96360	7	Sololá	704	Santa Lucía Utatlán 	7	Santa Rita 	5	Mayo	2023-05-28T00:00:00	2024-11-08T15:00:00	8	Radiación solar	83
96361	7	Sololá	704	Santa Lucía Utatlán 	7	Santa Rita 	5	Mayo	2023-05-28T00:00:00	2024-11-08T16:00:00	2	Temperatura media	20.4
96362	7	Sololá	704	Santa Lucía Utatlán 	7	Santa Rita 	5	Mayo	2023-05-28T00:00:00	2024-11-08T16:00:00	4	Temperatura máxima	20.9
96363	7	Sololá	704	Santa Lucía Utatlán 	7	Santa Rita 	5	Mayo	2023-05-28T00:00:00	2024-11-08T16:00:00	3	Temperatura mínima	20.2
96364	7	Sololá	704	Santa Lucía Utatlán 	7	Santa Rita 	5	Mayo	2023-05-28T00:00:00	2024-11-08T16:00:00	5	Humedad	93
96365	7	Sololá	704	Santa Lucía Utatlán 	7	Santa Rita 	5	Mayo	2023-05-28T00:00:00	2024-11-08T16:00:00	6	Velocidad del viento	4.8
96366	7	Sololá	704	Santa Lucía Utatlán 	7	Santa Rita 	5	Mayo	2023-05-28T00:00:00	2024-11-08T16:00:00	7	Dirección del viento	4.83
96367	7	Sololá	704	Santa Lucía Utatlán 	7	Santa Rita 	5	Mayo	2023-05-28T00:00:00	2024-11-08T16:00:00	1	Precipitación	0
96368	7	Sololá	704	Santa Lucía Utatlán 	7	Santa Rita 	5	Mayo	2023-05-28T00:00:00	2024-11-08T16:00:00	8	Radiación solar	77
96369	7	Sololá	704	Santa Lucía Utatlán 	7	Santa Rita 	5	Mayo	2023-05-28T00:00:00	2024-11-08T17:00:00	2	Temperatura media	20.3
96370	7	Sololá	704	Santa Lucía Utatlán 	7	Santa Rita 	5	Mayo	2023-05-28T00:00:00	2024-11-08T17:00:00	4	Temperatura máxima	20.6
96371	7	Sololá	704	Santa Lucía Utatlán 	7	Santa Rita 	5	Mayo	2023-05-28T00:00:00	2024-11-08T17:00:00	3	Temperatura mínima	20.2
96372	7	Sololá	704	Santa Lucía Utatlán 	7	Santa Rita 	5	Mayo	2023-05-28T00:00:00	2024-11-08T17:00:00	5	Humedad	92
96373	7	Sololá	704	Santa Lucía Utatlán 	7	Santa Rita 	5	Mayo	2023-05-28T00:00:00	2024-11-08T17:00:00	6	Velocidad del viento	3.2
96374	7	Sololá	704	Santa Lucía Utatlán 	7	Santa Rita 	5	Mayo	2023-05-28T00:00:00	2024-11-08T17:00:00	7	Dirección del viento	3.22
96375	7	Sololá	704	Santa Lucía Utatlán 	7	Santa Rita 	5	Mayo	2023-05-28T00:00:00	2024-11-08T17:00:00	1	Precipitación	0
96376	7	Sololá	704	Santa Lucía Utatlán 	7	Santa Rita 	5	Mayo	2023-05-28T00:00:00	2024-11-08T17:00:00	8	Radiación solar	43
96377	7	Sololá	704	Santa Lucía Utatlán 	7	Santa Rita 	5	Mayo	2023-05-28T00:00:00	2024-11-08T18:00:00	2	Temperatura media	20.4
96378	7	Sololá	704	Santa Lucía Utatlán 	7	Santa Rita 	5	Mayo	2023-05-28T00:00:00	2024-11-08T18:00:00	4	Temperatura máxima	20.4
96379	7	Sololá	704	Santa Lucía Utatlán 	7	Santa Rita 	5	Mayo	2023-05-28T00:00:00	2024-11-08T18:00:00	3	Temperatura mínima	20.3
96380	7	Sololá	704	Santa Lucía Utatlán 	7	Santa Rita 	5	Mayo	2023-05-28T00:00:00	2024-11-08T18:00:00	5	Humedad	93
96381	7	Sololá	704	Santa Lucía Utatlán 	7	Santa Rita 	5	Mayo	2023-05-28T00:00:00	2024-11-08T18:00:00	6	Velocidad del viento	1.6
96382	7	Sololá	704	Santa Lucía Utatlán 	7	Santa Rita 	5	Mayo	2023-05-28T00:00:00	2024-11-08T18:00:00	7	Dirección del viento	1.61
96383	7	Sololá	704	Santa Lucía Utatlán 	7	Santa Rita 	5	Mayo	2023-05-28T00:00:00	2024-11-08T18:00:00	1	Precipitación	0
96384	7	Sololá	704	Santa Lucía Utatlán 	7	Santa Rita 	5	Mayo	2023-05-28T00:00:00	2024-11-08T18:00:00	8	Radiación solar	43
96385	7	Sololá	704	Santa Lucía Utatlán 	7	Santa Rita 	5	Mayo	2023-05-28T00:00:00	2024-11-08T19:00:00	2	Temperatura media	20
96386	7	Sololá	704	Santa Lucía Utatlán 	7	Santa Rita 	5	Mayo	2023-05-28T00:00:00	2024-11-08T19:00:00	4	Temperatura máxima	20.4
96387	7	Sololá	704	Santa Lucía Utatlán 	7	Santa Rita 	5	Mayo	2023-05-28T00:00:00	2024-11-08T19:00:00	3	Temperatura mínima	20
96388	7	Sololá	704	Santa Lucía Utatlán 	7	Santa Rita 	5	Mayo	2023-05-28T00:00:00	2024-11-08T19:00:00	5	Humedad	94
96389	7	Sololá	704	Santa Lucía Utatlán 	7	Santa Rita 	5	Mayo	2023-05-28T00:00:00	2024-11-08T19:00:00	6	Velocidad del viento	1.6
96390	7	Sololá	704	Santa Lucía Utatlán 	7	Santa Rita 	5	Mayo	2023-05-28T00:00:00	2024-11-08T19:00:00	7	Dirección del viento	1.61
96391	7	Sololá	704	Santa Lucía Utatlán 	7	Santa Rita 	5	Mayo	2023-05-28T00:00:00	2024-11-08T19:00:00	1	Precipitación	0
96392	7	Sololá	704	Santa Lucía Utatlán 	7	Santa Rita 	5	Mayo	2023-05-28T00:00:00	2024-11-08T19:00:00	8	Radiación solar	0
96393	7	Sololá	704	Santa Lucía Utatlán 	7	Santa Rita 	5	Mayo	2023-05-28T00:00:00	2024-11-08T20:00:00	2	Temperatura media	19.8
96394	7	Sololá	704	Santa Lucía Utatlán 	7	Santa Rita 	5	Mayo	2023-05-28T00:00:00	2024-11-08T20:00:00	4	Temperatura máxima	20
96395	7	Sololá	704	Santa Lucía Utatlán 	7	Santa Rita 	5	Mayo	2023-05-28T00:00:00	2024-11-08T20:00:00	3	Temperatura mínima	19.8
96396	7	Sololá	704	Santa Lucía Utatlán 	7	Santa Rita 	5	Mayo	2023-05-28T00:00:00	2024-11-08T20:00:00	5	Humedad	94
96397	7	Sololá	704	Santa Lucía Utatlán 	7	Santa Rita 	5	Mayo	2023-05-28T00:00:00	2024-11-08T20:00:00	6	Velocidad del viento	0
96398	7	Sololá	704	Santa Lucía Utatlán 	7	Santa Rita 	5	Mayo	2023-05-28T00:00:00	2024-11-08T20:00:00	7	Dirección del viento	0
96399	7	Sololá	704	Santa Lucía Utatlán 	7	Santa Rita 	5	Mayo	2023-05-28T00:00:00	2024-11-08T20:00:00	1	Precipitación	0
96400	7	Sololá	704	Santa Lucía Utatlán 	7	Santa Rita 	5	Mayo	2023-05-28T00:00:00	2024-11-08T20:00:00	8	Radiación solar	0
96401	7	Sololá	704	Santa Lucía Utatlán 	7	Santa Rita 	5	Mayo	2023-05-28T00:00:00	2024-11-08T21:00:00	2	Temperatura media	19.3
96402	7	Sololá	704	Santa Lucía Utatlán 	7	Santa Rita 	5	Mayo	2023-05-28T00:00:00	2024-11-08T21:00:00	4	Temperatura máxima	19.8
96403	7	Sololá	704	Santa Lucía Utatlán 	7	Santa Rita 	5	Mayo	2023-05-28T00:00:00	2024-11-08T21:00:00	3	Temperatura mínima	19.3
96404	7	Sololá	704	Santa Lucía Utatlán 	7	Santa Rita 	5	Mayo	2023-05-28T00:00:00	2024-11-08T21:00:00	5	Humedad	93
96405	7	Sololá	704	Santa Lucía Utatlán 	7	Santa Rita 	5	Mayo	2023-05-28T00:00:00	2024-11-08T21:00:00	6	Velocidad del viento	1.6
96406	7	Sololá	704	Santa Lucía Utatlán 	7	Santa Rita 	5	Mayo	2023-05-28T00:00:00	2024-11-08T21:00:00	7	Dirección del viento	1.61
96407	7	Sololá	704	Santa Lucía Utatlán 	7	Santa Rita 	5	Mayo	2023-05-28T00:00:00	2024-11-08T21:00:00	1	Precipitación	0
96408	7	Sololá	704	Santa Lucía Utatlán 	7	Santa Rita 	5	Mayo	2023-05-28T00:00:00	2024-11-08T21:00:00	8	Radiación solar	0
96409	7	Sololá	704	Santa Lucía Utatlán 	7	Santa Rita 	5	Mayo	2023-05-28T00:00:00	2024-11-08T22:00:00	2	Temperatura media	19.5
96410	7	Sololá	704	Santa Lucía Utatlán 	7	Santa Rita 	5	Mayo	2023-05-28T00:00:00	2024-11-08T22:00:00	4	Temperatura máxima	19.5
96411	7	Sololá	704	Santa Lucía Utatlán 	7	Santa Rita 	5	Mayo	2023-05-28T00:00:00	2024-11-08T22:00:00	3	Temperatura mínima	19.2
96412	7	Sololá	704	Santa Lucía Utatlán 	7	Santa Rita 	5	Mayo	2023-05-28T00:00:00	2024-11-08T22:00:00	5	Humedad	94
96413	7	Sololá	704	Santa Lucía Utatlán 	7	Santa Rita 	5	Mayo	2023-05-28T00:00:00	2024-11-08T22:00:00	6	Velocidad del viento	0
96414	7	Sololá	704	Santa Lucía Utatlán 	7	Santa Rita 	5	Mayo	2023-05-28T00:00:00	2024-11-08T22:00:00	7	Dirección del viento	0
96415	7	Sololá	704	Santa Lucía Utatlán 	7	Santa Rita 	5	Mayo	2023-05-28T00:00:00	2024-11-08T22:00:00	1	Precipitación	0
96416	7	Sololá	704	Santa Lucía Utatlán 	7	Santa Rita 	5	Mayo	2023-05-28T00:00:00	2024-11-08T22:00:00	8	Radiación solar	0
96417	7	Sololá	704	Santa Lucía Utatlán 	7	Santa Rita 	5	Mayo	2023-05-28T00:00:00	2024-11-08T23:00:00	2	Temperatura media	19.7
96418	7	Sololá	704	Santa Lucía Utatlán 	7	Santa Rita 	5	Mayo	2023-05-28T00:00:00	2024-11-08T23:00:00	4	Temperatura máxima	19.8
96419	7	Sololá	704	Santa Lucía Utatlán 	7	Santa Rita 	5	Mayo	2023-05-28T00:00:00	2024-11-08T23:00:00	3	Temperatura mínima	19.5
96420	7	Sololá	704	Santa Lucía Utatlán 	7	Santa Rita 	5	Mayo	2023-05-28T00:00:00	2024-11-08T23:00:00	5	Humedad	94
96421	7	Sololá	704	Santa Lucía Utatlán 	7	Santa Rita 	5	Mayo	2023-05-28T00:00:00	2024-11-08T23:00:00	6	Velocidad del viento	0
96422	7	Sololá	704	Santa Lucía Utatlán 	7	Santa Rita 	5	Mayo	2023-05-28T00:00:00	2024-11-08T23:00:00	7	Dirección del viento	0
96423	7	Sololá	704	Santa Lucía Utatlán 	7	Santa Rita 	5	Mayo	2023-05-28T00:00:00	2024-11-08T23:00:00	1	Precipitación	0
96424	7	Sololá	704	Santa Lucía Utatlán 	7	Santa Rita 	5	Mayo	2023-05-28T00:00:00	2024-11-08T23:00:00	8	Radiación solar	0
96425	7	Sololá	704	Santa Lucía Utatlán 	7	Santa Rita 	5	Mayo	2023-05-29T00:00:00	2024-11-08T00:00:00	2	Temperatura media	19.4
96426	7	Sololá	704	Santa Lucía Utatlán 	7	Santa Rita 	5	Mayo	2023-05-29T00:00:00	2024-11-08T00:00:00	4	Temperatura máxima	19.7
96427	7	Sololá	704	Santa Lucía Utatlán 	7	Santa Rita 	5	Mayo	2023-05-29T00:00:00	2024-11-08T00:00:00	3	Temperatura mínima	19.3
96428	7	Sololá	704	Santa Lucía Utatlán 	7	Santa Rita 	5	Mayo	2023-05-29T00:00:00	2024-11-08T00:00:00	5	Humedad	96
96429	7	Sololá	704	Santa Lucía Utatlán 	7	Santa Rita 	5	Mayo	2023-05-29T00:00:00	2024-11-08T00:00:00	6	Velocidad del viento	0
96430	7	Sololá	704	Santa Lucía Utatlán 	7	Santa Rita 	5	Mayo	2023-05-29T00:00:00	2024-11-08T00:00:00	7	Dirección del viento	0
96431	7	Sololá	704	Santa Lucía Utatlán 	7	Santa Rita 	5	Mayo	2023-05-29T00:00:00	2024-11-08T00:00:00	1	Precipitación	0
96432	7	Sololá	704	Santa Lucía Utatlán 	7	Santa Rita 	5	Mayo	2023-05-29T00:00:00	2024-11-08T00:00:00	8	Radiación solar	0
96433	7	Sololá	704	Santa Lucía Utatlán 	7	Santa Rita 	5	Mayo	2023-05-29T00:00:00	2024-11-08T01:00:00	2	Temperatura media	19.1
96434	7	Sololá	704	Santa Lucía Utatlán 	7	Santa Rita 	5	Mayo	2023-05-29T00:00:00	2024-11-08T01:00:00	4	Temperatura máxima	19.4
96435	7	Sololá	704	Santa Lucía Utatlán 	7	Santa Rita 	5	Mayo	2023-05-29T00:00:00	2024-11-08T01:00:00	3	Temperatura mínima	19.1
96436	7	Sololá	704	Santa Lucía Utatlán 	7	Santa Rita 	5	Mayo	2023-05-29T00:00:00	2024-11-08T01:00:00	5	Humedad	96
96437	7	Sololá	704	Santa Lucía Utatlán 	7	Santa Rita 	5	Mayo	2023-05-29T00:00:00	2024-11-08T01:00:00	6	Velocidad del viento	1.6
96438	7	Sololá	704	Santa Lucía Utatlán 	7	Santa Rita 	5	Mayo	2023-05-29T00:00:00	2024-11-08T01:00:00	7	Dirección del viento	1.61
96439	7	Sololá	704	Santa Lucía Utatlán 	7	Santa Rita 	5	Mayo	2023-05-29T00:00:00	2024-11-08T01:00:00	1	Precipitación	0
96440	7	Sololá	704	Santa Lucía Utatlán 	7	Santa Rita 	5	Mayo	2023-05-29T00:00:00	2024-11-08T01:00:00	8	Radiación solar	0
96441	7	Sololá	704	Santa Lucía Utatlán 	7	Santa Rita 	5	Mayo	2023-05-29T00:00:00	2024-11-08T02:00:00	2	Temperatura media	18.8
96442	7	Sololá	704	Santa Lucía Utatlán 	7	Santa Rita 	5	Mayo	2023-05-29T00:00:00	2024-11-08T02:00:00	4	Temperatura máxima	19.1
96443	7	Sololá	704	Santa Lucía Utatlán 	7	Santa Rita 	5	Mayo	2023-05-29T00:00:00	2024-11-08T02:00:00	3	Temperatura mínima	18.8
96444	7	Sololá	704	Santa Lucía Utatlán 	7	Santa Rita 	5	Mayo	2023-05-29T00:00:00	2024-11-08T02:00:00	5	Humedad	96
96445	7	Sololá	704	Santa Lucía Utatlán 	7	Santa Rita 	5	Mayo	2023-05-29T00:00:00	2024-11-08T02:00:00	6	Velocidad del viento	1.6
96446	7	Sololá	704	Santa Lucía Utatlán 	7	Santa Rita 	5	Mayo	2023-05-29T00:00:00	2024-11-08T02:00:00	7	Dirección del viento	1.61
96447	7	Sololá	704	Santa Lucía Utatlán 	7	Santa Rita 	5	Mayo	2023-05-29T00:00:00	2024-11-08T02:00:00	1	Precipitación	0
96448	7	Sololá	704	Santa Lucía Utatlán 	7	Santa Rita 	5	Mayo	2023-05-29T00:00:00	2024-11-08T02:00:00	8	Radiación solar	0
96449	7	Sololá	704	Santa Lucía Utatlán 	7	Santa Rita 	5	Mayo	2023-05-29T00:00:00	2024-11-08T03:00:00	2	Temperatura media	18.8
96450	7	Sololá	704	Santa Lucía Utatlán 	7	Santa Rita 	5	Mayo	2023-05-29T00:00:00	2024-11-08T03:00:00	4	Temperatura máxima	18.9
96451	7	Sololá	704	Santa Lucía Utatlán 	7	Santa Rita 	5	Mayo	2023-05-29T00:00:00	2024-11-08T03:00:00	3	Temperatura mínima	18.8
96452	7	Sololá	704	Santa Lucía Utatlán 	7	Santa Rita 	5	Mayo	2023-05-29T00:00:00	2024-11-08T03:00:00	5	Humedad	96
96453	7	Sololá	704	Santa Lucía Utatlán 	7	Santa Rita 	5	Mayo	2023-05-29T00:00:00	2024-11-08T03:00:00	6	Velocidad del viento	0
96454	7	Sololá	704	Santa Lucía Utatlán 	7	Santa Rita 	5	Mayo	2023-05-29T00:00:00	2024-11-08T03:00:00	7	Dirección del viento	0
96455	7	Sololá	704	Santa Lucía Utatlán 	7	Santa Rita 	5	Mayo	2023-05-29T00:00:00	2024-11-08T03:00:00	1	Precipitación	1
96456	7	Sololá	704	Santa Lucía Utatlán 	7	Santa Rita 	5	Mayo	2023-05-29T00:00:00	2024-11-08T03:00:00	8	Radiación solar	0
96457	7	Sololá	704	Santa Lucía Utatlán 	7	Santa Rita 	5	Mayo	2023-05-29T00:00:00	2024-11-08T04:00:00	2	Temperatura media	17.9
96458	7	Sololá	704	Santa Lucía Utatlán 	7	Santa Rita 	5	Mayo	2023-05-29T00:00:00	2024-11-08T04:00:00	4	Temperatura máxima	18.8
96459	7	Sololá	704	Santa Lucía Utatlán 	7	Santa Rita 	5	Mayo	2023-05-29T00:00:00	2024-11-08T04:00:00	3	Temperatura mínima	17.9
96460	7	Sololá	704	Santa Lucía Utatlán 	7	Santa Rita 	5	Mayo	2023-05-29T00:00:00	2024-11-08T04:00:00	5	Humedad	96
96461	7	Sololá	704	Santa Lucía Utatlán 	7	Santa Rita 	5	Mayo	2023-05-29T00:00:00	2024-11-08T04:00:00	6	Velocidad del viento	0
96462	7	Sololá	704	Santa Lucía Utatlán 	7	Santa Rita 	5	Mayo	2023-05-29T00:00:00	2024-11-08T04:00:00	7	Dirección del viento	0
96463	7	Sololá	704	Santa Lucía Utatlán 	7	Santa Rita 	5	Mayo	2023-05-29T00:00:00	2024-11-08T04:00:00	1	Precipitación	2
96464	7	Sololá	704	Santa Lucía Utatlán 	7	Santa Rita 	5	Mayo	2023-05-29T00:00:00	2024-11-08T04:00:00	8	Radiación solar	0
96465	7	Sololá	704	Santa Lucía Utatlán 	7	Santa Rita 	5	Mayo	2023-05-29T00:00:00	2024-11-08T05:00:00	2	Temperatura media	17.7
96466	7	Sololá	704	Santa Lucía Utatlán 	7	Santa Rita 	5	Mayo	2023-05-29T00:00:00	2024-11-08T05:00:00	4	Temperatura máxima	17.9
96467	7	Sololá	704	Santa Lucía Utatlán 	7	Santa Rita 	5	Mayo	2023-05-29T00:00:00	2024-11-08T05:00:00	3	Temperatura mínima	17.7
96468	7	Sololá	704	Santa Lucía Utatlán 	7	Santa Rita 	5	Mayo	2023-05-29T00:00:00	2024-11-08T05:00:00	5	Humedad	95
96469	7	Sololá	704	Santa Lucía Utatlán 	7	Santa Rita 	5	Mayo	2023-05-29T00:00:00	2024-11-08T05:00:00	6	Velocidad del viento	0
96470	7	Sololá	704	Santa Lucía Utatlán 	7	Santa Rita 	5	Mayo	2023-05-29T00:00:00	2024-11-08T05:00:00	7	Dirección del viento	0
96471	7	Sololá	704	Santa Lucía Utatlán 	7	Santa Rita 	5	Mayo	2023-05-29T00:00:00	2024-11-08T05:00:00	1	Precipitación	0
96472	7	Sololá	704	Santa Lucía Utatlán 	7	Santa Rita 	5	Mayo	2023-05-29T00:00:00	2024-11-08T05:00:00	8	Radiación solar	0
96473	7	Sololá	704	Santa Lucía Utatlán 	7	Santa Rita 	5	Mayo	2023-05-29T00:00:00	2024-11-08T06:00:00	2	Temperatura media	17.7
96474	7	Sololá	704	Santa Lucía Utatlán 	7	Santa Rita 	5	Mayo	2023-05-29T00:00:00	2024-11-08T06:00:00	4	Temperatura máxima	17.8
96475	7	Sololá	704	Santa Lucía Utatlán 	7	Santa Rita 	5	Mayo	2023-05-29T00:00:00	2024-11-08T06:00:00	3	Temperatura mínima	17.6
96476	7	Sololá	704	Santa Lucía Utatlán 	7	Santa Rita 	5	Mayo	2023-05-29T00:00:00	2024-11-08T06:00:00	5	Humedad	96
96477	7	Sololá	704	Santa Lucía Utatlán 	7	Santa Rita 	5	Mayo	2023-05-29T00:00:00	2024-11-08T06:00:00	6	Velocidad del viento	1.6
96478	7	Sololá	704	Santa Lucía Utatlán 	7	Santa Rita 	5	Mayo	2023-05-29T00:00:00	2024-11-08T06:00:00	7	Dirección del viento	1.61
96479	7	Sololá	704	Santa Lucía Utatlán 	7	Santa Rita 	5	Mayo	2023-05-29T00:00:00	2024-11-08T06:00:00	1	Precipitación	0
96480	7	Sololá	704	Santa Lucía Utatlán 	7	Santa Rita 	5	Mayo	2023-05-29T00:00:00	2024-11-08T06:00:00	8	Radiación solar	3
96481	7	Sololá	704	Santa Lucía Utatlán 	7	Santa Rita 	5	Mayo	2023-05-29T00:00:00	2024-11-08T07:00:00	2	Temperatura media	18.6
96482	7	Sololá	704	Santa Lucía Utatlán 	7	Santa Rita 	5	Mayo	2023-05-29T00:00:00	2024-11-08T07:00:00	4	Temperatura máxima	18.6
96483	7	Sololá	704	Santa Lucía Utatlán 	7	Santa Rita 	5	Mayo	2023-05-29T00:00:00	2024-11-08T07:00:00	3	Temperatura mínima	17.7
96484	7	Sololá	704	Santa Lucía Utatlán 	7	Santa Rita 	5	Mayo	2023-05-29T00:00:00	2024-11-08T07:00:00	5	Humedad	95
96485	7	Sololá	704	Santa Lucía Utatlán 	7	Santa Rita 	5	Mayo	2023-05-29T00:00:00	2024-11-08T07:00:00	6	Velocidad del viento	0
96486	7	Sololá	704	Santa Lucía Utatlán 	7	Santa Rita 	5	Mayo	2023-05-29T00:00:00	2024-11-08T07:00:00	7	Dirección del viento	0
96487	7	Sololá	704	Santa Lucía Utatlán 	7	Santa Rita 	5	Mayo	2023-05-29T00:00:00	2024-11-08T07:00:00	1	Precipitación	0
96488	7	Sololá	704	Santa Lucía Utatlán 	7	Santa Rita 	5	Mayo	2023-05-29T00:00:00	2024-11-08T07:00:00	8	Radiación solar	84
96489	7	Sololá	704	Santa Lucía Utatlán 	7	Santa Rita 	5	Mayo	2023-05-29T00:00:00	2024-11-08T08:00:00	2	Temperatura media	19.4
96490	7	Sololá	704	Santa Lucía Utatlán 	7	Santa Rita 	5	Mayo	2023-05-29T00:00:00	2024-11-08T08:00:00	4	Temperatura máxima	19.7
96491	7	Sololá	704	Santa Lucía Utatlán 	7	Santa Rita 	5	Mayo	2023-05-29T00:00:00	2024-11-08T08:00:00	3	Temperatura mínima	18.6
96492	7	Sololá	704	Santa Lucía Utatlán 	7	Santa Rita 	5	Mayo	2023-05-29T00:00:00	2024-11-08T08:00:00	5	Humedad	91
96493	7	Sololá	704	Santa Lucía Utatlán 	7	Santa Rita 	5	Mayo	2023-05-29T00:00:00	2024-11-08T08:00:00	6	Velocidad del viento	1.6
96494	7	Sololá	704	Santa Lucía Utatlán 	7	Santa Rita 	5	Mayo	2023-05-29T00:00:00	2024-11-08T08:00:00	7	Dirección del viento	1.61
96495	7	Sololá	704	Santa Lucía Utatlán 	7	Santa Rita 	5	Mayo	2023-05-29T00:00:00	2024-11-08T08:00:00	1	Precipitación	0
96496	7	Sololá	704	Santa Lucía Utatlán 	7	Santa Rita 	5	Mayo	2023-05-29T00:00:00	2024-11-08T08:00:00	8	Radiación solar	211
96497	7	Sololá	704	Santa Lucía Utatlán 	7	Santa Rita 	5	Mayo	2023-05-29T00:00:00	2024-11-08T09:00:00	2	Temperatura media	19.7
96498	7	Sololá	704	Santa Lucía Utatlán 	7	Santa Rita 	5	Mayo	2023-05-29T00:00:00	2024-11-08T09:00:00	4	Temperatura máxima	19.7
96499	7	Sololá	704	Santa Lucía Utatlán 	7	Santa Rita 	5	Mayo	2023-05-29T00:00:00	2024-11-08T09:00:00	3	Temperatura mínima	19.4
96500	7	Sololá	704	Santa Lucía Utatlán 	7	Santa Rita 	5	Mayo	2023-05-29T00:00:00	2024-11-08T09:00:00	5	Humedad	92
96501	7	Sololá	704	Santa Lucía Utatlán 	7	Santa Rita 	5	Mayo	2023-05-29T00:00:00	2024-11-08T09:00:00	6	Velocidad del viento	1.6
96502	7	Sololá	704	Santa Lucía Utatlán 	7	Santa Rita 	5	Mayo	2023-05-29T00:00:00	2024-11-08T09:00:00	7	Dirección del viento	1.61
96503	7	Sololá	704	Santa Lucía Utatlán 	7	Santa Rita 	5	Mayo	2023-05-29T00:00:00	2024-11-08T09:00:00	1	Precipitación	0
96504	7	Sololá	704	Santa Lucía Utatlán 	7	Santa Rita 	5	Mayo	2023-05-29T00:00:00	2024-11-08T09:00:00	8	Radiación solar	175
96505	7	Sololá	704	Santa Lucía Utatlán 	7	Santa Rita 	5	Mayo	2023-05-29T00:00:00	2024-11-08T10:00:00	2	Temperatura media	21.5
96506	7	Sololá	704	Santa Lucía Utatlán 	7	Santa Rita 	5	Mayo	2023-05-29T00:00:00	2024-11-08T10:00:00	4	Temperatura máxima	21.5
96507	7	Sololá	704	Santa Lucía Utatlán 	7	Santa Rita 	5	Mayo	2023-05-29T00:00:00	2024-11-08T10:00:00	3	Temperatura mínima	19.7
96508	7	Sololá	704	Santa Lucía Utatlán 	7	Santa Rita 	5	Mayo	2023-05-29T00:00:00	2024-11-08T10:00:00	5	Humedad	85
96509	7	Sololá	704	Santa Lucía Utatlán 	7	Santa Rita 	5	Mayo	2023-05-29T00:00:00	2024-11-08T10:00:00	6	Velocidad del viento	1.6
96510	7	Sololá	704	Santa Lucía Utatlán 	7	Santa Rita 	5	Mayo	2023-05-29T00:00:00	2024-11-08T10:00:00	7	Dirección del viento	1.61
96511	7	Sololá	704	Santa Lucía Utatlán 	7	Santa Rita 	5	Mayo	2023-05-29T00:00:00	2024-11-08T10:00:00	1	Precipitación	0
96512	7	Sololá	704	Santa Lucía Utatlán 	7	Santa Rita 	5	Mayo	2023-05-29T00:00:00	2024-11-08T10:00:00	8	Radiación solar	359
96513	7	Sololá	704	Santa Lucía Utatlán 	7	Santa Rita 	5	Mayo	2023-05-29T00:00:00	2024-11-08T11:00:00	2	Temperatura media	23.8
96514	7	Sololá	704	Santa Lucía Utatlán 	7	Santa Rita 	5	Mayo	2023-05-29T00:00:00	2024-11-08T11:00:00	4	Temperatura máxima	23.8
96515	7	Sololá	704	Santa Lucía Utatlán 	7	Santa Rita 	5	Mayo	2023-05-29T00:00:00	2024-11-08T11:00:00	3	Temperatura mínima	21.5
96516	7	Sololá	704	Santa Lucía Utatlán 	7	Santa Rita 	5	Mayo	2023-05-29T00:00:00	2024-11-08T11:00:00	5	Humedad	74
96517	7	Sololá	704	Santa Lucía Utatlán 	7	Santa Rita 	5	Mayo	2023-05-29T00:00:00	2024-11-08T11:00:00	6	Velocidad del viento	1.6
96518	7	Sololá	704	Santa Lucía Utatlán 	7	Santa Rita 	5	Mayo	2023-05-29T00:00:00	2024-11-08T11:00:00	7	Dirección del viento	1.61
96519	7	Sololá	704	Santa Lucía Utatlán 	7	Santa Rita 	5	Mayo	2023-05-29T00:00:00	2024-11-08T11:00:00	1	Precipitación	0
96520	7	Sololá	704	Santa Lucía Utatlán 	7	Santa Rita 	5	Mayo	2023-05-29T00:00:00	2024-11-08T11:00:00	8	Radiación solar	611
96521	7	Sololá	704	Santa Lucía Utatlán 	7	Santa Rita 	5	Mayo	2023-05-29T00:00:00	2024-11-08T12:00:00	2	Temperatura media	24
96522	7	Sololá	704	Santa Lucía Utatlán 	7	Santa Rita 	5	Mayo	2023-05-29T00:00:00	2024-11-08T12:00:00	4	Temperatura máxima	24.1
96523	7	Sololá	704	Santa Lucía Utatlán 	7	Santa Rita 	5	Mayo	2023-05-29T00:00:00	2024-11-08T12:00:00	3	Temperatura mínima	23.6
96524	7	Sololá	704	Santa Lucía Utatlán 	7	Santa Rita 	5	Mayo	2023-05-29T00:00:00	2024-11-08T12:00:00	5	Humedad	74
96525	7	Sololá	704	Santa Lucía Utatlán 	7	Santa Rita 	5	Mayo	2023-05-29T00:00:00	2024-11-08T12:00:00	6	Velocidad del viento	3.2
96526	7	Sololá	704	Santa Lucía Utatlán 	7	Santa Rita 	5	Mayo	2023-05-29T00:00:00	2024-11-08T12:00:00	7	Dirección del viento	3.22
96527	7	Sololá	704	Santa Lucía Utatlán 	7	Santa Rita 	5	Mayo	2023-05-29T00:00:00	2024-11-08T12:00:00	1	Precipitación	0
96528	7	Sololá	704	Santa Lucía Utatlán 	7	Santa Rita 	5	Mayo	2023-05-29T00:00:00	2024-11-08T12:00:00	8	Radiación solar	416
96529	7	Sololá	704	Santa Lucía Utatlán 	7	Santa Rita 	5	Mayo	2023-05-29T00:00:00	2024-11-08T13:00:00	2	Temperatura media	24.6
96530	7	Sololá	704	Santa Lucía Utatlán 	7	Santa Rita 	5	Mayo	2023-05-29T00:00:00	2024-11-08T13:00:00	4	Temperatura máxima	24.8
96531	7	Sololá	704	Santa Lucía Utatlán 	7	Santa Rita 	5	Mayo	2023-05-29T00:00:00	2024-11-08T13:00:00	3	Temperatura mínima	24
96532	7	Sololá	704	Santa Lucía Utatlán 	7	Santa Rita 	5	Mayo	2023-05-29T00:00:00	2024-11-08T13:00:00	5	Humedad	70
96533	7	Sololá	704	Santa Lucía Utatlán 	7	Santa Rita 	5	Mayo	2023-05-29T00:00:00	2024-11-08T13:00:00	6	Velocidad del viento	3.2
96534	7	Sololá	704	Santa Lucía Utatlán 	7	Santa Rita 	5	Mayo	2023-05-29T00:00:00	2024-11-08T13:00:00	7	Dirección del viento	3.22
96535	7	Sololá	704	Santa Lucía Utatlán 	7	Santa Rita 	5	Mayo	2023-05-29T00:00:00	2024-11-08T13:00:00	1	Precipitación	0
96536	7	Sololá	704	Santa Lucía Utatlán 	7	Santa Rita 	5	Mayo	2023-05-29T00:00:00	2024-11-08T13:00:00	8	Radiación solar	462
96537	7	Sololá	704	Santa Lucía Utatlán 	7	Santa Rita 	5	Mayo	2023-05-29T00:00:00	2024-11-08T14:00:00	2	Temperatura media	23.1
96538	7	Sololá	704	Santa Lucía Utatlán 	7	Santa Rita 	5	Mayo	2023-05-29T00:00:00	2024-11-08T14:00:00	4	Temperatura máxima	24.7
96539	7	Sololá	704	Santa Lucía Utatlán 	7	Santa Rita 	5	Mayo	2023-05-29T00:00:00	2024-11-08T14:00:00	3	Temperatura mínima	23.1
96540	7	Sololá	704	Santa Lucía Utatlán 	7	Santa Rita 	5	Mayo	2023-05-29T00:00:00	2024-11-08T14:00:00	5	Humedad	86
96541	7	Sololá	704	Santa Lucía Utatlán 	7	Santa Rita 	5	Mayo	2023-05-29T00:00:00	2024-11-08T14:00:00	6	Velocidad del viento	3.2
96542	7	Sololá	704	Santa Lucía Utatlán 	7	Santa Rita 	5	Mayo	2023-05-29T00:00:00	2024-11-08T14:00:00	7	Dirección del viento	3.22
96543	7	Sololá	704	Santa Lucía Utatlán 	7	Santa Rita 	5	Mayo	2023-05-29T00:00:00	2024-11-08T14:00:00	1	Precipitación	2
96544	7	Sololá	704	Santa Lucía Utatlán 	7	Santa Rita 	5	Mayo	2023-05-29T00:00:00	2024-11-08T14:00:00	8	Radiación solar	208
96545	7	Sololá	704	Santa Lucía Utatlán 	7	Santa Rita 	5	Mayo	2023-05-29T00:00:00	2024-11-08T15:00:00	2	Temperatura media	22.6
96546	7	Sololá	704	Santa Lucía Utatlán 	7	Santa Rita 	5	Mayo	2023-05-29T00:00:00	2024-11-08T15:00:00	4	Temperatura máxima	23.1
96547	7	Sololá	704	Santa Lucía Utatlán 	7	Santa Rita 	5	Mayo	2023-05-29T00:00:00	2024-11-08T15:00:00	3	Temperatura mínima	22.6
96548	7	Sololá	704	Santa Lucía Utatlán 	7	Santa Rita 	5	Mayo	2023-05-29T00:00:00	2024-11-08T15:00:00	5	Humedad	88
96549	7	Sololá	704	Santa Lucía Utatlán 	7	Santa Rita 	5	Mayo	2023-05-29T00:00:00	2024-11-08T15:00:00	6	Velocidad del viento	1.6
96550	7	Sololá	704	Santa Lucía Utatlán 	7	Santa Rita 	5	Mayo	2023-05-29T00:00:00	2024-11-08T15:00:00	7	Dirección del viento	1.61
96551	7	Sololá	704	Santa Lucía Utatlán 	7	Santa Rita 	5	Mayo	2023-05-29T00:00:00	2024-11-08T15:00:00	1	Precipitación	1.4
96552	7	Sololá	704	Santa Lucía Utatlán 	7	Santa Rita 	5	Mayo	2023-05-29T00:00:00	2024-11-08T15:00:00	8	Radiación solar	239
96553	7	Sololá	704	Santa Lucía Utatlán 	7	Santa Rita 	5	Mayo	2023-05-29T00:00:00	2024-11-08T16:00:00	2	Temperatura media	21.4
96554	7	Sololá	704	Santa Lucía Utatlán 	7	Santa Rita 	5	Mayo	2023-05-29T00:00:00	2024-11-08T16:00:00	4	Temperatura máxima	22.7
96555	7	Sololá	704	Santa Lucía Utatlán 	7	Santa Rita 	5	Mayo	2023-05-29T00:00:00	2024-11-08T16:00:00	3	Temperatura mínima	21.4
96556	7	Sololá	704	Santa Lucía Utatlán 	7	Santa Rita 	5	Mayo	2023-05-29T00:00:00	2024-11-08T16:00:00	5	Humedad	91
96557	7	Sololá	704	Santa Lucía Utatlán 	7	Santa Rita 	5	Mayo	2023-05-29T00:00:00	2024-11-08T16:00:00	6	Velocidad del viento	3.2
96558	7	Sololá	704	Santa Lucía Utatlán 	7	Santa Rita 	5	Mayo	2023-05-29T00:00:00	2024-11-08T16:00:00	7	Dirección del viento	3.22
96559	7	Sololá	704	Santa Lucía Utatlán 	7	Santa Rita 	5	Mayo	2023-05-29T00:00:00	2024-11-08T16:00:00	1	Precipitación	0.6
96560	7	Sololá	704	Santa Lucía Utatlán 	7	Santa Rita 	5	Mayo	2023-05-29T00:00:00	2024-11-08T16:00:00	8	Radiación solar	94
96561	7	Sololá	704	Santa Lucía Utatlán 	7	Santa Rita 	5	Mayo	2023-05-29T00:00:00	2024-11-08T17:00:00	2	Temperatura media	19.2
96562	7	Sololá	704	Santa Lucía Utatlán 	7	Santa Rita 	5	Mayo	2023-05-29T00:00:00	2024-11-08T17:00:00	4	Temperatura máxima	21.5
96563	7	Sololá	704	Santa Lucía Utatlán 	7	Santa Rita 	5	Mayo	2023-05-29T00:00:00	2024-11-08T17:00:00	3	Temperatura mínima	19
96564	7	Sololá	704	Santa Lucía Utatlán 	7	Santa Rita 	5	Mayo	2023-05-29T00:00:00	2024-11-08T17:00:00	5	Humedad	92
96565	7	Sololá	704	Santa Lucía Utatlán 	7	Santa Rita 	5	Mayo	2023-05-29T00:00:00	2024-11-08T17:00:00	6	Velocidad del viento	4.8
96566	7	Sololá	704	Santa Lucía Utatlán 	7	Santa Rita 	5	Mayo	2023-05-29T00:00:00	2024-11-08T17:00:00	7	Dirección del viento	4.83
96567	7	Sololá	704	Santa Lucía Utatlán 	7	Santa Rita 	5	Mayo	2023-05-29T00:00:00	2024-11-08T17:00:00	1	Precipitación	12.8
96568	7	Sololá	704	Santa Lucía Utatlán 	7	Santa Rita 	5	Mayo	2023-05-29T00:00:00	2024-11-08T17:00:00	8	Radiación solar	85
96569	7	Sololá	704	Santa Lucía Utatlán 	7	Santa Rita 	5	Mayo	2023-05-29T00:00:00	2024-11-08T18:00:00	2	Temperatura media	19.3
96570	7	Sololá	704	Santa Lucía Utatlán 	7	Santa Rita 	5	Mayo	2023-05-29T00:00:00	2024-11-08T18:00:00	4	Temperatura máxima	19.6
96571	7	Sololá	704	Santa Lucía Utatlán 	7	Santa Rita 	5	Mayo	2023-05-29T00:00:00	2024-11-08T18:00:00	3	Temperatura mínima	19.2
96572	7	Sololá	704	Santa Lucía Utatlán 	7	Santa Rita 	5	Mayo	2023-05-29T00:00:00	2024-11-08T18:00:00	5	Humedad	93
96573	7	Sololá	704	Santa Lucía Utatlán 	7	Santa Rita 	5	Mayo	2023-05-29T00:00:00	2024-11-08T18:00:00	6	Velocidad del viento	0
96574	7	Sololá	704	Santa Lucía Utatlán 	7	Santa Rita 	5	Mayo	2023-05-29T00:00:00	2024-11-08T18:00:00	7	Dirección del viento	0
96575	7	Sololá	704	Santa Lucía Utatlán 	7	Santa Rita 	5	Mayo	2023-05-29T00:00:00	2024-11-08T18:00:00	1	Precipitación	0
96576	7	Sololá	704	Santa Lucía Utatlán 	7	Santa Rita 	5	Mayo	2023-05-29T00:00:00	2024-11-08T18:00:00	8	Radiación solar	112
96577	7	Sololá	704	Santa Lucía Utatlán 	7	Santa Rita 	5	Mayo	2023-05-29T00:00:00	2024-11-08T19:00:00	2	Temperatura media	18.3
96578	7	Sololá	704	Santa Lucía Utatlán 	7	Santa Rita 	5	Mayo	2023-05-29T00:00:00	2024-11-08T19:00:00	4	Temperatura máxima	19.3
96579	7	Sololá	704	Santa Lucía Utatlán 	7	Santa Rita 	5	Mayo	2023-05-29T00:00:00	2024-11-08T19:00:00	3	Temperatura mínima	18.3
96580	7	Sololá	704	Santa Lucía Utatlán 	7	Santa Rita 	5	Mayo	2023-05-29T00:00:00	2024-11-08T19:00:00	5	Humedad	92
96581	7	Sololá	704	Santa Lucía Utatlán 	7	Santa Rita 	5	Mayo	2023-05-29T00:00:00	2024-11-08T19:00:00	6	Velocidad del viento	1.6
96582	7	Sololá	704	Santa Lucía Utatlán 	7	Santa Rita 	5	Mayo	2023-05-29T00:00:00	2024-11-08T19:00:00	7	Dirección del viento	1.61
96583	7	Sololá	704	Santa Lucía Utatlán 	7	Santa Rita 	5	Mayo	2023-05-29T00:00:00	2024-11-08T19:00:00	1	Precipitación	0
96584	7	Sololá	704	Santa Lucía Utatlán 	7	Santa Rita 	5	Mayo	2023-05-29T00:00:00	2024-11-08T19:00:00	8	Radiación solar	0
96585	7	Sololá	704	Santa Lucía Utatlán 	7	Santa Rita 	5	Mayo	2023-05-29T00:00:00	2024-11-08T20:00:00	2	Temperatura media	20.2
96586	7	Sololá	704	Santa Lucía Utatlán 	7	Santa Rita 	5	Mayo	2023-05-29T00:00:00	2024-11-08T20:00:00	4	Temperatura máxima	20.4
96587	7	Sololá	704	Santa Lucía Utatlán 	7	Santa Rita 	5	Mayo	2023-05-29T00:00:00	2024-11-08T20:00:00	3	Temperatura mínima	18.2
96588	7	Sololá	704	Santa Lucía Utatlán 	7	Santa Rita 	5	Mayo	2023-05-29T00:00:00	2024-11-08T20:00:00	5	Humedad	84
96589	7	Sololá	704	Santa Lucía Utatlán 	7	Santa Rita 	5	Mayo	2023-05-29T00:00:00	2024-11-08T20:00:00	6	Velocidad del viento	3.2
96590	7	Sololá	704	Santa Lucía Utatlán 	7	Santa Rita 	5	Mayo	2023-05-29T00:00:00	2024-11-08T20:00:00	7	Dirección del viento	3.22
96591	7	Sololá	704	Santa Lucía Utatlán 	7	Santa Rita 	5	Mayo	2023-05-29T00:00:00	2024-11-08T20:00:00	1	Precipitación	0
96592	7	Sololá	704	Santa Lucía Utatlán 	7	Santa Rita 	5	Mayo	2023-05-29T00:00:00	2024-11-08T20:00:00	8	Radiación solar	0
96593	7	Sololá	704	Santa Lucía Utatlán 	7	Santa Rita 	5	Mayo	2023-05-29T00:00:00	2024-11-08T21:00:00	2	Temperatura media	17.7
96594	7	Sololá	704	Santa Lucía Utatlán 	7	Santa Rita 	5	Mayo	2023-05-29T00:00:00	2024-11-08T21:00:00	4	Temperatura máxima	20.2
96595	7	Sololá	704	Santa Lucía Utatlán 	7	Santa Rita 	5	Mayo	2023-05-29T00:00:00	2024-11-08T21:00:00	3	Temperatura mínima	17.7
96596	7	Sololá	704	Santa Lucía Utatlán 	7	Santa Rita 	5	Mayo	2023-05-29T00:00:00	2024-11-08T21:00:00	5	Humedad	91
96597	7	Sololá	704	Santa Lucía Utatlán 	7	Santa Rita 	5	Mayo	2023-05-29T00:00:00	2024-11-08T21:00:00	6	Velocidad del viento	3.2
96598	7	Sololá	704	Santa Lucía Utatlán 	7	Santa Rita 	5	Mayo	2023-05-29T00:00:00	2024-11-08T21:00:00	7	Dirección del viento	3.22
96599	7	Sololá	704	Santa Lucía Utatlán 	7	Santa Rita 	5	Mayo	2023-05-29T00:00:00	2024-11-08T21:00:00	1	Precipitación	0
96600	7	Sololá	704	Santa Lucía Utatlán 	7	Santa Rita 	5	Mayo	2023-05-29T00:00:00	2024-11-08T21:00:00	8	Radiación solar	0
96601	7	Sololá	704	Santa Lucía Utatlán 	7	Santa Rita 	5	Mayo	2023-05-29T00:00:00	2024-11-08T22:00:00	2	Temperatura media	17.2
96602	7	Sololá	704	Santa Lucía Utatlán 	7	Santa Rita 	5	Mayo	2023-05-29T00:00:00	2024-11-08T22:00:00	4	Temperatura máxima	17.7
96603	7	Sololá	704	Santa Lucía Utatlán 	7	Santa Rita 	5	Mayo	2023-05-29T00:00:00	2024-11-08T22:00:00	3	Temperatura mínima	17.1
96604	7	Sololá	704	Santa Lucía Utatlán 	7	Santa Rita 	5	Mayo	2023-05-29T00:00:00	2024-11-08T22:00:00	5	Humedad	92
96605	7	Sololá	704	Santa Lucía Utatlán 	7	Santa Rita 	5	Mayo	2023-05-29T00:00:00	2024-11-08T22:00:00	6	Velocidad del viento	1.6
96606	7	Sololá	704	Santa Lucía Utatlán 	7	Santa Rita 	5	Mayo	2023-05-29T00:00:00	2024-11-08T22:00:00	7	Dirección del viento	1.61
96607	7	Sololá	704	Santa Lucía Utatlán 	7	Santa Rita 	5	Mayo	2023-05-29T00:00:00	2024-11-08T22:00:00	1	Precipitación	0
96608	7	Sololá	704	Santa Lucía Utatlán 	7	Santa Rita 	5	Mayo	2023-05-29T00:00:00	2024-11-08T22:00:00	8	Radiación solar	0
96609	7	Sololá	704	Santa Lucía Utatlán 	7	Santa Rita 	5	Mayo	2023-05-29T00:00:00	2024-11-08T23:00:00	2	Temperatura media	17.1
96610	7	Sololá	704	Santa Lucía Utatlán 	7	Santa Rita 	5	Mayo	2023-05-29T00:00:00	2024-11-08T23:00:00	4	Temperatura máxima	17.2
96611	7	Sololá	704	Santa Lucía Utatlán 	7	Santa Rita 	5	Mayo	2023-05-29T00:00:00	2024-11-08T23:00:00	3	Temperatura mínima	17
96612	7	Sololá	704	Santa Lucía Utatlán 	7	Santa Rita 	5	Mayo	2023-05-29T00:00:00	2024-11-08T23:00:00	5	Humedad	91
96613	7	Sololá	704	Santa Lucía Utatlán 	7	Santa Rita 	5	Mayo	2023-05-29T00:00:00	2024-11-08T23:00:00	6	Velocidad del viento	3.2
96614	7	Sololá	704	Santa Lucía Utatlán 	7	Santa Rita 	5	Mayo	2023-05-29T00:00:00	2024-11-08T23:00:00	7	Dirección del viento	3.22
96615	7	Sololá	704	Santa Lucía Utatlán 	7	Santa Rita 	5	Mayo	2023-05-29T00:00:00	2024-11-08T23:00:00	1	Precipitación	0
96616	7	Sololá	704	Santa Lucía Utatlán 	7	Santa Rita 	5	Mayo	2023-05-29T00:00:00	2024-11-08T23:00:00	8	Radiación solar	0
96617	7	Sololá	704	Santa Lucía Utatlán 	7	Santa Rita 	5	Mayo	2023-05-30T00:00:00	2024-11-08T00:00:00	2	Temperatura media	17.4
96618	7	Sololá	704	Santa Lucía Utatlán 	7	Santa Rita 	5	Mayo	2023-05-30T00:00:00	2024-11-08T00:00:00	4	Temperatura máxima	17.5
96619	7	Sololá	704	Santa Lucía Utatlán 	7	Santa Rita 	5	Mayo	2023-05-30T00:00:00	2024-11-08T00:00:00	3	Temperatura mínima	16.9
96620	7	Sololá	704	Santa Lucía Utatlán 	7	Santa Rita 	5	Mayo	2023-05-30T00:00:00	2024-11-08T00:00:00	5	Humedad	92
96621	7	Sololá	704	Santa Lucía Utatlán 	7	Santa Rita 	5	Mayo	2023-05-30T00:00:00	2024-11-08T00:00:00	6	Velocidad del viento	1.6
96622	7	Sololá	704	Santa Lucía Utatlán 	7	Santa Rita 	5	Mayo	2023-05-30T00:00:00	2024-11-08T00:00:00	7	Dirección del viento	1.61
96623	7	Sololá	704	Santa Lucía Utatlán 	7	Santa Rita 	5	Mayo	2023-05-30T00:00:00	2024-11-08T00:00:00	1	Precipitación	0
96624	7	Sololá	704	Santa Lucía Utatlán 	7	Santa Rita 	5	Mayo	2023-05-30T00:00:00	2024-11-08T00:00:00	8	Radiación solar	0
96625	7	Sololá	704	Santa Lucía Utatlán 	7	Santa Rita 	5	Mayo	2023-05-30T00:00:00	2024-11-08T01:00:00	2	Temperatura media	17.5
96626	7	Sololá	704	Santa Lucía Utatlán 	7	Santa Rita 	5	Mayo	2023-05-30T00:00:00	2024-11-08T01:00:00	4	Temperatura máxima	17.7
96627	7	Sololá	704	Santa Lucía Utatlán 	7	Santa Rita 	5	Mayo	2023-05-30T00:00:00	2024-11-08T01:00:00	3	Temperatura mínima	17.2
96628	7	Sololá	704	Santa Lucía Utatlán 	7	Santa Rita 	5	Mayo	2023-05-30T00:00:00	2024-11-08T01:00:00	5	Humedad	93
96629	7	Sololá	704	Santa Lucía Utatlán 	7	Santa Rita 	5	Mayo	2023-05-30T00:00:00	2024-11-08T01:00:00	6	Velocidad del viento	0
96630	7	Sololá	704	Santa Lucía Utatlán 	7	Santa Rita 	5	Mayo	2023-05-30T00:00:00	2024-11-08T01:00:00	7	Dirección del viento	0
96631	7	Sololá	704	Santa Lucía Utatlán 	7	Santa Rita 	5	Mayo	2023-05-30T00:00:00	2024-11-08T01:00:00	1	Precipitación	0
96632	7	Sololá	704	Santa Lucía Utatlán 	7	Santa Rita 	5	Mayo	2023-05-30T00:00:00	2024-11-08T01:00:00	8	Radiación solar	0
96633	7	Sololá	704	Santa Lucía Utatlán 	7	Santa Rita 	5	Mayo	2023-05-30T00:00:00	2024-11-08T02:00:00	2	Temperatura media	17.7
96634	7	Sololá	704	Santa Lucía Utatlán 	7	Santa Rita 	5	Mayo	2023-05-30T00:00:00	2024-11-08T02:00:00	4	Temperatura máxima	17.7
96635	7	Sololá	704	Santa Lucía Utatlán 	7	Santa Rita 	5	Mayo	2023-05-30T00:00:00	2024-11-08T02:00:00	3	Temperatura mínima	17.5
96636	7	Sololá	704	Santa Lucía Utatlán 	7	Santa Rita 	5	Mayo	2023-05-30T00:00:00	2024-11-08T02:00:00	5	Humedad	92
96637	7	Sololá	704	Santa Lucía Utatlán 	7	Santa Rita 	5	Mayo	2023-05-30T00:00:00	2024-11-08T02:00:00	6	Velocidad del viento	1.6
96638	7	Sololá	704	Santa Lucía Utatlán 	7	Santa Rita 	5	Mayo	2023-05-30T00:00:00	2024-11-08T02:00:00	7	Dirección del viento	1.61
96639	7	Sololá	704	Santa Lucía Utatlán 	7	Santa Rita 	5	Mayo	2023-05-30T00:00:00	2024-11-08T02:00:00	1	Precipitación	0
96640	7	Sololá	704	Santa Lucía Utatlán 	7	Santa Rita 	5	Mayo	2023-05-30T00:00:00	2024-11-08T02:00:00	8	Radiación solar	0
96641	7	Sololá	704	Santa Lucía Utatlán 	7	Santa Rita 	5	Mayo	2023-05-30T00:00:00	2024-11-08T03:00:00	2	Temperatura media	17.7
96642	7	Sololá	704	Santa Lucía Utatlán 	7	Santa Rita 	5	Mayo	2023-05-30T00:00:00	2024-11-08T03:00:00	4	Temperatura máxima	18.1
96643	7	Sololá	704	Santa Lucía Utatlán 	7	Santa Rita 	5	Mayo	2023-05-30T00:00:00	2024-11-08T03:00:00	3	Temperatura mínima	17.7
96644	7	Sololá	704	Santa Lucía Utatlán 	7	Santa Rita 	5	Mayo	2023-05-30T00:00:00	2024-11-08T03:00:00	5	Humedad	90
96645	7	Sololá	704	Santa Lucía Utatlán 	7	Santa Rita 	5	Mayo	2023-05-30T00:00:00	2024-11-08T03:00:00	6	Velocidad del viento	3.2
96646	7	Sololá	704	Santa Lucía Utatlán 	7	Santa Rita 	5	Mayo	2023-05-30T00:00:00	2024-11-08T03:00:00	7	Dirección del viento	3.22
96647	7	Sololá	704	Santa Lucía Utatlán 	7	Santa Rita 	5	Mayo	2023-05-30T00:00:00	2024-11-08T03:00:00	1	Precipitación	0
96648	7	Sololá	704	Santa Lucía Utatlán 	7	Santa Rita 	5	Mayo	2023-05-30T00:00:00	2024-11-08T03:00:00	8	Radiación solar	0
96649	7	Sololá	704	Santa Lucía Utatlán 	7	Santa Rita 	5	Mayo	2023-05-30T00:00:00	2024-11-08T04:00:00	2	Temperatura media	16.8
96650	7	Sololá	704	Santa Lucía Utatlán 	7	Santa Rita 	5	Mayo	2023-05-30T00:00:00	2024-11-08T04:00:00	4	Temperatura máxima	17.7
96651	7	Sololá	704	Santa Lucía Utatlán 	7	Santa Rita 	5	Mayo	2023-05-30T00:00:00	2024-11-08T04:00:00	3	Temperatura mínima	16.8
96652	7	Sololá	704	Santa Lucía Utatlán 	7	Santa Rita 	5	Mayo	2023-05-30T00:00:00	2024-11-08T04:00:00	5	Humedad	92
96653	7	Sololá	704	Santa Lucía Utatlán 	7	Santa Rita 	5	Mayo	2023-05-30T00:00:00	2024-11-08T04:00:00	6	Velocidad del viento	1.6
96654	7	Sololá	704	Santa Lucía Utatlán 	7	Santa Rita 	5	Mayo	2023-05-30T00:00:00	2024-11-08T04:00:00	7	Dirección del viento	1.61
96655	7	Sololá	704	Santa Lucía Utatlán 	7	Santa Rita 	5	Mayo	2023-05-30T00:00:00	2024-11-08T04:00:00	1	Precipitación	0
96656	7	Sololá	704	Santa Lucía Utatlán 	7	Santa Rita 	5	Mayo	2023-05-30T00:00:00	2024-11-08T04:00:00	8	Radiación solar	0
96657	7	Sololá	704	Santa Lucía Utatlán 	7	Santa Rita 	5	Mayo	2023-05-30T00:00:00	2024-11-08T05:00:00	2	Temperatura media	17.4
96658	7	Sololá	704	Santa Lucía Utatlán 	7	Santa Rita 	5	Mayo	2023-05-30T00:00:00	2024-11-08T05:00:00	4	Temperatura máxima	17.6
96659	7	Sololá	704	Santa Lucía Utatlán 	7	Santa Rita 	5	Mayo	2023-05-30T00:00:00	2024-11-08T05:00:00	3	Temperatura mínima	16.7
96660	7	Sololá	704	Santa Lucía Utatlán 	7	Santa Rita 	5	Mayo	2023-05-30T00:00:00	2024-11-08T05:00:00	5	Humedad	91
96661	7	Sololá	704	Santa Lucía Utatlán 	7	Santa Rita 	5	Mayo	2023-05-30T00:00:00	2024-11-08T05:00:00	6	Velocidad del viento	3.2
96662	7	Sololá	704	Santa Lucía Utatlán 	7	Santa Rita 	5	Mayo	2023-05-30T00:00:00	2024-11-08T05:00:00	7	Dirección del viento	3.22
96663	7	Sololá	704	Santa Lucía Utatlán 	7	Santa Rita 	5	Mayo	2023-05-30T00:00:00	2024-11-08T05:00:00	1	Precipitación	0
96664	7	Sololá	704	Santa Lucía Utatlán 	7	Santa Rita 	5	Mayo	2023-05-30T00:00:00	2024-11-08T05:00:00	8	Radiación solar	0
96665	7	Sololá	704	Santa Lucía Utatlán 	7	Santa Rita 	5	Mayo	2023-05-30T00:00:00	2024-11-08T06:00:00	2	Temperatura media	16.9
96666	7	Sololá	704	Santa Lucía Utatlán 	7	Santa Rita 	5	Mayo	2023-05-30T00:00:00	2024-11-08T06:00:00	4	Temperatura máxima	17.4
96667	7	Sololá	704	Santa Lucía Utatlán 	7	Santa Rita 	5	Mayo	2023-05-30T00:00:00	2024-11-08T06:00:00	3	Temperatura mínima	16.9
96668	7	Sololá	704	Santa Lucía Utatlán 	7	Santa Rita 	5	Mayo	2023-05-30T00:00:00	2024-11-08T06:00:00	5	Humedad	91
96669	7	Sololá	704	Santa Lucía Utatlán 	7	Santa Rita 	5	Mayo	2023-05-30T00:00:00	2024-11-08T06:00:00	6	Velocidad del viento	3.2
96670	7	Sololá	704	Santa Lucía Utatlán 	7	Santa Rita 	5	Mayo	2023-05-30T00:00:00	2024-11-08T06:00:00	7	Dirección del viento	3.22
96671	7	Sololá	704	Santa Lucía Utatlán 	7	Santa Rita 	5	Mayo	2023-05-30T00:00:00	2024-11-08T06:00:00	1	Precipitación	0
96672	7	Sololá	704	Santa Lucía Utatlán 	7	Santa Rita 	5	Mayo	2023-05-30T00:00:00	2024-11-08T06:00:00	8	Radiación solar	6
96673	7	Sololá	704	Santa Lucía Utatlán 	7	Santa Rita 	5	Mayo	2023-05-30T00:00:00	2024-11-08T07:00:00	2	Temperatura media	19.2
96674	7	Sololá	704	Santa Lucía Utatlán 	7	Santa Rita 	5	Mayo	2023-05-30T00:00:00	2024-11-08T07:00:00	4	Temperatura máxima	19.2
96675	7	Sololá	704	Santa Lucía Utatlán 	7	Santa Rita 	5	Mayo	2023-05-30T00:00:00	2024-11-08T07:00:00	3	Temperatura mínima	16.9
96676	7	Sololá	704	Santa Lucía Utatlán 	7	Santa Rita 	5	Mayo	2023-05-30T00:00:00	2024-11-08T07:00:00	5	Humedad	86
96677	7	Sololá	704	Santa Lucía Utatlán 	7	Santa Rita 	5	Mayo	2023-05-30T00:00:00	2024-11-08T07:00:00	6	Velocidad del viento	1.6
96678	7	Sololá	704	Santa Lucía Utatlán 	7	Santa Rita 	5	Mayo	2023-05-30T00:00:00	2024-11-08T07:00:00	7	Dirección del viento	1.61
96679	7	Sololá	704	Santa Lucía Utatlán 	7	Santa Rita 	5	Mayo	2023-05-30T00:00:00	2024-11-08T07:00:00	1	Precipitación	0
96680	7	Sololá	704	Santa Lucía Utatlán 	7	Santa Rita 	5	Mayo	2023-05-30T00:00:00	2024-11-08T07:00:00	8	Radiación solar	104
96681	7	Sololá	704	Santa Lucía Utatlán 	7	Santa Rita 	5	Mayo	2023-05-30T00:00:00	2024-11-08T08:00:00	2	Temperatura media	21.4
96682	7	Sololá	704	Santa Lucía Utatlán 	7	Santa Rita 	5	Mayo	2023-05-30T00:00:00	2024-11-08T08:00:00	4	Temperatura máxima	21.4
96683	7	Sololá	704	Santa Lucía Utatlán 	7	Santa Rita 	5	Mayo	2023-05-30T00:00:00	2024-11-08T08:00:00	3	Temperatura mínima	19.2
96684	7	Sololá	704	Santa Lucía Utatlán 	7	Santa Rita 	5	Mayo	2023-05-30T00:00:00	2024-11-08T08:00:00	5	Humedad	79
96685	7	Sololá	704	Santa Lucía Utatlán 	7	Santa Rita 	5	Mayo	2023-05-30T00:00:00	2024-11-08T08:00:00	6	Velocidad del viento	1.6
96686	7	Sololá	704	Santa Lucía Utatlán 	7	Santa Rita 	5	Mayo	2023-05-30T00:00:00	2024-11-08T08:00:00	7	Dirección del viento	1.61
96687	7	Sololá	704	Santa Lucía Utatlán 	7	Santa Rita 	5	Mayo	2023-05-30T00:00:00	2024-11-08T08:00:00	1	Precipitación	0
96688	7	Sololá	704	Santa Lucía Utatlán 	7	Santa Rita 	5	Mayo	2023-05-30T00:00:00	2024-11-08T08:00:00	8	Radiación solar	386
96689	7	Sololá	704	Santa Lucía Utatlán 	7	Santa Rita 	5	Mayo	2023-05-30T00:00:00	2024-11-08T09:00:00	2	Temperatura media	22.6
96690	7	Sololá	704	Santa Lucía Utatlán 	7	Santa Rita 	5	Mayo	2023-05-30T00:00:00	2024-11-08T09:00:00	4	Temperatura máxima	22.9
96691	7	Sololá	704	Santa Lucía Utatlán 	7	Santa Rita 	5	Mayo	2023-05-30T00:00:00	2024-11-08T09:00:00	3	Temperatura mínima	21.3
96692	7	Sololá	704	Santa Lucía Utatlán 	7	Santa Rita 	5	Mayo	2023-05-30T00:00:00	2024-11-08T09:00:00	5	Humedad	73
96693	7	Sololá	704	Santa Lucía Utatlán 	7	Santa Rita 	5	Mayo	2023-05-30T00:00:00	2024-11-08T09:00:00	6	Velocidad del viento	4.8
96694	7	Sololá	704	Santa Lucía Utatlán 	7	Santa Rita 	5	Mayo	2023-05-30T00:00:00	2024-11-08T09:00:00	7	Dirección del viento	4.83
96695	7	Sololá	704	Santa Lucía Utatlán 	7	Santa Rita 	5	Mayo	2023-05-30T00:00:00	2024-11-08T09:00:00	1	Precipitación	0
96696	7	Sololá	704	Santa Lucía Utatlán 	7	Santa Rita 	5	Mayo	2023-05-30T00:00:00	2024-11-08T09:00:00	8	Radiación solar	626
96697	7	Sololá	704	Santa Lucía Utatlán 	7	Santa Rita 	5	Mayo	2023-05-30T00:00:00	2024-11-08T10:00:00	2	Temperatura media	22.7
96698	7	Sololá	704	Santa Lucía Utatlán 	7	Santa Rita 	5	Mayo	2023-05-30T00:00:00	2024-11-08T10:00:00	4	Temperatura máxima	22.8
96699	7	Sololá	704	Santa Lucía Utatlán 	7	Santa Rita 	5	Mayo	2023-05-30T00:00:00	2024-11-08T10:00:00	3	Temperatura mínima	22.2
96700	7	Sololá	704	Santa Lucía Utatlán 	7	Santa Rita 	5	Mayo	2023-05-30T00:00:00	2024-11-08T10:00:00	5	Humedad	77
96701	7	Sololá	704	Santa Lucía Utatlán 	7	Santa Rita 	5	Mayo	2023-05-30T00:00:00	2024-11-08T10:00:00	6	Velocidad del viento	3.2
96702	7	Sololá	704	Santa Lucía Utatlán 	7	Santa Rita 	5	Mayo	2023-05-30T00:00:00	2024-11-08T10:00:00	7	Dirección del viento	3.22
96703	7	Sololá	704	Santa Lucía Utatlán 	7	Santa Rita 	5	Mayo	2023-05-30T00:00:00	2024-11-08T10:00:00	1	Precipitación	0
96704	7	Sololá	704	Santa Lucía Utatlán 	7	Santa Rita 	5	Mayo	2023-05-30T00:00:00	2024-11-08T10:00:00	8	Radiación solar	288
96705	7	Sololá	704	Santa Lucía Utatlán 	7	Santa Rita 	5	Mayo	2023-05-30T00:00:00	2024-11-08T11:00:00	2	Temperatura media	23.8
96706	7	Sololá	704	Santa Lucía Utatlán 	7	Santa Rita 	5	Mayo	2023-05-30T00:00:00	2024-11-08T11:00:00	4	Temperatura máxima	23.8
96707	7	Sololá	704	Santa Lucía Utatlán 	7	Santa Rita 	5	Mayo	2023-05-30T00:00:00	2024-11-08T11:00:00	3	Temperatura mínima	22.7
96708	7	Sololá	704	Santa Lucía Utatlán 	7	Santa Rita 	5	Mayo	2023-05-30T00:00:00	2024-11-08T11:00:00	5	Humedad	73
96709	7	Sololá	704	Santa Lucía Utatlán 	7	Santa Rita 	5	Mayo	2023-05-30T00:00:00	2024-11-08T11:00:00	6	Velocidad del viento	3.2
96710	7	Sololá	704	Santa Lucía Utatlán 	7	Santa Rita 	5	Mayo	2023-05-30T00:00:00	2024-11-08T11:00:00	7	Dirección del viento	3.22
96711	7	Sololá	704	Santa Lucía Utatlán 	7	Santa Rita 	5	Mayo	2023-05-30T00:00:00	2024-11-08T11:00:00	1	Precipitación	0
96712	7	Sololá	704	Santa Lucía Utatlán 	7	Santa Rita 	5	Mayo	2023-05-30T00:00:00	2024-11-08T11:00:00	8	Radiación solar	388
96713	7	Sololá	704	Santa Lucía Utatlán 	7	Santa Rita 	5	Mayo	2023-05-30T00:00:00	2024-11-08T12:00:00	2	Temperatura media	21.7
96714	7	Sololá	704	Santa Lucía Utatlán 	7	Santa Rita 	5	Mayo	2023-05-30T00:00:00	2024-11-08T12:00:00	4	Temperatura máxima	23.8
96715	7	Sololá	704	Santa Lucía Utatlán 	7	Santa Rita 	5	Mayo	2023-05-30T00:00:00	2024-11-08T12:00:00	3	Temperatura mínima	21.7
96716	7	Sololá	704	Santa Lucía Utatlán 	7	Santa Rita 	5	Mayo	2023-05-30T00:00:00	2024-11-08T12:00:00	5	Humedad	84
96717	7	Sololá	704	Santa Lucía Utatlán 	7	Santa Rita 	5	Mayo	2023-05-30T00:00:00	2024-11-08T12:00:00	6	Velocidad del viento	6.4
96718	7	Sololá	704	Santa Lucía Utatlán 	7	Santa Rita 	5	Mayo	2023-05-30T00:00:00	2024-11-08T12:00:00	7	Dirección del viento	6.44
96719	7	Sololá	704	Santa Lucía Utatlán 	7	Santa Rita 	5	Mayo	2023-05-30T00:00:00	2024-11-08T12:00:00	1	Precipitación	0
96720	7	Sololá	704	Santa Lucía Utatlán 	7	Santa Rita 	5	Mayo	2023-05-30T00:00:00	2024-11-08T12:00:00	8	Radiación solar	134
96721	7	Sololá	704	Santa Lucía Utatlán 	7	Santa Rita 	5	Mayo	2023-05-30T00:00:00	2024-11-08T13:00:00	2	Temperatura media	20.6
96722	7	Sololá	704	Santa Lucía Utatlán 	7	Santa Rita 	5	Mayo	2023-05-30T00:00:00	2024-11-08T13:00:00	4	Temperatura máxima	21.7
96723	7	Sololá	704	Santa Lucía Utatlán 	7	Santa Rita 	5	Mayo	2023-05-30T00:00:00	2024-11-08T13:00:00	3	Temperatura mínima	20.6
96724	7	Sololá	704	Santa Lucía Utatlán 	7	Santa Rita 	5	Mayo	2023-05-30T00:00:00	2024-11-08T13:00:00	5	Humedad	91
96725	7	Sololá	704	Santa Lucía Utatlán 	7	Santa Rita 	5	Mayo	2023-05-30T00:00:00	2024-11-08T13:00:00	6	Velocidad del viento	4.8
96726	7	Sololá	704	Santa Lucía Utatlán 	7	Santa Rita 	5	Mayo	2023-05-30T00:00:00	2024-11-08T13:00:00	7	Dirección del viento	4.83
96727	7	Sololá	704	Santa Lucía Utatlán 	7	Santa Rita 	5	Mayo	2023-05-30T00:00:00	2024-11-08T13:00:00	1	Precipitación	4.4
96728	7	Sololá	704	Santa Lucía Utatlán 	7	Santa Rita 	5	Mayo	2023-05-30T00:00:00	2024-11-08T13:00:00	8	Radiación solar	91
96729	7	Sololá	704	Santa Lucía Utatlán 	7	Santa Rita 	5	Mayo	2023-05-30T00:00:00	2024-11-08T14:00:00	2	Temperatura media	20.1
96730	7	Sololá	704	Santa Lucía Utatlán 	7	Santa Rita 	5	Mayo	2023-05-30T00:00:00	2024-11-08T14:00:00	4	Temperatura máxima	20.6
96731	7	Sololá	704	Santa Lucía Utatlán 	7	Santa Rita 	5	Mayo	2023-05-30T00:00:00	2024-11-08T14:00:00	3	Temperatura mínima	20.1
96732	7	Sololá	704	Santa Lucía Utatlán 	7	Santa Rita 	5	Mayo	2023-05-30T00:00:00	2024-11-08T14:00:00	5	Humedad	92
96733	7	Sololá	704	Santa Lucía Utatlán 	7	Santa Rita 	5	Mayo	2023-05-30T00:00:00	2024-11-08T14:00:00	6	Velocidad del viento	1.6
96734	7	Sololá	704	Santa Lucía Utatlán 	7	Santa Rita 	5	Mayo	2023-05-30T00:00:00	2024-11-08T14:00:00	7	Dirección del viento	1.61
96735	7	Sololá	704	Santa Lucía Utatlán 	7	Santa Rita 	5	Mayo	2023-05-30T00:00:00	2024-11-08T14:00:00	1	Precipitación	1.8
96736	7	Sololá	704	Santa Lucía Utatlán 	7	Santa Rita 	5	Mayo	2023-05-30T00:00:00	2024-11-08T14:00:00	8	Radiación solar	98
96737	7	Sololá	704	Santa Lucía Utatlán 	7	Santa Rita 	5	Mayo	2023-05-30T00:00:00	2024-11-08T15:00:00	2	Temperatura media	19.8
96738	7	Sololá	704	Santa Lucía Utatlán 	7	Santa Rita 	5	Mayo	2023-05-30T00:00:00	2024-11-08T15:00:00	4	Temperatura máxima	20.2
96739	7	Sololá	704	Santa Lucía Utatlán 	7	Santa Rita 	5	Mayo	2023-05-30T00:00:00	2024-11-08T15:00:00	3	Temperatura mínima	19.7
96740	7	Sololá	704	Santa Lucía Utatlán 	7	Santa Rita 	5	Mayo	2023-05-30T00:00:00	2024-11-08T15:00:00	5	Humedad	91
96741	7	Sololá	704	Santa Lucía Utatlán 	7	Santa Rita 	5	Mayo	2023-05-30T00:00:00	2024-11-08T15:00:00	6	Velocidad del viento	1.6
96742	7	Sololá	704	Santa Lucía Utatlán 	7	Santa Rita 	5	Mayo	2023-05-30T00:00:00	2024-11-08T15:00:00	7	Dirección del viento	1.61
96743	7	Sololá	704	Santa Lucía Utatlán 	7	Santa Rita 	5	Mayo	2023-05-30T00:00:00	2024-11-08T15:00:00	1	Precipitación	0.2
96744	7	Sololá	704	Santa Lucía Utatlán 	7	Santa Rita 	5	Mayo	2023-05-30T00:00:00	2024-11-08T15:00:00	8	Radiación solar	122
96745	7	Sololá	704	Santa Lucía Utatlán 	7	Santa Rita 	5	Mayo	2023-05-30T00:00:00	2024-11-08T16:00:00	2	Temperatura media	19.7
96746	7	Sololá	704	Santa Lucía Utatlán 	7	Santa Rita 	5	Mayo	2023-05-30T00:00:00	2024-11-08T16:00:00	4	Temperatura máxima	19.9
96747	7	Sololá	704	Santa Lucía Utatlán 	7	Santa Rita 	5	Mayo	2023-05-30T00:00:00	2024-11-08T16:00:00	3	Temperatura mínima	19.5
96748	7	Sololá	704	Santa Lucía Utatlán 	7	Santa Rita 	5	Mayo	2023-05-30T00:00:00	2024-11-08T16:00:00	5	Humedad	95
96749	7	Sololá	704	Santa Lucía Utatlán 	7	Santa Rita 	5	Mayo	2023-05-30T00:00:00	2024-11-08T16:00:00	6	Velocidad del viento	1.6
96750	7	Sololá	704	Santa Lucía Utatlán 	7	Santa Rita 	5	Mayo	2023-05-30T00:00:00	2024-11-08T16:00:00	7	Dirección del viento	1.61
96751	7	Sololá	704	Santa Lucía Utatlán 	7	Santa Rita 	5	Mayo	2023-05-30T00:00:00	2024-11-08T16:00:00	1	Precipitación	0
96752	7	Sololá	704	Santa Lucía Utatlán 	7	Santa Rita 	5	Mayo	2023-05-30T00:00:00	2024-11-08T16:00:00	8	Radiación solar	87
96753	7	Sololá	704	Santa Lucía Utatlán 	7	Santa Rita 	5	Mayo	2023-05-30T00:00:00	2024-11-08T17:00:00	2	Temperatura media	19.6
96754	7	Sololá	704	Santa Lucía Utatlán 	7	Santa Rita 	5	Mayo	2023-05-30T00:00:00	2024-11-08T17:00:00	4	Temperatura máxima	19.8
96755	7	Sololá	704	Santa Lucía Utatlán 	7	Santa Rita 	5	Mayo	2023-05-30T00:00:00	2024-11-08T17:00:00	3	Temperatura mínima	19.6
96756	7	Sololá	704	Santa Lucía Utatlán 	7	Santa Rita 	5	Mayo	2023-05-30T00:00:00	2024-11-08T17:00:00	5	Humedad	95
96757	7	Sololá	704	Santa Lucía Utatlán 	7	Santa Rita 	5	Mayo	2023-05-30T00:00:00	2024-11-08T17:00:00	6	Velocidad del viento	1.6
96758	7	Sololá	704	Santa Lucía Utatlán 	7	Santa Rita 	5	Mayo	2023-05-30T00:00:00	2024-11-08T17:00:00	7	Dirección del viento	1.61
96759	7	Sololá	704	Santa Lucía Utatlán 	7	Santa Rita 	5	Mayo	2023-05-30T00:00:00	2024-11-08T17:00:00	1	Precipitación	0.6
96760	7	Sololá	704	Santa Lucía Utatlán 	7	Santa Rita 	5	Mayo	2023-05-30T00:00:00	2024-11-08T17:00:00	8	Radiación solar	13
96761	7	Sololá	704	Santa Lucía Utatlán 	7	Santa Rita 	5	Mayo	2023-05-30T00:00:00	2024-11-08T18:00:00	2	Temperatura media	18.9
96762	7	Sololá	704	Santa Lucía Utatlán 	7	Santa Rita 	5	Mayo	2023-05-30T00:00:00	2024-11-08T18:00:00	4	Temperatura máxima	19.7
96763	7	Sololá	704	Santa Lucía Utatlán 	7	Santa Rita 	5	Mayo	2023-05-30T00:00:00	2024-11-08T18:00:00	3	Temperatura mínima	18.7
96764	7	Sololá	704	Santa Lucía Utatlán 	7	Santa Rita 	5	Mayo	2023-05-30T00:00:00	2024-11-08T18:00:00	5	Humedad	84
96765	7	Sololá	704	Santa Lucía Utatlán 	7	Santa Rita 	5	Mayo	2023-05-30T00:00:00	2024-11-08T18:00:00	6	Velocidad del viento	8
96766	7	Sololá	704	Santa Lucía Utatlán 	7	Santa Rita 	5	Mayo	2023-05-30T00:00:00	2024-11-08T18:00:00	7	Dirección del viento	8.05
96767	7	Sololá	704	Santa Lucía Utatlán 	7	Santa Rita 	5	Mayo	2023-05-30T00:00:00	2024-11-08T18:00:00	1	Precipitación	5.4
96768	7	Sololá	704	Santa Lucía Utatlán 	7	Santa Rita 	5	Mayo	2023-05-30T00:00:00	2024-11-08T18:00:00	8	Radiación solar	7
96769	7	Sololá	704	Santa Lucía Utatlán 	7	Santa Rita 	5	Mayo	2023-05-30T00:00:00	2024-11-08T19:00:00	2	Temperatura media	17.7
96770	7	Sololá	704	Santa Lucía Utatlán 	7	Santa Rita 	5	Mayo	2023-05-30T00:00:00	2024-11-08T19:00:00	4	Temperatura máxima	19.8
96771	7	Sololá	704	Santa Lucía Utatlán 	7	Santa Rita 	5	Mayo	2023-05-30T00:00:00	2024-11-08T19:00:00	3	Temperatura mínima	17.7
96772	7	Sololá	704	Santa Lucía Utatlán 	7	Santa Rita 	5	Mayo	2023-05-30T00:00:00	2024-11-08T19:00:00	5	Humedad	89
96773	7	Sololá	704	Santa Lucía Utatlán 	7	Santa Rita 	5	Mayo	2023-05-30T00:00:00	2024-11-08T19:00:00	6	Velocidad del viento	4.8
96774	7	Sololá	704	Santa Lucía Utatlán 	7	Santa Rita 	5	Mayo	2023-05-30T00:00:00	2024-11-08T19:00:00	7	Dirección del viento	4.83
96775	7	Sololá	704	Santa Lucía Utatlán 	7	Santa Rita 	5	Mayo	2023-05-30T00:00:00	2024-11-08T19:00:00	1	Precipitación	0.6
96776	7	Sololá	704	Santa Lucía Utatlán 	7	Santa Rita 	5	Mayo	2023-05-30T00:00:00	2024-11-08T19:00:00	8	Radiación solar	0
96777	7	Sololá	704	Santa Lucía Utatlán 	7	Santa Rita 	5	Mayo	2023-05-30T00:00:00	2024-11-08T20:00:00	2	Temperatura media	17.2
96778	7	Sololá	704	Santa Lucía Utatlán 	7	Santa Rita 	5	Mayo	2023-05-30T00:00:00	2024-11-08T20:00:00	4	Temperatura máxima	17.8
96779	7	Sololá	704	Santa Lucía Utatlán 	7	Santa Rita 	5	Mayo	2023-05-30T00:00:00	2024-11-08T20:00:00	3	Temperatura mínima	17.1
96780	7	Sololá	704	Santa Lucía Utatlán 	7	Santa Rita 	5	Mayo	2023-05-30T00:00:00	2024-11-08T20:00:00	5	Humedad	88
96781	7	Sololá	704	Santa Lucía Utatlán 	7	Santa Rita 	5	Mayo	2023-05-30T00:00:00	2024-11-08T20:00:00	6	Velocidad del viento	3.2
96782	7	Sololá	704	Santa Lucía Utatlán 	7	Santa Rita 	5	Mayo	2023-05-30T00:00:00	2024-11-08T20:00:00	7	Dirección del viento	3.22
96783	7	Sololá	704	Santa Lucía Utatlán 	7	Santa Rita 	5	Mayo	2023-05-30T00:00:00	2024-11-08T20:00:00	1	Precipitación	0
96784	7	Sololá	704	Santa Lucía Utatlán 	7	Santa Rita 	5	Mayo	2023-05-30T00:00:00	2024-11-08T20:00:00	8	Radiación solar	0
96785	7	Sololá	704	Santa Lucía Utatlán 	7	Santa Rita 	5	Mayo	2023-05-30T00:00:00	2024-11-08T21:00:00	2	Temperatura media	17.2
96786	7	Sololá	704	Santa Lucía Utatlán 	7	Santa Rita 	5	Mayo	2023-05-30T00:00:00	2024-11-08T21:00:00	4	Temperatura máxima	17.4
96787	7	Sololá	704	Santa Lucía Utatlán 	7	Santa Rita 	5	Mayo	2023-05-30T00:00:00	2024-11-08T21:00:00	3	Temperatura mínima	17.2
96788	7	Sololá	704	Santa Lucía Utatlán 	7	Santa Rita 	5	Mayo	2023-05-30T00:00:00	2024-11-08T21:00:00	5	Humedad	88
96789	7	Sololá	704	Santa Lucía Utatlán 	7	Santa Rita 	5	Mayo	2023-05-30T00:00:00	2024-11-08T21:00:00	6	Velocidad del viento	3.2
96790	7	Sololá	704	Santa Lucía Utatlán 	7	Santa Rita 	5	Mayo	2023-05-30T00:00:00	2024-11-08T21:00:00	7	Dirección del viento	3.22
96791	7	Sololá	704	Santa Lucía Utatlán 	7	Santa Rita 	5	Mayo	2023-05-30T00:00:00	2024-11-08T21:00:00	1	Precipitación	0
96792	7	Sololá	704	Santa Lucía Utatlán 	7	Santa Rita 	5	Mayo	2023-05-30T00:00:00	2024-11-08T21:00:00	8	Radiación solar	0
96793	7	Sololá	704	Santa Lucía Utatlán 	7	Santa Rita 	5	Mayo	2023-05-30T00:00:00	2024-11-08T22:00:00	2	Temperatura media	17.6
96794	7	Sololá	704	Santa Lucía Utatlán 	7	Santa Rita 	5	Mayo	2023-05-30T00:00:00	2024-11-08T22:00:00	4	Temperatura máxima	17.8
96795	7	Sololá	704	Santa Lucía Utatlán 	7	Santa Rita 	5	Mayo	2023-05-30T00:00:00	2024-11-08T22:00:00	3	Temperatura mínima	17.2
96796	7	Sololá	704	Santa Lucía Utatlán 	7	Santa Rita 	5	Mayo	2023-05-30T00:00:00	2024-11-08T22:00:00	5	Humedad	87
96797	7	Sololá	704	Santa Lucía Utatlán 	7	Santa Rita 	5	Mayo	2023-05-30T00:00:00	2024-11-08T22:00:00	6	Velocidad del viento	3.2
96798	7	Sololá	704	Santa Lucía Utatlán 	7	Santa Rita 	5	Mayo	2023-05-30T00:00:00	2024-11-08T22:00:00	7	Dirección del viento	3.22
96799	7	Sololá	704	Santa Lucía Utatlán 	7	Santa Rita 	5	Mayo	2023-05-30T00:00:00	2024-11-08T22:00:00	1	Precipitación	0
96800	7	Sololá	704	Santa Lucía Utatlán 	7	Santa Rita 	5	Mayo	2023-05-30T00:00:00	2024-11-08T22:00:00	8	Radiación solar	0
96801	7	Sololá	704	Santa Lucía Utatlán 	7	Santa Rita 	5	Mayo	2023-05-30T00:00:00	2024-11-08T23:00:00	2	Temperatura media	17.5
96802	7	Sololá	704	Santa Lucía Utatlán 	7	Santa Rita 	5	Mayo	2023-05-30T00:00:00	2024-11-08T23:00:00	4	Temperatura máxima	18
96803	7	Sololá	704	Santa Lucía Utatlán 	7	Santa Rita 	5	Mayo	2023-05-30T00:00:00	2024-11-08T23:00:00	3	Temperatura mínima	17.2
96804	7	Sololá	704	Santa Lucía Utatlán 	7	Santa Rita 	5	Mayo	2023-05-30T00:00:00	2024-11-08T23:00:00	5	Humedad	88
96805	7	Sololá	704	Santa Lucía Utatlán 	7	Santa Rita 	5	Mayo	2023-05-30T00:00:00	2024-11-08T23:00:00	6	Velocidad del viento	3.2
96806	7	Sololá	704	Santa Lucía Utatlán 	7	Santa Rita 	5	Mayo	2023-05-30T00:00:00	2024-11-08T23:00:00	7	Dirección del viento	3.22
96807	7	Sololá	704	Santa Lucía Utatlán 	7	Santa Rita 	5	Mayo	2023-05-30T00:00:00	2024-11-08T23:00:00	1	Precipitación	0
96808	7	Sololá	704	Santa Lucía Utatlán 	7	Santa Rita 	5	Mayo	2023-05-30T00:00:00	2024-11-08T23:00:00	8	Radiación solar	0
96809	7	Sololá	704	Santa Lucía Utatlán 	7	Santa Rita 	5	Mayo	2023-05-31T00:00:00	2024-11-08T00:00:00	2	Temperatura media	17.9
96810	7	Sololá	704	Santa Lucía Utatlán 	7	Santa Rita 	5	Mayo	2023-05-31T00:00:00	2024-11-08T00:00:00	4	Temperatura máxima	18.1
96811	7	Sololá	704	Santa Lucía Utatlán 	7	Santa Rita 	5	Mayo	2023-05-31T00:00:00	2024-11-08T00:00:00	3	Temperatura mínima	17.5
96812	7	Sololá	704	Santa Lucía Utatlán 	7	Santa Rita 	5	Mayo	2023-05-31T00:00:00	2024-11-08T00:00:00	5	Humedad	85
96813	7	Sololá	704	Santa Lucía Utatlán 	7	Santa Rita 	5	Mayo	2023-05-31T00:00:00	2024-11-08T00:00:00	6	Velocidad del viento	4.8
96814	7	Sololá	704	Santa Lucía Utatlán 	7	Santa Rita 	5	Mayo	2023-05-31T00:00:00	2024-11-08T00:00:00	7	Dirección del viento	4.83
96815	7	Sololá	704	Santa Lucía Utatlán 	7	Santa Rita 	5	Mayo	2023-05-31T00:00:00	2024-11-08T00:00:00	1	Precipitación	0
96816	7	Sololá	704	Santa Lucía Utatlán 	7	Santa Rita 	5	Mayo	2023-05-31T00:00:00	2024-11-08T00:00:00	8	Radiación solar	0
96817	7	Sololá	704	Santa Lucía Utatlán 	7	Santa Rita 	5	Mayo	2023-05-31T00:00:00	2024-11-08T01:00:00	2	Temperatura media	17.8
96818	7	Sololá	704	Santa Lucía Utatlán 	7	Santa Rita 	5	Mayo	2023-05-31T00:00:00	2024-11-08T01:00:00	4	Temperatura máxima	18
96819	7	Sololá	704	Santa Lucía Utatlán 	7	Santa Rita 	5	Mayo	2023-05-31T00:00:00	2024-11-08T01:00:00	3	Temperatura mínima	17.4
96820	7	Sololá	704	Santa Lucía Utatlán 	7	Santa Rita 	5	Mayo	2023-05-31T00:00:00	2024-11-08T01:00:00	5	Humedad	87
96821	7	Sololá	704	Santa Lucía Utatlán 	7	Santa Rita 	5	Mayo	2023-05-31T00:00:00	2024-11-08T01:00:00	6	Velocidad del viento	1.6
96822	7	Sololá	704	Santa Lucía Utatlán 	7	Santa Rita 	5	Mayo	2023-05-31T00:00:00	2024-11-08T01:00:00	7	Dirección del viento	1.61
96823	7	Sololá	704	Santa Lucía Utatlán 	7	Santa Rita 	5	Mayo	2023-05-31T00:00:00	2024-11-08T01:00:00	1	Precipitación	0
96824	7	Sololá	704	Santa Lucía Utatlán 	7	Santa Rita 	5	Mayo	2023-05-31T00:00:00	2024-11-08T01:00:00	8	Radiación solar	0
96825	7	Sololá	704	Santa Lucía Utatlán 	7	Santa Rita 	5	Mayo	2023-05-31T00:00:00	2024-11-08T02:00:00	2	Temperatura media	17.4
96826	7	Sololá	704	Santa Lucía Utatlán 	7	Santa Rita 	5	Mayo	2023-05-31T00:00:00	2024-11-08T02:00:00	4	Temperatura máxima	17.8
96827	7	Sololá	704	Santa Lucía Utatlán 	7	Santa Rita 	5	Mayo	2023-05-31T00:00:00	2024-11-08T02:00:00	3	Temperatura mínima	17.2
96828	7	Sololá	704	Santa Lucía Utatlán 	7	Santa Rita 	5	Mayo	2023-05-31T00:00:00	2024-11-08T02:00:00	5	Humedad	88
96829	7	Sololá	704	Santa Lucía Utatlán 	7	Santa Rita 	5	Mayo	2023-05-31T00:00:00	2024-11-08T02:00:00	6	Velocidad del viento	1.6
96830	7	Sololá	704	Santa Lucía Utatlán 	7	Santa Rita 	5	Mayo	2023-05-31T00:00:00	2024-11-08T02:00:00	7	Dirección del viento	1.61
96831	7	Sololá	704	Santa Lucía Utatlán 	7	Santa Rita 	5	Mayo	2023-05-31T00:00:00	2024-11-08T02:00:00	1	Precipitación	0
96832	7	Sololá	704	Santa Lucía Utatlán 	7	Santa Rita 	5	Mayo	2023-05-31T00:00:00	2024-11-08T02:00:00	8	Radiación solar	0
96833	7	Sololá	704	Santa Lucía Utatlán 	7	Santa Rita 	5	Mayo	2023-05-31T00:00:00	2024-11-08T03:00:00	2	Temperatura media	17.3
96834	7	Sololá	704	Santa Lucía Utatlán 	7	Santa Rita 	5	Mayo	2023-05-31T00:00:00	2024-11-08T03:00:00	4	Temperatura máxima	17.7
96835	7	Sololá	704	Santa Lucía Utatlán 	7	Santa Rita 	5	Mayo	2023-05-31T00:00:00	2024-11-08T03:00:00	3	Temperatura mínima	17.2
96836	7	Sololá	704	Santa Lucía Utatlán 	7	Santa Rita 	5	Mayo	2023-05-31T00:00:00	2024-11-08T03:00:00	5	Humedad	88
96837	7	Sololá	704	Santa Lucía Utatlán 	7	Santa Rita 	5	Mayo	2023-05-31T00:00:00	2024-11-08T03:00:00	6	Velocidad del viento	3.2
96838	7	Sololá	704	Santa Lucía Utatlán 	7	Santa Rita 	5	Mayo	2023-05-31T00:00:00	2024-11-08T03:00:00	7	Dirección del viento	3.22
96839	7	Sololá	704	Santa Lucía Utatlán 	7	Santa Rita 	5	Mayo	2023-05-31T00:00:00	2024-11-08T03:00:00	1	Precipitación	0
96840	7	Sololá	704	Santa Lucía Utatlán 	7	Santa Rita 	5	Mayo	2023-05-31T00:00:00	2024-11-08T03:00:00	8	Radiación solar	0
96841	7	Sololá	704	Santa Lucía Utatlán 	7	Santa Rita 	5	Mayo	2023-05-31T00:00:00	2024-11-08T04:00:00	2	Temperatura media	16.4
96842	7	Sololá	704	Santa Lucía Utatlán 	7	Santa Rita 	5	Mayo	2023-05-31T00:00:00	2024-11-08T04:00:00	4	Temperatura máxima	17.3
96843	7	Sololá	704	Santa Lucía Utatlán 	7	Santa Rita 	5	Mayo	2023-05-31T00:00:00	2024-11-08T04:00:00	3	Temperatura mínima	16.4
96844	7	Sololá	704	Santa Lucía Utatlán 	7	Santa Rita 	5	Mayo	2023-05-31T00:00:00	2024-11-08T04:00:00	5	Humedad	88
96845	7	Sololá	704	Santa Lucía Utatlán 	7	Santa Rita 	5	Mayo	2023-05-31T00:00:00	2024-11-08T04:00:00	6	Velocidad del viento	3.2
96846	7	Sololá	704	Santa Lucía Utatlán 	7	Santa Rita 	5	Mayo	2023-05-31T00:00:00	2024-11-08T04:00:00	7	Dirección del viento	3.22
96847	7	Sololá	704	Santa Lucía Utatlán 	7	Santa Rita 	5	Mayo	2023-05-31T00:00:00	2024-11-08T04:00:00	1	Precipitación	0
96848	7	Sololá	704	Santa Lucía Utatlán 	7	Santa Rita 	5	Mayo	2023-05-31T00:00:00	2024-11-08T04:00:00	8	Radiación solar	0
96849	7	Sololá	704	Santa Lucía Utatlán 	7	Santa Rita 	5	Mayo	2023-05-31T00:00:00	2024-11-08T05:00:00	2	Temperatura media	16.4
96850	7	Sololá	704	Santa Lucía Utatlán 	7	Santa Rita 	5	Mayo	2023-05-31T00:00:00	2024-11-08T05:00:00	4	Temperatura máxima	16.6
96851	7	Sololá	704	Santa Lucía Utatlán 	7	Santa Rita 	5	Mayo	2023-05-31T00:00:00	2024-11-08T05:00:00	3	Temperatura mínima	16.3
96852	7	Sololá	704	Santa Lucía Utatlán 	7	Santa Rita 	5	Mayo	2023-05-31T00:00:00	2024-11-08T05:00:00	5	Humedad	89
96853	7	Sololá	704	Santa Lucía Utatlán 	7	Santa Rita 	5	Mayo	2023-05-31T00:00:00	2024-11-08T05:00:00	6	Velocidad del viento	4.8
96854	7	Sololá	704	Santa Lucía Utatlán 	7	Santa Rita 	5	Mayo	2023-05-31T00:00:00	2024-11-08T05:00:00	7	Dirección del viento	4.83
96855	7	Sololá	704	Santa Lucía Utatlán 	7	Santa Rita 	5	Mayo	2023-05-31T00:00:00	2024-11-08T05:00:00	1	Precipitación	0
96856	7	Sololá	704	Santa Lucía Utatlán 	7	Santa Rita 	5	Mayo	2023-05-31T00:00:00	2024-11-08T05:00:00	8	Radiación solar	0
96857	7	Sololá	704	Santa Lucía Utatlán 	7	Santa Rita 	5	Mayo	2023-05-31T00:00:00	2024-11-08T06:00:00	2	Temperatura media	16.6
96858	7	Sololá	704	Santa Lucía Utatlán 	7	Santa Rita 	5	Mayo	2023-05-31T00:00:00	2024-11-08T06:00:00	4	Temperatura máxima	16.8
96859	7	Sololá	704	Santa Lucía Utatlán 	7	Santa Rita 	5	Mayo	2023-05-31T00:00:00	2024-11-08T06:00:00	3	Temperatura mínima	16.4
96860	7	Sololá	704	Santa Lucía Utatlán 	7	Santa Rita 	5	Mayo	2023-05-31T00:00:00	2024-11-08T06:00:00	5	Humedad	90
96861	7	Sololá	704	Santa Lucía Utatlán 	7	Santa Rita 	5	Mayo	2023-05-31T00:00:00	2024-11-08T06:00:00	6	Velocidad del viento	3.2
96862	7	Sololá	704	Santa Lucía Utatlán 	7	Santa Rita 	5	Mayo	2023-05-31T00:00:00	2024-11-08T06:00:00	7	Dirección del viento	3.22
96863	7	Sololá	704	Santa Lucía Utatlán 	7	Santa Rita 	5	Mayo	2023-05-31T00:00:00	2024-11-08T06:00:00	1	Precipitación	0
96864	7	Sololá	704	Santa Lucía Utatlán 	7	Santa Rita 	5	Mayo	2023-05-31T00:00:00	2024-11-08T06:00:00	8	Radiación solar	8
96865	7	Sololá	704	Santa Lucía Utatlán 	7	Santa Rita 	5	Mayo	2023-05-31T00:00:00	2024-11-08T07:00:00	2	Temperatura media	18.1
96866	7	Sololá	704	Santa Lucía Utatlán 	7	Santa Rita 	5	Mayo	2023-05-31T00:00:00	2024-11-08T07:00:00	4	Temperatura máxima	18.1
96867	7	Sololá	704	Santa Lucía Utatlán 	7	Santa Rita 	5	Mayo	2023-05-31T00:00:00	2024-11-08T07:00:00	3	Temperatura mínima	16.6
96868	7	Sololá	704	Santa Lucía Utatlán 	7	Santa Rita 	5	Mayo	2023-05-31T00:00:00	2024-11-08T07:00:00	5	Humedad	87
96869	7	Sololá	704	Santa Lucía Utatlán 	7	Santa Rita 	5	Mayo	2023-05-31T00:00:00	2024-11-08T07:00:00	6	Velocidad del viento	1.6
96870	7	Sololá	704	Santa Lucía Utatlán 	7	Santa Rita 	5	Mayo	2023-05-31T00:00:00	2024-11-08T07:00:00	7	Dirección del viento	1.61
96871	7	Sololá	704	Santa Lucía Utatlán 	7	Santa Rita 	5	Mayo	2023-05-31T00:00:00	2024-11-08T07:00:00	1	Precipitación	0
96872	7	Sololá	704	Santa Lucía Utatlán 	7	Santa Rita 	5	Mayo	2023-05-31T00:00:00	2024-11-08T07:00:00	8	Radiación solar	90
96873	7	Sololá	704	Santa Lucía Utatlán 	7	Santa Rita 	5	Mayo	2023-05-31T00:00:00	2024-11-08T08:00:00	2	Temperatura media	21.2
96874	7	Sololá	704	Santa Lucía Utatlán 	7	Santa Rita 	5	Mayo	2023-05-31T00:00:00	2024-11-08T08:00:00	4	Temperatura máxima	21.2
96875	7	Sololá	704	Santa Lucía Utatlán 	7	Santa Rita 	5	Mayo	2023-05-31T00:00:00	2024-11-08T08:00:00	3	Temperatura mínima	18.1
96876	7	Sololá	704	Santa Lucía Utatlán 	7	Santa Rita 	5	Mayo	2023-05-31T00:00:00	2024-11-08T08:00:00	5	Humedad	80
96877	7	Sololá	704	Santa Lucía Utatlán 	7	Santa Rita 	5	Mayo	2023-05-31T00:00:00	2024-11-08T08:00:00	6	Velocidad del viento	1.6
96878	7	Sololá	704	Santa Lucía Utatlán 	7	Santa Rita 	5	Mayo	2023-05-31T00:00:00	2024-11-08T08:00:00	7	Dirección del viento	1.61
96879	7	Sololá	704	Santa Lucía Utatlán 	7	Santa Rita 	5	Mayo	2023-05-31T00:00:00	2024-11-08T08:00:00	1	Precipitación	0
96880	7	Sololá	704	Santa Lucía Utatlán 	7	Santa Rita 	5	Mayo	2023-05-31T00:00:00	2024-11-08T08:00:00	8	Radiación solar	390
96881	7	Sololá	704	Santa Lucía Utatlán 	7	Santa Rita 	5	Mayo	2023-05-31T00:00:00	2024-11-08T09:00:00	2	Temperatura media	22.6
96882	7	Sololá	704	Santa Lucía Utatlán 	7	Santa Rita 	5	Mayo	2023-05-31T00:00:00	2024-11-08T09:00:00	4	Temperatura máxima	22.6
96883	7	Sololá	704	Santa Lucía Utatlán 	7	Santa Rita 	5	Mayo	2023-05-31T00:00:00	2024-11-08T09:00:00	3	Temperatura mínima	21.1
96884	7	Sololá	704	Santa Lucía Utatlán 	7	Santa Rita 	5	Mayo	2023-05-31T00:00:00	2024-11-08T09:00:00	5	Humedad	77
96885	7	Sololá	704	Santa Lucía Utatlán 	7	Santa Rita 	5	Mayo	2023-05-31T00:00:00	2024-11-08T09:00:00	6	Velocidad del viento	3.2
96886	7	Sololá	704	Santa Lucía Utatlán 	7	Santa Rita 	5	Mayo	2023-05-31T00:00:00	2024-11-08T09:00:00	7	Dirección del viento	3.22
96887	7	Sololá	704	Santa Lucía Utatlán 	7	Santa Rita 	5	Mayo	2023-05-31T00:00:00	2024-11-08T09:00:00	1	Precipitación	0
96888	7	Sololá	704	Santa Lucía Utatlán 	7	Santa Rita 	5	Mayo	2023-05-31T00:00:00	2024-11-08T09:00:00	8	Radiación solar	586
96889	7	Sololá	704	Santa Lucía Utatlán 	7	Santa Rita 	5	Mayo	2023-05-31T00:00:00	2024-11-08T10:00:00	2	Temperatura media	22.4
96890	7	Sololá	704	Santa Lucía Utatlán 	7	Santa Rita 	5	Mayo	2023-05-31T00:00:00	2024-11-08T10:00:00	4	Temperatura máxima	22.6
96891	7	Sololá	704	Santa Lucía Utatlán 	7	Santa Rita 	5	Mayo	2023-05-31T00:00:00	2024-11-08T10:00:00	3	Temperatura mínima	21.9
96892	7	Sololá	704	Santa Lucía Utatlán 	7	Santa Rita 	5	Mayo	2023-05-31T00:00:00	2024-11-08T10:00:00	5	Humedad	79
96893	7	Sololá	704	Santa Lucía Utatlán 	7	Santa Rita 	5	Mayo	2023-05-31T00:00:00	2024-11-08T10:00:00	6	Velocidad del viento	3.2
96894	7	Sololá	704	Santa Lucía Utatlán 	7	Santa Rita 	5	Mayo	2023-05-31T00:00:00	2024-11-08T10:00:00	7	Dirección del viento	3.22
96895	7	Sololá	704	Santa Lucía Utatlán 	7	Santa Rita 	5	Mayo	2023-05-31T00:00:00	2024-11-08T10:00:00	1	Precipitación	0
96896	7	Sololá	704	Santa Lucía Utatlán 	7	Santa Rita 	5	Mayo	2023-05-31T00:00:00	2024-11-08T10:00:00	8	Radiación solar	344
96897	7	Sololá	704	Santa Lucía Utatlán 	7	Santa Rita 	5	Mayo	2023-05-31T00:00:00	2024-11-08T11:00:00	2	Temperatura media	22.8
96898	7	Sololá	704	Santa Lucía Utatlán 	7	Santa Rita 	5	Mayo	2023-05-31T00:00:00	2024-11-08T11:00:00	4	Temperatura máxima	23.1
96899	7	Sololá	704	Santa Lucía Utatlán 	7	Santa Rita 	5	Mayo	2023-05-31T00:00:00	2024-11-08T11:00:00	3	Temperatura mínima	22.4
96900	7	Sololá	704	Santa Lucía Utatlán 	7	Santa Rita 	5	Mayo	2023-05-31T00:00:00	2024-11-08T11:00:00	5	Humedad	80
96901	7	Sololá	704	Santa Lucía Utatlán 	7	Santa Rita 	5	Mayo	2023-05-31T00:00:00	2024-11-08T11:00:00	6	Velocidad del viento	4.8
96902	7	Sololá	704	Santa Lucía Utatlán 	7	Santa Rita 	5	Mayo	2023-05-31T00:00:00	2024-11-08T11:00:00	7	Dirección del viento	4.83
96903	7	Sololá	704	Santa Lucía Utatlán 	7	Santa Rita 	5	Mayo	2023-05-31T00:00:00	2024-11-08T11:00:00	1	Precipitación	0
96904	7	Sololá	704	Santa Lucía Utatlán 	7	Santa Rita 	5	Mayo	2023-05-31T00:00:00	2024-11-08T11:00:00	8	Radiación solar	416
96905	7	Sololá	704	Santa Lucía Utatlán 	7	Santa Rita 	5	Mayo	2023-05-31T00:00:00	2024-11-08T12:00:00	2	Temperatura media	21.9
96906	7	Sololá	704	Santa Lucía Utatlán 	7	Santa Rita 	5	Mayo	2023-05-31T00:00:00	2024-11-08T12:00:00	4	Temperatura máxima	22.8
96907	7	Sololá	704	Santa Lucía Utatlán 	7	Santa Rita 	5	Mayo	2023-05-31T00:00:00	2024-11-08T12:00:00	3	Temperatura mínima	21.7
96908	7	Sololá	704	Santa Lucía Utatlán 	7	Santa Rita 	5	Mayo	2023-05-31T00:00:00	2024-11-08T12:00:00	5	Humedad	84
96909	7	Sololá	704	Santa Lucía Utatlán 	7	Santa Rita 	5	Mayo	2023-05-31T00:00:00	2024-11-08T12:00:00	6	Velocidad del viento	6.4
96910	7	Sololá	704	Santa Lucía Utatlán 	7	Santa Rita 	5	Mayo	2023-05-31T00:00:00	2024-11-08T12:00:00	7	Dirección del viento	6.44
96911	7	Sololá	704	Santa Lucía Utatlán 	7	Santa Rita 	5	Mayo	2023-05-31T00:00:00	2024-11-08T12:00:00	1	Precipitación	0
96912	7	Sololá	704	Santa Lucía Utatlán 	7	Santa Rita 	5	Mayo	2023-05-31T00:00:00	2024-11-08T12:00:00	8	Radiación solar	283
96913	7	Sololá	704	Santa Lucía Utatlán 	7	Santa Rita 	5	Mayo	2023-05-31T00:00:00	2024-11-08T13:00:00	2	Temperatura media	23.2
96914	7	Sololá	704	Santa Lucía Utatlán 	7	Santa Rita 	5	Mayo	2023-05-31T00:00:00	2024-11-08T13:00:00	4	Temperatura máxima	23.2
96915	7	Sololá	704	Santa Lucía Utatlán 	7	Santa Rita 	5	Mayo	2023-05-31T00:00:00	2024-11-08T13:00:00	3	Temperatura mínima	21.7
96916	7	Sololá	704	Santa Lucía Utatlán 	7	Santa Rita 	5	Mayo	2023-05-31T00:00:00	2024-11-08T13:00:00	5	Humedad	78
96917	7	Sololá	704	Santa Lucía Utatlán 	7	Santa Rita 	5	Mayo	2023-05-31T00:00:00	2024-11-08T13:00:00	6	Velocidad del viento	4.8
96918	7	Sololá	704	Santa Lucía Utatlán 	7	Santa Rita 	5	Mayo	2023-05-31T00:00:00	2024-11-08T13:00:00	7	Dirección del viento	4.83
96919	7	Sololá	704	Santa Lucía Utatlán 	7	Santa Rita 	5	Mayo	2023-05-31T00:00:00	2024-11-08T13:00:00	1	Precipitación	0
96920	7	Sololá	704	Santa Lucía Utatlán 	7	Santa Rita 	5	Mayo	2023-05-31T00:00:00	2024-11-08T13:00:00	8	Radiación solar	328
96921	7	Sololá	704	Santa Lucía Utatlán 	7	Santa Rita 	5	Mayo	2023-05-31T00:00:00	2024-11-08T14:00:00	2	Temperatura media	22.7
96922	7	Sololá	704	Santa Lucía Utatlán 	7	Santa Rita 	5	Mayo	2023-05-31T00:00:00	2024-11-08T14:00:00	4	Temperatura máxima	23.7
96923	7	Sololá	704	Santa Lucía Utatlán 	7	Santa Rita 	5	Mayo	2023-05-31T00:00:00	2024-11-08T14:00:00	3	Temperatura mínima	22.7
96924	7	Sololá	704	Santa Lucía Utatlán 	7	Santa Rita 	5	Mayo	2023-05-31T00:00:00	2024-11-08T14:00:00	5	Humedad	82
96925	7	Sololá	704	Santa Lucía Utatlán 	7	Santa Rita 	5	Mayo	2023-05-31T00:00:00	2024-11-08T14:00:00	6	Velocidad del viento	4.8
96926	7	Sololá	704	Santa Lucía Utatlán 	7	Santa Rita 	5	Mayo	2023-05-31T00:00:00	2024-11-08T14:00:00	7	Dirección del viento	4.83
96927	7	Sololá	704	Santa Lucía Utatlán 	7	Santa Rita 	5	Mayo	2023-05-31T00:00:00	2024-11-08T14:00:00	1	Precipitación	0
96928	7	Sololá	704	Santa Lucía Utatlán 	7	Santa Rita 	5	Mayo	2023-05-31T00:00:00	2024-11-08T14:00:00	8	Radiación solar	440
96929	7	Sololá	704	Santa Lucía Utatlán 	7	Santa Rita 	5	Mayo	2023-05-31T00:00:00	2024-11-08T15:00:00	2	Temperatura media	21.8
96930	7	Sololá	704	Santa Lucía Utatlán 	7	Santa Rita 	5	Mayo	2023-05-31T00:00:00	2024-11-08T15:00:00	4	Temperatura máxima	23.1
96931	7	Sololá	704	Santa Lucía Utatlán 	7	Santa Rita 	5	Mayo	2023-05-31T00:00:00	2024-11-08T15:00:00	3	Temperatura mínima	21.7
96932	7	Sololá	704	Santa Lucía Utatlán 	7	Santa Rita 	5	Mayo	2023-05-31T00:00:00	2024-11-08T15:00:00	5	Humedad	88
96933	7	Sololá	704	Santa Lucía Utatlán 	7	Santa Rita 	5	Mayo	2023-05-31T00:00:00	2024-11-08T15:00:00	6	Velocidad del viento	4.8
96934	7	Sololá	704	Santa Lucía Utatlán 	7	Santa Rita 	5	Mayo	2023-05-31T00:00:00	2024-11-08T15:00:00	7	Dirección del viento	4.83
96935	7	Sololá	704	Santa Lucía Utatlán 	7	Santa Rita 	5	Mayo	2023-05-31T00:00:00	2024-11-08T15:00:00	1	Precipitación	0
96936	7	Sololá	704	Santa Lucía Utatlán 	7	Santa Rita 	5	Mayo	2023-05-31T00:00:00	2024-11-08T15:00:00	8	Radiación solar	167
96937	7	Sololá	704	Santa Lucía Utatlán 	7	Santa Rita 	5	Mayo	2023-05-31T00:00:00	2024-11-08T16:00:00	2	Temperatura media	21.6
96938	7	Sololá	704	Santa Lucía Utatlán 	7	Santa Rita 	5	Mayo	2023-05-31T00:00:00	2024-11-08T16:00:00	4	Temperatura máxima	22.1
96939	7	Sololá	704	Santa Lucía Utatlán 	7	Santa Rita 	5	Mayo	2023-05-31T00:00:00	2024-11-08T16:00:00	3	Temperatura mínima	21.6
96940	7	Sololá	704	Santa Lucía Utatlán 	7	Santa Rita 	5	Mayo	2023-05-31T00:00:00	2024-11-08T16:00:00	5	Humedad	88
96941	7	Sololá	704	Santa Lucía Utatlán 	7	Santa Rita 	5	Mayo	2023-05-31T00:00:00	2024-11-08T16:00:00	6	Velocidad del viento	3.2
96942	7	Sololá	704	Santa Lucía Utatlán 	7	Santa Rita 	5	Mayo	2023-05-31T00:00:00	2024-11-08T16:00:00	7	Dirección del viento	3.22
96943	7	Sololá	704	Santa Lucía Utatlán 	7	Santa Rita 	5	Mayo	2023-05-31T00:00:00	2024-11-08T16:00:00	1	Precipitación	0
96944	7	Sololá	704	Santa Lucía Utatlán 	7	Santa Rita 	5	Mayo	2023-05-31T00:00:00	2024-11-08T16:00:00	8	Radiación solar	122
96945	7	Sololá	704	Santa Lucía Utatlán 	7	Santa Rita 	5	Mayo	2023-05-31T00:00:00	2024-11-08T17:00:00	2	Temperatura media	20.5
96946	7	Sololá	704	Santa Lucía Utatlán 	7	Santa Rita 	5	Mayo	2023-05-31T00:00:00	2024-11-08T17:00:00	4	Temperatura máxima	21.6
96947	7	Sololá	704	Santa Lucía Utatlán 	7	Santa Rita 	5	Mayo	2023-05-31T00:00:00	2024-11-08T17:00:00	3	Temperatura mínima	20.5
96948	7	Sololá	704	Santa Lucía Utatlán 	7	Santa Rita 	5	Mayo	2023-05-31T00:00:00	2024-11-08T17:00:00	5	Humedad	93
96949	7	Sololá	704	Santa Lucía Utatlán 	7	Santa Rita 	5	Mayo	2023-05-31T00:00:00	2024-11-08T17:00:00	6	Velocidad del viento	3.2
96950	7	Sololá	704	Santa Lucía Utatlán 	7	Santa Rita 	5	Mayo	2023-05-31T00:00:00	2024-11-08T17:00:00	7	Dirección del viento	3.22
96951	7	Sololá	704	Santa Lucía Utatlán 	7	Santa Rita 	5	Mayo	2023-05-31T00:00:00	2024-11-08T17:00:00	1	Precipitación	0.6
96952	7	Sololá	704	Santa Lucía Utatlán 	7	Santa Rita 	5	Mayo	2023-05-31T00:00:00	2024-11-08T17:00:00	8	Radiación solar	14
96953	7	Sololá	704	Santa Lucía Utatlán 	7	Santa Rita 	5	Mayo	2023-05-31T00:00:00	2024-11-08T18:00:00	2	Temperatura media	19.5
96954	7	Sololá	704	Santa Lucía Utatlán 	7	Santa Rita 	5	Mayo	2023-05-31T00:00:00	2024-11-08T18:00:00	4	Temperatura máxima	20.5
96955	7	Sololá	704	Santa Lucía Utatlán 	7	Santa Rita 	5	Mayo	2023-05-31T00:00:00	2024-11-08T18:00:00	3	Temperatura mínima	19.4
96956	7	Sololá	704	Santa Lucía Utatlán 	7	Santa Rita 	5	Mayo	2023-05-31T00:00:00	2024-11-08T18:00:00	5	Humedad	93
96957	7	Sololá	704	Santa Lucía Utatlán 	7	Santa Rita 	5	Mayo	2023-05-31T00:00:00	2024-11-08T18:00:00	6	Velocidad del viento	1.6
96958	7	Sololá	704	Santa Lucía Utatlán 	7	Santa Rita 	5	Mayo	2023-05-31T00:00:00	2024-11-08T18:00:00	7	Dirección del viento	1.61
96959	7	Sololá	704	Santa Lucía Utatlán 	7	Santa Rita 	5	Mayo	2023-05-31T00:00:00	2024-11-08T18:00:00	1	Precipitación	3.4
96960	7	Sololá	704	Santa Lucía Utatlán 	7	Santa Rita 	5	Mayo	2023-05-31T00:00:00	2024-11-08T18:00:00	8	Radiación solar	35
96961	7	Sololá	704	Santa Lucía Utatlán 	7	Santa Rita 	5	Mayo	2023-05-31T00:00:00	2024-11-08T19:00:00	2	Temperatura media	19.2
96962	7	Sololá	704	Santa Lucía Utatlán 	7	Santa Rita 	5	Mayo	2023-05-31T00:00:00	2024-11-08T19:00:00	4	Temperatura máxima	19.5
96963	7	Sololá	704	Santa Lucía Utatlán 	7	Santa Rita 	5	Mayo	2023-05-31T00:00:00	2024-11-08T19:00:00	3	Temperatura mínima	19.2
96964	7	Sololá	704	Santa Lucía Utatlán 	7	Santa Rita 	5	Mayo	2023-05-31T00:00:00	2024-11-08T19:00:00	5	Humedad	94
96965	7	Sololá	704	Santa Lucía Utatlán 	7	Santa Rita 	5	Mayo	2023-05-31T00:00:00	2024-11-08T19:00:00	6	Velocidad del viento	1.6
96966	7	Sololá	704	Santa Lucía Utatlán 	7	Santa Rita 	5	Mayo	2023-05-31T00:00:00	2024-11-08T19:00:00	7	Dirección del viento	1.61
96967	7	Sololá	704	Santa Lucía Utatlán 	7	Santa Rita 	5	Mayo	2023-05-31T00:00:00	2024-11-08T19:00:00	1	Precipitación	0
96968	7	Sololá	704	Santa Lucía Utatlán 	7	Santa Rita 	5	Mayo	2023-05-31T00:00:00	2024-11-08T19:00:00	8	Radiación solar	0
96969	7	Sololá	704	Santa Lucía Utatlán 	7	Santa Rita 	5	Mayo	2023-05-31T00:00:00	2024-11-08T20:00:00	2	Temperatura media	18.7
96970	7	Sololá	704	Santa Lucía Utatlán 	7	Santa Rita 	5	Mayo	2023-05-31T00:00:00	2024-11-08T20:00:00	4	Temperatura máxima	19.2
96971	7	Sololá	704	Santa Lucía Utatlán 	7	Santa Rita 	5	Mayo	2023-05-31T00:00:00	2024-11-08T20:00:00	3	Temperatura mínima	18.7
96972	7	Sololá	704	Santa Lucía Utatlán 	7	Santa Rita 	5	Mayo	2023-05-31T00:00:00	2024-11-08T20:00:00	5	Humedad	95
96973	7	Sololá	704	Santa Lucía Utatlán 	7	Santa Rita 	5	Mayo	2023-05-31T00:00:00	2024-11-08T20:00:00	6	Velocidad del viento	3.2
96974	7	Sololá	704	Santa Lucía Utatlán 	7	Santa Rita 	5	Mayo	2023-05-31T00:00:00	2024-11-08T20:00:00	7	Dirección del viento	3.22
96975	7	Sololá	704	Santa Lucía Utatlán 	7	Santa Rita 	5	Mayo	2023-05-31T00:00:00	2024-11-08T20:00:00	1	Precipitación	0
96976	7	Sololá	704	Santa Lucía Utatlán 	7	Santa Rita 	5	Mayo	2023-05-31T00:00:00	2024-11-08T20:00:00	8	Radiación solar	0
96977	7	Sololá	704	Santa Lucía Utatlán 	7	Santa Rita 	5	Mayo	2023-05-31T00:00:00	2024-11-08T21:00:00	2	Temperatura media	19
96978	7	Sololá	704	Santa Lucía Utatlán 	7	Santa Rita 	5	Mayo	2023-05-31T00:00:00	2024-11-08T21:00:00	4	Temperatura máxima	19
96979	7	Sololá	704	Santa Lucía Utatlán 	7	Santa Rita 	5	Mayo	2023-05-31T00:00:00	2024-11-08T21:00:00	3	Temperatura mínima	18.7
96980	7	Sololá	704	Santa Lucía Utatlán 	7	Santa Rita 	5	Mayo	2023-05-31T00:00:00	2024-11-08T21:00:00	5	Humedad	95
96981	7	Sololá	704	Santa Lucía Utatlán 	7	Santa Rita 	5	Mayo	2023-05-31T00:00:00	2024-11-08T21:00:00	6	Velocidad del viento	1.6
96982	7	Sololá	704	Santa Lucía Utatlán 	7	Santa Rita 	5	Mayo	2023-05-31T00:00:00	2024-11-08T21:00:00	7	Dirección del viento	1.61
96983	7	Sololá	704	Santa Lucía Utatlán 	7	Santa Rita 	5	Mayo	2023-05-31T00:00:00	2024-11-08T21:00:00	1	Precipitación	0
96984	7	Sololá	704	Santa Lucía Utatlán 	7	Santa Rita 	5	Mayo	2023-05-31T00:00:00	2024-11-08T21:00:00	8	Radiación solar	0
96985	7	Sololá	704	Santa Lucía Utatlán 	7	Santa Rita 	5	Mayo	2023-05-31T00:00:00	2024-11-08T22:00:00	2	Temperatura media	19.1
96986	7	Sololá	704	Santa Lucía Utatlán 	7	Santa Rita 	5	Mayo	2023-05-31T00:00:00	2024-11-08T22:00:00	4	Temperatura máxima	19.1
96987	7	Sololá	704	Santa Lucía Utatlán 	7	Santa Rita 	5	Mayo	2023-05-31T00:00:00	2024-11-08T22:00:00	3	Temperatura mínima	18.8
96988	7	Sololá	704	Santa Lucía Utatlán 	7	Santa Rita 	5	Mayo	2023-05-31T00:00:00	2024-11-08T22:00:00	5	Humedad	96
96989	7	Sololá	704	Santa Lucía Utatlán 	7	Santa Rita 	5	Mayo	2023-05-31T00:00:00	2024-11-08T22:00:00	6	Velocidad del viento	0
96990	7	Sololá	704	Santa Lucía Utatlán 	7	Santa Rita 	5	Mayo	2023-05-31T00:00:00	2024-11-08T22:00:00	7	Dirección del viento	0
96991	7	Sololá	704	Santa Lucía Utatlán 	7	Santa Rita 	5	Mayo	2023-05-31T00:00:00	2024-11-08T22:00:00	1	Precipitación	0.2
96992	7	Sololá	704	Santa Lucía Utatlán 	7	Santa Rita 	5	Mayo	2023-05-31T00:00:00	2024-11-08T22:00:00	8	Radiación solar	0
96993	7	Sololá	704	Santa Lucía Utatlán 	7	Santa Rita 	5	Mayo	2023-05-31T00:00:00	2024-11-08T23:00:00	2	Temperatura media	18.7
96994	7	Sololá	704	Santa Lucía Utatlán 	7	Santa Rita 	5	Mayo	2023-05-31T00:00:00	2024-11-08T23:00:00	4	Temperatura máxima	19.3
96995	7	Sololá	704	Santa Lucía Utatlán 	7	Santa Rita 	5	Mayo	2023-05-31T00:00:00	2024-11-08T23:00:00	3	Temperatura mínima	18.7
96996	7	Sololá	704	Santa Lucía Utatlán 	7	Santa Rita 	5	Mayo	2023-05-31T00:00:00	2024-11-08T23:00:00	5	Humedad	92
96997	7	Sololá	704	Santa Lucía Utatlán 	7	Santa Rita 	5	Mayo	2023-05-31T00:00:00	2024-11-08T23:00:00	6	Velocidad del viento	1.6
96998	7	Sololá	704	Santa Lucía Utatlán 	7	Santa Rita 	5	Mayo	2023-05-31T00:00:00	2024-11-08T23:00:00	7	Dirección del viento	1.61
96999	7	Sololá	704	Santa Lucía Utatlán 	7	Santa Rita 	5	Mayo	2023-05-31T00:00:00	2024-11-08T23:00:00	1	Precipitación	0.4
97000	7	Sololá	704	Santa Lucía Utatlán 	7	Santa Rita 	5	Mayo	2023-05-31T00:00:00	2024-11-08T23:00:00	8	Radiación solar	0
97001	7	Sololá	704	Santa Lucía Utatlán 	7	Santa Rita 	6	Junio	2023-01-06T00:00:00	2024-11-08T00:00:00	2	Temperatura media	18.3
97002	7	Sololá	704	Santa Lucía Utatlán 	7	Santa Rita 	6	Junio	2023-01-06T00:00:00	2024-11-08T00:00:00	4	Temperatura máxima	18.9
97003	7	Sololá	704	Santa Lucía Utatlán 	7	Santa Rita 	6	Junio	2023-01-06T00:00:00	2024-11-08T00:00:00	3	Temperatura mínima	18.3
97004	7	Sololá	704	Santa Lucía Utatlán 	7	Santa Rita 	6	Junio	2023-01-06T00:00:00	2024-11-08T00:00:00	5	Humedad	95
97005	7	Sololá	704	Santa Lucía Utatlán 	7	Santa Rita 	6	Junio	2023-01-06T00:00:00	2024-11-08T00:00:00	6	Velocidad del viento	1.6
97006	7	Sololá	704	Santa Lucía Utatlán 	7	Santa Rita 	6	Junio	2023-01-06T00:00:00	2024-11-08T00:00:00	7	Dirección del viento	1.61
97007	7	Sololá	704	Santa Lucía Utatlán 	7	Santa Rita 	6	Junio	2023-01-06T00:00:00	2024-11-08T00:00:00	1	Precipitación	0
97008	7	Sololá	704	Santa Lucía Utatlán 	7	Santa Rita 	6	Junio	2023-01-06T00:00:00	2024-11-08T00:00:00	8	Radiación solar	0
97009	7	Sololá	704	Santa Lucía Utatlán 	7	Santa Rita 	6	Junio	2023-01-06T00:00:00	2024-11-08T01:00:00	2	Temperatura media	17.8
97010	7	Sololá	704	Santa Lucía Utatlán 	7	Santa Rita 	6	Junio	2023-01-06T00:00:00	2024-11-08T01:00:00	4	Temperatura máxima	18.3
97011	7	Sololá	704	Santa Lucía Utatlán 	7	Santa Rita 	6	Junio	2023-01-06T00:00:00	2024-11-08T01:00:00	3	Temperatura mínima	17.8
97012	7	Sololá	704	Santa Lucía Utatlán 	7	Santa Rita 	6	Junio	2023-01-06T00:00:00	2024-11-08T01:00:00	5	Humedad	95
97013	7	Sololá	704	Santa Lucía Utatlán 	7	Santa Rita 	6	Junio	2023-01-06T00:00:00	2024-11-08T01:00:00	6	Velocidad del viento	1.6
97014	7	Sololá	704	Santa Lucía Utatlán 	7	Santa Rita 	6	Junio	2023-01-06T00:00:00	2024-11-08T01:00:00	7	Dirección del viento	1.61
97015	7	Sololá	704	Santa Lucía Utatlán 	7	Santa Rita 	6	Junio	2023-01-06T00:00:00	2024-11-08T01:00:00	1	Precipitación	0
97016	7	Sololá	704	Santa Lucía Utatlán 	7	Santa Rita 	6	Junio	2023-01-06T00:00:00	2024-11-08T01:00:00	8	Radiación solar	0
97017	7	Sololá	704	Santa Lucía Utatlán 	7	Santa Rita 	6	Junio	2023-01-06T00:00:00	2024-11-08T02:00:00	2	Temperatura media	17.4
97018	7	Sololá	704	Santa Lucía Utatlán 	7	Santa Rita 	6	Junio	2023-01-06T00:00:00	2024-11-08T02:00:00	4	Temperatura máxima	17.8
97019	7	Sololá	704	Santa Lucía Utatlán 	7	Santa Rita 	6	Junio	2023-01-06T00:00:00	2024-11-08T02:00:00	3	Temperatura mínima	17.3
97020	7	Sololá	704	Santa Lucía Utatlán 	7	Santa Rita 	6	Junio	2023-01-06T00:00:00	2024-11-08T02:00:00	5	Humedad	95
97021	7	Sololá	704	Santa Lucía Utatlán 	7	Santa Rita 	6	Junio	2023-01-06T00:00:00	2024-11-08T02:00:00	6	Velocidad del viento	3.2
97022	7	Sololá	704	Santa Lucía Utatlán 	7	Santa Rita 	6	Junio	2023-01-06T00:00:00	2024-11-08T02:00:00	7	Dirección del viento	3.22
97023	7	Sololá	704	Santa Lucía Utatlán 	7	Santa Rita 	6	Junio	2023-01-06T00:00:00	2024-11-08T02:00:00	1	Precipitación	0
97024	7	Sololá	704	Santa Lucía Utatlán 	7	Santa Rita 	6	Junio	2023-01-06T00:00:00	2024-11-08T02:00:00	8	Radiación solar	0
97025	7	Sololá	704	Santa Lucía Utatlán 	7	Santa Rita 	6	Junio	2023-01-06T00:00:00	2024-11-08T03:00:00	2	Temperatura media	17.2
97026	7	Sololá	704	Santa Lucía Utatlán 	7	Santa Rita 	6	Junio	2023-01-06T00:00:00	2024-11-08T03:00:00	4	Temperatura máxima	17.4
97027	7	Sololá	704	Santa Lucía Utatlán 	7	Santa Rita 	6	Junio	2023-01-06T00:00:00	2024-11-08T03:00:00	3	Temperatura mínima	17.1
97028	7	Sololá	704	Santa Lucía Utatlán 	7	Santa Rita 	6	Junio	2023-01-06T00:00:00	2024-11-08T03:00:00	5	Humedad	93
97029	7	Sololá	704	Santa Lucía Utatlán 	7	Santa Rita 	6	Junio	2023-01-06T00:00:00	2024-11-08T03:00:00	6	Velocidad del viento	3.2
97030	7	Sololá	704	Santa Lucía Utatlán 	7	Santa Rita 	6	Junio	2023-01-06T00:00:00	2024-11-08T03:00:00	7	Dirección del viento	3.22
97031	7	Sololá	704	Santa Lucía Utatlán 	7	Santa Rita 	6	Junio	2023-01-06T00:00:00	2024-11-08T03:00:00	1	Precipitación	0
97032	7	Sololá	704	Santa Lucía Utatlán 	7	Santa Rita 	6	Junio	2023-01-06T00:00:00	2024-11-08T03:00:00	8	Radiación solar	0
97033	7	Sololá	704	Santa Lucía Utatlán 	7	Santa Rita 	6	Junio	2023-01-06T00:00:00	2024-11-08T04:00:00	2	Temperatura media	16.9
97034	7	Sololá	704	Santa Lucía Utatlán 	7	Santa Rita 	6	Junio	2023-01-06T00:00:00	2024-11-08T04:00:00	4	Temperatura máxima	17.2
97035	7	Sololá	704	Santa Lucía Utatlán 	7	Santa Rita 	6	Junio	2023-01-06T00:00:00	2024-11-08T04:00:00	3	Temperatura mínima	16.8
97036	7	Sololá	704	Santa Lucía Utatlán 	7	Santa Rita 	6	Junio	2023-01-06T00:00:00	2024-11-08T04:00:00	5	Humedad	93
97037	7	Sololá	704	Santa Lucía Utatlán 	7	Santa Rita 	6	Junio	2023-01-06T00:00:00	2024-11-08T04:00:00	6	Velocidad del viento	3.2
97038	7	Sololá	704	Santa Lucía Utatlán 	7	Santa Rita 	6	Junio	2023-01-06T00:00:00	2024-11-08T04:00:00	7	Dirección del viento	3.22
97039	7	Sololá	704	Santa Lucía Utatlán 	7	Santa Rita 	6	Junio	2023-01-06T00:00:00	2024-11-08T04:00:00	1	Precipitación	0
97040	7	Sololá	704	Santa Lucía Utatlán 	7	Santa Rita 	6	Junio	2023-01-06T00:00:00	2024-11-08T04:00:00	8	Radiación solar	0
97041	7	Sololá	704	Santa Lucía Utatlán 	7	Santa Rita 	6	Junio	2023-01-06T00:00:00	2024-11-08T05:00:00	2	Temperatura media	16.8
97042	7	Sololá	704	Santa Lucía Utatlán 	7	Santa Rita 	6	Junio	2023-01-06T00:00:00	2024-11-08T05:00:00	4	Temperatura máxima	17.1
97043	7	Sololá	704	Santa Lucía Utatlán 	7	Santa Rita 	6	Junio	2023-01-06T00:00:00	2024-11-08T05:00:00	3	Temperatura mínima	16.7
97044	7	Sololá	704	Santa Lucía Utatlán 	7	Santa Rita 	6	Junio	2023-01-06T00:00:00	2024-11-08T05:00:00	5	Humedad	92
97045	7	Sololá	704	Santa Lucía Utatlán 	7	Santa Rita 	6	Junio	2023-01-06T00:00:00	2024-11-08T05:00:00	6	Velocidad del viento	4.8
97046	7	Sololá	704	Santa Lucía Utatlán 	7	Santa Rita 	6	Junio	2023-01-06T00:00:00	2024-11-08T05:00:00	7	Dirección del viento	4.83
97047	7	Sololá	704	Santa Lucía Utatlán 	7	Santa Rita 	6	Junio	2023-01-06T00:00:00	2024-11-08T05:00:00	1	Precipitación	0
97048	7	Sololá	704	Santa Lucía Utatlán 	7	Santa Rita 	6	Junio	2023-01-06T00:00:00	2024-11-08T05:00:00	8	Radiación solar	0
97049	7	Sololá	704	Santa Lucía Utatlán 	7	Santa Rita 	6	Junio	2023-01-06T00:00:00	2024-11-08T06:00:00	2	Temperatura media	16.3
97050	7	Sololá	704	Santa Lucía Utatlán 	7	Santa Rita 	6	Junio	2023-01-06T00:00:00	2024-11-08T06:00:00	4	Temperatura máxima	16.9
97051	7	Sololá	704	Santa Lucía Utatlán 	7	Santa Rita 	6	Junio	2023-01-06T00:00:00	2024-11-08T06:00:00	3	Temperatura mínima	16.2
97052	7	Sololá	704	Santa Lucía Utatlán 	7	Santa Rita 	6	Junio	2023-01-06T00:00:00	2024-11-08T06:00:00	5	Humedad	93
97053	7	Sololá	704	Santa Lucía Utatlán 	7	Santa Rita 	6	Junio	2023-01-06T00:00:00	2024-11-08T06:00:00	6	Velocidad del viento	1.6
97054	7	Sololá	704	Santa Lucía Utatlán 	7	Santa Rita 	6	Junio	2023-01-06T00:00:00	2024-11-08T06:00:00	7	Dirección del viento	1.61
97055	7	Sololá	704	Santa Lucía Utatlán 	7	Santa Rita 	6	Junio	2023-01-06T00:00:00	2024-11-08T06:00:00	1	Precipitación	0
97056	7	Sololá	704	Santa Lucía Utatlán 	7	Santa Rita 	6	Junio	2023-01-06T00:00:00	2024-11-08T06:00:00	8	Radiación solar	11
97057	7	Sololá	704	Santa Lucía Utatlán 	7	Santa Rita 	6	Junio	2023-01-06T00:00:00	2024-11-08T07:00:00	2	Temperatura media	17.9
97058	7	Sololá	704	Santa Lucía Utatlán 	7	Santa Rita 	6	Junio	2023-01-06T00:00:00	2024-11-08T07:00:00	4	Temperatura máxima	17.9
97059	7	Sololá	704	Santa Lucía Utatlán 	7	Santa Rita 	6	Junio	2023-01-06T00:00:00	2024-11-08T07:00:00	3	Temperatura mínima	16.3
97060	7	Sololá	704	Santa Lucía Utatlán 	7	Santa Rita 	6	Junio	2023-01-06T00:00:00	2024-11-08T07:00:00	5	Humedad	92
97061	7	Sololá	704	Santa Lucía Utatlán 	7	Santa Rita 	6	Junio	2023-01-06T00:00:00	2024-11-08T07:00:00	6	Velocidad del viento	1.6
97062	7	Sololá	704	Santa Lucía Utatlán 	7	Santa Rita 	6	Junio	2023-01-06T00:00:00	2024-11-08T07:00:00	7	Dirección del viento	1.61
97063	7	Sololá	704	Santa Lucía Utatlán 	7	Santa Rita 	6	Junio	2023-01-06T00:00:00	2024-11-08T07:00:00	1	Precipitación	0
97064	7	Sololá	704	Santa Lucía Utatlán 	7	Santa Rita 	6	Junio	2023-01-06T00:00:00	2024-11-08T07:00:00	8	Radiación solar	83
97065	7	Sololá	704	Santa Lucía Utatlán 	7	Santa Rita 	6	Junio	2023-01-06T00:00:00	2024-11-08T08:00:00	2	Temperatura media	20.7
97066	7	Sololá	704	Santa Lucía Utatlán 	7	Santa Rita 	6	Junio	2023-01-06T00:00:00	2024-11-08T08:00:00	4	Temperatura máxima	20.7
97067	7	Sololá	704	Santa Lucía Utatlán 	7	Santa Rita 	6	Junio	2023-01-06T00:00:00	2024-11-08T08:00:00	3	Temperatura mínima	17.9
97068	7	Sololá	704	Santa Lucía Utatlán 	7	Santa Rita 	6	Junio	2023-01-06T00:00:00	2024-11-08T08:00:00	5	Humedad	82
97069	7	Sololá	704	Santa Lucía Utatlán 	7	Santa Rita 	6	Junio	2023-01-06T00:00:00	2024-11-08T08:00:00	6	Velocidad del viento	1.6
97070	7	Sololá	704	Santa Lucía Utatlán 	7	Santa Rita 	6	Junio	2023-01-06T00:00:00	2024-11-08T08:00:00	7	Dirección del viento	1.61
97071	7	Sololá	704	Santa Lucía Utatlán 	7	Santa Rita 	6	Junio	2023-01-06T00:00:00	2024-11-08T08:00:00	1	Precipitación	0
97072	7	Sololá	704	Santa Lucía Utatlán 	7	Santa Rita 	6	Junio	2023-01-06T00:00:00	2024-11-08T08:00:00	8	Radiación solar	357
97073	7	Sololá	704	Santa Lucía Utatlán 	7	Santa Rita 	6	Junio	2023-01-06T00:00:00	2024-11-08T09:00:00	2	Temperatura media	22.9
97074	7	Sololá	704	Santa Lucía Utatlán 	7	Santa Rita 	6	Junio	2023-01-06T00:00:00	2024-11-08T09:00:00	4	Temperatura máxima	22.9
97075	7	Sololá	704	Santa Lucía Utatlán 	7	Santa Rita 	6	Junio	2023-01-06T00:00:00	2024-11-08T09:00:00	3	Temperatura mínima	20.7
97076	7	Sololá	704	Santa Lucía Utatlán 	7	Santa Rita 	6	Junio	2023-01-06T00:00:00	2024-11-08T09:00:00	5	Humedad	77
97077	7	Sololá	704	Santa Lucía Utatlán 	7	Santa Rita 	6	Junio	2023-01-06T00:00:00	2024-11-08T09:00:00	6	Velocidad del viento	3.2
97078	7	Sololá	704	Santa Lucía Utatlán 	7	Santa Rita 	6	Junio	2023-01-06T00:00:00	2024-11-08T09:00:00	7	Dirección del viento	3.22
97079	7	Sololá	704	Santa Lucía Utatlán 	7	Santa Rita 	6	Junio	2023-01-06T00:00:00	2024-11-08T09:00:00	1	Precipitación	0
97080	7	Sololá	704	Santa Lucía Utatlán 	7	Santa Rita 	6	Junio	2023-01-06T00:00:00	2024-11-08T09:00:00	8	Radiación solar	624
97081	7	Sololá	704	Santa Lucía Utatlán 	7	Santa Rita 	6	Junio	2023-01-06T00:00:00	2024-11-08T10:00:00	2	Temperatura media	22.6
97082	7	Sololá	704	Santa Lucía Utatlán 	7	Santa Rita 	6	Junio	2023-01-06T00:00:00	2024-11-08T10:00:00	4	Temperatura máxima	23.3
97083	7	Sololá	704	Santa Lucía Utatlán 	7	Santa Rita 	6	Junio	2023-01-06T00:00:00	2024-11-08T10:00:00	3	Temperatura mínima	22.6
97084	7	Sololá	704	Santa Lucía Utatlán 	7	Santa Rita 	6	Junio	2023-01-06T00:00:00	2024-11-08T10:00:00	5	Humedad	81
97085	7	Sololá	704	Santa Lucía Utatlán 	7	Santa Rita 	6	Junio	2023-01-06T00:00:00	2024-11-08T10:00:00	6	Velocidad del viento	4.8
97086	7	Sololá	704	Santa Lucía Utatlán 	7	Santa Rita 	6	Junio	2023-01-06T00:00:00	2024-11-08T10:00:00	7	Dirección del viento	4.83
97087	7	Sololá	704	Santa Lucía Utatlán 	7	Santa Rita 	6	Junio	2023-01-06T00:00:00	2024-11-08T10:00:00	1	Precipitación	0
97088	7	Sololá	704	Santa Lucía Utatlán 	7	Santa Rita 	6	Junio	2023-01-06T00:00:00	2024-11-08T10:00:00	8	Radiación solar	494
97089	7	Sololá	704	Santa Lucía Utatlán 	7	Santa Rita 	6	Junio	2023-01-06T00:00:00	2024-11-08T11:00:00	2	Temperatura media	23.7
97090	7	Sololá	704	Santa Lucía Utatlán 	7	Santa Rita 	6	Junio	2023-01-06T00:00:00	2024-11-08T11:00:00	4	Temperatura máxima	24.8
97091	7	Sololá	704	Santa Lucía Utatlán 	7	Santa Rita 	6	Junio	2023-01-06T00:00:00	2024-11-08T11:00:00	3	Temperatura mínima	22.6
97092	7	Sololá	704	Santa Lucía Utatlán 	7	Santa Rita 	6	Junio	2023-01-06T00:00:00	2024-11-08T11:00:00	5	Humedad	77
97093	7	Sololá	704	Santa Lucía Utatlán 	7	Santa Rita 	6	Junio	2023-01-06T00:00:00	2024-11-08T11:00:00	6	Velocidad del viento	3.2
97094	7	Sololá	704	Santa Lucía Utatlán 	7	Santa Rita 	6	Junio	2023-01-06T00:00:00	2024-11-08T11:00:00	7	Dirección del viento	3.22
97095	7	Sololá	704	Santa Lucía Utatlán 	7	Santa Rita 	6	Junio	2023-01-06T00:00:00	2024-11-08T11:00:00	1	Precipitación	0
97096	7	Sololá	704	Santa Lucía Utatlán 	7	Santa Rita 	6	Junio	2023-01-06T00:00:00	2024-11-08T11:00:00	8	Radiación solar	530
97097	7	Sololá	704	Santa Lucía Utatlán 	7	Santa Rita 	6	Junio	2023-01-06T00:00:00	2024-11-08T12:00:00	2	Temperatura media	24.6
97098	7	Sololá	704	Santa Lucía Utatlán 	7	Santa Rita 	6	Junio	2023-01-06T00:00:00	2024-11-08T12:00:00	4	Temperatura máxima	24.6
97099	7	Sololá	704	Santa Lucía Utatlán 	7	Santa Rita 	6	Junio	2023-01-06T00:00:00	2024-11-08T12:00:00	3	Temperatura mínima	23.5
97100	7	Sololá	704	Santa Lucía Utatlán 	7	Santa Rita 	6	Junio	2023-01-06T00:00:00	2024-11-08T12:00:00	5	Humedad	73
97101	7	Sololá	704	Santa Lucía Utatlán 	7	Santa Rita 	6	Junio	2023-01-06T00:00:00	2024-11-08T12:00:00	6	Velocidad del viento	4.8
97102	7	Sololá	704	Santa Lucía Utatlán 	7	Santa Rita 	6	Junio	2023-01-06T00:00:00	2024-11-08T12:00:00	7	Dirección del viento	4.83
97103	7	Sololá	704	Santa Lucía Utatlán 	7	Santa Rita 	6	Junio	2023-01-06T00:00:00	2024-11-08T12:00:00	1	Precipitación	0
97104	7	Sololá	704	Santa Lucía Utatlán 	7	Santa Rita 	6	Junio	2023-01-06T00:00:00	2024-11-08T12:00:00	8	Radiación solar	652
97105	7	Sololá	704	Santa Lucía Utatlán 	7	Santa Rita 	6	Junio	2023-01-06T00:00:00	2024-11-08T13:00:00	2	Temperatura media	22.6
97106	7	Sololá	704	Santa Lucía Utatlán 	7	Santa Rita 	6	Junio	2023-01-06T00:00:00	2024-11-08T13:00:00	4	Temperatura máxima	25.1
97107	7	Sololá	704	Santa Lucía Utatlán 	7	Santa Rita 	6	Junio	2023-01-06T00:00:00	2024-11-08T13:00:00	3	Temperatura mínima	22.6
97108	7	Sololá	704	Santa Lucía Utatlán 	7	Santa Rita 	6	Junio	2023-01-06T00:00:00	2024-11-08T13:00:00	5	Humedad	85
97109	7	Sololá	704	Santa Lucía Utatlán 	7	Santa Rita 	6	Junio	2023-01-06T00:00:00	2024-11-08T13:00:00	6	Velocidad del viento	6.4
97110	7	Sololá	704	Santa Lucía Utatlán 	7	Santa Rita 	6	Junio	2023-01-06T00:00:00	2024-11-08T13:00:00	7	Dirección del viento	6.44
97111	7	Sololá	704	Santa Lucía Utatlán 	7	Santa Rita 	6	Junio	2023-01-06T00:00:00	2024-11-08T13:00:00	1	Precipitación	0
97112	7	Sololá	704	Santa Lucía Utatlán 	7	Santa Rita 	6	Junio	2023-01-06T00:00:00	2024-11-08T13:00:00	8	Radiación solar	300
97113	7	Sololá	704	Santa Lucía Utatlán 	7	Santa Rita 	6	Junio	2023-01-06T00:00:00	2024-11-08T14:00:00	2	Temperatura media	23.3
97114	7	Sololá	704	Santa Lucía Utatlán 	7	Santa Rita 	6	Junio	2023-01-06T00:00:00	2024-11-08T14:00:00	4	Temperatura máxima	24.1
97115	7	Sololá	704	Santa Lucía Utatlán 	7	Santa Rita 	6	Junio	2023-01-06T00:00:00	2024-11-08T14:00:00	3	Temperatura mínima	22.6
97116	7	Sololá	704	Santa Lucía Utatlán 	7	Santa Rita 	6	Junio	2023-01-06T00:00:00	2024-11-08T14:00:00	5	Humedad	83
97117	7	Sololá	704	Santa Lucía Utatlán 	7	Santa Rita 	6	Junio	2023-01-06T00:00:00	2024-11-08T14:00:00	6	Velocidad del viento	4.8
97118	7	Sololá	704	Santa Lucía Utatlán 	7	Santa Rita 	6	Junio	2023-01-06T00:00:00	2024-11-08T14:00:00	7	Dirección del viento	4.83
97119	7	Sololá	704	Santa Lucía Utatlán 	7	Santa Rita 	6	Junio	2023-01-06T00:00:00	2024-11-08T14:00:00	1	Precipitación	0
97120	7	Sololá	704	Santa Lucía Utatlán 	7	Santa Rita 	6	Junio	2023-01-06T00:00:00	2024-11-08T14:00:00	8	Radiación solar	386
97121	7	Sololá	704	Santa Lucía Utatlán 	7	Santa Rita 	6	Junio	2023-01-06T00:00:00	2024-11-08T15:00:00	2	Temperatura media	23.2
97122	7	Sololá	704	Santa Lucía Utatlán 	7	Santa Rita 	6	Junio	2023-01-06T00:00:00	2024-11-08T15:00:00	4	Temperatura máxima	23.8
97123	7	Sololá	704	Santa Lucía Utatlán 	7	Santa Rita 	6	Junio	2023-01-06T00:00:00	2024-11-08T15:00:00	3	Temperatura mínima	22.8
97124	7	Sololá	704	Santa Lucía Utatlán 	7	Santa Rita 	6	Junio	2023-01-06T00:00:00	2024-11-08T15:00:00	5	Humedad	86
97125	7	Sololá	704	Santa Lucía Utatlán 	7	Santa Rita 	6	Junio	2023-01-06T00:00:00	2024-11-08T15:00:00	6	Velocidad del viento	3.2
97126	7	Sololá	704	Santa Lucía Utatlán 	7	Santa Rita 	6	Junio	2023-01-06T00:00:00	2024-11-08T15:00:00	7	Dirección del viento	3.22
97127	7	Sololá	704	Santa Lucía Utatlán 	7	Santa Rita 	6	Junio	2023-01-06T00:00:00	2024-11-08T15:00:00	1	Precipitación	0
97128	7	Sololá	704	Santa Lucía Utatlán 	7	Santa Rita 	6	Junio	2023-01-06T00:00:00	2024-11-08T15:00:00	8	Radiación solar	211
97129	7	Sololá	704	Santa Lucía Utatlán 	7	Santa Rita 	6	Junio	2023-01-06T00:00:00	2024-11-08T16:00:00	2	Temperatura media	23.1
97130	7	Sololá	704	Santa Lucía Utatlán 	7	Santa Rita 	6	Junio	2023-01-06T00:00:00	2024-11-08T16:00:00	4	Temperatura máxima	23.4
97131	7	Sololá	704	Santa Lucía Utatlán 	7	Santa Rita 	6	Junio	2023-01-06T00:00:00	2024-11-08T16:00:00	3	Temperatura mínima	22.9
97132	7	Sololá	704	Santa Lucía Utatlán 	7	Santa Rita 	6	Junio	2023-01-06T00:00:00	2024-11-08T16:00:00	5	Humedad	86
97133	7	Sololá	704	Santa Lucía Utatlán 	7	Santa Rita 	6	Junio	2023-01-06T00:00:00	2024-11-08T16:00:00	6	Velocidad del viento	3.2
97134	7	Sololá	704	Santa Lucía Utatlán 	7	Santa Rita 	6	Junio	2023-01-06T00:00:00	2024-11-08T16:00:00	7	Dirección del viento	3.22
97135	7	Sololá	704	Santa Lucía Utatlán 	7	Santa Rita 	6	Junio	2023-01-06T00:00:00	2024-11-08T16:00:00	1	Precipitación	0
97136	7	Sololá	704	Santa Lucía Utatlán 	7	Santa Rita 	6	Junio	2023-01-06T00:00:00	2024-11-08T16:00:00	8	Radiación solar	166
97137	7	Sololá	704	Santa Lucía Utatlán 	7	Santa Rita 	6	Junio	2023-01-06T00:00:00	2024-11-08T17:00:00	2	Temperatura media	22.3
97138	7	Sololá	704	Santa Lucía Utatlán 	7	Santa Rita 	6	Junio	2023-01-06T00:00:00	2024-11-08T17:00:00	4	Temperatura máxima	23.1
97139	7	Sololá	704	Santa Lucía Utatlán 	7	Santa Rita 	6	Junio	2023-01-06T00:00:00	2024-11-08T17:00:00	3	Temperatura mínima	22.2
97140	7	Sololá	704	Santa Lucía Utatlán 	7	Santa Rita 	6	Junio	2023-01-06T00:00:00	2024-11-08T17:00:00	5	Humedad	89
97141	7	Sololá	704	Santa Lucía Utatlán 	7	Santa Rita 	6	Junio	2023-01-06T00:00:00	2024-11-08T17:00:00	6	Velocidad del viento	3.2
97142	7	Sololá	704	Santa Lucía Utatlán 	7	Santa Rita 	6	Junio	2023-01-06T00:00:00	2024-11-08T17:00:00	7	Dirección del viento	3.22
97143	7	Sololá	704	Santa Lucía Utatlán 	7	Santa Rita 	6	Junio	2023-01-06T00:00:00	2024-11-08T17:00:00	1	Precipitación	0
97144	7	Sololá	704	Santa Lucía Utatlán 	7	Santa Rita 	6	Junio	2023-01-06T00:00:00	2024-11-08T17:00:00	8	Radiación solar	85
97145	7	Sololá	704	Santa Lucía Utatlán 	7	Santa Rita 	6	Junio	2023-01-06T00:00:00	2024-11-08T18:00:00	2	Temperatura media	21.8
97146	7	Sololá	704	Santa Lucía Utatlán 	7	Santa Rita 	6	Junio	2023-01-06T00:00:00	2024-11-08T18:00:00	4	Temperatura máxima	22.3
97147	7	Sololá	704	Santa Lucía Utatlán 	7	Santa Rita 	6	Junio	2023-01-06T00:00:00	2024-11-08T18:00:00	3	Temperatura mínima	21.8
97148	7	Sololá	704	Santa Lucía Utatlán 	7	Santa Rita 	6	Junio	2023-01-06T00:00:00	2024-11-08T18:00:00	5	Humedad	92
97149	7	Sololá	704	Santa Lucía Utatlán 	7	Santa Rita 	6	Junio	2023-01-06T00:00:00	2024-11-08T18:00:00	6	Velocidad del viento	3.2
97150	7	Sololá	704	Santa Lucía Utatlán 	7	Santa Rita 	6	Junio	2023-01-06T00:00:00	2024-11-08T18:00:00	7	Dirección del viento	3.22
97151	7	Sololá	704	Santa Lucía Utatlán 	7	Santa Rita 	6	Junio	2023-01-06T00:00:00	2024-11-08T18:00:00	1	Precipitación	0
97152	7	Sololá	704	Santa Lucía Utatlán 	7	Santa Rita 	6	Junio	2023-01-06T00:00:00	2024-11-08T18:00:00	8	Radiación solar	58
97153	7	Sololá	704	Santa Lucía Utatlán 	7	Santa Rita 	6	Junio	2023-01-06T00:00:00	2024-11-08T19:00:00	2	Temperatura media	21.2
97154	7	Sololá	704	Santa Lucía Utatlán 	7	Santa Rita 	6	Junio	2023-01-06T00:00:00	2024-11-08T19:00:00	4	Temperatura máxima	21.8
97155	7	Sololá	704	Santa Lucía Utatlán 	7	Santa Rita 	6	Junio	2023-01-06T00:00:00	2024-11-08T19:00:00	3	Temperatura mínima	21.2
97156	7	Sololá	704	Santa Lucía Utatlán 	7	Santa Rita 	6	Junio	2023-01-06T00:00:00	2024-11-08T19:00:00	5	Humedad	93
97157	7	Sololá	704	Santa Lucía Utatlán 	7	Santa Rita 	6	Junio	2023-01-06T00:00:00	2024-11-08T19:00:00	6	Velocidad del viento	1.6
97158	7	Sololá	704	Santa Lucía Utatlán 	7	Santa Rita 	6	Junio	2023-01-06T00:00:00	2024-11-08T19:00:00	7	Dirección del viento	1.61
97159	7	Sololá	704	Santa Lucía Utatlán 	7	Santa Rita 	6	Junio	2023-01-06T00:00:00	2024-11-08T19:00:00	1	Precipitación	0
97160	7	Sololá	704	Santa Lucía Utatlán 	7	Santa Rita 	6	Junio	2023-01-06T00:00:00	2024-11-08T19:00:00	8	Radiación solar	0
97161	7	Sololá	704	Santa Lucía Utatlán 	7	Santa Rita 	6	Junio	2023-01-06T00:00:00	2024-11-08T20:00:00	2	Temperatura media	20.9
97162	7	Sololá	704	Santa Lucía Utatlán 	7	Santa Rita 	6	Junio	2023-01-06T00:00:00	2024-11-08T20:00:00	4	Temperatura máxima	21.2
97163	7	Sololá	704	Santa Lucía Utatlán 	7	Santa Rita 	6	Junio	2023-01-06T00:00:00	2024-11-08T20:00:00	3	Temperatura mínima	20.9
97164	7	Sololá	704	Santa Lucía Utatlán 	7	Santa Rita 	6	Junio	2023-01-06T00:00:00	2024-11-08T20:00:00	5	Humedad	94
97165	7	Sololá	704	Santa Lucía Utatlán 	7	Santa Rita 	6	Junio	2023-01-06T00:00:00	2024-11-08T20:00:00	6	Velocidad del viento	0
97166	7	Sololá	704	Santa Lucía Utatlán 	7	Santa Rita 	6	Junio	2023-01-06T00:00:00	2024-11-08T20:00:00	7	Dirección del viento	0
97167	7	Sololá	704	Santa Lucía Utatlán 	7	Santa Rita 	6	Junio	2023-01-06T00:00:00	2024-11-08T20:00:00	1	Precipitación	0
97168	7	Sololá	704	Santa Lucía Utatlán 	7	Santa Rita 	6	Junio	2023-01-06T00:00:00	2024-11-08T20:00:00	8	Radiación solar	0
97169	7	Sololá	704	Santa Lucía Utatlán 	7	Santa Rita 	6	Junio	2023-01-06T00:00:00	2024-11-08T21:00:00	2	Temperatura media	20.8
97170	7	Sololá	704	Santa Lucía Utatlán 	7	Santa Rita 	6	Junio	2023-01-06T00:00:00	2024-11-08T21:00:00	4	Temperatura máxima	21.5
97171	7	Sololá	704	Santa Lucía Utatlán 	7	Santa Rita 	6	Junio	2023-01-06T00:00:00	2024-11-08T21:00:00	3	Temperatura mínima	20.7
97172	7	Sololá	704	Santa Lucía Utatlán 	7	Santa Rita 	6	Junio	2023-01-06T00:00:00	2024-11-08T21:00:00	5	Humedad	87
97173	7	Sololá	704	Santa Lucía Utatlán 	7	Santa Rita 	6	Junio	2023-01-06T00:00:00	2024-11-08T21:00:00	6	Velocidad del viento	1.6
97174	7	Sololá	704	Santa Lucía Utatlán 	7	Santa Rita 	6	Junio	2023-01-06T00:00:00	2024-11-08T21:00:00	7	Dirección del viento	1.61
97175	7	Sololá	704	Santa Lucía Utatlán 	7	Santa Rita 	6	Junio	2023-01-06T00:00:00	2024-11-08T21:00:00	1	Precipitación	0
97176	7	Sololá	704	Santa Lucía Utatlán 	7	Santa Rita 	6	Junio	2023-01-06T00:00:00	2024-11-08T21:00:00	8	Radiación solar	0
97177	7	Sololá	704	Santa Lucía Utatlán 	7	Santa Rita 	6	Junio	2023-01-06T00:00:00	2024-11-08T22:00:00	2	Temperatura media	19.4
97178	7	Sololá	704	Santa Lucía Utatlán 	7	Santa Rita 	6	Junio	2023-01-06T00:00:00	2024-11-08T22:00:00	4	Temperatura máxima	20.8
97179	7	Sololá	704	Santa Lucía Utatlán 	7	Santa Rita 	6	Junio	2023-01-06T00:00:00	2024-11-08T22:00:00	3	Temperatura mínima	19.4
97180	7	Sololá	704	Santa Lucía Utatlán 	7	Santa Rita 	6	Junio	2023-01-06T00:00:00	2024-11-08T22:00:00	5	Humedad	89
97181	7	Sololá	704	Santa Lucía Utatlán 	7	Santa Rita 	6	Junio	2023-01-06T00:00:00	2024-11-08T22:00:00	6	Velocidad del viento	3.2
97182	7	Sololá	704	Santa Lucía Utatlán 	7	Santa Rita 	6	Junio	2023-01-06T00:00:00	2024-11-08T22:00:00	7	Dirección del viento	3.22
97183	7	Sololá	704	Santa Lucía Utatlán 	7	Santa Rita 	6	Junio	2023-01-06T00:00:00	2024-11-08T22:00:00	1	Precipitación	0
97184	7	Sololá	704	Santa Lucía Utatlán 	7	Santa Rita 	6	Junio	2023-01-06T00:00:00	2024-11-08T22:00:00	8	Radiación solar	0
97185	7	Sololá	704	Santa Lucía Utatlán 	7	Santa Rita 	6	Junio	2023-01-06T00:00:00	2024-11-08T23:00:00	2	Temperatura media	18.6
97186	7	Sololá	704	Santa Lucía Utatlán 	7	Santa Rita 	6	Junio	2023-01-06T00:00:00	2024-11-08T23:00:00	4	Temperatura máxima	19.4
97187	7	Sololá	704	Santa Lucía Utatlán 	7	Santa Rita 	6	Junio	2023-01-06T00:00:00	2024-11-08T23:00:00	3	Temperatura mínima	18.6
97188	7	Sololá	704	Santa Lucía Utatlán 	7	Santa Rita 	6	Junio	2023-01-06T00:00:00	2024-11-08T23:00:00	5	Humedad	90
97189	7	Sololá	704	Santa Lucía Utatlán 	7	Santa Rita 	6	Junio	2023-01-06T00:00:00	2024-11-08T23:00:00	6	Velocidad del viento	3.2
97190	7	Sololá	704	Santa Lucía Utatlán 	7	Santa Rita 	6	Junio	2023-01-06T00:00:00	2024-11-08T23:00:00	7	Dirección del viento	3.22
97191	7	Sololá	704	Santa Lucía Utatlán 	7	Santa Rita 	6	Junio	2023-01-06T00:00:00	2024-11-08T23:00:00	1	Precipitación	0
97192	7	Sololá	704	Santa Lucía Utatlán 	7	Santa Rita 	6	Junio	2023-01-06T00:00:00	2024-11-08T23:00:00	8	Radiación solar	0
97193	7	Sololá	704	Santa Lucía Utatlán 	7	Santa Rita 	6	Junio	2023-02-06T00:00:00	2024-11-08T00:00:00	2	Temperatura media	18.2
97194	7	Sololá	704	Santa Lucía Utatlán 	7	Santa Rita 	6	Junio	2023-02-06T00:00:00	2024-11-08T00:00:00	4	Temperatura máxima	18.6
97195	7	Sololá	704	Santa Lucía Utatlán 	7	Santa Rita 	6	Junio	2023-02-06T00:00:00	2024-11-08T00:00:00	3	Temperatura mínima	18.1
97196	7	Sololá	704	Santa Lucía Utatlán 	7	Santa Rita 	6	Junio	2023-02-06T00:00:00	2024-11-08T00:00:00	5	Humedad	91
97197	7	Sololá	704	Santa Lucía Utatlán 	7	Santa Rita 	6	Junio	2023-02-06T00:00:00	2024-11-08T00:00:00	6	Velocidad del viento	3.2
97198	7	Sololá	704	Santa Lucía Utatlán 	7	Santa Rita 	6	Junio	2023-02-06T00:00:00	2024-11-08T00:00:00	7	Dirección del viento	3.22
97199	7	Sololá	704	Santa Lucía Utatlán 	7	Santa Rita 	6	Junio	2023-02-06T00:00:00	2024-11-08T00:00:00	1	Precipitación	0
97200	7	Sololá	704	Santa Lucía Utatlán 	7	Santa Rita 	6	Junio	2023-02-06T00:00:00	2024-11-08T00:00:00	8	Radiación solar	0
97201	7	Sololá	704	Santa Lucía Utatlán 	7	Santa Rita 	6	Junio	2023-02-06T00:00:00	2024-11-08T01:00:00	2	Temperatura media	17.9
97202	7	Sololá	704	Santa Lucía Utatlán 	7	Santa Rita 	6	Junio	2023-02-06T00:00:00	2024-11-08T01:00:00	4	Temperatura máxima	18.2
97203	7	Sololá	704	Santa Lucía Utatlán 	7	Santa Rita 	6	Junio	2023-02-06T00:00:00	2024-11-08T01:00:00	3	Temperatura mínima	17.8
97204	7	Sololá	704	Santa Lucía Utatlán 	7	Santa Rita 	6	Junio	2023-02-06T00:00:00	2024-11-08T01:00:00	5	Humedad	89
97205	7	Sololá	704	Santa Lucía Utatlán 	7	Santa Rita 	6	Junio	2023-02-06T00:00:00	2024-11-08T01:00:00	6	Velocidad del viento	4.8
97206	7	Sololá	704	Santa Lucía Utatlán 	7	Santa Rita 	6	Junio	2023-02-06T00:00:00	2024-11-08T01:00:00	7	Dirección del viento	4.83
97207	7	Sololá	704	Santa Lucía Utatlán 	7	Santa Rita 	6	Junio	2023-02-06T00:00:00	2024-11-08T01:00:00	1	Precipitación	0
97208	7	Sololá	704	Santa Lucía Utatlán 	7	Santa Rita 	6	Junio	2023-02-06T00:00:00	2024-11-08T01:00:00	8	Radiación solar	0
97209	7	Sololá	704	Santa Lucía Utatlán 	7	Santa Rita 	6	Junio	2023-02-06T00:00:00	2024-11-08T02:00:00	2	Temperatura media	17.6
97210	7	Sololá	704	Santa Lucía Utatlán 	7	Santa Rita 	6	Junio	2023-02-06T00:00:00	2024-11-08T02:00:00	4	Temperatura máxima	18.1
97211	7	Sololá	704	Santa Lucía Utatlán 	7	Santa Rita 	6	Junio	2023-02-06T00:00:00	2024-11-08T02:00:00	3	Temperatura mínima	17.6
97212	7	Sololá	704	Santa Lucía Utatlán 	7	Santa Rita 	6	Junio	2023-02-06T00:00:00	2024-11-08T02:00:00	5	Humedad	89
97213	7	Sololá	704	Santa Lucía Utatlán 	7	Santa Rita 	6	Junio	2023-02-06T00:00:00	2024-11-08T02:00:00	6	Velocidad del viento	3.2
97214	7	Sololá	704	Santa Lucía Utatlán 	7	Santa Rita 	6	Junio	2023-02-06T00:00:00	2024-11-08T02:00:00	7	Dirección del viento	3.22
97215	7	Sololá	704	Santa Lucía Utatlán 	7	Santa Rita 	6	Junio	2023-02-06T00:00:00	2024-11-08T02:00:00	1	Precipitación	0
97216	7	Sololá	704	Santa Lucía Utatlán 	7	Santa Rita 	6	Junio	2023-02-06T00:00:00	2024-11-08T02:00:00	8	Radiación solar	0
97217	7	Sololá	704	Santa Lucía Utatlán 	7	Santa Rita 	6	Junio	2023-02-06T00:00:00	2024-11-08T03:00:00	2	Temperatura media	17.6
97218	7	Sololá	704	Santa Lucía Utatlán 	7	Santa Rita 	6	Junio	2023-02-06T00:00:00	2024-11-08T03:00:00	4	Temperatura máxima	17.7
97219	7	Sololá	704	Santa Lucía Utatlán 	7	Santa Rita 	6	Junio	2023-02-06T00:00:00	2024-11-08T03:00:00	3	Temperatura mínima	17.4
97220	7	Sololá	704	Santa Lucía Utatlán 	7	Santa Rita 	6	Junio	2023-02-06T00:00:00	2024-11-08T03:00:00	5	Humedad	89
97221	7	Sololá	704	Santa Lucía Utatlán 	7	Santa Rita 	6	Junio	2023-02-06T00:00:00	2024-11-08T03:00:00	6	Velocidad del viento	6.4
97222	7	Sololá	704	Santa Lucía Utatlán 	7	Santa Rita 	6	Junio	2023-02-06T00:00:00	2024-11-08T03:00:00	7	Dirección del viento	6.44
97223	7	Sololá	704	Santa Lucía Utatlán 	7	Santa Rita 	6	Junio	2023-02-06T00:00:00	2024-11-08T03:00:00	1	Precipitación	0
97224	7	Sololá	704	Santa Lucía Utatlán 	7	Santa Rita 	6	Junio	2023-02-06T00:00:00	2024-11-08T03:00:00	8	Radiación solar	0
97225	7	Sololá	704	Santa Lucía Utatlán 	7	Santa Rita 	6	Junio	2023-02-06T00:00:00	2024-11-08T04:00:00	2	Temperatura media	17.8
97226	7	Sololá	704	Santa Lucía Utatlán 	7	Santa Rita 	6	Junio	2023-02-06T00:00:00	2024-11-08T04:00:00	4	Temperatura máxima	17.8
97227	7	Sololá	704	Santa Lucía Utatlán 	7	Santa Rita 	6	Junio	2023-02-06T00:00:00	2024-11-08T04:00:00	3	Temperatura mínima	17.5
97228	7	Sololá	704	Santa Lucía Utatlán 	7	Santa Rita 	6	Junio	2023-02-06T00:00:00	2024-11-08T04:00:00	5	Humedad	87
97229	7	Sololá	704	Santa Lucía Utatlán 	7	Santa Rita 	6	Junio	2023-02-06T00:00:00	2024-11-08T04:00:00	6	Velocidad del viento	4.8
97230	7	Sololá	704	Santa Lucía Utatlán 	7	Santa Rita 	6	Junio	2023-02-06T00:00:00	2024-11-08T04:00:00	7	Dirección del viento	4.83
97231	7	Sololá	704	Santa Lucía Utatlán 	7	Santa Rita 	6	Junio	2023-02-06T00:00:00	2024-11-08T04:00:00	1	Precipitación	0
97232	7	Sololá	704	Santa Lucía Utatlán 	7	Santa Rita 	6	Junio	2023-02-06T00:00:00	2024-11-08T04:00:00	8	Radiación solar	0
97233	7	Sololá	704	Santa Lucía Utatlán 	7	Santa Rita 	6	Junio	2023-02-06T00:00:00	2024-11-08T05:00:00	2	Temperatura media	17.2
97234	7	Sololá	704	Santa Lucía Utatlán 	7	Santa Rita 	6	Junio	2023-02-06T00:00:00	2024-11-08T05:00:00	4	Temperatura máxima	17.8
97235	7	Sololá	704	Santa Lucía Utatlán 	7	Santa Rita 	6	Junio	2023-02-06T00:00:00	2024-11-08T05:00:00	3	Temperatura mínima	17.1
97236	7	Sololá	704	Santa Lucía Utatlán 	7	Santa Rita 	6	Junio	2023-02-06T00:00:00	2024-11-08T05:00:00	5	Humedad	89
97237	7	Sololá	704	Santa Lucía Utatlán 	7	Santa Rita 	6	Junio	2023-02-06T00:00:00	2024-11-08T05:00:00	6	Velocidad del viento	4.8
97238	7	Sololá	704	Santa Lucía Utatlán 	7	Santa Rita 	6	Junio	2023-02-06T00:00:00	2024-11-08T05:00:00	7	Dirección del viento	4.83
97239	7	Sololá	704	Santa Lucía Utatlán 	7	Santa Rita 	6	Junio	2023-02-06T00:00:00	2024-11-08T05:00:00	1	Precipitación	0
97240	7	Sololá	704	Santa Lucía Utatlán 	7	Santa Rita 	6	Junio	2023-02-06T00:00:00	2024-11-08T05:00:00	8	Radiación solar	0
97241	7	Sololá	704	Santa Lucía Utatlán 	7	Santa Rita 	6	Junio	2023-02-06T00:00:00	2024-11-08T06:00:00	2	Temperatura media	17.1
97242	7	Sololá	704	Santa Lucía Utatlán 	7	Santa Rita 	6	Junio	2023-02-06T00:00:00	2024-11-08T06:00:00	4	Temperatura máxima	17.4
97243	7	Sololá	704	Santa Lucía Utatlán 	7	Santa Rita 	6	Junio	2023-02-06T00:00:00	2024-11-08T06:00:00	3	Temperatura mínima	17.1
97244	7	Sololá	704	Santa Lucía Utatlán 	7	Santa Rita 	6	Junio	2023-02-06T00:00:00	2024-11-08T06:00:00	5	Humedad	89
97245	7	Sololá	704	Santa Lucía Utatlán 	7	Santa Rita 	6	Junio	2023-02-06T00:00:00	2024-11-08T06:00:00	6	Velocidad del viento	4.8
97246	7	Sololá	704	Santa Lucía Utatlán 	7	Santa Rita 	6	Junio	2023-02-06T00:00:00	2024-11-08T06:00:00	7	Dirección del viento	4.83
97247	7	Sololá	704	Santa Lucía Utatlán 	7	Santa Rita 	6	Junio	2023-02-06T00:00:00	2024-11-08T06:00:00	1	Precipitación	0
97248	7	Sololá	704	Santa Lucía Utatlán 	7	Santa Rita 	6	Junio	2023-02-06T00:00:00	2024-11-08T06:00:00	8	Radiación solar	5
97249	7	Sololá	704	Santa Lucía Utatlán 	7	Santa Rita 	6	Junio	2023-02-06T00:00:00	2024-11-08T07:00:00	2	Temperatura media	19.1
97250	7	Sololá	704	Santa Lucía Utatlán 	7	Santa Rita 	6	Junio	2023-02-06T00:00:00	2024-11-08T07:00:00	4	Temperatura máxima	19.1
97251	7	Sololá	704	Santa Lucía Utatlán 	7	Santa Rita 	6	Junio	2023-02-06T00:00:00	2024-11-08T07:00:00	3	Temperatura mínima	16.9
97252	7	Sololá	704	Santa Lucía Utatlán 	7	Santa Rita 	6	Junio	2023-02-06T00:00:00	2024-11-08T07:00:00	5	Humedad	84
97253	7	Sololá	704	Santa Lucía Utatlán 	7	Santa Rita 	6	Junio	2023-02-06T00:00:00	2024-11-08T07:00:00	6	Velocidad del viento	3.2
97254	7	Sololá	704	Santa Lucía Utatlán 	7	Santa Rita 	6	Junio	2023-02-06T00:00:00	2024-11-08T07:00:00	7	Dirección del viento	3.22
97255	7	Sololá	704	Santa Lucía Utatlán 	7	Santa Rita 	6	Junio	2023-02-06T00:00:00	2024-11-08T07:00:00	1	Precipitación	0
97256	7	Sololá	704	Santa Lucía Utatlán 	7	Santa Rita 	6	Junio	2023-02-06T00:00:00	2024-11-08T07:00:00	8	Radiación solar	83
97257	7	Sololá	704	Santa Lucía Utatlán 	7	Santa Rita 	6	Junio	2023-02-06T00:00:00	2024-11-08T08:00:00	2	Temperatura media	22.3
97258	7	Sololá	704	Santa Lucía Utatlán 	7	Santa Rita 	6	Junio	2023-02-06T00:00:00	2024-11-08T08:00:00	4	Temperatura máxima	22.3
97259	7	Sololá	704	Santa Lucía Utatlán 	7	Santa Rita 	6	Junio	2023-02-06T00:00:00	2024-11-08T08:00:00	3	Temperatura mínima	19.1
97260	7	Sololá	704	Santa Lucía Utatlán 	7	Santa Rita 	6	Junio	2023-02-06T00:00:00	2024-11-08T08:00:00	5	Humedad	76
97261	7	Sololá	704	Santa Lucía Utatlán 	7	Santa Rita 	6	Junio	2023-02-06T00:00:00	2024-11-08T08:00:00	6	Velocidad del viento	1.6
97262	7	Sololá	704	Santa Lucía Utatlán 	7	Santa Rita 	6	Junio	2023-02-06T00:00:00	2024-11-08T08:00:00	7	Dirección del viento	1.61
97263	7	Sololá	704	Santa Lucía Utatlán 	7	Santa Rita 	6	Junio	2023-02-06T00:00:00	2024-11-08T08:00:00	1	Precipitación	0
97264	7	Sololá	704	Santa Lucía Utatlán 	7	Santa Rita 	6	Junio	2023-02-06T00:00:00	2024-11-08T08:00:00	8	Radiación solar	418
97265	7	Sololá	704	Santa Lucía Utatlán 	7	Santa Rita 	6	Junio	2023-02-06T00:00:00	2024-11-08T09:00:00	2	Temperatura media	24.2
97266	7	Sololá	704	Santa Lucía Utatlán 	7	Santa Rita 	6	Junio	2023-02-06T00:00:00	2024-11-08T09:00:00	4	Temperatura máxima	24.2
97267	7	Sololá	704	Santa Lucía Utatlán 	7	Santa Rita 	6	Junio	2023-02-06T00:00:00	2024-11-08T09:00:00	3	Temperatura mínima	22.2
97268	7	Sololá	704	Santa Lucía Utatlán 	7	Santa Rita 	6	Junio	2023-02-06T00:00:00	2024-11-08T09:00:00	5	Humedad	71
97269	7	Sololá	704	Santa Lucía Utatlán 	7	Santa Rita 	6	Junio	2023-02-06T00:00:00	2024-11-08T09:00:00	6	Velocidad del viento	3.2
97270	7	Sololá	704	Santa Lucía Utatlán 	7	Santa Rita 	6	Junio	2023-02-06T00:00:00	2024-11-08T09:00:00	7	Dirección del viento	3.22
97271	7	Sololá	704	Santa Lucía Utatlán 	7	Santa Rita 	6	Junio	2023-02-06T00:00:00	2024-11-08T09:00:00	1	Precipitación	0
97272	7	Sololá	704	Santa Lucía Utatlán 	7	Santa Rita 	6	Junio	2023-02-06T00:00:00	2024-11-08T09:00:00	8	Radiación solar	635
97273	7	Sololá	704	Santa Lucía Utatlán 	7	Santa Rita 	6	Junio	2023-02-06T00:00:00	2024-11-08T10:00:00	2	Temperatura media	24.8
97274	7	Sololá	704	Santa Lucía Utatlán 	7	Santa Rita 	6	Junio	2023-02-06T00:00:00	2024-11-08T10:00:00	4	Temperatura máxima	24.9
97275	7	Sololá	704	Santa Lucía Utatlán 	7	Santa Rita 	6	Junio	2023-02-06T00:00:00	2024-11-08T10:00:00	3	Temperatura mínima	24.1
97276	7	Sololá	704	Santa Lucía Utatlán 	7	Santa Rita 	6	Junio	2023-02-06T00:00:00	2024-11-08T10:00:00	5	Humedad	76
97277	7	Sololá	704	Santa Lucía Utatlán 	7	Santa Rita 	6	Junio	2023-02-06T00:00:00	2024-11-08T10:00:00	6	Velocidad del viento	4.8
97278	7	Sololá	704	Santa Lucía Utatlán 	7	Santa Rita 	6	Junio	2023-02-06T00:00:00	2024-11-08T10:00:00	7	Dirección del viento	4.83
97279	7	Sololá	704	Santa Lucía Utatlán 	7	Santa Rita 	6	Junio	2023-02-06T00:00:00	2024-11-08T10:00:00	1	Precipitación	0
97280	7	Sololá	704	Santa Lucía Utatlán 	7	Santa Rita 	6	Junio	2023-02-06T00:00:00	2024-11-08T10:00:00	8	Radiación solar	783
97281	7	Sololá	704	Santa Lucía Utatlán 	7	Santa Rita 	6	Junio	2023-02-06T00:00:00	2024-11-08T11:00:00	2	Temperatura media	23.7
97282	7	Sololá	704	Santa Lucía Utatlán 	7	Santa Rita 	6	Junio	2023-02-06T00:00:00	2024-11-08T11:00:00	4	Temperatura máxima	25.1
97283	7	Sololá	704	Santa Lucía Utatlán 	7	Santa Rita 	6	Junio	2023-02-06T00:00:00	2024-11-08T11:00:00	3	Temperatura mínima	23.7
97284	7	Sololá	704	Santa Lucía Utatlán 	7	Santa Rita 	6	Junio	2023-02-06T00:00:00	2024-11-08T11:00:00	5	Humedad	79
97285	7	Sololá	704	Santa Lucía Utatlán 	7	Santa Rita 	6	Junio	2023-02-06T00:00:00	2024-11-08T11:00:00	6	Velocidad del viento	4.8
97286	7	Sololá	704	Santa Lucía Utatlán 	7	Santa Rita 	6	Junio	2023-02-06T00:00:00	2024-11-08T11:00:00	7	Dirección del viento	4.83
97287	7	Sololá	704	Santa Lucía Utatlán 	7	Santa Rita 	6	Junio	2023-02-06T00:00:00	2024-11-08T11:00:00	1	Precipitación	0
97288	7	Sololá	704	Santa Lucía Utatlán 	7	Santa Rita 	6	Junio	2023-02-06T00:00:00	2024-11-08T11:00:00	8	Radiación solar	309
97289	7	Sololá	704	Santa Lucía Utatlán 	7	Santa Rita 	6	Junio	2023-02-06T00:00:00	2024-11-08T12:00:00	2	Temperatura media	23.8
97290	7	Sololá	704	Santa Lucía Utatlán 	7	Santa Rita 	6	Junio	2023-02-06T00:00:00	2024-11-08T12:00:00	4	Temperatura máxima	23.8
97291	7	Sololá	704	Santa Lucía Utatlán 	7	Santa Rita 	6	Junio	2023-02-06T00:00:00	2024-11-08T12:00:00	3	Temperatura mínima	22.9
97292	7	Sololá	704	Santa Lucía Utatlán 	7	Santa Rita 	6	Junio	2023-02-06T00:00:00	2024-11-08T12:00:00	5	Humedad	81
97293	7	Sololá	704	Santa Lucía Utatlán 	7	Santa Rita 	6	Junio	2023-02-06T00:00:00	2024-11-08T12:00:00	6	Velocidad del viento	6.4
97294	7	Sololá	704	Santa Lucía Utatlán 	7	Santa Rita 	6	Junio	2023-02-06T00:00:00	2024-11-08T12:00:00	7	Dirección del viento	6.44
97295	7	Sololá	704	Santa Lucía Utatlán 	7	Santa Rita 	6	Junio	2023-02-06T00:00:00	2024-11-08T12:00:00	1	Precipitación	0
97296	7	Sololá	704	Santa Lucía Utatlán 	7	Santa Rita 	6	Junio	2023-02-06T00:00:00	2024-11-08T12:00:00	8	Radiación solar	290
97297	7	Sololá	704	Santa Lucía Utatlán 	7	Santa Rita 	6	Junio	2023-02-06T00:00:00	2024-11-08T13:00:00	2	Temperatura media	23.1
97298	7	Sololá	704	Santa Lucía Utatlán 	7	Santa Rita 	6	Junio	2023-02-06T00:00:00	2024-11-08T13:00:00	4	Temperatura máxima	24.7
97299	7	Sololá	704	Santa Lucía Utatlán 	7	Santa Rita 	6	Junio	2023-02-06T00:00:00	2024-11-08T13:00:00	3	Temperatura mínima	23.1
97300	7	Sololá	704	Santa Lucía Utatlán 	7	Santa Rita 	6	Junio	2023-02-06T00:00:00	2024-11-08T13:00:00	5	Humedad	84
97301	7	Sololá	704	Santa Lucía Utatlán 	7	Santa Rita 	6	Junio	2023-02-06T00:00:00	2024-11-08T13:00:00	6	Velocidad del viento	4.8
97302	7	Sololá	704	Santa Lucía Utatlán 	7	Santa Rita 	6	Junio	2023-02-06T00:00:00	2024-11-08T13:00:00	7	Dirección del viento	4.83
97303	7	Sololá	704	Santa Lucía Utatlán 	7	Santa Rita 	6	Junio	2023-02-06T00:00:00	2024-11-08T13:00:00	1	Precipitación	0
97304	7	Sololá	704	Santa Lucía Utatlán 	7	Santa Rita 	6	Junio	2023-02-06T00:00:00	2024-11-08T13:00:00	8	Radiación solar	309
97305	7	Sololá	704	Santa Lucía Utatlán 	7	Santa Rita 	6	Junio	2023-02-06T00:00:00	2024-11-08T14:00:00	2	Temperatura media	23.6
97306	7	Sololá	704	Santa Lucía Utatlán 	7	Santa Rita 	6	Junio	2023-02-06T00:00:00	2024-11-08T14:00:00	4	Temperatura máxima	24.6
97307	7	Sololá	704	Santa Lucía Utatlán 	7	Santa Rita 	6	Junio	2023-02-06T00:00:00	2024-11-08T14:00:00	3	Temperatura mínima	23
97308	7	Sololá	704	Santa Lucía Utatlán 	7	Santa Rita 	6	Junio	2023-02-06T00:00:00	2024-11-08T14:00:00	5	Humedad	84
97309	7	Sololá	704	Santa Lucía Utatlán 	7	Santa Rita 	6	Junio	2023-02-06T00:00:00	2024-11-08T14:00:00	6	Velocidad del viento	4.8
97310	7	Sololá	704	Santa Lucía Utatlán 	7	Santa Rita 	6	Junio	2023-02-06T00:00:00	2024-11-08T14:00:00	7	Dirección del viento	4.83
97311	7	Sololá	704	Santa Lucía Utatlán 	7	Santa Rita 	6	Junio	2023-02-06T00:00:00	2024-11-08T14:00:00	1	Precipitación	0
97312	7	Sololá	704	Santa Lucía Utatlán 	7	Santa Rita 	6	Junio	2023-02-06T00:00:00	2024-11-08T14:00:00	8	Radiación solar	397
97313	7	Sololá	704	Santa Lucía Utatlán 	7	Santa Rita 	6	Junio	2023-02-06T00:00:00	2024-11-08T15:00:00	2	Temperatura media	23.6
97314	7	Sololá	704	Santa Lucía Utatlán 	7	Santa Rita 	6	Junio	2023-02-06T00:00:00	2024-11-08T15:00:00	4	Temperatura máxima	23.6
97315	7	Sololá	704	Santa Lucía Utatlán 	7	Santa Rita 	6	Junio	2023-02-06T00:00:00	2024-11-08T15:00:00	3	Temperatura mínima	23.3
97316	7	Sololá	704	Santa Lucía Utatlán 	7	Santa Rita 	6	Junio	2023-02-06T00:00:00	2024-11-08T15:00:00	5	Humedad	86
97317	7	Sololá	704	Santa Lucía Utatlán 	7	Santa Rita 	6	Junio	2023-02-06T00:00:00	2024-11-08T15:00:00	6	Velocidad del viento	4.8
97318	7	Sololá	704	Santa Lucía Utatlán 	7	Santa Rita 	6	Junio	2023-02-06T00:00:00	2024-11-08T15:00:00	7	Dirección del viento	4.83
97319	7	Sololá	704	Santa Lucía Utatlán 	7	Santa Rita 	6	Junio	2023-02-06T00:00:00	2024-11-08T15:00:00	1	Precipitación	0
97320	7	Sololá	704	Santa Lucía Utatlán 	7	Santa Rita 	6	Junio	2023-02-06T00:00:00	2024-11-08T15:00:00	8	Radiación solar	211
97321	7	Sololá	704	Santa Lucía Utatlán 	7	Santa Rita 	6	Junio	2023-02-06T00:00:00	2024-11-08T16:00:00	2	Temperatura media	22.7
97322	7	Sololá	704	Santa Lucía Utatlán 	7	Santa Rita 	6	Junio	2023-02-06T00:00:00	2024-11-08T16:00:00	4	Temperatura máxima	23.6
97323	7	Sololá	704	Santa Lucía Utatlán 	7	Santa Rita 	6	Junio	2023-02-06T00:00:00	2024-11-08T16:00:00	3	Temperatura mínima	22.7
97324	7	Sololá	704	Santa Lucía Utatlán 	7	Santa Rita 	6	Junio	2023-02-06T00:00:00	2024-11-08T16:00:00	5	Humedad	87
97325	7	Sololá	704	Santa Lucía Utatlán 	7	Santa Rita 	6	Junio	2023-02-06T00:00:00	2024-11-08T16:00:00	6	Velocidad del viento	3.2
97326	7	Sololá	704	Santa Lucía Utatlán 	7	Santa Rita 	6	Junio	2023-02-06T00:00:00	2024-11-08T16:00:00	7	Dirección del viento	3.22
97327	7	Sololá	704	Santa Lucía Utatlán 	7	Santa Rita 	6	Junio	2023-02-06T00:00:00	2024-11-08T16:00:00	1	Precipitación	0
97328	7	Sololá	704	Santa Lucía Utatlán 	7	Santa Rita 	6	Junio	2023-02-06T00:00:00	2024-11-08T16:00:00	8	Radiación solar	97
97329	7	Sololá	704	Santa Lucía Utatlán 	7	Santa Rita 	6	Junio	2023-02-06T00:00:00	2024-11-08T17:00:00	2	Temperatura media	22.4
97330	7	Sololá	704	Santa Lucía Utatlán 	7	Santa Rita 	6	Junio	2023-02-06T00:00:00	2024-11-08T17:00:00	4	Temperatura máxima	22.7
97331	7	Sololá	704	Santa Lucía Utatlán 	7	Santa Rita 	6	Junio	2023-02-06T00:00:00	2024-11-08T17:00:00	3	Temperatura mínima	22.1
97332	7	Sololá	704	Santa Lucía Utatlán 	7	Santa Rita 	6	Junio	2023-02-06T00:00:00	2024-11-08T17:00:00	5	Humedad	90
97333	7	Sololá	704	Santa Lucía Utatlán 	7	Santa Rita 	6	Junio	2023-02-06T00:00:00	2024-11-08T17:00:00	6	Velocidad del viento	3.2
97334	7	Sololá	704	Santa Lucía Utatlán 	7	Santa Rita 	6	Junio	2023-02-06T00:00:00	2024-11-08T17:00:00	7	Dirección del viento	3.22
97335	7	Sololá	704	Santa Lucía Utatlán 	7	Santa Rita 	6	Junio	2023-02-06T00:00:00	2024-11-08T17:00:00	1	Precipitación	0
97336	7	Sololá	704	Santa Lucía Utatlán 	7	Santa Rita 	6	Junio	2023-02-06T00:00:00	2024-11-08T17:00:00	8	Radiación solar	47
97337	7	Sololá	704	Santa Lucía Utatlán 	7	Santa Rita 	6	Junio	2023-02-06T00:00:00	2024-11-08T18:00:00	2	Temperatura media	22.1
97338	7	Sololá	704	Santa Lucía Utatlán 	7	Santa Rita 	6	Junio	2023-02-06T00:00:00	2024-11-08T18:00:00	4	Temperatura máxima	22.6
97339	7	Sololá	704	Santa Lucía Utatlán 	7	Santa Rita 	6	Junio	2023-02-06T00:00:00	2024-11-08T18:00:00	3	Temperatura mínima	22.1
97340	7	Sololá	704	Santa Lucía Utatlán 	7	Santa Rita 	6	Junio	2023-02-06T00:00:00	2024-11-08T18:00:00	5	Humedad	89
97341	7	Sololá	704	Santa Lucía Utatlán 	7	Santa Rita 	6	Junio	2023-02-06T00:00:00	2024-11-08T18:00:00	6	Velocidad del viento	3.2
97342	7	Sololá	704	Santa Lucía Utatlán 	7	Santa Rita 	6	Junio	2023-02-06T00:00:00	2024-11-08T18:00:00	7	Dirección del viento	3.22
97343	7	Sololá	704	Santa Lucía Utatlán 	7	Santa Rita 	6	Junio	2023-02-06T00:00:00	2024-11-08T18:00:00	1	Precipitación	0
97344	7	Sololá	704	Santa Lucía Utatlán 	7	Santa Rita 	6	Junio	2023-02-06T00:00:00	2024-11-08T18:00:00	8	Radiación solar	65
97345	7	Sololá	704	Santa Lucía Utatlán 	7	Santa Rita 	6	Junio	2023-02-06T00:00:00	2024-11-08T19:00:00	2	Temperatura media	21.1
97346	7	Sololá	704	Santa Lucía Utatlán 	7	Santa Rita 	6	Junio	2023-02-06T00:00:00	2024-11-08T19:00:00	4	Temperatura máxima	22.2
97347	7	Sololá	704	Santa Lucía Utatlán 	7	Santa Rita 	6	Junio	2023-02-06T00:00:00	2024-11-08T19:00:00	3	Temperatura mínima	21.1
97348	7	Sololá	704	Santa Lucía Utatlán 	7	Santa Rita 	6	Junio	2023-02-06T00:00:00	2024-11-08T19:00:00	5	Humedad	92
97349	7	Sololá	704	Santa Lucía Utatlán 	7	Santa Rita 	6	Junio	2023-02-06T00:00:00	2024-11-08T19:00:00	6	Velocidad del viento	1.6
97350	7	Sololá	704	Santa Lucía Utatlán 	7	Santa Rita 	6	Junio	2023-02-06T00:00:00	2024-11-08T19:00:00	7	Dirección del viento	1.61
97351	7	Sololá	704	Santa Lucía Utatlán 	7	Santa Rita 	6	Junio	2023-02-06T00:00:00	2024-11-08T19:00:00	1	Precipitación	0
97352	7	Sololá	704	Santa Lucía Utatlán 	7	Santa Rita 	6	Junio	2023-02-06T00:00:00	2024-11-08T19:00:00	8	Radiación solar	0
97353	7	Sololá	704	Santa Lucía Utatlán 	7	Santa Rita 	6	Junio	2023-02-06T00:00:00	2024-11-08T20:00:00	2	Temperatura media	21.2
97354	7	Sololá	704	Santa Lucía Utatlán 	7	Santa Rita 	6	Junio	2023-02-06T00:00:00	2024-11-08T20:00:00	4	Temperatura máxima	21.6
97355	7	Sololá	704	Santa Lucía Utatlán 	7	Santa Rita 	6	Junio	2023-02-06T00:00:00	2024-11-08T20:00:00	3	Temperatura mínima	21.1
97356	7	Sololá	704	Santa Lucía Utatlán 	7	Santa Rita 	6	Junio	2023-02-06T00:00:00	2024-11-08T20:00:00	5	Humedad	89
97357	7	Sololá	704	Santa Lucía Utatlán 	7	Santa Rita 	6	Junio	2023-02-06T00:00:00	2024-11-08T20:00:00	6	Velocidad del viento	1.6
97358	7	Sololá	704	Santa Lucía Utatlán 	7	Santa Rita 	6	Junio	2023-02-06T00:00:00	2024-11-08T20:00:00	7	Dirección del viento	1.61
97359	7	Sololá	704	Santa Lucía Utatlán 	7	Santa Rita 	6	Junio	2023-02-06T00:00:00	2024-11-08T20:00:00	1	Precipitación	0
97360	7	Sololá	704	Santa Lucía Utatlán 	7	Santa Rita 	6	Junio	2023-02-06T00:00:00	2024-11-08T20:00:00	8	Radiación solar	0
97361	7	Sololá	704	Santa Lucía Utatlán 	7	Santa Rita 	6	Junio	2023-02-06T00:00:00	2024-11-08T21:00:00	2	Temperatura media	21.1
97362	7	Sololá	704	Santa Lucía Utatlán 	7	Santa Rita 	6	Junio	2023-02-06T00:00:00	2024-11-08T21:00:00	4	Temperatura máxima	21.2
97363	7	Sololá	704	Santa Lucía Utatlán 	7	Santa Rita 	6	Junio	2023-02-06T00:00:00	2024-11-08T21:00:00	3	Temperatura mínima	20.8
97364	7	Sololá	704	Santa Lucía Utatlán 	7	Santa Rita 	6	Junio	2023-02-06T00:00:00	2024-11-08T21:00:00	5	Humedad	87
97365	7	Sololá	704	Santa Lucía Utatlán 	7	Santa Rita 	6	Junio	2023-02-06T00:00:00	2024-11-08T21:00:00	6	Velocidad del viento	1.6
97366	7	Sololá	704	Santa Lucía Utatlán 	7	Santa Rita 	6	Junio	2023-02-06T00:00:00	2024-11-08T21:00:00	7	Dirección del viento	1.61
97367	7	Sololá	704	Santa Lucía Utatlán 	7	Santa Rita 	6	Junio	2023-02-06T00:00:00	2024-11-08T21:00:00	1	Precipitación	0
97368	7	Sololá	704	Santa Lucía Utatlán 	7	Santa Rita 	6	Junio	2023-02-06T00:00:00	2024-11-08T21:00:00	8	Radiación solar	0
97369	7	Sololá	704	Santa Lucía Utatlán 	7	Santa Rita 	6	Junio	2023-02-06T00:00:00	2024-11-08T22:00:00	2	Temperatura media	20.4
97370	7	Sololá	704	Santa Lucía Utatlán 	7	Santa Rita 	6	Junio	2023-02-06T00:00:00	2024-11-08T22:00:00	4	Temperatura máxima	21.2
97371	7	Sololá	704	Santa Lucía Utatlán 	7	Santa Rita 	6	Junio	2023-02-06T00:00:00	2024-11-08T22:00:00	3	Temperatura mínima	20.4
97372	7	Sololá	704	Santa Lucía Utatlán 	7	Santa Rita 	6	Junio	2023-02-06T00:00:00	2024-11-08T22:00:00	5	Humedad	90
97373	7	Sololá	704	Santa Lucía Utatlán 	7	Santa Rita 	6	Junio	2023-02-06T00:00:00	2024-11-08T22:00:00	6	Velocidad del viento	1.6
97374	7	Sololá	704	Santa Lucía Utatlán 	7	Santa Rita 	6	Junio	2023-02-06T00:00:00	2024-11-08T22:00:00	7	Dirección del viento	1.61
97375	7	Sololá	704	Santa Lucía Utatlán 	7	Santa Rita 	6	Junio	2023-02-06T00:00:00	2024-11-08T22:00:00	1	Precipitación	0
97376	7	Sololá	704	Santa Lucía Utatlán 	7	Santa Rita 	6	Junio	2023-02-06T00:00:00	2024-11-08T22:00:00	8	Radiación solar	0
97377	7	Sololá	704	Santa Lucía Utatlán 	7	Santa Rita 	6	Junio	2023-02-06T00:00:00	2024-11-08T23:00:00	2	Temperatura media	20.4
97378	7	Sololá	704	Santa Lucía Utatlán 	7	Santa Rita 	6	Junio	2023-02-06T00:00:00	2024-11-08T23:00:00	4	Temperatura máxima	20.4
97379	7	Sololá	704	Santa Lucía Utatlán 	7	Santa Rita 	6	Junio	2023-02-06T00:00:00	2024-11-08T23:00:00	3	Temperatura mínima	20.3
97380	7	Sololá	704	Santa Lucía Utatlán 	7	Santa Rita 	6	Junio	2023-02-06T00:00:00	2024-11-08T23:00:00	5	Humedad	92
97381	7	Sololá	704	Santa Lucía Utatlán 	7	Santa Rita 	6	Junio	2023-02-06T00:00:00	2024-11-08T23:00:00	6	Velocidad del viento	1.6
97382	7	Sololá	704	Santa Lucía Utatlán 	7	Santa Rita 	6	Junio	2023-02-06T00:00:00	2024-11-08T23:00:00	7	Dirección del viento	1.61
97383	7	Sololá	704	Santa Lucía Utatlán 	7	Santa Rita 	6	Junio	2023-02-06T00:00:00	2024-11-08T23:00:00	1	Precipitación	0
97384	7	Sololá	704	Santa Lucía Utatlán 	7	Santa Rita 	6	Junio	2023-02-06T00:00:00	2024-11-08T23:00:00	8	Radiación solar	0
97385	7	Sololá	704	Santa Lucía Utatlán 	7	Santa Rita 	6	Junio	2023-03-06T00:00:00	2024-11-08T00:00:00	2	Temperatura media	19.6
97386	7	Sololá	704	Santa Lucía Utatlán 	7	Santa Rita 	6	Junio	2023-03-06T00:00:00	2024-11-08T00:00:00	4	Temperatura máxima	20.4
97387	7	Sololá	704	Santa Lucía Utatlán 	7	Santa Rita 	6	Junio	2023-03-06T00:00:00	2024-11-08T00:00:00	3	Temperatura mínima	19.6
97388	7	Sololá	704	Santa Lucía Utatlán 	7	Santa Rita 	6	Junio	2023-03-06T00:00:00	2024-11-08T00:00:00	5	Humedad	92
97389	7	Sololá	704	Santa Lucía Utatlán 	7	Santa Rita 	6	Junio	2023-03-06T00:00:00	2024-11-08T00:00:00	6	Velocidad del viento	1.6
97390	7	Sololá	704	Santa Lucía Utatlán 	7	Santa Rita 	6	Junio	2023-03-06T00:00:00	2024-11-08T00:00:00	7	Dirección del viento	1.61
97391	7	Sololá	704	Santa Lucía Utatlán 	7	Santa Rita 	6	Junio	2023-03-06T00:00:00	2024-11-08T00:00:00	1	Precipitación	0
97392	7	Sololá	704	Santa Lucía Utatlán 	7	Santa Rita 	6	Junio	2023-03-06T00:00:00	2024-11-08T00:00:00	8	Radiación solar	0
97393	7	Sololá	704	Santa Lucía Utatlán 	7	Santa Rita 	6	Junio	2023-03-06T00:00:00	2024-11-08T01:00:00	2	Temperatura media	18.8
97394	7	Sololá	704	Santa Lucía Utatlán 	7	Santa Rita 	6	Junio	2023-03-06T00:00:00	2024-11-08T01:00:00	4	Temperatura máxima	19.6
97395	7	Sololá	704	Santa Lucía Utatlán 	7	Santa Rita 	6	Junio	2023-03-06T00:00:00	2024-11-08T01:00:00	3	Temperatura mínima	18.8
97396	7	Sololá	704	Santa Lucía Utatlán 	7	Santa Rita 	6	Junio	2023-03-06T00:00:00	2024-11-08T01:00:00	5	Humedad	93
97397	7	Sololá	704	Santa Lucía Utatlán 	7	Santa Rita 	6	Junio	2023-03-06T00:00:00	2024-11-08T01:00:00	6	Velocidad del viento	3.2
97398	7	Sololá	704	Santa Lucía Utatlán 	7	Santa Rita 	6	Junio	2023-03-06T00:00:00	2024-11-08T01:00:00	7	Dirección del viento	3.22
97399	7	Sololá	704	Santa Lucía Utatlán 	7	Santa Rita 	6	Junio	2023-03-06T00:00:00	2024-11-08T01:00:00	1	Precipitación	0
97400	7	Sololá	704	Santa Lucía Utatlán 	7	Santa Rita 	6	Junio	2023-03-06T00:00:00	2024-11-08T01:00:00	8	Radiación solar	0
97401	7	Sololá	704	Santa Lucía Utatlán 	7	Santa Rita 	6	Junio	2023-03-06T00:00:00	2024-11-08T02:00:00	2	Temperatura media	18.1
97402	7	Sololá	704	Santa Lucía Utatlán 	7	Santa Rita 	6	Junio	2023-03-06T00:00:00	2024-11-08T02:00:00	4	Temperatura máxima	18.9
97403	7	Sololá	704	Santa Lucía Utatlán 	7	Santa Rita 	6	Junio	2023-03-06T00:00:00	2024-11-08T02:00:00	3	Temperatura mínima	18.1
97404	7	Sololá	704	Santa Lucía Utatlán 	7	Santa Rita 	6	Junio	2023-03-06T00:00:00	2024-11-08T02:00:00	5	Humedad	93
97405	7	Sololá	704	Santa Lucía Utatlán 	7	Santa Rita 	6	Junio	2023-03-06T00:00:00	2024-11-08T02:00:00	6	Velocidad del viento	3.2
97406	7	Sololá	704	Santa Lucía Utatlán 	7	Santa Rita 	6	Junio	2023-03-06T00:00:00	2024-11-08T02:00:00	7	Dirección del viento	3.22
97407	7	Sololá	704	Santa Lucía Utatlán 	7	Santa Rita 	6	Junio	2023-03-06T00:00:00	2024-11-08T02:00:00	1	Precipitación	0
97408	7	Sololá	704	Santa Lucía Utatlán 	7	Santa Rita 	6	Junio	2023-03-06T00:00:00	2024-11-08T02:00:00	8	Radiación solar	0
97409	7	Sololá	704	Santa Lucía Utatlán 	7	Santa Rita 	6	Junio	2023-03-06T00:00:00	2024-11-08T03:00:00	2	Temperatura media	18
97410	7	Sololá	704	Santa Lucía Utatlán 	7	Santa Rita 	6	Junio	2023-03-06T00:00:00	2024-11-08T03:00:00	4	Temperatura máxima	18.2
97411	7	Sololá	704	Santa Lucía Utatlán 	7	Santa Rita 	6	Junio	2023-03-06T00:00:00	2024-11-08T03:00:00	3	Temperatura mínima	17.7
97412	7	Sololá	704	Santa Lucía Utatlán 	7	Santa Rita 	6	Junio	2023-03-06T00:00:00	2024-11-08T03:00:00	5	Humedad	93
97413	7	Sololá	704	Santa Lucía Utatlán 	7	Santa Rita 	6	Junio	2023-03-06T00:00:00	2024-11-08T03:00:00	6	Velocidad del viento	3.2
97414	7	Sololá	704	Santa Lucía Utatlán 	7	Santa Rita 	6	Junio	2023-03-06T00:00:00	2024-11-08T03:00:00	7	Dirección del viento	3.22
97415	7	Sololá	704	Santa Lucía Utatlán 	7	Santa Rita 	6	Junio	2023-03-06T00:00:00	2024-11-08T03:00:00	1	Precipitación	0
97416	7	Sololá	704	Santa Lucía Utatlán 	7	Santa Rita 	6	Junio	2023-03-06T00:00:00	2024-11-08T03:00:00	8	Radiación solar	0
97417	7	Sololá	704	Santa Lucía Utatlán 	7	Santa Rita 	6	Junio	2023-03-06T00:00:00	2024-11-08T04:00:00	2	Temperatura media	18.2
97418	7	Sololá	704	Santa Lucía Utatlán 	7	Santa Rita 	6	Junio	2023-03-06T00:00:00	2024-11-08T04:00:00	4	Temperatura máxima	18.2
97419	7	Sololá	704	Santa Lucía Utatlán 	7	Santa Rita 	6	Junio	2023-03-06T00:00:00	2024-11-08T04:00:00	3	Temperatura mínima	17.7
97420	7	Sololá	704	Santa Lucía Utatlán 	7	Santa Rita 	6	Junio	2023-03-06T00:00:00	2024-11-08T04:00:00	5	Humedad	95
97421	7	Sololá	704	Santa Lucía Utatlán 	7	Santa Rita 	6	Junio	2023-03-06T00:00:00	2024-11-08T04:00:00	6	Velocidad del viento	3.2
97422	7	Sololá	704	Santa Lucía Utatlán 	7	Santa Rita 	6	Junio	2023-03-06T00:00:00	2024-11-08T04:00:00	7	Dirección del viento	3.22
97423	7	Sololá	704	Santa Lucía Utatlán 	7	Santa Rita 	6	Junio	2023-03-06T00:00:00	2024-11-08T04:00:00	1	Precipitación	0
97424	7	Sololá	704	Santa Lucía Utatlán 	7	Santa Rita 	6	Junio	2023-03-06T00:00:00	2024-11-08T04:00:00	8	Radiación solar	0
97425	7	Sololá	704	Santa Lucía Utatlán 	7	Santa Rita 	6	Junio	2023-03-06T00:00:00	2024-11-08T05:00:00	2	Temperatura media	17.8
97426	7	Sololá	704	Santa Lucía Utatlán 	7	Santa Rita 	6	Junio	2023-03-06T00:00:00	2024-11-08T05:00:00	4	Temperatura máxima	18.2
97427	7	Sololá	704	Santa Lucía Utatlán 	7	Santa Rita 	6	Junio	2023-03-06T00:00:00	2024-11-08T05:00:00	3	Temperatura mínima	17.7
97428	7	Sololá	704	Santa Lucía Utatlán 	7	Santa Rita 	6	Junio	2023-03-06T00:00:00	2024-11-08T05:00:00	5	Humedad	92
97429	7	Sololá	704	Santa Lucía Utatlán 	7	Santa Rita 	6	Junio	2023-03-06T00:00:00	2024-11-08T05:00:00	6	Velocidad del viento	4.8
97430	7	Sololá	704	Santa Lucía Utatlán 	7	Santa Rita 	6	Junio	2023-03-06T00:00:00	2024-11-08T05:00:00	7	Dirección del viento	4.83
97431	7	Sololá	704	Santa Lucía Utatlán 	7	Santa Rita 	6	Junio	2023-03-06T00:00:00	2024-11-08T05:00:00	1	Precipitación	0
97432	7	Sololá	704	Santa Lucía Utatlán 	7	Santa Rita 	6	Junio	2023-03-06T00:00:00	2024-11-08T05:00:00	8	Radiación solar	0
97433	7	Sololá	704	Santa Lucía Utatlán 	7	Santa Rita 	6	Junio	2023-03-06T00:00:00	2024-11-08T06:00:00	2	Temperatura media	17.9
97434	7	Sololá	704	Santa Lucía Utatlán 	7	Santa Rita 	6	Junio	2023-03-06T00:00:00	2024-11-08T06:00:00	4	Temperatura máxima	18
97435	7	Sololá	704	Santa Lucía Utatlán 	7	Santa Rita 	6	Junio	2023-03-06T00:00:00	2024-11-08T06:00:00	3	Temperatura mínima	17.6
97436	7	Sololá	704	Santa Lucía Utatlán 	7	Santa Rita 	6	Junio	2023-03-06T00:00:00	2024-11-08T06:00:00	5	Humedad	92
97437	7	Sololá	704	Santa Lucía Utatlán 	7	Santa Rita 	6	Junio	2023-03-06T00:00:00	2024-11-08T06:00:00	6	Velocidad del viento	3.2
97438	7	Sololá	704	Santa Lucía Utatlán 	7	Santa Rita 	6	Junio	2023-03-06T00:00:00	2024-11-08T06:00:00	7	Dirección del viento	3.22
97439	7	Sololá	704	Santa Lucía Utatlán 	7	Santa Rita 	6	Junio	2023-03-06T00:00:00	2024-11-08T06:00:00	1	Precipitación	0
97440	7	Sololá	704	Santa Lucía Utatlán 	7	Santa Rita 	6	Junio	2023-03-06T00:00:00	2024-11-08T06:00:00	8	Radiación solar	11
97441	7	Sololá	704	Santa Lucía Utatlán 	7	Santa Rita 	6	Junio	2023-03-06T00:00:00	2024-11-08T07:00:00	2	Temperatura media	19.3
97442	7	Sololá	704	Santa Lucía Utatlán 	7	Santa Rita 	6	Junio	2023-03-06T00:00:00	2024-11-08T07:00:00	4	Temperatura máxima	19.3
97443	7	Sololá	704	Santa Lucía Utatlán 	7	Santa Rita 	6	Junio	2023-03-06T00:00:00	2024-11-08T07:00:00	3	Temperatura mínima	17.8
97444	7	Sololá	704	Santa Lucía Utatlán 	7	Santa Rita 	6	Junio	2023-03-06T00:00:00	2024-11-08T07:00:00	5	Humedad	92
97445	7	Sololá	704	Santa Lucía Utatlán 	7	Santa Rita 	6	Junio	2023-03-06T00:00:00	2024-11-08T07:00:00	6	Velocidad del viento	1.6
97446	7	Sololá	704	Santa Lucía Utatlán 	7	Santa Rita 	6	Junio	2023-03-06T00:00:00	2024-11-08T07:00:00	7	Dirección del viento	1.61
97447	7	Sololá	704	Santa Lucía Utatlán 	7	Santa Rita 	6	Junio	2023-03-06T00:00:00	2024-11-08T07:00:00	1	Precipitación	0
97448	7	Sololá	704	Santa Lucía Utatlán 	7	Santa Rita 	6	Junio	2023-03-06T00:00:00	2024-11-08T07:00:00	8	Radiación solar	103
97449	7	Sololá	704	Santa Lucía Utatlán 	7	Santa Rita 	6	Junio	2023-03-06T00:00:00	2024-11-08T08:00:00	2	Temperatura media	22.3
97450	7	Sololá	704	Santa Lucía Utatlán 	7	Santa Rita 	6	Junio	2023-03-06T00:00:00	2024-11-08T08:00:00	4	Temperatura máxima	22.3
97451	7	Sololá	704	Santa Lucía Utatlán 	7	Santa Rita 	6	Junio	2023-03-06T00:00:00	2024-11-08T08:00:00	3	Temperatura mínima	19.3
97452	7	Sololá	704	Santa Lucía Utatlán 	7	Santa Rita 	6	Junio	2023-03-06T00:00:00	2024-11-08T08:00:00	5	Humedad	82
97453	7	Sololá	704	Santa Lucía Utatlán 	7	Santa Rita 	6	Junio	2023-03-06T00:00:00	2024-11-08T08:00:00	6	Velocidad del viento	3.2
97454	7	Sololá	704	Santa Lucía Utatlán 	7	Santa Rita 	6	Junio	2023-03-06T00:00:00	2024-11-08T08:00:00	7	Dirección del viento	3.22
97455	7	Sololá	704	Santa Lucía Utatlán 	7	Santa Rita 	6	Junio	2023-03-06T00:00:00	2024-11-08T08:00:00	1	Precipitación	0
97456	7	Sololá	704	Santa Lucía Utatlán 	7	Santa Rita 	6	Junio	2023-03-06T00:00:00	2024-11-08T08:00:00	8	Radiación solar	400
97457	7	Sololá	704	Santa Lucía Utatlán 	7	Santa Rita 	6	Junio	2023-03-06T00:00:00	2024-11-08T09:00:00	2	Temperatura media	23.5
97458	7	Sololá	704	Santa Lucía Utatlán 	7	Santa Rita 	6	Junio	2023-03-06T00:00:00	2024-11-08T09:00:00	4	Temperatura máxima	24.1
97459	7	Sololá	704	Santa Lucía Utatlán 	7	Santa Rita 	6	Junio	2023-03-06T00:00:00	2024-11-08T09:00:00	3	Temperatura mínima	22.2
97460	7	Sololá	704	Santa Lucía Utatlán 	7	Santa Rita 	6	Junio	2023-03-06T00:00:00	2024-11-08T09:00:00	5	Humedad	80
97461	7	Sololá	704	Santa Lucía Utatlán 	7	Santa Rita 	6	Junio	2023-03-06T00:00:00	2024-11-08T09:00:00	6	Velocidad del viento	3.2
97462	7	Sololá	704	Santa Lucía Utatlán 	7	Santa Rita 	6	Junio	2023-03-06T00:00:00	2024-11-08T09:00:00	7	Dirección del viento	3.22
97463	7	Sololá	704	Santa Lucía Utatlán 	7	Santa Rita 	6	Junio	2023-03-06T00:00:00	2024-11-08T09:00:00	1	Precipitación	0
97464	7	Sololá	704	Santa Lucía Utatlán 	7	Santa Rita 	6	Junio	2023-03-06T00:00:00	2024-11-08T09:00:00	8	Radiación solar	449
97465	7	Sololá	704	Santa Lucía Utatlán 	7	Santa Rita 	6	Junio	2023-03-06T00:00:00	2024-11-08T10:00:00	2	Temperatura media	24.2
97466	7	Sololá	704	Santa Lucía Utatlán 	7	Santa Rita 	6	Junio	2023-03-06T00:00:00	2024-11-08T10:00:00	4	Temperatura máxima	24.2
97467	7	Sololá	704	Santa Lucía Utatlán 	7	Santa Rita 	6	Junio	2023-03-06T00:00:00	2024-11-08T10:00:00	3	Temperatura mínima	23.5
97468	7	Sololá	704	Santa Lucía Utatlán 	7	Santa Rita 	6	Junio	2023-03-06T00:00:00	2024-11-08T10:00:00	5	Humedad	78
97469	7	Sololá	704	Santa Lucía Utatlán 	7	Santa Rita 	6	Junio	2023-03-06T00:00:00	2024-11-08T10:00:00	6	Velocidad del viento	3.2
97470	7	Sololá	704	Santa Lucía Utatlán 	7	Santa Rita 	6	Junio	2023-03-06T00:00:00	2024-11-08T10:00:00	7	Dirección del viento	3.22
97471	7	Sololá	704	Santa Lucía Utatlán 	7	Santa Rita 	6	Junio	2023-03-06T00:00:00	2024-11-08T10:00:00	1	Precipitación	0
97472	7	Sololá	704	Santa Lucía Utatlán 	7	Santa Rita 	6	Junio	2023-03-06T00:00:00	2024-11-08T10:00:00	8	Radiación solar	299
97473	7	Sololá	704	Santa Lucía Utatlán 	7	Santa Rita 	6	Junio	2023-03-06T00:00:00	2024-11-08T11:00:00	2	Temperatura media	25.1
97474	7	Sololá	704	Santa Lucía Utatlán 	7	Santa Rita 	6	Junio	2023-03-06T00:00:00	2024-11-08T11:00:00	4	Temperatura máxima	25.2
97475	7	Sololá	704	Santa Lucía Utatlán 	7	Santa Rita 	6	Junio	2023-03-06T00:00:00	2024-11-08T11:00:00	3	Temperatura mínima	24.1
97476	7	Sololá	704	Santa Lucía Utatlán 	7	Santa Rita 	6	Junio	2023-03-06T00:00:00	2024-11-08T11:00:00	5	Humedad	78
97477	7	Sololá	704	Santa Lucía Utatlán 	7	Santa Rita 	6	Junio	2023-03-06T00:00:00	2024-11-08T11:00:00	6	Velocidad del viento	4.8
97478	7	Sololá	704	Santa Lucía Utatlán 	7	Santa Rita 	6	Junio	2023-03-06T00:00:00	2024-11-08T11:00:00	7	Dirección del viento	4.83
97479	7	Sololá	704	Santa Lucía Utatlán 	7	Santa Rita 	6	Junio	2023-03-06T00:00:00	2024-11-08T11:00:00	1	Precipitación	0
97480	7	Sololá	704	Santa Lucía Utatlán 	7	Santa Rita 	6	Junio	2023-03-06T00:00:00	2024-11-08T11:00:00	8	Radiación solar	429
97481	7	Sololá	704	Santa Lucía Utatlán 	7	Santa Rita 	6	Junio	2023-03-06T00:00:00	2024-11-08T12:00:00	2	Temperatura media	23.6
97482	7	Sololá	704	Santa Lucía Utatlán 	7	Santa Rita 	6	Junio	2023-03-06T00:00:00	2024-11-08T12:00:00	4	Temperatura máxima	25.2
97483	7	Sololá	704	Santa Lucía Utatlán 	7	Santa Rita 	6	Junio	2023-03-06T00:00:00	2024-11-08T12:00:00	3	Temperatura mínima	23.6
97484	7	Sololá	704	Santa Lucía Utatlán 	7	Santa Rita 	6	Junio	2023-03-06T00:00:00	2024-11-08T12:00:00	5	Humedad	84
97485	7	Sololá	704	Santa Lucía Utatlán 	7	Santa Rita 	6	Junio	2023-03-06T00:00:00	2024-11-08T12:00:00	6	Velocidad del viento	6.4
97486	7	Sololá	704	Santa Lucía Utatlán 	7	Santa Rita 	6	Junio	2023-03-06T00:00:00	2024-11-08T12:00:00	7	Dirección del viento	6.44
97487	7	Sololá	704	Santa Lucía Utatlán 	7	Santa Rita 	6	Junio	2023-03-06T00:00:00	2024-11-08T12:00:00	1	Precipitación	0
97488	7	Sololá	704	Santa Lucía Utatlán 	7	Santa Rita 	6	Junio	2023-03-06T00:00:00	2024-11-08T12:00:00	8	Radiación solar	168
97489	7	Sololá	704	Santa Lucía Utatlán 	7	Santa Rita 	6	Junio	2023-03-06T00:00:00	2024-11-08T13:00:00	2	Temperatura media	23.6
97490	7	Sololá	704	Santa Lucía Utatlán 	7	Santa Rita 	6	Junio	2023-03-06T00:00:00	2024-11-08T13:00:00	4	Temperatura máxima	24
97491	7	Sololá	704	Santa Lucía Utatlán 	7	Santa Rita 	6	Junio	2023-03-06T00:00:00	2024-11-08T13:00:00	3	Temperatura mínima	23.4
97492	7	Sololá	704	Santa Lucía Utatlán 	7	Santa Rita 	6	Junio	2023-03-06T00:00:00	2024-11-08T13:00:00	5	Humedad	85
97493	7	Sololá	704	Santa Lucía Utatlán 	7	Santa Rita 	6	Junio	2023-03-06T00:00:00	2024-11-08T13:00:00	6	Velocidad del viento	4.8
97494	7	Sololá	704	Santa Lucía Utatlán 	7	Santa Rita 	6	Junio	2023-03-06T00:00:00	2024-11-08T13:00:00	7	Dirección del viento	4.83
97495	7	Sololá	704	Santa Lucía Utatlán 	7	Santa Rita 	6	Junio	2023-03-06T00:00:00	2024-11-08T13:00:00	1	Precipitación	0
97496	7	Sololá	704	Santa Lucía Utatlán 	7	Santa Rita 	6	Junio	2023-03-06T00:00:00	2024-11-08T13:00:00	8	Radiación solar	198
97497	7	Sololá	704	Santa Lucía Utatlán 	7	Santa Rita 	6	Junio	2023-03-06T00:00:00	2024-11-08T14:00:00	2	Temperatura media	24.1
97498	7	Sololá	704	Santa Lucía Utatlán 	7	Santa Rita 	6	Junio	2023-03-06T00:00:00	2024-11-08T14:00:00	4	Temperatura máxima	24.1
97499	7	Sololá	704	Santa Lucía Utatlán 	7	Santa Rita 	6	Junio	2023-03-06T00:00:00	2024-11-08T14:00:00	3	Temperatura mínima	23.1
97500	7	Sololá	704	Santa Lucía Utatlán 	7	Santa Rita 	6	Junio	2023-03-06T00:00:00	2024-11-08T14:00:00	5	Humedad	82
97501	7	Sololá	704	Santa Lucía Utatlán 	7	Santa Rita 	6	Junio	2023-03-06T00:00:00	2024-11-08T14:00:00	6	Velocidad del viento	3.2
97502	7	Sololá	704	Santa Lucía Utatlán 	7	Santa Rita 	6	Junio	2023-03-06T00:00:00	2024-11-08T14:00:00	7	Dirección del viento	3.22
97503	7	Sololá	704	Santa Lucía Utatlán 	7	Santa Rita 	6	Junio	2023-03-06T00:00:00	2024-11-08T14:00:00	1	Precipitación	0
97504	7	Sololá	704	Santa Lucía Utatlán 	7	Santa Rita 	6	Junio	2023-03-06T00:00:00	2024-11-08T14:00:00	8	Radiación solar	203
97505	7	Sololá	704	Santa Lucía Utatlán 	7	Santa Rita 	6	Junio	2023-03-06T00:00:00	2024-11-08T15:00:00	2	Temperatura media	23.6
97506	7	Sololá	704	Santa Lucía Utatlán 	7	Santa Rita 	6	Junio	2023-03-06T00:00:00	2024-11-08T15:00:00	4	Temperatura máxima	25.1
97507	7	Sololá	704	Santa Lucía Utatlán 	7	Santa Rita 	6	Junio	2023-03-06T00:00:00	2024-11-08T15:00:00	3	Temperatura mínima	23.6
97508	7	Sololá	704	Santa Lucía Utatlán 	7	Santa Rita 	6	Junio	2023-03-06T00:00:00	2024-11-08T15:00:00	5	Humedad	88
97509	7	Sololá	704	Santa Lucía Utatlán 	7	Santa Rita 	6	Junio	2023-03-06T00:00:00	2024-11-08T15:00:00	6	Velocidad del viento	4.8
97510	7	Sololá	704	Santa Lucía Utatlán 	7	Santa Rita 	6	Junio	2023-03-06T00:00:00	2024-11-08T15:00:00	7	Dirección del viento	4.83
97511	7	Sololá	704	Santa Lucía Utatlán 	7	Santa Rita 	6	Junio	2023-03-06T00:00:00	2024-11-08T15:00:00	1	Precipitación	0
97512	7	Sololá	704	Santa Lucía Utatlán 	7	Santa Rita 	6	Junio	2023-03-06T00:00:00	2024-11-08T15:00:00	8	Radiación solar	309
97513	7	Sololá	704	Santa Lucía Utatlán 	7	Santa Rita 	6	Junio	2023-03-06T00:00:00	2024-11-08T16:00:00	2	Temperatura media	22.7
97514	7	Sololá	704	Santa Lucía Utatlán 	7	Santa Rita 	6	Junio	2023-03-06T00:00:00	2024-11-08T16:00:00	4	Temperatura máxima	23.7
97515	7	Sololá	704	Santa Lucía Utatlán 	7	Santa Rita 	6	Junio	2023-03-06T00:00:00	2024-11-08T16:00:00	3	Temperatura mínima	22.7
97516	7	Sololá	704	Santa Lucía Utatlán 	7	Santa Rita 	6	Junio	2023-03-06T00:00:00	2024-11-08T16:00:00	5	Humedad	91
97517	7	Sololá	704	Santa Lucía Utatlán 	7	Santa Rita 	6	Junio	2023-03-06T00:00:00	2024-11-08T16:00:00	6	Velocidad del viento	4.8
97518	7	Sololá	704	Santa Lucía Utatlán 	7	Santa Rita 	6	Junio	2023-03-06T00:00:00	2024-11-08T16:00:00	7	Dirección del viento	4.83
97519	7	Sololá	704	Santa Lucía Utatlán 	7	Santa Rita 	6	Junio	2023-03-06T00:00:00	2024-11-08T16:00:00	1	Precipitación	0
97520	7	Sololá	704	Santa Lucía Utatlán 	7	Santa Rita 	6	Junio	2023-03-06T00:00:00	2024-11-08T16:00:00	8	Radiación solar	114
97521	7	Sololá	704	Santa Lucía Utatlán 	7	Santa Rita 	6	Junio	2023-03-06T00:00:00	2024-11-08T17:00:00	2	Temperatura media	22.3
97522	7	Sololá	704	Santa Lucía Utatlán 	7	Santa Rita 	6	Junio	2023-03-06T00:00:00	2024-11-08T17:00:00	4	Temperatura máxima	22.7
97523	7	Sololá	704	Santa Lucía Utatlán 	7	Santa Rita 	6	Junio	2023-03-06T00:00:00	2024-11-08T17:00:00	3	Temperatura mínima	22.3
97524	7	Sololá	704	Santa Lucía Utatlán 	7	Santa Rita 	6	Junio	2023-03-06T00:00:00	2024-11-08T17:00:00	5	Humedad	92
97525	7	Sololá	704	Santa Lucía Utatlán 	7	Santa Rita 	6	Junio	2023-03-06T00:00:00	2024-11-08T17:00:00	6	Velocidad del viento	3.2
97526	7	Sololá	704	Santa Lucía Utatlán 	7	Santa Rita 	6	Junio	2023-03-06T00:00:00	2024-11-08T17:00:00	7	Dirección del viento	3.22
97527	7	Sololá	704	Santa Lucía Utatlán 	7	Santa Rita 	6	Junio	2023-03-06T00:00:00	2024-11-08T17:00:00	1	Precipitación	0
97528	7	Sololá	704	Santa Lucía Utatlán 	7	Santa Rita 	6	Junio	2023-03-06T00:00:00	2024-11-08T17:00:00	8	Radiación solar	35
97529	7	Sololá	704	Santa Lucía Utatlán 	7	Santa Rita 	6	Junio	2023-03-06T00:00:00	2024-11-08T18:00:00	2	Temperatura media	22.1
97530	7	Sololá	704	Santa Lucía Utatlán 	7	Santa Rita 	6	Junio	2023-03-06T00:00:00	2024-11-08T18:00:00	4	Temperatura máxima	22.4
97531	7	Sololá	704	Santa Lucía Utatlán 	7	Santa Rita 	6	Junio	2023-03-06T00:00:00	2024-11-08T18:00:00	3	Temperatura mínima	22.1
97532	7	Sololá	704	Santa Lucía Utatlán 	7	Santa Rita 	6	Junio	2023-03-06T00:00:00	2024-11-08T18:00:00	5	Humedad	92
97533	7	Sololá	704	Santa Lucía Utatlán 	7	Santa Rita 	6	Junio	2023-03-06T00:00:00	2024-11-08T18:00:00	6	Velocidad del viento	1.6
97534	7	Sololá	704	Santa Lucía Utatlán 	7	Santa Rita 	6	Junio	2023-03-06T00:00:00	2024-11-08T18:00:00	7	Dirección del viento	1.61
97535	7	Sololá	704	Santa Lucía Utatlán 	7	Santa Rita 	6	Junio	2023-03-06T00:00:00	2024-11-08T18:00:00	1	Precipitación	0
97536	7	Sololá	704	Santa Lucía Utatlán 	7	Santa Rita 	6	Junio	2023-03-06T00:00:00	2024-11-08T18:00:00	8	Radiación solar	7
97537	7	Sololá	704	Santa Lucía Utatlán 	7	Santa Rita 	6	Junio	2023-03-06T00:00:00	2024-11-08T19:00:00	2	Temperatura media	21.9
97538	7	Sololá	704	Santa Lucía Utatlán 	7	Santa Rita 	6	Junio	2023-03-06T00:00:00	2024-11-08T19:00:00	4	Temperatura máxima	22.2
97539	7	Sololá	704	Santa Lucía Utatlán 	7	Santa Rita 	6	Junio	2023-03-06T00:00:00	2024-11-08T19:00:00	3	Temperatura mínima	21.9
97540	7	Sololá	704	Santa Lucía Utatlán 	7	Santa Rita 	6	Junio	2023-03-06T00:00:00	2024-11-08T19:00:00	5	Humedad	93
97541	7	Sololá	704	Santa Lucía Utatlán 	7	Santa Rita 	6	Junio	2023-03-06T00:00:00	2024-11-08T19:00:00	6	Velocidad del viento	1.6
97542	7	Sololá	704	Santa Lucía Utatlán 	7	Santa Rita 	6	Junio	2023-03-06T00:00:00	2024-11-08T19:00:00	7	Dirección del viento	1.61
97543	7	Sololá	704	Santa Lucía Utatlán 	7	Santa Rita 	6	Junio	2023-03-06T00:00:00	2024-11-08T19:00:00	1	Precipitación	0
97544	7	Sololá	704	Santa Lucía Utatlán 	7	Santa Rita 	6	Junio	2023-03-06T00:00:00	2024-11-08T19:00:00	8	Radiación solar	0
97545	7	Sololá	704	Santa Lucía Utatlán 	7	Santa Rita 	6	Junio	2023-03-06T00:00:00	2024-11-08T20:00:00	2	Temperatura media	21.6
97546	7	Sololá	704	Santa Lucía Utatlán 	7	Santa Rita 	6	Junio	2023-03-06T00:00:00	2024-11-08T20:00:00	4	Temperatura máxima	21.9
97547	7	Sololá	704	Santa Lucía Utatlán 	7	Santa Rita 	6	Junio	2023-03-06T00:00:00	2024-11-08T20:00:00	3	Temperatura mínima	21.6
97548	7	Sololá	704	Santa Lucía Utatlán 	7	Santa Rita 	6	Junio	2023-03-06T00:00:00	2024-11-08T20:00:00	5	Humedad	93
97549	7	Sololá	704	Santa Lucía Utatlán 	7	Santa Rita 	6	Junio	2023-03-06T00:00:00	2024-11-08T20:00:00	6	Velocidad del viento	3.2
97550	7	Sololá	704	Santa Lucía Utatlán 	7	Santa Rita 	6	Junio	2023-03-06T00:00:00	2024-11-08T20:00:00	7	Dirección del viento	3.22
97551	7	Sololá	704	Santa Lucía Utatlán 	7	Santa Rita 	6	Junio	2023-03-06T00:00:00	2024-11-08T20:00:00	1	Precipitación	0
97552	7	Sololá	704	Santa Lucía Utatlán 	7	Santa Rita 	6	Junio	2023-03-06T00:00:00	2024-11-08T20:00:00	8	Radiación solar	0
97553	7	Sololá	704	Santa Lucía Utatlán 	7	Santa Rita 	6	Junio	2023-03-06T00:00:00	2024-11-08T21:00:00	2	Temperatura media	21.3
97554	7	Sololá	704	Santa Lucía Utatlán 	7	Santa Rita 	6	Junio	2023-03-06T00:00:00	2024-11-08T21:00:00	4	Temperatura máxima	21.6
97555	7	Sololá	704	Santa Lucía Utatlán 	7	Santa Rita 	6	Junio	2023-03-06T00:00:00	2024-11-08T21:00:00	3	Temperatura mínima	21.3
97556	7	Sololá	704	Santa Lucía Utatlán 	7	Santa Rita 	6	Junio	2023-03-06T00:00:00	2024-11-08T21:00:00	5	Humedad	95
97557	7	Sololá	704	Santa Lucía Utatlán 	7	Santa Rita 	6	Junio	2023-03-06T00:00:00	2024-11-08T21:00:00	6	Velocidad del viento	1.6
97558	7	Sololá	704	Santa Lucía Utatlán 	7	Santa Rita 	6	Junio	2023-03-06T00:00:00	2024-11-08T21:00:00	7	Dirección del viento	1.61
97559	7	Sololá	704	Santa Lucía Utatlán 	7	Santa Rita 	6	Junio	2023-03-06T00:00:00	2024-11-08T21:00:00	1	Precipitación	0
97560	7	Sololá	704	Santa Lucía Utatlán 	7	Santa Rita 	6	Junio	2023-03-06T00:00:00	2024-11-08T21:00:00	8	Radiación solar	0
97561	7	Sololá	704	Santa Lucía Utatlán 	7	Santa Rita 	6	Junio	2023-03-06T00:00:00	2024-11-08T22:00:00	2	Temperatura media	21
97562	7	Sololá	704	Santa Lucía Utatlán 	7	Santa Rita 	6	Junio	2023-03-06T00:00:00	2024-11-08T22:00:00	4	Temperatura máxima	21.4
97563	7	Sololá	704	Santa Lucía Utatlán 	7	Santa Rita 	6	Junio	2023-03-06T00:00:00	2024-11-08T22:00:00	3	Temperatura mínima	20.9
97564	7	Sololá	704	Santa Lucía Utatlán 	7	Santa Rita 	6	Junio	2023-03-06T00:00:00	2024-11-08T22:00:00	5	Humedad	93
97565	7	Sololá	704	Santa Lucía Utatlán 	7	Santa Rita 	6	Junio	2023-03-06T00:00:00	2024-11-08T22:00:00	6	Velocidad del viento	3.2
97566	7	Sololá	704	Santa Lucía Utatlán 	7	Santa Rita 	6	Junio	2023-03-06T00:00:00	2024-11-08T22:00:00	7	Dirección del viento	3.22
97567	7	Sololá	704	Santa Lucía Utatlán 	7	Santa Rita 	6	Junio	2023-03-06T00:00:00	2024-11-08T22:00:00	1	Precipitación	0
97568	7	Sololá	704	Santa Lucía Utatlán 	7	Santa Rita 	6	Junio	2023-03-06T00:00:00	2024-11-08T22:00:00	8	Radiación solar	0
97569	7	Sololá	704	Santa Lucía Utatlán 	7	Santa Rita 	6	Junio	2023-03-06T00:00:00	2024-11-08T23:00:00	2	Temperatura media	20.7
97570	7	Sololá	704	Santa Lucía Utatlán 	7	Santa Rita 	6	Junio	2023-03-06T00:00:00	2024-11-08T23:00:00	4	Temperatura máxima	21.1
97571	7	Sololá	704	Santa Lucía Utatlán 	7	Santa Rita 	6	Junio	2023-03-06T00:00:00	2024-11-08T23:00:00	3	Temperatura mínima	20.7
97572	7	Sololá	704	Santa Lucía Utatlán 	7	Santa Rita 	6	Junio	2023-03-06T00:00:00	2024-11-08T23:00:00	5	Humedad	95
97573	7	Sololá	704	Santa Lucía Utatlán 	7	Santa Rita 	6	Junio	2023-03-06T00:00:00	2024-11-08T23:00:00	6	Velocidad del viento	1.6
97574	7	Sololá	704	Santa Lucía Utatlán 	7	Santa Rita 	6	Junio	2023-03-06T00:00:00	2024-11-08T23:00:00	7	Dirección del viento	1.61
97575	7	Sololá	704	Santa Lucía Utatlán 	7	Santa Rita 	6	Junio	2023-03-06T00:00:00	2024-11-08T23:00:00	1	Precipitación	0
97576	7	Sololá	704	Santa Lucía Utatlán 	7	Santa Rita 	6	Junio	2023-03-06T00:00:00	2024-11-08T23:00:00	8	Radiación solar	0
97577	7	Sololá	704	Santa Lucía Utatlán 	7	Santa Rita 	6	Junio	2023-04-06T00:00:00	2024-11-08T00:00:00	2	Temperatura media	20.7
97578	7	Sololá	704	Santa Lucía Utatlán 	7	Santa Rita 	6	Junio	2023-04-06T00:00:00	2024-11-08T00:00:00	4	Temperatura máxima	20.8
97579	7	Sololá	704	Santa Lucía Utatlán 	7	Santa Rita 	6	Junio	2023-04-06T00:00:00	2024-11-08T00:00:00	3	Temperatura mínima	20.6
97580	7	Sololá	704	Santa Lucía Utatlán 	7	Santa Rita 	6	Junio	2023-04-06T00:00:00	2024-11-08T00:00:00	5	Humedad	95
97581	7	Sololá	704	Santa Lucía Utatlán 	7	Santa Rita 	6	Junio	2023-04-06T00:00:00	2024-11-08T00:00:00	6	Velocidad del viento	1.6
97582	7	Sololá	704	Santa Lucía Utatlán 	7	Santa Rita 	6	Junio	2023-04-06T00:00:00	2024-11-08T00:00:00	7	Dirección del viento	1.61
97583	7	Sololá	704	Santa Lucía Utatlán 	7	Santa Rita 	6	Junio	2023-04-06T00:00:00	2024-11-08T00:00:00	1	Precipitación	0
97584	7	Sololá	704	Santa Lucía Utatlán 	7	Santa Rita 	6	Junio	2023-04-06T00:00:00	2024-11-08T00:00:00	8	Radiación solar	0
97585	7	Sololá	704	Santa Lucía Utatlán 	7	Santa Rita 	6	Junio	2023-04-06T00:00:00	2024-11-08T01:00:00	2	Temperatura media	20.4
97586	7	Sololá	704	Santa Lucía Utatlán 	7	Santa Rita 	6	Junio	2023-04-06T00:00:00	2024-11-08T01:00:00	4	Temperatura máxima	20.7
97587	7	Sololá	704	Santa Lucía Utatlán 	7	Santa Rita 	6	Junio	2023-04-06T00:00:00	2024-11-08T01:00:00	3	Temperatura mínima	20.4
97588	7	Sololá	704	Santa Lucía Utatlán 	7	Santa Rita 	6	Junio	2023-04-06T00:00:00	2024-11-08T01:00:00	5	Humedad	95
97589	7	Sololá	704	Santa Lucía Utatlán 	7	Santa Rita 	6	Junio	2023-04-06T00:00:00	2024-11-08T01:00:00	6	Velocidad del viento	0
97590	7	Sololá	704	Santa Lucía Utatlán 	7	Santa Rita 	6	Junio	2023-04-06T00:00:00	2024-11-08T01:00:00	7	Dirección del viento	0
97591	7	Sololá	704	Santa Lucía Utatlán 	7	Santa Rita 	6	Junio	2023-04-06T00:00:00	2024-11-08T01:00:00	1	Precipitación	0
97592	7	Sololá	704	Santa Lucía Utatlán 	7	Santa Rita 	6	Junio	2023-04-06T00:00:00	2024-11-08T01:00:00	8	Radiación solar	0
97593	7	Sololá	704	Santa Lucía Utatlán 	7	Santa Rita 	6	Junio	2023-04-06T00:00:00	2024-11-08T02:00:00	2	Temperatura media	20.3
97594	7	Sololá	704	Santa Lucía Utatlán 	7	Santa Rita 	6	Junio	2023-04-06T00:00:00	2024-11-08T02:00:00	4	Temperatura máxima	20.4
97595	7	Sololá	704	Santa Lucía Utatlán 	7	Santa Rita 	6	Junio	2023-04-06T00:00:00	2024-11-08T02:00:00	3	Temperatura mínima	20.3
97596	7	Sololá	704	Santa Lucía Utatlán 	7	Santa Rita 	6	Junio	2023-04-06T00:00:00	2024-11-08T02:00:00	5	Humedad	96
97597	7	Sololá	704	Santa Lucía Utatlán 	7	Santa Rita 	6	Junio	2023-04-06T00:00:00	2024-11-08T02:00:00	6	Velocidad del viento	0
97598	7	Sololá	704	Santa Lucía Utatlán 	7	Santa Rita 	6	Junio	2023-04-06T00:00:00	2024-11-08T02:00:00	7	Dirección del viento	0
97599	7	Sololá	704	Santa Lucía Utatlán 	7	Santa Rita 	6	Junio	2023-04-06T00:00:00	2024-11-08T02:00:00	1	Precipitación	0
97600	7	Sololá	704	Santa Lucía Utatlán 	7	Santa Rita 	6	Junio	2023-04-06T00:00:00	2024-11-08T02:00:00	8	Radiación solar	0
97601	7	Sololá	704	Santa Lucía Utatlán 	7	Santa Rita 	6	Junio	2023-04-06T00:00:00	2024-11-08T03:00:00	2	Temperatura media	19.9
97602	7	Sololá	704	Santa Lucía Utatlán 	7	Santa Rita 	6	Junio	2023-04-06T00:00:00	2024-11-08T03:00:00	4	Temperatura máxima	20.3
97603	7	Sololá	704	Santa Lucía Utatlán 	7	Santa Rita 	6	Junio	2023-04-06T00:00:00	2024-11-08T03:00:00	3	Temperatura mínima	19.9
97604	7	Sololá	704	Santa Lucía Utatlán 	7	Santa Rita 	6	Junio	2023-04-06T00:00:00	2024-11-08T03:00:00	5	Humedad	95
97605	7	Sololá	704	Santa Lucía Utatlán 	7	Santa Rita 	6	Junio	2023-04-06T00:00:00	2024-11-08T03:00:00	6	Velocidad del viento	0
97606	7	Sololá	704	Santa Lucía Utatlán 	7	Santa Rita 	6	Junio	2023-04-06T00:00:00	2024-11-08T03:00:00	7	Dirección del viento	0
97607	7	Sololá	704	Santa Lucía Utatlán 	7	Santa Rita 	6	Junio	2023-04-06T00:00:00	2024-11-08T03:00:00	1	Precipitación	0
97608	7	Sololá	704	Santa Lucía Utatlán 	7	Santa Rita 	6	Junio	2023-04-06T00:00:00	2024-11-08T03:00:00	8	Radiación solar	0
97609	7	Sololá	704	Santa Lucía Utatlán 	7	Santa Rita 	6	Junio	2023-04-06T00:00:00	2024-11-08T04:00:00	2	Temperatura media	19.2
97610	7	Sololá	704	Santa Lucía Utatlán 	7	Santa Rita 	6	Junio	2023-04-06T00:00:00	2024-11-08T04:00:00	4	Temperatura máxima	19.9
97611	7	Sololá	704	Santa Lucía Utatlán 	7	Santa Rita 	6	Junio	2023-04-06T00:00:00	2024-11-08T04:00:00	3	Temperatura mínima	19.2
97612	7	Sololá	704	Santa Lucía Utatlán 	7	Santa Rita 	6	Junio	2023-04-06T00:00:00	2024-11-08T04:00:00	5	Humedad	94
97613	7	Sololá	704	Santa Lucía Utatlán 	7	Santa Rita 	6	Junio	2023-04-06T00:00:00	2024-11-08T04:00:00	6	Velocidad del viento	1.6
97614	7	Sololá	704	Santa Lucía Utatlán 	7	Santa Rita 	6	Junio	2023-04-06T00:00:00	2024-11-08T04:00:00	7	Dirección del viento	1.61
97615	7	Sololá	704	Santa Lucía Utatlán 	7	Santa Rita 	6	Junio	2023-04-06T00:00:00	2024-11-08T04:00:00	1	Precipitación	0
97616	7	Sololá	704	Santa Lucía Utatlán 	7	Santa Rita 	6	Junio	2023-04-06T00:00:00	2024-11-08T04:00:00	8	Radiación solar	0
97617	7	Sololá	704	Santa Lucía Utatlán 	7	Santa Rita 	6	Junio	2023-04-06T00:00:00	2024-11-08T05:00:00	2	Temperatura media	18.8
97618	7	Sololá	704	Santa Lucía Utatlán 	7	Santa Rita 	6	Junio	2023-04-06T00:00:00	2024-11-08T05:00:00	4	Temperatura máxima	19.2
97619	7	Sololá	704	Santa Lucía Utatlán 	7	Santa Rita 	6	Junio	2023-04-06T00:00:00	2024-11-08T05:00:00	3	Temperatura mínima	18.8
97620	7	Sololá	704	Santa Lucía Utatlán 	7	Santa Rita 	6	Junio	2023-04-06T00:00:00	2024-11-08T05:00:00	5	Humedad	94
97621	7	Sololá	704	Santa Lucía Utatlán 	7	Santa Rita 	6	Junio	2023-04-06T00:00:00	2024-11-08T05:00:00	6	Velocidad del viento	3.2
97622	7	Sololá	704	Santa Lucía Utatlán 	7	Santa Rita 	6	Junio	2023-04-06T00:00:00	2024-11-08T05:00:00	7	Dirección del viento	3.22
97623	7	Sololá	704	Santa Lucía Utatlán 	7	Santa Rita 	6	Junio	2023-04-06T00:00:00	2024-11-08T05:00:00	1	Precipitación	0
97624	7	Sololá	704	Santa Lucía Utatlán 	7	Santa Rita 	6	Junio	2023-04-06T00:00:00	2024-11-08T05:00:00	8	Radiación solar	0
97625	7	Sololá	704	Santa Lucía Utatlán 	7	Santa Rita 	6	Junio	2023-04-06T00:00:00	2024-11-08T06:00:00	2	Temperatura media	18.5
97626	7	Sololá	704	Santa Lucía Utatlán 	7	Santa Rita 	6	Junio	2023-04-06T00:00:00	2024-11-08T06:00:00	4	Temperatura máxima	18.8
97627	7	Sololá	704	Santa Lucía Utatlán 	7	Santa Rita 	6	Junio	2023-04-06T00:00:00	2024-11-08T06:00:00	3	Temperatura mínima	18.4
97628	7	Sololá	704	Santa Lucía Utatlán 	7	Santa Rita 	6	Junio	2023-04-06T00:00:00	2024-11-08T06:00:00	5	Humedad	93
97629	7	Sololá	704	Santa Lucía Utatlán 	7	Santa Rita 	6	Junio	2023-04-06T00:00:00	2024-11-08T06:00:00	6	Velocidad del viento	3.2
97630	7	Sololá	704	Santa Lucía Utatlán 	7	Santa Rita 	6	Junio	2023-04-06T00:00:00	2024-11-08T06:00:00	7	Dirección del viento	3.22
97631	7	Sololá	704	Santa Lucía Utatlán 	7	Santa Rita 	6	Junio	2023-04-06T00:00:00	2024-11-08T06:00:00	1	Precipitación	0
97632	7	Sololá	704	Santa Lucía Utatlán 	7	Santa Rita 	6	Junio	2023-04-06T00:00:00	2024-11-08T06:00:00	8	Radiación solar	7
97633	7	Sololá	704	Santa Lucía Utatlán 	7	Santa Rita 	6	Junio	2023-04-06T00:00:00	2024-11-08T07:00:00	2	Temperatura media	19.4
97634	7	Sololá	704	Santa Lucía Utatlán 	7	Santa Rita 	6	Junio	2023-04-06T00:00:00	2024-11-08T07:00:00	4	Temperatura máxima	19.4
97635	7	Sololá	704	Santa Lucía Utatlán 	7	Santa Rita 	6	Junio	2023-04-06T00:00:00	2024-11-08T07:00:00	3	Temperatura mínima	18.4
97636	7	Sololá	704	Santa Lucía Utatlán 	7	Santa Rita 	6	Junio	2023-04-06T00:00:00	2024-11-08T07:00:00	5	Humedad	93
97637	7	Sololá	704	Santa Lucía Utatlán 	7	Santa Rita 	6	Junio	2023-04-06T00:00:00	2024-11-08T07:00:00	6	Velocidad del viento	0
97638	7	Sololá	704	Santa Lucía Utatlán 	7	Santa Rita 	6	Junio	2023-04-06T00:00:00	2024-11-08T07:00:00	7	Dirección del viento	0
97639	7	Sololá	704	Santa Lucía Utatlán 	7	Santa Rita 	6	Junio	2023-04-06T00:00:00	2024-11-08T07:00:00	1	Precipitación	0
97640	7	Sololá	704	Santa Lucía Utatlán 	7	Santa Rita 	6	Junio	2023-04-06T00:00:00	2024-11-08T07:00:00	8	Radiación solar	78
97641	7	Sololá	704	Santa Lucía Utatlán 	7	Santa Rita 	6	Junio	2023-04-06T00:00:00	2024-11-08T08:00:00	2	Temperatura media	22.6
97642	7	Sololá	704	Santa Lucía Utatlán 	7	Santa Rita 	6	Junio	2023-04-06T00:00:00	2024-11-08T08:00:00	4	Temperatura máxima	22.6
97643	7	Sololá	704	Santa Lucía Utatlán 	7	Santa Rita 	6	Junio	2023-04-06T00:00:00	2024-11-08T08:00:00	3	Temperatura mínima	19.4
97644	7	Sololá	704	Santa Lucía Utatlán 	7	Santa Rita 	6	Junio	2023-04-06T00:00:00	2024-11-08T08:00:00	5	Humedad	79
97645	7	Sololá	704	Santa Lucía Utatlán 	7	Santa Rita 	6	Junio	2023-04-06T00:00:00	2024-11-08T08:00:00	6	Velocidad del viento	1.6
97646	7	Sololá	704	Santa Lucía Utatlán 	7	Santa Rita 	6	Junio	2023-04-06T00:00:00	2024-11-08T08:00:00	7	Dirección del viento	1.61
97647	7	Sololá	704	Santa Lucía Utatlán 	7	Santa Rita 	6	Junio	2023-04-06T00:00:00	2024-11-08T08:00:00	1	Precipitación	0
97648	7	Sololá	704	Santa Lucía Utatlán 	7	Santa Rita 	6	Junio	2023-04-06T00:00:00	2024-11-08T08:00:00	8	Radiación solar	321
97649	7	Sololá	704	Santa Lucía Utatlán 	7	Santa Rita 	6	Junio	2023-04-06T00:00:00	2024-11-08T09:00:00	2	Temperatura media	25.6
97650	7	Sololá	704	Santa Lucía Utatlán 	7	Santa Rita 	6	Junio	2023-04-06T00:00:00	2024-11-08T09:00:00	4	Temperatura máxima	25.6
97651	7	Sololá	704	Santa Lucía Utatlán 	7	Santa Rita 	6	Junio	2023-04-06T00:00:00	2024-11-08T09:00:00	3	Temperatura mínima	22.6
97652	7	Sololá	704	Santa Lucía Utatlán 	7	Santa Rita 	6	Junio	2023-04-06T00:00:00	2024-11-08T09:00:00	5	Humedad	73
97653	7	Sololá	704	Santa Lucía Utatlán 	7	Santa Rita 	6	Junio	2023-04-06T00:00:00	2024-11-08T09:00:00	6	Velocidad del viento	3.2
97654	7	Sololá	704	Santa Lucía Utatlán 	7	Santa Rita 	6	Junio	2023-04-06T00:00:00	2024-11-08T09:00:00	7	Dirección del viento	3.22
97655	7	Sololá	704	Santa Lucía Utatlán 	7	Santa Rita 	6	Junio	2023-04-06T00:00:00	2024-11-08T09:00:00	1	Precipitación	0
97656	7	Sololá	704	Santa Lucía Utatlán 	7	Santa Rita 	6	Junio	2023-04-06T00:00:00	2024-11-08T09:00:00	8	Radiación solar	665
97657	7	Sololá	704	Santa Lucía Utatlán 	7	Santa Rita 	6	Junio	2023-04-06T00:00:00	2024-11-08T10:00:00	2	Temperatura media	26.9
97658	7	Sololá	704	Santa Lucía Utatlán 	7	Santa Rita 	6	Junio	2023-04-06T00:00:00	2024-11-08T10:00:00	4	Temperatura máxima	26.9
97659	7	Sololá	704	Santa Lucía Utatlán 	7	Santa Rita 	6	Junio	2023-04-06T00:00:00	2024-11-08T10:00:00	3	Temperatura mínima	25.6
97660	7	Sololá	704	Santa Lucía Utatlán 	7	Santa Rita 	6	Junio	2023-04-06T00:00:00	2024-11-08T10:00:00	5	Humedad	63
97661	7	Sololá	704	Santa Lucía Utatlán 	7	Santa Rita 	6	Junio	2023-04-06T00:00:00	2024-11-08T10:00:00	6	Velocidad del viento	4.8
97662	7	Sololá	704	Santa Lucía Utatlán 	7	Santa Rita 	6	Junio	2023-04-06T00:00:00	2024-11-08T10:00:00	7	Dirección del viento	4.83
97663	7	Sololá	704	Santa Lucía Utatlán 	7	Santa Rita 	6	Junio	2023-04-06T00:00:00	2024-11-08T10:00:00	1	Precipitación	0
97664	7	Sololá	704	Santa Lucía Utatlán 	7	Santa Rita 	6	Junio	2023-04-06T00:00:00	2024-11-08T10:00:00	8	Radiación solar	838
97665	7	Sololá	704	Santa Lucía Utatlán 	7	Santa Rita 	6	Junio	2023-04-06T00:00:00	2024-11-08T11:00:00	2	Temperatura media	26.7
97666	7	Sololá	704	Santa Lucía Utatlán 	7	Santa Rita 	6	Junio	2023-04-06T00:00:00	2024-11-08T11:00:00	4	Temperatura máxima	27.1
97667	7	Sololá	704	Santa Lucía Utatlán 	7	Santa Rita 	6	Junio	2023-04-06T00:00:00	2024-11-08T11:00:00	3	Temperatura mínima	25.9
97668	7	Sololá	704	Santa Lucía Utatlán 	7	Santa Rita 	6	Junio	2023-04-06T00:00:00	2024-11-08T11:00:00	5	Humedad	72
97669	7	Sololá	704	Santa Lucía Utatlán 	7	Santa Rita 	6	Junio	2023-04-06T00:00:00	2024-11-08T11:00:00	6	Velocidad del viento	8
97670	7	Sololá	704	Santa Lucía Utatlán 	7	Santa Rita 	6	Junio	2023-04-06T00:00:00	2024-11-08T11:00:00	7	Dirección del viento	8.05
97671	7	Sololá	704	Santa Lucía Utatlán 	7	Santa Rita 	6	Junio	2023-04-06T00:00:00	2024-11-08T11:00:00	1	Precipitación	0
97672	7	Sololá	704	Santa Lucía Utatlán 	7	Santa Rita 	6	Junio	2023-04-06T00:00:00	2024-11-08T11:00:00	8	Radiación solar	870
97673	7	Sololá	704	Santa Lucía Utatlán 	7	Santa Rita 	6	Junio	2023-04-06T00:00:00	2024-11-08T12:00:00	2	Temperatura media	25.9
97674	7	Sololá	704	Santa Lucía Utatlán 	7	Santa Rita 	6	Junio	2023-04-06T00:00:00	2024-11-08T12:00:00	4	Temperatura máxima	27.2
97675	7	Sololá	704	Santa Lucía Utatlán 	7	Santa Rita 	6	Junio	2023-04-06T00:00:00	2024-11-08T12:00:00	3	Temperatura mínima	25.8
97676	7	Sololá	704	Santa Lucía Utatlán 	7	Santa Rita 	6	Junio	2023-04-06T00:00:00	2024-11-08T12:00:00	5	Humedad	73
97677	7	Sololá	704	Santa Lucía Utatlán 	7	Santa Rita 	6	Junio	2023-04-06T00:00:00	2024-11-08T12:00:00	6	Velocidad del viento	6.4
97678	7	Sololá	704	Santa Lucía Utatlán 	7	Santa Rita 	6	Junio	2023-04-06T00:00:00	2024-11-08T12:00:00	7	Dirección del viento	6.44
97679	7	Sololá	704	Santa Lucía Utatlán 	7	Santa Rita 	6	Junio	2023-04-06T00:00:00	2024-11-08T12:00:00	1	Precipitación	0
97680	7	Sololá	704	Santa Lucía Utatlán 	7	Santa Rita 	6	Junio	2023-04-06T00:00:00	2024-11-08T12:00:00	8	Radiación solar	539
97681	7	Sololá	704	Santa Lucía Utatlán 	7	Santa Rita 	6	Junio	2023-04-06T00:00:00	2024-11-08T13:00:00	2	Temperatura media	24.6
97682	7	Sololá	704	Santa Lucía Utatlán 	7	Santa Rita 	6	Junio	2023-04-06T00:00:00	2024-11-08T13:00:00	4	Temperatura máxima	26.5
97683	7	Sololá	704	Santa Lucía Utatlán 	7	Santa Rita 	6	Junio	2023-04-06T00:00:00	2024-11-08T13:00:00	3	Temperatura mínima	24.6
97684	7	Sololá	704	Santa Lucía Utatlán 	7	Santa Rita 	6	Junio	2023-04-06T00:00:00	2024-11-08T13:00:00	5	Humedad	79
97685	7	Sololá	704	Santa Lucía Utatlán 	7	Santa Rita 	6	Junio	2023-04-06T00:00:00	2024-11-08T13:00:00	6	Velocidad del viento	6.4
97686	7	Sololá	704	Santa Lucía Utatlán 	7	Santa Rita 	6	Junio	2023-04-06T00:00:00	2024-11-08T13:00:00	7	Dirección del viento	6.44
97687	7	Sololá	704	Santa Lucía Utatlán 	7	Santa Rita 	6	Junio	2023-04-06T00:00:00	2024-11-08T13:00:00	1	Precipitación	0
97688	7	Sololá	704	Santa Lucía Utatlán 	7	Santa Rita 	6	Junio	2023-04-06T00:00:00	2024-11-08T13:00:00	8	Radiación solar	299
97689	7	Sololá	704	Santa Lucía Utatlán 	7	Santa Rita 	6	Junio	2023-04-06T00:00:00	2024-11-08T14:00:00	2	Temperatura media	24.4
97690	7	Sololá	704	Santa Lucía Utatlán 	7	Santa Rita 	6	Junio	2023-04-06T00:00:00	2024-11-08T14:00:00	4	Temperatura máxima	24.6
97691	7	Sololá	704	Santa Lucía Utatlán 	7	Santa Rita 	6	Junio	2023-04-06T00:00:00	2024-11-08T14:00:00	3	Temperatura mínima	23.9
97692	7	Sololá	704	Santa Lucía Utatlán 	7	Santa Rita 	6	Junio	2023-04-06T00:00:00	2024-11-08T14:00:00	5	Humedad	79
97693	7	Sololá	704	Santa Lucía Utatlán 	7	Santa Rita 	6	Junio	2023-04-06T00:00:00	2024-11-08T14:00:00	6	Velocidad del viento	4.8
97694	7	Sololá	704	Santa Lucía Utatlán 	7	Santa Rita 	6	Junio	2023-04-06T00:00:00	2024-11-08T14:00:00	7	Dirección del viento	4.83
97695	7	Sololá	704	Santa Lucía Utatlán 	7	Santa Rita 	6	Junio	2023-04-06T00:00:00	2024-11-08T14:00:00	1	Precipitación	0
97696	7	Sololá	704	Santa Lucía Utatlán 	7	Santa Rita 	6	Junio	2023-04-06T00:00:00	2024-11-08T14:00:00	8	Radiación solar	242
97697	7	Sololá	704	Santa Lucía Utatlán 	7	Santa Rita 	6	Junio	2023-04-06T00:00:00	2024-11-08T15:00:00	2	Temperatura media	22.5
97698	7	Sololá	704	Santa Lucía Utatlán 	7	Santa Rita 	6	Junio	2023-04-06T00:00:00	2024-11-08T15:00:00	4	Temperatura máxima	24.4
97699	7	Sololá	704	Santa Lucía Utatlán 	7	Santa Rita 	6	Junio	2023-04-06T00:00:00	2024-11-08T15:00:00	3	Temperatura mínima	22.5
97700	7	Sololá	704	Santa Lucía Utatlán 	7	Santa Rita 	6	Junio	2023-04-06T00:00:00	2024-11-08T15:00:00	5	Humedad	88
97701	7	Sololá	704	Santa Lucía Utatlán 	7	Santa Rita 	6	Junio	2023-04-06T00:00:00	2024-11-08T15:00:00	6	Velocidad del viento	4.8
97702	7	Sololá	704	Santa Lucía Utatlán 	7	Santa Rita 	6	Junio	2023-04-06T00:00:00	2024-11-08T15:00:00	7	Dirección del viento	4.83
97703	7	Sololá	704	Santa Lucía Utatlán 	7	Santa Rita 	6	Junio	2023-04-06T00:00:00	2024-11-08T15:00:00	1	Precipitación	0
97704	7	Sololá	704	Santa Lucía Utatlán 	7	Santa Rita 	6	Junio	2023-04-06T00:00:00	2024-11-08T15:00:00	8	Radiación solar	49
97705	7	Sololá	704	Santa Lucía Utatlán 	7	Santa Rita 	6	Junio	2023-04-06T00:00:00	2024-11-08T16:00:00	2	Temperatura media	21.7
97706	7	Sololá	704	Santa Lucía Utatlán 	7	Santa Rita 	6	Junio	2023-04-06T00:00:00	2024-11-08T16:00:00	4	Temperatura máxima	22.5
97707	7	Sololá	704	Santa Lucía Utatlán 	7	Santa Rita 	6	Junio	2023-04-06T00:00:00	2024-11-08T16:00:00	3	Temperatura mínima	21.7
97708	7	Sololá	704	Santa Lucía Utatlán 	7	Santa Rita 	6	Junio	2023-04-06T00:00:00	2024-11-08T16:00:00	5	Humedad	91
97709	7	Sololá	704	Santa Lucía Utatlán 	7	Santa Rita 	6	Junio	2023-04-06T00:00:00	2024-11-08T16:00:00	6	Velocidad del viento	3.2
97710	7	Sololá	704	Santa Lucía Utatlán 	7	Santa Rita 	6	Junio	2023-04-06T00:00:00	2024-11-08T16:00:00	7	Dirección del viento	3.22
97711	7	Sololá	704	Santa Lucía Utatlán 	7	Santa Rita 	6	Junio	2023-04-06T00:00:00	2024-11-08T16:00:00	1	Precipitación	0
97712	7	Sololá	704	Santa Lucía Utatlán 	7	Santa Rita 	6	Junio	2023-04-06T00:00:00	2024-11-08T16:00:00	8	Radiación solar	8
97713	7	Sololá	704	Santa Lucía Utatlán 	7	Santa Rita 	6	Junio	2023-04-06T00:00:00	2024-11-08T17:00:00	2	Temperatura media	21.9
97714	7	Sololá	704	Santa Lucía Utatlán 	7	Santa Rita 	6	Junio	2023-04-06T00:00:00	2024-11-08T17:00:00	4	Temperatura máxima	21.9
97715	7	Sololá	704	Santa Lucía Utatlán 	7	Santa Rita 	6	Junio	2023-04-06T00:00:00	2024-11-08T17:00:00	3	Temperatura mínima	21.6
97716	7	Sololá	704	Santa Lucía Utatlán 	7	Santa Rita 	6	Junio	2023-04-06T00:00:00	2024-11-08T17:00:00	5	Humedad	87
97717	7	Sololá	704	Santa Lucía Utatlán 	7	Santa Rita 	6	Junio	2023-04-06T00:00:00	2024-11-08T17:00:00	6	Velocidad del viento	3.2
97718	7	Sololá	704	Santa Lucía Utatlán 	7	Santa Rita 	6	Junio	2023-04-06T00:00:00	2024-11-08T17:00:00	7	Dirección del viento	3.22
97719	7	Sololá	704	Santa Lucía Utatlán 	7	Santa Rita 	6	Junio	2023-04-06T00:00:00	2024-11-08T17:00:00	1	Precipitación	0
97720	7	Sololá	704	Santa Lucía Utatlán 	7	Santa Rita 	6	Junio	2023-04-06T00:00:00	2024-11-08T17:00:00	8	Radiación solar	12
97721	7	Sololá	704	Santa Lucía Utatlán 	7	Santa Rita 	6	Junio	2023-04-06T00:00:00	2024-11-08T18:00:00	2	Temperatura media	21.4
97722	7	Sololá	704	Santa Lucía Utatlán 	7	Santa Rita 	6	Junio	2023-04-06T00:00:00	2024-11-08T18:00:00	4	Temperatura máxima	22.1
97723	7	Sololá	704	Santa Lucía Utatlán 	7	Santa Rita 	6	Junio	2023-04-06T00:00:00	2024-11-08T18:00:00	3	Temperatura mínima	21.4
97724	7	Sololá	704	Santa Lucía Utatlán 	7	Santa Rita 	6	Junio	2023-04-06T00:00:00	2024-11-08T18:00:00	5	Humedad	91
97725	7	Sololá	704	Santa Lucía Utatlán 	7	Santa Rita 	6	Junio	2023-04-06T00:00:00	2024-11-08T18:00:00	6	Velocidad del viento	3.2
97726	7	Sololá	704	Santa Lucía Utatlán 	7	Santa Rita 	6	Junio	2023-04-06T00:00:00	2024-11-08T18:00:00	7	Dirección del viento	3.22
97727	7	Sololá	704	Santa Lucía Utatlán 	7	Santa Rita 	6	Junio	2023-04-06T00:00:00	2024-11-08T18:00:00	1	Precipitación	0
97728	7	Sololá	704	Santa Lucía Utatlán 	7	Santa Rita 	6	Junio	2023-04-06T00:00:00	2024-11-08T18:00:00	8	Radiación solar	5
97729	7	Sololá	704	Santa Lucía Utatlán 	7	Santa Rita 	6	Junio	2023-04-06T00:00:00	2024-11-08T19:00:00	2	Temperatura media	21.6
97730	7	Sololá	704	Santa Lucía Utatlán 	7	Santa Rita 	6	Junio	2023-04-06T00:00:00	2024-11-08T19:00:00	4	Temperatura máxima	22.2
97731	7	Sololá	704	Santa Lucía Utatlán 	7	Santa Rita 	6	Junio	2023-04-06T00:00:00	2024-11-08T19:00:00	3	Temperatura mínima	20.8
97732	7	Sololá	704	Santa Lucía Utatlán 	7	Santa Rita 	6	Junio	2023-04-06T00:00:00	2024-11-08T19:00:00	5	Humedad	58
97733	7	Sololá	704	Santa Lucía Utatlán 	7	Santa Rita 	6	Junio	2023-04-06T00:00:00	2024-11-08T19:00:00	6	Velocidad del viento	8
97734	7	Sololá	704	Santa Lucía Utatlán 	7	Santa Rita 	6	Junio	2023-04-06T00:00:00	2024-11-08T19:00:00	7	Dirección del viento	8.05
97735	7	Sololá	704	Santa Lucía Utatlán 	7	Santa Rita 	6	Junio	2023-04-06T00:00:00	2024-11-08T19:00:00	1	Precipitación	0
97736	7	Sololá	704	Santa Lucía Utatlán 	7	Santa Rita 	6	Junio	2023-04-06T00:00:00	2024-11-08T19:00:00	8	Radiación solar	0
97737	7	Sololá	704	Santa Lucía Utatlán 	7	Santa Rita 	6	Junio	2023-04-06T00:00:00	2024-11-08T20:00:00	2	Temperatura media	20.3
97738	7	Sololá	704	Santa Lucía Utatlán 	7	Santa Rita 	6	Junio	2023-04-06T00:00:00	2024-11-08T20:00:00	4	Temperatura máxima	21.6
97739	7	Sololá	704	Santa Lucía Utatlán 	7	Santa Rita 	6	Junio	2023-04-06T00:00:00	2024-11-08T20:00:00	3	Temperatura mínima	20.3
97740	7	Sololá	704	Santa Lucía Utatlán 	7	Santa Rita 	6	Junio	2023-04-06T00:00:00	2024-11-08T20:00:00	5	Humedad	68
97741	7	Sololá	704	Santa Lucía Utatlán 	7	Santa Rita 	6	Junio	2023-04-06T00:00:00	2024-11-08T20:00:00	6	Velocidad del viento	4.8
97742	7	Sololá	704	Santa Lucía Utatlán 	7	Santa Rita 	6	Junio	2023-04-06T00:00:00	2024-11-08T20:00:00	7	Dirección del viento	4.83
97743	7	Sololá	704	Santa Lucía Utatlán 	7	Santa Rita 	6	Junio	2023-04-06T00:00:00	2024-11-08T20:00:00	1	Precipitación	0
97744	7	Sololá	704	Santa Lucía Utatlán 	7	Santa Rita 	6	Junio	2023-04-06T00:00:00	2024-11-08T20:00:00	8	Radiación solar	0
97745	7	Sololá	704	Santa Lucía Utatlán 	7	Santa Rita 	6	Junio	2023-04-06T00:00:00	2024-11-08T21:00:00	2	Temperatura media	19
97746	7	Sololá	704	Santa Lucía Utatlán 	7	Santa Rita 	6	Junio	2023-04-06T00:00:00	2024-11-08T21:00:00	4	Temperatura máxima	20.3
97747	7	Sololá	704	Santa Lucía Utatlán 	7	Santa Rita 	6	Junio	2023-04-06T00:00:00	2024-11-08T21:00:00	3	Temperatura mínima	18.9
97748	7	Sololá	704	Santa Lucía Utatlán 	7	Santa Rita 	6	Junio	2023-04-06T00:00:00	2024-11-08T21:00:00	5	Humedad	85
97749	7	Sololá	704	Santa Lucía Utatlán 	7	Santa Rita 	6	Junio	2023-04-06T00:00:00	2024-11-08T21:00:00	6	Velocidad del viento	3.2
97750	7	Sololá	704	Santa Lucía Utatlán 	7	Santa Rita 	6	Junio	2023-04-06T00:00:00	2024-11-08T21:00:00	7	Dirección del viento	3.22
97751	7	Sololá	704	Santa Lucía Utatlán 	7	Santa Rita 	6	Junio	2023-04-06T00:00:00	2024-11-08T21:00:00	1	Precipitación	0
97752	7	Sololá	704	Santa Lucía Utatlán 	7	Santa Rita 	6	Junio	2023-04-06T00:00:00	2024-11-08T21:00:00	8	Radiación solar	0
97753	7	Sololá	704	Santa Lucía Utatlán 	7	Santa Rita 	6	Junio	2023-04-06T00:00:00	2024-11-08T22:00:00	2	Temperatura media	18.9
97754	7	Sololá	704	Santa Lucía Utatlán 	7	Santa Rita 	6	Junio	2023-04-06T00:00:00	2024-11-08T22:00:00	4	Temperatura máxima	19.1
97755	7	Sololá	704	Santa Lucía Utatlán 	7	Santa Rita 	6	Junio	2023-04-06T00:00:00	2024-11-08T22:00:00	3	Temperatura mínima	18.7
97756	7	Sololá	704	Santa Lucía Utatlán 	7	Santa Rita 	6	Junio	2023-04-06T00:00:00	2024-11-08T22:00:00	5	Humedad	88
97757	7	Sololá	704	Santa Lucía Utatlán 	7	Santa Rita 	6	Junio	2023-04-06T00:00:00	2024-11-08T22:00:00	6	Velocidad del viento	3.2
97758	7	Sololá	704	Santa Lucía Utatlán 	7	Santa Rita 	6	Junio	2023-04-06T00:00:00	2024-11-08T22:00:00	7	Dirección del viento	3.22
97759	7	Sololá	704	Santa Lucía Utatlán 	7	Santa Rita 	6	Junio	2023-04-06T00:00:00	2024-11-08T22:00:00	1	Precipitación	0
97760	7	Sololá	704	Santa Lucía Utatlán 	7	Santa Rita 	6	Junio	2023-04-06T00:00:00	2024-11-08T22:00:00	8	Radiación solar	0
97761	7	Sololá	704	Santa Lucía Utatlán 	7	Santa Rita 	6	Junio	2023-04-06T00:00:00	2024-11-08T23:00:00	2	Temperatura media	18.9
97762	7	Sololá	704	Santa Lucía Utatlán 	7	Santa Rita 	6	Junio	2023-04-06T00:00:00	2024-11-08T23:00:00	4	Temperatura máxima	19.1
97763	7	Sololá	704	Santa Lucía Utatlán 	7	Santa Rita 	6	Junio	2023-04-06T00:00:00	2024-11-08T23:00:00	3	Temperatura mínima	18.8
97764	7	Sololá	704	Santa Lucía Utatlán 	7	Santa Rita 	6	Junio	2023-04-06T00:00:00	2024-11-08T23:00:00	5	Humedad	81
97765	7	Sololá	704	Santa Lucía Utatlán 	7	Santa Rita 	6	Junio	2023-04-06T00:00:00	2024-11-08T23:00:00	6	Velocidad del viento	3.2
97766	7	Sololá	704	Santa Lucía Utatlán 	7	Santa Rita 	6	Junio	2023-04-06T00:00:00	2024-11-08T23:00:00	7	Dirección del viento	3.22
97767	7	Sololá	704	Santa Lucía Utatlán 	7	Santa Rita 	6	Junio	2023-04-06T00:00:00	2024-11-08T23:00:00	1	Precipitación	0
97768	7	Sololá	704	Santa Lucía Utatlán 	7	Santa Rita 	6	Junio	2023-04-06T00:00:00	2024-11-08T23:00:00	8	Radiación solar	0
97769	7	Sololá	704	Santa Lucía Utatlán 	7	Santa Rita 	6	Junio	2023-05-06T00:00:00	2024-11-08T00:00:00	2	Temperatura media	18.3
97770	7	Sololá	704	Santa Lucía Utatlán 	7	Santa Rita 	6	Junio	2023-05-06T00:00:00	2024-11-08T00:00:00	4	Temperatura máxima	19
97771	7	Sololá	704	Santa Lucía Utatlán 	7	Santa Rita 	6	Junio	2023-05-06T00:00:00	2024-11-08T00:00:00	3	Temperatura mínima	18.2
97772	7	Sololá	704	Santa Lucía Utatlán 	7	Santa Rita 	6	Junio	2023-05-06T00:00:00	2024-11-08T00:00:00	5	Humedad	78
97773	7	Sololá	704	Santa Lucía Utatlán 	7	Santa Rita 	6	Junio	2023-05-06T00:00:00	2024-11-08T00:00:00	6	Velocidad del viento	4.8
97774	7	Sololá	704	Santa Lucía Utatlán 	7	Santa Rita 	6	Junio	2023-05-06T00:00:00	2024-11-08T00:00:00	7	Dirección del viento	4.83
97775	7	Sololá	704	Santa Lucía Utatlán 	7	Santa Rita 	6	Junio	2023-05-06T00:00:00	2024-11-08T00:00:00	1	Precipitación	0
97776	7	Sololá	704	Santa Lucía Utatlán 	7	Santa Rita 	6	Junio	2023-05-06T00:00:00	2024-11-08T00:00:00	8	Radiación solar	0
97777	7	Sololá	704	Santa Lucía Utatlán 	7	Santa Rita 	6	Junio	2023-05-06T00:00:00	2024-11-08T01:00:00	2	Temperatura media	17.9
97778	7	Sololá	704	Santa Lucía Utatlán 	7	Santa Rita 	6	Junio	2023-05-06T00:00:00	2024-11-08T01:00:00	4	Temperatura máxima	18.4
97779	7	Sololá	704	Santa Lucía Utatlán 	7	Santa Rita 	6	Junio	2023-05-06T00:00:00	2024-11-08T01:00:00	3	Temperatura mínima	17.6
97780	7	Sololá	704	Santa Lucía Utatlán 	7	Santa Rita 	6	Junio	2023-05-06T00:00:00	2024-11-08T01:00:00	5	Humedad	80
97781	7	Sololá	704	Santa Lucía Utatlán 	7	Santa Rita 	6	Junio	2023-05-06T00:00:00	2024-11-08T01:00:00	6	Velocidad del viento	3.2
97782	7	Sololá	704	Santa Lucía Utatlán 	7	Santa Rita 	6	Junio	2023-05-06T00:00:00	2024-11-08T01:00:00	7	Dirección del viento	3.22
97783	7	Sololá	704	Santa Lucía Utatlán 	7	Santa Rita 	6	Junio	2023-05-06T00:00:00	2024-11-08T01:00:00	1	Precipitación	0
97784	7	Sololá	704	Santa Lucía Utatlán 	7	Santa Rita 	6	Junio	2023-05-06T00:00:00	2024-11-08T01:00:00	8	Radiación solar	0
97785	7	Sololá	704	Santa Lucía Utatlán 	7	Santa Rita 	6	Junio	2023-05-06T00:00:00	2024-11-08T02:00:00	2	Temperatura media	17.2
97786	7	Sololá	704	Santa Lucía Utatlán 	7	Santa Rita 	6	Junio	2023-05-06T00:00:00	2024-11-08T02:00:00	4	Temperatura máxima	17.8
97787	7	Sololá	704	Santa Lucía Utatlán 	7	Santa Rita 	6	Junio	2023-05-06T00:00:00	2024-11-08T02:00:00	3	Temperatura mínima	16.8
97788	7	Sololá	704	Santa Lucía Utatlán 	7	Santa Rita 	6	Junio	2023-05-06T00:00:00	2024-11-08T02:00:00	5	Humedad	78
97789	7	Sololá	704	Santa Lucía Utatlán 	7	Santa Rita 	6	Junio	2023-05-06T00:00:00	2024-11-08T02:00:00	6	Velocidad del viento	3.2
97790	7	Sololá	704	Santa Lucía Utatlán 	7	Santa Rita 	6	Junio	2023-05-06T00:00:00	2024-11-08T02:00:00	7	Dirección del viento	3.22
97791	7	Sololá	704	Santa Lucía Utatlán 	7	Santa Rita 	6	Junio	2023-05-06T00:00:00	2024-11-08T02:00:00	1	Precipitación	0
97792	7	Sololá	704	Santa Lucía Utatlán 	7	Santa Rita 	6	Junio	2023-05-06T00:00:00	2024-11-08T02:00:00	8	Radiación solar	0
97793	7	Sololá	704	Santa Lucía Utatlán 	7	Santa Rita 	6	Junio	2023-05-06T00:00:00	2024-11-08T03:00:00	2	Temperatura media	16.7
97794	7	Sololá	704	Santa Lucía Utatlán 	7	Santa Rita 	6	Junio	2023-05-06T00:00:00	2024-11-08T03:00:00	4	Temperatura máxima	17.5
97795	7	Sololá	704	Santa Lucía Utatlán 	7	Santa Rita 	6	Junio	2023-05-06T00:00:00	2024-11-08T03:00:00	3	Temperatura mínima	16.7
97796	7	Sololá	704	Santa Lucía Utatlán 	7	Santa Rita 	6	Junio	2023-05-06T00:00:00	2024-11-08T03:00:00	5	Humedad	80
97797	7	Sololá	704	Santa Lucía Utatlán 	7	Santa Rita 	6	Junio	2023-05-06T00:00:00	2024-11-08T03:00:00	6	Velocidad del viento	4.8
97798	7	Sololá	704	Santa Lucía Utatlán 	7	Santa Rita 	6	Junio	2023-05-06T00:00:00	2024-11-08T03:00:00	7	Dirección del viento	4.83
97799	7	Sololá	704	Santa Lucía Utatlán 	7	Santa Rita 	6	Junio	2023-05-06T00:00:00	2024-11-08T03:00:00	1	Precipitación	0
97800	7	Sololá	704	Santa Lucía Utatlán 	7	Santa Rita 	6	Junio	2023-05-06T00:00:00	2024-11-08T03:00:00	8	Radiación solar	0
97801	7	Sololá	704	Santa Lucía Utatlán 	7	Santa Rita 	6	Junio	2023-05-06T00:00:00	2024-11-08T04:00:00	2	Temperatura media	16.7
97802	7	Sololá	704	Santa Lucía Utatlán 	7	Santa Rita 	6	Junio	2023-05-06T00:00:00	2024-11-08T04:00:00	4	Temperatura máxima	17.1
97803	7	Sololá	704	Santa Lucía Utatlán 	7	Santa Rita 	6	Junio	2023-05-06T00:00:00	2024-11-08T04:00:00	3	Temperatura mínima	16.6
97804	7	Sololá	704	Santa Lucía Utatlán 	7	Santa Rita 	6	Junio	2023-05-06T00:00:00	2024-11-08T04:00:00	5	Humedad	79
97805	7	Sololá	704	Santa Lucía Utatlán 	7	Santa Rita 	6	Junio	2023-05-06T00:00:00	2024-11-08T04:00:00	6	Velocidad del viento	4.8
97806	7	Sololá	704	Santa Lucía Utatlán 	7	Santa Rita 	6	Junio	2023-05-06T00:00:00	2024-11-08T04:00:00	7	Dirección del viento	4.83
97807	7	Sololá	704	Santa Lucía Utatlán 	7	Santa Rita 	6	Junio	2023-05-06T00:00:00	2024-11-08T04:00:00	1	Precipitación	0
97808	7	Sololá	704	Santa Lucía Utatlán 	7	Santa Rita 	6	Junio	2023-05-06T00:00:00	2024-11-08T04:00:00	8	Radiación solar	0
97809	7	Sololá	704	Santa Lucía Utatlán 	7	Santa Rita 	6	Junio	2023-05-06T00:00:00	2024-11-08T05:00:00	2	Temperatura media	16.7
97810	7	Sololá	704	Santa Lucía Utatlán 	7	Santa Rita 	6	Junio	2023-05-06T00:00:00	2024-11-08T05:00:00	4	Temperatura máxima	16.8
97811	7	Sololá	704	Santa Lucía Utatlán 	7	Santa Rita 	6	Junio	2023-05-06T00:00:00	2024-11-08T05:00:00	3	Temperatura mínima	16.4
97812	7	Sololá	704	Santa Lucía Utatlán 	7	Santa Rita 	6	Junio	2023-05-06T00:00:00	2024-11-08T05:00:00	5	Humedad	82
97813	7	Sololá	704	Santa Lucía Utatlán 	7	Santa Rita 	6	Junio	2023-05-06T00:00:00	2024-11-08T05:00:00	6	Velocidad del viento	6.4
97814	7	Sololá	704	Santa Lucía Utatlán 	7	Santa Rita 	6	Junio	2023-05-06T00:00:00	2024-11-08T05:00:00	7	Dirección del viento	6.44
97815	7	Sololá	704	Santa Lucía Utatlán 	7	Santa Rita 	6	Junio	2023-05-06T00:00:00	2024-11-08T05:00:00	1	Precipitación	0
97816	7	Sololá	704	Santa Lucía Utatlán 	7	Santa Rita 	6	Junio	2023-05-06T00:00:00	2024-11-08T05:00:00	8	Radiación solar	0
97817	7	Sololá	704	Santa Lucía Utatlán 	7	Santa Rita 	6	Junio	2023-05-06T00:00:00	2024-11-08T06:00:00	2	Temperatura media	16.9
97818	7	Sololá	704	Santa Lucía Utatlán 	7	Santa Rita 	6	Junio	2023-05-06T00:00:00	2024-11-08T06:00:00	4	Temperatura máxima	16.9
97819	7	Sololá	704	Santa Lucía Utatlán 	7	Santa Rita 	6	Junio	2023-05-06T00:00:00	2024-11-08T06:00:00	3	Temperatura mínima	16.5
97820	7	Sololá	704	Santa Lucía Utatlán 	7	Santa Rita 	6	Junio	2023-05-06T00:00:00	2024-11-08T06:00:00	5	Humedad	83
97821	7	Sololá	704	Santa Lucía Utatlán 	7	Santa Rita 	6	Junio	2023-05-06T00:00:00	2024-11-08T06:00:00	6	Velocidad del viento	6.4
97822	7	Sololá	704	Santa Lucía Utatlán 	7	Santa Rita 	6	Junio	2023-05-06T00:00:00	2024-11-08T06:00:00	7	Dirección del viento	6.44
97823	7	Sololá	704	Santa Lucía Utatlán 	7	Santa Rita 	6	Junio	2023-05-06T00:00:00	2024-11-08T06:00:00	1	Precipitación	0
97824	7	Sololá	704	Santa Lucía Utatlán 	7	Santa Rita 	6	Junio	2023-05-06T00:00:00	2024-11-08T06:00:00	8	Radiación solar	4
97825	7	Sololá	704	Santa Lucía Utatlán 	7	Santa Rita 	6	Junio	2023-05-06T00:00:00	2024-11-08T07:00:00	2	Temperatura media	19.3
97826	7	Sololá	704	Santa Lucía Utatlán 	7	Santa Rita 	6	Junio	2023-05-06T00:00:00	2024-11-08T07:00:00	4	Temperatura máxima	19.3
97827	7	Sololá	704	Santa Lucía Utatlán 	7	Santa Rita 	6	Junio	2023-05-06T00:00:00	2024-11-08T07:00:00	3	Temperatura mínima	16.8
97828	7	Sololá	704	Santa Lucía Utatlán 	7	Santa Rita 	6	Junio	2023-05-06T00:00:00	2024-11-08T07:00:00	5	Humedad	77
97829	7	Sololá	704	Santa Lucía Utatlán 	7	Santa Rita 	6	Junio	2023-05-06T00:00:00	2024-11-08T07:00:00	6	Velocidad del viento	4.8
97830	7	Sololá	704	Santa Lucía Utatlán 	7	Santa Rita 	6	Junio	2023-05-06T00:00:00	2024-11-08T07:00:00	7	Dirección del viento	4.83
97831	7	Sololá	704	Santa Lucía Utatlán 	7	Santa Rita 	6	Junio	2023-05-06T00:00:00	2024-11-08T07:00:00	1	Precipitación	0
97832	7	Sololá	704	Santa Lucía Utatlán 	7	Santa Rita 	6	Junio	2023-05-06T00:00:00	2024-11-08T07:00:00	8	Radiación solar	88
97833	7	Sololá	704	Santa Lucía Utatlán 	7	Santa Rita 	6	Junio	2023-05-06T00:00:00	2024-11-08T08:00:00	2	Temperatura media	22.8
97834	7	Sololá	704	Santa Lucía Utatlán 	7	Santa Rita 	6	Junio	2023-05-06T00:00:00	2024-11-08T08:00:00	4	Temperatura máxima	23
97835	7	Sololá	704	Santa Lucía Utatlán 	7	Santa Rita 	6	Junio	2023-05-06T00:00:00	2024-11-08T08:00:00	3	Temperatura mínima	19.3
97836	7	Sololá	704	Santa Lucía Utatlán 	7	Santa Rita 	6	Junio	2023-05-06T00:00:00	2024-11-08T08:00:00	5	Humedad	62
97837	7	Sololá	704	Santa Lucía Utatlán 	7	Santa Rita 	6	Junio	2023-05-06T00:00:00	2024-11-08T08:00:00	6	Velocidad del viento	3.2
97838	7	Sololá	704	Santa Lucía Utatlán 	7	Santa Rita 	6	Junio	2023-05-06T00:00:00	2024-11-08T08:00:00	7	Dirección del viento	3.22
97839	7	Sololá	704	Santa Lucía Utatlán 	7	Santa Rita 	6	Junio	2023-05-06T00:00:00	2024-11-08T08:00:00	1	Precipitación	0
97840	7	Sololá	704	Santa Lucía Utatlán 	7	Santa Rita 	6	Junio	2023-05-06T00:00:00	2024-11-08T08:00:00	8	Radiación solar	402
97841	7	Sololá	704	Santa Lucía Utatlán 	7	Santa Rita 	6	Junio	2023-05-06T00:00:00	2024-11-08T09:00:00	2	Temperatura media	22.3
97842	7	Sololá	704	Santa Lucía Utatlán 	7	Santa Rita 	6	Junio	2023-05-06T00:00:00	2024-11-08T09:00:00	4	Temperatura máxima	22.8
97843	7	Sololá	704	Santa Lucía Utatlán 	7	Santa Rita 	6	Junio	2023-05-06T00:00:00	2024-11-08T09:00:00	3	Temperatura mínima	22.1
97844	7	Sololá	704	Santa Lucía Utatlán 	7	Santa Rita 	6	Junio	2023-05-06T00:00:00	2024-11-08T09:00:00	5	Humedad	65
97845	7	Sololá	704	Santa Lucía Utatlán 	7	Santa Rita 	6	Junio	2023-05-06T00:00:00	2024-11-08T09:00:00	6	Velocidad del viento	4.8
97846	7	Sololá	704	Santa Lucía Utatlán 	7	Santa Rita 	6	Junio	2023-05-06T00:00:00	2024-11-08T09:00:00	7	Dirección del viento	4.83
97847	7	Sololá	704	Santa Lucía Utatlán 	7	Santa Rita 	6	Junio	2023-05-06T00:00:00	2024-11-08T09:00:00	1	Precipitación	0
97848	7	Sololá	704	Santa Lucía Utatlán 	7	Santa Rita 	6	Junio	2023-05-06T00:00:00	2024-11-08T09:00:00	8	Radiación solar	486
97849	7	Sololá	704	Santa Lucía Utatlán 	7	Santa Rita 	6	Junio	2023-05-06T00:00:00	2024-11-08T10:00:00	2	Temperatura media	23.2
97850	7	Sololá	704	Santa Lucía Utatlán 	7	Santa Rita 	6	Junio	2023-05-06T00:00:00	2024-11-08T10:00:00	4	Temperatura máxima	23.3
97851	7	Sololá	704	Santa Lucía Utatlán 	7	Santa Rita 	6	Junio	2023-05-06T00:00:00	2024-11-08T10:00:00	3	Temperatura mínima	22.1
97852	7	Sololá	704	Santa Lucía Utatlán 	7	Santa Rita 	6	Junio	2023-05-06T00:00:00	2024-11-08T10:00:00	5	Humedad	71
97853	7	Sololá	704	Santa Lucía Utatlán 	7	Santa Rita 	6	Junio	2023-05-06T00:00:00	2024-11-08T10:00:00	6	Velocidad del viento	4.8
97854	7	Sololá	704	Santa Lucía Utatlán 	7	Santa Rita 	6	Junio	2023-05-06T00:00:00	2024-11-08T10:00:00	7	Dirección del viento	4.83
97855	7	Sololá	704	Santa Lucía Utatlán 	7	Santa Rita 	6	Junio	2023-05-06T00:00:00	2024-11-08T10:00:00	1	Precipitación	0
97856	7	Sololá	704	Santa Lucía Utatlán 	7	Santa Rita 	6	Junio	2023-05-06T00:00:00	2024-11-08T10:00:00	8	Radiación solar	702
97857	7	Sololá	704	Santa Lucía Utatlán 	7	Santa Rita 	6	Junio	2023-05-06T00:00:00	2024-11-08T11:00:00	2	Temperatura media	22.1
97858	7	Sololá	704	Santa Lucía Utatlán 	7	Santa Rita 	6	Junio	2023-05-06T00:00:00	2024-11-08T11:00:00	4	Temperatura máxima	23.1
97859	7	Sololá	704	Santa Lucía Utatlán 	7	Santa Rita 	6	Junio	2023-05-06T00:00:00	2024-11-08T11:00:00	3	Temperatura mínima	21.9
97860	7	Sololá	704	Santa Lucía Utatlán 	7	Santa Rita 	6	Junio	2023-05-06T00:00:00	2024-11-08T11:00:00	5	Humedad	78
97861	7	Sololá	704	Santa Lucía Utatlán 	7	Santa Rita 	6	Junio	2023-05-06T00:00:00	2024-11-08T11:00:00	6	Velocidad del viento	8
97862	7	Sololá	704	Santa Lucía Utatlán 	7	Santa Rita 	6	Junio	2023-05-06T00:00:00	2024-11-08T11:00:00	7	Dirección del viento	8.05
97863	7	Sololá	704	Santa Lucía Utatlán 	7	Santa Rita 	6	Junio	2023-05-06T00:00:00	2024-11-08T11:00:00	1	Precipitación	0
97864	7	Sololá	704	Santa Lucía Utatlán 	7	Santa Rita 	6	Junio	2023-05-06T00:00:00	2024-11-08T11:00:00	8	Radiación solar	521
97865	7	Sololá	704	Santa Lucía Utatlán 	7	Santa Rita 	6	Junio	2023-05-06T00:00:00	2024-11-08T12:00:00	2	Temperatura media	24.1
97866	7	Sololá	704	Santa Lucía Utatlán 	7	Santa Rita 	6	Junio	2023-05-06T00:00:00	2024-11-08T12:00:00	4	Temperatura máxima	24.6
97867	7	Sololá	704	Santa Lucía Utatlán 	7	Santa Rita 	6	Junio	2023-05-06T00:00:00	2024-11-08T12:00:00	3	Temperatura mínima	22.1
97868	7	Sololá	704	Santa Lucía Utatlán 	7	Santa Rita 	6	Junio	2023-05-06T00:00:00	2024-11-08T12:00:00	5	Humedad	71
97869	7	Sololá	704	Santa Lucía Utatlán 	7	Santa Rita 	6	Junio	2023-05-06T00:00:00	2024-11-08T12:00:00	6	Velocidad del viento	4.8
97870	7	Sololá	704	Santa Lucía Utatlán 	7	Santa Rita 	6	Junio	2023-05-06T00:00:00	2024-11-08T12:00:00	7	Dirección del viento	4.83
97871	7	Sololá	704	Santa Lucía Utatlán 	7	Santa Rita 	6	Junio	2023-05-06T00:00:00	2024-11-08T12:00:00	1	Precipitación	0
97872	7	Sololá	704	Santa Lucía Utatlán 	7	Santa Rita 	6	Junio	2023-05-06T00:00:00	2024-11-08T12:00:00	8	Radiación solar	714
97873	7	Sololá	704	Santa Lucía Utatlán 	7	Santa Rita 	6	Junio	2023-05-06T00:00:00	2024-11-08T13:00:00	2	Temperatura media	24.2
97874	7	Sololá	704	Santa Lucía Utatlán 	7	Santa Rita 	6	Junio	2023-05-06T00:00:00	2024-11-08T13:00:00	4	Temperatura máxima	24.3
97875	7	Sololá	704	Santa Lucía Utatlán 	7	Santa Rita 	6	Junio	2023-05-06T00:00:00	2024-11-08T13:00:00	3	Temperatura mínima	23.9
97876	7	Sololá	704	Santa Lucía Utatlán 	7	Santa Rita 	6	Junio	2023-05-06T00:00:00	2024-11-08T13:00:00	5	Humedad	69
97877	7	Sololá	704	Santa Lucía Utatlán 	7	Santa Rita 	6	Junio	2023-05-06T00:00:00	2024-11-08T13:00:00	6	Velocidad del viento	8
97878	7	Sololá	704	Santa Lucía Utatlán 	7	Santa Rita 	6	Junio	2023-05-06T00:00:00	2024-11-08T13:00:00	7	Dirección del viento	8.05
97879	7	Sololá	704	Santa Lucía Utatlán 	7	Santa Rita 	6	Junio	2023-05-06T00:00:00	2024-11-08T13:00:00	1	Precipitación	0
97880	7	Sololá	704	Santa Lucía Utatlán 	7	Santa Rita 	6	Junio	2023-05-06T00:00:00	2024-11-08T13:00:00	8	Radiación solar	846
97881	7	Sololá	704	Santa Lucía Utatlán 	7	Santa Rita 	6	Junio	2023-05-06T00:00:00	2024-11-08T14:00:00	2	Temperatura media	22.7
97882	7	Sololá	704	Santa Lucía Utatlán 	7	Santa Rita 	6	Junio	2023-05-06T00:00:00	2024-11-08T14:00:00	4	Temperatura máxima	24.4
97883	7	Sololá	704	Santa Lucía Utatlán 	7	Santa Rita 	6	Junio	2023-05-06T00:00:00	2024-11-08T14:00:00	3	Temperatura mínima	22.7
97884	7	Sololá	704	Santa Lucía Utatlán 	7	Santa Rita 	6	Junio	2023-05-06T00:00:00	2024-11-08T14:00:00	5	Humedad	79
97885	7	Sololá	704	Santa Lucía Utatlán 	7	Santa Rita 	6	Junio	2023-05-06T00:00:00	2024-11-08T14:00:00	6	Velocidad del viento	8
97886	7	Sololá	704	Santa Lucía Utatlán 	7	Santa Rita 	6	Junio	2023-05-06T00:00:00	2024-11-08T14:00:00	7	Dirección del viento	8.05
97887	7	Sololá	704	Santa Lucía Utatlán 	7	Santa Rita 	6	Junio	2023-05-06T00:00:00	2024-11-08T14:00:00	1	Precipitación	0
97888	7	Sololá	704	Santa Lucía Utatlán 	7	Santa Rita 	6	Junio	2023-05-06T00:00:00	2024-11-08T14:00:00	8	Radiación solar	437
97889	7	Sololá	704	Santa Lucía Utatlán 	7	Santa Rita 	6	Junio	2023-05-06T00:00:00	2024-11-08T15:00:00	2	Temperatura media	23.5
97890	7	Sololá	704	Santa Lucía Utatlán 	7	Santa Rita 	6	Junio	2023-05-06T00:00:00	2024-11-08T15:00:00	4	Temperatura máxima	23.5
97891	7	Sololá	704	Santa Lucía Utatlán 	7	Santa Rita 	6	Junio	2023-05-06T00:00:00	2024-11-08T15:00:00	3	Temperatura mínima	22.6
97892	7	Sololá	704	Santa Lucía Utatlán 	7	Santa Rita 	6	Junio	2023-05-06T00:00:00	2024-11-08T15:00:00	5	Humedad	73
97893	7	Sololá	704	Santa Lucía Utatlán 	7	Santa Rita 	6	Junio	2023-05-06T00:00:00	2024-11-08T15:00:00	6	Velocidad del viento	6.4
97894	7	Sololá	704	Santa Lucía Utatlán 	7	Santa Rita 	6	Junio	2023-05-06T00:00:00	2024-11-08T15:00:00	7	Dirección del viento	6.44
97895	7	Sololá	704	Santa Lucía Utatlán 	7	Santa Rita 	6	Junio	2023-05-06T00:00:00	2024-11-08T15:00:00	1	Precipitación	0
97896	7	Sololá	704	Santa Lucía Utatlán 	7	Santa Rita 	6	Junio	2023-05-06T00:00:00	2024-11-08T15:00:00	8	Radiación solar	490
97897	7	Sololá	704	Santa Lucía Utatlán 	7	Santa Rita 	6	Junio	2023-05-06T00:00:00	2024-11-08T16:00:00	2	Temperatura media	22.6
97898	7	Sololá	704	Santa Lucía Utatlán 	7	Santa Rita 	6	Junio	2023-05-06T00:00:00	2024-11-08T16:00:00	4	Temperatura máxima	23.9
97899	7	Sololá	704	Santa Lucía Utatlán 	7	Santa Rita 	6	Junio	2023-05-06T00:00:00	2024-11-08T16:00:00	3	Temperatura mínima	22.6
97900	7	Sololá	704	Santa Lucía Utatlán 	7	Santa Rita 	6	Junio	2023-05-06T00:00:00	2024-11-08T16:00:00	5	Humedad	79
97901	7	Sololá	704	Santa Lucía Utatlán 	7	Santa Rita 	6	Junio	2023-05-06T00:00:00	2024-11-08T16:00:00	6	Velocidad del viento	4.8
97902	7	Sololá	704	Santa Lucía Utatlán 	7	Santa Rita 	6	Junio	2023-05-06T00:00:00	2024-11-08T16:00:00	7	Dirección del viento	4.83
97903	7	Sololá	704	Santa Lucía Utatlán 	7	Santa Rita 	6	Junio	2023-05-06T00:00:00	2024-11-08T16:00:00	1	Precipitación	0
97904	7	Sololá	704	Santa Lucía Utatlán 	7	Santa Rita 	6	Junio	2023-05-06T00:00:00	2024-11-08T16:00:00	8	Radiación solar	342
97905	7	Sololá	704	Santa Lucía Utatlán 	7	Santa Rita 	6	Junio	2023-05-06T00:00:00	2024-11-08T17:00:00	2	Temperatura media	21.9
97906	7	Sololá	704	Santa Lucía Utatlán 	7	Santa Rita 	6	Junio	2023-05-06T00:00:00	2024-11-08T17:00:00	4	Temperatura máxima	23.2
97907	7	Sololá	704	Santa Lucía Utatlán 	7	Santa Rita 	6	Junio	2023-05-06T00:00:00	2024-11-08T17:00:00	3	Temperatura mínima	21.8
97908	7	Sololá	704	Santa Lucía Utatlán 	7	Santa Rita 	6	Junio	2023-05-06T00:00:00	2024-11-08T17:00:00	5	Humedad	85
97909	7	Sololá	704	Santa Lucía Utatlán 	7	Santa Rita 	6	Junio	2023-05-06T00:00:00	2024-11-08T17:00:00	6	Velocidad del viento	3.2
97910	7	Sololá	704	Santa Lucía Utatlán 	7	Santa Rita 	6	Junio	2023-05-06T00:00:00	2024-11-08T17:00:00	7	Dirección del viento	3.22
97911	7	Sololá	704	Santa Lucía Utatlán 	7	Santa Rita 	6	Junio	2023-05-06T00:00:00	2024-11-08T17:00:00	1	Precipitación	0
97912	7	Sololá	704	Santa Lucía Utatlán 	7	Santa Rita 	6	Junio	2023-05-06T00:00:00	2024-11-08T17:00:00	8	Radiación solar	172
97913	7	Sololá	704	Santa Lucía Utatlán 	7	Santa Rita 	6	Junio	2023-05-06T00:00:00	2024-11-08T18:00:00	2	Temperatura media	21.7
97914	7	Sololá	704	Santa Lucía Utatlán 	7	Santa Rita 	6	Junio	2023-05-06T00:00:00	2024-11-08T18:00:00	4	Temperatura máxima	22.2
97915	7	Sololá	704	Santa Lucía Utatlán 	7	Santa Rita 	6	Junio	2023-05-06T00:00:00	2024-11-08T18:00:00	3	Temperatura mínima	21.7
97916	7	Sololá	704	Santa Lucía Utatlán 	7	Santa Rita 	6	Junio	2023-05-06T00:00:00	2024-11-08T18:00:00	5	Humedad	86
97917	7	Sololá	704	Santa Lucía Utatlán 	7	Santa Rita 	6	Junio	2023-05-06T00:00:00	2024-11-08T18:00:00	6	Velocidad del viento	1.6
97918	7	Sololá	704	Santa Lucía Utatlán 	7	Santa Rita 	6	Junio	2023-05-06T00:00:00	2024-11-08T18:00:00	7	Dirección del viento	1.61
97919	7	Sololá	704	Santa Lucía Utatlán 	7	Santa Rita 	6	Junio	2023-05-06T00:00:00	2024-11-08T18:00:00	1	Precipitación	0
97920	7	Sololá	704	Santa Lucía Utatlán 	7	Santa Rita 	6	Junio	2023-05-06T00:00:00	2024-11-08T18:00:00	8	Radiación solar	74
97921	7	Sololá	704	Santa Lucía Utatlán 	7	Santa Rita 	6	Junio	2023-05-06T00:00:00	2024-11-08T19:00:00	2	Temperatura media	20.9
97922	7	Sololá	704	Santa Lucía Utatlán 	7	Santa Rita 	6	Junio	2023-05-06T00:00:00	2024-11-08T19:00:00	4	Temperatura máxima	21.8
97923	7	Sololá	704	Santa Lucía Utatlán 	7	Santa Rita 	6	Junio	2023-05-06T00:00:00	2024-11-08T19:00:00	3	Temperatura mínima	20.9
97924	7	Sololá	704	Santa Lucía Utatlán 	7	Santa Rita 	6	Junio	2023-05-06T00:00:00	2024-11-08T19:00:00	5	Humedad	91
97925	7	Sololá	704	Santa Lucía Utatlán 	7	Santa Rita 	6	Junio	2023-05-06T00:00:00	2024-11-08T19:00:00	6	Velocidad del viento	1.6
97926	7	Sololá	704	Santa Lucía Utatlán 	7	Santa Rita 	6	Junio	2023-05-06T00:00:00	2024-11-08T19:00:00	7	Dirección del viento	1.61
97927	7	Sololá	704	Santa Lucía Utatlán 	7	Santa Rita 	6	Junio	2023-05-06T00:00:00	2024-11-08T19:00:00	1	Precipitación	0
97928	7	Sololá	704	Santa Lucía Utatlán 	7	Santa Rita 	6	Junio	2023-05-06T00:00:00	2024-11-08T19:00:00	8	Radiación solar	0
97929	7	Sololá	704	Santa Lucía Utatlán 	7	Santa Rita 	6	Junio	2023-05-06T00:00:00	2024-11-08T20:00:00	2	Temperatura media	20.1
97930	7	Sololá	704	Santa Lucía Utatlán 	7	Santa Rita 	6	Junio	2023-05-06T00:00:00	2024-11-08T20:00:00	4	Temperatura máxima	20.9
97931	7	Sololá	704	Santa Lucía Utatlán 	7	Santa Rita 	6	Junio	2023-05-06T00:00:00	2024-11-08T20:00:00	3	Temperatura mínima	20.1
97932	7	Sololá	704	Santa Lucía Utatlán 	7	Santa Rita 	6	Junio	2023-05-06T00:00:00	2024-11-08T20:00:00	5	Humedad	94
97933	7	Sololá	704	Santa Lucía Utatlán 	7	Santa Rita 	6	Junio	2023-05-06T00:00:00	2024-11-08T20:00:00	6	Velocidad del viento	1.6
97934	7	Sololá	704	Santa Lucía Utatlán 	7	Santa Rita 	6	Junio	2023-05-06T00:00:00	2024-11-08T20:00:00	7	Dirección del viento	1.61
97935	7	Sololá	704	Santa Lucía Utatlán 	7	Santa Rita 	6	Junio	2023-05-06T00:00:00	2024-11-08T20:00:00	1	Precipitación	0
97936	7	Sololá	704	Santa Lucía Utatlán 	7	Santa Rita 	6	Junio	2023-05-06T00:00:00	2024-11-08T20:00:00	8	Radiación solar	0
97937	7	Sololá	704	Santa Lucía Utatlán 	7	Santa Rita 	6	Junio	2023-05-06T00:00:00	2024-11-08T21:00:00	2	Temperatura media	20.2
97938	7	Sololá	704	Santa Lucía Utatlán 	7	Santa Rita 	6	Junio	2023-05-06T00:00:00	2024-11-08T21:00:00	4	Temperatura máxima	20.3
97939	7	Sololá	704	Santa Lucía Utatlán 	7	Santa Rita 	6	Junio	2023-05-06T00:00:00	2024-11-08T21:00:00	3	Temperatura mínima	20.1
97940	7	Sololá	704	Santa Lucía Utatlán 	7	Santa Rita 	6	Junio	2023-05-06T00:00:00	2024-11-08T21:00:00	5	Humedad	94
97941	7	Sololá	704	Santa Lucía Utatlán 	7	Santa Rita 	6	Junio	2023-05-06T00:00:00	2024-11-08T21:00:00	6	Velocidad del viento	1.6
97942	7	Sololá	704	Santa Lucía Utatlán 	7	Santa Rita 	6	Junio	2023-05-06T00:00:00	2024-11-08T21:00:00	7	Dirección del viento	1.61
97943	7	Sololá	704	Santa Lucía Utatlán 	7	Santa Rita 	6	Junio	2023-05-06T00:00:00	2024-11-08T21:00:00	1	Precipitación	0
97944	7	Sololá	704	Santa Lucía Utatlán 	7	Santa Rita 	6	Junio	2023-05-06T00:00:00	2024-11-08T21:00:00	8	Radiación solar	0
97945	7	Sololá	704	Santa Lucía Utatlán 	7	Santa Rita 	6	Junio	2023-05-06T00:00:00	2024-11-08T22:00:00	2	Temperatura media	20.3
97946	7	Sololá	704	Santa Lucía Utatlán 	7	Santa Rita 	6	Junio	2023-05-06T00:00:00	2024-11-08T22:00:00	4	Temperatura máxima	20.4
97947	7	Sololá	704	Santa Lucía Utatlán 	7	Santa Rita 	6	Junio	2023-05-06T00:00:00	2024-11-08T22:00:00	3	Temperatura mínima	20.2
97948	7	Sololá	704	Santa Lucía Utatlán 	7	Santa Rita 	6	Junio	2023-05-06T00:00:00	2024-11-08T22:00:00	5	Humedad	94
97949	7	Sololá	704	Santa Lucía Utatlán 	7	Santa Rita 	6	Junio	2023-05-06T00:00:00	2024-11-08T22:00:00	6	Velocidad del viento	0
97950	7	Sololá	704	Santa Lucía Utatlán 	7	Santa Rita 	6	Junio	2023-05-06T00:00:00	2024-11-08T22:00:00	7	Dirección del viento	0
97951	7	Sololá	704	Santa Lucía Utatlán 	7	Santa Rita 	6	Junio	2023-05-06T00:00:00	2024-11-08T22:00:00	1	Precipitación	0
97952	7	Sololá	704	Santa Lucía Utatlán 	7	Santa Rita 	6	Junio	2023-05-06T00:00:00	2024-11-08T22:00:00	8	Radiación solar	0
97953	7	Sololá	704	Santa Lucía Utatlán 	7	Santa Rita 	6	Junio	2023-05-06T00:00:00	2024-11-08T23:00:00	2	Temperatura media	19.9
97954	7	Sololá	704	Santa Lucía Utatlán 	7	Santa Rita 	6	Junio	2023-05-06T00:00:00	2024-11-08T23:00:00	4	Temperatura máxima	20.3
97955	7	Sololá	704	Santa Lucía Utatlán 	7	Santa Rita 	6	Junio	2023-05-06T00:00:00	2024-11-08T23:00:00	3	Temperatura mínima	19.9
97956	7	Sololá	704	Santa Lucía Utatlán 	7	Santa Rita 	6	Junio	2023-05-06T00:00:00	2024-11-08T23:00:00	5	Humedad	95
97957	7	Sololá	704	Santa Lucía Utatlán 	7	Santa Rita 	6	Junio	2023-05-06T00:00:00	2024-11-08T23:00:00	6	Velocidad del viento	0
97958	7	Sololá	704	Santa Lucía Utatlán 	7	Santa Rita 	6	Junio	2023-05-06T00:00:00	2024-11-08T23:00:00	7	Dirección del viento	0
97959	7	Sololá	704	Santa Lucía Utatlán 	7	Santa Rita 	6	Junio	2023-05-06T00:00:00	2024-11-08T23:00:00	1	Precipitación	0
97960	7	Sololá	704	Santa Lucía Utatlán 	7	Santa Rita 	6	Junio	2023-05-06T00:00:00	2024-11-08T23:00:00	8	Radiación solar	0
97961	7	Sololá	704	Santa Lucía Utatlán 	7	Santa Rita 	6	Junio	2023-06-06T00:00:00	2024-11-08T00:00:00	2	Temperatura media	20
97962	7	Sololá	704	Santa Lucía Utatlán 	7	Santa Rita 	6	Junio	2023-06-06T00:00:00	2024-11-08T00:00:00	4	Temperatura máxima	20
97963	7	Sololá	704	Santa Lucía Utatlán 	7	Santa Rita 	6	Junio	2023-06-06T00:00:00	2024-11-08T00:00:00	3	Temperatura mínima	19.8
97964	7	Sololá	704	Santa Lucía Utatlán 	7	Santa Rita 	6	Junio	2023-06-06T00:00:00	2024-11-08T00:00:00	5	Humedad	92
97965	7	Sololá	704	Santa Lucía Utatlán 	7	Santa Rita 	6	Junio	2023-06-06T00:00:00	2024-11-08T00:00:00	6	Velocidad del viento	1.6
97966	7	Sololá	704	Santa Lucía Utatlán 	7	Santa Rita 	6	Junio	2023-06-06T00:00:00	2024-11-08T00:00:00	7	Dirección del viento	1.61
97967	7	Sololá	704	Santa Lucía Utatlán 	7	Santa Rita 	6	Junio	2023-06-06T00:00:00	2024-11-08T00:00:00	1	Precipitación	0
97968	7	Sololá	704	Santa Lucía Utatlán 	7	Santa Rita 	6	Junio	2023-06-06T00:00:00	2024-11-08T00:00:00	8	Radiación solar	0
97969	7	Sololá	704	Santa Lucía Utatlán 	7	Santa Rita 	6	Junio	2023-06-06T00:00:00	2024-11-08T01:00:00	2	Temperatura media	18.5
97970	7	Sololá	704	Santa Lucía Utatlán 	7	Santa Rita 	6	Junio	2023-06-06T00:00:00	2024-11-08T01:00:00	4	Temperatura máxima	20
97971	7	Sololá	704	Santa Lucía Utatlán 	7	Santa Rita 	6	Junio	2023-06-06T00:00:00	2024-11-08T01:00:00	3	Temperatura mínima	18.5
97972	7	Sololá	704	Santa Lucía Utatlán 	7	Santa Rita 	6	Junio	2023-06-06T00:00:00	2024-11-08T01:00:00	5	Humedad	83
97973	7	Sololá	704	Santa Lucía Utatlán 	7	Santa Rita 	6	Junio	2023-06-06T00:00:00	2024-11-08T01:00:00	6	Velocidad del viento	3.2
97974	7	Sololá	704	Santa Lucía Utatlán 	7	Santa Rita 	6	Junio	2023-06-06T00:00:00	2024-11-08T01:00:00	7	Dirección del viento	3.22
97975	7	Sololá	704	Santa Lucía Utatlán 	7	Santa Rita 	6	Junio	2023-06-06T00:00:00	2024-11-08T01:00:00	1	Precipitación	0
97976	7	Sololá	704	Santa Lucía Utatlán 	7	Santa Rita 	6	Junio	2023-06-06T00:00:00	2024-11-08T01:00:00	8	Radiación solar	0
97977	7	Sololá	704	Santa Lucía Utatlán 	7	Santa Rita 	6	Junio	2023-06-06T00:00:00	2024-11-08T02:00:00	2	Temperatura media	19.2
97978	7	Sololá	704	Santa Lucía Utatlán 	7	Santa Rita 	6	Junio	2023-06-06T00:00:00	2024-11-08T02:00:00	4	Temperatura máxima	19.2
97979	7	Sololá	704	Santa Lucía Utatlán 	7	Santa Rita 	6	Junio	2023-06-06T00:00:00	2024-11-08T02:00:00	3	Temperatura mínima	18.3
97980	7	Sololá	704	Santa Lucía Utatlán 	7	Santa Rita 	6	Junio	2023-06-06T00:00:00	2024-11-08T02:00:00	5	Humedad	80
97981	7	Sololá	704	Santa Lucía Utatlán 	7	Santa Rita 	6	Junio	2023-06-06T00:00:00	2024-11-08T02:00:00	6	Velocidad del viento	4.8
97982	7	Sololá	704	Santa Lucía Utatlán 	7	Santa Rita 	6	Junio	2023-06-06T00:00:00	2024-11-08T02:00:00	7	Dirección del viento	4.83
97983	7	Sololá	704	Santa Lucía Utatlán 	7	Santa Rita 	6	Junio	2023-06-06T00:00:00	2024-11-08T02:00:00	1	Precipitación	0
97984	7	Sololá	704	Santa Lucía Utatlán 	7	Santa Rita 	6	Junio	2023-06-06T00:00:00	2024-11-08T02:00:00	8	Radiación solar	0
97985	7	Sololá	704	Santa Lucía Utatlán 	7	Santa Rita 	6	Junio	2023-06-06T00:00:00	2024-11-08T03:00:00	2	Temperatura media	18.3
97986	7	Sololá	704	Santa Lucía Utatlán 	7	Santa Rita 	6	Junio	2023-06-06T00:00:00	2024-11-08T03:00:00	4	Temperatura máxima	19.3
97987	7	Sololá	704	Santa Lucía Utatlán 	7	Santa Rita 	6	Junio	2023-06-06T00:00:00	2024-11-08T03:00:00	3	Temperatura mínima	18.3
97988	7	Sololá	704	Santa Lucía Utatlán 	7	Santa Rita 	6	Junio	2023-06-06T00:00:00	2024-11-08T03:00:00	5	Humedad	80
97989	7	Sololá	704	Santa Lucía Utatlán 	7	Santa Rita 	6	Junio	2023-06-06T00:00:00	2024-11-08T03:00:00	6	Velocidad del viento	3.2
97990	7	Sololá	704	Santa Lucía Utatlán 	7	Santa Rita 	6	Junio	2023-06-06T00:00:00	2024-11-08T03:00:00	7	Dirección del viento	3.22
97991	7	Sololá	704	Santa Lucía Utatlán 	7	Santa Rita 	6	Junio	2023-06-06T00:00:00	2024-11-08T03:00:00	1	Precipitación	0
97992	7	Sololá	704	Santa Lucía Utatlán 	7	Santa Rita 	6	Junio	2023-06-06T00:00:00	2024-11-08T03:00:00	8	Radiación solar	0
97993	7	Sololá	704	Santa Lucía Utatlán 	7	Santa Rita 	6	Junio	2023-06-06T00:00:00	2024-11-08T04:00:00	2	Temperatura media	18.6
97994	7	Sololá	704	Santa Lucía Utatlán 	7	Santa Rita 	6	Junio	2023-06-06T00:00:00	2024-11-08T04:00:00	4	Temperatura máxima	18.7
97995	7	Sololá	704	Santa Lucía Utatlán 	7	Santa Rita 	6	Junio	2023-06-06T00:00:00	2024-11-08T04:00:00	3	Temperatura mínima	18.3
97996	7	Sololá	704	Santa Lucía Utatlán 	7	Santa Rita 	6	Junio	2023-06-06T00:00:00	2024-11-08T04:00:00	5	Humedad	81
97997	7	Sololá	704	Santa Lucía Utatlán 	7	Santa Rita 	6	Junio	2023-06-06T00:00:00	2024-11-08T04:00:00	6	Velocidad del viento	3.2
97998	7	Sololá	704	Santa Lucía Utatlán 	7	Santa Rita 	6	Junio	2023-06-06T00:00:00	2024-11-08T04:00:00	7	Dirección del viento	3.22
97999	7	Sololá	704	Santa Lucía Utatlán 	7	Santa Rita 	6	Junio	2023-06-06T00:00:00	2024-11-08T04:00:00	1	Precipitación	0
98000	7	Sololá	704	Santa Lucía Utatlán 	7	Santa Rita 	6	Junio	2023-06-06T00:00:00	2024-11-08T04:00:00	8	Radiación solar	0
98001	7	Sololá	704	Santa Lucía Utatlán 	7	Santa Rita 	6	Junio	2023-06-06T00:00:00	2024-11-08T05:00:00	2	Temperatura media	17.3
98002	7	Sololá	704	Santa Lucía Utatlán 	7	Santa Rita 	6	Junio	2023-06-06T00:00:00	2024-11-08T05:00:00	4	Temperatura máxima	18.6
98003	7	Sololá	704	Santa Lucía Utatlán 	7	Santa Rita 	6	Junio	2023-06-06T00:00:00	2024-11-08T05:00:00	3	Temperatura mínima	17.3
98004	7	Sololá	704	Santa Lucía Utatlán 	7	Santa Rita 	6	Junio	2023-06-06T00:00:00	2024-11-08T05:00:00	5	Humedad	83
98005	7	Sololá	704	Santa Lucía Utatlán 	7	Santa Rita 	6	Junio	2023-06-06T00:00:00	2024-11-08T05:00:00	6	Velocidad del viento	4.8
98006	7	Sololá	704	Santa Lucía Utatlán 	7	Santa Rita 	6	Junio	2023-06-06T00:00:00	2024-11-08T05:00:00	7	Dirección del viento	4.83
98007	7	Sololá	704	Santa Lucía Utatlán 	7	Santa Rita 	6	Junio	2023-06-06T00:00:00	2024-11-08T05:00:00	1	Precipitación	0
98008	7	Sololá	704	Santa Lucía Utatlán 	7	Santa Rita 	6	Junio	2023-06-06T00:00:00	2024-11-08T05:00:00	8	Radiación solar	0
98009	7	Sololá	704	Santa Lucía Utatlán 	7	Santa Rita 	6	Junio	2023-06-06T00:00:00	2024-11-08T06:00:00	2	Temperatura media	18.1
98010	7	Sololá	704	Santa Lucía Utatlán 	7	Santa Rita 	6	Junio	2023-06-06T00:00:00	2024-11-08T06:00:00	4	Temperatura máxima	18.1
98011	7	Sololá	704	Santa Lucía Utatlán 	7	Santa Rita 	6	Junio	2023-06-06T00:00:00	2024-11-08T06:00:00	3	Temperatura mínima	17.2
98012	7	Sololá	704	Santa Lucía Utatlán 	7	Santa Rita 	6	Junio	2023-06-06T00:00:00	2024-11-08T06:00:00	5	Humedad	82
98013	7	Sololá	704	Santa Lucía Utatlán 	7	Santa Rita 	6	Junio	2023-06-06T00:00:00	2024-11-08T06:00:00	6	Velocidad del viento	3.2
98014	7	Sololá	704	Santa Lucía Utatlán 	7	Santa Rita 	6	Junio	2023-06-06T00:00:00	2024-11-08T06:00:00	7	Dirección del viento	3.22
98015	7	Sololá	704	Santa Lucía Utatlán 	7	Santa Rita 	6	Junio	2023-06-06T00:00:00	2024-11-08T06:00:00	1	Precipitación	0
98016	7	Sololá	704	Santa Lucía Utatlán 	7	Santa Rita 	6	Junio	2023-06-06T00:00:00	2024-11-08T06:00:00	8	Radiación solar	4
98017	7	Sololá	704	Santa Lucía Utatlán 	7	Santa Rita 	6	Junio	2023-06-06T00:00:00	2024-11-08T07:00:00	2	Temperatura media	19.1
98018	7	Sololá	704	Santa Lucía Utatlán 	7	Santa Rita 	6	Junio	2023-06-06T00:00:00	2024-11-08T07:00:00	4	Temperatura máxima	19.1
98019	7	Sololá	704	Santa Lucía Utatlán 	7	Santa Rita 	6	Junio	2023-06-06T00:00:00	2024-11-08T07:00:00	3	Temperatura mínima	18.1
98020	7	Sololá	704	Santa Lucía Utatlán 	7	Santa Rita 	6	Junio	2023-06-06T00:00:00	2024-11-08T07:00:00	5	Humedad	82
98021	7	Sololá	704	Santa Lucía Utatlán 	7	Santa Rita 	6	Junio	2023-06-06T00:00:00	2024-11-08T07:00:00	6	Velocidad del viento	1.6
98022	7	Sololá	704	Santa Lucía Utatlán 	7	Santa Rita 	6	Junio	2023-06-06T00:00:00	2024-11-08T07:00:00	7	Dirección del viento	1.61
98023	7	Sololá	704	Santa Lucía Utatlán 	7	Santa Rita 	6	Junio	2023-06-06T00:00:00	2024-11-08T07:00:00	1	Precipitación	0
98024	7	Sololá	704	Santa Lucía Utatlán 	7	Santa Rita 	6	Junio	2023-06-06T00:00:00	2024-11-08T07:00:00	8	Radiación solar	83
98025	7	Sololá	704	Santa Lucía Utatlán 	7	Santa Rita 	6	Junio	2023-06-06T00:00:00	2024-11-08T08:00:00	2	Temperatura media	20.9
98026	7	Sololá	704	Santa Lucía Utatlán 	7	Santa Rita 	6	Junio	2023-06-06T00:00:00	2024-11-08T08:00:00	4	Temperatura máxima	20.9
98027	7	Sololá	704	Santa Lucía Utatlán 	7	Santa Rita 	6	Junio	2023-06-06T00:00:00	2024-11-08T08:00:00	3	Temperatura mínima	19.1
98028	7	Sololá	704	Santa Lucía Utatlán 	7	Santa Rita 	6	Junio	2023-06-06T00:00:00	2024-11-08T08:00:00	5	Humedad	76
98029	7	Sololá	704	Santa Lucía Utatlán 	7	Santa Rita 	6	Junio	2023-06-06T00:00:00	2024-11-08T08:00:00	6	Velocidad del viento	1.6
98030	7	Sololá	704	Santa Lucía Utatlán 	7	Santa Rita 	6	Junio	2023-06-06T00:00:00	2024-11-08T08:00:00	7	Dirección del viento	1.61
98031	7	Sololá	704	Santa Lucía Utatlán 	7	Santa Rita 	6	Junio	2023-06-06T00:00:00	2024-11-08T08:00:00	1	Precipitación	0
98032	7	Sololá	704	Santa Lucía Utatlán 	7	Santa Rita 	6	Junio	2023-06-06T00:00:00	2024-11-08T08:00:00	8	Radiación solar	279
98033	7	Sololá	704	Santa Lucía Utatlán 	7	Santa Rita 	6	Junio	2023-06-06T00:00:00	2024-11-08T09:00:00	2	Temperatura media	22.6
98034	7	Sololá	704	Santa Lucía Utatlán 	7	Santa Rita 	6	Junio	2023-06-06T00:00:00	2024-11-08T09:00:00	4	Temperatura máxima	22.6
98035	7	Sololá	704	Santa Lucía Utatlán 	7	Santa Rita 	6	Junio	2023-06-06T00:00:00	2024-11-08T09:00:00	3	Temperatura mínima	20.9
98036	7	Sololá	704	Santa Lucía Utatlán 	7	Santa Rita 	6	Junio	2023-06-06T00:00:00	2024-11-08T09:00:00	5	Humedad	68
98037	7	Sololá	704	Santa Lucía Utatlán 	7	Santa Rita 	6	Junio	2023-06-06T00:00:00	2024-11-08T09:00:00	6	Velocidad del viento	3.2
98038	7	Sololá	704	Santa Lucía Utatlán 	7	Santa Rita 	6	Junio	2023-06-06T00:00:00	2024-11-08T09:00:00	7	Dirección del viento	3.22
98039	7	Sololá	704	Santa Lucía Utatlán 	7	Santa Rita 	6	Junio	2023-06-06T00:00:00	2024-11-08T09:00:00	1	Precipitación	0
98040	7	Sololá	704	Santa Lucía Utatlán 	7	Santa Rita 	6	Junio	2023-06-06T00:00:00	2024-11-08T09:00:00	8	Radiación solar	506
98041	7	Sololá	704	Santa Lucía Utatlán 	7	Santa Rita 	6	Junio	2023-06-06T00:00:00	2024-11-08T10:00:00	2	Temperatura media	23.2
98042	7	Sololá	704	Santa Lucía Utatlán 	7	Santa Rita 	6	Junio	2023-06-06T00:00:00	2024-11-08T10:00:00	4	Temperatura máxima	23.4
98043	7	Sololá	704	Santa Lucía Utatlán 	7	Santa Rita 	6	Junio	2023-06-06T00:00:00	2024-11-08T10:00:00	3	Temperatura mínima	22.6
98044	7	Sololá	704	Santa Lucía Utatlán 	7	Santa Rita 	6	Junio	2023-06-06T00:00:00	2024-11-08T10:00:00	5	Humedad	69
98045	7	Sololá	704	Santa Lucía Utatlán 	7	Santa Rita 	6	Junio	2023-06-06T00:00:00	2024-11-08T10:00:00	6	Velocidad del viento	4.8
98046	7	Sololá	704	Santa Lucía Utatlán 	7	Santa Rita 	6	Junio	2023-06-06T00:00:00	2024-11-08T10:00:00	7	Dirección del viento	4.83
98047	7	Sololá	704	Santa Lucía Utatlán 	7	Santa Rita 	6	Junio	2023-06-06T00:00:00	2024-11-08T10:00:00	1	Precipitación	0
98048	7	Sololá	704	Santa Lucía Utatlán 	7	Santa Rita 	6	Junio	2023-06-06T00:00:00	2024-11-08T10:00:00	8	Radiación solar	516
98049	7	Sololá	704	Santa Lucía Utatlán 	7	Santa Rita 	6	Junio	2023-06-06T00:00:00	2024-11-08T11:00:00	2	Temperatura media	22.6
98050	7	Sololá	704	Santa Lucía Utatlán 	7	Santa Rita 	6	Junio	2023-06-06T00:00:00	2024-11-08T11:00:00	4	Temperatura máxima	23.2
98051	7	Sololá	704	Santa Lucía Utatlán 	7	Santa Rita 	6	Junio	2023-06-06T00:00:00	2024-11-08T11:00:00	3	Temperatura mínima	22.5
98052	7	Sololá	704	Santa Lucía Utatlán 	7	Santa Rita 	6	Junio	2023-06-06T00:00:00	2024-11-08T11:00:00	5	Humedad	71
98053	7	Sololá	704	Santa Lucía Utatlán 	7	Santa Rita 	6	Junio	2023-06-06T00:00:00	2024-11-08T11:00:00	6	Velocidad del viento	6.4
98054	7	Sololá	704	Santa Lucía Utatlán 	7	Santa Rita 	6	Junio	2023-06-06T00:00:00	2024-11-08T11:00:00	7	Dirección del viento	6.44
98055	7	Sololá	704	Santa Lucía Utatlán 	7	Santa Rita 	6	Junio	2023-06-06T00:00:00	2024-11-08T11:00:00	1	Precipitación	0
98056	7	Sololá	704	Santa Lucía Utatlán 	7	Santa Rita 	6	Junio	2023-06-06T00:00:00	2024-11-08T11:00:00	8	Radiación solar	373
98057	7	Sololá	704	Santa Lucía Utatlán 	7	Santa Rita 	6	Junio	2023-06-06T00:00:00	2024-11-08T12:00:00	2	Temperatura media	21.7
98058	7	Sololá	704	Santa Lucía Utatlán 	7	Santa Rita 	6	Junio	2023-06-06T00:00:00	2024-11-08T12:00:00	4	Temperatura máxima	22.7
98059	7	Sololá	704	Santa Lucía Utatlán 	7	Santa Rita 	6	Junio	2023-06-06T00:00:00	2024-11-08T12:00:00	3	Temperatura mínima	21.7
98060	7	Sololá	704	Santa Lucía Utatlán 	7	Santa Rita 	6	Junio	2023-06-06T00:00:00	2024-11-08T12:00:00	5	Humedad	84
98061	7	Sololá	704	Santa Lucía Utatlán 	7	Santa Rita 	6	Junio	2023-06-06T00:00:00	2024-11-08T12:00:00	6	Velocidad del viento	1.6
98062	7	Sololá	704	Santa Lucía Utatlán 	7	Santa Rita 	6	Junio	2023-06-06T00:00:00	2024-11-08T12:00:00	7	Dirección del viento	1.61
98063	7	Sololá	704	Santa Lucía Utatlán 	7	Santa Rita 	6	Junio	2023-06-06T00:00:00	2024-11-08T12:00:00	1	Precipitación	0.4
98064	7	Sololá	704	Santa Lucía Utatlán 	7	Santa Rita 	6	Junio	2023-06-06T00:00:00	2024-11-08T12:00:00	8	Radiación solar	163
98065	7	Sololá	704	Santa Lucía Utatlán 	7	Santa Rita 	6	Junio	2023-06-06T00:00:00	2024-11-08T13:00:00	2	Temperatura media	21.6
98066	7	Sololá	704	Santa Lucía Utatlán 	7	Santa Rita 	6	Junio	2023-06-06T00:00:00	2024-11-08T13:00:00	4	Temperatura máxima	21.8
98067	7	Sololá	704	Santa Lucía Utatlán 	7	Santa Rita 	6	Junio	2023-06-06T00:00:00	2024-11-08T13:00:00	3	Temperatura mínima	21.1
98068	7	Sololá	704	Santa Lucía Utatlán 	7	Santa Rita 	6	Junio	2023-06-06T00:00:00	2024-11-08T13:00:00	5	Humedad	75
98069	7	Sololá	704	Santa Lucía Utatlán 	7	Santa Rita 	6	Junio	2023-06-06T00:00:00	2024-11-08T13:00:00	6	Velocidad del viento	3.2
98070	7	Sololá	704	Santa Lucía Utatlán 	7	Santa Rita 	6	Junio	2023-06-06T00:00:00	2024-11-08T13:00:00	7	Dirección del viento	3.22
98071	7	Sololá	704	Santa Lucía Utatlán 	7	Santa Rita 	6	Junio	2023-06-06T00:00:00	2024-11-08T13:00:00	1	Precipitación	0
98072	7	Sololá	704	Santa Lucía Utatlán 	7	Santa Rita 	6	Junio	2023-06-06T00:00:00	2024-11-08T13:00:00	8	Radiación solar	249
98073	7	Sololá	704	Santa Lucía Utatlán 	7	Santa Rita 	6	Junio	2023-06-06T00:00:00	2024-11-08T14:00:00	2	Temperatura media	20.9
98074	7	Sololá	704	Santa Lucía Utatlán 	7	Santa Rita 	6	Junio	2023-06-06T00:00:00	2024-11-08T14:00:00	4	Temperatura máxima	21.7
98075	7	Sololá	704	Santa Lucía Utatlán 	7	Santa Rita 	6	Junio	2023-06-06T00:00:00	2024-11-08T14:00:00	3	Temperatura mínima	20.9
98076	7	Sololá	704	Santa Lucía Utatlán 	7	Santa Rita 	6	Junio	2023-06-06T00:00:00	2024-11-08T14:00:00	5	Humedad	76
98077	7	Sololá	704	Santa Lucía Utatlán 	7	Santa Rita 	6	Junio	2023-06-06T00:00:00	2024-11-08T14:00:00	6	Velocidad del viento	3.2
98078	7	Sololá	704	Santa Lucía Utatlán 	7	Santa Rita 	6	Junio	2023-06-06T00:00:00	2024-11-08T14:00:00	7	Dirección del viento	3.22
98079	7	Sololá	704	Santa Lucía Utatlán 	7	Santa Rita 	6	Junio	2023-06-06T00:00:00	2024-11-08T14:00:00	1	Precipitación	0
98080	7	Sololá	704	Santa Lucía Utatlán 	7	Santa Rita 	6	Junio	2023-06-06T00:00:00	2024-11-08T14:00:00	8	Radiación solar	169
98081	7	Sololá	704	Santa Lucía Utatlán 	7	Santa Rita 	6	Junio	2023-06-06T00:00:00	2024-11-08T15:00:00	2	Temperatura media	22.2
98082	7	Sololá	704	Santa Lucía Utatlán 	7	Santa Rita 	6	Junio	2023-06-06T00:00:00	2024-11-08T15:00:00	4	Temperatura máxima	22.2
98083	7	Sololá	704	Santa Lucía Utatlán 	7	Santa Rita 	6	Junio	2023-06-06T00:00:00	2024-11-08T15:00:00	3	Temperatura mínima	20.9
98084	7	Sololá	704	Santa Lucía Utatlán 	7	Santa Rita 	6	Junio	2023-06-06T00:00:00	2024-11-08T15:00:00	5	Humedad	76
98085	7	Sololá	704	Santa Lucía Utatlán 	7	Santa Rita 	6	Junio	2023-06-06T00:00:00	2024-11-08T15:00:00	6	Velocidad del viento	1.6
98086	7	Sololá	704	Santa Lucía Utatlán 	7	Santa Rita 	6	Junio	2023-06-06T00:00:00	2024-11-08T15:00:00	7	Dirección del viento	1.61
98087	7	Sololá	704	Santa Lucía Utatlán 	7	Santa Rita 	6	Junio	2023-06-06T00:00:00	2024-11-08T15:00:00	1	Precipitación	0
98088	7	Sololá	704	Santa Lucía Utatlán 	7	Santa Rita 	6	Junio	2023-06-06T00:00:00	2024-11-08T15:00:00	8	Radiación solar	314
98089	7	Sololá	704	Santa Lucía Utatlán 	7	Santa Rita 	6	Junio	2023-06-06T00:00:00	2024-11-08T16:00:00	2	Temperatura media	22.3
98090	7	Sololá	704	Santa Lucía Utatlán 	7	Santa Rita 	6	Junio	2023-06-06T00:00:00	2024-11-08T16:00:00	4	Temperatura máxima	22.4
98091	7	Sololá	704	Santa Lucía Utatlán 	7	Santa Rita 	6	Junio	2023-06-06T00:00:00	2024-11-08T16:00:00	3	Temperatura mínima	22.1
98092	7	Sololá	704	Santa Lucía Utatlán 	7	Santa Rita 	6	Junio	2023-06-06T00:00:00	2024-11-08T16:00:00	5	Humedad	75
98093	7	Sololá	704	Santa Lucía Utatlán 	7	Santa Rita 	6	Junio	2023-06-06T00:00:00	2024-11-08T16:00:00	6	Velocidad del viento	1.6
98094	7	Sololá	704	Santa Lucía Utatlán 	7	Santa Rita 	6	Junio	2023-06-06T00:00:00	2024-11-08T16:00:00	7	Dirección del viento	1.61
98095	7	Sololá	704	Santa Lucía Utatlán 	7	Santa Rita 	6	Junio	2023-06-06T00:00:00	2024-11-08T16:00:00	1	Precipitación	0
98096	7	Sololá	704	Santa Lucía Utatlán 	7	Santa Rita 	6	Junio	2023-06-06T00:00:00	2024-11-08T16:00:00	8	Radiación solar	206
98097	7	Sololá	704	Santa Lucía Utatlán 	7	Santa Rita 	6	Junio	2023-06-06T00:00:00	2024-11-08T17:00:00	2	Temperatura media	22.1
98098	7	Sololá	704	Santa Lucía Utatlán 	7	Santa Rita 	6	Junio	2023-06-06T00:00:00	2024-11-08T17:00:00	4	Temperatura máxima	22.8
98099	7	Sololá	704	Santa Lucía Utatlán 	7	Santa Rita 	6	Junio	2023-06-06T00:00:00	2024-11-08T17:00:00	3	Temperatura mínima	22.1
98100	7	Sololá	704	Santa Lucía Utatlán 	7	Santa Rita 	6	Junio	2023-06-06T00:00:00	2024-11-08T17:00:00	5	Humedad	83
98101	7	Sololá	704	Santa Lucía Utatlán 	7	Santa Rita 	6	Junio	2023-06-06T00:00:00	2024-11-08T17:00:00	6	Velocidad del viento	3.2
98102	7	Sololá	704	Santa Lucía Utatlán 	7	Santa Rita 	6	Junio	2023-06-06T00:00:00	2024-11-08T17:00:00	7	Dirección del viento	3.22
98103	7	Sololá	704	Santa Lucía Utatlán 	7	Santa Rita 	6	Junio	2023-06-06T00:00:00	2024-11-08T17:00:00	1	Precipitación	0
98104	7	Sololá	704	Santa Lucía Utatlán 	7	Santa Rita 	6	Junio	2023-06-06T00:00:00	2024-11-08T17:00:00	8	Radiación solar	167
98105	7	Sololá	704	Santa Lucía Utatlán 	7	Santa Rita 	6	Junio	2023-06-06T00:00:00	2024-11-08T18:00:00	2	Temperatura media	20.8
98106	7	Sololá	704	Santa Lucía Utatlán 	7	Santa Rita 	6	Junio	2023-06-06T00:00:00	2024-11-08T18:00:00	4	Temperatura máxima	22.1
98107	7	Sololá	704	Santa Lucía Utatlán 	7	Santa Rita 	6	Junio	2023-06-06T00:00:00	2024-11-08T18:00:00	3	Temperatura mínima	20.6
98108	7	Sololá	704	Santa Lucía Utatlán 	7	Santa Rita 	6	Junio	2023-06-06T00:00:00	2024-11-08T18:00:00	5	Humedad	81
98109	7	Sololá	704	Santa Lucía Utatlán 	7	Santa Rita 	6	Junio	2023-06-06T00:00:00	2024-11-08T18:00:00	6	Velocidad del viento	6.4
98110	7	Sololá	704	Santa Lucía Utatlán 	7	Santa Rita 	6	Junio	2023-06-06T00:00:00	2024-11-08T18:00:00	7	Dirección del viento	6.44
98111	7	Sololá	704	Santa Lucía Utatlán 	7	Santa Rita 	6	Junio	2023-06-06T00:00:00	2024-11-08T18:00:00	1	Precipitación	0
98112	7	Sololá	704	Santa Lucía Utatlán 	7	Santa Rita 	6	Junio	2023-06-06T00:00:00	2024-11-08T18:00:00	8	Radiación solar	40
98113	7	Sololá	704	Santa Lucía Utatlán 	7	Santa Rita 	6	Junio	2023-06-06T00:00:00	2024-11-08T19:00:00	2	Temperatura media	21.2
98114	7	Sololá	704	Santa Lucía Utatlán 	7	Santa Rita 	6	Junio	2023-06-06T00:00:00	2024-11-08T19:00:00	4	Temperatura máxima	21.3
98115	7	Sololá	704	Santa Lucía Utatlán 	7	Santa Rita 	6	Junio	2023-06-06T00:00:00	2024-11-08T19:00:00	3	Temperatura mínima	20.8
98116	7	Sololá	704	Santa Lucía Utatlán 	7	Santa Rita 	6	Junio	2023-06-06T00:00:00	2024-11-08T19:00:00	5	Humedad	68
98117	7	Sololá	704	Santa Lucía Utatlán 	7	Santa Rita 	6	Junio	2023-06-06T00:00:00	2024-11-08T19:00:00	6	Velocidad del viento	4.8
98118	7	Sololá	704	Santa Lucía Utatlán 	7	Santa Rita 	6	Junio	2023-06-06T00:00:00	2024-11-08T19:00:00	7	Dirección del viento	4.83
98119	7	Sololá	704	Santa Lucía Utatlán 	7	Santa Rita 	6	Junio	2023-06-06T00:00:00	2024-11-08T19:00:00	1	Precipitación	0
98120	7	Sololá	704	Santa Lucía Utatlán 	7	Santa Rita 	6	Junio	2023-06-06T00:00:00	2024-11-08T19:00:00	8	Radiación solar	0
98121	7	Sololá	704	Santa Lucía Utatlán 	7	Santa Rita 	6	Junio	2023-06-06T00:00:00	2024-11-08T20:00:00	2	Temperatura media	19.8
98122	7	Sololá	704	Santa Lucía Utatlán 	7	Santa Rita 	6	Junio	2023-06-06T00:00:00	2024-11-08T20:00:00	4	Temperatura máxima	21.3
98123	7	Sololá	704	Santa Lucía Utatlán 	7	Santa Rita 	6	Junio	2023-06-06T00:00:00	2024-11-08T20:00:00	3	Temperatura mínima	19.3
98124	7	Sololá	704	Santa Lucía Utatlán 	7	Santa Rita 	6	Junio	2023-06-06T00:00:00	2024-11-08T20:00:00	5	Humedad	75
98125	7	Sololá	704	Santa Lucía Utatlán 	7	Santa Rita 	6	Junio	2023-06-06T00:00:00	2024-11-08T20:00:00	6	Velocidad del viento	3.2
98126	7	Sololá	704	Santa Lucía Utatlán 	7	Santa Rita 	6	Junio	2023-06-06T00:00:00	2024-11-08T20:00:00	7	Dirección del viento	3.22
98127	7	Sololá	704	Santa Lucía Utatlán 	7	Santa Rita 	6	Junio	2023-06-06T00:00:00	2024-11-08T20:00:00	1	Precipitación	0
98128	7	Sololá	704	Santa Lucía Utatlán 	7	Santa Rita 	6	Junio	2023-06-06T00:00:00	2024-11-08T20:00:00	8	Radiación solar	0
98129	7	Sololá	704	Santa Lucía Utatlán 	7	Santa Rita 	6	Junio	2023-06-06T00:00:00	2024-11-08T21:00:00	2	Temperatura media	18.7
98130	7	Sololá	704	Santa Lucía Utatlán 	7	Santa Rita 	6	Junio	2023-06-06T00:00:00	2024-11-08T21:00:00	4	Temperatura máxima	19.8
98131	7	Sololá	704	Santa Lucía Utatlán 	7	Santa Rita 	6	Junio	2023-06-06T00:00:00	2024-11-08T21:00:00	3	Temperatura mínima	18.7
98132	7	Sololá	704	Santa Lucía Utatlán 	7	Santa Rita 	6	Junio	2023-06-06T00:00:00	2024-11-08T21:00:00	5	Humedad	86
98133	7	Sololá	704	Santa Lucía Utatlán 	7	Santa Rita 	6	Junio	2023-06-06T00:00:00	2024-11-08T21:00:00	6	Velocidad del viento	1.6
98134	7	Sololá	704	Santa Lucía Utatlán 	7	Santa Rita 	6	Junio	2023-06-06T00:00:00	2024-11-08T21:00:00	7	Dirección del viento	1.61
98135	7	Sololá	704	Santa Lucía Utatlán 	7	Santa Rita 	6	Junio	2023-06-06T00:00:00	2024-11-08T21:00:00	1	Precipitación	0
98136	7	Sololá	704	Santa Lucía Utatlán 	7	Santa Rita 	6	Junio	2023-06-06T00:00:00	2024-11-08T21:00:00	8	Radiación solar	0
98137	7	Sololá	704	Santa Lucía Utatlán 	7	Santa Rita 	6	Junio	2023-06-06T00:00:00	2024-11-08T22:00:00	2	Temperatura media	18.8
98138	7	Sololá	704	Santa Lucía Utatlán 	7	Santa Rita 	6	Junio	2023-06-06T00:00:00	2024-11-08T22:00:00	4	Temperatura máxima	19.2
98139	7	Sololá	704	Santa Lucía Utatlán 	7	Santa Rita 	6	Junio	2023-06-06T00:00:00	2024-11-08T22:00:00	3	Temperatura mínima	18.7
98140	7	Sololá	704	Santa Lucía Utatlán 	7	Santa Rita 	6	Junio	2023-06-06T00:00:00	2024-11-08T22:00:00	5	Humedad	88
98141	7	Sololá	704	Santa Lucía Utatlán 	7	Santa Rita 	6	Junio	2023-06-06T00:00:00	2024-11-08T22:00:00	6	Velocidad del viento	1.6
98142	7	Sololá	704	Santa Lucía Utatlán 	7	Santa Rita 	6	Junio	2023-06-06T00:00:00	2024-11-08T22:00:00	7	Dirección del viento	1.61
98143	7	Sololá	704	Santa Lucía Utatlán 	7	Santa Rita 	6	Junio	2023-06-06T00:00:00	2024-11-08T22:00:00	1	Precipitación	0
98144	7	Sololá	704	Santa Lucía Utatlán 	7	Santa Rita 	6	Junio	2023-06-06T00:00:00	2024-11-08T22:00:00	8	Radiación solar	0
98145	7	Sololá	704	Santa Lucía Utatlán 	7	Santa Rita 	6	Junio	2023-06-06T00:00:00	2024-11-08T23:00:00	2	Temperatura media	18.2
98146	7	Sololá	704	Santa Lucía Utatlán 	7	Santa Rita 	6	Junio	2023-06-06T00:00:00	2024-11-08T23:00:00	4	Temperatura máxima	18.8
98147	7	Sololá	704	Santa Lucía Utatlán 	7	Santa Rita 	6	Junio	2023-06-06T00:00:00	2024-11-08T23:00:00	3	Temperatura mínima	18.2
98148	7	Sololá	704	Santa Lucía Utatlán 	7	Santa Rita 	6	Junio	2023-06-06T00:00:00	2024-11-08T23:00:00	5	Humedad	87
98149	7	Sololá	704	Santa Lucía Utatlán 	7	Santa Rita 	6	Junio	2023-06-06T00:00:00	2024-11-08T23:00:00	6	Velocidad del viento	3.2
98150	7	Sololá	704	Santa Lucía Utatlán 	7	Santa Rita 	6	Junio	2023-06-06T00:00:00	2024-11-08T23:00:00	7	Dirección del viento	3.22
98151	7	Sololá	704	Santa Lucía Utatlán 	7	Santa Rita 	6	Junio	2023-06-06T00:00:00	2024-11-08T23:00:00	1	Precipitación	0
98152	7	Sololá	704	Santa Lucía Utatlán 	7	Santa Rita 	6	Junio	2023-06-06T00:00:00	2024-11-08T23:00:00	8	Radiación solar	0
98153	7	Sololá	704	Santa Lucía Utatlán 	7	Santa Rita 	6	Junio	2023-07-06T00:00:00	2024-11-08T00:00:00	2	Temperatura media	18.1
98154	7	Sololá	704	Santa Lucía Utatlán 	7	Santa Rita 	6	Junio	2023-07-06T00:00:00	2024-11-08T00:00:00	4	Temperatura máxima	18.2
98155	7	Sololá	704	Santa Lucía Utatlán 	7	Santa Rita 	6	Junio	2023-07-06T00:00:00	2024-11-08T00:00:00	3	Temperatura mínima	17.9
98156	7	Sololá	704	Santa Lucía Utatlán 	7	Santa Rita 	6	Junio	2023-07-06T00:00:00	2024-11-08T00:00:00	5	Humedad	88
98157	7	Sololá	704	Santa Lucía Utatlán 	7	Santa Rita 	6	Junio	2023-07-06T00:00:00	2024-11-08T00:00:00	6	Velocidad del viento	1.6
98158	7	Sololá	704	Santa Lucía Utatlán 	7	Santa Rita 	6	Junio	2023-07-06T00:00:00	2024-11-08T00:00:00	7	Dirección del viento	1.61
98159	7	Sololá	704	Santa Lucía Utatlán 	7	Santa Rita 	6	Junio	2023-07-06T00:00:00	2024-11-08T00:00:00	1	Precipitación	0
98160	7	Sololá	704	Santa Lucía Utatlán 	7	Santa Rita 	6	Junio	2023-07-06T00:00:00	2024-11-08T00:00:00	8	Radiación solar	0
98161	7	Sololá	704	Santa Lucía Utatlán 	7	Santa Rita 	6	Junio	2023-07-06T00:00:00	2024-11-08T01:00:00	2	Temperatura media	18.3
98162	7	Sololá	704	Santa Lucía Utatlán 	7	Santa Rita 	6	Junio	2023-07-06T00:00:00	2024-11-08T01:00:00	4	Temperatura máxima	18.4
98163	7	Sololá	704	Santa Lucía Utatlán 	7	Santa Rita 	6	Junio	2023-07-06T00:00:00	2024-11-08T01:00:00	3	Temperatura mínima	18.1
98164	7	Sololá	704	Santa Lucía Utatlán 	7	Santa Rita 	6	Junio	2023-07-06T00:00:00	2024-11-08T01:00:00	5	Humedad	87
98165	7	Sololá	704	Santa Lucía Utatlán 	7	Santa Rita 	6	Junio	2023-07-06T00:00:00	2024-11-08T01:00:00	6	Velocidad del viento	1.6
98166	7	Sololá	704	Santa Lucía Utatlán 	7	Santa Rita 	6	Junio	2023-07-06T00:00:00	2024-11-08T01:00:00	7	Dirección del viento	1.61
98167	7	Sololá	704	Santa Lucía Utatlán 	7	Santa Rita 	6	Junio	2023-07-06T00:00:00	2024-11-08T01:00:00	1	Precipitación	0
98168	7	Sololá	704	Santa Lucía Utatlán 	7	Santa Rita 	6	Junio	2023-07-06T00:00:00	2024-11-08T01:00:00	8	Radiación solar	0
98169	7	Sololá	704	Santa Lucía Utatlán 	7	Santa Rita 	6	Junio	2023-07-06T00:00:00	2024-11-08T02:00:00	2	Temperatura media	17.7
98170	7	Sololá	704	Santa Lucía Utatlán 	7	Santa Rita 	6	Junio	2023-07-06T00:00:00	2024-11-08T02:00:00	4	Temperatura máxima	18.3
98171	7	Sololá	704	Santa Lucía Utatlán 	7	Santa Rita 	6	Junio	2023-07-06T00:00:00	2024-11-08T02:00:00	3	Temperatura mínima	17.7
98172	7	Sololá	704	Santa Lucía Utatlán 	7	Santa Rita 	6	Junio	2023-07-06T00:00:00	2024-11-08T02:00:00	5	Humedad	86
98173	7	Sololá	704	Santa Lucía Utatlán 	7	Santa Rita 	6	Junio	2023-07-06T00:00:00	2024-11-08T02:00:00	6	Velocidad del viento	4.8
98174	7	Sololá	704	Santa Lucía Utatlán 	7	Santa Rita 	6	Junio	2023-07-06T00:00:00	2024-11-08T02:00:00	7	Dirección del viento	4.83
98175	7	Sololá	704	Santa Lucía Utatlán 	7	Santa Rita 	6	Junio	2023-07-06T00:00:00	2024-11-08T02:00:00	1	Precipitación	0
98176	7	Sololá	704	Santa Lucía Utatlán 	7	Santa Rita 	6	Junio	2023-07-06T00:00:00	2024-11-08T02:00:00	8	Radiación solar	0
98177	7	Sololá	704	Santa Lucía Utatlán 	7	Santa Rita 	6	Junio	2023-07-06T00:00:00	2024-11-08T03:00:00	2	Temperatura media	17.6
98178	7	Sololá	704	Santa Lucía Utatlán 	7	Santa Rita 	6	Junio	2023-07-06T00:00:00	2024-11-08T03:00:00	4	Temperatura máxima	17.7
98179	7	Sololá	704	Santa Lucía Utatlán 	7	Santa Rita 	6	Junio	2023-07-06T00:00:00	2024-11-08T03:00:00	3	Temperatura mínima	17.5
98180	7	Sololá	704	Santa Lucía Utatlán 	7	Santa Rita 	6	Junio	2023-07-06T00:00:00	2024-11-08T03:00:00	5	Humedad	89
98181	7	Sololá	704	Santa Lucía Utatlán 	7	Santa Rita 	6	Junio	2023-07-06T00:00:00	2024-11-08T03:00:00	6	Velocidad del viento	3.2
98182	7	Sololá	704	Santa Lucía Utatlán 	7	Santa Rita 	6	Junio	2023-07-06T00:00:00	2024-11-08T03:00:00	7	Dirección del viento	3.22
98183	7	Sololá	704	Santa Lucía Utatlán 	7	Santa Rita 	6	Junio	2023-07-06T00:00:00	2024-11-08T03:00:00	1	Precipitación	0
98184	7	Sololá	704	Santa Lucía Utatlán 	7	Santa Rita 	6	Junio	2023-07-06T00:00:00	2024-11-08T03:00:00	8	Radiación solar	0
98185	7	Sololá	704	Santa Lucía Utatlán 	7	Santa Rita 	6	Junio	2023-07-06T00:00:00	2024-11-08T04:00:00	2	Temperatura media	16.8
98186	7	Sololá	704	Santa Lucía Utatlán 	7	Santa Rita 	6	Junio	2023-07-06T00:00:00	2024-11-08T04:00:00	4	Temperatura máxima	17.7
98187	7	Sololá	704	Santa Lucía Utatlán 	7	Santa Rita 	6	Junio	2023-07-06T00:00:00	2024-11-08T04:00:00	3	Temperatura mínima	16.7
98188	7	Sololá	704	Santa Lucía Utatlán 	7	Santa Rita 	6	Junio	2023-07-06T00:00:00	2024-11-08T04:00:00	5	Humedad	91
98189	7	Sololá	704	Santa Lucía Utatlán 	7	Santa Rita 	6	Junio	2023-07-06T00:00:00	2024-11-08T04:00:00	6	Velocidad del viento	3.2
98190	7	Sololá	704	Santa Lucía Utatlán 	7	Santa Rita 	6	Junio	2023-07-06T00:00:00	2024-11-08T04:00:00	7	Dirección del viento	3.22
98191	7	Sololá	704	Santa Lucía Utatlán 	7	Santa Rita 	6	Junio	2023-07-06T00:00:00	2024-11-08T04:00:00	1	Precipitación	0
98192	7	Sololá	704	Santa Lucía Utatlán 	7	Santa Rita 	6	Junio	2023-07-06T00:00:00	2024-11-08T04:00:00	8	Radiación solar	0
98193	7	Sololá	704	Santa Lucía Utatlán 	7	Santa Rita 	6	Junio	2023-07-06T00:00:00	2024-11-08T05:00:00	2	Temperatura media	16.7
98194	7	Sololá	704	Santa Lucía Utatlán 	7	Santa Rita 	6	Junio	2023-07-06T00:00:00	2024-11-08T05:00:00	4	Temperatura máxima	16.8
98195	7	Sololá	704	Santa Lucía Utatlán 	7	Santa Rita 	6	Junio	2023-07-06T00:00:00	2024-11-08T05:00:00	3	Temperatura mínima	16.4
98196	7	Sololá	704	Santa Lucía Utatlán 	7	Santa Rita 	6	Junio	2023-07-06T00:00:00	2024-11-08T05:00:00	5	Humedad	89
98197	7	Sololá	704	Santa Lucía Utatlán 	7	Santa Rita 	6	Junio	2023-07-06T00:00:00	2024-11-08T05:00:00	6	Velocidad del viento	3.2
98198	7	Sololá	704	Santa Lucía Utatlán 	7	Santa Rita 	6	Junio	2023-07-06T00:00:00	2024-11-08T05:00:00	7	Dirección del viento	3.22
98199	7	Sololá	704	Santa Lucía Utatlán 	7	Santa Rita 	6	Junio	2023-07-06T00:00:00	2024-11-08T05:00:00	1	Precipitación	0
98200	7	Sololá	704	Santa Lucía Utatlán 	7	Santa Rita 	6	Junio	2023-07-06T00:00:00	2024-11-08T05:00:00	8	Radiación solar	0
98201	7	Sololá	704	Santa Lucía Utatlán 	7	Santa Rita 	6	Junio	2023-07-06T00:00:00	2024-11-08T06:00:00	2	Temperatura media	17.3
98202	7	Sololá	704	Santa Lucía Utatlán 	7	Santa Rita 	6	Junio	2023-07-06T00:00:00	2024-11-08T06:00:00	4	Temperatura máxima	17.3
98203	7	Sololá	704	Santa Lucía Utatlán 	7	Santa Rita 	6	Junio	2023-07-06T00:00:00	2024-11-08T06:00:00	3	Temperatura mínima	16.7
98204	7	Sololá	704	Santa Lucía Utatlán 	7	Santa Rita 	6	Junio	2023-07-06T00:00:00	2024-11-08T06:00:00	5	Humedad	88
98205	7	Sololá	704	Santa Lucía Utatlán 	7	Santa Rita 	6	Junio	2023-07-06T00:00:00	2024-11-08T06:00:00	6	Velocidad del viento	3.2
98206	7	Sololá	704	Santa Lucía Utatlán 	7	Santa Rita 	6	Junio	2023-07-06T00:00:00	2024-11-08T06:00:00	7	Dirección del viento	3.22
98207	7	Sololá	704	Santa Lucía Utatlán 	7	Santa Rita 	6	Junio	2023-07-06T00:00:00	2024-11-08T06:00:00	1	Precipitación	0
98208	7	Sololá	704	Santa Lucía Utatlán 	7	Santa Rita 	6	Junio	2023-07-06T00:00:00	2024-11-08T06:00:00	8	Radiación solar	7
98209	7	Sololá	704	Santa Lucía Utatlán 	7	Santa Rita 	6	Junio	2023-07-06T00:00:00	2024-11-08T07:00:00	2	Temperatura media	18.5
98210	7	Sololá	704	Santa Lucía Utatlán 	7	Santa Rita 	6	Junio	2023-07-06T00:00:00	2024-11-08T07:00:00	4	Temperatura máxima	18.5
98211	7	Sololá	704	Santa Lucía Utatlán 	7	Santa Rita 	6	Junio	2023-07-06T00:00:00	2024-11-08T07:00:00	3	Temperatura mínima	17.2
98212	7	Sololá	704	Santa Lucía Utatlán 	7	Santa Rita 	6	Junio	2023-07-06T00:00:00	2024-11-08T07:00:00	5	Humedad	86
98213	7	Sololá	704	Santa Lucía Utatlán 	7	Santa Rita 	6	Junio	2023-07-06T00:00:00	2024-11-08T07:00:00	6	Velocidad del viento	1.6
98214	7	Sololá	704	Santa Lucía Utatlán 	7	Santa Rita 	6	Junio	2023-07-06T00:00:00	2024-11-08T07:00:00	7	Dirección del viento	1.61
98215	7	Sololá	704	Santa Lucía Utatlán 	7	Santa Rita 	6	Junio	2023-07-06T00:00:00	2024-11-08T07:00:00	1	Precipitación	0
98216	7	Sololá	704	Santa Lucía Utatlán 	7	Santa Rita 	6	Junio	2023-07-06T00:00:00	2024-11-08T07:00:00	8	Radiación solar	86
98217	7	Sololá	704	Santa Lucía Utatlán 	7	Santa Rita 	6	Junio	2023-07-06T00:00:00	2024-11-08T08:00:00	2	Temperatura media	21.3
98218	7	Sololá	704	Santa Lucía Utatlán 	7	Santa Rita 	6	Junio	2023-07-06T00:00:00	2024-11-08T08:00:00	4	Temperatura máxima	21.3
98219	7	Sololá	704	Santa Lucía Utatlán 	7	Santa Rita 	6	Junio	2023-07-06T00:00:00	2024-11-08T08:00:00	3	Temperatura mínima	18.4
98220	7	Sololá	704	Santa Lucía Utatlán 	7	Santa Rita 	6	Junio	2023-07-06T00:00:00	2024-11-08T08:00:00	5	Humedad	76
98221	7	Sololá	704	Santa Lucía Utatlán 	7	Santa Rita 	6	Junio	2023-07-06T00:00:00	2024-11-08T08:00:00	6	Velocidad del viento	1.6
98222	7	Sololá	704	Santa Lucía Utatlán 	7	Santa Rita 	6	Junio	2023-07-06T00:00:00	2024-11-08T08:00:00	7	Dirección del viento	1.61
98223	7	Sololá	704	Santa Lucía Utatlán 	7	Santa Rita 	6	Junio	2023-07-06T00:00:00	2024-11-08T08:00:00	1	Precipitación	0
98224	7	Sololá	704	Santa Lucía Utatlán 	7	Santa Rita 	6	Junio	2023-07-06T00:00:00	2024-11-08T08:00:00	8	Radiación solar	309
98225	7	Sololá	704	Santa Lucía Utatlán 	7	Santa Rita 	6	Junio	2023-07-06T00:00:00	2024-11-08T09:00:00	2	Temperatura media	22.4
98226	7	Sololá	704	Santa Lucía Utatlán 	7	Santa Rita 	6	Junio	2023-07-06T00:00:00	2024-11-08T09:00:00	4	Temperatura máxima	22.4
98227	7	Sololá	704	Santa Lucía Utatlán 	7	Santa Rita 	6	Junio	2023-07-06T00:00:00	2024-11-08T09:00:00	3	Temperatura mínima	21.3
98228	7	Sololá	704	Santa Lucía Utatlán 	7	Santa Rita 	6	Junio	2023-07-06T00:00:00	2024-11-08T09:00:00	5	Humedad	73
98229	7	Sololá	704	Santa Lucía Utatlán 	7	Santa Rita 	6	Junio	2023-07-06T00:00:00	2024-11-08T09:00:00	6	Velocidad del viento	3.2
98230	7	Sololá	704	Santa Lucía Utatlán 	7	Santa Rita 	6	Junio	2023-07-06T00:00:00	2024-11-08T09:00:00	7	Dirección del viento	3.22
98231	7	Sololá	704	Santa Lucía Utatlán 	7	Santa Rita 	6	Junio	2023-07-06T00:00:00	2024-11-08T09:00:00	1	Precipitación	0
98232	7	Sololá	704	Santa Lucía Utatlán 	7	Santa Rita 	6	Junio	2023-07-06T00:00:00	2024-11-08T09:00:00	8	Radiación solar	444
98233	7	Sololá	704	Santa Lucía Utatlán 	7	Santa Rita 	6	Junio	2023-07-06T00:00:00	2024-11-08T10:00:00	2	Temperatura media	24.3
98234	7	Sololá	704	Santa Lucía Utatlán 	7	Santa Rita 	6	Junio	2023-07-06T00:00:00	2024-11-08T10:00:00	4	Temperatura máxima	24.6
98235	7	Sololá	704	Santa Lucía Utatlán 	7	Santa Rita 	6	Junio	2023-07-06T00:00:00	2024-11-08T10:00:00	3	Temperatura mínima	22.4
98236	7	Sololá	704	Santa Lucía Utatlán 	7	Santa Rita 	6	Junio	2023-07-06T00:00:00	2024-11-08T10:00:00	5	Humedad	69
98237	7	Sololá	704	Santa Lucía Utatlán 	7	Santa Rita 	6	Junio	2023-07-06T00:00:00	2024-11-08T10:00:00	6	Velocidad del viento	4.8
98238	7	Sololá	704	Santa Lucía Utatlán 	7	Santa Rita 	6	Junio	2023-07-06T00:00:00	2024-11-08T10:00:00	7	Dirección del viento	4.83
98239	7	Sololá	704	Santa Lucía Utatlán 	7	Santa Rita 	6	Junio	2023-07-06T00:00:00	2024-11-08T10:00:00	1	Precipitación	0
98240	7	Sololá	704	Santa Lucía Utatlán 	7	Santa Rita 	6	Junio	2023-07-06T00:00:00	2024-11-08T10:00:00	8	Radiación solar	746
98241	7	Sololá	704	Santa Lucía Utatlán 	7	Santa Rita 	6	Junio	2023-07-06T00:00:00	2024-11-08T11:00:00	2	Temperatura media	24.8
98242	7	Sololá	704	Santa Lucía Utatlán 	7	Santa Rita 	6	Junio	2023-07-06T00:00:00	2024-11-08T11:00:00	4	Temperatura máxima	25.4
98243	7	Sololá	704	Santa Lucía Utatlán 	7	Santa Rita 	6	Junio	2023-07-06T00:00:00	2024-11-08T11:00:00	3	Temperatura mínima	24.3
98244	7	Sololá	704	Santa Lucía Utatlán 	7	Santa Rita 	6	Junio	2023-07-06T00:00:00	2024-11-08T11:00:00	5	Humedad	67
98245	7	Sololá	704	Santa Lucía Utatlán 	7	Santa Rita 	6	Junio	2023-07-06T00:00:00	2024-11-08T11:00:00	6	Velocidad del viento	9.7
98246	7	Sololá	704	Santa Lucía Utatlán 	7	Santa Rita 	6	Junio	2023-07-06T00:00:00	2024-11-08T11:00:00	7	Dirección del viento	9.66
98247	7	Sololá	704	Santa Lucía Utatlán 	7	Santa Rita 	6	Junio	2023-07-06T00:00:00	2024-11-08T11:00:00	1	Precipitación	0
98248	7	Sololá	704	Santa Lucía Utatlán 	7	Santa Rita 	6	Junio	2023-07-06T00:00:00	2024-11-08T11:00:00	8	Radiación solar	920
98249	7	Sololá	704	Santa Lucía Utatlán 	7	Santa Rita 	6	Junio	2023-07-06T00:00:00	2024-11-08T12:00:00	2	Temperatura media	24.4
98250	7	Sololá	704	Santa Lucía Utatlán 	7	Santa Rita 	6	Junio	2023-07-06T00:00:00	2024-11-08T12:00:00	4	Temperatura máxima	25.6
98251	7	Sololá	704	Santa Lucía Utatlán 	7	Santa Rita 	6	Junio	2023-07-06T00:00:00	2024-11-08T12:00:00	3	Temperatura mínima	24.4
98252	7	Sololá	704	Santa Lucía Utatlán 	7	Santa Rita 	6	Junio	2023-07-06T00:00:00	2024-11-08T12:00:00	5	Humedad	69
98253	7	Sololá	704	Santa Lucía Utatlán 	7	Santa Rita 	6	Junio	2023-07-06T00:00:00	2024-11-08T12:00:00	6	Velocidad del viento	9.7
98254	7	Sololá	704	Santa Lucía Utatlán 	7	Santa Rita 	6	Junio	2023-07-06T00:00:00	2024-11-08T12:00:00	7	Dirección del viento	9.66
98255	7	Sololá	704	Santa Lucía Utatlán 	7	Santa Rita 	6	Junio	2023-07-06T00:00:00	2024-11-08T12:00:00	1	Precipitación	0
98256	7	Sololá	704	Santa Lucía Utatlán 	7	Santa Rita 	6	Junio	2023-07-06T00:00:00	2024-11-08T12:00:00	8	Radiación solar	697
98257	7	Sololá	704	Santa Lucía Utatlán 	7	Santa Rita 	6	Junio	2023-07-06T00:00:00	2024-11-08T13:00:00	2	Temperatura media	21.7
98258	7	Sololá	704	Santa Lucía Utatlán 	7	Santa Rita 	6	Junio	2023-07-06T00:00:00	2024-11-08T13:00:00	4	Temperatura máxima	24.4
98259	7	Sololá	704	Santa Lucía Utatlán 	7	Santa Rita 	6	Junio	2023-07-06T00:00:00	2024-11-08T13:00:00	3	Temperatura mínima	21.7
98260	7	Sololá	704	Santa Lucía Utatlán 	7	Santa Rita 	6	Junio	2023-07-06T00:00:00	2024-11-08T13:00:00	5	Humedad	87
98261	7	Sololá	704	Santa Lucía Utatlán 	7	Santa Rita 	6	Junio	2023-07-06T00:00:00	2024-11-08T13:00:00	6	Velocidad del viento	8
98262	7	Sololá	704	Santa Lucía Utatlán 	7	Santa Rita 	6	Junio	2023-07-06T00:00:00	2024-11-08T13:00:00	7	Dirección del viento	8.05
98263	7	Sololá	704	Santa Lucía Utatlán 	7	Santa Rita 	6	Junio	2023-07-06T00:00:00	2024-11-08T13:00:00	1	Precipitación	0
98264	7	Sololá	704	Santa Lucía Utatlán 	7	Santa Rita 	6	Junio	2023-07-06T00:00:00	2024-11-08T13:00:00	8	Radiación solar	119
98265	7	Sololá	704	Santa Lucía Utatlán 	7	Santa Rita 	6	Junio	2023-07-06T00:00:00	2024-11-08T14:00:00	2	Temperatura media	21.2
98266	7	Sololá	704	Santa Lucía Utatlán 	7	Santa Rita 	6	Junio	2023-07-06T00:00:00	2024-11-08T14:00:00	4	Temperatura máxima	21.8
98267	7	Sololá	704	Santa Lucía Utatlán 	7	Santa Rita 	6	Junio	2023-07-06T00:00:00	2024-11-08T14:00:00	3	Temperatura mínima	20.2
98268	7	Sololá	704	Santa Lucía Utatlán 	7	Santa Rita 	6	Junio	2023-07-06T00:00:00	2024-11-08T14:00:00	5	Humedad	87
98269	7	Sololá	704	Santa Lucía Utatlán 	7	Santa Rita 	6	Junio	2023-07-06T00:00:00	2024-11-08T14:00:00	6	Velocidad del viento	1.6
98270	7	Sololá	704	Santa Lucía Utatlán 	7	Santa Rita 	6	Junio	2023-07-06T00:00:00	2024-11-08T14:00:00	7	Dirección del viento	1.61
98271	7	Sololá	704	Santa Lucía Utatlán 	7	Santa Rita 	6	Junio	2023-07-06T00:00:00	2024-11-08T14:00:00	1	Precipitación	2
98272	7	Sololá	704	Santa Lucía Utatlán 	7	Santa Rita 	6	Junio	2023-07-06T00:00:00	2024-11-08T14:00:00	8	Radiación solar	137
98273	7	Sololá	704	Santa Lucía Utatlán 	7	Santa Rita 	6	Junio	2023-07-06T00:00:00	2024-11-08T15:00:00	2	Temperatura media	21.9
98274	7	Sololá	704	Santa Lucía Utatlán 	7	Santa Rita 	6	Junio	2023-07-06T00:00:00	2024-11-08T15:00:00	4	Temperatura máxima	23
98275	7	Sololá	704	Santa Lucía Utatlán 	7	Santa Rita 	6	Junio	2023-07-06T00:00:00	2024-11-08T15:00:00	3	Temperatura mínima	21.2
98276	7	Sololá	704	Santa Lucía Utatlán 	7	Santa Rita 	6	Junio	2023-07-06T00:00:00	2024-11-08T15:00:00	5	Humedad	86
98277	7	Sololá	704	Santa Lucía Utatlán 	7	Santa Rita 	6	Junio	2023-07-06T00:00:00	2024-11-08T15:00:00	6	Velocidad del viento	3.2
98278	7	Sololá	704	Santa Lucía Utatlán 	7	Santa Rita 	6	Junio	2023-07-06T00:00:00	2024-11-08T15:00:00	7	Dirección del viento	3.22
98279	7	Sololá	704	Santa Lucía Utatlán 	7	Santa Rita 	6	Junio	2023-07-06T00:00:00	2024-11-08T15:00:00	1	Precipitación	0
98280	7	Sololá	704	Santa Lucía Utatlán 	7	Santa Rita 	6	Junio	2023-07-06T00:00:00	2024-11-08T15:00:00	8	Radiación solar	451
98281	7	Sololá	704	Santa Lucía Utatlán 	7	Santa Rita 	6	Junio	2023-07-06T00:00:00	2024-11-08T16:00:00	2	Temperatura media	21.4
98282	7	Sololá	704	Santa Lucía Utatlán 	7	Santa Rita 	6	Junio	2023-07-06T00:00:00	2024-11-08T16:00:00	4	Temperatura máxima	21.9
98283	7	Sololá	704	Santa Lucía Utatlán 	7	Santa Rita 	6	Junio	2023-07-06T00:00:00	2024-11-08T16:00:00	3	Temperatura mínima	21.4
98284	7	Sololá	704	Santa Lucía Utatlán 	7	Santa Rita 	6	Junio	2023-07-06T00:00:00	2024-11-08T16:00:00	5	Humedad	91
98285	7	Sololá	704	Santa Lucía Utatlán 	7	Santa Rita 	6	Junio	2023-07-06T00:00:00	2024-11-08T16:00:00	6	Velocidad del viento	3.2
98286	7	Sololá	704	Santa Lucía Utatlán 	7	Santa Rita 	6	Junio	2023-07-06T00:00:00	2024-11-08T16:00:00	7	Dirección del viento	3.22
98287	7	Sololá	704	Santa Lucía Utatlán 	7	Santa Rita 	6	Junio	2023-07-06T00:00:00	2024-11-08T16:00:00	1	Precipitación	0
98288	7	Sololá	704	Santa Lucía Utatlán 	7	Santa Rita 	6	Junio	2023-07-06T00:00:00	2024-11-08T16:00:00	8	Radiación solar	138
98289	7	Sololá	704	Santa Lucía Utatlán 	7	Santa Rita 	6	Junio	2023-07-06T00:00:00	2024-11-08T17:00:00	2	Temperatura media	21.3
98290	7	Sololá	704	Santa Lucía Utatlán 	7	Santa Rita 	6	Junio	2023-07-06T00:00:00	2024-11-08T17:00:00	4	Temperatura máxima	21.7
98291	7	Sololá	704	Santa Lucía Utatlán 	7	Santa Rita 	6	Junio	2023-07-06T00:00:00	2024-11-08T17:00:00	3	Temperatura mínima	21.3
98292	7	Sololá	704	Santa Lucía Utatlán 	7	Santa Rita 	6	Junio	2023-07-06T00:00:00	2024-11-08T17:00:00	5	Humedad	91
98293	7	Sololá	704	Santa Lucía Utatlán 	7	Santa Rita 	6	Junio	2023-07-06T00:00:00	2024-11-08T17:00:00	6	Velocidad del viento	1.6
98294	7	Sololá	704	Santa Lucía Utatlán 	7	Santa Rita 	6	Junio	2023-07-06T00:00:00	2024-11-08T17:00:00	7	Dirección del viento	1.61
98295	7	Sololá	704	Santa Lucía Utatlán 	7	Santa Rita 	6	Junio	2023-07-06T00:00:00	2024-11-08T17:00:00	1	Precipitación	0
98296	7	Sololá	704	Santa Lucía Utatlán 	7	Santa Rita 	6	Junio	2023-07-06T00:00:00	2024-11-08T17:00:00	8	Radiación solar	92
98297	7	Sololá	704	Santa Lucía Utatlán 	7	Santa Rita 	6	Junio	2023-07-06T00:00:00	2024-11-08T18:00:00	2	Temperatura media	20.3
98298	7	Sololá	704	Santa Lucía Utatlán 	7	Santa Rita 	6	Junio	2023-07-06T00:00:00	2024-11-08T18:00:00	4	Temperatura máxima	21.3
98299	7	Sololá	704	Santa Lucía Utatlán 	7	Santa Rita 	6	Junio	2023-07-06T00:00:00	2024-11-08T18:00:00	3	Temperatura mínima	20.3
98300	7	Sololá	704	Santa Lucía Utatlán 	7	Santa Rita 	6	Junio	2023-07-06T00:00:00	2024-11-08T18:00:00	5	Humedad	93
98301	7	Sololá	704	Santa Lucía Utatlán 	7	Santa Rita 	6	Junio	2023-07-06T00:00:00	2024-11-08T18:00:00	6	Velocidad del viento	1.6
98302	7	Sololá	704	Santa Lucía Utatlán 	7	Santa Rita 	6	Junio	2023-07-06T00:00:00	2024-11-08T18:00:00	7	Dirección del viento	1.61
98303	7	Sololá	704	Santa Lucía Utatlán 	7	Santa Rita 	6	Junio	2023-07-06T00:00:00	2024-11-08T18:00:00	1	Precipitación	8.4
98304	7	Sololá	704	Santa Lucía Utatlán 	7	Santa Rita 	6	Junio	2023-07-06T00:00:00	2024-11-08T18:00:00	8	Radiación solar	13
98305	7	Sololá	704	Santa Lucía Utatlán 	7	Santa Rita 	6	Junio	2023-07-06T00:00:00	2024-11-08T19:00:00	2	Temperatura media	20
98306	7	Sololá	704	Santa Lucía Utatlán 	7	Santa Rita 	6	Junio	2023-07-06T00:00:00	2024-11-08T19:00:00	4	Temperatura máxima	20.3
98307	7	Sololá	704	Santa Lucía Utatlán 	7	Santa Rita 	6	Junio	2023-07-06T00:00:00	2024-11-08T19:00:00	3	Temperatura mínima	19.9
98308	7	Sololá	704	Santa Lucía Utatlán 	7	Santa Rita 	6	Junio	2023-07-06T00:00:00	2024-11-08T19:00:00	5	Humedad	95
98309	7	Sololá	704	Santa Lucía Utatlán 	7	Santa Rita 	6	Junio	2023-07-06T00:00:00	2024-11-08T19:00:00	6	Velocidad del viento	0
98310	7	Sololá	704	Santa Lucía Utatlán 	7	Santa Rita 	6	Junio	2023-07-06T00:00:00	2024-11-08T19:00:00	7	Dirección del viento	0
98311	7	Sololá	704	Santa Lucía Utatlán 	7	Santa Rita 	6	Junio	2023-07-06T00:00:00	2024-11-08T19:00:00	1	Precipitación	0
98312	7	Sololá	704	Santa Lucía Utatlán 	7	Santa Rita 	6	Junio	2023-07-06T00:00:00	2024-11-08T19:00:00	8	Radiación solar	0
98313	7	Sololá	704	Santa Lucía Utatlán 	7	Santa Rita 	6	Junio	2023-07-06T00:00:00	2024-11-08T20:00:00	2	Temperatura media	20.2
98314	7	Sololá	704	Santa Lucía Utatlán 	7	Santa Rita 	6	Junio	2023-07-06T00:00:00	2024-11-08T20:00:00	4	Temperatura máxima	20.2
98315	7	Sololá	704	Santa Lucía Utatlán 	7	Santa Rita 	6	Junio	2023-07-06T00:00:00	2024-11-08T20:00:00	3	Temperatura mínima	19.9
98316	7	Sololá	704	Santa Lucía Utatlán 	7	Santa Rita 	6	Junio	2023-07-06T00:00:00	2024-11-08T20:00:00	5	Humedad	96
98317	7	Sololá	704	Santa Lucía Utatlán 	7	Santa Rita 	6	Junio	2023-07-06T00:00:00	2024-11-08T20:00:00	6	Velocidad del viento	0
98318	7	Sololá	704	Santa Lucía Utatlán 	7	Santa Rita 	6	Junio	2023-07-06T00:00:00	2024-11-08T20:00:00	7	Dirección del viento	0
98319	7	Sololá	704	Santa Lucía Utatlán 	7	Santa Rita 	6	Junio	2023-07-06T00:00:00	2024-11-08T20:00:00	1	Precipitación	0
98320	7	Sololá	704	Santa Lucía Utatlán 	7	Santa Rita 	6	Junio	2023-07-06T00:00:00	2024-11-08T20:00:00	8	Radiación solar	0
98321	7	Sololá	704	Santa Lucía Utatlán 	7	Santa Rita 	6	Junio	2023-07-06T00:00:00	2024-11-08T21:00:00	2	Temperatura media	20
98322	7	Sololá	704	Santa Lucía Utatlán 	7	Santa Rita 	6	Junio	2023-07-06T00:00:00	2024-11-08T21:00:00	4	Temperatura máxima	20.2
98323	7	Sololá	704	Santa Lucía Utatlán 	7	Santa Rita 	6	Junio	2023-07-06T00:00:00	2024-11-08T21:00:00	3	Temperatura mínima	20
98324	7	Sololá	704	Santa Lucía Utatlán 	7	Santa Rita 	6	Junio	2023-07-06T00:00:00	2024-11-08T21:00:00	5	Humedad	96
98325	7	Sololá	704	Santa Lucía Utatlán 	7	Santa Rita 	6	Junio	2023-07-06T00:00:00	2024-11-08T21:00:00	6	Velocidad del viento	0
98326	7	Sololá	704	Santa Lucía Utatlán 	7	Santa Rita 	6	Junio	2023-07-06T00:00:00	2024-11-08T21:00:00	7	Dirección del viento	0
98327	7	Sololá	704	Santa Lucía Utatlán 	7	Santa Rita 	6	Junio	2023-07-06T00:00:00	2024-11-08T21:00:00	1	Precipitación	0
98328	7	Sololá	704	Santa Lucía Utatlán 	7	Santa Rita 	6	Junio	2023-07-06T00:00:00	2024-11-08T21:00:00	8	Radiación solar	0
98329	7	Sololá	704	Santa Lucía Utatlán 	7	Santa Rita 	6	Junio	2023-07-06T00:00:00	2024-11-08T22:00:00	2	Temperatura media	19.7
98330	7	Sololá	704	Santa Lucía Utatlán 	7	Santa Rita 	6	Junio	2023-07-06T00:00:00	2024-11-08T22:00:00	4	Temperatura máxima	20.1
98331	7	Sololá	704	Santa Lucía Utatlán 	7	Santa Rita 	6	Junio	2023-07-06T00:00:00	2024-11-08T22:00:00	3	Temperatura mínima	19.7
98332	7	Sololá	704	Santa Lucía Utatlán 	7	Santa Rita 	6	Junio	2023-07-06T00:00:00	2024-11-08T22:00:00	5	Humedad	96
98333	7	Sololá	704	Santa Lucía Utatlán 	7	Santa Rita 	6	Junio	2023-07-06T00:00:00	2024-11-08T22:00:00	6	Velocidad del viento	1.6
98334	7	Sololá	704	Santa Lucía Utatlán 	7	Santa Rita 	6	Junio	2023-07-06T00:00:00	2024-11-08T22:00:00	7	Dirección del viento	1.61
98335	7	Sololá	704	Santa Lucía Utatlán 	7	Santa Rita 	6	Junio	2023-07-06T00:00:00	2024-11-08T22:00:00	1	Precipitación	0
98336	7	Sololá	704	Santa Lucía Utatlán 	7	Santa Rita 	6	Junio	2023-07-06T00:00:00	2024-11-08T22:00:00	8	Radiación solar	0
98337	7	Sololá	704	Santa Lucía Utatlán 	7	Santa Rita 	6	Junio	2023-07-06T00:00:00	2024-11-08T23:00:00	2	Temperatura media	19.1
98338	7	Sololá	704	Santa Lucía Utatlán 	7	Santa Rita 	6	Junio	2023-07-06T00:00:00	2024-11-08T23:00:00	4	Temperatura máxima	19.7
98339	7	Sololá	704	Santa Lucía Utatlán 	7	Santa Rita 	6	Junio	2023-07-06T00:00:00	2024-11-08T23:00:00	3	Temperatura mínima	19.1
98340	7	Sololá	704	Santa Lucía Utatlán 	7	Santa Rita 	6	Junio	2023-07-06T00:00:00	2024-11-08T23:00:00	5	Humedad	95
98341	7	Sololá	704	Santa Lucía Utatlán 	7	Santa Rita 	6	Junio	2023-07-06T00:00:00	2024-11-08T23:00:00	6	Velocidad del viento	1.6
98342	7	Sololá	704	Santa Lucía Utatlán 	7	Santa Rita 	6	Junio	2023-07-06T00:00:00	2024-11-08T23:00:00	7	Dirección del viento	1.61
98343	7	Sololá	704	Santa Lucía Utatlán 	7	Santa Rita 	6	Junio	2023-07-06T00:00:00	2024-11-08T23:00:00	1	Precipitación	0
98344	7	Sololá	704	Santa Lucía Utatlán 	7	Santa Rita 	6	Junio	2023-07-06T00:00:00	2024-11-08T23:00:00	8	Radiación solar	0
98345	7	Sololá	704	Santa Lucía Utatlán 	7	Santa Rita 	6	Junio	2023-08-06T00:00:00	2024-11-08T00:00:00	2	Temperatura media	18.4
98346	7	Sololá	704	Santa Lucía Utatlán 	7	Santa Rita 	6	Junio	2023-08-06T00:00:00	2024-11-08T00:00:00	4	Temperatura máxima	19.1
98347	7	Sololá	704	Santa Lucía Utatlán 	7	Santa Rita 	6	Junio	2023-08-06T00:00:00	2024-11-08T00:00:00	3	Temperatura mínima	18.4
98348	7	Sololá	704	Santa Lucía Utatlán 	7	Santa Rita 	6	Junio	2023-08-06T00:00:00	2024-11-08T00:00:00	5	Humedad	95
98349	7	Sololá	704	Santa Lucía Utatlán 	7	Santa Rita 	6	Junio	2023-08-06T00:00:00	2024-11-08T00:00:00	6	Velocidad del viento	3.2
98350	7	Sololá	704	Santa Lucía Utatlán 	7	Santa Rita 	6	Junio	2023-08-06T00:00:00	2024-11-08T00:00:00	7	Dirección del viento	3.22
98351	7	Sololá	704	Santa Lucía Utatlán 	7	Santa Rita 	6	Junio	2023-08-06T00:00:00	2024-11-08T00:00:00	1	Precipitación	0
98352	7	Sololá	704	Santa Lucía Utatlán 	7	Santa Rita 	6	Junio	2023-08-06T00:00:00	2024-11-08T00:00:00	8	Radiación solar	0
98353	7	Sololá	704	Santa Lucía Utatlán 	7	Santa Rita 	6	Junio	2023-08-06T00:00:00	2024-11-08T01:00:00	2	Temperatura media	18.3
98354	7	Sololá	704	Santa Lucía Utatlán 	7	Santa Rita 	6	Junio	2023-08-06T00:00:00	2024-11-08T01:00:00	4	Temperatura máxima	18.8
98355	7	Sololá	704	Santa Lucía Utatlán 	7	Santa Rita 	6	Junio	2023-08-06T00:00:00	2024-11-08T01:00:00	3	Temperatura mínima	18.3
98356	7	Sololá	704	Santa Lucía Utatlán 	7	Santa Rita 	6	Junio	2023-08-06T00:00:00	2024-11-08T01:00:00	5	Humedad	95
98357	7	Sololá	704	Santa Lucía Utatlán 	7	Santa Rita 	6	Junio	2023-08-06T00:00:00	2024-11-08T01:00:00	6	Velocidad del viento	1.6
98358	7	Sololá	704	Santa Lucía Utatlán 	7	Santa Rita 	6	Junio	2023-08-06T00:00:00	2024-11-08T01:00:00	7	Dirección del viento	1.61
98359	7	Sololá	704	Santa Lucía Utatlán 	7	Santa Rita 	6	Junio	2023-08-06T00:00:00	2024-11-08T01:00:00	1	Precipitación	0
98360	7	Sololá	704	Santa Lucía Utatlán 	7	Santa Rita 	6	Junio	2023-08-06T00:00:00	2024-11-08T01:00:00	8	Radiación solar	0
98361	7	Sololá	704	Santa Lucía Utatlán 	7	Santa Rita 	6	Junio	2023-08-06T00:00:00	2024-11-08T02:00:00	2	Temperatura media	17.9
98362	7	Sololá	704	Santa Lucía Utatlán 	7	Santa Rita 	6	Junio	2023-08-06T00:00:00	2024-11-08T02:00:00	4	Temperatura máxima	18.3
98363	7	Sololá	704	Santa Lucía Utatlán 	7	Santa Rita 	6	Junio	2023-08-06T00:00:00	2024-11-08T02:00:00	3	Temperatura mínima	17.7
98364	7	Sololá	704	Santa Lucía Utatlán 	7	Santa Rita 	6	Junio	2023-08-06T00:00:00	2024-11-08T02:00:00	5	Humedad	95
98365	7	Sololá	704	Santa Lucía Utatlán 	7	Santa Rita 	6	Junio	2023-08-06T00:00:00	2024-11-08T02:00:00	6	Velocidad del viento	1.6
98366	7	Sololá	704	Santa Lucía Utatlán 	7	Santa Rita 	6	Junio	2023-08-06T00:00:00	2024-11-08T02:00:00	7	Dirección del viento	1.61
98367	7	Sololá	704	Santa Lucía Utatlán 	7	Santa Rita 	6	Junio	2023-08-06T00:00:00	2024-11-08T02:00:00	1	Precipitación	0
98368	7	Sololá	704	Santa Lucía Utatlán 	7	Santa Rita 	6	Junio	2023-08-06T00:00:00	2024-11-08T02:00:00	8	Radiación solar	0
98369	7	Sololá	704	Santa Lucía Utatlán 	7	Santa Rita 	6	Junio	2023-08-06T00:00:00	2024-11-08T03:00:00	2	Temperatura media	17.3
98370	7	Sololá	704	Santa Lucía Utatlán 	7	Santa Rita 	6	Junio	2023-08-06T00:00:00	2024-11-08T03:00:00	4	Temperatura máxima	18
98371	7	Sololá	704	Santa Lucía Utatlán 	7	Santa Rita 	6	Junio	2023-08-06T00:00:00	2024-11-08T03:00:00	3	Temperatura mínima	17.3
98372	7	Sololá	704	Santa Lucía Utatlán 	7	Santa Rita 	6	Junio	2023-08-06T00:00:00	2024-11-08T03:00:00	5	Humedad	94
98373	7	Sololá	704	Santa Lucía Utatlán 	7	Santa Rita 	6	Junio	2023-08-06T00:00:00	2024-11-08T03:00:00	6	Velocidad del viento	3.2
98374	7	Sololá	704	Santa Lucía Utatlán 	7	Santa Rita 	6	Junio	2023-08-06T00:00:00	2024-11-08T03:00:00	7	Dirección del viento	3.22
98375	7	Sololá	704	Santa Lucía Utatlán 	7	Santa Rita 	6	Junio	2023-08-06T00:00:00	2024-11-08T03:00:00	1	Precipitación	0
98376	7	Sololá	704	Santa Lucía Utatlán 	7	Santa Rita 	6	Junio	2023-08-06T00:00:00	2024-11-08T03:00:00	8	Radiación solar	0
98377	7	Sololá	704	Santa Lucía Utatlán 	7	Santa Rita 	6	Junio	2023-08-06T00:00:00	2024-11-08T04:00:00	2	Temperatura media	16.9
98378	7	Sololá	704	Santa Lucía Utatlán 	7	Santa Rita 	6	Junio	2023-08-06T00:00:00	2024-11-08T04:00:00	4	Temperatura máxima	17.3
98379	7	Sololá	704	Santa Lucía Utatlán 	7	Santa Rita 	6	Junio	2023-08-06T00:00:00	2024-11-08T04:00:00	3	Temperatura mínima	16.9
98380	7	Sololá	704	Santa Lucía Utatlán 	7	Santa Rita 	6	Junio	2023-08-06T00:00:00	2024-11-08T04:00:00	5	Humedad	94
98381	7	Sololá	704	Santa Lucía Utatlán 	7	Santa Rita 	6	Junio	2023-08-06T00:00:00	2024-11-08T04:00:00	6	Velocidad del viento	4.8
98382	7	Sololá	704	Santa Lucía Utatlán 	7	Santa Rita 	6	Junio	2023-08-06T00:00:00	2024-11-08T04:00:00	7	Dirección del viento	4.83
98383	7	Sololá	704	Santa Lucía Utatlán 	7	Santa Rita 	6	Junio	2023-08-06T00:00:00	2024-11-08T04:00:00	1	Precipitación	0
98384	7	Sololá	704	Santa Lucía Utatlán 	7	Santa Rita 	6	Junio	2023-08-06T00:00:00	2024-11-08T04:00:00	8	Radiación solar	0
98385	7	Sololá	704	Santa Lucía Utatlán 	7	Santa Rita 	6	Junio	2023-08-06T00:00:00	2024-11-08T05:00:00	2	Temperatura media	16.8
98386	7	Sololá	704	Santa Lucía Utatlán 	7	Santa Rita 	6	Junio	2023-08-06T00:00:00	2024-11-08T05:00:00	4	Temperatura máxima	16.9
98387	7	Sololá	704	Santa Lucía Utatlán 	7	Santa Rita 	6	Junio	2023-08-06T00:00:00	2024-11-08T05:00:00	3	Temperatura mínima	16.8
98388	7	Sololá	704	Santa Lucía Utatlán 	7	Santa Rita 	6	Junio	2023-08-06T00:00:00	2024-11-08T05:00:00	5	Humedad	93
98389	7	Sololá	704	Santa Lucía Utatlán 	7	Santa Rita 	6	Junio	2023-08-06T00:00:00	2024-11-08T05:00:00	6	Velocidad del viento	4.8
98390	7	Sololá	704	Santa Lucía Utatlán 	7	Santa Rita 	6	Junio	2023-08-06T00:00:00	2024-11-08T05:00:00	7	Dirección del viento	4.83
98391	7	Sololá	704	Santa Lucía Utatlán 	7	Santa Rita 	6	Junio	2023-08-06T00:00:00	2024-11-08T05:00:00	1	Precipitación	0
98392	7	Sololá	704	Santa Lucía Utatlán 	7	Santa Rita 	6	Junio	2023-08-06T00:00:00	2024-11-08T05:00:00	8	Radiación solar	0
98393	7	Sololá	704	Santa Lucía Utatlán 	7	Santa Rita 	6	Junio	2023-08-06T00:00:00	2024-11-08T06:00:00	2	Temperatura media	16.4
98394	7	Sololá	704	Santa Lucía Utatlán 	7	Santa Rita 	6	Junio	2023-08-06T00:00:00	2024-11-08T06:00:00	4	Temperatura máxima	16.8
98395	7	Sololá	704	Santa Lucía Utatlán 	7	Santa Rita 	6	Junio	2023-08-06T00:00:00	2024-11-08T06:00:00	3	Temperatura mínima	16.2
98396	7	Sololá	704	Santa Lucía Utatlán 	7	Santa Rita 	6	Junio	2023-08-06T00:00:00	2024-11-08T06:00:00	5	Humedad	93
98397	7	Sololá	704	Santa Lucía Utatlán 	7	Santa Rita 	6	Junio	2023-08-06T00:00:00	2024-11-08T06:00:00	6	Velocidad del viento	3.2
98398	7	Sololá	704	Santa Lucía Utatlán 	7	Santa Rita 	6	Junio	2023-08-06T00:00:00	2024-11-08T06:00:00	7	Dirección del viento	3.22
98399	7	Sololá	704	Santa Lucía Utatlán 	7	Santa Rita 	6	Junio	2023-08-06T00:00:00	2024-11-08T06:00:00	1	Precipitación	0
98400	7	Sololá	704	Santa Lucía Utatlán 	7	Santa Rita 	6	Junio	2023-08-06T00:00:00	2024-11-08T06:00:00	8	Radiación solar	5
98401	7	Sololá	704	Santa Lucía Utatlán 	7	Santa Rita 	6	Junio	2023-08-06T00:00:00	2024-11-08T07:00:00	2	Temperatura media	18.2
98402	7	Sololá	704	Santa Lucía Utatlán 	7	Santa Rita 	6	Junio	2023-08-06T00:00:00	2024-11-08T07:00:00	4	Temperatura máxima	18.2
98403	7	Sololá	704	Santa Lucía Utatlán 	7	Santa Rita 	6	Junio	2023-08-06T00:00:00	2024-11-08T07:00:00	3	Temperatura mínima	16.4
98404	7	Sololá	704	Santa Lucía Utatlán 	7	Santa Rita 	6	Junio	2023-08-06T00:00:00	2024-11-08T07:00:00	5	Humedad	89
98405	7	Sololá	704	Santa Lucía Utatlán 	7	Santa Rita 	6	Junio	2023-08-06T00:00:00	2024-11-08T07:00:00	6	Velocidad del viento	1.6
98406	7	Sololá	704	Santa Lucía Utatlán 	7	Santa Rita 	6	Junio	2023-08-06T00:00:00	2024-11-08T07:00:00	7	Dirección del viento	1.61
98407	7	Sololá	704	Santa Lucía Utatlán 	7	Santa Rita 	6	Junio	2023-08-06T00:00:00	2024-11-08T07:00:00	1	Precipitación	0
98408	7	Sololá	704	Santa Lucía Utatlán 	7	Santa Rita 	6	Junio	2023-08-06T00:00:00	2024-11-08T07:00:00	8	Radiación solar	89
98409	7	Sololá	704	Santa Lucía Utatlán 	7	Santa Rita 	6	Junio	2023-08-06T00:00:00	2024-11-08T08:00:00	2	Temperatura media	21.5
98410	7	Sololá	704	Santa Lucía Utatlán 	7	Santa Rita 	6	Junio	2023-08-06T00:00:00	2024-11-08T08:00:00	4	Temperatura máxima	21.5
98411	7	Sololá	704	Santa Lucía Utatlán 	7	Santa Rita 	6	Junio	2023-08-06T00:00:00	2024-11-08T08:00:00	3	Temperatura mínima	18.2
98412	7	Sololá	704	Santa Lucía Utatlán 	7	Santa Rita 	6	Junio	2023-08-06T00:00:00	2024-11-08T08:00:00	5	Humedad	79
98413	7	Sololá	704	Santa Lucía Utatlán 	7	Santa Rita 	6	Junio	2023-08-06T00:00:00	2024-11-08T08:00:00	6	Velocidad del viento	1.6
98414	7	Sololá	704	Santa Lucía Utatlán 	7	Santa Rita 	6	Junio	2023-08-06T00:00:00	2024-11-08T08:00:00	7	Dirección del viento	1.61
98415	7	Sololá	704	Santa Lucía Utatlán 	7	Santa Rita 	6	Junio	2023-08-06T00:00:00	2024-11-08T08:00:00	1	Precipitación	0
98416	7	Sololá	704	Santa Lucía Utatlán 	7	Santa Rita 	6	Junio	2023-08-06T00:00:00	2024-11-08T08:00:00	8	Radiación solar	323
98417	7	Sololá	704	Santa Lucía Utatlán 	7	Santa Rita 	6	Junio	2023-08-06T00:00:00	2024-11-08T09:00:00	2	Temperatura media	23.7
98418	7	Sololá	704	Santa Lucía Utatlán 	7	Santa Rita 	6	Junio	2023-08-06T00:00:00	2024-11-08T09:00:00	4	Temperatura máxima	23.7
98419	7	Sololá	704	Santa Lucía Utatlán 	7	Santa Rita 	6	Junio	2023-08-06T00:00:00	2024-11-08T09:00:00	3	Temperatura mínima	21.4
98420	7	Sololá	704	Santa Lucía Utatlán 	7	Santa Rita 	6	Junio	2023-08-06T00:00:00	2024-11-08T09:00:00	5	Humedad	72
98421	7	Sololá	704	Santa Lucía Utatlán 	7	Santa Rita 	6	Junio	2023-08-06T00:00:00	2024-11-08T09:00:00	6	Velocidad del viento	3.2
98422	7	Sololá	704	Santa Lucía Utatlán 	7	Santa Rita 	6	Junio	2023-08-06T00:00:00	2024-11-08T09:00:00	7	Dirección del viento	3.22
98423	7	Sololá	704	Santa Lucía Utatlán 	7	Santa Rita 	6	Junio	2023-08-06T00:00:00	2024-11-08T09:00:00	1	Precipitación	0
98424	7	Sololá	704	Santa Lucía Utatlán 	7	Santa Rita 	6	Junio	2023-08-06T00:00:00	2024-11-08T09:00:00	8	Radiación solar	616
98425	7	Sololá	704	Santa Lucía Utatlán 	7	Santa Rita 	6	Junio	2023-08-06T00:00:00	2024-11-08T10:00:00	2	Temperatura media	25.7
98426	7	Sololá	704	Santa Lucía Utatlán 	7	Santa Rita 	6	Junio	2023-08-06T00:00:00	2024-11-08T10:00:00	4	Temperatura máxima	25.7
98427	7	Sololá	704	Santa Lucía Utatlán 	7	Santa Rita 	6	Junio	2023-08-06T00:00:00	2024-11-08T10:00:00	3	Temperatura mínima	23.7
98428	7	Sololá	704	Santa Lucía Utatlán 	7	Santa Rita 	6	Junio	2023-08-06T00:00:00	2024-11-08T10:00:00	5	Humedad	68
98429	7	Sololá	704	Santa Lucía Utatlán 	7	Santa Rita 	6	Junio	2023-08-06T00:00:00	2024-11-08T10:00:00	6	Velocidad del viento	3.2
98430	7	Sololá	704	Santa Lucía Utatlán 	7	Santa Rita 	6	Junio	2023-08-06T00:00:00	2024-11-08T10:00:00	7	Dirección del viento	3.22
98431	7	Sololá	704	Santa Lucía Utatlán 	7	Santa Rita 	6	Junio	2023-08-06T00:00:00	2024-11-08T10:00:00	1	Precipitación	0
98432	7	Sololá	704	Santa Lucía Utatlán 	7	Santa Rita 	6	Junio	2023-08-06T00:00:00	2024-11-08T10:00:00	8	Radiación solar	825
98433	7	Sololá	704	Santa Lucía Utatlán 	7	Santa Rita 	6	Junio	2023-08-06T00:00:00	2024-11-08T11:00:00	2	Temperatura media	26.1
98434	7	Sololá	704	Santa Lucía Utatlán 	7	Santa Rita 	6	Junio	2023-08-06T00:00:00	2024-11-08T11:00:00	4	Temperatura máxima	26.4
98435	7	Sololá	704	Santa Lucía Utatlán 	7	Santa Rita 	6	Junio	2023-08-06T00:00:00	2024-11-08T11:00:00	3	Temperatura mínima	25.7
98436	7	Sololá	704	Santa Lucía Utatlán 	7	Santa Rita 	6	Junio	2023-08-06T00:00:00	2024-11-08T11:00:00	5	Humedad	65
98437	7	Sololá	704	Santa Lucía Utatlán 	7	Santa Rita 	6	Junio	2023-08-06T00:00:00	2024-11-08T11:00:00	6	Velocidad del viento	4.8
98438	7	Sololá	704	Santa Lucía Utatlán 	7	Santa Rita 	6	Junio	2023-08-06T00:00:00	2024-11-08T11:00:00	7	Dirección del viento	4.83
98439	7	Sololá	704	Santa Lucía Utatlán 	7	Santa Rita 	6	Junio	2023-08-06T00:00:00	2024-11-08T11:00:00	1	Precipitación	0
98440	7	Sololá	704	Santa Lucía Utatlán 	7	Santa Rita 	6	Junio	2023-08-06T00:00:00	2024-11-08T11:00:00	8	Radiación solar	939
98441	7	Sololá	704	Santa Lucía Utatlán 	7	Santa Rita 	6	Junio	2023-08-06T00:00:00	2024-11-08T12:00:00	2	Temperatura media	25.8
98442	7	Sololá	704	Santa Lucía Utatlán 	7	Santa Rita 	6	Junio	2023-08-06T00:00:00	2024-11-08T12:00:00	4	Temperatura máxima	26.4
98443	7	Sololá	704	Santa Lucía Utatlán 	7	Santa Rita 	6	Junio	2023-08-06T00:00:00	2024-11-08T12:00:00	3	Temperatura mínima	25.6
98444	7	Sololá	704	Santa Lucía Utatlán 	7	Santa Rita 	6	Junio	2023-08-06T00:00:00	2024-11-08T12:00:00	5	Humedad	66
98445	7	Sololá	704	Santa Lucía Utatlán 	7	Santa Rita 	6	Junio	2023-08-06T00:00:00	2024-11-08T12:00:00	6	Velocidad del viento	8
98446	7	Sololá	704	Santa Lucía Utatlán 	7	Santa Rita 	6	Junio	2023-08-06T00:00:00	2024-11-08T12:00:00	7	Dirección del viento	8.05
98447	7	Sololá	704	Santa Lucía Utatlán 	7	Santa Rita 	6	Junio	2023-08-06T00:00:00	2024-11-08T12:00:00	1	Precipitación	0
98448	7	Sololá	704	Santa Lucía Utatlán 	7	Santa Rita 	6	Junio	2023-08-06T00:00:00	2024-11-08T12:00:00	8	Radiación solar	920
98449	7	Sololá	704	Santa Lucía Utatlán 	7	Santa Rita 	6	Junio	2023-08-06T00:00:00	2024-11-08T13:00:00	2	Temperatura media	25.8
98450	7	Sololá	704	Santa Lucía Utatlán 	7	Santa Rita 	6	Junio	2023-08-06T00:00:00	2024-11-08T13:00:00	4	Temperatura máxima	26.2
98451	7	Sololá	704	Santa Lucía Utatlán 	7	Santa Rita 	6	Junio	2023-08-06T00:00:00	2024-11-08T13:00:00	3	Temperatura mínima	25.7
98452	7	Sololá	704	Santa Lucía Utatlán 	7	Santa Rita 	6	Junio	2023-08-06T00:00:00	2024-11-08T13:00:00	5	Humedad	74
98453	7	Sololá	704	Santa Lucía Utatlán 	7	Santa Rita 	6	Junio	2023-08-06T00:00:00	2024-11-08T13:00:00	6	Velocidad del viento	8
98454	7	Sololá	704	Santa Lucía Utatlán 	7	Santa Rita 	6	Junio	2023-08-06T00:00:00	2024-11-08T13:00:00	7	Dirección del viento	8.05
98455	7	Sololá	704	Santa Lucía Utatlán 	7	Santa Rita 	6	Junio	2023-08-06T00:00:00	2024-11-08T13:00:00	1	Precipitación	0
98456	7	Sololá	704	Santa Lucía Utatlán 	7	Santa Rita 	6	Junio	2023-08-06T00:00:00	2024-11-08T13:00:00	8	Radiación solar	966
98457	7	Sololá	704	Santa Lucía Utatlán 	7	Santa Rita 	6	Junio	2023-08-06T00:00:00	2024-11-08T14:00:00	2	Temperatura media	24.8
98458	7	Sololá	704	Santa Lucía Utatlán 	7	Santa Rita 	6	Junio	2023-08-06T00:00:00	2024-11-08T14:00:00	4	Temperatura máxima	25.9
98459	7	Sololá	704	Santa Lucía Utatlán 	7	Santa Rita 	6	Junio	2023-08-06T00:00:00	2024-11-08T14:00:00	3	Temperatura mínima	24.6
98460	7	Sololá	704	Santa Lucía Utatlán 	7	Santa Rita 	6	Junio	2023-08-06T00:00:00	2024-11-08T14:00:00	5	Humedad	77
98461	7	Sololá	704	Santa Lucía Utatlán 	7	Santa Rita 	6	Junio	2023-08-06T00:00:00	2024-11-08T14:00:00	6	Velocidad del viento	8
98462	7	Sololá	704	Santa Lucía Utatlán 	7	Santa Rita 	6	Junio	2023-08-06T00:00:00	2024-11-08T14:00:00	7	Dirección del viento	8.05
98463	7	Sololá	704	Santa Lucía Utatlán 	7	Santa Rita 	6	Junio	2023-08-06T00:00:00	2024-11-08T14:00:00	1	Precipitación	0
98464	7	Sololá	704	Santa Lucía Utatlán 	7	Santa Rita 	6	Junio	2023-08-06T00:00:00	2024-11-08T14:00:00	8	Radiación solar	509
98465	7	Sololá	704	Santa Lucía Utatlán 	7	Santa Rita 	6	Junio	2023-08-06T00:00:00	2024-11-08T15:00:00	2	Temperatura media	23.4
98466	7	Sololá	704	Santa Lucía Utatlán 	7	Santa Rita 	6	Junio	2023-08-06T00:00:00	2024-11-08T15:00:00	4	Temperatura máxima	24.7
98467	7	Sololá	704	Santa Lucía Utatlán 	7	Santa Rita 	6	Junio	2023-08-06T00:00:00	2024-11-08T15:00:00	3	Temperatura mínima	23.2
98468	7	Sololá	704	Santa Lucía Utatlán 	7	Santa Rita 	6	Junio	2023-08-06T00:00:00	2024-11-08T15:00:00	5	Humedad	84
98469	7	Sololá	704	Santa Lucía Utatlán 	7	Santa Rita 	6	Junio	2023-08-06T00:00:00	2024-11-08T15:00:00	6	Velocidad del viento	8
98470	7	Sololá	704	Santa Lucía Utatlán 	7	Santa Rita 	6	Junio	2023-08-06T00:00:00	2024-11-08T15:00:00	7	Dirección del viento	8.05
98471	7	Sololá	704	Santa Lucía Utatlán 	7	Santa Rita 	6	Junio	2023-08-06T00:00:00	2024-11-08T15:00:00	1	Precipitación	0
98472	7	Sololá	704	Santa Lucía Utatlán 	7	Santa Rita 	6	Junio	2023-08-06T00:00:00	2024-11-08T15:00:00	8	Radiación solar	221
98473	7	Sololá	704	Santa Lucía Utatlán 	7	Santa Rita 	6	Junio	2023-08-06T00:00:00	2024-11-08T16:00:00	2	Temperatura media	22.5
98474	7	Sololá	704	Santa Lucía Utatlán 	7	Santa Rita 	6	Junio	2023-08-06T00:00:00	2024-11-08T16:00:00	4	Temperatura máxima	23.6
98475	7	Sololá	704	Santa Lucía Utatlán 	7	Santa Rita 	6	Junio	2023-08-06T00:00:00	2024-11-08T16:00:00	3	Temperatura mínima	22.4
98476	7	Sololá	704	Santa Lucía Utatlán 	7	Santa Rita 	6	Junio	2023-08-06T00:00:00	2024-11-08T16:00:00	5	Humedad	88
98477	7	Sololá	704	Santa Lucía Utatlán 	7	Santa Rita 	6	Junio	2023-08-06T00:00:00	2024-11-08T16:00:00	6	Velocidad del viento	4.8
98478	7	Sololá	704	Santa Lucía Utatlán 	7	Santa Rita 	6	Junio	2023-08-06T00:00:00	2024-11-08T16:00:00	7	Dirección del viento	4.83
98479	7	Sololá	704	Santa Lucía Utatlán 	7	Santa Rita 	6	Junio	2023-08-06T00:00:00	2024-11-08T16:00:00	1	Precipitación	0
98480	7	Sololá	704	Santa Lucía Utatlán 	7	Santa Rita 	6	Junio	2023-08-06T00:00:00	2024-11-08T16:00:00	8	Radiación solar	121
98481	7	Sololá	704	Santa Lucía Utatlán 	7	Santa Rita 	6	Junio	2023-08-06T00:00:00	2024-11-08T17:00:00	2	Temperatura media	22.7
98482	7	Sololá	704	Santa Lucía Utatlán 	7	Santa Rita 	6	Junio	2023-08-06T00:00:00	2024-11-08T17:00:00	4	Temperatura máxima	22.8
98483	7	Sololá	704	Santa Lucía Utatlán 	7	Santa Rita 	6	Junio	2023-08-06T00:00:00	2024-11-08T17:00:00	3	Temperatura mínima	22.4
98484	7	Sololá	704	Santa Lucía Utatlán 	7	Santa Rita 	6	Junio	2023-08-06T00:00:00	2024-11-08T17:00:00	5	Humedad	87
98485	7	Sololá	704	Santa Lucía Utatlán 	7	Santa Rita 	6	Junio	2023-08-06T00:00:00	2024-11-08T17:00:00	6	Velocidad del viento	3.2
98486	7	Sololá	704	Santa Lucía Utatlán 	7	Santa Rita 	6	Junio	2023-08-06T00:00:00	2024-11-08T17:00:00	7	Dirección del viento	3.22
98487	7	Sololá	704	Santa Lucía Utatlán 	7	Santa Rita 	6	Junio	2023-08-06T00:00:00	2024-11-08T17:00:00	1	Precipitación	0
98488	7	Sololá	704	Santa Lucía Utatlán 	7	Santa Rita 	6	Junio	2023-08-06T00:00:00	2024-11-08T17:00:00	8	Radiación solar	90
98489	7	Sololá	704	Santa Lucía Utatlán 	7	Santa Rita 	6	Junio	2023-08-06T00:00:00	2024-11-08T18:00:00	2	Temperatura media	21.9
98490	7	Sololá	704	Santa Lucía Utatlán 	7	Santa Rita 	6	Junio	2023-08-06T00:00:00	2024-11-08T18:00:00	4	Temperatura máxima	22.7
98491	7	Sololá	704	Santa Lucía Utatlán 	7	Santa Rita 	6	Junio	2023-08-06T00:00:00	2024-11-08T18:00:00	3	Temperatura mínima	21.8
98492	7	Sololá	704	Santa Lucía Utatlán 	7	Santa Rita 	6	Junio	2023-08-06T00:00:00	2024-11-08T18:00:00	5	Humedad	92
98493	7	Sololá	704	Santa Lucía Utatlán 	7	Santa Rita 	6	Junio	2023-08-06T00:00:00	2024-11-08T18:00:00	6	Velocidad del viento	3.2
98494	7	Sololá	704	Santa Lucía Utatlán 	7	Santa Rita 	6	Junio	2023-08-06T00:00:00	2024-11-08T18:00:00	7	Dirección del viento	3.22
98495	7	Sololá	704	Santa Lucía Utatlán 	7	Santa Rita 	6	Junio	2023-08-06T00:00:00	2024-11-08T18:00:00	1	Precipitación	0
98496	7	Sololá	704	Santa Lucía Utatlán 	7	Santa Rita 	6	Junio	2023-08-06T00:00:00	2024-11-08T18:00:00	8	Radiación solar	40
98497	7	Sololá	704	Santa Lucía Utatlán 	7	Santa Rita 	6	Junio	2023-08-06T00:00:00	2024-11-08T19:00:00	2	Temperatura media	21.3
98498	7	Sololá	704	Santa Lucía Utatlán 	7	Santa Rita 	6	Junio	2023-08-06T00:00:00	2024-11-08T19:00:00	4	Temperatura máxima	21.9
98499	7	Sololá	704	Santa Lucía Utatlán 	7	Santa Rita 	6	Junio	2023-08-06T00:00:00	2024-11-08T19:00:00	3	Temperatura mínima	21.2
98500	7	Sololá	704	Santa Lucía Utatlán 	7	Santa Rita 	6	Junio	2023-08-06T00:00:00	2024-11-08T19:00:00	5	Humedad	93
98501	7	Sololá	704	Santa Lucía Utatlán 	7	Santa Rita 	6	Junio	2023-08-06T00:00:00	2024-11-08T19:00:00	6	Velocidad del viento	3.2
98502	7	Sololá	704	Santa Lucía Utatlán 	7	Santa Rita 	6	Junio	2023-08-06T00:00:00	2024-11-08T19:00:00	7	Dirección del viento	3.22
98503	7	Sololá	704	Santa Lucía Utatlán 	7	Santa Rita 	6	Junio	2023-08-06T00:00:00	2024-11-08T19:00:00	1	Precipitación	0
98504	7	Sololá	704	Santa Lucía Utatlán 	7	Santa Rita 	6	Junio	2023-08-06T00:00:00	2024-11-08T19:00:00	8	Radiación solar	0
98505	7	Sololá	704	Santa Lucía Utatlán 	7	Santa Rita 	6	Junio	2023-08-06T00:00:00	2024-11-08T20:00:00	2	Temperatura media	21.1
98506	7	Sololá	704	Santa Lucía Utatlán 	7	Santa Rita 	6	Junio	2023-08-06T00:00:00	2024-11-08T20:00:00	4	Temperatura máxima	21.3
98507	7	Sololá	704	Santa Lucía Utatlán 	7	Santa Rita 	6	Junio	2023-08-06T00:00:00	2024-11-08T20:00:00	3	Temperatura mínima	21.1
98508	7	Sololá	704	Santa Lucía Utatlán 	7	Santa Rita 	6	Junio	2023-08-06T00:00:00	2024-11-08T20:00:00	5	Humedad	93
98509	7	Sololá	704	Santa Lucía Utatlán 	7	Santa Rita 	6	Junio	2023-08-06T00:00:00	2024-11-08T20:00:00	6	Velocidad del viento	1.6
98510	7	Sololá	704	Santa Lucía Utatlán 	7	Santa Rita 	6	Junio	2023-08-06T00:00:00	2024-11-08T20:00:00	7	Dirección del viento	1.61
98511	7	Sololá	704	Santa Lucía Utatlán 	7	Santa Rita 	6	Junio	2023-08-06T00:00:00	2024-11-08T20:00:00	1	Precipitación	0
98512	7	Sololá	704	Santa Lucía Utatlán 	7	Santa Rita 	6	Junio	2023-08-06T00:00:00	2024-11-08T20:00:00	8	Radiación solar	0
98513	7	Sololá	704	Santa Lucía Utatlán 	7	Santa Rita 	6	Junio	2023-08-06T00:00:00	2024-11-08T21:00:00	2	Temperatura media	20.7
98514	7	Sololá	704	Santa Lucía Utatlán 	7	Santa Rita 	6	Junio	2023-08-06T00:00:00	2024-11-08T21:00:00	4	Temperatura máxima	21.2
98515	7	Sololá	704	Santa Lucía Utatlán 	7	Santa Rita 	6	Junio	2023-08-06T00:00:00	2024-11-08T21:00:00	3	Temperatura mínima	20.7
98516	7	Sololá	704	Santa Lucía Utatlán 	7	Santa Rita 	6	Junio	2023-08-06T00:00:00	2024-11-08T21:00:00	5	Humedad	92
98517	7	Sololá	704	Santa Lucía Utatlán 	7	Santa Rita 	6	Junio	2023-08-06T00:00:00	2024-11-08T21:00:00	6	Velocidad del viento	1.6
98518	7	Sololá	704	Santa Lucía Utatlán 	7	Santa Rita 	6	Junio	2023-08-06T00:00:00	2024-11-08T21:00:00	7	Dirección del viento	1.61
98519	7	Sololá	704	Santa Lucía Utatlán 	7	Santa Rita 	6	Junio	2023-08-06T00:00:00	2024-11-08T21:00:00	1	Precipitación	0
98520	7	Sololá	704	Santa Lucía Utatlán 	7	Santa Rita 	6	Junio	2023-08-06T00:00:00	2024-11-08T21:00:00	8	Radiación solar	0
98521	7	Sololá	704	Santa Lucía Utatlán 	7	Santa Rita 	6	Junio	2023-08-06T00:00:00	2024-11-08T22:00:00	2	Temperatura media	20.1
98522	7	Sololá	704	Santa Lucía Utatlán 	7	Santa Rita 	6	Junio	2023-08-06T00:00:00	2024-11-08T22:00:00	4	Temperatura máxima	20.8
98523	7	Sololá	704	Santa Lucía Utatlán 	7	Santa Rita 	6	Junio	2023-08-06T00:00:00	2024-11-08T22:00:00	3	Temperatura mínima	20.1
98524	7	Sololá	704	Santa Lucía Utatlán 	7	Santa Rita 	6	Junio	2023-08-06T00:00:00	2024-11-08T22:00:00	5	Humedad	89
98525	7	Sololá	704	Santa Lucía Utatlán 	7	Santa Rita 	6	Junio	2023-08-06T00:00:00	2024-11-08T22:00:00	6	Velocidad del viento	1.6
98526	7	Sololá	704	Santa Lucía Utatlán 	7	Santa Rita 	6	Junio	2023-08-06T00:00:00	2024-11-08T22:00:00	7	Dirección del viento	1.61
98527	7	Sololá	704	Santa Lucía Utatlán 	7	Santa Rita 	6	Junio	2023-08-06T00:00:00	2024-11-08T22:00:00	1	Precipitación	0
98528	7	Sololá	704	Santa Lucía Utatlán 	7	Santa Rita 	6	Junio	2023-08-06T00:00:00	2024-11-08T22:00:00	8	Radiación solar	0
98529	7	Sololá	704	Santa Lucía Utatlán 	7	Santa Rita 	6	Junio	2023-08-06T00:00:00	2024-11-08T23:00:00	2	Temperatura media	19.8
98530	7	Sololá	704	Santa Lucía Utatlán 	7	Santa Rita 	6	Junio	2023-08-06T00:00:00	2024-11-08T23:00:00	4	Temperatura máxima	20.1
98531	7	Sololá	704	Santa Lucía Utatlán 	7	Santa Rita 	6	Junio	2023-08-06T00:00:00	2024-11-08T23:00:00	3	Temperatura mínima	19.3
98532	7	Sololá	704	Santa Lucía Utatlán 	7	Santa Rita 	6	Junio	2023-08-06T00:00:00	2024-11-08T23:00:00	5	Humedad	81
98533	7	Sololá	704	Santa Lucía Utatlán 	7	Santa Rita 	6	Junio	2023-08-06T00:00:00	2024-11-08T23:00:00	6	Velocidad del viento	4.8
98534	7	Sololá	704	Santa Lucía Utatlán 	7	Santa Rita 	6	Junio	2023-08-06T00:00:00	2024-11-08T23:00:00	7	Dirección del viento	4.83
98535	7	Sololá	704	Santa Lucía Utatlán 	7	Santa Rita 	6	Junio	2023-08-06T00:00:00	2024-11-08T23:00:00	1	Precipitación	0
98536	7	Sololá	704	Santa Lucía Utatlán 	7	Santa Rita 	6	Junio	2023-08-06T00:00:00	2024-11-08T23:00:00	8	Radiación solar	0
98537	7	Sololá	704	Santa Lucía Utatlán 	7	Santa Rita 	6	Junio	2023-09-06T00:00:00	2024-11-08T00:00:00	2	Temperatura media	19.1
98538	7	Sololá	704	Santa Lucía Utatlán 	7	Santa Rita 	6	Junio	2023-09-06T00:00:00	2024-11-08T00:00:00	4	Temperatura máxima	19.8
98539	7	Sololá	704	Santa Lucía Utatlán 	7	Santa Rita 	6	Junio	2023-09-06T00:00:00	2024-11-08T00:00:00	3	Temperatura mínima	19
98540	7	Sololá	704	Santa Lucía Utatlán 	7	Santa Rita 	6	Junio	2023-09-06T00:00:00	2024-11-08T00:00:00	5	Humedad	84
98541	7	Sololá	704	Santa Lucía Utatlán 	7	Santa Rita 	6	Junio	2023-09-06T00:00:00	2024-11-08T00:00:00	6	Velocidad del viento	3.2
98542	7	Sololá	704	Santa Lucía Utatlán 	7	Santa Rita 	6	Junio	2023-09-06T00:00:00	2024-11-08T00:00:00	7	Dirección del viento	3.22
98543	7	Sololá	704	Santa Lucía Utatlán 	7	Santa Rita 	6	Junio	2023-09-06T00:00:00	2024-11-08T00:00:00	1	Precipitación	0
98544	7	Sololá	704	Santa Lucía Utatlán 	7	Santa Rita 	6	Junio	2023-09-06T00:00:00	2024-11-08T00:00:00	8	Radiación solar	0
98545	7	Sololá	704	Santa Lucía Utatlán 	7	Santa Rita 	6	Junio	2023-09-06T00:00:00	2024-11-08T01:00:00	2	Temperatura media	18.6
98546	7	Sololá	704	Santa Lucía Utatlán 	7	Santa Rita 	6	Junio	2023-09-06T00:00:00	2024-11-08T01:00:00	4	Temperatura máxima	19.1
98547	7	Sololá	704	Santa Lucía Utatlán 	7	Santa Rita 	6	Junio	2023-09-06T00:00:00	2024-11-08T01:00:00	3	Temperatura mínima	18.6
98548	7	Sololá	704	Santa Lucía Utatlán 	7	Santa Rita 	6	Junio	2023-09-06T00:00:00	2024-11-08T01:00:00	5	Humedad	84
98549	7	Sololá	704	Santa Lucía Utatlán 	7	Santa Rita 	6	Junio	2023-09-06T00:00:00	2024-11-08T01:00:00	6	Velocidad del viento	3.2
98550	7	Sololá	704	Santa Lucía Utatlán 	7	Santa Rita 	6	Junio	2023-09-06T00:00:00	2024-11-08T01:00:00	7	Dirección del viento	3.22
98551	7	Sololá	704	Santa Lucía Utatlán 	7	Santa Rita 	6	Junio	2023-09-06T00:00:00	2024-11-08T01:00:00	1	Precipitación	0
98552	7	Sololá	704	Santa Lucía Utatlán 	7	Santa Rita 	6	Junio	2023-09-06T00:00:00	2024-11-08T01:00:00	8	Radiación solar	0
98553	7	Sololá	704	Santa Lucía Utatlán 	7	Santa Rita 	6	Junio	2023-09-06T00:00:00	2024-11-08T02:00:00	2	Temperatura media	18.6
98554	7	Sololá	704	Santa Lucía Utatlán 	7	Santa Rita 	6	Junio	2023-09-06T00:00:00	2024-11-08T02:00:00	4	Temperatura máxima	18.7
98555	7	Sololá	704	Santa Lucía Utatlán 	7	Santa Rita 	6	Junio	2023-09-06T00:00:00	2024-11-08T02:00:00	3	Temperatura mínima	18.4
98556	7	Sololá	704	Santa Lucía Utatlán 	7	Santa Rita 	6	Junio	2023-09-06T00:00:00	2024-11-08T02:00:00	5	Humedad	84
98557	7	Sololá	704	Santa Lucía Utatlán 	7	Santa Rita 	6	Junio	2023-09-06T00:00:00	2024-11-08T02:00:00	6	Velocidad del viento	3.2
98558	7	Sololá	704	Santa Lucía Utatlán 	7	Santa Rita 	6	Junio	2023-09-06T00:00:00	2024-11-08T02:00:00	7	Dirección del viento	3.22
98559	7	Sololá	704	Santa Lucía Utatlán 	7	Santa Rita 	6	Junio	2023-09-06T00:00:00	2024-11-08T02:00:00	1	Precipitación	0
98560	7	Sololá	704	Santa Lucía Utatlán 	7	Santa Rita 	6	Junio	2023-09-06T00:00:00	2024-11-08T02:00:00	8	Radiación solar	0
98561	7	Sololá	704	Santa Lucía Utatlán 	7	Santa Rita 	6	Junio	2023-09-06T00:00:00	2024-11-08T03:00:00	2	Temperatura media	18.2
98562	7	Sololá	704	Santa Lucía Utatlán 	7	Santa Rita 	6	Junio	2023-09-06T00:00:00	2024-11-08T03:00:00	4	Temperatura máxima	18.6
98563	7	Sololá	704	Santa Lucía Utatlán 	7	Santa Rita 	6	Junio	2023-09-06T00:00:00	2024-11-08T03:00:00	3	Temperatura mínima	17.8
98564	7	Sololá	704	Santa Lucía Utatlán 	7	Santa Rita 	6	Junio	2023-09-06T00:00:00	2024-11-08T03:00:00	5	Humedad	83
98565	7	Sololá	704	Santa Lucía Utatlán 	7	Santa Rita 	6	Junio	2023-09-06T00:00:00	2024-11-08T03:00:00	6	Velocidad del viento	3.2
98566	7	Sololá	704	Santa Lucía Utatlán 	7	Santa Rita 	6	Junio	2023-09-06T00:00:00	2024-11-08T03:00:00	7	Dirección del viento	3.22
98567	7	Sololá	704	Santa Lucía Utatlán 	7	Santa Rita 	6	Junio	2023-09-06T00:00:00	2024-11-08T03:00:00	1	Precipitación	0
98568	7	Sololá	704	Santa Lucía Utatlán 	7	Santa Rita 	6	Junio	2023-09-06T00:00:00	2024-11-08T03:00:00	8	Radiación solar	0
98569	7	Sololá	704	Santa Lucía Utatlán 	7	Santa Rita 	6	Junio	2023-09-06T00:00:00	2024-11-08T04:00:00	2	Temperatura media	17.7
98570	7	Sololá	704	Santa Lucía Utatlán 	7	Santa Rita 	6	Junio	2023-09-06T00:00:00	2024-11-08T04:00:00	4	Temperatura máxima	18.3
98571	7	Sololá	704	Santa Lucía Utatlán 	7	Santa Rita 	6	Junio	2023-09-06T00:00:00	2024-11-08T04:00:00	3	Temperatura mínima	17.6
98572	7	Sololá	704	Santa Lucía Utatlán 	7	Santa Rita 	6	Junio	2023-09-06T00:00:00	2024-11-08T04:00:00	5	Humedad	84
98573	7	Sololá	704	Santa Lucía Utatlán 	7	Santa Rita 	6	Junio	2023-09-06T00:00:00	2024-11-08T04:00:00	6	Velocidad del viento	4.8
98574	7	Sololá	704	Santa Lucía Utatlán 	7	Santa Rita 	6	Junio	2023-09-06T00:00:00	2024-11-08T04:00:00	7	Dirección del viento	4.83
98575	7	Sololá	704	Santa Lucía Utatlán 	7	Santa Rita 	6	Junio	2023-09-06T00:00:00	2024-11-08T04:00:00	1	Precipitación	0
98576	7	Sololá	704	Santa Lucía Utatlán 	7	Santa Rita 	6	Junio	2023-09-06T00:00:00	2024-11-08T04:00:00	8	Radiación solar	0
98577	7	Sololá	704	Santa Lucía Utatlán 	7	Santa Rita 	6	Junio	2023-09-06T00:00:00	2024-11-08T05:00:00	2	Temperatura media	17.2
98578	7	Sololá	704	Santa Lucía Utatlán 	7	Santa Rita 	6	Junio	2023-09-06T00:00:00	2024-11-08T05:00:00	4	Temperatura máxima	17.9
98579	7	Sololá	704	Santa Lucía Utatlán 	7	Santa Rita 	6	Junio	2023-09-06T00:00:00	2024-11-08T05:00:00	3	Temperatura mínima	17.2
98580	7	Sololá	704	Santa Lucía Utatlán 	7	Santa Rita 	6	Junio	2023-09-06T00:00:00	2024-11-08T05:00:00	5	Humedad	86
98581	7	Sololá	704	Santa Lucía Utatlán 	7	Santa Rita 	6	Junio	2023-09-06T00:00:00	2024-11-08T05:00:00	6	Velocidad del viento	3.2
98582	7	Sololá	704	Santa Lucía Utatlán 	7	Santa Rita 	6	Junio	2023-09-06T00:00:00	2024-11-08T05:00:00	7	Dirección del viento	3.22
98583	7	Sololá	704	Santa Lucía Utatlán 	7	Santa Rita 	6	Junio	2023-09-06T00:00:00	2024-11-08T05:00:00	1	Precipitación	0
98584	7	Sololá	704	Santa Lucía Utatlán 	7	Santa Rita 	6	Junio	2023-09-06T00:00:00	2024-11-08T05:00:00	8	Radiación solar	0
98585	7	Sololá	704	Santa Lucía Utatlán 	7	Santa Rita 	6	Junio	2023-09-06T00:00:00	2024-11-08T06:00:00	2	Temperatura media	17.4
98586	7	Sololá	704	Santa Lucía Utatlán 	7	Santa Rita 	6	Junio	2023-09-06T00:00:00	2024-11-08T06:00:00	4	Temperatura máxima	18.2
98587	7	Sololá	704	Santa Lucía Utatlán 	7	Santa Rita 	6	Junio	2023-09-06T00:00:00	2024-11-08T06:00:00	3	Temperatura mínima	17.1
98588	7	Sololá	704	Santa Lucía Utatlán 	7	Santa Rita 	6	Junio	2023-09-06T00:00:00	2024-11-08T06:00:00	5	Humedad	85
98589	7	Sololá	704	Santa Lucía Utatlán 	7	Santa Rita 	6	Junio	2023-09-06T00:00:00	2024-11-08T06:00:00	6	Velocidad del viento	3.2
98590	7	Sololá	704	Santa Lucía Utatlán 	7	Santa Rita 	6	Junio	2023-09-06T00:00:00	2024-11-08T06:00:00	7	Dirección del viento	3.22
98591	7	Sololá	704	Santa Lucía Utatlán 	7	Santa Rita 	6	Junio	2023-09-06T00:00:00	2024-11-08T06:00:00	1	Precipitación	0
98592	7	Sololá	704	Santa Lucía Utatlán 	7	Santa Rita 	6	Junio	2023-09-06T00:00:00	2024-11-08T06:00:00	8	Radiación solar	6
98593	7	Sololá	704	Santa Lucía Utatlán 	7	Santa Rita 	6	Junio	2023-09-06T00:00:00	2024-11-08T07:00:00	2	Temperatura media	19.4
98594	7	Sololá	704	Santa Lucía Utatlán 	7	Santa Rita 	6	Junio	2023-09-06T00:00:00	2024-11-08T07:00:00	4	Temperatura máxima	19.4
98595	7	Sololá	704	Santa Lucía Utatlán 	7	Santa Rita 	6	Junio	2023-09-06T00:00:00	2024-11-08T07:00:00	3	Temperatura mínima	17.1
98596	7	Sololá	704	Santa Lucía Utatlán 	7	Santa Rita 	6	Junio	2023-09-06T00:00:00	2024-11-08T07:00:00	5	Humedad	77
98597	7	Sololá	704	Santa Lucía Utatlán 	7	Santa Rita 	6	Junio	2023-09-06T00:00:00	2024-11-08T07:00:00	6	Velocidad del viento	1.6
98598	7	Sololá	704	Santa Lucía Utatlán 	7	Santa Rita 	6	Junio	2023-09-06T00:00:00	2024-11-08T07:00:00	7	Dirección del viento	1.61
98599	7	Sololá	704	Santa Lucía Utatlán 	7	Santa Rita 	6	Junio	2023-09-06T00:00:00	2024-11-08T07:00:00	1	Precipitación	0
98600	7	Sololá	704	Santa Lucía Utatlán 	7	Santa Rita 	6	Junio	2023-09-06T00:00:00	2024-11-08T07:00:00	8	Radiación solar	74
98601	7	Sololá	704	Santa Lucía Utatlán 	7	Santa Rita 	6	Junio	2023-09-06T00:00:00	2024-11-08T08:00:00	2	Temperatura media	23.9
98602	7	Sololá	704	Santa Lucía Utatlán 	7	Santa Rita 	6	Junio	2023-09-06T00:00:00	2024-11-08T08:00:00	4	Temperatura máxima	23.9
98603	7	Sololá	704	Santa Lucía Utatlán 	7	Santa Rita 	6	Junio	2023-09-06T00:00:00	2024-11-08T08:00:00	3	Temperatura mínima	19.4
98604	7	Sololá	704	Santa Lucía Utatlán 	7	Santa Rita 	6	Junio	2023-09-06T00:00:00	2024-11-08T08:00:00	5	Humedad	68
98605	7	Sololá	704	Santa Lucía Utatlán 	7	Santa Rita 	6	Junio	2023-09-06T00:00:00	2024-11-08T08:00:00	6	Velocidad del viento	3.2
98606	7	Sololá	704	Santa Lucía Utatlán 	7	Santa Rita 	6	Junio	2023-09-06T00:00:00	2024-11-08T08:00:00	7	Dirección del viento	3.22
98607	7	Sololá	704	Santa Lucía Utatlán 	7	Santa Rita 	6	Junio	2023-09-06T00:00:00	2024-11-08T08:00:00	1	Precipitación	0
98608	7	Sololá	704	Santa Lucía Utatlán 	7	Santa Rita 	6	Junio	2023-09-06T00:00:00	2024-11-08T08:00:00	8	Radiación solar	386
98609	7	Sololá	704	Santa Lucía Utatlán 	7	Santa Rita 	6	Junio	2023-09-06T00:00:00	2024-11-08T09:00:00	2	Temperatura media	25.6
98610	7	Sololá	704	Santa Lucía Utatlán 	7	Santa Rita 	6	Junio	2023-09-06T00:00:00	2024-11-08T09:00:00	4	Temperatura máxima	25.6
98611	7	Sololá	704	Santa Lucía Utatlán 	7	Santa Rita 	6	Junio	2023-09-06T00:00:00	2024-11-08T09:00:00	3	Temperatura mínima	23.9
98612	7	Sololá	704	Santa Lucía Utatlán 	7	Santa Rita 	6	Junio	2023-09-06T00:00:00	2024-11-08T09:00:00	5	Humedad	65
98613	7	Sololá	704	Santa Lucía Utatlán 	7	Santa Rita 	6	Junio	2023-09-06T00:00:00	2024-11-08T09:00:00	6	Velocidad del viento	4.8
98614	7	Sololá	704	Santa Lucía Utatlán 	7	Santa Rita 	6	Junio	2023-09-06T00:00:00	2024-11-08T09:00:00	7	Dirección del viento	4.83
98615	7	Sololá	704	Santa Lucía Utatlán 	7	Santa Rita 	6	Junio	2023-09-06T00:00:00	2024-11-08T09:00:00	1	Precipitación	0
98616	7	Sololá	704	Santa Lucía Utatlán 	7	Santa Rita 	6	Junio	2023-09-06T00:00:00	2024-11-08T09:00:00	8	Radiación solar	620
98617	7	Sololá	704	Santa Lucía Utatlán 	7	Santa Rita 	6	Junio	2023-09-06T00:00:00	2024-11-08T10:00:00	2	Temperatura media	26.3
98618	7	Sololá	704	Santa Lucía Utatlán 	7	Santa Rita 	6	Junio	2023-09-06T00:00:00	2024-11-08T10:00:00	4	Temperatura máxima	26.4
98619	7	Sololá	704	Santa Lucía Utatlán 	7	Santa Rita 	6	Junio	2023-09-06T00:00:00	2024-11-08T10:00:00	3	Temperatura mínima	25.6
98620	7	Sololá	704	Santa Lucía Utatlán 	7	Santa Rita 	6	Junio	2023-09-06T00:00:00	2024-11-08T10:00:00	5	Humedad	62
98621	7	Sololá	704	Santa Lucía Utatlán 	7	Santa Rita 	6	Junio	2023-09-06T00:00:00	2024-11-08T10:00:00	6	Velocidad del viento	4.8
98622	7	Sololá	704	Santa Lucía Utatlán 	7	Santa Rita 	6	Junio	2023-09-06T00:00:00	2024-11-08T10:00:00	7	Dirección del viento	4.83
98623	7	Sololá	704	Santa Lucía Utatlán 	7	Santa Rita 	6	Junio	2023-09-06T00:00:00	2024-11-08T10:00:00	1	Precipitación	0
98624	7	Sololá	704	Santa Lucía Utatlán 	7	Santa Rita 	6	Junio	2023-09-06T00:00:00	2024-11-08T10:00:00	8	Radiación solar	770
98625	7	Sololá	704	Santa Lucía Utatlán 	7	Santa Rita 	6	Junio	2023-09-06T00:00:00	2024-11-08T11:00:00	2	Temperatura media	26.2
98626	7	Sololá	704	Santa Lucía Utatlán 	7	Santa Rita 	6	Junio	2023-09-06T00:00:00	2024-11-08T11:00:00	4	Temperatura máxima	26.6
98627	7	Sololá	704	Santa Lucía Utatlán 	7	Santa Rita 	6	Junio	2023-09-06T00:00:00	2024-11-08T11:00:00	3	Temperatura mínima	25.9
98628	7	Sololá	704	Santa Lucía Utatlán 	7	Santa Rita 	6	Junio	2023-09-06T00:00:00	2024-11-08T11:00:00	5	Humedad	68
98629	7	Sololá	704	Santa Lucía Utatlán 	7	Santa Rita 	6	Junio	2023-09-06T00:00:00	2024-11-08T11:00:00	6	Velocidad del viento	8
98630	7	Sololá	704	Santa Lucía Utatlán 	7	Santa Rita 	6	Junio	2023-09-06T00:00:00	2024-11-08T11:00:00	7	Dirección del viento	8.05
98631	7	Sololá	704	Santa Lucía Utatlán 	7	Santa Rita 	6	Junio	2023-09-06T00:00:00	2024-11-08T11:00:00	1	Precipitación	0
98632	7	Sololá	704	Santa Lucía Utatlán 	7	Santa Rita 	6	Junio	2023-09-06T00:00:00	2024-11-08T11:00:00	8	Radiación solar	954
98633	7	Sololá	704	Santa Lucía Utatlán 	7	Santa Rita 	6	Junio	2023-09-06T00:00:00	2024-11-08T12:00:00	2	Temperatura media	27.1
98634	7	Sololá	704	Santa Lucía Utatlán 	7	Santa Rita 	6	Junio	2023-09-06T00:00:00	2024-11-08T12:00:00	4	Temperatura máxima	27.4
98635	7	Sololá	704	Santa Lucía Utatlán 	7	Santa Rita 	6	Junio	2023-09-06T00:00:00	2024-11-08T12:00:00	3	Temperatura mínima	26.2
98636	7	Sololá	704	Santa Lucía Utatlán 	7	Santa Rita 	6	Junio	2023-09-06T00:00:00	2024-11-08T12:00:00	5	Humedad	64
98637	7	Sololá	704	Santa Lucía Utatlán 	7	Santa Rita 	6	Junio	2023-09-06T00:00:00	2024-11-08T12:00:00	6	Velocidad del viento	8
98638	7	Sololá	704	Santa Lucía Utatlán 	7	Santa Rita 	6	Junio	2023-09-06T00:00:00	2024-11-08T12:00:00	7	Dirección del viento	8.05
98639	7	Sololá	704	Santa Lucía Utatlán 	7	Santa Rita 	6	Junio	2023-09-06T00:00:00	2024-11-08T12:00:00	1	Precipitación	0
98640	7	Sololá	704	Santa Lucía Utatlán 	7	Santa Rita 	6	Junio	2023-09-06T00:00:00	2024-11-08T12:00:00	8	Radiación solar	1034
98641	7	Sololá	704	Santa Lucía Utatlán 	7	Santa Rita 	6	Junio	2023-09-06T00:00:00	2024-11-08T13:00:00	2	Temperatura media	25
98642	7	Sololá	704	Santa Lucía Utatlán 	7	Santa Rita 	6	Junio	2023-09-06T00:00:00	2024-11-08T13:00:00	4	Temperatura máxima	27
98643	7	Sololá	704	Santa Lucía Utatlán 	7	Santa Rita 	6	Junio	2023-09-06T00:00:00	2024-11-08T13:00:00	3	Temperatura mínima	25
98644	7	Sololá	704	Santa Lucía Utatlán 	7	Santa Rita 	6	Junio	2023-09-06T00:00:00	2024-11-08T13:00:00	5	Humedad	77
98645	7	Sololá	704	Santa Lucía Utatlán 	7	Santa Rita 	6	Junio	2023-09-06T00:00:00	2024-11-08T13:00:00	6	Velocidad del viento	8
98646	7	Sololá	704	Santa Lucía Utatlán 	7	Santa Rita 	6	Junio	2023-09-06T00:00:00	2024-11-08T13:00:00	7	Dirección del viento	8.05
98647	7	Sololá	704	Santa Lucía Utatlán 	7	Santa Rita 	6	Junio	2023-09-06T00:00:00	2024-11-08T13:00:00	1	Precipitación	0
98648	7	Sololá	704	Santa Lucía Utatlán 	7	Santa Rita 	6	Junio	2023-09-06T00:00:00	2024-11-08T13:00:00	8	Radiación solar	677
98649	7	Sololá	704	Santa Lucía Utatlán 	7	Santa Rita 	6	Junio	2023-09-06T00:00:00	2024-11-08T14:00:00	2	Temperatura media	24.7
98650	7	Sololá	704	Santa Lucía Utatlán 	7	Santa Rita 	6	Junio	2023-09-06T00:00:00	2024-11-08T14:00:00	4	Temperatura máxima	25.5
98651	7	Sololá	704	Santa Lucía Utatlán 	7	Santa Rita 	6	Junio	2023-09-06T00:00:00	2024-11-08T14:00:00	3	Temperatura mínima	24.6
98652	7	Sololá	704	Santa Lucía Utatlán 	7	Santa Rita 	6	Junio	2023-09-06T00:00:00	2024-11-08T14:00:00	5	Humedad	80
98653	7	Sololá	704	Santa Lucía Utatlán 	7	Santa Rita 	6	Junio	2023-09-06T00:00:00	2024-11-08T14:00:00	6	Velocidad del viento	4.8
98654	7	Sololá	704	Santa Lucía Utatlán 	7	Santa Rita 	6	Junio	2023-09-06T00:00:00	2024-11-08T14:00:00	7	Dirección del viento	4.83
98655	7	Sololá	704	Santa Lucía Utatlán 	7	Santa Rita 	6	Junio	2023-09-06T00:00:00	2024-11-08T14:00:00	1	Precipitación	0
98656	7	Sololá	704	Santa Lucía Utatlán 	7	Santa Rita 	6	Junio	2023-09-06T00:00:00	2024-11-08T14:00:00	8	Radiación solar	313
98657	7	Sololá	704	Santa Lucía Utatlán 	7	Santa Rita 	6	Junio	2023-09-06T00:00:00	2024-11-08T15:00:00	2	Temperatura media	24.2
98658	7	Sololá	704	Santa Lucía Utatlán 	7	Santa Rita 	6	Junio	2023-09-06T00:00:00	2024-11-08T15:00:00	4	Temperatura máxima	24.7
98659	7	Sololá	704	Santa Lucía Utatlán 	7	Santa Rita 	6	Junio	2023-09-06T00:00:00	2024-11-08T15:00:00	3	Temperatura mínima	24.1
98660	7	Sololá	704	Santa Lucía Utatlán 	7	Santa Rita 	6	Junio	2023-09-06T00:00:00	2024-11-08T15:00:00	5	Humedad	83
98661	7	Sololá	704	Santa Lucía Utatlán 	7	Santa Rita 	6	Junio	2023-09-06T00:00:00	2024-11-08T15:00:00	6	Velocidad del viento	4.8
98662	7	Sololá	704	Santa Lucía Utatlán 	7	Santa Rita 	6	Junio	2023-09-06T00:00:00	2024-11-08T15:00:00	7	Dirección del viento	4.83
98663	7	Sololá	704	Santa Lucía Utatlán 	7	Santa Rita 	6	Junio	2023-09-06T00:00:00	2024-11-08T15:00:00	1	Precipitación	0
98664	7	Sololá	704	Santa Lucía Utatlán 	7	Santa Rita 	6	Junio	2023-09-06T00:00:00	2024-11-08T15:00:00	8	Radiación solar	233
98665	7	Sololá	704	Santa Lucía Utatlán 	7	Santa Rita 	6	Junio	2023-09-06T00:00:00	2024-11-08T16:00:00	2	Temperatura media	23.3
98666	7	Sololá	704	Santa Lucía Utatlán 	7	Santa Rita 	6	Junio	2023-09-06T00:00:00	2024-11-08T16:00:00	4	Temperatura máxima	24.2
98667	7	Sololá	704	Santa Lucía Utatlán 	7	Santa Rita 	6	Junio	2023-09-06T00:00:00	2024-11-08T16:00:00	3	Temperatura mínima	23.3
98668	7	Sololá	704	Santa Lucía Utatlán 	7	Santa Rita 	6	Junio	2023-09-06T00:00:00	2024-11-08T16:00:00	5	Humedad	84
98669	7	Sololá	704	Santa Lucía Utatlán 	7	Santa Rita 	6	Junio	2023-09-06T00:00:00	2024-11-08T16:00:00	6	Velocidad del viento	4.8
98670	7	Sololá	704	Santa Lucía Utatlán 	7	Santa Rita 	6	Junio	2023-09-06T00:00:00	2024-11-08T16:00:00	7	Dirección del viento	4.83
98671	7	Sololá	704	Santa Lucía Utatlán 	7	Santa Rita 	6	Junio	2023-09-06T00:00:00	2024-11-08T16:00:00	1	Precipitación	0
98672	7	Sololá	704	Santa Lucía Utatlán 	7	Santa Rita 	6	Junio	2023-09-06T00:00:00	2024-11-08T16:00:00	8	Radiación solar	180
98673	7	Sololá	704	Santa Lucía Utatlán 	7	Santa Rita 	6	Junio	2023-09-06T00:00:00	2024-11-08T17:00:00	2	Temperatura media	23
98674	7	Sololá	704	Santa Lucía Utatlán 	7	Santa Rita 	6	Junio	2023-09-06T00:00:00	2024-11-08T17:00:00	4	Temperatura máxima	23.4
98675	7	Sololá	704	Santa Lucía Utatlán 	7	Santa Rita 	6	Junio	2023-09-06T00:00:00	2024-11-08T17:00:00	3	Temperatura mínima	23
98676	7	Sololá	704	Santa Lucía Utatlán 	7	Santa Rita 	6	Junio	2023-09-06T00:00:00	2024-11-08T17:00:00	5	Humedad	86
98677	7	Sololá	704	Santa Lucía Utatlán 	7	Santa Rita 	6	Junio	2023-09-06T00:00:00	2024-11-08T17:00:00	6	Velocidad del viento	3.2
98678	7	Sololá	704	Santa Lucía Utatlán 	7	Santa Rita 	6	Junio	2023-09-06T00:00:00	2024-11-08T17:00:00	7	Dirección del viento	3.22
98679	7	Sololá	704	Santa Lucía Utatlán 	7	Santa Rita 	6	Junio	2023-09-06T00:00:00	2024-11-08T17:00:00	1	Precipitación	0
98680	7	Sololá	704	Santa Lucía Utatlán 	7	Santa Rita 	6	Junio	2023-09-06T00:00:00	2024-11-08T17:00:00	8	Radiación solar	115
98681	7	Sololá	704	Santa Lucía Utatlán 	7	Santa Rita 	6	Junio	2023-09-06T00:00:00	2024-11-08T18:00:00	2	Temperatura media	22.1
98682	7	Sololá	704	Santa Lucía Utatlán 	7	Santa Rita 	6	Junio	2023-09-06T00:00:00	2024-11-08T18:00:00	4	Temperatura máxima	23.1
98683	7	Sololá	704	Santa Lucía Utatlán 	7	Santa Rita 	6	Junio	2023-09-06T00:00:00	2024-11-08T18:00:00	3	Temperatura mínima	22.1
98684	7	Sololá	704	Santa Lucía Utatlán 	7	Santa Rita 	6	Junio	2023-09-06T00:00:00	2024-11-08T18:00:00	5	Humedad	89
98685	7	Sololá	704	Santa Lucía Utatlán 	7	Santa Rita 	6	Junio	2023-09-06T00:00:00	2024-11-08T18:00:00	6	Velocidad del viento	3.2
98686	7	Sololá	704	Santa Lucía Utatlán 	7	Santa Rita 	6	Junio	2023-09-06T00:00:00	2024-11-08T18:00:00	7	Dirección del viento	3.22
98687	7	Sololá	704	Santa Lucía Utatlán 	7	Santa Rita 	6	Junio	2023-09-06T00:00:00	2024-11-08T18:00:00	1	Precipitación	0
98688	7	Sololá	704	Santa Lucía Utatlán 	7	Santa Rita 	6	Junio	2023-09-06T00:00:00	2024-11-08T18:00:00	8	Radiación solar	58
98689	7	Sololá	704	Santa Lucía Utatlán 	7	Santa Rita 	6	Junio	2023-09-06T00:00:00	2024-11-08T19:00:00	2	Temperatura media	21.7
98690	7	Sololá	704	Santa Lucía Utatlán 	7	Santa Rita 	6	Junio	2023-09-06T00:00:00	2024-11-08T19:00:00	4	Temperatura máxima	22.1
98691	7	Sololá	704	Santa Lucía Utatlán 	7	Santa Rita 	6	Junio	2023-09-06T00:00:00	2024-11-08T19:00:00	3	Temperatura mínima	21.7
98692	7	Sololá	704	Santa Lucía Utatlán 	7	Santa Rita 	6	Junio	2023-09-06T00:00:00	2024-11-08T19:00:00	5	Humedad	91
98693	7	Sololá	704	Santa Lucía Utatlán 	7	Santa Rita 	6	Junio	2023-09-06T00:00:00	2024-11-08T19:00:00	6	Velocidad del viento	1.6
98694	7	Sololá	704	Santa Lucía Utatlán 	7	Santa Rita 	6	Junio	2023-09-06T00:00:00	2024-11-08T19:00:00	7	Dirección del viento	1.61
98695	7	Sololá	704	Santa Lucía Utatlán 	7	Santa Rita 	6	Junio	2023-09-06T00:00:00	2024-11-08T19:00:00	1	Precipitación	0
98696	7	Sololá	704	Santa Lucía Utatlán 	7	Santa Rita 	6	Junio	2023-09-06T00:00:00	2024-11-08T19:00:00	8	Radiación solar	0
98697	7	Sololá	704	Santa Lucía Utatlán 	7	Santa Rita 	6	Junio	2023-09-06T00:00:00	2024-11-08T20:00:00	2	Temperatura media	21.4
98698	7	Sololá	704	Santa Lucía Utatlán 	7	Santa Rita 	6	Junio	2023-09-06T00:00:00	2024-11-08T20:00:00	4	Temperatura máxima	21.7
98699	7	Sololá	704	Santa Lucía Utatlán 	7	Santa Rita 	6	Junio	2023-09-06T00:00:00	2024-11-08T20:00:00	3	Temperatura mínima	21.2
98700	7	Sololá	704	Santa Lucía Utatlán 	7	Santa Rita 	6	Junio	2023-09-06T00:00:00	2024-11-08T20:00:00	5	Humedad	91
98701	7	Sololá	704	Santa Lucía Utatlán 	7	Santa Rita 	6	Junio	2023-09-06T00:00:00	2024-11-08T20:00:00	6	Velocidad del viento	3.2
98702	7	Sololá	704	Santa Lucía Utatlán 	7	Santa Rita 	6	Junio	2023-09-06T00:00:00	2024-11-08T20:00:00	7	Dirección del viento	3.22
98703	7	Sololá	704	Santa Lucía Utatlán 	7	Santa Rita 	6	Junio	2023-09-06T00:00:00	2024-11-08T20:00:00	1	Precipitación	0
98704	7	Sololá	704	Santa Lucía Utatlán 	7	Santa Rita 	6	Junio	2023-09-06T00:00:00	2024-11-08T20:00:00	8	Radiación solar	0
98705	7	Sololá	704	Santa Lucía Utatlán 	7	Santa Rita 	6	Junio	2023-09-06T00:00:00	2024-11-08T21:00:00	2	Temperatura media	20.1
98706	7	Sololá	704	Santa Lucía Utatlán 	7	Santa Rita 	6	Junio	2023-09-06T00:00:00	2024-11-08T21:00:00	4	Temperatura máxima	21.5
98707	7	Sololá	704	Santa Lucía Utatlán 	7	Santa Rita 	6	Junio	2023-09-06T00:00:00	2024-11-08T21:00:00	3	Temperatura mínima	20.1
98708	7	Sololá	704	Santa Lucía Utatlán 	7	Santa Rita 	6	Junio	2023-09-06T00:00:00	2024-11-08T21:00:00	5	Humedad	89
98709	7	Sololá	704	Santa Lucía Utatlán 	7	Santa Rita 	6	Junio	2023-09-06T00:00:00	2024-11-08T21:00:00	6	Velocidad del viento	3.2
98710	7	Sololá	704	Santa Lucía Utatlán 	7	Santa Rita 	6	Junio	2023-09-06T00:00:00	2024-11-08T21:00:00	7	Dirección del viento	3.22
98711	7	Sololá	704	Santa Lucía Utatlán 	7	Santa Rita 	6	Junio	2023-09-06T00:00:00	2024-11-08T21:00:00	1	Precipitación	0
98712	7	Sololá	704	Santa Lucía Utatlán 	7	Santa Rita 	6	Junio	2023-09-06T00:00:00	2024-11-08T21:00:00	8	Radiación solar	0
98713	7	Sololá	704	Santa Lucía Utatlán 	7	Santa Rita 	6	Junio	2023-09-06T00:00:00	2024-11-08T22:00:00	2	Temperatura media	20.4
98714	7	Sololá	704	Santa Lucía Utatlán 	7	Santa Rita 	6	Junio	2023-09-06T00:00:00	2024-11-08T22:00:00	4	Temperatura máxima	20.6
98715	7	Sololá	704	Santa Lucía Utatlán 	7	Santa Rita 	6	Junio	2023-09-06T00:00:00	2024-11-08T22:00:00	3	Temperatura mínima	20.1
98716	7	Sololá	704	Santa Lucía Utatlán 	7	Santa Rita 	6	Junio	2023-09-06T00:00:00	2024-11-08T22:00:00	5	Humedad	92
98717	7	Sololá	704	Santa Lucía Utatlán 	7	Santa Rita 	6	Junio	2023-09-06T00:00:00	2024-11-08T22:00:00	6	Velocidad del viento	1.6
98718	7	Sololá	704	Santa Lucía Utatlán 	7	Santa Rita 	6	Junio	2023-09-06T00:00:00	2024-11-08T22:00:00	7	Dirección del viento	1.61
98719	7	Sololá	704	Santa Lucía Utatlán 	7	Santa Rita 	6	Junio	2023-09-06T00:00:00	2024-11-08T22:00:00	1	Precipitación	0
98720	7	Sololá	704	Santa Lucía Utatlán 	7	Santa Rita 	6	Junio	2023-09-06T00:00:00	2024-11-08T22:00:00	8	Radiación solar	0
98721	7	Sololá	704	Santa Lucía Utatlán 	7	Santa Rita 	6	Junio	2023-09-06T00:00:00	2024-11-08T23:00:00	2	Temperatura media	19.9
98722	7	Sololá	704	Santa Lucía Utatlán 	7	Santa Rita 	6	Junio	2023-09-06T00:00:00	2024-11-08T23:00:00	4	Temperatura máxima	20.7
98723	7	Sololá	704	Santa Lucía Utatlán 	7	Santa Rita 	6	Junio	2023-09-06T00:00:00	2024-11-08T23:00:00	3	Temperatura mínima	19.8
98724	7	Sololá	704	Santa Lucía Utatlán 	7	Santa Rita 	6	Junio	2023-09-06T00:00:00	2024-11-08T23:00:00	5	Humedad	93
98725	7	Sololá	704	Santa Lucía Utatlán 	7	Santa Rita 	6	Junio	2023-09-06T00:00:00	2024-11-08T23:00:00	6	Velocidad del viento	1.6
98726	7	Sololá	704	Santa Lucía Utatlán 	7	Santa Rita 	6	Junio	2023-09-06T00:00:00	2024-11-08T23:00:00	7	Dirección del viento	1.61
98727	7	Sololá	704	Santa Lucía Utatlán 	7	Santa Rita 	6	Junio	2023-09-06T00:00:00	2024-11-08T23:00:00	1	Precipitación	0
98728	7	Sololá	704	Santa Lucía Utatlán 	7	Santa Rita 	6	Junio	2023-09-06T00:00:00	2024-11-08T23:00:00	8	Radiación solar	0
98729	7	Sololá	704	Santa Lucía Utatlán 	7	Santa Rita 	6	Junio	2023-10-06T00:00:00	2024-11-08T00:00:00	2	Temperatura media	19.1
98730	7	Sololá	704	Santa Lucía Utatlán 	7	Santa Rita 	6	Junio	2023-10-06T00:00:00	2024-11-08T00:00:00	4	Temperatura máxima	19.9
98731	7	Sololá	704	Santa Lucía Utatlán 	7	Santa Rita 	6	Junio	2023-10-06T00:00:00	2024-11-08T00:00:00	3	Temperatura mínima	19.1
98732	7	Sololá	704	Santa Lucía Utatlán 	7	Santa Rita 	6	Junio	2023-10-06T00:00:00	2024-11-08T00:00:00	5	Humedad	91
98733	7	Sololá	704	Santa Lucía Utatlán 	7	Santa Rita 	6	Junio	2023-10-06T00:00:00	2024-11-08T00:00:00	6	Velocidad del viento	3.2
98734	7	Sololá	704	Santa Lucía Utatlán 	7	Santa Rita 	6	Junio	2023-10-06T00:00:00	2024-11-08T00:00:00	7	Dirección del viento	3.22
98735	7	Sololá	704	Santa Lucía Utatlán 	7	Santa Rita 	6	Junio	2023-10-06T00:00:00	2024-11-08T00:00:00	1	Precipitación	0
98736	7	Sololá	704	Santa Lucía Utatlán 	7	Santa Rita 	6	Junio	2023-10-06T00:00:00	2024-11-08T00:00:00	8	Radiación solar	0
98737	7	Sololá	704	Santa Lucía Utatlán 	7	Santa Rita 	6	Junio	2023-10-06T00:00:00	2024-11-08T01:00:00	2	Temperatura media	18.7
98738	7	Sololá	704	Santa Lucía Utatlán 	7	Santa Rita 	6	Junio	2023-10-06T00:00:00	2024-11-08T01:00:00	4	Temperatura máxima	19.2
98739	7	Sololá	704	Santa Lucía Utatlán 	7	Santa Rita 	6	Junio	2023-10-06T00:00:00	2024-11-08T01:00:00	3	Temperatura mínima	18.4
98740	7	Sololá	704	Santa Lucía Utatlán 	7	Santa Rita 	6	Junio	2023-10-06T00:00:00	2024-11-08T01:00:00	5	Humedad	89
98741	7	Sololá	704	Santa Lucía Utatlán 	7	Santa Rita 	6	Junio	2023-10-06T00:00:00	2024-11-08T01:00:00	6	Velocidad del viento	3.2
98742	7	Sololá	704	Santa Lucía Utatlán 	7	Santa Rita 	6	Junio	2023-10-06T00:00:00	2024-11-08T01:00:00	7	Dirección del viento	3.22
98743	7	Sololá	704	Santa Lucía Utatlán 	7	Santa Rita 	6	Junio	2023-10-06T00:00:00	2024-11-08T01:00:00	1	Precipitación	0
98744	7	Sololá	704	Santa Lucía Utatlán 	7	Santa Rita 	6	Junio	2023-10-06T00:00:00	2024-11-08T01:00:00	8	Radiación solar	0
98745	7	Sololá	704	Santa Lucía Utatlán 	7	Santa Rita 	6	Junio	2023-10-06T00:00:00	2024-11-08T02:00:00	2	Temperatura media	18.1
98746	7	Sololá	704	Santa Lucía Utatlán 	7	Santa Rita 	6	Junio	2023-10-06T00:00:00	2024-11-08T02:00:00	4	Temperatura máxima	18.9
98747	7	Sololá	704	Santa Lucía Utatlán 	7	Santa Rita 	6	Junio	2023-10-06T00:00:00	2024-11-08T02:00:00	3	Temperatura mínima	18.1
98748	7	Sololá	704	Santa Lucía Utatlán 	7	Santa Rita 	6	Junio	2023-10-06T00:00:00	2024-11-08T02:00:00	5	Humedad	89
98749	7	Sololá	704	Santa Lucía Utatlán 	7	Santa Rita 	6	Junio	2023-10-06T00:00:00	2024-11-08T02:00:00	6	Velocidad del viento	3.2
98750	7	Sololá	704	Santa Lucía Utatlán 	7	Santa Rita 	6	Junio	2023-10-06T00:00:00	2024-11-08T02:00:00	7	Dirección del viento	3.22
98751	7	Sololá	704	Santa Lucía Utatlán 	7	Santa Rita 	6	Junio	2023-10-06T00:00:00	2024-11-08T02:00:00	1	Precipitación	0
98752	7	Sololá	704	Santa Lucía Utatlán 	7	Santa Rita 	6	Junio	2023-10-06T00:00:00	2024-11-08T02:00:00	8	Radiación solar	0
98753	7	Sololá	704	Santa Lucía Utatlán 	7	Santa Rita 	6	Junio	2023-10-06T00:00:00	2024-11-08T03:00:00	2	Temperatura media	18
98754	7	Sololá	704	Santa Lucía Utatlán 	7	Santa Rita 	6	Junio	2023-10-06T00:00:00	2024-11-08T03:00:00	4	Temperatura máxima	18.2
98755	7	Sololá	704	Santa Lucía Utatlán 	7	Santa Rita 	6	Junio	2023-10-06T00:00:00	2024-11-08T03:00:00	3	Temperatura mínima	17.9
98756	7	Sololá	704	Santa Lucía Utatlán 	7	Santa Rita 	6	Junio	2023-10-06T00:00:00	2024-11-08T03:00:00	5	Humedad	92
98757	7	Sololá	704	Santa Lucía Utatlán 	7	Santa Rita 	6	Junio	2023-10-06T00:00:00	2024-11-08T03:00:00	6	Velocidad del viento	3.2
98758	7	Sololá	704	Santa Lucía Utatlán 	7	Santa Rita 	6	Junio	2023-10-06T00:00:00	2024-11-08T03:00:00	7	Dirección del viento	3.22
98759	7	Sololá	704	Santa Lucía Utatlán 	7	Santa Rita 	6	Junio	2023-10-06T00:00:00	2024-11-08T03:00:00	1	Precipitación	0
98760	7	Sololá	704	Santa Lucía Utatlán 	7	Santa Rita 	6	Junio	2023-10-06T00:00:00	2024-11-08T03:00:00	8	Radiación solar	0
98761	7	Sololá	704	Santa Lucía Utatlán 	7	Santa Rita 	6	Junio	2023-10-06T00:00:00	2024-11-08T04:00:00	2	Temperatura media	17.2
98762	7	Sololá	704	Santa Lucía Utatlán 	7	Santa Rita 	6	Junio	2023-10-06T00:00:00	2024-11-08T04:00:00	4	Temperatura máxima	18
98763	7	Sololá	704	Santa Lucía Utatlán 	7	Santa Rita 	6	Junio	2023-10-06T00:00:00	2024-11-08T04:00:00	3	Temperatura mínima	17.1
98764	7	Sololá	704	Santa Lucía Utatlán 	7	Santa Rita 	6	Junio	2023-10-06T00:00:00	2024-11-08T04:00:00	5	Humedad	90
98765	7	Sololá	704	Santa Lucía Utatlán 	7	Santa Rita 	6	Junio	2023-10-06T00:00:00	2024-11-08T04:00:00	6	Velocidad del viento	3.2
98766	7	Sololá	704	Santa Lucía Utatlán 	7	Santa Rita 	6	Junio	2023-10-06T00:00:00	2024-11-08T04:00:00	7	Dirección del viento	3.22
98767	7	Sololá	704	Santa Lucía Utatlán 	7	Santa Rita 	6	Junio	2023-10-06T00:00:00	2024-11-08T04:00:00	1	Precipitación	0
98768	7	Sololá	704	Santa Lucía Utatlán 	7	Santa Rita 	6	Junio	2023-10-06T00:00:00	2024-11-08T04:00:00	8	Radiación solar	0
98769	7	Sololá	704	Santa Lucía Utatlán 	7	Santa Rita 	6	Junio	2023-10-06T00:00:00	2024-11-08T05:00:00	2	Temperatura media	17.1
98770	7	Sololá	704	Santa Lucía Utatlán 	7	Santa Rita 	6	Junio	2023-10-06T00:00:00	2024-11-08T05:00:00	4	Temperatura máxima	17.3
98771	7	Sololá	704	Santa Lucía Utatlán 	7	Santa Rita 	6	Junio	2023-10-06T00:00:00	2024-11-08T05:00:00	3	Temperatura mínima	17
98772	7	Sololá	704	Santa Lucía Utatlán 	7	Santa Rita 	6	Junio	2023-10-06T00:00:00	2024-11-08T05:00:00	5	Humedad	84
98773	7	Sololá	704	Santa Lucía Utatlán 	7	Santa Rita 	6	Junio	2023-10-06T00:00:00	2024-11-08T05:00:00	6	Velocidad del viento	4.8
98774	7	Sololá	704	Santa Lucía Utatlán 	7	Santa Rita 	6	Junio	2023-10-06T00:00:00	2024-11-08T05:00:00	7	Dirección del viento	4.83
98775	7	Sololá	704	Santa Lucía Utatlán 	7	Santa Rita 	6	Junio	2023-10-06T00:00:00	2024-11-08T05:00:00	1	Precipitación	0
98776	7	Sololá	704	Santa Lucía Utatlán 	7	Santa Rita 	6	Junio	2023-10-06T00:00:00	2024-11-08T05:00:00	8	Radiación solar	0
98777	7	Sololá	704	Santa Lucía Utatlán 	7	Santa Rita 	6	Junio	2023-10-06T00:00:00	2024-11-08T06:00:00	2	Temperatura media	17.1
98778	7	Sololá	704	Santa Lucía Utatlán 	7	Santa Rita 	6	Junio	2023-10-06T00:00:00	2024-11-08T06:00:00	4	Temperatura máxima	17.2
98779	7	Sololá	704	Santa Lucía Utatlán 	7	Santa Rita 	6	Junio	2023-10-06T00:00:00	2024-11-08T06:00:00	3	Temperatura mínima	16.8
98780	7	Sololá	704	Santa Lucía Utatlán 	7	Santa Rita 	6	Junio	2023-10-06T00:00:00	2024-11-08T06:00:00	5	Humedad	82
98781	7	Sololá	704	Santa Lucía Utatlán 	7	Santa Rita 	6	Junio	2023-10-06T00:00:00	2024-11-08T06:00:00	6	Velocidad del viento	4.8
98782	7	Sololá	704	Santa Lucía Utatlán 	7	Santa Rita 	6	Junio	2023-10-06T00:00:00	2024-11-08T06:00:00	7	Dirección del viento	4.83
98783	7	Sololá	704	Santa Lucía Utatlán 	7	Santa Rita 	6	Junio	2023-10-06T00:00:00	2024-11-08T06:00:00	1	Precipitación	0
98784	7	Sololá	704	Santa Lucía Utatlán 	7	Santa Rita 	6	Junio	2023-10-06T00:00:00	2024-11-08T06:00:00	8	Radiación solar	7
98785	7	Sololá	704	Santa Lucía Utatlán 	7	Santa Rita 	6	Junio	2023-10-06T00:00:00	2024-11-08T07:00:00	2	Temperatura media	18.9
98786	7	Sololá	704	Santa Lucía Utatlán 	7	Santa Rita 	6	Junio	2023-10-06T00:00:00	2024-11-08T07:00:00	4	Temperatura máxima	18.9
98787	7	Sololá	704	Santa Lucía Utatlán 	7	Santa Rita 	6	Junio	2023-10-06T00:00:00	2024-11-08T07:00:00	3	Temperatura mínima	17.1
98788	7	Sololá	704	Santa Lucía Utatlán 	7	Santa Rita 	6	Junio	2023-10-06T00:00:00	2024-11-08T07:00:00	5	Humedad	75
98789	7	Sololá	704	Santa Lucía Utatlán 	7	Santa Rita 	6	Junio	2023-10-06T00:00:00	2024-11-08T07:00:00	6	Velocidad del viento	4.8
98790	7	Sololá	704	Santa Lucía Utatlán 	7	Santa Rita 	6	Junio	2023-10-06T00:00:00	2024-11-08T07:00:00	7	Dirección del viento	4.83
98791	7	Sololá	704	Santa Lucía Utatlán 	7	Santa Rita 	6	Junio	2023-10-06T00:00:00	2024-11-08T07:00:00	1	Precipitación	0
98792	7	Sololá	704	Santa Lucía Utatlán 	7	Santa Rita 	6	Junio	2023-10-06T00:00:00	2024-11-08T07:00:00	8	Radiación solar	87
98793	7	Sololá	704	Santa Lucía Utatlán 	7	Santa Rita 	6	Junio	2023-10-06T00:00:00	2024-11-08T08:00:00	2	Temperatura media	21.2
98794	7	Sololá	704	Santa Lucía Utatlán 	7	Santa Rita 	6	Junio	2023-10-06T00:00:00	2024-11-08T08:00:00	4	Temperatura máxima	21.2
98795	7	Sololá	704	Santa Lucía Utatlán 	7	Santa Rita 	6	Junio	2023-10-06T00:00:00	2024-11-08T08:00:00	3	Temperatura mínima	19
98796	7	Sololá	704	Santa Lucía Utatlán 	7	Santa Rita 	6	Junio	2023-10-06T00:00:00	2024-11-08T08:00:00	5	Humedad	67
98797	7	Sololá	704	Santa Lucía Utatlán 	7	Santa Rita 	6	Junio	2023-10-06T00:00:00	2024-11-08T08:00:00	6	Velocidad del viento	3.2
98798	7	Sololá	704	Santa Lucía Utatlán 	7	Santa Rita 	6	Junio	2023-10-06T00:00:00	2024-11-08T08:00:00	7	Dirección del viento	3.22
98799	7	Sololá	704	Santa Lucía Utatlán 	7	Santa Rita 	6	Junio	2023-10-06T00:00:00	2024-11-08T08:00:00	1	Precipitación	0
98800	7	Sololá	704	Santa Lucía Utatlán 	7	Santa Rita 	6	Junio	2023-10-06T00:00:00	2024-11-08T08:00:00	8	Radiación solar	323
98801	7	Sololá	704	Santa Lucía Utatlán 	7	Santa Rita 	6	Junio	2023-10-06T00:00:00	2024-11-08T09:00:00	2	Temperatura media	24.6
98802	7	Sololá	704	Santa Lucía Utatlán 	7	Santa Rita 	6	Junio	2023-10-06T00:00:00	2024-11-08T09:00:00	4	Temperatura máxima	24.6
98803	7	Sololá	704	Santa Lucía Utatlán 	7	Santa Rita 	6	Junio	2023-10-06T00:00:00	2024-11-08T09:00:00	3	Temperatura mínima	21.2
98804	7	Sololá	704	Santa Lucía Utatlán 	7	Santa Rita 	6	Junio	2023-10-06T00:00:00	2024-11-08T09:00:00	5	Humedad	54
98805	7	Sololá	704	Santa Lucía Utatlán 	7	Santa Rita 	6	Junio	2023-10-06T00:00:00	2024-11-08T09:00:00	6	Velocidad del viento	1.6
98806	7	Sololá	704	Santa Lucía Utatlán 	7	Santa Rita 	6	Junio	2023-10-06T00:00:00	2024-11-08T09:00:00	7	Dirección del viento	1.61
98807	7	Sololá	704	Santa Lucía Utatlán 	7	Santa Rita 	6	Junio	2023-10-06T00:00:00	2024-11-08T09:00:00	1	Precipitación	0
98808	7	Sololá	704	Santa Lucía Utatlán 	7	Santa Rita 	6	Junio	2023-10-06T00:00:00	2024-11-08T09:00:00	8	Radiación solar	565
98809	7	Sololá	704	Santa Lucía Utatlán 	7	Santa Rita 	6	Junio	2023-10-06T00:00:00	2024-11-08T10:00:00	2	Temperatura media	26.2
98810	7	Sololá	704	Santa Lucía Utatlán 	7	Santa Rita 	6	Junio	2023-10-06T00:00:00	2024-11-08T10:00:00	4	Temperatura máxima	26.2
98811	7	Sololá	704	Santa Lucía Utatlán 	7	Santa Rita 	6	Junio	2023-10-06T00:00:00	2024-11-08T10:00:00	3	Temperatura mínima	24.6
98812	7	Sololá	704	Santa Lucía Utatlán 	7	Santa Rita 	6	Junio	2023-10-06T00:00:00	2024-11-08T10:00:00	5	Humedad	55
98813	7	Sololá	704	Santa Lucía Utatlán 	7	Santa Rita 	6	Junio	2023-10-06T00:00:00	2024-11-08T10:00:00	6	Velocidad del viento	4.8
98814	7	Sololá	704	Santa Lucía Utatlán 	7	Santa Rita 	6	Junio	2023-10-06T00:00:00	2024-11-08T10:00:00	7	Dirección del viento	4.83
98815	7	Sololá	704	Santa Lucía Utatlán 	7	Santa Rita 	6	Junio	2023-10-06T00:00:00	2024-11-08T10:00:00	1	Precipitación	0
98816	7	Sololá	704	Santa Lucía Utatlán 	7	Santa Rita 	6	Junio	2023-10-06T00:00:00	2024-11-08T10:00:00	8	Radiación solar	795
98817	7	Sololá	704	Santa Lucía Utatlán 	7	Santa Rita 	6	Junio	2023-10-06T00:00:00	2024-11-08T11:00:00	2	Temperatura media	25.4
98818	7	Sololá	704	Santa Lucía Utatlán 	7	Santa Rita 	6	Junio	2023-10-06T00:00:00	2024-11-08T11:00:00	4	Temperatura máxima	26.4
98819	7	Sololá	704	Santa Lucía Utatlán 	7	Santa Rita 	6	Junio	2023-10-06T00:00:00	2024-11-08T11:00:00	3	Temperatura mínima	25.2
98820	7	Sololá	704	Santa Lucía Utatlán 	7	Santa Rita 	6	Junio	2023-10-06T00:00:00	2024-11-08T11:00:00	5	Humedad	68
98821	7	Sololá	704	Santa Lucía Utatlán 	7	Santa Rita 	6	Junio	2023-10-06T00:00:00	2024-11-08T11:00:00	6	Velocidad del viento	9.7
98822	7	Sololá	704	Santa Lucía Utatlán 	7	Santa Rita 	6	Junio	2023-10-06T00:00:00	2024-11-08T11:00:00	7	Dirección del viento	9.66
98823	7	Sololá	704	Santa Lucía Utatlán 	7	Santa Rita 	6	Junio	2023-10-06T00:00:00	2024-11-08T11:00:00	1	Precipitación	0
98824	7	Sololá	704	Santa Lucía Utatlán 	7	Santa Rita 	6	Junio	2023-10-06T00:00:00	2024-11-08T11:00:00	8	Radiación solar	939
98825	7	Sololá	704	Santa Lucía Utatlán 	7	Santa Rita 	6	Junio	2023-10-06T00:00:00	2024-11-08T12:00:00	2	Temperatura media	22.6
98826	7	Sololá	704	Santa Lucía Utatlán 	7	Santa Rita 	6	Junio	2023-10-06T00:00:00	2024-11-08T12:00:00	4	Temperatura máxima	25.4
98827	7	Sololá	704	Santa Lucía Utatlán 	7	Santa Rita 	6	Junio	2023-10-06T00:00:00	2024-11-08T12:00:00	3	Temperatura mínima	22.6
98828	7	Sololá	704	Santa Lucía Utatlán 	7	Santa Rita 	6	Junio	2023-10-06T00:00:00	2024-11-08T12:00:00	5	Humedad	83
98829	7	Sololá	704	Santa Lucía Utatlán 	7	Santa Rita 	6	Junio	2023-10-06T00:00:00	2024-11-08T12:00:00	6	Velocidad del viento	8
98830	7	Sololá	704	Santa Lucía Utatlán 	7	Santa Rita 	6	Junio	2023-10-06T00:00:00	2024-11-08T12:00:00	7	Dirección del viento	8.05
98831	7	Sololá	704	Santa Lucía Utatlán 	7	Santa Rita 	6	Junio	2023-10-06T00:00:00	2024-11-08T12:00:00	1	Precipitación	0
98832	7	Sololá	704	Santa Lucía Utatlán 	7	Santa Rita 	6	Junio	2023-10-06T00:00:00	2024-11-08T12:00:00	8	Radiación solar	278
98833	7	Sololá	704	Santa Lucía Utatlán 	7	Santa Rita 	6	Junio	2023-10-06T00:00:00	2024-11-08T13:00:00	2	Temperatura media	22.4
98834	7	Sololá	704	Santa Lucía Utatlán 	7	Santa Rita 	6	Junio	2023-10-06T00:00:00	2024-11-08T13:00:00	4	Temperatura máxima	23.1
98835	7	Sololá	704	Santa Lucía Utatlán 	7	Santa Rita 	6	Junio	2023-10-06T00:00:00	2024-11-08T13:00:00	3	Temperatura mínima	22.4
98836	7	Sololá	704	Santa Lucía Utatlán 	7	Santa Rita 	6	Junio	2023-10-06T00:00:00	2024-11-08T13:00:00	5	Humedad	84
98837	7	Sololá	704	Santa Lucía Utatlán 	7	Santa Rita 	6	Junio	2023-10-06T00:00:00	2024-11-08T13:00:00	6	Velocidad del viento	4.8
98838	7	Sololá	704	Santa Lucía Utatlán 	7	Santa Rita 	6	Junio	2023-10-06T00:00:00	2024-11-08T13:00:00	7	Dirección del viento	4.83
98839	7	Sololá	704	Santa Lucía Utatlán 	7	Santa Rita 	6	Junio	2023-10-06T00:00:00	2024-11-08T13:00:00	1	Precipitación	0
98840	7	Sololá	704	Santa Lucía Utatlán 	7	Santa Rita 	6	Junio	2023-10-06T00:00:00	2024-11-08T13:00:00	8	Radiación solar	185
98841	7	Sololá	704	Santa Lucía Utatlán 	7	Santa Rita 	6	Junio	2023-10-06T00:00:00	2024-11-08T14:00:00	2	Temperatura media	25.2
98842	7	Sololá	704	Santa Lucía Utatlán 	7	Santa Rita 	6	Junio	2023-10-06T00:00:00	2024-11-08T14:00:00	4	Temperatura máxima	25.4
98843	7	Sololá	704	Santa Lucía Utatlán 	7	Santa Rita 	6	Junio	2023-10-06T00:00:00	2024-11-08T14:00:00	3	Temperatura mínima	22.4
98844	7	Sololá	704	Santa Lucía Utatlán 	7	Santa Rita 	6	Junio	2023-10-06T00:00:00	2024-11-08T14:00:00	5	Humedad	74
98845	7	Sololá	704	Santa Lucía Utatlán 	7	Santa Rita 	6	Junio	2023-10-06T00:00:00	2024-11-08T14:00:00	6	Velocidad del viento	3.2
98846	7	Sololá	704	Santa Lucía Utatlán 	7	Santa Rita 	6	Junio	2023-10-06T00:00:00	2024-11-08T14:00:00	7	Dirección del viento	3.22
98847	7	Sololá	704	Santa Lucía Utatlán 	7	Santa Rita 	6	Junio	2023-10-06T00:00:00	2024-11-08T14:00:00	1	Precipitación	0
98848	7	Sololá	704	Santa Lucía Utatlán 	7	Santa Rita 	6	Junio	2023-10-06T00:00:00	2024-11-08T14:00:00	8	Radiación solar	475
98849	7	Sololá	704	Santa Lucía Utatlán 	7	Santa Rita 	6	Junio	2023-10-06T00:00:00	2024-11-08T15:00:00	2	Temperatura media	22.9
98850	7	Sololá	704	Santa Lucía Utatlán 	7	Santa Rita 	6	Junio	2023-10-06T00:00:00	2024-11-08T15:00:00	4	Temperatura máxima	25.2
98851	7	Sololá	704	Santa Lucía Utatlán 	7	Santa Rita 	6	Junio	2023-10-06T00:00:00	2024-11-08T15:00:00	3	Temperatura mínima	22.8
98852	7	Sololá	704	Santa Lucía Utatlán 	7	Santa Rita 	6	Junio	2023-10-06T00:00:00	2024-11-08T15:00:00	5	Humedad	81
98853	7	Sololá	704	Santa Lucía Utatlán 	7	Santa Rita 	6	Junio	2023-10-06T00:00:00	2024-11-08T15:00:00	6	Velocidad del viento	6.4
98854	7	Sololá	704	Santa Lucía Utatlán 	7	Santa Rita 	6	Junio	2023-10-06T00:00:00	2024-11-08T15:00:00	7	Dirección del viento	6.44
98855	7	Sololá	704	Santa Lucía Utatlán 	7	Santa Rita 	6	Junio	2023-10-06T00:00:00	2024-11-08T15:00:00	1	Precipitación	0
98856	7	Sololá	704	Santa Lucía Utatlán 	7	Santa Rita 	6	Junio	2023-10-06T00:00:00	2024-11-08T15:00:00	8	Radiación solar	228
98857	7	Sololá	704	Santa Lucía Utatlán 	7	Santa Rita 	6	Junio	2023-10-06T00:00:00	2024-11-08T16:00:00	2	Temperatura media	21.8
98858	7	Sololá	704	Santa Lucía Utatlán 	7	Santa Rita 	6	Junio	2023-10-06T00:00:00	2024-11-08T16:00:00	4	Temperatura máxima	23.2
98859	7	Sololá	704	Santa Lucía Utatlán 	7	Santa Rita 	6	Junio	2023-10-06T00:00:00	2024-11-08T16:00:00	3	Temperatura mínima	21.7
98860	7	Sololá	704	Santa Lucía Utatlán 	7	Santa Rita 	6	Junio	2023-10-06T00:00:00	2024-11-08T16:00:00	5	Humedad	89
98861	7	Sololá	704	Santa Lucía Utatlán 	7	Santa Rita 	6	Junio	2023-10-06T00:00:00	2024-11-08T16:00:00	6	Velocidad del viento	4.8
98862	7	Sololá	704	Santa Lucía Utatlán 	7	Santa Rita 	6	Junio	2023-10-06T00:00:00	2024-11-08T16:00:00	7	Dirección del viento	4.83
98863	7	Sololá	704	Santa Lucía Utatlán 	7	Santa Rita 	6	Junio	2023-10-06T00:00:00	2024-11-08T16:00:00	1	Precipitación	0
98864	7	Sololá	704	Santa Lucía Utatlán 	7	Santa Rita 	6	Junio	2023-10-06T00:00:00	2024-11-08T16:00:00	8	Radiación solar	100
98865	7	Sololá	704	Santa Lucía Utatlán 	7	Santa Rita 	6	Junio	2023-10-06T00:00:00	2024-11-08T17:00:00	2	Temperatura media	21.1
98866	7	Sololá	704	Santa Lucía Utatlán 	7	Santa Rita 	6	Junio	2023-10-06T00:00:00	2024-11-08T17:00:00	4	Temperatura máxima	21.8
98867	7	Sololá	704	Santa Lucía Utatlán 	7	Santa Rita 	6	Junio	2023-10-06T00:00:00	2024-11-08T17:00:00	3	Temperatura mínima	21
98868	7	Sololá	704	Santa Lucía Utatlán 	7	Santa Rita 	6	Junio	2023-10-06T00:00:00	2024-11-08T17:00:00	5	Humedad	91
98869	7	Sololá	704	Santa Lucía Utatlán 	7	Santa Rita 	6	Junio	2023-10-06T00:00:00	2024-11-08T17:00:00	6	Velocidad del viento	3.2
98870	7	Sololá	704	Santa Lucía Utatlán 	7	Santa Rita 	6	Junio	2023-10-06T00:00:00	2024-11-08T17:00:00	7	Dirección del viento	3.22
98871	7	Sololá	704	Santa Lucía Utatlán 	7	Santa Rita 	6	Junio	2023-10-06T00:00:00	2024-11-08T17:00:00	1	Precipitación	0
98872	7	Sololá	704	Santa Lucía Utatlán 	7	Santa Rita 	6	Junio	2023-10-06T00:00:00	2024-11-08T17:00:00	8	Radiación solar	57
98873	7	Sololá	704	Santa Lucía Utatlán 	7	Santa Rita 	6	Junio	2023-10-06T00:00:00	2024-11-08T18:00:00	2	Temperatura media	21
98874	7	Sololá	704	Santa Lucía Utatlán 	7	Santa Rita 	6	Junio	2023-10-06T00:00:00	2024-11-08T18:00:00	4	Temperatura máxima	21.3
98875	7	Sololá	704	Santa Lucía Utatlán 	7	Santa Rita 	6	Junio	2023-10-06T00:00:00	2024-11-08T18:00:00	3	Temperatura mínima	20.7
98876	7	Sololá	704	Santa Lucía Utatlán 	7	Santa Rita 	6	Junio	2023-10-06T00:00:00	2024-11-08T18:00:00	5	Humedad	91
98877	7	Sololá	704	Santa Lucía Utatlán 	7	Santa Rita 	6	Junio	2023-10-06T00:00:00	2024-11-08T18:00:00	6	Velocidad del viento	4.8
98878	7	Sololá	704	Santa Lucía Utatlán 	7	Santa Rita 	6	Junio	2023-10-06T00:00:00	2024-11-08T18:00:00	7	Dirección del viento	4.83
98879	7	Sololá	704	Santa Lucía Utatlán 	7	Santa Rita 	6	Junio	2023-10-06T00:00:00	2024-11-08T18:00:00	1	Precipitación	0
98880	7	Sololá	704	Santa Lucía Utatlán 	7	Santa Rita 	6	Junio	2023-10-06T00:00:00	2024-11-08T18:00:00	8	Radiación solar	58
98881	7	Sololá	704	Santa Lucía Utatlán 	7	Santa Rita 	6	Junio	2023-10-06T00:00:00	2024-11-08T19:00:00	2	Temperatura media	20.2
98882	7	Sololá	704	Santa Lucía Utatlán 	7	Santa Rita 	6	Junio	2023-10-06T00:00:00	2024-11-08T19:00:00	4	Temperatura máxima	21
98883	7	Sololá	704	Santa Lucía Utatlán 	7	Santa Rita 	6	Junio	2023-10-06T00:00:00	2024-11-08T19:00:00	3	Temperatura mínima	20.2
98884	7	Sololá	704	Santa Lucía Utatlán 	7	Santa Rita 	6	Junio	2023-10-06T00:00:00	2024-11-08T19:00:00	5	Humedad	91
98885	7	Sololá	704	Santa Lucía Utatlán 	7	Santa Rita 	6	Junio	2023-10-06T00:00:00	2024-11-08T19:00:00	6	Velocidad del viento	1.6
98886	7	Sololá	704	Santa Lucía Utatlán 	7	Santa Rita 	6	Junio	2023-10-06T00:00:00	2024-11-08T19:00:00	7	Dirección del viento	1.61
98887	7	Sololá	704	Santa Lucía Utatlán 	7	Santa Rita 	6	Junio	2023-10-06T00:00:00	2024-11-08T19:00:00	1	Precipitación	0
98888	7	Sololá	704	Santa Lucía Utatlán 	7	Santa Rita 	6	Junio	2023-10-06T00:00:00	2024-11-08T19:00:00	8	Radiación solar	0
98889	7	Sololá	704	Santa Lucía Utatlán 	7	Santa Rita 	6	Junio	2023-10-06T00:00:00	2024-11-08T20:00:00	2	Temperatura media	19.6
98890	7	Sololá	704	Santa Lucía Utatlán 	7	Santa Rita 	6	Junio	2023-10-06T00:00:00	2024-11-08T20:00:00	4	Temperatura máxima	20.2
98891	7	Sololá	704	Santa Lucía Utatlán 	7	Santa Rita 	6	Junio	2023-10-06T00:00:00	2024-11-08T20:00:00	3	Temperatura mínima	19.6
98892	7	Sololá	704	Santa Lucía Utatlán 	7	Santa Rita 	6	Junio	2023-10-06T00:00:00	2024-11-08T20:00:00	5	Humedad	89
98893	7	Sololá	704	Santa Lucía Utatlán 	7	Santa Rita 	6	Junio	2023-10-06T00:00:00	2024-11-08T20:00:00	6	Velocidad del viento	3.2
98894	7	Sololá	704	Santa Lucía Utatlán 	7	Santa Rita 	6	Junio	2023-10-06T00:00:00	2024-11-08T20:00:00	7	Dirección del viento	3.22
98895	7	Sololá	704	Santa Lucía Utatlán 	7	Santa Rita 	6	Junio	2023-10-06T00:00:00	2024-11-08T20:00:00	1	Precipitación	0
98896	7	Sololá	704	Santa Lucía Utatlán 	7	Santa Rita 	6	Junio	2023-10-06T00:00:00	2024-11-08T20:00:00	8	Radiación solar	0
98897	7	Sololá	704	Santa Lucía Utatlán 	7	Santa Rita 	6	Junio	2023-10-06T00:00:00	2024-11-08T21:00:00	2	Temperatura media	19.2
98898	7	Sololá	704	Santa Lucía Utatlán 	7	Santa Rita 	6	Junio	2023-10-06T00:00:00	2024-11-08T21:00:00	4	Temperatura máxima	19.7
98899	7	Sololá	704	Santa Lucía Utatlán 	7	Santa Rita 	6	Junio	2023-10-06T00:00:00	2024-11-08T21:00:00	3	Temperatura mínima	19.2
98900	7	Sololá	704	Santa Lucía Utatlán 	7	Santa Rita 	6	Junio	2023-10-06T00:00:00	2024-11-08T21:00:00	5	Humedad	88
98901	7	Sololá	704	Santa Lucía Utatlán 	7	Santa Rita 	6	Junio	2023-10-06T00:00:00	2024-11-08T21:00:00	6	Velocidad del viento	3.2
98902	7	Sololá	704	Santa Lucía Utatlán 	7	Santa Rita 	6	Junio	2023-10-06T00:00:00	2024-11-08T21:00:00	7	Dirección del viento	3.22
98903	7	Sololá	704	Santa Lucía Utatlán 	7	Santa Rita 	6	Junio	2023-10-06T00:00:00	2024-11-08T21:00:00	1	Precipitación	0
98904	7	Sololá	704	Santa Lucía Utatlán 	7	Santa Rita 	6	Junio	2023-10-06T00:00:00	2024-11-08T21:00:00	8	Radiación solar	0
98905	7	Sololá	704	Santa Lucía Utatlán 	7	Santa Rita 	6	Junio	2023-10-06T00:00:00	2024-11-08T22:00:00	2	Temperatura media	18.9
98906	7	Sololá	704	Santa Lucía Utatlán 	7	Santa Rita 	6	Junio	2023-10-06T00:00:00	2024-11-08T22:00:00	4	Temperatura máxima	19.2
98907	7	Sololá	704	Santa Lucía Utatlán 	7	Santa Rita 	6	Junio	2023-10-06T00:00:00	2024-11-08T22:00:00	3	Temperatura mínima	18.9
98908	7	Sololá	704	Santa Lucía Utatlán 	7	Santa Rita 	6	Junio	2023-10-06T00:00:00	2024-11-08T22:00:00	5	Humedad	89
98909	7	Sololá	704	Santa Lucía Utatlán 	7	Santa Rita 	6	Junio	2023-10-06T00:00:00	2024-11-08T22:00:00	6	Velocidad del viento	3.2
98910	7	Sololá	704	Santa Lucía Utatlán 	7	Santa Rita 	6	Junio	2023-10-06T00:00:00	2024-11-08T22:00:00	7	Dirección del viento	3.22
98911	7	Sololá	704	Santa Lucía Utatlán 	7	Santa Rita 	6	Junio	2023-10-06T00:00:00	2024-11-08T22:00:00	1	Precipitación	0
98912	7	Sololá	704	Santa Lucía Utatlán 	7	Santa Rita 	6	Junio	2023-10-06T00:00:00	2024-11-08T22:00:00	8	Radiación solar	0
98913	7	Sololá	704	Santa Lucía Utatlán 	7	Santa Rita 	6	Junio	2023-10-06T00:00:00	2024-11-08T23:00:00	2	Temperatura media	18.8
98914	7	Sololá	704	Santa Lucía Utatlán 	7	Santa Rita 	6	Junio	2023-10-06T00:00:00	2024-11-08T23:00:00	4	Temperatura máxima	18.9
98915	7	Sololá	704	Santa Lucía Utatlán 	7	Santa Rita 	6	Junio	2023-10-06T00:00:00	2024-11-08T23:00:00	3	Temperatura mínima	18.7
98916	7	Sololá	704	Santa Lucía Utatlán 	7	Santa Rita 	6	Junio	2023-10-06T00:00:00	2024-11-08T23:00:00	5	Humedad	89
98917	7	Sololá	704	Santa Lucía Utatlán 	7	Santa Rita 	6	Junio	2023-10-06T00:00:00	2024-11-08T23:00:00	6	Velocidad del viento	4.8
98918	7	Sololá	704	Santa Lucía Utatlán 	7	Santa Rita 	6	Junio	2023-10-06T00:00:00	2024-11-08T23:00:00	7	Dirección del viento	4.83
98919	7	Sololá	704	Santa Lucía Utatlán 	7	Santa Rita 	6	Junio	2023-10-06T00:00:00	2024-11-08T23:00:00	1	Precipitación	0
98920	7	Sololá	704	Santa Lucía Utatlán 	7	Santa Rita 	6	Junio	2023-10-06T00:00:00	2024-11-08T23:00:00	8	Radiación solar	0
98921	7	Sololá	704	Santa Lucía Utatlán 	7	Santa Rita 	6	Junio	2023-11-06T00:00:00	2024-11-08T00:00:00	2	Temperatura media	18.3
98922	7	Sololá	704	Santa Lucía Utatlán 	7	Santa Rita 	6	Junio	2023-11-06T00:00:00	2024-11-08T00:00:00	4	Temperatura máxima	18.8
98923	7	Sololá	704	Santa Lucía Utatlán 	7	Santa Rita 	6	Junio	2023-11-06T00:00:00	2024-11-08T00:00:00	3	Temperatura mínima	18.3
98924	7	Sololá	704	Santa Lucía Utatlán 	7	Santa Rita 	6	Junio	2023-11-06T00:00:00	2024-11-08T00:00:00	5	Humedad	88
98925	7	Sololá	704	Santa Lucía Utatlán 	7	Santa Rita 	6	Junio	2023-11-06T00:00:00	2024-11-08T00:00:00	6	Velocidad del viento	3.2
98926	7	Sololá	704	Santa Lucía Utatlán 	7	Santa Rita 	6	Junio	2023-11-06T00:00:00	2024-11-08T00:00:00	7	Dirección del viento	3.22
98927	7	Sololá	704	Santa Lucía Utatlán 	7	Santa Rita 	6	Junio	2023-11-06T00:00:00	2024-11-08T00:00:00	1	Precipitación	0
98928	7	Sololá	704	Santa Lucía Utatlán 	7	Santa Rita 	6	Junio	2023-11-06T00:00:00	2024-11-08T00:00:00	8	Radiación solar	0
98929	7	Sololá	704	Santa Lucía Utatlán 	7	Santa Rita 	6	Junio	2023-11-06T00:00:00	2024-11-08T01:00:00	2	Temperatura media	18.7
98930	7	Sololá	704	Santa Lucía Utatlán 	7	Santa Rita 	6	Junio	2023-11-06T00:00:00	2024-11-08T01:00:00	4	Temperatura máxima	19.7
98931	7	Sololá	704	Santa Lucía Utatlán 	7	Santa Rita 	6	Junio	2023-11-06T00:00:00	2024-11-08T01:00:00	3	Temperatura mínima	17.9
98932	7	Sololá	704	Santa Lucía Utatlán 	7	Santa Rita 	6	Junio	2023-11-06T00:00:00	2024-11-08T01:00:00	5	Humedad	82
98933	7	Sololá	704	Santa Lucía Utatlán 	7	Santa Rita 	6	Junio	2023-11-06T00:00:00	2024-11-08T01:00:00	6	Velocidad del viento	3.2
98934	7	Sololá	704	Santa Lucía Utatlán 	7	Santa Rita 	6	Junio	2023-11-06T00:00:00	2024-11-08T01:00:00	7	Dirección del viento	3.22
98935	7	Sololá	704	Santa Lucía Utatlán 	7	Santa Rita 	6	Junio	2023-11-06T00:00:00	2024-11-08T01:00:00	1	Precipitación	0
98936	7	Sololá	704	Santa Lucía Utatlán 	7	Santa Rita 	6	Junio	2023-11-06T00:00:00	2024-11-08T01:00:00	8	Radiación solar	0
98937	7	Sololá	704	Santa Lucía Utatlán 	7	Santa Rita 	6	Junio	2023-11-06T00:00:00	2024-11-08T02:00:00	2	Temperatura media	17.6
98938	7	Sololá	704	Santa Lucía Utatlán 	7	Santa Rita 	6	Junio	2023-11-06T00:00:00	2024-11-08T02:00:00	4	Temperatura máxima	18.8
98939	7	Sololá	704	Santa Lucía Utatlán 	7	Santa Rita 	6	Junio	2023-11-06T00:00:00	2024-11-08T02:00:00	3	Temperatura mínima	17.6
98940	7	Sololá	704	Santa Lucía Utatlán 	7	Santa Rita 	6	Junio	2023-11-06T00:00:00	2024-11-08T02:00:00	5	Humedad	83
98941	7	Sololá	704	Santa Lucía Utatlán 	7	Santa Rita 	6	Junio	2023-11-06T00:00:00	2024-11-08T02:00:00	6	Velocidad del viento	4.8
98942	7	Sololá	704	Santa Lucía Utatlán 	7	Santa Rita 	6	Junio	2023-11-06T00:00:00	2024-11-08T02:00:00	7	Dirección del viento	4.83
98943	7	Sololá	704	Santa Lucía Utatlán 	7	Santa Rita 	6	Junio	2023-11-06T00:00:00	2024-11-08T02:00:00	1	Precipitación	0
98944	7	Sololá	704	Santa Lucía Utatlán 	7	Santa Rita 	6	Junio	2023-11-06T00:00:00	2024-11-08T02:00:00	8	Radiación solar	0
98945	7	Sololá	704	Santa Lucía Utatlán 	7	Santa Rita 	6	Junio	2023-11-06T00:00:00	2024-11-08T03:00:00	2	Temperatura media	17.7
98946	7	Sololá	704	Santa Lucía Utatlán 	7	Santa Rita 	6	Junio	2023-11-06T00:00:00	2024-11-08T03:00:00	4	Temperatura máxima	17.7
98947	7	Sololá	704	Santa Lucía Utatlán 	7	Santa Rita 	6	Junio	2023-11-06T00:00:00	2024-11-08T03:00:00	3	Temperatura mínima	17.4
98948	7	Sololá	704	Santa Lucía Utatlán 	7	Santa Rita 	6	Junio	2023-11-06T00:00:00	2024-11-08T03:00:00	5	Humedad	83
98949	7	Sololá	704	Santa Lucía Utatlán 	7	Santa Rita 	6	Junio	2023-11-06T00:00:00	2024-11-08T03:00:00	6	Velocidad del viento	6.4
98950	7	Sololá	704	Santa Lucía Utatlán 	7	Santa Rita 	6	Junio	2023-11-06T00:00:00	2024-11-08T03:00:00	7	Dirección del viento	6.44
98951	7	Sololá	704	Santa Lucía Utatlán 	7	Santa Rita 	6	Junio	2023-11-06T00:00:00	2024-11-08T03:00:00	1	Precipitación	0
98952	7	Sololá	704	Santa Lucía Utatlán 	7	Santa Rita 	6	Junio	2023-11-06T00:00:00	2024-11-08T03:00:00	8	Radiación solar	0
98953	7	Sololá	704	Santa Lucía Utatlán 	7	Santa Rita 	6	Junio	2023-11-06T00:00:00	2024-11-08T04:00:00	2	Temperatura media	17.5
98954	7	Sololá	704	Santa Lucía Utatlán 	7	Santa Rita 	6	Junio	2023-11-06T00:00:00	2024-11-08T04:00:00	4	Temperatura máxima	17.7
98955	7	Sololá	704	Santa Lucía Utatlán 	7	Santa Rita 	6	Junio	2023-11-06T00:00:00	2024-11-08T04:00:00	3	Temperatura mínima	17.3
98956	7	Sololá	704	Santa Lucía Utatlán 	7	Santa Rita 	6	Junio	2023-11-06T00:00:00	2024-11-08T04:00:00	5	Humedad	77
98957	7	Sololá	704	Santa Lucía Utatlán 	7	Santa Rita 	6	Junio	2023-11-06T00:00:00	2024-11-08T04:00:00	6	Velocidad del viento	6.4
98958	7	Sololá	704	Santa Lucía Utatlán 	7	Santa Rita 	6	Junio	2023-11-06T00:00:00	2024-11-08T04:00:00	7	Dirección del viento	6.44
98959	7	Sololá	704	Santa Lucía Utatlán 	7	Santa Rita 	6	Junio	2023-11-06T00:00:00	2024-11-08T04:00:00	1	Precipitación	0
98960	7	Sololá	704	Santa Lucía Utatlán 	7	Santa Rita 	6	Junio	2023-11-06T00:00:00	2024-11-08T04:00:00	8	Radiación solar	0
98961	7	Sololá	704	Santa Lucía Utatlán 	7	Santa Rita 	6	Junio	2023-11-06T00:00:00	2024-11-08T05:00:00	2	Temperatura media	17.2
98962	7	Sololá	704	Santa Lucía Utatlán 	7	Santa Rita 	6	Junio	2023-11-06T00:00:00	2024-11-08T05:00:00	4	Temperatura máxima	17.6
98963	7	Sololá	704	Santa Lucía Utatlán 	7	Santa Rita 	6	Junio	2023-11-06T00:00:00	2024-11-08T05:00:00	3	Temperatura mínima	17.1
98964	7	Sololá	704	Santa Lucía Utatlán 	7	Santa Rita 	6	Junio	2023-11-06T00:00:00	2024-11-08T05:00:00	5	Humedad	72
98965	7	Sololá	704	Santa Lucía Utatlán 	7	Santa Rita 	6	Junio	2023-11-06T00:00:00	2024-11-08T05:00:00	6	Velocidad del viento	6.4
98966	7	Sololá	704	Santa Lucía Utatlán 	7	Santa Rita 	6	Junio	2023-11-06T00:00:00	2024-11-08T05:00:00	7	Dirección del viento	6.44
98967	7	Sololá	704	Santa Lucía Utatlán 	7	Santa Rita 	6	Junio	2023-11-06T00:00:00	2024-11-08T05:00:00	1	Precipitación	0
98968	7	Sololá	704	Santa Lucía Utatlán 	7	Santa Rita 	6	Junio	2023-11-06T00:00:00	2024-11-08T05:00:00	8	Radiación solar	0
98969	7	Sololá	704	Santa Lucía Utatlán 	7	Santa Rita 	6	Junio	2023-11-06T00:00:00	2024-11-08T06:00:00	2	Temperatura media	17.2
98970	7	Sololá	704	Santa Lucía Utatlán 	7	Santa Rita 	6	Junio	2023-11-06T00:00:00	2024-11-08T06:00:00	4	Temperatura máxima	17.3
98971	7	Sololá	704	Santa Lucía Utatlán 	7	Santa Rita 	6	Junio	2023-11-06T00:00:00	2024-11-08T06:00:00	3	Temperatura mínima	17
98972	7	Sololá	704	Santa Lucía Utatlán 	7	Santa Rita 	6	Junio	2023-11-06T00:00:00	2024-11-08T06:00:00	5	Humedad	67
98973	7	Sololá	704	Santa Lucía Utatlán 	7	Santa Rita 	6	Junio	2023-11-06T00:00:00	2024-11-08T06:00:00	6	Velocidad del viento	6.4
98974	7	Sololá	704	Santa Lucía Utatlán 	7	Santa Rita 	6	Junio	2023-11-06T00:00:00	2024-11-08T06:00:00	7	Dirección del viento	6.44
98975	7	Sololá	704	Santa Lucía Utatlán 	7	Santa Rita 	6	Junio	2023-11-06T00:00:00	2024-11-08T06:00:00	1	Precipitación	0
98976	7	Sololá	704	Santa Lucía Utatlán 	7	Santa Rita 	6	Junio	2023-11-06T00:00:00	2024-11-08T06:00:00	8	Radiación solar	6
98977	7	Sololá	704	Santa Lucía Utatlán 	7	Santa Rita 	6	Junio	2023-11-06T00:00:00	2024-11-08T07:00:00	2	Temperatura media	19.8
98978	7	Sololá	704	Santa Lucía Utatlán 	7	Santa Rita 	6	Junio	2023-11-06T00:00:00	2024-11-08T07:00:00	4	Temperatura máxima	19.8
98979	7	Sololá	704	Santa Lucía Utatlán 	7	Santa Rita 	6	Junio	2023-11-06T00:00:00	2024-11-08T07:00:00	3	Temperatura mínima	17.2
98980	7	Sololá	704	Santa Lucía Utatlán 	7	Santa Rita 	6	Junio	2023-11-06T00:00:00	2024-11-08T07:00:00	5	Humedad	59
98981	7	Sololá	704	Santa Lucía Utatlán 	7	Santa Rita 	6	Junio	2023-11-06T00:00:00	2024-11-08T07:00:00	6	Velocidad del viento	4.8
98982	7	Sololá	704	Santa Lucía Utatlán 	7	Santa Rita 	6	Junio	2023-11-06T00:00:00	2024-11-08T07:00:00	7	Dirección del viento	4.83
98983	7	Sololá	704	Santa Lucía Utatlán 	7	Santa Rita 	6	Junio	2023-11-06T00:00:00	2024-11-08T07:00:00	1	Precipitación	0
98984	7	Sololá	704	Santa Lucía Utatlán 	7	Santa Rita 	6	Junio	2023-11-06T00:00:00	2024-11-08T07:00:00	8	Radiación solar	106
98985	7	Sololá	704	Santa Lucía Utatlán 	7	Santa Rita 	6	Junio	2023-11-06T00:00:00	2024-11-08T08:00:00	2	Temperatura media	21.6
98986	7	Sololá	704	Santa Lucía Utatlán 	7	Santa Rita 	6	Junio	2023-11-06T00:00:00	2024-11-08T08:00:00	4	Temperatura máxima	21.6
98987	7	Sololá	704	Santa Lucía Utatlán 	7	Santa Rita 	6	Junio	2023-11-06T00:00:00	2024-11-08T08:00:00	3	Temperatura mínima	19.8
98988	7	Sololá	704	Santa Lucía Utatlán 	7	Santa Rita 	6	Junio	2023-11-06T00:00:00	2024-11-08T08:00:00	5	Humedad	59
98989	7	Sololá	704	Santa Lucía Utatlán 	7	Santa Rita 	6	Junio	2023-11-06T00:00:00	2024-11-08T08:00:00	6	Velocidad del viento	3.2
98990	7	Sololá	704	Santa Lucía Utatlán 	7	Santa Rita 	6	Junio	2023-11-06T00:00:00	2024-11-08T08:00:00	7	Dirección del viento	3.22
98991	7	Sololá	704	Santa Lucía Utatlán 	7	Santa Rita 	6	Junio	2023-11-06T00:00:00	2024-11-08T08:00:00	1	Precipitación	0
98992	7	Sololá	704	Santa Lucía Utatlán 	7	Santa Rita 	6	Junio	2023-11-06T00:00:00	2024-11-08T08:00:00	8	Radiación solar	385
98993	7	Sololá	704	Santa Lucía Utatlán 	7	Santa Rita 	6	Junio	2023-11-06T00:00:00	2024-11-08T09:00:00	2	Temperatura media	25.1
98994	7	Sololá	704	Santa Lucía Utatlán 	7	Santa Rita 	6	Junio	2023-11-06T00:00:00	2024-11-08T09:00:00	4	Temperatura máxima	25.1
98995	7	Sololá	704	Santa Lucía Utatlán 	7	Santa Rita 	6	Junio	2023-11-06T00:00:00	2024-11-08T09:00:00	3	Temperatura mínima	21.6
98996	7	Sololá	704	Santa Lucía Utatlán 	7	Santa Rita 	6	Junio	2023-11-06T00:00:00	2024-11-08T09:00:00	5	Humedad	55
98997	7	Sololá	704	Santa Lucía Utatlán 	7	Santa Rita 	6	Junio	2023-11-06T00:00:00	2024-11-08T09:00:00	6	Velocidad del viento	3.2
98998	7	Sololá	704	Santa Lucía Utatlán 	7	Santa Rita 	6	Junio	2023-11-06T00:00:00	2024-11-08T09:00:00	7	Dirección del viento	3.22
98999	7	Sololá	704	Santa Lucía Utatlán 	7	Santa Rita 	6	Junio	2023-11-06T00:00:00	2024-11-08T09:00:00	1	Precipitación	0
99000	7	Sololá	704	Santa Lucía Utatlán 	7	Santa Rita 	6	Junio	2023-11-06T00:00:00	2024-11-08T09:00:00	8	Radiación solar	583
99001	7	Sololá	704	Santa Lucía Utatlán 	7	Santa Rita 	6	Junio	2023-11-06T00:00:00	2024-11-08T10:00:00	2	Temperatura media	25.4
99002	7	Sololá	704	Santa Lucía Utatlán 	7	Santa Rita 	6	Junio	2023-11-06T00:00:00	2024-11-08T10:00:00	4	Temperatura máxima	25.6
99003	7	Sololá	704	Santa Lucía Utatlán 	7	Santa Rita 	6	Junio	2023-11-06T00:00:00	2024-11-08T10:00:00	3	Temperatura mínima	24.9
99004	7	Sololá	704	Santa Lucía Utatlán 	7	Santa Rita 	6	Junio	2023-11-06T00:00:00	2024-11-08T10:00:00	5	Humedad	52
99005	7	Sololá	704	Santa Lucía Utatlán 	7	Santa Rita 	6	Junio	2023-11-06T00:00:00	2024-11-08T10:00:00	6	Velocidad del viento	8
99006	7	Sololá	704	Santa Lucía Utatlán 	7	Santa Rita 	6	Junio	2023-11-06T00:00:00	2024-11-08T10:00:00	7	Dirección del viento	8.05
99007	7	Sololá	704	Santa Lucía Utatlán 	7	Santa Rita 	6	Junio	2023-11-06T00:00:00	2024-11-08T10:00:00	1	Precipitación	0
99008	7	Sololá	704	Santa Lucía Utatlán 	7	Santa Rita 	6	Junio	2023-11-06T00:00:00	2024-11-08T10:00:00	8	Radiación solar	810
99009	7	Sololá	704	Santa Lucía Utatlán 	7	Santa Rita 	6	Junio	2023-11-06T00:00:00	2024-11-08T11:00:00	2	Temperatura media	25.6
99010	7	Sololá	704	Santa Lucía Utatlán 	7	Santa Rita 	6	Junio	2023-11-06T00:00:00	2024-11-08T11:00:00	4	Temperatura máxima	26.1
99011	7	Sololá	704	Santa Lucía Utatlán 	7	Santa Rita 	6	Junio	2023-11-06T00:00:00	2024-11-08T11:00:00	3	Temperatura mínima	25.3
99012	7	Sololá	704	Santa Lucía Utatlán 	7	Santa Rita 	6	Junio	2023-11-06T00:00:00	2024-11-08T11:00:00	5	Humedad	58
99013	7	Sololá	704	Santa Lucía Utatlán 	7	Santa Rita 	6	Junio	2023-11-06T00:00:00	2024-11-08T11:00:00	6	Velocidad del viento	8
99014	7	Sololá	704	Santa Lucía Utatlán 	7	Santa Rita 	6	Junio	2023-11-06T00:00:00	2024-11-08T11:00:00	7	Dirección del viento	8.05
99015	7	Sololá	704	Santa Lucía Utatlán 	7	Santa Rita 	6	Junio	2023-11-06T00:00:00	2024-11-08T11:00:00	1	Precipitación	0
99016	7	Sololá	704	Santa Lucía Utatlán 	7	Santa Rita 	6	Junio	2023-11-06T00:00:00	2024-11-08T11:00:00	8	Radiación solar	946
99017	7	Sololá	704	Santa Lucía Utatlán 	7	Santa Rita 	6	Junio	2023-11-06T00:00:00	2024-11-08T12:00:00	2	Temperatura media	26.1
99018	7	Sololá	704	Santa Lucía Utatlán 	7	Santa Rita 	6	Junio	2023-11-06T00:00:00	2024-11-08T12:00:00	4	Temperatura máxima	26.3
99019	7	Sololá	704	Santa Lucía Utatlán 	7	Santa Rita 	6	Junio	2023-11-06T00:00:00	2024-11-08T12:00:00	3	Temperatura mínima	25.6
99020	7	Sololá	704	Santa Lucía Utatlán 	7	Santa Rita 	6	Junio	2023-11-06T00:00:00	2024-11-08T12:00:00	5	Humedad	58
99021	7	Sololá	704	Santa Lucía Utatlán 	7	Santa Rita 	6	Junio	2023-11-06T00:00:00	2024-11-08T12:00:00	6	Velocidad del viento	8
99022	7	Sololá	704	Santa Lucía Utatlán 	7	Santa Rita 	6	Junio	2023-11-06T00:00:00	2024-11-08T12:00:00	7	Dirección del viento	8.05
99023	7	Sololá	704	Santa Lucía Utatlán 	7	Santa Rita 	6	Junio	2023-11-06T00:00:00	2024-11-08T12:00:00	1	Precipitación	0
99024	7	Sololá	704	Santa Lucía Utatlán 	7	Santa Rita 	6	Junio	2023-11-06T00:00:00	2024-11-08T12:00:00	8	Radiación solar	1043
99025	7	Sololá	704	Santa Lucía Utatlán 	7	Santa Rita 	6	Junio	2023-11-06T00:00:00	2024-11-08T13:00:00	2	Temperatura media	25.4
99026	7	Sololá	704	Santa Lucía Utatlán 	7	Santa Rita 	6	Junio	2023-11-06T00:00:00	2024-11-08T13:00:00	4	Temperatura máxima	26.2
99027	7	Sololá	704	Santa Lucía Utatlán 	7	Santa Rita 	6	Junio	2023-11-06T00:00:00	2024-11-08T13:00:00	3	Temperatura mínima	24.8
99028	7	Sololá	704	Santa Lucía Utatlán 	7	Santa Rita 	6	Junio	2023-11-06T00:00:00	2024-11-08T13:00:00	5	Humedad	71
99029	7	Sololá	704	Santa Lucía Utatlán 	7	Santa Rita 	6	Junio	2023-11-06T00:00:00	2024-11-08T13:00:00	6	Velocidad del viento	8
99030	7	Sololá	704	Santa Lucía Utatlán 	7	Santa Rita 	6	Junio	2023-11-06T00:00:00	2024-11-08T13:00:00	7	Dirección del viento	8.05
99031	7	Sololá	704	Santa Lucía Utatlán 	7	Santa Rita 	6	Junio	2023-11-06T00:00:00	2024-11-08T13:00:00	1	Precipitación	0
99032	7	Sololá	704	Santa Lucía Utatlán 	7	Santa Rita 	6	Junio	2023-11-06T00:00:00	2024-11-08T13:00:00	8	Radiación solar	561
99033	7	Sololá	704	Santa Lucía Utatlán 	7	Santa Rita 	6	Junio	2023-11-06T00:00:00	2024-11-08T14:00:00	2	Temperatura media	25.5
99034	7	Sololá	704	Santa Lucía Utatlán 	7	Santa Rita 	6	Junio	2023-11-06T00:00:00	2024-11-08T14:00:00	4	Temperatura máxima	26
99035	7	Sololá	704	Santa Lucía Utatlán 	7	Santa Rita 	6	Junio	2023-11-06T00:00:00	2024-11-08T14:00:00	3	Temperatura mínima	24.8
99036	7	Sololá	704	Santa Lucía Utatlán 	7	Santa Rita 	6	Junio	2023-11-06T00:00:00	2024-11-08T14:00:00	5	Humedad	72
99037	7	Sololá	704	Santa Lucía Utatlán 	7	Santa Rita 	6	Junio	2023-11-06T00:00:00	2024-11-08T14:00:00	6	Velocidad del viento	4.8
99038	7	Sololá	704	Santa Lucía Utatlán 	7	Santa Rita 	6	Junio	2023-11-06T00:00:00	2024-11-08T14:00:00	7	Dirección del viento	4.83
99039	7	Sololá	704	Santa Lucía Utatlán 	7	Santa Rita 	6	Junio	2023-11-06T00:00:00	2024-11-08T14:00:00	1	Precipitación	0
99040	7	Sololá	704	Santa Lucía Utatlán 	7	Santa Rita 	6	Junio	2023-11-06T00:00:00	2024-11-08T14:00:00	8	Radiación solar	473
99041	7	Sololá	704	Santa Lucía Utatlán 	7	Santa Rita 	6	Junio	2023-11-06T00:00:00	2024-11-08T15:00:00	2	Temperatura media	25.1
99042	7	Sololá	704	Santa Lucía Utatlán 	7	Santa Rita 	6	Junio	2023-11-06T00:00:00	2024-11-08T15:00:00	4	Temperatura máxima	26.1
99043	7	Sololá	704	Santa Lucía Utatlán 	7	Santa Rita 	6	Junio	2023-11-06T00:00:00	2024-11-08T15:00:00	3	Temperatura mínima	25.1
99044	7	Sololá	704	Santa Lucía Utatlán 	7	Santa Rita 	6	Junio	2023-11-06T00:00:00	2024-11-08T15:00:00	5	Humedad	71
99045	7	Sololá	704	Santa Lucía Utatlán 	7	Santa Rita 	6	Junio	2023-11-06T00:00:00	2024-11-08T15:00:00	6	Velocidad del viento	6.4
99046	7	Sololá	704	Santa Lucía Utatlán 	7	Santa Rita 	6	Junio	2023-11-06T00:00:00	2024-11-08T15:00:00	7	Dirección del viento	6.44
99047	7	Sololá	704	Santa Lucía Utatlán 	7	Santa Rita 	6	Junio	2023-11-06T00:00:00	2024-11-08T15:00:00	1	Precipitación	0
99048	7	Sololá	704	Santa Lucía Utatlán 	7	Santa Rita 	6	Junio	2023-11-06T00:00:00	2024-11-08T15:00:00	8	Radiación solar	312
99049	7	Sololá	704	Santa Lucía Utatlán 	7	Santa Rita 	6	Junio	2023-11-06T00:00:00	2024-11-08T16:00:00	2	Temperatura media	24.7
99050	7	Sololá	704	Santa Lucía Utatlán 	7	Santa Rita 	6	Junio	2023-11-06T00:00:00	2024-11-08T16:00:00	4	Temperatura máxima	25.2
99051	7	Sololá	704	Santa Lucía Utatlán 	7	Santa Rita 	6	Junio	2023-11-06T00:00:00	2024-11-08T16:00:00	3	Temperatura mínima	24.7
99052	7	Sololá	704	Santa Lucía Utatlán 	7	Santa Rita 	6	Junio	2023-11-06T00:00:00	2024-11-08T16:00:00	5	Humedad	77
99053	7	Sololá	704	Santa Lucía Utatlán 	7	Santa Rita 	6	Junio	2023-11-06T00:00:00	2024-11-08T16:00:00	6	Velocidad del viento	4.8
99054	7	Sololá	704	Santa Lucía Utatlán 	7	Santa Rita 	6	Junio	2023-11-06T00:00:00	2024-11-08T16:00:00	7	Dirección del viento	4.83
99055	7	Sololá	704	Santa Lucía Utatlán 	7	Santa Rita 	6	Junio	2023-11-06T00:00:00	2024-11-08T16:00:00	1	Precipitación	0
99056	7	Sololá	704	Santa Lucía Utatlán 	7	Santa Rita 	6	Junio	2023-11-06T00:00:00	2024-11-08T16:00:00	8	Radiación solar	233
99057	7	Sololá	704	Santa Lucía Utatlán 	7	Santa Rita 	6	Junio	2023-11-06T00:00:00	2024-11-08T17:00:00	2	Temperatura media	23.6
99058	7	Sololá	704	Santa Lucía Utatlán 	7	Santa Rita 	6	Junio	2023-11-06T00:00:00	2024-11-08T17:00:00	4	Temperatura máxima	24.7
99059	7	Sololá	704	Santa Lucía Utatlán 	7	Santa Rita 	6	Junio	2023-11-06T00:00:00	2024-11-08T17:00:00	3	Temperatura mínima	23.6
99060	7	Sololá	704	Santa Lucía Utatlán 	7	Santa Rita 	6	Junio	2023-11-06T00:00:00	2024-11-08T17:00:00	5	Humedad	83
99061	7	Sololá	704	Santa Lucía Utatlán 	7	Santa Rita 	6	Junio	2023-11-06T00:00:00	2024-11-08T17:00:00	6	Velocidad del viento	4.8
99062	7	Sololá	704	Santa Lucía Utatlán 	7	Santa Rita 	6	Junio	2023-11-06T00:00:00	2024-11-08T17:00:00	7	Dirección del viento	4.83
99063	7	Sololá	704	Santa Lucía Utatlán 	7	Santa Rita 	6	Junio	2023-11-06T00:00:00	2024-11-08T17:00:00	1	Precipitación	0
99064	7	Sololá	704	Santa Lucía Utatlán 	7	Santa Rita 	6	Junio	2023-11-06T00:00:00	2024-11-08T17:00:00	8	Radiación solar	156
99065	7	Sololá	704	Santa Lucía Utatlán 	7	Santa Rita 	6	Junio	2023-11-06T00:00:00	2024-11-08T18:00:00	2	Temperatura media	23.1
99066	7	Sololá	704	Santa Lucía Utatlán 	7	Santa Rita 	6	Junio	2023-11-06T00:00:00	2024-11-08T18:00:00	4	Temperatura máxima	23.7
99067	7	Sololá	704	Santa Lucía Utatlán 	7	Santa Rita 	6	Junio	2023-11-06T00:00:00	2024-11-08T18:00:00	3	Temperatura mínima	23.1
99068	7	Sololá	704	Santa Lucía Utatlán 	7	Santa Rita 	6	Junio	2023-11-06T00:00:00	2024-11-08T18:00:00	5	Humedad	88
99069	7	Sololá	704	Santa Lucía Utatlán 	7	Santa Rita 	6	Junio	2023-11-06T00:00:00	2024-11-08T18:00:00	6	Velocidad del viento	3.2
99070	7	Sololá	704	Santa Lucía Utatlán 	7	Santa Rita 	6	Junio	2023-11-06T00:00:00	2024-11-08T18:00:00	7	Dirección del viento	3.22
99071	7	Sololá	704	Santa Lucía Utatlán 	7	Santa Rita 	6	Junio	2023-11-06T00:00:00	2024-11-08T18:00:00	1	Precipitación	0
99072	7	Sololá	704	Santa Lucía Utatlán 	7	Santa Rita 	6	Junio	2023-11-06T00:00:00	2024-11-08T18:00:00	8	Radiación solar	74
99073	7	Sololá	704	Santa Lucía Utatlán 	7	Santa Rita 	6	Junio	2023-11-06T00:00:00	2024-11-08T19:00:00	2	Temperatura media	22.1
99074	7	Sololá	704	Santa Lucía Utatlán 	7	Santa Rita 	6	Junio	2023-11-06T00:00:00	2024-11-08T19:00:00	4	Temperatura máxima	23.1
99075	7	Sololá	704	Santa Lucía Utatlán 	7	Santa Rita 	6	Junio	2023-11-06T00:00:00	2024-11-08T19:00:00	3	Temperatura mínima	22.1
99076	7	Sololá	704	Santa Lucía Utatlán 	7	Santa Rita 	6	Junio	2023-11-06T00:00:00	2024-11-08T19:00:00	5	Humedad	90
99077	7	Sololá	704	Santa Lucía Utatlán 	7	Santa Rita 	6	Junio	2023-11-06T00:00:00	2024-11-08T19:00:00	6	Velocidad del viento	3.2
99078	7	Sololá	704	Santa Lucía Utatlán 	7	Santa Rita 	6	Junio	2023-11-06T00:00:00	2024-11-08T19:00:00	7	Dirección del viento	3.22
99079	7	Sololá	704	Santa Lucía Utatlán 	7	Santa Rita 	6	Junio	2023-11-06T00:00:00	2024-11-08T19:00:00	1	Precipitación	0
99080	7	Sololá	704	Santa Lucía Utatlán 	7	Santa Rita 	6	Junio	2023-11-06T00:00:00	2024-11-08T19:00:00	8	Radiación solar	0
99081	7	Sololá	704	Santa Lucía Utatlán 	7	Santa Rita 	6	Junio	2023-11-06T00:00:00	2024-11-08T20:00:00	2	Temperatura media	20.7
99082	7	Sololá	704	Santa Lucía Utatlán 	7	Santa Rita 	6	Junio	2023-11-06T00:00:00	2024-11-08T20:00:00	4	Temperatura máxima	22.1
99083	7	Sololá	704	Santa Lucía Utatlán 	7	Santa Rita 	6	Junio	2023-11-06T00:00:00	2024-11-08T20:00:00	3	Temperatura mínima	20.7
99084	7	Sololá	704	Santa Lucía Utatlán 	7	Santa Rita 	6	Junio	2023-11-06T00:00:00	2024-11-08T20:00:00	5	Humedad	86
99085	7	Sololá	704	Santa Lucía Utatlán 	7	Santa Rita 	6	Junio	2023-11-06T00:00:00	2024-11-08T20:00:00	6	Velocidad del viento	1.6
99086	7	Sololá	704	Santa Lucía Utatlán 	7	Santa Rita 	6	Junio	2023-11-06T00:00:00	2024-11-08T20:00:00	7	Dirección del viento	1.61
99087	7	Sololá	704	Santa Lucía Utatlán 	7	Santa Rita 	6	Junio	2023-11-06T00:00:00	2024-11-08T20:00:00	1	Precipitación	0
99088	7	Sololá	704	Santa Lucía Utatlán 	7	Santa Rita 	6	Junio	2023-11-06T00:00:00	2024-11-08T20:00:00	8	Radiación solar	0
99089	7	Sololá	704	Santa Lucía Utatlán 	7	Santa Rita 	6	Junio	2023-11-06T00:00:00	2024-11-08T21:00:00	2	Temperatura media	20.1
99090	7	Sololá	704	Santa Lucía Utatlán 	7	Santa Rita 	6	Junio	2023-11-06T00:00:00	2024-11-08T21:00:00	4	Temperatura máxima	20.7
99091	7	Sololá	704	Santa Lucía Utatlán 	7	Santa Rita 	6	Junio	2023-11-06T00:00:00	2024-11-08T21:00:00	3	Temperatura mínima	19.8
99092	7	Sololá	704	Santa Lucía Utatlán 	7	Santa Rita 	6	Junio	2023-11-06T00:00:00	2024-11-08T21:00:00	5	Humedad	88
99093	7	Sololá	704	Santa Lucía Utatlán 	7	Santa Rita 	6	Junio	2023-11-06T00:00:00	2024-11-08T21:00:00	6	Velocidad del viento	3.2
99094	7	Sololá	704	Santa Lucía Utatlán 	7	Santa Rita 	6	Junio	2023-11-06T00:00:00	2024-11-08T21:00:00	7	Dirección del viento	3.22
99095	7	Sololá	704	Santa Lucía Utatlán 	7	Santa Rita 	6	Junio	2023-11-06T00:00:00	2024-11-08T21:00:00	1	Precipitación	0
99096	7	Sololá	704	Santa Lucía Utatlán 	7	Santa Rita 	6	Junio	2023-11-06T00:00:00	2024-11-08T21:00:00	8	Radiación solar	0
99097	7	Sololá	704	Santa Lucía Utatlán 	7	Santa Rita 	6	Junio	2023-11-06T00:00:00	2024-11-08T22:00:00	2	Temperatura media	19.4
99098	7	Sololá	704	Santa Lucía Utatlán 	7	Santa Rita 	6	Junio	2023-11-06T00:00:00	2024-11-08T22:00:00	4	Temperatura máxima	20.2
99099	7	Sololá	704	Santa Lucía Utatlán 	7	Santa Rita 	6	Junio	2023-11-06T00:00:00	2024-11-08T22:00:00	3	Temperatura mínima	19.3
99100	7	Sololá	704	Santa Lucía Utatlán 	7	Santa Rita 	6	Junio	2023-11-06T00:00:00	2024-11-08T22:00:00	5	Humedad	89
99101	7	Sololá	704	Santa Lucía Utatlán 	7	Santa Rita 	6	Junio	2023-11-06T00:00:00	2024-11-08T22:00:00	6	Velocidad del viento	3.2
99102	7	Sololá	704	Santa Lucía Utatlán 	7	Santa Rita 	6	Junio	2023-11-06T00:00:00	2024-11-08T22:00:00	7	Dirección del viento	3.22
99103	7	Sololá	704	Santa Lucía Utatlán 	7	Santa Rita 	6	Junio	2023-11-06T00:00:00	2024-11-08T22:00:00	1	Precipitación	0
99104	7	Sololá	704	Santa Lucía Utatlán 	7	Santa Rita 	6	Junio	2023-11-06T00:00:00	2024-11-08T22:00:00	8	Radiación solar	0
99105	7	Sololá	704	Santa Lucía Utatlán 	7	Santa Rita 	6	Junio	2023-11-06T00:00:00	2024-11-08T23:00:00	2	Temperatura media	20.8
99106	7	Sololá	704	Santa Lucía Utatlán 	7	Santa Rita 	6	Junio	2023-11-06T00:00:00	2024-11-08T23:00:00	4	Temperatura máxima	20.8
99107	7	Sololá	704	Santa Lucía Utatlán 	7	Santa Rita 	6	Junio	2023-11-06T00:00:00	2024-11-08T23:00:00	3	Temperatura mínima	19.4
99108	7	Sololá	704	Santa Lucía Utatlán 	7	Santa Rita 	6	Junio	2023-11-06T00:00:00	2024-11-08T23:00:00	5	Humedad	84
99109	7	Sololá	704	Santa Lucía Utatlán 	7	Santa Rita 	6	Junio	2023-11-06T00:00:00	2024-11-08T23:00:00	6	Velocidad del viento	1.6
99110	7	Sololá	704	Santa Lucía Utatlán 	7	Santa Rita 	6	Junio	2023-11-06T00:00:00	2024-11-08T23:00:00	7	Dirección del viento	1.61
99111	7	Sololá	704	Santa Lucía Utatlán 	7	Santa Rita 	6	Junio	2023-11-06T00:00:00	2024-11-08T23:00:00	1	Precipitación	0
99112	7	Sololá	704	Santa Lucía Utatlán 	7	Santa Rita 	6	Junio	2023-11-06T00:00:00	2024-11-08T23:00:00	8	Radiación solar	0
99113	7	Sololá	704	Santa Lucía Utatlán 	7	Santa Rita 	6	Junio	2023-12-06T00:00:00	2024-11-08T00:00:00	2	Temperatura media	19.4
99114	7	Sololá	704	Santa Lucía Utatlán 	7	Santa Rita 	6	Junio	2023-12-06T00:00:00	2024-11-08T00:00:00	4	Temperatura máxima	21
99115	7	Sololá	704	Santa Lucía Utatlán 	7	Santa Rita 	6	Junio	2023-12-06T00:00:00	2024-11-08T00:00:00	3	Temperatura mínima	19.4
99116	7	Sololá	704	Santa Lucía Utatlán 	7	Santa Rita 	6	Junio	2023-12-06T00:00:00	2024-11-08T00:00:00	5	Humedad	86
99117	7	Sololá	704	Santa Lucía Utatlán 	7	Santa Rita 	6	Junio	2023-12-06T00:00:00	2024-11-08T00:00:00	6	Velocidad del viento	1.6
99118	7	Sololá	704	Santa Lucía Utatlán 	7	Santa Rita 	6	Junio	2023-12-06T00:00:00	2024-11-08T00:00:00	7	Dirección del viento	1.61
99119	7	Sololá	704	Santa Lucía Utatlán 	7	Santa Rita 	6	Junio	2023-12-06T00:00:00	2024-11-08T00:00:00	1	Precipitación	0
99120	7	Sololá	704	Santa Lucía Utatlán 	7	Santa Rita 	6	Junio	2023-12-06T00:00:00	2024-11-08T00:00:00	8	Radiación solar	0
99121	7	Sololá	704	Santa Lucía Utatlán 	7	Santa Rita 	6	Junio	2023-12-06T00:00:00	2024-11-08T01:00:00	2	Temperatura media	18.2
99122	7	Sololá	704	Santa Lucía Utatlán 	7	Santa Rita 	6	Junio	2023-12-06T00:00:00	2024-11-08T01:00:00	4	Temperatura máxima	19.4
99123	7	Sololá	704	Santa Lucía Utatlán 	7	Santa Rita 	6	Junio	2023-12-06T00:00:00	2024-11-08T01:00:00	3	Temperatura mínima	18.2
99124	7	Sololá	704	Santa Lucía Utatlán 	7	Santa Rita 	6	Junio	2023-12-06T00:00:00	2024-11-08T01:00:00	5	Humedad	89
99125	7	Sololá	704	Santa Lucía Utatlán 	7	Santa Rita 	6	Junio	2023-12-06T00:00:00	2024-11-08T01:00:00	6	Velocidad del viento	3.2
99126	7	Sololá	704	Santa Lucía Utatlán 	7	Santa Rita 	6	Junio	2023-12-06T00:00:00	2024-11-08T01:00:00	7	Dirección del viento	3.22
99127	7	Sololá	704	Santa Lucía Utatlán 	7	Santa Rita 	6	Junio	2023-12-06T00:00:00	2024-11-08T01:00:00	1	Precipitación	0
99128	7	Sololá	704	Santa Lucía Utatlán 	7	Santa Rita 	6	Junio	2023-12-06T00:00:00	2024-11-08T01:00:00	8	Radiación solar	0
99129	7	Sololá	704	Santa Lucía Utatlán 	7	Santa Rita 	6	Junio	2023-12-06T00:00:00	2024-11-08T02:00:00	2	Temperatura media	17.7
99130	7	Sololá	704	Santa Lucía Utatlán 	7	Santa Rita 	6	Junio	2023-12-06T00:00:00	2024-11-08T02:00:00	4	Temperatura máxima	18.2
99131	7	Sololá	704	Santa Lucía Utatlán 	7	Santa Rita 	6	Junio	2023-12-06T00:00:00	2024-11-08T02:00:00	3	Temperatura mínima	17.5
99132	7	Sololá	704	Santa Lucía Utatlán 	7	Santa Rita 	6	Junio	2023-12-06T00:00:00	2024-11-08T02:00:00	5	Humedad	90
99133	7	Sololá	704	Santa Lucía Utatlán 	7	Santa Rita 	6	Junio	2023-12-06T00:00:00	2024-11-08T02:00:00	6	Velocidad del viento	3.2
99134	7	Sololá	704	Santa Lucía Utatlán 	7	Santa Rita 	6	Junio	2023-12-06T00:00:00	2024-11-08T02:00:00	7	Dirección del viento	3.22
99135	7	Sololá	704	Santa Lucía Utatlán 	7	Santa Rita 	6	Junio	2023-12-06T00:00:00	2024-11-08T02:00:00	1	Precipitación	0
99136	7	Sololá	704	Santa Lucía Utatlán 	7	Santa Rita 	6	Junio	2023-12-06T00:00:00	2024-11-08T02:00:00	8	Radiación solar	0
99137	7	Sololá	704	Santa Lucía Utatlán 	7	Santa Rita 	6	Junio	2023-12-06T00:00:00	2024-11-08T03:00:00	2	Temperatura media	17.4
99138	7	Sololá	704	Santa Lucía Utatlán 	7	Santa Rita 	6	Junio	2023-12-06T00:00:00	2024-11-08T03:00:00	4	Temperatura máxima	17.7
99139	7	Sololá	704	Santa Lucía Utatlán 	7	Santa Rita 	6	Junio	2023-12-06T00:00:00	2024-11-08T03:00:00	3	Temperatura mínima	17.3
99140	7	Sololá	704	Santa Lucía Utatlán 	7	Santa Rita 	6	Junio	2023-12-06T00:00:00	2024-11-08T03:00:00	5	Humedad	89
99141	7	Sololá	704	Santa Lucía Utatlán 	7	Santa Rita 	6	Junio	2023-12-06T00:00:00	2024-11-08T03:00:00	6	Velocidad del viento	3.2
99142	7	Sololá	704	Santa Lucía Utatlán 	7	Santa Rita 	6	Junio	2023-12-06T00:00:00	2024-11-08T03:00:00	7	Dirección del viento	3.22
99143	7	Sololá	704	Santa Lucía Utatlán 	7	Santa Rita 	6	Junio	2023-12-06T00:00:00	2024-11-08T03:00:00	1	Precipitación	0
99144	7	Sololá	704	Santa Lucía Utatlán 	7	Santa Rita 	6	Junio	2023-12-06T00:00:00	2024-11-08T03:00:00	8	Radiación solar	0
99145	7	Sololá	704	Santa Lucía Utatlán 	7	Santa Rita 	6	Junio	2023-12-06T00:00:00	2024-11-08T04:00:00	2	Temperatura media	17.6
99146	7	Sololá	704	Santa Lucía Utatlán 	7	Santa Rita 	6	Junio	2023-12-06T00:00:00	2024-11-08T04:00:00	4	Temperatura máxima	19.1
99147	7	Sololá	704	Santa Lucía Utatlán 	7	Santa Rita 	6	Junio	2023-12-06T00:00:00	2024-11-08T04:00:00	3	Temperatura mínima	17.3
99148	7	Sololá	704	Santa Lucía Utatlán 	7	Santa Rita 	6	Junio	2023-12-06T00:00:00	2024-11-08T04:00:00	5	Humedad	85
99149	7	Sololá	704	Santa Lucía Utatlán 	7	Santa Rita 	6	Junio	2023-12-06T00:00:00	2024-11-08T04:00:00	6	Velocidad del viento	3.2
99150	7	Sololá	704	Santa Lucía Utatlán 	7	Santa Rita 	6	Junio	2023-12-06T00:00:00	2024-11-08T04:00:00	7	Dirección del viento	3.22
99151	7	Sololá	704	Santa Lucía Utatlán 	7	Santa Rita 	6	Junio	2023-12-06T00:00:00	2024-11-08T04:00:00	1	Precipitación	0
99152	7	Sololá	704	Santa Lucía Utatlán 	7	Santa Rita 	6	Junio	2023-12-06T00:00:00	2024-11-08T04:00:00	8	Radiación solar	0
99153	7	Sololá	704	Santa Lucía Utatlán 	7	Santa Rita 	6	Junio	2023-12-06T00:00:00	2024-11-08T05:00:00	2	Temperatura media	17.3
99154	7	Sololá	704	Santa Lucía Utatlán 	7	Santa Rita 	6	Junio	2023-12-06T00:00:00	2024-11-08T05:00:00	4	Temperatura máxima	17.6
99155	7	Sololá	704	Santa Lucía Utatlán 	7	Santa Rita 	6	Junio	2023-12-06T00:00:00	2024-11-08T05:00:00	3	Temperatura mínima	17.1
99156	7	Sololá	704	Santa Lucía Utatlán 	7	Santa Rita 	6	Junio	2023-12-06T00:00:00	2024-11-08T05:00:00	5	Humedad	85
99157	7	Sololá	704	Santa Lucía Utatlán 	7	Santa Rita 	6	Junio	2023-12-06T00:00:00	2024-11-08T05:00:00	6	Velocidad del viento	3.2
99158	7	Sololá	704	Santa Lucía Utatlán 	7	Santa Rita 	6	Junio	2023-12-06T00:00:00	2024-11-08T05:00:00	7	Dirección del viento	3.22
99159	7	Sololá	704	Santa Lucía Utatlán 	7	Santa Rita 	6	Junio	2023-12-06T00:00:00	2024-11-08T05:00:00	1	Precipitación	0
99160	7	Sololá	704	Santa Lucía Utatlán 	7	Santa Rita 	6	Junio	2023-12-06T00:00:00	2024-11-08T05:00:00	8	Radiación solar	0
99161	7	Sololá	704	Santa Lucía Utatlán 	7	Santa Rita 	6	Junio	2023-12-06T00:00:00	2024-11-08T06:00:00	2	Temperatura media	17.7
99162	7	Sololá	704	Santa Lucía Utatlán 	7	Santa Rita 	6	Junio	2023-12-06T00:00:00	2024-11-08T06:00:00	4	Temperatura máxima	17.7
99163	7	Sololá	704	Santa Lucía Utatlán 	7	Santa Rita 	6	Junio	2023-12-06T00:00:00	2024-11-08T06:00:00	3	Temperatura mínima	16.8
99164	7	Sololá	704	Santa Lucía Utatlán 	7	Santa Rita 	6	Junio	2023-12-06T00:00:00	2024-11-08T06:00:00	5	Humedad	83
99165	7	Sololá	704	Santa Lucía Utatlán 	7	Santa Rita 	6	Junio	2023-12-06T00:00:00	2024-11-08T06:00:00	6	Velocidad del viento	4.8
99166	7	Sololá	704	Santa Lucía Utatlán 	7	Santa Rita 	6	Junio	2023-12-06T00:00:00	2024-11-08T06:00:00	7	Dirección del viento	4.83
99167	7	Sololá	704	Santa Lucía Utatlán 	7	Santa Rita 	6	Junio	2023-12-06T00:00:00	2024-11-08T06:00:00	1	Precipitación	0
99168	7	Sololá	704	Santa Lucía Utatlán 	7	Santa Rita 	6	Junio	2023-12-06T00:00:00	2024-11-08T06:00:00	8	Radiación solar	11
99169	7	Sololá	704	Santa Lucía Utatlán 	7	Santa Rita 	6	Junio	2023-12-06T00:00:00	2024-11-08T07:00:00	2	Temperatura media	19.7
99170	7	Sololá	704	Santa Lucía Utatlán 	7	Santa Rita 	6	Junio	2023-12-06T00:00:00	2024-11-08T07:00:00	4	Temperatura máxima	19.7
99171	7	Sololá	704	Santa Lucía Utatlán 	7	Santa Rita 	6	Junio	2023-12-06T00:00:00	2024-11-08T07:00:00	3	Temperatura mínima	17.7
99172	7	Sololá	704	Santa Lucía Utatlán 	7	Santa Rita 	6	Junio	2023-12-06T00:00:00	2024-11-08T07:00:00	5	Humedad	80
99173	7	Sololá	704	Santa Lucía Utatlán 	7	Santa Rita 	6	Junio	2023-12-06T00:00:00	2024-11-08T07:00:00	6	Velocidad del viento	1.6
99174	7	Sololá	704	Santa Lucía Utatlán 	7	Santa Rita 	6	Junio	2023-12-06T00:00:00	2024-11-08T07:00:00	7	Dirección del viento	1.61
99175	7	Sololá	704	Santa Lucía Utatlán 	7	Santa Rita 	6	Junio	2023-12-06T00:00:00	2024-11-08T07:00:00	1	Precipitación	0
99176	7	Sololá	704	Santa Lucía Utatlán 	7	Santa Rita 	6	Junio	2023-12-06T00:00:00	2024-11-08T07:00:00	8	Radiación solar	109
99177	7	Sololá	704	Santa Lucía Utatlán 	7	Santa Rita 	6	Junio	2023-12-06T00:00:00	2024-11-08T08:00:00	2	Temperatura media	23.3
99178	7	Sololá	704	Santa Lucía Utatlán 	7	Santa Rita 	6	Junio	2023-12-06T00:00:00	2024-11-08T08:00:00	4	Temperatura máxima	23.3
99179	7	Sololá	704	Santa Lucía Utatlán 	7	Santa Rita 	6	Junio	2023-12-06T00:00:00	2024-11-08T08:00:00	3	Temperatura mínima	19.7
99180	7	Sololá	704	Santa Lucía Utatlán 	7	Santa Rita 	6	Junio	2023-12-06T00:00:00	2024-11-08T08:00:00	5	Humedad	71
99181	7	Sololá	704	Santa Lucía Utatlán 	7	Santa Rita 	6	Junio	2023-12-06T00:00:00	2024-11-08T08:00:00	6	Velocidad del viento	3.2
99182	7	Sololá	704	Santa Lucía Utatlán 	7	Santa Rita 	6	Junio	2023-12-06T00:00:00	2024-11-08T08:00:00	7	Dirección del viento	3.22
99183	7	Sololá	704	Santa Lucía Utatlán 	7	Santa Rita 	6	Junio	2023-12-06T00:00:00	2024-11-08T08:00:00	1	Precipitación	0
99184	7	Sololá	704	Santa Lucía Utatlán 	7	Santa Rita 	6	Junio	2023-12-06T00:00:00	2024-11-08T08:00:00	8	Radiación solar	456
99185	7	Sololá	704	Santa Lucía Utatlán 	7	Santa Rita 	6	Junio	2023-12-06T00:00:00	2024-11-08T09:00:00	2	Temperatura media	25.6
99186	7	Sololá	704	Santa Lucía Utatlán 	7	Santa Rita 	6	Junio	2023-12-06T00:00:00	2024-11-08T09:00:00	4	Temperatura máxima	25.6
99187	7	Sololá	704	Santa Lucía Utatlán 	7	Santa Rita 	6	Junio	2023-12-06T00:00:00	2024-11-08T09:00:00	3	Temperatura mínima	23.3
99188	7	Sololá	704	Santa Lucía Utatlán 	7	Santa Rita 	6	Junio	2023-12-06T00:00:00	2024-11-08T09:00:00	5	Humedad	55
99189	7	Sololá	704	Santa Lucía Utatlán 	7	Santa Rita 	6	Junio	2023-12-06T00:00:00	2024-11-08T09:00:00	6	Velocidad del viento	4.8
99190	7	Sololá	704	Santa Lucía Utatlán 	7	Santa Rita 	6	Junio	2023-12-06T00:00:00	2024-11-08T09:00:00	7	Dirección del viento	4.83
99191	7	Sololá	704	Santa Lucía Utatlán 	7	Santa Rita 	6	Junio	2023-12-06T00:00:00	2024-11-08T09:00:00	1	Precipitación	0
99192	7	Sololá	704	Santa Lucía Utatlán 	7	Santa Rita 	6	Junio	2023-12-06T00:00:00	2024-11-08T09:00:00	8	Radiación solar	660
99193	7	Sololá	704	Santa Lucía Utatlán 	7	Santa Rita 	6	Junio	2023-12-06T00:00:00	2024-11-08T10:00:00	2	Temperatura media	27.1
99194	7	Sololá	704	Santa Lucía Utatlán 	7	Santa Rita 	6	Junio	2023-12-06T00:00:00	2024-11-08T10:00:00	4	Temperatura máxima	27.1
99195	7	Sololá	704	Santa Lucía Utatlán 	7	Santa Rita 	6	Junio	2023-12-06T00:00:00	2024-11-08T10:00:00	3	Temperatura mínima	25.6
99196	7	Sololá	704	Santa Lucía Utatlán 	7	Santa Rita 	6	Junio	2023-12-06T00:00:00	2024-11-08T10:00:00	5	Humedad	52
99197	7	Sololá	704	Santa Lucía Utatlán 	7	Santa Rita 	6	Junio	2023-12-06T00:00:00	2024-11-08T10:00:00	6	Velocidad del viento	6.4
99198	7	Sololá	704	Santa Lucía Utatlán 	7	Santa Rita 	6	Junio	2023-12-06T00:00:00	2024-11-08T10:00:00	7	Dirección del viento	6.44
99199	7	Sololá	704	Santa Lucía Utatlán 	7	Santa Rita 	6	Junio	2023-12-06T00:00:00	2024-11-08T10:00:00	1	Precipitación	0
99200	7	Sololá	704	Santa Lucía Utatlán 	7	Santa Rita 	6	Junio	2023-12-06T00:00:00	2024-11-08T10:00:00	8	Radiación solar	821
99201	7	Sololá	704	Santa Lucía Utatlán 	7	Santa Rita 	6	Junio	2023-12-06T00:00:00	2024-11-08T11:00:00	2	Temperatura media	27.2
99202	7	Sololá	704	Santa Lucía Utatlán 	7	Santa Rita 	6	Junio	2023-12-06T00:00:00	2024-11-08T11:00:00	4	Temperatura máxima	27.4
99203	7	Sololá	704	Santa Lucía Utatlán 	7	Santa Rita 	6	Junio	2023-12-06T00:00:00	2024-11-08T11:00:00	3	Temperatura mínima	26.7
99204	7	Sololá	704	Santa Lucía Utatlán 	7	Santa Rita 	6	Junio	2023-12-06T00:00:00	2024-11-08T11:00:00	5	Humedad	54
99205	7	Sololá	704	Santa Lucía Utatlán 	7	Santa Rita 	6	Junio	2023-12-06T00:00:00	2024-11-08T11:00:00	6	Velocidad del viento	9.7
99206	7	Sololá	704	Santa Lucía Utatlán 	7	Santa Rita 	6	Junio	2023-12-06T00:00:00	2024-11-08T11:00:00	7	Dirección del viento	9.66
99207	7	Sololá	704	Santa Lucía Utatlán 	7	Santa Rita 	6	Junio	2023-12-06T00:00:00	2024-11-08T11:00:00	1	Precipitación	0
99208	7	Sololá	704	Santa Lucía Utatlán 	7	Santa Rita 	6	Junio	2023-12-06T00:00:00	2024-11-08T11:00:00	8	Radiación solar	934
99209	7	Sololá	704	Santa Lucía Utatlán 	7	Santa Rita 	6	Junio	2023-12-06T00:00:00	2024-11-08T12:00:00	2	Temperatura media	27.8
99210	7	Sololá	704	Santa Lucía Utatlán 	7	Santa Rita 	6	Junio	2023-12-06T00:00:00	2024-11-08T12:00:00	4	Temperatura máxima	27.8
99211	7	Sololá	704	Santa Lucía Utatlán 	7	Santa Rita 	6	Junio	2023-12-06T00:00:00	2024-11-08T12:00:00	3	Temperatura mínima	26.8
99212	7	Sololá	704	Santa Lucía Utatlán 	7	Santa Rita 	6	Junio	2023-12-06T00:00:00	2024-11-08T12:00:00	5	Humedad	52
99213	7	Sololá	704	Santa Lucía Utatlán 	7	Santa Rita 	6	Junio	2023-12-06T00:00:00	2024-11-08T12:00:00	6	Velocidad del viento	12.9
99214	7	Sololá	704	Santa Lucía Utatlán 	7	Santa Rita 	6	Junio	2023-12-06T00:00:00	2024-11-08T12:00:00	7	Dirección del viento	12.87
99215	7	Sololá	704	Santa Lucía Utatlán 	7	Santa Rita 	6	Junio	2023-12-06T00:00:00	2024-11-08T12:00:00	1	Precipitación	0
99216	7	Sololá	704	Santa Lucía Utatlán 	7	Santa Rita 	6	Junio	2023-12-06T00:00:00	2024-11-08T12:00:00	8	Radiación solar	977
99217	7	Sololá	704	Santa Lucía Utatlán 	7	Santa Rita 	6	Junio	2023-12-06T00:00:00	2024-11-08T13:00:00	2	Temperatura media	26.8
99218	7	Sololá	704	Santa Lucía Utatlán 	7	Santa Rita 	6	Junio	2023-12-06T00:00:00	2024-11-08T13:00:00	4	Temperatura máxima	27.8
99219	7	Sololá	704	Santa Lucía Utatlán 	7	Santa Rita 	6	Junio	2023-12-06T00:00:00	2024-11-08T13:00:00	3	Temperatura mínima	26.8
99220	7	Sololá	704	Santa Lucía Utatlán 	7	Santa Rita 	6	Junio	2023-12-06T00:00:00	2024-11-08T13:00:00	5	Humedad	52
99221	7	Sololá	704	Santa Lucía Utatlán 	7	Santa Rita 	6	Junio	2023-12-06T00:00:00	2024-11-08T13:00:00	6	Velocidad del viento	11.3
99222	7	Sololá	704	Santa Lucía Utatlán 	7	Santa Rita 	6	Junio	2023-12-06T00:00:00	2024-11-08T13:00:00	7	Dirección del viento	11.27
99223	7	Sololá	704	Santa Lucía Utatlán 	7	Santa Rita 	6	Junio	2023-12-06T00:00:00	2024-11-08T13:00:00	1	Precipitación	0
99224	7	Sololá	704	Santa Lucía Utatlán 	7	Santa Rita 	6	Junio	2023-12-06T00:00:00	2024-11-08T13:00:00	8	Radiación solar	708
99225	7	Sololá	704	Santa Lucía Utatlán 	7	Santa Rita 	6	Junio	2023-12-06T00:00:00	2024-11-08T14:00:00	2	Temperatura media	27.1
99226	7	Sololá	704	Santa Lucía Utatlán 	7	Santa Rita 	6	Junio	2023-12-06T00:00:00	2024-11-08T14:00:00	4	Temperatura máxima	27.7
99227	7	Sololá	704	Santa Lucía Utatlán 	7	Santa Rita 	6	Junio	2023-12-06T00:00:00	2024-11-08T14:00:00	3	Temperatura mínima	26.6
99228	7	Sololá	704	Santa Lucía Utatlán 	7	Santa Rita 	6	Junio	2023-12-06T00:00:00	2024-11-08T14:00:00	5	Humedad	49
99229	7	Sololá	704	Santa Lucía Utatlán 	7	Santa Rita 	6	Junio	2023-12-06T00:00:00	2024-11-08T14:00:00	6	Velocidad del viento	9.7
99230	7	Sololá	704	Santa Lucía Utatlán 	7	Santa Rita 	6	Junio	2023-12-06T00:00:00	2024-11-08T14:00:00	7	Dirección del viento	9.66
99231	7	Sololá	704	Santa Lucía Utatlán 	7	Santa Rita 	6	Junio	2023-12-06T00:00:00	2024-11-08T14:00:00	1	Precipitación	0
99232	7	Sololá	704	Santa Lucía Utatlán 	7	Santa Rita 	6	Junio	2023-12-06T00:00:00	2024-11-08T14:00:00	8	Radiación solar	323
99233	7	Sololá	704	Santa Lucía Utatlán 	7	Santa Rita 	6	Junio	2023-12-06T00:00:00	2024-11-08T15:00:00	2	Temperatura media	26.4
99234	7	Sololá	704	Santa Lucía Utatlán 	7	Santa Rita 	6	Junio	2023-12-06T00:00:00	2024-11-08T15:00:00	4	Temperatura máxima	28
99235	7	Sololá	704	Santa Lucía Utatlán 	7	Santa Rita 	6	Junio	2023-12-06T00:00:00	2024-11-08T15:00:00	3	Temperatura mínima	26.4
99236	7	Sololá	704	Santa Lucía Utatlán 	7	Santa Rita 	6	Junio	2023-12-06T00:00:00	2024-11-08T15:00:00	5	Humedad	64
99237	7	Sololá	704	Santa Lucía Utatlán 	7	Santa Rita 	6	Junio	2023-12-06T00:00:00	2024-11-08T15:00:00	6	Velocidad del viento	9.7
99238	7	Sololá	704	Santa Lucía Utatlán 	7	Santa Rita 	6	Junio	2023-12-06T00:00:00	2024-11-08T15:00:00	7	Dirección del viento	9.66
99239	7	Sololá	704	Santa Lucía Utatlán 	7	Santa Rita 	6	Junio	2023-12-06T00:00:00	2024-11-08T15:00:00	1	Precipitación	0
99240	7	Sololá	704	Santa Lucía Utatlán 	7	Santa Rita 	6	Junio	2023-12-06T00:00:00	2024-11-08T15:00:00	8	Radiación solar	498
99241	7	Sololá	704	Santa Lucía Utatlán 	7	Santa Rita 	6	Junio	2023-12-06T00:00:00	2024-11-08T16:00:00	2	Temperatura media	25.2
99242	7	Sololá	704	Santa Lucía Utatlán 	7	Santa Rita 	6	Junio	2023-12-06T00:00:00	2024-11-08T16:00:00	4	Temperatura máxima	27
99243	7	Sololá	704	Santa Lucía Utatlán 	7	Santa Rita 	6	Junio	2023-12-06T00:00:00	2024-11-08T16:00:00	3	Temperatura mínima	25.2
99244	7	Sololá	704	Santa Lucía Utatlán 	7	Santa Rita 	6	Junio	2023-12-06T00:00:00	2024-11-08T16:00:00	5	Humedad	77
99245	7	Sololá	704	Santa Lucía Utatlán 	7	Santa Rita 	6	Junio	2023-12-06T00:00:00	2024-11-08T16:00:00	6	Velocidad del viento	8
99246	7	Sololá	704	Santa Lucía Utatlán 	7	Santa Rita 	6	Junio	2023-12-06T00:00:00	2024-11-08T16:00:00	7	Dirección del viento	8.05
99247	7	Sololá	704	Santa Lucía Utatlán 	7	Santa Rita 	6	Junio	2023-12-06T00:00:00	2024-11-08T16:00:00	1	Precipitación	0
99248	7	Sololá	704	Santa Lucía Utatlán 	7	Santa Rita 	6	Junio	2023-12-06T00:00:00	2024-11-08T16:00:00	8	Radiación solar	318
99249	7	Sololá	704	Santa Lucía Utatlán 	7	Santa Rita 	6	Junio	2023-12-06T00:00:00	2024-11-08T17:00:00	2	Temperatura media	24.5
99250	7	Sololá	704	Santa Lucía Utatlán 	7	Santa Rita 	6	Junio	2023-12-06T00:00:00	2024-11-08T17:00:00	4	Temperatura máxima	25.3
99251	7	Sololá	704	Santa Lucía Utatlán 	7	Santa Rita 	6	Junio	2023-12-06T00:00:00	2024-11-08T17:00:00	3	Temperatura mínima	24.5
99252	7	Sololá	704	Santa Lucía Utatlán 	7	Santa Rita 	6	Junio	2023-12-06T00:00:00	2024-11-08T17:00:00	5	Humedad	76
99253	7	Sololá	704	Santa Lucía Utatlán 	7	Santa Rita 	6	Junio	2023-12-06T00:00:00	2024-11-08T17:00:00	6	Velocidad del viento	6.4
99254	7	Sololá	704	Santa Lucía Utatlán 	7	Santa Rita 	6	Junio	2023-12-06T00:00:00	2024-11-08T17:00:00	7	Dirección del viento	6.44
99255	7	Sololá	704	Santa Lucía Utatlán 	7	Santa Rita 	6	Junio	2023-12-06T00:00:00	2024-11-08T17:00:00	1	Precipitación	0
99256	7	Sololá	704	Santa Lucía Utatlán 	7	Santa Rita 	6	Junio	2023-12-06T00:00:00	2024-11-08T17:00:00	8	Radiación solar	158
99257	7	Sololá	704	Santa Lucía Utatlán 	7	Santa Rita 	6	Junio	2023-12-06T00:00:00	2024-11-08T18:00:00	2	Temperatura media	22.8
99258	7	Sololá	704	Santa Lucía Utatlán 	7	Santa Rita 	6	Junio	2023-12-06T00:00:00	2024-11-08T18:00:00	4	Temperatura máxima	24.5
99259	7	Sololá	704	Santa Lucía Utatlán 	7	Santa Rita 	6	Junio	2023-12-06T00:00:00	2024-11-08T18:00:00	3	Temperatura mínima	22.8
99260	7	Sololá	704	Santa Lucía Utatlán 	7	Santa Rita 	6	Junio	2023-12-06T00:00:00	2024-11-08T18:00:00	5	Humedad	89
99261	7	Sololá	704	Santa Lucía Utatlán 	7	Santa Rita 	6	Junio	2023-12-06T00:00:00	2024-11-08T18:00:00	6	Velocidad del viento	3.2
99262	7	Sololá	704	Santa Lucía Utatlán 	7	Santa Rita 	6	Junio	2023-12-06T00:00:00	2024-11-08T18:00:00	7	Dirección del viento	3.22
99263	7	Sololá	704	Santa Lucía Utatlán 	7	Santa Rita 	6	Junio	2023-12-06T00:00:00	2024-11-08T18:00:00	1	Precipitación	0
99264	7	Sololá	704	Santa Lucía Utatlán 	7	Santa Rita 	6	Junio	2023-12-06T00:00:00	2024-11-08T18:00:00	8	Radiación solar	48
99265	7	Sololá	704	Santa Lucía Utatlán 	7	Santa Rita 	6	Junio	2023-12-06T00:00:00	2024-11-08T19:00:00	2	Temperatura media	22.1
99266	7	Sololá	704	Santa Lucía Utatlán 	7	Santa Rita 	6	Junio	2023-12-06T00:00:00	2024-11-08T19:00:00	4	Temperatura máxima	22.8
99267	7	Sololá	704	Santa Lucía Utatlán 	7	Santa Rita 	6	Junio	2023-12-06T00:00:00	2024-11-08T19:00:00	3	Temperatura mínima	22.1
99268	7	Sololá	704	Santa Lucía Utatlán 	7	Santa Rita 	6	Junio	2023-12-06T00:00:00	2024-11-08T19:00:00	5	Humedad	91
99269	7	Sololá	704	Santa Lucía Utatlán 	7	Santa Rita 	6	Junio	2023-12-06T00:00:00	2024-11-08T19:00:00	6	Velocidad del viento	3.2
99270	7	Sololá	704	Santa Lucía Utatlán 	7	Santa Rita 	6	Junio	2023-12-06T00:00:00	2024-11-08T19:00:00	7	Dirección del viento	3.22
99271	7	Sololá	704	Santa Lucía Utatlán 	7	Santa Rita 	6	Junio	2023-12-06T00:00:00	2024-11-08T19:00:00	1	Precipitación	0
99272	7	Sololá	704	Santa Lucía Utatlán 	7	Santa Rita 	6	Junio	2023-12-06T00:00:00	2024-11-08T19:00:00	8	Radiación solar	0
99273	7	Sololá	704	Santa Lucía Utatlán 	7	Santa Rita 	6	Junio	2023-12-06T00:00:00	2024-11-08T20:00:00	2	Temperatura media	22.8
99274	7	Sololá	704	Santa Lucía Utatlán 	7	Santa Rita 	6	Junio	2023-12-06T00:00:00	2024-11-08T20:00:00	4	Temperatura máxima	22.8
99275	7	Sololá	704	Santa Lucía Utatlán 	7	Santa Rita 	6	Junio	2023-12-06T00:00:00	2024-11-08T20:00:00	3	Temperatura mínima	21.9
99276	7	Sololá	704	Santa Lucía Utatlán 	7	Santa Rita 	6	Junio	2023-12-06T00:00:00	2024-11-08T20:00:00	5	Humedad	72
99277	7	Sololá	704	Santa Lucía Utatlán 	7	Santa Rita 	6	Junio	2023-12-06T00:00:00	2024-11-08T20:00:00	6	Velocidad del viento	3.2
99278	7	Sololá	704	Santa Lucía Utatlán 	7	Santa Rita 	6	Junio	2023-12-06T00:00:00	2024-11-08T20:00:00	7	Dirección del viento	3.22
99279	7	Sololá	704	Santa Lucía Utatlán 	7	Santa Rita 	6	Junio	2023-12-06T00:00:00	2024-11-08T20:00:00	1	Precipitación	0
99280	7	Sololá	704	Santa Lucía Utatlán 	7	Santa Rita 	6	Junio	2023-12-06T00:00:00	2024-11-08T20:00:00	8	Radiación solar	0
99281	7	Sololá	704	Santa Lucía Utatlán 	7	Santa Rita 	6	Junio	2023-12-06T00:00:00	2024-11-08T21:00:00	2	Temperatura media	22.7
99282	7	Sololá	704	Santa Lucía Utatlán 	7	Santa Rita 	6	Junio	2023-12-06T00:00:00	2024-11-08T21:00:00	4	Temperatura máxima	23.1
99283	7	Sololá	704	Santa Lucía Utatlán 	7	Santa Rita 	6	Junio	2023-12-06T00:00:00	2024-11-08T21:00:00	3	Temperatura mínima	22.7
99284	7	Sololá	704	Santa Lucía Utatlán 	7	Santa Rita 	6	Junio	2023-12-06T00:00:00	2024-11-08T21:00:00	5	Humedad	72
99285	7	Sololá	704	Santa Lucía Utatlán 	7	Santa Rita 	6	Junio	2023-12-06T00:00:00	2024-11-08T21:00:00	6	Velocidad del viento	8
99286	7	Sololá	704	Santa Lucía Utatlán 	7	Santa Rita 	6	Junio	2023-12-06T00:00:00	2024-11-08T21:00:00	7	Dirección del viento	8.05
99287	7	Sololá	704	Santa Lucía Utatlán 	7	Santa Rita 	6	Junio	2023-12-06T00:00:00	2024-11-08T21:00:00	1	Precipitación	0
99288	7	Sololá	704	Santa Lucía Utatlán 	7	Santa Rita 	6	Junio	2023-12-06T00:00:00	2024-11-08T21:00:00	8	Radiación solar	0
99289	7	Sololá	704	Santa Lucía Utatlán 	7	Santa Rita 	6	Junio	2023-12-06T00:00:00	2024-11-08T22:00:00	2	Temperatura media	22.3
99290	7	Sololá	704	Santa Lucía Utatlán 	7	Santa Rita 	6	Junio	2023-12-06T00:00:00	2024-11-08T22:00:00	4	Temperatura máxima	22.8
99291	7	Sololá	704	Santa Lucía Utatlán 	7	Santa Rita 	6	Junio	2023-12-06T00:00:00	2024-11-08T22:00:00	3	Temperatura mínima	22.3
99292	7	Sololá	704	Santa Lucía Utatlán 	7	Santa Rita 	6	Junio	2023-12-06T00:00:00	2024-11-08T22:00:00	5	Humedad	76
99293	7	Sololá	704	Santa Lucía Utatlán 	7	Santa Rita 	6	Junio	2023-12-06T00:00:00	2024-11-08T22:00:00	6	Velocidad del viento	6.4
99294	7	Sololá	704	Santa Lucía Utatlán 	7	Santa Rita 	6	Junio	2023-12-06T00:00:00	2024-11-08T22:00:00	7	Dirección del viento	6.44
99295	7	Sololá	704	Santa Lucía Utatlán 	7	Santa Rita 	6	Junio	2023-12-06T00:00:00	2024-11-08T22:00:00	1	Precipitación	0
99296	7	Sololá	704	Santa Lucía Utatlán 	7	Santa Rita 	6	Junio	2023-12-06T00:00:00	2024-11-08T22:00:00	8	Radiación solar	0
99297	7	Sololá	704	Santa Lucía Utatlán 	7	Santa Rita 	6	Junio	2023-12-06T00:00:00	2024-11-08T23:00:00	2	Temperatura media	21.6
99298	7	Sololá	704	Santa Lucía Utatlán 	7	Santa Rita 	6	Junio	2023-12-06T00:00:00	2024-11-08T23:00:00	4	Temperatura máxima	22.3
99299	7	Sololá	704	Santa Lucía Utatlán 	7	Santa Rita 	6	Junio	2023-12-06T00:00:00	2024-11-08T23:00:00	3	Temperatura mínima	21.6
99300	7	Sololá	704	Santa Lucía Utatlán 	7	Santa Rita 	6	Junio	2023-12-06T00:00:00	2024-11-08T23:00:00	5	Humedad	76
99301	7	Sololá	704	Santa Lucía Utatlán 	7	Santa Rita 	6	Junio	2023-12-06T00:00:00	2024-11-08T23:00:00	6	Velocidad del viento	3.2
99302	7	Sololá	704	Santa Lucía Utatlán 	7	Santa Rita 	6	Junio	2023-12-06T00:00:00	2024-11-08T23:00:00	7	Dirección del viento	3.22
99303	7	Sololá	704	Santa Lucía Utatlán 	7	Santa Rita 	6	Junio	2023-12-06T00:00:00	2024-11-08T23:00:00	1	Precipitación	0
99304	7	Sololá	704	Santa Lucía Utatlán 	7	Santa Rita 	6	Junio	2023-12-06T00:00:00	2024-11-08T23:00:00	8	Radiación solar	0
99305	7	Sololá	704	Santa Lucía Utatlán 	7	Santa Rita 	6	Junio	2023-06-13T00:00:00	2024-11-08T00:00:00	2	Temperatura media	19.1
99306	7	Sololá	704	Santa Lucía Utatlán 	7	Santa Rita 	6	Junio	2023-06-13T00:00:00	2024-11-08T00:00:00	4	Temperatura máxima	21.6
99307	7	Sololá	704	Santa Lucía Utatlán 	7	Santa Rita 	6	Junio	2023-06-13T00:00:00	2024-11-08T00:00:00	3	Temperatura mínima	19.1
99308	7	Sololá	704	Santa Lucía Utatlán 	7	Santa Rita 	6	Junio	2023-06-13T00:00:00	2024-11-08T00:00:00	5	Humedad	82
99309	7	Sololá	704	Santa Lucía Utatlán 	7	Santa Rita 	6	Junio	2023-06-13T00:00:00	2024-11-08T00:00:00	6	Velocidad del viento	3.2
99310	7	Sololá	704	Santa Lucía Utatlán 	7	Santa Rita 	6	Junio	2023-06-13T00:00:00	2024-11-08T00:00:00	7	Dirección del viento	3.22
99311	7	Sololá	704	Santa Lucía Utatlán 	7	Santa Rita 	6	Junio	2023-06-13T00:00:00	2024-11-08T00:00:00	1	Precipitación	0
99312	7	Sololá	704	Santa Lucía Utatlán 	7	Santa Rita 	6	Junio	2023-06-13T00:00:00	2024-11-08T00:00:00	8	Radiación solar	0
99313	7	Sololá	704	Santa Lucía Utatlán 	7	Santa Rita 	6	Junio	2023-06-13T00:00:00	2024-11-08T01:00:00	2	Temperatura media	18.4
99314	7	Sololá	704	Santa Lucía Utatlán 	7	Santa Rita 	6	Junio	2023-06-13T00:00:00	2024-11-08T01:00:00	4	Temperatura máxima	19.1
99315	7	Sololá	704	Santa Lucía Utatlán 	7	Santa Rita 	6	Junio	2023-06-13T00:00:00	2024-11-08T01:00:00	3	Temperatura mínima	18.3
99316	7	Sololá	704	Santa Lucía Utatlán 	7	Santa Rita 	6	Junio	2023-06-13T00:00:00	2024-11-08T01:00:00	5	Humedad	83
99317	7	Sololá	704	Santa Lucía Utatlán 	7	Santa Rita 	6	Junio	2023-06-13T00:00:00	2024-11-08T01:00:00	6	Velocidad del viento	4.8
99318	7	Sololá	704	Santa Lucía Utatlán 	7	Santa Rita 	6	Junio	2023-06-13T00:00:00	2024-11-08T01:00:00	7	Dirección del viento	4.83
99319	7	Sololá	704	Santa Lucía Utatlán 	7	Santa Rita 	6	Junio	2023-06-13T00:00:00	2024-11-08T01:00:00	1	Precipitación	0
99320	7	Sololá	704	Santa Lucía Utatlán 	7	Santa Rita 	6	Junio	2023-06-13T00:00:00	2024-11-08T01:00:00	8	Radiación solar	0
99321	7	Sololá	704	Santa Lucía Utatlán 	7	Santa Rita 	6	Junio	2023-06-13T00:00:00	2024-11-08T02:00:00	2	Temperatura media	18.4
99322	7	Sololá	704	Santa Lucía Utatlán 	7	Santa Rita 	6	Junio	2023-06-13T00:00:00	2024-11-08T02:00:00	4	Temperatura máxima	18.4
99323	7	Sololá	704	Santa Lucía Utatlán 	7	Santa Rita 	6	Junio	2023-06-13T00:00:00	2024-11-08T02:00:00	3	Temperatura mínima	18.1
99324	7	Sololá	704	Santa Lucía Utatlán 	7	Santa Rita 	6	Junio	2023-06-13T00:00:00	2024-11-08T02:00:00	5	Humedad	82
99325	7	Sololá	704	Santa Lucía Utatlán 	7	Santa Rita 	6	Junio	2023-06-13T00:00:00	2024-11-08T02:00:00	6	Velocidad del viento	3.2
99326	7	Sololá	704	Santa Lucía Utatlán 	7	Santa Rita 	6	Junio	2023-06-13T00:00:00	2024-11-08T02:00:00	7	Dirección del viento	3.22
99327	7	Sololá	704	Santa Lucía Utatlán 	7	Santa Rita 	6	Junio	2023-06-13T00:00:00	2024-11-08T02:00:00	1	Precipitación	0
99328	7	Sololá	704	Santa Lucía Utatlán 	7	Santa Rita 	6	Junio	2023-06-13T00:00:00	2024-11-08T02:00:00	8	Radiación solar	0
99329	7	Sololá	704	Santa Lucía Utatlán 	7	Santa Rita 	6	Junio	2023-06-13T00:00:00	2024-11-08T03:00:00	2	Temperatura media	22.1
99330	7	Sololá	704	Santa Lucía Utatlán 	7	Santa Rita 	6	Junio	2023-06-13T00:00:00	2024-11-08T03:00:00	4	Temperatura máxima	22.1
99331	7	Sololá	704	Santa Lucía Utatlán 	7	Santa Rita 	6	Junio	2023-06-13T00:00:00	2024-11-08T03:00:00	3	Temperatura mínima	18
99332	7	Sololá	704	Santa Lucía Utatlán 	7	Santa Rita 	6	Junio	2023-06-13T00:00:00	2024-11-08T03:00:00	5	Humedad	57
99333	7	Sololá	704	Santa Lucía Utatlán 	7	Santa Rita 	6	Junio	2023-06-13T00:00:00	2024-11-08T03:00:00	6	Velocidad del viento	4.8
99334	7	Sololá	704	Santa Lucía Utatlán 	7	Santa Rita 	6	Junio	2023-06-13T00:00:00	2024-11-08T03:00:00	7	Dirección del viento	4.83
99335	7	Sololá	704	Santa Lucía Utatlán 	7	Santa Rita 	6	Junio	2023-06-13T00:00:00	2024-11-08T03:00:00	1	Precipitación	0
99336	7	Sololá	704	Santa Lucía Utatlán 	7	Santa Rita 	6	Junio	2023-06-13T00:00:00	2024-11-08T03:00:00	8	Radiación solar	0
99337	7	Sololá	704	Santa Lucía Utatlán 	7	Santa Rita 	6	Junio	2023-06-13T00:00:00	2024-11-08T04:00:00	2	Temperatura media	21.1
99338	7	Sololá	704	Santa Lucía Utatlán 	7	Santa Rita 	6	Junio	2023-06-13T00:00:00	2024-11-08T04:00:00	4	Temperatura máxima	22.1
99339	7	Sololá	704	Santa Lucía Utatlán 	7	Santa Rita 	6	Junio	2023-06-13T00:00:00	2024-11-08T04:00:00	3	Temperatura mínima	20.7
99340	7	Sololá	704	Santa Lucía Utatlán 	7	Santa Rita 	6	Junio	2023-06-13T00:00:00	2024-11-08T04:00:00	5	Humedad	56
99341	7	Sololá	704	Santa Lucía Utatlán 	7	Santa Rita 	6	Junio	2023-06-13T00:00:00	2024-11-08T04:00:00	6	Velocidad del viento	4.8
99342	7	Sololá	704	Santa Lucía Utatlán 	7	Santa Rita 	6	Junio	2023-06-13T00:00:00	2024-11-08T04:00:00	7	Dirección del viento	4.83
99343	7	Sololá	704	Santa Lucía Utatlán 	7	Santa Rita 	6	Junio	2023-06-13T00:00:00	2024-11-08T04:00:00	1	Precipitación	0
99344	7	Sololá	704	Santa Lucía Utatlán 	7	Santa Rita 	6	Junio	2023-06-13T00:00:00	2024-11-08T04:00:00	8	Radiación solar	0
99345	7	Sololá	704	Santa Lucía Utatlán 	7	Santa Rita 	6	Junio	2023-06-13T00:00:00	2024-11-08T05:00:00	2	Temperatura media	20.9
99346	7	Sololá	704	Santa Lucía Utatlán 	7	Santa Rita 	6	Junio	2023-06-13T00:00:00	2024-11-08T05:00:00	4	Temperatura máxima	22.3
99347	7	Sololá	704	Santa Lucía Utatlán 	7	Santa Rita 	6	Junio	2023-06-13T00:00:00	2024-11-08T05:00:00	3	Temperatura mínima	20.6
99348	7	Sololá	704	Santa Lucía Utatlán 	7	Santa Rita 	6	Junio	2023-06-13T00:00:00	2024-11-08T05:00:00	5	Humedad	51
99349	7	Sololá	704	Santa Lucía Utatlán 	7	Santa Rita 	6	Junio	2023-06-13T00:00:00	2024-11-08T05:00:00	6	Velocidad del viento	6.4
99350	7	Sololá	704	Santa Lucía Utatlán 	7	Santa Rita 	6	Junio	2023-06-13T00:00:00	2024-11-08T05:00:00	7	Dirección del viento	6.44
99351	7	Sololá	704	Santa Lucía Utatlán 	7	Santa Rita 	6	Junio	2023-06-13T00:00:00	2024-11-08T05:00:00	1	Precipitación	0
99352	7	Sololá	704	Santa Lucía Utatlán 	7	Santa Rita 	6	Junio	2023-06-13T00:00:00	2024-11-08T05:00:00	8	Radiación solar	0
99353	7	Sololá	704	Santa Lucía Utatlán 	7	Santa Rita 	6	Junio	2023-06-13T00:00:00	2024-11-08T06:00:00	2	Temperatura media	21.3
99354	7	Sololá	704	Santa Lucía Utatlán 	7	Santa Rita 	6	Junio	2023-06-13T00:00:00	2024-11-08T06:00:00	4	Temperatura máxima	21.4
99355	7	Sololá	704	Santa Lucía Utatlán 	7	Santa Rita 	6	Junio	2023-06-13T00:00:00	2024-11-08T06:00:00	3	Temperatura mínima	19
99356	7	Sololá	704	Santa Lucía Utatlán 	7	Santa Rita 	6	Junio	2023-06-13T00:00:00	2024-11-08T06:00:00	5	Humedad	50
99357	7	Sololá	704	Santa Lucía Utatlán 	7	Santa Rita 	6	Junio	2023-06-13T00:00:00	2024-11-08T06:00:00	6	Velocidad del viento	4.8
99358	7	Sololá	704	Santa Lucía Utatlán 	7	Santa Rita 	6	Junio	2023-06-13T00:00:00	2024-11-08T06:00:00	7	Dirección del viento	4.83
99359	7	Sololá	704	Santa Lucía Utatlán 	7	Santa Rita 	6	Junio	2023-06-13T00:00:00	2024-11-08T06:00:00	1	Precipitación	0
99360	7	Sololá	704	Santa Lucía Utatlán 	7	Santa Rita 	6	Junio	2023-06-13T00:00:00	2024-11-08T06:00:00	8	Radiación solar	8
99361	7	Sololá	704	Santa Lucía Utatlán 	7	Santa Rita 	6	Junio	2023-06-13T00:00:00	2024-11-08T07:00:00	2	Temperatura media	20.2
99362	7	Sololá	704	Santa Lucía Utatlán 	7	Santa Rita 	6	Junio	2023-06-13T00:00:00	2024-11-08T07:00:00	4	Temperatura máxima	21.7
99363	7	Sololá	704	Santa Lucía Utatlán 	7	Santa Rita 	6	Junio	2023-06-13T00:00:00	2024-11-08T07:00:00	3	Temperatura mínima	19.6
99364	7	Sololá	704	Santa Lucía Utatlán 	7	Santa Rita 	6	Junio	2023-06-13T00:00:00	2024-11-08T07:00:00	5	Humedad	59
99365	7	Sololá	704	Santa Lucía Utatlán 	7	Santa Rita 	6	Junio	2023-06-13T00:00:00	2024-11-08T07:00:00	6	Velocidad del viento	3.2
99366	7	Sololá	704	Santa Lucía Utatlán 	7	Santa Rita 	6	Junio	2023-06-13T00:00:00	2024-11-08T07:00:00	7	Dirección del viento	3.22
99367	7	Sololá	704	Santa Lucía Utatlán 	7	Santa Rita 	6	Junio	2023-06-13T00:00:00	2024-11-08T07:00:00	1	Precipitación	0
99368	7	Sololá	704	Santa Lucía Utatlán 	7	Santa Rita 	6	Junio	2023-06-13T00:00:00	2024-11-08T07:00:00	8	Radiación solar	91
99369	7	Sololá	704	Santa Lucía Utatlán 	7	Santa Rita 	6	Junio	2023-06-13T00:00:00	2024-11-08T08:00:00	2	Temperatura media	23.6
99370	7	Sololá	704	Santa Lucía Utatlán 	7	Santa Rita 	6	Junio	2023-06-13T00:00:00	2024-11-08T08:00:00	4	Temperatura máxima	23.6
99371	7	Sololá	704	Santa Lucía Utatlán 	7	Santa Rita 	6	Junio	2023-06-13T00:00:00	2024-11-08T08:00:00	3	Temperatura mínima	19.8
99372	7	Sololá	704	Santa Lucía Utatlán 	7	Santa Rita 	6	Junio	2023-06-13T00:00:00	2024-11-08T08:00:00	5	Humedad	54
99373	7	Sololá	704	Santa Lucía Utatlán 	7	Santa Rita 	6	Junio	2023-06-13T00:00:00	2024-11-08T08:00:00	6	Velocidad del viento	6.4
99374	7	Sololá	704	Santa Lucía Utatlán 	7	Santa Rita 	6	Junio	2023-06-13T00:00:00	2024-11-08T08:00:00	7	Dirección del viento	6.44
99375	7	Sololá	704	Santa Lucía Utatlán 	7	Santa Rita 	6	Junio	2023-06-13T00:00:00	2024-11-08T08:00:00	1	Precipitación	0
99376	7	Sololá	704	Santa Lucía Utatlán 	7	Santa Rita 	6	Junio	2023-06-13T00:00:00	2024-11-08T08:00:00	8	Radiación solar	322
99377	7	Sololá	704	Santa Lucía Utatlán 	7	Santa Rita 	6	Junio	2023-06-13T00:00:00	2024-11-08T09:00:00	2	Temperatura media	26.5
99378	7	Sololá	704	Santa Lucía Utatlán 	7	Santa Rita 	6	Junio	2023-06-13T00:00:00	2024-11-08T09:00:00	4	Temperatura máxima	26.6
99379	7	Sololá	704	Santa Lucía Utatlán 	7	Santa Rita 	6	Junio	2023-06-13T00:00:00	2024-11-08T09:00:00	3	Temperatura mínima	23.6
99380	7	Sololá	704	Santa Lucía Utatlán 	7	Santa Rita 	6	Junio	2023-06-13T00:00:00	2024-11-08T09:00:00	5	Humedad	38
99381	7	Sololá	704	Santa Lucía Utatlán 	7	Santa Rita 	6	Junio	2023-06-13T00:00:00	2024-11-08T09:00:00	6	Velocidad del viento	4.8
99382	7	Sololá	704	Santa Lucía Utatlán 	7	Santa Rita 	6	Junio	2023-06-13T00:00:00	2024-11-08T09:00:00	7	Dirección del viento	4.83
99383	7	Sololá	704	Santa Lucía Utatlán 	7	Santa Rita 	6	Junio	2023-06-13T00:00:00	2024-11-08T09:00:00	1	Precipitación	0
99384	7	Sololá	704	Santa Lucía Utatlán 	7	Santa Rita 	6	Junio	2023-06-13T00:00:00	2024-11-08T09:00:00	8	Radiación solar	629
99385	7	Sololá	704	Santa Lucía Utatlán 	7	Santa Rita 	6	Junio	2023-06-13T00:00:00	2024-11-08T10:00:00	2	Temperatura media	25.6
99386	7	Sololá	704	Santa Lucía Utatlán 	7	Santa Rita 	6	Junio	2023-06-13T00:00:00	2024-11-08T10:00:00	4	Temperatura máxima	26.5
99387	7	Sololá	704	Santa Lucía Utatlán 	7	Santa Rita 	6	Junio	2023-06-13T00:00:00	2024-11-08T10:00:00	3	Temperatura mínima	25.4
99388	7	Sololá	704	Santa Lucía Utatlán 	7	Santa Rita 	6	Junio	2023-06-13T00:00:00	2024-11-08T10:00:00	5	Humedad	50
99389	7	Sololá	704	Santa Lucía Utatlán 	7	Santa Rita 	6	Junio	2023-06-13T00:00:00	2024-11-08T10:00:00	6	Velocidad del viento	9.7
99390	7	Sololá	704	Santa Lucía Utatlán 	7	Santa Rita 	6	Junio	2023-06-13T00:00:00	2024-11-08T10:00:00	7	Dirección del viento	9.66
99391	7	Sololá	704	Santa Lucía Utatlán 	7	Santa Rita 	6	Junio	2023-06-13T00:00:00	2024-11-08T10:00:00	1	Precipitación	0
99392	7	Sololá	704	Santa Lucía Utatlán 	7	Santa Rita 	6	Junio	2023-06-13T00:00:00	2024-11-08T10:00:00	8	Radiación solar	736
99393	7	Sololá	704	Santa Lucía Utatlán 	7	Santa Rita 	6	Junio	2023-06-13T00:00:00	2024-11-08T11:00:00	2	Temperatura media	25.9
99394	7	Sololá	704	Santa Lucía Utatlán 	7	Santa Rita 	6	Junio	2023-06-13T00:00:00	2024-11-08T11:00:00	4	Temperatura máxima	26.2
99395	7	Sololá	704	Santa Lucía Utatlán 	7	Santa Rita 	6	Junio	2023-06-13T00:00:00	2024-11-08T11:00:00	3	Temperatura mínima	25.3
99396	7	Sololá	704	Santa Lucía Utatlán 	7	Santa Rita 	6	Junio	2023-06-13T00:00:00	2024-11-08T11:00:00	5	Humedad	50
99397	7	Sololá	704	Santa Lucía Utatlán 	7	Santa Rita 	6	Junio	2023-06-13T00:00:00	2024-11-08T11:00:00	6	Velocidad del viento	11.3
99398	7	Sololá	704	Santa Lucía Utatlán 	7	Santa Rita 	6	Junio	2023-06-13T00:00:00	2024-11-08T11:00:00	7	Dirección del viento	11.27
99399	7	Sololá	704	Santa Lucía Utatlán 	7	Santa Rita 	6	Junio	2023-06-13T00:00:00	2024-11-08T11:00:00	1	Precipitación	0
99400	7	Sololá	704	Santa Lucía Utatlán 	7	Santa Rita 	6	Junio	2023-06-13T00:00:00	2024-11-08T11:00:00	8	Radiación solar	962
99401	7	Sololá	704	Santa Lucía Utatlán 	7	Santa Rita 	6	Junio	2023-06-13T00:00:00	2024-11-08T12:00:00	2	Temperatura media	26.7
99402	7	Sololá	704	Santa Lucía Utatlán 	7	Santa Rita 	6	Junio	2023-06-13T00:00:00	2024-11-08T12:00:00	4	Temperatura máxima	26.8
99403	7	Sololá	704	Santa Lucía Utatlán 	7	Santa Rita 	6	Junio	2023-06-13T00:00:00	2024-11-08T12:00:00	3	Temperatura mínima	25.6
99404	7	Sololá	704	Santa Lucía Utatlán 	7	Santa Rita 	6	Junio	2023-06-13T00:00:00	2024-11-08T12:00:00	5	Humedad	43
99405	7	Sololá	704	Santa Lucía Utatlán 	7	Santa Rita 	6	Junio	2023-06-13T00:00:00	2024-11-08T12:00:00	6	Velocidad del viento	11.3
99406	7	Sololá	704	Santa Lucía Utatlán 	7	Santa Rita 	6	Junio	2023-06-13T00:00:00	2024-11-08T12:00:00	7	Dirección del viento	11.27
99407	7	Sololá	704	Santa Lucía Utatlán 	7	Santa Rita 	6	Junio	2023-06-13T00:00:00	2024-11-08T12:00:00	1	Precipitación	0
99408	7	Sololá	704	Santa Lucía Utatlán 	7	Santa Rita 	6	Junio	2023-06-13T00:00:00	2024-11-08T12:00:00	8	Radiación solar	1024
99409	7	Sololá	704	Santa Lucía Utatlán 	7	Santa Rita 	6	Junio	2023-06-13T00:00:00	2024-11-08T13:00:00	2	Temperatura media	27.8
99410	7	Sololá	704	Santa Lucía Utatlán 	7	Santa Rita 	6	Junio	2023-06-13T00:00:00	2024-11-08T13:00:00	4	Temperatura máxima	28.1
99411	7	Sololá	704	Santa Lucía Utatlán 	7	Santa Rita 	6	Junio	2023-06-13T00:00:00	2024-11-08T13:00:00	3	Temperatura mínima	26.7
99412	7	Sololá	704	Santa Lucía Utatlán 	7	Santa Rita 	6	Junio	2023-06-13T00:00:00	2024-11-08T13:00:00	5	Humedad	39
99413	7	Sololá	704	Santa Lucía Utatlán 	7	Santa Rita 	6	Junio	2023-06-13T00:00:00	2024-11-08T13:00:00	6	Velocidad del viento	9.7
99414	7	Sololá	704	Santa Lucía Utatlán 	7	Santa Rita 	6	Junio	2023-06-13T00:00:00	2024-11-08T13:00:00	7	Dirección del viento	9.66
99415	7	Sololá	704	Santa Lucía Utatlán 	7	Santa Rita 	6	Junio	2023-06-13T00:00:00	2024-11-08T13:00:00	1	Precipitación	0
99416	7	Sololá	704	Santa Lucía Utatlán 	7	Santa Rita 	6	Junio	2023-06-13T00:00:00	2024-11-08T13:00:00	8	Radiación solar	1010
99417	7	Sololá	704	Santa Lucía Utatlán 	7	Santa Rita 	6	Junio	2023-06-13T00:00:00	2024-11-08T14:00:00	2	Temperatura media	27.8
99418	7	Sololá	704	Santa Lucía Utatlán 	7	Santa Rita 	6	Junio	2023-06-13T00:00:00	2024-11-08T14:00:00	4	Temperatura máxima	28.4
99419	7	Sololá	704	Santa Lucía Utatlán 	7	Santa Rita 	6	Junio	2023-06-13T00:00:00	2024-11-08T14:00:00	3	Temperatura mínima	27.6
99420	7	Sololá	704	Santa Lucía Utatlán 	7	Santa Rita 	6	Junio	2023-06-13T00:00:00	2024-11-08T14:00:00	5	Humedad	35
99421	7	Sololá	704	Santa Lucía Utatlán 	7	Santa Rita 	6	Junio	2023-06-13T00:00:00	2024-11-08T14:00:00	6	Velocidad del viento	11.3
99422	7	Sololá	704	Santa Lucía Utatlán 	7	Santa Rita 	6	Junio	2023-06-13T00:00:00	2024-11-08T14:00:00	7	Dirección del viento	11.27
99423	7	Sololá	704	Santa Lucía Utatlán 	7	Santa Rita 	6	Junio	2023-06-13T00:00:00	2024-11-08T14:00:00	1	Precipitación	0
99424	7	Sololá	704	Santa Lucía Utatlán 	7	Santa Rita 	6	Junio	2023-06-13T00:00:00	2024-11-08T14:00:00	8	Radiación solar	904
99425	7	Sololá	704	Santa Lucía Utatlán 	7	Santa Rita 	6	Junio	2023-06-13T00:00:00	2024-11-08T15:00:00	2	Temperatura media	26.1
99426	7	Sololá	704	Santa Lucía Utatlán 	7	Santa Rita 	6	Junio	2023-06-13T00:00:00	2024-11-08T15:00:00	4	Temperatura máxima	28.2
99427	7	Sololá	704	Santa Lucía Utatlán 	7	Santa Rita 	6	Junio	2023-06-13T00:00:00	2024-11-08T15:00:00	3	Temperatura mínima	26.1
99428	7	Sololá	704	Santa Lucía Utatlán 	7	Santa Rita 	6	Junio	2023-06-13T00:00:00	2024-11-08T15:00:00	5	Humedad	68
99429	7	Sololá	704	Santa Lucía Utatlán 	7	Santa Rita 	6	Junio	2023-06-13T00:00:00	2024-11-08T15:00:00	6	Velocidad del viento	6.4
99430	7	Sololá	704	Santa Lucía Utatlán 	7	Santa Rita 	6	Junio	2023-06-13T00:00:00	2024-11-08T15:00:00	7	Dirección del viento	6.44
99431	7	Sololá	704	Santa Lucía Utatlán 	7	Santa Rita 	6	Junio	2023-06-13T00:00:00	2024-11-08T15:00:00	1	Precipitación	0
99432	7	Sololá	704	Santa Lucía Utatlán 	7	Santa Rita 	6	Junio	2023-06-13T00:00:00	2024-11-08T15:00:00	8	Radiación solar	628
99433	7	Sololá	704	Santa Lucía Utatlán 	7	Santa Rita 	6	Junio	2023-06-13T00:00:00	2024-11-08T16:00:00	2	Temperatura media	25.2
99434	7	Sololá	704	Santa Lucía Utatlán 	7	Santa Rita 	6	Junio	2023-06-13T00:00:00	2024-11-08T16:00:00	4	Temperatura máxima	26.2
99435	7	Sololá	704	Santa Lucía Utatlán 	7	Santa Rita 	6	Junio	2023-06-13T00:00:00	2024-11-08T16:00:00	3	Temperatura mínima	25.1
99436	7	Sololá	704	Santa Lucía Utatlán 	7	Santa Rita 	6	Junio	2023-06-13T00:00:00	2024-11-08T16:00:00	5	Humedad	75
99437	7	Sololá	704	Santa Lucía Utatlán 	7	Santa Rita 	6	Junio	2023-06-13T00:00:00	2024-11-08T16:00:00	6	Velocidad del viento	6.4
99438	7	Sololá	704	Santa Lucía Utatlán 	7	Santa Rita 	6	Junio	2023-06-13T00:00:00	2024-11-08T16:00:00	7	Dirección del viento	6.44
99439	7	Sololá	704	Santa Lucía Utatlán 	7	Santa Rita 	6	Junio	2023-06-13T00:00:00	2024-11-08T16:00:00	1	Precipitación	0
99440	7	Sololá	704	Santa Lucía Utatlán 	7	Santa Rita 	6	Junio	2023-06-13T00:00:00	2024-11-08T16:00:00	8	Radiación solar	382
99441	7	Sololá	704	Santa Lucía Utatlán 	7	Santa Rita 	6	Junio	2023-06-13T00:00:00	2024-11-08T17:00:00	2	Temperatura media	23.6
99442	7	Sololá	704	Santa Lucía Utatlán 	7	Santa Rita 	6	Junio	2023-06-13T00:00:00	2024-11-08T17:00:00	4	Temperatura máxima	25.2
99443	7	Sololá	704	Santa Lucía Utatlán 	7	Santa Rita 	6	Junio	2023-06-13T00:00:00	2024-11-08T17:00:00	3	Temperatura mínima	23.4
99444	7	Sololá	704	Santa Lucía Utatlán 	7	Santa Rita 	6	Junio	2023-06-13T00:00:00	2024-11-08T17:00:00	5	Humedad	81
99445	7	Sololá	704	Santa Lucía Utatlán 	7	Santa Rita 	6	Junio	2023-06-13T00:00:00	2024-11-08T17:00:00	6	Velocidad del viento	6.4
99446	7	Sololá	704	Santa Lucía Utatlán 	7	Santa Rita 	6	Junio	2023-06-13T00:00:00	2024-11-08T17:00:00	7	Dirección del viento	6.44
99447	7	Sololá	704	Santa Lucía Utatlán 	7	Santa Rita 	6	Junio	2023-06-13T00:00:00	2024-11-08T17:00:00	1	Precipitación	0
99448	7	Sololá	704	Santa Lucía Utatlán 	7	Santa Rita 	6	Junio	2023-06-13T00:00:00	2024-11-08T17:00:00	8	Radiación solar	160
99449	7	Sololá	704	Santa Lucía Utatlán 	7	Santa Rita 	6	Junio	2023-06-13T00:00:00	2024-11-08T18:00:00	2	Temperatura media	23.1
99450	7	Sololá	704	Santa Lucía Utatlán 	7	Santa Rita 	6	Junio	2023-06-13T00:00:00	2024-11-08T18:00:00	4	Temperatura máxima	23.6
99451	7	Sololá	704	Santa Lucía Utatlán 	7	Santa Rita 	6	Junio	2023-06-13T00:00:00	2024-11-08T18:00:00	3	Temperatura mínima	23
99452	7	Sololá	704	Santa Lucía Utatlán 	7	Santa Rita 	6	Junio	2023-06-13T00:00:00	2024-11-08T18:00:00	5	Humedad	85
99453	7	Sololá	704	Santa Lucía Utatlán 	7	Santa Rita 	6	Junio	2023-06-13T00:00:00	2024-11-08T18:00:00	6	Velocidad del viento	3.2
99454	7	Sololá	704	Santa Lucía Utatlán 	7	Santa Rita 	6	Junio	2023-06-13T00:00:00	2024-11-08T18:00:00	7	Dirección del viento	3.22
99455	7	Sololá	704	Santa Lucía Utatlán 	7	Santa Rita 	6	Junio	2023-06-13T00:00:00	2024-11-08T18:00:00	1	Precipitación	0
99456	7	Sololá	704	Santa Lucía Utatlán 	7	Santa Rita 	6	Junio	2023-06-13T00:00:00	2024-11-08T18:00:00	8	Radiación solar	67
99457	7	Sololá	704	Santa Lucía Utatlán 	7	Santa Rita 	6	Junio	2023-06-13T00:00:00	2024-11-08T19:00:00	2	Temperatura media	22.1
99458	7	Sololá	704	Santa Lucía Utatlán 	7	Santa Rita 	6	Junio	2023-06-13T00:00:00	2024-11-08T19:00:00	4	Temperatura máxima	23
99459	7	Sololá	704	Santa Lucía Utatlán 	7	Santa Rita 	6	Junio	2023-06-13T00:00:00	2024-11-08T19:00:00	3	Temperatura mínima	22.1
99460	7	Sololá	704	Santa Lucía Utatlán 	7	Santa Rita 	6	Junio	2023-06-13T00:00:00	2024-11-08T19:00:00	5	Humedad	89
99461	7	Sololá	704	Santa Lucía Utatlán 	7	Santa Rita 	6	Junio	2023-06-13T00:00:00	2024-11-08T19:00:00	6	Velocidad del viento	3.2
99462	7	Sololá	704	Santa Lucía Utatlán 	7	Santa Rita 	6	Junio	2023-06-13T00:00:00	2024-11-08T19:00:00	7	Dirección del viento	3.22
99463	7	Sololá	704	Santa Lucía Utatlán 	7	Santa Rita 	6	Junio	2023-06-13T00:00:00	2024-11-08T19:00:00	1	Precipitación	0
99464	7	Sololá	704	Santa Lucía Utatlán 	7	Santa Rita 	6	Junio	2023-06-13T00:00:00	2024-11-08T19:00:00	8	Radiación solar	0
99465	7	Sololá	704	Santa Lucía Utatlán 	7	Santa Rita 	6	Junio	2023-06-13T00:00:00	2024-11-08T20:00:00	2	Temperatura media	21.6
99466	7	Sololá	704	Santa Lucía Utatlán 	7	Santa Rita 	6	Junio	2023-06-13T00:00:00	2024-11-08T20:00:00	4	Temperatura máxima	22.1
99467	7	Sololá	704	Santa Lucía Utatlán 	7	Santa Rita 	6	Junio	2023-06-13T00:00:00	2024-11-08T20:00:00	3	Temperatura mínima	21.6
99468	7	Sololá	704	Santa Lucía Utatlán 	7	Santa Rita 	6	Junio	2023-06-13T00:00:00	2024-11-08T20:00:00	5	Humedad	92
99469	7	Sololá	704	Santa Lucía Utatlán 	7	Santa Rita 	6	Junio	2023-06-13T00:00:00	2024-11-08T20:00:00	6	Velocidad del viento	3.2
99470	7	Sololá	704	Santa Lucía Utatlán 	7	Santa Rita 	6	Junio	2023-06-13T00:00:00	2024-11-08T20:00:00	7	Dirección del viento	3.22
99471	7	Sololá	704	Santa Lucía Utatlán 	7	Santa Rita 	6	Junio	2023-06-13T00:00:00	2024-11-08T20:00:00	1	Precipitación	0
99472	7	Sololá	704	Santa Lucía Utatlán 	7	Santa Rita 	6	Junio	2023-06-13T00:00:00	2024-11-08T20:00:00	8	Radiación solar	0
99473	7	Sololá	704	Santa Lucía Utatlán 	7	Santa Rita 	6	Junio	2023-06-13T00:00:00	2024-11-08T21:00:00	2	Temperatura media	20.8
99474	7	Sololá	704	Santa Lucía Utatlán 	7	Santa Rita 	6	Junio	2023-06-13T00:00:00	2024-11-08T21:00:00	4	Temperatura máxima	21.9
99475	7	Sololá	704	Santa Lucía Utatlán 	7	Santa Rita 	6	Junio	2023-06-13T00:00:00	2024-11-08T21:00:00	3	Temperatura mínima	20.8
99476	7	Sololá	704	Santa Lucía Utatlán 	7	Santa Rita 	6	Junio	2023-06-13T00:00:00	2024-11-08T21:00:00	5	Humedad	86
99477	7	Sololá	704	Santa Lucía Utatlán 	7	Santa Rita 	6	Junio	2023-06-13T00:00:00	2024-11-08T21:00:00	6	Velocidad del viento	3.2
99478	7	Sololá	704	Santa Lucía Utatlán 	7	Santa Rita 	6	Junio	2023-06-13T00:00:00	2024-11-08T21:00:00	7	Dirección del viento	3.22
99479	7	Sololá	704	Santa Lucía Utatlán 	7	Santa Rita 	6	Junio	2023-06-13T00:00:00	2024-11-08T21:00:00	1	Precipitación	0
99480	7	Sololá	704	Santa Lucía Utatlán 	7	Santa Rita 	6	Junio	2023-06-13T00:00:00	2024-11-08T21:00:00	8	Radiación solar	0
99481	7	Sololá	704	Santa Lucía Utatlán 	7	Santa Rita 	6	Junio	2023-06-13T00:00:00	2024-11-08T22:00:00	2	Temperatura media	19.6
99482	7	Sololá	704	Santa Lucía Utatlán 	7	Santa Rita 	6	Junio	2023-06-13T00:00:00	2024-11-08T22:00:00	4	Temperatura máxima	20.8
99483	7	Sololá	704	Santa Lucía Utatlán 	7	Santa Rita 	6	Junio	2023-06-13T00:00:00	2024-11-08T22:00:00	3	Temperatura mínima	19.6
99484	7	Sololá	704	Santa Lucía Utatlán 	7	Santa Rita 	6	Junio	2023-06-13T00:00:00	2024-11-08T22:00:00	5	Humedad	88
99485	7	Sololá	704	Santa Lucía Utatlán 	7	Santa Rita 	6	Junio	2023-06-13T00:00:00	2024-11-08T22:00:00	6	Velocidad del viento	3.2
99486	7	Sololá	704	Santa Lucía Utatlán 	7	Santa Rita 	6	Junio	2023-06-13T00:00:00	2024-11-08T22:00:00	7	Dirección del viento	3.22
99487	7	Sololá	704	Santa Lucía Utatlán 	7	Santa Rita 	6	Junio	2023-06-13T00:00:00	2024-11-08T22:00:00	1	Precipitación	0
99488	7	Sololá	704	Santa Lucía Utatlán 	7	Santa Rita 	6	Junio	2023-06-13T00:00:00	2024-11-08T22:00:00	8	Radiación solar	0
99489	7	Sololá	704	Santa Lucía Utatlán 	7	Santa Rita 	6	Junio	2023-06-13T00:00:00	2024-11-08T23:00:00	2	Temperatura media	19.3
99490	7	Sololá	704	Santa Lucía Utatlán 	7	Santa Rita 	6	Junio	2023-06-13T00:00:00	2024-11-08T23:00:00	4	Temperatura máxima	19.6
99491	7	Sololá	704	Santa Lucía Utatlán 	7	Santa Rita 	6	Junio	2023-06-13T00:00:00	2024-11-08T23:00:00	3	Temperatura mínima	19.2
99492	7	Sololá	704	Santa Lucía Utatlán 	7	Santa Rita 	6	Junio	2023-06-13T00:00:00	2024-11-08T23:00:00	5	Humedad	89
99493	7	Sololá	704	Santa Lucía Utatlán 	7	Santa Rita 	6	Junio	2023-06-13T00:00:00	2024-11-08T23:00:00	6	Velocidad del viento	3.2
99494	7	Sololá	704	Santa Lucía Utatlán 	7	Santa Rita 	6	Junio	2023-06-13T00:00:00	2024-11-08T23:00:00	7	Dirección del viento	3.22
99495	7	Sololá	704	Santa Lucía Utatlán 	7	Santa Rita 	6	Junio	2023-06-13T00:00:00	2024-11-08T23:00:00	1	Precipitación	0
99496	7	Sololá	704	Santa Lucía Utatlán 	7	Santa Rita 	6	Junio	2023-06-13T00:00:00	2024-11-08T23:00:00	8	Radiación solar	0
99497	7	Sololá	704	Santa Lucía Utatlán 	7	Santa Rita 	6	Junio	2023-06-14T00:00:00	2024-11-08T00:00:00	2	Temperatura media	18.7
99498	7	Sololá	704	Santa Lucía Utatlán 	7	Santa Rita 	6	Junio	2023-06-14T00:00:00	2024-11-08T00:00:00	4	Temperatura máxima	19.3
99499	7	Sololá	704	Santa Lucía Utatlán 	7	Santa Rita 	6	Junio	2023-06-14T00:00:00	2024-11-08T00:00:00	3	Temperatura mínima	18.6
99500	7	Sololá	704	Santa Lucía Utatlán 	7	Santa Rita 	6	Junio	2023-06-14T00:00:00	2024-11-08T00:00:00	5	Humedad	89
99501	7	Sololá	704	Santa Lucía Utatlán 	7	Santa Rita 	6	Junio	2023-06-14T00:00:00	2024-11-08T00:00:00	6	Velocidad del viento	1.6
99502	7	Sololá	704	Santa Lucía Utatlán 	7	Santa Rita 	6	Junio	2023-06-14T00:00:00	2024-11-08T00:00:00	7	Dirección del viento	1.61
99503	7	Sololá	704	Santa Lucía Utatlán 	7	Santa Rita 	6	Junio	2023-06-14T00:00:00	2024-11-08T00:00:00	1	Precipitación	0
99504	7	Sololá	704	Santa Lucía Utatlán 	7	Santa Rita 	6	Junio	2023-06-14T00:00:00	2024-11-08T00:00:00	8	Radiación solar	0
99505	7	Sololá	704	Santa Lucía Utatlán 	7	Santa Rita 	6	Junio	2023-06-14T00:00:00	2024-11-08T01:00:00	2	Temperatura media	20.2
99506	7	Sololá	704	Santa Lucía Utatlán 	7	Santa Rita 	6	Junio	2023-06-14T00:00:00	2024-11-08T01:00:00	4	Temperatura máxima	20.5
99507	7	Sololá	704	Santa Lucía Utatlán 	7	Santa Rita 	6	Junio	2023-06-14T00:00:00	2024-11-08T01:00:00	3	Temperatura mínima	18.5
99508	7	Sololá	704	Santa Lucía Utatlán 	7	Santa Rita 	6	Junio	2023-06-14T00:00:00	2024-11-08T01:00:00	5	Humedad	83
99509	7	Sololá	704	Santa Lucía Utatlán 	7	Santa Rita 	6	Junio	2023-06-14T00:00:00	2024-11-08T01:00:00	6	Velocidad del viento	4.8
99510	7	Sololá	704	Santa Lucía Utatlán 	7	Santa Rita 	6	Junio	2023-06-14T00:00:00	2024-11-08T01:00:00	7	Dirección del viento	4.83
99511	7	Sololá	704	Santa Lucía Utatlán 	7	Santa Rita 	6	Junio	2023-06-14T00:00:00	2024-11-08T01:00:00	1	Precipitación	0
99512	7	Sololá	704	Santa Lucía Utatlán 	7	Santa Rita 	6	Junio	2023-06-14T00:00:00	2024-11-08T01:00:00	8	Radiación solar	0
99513	7	Sololá	704	Santa Lucía Utatlán 	7	Santa Rita 	6	Junio	2023-06-14T00:00:00	2024-11-08T02:00:00	2	Temperatura media	18.7
99514	7	Sololá	704	Santa Lucía Utatlán 	7	Santa Rita 	6	Junio	2023-06-14T00:00:00	2024-11-08T02:00:00	4	Temperatura máxima	21
99515	7	Sololá	704	Santa Lucía Utatlán 	7	Santa Rita 	6	Junio	2023-06-14T00:00:00	2024-11-08T02:00:00	3	Temperatura mínima	18.7
99516	7	Sololá	704	Santa Lucía Utatlán 	7	Santa Rita 	6	Junio	2023-06-14T00:00:00	2024-11-08T02:00:00	5	Humedad	84
99517	7	Sololá	704	Santa Lucía Utatlán 	7	Santa Rita 	6	Junio	2023-06-14T00:00:00	2024-11-08T02:00:00	6	Velocidad del viento	4.8
99518	7	Sololá	704	Santa Lucía Utatlán 	7	Santa Rita 	6	Junio	2023-06-14T00:00:00	2024-11-08T02:00:00	7	Dirección del viento	4.83
99519	7	Sololá	704	Santa Lucía Utatlán 	7	Santa Rita 	6	Junio	2023-06-14T00:00:00	2024-11-08T02:00:00	1	Precipitación	0
99520	7	Sololá	704	Santa Lucía Utatlán 	7	Santa Rita 	6	Junio	2023-06-14T00:00:00	2024-11-08T02:00:00	8	Radiación solar	0
99521	7	Sololá	704	Santa Lucía Utatlán 	7	Santa Rita 	6	Junio	2023-06-14T00:00:00	2024-11-08T03:00:00	2	Temperatura media	18.3
99522	7	Sololá	704	Santa Lucía Utatlán 	7	Santa Rita 	6	Junio	2023-06-14T00:00:00	2024-11-08T03:00:00	4	Temperatura máxima	18.7
99523	7	Sololá	704	Santa Lucía Utatlán 	7	Santa Rita 	6	Junio	2023-06-14T00:00:00	2024-11-08T03:00:00	3	Temperatura mínima	17.7
99524	7	Sololá	704	Santa Lucía Utatlán 	7	Santa Rita 	6	Junio	2023-06-14T00:00:00	2024-11-08T03:00:00	5	Humedad	85
99525	7	Sololá	704	Santa Lucía Utatlán 	7	Santa Rita 	6	Junio	2023-06-14T00:00:00	2024-11-08T03:00:00	6	Velocidad del viento	4.8
99526	7	Sololá	704	Santa Lucía Utatlán 	7	Santa Rita 	6	Junio	2023-06-14T00:00:00	2024-11-08T03:00:00	7	Dirección del viento	4.83
99527	7	Sololá	704	Santa Lucía Utatlán 	7	Santa Rita 	6	Junio	2023-06-14T00:00:00	2024-11-08T03:00:00	1	Precipitación	0
99528	7	Sololá	704	Santa Lucía Utatlán 	7	Santa Rita 	6	Junio	2023-06-14T00:00:00	2024-11-08T03:00:00	8	Radiación solar	0
99529	7	Sololá	704	Santa Lucía Utatlán 	7	Santa Rita 	6	Junio	2023-06-14T00:00:00	2024-11-08T04:00:00	2	Temperatura media	17.8
99530	7	Sololá	704	Santa Lucía Utatlán 	7	Santa Rita 	6	Junio	2023-06-14T00:00:00	2024-11-08T04:00:00	4	Temperatura máxima	18.2
99531	7	Sololá	704	Santa Lucía Utatlán 	7	Santa Rita 	6	Junio	2023-06-14T00:00:00	2024-11-08T04:00:00	3	Temperatura mínima	17.5
99532	7	Sololá	704	Santa Lucía Utatlán 	7	Santa Rita 	6	Junio	2023-06-14T00:00:00	2024-11-08T04:00:00	5	Humedad	84
99533	7	Sololá	704	Santa Lucía Utatlán 	7	Santa Rita 	6	Junio	2023-06-14T00:00:00	2024-11-08T04:00:00	6	Velocidad del viento	3.2
99534	7	Sololá	704	Santa Lucía Utatlán 	7	Santa Rita 	6	Junio	2023-06-14T00:00:00	2024-11-08T04:00:00	7	Dirección del viento	3.22
99535	7	Sololá	704	Santa Lucía Utatlán 	7	Santa Rita 	6	Junio	2023-06-14T00:00:00	2024-11-08T04:00:00	1	Precipitación	0
99536	7	Sololá	704	Santa Lucía Utatlán 	7	Santa Rita 	6	Junio	2023-06-14T00:00:00	2024-11-08T04:00:00	8	Radiación solar	0
99537	7	Sololá	704	Santa Lucía Utatlán 	7	Santa Rita 	6	Junio	2023-06-14T00:00:00	2024-11-08T05:00:00	2	Temperatura media	17.6
99538	7	Sololá	704	Santa Lucía Utatlán 	7	Santa Rita 	6	Junio	2023-06-14T00:00:00	2024-11-08T05:00:00	4	Temperatura máxima	17.9
99539	7	Sololá	704	Santa Lucía Utatlán 	7	Santa Rita 	6	Junio	2023-06-14T00:00:00	2024-11-08T05:00:00	3	Temperatura mínima	17.4
99540	7	Sololá	704	Santa Lucía Utatlán 	7	Santa Rita 	6	Junio	2023-06-14T00:00:00	2024-11-08T05:00:00	5	Humedad	85
99541	7	Sololá	704	Santa Lucía Utatlán 	7	Santa Rita 	6	Junio	2023-06-14T00:00:00	2024-11-08T05:00:00	6	Velocidad del viento	3.2
99542	7	Sololá	704	Santa Lucía Utatlán 	7	Santa Rita 	6	Junio	2023-06-14T00:00:00	2024-11-08T05:00:00	7	Dirección del viento	3.22
99543	7	Sololá	704	Santa Lucía Utatlán 	7	Santa Rita 	6	Junio	2023-06-14T00:00:00	2024-11-08T05:00:00	1	Precipitación	0
99544	7	Sololá	704	Santa Lucía Utatlán 	7	Santa Rita 	6	Junio	2023-06-14T00:00:00	2024-11-08T05:00:00	8	Radiación solar	0
99545	7	Sololá	704	Santa Lucía Utatlán 	7	Santa Rita 	6	Junio	2023-06-14T00:00:00	2024-11-08T06:00:00	2	Temperatura media	17.3
99546	7	Sololá	704	Santa Lucía Utatlán 	7	Santa Rita 	6	Junio	2023-06-14T00:00:00	2024-11-08T06:00:00	4	Temperatura máxima	17.7
99547	7	Sololá	704	Santa Lucía Utatlán 	7	Santa Rita 	6	Junio	2023-06-14T00:00:00	2024-11-08T06:00:00	3	Temperatura mínima	17.3
99548	7	Sololá	704	Santa Lucía Utatlán 	7	Santa Rita 	6	Junio	2023-06-14T00:00:00	2024-11-08T06:00:00	5	Humedad	83
99549	7	Sololá	704	Santa Lucía Utatlán 	7	Santa Rita 	6	Junio	2023-06-14T00:00:00	2024-11-08T06:00:00	6	Velocidad del viento	3.2
99550	7	Sololá	704	Santa Lucía Utatlán 	7	Santa Rita 	6	Junio	2023-06-14T00:00:00	2024-11-08T06:00:00	7	Dirección del viento	3.22
99551	7	Sololá	704	Santa Lucía Utatlán 	7	Santa Rita 	6	Junio	2023-06-14T00:00:00	2024-11-08T06:00:00	1	Precipitación	0
99552	7	Sololá	704	Santa Lucía Utatlán 	7	Santa Rita 	6	Junio	2023-06-14T00:00:00	2024-11-08T06:00:00	8	Radiación solar	7
99553	7	Sololá	704	Santa Lucía Utatlán 	7	Santa Rita 	6	Junio	2023-06-14T00:00:00	2024-11-08T07:00:00	2	Temperatura media	18.5
99554	7	Sololá	704	Santa Lucía Utatlán 	7	Santa Rita 	6	Junio	2023-06-14T00:00:00	2024-11-08T07:00:00	4	Temperatura máxima	18.5
99555	7	Sololá	704	Santa Lucía Utatlán 	7	Santa Rita 	6	Junio	2023-06-14T00:00:00	2024-11-08T07:00:00	3	Temperatura mínima	17.3
99556	7	Sololá	704	Santa Lucía Utatlán 	7	Santa Rita 	6	Junio	2023-06-14T00:00:00	2024-11-08T07:00:00	5	Humedad	78
99557	7	Sololá	704	Santa Lucía Utatlán 	7	Santa Rita 	6	Junio	2023-06-14T00:00:00	2024-11-08T07:00:00	6	Velocidad del viento	3.2
99558	7	Sololá	704	Santa Lucía Utatlán 	7	Santa Rita 	6	Junio	2023-06-14T00:00:00	2024-11-08T07:00:00	7	Dirección del viento	3.22
99559	7	Sololá	704	Santa Lucía Utatlán 	7	Santa Rita 	6	Junio	2023-06-14T00:00:00	2024-11-08T07:00:00	1	Precipitación	0
99560	7	Sololá	704	Santa Lucía Utatlán 	7	Santa Rita 	6	Junio	2023-06-14T00:00:00	2024-11-08T07:00:00	8	Radiación solar	55
99561	7	Sololá	704	Santa Lucía Utatlán 	7	Santa Rita 	6	Junio	2023-06-14T00:00:00	2024-11-08T08:00:00	2	Temperatura media	22.8
99562	7	Sololá	704	Santa Lucía Utatlán 	7	Santa Rita 	6	Junio	2023-06-14T00:00:00	2024-11-08T08:00:00	4	Temperatura máxima	22.8
99563	7	Sololá	704	Santa Lucía Utatlán 	7	Santa Rita 	6	Junio	2023-06-14T00:00:00	2024-11-08T08:00:00	3	Temperatura mínima	18.5
99564	7	Sololá	704	Santa Lucía Utatlán 	7	Santa Rita 	6	Junio	2023-06-14T00:00:00	2024-11-08T08:00:00	5	Humedad	68
99565	7	Sololá	704	Santa Lucía Utatlán 	7	Santa Rita 	6	Junio	2023-06-14T00:00:00	2024-11-08T08:00:00	6	Velocidad del viento	3.2
99566	7	Sololá	704	Santa Lucía Utatlán 	7	Santa Rita 	6	Junio	2023-06-14T00:00:00	2024-11-08T08:00:00	7	Dirección del viento	3.22
99567	7	Sololá	704	Santa Lucía Utatlán 	7	Santa Rita 	6	Junio	2023-06-14T00:00:00	2024-11-08T08:00:00	1	Precipitación	0
99568	7	Sololá	704	Santa Lucía Utatlán 	7	Santa Rita 	6	Junio	2023-06-14T00:00:00	2024-11-08T08:00:00	8	Radiación solar	378
99569	7	Sololá	704	Santa Lucía Utatlán 	7	Santa Rita 	6	Junio	2023-06-14T00:00:00	2024-11-08T09:00:00	2	Temperatura media	25.7
99570	7	Sololá	704	Santa Lucía Utatlán 	7	Santa Rita 	6	Junio	2023-06-14T00:00:00	2024-11-08T09:00:00	4	Temperatura máxima	25.7
99571	7	Sololá	704	Santa Lucía Utatlán 	7	Santa Rita 	6	Junio	2023-06-14T00:00:00	2024-11-08T09:00:00	3	Temperatura mínima	22.8
99572	7	Sololá	704	Santa Lucía Utatlán 	7	Santa Rita 	6	Junio	2023-06-14T00:00:00	2024-11-08T09:00:00	5	Humedad	62
99573	7	Sololá	704	Santa Lucía Utatlán 	7	Santa Rita 	6	Junio	2023-06-14T00:00:00	2024-11-08T09:00:00	6	Velocidad del viento	3.2
99574	7	Sololá	704	Santa Lucía Utatlán 	7	Santa Rita 	6	Junio	2023-06-14T00:00:00	2024-11-08T09:00:00	7	Dirección del viento	3.22
99575	7	Sololá	704	Santa Lucía Utatlán 	7	Santa Rita 	6	Junio	2023-06-14T00:00:00	2024-11-08T09:00:00	1	Precipitación	0
99576	7	Sololá	704	Santa Lucía Utatlán 	7	Santa Rita 	6	Junio	2023-06-14T00:00:00	2024-11-08T09:00:00	8	Radiación solar	619
99577	7	Sololá	704	Santa Lucía Utatlán 	7	Santa Rita 	6	Junio	2023-06-14T00:00:00	2024-11-08T10:00:00	2	Temperatura media	26.2
99578	7	Sololá	704	Santa Lucía Utatlán 	7	Santa Rita 	6	Junio	2023-06-14T00:00:00	2024-11-08T10:00:00	4	Temperatura máxima	26.7
99579	7	Sololá	704	Santa Lucía Utatlán 	7	Santa Rita 	6	Junio	2023-06-14T00:00:00	2024-11-08T10:00:00	3	Temperatura mínima	25.6
99580	7	Sololá	704	Santa Lucía Utatlán 	7	Santa Rita 	6	Junio	2023-06-14T00:00:00	2024-11-08T10:00:00	5	Humedad	56
99581	7	Sololá	704	Santa Lucía Utatlán 	7	Santa Rita 	6	Junio	2023-06-14T00:00:00	2024-11-08T10:00:00	6	Velocidad del viento	6.4
99582	7	Sololá	704	Santa Lucía Utatlán 	7	Santa Rita 	6	Junio	2023-06-14T00:00:00	2024-11-08T10:00:00	7	Dirección del viento	6.44
99583	7	Sololá	704	Santa Lucía Utatlán 	7	Santa Rita 	6	Junio	2023-06-14T00:00:00	2024-11-08T10:00:00	1	Precipitación	0
99584	7	Sololá	704	Santa Lucía Utatlán 	7	Santa Rita 	6	Junio	2023-06-14T00:00:00	2024-11-08T10:00:00	8	Radiación solar	815
99585	7	Sololá	704	Santa Lucía Utatlán 	7	Santa Rita 	6	Junio	2023-06-14T00:00:00	2024-11-08T11:00:00	2	Temperatura media	25.8
99586	7	Sololá	704	Santa Lucía Utatlán 	7	Santa Rita 	6	Junio	2023-06-14T00:00:00	2024-11-08T11:00:00	4	Temperatura máxima	26.5
99587	7	Sololá	704	Santa Lucía Utatlán 	7	Santa Rita 	6	Junio	2023-06-14T00:00:00	2024-11-08T11:00:00	3	Temperatura mínima	25.6
99588	7	Sololá	704	Santa Lucía Utatlán 	7	Santa Rita 	6	Junio	2023-06-14T00:00:00	2024-11-08T11:00:00	5	Humedad	68
99589	7	Sololá	704	Santa Lucía Utatlán 	7	Santa Rita 	6	Junio	2023-06-14T00:00:00	2024-11-08T11:00:00	6	Velocidad del viento	9.7
99590	7	Sololá	704	Santa Lucía Utatlán 	7	Santa Rita 	6	Junio	2023-06-14T00:00:00	2024-11-08T11:00:00	7	Dirección del viento	9.66
99591	7	Sololá	704	Santa Lucía Utatlán 	7	Santa Rita 	6	Junio	2023-06-14T00:00:00	2024-11-08T11:00:00	1	Precipitación	0
99592	7	Sololá	704	Santa Lucía Utatlán 	7	Santa Rita 	6	Junio	2023-06-14T00:00:00	2024-11-08T11:00:00	8	Radiación solar	938
99593	7	Sololá	704	Santa Lucía Utatlán 	7	Santa Rita 	6	Junio	2023-06-14T00:00:00	2024-11-08T12:00:00	2	Temperatura media	24.2
99594	7	Sololá	704	Santa Lucía Utatlán 	7	Santa Rita 	6	Junio	2023-06-14T00:00:00	2024-11-08T12:00:00	4	Temperatura máxima	26.2
99595	7	Sololá	704	Santa Lucía Utatlán 	7	Santa Rita 	6	Junio	2023-06-14T00:00:00	2024-11-08T12:00:00	3	Temperatura mínima	24.2
99596	7	Sololá	704	Santa Lucía Utatlán 	7	Santa Rita 	6	Junio	2023-06-14T00:00:00	2024-11-08T12:00:00	5	Humedad	74
99597	7	Sololá	704	Santa Lucía Utatlán 	7	Santa Rita 	6	Junio	2023-06-14T00:00:00	2024-11-08T12:00:00	6	Velocidad del viento	8
99598	7	Sololá	704	Santa Lucía Utatlán 	7	Santa Rita 	6	Junio	2023-06-14T00:00:00	2024-11-08T12:00:00	7	Dirección del viento	8.05
99599	7	Sololá	704	Santa Lucía Utatlán 	7	Santa Rita 	6	Junio	2023-06-14T00:00:00	2024-11-08T12:00:00	1	Precipitación	0
99600	7	Sololá	704	Santa Lucía Utatlán 	7	Santa Rita 	6	Junio	2023-06-14T00:00:00	2024-11-08T12:00:00	8	Radiación solar	557
99601	7	Sololá	704	Santa Lucía Utatlán 	7	Santa Rita 	6	Junio	2023-06-14T00:00:00	2024-11-08T13:00:00	2	Temperatura media	24.6
99602	7	Sololá	704	Santa Lucía Utatlán 	7	Santa Rita 	6	Junio	2023-06-14T00:00:00	2024-11-08T13:00:00	4	Temperatura máxima	24.6
99603	7	Sololá	704	Santa Lucía Utatlán 	7	Santa Rita 	6	Junio	2023-06-14T00:00:00	2024-11-08T13:00:00	3	Temperatura mínima	23.8
99604	7	Sololá	704	Santa Lucía Utatlán 	7	Santa Rita 	6	Junio	2023-06-14T00:00:00	2024-11-08T13:00:00	5	Humedad	73
99605	7	Sololá	704	Santa Lucía Utatlán 	7	Santa Rita 	6	Junio	2023-06-14T00:00:00	2024-11-08T13:00:00	6	Velocidad del viento	4.8
99606	7	Sololá	704	Santa Lucía Utatlán 	7	Santa Rita 	6	Junio	2023-06-14T00:00:00	2024-11-08T13:00:00	7	Dirección del viento	4.83
99607	7	Sololá	704	Santa Lucía Utatlán 	7	Santa Rita 	6	Junio	2023-06-14T00:00:00	2024-11-08T13:00:00	1	Precipitación	0
99608	7	Sololá	704	Santa Lucía Utatlán 	7	Santa Rita 	6	Junio	2023-06-14T00:00:00	2024-11-08T13:00:00	8	Radiación solar	272
99609	7	Sololá	704	Santa Lucía Utatlán 	7	Santa Rita 	6	Junio	2023-06-14T00:00:00	2024-11-08T14:00:00	2	Temperatura media	26.6
99610	7	Sololá	704	Santa Lucía Utatlán 	7	Santa Rita 	6	Junio	2023-06-14T00:00:00	2024-11-08T14:00:00	4	Temperatura máxima	26.6
99611	7	Sololá	704	Santa Lucía Utatlán 	7	Santa Rita 	6	Junio	2023-06-14T00:00:00	2024-11-08T14:00:00	3	Temperatura mínima	24.6
99612	7	Sololá	704	Santa Lucía Utatlán 	7	Santa Rita 	6	Junio	2023-06-14T00:00:00	2024-11-08T14:00:00	5	Humedad	66
99613	7	Sololá	704	Santa Lucía Utatlán 	7	Santa Rita 	6	Junio	2023-06-14T00:00:00	2024-11-08T14:00:00	6	Velocidad del viento	4.8
99614	7	Sololá	704	Santa Lucía Utatlán 	7	Santa Rita 	6	Junio	2023-06-14T00:00:00	2024-11-08T14:00:00	7	Dirección del viento	4.83
99615	7	Sololá	704	Santa Lucía Utatlán 	7	Santa Rita 	6	Junio	2023-06-14T00:00:00	2024-11-08T14:00:00	1	Precipitación	0
99616	7	Sololá	704	Santa Lucía Utatlán 	7	Santa Rita 	6	Junio	2023-06-14T00:00:00	2024-11-08T14:00:00	8	Radiación solar	579
99617	7	Sololá	704	Santa Lucía Utatlán 	7	Santa Rita 	6	Junio	2023-06-14T00:00:00	2024-11-08T15:00:00	2	Temperatura media	23.8
99618	7	Sololá	704	Santa Lucía Utatlán 	7	Santa Rita 	6	Junio	2023-06-14T00:00:00	2024-11-08T15:00:00	4	Temperatura máxima	26.6
99619	7	Sololá	704	Santa Lucía Utatlán 	7	Santa Rita 	6	Junio	2023-06-14T00:00:00	2024-11-08T15:00:00	3	Temperatura mínima	23.8
99620	7	Sololá	704	Santa Lucía Utatlán 	7	Santa Rita 	6	Junio	2023-06-14T00:00:00	2024-11-08T15:00:00	5	Humedad	79
99621	7	Sololá	704	Santa Lucía Utatlán 	7	Santa Rita 	6	Junio	2023-06-14T00:00:00	2024-11-08T15:00:00	6	Velocidad del viento	8
99622	7	Sololá	704	Santa Lucía Utatlán 	7	Santa Rita 	6	Junio	2023-06-14T00:00:00	2024-11-08T15:00:00	7	Dirección del viento	8.05
99623	7	Sololá	704	Santa Lucía Utatlán 	7	Santa Rita 	6	Junio	2023-06-14T00:00:00	2024-11-08T15:00:00	1	Precipitación	0
99624	7	Sololá	704	Santa Lucía Utatlán 	7	Santa Rita 	6	Junio	2023-06-14T00:00:00	2024-11-08T15:00:00	8	Radiación solar	480
99625	7	Sololá	704	Santa Lucía Utatlán 	7	Santa Rita 	6	Junio	2023-06-14T00:00:00	2024-11-08T16:00:00	2	Temperatura media	23.4
99626	7	Sololá	704	Santa Lucía Utatlán 	7	Santa Rita 	6	Junio	2023-06-14T00:00:00	2024-11-08T16:00:00	4	Temperatura máxima	25.6
99627	7	Sololá	704	Santa Lucía Utatlán 	7	Santa Rita 	6	Junio	2023-06-14T00:00:00	2024-11-08T16:00:00	3	Temperatura mínima	23.4
99628	7	Sololá	704	Santa Lucía Utatlán 	7	Santa Rita 	6	Junio	2023-06-14T00:00:00	2024-11-08T16:00:00	5	Humedad	83
99629	7	Sololá	704	Santa Lucía Utatlán 	7	Santa Rita 	6	Junio	2023-06-14T00:00:00	2024-11-08T16:00:00	6	Velocidad del viento	4.8
99630	7	Sololá	704	Santa Lucía Utatlán 	7	Santa Rita 	6	Junio	2023-06-14T00:00:00	2024-11-08T16:00:00	7	Dirección del viento	4.83
99631	7	Sololá	704	Santa Lucía Utatlán 	7	Santa Rita 	6	Junio	2023-06-14T00:00:00	2024-11-08T16:00:00	1	Precipitación	0
99632	7	Sololá	704	Santa Lucía Utatlán 	7	Santa Rita 	6	Junio	2023-06-14T00:00:00	2024-11-08T16:00:00	8	Radiación solar	297
99633	7	Sololá	704	Santa Lucía Utatlán 	7	Santa Rita 	6	Junio	2023-06-14T00:00:00	2024-11-08T17:00:00	2	Temperatura media	22.7
99634	7	Sololá	704	Santa Lucía Utatlán 	7	Santa Rita 	6	Junio	2023-06-14T00:00:00	2024-11-08T17:00:00	4	Temperatura máxima	23.6
99635	7	Sololá	704	Santa Lucía Utatlán 	7	Santa Rita 	6	Junio	2023-06-14T00:00:00	2024-11-08T17:00:00	3	Temperatura mínima	22.6
99636	7	Sololá	704	Santa Lucía Utatlán 	7	Santa Rita 	6	Junio	2023-06-14T00:00:00	2024-11-08T17:00:00	5	Humedad	84
99637	7	Sololá	704	Santa Lucía Utatlán 	7	Santa Rita 	6	Junio	2023-06-14T00:00:00	2024-11-08T17:00:00	6	Velocidad del viento	4.8
99638	7	Sololá	704	Santa Lucía Utatlán 	7	Santa Rita 	6	Junio	2023-06-14T00:00:00	2024-11-08T17:00:00	7	Dirección del viento	4.83
99639	7	Sololá	704	Santa Lucía Utatlán 	7	Santa Rita 	6	Junio	2023-06-14T00:00:00	2024-11-08T17:00:00	1	Precipitación	0
99640	7	Sololá	704	Santa Lucía Utatlán 	7	Santa Rita 	6	Junio	2023-06-14T00:00:00	2024-11-08T17:00:00	8	Radiación solar	105
99641	7	Sololá	704	Santa Lucía Utatlán 	7	Santa Rita 	6	Junio	2023-06-14T00:00:00	2024-11-08T18:00:00	2	Temperatura media	21.9
99642	7	Sololá	704	Santa Lucía Utatlán 	7	Santa Rita 	6	Junio	2023-06-14T00:00:00	2024-11-08T18:00:00	4	Temperatura máxima	22.8
99643	7	Sololá	704	Santa Lucía Utatlán 	7	Santa Rita 	6	Junio	2023-06-14T00:00:00	2024-11-08T18:00:00	3	Temperatura mínima	21.9
99644	7	Sololá	704	Santa Lucía Utatlán 	7	Santa Rita 	6	Junio	2023-06-14T00:00:00	2024-11-08T18:00:00	5	Humedad	88
99645	7	Sololá	704	Santa Lucía Utatlán 	7	Santa Rita 	6	Junio	2023-06-14T00:00:00	2024-11-08T18:00:00	6	Velocidad del viento	3.2
99646	7	Sololá	704	Santa Lucía Utatlán 	7	Santa Rita 	6	Junio	2023-06-14T00:00:00	2024-11-08T18:00:00	7	Dirección del viento	3.22
99647	7	Sololá	704	Santa Lucía Utatlán 	7	Santa Rita 	6	Junio	2023-06-14T00:00:00	2024-11-08T18:00:00	1	Precipitación	0
99648	7	Sololá	704	Santa Lucía Utatlán 	7	Santa Rita 	6	Junio	2023-06-14T00:00:00	2024-11-08T18:00:00	8	Radiación solar	43
99649	7	Sololá	704	Santa Lucía Utatlán 	7	Santa Rita 	6	Junio	2023-06-14T00:00:00	2024-11-08T19:00:00	2	Temperatura media	20.2
99650	7	Sololá	704	Santa Lucía Utatlán 	7	Santa Rita 	6	Junio	2023-06-14T00:00:00	2024-11-08T19:00:00	4	Temperatura máxima	21.9
99651	7	Sololá	704	Santa Lucía Utatlán 	7	Santa Rita 	6	Junio	2023-06-14T00:00:00	2024-11-08T19:00:00	3	Temperatura mínima	20.2
99652	7	Sololá	704	Santa Lucía Utatlán 	7	Santa Rita 	6	Junio	2023-06-14T00:00:00	2024-11-08T19:00:00	5	Humedad	84
99653	7	Sololá	704	Santa Lucía Utatlán 	7	Santa Rita 	6	Junio	2023-06-14T00:00:00	2024-11-08T19:00:00	6	Velocidad del viento	1.6
99654	7	Sololá	704	Santa Lucía Utatlán 	7	Santa Rita 	6	Junio	2023-06-14T00:00:00	2024-11-08T19:00:00	7	Dirección del viento	1.61
99655	7	Sololá	704	Santa Lucía Utatlán 	7	Santa Rita 	6	Junio	2023-06-14T00:00:00	2024-11-08T19:00:00	1	Precipitación	0
99656	7	Sololá	704	Santa Lucía Utatlán 	7	Santa Rita 	6	Junio	2023-06-14T00:00:00	2024-11-08T19:00:00	8	Radiación solar	0
99657	7	Sololá	704	Santa Lucía Utatlán 	7	Santa Rita 	6	Junio	2023-06-14T00:00:00	2024-11-08T20:00:00	2	Temperatura media	20.1
99658	7	Sololá	704	Santa Lucía Utatlán 	7	Santa Rita 	6	Junio	2023-06-14T00:00:00	2024-11-08T20:00:00	4	Temperatura máxima	20.3
99659	7	Sololá	704	Santa Lucía Utatlán 	7	Santa Rita 	6	Junio	2023-06-14T00:00:00	2024-11-08T20:00:00	3	Temperatura mínima	19.6
99660	7	Sololá	704	Santa Lucía Utatlán 	7	Santa Rita 	6	Junio	2023-06-14T00:00:00	2024-11-08T20:00:00	5	Humedad	76
99661	7	Sololá	704	Santa Lucía Utatlán 	7	Santa Rita 	6	Junio	2023-06-14T00:00:00	2024-11-08T20:00:00	6	Velocidad del viento	4.8
99662	7	Sololá	704	Santa Lucía Utatlán 	7	Santa Rita 	6	Junio	2023-06-14T00:00:00	2024-11-08T20:00:00	7	Dirección del viento	4.83
99663	7	Sololá	704	Santa Lucía Utatlán 	7	Santa Rita 	6	Junio	2023-06-14T00:00:00	2024-11-08T20:00:00	1	Precipitación	0
99664	7	Sololá	704	Santa Lucía Utatlán 	7	Santa Rita 	6	Junio	2023-06-14T00:00:00	2024-11-08T20:00:00	8	Radiación solar	0
99665	7	Sololá	704	Santa Lucía Utatlán 	7	Santa Rita 	6	Junio	2023-06-14T00:00:00	2024-11-08T21:00:00	2	Temperatura media	19.7
99666	7	Sololá	704	Santa Lucía Utatlán 	7	Santa Rita 	6	Junio	2023-06-14T00:00:00	2024-11-08T21:00:00	4	Temperatura máxima	20.7
99667	7	Sololá	704	Santa Lucía Utatlán 	7	Santa Rita 	6	Junio	2023-06-14T00:00:00	2024-11-08T21:00:00	3	Temperatura mínima	19.7
99668	7	Sololá	704	Santa Lucía Utatlán 	7	Santa Rita 	6	Junio	2023-06-14T00:00:00	2024-11-08T21:00:00	5	Humedad	80
99669	7	Sololá	704	Santa Lucía Utatlán 	7	Santa Rita 	6	Junio	2023-06-14T00:00:00	2024-11-08T21:00:00	6	Velocidad del viento	3.2
99670	7	Sololá	704	Santa Lucía Utatlán 	7	Santa Rita 	6	Junio	2023-06-14T00:00:00	2024-11-08T21:00:00	7	Dirección del viento	3.22
99671	7	Sololá	704	Santa Lucía Utatlán 	7	Santa Rita 	6	Junio	2023-06-14T00:00:00	2024-11-08T21:00:00	1	Precipitación	0
99672	7	Sololá	704	Santa Lucía Utatlán 	7	Santa Rita 	6	Junio	2023-06-14T00:00:00	2024-11-08T21:00:00	8	Radiación solar	0
99673	7	Sololá	704	Santa Lucía Utatlán 	7	Santa Rita 	6	Junio	2023-06-14T00:00:00	2024-11-08T22:00:00	2	Temperatura media	18.2
99674	7	Sololá	704	Santa Lucía Utatlán 	7	Santa Rita 	6	Junio	2023-06-14T00:00:00	2024-11-08T22:00:00	4	Temperatura máxima	19.7
99675	7	Sololá	704	Santa Lucía Utatlán 	7	Santa Rita 	6	Junio	2023-06-14T00:00:00	2024-11-08T22:00:00	3	Temperatura mínima	18.2
99676	7	Sololá	704	Santa Lucía Utatlán 	7	Santa Rita 	6	Junio	2023-06-14T00:00:00	2024-11-08T22:00:00	5	Humedad	86
99677	7	Sololá	704	Santa Lucía Utatlán 	7	Santa Rita 	6	Junio	2023-06-14T00:00:00	2024-11-08T22:00:00	6	Velocidad del viento	4.8
99678	7	Sololá	704	Santa Lucía Utatlán 	7	Santa Rita 	6	Junio	2023-06-14T00:00:00	2024-11-08T22:00:00	7	Dirección del viento	4.83
99679	7	Sololá	704	Santa Lucía Utatlán 	7	Santa Rita 	6	Junio	2023-06-14T00:00:00	2024-11-08T22:00:00	1	Precipitación	0
99680	7	Sololá	704	Santa Lucía Utatlán 	7	Santa Rita 	6	Junio	2023-06-14T00:00:00	2024-11-08T22:00:00	8	Radiación solar	0
99681	7	Sololá	704	Santa Lucía Utatlán 	7	Santa Rita 	6	Junio	2023-06-14T00:00:00	2024-11-08T23:00:00	2	Temperatura media	18.4
99682	7	Sololá	704	Santa Lucía Utatlán 	7	Santa Rita 	6	Junio	2023-06-14T00:00:00	2024-11-08T23:00:00	4	Temperatura máxima	18.8
99683	7	Sololá	704	Santa Lucía Utatlán 	7	Santa Rita 	6	Junio	2023-06-14T00:00:00	2024-11-08T23:00:00	3	Temperatura mínima	18.2
99684	7	Sololá	704	Santa Lucía Utatlán 	7	Santa Rita 	6	Junio	2023-06-14T00:00:00	2024-11-08T23:00:00	5	Humedad	89
99685	7	Sololá	704	Santa Lucía Utatlán 	7	Santa Rita 	6	Junio	2023-06-14T00:00:00	2024-11-08T23:00:00	6	Velocidad del viento	3.2
99686	7	Sololá	704	Santa Lucía Utatlán 	7	Santa Rita 	6	Junio	2023-06-14T00:00:00	2024-11-08T23:00:00	7	Dirección del viento	3.22
99687	7	Sololá	704	Santa Lucía Utatlán 	7	Santa Rita 	6	Junio	2023-06-14T00:00:00	2024-11-08T23:00:00	1	Precipitación	0
99688	7	Sololá	704	Santa Lucía Utatlán 	7	Santa Rita 	6	Junio	2023-06-14T00:00:00	2024-11-08T23:00:00	8	Radiación solar	0
99689	7	Sololá	704	Santa Lucía Utatlán 	7	Santa Rita 	6	Junio	2023-06-15T00:00:00	2024-11-08T00:00:00	2	Temperatura media	19.4
99690	7	Sololá	704	Santa Lucía Utatlán 	7	Santa Rita 	6	Junio	2023-06-15T00:00:00	2024-11-08T00:00:00	4	Temperatura máxima	19.4
99691	7	Sololá	704	Santa Lucía Utatlán 	7	Santa Rita 	6	Junio	2023-06-15T00:00:00	2024-11-08T00:00:00	3	Temperatura mínima	18.2
99692	7	Sololá	704	Santa Lucía Utatlán 	7	Santa Rita 	6	Junio	2023-06-15T00:00:00	2024-11-08T00:00:00	5	Humedad	89
99693	7	Sololá	704	Santa Lucía Utatlán 	7	Santa Rita 	6	Junio	2023-06-15T00:00:00	2024-11-08T00:00:00	6	Velocidad del viento	3.2
99694	7	Sololá	704	Santa Lucía Utatlán 	7	Santa Rita 	6	Junio	2023-06-15T00:00:00	2024-11-08T00:00:00	7	Dirección del viento	3.22
99695	7	Sololá	704	Santa Lucía Utatlán 	7	Santa Rita 	6	Junio	2023-06-15T00:00:00	2024-11-08T00:00:00	1	Precipitación	0
99696	7	Sololá	704	Santa Lucía Utatlán 	7	Santa Rita 	6	Junio	2023-06-15T00:00:00	2024-11-08T00:00:00	8	Radiación solar	0
99697	7	Sololá	704	Santa Lucía Utatlán 	7	Santa Rita 	6	Junio	2023-06-15T00:00:00	2024-11-08T01:00:00	2	Temperatura media	18.4
99698	7	Sololá	704	Santa Lucía Utatlán 	7	Santa Rita 	6	Junio	2023-06-15T00:00:00	2024-11-08T01:00:00	4	Temperatura máxima	19.9
99699	7	Sololá	704	Santa Lucía Utatlán 	7	Santa Rita 	6	Junio	2023-06-15T00:00:00	2024-11-08T01:00:00	3	Temperatura mínima	18.4
99700	7	Sololá	704	Santa Lucía Utatlán 	7	Santa Rita 	6	Junio	2023-06-15T00:00:00	2024-11-08T01:00:00	5	Humedad	89
99701	7	Sololá	704	Santa Lucía Utatlán 	7	Santa Rita 	6	Junio	2023-06-15T00:00:00	2024-11-08T01:00:00	6	Velocidad del viento	3.2
99702	7	Sololá	704	Santa Lucía Utatlán 	7	Santa Rita 	6	Junio	2023-06-15T00:00:00	2024-11-08T01:00:00	7	Dirección del viento	3.22
99703	7	Sololá	704	Santa Lucía Utatlán 	7	Santa Rita 	6	Junio	2023-06-15T00:00:00	2024-11-08T01:00:00	1	Precipitación	0
99704	7	Sololá	704	Santa Lucía Utatlán 	7	Santa Rita 	6	Junio	2023-06-15T00:00:00	2024-11-08T01:00:00	8	Radiación solar	0
99705	7	Sololá	704	Santa Lucía Utatlán 	7	Santa Rita 	6	Junio	2023-06-15T00:00:00	2024-11-08T02:00:00	2	Temperatura media	18.1
99706	7	Sololá	704	Santa Lucía Utatlán 	7	Santa Rita 	6	Junio	2023-06-15T00:00:00	2024-11-08T02:00:00	4	Temperatura máxima	18.4
99707	7	Sololá	704	Santa Lucía Utatlán 	7	Santa Rita 	6	Junio	2023-06-15T00:00:00	2024-11-08T02:00:00	3	Temperatura mínima	18
99708	7	Sololá	704	Santa Lucía Utatlán 	7	Santa Rita 	6	Junio	2023-06-15T00:00:00	2024-11-08T02:00:00	5	Humedad	90
99709	7	Sololá	704	Santa Lucía Utatlán 	7	Santa Rita 	6	Junio	2023-06-15T00:00:00	2024-11-08T02:00:00	6	Velocidad del viento	4.8
99710	7	Sololá	704	Santa Lucía Utatlán 	7	Santa Rita 	6	Junio	2023-06-15T00:00:00	2024-11-08T02:00:00	7	Dirección del viento	4.83
99711	7	Sololá	704	Santa Lucía Utatlán 	7	Santa Rita 	6	Junio	2023-06-15T00:00:00	2024-11-08T02:00:00	1	Precipitación	0
99712	7	Sololá	704	Santa Lucía Utatlán 	7	Santa Rita 	6	Junio	2023-06-15T00:00:00	2024-11-08T02:00:00	8	Radiación solar	0
99713	7	Sololá	704	Santa Lucía Utatlán 	7	Santa Rita 	6	Junio	2023-06-15T00:00:00	2024-11-08T03:00:00	2	Temperatura media	17.6
99714	7	Sololá	704	Santa Lucía Utatlán 	7	Santa Rita 	6	Junio	2023-06-15T00:00:00	2024-11-08T03:00:00	4	Temperatura máxima	18.3
99715	7	Sololá	704	Santa Lucía Utatlán 	7	Santa Rita 	6	Junio	2023-06-15T00:00:00	2024-11-08T03:00:00	3	Temperatura mínima	17.6
99716	7	Sololá	704	Santa Lucía Utatlán 	7	Santa Rita 	6	Junio	2023-06-15T00:00:00	2024-11-08T03:00:00	5	Humedad	91
99717	7	Sololá	704	Santa Lucía Utatlán 	7	Santa Rita 	6	Junio	2023-06-15T00:00:00	2024-11-08T03:00:00	6	Velocidad del viento	3.2
99718	7	Sololá	704	Santa Lucía Utatlán 	7	Santa Rita 	6	Junio	2023-06-15T00:00:00	2024-11-08T03:00:00	7	Dirección del viento	3.22
99719	7	Sololá	704	Santa Lucía Utatlán 	7	Santa Rita 	6	Junio	2023-06-15T00:00:00	2024-11-08T03:00:00	1	Precipitación	0
99720	7	Sololá	704	Santa Lucía Utatlán 	7	Santa Rita 	6	Junio	2023-06-15T00:00:00	2024-11-08T03:00:00	8	Radiación solar	0
99721	7	Sololá	704	Santa Lucía Utatlán 	7	Santa Rita 	6	Junio	2023-06-15T00:00:00	2024-11-08T04:00:00	2	Temperatura media	17.5
99722	7	Sololá	704	Santa Lucía Utatlán 	7	Santa Rita 	6	Junio	2023-06-15T00:00:00	2024-11-08T04:00:00	4	Temperatura máxima	17.6
99723	7	Sololá	704	Santa Lucía Utatlán 	7	Santa Rita 	6	Junio	2023-06-15T00:00:00	2024-11-08T04:00:00	3	Temperatura mínima	17.4
99724	7	Sololá	704	Santa Lucía Utatlán 	7	Santa Rita 	6	Junio	2023-06-15T00:00:00	2024-11-08T04:00:00	5	Humedad	91
99725	7	Sololá	704	Santa Lucía Utatlán 	7	Santa Rita 	6	Junio	2023-06-15T00:00:00	2024-11-08T04:00:00	6	Velocidad del viento	4.8
99726	7	Sololá	704	Santa Lucía Utatlán 	7	Santa Rita 	6	Junio	2023-06-15T00:00:00	2024-11-08T04:00:00	7	Dirección del viento	4.83
99727	7	Sololá	704	Santa Lucía Utatlán 	7	Santa Rita 	6	Junio	2023-06-15T00:00:00	2024-11-08T04:00:00	1	Precipitación	0
99728	7	Sololá	704	Santa Lucía Utatlán 	7	Santa Rita 	6	Junio	2023-06-15T00:00:00	2024-11-08T04:00:00	8	Radiación solar	0
99729	7	Sololá	704	Santa Lucía Utatlán 	7	Santa Rita 	6	Junio	2023-06-15T00:00:00	2024-11-08T05:00:00	2	Temperatura media	17.5
99730	7	Sololá	704	Santa Lucía Utatlán 	7	Santa Rita 	6	Junio	2023-06-15T00:00:00	2024-11-08T05:00:00	4	Temperatura máxima	17.7
99731	7	Sololá	704	Santa Lucía Utatlán 	7	Santa Rita 	6	Junio	2023-06-15T00:00:00	2024-11-08T05:00:00	3	Temperatura mínima	17.4
99732	7	Sololá	704	Santa Lucía Utatlán 	7	Santa Rita 	6	Junio	2023-06-15T00:00:00	2024-11-08T05:00:00	5	Humedad	89
99733	7	Sololá	704	Santa Lucía Utatlán 	7	Santa Rita 	6	Junio	2023-06-15T00:00:00	2024-11-08T05:00:00	6	Velocidad del viento	4.8
99734	7	Sololá	704	Santa Lucía Utatlán 	7	Santa Rita 	6	Junio	2023-06-15T00:00:00	2024-11-08T05:00:00	7	Dirección del viento	4.83
99735	7	Sololá	704	Santa Lucía Utatlán 	7	Santa Rita 	6	Junio	2023-06-15T00:00:00	2024-11-08T05:00:00	1	Precipitación	0
99736	7	Sololá	704	Santa Lucía Utatlán 	7	Santa Rita 	6	Junio	2023-06-15T00:00:00	2024-11-08T05:00:00	8	Radiación solar	0
99737	7	Sololá	704	Santa Lucía Utatlán 	7	Santa Rita 	6	Junio	2023-06-15T00:00:00	2024-11-08T06:00:00	2	Temperatura media	17.4
99738	7	Sololá	704	Santa Lucía Utatlán 	7	Santa Rita 	6	Junio	2023-06-15T00:00:00	2024-11-08T06:00:00	4	Temperatura máxima	17.5
99739	7	Sololá	704	Santa Lucía Utatlán 	7	Santa Rita 	6	Junio	2023-06-15T00:00:00	2024-11-08T06:00:00	3	Temperatura mínima	17.1
99740	7	Sololá	704	Santa Lucía Utatlán 	7	Santa Rita 	6	Junio	2023-06-15T00:00:00	2024-11-08T06:00:00	5	Humedad	88
99741	7	Sololá	704	Santa Lucía Utatlán 	7	Santa Rita 	6	Junio	2023-06-15T00:00:00	2024-11-08T06:00:00	6	Velocidad del viento	3.2
99742	7	Sololá	704	Santa Lucía Utatlán 	7	Santa Rita 	6	Junio	2023-06-15T00:00:00	2024-11-08T06:00:00	7	Dirección del viento	3.22
99743	7	Sololá	704	Santa Lucía Utatlán 	7	Santa Rita 	6	Junio	2023-06-15T00:00:00	2024-11-08T06:00:00	1	Precipitación	0
99744	7	Sololá	704	Santa Lucía Utatlán 	7	Santa Rita 	6	Junio	2023-06-15T00:00:00	2024-11-08T06:00:00	8	Radiación solar	7
99745	7	Sololá	704	Santa Lucía Utatlán 	7	Santa Rita 	6	Junio	2023-06-15T00:00:00	2024-11-08T07:00:00	2	Temperatura media	18.9
99746	7	Sololá	704	Santa Lucía Utatlán 	7	Santa Rita 	6	Junio	2023-06-15T00:00:00	2024-11-08T07:00:00	4	Temperatura máxima	18.9
99747	7	Sololá	704	Santa Lucía Utatlán 	7	Santa Rita 	6	Junio	2023-06-15T00:00:00	2024-11-08T07:00:00	3	Temperatura mínima	17.3
99748	7	Sololá	704	Santa Lucía Utatlán 	7	Santa Rita 	6	Junio	2023-06-15T00:00:00	2024-11-08T07:00:00	5	Humedad	76
99749	7	Sololá	704	Santa Lucía Utatlán 	7	Santa Rita 	6	Junio	2023-06-15T00:00:00	2024-11-08T07:00:00	6	Velocidad del viento	3.2
99750	7	Sololá	704	Santa Lucía Utatlán 	7	Santa Rita 	6	Junio	2023-06-15T00:00:00	2024-11-08T07:00:00	7	Dirección del viento	3.22
99751	7	Sololá	704	Santa Lucía Utatlán 	7	Santa Rita 	6	Junio	2023-06-15T00:00:00	2024-11-08T07:00:00	1	Precipitación	0
99752	7	Sololá	704	Santa Lucía Utatlán 	7	Santa Rita 	6	Junio	2023-06-15T00:00:00	2024-11-08T07:00:00	8	Radiación solar	70
99753	7	Sololá	704	Santa Lucía Utatlán 	7	Santa Rita 	6	Junio	2023-06-15T00:00:00	2024-11-08T08:00:00	2	Temperatura media	21.9
99754	7	Sololá	704	Santa Lucía Utatlán 	7	Santa Rita 	6	Junio	2023-06-15T00:00:00	2024-11-08T08:00:00	4	Temperatura máxima	21.9
99755	7	Sololá	704	Santa Lucía Utatlán 	7	Santa Rita 	6	Junio	2023-06-15T00:00:00	2024-11-08T08:00:00	3	Temperatura mínima	18.9
99756	7	Sololá	704	Santa Lucía Utatlán 	7	Santa Rita 	6	Junio	2023-06-15T00:00:00	2024-11-08T08:00:00	5	Humedad	76
99757	7	Sololá	704	Santa Lucía Utatlán 	7	Santa Rita 	6	Junio	2023-06-15T00:00:00	2024-11-08T08:00:00	6	Velocidad del viento	3.2
99758	7	Sololá	704	Santa Lucía Utatlán 	7	Santa Rita 	6	Junio	2023-06-15T00:00:00	2024-11-08T08:00:00	7	Dirección del viento	3.22
99759	7	Sololá	704	Santa Lucía Utatlán 	7	Santa Rita 	6	Junio	2023-06-15T00:00:00	2024-11-08T08:00:00	1	Precipitación	0
99760	7	Sololá	704	Santa Lucía Utatlán 	7	Santa Rita 	6	Junio	2023-06-15T00:00:00	2024-11-08T08:00:00	8	Radiación solar	424
99761	7	Sololá	704	Santa Lucía Utatlán 	7	Santa Rita 	6	Junio	2023-06-15T00:00:00	2024-11-08T09:00:00	2	Temperatura media	25.2
99762	7	Sololá	704	Santa Lucía Utatlán 	7	Santa Rita 	6	Junio	2023-06-15T00:00:00	2024-11-08T09:00:00	4	Temperatura máxima	25.2
99763	7	Sololá	704	Santa Lucía Utatlán 	7	Santa Rita 	6	Junio	2023-06-15T00:00:00	2024-11-08T09:00:00	3	Temperatura mínima	21.9
99764	7	Sololá	704	Santa Lucía Utatlán 	7	Santa Rita 	6	Junio	2023-06-15T00:00:00	2024-11-08T09:00:00	5	Humedad	63
99765	7	Sololá	704	Santa Lucía Utatlán 	7	Santa Rita 	6	Junio	2023-06-15T00:00:00	2024-11-08T09:00:00	6	Velocidad del viento	4.8
99766	7	Sololá	704	Santa Lucía Utatlán 	7	Santa Rita 	6	Junio	2023-06-15T00:00:00	2024-11-08T09:00:00	7	Dirección del viento	4.83
99767	7	Sololá	704	Santa Lucía Utatlán 	7	Santa Rita 	6	Junio	2023-06-15T00:00:00	2024-11-08T09:00:00	1	Precipitación	0
99768	7	Sololá	704	Santa Lucía Utatlán 	7	Santa Rita 	6	Junio	2023-06-15T00:00:00	2024-11-08T09:00:00	8	Radiación solar	646
99769	7	Sololá	704	Santa Lucía Utatlán 	7	Santa Rita 	6	Junio	2023-06-15T00:00:00	2024-11-08T10:00:00	2	Temperatura media	25.7
99770	7	Sololá	704	Santa Lucía Utatlán 	7	Santa Rita 	6	Junio	2023-06-15T00:00:00	2024-11-08T10:00:00	4	Temperatura máxima	25.8
99771	7	Sololá	704	Santa Lucía Utatlán 	7	Santa Rita 	6	Junio	2023-06-15T00:00:00	2024-11-08T10:00:00	3	Temperatura mínima	25.2
99772	7	Sololá	704	Santa Lucía Utatlán 	7	Santa Rita 	6	Junio	2023-06-15T00:00:00	2024-11-08T10:00:00	5	Humedad	56
99773	7	Sololá	704	Santa Lucía Utatlán 	7	Santa Rita 	6	Junio	2023-06-15T00:00:00	2024-11-08T10:00:00	6	Velocidad del viento	9.7
99774	7	Sololá	704	Santa Lucía Utatlán 	7	Santa Rita 	6	Junio	2023-06-15T00:00:00	2024-11-08T10:00:00	7	Dirección del viento	9.66
99775	7	Sololá	704	Santa Lucía Utatlán 	7	Santa Rita 	6	Junio	2023-06-15T00:00:00	2024-11-08T10:00:00	1	Precipitación	0
99776	7	Sololá	704	Santa Lucía Utatlán 	7	Santa Rita 	6	Junio	2023-06-15T00:00:00	2024-11-08T10:00:00	8	Radiación solar	817
99777	7	Sololá	704	Santa Lucía Utatlán 	7	Santa Rita 	6	Junio	2023-06-15T00:00:00	2024-11-08T11:00:00	2	Temperatura media	24.4
99778	7	Sololá	704	Santa Lucía Utatlán 	7	Santa Rita 	6	Junio	2023-06-15T00:00:00	2024-11-08T11:00:00	4	Temperatura máxima	26.3
99779	7	Sololá	704	Santa Lucía Utatlán 	7	Santa Rita 	6	Junio	2023-06-15T00:00:00	2024-11-08T11:00:00	3	Temperatura mínima	24.4
99780	7	Sololá	704	Santa Lucía Utatlán 	7	Santa Rita 	6	Junio	2023-06-15T00:00:00	2024-11-08T11:00:00	5	Humedad	70
99781	7	Sololá	704	Santa Lucía Utatlán 	7	Santa Rita 	6	Junio	2023-06-15T00:00:00	2024-11-08T11:00:00	6	Velocidad del viento	9.7
99782	7	Sololá	704	Santa Lucía Utatlán 	7	Santa Rita 	6	Junio	2023-06-15T00:00:00	2024-11-08T11:00:00	7	Dirección del viento	9.66
99783	7	Sololá	704	Santa Lucía Utatlán 	7	Santa Rita 	6	Junio	2023-06-15T00:00:00	2024-11-08T11:00:00	1	Precipitación	0
99784	7	Sololá	704	Santa Lucía Utatlán 	7	Santa Rita 	6	Junio	2023-06-15T00:00:00	2024-11-08T11:00:00	8	Radiación solar	666
99785	7	Sololá	704	Santa Lucía Utatlán 	7	Santa Rita 	6	Junio	2023-06-15T00:00:00	2024-11-08T12:00:00	2	Temperatura media	25.3
99786	7	Sololá	704	Santa Lucía Utatlán 	7	Santa Rita 	6	Junio	2023-06-15T00:00:00	2024-11-08T12:00:00	4	Temperatura máxima	25.4
99787	7	Sololá	704	Santa Lucía Utatlán 	7	Santa Rita 	6	Junio	2023-06-15T00:00:00	2024-11-08T12:00:00	3	Temperatura mínima	23.8
99788	7	Sololá	704	Santa Lucía Utatlán 	7	Santa Rita 	6	Junio	2023-06-15T00:00:00	2024-11-08T12:00:00	5	Humedad	67
99789	7	Sololá	704	Santa Lucía Utatlán 	7	Santa Rita 	6	Junio	2023-06-15T00:00:00	2024-11-08T12:00:00	6	Velocidad del viento	4.8
99790	7	Sololá	704	Santa Lucía Utatlán 	7	Santa Rita 	6	Junio	2023-06-15T00:00:00	2024-11-08T12:00:00	7	Dirección del viento	4.83
99791	7	Sololá	704	Santa Lucía Utatlán 	7	Santa Rita 	6	Junio	2023-06-15T00:00:00	2024-11-08T12:00:00	1	Precipitación	0
99792	7	Sololá	704	Santa Lucía Utatlán 	7	Santa Rita 	6	Junio	2023-06-15T00:00:00	2024-11-08T12:00:00	8	Radiación solar	412
99793	7	Sololá	704	Santa Lucía Utatlán 	7	Santa Rita 	6	Junio	2023-06-15T00:00:00	2024-11-08T13:00:00	2	Temperatura media	25.3
99794	7	Sololá	704	Santa Lucía Utatlán 	7	Santa Rita 	6	Junio	2023-06-15T00:00:00	2024-11-08T13:00:00	4	Temperatura máxima	25.8
99795	7	Sololá	704	Santa Lucía Utatlán 	7	Santa Rita 	6	Junio	2023-06-15T00:00:00	2024-11-08T13:00:00	3	Temperatura mínima	25.2
99796	7	Sololá	704	Santa Lucía Utatlán 	7	Santa Rita 	6	Junio	2023-06-15T00:00:00	2024-11-08T13:00:00	5	Humedad	69
99797	7	Sololá	704	Santa Lucía Utatlán 	7	Santa Rita 	6	Junio	2023-06-15T00:00:00	2024-11-08T13:00:00	6	Velocidad del viento	8
99798	7	Sololá	704	Santa Lucía Utatlán 	7	Santa Rita 	6	Junio	2023-06-15T00:00:00	2024-11-08T13:00:00	7	Dirección del viento	8.05
99799	7	Sololá	704	Santa Lucía Utatlán 	7	Santa Rita 	6	Junio	2023-06-15T00:00:00	2024-11-08T13:00:00	1	Precipitación	0
99800	7	Sololá	704	Santa Lucía Utatlán 	7	Santa Rita 	6	Junio	2023-06-15T00:00:00	2024-11-08T13:00:00	8	Radiación solar	488
99801	7	Sololá	704	Santa Lucía Utatlán 	7	Santa Rita 	6	Junio	2023-06-15T00:00:00	2024-11-08T14:00:00	2	Temperatura media	24.8
99802	7	Sololá	704	Santa Lucía Utatlán 	7	Santa Rita 	6	Junio	2023-06-15T00:00:00	2024-11-08T14:00:00	4	Temperatura máxima	26.2
99803	7	Sololá	704	Santa Lucía Utatlán 	7	Santa Rita 	6	Junio	2023-06-15T00:00:00	2024-11-08T14:00:00	3	Temperatura mínima	24.8
99804	7	Sololá	704	Santa Lucía Utatlán 	7	Santa Rita 	6	Junio	2023-06-15T00:00:00	2024-11-08T14:00:00	5	Humedad	75
99805	7	Sololá	704	Santa Lucía Utatlán 	7	Santa Rita 	6	Junio	2023-06-15T00:00:00	2024-11-08T14:00:00	6	Velocidad del viento	8
99806	7	Sololá	704	Santa Lucía Utatlán 	7	Santa Rita 	6	Junio	2023-06-15T00:00:00	2024-11-08T14:00:00	7	Dirección del viento	8.05
99807	7	Sololá	704	Santa Lucía Utatlán 	7	Santa Rita 	6	Junio	2023-06-15T00:00:00	2024-11-08T14:00:00	1	Precipitación	0
99808	7	Sololá	704	Santa Lucía Utatlán 	7	Santa Rita 	6	Junio	2023-06-15T00:00:00	2024-11-08T14:00:00	8	Radiación solar	436
99809	7	Sololá	704	Santa Lucía Utatlán 	7	Santa Rita 	6	Junio	2023-06-15T00:00:00	2024-11-08T15:00:00	2	Temperatura media	25.2
99810	7	Sololá	704	Santa Lucía Utatlán 	7	Santa Rita 	6	Junio	2023-06-15T00:00:00	2024-11-08T15:00:00	4	Temperatura máxima	25.2
99811	7	Sololá	704	Santa Lucía Utatlán 	7	Santa Rita 	6	Junio	2023-06-15T00:00:00	2024-11-08T15:00:00	3	Temperatura mínima	24.4
99812	7	Sololá	704	Santa Lucía Utatlán 	7	Santa Rita 	6	Junio	2023-06-15T00:00:00	2024-11-08T15:00:00	5	Humedad	76
99813	7	Sololá	704	Santa Lucía Utatlán 	7	Santa Rita 	6	Junio	2023-06-15T00:00:00	2024-11-08T15:00:00	6	Velocidad del viento	6.4
99814	7	Sololá	704	Santa Lucía Utatlán 	7	Santa Rita 	6	Junio	2023-06-15T00:00:00	2024-11-08T15:00:00	7	Dirección del viento	6.44
99815	7	Sololá	704	Santa Lucía Utatlán 	7	Santa Rita 	6	Junio	2023-06-15T00:00:00	2024-11-08T15:00:00	1	Precipitación	0
99816	7	Sololá	704	Santa Lucía Utatlán 	7	Santa Rita 	6	Junio	2023-06-15T00:00:00	2024-11-08T15:00:00	8	Radiación solar	596
99817	7	Sololá	704	Santa Lucía Utatlán 	7	Santa Rita 	6	Junio	2023-06-15T00:00:00	2024-11-08T16:00:00	2	Temperatura media	25.7
99818	7	Sololá	704	Santa Lucía Utatlán 	7	Santa Rita 	6	Junio	2023-06-15T00:00:00	2024-11-08T16:00:00	4	Temperatura máxima	25.7
99819	7	Sololá	704	Santa Lucía Utatlán 	7	Santa Rita 	6	Junio	2023-06-15T00:00:00	2024-11-08T16:00:00	3	Temperatura mínima	24.9
99820	7	Sololá	704	Santa Lucía Utatlán 	7	Santa Rita 	6	Junio	2023-06-15T00:00:00	2024-11-08T16:00:00	5	Humedad	74
99821	7	Sololá	704	Santa Lucía Utatlán 	7	Santa Rita 	6	Junio	2023-06-15T00:00:00	2024-11-08T16:00:00	6	Velocidad del viento	6.4
99822	7	Sololá	704	Santa Lucía Utatlán 	7	Santa Rita 	6	Junio	2023-06-15T00:00:00	2024-11-08T16:00:00	7	Dirección del viento	6.44
99823	7	Sololá	704	Santa Lucía Utatlán 	7	Santa Rita 	6	Junio	2023-06-15T00:00:00	2024-11-08T16:00:00	1	Precipitación	0
99824	7	Sololá	704	Santa Lucía Utatlán 	7	Santa Rita 	6	Junio	2023-06-15T00:00:00	2024-11-08T16:00:00	8	Radiación solar	379
99825	7	Sololá	704	Santa Lucía Utatlán 	7	Santa Rita 	6	Junio	2023-06-15T00:00:00	2024-11-08T17:00:00	2	Temperatura media	22.8
99826	7	Sololá	704	Santa Lucía Utatlán 	7	Santa Rita 	6	Junio	2023-06-15T00:00:00	2024-11-08T17:00:00	4	Temperatura máxima	26.1
99827	7	Sololá	704	Santa Lucía Utatlán 	7	Santa Rita 	6	Junio	2023-06-15T00:00:00	2024-11-08T17:00:00	3	Temperatura mínima	22.8
99828	7	Sololá	704	Santa Lucía Utatlán 	7	Santa Rita 	6	Junio	2023-06-15T00:00:00	2024-11-08T17:00:00	5	Humedad	86
99829	7	Sololá	704	Santa Lucía Utatlán 	7	Santa Rita 	6	Junio	2023-06-15T00:00:00	2024-11-08T17:00:00	6	Velocidad del viento	6.4
99830	7	Sololá	704	Santa Lucía Utatlán 	7	Santa Rita 	6	Junio	2023-06-15T00:00:00	2024-11-08T17:00:00	7	Dirección del viento	6.44
99831	7	Sololá	704	Santa Lucía Utatlán 	7	Santa Rita 	6	Junio	2023-06-15T00:00:00	2024-11-08T17:00:00	1	Precipitación	0
99832	7	Sololá	704	Santa Lucía Utatlán 	7	Santa Rita 	6	Junio	2023-06-15T00:00:00	2024-11-08T17:00:00	8	Radiación solar	187
99833	7	Sololá	704	Santa Lucía Utatlán 	7	Santa Rita 	6	Junio	2023-06-15T00:00:00	2024-11-08T18:00:00	2	Temperatura media	22.4
99834	7	Sololá	704	Santa Lucía Utatlán 	7	Santa Rita 	6	Junio	2023-06-15T00:00:00	2024-11-08T18:00:00	4	Temperatura máxima	23.2
99835	7	Sololá	704	Santa Lucía Utatlán 	7	Santa Rita 	6	Junio	2023-06-15T00:00:00	2024-11-08T18:00:00	3	Temperatura mínima	22.4
99836	7	Sololá	704	Santa Lucía Utatlán 	7	Santa Rita 	6	Junio	2023-06-15T00:00:00	2024-11-08T18:00:00	5	Humedad	88
99837	7	Sololá	704	Santa Lucía Utatlán 	7	Santa Rita 	6	Junio	2023-06-15T00:00:00	2024-11-08T18:00:00	6	Velocidad del viento	4.8
99838	7	Sololá	704	Santa Lucía Utatlán 	7	Santa Rita 	6	Junio	2023-06-15T00:00:00	2024-11-08T18:00:00	7	Dirección del viento	4.83
99839	7	Sololá	704	Santa Lucía Utatlán 	7	Santa Rita 	6	Junio	2023-06-15T00:00:00	2024-11-08T18:00:00	1	Precipitación	0
99840	7	Sololá	704	Santa Lucía Utatlán 	7	Santa Rita 	6	Junio	2023-06-15T00:00:00	2024-11-08T18:00:00	8	Radiación solar	87
99841	7	Sololá	704	Santa Lucía Utatlán 	7	Santa Rita 	6	Junio	2023-06-15T00:00:00	2024-11-08T19:00:00	2	Temperatura media	21.8
99842	7	Sololá	704	Santa Lucía Utatlán 	7	Santa Rita 	6	Junio	2023-06-15T00:00:00	2024-11-08T19:00:00	4	Temperatura máxima	22.4
99843	7	Sololá	704	Santa Lucía Utatlán 	7	Santa Rita 	6	Junio	2023-06-15T00:00:00	2024-11-08T19:00:00	3	Temperatura mínima	21.8
99844	7	Sololá	704	Santa Lucía Utatlán 	7	Santa Rita 	6	Junio	2023-06-15T00:00:00	2024-11-08T19:00:00	5	Humedad	90
99845	7	Sololá	704	Santa Lucía Utatlán 	7	Santa Rita 	6	Junio	2023-06-15T00:00:00	2024-11-08T19:00:00	6	Velocidad del viento	3.2
99846	7	Sololá	704	Santa Lucía Utatlán 	7	Santa Rita 	6	Junio	2023-06-15T00:00:00	2024-11-08T19:00:00	7	Dirección del viento	3.22
99847	7	Sololá	704	Santa Lucía Utatlán 	7	Santa Rita 	6	Junio	2023-06-15T00:00:00	2024-11-08T19:00:00	1	Precipitación	0
99848	7	Sololá	704	Santa Lucía Utatlán 	7	Santa Rita 	6	Junio	2023-06-15T00:00:00	2024-11-08T19:00:00	8	Radiación solar	0
99849	7	Sololá	704	Santa Lucía Utatlán 	7	Santa Rita 	6	Junio	2023-06-15T00:00:00	2024-11-08T20:00:00	2	Temperatura media	21.4
99850	7	Sololá	704	Santa Lucía Utatlán 	7	Santa Rita 	6	Junio	2023-06-15T00:00:00	2024-11-08T20:00:00	4	Temperatura máxima	21.9
99851	7	Sololá	704	Santa Lucía Utatlán 	7	Santa Rita 	6	Junio	2023-06-15T00:00:00	2024-11-08T20:00:00	3	Temperatura mínima	21.4
99852	7	Sololá	704	Santa Lucía Utatlán 	7	Santa Rita 	6	Junio	2023-06-15T00:00:00	2024-11-08T20:00:00	5	Humedad	93
99853	7	Sololá	704	Santa Lucía Utatlán 	7	Santa Rita 	6	Junio	2023-06-15T00:00:00	2024-11-08T20:00:00	6	Velocidad del viento	3.2
99854	7	Sololá	704	Santa Lucía Utatlán 	7	Santa Rita 	6	Junio	2023-06-15T00:00:00	2024-11-08T20:00:00	7	Dirección del viento	3.22
99855	7	Sololá	704	Santa Lucía Utatlán 	7	Santa Rita 	6	Junio	2023-06-15T00:00:00	2024-11-08T20:00:00	1	Precipitación	0
99856	7	Sololá	704	Santa Lucía Utatlán 	7	Santa Rita 	6	Junio	2023-06-15T00:00:00	2024-11-08T20:00:00	8	Radiación solar	0
99857	7	Sololá	704	Santa Lucía Utatlán 	7	Santa Rita 	6	Junio	2023-06-15T00:00:00	2024-11-08T21:00:00	2	Temperatura media	20.6
99858	7	Sololá	704	Santa Lucía Utatlán 	7	Santa Rita 	6	Junio	2023-06-15T00:00:00	2024-11-08T21:00:00	4	Temperatura máxima	21.4
99859	7	Sololá	704	Santa Lucía Utatlán 	7	Santa Rita 	6	Junio	2023-06-15T00:00:00	2024-11-08T21:00:00	3	Temperatura mínima	20.6
99860	7	Sololá	704	Santa Lucía Utatlán 	7	Santa Rita 	6	Junio	2023-06-15T00:00:00	2024-11-08T21:00:00	5	Humedad	94
99861	7	Sololá	704	Santa Lucía Utatlán 	7	Santa Rita 	6	Junio	2023-06-15T00:00:00	2024-11-08T21:00:00	6	Velocidad del viento	4.8
99862	7	Sololá	704	Santa Lucía Utatlán 	7	Santa Rita 	6	Junio	2023-06-15T00:00:00	2024-11-08T21:00:00	7	Dirección del viento	4.83
99863	7	Sololá	704	Santa Lucía Utatlán 	7	Santa Rita 	6	Junio	2023-06-15T00:00:00	2024-11-08T21:00:00	1	Precipitación	5
99864	7	Sololá	704	Santa Lucía Utatlán 	7	Santa Rita 	6	Junio	2023-06-15T00:00:00	2024-11-08T21:00:00	8	Radiación solar	0
99865	7	Sololá	704	Santa Lucía Utatlán 	7	Santa Rita 	6	Junio	2023-06-15T00:00:00	2024-11-08T22:00:00	2	Temperatura media	19.4
99866	7	Sololá	704	Santa Lucía Utatlán 	7	Santa Rita 	6	Junio	2023-06-15T00:00:00	2024-11-08T22:00:00	4	Temperatura máxima	20.6
99867	7	Sololá	704	Santa Lucía Utatlán 	7	Santa Rita 	6	Junio	2023-06-15T00:00:00	2024-11-08T22:00:00	3	Temperatura mínima	19.4
99868	7	Sololá	704	Santa Lucía Utatlán 	7	Santa Rita 	6	Junio	2023-06-15T00:00:00	2024-11-08T22:00:00	5	Humedad	95
99869	7	Sololá	704	Santa Lucía Utatlán 	7	Santa Rita 	6	Junio	2023-06-15T00:00:00	2024-11-08T22:00:00	6	Velocidad del viento	3.2
99870	7	Sololá	704	Santa Lucía Utatlán 	7	Santa Rita 	6	Junio	2023-06-15T00:00:00	2024-11-08T22:00:00	7	Dirección del viento	3.22
99871	7	Sololá	704	Santa Lucía Utatlán 	7	Santa Rita 	6	Junio	2023-06-15T00:00:00	2024-11-08T22:00:00	1	Precipitación	4.8
99872	7	Sololá	704	Santa Lucía Utatlán 	7	Santa Rita 	6	Junio	2023-06-15T00:00:00	2024-11-08T22:00:00	8	Radiación solar	0
99873	7	Sololá	704	Santa Lucía Utatlán 	7	Santa Rita 	6	Junio	2023-06-15T00:00:00	2024-11-08T23:00:00	2	Temperatura media	20
99874	7	Sololá	704	Santa Lucía Utatlán 	7	Santa Rita 	6	Junio	2023-06-15T00:00:00	2024-11-08T23:00:00	4	Temperatura máxima	20
99875	7	Sololá	704	Santa Lucía Utatlán 	7	Santa Rita 	6	Junio	2023-06-15T00:00:00	2024-11-08T23:00:00	3	Temperatura mínima	19.3
99876	7	Sololá	704	Santa Lucía Utatlán 	7	Santa Rita 	6	Junio	2023-06-15T00:00:00	2024-11-08T23:00:00	5	Humedad	92
99877	7	Sololá	704	Santa Lucía Utatlán 	7	Santa Rita 	6	Junio	2023-06-15T00:00:00	2024-11-08T23:00:00	6	Velocidad del viento	3.2
99878	7	Sololá	704	Santa Lucía Utatlán 	7	Santa Rita 	6	Junio	2023-06-15T00:00:00	2024-11-08T23:00:00	7	Dirección del viento	3.22
99879	7	Sololá	704	Santa Lucía Utatlán 	7	Santa Rita 	6	Junio	2023-06-15T00:00:00	2024-11-08T23:00:00	1	Precipitación	1.8
99880	7	Sololá	704	Santa Lucía Utatlán 	7	Santa Rita 	6	Junio	2023-06-15T00:00:00	2024-11-08T23:00:00	8	Radiación solar	0
99881	7	Sololá	704	Santa Lucía Utatlán 	7	Santa Rita 	6	Junio	2023-06-16T00:00:00	2024-11-08T00:00:00	2	Temperatura media	19
99882	7	Sololá	704	Santa Lucía Utatlán 	7	Santa Rita 	6	Junio	2023-06-16T00:00:00	2024-11-08T00:00:00	4	Temperatura máxima	20.4
99883	7	Sololá	704	Santa Lucía Utatlán 	7	Santa Rita 	6	Junio	2023-06-16T00:00:00	2024-11-08T00:00:00	3	Temperatura mínima	19
99884	7	Sololá	704	Santa Lucía Utatlán 	7	Santa Rita 	6	Junio	2023-06-16T00:00:00	2024-11-08T00:00:00	5	Humedad	91
99885	7	Sololá	704	Santa Lucía Utatlán 	7	Santa Rita 	6	Junio	2023-06-16T00:00:00	2024-11-08T00:00:00	6	Velocidad del viento	3.2
99886	7	Sololá	704	Santa Lucía Utatlán 	7	Santa Rita 	6	Junio	2023-06-16T00:00:00	2024-11-08T00:00:00	7	Dirección del viento	3.22
99887	7	Sololá	704	Santa Lucía Utatlán 	7	Santa Rita 	6	Junio	2023-06-16T00:00:00	2024-11-08T00:00:00	1	Precipitación	0
99888	7	Sololá	704	Santa Lucía Utatlán 	7	Santa Rita 	6	Junio	2023-06-16T00:00:00	2024-11-08T00:00:00	8	Radiación solar	0
99889	7	Sololá	704	Santa Lucía Utatlán 	7	Santa Rita 	6	Junio	2023-06-16T00:00:00	2024-11-08T01:00:00	2	Temperatura media	18.1
99890	7	Sololá	704	Santa Lucía Utatlán 	7	Santa Rita 	6	Junio	2023-06-16T00:00:00	2024-11-08T01:00:00	4	Temperatura máxima	19
99891	7	Sololá	704	Santa Lucía Utatlán 	7	Santa Rita 	6	Junio	2023-06-16T00:00:00	2024-11-08T01:00:00	3	Temperatura mínima	18.1
99892	7	Sololá	704	Santa Lucía Utatlán 	7	Santa Rita 	6	Junio	2023-06-16T00:00:00	2024-11-08T01:00:00	5	Humedad	94
99893	7	Sololá	704	Santa Lucía Utatlán 	7	Santa Rita 	6	Junio	2023-06-16T00:00:00	2024-11-08T01:00:00	6	Velocidad del viento	1.6
99894	7	Sololá	704	Santa Lucía Utatlán 	7	Santa Rita 	6	Junio	2023-06-16T00:00:00	2024-11-08T01:00:00	7	Dirección del viento	1.61
99895	7	Sololá	704	Santa Lucía Utatlán 	7	Santa Rita 	6	Junio	2023-06-16T00:00:00	2024-11-08T01:00:00	1	Precipitación	0
99896	7	Sololá	704	Santa Lucía Utatlán 	7	Santa Rita 	6	Junio	2023-06-16T00:00:00	2024-11-08T01:00:00	8	Radiación solar	0
99897	7	Sololá	704	Santa Lucía Utatlán 	7	Santa Rita 	6	Junio	2023-06-16T00:00:00	2024-11-08T02:00:00	2	Temperatura media	18.7
99898	7	Sololá	704	Santa Lucía Utatlán 	7	Santa Rita 	6	Junio	2023-06-16T00:00:00	2024-11-08T02:00:00	4	Temperatura máxima	18.7
99899	7	Sololá	704	Santa Lucía Utatlán 	7	Santa Rita 	6	Junio	2023-06-16T00:00:00	2024-11-08T02:00:00	3	Temperatura mínima	18.1
99900	7	Sololá	704	Santa Lucía Utatlán 	7	Santa Rita 	6	Junio	2023-06-16T00:00:00	2024-11-08T02:00:00	5	Humedad	96
99901	7	Sololá	704	Santa Lucía Utatlán 	7	Santa Rita 	6	Junio	2023-06-16T00:00:00	2024-11-08T02:00:00	6	Velocidad del viento	1.6
99902	7	Sololá	704	Santa Lucía Utatlán 	7	Santa Rita 	6	Junio	2023-06-16T00:00:00	2024-11-08T02:00:00	7	Dirección del viento	1.61
99903	7	Sololá	704	Santa Lucía Utatlán 	7	Santa Rita 	6	Junio	2023-06-16T00:00:00	2024-11-08T02:00:00	1	Precipitación	0
99904	7	Sololá	704	Santa Lucía Utatlán 	7	Santa Rita 	6	Junio	2023-06-16T00:00:00	2024-11-08T02:00:00	8	Radiación solar	0
99905	7	Sololá	704	Santa Lucía Utatlán 	7	Santa Rita 	6	Junio	2023-06-16T00:00:00	2024-11-08T03:00:00	2	Temperatura media	18.1
99906	7	Sololá	704	Santa Lucía Utatlán 	7	Santa Rita 	6	Junio	2023-06-16T00:00:00	2024-11-08T03:00:00	4	Temperatura máxima	18.9
99907	7	Sololá	704	Santa Lucía Utatlán 	7	Santa Rita 	6	Junio	2023-06-16T00:00:00	2024-11-08T03:00:00	3	Temperatura mínima	18.1
99908	7	Sololá	704	Santa Lucía Utatlán 	7	Santa Rita 	6	Junio	2023-06-16T00:00:00	2024-11-08T03:00:00	5	Humedad	94
99909	7	Sololá	704	Santa Lucía Utatlán 	7	Santa Rita 	6	Junio	2023-06-16T00:00:00	2024-11-08T03:00:00	6	Velocidad del viento	3.2
99910	7	Sololá	704	Santa Lucía Utatlán 	7	Santa Rita 	6	Junio	2023-06-16T00:00:00	2024-11-08T03:00:00	7	Dirección del viento	3.22
99911	7	Sololá	704	Santa Lucía Utatlán 	7	Santa Rita 	6	Junio	2023-06-16T00:00:00	2024-11-08T03:00:00	1	Precipitación	0
99912	7	Sololá	704	Santa Lucía Utatlán 	7	Santa Rita 	6	Junio	2023-06-16T00:00:00	2024-11-08T03:00:00	8	Radiación solar	0
99913	7	Sololá	704	Santa Lucía Utatlán 	7	Santa Rita 	6	Junio	2023-06-16T00:00:00	2024-11-08T04:00:00	2	Temperatura media	17.4
99914	7	Sololá	704	Santa Lucía Utatlán 	7	Santa Rita 	6	Junio	2023-06-16T00:00:00	2024-11-08T04:00:00	4	Temperatura máxima	18.1
99915	7	Sololá	704	Santa Lucía Utatlán 	7	Santa Rita 	6	Junio	2023-06-16T00:00:00	2024-11-08T04:00:00	3	Temperatura mínima	17.4
99916	7	Sololá	704	Santa Lucía Utatlán 	7	Santa Rita 	6	Junio	2023-06-16T00:00:00	2024-11-08T04:00:00	5	Humedad	93
99917	7	Sololá	704	Santa Lucía Utatlán 	7	Santa Rita 	6	Junio	2023-06-16T00:00:00	2024-11-08T04:00:00	6	Velocidad del viento	4.8
99918	7	Sololá	704	Santa Lucía Utatlán 	7	Santa Rita 	6	Junio	2023-06-16T00:00:00	2024-11-08T04:00:00	7	Dirección del viento	4.83
99919	7	Sololá	704	Santa Lucía Utatlán 	7	Santa Rita 	6	Junio	2023-06-16T00:00:00	2024-11-08T04:00:00	1	Precipitación	0
99920	7	Sololá	704	Santa Lucía Utatlán 	7	Santa Rita 	6	Junio	2023-06-16T00:00:00	2024-11-08T04:00:00	8	Radiación solar	0
99921	7	Sololá	704	Santa Lucía Utatlán 	7	Santa Rita 	6	Junio	2023-06-16T00:00:00	2024-11-08T05:00:00	2	Temperatura media	17.3
99922	7	Sololá	704	Santa Lucía Utatlán 	7	Santa Rita 	6	Junio	2023-06-16T00:00:00	2024-11-08T05:00:00	4	Temperatura máxima	17.5
99923	7	Sololá	704	Santa Lucía Utatlán 	7	Santa Rita 	6	Junio	2023-06-16T00:00:00	2024-11-08T05:00:00	3	Temperatura mínima	17.1
99924	7	Sololá	704	Santa Lucía Utatlán 	7	Santa Rita 	6	Junio	2023-06-16T00:00:00	2024-11-08T05:00:00	5	Humedad	96
99925	7	Sololá	704	Santa Lucía Utatlán 	7	Santa Rita 	6	Junio	2023-06-16T00:00:00	2024-11-08T05:00:00	6	Velocidad del viento	1.6
99926	7	Sololá	704	Santa Lucía Utatlán 	7	Santa Rita 	6	Junio	2023-06-16T00:00:00	2024-11-08T05:00:00	7	Dirección del viento	1.61
99927	7	Sololá	704	Santa Lucía Utatlán 	7	Santa Rita 	6	Junio	2023-06-16T00:00:00	2024-11-08T05:00:00	1	Precipitación	0
99928	7	Sololá	704	Santa Lucía Utatlán 	7	Santa Rita 	6	Junio	2023-06-16T00:00:00	2024-11-08T05:00:00	8	Radiación solar	0
99929	7	Sololá	704	Santa Lucía Utatlán 	7	Santa Rita 	6	Junio	2023-06-16T00:00:00	2024-11-08T06:00:00	2	Temperatura media	18.2
99930	7	Sololá	704	Santa Lucía Utatlán 	7	Santa Rita 	6	Junio	2023-06-16T00:00:00	2024-11-08T06:00:00	4	Temperatura máxima	18.2
99931	7	Sololá	704	Santa Lucía Utatlán 	7	Santa Rita 	6	Junio	2023-06-16T00:00:00	2024-11-08T06:00:00	3	Temperatura mínima	17.3
99932	7	Sololá	704	Santa Lucía Utatlán 	7	Santa Rita 	6	Junio	2023-06-16T00:00:00	2024-11-08T06:00:00	5	Humedad	96
99933	7	Sololá	704	Santa Lucía Utatlán 	7	Santa Rita 	6	Junio	2023-06-16T00:00:00	2024-11-08T06:00:00	6	Velocidad del viento	0
99934	7	Sololá	704	Santa Lucía Utatlán 	7	Santa Rita 	6	Junio	2023-06-16T00:00:00	2024-11-08T06:00:00	7	Dirección del viento	0
99935	7	Sololá	704	Santa Lucía Utatlán 	7	Santa Rita 	6	Junio	2023-06-16T00:00:00	2024-11-08T06:00:00	1	Precipitación	0
99936	7	Sololá	704	Santa Lucía Utatlán 	7	Santa Rita 	6	Junio	2023-06-16T00:00:00	2024-11-08T06:00:00	8	Radiación solar	4
99937	7	Sololá	704	Santa Lucía Utatlán 	7	Santa Rita 	6	Junio	2023-06-16T00:00:00	2024-11-08T07:00:00	2	Temperatura media	18.3
99938	7	Sololá	704	Santa Lucía Utatlán 	7	Santa Rita 	6	Junio	2023-06-16T00:00:00	2024-11-08T07:00:00	4	Temperatura máxima	18.3
99939	7	Sololá	704	Santa Lucía Utatlán 	7	Santa Rita 	6	Junio	2023-06-16T00:00:00	2024-11-08T07:00:00	3	Temperatura mínima	17.6
99940	7	Sololá	704	Santa Lucía Utatlán 	7	Santa Rita 	6	Junio	2023-06-16T00:00:00	2024-11-08T07:00:00	5	Humedad	93
99941	7	Sololá	704	Santa Lucía Utatlán 	7	Santa Rita 	6	Junio	2023-06-16T00:00:00	2024-11-08T07:00:00	6	Velocidad del viento	1.6
99942	7	Sololá	704	Santa Lucía Utatlán 	7	Santa Rita 	6	Junio	2023-06-16T00:00:00	2024-11-08T07:00:00	7	Dirección del viento	1.61
99943	7	Sololá	704	Santa Lucía Utatlán 	7	Santa Rita 	6	Junio	2023-06-16T00:00:00	2024-11-08T07:00:00	1	Precipitación	0
99944	7	Sololá	704	Santa Lucía Utatlán 	7	Santa Rita 	6	Junio	2023-06-16T00:00:00	2024-11-08T07:00:00	8	Radiación solar	54
99945	7	Sololá	704	Santa Lucía Utatlán 	7	Santa Rita 	6	Junio	2023-06-16T00:00:00	2024-11-08T08:00:00	2	Temperatura media	22.2
99946	7	Sololá	704	Santa Lucía Utatlán 	7	Santa Rita 	6	Junio	2023-06-16T00:00:00	2024-11-08T08:00:00	4	Temperatura máxima	22.3
99947	7	Sololá	704	Santa Lucía Utatlán 	7	Santa Rita 	6	Junio	2023-06-16T00:00:00	2024-11-08T08:00:00	3	Temperatura mínima	18.4
99948	7	Sololá	704	Santa Lucía Utatlán 	7	Santa Rita 	6	Junio	2023-06-16T00:00:00	2024-11-08T08:00:00	5	Humedad	79
99949	7	Sololá	704	Santa Lucía Utatlán 	7	Santa Rita 	6	Junio	2023-06-16T00:00:00	2024-11-08T08:00:00	6	Velocidad del viento	3.2
99950	7	Sololá	704	Santa Lucía Utatlán 	7	Santa Rita 	6	Junio	2023-06-16T00:00:00	2024-11-08T08:00:00	7	Dirección del viento	3.22
99951	7	Sololá	704	Santa Lucía Utatlán 	7	Santa Rita 	6	Junio	2023-06-16T00:00:00	2024-11-08T08:00:00	1	Precipitación	0.2
99952	7	Sololá	704	Santa Lucía Utatlán 	7	Santa Rita 	6	Junio	2023-06-16T00:00:00	2024-11-08T08:00:00	8	Radiación solar	397
99953	7	Sololá	704	Santa Lucía Utatlán 	7	Santa Rita 	6	Junio	2023-06-16T00:00:00	2024-11-08T09:00:00	2	Temperatura media	25.1
99954	7	Sololá	704	Santa Lucía Utatlán 	7	Santa Rita 	6	Junio	2023-06-16T00:00:00	2024-11-08T09:00:00	4	Temperatura máxima	25.2
99955	7	Sololá	704	Santa Lucía Utatlán 	7	Santa Rita 	6	Junio	2023-06-16T00:00:00	2024-11-08T09:00:00	3	Temperatura mínima	22.2
99956	7	Sololá	704	Santa Lucía Utatlán 	7	Santa Rita 	6	Junio	2023-06-16T00:00:00	2024-11-08T09:00:00	5	Humedad	57
99957	7	Sololá	704	Santa Lucía Utatlán 	7	Santa Rita 	6	Junio	2023-06-16T00:00:00	2024-11-08T09:00:00	6	Velocidad del viento	4.8
99958	7	Sololá	704	Santa Lucía Utatlán 	7	Santa Rita 	6	Junio	2023-06-16T00:00:00	2024-11-08T09:00:00	7	Dirección del viento	4.83
99959	7	Sololá	704	Santa Lucía Utatlán 	7	Santa Rita 	6	Junio	2023-06-16T00:00:00	2024-11-08T09:00:00	1	Precipitación	0
99960	7	Sololá	704	Santa Lucía Utatlán 	7	Santa Rita 	6	Junio	2023-06-16T00:00:00	2024-11-08T09:00:00	8	Radiación solar	652
99961	7	Sololá	704	Santa Lucía Utatlán 	7	Santa Rita 	6	Junio	2023-06-16T00:00:00	2024-11-08T10:00:00	2	Temperatura media	25.7
99962	7	Sololá	704	Santa Lucía Utatlán 	7	Santa Rita 	6	Junio	2023-06-16T00:00:00	2024-11-08T10:00:00	4	Temperatura máxima	25.7
99963	7	Sololá	704	Santa Lucía Utatlán 	7	Santa Rita 	6	Junio	2023-06-16T00:00:00	2024-11-08T10:00:00	3	Temperatura mínima	25.1
99964	7	Sololá	704	Santa Lucía Utatlán 	7	Santa Rita 	6	Junio	2023-06-16T00:00:00	2024-11-08T10:00:00	5	Humedad	61
99965	7	Sololá	704	Santa Lucía Utatlán 	7	Santa Rita 	6	Junio	2023-06-16T00:00:00	2024-11-08T10:00:00	6	Velocidad del viento	8
99966	7	Sololá	704	Santa Lucía Utatlán 	7	Santa Rita 	6	Junio	2023-06-16T00:00:00	2024-11-08T10:00:00	7	Dirección del viento	8.05
99967	7	Sololá	704	Santa Lucía Utatlán 	7	Santa Rita 	6	Junio	2023-06-16T00:00:00	2024-11-08T10:00:00	1	Precipitación	0
99968	7	Sololá	704	Santa Lucía Utatlán 	7	Santa Rita 	6	Junio	2023-06-16T00:00:00	2024-11-08T10:00:00	8	Radiación solar	835
99969	7	Sololá	704	Santa Lucía Utatlán 	7	Santa Rita 	6	Junio	2023-06-16T00:00:00	2024-11-08T11:00:00	2	Temperatura media	25.5
99970	7	Sololá	704	Santa Lucía Utatlán 	7	Santa Rita 	6	Junio	2023-06-16T00:00:00	2024-11-08T11:00:00	4	Temperatura máxima	26.3
99971	7	Sololá	704	Santa Lucía Utatlán 	7	Santa Rita 	6	Junio	2023-06-16T00:00:00	2024-11-08T11:00:00	3	Temperatura mínima	25.2
99972	7	Sololá	704	Santa Lucía Utatlán 	7	Santa Rita 	6	Junio	2023-06-16T00:00:00	2024-11-08T11:00:00	5	Humedad	63
99973	7	Sololá	704	Santa Lucía Utatlán 	7	Santa Rita 	6	Junio	2023-06-16T00:00:00	2024-11-08T11:00:00	6	Velocidad del viento	8
99974	7	Sololá	704	Santa Lucía Utatlán 	7	Santa Rita 	6	Junio	2023-06-16T00:00:00	2024-11-08T11:00:00	7	Dirección del viento	8.05
99975	7	Sololá	704	Santa Lucía Utatlán 	7	Santa Rita 	6	Junio	2023-06-16T00:00:00	2024-11-08T11:00:00	1	Precipitación	0
99976	7	Sololá	704	Santa Lucía Utatlán 	7	Santa Rita 	6	Junio	2023-06-16T00:00:00	2024-11-08T11:00:00	8	Radiación solar	919
99977	7	Sololá	704	Santa Lucía Utatlán 	7	Santa Rita 	6	Junio	2023-06-16T00:00:00	2024-11-08T12:00:00	2	Temperatura media	24.8
99978	7	Sololá	704	Santa Lucía Utatlán 	7	Santa Rita 	6	Junio	2023-06-16T00:00:00	2024-11-08T12:00:00	4	Temperatura máxima	25.8
99979	7	Sololá	704	Santa Lucía Utatlán 	7	Santa Rita 	6	Junio	2023-06-16T00:00:00	2024-11-08T12:00:00	3	Temperatura mínima	24.8
99980	7	Sololá	704	Santa Lucía Utatlán 	7	Santa Rita 	6	Junio	2023-06-16T00:00:00	2024-11-08T12:00:00	5	Humedad	64
99981	7	Sololá	704	Santa Lucía Utatlán 	7	Santa Rita 	6	Junio	2023-06-16T00:00:00	2024-11-08T12:00:00	6	Velocidad del viento	11.3
99982	7	Sololá	704	Santa Lucía Utatlán 	7	Santa Rita 	6	Junio	2023-06-16T00:00:00	2024-11-08T12:00:00	7	Dirección del viento	11.27
99983	7	Sololá	704	Santa Lucía Utatlán 	7	Santa Rita 	6	Junio	2023-06-16T00:00:00	2024-11-08T12:00:00	1	Precipitación	0
99984	7	Sololá	704	Santa Lucía Utatlán 	7	Santa Rita 	6	Junio	2023-06-16T00:00:00	2024-11-08T12:00:00	8	Radiación solar	934
99985	7	Sololá	704	Santa Lucía Utatlán 	7	Santa Rita 	6	Junio	2023-06-16T00:00:00	2024-11-08T13:00:00	2	Temperatura media	25.8
99986	7	Sololá	704	Santa Lucía Utatlán 	7	Santa Rita 	6	Junio	2023-06-16T00:00:00	2024-11-08T13:00:00	4	Temperatura máxima	26.6
99987	7	Sololá	704	Santa Lucía Utatlán 	7	Santa Rita 	6	Junio	2023-06-16T00:00:00	2024-11-08T13:00:00	3	Temperatura mínima	24.8
99988	7	Sololá	704	Santa Lucía Utatlán 	7	Santa Rita 	6	Junio	2023-06-16T00:00:00	2024-11-08T13:00:00	5	Humedad	65
99989	7	Sololá	704	Santa Lucía Utatlán 	7	Santa Rita 	6	Junio	2023-06-16T00:00:00	2024-11-08T13:00:00	6	Velocidad del viento	8
99990	7	Sololá	704	Santa Lucía Utatlán 	7	Santa Rita 	6	Junio	2023-06-16T00:00:00	2024-11-08T13:00:00	7	Dirección del viento	8.05
99991	7	Sololá	704	Santa Lucía Utatlán 	7	Santa Rita 	6	Junio	2023-06-16T00:00:00	2024-11-08T13:00:00	1	Precipitación	0
99992	7	Sololá	704	Santa Lucía Utatlán 	7	Santa Rita 	6	Junio	2023-06-16T00:00:00	2024-11-08T13:00:00	8	Radiación solar	911
99993	7	Sololá	704	Santa Lucía Utatlán 	7	Santa Rita 	6	Junio	2023-06-16T00:00:00	2024-11-08T14:00:00	2	Temperatura media	25.1
99994	7	Sololá	704	Santa Lucía Utatlán 	7	Santa Rita 	6	Junio	2023-06-16T00:00:00	2024-11-08T14:00:00	4	Temperatura máxima	25.7
99995	7	Sololá	704	Santa Lucía Utatlán 	7	Santa Rita 	6	Junio	2023-06-16T00:00:00	2024-11-08T14:00:00	3	Temperatura mínima	24.7
99996	7	Sololá	704	Santa Lucía Utatlán 	7	Santa Rita 	6	Junio	2023-06-16T00:00:00	2024-11-08T14:00:00	5	Humedad	72
99997	7	Sololá	704	Santa Lucía Utatlán 	7	Santa Rita 	6	Junio	2023-06-16T00:00:00	2024-11-08T14:00:00	6	Velocidad del viento	6.4
99998	7	Sololá	704	Santa Lucía Utatlán 	7	Santa Rita 	6	Junio	2023-06-16T00:00:00	2024-11-08T14:00:00	7	Dirección del viento	6.44
99999	7	Sololá	704	Santa Lucía Utatlán 	7	Santa Rita 	6	Junio	2023-06-16T00:00:00	2024-11-08T14:00:00	1	Precipitación	0
100000	7	Sololá	704	Santa Lucía Utatlán 	7	Santa Rita 	6	Junio	2023-06-16T00:00:00	2024-11-08T14:00:00	8	Radiación solar	328
100001	7	Sololá	704	Santa Lucía Utatlán 	7	Santa Rita 	6	Junio	2023-06-16T00:00:00	2024-11-08T15:00:00	2	Temperatura media	24.9
100002	7	Sololá	704	Santa Lucía Utatlán 	7	Santa Rita 	6	Junio	2023-06-16T00:00:00	2024-11-08T15:00:00	4	Temperatura máxima	25.8
100003	7	Sololá	704	Santa Lucía Utatlán 	7	Santa Rita 	6	Junio	2023-06-16T00:00:00	2024-11-08T15:00:00	3	Temperatura mínima	24.9
100004	7	Sololá	704	Santa Lucía Utatlán 	7	Santa Rita 	6	Junio	2023-06-16T00:00:00	2024-11-08T15:00:00	5	Humedad	75
100005	7	Sololá	704	Santa Lucía Utatlán 	7	Santa Rita 	6	Junio	2023-06-16T00:00:00	2024-11-08T15:00:00	6	Velocidad del viento	6.4
100006	7	Sololá	704	Santa Lucía Utatlán 	7	Santa Rita 	6	Junio	2023-06-16T00:00:00	2024-11-08T15:00:00	7	Dirección del viento	6.44
100007	7	Sololá	704	Santa Lucía Utatlán 	7	Santa Rita 	6	Junio	2023-06-16T00:00:00	2024-11-08T15:00:00	1	Precipitación	0
100008	7	Sololá	704	Santa Lucía Utatlán 	7	Santa Rita 	6	Junio	2023-06-16T00:00:00	2024-11-08T15:00:00	8	Radiación solar	556
100009	7	Sololá	704	Santa Lucía Utatlán 	7	Santa Rita 	6	Junio	2023-06-16T00:00:00	2024-11-08T16:00:00	2	Temperatura media	24.5
100010	7	Sololá	704	Santa Lucía Utatlán 	7	Santa Rita 	6	Junio	2023-06-16T00:00:00	2024-11-08T16:00:00	4	Temperatura máxima	25.1
100011	7	Sololá	704	Santa Lucía Utatlán 	7	Santa Rita 	6	Junio	2023-06-16T00:00:00	2024-11-08T16:00:00	3	Temperatura mínima	24.2
100012	7	Sololá	704	Santa Lucía Utatlán 	7	Santa Rita 	6	Junio	2023-06-16T00:00:00	2024-11-08T16:00:00	5	Humedad	82
100013	7	Sololá	704	Santa Lucía Utatlán 	7	Santa Rita 	6	Junio	2023-06-16T00:00:00	2024-11-08T16:00:00	6	Velocidad del viento	6.4
100014	7	Sololá	704	Santa Lucía Utatlán 	7	Santa Rita 	6	Junio	2023-06-16T00:00:00	2024-11-08T16:00:00	7	Dirección del viento	6.44
100015	7	Sololá	704	Santa Lucía Utatlán 	7	Santa Rita 	6	Junio	2023-06-16T00:00:00	2024-11-08T16:00:00	1	Precipitación	0
100016	7	Sololá	704	Santa Lucía Utatlán 	7	Santa Rita 	6	Junio	2023-06-16T00:00:00	2024-11-08T16:00:00	8	Radiación solar	376
100017	7	Sololá	704	Santa Lucía Utatlán 	7	Santa Rita 	6	Junio	2023-06-16T00:00:00	2024-11-08T17:00:00	2	Temperatura media	22.9
100018	7	Sololá	704	Santa Lucía Utatlán 	7	Santa Rita 	6	Junio	2023-06-16T00:00:00	2024-11-08T17:00:00	4	Temperatura máxima	24.5
100019	7	Sololá	704	Santa Lucía Utatlán 	7	Santa Rita 	6	Junio	2023-06-16T00:00:00	2024-11-08T17:00:00	3	Temperatura mínima	22.6
100020	7	Sololá	704	Santa Lucía Utatlán 	7	Santa Rita 	6	Junio	2023-06-16T00:00:00	2024-11-08T17:00:00	5	Humedad	83
100021	7	Sololá	704	Santa Lucía Utatlán 	7	Santa Rita 	6	Junio	2023-06-16T00:00:00	2024-11-08T17:00:00	6	Velocidad del viento	4.8
100022	7	Sololá	704	Santa Lucía Utatlán 	7	Santa Rita 	6	Junio	2023-06-16T00:00:00	2024-11-08T17:00:00	7	Dirección del viento	4.83
100023	7	Sololá	704	Santa Lucía Utatlán 	7	Santa Rita 	6	Junio	2023-06-16T00:00:00	2024-11-08T17:00:00	1	Precipitación	0
100024	7	Sololá	704	Santa Lucía Utatlán 	7	Santa Rita 	6	Junio	2023-06-16T00:00:00	2024-11-08T17:00:00	8	Radiación solar	156
100025	7	Sololá	704	Santa Lucía Utatlán 	7	Santa Rita 	6	Junio	2023-06-16T00:00:00	2024-11-08T18:00:00	2	Temperatura media	21.8
100026	7	Sololá	704	Santa Lucía Utatlán 	7	Santa Rita 	6	Junio	2023-06-16T00:00:00	2024-11-08T18:00:00	4	Temperatura máxima	23.2
100027	7	Sololá	704	Santa Lucía Utatlán 	7	Santa Rita 	6	Junio	2023-06-16T00:00:00	2024-11-08T18:00:00	3	Temperatura mínima	21.8
100028	7	Sololá	704	Santa Lucía Utatlán 	7	Santa Rita 	6	Junio	2023-06-16T00:00:00	2024-11-08T18:00:00	5	Humedad	84
100029	7	Sololá	704	Santa Lucía Utatlán 	7	Santa Rita 	6	Junio	2023-06-16T00:00:00	2024-11-08T18:00:00	6	Velocidad del viento	3.2
100030	7	Sololá	704	Santa Lucía Utatlán 	7	Santa Rita 	6	Junio	2023-06-16T00:00:00	2024-11-08T18:00:00	7	Dirección del viento	3.22
100031	7	Sololá	704	Santa Lucía Utatlán 	7	Santa Rita 	6	Junio	2023-06-16T00:00:00	2024-11-08T18:00:00	1	Precipitación	0
100032	7	Sololá	704	Santa Lucía Utatlán 	7	Santa Rita 	6	Junio	2023-06-16T00:00:00	2024-11-08T18:00:00	8	Radiación solar	70
100033	7	Sololá	704	Santa Lucía Utatlán 	7	Santa Rita 	6	Junio	2023-06-16T00:00:00	2024-11-08T19:00:00	2	Temperatura media	21.1
100034	7	Sololá	704	Santa Lucía Utatlán 	7	Santa Rita 	6	Junio	2023-06-16T00:00:00	2024-11-08T19:00:00	4	Temperatura máxima	21.8
100035	7	Sololá	704	Santa Lucía Utatlán 	7	Santa Rita 	6	Junio	2023-06-16T00:00:00	2024-11-08T19:00:00	3	Temperatura mínima	21.1
100036	7	Sololá	704	Santa Lucía Utatlán 	7	Santa Rita 	6	Junio	2023-06-16T00:00:00	2024-11-08T19:00:00	5	Humedad	89
100037	7	Sololá	704	Santa Lucía Utatlán 	7	Santa Rita 	6	Junio	2023-06-16T00:00:00	2024-11-08T19:00:00	6	Velocidad del viento	0
100038	7	Sololá	704	Santa Lucía Utatlán 	7	Santa Rita 	6	Junio	2023-06-16T00:00:00	2024-11-08T19:00:00	7	Dirección del viento	0
100039	7	Sololá	704	Santa Lucía Utatlán 	7	Santa Rita 	6	Junio	2023-06-16T00:00:00	2024-11-08T19:00:00	1	Precipitación	0
100040	7	Sololá	704	Santa Lucía Utatlán 	7	Santa Rita 	6	Junio	2023-06-16T00:00:00	2024-11-08T19:00:00	8	Radiación solar	0
100041	7	Sololá	704	Santa Lucía Utatlán 	7	Santa Rita 	6	Junio	2023-06-16T00:00:00	2024-11-08T20:00:00	2	Temperatura media	21.9
100042	7	Sololá	704	Santa Lucía Utatlán 	7	Santa Rita 	6	Junio	2023-06-16T00:00:00	2024-11-08T20:00:00	4	Temperatura máxima	22.2
100043	7	Sololá	704	Santa Lucía Utatlán 	7	Santa Rita 	6	Junio	2023-06-16T00:00:00	2024-11-08T20:00:00	3	Temperatura mínima	20.9
100044	7	Sololá	704	Santa Lucía Utatlán 	7	Santa Rita 	6	Junio	2023-06-16T00:00:00	2024-11-08T20:00:00	5	Humedad	78
100045	7	Sololá	704	Santa Lucía Utatlán 	7	Santa Rita 	6	Junio	2023-06-16T00:00:00	2024-11-08T20:00:00	6	Velocidad del viento	3.2
100046	7	Sololá	704	Santa Lucía Utatlán 	7	Santa Rita 	6	Junio	2023-06-16T00:00:00	2024-11-08T20:00:00	7	Dirección del viento	3.22
100047	7	Sololá	704	Santa Lucía Utatlán 	7	Santa Rita 	6	Junio	2023-06-16T00:00:00	2024-11-08T20:00:00	1	Precipitación	0
100048	7	Sololá	704	Santa Lucía Utatlán 	7	Santa Rita 	6	Junio	2023-06-16T00:00:00	2024-11-08T20:00:00	8	Radiación solar	0
100049	7	Sololá	704	Santa Lucía Utatlán 	7	Santa Rita 	6	Junio	2023-06-16T00:00:00	2024-11-08T21:00:00	2	Temperatura media	20.9
100050	7	Sololá	704	Santa Lucía Utatlán 	7	Santa Rita 	6	Junio	2023-06-16T00:00:00	2024-11-08T21:00:00	4	Temperatura máxima	22.1
100051	7	Sololá	704	Santa Lucía Utatlán 	7	Santa Rita 	6	Junio	2023-06-16T00:00:00	2024-11-08T21:00:00	3	Temperatura mínima	20.9
100052	7	Sololá	704	Santa Lucía Utatlán 	7	Santa Rita 	6	Junio	2023-06-16T00:00:00	2024-11-08T21:00:00	5	Humedad	88
100053	7	Sololá	704	Santa Lucía Utatlán 	7	Santa Rita 	6	Junio	2023-06-16T00:00:00	2024-11-08T21:00:00	6	Velocidad del viento	4.8
100054	7	Sololá	704	Santa Lucía Utatlán 	7	Santa Rita 	6	Junio	2023-06-16T00:00:00	2024-11-08T21:00:00	7	Dirección del viento	4.83
100055	7	Sololá	704	Santa Lucía Utatlán 	7	Santa Rita 	6	Junio	2023-06-16T00:00:00	2024-11-08T21:00:00	1	Precipitación	0.4
100056	7	Sololá	704	Santa Lucía Utatlán 	7	Santa Rita 	6	Junio	2023-06-16T00:00:00	2024-11-08T21:00:00	8	Radiación solar	0
100057	7	Sololá	704	Santa Lucía Utatlán 	7	Santa Rita 	6	Junio	2023-06-16T00:00:00	2024-11-08T22:00:00	2	Temperatura media	19.9
100058	7	Sololá	704	Santa Lucía Utatlán 	7	Santa Rita 	6	Junio	2023-06-16T00:00:00	2024-11-08T22:00:00	4	Temperatura máxima	20.9
100059	7	Sololá	704	Santa Lucía Utatlán 	7	Santa Rita 	6	Junio	2023-06-16T00:00:00	2024-11-08T22:00:00	3	Temperatura mínima	19.7
100060	7	Sololá	704	Santa Lucía Utatlán 	7	Santa Rita 	6	Junio	2023-06-16T00:00:00	2024-11-08T22:00:00	5	Humedad	92
100061	7	Sololá	704	Santa Lucía Utatlán 	7	Santa Rita 	6	Junio	2023-06-16T00:00:00	2024-11-08T22:00:00	6	Velocidad del viento	3.2
100062	7	Sololá	704	Santa Lucía Utatlán 	7	Santa Rita 	6	Junio	2023-06-16T00:00:00	2024-11-08T22:00:00	7	Dirección del viento	3.22
100063	7	Sololá	704	Santa Lucía Utatlán 	7	Santa Rita 	6	Junio	2023-06-16T00:00:00	2024-11-08T22:00:00	1	Precipitación	0
100064	7	Sololá	704	Santa Lucía Utatlán 	7	Santa Rita 	6	Junio	2023-06-16T00:00:00	2024-11-08T22:00:00	8	Radiación solar	0
100065	7	Sololá	704	Santa Lucía Utatlán 	7	Santa Rita 	6	Junio	2023-06-16T00:00:00	2024-11-08T23:00:00	2	Temperatura media	20
100066	7	Sololá	704	Santa Lucía Utatlán 	7	Santa Rita 	6	Junio	2023-06-16T00:00:00	2024-11-08T23:00:00	4	Temperatura máxima	20.3
100067	7	Sololá	704	Santa Lucía Utatlán 	7	Santa Rita 	6	Junio	2023-06-16T00:00:00	2024-11-08T23:00:00	3	Temperatura mínima	19.7
100068	7	Sololá	704	Santa Lucía Utatlán 	7	Santa Rita 	6	Junio	2023-06-16T00:00:00	2024-11-08T23:00:00	5	Humedad	85
100069	7	Sololá	704	Santa Lucía Utatlán 	7	Santa Rita 	6	Junio	2023-06-16T00:00:00	2024-11-08T23:00:00	6	Velocidad del viento	4.8
100070	7	Sololá	704	Santa Lucía Utatlán 	7	Santa Rita 	6	Junio	2023-06-16T00:00:00	2024-11-08T23:00:00	7	Dirección del viento	4.83
100071	7	Sololá	704	Santa Lucía Utatlán 	7	Santa Rita 	6	Junio	2023-06-16T00:00:00	2024-11-08T23:00:00	1	Precipitación	2.4
100072	7	Sololá	704	Santa Lucía Utatlán 	7	Santa Rita 	6	Junio	2023-06-16T00:00:00	2024-11-08T23:00:00	8	Radiación solar	0
100073	7	Sololá	704	Santa Lucía Utatlán 	7	Santa Rita 	6	Junio	2023-06-17T00:00:00	2024-11-08T00:00:00	2	Temperatura media	18.2
100074	7	Sololá	704	Santa Lucía Utatlán 	7	Santa Rita 	6	Junio	2023-06-17T00:00:00	2024-11-08T00:00:00	4	Temperatura máxima	20
100075	7	Sololá	704	Santa Lucía Utatlán 	7	Santa Rita 	6	Junio	2023-06-17T00:00:00	2024-11-08T00:00:00	3	Temperatura mínima	18.2
100076	7	Sololá	704	Santa Lucía Utatlán 	7	Santa Rita 	6	Junio	2023-06-17T00:00:00	2024-11-08T00:00:00	5	Humedad	92
100077	7	Sololá	704	Santa Lucía Utatlán 	7	Santa Rita 	6	Junio	2023-06-17T00:00:00	2024-11-08T00:00:00	6	Velocidad del viento	3.2
100078	7	Sololá	704	Santa Lucía Utatlán 	7	Santa Rita 	6	Junio	2023-06-17T00:00:00	2024-11-08T00:00:00	7	Dirección del viento	3.22
100079	7	Sololá	704	Santa Lucía Utatlán 	7	Santa Rita 	6	Junio	2023-06-17T00:00:00	2024-11-08T00:00:00	1	Precipitación	0
100080	7	Sololá	704	Santa Lucía Utatlán 	7	Santa Rita 	6	Junio	2023-06-17T00:00:00	2024-11-08T00:00:00	8	Radiación solar	0
100081	7	Sololá	704	Santa Lucía Utatlán 	7	Santa Rita 	6	Junio	2023-06-17T00:00:00	2024-11-08T01:00:00	2	Temperatura media	19.6
100082	7	Sololá	704	Santa Lucía Utatlán 	7	Santa Rita 	6	Junio	2023-06-17T00:00:00	2024-11-08T01:00:00	4	Temperatura máxima	19.9
100083	7	Sololá	704	Santa Lucía Utatlán 	7	Santa Rita 	6	Junio	2023-06-17T00:00:00	2024-11-08T01:00:00	3	Temperatura mínima	18
100084	7	Sololá	704	Santa Lucía Utatlán 	7	Santa Rita 	6	Junio	2023-06-17T00:00:00	2024-11-08T01:00:00	5	Humedad	82
100085	7	Sololá	704	Santa Lucía Utatlán 	7	Santa Rita 	6	Junio	2023-06-17T00:00:00	2024-11-08T01:00:00	6	Velocidad del viento	4.8
100086	7	Sololá	704	Santa Lucía Utatlán 	7	Santa Rita 	6	Junio	2023-06-17T00:00:00	2024-11-08T01:00:00	7	Dirección del viento	4.83
100087	7	Sololá	704	Santa Lucía Utatlán 	7	Santa Rita 	6	Junio	2023-06-17T00:00:00	2024-11-08T01:00:00	1	Precipitación	0
100088	7	Sololá	704	Santa Lucía Utatlán 	7	Santa Rita 	6	Junio	2023-06-17T00:00:00	2024-11-08T01:00:00	8	Radiación solar	0
100089	7	Sololá	704	Santa Lucía Utatlán 	7	Santa Rita 	6	Junio	2023-06-17T00:00:00	2024-11-08T02:00:00	2	Temperatura media	19
100090	7	Sololá	704	Santa Lucía Utatlán 	7	Santa Rita 	6	Junio	2023-06-17T00:00:00	2024-11-08T02:00:00	4	Temperatura máxima	20.9
100091	7	Sololá	704	Santa Lucía Utatlán 	7	Santa Rita 	6	Junio	2023-06-17T00:00:00	2024-11-08T02:00:00	3	Temperatura mínima	18.1
100092	7	Sololá	704	Santa Lucía Utatlán 	7	Santa Rita 	6	Junio	2023-06-17T00:00:00	2024-11-08T02:00:00	5	Humedad	83
100093	7	Sololá	704	Santa Lucía Utatlán 	7	Santa Rita 	6	Junio	2023-06-17T00:00:00	2024-11-08T02:00:00	6	Velocidad del viento	6.4
100094	7	Sololá	704	Santa Lucía Utatlán 	7	Santa Rita 	6	Junio	2023-06-17T00:00:00	2024-11-08T02:00:00	7	Dirección del viento	6.44
100095	7	Sololá	704	Santa Lucía Utatlán 	7	Santa Rita 	6	Junio	2023-06-17T00:00:00	2024-11-08T02:00:00	1	Precipitación	0
100096	7	Sololá	704	Santa Lucía Utatlán 	7	Santa Rita 	6	Junio	2023-06-17T00:00:00	2024-11-08T02:00:00	8	Radiación solar	0
100097	7	Sololá	704	Santa Lucía Utatlán 	7	Santa Rita 	6	Junio	2023-06-17T00:00:00	2024-11-08T03:00:00	2	Temperatura media	17.2
100098	7	Sololá	704	Santa Lucía Utatlán 	7	Santa Rita 	6	Junio	2023-06-17T00:00:00	2024-11-08T03:00:00	4	Temperatura máxima	18.9
100099	7	Sololá	704	Santa Lucía Utatlán 	7	Santa Rita 	6	Junio	2023-06-17T00:00:00	2024-11-08T03:00:00	3	Temperatura mínima	17.2
100100	7	Sololá	704	Santa Lucía Utatlán 	7	Santa Rita 	6	Junio	2023-06-17T00:00:00	2024-11-08T03:00:00	5	Humedad	87
100101	7	Sololá	704	Santa Lucía Utatlán 	7	Santa Rita 	6	Junio	2023-06-17T00:00:00	2024-11-08T03:00:00	6	Velocidad del viento	3.2
100102	7	Sololá	704	Santa Lucía Utatlán 	7	Santa Rita 	6	Junio	2023-06-17T00:00:00	2024-11-08T03:00:00	7	Dirección del viento	3.22
100103	7	Sololá	704	Santa Lucía Utatlán 	7	Santa Rita 	6	Junio	2023-06-17T00:00:00	2024-11-08T03:00:00	1	Precipitación	0
100104	7	Sololá	704	Santa Lucía Utatlán 	7	Santa Rita 	6	Junio	2023-06-17T00:00:00	2024-11-08T03:00:00	8	Radiación solar	0
100105	7	Sololá	704	Santa Lucía Utatlán 	7	Santa Rita 	6	Junio	2023-06-17T00:00:00	2024-11-08T04:00:00	2	Temperatura media	17.1
100106	7	Sololá	704	Santa Lucía Utatlán 	7	Santa Rita 	6	Junio	2023-06-17T00:00:00	2024-11-08T04:00:00	4	Temperatura máxima	17.6
100107	7	Sololá	704	Santa Lucía Utatlán 	7	Santa Rita 	6	Junio	2023-06-17T00:00:00	2024-11-08T04:00:00	3	Temperatura mínima	16.8
100108	7	Sololá	704	Santa Lucía Utatlán 	7	Santa Rita 	6	Junio	2023-06-17T00:00:00	2024-11-08T04:00:00	5	Humedad	86
100109	7	Sololá	704	Santa Lucía Utatlán 	7	Santa Rita 	6	Junio	2023-06-17T00:00:00	2024-11-08T04:00:00	6	Velocidad del viento	3.2
100110	7	Sololá	704	Santa Lucía Utatlán 	7	Santa Rita 	6	Junio	2023-06-17T00:00:00	2024-11-08T04:00:00	7	Dirección del viento	3.22
100111	7	Sololá	704	Santa Lucía Utatlán 	7	Santa Rita 	6	Junio	2023-06-17T00:00:00	2024-11-08T04:00:00	1	Precipitación	0
100112	7	Sololá	704	Santa Lucía Utatlán 	7	Santa Rita 	6	Junio	2023-06-17T00:00:00	2024-11-08T04:00:00	8	Radiación solar	0
100113	7	Sololá	704	Santa Lucía Utatlán 	7	Santa Rita 	6	Junio	2023-06-17T00:00:00	2024-11-08T05:00:00	2	Temperatura media	17.4
100114	7	Sololá	704	Santa Lucía Utatlán 	7	Santa Rita 	6	Junio	2023-06-17T00:00:00	2024-11-08T05:00:00	4	Temperatura máxima	17.6
100115	7	Sololá	704	Santa Lucía Utatlán 	7	Santa Rita 	6	Junio	2023-06-17T00:00:00	2024-11-08T05:00:00	3	Temperatura mínima	16.8
100116	7	Sololá	704	Santa Lucía Utatlán 	7	Santa Rita 	6	Junio	2023-06-17T00:00:00	2024-11-08T05:00:00	5	Humedad	80
100117	7	Sololá	704	Santa Lucía Utatlán 	7	Santa Rita 	6	Junio	2023-06-17T00:00:00	2024-11-08T05:00:00	6	Velocidad del viento	4.8
100118	7	Sololá	704	Santa Lucía Utatlán 	7	Santa Rita 	6	Junio	2023-06-17T00:00:00	2024-11-08T05:00:00	7	Dirección del viento	4.83
100119	7	Sololá	704	Santa Lucía Utatlán 	7	Santa Rita 	6	Junio	2023-06-17T00:00:00	2024-11-08T05:00:00	1	Precipitación	0
100120	7	Sololá	704	Santa Lucía Utatlán 	7	Santa Rita 	6	Junio	2023-06-17T00:00:00	2024-11-08T05:00:00	8	Radiación solar	0
100121	7	Sololá	704	Santa Lucía Utatlán 	7	Santa Rita 	6	Junio	2023-06-17T00:00:00	2024-11-08T06:00:00	2	Temperatura media	17.3
100122	7	Sololá	704	Santa Lucía Utatlán 	7	Santa Rita 	6	Junio	2023-06-17T00:00:00	2024-11-08T06:00:00	4	Temperatura máxima	17.9
100123	7	Sololá	704	Santa Lucía Utatlán 	7	Santa Rita 	6	Junio	2023-06-17T00:00:00	2024-11-08T06:00:00	3	Temperatura mínima	17.3
100124	7	Sololá	704	Santa Lucía Utatlán 	7	Santa Rita 	6	Junio	2023-06-17T00:00:00	2024-11-08T06:00:00	5	Humedad	81
100125	7	Sololá	704	Santa Lucía Utatlán 	7	Santa Rita 	6	Junio	2023-06-17T00:00:00	2024-11-08T06:00:00	6	Velocidad del viento	4.8
100126	7	Sololá	704	Santa Lucía Utatlán 	7	Santa Rita 	6	Junio	2023-06-17T00:00:00	2024-11-08T06:00:00	7	Dirección del viento	4.83
100127	7	Sololá	704	Santa Lucía Utatlán 	7	Santa Rita 	6	Junio	2023-06-17T00:00:00	2024-11-08T06:00:00	1	Precipitación	0
100128	7	Sololá	704	Santa Lucía Utatlán 	7	Santa Rita 	6	Junio	2023-06-17T00:00:00	2024-11-08T06:00:00	8	Radiación solar	4
100129	7	Sololá	704	Santa Lucía Utatlán 	7	Santa Rita 	6	Junio	2023-06-17T00:00:00	2024-11-08T07:00:00	2	Temperatura media	19.5
100130	7	Sololá	704	Santa Lucía Utatlán 	7	Santa Rita 	6	Junio	2023-06-17T00:00:00	2024-11-08T07:00:00	4	Temperatura máxima	19.5
100131	7	Sololá	704	Santa Lucía Utatlán 	7	Santa Rita 	6	Junio	2023-06-17T00:00:00	2024-11-08T07:00:00	3	Temperatura mínima	17.3
100132	7	Sololá	704	Santa Lucía Utatlán 	7	Santa Rita 	6	Junio	2023-06-17T00:00:00	2024-11-08T07:00:00	5	Humedad	76
100133	7	Sololá	704	Santa Lucía Utatlán 	7	Santa Rita 	6	Junio	2023-06-17T00:00:00	2024-11-08T07:00:00	6	Velocidad del viento	3.2
100134	7	Sololá	704	Santa Lucía Utatlán 	7	Santa Rita 	6	Junio	2023-06-17T00:00:00	2024-11-08T07:00:00	7	Dirección del viento	3.22
100135	7	Sololá	704	Santa Lucía Utatlán 	7	Santa Rita 	6	Junio	2023-06-17T00:00:00	2024-11-08T07:00:00	1	Precipitación	0
100136	7	Sololá	704	Santa Lucía Utatlán 	7	Santa Rita 	6	Junio	2023-06-17T00:00:00	2024-11-08T07:00:00	8	Radiación solar	55
100137	7	Sololá	704	Santa Lucía Utatlán 	7	Santa Rita 	6	Junio	2023-06-17T00:00:00	2024-11-08T08:00:00	2	Temperatura media	24.2
100138	7	Sololá	704	Santa Lucía Utatlán 	7	Santa Rita 	6	Junio	2023-06-17T00:00:00	2024-11-08T08:00:00	4	Temperatura máxima	24.2
100139	7	Sololá	704	Santa Lucía Utatlán 	7	Santa Rita 	6	Junio	2023-06-17T00:00:00	2024-11-08T08:00:00	3	Temperatura mínima	19.5
100140	7	Sololá	704	Santa Lucía Utatlán 	7	Santa Rita 	6	Junio	2023-06-17T00:00:00	2024-11-08T08:00:00	5	Humedad	51
100141	7	Sololá	704	Santa Lucía Utatlán 	7	Santa Rita 	6	Junio	2023-06-17T00:00:00	2024-11-08T08:00:00	6	Velocidad del viento	3.2
100142	7	Sololá	704	Santa Lucía Utatlán 	7	Santa Rita 	6	Junio	2023-06-17T00:00:00	2024-11-08T08:00:00	7	Dirección del viento	3.22
100143	7	Sololá	704	Santa Lucía Utatlán 	7	Santa Rita 	6	Junio	2023-06-17T00:00:00	2024-11-08T08:00:00	1	Precipitación	0
100144	7	Sololá	704	Santa Lucía Utatlán 	7	Santa Rita 	6	Junio	2023-06-17T00:00:00	2024-11-08T08:00:00	8	Radiación solar	437
100145	7	Sololá	704	Santa Lucía Utatlán 	7	Santa Rita 	6	Junio	2023-06-17T00:00:00	2024-11-08T09:00:00	2	Temperatura media	26.1
100146	7	Sololá	704	Santa Lucía Utatlán 	7	Santa Rita 	6	Junio	2023-06-17T00:00:00	2024-11-08T09:00:00	4	Temperatura máxima	26.1
100147	7	Sololá	704	Santa Lucía Utatlán 	7	Santa Rita 	6	Junio	2023-06-17T00:00:00	2024-11-08T09:00:00	3	Temperatura mínima	24.2
100148	7	Sololá	704	Santa Lucía Utatlán 	7	Santa Rita 	6	Junio	2023-06-17T00:00:00	2024-11-08T09:00:00	5	Humedad	47
100149	7	Sololá	704	Santa Lucía Utatlán 	7	Santa Rita 	6	Junio	2023-06-17T00:00:00	2024-11-08T09:00:00	6	Velocidad del viento	6.4
100150	7	Sololá	704	Santa Lucía Utatlán 	7	Santa Rita 	6	Junio	2023-06-17T00:00:00	2024-11-08T09:00:00	7	Dirección del viento	6.44
100151	7	Sololá	704	Santa Lucía Utatlán 	7	Santa Rita 	6	Junio	2023-06-17T00:00:00	2024-11-08T09:00:00	1	Precipitación	0
100152	7	Sololá	704	Santa Lucía Utatlán 	7	Santa Rita 	6	Junio	2023-06-17T00:00:00	2024-11-08T09:00:00	8	Radiación solar	659
100153	7	Sololá	704	Santa Lucía Utatlán 	7	Santa Rita 	6	Junio	2023-06-17T00:00:00	2024-11-08T10:00:00	2	Temperatura media	26.2
100154	7	Sololá	704	Santa Lucía Utatlán 	7	Santa Rita 	6	Junio	2023-06-17T00:00:00	2024-11-08T10:00:00	4	Temperatura máxima	26.6
100155	7	Sololá	704	Santa Lucía Utatlán 	7	Santa Rita 	6	Junio	2023-06-17T00:00:00	2024-11-08T10:00:00	3	Temperatura mínima	26
100156	7	Sololá	704	Santa Lucía Utatlán 	7	Santa Rita 	6	Junio	2023-06-17T00:00:00	2024-11-08T10:00:00	5	Humedad	48
100157	7	Sololá	704	Santa Lucía Utatlán 	7	Santa Rita 	6	Junio	2023-06-17T00:00:00	2024-11-08T10:00:00	6	Velocidad del viento	9.7
100158	7	Sololá	704	Santa Lucía Utatlán 	7	Santa Rita 	6	Junio	2023-06-17T00:00:00	2024-11-08T10:00:00	7	Dirección del viento	9.66
100159	7	Sololá	704	Santa Lucía Utatlán 	7	Santa Rita 	6	Junio	2023-06-17T00:00:00	2024-11-08T10:00:00	1	Precipitación	0
100160	7	Sololá	704	Santa Lucía Utatlán 	7	Santa Rita 	6	Junio	2023-06-17T00:00:00	2024-11-08T10:00:00	8	Radiación solar	837
100161	7	Sololá	704	Santa Lucía Utatlán 	7	Santa Rita 	6	Junio	2023-06-17T00:00:00	2024-11-08T11:00:00	2	Temperatura media	26.1
100162	7	Sololá	704	Santa Lucía Utatlán 	7	Santa Rita 	6	Junio	2023-06-17T00:00:00	2024-11-08T11:00:00	4	Temperatura máxima	26.5
100163	7	Sololá	704	Santa Lucía Utatlán 	7	Santa Rita 	6	Junio	2023-06-17T00:00:00	2024-11-08T11:00:00	3	Temperatura mínima	26.1
100164	7	Sololá	704	Santa Lucía Utatlán 	7	Santa Rita 	6	Junio	2023-06-17T00:00:00	2024-11-08T11:00:00	5	Humedad	54
100165	7	Sololá	704	Santa Lucía Utatlán 	7	Santa Rita 	6	Junio	2023-06-17T00:00:00	2024-11-08T11:00:00	6	Velocidad del viento	12.9
100166	7	Sololá	704	Santa Lucía Utatlán 	7	Santa Rita 	6	Junio	2023-06-17T00:00:00	2024-11-08T11:00:00	7	Dirección del viento	12.87
100167	7	Sololá	704	Santa Lucía Utatlán 	7	Santa Rita 	6	Junio	2023-06-17T00:00:00	2024-11-08T11:00:00	1	Precipitación	0
100168	7	Sololá	704	Santa Lucía Utatlán 	7	Santa Rita 	6	Junio	2023-06-17T00:00:00	2024-11-08T11:00:00	8	Radiación solar	960
100169	7	Sololá	704	Santa Lucía Utatlán 	7	Santa Rita 	6	Junio	2023-06-17T00:00:00	2024-11-08T12:00:00	2	Temperatura media	26.3
100170	7	Sololá	704	Santa Lucía Utatlán 	7	Santa Rita 	6	Junio	2023-06-17T00:00:00	2024-11-08T12:00:00	4	Temperatura máxima	26.8
100171	7	Sololá	704	Santa Lucía Utatlán 	7	Santa Rita 	6	Junio	2023-06-17T00:00:00	2024-11-08T12:00:00	3	Temperatura mínima	25.7
100172	7	Sololá	704	Santa Lucía Utatlán 	7	Santa Rita 	6	Junio	2023-06-17T00:00:00	2024-11-08T12:00:00	5	Humedad	56
100173	7	Sololá	704	Santa Lucía Utatlán 	7	Santa Rita 	6	Junio	2023-06-17T00:00:00	2024-11-08T12:00:00	6	Velocidad del viento	11.3
100174	7	Sololá	704	Santa Lucía Utatlán 	7	Santa Rita 	6	Junio	2023-06-17T00:00:00	2024-11-08T12:00:00	7	Dirección del viento	11.27
100175	7	Sololá	704	Santa Lucía Utatlán 	7	Santa Rita 	6	Junio	2023-06-17T00:00:00	2024-11-08T12:00:00	1	Precipitación	0
100176	7	Sololá	704	Santa Lucía Utatlán 	7	Santa Rita 	6	Junio	2023-06-17T00:00:00	2024-11-08T12:00:00	8	Radiación solar	1030
100177	7	Sololá	704	Santa Lucía Utatlán 	7	Santa Rita 	6	Junio	2023-06-17T00:00:00	2024-11-08T13:00:00	2	Temperatura media	26.4
100178	7	Sololá	704	Santa Lucía Utatlán 	7	Santa Rita 	6	Junio	2023-06-17T00:00:00	2024-11-08T13:00:00	4	Temperatura máxima	27.2
100179	7	Sololá	704	Santa Lucía Utatlán 	7	Santa Rita 	6	Junio	2023-06-17T00:00:00	2024-11-08T13:00:00	3	Temperatura mínima	26.3
100180	7	Sololá	704	Santa Lucía Utatlán 	7	Santa Rita 	6	Junio	2023-06-17T00:00:00	2024-11-08T13:00:00	5	Humedad	49
100181	7	Sololá	704	Santa Lucía Utatlán 	7	Santa Rita 	6	Junio	2023-06-17T00:00:00	2024-11-08T13:00:00	6	Velocidad del viento	12.9
100182	7	Sololá	704	Santa Lucía Utatlán 	7	Santa Rita 	6	Junio	2023-06-17T00:00:00	2024-11-08T13:00:00	7	Dirección del viento	12.87
100183	7	Sololá	704	Santa Lucía Utatlán 	7	Santa Rita 	6	Junio	2023-06-17T00:00:00	2024-11-08T13:00:00	1	Precipitación	0
100184	7	Sololá	704	Santa Lucía Utatlán 	7	Santa Rita 	6	Junio	2023-06-17T00:00:00	2024-11-08T13:00:00	8	Radiación solar	1039
100185	7	Sololá	704	Santa Lucía Utatlán 	7	Santa Rita 	6	Junio	2023-06-17T00:00:00	2024-11-08T14:00:00	2	Temperatura media	27.6
100186	7	Sololá	704	Santa Lucía Utatlán 	7	Santa Rita 	6	Junio	2023-06-17T00:00:00	2024-11-08T14:00:00	4	Temperatura máxima	27.7
100187	7	Sololá	704	Santa Lucía Utatlán 	7	Santa Rita 	6	Junio	2023-06-17T00:00:00	2024-11-08T14:00:00	3	Temperatura mínima	26.4
100188	7	Sololá	704	Santa Lucía Utatlán 	7	Santa Rita 	6	Junio	2023-06-17T00:00:00	2024-11-08T14:00:00	5	Humedad	47
100189	7	Sololá	704	Santa Lucía Utatlán 	7	Santa Rita 	6	Junio	2023-06-17T00:00:00	2024-11-08T14:00:00	6	Velocidad del viento	12.9
100190	7	Sololá	704	Santa Lucía Utatlán 	7	Santa Rita 	6	Junio	2023-06-17T00:00:00	2024-11-08T14:00:00	7	Dirección del viento	12.87
100191	7	Sololá	704	Santa Lucía Utatlán 	7	Santa Rita 	6	Junio	2023-06-17T00:00:00	2024-11-08T14:00:00	1	Precipitación	0
100192	7	Sololá	704	Santa Lucía Utatlán 	7	Santa Rita 	6	Junio	2023-06-17T00:00:00	2024-11-08T14:00:00	8	Radiación solar	966
100193	7	Sololá	704	Santa Lucía Utatlán 	7	Santa Rita 	6	Junio	2023-06-17T00:00:00	2024-11-08T15:00:00	2	Temperatura media	27.4
100194	7	Sololá	704	Santa Lucía Utatlán 	7	Santa Rita 	6	Junio	2023-06-17T00:00:00	2024-11-08T15:00:00	4	Temperatura máxima	28
100195	7	Sololá	704	Santa Lucía Utatlán 	7	Santa Rita 	6	Junio	2023-06-17T00:00:00	2024-11-08T15:00:00	3	Temperatura mínima	27.1
100196	7	Sololá	704	Santa Lucía Utatlán 	7	Santa Rita 	6	Junio	2023-06-17T00:00:00	2024-11-08T15:00:00	5	Humedad	47
100197	7	Sololá	704	Santa Lucía Utatlán 	7	Santa Rita 	6	Junio	2023-06-17T00:00:00	2024-11-08T15:00:00	6	Velocidad del viento	9.7
100198	7	Sololá	704	Santa Lucía Utatlán 	7	Santa Rita 	6	Junio	2023-06-17T00:00:00	2024-11-08T15:00:00	7	Dirección del viento	9.66
100199	7	Sololá	704	Santa Lucía Utatlán 	7	Santa Rita 	6	Junio	2023-06-17T00:00:00	2024-11-08T15:00:00	1	Precipitación	0
100200	7	Sololá	704	Santa Lucía Utatlán 	7	Santa Rita 	6	Junio	2023-06-17T00:00:00	2024-11-08T15:00:00	8	Radiación solar	829
100201	7	Sololá	704	Santa Lucía Utatlán 	7	Santa Rita 	6	Junio	2023-06-17T00:00:00	2024-11-08T16:00:00	2	Temperatura media	27.6
100202	7	Sololá	704	Santa Lucía Utatlán 	7	Santa Rita 	6	Junio	2023-06-17T00:00:00	2024-11-08T16:00:00	4	Temperatura máxima	28.3
100203	7	Sololá	704	Santa Lucía Utatlán 	7	Santa Rita 	6	Junio	2023-06-17T00:00:00	2024-11-08T16:00:00	3	Temperatura mínima	27
100204	7	Sololá	704	Santa Lucía Utatlán 	7	Santa Rita 	6	Junio	2023-06-17T00:00:00	2024-11-08T16:00:00	5	Humedad	46
100205	7	Sololá	704	Santa Lucía Utatlán 	7	Santa Rita 	6	Junio	2023-06-17T00:00:00	2024-11-08T16:00:00	6	Velocidad del viento	9.7
100206	7	Sololá	704	Santa Lucía Utatlán 	7	Santa Rita 	6	Junio	2023-06-17T00:00:00	2024-11-08T16:00:00	7	Dirección del viento	9.66
100207	7	Sololá	704	Santa Lucía Utatlán 	7	Santa Rita 	6	Junio	2023-06-17T00:00:00	2024-11-08T16:00:00	1	Precipitación	0
100208	7	Sololá	704	Santa Lucía Utatlán 	7	Santa Rita 	6	Junio	2023-06-17T00:00:00	2024-11-08T16:00:00	8	Radiación solar	674
100209	7	Sololá	704	Santa Lucía Utatlán 	7	Santa Rita 	6	Junio	2023-06-17T00:00:00	2024-11-08T17:00:00	2	Temperatura media	25.2
100210	7	Sololá	704	Santa Lucía Utatlán 	7	Santa Rita 	6	Junio	2023-06-17T00:00:00	2024-11-08T17:00:00	4	Temperatura máxima	27.6
100211	7	Sololá	704	Santa Lucía Utatlán 	7	Santa Rita 	6	Junio	2023-06-17T00:00:00	2024-11-08T17:00:00	3	Temperatura mínima	25.2
100212	7	Sololá	704	Santa Lucía Utatlán 	7	Santa Rita 	6	Junio	2023-06-17T00:00:00	2024-11-08T17:00:00	5	Humedad	59
100213	7	Sololá	704	Santa Lucía Utatlán 	7	Santa Rita 	6	Junio	2023-06-17T00:00:00	2024-11-08T17:00:00	6	Velocidad del viento	8
100214	7	Sololá	704	Santa Lucía Utatlán 	7	Santa Rita 	6	Junio	2023-06-17T00:00:00	2024-11-08T17:00:00	7	Dirección del viento	8.05
100215	7	Sololá	704	Santa Lucía Utatlán 	7	Santa Rita 	6	Junio	2023-06-17T00:00:00	2024-11-08T17:00:00	1	Precipitación	0
100216	7	Sololá	704	Santa Lucía Utatlán 	7	Santa Rita 	6	Junio	2023-06-17T00:00:00	2024-11-08T17:00:00	8	Radiación solar	158
100217	7	Sololá	704	Santa Lucía Utatlán 	7	Santa Rita 	6	Junio	2023-06-17T00:00:00	2024-11-08T18:00:00	2	Temperatura media	21.5
100218	7	Sololá	704	Santa Lucía Utatlán 	7	Santa Rita 	6	Junio	2023-06-17T00:00:00	2024-11-08T18:00:00	4	Temperatura máxima	25.2
100219	7	Sololá	704	Santa Lucía Utatlán 	7	Santa Rita 	6	Junio	2023-06-17T00:00:00	2024-11-08T18:00:00	3	Temperatura mínima	21.4
100220	7	Sololá	704	Santa Lucía Utatlán 	7	Santa Rita 	6	Junio	2023-06-17T00:00:00	2024-11-08T18:00:00	5	Humedad	84
100221	7	Sololá	704	Santa Lucía Utatlán 	7	Santa Rita 	6	Junio	2023-06-17T00:00:00	2024-11-08T18:00:00	6	Velocidad del viento	6.4
100222	7	Sololá	704	Santa Lucía Utatlán 	7	Santa Rita 	6	Junio	2023-06-17T00:00:00	2024-11-08T18:00:00	7	Dirección del viento	6.44
100223	7	Sololá	704	Santa Lucía Utatlán 	7	Santa Rita 	6	Junio	2023-06-17T00:00:00	2024-11-08T18:00:00	1	Precipitación	1
100224	7	Sololá	704	Santa Lucía Utatlán 	7	Santa Rita 	6	Junio	2023-06-17T00:00:00	2024-11-08T18:00:00	8	Radiación solar	74
100225	7	Sololá	704	Santa Lucía Utatlán 	7	Santa Rita 	6	Junio	2023-06-17T00:00:00	2024-11-08T19:00:00	2	Temperatura media	19.8
100226	7	Sololá	704	Santa Lucía Utatlán 	7	Santa Rita 	6	Junio	2023-06-17T00:00:00	2024-11-08T19:00:00	4	Temperatura máxima	21.6
100227	7	Sololá	704	Santa Lucía Utatlán 	7	Santa Rita 	6	Junio	2023-06-17T00:00:00	2024-11-08T19:00:00	3	Temperatura mínima	19.7
100228	7	Sololá	704	Santa Lucía Utatlán 	7	Santa Rita 	6	Junio	2023-06-17T00:00:00	2024-11-08T19:00:00	5	Humedad	89
100229	7	Sololá	704	Santa Lucía Utatlán 	7	Santa Rita 	6	Junio	2023-06-17T00:00:00	2024-11-08T19:00:00	6	Velocidad del viento	3.2
100230	7	Sololá	704	Santa Lucía Utatlán 	7	Santa Rita 	6	Junio	2023-06-17T00:00:00	2024-11-08T19:00:00	7	Dirección del viento	3.22
100231	7	Sololá	704	Santa Lucía Utatlán 	7	Santa Rita 	6	Junio	2023-06-17T00:00:00	2024-11-08T19:00:00	1	Precipitación	1.4
100232	7	Sololá	704	Santa Lucía Utatlán 	7	Santa Rita 	6	Junio	2023-06-17T00:00:00	2024-11-08T19:00:00	8	Radiación solar	0
100233	7	Sololá	704	Santa Lucía Utatlán 	7	Santa Rita 	6	Junio	2023-06-17T00:00:00	2024-11-08T20:00:00	2	Temperatura media	19.2
100234	7	Sololá	704	Santa Lucía Utatlán 	7	Santa Rita 	6	Junio	2023-06-17T00:00:00	2024-11-08T20:00:00	4	Temperatura máxima	19.9
100235	7	Sololá	704	Santa Lucía Utatlán 	7	Santa Rita 	6	Junio	2023-06-17T00:00:00	2024-11-08T20:00:00	3	Temperatura mínima	19.2
100236	7	Sololá	704	Santa Lucía Utatlán 	7	Santa Rita 	6	Junio	2023-06-17T00:00:00	2024-11-08T20:00:00	5	Humedad	89
100237	7	Sololá	704	Santa Lucía Utatlán 	7	Santa Rita 	6	Junio	2023-06-17T00:00:00	2024-11-08T20:00:00	6	Velocidad del viento	3.2
100238	7	Sololá	704	Santa Lucía Utatlán 	7	Santa Rita 	6	Junio	2023-06-17T00:00:00	2024-11-08T20:00:00	7	Dirección del viento	3.22
100239	7	Sololá	704	Santa Lucía Utatlán 	7	Santa Rita 	6	Junio	2023-06-17T00:00:00	2024-11-08T20:00:00	1	Precipitación	1.8
100240	7	Sololá	704	Santa Lucía Utatlán 	7	Santa Rita 	6	Junio	2023-06-17T00:00:00	2024-11-08T20:00:00	8	Radiación solar	0
100241	7	Sololá	704	Santa Lucía Utatlán 	7	Santa Rita 	6	Junio	2023-06-17T00:00:00	2024-11-08T21:00:00	2	Temperatura media	20.2
100242	7	Sololá	704	Santa Lucía Utatlán 	7	Santa Rita 	6	Junio	2023-06-17T00:00:00	2024-11-08T21:00:00	4	Temperatura máxima	20.2
100243	7	Sololá	704	Santa Lucía Utatlán 	7	Santa Rita 	6	Junio	2023-06-17T00:00:00	2024-11-08T21:00:00	3	Temperatura mínima	19
100244	7	Sololá	704	Santa Lucía Utatlán 	7	Santa Rita 	6	Junio	2023-06-17T00:00:00	2024-11-08T21:00:00	5	Humedad	79
100245	7	Sololá	704	Santa Lucía Utatlán 	7	Santa Rita 	6	Junio	2023-06-17T00:00:00	2024-11-08T21:00:00	6	Velocidad del viento	4.8
100246	7	Sololá	704	Santa Lucía Utatlán 	7	Santa Rita 	6	Junio	2023-06-17T00:00:00	2024-11-08T21:00:00	7	Dirección del viento	4.83
100247	7	Sololá	704	Santa Lucía Utatlán 	7	Santa Rita 	6	Junio	2023-06-17T00:00:00	2024-11-08T21:00:00	1	Precipitación	0
100248	7	Sololá	704	Santa Lucía Utatlán 	7	Santa Rita 	6	Junio	2023-06-17T00:00:00	2024-11-08T21:00:00	8	Radiación solar	0
100249	7	Sololá	704	Santa Lucía Utatlán 	7	Santa Rita 	6	Junio	2023-06-17T00:00:00	2024-11-08T22:00:00	2	Temperatura media	20.3
100250	7	Sololá	704	Santa Lucía Utatlán 	7	Santa Rita 	6	Junio	2023-06-17T00:00:00	2024-11-08T22:00:00	4	Temperatura máxima	20.7
100251	7	Sololá	704	Santa Lucía Utatlán 	7	Santa Rita 	6	Junio	2023-06-17T00:00:00	2024-11-08T22:00:00	3	Temperatura mínima	19.6
100252	7	Sololá	704	Santa Lucía Utatlán 	7	Santa Rita 	6	Junio	2023-06-17T00:00:00	2024-11-08T22:00:00	5	Humedad	80
100253	7	Sololá	704	Santa Lucía Utatlán 	7	Santa Rita 	6	Junio	2023-06-17T00:00:00	2024-11-08T22:00:00	6	Velocidad del viento	4.8
100254	7	Sololá	704	Santa Lucía Utatlán 	7	Santa Rita 	6	Junio	2023-06-17T00:00:00	2024-11-08T22:00:00	7	Dirección del viento	4.83
100255	7	Sololá	704	Santa Lucía Utatlán 	7	Santa Rita 	6	Junio	2023-06-17T00:00:00	2024-11-08T22:00:00	1	Precipitación	0
100256	7	Sololá	704	Santa Lucía Utatlán 	7	Santa Rita 	6	Junio	2023-06-17T00:00:00	2024-11-08T22:00:00	8	Radiación solar	0
100257	7	Sololá	704	Santa Lucía Utatlán 	7	Santa Rita 	6	Junio	2023-06-17T00:00:00	2024-11-08T23:00:00	2	Temperatura media	20.7
100258	7	Sololá	704	Santa Lucía Utatlán 	7	Santa Rita 	6	Junio	2023-06-17T00:00:00	2024-11-08T23:00:00	4	Temperatura máxima	20.8
100259	7	Sololá	704	Santa Lucía Utatlán 	7	Santa Rita 	6	Junio	2023-06-17T00:00:00	2024-11-08T23:00:00	3	Temperatura mínima	19.6
100260	7	Sololá	704	Santa Lucía Utatlán 	7	Santa Rita 	6	Junio	2023-06-17T00:00:00	2024-11-08T23:00:00	5	Humedad	74
100261	7	Sololá	704	Santa Lucía Utatlán 	7	Santa Rita 	6	Junio	2023-06-17T00:00:00	2024-11-08T23:00:00	6	Velocidad del viento	6.4
100262	7	Sololá	704	Santa Lucía Utatlán 	7	Santa Rita 	6	Junio	2023-06-17T00:00:00	2024-11-08T23:00:00	7	Dirección del viento	6.44
100263	7	Sololá	704	Santa Lucía Utatlán 	7	Santa Rita 	6	Junio	2023-06-17T00:00:00	2024-11-08T23:00:00	1	Precipitación	0
100264	7	Sololá	704	Santa Lucía Utatlán 	7	Santa Rita 	6	Junio	2023-06-17T00:00:00	2024-11-08T23:00:00	8	Radiación solar	0
100265	7	Sololá	704	Santa Lucía Utatlán 	7	Santa Rita 	6	Junio	2023-06-18T00:00:00	2024-11-08T00:00:00	2	Temperatura media	18.8
100266	7	Sololá	704	Santa Lucía Utatlán 	7	Santa Rita 	6	Junio	2023-06-18T00:00:00	2024-11-08T00:00:00	4	Temperatura máxima	20.7
100267	7	Sololá	704	Santa Lucía Utatlán 	7	Santa Rita 	6	Junio	2023-06-18T00:00:00	2024-11-08T00:00:00	3	Temperatura mínima	18.5
100268	7	Sololá	704	Santa Lucía Utatlán 	7	Santa Rita 	6	Junio	2023-06-18T00:00:00	2024-11-08T00:00:00	5	Humedad	80
100269	7	Sololá	704	Santa Lucía Utatlán 	7	Santa Rita 	6	Junio	2023-06-18T00:00:00	2024-11-08T00:00:00	6	Velocidad del viento	3.2
100270	7	Sololá	704	Santa Lucía Utatlán 	7	Santa Rita 	6	Junio	2023-06-18T00:00:00	2024-11-08T00:00:00	7	Dirección del viento	3.22
100271	7	Sololá	704	Santa Lucía Utatlán 	7	Santa Rita 	6	Junio	2023-06-18T00:00:00	2024-11-08T00:00:00	1	Precipitación	0
100272	7	Sololá	704	Santa Lucía Utatlán 	7	Santa Rita 	6	Junio	2023-06-18T00:00:00	2024-11-08T00:00:00	8	Radiación solar	0
100273	7	Sololá	704	Santa Lucía Utatlán 	7	Santa Rita 	6	Junio	2023-06-18T00:00:00	2024-11-08T01:00:00	2	Temperatura media	17.1
100274	7	Sololá	704	Santa Lucía Utatlán 	7	Santa Rita 	6	Junio	2023-06-18T00:00:00	2024-11-08T01:00:00	4	Temperatura máxima	19.1
100275	7	Sololá	704	Santa Lucía Utatlán 	7	Santa Rita 	6	Junio	2023-06-18T00:00:00	2024-11-08T01:00:00	3	Temperatura mínima	17.1
100276	7	Sololá	704	Santa Lucía Utatlán 	7	Santa Rita 	6	Junio	2023-06-18T00:00:00	2024-11-08T01:00:00	5	Humedad	83
100277	7	Sololá	704	Santa Lucía Utatlán 	7	Santa Rita 	6	Junio	2023-06-18T00:00:00	2024-11-08T01:00:00	6	Velocidad del viento	3.2
100278	7	Sololá	704	Santa Lucía Utatlán 	7	Santa Rita 	6	Junio	2023-06-18T00:00:00	2024-11-08T01:00:00	7	Dirección del viento	3.22
100279	7	Sololá	704	Santa Lucía Utatlán 	7	Santa Rita 	6	Junio	2023-06-18T00:00:00	2024-11-08T01:00:00	1	Precipitación	0
100280	7	Sololá	704	Santa Lucía Utatlán 	7	Santa Rita 	6	Junio	2023-06-18T00:00:00	2024-11-08T01:00:00	8	Radiación solar	0
100281	7	Sololá	704	Santa Lucía Utatlán 	7	Santa Rita 	6	Junio	2023-06-18T00:00:00	2024-11-08T02:00:00	2	Temperatura media	19.4
100282	7	Sololá	704	Santa Lucía Utatlán 	7	Santa Rita 	6	Junio	2023-06-18T00:00:00	2024-11-08T02:00:00	4	Temperatura máxima	19.4
100283	7	Sololá	704	Santa Lucía Utatlán 	7	Santa Rita 	6	Junio	2023-06-18T00:00:00	2024-11-08T02:00:00	3	Temperatura mínima	16.9
100284	7	Sololá	704	Santa Lucía Utatlán 	7	Santa Rita 	6	Junio	2023-06-18T00:00:00	2024-11-08T02:00:00	5	Humedad	63
100285	7	Sololá	704	Santa Lucía Utatlán 	7	Santa Rita 	6	Junio	2023-06-18T00:00:00	2024-11-08T02:00:00	6	Velocidad del viento	4.8
100286	7	Sololá	704	Santa Lucía Utatlán 	7	Santa Rita 	6	Junio	2023-06-18T00:00:00	2024-11-08T02:00:00	7	Dirección del viento	4.83
100287	7	Sololá	704	Santa Lucía Utatlán 	7	Santa Rita 	6	Junio	2023-06-18T00:00:00	2024-11-08T02:00:00	1	Precipitación	0
100288	7	Sololá	704	Santa Lucía Utatlán 	7	Santa Rita 	6	Junio	2023-06-18T00:00:00	2024-11-08T02:00:00	8	Radiación solar	0
100289	7	Sololá	704	Santa Lucía Utatlán 	7	Santa Rita 	6	Junio	2023-06-18T00:00:00	2024-11-08T03:00:00	2	Temperatura media	19.8
100290	7	Sololá	704	Santa Lucía Utatlán 	7	Santa Rita 	6	Junio	2023-06-18T00:00:00	2024-11-08T03:00:00	4	Temperatura máxima	19.8
100291	7	Sololá	704	Santa Lucía Utatlán 	7	Santa Rita 	6	Junio	2023-06-18T00:00:00	2024-11-08T03:00:00	3	Temperatura mínima	18.2
100292	7	Sololá	704	Santa Lucía Utatlán 	7	Santa Rita 	6	Junio	2023-06-18T00:00:00	2024-11-08T03:00:00	5	Humedad	64
100293	7	Sololá	704	Santa Lucía Utatlán 	7	Santa Rita 	6	Junio	2023-06-18T00:00:00	2024-11-08T03:00:00	6	Velocidad del viento	6.4
100294	7	Sololá	704	Santa Lucía Utatlán 	7	Santa Rita 	6	Junio	2023-06-18T00:00:00	2024-11-08T03:00:00	7	Dirección del viento	6.44
100295	7	Sololá	704	Santa Lucía Utatlán 	7	Santa Rita 	6	Junio	2023-06-18T00:00:00	2024-11-08T03:00:00	1	Precipitación	0
100296	7	Sololá	704	Santa Lucía Utatlán 	7	Santa Rita 	6	Junio	2023-06-18T00:00:00	2024-11-08T03:00:00	8	Radiación solar	0
100297	7	Sololá	704	Santa Lucía Utatlán 	7	Santa Rita 	6	Junio	2023-06-18T00:00:00	2024-11-08T04:00:00	2	Temperatura media	18.6
100298	7	Sololá	704	Santa Lucía Utatlán 	7	Santa Rita 	6	Junio	2023-06-18T00:00:00	2024-11-08T04:00:00	4	Temperatura máxima	20.6
100299	7	Sololá	704	Santa Lucía Utatlán 	7	Santa Rita 	6	Junio	2023-06-18T00:00:00	2024-11-08T04:00:00	3	Temperatura mínima	18.6
100300	7	Sololá	704	Santa Lucía Utatlán 	7	Santa Rita 	6	Junio	2023-06-18T00:00:00	2024-11-08T04:00:00	5	Humedad	67
100301	7	Sololá	704	Santa Lucía Utatlán 	7	Santa Rita 	6	Junio	2023-06-18T00:00:00	2024-11-08T04:00:00	6	Velocidad del viento	6.4
100302	7	Sololá	704	Santa Lucía Utatlán 	7	Santa Rita 	6	Junio	2023-06-18T00:00:00	2024-11-08T04:00:00	7	Dirección del viento	6.44
100303	7	Sololá	704	Santa Lucía Utatlán 	7	Santa Rita 	6	Junio	2023-06-18T00:00:00	2024-11-08T04:00:00	1	Precipitación	0
100304	7	Sololá	704	Santa Lucía Utatlán 	7	Santa Rita 	6	Junio	2023-06-18T00:00:00	2024-11-08T04:00:00	8	Radiación solar	0
100305	7	Sololá	704	Santa Lucía Utatlán 	7	Santa Rita 	6	Junio	2023-06-18T00:00:00	2024-11-08T05:00:00	2	Temperatura media	18
100306	7	Sololá	704	Santa Lucía Utatlán 	7	Santa Rita 	6	Junio	2023-06-18T00:00:00	2024-11-08T05:00:00	4	Temperatura máxima	20.6
100307	7	Sololá	704	Santa Lucía Utatlán 	7	Santa Rita 	6	Junio	2023-06-18T00:00:00	2024-11-08T05:00:00	3	Temperatura mínima	17.5
100308	7	Sololá	704	Santa Lucía Utatlán 	7	Santa Rita 	6	Junio	2023-06-18T00:00:00	2024-11-08T05:00:00	5	Humedad	64
100309	7	Sololá	704	Santa Lucía Utatlán 	7	Santa Rita 	6	Junio	2023-06-18T00:00:00	2024-11-08T05:00:00	6	Velocidad del viento	6.4
100310	7	Sololá	704	Santa Lucía Utatlán 	7	Santa Rita 	6	Junio	2023-06-18T00:00:00	2024-11-08T05:00:00	7	Dirección del viento	6.44
100311	7	Sololá	704	Santa Lucía Utatlán 	7	Santa Rita 	6	Junio	2023-06-18T00:00:00	2024-11-08T05:00:00	1	Precipitación	0
100312	7	Sololá	704	Santa Lucía Utatlán 	7	Santa Rita 	6	Junio	2023-06-18T00:00:00	2024-11-08T05:00:00	8	Radiación solar	0
100313	7	Sololá	704	Santa Lucía Utatlán 	7	Santa Rita 	6	Junio	2023-06-18T00:00:00	2024-11-08T06:00:00	2	Temperatura media	20.4
100314	7	Sololá	704	Santa Lucía Utatlán 	7	Santa Rita 	6	Junio	2023-06-18T00:00:00	2024-11-08T06:00:00	4	Temperatura máxima	20.6
100315	7	Sololá	704	Santa Lucía Utatlán 	7	Santa Rita 	6	Junio	2023-06-18T00:00:00	2024-11-08T06:00:00	3	Temperatura mínima	18
100316	7	Sololá	704	Santa Lucía Utatlán 	7	Santa Rita 	6	Junio	2023-06-18T00:00:00	2024-11-08T06:00:00	5	Humedad	60
100317	7	Sololá	704	Santa Lucía Utatlán 	7	Santa Rita 	6	Junio	2023-06-18T00:00:00	2024-11-08T06:00:00	6	Velocidad del viento	6.4
100318	7	Sololá	704	Santa Lucía Utatlán 	7	Santa Rita 	6	Junio	2023-06-18T00:00:00	2024-11-08T06:00:00	7	Dirección del viento	6.44
100319	7	Sololá	704	Santa Lucía Utatlán 	7	Santa Rita 	6	Junio	2023-06-18T00:00:00	2024-11-08T06:00:00	1	Precipitación	0
100320	7	Sololá	704	Santa Lucía Utatlán 	7	Santa Rita 	6	Junio	2023-06-18T00:00:00	2024-11-08T06:00:00	8	Radiación solar	6
100321	7	Sololá	704	Santa Lucía Utatlán 	7	Santa Rita 	6	Junio	2023-06-18T00:00:00	2024-11-08T07:00:00	2	Temperatura media	21.4
100322	7	Sololá	704	Santa Lucía Utatlán 	7	Santa Rita 	6	Junio	2023-06-18T00:00:00	2024-11-08T07:00:00	4	Temperatura máxima	21.6
100323	7	Sololá	704	Santa Lucía Utatlán 	7	Santa Rita 	6	Junio	2023-06-18T00:00:00	2024-11-08T07:00:00	3	Temperatura mínima	19.1
100324	7	Sololá	704	Santa Lucía Utatlán 	7	Santa Rita 	6	Junio	2023-06-18T00:00:00	2024-11-08T07:00:00	5	Humedad	61
100325	7	Sololá	704	Santa Lucía Utatlán 	7	Santa Rita 	6	Junio	2023-06-18T00:00:00	2024-11-08T07:00:00	6	Velocidad del viento	4.8
100326	7	Sololá	704	Santa Lucía Utatlán 	7	Santa Rita 	6	Junio	2023-06-18T00:00:00	2024-11-08T07:00:00	7	Dirección del viento	4.83
100327	7	Sololá	704	Santa Lucía Utatlán 	7	Santa Rita 	6	Junio	2023-06-18T00:00:00	2024-11-08T07:00:00	1	Precipitación	0
100328	7	Sololá	704	Santa Lucía Utatlán 	7	Santa Rita 	6	Junio	2023-06-18T00:00:00	2024-11-08T07:00:00	8	Radiación solar	59
100329	7	Sololá	704	Santa Lucía Utatlán 	7	Santa Rita 	6	Junio	2023-06-18T00:00:00	2024-11-08T08:00:00	2	Temperatura media	23.4
100330	7	Sololá	704	Santa Lucía Utatlán 	7	Santa Rita 	6	Junio	2023-06-18T00:00:00	2024-11-08T08:00:00	4	Temperatura máxima	23.4
100331	7	Sololá	704	Santa Lucía Utatlán 	7	Santa Rita 	6	Junio	2023-06-18T00:00:00	2024-11-08T08:00:00	3	Temperatura mínima	21.1
100332	7	Sololá	704	Santa Lucía Utatlán 	7	Santa Rita 	6	Junio	2023-06-18T00:00:00	2024-11-08T08:00:00	5	Humedad	55
100333	7	Sololá	704	Santa Lucía Utatlán 	7	Santa Rita 	6	Junio	2023-06-18T00:00:00	2024-11-08T08:00:00	6	Velocidad del viento	3.2
100334	7	Sololá	704	Santa Lucía Utatlán 	7	Santa Rita 	6	Junio	2023-06-18T00:00:00	2024-11-08T08:00:00	7	Dirección del viento	3.22
100335	7	Sololá	704	Santa Lucía Utatlán 	7	Santa Rita 	6	Junio	2023-06-18T00:00:00	2024-11-08T08:00:00	1	Precipitación	0
100336	7	Sololá	704	Santa Lucía Utatlán 	7	Santa Rita 	6	Junio	2023-06-18T00:00:00	2024-11-08T08:00:00	8	Radiación solar	433
100337	7	Sololá	704	Santa Lucía Utatlán 	7	Santa Rita 	6	Junio	2023-06-18T00:00:00	2024-11-08T09:00:00	2	Temperatura media	24
100338	7	Sololá	704	Santa Lucía Utatlán 	7	Santa Rita 	6	Junio	2023-06-18T00:00:00	2024-11-08T09:00:00	4	Temperatura máxima	24.1
100339	7	Sololá	704	Santa Lucía Utatlán 	7	Santa Rita 	6	Junio	2023-06-18T00:00:00	2024-11-08T09:00:00	3	Temperatura mínima	23.4
100340	7	Sololá	704	Santa Lucía Utatlán 	7	Santa Rita 	6	Junio	2023-06-18T00:00:00	2024-11-08T09:00:00	5	Humedad	51
100341	7	Sololá	704	Santa Lucía Utatlán 	7	Santa Rita 	6	Junio	2023-06-18T00:00:00	2024-11-08T09:00:00	6	Velocidad del viento	8
100342	7	Sololá	704	Santa Lucía Utatlán 	7	Santa Rita 	6	Junio	2023-06-18T00:00:00	2024-11-08T09:00:00	7	Dirección del viento	8.05
100343	7	Sololá	704	Santa Lucía Utatlán 	7	Santa Rita 	6	Junio	2023-06-18T00:00:00	2024-11-08T09:00:00	1	Precipitación	0
100344	7	Sololá	704	Santa Lucía Utatlán 	7	Santa Rita 	6	Junio	2023-06-18T00:00:00	2024-11-08T09:00:00	8	Radiación solar	658
100345	7	Sololá	704	Santa Lucía Utatlán 	7	Santa Rita 	6	Junio	2023-06-18T00:00:00	2024-11-08T10:00:00	2	Temperatura media	25.3
100346	7	Sololá	704	Santa Lucía Utatlán 	7	Santa Rita 	6	Junio	2023-06-18T00:00:00	2024-11-08T10:00:00	4	Temperatura máxima	25.5
100347	7	Sololá	704	Santa Lucía Utatlán 	7	Santa Rita 	6	Junio	2023-06-18T00:00:00	2024-11-08T10:00:00	3	Temperatura mínima	23.9
100348	7	Sololá	704	Santa Lucía Utatlán 	7	Santa Rita 	6	Junio	2023-06-18T00:00:00	2024-11-08T10:00:00	5	Humedad	47
100349	7	Sololá	704	Santa Lucía Utatlán 	7	Santa Rita 	6	Junio	2023-06-18T00:00:00	2024-11-08T10:00:00	6	Velocidad del viento	8
100350	7	Sololá	704	Santa Lucía Utatlán 	7	Santa Rita 	6	Junio	2023-06-18T00:00:00	2024-11-08T10:00:00	7	Dirección del viento	8.05
100351	7	Sololá	704	Santa Lucía Utatlán 	7	Santa Rita 	6	Junio	2023-06-18T00:00:00	2024-11-08T10:00:00	1	Precipitación	0
100352	7	Sololá	704	Santa Lucía Utatlán 	7	Santa Rita 	6	Junio	2023-06-18T00:00:00	2024-11-08T10:00:00	8	Radiación solar	844
100353	7	Sololá	704	Santa Lucía Utatlán 	7	Santa Rita 	6	Junio	2023-06-18T00:00:00	2024-11-08T11:00:00	2	Temperatura media	26.5
100354	7	Sololá	704	Santa Lucía Utatlán 	7	Santa Rita 	6	Junio	2023-06-18T00:00:00	2024-11-08T11:00:00	4	Temperatura máxima	26.5
100355	7	Sololá	704	Santa Lucía Utatlán 	7	Santa Rita 	6	Junio	2023-06-18T00:00:00	2024-11-08T11:00:00	3	Temperatura mínima	25.1
100356	7	Sololá	704	Santa Lucía Utatlán 	7	Santa Rita 	6	Junio	2023-06-18T00:00:00	2024-11-08T11:00:00	5	Humedad	42
100357	7	Sololá	704	Santa Lucía Utatlán 	7	Santa Rita 	6	Junio	2023-06-18T00:00:00	2024-11-08T11:00:00	6	Velocidad del viento	9.7
100358	7	Sololá	704	Santa Lucía Utatlán 	7	Santa Rita 	6	Junio	2023-06-18T00:00:00	2024-11-08T11:00:00	7	Dirección del viento	9.66
100359	7	Sololá	704	Santa Lucía Utatlán 	7	Santa Rita 	6	Junio	2023-06-18T00:00:00	2024-11-08T11:00:00	1	Precipitación	0
100360	7	Sololá	704	Santa Lucía Utatlán 	7	Santa Rita 	6	Junio	2023-06-18T00:00:00	2024-11-08T11:00:00	8	Radiación solar	967
100361	7	Sololá	704	Santa Lucía Utatlán 	7	Santa Rita 	6	Junio	2023-06-18T00:00:00	2024-11-08T12:00:00	2	Temperatura media	26.3
100362	7	Sololá	704	Santa Lucía Utatlán 	7	Santa Rita 	6	Junio	2023-06-18T00:00:00	2024-11-08T12:00:00	4	Temperatura máxima	26.7
100363	7	Sololá	704	Santa Lucía Utatlán 	7	Santa Rita 	6	Junio	2023-06-18T00:00:00	2024-11-08T12:00:00	3	Temperatura mínima	26.3
100364	7	Sololá	704	Santa Lucía Utatlán 	7	Santa Rita 	6	Junio	2023-06-18T00:00:00	2024-11-08T12:00:00	5	Humedad	39
100365	7	Sololá	704	Santa Lucía Utatlán 	7	Santa Rita 	6	Junio	2023-06-18T00:00:00	2024-11-08T12:00:00	6	Velocidad del viento	11.3
100366	7	Sololá	704	Santa Lucía Utatlán 	7	Santa Rita 	6	Junio	2023-06-18T00:00:00	2024-11-08T12:00:00	7	Dirección del viento	11.27
100367	7	Sololá	704	Santa Lucía Utatlán 	7	Santa Rita 	6	Junio	2023-06-18T00:00:00	2024-11-08T12:00:00	1	Precipitación	0
100368	7	Sololá	704	Santa Lucía Utatlán 	7	Santa Rita 	6	Junio	2023-06-18T00:00:00	2024-11-08T12:00:00	8	Radiación solar	1030
100369	7	Sololá	704	Santa Lucía Utatlán 	7	Santa Rita 	6	Junio	2023-06-18T00:00:00	2024-11-08T13:00:00	2	Temperatura media	26.5
100370	7	Sololá	704	Santa Lucía Utatlán 	7	Santa Rita 	6	Junio	2023-06-18T00:00:00	2024-11-08T13:00:00	4	Temperatura máxima	27
100371	7	Sololá	704	Santa Lucía Utatlán 	7	Santa Rita 	6	Junio	2023-06-18T00:00:00	2024-11-08T13:00:00	3	Temperatura mínima	26.2
100372	7	Sololá	704	Santa Lucía Utatlán 	7	Santa Rita 	6	Junio	2023-06-18T00:00:00	2024-11-08T13:00:00	5	Humedad	42
100373	7	Sololá	704	Santa Lucía Utatlán 	7	Santa Rita 	6	Junio	2023-06-18T00:00:00	2024-11-08T13:00:00	6	Velocidad del viento	11.3
100374	7	Sololá	704	Santa Lucía Utatlán 	7	Santa Rita 	6	Junio	2023-06-18T00:00:00	2024-11-08T13:00:00	7	Dirección del viento	11.27
100375	7	Sololá	704	Santa Lucía Utatlán 	7	Santa Rita 	6	Junio	2023-06-18T00:00:00	2024-11-08T13:00:00	1	Precipitación	0
100376	7	Sololá	704	Santa Lucía Utatlán 	7	Santa Rita 	6	Junio	2023-06-18T00:00:00	2024-11-08T13:00:00	8	Radiación solar	1022
100377	7	Sololá	704	Santa Lucía Utatlán 	7	Santa Rita 	6	Junio	2023-06-18T00:00:00	2024-11-08T14:00:00	2	Temperatura media	26.7
100378	7	Sololá	704	Santa Lucía Utatlán 	7	Santa Rita 	6	Junio	2023-06-18T00:00:00	2024-11-08T14:00:00	4	Temperatura máxima	27.5
100379	7	Sololá	704	Santa Lucía Utatlán 	7	Santa Rita 	6	Junio	2023-06-18T00:00:00	2024-11-08T14:00:00	3	Temperatura mínima	26.4
100380	7	Sololá	704	Santa Lucía Utatlán 	7	Santa Rita 	6	Junio	2023-06-18T00:00:00	2024-11-08T14:00:00	5	Humedad	44
100381	7	Sololá	704	Santa Lucía Utatlán 	7	Santa Rita 	6	Junio	2023-06-18T00:00:00	2024-11-08T14:00:00	6	Velocidad del viento	12.9
100382	7	Sololá	704	Santa Lucía Utatlán 	7	Santa Rita 	6	Junio	2023-06-18T00:00:00	2024-11-08T14:00:00	7	Dirección del viento	12.87
100383	7	Sololá	704	Santa Lucía Utatlán 	7	Santa Rita 	6	Junio	2023-06-18T00:00:00	2024-11-08T14:00:00	1	Precipitación	0
100384	7	Sololá	704	Santa Lucía Utatlán 	7	Santa Rita 	6	Junio	2023-06-18T00:00:00	2024-11-08T14:00:00	8	Radiación solar	961
100385	7	Sololá	704	Santa Lucía Utatlán 	7	Santa Rita 	6	Junio	2023-06-18T00:00:00	2024-11-08T15:00:00	2	Temperatura media	26.9
100386	7	Sololá	704	Santa Lucía Utatlán 	7	Santa Rita 	6	Junio	2023-06-18T00:00:00	2024-11-08T15:00:00	4	Temperatura máxima	27.1
100387	7	Sololá	704	Santa Lucía Utatlán 	7	Santa Rita 	6	Junio	2023-06-18T00:00:00	2024-11-08T15:00:00	3	Temperatura mínima	26.5
100388	7	Sololá	704	Santa Lucía Utatlán 	7	Santa Rita 	6	Junio	2023-06-18T00:00:00	2024-11-08T15:00:00	5	Humedad	46
100389	7	Sololá	704	Santa Lucía Utatlán 	7	Santa Rita 	6	Junio	2023-06-18T00:00:00	2024-11-08T15:00:00	6	Velocidad del viento	9.7
100390	7	Sololá	704	Santa Lucía Utatlán 	7	Santa Rita 	6	Junio	2023-06-18T00:00:00	2024-11-08T15:00:00	7	Dirección del viento	9.66
100391	7	Sololá	704	Santa Lucía Utatlán 	7	Santa Rita 	6	Junio	2023-06-18T00:00:00	2024-11-08T15:00:00	1	Precipitación	0
100392	7	Sololá	704	Santa Lucía Utatlán 	7	Santa Rita 	6	Junio	2023-06-18T00:00:00	2024-11-08T15:00:00	8	Radiación solar	794
100393	7	Sololá	704	Santa Lucía Utatlán 	7	Santa Rita 	6	Junio	2023-06-18T00:00:00	2024-11-08T16:00:00	2	Temperatura media	26.5
100394	7	Sololá	704	Santa Lucía Utatlán 	7	Santa Rita 	6	Junio	2023-06-18T00:00:00	2024-11-08T16:00:00	4	Temperatura máxima	26.9
100395	7	Sololá	704	Santa Lucía Utatlán 	7	Santa Rita 	6	Junio	2023-06-18T00:00:00	2024-11-08T16:00:00	3	Temperatura mínima	26.1
100396	7	Sololá	704	Santa Lucía Utatlán 	7	Santa Rita 	6	Junio	2023-06-18T00:00:00	2024-11-08T16:00:00	5	Humedad	48
100397	7	Sololá	704	Santa Lucía Utatlán 	7	Santa Rita 	6	Junio	2023-06-18T00:00:00	2024-11-08T16:00:00	6	Velocidad del viento	8
100398	7	Sololá	704	Santa Lucía Utatlán 	7	Santa Rita 	6	Junio	2023-06-18T00:00:00	2024-11-08T16:00:00	7	Dirección del viento	8.05
100399	7	Sololá	704	Santa Lucía Utatlán 	7	Santa Rita 	6	Junio	2023-06-18T00:00:00	2024-11-08T16:00:00	1	Precipitación	0
100400	7	Sololá	704	Santa Lucía Utatlán 	7	Santa Rita 	6	Junio	2023-06-18T00:00:00	2024-11-08T16:00:00	8	Radiación solar	506
100401	7	Sololá	704	Santa Lucía Utatlán 	7	Santa Rita 	6	Junio	2023-06-18T00:00:00	2024-11-08T17:00:00	2	Temperatura media	25.7
100402	7	Sololá	704	Santa Lucía Utatlán 	7	Santa Rita 	6	Junio	2023-06-18T00:00:00	2024-11-08T17:00:00	4	Temperatura máxima	26.5
100403	7	Sololá	704	Santa Lucía Utatlán 	7	Santa Rita 	6	Junio	2023-06-18T00:00:00	2024-11-08T17:00:00	3	Temperatura mínima	25.7
100404	7	Sololá	704	Santa Lucía Utatlán 	7	Santa Rita 	6	Junio	2023-06-18T00:00:00	2024-11-08T17:00:00	5	Humedad	48
100405	7	Sololá	704	Santa Lucía Utatlán 	7	Santa Rita 	6	Junio	2023-06-18T00:00:00	2024-11-08T17:00:00	6	Velocidad del viento	9.7
100406	7	Sololá	704	Santa Lucía Utatlán 	7	Santa Rita 	6	Junio	2023-06-18T00:00:00	2024-11-08T17:00:00	7	Dirección del viento	9.66
100407	7	Sololá	704	Santa Lucía Utatlán 	7	Santa Rita 	6	Junio	2023-06-18T00:00:00	2024-11-08T17:00:00	1	Precipitación	0
100408	7	Sololá	704	Santa Lucía Utatlán 	7	Santa Rita 	6	Junio	2023-06-18T00:00:00	2024-11-08T17:00:00	8	Radiación solar	386
100409	7	Sololá	704	Santa Lucía Utatlán 	7	Santa Rita 	6	Junio	2023-06-18T00:00:00	2024-11-08T18:00:00	2	Temperatura media	24.2
100410	7	Sololá	704	Santa Lucía Utatlán 	7	Santa Rita 	6	Junio	2023-06-18T00:00:00	2024-11-08T18:00:00	4	Temperatura máxima	25.7
100411	7	Sololá	704	Santa Lucía Utatlán 	7	Santa Rita 	6	Junio	2023-06-18T00:00:00	2024-11-08T18:00:00	3	Temperatura mínima	24.2
100412	7	Sololá	704	Santa Lucía Utatlán 	7	Santa Rita 	6	Junio	2023-06-18T00:00:00	2024-11-08T18:00:00	5	Humedad	62
100413	7	Sololá	704	Santa Lucía Utatlán 	7	Santa Rita 	6	Junio	2023-06-18T00:00:00	2024-11-08T18:00:00	6	Velocidad del viento	8
100414	7	Sololá	704	Santa Lucía Utatlán 	7	Santa Rita 	6	Junio	2023-06-18T00:00:00	2024-11-08T18:00:00	7	Dirección del viento	8.05
100415	7	Sololá	704	Santa Lucía Utatlán 	7	Santa Rita 	6	Junio	2023-06-18T00:00:00	2024-11-08T18:00:00	1	Precipitación	0
100416	7	Sololá	704	Santa Lucía Utatlán 	7	Santa Rita 	6	Junio	2023-06-18T00:00:00	2024-11-08T18:00:00	8	Radiación solar	161
100417	7	Sololá	704	Santa Lucía Utatlán 	7	Santa Rita 	6	Junio	2023-06-18T00:00:00	2024-11-08T19:00:00	2	Temperatura media	22.4
100418	7	Sololá	704	Santa Lucía Utatlán 	7	Santa Rita 	6	Junio	2023-06-18T00:00:00	2024-11-08T19:00:00	4	Temperatura máxima	24.2
100419	7	Sololá	704	Santa Lucía Utatlán 	7	Santa Rita 	6	Junio	2023-06-18T00:00:00	2024-11-08T19:00:00	3	Temperatura mínima	22.4
100420	7	Sololá	704	Santa Lucía Utatlán 	7	Santa Rita 	6	Junio	2023-06-18T00:00:00	2024-11-08T19:00:00	5	Humedad	75
100421	7	Sololá	704	Santa Lucía Utatlán 	7	Santa Rita 	6	Junio	2023-06-18T00:00:00	2024-11-08T19:00:00	6	Velocidad del viento	8
100422	7	Sololá	704	Santa Lucía Utatlán 	7	Santa Rita 	6	Junio	2023-06-18T00:00:00	2024-11-08T19:00:00	7	Dirección del viento	8.05
100423	7	Sololá	704	Santa Lucía Utatlán 	7	Santa Rita 	6	Junio	2023-06-18T00:00:00	2024-11-08T19:00:00	1	Precipitación	0
100424	7	Sololá	704	Santa Lucía Utatlán 	7	Santa Rita 	6	Junio	2023-06-18T00:00:00	2024-11-08T19:00:00	8	Radiación solar	0
100425	7	Sololá	704	Santa Lucía Utatlán 	7	Santa Rita 	6	Junio	2023-06-18T00:00:00	2024-11-08T20:00:00	2	Temperatura media	21.9
100426	7	Sololá	704	Santa Lucía Utatlán 	7	Santa Rita 	6	Junio	2023-06-18T00:00:00	2024-11-08T20:00:00	4	Temperatura máxima	22.4
100427	7	Sololá	704	Santa Lucía Utatlán 	7	Santa Rita 	6	Junio	2023-06-18T00:00:00	2024-11-08T20:00:00	3	Temperatura mínima	21.9
100428	7	Sololá	704	Santa Lucía Utatlán 	7	Santa Rita 	6	Junio	2023-06-18T00:00:00	2024-11-08T20:00:00	5	Humedad	77
100429	7	Sololá	704	Santa Lucía Utatlán 	7	Santa Rita 	6	Junio	2023-06-18T00:00:00	2024-11-08T20:00:00	6	Velocidad del viento	4.8
100430	7	Sololá	704	Santa Lucía Utatlán 	7	Santa Rita 	6	Junio	2023-06-18T00:00:00	2024-11-08T20:00:00	7	Dirección del viento	4.83
100431	7	Sololá	704	Santa Lucía Utatlán 	7	Santa Rita 	6	Junio	2023-06-18T00:00:00	2024-11-08T20:00:00	1	Precipitación	0
100432	7	Sololá	704	Santa Lucía Utatlán 	7	Santa Rita 	6	Junio	2023-06-18T00:00:00	2024-11-08T20:00:00	8	Radiación solar	0
100433	7	Sololá	704	Santa Lucía Utatlán 	7	Santa Rita 	6	Junio	2023-06-18T00:00:00	2024-11-08T21:00:00	2	Temperatura media	21.4
100434	7	Sololá	704	Santa Lucía Utatlán 	7	Santa Rita 	6	Junio	2023-06-18T00:00:00	2024-11-08T21:00:00	4	Temperatura máxima	22
100435	7	Sololá	704	Santa Lucía Utatlán 	7	Santa Rita 	6	Junio	2023-06-18T00:00:00	2024-11-08T21:00:00	3	Temperatura mínima	21.4
100436	7	Sololá	704	Santa Lucía Utatlán 	7	Santa Rita 	6	Junio	2023-06-18T00:00:00	2024-11-08T21:00:00	5	Humedad	70
100437	7	Sololá	704	Santa Lucía Utatlán 	7	Santa Rita 	6	Junio	2023-06-18T00:00:00	2024-11-08T21:00:00	6	Velocidad del viento	8
100438	7	Sololá	704	Santa Lucía Utatlán 	7	Santa Rita 	6	Junio	2023-06-18T00:00:00	2024-11-08T21:00:00	7	Dirección del viento	8.05
100439	7	Sololá	704	Santa Lucía Utatlán 	7	Santa Rita 	6	Junio	2023-06-18T00:00:00	2024-11-08T21:00:00	1	Precipitación	0
100440	7	Sololá	704	Santa Lucía Utatlán 	7	Santa Rita 	6	Junio	2023-06-18T00:00:00	2024-11-08T21:00:00	8	Radiación solar	0
100441	7	Sololá	704	Santa Lucía Utatlán 	7	Santa Rita 	6	Junio	2023-06-18T00:00:00	2024-11-08T22:00:00	2	Temperatura media	19.9
100442	7	Sololá	704	Santa Lucía Utatlán 	7	Santa Rita 	6	Junio	2023-06-18T00:00:00	2024-11-08T22:00:00	4	Temperatura máxima	21.5
100443	7	Sololá	704	Santa Lucía Utatlán 	7	Santa Rita 	6	Junio	2023-06-18T00:00:00	2024-11-08T22:00:00	3	Temperatura mínima	19.9
100444	7	Sololá	704	Santa Lucía Utatlán 	7	Santa Rita 	6	Junio	2023-06-18T00:00:00	2024-11-08T22:00:00	5	Humedad	75
100445	7	Sololá	704	Santa Lucía Utatlán 	7	Santa Rita 	6	Junio	2023-06-18T00:00:00	2024-11-08T22:00:00	6	Velocidad del viento	6.4
100446	7	Sololá	704	Santa Lucía Utatlán 	7	Santa Rita 	6	Junio	2023-06-18T00:00:00	2024-11-08T22:00:00	7	Dirección del viento	6.44
100447	7	Sololá	704	Santa Lucía Utatlán 	7	Santa Rita 	6	Junio	2023-06-18T00:00:00	2024-11-08T22:00:00	1	Precipitación	0
100448	7	Sololá	704	Santa Lucía Utatlán 	7	Santa Rita 	6	Junio	2023-06-18T00:00:00	2024-11-08T22:00:00	8	Radiación solar	0
100449	7	Sololá	704	Santa Lucía Utatlán 	7	Santa Rita 	6	Junio	2023-06-18T00:00:00	2024-11-08T23:00:00	2	Temperatura media	20.7
100450	7	Sololá	704	Santa Lucía Utatlán 	7	Santa Rita 	6	Junio	2023-06-18T00:00:00	2024-11-08T23:00:00	4	Temperatura máxima	20.8
100451	7	Sololá	704	Santa Lucía Utatlán 	7	Santa Rita 	6	Junio	2023-06-18T00:00:00	2024-11-08T23:00:00	3	Temperatura mínima	19.6
100452	7	Sololá	704	Santa Lucía Utatlán 	7	Santa Rita 	6	Junio	2023-06-18T00:00:00	2024-11-08T23:00:00	5	Humedad	70
100453	7	Sololá	704	Santa Lucía Utatlán 	7	Santa Rita 	6	Junio	2023-06-18T00:00:00	2024-11-08T23:00:00	6	Velocidad del viento	8
100454	7	Sololá	704	Santa Lucía Utatlán 	7	Santa Rita 	6	Junio	2023-06-18T00:00:00	2024-11-08T23:00:00	7	Dirección del viento	8.05
100455	7	Sololá	704	Santa Lucía Utatlán 	7	Santa Rita 	6	Junio	2023-06-18T00:00:00	2024-11-08T23:00:00	1	Precipitación	0
100456	7	Sololá	704	Santa Lucía Utatlán 	7	Santa Rita 	6	Junio	2023-06-18T00:00:00	2024-11-08T23:00:00	8	Radiación solar	0
100457	7	Sololá	704	Santa Lucía Utatlán 	7	Santa Rita 	6	Junio	2023-06-19T00:00:00	2024-11-08T00:00:00	2	Temperatura media	20.6
100458	7	Sololá	704	Santa Lucía Utatlán 	7	Santa Rita 	6	Junio	2023-06-19T00:00:00	2024-11-08T00:00:00	4	Temperatura máxima	20.7
100459	7	Sololá	704	Santa Lucía Utatlán 	7	Santa Rita 	6	Junio	2023-06-19T00:00:00	2024-11-08T00:00:00	3	Temperatura mínima	20.4
100460	7	Sololá	704	Santa Lucía Utatlán 	7	Santa Rita 	6	Junio	2023-06-19T00:00:00	2024-11-08T00:00:00	5	Humedad	69
100461	7	Sololá	704	Santa Lucía Utatlán 	7	Santa Rita 	6	Junio	2023-06-19T00:00:00	2024-11-08T00:00:00	6	Velocidad del viento	6.4
100462	7	Sololá	704	Santa Lucía Utatlán 	7	Santa Rita 	6	Junio	2023-06-19T00:00:00	2024-11-08T00:00:00	7	Dirección del viento	6.44
100463	7	Sololá	704	Santa Lucía Utatlán 	7	Santa Rita 	6	Junio	2023-06-19T00:00:00	2024-11-08T00:00:00	1	Precipitación	0
100464	7	Sololá	704	Santa Lucía Utatlán 	7	Santa Rita 	6	Junio	2023-06-19T00:00:00	2024-11-08T00:00:00	8	Radiación solar	0
100465	7	Sololá	704	Santa Lucía Utatlán 	7	Santa Rita 	6	Junio	2023-06-19T00:00:00	2024-11-08T01:00:00	2	Temperatura media	20.8
100466	7	Sololá	704	Santa Lucía Utatlán 	7	Santa Rita 	6	Junio	2023-06-19T00:00:00	2024-11-08T01:00:00	4	Temperatura máxima	20.8
100467	7	Sololá	704	Santa Lucía Utatlán 	7	Santa Rita 	6	Junio	2023-06-19T00:00:00	2024-11-08T01:00:00	3	Temperatura mínima	20.4
100468	7	Sololá	704	Santa Lucía Utatlán 	7	Santa Rita 	6	Junio	2023-06-19T00:00:00	2024-11-08T01:00:00	5	Humedad	67
100469	7	Sololá	704	Santa Lucía Utatlán 	7	Santa Rita 	6	Junio	2023-06-19T00:00:00	2024-11-08T01:00:00	6	Velocidad del viento	6.4
100470	7	Sololá	704	Santa Lucía Utatlán 	7	Santa Rita 	6	Junio	2023-06-19T00:00:00	2024-11-08T01:00:00	7	Dirección del viento	6.44
100471	7	Sololá	704	Santa Lucía Utatlán 	7	Santa Rita 	6	Junio	2023-06-19T00:00:00	2024-11-08T01:00:00	1	Precipitación	0
100472	7	Sololá	704	Santa Lucía Utatlán 	7	Santa Rita 	6	Junio	2023-06-19T00:00:00	2024-11-08T01:00:00	8	Radiación solar	0
100473	7	Sololá	704	Santa Lucía Utatlán 	7	Santa Rita 	6	Junio	2023-06-19T00:00:00	2024-11-08T02:00:00	2	Temperatura media	21
100474	7	Sololá	704	Santa Lucía Utatlán 	7	Santa Rita 	6	Junio	2023-06-19T00:00:00	2024-11-08T02:00:00	4	Temperatura máxima	21
100475	7	Sololá	704	Santa Lucía Utatlán 	7	Santa Rita 	6	Junio	2023-06-19T00:00:00	2024-11-08T02:00:00	3	Temperatura mínima	20.6
100476	7	Sololá	704	Santa Lucía Utatlán 	7	Santa Rita 	6	Junio	2023-06-19T00:00:00	2024-11-08T02:00:00	5	Humedad	69
100477	7	Sololá	704	Santa Lucía Utatlán 	7	Santa Rita 	6	Junio	2023-06-19T00:00:00	2024-11-08T02:00:00	6	Velocidad del viento	11.3
100478	7	Sololá	704	Santa Lucía Utatlán 	7	Santa Rita 	6	Junio	2023-06-19T00:00:00	2024-11-08T02:00:00	7	Dirección del viento	11.27
100479	7	Sololá	704	Santa Lucía Utatlán 	7	Santa Rita 	6	Junio	2023-06-19T00:00:00	2024-11-08T02:00:00	1	Precipitación	0
100480	7	Sololá	704	Santa Lucía Utatlán 	7	Santa Rita 	6	Junio	2023-06-19T00:00:00	2024-11-08T02:00:00	8	Radiación solar	0
100481	7	Sololá	704	Santa Lucía Utatlán 	7	Santa Rita 	6	Junio	2023-06-19T00:00:00	2024-11-08T03:00:00	2	Temperatura media	20.8
100482	7	Sololá	704	Santa Lucía Utatlán 	7	Santa Rita 	6	Junio	2023-06-19T00:00:00	2024-11-08T03:00:00	4	Temperatura máxima	21.1
100483	7	Sololá	704	Santa Lucía Utatlán 	7	Santa Rita 	6	Junio	2023-06-19T00:00:00	2024-11-08T03:00:00	3	Temperatura mínima	20.8
100484	7	Sololá	704	Santa Lucía Utatlán 	7	Santa Rita 	6	Junio	2023-06-19T00:00:00	2024-11-08T03:00:00	5	Humedad	70
100485	7	Sololá	704	Santa Lucía Utatlán 	7	Santa Rita 	6	Junio	2023-06-19T00:00:00	2024-11-08T03:00:00	6	Velocidad del viento	6.4
100486	7	Sololá	704	Santa Lucía Utatlán 	7	Santa Rita 	6	Junio	2023-06-19T00:00:00	2024-11-08T03:00:00	7	Dirección del viento	6.44
100487	7	Sololá	704	Santa Lucía Utatlán 	7	Santa Rita 	6	Junio	2023-06-19T00:00:00	2024-11-08T03:00:00	1	Precipitación	0
100488	7	Sololá	704	Santa Lucía Utatlán 	7	Santa Rita 	6	Junio	2023-06-19T00:00:00	2024-11-08T03:00:00	8	Radiación solar	0
100489	7	Sololá	704	Santa Lucía Utatlán 	7	Santa Rita 	6	Junio	2023-06-19T00:00:00	2024-11-08T04:00:00	2	Temperatura media	20.3
100490	7	Sololá	704	Santa Lucía Utatlán 	7	Santa Rita 	6	Junio	2023-06-19T00:00:00	2024-11-08T04:00:00	4	Temperatura máxima	20.9
100491	7	Sololá	704	Santa Lucía Utatlán 	7	Santa Rita 	6	Junio	2023-06-19T00:00:00	2024-11-08T04:00:00	3	Temperatura mínima	19.8
100492	7	Sololá	704	Santa Lucía Utatlán 	7	Santa Rita 	6	Junio	2023-06-19T00:00:00	2024-11-08T04:00:00	5	Humedad	74
100493	7	Sololá	704	Santa Lucía Utatlán 	7	Santa Rita 	6	Junio	2023-06-19T00:00:00	2024-11-08T04:00:00	6	Velocidad del viento	4.8
100494	7	Sololá	704	Santa Lucía Utatlán 	7	Santa Rita 	6	Junio	2023-06-19T00:00:00	2024-11-08T04:00:00	7	Dirección del viento	4.83
100495	7	Sololá	704	Santa Lucía Utatlán 	7	Santa Rita 	6	Junio	2023-06-19T00:00:00	2024-11-08T04:00:00	1	Precipitación	0
100496	7	Sololá	704	Santa Lucía Utatlán 	7	Santa Rita 	6	Junio	2023-06-19T00:00:00	2024-11-08T04:00:00	8	Radiación solar	0
100497	7	Sololá	704	Santa Lucía Utatlán 	7	Santa Rita 	6	Junio	2023-06-19T00:00:00	2024-11-08T05:00:00	2	Temperatura media	20.6
100498	7	Sololá	704	Santa Lucía Utatlán 	7	Santa Rita 	6	Junio	2023-06-19T00:00:00	2024-11-08T05:00:00	4	Temperatura máxima	20.6
100499	7	Sololá	704	Santa Lucía Utatlán 	7	Santa Rita 	6	Junio	2023-06-19T00:00:00	2024-11-08T05:00:00	3	Temperatura mínima	18.9
100500	7	Sololá	704	Santa Lucía Utatlán 	7	Santa Rita 	6	Junio	2023-06-19T00:00:00	2024-11-08T05:00:00	5	Humedad	70
100501	7	Sololá	704	Santa Lucía Utatlán 	7	Santa Rita 	6	Junio	2023-06-19T00:00:00	2024-11-08T05:00:00	6	Velocidad del viento	4.8
100502	7	Sololá	704	Santa Lucía Utatlán 	7	Santa Rita 	6	Junio	2023-06-19T00:00:00	2024-11-08T05:00:00	7	Dirección del viento	4.83
100503	7	Sololá	704	Santa Lucía Utatlán 	7	Santa Rita 	6	Junio	2023-06-19T00:00:00	2024-11-08T05:00:00	1	Precipitación	0
100504	7	Sololá	704	Santa Lucía Utatlán 	7	Santa Rita 	6	Junio	2023-06-19T00:00:00	2024-11-08T05:00:00	8	Radiación solar	0
100505	7	Sololá	704	Santa Lucía Utatlán 	7	Santa Rita 	6	Junio	2023-06-19T00:00:00	2024-11-08T06:00:00	2	Temperatura media	18.8
100506	7	Sololá	704	Santa Lucía Utatlán 	7	Santa Rita 	6	Junio	2023-06-19T00:00:00	2024-11-08T06:00:00	4	Temperatura máxima	20.8
100507	7	Sololá	704	Santa Lucía Utatlán 	7	Santa Rita 	6	Junio	2023-06-19T00:00:00	2024-11-08T06:00:00	3	Temperatura mínima	18.7
100508	7	Sololá	704	Santa Lucía Utatlán 	7	Santa Rita 	6	Junio	2023-06-19T00:00:00	2024-11-08T06:00:00	5	Humedad	79
100509	7	Sololá	704	Santa Lucía Utatlán 	7	Santa Rita 	6	Junio	2023-06-19T00:00:00	2024-11-08T06:00:00	6	Velocidad del viento	3.2
100510	7	Sololá	704	Santa Lucía Utatlán 	7	Santa Rita 	6	Junio	2023-06-19T00:00:00	2024-11-08T06:00:00	7	Dirección del viento	3.22
100511	7	Sololá	704	Santa Lucía Utatlán 	7	Santa Rita 	6	Junio	2023-06-19T00:00:00	2024-11-08T06:00:00	1	Precipitación	0
100512	7	Sololá	704	Santa Lucía Utatlán 	7	Santa Rita 	6	Junio	2023-06-19T00:00:00	2024-11-08T06:00:00	8	Radiación solar	10
100513	7	Sololá	704	Santa Lucía Utatlán 	7	Santa Rita 	6	Junio	2023-06-19T00:00:00	2024-11-08T07:00:00	2	Temperatura media	19.7
100514	7	Sololá	704	Santa Lucía Utatlán 	7	Santa Rita 	6	Junio	2023-06-19T00:00:00	2024-11-08T07:00:00	4	Temperatura máxima	19.7
100515	7	Sololá	704	Santa Lucía Utatlán 	7	Santa Rita 	6	Junio	2023-06-19T00:00:00	2024-11-08T07:00:00	3	Temperatura mínima	18.7
100516	7	Sololá	704	Santa Lucía Utatlán 	7	Santa Rita 	6	Junio	2023-06-19T00:00:00	2024-11-08T07:00:00	5	Humedad	80
100517	7	Sololá	704	Santa Lucía Utatlán 	7	Santa Rita 	6	Junio	2023-06-19T00:00:00	2024-11-08T07:00:00	6	Velocidad del viento	1.6
100518	7	Sololá	704	Santa Lucía Utatlán 	7	Santa Rita 	6	Junio	2023-06-19T00:00:00	2024-11-08T07:00:00	7	Dirección del viento	1.61
100519	7	Sololá	704	Santa Lucía Utatlán 	7	Santa Rita 	6	Junio	2023-06-19T00:00:00	2024-11-08T07:00:00	1	Precipitación	0
100520	7	Sololá	704	Santa Lucía Utatlán 	7	Santa Rita 	6	Junio	2023-06-19T00:00:00	2024-11-08T07:00:00	8	Radiación solar	103
100521	7	Sololá	704	Santa Lucía Utatlán 	7	Santa Rita 	6	Junio	2023-06-19T00:00:00	2024-11-08T08:00:00	2	Temperatura media	22.6
100522	7	Sololá	704	Santa Lucía Utatlán 	7	Santa Rita 	6	Junio	2023-06-19T00:00:00	2024-11-08T08:00:00	4	Temperatura máxima	22.6
100523	7	Sololá	704	Santa Lucía Utatlán 	7	Santa Rita 	6	Junio	2023-06-19T00:00:00	2024-11-08T08:00:00	3	Temperatura mínima	19.7
100524	7	Sololá	704	Santa Lucía Utatlán 	7	Santa Rita 	6	Junio	2023-06-19T00:00:00	2024-11-08T08:00:00	5	Humedad	73
100525	7	Sololá	704	Santa Lucía Utatlán 	7	Santa Rita 	6	Junio	2023-06-19T00:00:00	2024-11-08T08:00:00	6	Velocidad del viento	3.2
100526	7	Sololá	704	Santa Lucía Utatlán 	7	Santa Rita 	6	Junio	2023-06-19T00:00:00	2024-11-08T08:00:00	7	Dirección del viento	3.22
100527	7	Sololá	704	Santa Lucía Utatlán 	7	Santa Rita 	6	Junio	2023-06-19T00:00:00	2024-11-08T08:00:00	1	Precipitación	0
100528	7	Sololá	704	Santa Lucía Utatlán 	7	Santa Rita 	6	Junio	2023-06-19T00:00:00	2024-11-08T08:00:00	8	Radiación solar	410
100529	7	Sololá	704	Santa Lucía Utatlán 	7	Santa Rita 	6	Junio	2023-06-19T00:00:00	2024-11-08T09:00:00	2	Temperatura media	24.3
100530	7	Sololá	704	Santa Lucía Utatlán 	7	Santa Rita 	6	Junio	2023-06-19T00:00:00	2024-11-08T09:00:00	4	Temperatura máxima	24.3
100531	7	Sololá	704	Santa Lucía Utatlán 	7	Santa Rita 	6	Junio	2023-06-19T00:00:00	2024-11-08T09:00:00	3	Temperatura mínima	22.6
100532	7	Sololá	704	Santa Lucía Utatlán 	7	Santa Rita 	6	Junio	2023-06-19T00:00:00	2024-11-08T09:00:00	5	Humedad	60
100533	7	Sololá	704	Santa Lucía Utatlán 	7	Santa Rita 	6	Junio	2023-06-19T00:00:00	2024-11-08T09:00:00	6	Velocidad del viento	8
100534	7	Sololá	704	Santa Lucía Utatlán 	7	Santa Rita 	6	Junio	2023-06-19T00:00:00	2024-11-08T09:00:00	7	Dirección del viento	8.05
100535	7	Sololá	704	Santa Lucía Utatlán 	7	Santa Rita 	6	Junio	2023-06-19T00:00:00	2024-11-08T09:00:00	1	Precipitación	0
100536	7	Sololá	704	Santa Lucía Utatlán 	7	Santa Rita 	6	Junio	2023-06-19T00:00:00	2024-11-08T09:00:00	8	Radiación solar	653
100537	7	Sololá	704	Santa Lucía Utatlán 	7	Santa Rita 	6	Junio	2023-06-19T00:00:00	2024-11-08T10:00:00	2	Temperatura media	25.2
100538	7	Sololá	704	Santa Lucía Utatlán 	7	Santa Rita 	6	Junio	2023-06-19T00:00:00	2024-11-08T10:00:00	4	Temperatura máxima	25.4
100539	7	Sololá	704	Santa Lucía Utatlán 	7	Santa Rita 	6	Junio	2023-06-19T00:00:00	2024-11-08T10:00:00	3	Temperatura mínima	24.3
100540	7	Sololá	704	Santa Lucía Utatlán 	7	Santa Rita 	6	Junio	2023-06-19T00:00:00	2024-11-08T10:00:00	5	Humedad	55
100541	7	Sololá	704	Santa Lucía Utatlán 	7	Santa Rita 	6	Junio	2023-06-19T00:00:00	2024-11-08T10:00:00	6	Velocidad del viento	9.7
100542	7	Sololá	704	Santa Lucía Utatlán 	7	Santa Rita 	6	Junio	2023-06-19T00:00:00	2024-11-08T10:00:00	7	Dirección del viento	9.66
100543	7	Sololá	704	Santa Lucía Utatlán 	7	Santa Rita 	6	Junio	2023-06-19T00:00:00	2024-11-08T10:00:00	1	Precipitación	0
100544	7	Sololá	704	Santa Lucía Utatlán 	7	Santa Rita 	6	Junio	2023-06-19T00:00:00	2024-11-08T10:00:00	8	Radiación solar	820
100545	7	Sololá	704	Santa Lucía Utatlán 	7	Santa Rita 	6	Junio	2023-06-19T00:00:00	2024-11-08T11:00:00	2	Temperatura media	25.3
100546	7	Sololá	704	Santa Lucía Utatlán 	7	Santa Rita 	6	Junio	2023-06-19T00:00:00	2024-11-08T11:00:00	4	Temperatura máxima	25.6
100547	7	Sololá	704	Santa Lucía Utatlán 	7	Santa Rita 	6	Junio	2023-06-19T00:00:00	2024-11-08T11:00:00	3	Temperatura mínima	24.8
100548	7	Sololá	704	Santa Lucía Utatlán 	7	Santa Rita 	6	Junio	2023-06-19T00:00:00	2024-11-08T11:00:00	5	Humedad	62
100549	7	Sololá	704	Santa Lucía Utatlán 	7	Santa Rita 	6	Junio	2023-06-19T00:00:00	2024-11-08T11:00:00	6	Velocidad del viento	12.9
100550	7	Sololá	704	Santa Lucía Utatlán 	7	Santa Rita 	6	Junio	2023-06-19T00:00:00	2024-11-08T11:00:00	7	Dirección del viento	12.87
100551	7	Sololá	704	Santa Lucía Utatlán 	7	Santa Rita 	6	Junio	2023-06-19T00:00:00	2024-11-08T11:00:00	1	Precipitación	0
100552	7	Sololá	704	Santa Lucía Utatlán 	7	Santa Rita 	6	Junio	2023-06-19T00:00:00	2024-11-08T11:00:00	8	Radiación solar	958
100553	7	Sololá	704	Santa Lucía Utatlán 	7	Santa Rita 	6	Junio	2023-06-19T00:00:00	2024-11-08T12:00:00	2	Temperatura media	24.6
100554	7	Sololá	704	Santa Lucía Utatlán 	7	Santa Rita 	6	Junio	2023-06-19T00:00:00	2024-11-08T12:00:00	4	Temperatura máxima	25.6
100555	7	Sololá	704	Santa Lucía Utatlán 	7	Santa Rita 	6	Junio	2023-06-19T00:00:00	2024-11-08T12:00:00	3	Temperatura mínima	24.3
100556	7	Sololá	704	Santa Lucía Utatlán 	7	Santa Rita 	6	Junio	2023-06-19T00:00:00	2024-11-08T12:00:00	5	Humedad	65
100557	7	Sololá	704	Santa Lucía Utatlán 	7	Santa Rita 	6	Junio	2023-06-19T00:00:00	2024-11-08T12:00:00	6	Velocidad del viento	11.3
100558	7	Sololá	704	Santa Lucía Utatlán 	7	Santa Rita 	6	Junio	2023-06-19T00:00:00	2024-11-08T12:00:00	7	Dirección del viento	11.27
100559	7	Sololá	704	Santa Lucía Utatlán 	7	Santa Rita 	6	Junio	2023-06-19T00:00:00	2024-11-08T12:00:00	1	Precipitación	0
100560	7	Sololá	704	Santa Lucía Utatlán 	7	Santa Rita 	6	Junio	2023-06-19T00:00:00	2024-11-08T12:00:00	8	Radiación solar	518
100561	7	Sololá	704	Santa Lucía Utatlán 	7	Santa Rita 	6	Junio	2023-06-19T00:00:00	2024-11-08T13:00:00	2	Temperatura media	23.4
100562	7	Sololá	704	Santa Lucía Utatlán 	7	Santa Rita 	6	Junio	2023-06-19T00:00:00	2024-11-08T13:00:00	4	Temperatura máxima	25.4
100563	7	Sololá	704	Santa Lucía Utatlán 	7	Santa Rita 	6	Junio	2023-06-19T00:00:00	2024-11-08T13:00:00	3	Temperatura mínima	23.1
100564	7	Sololá	704	Santa Lucía Utatlán 	7	Santa Rita 	6	Junio	2023-06-19T00:00:00	2024-11-08T13:00:00	5	Humedad	70
100565	7	Sololá	704	Santa Lucía Utatlán 	7	Santa Rita 	6	Junio	2023-06-19T00:00:00	2024-11-08T13:00:00	6	Velocidad del viento	8
100566	7	Sololá	704	Santa Lucía Utatlán 	7	Santa Rita 	6	Junio	2023-06-19T00:00:00	2024-11-08T13:00:00	7	Dirección del viento	8.05
100567	7	Sololá	704	Santa Lucía Utatlán 	7	Santa Rita 	6	Junio	2023-06-19T00:00:00	2024-11-08T13:00:00	1	Precipitación	0
100568	7	Sololá	704	Santa Lucía Utatlán 	7	Santa Rita 	6	Junio	2023-06-19T00:00:00	2024-11-08T13:00:00	8	Radiación solar	326
100569	7	Sololá	704	Santa Lucía Utatlán 	7	Santa Rita 	6	Junio	2023-06-19T00:00:00	2024-11-08T14:00:00	2	Temperatura media	25.3
100570	7	Sololá	704	Santa Lucía Utatlán 	7	Santa Rita 	6	Junio	2023-06-19T00:00:00	2024-11-08T14:00:00	4	Temperatura máxima	25.6
100571	7	Sololá	704	Santa Lucía Utatlán 	7	Santa Rita 	6	Junio	2023-06-19T00:00:00	2024-11-08T14:00:00	3	Temperatura mínima	23.4
100572	7	Sololá	704	Santa Lucía Utatlán 	7	Santa Rita 	6	Junio	2023-06-19T00:00:00	2024-11-08T14:00:00	5	Humedad	62
100573	7	Sololá	704	Santa Lucía Utatlán 	7	Santa Rita 	6	Junio	2023-06-19T00:00:00	2024-11-08T14:00:00	6	Velocidad del viento	4.8
100574	7	Sololá	704	Santa Lucía Utatlán 	7	Santa Rita 	6	Junio	2023-06-19T00:00:00	2024-11-08T14:00:00	7	Dirección del viento	4.83
100575	7	Sololá	704	Santa Lucía Utatlán 	7	Santa Rita 	6	Junio	2023-06-19T00:00:00	2024-11-08T14:00:00	1	Precipitación	0
100576	7	Sololá	704	Santa Lucía Utatlán 	7	Santa Rita 	6	Junio	2023-06-19T00:00:00	2024-11-08T14:00:00	8	Radiación solar	490
100577	7	Sololá	704	Santa Lucía Utatlán 	7	Santa Rita 	6	Junio	2023-06-19T00:00:00	2024-11-08T15:00:00	2	Temperatura media	26.2
100578	7	Sololá	704	Santa Lucía Utatlán 	7	Santa Rita 	6	Junio	2023-06-19T00:00:00	2024-11-08T15:00:00	4	Temperatura máxima	26.2
100579	7	Sololá	704	Santa Lucía Utatlán 	7	Santa Rita 	6	Junio	2023-06-19T00:00:00	2024-11-08T15:00:00	3	Temperatura mínima	24.9
100580	7	Sololá	704	Santa Lucía Utatlán 	7	Santa Rita 	6	Junio	2023-06-19T00:00:00	2024-11-08T15:00:00	5	Humedad	57
100581	7	Sololá	704	Santa Lucía Utatlán 	7	Santa Rita 	6	Junio	2023-06-19T00:00:00	2024-11-08T15:00:00	6	Velocidad del viento	8
100582	7	Sololá	704	Santa Lucía Utatlán 	7	Santa Rita 	6	Junio	2023-06-19T00:00:00	2024-11-08T15:00:00	7	Dirección del viento	8.05
100583	7	Sololá	704	Santa Lucía Utatlán 	7	Santa Rita 	6	Junio	2023-06-19T00:00:00	2024-11-08T15:00:00	1	Precipitación	0
100584	7	Sololá	704	Santa Lucía Utatlán 	7	Santa Rita 	6	Junio	2023-06-19T00:00:00	2024-11-08T15:00:00	8	Radiación solar	523
100585	7	Sololá	704	Santa Lucía Utatlán 	7	Santa Rita 	6	Junio	2023-06-19T00:00:00	2024-11-08T16:00:00	2	Temperatura media	24.8
100586	7	Sololá	704	Santa Lucía Utatlán 	7	Santa Rita 	6	Junio	2023-06-19T00:00:00	2024-11-08T16:00:00	4	Temperatura máxima	26.4
100587	7	Sololá	704	Santa Lucía Utatlán 	7	Santa Rita 	6	Junio	2023-06-19T00:00:00	2024-11-08T16:00:00	3	Temperatura mínima	24.8
100588	7	Sololá	704	Santa Lucía Utatlán 	7	Santa Rita 	6	Junio	2023-06-19T00:00:00	2024-11-08T16:00:00	5	Humedad	72
100589	7	Sololá	704	Santa Lucía Utatlán 	7	Santa Rita 	6	Junio	2023-06-19T00:00:00	2024-11-08T16:00:00	6	Velocidad del viento	8
100590	7	Sololá	704	Santa Lucía Utatlán 	7	Santa Rita 	6	Junio	2023-06-19T00:00:00	2024-11-08T16:00:00	7	Dirección del viento	8.05
100591	7	Sololá	704	Santa Lucía Utatlán 	7	Santa Rita 	6	Junio	2023-06-19T00:00:00	2024-11-08T16:00:00	1	Precipitación	0
100592	7	Sololá	704	Santa Lucía Utatlán 	7	Santa Rita 	6	Junio	2023-06-19T00:00:00	2024-11-08T16:00:00	8	Radiación solar	527
100593	7	Sololá	704	Santa Lucía Utatlán 	7	Santa Rita 	6	Junio	2023-06-19T00:00:00	2024-11-08T17:00:00	2	Temperatura media	23.4
100594	7	Sololá	704	Santa Lucía Utatlán 	7	Santa Rita 	6	Junio	2023-06-19T00:00:00	2024-11-08T17:00:00	4	Temperatura máxima	24.8
100595	7	Sololá	704	Santa Lucía Utatlán 	7	Santa Rita 	6	Junio	2023-06-19T00:00:00	2024-11-08T17:00:00	3	Temperatura mínima	23.4
100596	7	Sololá	704	Santa Lucía Utatlán 	7	Santa Rita 	6	Junio	2023-06-19T00:00:00	2024-11-08T17:00:00	5	Humedad	82
100597	7	Sololá	704	Santa Lucía Utatlán 	7	Santa Rita 	6	Junio	2023-06-19T00:00:00	2024-11-08T17:00:00	6	Velocidad del viento	6.4
100598	7	Sololá	704	Santa Lucía Utatlán 	7	Santa Rita 	6	Junio	2023-06-19T00:00:00	2024-11-08T17:00:00	7	Dirección del viento	6.44
100599	7	Sololá	704	Santa Lucía Utatlán 	7	Santa Rita 	6	Junio	2023-06-19T00:00:00	2024-11-08T17:00:00	1	Precipitación	0
100600	7	Sololá	704	Santa Lucía Utatlán 	7	Santa Rita 	6	Junio	2023-06-19T00:00:00	2024-11-08T17:00:00	8	Radiación solar	161
100601	7	Sololá	704	Santa Lucía Utatlán 	7	Santa Rita 	6	Junio	2023-06-19T00:00:00	2024-11-08T18:00:00	2	Temperatura media	21.8
100602	7	Sololá	704	Santa Lucía Utatlán 	7	Santa Rita 	6	Junio	2023-06-19T00:00:00	2024-11-08T18:00:00	4	Temperatura máxima	23.4
100603	7	Sololá	704	Santa Lucía Utatlán 	7	Santa Rita 	6	Junio	2023-06-19T00:00:00	2024-11-08T18:00:00	3	Temperatura mínima	21.8
100604	7	Sololá	704	Santa Lucía Utatlán 	7	Santa Rita 	6	Junio	2023-06-19T00:00:00	2024-11-08T18:00:00	5	Humedad	90
100605	7	Sololá	704	Santa Lucía Utatlán 	7	Santa Rita 	6	Junio	2023-06-19T00:00:00	2024-11-08T18:00:00	6	Velocidad del viento	3.2
100606	7	Sololá	704	Santa Lucía Utatlán 	7	Santa Rita 	6	Junio	2023-06-19T00:00:00	2024-11-08T18:00:00	7	Dirección del viento	3.22
100607	7	Sololá	704	Santa Lucía Utatlán 	7	Santa Rita 	6	Junio	2023-06-19T00:00:00	2024-11-08T18:00:00	1	Precipitación	0
100608	7	Sololá	704	Santa Lucía Utatlán 	7	Santa Rita 	6	Junio	2023-06-19T00:00:00	2024-11-08T18:00:00	8	Radiación solar	29
100609	7	Sololá	704	Santa Lucía Utatlán 	7	Santa Rita 	6	Junio	2023-06-19T00:00:00	2024-11-08T19:00:00	2	Temperatura media	21.6
100610	7	Sololá	704	Santa Lucía Utatlán 	7	Santa Rita 	6	Junio	2023-06-19T00:00:00	2024-11-08T19:00:00	4	Temperatura máxima	21.9
100611	7	Sololá	704	Santa Lucía Utatlán 	7	Santa Rita 	6	Junio	2023-06-19T00:00:00	2024-11-08T19:00:00	3	Temperatura mínima	21.5
100612	7	Sololá	704	Santa Lucía Utatlán 	7	Santa Rita 	6	Junio	2023-06-19T00:00:00	2024-11-08T19:00:00	5	Humedad	91
100613	7	Sololá	704	Santa Lucía Utatlán 	7	Santa Rita 	6	Junio	2023-06-19T00:00:00	2024-11-08T19:00:00	6	Velocidad del viento	1.6
100614	7	Sololá	704	Santa Lucía Utatlán 	7	Santa Rita 	6	Junio	2023-06-19T00:00:00	2024-11-08T19:00:00	7	Dirección del viento	1.61
100615	7	Sololá	704	Santa Lucía Utatlán 	7	Santa Rita 	6	Junio	2023-06-19T00:00:00	2024-11-08T19:00:00	1	Precipitación	0
100616	7	Sololá	704	Santa Lucía Utatlán 	7	Santa Rita 	6	Junio	2023-06-19T00:00:00	2024-11-08T19:00:00	8	Radiación solar	0
100617	7	Sololá	704	Santa Lucía Utatlán 	7	Santa Rita 	6	Junio	2023-06-19T00:00:00	2024-11-08T20:00:00	2	Temperatura media	21.2
100618	7	Sololá	704	Santa Lucía Utatlán 	7	Santa Rita 	6	Junio	2023-06-19T00:00:00	2024-11-08T20:00:00	4	Temperatura máxima	21.6
100619	7	Sololá	704	Santa Lucía Utatlán 	7	Santa Rita 	6	Junio	2023-06-19T00:00:00	2024-11-08T20:00:00	3	Temperatura mínima	21.2
100620	7	Sololá	704	Santa Lucía Utatlán 	7	Santa Rita 	6	Junio	2023-06-19T00:00:00	2024-11-08T20:00:00	5	Humedad	92
100621	7	Sololá	704	Santa Lucía Utatlán 	7	Santa Rita 	6	Junio	2023-06-19T00:00:00	2024-11-08T20:00:00	6	Velocidad del viento	1.6
100622	7	Sololá	704	Santa Lucía Utatlán 	7	Santa Rita 	6	Junio	2023-06-19T00:00:00	2024-11-08T20:00:00	7	Dirección del viento	1.61
100623	7	Sololá	704	Santa Lucía Utatlán 	7	Santa Rita 	6	Junio	2023-06-19T00:00:00	2024-11-08T20:00:00	1	Precipitación	0
100624	7	Sololá	704	Santa Lucía Utatlán 	7	Santa Rita 	6	Junio	2023-06-19T00:00:00	2024-11-08T20:00:00	8	Radiación solar	0
100625	7	Sololá	704	Santa Lucía Utatlán 	7	Santa Rita 	6	Junio	2023-06-19T00:00:00	2024-11-08T21:00:00	2	Temperatura media	20.6
100626	7	Sololá	704	Santa Lucía Utatlán 	7	Santa Rita 	6	Junio	2023-06-19T00:00:00	2024-11-08T21:00:00	4	Temperatura máxima	21.2
100627	7	Sololá	704	Santa Lucía Utatlán 	7	Santa Rita 	6	Junio	2023-06-19T00:00:00	2024-11-08T21:00:00	3	Temperatura mínima	20.6
100628	7	Sololá	704	Santa Lucía Utatlán 	7	Santa Rita 	6	Junio	2023-06-19T00:00:00	2024-11-08T21:00:00	5	Humedad	89
100629	7	Sololá	704	Santa Lucía Utatlán 	7	Santa Rita 	6	Junio	2023-06-19T00:00:00	2024-11-08T21:00:00	6	Velocidad del viento	1.6
100630	7	Sololá	704	Santa Lucía Utatlán 	7	Santa Rita 	6	Junio	2023-06-19T00:00:00	2024-11-08T21:00:00	7	Dirección del viento	1.61
100631	7	Sololá	704	Santa Lucía Utatlán 	7	Santa Rita 	6	Junio	2023-06-19T00:00:00	2024-11-08T21:00:00	1	Precipitación	0
100632	7	Sololá	704	Santa Lucía Utatlán 	7	Santa Rita 	6	Junio	2023-06-19T00:00:00	2024-11-08T21:00:00	8	Radiación solar	0
100633	7	Sololá	704	Santa Lucía Utatlán 	7	Santa Rita 	6	Junio	2023-06-19T00:00:00	2024-11-08T22:00:00	2	Temperatura media	20.1
100634	7	Sololá	704	Santa Lucía Utatlán 	7	Santa Rita 	6	Junio	2023-06-19T00:00:00	2024-11-08T22:00:00	4	Temperatura máxima	20.6
100635	7	Sololá	704	Santa Lucía Utatlán 	7	Santa Rita 	6	Junio	2023-06-19T00:00:00	2024-11-08T22:00:00	3	Temperatura mínima	19.9
100636	7	Sololá	704	Santa Lucía Utatlán 	7	Santa Rita 	6	Junio	2023-06-19T00:00:00	2024-11-08T22:00:00	5	Humedad	91
100637	7	Sololá	704	Santa Lucía Utatlán 	7	Santa Rita 	6	Junio	2023-06-19T00:00:00	2024-11-08T22:00:00	6	Velocidad del viento	1.6
100638	7	Sololá	704	Santa Lucía Utatlán 	7	Santa Rita 	6	Junio	2023-06-19T00:00:00	2024-11-08T22:00:00	7	Dirección del viento	1.61
100639	7	Sololá	704	Santa Lucía Utatlán 	7	Santa Rita 	6	Junio	2023-06-19T00:00:00	2024-11-08T22:00:00	1	Precipitación	0
100640	7	Sololá	704	Santa Lucía Utatlán 	7	Santa Rita 	6	Junio	2023-06-19T00:00:00	2024-11-08T22:00:00	8	Radiación solar	0
100641	7	Sololá	704	Santa Lucía Utatlán 	7	Santa Rita 	6	Junio	2023-06-19T00:00:00	2024-11-08T23:00:00	2	Temperatura media	20.2
100642	7	Sololá	704	Santa Lucía Utatlán 	7	Santa Rita 	6	Junio	2023-06-19T00:00:00	2024-11-08T23:00:00	4	Temperatura máxima	20.2
100643	7	Sololá	704	Santa Lucía Utatlán 	7	Santa Rita 	6	Junio	2023-06-19T00:00:00	2024-11-08T23:00:00	3	Temperatura mínima	20.1
100644	7	Sololá	704	Santa Lucía Utatlán 	7	Santa Rita 	6	Junio	2023-06-19T00:00:00	2024-11-08T23:00:00	5	Humedad	92
100645	7	Sololá	704	Santa Lucía Utatlán 	7	Santa Rita 	6	Junio	2023-06-19T00:00:00	2024-11-08T23:00:00	6	Velocidad del viento	0
100646	7	Sololá	704	Santa Lucía Utatlán 	7	Santa Rita 	6	Junio	2023-06-19T00:00:00	2024-11-08T23:00:00	7	Dirección del viento	0
100647	7	Sololá	704	Santa Lucía Utatlán 	7	Santa Rita 	6	Junio	2023-06-19T00:00:00	2024-11-08T23:00:00	1	Precipitación	0
100648	7	Sololá	704	Santa Lucía Utatlán 	7	Santa Rita 	6	Junio	2023-06-19T00:00:00	2024-11-08T23:00:00	8	Radiación solar	0
100649	7	Sololá	704	Santa Lucía Utatlán 	7	Santa Rita 	6	Junio	2023-06-20T00:00:00	2024-11-08T00:00:00	2	Temperatura media	20.1
100650	7	Sololá	704	Santa Lucía Utatlán 	7	Santa Rita 	6	Junio	2023-06-20T00:00:00	2024-11-08T00:00:00	4	Temperatura máxima	20.3
100651	7	Sololá	704	Santa Lucía Utatlán 	7	Santa Rita 	6	Junio	2023-06-20T00:00:00	2024-11-08T00:00:00	3	Temperatura mínima	20.1
100652	7	Sololá	704	Santa Lucía Utatlán 	7	Santa Rita 	6	Junio	2023-06-20T00:00:00	2024-11-08T00:00:00	5	Humedad	93
100653	7	Sololá	704	Santa Lucía Utatlán 	7	Santa Rita 	6	Junio	2023-06-20T00:00:00	2024-11-08T00:00:00	6	Velocidad del viento	1.6
100654	7	Sololá	704	Santa Lucía Utatlán 	7	Santa Rita 	6	Junio	2023-06-20T00:00:00	2024-11-08T00:00:00	7	Dirección del viento	1.61
100655	7	Sololá	704	Santa Lucía Utatlán 	7	Santa Rita 	6	Junio	2023-06-20T00:00:00	2024-11-08T00:00:00	1	Precipitación	0
100656	7	Sololá	704	Santa Lucía Utatlán 	7	Santa Rita 	6	Junio	2023-06-20T00:00:00	2024-11-08T00:00:00	8	Radiación solar	0
100657	7	Sololá	704	Santa Lucía Utatlán 	7	Santa Rita 	6	Junio	2023-06-20T00:00:00	2024-11-08T01:00:00	2	Temperatura media	19.9
100658	7	Sololá	704	Santa Lucía Utatlán 	7	Santa Rita 	6	Junio	2023-06-20T00:00:00	2024-11-08T01:00:00	4	Temperatura máxima	20.2
100659	7	Sololá	704	Santa Lucía Utatlán 	7	Santa Rita 	6	Junio	2023-06-20T00:00:00	2024-11-08T01:00:00	3	Temperatura mínima	19.9
100660	7	Sololá	704	Santa Lucía Utatlán 	7	Santa Rita 	6	Junio	2023-06-20T00:00:00	2024-11-08T01:00:00	5	Humedad	93
100661	7	Sololá	704	Santa Lucía Utatlán 	7	Santa Rita 	6	Junio	2023-06-20T00:00:00	2024-11-08T01:00:00	6	Velocidad del viento	1.6
100662	7	Sololá	704	Santa Lucía Utatlán 	7	Santa Rita 	6	Junio	2023-06-20T00:00:00	2024-11-08T01:00:00	7	Dirección del viento	1.61
100663	7	Sololá	704	Santa Lucía Utatlán 	7	Santa Rita 	6	Junio	2023-06-20T00:00:00	2024-11-08T01:00:00	1	Precipitación	0
100664	7	Sololá	704	Santa Lucía Utatlán 	7	Santa Rita 	6	Junio	2023-06-20T00:00:00	2024-11-08T01:00:00	8	Radiación solar	0
100665	7	Sololá	704	Santa Lucía Utatlán 	7	Santa Rita 	6	Junio	2023-06-20T00:00:00	2024-11-08T02:00:00	2	Temperatura media	19.8
100666	7	Sololá	704	Santa Lucía Utatlán 	7	Santa Rita 	6	Junio	2023-06-20T00:00:00	2024-11-08T02:00:00	4	Temperatura máxima	19.9
100667	7	Sololá	704	Santa Lucía Utatlán 	7	Santa Rita 	6	Junio	2023-06-20T00:00:00	2024-11-08T02:00:00	3	Temperatura mínima	19.7
100668	7	Sololá	704	Santa Lucía Utatlán 	7	Santa Rita 	6	Junio	2023-06-20T00:00:00	2024-11-08T02:00:00	5	Humedad	95
100669	7	Sololá	704	Santa Lucía Utatlán 	7	Santa Rita 	6	Junio	2023-06-20T00:00:00	2024-11-08T02:00:00	6	Velocidad del viento	0
100670	7	Sololá	704	Santa Lucía Utatlán 	7	Santa Rita 	6	Junio	2023-06-20T00:00:00	2024-11-08T02:00:00	7	Dirección del viento	0
100671	7	Sololá	704	Santa Lucía Utatlán 	7	Santa Rita 	6	Junio	2023-06-20T00:00:00	2024-11-08T02:00:00	1	Precipitación	0
100672	7	Sololá	704	Santa Lucía Utatlán 	7	Santa Rita 	6	Junio	2023-06-20T00:00:00	2024-11-08T02:00:00	8	Radiación solar	0
100673	7	Sololá	704	Santa Lucía Utatlán 	7	Santa Rita 	6	Junio	2023-06-20T00:00:00	2024-11-08T03:00:00	2	Temperatura media	19.7
100674	7	Sololá	704	Santa Lucía Utatlán 	7	Santa Rita 	6	Junio	2023-06-20T00:00:00	2024-11-08T03:00:00	4	Temperatura máxima	19.8
100675	7	Sololá	704	Santa Lucía Utatlán 	7	Santa Rita 	6	Junio	2023-06-20T00:00:00	2024-11-08T03:00:00	3	Temperatura mínima	19.7
100676	7	Sololá	704	Santa Lucía Utatlán 	7	Santa Rita 	6	Junio	2023-06-20T00:00:00	2024-11-08T03:00:00	5	Humedad	95
100677	7	Sololá	704	Santa Lucía Utatlán 	7	Santa Rita 	6	Junio	2023-06-20T00:00:00	2024-11-08T03:00:00	6	Velocidad del viento	0
100678	7	Sololá	704	Santa Lucía Utatlán 	7	Santa Rita 	6	Junio	2023-06-20T00:00:00	2024-11-08T03:00:00	7	Dirección del viento	0
100679	7	Sololá	704	Santa Lucía Utatlán 	7	Santa Rita 	6	Junio	2023-06-20T00:00:00	2024-11-08T03:00:00	1	Precipitación	0
100680	7	Sololá	704	Santa Lucía Utatlán 	7	Santa Rita 	6	Junio	2023-06-20T00:00:00	2024-11-08T03:00:00	8	Radiación solar	0
100681	7	Sololá	704	Santa Lucía Utatlán 	7	Santa Rita 	6	Junio	2023-06-20T00:00:00	2024-11-08T04:00:00	2	Temperatura media	19.3
100682	7	Sololá	704	Santa Lucía Utatlán 	7	Santa Rita 	6	Junio	2023-06-20T00:00:00	2024-11-08T04:00:00	4	Temperatura máxima	19.8
100683	7	Sololá	704	Santa Lucía Utatlán 	7	Santa Rita 	6	Junio	2023-06-20T00:00:00	2024-11-08T04:00:00	3	Temperatura mínima	19.3
100684	7	Sololá	704	Santa Lucía Utatlán 	7	Santa Rita 	6	Junio	2023-06-20T00:00:00	2024-11-08T04:00:00	5	Humedad	93
100685	7	Sololá	704	Santa Lucía Utatlán 	7	Santa Rita 	6	Junio	2023-06-20T00:00:00	2024-11-08T04:00:00	6	Velocidad del viento	0
100686	7	Sololá	704	Santa Lucía Utatlán 	7	Santa Rita 	6	Junio	2023-06-20T00:00:00	2024-11-08T04:00:00	7	Dirección del viento	0
100687	7	Sololá	704	Santa Lucía Utatlán 	7	Santa Rita 	6	Junio	2023-06-20T00:00:00	2024-11-08T04:00:00	1	Precipitación	0
100688	7	Sololá	704	Santa Lucía Utatlán 	7	Santa Rita 	6	Junio	2023-06-20T00:00:00	2024-11-08T04:00:00	8	Radiación solar	0
100689	7	Sololá	704	Santa Lucía Utatlán 	7	Santa Rita 	6	Junio	2023-06-20T00:00:00	2024-11-08T05:00:00	2	Temperatura media	19.4
100690	7	Sololá	704	Santa Lucía Utatlán 	7	Santa Rita 	6	Junio	2023-06-20T00:00:00	2024-11-08T05:00:00	4	Temperatura máxima	19.6
100691	7	Sololá	704	Santa Lucía Utatlán 	7	Santa Rita 	6	Junio	2023-06-20T00:00:00	2024-11-08T05:00:00	3	Temperatura mínima	19.3
100692	7	Sololá	704	Santa Lucía Utatlán 	7	Santa Rita 	6	Junio	2023-06-20T00:00:00	2024-11-08T05:00:00	5	Humedad	92
100693	7	Sololá	704	Santa Lucía Utatlán 	7	Santa Rita 	6	Junio	2023-06-20T00:00:00	2024-11-08T05:00:00	6	Velocidad del viento	0
100694	7	Sololá	704	Santa Lucía Utatlán 	7	Santa Rita 	6	Junio	2023-06-20T00:00:00	2024-11-08T05:00:00	7	Dirección del viento	0
100695	7	Sololá	704	Santa Lucía Utatlán 	7	Santa Rita 	6	Junio	2023-06-20T00:00:00	2024-11-08T05:00:00	1	Precipitación	0
100696	7	Sololá	704	Santa Lucía Utatlán 	7	Santa Rita 	6	Junio	2023-06-20T00:00:00	2024-11-08T05:00:00	8	Radiación solar	0
100697	7	Sololá	704	Santa Lucía Utatlán 	7	Santa Rita 	6	Junio	2023-06-20T00:00:00	2024-11-08T06:00:00	2	Temperatura media	19.3
100698	7	Sololá	704	Santa Lucía Utatlán 	7	Santa Rita 	6	Junio	2023-06-20T00:00:00	2024-11-08T06:00:00	4	Temperatura máxima	19.4
100699	7	Sololá	704	Santa Lucía Utatlán 	7	Santa Rita 	6	Junio	2023-06-20T00:00:00	2024-11-08T06:00:00	3	Temperatura mínima	19.3
100700	7	Sololá	704	Santa Lucía Utatlán 	7	Santa Rita 	6	Junio	2023-06-20T00:00:00	2024-11-08T06:00:00	5	Humedad	93
100701	7	Sololá	704	Santa Lucía Utatlán 	7	Santa Rita 	6	Junio	2023-06-20T00:00:00	2024-11-08T06:00:00	6	Velocidad del viento	0
100702	7	Sololá	704	Santa Lucía Utatlán 	7	Santa Rita 	6	Junio	2023-06-20T00:00:00	2024-11-08T06:00:00	7	Dirección del viento	0
100703	7	Sololá	704	Santa Lucía Utatlán 	7	Santa Rita 	6	Junio	2023-06-20T00:00:00	2024-11-08T06:00:00	1	Precipitación	0
100704	7	Sololá	704	Santa Lucía Utatlán 	7	Santa Rita 	6	Junio	2023-06-20T00:00:00	2024-11-08T06:00:00	8	Radiación solar	2
100705	7	Sololá	704	Santa Lucía Utatlán 	7	Santa Rita 	6	Junio	2023-06-20T00:00:00	2024-11-08T07:00:00	2	Temperatura media	19.9
100706	7	Sololá	704	Santa Lucía Utatlán 	7	Santa Rita 	6	Junio	2023-06-20T00:00:00	2024-11-08T07:00:00	4	Temperatura máxima	19.9
100707	7	Sololá	704	Santa Lucía Utatlán 	7	Santa Rita 	6	Junio	2023-06-20T00:00:00	2024-11-08T07:00:00	3	Temperatura mínima	19.2
100708	7	Sololá	704	Santa Lucía Utatlán 	7	Santa Rita 	6	Junio	2023-06-20T00:00:00	2024-11-08T07:00:00	5	Humedad	93
100709	7	Sololá	704	Santa Lucía Utatlán 	7	Santa Rita 	6	Junio	2023-06-20T00:00:00	2024-11-08T07:00:00	6	Velocidad del viento	0
100710	7	Sololá	704	Santa Lucía Utatlán 	7	Santa Rita 	6	Junio	2023-06-20T00:00:00	2024-11-08T07:00:00	7	Dirección del viento	0
100711	7	Sololá	704	Santa Lucía Utatlán 	7	Santa Rita 	6	Junio	2023-06-20T00:00:00	2024-11-08T07:00:00	1	Precipitación	0
100712	7	Sololá	704	Santa Lucía Utatlán 	7	Santa Rita 	6	Junio	2023-06-20T00:00:00	2024-11-08T07:00:00	8	Radiación solar	50
100713	7	Sololá	704	Santa Lucía Utatlán 	7	Santa Rita 	6	Junio	2023-06-20T00:00:00	2024-11-08T08:00:00	2	Temperatura media	22.3
100714	7	Sololá	704	Santa Lucía Utatlán 	7	Santa Rita 	6	Junio	2023-06-20T00:00:00	2024-11-08T08:00:00	4	Temperatura máxima	22.3
100715	7	Sololá	704	Santa Lucía Utatlán 	7	Santa Rita 	6	Junio	2023-06-20T00:00:00	2024-11-08T08:00:00	3	Temperatura mínima	19.9
100716	7	Sololá	704	Santa Lucía Utatlán 	7	Santa Rita 	6	Junio	2023-06-20T00:00:00	2024-11-08T08:00:00	5	Humedad	83
100717	7	Sololá	704	Santa Lucía Utatlán 	7	Santa Rita 	6	Junio	2023-06-20T00:00:00	2024-11-08T08:00:00	6	Velocidad del viento	1.6
100718	7	Sololá	704	Santa Lucía Utatlán 	7	Santa Rita 	6	Junio	2023-06-20T00:00:00	2024-11-08T08:00:00	7	Dirección del viento	1.61
100719	7	Sololá	704	Santa Lucía Utatlán 	7	Santa Rita 	6	Junio	2023-06-20T00:00:00	2024-11-08T08:00:00	1	Precipitación	0
100720	7	Sololá	704	Santa Lucía Utatlán 	7	Santa Rita 	6	Junio	2023-06-20T00:00:00	2024-11-08T08:00:00	8	Radiación solar	251
100721	7	Sololá	704	Santa Lucía Utatlán 	7	Santa Rita 	6	Junio	2023-06-20T00:00:00	2024-11-08T09:00:00	2	Temperatura media	23.1
100722	7	Sololá	704	Santa Lucía Utatlán 	7	Santa Rita 	6	Junio	2023-06-20T00:00:00	2024-11-08T09:00:00	4	Temperatura máxima	24.1
100723	7	Sololá	704	Santa Lucía Utatlán 	7	Santa Rita 	6	Junio	2023-06-20T00:00:00	2024-11-08T09:00:00	3	Temperatura mínima	22.3
100724	7	Sololá	704	Santa Lucía Utatlán 	7	Santa Rita 	6	Junio	2023-06-20T00:00:00	2024-11-08T09:00:00	5	Humedad	77
100725	7	Sololá	704	Santa Lucía Utatlán 	7	Santa Rita 	6	Junio	2023-06-20T00:00:00	2024-11-08T09:00:00	6	Velocidad del viento	3.2
100726	7	Sololá	704	Santa Lucía Utatlán 	7	Santa Rita 	6	Junio	2023-06-20T00:00:00	2024-11-08T09:00:00	7	Dirección del viento	3.22
100727	7	Sololá	704	Santa Lucía Utatlán 	7	Santa Rita 	6	Junio	2023-06-20T00:00:00	2024-11-08T09:00:00	1	Precipitación	0
100728	7	Sololá	704	Santa Lucía Utatlán 	7	Santa Rita 	6	Junio	2023-06-20T00:00:00	2024-11-08T09:00:00	8	Radiación solar	312
100729	7	Sololá	704	Santa Lucía Utatlán 	7	Santa Rita 	6	Junio	2023-06-20T00:00:00	2024-11-08T10:00:00	2	Temperatura media	22.6
100730	7	Sololá	704	Santa Lucía Utatlán 	7	Santa Rita 	6	Junio	2023-06-20T00:00:00	2024-11-08T10:00:00	4	Temperatura máxima	23.5
100731	7	Sololá	704	Santa Lucía Utatlán 	7	Santa Rita 	6	Junio	2023-06-20T00:00:00	2024-11-08T10:00:00	3	Temperatura mínima	22.6
100732	7	Sololá	704	Santa Lucía Utatlán 	7	Santa Rita 	6	Junio	2023-06-20T00:00:00	2024-11-08T10:00:00	5	Humedad	83
100733	7	Sololá	704	Santa Lucía Utatlán 	7	Santa Rita 	6	Junio	2023-06-20T00:00:00	2024-11-08T10:00:00	6	Velocidad del viento	4.8
100734	7	Sololá	704	Santa Lucía Utatlán 	7	Santa Rita 	6	Junio	2023-06-20T00:00:00	2024-11-08T10:00:00	7	Dirección del viento	4.83
100735	7	Sololá	704	Santa Lucía Utatlán 	7	Santa Rita 	6	Junio	2023-06-20T00:00:00	2024-11-08T10:00:00	1	Precipitación	0
100736	7	Sololá	704	Santa Lucía Utatlán 	7	Santa Rita 	6	Junio	2023-06-20T00:00:00	2024-11-08T10:00:00	8	Radiación solar	262
100737	7	Sololá	704	Santa Lucía Utatlán 	7	Santa Rita 	6	Junio	2023-06-20T00:00:00	2024-11-08T11:00:00	2	Temperatura media	22.8
100738	7	Sololá	704	Santa Lucía Utatlán 	7	Santa Rita 	6	Junio	2023-06-20T00:00:00	2024-11-08T11:00:00	4	Temperatura máxima	22.8
100739	7	Sololá	704	Santa Lucía Utatlán 	7	Santa Rita 	6	Junio	2023-06-20T00:00:00	2024-11-08T11:00:00	3	Temperatura mínima	22.4
100740	7	Sololá	704	Santa Lucía Utatlán 	7	Santa Rita 	6	Junio	2023-06-20T00:00:00	2024-11-08T11:00:00	5	Humedad	78
100741	7	Sololá	704	Santa Lucía Utatlán 	7	Santa Rita 	6	Junio	2023-06-20T00:00:00	2024-11-08T11:00:00	6	Velocidad del viento	4.8
100742	7	Sololá	704	Santa Lucía Utatlán 	7	Santa Rita 	6	Junio	2023-06-20T00:00:00	2024-11-08T11:00:00	7	Dirección del viento	4.83
100743	7	Sololá	704	Santa Lucía Utatlán 	7	Santa Rita 	6	Junio	2023-06-20T00:00:00	2024-11-08T11:00:00	1	Precipitación	0
100744	7	Sololá	704	Santa Lucía Utatlán 	7	Santa Rita 	6	Junio	2023-06-20T00:00:00	2024-11-08T11:00:00	8	Radiación solar	241
100745	7	Sololá	704	Santa Lucía Utatlán 	7	Santa Rita 	6	Junio	2023-06-20T00:00:00	2024-11-08T12:00:00	2	Temperatura media	23.7
100746	7	Sololá	704	Santa Lucía Utatlán 	7	Santa Rita 	6	Junio	2023-06-20T00:00:00	2024-11-08T12:00:00	4	Temperatura máxima	23.7
100747	7	Sololá	704	Santa Lucía Utatlán 	7	Santa Rita 	6	Junio	2023-06-20T00:00:00	2024-11-08T12:00:00	3	Temperatura mínima	22.8
100748	7	Sololá	704	Santa Lucía Utatlán 	7	Santa Rita 	6	Junio	2023-06-20T00:00:00	2024-11-08T12:00:00	5	Humedad	78
100749	7	Sololá	704	Santa Lucía Utatlán 	7	Santa Rita 	6	Junio	2023-06-20T00:00:00	2024-11-08T12:00:00	6	Velocidad del viento	1.6
100750	7	Sololá	704	Santa Lucía Utatlán 	7	Santa Rita 	6	Junio	2023-06-20T00:00:00	2024-11-08T12:00:00	7	Dirección del viento	1.61
100751	7	Sololá	704	Santa Lucía Utatlán 	7	Santa Rita 	6	Junio	2023-06-20T00:00:00	2024-11-08T12:00:00	1	Precipitación	0
100752	7	Sololá	704	Santa Lucía Utatlán 	7	Santa Rita 	6	Junio	2023-06-20T00:00:00	2024-11-08T12:00:00	8	Radiación solar	263
100753	7	Sololá	704	Santa Lucía Utatlán 	7	Santa Rita 	6	Junio	2023-06-20T00:00:00	2024-11-08T13:00:00	2	Temperatura media	22.9
100754	7	Sololá	704	Santa Lucía Utatlán 	7	Santa Rita 	6	Junio	2023-06-20T00:00:00	2024-11-08T13:00:00	4	Temperatura máxima	24.2
100755	7	Sololá	704	Santa Lucía Utatlán 	7	Santa Rita 	6	Junio	2023-06-20T00:00:00	2024-11-08T13:00:00	3	Temperatura mínima	22.9
100756	7	Sololá	704	Santa Lucía Utatlán 	7	Santa Rita 	6	Junio	2023-06-20T00:00:00	2024-11-08T13:00:00	5	Humedad	84
100757	7	Sololá	704	Santa Lucía Utatlán 	7	Santa Rita 	6	Junio	2023-06-20T00:00:00	2024-11-08T13:00:00	6	Velocidad del viento	4.8
100758	7	Sololá	704	Santa Lucía Utatlán 	7	Santa Rita 	6	Junio	2023-06-20T00:00:00	2024-11-08T13:00:00	7	Dirección del viento	4.83
100759	7	Sololá	704	Santa Lucía Utatlán 	7	Santa Rita 	6	Junio	2023-06-20T00:00:00	2024-11-08T13:00:00	1	Precipitación	0
100760	7	Sololá	704	Santa Lucía Utatlán 	7	Santa Rita 	6	Junio	2023-06-20T00:00:00	2024-11-08T13:00:00	8	Radiación solar	384
100761	7	Sololá	704	Santa Lucía Utatlán 	7	Santa Rita 	6	Junio	2023-06-20T00:00:00	2024-11-08T14:00:00	2	Temperatura media	23.3
100762	7	Sololá	704	Santa Lucía Utatlán 	7	Santa Rita 	6	Junio	2023-06-20T00:00:00	2024-11-08T14:00:00	4	Temperatura máxima	23.3
100763	7	Sololá	704	Santa Lucía Utatlán 	7	Santa Rita 	6	Junio	2023-06-20T00:00:00	2024-11-08T14:00:00	3	Temperatura mínima	22.8
100764	7	Sololá	704	Santa Lucía Utatlán 	7	Santa Rita 	6	Junio	2023-06-20T00:00:00	2024-11-08T14:00:00	5	Humedad	82
100765	7	Sololá	704	Santa Lucía Utatlán 	7	Santa Rita 	6	Junio	2023-06-20T00:00:00	2024-11-08T14:00:00	6	Velocidad del viento	4.8
100766	7	Sololá	704	Santa Lucía Utatlán 	7	Santa Rita 	6	Junio	2023-06-20T00:00:00	2024-11-08T14:00:00	7	Dirección del viento	4.83
100767	7	Sololá	704	Santa Lucía Utatlán 	7	Santa Rita 	6	Junio	2023-06-20T00:00:00	2024-11-08T14:00:00	1	Precipitación	0
100768	7	Sololá	704	Santa Lucía Utatlán 	7	Santa Rita 	6	Junio	2023-06-20T00:00:00	2024-11-08T14:00:00	8	Radiación solar	330
100769	7	Sololá	704	Santa Lucía Utatlán 	7	Santa Rita 	6	Junio	2023-06-20T00:00:00	2024-11-08T15:00:00	2	Temperatura media	22.8
100770	7	Sololá	704	Santa Lucía Utatlán 	7	Santa Rita 	6	Junio	2023-06-20T00:00:00	2024-11-08T15:00:00	4	Temperatura máxima	23.4
100771	7	Sololá	704	Santa Lucía Utatlán 	7	Santa Rita 	6	Junio	2023-06-20T00:00:00	2024-11-08T15:00:00	3	Temperatura mínima	22.7
100772	7	Sololá	704	Santa Lucía Utatlán 	7	Santa Rita 	6	Junio	2023-06-20T00:00:00	2024-11-08T15:00:00	5	Humedad	87
100773	7	Sololá	704	Santa Lucía Utatlán 	7	Santa Rita 	6	Junio	2023-06-20T00:00:00	2024-11-08T15:00:00	6	Velocidad del viento	3.2
100774	7	Sololá	704	Santa Lucía Utatlán 	7	Santa Rita 	6	Junio	2023-06-20T00:00:00	2024-11-08T15:00:00	7	Dirección del viento	3.22
100775	7	Sololá	704	Santa Lucía Utatlán 	7	Santa Rita 	6	Junio	2023-06-20T00:00:00	2024-11-08T15:00:00	1	Precipitación	0.2
100776	7	Sololá	704	Santa Lucía Utatlán 	7	Santa Rita 	6	Junio	2023-06-20T00:00:00	2024-11-08T15:00:00	8	Radiación solar	136
100777	7	Sololá	704	Santa Lucía Utatlán 	7	Santa Rita 	6	Junio	2023-06-20T00:00:00	2024-11-08T16:00:00	2	Temperatura media	22
100778	7	Sololá	704	Santa Lucía Utatlán 	7	Santa Rita 	6	Junio	2023-06-20T00:00:00	2024-11-08T16:00:00	4	Temperatura máxima	22.8
100779	7	Sololá	704	Santa Lucía Utatlán 	7	Santa Rita 	6	Junio	2023-06-20T00:00:00	2024-11-08T16:00:00	3	Temperatura mínima	22
100780	7	Sololá	704	Santa Lucía Utatlán 	7	Santa Rita 	6	Junio	2023-06-20T00:00:00	2024-11-08T16:00:00	5	Humedad	89
100781	7	Sololá	704	Santa Lucía Utatlán 	7	Santa Rita 	6	Junio	2023-06-20T00:00:00	2024-11-08T16:00:00	6	Velocidad del viento	4.8
100782	7	Sololá	704	Santa Lucía Utatlán 	7	Santa Rita 	6	Junio	2023-06-20T00:00:00	2024-11-08T16:00:00	7	Dirección del viento	4.83
100783	7	Sololá	704	Santa Lucía Utatlán 	7	Santa Rita 	6	Junio	2023-06-20T00:00:00	2024-11-08T16:00:00	1	Precipitación	0
100784	7	Sololá	704	Santa Lucía Utatlán 	7	Santa Rita 	6	Junio	2023-06-20T00:00:00	2024-11-08T16:00:00	8	Radiación solar	108
100785	7	Sololá	704	Santa Lucía Utatlán 	7	Santa Rita 	6	Junio	2023-06-20T00:00:00	2024-11-08T17:00:00	2	Temperatura media	22.1
100786	7	Sololá	704	Santa Lucía Utatlán 	7	Santa Rita 	6	Junio	2023-06-20T00:00:00	2024-11-08T17:00:00	4	Temperatura máxima	22.4
100787	7	Sololá	704	Santa Lucía Utatlán 	7	Santa Rita 	6	Junio	2023-06-20T00:00:00	2024-11-08T17:00:00	3	Temperatura mínima	21.8
100788	7	Sololá	704	Santa Lucía Utatlán 	7	Santa Rita 	6	Junio	2023-06-20T00:00:00	2024-11-08T17:00:00	5	Humedad	90
100789	7	Sololá	704	Santa Lucía Utatlán 	7	Santa Rita 	6	Junio	2023-06-20T00:00:00	2024-11-08T17:00:00	6	Velocidad del viento	3.2
100790	7	Sololá	704	Santa Lucía Utatlán 	7	Santa Rita 	6	Junio	2023-06-20T00:00:00	2024-11-08T17:00:00	7	Dirección del viento	3.22
100791	7	Sololá	704	Santa Lucía Utatlán 	7	Santa Rita 	6	Junio	2023-06-20T00:00:00	2024-11-08T17:00:00	1	Precipitación	0
100792	7	Sololá	704	Santa Lucía Utatlán 	7	Santa Rita 	6	Junio	2023-06-20T00:00:00	2024-11-08T17:00:00	8	Radiación solar	99
100793	7	Sololá	704	Santa Lucía Utatlán 	7	Santa Rita 	6	Junio	2023-06-20T00:00:00	2024-11-08T18:00:00	2	Temperatura media	20
100794	7	Sololá	704	Santa Lucía Utatlán 	7	Santa Rita 	6	Junio	2023-06-20T00:00:00	2024-11-08T18:00:00	4	Temperatura máxima	22.1
100795	7	Sololá	704	Santa Lucía Utatlán 	7	Santa Rita 	6	Junio	2023-06-20T00:00:00	2024-11-08T18:00:00	3	Temperatura mínima	20
100796	7	Sololá	704	Santa Lucía Utatlán 	7	Santa Rita 	6	Junio	2023-06-20T00:00:00	2024-11-08T18:00:00	5	Humedad	95
100797	7	Sololá	704	Santa Lucía Utatlán 	7	Santa Rita 	6	Junio	2023-06-20T00:00:00	2024-11-08T18:00:00	6	Velocidad del viento	6.4
100798	7	Sololá	704	Santa Lucía Utatlán 	7	Santa Rita 	6	Junio	2023-06-20T00:00:00	2024-11-08T18:00:00	7	Dirección del viento	6.44
100799	7	Sololá	704	Santa Lucía Utatlán 	7	Santa Rita 	6	Junio	2023-06-20T00:00:00	2024-11-08T18:00:00	1	Precipitación	0.2
100800	7	Sololá	704	Santa Lucía Utatlán 	7	Santa Rita 	6	Junio	2023-06-20T00:00:00	2024-11-08T18:00:00	8	Radiación solar	14
100801	7	Sololá	704	Santa Lucía Utatlán 	7	Santa Rita 	6	Junio	2023-06-20T00:00:00	2024-11-08T19:00:00	2	Temperatura media	19
100802	7	Sololá	704	Santa Lucía Utatlán 	7	Santa Rita 	6	Junio	2023-06-20T00:00:00	2024-11-08T19:00:00	4	Temperatura máxima	19.9
100803	7	Sololá	704	Santa Lucía Utatlán 	7	Santa Rita 	6	Junio	2023-06-20T00:00:00	2024-11-08T19:00:00	3	Temperatura mínima	18.9
100804	7	Sololá	704	Santa Lucía Utatlán 	7	Santa Rita 	6	Junio	2023-06-20T00:00:00	2024-11-08T19:00:00	5	Humedad	95
100805	7	Sololá	704	Santa Lucía Utatlán 	7	Santa Rita 	6	Junio	2023-06-20T00:00:00	2024-11-08T19:00:00	6	Velocidad del viento	3.2
100806	7	Sololá	704	Santa Lucía Utatlán 	7	Santa Rita 	6	Junio	2023-06-20T00:00:00	2024-11-08T19:00:00	7	Dirección del viento	3.22
100807	7	Sololá	704	Santa Lucía Utatlán 	7	Santa Rita 	6	Junio	2023-06-20T00:00:00	2024-11-08T19:00:00	1	Precipitación	10.8
100808	7	Sololá	704	Santa Lucía Utatlán 	7	Santa Rita 	6	Junio	2023-06-20T00:00:00	2024-11-08T19:00:00	8	Radiación solar	0
100809	7	Sololá	704	Santa Lucía Utatlán 	7	Santa Rita 	6	Junio	2023-06-20T00:00:00	2024-11-08T20:00:00	2	Temperatura media	18.8
100810	7	Sololá	704	Santa Lucía Utatlán 	7	Santa Rita 	6	Junio	2023-06-20T00:00:00	2024-11-08T20:00:00	4	Temperatura máxima	19
100811	7	Sololá	704	Santa Lucía Utatlán 	7	Santa Rita 	6	Junio	2023-06-20T00:00:00	2024-11-08T20:00:00	3	Temperatura mínima	18.7
100812	7	Sololá	704	Santa Lucía Utatlán 	7	Santa Rita 	6	Junio	2023-06-20T00:00:00	2024-11-08T20:00:00	5	Humedad	95
100813	7	Sololá	704	Santa Lucía Utatlán 	7	Santa Rita 	6	Junio	2023-06-20T00:00:00	2024-11-08T20:00:00	6	Velocidad del viento	1.6
100814	7	Sololá	704	Santa Lucía Utatlán 	7	Santa Rita 	6	Junio	2023-06-20T00:00:00	2024-11-08T20:00:00	7	Dirección del viento	1.61
100815	7	Sololá	704	Santa Lucía Utatlán 	7	Santa Rita 	6	Junio	2023-06-20T00:00:00	2024-11-08T20:00:00	1	Precipitación	0.2
100816	7	Sololá	704	Santa Lucía Utatlán 	7	Santa Rita 	6	Junio	2023-06-20T00:00:00	2024-11-08T20:00:00	8	Radiación solar	0
100817	7	Sololá	704	Santa Lucía Utatlán 	7	Santa Rita 	6	Junio	2023-06-20T00:00:00	2024-11-08T21:00:00	2	Temperatura media	18.8
100818	7	Sololá	704	Santa Lucía Utatlán 	7	Santa Rita 	6	Junio	2023-06-20T00:00:00	2024-11-08T21:00:00	4	Temperatura máxima	18.8
100819	7	Sololá	704	Santa Lucía Utatlán 	7	Santa Rita 	6	Junio	2023-06-20T00:00:00	2024-11-08T21:00:00	3	Temperatura mínima	18.7
100820	7	Sololá	704	Santa Lucía Utatlán 	7	Santa Rita 	6	Junio	2023-06-20T00:00:00	2024-11-08T21:00:00	5	Humedad	95
100821	7	Sololá	704	Santa Lucía Utatlán 	7	Santa Rita 	6	Junio	2023-06-20T00:00:00	2024-11-08T21:00:00	6	Velocidad del viento	1.6
100822	7	Sololá	704	Santa Lucía Utatlán 	7	Santa Rita 	6	Junio	2023-06-20T00:00:00	2024-11-08T21:00:00	7	Dirección del viento	1.61
100823	7	Sololá	704	Santa Lucía Utatlán 	7	Santa Rita 	6	Junio	2023-06-20T00:00:00	2024-11-08T21:00:00	1	Precipitación	0
100824	7	Sololá	704	Santa Lucía Utatlán 	7	Santa Rita 	6	Junio	2023-06-20T00:00:00	2024-11-08T21:00:00	8	Radiación solar	0
100825	7	Sololá	704	Santa Lucía Utatlán 	7	Santa Rita 	6	Junio	2023-06-20T00:00:00	2024-11-08T22:00:00	2	Temperatura media	18.6
100826	7	Sololá	704	Santa Lucía Utatlán 	7	Santa Rita 	6	Junio	2023-06-20T00:00:00	2024-11-08T22:00:00	4	Temperatura máxima	18.8
100827	7	Sololá	704	Santa Lucía Utatlán 	7	Santa Rita 	6	Junio	2023-06-20T00:00:00	2024-11-08T22:00:00	3	Temperatura mínima	18.6
100828	7	Sololá	704	Santa Lucía Utatlán 	7	Santa Rita 	6	Junio	2023-06-20T00:00:00	2024-11-08T22:00:00	5	Humedad	95
100829	7	Sololá	704	Santa Lucía Utatlán 	7	Santa Rita 	6	Junio	2023-06-20T00:00:00	2024-11-08T22:00:00	6	Velocidad del viento	1.6
100830	7	Sololá	704	Santa Lucía Utatlán 	7	Santa Rita 	6	Junio	2023-06-20T00:00:00	2024-11-08T22:00:00	7	Dirección del viento	1.61
100831	7	Sololá	704	Santa Lucía Utatlán 	7	Santa Rita 	6	Junio	2023-06-20T00:00:00	2024-11-08T22:00:00	1	Precipitación	0.6
100832	7	Sololá	704	Santa Lucía Utatlán 	7	Santa Rita 	6	Junio	2023-06-20T00:00:00	2024-11-08T22:00:00	8	Radiación solar	0
100833	7	Sololá	704	Santa Lucía Utatlán 	7	Santa Rita 	6	Junio	2023-06-20T00:00:00	2024-11-08T23:00:00	2	Temperatura media	18.7
100834	7	Sololá	704	Santa Lucía Utatlán 	7	Santa Rita 	6	Junio	2023-06-20T00:00:00	2024-11-08T23:00:00	4	Temperatura máxima	18.8
100835	7	Sololá	704	Santa Lucía Utatlán 	7	Santa Rita 	6	Junio	2023-06-20T00:00:00	2024-11-08T23:00:00	3	Temperatura mínima	18.6
100836	7	Sololá	704	Santa Lucía Utatlán 	7	Santa Rita 	6	Junio	2023-06-20T00:00:00	2024-11-08T23:00:00	5	Humedad	96
100837	7	Sololá	704	Santa Lucía Utatlán 	7	Santa Rita 	6	Junio	2023-06-20T00:00:00	2024-11-08T23:00:00	6	Velocidad del viento	1.6
100838	7	Sololá	704	Santa Lucía Utatlán 	7	Santa Rita 	6	Junio	2023-06-20T00:00:00	2024-11-08T23:00:00	7	Dirección del viento	1.61
100839	7	Sololá	704	Santa Lucía Utatlán 	7	Santa Rita 	6	Junio	2023-06-20T00:00:00	2024-11-08T23:00:00	1	Precipitación	8.6
100840	7	Sololá	704	Santa Lucía Utatlán 	7	Santa Rita 	6	Junio	2023-06-20T00:00:00	2024-11-08T23:00:00	8	Radiación solar	0
100841	7	Sololá	704	Santa Lucía Utatlán 	7	Santa Rita 	6	Junio	2023-06-21T00:00:00	2024-11-08T00:00:00	2	Temperatura media	18.7
100842	7	Sololá	704	Santa Lucía Utatlán 	7	Santa Rita 	6	Junio	2023-06-21T00:00:00	2024-11-08T00:00:00	4	Temperatura máxima	18.8
100843	7	Sololá	704	Santa Lucía Utatlán 	7	Santa Rita 	6	Junio	2023-06-21T00:00:00	2024-11-08T00:00:00	3	Temperatura mínima	18.6
100844	7	Sololá	704	Santa Lucía Utatlán 	7	Santa Rita 	6	Junio	2023-06-21T00:00:00	2024-11-08T00:00:00	5	Humedad	96
100845	7	Sololá	704	Santa Lucía Utatlán 	7	Santa Rita 	6	Junio	2023-06-21T00:00:00	2024-11-08T00:00:00	6	Velocidad del viento	1.6
100846	7	Sololá	704	Santa Lucía Utatlán 	7	Santa Rita 	6	Junio	2023-06-21T00:00:00	2024-11-08T00:00:00	7	Dirección del viento	1.61
100847	7	Sololá	704	Santa Lucía Utatlán 	7	Santa Rita 	6	Junio	2023-06-21T00:00:00	2024-11-08T00:00:00	1	Precipitación	1
100848	7	Sololá	704	Santa Lucía Utatlán 	7	Santa Rita 	6	Junio	2023-06-21T00:00:00	2024-11-08T00:00:00	8	Radiación solar	0
100849	7	Sololá	704	Santa Lucía Utatlán 	7	Santa Rita 	6	Junio	2023-06-21T00:00:00	2024-11-08T01:00:00	2	Temperatura media	18.2
100850	7	Sololá	704	Santa Lucía Utatlán 	7	Santa Rita 	6	Junio	2023-06-21T00:00:00	2024-11-08T01:00:00	4	Temperatura máxima	18.6
100851	7	Sololá	704	Santa Lucía Utatlán 	7	Santa Rita 	6	Junio	2023-06-21T00:00:00	2024-11-08T01:00:00	3	Temperatura mínima	18.2
100852	7	Sololá	704	Santa Lucía Utatlán 	7	Santa Rita 	6	Junio	2023-06-21T00:00:00	2024-11-08T01:00:00	5	Humedad	95
100853	7	Sololá	704	Santa Lucía Utatlán 	7	Santa Rita 	6	Junio	2023-06-21T00:00:00	2024-11-08T01:00:00	6	Velocidad del viento	1.6
100854	7	Sololá	704	Santa Lucía Utatlán 	7	Santa Rita 	6	Junio	2023-06-21T00:00:00	2024-11-08T01:00:00	7	Dirección del viento	1.61
100855	7	Sololá	704	Santa Lucía Utatlán 	7	Santa Rita 	6	Junio	2023-06-21T00:00:00	2024-11-08T01:00:00	1	Precipitación	1.6
100856	7	Sololá	704	Santa Lucía Utatlán 	7	Santa Rita 	6	Junio	2023-06-21T00:00:00	2024-11-08T01:00:00	8	Radiación solar	0
100857	7	Sololá	704	Santa Lucía Utatlán 	7	Santa Rita 	6	Junio	2023-06-21T00:00:00	2024-11-08T02:00:00	2	Temperatura media	18.1
100858	7	Sololá	704	Santa Lucía Utatlán 	7	Santa Rita 	6	Junio	2023-06-21T00:00:00	2024-11-08T02:00:00	4	Temperatura máxima	18.3
100859	7	Sololá	704	Santa Lucía Utatlán 	7	Santa Rita 	6	Junio	2023-06-21T00:00:00	2024-11-08T02:00:00	3	Temperatura mínima	18.1
100860	7	Sololá	704	Santa Lucía Utatlán 	7	Santa Rita 	6	Junio	2023-06-21T00:00:00	2024-11-08T02:00:00	5	Humedad	96
100861	7	Sololá	704	Santa Lucía Utatlán 	7	Santa Rita 	6	Junio	2023-06-21T00:00:00	2024-11-08T02:00:00	6	Velocidad del viento	1.6
100862	7	Sololá	704	Santa Lucía Utatlán 	7	Santa Rita 	6	Junio	2023-06-21T00:00:00	2024-11-08T02:00:00	7	Dirección del viento	1.61
100863	7	Sololá	704	Santa Lucía Utatlán 	7	Santa Rita 	6	Junio	2023-06-21T00:00:00	2024-11-08T02:00:00	1	Precipitación	0.8
100864	7	Sololá	704	Santa Lucía Utatlán 	7	Santa Rita 	6	Junio	2023-06-21T00:00:00	2024-11-08T02:00:00	8	Radiación solar	0
100865	7	Sololá	704	Santa Lucía Utatlán 	7	Santa Rita 	6	Junio	2023-06-21T00:00:00	2024-11-08T03:00:00	2	Temperatura media	18.4
100866	7	Sololá	704	Santa Lucía Utatlán 	7	Santa Rita 	6	Junio	2023-06-21T00:00:00	2024-11-08T03:00:00	4	Temperatura máxima	18.4
100867	7	Sololá	704	Santa Lucía Utatlán 	7	Santa Rita 	6	Junio	2023-06-21T00:00:00	2024-11-08T03:00:00	3	Temperatura mínima	18.1
100868	7	Sololá	704	Santa Lucía Utatlán 	7	Santa Rita 	6	Junio	2023-06-21T00:00:00	2024-11-08T03:00:00	5	Humedad	96
100869	7	Sololá	704	Santa Lucía Utatlán 	7	Santa Rita 	6	Junio	2023-06-21T00:00:00	2024-11-08T03:00:00	6	Velocidad del viento	1.6
100870	7	Sololá	704	Santa Lucía Utatlán 	7	Santa Rita 	6	Junio	2023-06-21T00:00:00	2024-11-08T03:00:00	7	Dirección del viento	1.61
100871	7	Sololá	704	Santa Lucía Utatlán 	7	Santa Rita 	6	Junio	2023-06-21T00:00:00	2024-11-08T03:00:00	1	Precipitación	0.6
100872	7	Sololá	704	Santa Lucía Utatlán 	7	Santa Rita 	6	Junio	2023-06-21T00:00:00	2024-11-08T03:00:00	8	Radiación solar	0
100873	7	Sololá	704	Santa Lucía Utatlán 	7	Santa Rita 	6	Junio	2023-06-21T00:00:00	2024-11-08T04:00:00	2	Temperatura media	17.6
100874	7	Sololá	704	Santa Lucía Utatlán 	7	Santa Rita 	6	Junio	2023-06-21T00:00:00	2024-11-08T04:00:00	4	Temperatura máxima	18.4
100875	7	Sololá	704	Santa Lucía Utatlán 	7	Santa Rita 	6	Junio	2023-06-21T00:00:00	2024-11-08T04:00:00	3	Temperatura mínima	17.6
100876	7	Sololá	704	Santa Lucía Utatlán 	7	Santa Rita 	6	Junio	2023-06-21T00:00:00	2024-11-08T04:00:00	5	Humedad	95
100877	7	Sololá	704	Santa Lucía Utatlán 	7	Santa Rita 	6	Junio	2023-06-21T00:00:00	2024-11-08T04:00:00	6	Velocidad del viento	1.6
100878	7	Sololá	704	Santa Lucía Utatlán 	7	Santa Rita 	6	Junio	2023-06-21T00:00:00	2024-11-08T04:00:00	7	Dirección del viento	1.61
100879	7	Sololá	704	Santa Lucía Utatlán 	7	Santa Rita 	6	Junio	2023-06-21T00:00:00	2024-11-08T04:00:00	1	Precipitación	0
100880	7	Sololá	704	Santa Lucía Utatlán 	7	Santa Rita 	6	Junio	2023-06-21T00:00:00	2024-11-08T04:00:00	8	Radiación solar	0
100881	7	Sololá	704	Santa Lucía Utatlán 	7	Santa Rita 	6	Junio	2023-06-21T00:00:00	2024-11-08T05:00:00	2	Temperatura media	17.3
100882	7	Sololá	704	Santa Lucía Utatlán 	7	Santa Rita 	6	Junio	2023-06-21T00:00:00	2024-11-08T05:00:00	4	Temperatura máxima	17.6
100883	7	Sololá	704	Santa Lucía Utatlán 	7	Santa Rita 	6	Junio	2023-06-21T00:00:00	2024-11-08T05:00:00	3	Temperatura mínima	17.3
100884	7	Sololá	704	Santa Lucía Utatlán 	7	Santa Rita 	6	Junio	2023-06-21T00:00:00	2024-11-08T05:00:00	5	Humedad	95
100885	7	Sololá	704	Santa Lucía Utatlán 	7	Santa Rita 	6	Junio	2023-06-21T00:00:00	2024-11-08T05:00:00	6	Velocidad del viento	1.6
100886	7	Sololá	704	Santa Lucía Utatlán 	7	Santa Rita 	6	Junio	2023-06-21T00:00:00	2024-11-08T05:00:00	7	Dirección del viento	1.61
100887	7	Sololá	704	Santa Lucía Utatlán 	7	Santa Rita 	6	Junio	2023-06-21T00:00:00	2024-11-08T05:00:00	1	Precipitación	0
100888	7	Sololá	704	Santa Lucía Utatlán 	7	Santa Rita 	6	Junio	2023-06-21T00:00:00	2024-11-08T05:00:00	8	Radiación solar	0
100889	7	Sololá	704	Santa Lucía Utatlán 	7	Santa Rita 	6	Junio	2023-06-21T00:00:00	2024-11-08T06:00:00	2	Temperatura media	17.3
100890	7	Sololá	704	Santa Lucía Utatlán 	7	Santa Rita 	6	Junio	2023-06-21T00:00:00	2024-11-08T06:00:00	4	Temperatura máxima	17.4
100891	7	Sololá	704	Santa Lucía Utatlán 	7	Santa Rita 	6	Junio	2023-06-21T00:00:00	2024-11-08T06:00:00	3	Temperatura mínima	17.2
100892	7	Sololá	704	Santa Lucía Utatlán 	7	Santa Rita 	6	Junio	2023-06-21T00:00:00	2024-11-08T06:00:00	5	Humedad	96
100893	7	Sololá	704	Santa Lucía Utatlán 	7	Santa Rita 	6	Junio	2023-06-21T00:00:00	2024-11-08T06:00:00	6	Velocidad del viento	1.6
100894	7	Sololá	704	Santa Lucía Utatlán 	7	Santa Rita 	6	Junio	2023-06-21T00:00:00	2024-11-08T06:00:00	7	Dirección del viento	1.61
100895	7	Sololá	704	Santa Lucía Utatlán 	7	Santa Rita 	6	Junio	2023-06-21T00:00:00	2024-11-08T06:00:00	1	Precipitación	0
100896	7	Sololá	704	Santa Lucía Utatlán 	7	Santa Rita 	6	Junio	2023-06-21T00:00:00	2024-11-08T06:00:00	8	Radiación solar	4
100897	7	Sololá	704	Santa Lucía Utatlán 	7	Santa Rita 	6	Junio	2023-06-21T00:00:00	2024-11-08T07:00:00	2	Temperatura media	18.8
100898	7	Sololá	704	Santa Lucía Utatlán 	7	Santa Rita 	6	Junio	2023-06-21T00:00:00	2024-11-08T07:00:00	4	Temperatura máxima	18.8
100899	7	Sololá	704	Santa Lucía Utatlán 	7	Santa Rita 	6	Junio	2023-06-21T00:00:00	2024-11-08T07:00:00	3	Temperatura mínima	17.3
100900	7	Sololá	704	Santa Lucía Utatlán 	7	Santa Rita 	6	Junio	2023-06-21T00:00:00	2024-11-08T07:00:00	5	Humedad	95
100901	7	Sololá	704	Santa Lucía Utatlán 	7	Santa Rita 	6	Junio	2023-06-21T00:00:00	2024-11-08T07:00:00	6	Velocidad del viento	1.6
100902	7	Sololá	704	Santa Lucía Utatlán 	7	Santa Rita 	6	Junio	2023-06-21T00:00:00	2024-11-08T07:00:00	7	Dirección del viento	1.61
100903	7	Sololá	704	Santa Lucía Utatlán 	7	Santa Rita 	6	Junio	2023-06-21T00:00:00	2024-11-08T07:00:00	1	Precipitación	0
100904	7	Sololá	704	Santa Lucía Utatlán 	7	Santa Rita 	6	Junio	2023-06-21T00:00:00	2024-11-08T07:00:00	8	Radiación solar	62
100905	7	Sololá	704	Santa Lucía Utatlán 	7	Santa Rita 	6	Junio	2023-06-21T00:00:00	2024-11-08T08:00:00	2	Temperatura media	19.7
100906	7	Sololá	704	Santa Lucía Utatlán 	7	Santa Rita 	6	Junio	2023-06-21T00:00:00	2024-11-08T08:00:00	4	Temperatura máxima	19.7
100907	7	Sololá	704	Santa Lucía Utatlán 	7	Santa Rita 	6	Junio	2023-06-21T00:00:00	2024-11-08T08:00:00	3	Temperatura mínima	18.8
100908	7	Sololá	704	Santa Lucía Utatlán 	7	Santa Rita 	6	Junio	2023-06-21T00:00:00	2024-11-08T08:00:00	5	Humedad	92
100909	7	Sololá	704	Santa Lucía Utatlán 	7	Santa Rita 	6	Junio	2023-06-21T00:00:00	2024-11-08T08:00:00	6	Velocidad del viento	1.6
100910	7	Sololá	704	Santa Lucía Utatlán 	7	Santa Rita 	6	Junio	2023-06-21T00:00:00	2024-11-08T08:00:00	7	Dirección del viento	1.61
100911	7	Sololá	704	Santa Lucía Utatlán 	7	Santa Rita 	6	Junio	2023-06-21T00:00:00	2024-11-08T08:00:00	1	Precipitación	0
100912	7	Sololá	704	Santa Lucía Utatlán 	7	Santa Rita 	6	Junio	2023-06-21T00:00:00	2024-11-08T08:00:00	8	Radiación solar	182
100913	7	Sololá	704	Santa Lucía Utatlán 	7	Santa Rita 	6	Junio	2023-06-21T00:00:00	2024-11-08T09:00:00	2	Temperatura media	20.5
100914	7	Sololá	704	Santa Lucía Utatlán 	7	Santa Rita 	6	Junio	2023-06-21T00:00:00	2024-11-08T09:00:00	4	Temperatura máxima	20.5
100915	7	Sololá	704	Santa Lucía Utatlán 	7	Santa Rita 	6	Junio	2023-06-21T00:00:00	2024-11-08T09:00:00	3	Temperatura mínima	19.7
100916	7	Sololá	704	Santa Lucía Utatlán 	7	Santa Rita 	6	Junio	2023-06-21T00:00:00	2024-11-08T09:00:00	5	Humedad	90
100917	7	Sololá	704	Santa Lucía Utatlán 	7	Santa Rita 	6	Junio	2023-06-21T00:00:00	2024-11-08T09:00:00	6	Velocidad del viento	1.6
100918	7	Sololá	704	Santa Lucía Utatlán 	7	Santa Rita 	6	Junio	2023-06-21T00:00:00	2024-11-08T09:00:00	7	Dirección del viento	1.61
100919	7	Sololá	704	Santa Lucía Utatlán 	7	Santa Rita 	6	Junio	2023-06-21T00:00:00	2024-11-08T09:00:00	1	Precipitación	0
100920	7	Sololá	704	Santa Lucía Utatlán 	7	Santa Rita 	6	Junio	2023-06-21T00:00:00	2024-11-08T09:00:00	8	Radiación solar	274
100921	7	Sololá	704	Santa Lucía Utatlán 	7	Santa Rita 	6	Junio	2023-06-21T00:00:00	2024-11-08T10:00:00	2	Temperatura media	21.6
100922	7	Sololá	704	Santa Lucía Utatlán 	7	Santa Rita 	6	Junio	2023-06-21T00:00:00	2024-11-08T10:00:00	4	Temperatura máxima	21.7
100923	7	Sololá	704	Santa Lucía Utatlán 	7	Santa Rita 	6	Junio	2023-06-21T00:00:00	2024-11-08T10:00:00	3	Temperatura mínima	20.5
100924	7	Sololá	704	Santa Lucía Utatlán 	7	Santa Rita 	6	Junio	2023-06-21T00:00:00	2024-11-08T10:00:00	5	Humedad	84
100925	7	Sololá	704	Santa Lucía Utatlán 	7	Santa Rita 	6	Junio	2023-06-21T00:00:00	2024-11-08T10:00:00	6	Velocidad del viento	1.6
100926	7	Sololá	704	Santa Lucía Utatlán 	7	Santa Rita 	6	Junio	2023-06-21T00:00:00	2024-11-08T10:00:00	7	Dirección del viento	1.61
100927	7	Sololá	704	Santa Lucía Utatlán 	7	Santa Rita 	6	Junio	2023-06-21T00:00:00	2024-11-08T10:00:00	1	Precipitación	0
100928	7	Sololá	704	Santa Lucía Utatlán 	7	Santa Rita 	6	Junio	2023-06-21T00:00:00	2024-11-08T10:00:00	8	Radiación solar	285
100929	7	Sololá	704	Santa Lucía Utatlán 	7	Santa Rita 	6	Junio	2023-06-21T00:00:00	2024-11-08T11:00:00	2	Temperatura media	21.4
100930	7	Sololá	704	Santa Lucía Utatlán 	7	Santa Rita 	6	Junio	2023-06-21T00:00:00	2024-11-08T11:00:00	4	Temperatura máxima	21.8
100931	7	Sololá	704	Santa Lucía Utatlán 	7	Santa Rita 	6	Junio	2023-06-21T00:00:00	2024-11-08T11:00:00	3	Temperatura mínima	21.3
100932	7	Sololá	704	Santa Lucía Utatlán 	7	Santa Rita 	6	Junio	2023-06-21T00:00:00	2024-11-08T11:00:00	5	Humedad	86
100933	7	Sololá	704	Santa Lucía Utatlán 	7	Santa Rita 	6	Junio	2023-06-21T00:00:00	2024-11-08T11:00:00	6	Velocidad del viento	3.2
100934	7	Sololá	704	Santa Lucía Utatlán 	7	Santa Rita 	6	Junio	2023-06-21T00:00:00	2024-11-08T11:00:00	7	Dirección del viento	3.22
100935	7	Sololá	704	Santa Lucía Utatlán 	7	Santa Rita 	6	Junio	2023-06-21T00:00:00	2024-11-08T11:00:00	1	Precipitación	0
100936	7	Sololá	704	Santa Lucía Utatlán 	7	Santa Rita 	6	Junio	2023-06-21T00:00:00	2024-11-08T11:00:00	8	Radiación solar	254
100937	7	Sololá	704	Santa Lucía Utatlán 	7	Santa Rita 	6	Junio	2023-06-21T00:00:00	2024-11-08T12:00:00	2	Temperatura media	22.4
100938	7	Sololá	704	Santa Lucía Utatlán 	7	Santa Rita 	6	Junio	2023-06-21T00:00:00	2024-11-08T12:00:00	4	Temperatura máxima	22.8
100939	7	Sololá	704	Santa Lucía Utatlán 	7	Santa Rita 	6	Junio	2023-06-21T00:00:00	2024-11-08T12:00:00	3	Temperatura mínima	21.4
100940	7	Sololá	704	Santa Lucía Utatlán 	7	Santa Rita 	6	Junio	2023-06-21T00:00:00	2024-11-08T12:00:00	5	Humedad	83
100941	7	Sololá	704	Santa Lucía Utatlán 	7	Santa Rita 	6	Junio	2023-06-21T00:00:00	2024-11-08T12:00:00	6	Velocidad del viento	3.2
100942	7	Sololá	704	Santa Lucía Utatlán 	7	Santa Rita 	6	Junio	2023-06-21T00:00:00	2024-11-08T12:00:00	7	Dirección del viento	3.22
100943	7	Sololá	704	Santa Lucía Utatlán 	7	Santa Rita 	6	Junio	2023-06-21T00:00:00	2024-11-08T12:00:00	1	Precipitación	0
100944	7	Sololá	704	Santa Lucía Utatlán 	7	Santa Rita 	6	Junio	2023-06-21T00:00:00	2024-11-08T12:00:00	8	Radiación solar	300
100945	7	Sololá	704	Santa Lucía Utatlán 	7	Santa Rita 	6	Junio	2023-06-21T00:00:00	2024-11-08T13:00:00	2	Temperatura media	21.8
100946	7	Sololá	704	Santa Lucía Utatlán 	7	Santa Rita 	6	Junio	2023-06-21T00:00:00	2024-11-08T13:00:00	4	Temperatura máxima	22.5
100947	7	Sololá	704	Santa Lucía Utatlán 	7	Santa Rita 	6	Junio	2023-06-21T00:00:00	2024-11-08T13:00:00	3	Temperatura mínima	21.8
100948	7	Sololá	704	Santa Lucía Utatlán 	7	Santa Rita 	6	Junio	2023-06-21T00:00:00	2024-11-08T13:00:00	5	Humedad	87
100949	7	Sololá	704	Santa Lucía Utatlán 	7	Santa Rita 	6	Junio	2023-06-21T00:00:00	2024-11-08T13:00:00	6	Velocidad del viento	4.8
100950	7	Sololá	704	Santa Lucía Utatlán 	7	Santa Rita 	6	Junio	2023-06-21T00:00:00	2024-11-08T13:00:00	7	Dirección del viento	4.83
100951	7	Sololá	704	Santa Lucía Utatlán 	7	Santa Rita 	6	Junio	2023-06-21T00:00:00	2024-11-08T13:00:00	1	Precipitación	0
100952	7	Sololá	704	Santa Lucía Utatlán 	7	Santa Rita 	6	Junio	2023-06-21T00:00:00	2024-11-08T13:00:00	8	Radiación solar	161
100953	7	Sololá	704	Santa Lucía Utatlán 	7	Santa Rita 	6	Junio	2023-06-21T00:00:00	2024-11-08T14:00:00	2	Temperatura media	22.3
100954	7	Sololá	704	Santa Lucía Utatlán 	7	Santa Rita 	6	Junio	2023-06-21T00:00:00	2024-11-08T14:00:00	4	Temperatura máxima	22.3
100955	7	Sololá	704	Santa Lucía Utatlán 	7	Santa Rita 	6	Junio	2023-06-21T00:00:00	2024-11-08T14:00:00	3	Temperatura mínima	21.4
100956	7	Sololá	704	Santa Lucía Utatlán 	7	Santa Rita 	6	Junio	2023-06-21T00:00:00	2024-11-08T14:00:00	5	Humedad	84
100957	7	Sololá	704	Santa Lucía Utatlán 	7	Santa Rita 	6	Junio	2023-06-21T00:00:00	2024-11-08T14:00:00	6	Velocidad del viento	3.2
100958	7	Sololá	704	Santa Lucía Utatlán 	7	Santa Rita 	6	Junio	2023-06-21T00:00:00	2024-11-08T14:00:00	7	Dirección del viento	3.22
100959	7	Sololá	704	Santa Lucía Utatlán 	7	Santa Rita 	6	Junio	2023-06-21T00:00:00	2024-11-08T14:00:00	1	Precipitación	0.2
100960	7	Sololá	704	Santa Lucía Utatlán 	7	Santa Rita 	6	Junio	2023-06-21T00:00:00	2024-11-08T14:00:00	8	Radiación solar	246
100961	7	Sololá	704	Santa Lucía Utatlán 	7	Santa Rita 	6	Junio	2023-06-21T00:00:00	2024-11-08T15:00:00	2	Temperatura media	22.3
100962	7	Sololá	704	Santa Lucía Utatlán 	7	Santa Rita 	6	Junio	2023-06-21T00:00:00	2024-11-08T15:00:00	4	Temperatura máxima	22.7
100963	7	Sololá	704	Santa Lucía Utatlán 	7	Santa Rita 	6	Junio	2023-06-21T00:00:00	2024-11-08T15:00:00	3	Temperatura mínima	22.3
100964	7	Sololá	704	Santa Lucía Utatlán 	7	Santa Rita 	6	Junio	2023-06-21T00:00:00	2024-11-08T15:00:00	5	Humedad	83
100965	7	Sololá	704	Santa Lucía Utatlán 	7	Santa Rita 	6	Junio	2023-06-21T00:00:00	2024-11-08T15:00:00	6	Velocidad del viento	3.2
100966	7	Sololá	704	Santa Lucía Utatlán 	7	Santa Rita 	6	Junio	2023-06-21T00:00:00	2024-11-08T15:00:00	7	Dirección del viento	3.22
100967	7	Sololá	704	Santa Lucía Utatlán 	7	Santa Rita 	6	Junio	2023-06-21T00:00:00	2024-11-08T15:00:00	1	Precipitación	0
100968	7	Sololá	704	Santa Lucía Utatlán 	7	Santa Rita 	6	Junio	2023-06-21T00:00:00	2024-11-08T15:00:00	8	Radiación solar	259
100969	7	Sololá	704	Santa Lucía Utatlán 	7	Santa Rita 	6	Junio	2023-06-21T00:00:00	2024-11-08T16:00:00	2	Temperatura media	21.4
100970	7	Sololá	704	Santa Lucía Utatlán 	7	Santa Rita 	6	Junio	2023-06-21T00:00:00	2024-11-08T16:00:00	4	Temperatura máxima	22.3
100971	7	Sololá	704	Santa Lucía Utatlán 	7	Santa Rita 	6	Junio	2023-06-21T00:00:00	2024-11-08T16:00:00	3	Temperatura mínima	21.4
100972	7	Sololá	704	Santa Lucía Utatlán 	7	Santa Rita 	6	Junio	2023-06-21T00:00:00	2024-11-08T16:00:00	5	Humedad	89
100973	7	Sololá	704	Santa Lucía Utatlán 	7	Santa Rita 	6	Junio	2023-06-21T00:00:00	2024-11-08T16:00:00	6	Velocidad del viento	3.2
100974	7	Sololá	704	Santa Lucía Utatlán 	7	Santa Rita 	6	Junio	2023-06-21T00:00:00	2024-11-08T16:00:00	7	Dirección del viento	3.22
100975	7	Sololá	704	Santa Lucía Utatlán 	7	Santa Rita 	6	Junio	2023-06-21T00:00:00	2024-11-08T16:00:00	1	Precipitación	0.4
100976	7	Sololá	704	Santa Lucía Utatlán 	7	Santa Rita 	6	Junio	2023-06-21T00:00:00	2024-11-08T16:00:00	8	Radiación solar	84
100977	7	Sololá	704	Santa Lucía Utatlán 	7	Santa Rita 	6	Junio	2023-06-21T00:00:00	2024-11-08T17:00:00	2	Temperatura media	18.6
100978	7	Sololá	704	Santa Lucía Utatlán 	7	Santa Rita 	6	Junio	2023-06-21T00:00:00	2024-11-08T17:00:00	4	Temperatura máxima	21.4
100979	7	Sololá	704	Santa Lucía Utatlán 	7	Santa Rita 	6	Junio	2023-06-21T00:00:00	2024-11-08T17:00:00	3	Temperatura mínima	18.6
100980	7	Sololá	704	Santa Lucía Utatlán 	7	Santa Rita 	6	Junio	2023-06-21T00:00:00	2024-11-08T17:00:00	5	Humedad	93
100981	7	Sololá	704	Santa Lucía Utatlán 	7	Santa Rita 	6	Junio	2023-06-21T00:00:00	2024-11-08T17:00:00	6	Velocidad del viento	3.2
100982	7	Sololá	704	Santa Lucía Utatlán 	7	Santa Rita 	6	Junio	2023-06-21T00:00:00	2024-11-08T17:00:00	7	Dirección del viento	3.22
100983	7	Sololá	704	Santa Lucía Utatlán 	7	Santa Rita 	6	Junio	2023-06-21T00:00:00	2024-11-08T17:00:00	1	Precipitación	28.8
100984	7	Sololá	704	Santa Lucía Utatlán 	7	Santa Rita 	6	Junio	2023-06-21T00:00:00	2024-11-08T17:00:00	8	Radiación solar	12
100985	7	Sololá	704	Santa Lucía Utatlán 	7	Santa Rita 	6	Junio	2023-06-21T00:00:00	2024-11-08T18:00:00	2	Temperatura media	18.9
100986	7	Sololá	704	Santa Lucía Utatlán 	7	Santa Rita 	6	Junio	2023-06-21T00:00:00	2024-11-08T18:00:00	4	Temperatura máxima	19
100987	7	Sololá	704	Santa Lucía Utatlán 	7	Santa Rita 	6	Junio	2023-06-21T00:00:00	2024-11-08T18:00:00	3	Temperatura mínima	18.6
100988	7	Sololá	704	Santa Lucía Utatlán 	7	Santa Rita 	6	Junio	2023-06-21T00:00:00	2024-11-08T18:00:00	5	Humedad	96
100989	7	Sololá	704	Santa Lucía Utatlán 	7	Santa Rita 	6	Junio	2023-06-21T00:00:00	2024-11-08T18:00:00	6	Velocidad del viento	1.6
100990	7	Sololá	704	Santa Lucía Utatlán 	7	Santa Rita 	6	Junio	2023-06-21T00:00:00	2024-11-08T18:00:00	7	Dirección del viento	1.61
100991	7	Sololá	704	Santa Lucía Utatlán 	7	Santa Rita 	6	Junio	2023-06-21T00:00:00	2024-11-08T18:00:00	1	Precipitación	1.4
100992	7	Sololá	704	Santa Lucía Utatlán 	7	Santa Rita 	6	Junio	2023-06-21T00:00:00	2024-11-08T18:00:00	8	Radiación solar	11
100993	7	Sololá	704	Santa Lucía Utatlán 	7	Santa Rita 	6	Junio	2023-06-21T00:00:00	2024-11-08T19:00:00	2	Temperatura media	18.6
100994	7	Sololá	704	Santa Lucía Utatlán 	7	Santa Rita 	6	Junio	2023-06-21T00:00:00	2024-11-08T19:00:00	4	Temperatura máxima	19.6
100995	7	Sololá	704	Santa Lucía Utatlán 	7	Santa Rita 	6	Junio	2023-06-21T00:00:00	2024-11-08T19:00:00	3	Temperatura mínima	18.6
100996	7	Sololá	704	Santa Lucía Utatlán 	7	Santa Rita 	6	Junio	2023-06-21T00:00:00	2024-11-08T19:00:00	5	Humedad	93
100997	7	Sololá	704	Santa Lucía Utatlán 	7	Santa Rita 	6	Junio	2023-06-21T00:00:00	2024-11-08T19:00:00	6	Velocidad del viento	3.2
100998	7	Sololá	704	Santa Lucía Utatlán 	7	Santa Rita 	6	Junio	2023-06-21T00:00:00	2024-11-08T19:00:00	7	Dirección del viento	3.22
100999	7	Sololá	704	Santa Lucía Utatlán 	7	Santa Rita 	6	Junio	2023-06-21T00:00:00	2024-11-08T19:00:00	1	Precipitación	0
101000	7	Sololá	704	Santa Lucía Utatlán 	7	Santa Rita 	6	Junio	2023-06-21T00:00:00	2024-11-08T19:00:00	8	Radiación solar	0
101001	7	Sololá	704	Santa Lucía Utatlán 	7	Santa Rita 	6	Junio	2023-06-21T00:00:00	2024-11-08T20:00:00	2	Temperatura media	18.5
101002	7	Sololá	704	Santa Lucía Utatlán 	7	Santa Rita 	6	Junio	2023-06-21T00:00:00	2024-11-08T20:00:00	4	Temperatura máxima	18.6
101003	7	Sololá	704	Santa Lucía Utatlán 	7	Santa Rita 	6	Junio	2023-06-21T00:00:00	2024-11-08T20:00:00	3	Temperatura mínima	18.3
101004	7	Sololá	704	Santa Lucía Utatlán 	7	Santa Rita 	6	Junio	2023-06-21T00:00:00	2024-11-08T20:00:00	5	Humedad	95
101005	7	Sololá	704	Santa Lucía Utatlán 	7	Santa Rita 	6	Junio	2023-06-21T00:00:00	2024-11-08T20:00:00	6	Velocidad del viento	3.2
101006	7	Sololá	704	Santa Lucía Utatlán 	7	Santa Rita 	6	Junio	2023-06-21T00:00:00	2024-11-08T20:00:00	7	Dirección del viento	3.22
101007	7	Sololá	704	Santa Lucía Utatlán 	7	Santa Rita 	6	Junio	2023-06-21T00:00:00	2024-11-08T20:00:00	1	Precipitación	0.2
101008	7	Sololá	704	Santa Lucía Utatlán 	7	Santa Rita 	6	Junio	2023-06-21T00:00:00	2024-11-08T20:00:00	8	Radiación solar	0
101009	7	Sololá	704	Santa Lucía Utatlán 	7	Santa Rita 	6	Junio	2023-06-21T00:00:00	2024-11-08T21:00:00	2	Temperatura media	18.9
101010	7	Sololá	704	Santa Lucía Utatlán 	7	Santa Rita 	6	Junio	2023-06-21T00:00:00	2024-11-08T21:00:00	4	Temperatura máxima	18.9
101011	7	Sololá	704	Santa Lucía Utatlán 	7	Santa Rita 	6	Junio	2023-06-21T00:00:00	2024-11-08T21:00:00	3	Temperatura mínima	18.4
101012	7	Sololá	704	Santa Lucía Utatlán 	7	Santa Rita 	6	Junio	2023-06-21T00:00:00	2024-11-08T21:00:00	5	Humedad	92
101013	7	Sololá	704	Santa Lucía Utatlán 	7	Santa Rita 	6	Junio	2023-06-21T00:00:00	2024-11-08T21:00:00	6	Velocidad del viento	1.6
101014	7	Sololá	704	Santa Lucía Utatlán 	7	Santa Rita 	6	Junio	2023-06-21T00:00:00	2024-11-08T21:00:00	7	Dirección del viento	1.61
101015	7	Sololá	704	Santa Lucía Utatlán 	7	Santa Rita 	6	Junio	2023-06-21T00:00:00	2024-11-08T21:00:00	1	Precipitación	0
101016	7	Sololá	704	Santa Lucía Utatlán 	7	Santa Rita 	6	Junio	2023-06-21T00:00:00	2024-11-08T21:00:00	8	Radiación solar	0
101017	7	Sololá	704	Santa Lucía Utatlán 	7	Santa Rita 	6	Junio	2023-06-21T00:00:00	2024-11-08T22:00:00	2	Temperatura media	18.3
101018	7	Sololá	704	Santa Lucía Utatlán 	7	Santa Rita 	6	Junio	2023-06-21T00:00:00	2024-11-08T22:00:00	4	Temperatura máxima	19
101019	7	Sololá	704	Santa Lucía Utatlán 	7	Santa Rita 	6	Junio	2023-06-21T00:00:00	2024-11-08T22:00:00	3	Temperatura mínima	18.3
101020	7	Sololá	704	Santa Lucía Utatlán 	7	Santa Rita 	6	Junio	2023-06-21T00:00:00	2024-11-08T22:00:00	5	Humedad	96
101021	7	Sololá	704	Santa Lucía Utatlán 	7	Santa Rita 	6	Junio	2023-06-21T00:00:00	2024-11-08T22:00:00	6	Velocidad del viento	1.6
101022	7	Sololá	704	Santa Lucía Utatlán 	7	Santa Rita 	6	Junio	2023-06-21T00:00:00	2024-11-08T22:00:00	7	Dirección del viento	1.61
101023	7	Sololá	704	Santa Lucía Utatlán 	7	Santa Rita 	6	Junio	2023-06-21T00:00:00	2024-11-08T22:00:00	1	Precipitación	0
101024	7	Sololá	704	Santa Lucía Utatlán 	7	Santa Rita 	6	Junio	2023-06-21T00:00:00	2024-11-08T22:00:00	8	Radiación solar	0
101025	7	Sololá	704	Santa Lucía Utatlán 	7	Santa Rita 	6	Junio	2023-06-21T00:00:00	2024-11-08T23:00:00	2	Temperatura media	18.1
101026	7	Sololá	704	Santa Lucía Utatlán 	7	Santa Rita 	6	Junio	2023-06-21T00:00:00	2024-11-08T23:00:00	4	Temperatura máxima	18.3
101027	7	Sololá	704	Santa Lucía Utatlán 	7	Santa Rita 	6	Junio	2023-06-21T00:00:00	2024-11-08T23:00:00	3	Temperatura mínima	18.1
101028	7	Sololá	704	Santa Lucía Utatlán 	7	Santa Rita 	6	Junio	2023-06-21T00:00:00	2024-11-08T23:00:00	5	Humedad	95
101029	7	Sololá	704	Santa Lucía Utatlán 	7	Santa Rita 	6	Junio	2023-06-21T00:00:00	2024-11-08T23:00:00	6	Velocidad del viento	3.2
101030	7	Sololá	704	Santa Lucía Utatlán 	7	Santa Rita 	6	Junio	2023-06-21T00:00:00	2024-11-08T23:00:00	7	Dirección del viento	3.22
101031	7	Sololá	704	Santa Lucía Utatlán 	7	Santa Rita 	6	Junio	2023-06-21T00:00:00	2024-11-08T23:00:00	1	Precipitación	0
101032	7	Sololá	704	Santa Lucía Utatlán 	7	Santa Rita 	6	Junio	2023-06-21T00:00:00	2024-11-08T23:00:00	8	Radiación solar	0
101033	7	Sololá	704	Santa Lucía Utatlán 	7	Santa Rita 	6	Junio	2023-06-22T00:00:00	2024-11-08T00:00:00	2	Temperatura media	18.9
101034	7	Sololá	704	Santa Lucía Utatlán 	7	Santa Rita 	6	Junio	2023-06-22T00:00:00	2024-11-08T00:00:00	4	Temperatura máxima	18.9
101035	7	Sololá	704	Santa Lucía Utatlán 	7	Santa Rita 	6	Junio	2023-06-22T00:00:00	2024-11-08T00:00:00	3	Temperatura mínima	18.1
101036	7	Sololá	704	Santa Lucía Utatlán 	7	Santa Rita 	6	Junio	2023-06-22T00:00:00	2024-11-08T00:00:00	5	Humedad	85
101037	7	Sololá	704	Santa Lucía Utatlán 	7	Santa Rita 	6	Junio	2023-06-22T00:00:00	2024-11-08T00:00:00	6	Velocidad del viento	1.6
101038	7	Sololá	704	Santa Lucía Utatlán 	7	Santa Rita 	6	Junio	2023-06-22T00:00:00	2024-11-08T00:00:00	7	Dirección del viento	1.61
101039	7	Sololá	704	Santa Lucía Utatlán 	7	Santa Rita 	6	Junio	2023-06-22T00:00:00	2024-11-08T00:00:00	1	Precipitación	0
101040	7	Sololá	704	Santa Lucía Utatlán 	7	Santa Rita 	6	Junio	2023-06-22T00:00:00	2024-11-08T00:00:00	8	Radiación solar	0
101041	7	Sololá	704	Santa Lucía Utatlán 	7	Santa Rita 	6	Junio	2023-06-22T00:00:00	2024-11-08T01:00:00	2	Temperatura media	17.7
101042	7	Sololá	704	Santa Lucía Utatlán 	7	Santa Rita 	6	Junio	2023-06-22T00:00:00	2024-11-08T01:00:00	4	Temperatura máxima	19.1
101043	7	Sololá	704	Santa Lucía Utatlán 	7	Santa Rita 	6	Junio	2023-06-22T00:00:00	2024-11-08T01:00:00	3	Temperatura mínima	17.7
101044	7	Sololá	704	Santa Lucía Utatlán 	7	Santa Rita 	6	Junio	2023-06-22T00:00:00	2024-11-08T01:00:00	5	Humedad	91
101045	7	Sololá	704	Santa Lucía Utatlán 	7	Santa Rita 	6	Junio	2023-06-22T00:00:00	2024-11-08T01:00:00	6	Velocidad del viento	3.2
101046	7	Sololá	704	Santa Lucía Utatlán 	7	Santa Rita 	6	Junio	2023-06-22T00:00:00	2024-11-08T01:00:00	7	Dirección del viento	3.22
101047	7	Sololá	704	Santa Lucía Utatlán 	7	Santa Rita 	6	Junio	2023-06-22T00:00:00	2024-11-08T01:00:00	1	Precipitación	1.8
101048	7	Sololá	704	Santa Lucía Utatlán 	7	Santa Rita 	6	Junio	2023-06-22T00:00:00	2024-11-08T01:00:00	8	Radiación solar	0
101049	7	Sololá	704	Santa Lucía Utatlán 	7	Santa Rita 	6	Junio	2023-06-22T00:00:00	2024-11-08T02:00:00	2	Temperatura media	16.8
101050	7	Sololá	704	Santa Lucía Utatlán 	7	Santa Rita 	6	Junio	2023-06-22T00:00:00	2024-11-08T02:00:00	4	Temperatura máxima	17.7
101051	7	Sololá	704	Santa Lucía Utatlán 	7	Santa Rita 	6	Junio	2023-06-22T00:00:00	2024-11-08T02:00:00	3	Temperatura mínima	16.8
101052	7	Sololá	704	Santa Lucía Utatlán 	7	Santa Rita 	6	Junio	2023-06-22T00:00:00	2024-11-08T02:00:00	5	Humedad	95
101053	7	Sololá	704	Santa Lucía Utatlán 	7	Santa Rita 	6	Junio	2023-06-22T00:00:00	2024-11-08T02:00:00	6	Velocidad del viento	1.6
101054	7	Sololá	704	Santa Lucía Utatlán 	7	Santa Rita 	6	Junio	2023-06-22T00:00:00	2024-11-08T02:00:00	7	Dirección del viento	1.61
101055	7	Sololá	704	Santa Lucía Utatlán 	7	Santa Rita 	6	Junio	2023-06-22T00:00:00	2024-11-08T02:00:00	1	Precipitación	0.2
101056	7	Sololá	704	Santa Lucía Utatlán 	7	Santa Rita 	6	Junio	2023-06-22T00:00:00	2024-11-08T02:00:00	8	Radiación solar	0
101057	7	Sololá	704	Santa Lucía Utatlán 	7	Santa Rita 	6	Junio	2023-06-22T00:00:00	2024-11-08T03:00:00	2	Temperatura media	16.7
101058	7	Sololá	704	Santa Lucía Utatlán 	7	Santa Rita 	6	Junio	2023-06-22T00:00:00	2024-11-08T03:00:00	4	Temperatura máxima	16.9
101059	7	Sololá	704	Santa Lucía Utatlán 	7	Santa Rita 	6	Junio	2023-06-22T00:00:00	2024-11-08T03:00:00	3	Temperatura mínima	16.7
101060	7	Sololá	704	Santa Lucía Utatlán 	7	Santa Rita 	6	Junio	2023-06-22T00:00:00	2024-11-08T03:00:00	5	Humedad	95
101061	7	Sololá	704	Santa Lucía Utatlán 	7	Santa Rita 	6	Junio	2023-06-22T00:00:00	2024-11-08T03:00:00	6	Velocidad del viento	1.6
101062	7	Sololá	704	Santa Lucía Utatlán 	7	Santa Rita 	6	Junio	2023-06-22T00:00:00	2024-11-08T03:00:00	7	Dirección del viento	1.61
101063	7	Sololá	704	Santa Lucía Utatlán 	7	Santa Rita 	6	Junio	2023-06-22T00:00:00	2024-11-08T03:00:00	1	Precipitación	0
101064	7	Sololá	704	Santa Lucía Utatlán 	7	Santa Rita 	6	Junio	2023-06-22T00:00:00	2024-11-08T03:00:00	8	Radiación solar	0
101065	7	Sololá	704	Santa Lucía Utatlán 	7	Santa Rita 	6	Junio	2023-06-22T00:00:00	2024-11-08T04:00:00	2	Temperatura media	17.2
101066	7	Sololá	704	Santa Lucía Utatlán 	7	Santa Rita 	6	Junio	2023-06-22T00:00:00	2024-11-08T04:00:00	4	Temperatura máxima	17.2
101067	7	Sololá	704	Santa Lucía Utatlán 	7	Santa Rita 	6	Junio	2023-06-22T00:00:00	2024-11-08T04:00:00	3	Temperatura mínima	16.7
101068	7	Sololá	704	Santa Lucía Utatlán 	7	Santa Rita 	6	Junio	2023-06-22T00:00:00	2024-11-08T04:00:00	5	Humedad	96
101069	7	Sololá	704	Santa Lucía Utatlán 	7	Santa Rita 	6	Junio	2023-06-22T00:00:00	2024-11-08T04:00:00	6	Velocidad del viento	1.6
101070	7	Sololá	704	Santa Lucía Utatlán 	7	Santa Rita 	6	Junio	2023-06-22T00:00:00	2024-11-08T04:00:00	7	Dirección del viento	1.61
101071	7	Sololá	704	Santa Lucía Utatlán 	7	Santa Rita 	6	Junio	2023-06-22T00:00:00	2024-11-08T04:00:00	1	Precipitación	0.2
101072	7	Sololá	704	Santa Lucía Utatlán 	7	Santa Rita 	6	Junio	2023-06-22T00:00:00	2024-11-08T04:00:00	8	Radiación solar	0
101073	7	Sololá	704	Santa Lucía Utatlán 	7	Santa Rita 	6	Junio	2023-06-22T00:00:00	2024-11-08T05:00:00	2	Temperatura media	17.3
101074	7	Sololá	704	Santa Lucía Utatlán 	7	Santa Rita 	6	Junio	2023-06-22T00:00:00	2024-11-08T05:00:00	4	Temperatura máxima	17.3
101075	7	Sololá	704	Santa Lucía Utatlán 	7	Santa Rita 	6	Junio	2023-06-22T00:00:00	2024-11-08T05:00:00	3	Temperatura mínima	17.1
101076	7	Sololá	704	Santa Lucía Utatlán 	7	Santa Rita 	6	Junio	2023-06-22T00:00:00	2024-11-08T05:00:00	5	Humedad	96
101077	7	Sololá	704	Santa Lucía Utatlán 	7	Santa Rita 	6	Junio	2023-06-22T00:00:00	2024-11-08T05:00:00	6	Velocidad del viento	1.6
101078	7	Sololá	704	Santa Lucía Utatlán 	7	Santa Rita 	6	Junio	2023-06-22T00:00:00	2024-11-08T05:00:00	7	Dirección del viento	1.61
101079	7	Sololá	704	Santa Lucía Utatlán 	7	Santa Rita 	6	Junio	2023-06-22T00:00:00	2024-11-08T05:00:00	1	Precipitación	0
101080	7	Sololá	704	Santa Lucía Utatlán 	7	Santa Rita 	6	Junio	2023-06-22T00:00:00	2024-11-08T05:00:00	8	Radiación solar	0
101081	7	Sololá	704	Santa Lucía Utatlán 	7	Santa Rita 	6	Junio	2023-06-22T00:00:00	2024-11-08T06:00:00	2	Temperatura media	17.6
101082	7	Sololá	704	Santa Lucía Utatlán 	7	Santa Rita 	6	Junio	2023-06-22T00:00:00	2024-11-08T06:00:00	4	Temperatura máxima	17.6
101083	7	Sololá	704	Santa Lucía Utatlán 	7	Santa Rita 	6	Junio	2023-06-22T00:00:00	2024-11-08T06:00:00	3	Temperatura mínima	17.3
101084	7	Sololá	704	Santa Lucía Utatlán 	7	Santa Rita 	6	Junio	2023-06-22T00:00:00	2024-11-08T06:00:00	5	Humedad	94
101085	7	Sololá	704	Santa Lucía Utatlán 	7	Santa Rita 	6	Junio	2023-06-22T00:00:00	2024-11-08T06:00:00	6	Velocidad del viento	3.2
101086	7	Sololá	704	Santa Lucía Utatlán 	7	Santa Rita 	6	Junio	2023-06-22T00:00:00	2024-11-08T06:00:00	7	Dirección del viento	3.22
101087	7	Sololá	704	Santa Lucía Utatlán 	7	Santa Rita 	6	Junio	2023-06-22T00:00:00	2024-11-08T06:00:00	1	Precipitación	0
101088	7	Sololá	704	Santa Lucía Utatlán 	7	Santa Rita 	6	Junio	2023-06-22T00:00:00	2024-11-08T06:00:00	8	Radiación solar	3
101089	7	Sololá	704	Santa Lucía Utatlán 	7	Santa Rita 	6	Junio	2023-06-22T00:00:00	2024-11-08T07:00:00	2	Temperatura media	18.4
101090	7	Sololá	704	Santa Lucía Utatlán 	7	Santa Rita 	6	Junio	2023-06-22T00:00:00	2024-11-08T07:00:00	4	Temperatura máxima	18.4
101091	7	Sololá	704	Santa Lucía Utatlán 	7	Santa Rita 	6	Junio	2023-06-22T00:00:00	2024-11-08T07:00:00	3	Temperatura mínima	17.6
101092	7	Sololá	704	Santa Lucía Utatlán 	7	Santa Rita 	6	Junio	2023-06-22T00:00:00	2024-11-08T07:00:00	5	Humedad	96
101093	7	Sololá	704	Santa Lucía Utatlán 	7	Santa Rita 	6	Junio	2023-06-22T00:00:00	2024-11-08T07:00:00	6	Velocidad del viento	0
101094	7	Sololá	704	Santa Lucía Utatlán 	7	Santa Rita 	6	Junio	2023-06-22T00:00:00	2024-11-08T07:00:00	7	Dirección del viento	0
101095	7	Sololá	704	Santa Lucía Utatlán 	7	Santa Rita 	6	Junio	2023-06-22T00:00:00	2024-11-08T07:00:00	1	Precipitación	0
101096	7	Sololá	704	Santa Lucía Utatlán 	7	Santa Rita 	6	Junio	2023-06-22T00:00:00	2024-11-08T07:00:00	8	Radiación solar	62
101097	7	Sololá	704	Santa Lucía Utatlán 	7	Santa Rita 	6	Junio	2023-06-22T00:00:00	2024-11-08T08:00:00	2	Temperatura media	19.8
101098	7	Sololá	704	Santa Lucía Utatlán 	7	Santa Rita 	6	Junio	2023-06-22T00:00:00	2024-11-08T08:00:00	4	Temperatura máxima	19.8
101099	7	Sololá	704	Santa Lucía Utatlán 	7	Santa Rita 	6	Junio	2023-06-22T00:00:00	2024-11-08T08:00:00	3	Temperatura mínima	18.4
101100	7	Sololá	704	Santa Lucía Utatlán 	7	Santa Rita 	6	Junio	2023-06-22T00:00:00	2024-11-08T08:00:00	5	Humedad	90
101101	7	Sololá	704	Santa Lucía Utatlán 	7	Santa Rita 	6	Junio	2023-06-22T00:00:00	2024-11-08T08:00:00	6	Velocidad del viento	1.6
101102	7	Sololá	704	Santa Lucía Utatlán 	7	Santa Rita 	6	Junio	2023-06-22T00:00:00	2024-11-08T08:00:00	7	Dirección del viento	1.61
101103	7	Sololá	704	Santa Lucía Utatlán 	7	Santa Rita 	6	Junio	2023-06-22T00:00:00	2024-11-08T08:00:00	1	Precipitación	0
101104	7	Sololá	704	Santa Lucía Utatlán 	7	Santa Rita 	6	Junio	2023-06-22T00:00:00	2024-11-08T08:00:00	8	Radiación solar	186
101105	7	Sololá	704	Santa Lucía Utatlán 	7	Santa Rita 	6	Junio	2023-06-22T00:00:00	2024-11-08T09:00:00	2	Temperatura media	22.4
101106	7	Sololá	704	Santa Lucía Utatlán 	7	Santa Rita 	6	Junio	2023-06-22T00:00:00	2024-11-08T09:00:00	4	Temperatura máxima	22.4
101107	7	Sololá	704	Santa Lucía Utatlán 	7	Santa Rita 	6	Junio	2023-06-22T00:00:00	2024-11-08T09:00:00	3	Temperatura mínima	19.8
101108	7	Sololá	704	Santa Lucía Utatlán 	7	Santa Rita 	6	Junio	2023-06-22T00:00:00	2024-11-08T09:00:00	5	Humedad	83
101109	7	Sololá	704	Santa Lucía Utatlán 	7	Santa Rita 	6	Junio	2023-06-22T00:00:00	2024-11-08T09:00:00	6	Velocidad del viento	1.6
101110	7	Sololá	704	Santa Lucía Utatlán 	7	Santa Rita 	6	Junio	2023-06-22T00:00:00	2024-11-08T09:00:00	7	Dirección del viento	1.61
101111	7	Sololá	704	Santa Lucía Utatlán 	7	Santa Rita 	6	Junio	2023-06-22T00:00:00	2024-11-08T09:00:00	1	Precipitación	0
101112	7	Sololá	704	Santa Lucía Utatlán 	7	Santa Rita 	6	Junio	2023-06-22T00:00:00	2024-11-08T09:00:00	8	Radiación solar	483
101113	7	Sololá	704	Santa Lucía Utatlán 	7	Santa Rita 	6	Junio	2023-06-22T00:00:00	2024-11-08T10:00:00	2	Temperatura media	23.4
101114	7	Sololá	704	Santa Lucía Utatlán 	7	Santa Rita 	6	Junio	2023-06-22T00:00:00	2024-11-08T10:00:00	4	Temperatura máxima	23.4
101115	7	Sololá	704	Santa Lucía Utatlán 	7	Santa Rita 	6	Junio	2023-06-22T00:00:00	2024-11-08T10:00:00	3	Temperatura mínima	22.4
101116	7	Sololá	704	Santa Lucía Utatlán 	7	Santa Rita 	6	Junio	2023-06-22T00:00:00	2024-11-08T10:00:00	5	Humedad	73
101117	7	Sololá	704	Santa Lucía Utatlán 	7	Santa Rita 	6	Junio	2023-06-22T00:00:00	2024-11-08T10:00:00	6	Velocidad del viento	4.8
101118	7	Sololá	704	Santa Lucía Utatlán 	7	Santa Rita 	6	Junio	2023-06-22T00:00:00	2024-11-08T10:00:00	7	Dirección del viento	4.83
101119	7	Sololá	704	Santa Lucía Utatlán 	7	Santa Rita 	6	Junio	2023-06-22T00:00:00	2024-11-08T10:00:00	1	Precipitación	0
101120	7	Sololá	704	Santa Lucía Utatlán 	7	Santa Rita 	6	Junio	2023-06-22T00:00:00	2024-11-08T10:00:00	8	Radiación solar	718
101121	7	Sololá	704	Santa Lucía Utatlán 	7	Santa Rita 	6	Junio	2023-06-22T00:00:00	2024-11-08T11:00:00	2	Temperatura media	21.5
101122	7	Sololá	704	Santa Lucía Utatlán 	7	Santa Rita 	6	Junio	2023-06-22T00:00:00	2024-11-08T11:00:00	4	Temperatura máxima	23.9
101123	7	Sololá	704	Santa Lucía Utatlán 	7	Santa Rita 	6	Junio	2023-06-22T00:00:00	2024-11-08T11:00:00	3	Temperatura mínima	21.5
101124	7	Sololá	704	Santa Lucía Utatlán 	7	Santa Rita 	6	Junio	2023-06-22T00:00:00	2024-11-08T11:00:00	5	Humedad	83
101125	7	Sololá	704	Santa Lucía Utatlán 	7	Santa Rita 	6	Junio	2023-06-22T00:00:00	2024-11-08T11:00:00	6	Velocidad del viento	6.4
101126	7	Sololá	704	Santa Lucía Utatlán 	7	Santa Rita 	6	Junio	2023-06-22T00:00:00	2024-11-08T11:00:00	7	Dirección del viento	6.44
101127	7	Sololá	704	Santa Lucía Utatlán 	7	Santa Rita 	6	Junio	2023-06-22T00:00:00	2024-11-08T11:00:00	1	Precipitación	0
101128	7	Sololá	704	Santa Lucía Utatlán 	7	Santa Rita 	6	Junio	2023-06-22T00:00:00	2024-11-08T11:00:00	8	Radiación solar	250
101129	7	Sololá	704	Santa Lucía Utatlán 	7	Santa Rita 	6	Junio	2023-06-22T00:00:00	2024-11-08T12:00:00	2	Temperatura media	20.4
101130	7	Sololá	704	Santa Lucía Utatlán 	7	Santa Rita 	6	Junio	2023-06-22T00:00:00	2024-11-08T12:00:00	4	Temperatura máxima	21.5
101131	7	Sololá	704	Santa Lucía Utatlán 	7	Santa Rita 	6	Junio	2023-06-22T00:00:00	2024-11-08T12:00:00	3	Temperatura mínima	20.1
101132	7	Sololá	704	Santa Lucía Utatlán 	7	Santa Rita 	6	Junio	2023-06-22T00:00:00	2024-11-08T12:00:00	5	Humedad	90
101133	7	Sololá	704	Santa Lucía Utatlán 	7	Santa Rita 	6	Junio	2023-06-22T00:00:00	2024-11-08T12:00:00	6	Velocidad del viento	3.2
101134	7	Sololá	704	Santa Lucía Utatlán 	7	Santa Rita 	6	Junio	2023-06-22T00:00:00	2024-11-08T12:00:00	7	Dirección del viento	3.22
101135	7	Sololá	704	Santa Lucía Utatlán 	7	Santa Rita 	6	Junio	2023-06-22T00:00:00	2024-11-08T12:00:00	1	Precipitación	2
101136	7	Sololá	704	Santa Lucía Utatlán 	7	Santa Rita 	6	Junio	2023-06-22T00:00:00	2024-11-08T12:00:00	8	Radiación solar	119
101137	7	Sololá	704	Santa Lucía Utatlán 	7	Santa Rita 	6	Junio	2023-06-22T00:00:00	2024-11-08T13:00:00	2	Temperatura media	22.2
101138	7	Sololá	704	Santa Lucía Utatlán 	7	Santa Rita 	6	Junio	2023-06-22T00:00:00	2024-11-08T13:00:00	4	Temperatura máxima	22.2
101139	7	Sololá	704	Santa Lucía Utatlán 	7	Santa Rita 	6	Junio	2023-06-22T00:00:00	2024-11-08T13:00:00	3	Temperatura mínima	20.4
101140	7	Sololá	704	Santa Lucía Utatlán 	7	Santa Rita 	6	Junio	2023-06-22T00:00:00	2024-11-08T13:00:00	5	Humedad	86
101141	7	Sololá	704	Santa Lucía Utatlán 	7	Santa Rita 	6	Junio	2023-06-22T00:00:00	2024-11-08T13:00:00	6	Velocidad del viento	1.6
101142	7	Sololá	704	Santa Lucía Utatlán 	7	Santa Rita 	6	Junio	2023-06-22T00:00:00	2024-11-08T13:00:00	7	Dirección del viento	1.61
101143	7	Sololá	704	Santa Lucía Utatlán 	7	Santa Rita 	6	Junio	2023-06-22T00:00:00	2024-11-08T13:00:00	1	Precipitación	0.4
101144	7	Sololá	704	Santa Lucía Utatlán 	7	Santa Rita 	6	Junio	2023-06-22T00:00:00	2024-11-08T13:00:00	8	Radiación solar	356
101145	7	Sololá	704	Santa Lucía Utatlán 	7	Santa Rita 	6	Junio	2023-06-22T00:00:00	2024-11-08T14:00:00	2	Temperatura media	23.2
101146	7	Sololá	704	Santa Lucía Utatlán 	7	Santa Rita 	6	Junio	2023-06-22T00:00:00	2024-11-08T14:00:00	4	Temperatura máxima	23.2
101147	7	Sololá	704	Santa Lucía Utatlán 	7	Santa Rita 	6	Junio	2023-06-22T00:00:00	2024-11-08T14:00:00	3	Temperatura mínima	21.9
101148	7	Sololá	704	Santa Lucía Utatlán 	7	Santa Rita 	6	Junio	2023-06-22T00:00:00	2024-11-08T14:00:00	5	Humedad	82
101149	7	Sololá	704	Santa Lucía Utatlán 	7	Santa Rita 	6	Junio	2023-06-22T00:00:00	2024-11-08T14:00:00	6	Velocidad del viento	3.2
101150	7	Sololá	704	Santa Lucía Utatlán 	7	Santa Rita 	6	Junio	2023-06-22T00:00:00	2024-11-08T14:00:00	7	Dirección del viento	3.22
101151	7	Sololá	704	Santa Lucía Utatlán 	7	Santa Rita 	6	Junio	2023-06-22T00:00:00	2024-11-08T14:00:00	1	Precipitación	0
101152	7	Sololá	704	Santa Lucía Utatlán 	7	Santa Rita 	6	Junio	2023-06-22T00:00:00	2024-11-08T14:00:00	8	Radiación solar	466
101153	7	Sololá	704	Santa Lucía Utatlán 	7	Santa Rita 	6	Junio	2023-06-22T00:00:00	2024-11-08T15:00:00	2	Temperatura media	21.4
101154	7	Sololá	704	Santa Lucía Utatlán 	7	Santa Rita 	6	Junio	2023-06-22T00:00:00	2024-11-08T15:00:00	4	Temperatura máxima	23.2
101155	7	Sololá	704	Santa Lucía Utatlán 	7	Santa Rita 	6	Junio	2023-06-22T00:00:00	2024-11-08T15:00:00	3	Temperatura mínima	21.4
101156	7	Sololá	704	Santa Lucía Utatlán 	7	Santa Rita 	6	Junio	2023-06-22T00:00:00	2024-11-08T15:00:00	5	Humedad	87
101157	7	Sololá	704	Santa Lucía Utatlán 	7	Santa Rita 	6	Junio	2023-06-22T00:00:00	2024-11-08T15:00:00	6	Velocidad del viento	4.8
101158	7	Sololá	704	Santa Lucía Utatlán 	7	Santa Rita 	6	Junio	2023-06-22T00:00:00	2024-11-08T15:00:00	7	Dirección del viento	4.83
101159	7	Sololá	704	Santa Lucía Utatlán 	7	Santa Rita 	6	Junio	2023-06-22T00:00:00	2024-11-08T15:00:00	1	Precipitación	0
101160	7	Sololá	704	Santa Lucía Utatlán 	7	Santa Rita 	6	Junio	2023-06-22T00:00:00	2024-11-08T15:00:00	8	Radiación solar	158
101161	7	Sololá	704	Santa Lucía Utatlán 	7	Santa Rita 	6	Junio	2023-06-22T00:00:00	2024-11-08T16:00:00	2	Temperatura media	21.6
101162	7	Sololá	704	Santa Lucía Utatlán 	7	Santa Rita 	6	Junio	2023-06-22T00:00:00	2024-11-08T16:00:00	4	Temperatura máxima	21.6
101163	7	Sololá	704	Santa Lucía Utatlán 	7	Santa Rita 	6	Junio	2023-06-22T00:00:00	2024-11-08T16:00:00	3	Temperatura mínima	21.2
101164	7	Sololá	704	Santa Lucía Utatlán 	7	Santa Rita 	6	Junio	2023-06-22T00:00:00	2024-11-08T16:00:00	5	Humedad	86
101165	7	Sololá	704	Santa Lucía Utatlán 	7	Santa Rita 	6	Junio	2023-06-22T00:00:00	2024-11-08T16:00:00	6	Velocidad del viento	1.6
101166	7	Sololá	704	Santa Lucía Utatlán 	7	Santa Rita 	6	Junio	2023-06-22T00:00:00	2024-11-08T16:00:00	7	Dirección del viento	1.61
101167	7	Sololá	704	Santa Lucía Utatlán 	7	Santa Rita 	6	Junio	2023-06-22T00:00:00	2024-11-08T16:00:00	1	Precipitación	0
101168	7	Sololá	704	Santa Lucía Utatlán 	7	Santa Rita 	6	Junio	2023-06-22T00:00:00	2024-11-08T16:00:00	8	Radiación solar	143
101169	7	Sololá	704	Santa Lucía Utatlán 	7	Santa Rita 	6	Junio	2023-06-22T00:00:00	2024-11-08T17:00:00	2	Temperatura media	20.8
101170	7	Sololá	704	Santa Lucía Utatlán 	7	Santa Rita 	6	Junio	2023-06-22T00:00:00	2024-11-08T17:00:00	4	Temperatura máxima	21.6
101171	7	Sololá	704	Santa Lucía Utatlán 	7	Santa Rita 	6	Junio	2023-06-22T00:00:00	2024-11-08T17:00:00	3	Temperatura mínima	20.7
101172	7	Sololá	704	Santa Lucía Utatlán 	7	Santa Rita 	6	Junio	2023-06-22T00:00:00	2024-11-08T17:00:00	5	Humedad	92
101173	7	Sololá	704	Santa Lucía Utatlán 	7	Santa Rita 	6	Junio	2023-06-22T00:00:00	2024-11-08T17:00:00	6	Velocidad del viento	3.2
101174	7	Sololá	704	Santa Lucía Utatlán 	7	Santa Rita 	6	Junio	2023-06-22T00:00:00	2024-11-08T17:00:00	7	Dirección del viento	3.22
101175	7	Sololá	704	Santa Lucía Utatlán 	7	Santa Rita 	6	Junio	2023-06-22T00:00:00	2024-11-08T17:00:00	1	Precipitación	0.2
101176	7	Sololá	704	Santa Lucía Utatlán 	7	Santa Rita 	6	Junio	2023-06-22T00:00:00	2024-11-08T17:00:00	8	Radiación solar	78
101177	7	Sololá	704	Santa Lucía Utatlán 	7	Santa Rita 	6	Junio	2023-06-22T00:00:00	2024-11-08T18:00:00	2	Temperatura media	19.1
101178	7	Sololá	704	Santa Lucía Utatlán 	7	Santa Rita 	6	Junio	2023-06-22T00:00:00	2024-11-08T18:00:00	4	Temperatura máxima	20.8
101179	7	Sololá	704	Santa Lucía Utatlán 	7	Santa Rita 	6	Junio	2023-06-22T00:00:00	2024-11-08T18:00:00	3	Temperatura mínima	19.1
101180	7	Sololá	704	Santa Lucía Utatlán 	7	Santa Rita 	6	Junio	2023-06-22T00:00:00	2024-11-08T18:00:00	5	Humedad	95
101181	7	Sololá	704	Santa Lucía Utatlán 	7	Santa Rita 	6	Junio	2023-06-22T00:00:00	2024-11-08T18:00:00	6	Velocidad del viento	4.8
101182	7	Sololá	704	Santa Lucía Utatlán 	7	Santa Rita 	6	Junio	2023-06-22T00:00:00	2024-11-08T18:00:00	7	Dirección del viento	4.83
101183	7	Sololá	704	Santa Lucía Utatlán 	7	Santa Rita 	6	Junio	2023-06-22T00:00:00	2024-11-08T18:00:00	1	Precipitación	7.6
101184	7	Sololá	704	Santa Lucía Utatlán 	7	Santa Rita 	6	Junio	2023-06-22T00:00:00	2024-11-08T18:00:00	8	Radiación solar	8
101185	7	Sololá	704	Santa Lucía Utatlán 	7	Santa Rita 	6	Junio	2023-06-22T00:00:00	2024-11-08T19:00:00	2	Temperatura media	18.8
101186	7	Sololá	704	Santa Lucía Utatlán 	7	Santa Rita 	6	Junio	2023-06-22T00:00:00	2024-11-08T19:00:00	4	Temperatura máxima	19.1
101187	7	Sololá	704	Santa Lucía Utatlán 	7	Santa Rita 	6	Junio	2023-06-22T00:00:00	2024-11-08T19:00:00	3	Temperatura mínima	18.8
101188	7	Sololá	704	Santa Lucía Utatlán 	7	Santa Rita 	6	Junio	2023-06-22T00:00:00	2024-11-08T19:00:00	5	Humedad	95
101189	7	Sololá	704	Santa Lucía Utatlán 	7	Santa Rita 	6	Junio	2023-06-22T00:00:00	2024-11-08T19:00:00	6	Velocidad del viento	1.6
101190	7	Sololá	704	Santa Lucía Utatlán 	7	Santa Rita 	6	Junio	2023-06-22T00:00:00	2024-11-08T19:00:00	7	Dirección del viento	1.61
101191	7	Sololá	704	Santa Lucía Utatlán 	7	Santa Rita 	6	Junio	2023-06-22T00:00:00	2024-11-08T19:00:00	1	Precipitación	4.2
101192	7	Sololá	704	Santa Lucía Utatlán 	7	Santa Rita 	6	Junio	2023-06-22T00:00:00	2024-11-08T19:00:00	8	Radiación solar	0
101193	7	Sololá	704	Santa Lucía Utatlán 	7	Santa Rita 	6	Junio	2023-06-22T00:00:00	2024-11-08T20:00:00	2	Temperatura media	18.2
101194	7	Sololá	704	Santa Lucía Utatlán 	7	Santa Rita 	6	Junio	2023-06-22T00:00:00	2024-11-08T20:00:00	4	Temperatura máxima	18.8
101195	7	Sololá	704	Santa Lucía Utatlán 	7	Santa Rita 	6	Junio	2023-06-22T00:00:00	2024-11-08T20:00:00	3	Temperatura mínima	18.2
101196	7	Sololá	704	Santa Lucía Utatlán 	7	Santa Rita 	6	Junio	2023-06-22T00:00:00	2024-11-08T20:00:00	5	Humedad	95
101197	7	Sololá	704	Santa Lucía Utatlán 	7	Santa Rita 	6	Junio	2023-06-22T00:00:00	2024-11-08T20:00:00	6	Velocidad del viento	1.6
101198	7	Sololá	704	Santa Lucía Utatlán 	7	Santa Rita 	6	Junio	2023-06-22T00:00:00	2024-11-08T20:00:00	7	Dirección del viento	1.61
101199	7	Sololá	704	Santa Lucía Utatlán 	7	Santa Rita 	6	Junio	2023-06-22T00:00:00	2024-11-08T20:00:00	1	Precipitación	0
101200	7	Sololá	704	Santa Lucía Utatlán 	7	Santa Rita 	6	Junio	2023-06-22T00:00:00	2024-11-08T20:00:00	8	Radiación solar	0
101201	7	Sololá	704	Santa Lucía Utatlán 	7	Santa Rita 	6	Junio	2023-06-22T00:00:00	2024-11-08T21:00:00	2	Temperatura media	18.3
101202	7	Sololá	704	Santa Lucía Utatlán 	7	Santa Rita 	6	Junio	2023-06-22T00:00:00	2024-11-08T21:00:00	4	Temperatura máxima	18.4
101203	7	Sololá	704	Santa Lucía Utatlán 	7	Santa Rita 	6	Junio	2023-06-22T00:00:00	2024-11-08T21:00:00	3	Temperatura mínima	18.2
101204	7	Sololá	704	Santa Lucía Utatlán 	7	Santa Rita 	6	Junio	2023-06-22T00:00:00	2024-11-08T21:00:00	5	Humedad	96
101205	7	Sololá	704	Santa Lucía Utatlán 	7	Santa Rita 	6	Junio	2023-06-22T00:00:00	2024-11-08T21:00:00	6	Velocidad del viento	1.6
101206	7	Sololá	704	Santa Lucía Utatlán 	7	Santa Rita 	6	Junio	2023-06-22T00:00:00	2024-11-08T21:00:00	7	Dirección del viento	1.61
101207	7	Sololá	704	Santa Lucía Utatlán 	7	Santa Rita 	6	Junio	2023-06-22T00:00:00	2024-11-08T21:00:00	1	Precipitación	0.2
101208	7	Sololá	704	Santa Lucía Utatlán 	7	Santa Rita 	6	Junio	2023-06-22T00:00:00	2024-11-08T21:00:00	8	Radiación solar	0
101209	7	Sololá	704	Santa Lucía Utatlán 	7	Santa Rita 	6	Junio	2023-06-22T00:00:00	2024-11-08T22:00:00	2	Temperatura media	18.4
101210	7	Sololá	704	Santa Lucía Utatlán 	7	Santa Rita 	6	Junio	2023-06-22T00:00:00	2024-11-08T22:00:00	4	Temperatura máxima	18.4
101211	7	Sololá	704	Santa Lucía Utatlán 	7	Santa Rita 	6	Junio	2023-06-22T00:00:00	2024-11-08T22:00:00	3	Temperatura mínima	18.3
101212	7	Sololá	704	Santa Lucía Utatlán 	7	Santa Rita 	6	Junio	2023-06-22T00:00:00	2024-11-08T22:00:00	5	Humedad	97
101213	7	Sololá	704	Santa Lucía Utatlán 	7	Santa Rita 	6	Junio	2023-06-22T00:00:00	2024-11-08T22:00:00	6	Velocidad del viento	0
101214	7	Sololá	704	Santa Lucía Utatlán 	7	Santa Rita 	6	Junio	2023-06-22T00:00:00	2024-11-08T22:00:00	7	Dirección del viento	0
101215	7	Sololá	704	Santa Lucía Utatlán 	7	Santa Rita 	6	Junio	2023-06-22T00:00:00	2024-11-08T22:00:00	1	Precipitación	0
101216	7	Sololá	704	Santa Lucía Utatlán 	7	Santa Rita 	6	Junio	2023-06-22T00:00:00	2024-11-08T22:00:00	8	Radiación solar	0
101217	7	Sololá	704	Santa Lucía Utatlán 	7	Santa Rita 	6	Junio	2023-06-22T00:00:00	2024-11-08T23:00:00	2	Temperatura media	18.5
101218	7	Sololá	704	Santa Lucía Utatlán 	7	Santa Rita 	6	Junio	2023-06-22T00:00:00	2024-11-08T23:00:00	4	Temperatura máxima	18.6
101219	7	Sololá	704	Santa Lucía Utatlán 	7	Santa Rita 	6	Junio	2023-06-22T00:00:00	2024-11-08T23:00:00	3	Temperatura mínima	18.4
101220	7	Sololá	704	Santa Lucía Utatlán 	7	Santa Rita 	6	Junio	2023-06-22T00:00:00	2024-11-08T23:00:00	5	Humedad	97
101221	7	Sololá	704	Santa Lucía Utatlán 	7	Santa Rita 	6	Junio	2023-06-22T00:00:00	2024-11-08T23:00:00	6	Velocidad del viento	0
101222	7	Sololá	704	Santa Lucía Utatlán 	7	Santa Rita 	6	Junio	2023-06-22T00:00:00	2024-11-08T23:00:00	7	Dirección del viento	0
101223	7	Sololá	704	Santa Lucía Utatlán 	7	Santa Rita 	6	Junio	2023-06-22T00:00:00	2024-11-08T23:00:00	1	Precipitación	1.2
101224	7	Sololá	704	Santa Lucía Utatlán 	7	Santa Rita 	6	Junio	2023-06-22T00:00:00	2024-11-08T23:00:00	8	Radiación solar	0
101225	7	Sololá	704	Santa Lucía Utatlán 	7	Santa Rita 	6	Junio	2023-06-23T00:00:00	2024-11-08T00:00:00	2	Temperatura media	18.3
101226	7	Sololá	704	Santa Lucía Utatlán 	7	Santa Rita 	6	Junio	2023-06-23T00:00:00	2024-11-08T00:00:00	4	Temperatura máxima	18.6
101227	7	Sololá	704	Santa Lucía Utatlán 	7	Santa Rita 	6	Junio	2023-06-23T00:00:00	2024-11-08T00:00:00	3	Temperatura mínima	18.3
101228	7	Sololá	704	Santa Lucía Utatlán 	7	Santa Rita 	6	Junio	2023-06-23T00:00:00	2024-11-08T00:00:00	5	Humedad	97
101229	7	Sololá	704	Santa Lucía Utatlán 	7	Santa Rita 	6	Junio	2023-06-23T00:00:00	2024-11-08T00:00:00	6	Velocidad del viento	0
101230	7	Sololá	704	Santa Lucía Utatlán 	7	Santa Rita 	6	Junio	2023-06-23T00:00:00	2024-11-08T00:00:00	7	Dirección del viento	0
101231	7	Sololá	704	Santa Lucía Utatlán 	7	Santa Rita 	6	Junio	2023-06-23T00:00:00	2024-11-08T00:00:00	1	Precipitación	3
101232	7	Sololá	704	Santa Lucía Utatlán 	7	Santa Rita 	6	Junio	2023-06-23T00:00:00	2024-11-08T00:00:00	8	Radiación solar	0
101233	7	Sololá	704	Santa Lucía Utatlán 	7	Santa Rita 	6	Junio	2023-06-23T00:00:00	2024-11-08T01:00:00	2	Temperatura media	18
101234	7	Sololá	704	Santa Lucía Utatlán 	7	Santa Rita 	6	Junio	2023-06-23T00:00:00	2024-11-08T01:00:00	4	Temperatura máxima	18.4
101235	7	Sololá	704	Santa Lucía Utatlán 	7	Santa Rita 	6	Junio	2023-06-23T00:00:00	2024-11-08T01:00:00	3	Temperatura mínima	18
101236	7	Sololá	704	Santa Lucía Utatlán 	7	Santa Rita 	6	Junio	2023-06-23T00:00:00	2024-11-08T01:00:00	5	Humedad	97
101237	7	Sololá	704	Santa Lucía Utatlán 	7	Santa Rita 	6	Junio	2023-06-23T00:00:00	2024-11-08T01:00:00	6	Velocidad del viento	0
101238	7	Sololá	704	Santa Lucía Utatlán 	7	Santa Rita 	6	Junio	2023-06-23T00:00:00	2024-11-08T01:00:00	7	Dirección del viento	0
101239	7	Sololá	704	Santa Lucía Utatlán 	7	Santa Rita 	6	Junio	2023-06-23T00:00:00	2024-11-08T01:00:00	1	Precipitación	0.4
101240	7	Sololá	704	Santa Lucía Utatlán 	7	Santa Rita 	6	Junio	2023-06-23T00:00:00	2024-11-08T01:00:00	8	Radiación solar	0
101241	7	Sololá	704	Santa Lucía Utatlán 	7	Santa Rita 	6	Junio	2023-06-23T00:00:00	2024-11-08T02:00:00	2	Temperatura media	17.9
101242	7	Sololá	704	Santa Lucía Utatlán 	7	Santa Rita 	6	Junio	2023-06-23T00:00:00	2024-11-08T02:00:00	4	Temperatura máxima	18.1
101243	7	Sololá	704	Santa Lucía Utatlán 	7	Santa Rita 	6	Junio	2023-06-23T00:00:00	2024-11-08T02:00:00	3	Temperatura mínima	17.7
101244	7	Sololá	704	Santa Lucía Utatlán 	7	Santa Rita 	6	Junio	2023-06-23T00:00:00	2024-11-08T02:00:00	5	Humedad	95
101245	7	Sololá	704	Santa Lucía Utatlán 	7	Santa Rita 	6	Junio	2023-06-23T00:00:00	2024-11-08T02:00:00	6	Velocidad del viento	1.6
101246	7	Sololá	704	Santa Lucía Utatlán 	7	Santa Rita 	6	Junio	2023-06-23T00:00:00	2024-11-08T02:00:00	7	Dirección del viento	1.61
101247	7	Sololá	704	Santa Lucía Utatlán 	7	Santa Rita 	6	Junio	2023-06-23T00:00:00	2024-11-08T02:00:00	1	Precipitación	0
101248	7	Sololá	704	Santa Lucía Utatlán 	7	Santa Rita 	6	Junio	2023-06-23T00:00:00	2024-11-08T02:00:00	8	Radiación solar	0
101249	7	Sololá	704	Santa Lucía Utatlán 	7	Santa Rita 	6	Junio	2023-06-23T00:00:00	2024-11-08T03:00:00	2	Temperatura media	17.8
101250	7	Sololá	704	Santa Lucía Utatlán 	7	Santa Rita 	6	Junio	2023-06-23T00:00:00	2024-11-08T03:00:00	4	Temperatura máxima	17.9
101251	7	Sololá	704	Santa Lucía Utatlán 	7	Santa Rita 	6	Junio	2023-06-23T00:00:00	2024-11-08T03:00:00	3	Temperatura mínima	17.6
101252	7	Sololá	704	Santa Lucía Utatlán 	7	Santa Rita 	6	Junio	2023-06-23T00:00:00	2024-11-08T03:00:00	5	Humedad	97
101253	7	Sololá	704	Santa Lucía Utatlán 	7	Santa Rita 	6	Junio	2023-06-23T00:00:00	2024-11-08T03:00:00	6	Velocidad del viento	0
101254	7	Sololá	704	Santa Lucía Utatlán 	7	Santa Rita 	6	Junio	2023-06-23T00:00:00	2024-11-08T03:00:00	7	Dirección del viento	0
101255	7	Sololá	704	Santa Lucía Utatlán 	7	Santa Rita 	6	Junio	2023-06-23T00:00:00	2024-11-08T03:00:00	1	Precipitación	0
101256	7	Sololá	704	Santa Lucía Utatlán 	7	Santa Rita 	6	Junio	2023-06-23T00:00:00	2024-11-08T03:00:00	8	Radiación solar	0
101257	7	Sololá	704	Santa Lucía Utatlán 	7	Santa Rita 	6	Junio	2023-06-23T00:00:00	2024-11-08T04:00:00	2	Temperatura media	18.1
101258	7	Sololá	704	Santa Lucía Utatlán 	7	Santa Rita 	6	Junio	2023-06-23T00:00:00	2024-11-08T04:00:00	4	Temperatura máxima	18.1
101259	7	Sololá	704	Santa Lucía Utatlán 	7	Santa Rita 	6	Junio	2023-06-23T00:00:00	2024-11-08T04:00:00	3	Temperatura mínima	17.8
101260	7	Sololá	704	Santa Lucía Utatlán 	7	Santa Rita 	6	Junio	2023-06-23T00:00:00	2024-11-08T04:00:00	5	Humedad	97
101261	7	Sololá	704	Santa Lucía Utatlán 	7	Santa Rita 	6	Junio	2023-06-23T00:00:00	2024-11-08T04:00:00	6	Velocidad del viento	0
101262	7	Sololá	704	Santa Lucía Utatlán 	7	Santa Rita 	6	Junio	2023-06-23T00:00:00	2024-11-08T04:00:00	7	Dirección del viento	0
101263	7	Sololá	704	Santa Lucía Utatlán 	7	Santa Rita 	6	Junio	2023-06-23T00:00:00	2024-11-08T04:00:00	1	Precipitación	0
101264	7	Sololá	704	Santa Lucía Utatlán 	7	Santa Rita 	6	Junio	2023-06-23T00:00:00	2024-11-08T04:00:00	8	Radiación solar	0
101265	7	Sololá	704	Santa Lucía Utatlán 	7	Santa Rita 	6	Junio	2023-06-23T00:00:00	2024-11-08T05:00:00	2	Temperatura media	17.4
101266	7	Sololá	704	Santa Lucía Utatlán 	7	Santa Rita 	6	Junio	2023-06-23T00:00:00	2024-11-08T05:00:00	4	Temperatura máxima	18.1
101267	7	Sololá	704	Santa Lucía Utatlán 	7	Santa Rita 	6	Junio	2023-06-23T00:00:00	2024-11-08T05:00:00	3	Temperatura mínima	17.4
101268	7	Sololá	704	Santa Lucía Utatlán 	7	Santa Rita 	6	Junio	2023-06-23T00:00:00	2024-11-08T05:00:00	5	Humedad	95
101269	7	Sololá	704	Santa Lucía Utatlán 	7	Santa Rita 	6	Junio	2023-06-23T00:00:00	2024-11-08T05:00:00	6	Velocidad del viento	1.6
101270	7	Sololá	704	Santa Lucía Utatlán 	7	Santa Rita 	6	Junio	2023-06-23T00:00:00	2024-11-08T05:00:00	7	Dirección del viento	1.61
101271	7	Sololá	704	Santa Lucía Utatlán 	7	Santa Rita 	6	Junio	2023-06-23T00:00:00	2024-11-08T05:00:00	1	Precipitación	0
101272	7	Sololá	704	Santa Lucía Utatlán 	7	Santa Rita 	6	Junio	2023-06-23T00:00:00	2024-11-08T05:00:00	8	Radiación solar	0
101273	7	Sololá	704	Santa Lucía Utatlán 	7	Santa Rita 	6	Junio	2023-06-23T00:00:00	2024-11-08T06:00:00	2	Temperatura media	17
101274	7	Sololá	704	Santa Lucía Utatlán 	7	Santa Rita 	6	Junio	2023-06-23T00:00:00	2024-11-08T06:00:00	4	Temperatura máxima	17.4
101275	7	Sololá	704	Santa Lucía Utatlán 	7	Santa Rita 	6	Junio	2023-06-23T00:00:00	2024-11-08T06:00:00	3	Temperatura mínima	16.8
101276	7	Sololá	704	Santa Lucía Utatlán 	7	Santa Rita 	6	Junio	2023-06-23T00:00:00	2024-11-08T06:00:00	5	Humedad	95
101277	7	Sololá	704	Santa Lucía Utatlán 	7	Santa Rita 	6	Junio	2023-06-23T00:00:00	2024-11-08T06:00:00	6	Velocidad del viento	3.2
101278	7	Sololá	704	Santa Lucía Utatlán 	7	Santa Rita 	6	Junio	2023-06-23T00:00:00	2024-11-08T06:00:00	7	Dirección del viento	3.22
101279	7	Sololá	704	Santa Lucía Utatlán 	7	Santa Rita 	6	Junio	2023-06-23T00:00:00	2024-11-08T06:00:00	1	Precipitación	0
101280	7	Sololá	704	Santa Lucía Utatlán 	7	Santa Rita 	6	Junio	2023-06-23T00:00:00	2024-11-08T06:00:00	8	Radiación solar	4
101281	7	Sololá	704	Santa Lucía Utatlán 	7	Santa Rita 	6	Junio	2023-06-23T00:00:00	2024-11-08T07:00:00	2	Temperatura media	18.4
101282	7	Sololá	704	Santa Lucía Utatlán 	7	Santa Rita 	6	Junio	2023-06-23T00:00:00	2024-11-08T07:00:00	4	Temperatura máxima	18.4
101283	7	Sololá	704	Santa Lucía Utatlán 	7	Santa Rita 	6	Junio	2023-06-23T00:00:00	2024-11-08T07:00:00	3	Temperatura mínima	17
101284	7	Sololá	704	Santa Lucía Utatlán 	7	Santa Rita 	6	Junio	2023-06-23T00:00:00	2024-11-08T07:00:00	5	Humedad	90
101285	7	Sololá	704	Santa Lucía Utatlán 	7	Santa Rita 	6	Junio	2023-06-23T00:00:00	2024-11-08T07:00:00	6	Velocidad del viento	1.6
101286	7	Sololá	704	Santa Lucía Utatlán 	7	Santa Rita 	6	Junio	2023-06-23T00:00:00	2024-11-08T07:00:00	7	Dirección del viento	1.61
101287	7	Sololá	704	Santa Lucía Utatlán 	7	Santa Rita 	6	Junio	2023-06-23T00:00:00	2024-11-08T07:00:00	1	Precipitación	0
101288	7	Sololá	704	Santa Lucía Utatlán 	7	Santa Rita 	6	Junio	2023-06-23T00:00:00	2024-11-08T07:00:00	8	Radiación solar	54
101289	7	Sololá	704	Santa Lucía Utatlán 	7	Santa Rita 	6	Junio	2023-06-23T00:00:00	2024-11-08T08:00:00	2	Temperatura media	21.2
101290	7	Sololá	704	Santa Lucía Utatlán 	7	Santa Rita 	6	Junio	2023-06-23T00:00:00	2024-11-08T08:00:00	4	Temperatura máxima	21.2
101291	7	Sololá	704	Santa Lucía Utatlán 	7	Santa Rita 	6	Junio	2023-06-23T00:00:00	2024-11-08T08:00:00	3	Temperatura mínima	18.5
101292	7	Sololá	704	Santa Lucía Utatlán 	7	Santa Rita 	6	Junio	2023-06-23T00:00:00	2024-11-08T08:00:00	5	Humedad	84
101293	7	Sololá	704	Santa Lucía Utatlán 	7	Santa Rita 	6	Junio	2023-06-23T00:00:00	2024-11-08T08:00:00	6	Velocidad del viento	3.2
101294	7	Sololá	704	Santa Lucía Utatlán 	7	Santa Rita 	6	Junio	2023-06-23T00:00:00	2024-11-08T08:00:00	7	Dirección del viento	3.22
101295	7	Sololá	704	Santa Lucía Utatlán 	7	Santa Rita 	6	Junio	2023-06-23T00:00:00	2024-11-08T08:00:00	1	Precipitación	0
101296	7	Sololá	704	Santa Lucía Utatlán 	7	Santa Rita 	6	Junio	2023-06-23T00:00:00	2024-11-08T08:00:00	8	Radiación solar	389
101297	7	Sololá	704	Santa Lucía Utatlán 	7	Santa Rita 	6	Junio	2023-06-23T00:00:00	2024-11-08T09:00:00	2	Temperatura media	22.9
101298	7	Sololá	704	Santa Lucía Utatlán 	7	Santa Rita 	6	Junio	2023-06-23T00:00:00	2024-11-08T09:00:00	4	Temperatura máxima	22.9
101299	7	Sololá	704	Santa Lucía Utatlán 	7	Santa Rita 	6	Junio	2023-06-23T00:00:00	2024-11-08T09:00:00	3	Temperatura mínima	21.2
101300	7	Sololá	704	Santa Lucía Utatlán 	7	Santa Rita 	6	Junio	2023-06-23T00:00:00	2024-11-08T09:00:00	5	Humedad	79
101301	7	Sololá	704	Santa Lucía Utatlán 	7	Santa Rita 	6	Junio	2023-06-23T00:00:00	2024-11-08T09:00:00	6	Velocidad del viento	3.2
101302	7	Sololá	704	Santa Lucía Utatlán 	7	Santa Rita 	6	Junio	2023-06-23T00:00:00	2024-11-08T09:00:00	7	Dirección del viento	3.22
101303	7	Sololá	704	Santa Lucía Utatlán 	7	Santa Rita 	6	Junio	2023-06-23T00:00:00	2024-11-08T09:00:00	1	Precipitación	0
101304	7	Sololá	704	Santa Lucía Utatlán 	7	Santa Rita 	6	Junio	2023-06-23T00:00:00	2024-11-08T09:00:00	8	Radiación solar	550
101305	7	Sololá	704	Santa Lucía Utatlán 	7	Santa Rita 	6	Junio	2023-06-23T00:00:00	2024-11-08T10:00:00	2	Temperatura media	23.4
101306	7	Sololá	704	Santa Lucía Utatlán 	7	Santa Rita 	6	Junio	2023-06-23T00:00:00	2024-11-08T10:00:00	4	Temperatura máxima	23.6
101307	7	Sololá	704	Santa Lucía Utatlán 	7	Santa Rita 	6	Junio	2023-06-23T00:00:00	2024-11-08T10:00:00	3	Temperatura mínima	22.8
101308	7	Sololá	704	Santa Lucía Utatlán 	7	Santa Rita 	6	Junio	2023-06-23T00:00:00	2024-11-08T10:00:00	5	Humedad	79
101309	7	Sololá	704	Santa Lucía Utatlán 	7	Santa Rita 	6	Junio	2023-06-23T00:00:00	2024-11-08T10:00:00	6	Velocidad del viento	4.8
101310	7	Sololá	704	Santa Lucía Utatlán 	7	Santa Rita 	6	Junio	2023-06-23T00:00:00	2024-11-08T10:00:00	7	Dirección del viento	4.83
101311	7	Sololá	704	Santa Lucía Utatlán 	7	Santa Rita 	6	Junio	2023-06-23T00:00:00	2024-11-08T10:00:00	1	Precipitación	0
101312	7	Sololá	704	Santa Lucía Utatlán 	7	Santa Rita 	6	Junio	2023-06-23T00:00:00	2024-11-08T10:00:00	8	Radiación solar	658
101313	7	Sololá	704	Santa Lucía Utatlán 	7	Santa Rita 	6	Junio	2023-06-23T00:00:00	2024-11-08T11:00:00	2	Temperatura media	24.2
101314	7	Sololá	704	Santa Lucía Utatlán 	7	Santa Rita 	6	Junio	2023-06-23T00:00:00	2024-11-08T11:00:00	4	Temperatura máxima	24.3
101315	7	Sololá	704	Santa Lucía Utatlán 	7	Santa Rita 	6	Junio	2023-06-23T00:00:00	2024-11-08T11:00:00	3	Temperatura mínima	23.3
101316	7	Sololá	704	Santa Lucía Utatlán 	7	Santa Rita 	6	Junio	2023-06-23T00:00:00	2024-11-08T11:00:00	5	Humedad	74
101317	7	Sololá	704	Santa Lucía Utatlán 	7	Santa Rita 	6	Junio	2023-06-23T00:00:00	2024-11-08T11:00:00	6	Velocidad del viento	4.8
101318	7	Sololá	704	Santa Lucía Utatlán 	7	Santa Rita 	6	Junio	2023-06-23T00:00:00	2024-11-08T11:00:00	7	Dirección del viento	4.83
101319	7	Sololá	704	Santa Lucía Utatlán 	7	Santa Rita 	6	Junio	2023-06-23T00:00:00	2024-11-08T11:00:00	1	Precipitación	0
101320	7	Sololá	704	Santa Lucía Utatlán 	7	Santa Rita 	6	Junio	2023-06-23T00:00:00	2024-11-08T11:00:00	8	Radiación solar	594
101321	7	Sololá	704	Santa Lucía Utatlán 	7	Santa Rita 	6	Junio	2023-06-23T00:00:00	2024-11-08T12:00:00	2	Temperatura media	23.8
101322	7	Sololá	704	Santa Lucía Utatlán 	7	Santa Rita 	6	Junio	2023-06-23T00:00:00	2024-11-08T12:00:00	4	Temperatura máxima	24.7
101323	7	Sololá	704	Santa Lucía Utatlán 	7	Santa Rita 	6	Junio	2023-06-23T00:00:00	2024-11-08T12:00:00	3	Temperatura mínima	23.8
101324	7	Sololá	704	Santa Lucía Utatlán 	7	Santa Rita 	6	Junio	2023-06-23T00:00:00	2024-11-08T12:00:00	5	Humedad	75
101325	7	Sololá	704	Santa Lucía Utatlán 	7	Santa Rita 	6	Junio	2023-06-23T00:00:00	2024-11-08T12:00:00	6	Velocidad del viento	8
101326	7	Sololá	704	Santa Lucía Utatlán 	7	Santa Rita 	6	Junio	2023-06-23T00:00:00	2024-11-08T12:00:00	7	Dirección del viento	8.05
101327	7	Sololá	704	Santa Lucía Utatlán 	7	Santa Rita 	6	Junio	2023-06-23T00:00:00	2024-11-08T12:00:00	1	Precipitación	0
101328	7	Sololá	704	Santa Lucía Utatlán 	7	Santa Rita 	6	Junio	2023-06-23T00:00:00	2024-11-08T12:00:00	8	Radiación solar	1091
101329	7	Sololá	704	Santa Lucía Utatlán 	7	Santa Rita 	6	Junio	2023-06-23T00:00:00	2024-11-08T13:00:00	2	Temperatura media	22.6
101330	7	Sololá	704	Santa Lucía Utatlán 	7	Santa Rita 	6	Junio	2023-06-23T00:00:00	2024-11-08T13:00:00	4	Temperatura máxima	24.2
101331	7	Sololá	704	Santa Lucía Utatlán 	7	Santa Rita 	6	Junio	2023-06-23T00:00:00	2024-11-08T13:00:00	3	Temperatura mínima	22.5
101332	7	Sololá	704	Santa Lucía Utatlán 	7	Santa Rita 	6	Junio	2023-06-23T00:00:00	2024-11-08T13:00:00	5	Humedad	83
101333	7	Sololá	704	Santa Lucía Utatlán 	7	Santa Rita 	6	Junio	2023-06-23T00:00:00	2024-11-08T13:00:00	6	Velocidad del viento	8
101334	7	Sololá	704	Santa Lucía Utatlán 	7	Santa Rita 	6	Junio	2023-06-23T00:00:00	2024-11-08T13:00:00	7	Dirección del viento	8.05
101335	7	Sololá	704	Santa Lucía Utatlán 	7	Santa Rita 	6	Junio	2023-06-23T00:00:00	2024-11-08T13:00:00	1	Precipitación	0
101336	7	Sololá	704	Santa Lucía Utatlán 	7	Santa Rita 	6	Junio	2023-06-23T00:00:00	2024-11-08T13:00:00	8	Radiación solar	721
101337	7	Sololá	704	Santa Lucía Utatlán 	7	Santa Rita 	6	Junio	2023-06-23T00:00:00	2024-11-08T14:00:00	2	Temperatura media	20.6
101338	7	Sololá	704	Santa Lucía Utatlán 	7	Santa Rita 	6	Junio	2023-06-23T00:00:00	2024-11-08T14:00:00	4	Temperatura máxima	22.5
101339	7	Sololá	704	Santa Lucía Utatlán 	7	Santa Rita 	6	Junio	2023-06-23T00:00:00	2024-11-08T14:00:00	3	Temperatura mínima	20.6
101340	7	Sololá	704	Santa Lucía Utatlán 	7	Santa Rita 	6	Junio	2023-06-23T00:00:00	2024-11-08T14:00:00	5	Humedad	91
101341	7	Sololá	704	Santa Lucía Utatlán 	7	Santa Rita 	6	Junio	2023-06-23T00:00:00	2024-11-08T14:00:00	6	Velocidad del viento	8
101342	7	Sololá	704	Santa Lucía Utatlán 	7	Santa Rita 	6	Junio	2023-06-23T00:00:00	2024-11-08T14:00:00	7	Dirección del viento	8.05
101343	7	Sololá	704	Santa Lucía Utatlán 	7	Santa Rita 	6	Junio	2023-06-23T00:00:00	2024-11-08T14:00:00	1	Precipitación	0.4
101344	7	Sololá	704	Santa Lucía Utatlán 	7	Santa Rita 	6	Junio	2023-06-23T00:00:00	2024-11-08T14:00:00	8	Radiación solar	226
101345	7	Sololá	704	Santa Lucía Utatlán 	7	Santa Rita 	6	Junio	2023-06-23T00:00:00	2024-11-08T15:00:00	2	Temperatura media	20.3
101346	7	Sololá	704	Santa Lucía Utatlán 	7	Santa Rita 	6	Junio	2023-06-23T00:00:00	2024-11-08T15:00:00	4	Temperatura máxima	20.7
101347	7	Sololá	704	Santa Lucía Utatlán 	7	Santa Rita 	6	Junio	2023-06-23T00:00:00	2024-11-08T15:00:00	3	Temperatura mínima	20.2
101348	7	Sololá	704	Santa Lucía Utatlán 	7	Santa Rita 	6	Junio	2023-06-23T00:00:00	2024-11-08T15:00:00	5	Humedad	93
101349	7	Sololá	704	Santa Lucía Utatlán 	7	Santa Rita 	6	Junio	2023-06-23T00:00:00	2024-11-08T15:00:00	6	Velocidad del viento	3.2
101350	7	Sololá	704	Santa Lucía Utatlán 	7	Santa Rita 	6	Junio	2023-06-23T00:00:00	2024-11-08T15:00:00	7	Dirección del viento	3.22
101351	7	Sololá	704	Santa Lucía Utatlán 	7	Santa Rita 	6	Junio	2023-06-23T00:00:00	2024-11-08T15:00:00	1	Precipitación	0
101352	7	Sololá	704	Santa Lucía Utatlán 	7	Santa Rita 	6	Junio	2023-06-23T00:00:00	2024-11-08T15:00:00	8	Radiación solar	84
101353	7	Sololá	704	Santa Lucía Utatlán 	7	Santa Rita 	6	Junio	2023-06-23T00:00:00	2024-11-08T16:00:00	2	Temperatura media	19.7
101354	7	Sololá	704	Santa Lucía Utatlán 	7	Santa Rita 	6	Junio	2023-06-23T00:00:00	2024-11-08T16:00:00	4	Temperatura máxima	20.3
101355	7	Sololá	704	Santa Lucía Utatlán 	7	Santa Rita 	6	Junio	2023-06-23T00:00:00	2024-11-08T16:00:00	3	Temperatura mínima	19.7
101356	7	Sololá	704	Santa Lucía Utatlán 	7	Santa Rita 	6	Junio	2023-06-23T00:00:00	2024-11-08T16:00:00	5	Humedad	94
101357	7	Sololá	704	Santa Lucía Utatlán 	7	Santa Rita 	6	Junio	2023-06-23T00:00:00	2024-11-08T16:00:00	6	Velocidad del viento	3.2
101358	7	Sololá	704	Santa Lucía Utatlán 	7	Santa Rita 	6	Junio	2023-06-23T00:00:00	2024-11-08T16:00:00	7	Dirección del viento	3.22
101359	7	Sololá	704	Santa Lucía Utatlán 	7	Santa Rita 	6	Junio	2023-06-23T00:00:00	2024-11-08T16:00:00	1	Precipitación	1.4
101360	7	Sololá	704	Santa Lucía Utatlán 	7	Santa Rita 	6	Junio	2023-06-23T00:00:00	2024-11-08T16:00:00	8	Radiación solar	30
101361	7	Sololá	704	Santa Lucía Utatlán 	7	Santa Rita 	6	Junio	2023-06-23T00:00:00	2024-11-08T17:00:00	2	Temperatura media	19.3
101362	7	Sololá	704	Santa Lucía Utatlán 	7	Santa Rita 	6	Junio	2023-06-23T00:00:00	2024-11-08T17:00:00	4	Temperatura máxima	19.8
101363	7	Sololá	704	Santa Lucía Utatlán 	7	Santa Rita 	6	Junio	2023-06-23T00:00:00	2024-11-08T17:00:00	3	Temperatura mínima	19.3
101364	7	Sololá	704	Santa Lucía Utatlán 	7	Santa Rita 	6	Junio	2023-06-23T00:00:00	2024-11-08T17:00:00	5	Humedad	95
101365	7	Sololá	704	Santa Lucía Utatlán 	7	Santa Rita 	6	Junio	2023-06-23T00:00:00	2024-11-08T17:00:00	6	Velocidad del viento	1.6
101366	7	Sololá	704	Santa Lucía Utatlán 	7	Santa Rita 	6	Junio	2023-06-23T00:00:00	2024-11-08T17:00:00	7	Dirección del viento	1.61
101367	7	Sololá	704	Santa Lucía Utatlán 	7	Santa Rita 	6	Junio	2023-06-23T00:00:00	2024-11-08T17:00:00	1	Precipitación	3.8
101368	7	Sololá	704	Santa Lucía Utatlán 	7	Santa Rita 	6	Junio	2023-06-23T00:00:00	2024-11-08T17:00:00	8	Radiación solar	6
101369	7	Sololá	704	Santa Lucía Utatlán 	7	Santa Rita 	6	Junio	2023-06-23T00:00:00	2024-11-08T18:00:00	2	Temperatura media	18.7
101370	7	Sololá	704	Santa Lucía Utatlán 	7	Santa Rita 	6	Junio	2023-06-23T00:00:00	2024-11-08T18:00:00	4	Temperatura máxima	19.4
101371	7	Sololá	704	Santa Lucía Utatlán 	7	Santa Rita 	6	Junio	2023-06-23T00:00:00	2024-11-08T18:00:00	3	Temperatura mínima	18.6
101372	7	Sololá	704	Santa Lucía Utatlán 	7	Santa Rita 	6	Junio	2023-06-23T00:00:00	2024-11-08T18:00:00	5	Humedad	95
101373	7	Sololá	704	Santa Lucía Utatlán 	7	Santa Rita 	6	Junio	2023-06-23T00:00:00	2024-11-08T18:00:00	6	Velocidad del viento	1.6
101374	7	Sololá	704	Santa Lucía Utatlán 	7	Santa Rita 	6	Junio	2023-06-23T00:00:00	2024-11-08T18:00:00	7	Dirección del viento	1.61
101375	7	Sololá	704	Santa Lucía Utatlán 	7	Santa Rita 	6	Junio	2023-06-23T00:00:00	2024-11-08T18:00:00	1	Precipitación	7.8
101376	7	Sololá	704	Santa Lucía Utatlán 	7	Santa Rita 	6	Junio	2023-06-23T00:00:00	2024-11-08T18:00:00	8	Radiación solar	0
101377	7	Sololá	704	Santa Lucía Utatlán 	7	Santa Rita 	6	Junio	2023-06-23T00:00:00	2024-11-08T19:00:00	2	Temperatura media	18.1
101378	7	Sololá	704	Santa Lucía Utatlán 	7	Santa Rita 	6	Junio	2023-06-23T00:00:00	2024-11-08T19:00:00	4	Temperatura máxima	18.7
101379	7	Sololá	704	Santa Lucía Utatlán 	7	Santa Rita 	6	Junio	2023-06-23T00:00:00	2024-11-08T19:00:00	3	Temperatura mínima	18.1
101380	7	Sololá	704	Santa Lucía Utatlán 	7	Santa Rita 	6	Junio	2023-06-23T00:00:00	2024-11-08T19:00:00	5	Humedad	94
101381	7	Sololá	704	Santa Lucía Utatlán 	7	Santa Rita 	6	Junio	2023-06-23T00:00:00	2024-11-08T19:00:00	6	Velocidad del viento	1.6
101382	7	Sololá	704	Santa Lucía Utatlán 	7	Santa Rita 	6	Junio	2023-06-23T00:00:00	2024-11-08T19:00:00	7	Dirección del viento	1.61
101383	7	Sololá	704	Santa Lucía Utatlán 	7	Santa Rita 	6	Junio	2023-06-23T00:00:00	2024-11-08T19:00:00	1	Precipitación	2.4
101384	7	Sololá	704	Santa Lucía Utatlán 	7	Santa Rita 	6	Junio	2023-06-23T00:00:00	2024-11-08T19:00:00	8	Radiación solar	0
101385	7	Sololá	704	Santa Lucía Utatlán 	7	Santa Rita 	6	Junio	2023-06-23T00:00:00	2024-11-08T20:00:00	2	Temperatura media	17.7
101386	7	Sololá	704	Santa Lucía Utatlán 	7	Santa Rita 	6	Junio	2023-06-23T00:00:00	2024-11-08T20:00:00	4	Temperatura máxima	18.2
101387	7	Sololá	704	Santa Lucía Utatlán 	7	Santa Rita 	6	Junio	2023-06-23T00:00:00	2024-11-08T20:00:00	3	Temperatura mínima	17.7
101388	7	Sololá	704	Santa Lucía Utatlán 	7	Santa Rita 	6	Junio	2023-06-23T00:00:00	2024-11-08T20:00:00	5	Humedad	94
101389	7	Sololá	704	Santa Lucía Utatlán 	7	Santa Rita 	6	Junio	2023-06-23T00:00:00	2024-11-08T20:00:00	6	Velocidad del viento	1.6
101390	7	Sololá	704	Santa Lucía Utatlán 	7	Santa Rita 	6	Junio	2023-06-23T00:00:00	2024-11-08T20:00:00	7	Dirección del viento	1.61
101391	7	Sololá	704	Santa Lucía Utatlán 	7	Santa Rita 	6	Junio	2023-06-23T00:00:00	2024-11-08T20:00:00	1	Precipitación	0
101392	7	Sololá	704	Santa Lucía Utatlán 	7	Santa Rita 	6	Junio	2023-06-23T00:00:00	2024-11-08T20:00:00	8	Radiación solar	0
101393	7	Sololá	704	Santa Lucía Utatlán 	7	Santa Rita 	6	Junio	2023-06-23T00:00:00	2024-11-08T21:00:00	2	Temperatura media	17.6
101394	7	Sololá	704	Santa Lucía Utatlán 	7	Santa Rita 	6	Junio	2023-06-23T00:00:00	2024-11-08T21:00:00	4	Temperatura máxima	17.7
101395	7	Sololá	704	Santa Lucía Utatlán 	7	Santa Rita 	6	Junio	2023-06-23T00:00:00	2024-11-08T21:00:00	3	Temperatura mínima	17.4
101396	7	Sololá	704	Santa Lucía Utatlán 	7	Santa Rita 	6	Junio	2023-06-23T00:00:00	2024-11-08T21:00:00	5	Humedad	94
101397	7	Sololá	704	Santa Lucía Utatlán 	7	Santa Rita 	6	Junio	2023-06-23T00:00:00	2024-11-08T21:00:00	6	Velocidad del viento	4.8
101398	7	Sololá	704	Santa Lucía Utatlán 	7	Santa Rita 	6	Junio	2023-06-23T00:00:00	2024-11-08T21:00:00	7	Dirección del viento	4.83
101399	7	Sololá	704	Santa Lucía Utatlán 	7	Santa Rita 	6	Junio	2023-06-23T00:00:00	2024-11-08T21:00:00	1	Precipitación	0
101400	7	Sololá	704	Santa Lucía Utatlán 	7	Santa Rita 	6	Junio	2023-06-23T00:00:00	2024-11-08T21:00:00	8	Radiación solar	0
101401	7	Sololá	704	Santa Lucía Utatlán 	7	Santa Rita 	6	Junio	2023-06-23T00:00:00	2024-11-08T22:00:00	2	Temperatura media	18.4
101402	7	Sololá	704	Santa Lucía Utatlán 	7	Santa Rita 	6	Junio	2023-06-23T00:00:00	2024-11-08T22:00:00	4	Temperatura máxima	18.4
101403	7	Sololá	704	Santa Lucía Utatlán 	7	Santa Rita 	6	Junio	2023-06-23T00:00:00	2024-11-08T22:00:00	3	Temperatura mínima	17.6
101404	7	Sololá	704	Santa Lucía Utatlán 	7	Santa Rita 	6	Junio	2023-06-23T00:00:00	2024-11-08T22:00:00	5	Humedad	94
101405	7	Sololá	704	Santa Lucía Utatlán 	7	Santa Rita 	6	Junio	2023-06-23T00:00:00	2024-11-08T22:00:00	6	Velocidad del viento	3.2
101406	7	Sololá	704	Santa Lucía Utatlán 	7	Santa Rita 	6	Junio	2023-06-23T00:00:00	2024-11-08T22:00:00	7	Dirección del viento	3.22
101407	7	Sololá	704	Santa Lucía Utatlán 	7	Santa Rita 	6	Junio	2023-06-23T00:00:00	2024-11-08T22:00:00	1	Precipitación	0
101408	7	Sololá	704	Santa Lucía Utatlán 	7	Santa Rita 	6	Junio	2023-06-23T00:00:00	2024-11-08T22:00:00	8	Radiación solar	0
101409	7	Sololá	704	Santa Lucía Utatlán 	7	Santa Rita 	6	Junio	2023-06-23T00:00:00	2024-11-08T23:00:00	2	Temperatura media	18.6
101410	7	Sololá	704	Santa Lucía Utatlán 	7	Santa Rita 	6	Junio	2023-06-23T00:00:00	2024-11-08T23:00:00	4	Temperatura máxima	18.6
101411	7	Sololá	704	Santa Lucía Utatlán 	7	Santa Rita 	6	Junio	2023-06-23T00:00:00	2024-11-08T23:00:00	3	Temperatura mínima	18.4
101412	7	Sololá	704	Santa Lucía Utatlán 	7	Santa Rita 	6	Junio	2023-06-23T00:00:00	2024-11-08T23:00:00	5	Humedad	94
101413	7	Sololá	704	Santa Lucía Utatlán 	7	Santa Rita 	6	Junio	2023-06-23T00:00:00	2024-11-08T23:00:00	6	Velocidad del viento	3.2
101414	7	Sololá	704	Santa Lucía Utatlán 	7	Santa Rita 	6	Junio	2023-06-23T00:00:00	2024-11-08T23:00:00	7	Dirección del viento	3.22
101415	7	Sololá	704	Santa Lucía Utatlán 	7	Santa Rita 	6	Junio	2023-06-23T00:00:00	2024-11-08T23:00:00	1	Precipitación	0
101416	7	Sololá	704	Santa Lucía Utatlán 	7	Santa Rita 	6	Junio	2023-06-23T00:00:00	2024-11-08T23:00:00	8	Radiación solar	0
101417	7	Sololá	704	Santa Lucía Utatlán 	7	Santa Rita 	6	Junio	2023-06-24T00:00:00	2024-11-08T00:00:00	2	Temperatura media	18.5
101418	7	Sololá	704	Santa Lucía Utatlán 	7	Santa Rita 	6	Junio	2023-06-24T00:00:00	2024-11-08T00:00:00	4	Temperatura máxima	18.7
101419	7	Sololá	704	Santa Lucía Utatlán 	7	Santa Rita 	6	Junio	2023-06-24T00:00:00	2024-11-08T00:00:00	3	Temperatura mínima	18.3
101420	7	Sololá	704	Santa Lucía Utatlán 	7	Santa Rita 	6	Junio	2023-06-24T00:00:00	2024-11-08T00:00:00	5	Humedad	95
101421	7	Sololá	704	Santa Lucía Utatlán 	7	Santa Rita 	6	Junio	2023-06-24T00:00:00	2024-11-08T00:00:00	6	Velocidad del viento	1.6
101422	7	Sololá	704	Santa Lucía Utatlán 	7	Santa Rita 	6	Junio	2023-06-24T00:00:00	2024-11-08T00:00:00	7	Dirección del viento	1.61
101423	7	Sololá	704	Santa Lucía Utatlán 	7	Santa Rita 	6	Junio	2023-06-24T00:00:00	2024-11-08T00:00:00	1	Precipitación	0
101424	7	Sololá	704	Santa Lucía Utatlán 	7	Santa Rita 	6	Junio	2023-06-24T00:00:00	2024-11-08T00:00:00	8	Radiación solar	0
101425	7	Sololá	704	Santa Lucía Utatlán 	7	Santa Rita 	6	Junio	2023-06-24T00:00:00	2024-11-08T01:00:00	2	Temperatura media	18.2
101426	7	Sololá	704	Santa Lucía Utatlán 	7	Santa Rita 	6	Junio	2023-06-24T00:00:00	2024-11-08T01:00:00	4	Temperatura máxima	18.7
101427	7	Sololá	704	Santa Lucía Utatlán 	7	Santa Rita 	6	Junio	2023-06-24T00:00:00	2024-11-08T01:00:00	3	Temperatura mínima	18.2
101428	7	Sololá	704	Santa Lucía Utatlán 	7	Santa Rita 	6	Junio	2023-06-24T00:00:00	2024-11-08T01:00:00	5	Humedad	94
101429	7	Sololá	704	Santa Lucía Utatlán 	7	Santa Rita 	6	Junio	2023-06-24T00:00:00	2024-11-08T01:00:00	6	Velocidad del viento	1.6
101430	7	Sololá	704	Santa Lucía Utatlán 	7	Santa Rita 	6	Junio	2023-06-24T00:00:00	2024-11-08T01:00:00	7	Dirección del viento	1.61
101431	7	Sololá	704	Santa Lucía Utatlán 	7	Santa Rita 	6	Junio	2023-06-24T00:00:00	2024-11-08T01:00:00	1	Precipitación	0
101432	7	Sololá	704	Santa Lucía Utatlán 	7	Santa Rita 	6	Junio	2023-06-24T00:00:00	2024-11-08T01:00:00	8	Radiación solar	0
101433	7	Sololá	704	Santa Lucía Utatlán 	7	Santa Rita 	6	Junio	2023-06-24T00:00:00	2024-11-08T02:00:00	2	Temperatura media	17.7
101434	7	Sololá	704	Santa Lucía Utatlán 	7	Santa Rita 	6	Junio	2023-06-24T00:00:00	2024-11-08T02:00:00	4	Temperatura máxima	18.3
101435	7	Sololá	704	Santa Lucía Utatlán 	7	Santa Rita 	6	Junio	2023-06-24T00:00:00	2024-11-08T02:00:00	3	Temperatura mínima	17.7
101436	7	Sololá	704	Santa Lucía Utatlán 	7	Santa Rita 	6	Junio	2023-06-24T00:00:00	2024-11-08T02:00:00	5	Humedad	94
101437	7	Sololá	704	Santa Lucía Utatlán 	7	Santa Rita 	6	Junio	2023-06-24T00:00:00	2024-11-08T02:00:00	6	Velocidad del viento	1.6
101438	7	Sololá	704	Santa Lucía Utatlán 	7	Santa Rita 	6	Junio	2023-06-24T00:00:00	2024-11-08T02:00:00	7	Dirección del viento	1.61
101439	7	Sololá	704	Santa Lucía Utatlán 	7	Santa Rita 	6	Junio	2023-06-24T00:00:00	2024-11-08T02:00:00	1	Precipitación	0
101440	7	Sololá	704	Santa Lucía Utatlán 	7	Santa Rita 	6	Junio	2023-06-24T00:00:00	2024-11-08T02:00:00	8	Radiación solar	0
101441	7	Sololá	704	Santa Lucía Utatlán 	7	Santa Rita 	6	Junio	2023-06-24T00:00:00	2024-11-08T03:00:00	2	Temperatura media	17.1
101442	7	Sololá	704	Santa Lucía Utatlán 	7	Santa Rita 	6	Junio	2023-06-24T00:00:00	2024-11-08T03:00:00	4	Temperatura máxima	17.7
101443	7	Sololá	704	Santa Lucía Utatlán 	7	Santa Rita 	6	Junio	2023-06-24T00:00:00	2024-11-08T03:00:00	3	Temperatura mínima	17.1
101444	7	Sololá	704	Santa Lucía Utatlán 	7	Santa Rita 	6	Junio	2023-06-24T00:00:00	2024-11-08T03:00:00	5	Humedad	94
101445	7	Sololá	704	Santa Lucía Utatlán 	7	Santa Rita 	6	Junio	2023-06-24T00:00:00	2024-11-08T03:00:00	6	Velocidad del viento	3.2
101446	7	Sololá	704	Santa Lucía Utatlán 	7	Santa Rita 	6	Junio	2023-06-24T00:00:00	2024-11-08T03:00:00	7	Dirección del viento	3.22
101447	7	Sololá	704	Santa Lucía Utatlán 	7	Santa Rita 	6	Junio	2023-06-24T00:00:00	2024-11-08T03:00:00	1	Precipitación	0
101448	7	Sololá	704	Santa Lucía Utatlán 	7	Santa Rita 	6	Junio	2023-06-24T00:00:00	2024-11-08T03:00:00	8	Radiación solar	0
101449	7	Sololá	704	Santa Lucía Utatlán 	7	Santa Rita 	6	Junio	2023-06-24T00:00:00	2024-11-08T04:00:00	2	Temperatura media	17.3
101450	7	Sololá	704	Santa Lucía Utatlán 	7	Santa Rita 	6	Junio	2023-06-24T00:00:00	2024-11-08T04:00:00	4	Temperatura máxima	17.3
101451	7	Sololá	704	Santa Lucía Utatlán 	7	Santa Rita 	6	Junio	2023-06-24T00:00:00	2024-11-08T04:00:00	3	Temperatura mínima	16.9
101452	7	Sololá	704	Santa Lucía Utatlán 	7	Santa Rita 	6	Junio	2023-06-24T00:00:00	2024-11-08T04:00:00	5	Humedad	96
101453	7	Sololá	704	Santa Lucía Utatlán 	7	Santa Rita 	6	Junio	2023-06-24T00:00:00	2024-11-08T04:00:00	6	Velocidad del viento	3.2
101454	7	Sololá	704	Santa Lucía Utatlán 	7	Santa Rita 	6	Junio	2023-06-24T00:00:00	2024-11-08T04:00:00	7	Dirección del viento	3.22
101455	7	Sololá	704	Santa Lucía Utatlán 	7	Santa Rita 	6	Junio	2023-06-24T00:00:00	2024-11-08T04:00:00	1	Precipitación	0
101456	7	Sololá	704	Santa Lucía Utatlán 	7	Santa Rita 	6	Junio	2023-06-24T00:00:00	2024-11-08T04:00:00	8	Radiación solar	0
101457	7	Sololá	704	Santa Lucía Utatlán 	7	Santa Rita 	6	Junio	2023-06-24T00:00:00	2024-11-08T05:00:00	2	Temperatura media	17.1
101458	7	Sololá	704	Santa Lucía Utatlán 	7	Santa Rita 	6	Junio	2023-06-24T00:00:00	2024-11-08T05:00:00	4	Temperatura máxima	17.3
101459	7	Sololá	704	Santa Lucía Utatlán 	7	Santa Rita 	6	Junio	2023-06-24T00:00:00	2024-11-08T05:00:00	3	Temperatura mínima	17.1
101460	7	Sololá	704	Santa Lucía Utatlán 	7	Santa Rita 	6	Junio	2023-06-24T00:00:00	2024-11-08T05:00:00	5	Humedad	94
101461	7	Sololá	704	Santa Lucía Utatlán 	7	Santa Rita 	6	Junio	2023-06-24T00:00:00	2024-11-08T05:00:00	6	Velocidad del viento	1.6
101462	7	Sololá	704	Santa Lucía Utatlán 	7	Santa Rita 	6	Junio	2023-06-24T00:00:00	2024-11-08T05:00:00	7	Dirección del viento	1.61
101463	7	Sololá	704	Santa Lucía Utatlán 	7	Santa Rita 	6	Junio	2023-06-24T00:00:00	2024-11-08T05:00:00	1	Precipitación	0
101464	7	Sololá	704	Santa Lucía Utatlán 	7	Santa Rita 	6	Junio	2023-06-24T00:00:00	2024-11-08T05:00:00	8	Radiación solar	0
101465	7	Sololá	704	Santa Lucía Utatlán 	7	Santa Rita 	6	Junio	2023-06-24T00:00:00	2024-11-08T06:00:00	2	Temperatura media	16.4
101466	7	Sololá	704	Santa Lucía Utatlán 	7	Santa Rita 	6	Junio	2023-06-24T00:00:00	2024-11-08T06:00:00	4	Temperatura máxima	17.1
101467	7	Sololá	704	Santa Lucía Utatlán 	7	Santa Rita 	6	Junio	2023-06-24T00:00:00	2024-11-08T06:00:00	3	Temperatura mínima	16.2
101468	7	Sololá	704	Santa Lucía Utatlán 	7	Santa Rita 	6	Junio	2023-06-24T00:00:00	2024-11-08T06:00:00	5	Humedad	95
101469	7	Sololá	704	Santa Lucía Utatlán 	7	Santa Rita 	6	Junio	2023-06-24T00:00:00	2024-11-08T06:00:00	6	Velocidad del viento	3.2
101470	7	Sololá	704	Santa Lucía Utatlán 	7	Santa Rita 	6	Junio	2023-06-24T00:00:00	2024-11-08T06:00:00	7	Dirección del viento	3.22
101471	7	Sololá	704	Santa Lucía Utatlán 	7	Santa Rita 	6	Junio	2023-06-24T00:00:00	2024-11-08T06:00:00	1	Precipitación	0
101472	7	Sololá	704	Santa Lucía Utatlán 	7	Santa Rita 	6	Junio	2023-06-24T00:00:00	2024-11-08T06:00:00	8	Radiación solar	4
101473	7	Sololá	704	Santa Lucía Utatlán 	7	Santa Rita 	6	Junio	2023-06-24T00:00:00	2024-11-08T07:00:00	2	Temperatura media	17.7
101474	7	Sololá	704	Santa Lucía Utatlán 	7	Santa Rita 	6	Junio	2023-06-24T00:00:00	2024-11-08T07:00:00	4	Temperatura máxima	17.7
101475	7	Sololá	704	Santa Lucía Utatlán 	7	Santa Rita 	6	Junio	2023-06-24T00:00:00	2024-11-08T07:00:00	3	Temperatura mínima	16.4
101476	7	Sololá	704	Santa Lucía Utatlán 	7	Santa Rita 	6	Junio	2023-06-24T00:00:00	2024-11-08T07:00:00	5	Humedad	94
101477	7	Sololá	704	Santa Lucía Utatlán 	7	Santa Rita 	6	Junio	2023-06-24T00:00:00	2024-11-08T07:00:00	6	Velocidad del viento	3.2
101478	7	Sololá	704	Santa Lucía Utatlán 	7	Santa Rita 	6	Junio	2023-06-24T00:00:00	2024-11-08T07:00:00	7	Dirección del viento	3.22
101479	7	Sololá	704	Santa Lucía Utatlán 	7	Santa Rita 	6	Junio	2023-06-24T00:00:00	2024-11-08T07:00:00	1	Precipitación	0
101480	7	Sololá	704	Santa Lucía Utatlán 	7	Santa Rita 	6	Junio	2023-06-24T00:00:00	2024-11-08T07:00:00	8	Radiación solar	55
101481	7	Sololá	704	Santa Lucía Utatlán 	7	Santa Rita 	6	Junio	2023-06-24T00:00:00	2024-11-08T08:00:00	2	Temperatura media	19.4
101482	7	Sololá	704	Santa Lucía Utatlán 	7	Santa Rita 	6	Junio	2023-06-24T00:00:00	2024-11-08T08:00:00	4	Temperatura máxima	19.4
101483	7	Sololá	704	Santa Lucía Utatlán 	7	Santa Rita 	6	Junio	2023-06-24T00:00:00	2024-11-08T08:00:00	3	Temperatura mínima	17.7
101484	7	Sololá	704	Santa Lucía Utatlán 	7	Santa Rita 	6	Junio	2023-06-24T00:00:00	2024-11-08T08:00:00	5	Humedad	93
101485	7	Sololá	704	Santa Lucía Utatlán 	7	Santa Rita 	6	Junio	2023-06-24T00:00:00	2024-11-08T08:00:00	6	Velocidad del viento	0
101486	7	Sololá	704	Santa Lucía Utatlán 	7	Santa Rita 	6	Junio	2023-06-24T00:00:00	2024-11-08T08:00:00	7	Dirección del viento	0
101487	7	Sololá	704	Santa Lucía Utatlán 	7	Santa Rita 	6	Junio	2023-06-24T00:00:00	2024-11-08T08:00:00	1	Precipitación	0
101488	7	Sololá	704	Santa Lucía Utatlán 	7	Santa Rita 	6	Junio	2023-06-24T00:00:00	2024-11-08T08:00:00	8	Radiación solar	157
101489	7	Sololá	704	Santa Lucía Utatlán 	7	Santa Rita 	6	Junio	2023-06-24T00:00:00	2024-11-08T09:00:00	2	Temperatura media	21.1
101490	7	Sololá	704	Santa Lucía Utatlán 	7	Santa Rita 	6	Junio	2023-06-24T00:00:00	2024-11-08T09:00:00	4	Temperatura máxima	21.1
101491	7	Sololá	704	Santa Lucía Utatlán 	7	Santa Rita 	6	Junio	2023-06-24T00:00:00	2024-11-08T09:00:00	3	Temperatura mínima	19.4
101492	7	Sololá	704	Santa Lucía Utatlán 	7	Santa Rita 	6	Junio	2023-06-24T00:00:00	2024-11-08T09:00:00	5	Humedad	86
101493	7	Sololá	704	Santa Lucía Utatlán 	7	Santa Rita 	6	Junio	2023-06-24T00:00:00	2024-11-08T09:00:00	6	Velocidad del viento	1.6
101494	7	Sololá	704	Santa Lucía Utatlán 	7	Santa Rita 	6	Junio	2023-06-24T00:00:00	2024-11-08T09:00:00	7	Dirección del viento	1.61
101495	7	Sololá	704	Santa Lucía Utatlán 	7	Santa Rita 	6	Junio	2023-06-24T00:00:00	2024-11-08T09:00:00	1	Precipitación	0
101496	7	Sololá	704	Santa Lucía Utatlán 	7	Santa Rita 	6	Junio	2023-06-24T00:00:00	2024-11-08T09:00:00	8	Radiación solar	255
101497	7	Sololá	704	Santa Lucía Utatlán 	7	Santa Rita 	6	Junio	2023-06-24T00:00:00	2024-11-08T10:00:00	2	Temperatura media	23.1
101498	7	Sololá	704	Santa Lucía Utatlán 	7	Santa Rita 	6	Junio	2023-06-24T00:00:00	2024-11-08T10:00:00	4	Temperatura máxima	23.2
101499	7	Sololá	704	Santa Lucía Utatlán 	7	Santa Rita 	6	Junio	2023-06-24T00:00:00	2024-11-08T10:00:00	3	Temperatura mínima	21.1
101500	7	Sololá	704	Santa Lucía Utatlán 	7	Santa Rita 	6	Junio	2023-06-24T00:00:00	2024-11-08T10:00:00	5	Humedad	77
101501	7	Sololá	704	Santa Lucía Utatlán 	7	Santa Rita 	6	Junio	2023-06-24T00:00:00	2024-11-08T10:00:00	6	Velocidad del viento	1.6
101502	7	Sololá	704	Santa Lucía Utatlán 	7	Santa Rita 	6	Junio	2023-06-24T00:00:00	2024-11-08T10:00:00	7	Dirección del viento	1.61
101503	7	Sololá	704	Santa Lucía Utatlán 	7	Santa Rita 	6	Junio	2023-06-24T00:00:00	2024-11-08T10:00:00	1	Precipitación	0
101504	7	Sololá	704	Santa Lucía Utatlán 	7	Santa Rita 	6	Junio	2023-06-24T00:00:00	2024-11-08T10:00:00	8	Radiación solar	446
101505	7	Sololá	704	Santa Lucía Utatlán 	7	Santa Rita 	6	Junio	2023-06-24T00:00:00	2024-11-08T11:00:00	2	Temperatura media	22.7
101506	7	Sololá	704	Santa Lucía Utatlán 	7	Santa Rita 	6	Junio	2023-06-24T00:00:00	2024-11-08T11:00:00	4	Temperatura máxima	23.1
101507	7	Sololá	704	Santa Lucía Utatlán 	7	Santa Rita 	6	Junio	2023-06-24T00:00:00	2024-11-08T11:00:00	3	Temperatura mínima	22.3
101508	7	Sololá	704	Santa Lucía Utatlán 	7	Santa Rita 	6	Junio	2023-06-24T00:00:00	2024-11-08T11:00:00	5	Humedad	83
101509	7	Sololá	704	Santa Lucía Utatlán 	7	Santa Rita 	6	Junio	2023-06-24T00:00:00	2024-11-08T11:00:00	6	Velocidad del viento	6.4
101510	7	Sololá	704	Santa Lucía Utatlán 	7	Santa Rita 	6	Junio	2023-06-24T00:00:00	2024-11-08T11:00:00	7	Dirección del viento	6.44
101511	7	Sololá	704	Santa Lucía Utatlán 	7	Santa Rita 	6	Junio	2023-06-24T00:00:00	2024-11-08T11:00:00	1	Precipitación	0
101512	7	Sololá	704	Santa Lucía Utatlán 	7	Santa Rita 	6	Junio	2023-06-24T00:00:00	2024-11-08T11:00:00	8	Radiación solar	423
101513	7	Sololá	704	Santa Lucía Utatlán 	7	Santa Rita 	6	Junio	2023-06-24T00:00:00	2024-11-08T12:00:00	2	Temperatura media	21.3
101514	7	Sololá	704	Santa Lucía Utatlán 	7	Santa Rita 	6	Junio	2023-06-24T00:00:00	2024-11-08T12:00:00	4	Temperatura máxima	22.8
101515	7	Sololá	704	Santa Lucía Utatlán 	7	Santa Rita 	6	Junio	2023-06-24T00:00:00	2024-11-08T12:00:00	3	Temperatura mínima	21.2
101516	7	Sololá	704	Santa Lucía Utatlán 	7	Santa Rita 	6	Junio	2023-06-24T00:00:00	2024-11-08T12:00:00	5	Humedad	84
101517	7	Sololá	704	Santa Lucía Utatlán 	7	Santa Rita 	6	Junio	2023-06-24T00:00:00	2024-11-08T12:00:00	6	Velocidad del viento	4.8
101518	7	Sololá	704	Santa Lucía Utatlán 	7	Santa Rita 	6	Junio	2023-06-24T00:00:00	2024-11-08T12:00:00	7	Dirección del viento	4.83
101519	7	Sololá	704	Santa Lucía Utatlán 	7	Santa Rita 	6	Junio	2023-06-24T00:00:00	2024-11-08T12:00:00	1	Precipitación	0
101520	7	Sololá	704	Santa Lucía Utatlán 	7	Santa Rita 	6	Junio	2023-06-24T00:00:00	2024-11-08T12:00:00	8	Radiación solar	115
101521	7	Sololá	704	Santa Lucía Utatlán 	7	Santa Rita 	6	Junio	2023-06-24T00:00:00	2024-11-08T13:00:00	2	Temperatura media	22.2
101522	7	Sololá	704	Santa Lucía Utatlán 	7	Santa Rita 	6	Junio	2023-06-24T00:00:00	2024-11-08T13:00:00	4	Temperatura máxima	22.2
101523	7	Sololá	704	Santa Lucía Utatlán 	7	Santa Rita 	6	Junio	2023-06-24T00:00:00	2024-11-08T13:00:00	3	Temperatura mínima	21.3
101524	7	Sololá	704	Santa Lucía Utatlán 	7	Santa Rita 	6	Junio	2023-06-24T00:00:00	2024-11-08T13:00:00	5	Humedad	80
101525	7	Sololá	704	Santa Lucía Utatlán 	7	Santa Rita 	6	Junio	2023-06-24T00:00:00	2024-11-08T13:00:00	6	Velocidad del viento	3.2
101526	7	Sololá	704	Santa Lucía Utatlán 	7	Santa Rita 	6	Junio	2023-06-24T00:00:00	2024-11-08T13:00:00	7	Dirección del viento	3.22
101527	7	Sololá	704	Santa Lucía Utatlán 	7	Santa Rita 	6	Junio	2023-06-24T00:00:00	2024-11-08T13:00:00	1	Precipitación	0
101528	7	Sololá	704	Santa Lucía Utatlán 	7	Santa Rita 	6	Junio	2023-06-24T00:00:00	2024-11-08T13:00:00	8	Radiación solar	169
101529	7	Sololá	704	Santa Lucía Utatlán 	7	Santa Rita 	6	Junio	2023-06-24T00:00:00	2024-11-08T14:00:00	2	Temperatura media	22.7
101530	7	Sololá	704	Santa Lucía Utatlán 	7	Santa Rita 	6	Junio	2023-06-24T00:00:00	2024-11-08T14:00:00	4	Temperatura máxima	23.4
101531	7	Sololá	704	Santa Lucía Utatlán 	7	Santa Rita 	6	Junio	2023-06-24T00:00:00	2024-11-08T14:00:00	3	Temperatura mínima	22.2
101532	7	Sololá	704	Santa Lucía Utatlán 	7	Santa Rita 	6	Junio	2023-06-24T00:00:00	2024-11-08T14:00:00	5	Humedad	80
101533	7	Sololá	704	Santa Lucía Utatlán 	7	Santa Rita 	6	Junio	2023-06-24T00:00:00	2024-11-08T14:00:00	6	Velocidad del viento	3.2
101534	7	Sololá	704	Santa Lucía Utatlán 	7	Santa Rita 	6	Junio	2023-06-24T00:00:00	2024-11-08T14:00:00	7	Dirección del viento	3.22
101535	7	Sololá	704	Santa Lucía Utatlán 	7	Santa Rita 	6	Junio	2023-06-24T00:00:00	2024-11-08T14:00:00	1	Precipitación	0
101536	7	Sololá	704	Santa Lucía Utatlán 	7	Santa Rita 	6	Junio	2023-06-24T00:00:00	2024-11-08T14:00:00	8	Radiación solar	269
101537	7	Sololá	704	Santa Lucía Utatlán 	7	Santa Rita 	6	Junio	2023-06-24T00:00:00	2024-11-08T15:00:00	2	Temperatura media	21.7
101538	7	Sololá	704	Santa Lucía Utatlán 	7	Santa Rita 	6	Junio	2023-06-24T00:00:00	2024-11-08T15:00:00	4	Temperatura máxima	22.7
101539	7	Sololá	704	Santa Lucía Utatlán 	7	Santa Rita 	6	Junio	2023-06-24T00:00:00	2024-11-08T15:00:00	3	Temperatura mínima	21.6
101540	7	Sololá	704	Santa Lucía Utatlán 	7	Santa Rita 	6	Junio	2023-06-24T00:00:00	2024-11-08T15:00:00	5	Humedad	90
101541	7	Sololá	704	Santa Lucía Utatlán 	7	Santa Rita 	6	Junio	2023-06-24T00:00:00	2024-11-08T15:00:00	6	Velocidad del viento	1.6
101542	7	Sololá	704	Santa Lucía Utatlán 	7	Santa Rita 	6	Junio	2023-06-24T00:00:00	2024-11-08T15:00:00	7	Dirección del viento	1.61
101543	7	Sololá	704	Santa Lucía Utatlán 	7	Santa Rita 	6	Junio	2023-06-24T00:00:00	2024-11-08T15:00:00	1	Precipitación	0
101544	7	Sololá	704	Santa Lucía Utatlán 	7	Santa Rita 	6	Junio	2023-06-24T00:00:00	2024-11-08T15:00:00	8	Radiación solar	84
101545	7	Sololá	704	Santa Lucía Utatlán 	7	Santa Rita 	6	Junio	2023-06-24T00:00:00	2024-11-08T16:00:00	2	Temperatura media	21.9
101546	7	Sololá	704	Santa Lucía Utatlán 	7	Santa Rita 	6	Junio	2023-06-24T00:00:00	2024-11-08T16:00:00	4	Temperatura máxima	21.9
101547	7	Sololá	704	Santa Lucía Utatlán 	7	Santa Rita 	6	Junio	2023-06-24T00:00:00	2024-11-08T16:00:00	3	Temperatura mínima	21.5
101548	7	Sololá	704	Santa Lucía Utatlán 	7	Santa Rita 	6	Junio	2023-06-24T00:00:00	2024-11-08T16:00:00	5	Humedad	92
101549	7	Sololá	704	Santa Lucía Utatlán 	7	Santa Rita 	6	Junio	2023-06-24T00:00:00	2024-11-08T16:00:00	6	Velocidad del viento	0
101550	7	Sololá	704	Santa Lucía Utatlán 	7	Santa Rita 	6	Junio	2023-06-24T00:00:00	2024-11-08T16:00:00	7	Dirección del viento	0
101551	7	Sololá	704	Santa Lucía Utatlán 	7	Santa Rita 	6	Junio	2023-06-24T00:00:00	2024-11-08T16:00:00	1	Precipitación	0.2
101552	7	Sololá	704	Santa Lucía Utatlán 	7	Santa Rita 	6	Junio	2023-06-24T00:00:00	2024-11-08T16:00:00	8	Radiación solar	107
101553	7	Sololá	704	Santa Lucía Utatlán 	7	Santa Rita 	6	Junio	2023-06-24T00:00:00	2024-11-08T17:00:00	2	Temperatura media	22.8
101554	7	Sololá	704	Santa Lucía Utatlán 	7	Santa Rita 	6	Junio	2023-06-24T00:00:00	2024-11-08T17:00:00	4	Temperatura máxima	22.8
101555	7	Sololá	704	Santa Lucía Utatlán 	7	Santa Rita 	6	Junio	2023-06-24T00:00:00	2024-11-08T17:00:00	3	Temperatura mínima	21.8
101556	7	Sololá	704	Santa Lucía Utatlán 	7	Santa Rita 	6	Junio	2023-06-24T00:00:00	2024-11-08T17:00:00	5	Humedad	83
101557	7	Sololá	704	Santa Lucía Utatlán 	7	Santa Rita 	6	Junio	2023-06-24T00:00:00	2024-11-08T17:00:00	6	Velocidad del viento	1.6
101558	7	Sololá	704	Santa Lucía Utatlán 	7	Santa Rita 	6	Junio	2023-06-24T00:00:00	2024-11-08T17:00:00	7	Dirección del viento	1.61
101559	7	Sololá	704	Santa Lucía Utatlán 	7	Santa Rita 	6	Junio	2023-06-24T00:00:00	2024-11-08T17:00:00	1	Precipitación	0
101560	7	Sololá	704	Santa Lucía Utatlán 	7	Santa Rita 	6	Junio	2023-06-24T00:00:00	2024-11-08T17:00:00	8	Radiación solar	176
101561	7	Sololá	704	Santa Lucía Utatlán 	7	Santa Rita 	6	Junio	2023-06-24T00:00:00	2024-11-08T18:00:00	2	Temperatura media	20.9
101562	7	Sololá	704	Santa Lucía Utatlán 	7	Santa Rita 	6	Junio	2023-06-24T00:00:00	2024-11-08T18:00:00	4	Temperatura máxima	23.4
101563	7	Sololá	704	Santa Lucía Utatlán 	7	Santa Rita 	6	Junio	2023-06-24T00:00:00	2024-11-08T18:00:00	3	Temperatura mínima	20.9
101564	7	Sololá	704	Santa Lucía Utatlán 	7	Santa Rita 	6	Junio	2023-06-24T00:00:00	2024-11-08T18:00:00	5	Humedad	91
101565	7	Sololá	704	Santa Lucía Utatlán 	7	Santa Rita 	6	Junio	2023-06-24T00:00:00	2024-11-08T18:00:00	6	Velocidad del viento	3.2
101566	7	Sololá	704	Santa Lucía Utatlán 	7	Santa Rita 	6	Junio	2023-06-24T00:00:00	2024-11-08T18:00:00	7	Dirección del viento	3.22
101567	7	Sololá	704	Santa Lucía Utatlán 	7	Santa Rita 	6	Junio	2023-06-24T00:00:00	2024-11-08T18:00:00	1	Precipitación	0
101568	7	Sololá	704	Santa Lucía Utatlán 	7	Santa Rita 	6	Junio	2023-06-24T00:00:00	2024-11-08T18:00:00	8	Radiación solar	127
101569	7	Sololá	704	Santa Lucía Utatlán 	7	Santa Rita 	6	Junio	2023-06-24T00:00:00	2024-11-08T19:00:00	2	Temperatura media	19.7
101570	7	Sololá	704	Santa Lucía Utatlán 	7	Santa Rita 	6	Junio	2023-06-24T00:00:00	2024-11-08T19:00:00	4	Temperatura máxima	20.9
101571	7	Sololá	704	Santa Lucía Utatlán 	7	Santa Rita 	6	Junio	2023-06-24T00:00:00	2024-11-08T19:00:00	3	Temperatura mínima	19.7
101572	7	Sololá	704	Santa Lucía Utatlán 	7	Santa Rita 	6	Junio	2023-06-24T00:00:00	2024-11-08T19:00:00	5	Humedad	95
101573	7	Sololá	704	Santa Lucía Utatlán 	7	Santa Rita 	6	Junio	2023-06-24T00:00:00	2024-11-08T19:00:00	6	Velocidad del viento	4.8
101574	7	Sololá	704	Santa Lucía Utatlán 	7	Santa Rita 	6	Junio	2023-06-24T00:00:00	2024-11-08T19:00:00	7	Dirección del viento	4.83
101575	7	Sololá	704	Santa Lucía Utatlán 	7	Santa Rita 	6	Junio	2023-06-24T00:00:00	2024-11-08T19:00:00	1	Precipitación	2
101576	7	Sololá	704	Santa Lucía Utatlán 	7	Santa Rita 	6	Junio	2023-06-24T00:00:00	2024-11-08T19:00:00	8	Radiación solar	0
101577	7	Sololá	704	Santa Lucía Utatlán 	7	Santa Rita 	6	Junio	2023-06-24T00:00:00	2024-11-08T20:00:00	2	Temperatura media	19.6
101578	7	Sololá	704	Santa Lucía Utatlán 	7	Santa Rita 	6	Junio	2023-06-24T00:00:00	2024-11-08T20:00:00	4	Temperatura máxima	19.8
101579	7	Sololá	704	Santa Lucía Utatlán 	7	Santa Rita 	6	Junio	2023-06-24T00:00:00	2024-11-08T20:00:00	3	Temperatura mínima	19.6
101580	7	Sololá	704	Santa Lucía Utatlán 	7	Santa Rita 	6	Junio	2023-06-24T00:00:00	2024-11-08T20:00:00	5	Humedad	96
101581	7	Sololá	704	Santa Lucía Utatlán 	7	Santa Rita 	6	Junio	2023-06-24T00:00:00	2024-11-08T20:00:00	6	Velocidad del viento	1.6
101582	7	Sololá	704	Santa Lucía Utatlán 	7	Santa Rita 	6	Junio	2023-06-24T00:00:00	2024-11-08T20:00:00	7	Dirección del viento	1.61
101583	7	Sololá	704	Santa Lucía Utatlán 	7	Santa Rita 	6	Junio	2023-06-24T00:00:00	2024-11-08T20:00:00	1	Precipitación	2.8
101584	7	Sololá	704	Santa Lucía Utatlán 	7	Santa Rita 	6	Junio	2023-06-24T00:00:00	2024-11-08T20:00:00	8	Radiación solar	0
101585	7	Sololá	704	Santa Lucía Utatlán 	7	Santa Rita 	6	Junio	2023-06-24T00:00:00	2024-11-08T21:00:00	2	Temperatura media	19.4
101586	7	Sololá	704	Santa Lucía Utatlán 	7	Santa Rita 	6	Junio	2023-06-24T00:00:00	2024-11-08T21:00:00	4	Temperatura máxima	19.7
101587	7	Sololá	704	Santa Lucía Utatlán 	7	Santa Rita 	6	Junio	2023-06-24T00:00:00	2024-11-08T21:00:00	3	Temperatura mínima	19.4
101588	7	Sololá	704	Santa Lucía Utatlán 	7	Santa Rita 	6	Junio	2023-06-24T00:00:00	2024-11-08T21:00:00	5	Humedad	96
101589	7	Sololá	704	Santa Lucía Utatlán 	7	Santa Rita 	6	Junio	2023-06-24T00:00:00	2024-11-08T21:00:00	6	Velocidad del viento	1.6
101590	7	Sololá	704	Santa Lucía Utatlán 	7	Santa Rita 	6	Junio	2023-06-24T00:00:00	2024-11-08T21:00:00	7	Dirección del viento	1.61
101591	7	Sololá	704	Santa Lucía Utatlán 	7	Santa Rita 	6	Junio	2023-06-24T00:00:00	2024-11-08T21:00:00	1	Precipitación	0.2
101592	7	Sololá	704	Santa Lucía Utatlán 	7	Santa Rita 	6	Junio	2023-06-24T00:00:00	2024-11-08T21:00:00	8	Radiación solar	0
101593	7	Sololá	704	Santa Lucía Utatlán 	7	Santa Rita 	6	Junio	2023-06-24T00:00:00	2024-11-08T22:00:00	2	Temperatura media	19.3
101594	7	Sololá	704	Santa Lucía Utatlán 	7	Santa Rita 	6	Junio	2023-06-24T00:00:00	2024-11-08T22:00:00	4	Temperatura máxima	19.4
101595	7	Sololá	704	Santa Lucía Utatlán 	7	Santa Rita 	6	Junio	2023-06-24T00:00:00	2024-11-08T22:00:00	3	Temperatura mínima	19.2
101596	7	Sololá	704	Santa Lucía Utatlán 	7	Santa Rita 	6	Junio	2023-06-24T00:00:00	2024-11-08T22:00:00	5	Humedad	93
101597	7	Sololá	704	Santa Lucía Utatlán 	7	Santa Rita 	6	Junio	2023-06-24T00:00:00	2024-11-08T22:00:00	6	Velocidad del viento	1.6
101598	7	Sololá	704	Santa Lucía Utatlán 	7	Santa Rita 	6	Junio	2023-06-24T00:00:00	2024-11-08T22:00:00	7	Dirección del viento	1.61
101599	7	Sololá	704	Santa Lucía Utatlán 	7	Santa Rita 	6	Junio	2023-06-24T00:00:00	2024-11-08T22:00:00	1	Precipitación	0
101600	7	Sololá	704	Santa Lucía Utatlán 	7	Santa Rita 	6	Junio	2023-06-24T00:00:00	2024-11-08T22:00:00	8	Radiación solar	0
101601	7	Sololá	704	Santa Lucía Utatlán 	7	Santa Rita 	6	Junio	2023-06-24T00:00:00	2024-11-08T23:00:00	2	Temperatura media	19.2
101602	7	Sololá	704	Santa Lucía Utatlán 	7	Santa Rita 	6	Junio	2023-06-24T00:00:00	2024-11-08T23:00:00	4	Temperatura máxima	19.4
101603	7	Sololá	704	Santa Lucía Utatlán 	7	Santa Rita 	6	Junio	2023-06-24T00:00:00	2024-11-08T23:00:00	3	Temperatura mínima	19.2
101604	7	Sololá	704	Santa Lucía Utatlán 	7	Santa Rita 	6	Junio	2023-06-24T00:00:00	2024-11-08T23:00:00	5	Humedad	93
101605	7	Sololá	704	Santa Lucía Utatlán 	7	Santa Rita 	6	Junio	2023-06-24T00:00:00	2024-11-08T23:00:00	6	Velocidad del viento	3.2
101606	7	Sololá	704	Santa Lucía Utatlán 	7	Santa Rita 	6	Junio	2023-06-24T00:00:00	2024-11-08T23:00:00	7	Dirección del viento	3.22
101607	7	Sololá	704	Santa Lucía Utatlán 	7	Santa Rita 	6	Junio	2023-06-24T00:00:00	2024-11-08T23:00:00	1	Precipitación	0
101608	7	Sololá	704	Santa Lucía Utatlán 	7	Santa Rita 	6	Junio	2023-06-24T00:00:00	2024-11-08T23:00:00	8	Radiación solar	0
101609	7	Sololá	704	Santa Lucía Utatlán 	7	Santa Rita 	6	Junio	2023-06-25T00:00:00	2024-11-08T00:00:00	2	Temperatura media	18.6
101610	7	Sololá	704	Santa Lucía Utatlán 	7	Santa Rita 	6	Junio	2023-06-25T00:00:00	2024-11-08T00:00:00	4	Temperatura máxima	19.2
101611	7	Sololá	704	Santa Lucía Utatlán 	7	Santa Rita 	6	Junio	2023-06-25T00:00:00	2024-11-08T00:00:00	3	Temperatura mínima	18.6
101612	7	Sololá	704	Santa Lucía Utatlán 	7	Santa Rita 	6	Junio	2023-06-25T00:00:00	2024-11-08T00:00:00	5	Humedad	94
101613	7	Sololá	704	Santa Lucía Utatlán 	7	Santa Rita 	6	Junio	2023-06-25T00:00:00	2024-11-08T00:00:00	6	Velocidad del viento	1.6
101614	7	Sololá	704	Santa Lucía Utatlán 	7	Santa Rita 	6	Junio	2023-06-25T00:00:00	2024-11-08T00:00:00	7	Dirección del viento	1.61
101615	7	Sololá	704	Santa Lucía Utatlán 	7	Santa Rita 	6	Junio	2023-06-25T00:00:00	2024-11-08T00:00:00	1	Precipitación	0
101616	7	Sololá	704	Santa Lucía Utatlán 	7	Santa Rita 	6	Junio	2023-06-25T00:00:00	2024-11-08T00:00:00	8	Radiación solar	0
101617	7	Sololá	704	Santa Lucía Utatlán 	7	Santa Rita 	6	Junio	2023-06-25T00:00:00	2024-11-08T01:00:00	2	Temperatura media	18.7
101618	7	Sololá	704	Santa Lucía Utatlán 	7	Santa Rita 	6	Junio	2023-06-25T00:00:00	2024-11-08T01:00:00	4	Temperatura máxima	19.2
101619	7	Sololá	704	Santa Lucía Utatlán 	7	Santa Rita 	6	Junio	2023-06-25T00:00:00	2024-11-08T01:00:00	3	Temperatura mínima	18.6
101620	7	Sololá	704	Santa Lucía Utatlán 	7	Santa Rita 	6	Junio	2023-06-25T00:00:00	2024-11-08T01:00:00	5	Humedad	92
101621	7	Sololá	704	Santa Lucía Utatlán 	7	Santa Rita 	6	Junio	2023-06-25T00:00:00	2024-11-08T01:00:00	6	Velocidad del viento	3.2
101622	7	Sololá	704	Santa Lucía Utatlán 	7	Santa Rita 	6	Junio	2023-06-25T00:00:00	2024-11-08T01:00:00	7	Dirección del viento	3.22
101623	7	Sololá	704	Santa Lucía Utatlán 	7	Santa Rita 	6	Junio	2023-06-25T00:00:00	2024-11-08T01:00:00	1	Precipitación	0
101624	7	Sololá	704	Santa Lucía Utatlán 	7	Santa Rita 	6	Junio	2023-06-25T00:00:00	2024-11-08T01:00:00	8	Radiación solar	0
101625	7	Sololá	704	Santa Lucía Utatlán 	7	Santa Rita 	6	Junio	2023-06-25T00:00:00	2024-11-08T02:00:00	2	Temperatura media	18.2
101626	7	Sololá	704	Santa Lucía Utatlán 	7	Santa Rita 	6	Junio	2023-06-25T00:00:00	2024-11-08T02:00:00	4	Temperatura máxima	18.8
101627	7	Sololá	704	Santa Lucía Utatlán 	7	Santa Rita 	6	Junio	2023-06-25T00:00:00	2024-11-08T02:00:00	3	Temperatura mínima	18.1
101628	7	Sololá	704	Santa Lucía Utatlán 	7	Santa Rita 	6	Junio	2023-06-25T00:00:00	2024-11-08T02:00:00	5	Humedad	96
101629	7	Sololá	704	Santa Lucía Utatlán 	7	Santa Rita 	6	Junio	2023-06-25T00:00:00	2024-11-08T02:00:00	6	Velocidad del viento	0
101630	7	Sololá	704	Santa Lucía Utatlán 	7	Santa Rita 	6	Junio	2023-06-25T00:00:00	2024-11-08T02:00:00	7	Dirección del viento	0
101631	7	Sololá	704	Santa Lucía Utatlán 	7	Santa Rita 	6	Junio	2023-06-25T00:00:00	2024-11-08T02:00:00	1	Precipitación	0
101632	7	Sololá	704	Santa Lucía Utatlán 	7	Santa Rita 	6	Junio	2023-06-25T00:00:00	2024-11-08T02:00:00	8	Radiación solar	0
101633	7	Sololá	704	Santa Lucía Utatlán 	7	Santa Rita 	6	Junio	2023-06-25T00:00:00	2024-11-08T03:00:00	2	Temperatura media	17.3
101634	7	Sololá	704	Santa Lucía Utatlán 	7	Santa Rita 	6	Junio	2023-06-25T00:00:00	2024-11-08T03:00:00	4	Temperatura máxima	18.2
101635	7	Sololá	704	Santa Lucía Utatlán 	7	Santa Rita 	6	Junio	2023-06-25T00:00:00	2024-11-08T03:00:00	3	Temperatura mínima	17.3
101636	7	Sololá	704	Santa Lucía Utatlán 	7	Santa Rita 	6	Junio	2023-06-25T00:00:00	2024-11-08T03:00:00	5	Humedad	94
101637	7	Sololá	704	Santa Lucía Utatlán 	7	Santa Rita 	6	Junio	2023-06-25T00:00:00	2024-11-08T03:00:00	6	Velocidad del viento	3.2
101638	7	Sololá	704	Santa Lucía Utatlán 	7	Santa Rita 	6	Junio	2023-06-25T00:00:00	2024-11-08T03:00:00	7	Dirección del viento	3.22
101639	7	Sololá	704	Santa Lucía Utatlán 	7	Santa Rita 	6	Junio	2023-06-25T00:00:00	2024-11-08T03:00:00	1	Precipitación	1.4
101640	7	Sololá	704	Santa Lucía Utatlán 	7	Santa Rita 	6	Junio	2023-06-25T00:00:00	2024-11-08T03:00:00	8	Radiación solar	0
101641	7	Sololá	704	Santa Lucía Utatlán 	7	Santa Rita 	6	Junio	2023-06-25T00:00:00	2024-11-08T04:00:00	2	Temperatura media	17.2
101642	7	Sololá	704	Santa Lucía Utatlán 	7	Santa Rita 	6	Junio	2023-06-25T00:00:00	2024-11-08T04:00:00	4	Temperatura máxima	17.4
101643	7	Sololá	704	Santa Lucía Utatlán 	7	Santa Rita 	6	Junio	2023-06-25T00:00:00	2024-11-08T04:00:00	3	Temperatura mínima	17.2
101644	7	Sololá	704	Santa Lucía Utatlán 	7	Santa Rita 	6	Junio	2023-06-25T00:00:00	2024-11-08T04:00:00	5	Humedad	93
101645	7	Sololá	704	Santa Lucía Utatlán 	7	Santa Rita 	6	Junio	2023-06-25T00:00:00	2024-11-08T04:00:00	6	Velocidad del viento	3.2
101646	7	Sololá	704	Santa Lucía Utatlán 	7	Santa Rita 	6	Junio	2023-06-25T00:00:00	2024-11-08T04:00:00	7	Dirección del viento	3.22
101647	7	Sololá	704	Santa Lucía Utatlán 	7	Santa Rita 	6	Junio	2023-06-25T00:00:00	2024-11-08T04:00:00	1	Precipitación	0
101648	7	Sololá	704	Santa Lucía Utatlán 	7	Santa Rita 	6	Junio	2023-06-25T00:00:00	2024-11-08T04:00:00	8	Radiación solar	0
101649	7	Sololá	704	Santa Lucía Utatlán 	7	Santa Rita 	6	Junio	2023-06-25T00:00:00	2024-11-08T05:00:00	2	Temperatura media	17.4
101650	7	Sololá	704	Santa Lucía Utatlán 	7	Santa Rita 	6	Junio	2023-06-25T00:00:00	2024-11-08T05:00:00	4	Temperatura máxima	17.4
101651	7	Sololá	704	Santa Lucía Utatlán 	7	Santa Rita 	6	Junio	2023-06-25T00:00:00	2024-11-08T05:00:00	3	Temperatura mínima	16.8
101652	7	Sololá	704	Santa Lucía Utatlán 	7	Santa Rita 	6	Junio	2023-06-25T00:00:00	2024-11-08T05:00:00	5	Humedad	86
101653	7	Sololá	704	Santa Lucía Utatlán 	7	Santa Rita 	6	Junio	2023-06-25T00:00:00	2024-11-08T05:00:00	6	Velocidad del viento	4.8
101654	7	Sololá	704	Santa Lucía Utatlán 	7	Santa Rita 	6	Junio	2023-06-25T00:00:00	2024-11-08T05:00:00	7	Dirección del viento	4.83
101655	7	Sololá	704	Santa Lucía Utatlán 	7	Santa Rita 	6	Junio	2023-06-25T00:00:00	2024-11-08T05:00:00	1	Precipitación	0
101656	7	Sololá	704	Santa Lucía Utatlán 	7	Santa Rita 	6	Junio	2023-06-25T00:00:00	2024-11-08T05:00:00	8	Radiación solar	0
101657	7	Sololá	704	Santa Lucía Utatlán 	7	Santa Rita 	6	Junio	2023-06-25T00:00:00	2024-11-08T06:00:00	2	Temperatura media	16.5
101658	7	Sololá	704	Santa Lucía Utatlán 	7	Santa Rita 	6	Junio	2023-06-25T00:00:00	2024-11-08T06:00:00	4	Temperatura máxima	17.4
101659	7	Sololá	704	Santa Lucía Utatlán 	7	Santa Rita 	6	Junio	2023-06-25T00:00:00	2024-11-08T06:00:00	3	Temperatura mínima	16.4
101660	7	Sololá	704	Santa Lucía Utatlán 	7	Santa Rita 	6	Junio	2023-06-25T00:00:00	2024-11-08T06:00:00	5	Humedad	90
101661	7	Sololá	704	Santa Lucía Utatlán 	7	Santa Rita 	6	Junio	2023-06-25T00:00:00	2024-11-08T06:00:00	6	Velocidad del viento	4.8
101662	7	Sololá	704	Santa Lucía Utatlán 	7	Santa Rita 	6	Junio	2023-06-25T00:00:00	2024-11-08T06:00:00	7	Dirección del viento	4.83
101663	7	Sololá	704	Santa Lucía Utatlán 	7	Santa Rita 	6	Junio	2023-06-25T00:00:00	2024-11-08T06:00:00	1	Precipitación	0
101664	7	Sololá	704	Santa Lucía Utatlán 	7	Santa Rita 	6	Junio	2023-06-25T00:00:00	2024-11-08T06:00:00	8	Radiación solar	4
101665	7	Sololá	704	Santa Lucía Utatlán 	7	Santa Rita 	6	Junio	2023-06-25T00:00:00	2024-11-08T07:00:00	2	Temperatura media	17.9
101666	7	Sololá	704	Santa Lucía Utatlán 	7	Santa Rita 	6	Junio	2023-06-25T00:00:00	2024-11-08T07:00:00	4	Temperatura máxima	17.9
101667	7	Sololá	704	Santa Lucía Utatlán 	7	Santa Rita 	6	Junio	2023-06-25T00:00:00	2024-11-08T07:00:00	3	Temperatura mínima	16.5
101668	7	Sololá	704	Santa Lucía Utatlán 	7	Santa Rita 	6	Junio	2023-06-25T00:00:00	2024-11-08T07:00:00	5	Humedad	91
101669	7	Sololá	704	Santa Lucía Utatlán 	7	Santa Rita 	6	Junio	2023-06-25T00:00:00	2024-11-08T07:00:00	6	Velocidad del viento	3.2
101670	7	Sololá	704	Santa Lucía Utatlán 	7	Santa Rita 	6	Junio	2023-06-25T00:00:00	2024-11-08T07:00:00	7	Dirección del viento	3.22
101671	7	Sololá	704	Santa Lucía Utatlán 	7	Santa Rita 	6	Junio	2023-06-25T00:00:00	2024-11-08T07:00:00	1	Precipitación	0
101672	7	Sololá	704	Santa Lucía Utatlán 	7	Santa Rita 	6	Junio	2023-06-25T00:00:00	2024-11-08T07:00:00	8	Radiación solar	89
101673	7	Sololá	704	Santa Lucía Utatlán 	7	Santa Rita 	6	Junio	2023-06-25T00:00:00	2024-11-08T08:00:00	2	Temperatura media	20.7
101674	7	Sololá	704	Santa Lucía Utatlán 	7	Santa Rita 	6	Junio	2023-06-25T00:00:00	2024-11-08T08:00:00	4	Temperatura máxima	20.7
101675	7	Sololá	704	Santa Lucía Utatlán 	7	Santa Rita 	6	Junio	2023-06-25T00:00:00	2024-11-08T08:00:00	3	Temperatura mínima	17.9
101676	7	Sololá	704	Santa Lucía Utatlán 	7	Santa Rita 	6	Junio	2023-06-25T00:00:00	2024-11-08T08:00:00	5	Humedad	80
101677	7	Sololá	704	Santa Lucía Utatlán 	7	Santa Rita 	6	Junio	2023-06-25T00:00:00	2024-11-08T08:00:00	6	Velocidad del viento	1.6
101678	7	Sololá	704	Santa Lucía Utatlán 	7	Santa Rita 	6	Junio	2023-06-25T00:00:00	2024-11-08T08:00:00	7	Dirección del viento	1.61
101679	7	Sololá	704	Santa Lucía Utatlán 	7	Santa Rita 	6	Junio	2023-06-25T00:00:00	2024-11-08T08:00:00	1	Precipitación	0
101680	7	Sololá	704	Santa Lucía Utatlán 	7	Santa Rita 	6	Junio	2023-06-25T00:00:00	2024-11-08T08:00:00	8	Radiación solar	277
101681	7	Sololá	704	Santa Lucía Utatlán 	7	Santa Rita 	6	Junio	2023-06-25T00:00:00	2024-11-08T09:00:00	2	Temperatura media	22.2
101682	7	Sololá	704	Santa Lucía Utatlán 	7	Santa Rita 	6	Junio	2023-06-25T00:00:00	2024-11-08T09:00:00	4	Temperatura máxima	22.4
101683	7	Sololá	704	Santa Lucía Utatlán 	7	Santa Rita 	6	Junio	2023-06-25T00:00:00	2024-11-08T09:00:00	3	Temperatura mínima	20.7
101684	7	Sololá	704	Santa Lucía Utatlán 	7	Santa Rita 	6	Junio	2023-06-25T00:00:00	2024-11-08T09:00:00	5	Humedad	66
101685	7	Sololá	704	Santa Lucía Utatlán 	7	Santa Rita 	6	Junio	2023-06-25T00:00:00	2024-11-08T09:00:00	6	Velocidad del viento	3.2
101686	7	Sololá	704	Santa Lucía Utatlán 	7	Santa Rita 	6	Junio	2023-06-25T00:00:00	2024-11-08T09:00:00	7	Dirección del viento	3.22
101687	7	Sololá	704	Santa Lucía Utatlán 	7	Santa Rita 	6	Junio	2023-06-25T00:00:00	2024-11-08T09:00:00	1	Precipitación	0
101688	7	Sololá	704	Santa Lucía Utatlán 	7	Santa Rita 	6	Junio	2023-06-25T00:00:00	2024-11-08T09:00:00	8	Radiación solar	458
101689	7	Sololá	704	Santa Lucía Utatlán 	7	Santa Rita 	6	Junio	2023-06-25T00:00:00	2024-11-08T10:00:00	2	Temperatura media	23.3
101690	7	Sololá	704	Santa Lucía Utatlán 	7	Santa Rita 	6	Junio	2023-06-25T00:00:00	2024-11-08T10:00:00	4	Temperatura máxima	23.3
101691	7	Sololá	704	Santa Lucía Utatlán 	7	Santa Rita 	6	Junio	2023-06-25T00:00:00	2024-11-08T10:00:00	3	Temperatura mínima	22.2
101692	7	Sololá	704	Santa Lucía Utatlán 	7	Santa Rita 	6	Junio	2023-06-25T00:00:00	2024-11-08T10:00:00	5	Humedad	54
101693	7	Sololá	704	Santa Lucía Utatlán 	7	Santa Rita 	6	Junio	2023-06-25T00:00:00	2024-11-08T10:00:00	6	Velocidad del viento	6.4
101694	7	Sololá	704	Santa Lucía Utatlán 	7	Santa Rita 	6	Junio	2023-06-25T00:00:00	2024-11-08T10:00:00	7	Dirección del viento	6.44
101695	7	Sololá	704	Santa Lucía Utatlán 	7	Santa Rita 	6	Junio	2023-06-25T00:00:00	2024-11-08T10:00:00	1	Precipitación	0
101696	7	Sololá	704	Santa Lucía Utatlán 	7	Santa Rita 	6	Junio	2023-06-25T00:00:00	2024-11-08T10:00:00	8	Radiación solar	583
101697	7	Sololá	704	Santa Lucía Utatlán 	7	Santa Rita 	6	Junio	2023-06-25T00:00:00	2024-11-08T11:00:00	2	Temperatura media	23.6
101698	7	Sololá	704	Santa Lucía Utatlán 	7	Santa Rita 	6	Junio	2023-06-25T00:00:00	2024-11-08T11:00:00	4	Temperatura máxima	23.6
101699	7	Sololá	704	Santa Lucía Utatlán 	7	Santa Rita 	6	Junio	2023-06-25T00:00:00	2024-11-08T11:00:00	3	Temperatura mínima	23.1
101700	7	Sololá	704	Santa Lucía Utatlán 	7	Santa Rita 	6	Junio	2023-06-25T00:00:00	2024-11-08T11:00:00	5	Humedad	55
101701	7	Sololá	704	Santa Lucía Utatlán 	7	Santa Rita 	6	Junio	2023-06-25T00:00:00	2024-11-08T11:00:00	6	Velocidad del viento	8
101702	7	Sololá	704	Santa Lucía Utatlán 	7	Santa Rita 	6	Junio	2023-06-25T00:00:00	2024-11-08T11:00:00	7	Dirección del viento	8.05
101703	7	Sololá	704	Santa Lucía Utatlán 	7	Santa Rita 	6	Junio	2023-06-25T00:00:00	2024-11-08T11:00:00	1	Precipitación	0
101704	7	Sololá	704	Santa Lucía Utatlán 	7	Santa Rita 	6	Junio	2023-06-25T00:00:00	2024-11-08T11:00:00	8	Radiación solar	729
101705	7	Sololá	704	Santa Lucía Utatlán 	7	Santa Rita 	6	Junio	2023-06-25T00:00:00	2024-11-08T12:00:00	2	Temperatura media	24.5
101706	7	Sololá	704	Santa Lucía Utatlán 	7	Santa Rita 	6	Junio	2023-06-25T00:00:00	2024-11-08T12:00:00	4	Temperatura máxima	24.6
101707	7	Sololá	704	Santa Lucía Utatlán 	7	Santa Rita 	6	Junio	2023-06-25T00:00:00	2024-11-08T12:00:00	3	Temperatura mínima	23.4
101708	7	Sololá	704	Santa Lucía Utatlán 	7	Santa Rita 	6	Junio	2023-06-25T00:00:00	2024-11-08T12:00:00	5	Humedad	57
101709	7	Sololá	704	Santa Lucía Utatlán 	7	Santa Rita 	6	Junio	2023-06-25T00:00:00	2024-11-08T12:00:00	6	Velocidad del viento	11.3
101710	7	Sololá	704	Santa Lucía Utatlán 	7	Santa Rita 	6	Junio	2023-06-25T00:00:00	2024-11-08T12:00:00	7	Dirección del viento	11.27
101711	7	Sololá	704	Santa Lucía Utatlán 	7	Santa Rita 	6	Junio	2023-06-25T00:00:00	2024-11-08T12:00:00	1	Precipitación	0
101712	7	Sololá	704	Santa Lucía Utatlán 	7	Santa Rita 	6	Junio	2023-06-25T00:00:00	2024-11-08T12:00:00	8	Radiación solar	1027
101713	7	Sololá	704	Santa Lucía Utatlán 	7	Santa Rita 	6	Junio	2023-06-25T00:00:00	2024-11-08T13:00:00	2	Temperatura media	24.7
101714	7	Sololá	704	Santa Lucía Utatlán 	7	Santa Rita 	6	Junio	2023-06-25T00:00:00	2024-11-08T13:00:00	4	Temperatura máxima	24.8
101715	7	Sololá	704	Santa Lucía Utatlán 	7	Santa Rita 	6	Junio	2023-06-25T00:00:00	2024-11-08T13:00:00	3	Temperatura mínima	24.2
101716	7	Sololá	704	Santa Lucía Utatlán 	7	Santa Rita 	6	Junio	2023-06-25T00:00:00	2024-11-08T13:00:00	5	Humedad	49
101717	7	Sololá	704	Santa Lucía Utatlán 	7	Santa Rita 	6	Junio	2023-06-25T00:00:00	2024-11-08T13:00:00	6	Velocidad del viento	11.3
101718	7	Sololá	704	Santa Lucía Utatlán 	7	Santa Rita 	6	Junio	2023-06-25T00:00:00	2024-11-08T13:00:00	7	Dirección del viento	11.27
101719	7	Sololá	704	Santa Lucía Utatlán 	7	Santa Rita 	6	Junio	2023-06-25T00:00:00	2024-11-08T13:00:00	1	Precipitación	0
101720	7	Sololá	704	Santa Lucía Utatlán 	7	Santa Rita 	6	Junio	2023-06-25T00:00:00	2024-11-08T13:00:00	8	Radiación solar	1023
101721	7	Sololá	704	Santa Lucía Utatlán 	7	Santa Rita 	6	Junio	2023-06-25T00:00:00	2024-11-08T14:00:00	2	Temperatura media	25.1
101722	7	Sololá	704	Santa Lucía Utatlán 	7	Santa Rita 	6	Junio	2023-06-25T00:00:00	2024-11-08T14:00:00	4	Temperatura máxima	25.2
101723	7	Sololá	704	Santa Lucía Utatlán 	7	Santa Rita 	6	Junio	2023-06-25T00:00:00	2024-11-08T14:00:00	3	Temperatura mínima	24.6
101724	7	Sololá	704	Santa Lucía Utatlán 	7	Santa Rita 	6	Junio	2023-06-25T00:00:00	2024-11-08T14:00:00	5	Humedad	49
101725	7	Sololá	704	Santa Lucía Utatlán 	7	Santa Rita 	6	Junio	2023-06-25T00:00:00	2024-11-08T14:00:00	6	Velocidad del viento	12.9
101726	7	Sololá	704	Santa Lucía Utatlán 	7	Santa Rita 	6	Junio	2023-06-25T00:00:00	2024-11-08T14:00:00	7	Dirección del viento	12.87
101727	7	Sololá	704	Santa Lucía Utatlán 	7	Santa Rita 	6	Junio	2023-06-25T00:00:00	2024-11-08T14:00:00	1	Precipitación	0
101728	7	Sololá	704	Santa Lucía Utatlán 	7	Santa Rita 	6	Junio	2023-06-25T00:00:00	2024-11-08T14:00:00	8	Radiación solar	1001
101729	7	Sololá	704	Santa Lucía Utatlán 	7	Santa Rita 	6	Junio	2023-06-25T00:00:00	2024-11-08T15:00:00	2	Temperatura media	24.2
101730	7	Sololá	704	Santa Lucía Utatlán 	7	Santa Rita 	6	Junio	2023-06-25T00:00:00	2024-11-08T15:00:00	4	Temperatura máxima	25.2
101731	7	Sololá	704	Santa Lucía Utatlán 	7	Santa Rita 	6	Junio	2023-06-25T00:00:00	2024-11-08T15:00:00	3	Temperatura mínima	23.6
101732	7	Sololá	704	Santa Lucía Utatlán 	7	Santa Rita 	6	Junio	2023-06-25T00:00:00	2024-11-08T15:00:00	5	Humedad	52
101733	7	Sololá	704	Santa Lucía Utatlán 	7	Santa Rita 	6	Junio	2023-06-25T00:00:00	2024-11-08T15:00:00	6	Velocidad del viento	9.7
101734	7	Sololá	704	Santa Lucía Utatlán 	7	Santa Rita 	6	Junio	2023-06-25T00:00:00	2024-11-08T15:00:00	7	Dirección del viento	9.66
101735	7	Sololá	704	Santa Lucía Utatlán 	7	Santa Rita 	6	Junio	2023-06-25T00:00:00	2024-11-08T15:00:00	1	Precipitación	0
101736	7	Sololá	704	Santa Lucía Utatlán 	7	Santa Rita 	6	Junio	2023-06-25T00:00:00	2024-11-08T15:00:00	8	Radiación solar	686
101737	7	Sololá	704	Santa Lucía Utatlán 	7	Santa Rita 	6	Junio	2023-06-25T00:00:00	2024-11-08T16:00:00	2	Temperatura media	23.9
101738	7	Sololá	704	Santa Lucía Utatlán 	7	Santa Rita 	6	Junio	2023-06-25T00:00:00	2024-11-08T16:00:00	4	Temperatura máxima	25.2
101739	7	Sololá	704	Santa Lucía Utatlán 	7	Santa Rita 	6	Junio	2023-06-25T00:00:00	2024-11-08T16:00:00	3	Temperatura mínima	23.9
101740	7	Sololá	704	Santa Lucía Utatlán 	7	Santa Rita 	6	Junio	2023-06-25T00:00:00	2024-11-08T16:00:00	5	Humedad	54
101741	7	Sololá	704	Santa Lucía Utatlán 	7	Santa Rita 	6	Junio	2023-06-25T00:00:00	2024-11-08T16:00:00	6	Velocidad del viento	9.7
101742	7	Sololá	704	Santa Lucía Utatlán 	7	Santa Rita 	6	Junio	2023-06-25T00:00:00	2024-11-08T16:00:00	7	Dirección del viento	9.66
101743	7	Sololá	704	Santa Lucía Utatlán 	7	Santa Rita 	6	Junio	2023-06-25T00:00:00	2024-11-08T16:00:00	1	Precipitación	0
101744	7	Sololá	704	Santa Lucía Utatlán 	7	Santa Rita 	6	Junio	2023-06-25T00:00:00	2024-11-08T16:00:00	8	Radiación solar	503
101745	7	Sololá	704	Santa Lucía Utatlán 	7	Santa Rita 	6	Junio	2023-06-25T00:00:00	2024-11-08T17:00:00	2	Temperatura media	23.3
101746	7	Sololá	704	Santa Lucía Utatlán 	7	Santa Rita 	6	Junio	2023-06-25T00:00:00	2024-11-08T17:00:00	4	Temperatura máxima	24.3
101747	7	Sololá	704	Santa Lucía Utatlán 	7	Santa Rita 	6	Junio	2023-06-25T00:00:00	2024-11-08T17:00:00	3	Temperatura mínima	23.3
101748	7	Sololá	704	Santa Lucía Utatlán 	7	Santa Rita 	6	Junio	2023-06-25T00:00:00	2024-11-08T17:00:00	5	Humedad	63
101749	7	Sololá	704	Santa Lucía Utatlán 	7	Santa Rita 	6	Junio	2023-06-25T00:00:00	2024-11-08T17:00:00	6	Velocidad del viento	9.7
101750	7	Sololá	704	Santa Lucía Utatlán 	7	Santa Rita 	6	Junio	2023-06-25T00:00:00	2024-11-08T17:00:00	7	Dirección del viento	9.66
101751	7	Sololá	704	Santa Lucía Utatlán 	7	Santa Rita 	6	Junio	2023-06-25T00:00:00	2024-11-08T17:00:00	1	Precipitación	0
101752	7	Sololá	704	Santa Lucía Utatlán 	7	Santa Rita 	6	Junio	2023-06-25T00:00:00	2024-11-08T17:00:00	8	Radiación solar	291
101753	7	Sololá	704	Santa Lucía Utatlán 	7	Santa Rita 	6	Junio	2023-06-25T00:00:00	2024-11-08T18:00:00	2	Temperatura media	21.9
101754	7	Sololá	704	Santa Lucía Utatlán 	7	Santa Rita 	6	Junio	2023-06-25T00:00:00	2024-11-08T18:00:00	4	Temperatura máxima	23.4
101755	7	Sololá	704	Santa Lucía Utatlán 	7	Santa Rita 	6	Junio	2023-06-25T00:00:00	2024-11-08T18:00:00	3	Temperatura mínima	21.9
101756	7	Sololá	704	Santa Lucía Utatlán 	7	Santa Rita 	6	Junio	2023-06-25T00:00:00	2024-11-08T18:00:00	5	Humedad	70
101757	7	Sololá	704	Santa Lucía Utatlán 	7	Santa Rita 	6	Junio	2023-06-25T00:00:00	2024-11-08T18:00:00	6	Velocidad del viento	6.4
101758	7	Sololá	704	Santa Lucía Utatlán 	7	Santa Rita 	6	Junio	2023-06-25T00:00:00	2024-11-08T18:00:00	7	Dirección del viento	6.44
101759	7	Sololá	704	Santa Lucía Utatlán 	7	Santa Rita 	6	Junio	2023-06-25T00:00:00	2024-11-08T18:00:00	1	Precipitación	0
101760	7	Sololá	704	Santa Lucía Utatlán 	7	Santa Rita 	6	Junio	2023-06-25T00:00:00	2024-11-08T18:00:00	8	Radiación solar	83
101761	7	Sololá	704	Santa Lucía Utatlán 	7	Santa Rita 	6	Junio	2023-06-25T00:00:00	2024-11-08T19:00:00	2	Temperatura media	20.6
101762	7	Sololá	704	Santa Lucía Utatlán 	7	Santa Rita 	6	Junio	2023-06-25T00:00:00	2024-11-08T19:00:00	4	Temperatura máxima	21.9
101763	7	Sololá	704	Santa Lucía Utatlán 	7	Santa Rita 	6	Junio	2023-06-25T00:00:00	2024-11-08T19:00:00	3	Temperatura mínima	20.5
101764	7	Sololá	704	Santa Lucía Utatlán 	7	Santa Rita 	6	Junio	2023-06-25T00:00:00	2024-11-08T19:00:00	5	Humedad	76
101765	7	Sololá	704	Santa Lucía Utatlán 	7	Santa Rita 	6	Junio	2023-06-25T00:00:00	2024-11-08T19:00:00	6	Velocidad del viento	4.8
101766	7	Sololá	704	Santa Lucía Utatlán 	7	Santa Rita 	6	Junio	2023-06-25T00:00:00	2024-11-08T19:00:00	7	Dirección del viento	4.83
101767	7	Sololá	704	Santa Lucía Utatlán 	7	Santa Rita 	6	Junio	2023-06-25T00:00:00	2024-11-08T19:00:00	1	Precipitación	0
101768	7	Sololá	704	Santa Lucía Utatlán 	7	Santa Rita 	6	Junio	2023-06-25T00:00:00	2024-11-08T19:00:00	8	Radiación solar	0
101769	7	Sololá	704	Santa Lucía Utatlán 	7	Santa Rita 	6	Junio	2023-06-25T00:00:00	2024-11-08T20:00:00	2	Temperatura media	20.6
101770	7	Sololá	704	Santa Lucía Utatlán 	7	Santa Rita 	6	Junio	2023-06-25T00:00:00	2024-11-08T20:00:00	4	Temperatura máxima	20.9
101771	7	Sololá	704	Santa Lucía Utatlán 	7	Santa Rita 	6	Junio	2023-06-25T00:00:00	2024-11-08T20:00:00	3	Temperatura mínima	20.4
101772	7	Sololá	704	Santa Lucía Utatlán 	7	Santa Rita 	6	Junio	2023-06-25T00:00:00	2024-11-08T20:00:00	5	Humedad	71
101773	7	Sololá	704	Santa Lucía Utatlán 	7	Santa Rita 	6	Junio	2023-06-25T00:00:00	2024-11-08T20:00:00	6	Velocidad del viento	4.8
101774	7	Sololá	704	Santa Lucía Utatlán 	7	Santa Rita 	6	Junio	2023-06-25T00:00:00	2024-11-08T20:00:00	7	Dirección del viento	4.83
101775	7	Sololá	704	Santa Lucía Utatlán 	7	Santa Rita 	6	Junio	2023-06-25T00:00:00	2024-11-08T20:00:00	1	Precipitación	0
101776	7	Sololá	704	Santa Lucía Utatlán 	7	Santa Rita 	6	Junio	2023-06-25T00:00:00	2024-11-08T20:00:00	8	Radiación solar	0
101777	7	Sololá	704	Santa Lucía Utatlán 	7	Santa Rita 	6	Junio	2023-06-25T00:00:00	2024-11-08T21:00:00	2	Temperatura media	19.8
101778	7	Sololá	704	Santa Lucía Utatlán 	7	Santa Rita 	6	Junio	2023-06-25T00:00:00	2024-11-08T21:00:00	4	Temperatura máxima	20.6
101779	7	Sololá	704	Santa Lucía Utatlán 	7	Santa Rita 	6	Junio	2023-06-25T00:00:00	2024-11-08T21:00:00	3	Temperatura mínima	19.8
101780	7	Sololá	704	Santa Lucía Utatlán 	7	Santa Rita 	6	Junio	2023-06-25T00:00:00	2024-11-08T21:00:00	5	Humedad	69
101781	7	Sololá	704	Santa Lucía Utatlán 	7	Santa Rita 	6	Junio	2023-06-25T00:00:00	2024-11-08T21:00:00	6	Velocidad del viento	6.4
101782	7	Sololá	704	Santa Lucía Utatlán 	7	Santa Rita 	6	Junio	2023-06-25T00:00:00	2024-11-08T21:00:00	7	Dirección del viento	6.44
101783	7	Sololá	704	Santa Lucía Utatlán 	7	Santa Rita 	6	Junio	2023-06-25T00:00:00	2024-11-08T21:00:00	1	Precipitación	0
101784	7	Sololá	704	Santa Lucía Utatlán 	7	Santa Rita 	6	Junio	2023-06-25T00:00:00	2024-11-08T21:00:00	8	Radiación solar	0
101785	7	Sololá	704	Santa Lucía Utatlán 	7	Santa Rita 	6	Junio	2023-06-25T00:00:00	2024-11-08T22:00:00	2	Temperatura media	18.1
101786	7	Sololá	704	Santa Lucía Utatlán 	7	Santa Rita 	6	Junio	2023-06-25T00:00:00	2024-11-08T22:00:00	4	Temperatura máxima	19.8
101787	7	Sololá	704	Santa Lucía Utatlán 	7	Santa Rita 	6	Junio	2023-06-25T00:00:00	2024-11-08T22:00:00	3	Temperatura mínima	18.1
101788	7	Sololá	704	Santa Lucía Utatlán 	7	Santa Rita 	6	Junio	2023-06-25T00:00:00	2024-11-08T22:00:00	5	Humedad	74
101789	7	Sololá	704	Santa Lucía Utatlán 	7	Santa Rita 	6	Junio	2023-06-25T00:00:00	2024-11-08T22:00:00	6	Velocidad del viento	4.8
101790	7	Sololá	704	Santa Lucía Utatlán 	7	Santa Rita 	6	Junio	2023-06-25T00:00:00	2024-11-08T22:00:00	7	Dirección del viento	4.83
101791	7	Sololá	704	Santa Lucía Utatlán 	7	Santa Rita 	6	Junio	2023-06-25T00:00:00	2024-11-08T22:00:00	1	Precipitación	0
101792	7	Sololá	704	Santa Lucía Utatlán 	7	Santa Rita 	6	Junio	2023-06-25T00:00:00	2024-11-08T22:00:00	8	Radiación solar	0
101793	7	Sololá	704	Santa Lucía Utatlán 	7	Santa Rita 	6	Junio	2023-06-25T00:00:00	2024-11-08T23:00:00	2	Temperatura media	17.3
101794	7	Sololá	704	Santa Lucía Utatlán 	7	Santa Rita 	6	Junio	2023-06-25T00:00:00	2024-11-08T23:00:00	4	Temperatura máxima	18.9
101795	7	Sololá	704	Santa Lucía Utatlán 	7	Santa Rita 	6	Junio	2023-06-25T00:00:00	2024-11-08T23:00:00	3	Temperatura mínima	17.1
101796	7	Sololá	704	Santa Lucía Utatlán 	7	Santa Rita 	6	Junio	2023-06-25T00:00:00	2024-11-08T23:00:00	5	Humedad	78
101797	7	Sololá	704	Santa Lucía Utatlán 	7	Santa Rita 	6	Junio	2023-06-25T00:00:00	2024-11-08T23:00:00	6	Velocidad del viento	3.2
101798	7	Sololá	704	Santa Lucía Utatlán 	7	Santa Rita 	6	Junio	2023-06-25T00:00:00	2024-11-08T23:00:00	7	Dirección del viento	3.22
101799	7	Sololá	704	Santa Lucía Utatlán 	7	Santa Rita 	6	Junio	2023-06-25T00:00:00	2024-11-08T23:00:00	1	Precipitación	0
101800	7	Sololá	704	Santa Lucía Utatlán 	7	Santa Rita 	6	Junio	2023-06-25T00:00:00	2024-11-08T23:00:00	8	Radiación solar	0
101801	7	Sololá	704	Santa Lucía Utatlán 	7	Santa Rita 	6	Junio	2023-06-26T00:00:00	2024-11-08T00:00:00	2	Temperatura media	19.1
101802	7	Sololá	704	Santa Lucía Utatlán 	7	Santa Rita 	6	Junio	2023-06-26T00:00:00	2024-11-08T00:00:00	4	Temperatura máxima	19.7
101803	7	Sololá	704	Santa Lucía Utatlán 	7	Santa Rita 	6	Junio	2023-06-26T00:00:00	2024-11-08T00:00:00	3	Temperatura mínima	17.3
101804	7	Sololá	704	Santa Lucía Utatlán 	7	Santa Rita 	6	Junio	2023-06-26T00:00:00	2024-11-08T00:00:00	5	Humedad	73
101805	7	Sololá	704	Santa Lucía Utatlán 	7	Santa Rita 	6	Junio	2023-06-26T00:00:00	2024-11-08T00:00:00	6	Velocidad del viento	4.8
101806	7	Sololá	704	Santa Lucía Utatlán 	7	Santa Rita 	6	Junio	2023-06-26T00:00:00	2024-11-08T00:00:00	7	Dirección del viento	4.83
101807	7	Sololá	704	Santa Lucía Utatlán 	7	Santa Rita 	6	Junio	2023-06-26T00:00:00	2024-11-08T00:00:00	1	Precipitación	0
101808	7	Sololá	704	Santa Lucía Utatlán 	7	Santa Rita 	6	Junio	2023-06-26T00:00:00	2024-11-08T00:00:00	8	Radiación solar	0
101809	7	Sololá	704	Santa Lucía Utatlán 	7	Santa Rita 	6	Junio	2023-06-26T00:00:00	2024-11-08T01:00:00	2	Temperatura media	18.7
101810	7	Sololá	704	Santa Lucía Utatlán 	7	Santa Rita 	6	Junio	2023-06-26T00:00:00	2024-11-08T01:00:00	4	Temperatura máxima	19.4
101811	7	Sololá	704	Santa Lucía Utatlán 	7	Santa Rita 	6	Junio	2023-06-26T00:00:00	2024-11-08T01:00:00	3	Temperatura mínima	18.7
101812	7	Sololá	704	Santa Lucía Utatlán 	7	Santa Rita 	6	Junio	2023-06-26T00:00:00	2024-11-08T01:00:00	5	Humedad	74
101813	7	Sololá	704	Santa Lucía Utatlán 	7	Santa Rita 	6	Junio	2023-06-26T00:00:00	2024-11-08T01:00:00	6	Velocidad del viento	4.8
101814	7	Sololá	704	Santa Lucía Utatlán 	7	Santa Rita 	6	Junio	2023-06-26T00:00:00	2024-11-08T01:00:00	7	Dirección del viento	4.83
101815	7	Sololá	704	Santa Lucía Utatlán 	7	Santa Rita 	6	Junio	2023-06-26T00:00:00	2024-11-08T01:00:00	1	Precipitación	0
101816	7	Sololá	704	Santa Lucía Utatlán 	7	Santa Rita 	6	Junio	2023-06-26T00:00:00	2024-11-08T01:00:00	8	Radiación solar	0
101817	7	Sololá	704	Santa Lucía Utatlán 	7	Santa Rita 	6	Junio	2023-06-26T00:00:00	2024-11-08T02:00:00	2	Temperatura media	17.6
101818	7	Sololá	704	Santa Lucía Utatlán 	7	Santa Rita 	6	Junio	2023-06-26T00:00:00	2024-11-08T02:00:00	4	Temperatura máxima	18.7
101819	7	Sololá	704	Santa Lucía Utatlán 	7	Santa Rita 	6	Junio	2023-06-26T00:00:00	2024-11-08T02:00:00	3	Temperatura mínima	16.6
101820	7	Sololá	704	Santa Lucía Utatlán 	7	Santa Rita 	6	Junio	2023-06-26T00:00:00	2024-11-08T02:00:00	5	Humedad	80
101821	7	Sololá	704	Santa Lucía Utatlán 	7	Santa Rita 	6	Junio	2023-06-26T00:00:00	2024-11-08T02:00:00	6	Velocidad del viento	3.2
101822	7	Sololá	704	Santa Lucía Utatlán 	7	Santa Rita 	6	Junio	2023-06-26T00:00:00	2024-11-08T02:00:00	7	Dirección del viento	3.22
101823	7	Sololá	704	Santa Lucía Utatlán 	7	Santa Rita 	6	Junio	2023-06-26T00:00:00	2024-11-08T02:00:00	1	Precipitación	0
101824	7	Sololá	704	Santa Lucía Utatlán 	7	Santa Rita 	6	Junio	2023-06-26T00:00:00	2024-11-08T02:00:00	8	Radiación solar	0
101825	7	Sololá	704	Santa Lucía Utatlán 	7	Santa Rita 	6	Junio	2023-06-26T00:00:00	2024-11-08T03:00:00	2	Temperatura media	18.3
101826	7	Sololá	704	Santa Lucía Utatlán 	7	Santa Rita 	6	Junio	2023-06-26T00:00:00	2024-11-08T03:00:00	4	Temperatura máxima	18.7
101827	7	Sololá	704	Santa Lucía Utatlán 	7	Santa Rita 	6	Junio	2023-06-26T00:00:00	2024-11-08T03:00:00	3	Temperatura mínima	16.8
101828	7	Sololá	704	Santa Lucía Utatlán 	7	Santa Rita 	6	Junio	2023-06-26T00:00:00	2024-11-08T03:00:00	5	Humedad	74
101829	7	Sololá	704	Santa Lucía Utatlán 	7	Santa Rita 	6	Junio	2023-06-26T00:00:00	2024-11-08T03:00:00	6	Velocidad del viento	3.2
101830	7	Sololá	704	Santa Lucía Utatlán 	7	Santa Rita 	6	Junio	2023-06-26T00:00:00	2024-11-08T03:00:00	7	Dirección del viento	3.22
101831	7	Sololá	704	Santa Lucía Utatlán 	7	Santa Rita 	6	Junio	2023-06-26T00:00:00	2024-11-08T03:00:00	1	Precipitación	0
101832	7	Sololá	704	Santa Lucía Utatlán 	7	Santa Rita 	6	Junio	2023-06-26T00:00:00	2024-11-08T03:00:00	8	Radiación solar	0
101833	7	Sololá	704	Santa Lucía Utatlán 	7	Santa Rita 	6	Junio	2023-06-26T00:00:00	2024-11-08T04:00:00	2	Temperatura media	16.9
101834	7	Sololá	704	Santa Lucía Utatlán 	7	Santa Rita 	6	Junio	2023-06-26T00:00:00	2024-11-08T04:00:00	4	Temperatura máxima	18.6
101835	7	Sololá	704	Santa Lucía Utatlán 	7	Santa Rita 	6	Junio	2023-06-26T00:00:00	2024-11-08T04:00:00	3	Temperatura mínima	16.4
101836	7	Sololá	704	Santa Lucía Utatlán 	7	Santa Rita 	6	Junio	2023-06-26T00:00:00	2024-11-08T04:00:00	5	Humedad	80
101837	7	Sololá	704	Santa Lucía Utatlán 	7	Santa Rita 	6	Junio	2023-06-26T00:00:00	2024-11-08T04:00:00	6	Velocidad del viento	3.2
101838	7	Sololá	704	Santa Lucía Utatlán 	7	Santa Rita 	6	Junio	2023-06-26T00:00:00	2024-11-08T04:00:00	7	Dirección del viento	3.22
101839	7	Sololá	704	Santa Lucía Utatlán 	7	Santa Rita 	6	Junio	2023-06-26T00:00:00	2024-11-08T04:00:00	1	Precipitación	0
101840	7	Sololá	704	Santa Lucía Utatlán 	7	Santa Rita 	6	Junio	2023-06-26T00:00:00	2024-11-08T04:00:00	8	Radiación solar	0
101841	7	Sololá	704	Santa Lucía Utatlán 	7	Santa Rita 	6	Junio	2023-06-26T00:00:00	2024-11-08T05:00:00	2	Temperatura media	16
101842	7	Sololá	704	Santa Lucía Utatlán 	7	Santa Rita 	6	Junio	2023-06-26T00:00:00	2024-11-08T05:00:00	4	Temperatura máxima	17.1
101843	7	Sololá	704	Santa Lucía Utatlán 	7	Santa Rita 	6	Junio	2023-06-26T00:00:00	2024-11-08T05:00:00	3	Temperatura mínima	15.7
101844	7	Sololá	704	Santa Lucía Utatlán 	7	Santa Rita 	6	Junio	2023-06-26T00:00:00	2024-11-08T05:00:00	5	Humedad	85
101845	7	Sololá	704	Santa Lucía Utatlán 	7	Santa Rita 	6	Junio	2023-06-26T00:00:00	2024-11-08T05:00:00	6	Velocidad del viento	1.6
101846	7	Sololá	704	Santa Lucía Utatlán 	7	Santa Rita 	6	Junio	2023-06-26T00:00:00	2024-11-08T05:00:00	7	Dirección del viento	1.61
101847	7	Sololá	704	Santa Lucía Utatlán 	7	Santa Rita 	6	Junio	2023-06-26T00:00:00	2024-11-08T05:00:00	1	Precipitación	0
101848	7	Sololá	704	Santa Lucía Utatlán 	7	Santa Rita 	6	Junio	2023-06-26T00:00:00	2024-11-08T05:00:00	8	Radiación solar	0
101849	7	Sololá	704	Santa Lucía Utatlán 	7	Santa Rita 	6	Junio	2023-06-26T00:00:00	2024-11-08T06:00:00	2	Temperatura media	16.8
101850	7	Sololá	704	Santa Lucía Utatlán 	7	Santa Rita 	6	Junio	2023-06-26T00:00:00	2024-11-08T06:00:00	4	Temperatura máxima	16.8
101851	7	Sololá	704	Santa Lucía Utatlán 	7	Santa Rita 	6	Junio	2023-06-26T00:00:00	2024-11-08T06:00:00	3	Temperatura mínima	15.8
101852	7	Sololá	704	Santa Lucía Utatlán 	7	Santa Rita 	6	Junio	2023-06-26T00:00:00	2024-11-08T06:00:00	5	Humedad	82
101853	7	Sololá	704	Santa Lucía Utatlán 	7	Santa Rita 	6	Junio	2023-06-26T00:00:00	2024-11-08T06:00:00	6	Velocidad del viento	3.2
101854	7	Sololá	704	Santa Lucía Utatlán 	7	Santa Rita 	6	Junio	2023-06-26T00:00:00	2024-11-08T06:00:00	7	Dirección del viento	3.22
101855	7	Sololá	704	Santa Lucía Utatlán 	7	Santa Rita 	6	Junio	2023-06-26T00:00:00	2024-11-08T06:00:00	1	Precipitación	0
101856	7	Sololá	704	Santa Lucía Utatlán 	7	Santa Rita 	6	Junio	2023-06-26T00:00:00	2024-11-08T06:00:00	8	Radiación solar	5
101857	7	Sololá	704	Santa Lucía Utatlán 	7	Santa Rita 	6	Junio	2023-06-26T00:00:00	2024-11-08T07:00:00	2	Temperatura media	16.9
101858	7	Sololá	704	Santa Lucía Utatlán 	7	Santa Rita 	6	Junio	2023-06-26T00:00:00	2024-11-08T07:00:00	4	Temperatura máxima	17.6
101859	7	Sololá	704	Santa Lucía Utatlán 	7	Santa Rita 	6	Junio	2023-06-26T00:00:00	2024-11-08T07:00:00	3	Temperatura mínima	16.7
101860	7	Sololá	704	Santa Lucía Utatlán 	7	Santa Rita 	6	Junio	2023-06-26T00:00:00	2024-11-08T07:00:00	5	Humedad	85
101861	7	Sololá	704	Santa Lucía Utatlán 	7	Santa Rita 	6	Junio	2023-06-26T00:00:00	2024-11-08T07:00:00	6	Velocidad del viento	3.2
101862	7	Sololá	704	Santa Lucía Utatlán 	7	Santa Rita 	6	Junio	2023-06-26T00:00:00	2024-11-08T07:00:00	7	Dirección del viento	3.22
101863	7	Sololá	704	Santa Lucía Utatlán 	7	Santa Rita 	6	Junio	2023-06-26T00:00:00	2024-11-08T07:00:00	1	Precipitación	0
101864	7	Sololá	704	Santa Lucía Utatlán 	7	Santa Rita 	6	Junio	2023-06-26T00:00:00	2024-11-08T07:00:00	8	Radiación solar	53
101865	7	Sololá	704	Santa Lucía Utatlán 	7	Santa Rita 	6	Junio	2023-06-26T00:00:00	2024-11-08T08:00:00	2	Temperatura media	19.7
101866	7	Sololá	704	Santa Lucía Utatlán 	7	Santa Rita 	6	Junio	2023-06-26T00:00:00	2024-11-08T08:00:00	4	Temperatura máxima	19.7
101867	7	Sololá	704	Santa Lucía Utatlán 	7	Santa Rita 	6	Junio	2023-06-26T00:00:00	2024-11-08T08:00:00	3	Temperatura mínima	16.9
101868	7	Sololá	704	Santa Lucía Utatlán 	7	Santa Rita 	6	Junio	2023-06-26T00:00:00	2024-11-08T08:00:00	5	Humedad	78
101869	7	Sololá	704	Santa Lucía Utatlán 	7	Santa Rita 	6	Junio	2023-06-26T00:00:00	2024-11-08T08:00:00	6	Velocidad del viento	1.6
101870	7	Sololá	704	Santa Lucía Utatlán 	7	Santa Rita 	6	Junio	2023-06-26T00:00:00	2024-11-08T08:00:00	7	Dirección del viento	1.61
101871	7	Sololá	704	Santa Lucía Utatlán 	7	Santa Rita 	6	Junio	2023-06-26T00:00:00	2024-11-08T08:00:00	1	Precipitación	0
101872	7	Sololá	704	Santa Lucía Utatlán 	7	Santa Rita 	6	Junio	2023-06-26T00:00:00	2024-11-08T08:00:00	8	Radiación solar	213
101873	7	Sololá	704	Santa Lucía Utatlán 	7	Santa Rita 	6	Junio	2023-06-26T00:00:00	2024-11-08T09:00:00	2	Temperatura media	22.4
101874	7	Sololá	704	Santa Lucía Utatlán 	7	Santa Rita 	6	Junio	2023-06-26T00:00:00	2024-11-08T09:00:00	4	Temperatura máxima	22.4
101875	7	Sololá	704	Santa Lucía Utatlán 	7	Santa Rita 	6	Junio	2023-06-26T00:00:00	2024-11-08T09:00:00	3	Temperatura mínima	19.7
101876	7	Sololá	704	Santa Lucía Utatlán 	7	Santa Rita 	6	Junio	2023-06-26T00:00:00	2024-11-08T09:00:00	5	Humedad	71
101877	7	Sololá	704	Santa Lucía Utatlán 	7	Santa Rita 	6	Junio	2023-06-26T00:00:00	2024-11-08T09:00:00	6	Velocidad del viento	1.6
101878	7	Sololá	704	Santa Lucía Utatlán 	7	Santa Rita 	6	Junio	2023-06-26T00:00:00	2024-11-08T09:00:00	7	Dirección del viento	1.61
101879	7	Sololá	704	Santa Lucía Utatlán 	7	Santa Rita 	6	Junio	2023-06-26T00:00:00	2024-11-08T09:00:00	1	Precipitación	0
101880	7	Sololá	704	Santa Lucía Utatlán 	7	Santa Rita 	6	Junio	2023-06-26T00:00:00	2024-11-08T09:00:00	8	Radiación solar	309
101881	7	Sololá	704	Santa Lucía Utatlán 	7	Santa Rita 	6	Junio	2023-06-26T00:00:00	2024-11-08T10:00:00	2	Temperatura media	24.6
101882	7	Sololá	704	Santa Lucía Utatlán 	7	Santa Rita 	6	Junio	2023-06-26T00:00:00	2024-11-08T10:00:00	4	Temperatura máxima	24.9
101883	7	Sololá	704	Santa Lucía Utatlán 	7	Santa Rita 	6	Junio	2023-06-26T00:00:00	2024-11-08T10:00:00	3	Temperatura mínima	22.4
101884	7	Sololá	704	Santa Lucía Utatlán 	7	Santa Rita 	6	Junio	2023-06-26T00:00:00	2024-11-08T10:00:00	5	Humedad	59
101885	7	Sololá	704	Santa Lucía Utatlán 	7	Santa Rita 	6	Junio	2023-06-26T00:00:00	2024-11-08T10:00:00	6	Velocidad del viento	3.2
101886	7	Sololá	704	Santa Lucía Utatlán 	7	Santa Rita 	6	Junio	2023-06-26T00:00:00	2024-11-08T10:00:00	7	Dirección del viento	3.22
101887	7	Sololá	704	Santa Lucía Utatlán 	7	Santa Rita 	6	Junio	2023-06-26T00:00:00	2024-11-08T10:00:00	1	Precipitación	0
101888	7	Sololá	704	Santa Lucía Utatlán 	7	Santa Rita 	6	Junio	2023-06-26T00:00:00	2024-11-08T10:00:00	8	Radiación solar	546
101889	7	Sololá	704	Santa Lucía Utatlán 	7	Santa Rita 	6	Junio	2023-06-26T00:00:00	2024-11-08T11:00:00	2	Temperatura media	24.2
101890	7	Sololá	704	Santa Lucía Utatlán 	7	Santa Rita 	6	Junio	2023-06-26T00:00:00	2024-11-08T11:00:00	4	Temperatura máxima	24.6
101891	7	Sololá	704	Santa Lucía Utatlán 	7	Santa Rita 	6	Junio	2023-06-26T00:00:00	2024-11-08T11:00:00	3	Temperatura mínima	23.6
101892	7	Sololá	704	Santa Lucía Utatlán 	7	Santa Rita 	6	Junio	2023-06-26T00:00:00	2024-11-08T11:00:00	5	Humedad	62
101893	7	Sololá	704	Santa Lucía Utatlán 	7	Santa Rita 	6	Junio	2023-06-26T00:00:00	2024-11-08T11:00:00	6	Velocidad del viento	11.3
101894	7	Sololá	704	Santa Lucía Utatlán 	7	Santa Rita 	6	Junio	2023-06-26T00:00:00	2024-11-08T11:00:00	7	Dirección del viento	11.27
101895	7	Sololá	704	Santa Lucía Utatlán 	7	Santa Rita 	6	Junio	2023-06-26T00:00:00	2024-11-08T11:00:00	1	Precipitación	0
101896	7	Sololá	704	Santa Lucía Utatlán 	7	Santa Rita 	6	Junio	2023-06-26T00:00:00	2024-11-08T11:00:00	8	Radiación solar	607
101897	7	Sololá	704	Santa Lucía Utatlán 	7	Santa Rita 	6	Junio	2023-06-26T00:00:00	2024-11-08T12:00:00	2	Temperatura media	25.1
101898	7	Sololá	704	Santa Lucía Utatlán 	7	Santa Rita 	6	Junio	2023-06-26T00:00:00	2024-11-08T12:00:00	4	Temperatura máxima	25.1
101899	7	Sololá	704	Santa Lucía Utatlán 	7	Santa Rita 	6	Junio	2023-06-26T00:00:00	2024-11-08T12:00:00	3	Temperatura mínima	23.9
101900	7	Sololá	704	Santa Lucía Utatlán 	7	Santa Rita 	6	Junio	2023-06-26T00:00:00	2024-11-08T12:00:00	5	Humedad	59
101901	7	Sololá	704	Santa Lucía Utatlán 	7	Santa Rita 	6	Junio	2023-06-26T00:00:00	2024-11-08T12:00:00	6	Velocidad del viento	12.9
101902	7	Sololá	704	Santa Lucía Utatlán 	7	Santa Rita 	6	Junio	2023-06-26T00:00:00	2024-11-08T12:00:00	7	Dirección del viento	12.87
101903	7	Sololá	704	Santa Lucía Utatlán 	7	Santa Rita 	6	Junio	2023-06-26T00:00:00	2024-11-08T12:00:00	1	Precipitación	0
101904	7	Sololá	704	Santa Lucía Utatlán 	7	Santa Rita 	6	Junio	2023-06-26T00:00:00	2024-11-08T12:00:00	8	Radiación solar	816
101905	7	Sololá	704	Santa Lucía Utatlán 	7	Santa Rita 	6	Junio	2023-06-26T00:00:00	2024-11-08T13:00:00	2	Temperatura media	25.4
101906	7	Sololá	704	Santa Lucía Utatlán 	7	Santa Rita 	6	Junio	2023-06-26T00:00:00	2024-11-08T13:00:00	4	Temperatura máxima	25.9
101907	7	Sololá	704	Santa Lucía Utatlán 	7	Santa Rita 	6	Junio	2023-06-26T00:00:00	2024-11-08T13:00:00	3	Temperatura mínima	24.9
101908	7	Sololá	704	Santa Lucía Utatlán 	7	Santa Rita 	6	Junio	2023-06-26T00:00:00	2024-11-08T13:00:00	5	Humedad	59
101909	7	Sololá	704	Santa Lucía Utatlán 	7	Santa Rita 	6	Junio	2023-06-26T00:00:00	2024-11-08T13:00:00	6	Velocidad del viento	11.3
101910	7	Sololá	704	Santa Lucía Utatlán 	7	Santa Rita 	6	Junio	2023-06-26T00:00:00	2024-11-08T13:00:00	7	Dirección del viento	11.27
101911	7	Sololá	704	Santa Lucía Utatlán 	7	Santa Rita 	6	Junio	2023-06-26T00:00:00	2024-11-08T13:00:00	1	Precipitación	0
101912	7	Sololá	704	Santa Lucía Utatlán 	7	Santa Rita 	6	Junio	2023-06-26T00:00:00	2024-11-08T13:00:00	8	Radiación solar	1114
101913	7	Sololá	704	Santa Lucía Utatlán 	7	Santa Rita 	6	Junio	2023-06-26T00:00:00	2024-11-08T14:00:00	2	Temperatura media	25.2
101914	7	Sololá	704	Santa Lucía Utatlán 	7	Santa Rita 	6	Junio	2023-06-26T00:00:00	2024-11-08T14:00:00	4	Temperatura máxima	26.1
101915	7	Sololá	704	Santa Lucía Utatlán 	7	Santa Rita 	6	Junio	2023-06-26T00:00:00	2024-11-08T14:00:00	3	Temperatura mínima	24.6
101916	7	Sololá	704	Santa Lucía Utatlán 	7	Santa Rita 	6	Junio	2023-06-26T00:00:00	2024-11-08T14:00:00	5	Humedad	59
101917	7	Sololá	704	Santa Lucía Utatlán 	7	Santa Rita 	6	Junio	2023-06-26T00:00:00	2024-11-08T14:00:00	6	Velocidad del viento	11.3
101918	7	Sololá	704	Santa Lucía Utatlán 	7	Santa Rita 	6	Junio	2023-06-26T00:00:00	2024-11-08T14:00:00	7	Dirección del viento	11.27
101919	7	Sololá	704	Santa Lucía Utatlán 	7	Santa Rita 	6	Junio	2023-06-26T00:00:00	2024-11-08T14:00:00	1	Precipitación	0
101920	7	Sololá	704	Santa Lucía Utatlán 	7	Santa Rita 	6	Junio	2023-06-26T00:00:00	2024-11-08T14:00:00	8	Radiación solar	691
101921	7	Sololá	704	Santa Lucía Utatlán 	7	Santa Rita 	6	Junio	2023-06-26T00:00:00	2024-11-08T15:00:00	2	Temperatura media	25.2
101922	7	Sololá	704	Santa Lucía Utatlán 	7	Santa Rita 	6	Junio	2023-06-26T00:00:00	2024-11-08T15:00:00	4	Temperatura máxima	26
101923	7	Sololá	704	Santa Lucía Utatlán 	7	Santa Rita 	6	Junio	2023-06-26T00:00:00	2024-11-08T15:00:00	3	Temperatura mínima	25.1
101924	7	Sololá	704	Santa Lucía Utatlán 	7	Santa Rita 	6	Junio	2023-06-26T00:00:00	2024-11-08T15:00:00	5	Humedad	58
101925	7	Sololá	704	Santa Lucía Utatlán 	7	Santa Rita 	6	Junio	2023-06-26T00:00:00	2024-11-08T15:00:00	6	Velocidad del viento	9.7
101926	7	Sololá	704	Santa Lucía Utatlán 	7	Santa Rita 	6	Junio	2023-06-26T00:00:00	2024-11-08T15:00:00	7	Dirección del viento	9.66
101927	7	Sololá	704	Santa Lucía Utatlán 	7	Santa Rita 	6	Junio	2023-06-26T00:00:00	2024-11-08T15:00:00	1	Precipitación	0
101928	7	Sololá	704	Santa Lucía Utatlán 	7	Santa Rita 	6	Junio	2023-06-26T00:00:00	2024-11-08T15:00:00	8	Radiación solar	848
101929	7	Sololá	704	Santa Lucía Utatlán 	7	Santa Rita 	6	Junio	2023-06-26T00:00:00	2024-11-08T16:00:00	2	Temperatura media	25.1
101930	7	Sololá	704	Santa Lucía Utatlán 	7	Santa Rita 	6	Junio	2023-06-26T00:00:00	2024-11-08T16:00:00	4	Temperatura máxima	25.3
101931	7	Sololá	704	Santa Lucía Utatlán 	7	Santa Rita 	6	Junio	2023-06-26T00:00:00	2024-11-08T16:00:00	3	Temperatura mínima	24.8
101932	7	Sololá	704	Santa Lucía Utatlán 	7	Santa Rita 	6	Junio	2023-06-26T00:00:00	2024-11-08T16:00:00	5	Humedad	58
101933	7	Sololá	704	Santa Lucía Utatlán 	7	Santa Rita 	6	Junio	2023-06-26T00:00:00	2024-11-08T16:00:00	6	Velocidad del viento	11.3
101934	7	Sololá	704	Santa Lucía Utatlán 	7	Santa Rita 	6	Junio	2023-06-26T00:00:00	2024-11-08T16:00:00	7	Dirección del viento	11.27
101935	7	Sololá	704	Santa Lucía Utatlán 	7	Santa Rita 	6	Junio	2023-06-26T00:00:00	2024-11-08T16:00:00	1	Precipitación	0
101936	7	Sololá	704	Santa Lucía Utatlán 	7	Santa Rita 	6	Junio	2023-06-26T00:00:00	2024-11-08T16:00:00	8	Radiación solar	665
101937	7	Sololá	704	Santa Lucía Utatlán 	7	Santa Rita 	6	Junio	2023-06-26T00:00:00	2024-11-08T17:00:00	2	Temperatura media	25.2
101938	7	Sololá	704	Santa Lucía Utatlán 	7	Santa Rita 	6	Junio	2023-06-26T00:00:00	2024-11-08T17:00:00	4	Temperatura máxima	25.6
101939	7	Sololá	704	Santa Lucía Utatlán 	7	Santa Rita 	6	Junio	2023-06-26T00:00:00	2024-11-08T17:00:00	3	Temperatura mínima	24.8
101940	7	Sololá	704	Santa Lucía Utatlán 	7	Santa Rita 	6	Junio	2023-06-26T00:00:00	2024-11-08T17:00:00	5	Humedad	57
101941	7	Sololá	704	Santa Lucía Utatlán 	7	Santa Rita 	6	Junio	2023-06-26T00:00:00	2024-11-08T17:00:00	6	Velocidad del viento	8
101942	7	Sololá	704	Santa Lucía Utatlán 	7	Santa Rita 	6	Junio	2023-06-26T00:00:00	2024-11-08T17:00:00	7	Dirección del viento	8.05
101943	7	Sololá	704	Santa Lucía Utatlán 	7	Santa Rita 	6	Junio	2023-06-26T00:00:00	2024-11-08T17:00:00	1	Precipitación	0
101944	7	Sololá	704	Santa Lucía Utatlán 	7	Santa Rita 	6	Junio	2023-06-26T00:00:00	2024-11-08T17:00:00	8	Radiación solar	438
101945	7	Sololá	704	Santa Lucía Utatlán 	7	Santa Rita 	6	Junio	2023-06-26T00:00:00	2024-11-08T18:00:00	2	Temperatura media	23.1
101946	7	Sololá	704	Santa Lucía Utatlán 	7	Santa Rita 	6	Junio	2023-06-26T00:00:00	2024-11-08T18:00:00	4	Temperatura máxima	25.4
101947	7	Sololá	704	Santa Lucía Utatlán 	7	Santa Rita 	6	Junio	2023-06-26T00:00:00	2024-11-08T18:00:00	3	Temperatura mínima	23.1
101948	7	Sololá	704	Santa Lucía Utatlán 	7	Santa Rita 	6	Junio	2023-06-26T00:00:00	2024-11-08T18:00:00	5	Humedad	72
101949	7	Sololá	704	Santa Lucía Utatlán 	7	Santa Rita 	6	Junio	2023-06-26T00:00:00	2024-11-08T18:00:00	6	Velocidad del viento	4.8
101950	7	Sololá	704	Santa Lucía Utatlán 	7	Santa Rita 	6	Junio	2023-06-26T00:00:00	2024-11-08T18:00:00	7	Dirección del viento	4.83
101951	7	Sololá	704	Santa Lucía Utatlán 	7	Santa Rita 	6	Junio	2023-06-26T00:00:00	2024-11-08T18:00:00	1	Precipitación	0
101952	7	Sololá	704	Santa Lucía Utatlán 	7	Santa Rita 	6	Junio	2023-06-26T00:00:00	2024-11-08T18:00:00	8	Radiación solar	132
101953	7	Sololá	704	Santa Lucía Utatlán 	7	Santa Rita 	6	Junio	2023-06-26T00:00:00	2024-11-08T19:00:00	2	Temperatura media	21.6
101954	7	Sololá	704	Santa Lucía Utatlán 	7	Santa Rita 	6	Junio	2023-06-26T00:00:00	2024-11-08T19:00:00	4	Temperatura máxima	23.1
101955	7	Sololá	704	Santa Lucía Utatlán 	7	Santa Rita 	6	Junio	2023-06-26T00:00:00	2024-11-08T19:00:00	3	Temperatura mínima	21.4
101956	7	Sololá	704	Santa Lucía Utatlán 	7	Santa Rita 	6	Junio	2023-06-26T00:00:00	2024-11-08T19:00:00	5	Humedad	78
101957	7	Sololá	704	Santa Lucía Utatlán 	7	Santa Rita 	6	Junio	2023-06-26T00:00:00	2024-11-08T19:00:00	6	Velocidad del viento	1.6
101958	7	Sololá	704	Santa Lucía Utatlán 	7	Santa Rita 	6	Junio	2023-06-26T00:00:00	2024-11-08T19:00:00	7	Dirección del viento	1.61
101959	7	Sololá	704	Santa Lucía Utatlán 	7	Santa Rita 	6	Junio	2023-06-26T00:00:00	2024-11-08T19:00:00	1	Precipitación	0
101960	7	Sololá	704	Santa Lucía Utatlán 	7	Santa Rita 	6	Junio	2023-06-26T00:00:00	2024-11-08T19:00:00	8	Radiación solar	0
101961	7	Sololá	704	Santa Lucía Utatlán 	7	Santa Rita 	6	Junio	2023-06-26T00:00:00	2024-11-08T20:00:00	2	Temperatura media	21.3
101962	7	Sololá	704	Santa Lucía Utatlán 	7	Santa Rita 	6	Junio	2023-06-26T00:00:00	2024-11-08T20:00:00	4	Temperatura máxima	21.6
101963	7	Sololá	704	Santa Lucía Utatlán 	7	Santa Rita 	6	Junio	2023-06-26T00:00:00	2024-11-08T20:00:00	3	Temperatura mínima	20.7
101964	7	Sololá	704	Santa Lucía Utatlán 	7	Santa Rita 	6	Junio	2023-06-26T00:00:00	2024-11-08T20:00:00	5	Humedad	78
101965	7	Sololá	704	Santa Lucía Utatlán 	7	Santa Rita 	6	Junio	2023-06-26T00:00:00	2024-11-08T20:00:00	6	Velocidad del viento	3.2
101966	7	Sololá	704	Santa Lucía Utatlán 	7	Santa Rita 	6	Junio	2023-06-26T00:00:00	2024-11-08T20:00:00	7	Dirección del viento	3.22
101967	7	Sololá	704	Santa Lucía Utatlán 	7	Santa Rita 	6	Junio	2023-06-26T00:00:00	2024-11-08T20:00:00	1	Precipitación	0
101968	7	Sololá	704	Santa Lucía Utatlán 	7	Santa Rita 	6	Junio	2023-06-26T00:00:00	2024-11-08T20:00:00	8	Radiación solar	0
101969	7	Sololá	704	Santa Lucía Utatlán 	7	Santa Rita 	6	Junio	2023-06-26T00:00:00	2024-11-08T21:00:00	2	Temperatura media	21.1
101970	7	Sololá	704	Santa Lucía Utatlán 	7	Santa Rita 	6	Junio	2023-06-26T00:00:00	2024-11-08T21:00:00	4	Temperatura máxima	21.4
101971	7	Sololá	704	Santa Lucía Utatlán 	7	Santa Rita 	6	Junio	2023-06-26T00:00:00	2024-11-08T21:00:00	3	Temperatura mínima	19.8
101972	7	Sololá	704	Santa Lucía Utatlán 	7	Santa Rita 	6	Junio	2023-06-26T00:00:00	2024-11-08T21:00:00	5	Humedad	75
101973	7	Sololá	704	Santa Lucía Utatlán 	7	Santa Rita 	6	Junio	2023-06-26T00:00:00	2024-11-08T21:00:00	6	Velocidad del viento	4.8
101974	7	Sololá	704	Santa Lucía Utatlán 	7	Santa Rita 	6	Junio	2023-06-26T00:00:00	2024-11-08T21:00:00	7	Dirección del viento	4.83
101975	7	Sololá	704	Santa Lucía Utatlán 	7	Santa Rita 	6	Junio	2023-06-26T00:00:00	2024-11-08T21:00:00	1	Precipitación	0
101976	7	Sololá	704	Santa Lucía Utatlán 	7	Santa Rita 	6	Junio	2023-06-26T00:00:00	2024-11-08T21:00:00	8	Radiación solar	0
101977	7	Sololá	704	Santa Lucía Utatlán 	7	Santa Rita 	6	Junio	2023-06-26T00:00:00	2024-11-08T22:00:00	2	Temperatura media	19.9
101978	7	Sololá	704	Santa Lucía Utatlán 	7	Santa Rita 	6	Junio	2023-06-26T00:00:00	2024-11-08T22:00:00	4	Temperatura máxima	21.2
101979	7	Sololá	704	Santa Lucía Utatlán 	7	Santa Rita 	6	Junio	2023-06-26T00:00:00	2024-11-08T22:00:00	3	Temperatura mínima	19
101980	7	Sololá	704	Santa Lucía Utatlán 	7	Santa Rita 	6	Junio	2023-06-26T00:00:00	2024-11-08T22:00:00	5	Humedad	73
101981	7	Sololá	704	Santa Lucía Utatlán 	7	Santa Rita 	6	Junio	2023-06-26T00:00:00	2024-11-08T22:00:00	6	Velocidad del viento	9.7
101982	7	Sololá	704	Santa Lucía Utatlán 	7	Santa Rita 	6	Junio	2023-06-26T00:00:00	2024-11-08T22:00:00	7	Dirección del viento	9.66
101983	7	Sololá	704	Santa Lucía Utatlán 	7	Santa Rita 	6	Junio	2023-06-26T00:00:00	2024-11-08T22:00:00	1	Precipitación	1.6
101984	7	Sololá	704	Santa Lucía Utatlán 	7	Santa Rita 	6	Junio	2023-06-26T00:00:00	2024-11-08T22:00:00	8	Radiación solar	0
101985	7	Sololá	704	Santa Lucía Utatlán 	7	Santa Rita 	6	Junio	2023-06-26T00:00:00	2024-11-08T23:00:00	2	Temperatura media	18.4
101986	7	Sololá	704	Santa Lucía Utatlán 	7	Santa Rita 	6	Junio	2023-06-26T00:00:00	2024-11-08T23:00:00	4	Temperatura máxima	20
101987	7	Sololá	704	Santa Lucía Utatlán 	7	Santa Rita 	6	Junio	2023-06-26T00:00:00	2024-11-08T23:00:00	3	Temperatura mínima	18
101988	7	Sololá	704	Santa Lucía Utatlán 	7	Santa Rita 	6	Junio	2023-06-26T00:00:00	2024-11-08T23:00:00	5	Humedad	89
101989	7	Sololá	704	Santa Lucía Utatlán 	7	Santa Rita 	6	Junio	2023-06-26T00:00:00	2024-11-08T23:00:00	6	Velocidad del viento	3.2
101990	7	Sololá	704	Santa Lucía Utatlán 	7	Santa Rita 	6	Junio	2023-06-26T00:00:00	2024-11-08T23:00:00	7	Dirección del viento	3.22
101991	7	Sololá	704	Santa Lucía Utatlán 	7	Santa Rita 	6	Junio	2023-06-26T00:00:00	2024-11-08T23:00:00	1	Precipitación	0
101992	7	Sololá	704	Santa Lucía Utatlán 	7	Santa Rita 	6	Junio	2023-06-26T00:00:00	2024-11-08T23:00:00	8	Radiación solar	0
101993	7	Sololá	704	Santa Lucía Utatlán 	7	Santa Rita 	6	Junio	2023-06-27T00:00:00	2024-11-08T00:00:00	2	Temperatura media	18.4
101994	7	Sololá	704	Santa Lucía Utatlán 	7	Santa Rita 	6	Junio	2023-06-27T00:00:00	2024-11-08T00:00:00	4	Temperatura máxima	18.5
101995	7	Sololá	704	Santa Lucía Utatlán 	7	Santa Rita 	6	Junio	2023-06-27T00:00:00	2024-11-08T00:00:00	3	Temperatura mínima	18.2
101996	7	Sololá	704	Santa Lucía Utatlán 	7	Santa Rita 	6	Junio	2023-06-27T00:00:00	2024-11-08T00:00:00	5	Humedad	91
101997	7	Sololá	704	Santa Lucía Utatlán 	7	Santa Rita 	6	Junio	2023-06-27T00:00:00	2024-11-08T00:00:00	6	Velocidad del viento	1.6
101998	7	Sololá	704	Santa Lucía Utatlán 	7	Santa Rita 	6	Junio	2023-06-27T00:00:00	2024-11-08T00:00:00	7	Dirección del viento	1.61
101999	7	Sololá	704	Santa Lucía Utatlán 	7	Santa Rita 	6	Junio	2023-06-27T00:00:00	2024-11-08T00:00:00	1	Precipitación	0
102000	7	Sololá	704	Santa Lucía Utatlán 	7	Santa Rita 	6	Junio	2023-06-27T00:00:00	2024-11-08T00:00:00	8	Radiación solar	0
102001	7	Sololá	704	Santa Lucía Utatlán 	7	Santa Rita 	6	Junio	2023-06-27T00:00:00	2024-11-08T01:00:00	2	Temperatura media	18.6
102002	7	Sololá	704	Santa Lucía Utatlán 	7	Santa Rita 	6	Junio	2023-06-27T00:00:00	2024-11-08T01:00:00	4	Temperatura máxima	19.2
102003	7	Sololá	704	Santa Lucía Utatlán 	7	Santa Rita 	6	Junio	2023-06-27T00:00:00	2024-11-08T01:00:00	3	Temperatura mínima	18.3
102004	7	Sololá	704	Santa Lucía Utatlán 	7	Santa Rita 	6	Junio	2023-06-27T00:00:00	2024-11-08T01:00:00	5	Humedad	88
102005	7	Sololá	704	Santa Lucía Utatlán 	7	Santa Rita 	6	Junio	2023-06-27T00:00:00	2024-11-08T01:00:00	6	Velocidad del viento	3.2
102006	7	Sololá	704	Santa Lucía Utatlán 	7	Santa Rita 	6	Junio	2023-06-27T00:00:00	2024-11-08T01:00:00	7	Dirección del viento	3.22
102007	7	Sololá	704	Santa Lucía Utatlán 	7	Santa Rita 	6	Junio	2023-06-27T00:00:00	2024-11-08T01:00:00	1	Precipitación	0
102008	7	Sololá	704	Santa Lucía Utatlán 	7	Santa Rita 	6	Junio	2023-06-27T00:00:00	2024-11-08T01:00:00	8	Radiación solar	0
102009	7	Sololá	704	Santa Lucía Utatlán 	7	Santa Rita 	6	Junio	2023-06-27T00:00:00	2024-11-08T02:00:00	2	Temperatura media	18.6
102010	7	Sololá	704	Santa Lucía Utatlán 	7	Santa Rita 	6	Junio	2023-06-27T00:00:00	2024-11-08T02:00:00	4	Temperatura máxima	18.7
102011	7	Sololá	704	Santa Lucía Utatlán 	7	Santa Rita 	6	Junio	2023-06-27T00:00:00	2024-11-08T02:00:00	3	Temperatura mínima	18.1
102012	7	Sololá	704	Santa Lucía Utatlán 	7	Santa Rita 	6	Junio	2023-06-27T00:00:00	2024-11-08T02:00:00	5	Humedad	90
102013	7	Sololá	704	Santa Lucía Utatlán 	7	Santa Rita 	6	Junio	2023-06-27T00:00:00	2024-11-08T02:00:00	6	Velocidad del viento	3.2
102014	7	Sololá	704	Santa Lucía Utatlán 	7	Santa Rita 	6	Junio	2023-06-27T00:00:00	2024-11-08T02:00:00	7	Dirección del viento	3.22
102015	7	Sololá	704	Santa Lucía Utatlán 	7	Santa Rita 	6	Junio	2023-06-27T00:00:00	2024-11-08T02:00:00	1	Precipitación	0
102016	7	Sololá	704	Santa Lucía Utatlán 	7	Santa Rita 	6	Junio	2023-06-27T00:00:00	2024-11-08T02:00:00	8	Radiación solar	0
102017	7	Sololá	704	Santa Lucía Utatlán 	7	Santa Rita 	6	Junio	2023-06-27T00:00:00	2024-11-08T03:00:00	2	Temperatura media	18.5
102018	7	Sololá	704	Santa Lucía Utatlán 	7	Santa Rita 	6	Junio	2023-06-27T00:00:00	2024-11-08T03:00:00	4	Temperatura máxima	18.6
102019	7	Sololá	704	Santa Lucía Utatlán 	7	Santa Rita 	6	Junio	2023-06-27T00:00:00	2024-11-08T03:00:00	3	Temperatura mínima	17.9
102020	7	Sololá	704	Santa Lucía Utatlán 	7	Santa Rita 	6	Junio	2023-06-27T00:00:00	2024-11-08T03:00:00	5	Humedad	85
102021	7	Sololá	704	Santa Lucía Utatlán 	7	Santa Rita 	6	Junio	2023-06-27T00:00:00	2024-11-08T03:00:00	6	Velocidad del viento	1.6
102022	7	Sololá	704	Santa Lucía Utatlán 	7	Santa Rita 	6	Junio	2023-06-27T00:00:00	2024-11-08T03:00:00	7	Dirección del viento	1.61
102023	7	Sololá	704	Santa Lucía Utatlán 	7	Santa Rita 	6	Junio	2023-06-27T00:00:00	2024-11-08T03:00:00	1	Precipitación	0
102024	7	Sololá	704	Santa Lucía Utatlán 	7	Santa Rita 	6	Junio	2023-06-27T00:00:00	2024-11-08T03:00:00	8	Radiación solar	0
102025	7	Sololá	704	Santa Lucía Utatlán 	7	Santa Rita 	6	Junio	2023-06-27T00:00:00	2024-11-08T04:00:00	2	Temperatura media	19.4
102026	7	Sololá	704	Santa Lucía Utatlán 	7	Santa Rita 	6	Junio	2023-06-27T00:00:00	2024-11-08T04:00:00	4	Temperatura máxima	20.3
102027	7	Sololá	704	Santa Lucía Utatlán 	7	Santa Rita 	6	Junio	2023-06-27T00:00:00	2024-11-08T04:00:00	3	Temperatura mínima	18.6
102028	7	Sololá	704	Santa Lucía Utatlán 	7	Santa Rita 	6	Junio	2023-06-27T00:00:00	2024-11-08T04:00:00	5	Humedad	83
102029	7	Sololá	704	Santa Lucía Utatlán 	7	Santa Rita 	6	Junio	2023-06-27T00:00:00	2024-11-08T04:00:00	6	Velocidad del viento	8
102030	7	Sololá	704	Santa Lucía Utatlán 	7	Santa Rita 	6	Junio	2023-06-27T00:00:00	2024-11-08T04:00:00	7	Dirección del viento	8.05
102031	7	Sololá	704	Santa Lucía Utatlán 	7	Santa Rita 	6	Junio	2023-06-27T00:00:00	2024-11-08T04:00:00	1	Precipitación	0
102032	7	Sololá	704	Santa Lucía Utatlán 	7	Santa Rita 	6	Junio	2023-06-27T00:00:00	2024-11-08T04:00:00	8	Radiación solar	0
102033	7	Sololá	704	Santa Lucía Utatlán 	7	Santa Rita 	6	Junio	2023-06-27T00:00:00	2024-11-08T05:00:00	2	Temperatura media	20.8
102034	7	Sololá	704	Santa Lucía Utatlán 	7	Santa Rita 	6	Junio	2023-06-27T00:00:00	2024-11-08T05:00:00	4	Temperatura máxima	20.9
102035	7	Sololá	704	Santa Lucía Utatlán 	7	Santa Rita 	6	Junio	2023-06-27T00:00:00	2024-11-08T05:00:00	3	Temperatura mínima	18.8
102036	7	Sololá	704	Santa Lucía Utatlán 	7	Santa Rita 	6	Junio	2023-06-27T00:00:00	2024-11-08T05:00:00	5	Humedad	72
102037	7	Sololá	704	Santa Lucía Utatlán 	7	Santa Rita 	6	Junio	2023-06-27T00:00:00	2024-11-08T05:00:00	6	Velocidad del viento	9.7
102038	7	Sololá	704	Santa Lucía Utatlán 	7	Santa Rita 	6	Junio	2023-06-27T00:00:00	2024-11-08T05:00:00	7	Dirección del viento	9.66
102039	7	Sololá	704	Santa Lucía Utatlán 	7	Santa Rita 	6	Junio	2023-06-27T00:00:00	2024-11-08T05:00:00	1	Precipitación	0
102040	7	Sololá	704	Santa Lucía Utatlán 	7	Santa Rita 	6	Junio	2023-06-27T00:00:00	2024-11-08T05:00:00	8	Radiación solar	0
102041	7	Sololá	704	Santa Lucía Utatlán 	7	Santa Rita 	6	Junio	2023-06-27T00:00:00	2024-11-08T06:00:00	2	Temperatura media	20.4
102042	7	Sololá	704	Santa Lucía Utatlán 	7	Santa Rita 	6	Junio	2023-06-27T00:00:00	2024-11-08T06:00:00	4	Temperatura máxima	20.8
102043	7	Sololá	704	Santa Lucía Utatlán 	7	Santa Rita 	6	Junio	2023-06-27T00:00:00	2024-11-08T06:00:00	3	Temperatura mínima	18.9
102044	7	Sololá	704	Santa Lucía Utatlán 	7	Santa Rita 	6	Junio	2023-06-27T00:00:00	2024-11-08T06:00:00	5	Humedad	69
102045	7	Sololá	704	Santa Lucía Utatlán 	7	Santa Rita 	6	Junio	2023-06-27T00:00:00	2024-11-08T06:00:00	6	Velocidad del viento	6.4
102046	7	Sololá	704	Santa Lucía Utatlán 	7	Santa Rita 	6	Junio	2023-06-27T00:00:00	2024-11-08T06:00:00	7	Dirección del viento	6.44
102047	7	Sololá	704	Santa Lucía Utatlán 	7	Santa Rita 	6	Junio	2023-06-27T00:00:00	2024-11-08T06:00:00	1	Precipitación	0
102048	7	Sololá	704	Santa Lucía Utatlán 	7	Santa Rita 	6	Junio	2023-06-27T00:00:00	2024-11-08T06:00:00	8	Radiación solar	4
102049	7	Sololá	704	Santa Lucía Utatlán 	7	Santa Rita 	6	Junio	2023-06-27T00:00:00	2024-11-08T07:00:00	2	Temperatura media	20.4
102050	7	Sololá	704	Santa Lucía Utatlán 	7	Santa Rita 	6	Junio	2023-06-27T00:00:00	2024-11-08T07:00:00	4	Temperatura máxima	20.4
102051	7	Sololá	704	Santa Lucía Utatlán 	7	Santa Rita 	6	Junio	2023-06-27T00:00:00	2024-11-08T07:00:00	3	Temperatura mínima	19.6
102052	7	Sololá	704	Santa Lucía Utatlán 	7	Santa Rita 	6	Junio	2023-06-27T00:00:00	2024-11-08T07:00:00	5	Humedad	69
102053	7	Sololá	704	Santa Lucía Utatlán 	7	Santa Rita 	6	Junio	2023-06-27T00:00:00	2024-11-08T07:00:00	6	Velocidad del viento	6.4
102054	7	Sololá	704	Santa Lucía Utatlán 	7	Santa Rita 	6	Junio	2023-06-27T00:00:00	2024-11-08T07:00:00	7	Dirección del viento	6.44
102055	7	Sololá	704	Santa Lucía Utatlán 	7	Santa Rita 	6	Junio	2023-06-27T00:00:00	2024-11-08T07:00:00	1	Precipitación	0
102056	7	Sololá	704	Santa Lucía Utatlán 	7	Santa Rita 	6	Junio	2023-06-27T00:00:00	2024-11-08T07:00:00	8	Radiación solar	72
102057	7	Sololá	704	Santa Lucía Utatlán 	7	Santa Rita 	6	Junio	2023-06-27T00:00:00	2024-11-08T08:00:00	2	Temperatura media	21.9
102058	7	Sololá	704	Santa Lucía Utatlán 	7	Santa Rita 	6	Junio	2023-06-27T00:00:00	2024-11-08T08:00:00	4	Temperatura máxima	21.9
102059	7	Sololá	704	Santa Lucía Utatlán 	7	Santa Rita 	6	Junio	2023-06-27T00:00:00	2024-11-08T08:00:00	3	Temperatura mínima	20.4
102060	7	Sololá	704	Santa Lucía Utatlán 	7	Santa Rita 	6	Junio	2023-06-27T00:00:00	2024-11-08T08:00:00	5	Humedad	66
102061	7	Sololá	704	Santa Lucía Utatlán 	7	Santa Rita 	6	Junio	2023-06-27T00:00:00	2024-11-08T08:00:00	6	Velocidad del viento	6.4
102062	7	Sololá	704	Santa Lucía Utatlán 	7	Santa Rita 	6	Junio	2023-06-27T00:00:00	2024-11-08T08:00:00	7	Dirección del viento	6.44
102063	7	Sololá	704	Santa Lucía Utatlán 	7	Santa Rita 	6	Junio	2023-06-27T00:00:00	2024-11-08T08:00:00	1	Precipitación	0
102064	7	Sololá	704	Santa Lucía Utatlán 	7	Santa Rita 	6	Junio	2023-06-27T00:00:00	2024-11-08T08:00:00	8	Radiación solar	252
102065	7	Sololá	704	Santa Lucía Utatlán 	7	Santa Rita 	6	Junio	2023-06-27T00:00:00	2024-11-08T09:00:00	2	Temperatura media	23.9
102066	7	Sololá	704	Santa Lucía Utatlán 	7	Santa Rita 	6	Junio	2023-06-27T00:00:00	2024-11-08T09:00:00	4	Temperatura máxima	24.1
102067	7	Sololá	704	Santa Lucía Utatlán 	7	Santa Rita 	6	Junio	2023-06-27T00:00:00	2024-11-08T09:00:00	3	Temperatura mínima	21.7
102068	7	Sololá	704	Santa Lucía Utatlán 	7	Santa Rita 	6	Junio	2023-06-27T00:00:00	2024-11-08T09:00:00	5	Humedad	65
102069	7	Sololá	704	Santa Lucía Utatlán 	7	Santa Rita 	6	Junio	2023-06-27T00:00:00	2024-11-08T09:00:00	6	Velocidad del viento	3.2
102070	7	Sololá	704	Santa Lucía Utatlán 	7	Santa Rita 	6	Junio	2023-06-27T00:00:00	2024-11-08T09:00:00	7	Dirección del viento	3.22
102071	7	Sololá	704	Santa Lucía Utatlán 	7	Santa Rita 	6	Junio	2023-06-27T00:00:00	2024-11-08T09:00:00	1	Precipitación	0
102072	7	Sololá	704	Santa Lucía Utatlán 	7	Santa Rita 	6	Junio	2023-06-27T00:00:00	2024-11-08T09:00:00	8	Radiación solar	384
102073	7	Sololá	704	Santa Lucía Utatlán 	7	Santa Rita 	6	Junio	2023-06-27T00:00:00	2024-11-08T10:00:00	2	Temperatura media	23.6
102074	7	Sololá	704	Santa Lucía Utatlán 	7	Santa Rita 	6	Junio	2023-06-27T00:00:00	2024-11-08T10:00:00	4	Temperatura máxima	24.3
102075	7	Sololá	704	Santa Lucía Utatlán 	7	Santa Rita 	6	Junio	2023-06-27T00:00:00	2024-11-08T10:00:00	3	Temperatura mínima	23.6
102076	7	Sololá	704	Santa Lucía Utatlán 	7	Santa Rita 	6	Junio	2023-06-27T00:00:00	2024-11-08T10:00:00	5	Humedad	71
102077	7	Sololá	704	Santa Lucía Utatlán 	7	Santa Rita 	6	Junio	2023-06-27T00:00:00	2024-11-08T10:00:00	6	Velocidad del viento	9.7
102078	7	Sololá	704	Santa Lucía Utatlán 	7	Santa Rita 	6	Junio	2023-06-27T00:00:00	2024-11-08T10:00:00	7	Dirección del viento	9.66
102079	7	Sololá	704	Santa Lucía Utatlán 	7	Santa Rita 	6	Junio	2023-06-27T00:00:00	2024-11-08T10:00:00	1	Precipitación	0
102080	7	Sololá	704	Santa Lucía Utatlán 	7	Santa Rita 	6	Junio	2023-06-27T00:00:00	2024-11-08T10:00:00	8	Radiación solar	841
102081	7	Sololá	704	Santa Lucía Utatlán 	7	Santa Rita 	6	Junio	2023-06-27T00:00:00	2024-11-08T11:00:00	2	Temperatura media	20.7
102082	7	Sololá	704	Santa Lucía Utatlán 	7	Santa Rita 	6	Junio	2023-06-27T00:00:00	2024-11-08T11:00:00	4	Temperatura máxima	23.6
102083	7	Sololá	704	Santa Lucía Utatlán 	7	Santa Rita 	6	Junio	2023-06-27T00:00:00	2024-11-08T11:00:00	3	Temperatura mínima	20.7
102084	7	Sololá	704	Santa Lucía Utatlán 	7	Santa Rita 	6	Junio	2023-06-27T00:00:00	2024-11-08T11:00:00	5	Humedad	81
102085	7	Sololá	704	Santa Lucía Utatlán 	7	Santa Rita 	6	Junio	2023-06-27T00:00:00	2024-11-08T11:00:00	6	Velocidad del viento	11.3
102086	7	Sololá	704	Santa Lucía Utatlán 	7	Santa Rita 	6	Junio	2023-06-27T00:00:00	2024-11-08T11:00:00	7	Dirección del viento	11.27
102087	7	Sololá	704	Santa Lucía Utatlán 	7	Santa Rita 	6	Junio	2023-06-27T00:00:00	2024-11-08T11:00:00	1	Precipitación	0
102088	7	Sololá	704	Santa Lucía Utatlán 	7	Santa Rita 	6	Junio	2023-06-27T00:00:00	2024-11-08T11:00:00	8	Radiación solar	196
102089	7	Sololá	704	Santa Lucía Utatlán 	7	Santa Rita 	6	Junio	2023-06-27T00:00:00	2024-11-08T12:00:00	2	Temperatura media	21.8
102090	7	Sololá	704	Santa Lucía Utatlán 	7	Santa Rita 	6	Junio	2023-06-27T00:00:00	2024-11-08T12:00:00	4	Temperatura máxima	21.8
102091	7	Sololá	704	Santa Lucía Utatlán 	7	Santa Rita 	6	Junio	2023-06-27T00:00:00	2024-11-08T12:00:00	3	Temperatura mínima	20.4
102092	7	Sololá	704	Santa Lucía Utatlán 	7	Santa Rita 	6	Junio	2023-06-27T00:00:00	2024-11-08T12:00:00	5	Humedad	81
102093	7	Sololá	704	Santa Lucía Utatlán 	7	Santa Rita 	6	Junio	2023-06-27T00:00:00	2024-11-08T12:00:00	6	Velocidad del viento	1.6
102094	7	Sololá	704	Santa Lucía Utatlán 	7	Santa Rita 	6	Junio	2023-06-27T00:00:00	2024-11-08T12:00:00	7	Dirección del viento	1.61
102095	7	Sololá	704	Santa Lucía Utatlán 	7	Santa Rita 	6	Junio	2023-06-27T00:00:00	2024-11-08T12:00:00	1	Precipitación	0
102096	7	Sololá	704	Santa Lucía Utatlán 	7	Santa Rita 	6	Junio	2023-06-27T00:00:00	2024-11-08T12:00:00	8	Radiación solar	229
102097	7	Sololá	704	Santa Lucía Utatlán 	7	Santa Rita 	6	Junio	2023-06-27T00:00:00	2024-11-08T13:00:00	2	Temperatura media	22.8
102098	7	Sololá	704	Santa Lucía Utatlán 	7	Santa Rita 	6	Junio	2023-06-27T00:00:00	2024-11-08T13:00:00	4	Temperatura máxima	23.6
102099	7	Sololá	704	Santa Lucía Utatlán 	7	Santa Rita 	6	Junio	2023-06-27T00:00:00	2024-11-08T13:00:00	3	Temperatura mínima	21.8
102100	7	Sololá	704	Santa Lucía Utatlán 	7	Santa Rita 	6	Junio	2023-06-27T00:00:00	2024-11-08T13:00:00	5	Humedad	76
102101	7	Sololá	704	Santa Lucía Utatlán 	7	Santa Rita 	6	Junio	2023-06-27T00:00:00	2024-11-08T13:00:00	6	Velocidad del viento	4.8
102102	7	Sololá	704	Santa Lucía Utatlán 	7	Santa Rita 	6	Junio	2023-06-27T00:00:00	2024-11-08T13:00:00	7	Dirección del viento	4.83
102103	7	Sololá	704	Santa Lucía Utatlán 	7	Santa Rita 	6	Junio	2023-06-27T00:00:00	2024-11-08T13:00:00	1	Precipitación	0
102104	7	Sololá	704	Santa Lucía Utatlán 	7	Santa Rita 	6	Junio	2023-06-27T00:00:00	2024-11-08T13:00:00	8	Radiación solar	457
102105	7	Sololá	704	Santa Lucía Utatlán 	7	Santa Rita 	6	Junio	2023-06-27T00:00:00	2024-11-08T14:00:00	2	Temperatura media	22.2
102106	7	Sololá	704	Santa Lucía Utatlán 	7	Santa Rita 	6	Junio	2023-06-27T00:00:00	2024-11-08T14:00:00	4	Temperatura máxima	23.1
102107	7	Sololá	704	Santa Lucía Utatlán 	7	Santa Rita 	6	Junio	2023-06-27T00:00:00	2024-11-08T14:00:00	3	Temperatura mínima	22.1
102108	7	Sololá	704	Santa Lucía Utatlán 	7	Santa Rita 	6	Junio	2023-06-27T00:00:00	2024-11-08T14:00:00	5	Humedad	80
102109	7	Sololá	704	Santa Lucía Utatlán 	7	Santa Rita 	6	Junio	2023-06-27T00:00:00	2024-11-08T14:00:00	6	Velocidad del viento	6.4
102110	7	Sololá	704	Santa Lucía Utatlán 	7	Santa Rita 	6	Junio	2023-06-27T00:00:00	2024-11-08T14:00:00	7	Dirección del viento	6.44
102111	7	Sololá	704	Santa Lucía Utatlán 	7	Santa Rita 	6	Junio	2023-06-27T00:00:00	2024-11-08T14:00:00	1	Precipitación	0
102112	7	Sololá	704	Santa Lucía Utatlán 	7	Santa Rita 	6	Junio	2023-06-27T00:00:00	2024-11-08T14:00:00	8	Radiación solar	217
102113	7	Sololá	704	Santa Lucía Utatlán 	7	Santa Rita 	6	Junio	2023-06-27T00:00:00	2024-11-08T15:00:00	2	Temperatura media	22.1
102114	7	Sololá	704	Santa Lucía Utatlán 	7	Santa Rita 	6	Junio	2023-06-27T00:00:00	2024-11-08T15:00:00	4	Temperatura máxima	22.3
102115	7	Sololá	704	Santa Lucía Utatlán 	7	Santa Rita 	6	Junio	2023-06-27T00:00:00	2024-11-08T15:00:00	3	Temperatura mínima	21.9
102116	7	Sololá	704	Santa Lucía Utatlán 	7	Santa Rita 	6	Junio	2023-06-27T00:00:00	2024-11-08T15:00:00	5	Humedad	83
102117	7	Sololá	704	Santa Lucía Utatlán 	7	Santa Rita 	6	Junio	2023-06-27T00:00:00	2024-11-08T15:00:00	6	Velocidad del viento	4.8
102118	7	Sololá	704	Santa Lucía Utatlán 	7	Santa Rita 	6	Junio	2023-06-27T00:00:00	2024-11-08T15:00:00	7	Dirección del viento	4.83
102119	7	Sololá	704	Santa Lucía Utatlán 	7	Santa Rita 	6	Junio	2023-06-27T00:00:00	2024-11-08T15:00:00	1	Precipitación	0
102120	7	Sololá	704	Santa Lucía Utatlán 	7	Santa Rita 	6	Junio	2023-06-27T00:00:00	2024-11-08T15:00:00	8	Radiación solar	168
102121	7	Sololá	704	Santa Lucía Utatlán 	7	Santa Rita 	6	Junio	2023-06-27T00:00:00	2024-11-08T16:00:00	2	Temperatura media	21.7
102122	7	Sololá	704	Santa Lucía Utatlán 	7	Santa Rita 	6	Junio	2023-06-27T00:00:00	2024-11-08T16:00:00	4	Temperatura máxima	22.3
102123	7	Sololá	704	Santa Lucía Utatlán 	7	Santa Rita 	6	Junio	2023-06-27T00:00:00	2024-11-08T16:00:00	3	Temperatura mínima	21.7
102124	7	Sololá	704	Santa Lucía Utatlán 	7	Santa Rita 	6	Junio	2023-06-27T00:00:00	2024-11-08T16:00:00	5	Humedad	87
102125	7	Sololá	704	Santa Lucía Utatlán 	7	Santa Rita 	6	Junio	2023-06-27T00:00:00	2024-11-08T16:00:00	6	Velocidad del viento	3.2
102126	7	Sololá	704	Santa Lucía Utatlán 	7	Santa Rita 	6	Junio	2023-06-27T00:00:00	2024-11-08T16:00:00	7	Dirección del viento	3.22
102127	7	Sololá	704	Santa Lucía Utatlán 	7	Santa Rita 	6	Junio	2023-06-27T00:00:00	2024-11-08T16:00:00	1	Precipitación	0
102128	7	Sololá	704	Santa Lucía Utatlán 	7	Santa Rita 	6	Junio	2023-06-27T00:00:00	2024-11-08T16:00:00	8	Radiación solar	127
102129	7	Sololá	704	Santa Lucía Utatlán 	7	Santa Rita 	6	Junio	2023-06-27T00:00:00	2024-11-08T17:00:00	2	Temperatura media	20.4
102130	7	Sololá	704	Santa Lucía Utatlán 	7	Santa Rita 	6	Junio	2023-06-27T00:00:00	2024-11-08T17:00:00	4	Temperatura máxima	21.8
102131	7	Sololá	704	Santa Lucía Utatlán 	7	Santa Rita 	6	Junio	2023-06-27T00:00:00	2024-11-08T17:00:00	3	Temperatura mínima	20.3
102132	7	Sololá	704	Santa Lucía Utatlán 	7	Santa Rita 	6	Junio	2023-06-27T00:00:00	2024-11-08T17:00:00	5	Humedad	92
102133	7	Sololá	704	Santa Lucía Utatlán 	7	Santa Rita 	6	Junio	2023-06-27T00:00:00	2024-11-08T17:00:00	6	Velocidad del viento	3.2
102134	7	Sololá	704	Santa Lucía Utatlán 	7	Santa Rita 	6	Junio	2023-06-27T00:00:00	2024-11-08T17:00:00	7	Dirección del viento	3.22
102135	7	Sololá	704	Santa Lucía Utatlán 	7	Santa Rita 	6	Junio	2023-06-27T00:00:00	2024-11-08T17:00:00	1	Precipitación	0
102136	7	Sololá	704	Santa Lucía Utatlán 	7	Santa Rita 	6	Junio	2023-06-27T00:00:00	2024-11-08T17:00:00	8	Radiación solar	69
102137	7	Sololá	704	Santa Lucía Utatlán 	7	Santa Rita 	6	Junio	2023-06-27T00:00:00	2024-11-08T18:00:00	2	Temperatura media	19.8
102138	7	Sololá	704	Santa Lucía Utatlán 	7	Santa Rita 	6	Junio	2023-06-27T00:00:00	2024-11-08T18:00:00	4	Temperatura máxima	20.4
102139	7	Sololá	704	Santa Lucía Utatlán 	7	Santa Rita 	6	Junio	2023-06-27T00:00:00	2024-11-08T18:00:00	3	Temperatura mínima	19.8
102140	7	Sololá	704	Santa Lucía Utatlán 	7	Santa Rita 	6	Junio	2023-06-27T00:00:00	2024-11-08T18:00:00	5	Humedad	94
102141	7	Sololá	704	Santa Lucía Utatlán 	7	Santa Rita 	6	Junio	2023-06-27T00:00:00	2024-11-08T18:00:00	6	Velocidad del viento	3.2
102142	7	Sololá	704	Santa Lucía Utatlán 	7	Santa Rita 	6	Junio	2023-06-27T00:00:00	2024-11-08T18:00:00	7	Dirección del viento	3.22
102143	7	Sololá	704	Santa Lucía Utatlán 	7	Santa Rita 	6	Junio	2023-06-27T00:00:00	2024-11-08T18:00:00	1	Precipitación	1.2
102144	7	Sololá	704	Santa Lucía Utatlán 	7	Santa Rita 	6	Junio	2023-06-27T00:00:00	2024-11-08T18:00:00	8	Radiación solar	13
102145	7	Sololá	704	Santa Lucía Utatlán 	7	Santa Rita 	6	Junio	2023-06-27T00:00:00	2024-11-08T19:00:00	2	Temperatura media	19.4
102146	7	Sololá	704	Santa Lucía Utatlán 	7	Santa Rita 	6	Junio	2023-06-27T00:00:00	2024-11-08T19:00:00	4	Temperatura máxima	19.9
102147	7	Sololá	704	Santa Lucía Utatlán 	7	Santa Rita 	6	Junio	2023-06-27T00:00:00	2024-11-08T19:00:00	3	Temperatura mínima	19.4
102148	7	Sololá	704	Santa Lucía Utatlán 	7	Santa Rita 	6	Junio	2023-06-27T00:00:00	2024-11-08T19:00:00	5	Humedad	95
102149	7	Sololá	704	Santa Lucía Utatlán 	7	Santa Rita 	6	Junio	2023-06-27T00:00:00	2024-11-08T19:00:00	6	Velocidad del viento	3.2
102150	7	Sololá	704	Santa Lucía Utatlán 	7	Santa Rita 	6	Junio	2023-06-27T00:00:00	2024-11-08T19:00:00	7	Dirección del viento	3.22
102151	7	Sololá	704	Santa Lucía Utatlán 	7	Santa Rita 	6	Junio	2023-06-27T00:00:00	2024-11-08T19:00:00	1	Precipitación	12
102152	7	Sololá	704	Santa Lucía Utatlán 	7	Santa Rita 	6	Junio	2023-06-27T00:00:00	2024-11-08T19:00:00	8	Radiación solar	0
102153	7	Sololá	704	Santa Lucía Utatlán 	7	Santa Rita 	6	Junio	2023-06-27T00:00:00	2024-11-08T20:00:00	2	Temperatura media	19.2
102154	7	Sololá	704	Santa Lucía Utatlán 	7	Santa Rita 	6	Junio	2023-06-27T00:00:00	2024-11-08T20:00:00	4	Temperatura máxima	19.4
102155	7	Sololá	704	Santa Lucía Utatlán 	7	Santa Rita 	6	Junio	2023-06-27T00:00:00	2024-11-08T20:00:00	3	Temperatura mínima	19.2
102156	7	Sololá	704	Santa Lucía Utatlán 	7	Santa Rita 	6	Junio	2023-06-27T00:00:00	2024-11-08T20:00:00	5	Humedad	96
102157	7	Sololá	704	Santa Lucía Utatlán 	7	Santa Rita 	6	Junio	2023-06-27T00:00:00	2024-11-08T20:00:00	6	Velocidad del viento	1.6
102158	7	Sololá	704	Santa Lucía Utatlán 	7	Santa Rita 	6	Junio	2023-06-27T00:00:00	2024-11-08T20:00:00	7	Dirección del viento	1.61
102159	7	Sololá	704	Santa Lucía Utatlán 	7	Santa Rita 	6	Junio	2023-06-27T00:00:00	2024-11-08T20:00:00	1	Precipitación	5.2
102160	7	Sololá	704	Santa Lucía Utatlán 	7	Santa Rita 	6	Junio	2023-06-27T00:00:00	2024-11-08T20:00:00	8	Radiación solar	0
102161	7	Sololá	704	Santa Lucía Utatlán 	7	Santa Rita 	6	Junio	2023-06-27T00:00:00	2024-11-08T21:00:00	2	Temperatura media	18.7
102162	7	Sololá	704	Santa Lucía Utatlán 	7	Santa Rita 	6	Junio	2023-06-27T00:00:00	2024-11-08T21:00:00	4	Temperatura máxima	19.3
102163	7	Sololá	704	Santa Lucía Utatlán 	7	Santa Rita 	6	Junio	2023-06-27T00:00:00	2024-11-08T21:00:00	3	Temperatura mínima	18.7
102164	7	Sololá	704	Santa Lucía Utatlán 	7	Santa Rita 	6	Junio	2023-06-27T00:00:00	2024-11-08T21:00:00	5	Humedad	96
102165	7	Sololá	704	Santa Lucía Utatlán 	7	Santa Rita 	6	Junio	2023-06-27T00:00:00	2024-11-08T21:00:00	6	Velocidad del viento	3.2
102166	7	Sololá	704	Santa Lucía Utatlán 	7	Santa Rita 	6	Junio	2023-06-27T00:00:00	2024-11-08T21:00:00	7	Dirección del viento	3.22
102167	7	Sololá	704	Santa Lucía Utatlán 	7	Santa Rita 	6	Junio	2023-06-27T00:00:00	2024-11-08T21:00:00	1	Precipitación	1
102168	7	Sololá	704	Santa Lucía Utatlán 	7	Santa Rita 	6	Junio	2023-06-27T00:00:00	2024-11-08T21:00:00	8	Radiación solar	0
102169	7	Sololá	704	Santa Lucía Utatlán 	7	Santa Rita 	6	Junio	2023-06-27T00:00:00	2024-11-08T22:00:00	2	Temperatura media	18.6
102170	7	Sololá	704	Santa Lucía Utatlán 	7	Santa Rita 	6	Junio	2023-06-27T00:00:00	2024-11-08T22:00:00	4	Temperatura máxima	18.7
102171	7	Sololá	704	Santa Lucía Utatlán 	7	Santa Rita 	6	Junio	2023-06-27T00:00:00	2024-11-08T22:00:00	3	Temperatura mínima	18.6
102172	7	Sololá	704	Santa Lucía Utatlán 	7	Santa Rita 	6	Junio	2023-06-27T00:00:00	2024-11-08T22:00:00	5	Humedad	96
102173	7	Sololá	704	Santa Lucía Utatlán 	7	Santa Rita 	6	Junio	2023-06-27T00:00:00	2024-11-08T22:00:00	6	Velocidad del viento	1.6
102174	7	Sololá	704	Santa Lucía Utatlán 	7	Santa Rita 	6	Junio	2023-06-27T00:00:00	2024-11-08T22:00:00	7	Dirección del viento	1.61
102175	7	Sololá	704	Santa Lucía Utatlán 	7	Santa Rita 	6	Junio	2023-06-27T00:00:00	2024-11-08T22:00:00	1	Precipitación	0.8
102176	7	Sololá	704	Santa Lucía Utatlán 	7	Santa Rita 	6	Junio	2023-06-27T00:00:00	2024-11-08T22:00:00	8	Radiación solar	0
102177	7	Sololá	704	Santa Lucía Utatlán 	7	Santa Rita 	6	Junio	2023-06-27T00:00:00	2024-11-08T23:00:00	2	Temperatura media	18.8
102178	7	Sololá	704	Santa Lucía Utatlán 	7	Santa Rita 	6	Junio	2023-06-27T00:00:00	2024-11-08T23:00:00	4	Temperatura máxima	18.8
102179	7	Sololá	704	Santa Lucía Utatlán 	7	Santa Rita 	6	Junio	2023-06-27T00:00:00	2024-11-08T23:00:00	3	Temperatura mínima	18.6
102180	7	Sololá	704	Santa Lucía Utatlán 	7	Santa Rita 	6	Junio	2023-06-27T00:00:00	2024-11-08T23:00:00	5	Humedad	97
102181	7	Sololá	704	Santa Lucía Utatlán 	7	Santa Rita 	6	Junio	2023-06-27T00:00:00	2024-11-08T23:00:00	6	Velocidad del viento	0
102182	7	Sololá	704	Santa Lucía Utatlán 	7	Santa Rita 	6	Junio	2023-06-27T00:00:00	2024-11-08T23:00:00	7	Dirección del viento	0
102183	7	Sololá	704	Santa Lucía Utatlán 	7	Santa Rita 	6	Junio	2023-06-27T00:00:00	2024-11-08T23:00:00	1	Precipitación	0.2
102184	7	Sololá	704	Santa Lucía Utatlán 	7	Santa Rita 	6	Junio	2023-06-27T00:00:00	2024-11-08T23:00:00	8	Radiación solar	0
102185	7	Sololá	704	Santa Lucía Utatlán 	7	Santa Rita 	6	Junio	2023-06-28T00:00:00	2024-11-08T00:00:00	2	Temperatura media	18.7
102186	7	Sololá	704	Santa Lucía Utatlán 	7	Santa Rita 	6	Junio	2023-06-28T00:00:00	2024-11-08T00:00:00	4	Temperatura máxima	18.8
102187	7	Sololá	704	Santa Lucía Utatlán 	7	Santa Rita 	6	Junio	2023-06-28T00:00:00	2024-11-08T00:00:00	3	Temperatura mínima	18.6
102188	7	Sololá	704	Santa Lucía Utatlán 	7	Santa Rita 	6	Junio	2023-06-28T00:00:00	2024-11-08T00:00:00	5	Humedad	97
102189	7	Sololá	704	Santa Lucía Utatlán 	7	Santa Rita 	6	Junio	2023-06-28T00:00:00	2024-11-08T00:00:00	6	Velocidad del viento	0
102190	7	Sololá	704	Santa Lucía Utatlán 	7	Santa Rita 	6	Junio	2023-06-28T00:00:00	2024-11-08T00:00:00	7	Dirección del viento	0
102191	7	Sololá	704	Santa Lucía Utatlán 	7	Santa Rita 	6	Junio	2023-06-28T00:00:00	2024-11-08T00:00:00	1	Precipitación	0
102192	7	Sololá	704	Santa Lucía Utatlán 	7	Santa Rita 	6	Junio	2023-06-28T00:00:00	2024-11-08T00:00:00	8	Radiación solar	0
102193	7	Sololá	704	Santa Lucía Utatlán 	7	Santa Rita 	6	Junio	2023-06-28T00:00:00	2024-11-08T01:00:00	2	Temperatura media	18.6
102194	7	Sololá	704	Santa Lucía Utatlán 	7	Santa Rita 	6	Junio	2023-06-28T00:00:00	2024-11-08T01:00:00	4	Temperatura máxima	18.7
102195	7	Sololá	704	Santa Lucía Utatlán 	7	Santa Rita 	6	Junio	2023-06-28T00:00:00	2024-11-08T01:00:00	3	Temperatura mínima	18.5
102196	7	Sololá	704	Santa Lucía Utatlán 	7	Santa Rita 	6	Junio	2023-06-28T00:00:00	2024-11-08T01:00:00	5	Humedad	96
102197	7	Sololá	704	Santa Lucía Utatlán 	7	Santa Rita 	6	Junio	2023-06-28T00:00:00	2024-11-08T01:00:00	6	Velocidad del viento	0
102198	7	Sololá	704	Santa Lucía Utatlán 	7	Santa Rita 	6	Junio	2023-06-28T00:00:00	2024-11-08T01:00:00	7	Dirección del viento	0
102199	7	Sololá	704	Santa Lucía Utatlán 	7	Santa Rita 	6	Junio	2023-06-28T00:00:00	2024-11-08T01:00:00	1	Precipitación	0
102200	7	Sololá	704	Santa Lucía Utatlán 	7	Santa Rita 	6	Junio	2023-06-28T00:00:00	2024-11-08T01:00:00	8	Radiación solar	0
102201	7	Sololá	704	Santa Lucía Utatlán 	7	Santa Rita 	6	Junio	2023-06-28T00:00:00	2024-11-08T02:00:00	2	Temperatura media	18.5
102202	7	Sololá	704	Santa Lucía Utatlán 	7	Santa Rita 	6	Junio	2023-06-28T00:00:00	2024-11-08T02:00:00	4	Temperatura máxima	18.6
102203	7	Sololá	704	Santa Lucía Utatlán 	7	Santa Rita 	6	Junio	2023-06-28T00:00:00	2024-11-08T02:00:00	3	Temperatura mínima	18.4
102204	7	Sololá	704	Santa Lucía Utatlán 	7	Santa Rita 	6	Junio	2023-06-28T00:00:00	2024-11-08T02:00:00	5	Humedad	97
102205	7	Sololá	704	Santa Lucía Utatlán 	7	Santa Rita 	6	Junio	2023-06-28T00:00:00	2024-11-08T02:00:00	6	Velocidad del viento	0
102206	7	Sololá	704	Santa Lucía Utatlán 	7	Santa Rita 	6	Junio	2023-06-28T00:00:00	2024-11-08T02:00:00	7	Dirección del viento	0
102207	7	Sololá	704	Santa Lucía Utatlán 	7	Santa Rita 	6	Junio	2023-06-28T00:00:00	2024-11-08T02:00:00	1	Precipitación	0.4
102208	7	Sololá	704	Santa Lucía Utatlán 	7	Santa Rita 	6	Junio	2023-06-28T00:00:00	2024-11-08T02:00:00	8	Radiación solar	0
102209	7	Sololá	704	Santa Lucía Utatlán 	7	Santa Rita 	6	Junio	2023-06-28T00:00:00	2024-11-08T03:00:00	2	Temperatura media	18.4
102210	7	Sololá	704	Santa Lucía Utatlán 	7	Santa Rita 	6	Junio	2023-06-28T00:00:00	2024-11-08T03:00:00	4	Temperatura máxima	18.5
102211	7	Sololá	704	Santa Lucía Utatlán 	7	Santa Rita 	6	Junio	2023-06-28T00:00:00	2024-11-08T03:00:00	3	Temperatura mínima	18.3
102212	7	Sololá	704	Santa Lucía Utatlán 	7	Santa Rita 	6	Junio	2023-06-28T00:00:00	2024-11-08T03:00:00	5	Humedad	97
102213	7	Sololá	704	Santa Lucía Utatlán 	7	Santa Rita 	6	Junio	2023-06-28T00:00:00	2024-11-08T03:00:00	6	Velocidad del viento	0
102214	7	Sololá	704	Santa Lucía Utatlán 	7	Santa Rita 	6	Junio	2023-06-28T00:00:00	2024-11-08T03:00:00	7	Dirección del viento	0
102215	7	Sololá	704	Santa Lucía Utatlán 	7	Santa Rita 	6	Junio	2023-06-28T00:00:00	2024-11-08T03:00:00	1	Precipitación	1.2
102216	7	Sololá	704	Santa Lucía Utatlán 	7	Santa Rita 	6	Junio	2023-06-28T00:00:00	2024-11-08T03:00:00	8	Radiación solar	0
102217	7	Sololá	704	Santa Lucía Utatlán 	7	Santa Rita 	6	Junio	2023-06-28T00:00:00	2024-11-08T04:00:00	2	Temperatura media	17.9
102218	7	Sololá	704	Santa Lucía Utatlán 	7	Santa Rita 	6	Junio	2023-06-28T00:00:00	2024-11-08T04:00:00	4	Temperatura máxima	18.5
102219	7	Sololá	704	Santa Lucía Utatlán 	7	Santa Rita 	6	Junio	2023-06-28T00:00:00	2024-11-08T04:00:00	3	Temperatura mínima	17.9
102220	7	Sololá	704	Santa Lucía Utatlán 	7	Santa Rita 	6	Junio	2023-06-28T00:00:00	2024-11-08T04:00:00	5	Humedad	95
102221	7	Sololá	704	Santa Lucía Utatlán 	7	Santa Rita 	6	Junio	2023-06-28T00:00:00	2024-11-08T04:00:00	6	Velocidad del viento	3.2
102222	7	Sololá	704	Santa Lucía Utatlán 	7	Santa Rita 	6	Junio	2023-06-28T00:00:00	2024-11-08T04:00:00	7	Dirección del viento	3.22
102223	7	Sololá	704	Santa Lucía Utatlán 	7	Santa Rita 	6	Junio	2023-06-28T00:00:00	2024-11-08T04:00:00	1	Precipitación	0
102224	7	Sololá	704	Santa Lucía Utatlán 	7	Santa Rita 	6	Junio	2023-06-28T00:00:00	2024-11-08T04:00:00	8	Radiación solar	0
102225	7	Sololá	704	Santa Lucía Utatlán 	7	Santa Rita 	6	Junio	2023-06-28T00:00:00	2024-11-08T05:00:00	2	Temperatura media	17.7
102226	7	Sololá	704	Santa Lucía Utatlán 	7	Santa Rita 	6	Junio	2023-06-28T00:00:00	2024-11-08T05:00:00	4	Temperatura máxima	17.9
102227	7	Sololá	704	Santa Lucía Utatlán 	7	Santa Rita 	6	Junio	2023-06-28T00:00:00	2024-11-08T05:00:00	3	Temperatura mínima	17.6
102228	7	Sololá	704	Santa Lucía Utatlán 	7	Santa Rita 	6	Junio	2023-06-28T00:00:00	2024-11-08T05:00:00	5	Humedad	93
102229	7	Sololá	704	Santa Lucía Utatlán 	7	Santa Rita 	6	Junio	2023-06-28T00:00:00	2024-11-08T05:00:00	6	Velocidad del viento	3.2
102230	7	Sololá	704	Santa Lucía Utatlán 	7	Santa Rita 	6	Junio	2023-06-28T00:00:00	2024-11-08T05:00:00	7	Dirección del viento	3.22
102231	7	Sololá	704	Santa Lucía Utatlán 	7	Santa Rita 	6	Junio	2023-06-28T00:00:00	2024-11-08T05:00:00	1	Precipitación	0.2
102232	7	Sololá	704	Santa Lucía Utatlán 	7	Santa Rita 	6	Junio	2023-06-28T00:00:00	2024-11-08T05:00:00	8	Radiación solar	0
102233	7	Sololá	704	Santa Lucía Utatlán 	7	Santa Rita 	6	Junio	2023-06-28T00:00:00	2024-11-08T06:00:00	2	Temperatura media	17.6
102234	7	Sololá	704	Santa Lucía Utatlán 	7	Santa Rita 	6	Junio	2023-06-28T00:00:00	2024-11-08T06:00:00	4	Temperatura máxima	17.7
102235	7	Sololá	704	Santa Lucía Utatlán 	7	Santa Rita 	6	Junio	2023-06-28T00:00:00	2024-11-08T06:00:00	3	Temperatura mínima	17.4
102236	7	Sololá	704	Santa Lucía Utatlán 	7	Santa Rita 	6	Junio	2023-06-28T00:00:00	2024-11-08T06:00:00	5	Humedad	93
102237	7	Sololá	704	Santa Lucía Utatlán 	7	Santa Rita 	6	Junio	2023-06-28T00:00:00	2024-11-08T06:00:00	6	Velocidad del viento	4.8
102238	7	Sololá	704	Santa Lucía Utatlán 	7	Santa Rita 	6	Junio	2023-06-28T00:00:00	2024-11-08T06:00:00	7	Dirección del viento	4.83
102239	7	Sololá	704	Santa Lucía Utatlán 	7	Santa Rita 	6	Junio	2023-06-28T00:00:00	2024-11-08T06:00:00	1	Precipitación	0
102240	7	Sololá	704	Santa Lucía Utatlán 	7	Santa Rita 	6	Junio	2023-06-28T00:00:00	2024-11-08T06:00:00	8	Radiación solar	4
102241	7	Sololá	704	Santa Lucía Utatlán 	7	Santa Rita 	6	Junio	2023-06-28T00:00:00	2024-11-08T07:00:00	2	Temperatura media	18.3
102242	7	Sololá	704	Santa Lucía Utatlán 	7	Santa Rita 	6	Junio	2023-06-28T00:00:00	2024-11-08T07:00:00	4	Temperatura máxima	18.3
102243	7	Sololá	704	Santa Lucía Utatlán 	7	Santa Rita 	6	Junio	2023-06-28T00:00:00	2024-11-08T07:00:00	3	Temperatura mínima	17.5
102244	7	Sololá	704	Santa Lucía Utatlán 	7	Santa Rita 	6	Junio	2023-06-28T00:00:00	2024-11-08T07:00:00	5	Humedad	96
102245	7	Sololá	704	Santa Lucía Utatlán 	7	Santa Rita 	6	Junio	2023-06-28T00:00:00	2024-11-08T07:00:00	6	Velocidad del viento	1.6
102246	7	Sololá	704	Santa Lucía Utatlán 	7	Santa Rita 	6	Junio	2023-06-28T00:00:00	2024-11-08T07:00:00	7	Dirección del viento	1.61
102247	7	Sololá	704	Santa Lucía Utatlán 	7	Santa Rita 	6	Junio	2023-06-28T00:00:00	2024-11-08T07:00:00	1	Precipitación	0
102248	7	Sololá	704	Santa Lucía Utatlán 	7	Santa Rita 	6	Junio	2023-06-28T00:00:00	2024-11-08T07:00:00	8	Radiación solar	85
102249	7	Sololá	704	Santa Lucía Utatlán 	7	Santa Rita 	6	Junio	2023-06-28T00:00:00	2024-11-08T08:00:00	2	Temperatura media	20
102250	7	Sololá	704	Santa Lucía Utatlán 	7	Santa Rita 	6	Junio	2023-06-28T00:00:00	2024-11-08T08:00:00	4	Temperatura máxima	20
102251	7	Sololá	704	Santa Lucía Utatlán 	7	Santa Rita 	6	Junio	2023-06-28T00:00:00	2024-11-08T08:00:00	3	Temperatura mínima	18.3
102252	7	Sololá	704	Santa Lucía Utatlán 	7	Santa Rita 	6	Junio	2023-06-28T00:00:00	2024-11-08T08:00:00	5	Humedad	91
102253	7	Sololá	704	Santa Lucía Utatlán 	7	Santa Rita 	6	Junio	2023-06-28T00:00:00	2024-11-08T08:00:00	6	Velocidad del viento	0
102254	7	Sololá	704	Santa Lucía Utatlán 	7	Santa Rita 	6	Junio	2023-06-28T00:00:00	2024-11-08T08:00:00	7	Dirección del viento	0
102255	7	Sololá	704	Santa Lucía Utatlán 	7	Santa Rita 	6	Junio	2023-06-28T00:00:00	2024-11-08T08:00:00	1	Precipitación	0
102256	7	Sololá	704	Santa Lucía Utatlán 	7	Santa Rita 	6	Junio	2023-06-28T00:00:00	2024-11-08T08:00:00	8	Radiación solar	222
102257	7	Sololá	704	Santa Lucía Utatlán 	7	Santa Rita 	6	Junio	2023-06-28T00:00:00	2024-11-08T09:00:00	2	Temperatura media	21.1
102258	7	Sololá	704	Santa Lucía Utatlán 	7	Santa Rita 	6	Junio	2023-06-28T00:00:00	2024-11-08T09:00:00	4	Temperatura máxima	21.1
102259	7	Sololá	704	Santa Lucía Utatlán 	7	Santa Rita 	6	Junio	2023-06-28T00:00:00	2024-11-08T09:00:00	3	Temperatura mínima	20
102260	7	Sololá	704	Santa Lucía Utatlán 	7	Santa Rita 	6	Junio	2023-06-28T00:00:00	2024-11-08T09:00:00	5	Humedad	82
102261	7	Sololá	704	Santa Lucía Utatlán 	7	Santa Rita 	6	Junio	2023-06-28T00:00:00	2024-11-08T09:00:00	6	Velocidad del viento	1.6
102262	7	Sololá	704	Santa Lucía Utatlán 	7	Santa Rita 	6	Junio	2023-06-28T00:00:00	2024-11-08T09:00:00	7	Dirección del viento	1.61
102263	7	Sololá	704	Santa Lucía Utatlán 	7	Santa Rita 	6	Junio	2023-06-28T00:00:00	2024-11-08T09:00:00	1	Precipitación	0
102264	7	Sololá	704	Santa Lucía Utatlán 	7	Santa Rita 	6	Junio	2023-06-28T00:00:00	2024-11-08T09:00:00	8	Radiación solar	331
102265	7	Sololá	704	Santa Lucía Utatlán 	7	Santa Rita 	6	Junio	2023-06-28T00:00:00	2024-11-08T10:00:00	2	Temperatura media	23.7
102266	7	Sololá	704	Santa Lucía Utatlán 	7	Santa Rita 	6	Junio	2023-06-28T00:00:00	2024-11-08T10:00:00	4	Temperatura máxima	23.8
102267	7	Sololá	704	Santa Lucía Utatlán 	7	Santa Rita 	6	Junio	2023-06-28T00:00:00	2024-11-08T10:00:00	3	Temperatura mínima	21.1
102268	7	Sololá	704	Santa Lucía Utatlán 	7	Santa Rita 	6	Junio	2023-06-28T00:00:00	2024-11-08T10:00:00	5	Humedad	72
102269	7	Sololá	704	Santa Lucía Utatlán 	7	Santa Rita 	6	Junio	2023-06-28T00:00:00	2024-11-08T10:00:00	6	Velocidad del viento	3.2
102270	7	Sololá	704	Santa Lucía Utatlán 	7	Santa Rita 	6	Junio	2023-06-28T00:00:00	2024-11-08T10:00:00	7	Dirección del viento	3.22
102271	7	Sololá	704	Santa Lucía Utatlán 	7	Santa Rita 	6	Junio	2023-06-28T00:00:00	2024-11-08T10:00:00	1	Precipitación	0
102272	7	Sololá	704	Santa Lucía Utatlán 	7	Santa Rita 	6	Junio	2023-06-28T00:00:00	2024-11-08T10:00:00	8	Radiación solar	796
102273	7	Sololá	704	Santa Lucía Utatlán 	7	Santa Rita 	6	Junio	2023-06-28T00:00:00	2024-11-08T11:00:00	2	Temperatura media	23
102274	7	Sololá	704	Santa Lucía Utatlán 	7	Santa Rita 	6	Junio	2023-06-28T00:00:00	2024-11-08T11:00:00	4	Temperatura máxima	23.7
102275	7	Sololá	704	Santa Lucía Utatlán 	7	Santa Rita 	6	Junio	2023-06-28T00:00:00	2024-11-08T11:00:00	3	Temperatura mínima	22.9
102276	7	Sololá	704	Santa Lucía Utatlán 	7	Santa Rita 	6	Junio	2023-06-28T00:00:00	2024-11-08T11:00:00	5	Humedad	74
102277	7	Sololá	704	Santa Lucía Utatlán 	7	Santa Rita 	6	Junio	2023-06-28T00:00:00	2024-11-08T11:00:00	6	Velocidad del viento	4.8
102278	7	Sololá	704	Santa Lucía Utatlán 	7	Santa Rita 	6	Junio	2023-06-28T00:00:00	2024-11-08T11:00:00	7	Dirección del viento	4.83
102279	7	Sololá	704	Santa Lucía Utatlán 	7	Santa Rita 	6	Junio	2023-06-28T00:00:00	2024-11-08T11:00:00	1	Precipitación	0
102280	7	Sololá	704	Santa Lucía Utatlán 	7	Santa Rita 	6	Junio	2023-06-28T00:00:00	2024-11-08T11:00:00	8	Radiación solar	432
102281	7	Sololá	704	Santa Lucía Utatlán 	7	Santa Rita 	6	Junio	2023-06-28T00:00:00	2024-11-08T12:00:00	2	Temperatura media	24.3
102282	7	Sololá	704	Santa Lucía Utatlán 	7	Santa Rita 	6	Junio	2023-06-28T00:00:00	2024-11-08T12:00:00	4	Temperatura máxima	24.3
102283	7	Sololá	704	Santa Lucía Utatlán 	7	Santa Rita 	6	Junio	2023-06-28T00:00:00	2024-11-08T12:00:00	3	Temperatura mínima	22.8
102284	7	Sololá	704	Santa Lucía Utatlán 	7	Santa Rita 	6	Junio	2023-06-28T00:00:00	2024-11-08T12:00:00	5	Humedad	72
102285	7	Sololá	704	Santa Lucía Utatlán 	7	Santa Rita 	6	Junio	2023-06-28T00:00:00	2024-11-08T12:00:00	6	Velocidad del viento	6.4
102286	7	Sololá	704	Santa Lucía Utatlán 	7	Santa Rita 	6	Junio	2023-06-28T00:00:00	2024-11-08T12:00:00	7	Dirección del viento	6.44
102287	7	Sololá	704	Santa Lucía Utatlán 	7	Santa Rita 	6	Junio	2023-06-28T00:00:00	2024-11-08T12:00:00	1	Precipitación	0
102288	7	Sololá	704	Santa Lucía Utatlán 	7	Santa Rita 	6	Junio	2023-06-28T00:00:00	2024-11-08T12:00:00	8	Radiación solar	530
102289	7	Sololá	704	Santa Lucía Utatlán 	7	Santa Rita 	6	Junio	2023-06-28T00:00:00	2024-11-08T13:00:00	2	Temperatura media	25.2
102290	7	Sololá	704	Santa Lucía Utatlán 	7	Santa Rita 	6	Junio	2023-06-28T00:00:00	2024-11-08T13:00:00	4	Temperatura máxima	25.4
102291	7	Sololá	704	Santa Lucía Utatlán 	7	Santa Rita 	6	Junio	2023-06-28T00:00:00	2024-11-08T13:00:00	3	Temperatura mínima	24.3
102292	7	Sololá	704	Santa Lucía Utatlán 	7	Santa Rita 	6	Junio	2023-06-28T00:00:00	2024-11-08T13:00:00	5	Humedad	69
102293	7	Sololá	704	Santa Lucía Utatlán 	7	Santa Rita 	6	Junio	2023-06-28T00:00:00	2024-11-08T13:00:00	6	Velocidad del viento	4.8
102294	7	Sololá	704	Santa Lucía Utatlán 	7	Santa Rita 	6	Junio	2023-06-28T00:00:00	2024-11-08T13:00:00	7	Dirección del viento	4.83
102295	7	Sololá	704	Santa Lucía Utatlán 	7	Santa Rita 	6	Junio	2023-06-28T00:00:00	2024-11-08T13:00:00	1	Precipitación	0
102296	7	Sololá	704	Santa Lucía Utatlán 	7	Santa Rita 	6	Junio	2023-06-28T00:00:00	2024-11-08T13:00:00	8	Radiación solar	1071
102297	7	Sololá	704	Santa Lucía Utatlán 	7	Santa Rita 	6	Junio	2023-06-28T00:00:00	2024-11-08T14:00:00	2	Temperatura media	24.7
102298	7	Sololá	704	Santa Lucía Utatlán 	7	Santa Rita 	6	Junio	2023-06-28T00:00:00	2024-11-08T14:00:00	4	Temperatura máxima	25.4
102299	7	Sololá	704	Santa Lucía Utatlán 	7	Santa Rita 	6	Junio	2023-06-28T00:00:00	2024-11-08T14:00:00	3	Temperatura mínima	24.6
102300	7	Sololá	704	Santa Lucía Utatlán 	7	Santa Rita 	6	Junio	2023-06-28T00:00:00	2024-11-08T14:00:00	5	Humedad	72
102301	7	Sololá	704	Santa Lucía Utatlán 	7	Santa Rita 	6	Junio	2023-06-28T00:00:00	2024-11-08T14:00:00	6	Velocidad del viento	6.4
102302	7	Sololá	704	Santa Lucía Utatlán 	7	Santa Rita 	6	Junio	2023-06-28T00:00:00	2024-11-08T14:00:00	7	Dirección del viento	6.44
102303	7	Sololá	704	Santa Lucía Utatlán 	7	Santa Rita 	6	Junio	2023-06-28T00:00:00	2024-11-08T14:00:00	1	Precipitación	0
102304	7	Sololá	704	Santa Lucía Utatlán 	7	Santa Rita 	6	Junio	2023-06-28T00:00:00	2024-11-08T14:00:00	8	Radiación solar	530
102305	7	Sololá	704	Santa Lucía Utatlán 	7	Santa Rita 	6	Junio	2023-06-28T00:00:00	2024-11-08T15:00:00	2	Temperatura media	23.1
102306	7	Sololá	704	Santa Lucía Utatlán 	7	Santa Rita 	6	Junio	2023-06-28T00:00:00	2024-11-08T15:00:00	4	Temperatura máxima	24.7
102307	7	Sololá	704	Santa Lucía Utatlán 	7	Santa Rita 	6	Junio	2023-06-28T00:00:00	2024-11-08T15:00:00	3	Temperatura mínima	22.9
102308	7	Sololá	704	Santa Lucía Utatlán 	7	Santa Rita 	6	Junio	2023-06-28T00:00:00	2024-11-08T15:00:00	5	Humedad	82
102309	7	Sololá	704	Santa Lucía Utatlán 	7	Santa Rita 	6	Junio	2023-06-28T00:00:00	2024-11-08T15:00:00	6	Velocidad del viento	4.8
102310	7	Sololá	704	Santa Lucía Utatlán 	7	Santa Rita 	6	Junio	2023-06-28T00:00:00	2024-11-08T15:00:00	7	Dirección del viento	4.83
102311	7	Sololá	704	Santa Lucía Utatlán 	7	Santa Rita 	6	Junio	2023-06-28T00:00:00	2024-11-08T15:00:00	1	Precipitación	0
102312	7	Sololá	704	Santa Lucía Utatlán 	7	Santa Rita 	6	Junio	2023-06-28T00:00:00	2024-11-08T15:00:00	8	Radiación solar	278
102313	7	Sololá	704	Santa Lucía Utatlán 	7	Santa Rita 	6	Junio	2023-06-28T00:00:00	2024-11-08T16:00:00	2	Temperatura media	22.2
102314	7	Sololá	704	Santa Lucía Utatlán 	7	Santa Rita 	6	Junio	2023-06-28T00:00:00	2024-11-08T16:00:00	4	Temperatura máxima	23.4
102315	7	Sololá	704	Santa Lucía Utatlán 	7	Santa Rita 	6	Junio	2023-06-28T00:00:00	2024-11-08T16:00:00	3	Temperatura mínima	22.1
102316	7	Sololá	704	Santa Lucía Utatlán 	7	Santa Rita 	6	Junio	2023-06-28T00:00:00	2024-11-08T16:00:00	5	Humedad	88
102317	7	Sololá	704	Santa Lucía Utatlán 	7	Santa Rita 	6	Junio	2023-06-28T00:00:00	2024-11-08T16:00:00	6	Velocidad del viento	3.2
102318	7	Sololá	704	Santa Lucía Utatlán 	7	Santa Rita 	6	Junio	2023-06-28T00:00:00	2024-11-08T16:00:00	7	Dirección del viento	3.22
102319	7	Sololá	704	Santa Lucía Utatlán 	7	Santa Rita 	6	Junio	2023-06-28T00:00:00	2024-11-08T16:00:00	1	Precipitación	0
102320	7	Sololá	704	Santa Lucía Utatlán 	7	Santa Rita 	6	Junio	2023-06-28T00:00:00	2024-11-08T16:00:00	8	Radiación solar	150
102321	7	Sololá	704	Santa Lucía Utatlán 	7	Santa Rita 	6	Junio	2023-06-28T00:00:00	2024-11-08T17:00:00	2	Temperatura media	20.9
102322	7	Sololá	704	Santa Lucía Utatlán 	7	Santa Rita 	6	Junio	2023-06-28T00:00:00	2024-11-08T17:00:00	4	Temperatura máxima	22.2
102323	7	Sololá	704	Santa Lucía Utatlán 	7	Santa Rita 	6	Junio	2023-06-28T00:00:00	2024-11-08T17:00:00	3	Temperatura mínima	20.9
102324	7	Sololá	704	Santa Lucía Utatlán 	7	Santa Rita 	6	Junio	2023-06-28T00:00:00	2024-11-08T17:00:00	5	Humedad	93
102325	7	Sololá	704	Santa Lucía Utatlán 	7	Santa Rita 	6	Junio	2023-06-28T00:00:00	2024-11-08T17:00:00	6	Velocidad del viento	3.2
102326	7	Sololá	704	Santa Lucía Utatlán 	7	Santa Rita 	6	Junio	2023-06-28T00:00:00	2024-11-08T17:00:00	7	Dirección del viento	3.22
102327	7	Sololá	704	Santa Lucía Utatlán 	7	Santa Rita 	6	Junio	2023-06-28T00:00:00	2024-11-08T17:00:00	1	Precipitación	0.4
102328	7	Sololá	704	Santa Lucía Utatlán 	7	Santa Rita 	6	Junio	2023-06-28T00:00:00	2024-11-08T17:00:00	8	Radiación solar	45
102329	7	Sololá	704	Santa Lucía Utatlán 	7	Santa Rita 	6	Junio	2023-06-28T00:00:00	2024-11-08T18:00:00	2	Temperatura media	20.8
102330	7	Sololá	704	Santa Lucía Utatlán 	7	Santa Rita 	6	Junio	2023-06-28T00:00:00	2024-11-08T18:00:00	4	Temperatura máxima	20.9
102331	7	Sololá	704	Santa Lucía Utatlán 	7	Santa Rita 	6	Junio	2023-06-28T00:00:00	2024-11-08T18:00:00	3	Temperatura mínima	20.7
102332	7	Sololá	704	Santa Lucía Utatlán 	7	Santa Rita 	6	Junio	2023-06-28T00:00:00	2024-11-08T18:00:00	5	Humedad	93
102333	7	Sololá	704	Santa Lucía Utatlán 	7	Santa Rita 	6	Junio	2023-06-28T00:00:00	2024-11-08T18:00:00	6	Velocidad del viento	1.6
102334	7	Sololá	704	Santa Lucía Utatlán 	7	Santa Rita 	6	Junio	2023-06-28T00:00:00	2024-11-08T18:00:00	7	Dirección del viento	1.61
102335	7	Sololá	704	Santa Lucía Utatlán 	7	Santa Rita 	6	Junio	2023-06-28T00:00:00	2024-11-08T18:00:00	1	Precipitación	0.4
102336	7	Sololá	704	Santa Lucía Utatlán 	7	Santa Rita 	6	Junio	2023-06-28T00:00:00	2024-11-08T18:00:00	8	Radiación solar	22
102337	7	Sololá	704	Santa Lucía Utatlán 	7	Santa Rita 	6	Junio	2023-06-28T00:00:00	2024-11-08T19:00:00	2	Temperatura media	20.3
102338	7	Sololá	704	Santa Lucía Utatlán 	7	Santa Rita 	6	Junio	2023-06-28T00:00:00	2024-11-08T19:00:00	4	Temperatura máxima	20.8
102339	7	Sololá	704	Santa Lucía Utatlán 	7	Santa Rita 	6	Junio	2023-06-28T00:00:00	2024-11-08T19:00:00	3	Temperatura mínima	20.3
102340	7	Sololá	704	Santa Lucía Utatlán 	7	Santa Rita 	6	Junio	2023-06-28T00:00:00	2024-11-08T19:00:00	5	Humedad	94
102341	7	Sololá	704	Santa Lucía Utatlán 	7	Santa Rita 	6	Junio	2023-06-28T00:00:00	2024-11-08T19:00:00	6	Velocidad del viento	0
102342	7	Sololá	704	Santa Lucía Utatlán 	7	Santa Rita 	6	Junio	2023-06-28T00:00:00	2024-11-08T19:00:00	7	Dirección del viento	0
102343	7	Sololá	704	Santa Lucía Utatlán 	7	Santa Rita 	6	Junio	2023-06-28T00:00:00	2024-11-08T19:00:00	1	Precipitación	0
102344	7	Sololá	704	Santa Lucía Utatlán 	7	Santa Rita 	6	Junio	2023-06-28T00:00:00	2024-11-08T19:00:00	8	Radiación solar	0
102345	7	Sololá	704	Santa Lucía Utatlán 	7	Santa Rita 	6	Junio	2023-06-28T00:00:00	2024-11-08T20:00:00	2	Temperatura media	19.6
102346	7	Sololá	704	Santa Lucía Utatlán 	7	Santa Rita 	6	Junio	2023-06-28T00:00:00	2024-11-08T20:00:00	4	Temperatura máxima	20.3
102347	7	Sololá	704	Santa Lucía Utatlán 	7	Santa Rita 	6	Junio	2023-06-28T00:00:00	2024-11-08T20:00:00	3	Temperatura mínima	19.6
102348	7	Sololá	704	Santa Lucía Utatlán 	7	Santa Rita 	6	Junio	2023-06-28T00:00:00	2024-11-08T20:00:00	5	Humedad	93
102349	7	Sololá	704	Santa Lucía Utatlán 	7	Santa Rita 	6	Junio	2023-06-28T00:00:00	2024-11-08T20:00:00	6	Velocidad del viento	1.6
102350	7	Sololá	704	Santa Lucía Utatlán 	7	Santa Rita 	6	Junio	2023-06-28T00:00:00	2024-11-08T20:00:00	7	Dirección del viento	1.61
102351	7	Sololá	704	Santa Lucía Utatlán 	7	Santa Rita 	6	Junio	2023-06-28T00:00:00	2024-11-08T20:00:00	1	Precipitación	0
102352	7	Sololá	704	Santa Lucía Utatlán 	7	Santa Rita 	6	Junio	2023-06-28T00:00:00	2024-11-08T20:00:00	8	Radiación solar	0
102353	7	Sololá	704	Santa Lucía Utatlán 	7	Santa Rita 	6	Junio	2023-06-28T00:00:00	2024-11-08T21:00:00	2	Temperatura media	19.3
102354	7	Sololá	704	Santa Lucía Utatlán 	7	Santa Rita 	6	Junio	2023-06-28T00:00:00	2024-11-08T21:00:00	4	Temperatura máxima	19.6
102355	7	Sololá	704	Santa Lucía Utatlán 	7	Santa Rita 	6	Junio	2023-06-28T00:00:00	2024-11-08T21:00:00	3	Temperatura mínima	19.2
102356	7	Sololá	704	Santa Lucía Utatlán 	7	Santa Rita 	6	Junio	2023-06-28T00:00:00	2024-11-08T21:00:00	5	Humedad	94
102357	7	Sololá	704	Santa Lucía Utatlán 	7	Santa Rita 	6	Junio	2023-06-28T00:00:00	2024-11-08T21:00:00	6	Velocidad del viento	1.6
102358	7	Sololá	704	Santa Lucía Utatlán 	7	Santa Rita 	6	Junio	2023-06-28T00:00:00	2024-11-08T21:00:00	7	Dirección del viento	1.61
102359	7	Sololá	704	Santa Lucía Utatlán 	7	Santa Rita 	6	Junio	2023-06-28T00:00:00	2024-11-08T21:00:00	1	Precipitación	0
102360	7	Sololá	704	Santa Lucía Utatlán 	7	Santa Rita 	6	Junio	2023-06-28T00:00:00	2024-11-08T21:00:00	8	Radiación solar	0
102361	7	Sololá	704	Santa Lucía Utatlán 	7	Santa Rita 	6	Junio	2023-06-28T00:00:00	2024-11-08T22:00:00	2	Temperatura media	18.6
102362	7	Sololá	704	Santa Lucía Utatlán 	7	Santa Rita 	6	Junio	2023-06-28T00:00:00	2024-11-08T22:00:00	4	Temperatura máxima	19.3
102363	7	Sololá	704	Santa Lucía Utatlán 	7	Santa Rita 	6	Junio	2023-06-28T00:00:00	2024-11-08T22:00:00	3	Temperatura mínima	18.6
102364	7	Sololá	704	Santa Lucía Utatlán 	7	Santa Rita 	6	Junio	2023-06-28T00:00:00	2024-11-08T22:00:00	5	Humedad	94
102365	7	Sololá	704	Santa Lucía Utatlán 	7	Santa Rita 	6	Junio	2023-06-28T00:00:00	2024-11-08T22:00:00	6	Velocidad del viento	3.2
102366	7	Sololá	704	Santa Lucía Utatlán 	7	Santa Rita 	6	Junio	2023-06-28T00:00:00	2024-11-08T22:00:00	7	Dirección del viento	3.22
102367	7	Sololá	704	Santa Lucía Utatlán 	7	Santa Rita 	6	Junio	2023-06-28T00:00:00	2024-11-08T22:00:00	1	Precipitación	0
102368	7	Sololá	704	Santa Lucía Utatlán 	7	Santa Rita 	6	Junio	2023-06-28T00:00:00	2024-11-08T22:00:00	8	Radiación solar	0
102369	7	Sololá	704	Santa Lucía Utatlán 	7	Santa Rita 	6	Junio	2023-06-28T00:00:00	2024-11-08T23:00:00	2	Temperatura media	18.8
102370	7	Sololá	704	Santa Lucía Utatlán 	7	Santa Rita 	6	Junio	2023-06-28T00:00:00	2024-11-08T23:00:00	4	Temperatura máxima	18.8
102371	7	Sololá	704	Santa Lucía Utatlán 	7	Santa Rita 	6	Junio	2023-06-28T00:00:00	2024-11-08T23:00:00	3	Temperatura mínima	18.6
102372	7	Sololá	704	Santa Lucía Utatlán 	7	Santa Rita 	6	Junio	2023-06-28T00:00:00	2024-11-08T23:00:00	5	Humedad	94
102373	7	Sololá	704	Santa Lucía Utatlán 	7	Santa Rita 	6	Junio	2023-06-28T00:00:00	2024-11-08T23:00:00	6	Velocidad del viento	3.2
102374	7	Sololá	704	Santa Lucía Utatlán 	7	Santa Rita 	6	Junio	2023-06-28T00:00:00	2024-11-08T23:00:00	7	Dirección del viento	3.22
102375	7	Sololá	704	Santa Lucía Utatlán 	7	Santa Rita 	6	Junio	2023-06-28T00:00:00	2024-11-08T23:00:00	1	Precipitación	0
102376	7	Sololá	704	Santa Lucía Utatlán 	7	Santa Rita 	6	Junio	2023-06-28T00:00:00	2024-11-08T23:00:00	8	Radiación solar	0
102377	7	Sololá	704	Santa Lucía Utatlán 	7	Santa Rita 	6	Junio	2023-06-29T00:00:00	2024-11-08T00:00:00	2	Temperatura media	19.1
102378	7	Sololá	704	Santa Lucía Utatlán 	7	Santa Rita 	6	Junio	2023-06-29T00:00:00	2024-11-08T00:00:00	4	Temperatura máxima	19.1
102379	7	Sololá	704	Santa Lucía Utatlán 	7	Santa Rita 	6	Junio	2023-06-29T00:00:00	2024-11-08T00:00:00	3	Temperatura mínima	18.6
102380	7	Sololá	704	Santa Lucía Utatlán 	7	Santa Rita 	6	Junio	2023-06-29T00:00:00	2024-11-08T00:00:00	5	Humedad	95
102381	7	Sololá	704	Santa Lucía Utatlán 	7	Santa Rita 	6	Junio	2023-06-29T00:00:00	2024-11-08T00:00:00	6	Velocidad del viento	3.2
102382	7	Sololá	704	Santa Lucía Utatlán 	7	Santa Rita 	6	Junio	2023-06-29T00:00:00	2024-11-08T00:00:00	7	Dirección del viento	3.22
102383	7	Sololá	704	Santa Lucía Utatlán 	7	Santa Rita 	6	Junio	2023-06-29T00:00:00	2024-11-08T00:00:00	1	Precipitación	0
102384	7	Sololá	704	Santa Lucía Utatlán 	7	Santa Rita 	6	Junio	2023-06-29T00:00:00	2024-11-08T00:00:00	8	Radiación solar	0
102385	7	Sololá	704	Santa Lucía Utatlán 	7	Santa Rita 	6	Junio	2023-06-29T00:00:00	2024-11-08T01:00:00	2	Temperatura media	18.4
102386	7	Sololá	704	Santa Lucía Utatlán 	7	Santa Rita 	6	Junio	2023-06-29T00:00:00	2024-11-08T01:00:00	4	Temperatura máxima	19.1
102387	7	Sololá	704	Santa Lucía Utatlán 	7	Santa Rita 	6	Junio	2023-06-29T00:00:00	2024-11-08T01:00:00	3	Temperatura mínima	18.4
102388	7	Sololá	704	Santa Lucía Utatlán 	7	Santa Rita 	6	Junio	2023-06-29T00:00:00	2024-11-08T01:00:00	5	Humedad	94
102389	7	Sololá	704	Santa Lucía Utatlán 	7	Santa Rita 	6	Junio	2023-06-29T00:00:00	2024-11-08T01:00:00	6	Velocidad del viento	1.6
102390	7	Sololá	704	Santa Lucía Utatlán 	7	Santa Rita 	6	Junio	2023-06-29T00:00:00	2024-11-08T01:00:00	7	Dirección del viento	1.61
102391	7	Sololá	704	Santa Lucía Utatlán 	7	Santa Rita 	6	Junio	2023-06-29T00:00:00	2024-11-08T01:00:00	1	Precipitación	0
102392	7	Sololá	704	Santa Lucía Utatlán 	7	Santa Rita 	6	Junio	2023-06-29T00:00:00	2024-11-08T01:00:00	8	Radiación solar	0
102393	7	Sololá	704	Santa Lucía Utatlán 	7	Santa Rita 	6	Junio	2023-06-29T00:00:00	2024-11-08T02:00:00	2	Temperatura media	18.2
102394	7	Sololá	704	Santa Lucía Utatlán 	7	Santa Rita 	6	Junio	2023-06-29T00:00:00	2024-11-08T02:00:00	4	Temperatura máxima	18.6
102395	7	Sololá	704	Santa Lucía Utatlán 	7	Santa Rita 	6	Junio	2023-06-29T00:00:00	2024-11-08T02:00:00	3	Temperatura mínima	18.2
102396	7	Sololá	704	Santa Lucía Utatlán 	7	Santa Rita 	6	Junio	2023-06-29T00:00:00	2024-11-08T02:00:00	5	Humedad	94
102397	7	Sololá	704	Santa Lucía Utatlán 	7	Santa Rita 	6	Junio	2023-06-29T00:00:00	2024-11-08T02:00:00	6	Velocidad del viento	3.2
102398	7	Sololá	704	Santa Lucía Utatlán 	7	Santa Rita 	6	Junio	2023-06-29T00:00:00	2024-11-08T02:00:00	7	Dirección del viento	3.22
102399	7	Sololá	704	Santa Lucía Utatlán 	7	Santa Rita 	6	Junio	2023-06-29T00:00:00	2024-11-08T02:00:00	1	Precipitación	0
102400	7	Sololá	704	Santa Lucía Utatlán 	7	Santa Rita 	6	Junio	2023-06-29T00:00:00	2024-11-08T02:00:00	8	Radiación solar	0
102401	7	Sololá	704	Santa Lucía Utatlán 	7	Santa Rita 	6	Junio	2023-06-29T00:00:00	2024-11-08T03:00:00	2	Temperatura media	17.8
102402	7	Sololá	704	Santa Lucía Utatlán 	7	Santa Rita 	6	Junio	2023-06-29T00:00:00	2024-11-08T03:00:00	4	Temperatura máxima	18.2
102403	7	Sololá	704	Santa Lucía Utatlán 	7	Santa Rita 	6	Junio	2023-06-29T00:00:00	2024-11-08T03:00:00	3	Temperatura mínima	17.8
102404	7	Sololá	704	Santa Lucía Utatlán 	7	Santa Rita 	6	Junio	2023-06-29T00:00:00	2024-11-08T03:00:00	5	Humedad	94
102405	7	Sololá	704	Santa Lucía Utatlán 	7	Santa Rita 	6	Junio	2023-06-29T00:00:00	2024-11-08T03:00:00	6	Velocidad del viento	3.2
102406	7	Sololá	704	Santa Lucía Utatlán 	7	Santa Rita 	6	Junio	2023-06-29T00:00:00	2024-11-08T03:00:00	7	Dirección del viento	3.22
102407	7	Sololá	704	Santa Lucía Utatlán 	7	Santa Rita 	6	Junio	2023-06-29T00:00:00	2024-11-08T03:00:00	1	Precipitación	0
102408	7	Sololá	704	Santa Lucía Utatlán 	7	Santa Rita 	6	Junio	2023-06-29T00:00:00	2024-11-08T03:00:00	8	Radiación solar	0
102409	7	Sololá	704	Santa Lucía Utatlán 	7	Santa Rita 	6	Junio	2023-06-29T00:00:00	2024-11-08T04:00:00	2	Temperatura media	17.9
102410	7	Sololá	704	Santa Lucía Utatlán 	7	Santa Rita 	6	Junio	2023-06-29T00:00:00	2024-11-08T04:00:00	4	Temperatura máxima	18
102411	7	Sololá	704	Santa Lucía Utatlán 	7	Santa Rita 	6	Junio	2023-06-29T00:00:00	2024-11-08T04:00:00	3	Temperatura mínima	17.8
102412	7	Sololá	704	Santa Lucía Utatlán 	7	Santa Rita 	6	Junio	2023-06-29T00:00:00	2024-11-08T04:00:00	5	Humedad	94
102413	7	Sololá	704	Santa Lucía Utatlán 	7	Santa Rita 	6	Junio	2023-06-29T00:00:00	2024-11-08T04:00:00	6	Velocidad del viento	3.2
102414	7	Sololá	704	Santa Lucía Utatlán 	7	Santa Rita 	6	Junio	2023-06-29T00:00:00	2024-11-08T04:00:00	7	Dirección del viento	3.22
102415	7	Sololá	704	Santa Lucía Utatlán 	7	Santa Rita 	6	Junio	2023-06-29T00:00:00	2024-11-08T04:00:00	1	Precipitación	0
102416	7	Sololá	704	Santa Lucía Utatlán 	7	Santa Rita 	6	Junio	2023-06-29T00:00:00	2024-11-08T04:00:00	8	Radiación solar	0
102417	7	Sololá	704	Santa Lucía Utatlán 	7	Santa Rita 	6	Junio	2023-06-29T00:00:00	2024-11-08T05:00:00	2	Temperatura media	17.9
102418	7	Sololá	704	Santa Lucía Utatlán 	7	Santa Rita 	6	Junio	2023-06-29T00:00:00	2024-11-08T05:00:00	4	Temperatura máxima	18.1
102419	7	Sololá	704	Santa Lucía Utatlán 	7	Santa Rita 	6	Junio	2023-06-29T00:00:00	2024-11-08T05:00:00	3	Temperatura mínima	17.8
102420	7	Sololá	704	Santa Lucía Utatlán 	7	Santa Rita 	6	Junio	2023-06-29T00:00:00	2024-11-08T05:00:00	5	Humedad	93
102421	7	Sololá	704	Santa Lucía Utatlán 	7	Santa Rita 	6	Junio	2023-06-29T00:00:00	2024-11-08T05:00:00	6	Velocidad del viento	3.2
102422	7	Sololá	704	Santa Lucía Utatlán 	7	Santa Rita 	6	Junio	2023-06-29T00:00:00	2024-11-08T05:00:00	7	Dirección del viento	3.22
102423	7	Sololá	704	Santa Lucía Utatlán 	7	Santa Rita 	6	Junio	2023-06-29T00:00:00	2024-11-08T05:00:00	1	Precipitación	0
102424	7	Sololá	704	Santa Lucía Utatlán 	7	Santa Rita 	6	Junio	2023-06-29T00:00:00	2024-11-08T05:00:00	8	Radiación solar	0
102425	7	Sololá	704	Santa Lucía Utatlán 	7	Santa Rita 	6	Junio	2023-06-29T00:00:00	2024-11-08T06:00:00	2	Temperatura media	18
102426	7	Sololá	704	Santa Lucía Utatlán 	7	Santa Rita 	6	Junio	2023-06-29T00:00:00	2024-11-08T06:00:00	4	Temperatura máxima	18.1
102427	7	Sololá	704	Santa Lucía Utatlán 	7	Santa Rita 	6	Junio	2023-06-29T00:00:00	2024-11-08T06:00:00	3	Temperatura mínima	17.9
102428	7	Sololá	704	Santa Lucía Utatlán 	7	Santa Rita 	6	Junio	2023-06-29T00:00:00	2024-11-08T06:00:00	5	Humedad	92
102429	7	Sololá	704	Santa Lucía Utatlán 	7	Santa Rita 	6	Junio	2023-06-29T00:00:00	2024-11-08T06:00:00	6	Velocidad del viento	4.8
102430	7	Sololá	704	Santa Lucía Utatlán 	7	Santa Rita 	6	Junio	2023-06-29T00:00:00	2024-11-08T06:00:00	7	Dirección del viento	4.83
102431	7	Sololá	704	Santa Lucía Utatlán 	7	Santa Rita 	6	Junio	2023-06-29T00:00:00	2024-11-08T06:00:00	1	Precipitación	0
102432	7	Sololá	704	Santa Lucía Utatlán 	7	Santa Rita 	6	Junio	2023-06-29T00:00:00	2024-11-08T06:00:00	8	Radiación solar	1
102433	7	Sololá	704	Santa Lucía Utatlán 	7	Santa Rita 	6	Junio	2023-06-29T00:00:00	2024-11-08T07:00:00	2	Temperatura media	19.8
102434	7	Sololá	704	Santa Lucía Utatlán 	7	Santa Rita 	6	Junio	2023-06-29T00:00:00	2024-11-08T07:00:00	4	Temperatura máxima	19.8
102435	7	Sololá	704	Santa Lucía Utatlán 	7	Santa Rita 	6	Junio	2023-06-29T00:00:00	2024-11-08T07:00:00	3	Temperatura mínima	17.9
102436	7	Sololá	704	Santa Lucía Utatlán 	7	Santa Rita 	6	Junio	2023-06-29T00:00:00	2024-11-08T07:00:00	5	Humedad	89
102437	7	Sololá	704	Santa Lucía Utatlán 	7	Santa Rita 	6	Junio	2023-06-29T00:00:00	2024-11-08T07:00:00	6	Velocidad del viento	1.6
102438	7	Sololá	704	Santa Lucía Utatlán 	7	Santa Rita 	6	Junio	2023-06-29T00:00:00	2024-11-08T07:00:00	7	Dirección del viento	1.61
102439	7	Sololá	704	Santa Lucía Utatlán 	7	Santa Rita 	6	Junio	2023-06-29T00:00:00	2024-11-08T07:00:00	1	Precipitación	0
102440	7	Sololá	704	Santa Lucía Utatlán 	7	Santa Rita 	6	Junio	2023-06-29T00:00:00	2024-11-08T07:00:00	8	Radiación solar	70
102441	7	Sololá	704	Santa Lucía Utatlán 	7	Santa Rita 	6	Junio	2023-06-29T00:00:00	2024-11-08T08:00:00	2	Temperatura media	22.4
102442	7	Sololá	704	Santa Lucía Utatlán 	7	Santa Rita 	6	Junio	2023-06-29T00:00:00	2024-11-08T08:00:00	4	Temperatura máxima	22.5
102443	7	Sololá	704	Santa Lucía Utatlán 	7	Santa Rita 	6	Junio	2023-06-29T00:00:00	2024-11-08T08:00:00	3	Temperatura mínima	19.8
102444	7	Sololá	704	Santa Lucía Utatlán 	7	Santa Rita 	6	Junio	2023-06-29T00:00:00	2024-11-08T08:00:00	5	Humedad	79
102445	7	Sololá	704	Santa Lucía Utatlán 	7	Santa Rita 	6	Junio	2023-06-29T00:00:00	2024-11-08T08:00:00	6	Velocidad del viento	3.2
102446	7	Sololá	704	Santa Lucía Utatlán 	7	Santa Rita 	6	Junio	2023-06-29T00:00:00	2024-11-08T08:00:00	7	Dirección del viento	3.22
102447	7	Sololá	704	Santa Lucía Utatlán 	7	Santa Rita 	6	Junio	2023-06-29T00:00:00	2024-11-08T08:00:00	1	Precipitación	0
102448	7	Sololá	704	Santa Lucía Utatlán 	7	Santa Rita 	6	Junio	2023-06-29T00:00:00	2024-11-08T08:00:00	8	Radiación solar	382
102449	7	Sololá	704	Santa Lucía Utatlán 	7	Santa Rita 	6	Junio	2023-06-29T00:00:00	2024-11-08T09:00:00	2	Temperatura media	25.2
102450	7	Sololá	704	Santa Lucía Utatlán 	7	Santa Rita 	6	Junio	2023-06-29T00:00:00	2024-11-08T09:00:00	4	Temperatura máxima	25.2
102451	7	Sololá	704	Santa Lucía Utatlán 	7	Santa Rita 	6	Junio	2023-06-29T00:00:00	2024-11-08T09:00:00	3	Temperatura mínima	22.4
102452	7	Sololá	704	Santa Lucía Utatlán 	7	Santa Rita 	6	Junio	2023-06-29T00:00:00	2024-11-08T09:00:00	5	Humedad	66
102453	7	Sololá	704	Santa Lucía Utatlán 	7	Santa Rita 	6	Junio	2023-06-29T00:00:00	2024-11-08T09:00:00	6	Velocidad del viento	3.2
102454	7	Sololá	704	Santa Lucía Utatlán 	7	Santa Rita 	6	Junio	2023-06-29T00:00:00	2024-11-08T09:00:00	7	Dirección del viento	3.22
102455	7	Sololá	704	Santa Lucía Utatlán 	7	Santa Rita 	6	Junio	2023-06-29T00:00:00	2024-11-08T09:00:00	1	Precipitación	0
102456	7	Sololá	704	Santa Lucía Utatlán 	7	Santa Rita 	6	Junio	2023-06-29T00:00:00	2024-11-08T09:00:00	8	Radiación solar	574
102457	7	Sololá	704	Santa Lucía Utatlán 	7	Santa Rita 	6	Junio	2023-06-29T00:00:00	2024-11-08T10:00:00	2	Temperatura media	24.6
102458	7	Sololá	704	Santa Lucía Utatlán 	7	Santa Rita 	6	Junio	2023-06-29T00:00:00	2024-11-08T10:00:00	4	Temperatura máxima	25.2
102459	7	Sololá	704	Santa Lucía Utatlán 	7	Santa Rita 	6	Junio	2023-06-29T00:00:00	2024-11-08T10:00:00	3	Temperatura mínima	24.6
102460	7	Sololá	704	Santa Lucía Utatlán 	7	Santa Rita 	6	Junio	2023-06-29T00:00:00	2024-11-08T10:00:00	5	Humedad	66
102461	7	Sololá	704	Santa Lucía Utatlán 	7	Santa Rita 	6	Junio	2023-06-29T00:00:00	2024-11-08T10:00:00	6	Velocidad del viento	9.7
102462	7	Sololá	704	Santa Lucía Utatlán 	7	Santa Rita 	6	Junio	2023-06-29T00:00:00	2024-11-08T10:00:00	7	Dirección del viento	9.66
102463	7	Sololá	704	Santa Lucía Utatlán 	7	Santa Rita 	6	Junio	2023-06-29T00:00:00	2024-11-08T10:00:00	1	Precipitación	0
102464	7	Sololá	704	Santa Lucía Utatlán 	7	Santa Rita 	6	Junio	2023-06-29T00:00:00	2024-11-08T10:00:00	8	Radiación solar	636
102465	7	Sololá	704	Santa Lucía Utatlán 	7	Santa Rita 	6	Junio	2023-06-29T00:00:00	2024-11-08T11:00:00	2	Temperatura media	24.7
102466	7	Sololá	704	Santa Lucía Utatlán 	7	Santa Rita 	6	Junio	2023-06-29T00:00:00	2024-11-08T11:00:00	4	Temperatura máxima	24.7
102467	7	Sololá	704	Santa Lucía Utatlán 	7	Santa Rita 	6	Junio	2023-06-29T00:00:00	2024-11-08T11:00:00	3	Temperatura mínima	24.3
102468	7	Sololá	704	Santa Lucía Utatlán 	7	Santa Rita 	6	Junio	2023-06-29T00:00:00	2024-11-08T11:00:00	5	Humedad	66
102469	7	Sololá	704	Santa Lucía Utatlán 	7	Santa Rita 	6	Junio	2023-06-29T00:00:00	2024-11-08T11:00:00	6	Velocidad del viento	6.4
102470	7	Sololá	704	Santa Lucía Utatlán 	7	Santa Rita 	6	Junio	2023-06-29T00:00:00	2024-11-08T11:00:00	7	Dirección del viento	6.44
102471	7	Sololá	704	Santa Lucía Utatlán 	7	Santa Rita 	6	Junio	2023-06-29T00:00:00	2024-11-08T11:00:00	1	Precipitación	0
102472	7	Sololá	704	Santa Lucía Utatlán 	7	Santa Rita 	6	Junio	2023-06-29T00:00:00	2024-11-08T11:00:00	8	Radiación solar	539
102473	7	Sololá	704	Santa Lucía Utatlán 	7	Santa Rita 	6	Junio	2023-06-29T00:00:00	2024-11-08T12:00:00	2	Temperatura media	25.1
102474	7	Sololá	704	Santa Lucía Utatlán 	7	Santa Rita 	6	Junio	2023-06-29T00:00:00	2024-11-08T12:00:00	4	Temperatura máxima	25.7
102475	7	Sololá	704	Santa Lucía Utatlán 	7	Santa Rita 	6	Junio	2023-06-29T00:00:00	2024-11-08T12:00:00	3	Temperatura mínima	24.7
102476	7	Sololá	704	Santa Lucía Utatlán 	7	Santa Rita 	6	Junio	2023-06-29T00:00:00	2024-11-08T12:00:00	5	Humedad	73
102477	7	Sololá	704	Santa Lucía Utatlán 	7	Santa Rita 	6	Junio	2023-06-29T00:00:00	2024-11-08T12:00:00	6	Velocidad del viento	8
102478	7	Sololá	704	Santa Lucía Utatlán 	7	Santa Rita 	6	Junio	2023-06-29T00:00:00	2024-11-08T12:00:00	7	Dirección del viento	8.05
102479	7	Sololá	704	Santa Lucía Utatlán 	7	Santa Rita 	6	Junio	2023-06-29T00:00:00	2024-11-08T12:00:00	1	Precipitación	0
102480	7	Sololá	704	Santa Lucía Utatlán 	7	Santa Rita 	6	Junio	2023-06-29T00:00:00	2024-11-08T12:00:00	8	Radiación solar	758
102481	7	Sololá	704	Santa Lucía Utatlán 	7	Santa Rita 	6	Junio	2023-06-29T00:00:00	2024-11-08T13:00:00	2	Temperatura media	25.1
102482	7	Sololá	704	Santa Lucía Utatlán 	7	Santa Rita 	6	Junio	2023-06-29T00:00:00	2024-11-08T13:00:00	4	Temperatura máxima	25.1
102483	7	Sololá	704	Santa Lucía Utatlán 	7	Santa Rita 	6	Junio	2023-06-29T00:00:00	2024-11-08T13:00:00	3	Temperatura mínima	24.3
102484	7	Sololá	704	Santa Lucía Utatlán 	7	Santa Rita 	6	Junio	2023-06-29T00:00:00	2024-11-08T13:00:00	5	Humedad	74
102485	7	Sololá	704	Santa Lucía Utatlán 	7	Santa Rita 	6	Junio	2023-06-29T00:00:00	2024-11-08T13:00:00	6	Velocidad del viento	9.7
102486	7	Sololá	704	Santa Lucía Utatlán 	7	Santa Rita 	6	Junio	2023-06-29T00:00:00	2024-11-08T13:00:00	7	Dirección del viento	9.66
102487	7	Sololá	704	Santa Lucía Utatlán 	7	Santa Rita 	6	Junio	2023-06-29T00:00:00	2024-11-08T13:00:00	1	Precipitación	0
102488	7	Sololá	704	Santa Lucía Utatlán 	7	Santa Rita 	6	Junio	2023-06-29T00:00:00	2024-11-08T13:00:00	8	Radiación solar	381
102489	7	Sololá	704	Santa Lucía Utatlán 	7	Santa Rita 	6	Junio	2023-06-29T00:00:00	2024-11-08T14:00:00	2	Temperatura media	25.1
102490	7	Sololá	704	Santa Lucía Utatlán 	7	Santa Rita 	6	Junio	2023-06-29T00:00:00	2024-11-08T14:00:00	4	Temperatura máxima	25.3
102491	7	Sololá	704	Santa Lucía Utatlán 	7	Santa Rita 	6	Junio	2023-06-29T00:00:00	2024-11-08T14:00:00	3	Temperatura mínima	24.5
102492	7	Sololá	704	Santa Lucía Utatlán 	7	Santa Rita 	6	Junio	2023-06-29T00:00:00	2024-11-08T14:00:00	5	Humedad	74
102493	7	Sololá	704	Santa Lucía Utatlán 	7	Santa Rita 	6	Junio	2023-06-29T00:00:00	2024-11-08T14:00:00	6	Velocidad del viento	9.7
102494	7	Sololá	704	Santa Lucía Utatlán 	7	Santa Rita 	6	Junio	2023-06-29T00:00:00	2024-11-08T14:00:00	7	Dirección del viento	9.66
102495	7	Sololá	704	Santa Lucía Utatlán 	7	Santa Rita 	6	Junio	2023-06-29T00:00:00	2024-11-08T14:00:00	1	Precipitación	0
102496	7	Sololá	704	Santa Lucía Utatlán 	7	Santa Rita 	6	Junio	2023-06-29T00:00:00	2024-11-08T14:00:00	8	Radiación solar	388
102497	7	Sololá	704	Santa Lucía Utatlán 	7	Santa Rita 	6	Junio	2023-06-29T00:00:00	2024-11-08T15:00:00	2	Temperatura media	24.3
102498	7	Sololá	704	Santa Lucía Utatlán 	7	Santa Rita 	6	Junio	2023-06-29T00:00:00	2024-11-08T15:00:00	4	Temperatura máxima	25.2
102499	7	Sololá	704	Santa Lucía Utatlán 	7	Santa Rita 	6	Junio	2023-06-29T00:00:00	2024-11-08T15:00:00	3	Temperatura mínima	24.2
102500	7	Sololá	704	Santa Lucía Utatlán 	7	Santa Rita 	6	Junio	2023-06-29T00:00:00	2024-11-08T15:00:00	5	Humedad	77
102501	7	Sololá	704	Santa Lucía Utatlán 	7	Santa Rita 	6	Junio	2023-06-29T00:00:00	2024-11-08T15:00:00	6	Velocidad del viento	9.7
102502	7	Sololá	704	Santa Lucía Utatlán 	7	Santa Rita 	6	Junio	2023-06-29T00:00:00	2024-11-08T15:00:00	7	Dirección del viento	9.66
102503	7	Sololá	704	Santa Lucía Utatlán 	7	Santa Rita 	6	Junio	2023-06-29T00:00:00	2024-11-08T15:00:00	1	Precipitación	0
102504	7	Sololá	704	Santa Lucía Utatlán 	7	Santa Rita 	6	Junio	2023-06-29T00:00:00	2024-11-08T15:00:00	8	Radiación solar	361
102505	7	Sololá	704	Santa Lucía Utatlán 	7	Santa Rita 	6	Junio	2023-06-29T00:00:00	2024-11-08T16:00:00	2	Temperatura media	23.8
102506	7	Sololá	704	Santa Lucía Utatlán 	7	Santa Rita 	6	Junio	2023-06-29T00:00:00	2024-11-08T16:00:00	4	Temperatura máxima	24.6
102507	7	Sololá	704	Santa Lucía Utatlán 	7	Santa Rita 	6	Junio	2023-06-29T00:00:00	2024-11-08T16:00:00	3	Temperatura mínima	23.6
102508	7	Sololá	704	Santa Lucía Utatlán 	7	Santa Rita 	6	Junio	2023-06-29T00:00:00	2024-11-08T16:00:00	5	Humedad	73
102509	7	Sololá	704	Santa Lucía Utatlán 	7	Santa Rita 	6	Junio	2023-06-29T00:00:00	2024-11-08T16:00:00	6	Velocidad del viento	8
102510	7	Sololá	704	Santa Lucía Utatlán 	7	Santa Rita 	6	Junio	2023-06-29T00:00:00	2024-11-08T16:00:00	7	Dirección del viento	8.05
102511	7	Sololá	704	Santa Lucía Utatlán 	7	Santa Rita 	6	Junio	2023-06-29T00:00:00	2024-11-08T16:00:00	1	Precipitación	0
102512	7	Sololá	704	Santa Lucía Utatlán 	7	Santa Rita 	6	Junio	2023-06-29T00:00:00	2024-11-08T16:00:00	8	Radiación solar	181
102513	7	Sololá	704	Santa Lucía Utatlán 	7	Santa Rita 	6	Junio	2023-06-29T00:00:00	2024-11-08T17:00:00	2	Temperatura media	22.8
102514	7	Sololá	704	Santa Lucía Utatlán 	7	Santa Rita 	6	Junio	2023-06-29T00:00:00	2024-11-08T17:00:00	4	Temperatura máxima	23.8
102515	7	Sololá	704	Santa Lucía Utatlán 	7	Santa Rita 	6	Junio	2023-06-29T00:00:00	2024-11-08T17:00:00	3	Temperatura mínima	22.8
102516	7	Sololá	704	Santa Lucía Utatlán 	7	Santa Rita 	6	Junio	2023-06-29T00:00:00	2024-11-08T17:00:00	5	Humedad	87
102517	7	Sololá	704	Santa Lucía Utatlán 	7	Santa Rita 	6	Junio	2023-06-29T00:00:00	2024-11-08T17:00:00	6	Velocidad del viento	4.8
102518	7	Sololá	704	Santa Lucía Utatlán 	7	Santa Rita 	6	Junio	2023-06-29T00:00:00	2024-11-08T17:00:00	7	Dirección del viento	4.83
102519	7	Sololá	704	Santa Lucía Utatlán 	7	Santa Rita 	6	Junio	2023-06-29T00:00:00	2024-11-08T17:00:00	1	Precipitación	0
102520	7	Sololá	704	Santa Lucía Utatlán 	7	Santa Rita 	6	Junio	2023-06-29T00:00:00	2024-11-08T17:00:00	8	Radiación solar	100
102521	7	Sololá	704	Santa Lucía Utatlán 	7	Santa Rita 	6	Junio	2023-06-29T00:00:00	2024-11-08T18:00:00	2	Temperatura media	21.2
102522	7	Sololá	704	Santa Lucía Utatlán 	7	Santa Rita 	6	Junio	2023-06-29T00:00:00	2024-11-08T18:00:00	4	Temperatura máxima	22.8
102523	7	Sololá	704	Santa Lucía Utatlán 	7	Santa Rita 	6	Junio	2023-06-29T00:00:00	2024-11-08T18:00:00	3	Temperatura mínima	21.2
102524	7	Sololá	704	Santa Lucía Utatlán 	7	Santa Rita 	6	Junio	2023-06-29T00:00:00	2024-11-08T18:00:00	5	Humedad	87
102525	7	Sololá	704	Santa Lucía Utatlán 	7	Santa Rita 	6	Junio	2023-06-29T00:00:00	2024-11-08T18:00:00	6	Velocidad del viento	4.8
102526	7	Sololá	704	Santa Lucía Utatlán 	7	Santa Rita 	6	Junio	2023-06-29T00:00:00	2024-11-08T18:00:00	7	Dirección del viento	4.83
102527	7	Sololá	704	Santa Lucía Utatlán 	7	Santa Rita 	6	Junio	2023-06-29T00:00:00	2024-11-08T18:00:00	1	Precipitación	0
102528	7	Sololá	704	Santa Lucía Utatlán 	7	Santa Rita 	6	Junio	2023-06-29T00:00:00	2024-11-08T18:00:00	8	Radiación solar	25
102529	7	Sololá	704	Santa Lucía Utatlán 	7	Santa Rita 	6	Junio	2023-06-29T00:00:00	2024-11-08T19:00:00	2	Temperatura media	21
102530	7	Sololá	704	Santa Lucía Utatlán 	7	Santa Rita 	6	Junio	2023-06-29T00:00:00	2024-11-08T19:00:00	4	Temperatura máxima	21.3
102531	7	Sololá	704	Santa Lucía Utatlán 	7	Santa Rita 	6	Junio	2023-06-29T00:00:00	2024-11-08T19:00:00	3	Temperatura mínima	20.9
102532	7	Sololá	704	Santa Lucía Utatlán 	7	Santa Rita 	6	Junio	2023-06-29T00:00:00	2024-11-08T19:00:00	5	Humedad	91
102533	7	Sololá	704	Santa Lucía Utatlán 	7	Santa Rita 	6	Junio	2023-06-29T00:00:00	2024-11-08T19:00:00	6	Velocidad del viento	1.6
102534	7	Sololá	704	Santa Lucía Utatlán 	7	Santa Rita 	6	Junio	2023-06-29T00:00:00	2024-11-08T19:00:00	7	Dirección del viento	1.61
102535	7	Sololá	704	Santa Lucía Utatlán 	7	Santa Rita 	6	Junio	2023-06-29T00:00:00	2024-11-08T19:00:00	1	Precipitación	0.2
102536	7	Sololá	704	Santa Lucía Utatlán 	7	Santa Rita 	6	Junio	2023-06-29T00:00:00	2024-11-08T19:00:00	8	Radiación solar	0
102537	7	Sololá	704	Santa Lucía Utatlán 	7	Santa Rita 	6	Junio	2023-06-29T00:00:00	2024-11-08T20:00:00	2	Temperatura media	20.3
102538	7	Sololá	704	Santa Lucía Utatlán 	7	Santa Rita 	6	Junio	2023-06-29T00:00:00	2024-11-08T20:00:00	4	Temperatura máxima	21
102539	7	Sololá	704	Santa Lucía Utatlán 	7	Santa Rita 	6	Junio	2023-06-29T00:00:00	2024-11-08T20:00:00	3	Temperatura mínima	20.3
102540	7	Sololá	704	Santa Lucía Utatlán 	7	Santa Rita 	6	Junio	2023-06-29T00:00:00	2024-11-08T20:00:00	5	Humedad	85
102541	7	Sololá	704	Santa Lucía Utatlán 	7	Santa Rita 	6	Junio	2023-06-29T00:00:00	2024-11-08T20:00:00	6	Velocidad del viento	1.6
102542	7	Sololá	704	Santa Lucía Utatlán 	7	Santa Rita 	6	Junio	2023-06-29T00:00:00	2024-11-08T20:00:00	7	Dirección del viento	1.61
102543	7	Sololá	704	Santa Lucía Utatlán 	7	Santa Rita 	6	Junio	2023-06-29T00:00:00	2024-11-08T20:00:00	1	Precipitación	0
102544	7	Sololá	704	Santa Lucía Utatlán 	7	Santa Rita 	6	Junio	2023-06-29T00:00:00	2024-11-08T20:00:00	8	Radiación solar	0
102545	7	Sololá	704	Santa Lucía Utatlán 	7	Santa Rita 	6	Junio	2023-06-29T00:00:00	2024-11-08T21:00:00	2	Temperatura media	19.3
102546	7	Sololá	704	Santa Lucía Utatlán 	7	Santa Rita 	6	Junio	2023-06-29T00:00:00	2024-11-08T21:00:00	4	Temperatura máxima	20.4
102547	7	Sololá	704	Santa Lucía Utatlán 	7	Santa Rita 	6	Junio	2023-06-29T00:00:00	2024-11-08T21:00:00	3	Temperatura mínima	19.3
102548	7	Sololá	704	Santa Lucía Utatlán 	7	Santa Rita 	6	Junio	2023-06-29T00:00:00	2024-11-08T21:00:00	5	Humedad	86
102549	7	Sololá	704	Santa Lucía Utatlán 	7	Santa Rita 	6	Junio	2023-06-29T00:00:00	2024-11-08T21:00:00	6	Velocidad del viento	3.2
102550	7	Sololá	704	Santa Lucía Utatlán 	7	Santa Rita 	6	Junio	2023-06-29T00:00:00	2024-11-08T21:00:00	7	Dirección del viento	3.22
102551	7	Sololá	704	Santa Lucía Utatlán 	7	Santa Rita 	6	Junio	2023-06-29T00:00:00	2024-11-08T21:00:00	1	Precipitación	0
102552	7	Sololá	704	Santa Lucía Utatlán 	7	Santa Rita 	6	Junio	2023-06-29T00:00:00	2024-11-08T21:00:00	8	Radiación solar	0
102553	7	Sololá	704	Santa Lucía Utatlán 	7	Santa Rita 	6	Junio	2023-06-29T00:00:00	2024-11-08T22:00:00	2	Temperatura media	19.2
102554	7	Sololá	704	Santa Lucía Utatlán 	7	Santa Rita 	6	Junio	2023-06-29T00:00:00	2024-11-08T22:00:00	4	Temperatura máxima	19.8
102555	7	Sololá	704	Santa Lucía Utatlán 	7	Santa Rita 	6	Junio	2023-06-29T00:00:00	2024-11-08T22:00:00	3	Temperatura mínima	19.1
102556	7	Sololá	704	Santa Lucía Utatlán 	7	Santa Rita 	6	Junio	2023-06-29T00:00:00	2024-11-08T22:00:00	5	Humedad	86
102557	7	Sololá	704	Santa Lucía Utatlán 	7	Santa Rita 	6	Junio	2023-06-29T00:00:00	2024-11-08T22:00:00	6	Velocidad del viento	1.6
102558	7	Sololá	704	Santa Lucía Utatlán 	7	Santa Rita 	6	Junio	2023-06-29T00:00:00	2024-11-08T22:00:00	7	Dirección del viento	1.61
102559	7	Sololá	704	Santa Lucía Utatlán 	7	Santa Rita 	6	Junio	2023-06-29T00:00:00	2024-11-08T22:00:00	1	Precipitación	0
102560	7	Sololá	704	Santa Lucía Utatlán 	7	Santa Rita 	6	Junio	2023-06-29T00:00:00	2024-11-08T22:00:00	8	Radiación solar	0
102561	7	Sololá	704	Santa Lucía Utatlán 	7	Santa Rita 	6	Junio	2023-06-29T00:00:00	2024-11-08T23:00:00	2	Temperatura media	18.8
102562	7	Sololá	704	Santa Lucía Utatlán 	7	Santa Rita 	6	Junio	2023-06-29T00:00:00	2024-11-08T23:00:00	4	Temperatura máxima	19.2
102563	7	Sololá	704	Santa Lucía Utatlán 	7	Santa Rita 	6	Junio	2023-06-29T00:00:00	2024-11-08T23:00:00	3	Temperatura mínima	18.7
102564	7	Sololá	704	Santa Lucía Utatlán 	7	Santa Rita 	6	Junio	2023-06-29T00:00:00	2024-11-08T23:00:00	5	Humedad	84
102565	7	Sololá	704	Santa Lucía Utatlán 	7	Santa Rita 	6	Junio	2023-06-29T00:00:00	2024-11-08T23:00:00	6	Velocidad del viento	3.2
102566	7	Sololá	704	Santa Lucía Utatlán 	7	Santa Rita 	6	Junio	2023-06-29T00:00:00	2024-11-08T23:00:00	7	Dirección del viento	3.22
102567	7	Sololá	704	Santa Lucía Utatlán 	7	Santa Rita 	6	Junio	2023-06-29T00:00:00	2024-11-08T23:00:00	1	Precipitación	0
102568	7	Sololá	704	Santa Lucía Utatlán 	7	Santa Rita 	6	Junio	2023-06-29T00:00:00	2024-11-08T23:00:00	8	Radiación solar	0
102569	7	Sololá	704	Santa Lucía Utatlán 	7	Santa Rita 	6	Junio	2023-06-30T00:00:00	2024-11-08T00:00:00	2	Temperatura media	18.8
102570	7	Sololá	704	Santa Lucía Utatlán 	7	Santa Rita 	6	Junio	2023-06-30T00:00:00	2024-11-08T00:00:00	4	Temperatura máxima	18.9
102571	7	Sololá	704	Santa Lucía Utatlán 	7	Santa Rita 	6	Junio	2023-06-30T00:00:00	2024-11-08T00:00:00	3	Temperatura mínima	18.6
102572	7	Sololá	704	Santa Lucía Utatlán 	7	Santa Rita 	6	Junio	2023-06-30T00:00:00	2024-11-08T00:00:00	5	Humedad	86
102573	7	Sololá	704	Santa Lucía Utatlán 	7	Santa Rita 	6	Junio	2023-06-30T00:00:00	2024-11-08T00:00:00	6	Velocidad del viento	3.2
102574	7	Sololá	704	Santa Lucía Utatlán 	7	Santa Rita 	6	Junio	2023-06-30T00:00:00	2024-11-08T00:00:00	7	Dirección del viento	3.22
102575	7	Sololá	704	Santa Lucía Utatlán 	7	Santa Rita 	6	Junio	2023-06-30T00:00:00	2024-11-08T00:00:00	1	Precipitación	0
102576	7	Sololá	704	Santa Lucía Utatlán 	7	Santa Rita 	6	Junio	2023-06-30T00:00:00	2024-11-08T00:00:00	8	Radiación solar	0
102577	7	Sololá	704	Santa Lucía Utatlán 	7	Santa Rita 	6	Junio	2023-06-30T00:00:00	2024-11-08T01:00:00	2	Temperatura media	17.9
102578	7	Sololá	704	Santa Lucía Utatlán 	7	Santa Rita 	6	Junio	2023-06-30T00:00:00	2024-11-08T01:00:00	4	Temperatura máxima	18.8
102579	7	Sololá	704	Santa Lucía Utatlán 	7	Santa Rita 	6	Junio	2023-06-30T00:00:00	2024-11-08T01:00:00	3	Temperatura mínima	17.7
102580	7	Sololá	704	Santa Lucía Utatlán 	7	Santa Rita 	6	Junio	2023-06-30T00:00:00	2024-11-08T01:00:00	5	Humedad	84
102581	7	Sololá	704	Santa Lucía Utatlán 	7	Santa Rita 	6	Junio	2023-06-30T00:00:00	2024-11-08T01:00:00	6	Velocidad del viento	3.2
102582	7	Sololá	704	Santa Lucía Utatlán 	7	Santa Rita 	6	Junio	2023-06-30T00:00:00	2024-11-08T01:00:00	7	Dirección del viento	3.22
102583	7	Sololá	704	Santa Lucía Utatlán 	7	Santa Rita 	6	Junio	2023-06-30T00:00:00	2024-11-08T01:00:00	1	Precipitación	0
102584	7	Sololá	704	Santa Lucía Utatlán 	7	Santa Rita 	6	Junio	2023-06-30T00:00:00	2024-11-08T01:00:00	8	Radiación solar	0
102585	7	Sololá	704	Santa Lucía Utatlán 	7	Santa Rita 	6	Junio	2023-06-30T00:00:00	2024-11-08T02:00:00	2	Temperatura media	17.7
102586	7	Sololá	704	Santa Lucía Utatlán 	7	Santa Rita 	6	Junio	2023-06-30T00:00:00	2024-11-08T02:00:00	4	Temperatura máxima	17.9
102587	7	Sololá	704	Santa Lucía Utatlán 	7	Santa Rita 	6	Junio	2023-06-30T00:00:00	2024-11-08T02:00:00	3	Temperatura mínima	17.6
102588	7	Sololá	704	Santa Lucía Utatlán 	7	Santa Rita 	6	Junio	2023-06-30T00:00:00	2024-11-08T02:00:00	5	Humedad	84
102589	7	Sololá	704	Santa Lucía Utatlán 	7	Santa Rita 	6	Junio	2023-06-30T00:00:00	2024-11-08T02:00:00	6	Velocidad del viento	4.8
102590	7	Sololá	704	Santa Lucía Utatlán 	7	Santa Rita 	6	Junio	2023-06-30T00:00:00	2024-11-08T02:00:00	7	Dirección del viento	4.83
102591	7	Sololá	704	Santa Lucía Utatlán 	7	Santa Rita 	6	Junio	2023-06-30T00:00:00	2024-11-08T02:00:00	1	Precipitación	0
102592	7	Sololá	704	Santa Lucía Utatlán 	7	Santa Rita 	6	Junio	2023-06-30T00:00:00	2024-11-08T02:00:00	8	Radiación solar	0
102593	7	Sololá	704	Santa Lucía Utatlán 	7	Santa Rita 	6	Junio	2023-06-30T00:00:00	2024-11-08T03:00:00	2	Temperatura media	17.8
102594	7	Sololá	704	Santa Lucía Utatlán 	7	Santa Rita 	6	Junio	2023-06-30T00:00:00	2024-11-08T03:00:00	4	Temperatura máxima	17.8
102595	7	Sololá	704	Santa Lucía Utatlán 	7	Santa Rita 	6	Junio	2023-06-30T00:00:00	2024-11-08T03:00:00	3	Temperatura mínima	17.3
102596	7	Sololá	704	Santa Lucía Utatlán 	7	Santa Rita 	6	Junio	2023-06-30T00:00:00	2024-11-08T03:00:00	5	Humedad	83
102597	7	Sololá	704	Santa Lucía Utatlán 	7	Santa Rita 	6	Junio	2023-06-30T00:00:00	2024-11-08T03:00:00	6	Velocidad del viento	4.8
102598	7	Sololá	704	Santa Lucía Utatlán 	7	Santa Rita 	6	Junio	2023-06-30T00:00:00	2024-11-08T03:00:00	7	Dirección del viento	4.83
102599	7	Sololá	704	Santa Lucía Utatlán 	7	Santa Rita 	6	Junio	2023-06-30T00:00:00	2024-11-08T03:00:00	1	Precipitación	0
102600	7	Sololá	704	Santa Lucía Utatlán 	7	Santa Rita 	6	Junio	2023-06-30T00:00:00	2024-11-08T03:00:00	8	Radiación solar	0
102601	7	Sololá	704	Santa Lucía Utatlán 	7	Santa Rita 	6	Junio	2023-06-30T00:00:00	2024-11-08T04:00:00	2	Temperatura media	18
102602	7	Sololá	704	Santa Lucía Utatlán 	7	Santa Rita 	6	Junio	2023-06-30T00:00:00	2024-11-08T04:00:00	4	Temperatura máxima	18.1
102603	7	Sololá	704	Santa Lucía Utatlán 	7	Santa Rita 	6	Junio	2023-06-30T00:00:00	2024-11-08T04:00:00	3	Temperatura mínima	17.4
102604	7	Sololá	704	Santa Lucía Utatlán 	7	Santa Rita 	6	Junio	2023-06-30T00:00:00	2024-11-08T04:00:00	5	Humedad	85
102605	7	Sololá	704	Santa Lucía Utatlán 	7	Santa Rita 	6	Junio	2023-06-30T00:00:00	2024-11-08T04:00:00	6	Velocidad del viento	4.8
102606	7	Sololá	704	Santa Lucía Utatlán 	7	Santa Rita 	6	Junio	2023-06-30T00:00:00	2024-11-08T04:00:00	7	Dirección del viento	4.83
102607	7	Sololá	704	Santa Lucía Utatlán 	7	Santa Rita 	6	Junio	2023-06-30T00:00:00	2024-11-08T04:00:00	1	Precipitación	0
102608	7	Sololá	704	Santa Lucía Utatlán 	7	Santa Rita 	6	Junio	2023-06-30T00:00:00	2024-11-08T04:00:00	8	Radiación solar	0
102609	7	Sololá	704	Santa Lucía Utatlán 	7	Santa Rita 	6	Junio	2023-06-30T00:00:00	2024-11-08T05:00:00	2	Temperatura media	17.8
102610	7	Sololá	704	Santa Lucía Utatlán 	7	Santa Rita 	6	Junio	2023-06-30T00:00:00	2024-11-08T05:00:00	4	Temperatura máxima	18
102611	7	Sololá	704	Santa Lucía Utatlán 	7	Santa Rita 	6	Junio	2023-06-30T00:00:00	2024-11-08T05:00:00	3	Temperatura mínima	17.6
102612	7	Sololá	704	Santa Lucía Utatlán 	7	Santa Rita 	6	Junio	2023-06-30T00:00:00	2024-11-08T05:00:00	5	Humedad	82
102613	7	Sololá	704	Santa Lucía Utatlán 	7	Santa Rita 	6	Junio	2023-06-30T00:00:00	2024-11-08T05:00:00	6	Velocidad del viento	4.8
102614	7	Sololá	704	Santa Lucía Utatlán 	7	Santa Rita 	6	Junio	2023-06-30T00:00:00	2024-11-08T05:00:00	7	Dirección del viento	4.83
102615	7	Sololá	704	Santa Lucía Utatlán 	7	Santa Rita 	6	Junio	2023-06-30T00:00:00	2024-11-08T05:00:00	1	Precipitación	0
102616	7	Sololá	704	Santa Lucía Utatlán 	7	Santa Rita 	6	Junio	2023-06-30T00:00:00	2024-11-08T05:00:00	8	Radiación solar	0
102617	7	Sololá	704	Santa Lucía Utatlán 	7	Santa Rita 	6	Junio	2023-06-30T00:00:00	2024-11-08T06:00:00	2	Temperatura media	17.6
102618	7	Sololá	704	Santa Lucía Utatlán 	7	Santa Rita 	6	Junio	2023-06-30T00:00:00	2024-11-08T06:00:00	4	Temperatura máxima	17.9
102619	7	Sololá	704	Santa Lucía Utatlán 	7	Santa Rita 	6	Junio	2023-06-30T00:00:00	2024-11-08T06:00:00	3	Temperatura mínima	17.5
102620	7	Sololá	704	Santa Lucía Utatlán 	7	Santa Rita 	6	Junio	2023-06-30T00:00:00	2024-11-08T06:00:00	5	Humedad	86
102621	7	Sololá	704	Santa Lucía Utatlán 	7	Santa Rita 	6	Junio	2023-06-30T00:00:00	2024-11-08T06:00:00	6	Velocidad del viento	3.2
102622	7	Sololá	704	Santa Lucía Utatlán 	7	Santa Rita 	6	Junio	2023-06-30T00:00:00	2024-11-08T06:00:00	7	Dirección del viento	3.22
102623	7	Sololá	704	Santa Lucía Utatlán 	7	Santa Rita 	6	Junio	2023-06-30T00:00:00	2024-11-08T06:00:00	1	Precipitación	0
102624	7	Sololá	704	Santa Lucía Utatlán 	7	Santa Rita 	6	Junio	2023-06-30T00:00:00	2024-11-08T06:00:00	8	Radiación solar	3
102625	7	Sololá	704	Santa Lucía Utatlán 	7	Santa Rita 	6	Junio	2023-06-30T00:00:00	2024-11-08T07:00:00	2	Temperatura media	19.5
102626	7	Sololá	704	Santa Lucía Utatlán 	7	Santa Rita 	6	Junio	2023-06-30T00:00:00	2024-11-08T07:00:00	4	Temperatura máxima	19.5
102627	7	Sololá	704	Santa Lucía Utatlán 	7	Santa Rita 	6	Junio	2023-06-30T00:00:00	2024-11-08T07:00:00	3	Temperatura mínima	17.6
102628	7	Sololá	704	Santa Lucía Utatlán 	7	Santa Rita 	6	Junio	2023-06-30T00:00:00	2024-11-08T07:00:00	5	Humedad	83
102629	7	Sololá	704	Santa Lucía Utatlán 	7	Santa Rita 	6	Junio	2023-06-30T00:00:00	2024-11-08T07:00:00	6	Velocidad del viento	3.2
102630	7	Sololá	704	Santa Lucía Utatlán 	7	Santa Rita 	6	Junio	2023-06-30T00:00:00	2024-11-08T07:00:00	7	Dirección del viento	3.22
102631	7	Sololá	704	Santa Lucía Utatlán 	7	Santa Rita 	6	Junio	2023-06-30T00:00:00	2024-11-08T07:00:00	1	Precipitación	0
102632	7	Sololá	704	Santa Lucía Utatlán 	7	Santa Rita 	6	Junio	2023-06-30T00:00:00	2024-11-08T07:00:00	8	Radiación solar	78
102633	7	Sololá	704	Santa Lucía Utatlán 	7	Santa Rita 	6	Junio	2023-06-30T00:00:00	2024-11-08T08:00:00	2	Temperatura media	22.2
102634	7	Sololá	704	Santa Lucía Utatlán 	7	Santa Rita 	6	Junio	2023-06-30T00:00:00	2024-11-08T08:00:00	4	Temperatura máxima	22.5
102635	7	Sololá	704	Santa Lucía Utatlán 	7	Santa Rita 	6	Junio	2023-06-30T00:00:00	2024-11-08T08:00:00	3	Temperatura mínima	19.5
102636	7	Sololá	704	Santa Lucía Utatlán 	7	Santa Rita 	6	Junio	2023-06-30T00:00:00	2024-11-08T08:00:00	5	Humedad	75
102637	7	Sololá	704	Santa Lucía Utatlán 	7	Santa Rita 	6	Junio	2023-06-30T00:00:00	2024-11-08T08:00:00	6	Velocidad del viento	3.2
102638	7	Sololá	704	Santa Lucía Utatlán 	7	Santa Rita 	6	Junio	2023-06-30T00:00:00	2024-11-08T08:00:00	7	Dirección del viento	3.22
102639	7	Sololá	704	Santa Lucía Utatlán 	7	Santa Rita 	6	Junio	2023-06-30T00:00:00	2024-11-08T08:00:00	1	Precipitación	0
102640	7	Sololá	704	Santa Lucía Utatlán 	7	Santa Rita 	6	Junio	2023-06-30T00:00:00	2024-11-08T08:00:00	8	Radiación solar	378
102641	7	Sololá	704	Santa Lucía Utatlán 	7	Santa Rita 	6	Junio	2023-06-30T00:00:00	2024-11-08T09:00:00	2	Temperatura media	24.6
102642	7	Sololá	704	Santa Lucía Utatlán 	7	Santa Rita 	6	Junio	2023-06-30T00:00:00	2024-11-08T09:00:00	4	Temperatura máxima	24.6
102643	7	Sololá	704	Santa Lucía Utatlán 	7	Santa Rita 	6	Junio	2023-06-30T00:00:00	2024-11-08T09:00:00	3	Temperatura mínima	22.2
102644	7	Sololá	704	Santa Lucía Utatlán 	7	Santa Rita 	6	Junio	2023-06-30T00:00:00	2024-11-08T09:00:00	5	Humedad	67
102645	7	Sololá	704	Santa Lucía Utatlán 	7	Santa Rita 	6	Junio	2023-06-30T00:00:00	2024-11-08T09:00:00	6	Velocidad del viento	3.2
102646	7	Sololá	704	Santa Lucía Utatlán 	7	Santa Rita 	6	Junio	2023-06-30T00:00:00	2024-11-08T09:00:00	7	Dirección del viento	3.22
102647	7	Sololá	704	Santa Lucía Utatlán 	7	Santa Rita 	6	Junio	2023-06-30T00:00:00	2024-11-08T09:00:00	1	Precipitación	0
102648	7	Sololá	704	Santa Lucía Utatlán 	7	Santa Rita 	6	Junio	2023-06-30T00:00:00	2024-11-08T09:00:00	8	Radiación solar	586
102649	7	Sololá	704	Santa Lucía Utatlán 	7	Santa Rita 	6	Junio	2023-06-30T00:00:00	2024-11-08T10:00:00	2	Temperatura media	24.8
102650	7	Sololá	704	Santa Lucía Utatlán 	7	Santa Rita 	6	Junio	2023-06-30T00:00:00	2024-11-08T10:00:00	4	Temperatura máxima	25.2
102651	7	Sololá	704	Santa Lucía Utatlán 	7	Santa Rita 	6	Junio	2023-06-30T00:00:00	2024-11-08T10:00:00	3	Temperatura mínima	24.6
102652	7	Sololá	704	Santa Lucía Utatlán 	7	Santa Rita 	6	Junio	2023-06-30T00:00:00	2024-11-08T10:00:00	5	Humedad	58
102653	7	Sololá	704	Santa Lucía Utatlán 	7	Santa Rita 	6	Junio	2023-06-30T00:00:00	2024-11-08T10:00:00	6	Velocidad del viento	8
102654	7	Sololá	704	Santa Lucía Utatlán 	7	Santa Rita 	6	Junio	2023-06-30T00:00:00	2024-11-08T10:00:00	7	Dirección del viento	8.05
102655	7	Sololá	704	Santa Lucía Utatlán 	7	Santa Rita 	6	Junio	2023-06-30T00:00:00	2024-11-08T10:00:00	1	Precipitación	0
102656	7	Sololá	704	Santa Lucía Utatlán 	7	Santa Rita 	6	Junio	2023-06-30T00:00:00	2024-11-08T10:00:00	8	Radiación solar	828
102657	7	Sololá	704	Santa Lucía Utatlán 	7	Santa Rita 	6	Junio	2023-06-30T00:00:00	2024-11-08T11:00:00	2	Temperatura media	25.2
102658	7	Sololá	704	Santa Lucía Utatlán 	7	Santa Rita 	6	Junio	2023-06-30T00:00:00	2024-11-08T11:00:00	4	Temperatura máxima	25.3
102659	7	Sololá	704	Santa Lucía Utatlán 	7	Santa Rita 	6	Junio	2023-06-30T00:00:00	2024-11-08T11:00:00	3	Temperatura mínima	24.3
102660	7	Sololá	704	Santa Lucía Utatlán 	7	Santa Rita 	6	Junio	2023-06-30T00:00:00	2024-11-08T11:00:00	5	Humedad	60
102661	7	Sololá	704	Santa Lucía Utatlán 	7	Santa Rita 	6	Junio	2023-06-30T00:00:00	2024-11-08T11:00:00	6	Velocidad del viento	9.7
102662	7	Sololá	704	Santa Lucía Utatlán 	7	Santa Rita 	6	Junio	2023-06-30T00:00:00	2024-11-08T11:00:00	7	Dirección del viento	9.66
102663	7	Sololá	704	Santa Lucía Utatlán 	7	Santa Rita 	6	Junio	2023-06-30T00:00:00	2024-11-08T11:00:00	1	Precipitación	0
102664	7	Sololá	704	Santa Lucía Utatlán 	7	Santa Rita 	6	Junio	2023-06-30T00:00:00	2024-11-08T11:00:00	8	Radiación solar	899
102665	7	Sololá	704	Santa Lucía Utatlán 	7	Santa Rita 	6	Junio	2023-06-30T00:00:00	2024-11-08T12:00:00	2	Temperatura media	26.1
102666	7	Sololá	704	Santa Lucía Utatlán 	7	Santa Rita 	6	Junio	2023-06-30T00:00:00	2024-11-08T12:00:00	4	Temperatura máxima	26.2
102667	7	Sololá	704	Santa Lucía Utatlán 	7	Santa Rita 	6	Junio	2023-06-30T00:00:00	2024-11-08T12:00:00	3	Temperatura mínima	25.2
102668	7	Sololá	704	Santa Lucía Utatlán 	7	Santa Rita 	6	Junio	2023-06-30T00:00:00	2024-11-08T12:00:00	5	Humedad	55
102669	7	Sololá	704	Santa Lucía Utatlán 	7	Santa Rita 	6	Junio	2023-06-30T00:00:00	2024-11-08T12:00:00	6	Velocidad del viento	9.7
102670	7	Sololá	704	Santa Lucía Utatlán 	7	Santa Rita 	6	Junio	2023-06-30T00:00:00	2024-11-08T12:00:00	7	Dirección del viento	9.66
102671	7	Sololá	704	Santa Lucía Utatlán 	7	Santa Rita 	6	Junio	2023-06-30T00:00:00	2024-11-08T12:00:00	1	Precipitación	0
102672	7	Sololá	704	Santa Lucía Utatlán 	7	Santa Rita 	6	Junio	2023-06-30T00:00:00	2024-11-08T12:00:00	8	Radiación solar	1073
102673	7	Sololá	704	Santa Lucía Utatlán 	7	Santa Rita 	6	Junio	2023-06-30T00:00:00	2024-11-08T13:00:00	2	Temperatura media	25.9
102674	7	Sololá	704	Santa Lucía Utatlán 	7	Santa Rita 	6	Junio	2023-06-30T00:00:00	2024-11-08T13:00:00	4	Temperatura máxima	26.1
102675	7	Sololá	704	Santa Lucía Utatlán 	7	Santa Rita 	6	Junio	2023-06-30T00:00:00	2024-11-08T13:00:00	3	Temperatura mínima	25.5
102676	7	Sololá	704	Santa Lucía Utatlán 	7	Santa Rita 	6	Junio	2023-06-30T00:00:00	2024-11-08T13:00:00	5	Humedad	57
102677	7	Sololá	704	Santa Lucía Utatlán 	7	Santa Rita 	6	Junio	2023-06-30T00:00:00	2024-11-08T13:00:00	6	Velocidad del viento	11.3
102678	7	Sololá	704	Santa Lucía Utatlán 	7	Santa Rita 	6	Junio	2023-06-30T00:00:00	2024-11-08T13:00:00	7	Dirección del viento	11.27
102679	7	Sololá	704	Santa Lucía Utatlán 	7	Santa Rita 	6	Junio	2023-06-30T00:00:00	2024-11-08T13:00:00	1	Precipitación	0
102680	7	Sololá	704	Santa Lucía Utatlán 	7	Santa Rita 	6	Junio	2023-06-30T00:00:00	2024-11-08T13:00:00	8	Radiación solar	1058
102681	7	Sololá	704	Santa Lucía Utatlán 	7	Santa Rita 	6	Junio	2023-06-30T00:00:00	2024-11-08T14:00:00	2	Temperatura media	25.4
102682	7	Sololá	704	Santa Lucía Utatlán 	7	Santa Rita 	6	Junio	2023-06-30T00:00:00	2024-11-08T14:00:00	4	Temperatura máxima	26.3
102683	7	Sololá	704	Santa Lucía Utatlán 	7	Santa Rita 	6	Junio	2023-06-30T00:00:00	2024-11-08T14:00:00	3	Temperatura mínima	25.4
102684	7	Sololá	704	Santa Lucía Utatlán 	7	Santa Rita 	6	Junio	2023-06-30T00:00:00	2024-11-08T14:00:00	5	Humedad	55
102685	7	Sololá	704	Santa Lucía Utatlán 	7	Santa Rita 	6	Junio	2023-06-30T00:00:00	2024-11-08T14:00:00	6	Velocidad del viento	9.7
102686	7	Sololá	704	Santa Lucía Utatlán 	7	Santa Rita 	6	Junio	2023-06-30T00:00:00	2024-11-08T14:00:00	7	Dirección del viento	9.66
102687	7	Sololá	704	Santa Lucía Utatlán 	7	Santa Rita 	6	Junio	2023-06-30T00:00:00	2024-11-08T14:00:00	1	Precipitación	0
102688	7	Sololá	704	Santa Lucía Utatlán 	7	Santa Rita 	6	Junio	2023-06-30T00:00:00	2024-11-08T14:00:00	8	Radiación solar	724
102689	7	Sololá	704	Santa Lucía Utatlán 	7	Santa Rita 	6	Junio	2023-06-30T00:00:00	2024-11-08T15:00:00	2	Temperatura media	23.9
102690	7	Sololá	704	Santa Lucía Utatlán 	7	Santa Rita 	6	Junio	2023-06-30T00:00:00	2024-11-08T15:00:00	4	Temperatura máxima	25.4
102691	7	Sololá	704	Santa Lucía Utatlán 	7	Santa Rita 	6	Junio	2023-06-30T00:00:00	2024-11-08T15:00:00	3	Temperatura mínima	23.8
102692	7	Sololá	704	Santa Lucía Utatlán 	7	Santa Rita 	6	Junio	2023-06-30T00:00:00	2024-11-08T15:00:00	5	Humedad	71
102693	7	Sololá	704	Santa Lucía Utatlán 	7	Santa Rita 	6	Junio	2023-06-30T00:00:00	2024-11-08T15:00:00	6	Velocidad del viento	4.8
102694	7	Sololá	704	Santa Lucía Utatlán 	7	Santa Rita 	6	Junio	2023-06-30T00:00:00	2024-11-08T15:00:00	7	Dirección del viento	4.83
102695	7	Sololá	704	Santa Lucía Utatlán 	7	Santa Rita 	6	Junio	2023-06-30T00:00:00	2024-11-08T15:00:00	1	Precipitación	0
102696	7	Sololá	704	Santa Lucía Utatlán 	7	Santa Rita 	6	Junio	2023-06-30T00:00:00	2024-11-08T15:00:00	8	Radiación solar	170
102697	7	Sololá	704	Santa Lucía Utatlán 	7	Santa Rita 	6	Junio	2023-06-30T00:00:00	2024-11-08T16:00:00	2	Temperatura media	25.4
102698	7	Sololá	704	Santa Lucía Utatlán 	7	Santa Rita 	6	Junio	2023-06-30T00:00:00	2024-11-08T16:00:00	4	Temperatura máxima	25.6
102699	7	Sololá	704	Santa Lucía Utatlán 	7	Santa Rita 	6	Junio	2023-06-30T00:00:00	2024-11-08T16:00:00	3	Temperatura mínima	23.9
102700	7	Sololá	704	Santa Lucía Utatlán 	7	Santa Rita 	6	Junio	2023-06-30T00:00:00	2024-11-08T16:00:00	5	Humedad	66
102701	7	Sololá	704	Santa Lucía Utatlán 	7	Santa Rita 	6	Junio	2023-06-30T00:00:00	2024-11-08T16:00:00	6	Velocidad del viento	4.8
102702	7	Sololá	704	Santa Lucía Utatlán 	7	Santa Rita 	6	Junio	2023-06-30T00:00:00	2024-11-08T16:00:00	7	Dirección del viento	4.83
102703	7	Sololá	704	Santa Lucía Utatlán 	7	Santa Rita 	6	Junio	2023-06-30T00:00:00	2024-11-08T16:00:00	1	Precipitación	0
102704	7	Sololá	704	Santa Lucía Utatlán 	7	Santa Rita 	6	Junio	2023-06-30T00:00:00	2024-11-08T16:00:00	8	Radiación solar	423
102705	7	Sololá	704	Santa Lucía Utatlán 	7	Santa Rita 	6	Junio	2023-06-30T00:00:00	2024-11-08T17:00:00	2	Temperatura media	23.1
102706	7	Sololá	704	Santa Lucía Utatlán 	7	Santa Rita 	6	Junio	2023-06-30T00:00:00	2024-11-08T17:00:00	4	Temperatura máxima	25.4
102707	7	Sololá	704	Santa Lucía Utatlán 	7	Santa Rita 	6	Junio	2023-06-30T00:00:00	2024-11-08T17:00:00	3	Temperatura mínima	23.1
102708	7	Sololá	704	Santa Lucía Utatlán 	7	Santa Rita 	6	Junio	2023-06-30T00:00:00	2024-11-08T17:00:00	5	Humedad	82
102709	7	Sololá	704	Santa Lucía Utatlán 	7	Santa Rita 	6	Junio	2023-06-30T00:00:00	2024-11-08T17:00:00	6	Velocidad del viento	6.4
102710	7	Sololá	704	Santa Lucía Utatlán 	7	Santa Rita 	6	Junio	2023-06-30T00:00:00	2024-11-08T17:00:00	7	Dirección del viento	6.44
102711	7	Sololá	704	Santa Lucía Utatlán 	7	Santa Rita 	6	Junio	2023-06-30T00:00:00	2024-11-08T17:00:00	1	Precipitación	0
102712	7	Sololá	704	Santa Lucía Utatlán 	7	Santa Rita 	6	Junio	2023-06-30T00:00:00	2024-11-08T17:00:00	8	Radiación solar	118
102713	7	Sololá	704	Santa Lucía Utatlán 	7	Santa Rita 	6	Junio	2023-06-30T00:00:00	2024-11-08T18:00:00	2	Temperatura media	22.8
102714	7	Sololá	704	Santa Lucía Utatlán 	7	Santa Rita 	6	Junio	2023-06-30T00:00:00	2024-11-08T18:00:00	4	Temperatura máxima	23.1
102715	7	Sololá	704	Santa Lucía Utatlán 	7	Santa Rita 	6	Junio	2023-06-30T00:00:00	2024-11-08T18:00:00	3	Temperatura mínima	22.8
102716	7	Sololá	704	Santa Lucía Utatlán 	7	Santa Rita 	6	Junio	2023-06-30T00:00:00	2024-11-08T18:00:00	5	Humedad	64
102717	7	Sololá	704	Santa Lucía Utatlán 	7	Santa Rita 	6	Junio	2023-06-30T00:00:00	2024-11-08T18:00:00	6	Velocidad del viento	4.8
102718	7	Sololá	704	Santa Lucía Utatlán 	7	Santa Rita 	6	Junio	2023-06-30T00:00:00	2024-11-08T18:00:00	7	Dirección del viento	4.83
102719	7	Sololá	704	Santa Lucía Utatlán 	7	Santa Rita 	6	Junio	2023-06-30T00:00:00	2024-11-08T18:00:00	1	Precipitación	0
102720	7	Sololá	704	Santa Lucía Utatlán 	7	Santa Rita 	6	Junio	2023-06-30T00:00:00	2024-11-08T18:00:00	8	Radiación solar	49
102721	7	Sololá	704	Santa Lucía Utatlán 	7	Santa Rita 	6	Junio	2023-06-30T00:00:00	2024-11-08T19:00:00	2	Temperatura media	20.9
102722	7	Sololá	704	Santa Lucía Utatlán 	7	Santa Rita 	6	Junio	2023-06-30T00:00:00	2024-11-08T19:00:00	4	Temperatura máxima	22.9
102723	7	Sololá	704	Santa Lucía Utatlán 	7	Santa Rita 	6	Junio	2023-06-30T00:00:00	2024-11-08T19:00:00	3	Temperatura mínima	20.8
102724	7	Sololá	704	Santa Lucía Utatlán 	7	Santa Rita 	6	Junio	2023-06-30T00:00:00	2024-11-08T19:00:00	5	Humedad	67
102725	7	Sololá	704	Santa Lucía Utatlán 	7	Santa Rita 	6	Junio	2023-06-30T00:00:00	2024-11-08T19:00:00	6	Velocidad del viento	3.2
102726	7	Sololá	704	Santa Lucía Utatlán 	7	Santa Rita 	6	Junio	2023-06-30T00:00:00	2024-11-08T19:00:00	7	Dirección del viento	3.22
102727	7	Sololá	704	Santa Lucía Utatlán 	7	Santa Rita 	6	Junio	2023-06-30T00:00:00	2024-11-08T19:00:00	1	Precipitación	0
102728	7	Sololá	704	Santa Lucía Utatlán 	7	Santa Rita 	6	Junio	2023-06-30T00:00:00	2024-11-08T19:00:00	8	Radiación solar	0
102729	7	Sololá	704	Santa Lucía Utatlán 	7	Santa Rita 	6	Junio	2023-06-30T00:00:00	2024-11-08T20:00:00	2	Temperatura media	18.8
102730	7	Sololá	704	Santa Lucía Utatlán 	7	Santa Rita 	6	Junio	2023-06-30T00:00:00	2024-11-08T20:00:00	4	Temperatura máxima	21.1
102731	7	Sololá	704	Santa Lucía Utatlán 	7	Santa Rita 	6	Junio	2023-06-30T00:00:00	2024-11-08T20:00:00	3	Temperatura mínima	18.7
102732	7	Sololá	704	Santa Lucía Utatlán 	7	Santa Rita 	6	Junio	2023-06-30T00:00:00	2024-11-08T20:00:00	5	Humedad	76
102733	7	Sololá	704	Santa Lucía Utatlán 	7	Santa Rita 	6	Junio	2023-06-30T00:00:00	2024-11-08T20:00:00	6	Velocidad del viento	3.2
102734	7	Sololá	704	Santa Lucía Utatlán 	7	Santa Rita 	6	Junio	2023-06-30T00:00:00	2024-11-08T20:00:00	7	Dirección del viento	3.22
102735	7	Sololá	704	Santa Lucía Utatlán 	7	Santa Rita 	6	Junio	2023-06-30T00:00:00	2024-11-08T20:00:00	1	Precipitación	0
102736	7	Sololá	704	Santa Lucía Utatlán 	7	Santa Rita 	6	Junio	2023-06-30T00:00:00	2024-11-08T20:00:00	8	Radiación solar	0
102737	7	Sololá	704	Santa Lucía Utatlán 	7	Santa Rita 	6	Junio	2023-06-30T00:00:00	2024-11-08T21:00:00	2	Temperatura media	18.3
102738	7	Sololá	704	Santa Lucía Utatlán 	7	Santa Rita 	6	Junio	2023-06-30T00:00:00	2024-11-08T21:00:00	4	Temperatura máxima	18.8
102739	7	Sololá	704	Santa Lucía Utatlán 	7	Santa Rita 	6	Junio	2023-06-30T00:00:00	2024-11-08T21:00:00	3	Temperatura mínima	18.3
102740	7	Sololá	704	Santa Lucía Utatlán 	7	Santa Rita 	6	Junio	2023-06-30T00:00:00	2024-11-08T21:00:00	5	Humedad	74
102741	7	Sololá	704	Santa Lucía Utatlán 	7	Santa Rita 	6	Junio	2023-06-30T00:00:00	2024-11-08T21:00:00	6	Velocidad del viento	4.8
102742	7	Sololá	704	Santa Lucía Utatlán 	7	Santa Rita 	6	Junio	2023-06-30T00:00:00	2024-11-08T21:00:00	7	Dirección del viento	4.83
102743	7	Sololá	704	Santa Lucía Utatlán 	7	Santa Rita 	6	Junio	2023-06-30T00:00:00	2024-11-08T21:00:00	1	Precipitación	0
102744	7	Sololá	704	Santa Lucía Utatlán 	7	Santa Rita 	6	Junio	2023-06-30T00:00:00	2024-11-08T21:00:00	8	Radiación solar	0
102745	7	Sololá	704	Santa Lucía Utatlán 	7	Santa Rita 	6	Junio	2023-06-30T00:00:00	2024-11-08T22:00:00	2	Temperatura media	17.7
102746	7	Sololá	704	Santa Lucía Utatlán 	7	Santa Rita 	6	Junio	2023-06-30T00:00:00	2024-11-08T22:00:00	4	Temperatura máxima	18.4
102747	7	Sololá	704	Santa Lucía Utatlán 	7	Santa Rita 	6	Junio	2023-06-30T00:00:00	2024-11-08T22:00:00	3	Temperatura mínima	17.7
102748	7	Sololá	704	Santa Lucía Utatlán 	7	Santa Rita 	6	Junio	2023-06-30T00:00:00	2024-11-08T22:00:00	5	Humedad	77
102749	7	Sololá	704	Santa Lucía Utatlán 	7	Santa Rita 	6	Junio	2023-06-30T00:00:00	2024-11-08T22:00:00	6	Velocidad del viento	3.2
102750	7	Sololá	704	Santa Lucía Utatlán 	7	Santa Rita 	6	Junio	2023-06-30T00:00:00	2024-11-08T22:00:00	7	Dirección del viento	3.22
102751	7	Sololá	704	Santa Lucía Utatlán 	7	Santa Rita 	6	Junio	2023-06-30T00:00:00	2024-11-08T22:00:00	1	Precipitación	0
102752	7	Sololá	704	Santa Lucía Utatlán 	7	Santa Rita 	6	Junio	2023-06-30T00:00:00	2024-11-08T22:00:00	8	Radiación solar	0
102753	7	Sololá	704	Santa Lucía Utatlán 	7	Santa Rita 	6	Junio	2023-06-30T00:00:00	2024-11-08T23:00:00	2	Temperatura media	17.7
102754	7	Sololá	704	Santa Lucía Utatlán 	7	Santa Rita 	6	Junio	2023-06-30T00:00:00	2024-11-08T23:00:00	4	Temperatura máxima	18.1
102755	7	Sololá	704	Santa Lucía Utatlán 	7	Santa Rita 	6	Junio	2023-06-30T00:00:00	2024-11-08T23:00:00	3	Temperatura mínima	17.6
102756	7	Sololá	704	Santa Lucía Utatlán 	7	Santa Rita 	6	Junio	2023-06-30T00:00:00	2024-11-08T23:00:00	5	Humedad	76
102757	7	Sololá	704	Santa Lucía Utatlán 	7	Santa Rita 	6	Junio	2023-06-30T00:00:00	2024-11-08T23:00:00	6	Velocidad del viento	4.8
102758	7	Sololá	704	Santa Lucía Utatlán 	7	Santa Rita 	6	Junio	2023-06-30T00:00:00	2024-11-08T23:00:00	7	Dirección del viento	4.83
102759	7	Sololá	704	Santa Lucía Utatlán 	7	Santa Rita 	6	Junio	2023-06-30T00:00:00	2024-11-08T23:00:00	1	Precipitación	0
102760	7	Sololá	704	Santa Lucía Utatlán 	7	Santa Rita 	6	Junio	2023-06-30T00:00:00	2024-11-08T23:00:00	8	Radiación solar	0
102761	7	Sololá	704	Santa Lucía Utatlán 	7	Santa Rita 	7	Julio	2023-01-07T00:00:00	2024-11-08T00:00:00	2	Temperatura media	17.7
102762	7	Sololá	704	Santa Lucía Utatlán 	7	Santa Rita 	7	Julio	2023-01-07T00:00:00	2024-11-08T00:00:00	4	Temperatura máxima	17.9
102763	7	Sololá	704	Santa Lucía Utatlán 	7	Santa Rita 	7	Julio	2023-01-07T00:00:00	2024-11-08T00:00:00	3	Temperatura mínima	17.4
102764	7	Sololá	704	Santa Lucía Utatlán 	7	Santa Rita 	7	Julio	2023-01-07T00:00:00	2024-11-08T00:00:00	5	Humedad	79
102765	7	Sololá	704	Santa Lucía Utatlán 	7	Santa Rita 	7	Julio	2023-01-07T00:00:00	2024-11-08T00:00:00	6	Velocidad del viento	4.8
102766	7	Sololá	704	Santa Lucía Utatlán 	7	Santa Rita 	7	Julio	2023-01-07T00:00:00	2024-11-08T00:00:00	7	Dirección del viento	4.83
102767	7	Sololá	704	Santa Lucía Utatlán 	7	Santa Rita 	7	Julio	2023-01-07T00:00:00	2024-11-08T00:00:00	1	Precipitación	0
102768	7	Sololá	704	Santa Lucía Utatlán 	7	Santa Rita 	7	Julio	2023-01-07T00:00:00	2024-11-08T00:00:00	8	Radiación solar	0
102769	7	Sololá	704	Santa Lucía Utatlán 	7	Santa Rita 	7	Julio	2023-01-07T00:00:00	2024-11-08T01:00:00	2	Temperatura media	17.7
102770	7	Sololá	704	Santa Lucía Utatlán 	7	Santa Rita 	7	Julio	2023-01-07T00:00:00	2024-11-08T01:00:00	4	Temperatura máxima	18
102771	7	Sololá	704	Santa Lucía Utatlán 	7	Santa Rita 	7	Julio	2023-01-07T00:00:00	2024-11-08T01:00:00	3	Temperatura mínima	17.1
102772	7	Sololá	704	Santa Lucía Utatlán 	7	Santa Rita 	7	Julio	2023-01-07T00:00:00	2024-11-08T01:00:00	5	Humedad	82
102773	7	Sololá	704	Santa Lucía Utatlán 	7	Santa Rita 	7	Julio	2023-01-07T00:00:00	2024-11-08T01:00:00	6	Velocidad del viento	1.6
102774	7	Sololá	704	Santa Lucía Utatlán 	7	Santa Rita 	7	Julio	2023-01-07T00:00:00	2024-11-08T01:00:00	7	Dirección del viento	1.61
102775	7	Sololá	704	Santa Lucía Utatlán 	7	Santa Rita 	7	Julio	2023-01-07T00:00:00	2024-11-08T01:00:00	1	Precipitación	0
102776	7	Sololá	704	Santa Lucía Utatlán 	7	Santa Rita 	7	Julio	2023-01-07T00:00:00	2024-11-08T01:00:00	8	Radiación solar	0
102777	7	Sololá	704	Santa Lucía Utatlán 	7	Santa Rita 	7	Julio	2023-01-07T00:00:00	2024-11-08T02:00:00	2	Temperatura media	17.5
102778	7	Sololá	704	Santa Lucía Utatlán 	7	Santa Rita 	7	Julio	2023-01-07T00:00:00	2024-11-08T02:00:00	4	Temperatura máxima	18.7
102779	7	Sololá	704	Santa Lucía Utatlán 	7	Santa Rita 	7	Julio	2023-01-07T00:00:00	2024-11-08T02:00:00	3	Temperatura mínima	17.4
102780	7	Sololá	704	Santa Lucía Utatlán 	7	Santa Rita 	7	Julio	2023-01-07T00:00:00	2024-11-08T02:00:00	5	Humedad	83
102781	7	Sololá	704	Santa Lucía Utatlán 	7	Santa Rita 	7	Julio	2023-01-07T00:00:00	2024-11-08T02:00:00	6	Velocidad del viento	1.6
102782	7	Sololá	704	Santa Lucía Utatlán 	7	Santa Rita 	7	Julio	2023-01-07T00:00:00	2024-11-08T02:00:00	7	Dirección del viento	1.61
102783	7	Sololá	704	Santa Lucía Utatlán 	7	Santa Rita 	7	Julio	2023-01-07T00:00:00	2024-11-08T02:00:00	1	Precipitación	0
102784	7	Sololá	704	Santa Lucía Utatlán 	7	Santa Rita 	7	Julio	2023-01-07T00:00:00	2024-11-08T02:00:00	8	Radiación solar	0
102785	7	Sololá	704	Santa Lucía Utatlán 	7	Santa Rita 	7	Julio	2023-01-07T00:00:00	2024-11-08T03:00:00	2	Temperatura media	17.7
102786	7	Sololá	704	Santa Lucía Utatlán 	7	Santa Rita 	7	Julio	2023-01-07T00:00:00	2024-11-08T03:00:00	4	Temperatura máxima	17.9
102787	7	Sololá	704	Santa Lucía Utatlán 	7	Santa Rita 	7	Julio	2023-01-07T00:00:00	2024-11-08T03:00:00	3	Temperatura mínima	17.4
102788	7	Sololá	704	Santa Lucía Utatlán 	7	Santa Rita 	7	Julio	2023-01-07T00:00:00	2024-11-08T03:00:00	5	Humedad	80
102789	7	Sololá	704	Santa Lucía Utatlán 	7	Santa Rita 	7	Julio	2023-01-07T00:00:00	2024-11-08T03:00:00	6	Velocidad del viento	4.8
102790	7	Sololá	704	Santa Lucía Utatlán 	7	Santa Rita 	7	Julio	2023-01-07T00:00:00	2024-11-08T03:00:00	7	Dirección del viento	4.83
102791	7	Sololá	704	Santa Lucía Utatlán 	7	Santa Rita 	7	Julio	2023-01-07T00:00:00	2024-11-08T03:00:00	1	Precipitación	0
102792	7	Sololá	704	Santa Lucía Utatlán 	7	Santa Rita 	7	Julio	2023-01-07T00:00:00	2024-11-08T03:00:00	8	Radiación solar	0
102793	7	Sololá	704	Santa Lucía Utatlán 	7	Santa Rita 	7	Julio	2023-01-07T00:00:00	2024-11-08T04:00:00	2	Temperatura media	17.6
102794	7	Sololá	704	Santa Lucía Utatlán 	7	Santa Rita 	7	Julio	2023-01-07T00:00:00	2024-11-08T04:00:00	4	Temperatura máxima	17.9
102795	7	Sololá	704	Santa Lucía Utatlán 	7	Santa Rita 	7	Julio	2023-01-07T00:00:00	2024-11-08T04:00:00	3	Temperatura mínima	17.6
102796	7	Sololá	704	Santa Lucía Utatlán 	7	Santa Rita 	7	Julio	2023-01-07T00:00:00	2024-11-08T04:00:00	5	Humedad	79
102797	7	Sololá	704	Santa Lucía Utatlán 	7	Santa Rita 	7	Julio	2023-01-07T00:00:00	2024-11-08T04:00:00	6	Velocidad del viento	4.8
102798	7	Sololá	704	Santa Lucía Utatlán 	7	Santa Rita 	7	Julio	2023-01-07T00:00:00	2024-11-08T04:00:00	7	Dirección del viento	4.83
102799	7	Sololá	704	Santa Lucía Utatlán 	7	Santa Rita 	7	Julio	2023-01-07T00:00:00	2024-11-08T04:00:00	1	Precipitación	0
102800	7	Sololá	704	Santa Lucía Utatlán 	7	Santa Rita 	7	Julio	2023-01-07T00:00:00	2024-11-08T04:00:00	8	Radiación solar	0
102801	7	Sololá	704	Santa Lucía Utatlán 	7	Santa Rita 	7	Julio	2023-01-07T00:00:00	2024-11-08T05:00:00	2	Temperatura media	17.7
102802	7	Sololá	704	Santa Lucía Utatlán 	7	Santa Rita 	7	Julio	2023-01-07T00:00:00	2024-11-08T05:00:00	4	Temperatura máxima	17.8
102803	7	Sololá	704	Santa Lucía Utatlán 	7	Santa Rita 	7	Julio	2023-01-07T00:00:00	2024-11-08T05:00:00	3	Temperatura mínima	17.3
102804	7	Sololá	704	Santa Lucía Utatlán 	7	Santa Rita 	7	Julio	2023-01-07T00:00:00	2024-11-08T05:00:00	5	Humedad	78
102805	7	Sololá	704	Santa Lucía Utatlán 	7	Santa Rita 	7	Julio	2023-01-07T00:00:00	2024-11-08T05:00:00	6	Velocidad del viento	6.4
102806	7	Sololá	704	Santa Lucía Utatlán 	7	Santa Rita 	7	Julio	2023-01-07T00:00:00	2024-11-08T05:00:00	7	Dirección del viento	6.44
102807	7	Sololá	704	Santa Lucía Utatlán 	7	Santa Rita 	7	Julio	2023-01-07T00:00:00	2024-11-08T05:00:00	1	Precipitación	0
102808	7	Sololá	704	Santa Lucía Utatlán 	7	Santa Rita 	7	Julio	2023-01-07T00:00:00	2024-11-08T05:00:00	8	Radiación solar	0
102809	7	Sololá	704	Santa Lucía Utatlán 	7	Santa Rita 	7	Julio	2023-01-07T00:00:00	2024-11-08T06:00:00	2	Temperatura media	17.2
102810	7	Sololá	704	Santa Lucía Utatlán 	7	Santa Rita 	7	Julio	2023-01-07T00:00:00	2024-11-08T06:00:00	4	Temperatura máxima	17.7
102811	7	Sololá	704	Santa Lucía Utatlán 	7	Santa Rita 	7	Julio	2023-01-07T00:00:00	2024-11-08T06:00:00	3	Temperatura mínima	17.2
102812	7	Sololá	704	Santa Lucía Utatlán 	7	Santa Rita 	7	Julio	2023-01-07T00:00:00	2024-11-08T06:00:00	5	Humedad	81
102813	7	Sololá	704	Santa Lucía Utatlán 	7	Santa Rita 	7	Julio	2023-01-07T00:00:00	2024-11-08T06:00:00	6	Velocidad del viento	6.4
102814	7	Sololá	704	Santa Lucía Utatlán 	7	Santa Rita 	7	Julio	2023-01-07T00:00:00	2024-11-08T06:00:00	7	Dirección del viento	6.44
102815	7	Sololá	704	Santa Lucía Utatlán 	7	Santa Rita 	7	Julio	2023-01-07T00:00:00	2024-11-08T06:00:00	1	Precipitación	0
102816	7	Sololá	704	Santa Lucía Utatlán 	7	Santa Rita 	7	Julio	2023-01-07T00:00:00	2024-11-08T06:00:00	8	Radiación solar	3
102817	7	Sololá	704	Santa Lucía Utatlán 	7	Santa Rita 	7	Julio	2023-01-07T00:00:00	2024-11-08T07:00:00	2	Temperatura media	18.6
102818	7	Sololá	704	Santa Lucía Utatlán 	7	Santa Rita 	7	Julio	2023-01-07T00:00:00	2024-11-08T07:00:00	4	Temperatura máxima	18.6
102819	7	Sololá	704	Santa Lucía Utatlán 	7	Santa Rita 	7	Julio	2023-01-07T00:00:00	2024-11-08T07:00:00	3	Temperatura mínima	17.2
102820	7	Sololá	704	Santa Lucía Utatlán 	7	Santa Rita 	7	Julio	2023-01-07T00:00:00	2024-11-08T07:00:00	5	Humedad	85
102821	7	Sololá	704	Santa Lucía Utatlán 	7	Santa Rita 	7	Julio	2023-01-07T00:00:00	2024-11-08T07:00:00	6	Velocidad del viento	3.2
102822	7	Sololá	704	Santa Lucía Utatlán 	7	Santa Rita 	7	Julio	2023-01-07T00:00:00	2024-11-08T07:00:00	7	Dirección del viento	3.22
102823	7	Sololá	704	Santa Lucía Utatlán 	7	Santa Rita 	7	Julio	2023-01-07T00:00:00	2024-11-08T07:00:00	1	Precipitación	0
102824	7	Sololá	704	Santa Lucía Utatlán 	7	Santa Rita 	7	Julio	2023-01-07T00:00:00	2024-11-08T07:00:00	8	Radiación solar	63
102825	7	Sololá	704	Santa Lucía Utatlán 	7	Santa Rita 	7	Julio	2023-01-07T00:00:00	2024-11-08T08:00:00	2	Temperatura media	21.5
102826	7	Sololá	704	Santa Lucía Utatlán 	7	Santa Rita 	7	Julio	2023-01-07T00:00:00	2024-11-08T08:00:00	4	Temperatura máxima	21.5
102827	7	Sololá	704	Santa Lucía Utatlán 	7	Santa Rita 	7	Julio	2023-01-07T00:00:00	2024-11-08T08:00:00	3	Temperatura mínima	18.6
102828	7	Sololá	704	Santa Lucía Utatlán 	7	Santa Rita 	7	Julio	2023-01-07T00:00:00	2024-11-08T08:00:00	5	Humedad	76
102829	7	Sololá	704	Santa Lucía Utatlán 	7	Santa Rita 	7	Julio	2023-01-07T00:00:00	2024-11-08T08:00:00	6	Velocidad del viento	1.6
102830	7	Sololá	704	Santa Lucía Utatlán 	7	Santa Rita 	7	Julio	2023-01-07T00:00:00	2024-11-08T08:00:00	7	Dirección del viento	1.61
102831	7	Sololá	704	Santa Lucía Utatlán 	7	Santa Rita 	7	Julio	2023-01-07T00:00:00	2024-11-08T08:00:00	1	Precipitación	0
102832	7	Sololá	704	Santa Lucía Utatlán 	7	Santa Rita 	7	Julio	2023-01-07T00:00:00	2024-11-08T08:00:00	8	Radiación solar	358
102833	7	Sololá	704	Santa Lucía Utatlán 	7	Santa Rita 	7	Julio	2023-01-07T00:00:00	2024-11-08T09:00:00	2	Temperatura media	23.9
102834	7	Sololá	704	Santa Lucía Utatlán 	7	Santa Rita 	7	Julio	2023-01-07T00:00:00	2024-11-08T09:00:00	4	Temperatura máxima	23.9
102835	7	Sololá	704	Santa Lucía Utatlán 	7	Santa Rita 	7	Julio	2023-01-07T00:00:00	2024-11-08T09:00:00	3	Temperatura mínima	21.4
102836	7	Sololá	704	Santa Lucía Utatlán 	7	Santa Rita 	7	Julio	2023-01-07T00:00:00	2024-11-08T09:00:00	5	Humedad	66
102837	7	Sololá	704	Santa Lucía Utatlán 	7	Santa Rita 	7	Julio	2023-01-07T00:00:00	2024-11-08T09:00:00	6	Velocidad del viento	4.8
102838	7	Sololá	704	Santa Lucía Utatlán 	7	Santa Rita 	7	Julio	2023-01-07T00:00:00	2024-11-08T09:00:00	7	Dirección del viento	4.83
102839	7	Sololá	704	Santa Lucía Utatlán 	7	Santa Rita 	7	Julio	2023-01-07T00:00:00	2024-11-08T09:00:00	1	Precipitación	0
102840	7	Sololá	704	Santa Lucía Utatlán 	7	Santa Rita 	7	Julio	2023-01-07T00:00:00	2024-11-08T09:00:00	8	Radiación solar	647
102841	7	Sololá	704	Santa Lucía Utatlán 	7	Santa Rita 	7	Julio	2023-01-07T00:00:00	2024-11-08T10:00:00	2	Temperatura media	24.6
102842	7	Sololá	704	Santa Lucía Utatlán 	7	Santa Rita 	7	Julio	2023-01-07T00:00:00	2024-11-08T10:00:00	4	Temperatura máxima	24.6
102843	7	Sololá	704	Santa Lucía Utatlán 	7	Santa Rita 	7	Julio	2023-01-07T00:00:00	2024-11-08T10:00:00	3	Temperatura mínima	23.6
102844	7	Sololá	704	Santa Lucía Utatlán 	7	Santa Rita 	7	Julio	2023-01-07T00:00:00	2024-11-08T10:00:00	5	Humedad	65
102845	7	Sololá	704	Santa Lucía Utatlán 	7	Santa Rita 	7	Julio	2023-01-07T00:00:00	2024-11-08T10:00:00	6	Velocidad del viento	6.4
102846	7	Sololá	704	Santa Lucía Utatlán 	7	Santa Rita 	7	Julio	2023-01-07T00:00:00	2024-11-08T10:00:00	7	Dirección del viento	6.44
102847	7	Sololá	704	Santa Lucía Utatlán 	7	Santa Rita 	7	Julio	2023-01-07T00:00:00	2024-11-08T10:00:00	1	Precipitación	0
102848	7	Sololá	704	Santa Lucía Utatlán 	7	Santa Rita 	7	Julio	2023-01-07T00:00:00	2024-11-08T10:00:00	8	Radiación solar	815
102849	7	Sololá	704	Santa Lucía Utatlán 	7	Santa Rita 	7	Julio	2023-01-07T00:00:00	2024-11-08T11:00:00	2	Temperatura media	25.9
102850	7	Sololá	704	Santa Lucía Utatlán 	7	Santa Rita 	7	Julio	2023-01-07T00:00:00	2024-11-08T11:00:00	4	Temperatura máxima	25.9
102851	7	Sololá	704	Santa Lucía Utatlán 	7	Santa Rita 	7	Julio	2023-01-07T00:00:00	2024-11-08T11:00:00	3	Temperatura mínima	24.6
102852	7	Sololá	704	Santa Lucía Utatlán 	7	Santa Rita 	7	Julio	2023-01-07T00:00:00	2024-11-08T11:00:00	5	Humedad	58
102853	7	Sololá	704	Santa Lucía Utatlán 	7	Santa Rita 	7	Julio	2023-01-07T00:00:00	2024-11-08T11:00:00	6	Velocidad del viento	8
102854	7	Sololá	704	Santa Lucía Utatlán 	7	Santa Rita 	7	Julio	2023-01-07T00:00:00	2024-11-08T11:00:00	7	Dirección del viento	8.05
102855	7	Sololá	704	Santa Lucía Utatlán 	7	Santa Rita 	7	Julio	2023-01-07T00:00:00	2024-11-08T11:00:00	1	Precipitación	0
102856	7	Sololá	704	Santa Lucía Utatlán 	7	Santa Rita 	7	Julio	2023-01-07T00:00:00	2024-11-08T11:00:00	8	Radiación solar	991
102857	7	Sololá	704	Santa Lucía Utatlán 	7	Santa Rita 	7	Julio	2023-01-07T00:00:00	2024-11-08T12:00:00	2	Temperatura media	25.2
102858	7	Sololá	704	Santa Lucía Utatlán 	7	Santa Rita 	7	Julio	2023-01-07T00:00:00	2024-11-08T12:00:00	4	Temperatura máxima	25.9
102859	7	Sololá	704	Santa Lucía Utatlán 	7	Santa Rita 	7	Julio	2023-01-07T00:00:00	2024-11-08T12:00:00	3	Temperatura mínima	24.8
102860	7	Sololá	704	Santa Lucía Utatlán 	7	Santa Rita 	7	Julio	2023-01-07T00:00:00	2024-11-08T12:00:00	5	Humedad	62
102861	7	Sololá	704	Santa Lucía Utatlán 	7	Santa Rita 	7	Julio	2023-01-07T00:00:00	2024-11-08T12:00:00	6	Velocidad del viento	11.3
102862	7	Sololá	704	Santa Lucía Utatlán 	7	Santa Rita 	7	Julio	2023-01-07T00:00:00	2024-11-08T12:00:00	7	Dirección del viento	11.27
102863	7	Sololá	704	Santa Lucía Utatlán 	7	Santa Rita 	7	Julio	2023-01-07T00:00:00	2024-11-08T12:00:00	1	Precipitación	0
102864	7	Sololá	704	Santa Lucía Utatlán 	7	Santa Rita 	7	Julio	2023-01-07T00:00:00	2024-11-08T12:00:00	8	Radiación solar	566
102865	7	Sololá	704	Santa Lucía Utatlán 	7	Santa Rita 	7	Julio	2023-01-07T00:00:00	2024-11-08T13:00:00	2	Temperatura media	25.4
102866	7	Sololá	704	Santa Lucía Utatlán 	7	Santa Rita 	7	Julio	2023-01-07T00:00:00	2024-11-08T13:00:00	4	Temperatura máxima	25.8
102867	7	Sololá	704	Santa Lucía Utatlán 	7	Santa Rita 	7	Julio	2023-01-07T00:00:00	2024-11-08T13:00:00	3	Temperatura mínima	25.1
102868	7	Sololá	704	Santa Lucía Utatlán 	7	Santa Rita 	7	Julio	2023-01-07T00:00:00	2024-11-08T13:00:00	5	Humedad	66
102869	7	Sololá	704	Santa Lucía Utatlán 	7	Santa Rita 	7	Julio	2023-01-07T00:00:00	2024-11-08T13:00:00	6	Velocidad del viento	12.9
102870	7	Sololá	704	Santa Lucía Utatlán 	7	Santa Rita 	7	Julio	2023-01-07T00:00:00	2024-11-08T13:00:00	7	Dirección del viento	12.87
102871	7	Sololá	704	Santa Lucía Utatlán 	7	Santa Rita 	7	Julio	2023-01-07T00:00:00	2024-11-08T13:00:00	1	Precipitación	0
102872	7	Sololá	704	Santa Lucía Utatlán 	7	Santa Rita 	7	Julio	2023-01-07T00:00:00	2024-11-08T13:00:00	8	Radiación solar	450
102873	7	Sololá	704	Santa Lucía Utatlán 	7	Santa Rita 	7	Julio	2023-01-07T00:00:00	2024-11-08T14:00:00	2	Temperatura media	23.6
102874	7	Sololá	704	Santa Lucía Utatlán 	7	Santa Rita 	7	Julio	2023-01-07T00:00:00	2024-11-08T14:00:00	4	Temperatura máxima	25.7
102875	7	Sololá	704	Santa Lucía Utatlán 	7	Santa Rita 	7	Julio	2023-01-07T00:00:00	2024-11-08T14:00:00	3	Temperatura mínima	23.6
102876	7	Sololá	704	Santa Lucía Utatlán 	7	Santa Rita 	7	Julio	2023-01-07T00:00:00	2024-11-08T14:00:00	5	Humedad	78
102877	7	Sololá	704	Santa Lucía Utatlán 	7	Santa Rita 	7	Julio	2023-01-07T00:00:00	2024-11-08T14:00:00	6	Velocidad del viento	8
102878	7	Sololá	704	Santa Lucía Utatlán 	7	Santa Rita 	7	Julio	2023-01-07T00:00:00	2024-11-08T14:00:00	7	Dirección del viento	8.05
102879	7	Sololá	704	Santa Lucía Utatlán 	7	Santa Rita 	7	Julio	2023-01-07T00:00:00	2024-11-08T14:00:00	1	Precipitación	0
102880	7	Sololá	704	Santa Lucía Utatlán 	7	Santa Rita 	7	Julio	2023-01-07T00:00:00	2024-11-08T14:00:00	8	Radiación solar	350
102881	7	Sololá	704	Santa Lucía Utatlán 	7	Santa Rita 	7	Julio	2023-01-07T00:00:00	2024-11-08T15:00:00	2	Temperatura media	19.3
102882	7	Sololá	704	Santa Lucía Utatlán 	7	Santa Rita 	7	Julio	2023-01-07T00:00:00	2024-11-08T15:00:00	4	Temperatura máxima	23.6
102883	7	Sololá	704	Santa Lucía Utatlán 	7	Santa Rita 	7	Julio	2023-01-07T00:00:00	2024-11-08T15:00:00	3	Temperatura mínima	19.3
102884	7	Sololá	704	Santa Lucía Utatlán 	7	Santa Rita 	7	Julio	2023-01-07T00:00:00	2024-11-08T15:00:00	5	Humedad	93
102885	7	Sololá	704	Santa Lucía Utatlán 	7	Santa Rita 	7	Julio	2023-01-07T00:00:00	2024-11-08T15:00:00	6	Velocidad del viento	8
102886	7	Sololá	704	Santa Lucía Utatlán 	7	Santa Rita 	7	Julio	2023-01-07T00:00:00	2024-11-08T15:00:00	7	Dirección del viento	8.05
102887	7	Sololá	704	Santa Lucía Utatlán 	7	Santa Rita 	7	Julio	2023-01-07T00:00:00	2024-11-08T15:00:00	1	Precipitación	14
102888	7	Sololá	704	Santa Lucía Utatlán 	7	Santa Rita 	7	Julio	2023-01-07T00:00:00	2024-11-08T15:00:00	8	Radiación solar	55
102889	7	Sololá	704	Santa Lucía Utatlán 	7	Santa Rita 	7	Julio	2023-01-07T00:00:00	2024-11-08T16:00:00	2	Temperatura media	18.3
102890	7	Sololá	704	Santa Lucía Utatlán 	7	Santa Rita 	7	Julio	2023-01-07T00:00:00	2024-11-08T16:00:00	4	Temperatura máxima	19.2
102891	7	Sololá	704	Santa Lucía Utatlán 	7	Santa Rita 	7	Julio	2023-01-07T00:00:00	2024-11-08T16:00:00	3	Temperatura mínima	18.2
102892	7	Sololá	704	Santa Lucía Utatlán 	7	Santa Rita 	7	Julio	2023-01-07T00:00:00	2024-11-08T16:00:00	5	Humedad	94
102893	7	Sololá	704	Santa Lucía Utatlán 	7	Santa Rita 	7	Julio	2023-01-07T00:00:00	2024-11-08T16:00:00	6	Velocidad del viento	1.6
102894	7	Sololá	704	Santa Lucía Utatlán 	7	Santa Rita 	7	Julio	2023-01-07T00:00:00	2024-11-08T16:00:00	7	Dirección del viento	1.61
102895	7	Sololá	704	Santa Lucía Utatlán 	7	Santa Rita 	7	Julio	2023-01-07T00:00:00	2024-11-08T16:00:00	1	Precipitación	11
102896	7	Sololá	704	Santa Lucía Utatlán 	7	Santa Rita 	7	Julio	2023-01-07T00:00:00	2024-11-08T16:00:00	8	Radiación solar	13
102897	7	Sololá	704	Santa Lucía Utatlán 	7	Santa Rita 	7	Julio	2023-01-07T00:00:00	2024-11-08T17:00:00	2	Temperatura media	18.6
102898	7	Sololá	704	Santa Lucía Utatlán 	7	Santa Rita 	7	Julio	2023-01-07T00:00:00	2024-11-08T17:00:00	4	Temperatura máxima	18.6
102899	7	Sololá	704	Santa Lucía Utatlán 	7	Santa Rita 	7	Julio	2023-01-07T00:00:00	2024-11-08T17:00:00	3	Temperatura mínima	18.3
102900	7	Sololá	704	Santa Lucía Utatlán 	7	Santa Rita 	7	Julio	2023-01-07T00:00:00	2024-11-08T17:00:00	5	Humedad	95
102901	7	Sololá	704	Santa Lucía Utatlán 	7	Santa Rita 	7	Julio	2023-01-07T00:00:00	2024-11-08T17:00:00	6	Velocidad del viento	1.6
102902	7	Sololá	704	Santa Lucía Utatlán 	7	Santa Rita 	7	Julio	2023-01-07T00:00:00	2024-11-08T17:00:00	7	Dirección del viento	1.61
102903	7	Sololá	704	Santa Lucía Utatlán 	7	Santa Rita 	7	Julio	2023-01-07T00:00:00	2024-11-08T17:00:00	1	Precipitación	2.8
102904	7	Sololá	704	Santa Lucía Utatlán 	7	Santa Rita 	7	Julio	2023-01-07T00:00:00	2024-11-08T17:00:00	8	Radiación solar	21
102905	7	Sololá	704	Santa Lucía Utatlán 	7	Santa Rita 	7	Julio	2023-01-07T00:00:00	2024-11-08T18:00:00	2	Temperatura media	18.1
102906	7	Sololá	704	Santa Lucía Utatlán 	7	Santa Rita 	7	Julio	2023-01-07T00:00:00	2024-11-08T18:00:00	4	Temperatura máxima	18.6
102907	7	Sololá	704	Santa Lucía Utatlán 	7	Santa Rita 	7	Julio	2023-01-07T00:00:00	2024-11-08T18:00:00	3	Temperatura mínima	18.1
102908	7	Sololá	704	Santa Lucía Utatlán 	7	Santa Rita 	7	Julio	2023-01-07T00:00:00	2024-11-08T18:00:00	5	Humedad	94
102909	7	Sololá	704	Santa Lucía Utatlán 	7	Santa Rita 	7	Julio	2023-01-07T00:00:00	2024-11-08T18:00:00	6	Velocidad del viento	1.6
102910	7	Sololá	704	Santa Lucía Utatlán 	7	Santa Rita 	7	Julio	2023-01-07T00:00:00	2024-11-08T18:00:00	7	Dirección del viento	1.61
102911	7	Sololá	704	Santa Lucía Utatlán 	7	Santa Rita 	7	Julio	2023-01-07T00:00:00	2024-11-08T18:00:00	1	Precipitación	6
102912	7	Sololá	704	Santa Lucía Utatlán 	7	Santa Rita 	7	Julio	2023-01-07T00:00:00	2024-11-08T18:00:00	8	Radiación solar	2
102913	7	Sololá	704	Santa Lucía Utatlán 	7	Santa Rita 	7	Julio	2023-01-07T00:00:00	2024-11-08T19:00:00	2	Temperatura media	19.8
102914	7	Sololá	704	Santa Lucía Utatlán 	7	Santa Rita 	7	Julio	2023-01-07T00:00:00	2024-11-08T19:00:00	4	Temperatura máxima	19.8
102915	7	Sololá	704	Santa Lucía Utatlán 	7	Santa Rita 	7	Julio	2023-01-07T00:00:00	2024-11-08T19:00:00	3	Temperatura mínima	17.8
102916	7	Sololá	704	Santa Lucía Utatlán 	7	Santa Rita 	7	Julio	2023-01-07T00:00:00	2024-11-08T19:00:00	5	Humedad	77
102917	7	Sololá	704	Santa Lucía Utatlán 	7	Santa Rita 	7	Julio	2023-01-07T00:00:00	2024-11-08T19:00:00	6	Velocidad del viento	4.8
102918	7	Sololá	704	Santa Lucía Utatlán 	7	Santa Rita 	7	Julio	2023-01-07T00:00:00	2024-11-08T19:00:00	7	Dirección del viento	4.83
102919	7	Sololá	704	Santa Lucía Utatlán 	7	Santa Rita 	7	Julio	2023-01-07T00:00:00	2024-11-08T19:00:00	1	Precipitación	1.8
102920	7	Sololá	704	Santa Lucía Utatlán 	7	Santa Rita 	7	Julio	2023-01-07T00:00:00	2024-11-08T19:00:00	8	Radiación solar	0
102921	7	Sololá	704	Santa Lucía Utatlán 	7	Santa Rita 	7	Julio	2023-01-07T00:00:00	2024-11-08T20:00:00	2	Temperatura media	18.3
102922	7	Sololá	704	Santa Lucía Utatlán 	7	Santa Rita 	7	Julio	2023-01-07T00:00:00	2024-11-08T20:00:00	4	Temperatura máxima	19.8
102923	7	Sololá	704	Santa Lucía Utatlán 	7	Santa Rita 	7	Julio	2023-01-07T00:00:00	2024-11-08T20:00:00	3	Temperatura mínima	18.3
102924	7	Sololá	704	Santa Lucía Utatlán 	7	Santa Rita 	7	Julio	2023-01-07T00:00:00	2024-11-08T20:00:00	5	Humedad	88
102925	7	Sololá	704	Santa Lucía Utatlán 	7	Santa Rita 	7	Julio	2023-01-07T00:00:00	2024-11-08T20:00:00	6	Velocidad del viento	6.4
102926	7	Sololá	704	Santa Lucía Utatlán 	7	Santa Rita 	7	Julio	2023-01-07T00:00:00	2024-11-08T20:00:00	7	Dirección del viento	6.44
102927	7	Sololá	704	Santa Lucía Utatlán 	7	Santa Rita 	7	Julio	2023-01-07T00:00:00	2024-11-08T20:00:00	1	Precipitación	0
102928	7	Sololá	704	Santa Lucía Utatlán 	7	Santa Rita 	7	Julio	2023-01-07T00:00:00	2024-11-08T20:00:00	8	Radiación solar	0
102929	7	Sololá	704	Santa Lucía Utatlán 	7	Santa Rita 	7	Julio	2023-01-07T00:00:00	2024-11-08T21:00:00	2	Temperatura media	20.2
102930	7	Sololá	704	Santa Lucía Utatlán 	7	Santa Rita 	7	Julio	2023-01-07T00:00:00	2024-11-08T21:00:00	4	Temperatura máxima	20.2
102931	7	Sololá	704	Santa Lucía Utatlán 	7	Santa Rita 	7	Julio	2023-01-07T00:00:00	2024-11-08T21:00:00	3	Temperatura mínima	18.1
102932	7	Sololá	704	Santa Lucía Utatlán 	7	Santa Rita 	7	Julio	2023-01-07T00:00:00	2024-11-08T21:00:00	5	Humedad	77
102933	7	Sololá	704	Santa Lucía Utatlán 	7	Santa Rita 	7	Julio	2023-01-07T00:00:00	2024-11-08T21:00:00	6	Velocidad del viento	4.8
102934	7	Sololá	704	Santa Lucía Utatlán 	7	Santa Rita 	7	Julio	2023-01-07T00:00:00	2024-11-08T21:00:00	7	Dirección del viento	4.83
102935	7	Sololá	704	Santa Lucía Utatlán 	7	Santa Rita 	7	Julio	2023-01-07T00:00:00	2024-11-08T21:00:00	1	Precipitación	0
102936	7	Sololá	704	Santa Lucía Utatlán 	7	Santa Rita 	7	Julio	2023-01-07T00:00:00	2024-11-08T21:00:00	8	Radiación solar	0
102937	7	Sololá	704	Santa Lucía Utatlán 	7	Santa Rita 	7	Julio	2023-01-07T00:00:00	2024-11-08T22:00:00	2	Temperatura media	18.9
102938	7	Sololá	704	Santa Lucía Utatlán 	7	Santa Rita 	7	Julio	2023-01-07T00:00:00	2024-11-08T22:00:00	4	Temperatura máxima	20.3
102939	7	Sololá	704	Santa Lucía Utatlán 	7	Santa Rita 	7	Julio	2023-01-07T00:00:00	2024-11-08T22:00:00	3	Temperatura mínima	18.8
102940	7	Sololá	704	Santa Lucía Utatlán 	7	Santa Rita 	7	Julio	2023-01-07T00:00:00	2024-11-08T22:00:00	5	Humedad	83
102941	7	Sololá	704	Santa Lucía Utatlán 	7	Santa Rita 	7	Julio	2023-01-07T00:00:00	2024-11-08T22:00:00	6	Velocidad del viento	4.8
102942	7	Sololá	704	Santa Lucía Utatlán 	7	Santa Rita 	7	Julio	2023-01-07T00:00:00	2024-11-08T22:00:00	7	Dirección del viento	4.83
102943	7	Sololá	704	Santa Lucía Utatlán 	7	Santa Rita 	7	Julio	2023-01-07T00:00:00	2024-11-08T22:00:00	1	Precipitación	0
102944	7	Sololá	704	Santa Lucía Utatlán 	7	Santa Rita 	7	Julio	2023-01-07T00:00:00	2024-11-08T22:00:00	8	Radiación solar	0
102945	7	Sololá	704	Santa Lucía Utatlán 	7	Santa Rita 	7	Julio	2023-01-07T00:00:00	2024-11-08T23:00:00	2	Temperatura media	17.9
102946	7	Sololá	704	Santa Lucía Utatlán 	7	Santa Rita 	7	Julio	2023-01-07T00:00:00	2024-11-08T23:00:00	4	Temperatura máxima	19.6
102947	7	Sololá	704	Santa Lucía Utatlán 	7	Santa Rita 	7	Julio	2023-01-07T00:00:00	2024-11-08T23:00:00	3	Temperatura mínima	17.9
102948	7	Sololá	704	Santa Lucía Utatlán 	7	Santa Rita 	7	Julio	2023-01-07T00:00:00	2024-11-08T23:00:00	5	Humedad	87
102949	7	Sololá	704	Santa Lucía Utatlán 	7	Santa Rita 	7	Julio	2023-01-07T00:00:00	2024-11-08T23:00:00	6	Velocidad del viento	3.2
102950	7	Sololá	704	Santa Lucía Utatlán 	7	Santa Rita 	7	Julio	2023-01-07T00:00:00	2024-11-08T23:00:00	7	Dirección del viento	3.22
102951	7	Sololá	704	Santa Lucía Utatlán 	7	Santa Rita 	7	Julio	2023-01-07T00:00:00	2024-11-08T23:00:00	1	Precipitación	0
102952	7	Sololá	704	Santa Lucía Utatlán 	7	Santa Rita 	7	Julio	2023-01-07T00:00:00	2024-11-08T23:00:00	8	Radiación solar	0
102953	7	Sololá	704	Santa Lucía Utatlán 	7	Santa Rita 	7	Julio	2023-02-07T00:00:00	2024-11-08T00:00:00	2	Temperatura media	17.9
102954	7	Sololá	704	Santa Lucía Utatlán 	7	Santa Rita 	7	Julio	2023-02-07T00:00:00	2024-11-08T00:00:00	4	Temperatura máxima	18.1
102955	7	Sololá	704	Santa Lucía Utatlán 	7	Santa Rita 	7	Julio	2023-02-07T00:00:00	2024-11-08T00:00:00	3	Temperatura mínima	17.8
102956	7	Sololá	704	Santa Lucía Utatlán 	7	Santa Rita 	7	Julio	2023-02-07T00:00:00	2024-11-08T00:00:00	5	Humedad	90
102957	7	Sololá	704	Santa Lucía Utatlán 	7	Santa Rita 	7	Julio	2023-02-07T00:00:00	2024-11-08T00:00:00	6	Velocidad del viento	3.2
102958	7	Sololá	704	Santa Lucía Utatlán 	7	Santa Rita 	7	Julio	2023-02-07T00:00:00	2024-11-08T00:00:00	7	Dirección del viento	3.22
102959	7	Sololá	704	Santa Lucía Utatlán 	7	Santa Rita 	7	Julio	2023-02-07T00:00:00	2024-11-08T00:00:00	1	Precipitación	0
102960	7	Sololá	704	Santa Lucía Utatlán 	7	Santa Rita 	7	Julio	2023-02-07T00:00:00	2024-11-08T00:00:00	8	Radiación solar	0
102961	7	Sololá	704	Santa Lucía Utatlán 	7	Santa Rita 	7	Julio	2023-02-07T00:00:00	2024-11-08T01:00:00	2	Temperatura media	17.4
102962	7	Sololá	704	Santa Lucía Utatlán 	7	Santa Rita 	7	Julio	2023-02-07T00:00:00	2024-11-08T01:00:00	4	Temperatura máxima	17.9
102963	7	Sololá	704	Santa Lucía Utatlán 	7	Santa Rita 	7	Julio	2023-02-07T00:00:00	2024-11-08T01:00:00	3	Temperatura mínima	17.4
102964	7	Sololá	704	Santa Lucía Utatlán 	7	Santa Rita 	7	Julio	2023-02-07T00:00:00	2024-11-08T01:00:00	5	Humedad	91
102965	7	Sololá	704	Santa Lucía Utatlán 	7	Santa Rita 	7	Julio	2023-02-07T00:00:00	2024-11-08T01:00:00	6	Velocidad del viento	1.6
102966	7	Sololá	704	Santa Lucía Utatlán 	7	Santa Rita 	7	Julio	2023-02-07T00:00:00	2024-11-08T01:00:00	7	Dirección del viento	1.61
102967	7	Sololá	704	Santa Lucía Utatlán 	7	Santa Rita 	7	Julio	2023-02-07T00:00:00	2024-11-08T01:00:00	1	Precipitación	0
102968	7	Sololá	704	Santa Lucía Utatlán 	7	Santa Rita 	7	Julio	2023-02-07T00:00:00	2024-11-08T01:00:00	8	Radiación solar	0
102969	7	Sololá	704	Santa Lucía Utatlán 	7	Santa Rita 	7	Julio	2023-02-07T00:00:00	2024-11-08T02:00:00	2	Temperatura media	17.4
102970	7	Sololá	704	Santa Lucía Utatlán 	7	Santa Rita 	7	Julio	2023-02-07T00:00:00	2024-11-08T02:00:00	4	Temperatura máxima	17.6
102971	7	Sololá	704	Santa Lucía Utatlán 	7	Santa Rita 	7	Julio	2023-02-07T00:00:00	2024-11-08T02:00:00	3	Temperatura mínima	17.3
102972	7	Sololá	704	Santa Lucía Utatlán 	7	Santa Rita 	7	Julio	2023-02-07T00:00:00	2024-11-08T02:00:00	5	Humedad	91
102973	7	Sololá	704	Santa Lucía Utatlán 	7	Santa Rita 	7	Julio	2023-02-07T00:00:00	2024-11-08T02:00:00	6	Velocidad del viento	1.6
102974	7	Sololá	704	Santa Lucía Utatlán 	7	Santa Rita 	7	Julio	2023-02-07T00:00:00	2024-11-08T02:00:00	7	Dirección del viento	1.61
102975	7	Sololá	704	Santa Lucía Utatlán 	7	Santa Rita 	7	Julio	2023-02-07T00:00:00	2024-11-08T02:00:00	1	Precipitación	0
102976	7	Sololá	704	Santa Lucía Utatlán 	7	Santa Rita 	7	Julio	2023-02-07T00:00:00	2024-11-08T02:00:00	8	Radiación solar	0
102977	7	Sololá	704	Santa Lucía Utatlán 	7	Santa Rita 	7	Julio	2023-02-07T00:00:00	2024-11-08T03:00:00	2	Temperatura media	16.7
102978	7	Sololá	704	Santa Lucía Utatlán 	7	Santa Rita 	7	Julio	2023-02-07T00:00:00	2024-11-08T03:00:00	4	Temperatura máxima	17.6
102979	7	Sololá	704	Santa Lucía Utatlán 	7	Santa Rita 	7	Julio	2023-02-07T00:00:00	2024-11-08T03:00:00	3	Temperatura mínima	16.6
102980	7	Sololá	704	Santa Lucía Utatlán 	7	Santa Rita 	7	Julio	2023-02-07T00:00:00	2024-11-08T03:00:00	5	Humedad	90
102981	7	Sololá	704	Santa Lucía Utatlán 	7	Santa Rita 	7	Julio	2023-02-07T00:00:00	2024-11-08T03:00:00	6	Velocidad del viento	3.2
102982	7	Sololá	704	Santa Lucía Utatlán 	7	Santa Rita 	7	Julio	2023-02-07T00:00:00	2024-11-08T03:00:00	7	Dirección del viento	3.22
102983	7	Sololá	704	Santa Lucía Utatlán 	7	Santa Rita 	7	Julio	2023-02-07T00:00:00	2024-11-08T03:00:00	1	Precipitación	0
102984	7	Sololá	704	Santa Lucía Utatlán 	7	Santa Rita 	7	Julio	2023-02-07T00:00:00	2024-11-08T03:00:00	8	Radiación solar	0
102985	7	Sololá	704	Santa Lucía Utatlán 	7	Santa Rita 	7	Julio	2023-02-07T00:00:00	2024-11-08T04:00:00	2	Temperatura media	15.9
102986	7	Sololá	704	Santa Lucía Utatlán 	7	Santa Rita 	7	Julio	2023-02-07T00:00:00	2024-11-08T04:00:00	4	Temperatura máxima	16.7
102987	7	Sololá	704	Santa Lucía Utatlán 	7	Santa Rita 	7	Julio	2023-02-07T00:00:00	2024-11-08T04:00:00	3	Temperatura mínima	15.9
102988	7	Sololá	704	Santa Lucía Utatlán 	7	Santa Rita 	7	Julio	2023-02-07T00:00:00	2024-11-08T04:00:00	5	Humedad	89
102989	7	Sololá	704	Santa Lucía Utatlán 	7	Santa Rita 	7	Julio	2023-02-07T00:00:00	2024-11-08T04:00:00	6	Velocidad del viento	3.2
102990	7	Sololá	704	Santa Lucía Utatlán 	7	Santa Rita 	7	Julio	2023-02-07T00:00:00	2024-11-08T04:00:00	7	Dirección del viento	3.22
102991	7	Sololá	704	Santa Lucía Utatlán 	7	Santa Rita 	7	Julio	2023-02-07T00:00:00	2024-11-08T04:00:00	1	Precipitación	0
102992	7	Sololá	704	Santa Lucía Utatlán 	7	Santa Rita 	7	Julio	2023-02-07T00:00:00	2024-11-08T04:00:00	8	Radiación solar	0
102993	7	Sololá	704	Santa Lucía Utatlán 	7	Santa Rita 	7	Julio	2023-02-07T00:00:00	2024-11-08T05:00:00	2	Temperatura media	15.9
102994	7	Sololá	704	Santa Lucía Utatlán 	7	Santa Rita 	7	Julio	2023-02-07T00:00:00	2024-11-08T05:00:00	4	Temperatura máxima	16
102995	7	Sololá	704	Santa Lucía Utatlán 	7	Santa Rita 	7	Julio	2023-02-07T00:00:00	2024-11-08T05:00:00	3	Temperatura mínima	15.5
102996	7	Sololá	704	Santa Lucía Utatlán 	7	Santa Rita 	7	Julio	2023-02-07T00:00:00	2024-11-08T05:00:00	5	Humedad	89
102997	7	Sololá	704	Santa Lucía Utatlán 	7	Santa Rita 	7	Julio	2023-02-07T00:00:00	2024-11-08T05:00:00	6	Velocidad del viento	3.2
102998	7	Sololá	704	Santa Lucía Utatlán 	7	Santa Rita 	7	Julio	2023-02-07T00:00:00	2024-11-08T05:00:00	7	Dirección del viento	3.22
102999	7	Sololá	704	Santa Lucía Utatlán 	7	Santa Rita 	7	Julio	2023-02-07T00:00:00	2024-11-08T05:00:00	1	Precipitación	0
103000	7	Sololá	704	Santa Lucía Utatlán 	7	Santa Rita 	7	Julio	2023-02-07T00:00:00	2024-11-08T05:00:00	8	Radiación solar	0
103001	7	Sololá	704	Santa Lucía Utatlán 	7	Santa Rita 	7	Julio	2023-02-07T00:00:00	2024-11-08T06:00:00	2	Temperatura media	16.5
103002	7	Sololá	704	Santa Lucía Utatlán 	7	Santa Rita 	7	Julio	2023-02-07T00:00:00	2024-11-08T06:00:00	4	Temperatura máxima	16.5
103003	7	Sololá	704	Santa Lucía Utatlán 	7	Santa Rita 	7	Julio	2023-02-07T00:00:00	2024-11-08T06:00:00	3	Temperatura mínima	15.6
103004	7	Sololá	704	Santa Lucía Utatlán 	7	Santa Rita 	7	Julio	2023-02-07T00:00:00	2024-11-08T06:00:00	5	Humedad	87
103005	7	Sololá	704	Santa Lucía Utatlán 	7	Santa Rita 	7	Julio	2023-02-07T00:00:00	2024-11-08T06:00:00	6	Velocidad del viento	3.2
103006	7	Sololá	704	Santa Lucía Utatlán 	7	Santa Rita 	7	Julio	2023-02-07T00:00:00	2024-11-08T06:00:00	7	Dirección del viento	3.22
103007	7	Sololá	704	Santa Lucía Utatlán 	7	Santa Rita 	7	Julio	2023-02-07T00:00:00	2024-11-08T06:00:00	1	Precipitación	0
103008	7	Sololá	704	Santa Lucía Utatlán 	7	Santa Rita 	7	Julio	2023-02-07T00:00:00	2024-11-08T06:00:00	8	Radiación solar	7
103009	7	Sololá	704	Santa Lucía Utatlán 	7	Santa Rita 	7	Julio	2023-02-07T00:00:00	2024-11-08T07:00:00	2	Temperatura media	19.1
103010	7	Sololá	704	Santa Lucía Utatlán 	7	Santa Rita 	7	Julio	2023-02-07T00:00:00	2024-11-08T07:00:00	4	Temperatura máxima	19.7
103011	7	Sololá	704	Santa Lucía Utatlán 	7	Santa Rita 	7	Julio	2023-02-07T00:00:00	2024-11-08T07:00:00	3	Temperatura mínima	16.5
103012	7	Sololá	704	Santa Lucía Utatlán 	7	Santa Rita 	7	Julio	2023-02-07T00:00:00	2024-11-08T07:00:00	5	Humedad	79
103013	7	Sololá	704	Santa Lucía Utatlán 	7	Santa Rita 	7	Julio	2023-02-07T00:00:00	2024-11-08T07:00:00	6	Velocidad del viento	3.2
103014	7	Sololá	704	Santa Lucía Utatlán 	7	Santa Rita 	7	Julio	2023-02-07T00:00:00	2024-11-08T07:00:00	7	Dirección del viento	3.22
103015	7	Sololá	704	Santa Lucía Utatlán 	7	Santa Rita 	7	Julio	2023-02-07T00:00:00	2024-11-08T07:00:00	1	Precipitación	0
103016	7	Sololá	704	Santa Lucía Utatlán 	7	Santa Rita 	7	Julio	2023-02-07T00:00:00	2024-11-08T07:00:00	8	Radiación solar	78
103017	7	Sololá	704	Santa Lucía Utatlán 	7	Santa Rita 	7	Julio	2023-02-07T00:00:00	2024-11-08T08:00:00	2	Temperatura media	22.5
103018	7	Sololá	704	Santa Lucía Utatlán 	7	Santa Rita 	7	Julio	2023-02-07T00:00:00	2024-11-08T08:00:00	4	Temperatura máxima	22.5
103019	7	Sololá	704	Santa Lucía Utatlán 	7	Santa Rita 	7	Julio	2023-02-07T00:00:00	2024-11-08T08:00:00	3	Temperatura mínima	19.1
103020	7	Sololá	704	Santa Lucía Utatlán 	7	Santa Rita 	7	Julio	2023-02-07T00:00:00	2024-11-08T08:00:00	5	Humedad	67
103021	7	Sololá	704	Santa Lucía Utatlán 	7	Santa Rita 	7	Julio	2023-02-07T00:00:00	2024-11-08T08:00:00	6	Velocidad del viento	3.2
103022	7	Sololá	704	Santa Lucía Utatlán 	7	Santa Rita 	7	Julio	2023-02-07T00:00:00	2024-11-08T08:00:00	7	Dirección del viento	3.22
103023	7	Sololá	704	Santa Lucía Utatlán 	7	Santa Rita 	7	Julio	2023-02-07T00:00:00	2024-11-08T08:00:00	1	Precipitación	0
103024	7	Sololá	704	Santa Lucía Utatlán 	7	Santa Rita 	7	Julio	2023-02-07T00:00:00	2024-11-08T08:00:00	8	Radiación solar	334
103025	7	Sololá	704	Santa Lucía Utatlán 	7	Santa Rita 	7	Julio	2023-02-07T00:00:00	2024-11-08T09:00:00	2	Temperatura media	23.3
103026	7	Sololá	704	Santa Lucía Utatlán 	7	Santa Rita 	7	Julio	2023-02-07T00:00:00	2024-11-08T09:00:00	4	Temperatura máxima	23.4
103027	7	Sololá	704	Santa Lucía Utatlán 	7	Santa Rita 	7	Julio	2023-02-07T00:00:00	2024-11-08T09:00:00	3	Temperatura mínima	22.4
103028	7	Sololá	704	Santa Lucía Utatlán 	7	Santa Rita 	7	Julio	2023-02-07T00:00:00	2024-11-08T09:00:00	5	Humedad	57
103029	7	Sololá	704	Santa Lucía Utatlán 	7	Santa Rita 	7	Julio	2023-02-07T00:00:00	2024-11-08T09:00:00	6	Velocidad del viento	4.8
103030	7	Sololá	704	Santa Lucía Utatlán 	7	Santa Rita 	7	Julio	2023-02-07T00:00:00	2024-11-08T09:00:00	7	Dirección del viento	4.83
103031	7	Sololá	704	Santa Lucía Utatlán 	7	Santa Rita 	7	Julio	2023-02-07T00:00:00	2024-11-08T09:00:00	1	Precipitación	0
103032	7	Sololá	704	Santa Lucía Utatlán 	7	Santa Rita 	7	Julio	2023-02-07T00:00:00	2024-11-08T09:00:00	8	Radiación solar	518
103033	7	Sololá	704	Santa Lucía Utatlán 	7	Santa Rita 	7	Julio	2023-02-07T00:00:00	2024-11-08T10:00:00	2	Temperatura media	22.7
103034	7	Sololá	704	Santa Lucía Utatlán 	7	Santa Rita 	7	Julio	2023-02-07T00:00:00	2024-11-08T10:00:00	4	Temperatura máxima	23.5
103035	7	Sololá	704	Santa Lucía Utatlán 	7	Santa Rita 	7	Julio	2023-02-07T00:00:00	2024-11-08T10:00:00	3	Temperatura mínima	22.6
103036	7	Sololá	704	Santa Lucía Utatlán 	7	Santa Rita 	7	Julio	2023-02-07T00:00:00	2024-11-08T10:00:00	5	Humedad	66
103037	7	Sololá	704	Santa Lucía Utatlán 	7	Santa Rita 	7	Julio	2023-02-07T00:00:00	2024-11-08T10:00:00	6	Velocidad del viento	6.4
103038	7	Sololá	704	Santa Lucía Utatlán 	7	Santa Rita 	7	Julio	2023-02-07T00:00:00	2024-11-08T10:00:00	7	Dirección del viento	6.44
103039	7	Sololá	704	Santa Lucía Utatlán 	7	Santa Rita 	7	Julio	2023-02-07T00:00:00	2024-11-08T10:00:00	1	Precipitación	0
103040	7	Sololá	704	Santa Lucía Utatlán 	7	Santa Rita 	7	Julio	2023-02-07T00:00:00	2024-11-08T10:00:00	8	Radiación solar	531
103041	7	Sololá	704	Santa Lucía Utatlán 	7	Santa Rita 	7	Julio	2023-02-07T00:00:00	2024-11-08T11:00:00	2	Temperatura media	22.4
103042	7	Sololá	704	Santa Lucía Utatlán 	7	Santa Rita 	7	Julio	2023-02-07T00:00:00	2024-11-08T11:00:00	4	Temperatura máxima	23
103043	7	Sololá	704	Santa Lucía Utatlán 	7	Santa Rita 	7	Julio	2023-02-07T00:00:00	2024-11-08T11:00:00	3	Temperatura mínima	22.4
103044	7	Sololá	704	Santa Lucía Utatlán 	7	Santa Rita 	7	Julio	2023-02-07T00:00:00	2024-11-08T11:00:00	5	Humedad	72
103045	7	Sololá	704	Santa Lucía Utatlán 	7	Santa Rita 	7	Julio	2023-02-07T00:00:00	2024-11-08T11:00:00	6	Velocidad del viento	6.4
103046	7	Sololá	704	Santa Lucía Utatlán 	7	Santa Rita 	7	Julio	2023-02-07T00:00:00	2024-11-08T11:00:00	7	Dirección del viento	6.44
103047	7	Sololá	704	Santa Lucía Utatlán 	7	Santa Rita 	7	Julio	2023-02-07T00:00:00	2024-11-08T11:00:00	1	Precipitación	0
103048	7	Sololá	704	Santa Lucía Utatlán 	7	Santa Rita 	7	Julio	2023-02-07T00:00:00	2024-11-08T11:00:00	8	Radiación solar	391
103049	7	Sololá	704	Santa Lucía Utatlán 	7	Santa Rita 	7	Julio	2023-02-07T00:00:00	2024-11-08T12:00:00	2	Temperatura media	22.1
103050	7	Sololá	704	Santa Lucía Utatlán 	7	Santa Rita 	7	Julio	2023-02-07T00:00:00	2024-11-08T12:00:00	4	Temperatura máxima	22.4
103051	7	Sololá	704	Santa Lucía Utatlán 	7	Santa Rita 	7	Julio	2023-02-07T00:00:00	2024-11-08T12:00:00	3	Temperatura mínima	22
103052	7	Sololá	704	Santa Lucía Utatlán 	7	Santa Rita 	7	Julio	2023-02-07T00:00:00	2024-11-08T12:00:00	5	Humedad	78
103053	7	Sololá	704	Santa Lucía Utatlán 	7	Santa Rita 	7	Julio	2023-02-07T00:00:00	2024-11-08T12:00:00	6	Velocidad del viento	4.8
103054	7	Sololá	704	Santa Lucía Utatlán 	7	Santa Rita 	7	Julio	2023-02-07T00:00:00	2024-11-08T12:00:00	7	Dirección del viento	4.83
103055	7	Sololá	704	Santa Lucía Utatlán 	7	Santa Rita 	7	Julio	2023-02-07T00:00:00	2024-11-08T12:00:00	1	Precipitación	0
103056	7	Sololá	704	Santa Lucía Utatlán 	7	Santa Rita 	7	Julio	2023-02-07T00:00:00	2024-11-08T12:00:00	8	Radiación solar	314
103057	7	Sololá	704	Santa Lucía Utatlán 	7	Santa Rita 	7	Julio	2023-02-07T00:00:00	2024-11-08T13:00:00	2	Temperatura media	21.7
103058	7	Sololá	704	Santa Lucía Utatlán 	7	Santa Rita 	7	Julio	2023-02-07T00:00:00	2024-11-08T13:00:00	4	Temperatura máxima	22.3
103059	7	Sololá	704	Santa Lucía Utatlán 	7	Santa Rita 	7	Julio	2023-02-07T00:00:00	2024-11-08T13:00:00	3	Temperatura mínima	21.7
103060	7	Sololá	704	Santa Lucía Utatlán 	7	Santa Rita 	7	Julio	2023-02-07T00:00:00	2024-11-08T13:00:00	5	Humedad	83
103061	7	Sololá	704	Santa Lucía Utatlán 	7	Santa Rita 	7	Julio	2023-02-07T00:00:00	2024-11-08T13:00:00	6	Velocidad del viento	3.2
103062	7	Sololá	704	Santa Lucía Utatlán 	7	Santa Rita 	7	Julio	2023-02-07T00:00:00	2024-11-08T13:00:00	7	Dirección del viento	3.22
103063	7	Sololá	704	Santa Lucía Utatlán 	7	Santa Rita 	7	Julio	2023-02-07T00:00:00	2024-11-08T13:00:00	1	Precipitación	0
103064	7	Sololá	704	Santa Lucía Utatlán 	7	Santa Rita 	7	Julio	2023-02-07T00:00:00	2024-11-08T13:00:00	8	Radiación solar	253
103065	7	Sololá	704	Santa Lucía Utatlán 	7	Santa Rita 	7	Julio	2023-02-07T00:00:00	2024-11-08T14:00:00	2	Temperatura media	22.1
103066	7	Sololá	704	Santa Lucía Utatlán 	7	Santa Rita 	7	Julio	2023-02-07T00:00:00	2024-11-08T14:00:00	4	Temperatura máxima	22.6
103067	7	Sololá	704	Santa Lucía Utatlán 	7	Santa Rita 	7	Julio	2023-02-07T00:00:00	2024-11-08T14:00:00	3	Temperatura mínima	21.6
103068	7	Sololá	704	Santa Lucía Utatlán 	7	Santa Rita 	7	Julio	2023-02-07T00:00:00	2024-11-08T14:00:00	5	Humedad	83
103069	7	Sololá	704	Santa Lucía Utatlán 	7	Santa Rita 	7	Julio	2023-02-07T00:00:00	2024-11-08T14:00:00	6	Velocidad del viento	4.8
103070	7	Sololá	704	Santa Lucía Utatlán 	7	Santa Rita 	7	Julio	2023-02-07T00:00:00	2024-11-08T14:00:00	7	Dirección del viento	4.83
103071	7	Sololá	704	Santa Lucía Utatlán 	7	Santa Rita 	7	Julio	2023-02-07T00:00:00	2024-11-08T14:00:00	1	Precipitación	0
103072	7	Sololá	704	Santa Lucía Utatlán 	7	Santa Rita 	7	Julio	2023-02-07T00:00:00	2024-11-08T14:00:00	8	Radiación solar	324
103073	7	Sololá	704	Santa Lucía Utatlán 	7	Santa Rita 	7	Julio	2023-02-07T00:00:00	2024-11-08T15:00:00	2	Temperatura media	20.2
103074	7	Sololá	704	Santa Lucía Utatlán 	7	Santa Rita 	7	Julio	2023-02-07T00:00:00	2024-11-08T15:00:00	4	Temperatura máxima	22.5
103075	7	Sololá	704	Santa Lucía Utatlán 	7	Santa Rita 	7	Julio	2023-02-07T00:00:00	2024-11-08T15:00:00	3	Temperatura mínima	20.2
103076	7	Sololá	704	Santa Lucía Utatlán 	7	Santa Rita 	7	Julio	2023-02-07T00:00:00	2024-11-08T15:00:00	5	Humedad	90
103077	7	Sololá	704	Santa Lucía Utatlán 	7	Santa Rita 	7	Julio	2023-02-07T00:00:00	2024-11-08T15:00:00	6	Velocidad del viento	6.4
103078	7	Sololá	704	Santa Lucía Utatlán 	7	Santa Rita 	7	Julio	2023-02-07T00:00:00	2024-11-08T15:00:00	7	Dirección del viento	6.44
103079	7	Sololá	704	Santa Lucía Utatlán 	7	Santa Rita 	7	Julio	2023-02-07T00:00:00	2024-11-08T15:00:00	1	Precipitación	0
103080	7	Sololá	704	Santa Lucía Utatlán 	7	Santa Rita 	7	Julio	2023-02-07T00:00:00	2024-11-08T15:00:00	8	Radiación solar	179
103081	7	Sololá	704	Santa Lucía Utatlán 	7	Santa Rita 	7	Julio	2023-02-07T00:00:00	2024-11-08T16:00:00	2	Temperatura media	20
103082	7	Sololá	704	Santa Lucía Utatlán 	7	Santa Rita 	7	Julio	2023-02-07T00:00:00	2024-11-08T16:00:00	4	Temperatura máxima	20.3
103083	7	Sololá	704	Santa Lucía Utatlán 	7	Santa Rita 	7	Julio	2023-02-07T00:00:00	2024-11-08T16:00:00	3	Temperatura mínima	20
103084	7	Sololá	704	Santa Lucía Utatlán 	7	Santa Rita 	7	Julio	2023-02-07T00:00:00	2024-11-08T16:00:00	5	Humedad	91
103085	7	Sololá	704	Santa Lucía Utatlán 	7	Santa Rita 	7	Julio	2023-02-07T00:00:00	2024-11-08T16:00:00	6	Velocidad del viento	1.6
103086	7	Sololá	704	Santa Lucía Utatlán 	7	Santa Rita 	7	Julio	2023-02-07T00:00:00	2024-11-08T16:00:00	7	Dirección del viento	1.61
103087	7	Sololá	704	Santa Lucía Utatlán 	7	Santa Rita 	7	Julio	2023-02-07T00:00:00	2024-11-08T16:00:00	1	Precipitación	0
103088	7	Sololá	704	Santa Lucía Utatlán 	7	Santa Rita 	7	Julio	2023-02-07T00:00:00	2024-11-08T16:00:00	8	Radiación solar	73
103089	7	Sololá	704	Santa Lucía Utatlán 	7	Santa Rita 	7	Julio	2023-02-07T00:00:00	2024-11-08T17:00:00	2	Temperatura media	19.9
103090	7	Sololá	704	Santa Lucía Utatlán 	7	Santa Rita 	7	Julio	2023-02-07T00:00:00	2024-11-08T17:00:00	4	Temperatura máxima	20
103091	7	Sololá	704	Santa Lucía Utatlán 	7	Santa Rita 	7	Julio	2023-02-07T00:00:00	2024-11-08T17:00:00	3	Temperatura mínima	19.8
103092	7	Sololá	704	Santa Lucía Utatlán 	7	Santa Rita 	7	Julio	2023-02-07T00:00:00	2024-11-08T17:00:00	5	Humedad	93
103093	7	Sololá	704	Santa Lucía Utatlán 	7	Santa Rita 	7	Julio	2023-02-07T00:00:00	2024-11-08T17:00:00	6	Velocidad del viento	1.6
103094	7	Sololá	704	Santa Lucía Utatlán 	7	Santa Rita 	7	Julio	2023-02-07T00:00:00	2024-11-08T17:00:00	7	Dirección del viento	1.61
103095	7	Sololá	704	Santa Lucía Utatlán 	7	Santa Rita 	7	Julio	2023-02-07T00:00:00	2024-11-08T17:00:00	1	Precipitación	0.4
103096	7	Sololá	704	Santa Lucía Utatlán 	7	Santa Rita 	7	Julio	2023-02-07T00:00:00	2024-11-08T17:00:00	8	Radiación solar	62
103097	7	Sololá	704	Santa Lucía Utatlán 	7	Santa Rita 	7	Julio	2023-02-07T00:00:00	2024-11-08T18:00:00	2	Temperatura media	20.1
103098	7	Sololá	704	Santa Lucía Utatlán 	7	Santa Rita 	7	Julio	2023-02-07T00:00:00	2024-11-08T18:00:00	4	Temperatura máxima	20.1
103099	7	Sololá	704	Santa Lucía Utatlán 	7	Santa Rita 	7	Julio	2023-02-07T00:00:00	2024-11-08T18:00:00	3	Temperatura mínima	19.8
103100	7	Sololá	704	Santa Lucía Utatlán 	7	Santa Rita 	7	Julio	2023-02-07T00:00:00	2024-11-08T18:00:00	5	Humedad	92
103101	7	Sololá	704	Santa Lucía Utatlán 	7	Santa Rita 	7	Julio	2023-02-07T00:00:00	2024-11-08T18:00:00	6	Velocidad del viento	0
103102	7	Sololá	704	Santa Lucía Utatlán 	7	Santa Rita 	7	Julio	2023-02-07T00:00:00	2024-11-08T18:00:00	7	Dirección del viento	0
103103	7	Sololá	704	Santa Lucía Utatlán 	7	Santa Rita 	7	Julio	2023-02-07T00:00:00	2024-11-08T18:00:00	1	Precipitación	0
103104	7	Sololá	704	Santa Lucía Utatlán 	7	Santa Rita 	7	Julio	2023-02-07T00:00:00	2024-11-08T18:00:00	8	Radiación solar	42
103105	7	Sololá	704	Santa Lucía Utatlán 	7	Santa Rita 	7	Julio	2023-02-07T00:00:00	2024-11-08T19:00:00	2	Temperatura media	19.3
103106	7	Sololá	704	Santa Lucía Utatlán 	7	Santa Rita 	7	Julio	2023-02-07T00:00:00	2024-11-08T19:00:00	4	Temperatura máxima	20.1
103107	7	Sololá	704	Santa Lucía Utatlán 	7	Santa Rita 	7	Julio	2023-02-07T00:00:00	2024-11-08T19:00:00	3	Temperatura mínima	19.3
103108	7	Sololá	704	Santa Lucía Utatlán 	7	Santa Rita 	7	Julio	2023-02-07T00:00:00	2024-11-08T19:00:00	5	Humedad	95
103109	7	Sololá	704	Santa Lucía Utatlán 	7	Santa Rita 	7	Julio	2023-02-07T00:00:00	2024-11-08T19:00:00	6	Velocidad del viento	3.2
103110	7	Sololá	704	Santa Lucía Utatlán 	7	Santa Rita 	7	Julio	2023-02-07T00:00:00	2024-11-08T19:00:00	7	Dirección del viento	3.22
103111	7	Sololá	704	Santa Lucía Utatlán 	7	Santa Rita 	7	Julio	2023-02-07T00:00:00	2024-11-08T19:00:00	1	Precipitación	0
103112	7	Sololá	704	Santa Lucía Utatlán 	7	Santa Rita 	7	Julio	2023-02-07T00:00:00	2024-11-08T19:00:00	8	Radiación solar	0
103113	7	Sololá	704	Santa Lucía Utatlán 	7	Santa Rita 	7	Julio	2023-02-07T00:00:00	2024-11-08T20:00:00	2	Temperatura media	19.2
103114	7	Sololá	704	Santa Lucía Utatlán 	7	Santa Rita 	7	Julio	2023-02-07T00:00:00	2024-11-08T20:00:00	4	Temperatura máxima	19.3
103115	7	Sololá	704	Santa Lucía Utatlán 	7	Santa Rita 	7	Julio	2023-02-07T00:00:00	2024-11-08T20:00:00	3	Temperatura mínima	19.2
103116	7	Sololá	704	Santa Lucía Utatlán 	7	Santa Rita 	7	Julio	2023-02-07T00:00:00	2024-11-08T20:00:00	5	Humedad	96
103117	7	Sololá	704	Santa Lucía Utatlán 	7	Santa Rita 	7	Julio	2023-02-07T00:00:00	2024-11-08T20:00:00	6	Velocidad del viento	1.6
103118	7	Sololá	704	Santa Lucía Utatlán 	7	Santa Rita 	7	Julio	2023-02-07T00:00:00	2024-11-08T20:00:00	7	Dirección del viento	1.61
103119	7	Sololá	704	Santa Lucía Utatlán 	7	Santa Rita 	7	Julio	2023-02-07T00:00:00	2024-11-08T20:00:00	1	Precipitación	0
103120	7	Sololá	704	Santa Lucía Utatlán 	7	Santa Rita 	7	Julio	2023-02-07T00:00:00	2024-11-08T20:00:00	8	Radiación solar	0
103121	7	Sololá	704	Santa Lucía Utatlán 	7	Santa Rita 	7	Julio	2023-02-07T00:00:00	2024-11-08T21:00:00	2	Temperatura media	19.1
103122	7	Sololá	704	Santa Lucía Utatlán 	7	Santa Rita 	7	Julio	2023-02-07T00:00:00	2024-11-08T21:00:00	4	Temperatura máxima	19.3
103123	7	Sololá	704	Santa Lucía Utatlán 	7	Santa Rita 	7	Julio	2023-02-07T00:00:00	2024-11-08T21:00:00	3	Temperatura mínima	19.1
103124	7	Sololá	704	Santa Lucía Utatlán 	7	Santa Rita 	7	Julio	2023-02-07T00:00:00	2024-11-08T21:00:00	5	Humedad	96
103125	7	Sololá	704	Santa Lucía Utatlán 	7	Santa Rita 	7	Julio	2023-02-07T00:00:00	2024-11-08T21:00:00	6	Velocidad del viento	0
103126	7	Sololá	704	Santa Lucía Utatlán 	7	Santa Rita 	7	Julio	2023-02-07T00:00:00	2024-11-08T21:00:00	7	Dirección del viento	0
103127	7	Sololá	704	Santa Lucía Utatlán 	7	Santa Rita 	7	Julio	2023-02-07T00:00:00	2024-11-08T21:00:00	1	Precipitación	0.6
103128	7	Sololá	704	Santa Lucía Utatlán 	7	Santa Rita 	7	Julio	2023-02-07T00:00:00	2024-11-08T21:00:00	8	Radiación solar	0
103129	7	Sololá	704	Santa Lucía Utatlán 	7	Santa Rita 	7	Julio	2023-02-07T00:00:00	2024-11-08T22:00:00	2	Temperatura media	19
103130	7	Sololá	704	Santa Lucía Utatlán 	7	Santa Rita 	7	Julio	2023-02-07T00:00:00	2024-11-08T22:00:00	4	Temperatura máxima	19.2
103131	7	Sololá	704	Santa Lucía Utatlán 	7	Santa Rita 	7	Julio	2023-02-07T00:00:00	2024-11-08T22:00:00	3	Temperatura mínima	19
103132	7	Sololá	704	Santa Lucía Utatlán 	7	Santa Rita 	7	Julio	2023-02-07T00:00:00	2024-11-08T22:00:00	5	Humedad	96
103133	7	Sololá	704	Santa Lucía Utatlán 	7	Santa Rita 	7	Julio	2023-02-07T00:00:00	2024-11-08T22:00:00	6	Velocidad del viento	0
103134	7	Sololá	704	Santa Lucía Utatlán 	7	Santa Rita 	7	Julio	2023-02-07T00:00:00	2024-11-08T22:00:00	7	Dirección del viento	0
103135	7	Sololá	704	Santa Lucía Utatlán 	7	Santa Rita 	7	Julio	2023-02-07T00:00:00	2024-11-08T22:00:00	1	Precipitación	0
103136	7	Sololá	704	Santa Lucía Utatlán 	7	Santa Rita 	7	Julio	2023-02-07T00:00:00	2024-11-08T22:00:00	8	Radiación solar	0
103137	7	Sololá	704	Santa Lucía Utatlán 	7	Santa Rita 	7	Julio	2023-02-07T00:00:00	2024-11-08T23:00:00	2	Temperatura media	18.6
103138	7	Sololá	704	Santa Lucía Utatlán 	7	Santa Rita 	7	Julio	2023-02-07T00:00:00	2024-11-08T23:00:00	4	Temperatura máxima	19
103139	7	Sololá	704	Santa Lucía Utatlán 	7	Santa Rita 	7	Julio	2023-02-07T00:00:00	2024-11-08T23:00:00	3	Temperatura mínima	18.6
103140	7	Sololá	704	Santa Lucía Utatlán 	7	Santa Rita 	7	Julio	2023-02-07T00:00:00	2024-11-08T23:00:00	5	Humedad	96
103141	7	Sololá	704	Santa Lucía Utatlán 	7	Santa Rita 	7	Julio	2023-02-07T00:00:00	2024-11-08T23:00:00	6	Velocidad del viento	1.6
103142	7	Sololá	704	Santa Lucía Utatlán 	7	Santa Rita 	7	Julio	2023-02-07T00:00:00	2024-11-08T23:00:00	7	Dirección del viento	1.61
103143	7	Sololá	704	Santa Lucía Utatlán 	7	Santa Rita 	7	Julio	2023-02-07T00:00:00	2024-11-08T23:00:00	1	Precipitación	0
103144	7	Sololá	704	Santa Lucía Utatlán 	7	Santa Rita 	7	Julio	2023-02-07T00:00:00	2024-11-08T23:00:00	8	Radiación solar	0
103145	7	Sololá	704	Santa Lucía Utatlán 	7	Santa Rita 	7	Julio	2023-03-07T00:00:00	2024-11-08T00:00:00	2	Temperatura media	18.6
103146	7	Sololá	704	Santa Lucía Utatlán 	7	Santa Rita 	7	Julio	2023-03-07T00:00:00	2024-11-08T00:00:00	4	Temperatura máxima	18.8
103147	7	Sololá	704	Santa Lucía Utatlán 	7	Santa Rita 	7	Julio	2023-03-07T00:00:00	2024-11-08T00:00:00	3	Temperatura mínima	18.6
103148	7	Sololá	704	Santa Lucía Utatlán 	7	Santa Rita 	7	Julio	2023-03-07T00:00:00	2024-11-08T00:00:00	5	Humedad	96
103149	7	Sololá	704	Santa Lucía Utatlán 	7	Santa Rita 	7	Julio	2023-03-07T00:00:00	2024-11-08T00:00:00	6	Velocidad del viento	1.6
103150	7	Sololá	704	Santa Lucía Utatlán 	7	Santa Rita 	7	Julio	2023-03-07T00:00:00	2024-11-08T00:00:00	7	Dirección del viento	1.61
103151	7	Sololá	704	Santa Lucía Utatlán 	7	Santa Rita 	7	Julio	2023-03-07T00:00:00	2024-11-08T00:00:00	1	Precipitación	0
103152	7	Sololá	704	Santa Lucía Utatlán 	7	Santa Rita 	7	Julio	2023-03-07T00:00:00	2024-11-08T00:00:00	8	Radiación solar	0
103153	7	Sololá	704	Santa Lucía Utatlán 	7	Santa Rita 	7	Julio	2023-03-07T00:00:00	2024-11-08T01:00:00	2	Temperatura media	18.3
103154	7	Sololá	704	Santa Lucía Utatlán 	7	Santa Rita 	7	Julio	2023-03-07T00:00:00	2024-11-08T01:00:00	4	Temperatura máxima	18.7
103155	7	Sololá	704	Santa Lucía Utatlán 	7	Santa Rita 	7	Julio	2023-03-07T00:00:00	2024-11-08T01:00:00	3	Temperatura mínima	18.3
103156	7	Sololá	704	Santa Lucía Utatlán 	7	Santa Rita 	7	Julio	2023-03-07T00:00:00	2024-11-08T01:00:00	5	Humedad	95
103157	7	Sololá	704	Santa Lucía Utatlán 	7	Santa Rita 	7	Julio	2023-03-07T00:00:00	2024-11-08T01:00:00	6	Velocidad del viento	1.6
103158	7	Sololá	704	Santa Lucía Utatlán 	7	Santa Rita 	7	Julio	2023-03-07T00:00:00	2024-11-08T01:00:00	7	Dirección del viento	1.61
103159	7	Sololá	704	Santa Lucía Utatlán 	7	Santa Rita 	7	Julio	2023-03-07T00:00:00	2024-11-08T01:00:00	1	Precipitación	0
103160	7	Sololá	704	Santa Lucía Utatlán 	7	Santa Rita 	7	Julio	2023-03-07T00:00:00	2024-11-08T01:00:00	8	Radiación solar	0
103161	7	Sololá	704	Santa Lucía Utatlán 	7	Santa Rita 	7	Julio	2023-03-07T00:00:00	2024-11-08T02:00:00	2	Temperatura media	18.5
103162	7	Sololá	704	Santa Lucía Utatlán 	7	Santa Rita 	7	Julio	2023-03-07T00:00:00	2024-11-08T02:00:00	4	Temperatura máxima	18.6
103163	7	Sololá	704	Santa Lucía Utatlán 	7	Santa Rita 	7	Julio	2023-03-07T00:00:00	2024-11-08T02:00:00	3	Temperatura mínima	18.3
103164	7	Sololá	704	Santa Lucía Utatlán 	7	Santa Rita 	7	Julio	2023-03-07T00:00:00	2024-11-08T02:00:00	5	Humedad	95
103165	7	Sololá	704	Santa Lucía Utatlán 	7	Santa Rita 	7	Julio	2023-03-07T00:00:00	2024-11-08T02:00:00	6	Velocidad del viento	1.6
103166	7	Sololá	704	Santa Lucía Utatlán 	7	Santa Rita 	7	Julio	2023-03-07T00:00:00	2024-11-08T02:00:00	7	Dirección del viento	1.61
103167	7	Sololá	704	Santa Lucía Utatlán 	7	Santa Rita 	7	Julio	2023-03-07T00:00:00	2024-11-08T02:00:00	1	Precipitación	0
103168	7	Sololá	704	Santa Lucía Utatlán 	7	Santa Rita 	7	Julio	2023-03-07T00:00:00	2024-11-08T02:00:00	8	Radiación solar	0
103169	7	Sololá	704	Santa Lucía Utatlán 	7	Santa Rita 	7	Julio	2023-03-07T00:00:00	2024-11-08T03:00:00	2	Temperatura media	18.6
103170	7	Sololá	704	Santa Lucía Utatlán 	7	Santa Rita 	7	Julio	2023-03-07T00:00:00	2024-11-08T03:00:00	4	Temperatura máxima	18.6
103171	7	Sololá	704	Santa Lucía Utatlán 	7	Santa Rita 	7	Julio	2023-03-07T00:00:00	2024-11-08T03:00:00	3	Temperatura mínima	18.5
103172	7	Sololá	704	Santa Lucía Utatlán 	7	Santa Rita 	7	Julio	2023-03-07T00:00:00	2024-11-08T03:00:00	5	Humedad	96
103173	7	Sololá	704	Santa Lucía Utatlán 	7	Santa Rita 	7	Julio	2023-03-07T00:00:00	2024-11-08T03:00:00	6	Velocidad del viento	0
103174	7	Sololá	704	Santa Lucía Utatlán 	7	Santa Rita 	7	Julio	2023-03-07T00:00:00	2024-11-08T03:00:00	7	Dirección del viento	0
103175	7	Sololá	704	Santa Lucía Utatlán 	7	Santa Rita 	7	Julio	2023-03-07T00:00:00	2024-11-08T03:00:00	1	Precipitación	0
103176	7	Sololá	704	Santa Lucía Utatlán 	7	Santa Rita 	7	Julio	2023-03-07T00:00:00	2024-11-08T03:00:00	8	Radiación solar	0
103177	7	Sololá	704	Santa Lucía Utatlán 	7	Santa Rita 	7	Julio	2023-03-07T00:00:00	2024-11-08T04:00:00	2	Temperatura media	18.3
103178	7	Sololá	704	Santa Lucía Utatlán 	7	Santa Rita 	7	Julio	2023-03-07T00:00:00	2024-11-08T04:00:00	4	Temperatura máxima	18.6
103179	7	Sololá	704	Santa Lucía Utatlán 	7	Santa Rita 	7	Julio	2023-03-07T00:00:00	2024-11-08T04:00:00	3	Temperatura mínima	18.3
103180	7	Sololá	704	Santa Lucía Utatlán 	7	Santa Rita 	7	Julio	2023-03-07T00:00:00	2024-11-08T04:00:00	5	Humedad	96
103181	7	Sololá	704	Santa Lucía Utatlán 	7	Santa Rita 	7	Julio	2023-03-07T00:00:00	2024-11-08T04:00:00	6	Velocidad del viento	0
103182	7	Sololá	704	Santa Lucía Utatlán 	7	Santa Rita 	7	Julio	2023-03-07T00:00:00	2024-11-08T04:00:00	7	Dirección del viento	0
103183	7	Sololá	704	Santa Lucía Utatlán 	7	Santa Rita 	7	Julio	2023-03-07T00:00:00	2024-11-08T04:00:00	1	Precipitación	0
103184	7	Sololá	704	Santa Lucía Utatlán 	7	Santa Rita 	7	Julio	2023-03-07T00:00:00	2024-11-08T04:00:00	8	Radiación solar	0
103185	7	Sololá	704	Santa Lucía Utatlán 	7	Santa Rita 	7	Julio	2023-03-07T00:00:00	2024-11-08T05:00:00	2	Temperatura media	18.3
103186	7	Sololá	704	Santa Lucía Utatlán 	7	Santa Rita 	7	Julio	2023-03-07T00:00:00	2024-11-08T05:00:00	4	Temperatura máxima	18.3
103187	7	Sololá	704	Santa Lucía Utatlán 	7	Santa Rita 	7	Julio	2023-03-07T00:00:00	2024-11-08T05:00:00	3	Temperatura mínima	18.2
103188	7	Sololá	704	Santa Lucía Utatlán 	7	Santa Rita 	7	Julio	2023-03-07T00:00:00	2024-11-08T05:00:00	5	Humedad	97
103189	7	Sololá	704	Santa Lucía Utatlán 	7	Santa Rita 	7	Julio	2023-03-07T00:00:00	2024-11-08T05:00:00	6	Velocidad del viento	0
103190	7	Sololá	704	Santa Lucía Utatlán 	7	Santa Rita 	7	Julio	2023-03-07T00:00:00	2024-11-08T05:00:00	7	Dirección del viento	0
103191	7	Sololá	704	Santa Lucía Utatlán 	7	Santa Rita 	7	Julio	2023-03-07T00:00:00	2024-11-08T05:00:00	1	Precipitación	0
103192	7	Sololá	704	Santa Lucía Utatlán 	7	Santa Rita 	7	Julio	2023-03-07T00:00:00	2024-11-08T05:00:00	8	Radiación solar	0
103193	7	Sololá	704	Santa Lucía Utatlán 	7	Santa Rita 	7	Julio	2023-03-07T00:00:00	2024-11-08T06:00:00	2	Temperatura media	18.3
103194	7	Sololá	704	Santa Lucía Utatlán 	7	Santa Rita 	7	Julio	2023-03-07T00:00:00	2024-11-08T06:00:00	4	Temperatura máxima	18.4
103195	7	Sololá	704	Santa Lucía Utatlán 	7	Santa Rita 	7	Julio	2023-03-07T00:00:00	2024-11-08T06:00:00	3	Temperatura mínima	18.3
103196	7	Sololá	704	Santa Lucía Utatlán 	7	Santa Rita 	7	Julio	2023-03-07T00:00:00	2024-11-08T06:00:00	5	Humedad	97
103197	7	Sololá	704	Santa Lucía Utatlán 	7	Santa Rita 	7	Julio	2023-03-07T00:00:00	2024-11-08T06:00:00	6	Velocidad del viento	0
103198	7	Sololá	704	Santa Lucía Utatlán 	7	Santa Rita 	7	Julio	2023-03-07T00:00:00	2024-11-08T06:00:00	7	Dirección del viento	0
103199	7	Sololá	704	Santa Lucía Utatlán 	7	Santa Rita 	7	Julio	2023-03-07T00:00:00	2024-11-08T06:00:00	1	Precipitación	0
103200	7	Sololá	704	Santa Lucía Utatlán 	7	Santa Rita 	7	Julio	2023-03-07T00:00:00	2024-11-08T06:00:00	8	Radiación solar	0
103201	7	Sololá	704	Santa Lucía Utatlán 	7	Santa Rita 	7	Julio	2023-03-07T00:00:00	2024-11-08T07:00:00	2	Temperatura media	18.7
103202	7	Sololá	704	Santa Lucía Utatlán 	7	Santa Rita 	7	Julio	2023-03-07T00:00:00	2024-11-08T07:00:00	4	Temperatura máxima	18.8
103203	7	Sololá	704	Santa Lucía Utatlán 	7	Santa Rita 	7	Julio	2023-03-07T00:00:00	2024-11-08T07:00:00	3	Temperatura mínima	18.3
103204	7	Sololá	704	Santa Lucía Utatlán 	7	Santa Rita 	7	Julio	2023-03-07T00:00:00	2024-11-08T07:00:00	5	Humedad	97
103205	7	Sololá	704	Santa Lucía Utatlán 	7	Santa Rita 	7	Julio	2023-03-07T00:00:00	2024-11-08T07:00:00	6	Velocidad del viento	0
103206	7	Sololá	704	Santa Lucía Utatlán 	7	Santa Rita 	7	Julio	2023-03-07T00:00:00	2024-11-08T07:00:00	7	Dirección del viento	0
103207	7	Sololá	704	Santa Lucía Utatlán 	7	Santa Rita 	7	Julio	2023-03-07T00:00:00	2024-11-08T07:00:00	1	Precipitación	0
103208	7	Sololá	704	Santa Lucía Utatlán 	7	Santa Rita 	7	Julio	2023-03-07T00:00:00	2024-11-08T07:00:00	8	Radiación solar	48
103209	7	Sololá	704	Santa Lucía Utatlán 	7	Santa Rita 	7	Julio	2023-03-07T00:00:00	2024-11-08T08:00:00	2	Temperatura media	19.4
103210	7	Sololá	704	Santa Lucía Utatlán 	7	Santa Rita 	7	Julio	2023-03-07T00:00:00	2024-11-08T08:00:00	4	Temperatura máxima	19.4
103211	7	Sololá	704	Santa Lucía Utatlán 	7	Santa Rita 	7	Julio	2023-03-07T00:00:00	2024-11-08T08:00:00	3	Temperatura mínima	18.7
103212	7	Sololá	704	Santa Lucía Utatlán 	7	Santa Rita 	7	Julio	2023-03-07T00:00:00	2024-11-08T08:00:00	5	Humedad	93
103213	7	Sololá	704	Santa Lucía Utatlán 	7	Santa Rita 	7	Julio	2023-03-07T00:00:00	2024-11-08T08:00:00	6	Velocidad del viento	1.6
103214	7	Sololá	704	Santa Lucía Utatlán 	7	Santa Rita 	7	Julio	2023-03-07T00:00:00	2024-11-08T08:00:00	7	Dirección del viento	1.61
103215	7	Sololá	704	Santa Lucía Utatlán 	7	Santa Rita 	7	Julio	2023-03-07T00:00:00	2024-11-08T08:00:00	1	Precipitación	0
103216	7	Sololá	704	Santa Lucía Utatlán 	7	Santa Rita 	7	Julio	2023-03-07T00:00:00	2024-11-08T08:00:00	8	Radiación solar	122
103217	7	Sololá	704	Santa Lucía Utatlán 	7	Santa Rita 	7	Julio	2023-03-07T00:00:00	2024-11-08T09:00:00	2	Temperatura media	21.7
103218	7	Sololá	704	Santa Lucía Utatlán 	7	Santa Rita 	7	Julio	2023-03-07T00:00:00	2024-11-08T09:00:00	4	Temperatura máxima	21.8
103219	7	Sololá	704	Santa Lucía Utatlán 	7	Santa Rita 	7	Julio	2023-03-07T00:00:00	2024-11-08T09:00:00	3	Temperatura mínima	19.4
103220	7	Sololá	704	Santa Lucía Utatlán 	7	Santa Rita 	7	Julio	2023-03-07T00:00:00	2024-11-08T09:00:00	5	Humedad	85
103221	7	Sololá	704	Santa Lucía Utatlán 	7	Santa Rita 	7	Julio	2023-03-07T00:00:00	2024-11-08T09:00:00	6	Velocidad del viento	3.2
103222	7	Sololá	704	Santa Lucía Utatlán 	7	Santa Rita 	7	Julio	2023-03-07T00:00:00	2024-11-08T09:00:00	7	Dirección del viento	3.22
103223	7	Sololá	704	Santa Lucía Utatlán 	7	Santa Rita 	7	Julio	2023-03-07T00:00:00	2024-11-08T09:00:00	1	Precipitación	0
103224	7	Sololá	704	Santa Lucía Utatlán 	7	Santa Rita 	7	Julio	2023-03-07T00:00:00	2024-11-08T09:00:00	8	Radiación solar	446
103225	7	Sololá	704	Santa Lucía Utatlán 	7	Santa Rita 	7	Julio	2023-03-07T00:00:00	2024-11-08T10:00:00	2	Temperatura media	21.8
103226	7	Sololá	704	Santa Lucía Utatlán 	7	Santa Rita 	7	Julio	2023-03-07T00:00:00	2024-11-08T10:00:00	4	Temperatura máxima	22.6
103227	7	Sololá	704	Santa Lucía Utatlán 	7	Santa Rita 	7	Julio	2023-03-07T00:00:00	2024-11-08T10:00:00	3	Temperatura mínima	21.6
103228	7	Sololá	704	Santa Lucía Utatlán 	7	Santa Rita 	7	Julio	2023-03-07T00:00:00	2024-11-08T10:00:00	5	Humedad	85
103229	7	Sololá	704	Santa Lucía Utatlán 	7	Santa Rita 	7	Julio	2023-03-07T00:00:00	2024-11-08T10:00:00	6	Velocidad del viento	3.2
103230	7	Sololá	704	Santa Lucía Utatlán 	7	Santa Rita 	7	Julio	2023-03-07T00:00:00	2024-11-08T10:00:00	7	Dirección del viento	3.22
103231	7	Sololá	704	Santa Lucía Utatlán 	7	Santa Rita 	7	Julio	2023-03-07T00:00:00	2024-11-08T10:00:00	1	Precipitación	0
103232	7	Sololá	704	Santa Lucía Utatlán 	7	Santa Rita 	7	Julio	2023-03-07T00:00:00	2024-11-08T10:00:00	8	Radiación solar	302
103233	7	Sololá	704	Santa Lucía Utatlán 	7	Santa Rita 	7	Julio	2023-03-07T00:00:00	2024-11-08T11:00:00	2	Temperatura media	22.2
103234	7	Sololá	704	Santa Lucía Utatlán 	7	Santa Rita 	7	Julio	2023-03-07T00:00:00	2024-11-08T11:00:00	4	Temperatura máxima	23.2
103235	7	Sololá	704	Santa Lucía Utatlán 	7	Santa Rita 	7	Julio	2023-03-07T00:00:00	2024-11-08T11:00:00	3	Temperatura mínima	21.8
103236	7	Sololá	704	Santa Lucía Utatlán 	7	Santa Rita 	7	Julio	2023-03-07T00:00:00	2024-11-08T11:00:00	5	Humedad	85
103237	7	Sololá	704	Santa Lucía Utatlán 	7	Santa Rita 	7	Julio	2023-03-07T00:00:00	2024-11-08T11:00:00	6	Velocidad del viento	4.8
103238	7	Sololá	704	Santa Lucía Utatlán 	7	Santa Rita 	7	Julio	2023-03-07T00:00:00	2024-11-08T11:00:00	7	Dirección del viento	4.83
103239	7	Sololá	704	Santa Lucía Utatlán 	7	Santa Rita 	7	Julio	2023-03-07T00:00:00	2024-11-08T11:00:00	1	Precipitación	0
103240	7	Sololá	704	Santa Lucía Utatlán 	7	Santa Rita 	7	Julio	2023-03-07T00:00:00	2024-11-08T11:00:00	8	Radiación solar	343
103241	7	Sololá	704	Santa Lucía Utatlán 	7	Santa Rita 	7	Julio	2023-03-07T00:00:00	2024-11-08T12:00:00	2	Temperatura media	22
103242	7	Sololá	704	Santa Lucía Utatlán 	7	Santa Rita 	7	Julio	2023-03-07T00:00:00	2024-11-08T12:00:00	4	Temperatura máxima	22.2
103243	7	Sololá	704	Santa Lucía Utatlán 	7	Santa Rita 	7	Julio	2023-03-07T00:00:00	2024-11-08T12:00:00	3	Temperatura mínima	21.8
103244	7	Sololá	704	Santa Lucía Utatlán 	7	Santa Rita 	7	Julio	2023-03-07T00:00:00	2024-11-08T12:00:00	5	Humedad	87
103245	7	Sololá	704	Santa Lucía Utatlán 	7	Santa Rita 	7	Julio	2023-03-07T00:00:00	2024-11-08T12:00:00	6	Velocidad del viento	4.8
103246	7	Sololá	704	Santa Lucía Utatlán 	7	Santa Rita 	7	Julio	2023-03-07T00:00:00	2024-11-08T12:00:00	7	Dirección del viento	4.83
103247	7	Sololá	704	Santa Lucía Utatlán 	7	Santa Rita 	7	Julio	2023-03-07T00:00:00	2024-11-08T12:00:00	1	Precipitación	0
103248	7	Sololá	704	Santa Lucía Utatlán 	7	Santa Rita 	7	Julio	2023-03-07T00:00:00	2024-11-08T12:00:00	8	Radiación solar	191
103249	7	Sololá	704	Santa Lucía Utatlán 	7	Santa Rita 	7	Julio	2023-03-07T00:00:00	2024-11-08T13:00:00	2	Temperatura media	22.8
103250	7	Sololá	704	Santa Lucía Utatlán 	7	Santa Rita 	7	Julio	2023-03-07T00:00:00	2024-11-08T13:00:00	4	Temperatura máxima	23.2
103251	7	Sololá	704	Santa Lucía Utatlán 	7	Santa Rita 	7	Julio	2023-03-07T00:00:00	2024-11-08T13:00:00	3	Temperatura mínima	21.8
103252	7	Sololá	704	Santa Lucía Utatlán 	7	Santa Rita 	7	Julio	2023-03-07T00:00:00	2024-11-08T13:00:00	5	Humedad	85
103253	7	Sololá	704	Santa Lucía Utatlán 	7	Santa Rita 	7	Julio	2023-03-07T00:00:00	2024-11-08T13:00:00	6	Velocidad del viento	3.2
103254	7	Sololá	704	Santa Lucía Utatlán 	7	Santa Rita 	7	Julio	2023-03-07T00:00:00	2024-11-08T13:00:00	7	Dirección del viento	3.22
103255	7	Sololá	704	Santa Lucía Utatlán 	7	Santa Rita 	7	Julio	2023-03-07T00:00:00	2024-11-08T13:00:00	1	Precipitación	0
103256	7	Sololá	704	Santa Lucía Utatlán 	7	Santa Rita 	7	Julio	2023-03-07T00:00:00	2024-11-08T13:00:00	8	Radiación solar	309
103257	7	Sololá	704	Santa Lucía Utatlán 	7	Santa Rita 	7	Julio	2023-03-07T00:00:00	2024-11-08T14:00:00	2	Temperatura media	21.8
103258	7	Sololá	704	Santa Lucía Utatlán 	7	Santa Rita 	7	Julio	2023-03-07T00:00:00	2024-11-08T14:00:00	4	Temperatura máxima	22.9
103259	7	Sololá	704	Santa Lucía Utatlán 	7	Santa Rita 	7	Julio	2023-03-07T00:00:00	2024-11-08T14:00:00	3	Temperatura mínima	21.8
103260	7	Sololá	704	Santa Lucía Utatlán 	7	Santa Rita 	7	Julio	2023-03-07T00:00:00	2024-11-08T14:00:00	5	Humedad	90
103261	7	Sololá	704	Santa Lucía Utatlán 	7	Santa Rita 	7	Julio	2023-03-07T00:00:00	2024-11-08T14:00:00	6	Velocidad del viento	4.8
103262	7	Sololá	704	Santa Lucía Utatlán 	7	Santa Rita 	7	Julio	2023-03-07T00:00:00	2024-11-08T14:00:00	7	Dirección del viento	4.83
103263	7	Sololá	704	Santa Lucía Utatlán 	7	Santa Rita 	7	Julio	2023-03-07T00:00:00	2024-11-08T14:00:00	1	Precipitación	0
103264	7	Sololá	704	Santa Lucía Utatlán 	7	Santa Rita 	7	Julio	2023-03-07T00:00:00	2024-11-08T14:00:00	8	Radiación solar	168
103265	7	Sololá	704	Santa Lucía Utatlán 	7	Santa Rita 	7	Julio	2023-03-07T00:00:00	2024-11-08T15:00:00	2	Temperatura media	20.8
103266	7	Sololá	704	Santa Lucía Utatlán 	7	Santa Rita 	7	Julio	2023-03-07T00:00:00	2024-11-08T15:00:00	4	Temperatura máxima	21.8
103267	7	Sololá	704	Santa Lucía Utatlán 	7	Santa Rita 	7	Julio	2023-03-07T00:00:00	2024-11-08T15:00:00	3	Temperatura mínima	20.8
103268	7	Sololá	704	Santa Lucía Utatlán 	7	Santa Rita 	7	Julio	2023-03-07T00:00:00	2024-11-08T15:00:00	5	Humedad	95
103269	7	Sololá	704	Santa Lucía Utatlán 	7	Santa Rita 	7	Julio	2023-03-07T00:00:00	2024-11-08T15:00:00	6	Velocidad del viento	3.2
103270	7	Sololá	704	Santa Lucía Utatlán 	7	Santa Rita 	7	Julio	2023-03-07T00:00:00	2024-11-08T15:00:00	7	Dirección del viento	3.22
103271	7	Sololá	704	Santa Lucía Utatlán 	7	Santa Rita 	7	Julio	2023-03-07T00:00:00	2024-11-08T15:00:00	1	Precipitación	3
103272	7	Sololá	704	Santa Lucía Utatlán 	7	Santa Rita 	7	Julio	2023-03-07T00:00:00	2024-11-08T15:00:00	8	Radiación solar	83
103273	7	Sololá	704	Santa Lucía Utatlán 	7	Santa Rita 	7	Julio	2023-03-07T00:00:00	2024-11-08T16:00:00	2	Temperatura media	21.7
103274	7	Sololá	704	Santa Lucía Utatlán 	7	Santa Rita 	7	Julio	2023-03-07T00:00:00	2024-11-08T16:00:00	4	Temperatura máxima	21.7
103275	7	Sololá	704	Santa Lucía Utatlán 	7	Santa Rita 	7	Julio	2023-03-07T00:00:00	2024-11-08T16:00:00	3	Temperatura mínima	20.8
103276	7	Sololá	704	Santa Lucía Utatlán 	7	Santa Rita 	7	Julio	2023-03-07T00:00:00	2024-11-08T16:00:00	5	Humedad	93
103277	7	Sololá	704	Santa Lucía Utatlán 	7	Santa Rita 	7	Julio	2023-03-07T00:00:00	2024-11-08T16:00:00	6	Velocidad del viento	1.6
103278	7	Sololá	704	Santa Lucía Utatlán 	7	Santa Rita 	7	Julio	2023-03-07T00:00:00	2024-11-08T16:00:00	7	Dirección del viento	1.61
103279	7	Sololá	704	Santa Lucía Utatlán 	7	Santa Rita 	7	Julio	2023-03-07T00:00:00	2024-11-08T16:00:00	1	Precipitación	0.4
103280	7	Sololá	704	Santa Lucía Utatlán 	7	Santa Rita 	7	Julio	2023-03-07T00:00:00	2024-11-08T16:00:00	8	Radiación solar	238
103281	7	Sololá	704	Santa Lucía Utatlán 	7	Santa Rita 	7	Julio	2023-03-07T00:00:00	2024-11-08T17:00:00	2	Temperatura media	21.4
103282	7	Sololá	704	Santa Lucía Utatlán 	7	Santa Rita 	7	Julio	2023-03-07T00:00:00	2024-11-08T17:00:00	4	Temperatura máxima	21.8
103283	7	Sololá	704	Santa Lucía Utatlán 	7	Santa Rita 	7	Julio	2023-03-07T00:00:00	2024-11-08T17:00:00	3	Temperatura mínima	21.4
103284	7	Sololá	704	Santa Lucía Utatlán 	7	Santa Rita 	7	Julio	2023-03-07T00:00:00	2024-11-08T17:00:00	5	Humedad	93
103285	7	Sololá	704	Santa Lucía Utatlán 	7	Santa Rita 	7	Julio	2023-03-07T00:00:00	2024-11-08T17:00:00	6	Velocidad del viento	1.6
103286	7	Sololá	704	Santa Lucía Utatlán 	7	Santa Rita 	7	Julio	2023-03-07T00:00:00	2024-11-08T17:00:00	7	Dirección del viento	1.61
103287	7	Sololá	704	Santa Lucía Utatlán 	7	Santa Rita 	7	Julio	2023-03-07T00:00:00	2024-11-08T17:00:00	1	Precipitación	0
103288	7	Sololá	704	Santa Lucía Utatlán 	7	Santa Rita 	7	Julio	2023-03-07T00:00:00	2024-11-08T17:00:00	8	Radiación solar	113
103289	7	Sololá	704	Santa Lucía Utatlán 	7	Santa Rita 	7	Julio	2023-03-07T00:00:00	2024-11-08T18:00:00	2	Temperatura media	20.8
103290	7	Sololá	704	Santa Lucía Utatlán 	7	Santa Rita 	7	Julio	2023-03-07T00:00:00	2024-11-08T18:00:00	4	Temperatura máxima	21.4
103291	7	Sololá	704	Santa Lucía Utatlán 	7	Santa Rita 	7	Julio	2023-03-07T00:00:00	2024-11-08T18:00:00	3	Temperatura mínima	20.7
103292	7	Sololá	704	Santa Lucía Utatlán 	7	Santa Rita 	7	Julio	2023-03-07T00:00:00	2024-11-08T18:00:00	5	Humedad	95
103293	7	Sololá	704	Santa Lucía Utatlán 	7	Santa Rita 	7	Julio	2023-03-07T00:00:00	2024-11-08T18:00:00	6	Velocidad del viento	1.6
103294	7	Sololá	704	Santa Lucía Utatlán 	7	Santa Rita 	7	Julio	2023-03-07T00:00:00	2024-11-08T18:00:00	7	Dirección del viento	1.61
103295	7	Sololá	704	Santa Lucía Utatlán 	7	Santa Rita 	7	Julio	2023-03-07T00:00:00	2024-11-08T18:00:00	1	Precipitación	0.6
103296	7	Sololá	704	Santa Lucía Utatlán 	7	Santa Rita 	7	Julio	2023-03-07T00:00:00	2024-11-08T18:00:00	8	Radiación solar	9
103297	7	Sololá	704	Santa Lucía Utatlán 	7	Santa Rita 	7	Julio	2023-03-07T00:00:00	2024-11-08T19:00:00	2	Temperatura media	20.3
103298	7	Sololá	704	Santa Lucía Utatlán 	7	Santa Rita 	7	Julio	2023-03-07T00:00:00	2024-11-08T19:00:00	4	Temperatura máxima	20.8
103299	7	Sololá	704	Santa Lucía Utatlán 	7	Santa Rita 	7	Julio	2023-03-07T00:00:00	2024-11-08T19:00:00	3	Temperatura mínima	20.3
103300	7	Sololá	704	Santa Lucía Utatlán 	7	Santa Rita 	7	Julio	2023-03-07T00:00:00	2024-11-08T19:00:00	5	Humedad	96
103301	7	Sololá	704	Santa Lucía Utatlán 	7	Santa Rita 	7	Julio	2023-03-07T00:00:00	2024-11-08T19:00:00	6	Velocidad del viento	1.6
103302	7	Sololá	704	Santa Lucía Utatlán 	7	Santa Rita 	7	Julio	2023-03-07T00:00:00	2024-11-08T19:00:00	7	Dirección del viento	1.61
103303	7	Sololá	704	Santa Lucía Utatlán 	7	Santa Rita 	7	Julio	2023-03-07T00:00:00	2024-11-08T19:00:00	1	Precipitación	6.2
103304	7	Sololá	704	Santa Lucía Utatlán 	7	Santa Rita 	7	Julio	2023-03-07T00:00:00	2024-11-08T19:00:00	8	Radiación solar	0
103305	7	Sololá	704	Santa Lucía Utatlán 	7	Santa Rita 	7	Julio	2023-03-07T00:00:00	2024-11-08T20:00:00	2	Temperatura media	19.6
103306	7	Sololá	704	Santa Lucía Utatlán 	7	Santa Rita 	7	Julio	2023-03-07T00:00:00	2024-11-08T20:00:00	4	Temperatura máxima	20.3
103307	7	Sololá	704	Santa Lucía Utatlán 	7	Santa Rita 	7	Julio	2023-03-07T00:00:00	2024-11-08T20:00:00	3	Temperatura mínima	19.6
103308	7	Sololá	704	Santa Lucía Utatlán 	7	Santa Rita 	7	Julio	2023-03-07T00:00:00	2024-11-08T20:00:00	5	Humedad	96
103309	7	Sololá	704	Santa Lucía Utatlán 	7	Santa Rita 	7	Julio	2023-03-07T00:00:00	2024-11-08T20:00:00	6	Velocidad del viento	3.2
103310	7	Sololá	704	Santa Lucía Utatlán 	7	Santa Rita 	7	Julio	2023-03-07T00:00:00	2024-11-08T20:00:00	7	Dirección del viento	3.22
103311	7	Sololá	704	Santa Lucía Utatlán 	7	Santa Rita 	7	Julio	2023-03-07T00:00:00	2024-11-08T20:00:00	1	Precipitación	11.2
103312	7	Sololá	704	Santa Lucía Utatlán 	7	Santa Rita 	7	Julio	2023-03-07T00:00:00	2024-11-08T20:00:00	8	Radiación solar	0
103313	7	Sololá	704	Santa Lucía Utatlán 	7	Santa Rita 	7	Julio	2023-03-07T00:00:00	2024-11-08T21:00:00	2	Temperatura media	19.2
103314	7	Sololá	704	Santa Lucía Utatlán 	7	Santa Rita 	7	Julio	2023-03-07T00:00:00	2024-11-08T21:00:00	4	Temperatura máxima	19.6
103315	7	Sololá	704	Santa Lucía Utatlán 	7	Santa Rita 	7	Julio	2023-03-07T00:00:00	2024-11-08T21:00:00	3	Temperatura mínima	19.2
103316	7	Sololá	704	Santa Lucía Utatlán 	7	Santa Rita 	7	Julio	2023-03-07T00:00:00	2024-11-08T21:00:00	5	Humedad	94
103317	7	Sololá	704	Santa Lucía Utatlán 	7	Santa Rita 	7	Julio	2023-03-07T00:00:00	2024-11-08T21:00:00	6	Velocidad del viento	3.2
103318	7	Sololá	704	Santa Lucía Utatlán 	7	Santa Rita 	7	Julio	2023-03-07T00:00:00	2024-11-08T21:00:00	7	Dirección del viento	3.22
103319	7	Sololá	704	Santa Lucía Utatlán 	7	Santa Rita 	7	Julio	2023-03-07T00:00:00	2024-11-08T21:00:00	1	Precipitación	4.6
103320	7	Sololá	704	Santa Lucía Utatlán 	7	Santa Rita 	7	Julio	2023-03-07T00:00:00	2024-11-08T21:00:00	8	Radiación solar	0
103321	7	Sololá	704	Santa Lucía Utatlán 	7	Santa Rita 	7	Julio	2023-03-07T00:00:00	2024-11-08T22:00:00	2	Temperatura media	18.9
103322	7	Sololá	704	Santa Lucía Utatlán 	7	Santa Rita 	7	Julio	2023-03-07T00:00:00	2024-11-08T22:00:00	4	Temperatura máxima	19.3
103323	7	Sololá	704	Santa Lucía Utatlán 	7	Santa Rita 	7	Julio	2023-03-07T00:00:00	2024-11-08T22:00:00	3	Temperatura mínima	18.9
103324	7	Sololá	704	Santa Lucía Utatlán 	7	Santa Rita 	7	Julio	2023-03-07T00:00:00	2024-11-08T22:00:00	5	Humedad	96
103325	7	Sololá	704	Santa Lucía Utatlán 	7	Santa Rita 	7	Julio	2023-03-07T00:00:00	2024-11-08T22:00:00	6	Velocidad del viento	1.6
103326	7	Sololá	704	Santa Lucía Utatlán 	7	Santa Rita 	7	Julio	2023-03-07T00:00:00	2024-11-08T22:00:00	7	Dirección del viento	1.61
103327	7	Sololá	704	Santa Lucía Utatlán 	7	Santa Rita 	7	Julio	2023-03-07T00:00:00	2024-11-08T22:00:00	1	Precipitación	5.2
103328	7	Sololá	704	Santa Lucía Utatlán 	7	Santa Rita 	7	Julio	2023-03-07T00:00:00	2024-11-08T22:00:00	8	Radiación solar	0
103329	7	Sololá	704	Santa Lucía Utatlán 	7	Santa Rita 	7	Julio	2023-03-07T00:00:00	2024-11-08T23:00:00	2	Temperatura media	18.9
103330	7	Sololá	704	Santa Lucía Utatlán 	7	Santa Rita 	7	Julio	2023-03-07T00:00:00	2024-11-08T23:00:00	4	Temperatura máxima	18.9
103331	7	Sololá	704	Santa Lucía Utatlán 	7	Santa Rita 	7	Julio	2023-03-07T00:00:00	2024-11-08T23:00:00	3	Temperatura mínima	18.8
103332	7	Sololá	704	Santa Lucía Utatlán 	7	Santa Rita 	7	Julio	2023-03-07T00:00:00	2024-11-08T23:00:00	5	Humedad	97
103333	7	Sololá	704	Santa Lucía Utatlán 	7	Santa Rita 	7	Julio	2023-03-07T00:00:00	2024-11-08T23:00:00	6	Velocidad del viento	0
103334	7	Sololá	704	Santa Lucía Utatlán 	7	Santa Rita 	7	Julio	2023-03-07T00:00:00	2024-11-08T23:00:00	7	Dirección del viento	0
103335	7	Sololá	704	Santa Lucía Utatlán 	7	Santa Rita 	7	Julio	2023-03-07T00:00:00	2024-11-08T23:00:00	1	Precipitación	1.6
103336	7	Sololá	704	Santa Lucía Utatlán 	7	Santa Rita 	7	Julio	2023-03-07T00:00:00	2024-11-08T23:00:00	8	Radiación solar	0
103337	7	Sololá	704	Santa Lucía Utatlán 	7	Santa Rita 	7	Julio	2023-04-07T00:00:00	2024-11-08T00:00:00	2	Temperatura media	18.8
103338	7	Sololá	704	Santa Lucía Utatlán 	7	Santa Rita 	7	Julio	2023-04-07T00:00:00	2024-11-08T00:00:00	4	Temperatura máxima	18.9
103339	7	Sololá	704	Santa Lucía Utatlán 	7	Santa Rita 	7	Julio	2023-04-07T00:00:00	2024-11-08T00:00:00	3	Temperatura mínima	18.7
103340	7	Sololá	704	Santa Lucía Utatlán 	7	Santa Rita 	7	Julio	2023-04-07T00:00:00	2024-11-08T00:00:00	5	Humedad	97
103341	7	Sololá	704	Santa Lucía Utatlán 	7	Santa Rita 	7	Julio	2023-04-07T00:00:00	2024-11-08T00:00:00	6	Velocidad del viento	0
103342	7	Sololá	704	Santa Lucía Utatlán 	7	Santa Rita 	7	Julio	2023-04-07T00:00:00	2024-11-08T00:00:00	7	Dirección del viento	0
103343	7	Sololá	704	Santa Lucía Utatlán 	7	Santa Rita 	7	Julio	2023-04-07T00:00:00	2024-11-08T00:00:00	1	Precipitación	0.8
103344	7	Sololá	704	Santa Lucía Utatlán 	7	Santa Rita 	7	Julio	2023-04-07T00:00:00	2024-11-08T00:00:00	8	Radiación solar	0
103345	7	Sololá	704	Santa Lucía Utatlán 	7	Santa Rita 	7	Julio	2023-04-07T00:00:00	2024-11-08T01:00:00	2	Temperatura media	18.8
103346	7	Sololá	704	Santa Lucía Utatlán 	7	Santa Rita 	7	Julio	2023-04-07T00:00:00	2024-11-08T01:00:00	4	Temperatura máxima	18.8
103347	7	Sololá	704	Santa Lucía Utatlán 	7	Santa Rita 	7	Julio	2023-04-07T00:00:00	2024-11-08T01:00:00	3	Temperatura mínima	18.7
103348	7	Sololá	704	Santa Lucía Utatlán 	7	Santa Rita 	7	Julio	2023-04-07T00:00:00	2024-11-08T01:00:00	5	Humedad	97
103349	7	Sololá	704	Santa Lucía Utatlán 	7	Santa Rita 	7	Julio	2023-04-07T00:00:00	2024-11-08T01:00:00	6	Velocidad del viento	1.6
103350	7	Sololá	704	Santa Lucía Utatlán 	7	Santa Rita 	7	Julio	2023-04-07T00:00:00	2024-11-08T01:00:00	7	Dirección del viento	1.61
103351	7	Sololá	704	Santa Lucía Utatlán 	7	Santa Rita 	7	Julio	2023-04-07T00:00:00	2024-11-08T01:00:00	1	Precipitación	0
103352	7	Sololá	704	Santa Lucía Utatlán 	7	Santa Rita 	7	Julio	2023-04-07T00:00:00	2024-11-08T01:00:00	8	Radiación solar	0
103353	7	Sololá	704	Santa Lucía Utatlán 	7	Santa Rita 	7	Julio	2023-04-07T00:00:00	2024-11-08T02:00:00	2	Temperatura media	18.7
103354	7	Sololá	704	Santa Lucía Utatlán 	7	Santa Rita 	7	Julio	2023-04-07T00:00:00	2024-11-08T02:00:00	4	Temperatura máxima	18.8
103355	7	Sololá	704	Santa Lucía Utatlán 	7	Santa Rita 	7	Julio	2023-04-07T00:00:00	2024-11-08T02:00:00	3	Temperatura mínima	18.7
103356	7	Sololá	704	Santa Lucía Utatlán 	7	Santa Rita 	7	Julio	2023-04-07T00:00:00	2024-11-08T02:00:00	5	Humedad	96
103357	7	Sololá	704	Santa Lucía Utatlán 	7	Santa Rita 	7	Julio	2023-04-07T00:00:00	2024-11-08T02:00:00	6	Velocidad del viento	1.6
103358	7	Sololá	704	Santa Lucía Utatlán 	7	Santa Rita 	7	Julio	2023-04-07T00:00:00	2024-11-08T02:00:00	7	Dirección del viento	1.61
103359	7	Sololá	704	Santa Lucía Utatlán 	7	Santa Rita 	7	Julio	2023-04-07T00:00:00	2024-11-08T02:00:00	1	Precipitación	0
103360	7	Sololá	704	Santa Lucía Utatlán 	7	Santa Rita 	7	Julio	2023-04-07T00:00:00	2024-11-08T02:00:00	8	Radiación solar	0
103361	7	Sololá	704	Santa Lucía Utatlán 	7	Santa Rita 	7	Julio	2023-04-07T00:00:00	2024-11-08T03:00:00	2	Temperatura media	18.5
103362	7	Sololá	704	Santa Lucía Utatlán 	7	Santa Rita 	7	Julio	2023-04-07T00:00:00	2024-11-08T03:00:00	4	Temperatura máxima	18.7
103363	7	Sololá	704	Santa Lucía Utatlán 	7	Santa Rita 	7	Julio	2023-04-07T00:00:00	2024-11-08T03:00:00	3	Temperatura mínima	18.4
103364	7	Sololá	704	Santa Lucía Utatlán 	7	Santa Rita 	7	Julio	2023-04-07T00:00:00	2024-11-08T03:00:00	5	Humedad	96
103365	7	Sololá	704	Santa Lucía Utatlán 	7	Santa Rita 	7	Julio	2023-04-07T00:00:00	2024-11-08T03:00:00	6	Velocidad del viento	1.6
103366	7	Sololá	704	Santa Lucía Utatlán 	7	Santa Rita 	7	Julio	2023-04-07T00:00:00	2024-11-08T03:00:00	7	Dirección del viento	1.61
103367	7	Sololá	704	Santa Lucía Utatlán 	7	Santa Rita 	7	Julio	2023-04-07T00:00:00	2024-11-08T03:00:00	1	Precipitación	0
103368	7	Sololá	704	Santa Lucía Utatlán 	7	Santa Rita 	7	Julio	2023-04-07T00:00:00	2024-11-08T03:00:00	8	Radiación solar	0
103369	7	Sololá	704	Santa Lucía Utatlán 	7	Santa Rita 	7	Julio	2023-04-07T00:00:00	2024-11-08T04:00:00	2	Temperatura media	18.3
103370	7	Sololá	704	Santa Lucía Utatlán 	7	Santa Rita 	7	Julio	2023-04-07T00:00:00	2024-11-08T04:00:00	4	Temperatura máxima	18.5
103371	7	Sololá	704	Santa Lucía Utatlán 	7	Santa Rita 	7	Julio	2023-04-07T00:00:00	2024-11-08T04:00:00	3	Temperatura mínima	18.3
103372	7	Sololá	704	Santa Lucía Utatlán 	7	Santa Rita 	7	Julio	2023-04-07T00:00:00	2024-11-08T04:00:00	5	Humedad	96
103373	7	Sololá	704	Santa Lucía Utatlán 	7	Santa Rita 	7	Julio	2023-04-07T00:00:00	2024-11-08T04:00:00	6	Velocidad del viento	1.6
103374	7	Sololá	704	Santa Lucía Utatlán 	7	Santa Rita 	7	Julio	2023-04-07T00:00:00	2024-11-08T04:00:00	7	Dirección del viento	1.61
103375	7	Sololá	704	Santa Lucía Utatlán 	7	Santa Rita 	7	Julio	2023-04-07T00:00:00	2024-11-08T04:00:00	1	Precipitación	0
103376	7	Sololá	704	Santa Lucía Utatlán 	7	Santa Rita 	7	Julio	2023-04-07T00:00:00	2024-11-08T04:00:00	8	Radiación solar	0
103377	7	Sololá	704	Santa Lucía Utatlán 	7	Santa Rita 	7	Julio	2023-04-07T00:00:00	2024-11-08T05:00:00	2	Temperatura media	18.4
103378	7	Sololá	704	Santa Lucía Utatlán 	7	Santa Rita 	7	Julio	2023-04-07T00:00:00	2024-11-08T05:00:00	4	Temperatura máxima	18.4
103379	7	Sololá	704	Santa Lucía Utatlán 	7	Santa Rita 	7	Julio	2023-04-07T00:00:00	2024-11-08T05:00:00	3	Temperatura mínima	18.2
103380	7	Sololá	704	Santa Lucía Utatlán 	7	Santa Rita 	7	Julio	2023-04-07T00:00:00	2024-11-08T05:00:00	5	Humedad	95
103381	7	Sololá	704	Santa Lucía Utatlán 	7	Santa Rita 	7	Julio	2023-04-07T00:00:00	2024-11-08T05:00:00	6	Velocidad del viento	1.6
103382	7	Sololá	704	Santa Lucía Utatlán 	7	Santa Rita 	7	Julio	2023-04-07T00:00:00	2024-11-08T05:00:00	7	Dirección del viento	1.61
103383	7	Sololá	704	Santa Lucía Utatlán 	7	Santa Rita 	7	Julio	2023-04-07T00:00:00	2024-11-08T05:00:00	1	Precipitación	0
103384	7	Sololá	704	Santa Lucía Utatlán 	7	Santa Rita 	7	Julio	2023-04-07T00:00:00	2024-11-08T05:00:00	8	Radiación solar	0
103385	7	Sololá	704	Santa Lucía Utatlán 	7	Santa Rita 	7	Julio	2023-04-07T00:00:00	2024-11-08T06:00:00	2	Temperatura media	18.3
103386	7	Sololá	704	Santa Lucía Utatlán 	7	Santa Rita 	7	Julio	2023-04-07T00:00:00	2024-11-08T06:00:00	4	Temperatura máxima	18.5
103387	7	Sololá	704	Santa Lucía Utatlán 	7	Santa Rita 	7	Julio	2023-04-07T00:00:00	2024-11-08T06:00:00	3	Temperatura mínima	18.3
103388	7	Sololá	704	Santa Lucía Utatlán 	7	Santa Rita 	7	Julio	2023-04-07T00:00:00	2024-11-08T06:00:00	5	Humedad	94
103389	7	Sololá	704	Santa Lucía Utatlán 	7	Santa Rita 	7	Julio	2023-04-07T00:00:00	2024-11-08T06:00:00	6	Velocidad del viento	1.6
103390	7	Sololá	704	Santa Lucía Utatlán 	7	Santa Rita 	7	Julio	2023-04-07T00:00:00	2024-11-08T06:00:00	7	Dirección del viento	1.61
103391	7	Sololá	704	Santa Lucía Utatlán 	7	Santa Rita 	7	Julio	2023-04-07T00:00:00	2024-11-08T06:00:00	1	Precipitación	0
103392	7	Sololá	704	Santa Lucía Utatlán 	7	Santa Rita 	7	Julio	2023-04-07T00:00:00	2024-11-08T06:00:00	8	Radiación solar	3
103393	7	Sololá	704	Santa Lucía Utatlán 	7	Santa Rita 	7	Julio	2023-04-07T00:00:00	2024-11-08T07:00:00	2	Temperatura media	18.9
103394	7	Sololá	704	Santa Lucía Utatlán 	7	Santa Rita 	7	Julio	2023-04-07T00:00:00	2024-11-08T07:00:00	4	Temperatura máxima	18.9
103395	7	Sololá	704	Santa Lucía Utatlán 	7	Santa Rita 	7	Julio	2023-04-07T00:00:00	2024-11-08T07:00:00	3	Temperatura mínima	18.3
103396	7	Sololá	704	Santa Lucía Utatlán 	7	Santa Rita 	7	Julio	2023-04-07T00:00:00	2024-11-08T07:00:00	5	Humedad	96
103397	7	Sololá	704	Santa Lucía Utatlán 	7	Santa Rita 	7	Julio	2023-04-07T00:00:00	2024-11-08T07:00:00	6	Velocidad del viento	1.6
103398	7	Sololá	704	Santa Lucía Utatlán 	7	Santa Rita 	7	Julio	2023-04-07T00:00:00	2024-11-08T07:00:00	7	Dirección del viento	1.61
103399	7	Sololá	704	Santa Lucía Utatlán 	7	Santa Rita 	7	Julio	2023-04-07T00:00:00	2024-11-08T07:00:00	1	Precipitación	0
103400	7	Sololá	704	Santa Lucía Utatlán 	7	Santa Rita 	7	Julio	2023-04-07T00:00:00	2024-11-08T07:00:00	8	Radiación solar	52
103401	7	Sololá	704	Santa Lucía Utatlán 	7	Santa Rita 	7	Julio	2023-04-07T00:00:00	2024-11-08T08:00:00	2	Temperatura media	19.6
103402	7	Sololá	704	Santa Lucía Utatlán 	7	Santa Rita 	7	Julio	2023-04-07T00:00:00	2024-11-08T08:00:00	4	Temperatura máxima	19.7
103403	7	Sololá	704	Santa Lucía Utatlán 	7	Santa Rita 	7	Julio	2023-04-07T00:00:00	2024-11-08T08:00:00	3	Temperatura mínima	18.9
103404	7	Sololá	704	Santa Lucía Utatlán 	7	Santa Rita 	7	Julio	2023-04-07T00:00:00	2024-11-08T08:00:00	5	Humedad	90
103405	7	Sololá	704	Santa Lucía Utatlán 	7	Santa Rita 	7	Julio	2023-04-07T00:00:00	2024-11-08T08:00:00	6	Velocidad del viento	1.6
103406	7	Sololá	704	Santa Lucía Utatlán 	7	Santa Rita 	7	Julio	2023-04-07T00:00:00	2024-11-08T08:00:00	7	Dirección del viento	1.61
103407	7	Sololá	704	Santa Lucía Utatlán 	7	Santa Rita 	7	Julio	2023-04-07T00:00:00	2024-11-08T08:00:00	1	Precipitación	0
103408	7	Sololá	704	Santa Lucía Utatlán 	7	Santa Rita 	7	Julio	2023-04-07T00:00:00	2024-11-08T08:00:00	8	Radiación solar	131
103409	7	Sololá	704	Santa Lucía Utatlán 	7	Santa Rita 	7	Julio	2023-04-07T00:00:00	2024-11-08T09:00:00	2	Temperatura media	20.7
103410	7	Sololá	704	Santa Lucía Utatlán 	7	Santa Rita 	7	Julio	2023-04-07T00:00:00	2024-11-08T09:00:00	4	Temperatura máxima	20.7
103411	7	Sololá	704	Santa Lucía Utatlán 	7	Santa Rita 	7	Julio	2023-04-07T00:00:00	2024-11-08T09:00:00	3	Temperatura mínima	19.3
103412	7	Sololá	704	Santa Lucía Utatlán 	7	Santa Rita 	7	Julio	2023-04-07T00:00:00	2024-11-08T09:00:00	5	Humedad	89
103413	7	Sololá	704	Santa Lucía Utatlán 	7	Santa Rita 	7	Julio	2023-04-07T00:00:00	2024-11-08T09:00:00	6	Velocidad del viento	1.6
103414	7	Sololá	704	Santa Lucía Utatlán 	7	Santa Rita 	7	Julio	2023-04-07T00:00:00	2024-11-08T09:00:00	7	Dirección del viento	1.61
103415	7	Sololá	704	Santa Lucía Utatlán 	7	Santa Rita 	7	Julio	2023-04-07T00:00:00	2024-11-08T09:00:00	1	Precipitación	0
103416	7	Sololá	704	Santa Lucía Utatlán 	7	Santa Rita 	7	Julio	2023-04-07T00:00:00	2024-11-08T09:00:00	8	Radiación solar	201
103417	7	Sololá	704	Santa Lucía Utatlán 	7	Santa Rita 	7	Julio	2023-04-07T00:00:00	2024-11-08T10:00:00	2	Temperatura media	22.3
103418	7	Sololá	704	Santa Lucía Utatlán 	7	Santa Rita 	7	Julio	2023-04-07T00:00:00	2024-11-08T10:00:00	4	Temperatura máxima	22.4
103419	7	Sololá	704	Santa Lucía Utatlán 	7	Santa Rita 	7	Julio	2023-04-07T00:00:00	2024-11-08T10:00:00	3	Temperatura mínima	20.7
103420	7	Sololá	704	Santa Lucía Utatlán 	7	Santa Rita 	7	Julio	2023-04-07T00:00:00	2024-11-08T10:00:00	5	Humedad	79
103421	7	Sololá	704	Santa Lucía Utatlán 	7	Santa Rita 	7	Julio	2023-04-07T00:00:00	2024-11-08T10:00:00	6	Velocidad del viento	3.2
103422	7	Sololá	704	Santa Lucía Utatlán 	7	Santa Rita 	7	Julio	2023-04-07T00:00:00	2024-11-08T10:00:00	7	Dirección del viento	3.22
103423	7	Sololá	704	Santa Lucía Utatlán 	7	Santa Rita 	7	Julio	2023-04-07T00:00:00	2024-11-08T10:00:00	1	Precipitación	0
103424	7	Sololá	704	Santa Lucía Utatlán 	7	Santa Rita 	7	Julio	2023-04-07T00:00:00	2024-11-08T10:00:00	8	Radiación solar	442
103425	7	Sololá	704	Santa Lucía Utatlán 	7	Santa Rita 	7	Julio	2023-04-07T00:00:00	2024-11-08T11:00:00	2	Temperatura media	23
103426	7	Sololá	704	Santa Lucía Utatlán 	7	Santa Rita 	7	Julio	2023-04-07T00:00:00	2024-11-08T11:00:00	4	Temperatura máxima	23.2
103427	7	Sololá	704	Santa Lucía Utatlán 	7	Santa Rita 	7	Julio	2023-04-07T00:00:00	2024-11-08T11:00:00	3	Temperatura mínima	22.3
103428	7	Sololá	704	Santa Lucía Utatlán 	7	Santa Rita 	7	Julio	2023-04-07T00:00:00	2024-11-08T11:00:00	5	Humedad	80
103429	7	Sololá	704	Santa Lucía Utatlán 	7	Santa Rita 	7	Julio	2023-04-07T00:00:00	2024-11-08T11:00:00	6	Velocidad del viento	4.8
103430	7	Sololá	704	Santa Lucía Utatlán 	7	Santa Rita 	7	Julio	2023-04-07T00:00:00	2024-11-08T11:00:00	7	Dirección del viento	4.83
103431	7	Sololá	704	Santa Lucía Utatlán 	7	Santa Rita 	7	Julio	2023-04-07T00:00:00	2024-11-08T11:00:00	1	Precipitación	0
103432	7	Sololá	704	Santa Lucía Utatlán 	7	Santa Rita 	7	Julio	2023-04-07T00:00:00	2024-11-08T11:00:00	8	Radiación solar	330
103433	7	Sololá	704	Santa Lucía Utatlán 	7	Santa Rita 	7	Julio	2023-04-07T00:00:00	2024-11-08T12:00:00	2	Temperatura media	23.4
103434	7	Sololá	704	Santa Lucía Utatlán 	7	Santa Rita 	7	Julio	2023-04-07T00:00:00	2024-11-08T12:00:00	4	Temperatura máxima	23.7
103435	7	Sololá	704	Santa Lucía Utatlán 	7	Santa Rita 	7	Julio	2023-04-07T00:00:00	2024-11-08T12:00:00	3	Temperatura mínima	22.7
103436	7	Sololá	704	Santa Lucía Utatlán 	7	Santa Rita 	7	Julio	2023-04-07T00:00:00	2024-11-08T12:00:00	5	Humedad	76
103437	7	Sololá	704	Santa Lucía Utatlán 	7	Santa Rita 	7	Julio	2023-04-07T00:00:00	2024-11-08T12:00:00	6	Velocidad del viento	4.8
103438	7	Sololá	704	Santa Lucía Utatlán 	7	Santa Rita 	7	Julio	2023-04-07T00:00:00	2024-11-08T12:00:00	7	Dirección del viento	4.83
103439	7	Sololá	704	Santa Lucía Utatlán 	7	Santa Rita 	7	Julio	2023-04-07T00:00:00	2024-11-08T12:00:00	1	Precipitación	0
103440	7	Sololá	704	Santa Lucía Utatlán 	7	Santa Rita 	7	Julio	2023-04-07T00:00:00	2024-11-08T12:00:00	8	Radiación solar	478
103441	7	Sololá	704	Santa Lucía Utatlán 	7	Santa Rita 	7	Julio	2023-04-07T00:00:00	2024-11-08T13:00:00	2	Temperatura media	22.7
103442	7	Sololá	704	Santa Lucía Utatlán 	7	Santa Rita 	7	Julio	2023-04-07T00:00:00	2024-11-08T13:00:00	4	Temperatura máxima	23.9
103443	7	Sololá	704	Santa Lucía Utatlán 	7	Santa Rita 	7	Julio	2023-04-07T00:00:00	2024-11-08T13:00:00	3	Temperatura mínima	22.7
103444	7	Sololá	704	Santa Lucía Utatlán 	7	Santa Rita 	7	Julio	2023-04-07T00:00:00	2024-11-08T13:00:00	5	Humedad	81
103445	7	Sololá	704	Santa Lucía Utatlán 	7	Santa Rita 	7	Julio	2023-04-07T00:00:00	2024-11-08T13:00:00	6	Velocidad del viento	8
103446	7	Sololá	704	Santa Lucía Utatlán 	7	Santa Rita 	7	Julio	2023-04-07T00:00:00	2024-11-08T13:00:00	7	Dirección del viento	8.05
103447	7	Sololá	704	Santa Lucía Utatlán 	7	Santa Rita 	7	Julio	2023-04-07T00:00:00	2024-11-08T13:00:00	1	Precipitación	0
103448	7	Sololá	704	Santa Lucía Utatlán 	7	Santa Rita 	7	Julio	2023-04-07T00:00:00	2024-11-08T13:00:00	8	Radiación solar	451
103449	7	Sololá	704	Santa Lucía Utatlán 	7	Santa Rita 	7	Julio	2023-04-07T00:00:00	2024-11-08T14:00:00	2	Temperatura media	23.9
103450	7	Sololá	704	Santa Lucía Utatlán 	7	Santa Rita 	7	Julio	2023-04-07T00:00:00	2024-11-08T14:00:00	4	Temperatura máxima	24.1
103451	7	Sololá	704	Santa Lucía Utatlán 	7	Santa Rita 	7	Julio	2023-04-07T00:00:00	2024-11-08T14:00:00	3	Temperatura mínima	22.6
103452	7	Sololá	704	Santa Lucía Utatlán 	7	Santa Rita 	7	Julio	2023-04-07T00:00:00	2024-11-08T14:00:00	5	Humedad	77
103453	7	Sololá	704	Santa Lucía Utatlán 	7	Santa Rita 	7	Julio	2023-04-07T00:00:00	2024-11-08T14:00:00	6	Velocidad del viento	3.2
103454	7	Sololá	704	Santa Lucía Utatlán 	7	Santa Rita 	7	Julio	2023-04-07T00:00:00	2024-11-08T14:00:00	7	Dirección del viento	3.22
103455	7	Sololá	704	Santa Lucía Utatlán 	7	Santa Rita 	7	Julio	2023-04-07T00:00:00	2024-11-08T14:00:00	1	Precipitación	0
103456	7	Sololá	704	Santa Lucía Utatlán 	7	Santa Rita 	7	Julio	2023-04-07T00:00:00	2024-11-08T14:00:00	8	Radiación solar	296
103457	7	Sololá	704	Santa Lucía Utatlán 	7	Santa Rita 	7	Julio	2023-04-07T00:00:00	2024-11-08T15:00:00	2	Temperatura media	21.7
103458	7	Sololá	704	Santa Lucía Utatlán 	7	Santa Rita 	7	Julio	2023-04-07T00:00:00	2024-11-08T15:00:00	4	Temperatura máxima	24.7
103459	7	Sololá	704	Santa Lucía Utatlán 	7	Santa Rita 	7	Julio	2023-04-07T00:00:00	2024-11-08T15:00:00	3	Temperatura mínima	21.7
103460	7	Sololá	704	Santa Lucía Utatlán 	7	Santa Rita 	7	Julio	2023-04-07T00:00:00	2024-11-08T15:00:00	5	Humedad	88
103461	7	Sololá	704	Santa Lucía Utatlán 	7	Santa Rita 	7	Julio	2023-04-07T00:00:00	2024-11-08T15:00:00	6	Velocidad del viento	6.4
103462	7	Sololá	704	Santa Lucía Utatlán 	7	Santa Rita 	7	Julio	2023-04-07T00:00:00	2024-11-08T15:00:00	7	Dirección del viento	6.44
103463	7	Sololá	704	Santa Lucía Utatlán 	7	Santa Rita 	7	Julio	2023-04-07T00:00:00	2024-11-08T15:00:00	1	Precipitación	0
103464	7	Sololá	704	Santa Lucía Utatlán 	7	Santa Rita 	7	Julio	2023-04-07T00:00:00	2024-11-08T15:00:00	8	Radiación solar	208
103465	7	Sololá	704	Santa Lucía Utatlán 	7	Santa Rita 	7	Julio	2023-04-07T00:00:00	2024-11-08T16:00:00	2	Temperatura media	20.2
103466	7	Sololá	704	Santa Lucía Utatlán 	7	Santa Rita 	7	Julio	2023-04-07T00:00:00	2024-11-08T16:00:00	4	Temperatura máxima	21.7
103467	7	Sololá	704	Santa Lucía Utatlán 	7	Santa Rita 	7	Julio	2023-04-07T00:00:00	2024-11-08T16:00:00	3	Temperatura mínima	20.1
103468	7	Sololá	704	Santa Lucía Utatlán 	7	Santa Rita 	7	Julio	2023-04-07T00:00:00	2024-11-08T16:00:00	5	Humedad	93
103469	7	Sololá	704	Santa Lucía Utatlán 	7	Santa Rita 	7	Julio	2023-04-07T00:00:00	2024-11-08T16:00:00	6	Velocidad del viento	3.2
103470	7	Sololá	704	Santa Lucía Utatlán 	7	Santa Rita 	7	Julio	2023-04-07T00:00:00	2024-11-08T16:00:00	7	Dirección del viento	3.22
103471	7	Sololá	704	Santa Lucía Utatlán 	7	Santa Rita 	7	Julio	2023-04-07T00:00:00	2024-11-08T16:00:00	1	Precipitación	5.4
103472	7	Sololá	704	Santa Lucía Utatlán 	7	Santa Rita 	7	Julio	2023-04-07T00:00:00	2024-11-08T16:00:00	8	Radiación solar	44
103473	7	Sololá	704	Santa Lucía Utatlán 	7	Santa Rita 	7	Julio	2023-04-07T00:00:00	2024-11-08T17:00:00	2	Temperatura media	21.1
103474	7	Sololá	704	Santa Lucía Utatlán 	7	Santa Rita 	7	Julio	2023-04-07T00:00:00	2024-11-08T17:00:00	4	Temperatura máxima	21.1
103475	7	Sololá	704	Santa Lucía Utatlán 	7	Santa Rita 	7	Julio	2023-04-07T00:00:00	2024-11-08T17:00:00	3	Temperatura mínima	20.1
103476	7	Sololá	704	Santa Lucía Utatlán 	7	Santa Rita 	7	Julio	2023-04-07T00:00:00	2024-11-08T17:00:00	5	Humedad	94
103477	7	Sololá	704	Santa Lucía Utatlán 	7	Santa Rita 	7	Julio	2023-04-07T00:00:00	2024-11-08T17:00:00	6	Velocidad del viento	1.6
103478	7	Sololá	704	Santa Lucía Utatlán 	7	Santa Rita 	7	Julio	2023-04-07T00:00:00	2024-11-08T17:00:00	7	Dirección del viento	1.61
103479	7	Sololá	704	Santa Lucía Utatlán 	7	Santa Rita 	7	Julio	2023-04-07T00:00:00	2024-11-08T17:00:00	1	Precipitación	0.8
103480	7	Sololá	704	Santa Lucía Utatlán 	7	Santa Rita 	7	Julio	2023-04-07T00:00:00	2024-11-08T17:00:00	8	Radiación solar	113
103481	7	Sololá	704	Santa Lucía Utatlán 	7	Santa Rita 	7	Julio	2023-04-07T00:00:00	2024-11-08T18:00:00	2	Temperatura media	20.8
103482	7	Sololá	704	Santa Lucía Utatlán 	7	Santa Rita 	7	Julio	2023-04-07T00:00:00	2024-11-08T18:00:00	4	Temperatura máxima	21.1
103483	7	Sololá	704	Santa Lucía Utatlán 	7	Santa Rita 	7	Julio	2023-04-07T00:00:00	2024-11-08T18:00:00	3	Temperatura mínima	20.8
103484	7	Sololá	704	Santa Lucía Utatlán 	7	Santa Rita 	7	Julio	2023-04-07T00:00:00	2024-11-08T18:00:00	5	Humedad	94
103485	7	Sololá	704	Santa Lucía Utatlán 	7	Santa Rita 	7	Julio	2023-04-07T00:00:00	2024-11-08T18:00:00	6	Velocidad del viento	1.6
103486	7	Sololá	704	Santa Lucía Utatlán 	7	Santa Rita 	7	Julio	2023-04-07T00:00:00	2024-11-08T18:00:00	7	Dirección del viento	1.61
103487	7	Sololá	704	Santa Lucía Utatlán 	7	Santa Rita 	7	Julio	2023-04-07T00:00:00	2024-11-08T18:00:00	1	Precipitación	0
103488	7	Sololá	704	Santa Lucía Utatlán 	7	Santa Rita 	7	Julio	2023-04-07T00:00:00	2024-11-08T18:00:00	8	Radiación solar	34
103489	7	Sololá	704	Santa Lucía Utatlán 	7	Santa Rita 	7	Julio	2023-04-07T00:00:00	2024-11-08T19:00:00	2	Temperatura media	20.1
103490	7	Sololá	704	Santa Lucía Utatlán 	7	Santa Rita 	7	Julio	2023-04-07T00:00:00	2024-11-08T19:00:00	4	Temperatura máxima	20.9
103491	7	Sololá	704	Santa Lucía Utatlán 	7	Santa Rita 	7	Julio	2023-04-07T00:00:00	2024-11-08T19:00:00	3	Temperatura mínima	20.1
103492	7	Sololá	704	Santa Lucía Utatlán 	7	Santa Rita 	7	Julio	2023-04-07T00:00:00	2024-11-08T19:00:00	5	Humedad	94
103493	7	Sololá	704	Santa Lucía Utatlán 	7	Santa Rita 	7	Julio	2023-04-07T00:00:00	2024-11-08T19:00:00	6	Velocidad del viento	1.6
103494	7	Sololá	704	Santa Lucía Utatlán 	7	Santa Rita 	7	Julio	2023-04-07T00:00:00	2024-11-08T19:00:00	7	Dirección del viento	1.61
103495	7	Sololá	704	Santa Lucía Utatlán 	7	Santa Rita 	7	Julio	2023-04-07T00:00:00	2024-11-08T19:00:00	1	Precipitación	0.2
103496	7	Sololá	704	Santa Lucía Utatlán 	7	Santa Rita 	7	Julio	2023-04-07T00:00:00	2024-11-08T19:00:00	8	Radiación solar	0
103497	7	Sololá	704	Santa Lucía Utatlán 	7	Santa Rita 	7	Julio	2023-04-07T00:00:00	2024-11-08T20:00:00	2	Temperatura media	19.8
103498	7	Sololá	704	Santa Lucía Utatlán 	7	Santa Rita 	7	Julio	2023-04-07T00:00:00	2024-11-08T20:00:00	4	Temperatura máxima	20.1
103499	7	Sololá	704	Santa Lucía Utatlán 	7	Santa Rita 	7	Julio	2023-04-07T00:00:00	2024-11-08T20:00:00	3	Temperatura mínima	19.8
103500	7	Sololá	704	Santa Lucía Utatlán 	7	Santa Rita 	7	Julio	2023-04-07T00:00:00	2024-11-08T20:00:00	5	Humedad	93
103501	7	Sololá	704	Santa Lucía Utatlán 	7	Santa Rita 	7	Julio	2023-04-07T00:00:00	2024-11-08T20:00:00	6	Velocidad del viento	3.2
103502	7	Sololá	704	Santa Lucía Utatlán 	7	Santa Rita 	7	Julio	2023-04-07T00:00:00	2024-11-08T20:00:00	7	Dirección del viento	3.22
103503	7	Sololá	704	Santa Lucía Utatlán 	7	Santa Rita 	7	Julio	2023-04-07T00:00:00	2024-11-08T20:00:00	1	Precipitación	0.6
103504	7	Sololá	704	Santa Lucía Utatlán 	7	Santa Rita 	7	Julio	2023-04-07T00:00:00	2024-11-08T20:00:00	8	Radiación solar	0
103505	7	Sololá	704	Santa Lucía Utatlán 	7	Santa Rita 	7	Julio	2023-04-07T00:00:00	2024-11-08T21:00:00	2	Temperatura media	19.3
103506	7	Sololá	704	Santa Lucía Utatlán 	7	Santa Rita 	7	Julio	2023-04-07T00:00:00	2024-11-08T21:00:00	4	Temperatura máxima	19.8
103507	7	Sololá	704	Santa Lucía Utatlán 	7	Santa Rita 	7	Julio	2023-04-07T00:00:00	2024-11-08T21:00:00	3	Temperatura mínima	19.3
103508	7	Sololá	704	Santa Lucía Utatlán 	7	Santa Rita 	7	Julio	2023-04-07T00:00:00	2024-11-08T21:00:00	5	Humedad	96
103509	7	Sololá	704	Santa Lucía Utatlán 	7	Santa Rita 	7	Julio	2023-04-07T00:00:00	2024-11-08T21:00:00	6	Velocidad del viento	1.6
103510	7	Sololá	704	Santa Lucía Utatlán 	7	Santa Rita 	7	Julio	2023-04-07T00:00:00	2024-11-08T21:00:00	7	Dirección del viento	1.61
103511	7	Sololá	704	Santa Lucía Utatlán 	7	Santa Rita 	7	Julio	2023-04-07T00:00:00	2024-11-08T21:00:00	1	Precipitación	0.8
103512	7	Sololá	704	Santa Lucía Utatlán 	7	Santa Rita 	7	Julio	2023-04-07T00:00:00	2024-11-08T21:00:00	8	Radiación solar	0
103513	7	Sololá	704	Santa Lucía Utatlán 	7	Santa Rita 	7	Julio	2023-04-07T00:00:00	2024-11-08T22:00:00	2	Temperatura media	19.3
103514	7	Sololá	704	Santa Lucía Utatlán 	7	Santa Rita 	7	Julio	2023-04-07T00:00:00	2024-11-08T22:00:00	4	Temperatura máxima	19.4
103515	7	Sololá	704	Santa Lucía Utatlán 	7	Santa Rita 	7	Julio	2023-04-07T00:00:00	2024-11-08T22:00:00	3	Temperatura mínima	19.2
103516	7	Sololá	704	Santa Lucía Utatlán 	7	Santa Rita 	7	Julio	2023-04-07T00:00:00	2024-11-08T22:00:00	5	Humedad	96
103517	7	Sololá	704	Santa Lucía Utatlán 	7	Santa Rita 	7	Julio	2023-04-07T00:00:00	2024-11-08T22:00:00	6	Velocidad del viento	1.6
103518	7	Sololá	704	Santa Lucía Utatlán 	7	Santa Rita 	7	Julio	2023-04-07T00:00:00	2024-11-08T22:00:00	7	Dirección del viento	1.61
103519	7	Sololá	704	Santa Lucía Utatlán 	7	Santa Rita 	7	Julio	2023-04-07T00:00:00	2024-11-08T22:00:00	1	Precipitación	5.4
103520	7	Sololá	704	Santa Lucía Utatlán 	7	Santa Rita 	7	Julio	2023-04-07T00:00:00	2024-11-08T22:00:00	8	Radiación solar	0
103521	7	Sololá	704	Santa Lucía Utatlán 	7	Santa Rita 	7	Julio	2023-04-07T00:00:00	2024-11-08T23:00:00	2	Temperatura media	19.1
103522	7	Sololá	704	Santa Lucía Utatlán 	7	Santa Rita 	7	Julio	2023-04-07T00:00:00	2024-11-08T23:00:00	4	Temperatura máxima	19.3
103523	7	Sololá	704	Santa Lucía Utatlán 	7	Santa Rita 	7	Julio	2023-04-07T00:00:00	2024-11-08T23:00:00	3	Temperatura mínima	19.1
103524	7	Sololá	704	Santa Lucía Utatlán 	7	Santa Rita 	7	Julio	2023-04-07T00:00:00	2024-11-08T23:00:00	5	Humedad	96
103525	7	Sololá	704	Santa Lucía Utatlán 	7	Santa Rita 	7	Julio	2023-04-07T00:00:00	2024-11-08T23:00:00	6	Velocidad del viento	1.6
103526	7	Sololá	704	Santa Lucía Utatlán 	7	Santa Rita 	7	Julio	2023-04-07T00:00:00	2024-11-08T23:00:00	7	Dirección del viento	1.61
103527	7	Sololá	704	Santa Lucía Utatlán 	7	Santa Rita 	7	Julio	2023-04-07T00:00:00	2024-11-08T23:00:00	1	Precipitación	4
103528	7	Sololá	704	Santa Lucía Utatlán 	7	Santa Rita 	7	Julio	2023-04-07T00:00:00	2024-11-08T23:00:00	8	Radiación solar	0
103529	7	Sololá	704	Santa Lucía Utatlán 	7	Santa Rita 	7	Julio	2023-05-07T00:00:00	2024-11-08T00:00:00	2	Temperatura media	18.9
103530	7	Sololá	704	Santa Lucía Utatlán 	7	Santa Rita 	7	Julio	2023-05-07T00:00:00	2024-11-08T00:00:00	4	Temperatura máxima	19.1
103531	7	Sololá	704	Santa Lucía Utatlán 	7	Santa Rita 	7	Julio	2023-05-07T00:00:00	2024-11-08T00:00:00	3	Temperatura mínima	18.9
103532	7	Sololá	704	Santa Lucía Utatlán 	7	Santa Rita 	7	Julio	2023-05-07T00:00:00	2024-11-08T00:00:00	5	Humedad	97
103533	7	Sololá	704	Santa Lucía Utatlán 	7	Santa Rita 	7	Julio	2023-05-07T00:00:00	2024-11-08T00:00:00	6	Velocidad del viento	0
103534	7	Sololá	704	Santa Lucía Utatlán 	7	Santa Rita 	7	Julio	2023-05-07T00:00:00	2024-11-08T00:00:00	7	Dirección del viento	0
103535	7	Sololá	704	Santa Lucía Utatlán 	7	Santa Rita 	7	Julio	2023-05-07T00:00:00	2024-11-08T00:00:00	1	Precipitación	1.8
103536	7	Sololá	704	Santa Lucía Utatlán 	7	Santa Rita 	7	Julio	2023-05-07T00:00:00	2024-11-08T00:00:00	8	Radiación solar	0
103537	7	Sololá	704	Santa Lucía Utatlán 	7	Santa Rita 	7	Julio	2023-05-07T00:00:00	2024-11-08T01:00:00	2	Temperatura media	18.8
103538	7	Sololá	704	Santa Lucía Utatlán 	7	Santa Rita 	7	Julio	2023-05-07T00:00:00	2024-11-08T01:00:00	4	Temperatura máxima	18.9
103539	7	Sololá	704	Santa Lucía Utatlán 	7	Santa Rita 	7	Julio	2023-05-07T00:00:00	2024-11-08T01:00:00	3	Temperatura mínima	18.8
103540	7	Sololá	704	Santa Lucía Utatlán 	7	Santa Rita 	7	Julio	2023-05-07T00:00:00	2024-11-08T01:00:00	5	Humedad	97
103541	7	Sololá	704	Santa Lucía Utatlán 	7	Santa Rita 	7	Julio	2023-05-07T00:00:00	2024-11-08T01:00:00	6	Velocidad del viento	0
103542	7	Sololá	704	Santa Lucía Utatlán 	7	Santa Rita 	7	Julio	2023-05-07T00:00:00	2024-11-08T01:00:00	7	Dirección del viento	0
103543	7	Sololá	704	Santa Lucía Utatlán 	7	Santa Rita 	7	Julio	2023-05-07T00:00:00	2024-11-08T01:00:00	1	Precipitación	0.8
103544	7	Sololá	704	Santa Lucía Utatlán 	7	Santa Rita 	7	Julio	2023-05-07T00:00:00	2024-11-08T01:00:00	8	Radiación solar	0
103545	7	Sololá	704	Santa Lucía Utatlán 	7	Santa Rita 	7	Julio	2023-05-07T00:00:00	2024-11-08T02:00:00	2	Temperatura media	18.6
103546	7	Sololá	704	Santa Lucía Utatlán 	7	Santa Rita 	7	Julio	2023-05-07T00:00:00	2024-11-08T02:00:00	4	Temperatura máxima	18.9
103547	7	Sololá	704	Santa Lucía Utatlán 	7	Santa Rita 	7	Julio	2023-05-07T00:00:00	2024-11-08T02:00:00	3	Temperatura mínima	18.4
103548	7	Sololá	704	Santa Lucía Utatlán 	7	Santa Rita 	7	Julio	2023-05-07T00:00:00	2024-11-08T02:00:00	5	Humedad	97
103549	7	Sololá	704	Santa Lucía Utatlán 	7	Santa Rita 	7	Julio	2023-05-07T00:00:00	2024-11-08T02:00:00	6	Velocidad del viento	1.6
103550	7	Sololá	704	Santa Lucía Utatlán 	7	Santa Rita 	7	Julio	2023-05-07T00:00:00	2024-11-08T02:00:00	7	Dirección del viento	1.61
103551	7	Sololá	704	Santa Lucía Utatlán 	7	Santa Rita 	7	Julio	2023-05-07T00:00:00	2024-11-08T02:00:00	1	Precipitación	0
103552	7	Sololá	704	Santa Lucía Utatlán 	7	Santa Rita 	7	Julio	2023-05-07T00:00:00	2024-11-08T02:00:00	8	Radiación solar	0
103553	7	Sololá	704	Santa Lucía Utatlán 	7	Santa Rita 	7	Julio	2023-05-07T00:00:00	2024-11-08T03:00:00	2	Temperatura media	18.2
103554	7	Sololá	704	Santa Lucía Utatlán 	7	Santa Rita 	7	Julio	2023-05-07T00:00:00	2024-11-08T03:00:00	4	Temperatura máxima	18.6
103555	7	Sololá	704	Santa Lucía Utatlán 	7	Santa Rita 	7	Julio	2023-05-07T00:00:00	2024-11-08T03:00:00	3	Temperatura mínima	18.2
103556	7	Sololá	704	Santa Lucía Utatlán 	7	Santa Rita 	7	Julio	2023-05-07T00:00:00	2024-11-08T03:00:00	5	Humedad	94
103557	7	Sololá	704	Santa Lucía Utatlán 	7	Santa Rita 	7	Julio	2023-05-07T00:00:00	2024-11-08T03:00:00	6	Velocidad del viento	3.2
103558	7	Sololá	704	Santa Lucía Utatlán 	7	Santa Rita 	7	Julio	2023-05-07T00:00:00	2024-11-08T03:00:00	7	Dirección del viento	3.22
103559	7	Sololá	704	Santa Lucía Utatlán 	7	Santa Rita 	7	Julio	2023-05-07T00:00:00	2024-11-08T03:00:00	1	Precipitación	0
103560	7	Sololá	704	Santa Lucía Utatlán 	7	Santa Rita 	7	Julio	2023-05-07T00:00:00	2024-11-08T03:00:00	8	Radiación solar	0
103561	7	Sololá	704	Santa Lucía Utatlán 	7	Santa Rita 	7	Julio	2023-05-07T00:00:00	2024-11-08T04:00:00	2	Temperatura media	17.3
103562	7	Sololá	704	Santa Lucía Utatlán 	7	Santa Rita 	7	Julio	2023-05-07T00:00:00	2024-11-08T04:00:00	4	Temperatura máxima	18.2
103563	7	Sololá	704	Santa Lucía Utatlán 	7	Santa Rita 	7	Julio	2023-05-07T00:00:00	2024-11-08T04:00:00	3	Temperatura mínima	17.3
103564	7	Sololá	704	Santa Lucía Utatlán 	7	Santa Rita 	7	Julio	2023-05-07T00:00:00	2024-11-08T04:00:00	5	Humedad	95
103565	7	Sololá	704	Santa Lucía Utatlán 	7	Santa Rita 	7	Julio	2023-05-07T00:00:00	2024-11-08T04:00:00	6	Velocidad del viento	1.6
103566	7	Sololá	704	Santa Lucía Utatlán 	7	Santa Rita 	7	Julio	2023-05-07T00:00:00	2024-11-08T04:00:00	7	Dirección del viento	1.61
103567	7	Sololá	704	Santa Lucía Utatlán 	7	Santa Rita 	7	Julio	2023-05-07T00:00:00	2024-11-08T04:00:00	1	Precipitación	0
103568	7	Sololá	704	Santa Lucía Utatlán 	7	Santa Rita 	7	Julio	2023-05-07T00:00:00	2024-11-08T04:00:00	8	Radiación solar	0
103569	7	Sololá	704	Santa Lucía Utatlán 	7	Santa Rita 	7	Julio	2023-05-07T00:00:00	2024-11-08T05:00:00	2	Temperatura media	17.2
103570	7	Sololá	704	Santa Lucía Utatlán 	7	Santa Rita 	7	Julio	2023-05-07T00:00:00	2024-11-08T05:00:00	4	Temperatura máxima	17.3
103571	7	Sololá	704	Santa Lucía Utatlán 	7	Santa Rita 	7	Julio	2023-05-07T00:00:00	2024-11-08T05:00:00	3	Temperatura mínima	17
103572	7	Sololá	704	Santa Lucía Utatlán 	7	Santa Rita 	7	Julio	2023-05-07T00:00:00	2024-11-08T05:00:00	5	Humedad	96
103573	7	Sololá	704	Santa Lucía Utatlán 	7	Santa Rita 	7	Julio	2023-05-07T00:00:00	2024-11-08T05:00:00	6	Velocidad del viento	3.2
103574	7	Sololá	704	Santa Lucía Utatlán 	7	Santa Rita 	7	Julio	2023-05-07T00:00:00	2024-11-08T05:00:00	7	Dirección del viento	3.22
103575	7	Sololá	704	Santa Lucía Utatlán 	7	Santa Rita 	7	Julio	2023-05-07T00:00:00	2024-11-08T05:00:00	1	Precipitación	0.2
103576	7	Sololá	704	Santa Lucía Utatlán 	7	Santa Rita 	7	Julio	2023-05-07T00:00:00	2024-11-08T05:00:00	8	Radiación solar	0
103577	7	Sololá	704	Santa Lucía Utatlán 	7	Santa Rita 	7	Julio	2023-05-07T00:00:00	2024-11-08T06:00:00	2	Temperatura media	17.5
103578	7	Sololá	704	Santa Lucía Utatlán 	7	Santa Rita 	7	Julio	2023-05-07T00:00:00	2024-11-08T06:00:00	4	Temperatura máxima	17.6
103579	7	Sololá	704	Santa Lucía Utatlán 	7	Santa Rita 	7	Julio	2023-05-07T00:00:00	2024-11-08T06:00:00	3	Temperatura mínima	17.1
103580	7	Sololá	704	Santa Lucía Utatlán 	7	Santa Rita 	7	Julio	2023-05-07T00:00:00	2024-11-08T06:00:00	5	Humedad	94
103581	7	Sololá	704	Santa Lucía Utatlán 	7	Santa Rita 	7	Julio	2023-05-07T00:00:00	2024-11-08T06:00:00	6	Velocidad del viento	3.2
103582	7	Sololá	704	Santa Lucía Utatlán 	7	Santa Rita 	7	Julio	2023-05-07T00:00:00	2024-11-08T06:00:00	7	Dirección del viento	3.22
103583	7	Sololá	704	Santa Lucía Utatlán 	7	Santa Rita 	7	Julio	2023-05-07T00:00:00	2024-11-08T06:00:00	1	Precipitación	0
103584	7	Sololá	704	Santa Lucía Utatlán 	7	Santa Rita 	7	Julio	2023-05-07T00:00:00	2024-11-08T06:00:00	8	Radiación solar	1
103585	7	Sololá	704	Santa Lucía Utatlán 	7	Santa Rita 	7	Julio	2023-05-07T00:00:00	2024-11-08T07:00:00	2	Temperatura media	18.1
103586	7	Sololá	704	Santa Lucía Utatlán 	7	Santa Rita 	7	Julio	2023-05-07T00:00:00	2024-11-08T07:00:00	4	Temperatura máxima	18.1
103587	7	Sololá	704	Santa Lucía Utatlán 	7	Santa Rita 	7	Julio	2023-05-07T00:00:00	2024-11-08T07:00:00	3	Temperatura mínima	17.4
103588	7	Sololá	704	Santa Lucía Utatlán 	7	Santa Rita 	7	Julio	2023-05-07T00:00:00	2024-11-08T07:00:00	5	Humedad	94
103589	7	Sololá	704	Santa Lucía Utatlán 	7	Santa Rita 	7	Julio	2023-05-07T00:00:00	2024-11-08T07:00:00	6	Velocidad del viento	3.2
103590	7	Sololá	704	Santa Lucía Utatlán 	7	Santa Rita 	7	Julio	2023-05-07T00:00:00	2024-11-08T07:00:00	7	Dirección del viento	3.22
103591	7	Sololá	704	Santa Lucía Utatlán 	7	Santa Rita 	7	Julio	2023-05-07T00:00:00	2024-11-08T07:00:00	1	Precipitación	0
103592	7	Sololá	704	Santa Lucía Utatlán 	7	Santa Rita 	7	Julio	2023-05-07T00:00:00	2024-11-08T07:00:00	8	Radiación solar	33
103593	7	Sololá	704	Santa Lucía Utatlán 	7	Santa Rita 	7	Julio	2023-05-07T00:00:00	2024-11-08T08:00:00	2	Temperatura media	20.5
103594	7	Sololá	704	Santa Lucía Utatlán 	7	Santa Rita 	7	Julio	2023-05-07T00:00:00	2024-11-08T08:00:00	4	Temperatura máxima	20.6
103595	7	Sololá	704	Santa Lucía Utatlán 	7	Santa Rita 	7	Julio	2023-05-07T00:00:00	2024-11-08T08:00:00	3	Temperatura mínima	18.1
103596	7	Sololá	704	Santa Lucía Utatlán 	7	Santa Rita 	7	Julio	2023-05-07T00:00:00	2024-11-08T08:00:00	5	Humedad	88
103597	7	Sololá	704	Santa Lucía Utatlán 	7	Santa Rita 	7	Julio	2023-05-07T00:00:00	2024-11-08T08:00:00	6	Velocidad del viento	3.2
103598	7	Sololá	704	Santa Lucía Utatlán 	7	Santa Rita 	7	Julio	2023-05-07T00:00:00	2024-11-08T08:00:00	7	Dirección del viento	3.22
103599	7	Sololá	704	Santa Lucía Utatlán 	7	Santa Rita 	7	Julio	2023-05-07T00:00:00	2024-11-08T08:00:00	1	Precipitación	0
103600	7	Sololá	704	Santa Lucía Utatlán 	7	Santa Rita 	7	Julio	2023-05-07T00:00:00	2024-11-08T08:00:00	8	Radiación solar	323
103601	7	Sololá	704	Santa Lucía Utatlán 	7	Santa Rita 	7	Julio	2023-05-07T00:00:00	2024-11-08T09:00:00	2	Temperatura media	22.8
103602	7	Sololá	704	Santa Lucía Utatlán 	7	Santa Rita 	7	Julio	2023-05-07T00:00:00	2024-11-08T09:00:00	4	Temperatura máxima	22.8
103603	7	Sololá	704	Santa Lucía Utatlán 	7	Santa Rita 	7	Julio	2023-05-07T00:00:00	2024-11-08T09:00:00	3	Temperatura mínima	20.4
103604	7	Sololá	704	Santa Lucía Utatlán 	7	Santa Rita 	7	Julio	2023-05-07T00:00:00	2024-11-08T09:00:00	5	Humedad	79
103605	7	Sololá	704	Santa Lucía Utatlán 	7	Santa Rita 	7	Julio	2023-05-07T00:00:00	2024-11-08T09:00:00	6	Velocidad del viento	3.2
103606	7	Sololá	704	Santa Lucía Utatlán 	7	Santa Rita 	7	Julio	2023-05-07T00:00:00	2024-11-08T09:00:00	7	Dirección del viento	3.22
103607	7	Sololá	704	Santa Lucía Utatlán 	7	Santa Rita 	7	Julio	2023-05-07T00:00:00	2024-11-08T09:00:00	1	Precipitación	0
103608	7	Sololá	704	Santa Lucía Utatlán 	7	Santa Rita 	7	Julio	2023-05-07T00:00:00	2024-11-08T09:00:00	8	Radiación solar	604
103609	7	Sololá	704	Santa Lucía Utatlán 	7	Santa Rita 	7	Julio	2023-05-07T00:00:00	2024-11-08T10:00:00	2	Temperatura media	23.8
103610	7	Sololá	704	Santa Lucía Utatlán 	7	Santa Rita 	7	Julio	2023-05-07T00:00:00	2024-11-08T10:00:00	4	Temperatura máxima	24.3
103611	7	Sololá	704	Santa Lucía Utatlán 	7	Santa Rita 	7	Julio	2023-05-07T00:00:00	2024-11-08T10:00:00	3	Temperatura mínima	22.8
103612	7	Sololá	704	Santa Lucía Utatlán 	7	Santa Rita 	7	Julio	2023-05-07T00:00:00	2024-11-08T10:00:00	5	Humedad	74
103613	7	Sololá	704	Santa Lucía Utatlán 	7	Santa Rita 	7	Julio	2023-05-07T00:00:00	2024-11-08T10:00:00	6	Velocidad del viento	4.8
103614	7	Sololá	704	Santa Lucía Utatlán 	7	Santa Rita 	7	Julio	2023-05-07T00:00:00	2024-11-08T10:00:00	7	Dirección del viento	4.83
103615	7	Sololá	704	Santa Lucía Utatlán 	7	Santa Rita 	7	Julio	2023-05-07T00:00:00	2024-11-08T10:00:00	1	Precipitación	0
103616	7	Sololá	704	Santa Lucía Utatlán 	7	Santa Rita 	7	Julio	2023-05-07T00:00:00	2024-11-08T10:00:00	8	Radiación solar	741
103617	7	Sololá	704	Santa Lucía Utatlán 	7	Santa Rita 	7	Julio	2023-05-07T00:00:00	2024-11-08T11:00:00	2	Temperatura media	24.4
103618	7	Sololá	704	Santa Lucía Utatlán 	7	Santa Rita 	7	Julio	2023-05-07T00:00:00	2024-11-08T11:00:00	4	Temperatura máxima	24.7
103619	7	Sololá	704	Santa Lucía Utatlán 	7	Santa Rita 	7	Julio	2023-05-07T00:00:00	2024-11-08T11:00:00	3	Temperatura mínima	23.7
103620	7	Sololá	704	Santa Lucía Utatlán 	7	Santa Rita 	7	Julio	2023-05-07T00:00:00	2024-11-08T11:00:00	5	Humedad	70
103621	7	Sololá	704	Santa Lucía Utatlán 	7	Santa Rita 	7	Julio	2023-05-07T00:00:00	2024-11-08T11:00:00	6	Velocidad del viento	6.4
103622	7	Sololá	704	Santa Lucía Utatlán 	7	Santa Rita 	7	Julio	2023-05-07T00:00:00	2024-11-08T11:00:00	7	Dirección del viento	6.44
103623	7	Sololá	704	Santa Lucía Utatlán 	7	Santa Rita 	7	Julio	2023-05-07T00:00:00	2024-11-08T11:00:00	1	Precipitación	0
103624	7	Sololá	704	Santa Lucía Utatlán 	7	Santa Rita 	7	Julio	2023-05-07T00:00:00	2024-11-08T11:00:00	8	Radiación solar	900
103625	7	Sololá	704	Santa Lucía Utatlán 	7	Santa Rita 	7	Julio	2023-05-07T00:00:00	2024-11-08T12:00:00	2	Temperatura media	24.9
103626	7	Sololá	704	Santa Lucía Utatlán 	7	Santa Rita 	7	Julio	2023-05-07T00:00:00	2024-11-08T12:00:00	4	Temperatura máxima	25.1
103627	7	Sololá	704	Santa Lucía Utatlán 	7	Santa Rita 	7	Julio	2023-05-07T00:00:00	2024-11-08T12:00:00	3	Temperatura mínima	24.2
103628	7	Sololá	704	Santa Lucía Utatlán 	7	Santa Rita 	7	Julio	2023-05-07T00:00:00	2024-11-08T12:00:00	5	Humedad	76
103629	7	Sololá	704	Santa Lucía Utatlán 	7	Santa Rita 	7	Julio	2023-05-07T00:00:00	2024-11-08T12:00:00	6	Velocidad del viento	8
103630	7	Sololá	704	Santa Lucía Utatlán 	7	Santa Rita 	7	Julio	2023-05-07T00:00:00	2024-11-08T12:00:00	7	Dirección del viento	8.05
103631	7	Sololá	704	Santa Lucía Utatlán 	7	Santa Rita 	7	Julio	2023-05-07T00:00:00	2024-11-08T12:00:00	1	Precipitación	0
103632	7	Sololá	704	Santa Lucía Utatlán 	7	Santa Rita 	7	Julio	2023-05-07T00:00:00	2024-11-08T12:00:00	8	Radiación solar	710
103633	7	Sololá	704	Santa Lucía Utatlán 	7	Santa Rita 	7	Julio	2023-05-07T00:00:00	2024-11-08T13:00:00	2	Temperatura media	24.2
103634	7	Sololá	704	Santa Lucía Utatlán 	7	Santa Rita 	7	Julio	2023-05-07T00:00:00	2024-11-08T13:00:00	4	Temperatura máxima	25.1
103635	7	Sololá	704	Santa Lucía Utatlán 	7	Santa Rita 	7	Julio	2023-05-07T00:00:00	2024-11-08T13:00:00	3	Temperatura mínima	24.2
103636	7	Sololá	704	Santa Lucía Utatlán 	7	Santa Rita 	7	Julio	2023-05-07T00:00:00	2024-11-08T13:00:00	5	Humedad	74
103637	7	Sololá	704	Santa Lucía Utatlán 	7	Santa Rita 	7	Julio	2023-05-07T00:00:00	2024-11-08T13:00:00	6	Velocidad del viento	6.4
103638	7	Sololá	704	Santa Lucía Utatlán 	7	Santa Rita 	7	Julio	2023-05-07T00:00:00	2024-11-08T13:00:00	7	Dirección del viento	6.44
103639	7	Sololá	704	Santa Lucía Utatlán 	7	Santa Rita 	7	Julio	2023-05-07T00:00:00	2024-11-08T13:00:00	1	Precipitación	0
103640	7	Sololá	704	Santa Lucía Utatlán 	7	Santa Rita 	7	Julio	2023-05-07T00:00:00	2024-11-08T13:00:00	8	Radiación solar	513
103641	7	Sololá	704	Santa Lucía Utatlán 	7	Santa Rita 	7	Julio	2023-05-07T00:00:00	2024-11-08T14:00:00	2	Temperatura media	20.9
103642	7	Sololá	704	Santa Lucía Utatlán 	7	Santa Rita 	7	Julio	2023-05-07T00:00:00	2024-11-08T14:00:00	4	Temperatura máxima	24.2
103643	7	Sololá	704	Santa Lucía Utatlán 	7	Santa Rita 	7	Julio	2023-05-07T00:00:00	2024-11-08T14:00:00	3	Temperatura mínima	20.9
103644	7	Sololá	704	Santa Lucía Utatlán 	7	Santa Rita 	7	Julio	2023-05-07T00:00:00	2024-11-08T14:00:00	5	Humedad	88
103645	7	Sololá	704	Santa Lucía Utatlán 	7	Santa Rita 	7	Julio	2023-05-07T00:00:00	2024-11-08T14:00:00	6	Velocidad del viento	8
103646	7	Sololá	704	Santa Lucía Utatlán 	7	Santa Rita 	7	Julio	2023-05-07T00:00:00	2024-11-08T14:00:00	7	Dirección del viento	8.05
103647	7	Sololá	704	Santa Lucía Utatlán 	7	Santa Rita 	7	Julio	2023-05-07T00:00:00	2024-11-08T14:00:00	1	Precipitación	7.8
103648	7	Sololá	704	Santa Lucía Utatlán 	7	Santa Rita 	7	Julio	2023-05-07T00:00:00	2024-11-08T14:00:00	8	Radiación solar	177
103649	7	Sololá	704	Santa Lucía Utatlán 	7	Santa Rita 	7	Julio	2023-05-07T00:00:00	2024-11-08T15:00:00	2	Temperatura media	20.4
103650	7	Sololá	704	Santa Lucía Utatlán 	7	Santa Rita 	7	Julio	2023-05-07T00:00:00	2024-11-08T15:00:00	4	Temperatura máxima	20.9
103651	7	Sololá	704	Santa Lucía Utatlán 	7	Santa Rita 	7	Julio	2023-05-07T00:00:00	2024-11-08T15:00:00	3	Temperatura mínima	20.2
103652	7	Sololá	704	Santa Lucía Utatlán 	7	Santa Rita 	7	Julio	2023-05-07T00:00:00	2024-11-08T15:00:00	5	Humedad	94
103653	7	Sololá	704	Santa Lucía Utatlán 	7	Santa Rita 	7	Julio	2023-05-07T00:00:00	2024-11-08T15:00:00	6	Velocidad del viento	3.2
103654	7	Sololá	704	Santa Lucía Utatlán 	7	Santa Rita 	7	Julio	2023-05-07T00:00:00	2024-11-08T15:00:00	7	Dirección del viento	3.22
103655	7	Sololá	704	Santa Lucía Utatlán 	7	Santa Rita 	7	Julio	2023-05-07T00:00:00	2024-11-08T15:00:00	1	Precipitación	0.4
103656	7	Sololá	704	Santa Lucía Utatlán 	7	Santa Rita 	7	Julio	2023-05-07T00:00:00	2024-11-08T15:00:00	8	Radiación solar	39
103657	7	Sololá	704	Santa Lucía Utatlán 	7	Santa Rita 	7	Julio	2023-05-07T00:00:00	2024-11-08T16:00:00	2	Temperatura media	23.9
103658	7	Sololá	704	Santa Lucía Utatlán 	7	Santa Rita 	7	Julio	2023-05-07T00:00:00	2024-11-08T16:00:00	4	Temperatura máxima	24
103659	7	Sololá	704	Santa Lucía Utatlán 	7	Santa Rita 	7	Julio	2023-05-07T00:00:00	2024-11-08T16:00:00	3	Temperatura mínima	20.4
103660	7	Sololá	704	Santa Lucía Utatlán 	7	Santa Rita 	7	Julio	2023-05-07T00:00:00	2024-11-08T16:00:00	5	Humedad	81
103661	7	Sololá	704	Santa Lucía Utatlán 	7	Santa Rita 	7	Julio	2023-05-07T00:00:00	2024-11-08T16:00:00	6	Velocidad del viento	1.6
103662	7	Sololá	704	Santa Lucía Utatlán 	7	Santa Rita 	7	Julio	2023-05-07T00:00:00	2024-11-08T16:00:00	7	Dirección del viento	1.61
103663	7	Sololá	704	Santa Lucía Utatlán 	7	Santa Rita 	7	Julio	2023-05-07T00:00:00	2024-11-08T16:00:00	1	Precipitación	0
103664	7	Sololá	704	Santa Lucía Utatlán 	7	Santa Rita 	7	Julio	2023-05-07T00:00:00	2024-11-08T16:00:00	8	Radiación solar	384
103665	7	Sololá	704	Santa Lucía Utatlán 	7	Santa Rita 	7	Julio	2023-05-07T00:00:00	2024-11-08T17:00:00	2	Temperatura media	22.9
103666	7	Sololá	704	Santa Lucía Utatlán 	7	Santa Rita 	7	Julio	2023-05-07T00:00:00	2024-11-08T17:00:00	4	Temperatura máxima	23.9
103667	7	Sololá	704	Santa Lucía Utatlán 	7	Santa Rita 	7	Julio	2023-05-07T00:00:00	2024-11-08T17:00:00	3	Temperatura mínima	22.8
103668	7	Sololá	704	Santa Lucía Utatlán 	7	Santa Rita 	7	Julio	2023-05-07T00:00:00	2024-11-08T17:00:00	5	Humedad	87
103669	7	Sololá	704	Santa Lucía Utatlán 	7	Santa Rita 	7	Julio	2023-05-07T00:00:00	2024-11-08T17:00:00	6	Velocidad del viento	6.4
103670	7	Sololá	704	Santa Lucía Utatlán 	7	Santa Rita 	7	Julio	2023-05-07T00:00:00	2024-11-08T17:00:00	7	Dirección del viento	6.44
103671	7	Sololá	704	Santa Lucía Utatlán 	7	Santa Rita 	7	Julio	2023-05-07T00:00:00	2024-11-08T17:00:00	1	Precipitación	0
103672	7	Sololá	704	Santa Lucía Utatlán 	7	Santa Rita 	7	Julio	2023-05-07T00:00:00	2024-11-08T17:00:00	8	Radiación solar	217
103673	7	Sololá	704	Santa Lucía Utatlán 	7	Santa Rita 	7	Julio	2023-05-07T00:00:00	2024-11-08T18:00:00	2	Temperatura media	21.2
103674	7	Sololá	704	Santa Lucía Utatlán 	7	Santa Rita 	7	Julio	2023-05-07T00:00:00	2024-11-08T18:00:00	4	Temperatura máxima	22.9
103675	7	Sololá	704	Santa Lucía Utatlán 	7	Santa Rita 	7	Julio	2023-05-07T00:00:00	2024-11-08T18:00:00	3	Temperatura mínima	21.2
103676	7	Sololá	704	Santa Lucía Utatlán 	7	Santa Rita 	7	Julio	2023-05-07T00:00:00	2024-11-08T18:00:00	5	Humedad	73
103677	7	Sololá	704	Santa Lucía Utatlán 	7	Santa Rita 	7	Julio	2023-05-07T00:00:00	2024-11-08T18:00:00	6	Velocidad del viento	4.8
103678	7	Sololá	704	Santa Lucía Utatlán 	7	Santa Rita 	7	Julio	2023-05-07T00:00:00	2024-11-08T18:00:00	7	Dirección del viento	4.83
103679	7	Sololá	704	Santa Lucía Utatlán 	7	Santa Rita 	7	Julio	2023-05-07T00:00:00	2024-11-08T18:00:00	1	Precipitación	0
103680	7	Sololá	704	Santa Lucía Utatlán 	7	Santa Rita 	7	Julio	2023-05-07T00:00:00	2024-11-08T18:00:00	8	Radiación solar	66
103681	7	Sololá	704	Santa Lucía Utatlán 	7	Santa Rita 	7	Julio	2023-05-07T00:00:00	2024-11-08T19:00:00	2	Temperatura media	18.7
103682	7	Sololá	704	Santa Lucía Utatlán 	7	Santa Rita 	7	Julio	2023-05-07T00:00:00	2024-11-08T19:00:00	4	Temperatura máxima	21.2
103683	7	Sololá	704	Santa Lucía Utatlán 	7	Santa Rita 	7	Julio	2023-05-07T00:00:00	2024-11-08T19:00:00	3	Temperatura mínima	18.3
103684	7	Sololá	704	Santa Lucía Utatlán 	7	Santa Rita 	7	Julio	2023-05-07T00:00:00	2024-11-08T19:00:00	5	Humedad	72
103685	7	Sololá	704	Santa Lucía Utatlán 	7	Santa Rita 	7	Julio	2023-05-07T00:00:00	2024-11-08T19:00:00	6	Velocidad del viento	4.8
103686	7	Sololá	704	Santa Lucía Utatlán 	7	Santa Rita 	7	Julio	2023-05-07T00:00:00	2024-11-08T19:00:00	7	Dirección del viento	4.83
103687	7	Sololá	704	Santa Lucía Utatlán 	7	Santa Rita 	7	Julio	2023-05-07T00:00:00	2024-11-08T19:00:00	1	Precipitación	0
103688	7	Sololá	704	Santa Lucía Utatlán 	7	Santa Rita 	7	Julio	2023-05-07T00:00:00	2024-11-08T19:00:00	8	Radiación solar	0
103689	7	Sololá	704	Santa Lucía Utatlán 	7	Santa Rita 	7	Julio	2023-05-07T00:00:00	2024-11-08T20:00:00	2	Temperatura media	17
103690	7	Sololá	704	Santa Lucía Utatlán 	7	Santa Rita 	7	Julio	2023-05-07T00:00:00	2024-11-08T20:00:00	4	Temperatura máxima	18.7
103691	7	Sololá	704	Santa Lucía Utatlán 	7	Santa Rita 	7	Julio	2023-05-07T00:00:00	2024-11-08T20:00:00	3	Temperatura mínima	16.8
103692	7	Sololá	704	Santa Lucía Utatlán 	7	Santa Rita 	7	Julio	2023-05-07T00:00:00	2024-11-08T20:00:00	5	Humedad	73
103693	7	Sololá	704	Santa Lucía Utatlán 	7	Santa Rita 	7	Julio	2023-05-07T00:00:00	2024-11-08T20:00:00	6	Velocidad del viento	4.8
103694	7	Sololá	704	Santa Lucía Utatlán 	7	Santa Rita 	7	Julio	2023-05-07T00:00:00	2024-11-08T20:00:00	7	Dirección del viento	4.83
103695	7	Sololá	704	Santa Lucía Utatlán 	7	Santa Rita 	7	Julio	2023-05-07T00:00:00	2024-11-08T20:00:00	1	Precipitación	0
103696	7	Sololá	704	Santa Lucía Utatlán 	7	Santa Rita 	7	Julio	2023-05-07T00:00:00	2024-11-08T20:00:00	8	Radiación solar	0
103697	7	Sololá	704	Santa Lucía Utatlán 	7	Santa Rita 	7	Julio	2023-05-07T00:00:00	2024-11-08T21:00:00	2	Temperatura media	16.8
103698	7	Sololá	704	Santa Lucía Utatlán 	7	Santa Rita 	7	Julio	2023-05-07T00:00:00	2024-11-08T21:00:00	4	Temperatura máxima	17.1
103699	7	Sololá	704	Santa Lucía Utatlán 	7	Santa Rita 	7	Julio	2023-05-07T00:00:00	2024-11-08T21:00:00	3	Temperatura mínima	16.6
103700	7	Sololá	704	Santa Lucía Utatlán 	7	Santa Rita 	7	Julio	2023-05-07T00:00:00	2024-11-08T21:00:00	5	Humedad	82
103701	7	Sololá	704	Santa Lucía Utatlán 	7	Santa Rita 	7	Julio	2023-05-07T00:00:00	2024-11-08T21:00:00	6	Velocidad del viento	4.8
103702	7	Sololá	704	Santa Lucía Utatlán 	7	Santa Rita 	7	Julio	2023-05-07T00:00:00	2024-11-08T21:00:00	7	Dirección del viento	4.83
103703	7	Sololá	704	Santa Lucía Utatlán 	7	Santa Rita 	7	Julio	2023-05-07T00:00:00	2024-11-08T21:00:00	1	Precipitación	0
103704	7	Sololá	704	Santa Lucía Utatlán 	7	Santa Rita 	7	Julio	2023-05-07T00:00:00	2024-11-08T21:00:00	8	Radiación solar	0
103705	7	Sololá	704	Santa Lucía Utatlán 	7	Santa Rita 	7	Julio	2023-05-07T00:00:00	2024-11-08T22:00:00	2	Temperatura media	17.3
103706	7	Sololá	704	Santa Lucía Utatlán 	7	Santa Rita 	7	Julio	2023-05-07T00:00:00	2024-11-08T22:00:00	4	Temperatura máxima	17.3
103707	7	Sololá	704	Santa Lucía Utatlán 	7	Santa Rita 	7	Julio	2023-05-07T00:00:00	2024-11-08T22:00:00	3	Temperatura mínima	16.7
103708	7	Sololá	704	Santa Lucía Utatlán 	7	Santa Rita 	7	Julio	2023-05-07T00:00:00	2024-11-08T22:00:00	5	Humedad	86
103709	7	Sololá	704	Santa Lucía Utatlán 	7	Santa Rita 	7	Julio	2023-05-07T00:00:00	2024-11-08T22:00:00	6	Velocidad del viento	3.2
103710	7	Sololá	704	Santa Lucía Utatlán 	7	Santa Rita 	7	Julio	2023-05-07T00:00:00	2024-11-08T22:00:00	7	Dirección del viento	3.22
103711	7	Sololá	704	Santa Lucía Utatlán 	7	Santa Rita 	7	Julio	2023-05-07T00:00:00	2024-11-08T22:00:00	1	Precipitación	0
103712	7	Sololá	704	Santa Lucía Utatlán 	7	Santa Rita 	7	Julio	2023-05-07T00:00:00	2024-11-08T22:00:00	8	Radiación solar	0
103713	7	Sololá	704	Santa Lucía Utatlán 	7	Santa Rita 	7	Julio	2023-05-07T00:00:00	2024-11-08T23:00:00	2	Temperatura media	17.4
103714	7	Sololá	704	Santa Lucía Utatlán 	7	Santa Rita 	7	Julio	2023-05-07T00:00:00	2024-11-08T23:00:00	4	Temperatura máxima	18.1
103715	7	Sololá	704	Santa Lucía Utatlán 	7	Santa Rita 	7	Julio	2023-05-07T00:00:00	2024-11-08T23:00:00	3	Temperatura mínima	17.2
103716	7	Sololá	704	Santa Lucía Utatlán 	7	Santa Rita 	7	Julio	2023-05-07T00:00:00	2024-11-08T23:00:00	5	Humedad	88
103717	7	Sololá	704	Santa Lucía Utatlán 	7	Santa Rita 	7	Julio	2023-05-07T00:00:00	2024-11-08T23:00:00	6	Velocidad del viento	3.2
103718	7	Sololá	704	Santa Lucía Utatlán 	7	Santa Rita 	7	Julio	2023-05-07T00:00:00	2024-11-08T23:00:00	7	Dirección del viento	3.22
103719	7	Sololá	704	Santa Lucía Utatlán 	7	Santa Rita 	7	Julio	2023-05-07T00:00:00	2024-11-08T23:00:00	1	Precipitación	0
103720	7	Sololá	704	Santa Lucía Utatlán 	7	Santa Rita 	7	Julio	2023-05-07T00:00:00	2024-11-08T23:00:00	8	Radiación solar	0
103721	7	Sololá	704	Santa Lucía Utatlán 	7	Santa Rita 	7	Julio	2023-06-07T00:00:00	2024-11-08T00:00:00	2	Temperatura media	17.1
103722	7	Sololá	704	Santa Lucía Utatlán 	7	Santa Rita 	7	Julio	2023-06-07T00:00:00	2024-11-08T00:00:00	4	Temperatura máxima	17.4
103723	7	Sololá	704	Santa Lucía Utatlán 	7	Santa Rita 	7	Julio	2023-06-07T00:00:00	2024-11-08T00:00:00	3	Temperatura mínima	16.7
103724	7	Sololá	704	Santa Lucía Utatlán 	7	Santa Rita 	7	Julio	2023-06-07T00:00:00	2024-11-08T00:00:00	5	Humedad	89
103725	7	Sololá	704	Santa Lucía Utatlán 	7	Santa Rita 	7	Julio	2023-06-07T00:00:00	2024-11-08T00:00:00	6	Velocidad del viento	3.2
103726	7	Sololá	704	Santa Lucía Utatlán 	7	Santa Rita 	7	Julio	2023-06-07T00:00:00	2024-11-08T00:00:00	7	Dirección del viento	3.22
103727	7	Sololá	704	Santa Lucía Utatlán 	7	Santa Rita 	7	Julio	2023-06-07T00:00:00	2024-11-08T00:00:00	1	Precipitación	0
103728	7	Sololá	704	Santa Lucía Utatlán 	7	Santa Rita 	7	Julio	2023-06-07T00:00:00	2024-11-08T00:00:00	8	Radiación solar	0
103729	7	Sololá	704	Santa Lucía Utatlán 	7	Santa Rita 	7	Julio	2023-06-07T00:00:00	2024-11-08T01:00:00	2	Temperatura media	17.7
103730	7	Sololá	704	Santa Lucía Utatlán 	7	Santa Rita 	7	Julio	2023-06-07T00:00:00	2024-11-08T01:00:00	4	Temperatura máxima	18
103731	7	Sololá	704	Santa Lucía Utatlán 	7	Santa Rita 	7	Julio	2023-06-07T00:00:00	2024-11-08T01:00:00	3	Temperatura mínima	17.1
103732	7	Sololá	704	Santa Lucía Utatlán 	7	Santa Rita 	7	Julio	2023-06-07T00:00:00	2024-11-08T01:00:00	5	Humedad	89
103733	7	Sololá	704	Santa Lucía Utatlán 	7	Santa Rita 	7	Julio	2023-06-07T00:00:00	2024-11-08T01:00:00	6	Velocidad del viento	3.2
103734	7	Sololá	704	Santa Lucía Utatlán 	7	Santa Rita 	7	Julio	2023-06-07T00:00:00	2024-11-08T01:00:00	7	Dirección del viento	3.22
103735	7	Sololá	704	Santa Lucía Utatlán 	7	Santa Rita 	7	Julio	2023-06-07T00:00:00	2024-11-08T01:00:00	1	Precipitación	0
103736	7	Sololá	704	Santa Lucía Utatlán 	7	Santa Rita 	7	Julio	2023-06-07T00:00:00	2024-11-08T01:00:00	8	Radiación solar	0
103737	7	Sololá	704	Santa Lucía Utatlán 	7	Santa Rita 	7	Julio	2023-06-07T00:00:00	2024-11-08T02:00:00	2	Temperatura media	18
103738	7	Sololá	704	Santa Lucía Utatlán 	7	Santa Rita 	7	Julio	2023-06-07T00:00:00	2024-11-08T02:00:00	4	Temperatura máxima	18.4
103739	7	Sololá	704	Santa Lucía Utatlán 	7	Santa Rita 	7	Julio	2023-06-07T00:00:00	2024-11-08T02:00:00	3	Temperatura mínima	17.7
103740	7	Sololá	704	Santa Lucía Utatlán 	7	Santa Rita 	7	Julio	2023-06-07T00:00:00	2024-11-08T02:00:00	5	Humedad	79
103741	7	Sololá	704	Santa Lucía Utatlán 	7	Santa Rita 	7	Julio	2023-06-07T00:00:00	2024-11-08T02:00:00	6	Velocidad del viento	3.2
103742	7	Sololá	704	Santa Lucía Utatlán 	7	Santa Rita 	7	Julio	2023-06-07T00:00:00	2024-11-08T02:00:00	7	Dirección del viento	3.22
103743	7	Sololá	704	Santa Lucía Utatlán 	7	Santa Rita 	7	Julio	2023-06-07T00:00:00	2024-11-08T02:00:00	1	Precipitación	0
103744	7	Sololá	704	Santa Lucía Utatlán 	7	Santa Rita 	7	Julio	2023-06-07T00:00:00	2024-11-08T02:00:00	8	Radiación solar	0
103745	7	Sololá	704	Santa Lucía Utatlán 	7	Santa Rita 	7	Julio	2023-06-07T00:00:00	2024-11-08T03:00:00	2	Temperatura media	16.9
103746	7	Sololá	704	Santa Lucía Utatlán 	7	Santa Rita 	7	Julio	2023-06-07T00:00:00	2024-11-08T03:00:00	4	Temperatura máxima	18
103747	7	Sololá	704	Santa Lucía Utatlán 	7	Santa Rita 	7	Julio	2023-06-07T00:00:00	2024-11-08T03:00:00	3	Temperatura mínima	16.8
103748	7	Sololá	704	Santa Lucía Utatlán 	7	Santa Rita 	7	Julio	2023-06-07T00:00:00	2024-11-08T03:00:00	5	Humedad	83
103749	7	Sololá	704	Santa Lucía Utatlán 	7	Santa Rita 	7	Julio	2023-06-07T00:00:00	2024-11-08T03:00:00	6	Velocidad del viento	3.2
103750	7	Sololá	704	Santa Lucía Utatlán 	7	Santa Rita 	7	Julio	2023-06-07T00:00:00	2024-11-08T03:00:00	7	Dirección del viento	3.22
103751	7	Sololá	704	Santa Lucía Utatlán 	7	Santa Rita 	7	Julio	2023-06-07T00:00:00	2024-11-08T03:00:00	1	Precipitación	0
103752	7	Sololá	704	Santa Lucía Utatlán 	7	Santa Rita 	7	Julio	2023-06-07T00:00:00	2024-11-08T03:00:00	8	Radiación solar	0
103753	7	Sololá	704	Santa Lucía Utatlán 	7	Santa Rita 	7	Julio	2023-06-07T00:00:00	2024-11-08T04:00:00	2	Temperatura media	17
103754	7	Sololá	704	Santa Lucía Utatlán 	7	Santa Rita 	7	Julio	2023-06-07T00:00:00	2024-11-08T04:00:00	4	Temperatura máxima	17.5
103755	7	Sololá	704	Santa Lucía Utatlán 	7	Santa Rita 	7	Julio	2023-06-07T00:00:00	2024-11-08T04:00:00	3	Temperatura mínima	16.6
103756	7	Sololá	704	Santa Lucía Utatlán 	7	Santa Rita 	7	Julio	2023-06-07T00:00:00	2024-11-08T04:00:00	5	Humedad	84
103757	7	Sololá	704	Santa Lucía Utatlán 	7	Santa Rita 	7	Julio	2023-06-07T00:00:00	2024-11-08T04:00:00	6	Velocidad del viento	6.4
103758	7	Sololá	704	Santa Lucía Utatlán 	7	Santa Rita 	7	Julio	2023-06-07T00:00:00	2024-11-08T04:00:00	7	Dirección del viento	6.44
103759	7	Sololá	704	Santa Lucía Utatlán 	7	Santa Rita 	7	Julio	2023-06-07T00:00:00	2024-11-08T04:00:00	1	Precipitación	0
103760	7	Sololá	704	Santa Lucía Utatlán 	7	Santa Rita 	7	Julio	2023-06-07T00:00:00	2024-11-08T04:00:00	8	Radiación solar	0
103761	7	Sololá	704	Santa Lucía Utatlán 	7	Santa Rita 	7	Julio	2023-06-07T00:00:00	2024-11-08T05:00:00	2	Temperatura media	17.7
103762	7	Sololá	704	Santa Lucía Utatlán 	7	Santa Rita 	7	Julio	2023-06-07T00:00:00	2024-11-08T05:00:00	4	Temperatura máxima	18.4
103763	7	Sololá	704	Santa Lucía Utatlán 	7	Santa Rita 	7	Julio	2023-06-07T00:00:00	2024-11-08T05:00:00	3	Temperatura mínima	17
103764	7	Sololá	704	Santa Lucía Utatlán 	7	Santa Rita 	7	Julio	2023-06-07T00:00:00	2024-11-08T05:00:00	5	Humedad	84
103765	7	Sololá	704	Santa Lucía Utatlán 	7	Santa Rita 	7	Julio	2023-06-07T00:00:00	2024-11-08T05:00:00	6	Velocidad del viento	4.8
103766	7	Sololá	704	Santa Lucía Utatlán 	7	Santa Rita 	7	Julio	2023-06-07T00:00:00	2024-11-08T05:00:00	7	Dirección del viento	4.83
103767	7	Sololá	704	Santa Lucía Utatlán 	7	Santa Rita 	7	Julio	2023-06-07T00:00:00	2024-11-08T05:00:00	1	Precipitación	0
103768	7	Sololá	704	Santa Lucía Utatlán 	7	Santa Rita 	7	Julio	2023-06-07T00:00:00	2024-11-08T05:00:00	8	Radiación solar	0
103769	7	Sololá	704	Santa Lucía Utatlán 	7	Santa Rita 	7	Julio	2023-06-07T00:00:00	2024-11-08T06:00:00	2	Temperatura media	16.7
103770	7	Sololá	704	Santa Lucía Utatlán 	7	Santa Rita 	7	Julio	2023-06-07T00:00:00	2024-11-08T06:00:00	4	Temperatura máxima	17.7
103771	7	Sololá	704	Santa Lucía Utatlán 	7	Santa Rita 	7	Julio	2023-06-07T00:00:00	2024-11-08T06:00:00	3	Temperatura mínima	16.7
103772	7	Sololá	704	Santa Lucía Utatlán 	7	Santa Rita 	7	Julio	2023-06-07T00:00:00	2024-11-08T06:00:00	5	Humedad	88
103773	7	Sololá	704	Santa Lucía Utatlán 	7	Santa Rita 	7	Julio	2023-06-07T00:00:00	2024-11-08T06:00:00	6	Velocidad del viento	3.2
103774	7	Sololá	704	Santa Lucía Utatlán 	7	Santa Rita 	7	Julio	2023-06-07T00:00:00	2024-11-08T06:00:00	7	Dirección del viento	3.22
103775	7	Sololá	704	Santa Lucía Utatlán 	7	Santa Rita 	7	Julio	2023-06-07T00:00:00	2024-11-08T06:00:00	1	Precipitación	0
103776	7	Sololá	704	Santa Lucía Utatlán 	7	Santa Rita 	7	Julio	2023-06-07T00:00:00	2024-11-08T06:00:00	8	Radiación solar	3
103777	7	Sololá	704	Santa Lucía Utatlán 	7	Santa Rita 	7	Julio	2023-06-07T00:00:00	2024-11-08T07:00:00	2	Temperatura media	17.8
103778	7	Sololá	704	Santa Lucía Utatlán 	7	Santa Rita 	7	Julio	2023-06-07T00:00:00	2024-11-08T07:00:00	4	Temperatura máxima	17.8
103779	7	Sololá	704	Santa Lucía Utatlán 	7	Santa Rita 	7	Julio	2023-06-07T00:00:00	2024-11-08T07:00:00	3	Temperatura mínima	16.7
103780	7	Sololá	704	Santa Lucía Utatlán 	7	Santa Rita 	7	Julio	2023-06-07T00:00:00	2024-11-08T07:00:00	5	Humedad	86
103781	7	Sololá	704	Santa Lucía Utatlán 	7	Santa Rita 	7	Julio	2023-06-07T00:00:00	2024-11-08T07:00:00	6	Velocidad del viento	3.2
103782	7	Sololá	704	Santa Lucía Utatlán 	7	Santa Rita 	7	Julio	2023-06-07T00:00:00	2024-11-08T07:00:00	7	Dirección del viento	3.22
103783	7	Sololá	704	Santa Lucía Utatlán 	7	Santa Rita 	7	Julio	2023-06-07T00:00:00	2024-11-08T07:00:00	1	Precipitación	0
103784	7	Sololá	704	Santa Lucía Utatlán 	7	Santa Rita 	7	Julio	2023-06-07T00:00:00	2024-11-08T07:00:00	8	Radiación solar	37
103785	7	Sololá	704	Santa Lucía Utatlán 	7	Santa Rita 	7	Julio	2023-06-07T00:00:00	2024-11-08T08:00:00	2	Temperatura media	21.1
103786	7	Sololá	704	Santa Lucía Utatlán 	7	Santa Rita 	7	Julio	2023-06-07T00:00:00	2024-11-08T08:00:00	4	Temperatura máxima	21.1
103787	7	Sololá	704	Santa Lucía Utatlán 	7	Santa Rita 	7	Julio	2023-06-07T00:00:00	2024-11-08T08:00:00	3	Temperatura mínima	17.8
103788	7	Sololá	704	Santa Lucía Utatlán 	7	Santa Rita 	7	Julio	2023-06-07T00:00:00	2024-11-08T08:00:00	5	Humedad	79
103789	7	Sololá	704	Santa Lucía Utatlán 	7	Santa Rita 	7	Julio	2023-06-07T00:00:00	2024-11-08T08:00:00	6	Velocidad del viento	3.2
103790	7	Sololá	704	Santa Lucía Utatlán 	7	Santa Rita 	7	Julio	2023-06-07T00:00:00	2024-11-08T08:00:00	7	Dirección del viento	3.22
103791	7	Sololá	704	Santa Lucía Utatlán 	7	Santa Rita 	7	Julio	2023-06-07T00:00:00	2024-11-08T08:00:00	1	Precipitación	0
103792	7	Sololá	704	Santa Lucía Utatlán 	7	Santa Rita 	7	Julio	2023-06-07T00:00:00	2024-11-08T08:00:00	8	Radiación solar	378
103793	7	Sololá	704	Santa Lucía Utatlán 	7	Santa Rita 	7	Julio	2023-06-07T00:00:00	2024-11-08T09:00:00	2	Temperatura media	24.4
103794	7	Sololá	704	Santa Lucía Utatlán 	7	Santa Rita 	7	Julio	2023-06-07T00:00:00	2024-11-08T09:00:00	4	Temperatura máxima	24.4
103795	7	Sololá	704	Santa Lucía Utatlán 	7	Santa Rita 	7	Julio	2023-06-07T00:00:00	2024-11-08T09:00:00	3	Temperatura mínima	21.1
103796	7	Sololá	704	Santa Lucía Utatlán 	7	Santa Rita 	7	Julio	2023-06-07T00:00:00	2024-11-08T09:00:00	5	Humedad	63
103797	7	Sololá	704	Santa Lucía Utatlán 	7	Santa Rita 	7	Julio	2023-06-07T00:00:00	2024-11-08T09:00:00	6	Velocidad del viento	4.8
103798	7	Sololá	704	Santa Lucía Utatlán 	7	Santa Rita 	7	Julio	2023-06-07T00:00:00	2024-11-08T09:00:00	7	Dirección del viento	4.83
103799	7	Sololá	704	Santa Lucía Utatlán 	7	Santa Rita 	7	Julio	2023-06-07T00:00:00	2024-11-08T09:00:00	1	Precipitación	0
103800	7	Sololá	704	Santa Lucía Utatlán 	7	Santa Rita 	7	Julio	2023-06-07T00:00:00	2024-11-08T09:00:00	8	Radiación solar	644
103801	7	Sololá	704	Santa Lucía Utatlán 	7	Santa Rita 	7	Julio	2023-06-07T00:00:00	2024-11-08T10:00:00	2	Temperatura media	24.3
103802	7	Sololá	704	Santa Lucía Utatlán 	7	Santa Rita 	7	Julio	2023-06-07T00:00:00	2024-11-08T10:00:00	4	Temperatura máxima	24.8
103803	7	Sololá	704	Santa Lucía Utatlán 	7	Santa Rita 	7	Julio	2023-06-07T00:00:00	2024-11-08T10:00:00	3	Temperatura mínima	23.8
103804	7	Sololá	704	Santa Lucía Utatlán 	7	Santa Rita 	7	Julio	2023-06-07T00:00:00	2024-11-08T10:00:00	5	Humedad	70
103805	7	Sololá	704	Santa Lucía Utatlán 	7	Santa Rita 	7	Julio	2023-06-07T00:00:00	2024-11-08T10:00:00	6	Velocidad del viento	8
103806	7	Sololá	704	Santa Lucía Utatlán 	7	Santa Rita 	7	Julio	2023-06-07T00:00:00	2024-11-08T10:00:00	7	Dirección del viento	8.05
103807	7	Sololá	704	Santa Lucía Utatlán 	7	Santa Rita 	7	Julio	2023-06-07T00:00:00	2024-11-08T10:00:00	1	Precipitación	0
103808	7	Sololá	704	Santa Lucía Utatlán 	7	Santa Rita 	7	Julio	2023-06-07T00:00:00	2024-11-08T10:00:00	8	Radiación solar	810
103809	7	Sololá	704	Santa Lucía Utatlán 	7	Santa Rita 	7	Julio	2023-06-07T00:00:00	2024-11-08T11:00:00	2	Temperatura media	24.6
103810	7	Sololá	704	Santa Lucía Utatlán 	7	Santa Rita 	7	Julio	2023-06-07T00:00:00	2024-11-08T11:00:00	4	Temperatura máxima	24.7
103811	7	Sololá	704	Santa Lucía Utatlán 	7	Santa Rita 	7	Julio	2023-06-07T00:00:00	2024-11-08T11:00:00	3	Temperatura mínima	23.9
103812	7	Sololá	704	Santa Lucía Utatlán 	7	Santa Rita 	7	Julio	2023-06-07T00:00:00	2024-11-08T11:00:00	5	Humedad	73
103813	7	Sololá	704	Santa Lucía Utatlán 	7	Santa Rita 	7	Julio	2023-06-07T00:00:00	2024-11-08T11:00:00	6	Velocidad del viento	8
103814	7	Sololá	704	Santa Lucía Utatlán 	7	Santa Rita 	7	Julio	2023-06-07T00:00:00	2024-11-08T11:00:00	7	Dirección del viento	8.05
103815	7	Sololá	704	Santa Lucía Utatlán 	7	Santa Rita 	7	Julio	2023-06-07T00:00:00	2024-11-08T11:00:00	1	Precipitación	0
103816	7	Sololá	704	Santa Lucía Utatlán 	7	Santa Rita 	7	Julio	2023-06-07T00:00:00	2024-11-08T11:00:00	8	Radiación solar	728
103817	7	Sololá	704	Santa Lucía Utatlán 	7	Santa Rita 	7	Julio	2023-06-07T00:00:00	2024-11-08T12:00:00	2	Temperatura media	25.2
103818	7	Sololá	704	Santa Lucía Utatlán 	7	Santa Rita 	7	Julio	2023-06-07T00:00:00	2024-11-08T12:00:00	4	Temperatura máxima	25.3
103819	7	Sololá	704	Santa Lucía Utatlán 	7	Santa Rita 	7	Julio	2023-06-07T00:00:00	2024-11-08T12:00:00	3	Temperatura mínima	24.1
103820	7	Sololá	704	Santa Lucía Utatlán 	7	Santa Rita 	7	Julio	2023-06-07T00:00:00	2024-11-08T12:00:00	5	Humedad	69
103821	7	Sololá	704	Santa Lucía Utatlán 	7	Santa Rita 	7	Julio	2023-06-07T00:00:00	2024-11-08T12:00:00	6	Velocidad del viento	8
103822	7	Sololá	704	Santa Lucía Utatlán 	7	Santa Rita 	7	Julio	2023-06-07T00:00:00	2024-11-08T12:00:00	7	Dirección del viento	8.05
103823	7	Sololá	704	Santa Lucía Utatlán 	7	Santa Rita 	7	Julio	2023-06-07T00:00:00	2024-11-08T12:00:00	1	Precipitación	0
103824	7	Sololá	704	Santa Lucía Utatlán 	7	Santa Rita 	7	Julio	2023-06-07T00:00:00	2024-11-08T12:00:00	8	Radiación solar	738
103825	7	Sololá	704	Santa Lucía Utatlán 	7	Santa Rita 	7	Julio	2023-06-07T00:00:00	2024-11-08T13:00:00	2	Temperatura media	24.4
103826	7	Sololá	704	Santa Lucía Utatlán 	7	Santa Rita 	7	Julio	2023-06-07T00:00:00	2024-11-08T13:00:00	4	Temperatura máxima	25.2
103827	7	Sololá	704	Santa Lucía Utatlán 	7	Santa Rita 	7	Julio	2023-06-07T00:00:00	2024-11-08T13:00:00	3	Temperatura mínima	24.1
103828	7	Sololá	704	Santa Lucía Utatlán 	7	Santa Rita 	7	Julio	2023-06-07T00:00:00	2024-11-08T13:00:00	5	Humedad	75
103829	7	Sololá	704	Santa Lucía Utatlán 	7	Santa Rita 	7	Julio	2023-06-07T00:00:00	2024-11-08T13:00:00	6	Velocidad del viento	6.4
103830	7	Sololá	704	Santa Lucía Utatlán 	7	Santa Rita 	7	Julio	2023-06-07T00:00:00	2024-11-08T13:00:00	7	Dirección del viento	6.44
103831	7	Sololá	704	Santa Lucía Utatlán 	7	Santa Rita 	7	Julio	2023-06-07T00:00:00	2024-11-08T13:00:00	1	Precipitación	0
103832	7	Sololá	704	Santa Lucía Utatlán 	7	Santa Rita 	7	Julio	2023-06-07T00:00:00	2024-11-08T13:00:00	8	Radiación solar	408
103833	7	Sololá	704	Santa Lucía Utatlán 	7	Santa Rita 	7	Julio	2023-06-07T00:00:00	2024-11-08T14:00:00	2	Temperatura media	25.4
103834	7	Sololá	704	Santa Lucía Utatlán 	7	Santa Rita 	7	Julio	2023-06-07T00:00:00	2024-11-08T14:00:00	4	Temperatura máxima	25.9
103835	7	Sololá	704	Santa Lucía Utatlán 	7	Santa Rita 	7	Julio	2023-06-07T00:00:00	2024-11-08T14:00:00	3	Temperatura mínima	24.4
103836	7	Sololá	704	Santa Lucía Utatlán 	7	Santa Rita 	7	Julio	2023-06-07T00:00:00	2024-11-08T14:00:00	5	Humedad	62
103837	7	Sololá	704	Santa Lucía Utatlán 	7	Santa Rita 	7	Julio	2023-06-07T00:00:00	2024-11-08T14:00:00	6	Velocidad del viento	8
103838	7	Sololá	704	Santa Lucía Utatlán 	7	Santa Rita 	7	Julio	2023-06-07T00:00:00	2024-11-08T14:00:00	7	Dirección del viento	8.05
103839	7	Sololá	704	Santa Lucía Utatlán 	7	Santa Rita 	7	Julio	2023-06-07T00:00:00	2024-11-08T14:00:00	1	Precipitación	0
103840	7	Sololá	704	Santa Lucía Utatlán 	7	Santa Rita 	7	Julio	2023-06-07T00:00:00	2024-11-08T14:00:00	8	Radiación solar	744
103841	7	Sololá	704	Santa Lucía Utatlán 	7	Santa Rita 	7	Julio	2023-06-07T00:00:00	2024-11-08T15:00:00	2	Temperatura media	26.6
103842	7	Sololá	704	Santa Lucía Utatlán 	7	Santa Rita 	7	Julio	2023-06-07T00:00:00	2024-11-08T15:00:00	4	Temperatura máxima	26.6
103843	7	Sololá	704	Santa Lucía Utatlán 	7	Santa Rita 	7	Julio	2023-06-07T00:00:00	2024-11-08T15:00:00	3	Temperatura mínima	25.1
103844	7	Sololá	704	Santa Lucía Utatlán 	7	Santa Rita 	7	Julio	2023-06-07T00:00:00	2024-11-08T15:00:00	5	Humedad	54
103845	7	Sololá	704	Santa Lucía Utatlán 	7	Santa Rita 	7	Julio	2023-06-07T00:00:00	2024-11-08T15:00:00	6	Velocidad del viento	9.7
103846	7	Sololá	704	Santa Lucía Utatlán 	7	Santa Rita 	7	Julio	2023-06-07T00:00:00	2024-11-08T15:00:00	7	Dirección del viento	9.66
103847	7	Sololá	704	Santa Lucía Utatlán 	7	Santa Rita 	7	Julio	2023-06-07T00:00:00	2024-11-08T15:00:00	1	Precipitación	0
103848	7	Sololá	704	Santa Lucía Utatlán 	7	Santa Rita 	7	Julio	2023-06-07T00:00:00	2024-11-08T15:00:00	8	Radiación solar	869
103849	7	Sololá	704	Santa Lucía Utatlán 	7	Santa Rita 	7	Julio	2023-06-07T00:00:00	2024-11-08T16:00:00	2	Temperatura media	24.5
103850	7	Sololá	704	Santa Lucía Utatlán 	7	Santa Rita 	7	Julio	2023-06-07T00:00:00	2024-11-08T16:00:00	4	Temperatura máxima	26.7
103851	7	Sololá	704	Santa Lucía Utatlán 	7	Santa Rita 	7	Julio	2023-06-07T00:00:00	2024-11-08T16:00:00	3	Temperatura mínima	24.5
103852	7	Sololá	704	Santa Lucía Utatlán 	7	Santa Rita 	7	Julio	2023-06-07T00:00:00	2024-11-08T16:00:00	5	Humedad	78
103853	7	Sololá	704	Santa Lucía Utatlán 	7	Santa Rita 	7	Julio	2023-06-07T00:00:00	2024-11-08T16:00:00	6	Velocidad del viento	8
103854	7	Sololá	704	Santa Lucía Utatlán 	7	Santa Rita 	7	Julio	2023-06-07T00:00:00	2024-11-08T16:00:00	7	Dirección del viento	8.05
103855	7	Sololá	704	Santa Lucía Utatlán 	7	Santa Rita 	7	Julio	2023-06-07T00:00:00	2024-11-08T16:00:00	1	Precipitación	0
103856	7	Sololá	704	Santa Lucía Utatlán 	7	Santa Rita 	7	Julio	2023-06-07T00:00:00	2024-11-08T16:00:00	8	Radiación solar	627
103857	7	Sololá	704	Santa Lucía Utatlán 	7	Santa Rita 	7	Julio	2023-06-07T00:00:00	2024-11-08T17:00:00	2	Temperatura media	23.7
103858	7	Sololá	704	Santa Lucía Utatlán 	7	Santa Rita 	7	Julio	2023-06-07T00:00:00	2024-11-08T17:00:00	4	Temperatura máxima	24.4
103859	7	Sololá	704	Santa Lucía Utatlán 	7	Santa Rita 	7	Julio	2023-06-07T00:00:00	2024-11-08T17:00:00	3	Temperatura mínima	23.7
103860	7	Sololá	704	Santa Lucía Utatlán 	7	Santa Rita 	7	Julio	2023-06-07T00:00:00	2024-11-08T17:00:00	5	Humedad	79
103861	7	Sololá	704	Santa Lucía Utatlán 	7	Santa Rita 	7	Julio	2023-06-07T00:00:00	2024-11-08T17:00:00	6	Velocidad del viento	8
103862	7	Sololá	704	Santa Lucía Utatlán 	7	Santa Rita 	7	Julio	2023-06-07T00:00:00	2024-11-08T17:00:00	7	Dirección del viento	8.05
103863	7	Sololá	704	Santa Lucía Utatlán 	7	Santa Rita 	7	Julio	2023-06-07T00:00:00	2024-11-08T17:00:00	1	Precipitación	0
103864	7	Sololá	704	Santa Lucía Utatlán 	7	Santa Rita 	7	Julio	2023-06-07T00:00:00	2024-11-08T17:00:00	8	Radiación solar	273
103865	7	Sololá	704	Santa Lucía Utatlán 	7	Santa Rita 	7	Julio	2023-06-07T00:00:00	2024-11-08T18:00:00	2	Temperatura media	22.2
103866	7	Sololá	704	Santa Lucía Utatlán 	7	Santa Rita 	7	Julio	2023-06-07T00:00:00	2024-11-08T18:00:00	4	Temperatura máxima	23.7
103867	7	Sololá	704	Santa Lucía Utatlán 	7	Santa Rita 	7	Julio	2023-06-07T00:00:00	2024-11-08T18:00:00	3	Temperatura mínima	22.2
103868	7	Sololá	704	Santa Lucía Utatlán 	7	Santa Rita 	7	Julio	2023-06-07T00:00:00	2024-11-08T18:00:00	5	Humedad	81
103869	7	Sololá	704	Santa Lucía Utatlán 	7	Santa Rita 	7	Julio	2023-06-07T00:00:00	2024-11-08T18:00:00	6	Velocidad del viento	6.4
103870	7	Sololá	704	Santa Lucía Utatlán 	7	Santa Rita 	7	Julio	2023-06-07T00:00:00	2024-11-08T18:00:00	7	Dirección del viento	6.44
103871	7	Sololá	704	Santa Lucía Utatlán 	7	Santa Rita 	7	Julio	2023-06-07T00:00:00	2024-11-08T18:00:00	1	Precipitación	0
103872	7	Sololá	704	Santa Lucía Utatlán 	7	Santa Rita 	7	Julio	2023-06-07T00:00:00	2024-11-08T18:00:00	8	Radiación solar	116
103873	7	Sololá	704	Santa Lucía Utatlán 	7	Santa Rita 	7	Julio	2023-06-07T00:00:00	2024-11-08T19:00:00	2	Temperatura media	19.7
103874	7	Sololá	704	Santa Lucía Utatlán 	7	Santa Rita 	7	Julio	2023-06-07T00:00:00	2024-11-08T19:00:00	4	Temperatura máxima	22.2
103875	7	Sololá	704	Santa Lucía Utatlán 	7	Santa Rita 	7	Julio	2023-06-07T00:00:00	2024-11-08T19:00:00	3	Temperatura mínima	19.7
103876	7	Sololá	704	Santa Lucía Utatlán 	7	Santa Rita 	7	Julio	2023-06-07T00:00:00	2024-11-08T19:00:00	5	Humedad	88
103877	7	Sololá	704	Santa Lucía Utatlán 	7	Santa Rita 	7	Julio	2023-06-07T00:00:00	2024-11-08T19:00:00	6	Velocidad del viento	3.2
103878	7	Sololá	704	Santa Lucía Utatlán 	7	Santa Rita 	7	Julio	2023-06-07T00:00:00	2024-11-08T19:00:00	7	Dirección del viento	3.22
103879	7	Sololá	704	Santa Lucía Utatlán 	7	Santa Rita 	7	Julio	2023-06-07T00:00:00	2024-11-08T19:00:00	1	Precipitación	0
103880	7	Sololá	704	Santa Lucía Utatlán 	7	Santa Rita 	7	Julio	2023-06-07T00:00:00	2024-11-08T19:00:00	8	Radiación solar	0
103881	7	Sololá	704	Santa Lucía Utatlán 	7	Santa Rita 	7	Julio	2023-06-07T00:00:00	2024-11-08T20:00:00	2	Temperatura media	18.1
103882	7	Sololá	704	Santa Lucía Utatlán 	7	Santa Rita 	7	Julio	2023-06-07T00:00:00	2024-11-08T20:00:00	4	Temperatura máxima	19.7
103883	7	Sololá	704	Santa Lucía Utatlán 	7	Santa Rita 	7	Julio	2023-06-07T00:00:00	2024-11-08T20:00:00	3	Temperatura mínima	18.1
103884	7	Sololá	704	Santa Lucía Utatlán 	7	Santa Rita 	7	Julio	2023-06-07T00:00:00	2024-11-08T20:00:00	5	Humedad	85
103885	7	Sololá	704	Santa Lucía Utatlán 	7	Santa Rita 	7	Julio	2023-06-07T00:00:00	2024-11-08T20:00:00	6	Velocidad del viento	4.8
103886	7	Sololá	704	Santa Lucía Utatlán 	7	Santa Rita 	7	Julio	2023-06-07T00:00:00	2024-11-08T20:00:00	7	Dirección del viento	4.83
103887	7	Sololá	704	Santa Lucía Utatlán 	7	Santa Rita 	7	Julio	2023-06-07T00:00:00	2024-11-08T20:00:00	1	Precipitación	0
103888	7	Sololá	704	Santa Lucía Utatlán 	7	Santa Rita 	7	Julio	2023-06-07T00:00:00	2024-11-08T20:00:00	8	Radiación solar	0
103889	7	Sololá	704	Santa Lucía Utatlán 	7	Santa Rita 	7	Julio	2023-06-07T00:00:00	2024-11-08T21:00:00	2	Temperatura media	17.5
103890	7	Sololá	704	Santa Lucía Utatlán 	7	Santa Rita 	7	Julio	2023-06-07T00:00:00	2024-11-08T21:00:00	4	Temperatura máxima	18.1
103891	7	Sololá	704	Santa Lucía Utatlán 	7	Santa Rita 	7	Julio	2023-06-07T00:00:00	2024-11-08T21:00:00	3	Temperatura mínima	17.5
103892	7	Sololá	704	Santa Lucía Utatlán 	7	Santa Rita 	7	Julio	2023-06-07T00:00:00	2024-11-08T21:00:00	5	Humedad	87
103893	7	Sololá	704	Santa Lucía Utatlán 	7	Santa Rita 	7	Julio	2023-06-07T00:00:00	2024-11-08T21:00:00	6	Velocidad del viento	4.8
103894	7	Sololá	704	Santa Lucía Utatlán 	7	Santa Rita 	7	Julio	2023-06-07T00:00:00	2024-11-08T21:00:00	7	Dirección del viento	4.83
103895	7	Sololá	704	Santa Lucía Utatlán 	7	Santa Rita 	7	Julio	2023-06-07T00:00:00	2024-11-08T21:00:00	1	Precipitación	0
103896	7	Sololá	704	Santa Lucía Utatlán 	7	Santa Rita 	7	Julio	2023-06-07T00:00:00	2024-11-08T21:00:00	8	Radiación solar	0
103897	7	Sololá	704	Santa Lucía Utatlán 	7	Santa Rita 	7	Julio	2023-06-07T00:00:00	2024-11-08T22:00:00	2	Temperatura media	17.7
103898	7	Sololá	704	Santa Lucía Utatlán 	7	Santa Rita 	7	Julio	2023-06-07T00:00:00	2024-11-08T22:00:00	4	Temperatura máxima	17.7
103899	7	Sololá	704	Santa Lucía Utatlán 	7	Santa Rita 	7	Julio	2023-06-07T00:00:00	2024-11-08T22:00:00	3	Temperatura mínima	17.3
103900	7	Sololá	704	Santa Lucía Utatlán 	7	Santa Rita 	7	Julio	2023-06-07T00:00:00	2024-11-08T22:00:00	5	Humedad	82
103901	7	Sololá	704	Santa Lucía Utatlán 	7	Santa Rita 	7	Julio	2023-06-07T00:00:00	2024-11-08T22:00:00	6	Velocidad del viento	3.2
103902	7	Sololá	704	Santa Lucía Utatlán 	7	Santa Rita 	7	Julio	2023-06-07T00:00:00	2024-11-08T22:00:00	7	Dirección del viento	3.22
103903	7	Sololá	704	Santa Lucía Utatlán 	7	Santa Rita 	7	Julio	2023-06-07T00:00:00	2024-11-08T22:00:00	1	Precipitación	0
103904	7	Sololá	704	Santa Lucía Utatlán 	7	Santa Rita 	7	Julio	2023-06-07T00:00:00	2024-11-08T22:00:00	8	Radiación solar	0
103905	7	Sololá	704	Santa Lucía Utatlán 	7	Santa Rita 	7	Julio	2023-06-07T00:00:00	2024-11-08T23:00:00	2	Temperatura media	18.3
103906	7	Sololá	704	Santa Lucía Utatlán 	7	Santa Rita 	7	Julio	2023-06-07T00:00:00	2024-11-08T23:00:00	4	Temperatura máxima	19.1
103907	7	Sololá	704	Santa Lucía Utatlán 	7	Santa Rita 	7	Julio	2023-06-07T00:00:00	2024-11-08T23:00:00	3	Temperatura mínima	17.4
103908	7	Sololá	704	Santa Lucía Utatlán 	7	Santa Rita 	7	Julio	2023-06-07T00:00:00	2024-11-08T23:00:00	5	Humedad	81
103909	7	Sololá	704	Santa Lucía Utatlán 	7	Santa Rita 	7	Julio	2023-06-07T00:00:00	2024-11-08T23:00:00	6	Velocidad del viento	1.6
103910	7	Sololá	704	Santa Lucía Utatlán 	7	Santa Rita 	7	Julio	2023-06-07T00:00:00	2024-11-08T23:00:00	7	Dirección del viento	1.61
103911	7	Sololá	704	Santa Lucía Utatlán 	7	Santa Rita 	7	Julio	2023-06-07T00:00:00	2024-11-08T23:00:00	1	Precipitación	0
103912	7	Sololá	704	Santa Lucía Utatlán 	7	Santa Rita 	7	Julio	2023-06-07T00:00:00	2024-11-08T23:00:00	8	Radiación solar	0
103913	7	Sololá	704	Santa Lucía Utatlán 	7	Santa Rita 	7	Julio	2023-07-07T00:00:00	2024-11-08T00:00:00	2	Temperatura media	16.9
103914	7	Sololá	704	Santa Lucía Utatlán 	7	Santa Rita 	7	Julio	2023-07-07T00:00:00	2024-11-08T00:00:00	4	Temperatura máxima	18.2
103915	7	Sololá	704	Santa Lucía Utatlán 	7	Santa Rita 	7	Julio	2023-07-07T00:00:00	2024-11-08T00:00:00	3	Temperatura mínima	16.6
103916	7	Sololá	704	Santa Lucía Utatlán 	7	Santa Rita 	7	Julio	2023-07-07T00:00:00	2024-11-08T00:00:00	5	Humedad	79
103917	7	Sololá	704	Santa Lucía Utatlán 	7	Santa Rita 	7	Julio	2023-07-07T00:00:00	2024-11-08T00:00:00	6	Velocidad del viento	3.2
103918	7	Sololá	704	Santa Lucía Utatlán 	7	Santa Rita 	7	Julio	2023-07-07T00:00:00	2024-11-08T00:00:00	7	Dirección del viento	3.22
103919	7	Sololá	704	Santa Lucía Utatlán 	7	Santa Rita 	7	Julio	2023-07-07T00:00:00	2024-11-08T00:00:00	1	Precipitación	0
103920	7	Sololá	704	Santa Lucía Utatlán 	7	Santa Rita 	7	Julio	2023-07-07T00:00:00	2024-11-08T00:00:00	8	Radiación solar	0
103921	7	Sololá	704	Santa Lucía Utatlán 	7	Santa Rita 	7	Julio	2023-07-07T00:00:00	2024-11-08T01:00:00	2	Temperatura media	16.9
103922	7	Sololá	704	Santa Lucía Utatlán 	7	Santa Rita 	7	Julio	2023-07-07T00:00:00	2024-11-08T01:00:00	4	Temperatura máxima	17.2
103923	7	Sololá	704	Santa Lucía Utatlán 	7	Santa Rita 	7	Julio	2023-07-07T00:00:00	2024-11-08T01:00:00	3	Temperatura mínima	16.7
103924	7	Sololá	704	Santa Lucía Utatlán 	7	Santa Rita 	7	Julio	2023-07-07T00:00:00	2024-11-08T01:00:00	5	Humedad	78
103925	7	Sololá	704	Santa Lucía Utatlán 	7	Santa Rita 	7	Julio	2023-07-07T00:00:00	2024-11-08T01:00:00	6	Velocidad del viento	3.2
103926	7	Sololá	704	Santa Lucía Utatlán 	7	Santa Rita 	7	Julio	2023-07-07T00:00:00	2024-11-08T01:00:00	7	Dirección del viento	3.22
103927	7	Sololá	704	Santa Lucía Utatlán 	7	Santa Rita 	7	Julio	2023-07-07T00:00:00	2024-11-08T01:00:00	1	Precipitación	0
103928	7	Sololá	704	Santa Lucía Utatlán 	7	Santa Rita 	7	Julio	2023-07-07T00:00:00	2024-11-08T01:00:00	8	Radiación solar	0
103929	7	Sololá	704	Santa Lucía Utatlán 	7	Santa Rita 	7	Julio	2023-07-07T00:00:00	2024-11-08T02:00:00	2	Temperatura media	16.8
103930	7	Sololá	704	Santa Lucía Utatlán 	7	Santa Rita 	7	Julio	2023-07-07T00:00:00	2024-11-08T02:00:00	4	Temperatura máxima	16.9
103931	7	Sololá	704	Santa Lucía Utatlán 	7	Santa Rita 	7	Julio	2023-07-07T00:00:00	2024-11-08T02:00:00	3	Temperatura mínima	16.6
103932	7	Sololá	704	Santa Lucía Utatlán 	7	Santa Rita 	7	Julio	2023-07-07T00:00:00	2024-11-08T02:00:00	5	Humedad	80
103933	7	Sololá	704	Santa Lucía Utatlán 	7	Santa Rita 	7	Julio	2023-07-07T00:00:00	2024-11-08T02:00:00	6	Velocidad del viento	4.8
103934	7	Sololá	704	Santa Lucía Utatlán 	7	Santa Rita 	7	Julio	2023-07-07T00:00:00	2024-11-08T02:00:00	7	Dirección del viento	4.83
103935	7	Sololá	704	Santa Lucía Utatlán 	7	Santa Rita 	7	Julio	2023-07-07T00:00:00	2024-11-08T02:00:00	1	Precipitación	0
103936	7	Sololá	704	Santa Lucía Utatlán 	7	Santa Rita 	7	Julio	2023-07-07T00:00:00	2024-11-08T02:00:00	8	Radiación solar	0
103937	7	Sololá	704	Santa Lucía Utatlán 	7	Santa Rita 	7	Julio	2023-07-07T00:00:00	2024-11-08T03:00:00	2	Temperatura media	16.9
103938	7	Sololá	704	Santa Lucía Utatlán 	7	Santa Rita 	7	Julio	2023-07-07T00:00:00	2024-11-08T03:00:00	4	Temperatura máxima	17
103939	7	Sololá	704	Santa Lucía Utatlán 	7	Santa Rita 	7	Julio	2023-07-07T00:00:00	2024-11-08T03:00:00	3	Temperatura mínima	16.5
103940	7	Sololá	704	Santa Lucía Utatlán 	7	Santa Rita 	7	Julio	2023-07-07T00:00:00	2024-11-08T03:00:00	5	Humedad	83
103941	7	Sololá	704	Santa Lucía Utatlán 	7	Santa Rita 	7	Julio	2023-07-07T00:00:00	2024-11-08T03:00:00	6	Velocidad del viento	4.8
103942	7	Sololá	704	Santa Lucía Utatlán 	7	Santa Rita 	7	Julio	2023-07-07T00:00:00	2024-11-08T03:00:00	7	Dirección del viento	4.83
103943	7	Sololá	704	Santa Lucía Utatlán 	7	Santa Rita 	7	Julio	2023-07-07T00:00:00	2024-11-08T03:00:00	1	Precipitación	0
103944	7	Sololá	704	Santa Lucía Utatlán 	7	Santa Rita 	7	Julio	2023-07-07T00:00:00	2024-11-08T03:00:00	8	Radiación solar	0
103945	7	Sololá	704	Santa Lucía Utatlán 	7	Santa Rita 	7	Julio	2023-07-07T00:00:00	2024-11-08T04:00:00	2	Temperatura media	16.8
103946	7	Sololá	704	Santa Lucía Utatlán 	7	Santa Rita 	7	Julio	2023-07-07T00:00:00	2024-11-08T04:00:00	4	Temperatura máxima	17.3
103947	7	Sololá	704	Santa Lucía Utatlán 	7	Santa Rita 	7	Julio	2023-07-07T00:00:00	2024-11-08T04:00:00	3	Temperatura mínima	16.6
103948	7	Sololá	704	Santa Lucía Utatlán 	7	Santa Rita 	7	Julio	2023-07-07T00:00:00	2024-11-08T04:00:00	5	Humedad	82
103949	7	Sololá	704	Santa Lucía Utatlán 	7	Santa Rita 	7	Julio	2023-07-07T00:00:00	2024-11-08T04:00:00	6	Velocidad del viento	4.8
103950	7	Sololá	704	Santa Lucía Utatlán 	7	Santa Rita 	7	Julio	2023-07-07T00:00:00	2024-11-08T04:00:00	7	Dirección del viento	4.83
103951	7	Sololá	704	Santa Lucía Utatlán 	7	Santa Rita 	7	Julio	2023-07-07T00:00:00	2024-11-08T04:00:00	1	Precipitación	0
103952	7	Sololá	704	Santa Lucía Utatlán 	7	Santa Rita 	7	Julio	2023-07-07T00:00:00	2024-11-08T04:00:00	8	Radiación solar	0
103953	7	Sololá	704	Santa Lucía Utatlán 	7	Santa Rita 	7	Julio	2023-07-07T00:00:00	2024-11-08T05:00:00	2	Temperatura media	17.2
103954	7	Sololá	704	Santa Lucía Utatlán 	7	Santa Rita 	7	Julio	2023-07-07T00:00:00	2024-11-08T05:00:00	4	Temperatura máxima	17.3
103955	7	Sololá	704	Santa Lucía Utatlán 	7	Santa Rita 	7	Julio	2023-07-07T00:00:00	2024-11-08T05:00:00	3	Temperatura mínima	16.6
103956	7	Sololá	704	Santa Lucía Utatlán 	7	Santa Rita 	7	Julio	2023-07-07T00:00:00	2024-11-08T05:00:00	5	Humedad	80
103957	7	Sololá	704	Santa Lucía Utatlán 	7	Santa Rita 	7	Julio	2023-07-07T00:00:00	2024-11-08T05:00:00	6	Velocidad del viento	6.4
103958	7	Sololá	704	Santa Lucía Utatlán 	7	Santa Rita 	7	Julio	2023-07-07T00:00:00	2024-11-08T05:00:00	7	Dirección del viento	6.44
103959	7	Sololá	704	Santa Lucía Utatlán 	7	Santa Rita 	7	Julio	2023-07-07T00:00:00	2024-11-08T05:00:00	1	Precipitación	0
103960	7	Sololá	704	Santa Lucía Utatlán 	7	Santa Rita 	7	Julio	2023-07-07T00:00:00	2024-11-08T05:00:00	8	Radiación solar	0
103961	7	Sololá	704	Santa Lucía Utatlán 	7	Santa Rita 	7	Julio	2023-07-07T00:00:00	2024-11-08T06:00:00	2	Temperatura media	17.3
103962	7	Sololá	704	Santa Lucía Utatlán 	7	Santa Rita 	7	Julio	2023-07-07T00:00:00	2024-11-08T06:00:00	4	Temperatura máxima	17.5
103963	7	Sololá	704	Santa Lucía Utatlán 	7	Santa Rita 	7	Julio	2023-07-07T00:00:00	2024-11-08T06:00:00	3	Temperatura mínima	17.1
103964	7	Sololá	704	Santa Lucía Utatlán 	7	Santa Rita 	7	Julio	2023-07-07T00:00:00	2024-11-08T06:00:00	5	Humedad	79
103965	7	Sololá	704	Santa Lucía Utatlán 	7	Santa Rita 	7	Julio	2023-07-07T00:00:00	2024-11-08T06:00:00	6	Velocidad del viento	6.4
103966	7	Sololá	704	Santa Lucía Utatlán 	7	Santa Rita 	7	Julio	2023-07-07T00:00:00	2024-11-08T06:00:00	7	Dirección del viento	6.44
103967	7	Sololá	704	Santa Lucía Utatlán 	7	Santa Rita 	7	Julio	2023-07-07T00:00:00	2024-11-08T06:00:00	1	Precipitación	0
103968	7	Sololá	704	Santa Lucía Utatlán 	7	Santa Rita 	7	Julio	2023-07-07T00:00:00	2024-11-08T06:00:00	8	Radiación solar	3
103969	7	Sololá	704	Santa Lucía Utatlán 	7	Santa Rita 	7	Julio	2023-07-07T00:00:00	2024-11-08T07:00:00	2	Temperatura media	18.8
103970	7	Sololá	704	Santa Lucía Utatlán 	7	Santa Rita 	7	Julio	2023-07-07T00:00:00	2024-11-08T07:00:00	4	Temperatura máxima	19.4
103971	7	Sololá	704	Santa Lucía Utatlán 	7	Santa Rita 	7	Julio	2023-07-07T00:00:00	2024-11-08T07:00:00	3	Temperatura mínima	17.2
103972	7	Sololá	704	Santa Lucía Utatlán 	7	Santa Rita 	7	Julio	2023-07-07T00:00:00	2024-11-08T07:00:00	5	Humedad	78
103973	7	Sololá	704	Santa Lucía Utatlán 	7	Santa Rita 	7	Julio	2023-07-07T00:00:00	2024-11-08T07:00:00	6	Velocidad del viento	3.2
103974	7	Sololá	704	Santa Lucía Utatlán 	7	Santa Rita 	7	Julio	2023-07-07T00:00:00	2024-11-08T07:00:00	7	Dirección del viento	3.22
103975	7	Sololá	704	Santa Lucía Utatlán 	7	Santa Rita 	7	Julio	2023-07-07T00:00:00	2024-11-08T07:00:00	1	Precipitación	0
103976	7	Sololá	704	Santa Lucía Utatlán 	7	Santa Rita 	7	Julio	2023-07-07T00:00:00	2024-11-08T07:00:00	8	Radiación solar	63
103977	7	Sololá	704	Santa Lucía Utatlán 	7	Santa Rita 	7	Julio	2023-07-07T00:00:00	2024-11-08T08:00:00	2	Temperatura media	22.6
103978	7	Sololá	704	Santa Lucía Utatlán 	7	Santa Rita 	7	Julio	2023-07-07T00:00:00	2024-11-08T08:00:00	4	Temperatura máxima	22.6
103979	7	Sololá	704	Santa Lucía Utatlán 	7	Santa Rita 	7	Julio	2023-07-07T00:00:00	2024-11-08T08:00:00	3	Temperatura mínima	18.8
103980	7	Sololá	704	Santa Lucía Utatlán 	7	Santa Rita 	7	Julio	2023-07-07T00:00:00	2024-11-08T08:00:00	5	Humedad	71
103981	7	Sololá	704	Santa Lucía Utatlán 	7	Santa Rita 	7	Julio	2023-07-07T00:00:00	2024-11-08T08:00:00	6	Velocidad del viento	1.6
103982	7	Sololá	704	Santa Lucía Utatlán 	7	Santa Rita 	7	Julio	2023-07-07T00:00:00	2024-11-08T08:00:00	7	Dirección del viento	1.61
103983	7	Sololá	704	Santa Lucía Utatlán 	7	Santa Rita 	7	Julio	2023-07-07T00:00:00	2024-11-08T08:00:00	1	Precipitación	0
103984	7	Sololá	704	Santa Lucía Utatlán 	7	Santa Rita 	7	Julio	2023-07-07T00:00:00	2024-11-08T08:00:00	8	Radiación solar	320
103985	7	Sololá	704	Santa Lucía Utatlán 	7	Santa Rita 	7	Julio	2023-07-07T00:00:00	2024-11-08T09:00:00	2	Temperatura media	25.4
103986	7	Sololá	704	Santa Lucía Utatlán 	7	Santa Rita 	7	Julio	2023-07-07T00:00:00	2024-11-08T09:00:00	4	Temperatura máxima	25.4
103987	7	Sololá	704	Santa Lucía Utatlán 	7	Santa Rita 	7	Julio	2023-07-07T00:00:00	2024-11-08T09:00:00	3	Temperatura mínima	22.6
103988	7	Sololá	704	Santa Lucía Utatlán 	7	Santa Rita 	7	Julio	2023-07-07T00:00:00	2024-11-08T09:00:00	5	Humedad	60
103989	7	Sololá	704	Santa Lucía Utatlán 	7	Santa Rita 	7	Julio	2023-07-07T00:00:00	2024-11-08T09:00:00	6	Velocidad del viento	3.2
103990	7	Sololá	704	Santa Lucía Utatlán 	7	Santa Rita 	7	Julio	2023-07-07T00:00:00	2024-11-08T09:00:00	7	Dirección del viento	3.22
103991	7	Sololá	704	Santa Lucía Utatlán 	7	Santa Rita 	7	Julio	2023-07-07T00:00:00	2024-11-08T09:00:00	1	Precipitación	0
103992	7	Sololá	704	Santa Lucía Utatlán 	7	Santa Rita 	7	Julio	2023-07-07T00:00:00	2024-11-08T09:00:00	8	Radiación solar	652
103993	7	Sololá	704	Santa Lucía Utatlán 	7	Santa Rita 	7	Julio	2023-07-07T00:00:00	2024-11-08T10:00:00	2	Temperatura media	27
103994	7	Sololá	704	Santa Lucía Utatlán 	7	Santa Rita 	7	Julio	2023-07-07T00:00:00	2024-11-08T10:00:00	4	Temperatura máxima	27
103995	7	Sololá	704	Santa Lucía Utatlán 	7	Santa Rita 	7	Julio	2023-07-07T00:00:00	2024-11-08T10:00:00	3	Temperatura mínima	25.4
103996	7	Sololá	704	Santa Lucía Utatlán 	7	Santa Rita 	7	Julio	2023-07-07T00:00:00	2024-11-08T10:00:00	5	Humedad	57
103997	7	Sololá	704	Santa Lucía Utatlán 	7	Santa Rita 	7	Julio	2023-07-07T00:00:00	2024-11-08T10:00:00	6	Velocidad del viento	4.8
103998	7	Sololá	704	Santa Lucía Utatlán 	7	Santa Rita 	7	Julio	2023-07-07T00:00:00	2024-11-08T10:00:00	7	Dirección del viento	4.83
103999	7	Sololá	704	Santa Lucía Utatlán 	7	Santa Rita 	7	Julio	2023-07-07T00:00:00	2024-11-08T10:00:00	1	Precipitación	0
104000	7	Sololá	704	Santa Lucía Utatlán 	7	Santa Rita 	7	Julio	2023-07-07T00:00:00	2024-11-08T10:00:00	8	Radiación solar	860
104001	7	Sololá	704	Santa Lucía Utatlán 	7	Santa Rita 	7	Julio	2023-07-07T00:00:00	2024-11-08T11:00:00	2	Temperatura media	26
104002	7	Sololá	704	Santa Lucía Utatlán 	7	Santa Rita 	7	Julio	2023-07-07T00:00:00	2024-11-08T11:00:00	4	Temperatura máxima	27.1
104003	7	Sololá	704	Santa Lucía Utatlán 	7	Santa Rita 	7	Julio	2023-07-07T00:00:00	2024-11-08T11:00:00	3	Temperatura mínima	25.8
104004	7	Sololá	704	Santa Lucía Utatlán 	7	Santa Rita 	7	Julio	2023-07-07T00:00:00	2024-11-08T11:00:00	5	Humedad	57
104005	7	Sololá	704	Santa Lucía Utatlán 	7	Santa Rita 	7	Julio	2023-07-07T00:00:00	2024-11-08T11:00:00	6	Velocidad del viento	9.7
104006	7	Sololá	704	Santa Lucía Utatlán 	7	Santa Rita 	7	Julio	2023-07-07T00:00:00	2024-11-08T11:00:00	7	Dirección del viento	9.66
104007	7	Sololá	704	Santa Lucía Utatlán 	7	Santa Rita 	7	Julio	2023-07-07T00:00:00	2024-11-08T11:00:00	1	Precipitación	0
104008	7	Sololá	704	Santa Lucía Utatlán 	7	Santa Rita 	7	Julio	2023-07-07T00:00:00	2024-11-08T11:00:00	8	Radiación solar	960
104009	7	Sololá	704	Santa Lucía Utatlán 	7	Santa Rita 	7	Julio	2023-07-07T00:00:00	2024-11-08T12:00:00	2	Temperatura media	24.6
104010	7	Sololá	704	Santa Lucía Utatlán 	7	Santa Rita 	7	Julio	2023-07-07T00:00:00	2024-11-08T12:00:00	4	Temperatura máxima	26.2
104011	7	Sololá	704	Santa Lucía Utatlán 	7	Santa Rita 	7	Julio	2023-07-07T00:00:00	2024-11-08T12:00:00	3	Temperatura mínima	24.6
104012	7	Sololá	704	Santa Lucía Utatlán 	7	Santa Rita 	7	Julio	2023-07-07T00:00:00	2024-11-08T12:00:00	5	Humedad	79
104013	7	Sololá	704	Santa Lucía Utatlán 	7	Santa Rita 	7	Julio	2023-07-07T00:00:00	2024-11-08T12:00:00	6	Velocidad del viento	9.7
104014	7	Sololá	704	Santa Lucía Utatlán 	7	Santa Rita 	7	Julio	2023-07-07T00:00:00	2024-11-08T12:00:00	7	Dirección del viento	9.66
104015	7	Sololá	704	Santa Lucía Utatlán 	7	Santa Rita 	7	Julio	2023-07-07T00:00:00	2024-11-08T12:00:00	1	Precipitación	0
104016	7	Sololá	704	Santa Lucía Utatlán 	7	Santa Rita 	7	Julio	2023-07-07T00:00:00	2024-11-08T12:00:00	8	Radiación solar	995
104017	7	Sololá	704	Santa Lucía Utatlán 	7	Santa Rita 	7	Julio	2023-07-07T00:00:00	2024-11-08T13:00:00	2	Temperatura media	22.6
104018	7	Sololá	704	Santa Lucía Utatlán 	7	Santa Rita 	7	Julio	2023-07-07T00:00:00	2024-11-08T13:00:00	4	Temperatura máxima	24.7
104019	7	Sololá	704	Santa Lucía Utatlán 	7	Santa Rita 	7	Julio	2023-07-07T00:00:00	2024-11-08T13:00:00	3	Temperatura mínima	22.5
104020	7	Sololá	704	Santa Lucía Utatlán 	7	Santa Rita 	7	Julio	2023-07-07T00:00:00	2024-11-08T13:00:00	5	Humedad	83
104021	7	Sololá	704	Santa Lucía Utatlán 	7	Santa Rita 	7	Julio	2023-07-07T00:00:00	2024-11-08T13:00:00	6	Velocidad del viento	6.4
104022	7	Sololá	704	Santa Lucía Utatlán 	7	Santa Rita 	7	Julio	2023-07-07T00:00:00	2024-11-08T13:00:00	7	Dirección del viento	6.44
104023	7	Sololá	704	Santa Lucía Utatlán 	7	Santa Rita 	7	Julio	2023-07-07T00:00:00	2024-11-08T13:00:00	1	Precipitación	0
104024	7	Sololá	704	Santa Lucía Utatlán 	7	Santa Rita 	7	Julio	2023-07-07T00:00:00	2024-11-08T13:00:00	8	Radiación solar	272
104025	7	Sololá	704	Santa Lucía Utatlán 	7	Santa Rita 	7	Julio	2023-07-07T00:00:00	2024-11-08T14:00:00	2	Temperatura media	22.9
104026	7	Sololá	704	Santa Lucía Utatlán 	7	Santa Rita 	7	Julio	2023-07-07T00:00:00	2024-11-08T14:00:00	4	Temperatura máxima	23.2
104027	7	Sololá	704	Santa Lucía Utatlán 	7	Santa Rita 	7	Julio	2023-07-07T00:00:00	2024-11-08T14:00:00	3	Temperatura mínima	22.3
104028	7	Sololá	704	Santa Lucía Utatlán 	7	Santa Rita 	7	Julio	2023-07-07T00:00:00	2024-11-08T14:00:00	5	Humedad	81
104029	7	Sololá	704	Santa Lucía Utatlán 	7	Santa Rita 	7	Julio	2023-07-07T00:00:00	2024-11-08T14:00:00	6	Velocidad del viento	4.8
104030	7	Sololá	704	Santa Lucía Utatlán 	7	Santa Rita 	7	Julio	2023-07-07T00:00:00	2024-11-08T14:00:00	7	Dirección del viento	4.83
104031	7	Sololá	704	Santa Lucía Utatlán 	7	Santa Rita 	7	Julio	2023-07-07T00:00:00	2024-11-08T14:00:00	1	Precipitación	0
104032	7	Sololá	704	Santa Lucía Utatlán 	7	Santa Rita 	7	Julio	2023-07-07T00:00:00	2024-11-08T14:00:00	8	Radiación solar	200
104033	7	Sololá	704	Santa Lucía Utatlán 	7	Santa Rita 	7	Julio	2023-07-07T00:00:00	2024-11-08T15:00:00	2	Temperatura media	18.4
104034	7	Sololá	704	Santa Lucía Utatlán 	7	Santa Rita 	7	Julio	2023-07-07T00:00:00	2024-11-08T15:00:00	4	Temperatura máxima	22.9
104035	7	Sololá	704	Santa Lucía Utatlán 	7	Santa Rita 	7	Julio	2023-07-07T00:00:00	2024-11-08T15:00:00	3	Temperatura mínima	18.4
104036	7	Sololá	704	Santa Lucía Utatlán 	7	Santa Rita 	7	Julio	2023-07-07T00:00:00	2024-11-08T15:00:00	5	Humedad	92
104037	7	Sololá	704	Santa Lucía Utatlán 	7	Santa Rita 	7	Julio	2023-07-07T00:00:00	2024-11-08T15:00:00	6	Velocidad del viento	6.4
104038	7	Sololá	704	Santa Lucía Utatlán 	7	Santa Rita 	7	Julio	2023-07-07T00:00:00	2024-11-08T15:00:00	7	Dirección del viento	6.44
104039	7	Sololá	704	Santa Lucía Utatlán 	7	Santa Rita 	7	Julio	2023-07-07T00:00:00	2024-11-08T15:00:00	1	Precipitación	51
104040	7	Sololá	704	Santa Lucía Utatlán 	7	Santa Rita 	7	Julio	2023-07-07T00:00:00	2024-11-08T15:00:00	8	Radiación solar	35
104041	7	Sololá	704	Santa Lucía Utatlán 	7	Santa Rita 	7	Julio	2023-07-07T00:00:00	2024-11-08T16:00:00	2	Temperatura media	18.9
104042	7	Sololá	704	Santa Lucía Utatlán 	7	Santa Rita 	7	Julio	2023-07-07T00:00:00	2024-11-08T16:00:00	4	Temperatura máxima	19
104043	7	Sololá	704	Santa Lucía Utatlán 	7	Santa Rita 	7	Julio	2023-07-07T00:00:00	2024-11-08T16:00:00	3	Temperatura mínima	18.3
104044	7	Sololá	704	Santa Lucía Utatlán 	7	Santa Rita 	7	Julio	2023-07-07T00:00:00	2024-11-08T16:00:00	5	Humedad	95
104045	7	Sololá	704	Santa Lucía Utatlán 	7	Santa Rita 	7	Julio	2023-07-07T00:00:00	2024-11-08T16:00:00	6	Velocidad del viento	3.2
104046	7	Sololá	704	Santa Lucía Utatlán 	7	Santa Rita 	7	Julio	2023-07-07T00:00:00	2024-11-08T16:00:00	7	Dirección del viento	3.22
104047	7	Sololá	704	Santa Lucía Utatlán 	7	Santa Rita 	7	Julio	2023-07-07T00:00:00	2024-11-08T16:00:00	1	Precipitación	2.8
104048	7	Sololá	704	Santa Lucía Utatlán 	7	Santa Rita 	7	Julio	2023-07-07T00:00:00	2024-11-08T16:00:00	8	Radiación solar	62
104049	7	Sololá	704	Santa Lucía Utatlán 	7	Santa Rita 	7	Julio	2023-07-07T00:00:00	2024-11-08T17:00:00	2	Temperatura media	18.6
104050	7	Sololá	704	Santa Lucía Utatlán 	7	Santa Rita 	7	Julio	2023-07-07T00:00:00	2024-11-08T17:00:00	4	Temperatura máxima	19
104051	7	Sololá	704	Santa Lucía Utatlán 	7	Santa Rita 	7	Julio	2023-07-07T00:00:00	2024-11-08T17:00:00	3	Temperatura mínima	18.4
104052	7	Sololá	704	Santa Lucía Utatlán 	7	Santa Rita 	7	Julio	2023-07-07T00:00:00	2024-11-08T17:00:00	5	Humedad	96
104053	7	Sololá	704	Santa Lucía Utatlán 	7	Santa Rita 	7	Julio	2023-07-07T00:00:00	2024-11-08T17:00:00	6	Velocidad del viento	3.2
104054	7	Sololá	704	Santa Lucía Utatlán 	7	Santa Rita 	7	Julio	2023-07-07T00:00:00	2024-11-08T17:00:00	7	Dirección del viento	3.22
104055	7	Sololá	704	Santa Lucía Utatlán 	7	Santa Rita 	7	Julio	2023-07-07T00:00:00	2024-11-08T17:00:00	1	Precipitación	4.2
104056	7	Sololá	704	Santa Lucía Utatlán 	7	Santa Rita 	7	Julio	2023-07-07T00:00:00	2024-11-08T17:00:00	8	Radiación solar	11
104057	7	Sololá	704	Santa Lucía Utatlán 	7	Santa Rita 	7	Julio	2023-07-07T00:00:00	2024-11-08T18:00:00	2	Temperatura media	18.8
104058	7	Sololá	704	Santa Lucía Utatlán 	7	Santa Rita 	7	Julio	2023-07-07T00:00:00	2024-11-08T18:00:00	4	Temperatura máxima	18.8
104059	7	Sololá	704	Santa Lucía Utatlán 	7	Santa Rita 	7	Julio	2023-07-07T00:00:00	2024-11-08T18:00:00	3	Temperatura mínima	18.4
104060	7	Sololá	704	Santa Lucía Utatlán 	7	Santa Rita 	7	Julio	2023-07-07T00:00:00	2024-11-08T18:00:00	5	Humedad	96
104061	7	Sololá	704	Santa Lucía Utatlán 	7	Santa Rita 	7	Julio	2023-07-07T00:00:00	2024-11-08T18:00:00	6	Velocidad del viento	1.6
104062	7	Sololá	704	Santa Lucía Utatlán 	7	Santa Rita 	7	Julio	2023-07-07T00:00:00	2024-11-08T18:00:00	7	Dirección del viento	1.61
104063	7	Sololá	704	Santa Lucía Utatlán 	7	Santa Rita 	7	Julio	2023-07-07T00:00:00	2024-11-08T18:00:00	1	Precipitación	0.4
104064	7	Sololá	704	Santa Lucía Utatlán 	7	Santa Rita 	7	Julio	2023-07-07T00:00:00	2024-11-08T18:00:00	8	Radiación solar	21
104065	7	Sololá	704	Santa Lucía Utatlán 	7	Santa Rita 	7	Julio	2023-07-07T00:00:00	2024-11-08T19:00:00	2	Temperatura media	18.7
104066	7	Sololá	704	Santa Lucía Utatlán 	7	Santa Rita 	7	Julio	2023-07-07T00:00:00	2024-11-08T19:00:00	4	Temperatura máxima	18.8
104067	7	Sololá	704	Santa Lucía Utatlán 	7	Santa Rita 	7	Julio	2023-07-07T00:00:00	2024-11-08T19:00:00	3	Temperatura mínima	18.6
104068	7	Sololá	704	Santa Lucía Utatlán 	7	Santa Rita 	7	Julio	2023-07-07T00:00:00	2024-11-08T19:00:00	5	Humedad	97
104069	7	Sololá	704	Santa Lucía Utatlán 	7	Santa Rita 	7	Julio	2023-07-07T00:00:00	2024-11-08T19:00:00	6	Velocidad del viento	0
104070	7	Sololá	704	Santa Lucía Utatlán 	7	Santa Rita 	7	Julio	2023-07-07T00:00:00	2024-11-08T19:00:00	7	Dirección del viento	0
104071	7	Sololá	704	Santa Lucía Utatlán 	7	Santa Rita 	7	Julio	2023-07-07T00:00:00	2024-11-08T19:00:00	1	Precipitación	0
104072	7	Sololá	704	Santa Lucía Utatlán 	7	Santa Rita 	7	Julio	2023-07-07T00:00:00	2024-11-08T19:00:00	8	Radiación solar	0
104073	7	Sololá	704	Santa Lucía Utatlán 	7	Santa Rita 	7	Julio	2023-07-07T00:00:00	2024-11-08T20:00:00	2	Temperatura media	18.6
104074	7	Sololá	704	Santa Lucía Utatlán 	7	Santa Rita 	7	Julio	2023-07-07T00:00:00	2024-11-08T20:00:00	4	Temperatura máxima	18.7
104075	7	Sololá	704	Santa Lucía Utatlán 	7	Santa Rita 	7	Julio	2023-07-07T00:00:00	2024-11-08T20:00:00	3	Temperatura mínima	18.6
104076	7	Sololá	704	Santa Lucía Utatlán 	7	Santa Rita 	7	Julio	2023-07-07T00:00:00	2024-11-08T20:00:00	5	Humedad	97
104077	7	Sololá	704	Santa Lucía Utatlán 	7	Santa Rita 	7	Julio	2023-07-07T00:00:00	2024-11-08T20:00:00	6	Velocidad del viento	0
104078	7	Sololá	704	Santa Lucía Utatlán 	7	Santa Rita 	7	Julio	2023-07-07T00:00:00	2024-11-08T20:00:00	7	Dirección del viento	0
104079	7	Sololá	704	Santa Lucía Utatlán 	7	Santa Rita 	7	Julio	2023-07-07T00:00:00	2024-11-08T20:00:00	1	Precipitación	0
104080	7	Sololá	704	Santa Lucía Utatlán 	7	Santa Rita 	7	Julio	2023-07-07T00:00:00	2024-11-08T20:00:00	8	Radiación solar	0
104081	7	Sololá	704	Santa Lucía Utatlán 	7	Santa Rita 	7	Julio	2023-07-07T00:00:00	2024-11-08T21:00:00	2	Temperatura media	18.5
104082	7	Sololá	704	Santa Lucía Utatlán 	7	Santa Rita 	7	Julio	2023-07-07T00:00:00	2024-11-08T21:00:00	4	Temperatura máxima	18.6
104083	7	Sololá	704	Santa Lucía Utatlán 	7	Santa Rita 	7	Julio	2023-07-07T00:00:00	2024-11-08T21:00:00	3	Temperatura mínima	18.4
104084	7	Sololá	704	Santa Lucía Utatlán 	7	Santa Rita 	7	Julio	2023-07-07T00:00:00	2024-11-08T21:00:00	5	Humedad	97
104085	7	Sololá	704	Santa Lucía Utatlán 	7	Santa Rita 	7	Julio	2023-07-07T00:00:00	2024-11-08T21:00:00	6	Velocidad del viento	0
104086	7	Sololá	704	Santa Lucía Utatlán 	7	Santa Rita 	7	Julio	2023-07-07T00:00:00	2024-11-08T21:00:00	7	Dirección del viento	0
104087	7	Sololá	704	Santa Lucía Utatlán 	7	Santa Rita 	7	Julio	2023-07-07T00:00:00	2024-11-08T21:00:00	1	Precipitación	0
104088	7	Sololá	704	Santa Lucía Utatlán 	7	Santa Rita 	7	Julio	2023-07-07T00:00:00	2024-11-08T21:00:00	8	Radiación solar	0
104089	7	Sololá	704	Santa Lucía Utatlán 	7	Santa Rita 	7	Julio	2023-07-07T00:00:00	2024-11-08T22:00:00	2	Temperatura media	18.4
104090	7	Sololá	704	Santa Lucía Utatlán 	7	Santa Rita 	7	Julio	2023-07-07T00:00:00	2024-11-08T22:00:00	4	Temperatura máxima	18.6
104091	7	Sololá	704	Santa Lucía Utatlán 	7	Santa Rita 	7	Julio	2023-07-07T00:00:00	2024-11-08T22:00:00	3	Temperatura mínima	18.4
104092	7	Sololá	704	Santa Lucía Utatlán 	7	Santa Rita 	7	Julio	2023-07-07T00:00:00	2024-11-08T22:00:00	5	Humedad	97
104093	7	Sololá	704	Santa Lucía Utatlán 	7	Santa Rita 	7	Julio	2023-07-07T00:00:00	2024-11-08T22:00:00	6	Velocidad del viento	0
104094	7	Sololá	704	Santa Lucía Utatlán 	7	Santa Rita 	7	Julio	2023-07-07T00:00:00	2024-11-08T22:00:00	7	Dirección del viento	0
104095	7	Sololá	704	Santa Lucía Utatlán 	7	Santa Rita 	7	Julio	2023-07-07T00:00:00	2024-11-08T22:00:00	1	Precipitación	0
104096	7	Sololá	704	Santa Lucía Utatlán 	7	Santa Rita 	7	Julio	2023-07-07T00:00:00	2024-11-08T22:00:00	8	Radiación solar	0
104097	7	Sololá	704	Santa Lucía Utatlán 	7	Santa Rita 	7	Julio	2023-07-07T00:00:00	2024-11-08T23:00:00	2	Temperatura media	17.8
104098	7	Sololá	704	Santa Lucía Utatlán 	7	Santa Rita 	7	Julio	2023-07-07T00:00:00	2024-11-08T23:00:00	4	Temperatura máxima	18.4
104099	7	Sololá	704	Santa Lucía Utatlán 	7	Santa Rita 	7	Julio	2023-07-07T00:00:00	2024-11-08T23:00:00	3	Temperatura mínima	17.8
104100	7	Sololá	704	Santa Lucía Utatlán 	7	Santa Rita 	7	Julio	2023-07-07T00:00:00	2024-11-08T23:00:00	5	Humedad	97
104101	7	Sololá	704	Santa Lucía Utatlán 	7	Santa Rita 	7	Julio	2023-07-07T00:00:00	2024-11-08T23:00:00	6	Velocidad del viento	1.6
104102	7	Sololá	704	Santa Lucía Utatlán 	7	Santa Rita 	7	Julio	2023-07-07T00:00:00	2024-11-08T23:00:00	7	Dirección del viento	1.61
104103	7	Sololá	704	Santa Lucía Utatlán 	7	Santa Rita 	7	Julio	2023-07-07T00:00:00	2024-11-08T23:00:00	1	Precipitación	0
104104	7	Sololá	704	Santa Lucía Utatlán 	7	Santa Rita 	7	Julio	2023-07-07T00:00:00	2024-11-08T23:00:00	8	Radiación solar	0
104105	7	Sololá	704	Santa Lucía Utatlán 	7	Santa Rita 	7	Julio	2023-08-07T00:00:00	2024-11-08T00:00:00	2	Temperatura media	17.9
104106	7	Sololá	704	Santa Lucía Utatlán 	7	Santa Rita 	7	Julio	2023-08-07T00:00:00	2024-11-08T00:00:00	4	Temperatura máxima	17.9
104107	7	Sololá	704	Santa Lucía Utatlán 	7	Santa Rita 	7	Julio	2023-08-07T00:00:00	2024-11-08T00:00:00	3	Temperatura mínima	17.8
104108	7	Sololá	704	Santa Lucía Utatlán 	7	Santa Rita 	7	Julio	2023-08-07T00:00:00	2024-11-08T00:00:00	5	Humedad	97
104109	7	Sololá	704	Santa Lucía Utatlán 	7	Santa Rita 	7	Julio	2023-08-07T00:00:00	2024-11-08T00:00:00	6	Velocidad del viento	1.6
104110	7	Sololá	704	Santa Lucía Utatlán 	7	Santa Rita 	7	Julio	2023-08-07T00:00:00	2024-11-08T00:00:00	7	Dirección del viento	1.61
104111	7	Sololá	704	Santa Lucía Utatlán 	7	Santa Rita 	7	Julio	2023-08-07T00:00:00	2024-11-08T00:00:00	1	Precipitación	0
104112	7	Sololá	704	Santa Lucía Utatlán 	7	Santa Rita 	7	Julio	2023-08-07T00:00:00	2024-11-08T00:00:00	8	Radiación solar	0
104113	7	Sololá	704	Santa Lucía Utatlán 	7	Santa Rita 	7	Julio	2023-08-07T00:00:00	2024-11-08T01:00:00	2	Temperatura media	18.1
104114	7	Sololá	704	Santa Lucía Utatlán 	7	Santa Rita 	7	Julio	2023-08-07T00:00:00	2024-11-08T01:00:00	4	Temperatura máxima	18.1
104115	7	Sololá	704	Santa Lucía Utatlán 	7	Santa Rita 	7	Julio	2023-08-07T00:00:00	2024-11-08T01:00:00	3	Temperatura mínima	17.8
104116	7	Sololá	704	Santa Lucía Utatlán 	7	Santa Rita 	7	Julio	2023-08-07T00:00:00	2024-11-08T01:00:00	5	Humedad	97
104117	7	Sololá	704	Santa Lucía Utatlán 	7	Santa Rita 	7	Julio	2023-08-07T00:00:00	2024-11-08T01:00:00	6	Velocidad del viento	1.6
104118	7	Sololá	704	Santa Lucía Utatlán 	7	Santa Rita 	7	Julio	2023-08-07T00:00:00	2024-11-08T01:00:00	7	Dirección del viento	1.61
104119	7	Sololá	704	Santa Lucía Utatlán 	7	Santa Rita 	7	Julio	2023-08-07T00:00:00	2024-11-08T01:00:00	1	Precipitación	0.2
104120	7	Sololá	704	Santa Lucía Utatlán 	7	Santa Rita 	7	Julio	2023-08-07T00:00:00	2024-11-08T01:00:00	8	Radiación solar	0
104121	7	Sololá	704	Santa Lucía Utatlán 	7	Santa Rita 	7	Julio	2023-08-07T00:00:00	2024-11-08T02:00:00	2	Temperatura media	18.1
104122	7	Sololá	704	Santa Lucía Utatlán 	7	Santa Rita 	7	Julio	2023-08-07T00:00:00	2024-11-08T02:00:00	4	Temperatura máxima	18.2
104123	7	Sololá	704	Santa Lucía Utatlán 	7	Santa Rita 	7	Julio	2023-08-07T00:00:00	2024-11-08T02:00:00	3	Temperatura mínima	18
104124	7	Sololá	704	Santa Lucía Utatlán 	7	Santa Rita 	7	Julio	2023-08-07T00:00:00	2024-11-08T02:00:00	5	Humedad	97
104125	7	Sololá	704	Santa Lucía Utatlán 	7	Santa Rita 	7	Julio	2023-08-07T00:00:00	2024-11-08T02:00:00	6	Velocidad del viento	0
104126	7	Sololá	704	Santa Lucía Utatlán 	7	Santa Rita 	7	Julio	2023-08-07T00:00:00	2024-11-08T02:00:00	7	Dirección del viento	0
104127	7	Sololá	704	Santa Lucía Utatlán 	7	Santa Rita 	7	Julio	2023-08-07T00:00:00	2024-11-08T02:00:00	1	Precipitación	0
104128	7	Sololá	704	Santa Lucía Utatlán 	7	Santa Rita 	7	Julio	2023-08-07T00:00:00	2024-11-08T02:00:00	8	Radiación solar	0
104129	7	Sololá	704	Santa Lucía Utatlán 	7	Santa Rita 	7	Julio	2023-08-07T00:00:00	2024-11-08T03:00:00	2	Temperatura media	18.3
104130	7	Sololá	704	Santa Lucía Utatlán 	7	Santa Rita 	7	Julio	2023-08-07T00:00:00	2024-11-08T03:00:00	4	Temperatura máxima	18.3
104131	7	Sololá	704	Santa Lucía Utatlán 	7	Santa Rita 	7	Julio	2023-08-07T00:00:00	2024-11-08T03:00:00	3	Temperatura mínima	18.1
104132	7	Sololá	704	Santa Lucía Utatlán 	7	Santa Rita 	7	Julio	2023-08-07T00:00:00	2024-11-08T03:00:00	5	Humedad	97
104133	7	Sololá	704	Santa Lucía Utatlán 	7	Santa Rita 	7	Julio	2023-08-07T00:00:00	2024-11-08T03:00:00	6	Velocidad del viento	0
104134	7	Sololá	704	Santa Lucía Utatlán 	7	Santa Rita 	7	Julio	2023-08-07T00:00:00	2024-11-08T03:00:00	7	Dirección del viento	0
104135	7	Sololá	704	Santa Lucía Utatlán 	7	Santa Rita 	7	Julio	2023-08-07T00:00:00	2024-11-08T03:00:00	1	Precipitación	0
104136	7	Sololá	704	Santa Lucía Utatlán 	7	Santa Rita 	7	Julio	2023-08-07T00:00:00	2024-11-08T03:00:00	8	Radiación solar	0
104137	7	Sololá	704	Santa Lucía Utatlán 	7	Santa Rita 	7	Julio	2023-08-07T00:00:00	2024-11-08T04:00:00	2	Temperatura media	18.1
104138	7	Sololá	704	Santa Lucía Utatlán 	7	Santa Rita 	7	Julio	2023-08-07T00:00:00	2024-11-08T04:00:00	4	Temperatura máxima	18.3
104139	7	Sololá	704	Santa Lucía Utatlán 	7	Santa Rita 	7	Julio	2023-08-07T00:00:00	2024-11-08T04:00:00	3	Temperatura mínima	18.1
104140	7	Sololá	704	Santa Lucía Utatlán 	7	Santa Rita 	7	Julio	2023-08-07T00:00:00	2024-11-08T04:00:00	5	Humedad	98
104141	7	Sololá	704	Santa Lucía Utatlán 	7	Santa Rita 	7	Julio	2023-08-07T00:00:00	2024-11-08T04:00:00	6	Velocidad del viento	0
104142	7	Sololá	704	Santa Lucía Utatlán 	7	Santa Rita 	7	Julio	2023-08-07T00:00:00	2024-11-08T04:00:00	7	Dirección del viento	0
104143	7	Sololá	704	Santa Lucía Utatlán 	7	Santa Rita 	7	Julio	2023-08-07T00:00:00	2024-11-08T04:00:00	1	Precipitación	0
104144	7	Sololá	704	Santa Lucía Utatlán 	7	Santa Rita 	7	Julio	2023-08-07T00:00:00	2024-11-08T04:00:00	8	Radiación solar	0
104145	7	Sololá	704	Santa Lucía Utatlán 	7	Santa Rita 	7	Julio	2023-08-07T00:00:00	2024-11-08T05:00:00	2	Temperatura media	17.2
104146	7	Sololá	704	Santa Lucía Utatlán 	7	Santa Rita 	7	Julio	2023-08-07T00:00:00	2024-11-08T05:00:00	4	Temperatura máxima	18.1
104147	7	Sololá	704	Santa Lucía Utatlán 	7	Santa Rita 	7	Julio	2023-08-07T00:00:00	2024-11-08T05:00:00	3	Temperatura mínima	17.2
104148	7	Sololá	704	Santa Lucía Utatlán 	7	Santa Rita 	7	Julio	2023-08-07T00:00:00	2024-11-08T05:00:00	5	Humedad	97
104149	7	Sololá	704	Santa Lucía Utatlán 	7	Santa Rita 	7	Julio	2023-08-07T00:00:00	2024-11-08T05:00:00	6	Velocidad del viento	0
104150	7	Sololá	704	Santa Lucía Utatlán 	7	Santa Rita 	7	Julio	2023-08-07T00:00:00	2024-11-08T05:00:00	7	Dirección del viento	0
104151	7	Sololá	704	Santa Lucía Utatlán 	7	Santa Rita 	7	Julio	2023-08-07T00:00:00	2024-11-08T05:00:00	1	Precipitación	0
104152	7	Sololá	704	Santa Lucía Utatlán 	7	Santa Rita 	7	Julio	2023-08-07T00:00:00	2024-11-08T05:00:00	8	Radiación solar	0
104153	7	Sololá	704	Santa Lucía Utatlán 	7	Santa Rita 	7	Julio	2023-08-07T00:00:00	2024-11-08T06:00:00	2	Temperatura media	17.3
104154	7	Sololá	704	Santa Lucía Utatlán 	7	Santa Rita 	7	Julio	2023-08-07T00:00:00	2024-11-08T06:00:00	4	Temperatura máxima	17.3
104155	7	Sololá	704	Santa Lucía Utatlán 	7	Santa Rita 	7	Julio	2023-08-07T00:00:00	2024-11-08T06:00:00	3	Temperatura mínima	16.9
104156	7	Sololá	704	Santa Lucía Utatlán 	7	Santa Rita 	7	Julio	2023-08-07T00:00:00	2024-11-08T06:00:00	5	Humedad	97
104157	7	Sololá	704	Santa Lucía Utatlán 	7	Santa Rita 	7	Julio	2023-08-07T00:00:00	2024-11-08T06:00:00	6	Velocidad del viento	1.6
104158	7	Sololá	704	Santa Lucía Utatlán 	7	Santa Rita 	7	Julio	2023-08-07T00:00:00	2024-11-08T06:00:00	7	Dirección del viento	1.61
104159	7	Sololá	704	Santa Lucía Utatlán 	7	Santa Rita 	7	Julio	2023-08-07T00:00:00	2024-11-08T06:00:00	1	Precipitación	0.2
104160	7	Sololá	704	Santa Lucía Utatlán 	7	Santa Rita 	7	Julio	2023-08-07T00:00:00	2024-11-08T06:00:00	8	Radiación solar	3
104161	7	Sololá	704	Santa Lucía Utatlán 	7	Santa Rita 	7	Julio	2023-08-07T00:00:00	2024-11-08T07:00:00	2	Temperatura media	17.9
104162	7	Sololá	704	Santa Lucía Utatlán 	7	Santa Rita 	7	Julio	2023-08-07T00:00:00	2024-11-08T07:00:00	4	Temperatura máxima	17.9
104163	7	Sololá	704	Santa Lucía Utatlán 	7	Santa Rita 	7	Julio	2023-08-07T00:00:00	2024-11-08T07:00:00	3	Temperatura mínima	17.3
104164	7	Sololá	704	Santa Lucía Utatlán 	7	Santa Rita 	7	Julio	2023-08-07T00:00:00	2024-11-08T07:00:00	5	Humedad	97
104165	7	Sololá	704	Santa Lucía Utatlán 	7	Santa Rita 	7	Julio	2023-08-07T00:00:00	2024-11-08T07:00:00	6	Velocidad del viento	1.6
104166	7	Sololá	704	Santa Lucía Utatlán 	7	Santa Rita 	7	Julio	2023-08-07T00:00:00	2024-11-08T07:00:00	7	Dirección del viento	1.61
104167	7	Sololá	704	Santa Lucía Utatlán 	7	Santa Rita 	7	Julio	2023-08-07T00:00:00	2024-11-08T07:00:00	1	Precipitación	0
104168	7	Sololá	704	Santa Lucía Utatlán 	7	Santa Rita 	7	Julio	2023-08-07T00:00:00	2024-11-08T07:00:00	8	Radiación solar	40
104169	7	Sololá	704	Santa Lucía Utatlán 	7	Santa Rita 	7	Julio	2023-08-07T00:00:00	2024-11-08T08:00:00	2	Temperatura media	18.9
104170	7	Sololá	704	Santa Lucía Utatlán 	7	Santa Rita 	7	Julio	2023-08-07T00:00:00	2024-11-08T08:00:00	4	Temperatura máxima	19
104171	7	Sololá	704	Santa Lucía Utatlán 	7	Santa Rita 	7	Julio	2023-08-07T00:00:00	2024-11-08T08:00:00	3	Temperatura mínima	17.9
104172	7	Sololá	704	Santa Lucía Utatlán 	7	Santa Rita 	7	Julio	2023-08-07T00:00:00	2024-11-08T08:00:00	5	Humedad	97
104173	7	Sololá	704	Santa Lucía Utatlán 	7	Santa Rita 	7	Julio	2023-08-07T00:00:00	2024-11-08T08:00:00	6	Velocidad del viento	0
104174	7	Sololá	704	Santa Lucía Utatlán 	7	Santa Rita 	7	Julio	2023-08-07T00:00:00	2024-11-08T08:00:00	7	Dirección del viento	0
104175	7	Sololá	704	Santa Lucía Utatlán 	7	Santa Rita 	7	Julio	2023-08-07T00:00:00	2024-11-08T08:00:00	1	Precipitación	0
104176	7	Sololá	704	Santa Lucía Utatlán 	7	Santa Rita 	7	Julio	2023-08-07T00:00:00	2024-11-08T08:00:00	8	Radiación solar	128
104177	7	Sololá	704	Santa Lucía Utatlán 	7	Santa Rita 	7	Julio	2023-08-07T00:00:00	2024-11-08T09:00:00	2	Temperatura media	20.1
104178	7	Sololá	704	Santa Lucía Utatlán 	7	Santa Rita 	7	Julio	2023-08-07T00:00:00	2024-11-08T09:00:00	4	Temperatura máxima	20.1
104179	7	Sololá	704	Santa Lucía Utatlán 	7	Santa Rita 	7	Julio	2023-08-07T00:00:00	2024-11-08T09:00:00	3	Temperatura mínima	18.9
104180	7	Sololá	704	Santa Lucía Utatlán 	7	Santa Rita 	7	Julio	2023-08-07T00:00:00	2024-11-08T09:00:00	5	Humedad	90
104181	7	Sololá	704	Santa Lucía Utatlán 	7	Santa Rita 	7	Julio	2023-08-07T00:00:00	2024-11-08T09:00:00	6	Velocidad del viento	1.6
104182	7	Sololá	704	Santa Lucía Utatlán 	7	Santa Rita 	7	Julio	2023-08-07T00:00:00	2024-11-08T09:00:00	7	Dirección del viento	1.61
104183	7	Sololá	704	Santa Lucía Utatlán 	7	Santa Rita 	7	Julio	2023-08-07T00:00:00	2024-11-08T09:00:00	1	Precipitación	0
104184	7	Sololá	704	Santa Lucía Utatlán 	7	Santa Rita 	7	Julio	2023-08-07T00:00:00	2024-11-08T09:00:00	8	Radiación solar	273
104185	7	Sololá	704	Santa Lucía Utatlán 	7	Santa Rita 	7	Julio	2023-08-07T00:00:00	2024-11-08T10:00:00	2	Temperatura media	21
104186	7	Sololá	704	Santa Lucía Utatlán 	7	Santa Rita 	7	Julio	2023-08-07T00:00:00	2024-11-08T10:00:00	4	Temperatura máxima	21.1
104187	7	Sololá	704	Santa Lucía Utatlán 	7	Santa Rita 	7	Julio	2023-08-07T00:00:00	2024-11-08T10:00:00	3	Temperatura mínima	20
104188	7	Sololá	704	Santa Lucía Utatlán 	7	Santa Rita 	7	Julio	2023-08-07T00:00:00	2024-11-08T10:00:00	5	Humedad	88
104189	7	Sololá	704	Santa Lucía Utatlán 	7	Santa Rita 	7	Julio	2023-08-07T00:00:00	2024-11-08T10:00:00	6	Velocidad del viento	3.2
104190	7	Sololá	704	Santa Lucía Utatlán 	7	Santa Rita 	7	Julio	2023-08-07T00:00:00	2024-11-08T10:00:00	7	Dirección del viento	3.22
104191	7	Sololá	704	Santa Lucía Utatlán 	7	Santa Rita 	7	Julio	2023-08-07T00:00:00	2024-11-08T10:00:00	1	Precipitación	0
104192	7	Sololá	704	Santa Lucía Utatlán 	7	Santa Rita 	7	Julio	2023-08-07T00:00:00	2024-11-08T10:00:00	8	Radiación solar	309
104193	7	Sololá	704	Santa Lucía Utatlán 	7	Santa Rita 	7	Julio	2023-08-07T00:00:00	2024-11-08T11:00:00	2	Temperatura media	20.4
104194	7	Sololá	704	Santa Lucía Utatlán 	7	Santa Rita 	7	Julio	2023-08-07T00:00:00	2024-11-08T11:00:00	4	Temperatura máxima	21.2
104195	7	Sololá	704	Santa Lucía Utatlán 	7	Santa Rita 	7	Julio	2023-08-07T00:00:00	2024-11-08T11:00:00	3	Temperatura mínima	20.4
104196	7	Sololá	704	Santa Lucía Utatlán 	7	Santa Rita 	7	Julio	2023-08-07T00:00:00	2024-11-08T11:00:00	5	Humedad	90
104197	7	Sololá	704	Santa Lucía Utatlán 	7	Santa Rita 	7	Julio	2023-08-07T00:00:00	2024-11-08T11:00:00	6	Velocidad del viento	3.2
104198	7	Sololá	704	Santa Lucía Utatlán 	7	Santa Rita 	7	Julio	2023-08-07T00:00:00	2024-11-08T11:00:00	7	Dirección del viento	3.22
104199	7	Sololá	704	Santa Lucía Utatlán 	7	Santa Rita 	7	Julio	2023-08-07T00:00:00	2024-11-08T11:00:00	1	Precipitación	0
104200	7	Sololá	704	Santa Lucía Utatlán 	7	Santa Rita 	7	Julio	2023-08-07T00:00:00	2024-11-08T11:00:00	8	Radiación solar	173
104201	7	Sololá	704	Santa Lucía Utatlán 	7	Santa Rita 	7	Julio	2023-08-07T00:00:00	2024-11-08T12:00:00	2	Temperatura media	20.1
104202	7	Sololá	704	Santa Lucía Utatlán 	7	Santa Rita 	7	Julio	2023-08-07T00:00:00	2024-11-08T12:00:00	4	Temperatura máxima	20.4
104203	7	Sololá	704	Santa Lucía Utatlán 	7	Santa Rita 	7	Julio	2023-08-07T00:00:00	2024-11-08T12:00:00	3	Temperatura mínima	19.8
104204	7	Sololá	704	Santa Lucía Utatlán 	7	Santa Rita 	7	Julio	2023-08-07T00:00:00	2024-11-08T12:00:00	5	Humedad	92
104205	7	Sololá	704	Santa Lucía Utatlán 	7	Santa Rita 	7	Julio	2023-08-07T00:00:00	2024-11-08T12:00:00	6	Velocidad del viento	3.2
104206	7	Sololá	704	Santa Lucía Utatlán 	7	Santa Rita 	7	Julio	2023-08-07T00:00:00	2024-11-08T12:00:00	7	Dirección del viento	3.22
104207	7	Sololá	704	Santa Lucía Utatlán 	7	Santa Rita 	7	Julio	2023-08-07T00:00:00	2024-11-08T12:00:00	1	Precipitación	0.2
104208	7	Sololá	704	Santa Lucía Utatlán 	7	Santa Rita 	7	Julio	2023-08-07T00:00:00	2024-11-08T12:00:00	8	Radiación solar	152
104209	7	Sololá	704	Santa Lucía Utatlán 	7	Santa Rita 	7	Julio	2023-08-07T00:00:00	2024-11-08T13:00:00	2	Temperatura media	22.2
104210	7	Sololá	704	Santa Lucía Utatlán 	7	Santa Rita 	7	Julio	2023-08-07T00:00:00	2024-11-08T13:00:00	4	Temperatura máxima	22.2
104211	7	Sololá	704	Santa Lucía Utatlán 	7	Santa Rita 	7	Julio	2023-08-07T00:00:00	2024-11-08T13:00:00	3	Temperatura mínima	20.1
104212	7	Sololá	704	Santa Lucía Utatlán 	7	Santa Rita 	7	Julio	2023-08-07T00:00:00	2024-11-08T13:00:00	5	Humedad	81
104213	7	Sololá	704	Santa Lucía Utatlán 	7	Santa Rita 	7	Julio	2023-08-07T00:00:00	2024-11-08T13:00:00	6	Velocidad del viento	1.6
104214	7	Sololá	704	Santa Lucía Utatlán 	7	Santa Rita 	7	Julio	2023-08-07T00:00:00	2024-11-08T13:00:00	7	Dirección del viento	1.61
104215	7	Sololá	704	Santa Lucía Utatlán 	7	Santa Rita 	7	Julio	2023-08-07T00:00:00	2024-11-08T13:00:00	1	Precipitación	0
104216	7	Sololá	704	Santa Lucía Utatlán 	7	Santa Rita 	7	Julio	2023-08-07T00:00:00	2024-11-08T13:00:00	8	Radiación solar	405
104217	7	Sololá	704	Santa Lucía Utatlán 	7	Santa Rita 	7	Julio	2023-08-07T00:00:00	2024-11-08T14:00:00	2	Temperatura media	21.2
104218	7	Sololá	704	Santa Lucía Utatlán 	7	Santa Rita 	7	Julio	2023-08-07T00:00:00	2024-11-08T14:00:00	4	Temperatura máxima	22.4
104219	7	Sololá	704	Santa Lucía Utatlán 	7	Santa Rita 	7	Julio	2023-08-07T00:00:00	2024-11-08T14:00:00	3	Temperatura mínima	21.1
104220	7	Sololá	704	Santa Lucía Utatlán 	7	Santa Rita 	7	Julio	2023-08-07T00:00:00	2024-11-08T14:00:00	5	Humedad	87
104221	7	Sololá	704	Santa Lucía Utatlán 	7	Santa Rita 	7	Julio	2023-08-07T00:00:00	2024-11-08T14:00:00	6	Velocidad del viento	4.8
104222	7	Sololá	704	Santa Lucía Utatlán 	7	Santa Rita 	7	Julio	2023-08-07T00:00:00	2024-11-08T14:00:00	7	Dirección del viento	4.83
104223	7	Sololá	704	Santa Lucía Utatlán 	7	Santa Rita 	7	Julio	2023-08-07T00:00:00	2024-11-08T14:00:00	1	Precipitación	0
104224	7	Sololá	704	Santa Lucía Utatlán 	7	Santa Rita 	7	Julio	2023-08-07T00:00:00	2024-11-08T14:00:00	8	Radiación solar	284
104225	7	Sololá	704	Santa Lucía Utatlán 	7	Santa Rita 	7	Julio	2023-08-07T00:00:00	2024-11-08T15:00:00	2	Temperatura media	22.1
104226	7	Sololá	704	Santa Lucía Utatlán 	7	Santa Rita 	7	Julio	2023-08-07T00:00:00	2024-11-08T15:00:00	4	Temperatura máxima	22.3
104227	7	Sololá	704	Santa Lucía Utatlán 	7	Santa Rita 	7	Julio	2023-08-07T00:00:00	2024-11-08T15:00:00	3	Temperatura mínima	21.1
104228	7	Sololá	704	Santa Lucía Utatlán 	7	Santa Rita 	7	Julio	2023-08-07T00:00:00	2024-11-08T15:00:00	5	Humedad	81
104229	7	Sololá	704	Santa Lucía Utatlán 	7	Santa Rita 	7	Julio	2023-08-07T00:00:00	2024-11-08T15:00:00	6	Velocidad del viento	4.8
104230	7	Sololá	704	Santa Lucía Utatlán 	7	Santa Rita 	7	Julio	2023-08-07T00:00:00	2024-11-08T15:00:00	7	Dirección del viento	4.83
104231	7	Sololá	704	Santa Lucía Utatlán 	7	Santa Rita 	7	Julio	2023-08-07T00:00:00	2024-11-08T15:00:00	1	Precipitación	0
104232	7	Sololá	704	Santa Lucía Utatlán 	7	Santa Rita 	7	Julio	2023-08-07T00:00:00	2024-11-08T15:00:00	8	Radiación solar	445
104233	7	Sololá	704	Santa Lucía Utatlán 	7	Santa Rita 	7	Julio	2023-08-07T00:00:00	2024-11-08T16:00:00	2	Temperatura media	20.1
104234	7	Sololá	704	Santa Lucía Utatlán 	7	Santa Rita 	7	Julio	2023-08-07T00:00:00	2024-11-08T16:00:00	4	Temperatura máxima	22.1
104235	7	Sololá	704	Santa Lucía Utatlán 	7	Santa Rita 	7	Julio	2023-08-07T00:00:00	2024-11-08T16:00:00	3	Temperatura mínima	20.1
104236	7	Sololá	704	Santa Lucía Utatlán 	7	Santa Rita 	7	Julio	2023-08-07T00:00:00	2024-11-08T16:00:00	5	Humedad	92
104237	7	Sololá	704	Santa Lucía Utatlán 	7	Santa Rita 	7	Julio	2023-08-07T00:00:00	2024-11-08T16:00:00	6	Velocidad del viento	4.8
104238	7	Sololá	704	Santa Lucía Utatlán 	7	Santa Rita 	7	Julio	2023-08-07T00:00:00	2024-11-08T16:00:00	7	Dirección del viento	4.83
104239	7	Sololá	704	Santa Lucía Utatlán 	7	Santa Rita 	7	Julio	2023-08-07T00:00:00	2024-11-08T16:00:00	1	Precipitación	0.4
104240	7	Sololá	704	Santa Lucía Utatlán 	7	Santa Rita 	7	Julio	2023-08-07T00:00:00	2024-11-08T16:00:00	8	Radiación solar	214
104241	7	Sololá	704	Santa Lucía Utatlán 	7	Santa Rita 	7	Julio	2023-08-07T00:00:00	2024-11-08T17:00:00	2	Temperatura media	19.6
104242	7	Sololá	704	Santa Lucía Utatlán 	7	Santa Rita 	7	Julio	2023-08-07T00:00:00	2024-11-08T17:00:00	4	Temperatura máxima	20.1
104243	7	Sololá	704	Santa Lucía Utatlán 	7	Santa Rita 	7	Julio	2023-08-07T00:00:00	2024-11-08T17:00:00	3	Temperatura mínima	19.6
104244	7	Sololá	704	Santa Lucía Utatlán 	7	Santa Rita 	7	Julio	2023-08-07T00:00:00	2024-11-08T17:00:00	5	Humedad	94
104245	7	Sololá	704	Santa Lucía Utatlán 	7	Santa Rita 	7	Julio	2023-08-07T00:00:00	2024-11-08T17:00:00	6	Velocidad del viento	1.6
104246	7	Sololá	704	Santa Lucía Utatlán 	7	Santa Rita 	7	Julio	2023-08-07T00:00:00	2024-11-08T17:00:00	7	Dirección del viento	1.61
104247	7	Sololá	704	Santa Lucía Utatlán 	7	Santa Rita 	7	Julio	2023-08-07T00:00:00	2024-11-08T17:00:00	1	Precipitación	1.8
104248	7	Sololá	704	Santa Lucía Utatlán 	7	Santa Rita 	7	Julio	2023-08-07T00:00:00	2024-11-08T17:00:00	8	Radiación solar	50
104249	7	Sololá	704	Santa Lucía Utatlán 	7	Santa Rita 	7	Julio	2023-08-07T00:00:00	2024-11-08T18:00:00	2	Temperatura media	19.3
104250	7	Sololá	704	Santa Lucía Utatlán 	7	Santa Rita 	7	Julio	2023-08-07T00:00:00	2024-11-08T18:00:00	4	Temperatura máxima	19.6
104251	7	Sololá	704	Santa Lucía Utatlán 	7	Santa Rita 	7	Julio	2023-08-07T00:00:00	2024-11-08T18:00:00	3	Temperatura mínima	19.2
104252	7	Sololá	704	Santa Lucía Utatlán 	7	Santa Rita 	7	Julio	2023-08-07T00:00:00	2024-11-08T18:00:00	5	Humedad	95
104253	7	Sololá	704	Santa Lucía Utatlán 	7	Santa Rita 	7	Julio	2023-08-07T00:00:00	2024-11-08T18:00:00	6	Velocidad del viento	1.6
104254	7	Sololá	704	Santa Lucía Utatlán 	7	Santa Rita 	7	Julio	2023-08-07T00:00:00	2024-11-08T18:00:00	7	Dirección del viento	1.61
104255	7	Sololá	704	Santa Lucía Utatlán 	7	Santa Rita 	7	Julio	2023-08-07T00:00:00	2024-11-08T18:00:00	1	Precipitación	3
104256	7	Sololá	704	Santa Lucía Utatlán 	7	Santa Rita 	7	Julio	2023-08-07T00:00:00	2024-11-08T18:00:00	8	Radiación solar	12
104257	7	Sololá	704	Santa Lucía Utatlán 	7	Santa Rita 	7	Julio	2023-08-07T00:00:00	2024-11-08T19:00:00	2	Temperatura media	18.8
104258	7	Sololá	704	Santa Lucía Utatlán 	7	Santa Rita 	7	Julio	2023-08-07T00:00:00	2024-11-08T19:00:00	4	Temperatura máxima	19.3
104259	7	Sololá	704	Santa Lucía Utatlán 	7	Santa Rita 	7	Julio	2023-08-07T00:00:00	2024-11-08T19:00:00	3	Temperatura mínima	18.8
104260	7	Sololá	704	Santa Lucía Utatlán 	7	Santa Rita 	7	Julio	2023-08-07T00:00:00	2024-11-08T19:00:00	5	Humedad	95
104261	7	Sololá	704	Santa Lucía Utatlán 	7	Santa Rita 	7	Julio	2023-08-07T00:00:00	2024-11-08T19:00:00	6	Velocidad del viento	1.6
104262	7	Sololá	704	Santa Lucía Utatlán 	7	Santa Rita 	7	Julio	2023-08-07T00:00:00	2024-11-08T19:00:00	7	Dirección del viento	1.61
104263	7	Sololá	704	Santa Lucía Utatlán 	7	Santa Rita 	7	Julio	2023-08-07T00:00:00	2024-11-08T19:00:00	1	Precipitación	0.4
104264	7	Sololá	704	Santa Lucía Utatlán 	7	Santa Rita 	7	Julio	2023-08-07T00:00:00	2024-11-08T19:00:00	8	Radiación solar	0
104265	7	Sololá	704	Santa Lucía Utatlán 	7	Santa Rita 	7	Julio	2023-08-07T00:00:00	2024-11-08T20:00:00	2	Temperatura media	18.5
104266	7	Sololá	704	Santa Lucía Utatlán 	7	Santa Rita 	7	Julio	2023-08-07T00:00:00	2024-11-08T20:00:00	4	Temperatura máxima	18.8
104267	7	Sololá	704	Santa Lucía Utatlán 	7	Santa Rita 	7	Julio	2023-08-07T00:00:00	2024-11-08T20:00:00	3	Temperatura mínima	18.5
104268	7	Sololá	704	Santa Lucía Utatlán 	7	Santa Rita 	7	Julio	2023-08-07T00:00:00	2024-11-08T20:00:00	5	Humedad	95
104269	7	Sololá	704	Santa Lucía Utatlán 	7	Santa Rita 	7	Julio	2023-08-07T00:00:00	2024-11-08T20:00:00	6	Velocidad del viento	3.2
104270	7	Sololá	704	Santa Lucía Utatlán 	7	Santa Rita 	7	Julio	2023-08-07T00:00:00	2024-11-08T20:00:00	7	Dirección del viento	3.22
104271	7	Sololá	704	Santa Lucía Utatlán 	7	Santa Rita 	7	Julio	2023-08-07T00:00:00	2024-11-08T20:00:00	1	Precipitación	1.6
104272	7	Sololá	704	Santa Lucía Utatlán 	7	Santa Rita 	7	Julio	2023-08-07T00:00:00	2024-11-08T20:00:00	8	Radiación solar	0
104273	7	Sololá	704	Santa Lucía Utatlán 	7	Santa Rita 	7	Julio	2023-08-07T00:00:00	2024-11-08T21:00:00	2	Temperatura media	18.4
104274	7	Sololá	704	Santa Lucía Utatlán 	7	Santa Rita 	7	Julio	2023-08-07T00:00:00	2024-11-08T21:00:00	4	Temperatura máxima	18.6
104275	7	Sololá	704	Santa Lucía Utatlán 	7	Santa Rita 	7	Julio	2023-08-07T00:00:00	2024-11-08T21:00:00	3	Temperatura mínima	18.4
104276	7	Sololá	704	Santa Lucía Utatlán 	7	Santa Rita 	7	Julio	2023-08-07T00:00:00	2024-11-08T21:00:00	5	Humedad	96
104277	7	Sololá	704	Santa Lucía Utatlán 	7	Santa Rita 	7	Julio	2023-08-07T00:00:00	2024-11-08T21:00:00	6	Velocidad del viento	1.6
104278	7	Sololá	704	Santa Lucía Utatlán 	7	Santa Rita 	7	Julio	2023-08-07T00:00:00	2024-11-08T21:00:00	7	Dirección del viento	1.61
104279	7	Sololá	704	Santa Lucía Utatlán 	7	Santa Rita 	7	Julio	2023-08-07T00:00:00	2024-11-08T21:00:00	1	Precipitación	0.8
104280	7	Sololá	704	Santa Lucía Utatlán 	7	Santa Rita 	7	Julio	2023-08-07T00:00:00	2024-11-08T21:00:00	8	Radiación solar	0
104281	7	Sololá	704	Santa Lucía Utatlán 	7	Santa Rita 	7	Julio	2023-08-07T00:00:00	2024-11-08T22:00:00	2	Temperatura media	17.9
104282	7	Sololá	704	Santa Lucía Utatlán 	7	Santa Rita 	7	Julio	2023-08-07T00:00:00	2024-11-08T22:00:00	4	Temperatura máxima	18.4
104283	7	Sololá	704	Santa Lucía Utatlán 	7	Santa Rita 	7	Julio	2023-08-07T00:00:00	2024-11-08T22:00:00	3	Temperatura mínima	17.9
104284	7	Sololá	704	Santa Lucía Utatlán 	7	Santa Rita 	7	Julio	2023-08-07T00:00:00	2024-11-08T22:00:00	5	Humedad	94
104285	7	Sololá	704	Santa Lucía Utatlán 	7	Santa Rita 	7	Julio	2023-08-07T00:00:00	2024-11-08T22:00:00	6	Velocidad del viento	3.2
104286	7	Sololá	704	Santa Lucía Utatlán 	7	Santa Rita 	7	Julio	2023-08-07T00:00:00	2024-11-08T22:00:00	7	Dirección del viento	3.22
104287	7	Sololá	704	Santa Lucía Utatlán 	7	Santa Rita 	7	Julio	2023-08-07T00:00:00	2024-11-08T22:00:00	1	Precipitación	0
104288	7	Sololá	704	Santa Lucía Utatlán 	7	Santa Rita 	7	Julio	2023-08-07T00:00:00	2024-11-08T22:00:00	8	Radiación solar	0
104289	7	Sololá	704	Santa Lucía Utatlán 	7	Santa Rita 	7	Julio	2023-08-07T00:00:00	2024-11-08T23:00:00	2	Temperatura media	18.2
104290	7	Sololá	704	Santa Lucía Utatlán 	7	Santa Rita 	7	Julio	2023-08-07T00:00:00	2024-11-08T23:00:00	4	Temperatura máxima	18.2
104291	7	Sololá	704	Santa Lucía Utatlán 	7	Santa Rita 	7	Julio	2023-08-07T00:00:00	2024-11-08T23:00:00	3	Temperatura mínima	17.8
104292	7	Sololá	704	Santa Lucía Utatlán 	7	Santa Rita 	7	Julio	2023-08-07T00:00:00	2024-11-08T23:00:00	5	Humedad	96
104293	7	Sololá	704	Santa Lucía Utatlán 	7	Santa Rita 	7	Julio	2023-08-07T00:00:00	2024-11-08T23:00:00	6	Velocidad del viento	1.6
104294	7	Sololá	704	Santa Lucía Utatlán 	7	Santa Rita 	7	Julio	2023-08-07T00:00:00	2024-11-08T23:00:00	7	Dirección del viento	1.61
104295	7	Sololá	704	Santa Lucía Utatlán 	7	Santa Rita 	7	Julio	2023-08-07T00:00:00	2024-11-08T23:00:00	1	Precipitación	0
104296	7	Sololá	704	Santa Lucía Utatlán 	7	Santa Rita 	7	Julio	2023-08-07T00:00:00	2024-11-08T23:00:00	8	Radiación solar	0
104297	7	Sololá	704	Santa Lucía Utatlán 	7	Santa Rita 	7	Julio	2023-09-07T00:00:00	2024-11-08T00:00:00	2	Temperatura media	19.2
104298	7	Sololá	704	Santa Lucía Utatlán 	7	Santa Rita 	7	Julio	2023-09-07T00:00:00	2024-11-08T00:00:00	4	Temperatura máxima	19.2
104299	7	Sololá	704	Santa Lucía Utatlán 	7	Santa Rita 	7	Julio	2023-09-07T00:00:00	2024-11-08T00:00:00	3	Temperatura mínima	18.2
104300	7	Sololá	704	Santa Lucía Utatlán 	7	Santa Rita 	7	Julio	2023-09-07T00:00:00	2024-11-08T00:00:00	5	Humedad	90
104301	7	Sololá	704	Santa Lucía Utatlán 	7	Santa Rita 	7	Julio	2023-09-07T00:00:00	2024-11-08T00:00:00	6	Velocidad del viento	3.2
104302	7	Sololá	704	Santa Lucía Utatlán 	7	Santa Rita 	7	Julio	2023-09-07T00:00:00	2024-11-08T00:00:00	7	Dirección del viento	3.22
104303	7	Sololá	704	Santa Lucía Utatlán 	7	Santa Rita 	7	Julio	2023-09-07T00:00:00	2024-11-08T00:00:00	1	Precipitación	0
104304	7	Sololá	704	Santa Lucía Utatlán 	7	Santa Rita 	7	Julio	2023-09-07T00:00:00	2024-11-08T00:00:00	8	Radiación solar	0
104305	7	Sololá	704	Santa Lucía Utatlán 	7	Santa Rita 	7	Julio	2023-09-07T00:00:00	2024-11-08T01:00:00	2	Temperatura media	18.9
104306	7	Sololá	704	Santa Lucía Utatlán 	7	Santa Rita 	7	Julio	2023-09-07T00:00:00	2024-11-08T01:00:00	4	Temperatura máxima	19.2
104307	7	Sololá	704	Santa Lucía Utatlán 	7	Santa Rita 	7	Julio	2023-09-07T00:00:00	2024-11-08T01:00:00	3	Temperatura mínima	18.9
104308	7	Sololá	704	Santa Lucía Utatlán 	7	Santa Rita 	7	Julio	2023-09-07T00:00:00	2024-11-08T01:00:00	5	Humedad	91
104309	7	Sololá	704	Santa Lucía Utatlán 	7	Santa Rita 	7	Julio	2023-09-07T00:00:00	2024-11-08T01:00:00	6	Velocidad del viento	3.2
104310	7	Sololá	704	Santa Lucía Utatlán 	7	Santa Rita 	7	Julio	2023-09-07T00:00:00	2024-11-08T01:00:00	7	Dirección del viento	3.22
104311	7	Sololá	704	Santa Lucía Utatlán 	7	Santa Rita 	7	Julio	2023-09-07T00:00:00	2024-11-08T01:00:00	1	Precipitación	0
104312	7	Sololá	704	Santa Lucía Utatlán 	7	Santa Rita 	7	Julio	2023-09-07T00:00:00	2024-11-08T01:00:00	8	Radiación solar	0
104313	7	Sololá	704	Santa Lucía Utatlán 	7	Santa Rita 	7	Julio	2023-09-07T00:00:00	2024-11-08T02:00:00	2	Temperatura media	18.8
104314	7	Sololá	704	Santa Lucía Utatlán 	7	Santa Rita 	7	Julio	2023-09-07T00:00:00	2024-11-08T02:00:00	4	Temperatura máxima	19
104315	7	Sololá	704	Santa Lucía Utatlán 	7	Santa Rita 	7	Julio	2023-09-07T00:00:00	2024-11-08T02:00:00	3	Temperatura mínima	18.8
104316	7	Sololá	704	Santa Lucía Utatlán 	7	Santa Rita 	7	Julio	2023-09-07T00:00:00	2024-11-08T02:00:00	5	Humedad	91
104317	7	Sololá	704	Santa Lucía Utatlán 	7	Santa Rita 	7	Julio	2023-09-07T00:00:00	2024-11-08T02:00:00	6	Velocidad del viento	3.2
104318	7	Sololá	704	Santa Lucía Utatlán 	7	Santa Rita 	7	Julio	2023-09-07T00:00:00	2024-11-08T02:00:00	7	Dirección del viento	3.22
104319	7	Sololá	704	Santa Lucía Utatlán 	7	Santa Rita 	7	Julio	2023-09-07T00:00:00	2024-11-08T02:00:00	1	Precipitación	0
104320	7	Sololá	704	Santa Lucía Utatlán 	7	Santa Rita 	7	Julio	2023-09-07T00:00:00	2024-11-08T02:00:00	8	Radiación solar	0
104321	7	Sololá	704	Santa Lucía Utatlán 	7	Santa Rita 	7	Julio	2023-09-07T00:00:00	2024-11-08T03:00:00	2	Temperatura media	18.4
104322	7	Sololá	704	Santa Lucía Utatlán 	7	Santa Rita 	7	Julio	2023-09-07T00:00:00	2024-11-08T03:00:00	4	Temperatura máxima	19.1
104323	7	Sololá	704	Santa Lucía Utatlán 	7	Santa Rita 	7	Julio	2023-09-07T00:00:00	2024-11-08T03:00:00	3	Temperatura mínima	18.3
104324	7	Sololá	704	Santa Lucía Utatlán 	7	Santa Rita 	7	Julio	2023-09-07T00:00:00	2024-11-08T03:00:00	5	Humedad	93
104325	7	Sololá	704	Santa Lucía Utatlán 	7	Santa Rita 	7	Julio	2023-09-07T00:00:00	2024-11-08T03:00:00	6	Velocidad del viento	3.2
104326	7	Sololá	704	Santa Lucía Utatlán 	7	Santa Rita 	7	Julio	2023-09-07T00:00:00	2024-11-08T03:00:00	7	Dirección del viento	3.22
104327	7	Sololá	704	Santa Lucía Utatlán 	7	Santa Rita 	7	Julio	2023-09-07T00:00:00	2024-11-08T03:00:00	1	Precipitación	0
104328	7	Sololá	704	Santa Lucía Utatlán 	7	Santa Rita 	7	Julio	2023-09-07T00:00:00	2024-11-08T03:00:00	8	Radiación solar	0
104329	7	Sololá	704	Santa Lucía Utatlán 	7	Santa Rita 	7	Julio	2023-09-07T00:00:00	2024-11-08T04:00:00	2	Temperatura media	19.1
104330	7	Sololá	704	Santa Lucía Utatlán 	7	Santa Rita 	7	Julio	2023-09-07T00:00:00	2024-11-08T04:00:00	4	Temperatura máxima	19.2
104331	7	Sololá	704	Santa Lucía Utatlán 	7	Santa Rita 	7	Julio	2023-09-07T00:00:00	2024-11-08T04:00:00	3	Temperatura mínima	18.4
104332	7	Sololá	704	Santa Lucía Utatlán 	7	Santa Rita 	7	Julio	2023-09-07T00:00:00	2024-11-08T04:00:00	5	Humedad	88
104333	7	Sololá	704	Santa Lucía Utatlán 	7	Santa Rita 	7	Julio	2023-09-07T00:00:00	2024-11-08T04:00:00	6	Velocidad del viento	3.2
104334	7	Sololá	704	Santa Lucía Utatlán 	7	Santa Rita 	7	Julio	2023-09-07T00:00:00	2024-11-08T04:00:00	7	Dirección del viento	3.22
104335	7	Sololá	704	Santa Lucía Utatlán 	7	Santa Rita 	7	Julio	2023-09-07T00:00:00	2024-11-08T04:00:00	1	Precipitación	0
104336	7	Sololá	704	Santa Lucía Utatlán 	7	Santa Rita 	7	Julio	2023-09-07T00:00:00	2024-11-08T04:00:00	8	Radiación solar	0
104337	7	Sololá	704	Santa Lucía Utatlán 	7	Santa Rita 	7	Julio	2023-09-07T00:00:00	2024-11-08T05:00:00	2	Temperatura media	18.1
104338	7	Sololá	704	Santa Lucía Utatlán 	7	Santa Rita 	7	Julio	2023-09-07T00:00:00	2024-11-08T05:00:00	4	Temperatura máxima	19.1
104339	7	Sololá	704	Santa Lucía Utatlán 	7	Santa Rita 	7	Julio	2023-09-07T00:00:00	2024-11-08T05:00:00	3	Temperatura mínima	18.1
104340	7	Sololá	704	Santa Lucía Utatlán 	7	Santa Rita 	7	Julio	2023-09-07T00:00:00	2024-11-08T05:00:00	5	Humedad	90
104341	7	Sololá	704	Santa Lucía Utatlán 	7	Santa Rita 	7	Julio	2023-09-07T00:00:00	2024-11-08T05:00:00	6	Velocidad del viento	3.2
104342	7	Sololá	704	Santa Lucía Utatlán 	7	Santa Rita 	7	Julio	2023-09-07T00:00:00	2024-11-08T05:00:00	7	Dirección del viento	3.22
104343	7	Sololá	704	Santa Lucía Utatlán 	7	Santa Rita 	7	Julio	2023-09-07T00:00:00	2024-11-08T05:00:00	1	Precipitación	0
104344	7	Sololá	704	Santa Lucía Utatlán 	7	Santa Rita 	7	Julio	2023-09-07T00:00:00	2024-11-08T05:00:00	8	Radiación solar	0
104345	7	Sololá	704	Santa Lucía Utatlán 	7	Santa Rita 	7	Julio	2023-09-07T00:00:00	2024-11-08T06:00:00	2	Temperatura media	17.7
104346	7	Sololá	704	Santa Lucía Utatlán 	7	Santa Rita 	7	Julio	2023-09-07T00:00:00	2024-11-08T06:00:00	4	Temperatura máxima	18.1
104347	7	Sololá	704	Santa Lucía Utatlán 	7	Santa Rita 	7	Julio	2023-09-07T00:00:00	2024-11-08T06:00:00	3	Temperatura mínima	17.4
104348	7	Sololá	704	Santa Lucía Utatlán 	7	Santa Rita 	7	Julio	2023-09-07T00:00:00	2024-11-08T06:00:00	5	Humedad	91
104349	7	Sololá	704	Santa Lucía Utatlán 	7	Santa Rita 	7	Julio	2023-09-07T00:00:00	2024-11-08T06:00:00	6	Velocidad del viento	1.6
104350	7	Sololá	704	Santa Lucía Utatlán 	7	Santa Rita 	7	Julio	2023-09-07T00:00:00	2024-11-08T06:00:00	7	Dirección del viento	1.61
104351	7	Sololá	704	Santa Lucía Utatlán 	7	Santa Rita 	7	Julio	2023-09-07T00:00:00	2024-11-08T06:00:00	1	Precipitación	0
104352	7	Sololá	704	Santa Lucía Utatlán 	7	Santa Rita 	7	Julio	2023-09-07T00:00:00	2024-11-08T06:00:00	8	Radiación solar	4
104353	7	Sololá	704	Santa Lucía Utatlán 	7	Santa Rita 	7	Julio	2023-09-07T00:00:00	2024-11-08T07:00:00	2	Temperatura media	18.9
104354	7	Sololá	704	Santa Lucía Utatlán 	7	Santa Rita 	7	Julio	2023-09-07T00:00:00	2024-11-08T07:00:00	4	Temperatura máxima	18.9
104355	7	Sololá	704	Santa Lucía Utatlán 	7	Santa Rita 	7	Julio	2023-09-07T00:00:00	2024-11-08T07:00:00	3	Temperatura mínima	17.7
104356	7	Sololá	704	Santa Lucía Utatlán 	7	Santa Rita 	7	Julio	2023-09-07T00:00:00	2024-11-08T07:00:00	5	Humedad	89
104357	7	Sololá	704	Santa Lucía Utatlán 	7	Santa Rita 	7	Julio	2023-09-07T00:00:00	2024-11-08T07:00:00	6	Velocidad del viento	3.2
104358	7	Sololá	704	Santa Lucía Utatlán 	7	Santa Rita 	7	Julio	2023-09-07T00:00:00	2024-11-08T07:00:00	7	Dirección del viento	3.22
104359	7	Sololá	704	Santa Lucía Utatlán 	7	Santa Rita 	7	Julio	2023-09-07T00:00:00	2024-11-08T07:00:00	1	Precipitación	0
104360	7	Sololá	704	Santa Lucía Utatlán 	7	Santa Rita 	7	Julio	2023-09-07T00:00:00	2024-11-08T07:00:00	8	Radiación solar	55
104361	7	Sololá	704	Santa Lucía Utatlán 	7	Santa Rita 	7	Julio	2023-09-07T00:00:00	2024-11-08T08:00:00	2	Temperatura media	21.8
104362	7	Sololá	704	Santa Lucía Utatlán 	7	Santa Rita 	7	Julio	2023-09-07T00:00:00	2024-11-08T08:00:00	4	Temperatura máxima	21.8
104363	7	Sololá	704	Santa Lucía Utatlán 	7	Santa Rita 	7	Julio	2023-09-07T00:00:00	2024-11-08T08:00:00	3	Temperatura mínima	18.8
104364	7	Sololá	704	Santa Lucía Utatlán 	7	Santa Rita 	7	Julio	2023-09-07T00:00:00	2024-11-08T08:00:00	5	Humedad	78
104365	7	Sololá	704	Santa Lucía Utatlán 	7	Santa Rita 	7	Julio	2023-09-07T00:00:00	2024-11-08T08:00:00	6	Velocidad del viento	1.6
104366	7	Sololá	704	Santa Lucía Utatlán 	7	Santa Rita 	7	Julio	2023-09-07T00:00:00	2024-11-08T08:00:00	7	Dirección del viento	1.61
104367	7	Sololá	704	Santa Lucía Utatlán 	7	Santa Rita 	7	Julio	2023-09-07T00:00:00	2024-11-08T08:00:00	1	Precipitación	0
104368	7	Sololá	704	Santa Lucía Utatlán 	7	Santa Rita 	7	Julio	2023-09-07T00:00:00	2024-11-08T08:00:00	8	Radiación solar	272
104369	7	Sololá	704	Santa Lucía Utatlán 	7	Santa Rita 	7	Julio	2023-09-07T00:00:00	2024-11-08T09:00:00	2	Temperatura media	21.7
104370	7	Sololá	704	Santa Lucía Utatlán 	7	Santa Rita 	7	Julio	2023-09-07T00:00:00	2024-11-08T09:00:00	4	Temperatura máxima	22.7
104371	7	Sololá	704	Santa Lucía Utatlán 	7	Santa Rita 	7	Julio	2023-09-07T00:00:00	2024-11-08T09:00:00	3	Temperatura mínima	21.7
104372	7	Sololá	704	Santa Lucía Utatlán 	7	Santa Rita 	7	Julio	2023-09-07T00:00:00	2024-11-08T09:00:00	5	Humedad	81
104373	7	Sololá	704	Santa Lucía Utatlán 	7	Santa Rita 	7	Julio	2023-09-07T00:00:00	2024-11-08T09:00:00	6	Velocidad del viento	4.8
104374	7	Sololá	704	Santa Lucía Utatlán 	7	Santa Rita 	7	Julio	2023-09-07T00:00:00	2024-11-08T09:00:00	7	Dirección del viento	4.83
104375	7	Sololá	704	Santa Lucía Utatlán 	7	Santa Rita 	7	Julio	2023-09-07T00:00:00	2024-11-08T09:00:00	1	Precipitación	0
104376	7	Sololá	704	Santa Lucía Utatlán 	7	Santa Rita 	7	Julio	2023-09-07T00:00:00	2024-11-08T09:00:00	8	Radiación solar	472
104377	7	Sololá	704	Santa Lucía Utatlán 	7	Santa Rita 	7	Julio	2023-09-07T00:00:00	2024-11-08T10:00:00	2	Temperatura media	22.3
104378	7	Sololá	704	Santa Lucía Utatlán 	7	Santa Rita 	7	Julio	2023-09-07T00:00:00	2024-11-08T10:00:00	4	Temperatura máxima	23.1
104379	7	Sololá	704	Santa Lucía Utatlán 	7	Santa Rita 	7	Julio	2023-09-07T00:00:00	2024-11-08T10:00:00	3	Temperatura mínima	21.2
104380	7	Sololá	704	Santa Lucía Utatlán 	7	Santa Rita 	7	Julio	2023-09-07T00:00:00	2024-11-08T10:00:00	5	Humedad	79
104381	7	Sololá	704	Santa Lucía Utatlán 	7	Santa Rita 	7	Julio	2023-09-07T00:00:00	2024-11-08T10:00:00	6	Velocidad del viento	6.4
104382	7	Sololá	704	Santa Lucía Utatlán 	7	Santa Rita 	7	Julio	2023-09-07T00:00:00	2024-11-08T10:00:00	7	Dirección del viento	6.44
104383	7	Sololá	704	Santa Lucía Utatlán 	7	Santa Rita 	7	Julio	2023-09-07T00:00:00	2024-11-08T10:00:00	1	Precipitación	0
104384	7	Sololá	704	Santa Lucía Utatlán 	7	Santa Rita 	7	Julio	2023-09-07T00:00:00	2024-11-08T10:00:00	8	Radiación solar	449
104385	7	Sololá	704	Santa Lucía Utatlán 	7	Santa Rita 	7	Julio	2023-09-07T00:00:00	2024-11-08T11:00:00	2	Temperatura media	21.6
104386	7	Sololá	704	Santa Lucía Utatlán 	7	Santa Rita 	7	Julio	2023-09-07T00:00:00	2024-11-08T11:00:00	4	Temperatura máxima	22.3
104387	7	Sololá	704	Santa Lucía Utatlán 	7	Santa Rita 	7	Julio	2023-09-07T00:00:00	2024-11-08T11:00:00	3	Temperatura mínima	21.6
104388	7	Sololá	704	Santa Lucía Utatlán 	7	Santa Rita 	7	Julio	2023-09-07T00:00:00	2024-11-08T11:00:00	5	Humedad	82
104389	7	Sololá	704	Santa Lucía Utatlán 	7	Santa Rita 	7	Julio	2023-09-07T00:00:00	2024-11-08T11:00:00	6	Velocidad del viento	8
104390	7	Sololá	704	Santa Lucía Utatlán 	7	Santa Rita 	7	Julio	2023-09-07T00:00:00	2024-11-08T11:00:00	7	Dirección del viento	8.05
104391	7	Sololá	704	Santa Lucía Utatlán 	7	Santa Rita 	7	Julio	2023-09-07T00:00:00	2024-11-08T11:00:00	1	Precipitación	0
104392	7	Sololá	704	Santa Lucía Utatlán 	7	Santa Rita 	7	Julio	2023-09-07T00:00:00	2024-11-08T11:00:00	8	Radiación solar	205
104393	7	Sololá	704	Santa Lucía Utatlán 	7	Santa Rita 	7	Julio	2023-09-07T00:00:00	2024-11-08T12:00:00	2	Temperatura media	23
104394	7	Sololá	704	Santa Lucía Utatlán 	7	Santa Rita 	7	Julio	2023-09-07T00:00:00	2024-11-08T12:00:00	4	Temperatura máxima	23
104395	7	Sololá	704	Santa Lucía Utatlán 	7	Santa Rita 	7	Julio	2023-09-07T00:00:00	2024-11-08T12:00:00	3	Temperatura mínima	21.3
104396	7	Sololá	704	Santa Lucía Utatlán 	7	Santa Rita 	7	Julio	2023-09-07T00:00:00	2024-11-08T12:00:00	5	Humedad	77
104397	7	Sololá	704	Santa Lucía Utatlán 	7	Santa Rita 	7	Julio	2023-09-07T00:00:00	2024-11-08T12:00:00	6	Velocidad del viento	4.8
104398	7	Sololá	704	Santa Lucía Utatlán 	7	Santa Rita 	7	Julio	2023-09-07T00:00:00	2024-11-08T12:00:00	7	Dirección del viento	4.83
104399	7	Sololá	704	Santa Lucía Utatlán 	7	Santa Rita 	7	Julio	2023-09-07T00:00:00	2024-11-08T12:00:00	1	Precipitación	0
104400	7	Sololá	704	Santa Lucía Utatlán 	7	Santa Rita 	7	Julio	2023-09-07T00:00:00	2024-11-08T12:00:00	8	Radiación solar	359
104401	7	Sololá	704	Santa Lucía Utatlán 	7	Santa Rita 	7	Julio	2023-09-07T00:00:00	2024-11-08T13:00:00	2	Temperatura media	24.5
104402	7	Sololá	704	Santa Lucía Utatlán 	7	Santa Rita 	7	Julio	2023-09-07T00:00:00	2024-11-08T13:00:00	4	Temperatura máxima	24.5
104403	7	Sololá	704	Santa Lucía Utatlán 	7	Santa Rita 	7	Julio	2023-09-07T00:00:00	2024-11-08T13:00:00	3	Temperatura mínima	23
104404	7	Sololá	704	Santa Lucía Utatlán 	7	Santa Rita 	7	Julio	2023-09-07T00:00:00	2024-11-08T13:00:00	5	Humedad	71
104405	7	Sololá	704	Santa Lucía Utatlán 	7	Santa Rita 	7	Julio	2023-09-07T00:00:00	2024-11-08T13:00:00	6	Velocidad del viento	4.8
104406	7	Sololá	704	Santa Lucía Utatlán 	7	Santa Rita 	7	Julio	2023-09-07T00:00:00	2024-11-08T13:00:00	7	Dirección del viento	4.83
104407	7	Sololá	704	Santa Lucía Utatlán 	7	Santa Rita 	7	Julio	2023-09-07T00:00:00	2024-11-08T13:00:00	1	Precipitación	0
104408	7	Sololá	704	Santa Lucía Utatlán 	7	Santa Rita 	7	Julio	2023-09-07T00:00:00	2024-11-08T13:00:00	8	Radiación solar	573
104409	7	Sololá	704	Santa Lucía Utatlán 	7	Santa Rita 	7	Julio	2023-09-07T00:00:00	2024-11-08T14:00:00	2	Temperatura media	23.3
104410	7	Sololá	704	Santa Lucía Utatlán 	7	Santa Rita 	7	Julio	2023-09-07T00:00:00	2024-11-08T14:00:00	4	Temperatura máxima	24.8
104411	7	Sololá	704	Santa Lucía Utatlán 	7	Santa Rita 	7	Julio	2023-09-07T00:00:00	2024-11-08T14:00:00	3	Temperatura mínima	23.3
104412	7	Sololá	704	Santa Lucía Utatlán 	7	Santa Rita 	7	Julio	2023-09-07T00:00:00	2024-11-08T14:00:00	5	Humedad	78
104413	7	Sololá	704	Santa Lucía Utatlán 	7	Santa Rita 	7	Julio	2023-09-07T00:00:00	2024-11-08T14:00:00	6	Velocidad del viento	4.8
104414	7	Sololá	704	Santa Lucía Utatlán 	7	Santa Rita 	7	Julio	2023-09-07T00:00:00	2024-11-08T14:00:00	7	Dirección del viento	4.83
104415	7	Sololá	704	Santa Lucía Utatlán 	7	Santa Rita 	7	Julio	2023-09-07T00:00:00	2024-11-08T14:00:00	1	Precipitación	0
104416	7	Sololá	704	Santa Lucía Utatlán 	7	Santa Rita 	7	Julio	2023-09-07T00:00:00	2024-11-08T14:00:00	8	Radiación solar	381
104417	7	Sololá	704	Santa Lucía Utatlán 	7	Santa Rita 	7	Julio	2023-09-07T00:00:00	2024-11-08T15:00:00	2	Temperatura media	23
104418	7	Sololá	704	Santa Lucía Utatlán 	7	Santa Rita 	7	Julio	2023-09-07T00:00:00	2024-11-08T15:00:00	4	Temperatura máxima	23.8
104419	7	Sololá	704	Santa Lucía Utatlán 	7	Santa Rita 	7	Julio	2023-09-07T00:00:00	2024-11-08T15:00:00	3	Temperatura mínima	23
104420	7	Sololá	704	Santa Lucía Utatlán 	7	Santa Rita 	7	Julio	2023-09-07T00:00:00	2024-11-08T15:00:00	5	Humedad	77
104421	7	Sololá	704	Santa Lucía Utatlán 	7	Santa Rita 	7	Julio	2023-09-07T00:00:00	2024-11-08T15:00:00	6	Velocidad del viento	8
104422	7	Sololá	704	Santa Lucía Utatlán 	7	Santa Rita 	7	Julio	2023-09-07T00:00:00	2024-11-08T15:00:00	7	Dirección del viento	8.05
104423	7	Sololá	704	Santa Lucía Utatlán 	7	Santa Rita 	7	Julio	2023-09-07T00:00:00	2024-11-08T15:00:00	1	Precipitación	0
104424	7	Sololá	704	Santa Lucía Utatlán 	7	Santa Rita 	7	Julio	2023-09-07T00:00:00	2024-11-08T15:00:00	8	Radiación solar	291
104425	7	Sololá	704	Santa Lucía Utatlán 	7	Santa Rita 	7	Julio	2023-09-07T00:00:00	2024-11-08T16:00:00	2	Temperatura media	20.2
104426	7	Sololá	704	Santa Lucía Utatlán 	7	Santa Rita 	7	Julio	2023-09-07T00:00:00	2024-11-08T16:00:00	4	Temperatura máxima	23
104427	7	Sololá	704	Santa Lucía Utatlán 	7	Santa Rita 	7	Julio	2023-09-07T00:00:00	2024-11-08T16:00:00	3	Temperatura mínima	20
104428	7	Sololá	704	Santa Lucía Utatlán 	7	Santa Rita 	7	Julio	2023-09-07T00:00:00	2024-11-08T16:00:00	5	Humedad	92
104429	7	Sololá	704	Santa Lucía Utatlán 	7	Santa Rita 	7	Julio	2023-09-07T00:00:00	2024-11-08T16:00:00	6	Velocidad del viento	4.8
104430	7	Sololá	704	Santa Lucía Utatlán 	7	Santa Rita 	7	Julio	2023-09-07T00:00:00	2024-11-08T16:00:00	7	Dirección del viento	4.83
104431	7	Sololá	704	Santa Lucía Utatlán 	7	Santa Rita 	7	Julio	2023-09-07T00:00:00	2024-11-08T16:00:00	1	Precipitación	12.6
104432	7	Sololá	704	Santa Lucía Utatlán 	7	Santa Rita 	7	Julio	2023-09-07T00:00:00	2024-11-08T16:00:00	8	Radiación solar	48
104433	7	Sololá	704	Santa Lucía Utatlán 	7	Santa Rita 	7	Julio	2023-09-07T00:00:00	2024-11-08T17:00:00	2	Temperatura media	20.6
104434	7	Sololá	704	Santa Lucía Utatlán 	7	Santa Rita 	7	Julio	2023-09-07T00:00:00	2024-11-08T17:00:00	4	Temperatura máxima	20.7
104435	7	Sololá	704	Santa Lucía Utatlán 	7	Santa Rita 	7	Julio	2023-09-07T00:00:00	2024-11-08T17:00:00	3	Temperatura mínima	20.2
104436	7	Sololá	704	Santa Lucía Utatlán 	7	Santa Rita 	7	Julio	2023-09-07T00:00:00	2024-11-08T17:00:00	5	Humedad	91
104437	7	Sololá	704	Santa Lucía Utatlán 	7	Santa Rita 	7	Julio	2023-09-07T00:00:00	2024-11-08T17:00:00	6	Velocidad del viento	3.2
104438	7	Sololá	704	Santa Lucía Utatlán 	7	Santa Rita 	7	Julio	2023-09-07T00:00:00	2024-11-08T17:00:00	7	Dirección del viento	3.22
104439	7	Sololá	704	Santa Lucía Utatlán 	7	Santa Rita 	7	Julio	2023-09-07T00:00:00	2024-11-08T17:00:00	1	Precipitación	0.8
104440	7	Sololá	704	Santa Lucía Utatlán 	7	Santa Rita 	7	Julio	2023-09-07T00:00:00	2024-11-08T17:00:00	8	Radiación solar	139
104441	7	Sololá	704	Santa Lucía Utatlán 	7	Santa Rita 	7	Julio	2023-09-07T00:00:00	2024-11-08T18:00:00	2	Temperatura media	19.8
104442	7	Sololá	704	Santa Lucía Utatlán 	7	Santa Rita 	7	Julio	2023-09-07T00:00:00	2024-11-08T18:00:00	4	Temperatura máxima	20.7
104443	7	Sololá	704	Santa Lucía Utatlán 	7	Santa Rita 	7	Julio	2023-09-07T00:00:00	2024-11-08T18:00:00	3	Temperatura mínima	19.8
104444	7	Sololá	704	Santa Lucía Utatlán 	7	Santa Rita 	7	Julio	2023-09-07T00:00:00	2024-11-08T18:00:00	5	Humedad	91
104445	7	Sololá	704	Santa Lucía Utatlán 	7	Santa Rita 	7	Julio	2023-09-07T00:00:00	2024-11-08T18:00:00	6	Velocidad del viento	3.2
104446	7	Sololá	704	Santa Lucía Utatlán 	7	Santa Rita 	7	Julio	2023-09-07T00:00:00	2024-11-08T18:00:00	7	Dirección del viento	3.22
104447	7	Sololá	704	Santa Lucía Utatlán 	7	Santa Rita 	7	Julio	2023-09-07T00:00:00	2024-11-08T18:00:00	1	Precipitación	0
104448	7	Sololá	704	Santa Lucía Utatlán 	7	Santa Rita 	7	Julio	2023-09-07T00:00:00	2024-11-08T18:00:00	8	Radiación solar	66
104449	7	Sololá	704	Santa Lucía Utatlán 	7	Santa Rita 	7	Julio	2023-09-07T00:00:00	2024-11-08T19:00:00	2	Temperatura media	18.9
104450	7	Sololá	704	Santa Lucía Utatlán 	7	Santa Rita 	7	Julio	2023-09-07T00:00:00	2024-11-08T19:00:00	4	Temperatura máxima	19.8
104451	7	Sololá	704	Santa Lucía Utatlán 	7	Santa Rita 	7	Julio	2023-09-07T00:00:00	2024-11-08T19:00:00	3	Temperatura mínima	18.9
104452	7	Sololá	704	Santa Lucía Utatlán 	7	Santa Rita 	7	Julio	2023-09-07T00:00:00	2024-11-08T19:00:00	5	Humedad	90
104453	7	Sololá	704	Santa Lucía Utatlán 	7	Santa Rita 	7	Julio	2023-09-07T00:00:00	2024-11-08T19:00:00	6	Velocidad del viento	3.2
104454	7	Sololá	704	Santa Lucía Utatlán 	7	Santa Rita 	7	Julio	2023-09-07T00:00:00	2024-11-08T19:00:00	7	Dirección del viento	3.22
104455	7	Sololá	704	Santa Lucía Utatlán 	7	Santa Rita 	7	Julio	2023-09-07T00:00:00	2024-11-08T19:00:00	1	Precipitación	0
104456	7	Sololá	704	Santa Lucía Utatlán 	7	Santa Rita 	7	Julio	2023-09-07T00:00:00	2024-11-08T19:00:00	8	Radiación solar	0
104457	7	Sololá	704	Santa Lucía Utatlán 	7	Santa Rita 	7	Julio	2023-09-07T00:00:00	2024-11-08T20:00:00	2	Temperatura media	18.1
104458	7	Sololá	704	Santa Lucía Utatlán 	7	Santa Rita 	7	Julio	2023-09-07T00:00:00	2024-11-08T20:00:00	4	Temperatura máxima	18.9
104459	7	Sololá	704	Santa Lucía Utatlán 	7	Santa Rita 	7	Julio	2023-09-07T00:00:00	2024-11-08T20:00:00	3	Temperatura mínima	18.1
104460	7	Sololá	704	Santa Lucía Utatlán 	7	Santa Rita 	7	Julio	2023-09-07T00:00:00	2024-11-08T20:00:00	5	Humedad	92
104461	7	Sololá	704	Santa Lucía Utatlán 	7	Santa Rita 	7	Julio	2023-09-07T00:00:00	2024-11-08T20:00:00	6	Velocidad del viento	4.8
104462	7	Sololá	704	Santa Lucía Utatlán 	7	Santa Rita 	7	Julio	2023-09-07T00:00:00	2024-11-08T20:00:00	7	Dirección del viento	4.83
104463	7	Sololá	704	Santa Lucía Utatlán 	7	Santa Rita 	7	Julio	2023-09-07T00:00:00	2024-11-08T20:00:00	1	Precipitación	0
104464	7	Sololá	704	Santa Lucía Utatlán 	7	Santa Rita 	7	Julio	2023-09-07T00:00:00	2024-11-08T20:00:00	8	Radiación solar	0
104465	7	Sololá	704	Santa Lucía Utatlán 	7	Santa Rita 	7	Julio	2023-09-07T00:00:00	2024-11-08T21:00:00	2	Temperatura media	18.1
104466	7	Sololá	704	Santa Lucía Utatlán 	7	Santa Rita 	7	Julio	2023-09-07T00:00:00	2024-11-08T21:00:00	4	Temperatura máxima	18.1
104467	7	Sololá	704	Santa Lucía Utatlán 	7	Santa Rita 	7	Julio	2023-09-07T00:00:00	2024-11-08T21:00:00	3	Temperatura mínima	18
104468	7	Sololá	704	Santa Lucía Utatlán 	7	Santa Rita 	7	Julio	2023-09-07T00:00:00	2024-11-08T21:00:00	5	Humedad	92
104469	7	Sololá	704	Santa Lucía Utatlán 	7	Santa Rita 	7	Julio	2023-09-07T00:00:00	2024-11-08T21:00:00	6	Velocidad del viento	4.8
104470	7	Sololá	704	Santa Lucía Utatlán 	7	Santa Rita 	7	Julio	2023-09-07T00:00:00	2024-11-08T21:00:00	7	Dirección del viento	4.83
104471	7	Sololá	704	Santa Lucía Utatlán 	7	Santa Rita 	7	Julio	2023-09-07T00:00:00	2024-11-08T21:00:00	1	Precipitación	0
104472	7	Sololá	704	Santa Lucía Utatlán 	7	Santa Rita 	7	Julio	2023-09-07T00:00:00	2024-11-08T21:00:00	8	Radiación solar	0
104473	7	Sololá	704	Santa Lucía Utatlán 	7	Santa Rita 	7	Julio	2023-09-07T00:00:00	2024-11-08T22:00:00	2	Temperatura media	17.9
104474	7	Sololá	704	Santa Lucía Utatlán 	7	Santa Rita 	7	Julio	2023-09-07T00:00:00	2024-11-08T22:00:00	4	Temperatura máxima	18.2
104475	7	Sololá	704	Santa Lucía Utatlán 	7	Santa Rita 	7	Julio	2023-09-07T00:00:00	2024-11-08T22:00:00	3	Temperatura mínima	17.7
104476	7	Sololá	704	Santa Lucía Utatlán 	7	Santa Rita 	7	Julio	2023-09-07T00:00:00	2024-11-08T22:00:00	5	Humedad	93
104477	7	Sololá	704	Santa Lucía Utatlán 	7	Santa Rita 	7	Julio	2023-09-07T00:00:00	2024-11-08T22:00:00	6	Velocidad del viento	3.2
104478	7	Sololá	704	Santa Lucía Utatlán 	7	Santa Rita 	7	Julio	2023-09-07T00:00:00	2024-11-08T22:00:00	7	Dirección del viento	3.22
104479	7	Sololá	704	Santa Lucía Utatlán 	7	Santa Rita 	7	Julio	2023-09-07T00:00:00	2024-11-08T22:00:00	1	Precipitación	0
104480	7	Sololá	704	Santa Lucía Utatlán 	7	Santa Rita 	7	Julio	2023-09-07T00:00:00	2024-11-08T22:00:00	8	Radiación solar	0
104481	7	Sololá	704	Santa Lucía Utatlán 	7	Santa Rita 	7	Julio	2023-09-07T00:00:00	2024-11-08T23:00:00	2	Temperatura media	17.7
104482	7	Sololá	704	Santa Lucía Utatlán 	7	Santa Rita 	7	Julio	2023-09-07T00:00:00	2024-11-08T23:00:00	4	Temperatura máxima	18.1
104483	7	Sololá	704	Santa Lucía Utatlán 	7	Santa Rita 	7	Julio	2023-09-07T00:00:00	2024-11-08T23:00:00	3	Temperatura mínima	17.7
104484	7	Sololá	704	Santa Lucía Utatlán 	7	Santa Rita 	7	Julio	2023-09-07T00:00:00	2024-11-08T23:00:00	5	Humedad	95
104485	7	Sololá	704	Santa Lucía Utatlán 	7	Santa Rita 	7	Julio	2023-09-07T00:00:00	2024-11-08T23:00:00	6	Velocidad del viento	3.2
104486	7	Sololá	704	Santa Lucía Utatlán 	7	Santa Rita 	7	Julio	2023-09-07T00:00:00	2024-11-08T23:00:00	7	Dirección del viento	3.22
104487	7	Sololá	704	Santa Lucía Utatlán 	7	Santa Rita 	7	Julio	2023-09-07T00:00:00	2024-11-08T23:00:00	1	Precipitación	0
104488	7	Sololá	704	Santa Lucía Utatlán 	7	Santa Rita 	7	Julio	2023-09-07T00:00:00	2024-11-08T23:00:00	8	Radiación solar	0
104489	7	Sololá	704	Santa Lucía Utatlán 	7	Santa Rita 	7	Julio	2023-10-07T00:00:00	2024-11-08T00:00:00	2	Temperatura media	18.3
104490	7	Sololá	704	Santa Lucía Utatlán 	7	Santa Rita 	7	Julio	2023-10-07T00:00:00	2024-11-08T00:00:00	4	Temperatura máxima	18.3
104491	7	Sololá	704	Santa Lucía Utatlán 	7	Santa Rita 	7	Julio	2023-10-07T00:00:00	2024-11-08T00:00:00	3	Temperatura mínima	17.5
104492	7	Sololá	704	Santa Lucía Utatlán 	7	Santa Rita 	7	Julio	2023-10-07T00:00:00	2024-11-08T00:00:00	5	Humedad	91
104493	7	Sololá	704	Santa Lucía Utatlán 	7	Santa Rita 	7	Julio	2023-10-07T00:00:00	2024-11-08T00:00:00	6	Velocidad del viento	3.2
104494	7	Sololá	704	Santa Lucía Utatlán 	7	Santa Rita 	7	Julio	2023-10-07T00:00:00	2024-11-08T00:00:00	7	Dirección del viento	3.22
104495	7	Sololá	704	Santa Lucía Utatlán 	7	Santa Rita 	7	Julio	2023-10-07T00:00:00	2024-11-08T00:00:00	1	Precipitación	0
104496	7	Sololá	704	Santa Lucía Utatlán 	7	Santa Rita 	7	Julio	2023-10-07T00:00:00	2024-11-08T00:00:00	8	Radiación solar	0
104497	7	Sololá	704	Santa Lucía Utatlán 	7	Santa Rita 	7	Julio	2023-10-07T00:00:00	2024-11-08T01:00:00	2	Temperatura media	17.9
104498	7	Sololá	704	Santa Lucía Utatlán 	7	Santa Rita 	7	Julio	2023-10-07T00:00:00	2024-11-08T01:00:00	4	Temperatura máxima	19.7
104499	7	Sololá	704	Santa Lucía Utatlán 	7	Santa Rita 	7	Julio	2023-10-07T00:00:00	2024-11-08T01:00:00	3	Temperatura mínima	17.9
104500	7	Sololá	704	Santa Lucía Utatlán 	7	Santa Rita 	7	Julio	2023-10-07T00:00:00	2024-11-08T01:00:00	5	Humedad	90
104501	7	Sololá	704	Santa Lucía Utatlán 	7	Santa Rita 	7	Julio	2023-10-07T00:00:00	2024-11-08T01:00:00	6	Velocidad del viento	3.2
104502	7	Sololá	704	Santa Lucía Utatlán 	7	Santa Rita 	7	Julio	2023-10-07T00:00:00	2024-11-08T01:00:00	7	Dirección del viento	3.22
104503	7	Sololá	704	Santa Lucía Utatlán 	7	Santa Rita 	7	Julio	2023-10-07T00:00:00	2024-11-08T01:00:00	1	Precipitación	0
104504	7	Sololá	704	Santa Lucía Utatlán 	7	Santa Rita 	7	Julio	2023-10-07T00:00:00	2024-11-08T01:00:00	8	Radiación solar	0
104505	7	Sololá	704	Santa Lucía Utatlán 	7	Santa Rita 	7	Julio	2023-10-07T00:00:00	2024-11-08T02:00:00	2	Temperatura media	18
104506	7	Sololá	704	Santa Lucía Utatlán 	7	Santa Rita 	7	Julio	2023-10-07T00:00:00	2024-11-08T02:00:00	4	Temperatura máxima	18.3
104507	7	Sololá	704	Santa Lucía Utatlán 	7	Santa Rita 	7	Julio	2023-10-07T00:00:00	2024-11-08T02:00:00	3	Temperatura mínima	17.7
104508	7	Sololá	704	Santa Lucía Utatlán 	7	Santa Rita 	7	Julio	2023-10-07T00:00:00	2024-11-08T02:00:00	5	Humedad	89
104509	7	Sololá	704	Santa Lucía Utatlán 	7	Santa Rita 	7	Julio	2023-10-07T00:00:00	2024-11-08T02:00:00	6	Velocidad del viento	3.2
104510	7	Sololá	704	Santa Lucía Utatlán 	7	Santa Rita 	7	Julio	2023-10-07T00:00:00	2024-11-08T02:00:00	7	Dirección del viento	3.22
104511	7	Sololá	704	Santa Lucía Utatlán 	7	Santa Rita 	7	Julio	2023-10-07T00:00:00	2024-11-08T02:00:00	1	Precipitación	0
104512	7	Sololá	704	Santa Lucía Utatlán 	7	Santa Rita 	7	Julio	2023-10-07T00:00:00	2024-11-08T02:00:00	8	Radiación solar	0
104513	7	Sololá	704	Santa Lucía Utatlán 	7	Santa Rita 	7	Julio	2023-10-07T00:00:00	2024-11-08T03:00:00	2	Temperatura media	17.1
104514	7	Sololá	704	Santa Lucía Utatlán 	7	Santa Rita 	7	Julio	2023-10-07T00:00:00	2024-11-08T03:00:00	4	Temperatura máxima	18
104515	7	Sololá	704	Santa Lucía Utatlán 	7	Santa Rita 	7	Julio	2023-10-07T00:00:00	2024-11-08T03:00:00	3	Temperatura mínima	16.7
104516	7	Sololá	704	Santa Lucía Utatlán 	7	Santa Rita 	7	Julio	2023-10-07T00:00:00	2024-11-08T03:00:00	5	Humedad	91
104517	7	Sololá	704	Santa Lucía Utatlán 	7	Santa Rita 	7	Julio	2023-10-07T00:00:00	2024-11-08T03:00:00	6	Velocidad del viento	3.2
104518	7	Sololá	704	Santa Lucía Utatlán 	7	Santa Rita 	7	Julio	2023-10-07T00:00:00	2024-11-08T03:00:00	7	Dirección del viento	3.22
104519	7	Sololá	704	Santa Lucía Utatlán 	7	Santa Rita 	7	Julio	2023-10-07T00:00:00	2024-11-08T03:00:00	1	Precipitación	0
104520	7	Sololá	704	Santa Lucía Utatlán 	7	Santa Rita 	7	Julio	2023-10-07T00:00:00	2024-11-08T03:00:00	8	Radiación solar	0
104521	7	Sololá	704	Santa Lucía Utatlán 	7	Santa Rita 	7	Julio	2023-10-07T00:00:00	2024-11-08T04:00:00	2	Temperatura media	16.1
104522	7	Sololá	704	Santa Lucía Utatlán 	7	Santa Rita 	7	Julio	2023-10-07T00:00:00	2024-11-08T04:00:00	4	Temperatura máxima	17.2
104523	7	Sololá	704	Santa Lucía Utatlán 	7	Santa Rita 	7	Julio	2023-10-07T00:00:00	2024-11-08T04:00:00	3	Temperatura mínima	16.1
104524	7	Sololá	704	Santa Lucía Utatlán 	7	Santa Rita 	7	Julio	2023-10-07T00:00:00	2024-11-08T04:00:00	5	Humedad	93
104525	7	Sololá	704	Santa Lucía Utatlán 	7	Santa Rita 	7	Julio	2023-10-07T00:00:00	2024-11-08T04:00:00	6	Velocidad del viento	1.6
104526	7	Sololá	704	Santa Lucía Utatlán 	7	Santa Rita 	7	Julio	2023-10-07T00:00:00	2024-11-08T04:00:00	7	Dirección del viento	1.61
104527	7	Sololá	704	Santa Lucía Utatlán 	7	Santa Rita 	7	Julio	2023-10-07T00:00:00	2024-11-08T04:00:00	1	Precipitación	0
104528	7	Sololá	704	Santa Lucía Utatlán 	7	Santa Rita 	7	Julio	2023-10-07T00:00:00	2024-11-08T04:00:00	8	Radiación solar	0
104529	7	Sololá	704	Santa Lucía Utatlán 	7	Santa Rita 	7	Julio	2023-10-07T00:00:00	2024-11-08T05:00:00	2	Temperatura media	16.1
104530	7	Sololá	704	Santa Lucía Utatlán 	7	Santa Rita 	7	Julio	2023-10-07T00:00:00	2024-11-08T05:00:00	4	Temperatura máxima	16.2
104531	7	Sololá	704	Santa Lucía Utatlán 	7	Santa Rita 	7	Julio	2023-10-07T00:00:00	2024-11-08T05:00:00	3	Temperatura mínima	15.6
104532	7	Sololá	704	Santa Lucía Utatlán 	7	Santa Rita 	7	Julio	2023-10-07T00:00:00	2024-11-08T05:00:00	5	Humedad	95
104533	7	Sololá	704	Santa Lucía Utatlán 	7	Santa Rita 	7	Julio	2023-10-07T00:00:00	2024-11-08T05:00:00	6	Velocidad del viento	3.2
104534	7	Sololá	704	Santa Lucía Utatlán 	7	Santa Rita 	7	Julio	2023-10-07T00:00:00	2024-11-08T05:00:00	7	Dirección del viento	3.22
104535	7	Sololá	704	Santa Lucía Utatlán 	7	Santa Rita 	7	Julio	2023-10-07T00:00:00	2024-11-08T05:00:00	1	Precipitación	0
104536	7	Sololá	704	Santa Lucía Utatlán 	7	Santa Rita 	7	Julio	2023-10-07T00:00:00	2024-11-08T05:00:00	8	Radiación solar	0
104537	7	Sololá	704	Santa Lucía Utatlán 	7	Santa Rita 	7	Julio	2023-10-07T00:00:00	2024-11-08T06:00:00	2	Temperatura media	16.7
104538	7	Sololá	704	Santa Lucía Utatlán 	7	Santa Rita 	7	Julio	2023-10-07T00:00:00	2024-11-08T06:00:00	4	Temperatura máxima	16.8
104539	7	Sololá	704	Santa Lucía Utatlán 	7	Santa Rita 	7	Julio	2023-10-07T00:00:00	2024-11-08T06:00:00	3	Temperatura mínima	16.1
104540	7	Sololá	704	Santa Lucía Utatlán 	7	Santa Rita 	7	Julio	2023-10-07T00:00:00	2024-11-08T06:00:00	5	Humedad	94
104541	7	Sololá	704	Santa Lucía Utatlán 	7	Santa Rita 	7	Julio	2023-10-07T00:00:00	2024-11-08T06:00:00	6	Velocidad del viento	3.2
104542	7	Sololá	704	Santa Lucía Utatlán 	7	Santa Rita 	7	Julio	2023-10-07T00:00:00	2024-11-08T06:00:00	7	Dirección del viento	3.22
104543	7	Sololá	704	Santa Lucía Utatlán 	7	Santa Rita 	7	Julio	2023-10-07T00:00:00	2024-11-08T06:00:00	1	Precipitación	0
104544	7	Sololá	704	Santa Lucía Utatlán 	7	Santa Rita 	7	Julio	2023-10-07T00:00:00	2024-11-08T06:00:00	8	Radiación solar	1
104545	7	Sololá	704	Santa Lucía Utatlán 	7	Santa Rita 	7	Julio	2023-10-07T00:00:00	2024-11-08T07:00:00	2	Temperatura media	17.4
104546	7	Sololá	704	Santa Lucía Utatlán 	7	Santa Rita 	7	Julio	2023-10-07T00:00:00	2024-11-08T07:00:00	4	Temperatura máxima	17.4
104547	7	Sololá	704	Santa Lucía Utatlán 	7	Santa Rita 	7	Julio	2023-10-07T00:00:00	2024-11-08T07:00:00	3	Temperatura mínima	16.5
104548	7	Sololá	704	Santa Lucía Utatlán 	7	Santa Rita 	7	Julio	2023-10-07T00:00:00	2024-11-08T07:00:00	5	Humedad	91
104549	7	Sololá	704	Santa Lucía Utatlán 	7	Santa Rita 	7	Julio	2023-10-07T00:00:00	2024-11-08T07:00:00	6	Velocidad del viento	3.2
104550	7	Sololá	704	Santa Lucía Utatlán 	7	Santa Rita 	7	Julio	2023-10-07T00:00:00	2024-11-08T07:00:00	7	Dirección del viento	3.22
104551	7	Sololá	704	Santa Lucía Utatlán 	7	Santa Rita 	7	Julio	2023-10-07T00:00:00	2024-11-08T07:00:00	1	Precipitación	0
104552	7	Sololá	704	Santa Lucía Utatlán 	7	Santa Rita 	7	Julio	2023-10-07T00:00:00	2024-11-08T07:00:00	8	Radiación solar	36
104553	7	Sololá	704	Santa Lucía Utatlán 	7	Santa Rita 	7	Julio	2023-10-07T00:00:00	2024-11-08T08:00:00	2	Temperatura media	21.2
104554	7	Sololá	704	Santa Lucía Utatlán 	7	Santa Rita 	7	Julio	2023-10-07T00:00:00	2024-11-08T08:00:00	4	Temperatura máxima	21.2
104555	7	Sololá	704	Santa Lucía Utatlán 	7	Santa Rita 	7	Julio	2023-10-07T00:00:00	2024-11-08T08:00:00	3	Temperatura mínima	17.4
104556	7	Sololá	704	Santa Lucía Utatlán 	7	Santa Rita 	7	Julio	2023-10-07T00:00:00	2024-11-08T08:00:00	5	Humedad	81
104557	7	Sololá	704	Santa Lucía Utatlán 	7	Santa Rita 	7	Julio	2023-10-07T00:00:00	2024-11-08T08:00:00	6	Velocidad del viento	3.2
104558	7	Sololá	704	Santa Lucía Utatlán 	7	Santa Rita 	7	Julio	2023-10-07T00:00:00	2024-11-08T08:00:00	7	Dirección del viento	3.22
104559	7	Sololá	704	Santa Lucía Utatlán 	7	Santa Rita 	7	Julio	2023-10-07T00:00:00	2024-11-08T08:00:00	1	Precipitación	0
104560	7	Sololá	704	Santa Lucía Utatlán 	7	Santa Rita 	7	Julio	2023-10-07T00:00:00	2024-11-08T08:00:00	8	Radiación solar	389
104561	7	Sololá	704	Santa Lucía Utatlán 	7	Santa Rita 	7	Julio	2023-10-07T00:00:00	2024-11-08T09:00:00	2	Temperatura media	23.4
104562	7	Sololá	704	Santa Lucía Utatlán 	7	Santa Rita 	7	Julio	2023-10-07T00:00:00	2024-11-08T09:00:00	4	Temperatura máxima	23.4
104563	7	Sololá	704	Santa Lucía Utatlán 	7	Santa Rita 	7	Julio	2023-10-07T00:00:00	2024-11-08T09:00:00	3	Temperatura mínima	21.2
104564	7	Sololá	704	Santa Lucía Utatlán 	7	Santa Rita 	7	Julio	2023-10-07T00:00:00	2024-11-08T09:00:00	5	Humedad	71
104565	7	Sololá	704	Santa Lucía Utatlán 	7	Santa Rita 	7	Julio	2023-10-07T00:00:00	2024-11-08T09:00:00	6	Velocidad del viento	6.4
104566	7	Sololá	704	Santa Lucía Utatlán 	7	Santa Rita 	7	Julio	2023-10-07T00:00:00	2024-11-08T09:00:00	7	Dirección del viento	6.44
104567	7	Sololá	704	Santa Lucía Utatlán 	7	Santa Rita 	7	Julio	2023-10-07T00:00:00	2024-11-08T09:00:00	1	Precipitación	0
104568	7	Sololá	704	Santa Lucía Utatlán 	7	Santa Rita 	7	Julio	2023-10-07T00:00:00	2024-11-08T09:00:00	8	Radiación solar	667
104569	7	Sololá	704	Santa Lucía Utatlán 	7	Santa Rita 	7	Julio	2023-10-07T00:00:00	2024-11-08T10:00:00	2	Temperatura media	23.7
104570	7	Sololá	704	Santa Lucía Utatlán 	7	Santa Rita 	7	Julio	2023-10-07T00:00:00	2024-11-08T10:00:00	4	Temperatura máxima	23.8
104571	7	Sololá	704	Santa Lucía Utatlán 	7	Santa Rita 	7	Julio	2023-10-07T00:00:00	2024-11-08T10:00:00	3	Temperatura mínima	23.1
104572	7	Sololá	704	Santa Lucía Utatlán 	7	Santa Rita 	7	Julio	2023-10-07T00:00:00	2024-11-08T10:00:00	5	Humedad	68
104573	7	Sololá	704	Santa Lucía Utatlán 	7	Santa Rita 	7	Julio	2023-10-07T00:00:00	2024-11-08T10:00:00	6	Velocidad del viento	9.7
104574	7	Sololá	704	Santa Lucía Utatlán 	7	Santa Rita 	7	Julio	2023-10-07T00:00:00	2024-11-08T10:00:00	7	Dirección del viento	9.66
104575	7	Sololá	704	Santa Lucía Utatlán 	7	Santa Rita 	7	Julio	2023-10-07T00:00:00	2024-11-08T10:00:00	1	Precipitación	0
104576	7	Sololá	704	Santa Lucía Utatlán 	7	Santa Rita 	7	Julio	2023-10-07T00:00:00	2024-11-08T10:00:00	8	Radiación solar	848
104577	7	Sololá	704	Santa Lucía Utatlán 	7	Santa Rita 	7	Julio	2023-10-07T00:00:00	2024-11-08T11:00:00	2	Temperatura media	23
104578	7	Sololá	704	Santa Lucía Utatlán 	7	Santa Rita 	7	Julio	2023-10-07T00:00:00	2024-11-08T11:00:00	4	Temperatura máxima	23.7
104579	7	Sololá	704	Santa Lucía Utatlán 	7	Santa Rita 	7	Julio	2023-10-07T00:00:00	2024-11-08T11:00:00	3	Temperatura mínima	22.8
104580	7	Sololá	704	Santa Lucía Utatlán 	7	Santa Rita 	7	Julio	2023-10-07T00:00:00	2024-11-08T11:00:00	5	Humedad	69
104581	7	Sololá	704	Santa Lucía Utatlán 	7	Santa Rita 	7	Julio	2023-10-07T00:00:00	2024-11-08T11:00:00	6	Velocidad del viento	11.3
104582	7	Sololá	704	Santa Lucía Utatlán 	7	Santa Rita 	7	Julio	2023-10-07T00:00:00	2024-11-08T11:00:00	7	Dirección del viento	11.27
104583	7	Sololá	704	Santa Lucía Utatlán 	7	Santa Rita 	7	Julio	2023-10-07T00:00:00	2024-11-08T11:00:00	1	Precipitación	0
104584	7	Sololá	704	Santa Lucía Utatlán 	7	Santa Rita 	7	Julio	2023-10-07T00:00:00	2024-11-08T11:00:00	8	Radiación solar	805
104585	7	Sololá	704	Santa Lucía Utatlán 	7	Santa Rita 	7	Julio	2023-10-07T00:00:00	2024-11-08T12:00:00	2	Temperatura media	24.3
104586	7	Sololá	704	Santa Lucía Utatlán 	7	Santa Rita 	7	Julio	2023-10-07T00:00:00	2024-11-08T12:00:00	4	Temperatura máxima	24.4
104587	7	Sololá	704	Santa Lucía Utatlán 	7	Santa Rita 	7	Julio	2023-10-07T00:00:00	2024-11-08T12:00:00	3	Temperatura mínima	23
104588	7	Sololá	704	Santa Lucía Utatlán 	7	Santa Rita 	7	Julio	2023-10-07T00:00:00	2024-11-08T12:00:00	5	Humedad	65
104589	7	Sololá	704	Santa Lucía Utatlán 	7	Santa Rita 	7	Julio	2023-10-07T00:00:00	2024-11-08T12:00:00	6	Velocidad del viento	12.9
104590	7	Sololá	704	Santa Lucía Utatlán 	7	Santa Rita 	7	Julio	2023-10-07T00:00:00	2024-11-08T12:00:00	7	Dirección del viento	12.87
104591	7	Sololá	704	Santa Lucía Utatlán 	7	Santa Rita 	7	Julio	2023-10-07T00:00:00	2024-11-08T12:00:00	1	Precipitación	0
104592	7	Sololá	704	Santa Lucía Utatlán 	7	Santa Rita 	7	Julio	2023-10-07T00:00:00	2024-11-08T12:00:00	8	Radiación solar	1073
104593	7	Sololá	704	Santa Lucía Utatlán 	7	Santa Rita 	7	Julio	2023-10-07T00:00:00	2024-11-08T13:00:00	2	Temperatura media	25.3
104594	7	Sololá	704	Santa Lucía Utatlán 	7	Santa Rita 	7	Julio	2023-10-07T00:00:00	2024-11-08T13:00:00	4	Temperatura máxima	25.3
104595	7	Sololá	704	Santa Lucía Utatlán 	7	Santa Rita 	7	Julio	2023-10-07T00:00:00	2024-11-08T13:00:00	3	Temperatura mínima	24.3
104596	7	Sololá	704	Santa Lucía Utatlán 	7	Santa Rita 	7	Julio	2023-10-07T00:00:00	2024-11-08T13:00:00	5	Humedad	64
104597	7	Sololá	704	Santa Lucía Utatlán 	7	Santa Rita 	7	Julio	2023-10-07T00:00:00	2024-11-08T13:00:00	6	Velocidad del viento	9.7
104598	7	Sololá	704	Santa Lucía Utatlán 	7	Santa Rita 	7	Julio	2023-10-07T00:00:00	2024-11-08T13:00:00	7	Dirección del viento	9.66
104599	7	Sololá	704	Santa Lucía Utatlán 	7	Santa Rita 	7	Julio	2023-10-07T00:00:00	2024-11-08T13:00:00	1	Precipitación	0
104600	7	Sololá	704	Santa Lucía Utatlán 	7	Santa Rita 	7	Julio	2023-10-07T00:00:00	2024-11-08T13:00:00	8	Radiación solar	1091
104601	7	Sololá	704	Santa Lucía Utatlán 	7	Santa Rita 	7	Julio	2023-10-07T00:00:00	2024-11-08T14:00:00	2	Temperatura media	24.4
104602	7	Sololá	704	Santa Lucía Utatlán 	7	Santa Rita 	7	Julio	2023-10-07T00:00:00	2024-11-08T14:00:00	4	Temperatura máxima	25.2
104603	7	Sololá	704	Santa Lucía Utatlán 	7	Santa Rita 	7	Julio	2023-10-07T00:00:00	2024-11-08T14:00:00	3	Temperatura mínima	24.4
104604	7	Sololá	704	Santa Lucía Utatlán 	7	Santa Rita 	7	Julio	2023-10-07T00:00:00	2024-11-08T14:00:00	5	Humedad	68
104605	7	Sololá	704	Santa Lucía Utatlán 	7	Santa Rita 	7	Julio	2023-10-07T00:00:00	2024-11-08T14:00:00	6	Velocidad del viento	8
104606	7	Sololá	704	Santa Lucía Utatlán 	7	Santa Rita 	7	Julio	2023-10-07T00:00:00	2024-11-08T14:00:00	7	Dirección del viento	8.05
104607	7	Sololá	704	Santa Lucía Utatlán 	7	Santa Rita 	7	Julio	2023-10-07T00:00:00	2024-11-08T14:00:00	1	Precipitación	0
104608	7	Sololá	704	Santa Lucía Utatlán 	7	Santa Rita 	7	Julio	2023-10-07T00:00:00	2024-11-08T14:00:00	8	Radiación solar	614
104609	7	Sololá	704	Santa Lucía Utatlán 	7	Santa Rita 	7	Julio	2023-10-07T00:00:00	2024-11-08T15:00:00	2	Temperatura media	25.3
104610	7	Sololá	704	Santa Lucía Utatlán 	7	Santa Rita 	7	Julio	2023-10-07T00:00:00	2024-11-08T15:00:00	4	Temperatura máxima	25.7
104611	7	Sololá	704	Santa Lucía Utatlán 	7	Santa Rita 	7	Julio	2023-10-07T00:00:00	2024-11-08T15:00:00	3	Temperatura mínima	24.4
104612	7	Sololá	704	Santa Lucía Utatlán 	7	Santa Rita 	7	Julio	2023-10-07T00:00:00	2024-11-08T15:00:00	5	Humedad	64
104613	7	Sololá	704	Santa Lucía Utatlán 	7	Santa Rita 	7	Julio	2023-10-07T00:00:00	2024-11-08T15:00:00	6	Velocidad del viento	8
104614	7	Sololá	704	Santa Lucía Utatlán 	7	Santa Rita 	7	Julio	2023-10-07T00:00:00	2024-11-08T15:00:00	7	Dirección del viento	8.05
104615	7	Sololá	704	Santa Lucía Utatlán 	7	Santa Rita 	7	Julio	2023-10-07T00:00:00	2024-11-08T15:00:00	1	Precipitación	0
104616	7	Sololá	704	Santa Lucía Utatlán 	7	Santa Rita 	7	Julio	2023-10-07T00:00:00	2024-11-08T15:00:00	8	Radiación solar	613
104617	7	Sololá	704	Santa Lucía Utatlán 	7	Santa Rita 	7	Julio	2023-10-07T00:00:00	2024-11-08T16:00:00	2	Temperatura media	25.4
104618	7	Sololá	704	Santa Lucía Utatlán 	7	Santa Rita 	7	Julio	2023-10-07T00:00:00	2024-11-08T16:00:00	4	Temperatura máxima	26.2
104619	7	Sololá	704	Santa Lucía Utatlán 	7	Santa Rita 	7	Julio	2023-10-07T00:00:00	2024-11-08T16:00:00	3	Temperatura mínima	25.3
104620	7	Sololá	704	Santa Lucía Utatlán 	7	Santa Rita 	7	Julio	2023-10-07T00:00:00	2024-11-08T16:00:00	5	Humedad	66
104621	7	Sololá	704	Santa Lucía Utatlán 	7	Santa Rita 	7	Julio	2023-10-07T00:00:00	2024-11-08T16:00:00	6	Velocidad del viento	6.4
104622	7	Sololá	704	Santa Lucía Utatlán 	7	Santa Rita 	7	Julio	2023-10-07T00:00:00	2024-11-08T16:00:00	7	Dirección del viento	6.44
104623	7	Sololá	704	Santa Lucía Utatlán 	7	Santa Rita 	7	Julio	2023-10-07T00:00:00	2024-11-08T16:00:00	1	Precipitación	0
104624	7	Sololá	704	Santa Lucía Utatlán 	7	Santa Rita 	7	Julio	2023-10-07T00:00:00	2024-11-08T16:00:00	8	Radiación solar	578
104625	7	Sololá	704	Santa Lucía Utatlán 	7	Santa Rita 	7	Julio	2023-10-07T00:00:00	2024-11-08T17:00:00	2	Temperatura media	22.6
104626	7	Sololá	704	Santa Lucía Utatlán 	7	Santa Rita 	7	Julio	2023-10-07T00:00:00	2024-11-08T17:00:00	4	Temperatura máxima	25.4
104627	7	Sololá	704	Santa Lucía Utatlán 	7	Santa Rita 	7	Julio	2023-10-07T00:00:00	2024-11-08T17:00:00	3	Temperatura mínima	22.6
104628	7	Sololá	704	Santa Lucía Utatlán 	7	Santa Rita 	7	Julio	2023-10-07T00:00:00	2024-11-08T17:00:00	5	Humedad	87
104629	7	Sololá	704	Santa Lucía Utatlán 	7	Santa Rita 	7	Julio	2023-10-07T00:00:00	2024-11-08T17:00:00	6	Velocidad del viento	6.4
104630	7	Sololá	704	Santa Lucía Utatlán 	7	Santa Rita 	7	Julio	2023-10-07T00:00:00	2024-11-08T17:00:00	7	Dirección del viento	6.44
104631	7	Sololá	704	Santa Lucía Utatlán 	7	Santa Rita 	7	Julio	2023-10-07T00:00:00	2024-11-08T17:00:00	1	Precipitación	0
104632	7	Sololá	704	Santa Lucía Utatlán 	7	Santa Rita 	7	Julio	2023-10-07T00:00:00	2024-11-08T17:00:00	8	Radiación solar	80
104633	7	Sololá	704	Santa Lucía Utatlán 	7	Santa Rita 	7	Julio	2023-10-07T00:00:00	2024-11-08T18:00:00	2	Temperatura media	22.1
104634	7	Sololá	704	Santa Lucía Utatlán 	7	Santa Rita 	7	Julio	2023-10-07T00:00:00	2024-11-08T18:00:00	4	Temperatura máxima	22.6
104635	7	Sololá	704	Santa Lucía Utatlán 	7	Santa Rita 	7	Julio	2023-10-07T00:00:00	2024-11-08T18:00:00	3	Temperatura mínima	22.1
104636	7	Sololá	704	Santa Lucía Utatlán 	7	Santa Rita 	7	Julio	2023-10-07T00:00:00	2024-11-08T18:00:00	5	Humedad	90
104637	7	Sololá	704	Santa Lucía Utatlán 	7	Santa Rita 	7	Julio	2023-10-07T00:00:00	2024-11-08T18:00:00	6	Velocidad del viento	1.6
104638	7	Sololá	704	Santa Lucía Utatlán 	7	Santa Rita 	7	Julio	2023-10-07T00:00:00	2024-11-08T18:00:00	7	Dirección del viento	1.61
104639	7	Sololá	704	Santa Lucía Utatlán 	7	Santa Rita 	7	Julio	2023-10-07T00:00:00	2024-11-08T18:00:00	1	Precipitación	0
104640	7	Sololá	704	Santa Lucía Utatlán 	7	Santa Rita 	7	Julio	2023-10-07T00:00:00	2024-11-08T18:00:00	8	Radiación solar	48
104641	7	Sololá	704	Santa Lucía Utatlán 	7	Santa Rita 	7	Julio	2023-10-07T00:00:00	2024-11-08T19:00:00	2	Temperatura media	21.6
104642	7	Sololá	704	Santa Lucía Utatlán 	7	Santa Rita 	7	Julio	2023-10-07T00:00:00	2024-11-08T19:00:00	4	Temperatura máxima	22.1
104643	7	Sololá	704	Santa Lucía Utatlán 	7	Santa Rita 	7	Julio	2023-10-07T00:00:00	2024-11-08T19:00:00	3	Temperatura mínima	21.6
104644	7	Sololá	704	Santa Lucía Utatlán 	7	Santa Rita 	7	Julio	2023-10-07T00:00:00	2024-11-08T19:00:00	5	Humedad	91
104645	7	Sololá	704	Santa Lucía Utatlán 	7	Santa Rita 	7	Julio	2023-10-07T00:00:00	2024-11-08T19:00:00	6	Velocidad del viento	1.6
104646	7	Sololá	704	Santa Lucía Utatlán 	7	Santa Rita 	7	Julio	2023-10-07T00:00:00	2024-11-08T19:00:00	7	Dirección del viento	1.61
104647	7	Sololá	704	Santa Lucía Utatlán 	7	Santa Rita 	7	Julio	2023-10-07T00:00:00	2024-11-08T19:00:00	1	Precipitación	0
104648	7	Sololá	704	Santa Lucía Utatlán 	7	Santa Rita 	7	Julio	2023-10-07T00:00:00	2024-11-08T19:00:00	8	Radiación solar	0
104649	7	Sololá	704	Santa Lucía Utatlán 	7	Santa Rita 	7	Julio	2023-10-07T00:00:00	2024-11-08T20:00:00	2	Temperatura media	19.6
104650	7	Sololá	704	Santa Lucía Utatlán 	7	Santa Rita 	7	Julio	2023-10-07T00:00:00	2024-11-08T20:00:00	4	Temperatura máxima	21.6
104651	7	Sololá	704	Santa Lucía Utatlán 	7	Santa Rita 	7	Julio	2023-10-07T00:00:00	2024-11-08T20:00:00	3	Temperatura mínima	19.3
104652	7	Sololá	704	Santa Lucía Utatlán 	7	Santa Rita 	7	Julio	2023-10-07T00:00:00	2024-11-08T20:00:00	5	Humedad	79
104653	7	Sololá	704	Santa Lucía Utatlán 	7	Santa Rita 	7	Julio	2023-10-07T00:00:00	2024-11-08T20:00:00	6	Velocidad del viento	6.4
104654	7	Sololá	704	Santa Lucía Utatlán 	7	Santa Rita 	7	Julio	2023-10-07T00:00:00	2024-11-08T20:00:00	7	Dirección del viento	6.44
104655	7	Sololá	704	Santa Lucía Utatlán 	7	Santa Rita 	7	Julio	2023-10-07T00:00:00	2024-11-08T20:00:00	1	Precipitación	0.2
104656	7	Sololá	704	Santa Lucía Utatlán 	7	Santa Rita 	7	Julio	2023-10-07T00:00:00	2024-11-08T20:00:00	8	Radiación solar	0
104657	7	Sololá	704	Santa Lucía Utatlán 	7	Santa Rita 	7	Julio	2023-10-07T00:00:00	2024-11-08T21:00:00	2	Temperatura media	20.2
104658	7	Sololá	704	Santa Lucía Utatlán 	7	Santa Rita 	7	Julio	2023-10-07T00:00:00	2024-11-08T21:00:00	4	Temperatura máxima	20.2
104659	7	Sololá	704	Santa Lucía Utatlán 	7	Santa Rita 	7	Julio	2023-10-07T00:00:00	2024-11-08T21:00:00	3	Temperatura mínima	19.2
104660	7	Sololá	704	Santa Lucía Utatlán 	7	Santa Rita 	7	Julio	2023-10-07T00:00:00	2024-11-08T21:00:00	5	Humedad	76
104661	7	Sololá	704	Santa Lucía Utatlán 	7	Santa Rita 	7	Julio	2023-10-07T00:00:00	2024-11-08T21:00:00	6	Velocidad del viento	11.3
104662	7	Sololá	704	Santa Lucía Utatlán 	7	Santa Rita 	7	Julio	2023-10-07T00:00:00	2024-11-08T21:00:00	7	Dirección del viento	11.27
104663	7	Sololá	704	Santa Lucía Utatlán 	7	Santa Rita 	7	Julio	2023-10-07T00:00:00	2024-11-08T21:00:00	1	Precipitación	1
104664	7	Sololá	704	Santa Lucía Utatlán 	7	Santa Rita 	7	Julio	2023-10-07T00:00:00	2024-11-08T21:00:00	8	Radiación solar	0
104665	7	Sololá	704	Santa Lucía Utatlán 	7	Santa Rita 	7	Julio	2023-10-07T00:00:00	2024-11-08T22:00:00	2	Temperatura media	19.8
104666	7	Sololá	704	Santa Lucía Utatlán 	7	Santa Rita 	7	Julio	2023-10-07T00:00:00	2024-11-08T22:00:00	4	Temperatura máxima	20.8
104667	7	Sololá	704	Santa Lucía Utatlán 	7	Santa Rita 	7	Julio	2023-10-07T00:00:00	2024-11-08T22:00:00	3	Temperatura mínima	19.8
104668	7	Sololá	704	Santa Lucía Utatlán 	7	Santa Rita 	7	Julio	2023-10-07T00:00:00	2024-11-08T22:00:00	5	Humedad	81
104669	7	Sololá	704	Santa Lucía Utatlán 	7	Santa Rita 	7	Julio	2023-10-07T00:00:00	2024-11-08T22:00:00	6	Velocidad del viento	6.4
104670	7	Sololá	704	Santa Lucía Utatlán 	7	Santa Rita 	7	Julio	2023-10-07T00:00:00	2024-11-08T22:00:00	7	Dirección del viento	6.44
104671	7	Sololá	704	Santa Lucía Utatlán 	7	Santa Rita 	7	Julio	2023-10-07T00:00:00	2024-11-08T22:00:00	1	Precipitación	1
104672	7	Sololá	704	Santa Lucía Utatlán 	7	Santa Rita 	7	Julio	2023-10-07T00:00:00	2024-11-08T22:00:00	8	Radiación solar	0
104673	7	Sololá	704	Santa Lucía Utatlán 	7	Santa Rita 	7	Julio	2023-10-07T00:00:00	2024-11-08T23:00:00	2	Temperatura media	19
104674	7	Sololá	704	Santa Lucía Utatlán 	7	Santa Rita 	7	Julio	2023-10-07T00:00:00	2024-11-08T23:00:00	4	Temperatura máxima	20
104675	7	Sololá	704	Santa Lucía Utatlán 	7	Santa Rita 	7	Julio	2023-10-07T00:00:00	2024-11-08T23:00:00	3	Temperatura mínima	19
104676	7	Sololá	704	Santa Lucía Utatlán 	7	Santa Rita 	7	Julio	2023-10-07T00:00:00	2024-11-08T23:00:00	5	Humedad	86
104677	7	Sololá	704	Santa Lucía Utatlán 	7	Santa Rita 	7	Julio	2023-10-07T00:00:00	2024-11-08T23:00:00	6	Velocidad del viento	4.8
104678	7	Sololá	704	Santa Lucía Utatlán 	7	Santa Rita 	7	Julio	2023-10-07T00:00:00	2024-11-08T23:00:00	7	Dirección del viento	4.83
104679	7	Sololá	704	Santa Lucía Utatlán 	7	Santa Rita 	7	Julio	2023-10-07T00:00:00	2024-11-08T23:00:00	1	Precipitación	0.6
104680	7	Sololá	704	Santa Lucía Utatlán 	7	Santa Rita 	7	Julio	2023-10-07T00:00:00	2024-11-08T23:00:00	8	Radiación solar	0
104681	7	Sololá	704	Santa Lucía Utatlán 	7	Santa Rita 	7	Julio	2023-11-07T00:00:00	2024-11-08T00:00:00	2	Temperatura media	19
104682	7	Sololá	704	Santa Lucía Utatlán 	7	Santa Rita 	7	Julio	2023-11-07T00:00:00	2024-11-08T00:00:00	4	Temperatura máxima	19.1
104683	7	Sololá	704	Santa Lucía Utatlán 	7	Santa Rita 	7	Julio	2023-11-07T00:00:00	2024-11-08T00:00:00	3	Temperatura mínima	18.1
104684	7	Sololá	704	Santa Lucía Utatlán 	7	Santa Rita 	7	Julio	2023-11-07T00:00:00	2024-11-08T00:00:00	5	Humedad	84
104685	7	Sololá	704	Santa Lucía Utatlán 	7	Santa Rita 	7	Julio	2023-11-07T00:00:00	2024-11-08T00:00:00	6	Velocidad del viento	4.8
104686	7	Sololá	704	Santa Lucía Utatlán 	7	Santa Rita 	7	Julio	2023-11-07T00:00:00	2024-11-08T00:00:00	7	Dirección del viento	4.83
104687	7	Sololá	704	Santa Lucía Utatlán 	7	Santa Rita 	7	Julio	2023-11-07T00:00:00	2024-11-08T00:00:00	1	Precipitación	0
104688	7	Sololá	704	Santa Lucía Utatlán 	7	Santa Rita 	7	Julio	2023-11-07T00:00:00	2024-11-08T00:00:00	8	Radiación solar	0
104689	7	Sololá	704	Santa Lucía Utatlán 	7	Santa Rita 	7	Julio	2023-11-07T00:00:00	2024-11-08T01:00:00	2	Temperatura media	19.2
104690	7	Sololá	704	Santa Lucía Utatlán 	7	Santa Rita 	7	Julio	2023-11-07T00:00:00	2024-11-08T01:00:00	4	Temperatura máxima	19.8
104691	7	Sololá	704	Santa Lucía Utatlán 	7	Santa Rita 	7	Julio	2023-11-07T00:00:00	2024-11-08T01:00:00	3	Temperatura mínima	18.8
104692	7	Sololá	704	Santa Lucía Utatlán 	7	Santa Rita 	7	Julio	2023-11-07T00:00:00	2024-11-08T01:00:00	5	Humedad	83
104693	7	Sololá	704	Santa Lucía Utatlán 	7	Santa Rita 	7	Julio	2023-11-07T00:00:00	2024-11-08T01:00:00	6	Velocidad del viento	4.8
104694	7	Sololá	704	Santa Lucía Utatlán 	7	Santa Rita 	7	Julio	2023-11-07T00:00:00	2024-11-08T01:00:00	7	Dirección del viento	4.83
104695	7	Sololá	704	Santa Lucía Utatlán 	7	Santa Rita 	7	Julio	2023-11-07T00:00:00	2024-11-08T01:00:00	1	Precipitación	0
104696	7	Sololá	704	Santa Lucía Utatlán 	7	Santa Rita 	7	Julio	2023-11-07T00:00:00	2024-11-08T01:00:00	8	Radiación solar	0
104697	7	Sololá	704	Santa Lucía Utatlán 	7	Santa Rita 	7	Julio	2023-11-07T00:00:00	2024-11-08T02:00:00	2	Temperatura media	18.6
104698	7	Sololá	704	Santa Lucía Utatlán 	7	Santa Rita 	7	Julio	2023-11-07T00:00:00	2024-11-08T02:00:00	4	Temperatura máxima	20
104699	7	Sololá	704	Santa Lucía Utatlán 	7	Santa Rita 	7	Julio	2023-11-07T00:00:00	2024-11-08T02:00:00	3	Temperatura mínima	18.6
104700	7	Sololá	704	Santa Lucía Utatlán 	7	Santa Rita 	7	Julio	2023-11-07T00:00:00	2024-11-08T02:00:00	5	Humedad	86
104701	7	Sololá	704	Santa Lucía Utatlán 	7	Santa Rita 	7	Julio	2023-11-07T00:00:00	2024-11-08T02:00:00	6	Velocidad del viento	3.2
104702	7	Sololá	704	Santa Lucía Utatlán 	7	Santa Rita 	7	Julio	2023-11-07T00:00:00	2024-11-08T02:00:00	7	Dirección del viento	3.22
104703	7	Sololá	704	Santa Lucía Utatlán 	7	Santa Rita 	7	Julio	2023-11-07T00:00:00	2024-11-08T02:00:00	1	Precipitación	0
104704	7	Sololá	704	Santa Lucía Utatlán 	7	Santa Rita 	7	Julio	2023-11-07T00:00:00	2024-11-08T02:00:00	8	Radiación solar	0
104705	7	Sololá	704	Santa Lucía Utatlán 	7	Santa Rita 	7	Julio	2023-11-07T00:00:00	2024-11-08T03:00:00	2	Temperatura media	18.4
104706	7	Sololá	704	Santa Lucía Utatlán 	7	Santa Rita 	7	Julio	2023-11-07T00:00:00	2024-11-08T03:00:00	4	Temperatura máxima	18.6
104707	7	Sololá	704	Santa Lucía Utatlán 	7	Santa Rita 	7	Julio	2023-11-07T00:00:00	2024-11-08T03:00:00	3	Temperatura mínima	18.1
104708	7	Sololá	704	Santa Lucía Utatlán 	7	Santa Rita 	7	Julio	2023-11-07T00:00:00	2024-11-08T03:00:00	5	Humedad	82
104709	7	Sololá	704	Santa Lucía Utatlán 	7	Santa Rita 	7	Julio	2023-11-07T00:00:00	2024-11-08T03:00:00	6	Velocidad del viento	3.2
104710	7	Sololá	704	Santa Lucía Utatlán 	7	Santa Rita 	7	Julio	2023-11-07T00:00:00	2024-11-08T03:00:00	7	Dirección del viento	3.22
104711	7	Sololá	704	Santa Lucía Utatlán 	7	Santa Rita 	7	Julio	2023-11-07T00:00:00	2024-11-08T03:00:00	1	Precipitación	0
104712	7	Sololá	704	Santa Lucía Utatlán 	7	Santa Rita 	7	Julio	2023-11-07T00:00:00	2024-11-08T03:00:00	8	Radiación solar	0
104713	7	Sololá	704	Santa Lucía Utatlán 	7	Santa Rita 	7	Julio	2023-11-07T00:00:00	2024-11-08T04:00:00	2	Temperatura media	17.7
104714	7	Sololá	704	Santa Lucía Utatlán 	7	Santa Rita 	7	Julio	2023-11-07T00:00:00	2024-11-08T04:00:00	4	Temperatura máxima	18.4
104715	7	Sololá	704	Santa Lucía Utatlán 	7	Santa Rita 	7	Julio	2023-11-07T00:00:00	2024-11-08T04:00:00	3	Temperatura mínima	17.6
104716	7	Sololá	704	Santa Lucía Utatlán 	7	Santa Rita 	7	Julio	2023-11-07T00:00:00	2024-11-08T04:00:00	5	Humedad	83
104717	7	Sololá	704	Santa Lucía Utatlán 	7	Santa Rita 	7	Julio	2023-11-07T00:00:00	2024-11-08T04:00:00	6	Velocidad del viento	3.2
104718	7	Sololá	704	Santa Lucía Utatlán 	7	Santa Rita 	7	Julio	2023-11-07T00:00:00	2024-11-08T04:00:00	7	Dirección del viento	3.22
104719	7	Sololá	704	Santa Lucía Utatlán 	7	Santa Rita 	7	Julio	2023-11-07T00:00:00	2024-11-08T04:00:00	1	Precipitación	0
104720	7	Sololá	704	Santa Lucía Utatlán 	7	Santa Rita 	7	Julio	2023-11-07T00:00:00	2024-11-08T04:00:00	8	Radiación solar	0
104721	7	Sololá	704	Santa Lucía Utatlán 	7	Santa Rita 	7	Julio	2023-11-07T00:00:00	2024-11-08T05:00:00	2	Temperatura media	17.3
104722	7	Sololá	704	Santa Lucía Utatlán 	7	Santa Rita 	7	Julio	2023-11-07T00:00:00	2024-11-08T05:00:00	4	Temperatura máxima	17.8
104723	7	Sololá	704	Santa Lucía Utatlán 	7	Santa Rita 	7	Julio	2023-11-07T00:00:00	2024-11-08T05:00:00	3	Temperatura mínima	17.3
104724	7	Sololá	704	Santa Lucía Utatlán 	7	Santa Rita 	7	Julio	2023-11-07T00:00:00	2024-11-08T05:00:00	5	Humedad	86
104725	7	Sololá	704	Santa Lucía Utatlán 	7	Santa Rita 	7	Julio	2023-11-07T00:00:00	2024-11-08T05:00:00	6	Velocidad del viento	3.2
104726	7	Sololá	704	Santa Lucía Utatlán 	7	Santa Rita 	7	Julio	2023-11-07T00:00:00	2024-11-08T05:00:00	7	Dirección del viento	3.22
104727	7	Sololá	704	Santa Lucía Utatlán 	7	Santa Rita 	7	Julio	2023-11-07T00:00:00	2024-11-08T05:00:00	1	Precipitación	0
104728	7	Sololá	704	Santa Lucía Utatlán 	7	Santa Rita 	7	Julio	2023-11-07T00:00:00	2024-11-08T05:00:00	8	Radiación solar	0
104729	7	Sololá	704	Santa Lucía Utatlán 	7	Santa Rita 	7	Julio	2023-11-07T00:00:00	2024-11-08T06:00:00	2	Temperatura media	17.3
104730	7	Sololá	704	Santa Lucía Utatlán 	7	Santa Rita 	7	Julio	2023-11-07T00:00:00	2024-11-08T06:00:00	4	Temperatura máxima	17.6
104731	7	Sololá	704	Santa Lucía Utatlán 	7	Santa Rita 	7	Julio	2023-11-07T00:00:00	2024-11-08T06:00:00	3	Temperatura mínima	17.2
104732	7	Sololá	704	Santa Lucía Utatlán 	7	Santa Rita 	7	Julio	2023-11-07T00:00:00	2024-11-08T06:00:00	5	Humedad	85
104733	7	Sololá	704	Santa Lucía Utatlán 	7	Santa Rita 	7	Julio	2023-11-07T00:00:00	2024-11-08T06:00:00	6	Velocidad del viento	3.2
104734	7	Sololá	704	Santa Lucía Utatlán 	7	Santa Rita 	7	Julio	2023-11-07T00:00:00	2024-11-08T06:00:00	7	Dirección del viento	3.22
104735	7	Sololá	704	Santa Lucía Utatlán 	7	Santa Rita 	7	Julio	2023-11-07T00:00:00	2024-11-08T06:00:00	1	Precipitación	0
104736	7	Sololá	704	Santa Lucía Utatlán 	7	Santa Rita 	7	Julio	2023-11-07T00:00:00	2024-11-08T06:00:00	8	Radiación solar	2
104737	7	Sololá	704	Santa Lucía Utatlán 	7	Santa Rita 	7	Julio	2023-11-07T00:00:00	2024-11-08T07:00:00	2	Temperatura media	18.7
104738	7	Sololá	704	Santa Lucía Utatlán 	7	Santa Rita 	7	Julio	2023-11-07T00:00:00	2024-11-08T07:00:00	4	Temperatura máxima	18.7
104739	7	Sololá	704	Santa Lucía Utatlán 	7	Santa Rita 	7	Julio	2023-11-07T00:00:00	2024-11-08T07:00:00	3	Temperatura mínima	17.3
104740	7	Sololá	704	Santa Lucía Utatlán 	7	Santa Rita 	7	Julio	2023-11-07T00:00:00	2024-11-08T07:00:00	5	Humedad	85
104741	7	Sololá	704	Santa Lucía Utatlán 	7	Santa Rita 	7	Julio	2023-11-07T00:00:00	2024-11-08T07:00:00	6	Velocidad del viento	3.2
104742	7	Sololá	704	Santa Lucía Utatlán 	7	Santa Rita 	7	Julio	2023-11-07T00:00:00	2024-11-08T07:00:00	7	Dirección del viento	3.22
104743	7	Sololá	704	Santa Lucía Utatlán 	7	Santa Rita 	7	Julio	2023-11-07T00:00:00	2024-11-08T07:00:00	1	Precipitación	0
104744	7	Sololá	704	Santa Lucía Utatlán 	7	Santa Rita 	7	Julio	2023-11-07T00:00:00	2024-11-08T07:00:00	8	Radiación solar	65
104745	7	Sololá	704	Santa Lucía Utatlán 	7	Santa Rita 	7	Julio	2023-11-07T00:00:00	2024-11-08T08:00:00	2	Temperatura media	21.3
104746	7	Sololá	704	Santa Lucía Utatlán 	7	Santa Rita 	7	Julio	2023-11-07T00:00:00	2024-11-08T08:00:00	4	Temperatura máxima	21.3
104747	7	Sololá	704	Santa Lucía Utatlán 	7	Santa Rita 	7	Julio	2023-11-07T00:00:00	2024-11-08T08:00:00	3	Temperatura mínima	18.7
104748	7	Sololá	704	Santa Lucía Utatlán 	7	Santa Rita 	7	Julio	2023-11-07T00:00:00	2024-11-08T08:00:00	5	Humedad	79
104749	7	Sololá	704	Santa Lucía Utatlán 	7	Santa Rita 	7	Julio	2023-11-07T00:00:00	2024-11-08T08:00:00	6	Velocidad del viento	1.6
104750	7	Sololá	704	Santa Lucía Utatlán 	7	Santa Rita 	7	Julio	2023-11-07T00:00:00	2024-11-08T08:00:00	7	Dirección del viento	1.61
104751	7	Sololá	704	Santa Lucía Utatlán 	7	Santa Rita 	7	Julio	2023-11-07T00:00:00	2024-11-08T08:00:00	1	Precipitación	0
104752	7	Sololá	704	Santa Lucía Utatlán 	7	Santa Rita 	7	Julio	2023-11-07T00:00:00	2024-11-08T08:00:00	8	Radiación solar	214
104753	7	Sololá	704	Santa Lucía Utatlán 	7	Santa Rita 	7	Julio	2023-11-07T00:00:00	2024-11-08T09:00:00	2	Temperatura media	24.3
104754	7	Sololá	704	Santa Lucía Utatlán 	7	Santa Rita 	7	Julio	2023-11-07T00:00:00	2024-11-08T09:00:00	4	Temperatura máxima	24.6
104755	7	Sololá	704	Santa Lucía Utatlán 	7	Santa Rita 	7	Julio	2023-11-07T00:00:00	2024-11-08T09:00:00	3	Temperatura mínima	21.4
104756	7	Sololá	704	Santa Lucía Utatlán 	7	Santa Rita 	7	Julio	2023-11-07T00:00:00	2024-11-08T09:00:00	5	Humedad	63
104757	7	Sololá	704	Santa Lucía Utatlán 	7	Santa Rita 	7	Julio	2023-11-07T00:00:00	2024-11-08T09:00:00	6	Velocidad del viento	6.4
104758	7	Sololá	704	Santa Lucía Utatlán 	7	Santa Rita 	7	Julio	2023-11-07T00:00:00	2024-11-08T09:00:00	7	Dirección del viento	6.44
104759	7	Sololá	704	Santa Lucía Utatlán 	7	Santa Rita 	7	Julio	2023-11-07T00:00:00	2024-11-08T09:00:00	1	Precipitación	0
104760	7	Sololá	704	Santa Lucía Utatlán 	7	Santa Rita 	7	Julio	2023-11-07T00:00:00	2024-11-08T09:00:00	8	Radiación solar	577
104761	7	Sololá	704	Santa Lucía Utatlán 	7	Santa Rita 	7	Julio	2023-11-07T00:00:00	2024-11-08T10:00:00	2	Temperatura media	25.7
104762	7	Sololá	704	Santa Lucía Utatlán 	7	Santa Rita 	7	Julio	2023-11-07T00:00:00	2024-11-08T10:00:00	4	Temperatura máxima	25.7
104763	7	Sololá	704	Santa Lucía Utatlán 	7	Santa Rita 	7	Julio	2023-11-07T00:00:00	2024-11-08T10:00:00	3	Temperatura mínima	24.3
104764	7	Sololá	704	Santa Lucía Utatlán 	7	Santa Rita 	7	Julio	2023-11-07T00:00:00	2024-11-08T10:00:00	5	Humedad	51
104765	7	Sololá	704	Santa Lucía Utatlán 	7	Santa Rita 	7	Julio	2023-11-07T00:00:00	2024-11-08T10:00:00	6	Velocidad del viento	9.7
104766	7	Sololá	704	Santa Lucía Utatlán 	7	Santa Rita 	7	Julio	2023-11-07T00:00:00	2024-11-08T10:00:00	7	Dirección del viento	9.66
104767	7	Sololá	704	Santa Lucía Utatlán 	7	Santa Rita 	7	Julio	2023-11-07T00:00:00	2024-11-08T10:00:00	1	Precipitación	0
104768	7	Sololá	704	Santa Lucía Utatlán 	7	Santa Rita 	7	Julio	2023-11-07T00:00:00	2024-11-08T10:00:00	8	Radiación solar	861
104769	7	Sololá	704	Santa Lucía Utatlán 	7	Santa Rita 	7	Julio	2023-11-07T00:00:00	2024-11-08T11:00:00	2	Temperatura media	25
104770	7	Sololá	704	Santa Lucía Utatlán 	7	Santa Rita 	7	Julio	2023-11-07T00:00:00	2024-11-08T11:00:00	4	Temperatura máxima	26.2
104771	7	Sololá	704	Santa Lucía Utatlán 	7	Santa Rita 	7	Julio	2023-11-07T00:00:00	2024-11-08T11:00:00	3	Temperatura mínima	25
104772	7	Sololá	704	Santa Lucía Utatlán 	7	Santa Rita 	7	Julio	2023-11-07T00:00:00	2024-11-08T11:00:00	5	Humedad	54
104773	7	Sololá	704	Santa Lucía Utatlán 	7	Santa Rita 	7	Julio	2023-11-07T00:00:00	2024-11-08T11:00:00	6	Velocidad del viento	12.9
104774	7	Sololá	704	Santa Lucía Utatlán 	7	Santa Rita 	7	Julio	2023-11-07T00:00:00	2024-11-08T11:00:00	7	Dirección del viento	12.87
104775	7	Sololá	704	Santa Lucía Utatlán 	7	Santa Rita 	7	Julio	2023-11-07T00:00:00	2024-11-08T11:00:00	1	Precipitación	0
104776	7	Sololá	704	Santa Lucía Utatlán 	7	Santa Rita 	7	Julio	2023-11-07T00:00:00	2024-11-08T11:00:00	8	Radiación solar	838
104777	7	Sololá	704	Santa Lucía Utatlán 	7	Santa Rita 	7	Julio	2023-11-07T00:00:00	2024-11-08T12:00:00	2	Temperatura media	25.3
104778	7	Sololá	704	Santa Lucía Utatlán 	7	Santa Rita 	7	Julio	2023-11-07T00:00:00	2024-11-08T12:00:00	4	Temperatura máxima	25.6
104779	7	Sololá	704	Santa Lucía Utatlán 	7	Santa Rita 	7	Julio	2023-11-07T00:00:00	2024-11-08T12:00:00	3	Temperatura mínima	24.9
104780	7	Sololá	704	Santa Lucía Utatlán 	7	Santa Rita 	7	Julio	2023-11-07T00:00:00	2024-11-08T12:00:00	5	Humedad	59
104781	7	Sololá	704	Santa Lucía Utatlán 	7	Santa Rita 	7	Julio	2023-11-07T00:00:00	2024-11-08T12:00:00	6	Velocidad del viento	12.9
104782	7	Sololá	704	Santa Lucía Utatlán 	7	Santa Rita 	7	Julio	2023-11-07T00:00:00	2024-11-08T12:00:00	7	Dirección del viento	12.87
104783	7	Sololá	704	Santa Lucía Utatlán 	7	Santa Rita 	7	Julio	2023-11-07T00:00:00	2024-11-08T12:00:00	1	Precipitación	0
104784	7	Sololá	704	Santa Lucía Utatlán 	7	Santa Rita 	7	Julio	2023-11-07T00:00:00	2024-11-08T12:00:00	8	Radiación solar	708
104785	7	Sololá	704	Santa Lucía Utatlán 	7	Santa Rita 	7	Julio	2023-11-07T00:00:00	2024-11-08T13:00:00	2	Temperatura media	25.3
104786	7	Sololá	704	Santa Lucía Utatlán 	7	Santa Rita 	7	Julio	2023-11-07T00:00:00	2024-11-08T13:00:00	4	Temperatura máxima	25.6
104787	7	Sololá	704	Santa Lucía Utatlán 	7	Santa Rita 	7	Julio	2023-11-07T00:00:00	2024-11-08T13:00:00	3	Temperatura mínima	25.2
104788	7	Sololá	704	Santa Lucía Utatlán 	7	Santa Rita 	7	Julio	2023-11-07T00:00:00	2024-11-08T13:00:00	5	Humedad	61
104789	7	Sololá	704	Santa Lucía Utatlán 	7	Santa Rita 	7	Julio	2023-11-07T00:00:00	2024-11-08T13:00:00	6	Velocidad del viento	11.3
104790	7	Sololá	704	Santa Lucía Utatlán 	7	Santa Rita 	7	Julio	2023-11-07T00:00:00	2024-11-08T13:00:00	7	Dirección del viento	11.27
104791	7	Sololá	704	Santa Lucía Utatlán 	7	Santa Rita 	7	Julio	2023-11-07T00:00:00	2024-11-08T13:00:00	1	Precipitación	0
104792	7	Sololá	704	Santa Lucía Utatlán 	7	Santa Rita 	7	Julio	2023-11-07T00:00:00	2024-11-08T13:00:00	8	Radiación solar	621
104793	7	Sololá	704	Santa Lucía Utatlán 	7	Santa Rita 	7	Julio	2023-11-07T00:00:00	2024-11-08T14:00:00	2	Temperatura media	25.7
104794	7	Sololá	704	Santa Lucía Utatlán 	7	Santa Rita 	7	Julio	2023-11-07T00:00:00	2024-11-08T14:00:00	4	Temperatura máxima	26.1
104795	7	Sololá	704	Santa Lucía Utatlán 	7	Santa Rita 	7	Julio	2023-11-07T00:00:00	2024-11-08T14:00:00	3	Temperatura mínima	25.3
104796	7	Sololá	704	Santa Lucía Utatlán 	7	Santa Rita 	7	Julio	2023-11-07T00:00:00	2024-11-08T14:00:00	5	Humedad	60
104797	7	Sololá	704	Santa Lucía Utatlán 	7	Santa Rita 	7	Julio	2023-11-07T00:00:00	2024-11-08T14:00:00	6	Velocidad del viento	9.7
104798	7	Sololá	704	Santa Lucía Utatlán 	7	Santa Rita 	7	Julio	2023-11-07T00:00:00	2024-11-08T14:00:00	7	Dirección del viento	9.66
104799	7	Sololá	704	Santa Lucía Utatlán 	7	Santa Rita 	7	Julio	2023-11-07T00:00:00	2024-11-08T14:00:00	1	Precipitación	0
104800	7	Sololá	704	Santa Lucía Utatlán 	7	Santa Rita 	7	Julio	2023-11-07T00:00:00	2024-11-08T14:00:00	8	Radiación solar	963
104801	7	Sololá	704	Santa Lucía Utatlán 	7	Santa Rita 	7	Julio	2023-11-07T00:00:00	2024-11-08T15:00:00	2	Temperatura media	25.3
104802	7	Sololá	704	Santa Lucía Utatlán 	7	Santa Rita 	7	Julio	2023-11-07T00:00:00	2024-11-08T15:00:00	4	Temperatura máxima	26.2
104803	7	Sololá	704	Santa Lucía Utatlán 	7	Santa Rita 	7	Julio	2023-11-07T00:00:00	2024-11-08T15:00:00	3	Temperatura mínima	25.1
104804	7	Sololá	704	Santa Lucía Utatlán 	7	Santa Rita 	7	Julio	2023-11-07T00:00:00	2024-11-08T15:00:00	5	Humedad	63
104805	7	Sololá	704	Santa Lucía Utatlán 	7	Santa Rita 	7	Julio	2023-11-07T00:00:00	2024-11-08T15:00:00	6	Velocidad del viento	11.3
104806	7	Sololá	704	Santa Lucía Utatlán 	7	Santa Rita 	7	Julio	2023-11-07T00:00:00	2024-11-08T15:00:00	7	Dirección del viento	11.27
104807	7	Sololá	704	Santa Lucía Utatlán 	7	Santa Rita 	7	Julio	2023-11-07T00:00:00	2024-11-08T15:00:00	1	Precipitación	0
104808	7	Sololá	704	Santa Lucía Utatlán 	7	Santa Rita 	7	Julio	2023-11-07T00:00:00	2024-11-08T15:00:00	8	Radiación solar	634
104809	7	Sololá	704	Santa Lucía Utatlán 	7	Santa Rita 	7	Julio	2023-11-07T00:00:00	2024-11-08T16:00:00	2	Temperatura media	24.9
104810	7	Sololá	704	Santa Lucía Utatlán 	7	Santa Rita 	7	Julio	2023-11-07T00:00:00	2024-11-08T16:00:00	4	Temperatura máxima	25.4
104811	7	Sololá	704	Santa Lucía Utatlán 	7	Santa Rita 	7	Julio	2023-11-07T00:00:00	2024-11-08T16:00:00	3	Temperatura mínima	24.8
104812	7	Sololá	704	Santa Lucía Utatlán 	7	Santa Rita 	7	Julio	2023-11-07T00:00:00	2024-11-08T16:00:00	5	Humedad	62
104813	7	Sololá	704	Santa Lucía Utatlán 	7	Santa Rita 	7	Julio	2023-11-07T00:00:00	2024-11-08T16:00:00	6	Velocidad del viento	11.3
104814	7	Sololá	704	Santa Lucía Utatlán 	7	Santa Rita 	7	Julio	2023-11-07T00:00:00	2024-11-08T16:00:00	7	Dirección del viento	11.27
104815	7	Sololá	704	Santa Lucía Utatlán 	7	Santa Rita 	7	Julio	2023-11-07T00:00:00	2024-11-08T16:00:00	1	Precipitación	0
104816	7	Sololá	704	Santa Lucía Utatlán 	7	Santa Rita 	7	Julio	2023-11-07T00:00:00	2024-11-08T16:00:00	8	Radiación solar	459
104817	7	Sololá	704	Santa Lucía Utatlán 	7	Santa Rita 	7	Julio	2023-11-07T00:00:00	2024-11-08T17:00:00	2	Temperatura media	23.8
104818	7	Sololá	704	Santa Lucía Utatlán 	7	Santa Rita 	7	Julio	2023-11-07T00:00:00	2024-11-08T17:00:00	4	Temperatura máxima	24.9
104819	7	Sololá	704	Santa Lucía Utatlán 	7	Santa Rita 	7	Julio	2023-11-07T00:00:00	2024-11-08T17:00:00	3	Temperatura mínima	23.7
104820	7	Sololá	704	Santa Lucía Utatlán 	7	Santa Rita 	7	Julio	2023-11-07T00:00:00	2024-11-08T17:00:00	5	Humedad	69
104821	7	Sololá	704	Santa Lucía Utatlán 	7	Santa Rita 	7	Julio	2023-11-07T00:00:00	2024-11-08T17:00:00	6	Velocidad del viento	6.4
104822	7	Sololá	704	Santa Lucía Utatlán 	7	Santa Rita 	7	Julio	2023-11-07T00:00:00	2024-11-08T17:00:00	7	Dirección del viento	6.44
104823	7	Sololá	704	Santa Lucía Utatlán 	7	Santa Rita 	7	Julio	2023-11-07T00:00:00	2024-11-08T17:00:00	1	Precipitación	0
104824	7	Sololá	704	Santa Lucía Utatlán 	7	Santa Rita 	7	Julio	2023-11-07T00:00:00	2024-11-08T17:00:00	8	Radiación solar	143
104825	7	Sololá	704	Santa Lucía Utatlán 	7	Santa Rita 	7	Julio	2023-11-07T00:00:00	2024-11-08T18:00:00	2	Temperatura media	22.9
104826	7	Sololá	704	Santa Lucía Utatlán 	7	Santa Rita 	7	Julio	2023-11-07T00:00:00	2024-11-08T18:00:00	4	Temperatura máxima	23.8
104827	7	Sololá	704	Santa Lucía Utatlán 	7	Santa Rita 	7	Julio	2023-11-07T00:00:00	2024-11-08T18:00:00	3	Temperatura mínima	22.9
104828	7	Sololá	704	Santa Lucía Utatlán 	7	Santa Rita 	7	Julio	2023-11-07T00:00:00	2024-11-08T18:00:00	5	Humedad	72
104829	7	Sololá	704	Santa Lucía Utatlán 	7	Santa Rita 	7	Julio	2023-11-07T00:00:00	2024-11-08T18:00:00	6	Velocidad del viento	6.4
104830	7	Sololá	704	Santa Lucía Utatlán 	7	Santa Rita 	7	Julio	2023-11-07T00:00:00	2024-11-08T18:00:00	7	Dirección del viento	6.44
104831	7	Sololá	704	Santa Lucía Utatlán 	7	Santa Rita 	7	Julio	2023-11-07T00:00:00	2024-11-08T18:00:00	1	Precipitación	0
104832	7	Sololá	704	Santa Lucía Utatlán 	7	Santa Rita 	7	Julio	2023-11-07T00:00:00	2024-11-08T18:00:00	8	Radiación solar	33
104833	7	Sololá	704	Santa Lucía Utatlán 	7	Santa Rita 	7	Julio	2023-11-07T00:00:00	2024-11-08T19:00:00	2	Temperatura media	21.1
104834	7	Sololá	704	Santa Lucía Utatlán 	7	Santa Rita 	7	Julio	2023-11-07T00:00:00	2024-11-08T19:00:00	4	Temperatura máxima	22.9
104835	7	Sololá	704	Santa Lucía Utatlán 	7	Santa Rita 	7	Julio	2023-11-07T00:00:00	2024-11-08T19:00:00	3	Temperatura mínima	21.1
104836	7	Sololá	704	Santa Lucía Utatlán 	7	Santa Rita 	7	Julio	2023-11-07T00:00:00	2024-11-08T19:00:00	5	Humedad	81
104837	7	Sololá	704	Santa Lucía Utatlán 	7	Santa Rita 	7	Julio	2023-11-07T00:00:00	2024-11-08T19:00:00	6	Velocidad del viento	6.4
104838	7	Sololá	704	Santa Lucía Utatlán 	7	Santa Rita 	7	Julio	2023-11-07T00:00:00	2024-11-08T19:00:00	7	Dirección del viento	6.44
104839	7	Sololá	704	Santa Lucía Utatlán 	7	Santa Rita 	7	Julio	2023-11-07T00:00:00	2024-11-08T19:00:00	1	Precipitación	0
104840	7	Sololá	704	Santa Lucía Utatlán 	7	Santa Rita 	7	Julio	2023-11-07T00:00:00	2024-11-08T19:00:00	8	Radiación solar	0
104841	7	Sololá	704	Santa Lucía Utatlán 	7	Santa Rita 	7	Julio	2023-11-07T00:00:00	2024-11-08T20:00:00	2	Temperatura media	20.6
104842	7	Sololá	704	Santa Lucía Utatlán 	7	Santa Rita 	7	Julio	2023-11-07T00:00:00	2024-11-08T20:00:00	4	Temperatura máxima	21.1
104843	7	Sololá	704	Santa Lucía Utatlán 	7	Santa Rita 	7	Julio	2023-11-07T00:00:00	2024-11-08T20:00:00	3	Temperatura mínima	19.9
104844	7	Sololá	704	Santa Lucía Utatlán 	7	Santa Rita 	7	Julio	2023-11-07T00:00:00	2024-11-08T20:00:00	5	Humedad	80
104845	7	Sololá	704	Santa Lucía Utatlán 	7	Santa Rita 	7	Julio	2023-11-07T00:00:00	2024-11-08T20:00:00	6	Velocidad del viento	3.2
104846	7	Sololá	704	Santa Lucía Utatlán 	7	Santa Rita 	7	Julio	2023-11-07T00:00:00	2024-11-08T20:00:00	7	Dirección del viento	3.22
104847	7	Sololá	704	Santa Lucía Utatlán 	7	Santa Rita 	7	Julio	2023-11-07T00:00:00	2024-11-08T20:00:00	1	Precipitación	0
104848	7	Sololá	704	Santa Lucía Utatlán 	7	Santa Rita 	7	Julio	2023-11-07T00:00:00	2024-11-08T20:00:00	8	Radiación solar	0
104849	7	Sololá	704	Santa Lucía Utatlán 	7	Santa Rita 	7	Julio	2023-11-07T00:00:00	2024-11-08T21:00:00	2	Temperatura media	21.6
104850	7	Sololá	704	Santa Lucía Utatlán 	7	Santa Rita 	7	Julio	2023-11-07T00:00:00	2024-11-08T21:00:00	4	Temperatura máxima	21.6
104851	7	Sololá	704	Santa Lucía Utatlán 	7	Santa Rita 	7	Julio	2023-11-07T00:00:00	2024-11-08T21:00:00	3	Temperatura mínima	20.4
104852	7	Sololá	704	Santa Lucía Utatlán 	7	Santa Rita 	7	Julio	2023-11-07T00:00:00	2024-11-08T21:00:00	5	Humedad	70
104853	7	Sololá	704	Santa Lucía Utatlán 	7	Santa Rita 	7	Julio	2023-11-07T00:00:00	2024-11-08T21:00:00	6	Velocidad del viento	4.8
104854	7	Sololá	704	Santa Lucía Utatlán 	7	Santa Rita 	7	Julio	2023-11-07T00:00:00	2024-11-08T21:00:00	7	Dirección del viento	4.83
104855	7	Sololá	704	Santa Lucía Utatlán 	7	Santa Rita 	7	Julio	2023-11-07T00:00:00	2024-11-08T21:00:00	1	Precipitación	0
104856	7	Sololá	704	Santa Lucía Utatlán 	7	Santa Rita 	7	Julio	2023-11-07T00:00:00	2024-11-08T21:00:00	8	Radiación solar	0
104857	7	Sololá	704	Santa Lucía Utatlán 	7	Santa Rita 	7	Julio	2023-11-07T00:00:00	2024-11-08T22:00:00	2	Temperatura media	21.6
104858	7	Sololá	704	Santa Lucía Utatlán 	7	Santa Rita 	7	Julio	2023-11-07T00:00:00	2024-11-08T22:00:00	4	Temperatura máxima	22
104859	7	Sololá	704	Santa Lucía Utatlán 	7	Santa Rita 	7	Julio	2023-11-07T00:00:00	2024-11-08T22:00:00	3	Temperatura mínima	21.6
104860	7	Sololá	704	Santa Lucía Utatlán 	7	Santa Rita 	7	Julio	2023-11-07T00:00:00	2024-11-08T22:00:00	5	Humedad	72
104861	7	Sololá	704	Santa Lucía Utatlán 	7	Santa Rita 	7	Julio	2023-11-07T00:00:00	2024-11-08T22:00:00	6	Velocidad del viento	9.7
104862	7	Sololá	704	Santa Lucía Utatlán 	7	Santa Rita 	7	Julio	2023-11-07T00:00:00	2024-11-08T22:00:00	7	Dirección del viento	9.66
104863	7	Sololá	704	Santa Lucía Utatlán 	7	Santa Rita 	7	Julio	2023-11-07T00:00:00	2024-11-08T22:00:00	1	Precipitación	0
104864	7	Sololá	704	Santa Lucía Utatlán 	7	Santa Rita 	7	Julio	2023-11-07T00:00:00	2024-11-08T22:00:00	8	Radiación solar	0
104865	7	Sololá	704	Santa Lucía Utatlán 	7	Santa Rita 	7	Julio	2023-11-07T00:00:00	2024-11-08T23:00:00	2	Temperatura media	21.5
104866	7	Sololá	704	Santa Lucía Utatlán 	7	Santa Rita 	7	Julio	2023-11-07T00:00:00	2024-11-08T23:00:00	4	Temperatura máxima	21.7
104867	7	Sololá	704	Santa Lucía Utatlán 	7	Santa Rita 	7	Julio	2023-11-07T00:00:00	2024-11-08T23:00:00	3	Temperatura mínima	21.4
104868	7	Sololá	704	Santa Lucía Utatlán 	7	Santa Rita 	7	Julio	2023-11-07T00:00:00	2024-11-08T23:00:00	5	Humedad	71
104869	7	Sololá	704	Santa Lucía Utatlán 	7	Santa Rita 	7	Julio	2023-11-07T00:00:00	2024-11-08T23:00:00	6	Velocidad del viento	12.9
104870	7	Sololá	704	Santa Lucía Utatlán 	7	Santa Rita 	7	Julio	2023-11-07T00:00:00	2024-11-08T23:00:00	7	Dirección del viento	12.87
104871	7	Sololá	704	Santa Lucía Utatlán 	7	Santa Rita 	7	Julio	2023-11-07T00:00:00	2024-11-08T23:00:00	1	Precipitación	0
104872	7	Sololá	704	Santa Lucía Utatlán 	7	Santa Rita 	7	Julio	2023-11-07T00:00:00	2024-11-08T23:00:00	8	Radiación solar	0
104873	7	Sololá	704	Santa Lucía Utatlán 	7	Santa Rita 	7	Julio	2023-12-07T00:00:00	2024-11-08T00:00:00	2	Temperatura media	20.7
104874	7	Sololá	704	Santa Lucía Utatlán 	7	Santa Rita 	7	Julio	2023-12-07T00:00:00	2024-11-08T00:00:00	4	Temperatura máxima	21.6
104875	7	Sololá	704	Santa Lucía Utatlán 	7	Santa Rita 	7	Julio	2023-12-07T00:00:00	2024-11-08T00:00:00	3	Temperatura mínima	19.8
104876	7	Sololá	704	Santa Lucía Utatlán 	7	Santa Rita 	7	Julio	2023-12-07T00:00:00	2024-11-08T00:00:00	5	Humedad	73
104877	7	Sololá	704	Santa Lucía Utatlán 	7	Santa Rita 	7	Julio	2023-12-07T00:00:00	2024-11-08T00:00:00	6	Velocidad del viento	6.4
104878	7	Sololá	704	Santa Lucía Utatlán 	7	Santa Rita 	7	Julio	2023-12-07T00:00:00	2024-11-08T00:00:00	7	Dirección del viento	6.44
104879	7	Sololá	704	Santa Lucía Utatlán 	7	Santa Rita 	7	Julio	2023-12-07T00:00:00	2024-11-08T00:00:00	1	Precipitación	0
104880	7	Sololá	704	Santa Lucía Utatlán 	7	Santa Rita 	7	Julio	2023-12-07T00:00:00	2024-11-08T00:00:00	8	Radiación solar	0
104881	7	Sololá	704	Santa Lucía Utatlán 	7	Santa Rita 	7	Julio	2023-12-07T00:00:00	2024-11-08T01:00:00	2	Temperatura media	18.6
104882	7	Sololá	704	Santa Lucía Utatlán 	7	Santa Rita 	7	Julio	2023-12-07T00:00:00	2024-11-08T01:00:00	4	Temperatura máxima	20.8
104883	7	Sololá	704	Santa Lucía Utatlán 	7	Santa Rita 	7	Julio	2023-12-07T00:00:00	2024-11-08T01:00:00	3	Temperatura mínima	18.4
104884	7	Sololá	704	Santa Lucía Utatlán 	7	Santa Rita 	7	Julio	2023-12-07T00:00:00	2024-11-08T01:00:00	5	Humedad	80
104885	7	Sololá	704	Santa Lucía Utatlán 	7	Santa Rita 	7	Julio	2023-12-07T00:00:00	2024-11-08T01:00:00	6	Velocidad del viento	4.8
104886	7	Sololá	704	Santa Lucía Utatlán 	7	Santa Rita 	7	Julio	2023-12-07T00:00:00	2024-11-08T01:00:00	7	Dirección del viento	4.83
104887	7	Sololá	704	Santa Lucía Utatlán 	7	Santa Rita 	7	Julio	2023-12-07T00:00:00	2024-11-08T01:00:00	1	Precipitación	0
104888	7	Sololá	704	Santa Lucía Utatlán 	7	Santa Rita 	7	Julio	2023-12-07T00:00:00	2024-11-08T01:00:00	8	Radiación solar	0
104889	7	Sololá	704	Santa Lucía Utatlán 	7	Santa Rita 	7	Julio	2023-12-07T00:00:00	2024-11-08T02:00:00	2	Temperatura media	18.3
104890	7	Sololá	704	Santa Lucía Utatlán 	7	Santa Rita 	7	Julio	2023-12-07T00:00:00	2024-11-08T02:00:00	4	Temperatura máxima	18.9
104891	7	Sololá	704	Santa Lucía Utatlán 	7	Santa Rita 	7	Julio	2023-12-07T00:00:00	2024-11-08T02:00:00	3	Temperatura mínima	18.3
104892	7	Sololá	704	Santa Lucía Utatlán 	7	Santa Rita 	7	Julio	2023-12-07T00:00:00	2024-11-08T02:00:00	5	Humedad	74
104893	7	Sololá	704	Santa Lucía Utatlán 	7	Santa Rita 	7	Julio	2023-12-07T00:00:00	2024-11-08T02:00:00	6	Velocidad del viento	3.2
104894	7	Sololá	704	Santa Lucía Utatlán 	7	Santa Rita 	7	Julio	2023-12-07T00:00:00	2024-11-08T02:00:00	7	Dirección del viento	3.22
104895	7	Sololá	704	Santa Lucía Utatlán 	7	Santa Rita 	7	Julio	2023-12-07T00:00:00	2024-11-08T02:00:00	1	Precipitación	0
104896	7	Sololá	704	Santa Lucía Utatlán 	7	Santa Rita 	7	Julio	2023-12-07T00:00:00	2024-11-08T02:00:00	8	Radiación solar	0
104897	7	Sololá	704	Santa Lucía Utatlán 	7	Santa Rita 	7	Julio	2023-12-07T00:00:00	2024-11-08T03:00:00	2	Temperatura media	19.8
104898	7	Sololá	704	Santa Lucía Utatlán 	7	Santa Rita 	7	Julio	2023-12-07T00:00:00	2024-11-08T03:00:00	4	Temperatura máxima	19.8
104899	7	Sololá	704	Santa Lucía Utatlán 	7	Santa Rita 	7	Julio	2023-12-07T00:00:00	2024-11-08T03:00:00	3	Temperatura mínima	17.9
104900	7	Sololá	704	Santa Lucía Utatlán 	7	Santa Rita 	7	Julio	2023-12-07T00:00:00	2024-11-08T03:00:00	5	Humedad	75
104901	7	Sololá	704	Santa Lucía Utatlán 	7	Santa Rita 	7	Julio	2023-12-07T00:00:00	2024-11-08T03:00:00	6	Velocidad del viento	4.8
104902	7	Sololá	704	Santa Lucía Utatlán 	7	Santa Rita 	7	Julio	2023-12-07T00:00:00	2024-11-08T03:00:00	7	Dirección del viento	4.83
104903	7	Sololá	704	Santa Lucía Utatlán 	7	Santa Rita 	7	Julio	2023-12-07T00:00:00	2024-11-08T03:00:00	1	Precipitación	0
104904	7	Sololá	704	Santa Lucía Utatlán 	7	Santa Rita 	7	Julio	2023-12-07T00:00:00	2024-11-08T03:00:00	8	Radiación solar	0
104905	7	Sololá	704	Santa Lucía Utatlán 	7	Santa Rita 	7	Julio	2023-12-07T00:00:00	2024-11-08T04:00:00	2	Temperatura media	18.7
104906	7	Sololá	704	Santa Lucía Utatlán 	7	Santa Rita 	7	Julio	2023-12-07T00:00:00	2024-11-08T04:00:00	4	Temperatura máxima	20.6
104907	7	Sololá	704	Santa Lucía Utatlán 	7	Santa Rita 	7	Julio	2023-12-07T00:00:00	2024-11-08T04:00:00	3	Temperatura mínima	18.7
104908	7	Sololá	704	Santa Lucía Utatlán 	7	Santa Rita 	7	Julio	2023-12-07T00:00:00	2024-11-08T04:00:00	5	Humedad	80
104909	7	Sololá	704	Santa Lucía Utatlán 	7	Santa Rita 	7	Julio	2023-12-07T00:00:00	2024-11-08T04:00:00	6	Velocidad del viento	4.8
104910	7	Sololá	704	Santa Lucía Utatlán 	7	Santa Rita 	7	Julio	2023-12-07T00:00:00	2024-11-08T04:00:00	7	Dirección del viento	4.83
104911	7	Sololá	704	Santa Lucía Utatlán 	7	Santa Rita 	7	Julio	2023-12-07T00:00:00	2024-11-08T04:00:00	1	Precipitación	0
104912	7	Sololá	704	Santa Lucía Utatlán 	7	Santa Rita 	7	Julio	2023-12-07T00:00:00	2024-11-08T04:00:00	8	Radiación solar	0
104913	7	Sololá	704	Santa Lucía Utatlán 	7	Santa Rita 	7	Julio	2023-12-07T00:00:00	2024-11-08T05:00:00	2	Temperatura media	20.2
104914	7	Sololá	704	Santa Lucía Utatlán 	7	Santa Rita 	7	Julio	2023-12-07T00:00:00	2024-11-08T05:00:00	4	Temperatura máxima	20.4
104915	7	Sololá	704	Santa Lucía Utatlán 	7	Santa Rita 	7	Julio	2023-12-07T00:00:00	2024-11-08T05:00:00	3	Temperatura mínima	18.4
104916	7	Sololá	704	Santa Lucía Utatlán 	7	Santa Rita 	7	Julio	2023-12-07T00:00:00	2024-11-08T05:00:00	5	Humedad	77
104917	7	Sololá	704	Santa Lucía Utatlán 	7	Santa Rita 	7	Julio	2023-12-07T00:00:00	2024-11-08T05:00:00	6	Velocidad del viento	4.8
104918	7	Sololá	704	Santa Lucía Utatlán 	7	Santa Rita 	7	Julio	2023-12-07T00:00:00	2024-11-08T05:00:00	7	Dirección del viento	4.83
104919	7	Sololá	704	Santa Lucía Utatlán 	7	Santa Rita 	7	Julio	2023-12-07T00:00:00	2024-11-08T05:00:00	1	Precipitación	0
104920	7	Sololá	704	Santa Lucía Utatlán 	7	Santa Rita 	7	Julio	2023-12-07T00:00:00	2024-11-08T05:00:00	8	Radiación solar	0
104921	7	Sololá	704	Santa Lucía Utatlán 	7	Santa Rita 	7	Julio	2023-12-07T00:00:00	2024-11-08T06:00:00	2	Temperatura media	20
104922	7	Sololá	704	Santa Lucía Utatlán 	7	Santa Rita 	7	Julio	2023-12-07T00:00:00	2024-11-08T06:00:00	4	Temperatura máxima	20.2
104923	7	Sololá	704	Santa Lucía Utatlán 	7	Santa Rita 	7	Julio	2023-12-07T00:00:00	2024-11-08T06:00:00	3	Temperatura mínima	19.3
104924	7	Sololá	704	Santa Lucía Utatlán 	7	Santa Rita 	7	Julio	2023-12-07T00:00:00	2024-11-08T06:00:00	5	Humedad	80
104925	7	Sololá	704	Santa Lucía Utatlán 	7	Santa Rita 	7	Julio	2023-12-07T00:00:00	2024-11-08T06:00:00	6	Velocidad del viento	4.8
104926	7	Sololá	704	Santa Lucía Utatlán 	7	Santa Rita 	7	Julio	2023-12-07T00:00:00	2024-11-08T06:00:00	7	Dirección del viento	4.83
104927	7	Sololá	704	Santa Lucía Utatlán 	7	Santa Rita 	7	Julio	2023-12-07T00:00:00	2024-11-08T06:00:00	1	Precipitación	0
104928	7	Sololá	704	Santa Lucía Utatlán 	7	Santa Rita 	7	Julio	2023-12-07T00:00:00	2024-11-08T06:00:00	8	Radiación solar	3
104929	7	Sololá	704	Santa Lucía Utatlán 	7	Santa Rita 	7	Julio	2023-12-07T00:00:00	2024-11-08T07:00:00	2	Temperatura media	20.7
104930	7	Sololá	704	Santa Lucía Utatlán 	7	Santa Rita 	7	Julio	2023-12-07T00:00:00	2024-11-08T07:00:00	4	Temperatura máxima	20.9
104931	7	Sololá	704	Santa Lucía Utatlán 	7	Santa Rita 	7	Julio	2023-12-07T00:00:00	2024-11-08T07:00:00	3	Temperatura mínima	19.8
104932	7	Sololá	704	Santa Lucía Utatlán 	7	Santa Rita 	7	Julio	2023-12-07T00:00:00	2024-11-08T07:00:00	5	Humedad	74
104933	7	Sololá	704	Santa Lucía Utatlán 	7	Santa Rita 	7	Julio	2023-12-07T00:00:00	2024-11-08T07:00:00	6	Velocidad del viento	9.7
104934	7	Sololá	704	Santa Lucía Utatlán 	7	Santa Rita 	7	Julio	2023-12-07T00:00:00	2024-11-08T07:00:00	7	Dirección del viento	9.66
104935	7	Sololá	704	Santa Lucía Utatlán 	7	Santa Rita 	7	Julio	2023-12-07T00:00:00	2024-11-08T07:00:00	1	Precipitación	0
104936	7	Sololá	704	Santa Lucía Utatlán 	7	Santa Rita 	7	Julio	2023-12-07T00:00:00	2024-11-08T07:00:00	8	Radiación solar	76
104937	7	Sololá	704	Santa Lucía Utatlán 	7	Santa Rita 	7	Julio	2023-12-07T00:00:00	2024-11-08T08:00:00	2	Temperatura media	21.3
104938	7	Sololá	704	Santa Lucía Utatlán 	7	Santa Rita 	7	Julio	2023-12-07T00:00:00	2024-11-08T08:00:00	4	Temperatura máxima	22.1
104939	7	Sololá	704	Santa Lucía Utatlán 	7	Santa Rita 	7	Julio	2023-12-07T00:00:00	2024-11-08T08:00:00	3	Temperatura mínima	20.7
104940	7	Sololá	704	Santa Lucía Utatlán 	7	Santa Rita 	7	Julio	2023-12-07T00:00:00	2024-11-08T08:00:00	5	Humedad	72
104941	7	Sololá	704	Santa Lucía Utatlán 	7	Santa Rita 	7	Julio	2023-12-07T00:00:00	2024-11-08T08:00:00	6	Velocidad del viento	9.7
104942	7	Sololá	704	Santa Lucía Utatlán 	7	Santa Rita 	7	Julio	2023-12-07T00:00:00	2024-11-08T08:00:00	7	Dirección del viento	9.66
104943	7	Sololá	704	Santa Lucía Utatlán 	7	Santa Rita 	7	Julio	2023-12-07T00:00:00	2024-11-08T08:00:00	1	Precipitación	0
104944	7	Sololá	704	Santa Lucía Utatlán 	7	Santa Rita 	7	Julio	2023-12-07T00:00:00	2024-11-08T08:00:00	8	Radiación solar	231
104945	7	Sololá	704	Santa Lucía Utatlán 	7	Santa Rita 	7	Julio	2023-12-07T00:00:00	2024-11-08T09:00:00	2	Temperatura media	23.7
104946	7	Sololá	704	Santa Lucía Utatlán 	7	Santa Rita 	7	Julio	2023-12-07T00:00:00	2024-11-08T09:00:00	4	Temperatura máxima	23.7
104947	7	Sololá	704	Santa Lucía Utatlán 	7	Santa Rita 	7	Julio	2023-12-07T00:00:00	2024-11-08T09:00:00	3	Temperatura mínima	21.3
104948	7	Sololá	704	Santa Lucía Utatlán 	7	Santa Rita 	7	Julio	2023-12-07T00:00:00	2024-11-08T09:00:00	5	Humedad	59
104949	7	Sololá	704	Santa Lucía Utatlán 	7	Santa Rita 	7	Julio	2023-12-07T00:00:00	2024-11-08T09:00:00	6	Velocidad del viento	6.4
104950	7	Sololá	704	Santa Lucía Utatlán 	7	Santa Rita 	7	Julio	2023-12-07T00:00:00	2024-11-08T09:00:00	7	Dirección del viento	6.44
104951	7	Sololá	704	Santa Lucía Utatlán 	7	Santa Rita 	7	Julio	2023-12-07T00:00:00	2024-11-08T09:00:00	1	Precipitación	0
104952	7	Sololá	704	Santa Lucía Utatlán 	7	Santa Rita 	7	Julio	2023-12-07T00:00:00	2024-11-08T09:00:00	8	Radiación solar	458
104953	7	Sololá	704	Santa Lucía Utatlán 	7	Santa Rita 	7	Julio	2023-12-07T00:00:00	2024-11-08T10:00:00	2	Temperatura media	23.6
104954	7	Sololá	704	Santa Lucía Utatlán 	7	Santa Rita 	7	Julio	2023-12-07T00:00:00	2024-11-08T10:00:00	4	Temperatura máxima	23.9
104955	7	Sololá	704	Santa Lucía Utatlán 	7	Santa Rita 	7	Julio	2023-12-07T00:00:00	2024-11-08T10:00:00	3	Temperatura mínima	23.3
104956	7	Sololá	704	Santa Lucía Utatlán 	7	Santa Rita 	7	Julio	2023-12-07T00:00:00	2024-11-08T10:00:00	5	Humedad	63
104957	7	Sololá	704	Santa Lucía Utatlán 	7	Santa Rita 	7	Julio	2023-12-07T00:00:00	2024-11-08T10:00:00	6	Velocidad del viento	11.3
104958	7	Sololá	704	Santa Lucía Utatlán 	7	Santa Rita 	7	Julio	2023-12-07T00:00:00	2024-11-08T10:00:00	7	Dirección del viento	11.27
104959	7	Sololá	704	Santa Lucía Utatlán 	7	Santa Rita 	7	Julio	2023-12-07T00:00:00	2024-11-08T10:00:00	1	Precipitación	0
104960	7	Sololá	704	Santa Lucía Utatlán 	7	Santa Rita 	7	Julio	2023-12-07T00:00:00	2024-11-08T10:00:00	8	Radiación solar	759
104961	7	Sololá	704	Santa Lucía Utatlán 	7	Santa Rita 	7	Julio	2023-12-07T00:00:00	2024-11-08T11:00:00	2	Temperatura media	24.2
104962	7	Sololá	704	Santa Lucía Utatlán 	7	Santa Rita 	7	Julio	2023-12-07T00:00:00	2024-11-08T11:00:00	4	Temperatura máxima	24.2
104963	7	Sololá	704	Santa Lucía Utatlán 	7	Santa Rita 	7	Julio	2023-12-07T00:00:00	2024-11-08T11:00:00	3	Temperatura mínima	23.5
104964	7	Sololá	704	Santa Lucía Utatlán 	7	Santa Rita 	7	Julio	2023-12-07T00:00:00	2024-11-08T11:00:00	5	Humedad	67
104965	7	Sololá	704	Santa Lucía Utatlán 	7	Santa Rita 	7	Julio	2023-12-07T00:00:00	2024-11-08T11:00:00	6	Velocidad del viento	11.3
104966	7	Sololá	704	Santa Lucía Utatlán 	7	Santa Rita 	7	Julio	2023-12-07T00:00:00	2024-11-08T11:00:00	7	Dirección del viento	11.27
104967	7	Sololá	704	Santa Lucía Utatlán 	7	Santa Rita 	7	Julio	2023-12-07T00:00:00	2024-11-08T11:00:00	1	Precipitación	0
104968	7	Sololá	704	Santa Lucía Utatlán 	7	Santa Rita 	7	Julio	2023-12-07T00:00:00	2024-11-08T11:00:00	8	Radiación solar	890
104969	7	Sololá	704	Santa Lucía Utatlán 	7	Santa Rita 	7	Julio	2023-12-07T00:00:00	2024-11-08T12:00:00	2	Temperatura media	23.8
104970	7	Sololá	704	Santa Lucía Utatlán 	7	Santa Rita 	7	Julio	2023-12-07T00:00:00	2024-11-08T12:00:00	4	Temperatura máxima	24.6
104971	7	Sololá	704	Santa Lucía Utatlán 	7	Santa Rita 	7	Julio	2023-12-07T00:00:00	2024-11-08T12:00:00	3	Temperatura mínima	23.8
104972	7	Sololá	704	Santa Lucía Utatlán 	7	Santa Rita 	7	Julio	2023-12-07T00:00:00	2024-11-08T12:00:00	5	Humedad	66
104973	7	Sololá	704	Santa Lucía Utatlán 	7	Santa Rita 	7	Julio	2023-12-07T00:00:00	2024-11-08T12:00:00	6	Velocidad del viento	11.3
104974	7	Sololá	704	Santa Lucía Utatlán 	7	Santa Rita 	7	Julio	2023-12-07T00:00:00	2024-11-08T12:00:00	7	Dirección del viento	11.27
104975	7	Sololá	704	Santa Lucía Utatlán 	7	Santa Rita 	7	Julio	2023-12-07T00:00:00	2024-11-08T12:00:00	1	Precipitación	0
104976	7	Sololá	704	Santa Lucía Utatlán 	7	Santa Rita 	7	Julio	2023-12-07T00:00:00	2024-11-08T12:00:00	8	Radiación solar	760
104977	7	Sololá	704	Santa Lucía Utatlán 	7	Santa Rita 	7	Julio	2023-12-07T00:00:00	2024-11-08T13:00:00	2	Temperatura media	24.9
104978	7	Sololá	704	Santa Lucía Utatlán 	7	Santa Rita 	7	Julio	2023-12-07T00:00:00	2024-11-08T13:00:00	4	Temperatura máxima	25.3
104979	7	Sololá	704	Santa Lucía Utatlán 	7	Santa Rita 	7	Julio	2023-12-07T00:00:00	2024-11-08T13:00:00	3	Temperatura mínima	23.8
104980	7	Sololá	704	Santa Lucía Utatlán 	7	Santa Rita 	7	Julio	2023-12-07T00:00:00	2024-11-08T13:00:00	5	Humedad	59
104981	7	Sololá	704	Santa Lucía Utatlán 	7	Santa Rita 	7	Julio	2023-12-07T00:00:00	2024-11-08T13:00:00	6	Velocidad del viento	11.3
104982	7	Sololá	704	Santa Lucía Utatlán 	7	Santa Rita 	7	Julio	2023-12-07T00:00:00	2024-11-08T13:00:00	7	Dirección del viento	11.27
104983	7	Sololá	704	Santa Lucía Utatlán 	7	Santa Rita 	7	Julio	2023-12-07T00:00:00	2024-11-08T13:00:00	1	Precipitación	0
104984	7	Sololá	704	Santa Lucía Utatlán 	7	Santa Rita 	7	Julio	2023-12-07T00:00:00	2024-11-08T13:00:00	8	Radiación solar	1018
104985	7	Sololá	704	Santa Lucía Utatlán 	7	Santa Rita 	7	Julio	2023-12-07T00:00:00	2024-11-08T14:00:00	2	Temperatura media	25.2
104986	7	Sololá	704	Santa Lucía Utatlán 	7	Santa Rita 	7	Julio	2023-12-07T00:00:00	2024-11-08T14:00:00	4	Temperatura máxima	25.7
104987	7	Sololá	704	Santa Lucía Utatlán 	7	Santa Rita 	7	Julio	2023-12-07T00:00:00	2024-11-08T14:00:00	3	Temperatura mínima	24.8
104988	7	Sololá	704	Santa Lucía Utatlán 	7	Santa Rita 	7	Julio	2023-12-07T00:00:00	2024-11-08T14:00:00	5	Humedad	59
104989	7	Sololá	704	Santa Lucía Utatlán 	7	Santa Rita 	7	Julio	2023-12-07T00:00:00	2024-11-08T14:00:00	6	Velocidad del viento	11.3
104990	7	Sololá	704	Santa Lucía Utatlán 	7	Santa Rita 	7	Julio	2023-12-07T00:00:00	2024-11-08T14:00:00	7	Dirección del viento	11.27
104991	7	Sololá	704	Santa Lucía Utatlán 	7	Santa Rita 	7	Julio	2023-12-07T00:00:00	2024-11-08T14:00:00	1	Precipitación	0
104992	7	Sololá	704	Santa Lucía Utatlán 	7	Santa Rita 	7	Julio	2023-12-07T00:00:00	2024-11-08T14:00:00	8	Radiación solar	904
104993	7	Sololá	704	Santa Lucía Utatlán 	7	Santa Rita 	7	Julio	2023-12-07T00:00:00	2024-11-08T15:00:00	2	Temperatura media	25.3
104994	7	Sololá	704	Santa Lucía Utatlán 	7	Santa Rita 	7	Julio	2023-12-07T00:00:00	2024-11-08T15:00:00	4	Temperatura máxima	25.6
104995	7	Sololá	704	Santa Lucía Utatlán 	7	Santa Rita 	7	Julio	2023-12-07T00:00:00	2024-11-08T15:00:00	3	Temperatura mínima	25
104996	7	Sololá	704	Santa Lucía Utatlán 	7	Santa Rita 	7	Julio	2023-12-07T00:00:00	2024-11-08T15:00:00	5	Humedad	58
104997	7	Sololá	704	Santa Lucía Utatlán 	7	Santa Rita 	7	Julio	2023-12-07T00:00:00	2024-11-08T15:00:00	6	Velocidad del viento	9.7
104998	7	Sololá	704	Santa Lucía Utatlán 	7	Santa Rita 	7	Julio	2023-12-07T00:00:00	2024-11-08T15:00:00	7	Dirección del viento	9.66
104999	7	Sololá	704	Santa Lucía Utatlán 	7	Santa Rita 	7	Julio	2023-12-07T00:00:00	2024-11-08T15:00:00	1	Precipitación	0
105000	7	Sololá	704	Santa Lucía Utatlán 	7	Santa Rita 	7	Julio	2023-12-07T00:00:00	2024-11-08T15:00:00	8	Radiación solar	668
105001	7	Sololá	704	Santa Lucía Utatlán 	7	Santa Rita 	7	Julio	2023-12-07T00:00:00	2024-11-08T16:00:00	2	Temperatura media	25.4
105002	7	Sololá	704	Santa Lucía Utatlán 	7	Santa Rita 	7	Julio	2023-12-07T00:00:00	2024-11-08T16:00:00	4	Temperatura máxima	25.6
105003	7	Sololá	704	Santa Lucía Utatlán 	7	Santa Rita 	7	Julio	2023-12-07T00:00:00	2024-11-08T16:00:00	3	Temperatura mínima	25.1
105004	7	Sololá	704	Santa Lucía Utatlán 	7	Santa Rita 	7	Julio	2023-12-07T00:00:00	2024-11-08T16:00:00	5	Humedad	59
105005	7	Sololá	704	Santa Lucía Utatlán 	7	Santa Rita 	7	Julio	2023-12-07T00:00:00	2024-11-08T16:00:00	6	Velocidad del viento	9.7
105006	7	Sololá	704	Santa Lucía Utatlán 	7	Santa Rita 	7	Julio	2023-12-07T00:00:00	2024-11-08T16:00:00	7	Dirección del viento	9.66
105007	7	Sololá	704	Santa Lucía Utatlán 	7	Santa Rita 	7	Julio	2023-12-07T00:00:00	2024-11-08T16:00:00	1	Precipitación	0
105008	7	Sololá	704	Santa Lucía Utatlán 	7	Santa Rita 	7	Julio	2023-12-07T00:00:00	2024-11-08T16:00:00	8	Radiación solar	522
105009	7	Sololá	704	Santa Lucía Utatlán 	7	Santa Rita 	7	Julio	2023-12-07T00:00:00	2024-11-08T17:00:00	2	Temperatura media	24.8
105010	7	Sololá	704	Santa Lucía Utatlán 	7	Santa Rita 	7	Julio	2023-12-07T00:00:00	2024-11-08T17:00:00	4	Temperatura máxima	25.3
105011	7	Sololá	704	Santa Lucía Utatlán 	7	Santa Rita 	7	Julio	2023-12-07T00:00:00	2024-11-08T17:00:00	3	Temperatura mínima	24.8
105012	7	Sololá	704	Santa Lucía Utatlán 	7	Santa Rita 	7	Julio	2023-12-07T00:00:00	2024-11-08T17:00:00	5	Humedad	64
105013	7	Sololá	704	Santa Lucía Utatlán 	7	Santa Rita 	7	Julio	2023-12-07T00:00:00	2024-11-08T17:00:00	6	Velocidad del viento	8
105014	7	Sololá	704	Santa Lucía Utatlán 	7	Santa Rita 	7	Julio	2023-12-07T00:00:00	2024-11-08T17:00:00	7	Dirección del viento	8.05
105015	7	Sololá	704	Santa Lucía Utatlán 	7	Santa Rita 	7	Julio	2023-12-07T00:00:00	2024-11-08T17:00:00	1	Precipitación	0
105016	7	Sololá	704	Santa Lucía Utatlán 	7	Santa Rita 	7	Julio	2023-12-07T00:00:00	2024-11-08T17:00:00	8	Radiación solar	334
105017	7	Sololá	704	Santa Lucía Utatlán 	7	Santa Rita 	7	Julio	2023-12-07T00:00:00	2024-11-08T18:00:00	2	Temperatura media	23.5
105018	7	Sololá	704	Santa Lucía Utatlán 	7	Santa Rita 	7	Julio	2023-12-07T00:00:00	2024-11-08T18:00:00	4	Temperatura máxima	25
105019	7	Sololá	704	Santa Lucía Utatlán 	7	Santa Rita 	7	Julio	2023-12-07T00:00:00	2024-11-08T18:00:00	3	Temperatura mínima	23.5
105020	7	Sololá	704	Santa Lucía Utatlán 	7	Santa Rita 	7	Julio	2023-12-07T00:00:00	2024-11-08T18:00:00	5	Humedad	72
105021	7	Sololá	704	Santa Lucía Utatlán 	7	Santa Rita 	7	Julio	2023-12-07T00:00:00	2024-11-08T18:00:00	6	Velocidad del viento	6.4
105022	7	Sololá	704	Santa Lucía Utatlán 	7	Santa Rita 	7	Julio	2023-12-07T00:00:00	2024-11-08T18:00:00	7	Dirección del viento	6.44
105023	7	Sololá	704	Santa Lucía Utatlán 	7	Santa Rita 	7	Julio	2023-12-07T00:00:00	2024-11-08T18:00:00	1	Precipitación	0
105024	7	Sololá	704	Santa Lucía Utatlán 	7	Santa Rita 	7	Julio	2023-12-07T00:00:00	2024-11-08T18:00:00	8	Radiación solar	170
105025	7	Sololá	704	Santa Lucía Utatlán 	7	Santa Rita 	7	Julio	2023-12-07T00:00:00	2024-11-08T19:00:00	2	Temperatura media	21.8
105026	7	Sololá	704	Santa Lucía Utatlán 	7	Santa Rita 	7	Julio	2023-12-07T00:00:00	2024-11-08T19:00:00	4	Temperatura máxima	23.5
105027	7	Sololá	704	Santa Lucía Utatlán 	7	Santa Rita 	7	Julio	2023-12-07T00:00:00	2024-11-08T19:00:00	3	Temperatura mínima	21.8
105028	7	Sololá	704	Santa Lucía Utatlán 	7	Santa Rita 	7	Julio	2023-12-07T00:00:00	2024-11-08T19:00:00	5	Humedad	84
105029	7	Sololá	704	Santa Lucía Utatlán 	7	Santa Rita 	7	Julio	2023-12-07T00:00:00	2024-11-08T19:00:00	6	Velocidad del viento	4.8
105030	7	Sololá	704	Santa Lucía Utatlán 	7	Santa Rita 	7	Julio	2023-12-07T00:00:00	2024-11-08T19:00:00	7	Dirección del viento	4.83
105031	7	Sololá	704	Santa Lucía Utatlán 	7	Santa Rita 	7	Julio	2023-12-07T00:00:00	2024-11-08T19:00:00	1	Precipitación	0
105032	7	Sololá	704	Santa Lucía Utatlán 	7	Santa Rita 	7	Julio	2023-12-07T00:00:00	2024-11-08T19:00:00	8	Radiación solar	0
105033	7	Sololá	704	Santa Lucía Utatlán 	7	Santa Rita 	7	Julio	2023-12-07T00:00:00	2024-11-08T20:00:00	2	Temperatura media	20.6
105034	7	Sololá	704	Santa Lucía Utatlán 	7	Santa Rita 	7	Julio	2023-12-07T00:00:00	2024-11-08T20:00:00	4	Temperatura máxima	21.8
105035	7	Sololá	704	Santa Lucía Utatlán 	7	Santa Rita 	7	Julio	2023-12-07T00:00:00	2024-11-08T20:00:00	3	Temperatura mínima	20.6
105036	7	Sololá	704	Santa Lucía Utatlán 	7	Santa Rita 	7	Julio	2023-12-07T00:00:00	2024-11-08T20:00:00	5	Humedad	82
105037	7	Sololá	704	Santa Lucía Utatlán 	7	Santa Rita 	7	Julio	2023-12-07T00:00:00	2024-11-08T20:00:00	6	Velocidad del viento	4.8
105038	7	Sololá	704	Santa Lucía Utatlán 	7	Santa Rita 	7	Julio	2023-12-07T00:00:00	2024-11-08T20:00:00	7	Dirección del viento	4.83
105039	7	Sololá	704	Santa Lucía Utatlán 	7	Santa Rita 	7	Julio	2023-12-07T00:00:00	2024-11-08T20:00:00	1	Precipitación	0.8
105040	7	Sololá	704	Santa Lucía Utatlán 	7	Santa Rita 	7	Julio	2023-12-07T00:00:00	2024-11-08T20:00:00	8	Radiación solar	0
105041	7	Sololá	704	Santa Lucía Utatlán 	7	Santa Rita 	7	Julio	2023-12-07T00:00:00	2024-11-08T21:00:00	2	Temperatura media	18.8
105042	7	Sololá	704	Santa Lucía Utatlán 	7	Santa Rita 	7	Julio	2023-12-07T00:00:00	2024-11-08T21:00:00	4	Temperatura máxima	20.6
105043	7	Sololá	704	Santa Lucía Utatlán 	7	Santa Rita 	7	Julio	2023-12-07T00:00:00	2024-11-08T21:00:00	3	Temperatura mínima	18.6
105044	7	Sololá	704	Santa Lucía Utatlán 	7	Santa Rita 	7	Julio	2023-12-07T00:00:00	2024-11-08T21:00:00	5	Humedad	87
105045	7	Sololá	704	Santa Lucía Utatlán 	7	Santa Rita 	7	Julio	2023-12-07T00:00:00	2024-11-08T21:00:00	6	Velocidad del viento	6.4
105046	7	Sololá	704	Santa Lucía Utatlán 	7	Santa Rita 	7	Julio	2023-12-07T00:00:00	2024-11-08T21:00:00	7	Dirección del viento	6.44
105047	7	Sololá	704	Santa Lucía Utatlán 	7	Santa Rita 	7	Julio	2023-12-07T00:00:00	2024-11-08T21:00:00	1	Precipitación	6
105048	7	Sololá	704	Santa Lucía Utatlán 	7	Santa Rita 	7	Julio	2023-12-07T00:00:00	2024-11-08T21:00:00	8	Radiación solar	0
105049	7	Sololá	704	Santa Lucía Utatlán 	7	Santa Rita 	7	Julio	2023-12-07T00:00:00	2024-11-08T22:00:00	2	Temperatura media	18.1
105050	7	Sololá	704	Santa Lucía Utatlán 	7	Santa Rita 	7	Julio	2023-12-07T00:00:00	2024-11-08T22:00:00	4	Temperatura máxima	19.4
105051	7	Sololá	704	Santa Lucía Utatlán 	7	Santa Rita 	7	Julio	2023-12-07T00:00:00	2024-11-08T22:00:00	3	Temperatura mínima	18.1
105052	7	Sololá	704	Santa Lucía Utatlán 	7	Santa Rita 	7	Julio	2023-12-07T00:00:00	2024-11-08T22:00:00	5	Humedad	92
105053	7	Sololá	704	Santa Lucía Utatlán 	7	Santa Rita 	7	Julio	2023-12-07T00:00:00	2024-11-08T22:00:00	6	Velocidad del viento	4.8
105054	7	Sololá	704	Santa Lucía Utatlán 	7	Santa Rita 	7	Julio	2023-12-07T00:00:00	2024-11-08T22:00:00	7	Dirección del viento	4.83
105055	7	Sololá	704	Santa Lucía Utatlán 	7	Santa Rita 	7	Julio	2023-12-07T00:00:00	2024-11-08T22:00:00	1	Precipitación	2.8
105056	7	Sololá	704	Santa Lucía Utatlán 	7	Santa Rita 	7	Julio	2023-12-07T00:00:00	2024-11-08T22:00:00	8	Radiación solar	0
105057	7	Sololá	704	Santa Lucía Utatlán 	7	Santa Rita 	7	Julio	2023-12-07T00:00:00	2024-11-08T23:00:00	2	Temperatura media	18.1
105058	7	Sololá	704	Santa Lucía Utatlán 	7	Santa Rita 	7	Julio	2023-12-07T00:00:00	2024-11-08T23:00:00	4	Temperatura máxima	18.2
105059	7	Sololá	704	Santa Lucía Utatlán 	7	Santa Rita 	7	Julio	2023-12-07T00:00:00	2024-11-08T23:00:00	3	Temperatura mínima	17.9
105060	7	Sololá	704	Santa Lucía Utatlán 	7	Santa Rita 	7	Julio	2023-12-07T00:00:00	2024-11-08T23:00:00	5	Humedad	94
105061	7	Sololá	704	Santa Lucía Utatlán 	7	Santa Rita 	7	Julio	2023-12-07T00:00:00	2024-11-08T23:00:00	6	Velocidad del viento	3.2
105062	7	Sololá	704	Santa Lucía Utatlán 	7	Santa Rita 	7	Julio	2023-12-07T00:00:00	2024-11-08T23:00:00	7	Dirección del viento	3.22
105063	7	Sololá	704	Santa Lucía Utatlán 	7	Santa Rita 	7	Julio	2023-12-07T00:00:00	2024-11-08T23:00:00	1	Precipitación	0
105064	7	Sololá	704	Santa Lucía Utatlán 	7	Santa Rita 	7	Julio	2023-12-07T00:00:00	2024-11-08T23:00:00	8	Radiación solar	0
105065	7	Sololá	704	Santa Lucía Utatlán 	7	Santa Rita 	7	Julio	2023-07-13T00:00:00	2024-11-08T00:00:00	2	Temperatura media	20.2
105066	7	Sololá	704	Santa Lucía Utatlán 	7	Santa Rita 	7	Julio	2023-07-13T00:00:00	2024-11-08T00:00:00	4	Temperatura máxima	20.2
105067	7	Sololá	704	Santa Lucía Utatlán 	7	Santa Rita 	7	Julio	2023-07-13T00:00:00	2024-11-08T00:00:00	3	Temperatura mínima	18
105068	7	Sololá	704	Santa Lucía Utatlán 	7	Santa Rita 	7	Julio	2023-07-13T00:00:00	2024-11-08T00:00:00	5	Humedad	84
105069	7	Sololá	704	Santa Lucía Utatlán 	7	Santa Rita 	7	Julio	2023-07-13T00:00:00	2024-11-08T00:00:00	6	Velocidad del viento	4.8
105070	7	Sololá	704	Santa Lucía Utatlán 	7	Santa Rita 	7	Julio	2023-07-13T00:00:00	2024-11-08T00:00:00	7	Dirección del viento	4.83
105071	7	Sololá	704	Santa Lucía Utatlán 	7	Santa Rita 	7	Julio	2023-07-13T00:00:00	2024-11-08T00:00:00	1	Precipitación	0
105072	7	Sololá	704	Santa Lucía Utatlán 	7	Santa Rita 	7	Julio	2023-07-13T00:00:00	2024-11-08T00:00:00	8	Radiación solar	0
105073	7	Sololá	704	Santa Lucía Utatlán 	7	Santa Rita 	7	Julio	2023-07-13T00:00:00	2024-11-08T01:00:00	2	Temperatura media	19.9
105074	7	Sololá	704	Santa Lucía Utatlán 	7	Santa Rita 	7	Julio	2023-07-13T00:00:00	2024-11-08T01:00:00	4	Temperatura máxima	20.2
105075	7	Sololá	704	Santa Lucía Utatlán 	7	Santa Rita 	7	Julio	2023-07-13T00:00:00	2024-11-08T01:00:00	3	Temperatura mínima	18.9
105076	7	Sololá	704	Santa Lucía Utatlán 	7	Santa Rita 	7	Julio	2023-07-13T00:00:00	2024-11-08T01:00:00	5	Humedad	81
105077	7	Sololá	704	Santa Lucía Utatlán 	7	Santa Rita 	7	Julio	2023-07-13T00:00:00	2024-11-08T01:00:00	6	Velocidad del viento	4.8
105078	7	Sololá	704	Santa Lucía Utatlán 	7	Santa Rita 	7	Julio	2023-07-13T00:00:00	2024-11-08T01:00:00	7	Dirección del viento	4.83
105079	7	Sololá	704	Santa Lucía Utatlán 	7	Santa Rita 	7	Julio	2023-07-13T00:00:00	2024-11-08T01:00:00	1	Precipitación	0
105080	7	Sololá	704	Santa Lucía Utatlán 	7	Santa Rita 	7	Julio	2023-07-13T00:00:00	2024-11-08T01:00:00	8	Radiación solar	0
105081	7	Sololá	704	Santa Lucía Utatlán 	7	Santa Rita 	7	Julio	2023-07-13T00:00:00	2024-11-08T02:00:00	2	Temperatura media	21.1
105082	7	Sololá	704	Santa Lucía Utatlán 	7	Santa Rita 	7	Julio	2023-07-13T00:00:00	2024-11-08T02:00:00	4	Temperatura máxima	22
105083	7	Sololá	704	Santa Lucía Utatlán 	7	Santa Rita 	7	Julio	2023-07-13T00:00:00	2024-11-08T02:00:00	3	Temperatura mínima	19.9
105084	7	Sololá	704	Santa Lucía Utatlán 	7	Santa Rita 	7	Julio	2023-07-13T00:00:00	2024-11-08T02:00:00	5	Humedad	68
105085	7	Sololá	704	Santa Lucía Utatlán 	7	Santa Rita 	7	Julio	2023-07-13T00:00:00	2024-11-08T02:00:00	6	Velocidad del viento	11.3
105086	7	Sololá	704	Santa Lucía Utatlán 	7	Santa Rita 	7	Julio	2023-07-13T00:00:00	2024-11-08T02:00:00	7	Dirección del viento	11.27
105087	7	Sololá	704	Santa Lucía Utatlán 	7	Santa Rita 	7	Julio	2023-07-13T00:00:00	2024-11-08T02:00:00	1	Precipitación	0
105088	7	Sololá	704	Santa Lucía Utatlán 	7	Santa Rita 	7	Julio	2023-07-13T00:00:00	2024-11-08T02:00:00	8	Radiación solar	0
105089	7	Sololá	704	Santa Lucía Utatlán 	7	Santa Rita 	7	Julio	2023-07-13T00:00:00	2024-11-08T03:00:00	2	Temperatura media	19.4
105090	7	Sololá	704	Santa Lucía Utatlán 	7	Santa Rita 	7	Julio	2023-07-13T00:00:00	2024-11-08T03:00:00	4	Temperatura máxima	21.4
105091	7	Sololá	704	Santa Lucía Utatlán 	7	Santa Rita 	7	Julio	2023-07-13T00:00:00	2024-11-08T03:00:00	3	Temperatura mínima	19.4
105092	7	Sololá	704	Santa Lucía Utatlán 	7	Santa Rita 	7	Julio	2023-07-13T00:00:00	2024-11-08T03:00:00	5	Humedad	71
105093	7	Sololá	704	Santa Lucía Utatlán 	7	Santa Rita 	7	Julio	2023-07-13T00:00:00	2024-11-08T03:00:00	6	Velocidad del viento	8
105094	7	Sololá	704	Santa Lucía Utatlán 	7	Santa Rita 	7	Julio	2023-07-13T00:00:00	2024-11-08T03:00:00	7	Dirección del viento	8.05
105095	7	Sololá	704	Santa Lucía Utatlán 	7	Santa Rita 	7	Julio	2023-07-13T00:00:00	2024-11-08T03:00:00	1	Precipitación	0
105096	7	Sololá	704	Santa Lucía Utatlán 	7	Santa Rita 	7	Julio	2023-07-13T00:00:00	2024-11-08T03:00:00	8	Radiación solar	0
105097	7	Sololá	704	Santa Lucía Utatlán 	7	Santa Rita 	7	Julio	2023-07-13T00:00:00	2024-11-08T04:00:00	2	Temperatura media	18.8
105098	7	Sololá	704	Santa Lucía Utatlán 	7	Santa Rita 	7	Julio	2023-07-13T00:00:00	2024-11-08T04:00:00	4	Temperatura máxima	20.1
105099	7	Sololá	704	Santa Lucía Utatlán 	7	Santa Rita 	7	Julio	2023-07-13T00:00:00	2024-11-08T04:00:00	3	Temperatura mínima	18.1
105100	7	Sololá	704	Santa Lucía Utatlán 	7	Santa Rita 	7	Julio	2023-07-13T00:00:00	2024-11-08T04:00:00	5	Humedad	76
105101	7	Sololá	704	Santa Lucía Utatlán 	7	Santa Rita 	7	Julio	2023-07-13T00:00:00	2024-11-08T04:00:00	6	Velocidad del viento	4.8
105102	7	Sololá	704	Santa Lucía Utatlán 	7	Santa Rita 	7	Julio	2023-07-13T00:00:00	2024-11-08T04:00:00	7	Dirección del viento	4.83
105103	7	Sololá	704	Santa Lucía Utatlán 	7	Santa Rita 	7	Julio	2023-07-13T00:00:00	2024-11-08T04:00:00	1	Precipitación	0
105104	7	Sololá	704	Santa Lucía Utatlán 	7	Santa Rita 	7	Julio	2023-07-13T00:00:00	2024-11-08T04:00:00	8	Radiación solar	0
105105	7	Sololá	704	Santa Lucía Utatlán 	7	Santa Rita 	7	Julio	2023-07-13T00:00:00	2024-11-08T05:00:00	2	Temperatura media	20.5
105106	7	Sololá	704	Santa Lucía Utatlán 	7	Santa Rita 	7	Julio	2023-07-13T00:00:00	2024-11-08T05:00:00	4	Temperatura máxima	20.6
105107	7	Sololá	704	Santa Lucía Utatlán 	7	Santa Rita 	7	Julio	2023-07-13T00:00:00	2024-11-08T05:00:00	3	Temperatura mínima	17.7
105108	7	Sololá	704	Santa Lucía Utatlán 	7	Santa Rita 	7	Julio	2023-07-13T00:00:00	2024-11-08T05:00:00	5	Humedad	68
105109	7	Sololá	704	Santa Lucía Utatlán 	7	Santa Rita 	7	Julio	2023-07-13T00:00:00	2024-11-08T05:00:00	6	Velocidad del viento	6.4
105110	7	Sololá	704	Santa Lucía Utatlán 	7	Santa Rita 	7	Julio	2023-07-13T00:00:00	2024-11-08T05:00:00	7	Dirección del viento	6.44
105111	7	Sololá	704	Santa Lucía Utatlán 	7	Santa Rita 	7	Julio	2023-07-13T00:00:00	2024-11-08T05:00:00	1	Precipitación	0
105112	7	Sololá	704	Santa Lucía Utatlán 	7	Santa Rita 	7	Julio	2023-07-13T00:00:00	2024-11-08T05:00:00	8	Radiación solar	0
105113	7	Sololá	704	Santa Lucía Utatlán 	7	Santa Rita 	7	Julio	2023-07-13T00:00:00	2024-11-08T06:00:00	2	Temperatura media	20.2
105114	7	Sololá	704	Santa Lucía Utatlán 	7	Santa Rita 	7	Julio	2023-07-13T00:00:00	2024-11-08T06:00:00	4	Temperatura máxima	20.6
105115	7	Sololá	704	Santa Lucía Utatlán 	7	Santa Rita 	7	Julio	2023-07-13T00:00:00	2024-11-08T06:00:00	3	Temperatura mínima	20.1
105116	7	Sololá	704	Santa Lucía Utatlán 	7	Santa Rita 	7	Julio	2023-07-13T00:00:00	2024-11-08T06:00:00	5	Humedad	76
105117	7	Sololá	704	Santa Lucía Utatlán 	7	Santa Rita 	7	Julio	2023-07-13T00:00:00	2024-11-08T06:00:00	6	Velocidad del viento	9.7
105118	7	Sololá	704	Santa Lucía Utatlán 	7	Santa Rita 	7	Julio	2023-07-13T00:00:00	2024-11-08T06:00:00	7	Dirección del viento	9.66
105119	7	Sololá	704	Santa Lucía Utatlán 	7	Santa Rita 	7	Julio	2023-07-13T00:00:00	2024-11-08T06:00:00	1	Precipitación	0
105120	7	Sololá	704	Santa Lucía Utatlán 	7	Santa Rita 	7	Julio	2023-07-13T00:00:00	2024-11-08T06:00:00	8	Radiación solar	3
105121	7	Sololá	704	Santa Lucía Utatlán 	7	Santa Rita 	7	Julio	2023-07-13T00:00:00	2024-11-08T07:00:00	2	Temperatura media	20.8
105122	7	Sololá	704	Santa Lucía Utatlán 	7	Santa Rita 	7	Julio	2023-07-13T00:00:00	2024-11-08T07:00:00	4	Temperatura máxima	20.8
105123	7	Sololá	704	Santa Lucía Utatlán 	7	Santa Rita 	7	Julio	2023-07-13T00:00:00	2024-11-08T07:00:00	3	Temperatura mínima	19.7
105124	7	Sololá	704	Santa Lucía Utatlán 	7	Santa Rita 	7	Julio	2023-07-13T00:00:00	2024-11-08T07:00:00	5	Humedad	77
105125	7	Sololá	704	Santa Lucía Utatlán 	7	Santa Rita 	7	Julio	2023-07-13T00:00:00	2024-11-08T07:00:00	6	Velocidad del viento	4.8
105126	7	Sololá	704	Santa Lucía Utatlán 	7	Santa Rita 	7	Julio	2023-07-13T00:00:00	2024-11-08T07:00:00	7	Dirección del viento	4.83
105127	7	Sololá	704	Santa Lucía Utatlán 	7	Santa Rita 	7	Julio	2023-07-13T00:00:00	2024-11-08T07:00:00	1	Precipitación	0
105128	7	Sololá	704	Santa Lucía Utatlán 	7	Santa Rita 	7	Julio	2023-07-13T00:00:00	2024-11-08T07:00:00	8	Radiación solar	90
105129	7	Sololá	704	Santa Lucía Utatlán 	7	Santa Rita 	7	Julio	2023-07-13T00:00:00	2024-11-08T08:00:00	2	Temperatura media	22.4
105130	7	Sololá	704	Santa Lucía Utatlán 	7	Santa Rita 	7	Julio	2023-07-13T00:00:00	2024-11-08T08:00:00	4	Temperatura máxima	22.5
105131	7	Sololá	704	Santa Lucía Utatlán 	7	Santa Rita 	7	Julio	2023-07-13T00:00:00	2024-11-08T08:00:00	3	Temperatura mínima	20.8
105132	7	Sololá	704	Santa Lucía Utatlán 	7	Santa Rita 	7	Julio	2023-07-13T00:00:00	2024-11-08T08:00:00	5	Humedad	68
105133	7	Sololá	704	Santa Lucía Utatlán 	7	Santa Rita 	7	Julio	2023-07-13T00:00:00	2024-11-08T08:00:00	6	Velocidad del viento	6.4
105134	7	Sololá	704	Santa Lucía Utatlán 	7	Santa Rita 	7	Julio	2023-07-13T00:00:00	2024-11-08T08:00:00	7	Dirección del viento	6.44
105135	7	Sololá	704	Santa Lucía Utatlán 	7	Santa Rita 	7	Julio	2023-07-13T00:00:00	2024-11-08T08:00:00	1	Precipitación	0
105136	7	Sololá	704	Santa Lucía Utatlán 	7	Santa Rita 	7	Julio	2023-07-13T00:00:00	2024-11-08T08:00:00	8	Radiación solar	296
105137	7	Sololá	704	Santa Lucía Utatlán 	7	Santa Rita 	7	Julio	2023-07-13T00:00:00	2024-11-08T09:00:00	2	Temperatura media	23.5
105138	7	Sololá	704	Santa Lucía Utatlán 	7	Santa Rita 	7	Julio	2023-07-13T00:00:00	2024-11-08T09:00:00	4	Temperatura máxima	23.6
105139	7	Sololá	704	Santa Lucía Utatlán 	7	Santa Rita 	7	Julio	2023-07-13T00:00:00	2024-11-08T09:00:00	3	Temperatura mínima	22.2
105140	7	Sololá	704	Santa Lucía Utatlán 	7	Santa Rita 	7	Julio	2023-07-13T00:00:00	2024-11-08T09:00:00	5	Humedad	55
105141	7	Sololá	704	Santa Lucía Utatlán 	7	Santa Rita 	7	Julio	2023-07-13T00:00:00	2024-11-08T09:00:00	6	Velocidad del viento	8
105142	7	Sololá	704	Santa Lucía Utatlán 	7	Santa Rita 	7	Julio	2023-07-13T00:00:00	2024-11-08T09:00:00	7	Dirección del viento	8.05
105143	7	Sololá	704	Santa Lucía Utatlán 	7	Santa Rita 	7	Julio	2023-07-13T00:00:00	2024-11-08T09:00:00	1	Precipitación	0
105144	7	Sololá	704	Santa Lucía Utatlán 	7	Santa Rita 	7	Julio	2023-07-13T00:00:00	2024-11-08T09:00:00	8	Radiación solar	574
105145	7	Sololá	704	Santa Lucía Utatlán 	7	Santa Rita 	7	Julio	2023-07-13T00:00:00	2024-11-08T10:00:00	2	Temperatura media	23.8
105146	7	Sololá	704	Santa Lucía Utatlán 	7	Santa Rita 	7	Julio	2023-07-13T00:00:00	2024-11-08T10:00:00	4	Temperatura máxima	24.4
105147	7	Sololá	704	Santa Lucía Utatlán 	7	Santa Rita 	7	Julio	2023-07-13T00:00:00	2024-11-08T10:00:00	3	Temperatura mínima	23.5
105148	7	Sololá	704	Santa Lucía Utatlán 	7	Santa Rita 	7	Julio	2023-07-13T00:00:00	2024-11-08T10:00:00	5	Humedad	62
105149	7	Sololá	704	Santa Lucía Utatlán 	7	Santa Rita 	7	Julio	2023-07-13T00:00:00	2024-11-08T10:00:00	6	Velocidad del viento	9.7
105150	7	Sololá	704	Santa Lucía Utatlán 	7	Santa Rita 	7	Julio	2023-07-13T00:00:00	2024-11-08T10:00:00	7	Dirección del viento	9.66
105151	7	Sololá	704	Santa Lucía Utatlán 	7	Santa Rita 	7	Julio	2023-07-13T00:00:00	2024-11-08T10:00:00	1	Precipitación	0
105152	7	Sololá	704	Santa Lucía Utatlán 	7	Santa Rita 	7	Julio	2023-07-13T00:00:00	2024-11-08T10:00:00	8	Radiación solar	804
105153	7	Sololá	704	Santa Lucía Utatlán 	7	Santa Rita 	7	Julio	2023-07-13T00:00:00	2024-11-08T11:00:00	2	Temperatura media	24.2
105154	7	Sololá	704	Santa Lucía Utatlán 	7	Santa Rita 	7	Julio	2023-07-13T00:00:00	2024-11-08T11:00:00	4	Temperatura máxima	24.2
105155	7	Sololá	704	Santa Lucía Utatlán 	7	Santa Rita 	7	Julio	2023-07-13T00:00:00	2024-11-08T11:00:00	3	Temperatura mínima	23.2
105156	7	Sololá	704	Santa Lucía Utatlán 	7	Santa Rita 	7	Julio	2023-07-13T00:00:00	2024-11-08T11:00:00	5	Humedad	64
105157	7	Sololá	704	Santa Lucía Utatlán 	7	Santa Rita 	7	Julio	2023-07-13T00:00:00	2024-11-08T11:00:00	6	Velocidad del viento	9.7
105158	7	Sololá	704	Santa Lucía Utatlán 	7	Santa Rita 	7	Julio	2023-07-13T00:00:00	2024-11-08T11:00:00	7	Dirección del viento	9.66
105159	7	Sololá	704	Santa Lucía Utatlán 	7	Santa Rita 	7	Julio	2023-07-13T00:00:00	2024-11-08T11:00:00	1	Precipitación	0
105160	7	Sololá	704	Santa Lucía Utatlán 	7	Santa Rita 	7	Julio	2023-07-13T00:00:00	2024-11-08T11:00:00	8	Radiación solar	966
105161	7	Sololá	704	Santa Lucía Utatlán 	7	Santa Rita 	7	Julio	2023-07-13T00:00:00	2024-11-08T12:00:00	2	Temperatura media	24
105162	7	Sololá	704	Santa Lucía Utatlán 	7	Santa Rita 	7	Julio	2023-07-13T00:00:00	2024-11-08T12:00:00	4	Temperatura máxima	24.6
105163	7	Sololá	704	Santa Lucía Utatlán 	7	Santa Rita 	7	Julio	2023-07-13T00:00:00	2024-11-08T12:00:00	3	Temperatura mínima	24
105164	7	Sololá	704	Santa Lucía Utatlán 	7	Santa Rita 	7	Julio	2023-07-13T00:00:00	2024-11-08T12:00:00	5	Humedad	56
105165	7	Sololá	704	Santa Lucía Utatlán 	7	Santa Rita 	7	Julio	2023-07-13T00:00:00	2024-11-08T12:00:00	6	Velocidad del viento	9.7
105166	7	Sololá	704	Santa Lucía Utatlán 	7	Santa Rita 	7	Julio	2023-07-13T00:00:00	2024-11-08T12:00:00	7	Dirección del viento	9.66
105167	7	Sololá	704	Santa Lucía Utatlán 	7	Santa Rita 	7	Julio	2023-07-13T00:00:00	2024-11-08T12:00:00	1	Precipitación	0
105168	7	Sololá	704	Santa Lucía Utatlán 	7	Santa Rita 	7	Julio	2023-07-13T00:00:00	2024-11-08T12:00:00	8	Radiación solar	1015
105169	7	Sololá	704	Santa Lucía Utatlán 	7	Santa Rita 	7	Julio	2023-07-13T00:00:00	2024-11-08T13:00:00	2	Temperatura media	24.2
105170	7	Sololá	704	Santa Lucía Utatlán 	7	Santa Rita 	7	Julio	2023-07-13T00:00:00	2024-11-08T13:00:00	4	Temperatura máxima	24.6
105171	7	Sololá	704	Santa Lucía Utatlán 	7	Santa Rita 	7	Julio	2023-07-13T00:00:00	2024-11-08T13:00:00	3	Temperatura mínima	23.7
105172	7	Sololá	704	Santa Lucía Utatlán 	7	Santa Rita 	7	Julio	2023-07-13T00:00:00	2024-11-08T13:00:00	5	Humedad	60
105173	7	Sololá	704	Santa Lucía Utatlán 	7	Santa Rita 	7	Julio	2023-07-13T00:00:00	2024-11-08T13:00:00	6	Velocidad del viento	14.5
105174	7	Sololá	704	Santa Lucía Utatlán 	7	Santa Rita 	7	Julio	2023-07-13T00:00:00	2024-11-08T13:00:00	7	Dirección del viento	14.48
105175	7	Sololá	704	Santa Lucía Utatlán 	7	Santa Rita 	7	Julio	2023-07-13T00:00:00	2024-11-08T13:00:00	1	Precipitación	0
105176	7	Sololá	704	Santa Lucía Utatlán 	7	Santa Rita 	7	Julio	2023-07-13T00:00:00	2024-11-08T13:00:00	8	Radiación solar	1042
105177	7	Sololá	704	Santa Lucía Utatlán 	7	Santa Rita 	7	Julio	2023-07-13T00:00:00	2024-11-08T14:00:00	2	Temperatura media	24.9
105178	7	Sololá	704	Santa Lucía Utatlán 	7	Santa Rita 	7	Julio	2023-07-13T00:00:00	2024-11-08T14:00:00	4	Temperatura máxima	25.2
105179	7	Sololá	704	Santa Lucía Utatlán 	7	Santa Rita 	7	Julio	2023-07-13T00:00:00	2024-11-08T14:00:00	3	Temperatura mínima	24.1
105180	7	Sololá	704	Santa Lucía Utatlán 	7	Santa Rita 	7	Julio	2023-07-13T00:00:00	2024-11-08T14:00:00	5	Humedad	55
105181	7	Sololá	704	Santa Lucía Utatlán 	7	Santa Rita 	7	Julio	2023-07-13T00:00:00	2024-11-08T14:00:00	6	Velocidad del viento	9.7
105182	7	Sololá	704	Santa Lucía Utatlán 	7	Santa Rita 	7	Julio	2023-07-13T00:00:00	2024-11-08T14:00:00	7	Dirección del viento	9.66
105183	7	Sololá	704	Santa Lucía Utatlán 	7	Santa Rita 	7	Julio	2023-07-13T00:00:00	2024-11-08T14:00:00	1	Precipitación	0
105184	7	Sololá	704	Santa Lucía Utatlán 	7	Santa Rita 	7	Julio	2023-07-13T00:00:00	2024-11-08T14:00:00	8	Radiación solar	977
105185	7	Sololá	704	Santa Lucía Utatlán 	7	Santa Rita 	7	Julio	2023-07-13T00:00:00	2024-11-08T15:00:00	2	Temperatura media	25.6
105186	7	Sololá	704	Santa Lucía Utatlán 	7	Santa Rita 	7	Julio	2023-07-13T00:00:00	2024-11-08T15:00:00	4	Temperatura máxima	25.6
105187	7	Sololá	704	Santa Lucía Utatlán 	7	Santa Rita 	7	Julio	2023-07-13T00:00:00	2024-11-08T15:00:00	3	Temperatura mínima	24.6
105188	7	Sololá	704	Santa Lucía Utatlán 	7	Santa Rita 	7	Julio	2023-07-13T00:00:00	2024-11-08T15:00:00	5	Humedad	56
105189	7	Sololá	704	Santa Lucía Utatlán 	7	Santa Rita 	7	Julio	2023-07-13T00:00:00	2024-11-08T15:00:00	6	Velocidad del viento	8
105190	7	Sololá	704	Santa Lucía Utatlán 	7	Santa Rita 	7	Julio	2023-07-13T00:00:00	2024-11-08T15:00:00	7	Dirección del viento	8.05
105191	7	Sololá	704	Santa Lucía Utatlán 	7	Santa Rita 	7	Julio	2023-07-13T00:00:00	2024-11-08T15:00:00	1	Precipitación	0
105192	7	Sololá	704	Santa Lucía Utatlán 	7	Santa Rita 	7	Julio	2023-07-13T00:00:00	2024-11-08T15:00:00	8	Radiación solar	771
105193	7	Sololá	704	Santa Lucía Utatlán 	7	Santa Rita 	7	Julio	2023-07-13T00:00:00	2024-11-08T16:00:00	2	Temperatura media	24.8
105194	7	Sololá	704	Santa Lucía Utatlán 	7	Santa Rita 	7	Julio	2023-07-13T00:00:00	2024-11-08T16:00:00	4	Temperatura máxima	25.6
105195	7	Sololá	704	Santa Lucía Utatlán 	7	Santa Rita 	7	Julio	2023-07-13T00:00:00	2024-11-08T16:00:00	3	Temperatura mínima	24.4
105196	7	Sololá	704	Santa Lucía Utatlán 	7	Santa Rita 	7	Julio	2023-07-13T00:00:00	2024-11-08T16:00:00	5	Humedad	58
105197	7	Sololá	704	Santa Lucía Utatlán 	7	Santa Rita 	7	Julio	2023-07-13T00:00:00	2024-11-08T16:00:00	6	Velocidad del viento	8
105198	7	Sololá	704	Santa Lucía Utatlán 	7	Santa Rita 	7	Julio	2023-07-13T00:00:00	2024-11-08T16:00:00	7	Dirección del viento	8.05
105199	7	Sololá	704	Santa Lucía Utatlán 	7	Santa Rita 	7	Julio	2023-07-13T00:00:00	2024-11-08T16:00:00	1	Precipitación	0
105200	7	Sololá	704	Santa Lucía Utatlán 	7	Santa Rita 	7	Julio	2023-07-13T00:00:00	2024-11-08T16:00:00	8	Radiación solar	552
105201	7	Sololá	704	Santa Lucía Utatlán 	7	Santa Rita 	7	Julio	2023-07-13T00:00:00	2024-11-08T17:00:00	2	Temperatura media	23.7
105202	7	Sololá	704	Santa Lucía Utatlán 	7	Santa Rita 	7	Julio	2023-07-13T00:00:00	2024-11-08T17:00:00	4	Temperatura máxima	25.1
105203	7	Sololá	704	Santa Lucía Utatlán 	7	Santa Rita 	7	Julio	2023-07-13T00:00:00	2024-11-08T17:00:00	3	Temperatura mínima	23.7
105204	7	Sololá	704	Santa Lucía Utatlán 	7	Santa Rita 	7	Julio	2023-07-13T00:00:00	2024-11-08T17:00:00	5	Humedad	64
105205	7	Sololá	704	Santa Lucía Utatlán 	7	Santa Rita 	7	Julio	2023-07-13T00:00:00	2024-11-08T17:00:00	6	Velocidad del viento	8
105206	7	Sololá	704	Santa Lucía Utatlán 	7	Santa Rita 	7	Julio	2023-07-13T00:00:00	2024-11-08T17:00:00	7	Dirección del viento	8.05
105207	7	Sololá	704	Santa Lucía Utatlán 	7	Santa Rita 	7	Julio	2023-07-13T00:00:00	2024-11-08T17:00:00	1	Precipitación	0
105208	7	Sololá	704	Santa Lucía Utatlán 	7	Santa Rita 	7	Julio	2023-07-13T00:00:00	2024-11-08T17:00:00	8	Radiación solar	321
105209	7	Sololá	704	Santa Lucía Utatlán 	7	Santa Rita 	7	Julio	2023-07-13T00:00:00	2024-11-08T18:00:00	2	Temperatura media	22.7
105210	7	Sololá	704	Santa Lucía Utatlán 	7	Santa Rita 	7	Julio	2023-07-13T00:00:00	2024-11-08T18:00:00	4	Temperatura máxima	23.8
105211	7	Sololá	704	Santa Lucía Utatlán 	7	Santa Rita 	7	Julio	2023-07-13T00:00:00	2024-11-08T18:00:00	3	Temperatura mínima	22.7
105212	7	Sololá	704	Santa Lucía Utatlán 	7	Santa Rita 	7	Julio	2023-07-13T00:00:00	2024-11-08T18:00:00	5	Humedad	68
105213	7	Sololá	704	Santa Lucía Utatlán 	7	Santa Rita 	7	Julio	2023-07-13T00:00:00	2024-11-08T18:00:00	6	Velocidad del viento	4.8
105214	7	Sololá	704	Santa Lucía Utatlán 	7	Santa Rita 	7	Julio	2023-07-13T00:00:00	2024-11-08T18:00:00	7	Dirección del viento	4.83
105215	7	Sololá	704	Santa Lucía Utatlán 	7	Santa Rita 	7	Julio	2023-07-13T00:00:00	2024-11-08T18:00:00	1	Precipitación	0
105216	7	Sololá	704	Santa Lucía Utatlán 	7	Santa Rita 	7	Julio	2023-07-13T00:00:00	2024-11-08T18:00:00	8	Radiación solar	98
105217	7	Sololá	704	Santa Lucía Utatlán 	7	Santa Rita 	7	Julio	2023-07-13T00:00:00	2024-11-08T19:00:00	2	Temperatura media	21.5
105218	7	Sololá	704	Santa Lucía Utatlán 	7	Santa Rita 	7	Julio	2023-07-13T00:00:00	2024-11-08T19:00:00	4	Temperatura máxima	22.7
105219	7	Sololá	704	Santa Lucía Utatlán 	7	Santa Rita 	7	Julio	2023-07-13T00:00:00	2024-11-08T19:00:00	3	Temperatura mínima	20.9
105220	7	Sololá	704	Santa Lucía Utatlán 	7	Santa Rita 	7	Julio	2023-07-13T00:00:00	2024-11-08T19:00:00	5	Humedad	73
105221	7	Sololá	704	Santa Lucía Utatlán 	7	Santa Rita 	7	Julio	2023-07-13T00:00:00	2024-11-08T19:00:00	6	Velocidad del viento	4.8
105222	7	Sololá	704	Santa Lucía Utatlán 	7	Santa Rita 	7	Julio	2023-07-13T00:00:00	2024-11-08T19:00:00	7	Dirección del viento	4.83
105223	7	Sololá	704	Santa Lucía Utatlán 	7	Santa Rita 	7	Julio	2023-07-13T00:00:00	2024-11-08T19:00:00	1	Precipitación	0
105224	7	Sololá	704	Santa Lucía Utatlán 	7	Santa Rita 	7	Julio	2023-07-13T00:00:00	2024-11-08T19:00:00	8	Radiación solar	0
105225	7	Sololá	704	Santa Lucía Utatlán 	7	Santa Rita 	7	Julio	2023-07-13T00:00:00	2024-11-08T20:00:00	2	Temperatura media	21.3
105226	7	Sololá	704	Santa Lucía Utatlán 	7	Santa Rita 	7	Julio	2023-07-13T00:00:00	2024-11-08T20:00:00	4	Temperatura máxima	21.7
105227	7	Sololá	704	Santa Lucía Utatlán 	7	Santa Rita 	7	Julio	2023-07-13T00:00:00	2024-11-08T20:00:00	3	Temperatura mínima	21.2
105228	7	Sololá	704	Santa Lucía Utatlán 	7	Santa Rita 	7	Julio	2023-07-13T00:00:00	2024-11-08T20:00:00	5	Humedad	72
105229	7	Sololá	704	Santa Lucía Utatlán 	7	Santa Rita 	7	Julio	2023-07-13T00:00:00	2024-11-08T20:00:00	6	Velocidad del viento	4.8
105230	7	Sololá	704	Santa Lucía Utatlán 	7	Santa Rita 	7	Julio	2023-07-13T00:00:00	2024-11-08T20:00:00	7	Dirección del viento	4.83
105231	7	Sololá	704	Santa Lucía Utatlán 	7	Santa Rita 	7	Julio	2023-07-13T00:00:00	2024-11-08T20:00:00	1	Precipitación	0
105232	7	Sololá	704	Santa Lucía Utatlán 	7	Santa Rita 	7	Julio	2023-07-13T00:00:00	2024-11-08T20:00:00	8	Radiación solar	0
105233	7	Sololá	704	Santa Lucía Utatlán 	7	Santa Rita 	7	Julio	2023-07-13T00:00:00	2024-11-08T21:00:00	2	Temperatura media	20.9
105234	7	Sololá	704	Santa Lucía Utatlán 	7	Santa Rita 	7	Julio	2023-07-13T00:00:00	2024-11-08T21:00:00	4	Temperatura máxima	21.6
105235	7	Sololá	704	Santa Lucía Utatlán 	7	Santa Rita 	7	Julio	2023-07-13T00:00:00	2024-11-08T21:00:00	3	Temperatura mínima	20.8
105236	7	Sololá	704	Santa Lucía Utatlán 	7	Santa Rita 	7	Julio	2023-07-13T00:00:00	2024-11-08T21:00:00	5	Humedad	75
105237	7	Sololá	704	Santa Lucía Utatlán 	7	Santa Rita 	7	Julio	2023-07-13T00:00:00	2024-11-08T21:00:00	6	Velocidad del viento	4.8
105238	7	Sololá	704	Santa Lucía Utatlán 	7	Santa Rita 	7	Julio	2023-07-13T00:00:00	2024-11-08T21:00:00	7	Dirección del viento	4.83
105239	7	Sololá	704	Santa Lucía Utatlán 	7	Santa Rita 	7	Julio	2023-07-13T00:00:00	2024-11-08T21:00:00	1	Precipitación	0
105240	7	Sololá	704	Santa Lucía Utatlán 	7	Santa Rita 	7	Julio	2023-07-13T00:00:00	2024-11-08T21:00:00	8	Radiación solar	0
105241	7	Sololá	704	Santa Lucía Utatlán 	7	Santa Rita 	7	Julio	2023-07-13T00:00:00	2024-11-08T22:00:00	2	Temperatura media	20.2
105242	7	Sololá	704	Santa Lucía Utatlán 	7	Santa Rita 	7	Julio	2023-07-13T00:00:00	2024-11-08T22:00:00	4	Temperatura máxima	21.6
105243	7	Sololá	704	Santa Lucía Utatlán 	7	Santa Rita 	7	Julio	2023-07-13T00:00:00	2024-11-08T22:00:00	3	Temperatura mínima	20.2
105244	7	Sololá	704	Santa Lucía Utatlán 	7	Santa Rita 	7	Julio	2023-07-13T00:00:00	2024-11-08T22:00:00	5	Humedad	82
105245	7	Sololá	704	Santa Lucía Utatlán 	7	Santa Rita 	7	Julio	2023-07-13T00:00:00	2024-11-08T22:00:00	6	Velocidad del viento	4.8
105246	7	Sololá	704	Santa Lucía Utatlán 	7	Santa Rita 	7	Julio	2023-07-13T00:00:00	2024-11-08T22:00:00	7	Dirección del viento	4.83
105247	7	Sololá	704	Santa Lucía Utatlán 	7	Santa Rita 	7	Julio	2023-07-13T00:00:00	2024-11-08T22:00:00	1	Precipitación	0
105248	7	Sololá	704	Santa Lucía Utatlán 	7	Santa Rita 	7	Julio	2023-07-13T00:00:00	2024-11-08T22:00:00	8	Radiación solar	0
105249	7	Sololá	704	Santa Lucía Utatlán 	7	Santa Rita 	7	Julio	2023-07-13T00:00:00	2024-11-08T23:00:00	2	Temperatura media	18.6
105250	7	Sololá	704	Santa Lucía Utatlán 	7	Santa Rita 	7	Julio	2023-07-13T00:00:00	2024-11-08T23:00:00	4	Temperatura máxima	20.2
105251	7	Sololá	704	Santa Lucía Utatlán 	7	Santa Rita 	7	Julio	2023-07-13T00:00:00	2024-11-08T23:00:00	3	Temperatura mínima	18.6
105252	7	Sololá	704	Santa Lucía Utatlán 	7	Santa Rita 	7	Julio	2023-07-13T00:00:00	2024-11-08T23:00:00	5	Humedad	93
105253	7	Sololá	704	Santa Lucía Utatlán 	7	Santa Rita 	7	Julio	2023-07-13T00:00:00	2024-11-08T23:00:00	6	Velocidad del viento	1.6
105254	7	Sololá	704	Santa Lucía Utatlán 	7	Santa Rita 	7	Julio	2023-07-13T00:00:00	2024-11-08T23:00:00	7	Dirección del viento	1.61
105255	7	Sololá	704	Santa Lucía Utatlán 	7	Santa Rita 	7	Julio	2023-07-13T00:00:00	2024-11-08T23:00:00	1	Precipitación	2.4
105256	7	Sololá	704	Santa Lucía Utatlán 	7	Santa Rita 	7	Julio	2023-07-13T00:00:00	2024-11-08T23:00:00	8	Radiación solar	0
105257	7	Sololá	704	Santa Lucía Utatlán 	7	Santa Rita 	7	Julio	2023-07-14T00:00:00	2024-11-08T00:00:00	2	Temperatura media	18.1
105258	7	Sololá	704	Santa Lucía Utatlán 	7	Santa Rita 	7	Julio	2023-07-14T00:00:00	2024-11-08T00:00:00	4	Temperatura máxima	18.7
105259	7	Sololá	704	Santa Lucía Utatlán 	7	Santa Rita 	7	Julio	2023-07-14T00:00:00	2024-11-08T00:00:00	3	Temperatura mínima	18.1
105260	7	Sololá	704	Santa Lucía Utatlán 	7	Santa Rita 	7	Julio	2023-07-14T00:00:00	2024-11-08T00:00:00	5	Humedad	93
105261	7	Sololá	704	Santa Lucía Utatlán 	7	Santa Rita 	7	Julio	2023-07-14T00:00:00	2024-11-08T00:00:00	6	Velocidad del viento	3.2
105262	7	Sololá	704	Santa Lucía Utatlán 	7	Santa Rita 	7	Julio	2023-07-14T00:00:00	2024-11-08T00:00:00	7	Dirección del viento	3.22
105263	7	Sololá	704	Santa Lucía Utatlán 	7	Santa Rita 	7	Julio	2023-07-14T00:00:00	2024-11-08T00:00:00	1	Precipitación	9.4
105264	7	Sololá	704	Santa Lucía Utatlán 	7	Santa Rita 	7	Julio	2023-07-14T00:00:00	2024-11-08T00:00:00	8	Radiación solar	0
105265	7	Sololá	704	Santa Lucía Utatlán 	7	Santa Rita 	7	Julio	2023-07-14T00:00:00	2024-11-08T01:00:00	2	Temperatura media	18.6
105266	7	Sololá	704	Santa Lucía Utatlán 	7	Santa Rita 	7	Julio	2023-07-14T00:00:00	2024-11-08T01:00:00	4	Temperatura máxima	18.6
105267	7	Sololá	704	Santa Lucía Utatlán 	7	Santa Rita 	7	Julio	2023-07-14T00:00:00	2024-11-08T01:00:00	3	Temperatura mínima	17.9
105268	7	Sololá	704	Santa Lucía Utatlán 	7	Santa Rita 	7	Julio	2023-07-14T00:00:00	2024-11-08T01:00:00	5	Humedad	91
105269	7	Sololá	704	Santa Lucía Utatlán 	7	Santa Rita 	7	Julio	2023-07-14T00:00:00	2024-11-08T01:00:00	6	Velocidad del viento	3.2
105270	7	Sololá	704	Santa Lucía Utatlán 	7	Santa Rita 	7	Julio	2023-07-14T00:00:00	2024-11-08T01:00:00	7	Dirección del viento	3.22
105271	7	Sololá	704	Santa Lucía Utatlán 	7	Santa Rita 	7	Julio	2023-07-14T00:00:00	2024-11-08T01:00:00	1	Precipitación	5.4
105272	7	Sololá	704	Santa Lucía Utatlán 	7	Santa Rita 	7	Julio	2023-07-14T00:00:00	2024-11-08T01:00:00	8	Radiación solar	0
105273	7	Sololá	704	Santa Lucía Utatlán 	7	Santa Rita 	7	Julio	2023-07-14T00:00:00	2024-11-08T02:00:00	2	Temperatura media	18.9
105274	7	Sololá	704	Santa Lucía Utatlán 	7	Santa Rita 	7	Julio	2023-07-14T00:00:00	2024-11-08T02:00:00	4	Temperatura máxima	18.9
105275	7	Sololá	704	Santa Lucía Utatlán 	7	Santa Rita 	7	Julio	2023-07-14T00:00:00	2024-11-08T02:00:00	3	Temperatura mínima	18
105276	7	Sololá	704	Santa Lucía Utatlán 	7	Santa Rita 	7	Julio	2023-07-14T00:00:00	2024-11-08T02:00:00	5	Humedad	78
105277	7	Sololá	704	Santa Lucía Utatlán 	7	Santa Rita 	7	Julio	2023-07-14T00:00:00	2024-11-08T02:00:00	6	Velocidad del viento	8
105278	7	Sololá	704	Santa Lucía Utatlán 	7	Santa Rita 	7	Julio	2023-07-14T00:00:00	2024-11-08T02:00:00	7	Dirección del viento	8.05
105279	7	Sololá	704	Santa Lucía Utatlán 	7	Santa Rita 	7	Julio	2023-07-14T00:00:00	2024-11-08T02:00:00	1	Precipitación	3
105280	7	Sololá	704	Santa Lucía Utatlán 	7	Santa Rita 	7	Julio	2023-07-14T00:00:00	2024-11-08T02:00:00	8	Radiación solar	0
105281	7	Sololá	704	Santa Lucía Utatlán 	7	Santa Rita 	7	Julio	2023-07-14T00:00:00	2024-11-08T03:00:00	2	Temperatura media	18.2
105282	7	Sololá	704	Santa Lucía Utatlán 	7	Santa Rita 	7	Julio	2023-07-14T00:00:00	2024-11-08T03:00:00	4	Temperatura máxima	19.2
105283	7	Sololá	704	Santa Lucía Utatlán 	7	Santa Rita 	7	Julio	2023-07-14T00:00:00	2024-11-08T03:00:00	3	Temperatura mínima	17.5
105284	7	Sololá	704	Santa Lucía Utatlán 	7	Santa Rita 	7	Julio	2023-07-14T00:00:00	2024-11-08T03:00:00	5	Humedad	78
105285	7	Sololá	704	Santa Lucía Utatlán 	7	Santa Rita 	7	Julio	2023-07-14T00:00:00	2024-11-08T03:00:00	6	Velocidad del viento	4.8
105286	7	Sololá	704	Santa Lucía Utatlán 	7	Santa Rita 	7	Julio	2023-07-14T00:00:00	2024-11-08T03:00:00	7	Dirección del viento	4.83
105287	7	Sololá	704	Santa Lucía Utatlán 	7	Santa Rita 	7	Julio	2023-07-14T00:00:00	2024-11-08T03:00:00	1	Precipitación	0
105288	7	Sololá	704	Santa Lucía Utatlán 	7	Santa Rita 	7	Julio	2023-07-14T00:00:00	2024-11-08T03:00:00	8	Radiación solar	0
105289	7	Sololá	704	Santa Lucía Utatlán 	7	Santa Rita 	7	Julio	2023-07-14T00:00:00	2024-11-08T04:00:00	2	Temperatura media	16.7
105290	7	Sololá	704	Santa Lucía Utatlán 	7	Santa Rita 	7	Julio	2023-07-14T00:00:00	2024-11-08T04:00:00	4	Temperatura máxima	19.2
105291	7	Sololá	704	Santa Lucía Utatlán 	7	Santa Rita 	7	Julio	2023-07-14T00:00:00	2024-11-08T04:00:00	3	Temperatura mínima	16.7
105292	7	Sololá	704	Santa Lucía Utatlán 	7	Santa Rita 	7	Julio	2023-07-14T00:00:00	2024-11-08T04:00:00	5	Humedad	83
105293	7	Sololá	704	Santa Lucía Utatlán 	7	Santa Rita 	7	Julio	2023-07-14T00:00:00	2024-11-08T04:00:00	6	Velocidad del viento	4.8
105294	7	Sololá	704	Santa Lucía Utatlán 	7	Santa Rita 	7	Julio	2023-07-14T00:00:00	2024-11-08T04:00:00	7	Dirección del viento	4.83
105295	7	Sololá	704	Santa Lucía Utatlán 	7	Santa Rita 	7	Julio	2023-07-14T00:00:00	2024-11-08T04:00:00	1	Precipitación	0
105296	7	Sololá	704	Santa Lucía Utatlán 	7	Santa Rita 	7	Julio	2023-07-14T00:00:00	2024-11-08T04:00:00	8	Radiación solar	0
105297	7	Sololá	704	Santa Lucía Utatlán 	7	Santa Rita 	7	Julio	2023-07-14T00:00:00	2024-11-08T05:00:00	2	Temperatura media	19.4
105298	7	Sololá	704	Santa Lucía Utatlán 	7	Santa Rita 	7	Julio	2023-07-14T00:00:00	2024-11-08T05:00:00	4	Temperatura máxima	19.4
105299	7	Sololá	704	Santa Lucía Utatlán 	7	Santa Rita 	7	Julio	2023-07-14T00:00:00	2024-11-08T05:00:00	3	Temperatura mínima	16.5
105300	7	Sololá	704	Santa Lucía Utatlán 	7	Santa Rita 	7	Julio	2023-07-14T00:00:00	2024-11-08T05:00:00	5	Humedad	64
105301	7	Sololá	704	Santa Lucía Utatlán 	7	Santa Rita 	7	Julio	2023-07-14T00:00:00	2024-11-08T05:00:00	6	Velocidad del viento	4.8
105302	7	Sololá	704	Santa Lucía Utatlán 	7	Santa Rita 	7	Julio	2023-07-14T00:00:00	2024-11-08T05:00:00	7	Dirección del viento	4.83
105303	7	Sololá	704	Santa Lucía Utatlán 	7	Santa Rita 	7	Julio	2023-07-14T00:00:00	2024-11-08T05:00:00	1	Precipitación	0
105304	7	Sololá	704	Santa Lucía Utatlán 	7	Santa Rita 	7	Julio	2023-07-14T00:00:00	2024-11-08T05:00:00	8	Radiación solar	0
105305	7	Sololá	704	Santa Lucía Utatlán 	7	Santa Rita 	7	Julio	2023-07-14T00:00:00	2024-11-08T06:00:00	2	Temperatura media	17.7
105306	7	Sololá	704	Santa Lucía Utatlán 	7	Santa Rita 	7	Julio	2023-07-14T00:00:00	2024-11-08T06:00:00	4	Temperatura máxima	19.6
105307	7	Sololá	704	Santa Lucía Utatlán 	7	Santa Rita 	7	Julio	2023-07-14T00:00:00	2024-11-08T06:00:00	3	Temperatura mínima	17.2
105308	7	Sololá	704	Santa Lucía Utatlán 	7	Santa Rita 	7	Julio	2023-07-14T00:00:00	2024-11-08T06:00:00	5	Humedad	79
105309	7	Sololá	704	Santa Lucía Utatlán 	7	Santa Rita 	7	Julio	2023-07-14T00:00:00	2024-11-08T06:00:00	6	Velocidad del viento	3.2
105310	7	Sololá	704	Santa Lucía Utatlán 	7	Santa Rita 	7	Julio	2023-07-14T00:00:00	2024-11-08T06:00:00	7	Dirección del viento	3.22
105311	7	Sololá	704	Santa Lucía Utatlán 	7	Santa Rita 	7	Julio	2023-07-14T00:00:00	2024-11-08T06:00:00	1	Precipitación	0
105312	7	Sololá	704	Santa Lucía Utatlán 	7	Santa Rita 	7	Julio	2023-07-14T00:00:00	2024-11-08T06:00:00	8	Radiación solar	4
105313	7	Sololá	704	Santa Lucía Utatlán 	7	Santa Rita 	7	Julio	2023-07-14T00:00:00	2024-11-08T07:00:00	2	Temperatura media	17.9
105314	7	Sololá	704	Santa Lucía Utatlán 	7	Santa Rita 	7	Julio	2023-07-14T00:00:00	2024-11-08T07:00:00	4	Temperatura máxima	18.4
105315	7	Sololá	704	Santa Lucía Utatlán 	7	Santa Rita 	7	Julio	2023-07-14T00:00:00	2024-11-08T07:00:00	3	Temperatura mínima	17.4
105316	7	Sololá	704	Santa Lucía Utatlán 	7	Santa Rita 	7	Julio	2023-07-14T00:00:00	2024-11-08T07:00:00	5	Humedad	79
105317	7	Sololá	704	Santa Lucía Utatlán 	7	Santa Rita 	7	Julio	2023-07-14T00:00:00	2024-11-08T07:00:00	6	Velocidad del viento	3.2
105318	7	Sololá	704	Santa Lucía Utatlán 	7	Santa Rita 	7	Julio	2023-07-14T00:00:00	2024-11-08T07:00:00	7	Dirección del viento	3.22
105319	7	Sololá	704	Santa Lucía Utatlán 	7	Santa Rita 	7	Julio	2023-07-14T00:00:00	2024-11-08T07:00:00	1	Precipitación	0
105320	7	Sololá	704	Santa Lucía Utatlán 	7	Santa Rita 	7	Julio	2023-07-14T00:00:00	2024-11-08T07:00:00	8	Radiación solar	76
105321	7	Sololá	704	Santa Lucía Utatlán 	7	Santa Rita 	7	Julio	2023-07-14T00:00:00	2024-11-08T08:00:00	2	Temperatura media	20.7
105322	7	Sololá	704	Santa Lucía Utatlán 	7	Santa Rita 	7	Julio	2023-07-14T00:00:00	2024-11-08T08:00:00	4	Temperatura máxima	20.7
105323	7	Sololá	704	Santa Lucía Utatlán 	7	Santa Rita 	7	Julio	2023-07-14T00:00:00	2024-11-08T08:00:00	3	Temperatura mínima	17.9
105324	7	Sololá	704	Santa Lucía Utatlán 	7	Santa Rita 	7	Julio	2023-07-14T00:00:00	2024-11-08T08:00:00	5	Humedad	77
105325	7	Sololá	704	Santa Lucía Utatlán 	7	Santa Rita 	7	Julio	2023-07-14T00:00:00	2024-11-08T08:00:00	6	Velocidad del viento	1.6
105326	7	Sololá	704	Santa Lucía Utatlán 	7	Santa Rita 	7	Julio	2023-07-14T00:00:00	2024-11-08T08:00:00	7	Dirección del viento	1.61
105327	7	Sololá	704	Santa Lucía Utatlán 	7	Santa Rita 	7	Julio	2023-07-14T00:00:00	2024-11-08T08:00:00	1	Precipitación	0
105328	7	Sololá	704	Santa Lucía Utatlán 	7	Santa Rita 	7	Julio	2023-07-14T00:00:00	2024-11-08T08:00:00	8	Radiación solar	233
105329	7	Sololá	704	Santa Lucía Utatlán 	7	Santa Rita 	7	Julio	2023-07-14T00:00:00	2024-11-08T09:00:00	2	Temperatura media	23.4
105330	7	Sololá	704	Santa Lucía Utatlán 	7	Santa Rita 	7	Julio	2023-07-14T00:00:00	2024-11-08T09:00:00	4	Temperatura máxima	23.4
105331	7	Sololá	704	Santa Lucía Utatlán 	7	Santa Rita 	7	Julio	2023-07-14T00:00:00	2024-11-08T09:00:00	3	Temperatura mínima	20.7
105332	7	Sololá	704	Santa Lucía Utatlán 	7	Santa Rita 	7	Julio	2023-07-14T00:00:00	2024-11-08T09:00:00	5	Humedad	54
105333	7	Sololá	704	Santa Lucía Utatlán 	7	Santa Rita 	7	Julio	2023-07-14T00:00:00	2024-11-08T09:00:00	6	Velocidad del viento	3.2
105334	7	Sololá	704	Santa Lucía Utatlán 	7	Santa Rita 	7	Julio	2023-07-14T00:00:00	2024-11-08T09:00:00	7	Dirección del viento	3.22
105335	7	Sololá	704	Santa Lucía Utatlán 	7	Santa Rita 	7	Julio	2023-07-14T00:00:00	2024-11-08T09:00:00	1	Precipitación	0
105336	7	Sololá	704	Santa Lucía Utatlán 	7	Santa Rita 	7	Julio	2023-07-14T00:00:00	2024-11-08T09:00:00	8	Radiación solar	449
105337	7	Sololá	704	Santa Lucía Utatlán 	7	Santa Rita 	7	Julio	2023-07-14T00:00:00	2024-11-08T10:00:00	2	Temperatura media	23.9
105338	7	Sololá	704	Santa Lucía Utatlán 	7	Santa Rita 	7	Julio	2023-07-14T00:00:00	2024-11-08T10:00:00	4	Temperatura máxima	24.2
105339	7	Sololá	704	Santa Lucía Utatlán 	7	Santa Rita 	7	Julio	2023-07-14T00:00:00	2024-11-08T10:00:00	3	Temperatura mínima	23.4
105340	7	Sololá	704	Santa Lucía Utatlán 	7	Santa Rita 	7	Julio	2023-07-14T00:00:00	2024-11-08T10:00:00	5	Humedad	49
105341	7	Sololá	704	Santa Lucía Utatlán 	7	Santa Rita 	7	Julio	2023-07-14T00:00:00	2024-11-08T10:00:00	6	Velocidad del viento	6.4
105342	7	Sololá	704	Santa Lucía Utatlán 	7	Santa Rita 	7	Julio	2023-07-14T00:00:00	2024-11-08T10:00:00	7	Dirección del viento	6.44
105343	7	Sololá	704	Santa Lucía Utatlán 	7	Santa Rita 	7	Julio	2023-07-14T00:00:00	2024-11-08T10:00:00	1	Precipitación	0
105344	7	Sololá	704	Santa Lucía Utatlán 	7	Santa Rita 	7	Julio	2023-07-14T00:00:00	2024-11-08T10:00:00	8	Radiación solar	732
105345	7	Sololá	704	Santa Lucía Utatlán 	7	Santa Rita 	7	Julio	2023-07-14T00:00:00	2024-11-08T11:00:00	2	Temperatura media	24.4
105346	7	Sololá	704	Santa Lucía Utatlán 	7	Santa Rita 	7	Julio	2023-07-14T00:00:00	2024-11-08T11:00:00	4	Temperatura máxima	25.2
105347	7	Sololá	704	Santa Lucía Utatlán 	7	Santa Rita 	7	Julio	2023-07-14T00:00:00	2024-11-08T11:00:00	3	Temperatura mínima	23.9
105348	7	Sololá	704	Santa Lucía Utatlán 	7	Santa Rita 	7	Julio	2023-07-14T00:00:00	2024-11-08T11:00:00	5	Humedad	49
105349	7	Sololá	704	Santa Lucía Utatlán 	7	Santa Rita 	7	Julio	2023-07-14T00:00:00	2024-11-08T11:00:00	6	Velocidad del viento	6.4
105350	7	Sololá	704	Santa Lucía Utatlán 	7	Santa Rita 	7	Julio	2023-07-14T00:00:00	2024-11-08T11:00:00	7	Dirección del viento	6.44
105351	7	Sololá	704	Santa Lucía Utatlán 	7	Santa Rita 	7	Julio	2023-07-14T00:00:00	2024-11-08T11:00:00	1	Precipitación	0
105352	7	Sololá	704	Santa Lucía Utatlán 	7	Santa Rita 	7	Julio	2023-07-14T00:00:00	2024-11-08T11:00:00	8	Radiación solar	716
105353	7	Sololá	704	Santa Lucía Utatlán 	7	Santa Rita 	7	Julio	2023-07-14T00:00:00	2024-11-08T12:00:00	2	Temperatura media	24.7
105354	7	Sololá	704	Santa Lucía Utatlán 	7	Santa Rita 	7	Julio	2023-07-14T00:00:00	2024-11-08T12:00:00	4	Temperatura máxima	24.8
105355	7	Sololá	704	Santa Lucía Utatlán 	7	Santa Rita 	7	Julio	2023-07-14T00:00:00	2024-11-08T12:00:00	3	Temperatura mínima	24.3
105356	7	Sololá	704	Santa Lucía Utatlán 	7	Santa Rita 	7	Julio	2023-07-14T00:00:00	2024-11-08T12:00:00	5	Humedad	55
105357	7	Sololá	704	Santa Lucía Utatlán 	7	Santa Rita 	7	Julio	2023-07-14T00:00:00	2024-11-08T12:00:00	6	Velocidad del viento	8
105358	7	Sololá	704	Santa Lucía Utatlán 	7	Santa Rita 	7	Julio	2023-07-14T00:00:00	2024-11-08T12:00:00	7	Dirección del viento	8.05
105359	7	Sololá	704	Santa Lucía Utatlán 	7	Santa Rita 	7	Julio	2023-07-14T00:00:00	2024-11-08T12:00:00	1	Precipitación	0
105360	7	Sololá	704	Santa Lucía Utatlán 	7	Santa Rita 	7	Julio	2023-07-14T00:00:00	2024-11-08T12:00:00	8	Radiación solar	851
105361	7	Sololá	704	Santa Lucía Utatlán 	7	Santa Rita 	7	Julio	2023-07-14T00:00:00	2024-11-08T13:00:00	2	Temperatura media	25.3
105362	7	Sololá	704	Santa Lucía Utatlán 	7	Santa Rita 	7	Julio	2023-07-14T00:00:00	2024-11-08T13:00:00	4	Temperatura máxima	25.9
105363	7	Sololá	704	Santa Lucía Utatlán 	7	Santa Rita 	7	Julio	2023-07-14T00:00:00	2024-11-08T13:00:00	3	Temperatura mínima	24.5
105364	7	Sololá	704	Santa Lucía Utatlán 	7	Santa Rita 	7	Julio	2023-07-14T00:00:00	2024-11-08T13:00:00	5	Humedad	58
105365	7	Sololá	704	Santa Lucía Utatlán 	7	Santa Rita 	7	Julio	2023-07-14T00:00:00	2024-11-08T13:00:00	6	Velocidad del viento	8
105366	7	Sololá	704	Santa Lucía Utatlán 	7	Santa Rita 	7	Julio	2023-07-14T00:00:00	2024-11-08T13:00:00	7	Dirección del viento	8.05
105367	7	Sololá	704	Santa Lucía Utatlán 	7	Santa Rita 	7	Julio	2023-07-14T00:00:00	2024-11-08T13:00:00	1	Precipitación	0
105368	7	Sololá	704	Santa Lucía Utatlán 	7	Santa Rita 	7	Julio	2023-07-14T00:00:00	2024-11-08T13:00:00	8	Radiación solar	878
105369	7	Sololá	704	Santa Lucía Utatlán 	7	Santa Rita 	7	Julio	2023-07-14T00:00:00	2024-11-08T14:00:00	2	Temperatura media	26.1
105370	7	Sololá	704	Santa Lucía Utatlán 	7	Santa Rita 	7	Julio	2023-07-14T00:00:00	2024-11-08T14:00:00	4	Temperatura máxima	26.1
105371	7	Sololá	704	Santa Lucía Utatlán 	7	Santa Rita 	7	Julio	2023-07-14T00:00:00	2024-11-08T14:00:00	3	Temperatura mínima	25.3
105372	7	Sololá	704	Santa Lucía Utatlán 	7	Santa Rita 	7	Julio	2023-07-14T00:00:00	2024-11-08T14:00:00	5	Humedad	57
105373	7	Sololá	704	Santa Lucía Utatlán 	7	Santa Rita 	7	Julio	2023-07-14T00:00:00	2024-11-08T14:00:00	6	Velocidad del viento	8
105374	7	Sololá	704	Santa Lucía Utatlán 	7	Santa Rita 	7	Julio	2023-07-14T00:00:00	2024-11-08T14:00:00	7	Dirección del viento	8.05
105375	7	Sololá	704	Santa Lucía Utatlán 	7	Santa Rita 	7	Julio	2023-07-14T00:00:00	2024-11-08T14:00:00	1	Precipitación	0
105376	7	Sololá	704	Santa Lucía Utatlán 	7	Santa Rita 	7	Julio	2023-07-14T00:00:00	2024-11-08T14:00:00	8	Radiación solar	876
105377	7	Sololá	704	Santa Lucía Utatlán 	7	Santa Rita 	7	Julio	2023-07-14T00:00:00	2024-11-08T15:00:00	2	Temperatura media	24.4
105378	7	Sololá	704	Santa Lucía Utatlán 	7	Santa Rita 	7	Julio	2023-07-14T00:00:00	2024-11-08T15:00:00	4	Temperatura máxima	26.1
105379	7	Sololá	704	Santa Lucía Utatlán 	7	Santa Rita 	7	Julio	2023-07-14T00:00:00	2024-11-08T15:00:00	3	Temperatura mínima	24.4
105380	7	Sololá	704	Santa Lucía Utatlán 	7	Santa Rita 	7	Julio	2023-07-14T00:00:00	2024-11-08T15:00:00	5	Humedad	59
105381	7	Sololá	704	Santa Lucía Utatlán 	7	Santa Rita 	7	Julio	2023-07-14T00:00:00	2024-11-08T15:00:00	6	Velocidad del viento	8
105382	7	Sololá	704	Santa Lucía Utatlán 	7	Santa Rita 	7	Julio	2023-07-14T00:00:00	2024-11-08T15:00:00	7	Dirección del viento	8.05
105383	7	Sololá	704	Santa Lucía Utatlán 	7	Santa Rita 	7	Julio	2023-07-14T00:00:00	2024-11-08T15:00:00	1	Precipitación	0
105384	7	Sololá	704	Santa Lucía Utatlán 	7	Santa Rita 	7	Julio	2023-07-14T00:00:00	2024-11-08T15:00:00	8	Radiación solar	510
105385	7	Sololá	704	Santa Lucía Utatlán 	7	Santa Rita 	7	Julio	2023-07-14T00:00:00	2024-11-08T16:00:00	2	Temperatura media	24.1
105386	7	Sololá	704	Santa Lucía Utatlán 	7	Santa Rita 	7	Julio	2023-07-14T00:00:00	2024-11-08T16:00:00	4	Temperatura máxima	24.6
105387	7	Sololá	704	Santa Lucía Utatlán 	7	Santa Rita 	7	Julio	2023-07-14T00:00:00	2024-11-08T16:00:00	3	Temperatura mínima	24.1
105388	7	Sololá	704	Santa Lucía Utatlán 	7	Santa Rita 	7	Julio	2023-07-14T00:00:00	2024-11-08T16:00:00	5	Humedad	61
105389	7	Sololá	704	Santa Lucía Utatlán 	7	Santa Rita 	7	Julio	2023-07-14T00:00:00	2024-11-08T16:00:00	6	Velocidad del viento	4.8
105390	7	Sololá	704	Santa Lucía Utatlán 	7	Santa Rita 	7	Julio	2023-07-14T00:00:00	2024-11-08T16:00:00	7	Dirección del viento	4.83
105391	7	Sololá	704	Santa Lucía Utatlán 	7	Santa Rita 	7	Julio	2023-07-14T00:00:00	2024-11-08T16:00:00	1	Precipitación	0
105392	7	Sololá	704	Santa Lucía Utatlán 	7	Santa Rita 	7	Julio	2023-07-14T00:00:00	2024-11-08T16:00:00	8	Radiación solar	294
105393	7	Sololá	704	Santa Lucía Utatlán 	7	Santa Rita 	7	Julio	2023-07-14T00:00:00	2024-11-08T17:00:00	2	Temperatura media	23.2
105394	7	Sololá	704	Santa Lucía Utatlán 	7	Santa Rita 	7	Julio	2023-07-14T00:00:00	2024-11-08T17:00:00	4	Temperatura máxima	24.1
105395	7	Sololá	704	Santa Lucía Utatlán 	7	Santa Rita 	7	Julio	2023-07-14T00:00:00	2024-11-08T17:00:00	3	Temperatura mínima	23.2
105396	7	Sololá	704	Santa Lucía Utatlán 	7	Santa Rita 	7	Julio	2023-07-14T00:00:00	2024-11-08T17:00:00	5	Humedad	60
105397	7	Sololá	704	Santa Lucía Utatlán 	7	Santa Rita 	7	Julio	2023-07-14T00:00:00	2024-11-08T17:00:00	6	Velocidad del viento	6.4
105398	7	Sololá	704	Santa Lucía Utatlán 	7	Santa Rita 	7	Julio	2023-07-14T00:00:00	2024-11-08T17:00:00	7	Dirección del viento	6.44
105399	7	Sololá	704	Santa Lucía Utatlán 	7	Santa Rita 	7	Julio	2023-07-14T00:00:00	2024-11-08T17:00:00	1	Precipitación	0
105400	7	Sololá	704	Santa Lucía Utatlán 	7	Santa Rita 	7	Julio	2023-07-14T00:00:00	2024-11-08T17:00:00	8	Radiación solar	216
105401	7	Sololá	704	Santa Lucía Utatlán 	7	Santa Rita 	7	Julio	2023-07-14T00:00:00	2024-11-08T18:00:00	2	Temperatura media	22.4
105402	7	Sololá	704	Santa Lucía Utatlán 	7	Santa Rita 	7	Julio	2023-07-14T00:00:00	2024-11-08T18:00:00	4	Temperatura máxima	23.2
105403	7	Sololá	704	Santa Lucía Utatlán 	7	Santa Rita 	7	Julio	2023-07-14T00:00:00	2024-11-08T18:00:00	3	Temperatura mínima	22.4
105404	7	Sololá	704	Santa Lucía Utatlán 	7	Santa Rita 	7	Julio	2023-07-14T00:00:00	2024-11-08T18:00:00	5	Humedad	67
105405	7	Sololá	704	Santa Lucía Utatlán 	7	Santa Rita 	7	Julio	2023-07-14T00:00:00	2024-11-08T18:00:00	6	Velocidad del viento	8
105406	7	Sololá	704	Santa Lucía Utatlán 	7	Santa Rita 	7	Julio	2023-07-14T00:00:00	2024-11-08T18:00:00	7	Dirección del viento	8.05
105407	7	Sololá	704	Santa Lucía Utatlán 	7	Santa Rita 	7	Julio	2023-07-14T00:00:00	2024-11-08T18:00:00	1	Precipitación	0
105408	7	Sololá	704	Santa Lucía Utatlán 	7	Santa Rita 	7	Julio	2023-07-14T00:00:00	2024-11-08T18:00:00	8	Radiación solar	134
105409	7	Sololá	704	Santa Lucía Utatlán 	7	Santa Rita 	7	Julio	2023-07-14T00:00:00	2024-11-08T19:00:00	2	Temperatura media	21.8
105410	7	Sololá	704	Santa Lucía Utatlán 	7	Santa Rita 	7	Julio	2023-07-14T00:00:00	2024-11-08T19:00:00	4	Temperatura máxima	22.5
105411	7	Sololá	704	Santa Lucía Utatlán 	7	Santa Rita 	7	Julio	2023-07-14T00:00:00	2024-11-08T19:00:00	3	Temperatura mínima	21.8
105412	7	Sololá	704	Santa Lucía Utatlán 	7	Santa Rita 	7	Julio	2023-07-14T00:00:00	2024-11-08T19:00:00	5	Humedad	71
105413	7	Sololá	704	Santa Lucía Utatlán 	7	Santa Rita 	7	Julio	2023-07-14T00:00:00	2024-11-08T19:00:00	6	Velocidad del viento	9.7
105414	7	Sololá	704	Santa Lucía Utatlán 	7	Santa Rita 	7	Julio	2023-07-14T00:00:00	2024-11-08T19:00:00	7	Dirección del viento	9.66
105415	7	Sololá	704	Santa Lucía Utatlán 	7	Santa Rita 	7	Julio	2023-07-14T00:00:00	2024-11-08T19:00:00	1	Precipitación	0
105416	7	Sololá	704	Santa Lucía Utatlán 	7	Santa Rita 	7	Julio	2023-07-14T00:00:00	2024-11-08T19:00:00	8	Radiación solar	0
105417	7	Sololá	704	Santa Lucía Utatlán 	7	Santa Rita 	7	Julio	2023-07-14T00:00:00	2024-11-08T20:00:00	2	Temperatura media	20.3
105418	7	Sololá	704	Santa Lucía Utatlán 	7	Santa Rita 	7	Julio	2023-07-14T00:00:00	2024-11-08T20:00:00	4	Temperatura máxima	21.8
105419	7	Sololá	704	Santa Lucía Utatlán 	7	Santa Rita 	7	Julio	2023-07-14T00:00:00	2024-11-08T20:00:00	3	Temperatura mínima	20.1
105420	7	Sololá	704	Santa Lucía Utatlán 	7	Santa Rita 	7	Julio	2023-07-14T00:00:00	2024-11-08T20:00:00	5	Humedad	75
105421	7	Sololá	704	Santa Lucía Utatlán 	7	Santa Rita 	7	Julio	2023-07-14T00:00:00	2024-11-08T20:00:00	6	Velocidad del viento	4.8
105422	7	Sololá	704	Santa Lucía Utatlán 	7	Santa Rita 	7	Julio	2023-07-14T00:00:00	2024-11-08T20:00:00	7	Dirección del viento	4.83
105423	7	Sololá	704	Santa Lucía Utatlán 	7	Santa Rita 	7	Julio	2023-07-14T00:00:00	2024-11-08T20:00:00	1	Precipitación	0
105424	7	Sololá	704	Santa Lucía Utatlán 	7	Santa Rita 	7	Julio	2023-07-14T00:00:00	2024-11-08T20:00:00	8	Radiación solar	0
105425	7	Sololá	704	Santa Lucía Utatlán 	7	Santa Rita 	7	Julio	2023-07-14T00:00:00	2024-11-08T21:00:00	2	Temperatura media	21.1
105426	7	Sololá	704	Santa Lucía Utatlán 	7	Santa Rita 	7	Julio	2023-07-14T00:00:00	2024-11-08T21:00:00	4	Temperatura máxima	21.3
105427	7	Sololá	704	Santa Lucía Utatlán 	7	Santa Rita 	7	Julio	2023-07-14T00:00:00	2024-11-08T21:00:00	3	Temperatura mínima	20.3
105428	7	Sololá	704	Santa Lucía Utatlán 	7	Santa Rita 	7	Julio	2023-07-14T00:00:00	2024-11-08T21:00:00	5	Humedad	73
105429	7	Sololá	704	Santa Lucía Utatlán 	7	Santa Rita 	7	Julio	2023-07-14T00:00:00	2024-11-08T21:00:00	6	Velocidad del viento	8
105430	7	Sololá	704	Santa Lucía Utatlán 	7	Santa Rita 	7	Julio	2023-07-14T00:00:00	2024-11-08T21:00:00	7	Dirección del viento	8.05
105431	7	Sololá	704	Santa Lucía Utatlán 	7	Santa Rita 	7	Julio	2023-07-14T00:00:00	2024-11-08T21:00:00	1	Precipitación	0
105432	7	Sololá	704	Santa Lucía Utatlán 	7	Santa Rita 	7	Julio	2023-07-14T00:00:00	2024-11-08T21:00:00	8	Radiación solar	0
105433	7	Sololá	704	Santa Lucía Utatlán 	7	Santa Rita 	7	Julio	2023-07-14T00:00:00	2024-11-08T22:00:00	2	Temperatura media	20.2
105434	7	Sololá	704	Santa Lucía Utatlán 	7	Santa Rita 	7	Julio	2023-07-14T00:00:00	2024-11-08T22:00:00	4	Temperatura máxima	21.1
105435	7	Sololá	704	Santa Lucía Utatlán 	7	Santa Rita 	7	Julio	2023-07-14T00:00:00	2024-11-08T22:00:00	3	Temperatura mínima	20.1
105436	7	Sololá	704	Santa Lucía Utatlán 	7	Santa Rita 	7	Julio	2023-07-14T00:00:00	2024-11-08T22:00:00	5	Humedad	76
105437	7	Sololá	704	Santa Lucía Utatlán 	7	Santa Rita 	7	Julio	2023-07-14T00:00:00	2024-11-08T22:00:00	6	Velocidad del viento	9.7
105438	7	Sololá	704	Santa Lucía Utatlán 	7	Santa Rita 	7	Julio	2023-07-14T00:00:00	2024-11-08T22:00:00	7	Dirección del viento	9.66
105439	7	Sololá	704	Santa Lucía Utatlán 	7	Santa Rita 	7	Julio	2023-07-14T00:00:00	2024-11-08T22:00:00	1	Precipitación	0
105440	7	Sololá	704	Santa Lucía Utatlán 	7	Santa Rita 	7	Julio	2023-07-14T00:00:00	2024-11-08T22:00:00	8	Radiación solar	0
105441	7	Sololá	704	Santa Lucía Utatlán 	7	Santa Rita 	7	Julio	2023-07-14T00:00:00	2024-11-08T23:00:00	2	Temperatura media	20.1
105442	7	Sololá	704	Santa Lucía Utatlán 	7	Santa Rita 	7	Julio	2023-07-14T00:00:00	2024-11-08T23:00:00	4	Temperatura máxima	20.3
105443	7	Sololá	704	Santa Lucía Utatlán 	7	Santa Rita 	7	Julio	2023-07-14T00:00:00	2024-11-08T23:00:00	3	Temperatura mínima	19.9
105444	7	Sololá	704	Santa Lucía Utatlán 	7	Santa Rita 	7	Julio	2023-07-14T00:00:00	2024-11-08T23:00:00	5	Humedad	73
105445	7	Sololá	704	Santa Lucía Utatlán 	7	Santa Rita 	7	Julio	2023-07-14T00:00:00	2024-11-08T23:00:00	6	Velocidad del viento	6.4
105446	7	Sololá	704	Santa Lucía Utatlán 	7	Santa Rita 	7	Julio	2023-07-14T00:00:00	2024-11-08T23:00:00	7	Dirección del viento	6.44
105447	7	Sololá	704	Santa Lucía Utatlán 	7	Santa Rita 	7	Julio	2023-07-14T00:00:00	2024-11-08T23:00:00	1	Precipitación	0
105448	7	Sololá	704	Santa Lucía Utatlán 	7	Santa Rita 	7	Julio	2023-07-14T00:00:00	2024-11-08T23:00:00	8	Radiación solar	0
105449	7	Sololá	704	Santa Lucía Utatlán 	7	Santa Rita 	7	Julio	2023-07-15T00:00:00	2024-11-08T00:00:00	2	Temperatura media	18.3
105450	7	Sololá	704	Santa Lucía Utatlán 	7	Santa Rita 	7	Julio	2023-07-15T00:00:00	2024-11-08T00:00:00	4	Temperatura máxima	20.1
105451	7	Sololá	704	Santa Lucía Utatlán 	7	Santa Rita 	7	Julio	2023-07-15T00:00:00	2024-11-08T00:00:00	3	Temperatura mínima	18.2
105452	7	Sololá	704	Santa Lucía Utatlán 	7	Santa Rita 	7	Julio	2023-07-15T00:00:00	2024-11-08T00:00:00	5	Humedad	81
105453	7	Sololá	704	Santa Lucía Utatlán 	7	Santa Rita 	7	Julio	2023-07-15T00:00:00	2024-11-08T00:00:00	6	Velocidad del viento	4.8
105454	7	Sololá	704	Santa Lucía Utatlán 	7	Santa Rita 	7	Julio	2023-07-15T00:00:00	2024-11-08T00:00:00	7	Dirección del viento	4.83
105455	7	Sololá	704	Santa Lucía Utatlán 	7	Santa Rita 	7	Julio	2023-07-15T00:00:00	2024-11-08T00:00:00	1	Precipitación	0
105456	7	Sololá	704	Santa Lucía Utatlán 	7	Santa Rita 	7	Julio	2023-07-15T00:00:00	2024-11-08T00:00:00	8	Radiación solar	0
105457	7	Sololá	704	Santa Lucía Utatlán 	7	Santa Rita 	7	Julio	2023-07-15T00:00:00	2024-11-08T01:00:00	2	Temperatura media	18.6
105458	7	Sololá	704	Santa Lucía Utatlán 	7	Santa Rita 	7	Julio	2023-07-15T00:00:00	2024-11-08T01:00:00	4	Temperatura máxima	19.1
105459	7	Sololá	704	Santa Lucía Utatlán 	7	Santa Rita 	7	Julio	2023-07-15T00:00:00	2024-11-08T01:00:00	3	Temperatura mínima	18.2
105460	7	Sololá	704	Santa Lucía Utatlán 	7	Santa Rita 	7	Julio	2023-07-15T00:00:00	2024-11-08T01:00:00	5	Humedad	79
105461	7	Sololá	704	Santa Lucía Utatlán 	7	Santa Rita 	7	Julio	2023-07-15T00:00:00	2024-11-08T01:00:00	6	Velocidad del viento	3.2
105462	7	Sololá	704	Santa Lucía Utatlán 	7	Santa Rita 	7	Julio	2023-07-15T00:00:00	2024-11-08T01:00:00	7	Dirección del viento	3.22
105463	7	Sololá	704	Santa Lucía Utatlán 	7	Santa Rita 	7	Julio	2023-07-15T00:00:00	2024-11-08T01:00:00	1	Precipitación	0
105464	7	Sololá	704	Santa Lucía Utatlán 	7	Santa Rita 	7	Julio	2023-07-15T00:00:00	2024-11-08T01:00:00	8	Radiación solar	0
105465	7	Sololá	704	Santa Lucía Utatlán 	7	Santa Rita 	7	Julio	2023-07-15T00:00:00	2024-11-08T02:00:00	2	Temperatura media	20
105466	7	Sololá	704	Santa Lucía Utatlán 	7	Santa Rita 	7	Julio	2023-07-15T00:00:00	2024-11-08T02:00:00	4	Temperatura máxima	20.1
105467	7	Sololá	704	Santa Lucía Utatlán 	7	Santa Rita 	7	Julio	2023-07-15T00:00:00	2024-11-08T02:00:00	3	Temperatura mínima	18.1
105468	7	Sololá	704	Santa Lucía Utatlán 	7	Santa Rita 	7	Julio	2023-07-15T00:00:00	2024-11-08T02:00:00	5	Humedad	71
105469	7	Sololá	704	Santa Lucía Utatlán 	7	Santa Rita 	7	Julio	2023-07-15T00:00:00	2024-11-08T02:00:00	6	Velocidad del viento	6.4
105470	7	Sololá	704	Santa Lucía Utatlán 	7	Santa Rita 	7	Julio	2023-07-15T00:00:00	2024-11-08T02:00:00	7	Dirección del viento	6.44
105471	7	Sololá	704	Santa Lucía Utatlán 	7	Santa Rita 	7	Julio	2023-07-15T00:00:00	2024-11-08T02:00:00	1	Precipitación	0
105472	7	Sololá	704	Santa Lucía Utatlán 	7	Santa Rita 	7	Julio	2023-07-15T00:00:00	2024-11-08T02:00:00	8	Radiación solar	0
105473	7	Sololá	704	Santa Lucía Utatlán 	7	Santa Rita 	7	Julio	2023-07-15T00:00:00	2024-11-08T03:00:00	2	Temperatura media	18.7
105474	7	Sololá	704	Santa Lucía Utatlán 	7	Santa Rita 	7	Julio	2023-07-15T00:00:00	2024-11-08T03:00:00	4	Temperatura máxima	20
105475	7	Sololá	704	Santa Lucía Utatlán 	7	Santa Rita 	7	Julio	2023-07-15T00:00:00	2024-11-08T03:00:00	3	Temperatura mínima	18.6
105476	7	Sololá	704	Santa Lucía Utatlán 	7	Santa Rita 	7	Julio	2023-07-15T00:00:00	2024-11-08T03:00:00	5	Humedad	77
105477	7	Sololá	704	Santa Lucía Utatlán 	7	Santa Rita 	7	Julio	2023-07-15T00:00:00	2024-11-08T03:00:00	6	Velocidad del viento	6.4
105478	7	Sololá	704	Santa Lucía Utatlán 	7	Santa Rita 	7	Julio	2023-07-15T00:00:00	2024-11-08T03:00:00	7	Dirección del viento	6.44
105479	7	Sololá	704	Santa Lucía Utatlán 	7	Santa Rita 	7	Julio	2023-07-15T00:00:00	2024-11-08T03:00:00	1	Precipitación	0
105480	7	Sololá	704	Santa Lucía Utatlán 	7	Santa Rita 	7	Julio	2023-07-15T00:00:00	2024-11-08T03:00:00	8	Radiación solar	0
105481	7	Sololá	704	Santa Lucía Utatlán 	7	Santa Rita 	7	Julio	2023-07-15T00:00:00	2024-11-08T04:00:00	2	Temperatura media	18.3
105482	7	Sololá	704	Santa Lucía Utatlán 	7	Santa Rita 	7	Julio	2023-07-15T00:00:00	2024-11-08T04:00:00	4	Temperatura máxima	18.7
105483	7	Sololá	704	Santa Lucía Utatlán 	7	Santa Rita 	7	Julio	2023-07-15T00:00:00	2024-11-08T04:00:00	3	Temperatura mínima	17.9
105484	7	Sololá	704	Santa Lucía Utatlán 	7	Santa Rita 	7	Julio	2023-07-15T00:00:00	2024-11-08T04:00:00	5	Humedad	82
105485	7	Sololá	704	Santa Lucía Utatlán 	7	Santa Rita 	7	Julio	2023-07-15T00:00:00	2024-11-08T04:00:00	6	Velocidad del viento	3.2
105486	7	Sololá	704	Santa Lucía Utatlán 	7	Santa Rita 	7	Julio	2023-07-15T00:00:00	2024-11-08T04:00:00	7	Dirección del viento	3.22
105487	7	Sololá	704	Santa Lucía Utatlán 	7	Santa Rita 	7	Julio	2023-07-15T00:00:00	2024-11-08T04:00:00	1	Precipitación	0
105488	7	Sololá	704	Santa Lucía Utatlán 	7	Santa Rita 	7	Julio	2023-07-15T00:00:00	2024-11-08T04:00:00	8	Radiación solar	0
105489	7	Sololá	704	Santa Lucía Utatlán 	7	Santa Rita 	7	Julio	2023-07-15T00:00:00	2024-11-08T05:00:00	2	Temperatura media	19.2
105490	7	Sololá	704	Santa Lucía Utatlán 	7	Santa Rita 	7	Julio	2023-07-15T00:00:00	2024-11-08T05:00:00	4	Temperatura máxima	19.3
105491	7	Sololá	704	Santa Lucía Utatlán 	7	Santa Rita 	7	Julio	2023-07-15T00:00:00	2024-11-08T05:00:00	3	Temperatura mínima	18.3
105492	7	Sololá	704	Santa Lucía Utatlán 	7	Santa Rita 	7	Julio	2023-07-15T00:00:00	2024-11-08T05:00:00	5	Humedad	81
105493	7	Sololá	704	Santa Lucía Utatlán 	7	Santa Rita 	7	Julio	2023-07-15T00:00:00	2024-11-08T05:00:00	6	Velocidad del viento	3.2
105494	7	Sololá	704	Santa Lucía Utatlán 	7	Santa Rita 	7	Julio	2023-07-15T00:00:00	2024-11-08T05:00:00	7	Dirección del viento	3.22
105495	7	Sololá	704	Santa Lucía Utatlán 	7	Santa Rita 	7	Julio	2023-07-15T00:00:00	2024-11-08T05:00:00	1	Precipitación	0
105496	7	Sololá	704	Santa Lucía Utatlán 	7	Santa Rita 	7	Julio	2023-07-15T00:00:00	2024-11-08T05:00:00	8	Radiación solar	0
105497	7	Sololá	704	Santa Lucía Utatlán 	7	Santa Rita 	7	Julio	2023-07-15T00:00:00	2024-11-08T06:00:00	2	Temperatura media	18.2
105498	7	Sololá	704	Santa Lucía Utatlán 	7	Santa Rita 	7	Julio	2023-07-15T00:00:00	2024-11-08T06:00:00	4	Temperatura máxima	19.2
105499	7	Sololá	704	Santa Lucía Utatlán 	7	Santa Rita 	7	Julio	2023-07-15T00:00:00	2024-11-08T06:00:00	3	Temperatura mínima	18.2
105500	7	Sololá	704	Santa Lucía Utatlán 	7	Santa Rita 	7	Julio	2023-07-15T00:00:00	2024-11-08T06:00:00	5	Humedad	87
105501	7	Sololá	704	Santa Lucía Utatlán 	7	Santa Rita 	7	Julio	2023-07-15T00:00:00	2024-11-08T06:00:00	6	Velocidad del viento	3.2
105502	7	Sololá	704	Santa Lucía Utatlán 	7	Santa Rita 	7	Julio	2023-07-15T00:00:00	2024-11-08T06:00:00	7	Dirección del viento	3.22
105503	7	Sololá	704	Santa Lucía Utatlán 	7	Santa Rita 	7	Julio	2023-07-15T00:00:00	2024-11-08T06:00:00	1	Precipitación	0
105504	7	Sololá	704	Santa Lucía Utatlán 	7	Santa Rita 	7	Julio	2023-07-15T00:00:00	2024-11-08T06:00:00	8	Radiación solar	3
105505	7	Sololá	704	Santa Lucía Utatlán 	7	Santa Rita 	7	Julio	2023-07-15T00:00:00	2024-11-08T07:00:00	2	Temperatura media	18.6
105506	7	Sololá	704	Santa Lucía Utatlán 	7	Santa Rita 	7	Julio	2023-07-15T00:00:00	2024-11-08T07:00:00	4	Temperatura máxima	18.6
105507	7	Sololá	704	Santa Lucía Utatlán 	7	Santa Rita 	7	Julio	2023-07-15T00:00:00	2024-11-08T07:00:00	3	Temperatura mínima	18.1
105508	7	Sololá	704	Santa Lucía Utatlán 	7	Santa Rita 	7	Julio	2023-07-15T00:00:00	2024-11-08T07:00:00	5	Humedad	87
105509	7	Sololá	704	Santa Lucía Utatlán 	7	Santa Rita 	7	Julio	2023-07-15T00:00:00	2024-11-08T07:00:00	6	Velocidad del viento	1.6
105510	7	Sololá	704	Santa Lucía Utatlán 	7	Santa Rita 	7	Julio	2023-07-15T00:00:00	2024-11-08T07:00:00	7	Dirección del viento	1.61
105511	7	Sololá	704	Santa Lucía Utatlán 	7	Santa Rita 	7	Julio	2023-07-15T00:00:00	2024-11-08T07:00:00	1	Precipitación	0
105512	7	Sololá	704	Santa Lucía Utatlán 	7	Santa Rita 	7	Julio	2023-07-15T00:00:00	2024-11-08T07:00:00	8	Radiación solar	54
105513	7	Sololá	704	Santa Lucía Utatlán 	7	Santa Rita 	7	Julio	2023-07-15T00:00:00	2024-11-08T08:00:00	2	Temperatura media	21.1
105514	7	Sololá	704	Santa Lucía Utatlán 	7	Santa Rita 	7	Julio	2023-07-15T00:00:00	2024-11-08T08:00:00	4	Temperatura máxima	21.1
105515	7	Sololá	704	Santa Lucía Utatlán 	7	Santa Rita 	7	Julio	2023-07-15T00:00:00	2024-11-08T08:00:00	3	Temperatura mínima	18.6
105516	7	Sololá	704	Santa Lucía Utatlán 	7	Santa Rita 	7	Julio	2023-07-15T00:00:00	2024-11-08T08:00:00	5	Humedad	80
105517	7	Sololá	704	Santa Lucía Utatlán 	7	Santa Rita 	7	Julio	2023-07-15T00:00:00	2024-11-08T08:00:00	6	Velocidad del viento	3.2
105518	7	Sololá	704	Santa Lucía Utatlán 	7	Santa Rita 	7	Julio	2023-07-15T00:00:00	2024-11-08T08:00:00	7	Dirección del viento	3.22
105519	7	Sololá	704	Santa Lucía Utatlán 	7	Santa Rita 	7	Julio	2023-07-15T00:00:00	2024-11-08T08:00:00	1	Precipitación	0
105520	7	Sololá	704	Santa Lucía Utatlán 	7	Santa Rita 	7	Julio	2023-07-15T00:00:00	2024-11-08T08:00:00	8	Radiación solar	232
105521	7	Sololá	704	Santa Lucía Utatlán 	7	Santa Rita 	7	Julio	2023-07-15T00:00:00	2024-11-08T09:00:00	2	Temperatura media	23
105522	7	Sololá	704	Santa Lucía Utatlán 	7	Santa Rita 	7	Julio	2023-07-15T00:00:00	2024-11-08T09:00:00	4	Temperatura máxima	23
105523	7	Sololá	704	Santa Lucía Utatlán 	7	Santa Rita 	7	Julio	2023-07-15T00:00:00	2024-11-08T09:00:00	3	Temperatura mínima	21.1
105524	7	Sololá	704	Santa Lucía Utatlán 	7	Santa Rita 	7	Julio	2023-07-15T00:00:00	2024-11-08T09:00:00	5	Humedad	68
105525	7	Sololá	704	Santa Lucía Utatlán 	7	Santa Rita 	7	Julio	2023-07-15T00:00:00	2024-11-08T09:00:00	6	Velocidad del viento	6.4
105526	7	Sololá	704	Santa Lucía Utatlán 	7	Santa Rita 	7	Julio	2023-07-15T00:00:00	2024-11-08T09:00:00	7	Dirección del viento	6.44
105527	7	Sololá	704	Santa Lucía Utatlán 	7	Santa Rita 	7	Julio	2023-07-15T00:00:00	2024-11-08T09:00:00	1	Precipitación	0
105528	7	Sololá	704	Santa Lucía Utatlán 	7	Santa Rita 	7	Julio	2023-07-15T00:00:00	2024-11-08T09:00:00	8	Radiación solar	462
105529	7	Sololá	704	Santa Lucía Utatlán 	7	Santa Rita 	7	Julio	2023-07-15T00:00:00	2024-11-08T10:00:00	2	Temperatura media	23.8
105530	7	Sololá	704	Santa Lucía Utatlán 	7	Santa Rita 	7	Julio	2023-07-15T00:00:00	2024-11-08T10:00:00	4	Temperatura máxima	23.8
105531	7	Sololá	704	Santa Lucía Utatlán 	7	Santa Rita 	7	Julio	2023-07-15T00:00:00	2024-11-08T10:00:00	3	Temperatura mínima	23
105532	7	Sololá	704	Santa Lucía Utatlán 	7	Santa Rita 	7	Julio	2023-07-15T00:00:00	2024-11-08T10:00:00	5	Humedad	64
105533	7	Sololá	704	Santa Lucía Utatlán 	7	Santa Rita 	7	Julio	2023-07-15T00:00:00	2024-11-08T10:00:00	6	Velocidad del viento	8
105534	7	Sololá	704	Santa Lucía Utatlán 	7	Santa Rita 	7	Julio	2023-07-15T00:00:00	2024-11-08T10:00:00	7	Dirección del viento	8.05
105535	7	Sololá	704	Santa Lucía Utatlán 	7	Santa Rita 	7	Julio	2023-07-15T00:00:00	2024-11-08T10:00:00	1	Precipitación	0
105536	7	Sololá	704	Santa Lucía Utatlán 	7	Santa Rita 	7	Julio	2023-07-15T00:00:00	2024-11-08T10:00:00	8	Radiación solar	671
105537	7	Sololá	704	Santa Lucía Utatlán 	7	Santa Rita 	7	Julio	2023-07-15T00:00:00	2024-11-08T11:00:00	2	Temperatura media	23.8
105538	7	Sololá	704	Santa Lucía Utatlán 	7	Santa Rita 	7	Julio	2023-07-15T00:00:00	2024-11-08T11:00:00	4	Temperatura máxima	24
105539	7	Sololá	704	Santa Lucía Utatlán 	7	Santa Rita 	7	Julio	2023-07-15T00:00:00	2024-11-08T11:00:00	3	Temperatura mínima	23.6
105540	7	Sololá	704	Santa Lucía Utatlán 	7	Santa Rita 	7	Julio	2023-07-15T00:00:00	2024-11-08T11:00:00	5	Humedad	61
105541	7	Sololá	704	Santa Lucía Utatlán 	7	Santa Rita 	7	Julio	2023-07-15T00:00:00	2024-11-08T11:00:00	6	Velocidad del viento	11.3
105542	7	Sololá	704	Santa Lucía Utatlán 	7	Santa Rita 	7	Julio	2023-07-15T00:00:00	2024-11-08T11:00:00	7	Dirección del viento	11.27
105543	7	Sololá	704	Santa Lucía Utatlán 	7	Santa Rita 	7	Julio	2023-07-15T00:00:00	2024-11-08T11:00:00	1	Precipitación	0
105544	7	Sololá	704	Santa Lucía Utatlán 	7	Santa Rita 	7	Julio	2023-07-15T00:00:00	2024-11-08T11:00:00	8	Radiación solar	868
105545	7	Sololá	704	Santa Lucía Utatlán 	7	Santa Rita 	7	Julio	2023-07-15T00:00:00	2024-11-08T12:00:00	2	Temperatura media	24
105546	7	Sololá	704	Santa Lucía Utatlán 	7	Santa Rita 	7	Julio	2023-07-15T00:00:00	2024-11-08T12:00:00	4	Temperatura máxima	24.8
105547	7	Sololá	704	Santa Lucía Utatlán 	7	Santa Rita 	7	Julio	2023-07-15T00:00:00	2024-11-08T12:00:00	3	Temperatura mínima	23.8
105548	7	Sololá	704	Santa Lucía Utatlán 	7	Santa Rita 	7	Julio	2023-07-15T00:00:00	2024-11-08T12:00:00	5	Humedad	63
105549	7	Sololá	704	Santa Lucía Utatlán 	7	Santa Rita 	7	Julio	2023-07-15T00:00:00	2024-11-08T12:00:00	6	Velocidad del viento	11.3
105550	7	Sololá	704	Santa Lucía Utatlán 	7	Santa Rita 	7	Julio	2023-07-15T00:00:00	2024-11-08T12:00:00	7	Dirección del viento	11.27
105551	7	Sololá	704	Santa Lucía Utatlán 	7	Santa Rita 	7	Julio	2023-07-15T00:00:00	2024-11-08T12:00:00	1	Precipitación	0
105552	7	Sololá	704	Santa Lucía Utatlán 	7	Santa Rita 	7	Julio	2023-07-15T00:00:00	2024-11-08T12:00:00	8	Radiación solar	913
105553	7	Sololá	704	Santa Lucía Utatlán 	7	Santa Rita 	7	Julio	2023-07-15T00:00:00	2024-11-08T13:00:00	2	Temperatura media	23.6
105554	7	Sololá	704	Santa Lucía Utatlán 	7	Santa Rita 	7	Julio	2023-07-15T00:00:00	2024-11-08T13:00:00	4	Temperatura máxima	24
105555	7	Sololá	704	Santa Lucía Utatlán 	7	Santa Rita 	7	Julio	2023-07-15T00:00:00	2024-11-08T13:00:00	3	Temperatura mínima	23.2
105556	7	Sololá	704	Santa Lucía Utatlán 	7	Santa Rita 	7	Julio	2023-07-15T00:00:00	2024-11-08T13:00:00	5	Humedad	67
105557	7	Sololá	704	Santa Lucía Utatlán 	7	Santa Rita 	7	Julio	2023-07-15T00:00:00	2024-11-08T13:00:00	6	Velocidad del viento	9.7
105558	7	Sololá	704	Santa Lucía Utatlán 	7	Santa Rita 	7	Julio	2023-07-15T00:00:00	2024-11-08T13:00:00	7	Dirección del viento	9.66
105559	7	Sololá	704	Santa Lucía Utatlán 	7	Santa Rita 	7	Julio	2023-07-15T00:00:00	2024-11-08T13:00:00	1	Precipitación	0
105560	7	Sololá	704	Santa Lucía Utatlán 	7	Santa Rita 	7	Julio	2023-07-15T00:00:00	2024-11-08T13:00:00	8	Radiación solar	359
105561	7	Sololá	704	Santa Lucía Utatlán 	7	Santa Rita 	7	Julio	2023-07-15T00:00:00	2024-11-08T14:00:00	2	Temperatura media	23.2
105562	7	Sololá	704	Santa Lucía Utatlán 	7	Santa Rita 	7	Julio	2023-07-15T00:00:00	2024-11-08T14:00:00	4	Temperatura máxima	23.6
105563	7	Sololá	704	Santa Lucía Utatlán 	7	Santa Rita 	7	Julio	2023-07-15T00:00:00	2024-11-08T14:00:00	3	Temperatura mínima	22.6
105564	7	Sololá	704	Santa Lucía Utatlán 	7	Santa Rita 	7	Julio	2023-07-15T00:00:00	2024-11-08T14:00:00	5	Humedad	72
105565	7	Sololá	704	Santa Lucía Utatlán 	7	Santa Rita 	7	Julio	2023-07-15T00:00:00	2024-11-08T14:00:00	6	Velocidad del viento	6.4
105566	7	Sololá	704	Santa Lucía Utatlán 	7	Santa Rita 	7	Julio	2023-07-15T00:00:00	2024-11-08T14:00:00	7	Dirección del viento	6.44
105567	7	Sololá	704	Santa Lucía Utatlán 	7	Santa Rita 	7	Julio	2023-07-15T00:00:00	2024-11-08T14:00:00	1	Precipitación	0
105568	7	Sololá	704	Santa Lucía Utatlán 	7	Santa Rita 	7	Julio	2023-07-15T00:00:00	2024-11-08T14:00:00	8	Radiación solar	204
105569	7	Sololá	704	Santa Lucía Utatlán 	7	Santa Rita 	7	Julio	2023-07-15T00:00:00	2024-11-08T15:00:00	2	Temperatura media	24.8
105570	7	Sololá	704	Santa Lucía Utatlán 	7	Santa Rita 	7	Julio	2023-07-15T00:00:00	2024-11-08T15:00:00	4	Temperatura máxima	24.8
105571	7	Sololá	704	Santa Lucía Utatlán 	7	Santa Rita 	7	Julio	2023-07-15T00:00:00	2024-11-08T15:00:00	3	Temperatura mínima	23.2
105572	7	Sololá	704	Santa Lucía Utatlán 	7	Santa Rita 	7	Julio	2023-07-15T00:00:00	2024-11-08T15:00:00	5	Humedad	62
105573	7	Sololá	704	Santa Lucía Utatlán 	7	Santa Rita 	7	Julio	2023-07-15T00:00:00	2024-11-08T15:00:00	6	Velocidad del viento	9.7
105574	7	Sololá	704	Santa Lucía Utatlán 	7	Santa Rita 	7	Julio	2023-07-15T00:00:00	2024-11-08T15:00:00	7	Dirección del viento	9.66
105575	7	Sololá	704	Santa Lucía Utatlán 	7	Santa Rita 	7	Julio	2023-07-15T00:00:00	2024-11-08T15:00:00	1	Precipitación	0
105576	7	Sololá	704	Santa Lucía Utatlán 	7	Santa Rita 	7	Julio	2023-07-15T00:00:00	2024-11-08T15:00:00	8	Radiación solar	523
105577	7	Sololá	704	Santa Lucía Utatlán 	7	Santa Rita 	7	Julio	2023-07-15T00:00:00	2024-11-08T16:00:00	2	Temperatura media	24.1
105578	7	Sololá	704	Santa Lucía Utatlán 	7	Santa Rita 	7	Julio	2023-07-15T00:00:00	2024-11-08T16:00:00	4	Temperatura máxima	25.2
105579	7	Sololá	704	Santa Lucía Utatlán 	7	Santa Rita 	7	Julio	2023-07-15T00:00:00	2024-11-08T16:00:00	3	Temperatura mínima	24.1
105580	7	Sololá	704	Santa Lucía Utatlán 	7	Santa Rita 	7	Julio	2023-07-15T00:00:00	2024-11-08T16:00:00	5	Humedad	62
105581	7	Sololá	704	Santa Lucía Utatlán 	7	Santa Rita 	7	Julio	2023-07-15T00:00:00	2024-11-08T16:00:00	6	Velocidad del viento	8
105582	7	Sololá	704	Santa Lucía Utatlán 	7	Santa Rita 	7	Julio	2023-07-15T00:00:00	2024-11-08T16:00:00	7	Dirección del viento	8.05
105583	7	Sololá	704	Santa Lucía Utatlán 	7	Santa Rita 	7	Julio	2023-07-15T00:00:00	2024-11-08T16:00:00	1	Precipitación	0
105584	7	Sololá	704	Santa Lucía Utatlán 	7	Santa Rita 	7	Julio	2023-07-15T00:00:00	2024-11-08T16:00:00	8	Radiación solar	512
105585	7	Sololá	704	Santa Lucía Utatlán 	7	Santa Rita 	7	Julio	2023-07-15T00:00:00	2024-11-08T17:00:00	2	Temperatura media	22.7
105586	7	Sololá	704	Santa Lucía Utatlán 	7	Santa Rita 	7	Julio	2023-07-15T00:00:00	2024-11-08T17:00:00	4	Temperatura máxima	24.1
105587	7	Sololá	704	Santa Lucía Utatlán 	7	Santa Rita 	7	Julio	2023-07-15T00:00:00	2024-11-08T17:00:00	3	Temperatura mínima	22.7
105588	7	Sololá	704	Santa Lucía Utatlán 	7	Santa Rita 	7	Julio	2023-07-15T00:00:00	2024-11-08T17:00:00	5	Humedad	65
105589	7	Sololá	704	Santa Lucía Utatlán 	7	Santa Rita 	7	Julio	2023-07-15T00:00:00	2024-11-08T17:00:00	6	Velocidad del viento	8
105590	7	Sololá	704	Santa Lucía Utatlán 	7	Santa Rita 	7	Julio	2023-07-15T00:00:00	2024-11-08T17:00:00	7	Dirección del viento	8.05
105591	7	Sololá	704	Santa Lucía Utatlán 	7	Santa Rita 	7	Julio	2023-07-15T00:00:00	2024-11-08T17:00:00	1	Precipitación	0
105592	7	Sololá	704	Santa Lucía Utatlán 	7	Santa Rita 	7	Julio	2023-07-15T00:00:00	2024-11-08T17:00:00	8	Radiación solar	141
105593	7	Sololá	704	Santa Lucía Utatlán 	7	Santa Rita 	7	Julio	2023-07-15T00:00:00	2024-11-08T18:00:00	2	Temperatura media	21.6
105594	7	Sololá	704	Santa Lucía Utatlán 	7	Santa Rita 	7	Julio	2023-07-15T00:00:00	2024-11-08T18:00:00	4	Temperatura máxima	22.7
105595	7	Sololá	704	Santa Lucía Utatlán 	7	Santa Rita 	7	Julio	2023-07-15T00:00:00	2024-11-08T18:00:00	3	Temperatura mínima	21.6
105596	7	Sololá	704	Santa Lucía Utatlán 	7	Santa Rita 	7	Julio	2023-07-15T00:00:00	2024-11-08T18:00:00	5	Humedad	70
105597	7	Sololá	704	Santa Lucía Utatlán 	7	Santa Rita 	7	Julio	2023-07-15T00:00:00	2024-11-08T18:00:00	6	Velocidad del viento	4.8
105598	7	Sololá	704	Santa Lucía Utatlán 	7	Santa Rita 	7	Julio	2023-07-15T00:00:00	2024-11-08T18:00:00	7	Dirección del viento	4.83
105599	7	Sololá	704	Santa Lucía Utatlán 	7	Santa Rita 	7	Julio	2023-07-15T00:00:00	2024-11-08T18:00:00	1	Precipitación	0
105600	7	Sololá	704	Santa Lucía Utatlán 	7	Santa Rita 	7	Julio	2023-07-15T00:00:00	2024-11-08T18:00:00	8	Radiación solar	54
105601	7	Sololá	704	Santa Lucía Utatlán 	7	Santa Rita 	7	Julio	2023-07-15T00:00:00	2024-11-08T19:00:00	2	Temperatura media	20.4
105602	7	Sololá	704	Santa Lucía Utatlán 	7	Santa Rita 	7	Julio	2023-07-15T00:00:00	2024-11-08T19:00:00	4	Temperatura máxima	21.7
105603	7	Sololá	704	Santa Lucía Utatlán 	7	Santa Rita 	7	Julio	2023-07-15T00:00:00	2024-11-08T19:00:00	3	Temperatura mínima	20.4
105604	7	Sololá	704	Santa Lucía Utatlán 	7	Santa Rita 	7	Julio	2023-07-15T00:00:00	2024-11-08T19:00:00	5	Humedad	78
105605	7	Sololá	704	Santa Lucía Utatlán 	7	Santa Rita 	7	Julio	2023-07-15T00:00:00	2024-11-08T19:00:00	6	Velocidad del viento	3.2
105606	7	Sololá	704	Santa Lucía Utatlán 	7	Santa Rita 	7	Julio	2023-07-15T00:00:00	2024-11-08T19:00:00	7	Dirección del viento	3.22
105607	7	Sololá	704	Santa Lucía Utatlán 	7	Santa Rita 	7	Julio	2023-07-15T00:00:00	2024-11-08T19:00:00	1	Precipitación	0
105608	7	Sololá	704	Santa Lucía Utatlán 	7	Santa Rita 	7	Julio	2023-07-15T00:00:00	2024-11-08T19:00:00	8	Radiación solar	0
105609	7	Sololá	704	Santa Lucía Utatlán 	7	Santa Rita 	7	Julio	2023-07-15T00:00:00	2024-11-08T20:00:00	2	Temperatura media	20.3
105610	7	Sololá	704	Santa Lucía Utatlán 	7	Santa Rita 	7	Julio	2023-07-15T00:00:00	2024-11-08T20:00:00	4	Temperatura máxima	20.4
105611	7	Sololá	704	Santa Lucía Utatlán 	7	Santa Rita 	7	Julio	2023-07-15T00:00:00	2024-11-08T20:00:00	3	Temperatura mínima	19.1
105612	7	Sololá	704	Santa Lucía Utatlán 	7	Santa Rita 	7	Julio	2023-07-15T00:00:00	2024-11-08T20:00:00	5	Humedad	79
105613	7	Sololá	704	Santa Lucía Utatlán 	7	Santa Rita 	7	Julio	2023-07-15T00:00:00	2024-11-08T20:00:00	6	Velocidad del viento	3.2
105614	7	Sololá	704	Santa Lucía Utatlán 	7	Santa Rita 	7	Julio	2023-07-15T00:00:00	2024-11-08T20:00:00	7	Dirección del viento	3.22
105615	7	Sololá	704	Santa Lucía Utatlán 	7	Santa Rita 	7	Julio	2023-07-15T00:00:00	2024-11-08T20:00:00	1	Precipitación	0
105616	7	Sololá	704	Santa Lucía Utatlán 	7	Santa Rita 	7	Julio	2023-07-15T00:00:00	2024-11-08T20:00:00	8	Radiación solar	0
105617	7	Sololá	704	Santa Lucía Utatlán 	7	Santa Rita 	7	Julio	2023-07-15T00:00:00	2024-11-08T21:00:00	2	Temperatura media	18.5
105618	7	Sololá	704	Santa Lucía Utatlán 	7	Santa Rita 	7	Julio	2023-07-15T00:00:00	2024-11-08T21:00:00	4	Temperatura máxima	20.2
105619	7	Sololá	704	Santa Lucía Utatlán 	7	Santa Rita 	7	Julio	2023-07-15T00:00:00	2024-11-08T21:00:00	3	Temperatura mínima	18.4
105620	7	Sololá	704	Santa Lucía Utatlán 	7	Santa Rita 	7	Julio	2023-07-15T00:00:00	2024-11-08T21:00:00	5	Humedad	92
105621	7	Sololá	704	Santa Lucía Utatlán 	7	Santa Rita 	7	Julio	2023-07-15T00:00:00	2024-11-08T21:00:00	6	Velocidad del viento	3.2
105622	7	Sololá	704	Santa Lucía Utatlán 	7	Santa Rita 	7	Julio	2023-07-15T00:00:00	2024-11-08T21:00:00	7	Dirección del viento	3.22
105623	7	Sololá	704	Santa Lucía Utatlán 	7	Santa Rita 	7	Julio	2023-07-15T00:00:00	2024-11-08T21:00:00	1	Precipitación	0.8
105624	7	Sololá	704	Santa Lucía Utatlán 	7	Santa Rita 	7	Julio	2023-07-15T00:00:00	2024-11-08T21:00:00	8	Radiación solar	0
105625	7	Sololá	704	Santa Lucía Utatlán 	7	Santa Rita 	7	Julio	2023-07-15T00:00:00	2024-11-08T22:00:00	2	Temperatura media	17.7
105626	7	Sololá	704	Santa Lucía Utatlán 	7	Santa Rita 	7	Julio	2023-07-15T00:00:00	2024-11-08T22:00:00	4	Temperatura máxima	18.6
105627	7	Sololá	704	Santa Lucía Utatlán 	7	Santa Rita 	7	Julio	2023-07-15T00:00:00	2024-11-08T22:00:00	3	Temperatura mínima	17.7
105628	7	Sololá	704	Santa Lucía Utatlán 	7	Santa Rita 	7	Julio	2023-07-15T00:00:00	2024-11-08T22:00:00	5	Humedad	91
105629	7	Sololá	704	Santa Lucía Utatlán 	7	Santa Rita 	7	Julio	2023-07-15T00:00:00	2024-11-08T22:00:00	6	Velocidad del viento	3.2
105630	7	Sololá	704	Santa Lucía Utatlán 	7	Santa Rita 	7	Julio	2023-07-15T00:00:00	2024-11-08T22:00:00	7	Dirección del viento	3.22
105631	7	Sololá	704	Santa Lucía Utatlán 	7	Santa Rita 	7	Julio	2023-07-15T00:00:00	2024-11-08T22:00:00	1	Precipitación	0
105632	7	Sololá	704	Santa Lucía Utatlán 	7	Santa Rita 	7	Julio	2023-07-15T00:00:00	2024-11-08T22:00:00	8	Radiación solar	0
105633	7	Sololá	704	Santa Lucía Utatlán 	7	Santa Rita 	7	Julio	2023-07-15T00:00:00	2024-11-08T23:00:00	2	Temperatura media	18.8
105634	7	Sololá	704	Santa Lucía Utatlán 	7	Santa Rita 	7	Julio	2023-07-15T00:00:00	2024-11-08T23:00:00	4	Temperatura máxima	19.9
105635	7	Sololá	704	Santa Lucía Utatlán 	7	Santa Rita 	7	Julio	2023-07-15T00:00:00	2024-11-08T23:00:00	3	Temperatura mínima	17.7
105636	7	Sololá	704	Santa Lucía Utatlán 	7	Santa Rita 	7	Julio	2023-07-15T00:00:00	2024-11-08T23:00:00	5	Humedad	81
105637	7	Sololá	704	Santa Lucía Utatlán 	7	Santa Rita 	7	Julio	2023-07-15T00:00:00	2024-11-08T23:00:00	6	Velocidad del viento	4.8
105638	7	Sololá	704	Santa Lucía Utatlán 	7	Santa Rita 	7	Julio	2023-07-15T00:00:00	2024-11-08T23:00:00	7	Dirección del viento	4.83
105639	7	Sololá	704	Santa Lucía Utatlán 	7	Santa Rita 	7	Julio	2023-07-15T00:00:00	2024-11-08T23:00:00	1	Precipitación	0
105640	7	Sololá	704	Santa Lucía Utatlán 	7	Santa Rita 	7	Julio	2023-07-15T00:00:00	2024-11-08T23:00:00	8	Radiación solar	0
105641	7	Sololá	704	Santa Lucía Utatlán 	7	Santa Rita 	7	Julio	2023-07-16T00:00:00	2024-11-08T00:00:00	2	Temperatura media	18.3
105642	7	Sololá	704	Santa Lucía Utatlán 	7	Santa Rita 	7	Julio	2023-07-16T00:00:00	2024-11-08T00:00:00	4	Temperatura máxima	19.4
105643	7	Sololá	704	Santa Lucía Utatlán 	7	Santa Rita 	7	Julio	2023-07-16T00:00:00	2024-11-08T00:00:00	3	Temperatura mínima	18.1
105644	7	Sololá	704	Santa Lucía Utatlán 	7	Santa Rita 	7	Julio	2023-07-16T00:00:00	2024-11-08T00:00:00	5	Humedad	86
105645	7	Sololá	704	Santa Lucía Utatlán 	7	Santa Rita 	7	Julio	2023-07-16T00:00:00	2024-11-08T00:00:00	6	Velocidad del viento	3.2
105646	7	Sololá	704	Santa Lucía Utatlán 	7	Santa Rita 	7	Julio	2023-07-16T00:00:00	2024-11-08T00:00:00	7	Dirección del viento	3.22
105647	7	Sololá	704	Santa Lucía Utatlán 	7	Santa Rita 	7	Julio	2023-07-16T00:00:00	2024-11-08T00:00:00	1	Precipitación	0
105648	7	Sololá	704	Santa Lucía Utatlán 	7	Santa Rita 	7	Julio	2023-07-16T00:00:00	2024-11-08T00:00:00	8	Radiación solar	0
105649	7	Sololá	704	Santa Lucía Utatlán 	7	Santa Rita 	7	Julio	2023-07-16T00:00:00	2024-11-08T01:00:00	2	Temperatura media	18.7
105650	7	Sololá	704	Santa Lucía Utatlán 	7	Santa Rita 	7	Julio	2023-07-16T00:00:00	2024-11-08T01:00:00	4	Temperatura máxima	18.7
105651	7	Sololá	704	Santa Lucía Utatlán 	7	Santa Rita 	7	Julio	2023-07-16T00:00:00	2024-11-08T01:00:00	3	Temperatura mínima	17.4
105652	7	Sololá	704	Santa Lucía Utatlán 	7	Santa Rita 	7	Julio	2023-07-16T00:00:00	2024-11-08T01:00:00	5	Humedad	84
105653	7	Sololá	704	Santa Lucía Utatlán 	7	Santa Rita 	7	Julio	2023-07-16T00:00:00	2024-11-08T01:00:00	6	Velocidad del viento	3.2
105654	7	Sololá	704	Santa Lucía Utatlán 	7	Santa Rita 	7	Julio	2023-07-16T00:00:00	2024-11-08T01:00:00	7	Dirección del viento	3.22
105655	7	Sololá	704	Santa Lucía Utatlán 	7	Santa Rita 	7	Julio	2023-07-16T00:00:00	2024-11-08T01:00:00	1	Precipitación	0
105656	7	Sololá	704	Santa Lucía Utatlán 	7	Santa Rita 	7	Julio	2023-07-16T00:00:00	2024-11-08T01:00:00	8	Radiación solar	0
105657	7	Sololá	704	Santa Lucía Utatlán 	7	Santa Rita 	7	Julio	2023-07-16T00:00:00	2024-11-08T02:00:00	2	Temperatura media	18.5
105658	7	Sololá	704	Santa Lucía Utatlán 	7	Santa Rita 	7	Julio	2023-07-16T00:00:00	2024-11-08T02:00:00	4	Temperatura máxima	18.7
105659	7	Sololá	704	Santa Lucía Utatlán 	7	Santa Rita 	7	Julio	2023-07-16T00:00:00	2024-11-08T02:00:00	3	Temperatura mínima	18.3
105660	7	Sololá	704	Santa Lucía Utatlán 	7	Santa Rita 	7	Julio	2023-07-16T00:00:00	2024-11-08T02:00:00	5	Humedad	89
105661	7	Sololá	704	Santa Lucía Utatlán 	7	Santa Rita 	7	Julio	2023-07-16T00:00:00	2024-11-08T02:00:00	6	Velocidad del viento	1.6
105662	7	Sololá	704	Santa Lucía Utatlán 	7	Santa Rita 	7	Julio	2023-07-16T00:00:00	2024-11-08T02:00:00	7	Dirección del viento	1.61
105663	7	Sololá	704	Santa Lucía Utatlán 	7	Santa Rita 	7	Julio	2023-07-16T00:00:00	2024-11-08T02:00:00	1	Precipitación	0
105664	7	Sololá	704	Santa Lucía Utatlán 	7	Santa Rita 	7	Julio	2023-07-16T00:00:00	2024-11-08T02:00:00	8	Radiación solar	0
105665	7	Sololá	704	Santa Lucía Utatlán 	7	Santa Rita 	7	Julio	2023-07-16T00:00:00	2024-11-08T03:00:00	2	Temperatura media	17.9
105666	7	Sololá	704	Santa Lucía Utatlán 	7	Santa Rita 	7	Julio	2023-07-16T00:00:00	2024-11-08T03:00:00	4	Temperatura máxima	18.6
105667	7	Sololá	704	Santa Lucía Utatlán 	7	Santa Rita 	7	Julio	2023-07-16T00:00:00	2024-11-08T03:00:00	3	Temperatura mínima	17.9
105668	7	Sololá	704	Santa Lucía Utatlán 	7	Santa Rita 	7	Julio	2023-07-16T00:00:00	2024-11-08T03:00:00	5	Humedad	93
105669	7	Sololá	704	Santa Lucía Utatlán 	7	Santa Rita 	7	Julio	2023-07-16T00:00:00	2024-11-08T03:00:00	6	Velocidad del viento	1.6
105670	7	Sololá	704	Santa Lucía Utatlán 	7	Santa Rita 	7	Julio	2023-07-16T00:00:00	2024-11-08T03:00:00	7	Dirección del viento	1.61
105671	7	Sololá	704	Santa Lucía Utatlán 	7	Santa Rita 	7	Julio	2023-07-16T00:00:00	2024-11-08T03:00:00	1	Precipitación	0.2
105672	7	Sololá	704	Santa Lucía Utatlán 	7	Santa Rita 	7	Julio	2023-07-16T00:00:00	2024-11-08T03:00:00	8	Radiación solar	0
105673	7	Sololá	704	Santa Lucía Utatlán 	7	Santa Rita 	7	Julio	2023-07-16T00:00:00	2024-11-08T04:00:00	2	Temperatura media	19.9
105674	7	Sololá	704	Santa Lucía Utatlán 	7	Santa Rita 	7	Julio	2023-07-16T00:00:00	2024-11-08T04:00:00	4	Temperatura máxima	19.9
105675	7	Sololá	704	Santa Lucía Utatlán 	7	Santa Rita 	7	Julio	2023-07-16T00:00:00	2024-11-08T04:00:00	3	Temperatura mínima	17.8
105676	7	Sololá	704	Santa Lucía Utatlán 	7	Santa Rita 	7	Julio	2023-07-16T00:00:00	2024-11-08T04:00:00	5	Humedad	79
105677	7	Sololá	704	Santa Lucía Utatlán 	7	Santa Rita 	7	Julio	2023-07-16T00:00:00	2024-11-08T04:00:00	6	Velocidad del viento	4.8
105678	7	Sololá	704	Santa Lucía Utatlán 	7	Santa Rita 	7	Julio	2023-07-16T00:00:00	2024-11-08T04:00:00	7	Dirección del viento	4.83
105679	7	Sololá	704	Santa Lucía Utatlán 	7	Santa Rita 	7	Julio	2023-07-16T00:00:00	2024-11-08T04:00:00	1	Precipitación	0
105680	7	Sololá	704	Santa Lucía Utatlán 	7	Santa Rita 	7	Julio	2023-07-16T00:00:00	2024-11-08T04:00:00	8	Radiación solar	0
105681	7	Sololá	704	Santa Lucía Utatlán 	7	Santa Rita 	7	Julio	2023-07-16T00:00:00	2024-11-08T05:00:00	2	Temperatura media	19.9
105682	7	Sololá	704	Santa Lucía Utatlán 	7	Santa Rita 	7	Julio	2023-07-16T00:00:00	2024-11-08T05:00:00	4	Temperatura máxima	20
105683	7	Sololá	704	Santa Lucía Utatlán 	7	Santa Rita 	7	Julio	2023-07-16T00:00:00	2024-11-08T05:00:00	3	Temperatura mínima	19.2
105684	7	Sololá	704	Santa Lucía Utatlán 	7	Santa Rita 	7	Julio	2023-07-16T00:00:00	2024-11-08T05:00:00	5	Humedad	79
105685	7	Sololá	704	Santa Lucía Utatlán 	7	Santa Rita 	7	Julio	2023-07-16T00:00:00	2024-11-08T05:00:00	6	Velocidad del viento	6.4
105686	7	Sololá	704	Santa Lucía Utatlán 	7	Santa Rita 	7	Julio	2023-07-16T00:00:00	2024-11-08T05:00:00	7	Dirección del viento	6.44
105687	7	Sololá	704	Santa Lucía Utatlán 	7	Santa Rita 	7	Julio	2023-07-16T00:00:00	2024-11-08T05:00:00	1	Precipitación	0
105688	7	Sololá	704	Santa Lucía Utatlán 	7	Santa Rita 	7	Julio	2023-07-16T00:00:00	2024-11-08T05:00:00	8	Radiación solar	0
105689	7	Sololá	704	Santa Lucía Utatlán 	7	Santa Rita 	7	Julio	2023-07-16T00:00:00	2024-11-08T06:00:00	2	Temperatura media	20
105690	7	Sololá	704	Santa Lucía Utatlán 	7	Santa Rita 	7	Julio	2023-07-16T00:00:00	2024-11-08T06:00:00	4	Temperatura máxima	20.1
105691	7	Sololá	704	Santa Lucía Utatlán 	7	Santa Rita 	7	Julio	2023-07-16T00:00:00	2024-11-08T06:00:00	3	Temperatura mínima	19.6
105692	7	Sololá	704	Santa Lucía Utatlán 	7	Santa Rita 	7	Julio	2023-07-16T00:00:00	2024-11-08T06:00:00	5	Humedad	78
105693	7	Sololá	704	Santa Lucía Utatlán 	7	Santa Rita 	7	Julio	2023-07-16T00:00:00	2024-11-08T06:00:00	6	Velocidad del viento	6.4
105694	7	Sololá	704	Santa Lucía Utatlán 	7	Santa Rita 	7	Julio	2023-07-16T00:00:00	2024-11-08T06:00:00	7	Dirección del viento	6.44
105695	7	Sololá	704	Santa Lucía Utatlán 	7	Santa Rita 	7	Julio	2023-07-16T00:00:00	2024-11-08T06:00:00	1	Precipitación	0
105696	7	Sololá	704	Santa Lucía Utatlán 	7	Santa Rita 	7	Julio	2023-07-16T00:00:00	2024-11-08T06:00:00	8	Radiación solar	3
105697	7	Sololá	704	Santa Lucía Utatlán 	7	Santa Rita 	7	Julio	2023-07-16T00:00:00	2024-11-08T07:00:00	2	Temperatura media	20.7
105698	7	Sololá	704	Santa Lucía Utatlán 	7	Santa Rita 	7	Julio	2023-07-16T00:00:00	2024-11-08T07:00:00	4	Temperatura máxima	20.7
105699	7	Sololá	704	Santa Lucía Utatlán 	7	Santa Rita 	7	Julio	2023-07-16T00:00:00	2024-11-08T07:00:00	3	Temperatura mínima	20
105700	7	Sololá	704	Santa Lucía Utatlán 	7	Santa Rita 	7	Julio	2023-07-16T00:00:00	2024-11-08T07:00:00	5	Humedad	75
105701	7	Sololá	704	Santa Lucía Utatlán 	7	Santa Rita 	7	Julio	2023-07-16T00:00:00	2024-11-08T07:00:00	6	Velocidad del viento	8
105702	7	Sololá	704	Santa Lucía Utatlán 	7	Santa Rita 	7	Julio	2023-07-16T00:00:00	2024-11-08T07:00:00	7	Dirección del viento	8.05
105703	7	Sololá	704	Santa Lucía Utatlán 	7	Santa Rita 	7	Julio	2023-07-16T00:00:00	2024-11-08T07:00:00	1	Precipitación	0
105704	7	Sololá	704	Santa Lucía Utatlán 	7	Santa Rita 	7	Julio	2023-07-16T00:00:00	2024-11-08T07:00:00	8	Radiación solar	83
105705	7	Sololá	704	Santa Lucía Utatlán 	7	Santa Rita 	7	Julio	2023-07-16T00:00:00	2024-11-08T08:00:00	2	Temperatura media	21.5
105706	7	Sololá	704	Santa Lucía Utatlán 	7	Santa Rita 	7	Julio	2023-07-16T00:00:00	2024-11-08T08:00:00	4	Temperatura máxima	21.7
105707	7	Sololá	704	Santa Lucía Utatlán 	7	Santa Rita 	7	Julio	2023-07-16T00:00:00	2024-11-08T08:00:00	3	Temperatura mínima	20.7
105708	7	Sololá	704	Santa Lucía Utatlán 	7	Santa Rita 	7	Julio	2023-07-16T00:00:00	2024-11-08T08:00:00	5	Humedad	73
105709	7	Sololá	704	Santa Lucía Utatlán 	7	Santa Rita 	7	Julio	2023-07-16T00:00:00	2024-11-08T08:00:00	6	Velocidad del viento	6.4
105710	7	Sololá	704	Santa Lucía Utatlán 	7	Santa Rita 	7	Julio	2023-07-16T00:00:00	2024-11-08T08:00:00	7	Dirección del viento	6.44
105711	7	Sololá	704	Santa Lucía Utatlán 	7	Santa Rita 	7	Julio	2023-07-16T00:00:00	2024-11-08T08:00:00	1	Precipitación	0
105712	7	Sololá	704	Santa Lucía Utatlán 	7	Santa Rita 	7	Julio	2023-07-16T00:00:00	2024-11-08T08:00:00	8	Radiación solar	233
105713	7	Sololá	704	Santa Lucía Utatlán 	7	Santa Rita 	7	Julio	2023-07-16T00:00:00	2024-11-08T09:00:00	2	Temperatura media	21.1
105714	7	Sololá	704	Santa Lucía Utatlán 	7	Santa Rita 	7	Julio	2023-07-16T00:00:00	2024-11-08T09:00:00	4	Temperatura máxima	21.7
105715	7	Sololá	704	Santa Lucía Utatlán 	7	Santa Rita 	7	Julio	2023-07-16T00:00:00	2024-11-08T09:00:00	3	Temperatura mínima	21.1
105716	7	Sololá	704	Santa Lucía Utatlán 	7	Santa Rita 	7	Julio	2023-07-16T00:00:00	2024-11-08T09:00:00	5	Humedad	79
105717	7	Sololá	704	Santa Lucía Utatlán 	7	Santa Rita 	7	Julio	2023-07-16T00:00:00	2024-11-08T09:00:00	6	Velocidad del viento	8
105718	7	Sololá	704	Santa Lucía Utatlán 	7	Santa Rita 	7	Julio	2023-07-16T00:00:00	2024-11-08T09:00:00	7	Dirección del viento	8.05
105719	7	Sololá	704	Santa Lucía Utatlán 	7	Santa Rita 	7	Julio	2023-07-16T00:00:00	2024-11-08T09:00:00	1	Precipitación	0
105720	7	Sololá	704	Santa Lucía Utatlán 	7	Santa Rita 	7	Julio	2023-07-16T00:00:00	2024-11-08T09:00:00	8	Radiación solar	294
105721	7	Sololá	704	Santa Lucía Utatlán 	7	Santa Rita 	7	Julio	2023-07-16T00:00:00	2024-11-08T10:00:00	2	Temperatura media	22.8
105722	7	Sololá	704	Santa Lucía Utatlán 	7	Santa Rita 	7	Julio	2023-07-16T00:00:00	2024-11-08T10:00:00	4	Temperatura máxima	22.8
105723	7	Sololá	704	Santa Lucía Utatlán 	7	Santa Rita 	7	Julio	2023-07-16T00:00:00	2024-11-08T10:00:00	3	Temperatura mínima	21.1
105724	7	Sololá	704	Santa Lucía Utatlán 	7	Santa Rita 	7	Julio	2023-07-16T00:00:00	2024-11-08T10:00:00	5	Humedad	70
105725	7	Sololá	704	Santa Lucía Utatlán 	7	Santa Rita 	7	Julio	2023-07-16T00:00:00	2024-11-08T10:00:00	6	Velocidad del viento	8
105726	7	Sololá	704	Santa Lucía Utatlán 	7	Santa Rita 	7	Julio	2023-07-16T00:00:00	2024-11-08T10:00:00	7	Dirección del viento	8.05
105727	7	Sololá	704	Santa Lucía Utatlán 	7	Santa Rita 	7	Julio	2023-07-16T00:00:00	2024-11-08T10:00:00	1	Precipitación	0
105728	7	Sololá	704	Santa Lucía Utatlán 	7	Santa Rita 	7	Julio	2023-07-16T00:00:00	2024-11-08T10:00:00	8	Radiación solar	342
105729	7	Sololá	704	Santa Lucía Utatlán 	7	Santa Rita 	7	Julio	2023-07-16T00:00:00	2024-11-08T11:00:00	2	Temperatura media	22.6
105730	7	Sololá	704	Santa Lucía Utatlán 	7	Santa Rita 	7	Julio	2023-07-16T00:00:00	2024-11-08T11:00:00	4	Temperatura máxima	23.1
105731	7	Sololá	704	Santa Lucía Utatlán 	7	Santa Rita 	7	Julio	2023-07-16T00:00:00	2024-11-08T11:00:00	3	Temperatura mínima	22.4
105732	7	Sololá	704	Santa Lucía Utatlán 	7	Santa Rita 	7	Julio	2023-07-16T00:00:00	2024-11-08T11:00:00	5	Humedad	71
105733	7	Sololá	704	Santa Lucía Utatlán 	7	Santa Rita 	7	Julio	2023-07-16T00:00:00	2024-11-08T11:00:00	6	Velocidad del viento	12.9
105734	7	Sololá	704	Santa Lucía Utatlán 	7	Santa Rita 	7	Julio	2023-07-16T00:00:00	2024-11-08T11:00:00	7	Dirección del viento	12.87
105735	7	Sololá	704	Santa Lucía Utatlán 	7	Santa Rita 	7	Julio	2023-07-16T00:00:00	2024-11-08T11:00:00	1	Precipitación	0
105736	7	Sololá	704	Santa Lucía Utatlán 	7	Santa Rita 	7	Julio	2023-07-16T00:00:00	2024-11-08T11:00:00	8	Radiación solar	363
105737	7	Sololá	704	Santa Lucía Utatlán 	7	Santa Rita 	7	Julio	2023-07-16T00:00:00	2024-11-08T12:00:00	2	Temperatura media	22.8
105738	7	Sololá	704	Santa Lucía Utatlán 	7	Santa Rita 	7	Julio	2023-07-16T00:00:00	2024-11-08T12:00:00	4	Temperatura máxima	22.9
105739	7	Sololá	704	Santa Lucía Utatlán 	7	Santa Rita 	7	Julio	2023-07-16T00:00:00	2024-11-08T12:00:00	3	Temperatura mínima	22.4
105740	7	Sololá	704	Santa Lucía Utatlán 	7	Santa Rita 	7	Julio	2023-07-16T00:00:00	2024-11-08T12:00:00	5	Humedad	72
105741	7	Sololá	704	Santa Lucía Utatlán 	7	Santa Rita 	7	Julio	2023-07-16T00:00:00	2024-11-08T12:00:00	6	Velocidad del viento	9.7
105742	7	Sololá	704	Santa Lucía Utatlán 	7	Santa Rita 	7	Julio	2023-07-16T00:00:00	2024-11-08T12:00:00	7	Dirección del viento	9.66
105743	7	Sololá	704	Santa Lucía Utatlán 	7	Santa Rita 	7	Julio	2023-07-16T00:00:00	2024-11-08T12:00:00	1	Precipitación	0
105744	7	Sololá	704	Santa Lucía Utatlán 	7	Santa Rita 	7	Julio	2023-07-16T00:00:00	2024-11-08T12:00:00	8	Radiación solar	373
105745	7	Sololá	704	Santa Lucía Utatlán 	7	Santa Rita 	7	Julio	2023-07-16T00:00:00	2024-11-08T13:00:00	2	Temperatura media	23.1
105746	7	Sololá	704	Santa Lucía Utatlán 	7	Santa Rita 	7	Julio	2023-07-16T00:00:00	2024-11-08T13:00:00	4	Temperatura máxima	23.4
105747	7	Sololá	704	Santa Lucía Utatlán 	7	Santa Rita 	7	Julio	2023-07-16T00:00:00	2024-11-08T13:00:00	3	Temperatura mínima	22.7
105748	7	Sololá	704	Santa Lucía Utatlán 	7	Santa Rita 	7	Julio	2023-07-16T00:00:00	2024-11-08T13:00:00	5	Humedad	72
105749	7	Sololá	704	Santa Lucía Utatlán 	7	Santa Rita 	7	Julio	2023-07-16T00:00:00	2024-11-08T13:00:00	6	Velocidad del viento	6.4
105750	7	Sololá	704	Santa Lucía Utatlán 	7	Santa Rita 	7	Julio	2023-07-16T00:00:00	2024-11-08T13:00:00	7	Dirección del viento	6.44
105751	7	Sololá	704	Santa Lucía Utatlán 	7	Santa Rita 	7	Julio	2023-07-16T00:00:00	2024-11-08T13:00:00	1	Precipitación	0
105752	7	Sololá	704	Santa Lucía Utatlán 	7	Santa Rita 	7	Julio	2023-07-16T00:00:00	2024-11-08T13:00:00	8	Radiación solar	435
105753	7	Sololá	704	Santa Lucía Utatlán 	7	Santa Rita 	7	Julio	2023-07-16T00:00:00	2024-11-08T14:00:00	2	Temperatura media	22.4
105754	7	Sololá	704	Santa Lucía Utatlán 	7	Santa Rita 	7	Julio	2023-07-16T00:00:00	2024-11-08T14:00:00	4	Temperatura máxima	23.6
105755	7	Sololá	704	Santa Lucía Utatlán 	7	Santa Rita 	7	Julio	2023-07-16T00:00:00	2024-11-08T14:00:00	3	Temperatura mínima	22.4
105756	7	Sololá	704	Santa Lucía Utatlán 	7	Santa Rita 	7	Julio	2023-07-16T00:00:00	2024-11-08T14:00:00	5	Humedad	78
105757	7	Sololá	704	Santa Lucía Utatlán 	7	Santa Rita 	7	Julio	2023-07-16T00:00:00	2024-11-08T14:00:00	6	Velocidad del viento	4.8
105758	7	Sololá	704	Santa Lucía Utatlán 	7	Santa Rita 	7	Julio	2023-07-16T00:00:00	2024-11-08T14:00:00	7	Dirección del viento	4.83
105759	7	Sololá	704	Santa Lucía Utatlán 	7	Santa Rita 	7	Julio	2023-07-16T00:00:00	2024-11-08T14:00:00	1	Precipitación	0
105760	7	Sololá	704	Santa Lucía Utatlán 	7	Santa Rita 	7	Julio	2023-07-16T00:00:00	2024-11-08T14:00:00	8	Radiación solar	222
105761	7	Sololá	704	Santa Lucía Utatlán 	7	Santa Rita 	7	Julio	2023-07-16T00:00:00	2024-11-08T15:00:00	2	Temperatura media	23.7
105762	7	Sololá	704	Santa Lucía Utatlán 	7	Santa Rita 	7	Julio	2023-07-16T00:00:00	2024-11-08T15:00:00	4	Temperatura máxima	23.7
105763	7	Sololá	704	Santa Lucía Utatlán 	7	Santa Rita 	7	Julio	2023-07-16T00:00:00	2024-11-08T15:00:00	3	Temperatura mínima	22.3
105764	7	Sololá	704	Santa Lucía Utatlán 	7	Santa Rita 	7	Julio	2023-07-16T00:00:00	2024-11-08T15:00:00	5	Humedad	72
105765	7	Sololá	704	Santa Lucía Utatlán 	7	Santa Rita 	7	Julio	2023-07-16T00:00:00	2024-11-08T15:00:00	6	Velocidad del viento	4.8
105766	7	Sololá	704	Santa Lucía Utatlán 	7	Santa Rita 	7	Julio	2023-07-16T00:00:00	2024-11-08T15:00:00	7	Dirección del viento	4.83
105767	7	Sololá	704	Santa Lucía Utatlán 	7	Santa Rita 	7	Julio	2023-07-16T00:00:00	2024-11-08T15:00:00	1	Precipitación	0.2
105768	7	Sololá	704	Santa Lucía Utatlán 	7	Santa Rita 	7	Julio	2023-07-16T00:00:00	2024-11-08T15:00:00	8	Radiación solar	293
105769	7	Sololá	704	Santa Lucía Utatlán 	7	Santa Rita 	7	Julio	2023-07-16T00:00:00	2024-11-08T16:00:00	2	Temperatura media	21.4
105770	7	Sololá	704	Santa Lucía Utatlán 	7	Santa Rita 	7	Julio	2023-07-16T00:00:00	2024-11-08T16:00:00	4	Temperatura máxima	24.1
105771	7	Sololá	704	Santa Lucía Utatlán 	7	Santa Rita 	7	Julio	2023-07-16T00:00:00	2024-11-08T16:00:00	3	Temperatura mínima	21.4
105772	7	Sololá	704	Santa Lucía Utatlán 	7	Santa Rita 	7	Julio	2023-07-16T00:00:00	2024-11-08T16:00:00	5	Humedad	81
105773	7	Sololá	704	Santa Lucía Utatlán 	7	Santa Rita 	7	Julio	2023-07-16T00:00:00	2024-11-08T16:00:00	6	Velocidad del viento	9.7
105774	7	Sololá	704	Santa Lucía Utatlán 	7	Santa Rita 	7	Julio	2023-07-16T00:00:00	2024-11-08T16:00:00	7	Dirección del viento	9.66
105775	7	Sololá	704	Santa Lucía Utatlán 	7	Santa Rita 	7	Julio	2023-07-16T00:00:00	2024-11-08T16:00:00	1	Precipitación	0.4
105776	7	Sololá	704	Santa Lucía Utatlán 	7	Santa Rita 	7	Julio	2023-07-16T00:00:00	2024-11-08T16:00:00	8	Radiación solar	161
105777	7	Sololá	704	Santa Lucía Utatlán 	7	Santa Rita 	7	Julio	2023-07-16T00:00:00	2024-11-08T17:00:00	2	Temperatura media	20.2
105778	7	Sololá	704	Santa Lucía Utatlán 	7	Santa Rita 	7	Julio	2023-07-16T00:00:00	2024-11-08T17:00:00	4	Temperatura máxima	21.4
105779	7	Sololá	704	Santa Lucía Utatlán 	7	Santa Rita 	7	Julio	2023-07-16T00:00:00	2024-11-08T17:00:00	3	Temperatura mínima	20.2
105780	7	Sololá	704	Santa Lucía Utatlán 	7	Santa Rita 	7	Julio	2023-07-16T00:00:00	2024-11-08T17:00:00	5	Humedad	90
105781	7	Sololá	704	Santa Lucía Utatlán 	7	Santa Rita 	7	Julio	2023-07-16T00:00:00	2024-11-08T17:00:00	6	Velocidad del viento	3.2
105782	7	Sololá	704	Santa Lucía Utatlán 	7	Santa Rita 	7	Julio	2023-07-16T00:00:00	2024-11-08T17:00:00	7	Dirección del viento	3.22
105783	7	Sololá	704	Santa Lucía Utatlán 	7	Santa Rita 	7	Julio	2023-07-16T00:00:00	2024-11-08T17:00:00	1	Precipitación	0.2
105784	7	Sololá	704	Santa Lucía Utatlán 	7	Santa Rita 	7	Julio	2023-07-16T00:00:00	2024-11-08T17:00:00	8	Radiación solar	18
105785	7	Sololá	704	Santa Lucía Utatlán 	7	Santa Rita 	7	Julio	2023-07-16T00:00:00	2024-11-08T18:00:00	2	Temperatura media	19.8
105786	7	Sololá	704	Santa Lucía Utatlán 	7	Santa Rita 	7	Julio	2023-07-16T00:00:00	2024-11-08T18:00:00	4	Temperatura máxima	20.2
105787	7	Sololá	704	Santa Lucía Utatlán 	7	Santa Rita 	7	Julio	2023-07-16T00:00:00	2024-11-08T18:00:00	3	Temperatura mínima	19.6
105788	7	Sololá	704	Santa Lucía Utatlán 	7	Santa Rita 	7	Julio	2023-07-16T00:00:00	2024-11-08T18:00:00	5	Humedad	90
105789	7	Sololá	704	Santa Lucía Utatlán 	7	Santa Rita 	7	Julio	2023-07-16T00:00:00	2024-11-08T18:00:00	6	Velocidad del viento	3.2
105790	7	Sololá	704	Santa Lucía Utatlán 	7	Santa Rita 	7	Julio	2023-07-16T00:00:00	2024-11-08T18:00:00	7	Dirección del viento	3.22
105791	7	Sololá	704	Santa Lucía Utatlán 	7	Santa Rita 	7	Julio	2023-07-16T00:00:00	2024-11-08T18:00:00	1	Precipitación	1
105792	7	Sololá	704	Santa Lucía Utatlán 	7	Santa Rita 	7	Julio	2023-07-16T00:00:00	2024-11-08T18:00:00	8	Radiación solar	3
105793	7	Sololá	704	Santa Lucía Utatlán 	7	Santa Rita 	7	Julio	2023-07-16T00:00:00	2024-11-08T19:00:00	2	Temperatura media	19.1
105794	7	Sololá	704	Santa Lucía Utatlán 	7	Santa Rita 	7	Julio	2023-07-16T00:00:00	2024-11-08T19:00:00	4	Temperatura máxima	19.8
105795	7	Sololá	704	Santa Lucía Utatlán 	7	Santa Rita 	7	Julio	2023-07-16T00:00:00	2024-11-08T19:00:00	3	Temperatura mínima	18.7
105796	7	Sololá	704	Santa Lucía Utatlán 	7	Santa Rita 	7	Julio	2023-07-16T00:00:00	2024-11-08T19:00:00	5	Humedad	91
105797	7	Sololá	704	Santa Lucía Utatlán 	7	Santa Rita 	7	Julio	2023-07-16T00:00:00	2024-11-08T19:00:00	6	Velocidad del viento	3.2
105798	7	Sololá	704	Santa Lucía Utatlán 	7	Santa Rita 	7	Julio	2023-07-16T00:00:00	2024-11-08T19:00:00	7	Dirección del viento	3.22
105799	7	Sololá	704	Santa Lucía Utatlán 	7	Santa Rita 	7	Julio	2023-07-16T00:00:00	2024-11-08T19:00:00	1	Precipitación	2
105800	7	Sololá	704	Santa Lucía Utatlán 	7	Santa Rita 	7	Julio	2023-07-16T00:00:00	2024-11-08T19:00:00	8	Radiación solar	0
105801	7	Sololá	704	Santa Lucía Utatlán 	7	Santa Rita 	7	Julio	2023-07-16T00:00:00	2024-11-08T20:00:00	2	Temperatura media	19.7
105802	7	Sololá	704	Santa Lucía Utatlán 	7	Santa Rita 	7	Julio	2023-07-16T00:00:00	2024-11-08T20:00:00	4	Temperatura máxima	19.8
105803	7	Sololá	704	Santa Lucía Utatlán 	7	Santa Rita 	7	Julio	2023-07-16T00:00:00	2024-11-08T20:00:00	3	Temperatura mínima	18.8
105804	7	Sololá	704	Santa Lucía Utatlán 	7	Santa Rita 	7	Julio	2023-07-16T00:00:00	2024-11-08T20:00:00	5	Humedad	88
105805	7	Sololá	704	Santa Lucía Utatlán 	7	Santa Rita 	7	Julio	2023-07-16T00:00:00	2024-11-08T20:00:00	6	Velocidad del viento	3.2
105806	7	Sololá	704	Santa Lucía Utatlán 	7	Santa Rita 	7	Julio	2023-07-16T00:00:00	2024-11-08T20:00:00	7	Dirección del viento	3.22
105807	7	Sololá	704	Santa Lucía Utatlán 	7	Santa Rita 	7	Julio	2023-07-16T00:00:00	2024-11-08T20:00:00	1	Precipitación	2.4
105808	7	Sololá	704	Santa Lucía Utatlán 	7	Santa Rita 	7	Julio	2023-07-16T00:00:00	2024-11-08T20:00:00	8	Radiación solar	0
105809	7	Sololá	704	Santa Lucía Utatlán 	7	Santa Rita 	7	Julio	2023-07-16T00:00:00	2024-11-08T21:00:00	2	Temperatura media	19.1
105810	7	Sololá	704	Santa Lucía Utatlán 	7	Santa Rita 	7	Julio	2023-07-16T00:00:00	2024-11-08T21:00:00	4	Temperatura máxima	19.7
105811	7	Sololá	704	Santa Lucía Utatlán 	7	Santa Rita 	7	Julio	2023-07-16T00:00:00	2024-11-08T21:00:00	3	Temperatura mínima	19.1
105812	7	Sololá	704	Santa Lucía Utatlán 	7	Santa Rita 	7	Julio	2023-07-16T00:00:00	2024-11-08T21:00:00	5	Humedad	89
105813	7	Sololá	704	Santa Lucía Utatlán 	7	Santa Rita 	7	Julio	2023-07-16T00:00:00	2024-11-08T21:00:00	6	Velocidad del viento	4.8
105814	7	Sololá	704	Santa Lucía Utatlán 	7	Santa Rita 	7	Julio	2023-07-16T00:00:00	2024-11-08T21:00:00	7	Dirección del viento	4.83
105815	7	Sololá	704	Santa Lucía Utatlán 	7	Santa Rita 	7	Julio	2023-07-16T00:00:00	2024-11-08T21:00:00	1	Precipitación	0.2
105816	7	Sololá	704	Santa Lucía Utatlán 	7	Santa Rita 	7	Julio	2023-07-16T00:00:00	2024-11-08T21:00:00	8	Radiación solar	0
105817	7	Sololá	704	Santa Lucía Utatlán 	7	Santa Rita 	7	Julio	2023-07-16T00:00:00	2024-11-08T22:00:00	2	Temperatura media	18.2
105818	7	Sololá	704	Santa Lucía Utatlán 	7	Santa Rita 	7	Julio	2023-07-16T00:00:00	2024-11-08T22:00:00	4	Temperatura máxima	19.1
105819	7	Sololá	704	Santa Lucía Utatlán 	7	Santa Rita 	7	Julio	2023-07-16T00:00:00	2024-11-08T22:00:00	3	Temperatura mínima	18.2
105820	7	Sololá	704	Santa Lucía Utatlán 	7	Santa Rita 	7	Julio	2023-07-16T00:00:00	2024-11-08T22:00:00	5	Humedad	91
105821	7	Sololá	704	Santa Lucía Utatlán 	7	Santa Rita 	7	Julio	2023-07-16T00:00:00	2024-11-08T22:00:00	6	Velocidad del viento	3.2
105822	7	Sololá	704	Santa Lucía Utatlán 	7	Santa Rita 	7	Julio	2023-07-16T00:00:00	2024-11-08T22:00:00	7	Dirección del viento	3.22
105823	7	Sololá	704	Santa Lucía Utatlán 	7	Santa Rita 	7	Julio	2023-07-16T00:00:00	2024-11-08T22:00:00	1	Precipitación	0
105824	7	Sololá	704	Santa Lucía Utatlán 	7	Santa Rita 	7	Julio	2023-07-16T00:00:00	2024-11-08T22:00:00	8	Radiación solar	0
105825	7	Sololá	704	Santa Lucía Utatlán 	7	Santa Rita 	7	Julio	2023-07-16T00:00:00	2024-11-08T23:00:00	2	Temperatura media	17.6
105826	7	Sololá	704	Santa Lucía Utatlán 	7	Santa Rita 	7	Julio	2023-07-16T00:00:00	2024-11-08T23:00:00	4	Temperatura máxima	18.5
105827	7	Sololá	704	Santa Lucía Utatlán 	7	Santa Rita 	7	Julio	2023-07-16T00:00:00	2024-11-08T23:00:00	3	Temperatura mínima	17.6
105828	7	Sololá	704	Santa Lucía Utatlán 	7	Santa Rita 	7	Julio	2023-07-16T00:00:00	2024-11-08T23:00:00	5	Humedad	91
105829	7	Sololá	704	Santa Lucía Utatlán 	7	Santa Rita 	7	Julio	2023-07-16T00:00:00	2024-11-08T23:00:00	6	Velocidad del viento	3.2
105830	7	Sololá	704	Santa Lucía Utatlán 	7	Santa Rita 	7	Julio	2023-07-16T00:00:00	2024-11-08T23:00:00	7	Dirección del viento	3.22
105831	7	Sololá	704	Santa Lucía Utatlán 	7	Santa Rita 	7	Julio	2023-07-16T00:00:00	2024-11-08T23:00:00	1	Precipitación	0
105832	7	Sololá	704	Santa Lucía Utatlán 	7	Santa Rita 	7	Julio	2023-07-16T00:00:00	2024-11-08T23:00:00	8	Radiación solar	0
105833	7	Sololá	704	Santa Lucía Utatlán 	7	Santa Rita 	7	Julio	2023-07-17T00:00:00	2024-11-08T00:00:00	2	Temperatura media	17.4
105834	7	Sololá	704	Santa Lucía Utatlán 	7	Santa Rita 	7	Julio	2023-07-17T00:00:00	2024-11-08T00:00:00	4	Temperatura máxima	17.6
105835	7	Sololá	704	Santa Lucía Utatlán 	7	Santa Rita 	7	Julio	2023-07-17T00:00:00	2024-11-08T00:00:00	3	Temperatura mínima	17.4
105836	7	Sololá	704	Santa Lucía Utatlán 	7	Santa Rita 	7	Julio	2023-07-17T00:00:00	2024-11-08T00:00:00	5	Humedad	89
105837	7	Sololá	704	Santa Lucía Utatlán 	7	Santa Rita 	7	Julio	2023-07-17T00:00:00	2024-11-08T00:00:00	6	Velocidad del viento	3.2
105838	7	Sololá	704	Santa Lucía Utatlán 	7	Santa Rita 	7	Julio	2023-07-17T00:00:00	2024-11-08T00:00:00	7	Dirección del viento	3.22
105839	7	Sololá	704	Santa Lucía Utatlán 	7	Santa Rita 	7	Julio	2023-07-17T00:00:00	2024-11-08T00:00:00	1	Precipitación	0
105840	7	Sololá	704	Santa Lucía Utatlán 	7	Santa Rita 	7	Julio	2023-07-17T00:00:00	2024-11-08T00:00:00	8	Radiación solar	0
105841	7	Sololá	704	Santa Lucía Utatlán 	7	Santa Rita 	7	Julio	2023-07-17T00:00:00	2024-11-08T01:00:00	2	Temperatura media	18.2
105842	7	Sololá	704	Santa Lucía Utatlán 	7	Santa Rita 	7	Julio	2023-07-17T00:00:00	2024-11-08T01:00:00	4	Temperatura máxima	18.3
105843	7	Sololá	704	Santa Lucía Utatlán 	7	Santa Rita 	7	Julio	2023-07-17T00:00:00	2024-11-08T01:00:00	3	Temperatura mínima	17
105844	7	Sololá	704	Santa Lucía Utatlán 	7	Santa Rita 	7	Julio	2023-07-17T00:00:00	2024-11-08T01:00:00	5	Humedad	84
105845	7	Sololá	704	Santa Lucía Utatlán 	7	Santa Rita 	7	Julio	2023-07-17T00:00:00	2024-11-08T01:00:00	6	Velocidad del viento	4.8
105846	7	Sololá	704	Santa Lucía Utatlán 	7	Santa Rita 	7	Julio	2023-07-17T00:00:00	2024-11-08T01:00:00	7	Dirección del viento	4.83
105847	7	Sololá	704	Santa Lucía Utatlán 	7	Santa Rita 	7	Julio	2023-07-17T00:00:00	2024-11-08T01:00:00	1	Precipitación	0
105848	7	Sololá	704	Santa Lucía Utatlán 	7	Santa Rita 	7	Julio	2023-07-17T00:00:00	2024-11-08T01:00:00	8	Radiación solar	0
105849	7	Sololá	704	Santa Lucía Utatlán 	7	Santa Rita 	7	Julio	2023-07-17T00:00:00	2024-11-08T02:00:00	2	Temperatura media	17.3
105850	7	Sololá	704	Santa Lucía Utatlán 	7	Santa Rita 	7	Julio	2023-07-17T00:00:00	2024-11-08T02:00:00	4	Temperatura máxima	18.6
105851	7	Sololá	704	Santa Lucía Utatlán 	7	Santa Rita 	7	Julio	2023-07-17T00:00:00	2024-11-08T02:00:00	3	Temperatura mínima	17.2
105852	7	Sololá	704	Santa Lucía Utatlán 	7	Santa Rita 	7	Julio	2023-07-17T00:00:00	2024-11-08T02:00:00	5	Humedad	87
105853	7	Sololá	704	Santa Lucía Utatlán 	7	Santa Rita 	7	Julio	2023-07-17T00:00:00	2024-11-08T02:00:00	6	Velocidad del viento	3.2
105854	7	Sololá	704	Santa Lucía Utatlán 	7	Santa Rita 	7	Julio	2023-07-17T00:00:00	2024-11-08T02:00:00	7	Dirección del viento	3.22
105855	7	Sololá	704	Santa Lucía Utatlán 	7	Santa Rita 	7	Julio	2023-07-17T00:00:00	2024-11-08T02:00:00	1	Precipitación	0
105856	7	Sololá	704	Santa Lucía Utatlán 	7	Santa Rita 	7	Julio	2023-07-17T00:00:00	2024-11-08T02:00:00	8	Radiación solar	0
105857	7	Sololá	704	Santa Lucía Utatlán 	7	Santa Rita 	7	Julio	2023-07-17T00:00:00	2024-11-08T03:00:00	2	Temperatura media	17.2
105858	7	Sololá	704	Santa Lucía Utatlán 	7	Santa Rita 	7	Julio	2023-07-17T00:00:00	2024-11-08T03:00:00	4	Temperatura máxima	17.3
105859	7	Sololá	704	Santa Lucía Utatlán 	7	Santa Rita 	7	Julio	2023-07-17T00:00:00	2024-11-08T03:00:00	3	Temperatura mínima	16.8
105860	7	Sololá	704	Santa Lucía Utatlán 	7	Santa Rita 	7	Julio	2023-07-17T00:00:00	2024-11-08T03:00:00	5	Humedad	87
105861	7	Sololá	704	Santa Lucía Utatlán 	7	Santa Rita 	7	Julio	2023-07-17T00:00:00	2024-11-08T03:00:00	6	Velocidad del viento	3.2
105862	7	Sololá	704	Santa Lucía Utatlán 	7	Santa Rita 	7	Julio	2023-07-17T00:00:00	2024-11-08T03:00:00	7	Dirección del viento	3.22
105863	7	Sololá	704	Santa Lucía Utatlán 	7	Santa Rita 	7	Julio	2023-07-17T00:00:00	2024-11-08T03:00:00	1	Precipitación	0
105864	7	Sololá	704	Santa Lucía Utatlán 	7	Santa Rita 	7	Julio	2023-07-17T00:00:00	2024-11-08T03:00:00	8	Radiación solar	0
105865	7	Sololá	704	Santa Lucía Utatlán 	7	Santa Rita 	7	Julio	2023-07-17T00:00:00	2024-11-08T04:00:00	2	Temperatura media	16.9
105866	7	Sololá	704	Santa Lucía Utatlán 	7	Santa Rita 	7	Julio	2023-07-17T00:00:00	2024-11-08T04:00:00	4	Temperatura máxima	17.7
105867	7	Sololá	704	Santa Lucía Utatlán 	7	Santa Rita 	7	Julio	2023-07-17T00:00:00	2024-11-08T04:00:00	3	Temperatura mínima	16.9
105868	7	Sololá	704	Santa Lucía Utatlán 	7	Santa Rita 	7	Julio	2023-07-17T00:00:00	2024-11-08T04:00:00	5	Humedad	87
105869	7	Sololá	704	Santa Lucía Utatlán 	7	Santa Rita 	7	Julio	2023-07-17T00:00:00	2024-11-08T04:00:00	6	Velocidad del viento	3.2
105870	7	Sololá	704	Santa Lucía Utatlán 	7	Santa Rita 	7	Julio	2023-07-17T00:00:00	2024-11-08T04:00:00	7	Dirección del viento	3.22
105871	7	Sololá	704	Santa Lucía Utatlán 	7	Santa Rita 	7	Julio	2023-07-17T00:00:00	2024-11-08T04:00:00	1	Precipitación	0
105872	7	Sololá	704	Santa Lucía Utatlán 	7	Santa Rita 	7	Julio	2023-07-17T00:00:00	2024-11-08T04:00:00	8	Radiación solar	0
105873	7	Sololá	704	Santa Lucía Utatlán 	7	Santa Rita 	7	Julio	2023-07-17T00:00:00	2024-11-08T05:00:00	2	Temperatura media	16.7
105874	7	Sololá	704	Santa Lucía Utatlán 	7	Santa Rita 	7	Julio	2023-07-17T00:00:00	2024-11-08T05:00:00	4	Temperatura máxima	16.9
105875	7	Sololá	704	Santa Lucía Utatlán 	7	Santa Rita 	7	Julio	2023-07-17T00:00:00	2024-11-08T05:00:00	3	Temperatura mínima	16.3
105876	7	Sololá	704	Santa Lucía Utatlán 	7	Santa Rita 	7	Julio	2023-07-17T00:00:00	2024-11-08T05:00:00	5	Humedad	78
105877	7	Sololá	704	Santa Lucía Utatlán 	7	Santa Rita 	7	Julio	2023-07-17T00:00:00	2024-11-08T05:00:00	6	Velocidad del viento	3.2
105878	7	Sololá	704	Santa Lucía Utatlán 	7	Santa Rita 	7	Julio	2023-07-17T00:00:00	2024-11-08T05:00:00	7	Dirección del viento	3.22
105879	7	Sololá	704	Santa Lucía Utatlán 	7	Santa Rita 	7	Julio	2023-07-17T00:00:00	2024-11-08T05:00:00	1	Precipitación	0
105880	7	Sololá	704	Santa Lucía Utatlán 	7	Santa Rita 	7	Julio	2023-07-17T00:00:00	2024-11-08T05:00:00	8	Radiación solar	0
105881	7	Sololá	704	Santa Lucía Utatlán 	7	Santa Rita 	7	Julio	2023-07-17T00:00:00	2024-11-08T06:00:00	2	Temperatura media	16.9
105882	7	Sololá	704	Santa Lucía Utatlán 	7	Santa Rita 	7	Julio	2023-07-17T00:00:00	2024-11-08T06:00:00	4	Temperatura máxima	17.9
105883	7	Sololá	704	Santa Lucía Utatlán 	7	Santa Rita 	7	Julio	2023-07-17T00:00:00	2024-11-08T06:00:00	3	Temperatura mínima	16.4
105884	7	Sololá	704	Santa Lucía Utatlán 	7	Santa Rita 	7	Julio	2023-07-17T00:00:00	2024-11-08T06:00:00	5	Humedad	72
105885	7	Sololá	704	Santa Lucía Utatlán 	7	Santa Rita 	7	Julio	2023-07-17T00:00:00	2024-11-08T06:00:00	6	Velocidad del viento	4.8
105886	7	Sololá	704	Santa Lucía Utatlán 	7	Santa Rita 	7	Julio	2023-07-17T00:00:00	2024-11-08T06:00:00	7	Dirección del viento	4.83
105887	7	Sololá	704	Santa Lucía Utatlán 	7	Santa Rita 	7	Julio	2023-07-17T00:00:00	2024-11-08T06:00:00	1	Precipitación	0
105888	7	Sololá	704	Santa Lucía Utatlán 	7	Santa Rita 	7	Julio	2023-07-17T00:00:00	2024-11-08T06:00:00	8	Radiación solar	2
105889	7	Sololá	704	Santa Lucía Utatlán 	7	Santa Rita 	7	Julio	2023-07-17T00:00:00	2024-11-08T07:00:00	2	Temperatura media	17.4
105890	7	Sololá	704	Santa Lucía Utatlán 	7	Santa Rita 	7	Julio	2023-07-17T00:00:00	2024-11-08T07:00:00	4	Temperatura máxima	17.6
105891	7	Sololá	704	Santa Lucía Utatlán 	7	Santa Rita 	7	Julio	2023-07-17T00:00:00	2024-11-08T07:00:00	3	Temperatura mínima	15.9
105892	7	Sololá	704	Santa Lucía Utatlán 	7	Santa Rita 	7	Julio	2023-07-17T00:00:00	2024-11-08T07:00:00	5	Humedad	73
105893	7	Sololá	704	Santa Lucía Utatlán 	7	Santa Rita 	7	Julio	2023-07-17T00:00:00	2024-11-08T07:00:00	6	Velocidad del viento	4.8
105894	7	Sololá	704	Santa Lucía Utatlán 	7	Santa Rita 	7	Julio	2023-07-17T00:00:00	2024-11-08T07:00:00	7	Dirección del viento	4.83
105895	7	Sololá	704	Santa Lucía Utatlán 	7	Santa Rita 	7	Julio	2023-07-17T00:00:00	2024-11-08T07:00:00	1	Precipitación	0
105896	7	Sololá	704	Santa Lucía Utatlán 	7	Santa Rita 	7	Julio	2023-07-17T00:00:00	2024-11-08T07:00:00	8	Radiación solar	51
105897	7	Sololá	704	Santa Lucía Utatlán 	7	Santa Rita 	7	Julio	2023-07-17T00:00:00	2024-11-08T08:00:00	2	Temperatura media	20.6
105898	7	Sololá	704	Santa Lucía Utatlán 	7	Santa Rita 	7	Julio	2023-07-17T00:00:00	2024-11-08T08:00:00	4	Temperatura máxima	20.7
105899	7	Sololá	704	Santa Lucía Utatlán 	7	Santa Rita 	7	Julio	2023-07-17T00:00:00	2024-11-08T08:00:00	3	Temperatura mínima	17.4
105900	7	Sololá	704	Santa Lucía Utatlán 	7	Santa Rita 	7	Julio	2023-07-17T00:00:00	2024-11-08T08:00:00	5	Humedad	70
105901	7	Sololá	704	Santa Lucía Utatlán 	7	Santa Rita 	7	Julio	2023-07-17T00:00:00	2024-11-08T08:00:00	6	Velocidad del viento	3.2
105902	7	Sololá	704	Santa Lucía Utatlán 	7	Santa Rita 	7	Julio	2023-07-17T00:00:00	2024-11-08T08:00:00	7	Dirección del viento	3.22
105903	7	Sololá	704	Santa Lucía Utatlán 	7	Santa Rita 	7	Julio	2023-07-17T00:00:00	2024-11-08T08:00:00	1	Precipitación	0
105904	7	Sololá	704	Santa Lucía Utatlán 	7	Santa Rita 	7	Julio	2023-07-17T00:00:00	2024-11-08T08:00:00	8	Radiación solar	362
105905	7	Sololá	704	Santa Lucía Utatlán 	7	Santa Rita 	7	Julio	2023-07-17T00:00:00	2024-11-08T09:00:00	2	Temperatura media	23.6
105906	7	Sololá	704	Santa Lucía Utatlán 	7	Santa Rita 	7	Julio	2023-07-17T00:00:00	2024-11-08T09:00:00	4	Temperatura máxima	23.6
105907	7	Sololá	704	Santa Lucía Utatlán 	7	Santa Rita 	7	Julio	2023-07-17T00:00:00	2024-11-08T09:00:00	3	Temperatura mínima	20.6
105908	7	Sololá	704	Santa Lucía Utatlán 	7	Santa Rita 	7	Julio	2023-07-17T00:00:00	2024-11-08T09:00:00	5	Humedad	42
105909	7	Sololá	704	Santa Lucía Utatlán 	7	Santa Rita 	7	Julio	2023-07-17T00:00:00	2024-11-08T09:00:00	6	Velocidad del viento	6.4
105910	7	Sololá	704	Santa Lucía Utatlán 	7	Santa Rita 	7	Julio	2023-07-17T00:00:00	2024-11-08T09:00:00	7	Dirección del viento	6.44
105911	7	Sololá	704	Santa Lucía Utatlán 	7	Santa Rita 	7	Julio	2023-07-17T00:00:00	2024-11-08T09:00:00	1	Precipitación	0
105912	7	Sololá	704	Santa Lucía Utatlán 	7	Santa Rita 	7	Julio	2023-07-17T00:00:00	2024-11-08T09:00:00	8	Radiación solar	631
105913	7	Sololá	704	Santa Lucía Utatlán 	7	Santa Rita 	7	Julio	2023-07-17T00:00:00	2024-11-08T10:00:00	2	Temperatura media	23.6
105914	7	Sololá	704	Santa Lucía Utatlán 	7	Santa Rita 	7	Julio	2023-07-17T00:00:00	2024-11-08T10:00:00	4	Temperatura máxima	23.9
105915	7	Sololá	704	Santa Lucía Utatlán 	7	Santa Rita 	7	Julio	2023-07-17T00:00:00	2024-11-08T10:00:00	3	Temperatura mínima	22.8
105916	7	Sololá	704	Santa Lucía Utatlán 	7	Santa Rita 	7	Julio	2023-07-17T00:00:00	2024-11-08T10:00:00	5	Humedad	47
105917	7	Sololá	704	Santa Lucía Utatlán 	7	Santa Rita 	7	Julio	2023-07-17T00:00:00	2024-11-08T10:00:00	6	Velocidad del viento	11.3
105918	7	Sololá	704	Santa Lucía Utatlán 	7	Santa Rita 	7	Julio	2023-07-17T00:00:00	2024-11-08T10:00:00	7	Dirección del viento	11.27
105919	7	Sololá	704	Santa Lucía Utatlán 	7	Santa Rita 	7	Julio	2023-07-17T00:00:00	2024-11-08T10:00:00	1	Precipitación	0
105920	7	Sololá	704	Santa Lucía Utatlán 	7	Santa Rita 	7	Julio	2023-07-17T00:00:00	2024-11-08T10:00:00	8	Radiación solar	816
105921	7	Sololá	704	Santa Lucía Utatlán 	7	Santa Rita 	7	Julio	2023-07-17T00:00:00	2024-11-08T11:00:00	2	Temperatura media	23.5
105922	7	Sololá	704	Santa Lucía Utatlán 	7	Santa Rita 	7	Julio	2023-07-17T00:00:00	2024-11-08T11:00:00	4	Temperatura máxima	24.6
105923	7	Sololá	704	Santa Lucía Utatlán 	7	Santa Rita 	7	Julio	2023-07-17T00:00:00	2024-11-08T11:00:00	3	Temperatura mínima	23.5
105924	7	Sololá	704	Santa Lucía Utatlán 	7	Santa Rita 	7	Julio	2023-07-17T00:00:00	2024-11-08T11:00:00	5	Humedad	52
105925	7	Sololá	704	Santa Lucía Utatlán 	7	Santa Rita 	7	Julio	2023-07-17T00:00:00	2024-11-08T11:00:00	6	Velocidad del viento	11.3
105926	7	Sololá	704	Santa Lucía Utatlán 	7	Santa Rita 	7	Julio	2023-07-17T00:00:00	2024-11-08T11:00:00	7	Dirección del viento	11.27
105927	7	Sololá	704	Santa Lucía Utatlán 	7	Santa Rita 	7	Julio	2023-07-17T00:00:00	2024-11-08T11:00:00	1	Precipitación	0
105928	7	Sololá	704	Santa Lucía Utatlán 	7	Santa Rita 	7	Julio	2023-07-17T00:00:00	2024-11-08T11:00:00	8	Radiación solar	963
105929	7	Sololá	704	Santa Lucía Utatlán 	7	Santa Rita 	7	Julio	2023-07-17T00:00:00	2024-11-08T12:00:00	2	Temperatura media	23.7
105930	7	Sololá	704	Santa Lucía Utatlán 	7	Santa Rita 	7	Julio	2023-07-17T00:00:00	2024-11-08T12:00:00	4	Temperatura máxima	24
105931	7	Sololá	704	Santa Lucía Utatlán 	7	Santa Rita 	7	Julio	2023-07-17T00:00:00	2024-11-08T12:00:00	3	Temperatura mínima	23.2
105932	7	Sololá	704	Santa Lucía Utatlán 	7	Santa Rita 	7	Julio	2023-07-17T00:00:00	2024-11-08T12:00:00	5	Humedad	55
105933	7	Sololá	704	Santa Lucía Utatlán 	7	Santa Rita 	7	Julio	2023-07-17T00:00:00	2024-11-08T12:00:00	6	Velocidad del viento	11.3
105934	7	Sololá	704	Santa Lucía Utatlán 	7	Santa Rita 	7	Julio	2023-07-17T00:00:00	2024-11-08T12:00:00	7	Dirección del viento	11.27
105935	7	Sololá	704	Santa Lucía Utatlán 	7	Santa Rita 	7	Julio	2023-07-17T00:00:00	2024-11-08T12:00:00	1	Precipitación	0
105936	7	Sololá	704	Santa Lucía Utatlán 	7	Santa Rita 	7	Julio	2023-07-17T00:00:00	2024-11-08T12:00:00	8	Radiación solar	1017
105937	7	Sololá	704	Santa Lucía Utatlán 	7	Santa Rita 	7	Julio	2023-07-17T00:00:00	2024-11-08T13:00:00	2	Temperatura media	24.3
105938	7	Sololá	704	Santa Lucía Utatlán 	7	Santa Rita 	7	Julio	2023-07-17T00:00:00	2024-11-08T13:00:00	4	Temperatura máxima	24.3
105939	7	Sololá	704	Santa Lucía Utatlán 	7	Santa Rita 	7	Julio	2023-07-17T00:00:00	2024-11-08T13:00:00	3	Temperatura mínima	23.4
105940	7	Sololá	704	Santa Lucía Utatlán 	7	Santa Rita 	7	Julio	2023-07-17T00:00:00	2024-11-08T13:00:00	5	Humedad	57
105941	7	Sololá	704	Santa Lucía Utatlán 	7	Santa Rita 	7	Julio	2023-07-17T00:00:00	2024-11-08T13:00:00	6	Velocidad del viento	11.3
105942	7	Sololá	704	Santa Lucía Utatlán 	7	Santa Rita 	7	Julio	2023-07-17T00:00:00	2024-11-08T13:00:00	7	Dirección del viento	11.27
105943	7	Sololá	704	Santa Lucía Utatlán 	7	Santa Rita 	7	Julio	2023-07-17T00:00:00	2024-11-08T13:00:00	1	Precipitación	0
105944	7	Sololá	704	Santa Lucía Utatlán 	7	Santa Rita 	7	Julio	2023-07-17T00:00:00	2024-11-08T13:00:00	8	Radiación solar	1026
105945	7	Sololá	704	Santa Lucía Utatlán 	7	Santa Rita 	7	Julio	2023-07-17T00:00:00	2024-11-08T14:00:00	2	Temperatura media	24.6
105946	7	Sololá	704	Santa Lucía Utatlán 	7	Santa Rita 	7	Julio	2023-07-17T00:00:00	2024-11-08T14:00:00	4	Temperatura máxima	24.8
105947	7	Sololá	704	Santa Lucía Utatlán 	7	Santa Rita 	7	Julio	2023-07-17T00:00:00	2024-11-08T14:00:00	3	Temperatura mínima	24.1
105948	7	Sololá	704	Santa Lucía Utatlán 	7	Santa Rita 	7	Julio	2023-07-17T00:00:00	2024-11-08T14:00:00	5	Humedad	51
105949	7	Sololá	704	Santa Lucía Utatlán 	7	Santa Rita 	7	Julio	2023-07-17T00:00:00	2024-11-08T14:00:00	6	Velocidad del viento	9.7
105950	7	Sololá	704	Santa Lucía Utatlán 	7	Santa Rita 	7	Julio	2023-07-17T00:00:00	2024-11-08T14:00:00	7	Dirección del viento	9.66
105951	7	Sololá	704	Santa Lucía Utatlán 	7	Santa Rita 	7	Julio	2023-07-17T00:00:00	2024-11-08T14:00:00	1	Precipitación	0
105952	7	Sololá	704	Santa Lucía Utatlán 	7	Santa Rita 	7	Julio	2023-07-17T00:00:00	2024-11-08T14:00:00	8	Radiación solar	938
105953	7	Sololá	704	Santa Lucía Utatlán 	7	Santa Rita 	7	Julio	2023-07-17T00:00:00	2024-11-08T15:00:00	2	Temperatura media	24.4
105954	7	Sololá	704	Santa Lucía Utatlán 	7	Santa Rita 	7	Julio	2023-07-17T00:00:00	2024-11-08T15:00:00	4	Temperatura máxima	24.9
105955	7	Sololá	704	Santa Lucía Utatlán 	7	Santa Rita 	7	Julio	2023-07-17T00:00:00	2024-11-08T15:00:00	3	Temperatura mínima	24.2
105956	7	Sololá	704	Santa Lucía Utatlán 	7	Santa Rita 	7	Julio	2023-07-17T00:00:00	2024-11-08T15:00:00	5	Humedad	53
105957	7	Sololá	704	Santa Lucía Utatlán 	7	Santa Rita 	7	Julio	2023-07-17T00:00:00	2024-11-08T15:00:00	6	Velocidad del viento	11.3
105958	7	Sololá	704	Santa Lucía Utatlán 	7	Santa Rita 	7	Julio	2023-07-17T00:00:00	2024-11-08T15:00:00	7	Dirección del viento	11.27
105959	7	Sololá	704	Santa Lucía Utatlán 	7	Santa Rita 	7	Julio	2023-07-17T00:00:00	2024-11-08T15:00:00	1	Precipitación	0
105960	7	Sololá	704	Santa Lucía Utatlán 	7	Santa Rita 	7	Julio	2023-07-17T00:00:00	2024-11-08T15:00:00	8	Radiación solar	845
105961	7	Sololá	704	Santa Lucía Utatlán 	7	Santa Rita 	7	Julio	2023-07-17T00:00:00	2024-11-08T16:00:00	2	Temperatura media	23.9
105962	7	Sololá	704	Santa Lucía Utatlán 	7	Santa Rita 	7	Julio	2023-07-17T00:00:00	2024-11-08T16:00:00	4	Temperatura máxima	24.6
105963	7	Sololá	704	Santa Lucía Utatlán 	7	Santa Rita 	7	Julio	2023-07-17T00:00:00	2024-11-08T16:00:00	3	Temperatura mínima	23.8
105964	7	Sololá	704	Santa Lucía Utatlán 	7	Santa Rita 	7	Julio	2023-07-17T00:00:00	2024-11-08T16:00:00	5	Humedad	58
105965	7	Sololá	704	Santa Lucía Utatlán 	7	Santa Rita 	7	Julio	2023-07-17T00:00:00	2024-11-08T16:00:00	6	Velocidad del viento	11.3
105966	7	Sololá	704	Santa Lucía Utatlán 	7	Santa Rita 	7	Julio	2023-07-17T00:00:00	2024-11-08T16:00:00	7	Dirección del viento	11.27
105967	7	Sololá	704	Santa Lucía Utatlán 	7	Santa Rita 	7	Julio	2023-07-17T00:00:00	2024-11-08T16:00:00	1	Precipitación	0
105968	7	Sololá	704	Santa Lucía Utatlán 	7	Santa Rita 	7	Julio	2023-07-17T00:00:00	2024-11-08T16:00:00	8	Radiación solar	653
105969	7	Sololá	704	Santa Lucía Utatlán 	7	Santa Rita 	7	Julio	2023-07-17T00:00:00	2024-11-08T17:00:00	2	Temperatura media	23.1
105970	7	Sololá	704	Santa Lucía Utatlán 	7	Santa Rita 	7	Julio	2023-07-17T00:00:00	2024-11-08T17:00:00	4	Temperatura máxima	24.1
105971	7	Sololá	704	Santa Lucía Utatlán 	7	Santa Rita 	7	Julio	2023-07-17T00:00:00	2024-11-08T17:00:00	3	Temperatura mínima	23.1
105972	7	Sololá	704	Santa Lucía Utatlán 	7	Santa Rita 	7	Julio	2023-07-17T00:00:00	2024-11-08T17:00:00	5	Humedad	59
105973	7	Sololá	704	Santa Lucía Utatlán 	7	Santa Rita 	7	Julio	2023-07-17T00:00:00	2024-11-08T17:00:00	6	Velocidad del viento	9.7
105974	7	Sololá	704	Santa Lucía Utatlán 	7	Santa Rita 	7	Julio	2023-07-17T00:00:00	2024-11-08T17:00:00	7	Dirección del viento	9.66
105975	7	Sololá	704	Santa Lucía Utatlán 	7	Santa Rita 	7	Julio	2023-07-17T00:00:00	2024-11-08T17:00:00	1	Precipitación	0
105976	7	Sololá	704	Santa Lucía Utatlán 	7	Santa Rita 	7	Julio	2023-07-17T00:00:00	2024-11-08T17:00:00	8	Radiación solar	365
105977	7	Sololá	704	Santa Lucía Utatlán 	7	Santa Rita 	7	Julio	2023-07-17T00:00:00	2024-11-08T18:00:00	2	Temperatura media	21.7
105978	7	Sololá	704	Santa Lucía Utatlán 	7	Santa Rita 	7	Julio	2023-07-17T00:00:00	2024-11-08T18:00:00	4	Temperatura máxima	23.1
105979	7	Sololá	704	Santa Lucía Utatlán 	7	Santa Rita 	7	Julio	2023-07-17T00:00:00	2024-11-08T18:00:00	3	Temperatura mínima	21.7
105980	7	Sololá	704	Santa Lucía Utatlán 	7	Santa Rita 	7	Julio	2023-07-17T00:00:00	2024-11-08T18:00:00	5	Humedad	71
105981	7	Sololá	704	Santa Lucía Utatlán 	7	Santa Rita 	7	Julio	2023-07-17T00:00:00	2024-11-08T18:00:00	6	Velocidad del viento	8
105982	7	Sololá	704	Santa Lucía Utatlán 	7	Santa Rita 	7	Julio	2023-07-17T00:00:00	2024-11-08T18:00:00	7	Dirección del viento	8.05
105983	7	Sololá	704	Santa Lucía Utatlán 	7	Santa Rita 	7	Julio	2023-07-17T00:00:00	2024-11-08T18:00:00	1	Precipitación	0
105984	7	Sololá	704	Santa Lucía Utatlán 	7	Santa Rita 	7	Julio	2023-07-17T00:00:00	2024-11-08T18:00:00	8	Radiación solar	137
105985	7	Sololá	704	Santa Lucía Utatlán 	7	Santa Rita 	7	Julio	2023-07-17T00:00:00	2024-11-08T19:00:00	2	Temperatura media	21.2
105986	7	Sololá	704	Santa Lucía Utatlán 	7	Santa Rita 	7	Julio	2023-07-17T00:00:00	2024-11-08T19:00:00	4	Temperatura máxima	21.7
105987	7	Sololá	704	Santa Lucía Utatlán 	7	Santa Rita 	7	Julio	2023-07-17T00:00:00	2024-11-08T19:00:00	3	Temperatura mínima	21
105988	7	Sololá	704	Santa Lucía Utatlán 	7	Santa Rita 	7	Julio	2023-07-17T00:00:00	2024-11-08T19:00:00	5	Humedad	75
105989	7	Sololá	704	Santa Lucía Utatlán 	7	Santa Rita 	7	Julio	2023-07-17T00:00:00	2024-11-08T19:00:00	6	Velocidad del viento	6.4
105990	7	Sololá	704	Santa Lucía Utatlán 	7	Santa Rita 	7	Julio	2023-07-17T00:00:00	2024-11-08T19:00:00	7	Dirección del viento	6.44
105991	7	Sololá	704	Santa Lucía Utatlán 	7	Santa Rita 	7	Julio	2023-07-17T00:00:00	2024-11-08T19:00:00	1	Precipitación	0
105992	7	Sololá	704	Santa Lucía Utatlán 	7	Santa Rita 	7	Julio	2023-07-17T00:00:00	2024-11-08T19:00:00	8	Radiación solar	0
105993	7	Sololá	704	Santa Lucía Utatlán 	7	Santa Rita 	7	Julio	2023-07-17T00:00:00	2024-11-08T20:00:00	2	Temperatura media	20.9
105994	7	Sololá	704	Santa Lucía Utatlán 	7	Santa Rita 	7	Julio	2023-07-17T00:00:00	2024-11-08T20:00:00	4	Temperatura máxima	21.4
105995	7	Sololá	704	Santa Lucía Utatlán 	7	Santa Rita 	7	Julio	2023-07-17T00:00:00	2024-11-08T20:00:00	3	Temperatura mínima	20.8
105996	7	Sololá	704	Santa Lucía Utatlán 	7	Santa Rita 	7	Julio	2023-07-17T00:00:00	2024-11-08T20:00:00	5	Humedad	68
105997	7	Sololá	704	Santa Lucía Utatlán 	7	Santa Rita 	7	Julio	2023-07-17T00:00:00	2024-11-08T20:00:00	6	Velocidad del viento	9.7
105998	7	Sololá	704	Santa Lucía Utatlán 	7	Santa Rita 	7	Julio	2023-07-17T00:00:00	2024-11-08T20:00:00	7	Dirección del viento	9.66
105999	7	Sololá	704	Santa Lucía Utatlán 	7	Santa Rita 	7	Julio	2023-07-17T00:00:00	2024-11-08T20:00:00	1	Precipitación	0
106000	7	Sololá	704	Santa Lucía Utatlán 	7	Santa Rita 	7	Julio	2023-07-17T00:00:00	2024-11-08T20:00:00	8	Radiación solar	0
106001	7	Sololá	704	Santa Lucía Utatlán 	7	Santa Rita 	7	Julio	2023-07-17T00:00:00	2024-11-08T21:00:00	2	Temperatura media	20.7
106002	7	Sololá	704	Santa Lucía Utatlán 	7	Santa Rita 	7	Julio	2023-07-17T00:00:00	2024-11-08T21:00:00	4	Temperatura máxima	21.1
106003	7	Sololá	704	Santa Lucía Utatlán 	7	Santa Rita 	7	Julio	2023-07-17T00:00:00	2024-11-08T21:00:00	3	Temperatura mínima	20.6
106004	7	Sololá	704	Santa Lucía Utatlán 	7	Santa Rita 	7	Julio	2023-07-17T00:00:00	2024-11-08T21:00:00	5	Humedad	68
106005	7	Sololá	704	Santa Lucía Utatlán 	7	Santa Rita 	7	Julio	2023-07-17T00:00:00	2024-11-08T21:00:00	6	Velocidad del viento	12.9
106006	7	Sololá	704	Santa Lucía Utatlán 	7	Santa Rita 	7	Julio	2023-07-17T00:00:00	2024-11-08T21:00:00	7	Dirección del viento	12.87
106007	7	Sololá	704	Santa Lucía Utatlán 	7	Santa Rita 	7	Julio	2023-07-17T00:00:00	2024-11-08T21:00:00	1	Precipitación	0
106008	7	Sololá	704	Santa Lucía Utatlán 	7	Santa Rita 	7	Julio	2023-07-17T00:00:00	2024-11-08T21:00:00	8	Radiación solar	0
106009	7	Sololá	704	Santa Lucía Utatlán 	7	Santa Rita 	7	Julio	2023-07-17T00:00:00	2024-11-08T22:00:00	2	Temperatura media	18.2
106010	7	Sololá	704	Santa Lucía Utatlán 	7	Santa Rita 	7	Julio	2023-07-17T00:00:00	2024-11-08T22:00:00	4	Temperatura máxima	20.7
106011	7	Sololá	704	Santa Lucía Utatlán 	7	Santa Rita 	7	Julio	2023-07-17T00:00:00	2024-11-08T22:00:00	3	Temperatura mínima	18.2
106012	7	Sololá	704	Santa Lucía Utatlán 	7	Santa Rita 	7	Julio	2023-07-17T00:00:00	2024-11-08T22:00:00	5	Humedad	79
106013	7	Sololá	704	Santa Lucía Utatlán 	7	Santa Rita 	7	Julio	2023-07-17T00:00:00	2024-11-08T22:00:00	6	Velocidad del viento	6.4
106014	7	Sololá	704	Santa Lucía Utatlán 	7	Santa Rita 	7	Julio	2023-07-17T00:00:00	2024-11-08T22:00:00	7	Dirección del viento	6.44
106015	7	Sololá	704	Santa Lucía Utatlán 	7	Santa Rita 	7	Julio	2023-07-17T00:00:00	2024-11-08T22:00:00	1	Precipitación	0
106016	7	Sololá	704	Santa Lucía Utatlán 	7	Santa Rita 	7	Julio	2023-07-17T00:00:00	2024-11-08T22:00:00	8	Radiación solar	0
106017	7	Sololá	704	Santa Lucía Utatlán 	7	Santa Rita 	7	Julio	2023-07-17T00:00:00	2024-11-08T23:00:00	2	Temperatura media	17.7
106018	7	Sololá	704	Santa Lucía Utatlán 	7	Santa Rita 	7	Julio	2023-07-17T00:00:00	2024-11-08T23:00:00	4	Temperatura máxima	18.5
106019	7	Sololá	704	Santa Lucía Utatlán 	7	Santa Rita 	7	Julio	2023-07-17T00:00:00	2024-11-08T23:00:00	3	Temperatura mínima	17.7
106020	7	Sololá	704	Santa Lucía Utatlán 	7	Santa Rita 	7	Julio	2023-07-17T00:00:00	2024-11-08T23:00:00	5	Humedad	81
106021	7	Sololá	704	Santa Lucía Utatlán 	7	Santa Rita 	7	Julio	2023-07-17T00:00:00	2024-11-08T23:00:00	6	Velocidad del viento	3.2
106022	7	Sololá	704	Santa Lucía Utatlán 	7	Santa Rita 	7	Julio	2023-07-17T00:00:00	2024-11-08T23:00:00	7	Dirección del viento	3.22
106023	7	Sololá	704	Santa Lucía Utatlán 	7	Santa Rita 	7	Julio	2023-07-17T00:00:00	2024-11-08T23:00:00	1	Precipitación	0
106024	7	Sololá	704	Santa Lucía Utatlán 	7	Santa Rita 	7	Julio	2023-07-17T00:00:00	2024-11-08T23:00:00	8	Radiación solar	0
106025	7	Sololá	704	Santa Lucía Utatlán 	7	Santa Rita 	7	Julio	2023-07-18T00:00:00	2024-11-08T00:00:00	2	Temperatura media	20
106026	7	Sololá	704	Santa Lucía Utatlán 	7	Santa Rita 	7	Julio	2023-07-18T00:00:00	2024-11-08T00:00:00	4	Temperatura máxima	20
106027	7	Sololá	704	Santa Lucía Utatlán 	7	Santa Rita 	7	Julio	2023-07-18T00:00:00	2024-11-08T00:00:00	3	Temperatura mínima	17.6
106028	7	Sololá	704	Santa Lucía Utatlán 	7	Santa Rita 	7	Julio	2023-07-18T00:00:00	2024-11-08T00:00:00	5	Humedad	71
106029	7	Sololá	704	Santa Lucía Utatlán 	7	Santa Rita 	7	Julio	2023-07-18T00:00:00	2024-11-08T00:00:00	6	Velocidad del viento	4.8
106030	7	Sololá	704	Santa Lucía Utatlán 	7	Santa Rita 	7	Julio	2023-07-18T00:00:00	2024-11-08T00:00:00	7	Dirección del viento	4.83
106031	7	Sololá	704	Santa Lucía Utatlán 	7	Santa Rita 	7	Julio	2023-07-18T00:00:00	2024-11-08T00:00:00	1	Precipitación	0
106032	7	Sololá	704	Santa Lucía Utatlán 	7	Santa Rita 	7	Julio	2023-07-18T00:00:00	2024-11-08T00:00:00	8	Radiación solar	0
106033	7	Sololá	704	Santa Lucía Utatlán 	7	Santa Rita 	7	Julio	2023-07-18T00:00:00	2024-11-08T01:00:00	2	Temperatura media	18.7
106034	7	Sololá	704	Santa Lucía Utatlán 	7	Santa Rita 	7	Julio	2023-07-18T00:00:00	2024-11-08T01:00:00	4	Temperatura máxima	20.6
106035	7	Sololá	704	Santa Lucía Utatlán 	7	Santa Rita 	7	Julio	2023-07-18T00:00:00	2024-11-08T01:00:00	3	Temperatura mínima	18.2
106036	7	Sololá	704	Santa Lucía Utatlán 	7	Santa Rita 	7	Julio	2023-07-18T00:00:00	2024-11-08T01:00:00	5	Humedad	78
106037	7	Sololá	704	Santa Lucía Utatlán 	7	Santa Rita 	7	Julio	2023-07-18T00:00:00	2024-11-08T01:00:00	6	Velocidad del viento	4.8
106038	7	Sololá	704	Santa Lucía Utatlán 	7	Santa Rita 	7	Julio	2023-07-18T00:00:00	2024-11-08T01:00:00	7	Dirección del viento	4.83
106039	7	Sololá	704	Santa Lucía Utatlán 	7	Santa Rita 	7	Julio	2023-07-18T00:00:00	2024-11-08T01:00:00	1	Precipitación	0
106040	7	Sololá	704	Santa Lucía Utatlán 	7	Santa Rita 	7	Julio	2023-07-18T00:00:00	2024-11-08T01:00:00	8	Radiación solar	0
106041	7	Sololá	704	Santa Lucía Utatlán 	7	Santa Rita 	7	Julio	2023-07-18T00:00:00	2024-11-08T02:00:00	2	Temperatura media	18.8
106042	7	Sololá	704	Santa Lucía Utatlán 	7	Santa Rita 	7	Julio	2023-07-18T00:00:00	2024-11-08T02:00:00	4	Temperatura máxima	19.2
106043	7	Sololá	704	Santa Lucía Utatlán 	7	Santa Rita 	7	Julio	2023-07-18T00:00:00	2024-11-08T02:00:00	3	Temperatura mínima	18.6
106044	7	Sololá	704	Santa Lucía Utatlán 	7	Santa Rita 	7	Julio	2023-07-18T00:00:00	2024-11-08T02:00:00	5	Humedad	81
106045	7	Sololá	704	Santa Lucía Utatlán 	7	Santa Rita 	7	Julio	2023-07-18T00:00:00	2024-11-08T02:00:00	6	Velocidad del viento	3.2
106046	7	Sololá	704	Santa Lucía Utatlán 	7	Santa Rita 	7	Julio	2023-07-18T00:00:00	2024-11-08T02:00:00	7	Dirección del viento	3.22
106047	7	Sololá	704	Santa Lucía Utatlán 	7	Santa Rita 	7	Julio	2023-07-18T00:00:00	2024-11-08T02:00:00	1	Precipitación	0
106048	7	Sololá	704	Santa Lucía Utatlán 	7	Santa Rita 	7	Julio	2023-07-18T00:00:00	2024-11-08T02:00:00	8	Radiación solar	0
106049	7	Sololá	704	Santa Lucía Utatlán 	7	Santa Rita 	7	Julio	2023-07-18T00:00:00	2024-11-08T03:00:00	2	Temperatura media	19.8
106050	7	Sololá	704	Santa Lucía Utatlán 	7	Santa Rita 	7	Julio	2023-07-18T00:00:00	2024-11-08T03:00:00	4	Temperatura máxima	19.9
106051	7	Sololá	704	Santa Lucía Utatlán 	7	Santa Rita 	7	Julio	2023-07-18T00:00:00	2024-11-08T03:00:00	3	Temperatura mínima	18.6
106052	7	Sololá	704	Santa Lucía Utatlán 	7	Santa Rita 	7	Julio	2023-07-18T00:00:00	2024-11-08T03:00:00	5	Humedad	78
106053	7	Sololá	704	Santa Lucía Utatlán 	7	Santa Rita 	7	Julio	2023-07-18T00:00:00	2024-11-08T03:00:00	6	Velocidad del viento	4.8
106054	7	Sololá	704	Santa Lucía Utatlán 	7	Santa Rita 	7	Julio	2023-07-18T00:00:00	2024-11-08T03:00:00	7	Dirección del viento	4.83
106055	7	Sololá	704	Santa Lucía Utatlán 	7	Santa Rita 	7	Julio	2023-07-18T00:00:00	2024-11-08T03:00:00	1	Precipitación	0
106056	7	Sololá	704	Santa Lucía Utatlán 	7	Santa Rita 	7	Julio	2023-07-18T00:00:00	2024-11-08T03:00:00	8	Radiación solar	0
106057	7	Sololá	704	Santa Lucía Utatlán 	7	Santa Rita 	7	Julio	2023-07-18T00:00:00	2024-11-08T04:00:00	2	Temperatura media	19.8
106058	7	Sololá	704	Santa Lucía Utatlán 	7	Santa Rita 	7	Julio	2023-07-18T00:00:00	2024-11-08T04:00:00	4	Temperatura máxima	19.8
106059	7	Sololá	704	Santa Lucía Utatlán 	7	Santa Rita 	7	Julio	2023-07-18T00:00:00	2024-11-08T04:00:00	3	Temperatura mínima	19
106060	7	Sololá	704	Santa Lucía Utatlán 	7	Santa Rita 	7	Julio	2023-07-18T00:00:00	2024-11-08T04:00:00	5	Humedad	79
106061	7	Sololá	704	Santa Lucía Utatlán 	7	Santa Rita 	7	Julio	2023-07-18T00:00:00	2024-11-08T04:00:00	6	Velocidad del viento	4.8
106062	7	Sololá	704	Santa Lucía Utatlán 	7	Santa Rita 	7	Julio	2023-07-18T00:00:00	2024-11-08T04:00:00	7	Dirección del viento	4.83
106063	7	Sololá	704	Santa Lucía Utatlán 	7	Santa Rita 	7	Julio	2023-07-18T00:00:00	2024-11-08T04:00:00	1	Precipitación	0
106064	7	Sololá	704	Santa Lucía Utatlán 	7	Santa Rita 	7	Julio	2023-07-18T00:00:00	2024-11-08T04:00:00	8	Radiación solar	0
106065	7	Sololá	704	Santa Lucía Utatlán 	7	Santa Rita 	7	Julio	2023-07-18T00:00:00	2024-11-08T05:00:00	2	Temperatura media	19.3
106066	7	Sololá	704	Santa Lucía Utatlán 	7	Santa Rita 	7	Julio	2023-07-18T00:00:00	2024-11-08T05:00:00	4	Temperatura máxima	20.1
106067	7	Sololá	704	Santa Lucía Utatlán 	7	Santa Rita 	7	Julio	2023-07-18T00:00:00	2024-11-08T05:00:00	3	Temperatura mínima	19.3
106068	7	Sololá	704	Santa Lucía Utatlán 	7	Santa Rita 	7	Julio	2023-07-18T00:00:00	2024-11-08T05:00:00	5	Humedad	79
106069	7	Sololá	704	Santa Lucía Utatlán 	7	Santa Rita 	7	Julio	2023-07-18T00:00:00	2024-11-08T05:00:00	6	Velocidad del viento	8
106070	7	Sololá	704	Santa Lucía Utatlán 	7	Santa Rita 	7	Julio	2023-07-18T00:00:00	2024-11-08T05:00:00	7	Dirección del viento	8.05
106071	7	Sololá	704	Santa Lucía Utatlán 	7	Santa Rita 	7	Julio	2023-07-18T00:00:00	2024-11-08T05:00:00	1	Precipitación	0
106072	7	Sololá	704	Santa Lucía Utatlán 	7	Santa Rita 	7	Julio	2023-07-18T00:00:00	2024-11-08T05:00:00	8	Radiación solar	0
106073	7	Sololá	704	Santa Lucía Utatlán 	7	Santa Rita 	7	Julio	2023-07-18T00:00:00	2024-11-08T06:00:00	2	Temperatura media	19.3
106074	7	Sololá	704	Santa Lucía Utatlán 	7	Santa Rita 	7	Julio	2023-07-18T00:00:00	2024-11-08T06:00:00	4	Temperatura máxima	19.4
106075	7	Sololá	704	Santa Lucía Utatlán 	7	Santa Rita 	7	Julio	2023-07-18T00:00:00	2024-11-08T06:00:00	3	Temperatura mínima	19.1
106076	7	Sololá	704	Santa Lucía Utatlán 	7	Santa Rita 	7	Julio	2023-07-18T00:00:00	2024-11-08T06:00:00	5	Humedad	79
106077	7	Sololá	704	Santa Lucía Utatlán 	7	Santa Rita 	7	Julio	2023-07-18T00:00:00	2024-11-08T06:00:00	6	Velocidad del viento	6.4
106078	7	Sololá	704	Santa Lucía Utatlán 	7	Santa Rita 	7	Julio	2023-07-18T00:00:00	2024-11-08T06:00:00	7	Dirección del viento	6.44
106079	7	Sololá	704	Santa Lucía Utatlán 	7	Santa Rita 	7	Julio	2023-07-18T00:00:00	2024-11-08T06:00:00	1	Precipitación	0
106080	7	Sololá	704	Santa Lucía Utatlán 	7	Santa Rita 	7	Julio	2023-07-18T00:00:00	2024-11-08T06:00:00	8	Radiación solar	2
106081	7	Sololá	704	Santa Lucía Utatlán 	7	Santa Rita 	7	Julio	2023-07-18T00:00:00	2024-11-08T07:00:00	2	Temperatura media	19.8
106082	7	Sololá	704	Santa Lucía Utatlán 	7	Santa Rita 	7	Julio	2023-07-18T00:00:00	2024-11-08T07:00:00	4	Temperatura máxima	19.8
106083	7	Sololá	704	Santa Lucía Utatlán 	7	Santa Rita 	7	Julio	2023-07-18T00:00:00	2024-11-08T07:00:00	3	Temperatura mínima	19.2
106084	7	Sololá	704	Santa Lucía Utatlán 	7	Santa Rita 	7	Julio	2023-07-18T00:00:00	2024-11-08T07:00:00	5	Humedad	76
106085	7	Sololá	704	Santa Lucía Utatlán 	7	Santa Rita 	7	Julio	2023-07-18T00:00:00	2024-11-08T07:00:00	6	Velocidad del viento	6.4
106086	7	Sololá	704	Santa Lucía Utatlán 	7	Santa Rita 	7	Julio	2023-07-18T00:00:00	2024-11-08T07:00:00	7	Dirección del viento	6.44
106087	7	Sololá	704	Santa Lucía Utatlán 	7	Santa Rita 	7	Julio	2023-07-18T00:00:00	2024-11-08T07:00:00	1	Precipitación	0
106088	7	Sololá	704	Santa Lucía Utatlán 	7	Santa Rita 	7	Julio	2023-07-18T00:00:00	2024-11-08T07:00:00	8	Radiación solar	52
106089	7	Sololá	704	Santa Lucía Utatlán 	7	Santa Rita 	7	Julio	2023-07-18T00:00:00	2024-11-08T08:00:00	2	Temperatura media	20.9
106090	7	Sololá	704	Santa Lucía Utatlán 	7	Santa Rita 	7	Julio	2023-07-18T00:00:00	2024-11-08T08:00:00	4	Temperatura máxima	20.9
106091	7	Sololá	704	Santa Lucía Utatlán 	7	Santa Rita 	7	Julio	2023-07-18T00:00:00	2024-11-08T08:00:00	3	Temperatura mínima	19.8
106092	7	Sololá	704	Santa Lucía Utatlán 	7	Santa Rita 	7	Julio	2023-07-18T00:00:00	2024-11-08T08:00:00	5	Humedad	69
106093	7	Sololá	704	Santa Lucía Utatlán 	7	Santa Rita 	7	Julio	2023-07-18T00:00:00	2024-11-08T08:00:00	6	Velocidad del viento	9.7
106094	7	Sololá	704	Santa Lucía Utatlán 	7	Santa Rita 	7	Julio	2023-07-18T00:00:00	2024-11-08T08:00:00	7	Dirección del viento	9.66
106095	7	Sololá	704	Santa Lucía Utatlán 	7	Santa Rita 	7	Julio	2023-07-18T00:00:00	2024-11-08T08:00:00	1	Precipitación	0
106096	7	Sololá	704	Santa Lucía Utatlán 	7	Santa Rita 	7	Julio	2023-07-18T00:00:00	2024-11-08T08:00:00	8	Radiación solar	393
106097	7	Sololá	704	Santa Lucía Utatlán 	7	Santa Rita 	7	Julio	2023-07-18T00:00:00	2024-11-08T09:00:00	2	Temperatura media	22.7
106098	7	Sololá	704	Santa Lucía Utatlán 	7	Santa Rita 	7	Julio	2023-07-18T00:00:00	2024-11-08T09:00:00	4	Temperatura máxima	22.7
106099	7	Sololá	704	Santa Lucía Utatlán 	7	Santa Rita 	7	Julio	2023-07-18T00:00:00	2024-11-08T09:00:00	3	Temperatura mínima	20.8
106100	7	Sololá	704	Santa Lucía Utatlán 	7	Santa Rita 	7	Julio	2023-07-18T00:00:00	2024-11-08T09:00:00	5	Humedad	57
106101	7	Sololá	704	Santa Lucía Utatlán 	7	Santa Rita 	7	Julio	2023-07-18T00:00:00	2024-11-08T09:00:00	6	Velocidad del viento	12.9
106102	7	Sololá	704	Santa Lucía Utatlán 	7	Santa Rita 	7	Julio	2023-07-18T00:00:00	2024-11-08T09:00:00	7	Dirección del viento	12.87
106103	7	Sololá	704	Santa Lucía Utatlán 	7	Santa Rita 	7	Julio	2023-07-18T00:00:00	2024-11-08T09:00:00	1	Precipitación	0
106104	7	Sololá	704	Santa Lucía Utatlán 	7	Santa Rita 	7	Julio	2023-07-18T00:00:00	2024-11-08T09:00:00	8	Radiación solar	608
106105	7	Sololá	704	Santa Lucía Utatlán 	7	Santa Rita 	7	Julio	2023-07-18T00:00:00	2024-11-08T10:00:00	2	Temperatura media	23.3
106106	7	Sololá	704	Santa Lucía Utatlán 	7	Santa Rita 	7	Julio	2023-07-18T00:00:00	2024-11-08T10:00:00	4	Temperatura máxima	23.3
106107	7	Sololá	704	Santa Lucía Utatlán 	7	Santa Rita 	7	Julio	2023-07-18T00:00:00	2024-11-08T10:00:00	3	Temperatura mínima	22.6
106108	7	Sololá	704	Santa Lucía Utatlán 	7	Santa Rita 	7	Julio	2023-07-18T00:00:00	2024-11-08T10:00:00	5	Humedad	52
106109	7	Sololá	704	Santa Lucía Utatlán 	7	Santa Rita 	7	Julio	2023-07-18T00:00:00	2024-11-08T10:00:00	6	Velocidad del viento	11.3
106110	7	Sololá	704	Santa Lucía Utatlán 	7	Santa Rita 	7	Julio	2023-07-18T00:00:00	2024-11-08T10:00:00	7	Dirección del viento	11.27
106111	7	Sololá	704	Santa Lucía Utatlán 	7	Santa Rita 	7	Julio	2023-07-18T00:00:00	2024-11-08T10:00:00	1	Precipitación	0
106112	7	Sololá	704	Santa Lucía Utatlán 	7	Santa Rita 	7	Julio	2023-07-18T00:00:00	2024-11-08T10:00:00	8	Radiación solar	798
106113	7	Sololá	704	Santa Lucía Utatlán 	7	Santa Rita 	7	Julio	2023-07-18T00:00:00	2024-11-08T11:00:00	2	Temperatura media	23.3
106114	7	Sololá	704	Santa Lucía Utatlán 	7	Santa Rita 	7	Julio	2023-07-18T00:00:00	2024-11-08T11:00:00	4	Temperatura máxima	23.8
106115	7	Sololá	704	Santa Lucía Utatlán 	7	Santa Rita 	7	Julio	2023-07-18T00:00:00	2024-11-08T11:00:00	3	Temperatura mínima	23.3
106116	7	Sololá	704	Santa Lucía Utatlán 	7	Santa Rita 	7	Julio	2023-07-18T00:00:00	2024-11-08T11:00:00	5	Humedad	49
106117	7	Sololá	704	Santa Lucía Utatlán 	7	Santa Rita 	7	Julio	2023-07-18T00:00:00	2024-11-08T11:00:00	6	Velocidad del viento	12.9
106118	7	Sololá	704	Santa Lucía Utatlán 	7	Santa Rita 	7	Julio	2023-07-18T00:00:00	2024-11-08T11:00:00	7	Dirección del viento	12.87
106119	7	Sololá	704	Santa Lucía Utatlán 	7	Santa Rita 	7	Julio	2023-07-18T00:00:00	2024-11-08T11:00:00	1	Precipitación	0
106120	7	Sololá	704	Santa Lucía Utatlán 	7	Santa Rita 	7	Julio	2023-07-18T00:00:00	2024-11-08T11:00:00	8	Radiación solar	935
106121	7	Sololá	704	Santa Lucía Utatlán 	7	Santa Rita 	7	Julio	2023-07-18T00:00:00	2024-11-08T12:00:00	2	Temperatura media	23.3
106122	7	Sololá	704	Santa Lucía Utatlán 	7	Santa Rita 	7	Julio	2023-07-18T00:00:00	2024-11-08T12:00:00	4	Temperatura máxima	24.1
106123	7	Sololá	704	Santa Lucía Utatlán 	7	Santa Rita 	7	Julio	2023-07-18T00:00:00	2024-11-08T12:00:00	3	Temperatura mínima	23.2
106124	7	Sololá	704	Santa Lucía Utatlán 	7	Santa Rita 	7	Julio	2023-07-18T00:00:00	2024-11-08T12:00:00	5	Humedad	59
106125	7	Sololá	704	Santa Lucía Utatlán 	7	Santa Rita 	7	Julio	2023-07-18T00:00:00	2024-11-08T12:00:00	6	Velocidad del viento	12.9
106126	7	Sololá	704	Santa Lucía Utatlán 	7	Santa Rita 	7	Julio	2023-07-18T00:00:00	2024-11-08T12:00:00	7	Dirección del viento	12.87
106127	7	Sololá	704	Santa Lucía Utatlán 	7	Santa Rita 	7	Julio	2023-07-18T00:00:00	2024-11-08T12:00:00	1	Precipitación	0
106128	7	Sololá	704	Santa Lucía Utatlán 	7	Santa Rita 	7	Julio	2023-07-18T00:00:00	2024-11-08T12:00:00	8	Radiación solar	1014
106129	7	Sololá	704	Santa Lucía Utatlán 	7	Santa Rita 	7	Julio	2023-07-18T00:00:00	2024-11-08T13:00:00	2	Temperatura media	24.7
106130	7	Sololá	704	Santa Lucía Utatlán 	7	Santa Rita 	7	Julio	2023-07-18T00:00:00	2024-11-08T13:00:00	4	Temperatura máxima	24.7
106131	7	Sololá	704	Santa Lucía Utatlán 	7	Santa Rita 	7	Julio	2023-07-18T00:00:00	2024-11-08T13:00:00	3	Temperatura mínima	23.3
106132	7	Sololá	704	Santa Lucía Utatlán 	7	Santa Rita 	7	Julio	2023-07-18T00:00:00	2024-11-08T13:00:00	5	Humedad	51
106133	7	Sololá	704	Santa Lucía Utatlán 	7	Santa Rita 	7	Julio	2023-07-18T00:00:00	2024-11-08T13:00:00	6	Velocidad del viento	9.7
106134	7	Sololá	704	Santa Lucía Utatlán 	7	Santa Rita 	7	Julio	2023-07-18T00:00:00	2024-11-08T13:00:00	7	Dirección del viento	9.66
106135	7	Sololá	704	Santa Lucía Utatlán 	7	Santa Rita 	7	Julio	2023-07-18T00:00:00	2024-11-08T13:00:00	1	Precipitación	0
106136	7	Sololá	704	Santa Lucía Utatlán 	7	Santa Rita 	7	Julio	2023-07-18T00:00:00	2024-11-08T13:00:00	8	Radiación solar	1049
106137	7	Sololá	704	Santa Lucía Utatlán 	7	Santa Rita 	7	Julio	2023-07-18T00:00:00	2024-11-08T14:00:00	2	Temperatura media	24.6
106138	7	Sololá	704	Santa Lucía Utatlán 	7	Santa Rita 	7	Julio	2023-07-18T00:00:00	2024-11-08T14:00:00	4	Temperatura máxima	25.1
106139	7	Sololá	704	Santa Lucía Utatlán 	7	Santa Rita 	7	Julio	2023-07-18T00:00:00	2024-11-08T14:00:00	3	Temperatura mínima	24.3
106140	7	Sololá	704	Santa Lucía Utatlán 	7	Santa Rita 	7	Julio	2023-07-18T00:00:00	2024-11-08T14:00:00	5	Humedad	54
106141	7	Sololá	704	Santa Lucía Utatlán 	7	Santa Rita 	7	Julio	2023-07-18T00:00:00	2024-11-08T14:00:00	6	Velocidad del viento	12.9
106142	7	Sololá	704	Santa Lucía Utatlán 	7	Santa Rita 	7	Julio	2023-07-18T00:00:00	2024-11-08T14:00:00	7	Dirección del viento	12.87
106143	7	Sololá	704	Santa Lucía Utatlán 	7	Santa Rita 	7	Julio	2023-07-18T00:00:00	2024-11-08T14:00:00	1	Precipitación	0
106144	7	Sololá	704	Santa Lucía Utatlán 	7	Santa Rita 	7	Julio	2023-07-18T00:00:00	2024-11-08T14:00:00	8	Radiación solar	974
106145	7	Sololá	704	Santa Lucía Utatlán 	7	Santa Rita 	7	Julio	2023-07-18T00:00:00	2024-11-08T15:00:00	2	Temperatura media	24.1
106146	7	Sololá	704	Santa Lucía Utatlán 	7	Santa Rita 	7	Julio	2023-07-18T00:00:00	2024-11-08T15:00:00	4	Temperatura máxima	24.9
106147	7	Sololá	704	Santa Lucía Utatlán 	7	Santa Rita 	7	Julio	2023-07-18T00:00:00	2024-11-08T15:00:00	3	Temperatura mínima	23.9
106148	7	Sololá	704	Santa Lucía Utatlán 	7	Santa Rita 	7	Julio	2023-07-18T00:00:00	2024-11-08T15:00:00	5	Humedad	55
106149	7	Sololá	704	Santa Lucía Utatlán 	7	Santa Rita 	7	Julio	2023-07-18T00:00:00	2024-11-08T15:00:00	6	Velocidad del viento	9.7
106150	7	Sololá	704	Santa Lucía Utatlán 	7	Santa Rita 	7	Julio	2023-07-18T00:00:00	2024-11-08T15:00:00	7	Dirección del viento	9.66
106151	7	Sololá	704	Santa Lucía Utatlán 	7	Santa Rita 	7	Julio	2023-07-18T00:00:00	2024-11-08T15:00:00	1	Precipitación	0
106152	7	Sololá	704	Santa Lucía Utatlán 	7	Santa Rita 	7	Julio	2023-07-18T00:00:00	2024-11-08T15:00:00	8	Radiación solar	650
106153	7	Sololá	704	Santa Lucía Utatlán 	7	Santa Rita 	7	Julio	2023-07-18T00:00:00	2024-11-08T16:00:00	2	Temperatura media	24.3
106154	7	Sololá	704	Santa Lucía Utatlán 	7	Santa Rita 	7	Julio	2023-07-18T00:00:00	2024-11-08T16:00:00	4	Temperatura máxima	24.6
106155	7	Sololá	704	Santa Lucía Utatlán 	7	Santa Rita 	7	Julio	2023-07-18T00:00:00	2024-11-08T16:00:00	3	Temperatura mínima	23.5
106156	7	Sololá	704	Santa Lucía Utatlán 	7	Santa Rita 	7	Julio	2023-07-18T00:00:00	2024-11-08T16:00:00	5	Humedad	52
106157	7	Sololá	704	Santa Lucía Utatlán 	7	Santa Rita 	7	Julio	2023-07-18T00:00:00	2024-11-08T16:00:00	6	Velocidad del viento	11.3
106158	7	Sololá	704	Santa Lucía Utatlán 	7	Santa Rita 	7	Julio	2023-07-18T00:00:00	2024-11-08T16:00:00	7	Dirección del viento	11.27
106159	7	Sololá	704	Santa Lucía Utatlán 	7	Santa Rita 	7	Julio	2023-07-18T00:00:00	2024-11-08T16:00:00	1	Precipitación	0
106160	7	Sololá	704	Santa Lucía Utatlán 	7	Santa Rita 	7	Julio	2023-07-18T00:00:00	2024-11-08T16:00:00	8	Radiación solar	536
106161	7	Sololá	704	Santa Lucía Utatlán 	7	Santa Rita 	7	Julio	2023-07-18T00:00:00	2024-11-08T17:00:00	2	Temperatura media	22.9
106162	7	Sololá	704	Santa Lucía Utatlán 	7	Santa Rita 	7	Julio	2023-07-18T00:00:00	2024-11-08T17:00:00	4	Temperatura máxima	24.3
106163	7	Sololá	704	Santa Lucía Utatlán 	7	Santa Rita 	7	Julio	2023-07-18T00:00:00	2024-11-08T17:00:00	3	Temperatura mínima	22.6
106164	7	Sololá	704	Santa Lucía Utatlán 	7	Santa Rita 	7	Julio	2023-07-18T00:00:00	2024-11-08T17:00:00	5	Humedad	64
106165	7	Sololá	704	Santa Lucía Utatlán 	7	Santa Rita 	7	Julio	2023-07-18T00:00:00	2024-11-08T17:00:00	6	Velocidad del viento	9.7
106166	7	Sololá	704	Santa Lucía Utatlán 	7	Santa Rita 	7	Julio	2023-07-18T00:00:00	2024-11-08T17:00:00	7	Dirección del viento	9.66
106167	7	Sololá	704	Santa Lucía Utatlán 	7	Santa Rita 	7	Julio	2023-07-18T00:00:00	2024-11-08T17:00:00	1	Precipitación	0
106168	7	Sololá	704	Santa Lucía Utatlán 	7	Santa Rita 	7	Julio	2023-07-18T00:00:00	2024-11-08T17:00:00	8	Radiación solar	209
106169	7	Sololá	704	Santa Lucía Utatlán 	7	Santa Rita 	7	Julio	2023-07-18T00:00:00	2024-11-08T18:00:00	2	Temperatura media	22
106170	7	Sololá	704	Santa Lucía Utatlán 	7	Santa Rita 	7	Julio	2023-07-18T00:00:00	2024-11-08T18:00:00	4	Temperatura máxima	22.9
106171	7	Sololá	704	Santa Lucía Utatlán 	7	Santa Rita 	7	Julio	2023-07-18T00:00:00	2024-11-08T18:00:00	3	Temperatura mínima	22
106172	7	Sololá	704	Santa Lucía Utatlán 	7	Santa Rita 	7	Julio	2023-07-18T00:00:00	2024-11-08T18:00:00	5	Humedad	64
106173	7	Sololá	704	Santa Lucía Utatlán 	7	Santa Rita 	7	Julio	2023-07-18T00:00:00	2024-11-08T18:00:00	6	Velocidad del viento	6.4
106174	7	Sololá	704	Santa Lucía Utatlán 	7	Santa Rita 	7	Julio	2023-07-18T00:00:00	2024-11-08T18:00:00	7	Dirección del viento	6.44
106175	7	Sololá	704	Santa Lucía Utatlán 	7	Santa Rita 	7	Julio	2023-07-18T00:00:00	2024-11-08T18:00:00	1	Precipitación	0
106176	7	Sololá	704	Santa Lucía Utatlán 	7	Santa Rita 	7	Julio	2023-07-18T00:00:00	2024-11-08T18:00:00	8	Radiación solar	91
106177	7	Sololá	704	Santa Lucía Utatlán 	7	Santa Rita 	7	Julio	2023-07-18T00:00:00	2024-11-08T19:00:00	2	Temperatura media	20.3
106178	7	Sololá	704	Santa Lucía Utatlán 	7	Santa Rita 	7	Julio	2023-07-18T00:00:00	2024-11-08T19:00:00	4	Temperatura máxima	22
106179	7	Sololá	704	Santa Lucía Utatlán 	7	Santa Rita 	7	Julio	2023-07-18T00:00:00	2024-11-08T19:00:00	3	Temperatura mínima	20.3
106180	7	Sololá	704	Santa Lucía Utatlán 	7	Santa Rita 	7	Julio	2023-07-18T00:00:00	2024-11-08T19:00:00	5	Humedad	73
106181	7	Sololá	704	Santa Lucía Utatlán 	7	Santa Rita 	7	Julio	2023-07-18T00:00:00	2024-11-08T19:00:00	6	Velocidad del viento	3.2
106182	7	Sololá	704	Santa Lucía Utatlán 	7	Santa Rita 	7	Julio	2023-07-18T00:00:00	2024-11-08T19:00:00	7	Dirección del viento	3.22
106183	7	Sololá	704	Santa Lucía Utatlán 	7	Santa Rita 	7	Julio	2023-07-18T00:00:00	2024-11-08T19:00:00	1	Precipitación	0
106184	7	Sololá	704	Santa Lucía Utatlán 	7	Santa Rita 	7	Julio	2023-07-18T00:00:00	2024-11-08T19:00:00	8	Radiación solar	0
106185	7	Sololá	704	Santa Lucía Utatlán 	7	Santa Rita 	7	Julio	2023-07-18T00:00:00	2024-11-08T20:00:00	2	Temperatura media	19.4
106186	7	Sololá	704	Santa Lucía Utatlán 	7	Santa Rita 	7	Julio	2023-07-18T00:00:00	2024-11-08T20:00:00	4	Temperatura máxima	20.3
106187	7	Sololá	704	Santa Lucía Utatlán 	7	Santa Rita 	7	Julio	2023-07-18T00:00:00	2024-11-08T20:00:00	3	Temperatura mínima	19.2
106188	7	Sololá	704	Santa Lucía Utatlán 	7	Santa Rita 	7	Julio	2023-07-18T00:00:00	2024-11-08T20:00:00	5	Humedad	78
106189	7	Sololá	704	Santa Lucía Utatlán 	7	Santa Rita 	7	Julio	2023-07-18T00:00:00	2024-11-08T20:00:00	6	Velocidad del viento	3.2
106190	7	Sololá	704	Santa Lucía Utatlán 	7	Santa Rita 	7	Julio	2023-07-18T00:00:00	2024-11-08T20:00:00	7	Dirección del viento	3.22
106191	7	Sololá	704	Santa Lucía Utatlán 	7	Santa Rita 	7	Julio	2023-07-18T00:00:00	2024-11-08T20:00:00	1	Precipitación	0
106192	7	Sololá	704	Santa Lucía Utatlán 	7	Santa Rita 	7	Julio	2023-07-18T00:00:00	2024-11-08T20:00:00	8	Radiación solar	0
106193	7	Sololá	704	Santa Lucía Utatlán 	7	Santa Rita 	7	Julio	2023-07-18T00:00:00	2024-11-08T21:00:00	2	Temperatura media	18.7
106194	7	Sololá	704	Santa Lucía Utatlán 	7	Santa Rita 	7	Julio	2023-07-18T00:00:00	2024-11-08T21:00:00	4	Temperatura máxima	19.4
106195	7	Sololá	704	Santa Lucía Utatlán 	7	Santa Rita 	7	Julio	2023-07-18T00:00:00	2024-11-08T21:00:00	3	Temperatura mínima	18.6
106196	7	Sololá	704	Santa Lucía Utatlán 	7	Santa Rita 	7	Julio	2023-07-18T00:00:00	2024-11-08T21:00:00	5	Humedad	79
106197	7	Sololá	704	Santa Lucía Utatlán 	7	Santa Rita 	7	Julio	2023-07-18T00:00:00	2024-11-08T21:00:00	6	Velocidad del viento	1.6
106198	7	Sololá	704	Santa Lucía Utatlán 	7	Santa Rita 	7	Julio	2023-07-18T00:00:00	2024-11-08T21:00:00	7	Dirección del viento	1.61
106199	7	Sololá	704	Santa Lucía Utatlán 	7	Santa Rita 	7	Julio	2023-07-18T00:00:00	2024-11-08T21:00:00	1	Precipitación	0
106200	7	Sololá	704	Santa Lucía Utatlán 	7	Santa Rita 	7	Julio	2023-07-18T00:00:00	2024-11-08T21:00:00	8	Radiación solar	0
106201	7	Sololá	704	Santa Lucía Utatlán 	7	Santa Rita 	7	Julio	2023-07-18T00:00:00	2024-11-08T22:00:00	2	Temperatura media	18.7
106202	7	Sololá	704	Santa Lucía Utatlán 	7	Santa Rita 	7	Julio	2023-07-18T00:00:00	2024-11-08T22:00:00	4	Temperatura máxima	19.3
106203	7	Sololá	704	Santa Lucía Utatlán 	7	Santa Rita 	7	Julio	2023-07-18T00:00:00	2024-11-08T22:00:00	3	Temperatura mínima	18.6
106204	7	Sololá	704	Santa Lucía Utatlán 	7	Santa Rita 	7	Julio	2023-07-18T00:00:00	2024-11-08T22:00:00	5	Humedad	69
106205	7	Sololá	704	Santa Lucía Utatlán 	7	Santa Rita 	7	Julio	2023-07-18T00:00:00	2024-11-08T22:00:00	6	Velocidad del viento	4.8
106206	7	Sololá	704	Santa Lucía Utatlán 	7	Santa Rita 	7	Julio	2023-07-18T00:00:00	2024-11-08T22:00:00	7	Dirección del viento	4.83
106207	7	Sololá	704	Santa Lucía Utatlán 	7	Santa Rita 	7	Julio	2023-07-18T00:00:00	2024-11-08T22:00:00	1	Precipitación	0
106208	7	Sololá	704	Santa Lucía Utatlán 	7	Santa Rita 	7	Julio	2023-07-18T00:00:00	2024-11-08T22:00:00	8	Radiación solar	0
106209	7	Sololá	704	Santa Lucía Utatlán 	7	Santa Rita 	7	Julio	2023-07-18T00:00:00	2024-11-08T23:00:00	2	Temperatura media	19.3
106210	7	Sololá	704	Santa Lucía Utatlán 	7	Santa Rita 	7	Julio	2023-07-18T00:00:00	2024-11-08T23:00:00	4	Temperatura máxima	19.3
106211	7	Sololá	704	Santa Lucía Utatlán 	7	Santa Rita 	7	Julio	2023-07-18T00:00:00	2024-11-08T23:00:00	3	Temperatura mínima	18.3
106212	7	Sololá	704	Santa Lucía Utatlán 	7	Santa Rita 	7	Julio	2023-07-18T00:00:00	2024-11-08T23:00:00	5	Humedad	70
106213	7	Sololá	704	Santa Lucía Utatlán 	7	Santa Rita 	7	Julio	2023-07-18T00:00:00	2024-11-08T23:00:00	6	Velocidad del viento	6.4
106214	7	Sololá	704	Santa Lucía Utatlán 	7	Santa Rita 	7	Julio	2023-07-18T00:00:00	2024-11-08T23:00:00	7	Dirección del viento	6.44
106215	7	Sololá	704	Santa Lucía Utatlán 	7	Santa Rita 	7	Julio	2023-07-18T00:00:00	2024-11-08T23:00:00	1	Precipitación	0
106216	7	Sololá	704	Santa Lucía Utatlán 	7	Santa Rita 	7	Julio	2023-07-18T00:00:00	2024-11-08T23:00:00	8	Radiación solar	0
106217	7	Sololá	704	Santa Lucía Utatlán 	7	Santa Rita 	7	Julio	2023-07-19T00:00:00	2024-11-08T00:00:00	2	Temperatura media	19.4
106218	7	Sololá	704	Santa Lucía Utatlán 	7	Santa Rita 	7	Julio	2023-07-19T00:00:00	2024-11-08T00:00:00	4	Temperatura máxima	19.6
106219	7	Sololá	704	Santa Lucía Utatlán 	7	Santa Rita 	7	Julio	2023-07-19T00:00:00	2024-11-08T00:00:00	3	Temperatura mínima	19.2
106220	7	Sololá	704	Santa Lucía Utatlán 	7	Santa Rita 	7	Julio	2023-07-19T00:00:00	2024-11-08T00:00:00	5	Humedad	71
106221	7	Sololá	704	Santa Lucía Utatlán 	7	Santa Rita 	7	Julio	2023-07-19T00:00:00	2024-11-08T00:00:00	6	Velocidad del viento	6.4
106222	7	Sololá	704	Santa Lucía Utatlán 	7	Santa Rita 	7	Julio	2023-07-19T00:00:00	2024-11-08T00:00:00	7	Dirección del viento	6.44
106223	7	Sololá	704	Santa Lucía Utatlán 	7	Santa Rita 	7	Julio	2023-07-19T00:00:00	2024-11-08T00:00:00	1	Precipitación	0
106224	7	Sololá	704	Santa Lucía Utatlán 	7	Santa Rita 	7	Julio	2023-07-19T00:00:00	2024-11-08T00:00:00	8	Radiación solar	0
106225	7	Sololá	704	Santa Lucía Utatlán 	7	Santa Rita 	7	Julio	2023-07-19T00:00:00	2024-11-08T01:00:00	2	Temperatura media	19.4
106226	7	Sololá	704	Santa Lucía Utatlán 	7	Santa Rita 	7	Julio	2023-07-19T00:00:00	2024-11-08T01:00:00	4	Temperatura máxima	19.5
106227	7	Sololá	704	Santa Lucía Utatlán 	7	Santa Rita 	7	Julio	2023-07-19T00:00:00	2024-11-08T01:00:00	3	Temperatura mínima	19.2
106228	7	Sololá	704	Santa Lucía Utatlán 	7	Santa Rita 	7	Julio	2023-07-19T00:00:00	2024-11-08T01:00:00	5	Humedad	73
106229	7	Sololá	704	Santa Lucía Utatlán 	7	Santa Rita 	7	Julio	2023-07-19T00:00:00	2024-11-08T01:00:00	6	Velocidad del viento	11.3
106230	7	Sololá	704	Santa Lucía Utatlán 	7	Santa Rita 	7	Julio	2023-07-19T00:00:00	2024-11-08T01:00:00	7	Dirección del viento	11.27
106231	7	Sololá	704	Santa Lucía Utatlán 	7	Santa Rita 	7	Julio	2023-07-19T00:00:00	2024-11-08T01:00:00	1	Precipitación	0
106232	7	Sololá	704	Santa Lucía Utatlán 	7	Santa Rita 	7	Julio	2023-07-19T00:00:00	2024-11-08T01:00:00	8	Radiación solar	0
106233	7	Sololá	704	Santa Lucía Utatlán 	7	Santa Rita 	7	Julio	2023-07-19T00:00:00	2024-11-08T02:00:00	2	Temperatura media	19.4
106234	7	Sololá	704	Santa Lucía Utatlán 	7	Santa Rita 	7	Julio	2023-07-19T00:00:00	2024-11-08T02:00:00	4	Temperatura máxima	19.5
106235	7	Sololá	704	Santa Lucía Utatlán 	7	Santa Rita 	7	Julio	2023-07-19T00:00:00	2024-11-08T02:00:00	3	Temperatura mínima	18.9
106236	7	Sololá	704	Santa Lucía Utatlán 	7	Santa Rita 	7	Julio	2023-07-19T00:00:00	2024-11-08T02:00:00	5	Humedad	58
106237	7	Sololá	704	Santa Lucía Utatlán 	7	Santa Rita 	7	Julio	2023-07-19T00:00:00	2024-11-08T02:00:00	6	Velocidad del viento	12.9
106238	7	Sololá	704	Santa Lucía Utatlán 	7	Santa Rita 	7	Julio	2023-07-19T00:00:00	2024-11-08T02:00:00	7	Dirección del viento	12.87
106239	7	Sololá	704	Santa Lucía Utatlán 	7	Santa Rita 	7	Julio	2023-07-19T00:00:00	2024-11-08T02:00:00	1	Precipitación	0
106240	7	Sololá	704	Santa Lucía Utatlán 	7	Santa Rita 	7	Julio	2023-07-19T00:00:00	2024-11-08T02:00:00	8	Radiación solar	0
106241	7	Sololá	704	Santa Lucía Utatlán 	7	Santa Rita 	7	Julio	2023-07-19T00:00:00	2024-11-08T03:00:00	2	Temperatura media	19.3
106242	7	Sololá	704	Santa Lucía Utatlán 	7	Santa Rita 	7	Julio	2023-07-19T00:00:00	2024-11-08T03:00:00	4	Temperatura máxima	19.7
106243	7	Sololá	704	Santa Lucía Utatlán 	7	Santa Rita 	7	Julio	2023-07-19T00:00:00	2024-11-08T03:00:00	3	Temperatura mínima	18.8
106244	7	Sololá	704	Santa Lucía Utatlán 	7	Santa Rita 	7	Julio	2023-07-19T00:00:00	2024-11-08T03:00:00	5	Humedad	53
106245	7	Sololá	704	Santa Lucía Utatlán 	7	Santa Rita 	7	Julio	2023-07-19T00:00:00	2024-11-08T03:00:00	6	Velocidad del viento	9.7
106246	7	Sololá	704	Santa Lucía Utatlán 	7	Santa Rita 	7	Julio	2023-07-19T00:00:00	2024-11-08T03:00:00	7	Dirección del viento	9.66
106247	7	Sololá	704	Santa Lucía Utatlán 	7	Santa Rita 	7	Julio	2023-07-19T00:00:00	2024-11-08T03:00:00	1	Precipitación	0
106248	7	Sololá	704	Santa Lucía Utatlán 	7	Santa Rita 	7	Julio	2023-07-19T00:00:00	2024-11-08T03:00:00	8	Radiación solar	0
106249	7	Sololá	704	Santa Lucía Utatlán 	7	Santa Rita 	7	Julio	2023-07-19T00:00:00	2024-11-08T04:00:00	2	Temperatura media	18.1
106250	7	Sololá	704	Santa Lucía Utatlán 	7	Santa Rita 	7	Julio	2023-07-19T00:00:00	2024-11-08T04:00:00	4	Temperatura máxima	19.3
106251	7	Sololá	704	Santa Lucía Utatlán 	7	Santa Rita 	7	Julio	2023-07-19T00:00:00	2024-11-08T04:00:00	3	Temperatura mínima	17.6
106252	7	Sololá	704	Santa Lucía Utatlán 	7	Santa Rita 	7	Julio	2023-07-19T00:00:00	2024-11-08T04:00:00	5	Humedad	60
106253	7	Sololá	704	Santa Lucía Utatlán 	7	Santa Rita 	7	Julio	2023-07-19T00:00:00	2024-11-08T04:00:00	6	Velocidad del viento	3.2
106254	7	Sololá	704	Santa Lucía Utatlán 	7	Santa Rita 	7	Julio	2023-07-19T00:00:00	2024-11-08T04:00:00	7	Dirección del viento	3.22
106255	7	Sololá	704	Santa Lucía Utatlán 	7	Santa Rita 	7	Julio	2023-07-19T00:00:00	2024-11-08T04:00:00	1	Precipitación	0
106256	7	Sololá	704	Santa Lucía Utatlán 	7	Santa Rita 	7	Julio	2023-07-19T00:00:00	2024-11-08T04:00:00	8	Radiación solar	0
106257	7	Sololá	704	Santa Lucía Utatlán 	7	Santa Rita 	7	Julio	2023-07-19T00:00:00	2024-11-08T05:00:00	2	Temperatura media	19.2
106258	7	Sololá	704	Santa Lucía Utatlán 	7	Santa Rita 	7	Julio	2023-07-19T00:00:00	2024-11-08T05:00:00	4	Temperatura máxima	19.2
106259	7	Sololá	704	Santa Lucía Utatlán 	7	Santa Rita 	7	Julio	2023-07-19T00:00:00	2024-11-08T05:00:00	3	Temperatura mínima	17.5
106260	7	Sololá	704	Santa Lucía Utatlán 	7	Santa Rita 	7	Julio	2023-07-19T00:00:00	2024-11-08T05:00:00	5	Humedad	64
106261	7	Sololá	704	Santa Lucía Utatlán 	7	Santa Rita 	7	Julio	2023-07-19T00:00:00	2024-11-08T05:00:00	6	Velocidad del viento	6.4
106262	7	Sololá	704	Santa Lucía Utatlán 	7	Santa Rita 	7	Julio	2023-07-19T00:00:00	2024-11-08T05:00:00	7	Dirección del viento	6.44
106263	7	Sololá	704	Santa Lucía Utatlán 	7	Santa Rita 	7	Julio	2023-07-19T00:00:00	2024-11-08T05:00:00	1	Precipitación	0
106264	7	Sololá	704	Santa Lucía Utatlán 	7	Santa Rita 	7	Julio	2023-07-19T00:00:00	2024-11-08T05:00:00	8	Radiación solar	0
106265	7	Sololá	704	Santa Lucía Utatlán 	7	Santa Rita 	7	Julio	2023-07-19T00:00:00	2024-11-08T06:00:00	2	Temperatura media	18.9
106266	7	Sololá	704	Santa Lucía Utatlán 	7	Santa Rita 	7	Julio	2023-07-19T00:00:00	2024-11-08T06:00:00	4	Temperatura máxima	19.3
106267	7	Sololá	704	Santa Lucía Utatlán 	7	Santa Rita 	7	Julio	2023-07-19T00:00:00	2024-11-08T06:00:00	3	Temperatura mínima	17.9
106268	7	Sololá	704	Santa Lucía Utatlán 	7	Santa Rita 	7	Julio	2023-07-19T00:00:00	2024-11-08T06:00:00	5	Humedad	71
106269	7	Sololá	704	Santa Lucía Utatlán 	7	Santa Rita 	7	Julio	2023-07-19T00:00:00	2024-11-08T06:00:00	6	Velocidad del viento	6.4
106270	7	Sololá	704	Santa Lucía Utatlán 	7	Santa Rita 	7	Julio	2023-07-19T00:00:00	2024-11-08T06:00:00	7	Dirección del viento	6.44
106271	7	Sololá	704	Santa Lucía Utatlán 	7	Santa Rita 	7	Julio	2023-07-19T00:00:00	2024-11-08T06:00:00	1	Precipitación	0
106272	7	Sololá	704	Santa Lucía Utatlán 	7	Santa Rita 	7	Julio	2023-07-19T00:00:00	2024-11-08T06:00:00	8	Radiación solar	3
106273	7	Sololá	704	Santa Lucía Utatlán 	7	Santa Rita 	7	Julio	2023-07-19T00:00:00	2024-11-08T07:00:00	2	Temperatura media	19.6
106274	7	Sololá	704	Santa Lucía Utatlán 	7	Santa Rita 	7	Julio	2023-07-19T00:00:00	2024-11-08T07:00:00	4	Temperatura máxima	19.7
106275	7	Sololá	704	Santa Lucía Utatlán 	7	Santa Rita 	7	Julio	2023-07-19T00:00:00	2024-11-08T07:00:00	3	Temperatura mínima	18.8
106276	7	Sololá	704	Santa Lucía Utatlán 	7	Santa Rita 	7	Julio	2023-07-19T00:00:00	2024-11-08T07:00:00	5	Humedad	75
106277	7	Sololá	704	Santa Lucía Utatlán 	7	Santa Rita 	7	Julio	2023-07-19T00:00:00	2024-11-08T07:00:00	6	Velocidad del viento	4.8
106278	7	Sololá	704	Santa Lucía Utatlán 	7	Santa Rita 	7	Julio	2023-07-19T00:00:00	2024-11-08T07:00:00	7	Dirección del viento	4.83
106279	7	Sololá	704	Santa Lucía Utatlán 	7	Santa Rita 	7	Julio	2023-07-19T00:00:00	2024-11-08T07:00:00	1	Precipitación	0
106280	7	Sololá	704	Santa Lucía Utatlán 	7	Santa Rita 	7	Julio	2023-07-19T00:00:00	2024-11-08T07:00:00	8	Radiación solar	82
106281	7	Sololá	704	Santa Lucía Utatlán 	7	Santa Rita 	7	Julio	2023-07-19T00:00:00	2024-11-08T08:00:00	2	Temperatura media	20.6
106282	7	Sololá	704	Santa Lucía Utatlán 	7	Santa Rita 	7	Julio	2023-07-19T00:00:00	2024-11-08T08:00:00	4	Temperatura máxima	20.6
106283	7	Sololá	704	Santa Lucía Utatlán 	7	Santa Rita 	7	Julio	2023-07-19T00:00:00	2024-11-08T08:00:00	3	Temperatura mínima	19.6
106284	7	Sololá	704	Santa Lucía Utatlán 	7	Santa Rita 	7	Julio	2023-07-19T00:00:00	2024-11-08T08:00:00	5	Humedad	75
106285	7	Sololá	704	Santa Lucía Utatlán 	7	Santa Rita 	7	Julio	2023-07-19T00:00:00	2024-11-08T08:00:00	6	Velocidad del viento	9.7
106286	7	Sololá	704	Santa Lucía Utatlán 	7	Santa Rita 	7	Julio	2023-07-19T00:00:00	2024-11-08T08:00:00	7	Dirección del viento	9.66
106287	7	Sololá	704	Santa Lucía Utatlán 	7	Santa Rita 	7	Julio	2023-07-19T00:00:00	2024-11-08T08:00:00	1	Precipitación	0
106288	7	Sololá	704	Santa Lucía Utatlán 	7	Santa Rita 	7	Julio	2023-07-19T00:00:00	2024-11-08T08:00:00	8	Radiación solar	261
106289	7	Sololá	704	Santa Lucía Utatlán 	7	Santa Rita 	7	Julio	2023-07-19T00:00:00	2024-11-08T09:00:00	2	Temperatura media	21.3
106290	7	Sololá	704	Santa Lucía Utatlán 	7	Santa Rita 	7	Julio	2023-07-19T00:00:00	2024-11-08T09:00:00	4	Temperatura máxima	21.7
106291	7	Sololá	704	Santa Lucía Utatlán 	7	Santa Rita 	7	Julio	2023-07-19T00:00:00	2024-11-08T09:00:00	3	Temperatura mínima	20.6
106292	7	Sololá	704	Santa Lucía Utatlán 	7	Santa Rita 	7	Julio	2023-07-19T00:00:00	2024-11-08T09:00:00	5	Humedad	69
106293	7	Sololá	704	Santa Lucía Utatlán 	7	Santa Rita 	7	Julio	2023-07-19T00:00:00	2024-11-08T09:00:00	6	Velocidad del viento	8
106294	7	Sololá	704	Santa Lucía Utatlán 	7	Santa Rita 	7	Julio	2023-07-19T00:00:00	2024-11-08T09:00:00	7	Dirección del viento	8.05
106295	7	Sololá	704	Santa Lucía Utatlán 	7	Santa Rita 	7	Julio	2023-07-19T00:00:00	2024-11-08T09:00:00	1	Precipitación	0
106296	7	Sololá	704	Santa Lucía Utatlán 	7	Santa Rita 	7	Julio	2023-07-19T00:00:00	2024-11-08T09:00:00	8	Radiación solar	527
106297	7	Sololá	704	Santa Lucía Utatlán 	7	Santa Rita 	7	Julio	2023-07-19T00:00:00	2024-11-08T10:00:00	2	Temperatura media	22.4
106298	7	Sololá	704	Santa Lucía Utatlán 	7	Santa Rita 	7	Julio	2023-07-19T00:00:00	2024-11-08T10:00:00	4	Temperatura máxima	22.6
106299	7	Sololá	704	Santa Lucía Utatlán 	7	Santa Rita 	7	Julio	2023-07-19T00:00:00	2024-11-08T10:00:00	3	Temperatura mínima	21.3
106300	7	Sololá	704	Santa Lucía Utatlán 	7	Santa Rita 	7	Julio	2023-07-19T00:00:00	2024-11-08T10:00:00	5	Humedad	60
106301	7	Sololá	704	Santa Lucía Utatlán 	7	Santa Rita 	7	Julio	2023-07-19T00:00:00	2024-11-08T10:00:00	6	Velocidad del viento	9.7
106302	7	Sololá	704	Santa Lucía Utatlán 	7	Santa Rita 	7	Julio	2023-07-19T00:00:00	2024-11-08T10:00:00	7	Dirección del viento	9.66
106303	7	Sololá	704	Santa Lucía Utatlán 	7	Santa Rita 	7	Julio	2023-07-19T00:00:00	2024-11-08T10:00:00	1	Precipitación	0
106304	7	Sololá	704	Santa Lucía Utatlán 	7	Santa Rita 	7	Julio	2023-07-19T00:00:00	2024-11-08T10:00:00	8	Radiación solar	617
106305	7	Sololá	704	Santa Lucía Utatlán 	7	Santa Rita 	7	Julio	2023-07-19T00:00:00	2024-11-08T11:00:00	2	Temperatura media	24.7
106306	7	Sololá	704	Santa Lucía Utatlán 	7	Santa Rita 	7	Julio	2023-07-19T00:00:00	2024-11-08T11:00:00	4	Temperatura máxima	24.9
106307	7	Sololá	704	Santa Lucía Utatlán 	7	Santa Rita 	7	Julio	2023-07-19T00:00:00	2024-11-08T11:00:00	3	Temperatura mínima	22.4
106308	7	Sololá	704	Santa Lucía Utatlán 	7	Santa Rita 	7	Julio	2023-07-19T00:00:00	2024-11-08T11:00:00	5	Humedad	54
106309	7	Sololá	704	Santa Lucía Utatlán 	7	Santa Rita 	7	Julio	2023-07-19T00:00:00	2024-11-08T11:00:00	6	Velocidad del viento	6.4
106310	7	Sololá	704	Santa Lucía Utatlán 	7	Santa Rita 	7	Julio	2023-07-19T00:00:00	2024-11-08T11:00:00	7	Dirección del viento	6.44
106311	7	Sololá	704	Santa Lucía Utatlán 	7	Santa Rita 	7	Julio	2023-07-19T00:00:00	2024-11-08T11:00:00	1	Precipitación	0
106312	7	Sololá	704	Santa Lucía Utatlán 	7	Santa Rita 	7	Julio	2023-07-19T00:00:00	2024-11-08T11:00:00	8	Radiación solar	924
106313	7	Sololá	704	Santa Lucía Utatlán 	7	Santa Rita 	7	Julio	2023-07-19T00:00:00	2024-11-08T12:00:00	2	Temperatura media	25.7
106314	7	Sololá	704	Santa Lucía Utatlán 	7	Santa Rita 	7	Julio	2023-07-19T00:00:00	2024-11-08T12:00:00	4	Temperatura máxima	25.8
106315	7	Sololá	704	Santa Lucía Utatlán 	7	Santa Rita 	7	Julio	2023-07-19T00:00:00	2024-11-08T12:00:00	3	Temperatura mínima	24.7
106316	7	Sololá	704	Santa Lucía Utatlán 	7	Santa Rita 	7	Julio	2023-07-19T00:00:00	2024-11-08T12:00:00	5	Humedad	54
106317	7	Sololá	704	Santa Lucía Utatlán 	7	Santa Rita 	7	Julio	2023-07-19T00:00:00	2024-11-08T12:00:00	6	Velocidad del viento	8
106318	7	Sololá	704	Santa Lucía Utatlán 	7	Santa Rita 	7	Julio	2023-07-19T00:00:00	2024-11-08T12:00:00	7	Dirección del viento	8.05
106319	7	Sololá	704	Santa Lucía Utatlán 	7	Santa Rita 	7	Julio	2023-07-19T00:00:00	2024-11-08T12:00:00	1	Precipitación	0
106320	7	Sololá	704	Santa Lucía Utatlán 	7	Santa Rita 	7	Julio	2023-07-19T00:00:00	2024-11-08T12:00:00	8	Radiación solar	1006
106321	7	Sololá	704	Santa Lucía Utatlán 	7	Santa Rita 	7	Julio	2023-07-19T00:00:00	2024-11-08T13:00:00	2	Temperatura media	25.3
106322	7	Sololá	704	Santa Lucía Utatlán 	7	Santa Rita 	7	Julio	2023-07-19T00:00:00	2024-11-08T13:00:00	4	Temperatura máxima	25.7
106323	7	Sololá	704	Santa Lucía Utatlán 	7	Santa Rita 	7	Julio	2023-07-19T00:00:00	2024-11-08T13:00:00	3	Temperatura mínima	24.6
106324	7	Sololá	704	Santa Lucía Utatlán 	7	Santa Rita 	7	Julio	2023-07-19T00:00:00	2024-11-08T13:00:00	5	Humedad	57
106325	7	Sololá	704	Santa Lucía Utatlán 	7	Santa Rita 	7	Julio	2023-07-19T00:00:00	2024-11-08T13:00:00	6	Velocidad del viento	11.3
106326	7	Sololá	704	Santa Lucía Utatlán 	7	Santa Rita 	7	Julio	2023-07-19T00:00:00	2024-11-08T13:00:00	7	Dirección del viento	11.27
106327	7	Sololá	704	Santa Lucía Utatlán 	7	Santa Rita 	7	Julio	2023-07-19T00:00:00	2024-11-08T13:00:00	1	Precipitación	0
106328	7	Sololá	704	Santa Lucía Utatlán 	7	Santa Rita 	7	Julio	2023-07-19T00:00:00	2024-11-08T13:00:00	8	Radiación solar	1015
106329	7	Sololá	704	Santa Lucía Utatlán 	7	Santa Rita 	7	Julio	2023-07-19T00:00:00	2024-11-08T14:00:00	2	Temperatura media	24.4
106330	7	Sololá	704	Santa Lucía Utatlán 	7	Santa Rita 	7	Julio	2023-07-19T00:00:00	2024-11-08T14:00:00	4	Temperatura máxima	25.7
106331	7	Sololá	704	Santa Lucía Utatlán 	7	Santa Rita 	7	Julio	2023-07-19T00:00:00	2024-11-08T14:00:00	3	Temperatura mínima	24.4
106332	7	Sololá	704	Santa Lucía Utatlán 	7	Santa Rita 	7	Julio	2023-07-19T00:00:00	2024-11-08T14:00:00	5	Humedad	61
106333	7	Sololá	704	Santa Lucía Utatlán 	7	Santa Rita 	7	Julio	2023-07-19T00:00:00	2024-11-08T14:00:00	6	Velocidad del viento	11.3
106334	7	Sololá	704	Santa Lucía Utatlán 	7	Santa Rita 	7	Julio	2023-07-19T00:00:00	2024-11-08T14:00:00	7	Dirección del viento	11.27
106335	7	Sololá	704	Santa Lucía Utatlán 	7	Santa Rita 	7	Julio	2023-07-19T00:00:00	2024-11-08T14:00:00	1	Precipitación	0
106336	7	Sololá	704	Santa Lucía Utatlán 	7	Santa Rita 	7	Julio	2023-07-19T00:00:00	2024-11-08T14:00:00	8	Radiación solar	765
106337	7	Sololá	704	Santa Lucía Utatlán 	7	Santa Rita 	7	Julio	2023-07-19T00:00:00	2024-11-08T15:00:00	2	Temperatura media	24.6
106338	7	Sololá	704	Santa Lucía Utatlán 	7	Santa Rita 	7	Julio	2023-07-19T00:00:00	2024-11-08T15:00:00	4	Temperatura máxima	25.2
106339	7	Sololá	704	Santa Lucía Utatlán 	7	Santa Rita 	7	Julio	2023-07-19T00:00:00	2024-11-08T15:00:00	3	Temperatura mínima	24.5
106340	7	Sololá	704	Santa Lucía Utatlán 	7	Santa Rita 	7	Julio	2023-07-19T00:00:00	2024-11-08T15:00:00	5	Humedad	62
106341	7	Sololá	704	Santa Lucía Utatlán 	7	Santa Rita 	7	Julio	2023-07-19T00:00:00	2024-11-08T15:00:00	6	Velocidad del viento	11.3
106342	7	Sololá	704	Santa Lucía Utatlán 	7	Santa Rita 	7	Julio	2023-07-19T00:00:00	2024-11-08T15:00:00	7	Dirección del viento	11.27
106343	7	Sololá	704	Santa Lucía Utatlán 	7	Santa Rita 	7	Julio	2023-07-19T00:00:00	2024-11-08T15:00:00	1	Precipitación	0
106344	7	Sololá	704	Santa Lucía Utatlán 	7	Santa Rita 	7	Julio	2023-07-19T00:00:00	2024-11-08T15:00:00	8	Radiación solar	644
106345	7	Sololá	704	Santa Lucía Utatlán 	7	Santa Rita 	7	Julio	2023-07-19T00:00:00	2024-11-08T16:00:00	2	Temperatura media	23.7
106346	7	Sololá	704	Santa Lucía Utatlán 	7	Santa Rita 	7	Julio	2023-07-19T00:00:00	2024-11-08T16:00:00	4	Temperatura máxima	24.7
106347	7	Sololá	704	Santa Lucía Utatlán 	7	Santa Rita 	7	Julio	2023-07-19T00:00:00	2024-11-08T16:00:00	3	Temperatura mínima	23.6
106348	7	Sololá	704	Santa Lucía Utatlán 	7	Santa Rita 	7	Julio	2023-07-19T00:00:00	2024-11-08T16:00:00	5	Humedad	64
106349	7	Sololá	704	Santa Lucía Utatlán 	7	Santa Rita 	7	Julio	2023-07-19T00:00:00	2024-11-08T16:00:00	6	Velocidad del viento	9.7
106350	7	Sololá	704	Santa Lucía Utatlán 	7	Santa Rita 	7	Julio	2023-07-19T00:00:00	2024-11-08T16:00:00	7	Dirección del viento	9.66
106351	7	Sololá	704	Santa Lucía Utatlán 	7	Santa Rita 	7	Julio	2023-07-19T00:00:00	2024-11-08T16:00:00	1	Precipitación	0
106352	7	Sololá	704	Santa Lucía Utatlán 	7	Santa Rita 	7	Julio	2023-07-19T00:00:00	2024-11-08T16:00:00	8	Radiación solar	276
106353	7	Sololá	704	Santa Lucía Utatlán 	7	Santa Rita 	7	Julio	2023-07-19T00:00:00	2024-11-08T17:00:00	2	Temperatura media	23.7
106354	7	Sololá	704	Santa Lucía Utatlán 	7	Santa Rita 	7	Julio	2023-07-19T00:00:00	2024-11-08T17:00:00	4	Temperatura máxima	24.1
106355	7	Sololá	704	Santa Lucía Utatlán 	7	Santa Rita 	7	Julio	2023-07-19T00:00:00	2024-11-08T17:00:00	3	Temperatura mínima	23.4
106356	7	Sololá	704	Santa Lucía Utatlán 	7	Santa Rita 	7	Julio	2023-07-19T00:00:00	2024-11-08T17:00:00	5	Humedad	65
106357	7	Sololá	704	Santa Lucía Utatlán 	7	Santa Rita 	7	Julio	2023-07-19T00:00:00	2024-11-08T17:00:00	6	Velocidad del viento	6.4
106358	7	Sololá	704	Santa Lucía Utatlán 	7	Santa Rita 	7	Julio	2023-07-19T00:00:00	2024-11-08T17:00:00	7	Dirección del viento	6.44
106359	7	Sololá	704	Santa Lucía Utatlán 	7	Santa Rita 	7	Julio	2023-07-19T00:00:00	2024-11-08T17:00:00	1	Precipitación	0
106360	7	Sololá	704	Santa Lucía Utatlán 	7	Santa Rita 	7	Julio	2023-07-19T00:00:00	2024-11-08T17:00:00	8	Radiación solar	283
106361	7	Sololá	704	Santa Lucía Utatlán 	7	Santa Rita 	7	Julio	2023-07-19T00:00:00	2024-11-08T18:00:00	2	Temperatura media	22.1
106362	7	Sololá	704	Santa Lucía Utatlán 	7	Santa Rita 	7	Julio	2023-07-19T00:00:00	2024-11-08T18:00:00	4	Temperatura máxima	24
106363	7	Sololá	704	Santa Lucía Utatlán 	7	Santa Rita 	7	Julio	2023-07-19T00:00:00	2024-11-08T18:00:00	3	Temperatura mínima	22.1
106364	7	Sololá	704	Santa Lucía Utatlán 	7	Santa Rita 	7	Julio	2023-07-19T00:00:00	2024-11-08T18:00:00	5	Humedad	71
106365	7	Sololá	704	Santa Lucía Utatlán 	7	Santa Rita 	7	Julio	2023-07-19T00:00:00	2024-11-08T18:00:00	6	Velocidad del viento	4.8
106366	7	Sololá	704	Santa Lucía Utatlán 	7	Santa Rita 	7	Julio	2023-07-19T00:00:00	2024-11-08T18:00:00	7	Dirección del viento	4.83
106367	7	Sololá	704	Santa Lucía Utatlán 	7	Santa Rita 	7	Julio	2023-07-19T00:00:00	2024-11-08T18:00:00	1	Precipitación	0
106368	7	Sololá	704	Santa Lucía Utatlán 	7	Santa Rita 	7	Julio	2023-07-19T00:00:00	2024-11-08T18:00:00	8	Radiación solar	97
106369	7	Sololá	704	Santa Lucía Utatlán 	7	Santa Rita 	7	Julio	2023-07-19T00:00:00	2024-11-08T19:00:00	2	Temperatura media	20.5
106370	7	Sololá	704	Santa Lucía Utatlán 	7	Santa Rita 	7	Julio	2023-07-19T00:00:00	2024-11-08T19:00:00	4	Temperatura máxima	22.2
106371	7	Sololá	704	Santa Lucía Utatlán 	7	Santa Rita 	7	Julio	2023-07-19T00:00:00	2024-11-08T19:00:00	3	Temperatura mínima	20.5
106372	7	Sololá	704	Santa Lucía Utatlán 	7	Santa Rita 	7	Julio	2023-07-19T00:00:00	2024-11-08T19:00:00	5	Humedad	79
106373	7	Sololá	704	Santa Lucía Utatlán 	7	Santa Rita 	7	Julio	2023-07-19T00:00:00	2024-11-08T19:00:00	6	Velocidad del viento	3.2
106374	7	Sololá	704	Santa Lucía Utatlán 	7	Santa Rita 	7	Julio	2023-07-19T00:00:00	2024-11-08T19:00:00	7	Dirección del viento	3.22
106375	7	Sololá	704	Santa Lucía Utatlán 	7	Santa Rita 	7	Julio	2023-07-19T00:00:00	2024-11-08T19:00:00	1	Precipitación	0
106376	7	Sololá	704	Santa Lucía Utatlán 	7	Santa Rita 	7	Julio	2023-07-19T00:00:00	2024-11-08T19:00:00	8	Radiación solar	0
106377	7	Sololá	704	Santa Lucía Utatlán 	7	Santa Rita 	7	Julio	2023-07-19T00:00:00	2024-11-08T20:00:00	2	Temperatura media	21.6
106378	7	Sololá	704	Santa Lucía Utatlán 	7	Santa Rita 	7	Julio	2023-07-19T00:00:00	2024-11-08T20:00:00	4	Temperatura máxima	21.7
106379	7	Sololá	704	Santa Lucía Utatlán 	7	Santa Rita 	7	Julio	2023-07-19T00:00:00	2024-11-08T20:00:00	3	Temperatura mínima	20.3
106380	7	Sololá	704	Santa Lucía Utatlán 	7	Santa Rita 	7	Julio	2023-07-19T00:00:00	2024-11-08T20:00:00	5	Humedad	75
106381	7	Sololá	704	Santa Lucía Utatlán 	7	Santa Rita 	7	Julio	2023-07-19T00:00:00	2024-11-08T20:00:00	6	Velocidad del viento	4.8
106382	7	Sololá	704	Santa Lucía Utatlán 	7	Santa Rita 	7	Julio	2023-07-19T00:00:00	2024-11-08T20:00:00	7	Dirección del viento	4.83
106383	7	Sololá	704	Santa Lucía Utatlán 	7	Santa Rita 	7	Julio	2023-07-19T00:00:00	2024-11-08T20:00:00	1	Precipitación	0
106384	7	Sololá	704	Santa Lucía Utatlán 	7	Santa Rita 	7	Julio	2023-07-19T00:00:00	2024-11-08T20:00:00	8	Radiación solar	0
106385	7	Sololá	704	Santa Lucía Utatlán 	7	Santa Rita 	7	Julio	2023-07-19T00:00:00	2024-11-08T21:00:00	2	Temperatura media	21.4
106386	7	Sololá	704	Santa Lucía Utatlán 	7	Santa Rita 	7	Julio	2023-07-19T00:00:00	2024-11-08T21:00:00	4	Temperatura máxima	21.9
106387	7	Sololá	704	Santa Lucía Utatlán 	7	Santa Rita 	7	Julio	2023-07-19T00:00:00	2024-11-08T21:00:00	3	Temperatura mínima	21.2
106388	7	Sololá	704	Santa Lucía Utatlán 	7	Santa Rita 	7	Julio	2023-07-19T00:00:00	2024-11-08T21:00:00	5	Humedad	76
106389	7	Sololá	704	Santa Lucía Utatlán 	7	Santa Rita 	7	Julio	2023-07-19T00:00:00	2024-11-08T21:00:00	6	Velocidad del viento	6.4
106390	7	Sololá	704	Santa Lucía Utatlán 	7	Santa Rita 	7	Julio	2023-07-19T00:00:00	2024-11-08T21:00:00	7	Dirección del viento	6.44
106391	7	Sololá	704	Santa Lucía Utatlán 	7	Santa Rita 	7	Julio	2023-07-19T00:00:00	2024-11-08T21:00:00	1	Precipitación	0
106392	7	Sololá	704	Santa Lucía Utatlán 	7	Santa Rita 	7	Julio	2023-07-19T00:00:00	2024-11-08T21:00:00	8	Radiación solar	0
106393	7	Sololá	704	Santa Lucía Utatlán 	7	Santa Rita 	7	Julio	2023-07-19T00:00:00	2024-11-08T22:00:00	2	Temperatura media	19.8
106394	7	Sololá	704	Santa Lucía Utatlán 	7	Santa Rita 	7	Julio	2023-07-19T00:00:00	2024-11-08T22:00:00	4	Temperatura máxima	21.6
106395	7	Sololá	704	Santa Lucía Utatlán 	7	Santa Rita 	7	Julio	2023-07-19T00:00:00	2024-11-08T22:00:00	3	Temperatura mínima	19.8
106396	7	Sololá	704	Santa Lucía Utatlán 	7	Santa Rita 	7	Julio	2023-07-19T00:00:00	2024-11-08T22:00:00	5	Humedad	83
106397	7	Sololá	704	Santa Lucía Utatlán 	7	Santa Rita 	7	Julio	2023-07-19T00:00:00	2024-11-08T22:00:00	6	Velocidad del viento	3.2
106398	7	Sololá	704	Santa Lucía Utatlán 	7	Santa Rita 	7	Julio	2023-07-19T00:00:00	2024-11-08T22:00:00	7	Dirección del viento	3.22
106399	7	Sololá	704	Santa Lucía Utatlán 	7	Santa Rita 	7	Julio	2023-07-19T00:00:00	2024-11-08T22:00:00	1	Precipitación	0
106400	7	Sololá	704	Santa Lucía Utatlán 	7	Santa Rita 	7	Julio	2023-07-19T00:00:00	2024-11-08T22:00:00	8	Radiación solar	0
106401	7	Sololá	704	Santa Lucía Utatlán 	7	Santa Rita 	7	Julio	2023-07-19T00:00:00	2024-11-08T23:00:00	2	Temperatura media	18.3
106402	7	Sololá	704	Santa Lucía Utatlán 	7	Santa Rita 	7	Julio	2023-07-19T00:00:00	2024-11-08T23:00:00	4	Temperatura máxima	19.8
106403	7	Sololá	704	Santa Lucía Utatlán 	7	Santa Rita 	7	Julio	2023-07-19T00:00:00	2024-11-08T23:00:00	3	Temperatura mínima	18.3
106404	7	Sololá	704	Santa Lucía Utatlán 	7	Santa Rita 	7	Julio	2023-07-19T00:00:00	2024-11-08T23:00:00	5	Humedad	86
106405	7	Sololá	704	Santa Lucía Utatlán 	7	Santa Rita 	7	Julio	2023-07-19T00:00:00	2024-11-08T23:00:00	6	Velocidad del viento	3.2
106406	7	Sololá	704	Santa Lucía Utatlán 	7	Santa Rita 	7	Julio	2023-07-19T00:00:00	2024-11-08T23:00:00	7	Dirección del viento	3.22
106407	7	Sololá	704	Santa Lucía Utatlán 	7	Santa Rita 	7	Julio	2023-07-19T00:00:00	2024-11-08T23:00:00	1	Precipitación	0
106408	7	Sololá	704	Santa Lucía Utatlán 	7	Santa Rita 	7	Julio	2023-07-19T00:00:00	2024-11-08T23:00:00	8	Radiación solar	0
106409	7	Sololá	704	Santa Lucía Utatlán 	7	Santa Rita 	7	Julio	2023-07-20T00:00:00	2024-11-08T00:00:00	2	Temperatura media	17.4
106410	7	Sololá	704	Santa Lucía Utatlán 	7	Santa Rita 	7	Julio	2023-07-20T00:00:00	2024-11-08T00:00:00	4	Temperatura máxima	18.3
106411	7	Sololá	704	Santa Lucía Utatlán 	7	Santa Rita 	7	Julio	2023-07-20T00:00:00	2024-11-08T00:00:00	3	Temperatura mínima	17.4
106412	7	Sololá	704	Santa Lucía Utatlán 	7	Santa Rita 	7	Julio	2023-07-20T00:00:00	2024-11-08T00:00:00	5	Humedad	89
106413	7	Sololá	704	Santa Lucía Utatlán 	7	Santa Rita 	7	Julio	2023-07-20T00:00:00	2024-11-08T00:00:00	6	Velocidad del viento	3.2
106414	7	Sololá	704	Santa Lucía Utatlán 	7	Santa Rita 	7	Julio	2023-07-20T00:00:00	2024-11-08T00:00:00	7	Dirección del viento	3.22
106415	7	Sololá	704	Santa Lucía Utatlán 	7	Santa Rita 	7	Julio	2023-07-20T00:00:00	2024-11-08T00:00:00	1	Precipitación	0
106416	7	Sololá	704	Santa Lucía Utatlán 	7	Santa Rita 	7	Julio	2023-07-20T00:00:00	2024-11-08T00:00:00	8	Radiación solar	0
106417	7	Sololá	704	Santa Lucía Utatlán 	7	Santa Rita 	7	Julio	2023-07-20T00:00:00	2024-11-08T01:00:00	2	Temperatura media	17.8
106418	7	Sololá	704	Santa Lucía Utatlán 	7	Santa Rita 	7	Julio	2023-07-20T00:00:00	2024-11-08T01:00:00	4	Temperatura máxima	19.2
106419	7	Sololá	704	Santa Lucía Utatlán 	7	Santa Rita 	7	Julio	2023-07-20T00:00:00	2024-11-08T01:00:00	3	Temperatura mínima	17.4
106420	7	Sololá	704	Santa Lucía Utatlán 	7	Santa Rita 	7	Julio	2023-07-20T00:00:00	2024-11-08T01:00:00	5	Humedad	84
106421	7	Sololá	704	Santa Lucía Utatlán 	7	Santa Rita 	7	Julio	2023-07-20T00:00:00	2024-11-08T01:00:00	6	Velocidad del viento	4.8
106422	7	Sololá	704	Santa Lucía Utatlán 	7	Santa Rita 	7	Julio	2023-07-20T00:00:00	2024-11-08T01:00:00	7	Dirección del viento	4.83
106423	7	Sololá	704	Santa Lucía Utatlán 	7	Santa Rita 	7	Julio	2023-07-20T00:00:00	2024-11-08T01:00:00	1	Precipitación	0
106424	7	Sololá	704	Santa Lucía Utatlán 	7	Santa Rita 	7	Julio	2023-07-20T00:00:00	2024-11-08T01:00:00	8	Radiación solar	0
106425	7	Sololá	704	Santa Lucía Utatlán 	7	Santa Rita 	7	Julio	2023-07-20T00:00:00	2024-11-08T02:00:00	2	Temperatura media	17.4
106426	7	Sololá	704	Santa Lucía Utatlán 	7	Santa Rita 	7	Julio	2023-07-20T00:00:00	2024-11-08T02:00:00	4	Temperatura máxima	18.6
106427	7	Sololá	704	Santa Lucía Utatlán 	7	Santa Rita 	7	Julio	2023-07-20T00:00:00	2024-11-08T02:00:00	3	Temperatura mínima	17.2
106428	7	Sololá	704	Santa Lucía Utatlán 	7	Santa Rita 	7	Julio	2023-07-20T00:00:00	2024-11-08T02:00:00	5	Humedad	83
106429	7	Sololá	704	Santa Lucía Utatlán 	7	Santa Rita 	7	Julio	2023-07-20T00:00:00	2024-11-08T02:00:00	6	Velocidad del viento	1.6
106430	7	Sololá	704	Santa Lucía Utatlán 	7	Santa Rita 	7	Julio	2023-07-20T00:00:00	2024-11-08T02:00:00	7	Dirección del viento	1.61
106431	7	Sololá	704	Santa Lucía Utatlán 	7	Santa Rita 	7	Julio	2023-07-20T00:00:00	2024-11-08T02:00:00	1	Precipitación	0
106432	7	Sololá	704	Santa Lucía Utatlán 	7	Santa Rita 	7	Julio	2023-07-20T00:00:00	2024-11-08T02:00:00	8	Radiación solar	0
106433	7	Sololá	704	Santa Lucía Utatlán 	7	Santa Rita 	7	Julio	2023-07-20T00:00:00	2024-11-08T03:00:00	2	Temperatura media	17.8
106434	7	Sololá	704	Santa Lucía Utatlán 	7	Santa Rita 	7	Julio	2023-07-20T00:00:00	2024-11-08T03:00:00	4	Temperatura máxima	17.9
106435	7	Sololá	704	Santa Lucía Utatlán 	7	Santa Rita 	7	Julio	2023-07-20T00:00:00	2024-11-08T03:00:00	3	Temperatura mínima	17.4
106436	7	Sololá	704	Santa Lucía Utatlán 	7	Santa Rita 	7	Julio	2023-07-20T00:00:00	2024-11-08T03:00:00	5	Humedad	83
106437	7	Sololá	704	Santa Lucía Utatlán 	7	Santa Rita 	7	Julio	2023-07-20T00:00:00	2024-11-08T03:00:00	6	Velocidad del viento	1.6
106438	7	Sololá	704	Santa Lucía Utatlán 	7	Santa Rita 	7	Julio	2023-07-20T00:00:00	2024-11-08T03:00:00	7	Dirección del viento	1.61
106439	7	Sololá	704	Santa Lucía Utatlán 	7	Santa Rita 	7	Julio	2023-07-20T00:00:00	2024-11-08T03:00:00	1	Precipitación	0
106440	7	Sololá	704	Santa Lucía Utatlán 	7	Santa Rita 	7	Julio	2023-07-20T00:00:00	2024-11-08T03:00:00	8	Radiación solar	0
106441	7	Sololá	704	Santa Lucía Utatlán 	7	Santa Rita 	7	Julio	2023-07-20T00:00:00	2024-11-08T04:00:00	2	Temperatura media	18.2
106442	7	Sololá	704	Santa Lucía Utatlán 	7	Santa Rita 	7	Julio	2023-07-20T00:00:00	2024-11-08T04:00:00	4	Temperatura máxima	18.2
106443	7	Sololá	704	Santa Lucía Utatlán 	7	Santa Rita 	7	Julio	2023-07-20T00:00:00	2024-11-08T04:00:00	3	Temperatura mínima	17.3
106444	7	Sololá	704	Santa Lucía Utatlán 	7	Santa Rita 	7	Julio	2023-07-20T00:00:00	2024-11-08T04:00:00	5	Humedad	83
106445	7	Sololá	704	Santa Lucía Utatlán 	7	Santa Rita 	7	Julio	2023-07-20T00:00:00	2024-11-08T04:00:00	6	Velocidad del viento	1.6
106446	7	Sololá	704	Santa Lucía Utatlán 	7	Santa Rita 	7	Julio	2023-07-20T00:00:00	2024-11-08T04:00:00	7	Dirección del viento	1.61
106447	7	Sololá	704	Santa Lucía Utatlán 	7	Santa Rita 	7	Julio	2023-07-20T00:00:00	2024-11-08T04:00:00	1	Precipitación	0
106448	7	Sololá	704	Santa Lucía Utatlán 	7	Santa Rita 	7	Julio	2023-07-20T00:00:00	2024-11-08T04:00:00	8	Radiación solar	0
106449	7	Sololá	704	Santa Lucía Utatlán 	7	Santa Rita 	7	Julio	2023-07-20T00:00:00	2024-11-08T05:00:00	2	Temperatura media	19.7
106450	7	Sololá	704	Santa Lucía Utatlán 	7	Santa Rita 	7	Julio	2023-07-20T00:00:00	2024-11-08T05:00:00	4	Temperatura máxima	20.1
106451	7	Sololá	704	Santa Lucía Utatlán 	7	Santa Rita 	7	Julio	2023-07-20T00:00:00	2024-11-08T05:00:00	3	Temperatura mínima	17.8
106452	7	Sololá	704	Santa Lucía Utatlán 	7	Santa Rita 	7	Julio	2023-07-20T00:00:00	2024-11-08T05:00:00	5	Humedad	78
106453	7	Sololá	704	Santa Lucía Utatlán 	7	Santa Rita 	7	Julio	2023-07-20T00:00:00	2024-11-08T05:00:00	6	Velocidad del viento	4.8
106454	7	Sololá	704	Santa Lucía Utatlán 	7	Santa Rita 	7	Julio	2023-07-20T00:00:00	2024-11-08T05:00:00	7	Dirección del viento	4.83
106455	7	Sololá	704	Santa Lucía Utatlán 	7	Santa Rita 	7	Julio	2023-07-20T00:00:00	2024-11-08T05:00:00	1	Precipitación	0
106456	7	Sololá	704	Santa Lucía Utatlán 	7	Santa Rita 	7	Julio	2023-07-20T00:00:00	2024-11-08T05:00:00	8	Radiación solar	0
106457	7	Sololá	704	Santa Lucía Utatlán 	7	Santa Rita 	7	Julio	2023-07-20T00:00:00	2024-11-08T06:00:00	2	Temperatura media	18.4
106458	7	Sololá	704	Santa Lucía Utatlán 	7	Santa Rita 	7	Julio	2023-07-20T00:00:00	2024-11-08T06:00:00	4	Temperatura máxima	19.7
106459	7	Sololá	704	Santa Lucía Utatlán 	7	Santa Rita 	7	Julio	2023-07-20T00:00:00	2024-11-08T06:00:00	3	Temperatura mínima	17.5
106460	7	Sololá	704	Santa Lucía Utatlán 	7	Santa Rita 	7	Julio	2023-07-20T00:00:00	2024-11-08T06:00:00	5	Humedad	81
106461	7	Sololá	704	Santa Lucía Utatlán 	7	Santa Rita 	7	Julio	2023-07-20T00:00:00	2024-11-08T06:00:00	6	Velocidad del viento	3.2
106462	7	Sololá	704	Santa Lucía Utatlán 	7	Santa Rita 	7	Julio	2023-07-20T00:00:00	2024-11-08T06:00:00	7	Dirección del viento	3.22
106463	7	Sololá	704	Santa Lucía Utatlán 	7	Santa Rita 	7	Julio	2023-07-20T00:00:00	2024-11-08T06:00:00	1	Precipitación	0
106464	7	Sololá	704	Santa Lucía Utatlán 	7	Santa Rita 	7	Julio	2023-07-20T00:00:00	2024-11-08T06:00:00	8	Radiación solar	2
106465	7	Sololá	704	Santa Lucía Utatlán 	7	Santa Rita 	7	Julio	2023-07-20T00:00:00	2024-11-08T07:00:00	2	Temperatura media	20.6
106466	7	Sololá	704	Santa Lucía Utatlán 	7	Santa Rita 	7	Julio	2023-07-20T00:00:00	2024-11-08T07:00:00	4	Temperatura máxima	20.6
106467	7	Sololá	704	Santa Lucía Utatlán 	7	Santa Rita 	7	Julio	2023-07-20T00:00:00	2024-11-08T07:00:00	3	Temperatura mínima	18.2
106468	7	Sololá	704	Santa Lucía Utatlán 	7	Santa Rita 	7	Julio	2023-07-20T00:00:00	2024-11-08T07:00:00	5	Humedad	75
106469	7	Sololá	704	Santa Lucía Utatlán 	7	Santa Rita 	7	Julio	2023-07-20T00:00:00	2024-11-08T07:00:00	6	Velocidad del viento	3.2
106470	7	Sololá	704	Santa Lucía Utatlán 	7	Santa Rita 	7	Julio	2023-07-20T00:00:00	2024-11-08T07:00:00	7	Dirección del viento	3.22
106471	7	Sololá	704	Santa Lucía Utatlán 	7	Santa Rita 	7	Julio	2023-07-20T00:00:00	2024-11-08T07:00:00	1	Precipitación	0
106472	7	Sololá	704	Santa Lucía Utatlán 	7	Santa Rita 	7	Julio	2023-07-20T00:00:00	2024-11-08T07:00:00	8	Radiación solar	63
106473	7	Sololá	704	Santa Lucía Utatlán 	7	Santa Rita 	7	Julio	2023-07-20T00:00:00	2024-11-08T08:00:00	2	Temperatura media	23.7
106474	7	Sololá	704	Santa Lucía Utatlán 	7	Santa Rita 	7	Julio	2023-07-20T00:00:00	2024-11-08T08:00:00	4	Temperatura máxima	23.7
106475	7	Sololá	704	Santa Lucía Utatlán 	7	Santa Rita 	7	Julio	2023-07-20T00:00:00	2024-11-08T08:00:00	3	Temperatura mínima	20.6
106476	7	Sololá	704	Santa Lucía Utatlán 	7	Santa Rita 	7	Julio	2023-07-20T00:00:00	2024-11-08T08:00:00	5	Humedad	66
106477	7	Sololá	704	Santa Lucía Utatlán 	7	Santa Rita 	7	Julio	2023-07-20T00:00:00	2024-11-08T08:00:00	6	Velocidad del viento	3.2
106478	7	Sololá	704	Santa Lucía Utatlán 	7	Santa Rita 	7	Julio	2023-07-20T00:00:00	2024-11-08T08:00:00	7	Dirección del viento	3.22
106479	7	Sololá	704	Santa Lucía Utatlán 	7	Santa Rita 	7	Julio	2023-07-20T00:00:00	2024-11-08T08:00:00	1	Precipitación	0
106480	7	Sololá	704	Santa Lucía Utatlán 	7	Santa Rita 	7	Julio	2023-07-20T00:00:00	2024-11-08T08:00:00	8	Radiación solar	382
106481	7	Sololá	704	Santa Lucía Utatlán 	7	Santa Rita 	7	Julio	2023-07-20T00:00:00	2024-11-08T09:00:00	2	Temperatura media	24.9
106482	7	Sololá	704	Santa Lucía Utatlán 	7	Santa Rita 	7	Julio	2023-07-20T00:00:00	2024-11-08T09:00:00	4	Temperatura máxima	25
106483	7	Sololá	704	Santa Lucía Utatlán 	7	Santa Rita 	7	Julio	2023-07-20T00:00:00	2024-11-08T09:00:00	3	Temperatura mínima	23.7
106484	7	Sololá	704	Santa Lucía Utatlán 	7	Santa Rita 	7	Julio	2023-07-20T00:00:00	2024-11-08T09:00:00	5	Humedad	60
106485	7	Sololá	704	Santa Lucía Utatlán 	7	Santa Rita 	7	Julio	2023-07-20T00:00:00	2024-11-08T09:00:00	6	Velocidad del viento	4.8
106486	7	Sololá	704	Santa Lucía Utatlán 	7	Santa Rita 	7	Julio	2023-07-20T00:00:00	2024-11-08T09:00:00	7	Dirección del viento	4.83
106487	7	Sololá	704	Santa Lucía Utatlán 	7	Santa Rita 	7	Julio	2023-07-20T00:00:00	2024-11-08T09:00:00	1	Precipitación	0
106488	7	Sololá	704	Santa Lucía Utatlán 	7	Santa Rita 	7	Julio	2023-07-20T00:00:00	2024-11-08T09:00:00	8	Radiación solar	614
106489	7	Sololá	704	Santa Lucía Utatlán 	7	Santa Rita 	7	Julio	2023-07-20T00:00:00	2024-11-08T10:00:00	2	Temperatura media	26
106490	7	Sololá	704	Santa Lucía Utatlán 	7	Santa Rita 	7	Julio	2023-07-20T00:00:00	2024-11-08T10:00:00	4	Temperatura máxima	26.1
106491	7	Sololá	704	Santa Lucía Utatlán 	7	Santa Rita 	7	Julio	2023-07-20T00:00:00	2024-11-08T10:00:00	3	Temperatura mínima	24.8
106492	7	Sololá	704	Santa Lucía Utatlán 	7	Santa Rita 	7	Julio	2023-07-20T00:00:00	2024-11-08T10:00:00	5	Humedad	56
106493	7	Sololá	704	Santa Lucía Utatlán 	7	Santa Rita 	7	Julio	2023-07-20T00:00:00	2024-11-08T10:00:00	6	Velocidad del viento	6.4
106494	7	Sololá	704	Santa Lucía Utatlán 	7	Santa Rita 	7	Julio	2023-07-20T00:00:00	2024-11-08T10:00:00	7	Dirección del viento	6.44
106495	7	Sololá	704	Santa Lucía Utatlán 	7	Santa Rita 	7	Julio	2023-07-20T00:00:00	2024-11-08T10:00:00	1	Precipitación	0
106496	7	Sololá	704	Santa Lucía Utatlán 	7	Santa Rita 	7	Julio	2023-07-20T00:00:00	2024-11-08T10:00:00	8	Radiación solar	804
106497	7	Sololá	704	Santa Lucía Utatlán 	7	Santa Rita 	7	Julio	2023-07-20T00:00:00	2024-11-08T11:00:00	2	Temperatura media	25.7
106498	7	Sololá	704	Santa Lucía Utatlán 	7	Santa Rita 	7	Julio	2023-07-20T00:00:00	2024-11-08T11:00:00	4	Temperatura máxima	26.5
106499	7	Sololá	704	Santa Lucía Utatlán 	7	Santa Rita 	7	Julio	2023-07-20T00:00:00	2024-11-08T11:00:00	3	Temperatura mínima	25.6
106500	7	Sololá	704	Santa Lucía Utatlán 	7	Santa Rita 	7	Julio	2023-07-20T00:00:00	2024-11-08T11:00:00	5	Humedad	58
106501	7	Sololá	704	Santa Lucía Utatlán 	7	Santa Rita 	7	Julio	2023-07-20T00:00:00	2024-11-08T11:00:00	6	Velocidad del viento	9.7
106502	7	Sololá	704	Santa Lucía Utatlán 	7	Santa Rita 	7	Julio	2023-07-20T00:00:00	2024-11-08T11:00:00	7	Dirección del viento	9.66
106503	7	Sololá	704	Santa Lucía Utatlán 	7	Santa Rita 	7	Julio	2023-07-20T00:00:00	2024-11-08T11:00:00	1	Precipitación	0
106504	7	Sololá	704	Santa Lucía Utatlán 	7	Santa Rita 	7	Julio	2023-07-20T00:00:00	2024-11-08T11:00:00	8	Radiación solar	945
106505	7	Sololá	704	Santa Lucía Utatlán 	7	Santa Rita 	7	Julio	2023-07-20T00:00:00	2024-11-08T12:00:00	2	Temperatura media	25.6
106506	7	Sololá	704	Santa Lucía Utatlán 	7	Santa Rita 	7	Julio	2023-07-20T00:00:00	2024-11-08T12:00:00	4	Temperatura máxima	25.9
106507	7	Sololá	704	Santa Lucía Utatlán 	7	Santa Rita 	7	Julio	2023-07-20T00:00:00	2024-11-08T12:00:00	3	Temperatura mínima	25.2
106508	7	Sololá	704	Santa Lucía Utatlán 	7	Santa Rita 	7	Julio	2023-07-20T00:00:00	2024-11-08T12:00:00	5	Humedad	59
106509	7	Sololá	704	Santa Lucía Utatlán 	7	Santa Rita 	7	Julio	2023-07-20T00:00:00	2024-11-08T12:00:00	6	Velocidad del viento	8
106510	7	Sololá	704	Santa Lucía Utatlán 	7	Santa Rita 	7	Julio	2023-07-20T00:00:00	2024-11-08T12:00:00	7	Dirección del viento	8.05
106511	7	Sololá	704	Santa Lucía Utatlán 	7	Santa Rita 	7	Julio	2023-07-20T00:00:00	2024-11-08T12:00:00	1	Precipitación	0
106512	7	Sololá	704	Santa Lucía Utatlán 	7	Santa Rita 	7	Julio	2023-07-20T00:00:00	2024-11-08T12:00:00	8	Radiación solar	1005
106513	7	Sololá	704	Santa Lucía Utatlán 	7	Santa Rita 	7	Julio	2023-07-20T00:00:00	2024-11-08T13:00:00	2	Temperatura media	25.5
106514	7	Sololá	704	Santa Lucía Utatlán 	7	Santa Rita 	7	Julio	2023-07-20T00:00:00	2024-11-08T13:00:00	4	Temperatura máxima	25.9
106515	7	Sololá	704	Santa Lucía Utatlán 	7	Santa Rita 	7	Julio	2023-07-20T00:00:00	2024-11-08T13:00:00	3	Temperatura mínima	24.8
106516	7	Sololá	704	Santa Lucía Utatlán 	7	Santa Rita 	7	Julio	2023-07-20T00:00:00	2024-11-08T13:00:00	5	Humedad	62
106517	7	Sololá	704	Santa Lucía Utatlán 	7	Santa Rita 	7	Julio	2023-07-20T00:00:00	2024-11-08T13:00:00	6	Velocidad del viento	9.7
106518	7	Sololá	704	Santa Lucía Utatlán 	7	Santa Rita 	7	Julio	2023-07-20T00:00:00	2024-11-08T13:00:00	7	Dirección del viento	9.66
106519	7	Sololá	704	Santa Lucía Utatlán 	7	Santa Rita 	7	Julio	2023-07-20T00:00:00	2024-11-08T13:00:00	1	Precipitación	0
106520	7	Sololá	704	Santa Lucía Utatlán 	7	Santa Rita 	7	Julio	2023-07-20T00:00:00	2024-11-08T13:00:00	8	Radiación solar	1015
106521	7	Sololá	704	Santa Lucía Utatlán 	7	Santa Rita 	7	Julio	2023-07-20T00:00:00	2024-11-08T14:00:00	2	Temperatura media	24.7
106522	7	Sololá	704	Santa Lucía Utatlán 	7	Santa Rita 	7	Julio	2023-07-20T00:00:00	2024-11-08T14:00:00	4	Temperatura máxima	25.5
106523	7	Sololá	704	Santa Lucía Utatlán 	7	Santa Rita 	7	Julio	2023-07-20T00:00:00	2024-11-08T14:00:00	3	Temperatura mínima	24.5
106524	7	Sololá	704	Santa Lucía Utatlán 	7	Santa Rita 	7	Julio	2023-07-20T00:00:00	2024-11-08T14:00:00	5	Humedad	65
106525	7	Sololá	704	Santa Lucía Utatlán 	7	Santa Rita 	7	Julio	2023-07-20T00:00:00	2024-11-08T14:00:00	6	Velocidad del viento	14.5
106526	7	Sololá	704	Santa Lucía Utatlán 	7	Santa Rita 	7	Julio	2023-07-20T00:00:00	2024-11-08T14:00:00	7	Dirección del viento	14.48
106527	7	Sololá	704	Santa Lucía Utatlán 	7	Santa Rita 	7	Julio	2023-07-20T00:00:00	2024-11-08T14:00:00	1	Precipitación	0
106528	7	Sololá	704	Santa Lucía Utatlán 	7	Santa Rita 	7	Julio	2023-07-20T00:00:00	2024-11-08T14:00:00	8	Radiación solar	790
106529	7	Sololá	704	Santa Lucía Utatlán 	7	Santa Rita 	7	Julio	2023-07-20T00:00:00	2024-11-08T15:00:00	2	Temperatura media	25.7
106530	7	Sololá	704	Santa Lucía Utatlán 	7	Santa Rita 	7	Julio	2023-07-20T00:00:00	2024-11-08T15:00:00	4	Temperatura máxima	25.7
106531	7	Sololá	704	Santa Lucía Utatlán 	7	Santa Rita 	7	Julio	2023-07-20T00:00:00	2024-11-08T15:00:00	3	Temperatura mínima	24.6
106532	7	Sololá	704	Santa Lucía Utatlán 	7	Santa Rita 	7	Julio	2023-07-20T00:00:00	2024-11-08T15:00:00	5	Humedad	63
106533	7	Sololá	704	Santa Lucía Utatlán 	7	Santa Rita 	7	Julio	2023-07-20T00:00:00	2024-11-08T15:00:00	6	Velocidad del viento	11.3
106534	7	Sololá	704	Santa Lucía Utatlán 	7	Santa Rita 	7	Julio	2023-07-20T00:00:00	2024-11-08T15:00:00	7	Dirección del viento	11.27
106535	7	Sololá	704	Santa Lucía Utatlán 	7	Santa Rita 	7	Julio	2023-07-20T00:00:00	2024-11-08T15:00:00	1	Precipitación	0
106536	7	Sololá	704	Santa Lucía Utatlán 	7	Santa Rita 	7	Julio	2023-07-20T00:00:00	2024-11-08T15:00:00	8	Radiación solar	862
106537	7	Sololá	704	Santa Lucía Utatlán 	7	Santa Rita 	7	Julio	2023-07-20T00:00:00	2024-11-08T16:00:00	2	Temperatura media	24.2
106538	7	Sololá	704	Santa Lucía Utatlán 	7	Santa Rita 	7	Julio	2023-07-20T00:00:00	2024-11-08T16:00:00	4	Temperatura máxima	25.7
106539	7	Sololá	704	Santa Lucía Utatlán 	7	Santa Rita 	7	Julio	2023-07-20T00:00:00	2024-11-08T16:00:00	3	Temperatura mínima	24.1
106540	7	Sololá	704	Santa Lucía Utatlán 	7	Santa Rita 	7	Julio	2023-07-20T00:00:00	2024-11-08T16:00:00	5	Humedad	63
106541	7	Sololá	704	Santa Lucía Utatlán 	7	Santa Rita 	7	Julio	2023-07-20T00:00:00	2024-11-08T16:00:00	6	Velocidad del viento	9.7
106542	7	Sololá	704	Santa Lucía Utatlán 	7	Santa Rita 	7	Julio	2023-07-20T00:00:00	2024-11-08T16:00:00	7	Dirección del viento	9.66
106543	7	Sololá	704	Santa Lucía Utatlán 	7	Santa Rita 	7	Julio	2023-07-20T00:00:00	2024-11-08T16:00:00	1	Precipitación	0
106544	7	Sololá	704	Santa Lucía Utatlán 	7	Santa Rita 	7	Julio	2023-07-20T00:00:00	2024-11-08T16:00:00	8	Radiación solar	585
106545	7	Sololá	704	Santa Lucía Utatlán 	7	Santa Rita 	7	Julio	2023-07-20T00:00:00	2024-11-08T17:00:00	2	Temperatura media	23.8
106546	7	Sololá	704	Santa Lucía Utatlán 	7	Santa Rita 	7	Julio	2023-07-20T00:00:00	2024-11-08T17:00:00	4	Temperatura máxima	24.4
106547	7	Sololá	704	Santa Lucía Utatlán 	7	Santa Rita 	7	Julio	2023-07-20T00:00:00	2024-11-08T17:00:00	3	Temperatura mínima	23.8
106548	7	Sololá	704	Santa Lucía Utatlán 	7	Santa Rita 	7	Julio	2023-07-20T00:00:00	2024-11-08T17:00:00	5	Humedad	65
106549	7	Sololá	704	Santa Lucía Utatlán 	7	Santa Rita 	7	Julio	2023-07-20T00:00:00	2024-11-08T17:00:00	6	Velocidad del viento	8
106550	7	Sololá	704	Santa Lucía Utatlán 	7	Santa Rita 	7	Julio	2023-07-20T00:00:00	2024-11-08T17:00:00	7	Dirección del viento	8.05
106551	7	Sololá	704	Santa Lucía Utatlán 	7	Santa Rita 	7	Julio	2023-07-20T00:00:00	2024-11-08T17:00:00	1	Precipitación	0
106552	7	Sololá	704	Santa Lucía Utatlán 	7	Santa Rita 	7	Julio	2023-07-20T00:00:00	2024-11-08T17:00:00	8	Radiación solar	317
106553	7	Sololá	704	Santa Lucía Utatlán 	7	Santa Rita 	7	Julio	2023-07-20T00:00:00	2024-11-08T18:00:00	2	Temperatura media	22.4
106554	7	Sololá	704	Santa Lucía Utatlán 	7	Santa Rita 	7	Julio	2023-07-20T00:00:00	2024-11-08T18:00:00	4	Temperatura máxima	24.3
106555	7	Sololá	704	Santa Lucía Utatlán 	7	Santa Rita 	7	Julio	2023-07-20T00:00:00	2024-11-08T18:00:00	3	Temperatura mínima	22.3
106556	7	Sololá	704	Santa Lucía Utatlán 	7	Santa Rita 	7	Julio	2023-07-20T00:00:00	2024-11-08T18:00:00	5	Humedad	73
106557	7	Sololá	704	Santa Lucía Utatlán 	7	Santa Rita 	7	Julio	2023-07-20T00:00:00	2024-11-08T18:00:00	6	Velocidad del viento	6.4
106558	7	Sololá	704	Santa Lucía Utatlán 	7	Santa Rita 	7	Julio	2023-07-20T00:00:00	2024-11-08T18:00:00	7	Dirección del viento	6.44
106559	7	Sololá	704	Santa Lucía Utatlán 	7	Santa Rita 	7	Julio	2023-07-20T00:00:00	2024-11-08T18:00:00	1	Precipitación	0
106560	7	Sololá	704	Santa Lucía Utatlán 	7	Santa Rita 	7	Julio	2023-07-20T00:00:00	2024-11-08T18:00:00	8	Radiación solar	117
106561	7	Sololá	704	Santa Lucía Utatlán 	7	Santa Rita 	7	Julio	2023-07-20T00:00:00	2024-11-08T19:00:00	2	Temperatura media	20.9
106562	7	Sololá	704	Santa Lucía Utatlán 	7	Santa Rita 	7	Julio	2023-07-20T00:00:00	2024-11-08T19:00:00	4	Temperatura máxima	22.3
106563	7	Sololá	704	Santa Lucía Utatlán 	7	Santa Rita 	7	Julio	2023-07-20T00:00:00	2024-11-08T19:00:00	3	Temperatura mínima	20.9
106564	7	Sololá	704	Santa Lucía Utatlán 	7	Santa Rita 	7	Julio	2023-07-20T00:00:00	2024-11-08T19:00:00	5	Humedad	77
106565	7	Sololá	704	Santa Lucía Utatlán 	7	Santa Rita 	7	Julio	2023-07-20T00:00:00	2024-11-08T19:00:00	6	Velocidad del viento	4.8
106566	7	Sololá	704	Santa Lucía Utatlán 	7	Santa Rita 	7	Julio	2023-07-20T00:00:00	2024-11-08T19:00:00	7	Dirección del viento	4.83
106567	7	Sololá	704	Santa Lucía Utatlán 	7	Santa Rita 	7	Julio	2023-07-20T00:00:00	2024-11-08T19:00:00	1	Precipitación	0
106568	7	Sololá	704	Santa Lucía Utatlán 	7	Santa Rita 	7	Julio	2023-07-20T00:00:00	2024-11-08T19:00:00	8	Radiación solar	0
106569	7	Sololá	704	Santa Lucía Utatlán 	7	Santa Rita 	7	Julio	2023-07-20T00:00:00	2024-11-08T20:00:00	2	Temperatura media	20.8
106570	7	Sololá	704	Santa Lucía Utatlán 	7	Santa Rita 	7	Julio	2023-07-20T00:00:00	2024-11-08T20:00:00	4	Temperatura máxima	21.3
106571	7	Sololá	704	Santa Lucía Utatlán 	7	Santa Rita 	7	Julio	2023-07-20T00:00:00	2024-11-08T20:00:00	3	Temperatura mínima	20.3
106572	7	Sololá	704	Santa Lucía Utatlán 	7	Santa Rita 	7	Julio	2023-07-20T00:00:00	2024-11-08T20:00:00	5	Humedad	74
106573	7	Sololá	704	Santa Lucía Utatlán 	7	Santa Rita 	7	Julio	2023-07-20T00:00:00	2024-11-08T20:00:00	6	Velocidad del viento	4.8
106574	7	Sololá	704	Santa Lucía Utatlán 	7	Santa Rita 	7	Julio	2023-07-20T00:00:00	2024-11-08T20:00:00	7	Dirección del viento	4.83
106575	7	Sololá	704	Santa Lucía Utatlán 	7	Santa Rita 	7	Julio	2023-07-20T00:00:00	2024-11-08T20:00:00	1	Precipitación	0
106576	7	Sololá	704	Santa Lucía Utatlán 	7	Santa Rita 	7	Julio	2023-07-20T00:00:00	2024-11-08T20:00:00	8	Radiación solar	0
106577	7	Sololá	704	Santa Lucía Utatlán 	7	Santa Rita 	7	Julio	2023-07-20T00:00:00	2024-11-08T21:00:00	2	Temperatura media	20.9
106578	7	Sololá	704	Santa Lucía Utatlán 	7	Santa Rita 	7	Julio	2023-07-20T00:00:00	2024-11-08T21:00:00	4	Temperatura máxima	21
106579	7	Sololá	704	Santa Lucía Utatlán 	7	Santa Rita 	7	Julio	2023-07-20T00:00:00	2024-11-08T21:00:00	3	Temperatura mínima	20.3
106580	7	Sololá	704	Santa Lucía Utatlán 	7	Santa Rita 	7	Julio	2023-07-20T00:00:00	2024-11-08T21:00:00	5	Humedad	72
106581	7	Sololá	704	Santa Lucía Utatlán 	7	Santa Rita 	7	Julio	2023-07-20T00:00:00	2024-11-08T21:00:00	6	Velocidad del viento	6.4
106582	7	Sololá	704	Santa Lucía Utatlán 	7	Santa Rita 	7	Julio	2023-07-20T00:00:00	2024-11-08T21:00:00	7	Dirección del viento	6.44
106583	7	Sololá	704	Santa Lucía Utatlán 	7	Santa Rita 	7	Julio	2023-07-20T00:00:00	2024-11-08T21:00:00	1	Precipitación	0
106584	7	Sololá	704	Santa Lucía Utatlán 	7	Santa Rita 	7	Julio	2023-07-20T00:00:00	2024-11-08T21:00:00	8	Radiación solar	0
106585	7	Sololá	704	Santa Lucía Utatlán 	7	Santa Rita 	7	Julio	2023-07-20T00:00:00	2024-11-08T22:00:00	2	Temperatura media	21.3
106586	7	Sololá	704	Santa Lucía Utatlán 	7	Santa Rita 	7	Julio	2023-07-20T00:00:00	2024-11-08T22:00:00	4	Temperatura máxima	21.3
106587	7	Sololá	704	Santa Lucía Utatlán 	7	Santa Rita 	7	Julio	2023-07-20T00:00:00	2024-11-08T22:00:00	3	Temperatura mínima	19.9
106588	7	Sololá	704	Santa Lucía Utatlán 	7	Santa Rita 	7	Julio	2023-07-20T00:00:00	2024-11-08T22:00:00	5	Humedad	70
106589	7	Sololá	704	Santa Lucía Utatlán 	7	Santa Rita 	7	Julio	2023-07-20T00:00:00	2024-11-08T22:00:00	6	Velocidad del viento	4.8
106590	7	Sololá	704	Santa Lucía Utatlán 	7	Santa Rita 	7	Julio	2023-07-20T00:00:00	2024-11-08T22:00:00	7	Dirección del viento	4.83
106591	7	Sololá	704	Santa Lucía Utatlán 	7	Santa Rita 	7	Julio	2023-07-20T00:00:00	2024-11-08T22:00:00	1	Precipitación	0
106592	7	Sololá	704	Santa Lucía Utatlán 	7	Santa Rita 	7	Julio	2023-07-20T00:00:00	2024-11-08T22:00:00	8	Radiación solar	0
106593	7	Sololá	704	Santa Lucía Utatlán 	7	Santa Rita 	7	Julio	2023-07-20T00:00:00	2024-11-08T23:00:00	2	Temperatura media	20.9
106594	7	Sololá	704	Santa Lucía Utatlán 	7	Santa Rita 	7	Julio	2023-07-20T00:00:00	2024-11-08T23:00:00	4	Temperatura máxima	21.3
106595	7	Sololá	704	Santa Lucía Utatlán 	7	Santa Rita 	7	Julio	2023-07-20T00:00:00	2024-11-08T23:00:00	3	Temperatura mínima	20.9
106596	7	Sololá	704	Santa Lucía Utatlán 	7	Santa Rita 	7	Julio	2023-07-20T00:00:00	2024-11-08T23:00:00	5	Humedad	70
106597	7	Sololá	704	Santa Lucía Utatlán 	7	Santa Rita 	7	Julio	2023-07-20T00:00:00	2024-11-08T23:00:00	6	Velocidad del viento	6.4
106598	7	Sololá	704	Santa Lucía Utatlán 	7	Santa Rita 	7	Julio	2023-07-20T00:00:00	2024-11-08T23:00:00	7	Dirección del viento	6.44
106599	7	Sololá	704	Santa Lucía Utatlán 	7	Santa Rita 	7	Julio	2023-07-20T00:00:00	2024-11-08T23:00:00	1	Precipitación	0
106600	7	Sololá	704	Santa Lucía Utatlán 	7	Santa Rita 	7	Julio	2023-07-20T00:00:00	2024-11-08T23:00:00	8	Radiación solar	0
106601	7	Sololá	704	Santa Lucía Utatlán 	7	Santa Rita 	7	Julio	2023-07-21T00:00:00	2024-11-08T00:00:00	2	Temperatura media	19.8
106602	7	Sololá	704	Santa Lucía Utatlán 	7	Santa Rita 	7	Julio	2023-07-21T00:00:00	2024-11-08T00:00:00	4	Temperatura máxima	21
106603	7	Sololá	704	Santa Lucía Utatlán 	7	Santa Rita 	7	Julio	2023-07-21T00:00:00	2024-11-08T00:00:00	3	Temperatura mínima	19.8
106604	7	Sololá	704	Santa Lucía Utatlán 	7	Santa Rita 	7	Julio	2023-07-21T00:00:00	2024-11-08T00:00:00	5	Humedad	74
106605	7	Sololá	704	Santa Lucía Utatlán 	7	Santa Rita 	7	Julio	2023-07-21T00:00:00	2024-11-08T00:00:00	6	Velocidad del viento	4.8
106606	7	Sololá	704	Santa Lucía Utatlán 	7	Santa Rita 	7	Julio	2023-07-21T00:00:00	2024-11-08T00:00:00	7	Dirección del viento	4.83
106607	7	Sololá	704	Santa Lucía Utatlán 	7	Santa Rita 	7	Julio	2023-07-21T00:00:00	2024-11-08T00:00:00	1	Precipitación	0
106608	7	Sololá	704	Santa Lucía Utatlán 	7	Santa Rita 	7	Julio	2023-07-21T00:00:00	2024-11-08T00:00:00	8	Radiación solar	0
106609	7	Sololá	704	Santa Lucía Utatlán 	7	Santa Rita 	7	Julio	2023-07-21T00:00:00	2024-11-08T01:00:00	2	Temperatura media	20.3
106610	7	Sololá	704	Santa Lucía Utatlán 	7	Santa Rita 	7	Julio	2023-07-21T00:00:00	2024-11-08T01:00:00	4	Temperatura máxima	20.9
106611	7	Sololá	704	Santa Lucía Utatlán 	7	Santa Rita 	7	Julio	2023-07-21T00:00:00	2024-11-08T01:00:00	3	Temperatura mínima	19.2
106612	7	Sololá	704	Santa Lucía Utatlán 	7	Santa Rita 	7	Julio	2023-07-21T00:00:00	2024-11-08T01:00:00	5	Humedad	73
106613	7	Sololá	704	Santa Lucía Utatlán 	7	Santa Rita 	7	Julio	2023-07-21T00:00:00	2024-11-08T01:00:00	6	Velocidad del viento	4.8
106614	7	Sololá	704	Santa Lucía Utatlán 	7	Santa Rita 	7	Julio	2023-07-21T00:00:00	2024-11-08T01:00:00	7	Dirección del viento	4.83
106615	7	Sololá	704	Santa Lucía Utatlán 	7	Santa Rita 	7	Julio	2023-07-21T00:00:00	2024-11-08T01:00:00	1	Precipitación	0
106616	7	Sololá	704	Santa Lucía Utatlán 	7	Santa Rita 	7	Julio	2023-07-21T00:00:00	2024-11-08T01:00:00	8	Radiación solar	0
106617	7	Sololá	704	Santa Lucía Utatlán 	7	Santa Rita 	7	Julio	2023-07-21T00:00:00	2024-11-08T02:00:00	2	Temperatura media	18.3
106618	7	Sololá	704	Santa Lucía Utatlán 	7	Santa Rita 	7	Julio	2023-07-21T00:00:00	2024-11-08T02:00:00	4	Temperatura máxima	20.5
106619	7	Sololá	704	Santa Lucía Utatlán 	7	Santa Rita 	7	Julio	2023-07-21T00:00:00	2024-11-08T02:00:00	3	Temperatura mínima	18.3
106620	7	Sololá	704	Santa Lucía Utatlán 	7	Santa Rita 	7	Julio	2023-07-21T00:00:00	2024-11-08T02:00:00	5	Humedad	80
106621	7	Sololá	704	Santa Lucía Utatlán 	7	Santa Rita 	7	Julio	2023-07-21T00:00:00	2024-11-08T02:00:00	6	Velocidad del viento	3.2
106622	7	Sololá	704	Santa Lucía Utatlán 	7	Santa Rita 	7	Julio	2023-07-21T00:00:00	2024-11-08T02:00:00	7	Dirección del viento	3.22
106623	7	Sololá	704	Santa Lucía Utatlán 	7	Santa Rita 	7	Julio	2023-07-21T00:00:00	2024-11-08T02:00:00	1	Precipitación	0
106624	7	Sololá	704	Santa Lucía Utatlán 	7	Santa Rita 	7	Julio	2023-07-21T00:00:00	2024-11-08T02:00:00	8	Radiación solar	0
106625	7	Sololá	704	Santa Lucía Utatlán 	7	Santa Rita 	7	Julio	2023-07-21T00:00:00	2024-11-08T03:00:00	2	Temperatura media	18.1
106626	7	Sololá	704	Santa Lucía Utatlán 	7	Santa Rita 	7	Julio	2023-07-21T00:00:00	2024-11-08T03:00:00	4	Temperatura máxima	18.3
106627	7	Sololá	704	Santa Lucía Utatlán 	7	Santa Rita 	7	Julio	2023-07-21T00:00:00	2024-11-08T03:00:00	3	Temperatura mínima	17.6
106628	7	Sololá	704	Santa Lucía Utatlán 	7	Santa Rita 	7	Julio	2023-07-21T00:00:00	2024-11-08T03:00:00	5	Humedad	80
106629	7	Sololá	704	Santa Lucía Utatlán 	7	Santa Rita 	7	Julio	2023-07-21T00:00:00	2024-11-08T03:00:00	6	Velocidad del viento	3.2
106630	7	Sololá	704	Santa Lucía Utatlán 	7	Santa Rita 	7	Julio	2023-07-21T00:00:00	2024-11-08T03:00:00	7	Dirección del viento	3.22
106631	7	Sololá	704	Santa Lucía Utatlán 	7	Santa Rita 	7	Julio	2023-07-21T00:00:00	2024-11-08T03:00:00	1	Precipitación	0
106632	7	Sololá	704	Santa Lucía Utatlán 	7	Santa Rita 	7	Julio	2023-07-21T00:00:00	2024-11-08T03:00:00	8	Radiación solar	0
106633	7	Sololá	704	Santa Lucía Utatlán 	7	Santa Rita 	7	Julio	2023-07-21T00:00:00	2024-11-08T04:00:00	2	Temperatura media	18.1
106634	7	Sololá	704	Santa Lucía Utatlán 	7	Santa Rita 	7	Julio	2023-07-21T00:00:00	2024-11-08T04:00:00	4	Temperatura máxima	19.6
106635	7	Sololá	704	Santa Lucía Utatlán 	7	Santa Rita 	7	Julio	2023-07-21T00:00:00	2024-11-08T04:00:00	3	Temperatura mínima	18.1
106636	7	Sololá	704	Santa Lucía Utatlán 	7	Santa Rita 	7	Julio	2023-07-21T00:00:00	2024-11-08T04:00:00	5	Humedad	80
106637	7	Sololá	704	Santa Lucía Utatlán 	7	Santa Rita 	7	Julio	2023-07-21T00:00:00	2024-11-08T04:00:00	6	Velocidad del viento	3.2
106638	7	Sololá	704	Santa Lucía Utatlán 	7	Santa Rita 	7	Julio	2023-07-21T00:00:00	2024-11-08T04:00:00	7	Dirección del viento	3.22
106639	7	Sololá	704	Santa Lucía Utatlán 	7	Santa Rita 	7	Julio	2023-07-21T00:00:00	2024-11-08T04:00:00	1	Precipitación	0
106640	7	Sololá	704	Santa Lucía Utatlán 	7	Santa Rita 	7	Julio	2023-07-21T00:00:00	2024-11-08T04:00:00	8	Radiación solar	0
106641	7	Sololá	704	Santa Lucía Utatlán 	7	Santa Rita 	7	Julio	2023-07-21T00:00:00	2024-11-08T05:00:00	2	Temperatura media	19.1
106642	7	Sololá	704	Santa Lucía Utatlán 	7	Santa Rita 	7	Julio	2023-07-21T00:00:00	2024-11-08T05:00:00	4	Temperatura máxima	20.1
106643	7	Sololá	704	Santa Lucía Utatlán 	7	Santa Rita 	7	Julio	2023-07-21T00:00:00	2024-11-08T05:00:00	3	Temperatura mínima	17.7
106644	7	Sololá	704	Santa Lucía Utatlán 	7	Santa Rita 	7	Julio	2023-07-21T00:00:00	2024-11-08T05:00:00	5	Humedad	77
106645	7	Sololá	704	Santa Lucía Utatlán 	7	Santa Rita 	7	Julio	2023-07-21T00:00:00	2024-11-08T05:00:00	6	Velocidad del viento	4.8
106646	7	Sololá	704	Santa Lucía Utatlán 	7	Santa Rita 	7	Julio	2023-07-21T00:00:00	2024-11-08T05:00:00	7	Dirección del viento	4.83
106647	7	Sololá	704	Santa Lucía Utatlán 	7	Santa Rita 	7	Julio	2023-07-21T00:00:00	2024-11-08T05:00:00	1	Precipitación	0
106648	7	Sololá	704	Santa Lucía Utatlán 	7	Santa Rita 	7	Julio	2023-07-21T00:00:00	2024-11-08T05:00:00	8	Radiación solar	0
106649	7	Sololá	704	Santa Lucía Utatlán 	7	Santa Rita 	7	Julio	2023-07-21T00:00:00	2024-11-08T06:00:00	2	Temperatura media	19.6
106650	7	Sololá	704	Santa Lucía Utatlán 	7	Santa Rita 	7	Julio	2023-07-21T00:00:00	2024-11-08T06:00:00	4	Temperatura máxima	19.7
106651	7	Sololá	704	Santa Lucía Utatlán 	7	Santa Rita 	7	Julio	2023-07-21T00:00:00	2024-11-08T06:00:00	3	Temperatura mínima	17.8
106652	7	Sololá	704	Santa Lucía Utatlán 	7	Santa Rita 	7	Julio	2023-07-21T00:00:00	2024-11-08T06:00:00	5	Humedad	76
106653	7	Sololá	704	Santa Lucía Utatlán 	7	Santa Rita 	7	Julio	2023-07-21T00:00:00	2024-11-08T06:00:00	6	Velocidad del viento	4.8
106654	7	Sololá	704	Santa Lucía Utatlán 	7	Santa Rita 	7	Julio	2023-07-21T00:00:00	2024-11-08T06:00:00	7	Dirección del viento	4.83
106655	7	Sololá	704	Santa Lucía Utatlán 	7	Santa Rita 	7	Julio	2023-07-21T00:00:00	2024-11-08T06:00:00	1	Precipitación	0
106656	7	Sololá	704	Santa Lucía Utatlán 	7	Santa Rita 	7	Julio	2023-07-21T00:00:00	2024-11-08T06:00:00	8	Radiación solar	1
106657	7	Sololá	704	Santa Lucía Utatlán 	7	Santa Rita 	7	Julio	2023-07-21T00:00:00	2024-11-08T07:00:00	2	Temperatura media	21.4
106658	7	Sololá	704	Santa Lucía Utatlán 	7	Santa Rita 	7	Julio	2023-07-21T00:00:00	2024-11-08T07:00:00	4	Temperatura máxima	21.4
106659	7	Sololá	704	Santa Lucía Utatlán 	7	Santa Rita 	7	Julio	2023-07-21T00:00:00	2024-11-08T07:00:00	3	Temperatura mínima	18.6
106660	7	Sololá	704	Santa Lucía Utatlán 	7	Santa Rita 	7	Julio	2023-07-21T00:00:00	2024-11-08T07:00:00	5	Humedad	74
106661	7	Sololá	704	Santa Lucía Utatlán 	7	Santa Rita 	7	Julio	2023-07-21T00:00:00	2024-11-08T07:00:00	6	Velocidad del viento	8
106662	7	Sololá	704	Santa Lucía Utatlán 	7	Santa Rita 	7	Julio	2023-07-21T00:00:00	2024-11-08T07:00:00	7	Dirección del viento	8.05
106663	7	Sololá	704	Santa Lucía Utatlán 	7	Santa Rita 	7	Julio	2023-07-21T00:00:00	2024-11-08T07:00:00	1	Precipitación	0
106664	7	Sololá	704	Santa Lucía Utatlán 	7	Santa Rita 	7	Julio	2023-07-21T00:00:00	2024-11-08T07:00:00	8	Radiación solar	40
106665	7	Sololá	704	Santa Lucía Utatlán 	7	Santa Rita 	7	Julio	2023-07-21T00:00:00	2024-11-08T08:00:00	2	Temperatura media	23.4
106666	7	Sololá	704	Santa Lucía Utatlán 	7	Santa Rita 	7	Julio	2023-07-21T00:00:00	2024-11-08T08:00:00	4	Temperatura máxima	23.4
106667	7	Sololá	704	Santa Lucía Utatlán 	7	Santa Rita 	7	Julio	2023-07-21T00:00:00	2024-11-08T08:00:00	3	Temperatura mínima	21.4
106668	7	Sololá	704	Santa Lucía Utatlán 	7	Santa Rita 	7	Julio	2023-07-21T00:00:00	2024-11-08T08:00:00	5	Humedad	68
106669	7	Sololá	704	Santa Lucía Utatlán 	7	Santa Rita 	7	Julio	2023-07-21T00:00:00	2024-11-08T08:00:00	6	Velocidad del viento	9.7
106670	7	Sololá	704	Santa Lucía Utatlán 	7	Santa Rita 	7	Julio	2023-07-21T00:00:00	2024-11-08T08:00:00	7	Dirección del viento	9.66
106671	7	Sololá	704	Santa Lucía Utatlán 	7	Santa Rita 	7	Julio	2023-07-21T00:00:00	2024-11-08T08:00:00	1	Precipitación	0
106672	7	Sololá	704	Santa Lucía Utatlán 	7	Santa Rita 	7	Julio	2023-07-21T00:00:00	2024-11-08T08:00:00	8	Radiación solar	396
106673	7	Sololá	704	Santa Lucía Utatlán 	7	Santa Rita 	7	Julio	2023-07-21T00:00:00	2024-11-08T09:00:00	2	Temperatura media	25.6
106674	7	Sololá	704	Santa Lucía Utatlán 	7	Santa Rita 	7	Julio	2023-07-21T00:00:00	2024-11-08T09:00:00	4	Temperatura máxima	25.7
106675	7	Sololá	704	Santa Lucía Utatlán 	7	Santa Rita 	7	Julio	2023-07-21T00:00:00	2024-11-08T09:00:00	3	Temperatura mínima	23.2
106676	7	Sololá	704	Santa Lucía Utatlán 	7	Santa Rita 	7	Julio	2023-07-21T00:00:00	2024-11-08T09:00:00	5	Humedad	57
106677	7	Sololá	704	Santa Lucía Utatlán 	7	Santa Rita 	7	Julio	2023-07-21T00:00:00	2024-11-08T09:00:00	6	Velocidad del viento	6.4
106678	7	Sololá	704	Santa Lucía Utatlán 	7	Santa Rita 	7	Julio	2023-07-21T00:00:00	2024-11-08T09:00:00	7	Dirección del viento	6.44
106679	7	Sololá	704	Santa Lucía Utatlán 	7	Santa Rita 	7	Julio	2023-07-21T00:00:00	2024-11-08T09:00:00	1	Precipitación	0
106680	7	Sololá	704	Santa Lucía Utatlán 	7	Santa Rita 	7	Julio	2023-07-21T00:00:00	2024-11-08T09:00:00	8	Radiación solar	620
106681	7	Sololá	704	Santa Lucía Utatlán 	7	Santa Rita 	7	Julio	2023-07-21T00:00:00	2024-11-08T10:00:00	2	Temperatura media	26.3
106682	7	Sololá	704	Santa Lucía Utatlán 	7	Santa Rita 	7	Julio	2023-07-21T00:00:00	2024-11-08T10:00:00	4	Temperatura máxima	26.6
106683	7	Sololá	704	Santa Lucía Utatlán 	7	Santa Rita 	7	Julio	2023-07-21T00:00:00	2024-11-08T10:00:00	3	Temperatura mínima	25.4
106684	7	Sololá	704	Santa Lucía Utatlán 	7	Santa Rita 	7	Julio	2023-07-21T00:00:00	2024-11-08T10:00:00	5	Humedad	57
106685	7	Sololá	704	Santa Lucía Utatlán 	7	Santa Rita 	7	Julio	2023-07-21T00:00:00	2024-11-08T10:00:00	6	Velocidad del viento	4.8
106686	7	Sololá	704	Santa Lucía Utatlán 	7	Santa Rita 	7	Julio	2023-07-21T00:00:00	2024-11-08T10:00:00	7	Dirección del viento	4.83
106687	7	Sololá	704	Santa Lucía Utatlán 	7	Santa Rita 	7	Julio	2023-07-21T00:00:00	2024-11-08T10:00:00	1	Precipitación	0
106688	7	Sololá	704	Santa Lucía Utatlán 	7	Santa Rita 	7	Julio	2023-07-21T00:00:00	2024-11-08T10:00:00	8	Radiación solar	795
106689	7	Sololá	704	Santa Lucía Utatlán 	7	Santa Rita 	7	Julio	2023-07-21T00:00:00	2024-11-08T11:00:00	2	Temperatura media	26.2
106690	7	Sololá	704	Santa Lucía Utatlán 	7	Santa Rita 	7	Julio	2023-07-21T00:00:00	2024-11-08T11:00:00	4	Temperatura máxima	26.4
106691	7	Sololá	704	Santa Lucía Utatlán 	7	Santa Rita 	7	Julio	2023-07-21T00:00:00	2024-11-08T11:00:00	3	Temperatura mínima	25.9
106692	7	Sololá	704	Santa Lucía Utatlán 	7	Santa Rita 	7	Julio	2023-07-21T00:00:00	2024-11-08T11:00:00	5	Humedad	55
106693	7	Sololá	704	Santa Lucía Utatlán 	7	Santa Rita 	7	Julio	2023-07-21T00:00:00	2024-11-08T11:00:00	6	Velocidad del viento	8
106694	7	Sololá	704	Santa Lucía Utatlán 	7	Santa Rita 	7	Julio	2023-07-21T00:00:00	2024-11-08T11:00:00	7	Dirección del viento	8.05
106695	7	Sololá	704	Santa Lucía Utatlán 	7	Santa Rita 	7	Julio	2023-07-21T00:00:00	2024-11-08T11:00:00	1	Precipitación	0
106696	7	Sololá	704	Santa Lucía Utatlán 	7	Santa Rita 	7	Julio	2023-07-21T00:00:00	2024-11-08T11:00:00	8	Radiación solar	937
106697	7	Sololá	704	Santa Lucía Utatlán 	7	Santa Rita 	7	Julio	2023-07-21T00:00:00	2024-11-08T12:00:00	2	Temperatura media	26.4
106698	7	Sololá	704	Santa Lucía Utatlán 	7	Santa Rita 	7	Julio	2023-07-21T00:00:00	2024-11-08T12:00:00	4	Temperatura máxima	26.4
106699	7	Sololá	704	Santa Lucía Utatlán 	7	Santa Rita 	7	Julio	2023-07-21T00:00:00	2024-11-08T12:00:00	3	Temperatura mínima	25.7
106700	7	Sololá	704	Santa Lucía Utatlán 	7	Santa Rita 	7	Julio	2023-07-21T00:00:00	2024-11-08T12:00:00	5	Humedad	50
106701	7	Sololá	704	Santa Lucía Utatlán 	7	Santa Rita 	7	Julio	2023-07-21T00:00:00	2024-11-08T12:00:00	6	Velocidad del viento	9.7
106702	7	Sololá	704	Santa Lucía Utatlán 	7	Santa Rita 	7	Julio	2023-07-21T00:00:00	2024-11-08T12:00:00	7	Dirección del viento	9.66
106703	7	Sololá	704	Santa Lucía Utatlán 	7	Santa Rita 	7	Julio	2023-07-21T00:00:00	2024-11-08T12:00:00	1	Precipitación	0
106704	7	Sololá	704	Santa Lucía Utatlán 	7	Santa Rita 	7	Julio	2023-07-21T00:00:00	2024-11-08T12:00:00	8	Radiación solar	1017
106705	7	Sololá	704	Santa Lucía Utatlán 	7	Santa Rita 	7	Julio	2023-07-21T00:00:00	2024-11-08T13:00:00	2	Temperatura media	26.6
106706	7	Sololá	704	Santa Lucía Utatlán 	7	Santa Rita 	7	Julio	2023-07-21T00:00:00	2024-11-08T13:00:00	4	Temperatura máxima	27.3
106707	7	Sololá	704	Santa Lucía Utatlán 	7	Santa Rita 	7	Julio	2023-07-21T00:00:00	2024-11-08T13:00:00	3	Temperatura mínima	26.3
106708	7	Sololá	704	Santa Lucía Utatlán 	7	Santa Rita 	7	Julio	2023-07-21T00:00:00	2024-11-08T13:00:00	5	Humedad	51
106709	7	Sololá	704	Santa Lucía Utatlán 	7	Santa Rita 	7	Julio	2023-07-21T00:00:00	2024-11-08T13:00:00	6	Velocidad del viento	9.7
106710	7	Sololá	704	Santa Lucía Utatlán 	7	Santa Rita 	7	Julio	2023-07-21T00:00:00	2024-11-08T13:00:00	7	Dirección del viento	9.66
106711	7	Sololá	704	Santa Lucía Utatlán 	7	Santa Rita 	7	Julio	2023-07-21T00:00:00	2024-11-08T13:00:00	1	Precipitación	0
106712	7	Sololá	704	Santa Lucía Utatlán 	7	Santa Rita 	7	Julio	2023-07-21T00:00:00	2024-11-08T13:00:00	8	Radiación solar	1064
106713	7	Sololá	704	Santa Lucía Utatlán 	7	Santa Rita 	7	Julio	2023-07-21T00:00:00	2024-11-08T14:00:00	2	Temperatura media	26.2
106714	7	Sololá	704	Santa Lucía Utatlán 	7	Santa Rita 	7	Julio	2023-07-21T00:00:00	2024-11-08T14:00:00	4	Temperatura máxima	26.9
106715	7	Sololá	704	Santa Lucía Utatlán 	7	Santa Rita 	7	Julio	2023-07-21T00:00:00	2024-11-08T14:00:00	3	Temperatura mínima	26.1
106716	7	Sololá	704	Santa Lucía Utatlán 	7	Santa Rita 	7	Julio	2023-07-21T00:00:00	2024-11-08T14:00:00	5	Humedad	53
106717	7	Sololá	704	Santa Lucía Utatlán 	7	Santa Rita 	7	Julio	2023-07-21T00:00:00	2024-11-08T14:00:00	6	Velocidad del viento	9.7
106718	7	Sololá	704	Santa Lucía Utatlán 	7	Santa Rita 	7	Julio	2023-07-21T00:00:00	2024-11-08T14:00:00	7	Dirección del viento	9.66
106719	7	Sololá	704	Santa Lucía Utatlán 	7	Santa Rita 	7	Julio	2023-07-21T00:00:00	2024-11-08T14:00:00	1	Precipitación	0
106720	7	Sololá	704	Santa Lucía Utatlán 	7	Santa Rita 	7	Julio	2023-07-21T00:00:00	2024-11-08T14:00:00	8	Radiación solar	960
106721	7	Sololá	704	Santa Lucía Utatlán 	7	Santa Rita 	7	Julio	2023-07-21T00:00:00	2024-11-08T15:00:00	2	Temperatura media	26.4
106722	7	Sololá	704	Santa Lucía Utatlán 	7	Santa Rita 	7	Julio	2023-07-21T00:00:00	2024-11-08T15:00:00	4	Temperatura máxima	26.9
106723	7	Sololá	704	Santa Lucía Utatlán 	7	Santa Rita 	7	Julio	2023-07-21T00:00:00	2024-11-08T15:00:00	3	Temperatura mínima	26.2
106724	7	Sololá	704	Santa Lucía Utatlán 	7	Santa Rita 	7	Julio	2023-07-21T00:00:00	2024-11-08T15:00:00	5	Humedad	63
106725	7	Sololá	704	Santa Lucía Utatlán 	7	Santa Rita 	7	Julio	2023-07-21T00:00:00	2024-11-08T15:00:00	6	Velocidad del viento	9.7
106726	7	Sololá	704	Santa Lucía Utatlán 	7	Santa Rita 	7	Julio	2023-07-21T00:00:00	2024-11-08T15:00:00	7	Dirección del viento	9.66
106727	7	Sololá	704	Santa Lucía Utatlán 	7	Santa Rita 	7	Julio	2023-07-21T00:00:00	2024-11-08T15:00:00	1	Precipitación	0
106728	7	Sololá	704	Santa Lucía Utatlán 	7	Santa Rita 	7	Julio	2023-07-21T00:00:00	2024-11-08T15:00:00	8	Radiación solar	767
106729	7	Sololá	704	Santa Lucía Utatlán 	7	Santa Rita 	7	Julio	2023-07-21T00:00:00	2024-11-08T16:00:00	2	Temperatura media	25.7
106730	7	Sololá	704	Santa Lucía Utatlán 	7	Santa Rita 	7	Julio	2023-07-21T00:00:00	2024-11-08T16:00:00	4	Temperatura máxima	26.4
106731	7	Sololá	704	Santa Lucía Utatlán 	7	Santa Rita 	7	Julio	2023-07-21T00:00:00	2024-11-08T16:00:00	3	Temperatura mínima	25.5
106732	7	Sololá	704	Santa Lucía Utatlán 	7	Santa Rita 	7	Julio	2023-07-21T00:00:00	2024-11-08T16:00:00	5	Humedad	67
106733	7	Sololá	704	Santa Lucía Utatlán 	7	Santa Rita 	7	Julio	2023-07-21T00:00:00	2024-11-08T16:00:00	6	Velocidad del viento	8
106734	7	Sololá	704	Santa Lucía Utatlán 	7	Santa Rita 	7	Julio	2023-07-21T00:00:00	2024-11-08T16:00:00	7	Dirección del viento	8.05
106735	7	Sololá	704	Santa Lucía Utatlán 	7	Santa Rita 	7	Julio	2023-07-21T00:00:00	2024-11-08T16:00:00	1	Precipitación	0
106736	7	Sololá	704	Santa Lucía Utatlán 	7	Santa Rita 	7	Julio	2023-07-21T00:00:00	2024-11-08T16:00:00	8	Radiación solar	412
106737	7	Sololá	704	Santa Lucía Utatlán 	7	Santa Rita 	7	Julio	2023-07-21T00:00:00	2024-11-08T17:00:00	2	Temperatura media	24.8
106738	7	Sololá	704	Santa Lucía Utatlán 	7	Santa Rita 	7	Julio	2023-07-21T00:00:00	2024-11-08T17:00:00	4	Temperatura máxima	25.7
106739	7	Sololá	704	Santa Lucía Utatlán 	7	Santa Rita 	7	Julio	2023-07-21T00:00:00	2024-11-08T17:00:00	3	Temperatura mínima	24.8
106740	7	Sololá	704	Santa Lucía Utatlán 	7	Santa Rita 	7	Julio	2023-07-21T00:00:00	2024-11-08T17:00:00	5	Humedad	63
106741	7	Sololá	704	Santa Lucía Utatlán 	7	Santa Rita 	7	Julio	2023-07-21T00:00:00	2024-11-08T17:00:00	6	Velocidad del viento	9.7
106742	7	Sololá	704	Santa Lucía Utatlán 	7	Santa Rita 	7	Julio	2023-07-21T00:00:00	2024-11-08T17:00:00	7	Dirección del viento	9.66
106743	7	Sololá	704	Santa Lucía Utatlán 	7	Santa Rita 	7	Julio	2023-07-21T00:00:00	2024-11-08T17:00:00	1	Precipitación	0
106744	7	Sololá	704	Santa Lucía Utatlán 	7	Santa Rita 	7	Julio	2023-07-21T00:00:00	2024-11-08T17:00:00	8	Radiación solar	206
106745	7	Sololá	704	Santa Lucía Utatlán 	7	Santa Rita 	7	Julio	2023-07-21T00:00:00	2024-11-08T18:00:00	2	Temperatura media	23.1
106746	7	Sololá	704	Santa Lucía Utatlán 	7	Santa Rita 	7	Julio	2023-07-21T00:00:00	2024-11-08T18:00:00	4	Temperatura máxima	24.8
106747	7	Sololá	704	Santa Lucía Utatlán 	7	Santa Rita 	7	Julio	2023-07-21T00:00:00	2024-11-08T18:00:00	3	Temperatura mínima	23.1
106748	7	Sololá	704	Santa Lucía Utatlán 	7	Santa Rita 	7	Julio	2023-07-21T00:00:00	2024-11-08T18:00:00	5	Humedad	72
106749	7	Sololá	704	Santa Lucía Utatlán 	7	Santa Rita 	7	Julio	2023-07-21T00:00:00	2024-11-08T18:00:00	6	Velocidad del viento	4.8
106750	7	Sololá	704	Santa Lucía Utatlán 	7	Santa Rita 	7	Julio	2023-07-21T00:00:00	2024-11-08T18:00:00	7	Dirección del viento	4.83
106751	7	Sololá	704	Santa Lucía Utatlán 	7	Santa Rita 	7	Julio	2023-07-21T00:00:00	2024-11-08T18:00:00	1	Precipitación	0
106752	7	Sololá	704	Santa Lucía Utatlán 	7	Santa Rita 	7	Julio	2023-07-21T00:00:00	2024-11-08T18:00:00	8	Radiación solar	40
106753	7	Sololá	704	Santa Lucía Utatlán 	7	Santa Rita 	7	Julio	2023-07-21T00:00:00	2024-11-08T19:00:00	2	Temperatura media	20.9
106754	7	Sololá	704	Santa Lucía Utatlán 	7	Santa Rita 	7	Julio	2023-07-21T00:00:00	2024-11-08T19:00:00	4	Temperatura máxima	23.1
106755	7	Sololá	704	Santa Lucía Utatlán 	7	Santa Rita 	7	Julio	2023-07-21T00:00:00	2024-11-08T19:00:00	3	Temperatura mínima	20.9
106756	7	Sololá	704	Santa Lucía Utatlán 	7	Santa Rita 	7	Julio	2023-07-21T00:00:00	2024-11-08T19:00:00	5	Humedad	82
106757	7	Sololá	704	Santa Lucía Utatlán 	7	Santa Rita 	7	Julio	2023-07-21T00:00:00	2024-11-08T19:00:00	6	Velocidad del viento	3.2
106758	7	Sololá	704	Santa Lucía Utatlán 	7	Santa Rita 	7	Julio	2023-07-21T00:00:00	2024-11-08T19:00:00	7	Dirección del viento	3.22
106759	7	Sololá	704	Santa Lucía Utatlán 	7	Santa Rita 	7	Julio	2023-07-21T00:00:00	2024-11-08T19:00:00	1	Precipitación	0
106760	7	Sololá	704	Santa Lucía Utatlán 	7	Santa Rita 	7	Julio	2023-07-21T00:00:00	2024-11-08T19:00:00	8	Radiación solar	0
106761	7	Sololá	704	Santa Lucía Utatlán 	7	Santa Rita 	7	Julio	2023-07-21T00:00:00	2024-11-08T20:00:00	2	Temperatura media	19.8
106762	7	Sololá	704	Santa Lucía Utatlán 	7	Santa Rita 	7	Julio	2023-07-21T00:00:00	2024-11-08T20:00:00	4	Temperatura máxima	20.9
106763	7	Sololá	704	Santa Lucía Utatlán 	7	Santa Rita 	7	Julio	2023-07-21T00:00:00	2024-11-08T20:00:00	3	Temperatura mínima	19.7
106764	7	Sololá	704	Santa Lucía Utatlán 	7	Santa Rita 	7	Julio	2023-07-21T00:00:00	2024-11-08T20:00:00	5	Humedad	87
106765	7	Sololá	704	Santa Lucía Utatlán 	7	Santa Rita 	7	Julio	2023-07-21T00:00:00	2024-11-08T20:00:00	6	Velocidad del viento	4.8
106766	7	Sololá	704	Santa Lucía Utatlán 	7	Santa Rita 	7	Julio	2023-07-21T00:00:00	2024-11-08T20:00:00	7	Dirección del viento	4.83
106767	7	Sololá	704	Santa Lucía Utatlán 	7	Santa Rita 	7	Julio	2023-07-21T00:00:00	2024-11-08T20:00:00	1	Precipitación	0
106768	7	Sololá	704	Santa Lucía Utatlán 	7	Santa Rita 	7	Julio	2023-07-21T00:00:00	2024-11-08T20:00:00	8	Radiación solar	0
106769	7	Sololá	704	Santa Lucía Utatlán 	7	Santa Rita 	7	Julio	2023-07-21T00:00:00	2024-11-08T21:00:00	2	Temperatura media	19.6
106770	7	Sololá	704	Santa Lucía Utatlán 	7	Santa Rita 	7	Julio	2023-07-21T00:00:00	2024-11-08T21:00:00	4	Temperatura máxima	19.9
106771	7	Sololá	704	Santa Lucía Utatlán 	7	Santa Rita 	7	Julio	2023-07-21T00:00:00	2024-11-08T21:00:00	3	Temperatura mínima	19.4
106772	7	Sololá	704	Santa Lucía Utatlán 	7	Santa Rita 	7	Julio	2023-07-21T00:00:00	2024-11-08T21:00:00	5	Humedad	88
106773	7	Sololá	704	Santa Lucía Utatlán 	7	Santa Rita 	7	Julio	2023-07-21T00:00:00	2024-11-08T21:00:00	6	Velocidad del viento	3.2
106774	7	Sololá	704	Santa Lucía Utatlán 	7	Santa Rita 	7	Julio	2023-07-21T00:00:00	2024-11-08T21:00:00	7	Dirección del viento	3.22
106775	7	Sololá	704	Santa Lucía Utatlán 	7	Santa Rita 	7	Julio	2023-07-21T00:00:00	2024-11-08T21:00:00	1	Precipitación	0
106776	7	Sololá	704	Santa Lucía Utatlán 	7	Santa Rita 	7	Julio	2023-07-21T00:00:00	2024-11-08T21:00:00	8	Radiación solar	0
106777	7	Sololá	704	Santa Lucía Utatlán 	7	Santa Rita 	7	Julio	2023-07-21T00:00:00	2024-11-08T22:00:00	2	Temperatura media	18.9
106778	7	Sololá	704	Santa Lucía Utatlán 	7	Santa Rita 	7	Julio	2023-07-21T00:00:00	2024-11-08T22:00:00	4	Temperatura máxima	19.6
106779	7	Sololá	704	Santa Lucía Utatlán 	7	Santa Rita 	7	Julio	2023-07-21T00:00:00	2024-11-08T22:00:00	3	Temperatura mínima	18.8
106780	7	Sololá	704	Santa Lucía Utatlán 	7	Santa Rita 	7	Julio	2023-07-21T00:00:00	2024-11-08T22:00:00	5	Humedad	90
106781	7	Sololá	704	Santa Lucía Utatlán 	7	Santa Rita 	7	Julio	2023-07-21T00:00:00	2024-11-08T22:00:00	6	Velocidad del viento	3.2
106782	7	Sololá	704	Santa Lucía Utatlán 	7	Santa Rita 	7	Julio	2023-07-21T00:00:00	2024-11-08T22:00:00	7	Dirección del viento	3.22
106783	7	Sololá	704	Santa Lucía Utatlán 	7	Santa Rita 	7	Julio	2023-07-21T00:00:00	2024-11-08T22:00:00	1	Precipitación	0
106784	7	Sololá	704	Santa Lucía Utatlán 	7	Santa Rita 	7	Julio	2023-07-21T00:00:00	2024-11-08T22:00:00	8	Radiación solar	0
106785	7	Sololá	704	Santa Lucía Utatlán 	7	Santa Rita 	7	Julio	2023-07-21T00:00:00	2024-11-08T23:00:00	2	Temperatura media	18.3
106786	7	Sololá	704	Santa Lucía Utatlán 	7	Santa Rita 	7	Julio	2023-07-21T00:00:00	2024-11-08T23:00:00	4	Temperatura máxima	18.9
106787	7	Sololá	704	Santa Lucía Utatlán 	7	Santa Rita 	7	Julio	2023-07-21T00:00:00	2024-11-08T23:00:00	3	Temperatura mínima	18.3
106788	7	Sololá	704	Santa Lucía Utatlán 	7	Santa Rita 	7	Julio	2023-07-21T00:00:00	2024-11-08T23:00:00	5	Humedad	91
106789	7	Sololá	704	Santa Lucía Utatlán 	7	Santa Rita 	7	Julio	2023-07-21T00:00:00	2024-11-08T23:00:00	6	Velocidad del viento	3.2
106790	7	Sololá	704	Santa Lucía Utatlán 	7	Santa Rita 	7	Julio	2023-07-21T00:00:00	2024-11-08T23:00:00	7	Dirección del viento	3.22
106791	7	Sololá	704	Santa Lucía Utatlán 	7	Santa Rita 	7	Julio	2023-07-21T00:00:00	2024-11-08T23:00:00	1	Precipitación	0
106792	7	Sololá	704	Santa Lucía Utatlán 	7	Santa Rita 	7	Julio	2023-07-21T00:00:00	2024-11-08T23:00:00	8	Radiación solar	0
106793	7	Sololá	704	Santa Lucía Utatlán 	7	Santa Rita 	7	Julio	2023-07-22T00:00:00	2024-11-08T00:00:00	2	Temperatura media	17.8
106794	7	Sololá	704	Santa Lucía Utatlán 	7	Santa Rita 	7	Julio	2023-07-22T00:00:00	2024-11-08T00:00:00	4	Temperatura máxima	18.4
106795	7	Sololá	704	Santa Lucía Utatlán 	7	Santa Rita 	7	Julio	2023-07-22T00:00:00	2024-11-08T00:00:00	3	Temperatura mínima	17.8
106796	7	Sololá	704	Santa Lucía Utatlán 	7	Santa Rita 	7	Julio	2023-07-22T00:00:00	2024-11-08T00:00:00	5	Humedad	91
106797	7	Sololá	704	Santa Lucía Utatlán 	7	Santa Rita 	7	Julio	2023-07-22T00:00:00	2024-11-08T00:00:00	6	Velocidad del viento	3.2
106798	7	Sololá	704	Santa Lucía Utatlán 	7	Santa Rita 	7	Julio	2023-07-22T00:00:00	2024-11-08T00:00:00	7	Dirección del viento	3.22
106799	7	Sololá	704	Santa Lucía Utatlán 	7	Santa Rita 	7	Julio	2023-07-22T00:00:00	2024-11-08T00:00:00	1	Precipitación	0
106800	7	Sololá	704	Santa Lucía Utatlán 	7	Santa Rita 	7	Julio	2023-07-22T00:00:00	2024-11-08T00:00:00	8	Radiación solar	0
106801	7	Sololá	704	Santa Lucía Utatlán 	7	Santa Rita 	7	Julio	2023-07-22T00:00:00	2024-11-08T01:00:00	2	Temperatura media	17.8
106802	7	Sololá	704	Santa Lucía Utatlán 	7	Santa Rita 	7	Julio	2023-07-22T00:00:00	2024-11-08T01:00:00	4	Temperatura máxima	18
106803	7	Sololá	704	Santa Lucía Utatlán 	7	Santa Rita 	7	Julio	2023-07-22T00:00:00	2024-11-08T01:00:00	3	Temperatura mínima	17.7
106804	7	Sololá	704	Santa Lucía Utatlán 	7	Santa Rita 	7	Julio	2023-07-22T00:00:00	2024-11-08T01:00:00	5	Humedad	89
106805	7	Sololá	704	Santa Lucía Utatlán 	7	Santa Rita 	7	Julio	2023-07-22T00:00:00	2024-11-08T01:00:00	6	Velocidad del viento	3.2
106806	7	Sololá	704	Santa Lucía Utatlán 	7	Santa Rita 	7	Julio	2023-07-22T00:00:00	2024-11-08T01:00:00	7	Dirección del viento	3.22
106807	7	Sololá	704	Santa Lucía Utatlán 	7	Santa Rita 	7	Julio	2023-07-22T00:00:00	2024-11-08T01:00:00	1	Precipitación	0
106808	7	Sololá	704	Santa Lucía Utatlán 	7	Santa Rita 	7	Julio	2023-07-22T00:00:00	2024-11-08T01:00:00	8	Radiación solar	0
106809	7	Sololá	704	Santa Lucía Utatlán 	7	Santa Rita 	7	Julio	2023-07-22T00:00:00	2024-11-08T02:00:00	2	Temperatura media	17.6
106810	7	Sololá	704	Santa Lucía Utatlán 	7	Santa Rita 	7	Julio	2023-07-22T00:00:00	2024-11-08T02:00:00	4	Temperatura máxima	17.8
106811	7	Sololá	704	Santa Lucía Utatlán 	7	Santa Rita 	7	Julio	2023-07-22T00:00:00	2024-11-08T02:00:00	3	Temperatura mínima	17.3
106812	7	Sololá	704	Santa Lucía Utatlán 	7	Santa Rita 	7	Julio	2023-07-22T00:00:00	2024-11-08T02:00:00	5	Humedad	87
106813	7	Sololá	704	Santa Lucía Utatlán 	7	Santa Rita 	7	Julio	2023-07-22T00:00:00	2024-11-08T02:00:00	6	Velocidad del viento	4.8
106814	7	Sololá	704	Santa Lucía Utatlán 	7	Santa Rita 	7	Julio	2023-07-22T00:00:00	2024-11-08T02:00:00	7	Dirección del viento	4.83
106815	7	Sololá	704	Santa Lucía Utatlán 	7	Santa Rita 	7	Julio	2023-07-22T00:00:00	2024-11-08T02:00:00	1	Precipitación	0
106816	7	Sololá	704	Santa Lucía Utatlán 	7	Santa Rita 	7	Julio	2023-07-22T00:00:00	2024-11-08T02:00:00	8	Radiación solar	0
106817	7	Sololá	704	Santa Lucía Utatlán 	7	Santa Rita 	7	Julio	2023-07-22T00:00:00	2024-11-08T03:00:00	2	Temperatura media	17.8
106818	7	Sololá	704	Santa Lucía Utatlán 	7	Santa Rita 	7	Julio	2023-07-22T00:00:00	2024-11-08T03:00:00	4	Temperatura máxima	17.8
106819	7	Sololá	704	Santa Lucía Utatlán 	7	Santa Rita 	7	Julio	2023-07-22T00:00:00	2024-11-08T03:00:00	3	Temperatura mínima	17.3
106820	7	Sololá	704	Santa Lucía Utatlán 	7	Santa Rita 	7	Julio	2023-07-22T00:00:00	2024-11-08T03:00:00	5	Humedad	87
106821	7	Sololá	704	Santa Lucía Utatlán 	7	Santa Rita 	7	Julio	2023-07-22T00:00:00	2024-11-08T03:00:00	6	Velocidad del viento	4.8
106822	7	Sololá	704	Santa Lucía Utatlán 	7	Santa Rita 	7	Julio	2023-07-22T00:00:00	2024-11-08T03:00:00	7	Dirección del viento	4.83
106823	7	Sololá	704	Santa Lucía Utatlán 	7	Santa Rita 	7	Julio	2023-07-22T00:00:00	2024-11-08T03:00:00	1	Precipitación	0
106824	7	Sololá	704	Santa Lucía Utatlán 	7	Santa Rita 	7	Julio	2023-07-22T00:00:00	2024-11-08T03:00:00	8	Radiación solar	0
106825	7	Sololá	704	Santa Lucía Utatlán 	7	Santa Rita 	7	Julio	2023-07-22T00:00:00	2024-11-08T04:00:00	2	Temperatura media	17.9
106826	7	Sololá	704	Santa Lucía Utatlán 	7	Santa Rita 	7	Julio	2023-07-22T00:00:00	2024-11-08T04:00:00	4	Temperatura máxima	18.1
106827	7	Sololá	704	Santa Lucía Utatlán 	7	Santa Rita 	7	Julio	2023-07-22T00:00:00	2024-11-08T04:00:00	3	Temperatura mínima	17.7
106828	7	Sololá	704	Santa Lucía Utatlán 	7	Santa Rita 	7	Julio	2023-07-22T00:00:00	2024-11-08T04:00:00	5	Humedad	87
106829	7	Sololá	704	Santa Lucía Utatlán 	7	Santa Rita 	7	Julio	2023-07-22T00:00:00	2024-11-08T04:00:00	6	Velocidad del viento	4.8
106830	7	Sololá	704	Santa Lucía Utatlán 	7	Santa Rita 	7	Julio	2023-07-22T00:00:00	2024-11-08T04:00:00	7	Dirección del viento	4.83
106831	7	Sololá	704	Santa Lucía Utatlán 	7	Santa Rita 	7	Julio	2023-07-22T00:00:00	2024-11-08T04:00:00	1	Precipitación	0
106832	7	Sololá	704	Santa Lucía Utatlán 	7	Santa Rita 	7	Julio	2023-07-22T00:00:00	2024-11-08T04:00:00	8	Radiación solar	0
106833	7	Sololá	704	Santa Lucía Utatlán 	7	Santa Rita 	7	Julio	2023-07-22T00:00:00	2024-11-08T05:00:00	2	Temperatura media	17.3
106834	7	Sololá	704	Santa Lucía Utatlán 	7	Santa Rita 	7	Julio	2023-07-22T00:00:00	2024-11-08T05:00:00	4	Temperatura máxima	17.9
106835	7	Sololá	704	Santa Lucía Utatlán 	7	Santa Rita 	7	Julio	2023-07-22T00:00:00	2024-11-08T05:00:00	3	Temperatura mínima	17.2
106836	7	Sololá	704	Santa Lucía Utatlán 	7	Santa Rita 	7	Julio	2023-07-22T00:00:00	2024-11-08T05:00:00	5	Humedad	87
106837	7	Sololá	704	Santa Lucía Utatlán 	7	Santa Rita 	7	Julio	2023-07-22T00:00:00	2024-11-08T05:00:00	6	Velocidad del viento	3.2
106838	7	Sololá	704	Santa Lucía Utatlán 	7	Santa Rita 	7	Julio	2023-07-22T00:00:00	2024-11-08T05:00:00	7	Dirección del viento	3.22
106839	7	Sololá	704	Santa Lucía Utatlán 	7	Santa Rita 	7	Julio	2023-07-22T00:00:00	2024-11-08T05:00:00	1	Precipitación	0
106840	7	Sololá	704	Santa Lucía Utatlán 	7	Santa Rita 	7	Julio	2023-07-22T00:00:00	2024-11-08T05:00:00	8	Radiación solar	0
106841	7	Sololá	704	Santa Lucía Utatlán 	7	Santa Rita 	7	Julio	2023-07-22T00:00:00	2024-11-08T06:00:00	2	Temperatura media	17.9
106842	7	Sololá	704	Santa Lucía Utatlán 	7	Santa Rita 	7	Julio	2023-07-22T00:00:00	2024-11-08T06:00:00	4	Temperatura máxima	17.9
106843	7	Sololá	704	Santa Lucía Utatlán 	7	Santa Rita 	7	Julio	2023-07-22T00:00:00	2024-11-08T06:00:00	3	Temperatura mínima	17.3
106844	7	Sololá	704	Santa Lucía Utatlán 	7	Santa Rita 	7	Julio	2023-07-22T00:00:00	2024-11-08T06:00:00	5	Humedad	84
106845	7	Sololá	704	Santa Lucía Utatlán 	7	Santa Rita 	7	Julio	2023-07-22T00:00:00	2024-11-08T06:00:00	6	Velocidad del viento	4.8
106846	7	Sololá	704	Santa Lucía Utatlán 	7	Santa Rita 	7	Julio	2023-07-22T00:00:00	2024-11-08T06:00:00	7	Dirección del viento	4.83
106847	7	Sololá	704	Santa Lucía Utatlán 	7	Santa Rita 	7	Julio	2023-07-22T00:00:00	2024-11-08T06:00:00	1	Precipitación	0
106848	7	Sololá	704	Santa Lucía Utatlán 	7	Santa Rita 	7	Julio	2023-07-22T00:00:00	2024-11-08T06:00:00	8	Radiación solar	1
106849	7	Sololá	704	Santa Lucía Utatlán 	7	Santa Rita 	7	Julio	2023-07-22T00:00:00	2024-11-08T07:00:00	2	Temperatura media	18.6
106850	7	Sololá	704	Santa Lucía Utatlán 	7	Santa Rita 	7	Julio	2023-07-22T00:00:00	2024-11-08T07:00:00	4	Temperatura máxima	18.6
106851	7	Sololá	704	Santa Lucía Utatlán 	7	Santa Rita 	7	Julio	2023-07-22T00:00:00	2024-11-08T07:00:00	3	Temperatura mínima	17.7
106852	7	Sololá	704	Santa Lucía Utatlán 	7	Santa Rita 	7	Julio	2023-07-22T00:00:00	2024-11-08T07:00:00	5	Humedad	88
106853	7	Sololá	704	Santa Lucía Utatlán 	7	Santa Rita 	7	Julio	2023-07-22T00:00:00	2024-11-08T07:00:00	6	Velocidad del viento	1.6
106854	7	Sololá	704	Santa Lucía Utatlán 	7	Santa Rita 	7	Julio	2023-07-22T00:00:00	2024-11-08T07:00:00	7	Dirección del viento	1.61
106855	7	Sololá	704	Santa Lucía Utatlán 	7	Santa Rita 	7	Julio	2023-07-22T00:00:00	2024-11-08T07:00:00	1	Precipitación	0
106856	7	Sololá	704	Santa Lucía Utatlán 	7	Santa Rita 	7	Julio	2023-07-22T00:00:00	2024-11-08T07:00:00	8	Radiación solar	86
106857	7	Sololá	704	Santa Lucía Utatlán 	7	Santa Rita 	7	Julio	2023-07-22T00:00:00	2024-11-08T08:00:00	2	Temperatura media	21.7
106858	7	Sololá	704	Santa Lucía Utatlán 	7	Santa Rita 	7	Julio	2023-07-22T00:00:00	2024-11-08T08:00:00	4	Temperatura máxima	21.7
106859	7	Sololá	704	Santa Lucía Utatlán 	7	Santa Rita 	7	Julio	2023-07-22T00:00:00	2024-11-08T08:00:00	3	Temperatura mínima	18.7
106860	7	Sololá	704	Santa Lucía Utatlán 	7	Santa Rita 	7	Julio	2023-07-22T00:00:00	2024-11-08T08:00:00	5	Humedad	74
106861	7	Sololá	704	Santa Lucía Utatlán 	7	Santa Rita 	7	Julio	2023-07-22T00:00:00	2024-11-08T08:00:00	6	Velocidad del viento	3.2
106862	7	Sololá	704	Santa Lucía Utatlán 	7	Santa Rita 	7	Julio	2023-07-22T00:00:00	2024-11-08T08:00:00	7	Dirección del viento	3.22
106863	7	Sololá	704	Santa Lucía Utatlán 	7	Santa Rita 	7	Julio	2023-07-22T00:00:00	2024-11-08T08:00:00	1	Precipitación	0
106864	7	Sololá	704	Santa Lucía Utatlán 	7	Santa Rita 	7	Julio	2023-07-22T00:00:00	2024-11-08T08:00:00	8	Radiación solar	365
106865	7	Sololá	704	Santa Lucía Utatlán 	7	Santa Rita 	7	Julio	2023-07-22T00:00:00	2024-11-08T09:00:00	2	Temperatura media	23.9
106866	7	Sololá	704	Santa Lucía Utatlán 	7	Santa Rita 	7	Julio	2023-07-22T00:00:00	2024-11-08T09:00:00	4	Temperatura máxima	23.9
106867	7	Sololá	704	Santa Lucía Utatlán 	7	Santa Rita 	7	Julio	2023-07-22T00:00:00	2024-11-08T09:00:00	3	Temperatura mínima	21.7
106868	7	Sololá	704	Santa Lucía Utatlán 	7	Santa Rita 	7	Julio	2023-07-22T00:00:00	2024-11-08T09:00:00	5	Humedad	70
106869	7	Sololá	704	Santa Lucía Utatlán 	7	Santa Rita 	7	Julio	2023-07-22T00:00:00	2024-11-08T09:00:00	6	Velocidad del viento	3.2
106870	7	Sololá	704	Santa Lucía Utatlán 	7	Santa Rita 	7	Julio	2023-07-22T00:00:00	2024-11-08T09:00:00	7	Dirección del viento	3.22
106871	7	Sololá	704	Santa Lucía Utatlán 	7	Santa Rita 	7	Julio	2023-07-22T00:00:00	2024-11-08T09:00:00	1	Precipitación	0
106872	7	Sololá	704	Santa Lucía Utatlán 	7	Santa Rita 	7	Julio	2023-07-22T00:00:00	2024-11-08T09:00:00	8	Radiación solar	529
106873	7	Sololá	704	Santa Lucía Utatlán 	7	Santa Rita 	7	Julio	2023-07-22T00:00:00	2024-11-08T10:00:00	2	Temperatura media	23.8
106874	7	Sololá	704	Santa Lucía Utatlán 	7	Santa Rita 	7	Julio	2023-07-22T00:00:00	2024-11-08T10:00:00	4	Temperatura máxima	24.7
106875	7	Sololá	704	Santa Lucía Utatlán 	7	Santa Rita 	7	Julio	2023-07-22T00:00:00	2024-11-08T10:00:00	3	Temperatura mínima	23.6
106876	7	Sololá	704	Santa Lucía Utatlán 	7	Santa Rita 	7	Julio	2023-07-22T00:00:00	2024-11-08T10:00:00	5	Humedad	72
106877	7	Sololá	704	Santa Lucía Utatlán 	7	Santa Rita 	7	Julio	2023-07-22T00:00:00	2024-11-08T10:00:00	6	Velocidad del viento	4.8
106878	7	Sololá	704	Santa Lucía Utatlán 	7	Santa Rita 	7	Julio	2023-07-22T00:00:00	2024-11-08T10:00:00	7	Dirección del viento	4.83
106879	7	Sololá	704	Santa Lucía Utatlán 	7	Santa Rita 	7	Julio	2023-07-22T00:00:00	2024-11-08T10:00:00	1	Precipitación	0
106880	7	Sololá	704	Santa Lucía Utatlán 	7	Santa Rita 	7	Julio	2023-07-22T00:00:00	2024-11-08T10:00:00	8	Radiación solar	575
106881	7	Sololá	704	Santa Lucía Utatlán 	7	Santa Rita 	7	Julio	2023-07-22T00:00:00	2024-11-08T11:00:00	2	Temperatura media	24.3
106882	7	Sololá	704	Santa Lucía Utatlán 	7	Santa Rita 	7	Julio	2023-07-22T00:00:00	2024-11-08T11:00:00	4	Temperatura máxima	24.3
106883	7	Sololá	704	Santa Lucía Utatlán 	7	Santa Rita 	7	Julio	2023-07-22T00:00:00	2024-11-08T11:00:00	3	Temperatura mínima	23.6
106884	7	Sololá	704	Santa Lucía Utatlán 	7	Santa Rita 	7	Julio	2023-07-22T00:00:00	2024-11-08T11:00:00	5	Humedad	68
106885	7	Sololá	704	Santa Lucía Utatlán 	7	Santa Rita 	7	Julio	2023-07-22T00:00:00	2024-11-08T11:00:00	6	Velocidad del viento	3.2
106886	7	Sololá	704	Santa Lucía Utatlán 	7	Santa Rita 	7	Julio	2023-07-22T00:00:00	2024-11-08T11:00:00	7	Dirección del viento	3.22
106887	7	Sololá	704	Santa Lucía Utatlán 	7	Santa Rita 	7	Julio	2023-07-22T00:00:00	2024-11-08T11:00:00	1	Precipitación	0
106888	7	Sololá	704	Santa Lucía Utatlán 	7	Santa Rita 	7	Julio	2023-07-22T00:00:00	2024-11-08T11:00:00	8	Radiación solar	359
106889	7	Sololá	704	Santa Lucía Utatlán 	7	Santa Rita 	7	Julio	2023-07-22T00:00:00	2024-11-08T12:00:00	2	Temperatura media	22.9
106890	7	Sololá	704	Santa Lucía Utatlán 	7	Santa Rita 	7	Julio	2023-07-22T00:00:00	2024-11-08T12:00:00	4	Temperatura máxima	24.6
106891	7	Sololá	704	Santa Lucía Utatlán 	7	Santa Rita 	7	Julio	2023-07-22T00:00:00	2024-11-08T12:00:00	3	Temperatura mínima	22.9
106892	7	Sololá	704	Santa Lucía Utatlán 	7	Santa Rita 	7	Julio	2023-07-22T00:00:00	2024-11-08T12:00:00	5	Humedad	81
106893	7	Sololá	704	Santa Lucía Utatlán 	7	Santa Rita 	7	Julio	2023-07-22T00:00:00	2024-11-08T12:00:00	6	Velocidad del viento	3.2
106894	7	Sololá	704	Santa Lucía Utatlán 	7	Santa Rita 	7	Julio	2023-07-22T00:00:00	2024-11-08T12:00:00	7	Dirección del viento	3.22
106895	7	Sololá	704	Santa Lucía Utatlán 	7	Santa Rita 	7	Julio	2023-07-22T00:00:00	2024-11-08T12:00:00	1	Precipitación	0
106896	7	Sololá	704	Santa Lucía Utatlán 	7	Santa Rita 	7	Julio	2023-07-22T00:00:00	2024-11-08T12:00:00	8	Radiación solar	165
106897	7	Sololá	704	Santa Lucía Utatlán 	7	Santa Rita 	7	Julio	2023-07-22T00:00:00	2024-11-08T13:00:00	2	Temperatura media	19.7
106898	7	Sololá	704	Santa Lucía Utatlán 	7	Santa Rita 	7	Julio	2023-07-22T00:00:00	2024-11-08T13:00:00	4	Temperatura máxima	22.9
106899	7	Sololá	704	Santa Lucía Utatlán 	7	Santa Rita 	7	Julio	2023-07-22T00:00:00	2024-11-08T13:00:00	3	Temperatura mínima	19.7
106900	7	Sololá	704	Santa Lucía Utatlán 	7	Santa Rita 	7	Julio	2023-07-22T00:00:00	2024-11-08T13:00:00	5	Humedad	88
106901	7	Sololá	704	Santa Lucía Utatlán 	7	Santa Rita 	7	Julio	2023-07-22T00:00:00	2024-11-08T13:00:00	6	Velocidad del viento	6.4
106902	7	Sololá	704	Santa Lucía Utatlán 	7	Santa Rita 	7	Julio	2023-07-22T00:00:00	2024-11-08T13:00:00	7	Dirección del viento	6.44
106903	7	Sololá	704	Santa Lucía Utatlán 	7	Santa Rita 	7	Julio	2023-07-22T00:00:00	2024-11-08T13:00:00	1	Precipitación	3.4
106904	7	Sololá	704	Santa Lucía Utatlán 	7	Santa Rita 	7	Julio	2023-07-22T00:00:00	2024-11-08T13:00:00	8	Radiación solar	53
106905	7	Sololá	704	Santa Lucía Utatlán 	7	Santa Rita 	7	Julio	2023-07-22T00:00:00	2024-11-08T14:00:00	2	Temperatura media	19.6
106906	7	Sololá	704	Santa Lucía Utatlán 	7	Santa Rita 	7	Julio	2023-07-22T00:00:00	2024-11-08T14:00:00	4	Temperatura máxima	19.7
106907	7	Sololá	704	Santa Lucía Utatlán 	7	Santa Rita 	7	Julio	2023-07-22T00:00:00	2024-11-08T14:00:00	3	Temperatura mínima	18.6
106908	7	Sololá	704	Santa Lucía Utatlán 	7	Santa Rita 	7	Julio	2023-07-22T00:00:00	2024-11-08T14:00:00	5	Humedad	90
106909	7	Sololá	704	Santa Lucía Utatlán 	7	Santa Rita 	7	Julio	2023-07-22T00:00:00	2024-11-08T14:00:00	6	Velocidad del viento	3.2
106910	7	Sololá	704	Santa Lucía Utatlán 	7	Santa Rita 	7	Julio	2023-07-22T00:00:00	2024-11-08T14:00:00	7	Dirección del viento	3.22
106911	7	Sololá	704	Santa Lucía Utatlán 	7	Santa Rita 	7	Julio	2023-07-22T00:00:00	2024-11-08T14:00:00	1	Precipitación	2.2
106912	7	Sololá	704	Santa Lucía Utatlán 	7	Santa Rita 	7	Julio	2023-07-22T00:00:00	2024-11-08T14:00:00	8	Radiación solar	102
106913	7	Sololá	704	Santa Lucía Utatlán 	7	Santa Rita 	7	Julio	2023-07-22T00:00:00	2024-11-08T15:00:00	2	Temperatura media	21.4
106914	7	Sololá	704	Santa Lucía Utatlán 	7	Santa Rita 	7	Julio	2023-07-22T00:00:00	2024-11-08T15:00:00	4	Temperatura máxima	21.4
106915	7	Sololá	704	Santa Lucía Utatlán 	7	Santa Rita 	7	Julio	2023-07-22T00:00:00	2024-11-08T15:00:00	3	Temperatura mínima	19.6
106916	7	Sololá	704	Santa Lucía Utatlán 	7	Santa Rita 	7	Julio	2023-07-22T00:00:00	2024-11-08T15:00:00	5	Humedad	89
106917	7	Sololá	704	Santa Lucía Utatlán 	7	Santa Rita 	7	Julio	2023-07-22T00:00:00	2024-11-08T15:00:00	6	Velocidad del viento	1.6
106918	7	Sololá	704	Santa Lucía Utatlán 	7	Santa Rita 	7	Julio	2023-07-22T00:00:00	2024-11-08T15:00:00	7	Dirección del viento	1.61
106919	7	Sololá	704	Santa Lucía Utatlán 	7	Santa Rita 	7	Julio	2023-07-22T00:00:00	2024-11-08T15:00:00	1	Precipitación	0
106920	7	Sololá	704	Santa Lucía Utatlán 	7	Santa Rita 	7	Julio	2023-07-22T00:00:00	2024-11-08T15:00:00	8	Radiación solar	252
106921	7	Sololá	704	Santa Lucía Utatlán 	7	Santa Rita 	7	Julio	2023-07-22T00:00:00	2024-11-08T16:00:00	2	Temperatura media	21.1
106922	7	Sololá	704	Santa Lucía Utatlán 	7	Santa Rita 	7	Julio	2023-07-22T00:00:00	2024-11-08T16:00:00	4	Temperatura máxima	21.9
106923	7	Sololá	704	Santa Lucía Utatlán 	7	Santa Rita 	7	Julio	2023-07-22T00:00:00	2024-11-08T16:00:00	3	Temperatura mínima	21.1
106924	7	Sololá	704	Santa Lucía Utatlán 	7	Santa Rita 	7	Julio	2023-07-22T00:00:00	2024-11-08T16:00:00	5	Humedad	86
106925	7	Sololá	704	Santa Lucía Utatlán 	7	Santa Rita 	7	Julio	2023-07-22T00:00:00	2024-11-08T16:00:00	6	Velocidad del viento	1.6
106926	7	Sololá	704	Santa Lucía Utatlán 	7	Santa Rita 	7	Julio	2023-07-22T00:00:00	2024-11-08T16:00:00	7	Dirección del viento	1.61
106927	7	Sololá	704	Santa Lucía Utatlán 	7	Santa Rita 	7	Julio	2023-07-22T00:00:00	2024-11-08T16:00:00	1	Precipitación	0
106928	7	Sololá	704	Santa Lucía Utatlán 	7	Santa Rita 	7	Julio	2023-07-22T00:00:00	2024-11-08T16:00:00	8	Radiación solar	149
106929	7	Sololá	704	Santa Lucía Utatlán 	7	Santa Rita 	7	Julio	2023-07-22T00:00:00	2024-11-08T17:00:00	2	Temperatura media	19.3
106930	7	Sololá	704	Santa Lucía Utatlán 	7	Santa Rita 	7	Julio	2023-07-22T00:00:00	2024-11-08T17:00:00	4	Temperatura máxima	21.1
106931	7	Sololá	704	Santa Lucía Utatlán 	7	Santa Rita 	7	Julio	2023-07-22T00:00:00	2024-11-08T17:00:00	3	Temperatura mínima	19.3
106932	7	Sololá	704	Santa Lucía Utatlán 	7	Santa Rita 	7	Julio	2023-07-22T00:00:00	2024-11-08T17:00:00	5	Humedad	93
106933	7	Sololá	704	Santa Lucía Utatlán 	7	Santa Rita 	7	Julio	2023-07-22T00:00:00	2024-11-08T17:00:00	6	Velocidad del viento	3.2
106934	7	Sololá	704	Santa Lucía Utatlán 	7	Santa Rita 	7	Julio	2023-07-22T00:00:00	2024-11-08T17:00:00	7	Dirección del viento	3.22
106935	7	Sololá	704	Santa Lucía Utatlán 	7	Santa Rita 	7	Julio	2023-07-22T00:00:00	2024-11-08T17:00:00	1	Precipitación	0.8
106936	7	Sololá	704	Santa Lucía Utatlán 	7	Santa Rita 	7	Julio	2023-07-22T00:00:00	2024-11-08T17:00:00	8	Radiación solar	23
106937	7	Sololá	704	Santa Lucía Utatlán 	7	Santa Rita 	7	Julio	2023-07-22T00:00:00	2024-11-08T18:00:00	2	Temperatura media	19.3
106938	7	Sololá	704	Santa Lucía Utatlán 	7	Santa Rita 	7	Julio	2023-07-22T00:00:00	2024-11-08T18:00:00	4	Temperatura máxima	19.5
106939	7	Sololá	704	Santa Lucía Utatlán 	7	Santa Rita 	7	Julio	2023-07-22T00:00:00	2024-11-08T18:00:00	3	Temperatura mínima	19.3
106940	7	Sololá	704	Santa Lucía Utatlán 	7	Santa Rita 	7	Julio	2023-07-22T00:00:00	2024-11-08T18:00:00	5	Humedad	93
106941	7	Sololá	704	Santa Lucía Utatlán 	7	Santa Rita 	7	Julio	2023-07-22T00:00:00	2024-11-08T18:00:00	6	Velocidad del viento	1.6
106942	7	Sololá	704	Santa Lucía Utatlán 	7	Santa Rita 	7	Julio	2023-07-22T00:00:00	2024-11-08T18:00:00	7	Dirección del viento	1.61
106943	7	Sololá	704	Santa Lucía Utatlán 	7	Santa Rita 	7	Julio	2023-07-22T00:00:00	2024-11-08T18:00:00	1	Precipitación	0.8
106944	7	Sololá	704	Santa Lucía Utatlán 	7	Santa Rita 	7	Julio	2023-07-22T00:00:00	2024-11-08T18:00:00	8	Radiación solar	33
106945	7	Sololá	704	Santa Lucía Utatlán 	7	Santa Rita 	7	Julio	2023-07-22T00:00:00	2024-11-08T19:00:00	2	Temperatura media	18.4
106946	7	Sololá	704	Santa Lucía Utatlán 	7	Santa Rita 	7	Julio	2023-07-22T00:00:00	2024-11-08T19:00:00	4	Temperatura máxima	19.3
106947	7	Sololá	704	Santa Lucía Utatlán 	7	Santa Rita 	7	Julio	2023-07-22T00:00:00	2024-11-08T19:00:00	3	Temperatura mínima	18.4
106948	7	Sololá	704	Santa Lucía Utatlán 	7	Santa Rita 	7	Julio	2023-07-22T00:00:00	2024-11-08T19:00:00	5	Humedad	93
106949	7	Sololá	704	Santa Lucía Utatlán 	7	Santa Rita 	7	Julio	2023-07-22T00:00:00	2024-11-08T19:00:00	6	Velocidad del viento	3.2
106950	7	Sololá	704	Santa Lucía Utatlán 	7	Santa Rita 	7	Julio	2023-07-22T00:00:00	2024-11-08T19:00:00	7	Dirección del viento	3.22
106951	7	Sololá	704	Santa Lucía Utatlán 	7	Santa Rita 	7	Julio	2023-07-22T00:00:00	2024-11-08T19:00:00	1	Precipitación	0
106952	7	Sololá	704	Santa Lucía Utatlán 	7	Santa Rita 	7	Julio	2023-07-22T00:00:00	2024-11-08T19:00:00	8	Radiación solar	0
106953	7	Sololá	704	Santa Lucía Utatlán 	7	Santa Rita 	7	Julio	2023-07-22T00:00:00	2024-11-08T20:00:00	2	Temperatura media	18
106954	7	Sololá	704	Santa Lucía Utatlán 	7	Santa Rita 	7	Julio	2023-07-22T00:00:00	2024-11-08T20:00:00	4	Temperatura máxima	18.4
106955	7	Sololá	704	Santa Lucía Utatlán 	7	Santa Rita 	7	Julio	2023-07-22T00:00:00	2024-11-08T20:00:00	3	Temperatura mínima	17.9
106956	7	Sololá	704	Santa Lucía Utatlán 	7	Santa Rita 	7	Julio	2023-07-22T00:00:00	2024-11-08T20:00:00	5	Humedad	93
106957	7	Sololá	704	Santa Lucía Utatlán 	7	Santa Rita 	7	Julio	2023-07-22T00:00:00	2024-11-08T20:00:00	6	Velocidad del viento	1.6
106958	7	Sololá	704	Santa Lucía Utatlán 	7	Santa Rita 	7	Julio	2023-07-22T00:00:00	2024-11-08T20:00:00	7	Dirección del viento	1.61
106959	7	Sololá	704	Santa Lucía Utatlán 	7	Santa Rita 	7	Julio	2023-07-22T00:00:00	2024-11-08T20:00:00	1	Precipitación	0
106960	7	Sololá	704	Santa Lucía Utatlán 	7	Santa Rita 	7	Julio	2023-07-22T00:00:00	2024-11-08T20:00:00	8	Radiación solar	0
106961	7	Sololá	704	Santa Lucía Utatlán 	7	Santa Rita 	7	Julio	2023-07-22T00:00:00	2024-11-08T21:00:00	2	Temperatura media	17.7
106962	7	Sololá	704	Santa Lucía Utatlán 	7	Santa Rita 	7	Julio	2023-07-22T00:00:00	2024-11-08T21:00:00	4	Temperatura máxima	18
106963	7	Sololá	704	Santa Lucía Utatlán 	7	Santa Rita 	7	Julio	2023-07-22T00:00:00	2024-11-08T21:00:00	3	Temperatura mínima	17.7
106964	7	Sololá	704	Santa Lucía Utatlán 	7	Santa Rita 	7	Julio	2023-07-22T00:00:00	2024-11-08T21:00:00	5	Humedad	93
106965	7	Sololá	704	Santa Lucía Utatlán 	7	Santa Rita 	7	Julio	2023-07-22T00:00:00	2024-11-08T21:00:00	6	Velocidad del viento	3.2
106966	7	Sololá	704	Santa Lucía Utatlán 	7	Santa Rita 	7	Julio	2023-07-22T00:00:00	2024-11-08T21:00:00	7	Dirección del viento	3.22
106967	7	Sololá	704	Santa Lucía Utatlán 	7	Santa Rita 	7	Julio	2023-07-22T00:00:00	2024-11-08T21:00:00	1	Precipitación	0
106968	7	Sololá	704	Santa Lucía Utatlán 	7	Santa Rita 	7	Julio	2023-07-22T00:00:00	2024-11-08T21:00:00	8	Radiación solar	0
106969	7	Sololá	704	Santa Lucía Utatlán 	7	Santa Rita 	7	Julio	2023-07-22T00:00:00	2024-11-08T22:00:00	2	Temperatura media	17.7
106970	7	Sololá	704	Santa Lucía Utatlán 	7	Santa Rita 	7	Julio	2023-07-22T00:00:00	2024-11-08T22:00:00	4	Temperatura máxima	17.8
106971	7	Sololá	704	Santa Lucía Utatlán 	7	Santa Rita 	7	Julio	2023-07-22T00:00:00	2024-11-08T22:00:00	3	Temperatura mínima	17.6
106972	7	Sololá	704	Santa Lucía Utatlán 	7	Santa Rita 	7	Julio	2023-07-22T00:00:00	2024-11-08T22:00:00	5	Humedad	92
106973	7	Sololá	704	Santa Lucía Utatlán 	7	Santa Rita 	7	Julio	2023-07-22T00:00:00	2024-11-08T22:00:00	6	Velocidad del viento	4.8
106974	7	Sololá	704	Santa Lucía Utatlán 	7	Santa Rita 	7	Julio	2023-07-22T00:00:00	2024-11-08T22:00:00	7	Dirección del viento	4.83
106975	7	Sololá	704	Santa Lucía Utatlán 	7	Santa Rita 	7	Julio	2023-07-22T00:00:00	2024-11-08T22:00:00	1	Precipitación	0
106976	7	Sololá	704	Santa Lucía Utatlán 	7	Santa Rita 	7	Julio	2023-07-22T00:00:00	2024-11-08T22:00:00	8	Radiación solar	0
106977	7	Sololá	704	Santa Lucía Utatlán 	7	Santa Rita 	7	Julio	2023-07-22T00:00:00	2024-11-08T23:00:00	2	Temperatura media	17.6
106978	7	Sololá	704	Santa Lucía Utatlán 	7	Santa Rita 	7	Julio	2023-07-22T00:00:00	2024-11-08T23:00:00	4	Temperatura máxima	17.9
106979	7	Sololá	704	Santa Lucía Utatlán 	7	Santa Rita 	7	Julio	2023-07-22T00:00:00	2024-11-08T23:00:00	3	Temperatura mínima	17.5
106980	7	Sololá	704	Santa Lucía Utatlán 	7	Santa Rita 	7	Julio	2023-07-22T00:00:00	2024-11-08T23:00:00	5	Humedad	91
106981	7	Sololá	704	Santa Lucía Utatlán 	7	Santa Rita 	7	Julio	2023-07-22T00:00:00	2024-11-08T23:00:00	6	Velocidad del viento	4.8
106982	7	Sololá	704	Santa Lucía Utatlán 	7	Santa Rita 	7	Julio	2023-07-22T00:00:00	2024-11-08T23:00:00	7	Dirección del viento	4.83
106983	7	Sololá	704	Santa Lucía Utatlán 	7	Santa Rita 	7	Julio	2023-07-22T00:00:00	2024-11-08T23:00:00	1	Precipitación	0
106984	7	Sololá	704	Santa Lucía Utatlán 	7	Santa Rita 	7	Julio	2023-07-22T00:00:00	2024-11-08T23:00:00	8	Radiación solar	0
106985	7	Sololá	704	Santa Lucía Utatlán 	7	Santa Rita 	7	Julio	2023-07-23T00:00:00	2024-11-08T00:00:00	2	Temperatura media	17.2
106986	7	Sololá	704	Santa Lucía Utatlán 	7	Santa Rita 	7	Julio	2023-07-23T00:00:00	2024-11-08T00:00:00	4	Temperatura máxima	17.6
106987	7	Sololá	704	Santa Lucía Utatlán 	7	Santa Rita 	7	Julio	2023-07-23T00:00:00	2024-11-08T00:00:00	3	Temperatura mínima	17.2
106988	7	Sololá	704	Santa Lucía Utatlán 	7	Santa Rita 	7	Julio	2023-07-23T00:00:00	2024-11-08T00:00:00	5	Humedad	91
106989	7	Sololá	704	Santa Lucía Utatlán 	7	Santa Rita 	7	Julio	2023-07-23T00:00:00	2024-11-08T00:00:00	6	Velocidad del viento	3.2
106990	7	Sololá	704	Santa Lucía Utatlán 	7	Santa Rita 	7	Julio	2023-07-23T00:00:00	2024-11-08T00:00:00	7	Dirección del viento	3.22
106991	7	Sololá	704	Santa Lucía Utatlán 	7	Santa Rita 	7	Julio	2023-07-23T00:00:00	2024-11-08T00:00:00	1	Precipitación	0
106992	7	Sololá	704	Santa Lucía Utatlán 	7	Santa Rita 	7	Julio	2023-07-23T00:00:00	2024-11-08T00:00:00	8	Radiación solar	0
106993	7	Sololá	704	Santa Lucía Utatlán 	7	Santa Rita 	7	Julio	2023-07-23T00:00:00	2024-11-08T01:00:00	2	Temperatura media	17.7
106994	7	Sololá	704	Santa Lucía Utatlán 	7	Santa Rita 	7	Julio	2023-07-23T00:00:00	2024-11-08T01:00:00	4	Temperatura máxima	17.8
106995	7	Sololá	704	Santa Lucía Utatlán 	7	Santa Rita 	7	Julio	2023-07-23T00:00:00	2024-11-08T01:00:00	3	Temperatura mínima	17.2
106996	7	Sololá	704	Santa Lucía Utatlán 	7	Santa Rita 	7	Julio	2023-07-23T00:00:00	2024-11-08T01:00:00	5	Humedad	89
106997	7	Sololá	704	Santa Lucía Utatlán 	7	Santa Rita 	7	Julio	2023-07-23T00:00:00	2024-11-08T01:00:00	6	Velocidad del viento	4.8
106998	7	Sololá	704	Santa Lucía Utatlán 	7	Santa Rita 	7	Julio	2023-07-23T00:00:00	2024-11-08T01:00:00	7	Dirección del viento	4.83
106999	7	Sololá	704	Santa Lucía Utatlán 	7	Santa Rita 	7	Julio	2023-07-23T00:00:00	2024-11-08T01:00:00	1	Precipitación	0
107000	7	Sololá	704	Santa Lucía Utatlán 	7	Santa Rita 	7	Julio	2023-07-23T00:00:00	2024-11-08T01:00:00	8	Radiación solar	0
107001	7	Sololá	704	Santa Lucía Utatlán 	7	Santa Rita 	7	Julio	2023-07-23T00:00:00	2024-11-08T02:00:00	2	Temperatura media	17.8
107002	7	Sololá	704	Santa Lucía Utatlán 	7	Santa Rita 	7	Julio	2023-07-23T00:00:00	2024-11-08T02:00:00	4	Temperatura máxima	17.9
107003	7	Sololá	704	Santa Lucía Utatlán 	7	Santa Rita 	7	Julio	2023-07-23T00:00:00	2024-11-08T02:00:00	3	Temperatura mínima	17.7
107004	7	Sololá	704	Santa Lucía Utatlán 	7	Santa Rita 	7	Julio	2023-07-23T00:00:00	2024-11-08T02:00:00	5	Humedad	88
107005	7	Sololá	704	Santa Lucía Utatlán 	7	Santa Rita 	7	Julio	2023-07-23T00:00:00	2024-11-08T02:00:00	6	Velocidad del viento	4.8
107006	7	Sololá	704	Santa Lucía Utatlán 	7	Santa Rita 	7	Julio	2023-07-23T00:00:00	2024-11-08T02:00:00	7	Dirección del viento	4.83
107007	7	Sololá	704	Santa Lucía Utatlán 	7	Santa Rita 	7	Julio	2023-07-23T00:00:00	2024-11-08T02:00:00	1	Precipitación	0
107008	7	Sololá	704	Santa Lucía Utatlán 	7	Santa Rita 	7	Julio	2023-07-23T00:00:00	2024-11-08T02:00:00	8	Radiación solar	0
107009	7	Sololá	704	Santa Lucía Utatlán 	7	Santa Rita 	7	Julio	2023-07-23T00:00:00	2024-11-08T03:00:00	2	Temperatura media	17.4
107010	7	Sololá	704	Santa Lucía Utatlán 	7	Santa Rita 	7	Julio	2023-07-23T00:00:00	2024-11-08T03:00:00	4	Temperatura máxima	17.8
107011	7	Sololá	704	Santa Lucía Utatlán 	7	Santa Rita 	7	Julio	2023-07-23T00:00:00	2024-11-08T03:00:00	3	Temperatura mínima	16.8
107012	7	Sololá	704	Santa Lucía Utatlán 	7	Santa Rita 	7	Julio	2023-07-23T00:00:00	2024-11-08T03:00:00	5	Humedad	89
107013	7	Sololá	704	Santa Lucía Utatlán 	7	Santa Rita 	7	Julio	2023-07-23T00:00:00	2024-11-08T03:00:00	6	Velocidad del viento	3.2
107014	7	Sololá	704	Santa Lucía Utatlán 	7	Santa Rita 	7	Julio	2023-07-23T00:00:00	2024-11-08T03:00:00	7	Dirección del viento	3.22
107015	7	Sololá	704	Santa Lucía Utatlán 	7	Santa Rita 	7	Julio	2023-07-23T00:00:00	2024-11-08T03:00:00	1	Precipitación	0
107016	7	Sololá	704	Santa Lucía Utatlán 	7	Santa Rita 	7	Julio	2023-07-23T00:00:00	2024-11-08T03:00:00	8	Radiación solar	0
107017	7	Sololá	704	Santa Lucía Utatlán 	7	Santa Rita 	7	Julio	2023-07-23T00:00:00	2024-11-08T04:00:00	2	Temperatura media	17.1
107018	7	Sololá	704	Santa Lucía Utatlán 	7	Santa Rita 	7	Julio	2023-07-23T00:00:00	2024-11-08T04:00:00	4	Temperatura máxima	17.7
107019	7	Sololá	704	Santa Lucía Utatlán 	7	Santa Rita 	7	Julio	2023-07-23T00:00:00	2024-11-08T04:00:00	3	Temperatura mínima	17.1
107020	7	Sololá	704	Santa Lucía Utatlán 	7	Santa Rita 	7	Julio	2023-07-23T00:00:00	2024-11-08T04:00:00	5	Humedad	91
107021	7	Sololá	704	Santa Lucía Utatlán 	7	Santa Rita 	7	Julio	2023-07-23T00:00:00	2024-11-08T04:00:00	6	Velocidad del viento	3.2
107022	7	Sololá	704	Santa Lucía Utatlán 	7	Santa Rita 	7	Julio	2023-07-23T00:00:00	2024-11-08T04:00:00	7	Dirección del viento	3.22
107023	7	Sololá	704	Santa Lucía Utatlán 	7	Santa Rita 	7	Julio	2023-07-23T00:00:00	2024-11-08T04:00:00	1	Precipitación	0
107024	7	Sololá	704	Santa Lucía Utatlán 	7	Santa Rita 	7	Julio	2023-07-23T00:00:00	2024-11-08T04:00:00	8	Radiación solar	0
107025	7	Sololá	704	Santa Lucía Utatlán 	7	Santa Rita 	7	Julio	2023-07-23T00:00:00	2024-11-08T05:00:00	2	Temperatura media	17.2
107026	7	Sololá	704	Santa Lucía Utatlán 	7	Santa Rita 	7	Julio	2023-07-23T00:00:00	2024-11-08T05:00:00	4	Temperatura máxima	17.4
107027	7	Sololá	704	Santa Lucía Utatlán 	7	Santa Rita 	7	Julio	2023-07-23T00:00:00	2024-11-08T05:00:00	3	Temperatura mínima	17.1
107028	7	Sololá	704	Santa Lucía Utatlán 	7	Santa Rita 	7	Julio	2023-07-23T00:00:00	2024-11-08T05:00:00	5	Humedad	91
107029	7	Sololá	704	Santa Lucía Utatlán 	7	Santa Rita 	7	Julio	2023-07-23T00:00:00	2024-11-08T05:00:00	6	Velocidad del viento	4.8
107030	7	Sololá	704	Santa Lucía Utatlán 	7	Santa Rita 	7	Julio	2023-07-23T00:00:00	2024-11-08T05:00:00	7	Dirección del viento	4.83
107031	7	Sololá	704	Santa Lucía Utatlán 	7	Santa Rita 	7	Julio	2023-07-23T00:00:00	2024-11-08T05:00:00	1	Precipitación	0
107032	7	Sololá	704	Santa Lucía Utatlán 	7	Santa Rita 	7	Julio	2023-07-23T00:00:00	2024-11-08T05:00:00	8	Radiación solar	0
107033	7	Sololá	704	Santa Lucía Utatlán 	7	Santa Rita 	7	Julio	2023-07-23T00:00:00	2024-11-08T06:00:00	2	Temperatura media	16.6
107034	7	Sololá	704	Santa Lucía Utatlán 	7	Santa Rita 	7	Julio	2023-07-23T00:00:00	2024-11-08T06:00:00	4	Temperatura máxima	17.3
107035	7	Sololá	704	Santa Lucía Utatlán 	7	Santa Rita 	7	Julio	2023-07-23T00:00:00	2024-11-08T06:00:00	3	Temperatura mínima	16.4
107036	7	Sololá	704	Santa Lucía Utatlán 	7	Santa Rita 	7	Julio	2023-07-23T00:00:00	2024-11-08T06:00:00	5	Humedad	92
107037	7	Sololá	704	Santa Lucía Utatlán 	7	Santa Rita 	7	Julio	2023-07-23T00:00:00	2024-11-08T06:00:00	6	Velocidad del viento	3.2
107038	7	Sololá	704	Santa Lucía Utatlán 	7	Santa Rita 	7	Julio	2023-07-23T00:00:00	2024-11-08T06:00:00	7	Dirección del viento	3.22
107039	7	Sololá	704	Santa Lucía Utatlán 	7	Santa Rita 	7	Julio	2023-07-23T00:00:00	2024-11-08T06:00:00	1	Precipitación	0
107040	7	Sololá	704	Santa Lucía Utatlán 	7	Santa Rita 	7	Julio	2023-07-23T00:00:00	2024-11-08T06:00:00	8	Radiación solar	1
107041	7	Sololá	704	Santa Lucía Utatlán 	7	Santa Rita 	7	Julio	2023-07-23T00:00:00	2024-11-08T07:00:00	2	Temperatura media	17.8
107042	7	Sololá	704	Santa Lucía Utatlán 	7	Santa Rita 	7	Julio	2023-07-23T00:00:00	2024-11-08T07:00:00	4	Temperatura máxima	17.8
107043	7	Sololá	704	Santa Lucía Utatlán 	7	Santa Rita 	7	Julio	2023-07-23T00:00:00	2024-11-08T07:00:00	3	Temperatura mínima	16.6
107044	7	Sololá	704	Santa Lucía Utatlán 	7	Santa Rita 	7	Julio	2023-07-23T00:00:00	2024-11-08T07:00:00	5	Humedad	92
107045	7	Sololá	704	Santa Lucía Utatlán 	7	Santa Rita 	7	Julio	2023-07-23T00:00:00	2024-11-08T07:00:00	6	Velocidad del viento	3.2
107046	7	Sololá	704	Santa Lucía Utatlán 	7	Santa Rita 	7	Julio	2023-07-23T00:00:00	2024-11-08T07:00:00	7	Dirección del viento	3.22
107047	7	Sololá	704	Santa Lucía Utatlán 	7	Santa Rita 	7	Julio	2023-07-23T00:00:00	2024-11-08T07:00:00	1	Precipitación	0
107048	7	Sololá	704	Santa Lucía Utatlán 	7	Santa Rita 	7	Julio	2023-07-23T00:00:00	2024-11-08T07:00:00	8	Radiación solar	54
107049	7	Sololá	704	Santa Lucía Utatlán 	7	Santa Rita 	7	Julio	2023-07-23T00:00:00	2024-11-08T08:00:00	2	Temperatura media	21.3
107050	7	Sololá	704	Santa Lucía Utatlán 	7	Santa Rita 	7	Julio	2023-07-23T00:00:00	2024-11-08T08:00:00	4	Temperatura máxima	21.3
107051	7	Sololá	704	Santa Lucía Utatlán 	7	Santa Rita 	7	Julio	2023-07-23T00:00:00	2024-11-08T08:00:00	3	Temperatura mínima	17.8
107052	7	Sololá	704	Santa Lucía Utatlán 	7	Santa Rita 	7	Julio	2023-07-23T00:00:00	2024-11-08T08:00:00	5	Humedad	84
107053	7	Sololá	704	Santa Lucía Utatlán 	7	Santa Rita 	7	Julio	2023-07-23T00:00:00	2024-11-08T08:00:00	6	Velocidad del viento	1.6
107054	7	Sololá	704	Santa Lucía Utatlán 	7	Santa Rita 	7	Julio	2023-07-23T00:00:00	2024-11-08T08:00:00	7	Dirección del viento	1.61
107055	7	Sololá	704	Santa Lucía Utatlán 	7	Santa Rita 	7	Julio	2023-07-23T00:00:00	2024-11-08T08:00:00	1	Precipitación	0
107056	7	Sololá	704	Santa Lucía Utatlán 	7	Santa Rita 	7	Julio	2023-07-23T00:00:00	2024-11-08T08:00:00	8	Radiación solar	319
107057	7	Sololá	704	Santa Lucía Utatlán 	7	Santa Rita 	7	Julio	2023-07-23T00:00:00	2024-11-08T09:00:00	2	Temperatura media	23.3
107058	7	Sololá	704	Santa Lucía Utatlán 	7	Santa Rita 	7	Julio	2023-07-23T00:00:00	2024-11-08T09:00:00	4	Temperatura máxima	23.3
107059	7	Sololá	704	Santa Lucía Utatlán 	7	Santa Rita 	7	Julio	2023-07-23T00:00:00	2024-11-08T09:00:00	3	Temperatura mínima	21.3
107060	7	Sololá	704	Santa Lucía Utatlán 	7	Santa Rita 	7	Julio	2023-07-23T00:00:00	2024-11-08T09:00:00	5	Humedad	69
107061	7	Sololá	704	Santa Lucía Utatlán 	7	Santa Rita 	7	Julio	2023-07-23T00:00:00	2024-11-08T09:00:00	6	Velocidad del viento	3.2
107062	7	Sololá	704	Santa Lucía Utatlán 	7	Santa Rita 	7	Julio	2023-07-23T00:00:00	2024-11-08T09:00:00	7	Dirección del viento	3.22
107063	7	Sololá	704	Santa Lucía Utatlán 	7	Santa Rita 	7	Julio	2023-07-23T00:00:00	2024-11-08T09:00:00	1	Precipitación	0
107064	7	Sololá	704	Santa Lucía Utatlán 	7	Santa Rita 	7	Julio	2023-07-23T00:00:00	2024-11-08T09:00:00	8	Radiación solar	451
107065	7	Sololá	704	Santa Lucía Utatlán 	7	Santa Rita 	7	Julio	2023-07-23T00:00:00	2024-11-08T10:00:00	2	Temperatura media	23.8
107066	7	Sololá	704	Santa Lucía Utatlán 	7	Santa Rita 	7	Julio	2023-07-23T00:00:00	2024-11-08T10:00:00	4	Temperatura máxima	23.9
107067	7	Sololá	704	Santa Lucía Utatlán 	7	Santa Rita 	7	Julio	2023-07-23T00:00:00	2024-11-08T10:00:00	3	Temperatura mínima	22.6
107068	7	Sololá	704	Santa Lucía Utatlán 	7	Santa Rita 	7	Julio	2023-07-23T00:00:00	2024-11-08T10:00:00	5	Humedad	67
107069	7	Sololá	704	Santa Lucía Utatlán 	7	Santa Rita 	7	Julio	2023-07-23T00:00:00	2024-11-08T10:00:00	6	Velocidad del viento	6.4
107070	7	Sololá	704	Santa Lucía Utatlán 	7	Santa Rita 	7	Julio	2023-07-23T00:00:00	2024-11-08T10:00:00	7	Dirección del viento	6.44
107071	7	Sololá	704	Santa Lucía Utatlán 	7	Santa Rita 	7	Julio	2023-07-23T00:00:00	2024-11-08T10:00:00	1	Precipitación	0
107072	7	Sololá	704	Santa Lucía Utatlán 	7	Santa Rita 	7	Julio	2023-07-23T00:00:00	2024-11-08T10:00:00	8	Radiación solar	609
107073	7	Sololá	704	Santa Lucía Utatlán 	7	Santa Rita 	7	Julio	2023-07-23T00:00:00	2024-11-08T11:00:00	2	Temperatura media	24.6
107074	7	Sololá	704	Santa Lucía Utatlán 	7	Santa Rita 	7	Julio	2023-07-23T00:00:00	2024-11-08T11:00:00	4	Temperatura máxima	24.6
107075	7	Sololá	704	Santa Lucía Utatlán 	7	Santa Rita 	7	Julio	2023-07-23T00:00:00	2024-11-08T11:00:00	3	Temperatura mínima	23.8
107076	7	Sololá	704	Santa Lucía Utatlán 	7	Santa Rita 	7	Julio	2023-07-23T00:00:00	2024-11-08T11:00:00	5	Humedad	67
107077	7	Sololá	704	Santa Lucía Utatlán 	7	Santa Rita 	7	Julio	2023-07-23T00:00:00	2024-11-08T11:00:00	6	Velocidad del viento	6.4
107078	7	Sololá	704	Santa Lucía Utatlán 	7	Santa Rita 	7	Julio	2023-07-23T00:00:00	2024-11-08T11:00:00	7	Dirección del viento	6.44
107079	7	Sololá	704	Santa Lucía Utatlán 	7	Santa Rita 	7	Julio	2023-07-23T00:00:00	2024-11-08T11:00:00	1	Precipitación	0
107080	7	Sololá	704	Santa Lucía Utatlán 	7	Santa Rita 	7	Julio	2023-07-23T00:00:00	2024-11-08T11:00:00	8	Radiación solar	670
107081	7	Sololá	704	Santa Lucía Utatlán 	7	Santa Rita 	7	Julio	2023-07-23T00:00:00	2024-11-08T12:00:00	2	Temperatura media	20.8
107082	7	Sololá	704	Santa Lucía Utatlán 	7	Santa Rita 	7	Julio	2023-07-23T00:00:00	2024-11-08T12:00:00	4	Temperatura máxima	24.9
107083	7	Sololá	704	Santa Lucía Utatlán 	7	Santa Rita 	7	Julio	2023-07-23T00:00:00	2024-11-08T12:00:00	3	Temperatura mínima	20.4
107084	7	Sololá	704	Santa Lucía Utatlán 	7	Santa Rita 	7	Julio	2023-07-23T00:00:00	2024-11-08T12:00:00	5	Humedad	87
107085	7	Sololá	704	Santa Lucía Utatlán 	7	Santa Rita 	7	Julio	2023-07-23T00:00:00	2024-11-08T12:00:00	6	Velocidad del viento	6.4
107086	7	Sololá	704	Santa Lucía Utatlán 	7	Santa Rita 	7	Julio	2023-07-23T00:00:00	2024-11-08T12:00:00	7	Dirección del viento	6.44
107087	7	Sololá	704	Santa Lucía Utatlán 	7	Santa Rita 	7	Julio	2023-07-23T00:00:00	2024-11-08T12:00:00	1	Precipitación	1
107088	7	Sololá	704	Santa Lucía Utatlán 	7	Santa Rita 	7	Julio	2023-07-23T00:00:00	2024-11-08T12:00:00	8	Radiación solar	298
107089	7	Sololá	704	Santa Lucía Utatlán 	7	Santa Rita 	7	Julio	2023-07-23T00:00:00	2024-11-08T13:00:00	2	Temperatura media	23.3
107090	7	Sololá	704	Santa Lucía Utatlán 	7	Santa Rita 	7	Julio	2023-07-23T00:00:00	2024-11-08T13:00:00	4	Temperatura máxima	23.5
107091	7	Sololá	704	Santa Lucía Utatlán 	7	Santa Rita 	7	Julio	2023-07-23T00:00:00	2024-11-08T13:00:00	3	Temperatura mínima	20.8
107092	7	Sololá	704	Santa Lucía Utatlán 	7	Santa Rita 	7	Julio	2023-07-23T00:00:00	2024-11-08T13:00:00	5	Humedad	80
107093	7	Sololá	704	Santa Lucía Utatlán 	7	Santa Rita 	7	Julio	2023-07-23T00:00:00	2024-11-08T13:00:00	6	Velocidad del viento	3.2
107094	7	Sololá	704	Santa Lucía Utatlán 	7	Santa Rita 	7	Julio	2023-07-23T00:00:00	2024-11-08T13:00:00	7	Dirección del viento	3.22
107095	7	Sololá	704	Santa Lucía Utatlán 	7	Santa Rita 	7	Julio	2023-07-23T00:00:00	2024-11-08T13:00:00	1	Precipitación	0
107096	7	Sololá	704	Santa Lucía Utatlán 	7	Santa Rita 	7	Julio	2023-07-23T00:00:00	2024-11-08T13:00:00	8	Radiación solar	515
107097	7	Sololá	704	Santa Lucía Utatlán 	7	Santa Rita 	7	Julio	2023-07-23T00:00:00	2024-11-08T14:00:00	2	Temperatura media	22.1
107098	7	Sololá	704	Santa Lucía Utatlán 	7	Santa Rita 	7	Julio	2023-07-23T00:00:00	2024-11-08T14:00:00	4	Temperatura máxima	23.3
107099	7	Sololá	704	Santa Lucía Utatlán 	7	Santa Rita 	7	Julio	2023-07-23T00:00:00	2024-11-08T14:00:00	3	Temperatura mínima	21.9
107100	7	Sololá	704	Santa Lucía Utatlán 	7	Santa Rita 	7	Julio	2023-07-23T00:00:00	2024-11-08T14:00:00	5	Humedad	81
107101	7	Sololá	704	Santa Lucía Utatlán 	7	Santa Rita 	7	Julio	2023-07-23T00:00:00	2024-11-08T14:00:00	6	Velocidad del viento	3.2
107102	7	Sololá	704	Santa Lucía Utatlán 	7	Santa Rita 	7	Julio	2023-07-23T00:00:00	2024-11-08T14:00:00	7	Dirección del viento	3.22
107103	7	Sololá	704	Santa Lucía Utatlán 	7	Santa Rita 	7	Julio	2023-07-23T00:00:00	2024-11-08T14:00:00	1	Precipitación	0
107104	7	Sololá	704	Santa Lucía Utatlán 	7	Santa Rita 	7	Julio	2023-07-23T00:00:00	2024-11-08T14:00:00	8	Radiación solar	248
107105	7	Sololá	704	Santa Lucía Utatlán 	7	Santa Rita 	7	Julio	2023-07-23T00:00:00	2024-11-08T15:00:00	2	Temperatura media	21.8
107106	7	Sololá	704	Santa Lucía Utatlán 	7	Santa Rita 	7	Julio	2023-07-23T00:00:00	2024-11-08T15:00:00	4	Temperatura máxima	22.9
107107	7	Sololá	704	Santa Lucía Utatlán 	7	Santa Rita 	7	Julio	2023-07-23T00:00:00	2024-11-08T15:00:00	3	Temperatura mínima	21.8
107108	7	Sololá	704	Santa Lucía Utatlán 	7	Santa Rita 	7	Julio	2023-07-23T00:00:00	2024-11-08T15:00:00	5	Humedad	88
107109	7	Sololá	704	Santa Lucía Utatlán 	7	Santa Rita 	7	Julio	2023-07-23T00:00:00	2024-11-08T15:00:00	6	Velocidad del viento	3.2
107110	7	Sololá	704	Santa Lucía Utatlán 	7	Santa Rita 	7	Julio	2023-07-23T00:00:00	2024-11-08T15:00:00	7	Dirección del viento	3.22
107111	7	Sololá	704	Santa Lucía Utatlán 	7	Santa Rita 	7	Julio	2023-07-23T00:00:00	2024-11-08T15:00:00	1	Precipitación	0.8
107112	7	Sololá	704	Santa Lucía Utatlán 	7	Santa Rita 	7	Julio	2023-07-23T00:00:00	2024-11-08T15:00:00	8	Radiación solar	288
107113	7	Sololá	704	Santa Lucía Utatlán 	7	Santa Rita 	7	Julio	2023-07-23T00:00:00	2024-11-08T16:00:00	2	Temperatura media	20.3
107114	7	Sololá	704	Santa Lucía Utatlán 	7	Santa Rita 	7	Julio	2023-07-23T00:00:00	2024-11-08T16:00:00	4	Temperatura máxima	21.8
107115	7	Sololá	704	Santa Lucía Utatlán 	7	Santa Rita 	7	Julio	2023-07-23T00:00:00	2024-11-08T16:00:00	3	Temperatura mínima	20.2
107116	7	Sololá	704	Santa Lucía Utatlán 	7	Santa Rita 	7	Julio	2023-07-23T00:00:00	2024-11-08T16:00:00	5	Humedad	94
107117	7	Sololá	704	Santa Lucía Utatlán 	7	Santa Rita 	7	Julio	2023-07-23T00:00:00	2024-11-08T16:00:00	6	Velocidad del viento	3.2
107118	7	Sololá	704	Santa Lucía Utatlán 	7	Santa Rita 	7	Julio	2023-07-23T00:00:00	2024-11-08T16:00:00	7	Dirección del viento	3.22
107119	7	Sololá	704	Santa Lucía Utatlán 	7	Santa Rita 	7	Julio	2023-07-23T00:00:00	2024-11-08T16:00:00	1	Precipitación	6.8
107120	7	Sololá	704	Santa Lucía Utatlán 	7	Santa Rita 	7	Julio	2023-07-23T00:00:00	2024-11-08T16:00:00	8	Radiación solar	60
107121	7	Sololá	704	Santa Lucía Utatlán 	7	Santa Rita 	7	Julio	2023-07-23T00:00:00	2024-11-08T17:00:00	2	Temperatura media	19.5
107122	7	Sololá	704	Santa Lucía Utatlán 	7	Santa Rita 	7	Julio	2023-07-23T00:00:00	2024-11-08T17:00:00	4	Temperatura máxima	20.4
107123	7	Sololá	704	Santa Lucía Utatlán 	7	Santa Rita 	7	Julio	2023-07-23T00:00:00	2024-11-08T17:00:00	3	Temperatura mínima	19.2
107124	7	Sololá	704	Santa Lucía Utatlán 	7	Santa Rita 	7	Julio	2023-07-23T00:00:00	2024-11-08T17:00:00	5	Humedad	93
107125	7	Sololá	704	Santa Lucía Utatlán 	7	Santa Rita 	7	Julio	2023-07-23T00:00:00	2024-11-08T17:00:00	6	Velocidad del viento	3.2
107126	7	Sololá	704	Santa Lucía Utatlán 	7	Santa Rita 	7	Julio	2023-07-23T00:00:00	2024-11-08T17:00:00	7	Dirección del viento	3.22
107127	7	Sololá	704	Santa Lucía Utatlán 	7	Santa Rita 	7	Julio	2023-07-23T00:00:00	2024-11-08T17:00:00	1	Precipitación	4.2
107128	7	Sololá	704	Santa Lucía Utatlán 	7	Santa Rita 	7	Julio	2023-07-23T00:00:00	2024-11-08T17:00:00	8	Radiación solar	54
107129	7	Sololá	704	Santa Lucía Utatlán 	7	Santa Rita 	7	Julio	2023-07-23T00:00:00	2024-11-08T18:00:00	2	Temperatura media	19.2
107130	7	Sololá	704	Santa Lucía Utatlán 	7	Santa Rita 	7	Julio	2023-07-23T00:00:00	2024-11-08T18:00:00	4	Temperatura máxima	19.6
107131	7	Sololá	704	Santa Lucía Utatlán 	7	Santa Rita 	7	Julio	2023-07-23T00:00:00	2024-11-08T18:00:00	3	Temperatura mínima	19.2
107132	7	Sololá	704	Santa Lucía Utatlán 	7	Santa Rita 	7	Julio	2023-07-23T00:00:00	2024-11-08T18:00:00	5	Humedad	90
107133	7	Sololá	704	Santa Lucía Utatlán 	7	Santa Rita 	7	Julio	2023-07-23T00:00:00	2024-11-08T18:00:00	6	Velocidad del viento	4.8
107134	7	Sololá	704	Santa Lucía Utatlán 	7	Santa Rita 	7	Julio	2023-07-23T00:00:00	2024-11-08T18:00:00	7	Dirección del viento	4.83
107135	7	Sololá	704	Santa Lucía Utatlán 	7	Santa Rita 	7	Julio	2023-07-23T00:00:00	2024-11-08T18:00:00	1	Precipitación	0
107136	7	Sololá	704	Santa Lucía Utatlán 	7	Santa Rita 	7	Julio	2023-07-23T00:00:00	2024-11-08T18:00:00	8	Radiación solar	72
107137	7	Sololá	704	Santa Lucía Utatlán 	7	Santa Rita 	7	Julio	2023-07-23T00:00:00	2024-11-08T19:00:00	2	Temperatura media	18.2
107138	7	Sololá	704	Santa Lucía Utatlán 	7	Santa Rita 	7	Julio	2023-07-23T00:00:00	2024-11-08T19:00:00	4	Temperatura máxima	19.2
107139	7	Sololá	704	Santa Lucía Utatlán 	7	Santa Rita 	7	Julio	2023-07-23T00:00:00	2024-11-08T19:00:00	3	Temperatura mínima	18.1
107140	7	Sololá	704	Santa Lucía Utatlán 	7	Santa Rita 	7	Julio	2023-07-23T00:00:00	2024-11-08T19:00:00	5	Humedad	91
107141	7	Sololá	704	Santa Lucía Utatlán 	7	Santa Rita 	7	Julio	2023-07-23T00:00:00	2024-11-08T19:00:00	6	Velocidad del viento	3.2
107142	7	Sololá	704	Santa Lucía Utatlán 	7	Santa Rita 	7	Julio	2023-07-23T00:00:00	2024-11-08T19:00:00	7	Dirección del viento	3.22
107143	7	Sololá	704	Santa Lucía Utatlán 	7	Santa Rita 	7	Julio	2023-07-23T00:00:00	2024-11-08T19:00:00	1	Precipitación	0
107144	7	Sololá	704	Santa Lucía Utatlán 	7	Santa Rita 	7	Julio	2023-07-23T00:00:00	2024-11-08T19:00:00	8	Radiación solar	0
107145	7	Sololá	704	Santa Lucía Utatlán 	7	Santa Rita 	7	Julio	2023-07-23T00:00:00	2024-11-08T20:00:00	2	Temperatura media	17.9
107146	7	Sololá	704	Santa Lucía Utatlán 	7	Santa Rita 	7	Julio	2023-07-23T00:00:00	2024-11-08T20:00:00	4	Temperatura máxima	18.2
107147	7	Sololá	704	Santa Lucía Utatlán 	7	Santa Rita 	7	Julio	2023-07-23T00:00:00	2024-11-08T20:00:00	3	Temperatura mínima	17.8
107148	7	Sololá	704	Santa Lucía Utatlán 	7	Santa Rita 	7	Julio	2023-07-23T00:00:00	2024-11-08T20:00:00	5	Humedad	91
107149	7	Sololá	704	Santa Lucía Utatlán 	7	Santa Rita 	7	Julio	2023-07-23T00:00:00	2024-11-08T20:00:00	6	Velocidad del viento	4.8
107150	7	Sololá	704	Santa Lucía Utatlán 	7	Santa Rita 	7	Julio	2023-07-23T00:00:00	2024-11-08T20:00:00	7	Dirección del viento	4.83
107151	7	Sololá	704	Santa Lucía Utatlán 	7	Santa Rita 	7	Julio	2023-07-23T00:00:00	2024-11-08T20:00:00	1	Precipitación	0
107152	7	Sololá	704	Santa Lucía Utatlán 	7	Santa Rita 	7	Julio	2023-07-23T00:00:00	2024-11-08T20:00:00	8	Radiación solar	0
107153	7	Sololá	704	Santa Lucía Utatlán 	7	Santa Rita 	7	Julio	2023-07-23T00:00:00	2024-11-08T21:00:00	2	Temperatura media	18.3
107154	7	Sololá	704	Santa Lucía Utatlán 	7	Santa Rita 	7	Julio	2023-07-23T00:00:00	2024-11-08T21:00:00	4	Temperatura máxima	18.3
107155	7	Sololá	704	Santa Lucía Utatlán 	7	Santa Rita 	7	Julio	2023-07-23T00:00:00	2024-11-08T21:00:00	3	Temperatura mínima	17.8
107156	7	Sololá	704	Santa Lucía Utatlán 	7	Santa Rita 	7	Julio	2023-07-23T00:00:00	2024-11-08T21:00:00	5	Humedad	93
107157	7	Sololá	704	Santa Lucía Utatlán 	7	Santa Rita 	7	Julio	2023-07-23T00:00:00	2024-11-08T21:00:00	6	Velocidad del viento	3.2
107158	7	Sololá	704	Santa Lucía Utatlán 	7	Santa Rita 	7	Julio	2023-07-23T00:00:00	2024-11-08T21:00:00	7	Dirección del viento	3.22
107159	7	Sololá	704	Santa Lucía Utatlán 	7	Santa Rita 	7	Julio	2023-07-23T00:00:00	2024-11-08T21:00:00	1	Precipitación	0
107160	7	Sololá	704	Santa Lucía Utatlán 	7	Santa Rita 	7	Julio	2023-07-23T00:00:00	2024-11-08T21:00:00	8	Radiación solar	0
107161	7	Sololá	704	Santa Lucía Utatlán 	7	Santa Rita 	7	Julio	2023-07-23T00:00:00	2024-11-08T22:00:00	2	Temperatura media	18.6
107162	7	Sololá	704	Santa Lucía Utatlán 	7	Santa Rita 	7	Julio	2023-07-23T00:00:00	2024-11-08T22:00:00	4	Temperatura máxima	18.9
107163	7	Sololá	704	Santa Lucía Utatlán 	7	Santa Rita 	7	Julio	2023-07-23T00:00:00	2024-11-08T22:00:00	3	Temperatura mínima	18.3
107164	7	Sololá	704	Santa Lucía Utatlán 	7	Santa Rita 	7	Julio	2023-07-23T00:00:00	2024-11-08T22:00:00	5	Humedad	94
107165	7	Sololá	704	Santa Lucía Utatlán 	7	Santa Rita 	7	Julio	2023-07-23T00:00:00	2024-11-08T22:00:00	6	Velocidad del viento	1.6
107166	7	Sololá	704	Santa Lucía Utatlán 	7	Santa Rita 	7	Julio	2023-07-23T00:00:00	2024-11-08T22:00:00	7	Dirección del viento	1.61
107167	7	Sololá	704	Santa Lucía Utatlán 	7	Santa Rita 	7	Julio	2023-07-23T00:00:00	2024-11-08T22:00:00	1	Precipitación	0
107168	7	Sololá	704	Santa Lucía Utatlán 	7	Santa Rita 	7	Julio	2023-07-23T00:00:00	2024-11-08T22:00:00	8	Radiación solar	0
107169	7	Sololá	704	Santa Lucía Utatlán 	7	Santa Rita 	7	Julio	2023-07-23T00:00:00	2024-11-08T23:00:00	2	Temperatura media	18.9
107170	7	Sololá	704	Santa Lucía Utatlán 	7	Santa Rita 	7	Julio	2023-07-23T00:00:00	2024-11-08T23:00:00	4	Temperatura máxima	19
107171	7	Sololá	704	Santa Lucía Utatlán 	7	Santa Rita 	7	Julio	2023-07-23T00:00:00	2024-11-08T23:00:00	3	Temperatura mínima	18.6
107172	7	Sololá	704	Santa Lucía Utatlán 	7	Santa Rita 	7	Julio	2023-07-23T00:00:00	2024-11-08T23:00:00	5	Humedad	92
107173	7	Sololá	704	Santa Lucía Utatlán 	7	Santa Rita 	7	Julio	2023-07-23T00:00:00	2024-11-08T23:00:00	6	Velocidad del viento	3.2
107174	7	Sololá	704	Santa Lucía Utatlán 	7	Santa Rita 	7	Julio	2023-07-23T00:00:00	2024-11-08T23:00:00	7	Dirección del viento	3.22
107175	7	Sololá	704	Santa Lucía Utatlán 	7	Santa Rita 	7	Julio	2023-07-23T00:00:00	2024-11-08T23:00:00	1	Precipitación	0
107176	7	Sololá	704	Santa Lucía Utatlán 	7	Santa Rita 	7	Julio	2023-07-23T00:00:00	2024-11-08T23:00:00	8	Radiación solar	0
107177	7	Sololá	704	Santa Lucía Utatlán 	7	Santa Rita 	7	Julio	2023-07-24T00:00:00	2024-11-08T00:00:00	2	Temperatura media	18.4
107178	7	Sololá	704	Santa Lucía Utatlán 	7	Santa Rita 	7	Julio	2023-07-24T00:00:00	2024-11-08T00:00:00	4	Temperatura máxima	18.9
107179	7	Sololá	704	Santa Lucía Utatlán 	7	Santa Rita 	7	Julio	2023-07-24T00:00:00	2024-11-08T00:00:00	3	Temperatura mínima	18.2
107180	7	Sololá	704	Santa Lucía Utatlán 	7	Santa Rita 	7	Julio	2023-07-24T00:00:00	2024-11-08T00:00:00	5	Humedad	95
107181	7	Sololá	704	Santa Lucía Utatlán 	7	Santa Rita 	7	Julio	2023-07-24T00:00:00	2024-11-08T00:00:00	6	Velocidad del viento	1.6
107182	7	Sololá	704	Santa Lucía Utatlán 	7	Santa Rita 	7	Julio	2023-07-24T00:00:00	2024-11-08T00:00:00	7	Dirección del viento	1.61
107183	7	Sololá	704	Santa Lucía Utatlán 	7	Santa Rita 	7	Julio	2023-07-24T00:00:00	2024-11-08T00:00:00	1	Precipitación	0
107184	7	Sololá	704	Santa Lucía Utatlán 	7	Santa Rita 	7	Julio	2023-07-24T00:00:00	2024-11-08T00:00:00	8	Radiación solar	0
107185	7	Sololá	704	Santa Lucía Utatlán 	7	Santa Rita 	7	Julio	2023-07-24T00:00:00	2024-11-08T01:00:00	2	Temperatura media	18.2
107186	7	Sololá	704	Santa Lucía Utatlán 	7	Santa Rita 	7	Julio	2023-07-24T00:00:00	2024-11-08T01:00:00	4	Temperatura máxima	18.6
107187	7	Sololá	704	Santa Lucía Utatlán 	7	Santa Rita 	7	Julio	2023-07-24T00:00:00	2024-11-08T01:00:00	3	Temperatura mínima	18
107188	7	Sololá	704	Santa Lucía Utatlán 	7	Santa Rita 	7	Julio	2023-07-24T00:00:00	2024-11-08T01:00:00	5	Humedad	95
107189	7	Sololá	704	Santa Lucía Utatlán 	7	Santa Rita 	7	Julio	2023-07-24T00:00:00	2024-11-08T01:00:00	6	Velocidad del viento	1.6
107190	7	Sololá	704	Santa Lucía Utatlán 	7	Santa Rita 	7	Julio	2023-07-24T00:00:00	2024-11-08T01:00:00	7	Dirección del viento	1.61
107191	7	Sololá	704	Santa Lucía Utatlán 	7	Santa Rita 	7	Julio	2023-07-24T00:00:00	2024-11-08T01:00:00	1	Precipitación	0
107192	7	Sololá	704	Santa Lucía Utatlán 	7	Santa Rita 	7	Julio	2023-07-24T00:00:00	2024-11-08T01:00:00	8	Radiación solar	0
107193	7	Sololá	704	Santa Lucía Utatlán 	7	Santa Rita 	7	Julio	2023-07-24T00:00:00	2024-11-08T02:00:00	2	Temperatura media	18.4
107194	7	Sololá	704	Santa Lucía Utatlán 	7	Santa Rita 	7	Julio	2023-07-24T00:00:00	2024-11-08T02:00:00	4	Temperatura máxima	18.4
107195	7	Sololá	704	Santa Lucía Utatlán 	7	Santa Rita 	7	Julio	2023-07-24T00:00:00	2024-11-08T02:00:00	3	Temperatura mínima	18.2
107196	7	Sololá	704	Santa Lucía Utatlán 	7	Santa Rita 	7	Julio	2023-07-24T00:00:00	2024-11-08T02:00:00	5	Humedad	96
107197	7	Sololá	704	Santa Lucía Utatlán 	7	Santa Rita 	7	Julio	2023-07-24T00:00:00	2024-11-08T02:00:00	6	Velocidad del viento	1.6
107198	7	Sololá	704	Santa Lucía Utatlán 	7	Santa Rita 	7	Julio	2023-07-24T00:00:00	2024-11-08T02:00:00	7	Dirección del viento	1.61
107199	7	Sololá	704	Santa Lucía Utatlán 	7	Santa Rita 	7	Julio	2023-07-24T00:00:00	2024-11-08T02:00:00	1	Precipitación	0
107200	7	Sololá	704	Santa Lucía Utatlán 	7	Santa Rita 	7	Julio	2023-07-24T00:00:00	2024-11-08T02:00:00	8	Radiación solar	0
107201	7	Sololá	704	Santa Lucía Utatlán 	7	Santa Rita 	7	Julio	2023-07-24T00:00:00	2024-11-08T03:00:00	2	Temperatura media	18.1
107202	7	Sololá	704	Santa Lucía Utatlán 	7	Santa Rita 	7	Julio	2023-07-24T00:00:00	2024-11-08T03:00:00	4	Temperatura máxima	18.6
107203	7	Sololá	704	Santa Lucía Utatlán 	7	Santa Rita 	7	Julio	2023-07-24T00:00:00	2024-11-08T03:00:00	3	Temperatura mínima	18.1
107204	7	Sololá	704	Santa Lucía Utatlán 	7	Santa Rita 	7	Julio	2023-07-24T00:00:00	2024-11-08T03:00:00	5	Humedad	95
107205	7	Sololá	704	Santa Lucía Utatlán 	7	Santa Rita 	7	Julio	2023-07-24T00:00:00	2024-11-08T03:00:00	6	Velocidad del viento	1.6
107206	7	Sololá	704	Santa Lucía Utatlán 	7	Santa Rita 	7	Julio	2023-07-24T00:00:00	2024-11-08T03:00:00	7	Dirección del viento	1.61
107207	7	Sololá	704	Santa Lucía Utatlán 	7	Santa Rita 	7	Julio	2023-07-24T00:00:00	2024-11-08T03:00:00	1	Precipitación	0
107208	7	Sololá	704	Santa Lucía Utatlán 	7	Santa Rita 	7	Julio	2023-07-24T00:00:00	2024-11-08T03:00:00	8	Radiación solar	0
107209	7	Sololá	704	Santa Lucía Utatlán 	7	Santa Rita 	7	Julio	2023-07-24T00:00:00	2024-11-08T04:00:00	2	Temperatura media	18.3
107210	7	Sololá	704	Santa Lucía Utatlán 	7	Santa Rita 	7	Julio	2023-07-24T00:00:00	2024-11-08T04:00:00	4	Temperatura máxima	19
107211	7	Sololá	704	Santa Lucía Utatlán 	7	Santa Rita 	7	Julio	2023-07-24T00:00:00	2024-11-08T04:00:00	3	Temperatura mínima	18.1
107212	7	Sololá	704	Santa Lucía Utatlán 	7	Santa Rita 	7	Julio	2023-07-24T00:00:00	2024-11-08T04:00:00	5	Humedad	91
107213	7	Sololá	704	Santa Lucía Utatlán 	7	Santa Rita 	7	Julio	2023-07-24T00:00:00	2024-11-08T04:00:00	6	Velocidad del viento	1.6
107214	7	Sololá	704	Santa Lucía Utatlán 	7	Santa Rita 	7	Julio	2023-07-24T00:00:00	2024-11-08T04:00:00	7	Dirección del viento	1.61
107215	7	Sololá	704	Santa Lucía Utatlán 	7	Santa Rita 	7	Julio	2023-07-24T00:00:00	2024-11-08T04:00:00	1	Precipitación	0
107216	7	Sololá	704	Santa Lucía Utatlán 	7	Santa Rita 	7	Julio	2023-07-24T00:00:00	2024-11-08T04:00:00	8	Radiación solar	0
107217	7	Sololá	704	Santa Lucía Utatlán 	7	Santa Rita 	7	Julio	2023-07-24T00:00:00	2024-11-08T05:00:00	2	Temperatura media	17.7
107218	7	Sololá	704	Santa Lucía Utatlán 	7	Santa Rita 	7	Julio	2023-07-24T00:00:00	2024-11-08T05:00:00	4	Temperatura máxima	18.3
107219	7	Sololá	704	Santa Lucía Utatlán 	7	Santa Rita 	7	Julio	2023-07-24T00:00:00	2024-11-08T05:00:00	3	Temperatura mínima	17.6
107220	7	Sololá	704	Santa Lucía Utatlán 	7	Santa Rita 	7	Julio	2023-07-24T00:00:00	2024-11-08T05:00:00	5	Humedad	95
107221	7	Sololá	704	Santa Lucía Utatlán 	7	Santa Rita 	7	Julio	2023-07-24T00:00:00	2024-11-08T05:00:00	6	Velocidad del viento	1.6
107222	7	Sololá	704	Santa Lucía Utatlán 	7	Santa Rita 	7	Julio	2023-07-24T00:00:00	2024-11-08T05:00:00	7	Dirección del viento	1.61
107223	7	Sololá	704	Santa Lucía Utatlán 	7	Santa Rita 	7	Julio	2023-07-24T00:00:00	2024-11-08T05:00:00	1	Precipitación	0
107224	7	Sololá	704	Santa Lucía Utatlán 	7	Santa Rita 	7	Julio	2023-07-24T00:00:00	2024-11-08T05:00:00	8	Radiación solar	0
107225	7	Sololá	704	Santa Lucía Utatlán 	7	Santa Rita 	7	Julio	2023-07-24T00:00:00	2024-11-08T06:00:00	2	Temperatura media	18.6
107226	7	Sololá	704	Santa Lucía Utatlán 	7	Santa Rita 	7	Julio	2023-07-24T00:00:00	2024-11-08T06:00:00	4	Temperatura máxima	18.6
107227	7	Sololá	704	Santa Lucía Utatlán 	7	Santa Rita 	7	Julio	2023-07-24T00:00:00	2024-11-08T06:00:00	3	Temperatura mínima	17.7
107228	7	Sololá	704	Santa Lucía Utatlán 	7	Santa Rita 	7	Julio	2023-07-24T00:00:00	2024-11-08T06:00:00	5	Humedad	91
107229	7	Sololá	704	Santa Lucía Utatlán 	7	Santa Rita 	7	Julio	2023-07-24T00:00:00	2024-11-08T06:00:00	6	Velocidad del viento	3.2
107230	7	Sololá	704	Santa Lucía Utatlán 	7	Santa Rita 	7	Julio	2023-07-24T00:00:00	2024-11-08T06:00:00	7	Dirección del viento	3.22
107231	7	Sololá	704	Santa Lucía Utatlán 	7	Santa Rita 	7	Julio	2023-07-24T00:00:00	2024-11-08T06:00:00	1	Precipitación	0.2
107232	7	Sololá	704	Santa Lucía Utatlán 	7	Santa Rita 	7	Julio	2023-07-24T00:00:00	2024-11-08T06:00:00	8	Radiación solar	2
107233	7	Sololá	704	Santa Lucía Utatlán 	7	Santa Rita 	7	Julio	2023-07-24T00:00:00	2024-11-08T07:00:00	2	Temperatura media	19.7
107234	7	Sololá	704	Santa Lucía Utatlán 	7	Santa Rita 	7	Julio	2023-07-24T00:00:00	2024-11-08T07:00:00	4	Temperatura máxima	19.7
107235	7	Sololá	704	Santa Lucía Utatlán 	7	Santa Rita 	7	Julio	2023-07-24T00:00:00	2024-11-08T07:00:00	3	Temperatura mínima	18.5
107236	7	Sololá	704	Santa Lucía Utatlán 	7	Santa Rita 	7	Julio	2023-07-24T00:00:00	2024-11-08T07:00:00	5	Humedad	91
107237	7	Sololá	704	Santa Lucía Utatlán 	7	Santa Rita 	7	Julio	2023-07-24T00:00:00	2024-11-08T07:00:00	6	Velocidad del viento	1.6
107238	7	Sololá	704	Santa Lucía Utatlán 	7	Santa Rita 	7	Julio	2023-07-24T00:00:00	2024-11-08T07:00:00	7	Dirección del viento	1.61
107239	7	Sololá	704	Santa Lucía Utatlán 	7	Santa Rita 	7	Julio	2023-07-24T00:00:00	2024-11-08T07:00:00	1	Precipitación	0
107240	7	Sololá	704	Santa Lucía Utatlán 	7	Santa Rita 	7	Julio	2023-07-24T00:00:00	2024-11-08T07:00:00	8	Radiación solar	106
107241	7	Sololá	704	Santa Lucía Utatlán 	7	Santa Rita 	7	Julio	2023-07-24T00:00:00	2024-11-08T08:00:00	2	Temperatura media	21.7
107242	7	Sololá	704	Santa Lucía Utatlán 	7	Santa Rita 	7	Julio	2023-07-24T00:00:00	2024-11-08T08:00:00	4	Temperatura máxima	22
107243	7	Sololá	704	Santa Lucía Utatlán 	7	Santa Rita 	7	Julio	2023-07-24T00:00:00	2024-11-08T08:00:00	3	Temperatura mínima	19.7
107244	7	Sololá	704	Santa Lucía Utatlán 	7	Santa Rita 	7	Julio	2023-07-24T00:00:00	2024-11-08T08:00:00	5	Humedad	83
107245	7	Sololá	704	Santa Lucía Utatlán 	7	Santa Rita 	7	Julio	2023-07-24T00:00:00	2024-11-08T08:00:00	6	Velocidad del viento	1.6
107246	7	Sololá	704	Santa Lucía Utatlán 	7	Santa Rita 	7	Julio	2023-07-24T00:00:00	2024-11-08T08:00:00	7	Dirección del viento	1.61
107247	7	Sololá	704	Santa Lucía Utatlán 	7	Santa Rita 	7	Julio	2023-07-24T00:00:00	2024-11-08T08:00:00	1	Precipitación	0
107248	7	Sololá	704	Santa Lucía Utatlán 	7	Santa Rita 	7	Julio	2023-07-24T00:00:00	2024-11-08T08:00:00	8	Radiación solar	363
107249	7	Sololá	704	Santa Lucía Utatlán 	7	Santa Rita 	7	Julio	2023-07-24T00:00:00	2024-11-08T09:00:00	2	Temperatura media	22.9
107250	7	Sololá	704	Santa Lucía Utatlán 	7	Santa Rita 	7	Julio	2023-07-24T00:00:00	2024-11-08T09:00:00	4	Temperatura máxima	22.9
107251	7	Sololá	704	Santa Lucía Utatlán 	7	Santa Rita 	7	Julio	2023-07-24T00:00:00	2024-11-08T09:00:00	3	Temperatura mínima	21.2
107252	7	Sololá	704	Santa Lucía Utatlán 	7	Santa Rita 	7	Julio	2023-07-24T00:00:00	2024-11-08T09:00:00	5	Humedad	76
107253	7	Sololá	704	Santa Lucía Utatlán 	7	Santa Rita 	7	Julio	2023-07-24T00:00:00	2024-11-08T09:00:00	6	Velocidad del viento	4.8
107254	7	Sololá	704	Santa Lucía Utatlán 	7	Santa Rita 	7	Julio	2023-07-24T00:00:00	2024-11-08T09:00:00	7	Dirección del viento	4.83
107255	7	Sololá	704	Santa Lucía Utatlán 	7	Santa Rita 	7	Julio	2023-07-24T00:00:00	2024-11-08T09:00:00	1	Precipitación	0
107256	7	Sololá	704	Santa Lucía Utatlán 	7	Santa Rita 	7	Julio	2023-07-24T00:00:00	2024-11-08T09:00:00	8	Radiación solar	539
107257	7	Sololá	704	Santa Lucía Utatlán 	7	Santa Rita 	7	Julio	2023-07-24T00:00:00	2024-11-08T10:00:00	2	Temperatura media	23.1
107258	7	Sololá	704	Santa Lucía Utatlán 	7	Santa Rita 	7	Julio	2023-07-24T00:00:00	2024-11-08T10:00:00	4	Temperatura máxima	23.7
107259	7	Sololá	704	Santa Lucía Utatlán 	7	Santa Rita 	7	Julio	2023-07-24T00:00:00	2024-11-08T10:00:00	3	Temperatura mínima	22.9
107260	7	Sololá	704	Santa Lucía Utatlán 	7	Santa Rita 	7	Julio	2023-07-24T00:00:00	2024-11-08T10:00:00	5	Humedad	72
107261	7	Sololá	704	Santa Lucía Utatlán 	7	Santa Rita 	7	Julio	2023-07-24T00:00:00	2024-11-08T10:00:00	6	Velocidad del viento	8
107262	7	Sololá	704	Santa Lucía Utatlán 	7	Santa Rita 	7	Julio	2023-07-24T00:00:00	2024-11-08T10:00:00	7	Dirección del viento	8.05
107263	7	Sololá	704	Santa Lucía Utatlán 	7	Santa Rita 	7	Julio	2023-07-24T00:00:00	2024-11-08T10:00:00	1	Precipitación	0
107264	7	Sololá	704	Santa Lucía Utatlán 	7	Santa Rita 	7	Julio	2023-07-24T00:00:00	2024-11-08T10:00:00	8	Radiación solar	670
107265	7	Sololá	704	Santa Lucía Utatlán 	7	Santa Rita 	7	Julio	2023-07-24T00:00:00	2024-11-08T11:00:00	2	Temperatura media	24.4
107266	7	Sololá	704	Santa Lucía Utatlán 	7	Santa Rita 	7	Julio	2023-07-24T00:00:00	2024-11-08T11:00:00	4	Temperatura máxima	24.5
107267	7	Sololá	704	Santa Lucía Utatlán 	7	Santa Rita 	7	Julio	2023-07-24T00:00:00	2024-11-08T11:00:00	3	Temperatura mínima	23.1
107268	7	Sololá	704	Santa Lucía Utatlán 	7	Santa Rita 	7	Julio	2023-07-24T00:00:00	2024-11-08T11:00:00	5	Humedad	66
107269	7	Sololá	704	Santa Lucía Utatlán 	7	Santa Rita 	7	Julio	2023-07-24T00:00:00	2024-11-08T11:00:00	6	Velocidad del viento	11.3
107270	7	Sololá	704	Santa Lucía Utatlán 	7	Santa Rita 	7	Julio	2023-07-24T00:00:00	2024-11-08T11:00:00	7	Dirección del viento	11.27
107271	7	Sololá	704	Santa Lucía Utatlán 	7	Santa Rita 	7	Julio	2023-07-24T00:00:00	2024-11-08T11:00:00	1	Precipitación	0
107272	7	Sololá	704	Santa Lucía Utatlán 	7	Santa Rita 	7	Julio	2023-07-24T00:00:00	2024-11-08T11:00:00	8	Radiación solar	927
107273	7	Sololá	704	Santa Lucía Utatlán 	7	Santa Rita 	7	Julio	2023-07-24T00:00:00	2024-11-08T12:00:00	2	Temperatura media	25.2
107274	7	Sololá	704	Santa Lucía Utatlán 	7	Santa Rita 	7	Julio	2023-07-24T00:00:00	2024-11-08T12:00:00	4	Temperatura máxima	25.3
107275	7	Sololá	704	Santa Lucía Utatlán 	7	Santa Rita 	7	Julio	2023-07-24T00:00:00	2024-11-08T12:00:00	3	Temperatura mínima	24.4
107276	7	Sololá	704	Santa Lucía Utatlán 	7	Santa Rita 	7	Julio	2023-07-24T00:00:00	2024-11-08T12:00:00	5	Humedad	63
107277	7	Sololá	704	Santa Lucía Utatlán 	7	Santa Rita 	7	Julio	2023-07-24T00:00:00	2024-11-08T12:00:00	6	Velocidad del viento	9.7
107278	7	Sololá	704	Santa Lucía Utatlán 	7	Santa Rita 	7	Julio	2023-07-24T00:00:00	2024-11-08T12:00:00	7	Dirección del viento	9.66
107279	7	Sololá	704	Santa Lucía Utatlán 	7	Santa Rita 	7	Julio	2023-07-24T00:00:00	2024-11-08T12:00:00	1	Precipitación	0
107280	7	Sololá	704	Santa Lucía Utatlán 	7	Santa Rita 	7	Julio	2023-07-24T00:00:00	2024-11-08T12:00:00	8	Radiación solar	1013
107281	7	Sololá	704	Santa Lucía Utatlán 	7	Santa Rita 	7	Julio	2023-07-24T00:00:00	2024-11-08T13:00:00	2	Temperatura media	25.4
107282	7	Sololá	704	Santa Lucía Utatlán 	7	Santa Rita 	7	Julio	2023-07-24T00:00:00	2024-11-08T13:00:00	4	Temperatura máxima	25.5
107283	7	Sololá	704	Santa Lucía Utatlán 	7	Santa Rita 	7	Julio	2023-07-24T00:00:00	2024-11-08T13:00:00	3	Temperatura mínima	24.6
107284	7	Sololá	704	Santa Lucía Utatlán 	7	Santa Rita 	7	Julio	2023-07-24T00:00:00	2024-11-08T13:00:00	5	Humedad	68
107285	7	Sololá	704	Santa Lucía Utatlán 	7	Santa Rita 	7	Julio	2023-07-24T00:00:00	2024-11-08T13:00:00	6	Velocidad del viento	8
107286	7	Sololá	704	Santa Lucía Utatlán 	7	Santa Rita 	7	Julio	2023-07-24T00:00:00	2024-11-08T13:00:00	7	Dirección del viento	8.05
107287	7	Sololá	704	Santa Lucía Utatlán 	7	Santa Rita 	7	Julio	2023-07-24T00:00:00	2024-11-08T13:00:00	1	Precipitación	0
107288	7	Sololá	704	Santa Lucía Utatlán 	7	Santa Rita 	7	Julio	2023-07-24T00:00:00	2024-11-08T13:00:00	8	Radiación solar	595
107289	7	Sololá	704	Santa Lucía Utatlán 	7	Santa Rita 	7	Julio	2023-07-24T00:00:00	2024-11-08T14:00:00	2	Temperatura media	24.2
107290	7	Sololá	704	Santa Lucía Utatlán 	7	Santa Rita 	7	Julio	2023-07-24T00:00:00	2024-11-08T14:00:00	4	Temperatura máxima	25.6
107291	7	Sololá	704	Santa Lucía Utatlán 	7	Santa Rita 	7	Julio	2023-07-24T00:00:00	2024-11-08T14:00:00	3	Temperatura mínima	23.7
107292	7	Sololá	704	Santa Lucía Utatlán 	7	Santa Rita 	7	Julio	2023-07-24T00:00:00	2024-11-08T14:00:00	5	Humedad	74
107293	7	Sololá	704	Santa Lucía Utatlán 	7	Santa Rita 	7	Julio	2023-07-24T00:00:00	2024-11-08T14:00:00	6	Velocidad del viento	6.4
107294	7	Sololá	704	Santa Lucía Utatlán 	7	Santa Rita 	7	Julio	2023-07-24T00:00:00	2024-11-08T14:00:00	7	Dirección del viento	6.44
107295	7	Sololá	704	Santa Lucía Utatlán 	7	Santa Rita 	7	Julio	2023-07-24T00:00:00	2024-11-08T14:00:00	1	Precipitación	0
107296	7	Sololá	704	Santa Lucía Utatlán 	7	Santa Rita 	7	Julio	2023-07-24T00:00:00	2024-11-08T14:00:00	8	Radiación solar	270
107297	7	Sololá	704	Santa Lucía Utatlán 	7	Santa Rita 	7	Julio	2023-07-24T00:00:00	2024-11-08T15:00:00	2	Temperatura media	23.8
107298	7	Sololá	704	Santa Lucía Utatlán 	7	Santa Rita 	7	Julio	2023-07-24T00:00:00	2024-11-08T15:00:00	4	Temperatura máxima	24.7
107299	7	Sololá	704	Santa Lucía Utatlán 	7	Santa Rita 	7	Julio	2023-07-24T00:00:00	2024-11-08T15:00:00	3	Temperatura mínima	23.6
107300	7	Sololá	704	Santa Lucía Utatlán 	7	Santa Rita 	7	Julio	2023-07-24T00:00:00	2024-11-08T15:00:00	5	Humedad	83
107301	7	Sololá	704	Santa Lucía Utatlán 	7	Santa Rita 	7	Julio	2023-07-24T00:00:00	2024-11-08T15:00:00	6	Velocidad del viento	4.8
107302	7	Sololá	704	Santa Lucía Utatlán 	7	Santa Rita 	7	Julio	2023-07-24T00:00:00	2024-11-08T15:00:00	7	Dirección del viento	4.83
107303	7	Sololá	704	Santa Lucía Utatlán 	7	Santa Rita 	7	Julio	2023-07-24T00:00:00	2024-11-08T15:00:00	1	Precipitación	0
107304	7	Sololá	704	Santa Lucía Utatlán 	7	Santa Rita 	7	Julio	2023-07-24T00:00:00	2024-11-08T15:00:00	8	Radiación solar	300
107305	7	Sololá	704	Santa Lucía Utatlán 	7	Santa Rita 	7	Julio	2023-07-24T00:00:00	2024-11-08T16:00:00	2	Temperatura media	20.7
107306	7	Sololá	704	Santa Lucía Utatlán 	7	Santa Rita 	7	Julio	2023-07-24T00:00:00	2024-11-08T16:00:00	4	Temperatura máxima	23.8
107307	7	Sololá	704	Santa Lucía Utatlán 	7	Santa Rita 	7	Julio	2023-07-24T00:00:00	2024-11-08T16:00:00	3	Temperatura mínima	20.6
107308	7	Sololá	704	Santa Lucía Utatlán 	7	Santa Rita 	7	Julio	2023-07-24T00:00:00	2024-11-08T16:00:00	5	Humedad	92
107309	7	Sololá	704	Santa Lucía Utatlán 	7	Santa Rita 	7	Julio	2023-07-24T00:00:00	2024-11-08T16:00:00	6	Velocidad del viento	6.4
107310	7	Sololá	704	Santa Lucía Utatlán 	7	Santa Rita 	7	Julio	2023-07-24T00:00:00	2024-11-08T16:00:00	7	Dirección del viento	6.44
107311	7	Sololá	704	Santa Lucía Utatlán 	7	Santa Rita 	7	Julio	2023-07-24T00:00:00	2024-11-08T16:00:00	1	Precipitación	0
107312	7	Sololá	704	Santa Lucía Utatlán 	7	Santa Rita 	7	Julio	2023-07-24T00:00:00	2024-11-08T16:00:00	8	Radiación solar	163
107313	7	Sololá	704	Santa Lucía Utatlán 	7	Santa Rita 	7	Julio	2023-07-24T00:00:00	2024-11-08T17:00:00	2	Temperatura media	22.4
107314	7	Sololá	704	Santa Lucía Utatlán 	7	Santa Rita 	7	Julio	2023-07-24T00:00:00	2024-11-08T17:00:00	4	Temperatura máxima	22.8
107315	7	Sololá	704	Santa Lucía Utatlán 	7	Santa Rita 	7	Julio	2023-07-24T00:00:00	2024-11-08T17:00:00	3	Temperatura mínima	20.5
107316	7	Sololá	704	Santa Lucía Utatlán 	7	Santa Rita 	7	Julio	2023-07-24T00:00:00	2024-11-08T17:00:00	5	Humedad	85
107317	7	Sololá	704	Santa Lucía Utatlán 	7	Santa Rita 	7	Julio	2023-07-24T00:00:00	2024-11-08T17:00:00	6	Velocidad del viento	3.2
107318	7	Sololá	704	Santa Lucía Utatlán 	7	Santa Rita 	7	Julio	2023-07-24T00:00:00	2024-11-08T17:00:00	7	Dirección del viento	3.22
107319	7	Sololá	704	Santa Lucía Utatlán 	7	Santa Rita 	7	Julio	2023-07-24T00:00:00	2024-11-08T17:00:00	1	Precipitación	0
107320	7	Sololá	704	Santa Lucía Utatlán 	7	Santa Rita 	7	Julio	2023-07-24T00:00:00	2024-11-08T17:00:00	8	Radiación solar	207
107321	7	Sololá	704	Santa Lucía Utatlán 	7	Santa Rita 	7	Julio	2023-07-24T00:00:00	2024-11-08T18:00:00	2	Temperatura media	20.1
107322	7	Sololá	704	Santa Lucía Utatlán 	7	Santa Rita 	7	Julio	2023-07-24T00:00:00	2024-11-08T18:00:00	4	Temperatura máxima	22.4
107323	7	Sololá	704	Santa Lucía Utatlán 	7	Santa Rita 	7	Julio	2023-07-24T00:00:00	2024-11-08T18:00:00	3	Temperatura mínima	20.1
107324	7	Sololá	704	Santa Lucía Utatlán 	7	Santa Rita 	7	Julio	2023-07-24T00:00:00	2024-11-08T18:00:00	5	Humedad	90
107325	7	Sololá	704	Santa Lucía Utatlán 	7	Santa Rita 	7	Julio	2023-07-24T00:00:00	2024-11-08T18:00:00	6	Velocidad del viento	4.8
107326	7	Sololá	704	Santa Lucía Utatlán 	7	Santa Rita 	7	Julio	2023-07-24T00:00:00	2024-11-08T18:00:00	7	Dirección del viento	4.83
107327	7	Sololá	704	Santa Lucía Utatlán 	7	Santa Rita 	7	Julio	2023-07-24T00:00:00	2024-11-08T18:00:00	1	Precipitación	2
107328	7	Sololá	704	Santa Lucía Utatlán 	7	Santa Rita 	7	Julio	2023-07-24T00:00:00	2024-11-08T18:00:00	8	Radiación solar	32
107329	7	Sololá	704	Santa Lucía Utatlán 	7	Santa Rita 	7	Julio	2023-07-24T00:00:00	2024-11-08T19:00:00	2	Temperatura media	19.5
107330	7	Sololá	704	Santa Lucía Utatlán 	7	Santa Rita 	7	Julio	2023-07-24T00:00:00	2024-11-08T19:00:00	4	Temperatura máxima	20
107331	7	Sololá	704	Santa Lucía Utatlán 	7	Santa Rita 	7	Julio	2023-07-24T00:00:00	2024-11-08T19:00:00	3	Temperatura mínima	19.4
107332	7	Sololá	704	Santa Lucía Utatlán 	7	Santa Rita 	7	Julio	2023-07-24T00:00:00	2024-11-08T19:00:00	5	Humedad	94
107333	7	Sololá	704	Santa Lucía Utatlán 	7	Santa Rita 	7	Julio	2023-07-24T00:00:00	2024-11-08T19:00:00	6	Velocidad del viento	1.6
107334	7	Sololá	704	Santa Lucía Utatlán 	7	Santa Rita 	7	Julio	2023-07-24T00:00:00	2024-11-08T19:00:00	7	Dirección del viento	1.61
107335	7	Sololá	704	Santa Lucía Utatlán 	7	Santa Rita 	7	Julio	2023-07-24T00:00:00	2024-11-08T19:00:00	1	Precipitación	10.8
107336	7	Sololá	704	Santa Lucía Utatlán 	7	Santa Rita 	7	Julio	2023-07-24T00:00:00	2024-11-08T19:00:00	8	Radiación solar	0
107337	7	Sololá	704	Santa Lucía Utatlán 	7	Santa Rita 	7	Julio	2023-07-24T00:00:00	2024-11-08T20:00:00	2	Temperatura media	18.4
107338	7	Sololá	704	Santa Lucía Utatlán 	7	Santa Rita 	7	Julio	2023-07-24T00:00:00	2024-11-08T20:00:00	4	Temperatura máxima	19.6
107339	7	Sololá	704	Santa Lucía Utatlán 	7	Santa Rita 	7	Julio	2023-07-24T00:00:00	2024-11-08T20:00:00	3	Temperatura mínima	18.3
107340	7	Sololá	704	Santa Lucía Utatlán 	7	Santa Rita 	7	Julio	2023-07-24T00:00:00	2024-11-08T20:00:00	5	Humedad	94
107341	7	Sololá	704	Santa Lucía Utatlán 	7	Santa Rita 	7	Julio	2023-07-24T00:00:00	2024-11-08T20:00:00	6	Velocidad del viento	3.2
107342	7	Sololá	704	Santa Lucía Utatlán 	7	Santa Rita 	7	Julio	2023-07-24T00:00:00	2024-11-08T20:00:00	7	Dirección del viento	3.22
107343	7	Sololá	704	Santa Lucía Utatlán 	7	Santa Rita 	7	Julio	2023-07-24T00:00:00	2024-11-08T20:00:00	1	Precipitación	5.6
107344	7	Sololá	704	Santa Lucía Utatlán 	7	Santa Rita 	7	Julio	2023-07-24T00:00:00	2024-11-08T20:00:00	8	Radiación solar	0
107345	7	Sololá	704	Santa Lucía Utatlán 	7	Santa Rita 	7	Julio	2023-07-24T00:00:00	2024-11-08T21:00:00	2	Temperatura media	18.6
107346	7	Sololá	704	Santa Lucía Utatlán 	7	Santa Rita 	7	Julio	2023-07-24T00:00:00	2024-11-08T21:00:00	4	Temperatura máxima	18.6
107347	7	Sololá	704	Santa Lucía Utatlán 	7	Santa Rita 	7	Julio	2023-07-24T00:00:00	2024-11-08T21:00:00	3	Temperatura mínima	18.2
107348	7	Sololá	704	Santa Lucía Utatlán 	7	Santa Rita 	7	Julio	2023-07-24T00:00:00	2024-11-08T21:00:00	5	Humedad	93
107349	7	Sololá	704	Santa Lucía Utatlán 	7	Santa Rita 	7	Julio	2023-07-24T00:00:00	2024-11-08T21:00:00	6	Velocidad del viento	1.6
107350	7	Sololá	704	Santa Lucía Utatlán 	7	Santa Rita 	7	Julio	2023-07-24T00:00:00	2024-11-08T21:00:00	7	Dirección del viento	1.61
107351	7	Sololá	704	Santa Lucía Utatlán 	7	Santa Rita 	7	Julio	2023-07-24T00:00:00	2024-11-08T21:00:00	1	Precipitación	0.8
107352	7	Sololá	704	Santa Lucía Utatlán 	7	Santa Rita 	7	Julio	2023-07-24T00:00:00	2024-11-08T21:00:00	8	Radiación solar	0
107353	7	Sololá	704	Santa Lucía Utatlán 	7	Santa Rita 	7	Julio	2023-07-24T00:00:00	2024-11-08T22:00:00	2	Temperatura media	18.3
107354	7	Sololá	704	Santa Lucía Utatlán 	7	Santa Rita 	7	Julio	2023-07-24T00:00:00	2024-11-08T22:00:00	4	Temperatura máxima	19
107355	7	Sololá	704	Santa Lucía Utatlán 	7	Santa Rita 	7	Julio	2023-07-24T00:00:00	2024-11-08T22:00:00	3	Temperatura mínima	18.3
107356	7	Sololá	704	Santa Lucía Utatlán 	7	Santa Rita 	7	Julio	2023-07-24T00:00:00	2024-11-08T22:00:00	5	Humedad	95
107357	7	Sololá	704	Santa Lucía Utatlán 	7	Santa Rita 	7	Julio	2023-07-24T00:00:00	2024-11-08T22:00:00	6	Velocidad del viento	1.6
107358	7	Sololá	704	Santa Lucía Utatlán 	7	Santa Rita 	7	Julio	2023-07-24T00:00:00	2024-11-08T22:00:00	7	Dirección del viento	1.61
107359	7	Sololá	704	Santa Lucía Utatlán 	7	Santa Rita 	7	Julio	2023-07-24T00:00:00	2024-11-08T22:00:00	1	Precipitación	0.2
107360	7	Sololá	704	Santa Lucía Utatlán 	7	Santa Rita 	7	Julio	2023-07-24T00:00:00	2024-11-08T22:00:00	8	Radiación solar	0
107361	7	Sololá	704	Santa Lucía Utatlán 	7	Santa Rita 	7	Julio	2023-07-24T00:00:00	2024-11-08T23:00:00	2	Temperatura media	17.9
107362	7	Sololá	704	Santa Lucía Utatlán 	7	Santa Rita 	7	Julio	2023-07-24T00:00:00	2024-11-08T23:00:00	4	Temperatura máxima	18.3
107363	7	Sololá	704	Santa Lucía Utatlán 	7	Santa Rita 	7	Julio	2023-07-24T00:00:00	2024-11-08T23:00:00	3	Temperatura mínima	17.9
107364	7	Sololá	704	Santa Lucía Utatlán 	7	Santa Rita 	7	Julio	2023-07-24T00:00:00	2024-11-08T23:00:00	5	Humedad	93
107365	7	Sololá	704	Santa Lucía Utatlán 	7	Santa Rita 	7	Julio	2023-07-24T00:00:00	2024-11-08T23:00:00	6	Velocidad del viento	3.2
107366	7	Sololá	704	Santa Lucía Utatlán 	7	Santa Rita 	7	Julio	2023-07-24T00:00:00	2024-11-08T23:00:00	7	Dirección del viento	3.22
107367	7	Sololá	704	Santa Lucía Utatlán 	7	Santa Rita 	7	Julio	2023-07-24T00:00:00	2024-11-08T23:00:00	1	Precipitación	0
107368	7	Sololá	704	Santa Lucía Utatlán 	7	Santa Rita 	7	Julio	2023-07-24T00:00:00	2024-11-08T23:00:00	8	Radiación solar	0
107369	7	Sololá	704	Santa Lucía Utatlán 	7	Santa Rita 	7	Julio	2023-07-25T00:00:00	2024-11-08T00:00:00	2	Temperatura media	17.9
107370	7	Sololá	704	Santa Lucía Utatlán 	7	Santa Rita 	7	Julio	2023-07-25T00:00:00	2024-11-08T00:00:00	4	Temperatura máxima	18
107371	7	Sololá	704	Santa Lucía Utatlán 	7	Santa Rita 	7	Julio	2023-07-25T00:00:00	2024-11-08T00:00:00	3	Temperatura mínima	17.8
107372	7	Sololá	704	Santa Lucía Utatlán 	7	Santa Rita 	7	Julio	2023-07-25T00:00:00	2024-11-08T00:00:00	5	Humedad	94
107373	7	Sololá	704	Santa Lucía Utatlán 	7	Santa Rita 	7	Julio	2023-07-25T00:00:00	2024-11-08T00:00:00	6	Velocidad del viento	1.6
107374	7	Sololá	704	Santa Lucía Utatlán 	7	Santa Rita 	7	Julio	2023-07-25T00:00:00	2024-11-08T00:00:00	7	Dirección del viento	1.61
107375	7	Sololá	704	Santa Lucía Utatlán 	7	Santa Rita 	7	Julio	2023-07-25T00:00:00	2024-11-08T00:00:00	1	Precipitación	0
107376	7	Sololá	704	Santa Lucía Utatlán 	7	Santa Rita 	7	Julio	2023-07-25T00:00:00	2024-11-08T00:00:00	8	Radiación solar	0
107377	7	Sololá	704	Santa Lucía Utatlán 	7	Santa Rita 	7	Julio	2023-07-25T00:00:00	2024-11-08T01:00:00	2	Temperatura media	18.2
107378	7	Sololá	704	Santa Lucía Utatlán 	7	Santa Rita 	7	Julio	2023-07-25T00:00:00	2024-11-08T01:00:00	4	Temperatura máxima	18.8
107379	7	Sololá	704	Santa Lucía Utatlán 	7	Santa Rita 	7	Julio	2023-07-25T00:00:00	2024-11-08T01:00:00	3	Temperatura mínima	17.8
107380	7	Sololá	704	Santa Lucía Utatlán 	7	Santa Rita 	7	Julio	2023-07-25T00:00:00	2024-11-08T01:00:00	5	Humedad	93
107381	7	Sololá	704	Santa Lucía Utatlán 	7	Santa Rita 	7	Julio	2023-07-25T00:00:00	2024-11-08T01:00:00	6	Velocidad del viento	1.6
107382	7	Sololá	704	Santa Lucía Utatlán 	7	Santa Rita 	7	Julio	2023-07-25T00:00:00	2024-11-08T01:00:00	7	Dirección del viento	1.61
107383	7	Sololá	704	Santa Lucía Utatlán 	7	Santa Rita 	7	Julio	2023-07-25T00:00:00	2024-11-08T01:00:00	1	Precipitación	0
107384	7	Sololá	704	Santa Lucía Utatlán 	7	Santa Rita 	7	Julio	2023-07-25T00:00:00	2024-11-08T01:00:00	8	Radiación solar	0
107385	7	Sololá	704	Santa Lucía Utatlán 	7	Santa Rita 	7	Julio	2023-07-25T00:00:00	2024-11-08T02:00:00	2	Temperatura media	17.8
107386	7	Sololá	704	Santa Lucía Utatlán 	7	Santa Rita 	7	Julio	2023-07-25T00:00:00	2024-11-08T02:00:00	4	Temperatura máxima	18.2
107387	7	Sololá	704	Santa Lucía Utatlán 	7	Santa Rita 	7	Julio	2023-07-25T00:00:00	2024-11-08T02:00:00	3	Temperatura mínima	17.8
107388	7	Sololá	704	Santa Lucía Utatlán 	7	Santa Rita 	7	Julio	2023-07-25T00:00:00	2024-11-08T02:00:00	5	Humedad	93
107389	7	Sololá	704	Santa Lucía Utatlán 	7	Santa Rita 	7	Julio	2023-07-25T00:00:00	2024-11-08T02:00:00	6	Velocidad del viento	1.6
107390	7	Sololá	704	Santa Lucía Utatlán 	7	Santa Rita 	7	Julio	2023-07-25T00:00:00	2024-11-08T02:00:00	7	Dirección del viento	1.61
107391	7	Sololá	704	Santa Lucía Utatlán 	7	Santa Rita 	7	Julio	2023-07-25T00:00:00	2024-11-08T02:00:00	1	Precipitación	0
107392	7	Sololá	704	Santa Lucía Utatlán 	7	Santa Rita 	7	Julio	2023-07-25T00:00:00	2024-11-08T02:00:00	8	Radiación solar	0
107393	7	Sololá	704	Santa Lucía Utatlán 	7	Santa Rita 	7	Julio	2023-07-25T00:00:00	2024-11-08T03:00:00	2	Temperatura media	17.2
107394	7	Sololá	704	Santa Lucía Utatlán 	7	Santa Rita 	7	Julio	2023-07-25T00:00:00	2024-11-08T03:00:00	4	Temperatura máxima	17.8
107395	7	Sololá	704	Santa Lucía Utatlán 	7	Santa Rita 	7	Julio	2023-07-25T00:00:00	2024-11-08T03:00:00	3	Temperatura mínima	17.2
107396	7	Sololá	704	Santa Lucía Utatlán 	7	Santa Rita 	7	Julio	2023-07-25T00:00:00	2024-11-08T03:00:00	5	Humedad	91
107397	7	Sololá	704	Santa Lucía Utatlán 	7	Santa Rita 	7	Julio	2023-07-25T00:00:00	2024-11-08T03:00:00	6	Velocidad del viento	1.6
107398	7	Sololá	704	Santa Lucía Utatlán 	7	Santa Rita 	7	Julio	2023-07-25T00:00:00	2024-11-08T03:00:00	7	Dirección del viento	1.61
107399	7	Sololá	704	Santa Lucía Utatlán 	7	Santa Rita 	7	Julio	2023-07-25T00:00:00	2024-11-08T03:00:00	1	Precipitación	0
107400	7	Sololá	704	Santa Lucía Utatlán 	7	Santa Rita 	7	Julio	2023-07-25T00:00:00	2024-11-08T03:00:00	8	Radiación solar	0
107401	7	Sololá	704	Santa Lucía Utatlán 	7	Santa Rita 	7	Julio	2023-07-25T00:00:00	2024-11-08T04:00:00	2	Temperatura media	16.4
107402	7	Sololá	704	Santa Lucía Utatlán 	7	Santa Rita 	7	Julio	2023-07-25T00:00:00	2024-11-08T04:00:00	4	Temperatura máxima	17.2
107403	7	Sololá	704	Santa Lucía Utatlán 	7	Santa Rita 	7	Julio	2023-07-25T00:00:00	2024-11-08T04:00:00	3	Temperatura mínima	16.4
107404	7	Sololá	704	Santa Lucía Utatlán 	7	Santa Rita 	7	Julio	2023-07-25T00:00:00	2024-11-08T04:00:00	5	Humedad	92
107405	7	Sololá	704	Santa Lucía Utatlán 	7	Santa Rita 	7	Julio	2023-07-25T00:00:00	2024-11-08T04:00:00	6	Velocidad del viento	1.6
107406	7	Sololá	704	Santa Lucía Utatlán 	7	Santa Rita 	7	Julio	2023-07-25T00:00:00	2024-11-08T04:00:00	7	Dirección del viento	1.61
107407	7	Sololá	704	Santa Lucía Utatlán 	7	Santa Rita 	7	Julio	2023-07-25T00:00:00	2024-11-08T04:00:00	1	Precipitación	0
107408	7	Sololá	704	Santa Lucía Utatlán 	7	Santa Rita 	7	Julio	2023-07-25T00:00:00	2024-11-08T04:00:00	8	Radiación solar	0
107409	7	Sololá	704	Santa Lucía Utatlán 	7	Santa Rita 	7	Julio	2023-07-25T00:00:00	2024-11-08T05:00:00	2	Temperatura media	16.3
107410	7	Sololá	704	Santa Lucía Utatlán 	7	Santa Rita 	7	Julio	2023-07-25T00:00:00	2024-11-08T05:00:00	4	Temperatura máxima	16.5
107411	7	Sololá	704	Santa Lucía Utatlán 	7	Santa Rita 	7	Julio	2023-07-25T00:00:00	2024-11-08T05:00:00	3	Temperatura mínima	16.1
107412	7	Sololá	704	Santa Lucía Utatlán 	7	Santa Rita 	7	Julio	2023-07-25T00:00:00	2024-11-08T05:00:00	5	Humedad	92
107413	7	Sololá	704	Santa Lucía Utatlán 	7	Santa Rita 	7	Julio	2023-07-25T00:00:00	2024-11-08T05:00:00	6	Velocidad del viento	3.2
107414	7	Sololá	704	Santa Lucía Utatlán 	7	Santa Rita 	7	Julio	2023-07-25T00:00:00	2024-11-08T05:00:00	7	Dirección del viento	3.22
107415	7	Sololá	704	Santa Lucía Utatlán 	7	Santa Rita 	7	Julio	2023-07-25T00:00:00	2024-11-08T05:00:00	1	Precipitación	0
107416	7	Sololá	704	Santa Lucía Utatlán 	7	Santa Rita 	7	Julio	2023-07-25T00:00:00	2024-11-08T05:00:00	8	Radiación solar	0
107417	7	Sololá	704	Santa Lucía Utatlán 	7	Santa Rita 	7	Julio	2023-07-25T00:00:00	2024-11-08T06:00:00	2	Temperatura media	16.7
107418	7	Sololá	704	Santa Lucía Utatlán 	7	Santa Rita 	7	Julio	2023-07-25T00:00:00	2024-11-08T06:00:00	4	Temperatura máxima	16.8
107419	7	Sololá	704	Santa Lucía Utatlán 	7	Santa Rita 	7	Julio	2023-07-25T00:00:00	2024-11-08T06:00:00	3	Temperatura mínima	16.3
107420	7	Sololá	704	Santa Lucía Utatlán 	7	Santa Rita 	7	Julio	2023-07-25T00:00:00	2024-11-08T06:00:00	5	Humedad	90
107421	7	Sololá	704	Santa Lucía Utatlán 	7	Santa Rita 	7	Julio	2023-07-25T00:00:00	2024-11-08T06:00:00	6	Velocidad del viento	3.2
107422	7	Sololá	704	Santa Lucía Utatlán 	7	Santa Rita 	7	Julio	2023-07-25T00:00:00	2024-11-08T06:00:00	7	Dirección del viento	3.22
107423	7	Sololá	704	Santa Lucía Utatlán 	7	Santa Rita 	7	Julio	2023-07-25T00:00:00	2024-11-08T06:00:00	1	Precipitación	0
107424	7	Sololá	704	Santa Lucía Utatlán 	7	Santa Rita 	7	Julio	2023-07-25T00:00:00	2024-11-08T06:00:00	8	Radiación solar	2
107425	7	Sololá	704	Santa Lucía Utatlán 	7	Santa Rita 	7	Julio	2023-07-25T00:00:00	2024-11-08T07:00:00	2	Temperatura media	17.7
107426	7	Sololá	704	Santa Lucía Utatlán 	7	Santa Rita 	7	Julio	2023-07-25T00:00:00	2024-11-08T07:00:00	4	Temperatura máxima	17.7
107427	7	Sololá	704	Santa Lucía Utatlán 	7	Santa Rita 	7	Julio	2023-07-25T00:00:00	2024-11-08T07:00:00	3	Temperatura mínima	16.4
107428	7	Sololá	704	Santa Lucía Utatlán 	7	Santa Rita 	7	Julio	2023-07-25T00:00:00	2024-11-08T07:00:00	5	Humedad	92
107429	7	Sololá	704	Santa Lucía Utatlán 	7	Santa Rita 	7	Julio	2023-07-25T00:00:00	2024-11-08T07:00:00	6	Velocidad del viento	3.2
107430	7	Sololá	704	Santa Lucía Utatlán 	7	Santa Rita 	7	Julio	2023-07-25T00:00:00	2024-11-08T07:00:00	7	Dirección del viento	3.22
107431	7	Sololá	704	Santa Lucía Utatlán 	7	Santa Rita 	7	Julio	2023-07-25T00:00:00	2024-11-08T07:00:00	1	Precipitación	0
107432	7	Sololá	704	Santa Lucía Utatlán 	7	Santa Rita 	7	Julio	2023-07-25T00:00:00	2024-11-08T07:00:00	8	Radiación solar	69
107433	7	Sololá	704	Santa Lucía Utatlán 	7	Santa Rita 	7	Julio	2023-07-25T00:00:00	2024-11-08T08:00:00	2	Temperatura media	20.6
107434	7	Sololá	704	Santa Lucía Utatlán 	7	Santa Rita 	7	Julio	2023-07-25T00:00:00	2024-11-08T08:00:00	4	Temperatura máxima	20.7
107435	7	Sololá	704	Santa Lucía Utatlán 	7	Santa Rita 	7	Julio	2023-07-25T00:00:00	2024-11-08T08:00:00	3	Temperatura mínima	17.7
107436	7	Sololá	704	Santa Lucía Utatlán 	7	Santa Rita 	7	Julio	2023-07-25T00:00:00	2024-11-08T08:00:00	5	Humedad	80
107437	7	Sololá	704	Santa Lucía Utatlán 	7	Santa Rita 	7	Julio	2023-07-25T00:00:00	2024-11-08T08:00:00	6	Velocidad del viento	1.6
107438	7	Sololá	704	Santa Lucía Utatlán 	7	Santa Rita 	7	Julio	2023-07-25T00:00:00	2024-11-08T08:00:00	7	Dirección del viento	1.61
107439	7	Sololá	704	Santa Lucía Utatlán 	7	Santa Rita 	7	Julio	2023-07-25T00:00:00	2024-11-08T08:00:00	1	Precipitación	0
107440	7	Sololá	704	Santa Lucía Utatlán 	7	Santa Rita 	7	Julio	2023-07-25T00:00:00	2024-11-08T08:00:00	8	Radiación solar	309
107441	7	Sololá	704	Santa Lucía Utatlán 	7	Santa Rita 	7	Julio	2023-07-25T00:00:00	2024-11-08T09:00:00	2	Temperatura media	23.7
107442	7	Sololá	704	Santa Lucía Utatlán 	7	Santa Rita 	7	Julio	2023-07-25T00:00:00	2024-11-08T09:00:00	4	Temperatura máxima	23.7
107443	7	Sololá	704	Santa Lucía Utatlán 	7	Santa Rita 	7	Julio	2023-07-25T00:00:00	2024-11-08T09:00:00	3	Temperatura mínima	20.6
107444	7	Sololá	704	Santa Lucía Utatlán 	7	Santa Rita 	7	Julio	2023-07-25T00:00:00	2024-11-08T09:00:00	5	Humedad	69
107445	7	Sololá	704	Santa Lucía Utatlán 	7	Santa Rita 	7	Julio	2023-07-25T00:00:00	2024-11-08T09:00:00	6	Velocidad del viento	3.2
107446	7	Sololá	704	Santa Lucía Utatlán 	7	Santa Rita 	7	Julio	2023-07-25T00:00:00	2024-11-08T09:00:00	7	Dirección del viento	3.22
107447	7	Sololá	704	Santa Lucía Utatlán 	7	Santa Rita 	7	Julio	2023-07-25T00:00:00	2024-11-08T09:00:00	1	Precipitación	0
107448	7	Sololá	704	Santa Lucía Utatlán 	7	Santa Rita 	7	Julio	2023-07-25T00:00:00	2024-11-08T09:00:00	8	Radiación solar	591
107449	7	Sololá	704	Santa Lucía Utatlán 	7	Santa Rita 	7	Julio	2023-07-25T00:00:00	2024-11-08T10:00:00	2	Temperatura media	25.1
107450	7	Sololá	704	Santa Lucía Utatlán 	7	Santa Rita 	7	Julio	2023-07-25T00:00:00	2024-11-08T10:00:00	4	Temperatura máxima	25.1
107451	7	Sololá	704	Santa Lucía Utatlán 	7	Santa Rita 	7	Julio	2023-07-25T00:00:00	2024-11-08T10:00:00	3	Temperatura mínima	23.7
107452	7	Sololá	704	Santa Lucía Utatlán 	7	Santa Rita 	7	Julio	2023-07-25T00:00:00	2024-11-08T10:00:00	5	Humedad	56
107453	7	Sololá	704	Santa Lucía Utatlán 	7	Santa Rita 	7	Julio	2023-07-25T00:00:00	2024-11-08T10:00:00	6	Velocidad del viento	4.8
107454	7	Sololá	704	Santa Lucía Utatlán 	7	Santa Rita 	7	Julio	2023-07-25T00:00:00	2024-11-08T10:00:00	7	Dirección del viento	4.83
107455	7	Sololá	704	Santa Lucía Utatlán 	7	Santa Rita 	7	Julio	2023-07-25T00:00:00	2024-11-08T10:00:00	1	Precipitación	0
107456	7	Sololá	704	Santa Lucía Utatlán 	7	Santa Rita 	7	Julio	2023-07-25T00:00:00	2024-11-08T10:00:00	8	Radiación solar	754
107457	7	Sololá	704	Santa Lucía Utatlán 	7	Santa Rita 	7	Julio	2023-07-25T00:00:00	2024-11-08T11:00:00	2	Temperatura media	25.2
107458	7	Sololá	704	Santa Lucía Utatlán 	7	Santa Rita 	7	Julio	2023-07-25T00:00:00	2024-11-08T11:00:00	4	Temperatura máxima	25.4
107459	7	Sololá	704	Santa Lucía Utatlán 	7	Santa Rita 	7	Julio	2023-07-25T00:00:00	2024-11-08T11:00:00	3	Temperatura mínima	25.1
107460	7	Sololá	704	Santa Lucía Utatlán 	7	Santa Rita 	7	Julio	2023-07-25T00:00:00	2024-11-08T11:00:00	5	Humedad	55
107461	7	Sololá	704	Santa Lucía Utatlán 	7	Santa Rita 	7	Julio	2023-07-25T00:00:00	2024-11-08T11:00:00	6	Velocidad del viento	6.4
107462	7	Sololá	704	Santa Lucía Utatlán 	7	Santa Rita 	7	Julio	2023-07-25T00:00:00	2024-11-08T11:00:00	7	Dirección del viento	6.44
107463	7	Sololá	704	Santa Lucía Utatlán 	7	Santa Rita 	7	Julio	2023-07-25T00:00:00	2024-11-08T11:00:00	1	Precipitación	0
107464	7	Sololá	704	Santa Lucía Utatlán 	7	Santa Rita 	7	Julio	2023-07-25T00:00:00	2024-11-08T11:00:00	8	Radiación solar	927
107465	7	Sololá	704	Santa Lucía Utatlán 	7	Santa Rita 	7	Julio	2023-07-25T00:00:00	2024-11-08T12:00:00	2	Temperatura media	25.4
107466	7	Sololá	704	Santa Lucía Utatlán 	7	Santa Rita 	7	Julio	2023-07-25T00:00:00	2024-11-08T12:00:00	4	Temperatura máxima	25.5
107467	7	Sololá	704	Santa Lucía Utatlán 	7	Santa Rita 	7	Julio	2023-07-25T00:00:00	2024-11-08T12:00:00	3	Temperatura mínima	25
107468	7	Sololá	704	Santa Lucía Utatlán 	7	Santa Rita 	7	Julio	2023-07-25T00:00:00	2024-11-08T12:00:00	5	Humedad	53
107469	7	Sololá	704	Santa Lucía Utatlán 	7	Santa Rita 	7	Julio	2023-07-25T00:00:00	2024-11-08T12:00:00	6	Velocidad del viento	9.7
107470	7	Sololá	704	Santa Lucía Utatlán 	7	Santa Rita 	7	Julio	2023-07-25T00:00:00	2024-11-08T12:00:00	7	Dirección del viento	9.66
107471	7	Sololá	704	Santa Lucía Utatlán 	7	Santa Rita 	7	Julio	2023-07-25T00:00:00	2024-11-08T12:00:00	1	Precipitación	0
107472	7	Sololá	704	Santa Lucía Utatlán 	7	Santa Rita 	7	Julio	2023-07-25T00:00:00	2024-11-08T12:00:00	8	Radiación solar	1016
107473	7	Sololá	704	Santa Lucía Utatlán 	7	Santa Rita 	7	Julio	2023-07-25T00:00:00	2024-11-08T13:00:00	2	Temperatura media	25.7
107474	7	Sololá	704	Santa Lucía Utatlán 	7	Santa Rita 	7	Julio	2023-07-25T00:00:00	2024-11-08T13:00:00	4	Temperatura máxima	25.9
107475	7	Sololá	704	Santa Lucía Utatlán 	7	Santa Rita 	7	Julio	2023-07-25T00:00:00	2024-11-08T13:00:00	3	Temperatura mínima	25.4
107476	7	Sololá	704	Santa Lucía Utatlán 	7	Santa Rita 	7	Julio	2023-07-25T00:00:00	2024-11-08T13:00:00	5	Humedad	48
107477	7	Sololá	704	Santa Lucía Utatlán 	7	Santa Rita 	7	Julio	2023-07-25T00:00:00	2024-11-08T13:00:00	6	Velocidad del viento	12.9
107478	7	Sololá	704	Santa Lucía Utatlán 	7	Santa Rita 	7	Julio	2023-07-25T00:00:00	2024-11-08T13:00:00	7	Dirección del viento	12.87
107479	7	Sololá	704	Santa Lucía Utatlán 	7	Santa Rita 	7	Julio	2023-07-25T00:00:00	2024-11-08T13:00:00	1	Precipitación	0
107480	7	Sololá	704	Santa Lucía Utatlán 	7	Santa Rita 	7	Julio	2023-07-25T00:00:00	2024-11-08T13:00:00	8	Radiación solar	1016
107481	7	Sololá	704	Santa Lucía Utatlán 	7	Santa Rita 	7	Julio	2023-07-25T00:00:00	2024-11-08T14:00:00	2	Temperatura media	25.4
107482	7	Sololá	704	Santa Lucía Utatlán 	7	Santa Rita 	7	Julio	2023-07-25T00:00:00	2024-11-08T14:00:00	4	Temperatura máxima	25.8
107483	7	Sololá	704	Santa Lucía Utatlán 	7	Santa Rita 	7	Julio	2023-07-25T00:00:00	2024-11-08T14:00:00	3	Temperatura mínima	25.4
107484	7	Sololá	704	Santa Lucía Utatlán 	7	Santa Rita 	7	Julio	2023-07-25T00:00:00	2024-11-08T14:00:00	5	Humedad	50
107485	7	Sololá	704	Santa Lucía Utatlán 	7	Santa Rita 	7	Julio	2023-07-25T00:00:00	2024-11-08T14:00:00	6	Velocidad del viento	12.9
107486	7	Sololá	704	Santa Lucía Utatlán 	7	Santa Rita 	7	Julio	2023-07-25T00:00:00	2024-11-08T14:00:00	7	Dirección del viento	12.87
107487	7	Sololá	704	Santa Lucía Utatlán 	7	Santa Rita 	7	Julio	2023-07-25T00:00:00	2024-11-08T14:00:00	1	Precipitación	0
107488	7	Sololá	704	Santa Lucía Utatlán 	7	Santa Rita 	7	Julio	2023-07-25T00:00:00	2024-11-08T14:00:00	8	Radiación solar	960
107489	7	Sololá	704	Santa Lucía Utatlán 	7	Santa Rita 	7	Julio	2023-07-25T00:00:00	2024-11-08T15:00:00	2	Temperatura media	24.8
107490	7	Sololá	704	Santa Lucía Utatlán 	7	Santa Rita 	7	Julio	2023-07-25T00:00:00	2024-11-08T15:00:00	4	Temperatura máxima	25.6
107491	7	Sololá	704	Santa Lucía Utatlán 	7	Santa Rita 	7	Julio	2023-07-25T00:00:00	2024-11-08T15:00:00	3	Temperatura mínima	24.8
107492	7	Sololá	704	Santa Lucía Utatlán 	7	Santa Rita 	7	Julio	2023-07-25T00:00:00	2024-11-08T15:00:00	5	Humedad	58
107493	7	Sololá	704	Santa Lucía Utatlán 	7	Santa Rita 	7	Julio	2023-07-25T00:00:00	2024-11-08T15:00:00	6	Velocidad del viento	11.3
107494	7	Sololá	704	Santa Lucía Utatlán 	7	Santa Rita 	7	Julio	2023-07-25T00:00:00	2024-11-08T15:00:00	7	Dirección del viento	11.27
107495	7	Sololá	704	Santa Lucía Utatlán 	7	Santa Rita 	7	Julio	2023-07-25T00:00:00	2024-11-08T15:00:00	1	Precipitación	0
107496	7	Sololá	704	Santa Lucía Utatlán 	7	Santa Rita 	7	Julio	2023-07-25T00:00:00	2024-11-08T15:00:00	8	Radiación solar	821
107497	7	Sololá	704	Santa Lucía Utatlán 	7	Santa Rita 	7	Julio	2023-07-25T00:00:00	2024-11-08T16:00:00	2	Temperatura media	24.4
107498	7	Sololá	704	Santa Lucía Utatlán 	7	Santa Rita 	7	Julio	2023-07-25T00:00:00	2024-11-08T16:00:00	4	Temperatura máxima	25.1
107499	7	Sololá	704	Santa Lucía Utatlán 	7	Santa Rita 	7	Julio	2023-07-25T00:00:00	2024-11-08T16:00:00	3	Temperatura mínima	24.1
107500	7	Sololá	704	Santa Lucía Utatlán 	7	Santa Rita 	7	Julio	2023-07-25T00:00:00	2024-11-08T16:00:00	5	Humedad	58
107501	7	Sololá	704	Santa Lucía Utatlán 	7	Santa Rita 	7	Julio	2023-07-25T00:00:00	2024-11-08T16:00:00	6	Velocidad del viento	11.3
107502	7	Sololá	704	Santa Lucía Utatlán 	7	Santa Rita 	7	Julio	2023-07-25T00:00:00	2024-11-08T16:00:00	7	Dirección del viento	11.27
107503	7	Sololá	704	Santa Lucía Utatlán 	7	Santa Rita 	7	Julio	2023-07-25T00:00:00	2024-11-08T16:00:00	1	Precipitación	0
107504	7	Sololá	704	Santa Lucía Utatlán 	7	Santa Rita 	7	Julio	2023-07-25T00:00:00	2024-11-08T16:00:00	8	Radiación solar	486
107505	7	Sololá	704	Santa Lucía Utatlán 	7	Santa Rita 	7	Julio	2023-07-25T00:00:00	2024-11-08T17:00:00	2	Temperatura media	23.6
107506	7	Sololá	704	Santa Lucía Utatlán 	7	Santa Rita 	7	Julio	2023-07-25T00:00:00	2024-11-08T17:00:00	4	Temperatura máxima	24.5
107507	7	Sololá	704	Santa Lucía Utatlán 	7	Santa Rita 	7	Julio	2023-07-25T00:00:00	2024-11-08T17:00:00	3	Temperatura mínima	23.6
107508	7	Sololá	704	Santa Lucía Utatlán 	7	Santa Rita 	7	Julio	2023-07-25T00:00:00	2024-11-08T17:00:00	5	Humedad	64
107509	7	Sololá	704	Santa Lucía Utatlán 	7	Santa Rita 	7	Julio	2023-07-25T00:00:00	2024-11-08T17:00:00	6	Velocidad del viento	9.7
107510	7	Sololá	704	Santa Lucía Utatlán 	7	Santa Rita 	7	Julio	2023-07-25T00:00:00	2024-11-08T17:00:00	7	Dirección del viento	9.66
107511	7	Sololá	704	Santa Lucía Utatlán 	7	Santa Rita 	7	Julio	2023-07-25T00:00:00	2024-11-08T17:00:00	1	Precipitación	0
107512	7	Sololá	704	Santa Lucía Utatlán 	7	Santa Rita 	7	Julio	2023-07-25T00:00:00	2024-11-08T17:00:00	8	Radiación solar	406
107513	7	Sololá	704	Santa Lucía Utatlán 	7	Santa Rita 	7	Julio	2023-07-25T00:00:00	2024-11-08T18:00:00	2	Temperatura media	22
107514	7	Sololá	704	Santa Lucía Utatlán 	7	Santa Rita 	7	Julio	2023-07-25T00:00:00	2024-11-08T18:00:00	4	Temperatura máxima	23.6
107515	7	Sololá	704	Santa Lucía Utatlán 	7	Santa Rita 	7	Julio	2023-07-25T00:00:00	2024-11-08T18:00:00	3	Temperatura mínima	22
107516	7	Sololá	704	Santa Lucía Utatlán 	7	Santa Rita 	7	Julio	2023-07-25T00:00:00	2024-11-08T18:00:00	5	Humedad	69
107517	7	Sololá	704	Santa Lucía Utatlán 	7	Santa Rita 	7	Julio	2023-07-25T00:00:00	2024-11-08T18:00:00	6	Velocidad del viento	6.4
107518	7	Sololá	704	Santa Lucía Utatlán 	7	Santa Rita 	7	Julio	2023-07-25T00:00:00	2024-11-08T18:00:00	7	Dirección del viento	6.44
107519	7	Sololá	704	Santa Lucía Utatlán 	7	Santa Rita 	7	Julio	2023-07-25T00:00:00	2024-11-08T18:00:00	1	Precipitación	0
107520	7	Sololá	704	Santa Lucía Utatlán 	7	Santa Rita 	7	Julio	2023-07-25T00:00:00	2024-11-08T18:00:00	8	Radiación solar	99
107521	7	Sololá	704	Santa Lucía Utatlán 	7	Santa Rita 	7	Julio	2023-07-25T00:00:00	2024-11-08T19:00:00	2	Temperatura media	21.2
107522	7	Sololá	704	Santa Lucía Utatlán 	7	Santa Rita 	7	Julio	2023-07-25T00:00:00	2024-11-08T19:00:00	4	Temperatura máxima	22
107523	7	Sololá	704	Santa Lucía Utatlán 	7	Santa Rita 	7	Julio	2023-07-25T00:00:00	2024-11-08T19:00:00	3	Temperatura mínima	21
107524	7	Sololá	704	Santa Lucía Utatlán 	7	Santa Rita 	7	Julio	2023-07-25T00:00:00	2024-11-08T19:00:00	5	Humedad	68
107525	7	Sololá	704	Santa Lucía Utatlán 	7	Santa Rita 	7	Julio	2023-07-25T00:00:00	2024-11-08T19:00:00	6	Velocidad del viento	4.8
107526	7	Sololá	704	Santa Lucía Utatlán 	7	Santa Rita 	7	Julio	2023-07-25T00:00:00	2024-11-08T19:00:00	7	Dirección del viento	4.83
107527	7	Sololá	704	Santa Lucía Utatlán 	7	Santa Rita 	7	Julio	2023-07-25T00:00:00	2024-11-08T19:00:00	1	Precipitación	0
107528	7	Sololá	704	Santa Lucía Utatlán 	7	Santa Rita 	7	Julio	2023-07-25T00:00:00	2024-11-08T19:00:00	8	Radiación solar	0
107529	7	Sololá	704	Santa Lucía Utatlán 	7	Santa Rita 	7	Julio	2023-07-25T00:00:00	2024-11-08T20:00:00	2	Temperatura media	19.7
107530	7	Sololá	704	Santa Lucía Utatlán 	7	Santa Rita 	7	Julio	2023-07-25T00:00:00	2024-11-08T20:00:00	4	Temperatura máxima	21.3
107531	7	Sololá	704	Santa Lucía Utatlán 	7	Santa Rita 	7	Julio	2023-07-25T00:00:00	2024-11-08T20:00:00	3	Temperatura mínima	19.7
107532	7	Sololá	704	Santa Lucía Utatlán 	7	Santa Rita 	7	Julio	2023-07-25T00:00:00	2024-11-08T20:00:00	5	Humedad	77
107533	7	Sololá	704	Santa Lucía Utatlán 	7	Santa Rita 	7	Julio	2023-07-25T00:00:00	2024-11-08T20:00:00	6	Velocidad del viento	4.8
107534	7	Sololá	704	Santa Lucía Utatlán 	7	Santa Rita 	7	Julio	2023-07-25T00:00:00	2024-11-08T20:00:00	7	Dirección del viento	4.83
107535	7	Sololá	704	Santa Lucía Utatlán 	7	Santa Rita 	7	Julio	2023-07-25T00:00:00	2024-11-08T20:00:00	1	Precipitación	0
107536	7	Sololá	704	Santa Lucía Utatlán 	7	Santa Rita 	7	Julio	2023-07-25T00:00:00	2024-11-08T20:00:00	8	Radiación solar	0
107537	7	Sololá	704	Santa Lucía Utatlán 	7	Santa Rita 	7	Julio	2023-07-25T00:00:00	2024-11-08T21:00:00	2	Temperatura media	20.4
107538	7	Sololá	704	Santa Lucía Utatlán 	7	Santa Rita 	7	Julio	2023-07-25T00:00:00	2024-11-08T21:00:00	4	Temperatura máxima	20.4
107539	7	Sololá	704	Santa Lucía Utatlán 	7	Santa Rita 	7	Julio	2023-07-25T00:00:00	2024-11-08T21:00:00	3	Temperatura mínima	19.4
107540	7	Sololá	704	Santa Lucía Utatlán 	7	Santa Rita 	7	Julio	2023-07-25T00:00:00	2024-11-08T21:00:00	5	Humedad	71
107541	7	Sololá	704	Santa Lucía Utatlán 	7	Santa Rita 	7	Julio	2023-07-25T00:00:00	2024-11-08T21:00:00	6	Velocidad del viento	3.2
107542	7	Sololá	704	Santa Lucía Utatlán 	7	Santa Rita 	7	Julio	2023-07-25T00:00:00	2024-11-08T21:00:00	7	Dirección del viento	3.22
107543	7	Sololá	704	Santa Lucía Utatlán 	7	Santa Rita 	7	Julio	2023-07-25T00:00:00	2024-11-08T21:00:00	1	Precipitación	0
107544	7	Sololá	704	Santa Lucía Utatlán 	7	Santa Rita 	7	Julio	2023-07-25T00:00:00	2024-11-08T21:00:00	8	Radiación solar	0
107545	7	Sololá	704	Santa Lucía Utatlán 	7	Santa Rita 	7	Julio	2023-07-25T00:00:00	2024-11-08T22:00:00	2	Temperatura media	20.1
107546	7	Sololá	704	Santa Lucía Utatlán 	7	Santa Rita 	7	Julio	2023-07-25T00:00:00	2024-11-08T22:00:00	4	Temperatura máxima	20.4
107547	7	Sololá	704	Santa Lucía Utatlán 	7	Santa Rita 	7	Julio	2023-07-25T00:00:00	2024-11-08T22:00:00	3	Temperatura mínima	19.9
107548	7	Sololá	704	Santa Lucía Utatlán 	7	Santa Rita 	7	Julio	2023-07-25T00:00:00	2024-11-08T22:00:00	5	Humedad	61
107549	7	Sololá	704	Santa Lucía Utatlán 	7	Santa Rita 	7	Julio	2023-07-25T00:00:00	2024-11-08T22:00:00	6	Velocidad del viento	8
107550	7	Sololá	704	Santa Lucía Utatlán 	7	Santa Rita 	7	Julio	2023-07-25T00:00:00	2024-11-08T22:00:00	7	Dirección del viento	8.05
107551	7	Sololá	704	Santa Lucía Utatlán 	7	Santa Rita 	7	Julio	2023-07-25T00:00:00	2024-11-08T22:00:00	1	Precipitación	0
107552	7	Sololá	704	Santa Lucía Utatlán 	7	Santa Rita 	7	Julio	2023-07-25T00:00:00	2024-11-08T22:00:00	8	Radiación solar	0
107553	7	Sololá	704	Santa Lucía Utatlán 	7	Santa Rita 	7	Julio	2023-07-25T00:00:00	2024-11-08T23:00:00	2	Temperatura media	19.7
107554	7	Sololá	704	Santa Lucía Utatlán 	7	Santa Rita 	7	Julio	2023-07-25T00:00:00	2024-11-08T23:00:00	4	Temperatura máxima	20.1
107555	7	Sololá	704	Santa Lucía Utatlán 	7	Santa Rita 	7	Julio	2023-07-25T00:00:00	2024-11-08T23:00:00	3	Temperatura mínima	19.2
107556	7	Sololá	704	Santa Lucía Utatlán 	7	Santa Rita 	7	Julio	2023-07-25T00:00:00	2024-11-08T23:00:00	5	Humedad	55
107557	7	Sololá	704	Santa Lucía Utatlán 	7	Santa Rita 	7	Julio	2023-07-25T00:00:00	2024-11-08T23:00:00	6	Velocidad del viento	9.7
107558	7	Sololá	704	Santa Lucía Utatlán 	7	Santa Rita 	7	Julio	2023-07-25T00:00:00	2024-11-08T23:00:00	7	Dirección del viento	9.66
107559	7	Sololá	704	Santa Lucía Utatlán 	7	Santa Rita 	7	Julio	2023-07-25T00:00:00	2024-11-08T23:00:00	1	Precipitación	0
107560	7	Sololá	704	Santa Lucía Utatlán 	7	Santa Rita 	7	Julio	2023-07-25T00:00:00	2024-11-08T23:00:00	8	Radiación solar	0
107561	7	Sololá	704	Santa Lucía Utatlán 	7	Santa Rita 	7	Julio	2023-07-26T00:00:00	2024-11-08T00:00:00	2	Temperatura media	20.3
107562	7	Sololá	704	Santa Lucía Utatlán 	7	Santa Rita 	7	Julio	2023-07-26T00:00:00	2024-11-08T00:00:00	4	Temperatura máxima	20.3
107563	7	Sololá	704	Santa Lucía Utatlán 	7	Santa Rita 	7	Julio	2023-07-26T00:00:00	2024-11-08T00:00:00	3	Temperatura mínima	19.1
107564	7	Sololá	704	Santa Lucía Utatlán 	7	Santa Rita 	7	Julio	2023-07-26T00:00:00	2024-11-08T00:00:00	5	Humedad	48
107565	7	Sololá	704	Santa Lucía Utatlán 	7	Santa Rita 	7	Julio	2023-07-26T00:00:00	2024-11-08T00:00:00	6	Velocidad del viento	8
107566	7	Sololá	704	Santa Lucía Utatlán 	7	Santa Rita 	7	Julio	2023-07-26T00:00:00	2024-11-08T00:00:00	7	Dirección del viento	8.05
107567	7	Sololá	704	Santa Lucía Utatlán 	7	Santa Rita 	7	Julio	2023-07-26T00:00:00	2024-11-08T00:00:00	1	Precipitación	0
107568	7	Sololá	704	Santa Lucía Utatlán 	7	Santa Rita 	7	Julio	2023-07-26T00:00:00	2024-11-08T00:00:00	8	Radiación solar	0
107569	7	Sololá	704	Santa Lucía Utatlán 	7	Santa Rita 	7	Julio	2023-07-26T00:00:00	2024-11-08T01:00:00	2	Temperatura media	21.4
107570	7	Sololá	704	Santa Lucía Utatlán 	7	Santa Rita 	7	Julio	2023-07-26T00:00:00	2024-11-08T01:00:00	4	Temperatura máxima	21.4
107571	7	Sololá	704	Santa Lucía Utatlán 	7	Santa Rita 	7	Julio	2023-07-26T00:00:00	2024-11-08T01:00:00	3	Temperatura mínima	19.9
107572	7	Sololá	704	Santa Lucía Utatlán 	7	Santa Rita 	7	Julio	2023-07-26T00:00:00	2024-11-08T01:00:00	5	Humedad	35
107573	7	Sololá	704	Santa Lucía Utatlán 	7	Santa Rita 	7	Julio	2023-07-26T00:00:00	2024-11-08T01:00:00	6	Velocidad del viento	8
107574	7	Sololá	704	Santa Lucía Utatlán 	7	Santa Rita 	7	Julio	2023-07-26T00:00:00	2024-11-08T01:00:00	7	Dirección del viento	8.05
107575	7	Sololá	704	Santa Lucía Utatlán 	7	Santa Rita 	7	Julio	2023-07-26T00:00:00	2024-11-08T01:00:00	1	Precipitación	0
107576	7	Sololá	704	Santa Lucía Utatlán 	7	Santa Rita 	7	Julio	2023-07-26T00:00:00	2024-11-08T01:00:00	8	Radiación solar	0
107577	7	Sololá	704	Santa Lucía Utatlán 	7	Santa Rita 	7	Julio	2023-07-26T00:00:00	2024-11-08T02:00:00	2	Temperatura media	20.6
107578	7	Sololá	704	Santa Lucía Utatlán 	7	Santa Rita 	7	Julio	2023-07-26T00:00:00	2024-11-08T02:00:00	4	Temperatura máxima	21.6
107579	7	Sololá	704	Santa Lucía Utatlán 	7	Santa Rita 	7	Julio	2023-07-26T00:00:00	2024-11-08T02:00:00	3	Temperatura mínima	20.4
107580	7	Sololá	704	Santa Lucía Utatlán 	7	Santa Rita 	7	Julio	2023-07-26T00:00:00	2024-11-08T02:00:00	5	Humedad	41
107581	7	Sololá	704	Santa Lucía Utatlán 	7	Santa Rita 	7	Julio	2023-07-26T00:00:00	2024-11-08T02:00:00	6	Velocidad del viento	8
107582	7	Sololá	704	Santa Lucía Utatlán 	7	Santa Rita 	7	Julio	2023-07-26T00:00:00	2024-11-08T02:00:00	7	Dirección del viento	8.05
107583	7	Sololá	704	Santa Lucía Utatlán 	7	Santa Rita 	7	Julio	2023-07-26T00:00:00	2024-11-08T02:00:00	1	Precipitación	0
107584	7	Sololá	704	Santa Lucía Utatlán 	7	Santa Rita 	7	Julio	2023-07-26T00:00:00	2024-11-08T02:00:00	8	Radiación solar	0
107585	7	Sololá	704	Santa Lucía Utatlán 	7	Santa Rita 	7	Julio	2023-07-26T00:00:00	2024-11-08T03:00:00	2	Temperatura media	16.4
107586	7	Sololá	704	Santa Lucía Utatlán 	7	Santa Rita 	7	Julio	2023-07-26T00:00:00	2024-11-08T03:00:00	4	Temperatura máxima	20.7
107587	7	Sololá	704	Santa Lucía Utatlán 	7	Santa Rita 	7	Julio	2023-07-26T00:00:00	2024-11-08T03:00:00	3	Temperatura mínima	16.4
107588	7	Sololá	704	Santa Lucía Utatlán 	7	Santa Rita 	7	Julio	2023-07-26T00:00:00	2024-11-08T03:00:00	5	Humedad	68
107589	7	Sololá	704	Santa Lucía Utatlán 	7	Santa Rita 	7	Julio	2023-07-26T00:00:00	2024-11-08T03:00:00	6	Velocidad del viento	3.2
107590	7	Sololá	704	Santa Lucía Utatlán 	7	Santa Rita 	7	Julio	2023-07-26T00:00:00	2024-11-08T03:00:00	7	Dirección del viento	3.22
107591	7	Sololá	704	Santa Lucía Utatlán 	7	Santa Rita 	7	Julio	2023-07-26T00:00:00	2024-11-08T03:00:00	1	Precipitación	0
107592	7	Sololá	704	Santa Lucía Utatlán 	7	Santa Rita 	7	Julio	2023-07-26T00:00:00	2024-11-08T03:00:00	8	Radiación solar	0
107593	7	Sololá	704	Santa Lucía Utatlán 	7	Santa Rita 	7	Julio	2023-07-26T00:00:00	2024-11-08T04:00:00	2	Temperatura media	15.6
107594	7	Sololá	704	Santa Lucía Utatlán 	7	Santa Rita 	7	Julio	2023-07-26T00:00:00	2024-11-08T04:00:00	4	Temperatura máxima	16.4
107595	7	Sololá	704	Santa Lucía Utatlán 	7	Santa Rita 	7	Julio	2023-07-26T00:00:00	2024-11-08T04:00:00	3	Temperatura mínima	15.2
107596	7	Sololá	704	Santa Lucía Utatlán 	7	Santa Rita 	7	Julio	2023-07-26T00:00:00	2024-11-08T04:00:00	5	Humedad	77
107597	7	Sololá	704	Santa Lucía Utatlán 	7	Santa Rita 	7	Julio	2023-07-26T00:00:00	2024-11-08T04:00:00	6	Velocidad del viento	3.2
107598	7	Sololá	704	Santa Lucía Utatlán 	7	Santa Rita 	7	Julio	2023-07-26T00:00:00	2024-11-08T04:00:00	7	Dirección del viento	3.22
107599	7	Sololá	704	Santa Lucía Utatlán 	7	Santa Rita 	7	Julio	2023-07-26T00:00:00	2024-11-08T04:00:00	1	Precipitación	0
107600	7	Sololá	704	Santa Lucía Utatlán 	7	Santa Rita 	7	Julio	2023-07-26T00:00:00	2024-11-08T04:00:00	8	Radiación solar	0
107601	7	Sololá	704	Santa Lucía Utatlán 	7	Santa Rita 	7	Julio	2023-07-26T00:00:00	2024-11-08T05:00:00	2	Temperatura media	16.1
107602	7	Sololá	704	Santa Lucía Utatlán 	7	Santa Rita 	7	Julio	2023-07-26T00:00:00	2024-11-08T05:00:00	4	Temperatura máxima	16.2
107603	7	Sololá	704	Santa Lucía Utatlán 	7	Santa Rita 	7	Julio	2023-07-26T00:00:00	2024-11-08T05:00:00	3	Temperatura mínima	15.5
107604	7	Sololá	704	Santa Lucía Utatlán 	7	Santa Rita 	7	Julio	2023-07-26T00:00:00	2024-11-08T05:00:00	5	Humedad	75
107605	7	Sololá	704	Santa Lucía Utatlán 	7	Santa Rita 	7	Julio	2023-07-26T00:00:00	2024-11-08T05:00:00	6	Velocidad del viento	4.8
107606	7	Sololá	704	Santa Lucía Utatlán 	7	Santa Rita 	7	Julio	2023-07-26T00:00:00	2024-11-08T05:00:00	7	Dirección del viento	4.83
107607	7	Sololá	704	Santa Lucía Utatlán 	7	Santa Rita 	7	Julio	2023-07-26T00:00:00	2024-11-08T05:00:00	1	Precipitación	0
107608	7	Sololá	704	Santa Lucía Utatlán 	7	Santa Rita 	7	Julio	2023-07-26T00:00:00	2024-11-08T05:00:00	8	Radiación solar	0
107609	7	Sololá	704	Santa Lucía Utatlán 	7	Santa Rita 	7	Julio	2023-07-26T00:00:00	2024-11-08T06:00:00	2	Temperatura media	16.1
107610	7	Sololá	704	Santa Lucía Utatlán 	7	Santa Rita 	7	Julio	2023-07-26T00:00:00	2024-11-08T06:00:00	4	Temperatura máxima	16.2
107611	7	Sololá	704	Santa Lucía Utatlán 	7	Santa Rita 	7	Julio	2023-07-26T00:00:00	2024-11-08T06:00:00	3	Temperatura mínima	15.6
107612	7	Sololá	704	Santa Lucía Utatlán 	7	Santa Rita 	7	Julio	2023-07-26T00:00:00	2024-11-08T06:00:00	5	Humedad	80
107613	7	Sololá	704	Santa Lucía Utatlán 	7	Santa Rita 	7	Julio	2023-07-26T00:00:00	2024-11-08T06:00:00	6	Velocidad del viento	3.2
107614	7	Sololá	704	Santa Lucía Utatlán 	7	Santa Rita 	7	Julio	2023-07-26T00:00:00	2024-11-08T06:00:00	7	Dirección del viento	3.22
107615	7	Sololá	704	Santa Lucía Utatlán 	7	Santa Rita 	7	Julio	2023-07-26T00:00:00	2024-11-08T06:00:00	1	Precipitación	0
107616	7	Sololá	704	Santa Lucía Utatlán 	7	Santa Rita 	7	Julio	2023-07-26T00:00:00	2024-11-08T06:00:00	8	Radiación solar	2
107617	7	Sololá	704	Santa Lucía Utatlán 	7	Santa Rita 	7	Julio	2023-07-26T00:00:00	2024-11-08T07:00:00	2	Temperatura media	17.5
107618	7	Sololá	704	Santa Lucía Utatlán 	7	Santa Rita 	7	Julio	2023-07-26T00:00:00	2024-11-08T07:00:00	4	Temperatura máxima	17.5
107619	7	Sololá	704	Santa Lucía Utatlán 	7	Santa Rita 	7	Julio	2023-07-26T00:00:00	2024-11-08T07:00:00	3	Temperatura mínima	15.6
107620	7	Sololá	704	Santa Lucía Utatlán 	7	Santa Rita 	7	Julio	2023-07-26T00:00:00	2024-11-08T07:00:00	5	Humedad	78
107621	7	Sololá	704	Santa Lucía Utatlán 	7	Santa Rita 	7	Julio	2023-07-26T00:00:00	2024-11-08T07:00:00	6	Velocidad del viento	3.2
107622	7	Sololá	704	Santa Lucía Utatlán 	7	Santa Rita 	7	Julio	2023-07-26T00:00:00	2024-11-08T07:00:00	7	Dirección del viento	3.22
107623	7	Sololá	704	Santa Lucía Utatlán 	7	Santa Rita 	7	Julio	2023-07-26T00:00:00	2024-11-08T07:00:00	1	Precipitación	0
107624	7	Sololá	704	Santa Lucía Utatlán 	7	Santa Rita 	7	Julio	2023-07-26T00:00:00	2024-11-08T07:00:00	8	Radiación solar	56
107625	7	Sololá	704	Santa Lucía Utatlán 	7	Santa Rita 	7	Julio	2023-07-26T00:00:00	2024-11-08T08:00:00	2	Temperatura media	20.8
107626	7	Sololá	704	Santa Lucía Utatlán 	7	Santa Rita 	7	Julio	2023-07-26T00:00:00	2024-11-08T08:00:00	4	Temperatura máxima	20.8
107627	7	Sololá	704	Santa Lucía Utatlán 	7	Santa Rita 	7	Julio	2023-07-26T00:00:00	2024-11-08T08:00:00	3	Temperatura mínima	17.5
107628	7	Sololá	704	Santa Lucía Utatlán 	7	Santa Rita 	7	Julio	2023-07-26T00:00:00	2024-11-08T08:00:00	5	Humedad	70
107629	7	Sololá	704	Santa Lucía Utatlán 	7	Santa Rita 	7	Julio	2023-07-26T00:00:00	2024-11-08T08:00:00	6	Velocidad del viento	3.2
107630	7	Sololá	704	Santa Lucía Utatlán 	7	Santa Rita 	7	Julio	2023-07-26T00:00:00	2024-11-08T08:00:00	7	Dirección del viento	3.22
107631	7	Sololá	704	Santa Lucía Utatlán 	7	Santa Rita 	7	Julio	2023-07-26T00:00:00	2024-11-08T08:00:00	1	Precipitación	0
107632	7	Sololá	704	Santa Lucía Utatlán 	7	Santa Rita 	7	Julio	2023-07-26T00:00:00	2024-11-08T08:00:00	8	Radiación solar	380
107633	7	Sololá	704	Santa Lucía Utatlán 	7	Santa Rita 	7	Julio	2023-07-26T00:00:00	2024-11-08T09:00:00	2	Temperatura media	23.4
107634	7	Sololá	704	Santa Lucía Utatlán 	7	Santa Rita 	7	Julio	2023-07-26T00:00:00	2024-11-08T09:00:00	4	Temperatura máxima	23.6
107635	7	Sololá	704	Santa Lucía Utatlán 	7	Santa Rita 	7	Julio	2023-07-26T00:00:00	2024-11-08T09:00:00	3	Temperatura mínima	20.8
107636	7	Sololá	704	Santa Lucía Utatlán 	7	Santa Rita 	7	Julio	2023-07-26T00:00:00	2024-11-08T09:00:00	5	Humedad	62
107637	7	Sololá	704	Santa Lucía Utatlán 	7	Santa Rita 	7	Julio	2023-07-26T00:00:00	2024-11-08T09:00:00	6	Velocidad del viento	4.8
107638	7	Sololá	704	Santa Lucía Utatlán 	7	Santa Rita 	7	Julio	2023-07-26T00:00:00	2024-11-08T09:00:00	7	Dirección del viento	4.83
107639	7	Sololá	704	Santa Lucía Utatlán 	7	Santa Rita 	7	Julio	2023-07-26T00:00:00	2024-11-08T09:00:00	1	Precipitación	0
107640	7	Sololá	704	Santa Lucía Utatlán 	7	Santa Rita 	7	Julio	2023-07-26T00:00:00	2024-11-08T09:00:00	8	Radiación solar	623
107641	7	Sololá	704	Santa Lucía Utatlán 	7	Santa Rita 	7	Julio	2023-07-26T00:00:00	2024-11-08T10:00:00	2	Temperatura media	25.2
107642	7	Sololá	704	Santa Lucía Utatlán 	7	Santa Rita 	7	Julio	2023-07-26T00:00:00	2024-11-08T10:00:00	4	Temperatura máxima	25.4
107643	7	Sololá	704	Santa Lucía Utatlán 	7	Santa Rita 	7	Julio	2023-07-26T00:00:00	2024-11-08T10:00:00	3	Temperatura mínima	23.4
107644	7	Sololá	704	Santa Lucía Utatlán 	7	Santa Rita 	7	Julio	2023-07-26T00:00:00	2024-11-08T10:00:00	5	Humedad	55
107645	7	Sololá	704	Santa Lucía Utatlán 	7	Santa Rita 	7	Julio	2023-07-26T00:00:00	2024-11-08T10:00:00	6	Velocidad del viento	4.8
107646	7	Sololá	704	Santa Lucía Utatlán 	7	Santa Rita 	7	Julio	2023-07-26T00:00:00	2024-11-08T10:00:00	7	Dirección del viento	4.83
107647	7	Sololá	704	Santa Lucía Utatlán 	7	Santa Rita 	7	Julio	2023-07-26T00:00:00	2024-11-08T10:00:00	1	Precipitación	0
107648	7	Sololá	704	Santa Lucía Utatlán 	7	Santa Rita 	7	Julio	2023-07-26T00:00:00	2024-11-08T10:00:00	8	Radiación solar	801
107649	7	Sololá	704	Santa Lucía Utatlán 	7	Santa Rita 	7	Julio	2023-07-26T00:00:00	2024-11-08T11:00:00	2	Temperatura media	26.4
107650	7	Sololá	704	Santa Lucía Utatlán 	7	Santa Rita 	7	Julio	2023-07-26T00:00:00	2024-11-08T11:00:00	4	Temperatura máxima	26.4
107651	7	Sololá	704	Santa Lucía Utatlán 	7	Santa Rita 	7	Julio	2023-07-26T00:00:00	2024-11-08T11:00:00	3	Temperatura mínima	25.2
107652	7	Sololá	704	Santa Lucía Utatlán 	7	Santa Rita 	7	Julio	2023-07-26T00:00:00	2024-11-08T11:00:00	5	Humedad	55
107653	7	Sololá	704	Santa Lucía Utatlán 	7	Santa Rita 	7	Julio	2023-07-26T00:00:00	2024-11-08T11:00:00	6	Velocidad del viento	8
107654	7	Sololá	704	Santa Lucía Utatlán 	7	Santa Rita 	7	Julio	2023-07-26T00:00:00	2024-11-08T11:00:00	7	Dirección del viento	8.05
107655	7	Sololá	704	Santa Lucía Utatlán 	7	Santa Rita 	7	Julio	2023-07-26T00:00:00	2024-11-08T11:00:00	1	Precipitación	0
107656	7	Sololá	704	Santa Lucía Utatlán 	7	Santa Rita 	7	Julio	2023-07-26T00:00:00	2024-11-08T11:00:00	8	Radiación solar	946
107657	7	Sololá	704	Santa Lucía Utatlán 	7	Santa Rita 	7	Julio	2023-07-26T00:00:00	2024-11-08T12:00:00	2	Temperatura media	26.5
107658	7	Sololá	704	Santa Lucía Utatlán 	7	Santa Rita 	7	Julio	2023-07-26T00:00:00	2024-11-08T12:00:00	4	Temperatura máxima	26.9
107659	7	Sololá	704	Santa Lucía Utatlán 	7	Santa Rita 	7	Julio	2023-07-26T00:00:00	2024-11-08T12:00:00	3	Temperatura mínima	26.1
107660	7	Sololá	704	Santa Lucía Utatlán 	7	Santa Rita 	7	Julio	2023-07-26T00:00:00	2024-11-08T12:00:00	5	Humedad	55
107661	7	Sololá	704	Santa Lucía Utatlán 	7	Santa Rita 	7	Julio	2023-07-26T00:00:00	2024-11-08T12:00:00	6	Velocidad del viento	9.7
107662	7	Sololá	704	Santa Lucía Utatlán 	7	Santa Rita 	7	Julio	2023-07-26T00:00:00	2024-11-08T12:00:00	7	Dirección del viento	9.66
107663	7	Sololá	704	Santa Lucía Utatlán 	7	Santa Rita 	7	Julio	2023-07-26T00:00:00	2024-11-08T12:00:00	1	Precipitación	0
107664	7	Sololá	704	Santa Lucía Utatlán 	7	Santa Rita 	7	Julio	2023-07-26T00:00:00	2024-11-08T12:00:00	8	Radiación solar	1019
107665	7	Sololá	704	Santa Lucía Utatlán 	7	Santa Rita 	7	Julio	2023-07-26T00:00:00	2024-11-08T13:00:00	2	Temperatura media	25.8
107666	7	Sololá	704	Santa Lucía Utatlán 	7	Santa Rita 	7	Julio	2023-07-26T00:00:00	2024-11-08T13:00:00	4	Temperatura máxima	26.5
107667	7	Sololá	704	Santa Lucía Utatlán 	7	Santa Rita 	7	Julio	2023-07-26T00:00:00	2024-11-08T13:00:00	3	Temperatura mínima	25.8
107668	7	Sololá	704	Santa Lucía Utatlán 	7	Santa Rita 	7	Julio	2023-07-26T00:00:00	2024-11-08T13:00:00	5	Humedad	50
107669	7	Sololá	704	Santa Lucía Utatlán 	7	Santa Rita 	7	Julio	2023-07-26T00:00:00	2024-11-08T13:00:00	6	Velocidad del viento	11.3
107670	7	Sololá	704	Santa Lucía Utatlán 	7	Santa Rita 	7	Julio	2023-07-26T00:00:00	2024-11-08T13:00:00	7	Dirección del viento	11.27
107671	7	Sololá	704	Santa Lucía Utatlán 	7	Santa Rita 	7	Julio	2023-07-26T00:00:00	2024-11-08T13:00:00	1	Precipitación	0
107672	7	Sololá	704	Santa Lucía Utatlán 	7	Santa Rita 	7	Julio	2023-07-26T00:00:00	2024-11-08T13:00:00	8	Radiación solar	1022
107673	7	Sololá	704	Santa Lucía Utatlán 	7	Santa Rita 	7	Julio	2023-07-26T00:00:00	2024-11-08T14:00:00	2	Temperatura media	25.8
107674	7	Sololá	704	Santa Lucía Utatlán 	7	Santa Rita 	7	Julio	2023-07-26T00:00:00	2024-11-08T14:00:00	4	Temperatura máxima	26
107675	7	Sololá	704	Santa Lucía Utatlán 	7	Santa Rita 	7	Julio	2023-07-26T00:00:00	2024-11-08T14:00:00	3	Temperatura mínima	25.4
107676	7	Sololá	704	Santa Lucía Utatlán 	7	Santa Rita 	7	Julio	2023-07-26T00:00:00	2024-11-08T14:00:00	5	Humedad	55
107677	7	Sololá	704	Santa Lucía Utatlán 	7	Santa Rita 	7	Julio	2023-07-26T00:00:00	2024-11-08T14:00:00	6	Velocidad del viento	14.5
107678	7	Sololá	704	Santa Lucía Utatlán 	7	Santa Rita 	7	Julio	2023-07-26T00:00:00	2024-11-08T14:00:00	7	Dirección del viento	14.48
107679	7	Sololá	704	Santa Lucía Utatlán 	7	Santa Rita 	7	Julio	2023-07-26T00:00:00	2024-11-08T14:00:00	1	Precipitación	0
107680	7	Sololá	704	Santa Lucía Utatlán 	7	Santa Rita 	7	Julio	2023-07-26T00:00:00	2024-11-08T14:00:00	8	Radiación solar	956
107681	7	Sololá	704	Santa Lucía Utatlán 	7	Santa Rita 	7	Julio	2023-07-26T00:00:00	2024-11-08T15:00:00	2	Temperatura media	25.9
107682	7	Sololá	704	Santa Lucía Utatlán 	7	Santa Rita 	7	Julio	2023-07-26T00:00:00	2024-11-08T15:00:00	4	Temperatura máxima	25.9
107683	7	Sololá	704	Santa Lucía Utatlán 	7	Santa Rita 	7	Julio	2023-07-26T00:00:00	2024-11-08T15:00:00	3	Temperatura mínima	25.3
107684	7	Sololá	704	Santa Lucía Utatlán 	7	Santa Rita 	7	Julio	2023-07-26T00:00:00	2024-11-08T15:00:00	5	Humedad	58
107685	7	Sololá	704	Santa Lucía Utatlán 	7	Santa Rita 	7	Julio	2023-07-26T00:00:00	2024-11-08T15:00:00	6	Velocidad del viento	11.3
107686	7	Sololá	704	Santa Lucía Utatlán 	7	Santa Rita 	7	Julio	2023-07-26T00:00:00	2024-11-08T15:00:00	7	Dirección del viento	11.27
107687	7	Sololá	704	Santa Lucía Utatlán 	7	Santa Rita 	7	Julio	2023-07-26T00:00:00	2024-11-08T15:00:00	1	Precipitación	0
107688	7	Sololá	704	Santa Lucía Utatlán 	7	Santa Rita 	7	Julio	2023-07-26T00:00:00	2024-11-08T15:00:00	8	Radiación solar	829
107689	7	Sololá	704	Santa Lucía Utatlán 	7	Santa Rita 	7	Julio	2023-07-26T00:00:00	2024-11-08T16:00:00	2	Temperatura media	24.5
107690	7	Sololá	704	Santa Lucía Utatlán 	7	Santa Rita 	7	Julio	2023-07-26T00:00:00	2024-11-08T16:00:00	4	Temperatura máxima	26.1
107691	7	Sololá	704	Santa Lucía Utatlán 	7	Santa Rita 	7	Julio	2023-07-26T00:00:00	2024-11-08T16:00:00	3	Temperatura mínima	24.4
107692	7	Sololá	704	Santa Lucía Utatlán 	7	Santa Rita 	7	Julio	2023-07-26T00:00:00	2024-11-08T16:00:00	5	Humedad	61
107693	7	Sololá	704	Santa Lucía Utatlán 	7	Santa Rita 	7	Julio	2023-07-26T00:00:00	2024-11-08T16:00:00	6	Velocidad del viento	11.3
107694	7	Sololá	704	Santa Lucía Utatlán 	7	Santa Rita 	7	Julio	2023-07-26T00:00:00	2024-11-08T16:00:00	7	Dirección del viento	11.27
107695	7	Sololá	704	Santa Lucía Utatlán 	7	Santa Rita 	7	Julio	2023-07-26T00:00:00	2024-11-08T16:00:00	1	Precipitación	0
107696	7	Sololá	704	Santa Lucía Utatlán 	7	Santa Rita 	7	Julio	2023-07-26T00:00:00	2024-11-08T16:00:00	8	Radiación solar	653
107697	7	Sololá	704	Santa Lucía Utatlán 	7	Santa Rita 	7	Julio	2023-07-26T00:00:00	2024-11-08T17:00:00	2	Temperatura media	23.6
107698	7	Sololá	704	Santa Lucía Utatlán 	7	Santa Rita 	7	Julio	2023-07-26T00:00:00	2024-11-08T17:00:00	4	Temperatura máxima	24.5
107699	7	Sololá	704	Santa Lucía Utatlán 	7	Santa Rita 	7	Julio	2023-07-26T00:00:00	2024-11-08T17:00:00	3	Temperatura mínima	23.6
107700	7	Sololá	704	Santa Lucía Utatlán 	7	Santa Rita 	7	Julio	2023-07-26T00:00:00	2024-11-08T17:00:00	5	Humedad	64
107701	7	Sololá	704	Santa Lucía Utatlán 	7	Santa Rita 	7	Julio	2023-07-26T00:00:00	2024-11-08T17:00:00	6	Velocidad del viento	9.7
107702	7	Sololá	704	Santa Lucía Utatlán 	7	Santa Rita 	7	Julio	2023-07-26T00:00:00	2024-11-08T17:00:00	7	Dirección del viento	9.66
107703	7	Sololá	704	Santa Lucía Utatlán 	7	Santa Rita 	7	Julio	2023-07-26T00:00:00	2024-11-08T17:00:00	1	Precipitación	0
107704	7	Sololá	704	Santa Lucía Utatlán 	7	Santa Rita 	7	Julio	2023-07-26T00:00:00	2024-11-08T17:00:00	8	Radiación solar	445
107705	7	Sololá	704	Santa Lucía Utatlán 	7	Santa Rita 	7	Julio	2023-07-26T00:00:00	2024-11-08T18:00:00	2	Temperatura media	21.8
107706	7	Sololá	704	Santa Lucía Utatlán 	7	Santa Rita 	7	Julio	2023-07-26T00:00:00	2024-11-08T18:00:00	4	Temperatura máxima	23.6
107707	7	Sololá	704	Santa Lucía Utatlán 	7	Santa Rita 	7	Julio	2023-07-26T00:00:00	2024-11-08T18:00:00	3	Temperatura mínima	21.8
107708	7	Sololá	704	Santa Lucía Utatlán 	7	Santa Rita 	7	Julio	2023-07-26T00:00:00	2024-11-08T18:00:00	5	Humedad	71
107709	7	Sololá	704	Santa Lucía Utatlán 	7	Santa Rita 	7	Julio	2023-07-26T00:00:00	2024-11-08T18:00:00	6	Velocidad del viento	4.8
107710	7	Sololá	704	Santa Lucía Utatlán 	7	Santa Rita 	7	Julio	2023-07-26T00:00:00	2024-11-08T18:00:00	7	Dirección del viento	4.83
107711	7	Sololá	704	Santa Lucía Utatlán 	7	Santa Rita 	7	Julio	2023-07-26T00:00:00	2024-11-08T18:00:00	1	Precipitación	0
107712	7	Sololá	704	Santa Lucía Utatlán 	7	Santa Rita 	7	Julio	2023-07-26T00:00:00	2024-11-08T18:00:00	8	Radiación solar	120
107713	7	Sololá	704	Santa Lucía Utatlán 	7	Santa Rita 	7	Julio	2023-07-26T00:00:00	2024-11-08T19:00:00	2	Temperatura media	21
107714	7	Sololá	704	Santa Lucía Utatlán 	7	Santa Rita 	7	Julio	2023-07-26T00:00:00	2024-11-08T19:00:00	4	Temperatura máxima	21.8
107715	7	Sololá	704	Santa Lucía Utatlán 	7	Santa Rita 	7	Julio	2023-07-26T00:00:00	2024-11-08T19:00:00	3	Temperatura mínima	21
107716	7	Sololá	704	Santa Lucía Utatlán 	7	Santa Rita 	7	Julio	2023-07-26T00:00:00	2024-11-08T19:00:00	5	Humedad	72
107717	7	Sololá	704	Santa Lucía Utatlán 	7	Santa Rita 	7	Julio	2023-07-26T00:00:00	2024-11-08T19:00:00	6	Velocidad del viento	6.4
107718	7	Sololá	704	Santa Lucía Utatlán 	7	Santa Rita 	7	Julio	2023-07-26T00:00:00	2024-11-08T19:00:00	7	Dirección del viento	6.44
107719	7	Sololá	704	Santa Lucía Utatlán 	7	Santa Rita 	7	Julio	2023-07-26T00:00:00	2024-11-08T19:00:00	1	Precipitación	0
107720	7	Sololá	704	Santa Lucía Utatlán 	7	Santa Rita 	7	Julio	2023-07-26T00:00:00	2024-11-08T19:00:00	8	Radiación solar	0
107721	7	Sololá	704	Santa Lucía Utatlán 	7	Santa Rita 	7	Julio	2023-07-26T00:00:00	2024-11-08T20:00:00	2	Temperatura media	21.4
107722	7	Sololá	704	Santa Lucía Utatlán 	7	Santa Rita 	7	Julio	2023-07-26T00:00:00	2024-11-08T20:00:00	4	Temperatura máxima	21.4
107723	7	Sololá	704	Santa Lucía Utatlán 	7	Santa Rita 	7	Julio	2023-07-26T00:00:00	2024-11-08T20:00:00	3	Temperatura mínima	20.3
107724	7	Sololá	704	Santa Lucía Utatlán 	7	Santa Rita 	7	Julio	2023-07-26T00:00:00	2024-11-08T20:00:00	5	Humedad	57
107725	7	Sololá	704	Santa Lucía Utatlán 	7	Santa Rita 	7	Julio	2023-07-26T00:00:00	2024-11-08T20:00:00	6	Velocidad del viento	8
107726	7	Sololá	704	Santa Lucía Utatlán 	7	Santa Rita 	7	Julio	2023-07-26T00:00:00	2024-11-08T20:00:00	7	Dirección del viento	8.05
107727	7	Sololá	704	Santa Lucía Utatlán 	7	Santa Rita 	7	Julio	2023-07-26T00:00:00	2024-11-08T20:00:00	1	Precipitación	0
107728	7	Sololá	704	Santa Lucía Utatlán 	7	Santa Rita 	7	Julio	2023-07-26T00:00:00	2024-11-08T20:00:00	8	Radiación solar	0
107729	7	Sololá	704	Santa Lucía Utatlán 	7	Santa Rita 	7	Julio	2023-07-26T00:00:00	2024-11-08T21:00:00	2	Temperatura media	19.6
107730	7	Sololá	704	Santa Lucía Utatlán 	7	Santa Rita 	7	Julio	2023-07-26T00:00:00	2024-11-08T21:00:00	4	Temperatura máxima	21.7
107731	7	Sololá	704	Santa Lucía Utatlán 	7	Santa Rita 	7	Julio	2023-07-26T00:00:00	2024-11-08T21:00:00	3	Temperatura mínima	19.6
107732	7	Sololá	704	Santa Lucía Utatlán 	7	Santa Rita 	7	Julio	2023-07-26T00:00:00	2024-11-08T21:00:00	5	Humedad	64
107733	7	Sololá	704	Santa Lucía Utatlán 	7	Santa Rita 	7	Julio	2023-07-26T00:00:00	2024-11-08T21:00:00	6	Velocidad del viento	4.8
107734	7	Sololá	704	Santa Lucía Utatlán 	7	Santa Rita 	7	Julio	2023-07-26T00:00:00	2024-11-08T21:00:00	7	Dirección del viento	4.83
107735	7	Sololá	704	Santa Lucía Utatlán 	7	Santa Rita 	7	Julio	2023-07-26T00:00:00	2024-11-08T21:00:00	1	Precipitación	0
107736	7	Sololá	704	Santa Lucía Utatlán 	7	Santa Rita 	7	Julio	2023-07-26T00:00:00	2024-11-08T21:00:00	8	Radiación solar	0
107737	7	Sololá	704	Santa Lucía Utatlán 	7	Santa Rita 	7	Julio	2023-07-26T00:00:00	2024-11-08T22:00:00	2	Temperatura media	18.1
107738	7	Sololá	704	Santa Lucía Utatlán 	7	Santa Rita 	7	Julio	2023-07-26T00:00:00	2024-11-08T22:00:00	4	Temperatura máxima	19.5
107739	7	Sololá	704	Santa Lucía Utatlán 	7	Santa Rita 	7	Julio	2023-07-26T00:00:00	2024-11-08T22:00:00	3	Temperatura mínima	17.7
107740	7	Sololá	704	Santa Lucía Utatlán 	7	Santa Rita 	7	Julio	2023-07-26T00:00:00	2024-11-08T22:00:00	5	Humedad	77
107741	7	Sololá	704	Santa Lucía Utatlán 	7	Santa Rita 	7	Julio	2023-07-26T00:00:00	2024-11-08T22:00:00	6	Velocidad del viento	3.2
107742	7	Sololá	704	Santa Lucía Utatlán 	7	Santa Rita 	7	Julio	2023-07-26T00:00:00	2024-11-08T22:00:00	7	Dirección del viento	3.22
107743	7	Sololá	704	Santa Lucía Utatlán 	7	Santa Rita 	7	Julio	2023-07-26T00:00:00	2024-11-08T22:00:00	1	Precipitación	0
107744	7	Sololá	704	Santa Lucía Utatlán 	7	Santa Rita 	7	Julio	2023-07-26T00:00:00	2024-11-08T22:00:00	8	Radiación solar	0
107745	7	Sololá	704	Santa Lucía Utatlán 	7	Santa Rita 	7	Julio	2023-07-26T00:00:00	2024-11-08T23:00:00	2	Temperatura media	19.2
107746	7	Sololá	704	Santa Lucía Utatlán 	7	Santa Rita 	7	Julio	2023-07-26T00:00:00	2024-11-08T23:00:00	4	Temperatura máxima	19.2
107747	7	Sololá	704	Santa Lucía Utatlán 	7	Santa Rita 	7	Julio	2023-07-26T00:00:00	2024-11-08T23:00:00	3	Temperatura mínima	17.4
107748	7	Sololá	704	Santa Lucía Utatlán 	7	Santa Rita 	7	Julio	2023-07-26T00:00:00	2024-11-08T23:00:00	5	Humedad	77
107749	7	Sololá	704	Santa Lucía Utatlán 	7	Santa Rita 	7	Julio	2023-07-26T00:00:00	2024-11-08T23:00:00	6	Velocidad del viento	4.8
107750	7	Sololá	704	Santa Lucía Utatlán 	7	Santa Rita 	7	Julio	2023-07-26T00:00:00	2024-11-08T23:00:00	7	Dirección del viento	4.83
107751	7	Sololá	704	Santa Lucía Utatlán 	7	Santa Rita 	7	Julio	2023-07-26T00:00:00	2024-11-08T23:00:00	1	Precipitación	0
107752	7	Sololá	704	Santa Lucía Utatlán 	7	Santa Rita 	7	Julio	2023-07-26T00:00:00	2024-11-08T23:00:00	8	Radiación solar	0
107753	7	Sololá	704	Santa Lucía Utatlán 	7	Santa Rita 	7	Julio	2023-07-27T00:00:00	2024-11-08T00:00:00	2	Temperatura media	20.4
107754	7	Sololá	704	Santa Lucía Utatlán 	7	Santa Rita 	7	Julio	2023-07-27T00:00:00	2024-11-08T00:00:00	4	Temperatura máxima	20.4
107755	7	Sololá	704	Santa Lucía Utatlán 	7	Santa Rita 	7	Julio	2023-07-27T00:00:00	2024-11-08T00:00:00	3	Temperatura mínima	19.2
107756	7	Sololá	704	Santa Lucía Utatlán 	7	Santa Rita 	7	Julio	2023-07-27T00:00:00	2024-11-08T00:00:00	5	Humedad	69
107757	7	Sololá	704	Santa Lucía Utatlán 	7	Santa Rita 	7	Julio	2023-07-27T00:00:00	2024-11-08T00:00:00	6	Velocidad del viento	9.7
107758	7	Sololá	704	Santa Lucía Utatlán 	7	Santa Rita 	7	Julio	2023-07-27T00:00:00	2024-11-08T00:00:00	7	Dirección del viento	9.66
107759	7	Sololá	704	Santa Lucía Utatlán 	7	Santa Rita 	7	Julio	2023-07-27T00:00:00	2024-11-08T00:00:00	1	Precipitación	0
107760	7	Sololá	704	Santa Lucía Utatlán 	7	Santa Rita 	7	Julio	2023-07-27T00:00:00	2024-11-08T00:00:00	8	Radiación solar	0
107761	7	Sololá	704	Santa Lucía Utatlán 	7	Santa Rita 	7	Julio	2023-07-27T00:00:00	2024-11-08T01:00:00	2	Temperatura media	20.3
107762	7	Sololá	704	Santa Lucía Utatlán 	7	Santa Rita 	7	Julio	2023-07-27T00:00:00	2024-11-08T01:00:00	4	Temperatura máxima	20.4
107763	7	Sololá	704	Santa Lucía Utatlán 	7	Santa Rita 	7	Julio	2023-07-27T00:00:00	2024-11-08T01:00:00	3	Temperatura mínima	20.1
107764	7	Sololá	704	Santa Lucía Utatlán 	7	Santa Rita 	7	Julio	2023-07-27T00:00:00	2024-11-08T01:00:00	5	Humedad	69
107765	7	Sololá	704	Santa Lucía Utatlán 	7	Santa Rita 	7	Julio	2023-07-27T00:00:00	2024-11-08T01:00:00	6	Velocidad del viento	11.3
107766	7	Sololá	704	Santa Lucía Utatlán 	7	Santa Rita 	7	Julio	2023-07-27T00:00:00	2024-11-08T01:00:00	7	Dirección del viento	11.27
107767	7	Sololá	704	Santa Lucía Utatlán 	7	Santa Rita 	7	Julio	2023-07-27T00:00:00	2024-11-08T01:00:00	1	Precipitación	0
107768	7	Sololá	704	Santa Lucía Utatlán 	7	Santa Rita 	7	Julio	2023-07-27T00:00:00	2024-11-08T01:00:00	8	Radiación solar	0
107769	7	Sololá	704	Santa Lucía Utatlán 	7	Santa Rita 	7	Julio	2023-07-27T00:00:00	2024-11-08T02:00:00	2	Temperatura media	18.2
107770	7	Sololá	704	Santa Lucía Utatlán 	7	Santa Rita 	7	Julio	2023-07-27T00:00:00	2024-11-08T02:00:00	4	Temperatura máxima	20.9
107771	7	Sololá	704	Santa Lucía Utatlán 	7	Santa Rita 	7	Julio	2023-07-27T00:00:00	2024-11-08T02:00:00	3	Temperatura mínima	18.1
107772	7	Sololá	704	Santa Lucía Utatlán 	7	Santa Rita 	7	Julio	2023-07-27T00:00:00	2024-11-08T02:00:00	5	Humedad	73
107773	7	Sololá	704	Santa Lucía Utatlán 	7	Santa Rita 	7	Julio	2023-07-27T00:00:00	2024-11-08T02:00:00	6	Velocidad del viento	6.4
107774	7	Sololá	704	Santa Lucía Utatlán 	7	Santa Rita 	7	Julio	2023-07-27T00:00:00	2024-11-08T02:00:00	7	Dirección del viento	6.44
107775	7	Sololá	704	Santa Lucía Utatlán 	7	Santa Rita 	7	Julio	2023-07-27T00:00:00	2024-11-08T02:00:00	1	Precipitación	0
107776	7	Sololá	704	Santa Lucía Utatlán 	7	Santa Rita 	7	Julio	2023-07-27T00:00:00	2024-11-08T02:00:00	8	Radiación solar	0
107777	7	Sololá	704	Santa Lucía Utatlán 	7	Santa Rita 	7	Julio	2023-07-27T00:00:00	2024-11-08T03:00:00	2	Temperatura media	17.8
107778	7	Sololá	704	Santa Lucía Utatlán 	7	Santa Rita 	7	Julio	2023-07-27T00:00:00	2024-11-08T03:00:00	4	Temperatura máxima	19
107779	7	Sololá	704	Santa Lucía Utatlán 	7	Santa Rita 	7	Julio	2023-07-27T00:00:00	2024-11-08T03:00:00	3	Temperatura mínima	16.7
107780	7	Sololá	704	Santa Lucía Utatlán 	7	Santa Rita 	7	Julio	2023-07-27T00:00:00	2024-11-08T03:00:00	5	Humedad	73
107781	7	Sololá	704	Santa Lucía Utatlán 	7	Santa Rita 	7	Julio	2023-07-27T00:00:00	2024-11-08T03:00:00	6	Velocidad del viento	4.8
107782	7	Sololá	704	Santa Lucía Utatlán 	7	Santa Rita 	7	Julio	2023-07-27T00:00:00	2024-11-08T03:00:00	7	Dirección del viento	4.83
107783	7	Sololá	704	Santa Lucía Utatlán 	7	Santa Rita 	7	Julio	2023-07-27T00:00:00	2024-11-08T03:00:00	1	Precipitación	0
107784	7	Sololá	704	Santa Lucía Utatlán 	7	Santa Rita 	7	Julio	2023-07-27T00:00:00	2024-11-08T03:00:00	8	Radiación solar	0
107785	7	Sololá	704	Santa Lucía Utatlán 	7	Santa Rita 	7	Julio	2023-07-27T00:00:00	2024-11-08T04:00:00	2	Temperatura media	17.7
107786	7	Sololá	704	Santa Lucía Utatlán 	7	Santa Rita 	7	Julio	2023-07-27T00:00:00	2024-11-08T04:00:00	4	Temperatura máxima	19.5
107787	7	Sololá	704	Santa Lucía Utatlán 	7	Santa Rita 	7	Julio	2023-07-27T00:00:00	2024-11-08T04:00:00	3	Temperatura mínima	17.4
107788	7	Sololá	704	Santa Lucía Utatlán 	7	Santa Rita 	7	Julio	2023-07-27T00:00:00	2024-11-08T04:00:00	5	Humedad	76
107789	7	Sololá	704	Santa Lucía Utatlán 	7	Santa Rita 	7	Julio	2023-07-27T00:00:00	2024-11-08T04:00:00	6	Velocidad del viento	4.8
107790	7	Sololá	704	Santa Lucía Utatlán 	7	Santa Rita 	7	Julio	2023-07-27T00:00:00	2024-11-08T04:00:00	7	Dirección del viento	4.83
107791	7	Sololá	704	Santa Lucía Utatlán 	7	Santa Rita 	7	Julio	2023-07-27T00:00:00	2024-11-08T04:00:00	1	Precipitación	0
107792	7	Sololá	704	Santa Lucía Utatlán 	7	Santa Rita 	7	Julio	2023-07-27T00:00:00	2024-11-08T04:00:00	8	Radiación solar	0
107793	7	Sololá	704	Santa Lucía Utatlán 	7	Santa Rita 	7	Julio	2023-07-27T00:00:00	2024-11-08T05:00:00	2	Temperatura media	16.4
107794	7	Sololá	704	Santa Lucía Utatlán 	7	Santa Rita 	7	Julio	2023-07-27T00:00:00	2024-11-08T05:00:00	4	Temperatura máxima	18.4
107795	7	Sololá	704	Santa Lucía Utatlán 	7	Santa Rita 	7	Julio	2023-07-27T00:00:00	2024-11-08T05:00:00	3	Temperatura mínima	16.4
107796	7	Sololá	704	Santa Lucía Utatlán 	7	Santa Rita 	7	Julio	2023-07-27T00:00:00	2024-11-08T05:00:00	5	Humedad	80
107797	7	Sololá	704	Santa Lucía Utatlán 	7	Santa Rita 	7	Julio	2023-07-27T00:00:00	2024-11-08T05:00:00	6	Velocidad del viento	3.2
107798	7	Sololá	704	Santa Lucía Utatlán 	7	Santa Rita 	7	Julio	2023-07-27T00:00:00	2024-11-08T05:00:00	7	Dirección del viento	3.22
107799	7	Sololá	704	Santa Lucía Utatlán 	7	Santa Rita 	7	Julio	2023-07-27T00:00:00	2024-11-08T05:00:00	1	Precipitación	0
107800	7	Sololá	704	Santa Lucía Utatlán 	7	Santa Rita 	7	Julio	2023-07-27T00:00:00	2024-11-08T05:00:00	8	Radiación solar	0
107801	7	Sololá	704	Santa Lucía Utatlán 	7	Santa Rita 	7	Julio	2023-07-27T00:00:00	2024-11-08T06:00:00	2	Temperatura media	16.3
107802	7	Sololá	704	Santa Lucía Utatlán 	7	Santa Rita 	7	Julio	2023-07-27T00:00:00	2024-11-08T06:00:00	4	Temperatura máxima	16.6
107803	7	Sololá	704	Santa Lucía Utatlán 	7	Santa Rita 	7	Julio	2023-07-27T00:00:00	2024-11-08T06:00:00	3	Temperatura mínima	16
107804	7	Sololá	704	Santa Lucía Utatlán 	7	Santa Rita 	7	Julio	2023-07-27T00:00:00	2024-11-08T06:00:00	5	Humedad	83
107805	7	Sololá	704	Santa Lucía Utatlán 	7	Santa Rita 	7	Julio	2023-07-27T00:00:00	2024-11-08T06:00:00	6	Velocidad del viento	3.2
107806	7	Sololá	704	Santa Lucía Utatlán 	7	Santa Rita 	7	Julio	2023-07-27T00:00:00	2024-11-08T06:00:00	7	Dirección del viento	3.22
107807	7	Sololá	704	Santa Lucía Utatlán 	7	Santa Rita 	7	Julio	2023-07-27T00:00:00	2024-11-08T06:00:00	1	Precipitación	0
107808	7	Sololá	704	Santa Lucía Utatlán 	7	Santa Rita 	7	Julio	2023-07-27T00:00:00	2024-11-08T06:00:00	8	Radiación solar	2
107809	7	Sololá	704	Santa Lucía Utatlán 	7	Santa Rita 	7	Julio	2023-07-27T00:00:00	2024-11-08T07:00:00	2	Temperatura media	17.6
107810	7	Sololá	704	Santa Lucía Utatlán 	7	Santa Rita 	7	Julio	2023-07-27T00:00:00	2024-11-08T07:00:00	4	Temperatura máxima	17.6
107811	7	Sololá	704	Santa Lucía Utatlán 	7	Santa Rita 	7	Julio	2023-07-27T00:00:00	2024-11-08T07:00:00	3	Temperatura mínima	15.8
107812	7	Sololá	704	Santa Lucía Utatlán 	7	Santa Rita 	7	Julio	2023-07-27T00:00:00	2024-11-08T07:00:00	5	Humedad	84
107813	7	Sololá	704	Santa Lucía Utatlán 	7	Santa Rita 	7	Julio	2023-07-27T00:00:00	2024-11-08T07:00:00	6	Velocidad del viento	3.2
107814	7	Sololá	704	Santa Lucía Utatlán 	7	Santa Rita 	7	Julio	2023-07-27T00:00:00	2024-11-08T07:00:00	7	Dirección del viento	3.22
107815	7	Sololá	704	Santa Lucía Utatlán 	7	Santa Rita 	7	Julio	2023-07-27T00:00:00	2024-11-08T07:00:00	1	Precipitación	0
107816	7	Sololá	704	Santa Lucía Utatlán 	7	Santa Rita 	7	Julio	2023-07-27T00:00:00	2024-11-08T07:00:00	8	Radiación solar	64
107817	7	Sololá	704	Santa Lucía Utatlán 	7	Santa Rita 	7	Julio	2023-07-27T00:00:00	2024-11-08T08:00:00	2	Temperatura media	22.4
107818	7	Sololá	704	Santa Lucía Utatlán 	7	Santa Rita 	7	Julio	2023-07-27T00:00:00	2024-11-08T08:00:00	4	Temperatura máxima	22.4
107819	7	Sololá	704	Santa Lucía Utatlán 	7	Santa Rita 	7	Julio	2023-07-27T00:00:00	2024-11-08T08:00:00	3	Temperatura mínima	17.7
107820	7	Sololá	704	Santa Lucía Utatlán 	7	Santa Rita 	7	Julio	2023-07-27T00:00:00	2024-11-08T08:00:00	5	Humedad	66
107821	7	Sololá	704	Santa Lucía Utatlán 	7	Santa Rita 	7	Julio	2023-07-27T00:00:00	2024-11-08T08:00:00	6	Velocidad del viento	3.2
107822	7	Sololá	704	Santa Lucía Utatlán 	7	Santa Rita 	7	Julio	2023-07-27T00:00:00	2024-11-08T08:00:00	7	Dirección del viento	3.22
107823	7	Sololá	704	Santa Lucía Utatlán 	7	Santa Rita 	7	Julio	2023-07-27T00:00:00	2024-11-08T08:00:00	1	Precipitación	0
107824	7	Sololá	704	Santa Lucía Utatlán 	7	Santa Rita 	7	Julio	2023-07-27T00:00:00	2024-11-08T08:00:00	8	Radiación solar	381
107825	7	Sololá	704	Santa Lucía Utatlán 	7	Santa Rita 	7	Julio	2023-07-27T00:00:00	2024-11-08T09:00:00	2	Temperatura media	23.8
107826	7	Sololá	704	Santa Lucía Utatlán 	7	Santa Rita 	7	Julio	2023-07-27T00:00:00	2024-11-08T09:00:00	4	Temperatura máxima	23.8
107827	7	Sololá	704	Santa Lucía Utatlán 	7	Santa Rita 	7	Julio	2023-07-27T00:00:00	2024-11-08T09:00:00	3	Temperatura mínima	22.4
107828	7	Sololá	704	Santa Lucía Utatlán 	7	Santa Rita 	7	Julio	2023-07-27T00:00:00	2024-11-08T09:00:00	5	Humedad	61
107829	7	Sololá	704	Santa Lucía Utatlán 	7	Santa Rita 	7	Julio	2023-07-27T00:00:00	2024-11-08T09:00:00	6	Velocidad del viento	6.4
107830	7	Sololá	704	Santa Lucía Utatlán 	7	Santa Rita 	7	Julio	2023-07-27T00:00:00	2024-11-08T09:00:00	7	Dirección del viento	6.44
107831	7	Sololá	704	Santa Lucía Utatlán 	7	Santa Rita 	7	Julio	2023-07-27T00:00:00	2024-11-08T09:00:00	1	Precipitación	0
107832	7	Sololá	704	Santa Lucía Utatlán 	7	Santa Rita 	7	Julio	2023-07-27T00:00:00	2024-11-08T09:00:00	8	Radiación solar	606
107833	7	Sololá	704	Santa Lucía Utatlán 	7	Santa Rita 	7	Julio	2023-07-27T00:00:00	2024-11-08T10:00:00	2	Temperatura media	24.2
107834	7	Sololá	704	Santa Lucía Utatlán 	7	Santa Rita 	7	Julio	2023-07-27T00:00:00	2024-11-08T10:00:00	4	Temperatura máxima	24.6
107835	7	Sololá	704	Santa Lucía Utatlán 	7	Santa Rita 	7	Julio	2023-07-27T00:00:00	2024-11-08T10:00:00	3	Temperatura mínima	23.3
107836	7	Sololá	704	Santa Lucía Utatlán 	7	Santa Rita 	7	Julio	2023-07-27T00:00:00	2024-11-08T10:00:00	5	Humedad	56
107837	7	Sololá	704	Santa Lucía Utatlán 	7	Santa Rita 	7	Julio	2023-07-27T00:00:00	2024-11-08T10:00:00	6	Velocidad del viento	8
107838	7	Sololá	704	Santa Lucía Utatlán 	7	Santa Rita 	7	Julio	2023-07-27T00:00:00	2024-11-08T10:00:00	7	Dirección del viento	8.05
107839	7	Sololá	704	Santa Lucía Utatlán 	7	Santa Rita 	7	Julio	2023-07-27T00:00:00	2024-11-08T10:00:00	1	Precipitación	0
107840	7	Sololá	704	Santa Lucía Utatlán 	7	Santa Rita 	7	Julio	2023-07-27T00:00:00	2024-11-08T10:00:00	8	Radiación solar	804
107841	7	Sololá	704	Santa Lucía Utatlán 	7	Santa Rita 	7	Julio	2023-07-27T00:00:00	2024-11-08T11:00:00	2	Temperatura media	24.3
107842	7	Sololá	704	Santa Lucía Utatlán 	7	Santa Rita 	7	Julio	2023-07-27T00:00:00	2024-11-08T11:00:00	4	Temperatura máxima	25.1
107843	7	Sololá	704	Santa Lucía Utatlán 	7	Santa Rita 	7	Julio	2023-07-27T00:00:00	2024-11-08T11:00:00	3	Temperatura mínima	24.1
107844	7	Sololá	704	Santa Lucía Utatlán 	7	Santa Rita 	7	Julio	2023-07-27T00:00:00	2024-11-08T11:00:00	5	Humedad	55
107845	7	Sololá	704	Santa Lucía Utatlán 	7	Santa Rita 	7	Julio	2023-07-27T00:00:00	2024-11-08T11:00:00	6	Velocidad del viento	9.7
107846	7	Sololá	704	Santa Lucía Utatlán 	7	Santa Rita 	7	Julio	2023-07-27T00:00:00	2024-11-08T11:00:00	7	Dirección del viento	9.66
107847	7	Sololá	704	Santa Lucía Utatlán 	7	Santa Rita 	7	Julio	2023-07-27T00:00:00	2024-11-08T11:00:00	1	Precipitación	0
107848	7	Sololá	704	Santa Lucía Utatlán 	7	Santa Rita 	7	Julio	2023-07-27T00:00:00	2024-11-08T11:00:00	8	Radiación solar	958
107849	7	Sololá	704	Santa Lucía Utatlán 	7	Santa Rita 	7	Julio	2023-07-27T00:00:00	2024-11-08T12:00:00	2	Temperatura media	25.2
107850	7	Sololá	704	Santa Lucía Utatlán 	7	Santa Rita 	7	Julio	2023-07-27T00:00:00	2024-11-08T12:00:00	4	Temperatura máxima	25.4
107851	7	Sololá	704	Santa Lucía Utatlán 	7	Santa Rita 	7	Julio	2023-07-27T00:00:00	2024-11-08T12:00:00	3	Temperatura mínima	24.3
107852	7	Sololá	704	Santa Lucía Utatlán 	7	Santa Rita 	7	Julio	2023-07-27T00:00:00	2024-11-08T12:00:00	5	Humedad	58
107853	7	Sololá	704	Santa Lucía Utatlán 	7	Santa Rita 	7	Julio	2023-07-27T00:00:00	2024-11-08T12:00:00	6	Velocidad del viento	9.7
107854	7	Sololá	704	Santa Lucía Utatlán 	7	Santa Rita 	7	Julio	2023-07-27T00:00:00	2024-11-08T12:00:00	7	Dirección del viento	9.66
107855	7	Sololá	704	Santa Lucía Utatlán 	7	Santa Rita 	7	Julio	2023-07-27T00:00:00	2024-11-08T12:00:00	1	Precipitación	0
107856	7	Sololá	704	Santa Lucía Utatlán 	7	Santa Rita 	7	Julio	2023-07-27T00:00:00	2024-11-08T12:00:00	8	Radiación solar	1014
107857	7	Sololá	704	Santa Lucía Utatlán 	7	Santa Rita 	7	Julio	2023-07-27T00:00:00	2024-11-08T13:00:00	2	Temperatura media	24.9
107858	7	Sololá	704	Santa Lucía Utatlán 	7	Santa Rita 	7	Julio	2023-07-27T00:00:00	2024-11-08T13:00:00	4	Temperatura máxima	25.4
107859	7	Sololá	704	Santa Lucía Utatlán 	7	Santa Rita 	7	Julio	2023-07-27T00:00:00	2024-11-08T13:00:00	3	Temperatura mínima	24.7
107860	7	Sololá	704	Santa Lucía Utatlán 	7	Santa Rita 	7	Julio	2023-07-27T00:00:00	2024-11-08T13:00:00	5	Humedad	58
107861	7	Sololá	704	Santa Lucía Utatlán 	7	Santa Rita 	7	Julio	2023-07-27T00:00:00	2024-11-08T13:00:00	6	Velocidad del viento	12.9
107862	7	Sololá	704	Santa Lucía Utatlán 	7	Santa Rita 	7	Julio	2023-07-27T00:00:00	2024-11-08T13:00:00	7	Dirección del viento	12.87
107863	7	Sololá	704	Santa Lucía Utatlán 	7	Santa Rita 	7	Julio	2023-07-27T00:00:00	2024-11-08T13:00:00	1	Precipitación	0
107864	7	Sololá	704	Santa Lucía Utatlán 	7	Santa Rita 	7	Julio	2023-07-27T00:00:00	2024-11-08T13:00:00	8	Radiación solar	976
107865	7	Sololá	704	Santa Lucía Utatlán 	7	Santa Rita 	7	Julio	2023-07-27T00:00:00	2024-11-08T14:00:00	2	Temperatura media	25.5
107866	7	Sololá	704	Santa Lucía Utatlán 	7	Santa Rita 	7	Julio	2023-07-27T00:00:00	2024-11-08T14:00:00	4	Temperatura máxima	25.7
107867	7	Sololá	704	Santa Lucía Utatlán 	7	Santa Rita 	7	Julio	2023-07-27T00:00:00	2024-11-08T14:00:00	3	Temperatura mínima	24.8
107868	7	Sololá	704	Santa Lucía Utatlán 	7	Santa Rita 	7	Julio	2023-07-27T00:00:00	2024-11-08T14:00:00	5	Humedad	58
107869	7	Sololá	704	Santa Lucía Utatlán 	7	Santa Rita 	7	Julio	2023-07-27T00:00:00	2024-11-08T14:00:00	6	Velocidad del viento	9.7
107870	7	Sololá	704	Santa Lucía Utatlán 	7	Santa Rita 	7	Julio	2023-07-27T00:00:00	2024-11-08T14:00:00	7	Dirección del viento	9.66
107871	7	Sololá	704	Santa Lucía Utatlán 	7	Santa Rita 	7	Julio	2023-07-27T00:00:00	2024-11-08T14:00:00	1	Precipitación	0
107872	7	Sololá	704	Santa Lucía Utatlán 	7	Santa Rita 	7	Julio	2023-07-27T00:00:00	2024-11-08T14:00:00	8	Radiación solar	900
107873	7	Sololá	704	Santa Lucía Utatlán 	7	Santa Rita 	7	Julio	2023-07-27T00:00:00	2024-11-08T15:00:00	2	Temperatura media	25.3
107874	7	Sololá	704	Santa Lucía Utatlán 	7	Santa Rita 	7	Julio	2023-07-27T00:00:00	2024-11-08T15:00:00	4	Temperatura máxima	26
107875	7	Sololá	704	Santa Lucía Utatlán 	7	Santa Rita 	7	Julio	2023-07-27T00:00:00	2024-11-08T15:00:00	3	Temperatura mínima	25.1
107876	7	Sololá	704	Santa Lucía Utatlán 	7	Santa Rita 	7	Julio	2023-07-27T00:00:00	2024-11-08T15:00:00	5	Humedad	56
107877	7	Sololá	704	Santa Lucía Utatlán 	7	Santa Rita 	7	Julio	2023-07-27T00:00:00	2024-11-08T15:00:00	6	Velocidad del viento	9.7
107878	7	Sololá	704	Santa Lucía Utatlán 	7	Santa Rita 	7	Julio	2023-07-27T00:00:00	2024-11-08T15:00:00	7	Dirección del viento	9.66
107879	7	Sololá	704	Santa Lucía Utatlán 	7	Santa Rita 	7	Julio	2023-07-27T00:00:00	2024-11-08T15:00:00	1	Precipitación	0
107880	7	Sololá	704	Santa Lucía Utatlán 	7	Santa Rita 	7	Julio	2023-07-27T00:00:00	2024-11-08T15:00:00	8	Radiación solar	832
107881	7	Sololá	704	Santa Lucía Utatlán 	7	Santa Rita 	7	Julio	2023-07-27T00:00:00	2024-11-08T16:00:00	2	Temperatura media	24.6
107882	7	Sololá	704	Santa Lucía Utatlán 	7	Santa Rita 	7	Julio	2023-07-27T00:00:00	2024-11-08T16:00:00	4	Temperatura máxima	25.8
107883	7	Sololá	704	Santa Lucía Utatlán 	7	Santa Rita 	7	Julio	2023-07-27T00:00:00	2024-11-08T16:00:00	3	Temperatura mínima	24.6
107884	7	Sololá	704	Santa Lucía Utatlán 	7	Santa Rita 	7	Julio	2023-07-27T00:00:00	2024-11-08T16:00:00	5	Humedad	59
107885	7	Sololá	704	Santa Lucía Utatlán 	7	Santa Rita 	7	Julio	2023-07-27T00:00:00	2024-11-08T16:00:00	6	Velocidad del viento	9.7
107886	7	Sololá	704	Santa Lucía Utatlán 	7	Santa Rita 	7	Julio	2023-07-27T00:00:00	2024-11-08T16:00:00	7	Dirección del viento	9.66
107887	7	Sololá	704	Santa Lucía Utatlán 	7	Santa Rita 	7	Julio	2023-07-27T00:00:00	2024-11-08T16:00:00	1	Precipitación	0
107888	7	Sololá	704	Santa Lucía Utatlán 	7	Santa Rita 	7	Julio	2023-07-27T00:00:00	2024-11-08T16:00:00	8	Radiación solar	503
107889	7	Sololá	704	Santa Lucía Utatlán 	7	Santa Rita 	7	Julio	2023-07-27T00:00:00	2024-11-08T17:00:00	2	Temperatura media	25
107890	7	Sololá	704	Santa Lucía Utatlán 	7	Santa Rita 	7	Julio	2023-07-27T00:00:00	2024-11-08T17:00:00	4	Temperatura máxima	25.3
107891	7	Sololá	704	Santa Lucía Utatlán 	7	Santa Rita 	7	Julio	2023-07-27T00:00:00	2024-11-08T17:00:00	3	Temperatura mínima	24.5
107892	7	Sololá	704	Santa Lucía Utatlán 	7	Santa Rita 	7	Julio	2023-07-27T00:00:00	2024-11-08T17:00:00	5	Humedad	59
107893	7	Sololá	704	Santa Lucía Utatlán 	7	Santa Rita 	7	Julio	2023-07-27T00:00:00	2024-11-08T17:00:00	6	Velocidad del viento	6.4
107894	7	Sololá	704	Santa Lucía Utatlán 	7	Santa Rita 	7	Julio	2023-07-27T00:00:00	2024-11-08T17:00:00	7	Dirección del viento	6.44
107895	7	Sololá	704	Santa Lucía Utatlán 	7	Santa Rita 	7	Julio	2023-07-27T00:00:00	2024-11-08T17:00:00	1	Precipitación	0
107896	7	Sololá	704	Santa Lucía Utatlán 	7	Santa Rita 	7	Julio	2023-07-27T00:00:00	2024-11-08T17:00:00	8	Radiación solar	414
107897	7	Sololá	704	Santa Lucía Utatlán 	7	Santa Rita 	7	Julio	2023-07-27T00:00:00	2024-11-08T18:00:00	2	Temperatura media	23.2
107898	7	Sololá	704	Santa Lucía Utatlán 	7	Santa Rita 	7	Julio	2023-07-27T00:00:00	2024-11-08T18:00:00	4	Temperatura máxima	25.2
107899	7	Sololá	704	Santa Lucía Utatlán 	7	Santa Rita 	7	Julio	2023-07-27T00:00:00	2024-11-08T18:00:00	3	Temperatura mínima	23.2
107900	7	Sololá	704	Santa Lucía Utatlán 	7	Santa Rita 	7	Julio	2023-07-27T00:00:00	2024-11-08T18:00:00	5	Humedad	66
107901	7	Sololá	704	Santa Lucía Utatlán 	7	Santa Rita 	7	Julio	2023-07-27T00:00:00	2024-11-08T18:00:00	6	Velocidad del viento	6.4
107902	7	Sololá	704	Santa Lucía Utatlán 	7	Santa Rita 	7	Julio	2023-07-27T00:00:00	2024-11-08T18:00:00	7	Dirección del viento	6.44
107903	7	Sololá	704	Santa Lucía Utatlán 	7	Santa Rita 	7	Julio	2023-07-27T00:00:00	2024-11-08T18:00:00	1	Precipitación	0
107904	7	Sololá	704	Santa Lucía Utatlán 	7	Santa Rita 	7	Julio	2023-07-27T00:00:00	2024-11-08T18:00:00	8	Radiación solar	139
107905	7	Sololá	704	Santa Lucía Utatlán 	7	Santa Rita 	7	Julio	2023-07-27T00:00:00	2024-11-08T19:00:00	2	Temperatura media	22.1
107906	7	Sololá	704	Santa Lucía Utatlán 	7	Santa Rita 	7	Julio	2023-07-27T00:00:00	2024-11-08T19:00:00	4	Temperatura máxima	23.2
107907	7	Sololá	704	Santa Lucía Utatlán 	7	Santa Rita 	7	Julio	2023-07-27T00:00:00	2024-11-08T19:00:00	3	Temperatura mínima	21.8
107908	7	Sololá	704	Santa Lucía Utatlán 	7	Santa Rita 	7	Julio	2023-07-27T00:00:00	2024-11-08T19:00:00	5	Humedad	69
107909	7	Sololá	704	Santa Lucía Utatlán 	7	Santa Rita 	7	Julio	2023-07-27T00:00:00	2024-11-08T19:00:00	6	Velocidad del viento	3.2
107910	7	Sololá	704	Santa Lucía Utatlán 	7	Santa Rita 	7	Julio	2023-07-27T00:00:00	2024-11-08T19:00:00	7	Dirección del viento	3.22
107911	7	Sololá	704	Santa Lucía Utatlán 	7	Santa Rita 	7	Julio	2023-07-27T00:00:00	2024-11-08T19:00:00	1	Precipitación	0
107912	7	Sololá	704	Santa Lucía Utatlán 	7	Santa Rita 	7	Julio	2023-07-27T00:00:00	2024-11-08T19:00:00	8	Radiación solar	0
107913	7	Sololá	704	Santa Lucía Utatlán 	7	Santa Rita 	7	Julio	2023-07-27T00:00:00	2024-11-08T20:00:00	2	Temperatura media	20.7
107914	7	Sololá	704	Santa Lucía Utatlán 	7	Santa Rita 	7	Julio	2023-07-27T00:00:00	2024-11-08T20:00:00	4	Temperatura máxima	22.1
107915	7	Sololá	704	Santa Lucía Utatlán 	7	Santa Rita 	7	Julio	2023-07-27T00:00:00	2024-11-08T20:00:00	3	Temperatura mínima	20.6
107916	7	Sololá	704	Santa Lucía Utatlán 	7	Santa Rita 	7	Julio	2023-07-27T00:00:00	2024-11-08T20:00:00	5	Humedad	78
107917	7	Sololá	704	Santa Lucía Utatlán 	7	Santa Rita 	7	Julio	2023-07-27T00:00:00	2024-11-08T20:00:00	6	Velocidad del viento	3.2
107918	7	Sololá	704	Santa Lucía Utatlán 	7	Santa Rita 	7	Julio	2023-07-27T00:00:00	2024-11-08T20:00:00	7	Dirección del viento	3.22
107919	7	Sololá	704	Santa Lucía Utatlán 	7	Santa Rita 	7	Julio	2023-07-27T00:00:00	2024-11-08T20:00:00	1	Precipitación	0
107920	7	Sololá	704	Santa Lucía Utatlán 	7	Santa Rita 	7	Julio	2023-07-27T00:00:00	2024-11-08T20:00:00	8	Radiación solar	0
107921	7	Sololá	704	Santa Lucía Utatlán 	7	Santa Rita 	7	Julio	2023-07-27T00:00:00	2024-11-08T21:00:00	2	Temperatura media	21.5
107922	7	Sololá	704	Santa Lucía Utatlán 	7	Santa Rita 	7	Julio	2023-07-27T00:00:00	2024-11-08T21:00:00	4	Temperatura máxima	21.7
107923	7	Sololá	704	Santa Lucía Utatlán 	7	Santa Rita 	7	Julio	2023-07-27T00:00:00	2024-11-08T21:00:00	3	Temperatura mínima	20.2
107924	7	Sololá	704	Santa Lucía Utatlán 	7	Santa Rita 	7	Julio	2023-07-27T00:00:00	2024-11-08T21:00:00	5	Humedad	66
107925	7	Sololá	704	Santa Lucía Utatlán 	7	Santa Rita 	7	Julio	2023-07-27T00:00:00	2024-11-08T21:00:00	6	Velocidad del viento	8
107926	7	Sololá	704	Santa Lucía Utatlán 	7	Santa Rita 	7	Julio	2023-07-27T00:00:00	2024-11-08T21:00:00	7	Dirección del viento	8.05
107927	7	Sololá	704	Santa Lucía Utatlán 	7	Santa Rita 	7	Julio	2023-07-27T00:00:00	2024-11-08T21:00:00	1	Precipitación	0
107928	7	Sololá	704	Santa Lucía Utatlán 	7	Santa Rita 	7	Julio	2023-07-27T00:00:00	2024-11-08T21:00:00	8	Radiación solar	0
107929	7	Sololá	704	Santa Lucía Utatlán 	7	Santa Rita 	7	Julio	2023-07-27T00:00:00	2024-11-08T22:00:00	2	Temperatura media	20.7
107930	7	Sololá	704	Santa Lucía Utatlán 	7	Santa Rita 	7	Julio	2023-07-27T00:00:00	2024-11-08T22:00:00	4	Temperatura máxima	21.6
107931	7	Sololá	704	Santa Lucía Utatlán 	7	Santa Rita 	7	Julio	2023-07-27T00:00:00	2024-11-08T22:00:00	3	Temperatura mínima	19.8
107932	7	Sololá	704	Santa Lucía Utatlán 	7	Santa Rita 	7	Julio	2023-07-27T00:00:00	2024-11-08T22:00:00	5	Humedad	70
107933	7	Sololá	704	Santa Lucía Utatlán 	7	Santa Rita 	7	Julio	2023-07-27T00:00:00	2024-11-08T22:00:00	6	Velocidad del viento	4.8
107934	7	Sololá	704	Santa Lucía Utatlán 	7	Santa Rita 	7	Julio	2023-07-27T00:00:00	2024-11-08T22:00:00	7	Dirección del viento	4.83
107935	7	Sololá	704	Santa Lucía Utatlán 	7	Santa Rita 	7	Julio	2023-07-27T00:00:00	2024-11-08T22:00:00	1	Precipitación	0
107936	7	Sololá	704	Santa Lucía Utatlán 	7	Santa Rita 	7	Julio	2023-07-27T00:00:00	2024-11-08T22:00:00	8	Radiación solar	0
107937	7	Sololá	704	Santa Lucía Utatlán 	7	Santa Rita 	7	Julio	2023-07-27T00:00:00	2024-11-08T23:00:00	2	Temperatura media	19.7
107938	7	Sololá	704	Santa Lucía Utatlán 	7	Santa Rita 	7	Julio	2023-07-27T00:00:00	2024-11-08T23:00:00	4	Temperatura máxima	20.9
107939	7	Sololá	704	Santa Lucía Utatlán 	7	Santa Rita 	7	Julio	2023-07-27T00:00:00	2024-11-08T23:00:00	3	Temperatura mínima	19.2
107940	7	Sololá	704	Santa Lucía Utatlán 	7	Santa Rita 	7	Julio	2023-07-27T00:00:00	2024-11-08T23:00:00	5	Humedad	71
107941	7	Sololá	704	Santa Lucía Utatlán 	7	Santa Rita 	7	Julio	2023-07-27T00:00:00	2024-11-08T23:00:00	6	Velocidad del viento	3.2
107942	7	Sololá	704	Santa Lucía Utatlán 	7	Santa Rita 	7	Julio	2023-07-27T00:00:00	2024-11-08T23:00:00	7	Dirección del viento	3.22
107943	7	Sololá	704	Santa Lucía Utatlán 	7	Santa Rita 	7	Julio	2023-07-27T00:00:00	2024-11-08T23:00:00	1	Precipitación	0
107944	7	Sololá	704	Santa Lucía Utatlán 	7	Santa Rita 	7	Julio	2023-07-27T00:00:00	2024-11-08T23:00:00	8	Radiación solar	0
107945	7	Sololá	704	Santa Lucía Utatlán 	7	Santa Rita 	7	Julio	2023-07-28T00:00:00	2024-11-08T00:00:00	2	Temperatura media	20.5
107946	7	Sololá	704	Santa Lucía Utatlán 	7	Santa Rita 	7	Julio	2023-07-28T00:00:00	2024-11-08T00:00:00	4	Temperatura máxima	20.7
107947	7	Sololá	704	Santa Lucía Utatlán 	7	Santa Rita 	7	Julio	2023-07-28T00:00:00	2024-11-08T00:00:00	3	Temperatura mínima	19.7
107948	7	Sololá	704	Santa Lucía Utatlán 	7	Santa Rita 	7	Julio	2023-07-28T00:00:00	2024-11-08T00:00:00	5	Humedad	66
107949	7	Sololá	704	Santa Lucía Utatlán 	7	Santa Rita 	7	Julio	2023-07-28T00:00:00	2024-11-08T00:00:00	6	Velocidad del viento	6.4
107950	7	Sololá	704	Santa Lucía Utatlán 	7	Santa Rita 	7	Julio	2023-07-28T00:00:00	2024-11-08T00:00:00	7	Dirección del viento	6.44
107951	7	Sololá	704	Santa Lucía Utatlán 	7	Santa Rita 	7	Julio	2023-07-28T00:00:00	2024-11-08T00:00:00	1	Precipitación	0
107952	7	Sololá	704	Santa Lucía Utatlán 	7	Santa Rita 	7	Julio	2023-07-28T00:00:00	2024-11-08T00:00:00	8	Radiación solar	0
107953	7	Sololá	704	Santa Lucía Utatlán 	7	Santa Rita 	7	Julio	2023-07-28T00:00:00	2024-11-08T01:00:00	2	Temperatura media	20.1
107954	7	Sololá	704	Santa Lucía Utatlán 	7	Santa Rita 	7	Julio	2023-07-28T00:00:00	2024-11-08T01:00:00	4	Temperatura máxima	20.7
107955	7	Sololá	704	Santa Lucía Utatlán 	7	Santa Rita 	7	Julio	2023-07-28T00:00:00	2024-11-08T01:00:00	3	Temperatura mínima	20
107956	7	Sololá	704	Santa Lucía Utatlán 	7	Santa Rita 	7	Julio	2023-07-28T00:00:00	2024-11-08T01:00:00	5	Humedad	71
107957	7	Sololá	704	Santa Lucía Utatlán 	7	Santa Rita 	7	Julio	2023-07-28T00:00:00	2024-11-08T01:00:00	6	Velocidad del viento	8
107958	7	Sololá	704	Santa Lucía Utatlán 	7	Santa Rita 	7	Julio	2023-07-28T00:00:00	2024-11-08T01:00:00	7	Dirección del viento	8.05
107959	7	Sololá	704	Santa Lucía Utatlán 	7	Santa Rita 	7	Julio	2023-07-28T00:00:00	2024-11-08T01:00:00	1	Precipitación	0
107960	7	Sololá	704	Santa Lucía Utatlán 	7	Santa Rita 	7	Julio	2023-07-28T00:00:00	2024-11-08T01:00:00	8	Radiación solar	0
107961	7	Sololá	704	Santa Lucía Utatlán 	7	Santa Rita 	7	Julio	2023-07-28T00:00:00	2024-11-08T02:00:00	2	Temperatura media	18.1
107962	7	Sololá	704	Santa Lucía Utatlán 	7	Santa Rita 	7	Julio	2023-07-28T00:00:00	2024-11-08T02:00:00	4	Temperatura máxima	20.2
107963	7	Sololá	704	Santa Lucía Utatlán 	7	Santa Rita 	7	Julio	2023-07-28T00:00:00	2024-11-08T02:00:00	3	Temperatura mínima	18.1
107964	7	Sololá	704	Santa Lucía Utatlán 	7	Santa Rita 	7	Julio	2023-07-28T00:00:00	2024-11-08T02:00:00	5	Humedad	77
107965	7	Sololá	704	Santa Lucía Utatlán 	7	Santa Rita 	7	Julio	2023-07-28T00:00:00	2024-11-08T02:00:00	6	Velocidad del viento	4.8
107966	7	Sololá	704	Santa Lucía Utatlán 	7	Santa Rita 	7	Julio	2023-07-28T00:00:00	2024-11-08T02:00:00	7	Dirección del viento	4.83
107967	7	Sololá	704	Santa Lucía Utatlán 	7	Santa Rita 	7	Julio	2023-07-28T00:00:00	2024-11-08T02:00:00	1	Precipitación	0
107968	7	Sololá	704	Santa Lucía Utatlán 	7	Santa Rita 	7	Julio	2023-07-28T00:00:00	2024-11-08T02:00:00	8	Radiación solar	0
107969	7	Sololá	704	Santa Lucía Utatlán 	7	Santa Rita 	7	Julio	2023-07-28T00:00:00	2024-11-08T03:00:00	2	Temperatura media	18.4
107970	7	Sololá	704	Santa Lucía Utatlán 	7	Santa Rita 	7	Julio	2023-07-28T00:00:00	2024-11-08T03:00:00	4	Temperatura máxima	18.6
107971	7	Sololá	704	Santa Lucía Utatlán 	7	Santa Rita 	7	Julio	2023-07-28T00:00:00	2024-11-08T03:00:00	3	Temperatura mínima	17.6
107972	7	Sololá	704	Santa Lucía Utatlán 	7	Santa Rita 	7	Julio	2023-07-28T00:00:00	2024-11-08T03:00:00	5	Humedad	79
107973	7	Sololá	704	Santa Lucía Utatlán 	7	Santa Rita 	7	Julio	2023-07-28T00:00:00	2024-11-08T03:00:00	6	Velocidad del viento	3.2
107974	7	Sololá	704	Santa Lucía Utatlán 	7	Santa Rita 	7	Julio	2023-07-28T00:00:00	2024-11-08T03:00:00	7	Dirección del viento	3.22
107975	7	Sololá	704	Santa Lucía Utatlán 	7	Santa Rita 	7	Julio	2023-07-28T00:00:00	2024-11-08T03:00:00	1	Precipitación	0
107976	7	Sololá	704	Santa Lucía Utatlán 	7	Santa Rita 	7	Julio	2023-07-28T00:00:00	2024-11-08T03:00:00	8	Radiación solar	0
107977	7	Sololá	704	Santa Lucía Utatlán 	7	Santa Rita 	7	Julio	2023-07-28T00:00:00	2024-11-08T04:00:00	2	Temperatura media	17.9
107978	7	Sololá	704	Santa Lucía Utatlán 	7	Santa Rita 	7	Julio	2023-07-28T00:00:00	2024-11-08T04:00:00	4	Temperatura máxima	18.7
107979	7	Sololá	704	Santa Lucía Utatlán 	7	Santa Rita 	7	Julio	2023-07-28T00:00:00	2024-11-08T04:00:00	3	Temperatura mínima	17.2
107980	7	Sololá	704	Santa Lucía Utatlán 	7	Santa Rita 	7	Julio	2023-07-28T00:00:00	2024-11-08T04:00:00	5	Humedad	80
107981	7	Sololá	704	Santa Lucía Utatlán 	7	Santa Rita 	7	Julio	2023-07-28T00:00:00	2024-11-08T04:00:00	6	Velocidad del viento	4.8
107982	7	Sololá	704	Santa Lucía Utatlán 	7	Santa Rita 	7	Julio	2023-07-28T00:00:00	2024-11-08T04:00:00	7	Dirección del viento	4.83
107983	7	Sololá	704	Santa Lucía Utatlán 	7	Santa Rita 	7	Julio	2023-07-28T00:00:00	2024-11-08T04:00:00	1	Precipitación	0
107984	7	Sololá	704	Santa Lucía Utatlán 	7	Santa Rita 	7	Julio	2023-07-28T00:00:00	2024-11-08T04:00:00	8	Radiación solar	0
107985	7	Sololá	704	Santa Lucía Utatlán 	7	Santa Rita 	7	Julio	2023-07-28T00:00:00	2024-11-08T05:00:00	2	Temperatura media	19.3
107986	7	Sololá	704	Santa Lucía Utatlán 	7	Santa Rita 	7	Julio	2023-07-28T00:00:00	2024-11-08T05:00:00	4	Temperatura máxima	19.8
107987	7	Sololá	704	Santa Lucía Utatlán 	7	Santa Rita 	7	Julio	2023-07-28T00:00:00	2024-11-08T05:00:00	3	Temperatura mínima	17.9
107988	7	Sololá	704	Santa Lucía Utatlán 	7	Santa Rita 	7	Julio	2023-07-28T00:00:00	2024-11-08T05:00:00	5	Humedad	77
107989	7	Sololá	704	Santa Lucía Utatlán 	7	Santa Rita 	7	Julio	2023-07-28T00:00:00	2024-11-08T05:00:00	6	Velocidad del viento	6.4
107990	7	Sololá	704	Santa Lucía Utatlán 	7	Santa Rita 	7	Julio	2023-07-28T00:00:00	2024-11-08T05:00:00	7	Dirección del viento	6.44
107991	7	Sololá	704	Santa Lucía Utatlán 	7	Santa Rita 	7	Julio	2023-07-28T00:00:00	2024-11-08T05:00:00	1	Precipitación	0
107992	7	Sololá	704	Santa Lucía Utatlán 	7	Santa Rita 	7	Julio	2023-07-28T00:00:00	2024-11-08T05:00:00	8	Radiación solar	0
107993	7	Sololá	704	Santa Lucía Utatlán 	7	Santa Rita 	7	Julio	2023-07-28T00:00:00	2024-11-08T06:00:00	2	Temperatura media	20.2
107994	7	Sololá	704	Santa Lucía Utatlán 	7	Santa Rita 	7	Julio	2023-07-28T00:00:00	2024-11-08T06:00:00	4	Temperatura máxima	20.6
107995	7	Sololá	704	Santa Lucía Utatlán 	7	Santa Rita 	7	Julio	2023-07-28T00:00:00	2024-11-08T06:00:00	3	Temperatura mínima	19.3
107996	7	Sololá	704	Santa Lucía Utatlán 	7	Santa Rita 	7	Julio	2023-07-28T00:00:00	2024-11-08T06:00:00	5	Humedad	75
107997	7	Sololá	704	Santa Lucía Utatlán 	7	Santa Rita 	7	Julio	2023-07-28T00:00:00	2024-11-08T06:00:00	6	Velocidad del viento	8
107998	7	Sololá	704	Santa Lucía Utatlán 	7	Santa Rita 	7	Julio	2023-07-28T00:00:00	2024-11-08T06:00:00	7	Dirección del viento	8.05
107999	7	Sololá	704	Santa Lucía Utatlán 	7	Santa Rita 	7	Julio	2023-07-28T00:00:00	2024-11-08T06:00:00	1	Precipitación	0
108000	7	Sololá	704	Santa Lucía Utatlán 	7	Santa Rita 	7	Julio	2023-07-28T00:00:00	2024-11-08T06:00:00	8	Radiación solar	1
108001	7	Sololá	704	Santa Lucía Utatlán 	7	Santa Rita 	7	Julio	2023-07-28T00:00:00	2024-11-08T07:00:00	2	Temperatura media	21.2
108002	7	Sololá	704	Santa Lucía Utatlán 	7	Santa Rita 	7	Julio	2023-07-28T00:00:00	2024-11-08T07:00:00	4	Temperatura máxima	21.2
108003	7	Sololá	704	Santa Lucía Utatlán 	7	Santa Rita 	7	Julio	2023-07-28T00:00:00	2024-11-08T07:00:00	3	Temperatura mínima	19.9
108004	7	Sololá	704	Santa Lucía Utatlán 	7	Santa Rita 	7	Julio	2023-07-28T00:00:00	2024-11-08T07:00:00	5	Humedad	76
108005	7	Sololá	704	Santa Lucía Utatlán 	7	Santa Rita 	7	Julio	2023-07-28T00:00:00	2024-11-08T07:00:00	6	Velocidad del viento	9.7
108006	7	Sololá	704	Santa Lucía Utatlán 	7	Santa Rita 	7	Julio	2023-07-28T00:00:00	2024-11-08T07:00:00	7	Dirección del viento	9.66
108007	7	Sololá	704	Santa Lucía Utatlán 	7	Santa Rita 	7	Julio	2023-07-28T00:00:00	2024-11-08T07:00:00	1	Precipitación	0
108008	7	Sololá	704	Santa Lucía Utatlán 	7	Santa Rita 	7	Julio	2023-07-28T00:00:00	2024-11-08T07:00:00	8	Radiación solar	47
108009	7	Sololá	704	Santa Lucía Utatlán 	7	Santa Rita 	7	Julio	2023-07-28T00:00:00	2024-11-08T08:00:00	2	Temperatura media	23.1
108010	7	Sololá	704	Santa Lucía Utatlán 	7	Santa Rita 	7	Julio	2023-07-28T00:00:00	2024-11-08T08:00:00	4	Temperatura máxima	23.1
108011	7	Sololá	704	Santa Lucía Utatlán 	7	Santa Rita 	7	Julio	2023-07-28T00:00:00	2024-11-08T08:00:00	3	Temperatura mínima	21.2
108012	7	Sololá	704	Santa Lucía Utatlán 	7	Santa Rita 	7	Julio	2023-07-28T00:00:00	2024-11-08T08:00:00	5	Humedad	61
108013	7	Sololá	704	Santa Lucía Utatlán 	7	Santa Rita 	7	Julio	2023-07-28T00:00:00	2024-11-08T08:00:00	6	Velocidad del viento	8
108014	7	Sololá	704	Santa Lucía Utatlán 	7	Santa Rita 	7	Julio	2023-07-28T00:00:00	2024-11-08T08:00:00	7	Dirección del viento	8.05
108015	7	Sololá	704	Santa Lucía Utatlán 	7	Santa Rita 	7	Julio	2023-07-28T00:00:00	2024-11-08T08:00:00	1	Precipitación	0
108016	7	Sololá	704	Santa Lucía Utatlán 	7	Santa Rita 	7	Julio	2023-07-28T00:00:00	2024-11-08T08:00:00	8	Radiación solar	401
108017	7	Sololá	704	Santa Lucía Utatlán 	7	Santa Rita 	7	Julio	2023-07-28T00:00:00	2024-11-08T09:00:00	2	Temperatura media	23.1
108018	7	Sololá	704	Santa Lucía Utatlán 	7	Santa Rita 	7	Julio	2023-07-28T00:00:00	2024-11-08T09:00:00	4	Temperatura máxima	23.3
108019	7	Sololá	704	Santa Lucía Utatlán 	7	Santa Rita 	7	Julio	2023-07-28T00:00:00	2024-11-08T09:00:00	3	Temperatura mínima	22.8
108020	7	Sololá	704	Santa Lucía Utatlán 	7	Santa Rita 	7	Julio	2023-07-28T00:00:00	2024-11-08T09:00:00	5	Humedad	57
108021	7	Sololá	704	Santa Lucía Utatlán 	7	Santa Rita 	7	Julio	2023-07-28T00:00:00	2024-11-08T09:00:00	6	Velocidad del viento	12.9
108022	7	Sololá	704	Santa Lucía Utatlán 	7	Santa Rita 	7	Julio	2023-07-28T00:00:00	2024-11-08T09:00:00	7	Dirección del viento	12.87
108023	7	Sololá	704	Santa Lucía Utatlán 	7	Santa Rita 	7	Julio	2023-07-28T00:00:00	2024-11-08T09:00:00	1	Precipitación	0
108024	7	Sololá	704	Santa Lucía Utatlán 	7	Santa Rita 	7	Julio	2023-07-28T00:00:00	2024-11-08T09:00:00	8	Radiación solar	626
108025	7	Sololá	704	Santa Lucía Utatlán 	7	Santa Rita 	7	Julio	2023-07-28T00:00:00	2024-11-08T10:00:00	2	Temperatura media	24.2
108026	7	Sololá	704	Santa Lucía Utatlán 	7	Santa Rita 	7	Julio	2023-07-28T00:00:00	2024-11-08T10:00:00	4	Temperatura máxima	24.2
108027	7	Sololá	704	Santa Lucía Utatlán 	7	Santa Rita 	7	Julio	2023-07-28T00:00:00	2024-11-08T10:00:00	3	Temperatura mínima	23.1
108028	7	Sololá	704	Santa Lucía Utatlán 	7	Santa Rita 	7	Julio	2023-07-28T00:00:00	2024-11-08T10:00:00	5	Humedad	59
108029	7	Sololá	704	Santa Lucía Utatlán 	7	Santa Rita 	7	Julio	2023-07-28T00:00:00	2024-11-08T10:00:00	6	Velocidad del viento	11.3
108030	7	Sololá	704	Santa Lucía Utatlán 	7	Santa Rita 	7	Julio	2023-07-28T00:00:00	2024-11-08T10:00:00	7	Dirección del viento	11.27
108031	7	Sololá	704	Santa Lucía Utatlán 	7	Santa Rita 	7	Julio	2023-07-28T00:00:00	2024-11-08T10:00:00	1	Precipitación	0
108032	7	Sololá	704	Santa Lucía Utatlán 	7	Santa Rita 	7	Julio	2023-07-28T00:00:00	2024-11-08T10:00:00	8	Radiación solar	811
108033	7	Sololá	704	Santa Lucía Utatlán 	7	Santa Rita 	7	Julio	2023-07-28T00:00:00	2024-11-08T11:00:00	2	Temperatura media	25.1
108034	7	Sololá	704	Santa Lucía Utatlán 	7	Santa Rita 	7	Julio	2023-07-28T00:00:00	2024-11-08T11:00:00	4	Temperatura máxima	25.2
108035	7	Sololá	704	Santa Lucía Utatlán 	7	Santa Rita 	7	Julio	2023-07-28T00:00:00	2024-11-08T11:00:00	3	Temperatura mínima	24.2
108036	7	Sololá	704	Santa Lucía Utatlán 	7	Santa Rita 	7	Julio	2023-07-28T00:00:00	2024-11-08T11:00:00	5	Humedad	60
108037	7	Sololá	704	Santa Lucía Utatlán 	7	Santa Rita 	7	Julio	2023-07-28T00:00:00	2024-11-08T11:00:00	6	Velocidad del viento	11.3
108038	7	Sololá	704	Santa Lucía Utatlán 	7	Santa Rita 	7	Julio	2023-07-28T00:00:00	2024-11-08T11:00:00	7	Dirección del viento	11.27
108039	7	Sololá	704	Santa Lucía Utatlán 	7	Santa Rita 	7	Julio	2023-07-28T00:00:00	2024-11-08T11:00:00	1	Precipitación	0
108040	7	Sololá	704	Santa Lucía Utatlán 	7	Santa Rita 	7	Julio	2023-07-28T00:00:00	2024-11-08T11:00:00	8	Radiación solar	936
108041	7	Sololá	704	Santa Lucía Utatlán 	7	Santa Rita 	7	Julio	2023-07-28T00:00:00	2024-11-08T12:00:00	2	Temperatura media	25.4
108042	7	Sololá	704	Santa Lucía Utatlán 	7	Santa Rita 	7	Julio	2023-07-28T00:00:00	2024-11-08T12:00:00	4	Temperatura máxima	26.1
108043	7	Sololá	704	Santa Lucía Utatlán 	7	Santa Rita 	7	Julio	2023-07-28T00:00:00	2024-11-08T12:00:00	3	Temperatura mínima	25.2
108044	7	Sololá	704	Santa Lucía Utatlán 	7	Santa Rita 	7	Julio	2023-07-28T00:00:00	2024-11-08T12:00:00	5	Humedad	58
108045	7	Sololá	704	Santa Lucía Utatlán 	7	Santa Rita 	7	Julio	2023-07-28T00:00:00	2024-11-08T12:00:00	6	Velocidad del viento	9.7
108046	7	Sololá	704	Santa Lucía Utatlán 	7	Santa Rita 	7	Julio	2023-07-28T00:00:00	2024-11-08T12:00:00	7	Dirección del viento	9.66
108047	7	Sololá	704	Santa Lucía Utatlán 	7	Santa Rita 	7	Julio	2023-07-28T00:00:00	2024-11-08T12:00:00	1	Precipitación	0
108048	7	Sololá	704	Santa Lucía Utatlán 	7	Santa Rita 	7	Julio	2023-07-28T00:00:00	2024-11-08T12:00:00	8	Radiación solar	1014
108049	7	Sololá	704	Santa Lucía Utatlán 	7	Santa Rita 	7	Julio	2023-07-28T00:00:00	2024-11-08T13:00:00	2	Temperatura media	26.5
108050	7	Sololá	704	Santa Lucía Utatlán 	7	Santa Rita 	7	Julio	2023-07-28T00:00:00	2024-11-08T13:00:00	4	Temperatura máxima	26.5
108051	7	Sololá	704	Santa Lucía Utatlán 	7	Santa Rita 	7	Julio	2023-07-28T00:00:00	2024-11-08T13:00:00	3	Temperatura mínima	25.4
108052	7	Sololá	704	Santa Lucía Utatlán 	7	Santa Rita 	7	Julio	2023-07-28T00:00:00	2024-11-08T13:00:00	5	Humedad	52
108053	7	Sololá	704	Santa Lucía Utatlán 	7	Santa Rita 	7	Julio	2023-07-28T00:00:00	2024-11-08T13:00:00	6	Velocidad del viento	9.7
108054	7	Sololá	704	Santa Lucía Utatlán 	7	Santa Rita 	7	Julio	2023-07-28T00:00:00	2024-11-08T13:00:00	7	Dirección del viento	9.66
108055	7	Sololá	704	Santa Lucía Utatlán 	7	Santa Rita 	7	Julio	2023-07-28T00:00:00	2024-11-08T13:00:00	1	Precipitación	0
108056	7	Sololá	704	Santa Lucía Utatlán 	7	Santa Rita 	7	Julio	2023-07-28T00:00:00	2024-11-08T13:00:00	8	Radiación solar	1017
108057	7	Sololá	704	Santa Lucía Utatlán 	7	Santa Rita 	7	Julio	2023-07-28T00:00:00	2024-11-08T14:00:00	2	Temperatura media	25.7
108058	7	Sololá	704	Santa Lucía Utatlán 	7	Santa Rita 	7	Julio	2023-07-28T00:00:00	2024-11-08T14:00:00	4	Temperatura máxima	26.4
108059	7	Sololá	704	Santa Lucía Utatlán 	7	Santa Rita 	7	Julio	2023-07-28T00:00:00	2024-11-08T14:00:00	3	Temperatura mínima	25.6
108060	7	Sololá	704	Santa Lucía Utatlán 	7	Santa Rita 	7	Julio	2023-07-28T00:00:00	2024-11-08T14:00:00	5	Humedad	53
108061	7	Sololá	704	Santa Lucía Utatlán 	7	Santa Rita 	7	Julio	2023-07-28T00:00:00	2024-11-08T14:00:00	6	Velocidad del viento	12.9
108062	7	Sololá	704	Santa Lucía Utatlán 	7	Santa Rita 	7	Julio	2023-07-28T00:00:00	2024-11-08T14:00:00	7	Dirección del viento	12.87
108063	7	Sololá	704	Santa Lucía Utatlán 	7	Santa Rita 	7	Julio	2023-07-28T00:00:00	2024-11-08T14:00:00	1	Precipitación	0
108064	7	Sololá	704	Santa Lucía Utatlán 	7	Santa Rita 	7	Julio	2023-07-28T00:00:00	2024-11-08T14:00:00	8	Radiación solar	948
108065	7	Sololá	704	Santa Lucía Utatlán 	7	Santa Rita 	7	Julio	2023-07-28T00:00:00	2024-11-08T15:00:00	2	Temperatura media	25.4
108066	7	Sololá	704	Santa Lucía Utatlán 	7	Santa Rita 	7	Julio	2023-07-28T00:00:00	2024-11-08T15:00:00	4	Temperatura máxima	26.2
108067	7	Sololá	704	Santa Lucía Utatlán 	7	Santa Rita 	7	Julio	2023-07-28T00:00:00	2024-11-08T15:00:00	3	Temperatura mínima	25.4
108068	7	Sololá	704	Santa Lucía Utatlán 	7	Santa Rita 	7	Julio	2023-07-28T00:00:00	2024-11-08T15:00:00	5	Humedad	57
108069	7	Sololá	704	Santa Lucía Utatlán 	7	Santa Rita 	7	Julio	2023-07-28T00:00:00	2024-11-08T15:00:00	6	Velocidad del viento	11.3
108070	7	Sololá	704	Santa Lucía Utatlán 	7	Santa Rita 	7	Julio	2023-07-28T00:00:00	2024-11-08T15:00:00	7	Dirección del viento	11.27
108071	7	Sololá	704	Santa Lucía Utatlán 	7	Santa Rita 	7	Julio	2023-07-28T00:00:00	2024-11-08T15:00:00	1	Precipitación	0
108072	7	Sololá	704	Santa Lucía Utatlán 	7	Santa Rita 	7	Julio	2023-07-28T00:00:00	2024-11-08T15:00:00	8	Radiación solar	826
108073	7	Sololá	704	Santa Lucía Utatlán 	7	Santa Rita 	7	Julio	2023-07-28T00:00:00	2024-11-08T16:00:00	2	Temperatura media	24.1
108074	7	Sololá	704	Santa Lucía Utatlán 	7	Santa Rita 	7	Julio	2023-07-28T00:00:00	2024-11-08T16:00:00	4	Temperatura máxima	25.9
108075	7	Sololá	704	Santa Lucía Utatlán 	7	Santa Rita 	7	Julio	2023-07-28T00:00:00	2024-11-08T16:00:00	3	Temperatura mínima	24.1
108076	7	Sololá	704	Santa Lucía Utatlán 	7	Santa Rita 	7	Julio	2023-07-28T00:00:00	2024-11-08T16:00:00	5	Humedad	65
108077	7	Sololá	704	Santa Lucía Utatlán 	7	Santa Rita 	7	Julio	2023-07-28T00:00:00	2024-11-08T16:00:00	6	Velocidad del viento	9.7
108078	7	Sololá	704	Santa Lucía Utatlán 	7	Santa Rita 	7	Julio	2023-07-28T00:00:00	2024-11-08T16:00:00	7	Dirección del viento	9.66
108079	7	Sololá	704	Santa Lucía Utatlán 	7	Santa Rita 	7	Julio	2023-07-28T00:00:00	2024-11-08T16:00:00	1	Precipitación	0
108080	7	Sololá	704	Santa Lucía Utatlán 	7	Santa Rita 	7	Julio	2023-07-28T00:00:00	2024-11-08T16:00:00	8	Radiación solar	484
108081	7	Sololá	704	Santa Lucía Utatlán 	7	Santa Rita 	7	Julio	2023-07-28T00:00:00	2024-11-08T17:00:00	2	Temperatura media	24.3
108082	7	Sololá	704	Santa Lucía Utatlán 	7	Santa Rita 	7	Julio	2023-07-28T00:00:00	2024-11-08T17:00:00	4	Temperatura máxima	25.1
108083	7	Sololá	704	Santa Lucía Utatlán 	7	Santa Rita 	7	Julio	2023-07-28T00:00:00	2024-11-08T17:00:00	3	Temperatura mínima	24.1
108084	7	Sololá	704	Santa Lucía Utatlán 	7	Santa Rita 	7	Julio	2023-07-28T00:00:00	2024-11-08T17:00:00	5	Humedad	63
108085	7	Sololá	704	Santa Lucía Utatlán 	7	Santa Rita 	7	Julio	2023-07-28T00:00:00	2024-11-08T17:00:00	6	Velocidad del viento	8
108086	7	Sololá	704	Santa Lucía Utatlán 	7	Santa Rita 	7	Julio	2023-07-28T00:00:00	2024-11-08T17:00:00	7	Dirección del viento	8.05
108087	7	Sololá	704	Santa Lucía Utatlán 	7	Santa Rita 	7	Julio	2023-07-28T00:00:00	2024-11-08T17:00:00	1	Precipitación	0
108088	7	Sololá	704	Santa Lucía Utatlán 	7	Santa Rita 	7	Julio	2023-07-28T00:00:00	2024-11-08T17:00:00	8	Radiación solar	342
108089	7	Sololá	704	Santa Lucía Utatlán 	7	Santa Rita 	7	Julio	2023-07-28T00:00:00	2024-11-08T18:00:00	2	Temperatura media	23.2
108090	7	Sololá	704	Santa Lucía Utatlán 	7	Santa Rita 	7	Julio	2023-07-28T00:00:00	2024-11-08T18:00:00	4	Temperatura máxima	24.5
108091	7	Sololá	704	Santa Lucía Utatlán 	7	Santa Rita 	7	Julio	2023-07-28T00:00:00	2024-11-08T18:00:00	3	Temperatura mínima	23.2
108092	7	Sololá	704	Santa Lucía Utatlán 	7	Santa Rita 	7	Julio	2023-07-28T00:00:00	2024-11-08T18:00:00	5	Humedad	69
108093	7	Sololá	704	Santa Lucía Utatlán 	7	Santa Rita 	7	Julio	2023-07-28T00:00:00	2024-11-08T18:00:00	6	Velocidad del viento	4.8
108094	7	Sololá	704	Santa Lucía Utatlán 	7	Santa Rita 	7	Julio	2023-07-28T00:00:00	2024-11-08T18:00:00	7	Dirección del viento	4.83
108095	7	Sololá	704	Santa Lucía Utatlán 	7	Santa Rita 	7	Julio	2023-07-28T00:00:00	2024-11-08T18:00:00	1	Precipitación	0
108096	7	Sololá	704	Santa Lucía Utatlán 	7	Santa Rita 	7	Julio	2023-07-28T00:00:00	2024-11-08T18:00:00	8	Radiación solar	88
108097	7	Sololá	704	Santa Lucía Utatlán 	7	Santa Rita 	7	Julio	2023-07-28T00:00:00	2024-11-08T19:00:00	2	Temperatura media	22.7
108098	7	Sololá	704	Santa Lucía Utatlán 	7	Santa Rita 	7	Julio	2023-07-28T00:00:00	2024-11-08T19:00:00	4	Temperatura máxima	23.2
108099	7	Sololá	704	Santa Lucía Utatlán 	7	Santa Rita 	7	Julio	2023-07-28T00:00:00	2024-11-08T19:00:00	3	Temperatura mínima	22.6
108100	7	Sololá	704	Santa Lucía Utatlán 	7	Santa Rita 	7	Julio	2023-07-28T00:00:00	2024-11-08T19:00:00	5	Humedad	73
108101	7	Sololá	704	Santa Lucía Utatlán 	7	Santa Rita 	7	Julio	2023-07-28T00:00:00	2024-11-08T19:00:00	6	Velocidad del viento	4.8
108102	7	Sololá	704	Santa Lucía Utatlán 	7	Santa Rita 	7	Julio	2023-07-28T00:00:00	2024-11-08T19:00:00	7	Dirección del viento	4.83
108103	7	Sololá	704	Santa Lucía Utatlán 	7	Santa Rita 	7	Julio	2023-07-28T00:00:00	2024-11-08T19:00:00	1	Precipitación	0
108104	7	Sololá	704	Santa Lucía Utatlán 	7	Santa Rita 	7	Julio	2023-07-28T00:00:00	2024-11-08T19:00:00	8	Radiación solar	0
108105	7	Sololá	704	Santa Lucía Utatlán 	7	Santa Rita 	7	Julio	2023-07-28T00:00:00	2024-11-08T20:00:00	2	Temperatura media	22.3
108106	7	Sololá	704	Santa Lucía Utatlán 	7	Santa Rita 	7	Julio	2023-07-28T00:00:00	2024-11-08T20:00:00	4	Temperatura máxima	22.7
108107	7	Sololá	704	Santa Lucía Utatlán 	7	Santa Rita 	7	Julio	2023-07-28T00:00:00	2024-11-08T20:00:00	3	Temperatura mínima	21.9
108108	7	Sololá	704	Santa Lucía Utatlán 	7	Santa Rita 	7	Julio	2023-07-28T00:00:00	2024-11-08T20:00:00	5	Humedad	74
108109	7	Sololá	704	Santa Lucía Utatlán 	7	Santa Rita 	7	Julio	2023-07-28T00:00:00	2024-11-08T20:00:00	6	Velocidad del viento	4.8
108110	7	Sololá	704	Santa Lucía Utatlán 	7	Santa Rita 	7	Julio	2023-07-28T00:00:00	2024-11-08T20:00:00	7	Dirección del viento	4.83
108111	7	Sololá	704	Santa Lucía Utatlán 	7	Santa Rita 	7	Julio	2023-07-28T00:00:00	2024-11-08T20:00:00	1	Precipitación	0
108112	7	Sololá	704	Santa Lucía Utatlán 	7	Santa Rita 	7	Julio	2023-07-28T00:00:00	2024-11-08T20:00:00	8	Radiación solar	0
108113	7	Sololá	704	Santa Lucía Utatlán 	7	Santa Rita 	7	Julio	2023-07-28T00:00:00	2024-11-08T21:00:00	2	Temperatura media	21.5
108114	7	Sololá	704	Santa Lucía Utatlán 	7	Santa Rita 	7	Julio	2023-07-28T00:00:00	2024-11-08T21:00:00	4	Temperatura máxima	22.3
108115	7	Sololá	704	Santa Lucía Utatlán 	7	Santa Rita 	7	Julio	2023-07-28T00:00:00	2024-11-08T21:00:00	3	Temperatura mínima	21.5
108116	7	Sololá	704	Santa Lucía Utatlán 	7	Santa Rita 	7	Julio	2023-07-28T00:00:00	2024-11-08T21:00:00	5	Humedad	79
108117	7	Sololá	704	Santa Lucía Utatlán 	7	Santa Rita 	7	Julio	2023-07-28T00:00:00	2024-11-08T21:00:00	6	Velocidad del viento	4.8
108118	7	Sololá	704	Santa Lucía Utatlán 	7	Santa Rita 	7	Julio	2023-07-28T00:00:00	2024-11-08T21:00:00	7	Dirección del viento	4.83
108119	7	Sololá	704	Santa Lucía Utatlán 	7	Santa Rita 	7	Julio	2023-07-28T00:00:00	2024-11-08T21:00:00	1	Precipitación	0
108120	7	Sololá	704	Santa Lucía Utatlán 	7	Santa Rita 	7	Julio	2023-07-28T00:00:00	2024-11-08T21:00:00	8	Radiación solar	0
108121	7	Sololá	704	Santa Lucía Utatlán 	7	Santa Rita 	7	Julio	2023-07-28T00:00:00	2024-11-08T22:00:00	2	Temperatura media	20.5
108122	7	Sololá	704	Santa Lucía Utatlán 	7	Santa Rita 	7	Julio	2023-07-28T00:00:00	2024-11-08T22:00:00	4	Temperatura máxima	21.6
108123	7	Sololá	704	Santa Lucía Utatlán 	7	Santa Rita 	7	Julio	2023-07-28T00:00:00	2024-11-08T22:00:00	3	Temperatura mínima	20.4
108124	7	Sololá	704	Santa Lucía Utatlán 	7	Santa Rita 	7	Julio	2023-07-28T00:00:00	2024-11-08T22:00:00	5	Humedad	84
108125	7	Sololá	704	Santa Lucía Utatlán 	7	Santa Rita 	7	Julio	2023-07-28T00:00:00	2024-11-08T22:00:00	6	Velocidad del viento	3.2
108126	7	Sololá	704	Santa Lucía Utatlán 	7	Santa Rita 	7	Julio	2023-07-28T00:00:00	2024-11-08T22:00:00	7	Dirección del viento	3.22
108127	7	Sololá	704	Santa Lucía Utatlán 	7	Santa Rita 	7	Julio	2023-07-28T00:00:00	2024-11-08T22:00:00	1	Precipitación	0
108128	7	Sololá	704	Santa Lucía Utatlán 	7	Santa Rita 	7	Julio	2023-07-28T00:00:00	2024-11-08T22:00:00	8	Radiación solar	0
108129	7	Sololá	704	Santa Lucía Utatlán 	7	Santa Rita 	7	Julio	2023-07-28T00:00:00	2024-11-08T23:00:00	2	Temperatura media	20.6
108130	7	Sololá	704	Santa Lucía Utatlán 	7	Santa Rita 	7	Julio	2023-07-28T00:00:00	2024-11-08T23:00:00	4	Temperatura máxima	20.9
108131	7	Sololá	704	Santa Lucía Utatlán 	7	Santa Rita 	7	Julio	2023-07-28T00:00:00	2024-11-08T23:00:00	3	Temperatura mínima	20.4
108132	7	Sololá	704	Santa Lucía Utatlán 	7	Santa Rita 	7	Julio	2023-07-28T00:00:00	2024-11-08T23:00:00	5	Humedad	78
108133	7	Sololá	704	Santa Lucía Utatlán 	7	Santa Rita 	7	Julio	2023-07-28T00:00:00	2024-11-08T23:00:00	6	Velocidad del viento	8
108134	7	Sololá	704	Santa Lucía Utatlán 	7	Santa Rita 	7	Julio	2023-07-28T00:00:00	2024-11-08T23:00:00	7	Dirección del viento	8.05
108135	7	Sololá	704	Santa Lucía Utatlán 	7	Santa Rita 	7	Julio	2023-07-28T00:00:00	2024-11-08T23:00:00	1	Precipitación	1.2
108136	7	Sololá	704	Santa Lucía Utatlán 	7	Santa Rita 	7	Julio	2023-07-28T00:00:00	2024-11-08T23:00:00	8	Radiación solar	0
108137	7	Sololá	704	Santa Lucía Utatlán 	7	Santa Rita 	7	Julio	2023-07-29T00:00:00	2024-11-08T00:00:00	2	Temperatura media	19.7
108138	7	Sololá	704	Santa Lucía Utatlán 	7	Santa Rita 	7	Julio	2023-07-29T00:00:00	2024-11-08T00:00:00	4	Temperatura máxima	20.7
108139	7	Sololá	704	Santa Lucía Utatlán 	7	Santa Rita 	7	Julio	2023-07-29T00:00:00	2024-11-08T00:00:00	3	Temperatura mínima	19.7
108140	7	Sololá	704	Santa Lucía Utatlán 	7	Santa Rita 	7	Julio	2023-07-29T00:00:00	2024-11-08T00:00:00	5	Humedad	81
108141	7	Sololá	704	Santa Lucía Utatlán 	7	Santa Rita 	7	Julio	2023-07-29T00:00:00	2024-11-08T00:00:00	6	Velocidad del viento	8
108142	7	Sololá	704	Santa Lucía Utatlán 	7	Santa Rita 	7	Julio	2023-07-29T00:00:00	2024-11-08T00:00:00	7	Dirección del viento	8.05
108143	7	Sololá	704	Santa Lucía Utatlán 	7	Santa Rita 	7	Julio	2023-07-29T00:00:00	2024-11-08T00:00:00	1	Precipitación	0
108144	7	Sololá	704	Santa Lucía Utatlán 	7	Santa Rita 	7	Julio	2023-07-29T00:00:00	2024-11-08T00:00:00	8	Radiación solar	0
108145	7	Sololá	704	Santa Lucía Utatlán 	7	Santa Rita 	7	Julio	2023-07-29T00:00:00	2024-11-08T01:00:00	2	Temperatura media	20.1
108146	7	Sololá	704	Santa Lucía Utatlán 	7	Santa Rita 	7	Julio	2023-07-29T00:00:00	2024-11-08T01:00:00	4	Temperatura máxima	20.1
108147	7	Sololá	704	Santa Lucía Utatlán 	7	Santa Rita 	7	Julio	2023-07-29T00:00:00	2024-11-08T01:00:00	3	Temperatura mínima	18.7
108148	7	Sololá	704	Santa Lucía Utatlán 	7	Santa Rita 	7	Julio	2023-07-29T00:00:00	2024-11-08T01:00:00	5	Humedad	81
108149	7	Sololá	704	Santa Lucía Utatlán 	7	Santa Rita 	7	Julio	2023-07-29T00:00:00	2024-11-08T01:00:00	6	Velocidad del viento	4.8
108150	7	Sololá	704	Santa Lucía Utatlán 	7	Santa Rita 	7	Julio	2023-07-29T00:00:00	2024-11-08T01:00:00	7	Dirección del viento	4.83
108151	7	Sololá	704	Santa Lucía Utatlán 	7	Santa Rita 	7	Julio	2023-07-29T00:00:00	2024-11-08T01:00:00	1	Precipitación	0
108152	7	Sololá	704	Santa Lucía Utatlán 	7	Santa Rita 	7	Julio	2023-07-29T00:00:00	2024-11-08T01:00:00	8	Radiación solar	0
108153	7	Sololá	704	Santa Lucía Utatlán 	7	Santa Rita 	7	Julio	2023-07-29T00:00:00	2024-11-08T02:00:00	2	Temperatura media	19.9
108154	7	Sololá	704	Santa Lucía Utatlán 	7	Santa Rita 	7	Julio	2023-07-29T00:00:00	2024-11-08T02:00:00	4	Temperatura máxima	20.4
108155	7	Sololá	704	Santa Lucía Utatlán 	7	Santa Rita 	7	Julio	2023-07-29T00:00:00	2024-11-08T02:00:00	3	Temperatura mínima	19.6
108156	7	Sololá	704	Santa Lucía Utatlán 	7	Santa Rita 	7	Julio	2023-07-29T00:00:00	2024-11-08T02:00:00	5	Humedad	85
108157	7	Sololá	704	Santa Lucía Utatlán 	7	Santa Rita 	7	Julio	2023-07-29T00:00:00	2024-11-08T02:00:00	6	Velocidad del viento	3.2
108158	7	Sololá	704	Santa Lucía Utatlán 	7	Santa Rita 	7	Julio	2023-07-29T00:00:00	2024-11-08T02:00:00	7	Dirección del viento	3.22
108159	7	Sololá	704	Santa Lucía Utatlán 	7	Santa Rita 	7	Julio	2023-07-29T00:00:00	2024-11-08T02:00:00	1	Precipitación	0
108160	7	Sololá	704	Santa Lucía Utatlán 	7	Santa Rita 	7	Julio	2023-07-29T00:00:00	2024-11-08T02:00:00	8	Radiación solar	0
108161	7	Sololá	704	Santa Lucía Utatlán 	7	Santa Rita 	7	Julio	2023-07-29T00:00:00	2024-11-08T03:00:00	2	Temperatura media	19.1
108162	7	Sololá	704	Santa Lucía Utatlán 	7	Santa Rita 	7	Julio	2023-07-29T00:00:00	2024-11-08T03:00:00	4	Temperatura máxima	19.9
108163	7	Sololá	704	Santa Lucía Utatlán 	7	Santa Rita 	7	Julio	2023-07-29T00:00:00	2024-11-08T03:00:00	3	Temperatura mínima	19.1
108164	7	Sololá	704	Santa Lucía Utatlán 	7	Santa Rita 	7	Julio	2023-07-29T00:00:00	2024-11-08T03:00:00	5	Humedad	91
108165	7	Sololá	704	Santa Lucía Utatlán 	7	Santa Rita 	7	Julio	2023-07-29T00:00:00	2024-11-08T03:00:00	6	Velocidad del viento	1.6
108166	7	Sololá	704	Santa Lucía Utatlán 	7	Santa Rita 	7	Julio	2023-07-29T00:00:00	2024-11-08T03:00:00	7	Dirección del viento	1.61
108167	7	Sololá	704	Santa Lucía Utatlán 	7	Santa Rita 	7	Julio	2023-07-29T00:00:00	2024-11-08T03:00:00	1	Precipitación	0.4
108168	7	Sololá	704	Santa Lucía Utatlán 	7	Santa Rita 	7	Julio	2023-07-29T00:00:00	2024-11-08T03:00:00	8	Radiación solar	0
108169	7	Sololá	704	Santa Lucía Utatlán 	7	Santa Rita 	7	Julio	2023-07-29T00:00:00	2024-11-08T04:00:00	2	Temperatura media	18.9
108170	7	Sololá	704	Santa Lucía Utatlán 	7	Santa Rita 	7	Julio	2023-07-29T00:00:00	2024-11-08T04:00:00	4	Temperatura máxima	19.1
108171	7	Sololá	704	Santa Lucía Utatlán 	7	Santa Rita 	7	Julio	2023-07-29T00:00:00	2024-11-08T04:00:00	3	Temperatura mínima	18.8
108172	7	Sololá	704	Santa Lucía Utatlán 	7	Santa Rita 	7	Julio	2023-07-29T00:00:00	2024-11-08T04:00:00	5	Humedad	94
108173	7	Sololá	704	Santa Lucía Utatlán 	7	Santa Rita 	7	Julio	2023-07-29T00:00:00	2024-11-08T04:00:00	6	Velocidad del viento	3.2
108174	7	Sololá	704	Santa Lucía Utatlán 	7	Santa Rita 	7	Julio	2023-07-29T00:00:00	2024-11-08T04:00:00	7	Dirección del viento	3.22
108175	7	Sololá	704	Santa Lucía Utatlán 	7	Santa Rita 	7	Julio	2023-07-29T00:00:00	2024-11-08T04:00:00	1	Precipitación	3.8
108176	7	Sololá	704	Santa Lucía Utatlán 	7	Santa Rita 	7	Julio	2023-07-29T00:00:00	2024-11-08T04:00:00	8	Radiación solar	0
108177	7	Sololá	704	Santa Lucía Utatlán 	7	Santa Rita 	7	Julio	2023-07-29T00:00:00	2024-11-08T05:00:00	2	Temperatura media	18.9
108178	7	Sololá	704	Santa Lucía Utatlán 	7	Santa Rita 	7	Julio	2023-07-29T00:00:00	2024-11-08T05:00:00	4	Temperatura máxima	19.2
108179	7	Sololá	704	Santa Lucía Utatlán 	7	Santa Rita 	7	Julio	2023-07-29T00:00:00	2024-11-08T05:00:00	3	Temperatura mínima	18.9
108180	7	Sololá	704	Santa Lucía Utatlán 	7	Santa Rita 	7	Julio	2023-07-29T00:00:00	2024-11-08T05:00:00	5	Humedad	93
108181	7	Sololá	704	Santa Lucía Utatlán 	7	Santa Rita 	7	Julio	2023-07-29T00:00:00	2024-11-08T05:00:00	6	Velocidad del viento	4.8
108182	7	Sololá	704	Santa Lucía Utatlán 	7	Santa Rita 	7	Julio	2023-07-29T00:00:00	2024-11-08T05:00:00	7	Dirección del viento	4.83
108183	7	Sololá	704	Santa Lucía Utatlán 	7	Santa Rita 	7	Julio	2023-07-29T00:00:00	2024-11-08T05:00:00	1	Precipitación	1.8
108184	7	Sololá	704	Santa Lucía Utatlán 	7	Santa Rita 	7	Julio	2023-07-29T00:00:00	2024-11-08T05:00:00	8	Radiación solar	0
108185	7	Sololá	704	Santa Lucía Utatlán 	7	Santa Rita 	7	Julio	2023-07-29T00:00:00	2024-11-08T06:00:00	2	Temperatura media	19.6
108186	7	Sololá	704	Santa Lucía Utatlán 	7	Santa Rita 	7	Julio	2023-07-29T00:00:00	2024-11-08T06:00:00	4	Temperatura máxima	20
108187	7	Sololá	704	Santa Lucía Utatlán 	7	Santa Rita 	7	Julio	2023-07-29T00:00:00	2024-11-08T06:00:00	3	Temperatura mínima	18.7
108188	7	Sololá	704	Santa Lucía Utatlán 	7	Santa Rita 	7	Julio	2023-07-29T00:00:00	2024-11-08T06:00:00	5	Humedad	87
108189	7	Sololá	704	Santa Lucía Utatlán 	7	Santa Rita 	7	Julio	2023-07-29T00:00:00	2024-11-08T06:00:00	6	Velocidad del viento	8
108190	7	Sololá	704	Santa Lucía Utatlán 	7	Santa Rita 	7	Julio	2023-07-29T00:00:00	2024-11-08T06:00:00	7	Dirección del viento	8.05
108191	7	Sololá	704	Santa Lucía Utatlán 	7	Santa Rita 	7	Julio	2023-07-29T00:00:00	2024-11-08T06:00:00	1	Precipitación	1.4
108192	7	Sololá	704	Santa Lucía Utatlán 	7	Santa Rita 	7	Julio	2023-07-29T00:00:00	2024-11-08T06:00:00	8	Radiación solar	0
108193	7	Sololá	704	Santa Lucía Utatlán 	7	Santa Rita 	7	Julio	2023-07-29T00:00:00	2024-11-08T07:00:00	2	Temperatura media	20
108194	7	Sololá	704	Santa Lucía Utatlán 	7	Santa Rita 	7	Julio	2023-07-29T00:00:00	2024-11-08T07:00:00	4	Temperatura máxima	20
108195	7	Sololá	704	Santa Lucía Utatlán 	7	Santa Rita 	7	Julio	2023-07-29T00:00:00	2024-11-08T07:00:00	3	Temperatura mínima	19.6
108196	7	Sololá	704	Santa Lucía Utatlán 	7	Santa Rita 	7	Julio	2023-07-29T00:00:00	2024-11-08T07:00:00	5	Humedad	87
108197	7	Sololá	704	Santa Lucía Utatlán 	7	Santa Rita 	7	Julio	2023-07-29T00:00:00	2024-11-08T07:00:00	6	Velocidad del viento	8
108198	7	Sololá	704	Santa Lucía Utatlán 	7	Santa Rita 	7	Julio	2023-07-29T00:00:00	2024-11-08T07:00:00	7	Dirección del viento	8.05
108199	7	Sololá	704	Santa Lucía Utatlán 	7	Santa Rita 	7	Julio	2023-07-29T00:00:00	2024-11-08T07:00:00	1	Precipitación	0.4
108200	7	Sololá	704	Santa Lucía Utatlán 	7	Santa Rita 	7	Julio	2023-07-29T00:00:00	2024-11-08T07:00:00	8	Radiación solar	42
108201	7	Sololá	704	Santa Lucía Utatlán 	7	Santa Rita 	7	Julio	2023-07-29T00:00:00	2024-11-08T08:00:00	2	Temperatura media	20.3
108202	7	Sololá	704	Santa Lucía Utatlán 	7	Santa Rita 	7	Julio	2023-07-29T00:00:00	2024-11-08T08:00:00	4	Temperatura máxima	20.3
108203	7	Sololá	704	Santa Lucía Utatlán 	7	Santa Rita 	7	Julio	2023-07-29T00:00:00	2024-11-08T08:00:00	3	Temperatura mínima	19.8
108204	7	Sololá	704	Santa Lucía Utatlán 	7	Santa Rita 	7	Julio	2023-07-29T00:00:00	2024-11-08T08:00:00	5	Humedad	87
108205	7	Sololá	704	Santa Lucía Utatlán 	7	Santa Rita 	7	Julio	2023-07-29T00:00:00	2024-11-08T08:00:00	6	Velocidad del viento	8
108206	7	Sololá	704	Santa Lucía Utatlán 	7	Santa Rita 	7	Julio	2023-07-29T00:00:00	2024-11-08T08:00:00	7	Dirección del viento	8.05
108207	7	Sololá	704	Santa Lucía Utatlán 	7	Santa Rita 	7	Julio	2023-07-29T00:00:00	2024-11-08T08:00:00	1	Precipitación	0
108208	7	Sololá	704	Santa Lucía Utatlán 	7	Santa Rita 	7	Julio	2023-07-29T00:00:00	2024-11-08T08:00:00	8	Radiación solar	114
108209	7	Sololá	704	Santa Lucía Utatlán 	7	Santa Rita 	7	Julio	2023-07-29T00:00:00	2024-11-08T09:00:00	2	Temperatura media	20.9
108210	7	Sololá	704	Santa Lucía Utatlán 	7	Santa Rita 	7	Julio	2023-07-29T00:00:00	2024-11-08T09:00:00	4	Temperatura máxima	21.2
108211	7	Sololá	704	Santa Lucía Utatlán 	7	Santa Rita 	7	Julio	2023-07-29T00:00:00	2024-11-08T09:00:00	3	Temperatura mínima	20.2
108212	7	Sololá	704	Santa Lucía Utatlán 	7	Santa Rita 	7	Julio	2023-07-29T00:00:00	2024-11-08T09:00:00	5	Humedad	82
108213	7	Sololá	704	Santa Lucía Utatlán 	7	Santa Rita 	7	Julio	2023-07-29T00:00:00	2024-11-08T09:00:00	6	Velocidad del viento	9.7
108214	7	Sololá	704	Santa Lucía Utatlán 	7	Santa Rita 	7	Julio	2023-07-29T00:00:00	2024-11-08T09:00:00	7	Dirección del viento	9.66
108215	7	Sololá	704	Santa Lucía Utatlán 	7	Santa Rita 	7	Julio	2023-07-29T00:00:00	2024-11-08T09:00:00	1	Precipitación	0
108216	7	Sololá	704	Santa Lucía Utatlán 	7	Santa Rita 	7	Julio	2023-07-29T00:00:00	2024-11-08T09:00:00	8	Radiación solar	232
108217	7	Sololá	704	Santa Lucía Utatlán 	7	Santa Rita 	7	Julio	2023-07-29T00:00:00	2024-11-08T10:00:00	2	Temperatura media	20.9
108218	7	Sololá	704	Santa Lucía Utatlán 	7	Santa Rita 	7	Julio	2023-07-29T00:00:00	2024-11-08T10:00:00	4	Temperatura máxima	21.1
108219	7	Sololá	704	Santa Lucía Utatlán 	7	Santa Rita 	7	Julio	2023-07-29T00:00:00	2024-11-08T10:00:00	3	Temperatura mínima	20.6
108220	7	Sololá	704	Santa Lucía Utatlán 	7	Santa Rita 	7	Julio	2023-07-29T00:00:00	2024-11-08T10:00:00	5	Humedad	86
108221	7	Sololá	704	Santa Lucía Utatlán 	7	Santa Rita 	7	Julio	2023-07-29T00:00:00	2024-11-08T10:00:00	6	Velocidad del viento	8
108222	7	Sololá	704	Santa Lucía Utatlán 	7	Santa Rita 	7	Julio	2023-07-29T00:00:00	2024-11-08T10:00:00	7	Dirección del viento	8.05
108223	7	Sololá	704	Santa Lucía Utatlán 	7	Santa Rita 	7	Julio	2023-07-29T00:00:00	2024-11-08T10:00:00	1	Precipitación	0
108224	7	Sololá	704	Santa Lucía Utatlán 	7	Santa Rita 	7	Julio	2023-07-29T00:00:00	2024-11-08T10:00:00	8	Radiación solar	255
108225	7	Sololá	704	Santa Lucía Utatlán 	7	Santa Rita 	7	Julio	2023-07-29T00:00:00	2024-11-08T11:00:00	2	Temperatura media	20.5
108226	7	Sololá	704	Santa Lucía Utatlán 	7	Santa Rita 	7	Julio	2023-07-29T00:00:00	2024-11-08T11:00:00	4	Temperatura máxima	21
108227	7	Sololá	704	Santa Lucía Utatlán 	7	Santa Rita 	7	Julio	2023-07-29T00:00:00	2024-11-08T11:00:00	3	Temperatura mínima	20.4
108228	7	Sololá	704	Santa Lucía Utatlán 	7	Santa Rita 	7	Julio	2023-07-29T00:00:00	2024-11-08T11:00:00	5	Humedad	88
108229	7	Sololá	704	Santa Lucía Utatlán 	7	Santa Rita 	7	Julio	2023-07-29T00:00:00	2024-11-08T11:00:00	6	Velocidad del viento	8
108230	7	Sololá	704	Santa Lucía Utatlán 	7	Santa Rita 	7	Julio	2023-07-29T00:00:00	2024-11-08T11:00:00	7	Dirección del viento	8.05
108231	7	Sololá	704	Santa Lucía Utatlán 	7	Santa Rita 	7	Julio	2023-07-29T00:00:00	2024-11-08T11:00:00	1	Precipitación	0
108232	7	Sololá	704	Santa Lucía Utatlán 	7	Santa Rita 	7	Julio	2023-07-29T00:00:00	2024-11-08T11:00:00	8	Radiación solar	208
108233	7	Sololá	704	Santa Lucía Utatlán 	7	Santa Rita 	7	Julio	2023-07-29T00:00:00	2024-11-08T12:00:00	2	Temperatura media	20.9
108234	7	Sololá	704	Santa Lucía Utatlán 	7	Santa Rita 	7	Julio	2023-07-29T00:00:00	2024-11-08T12:00:00	4	Temperatura máxima	21.6
108235	7	Sololá	704	Santa Lucía Utatlán 	7	Santa Rita 	7	Julio	2023-07-29T00:00:00	2024-11-08T12:00:00	3	Temperatura mínima	20.5
108236	7	Sololá	704	Santa Lucía Utatlán 	7	Santa Rita 	7	Julio	2023-07-29T00:00:00	2024-11-08T12:00:00	5	Humedad	85
108237	7	Sololá	704	Santa Lucía Utatlán 	7	Santa Rita 	7	Julio	2023-07-29T00:00:00	2024-11-08T12:00:00	6	Velocidad del viento	9.7
108238	7	Sololá	704	Santa Lucía Utatlán 	7	Santa Rita 	7	Julio	2023-07-29T00:00:00	2024-11-08T12:00:00	7	Dirección del viento	9.66
108239	7	Sololá	704	Santa Lucía Utatlán 	7	Santa Rita 	7	Julio	2023-07-29T00:00:00	2024-11-08T12:00:00	1	Precipitación	0
108240	7	Sololá	704	Santa Lucía Utatlán 	7	Santa Rita 	7	Julio	2023-07-29T00:00:00	2024-11-08T12:00:00	8	Radiación solar	304
108241	7	Sololá	704	Santa Lucía Utatlán 	7	Santa Rita 	7	Julio	2023-07-29T00:00:00	2024-11-08T13:00:00	2	Temperatura media	20.4
108242	7	Sololá	704	Santa Lucía Utatlán 	7	Santa Rita 	7	Julio	2023-07-29T00:00:00	2024-11-08T13:00:00	4	Temperatura máxima	20.9
108243	7	Sololá	704	Santa Lucía Utatlán 	7	Santa Rita 	7	Julio	2023-07-29T00:00:00	2024-11-08T13:00:00	3	Temperatura mínima	20.3
108244	7	Sololá	704	Santa Lucía Utatlán 	7	Santa Rita 	7	Julio	2023-07-29T00:00:00	2024-11-08T13:00:00	5	Humedad	91
108245	7	Sololá	704	Santa Lucía Utatlán 	7	Santa Rita 	7	Julio	2023-07-29T00:00:00	2024-11-08T13:00:00	6	Velocidad del viento	8
108246	7	Sololá	704	Santa Lucía Utatlán 	7	Santa Rita 	7	Julio	2023-07-29T00:00:00	2024-11-08T13:00:00	7	Dirección del viento	8.05
108247	7	Sololá	704	Santa Lucía Utatlán 	7	Santa Rita 	7	Julio	2023-07-29T00:00:00	2024-11-08T13:00:00	1	Precipitación	1.8
108248	7	Sololá	704	Santa Lucía Utatlán 	7	Santa Rita 	7	Julio	2023-07-29T00:00:00	2024-11-08T13:00:00	8	Radiación solar	201
108249	7	Sololá	704	Santa Lucía Utatlán 	7	Santa Rita 	7	Julio	2023-07-29T00:00:00	2024-11-08T14:00:00	2	Temperatura media	19.8
108250	7	Sololá	704	Santa Lucía Utatlán 	7	Santa Rita 	7	Julio	2023-07-29T00:00:00	2024-11-08T14:00:00	4	Temperatura máxima	20.5
108251	7	Sololá	704	Santa Lucía Utatlán 	7	Santa Rita 	7	Julio	2023-07-29T00:00:00	2024-11-08T14:00:00	3	Temperatura mínima	19.6
108252	7	Sololá	704	Santa Lucía Utatlán 	7	Santa Rita 	7	Julio	2023-07-29T00:00:00	2024-11-08T14:00:00	5	Humedad	94
108253	7	Sololá	704	Santa Lucía Utatlán 	7	Santa Rita 	7	Julio	2023-07-29T00:00:00	2024-11-08T14:00:00	6	Velocidad del viento	8
108254	7	Sololá	704	Santa Lucía Utatlán 	7	Santa Rita 	7	Julio	2023-07-29T00:00:00	2024-11-08T14:00:00	7	Dirección del viento	8.05
108255	7	Sololá	704	Santa Lucía Utatlán 	7	Santa Rita 	7	Julio	2023-07-29T00:00:00	2024-11-08T14:00:00	1	Precipitación	4.2
108256	7	Sololá	704	Santa Lucía Utatlán 	7	Santa Rita 	7	Julio	2023-07-29T00:00:00	2024-11-08T14:00:00	8	Radiación solar	163
108257	7	Sololá	704	Santa Lucía Utatlán 	7	Santa Rita 	7	Julio	2023-07-29T00:00:00	2024-11-08T15:00:00	2	Temperatura media	21.8
108258	7	Sololá	704	Santa Lucía Utatlán 	7	Santa Rita 	7	Julio	2023-07-29T00:00:00	2024-11-08T15:00:00	4	Temperatura máxima	21.8
108259	7	Sololá	704	Santa Lucía Utatlán 	7	Santa Rita 	7	Julio	2023-07-29T00:00:00	2024-11-08T15:00:00	3	Temperatura mínima	19.8
108260	7	Sololá	704	Santa Lucía Utatlán 	7	Santa Rita 	7	Julio	2023-07-29T00:00:00	2024-11-08T15:00:00	5	Humedad	81
108261	7	Sololá	704	Santa Lucía Utatlán 	7	Santa Rita 	7	Julio	2023-07-29T00:00:00	2024-11-08T15:00:00	6	Velocidad del viento	4.8
108262	7	Sololá	704	Santa Lucía Utatlán 	7	Santa Rita 	7	Julio	2023-07-29T00:00:00	2024-11-08T15:00:00	7	Dirección del viento	4.83
108263	7	Sololá	704	Santa Lucía Utatlán 	7	Santa Rita 	7	Julio	2023-07-29T00:00:00	2024-11-08T15:00:00	1	Precipitación	0.2
108264	7	Sololá	704	Santa Lucía Utatlán 	7	Santa Rita 	7	Julio	2023-07-29T00:00:00	2024-11-08T15:00:00	8	Radiación solar	350
108265	7	Sololá	704	Santa Lucía Utatlán 	7	Santa Rita 	7	Julio	2023-07-29T00:00:00	2024-11-08T16:00:00	2	Temperatura media	22.9
108266	7	Sololá	704	Santa Lucía Utatlán 	7	Santa Rita 	7	Julio	2023-07-29T00:00:00	2024-11-08T16:00:00	4	Temperatura máxima	22.9
108267	7	Sololá	704	Santa Lucía Utatlán 	7	Santa Rita 	7	Julio	2023-07-29T00:00:00	2024-11-08T16:00:00	3	Temperatura mínima	21.4
108268	7	Sololá	704	Santa Lucía Utatlán 	7	Santa Rita 	7	Julio	2023-07-29T00:00:00	2024-11-08T16:00:00	5	Humedad	79
108269	7	Sololá	704	Santa Lucía Utatlán 	7	Santa Rita 	7	Julio	2023-07-29T00:00:00	2024-11-08T16:00:00	6	Velocidad del viento	4.8
108270	7	Sololá	704	Santa Lucía Utatlán 	7	Santa Rita 	7	Julio	2023-07-29T00:00:00	2024-11-08T16:00:00	7	Dirección del viento	4.83
108271	7	Sololá	704	Santa Lucía Utatlán 	7	Santa Rita 	7	Julio	2023-07-29T00:00:00	2024-11-08T16:00:00	1	Precipitación	0
108272	7	Sololá	704	Santa Lucía Utatlán 	7	Santa Rita 	7	Julio	2023-07-29T00:00:00	2024-11-08T16:00:00	8	Radiación solar	371
108273	7	Sololá	704	Santa Lucía Utatlán 	7	Santa Rita 	7	Julio	2023-07-29T00:00:00	2024-11-08T17:00:00	2	Temperatura media	21.9
108274	7	Sololá	704	Santa Lucía Utatlán 	7	Santa Rita 	7	Julio	2023-07-29T00:00:00	2024-11-08T17:00:00	4	Temperatura máxima	23.1
108275	7	Sololá	704	Santa Lucía Utatlán 	7	Santa Rita 	7	Julio	2023-07-29T00:00:00	2024-11-08T17:00:00	3	Temperatura mínima	21.8
108276	7	Sololá	704	Santa Lucía Utatlán 	7	Santa Rita 	7	Julio	2023-07-29T00:00:00	2024-11-08T17:00:00	5	Humedad	83
108277	7	Sololá	704	Santa Lucía Utatlán 	7	Santa Rita 	7	Julio	2023-07-29T00:00:00	2024-11-08T17:00:00	6	Velocidad del viento	4.8
108278	7	Sololá	704	Santa Lucía Utatlán 	7	Santa Rita 	7	Julio	2023-07-29T00:00:00	2024-11-08T17:00:00	7	Dirección del viento	4.83
108279	7	Sololá	704	Santa Lucía Utatlán 	7	Santa Rita 	7	Julio	2023-07-29T00:00:00	2024-11-08T17:00:00	1	Precipitación	0
108280	7	Sololá	704	Santa Lucía Utatlán 	7	Santa Rita 	7	Julio	2023-07-29T00:00:00	2024-11-08T17:00:00	8	Radiación solar	149
108281	7	Sololá	704	Santa Lucía Utatlán 	7	Santa Rita 	7	Julio	2023-07-29T00:00:00	2024-11-08T18:00:00	2	Temperatura media	20.7
108282	7	Sololá	704	Santa Lucía Utatlán 	7	Santa Rita 	7	Julio	2023-07-29T00:00:00	2024-11-08T18:00:00	4	Temperatura máxima	21.9
108283	7	Sololá	704	Santa Lucía Utatlán 	7	Santa Rita 	7	Julio	2023-07-29T00:00:00	2024-11-08T18:00:00	3	Temperatura mínima	20.7
108284	7	Sololá	704	Santa Lucía Utatlán 	7	Santa Rita 	7	Julio	2023-07-29T00:00:00	2024-11-08T18:00:00	5	Humedad	90
108285	7	Sololá	704	Santa Lucía Utatlán 	7	Santa Rita 	7	Julio	2023-07-29T00:00:00	2024-11-08T18:00:00	6	Velocidad del viento	1.6
108286	7	Sololá	704	Santa Lucía Utatlán 	7	Santa Rita 	7	Julio	2023-07-29T00:00:00	2024-11-08T18:00:00	7	Dirección del viento	1.61
108287	7	Sololá	704	Santa Lucía Utatlán 	7	Santa Rita 	7	Julio	2023-07-29T00:00:00	2024-11-08T18:00:00	1	Precipitación	0.4
108288	7	Sololá	704	Santa Lucía Utatlán 	7	Santa Rita 	7	Julio	2023-07-29T00:00:00	2024-11-08T18:00:00	8	Radiación solar	30
108289	7	Sololá	704	Santa Lucía Utatlán 	7	Santa Rita 	7	Julio	2023-07-29T00:00:00	2024-11-08T19:00:00	2	Temperatura media	19.9
108290	7	Sololá	704	Santa Lucía Utatlán 	7	Santa Rita 	7	Julio	2023-07-29T00:00:00	2024-11-08T19:00:00	4	Temperatura máxima	20.7
108291	7	Sololá	704	Santa Lucía Utatlán 	7	Santa Rita 	7	Julio	2023-07-29T00:00:00	2024-11-08T19:00:00	3	Temperatura mínima	19.9
108292	7	Sololá	704	Santa Lucía Utatlán 	7	Santa Rita 	7	Julio	2023-07-29T00:00:00	2024-11-08T19:00:00	5	Humedad	94
108293	7	Sololá	704	Santa Lucía Utatlán 	7	Santa Rita 	7	Julio	2023-07-29T00:00:00	2024-11-08T19:00:00	6	Velocidad del viento	1.6
108294	7	Sololá	704	Santa Lucía Utatlán 	7	Santa Rita 	7	Julio	2023-07-29T00:00:00	2024-11-08T19:00:00	7	Dirección del viento	1.61
108295	7	Sololá	704	Santa Lucía Utatlán 	7	Santa Rita 	7	Julio	2023-07-29T00:00:00	2024-11-08T19:00:00	1	Precipitación	3
108296	7	Sololá	704	Santa Lucía Utatlán 	7	Santa Rita 	7	Julio	2023-07-29T00:00:00	2024-11-08T19:00:00	8	Radiación solar	0
108297	7	Sololá	704	Santa Lucía Utatlán 	7	Santa Rita 	7	Julio	2023-07-29T00:00:00	2024-11-08T20:00:00	2	Temperatura media	20.2
108298	7	Sololá	704	Santa Lucía Utatlán 	7	Santa Rita 	7	Julio	2023-07-29T00:00:00	2024-11-08T20:00:00	4	Temperatura máxima	20.2
108299	7	Sololá	704	Santa Lucía Utatlán 	7	Santa Rita 	7	Julio	2023-07-29T00:00:00	2024-11-08T20:00:00	3	Temperatura mínima	19.7
108300	7	Sololá	704	Santa Lucía Utatlán 	7	Santa Rita 	7	Julio	2023-07-29T00:00:00	2024-11-08T20:00:00	5	Humedad	89
108301	7	Sololá	704	Santa Lucía Utatlán 	7	Santa Rita 	7	Julio	2023-07-29T00:00:00	2024-11-08T20:00:00	6	Velocidad del viento	3.2
108302	7	Sololá	704	Santa Lucía Utatlán 	7	Santa Rita 	7	Julio	2023-07-29T00:00:00	2024-11-08T20:00:00	7	Dirección del viento	3.22
108303	7	Sololá	704	Santa Lucía Utatlán 	7	Santa Rita 	7	Julio	2023-07-29T00:00:00	2024-11-08T20:00:00	1	Precipitación	1.8
108304	7	Sololá	704	Santa Lucía Utatlán 	7	Santa Rita 	7	Julio	2023-07-29T00:00:00	2024-11-08T20:00:00	8	Radiación solar	0
108305	7	Sololá	704	Santa Lucía Utatlán 	7	Santa Rita 	7	Julio	2023-07-29T00:00:00	2024-11-08T21:00:00	2	Temperatura media	18.9
108306	7	Sololá	704	Santa Lucía Utatlán 	7	Santa Rita 	7	Julio	2023-07-29T00:00:00	2024-11-08T21:00:00	4	Temperatura máxima	20.2
108307	7	Sololá	704	Santa Lucía Utatlán 	7	Santa Rita 	7	Julio	2023-07-29T00:00:00	2024-11-08T21:00:00	3	Temperatura mínima	18.8
108308	7	Sololá	704	Santa Lucía Utatlán 	7	Santa Rita 	7	Julio	2023-07-29T00:00:00	2024-11-08T21:00:00	5	Humedad	93
108309	7	Sololá	704	Santa Lucía Utatlán 	7	Santa Rita 	7	Julio	2023-07-29T00:00:00	2024-11-08T21:00:00	6	Velocidad del viento	3.2
108310	7	Sololá	704	Santa Lucía Utatlán 	7	Santa Rita 	7	Julio	2023-07-29T00:00:00	2024-11-08T21:00:00	7	Dirección del viento	3.22
108311	7	Sololá	704	Santa Lucía Utatlán 	7	Santa Rita 	7	Julio	2023-07-29T00:00:00	2024-11-08T21:00:00	1	Precipitación	4.4
108312	7	Sololá	704	Santa Lucía Utatlán 	7	Santa Rita 	7	Julio	2023-07-29T00:00:00	2024-11-08T21:00:00	8	Radiación solar	0
108313	7	Sololá	704	Santa Lucía Utatlán 	7	Santa Rita 	7	Julio	2023-07-29T00:00:00	2024-11-08T22:00:00	2	Temperatura media	18.5
108314	7	Sololá	704	Santa Lucía Utatlán 	7	Santa Rita 	7	Julio	2023-07-29T00:00:00	2024-11-08T22:00:00	4	Temperatura máxima	19
108315	7	Sololá	704	Santa Lucía Utatlán 	7	Santa Rita 	7	Julio	2023-07-29T00:00:00	2024-11-08T22:00:00	3	Temperatura mínima	18.4
108316	7	Sololá	704	Santa Lucía Utatlán 	7	Santa Rita 	7	Julio	2023-07-29T00:00:00	2024-11-08T22:00:00	5	Humedad	92
108317	7	Sololá	704	Santa Lucía Utatlán 	7	Santa Rita 	7	Julio	2023-07-29T00:00:00	2024-11-08T22:00:00	6	Velocidad del viento	3.2
108318	7	Sololá	704	Santa Lucía Utatlán 	7	Santa Rita 	7	Julio	2023-07-29T00:00:00	2024-11-08T22:00:00	7	Dirección del viento	3.22
108319	7	Sololá	704	Santa Lucía Utatlán 	7	Santa Rita 	7	Julio	2023-07-29T00:00:00	2024-11-08T22:00:00	1	Precipitación	3.2
108320	7	Sololá	704	Santa Lucía Utatlán 	7	Santa Rita 	7	Julio	2023-07-29T00:00:00	2024-11-08T22:00:00	8	Radiación solar	0
108321	7	Sololá	704	Santa Lucía Utatlán 	7	Santa Rita 	7	Julio	2023-07-29T00:00:00	2024-11-08T23:00:00	2	Temperatura media	18.4
108322	7	Sololá	704	Santa Lucía Utatlán 	7	Santa Rita 	7	Julio	2023-07-29T00:00:00	2024-11-08T23:00:00	4	Temperatura máxima	19.2
108323	7	Sololá	704	Santa Lucía Utatlán 	7	Santa Rita 	7	Julio	2023-07-29T00:00:00	2024-11-08T23:00:00	3	Temperatura mínima	18.4
108324	7	Sololá	704	Santa Lucía Utatlán 	7	Santa Rita 	7	Julio	2023-07-29T00:00:00	2024-11-08T23:00:00	5	Humedad	92
108325	7	Sololá	704	Santa Lucía Utatlán 	7	Santa Rita 	7	Julio	2023-07-29T00:00:00	2024-11-08T23:00:00	6	Velocidad del viento	4.8
108326	7	Sololá	704	Santa Lucía Utatlán 	7	Santa Rita 	7	Julio	2023-07-29T00:00:00	2024-11-08T23:00:00	7	Dirección del viento	4.83
108327	7	Sololá	704	Santa Lucía Utatlán 	7	Santa Rita 	7	Julio	2023-07-29T00:00:00	2024-11-08T23:00:00	1	Precipitación	0.4
108328	7	Sololá	704	Santa Lucía Utatlán 	7	Santa Rita 	7	Julio	2023-07-29T00:00:00	2024-11-08T23:00:00	8	Radiación solar	0
108329	7	Sololá	704	Santa Lucía Utatlán 	7	Santa Rita 	7	Julio	2023-07-30T00:00:00	2024-11-08T00:00:00	2	Temperatura media	18.2
108330	7	Sololá	704	Santa Lucía Utatlán 	7	Santa Rita 	7	Julio	2023-07-30T00:00:00	2024-11-08T00:00:00	4	Temperatura máxima	19.1
108331	7	Sololá	704	Santa Lucía Utatlán 	7	Santa Rita 	7	Julio	2023-07-30T00:00:00	2024-11-08T00:00:00	3	Temperatura mínima	18.1
108332	7	Sololá	704	Santa Lucía Utatlán 	7	Santa Rita 	7	Julio	2023-07-30T00:00:00	2024-11-08T00:00:00	5	Humedad	94
108333	7	Sololá	704	Santa Lucía Utatlán 	7	Santa Rita 	7	Julio	2023-07-30T00:00:00	2024-11-08T00:00:00	6	Velocidad del viento	3.2
108334	7	Sololá	704	Santa Lucía Utatlán 	7	Santa Rita 	7	Julio	2023-07-30T00:00:00	2024-11-08T00:00:00	7	Dirección del viento	3.22
108335	7	Sololá	704	Santa Lucía Utatlán 	7	Santa Rita 	7	Julio	2023-07-30T00:00:00	2024-11-08T00:00:00	1	Precipitación	0
108336	7	Sololá	704	Santa Lucía Utatlán 	7	Santa Rita 	7	Julio	2023-07-30T00:00:00	2024-11-08T00:00:00	8	Radiación solar	0
108337	7	Sololá	704	Santa Lucía Utatlán 	7	Santa Rita 	7	Julio	2023-07-30T00:00:00	2024-11-08T01:00:00	2	Temperatura media	18.2
108338	7	Sololá	704	Santa Lucía Utatlán 	7	Santa Rita 	7	Julio	2023-07-30T00:00:00	2024-11-08T01:00:00	4	Temperatura máxima	18.2
108339	7	Sololá	704	Santa Lucía Utatlán 	7	Santa Rita 	7	Julio	2023-07-30T00:00:00	2024-11-08T01:00:00	3	Temperatura mínima	18.1
108340	7	Sololá	704	Santa Lucía Utatlán 	7	Santa Rita 	7	Julio	2023-07-30T00:00:00	2024-11-08T01:00:00	5	Humedad	95
108341	7	Sololá	704	Santa Lucía Utatlán 	7	Santa Rita 	7	Julio	2023-07-30T00:00:00	2024-11-08T01:00:00	6	Velocidad del viento	1.6
108342	7	Sololá	704	Santa Lucía Utatlán 	7	Santa Rita 	7	Julio	2023-07-30T00:00:00	2024-11-08T01:00:00	7	Dirección del viento	1.61
108343	7	Sololá	704	Santa Lucía Utatlán 	7	Santa Rita 	7	Julio	2023-07-30T00:00:00	2024-11-08T01:00:00	1	Precipitación	0
108344	7	Sololá	704	Santa Lucía Utatlán 	7	Santa Rita 	7	Julio	2023-07-30T00:00:00	2024-11-08T01:00:00	8	Radiación solar	0
108345	7	Sololá	704	Santa Lucía Utatlán 	7	Santa Rita 	7	Julio	2023-07-30T00:00:00	2024-11-08T02:00:00	2	Temperatura media	17.6
108346	7	Sololá	704	Santa Lucía Utatlán 	7	Santa Rita 	7	Julio	2023-07-30T00:00:00	2024-11-08T02:00:00	4	Temperatura máxima	18.2
108347	7	Sololá	704	Santa Lucía Utatlán 	7	Santa Rita 	7	Julio	2023-07-30T00:00:00	2024-11-08T02:00:00	3	Temperatura mínima	17.6
108348	7	Sololá	704	Santa Lucía Utatlán 	7	Santa Rita 	7	Julio	2023-07-30T00:00:00	2024-11-08T02:00:00	5	Humedad	93
108349	7	Sololá	704	Santa Lucía Utatlán 	7	Santa Rita 	7	Julio	2023-07-30T00:00:00	2024-11-08T02:00:00	6	Velocidad del viento	3.2
108350	7	Sololá	704	Santa Lucía Utatlán 	7	Santa Rita 	7	Julio	2023-07-30T00:00:00	2024-11-08T02:00:00	7	Dirección del viento	3.22
108351	7	Sololá	704	Santa Lucía Utatlán 	7	Santa Rita 	7	Julio	2023-07-30T00:00:00	2024-11-08T02:00:00	1	Precipitación	0
108352	7	Sololá	704	Santa Lucía Utatlán 	7	Santa Rita 	7	Julio	2023-07-30T00:00:00	2024-11-08T02:00:00	8	Radiación solar	0
108353	7	Sololá	704	Santa Lucía Utatlán 	7	Santa Rita 	7	Julio	2023-07-30T00:00:00	2024-11-08T03:00:00	2	Temperatura media	17.3
108354	7	Sololá	704	Santa Lucía Utatlán 	7	Santa Rita 	7	Julio	2023-07-30T00:00:00	2024-11-08T03:00:00	4	Temperatura máxima	17.6
108355	7	Sololá	704	Santa Lucía Utatlán 	7	Santa Rita 	7	Julio	2023-07-30T00:00:00	2024-11-08T03:00:00	3	Temperatura mínima	17
108356	7	Sololá	704	Santa Lucía Utatlán 	7	Santa Rita 	7	Julio	2023-07-30T00:00:00	2024-11-08T03:00:00	5	Humedad	92
108357	7	Sololá	704	Santa Lucía Utatlán 	7	Santa Rita 	7	Julio	2023-07-30T00:00:00	2024-11-08T03:00:00	6	Velocidad del viento	3.2
108358	7	Sololá	704	Santa Lucía Utatlán 	7	Santa Rita 	7	Julio	2023-07-30T00:00:00	2024-11-08T03:00:00	7	Dirección del viento	3.22
108359	7	Sololá	704	Santa Lucía Utatlán 	7	Santa Rita 	7	Julio	2023-07-30T00:00:00	2024-11-08T03:00:00	1	Precipitación	0
108360	7	Sololá	704	Santa Lucía Utatlán 	7	Santa Rita 	7	Julio	2023-07-30T00:00:00	2024-11-08T03:00:00	8	Radiación solar	0
108361	7	Sololá	704	Santa Lucía Utatlán 	7	Santa Rita 	7	Julio	2023-07-30T00:00:00	2024-11-08T04:00:00	2	Temperatura media	17
108362	7	Sololá	704	Santa Lucía Utatlán 	7	Santa Rita 	7	Julio	2023-07-30T00:00:00	2024-11-08T04:00:00	4	Temperatura máxima	17.3
108363	7	Sololá	704	Santa Lucía Utatlán 	7	Santa Rita 	7	Julio	2023-07-30T00:00:00	2024-11-08T04:00:00	3	Temperatura mínima	16.9
108364	7	Sololá	704	Santa Lucía Utatlán 	7	Santa Rita 	7	Julio	2023-07-30T00:00:00	2024-11-08T04:00:00	5	Humedad	92
108365	7	Sololá	704	Santa Lucía Utatlán 	7	Santa Rita 	7	Julio	2023-07-30T00:00:00	2024-11-08T04:00:00	6	Velocidad del viento	3.2
108366	7	Sololá	704	Santa Lucía Utatlán 	7	Santa Rita 	7	Julio	2023-07-30T00:00:00	2024-11-08T04:00:00	7	Dirección del viento	3.22
108367	7	Sololá	704	Santa Lucía Utatlán 	7	Santa Rita 	7	Julio	2023-07-30T00:00:00	2024-11-08T04:00:00	1	Precipitación	0
108368	7	Sololá	704	Santa Lucía Utatlán 	7	Santa Rita 	7	Julio	2023-07-30T00:00:00	2024-11-08T04:00:00	8	Radiación solar	0
108369	7	Sololá	704	Santa Lucía Utatlán 	7	Santa Rita 	7	Julio	2023-07-30T00:00:00	2024-11-08T05:00:00	2	Temperatura media	16.9
108370	7	Sololá	704	Santa Lucía Utatlán 	7	Santa Rita 	7	Julio	2023-07-30T00:00:00	2024-11-08T05:00:00	4	Temperatura máxima	17.3
108371	7	Sololá	704	Santa Lucía Utatlán 	7	Santa Rita 	7	Julio	2023-07-30T00:00:00	2024-11-08T05:00:00	3	Temperatura mínima	16.8
108372	7	Sololá	704	Santa Lucía Utatlán 	7	Santa Rita 	7	Julio	2023-07-30T00:00:00	2024-11-08T05:00:00	5	Humedad	93
108373	7	Sololá	704	Santa Lucía Utatlán 	7	Santa Rita 	7	Julio	2023-07-30T00:00:00	2024-11-08T05:00:00	6	Velocidad del viento	3.2
108374	7	Sololá	704	Santa Lucía Utatlán 	7	Santa Rita 	7	Julio	2023-07-30T00:00:00	2024-11-08T05:00:00	7	Dirección del viento	3.22
108375	7	Sololá	704	Santa Lucía Utatlán 	7	Santa Rita 	7	Julio	2023-07-30T00:00:00	2024-11-08T05:00:00	1	Precipitación	0
108376	7	Sololá	704	Santa Lucía Utatlán 	7	Santa Rita 	7	Julio	2023-07-30T00:00:00	2024-11-08T05:00:00	8	Radiación solar	0
108377	7	Sololá	704	Santa Lucía Utatlán 	7	Santa Rita 	7	Julio	2023-07-30T00:00:00	2024-11-08T06:00:00	2	Temperatura media	16.7
108378	7	Sololá	704	Santa Lucía Utatlán 	7	Santa Rita 	7	Julio	2023-07-30T00:00:00	2024-11-08T06:00:00	4	Temperatura máxima	17
108379	7	Sololá	704	Santa Lucía Utatlán 	7	Santa Rita 	7	Julio	2023-07-30T00:00:00	2024-11-08T06:00:00	3	Temperatura mínima	16.7
108380	7	Sololá	704	Santa Lucía Utatlán 	7	Santa Rita 	7	Julio	2023-07-30T00:00:00	2024-11-08T06:00:00	5	Humedad	94
108381	7	Sololá	704	Santa Lucía Utatlán 	7	Santa Rita 	7	Julio	2023-07-30T00:00:00	2024-11-08T06:00:00	6	Velocidad del viento	3.2
108382	7	Sololá	704	Santa Lucía Utatlán 	7	Santa Rita 	7	Julio	2023-07-30T00:00:00	2024-11-08T06:00:00	7	Dirección del viento	3.22
108383	7	Sololá	704	Santa Lucía Utatlán 	7	Santa Rita 	7	Julio	2023-07-30T00:00:00	2024-11-08T06:00:00	1	Precipitación	0
108384	7	Sololá	704	Santa Lucía Utatlán 	7	Santa Rita 	7	Julio	2023-07-30T00:00:00	2024-11-08T06:00:00	8	Radiación solar	2
108385	7	Sololá	704	Santa Lucía Utatlán 	7	Santa Rita 	7	Julio	2023-07-30T00:00:00	2024-11-08T07:00:00	2	Temperatura media	18
108386	7	Sololá	704	Santa Lucía Utatlán 	7	Santa Rita 	7	Julio	2023-07-30T00:00:00	2024-11-08T07:00:00	4	Temperatura máxima	18
108387	7	Sololá	704	Santa Lucía Utatlán 	7	Santa Rita 	7	Julio	2023-07-30T00:00:00	2024-11-08T07:00:00	3	Temperatura mínima	16.7
108388	7	Sololá	704	Santa Lucía Utatlán 	7	Santa Rita 	7	Julio	2023-07-30T00:00:00	2024-11-08T07:00:00	5	Humedad	92
108389	7	Sololá	704	Santa Lucía Utatlán 	7	Santa Rita 	7	Julio	2023-07-30T00:00:00	2024-11-08T07:00:00	6	Velocidad del viento	3.2
108390	7	Sololá	704	Santa Lucía Utatlán 	7	Santa Rita 	7	Julio	2023-07-30T00:00:00	2024-11-08T07:00:00	7	Dirección del viento	3.22
108391	7	Sololá	704	Santa Lucía Utatlán 	7	Santa Rita 	7	Julio	2023-07-30T00:00:00	2024-11-08T07:00:00	1	Precipitación	0
108392	7	Sololá	704	Santa Lucía Utatlán 	7	Santa Rita 	7	Julio	2023-07-30T00:00:00	2024-11-08T07:00:00	8	Radiación solar	51
108393	7	Sololá	704	Santa Lucía Utatlán 	7	Santa Rita 	7	Julio	2023-07-30T00:00:00	2024-11-08T08:00:00	2	Temperatura media	21.4
108394	7	Sololá	704	Santa Lucía Utatlán 	7	Santa Rita 	7	Julio	2023-07-30T00:00:00	2024-11-08T08:00:00	4	Temperatura máxima	21.4
108395	7	Sololá	704	Santa Lucía Utatlán 	7	Santa Rita 	7	Julio	2023-07-30T00:00:00	2024-11-08T08:00:00	3	Temperatura mínima	18
108396	7	Sololá	704	Santa Lucía Utatlán 	7	Santa Rita 	7	Julio	2023-07-30T00:00:00	2024-11-08T08:00:00	5	Humedad	85
108397	7	Sololá	704	Santa Lucía Utatlán 	7	Santa Rita 	7	Julio	2023-07-30T00:00:00	2024-11-08T08:00:00	6	Velocidad del viento	3.2
108398	7	Sololá	704	Santa Lucía Utatlán 	7	Santa Rita 	7	Julio	2023-07-30T00:00:00	2024-11-08T08:00:00	7	Dirección del viento	3.22
108399	7	Sololá	704	Santa Lucía Utatlán 	7	Santa Rita 	7	Julio	2023-07-30T00:00:00	2024-11-08T08:00:00	1	Precipitación	0
108400	7	Sololá	704	Santa Lucía Utatlán 	7	Santa Rita 	7	Julio	2023-07-30T00:00:00	2024-11-08T08:00:00	8	Radiación solar	348
108401	7	Sololá	704	Santa Lucía Utatlán 	7	Santa Rita 	7	Julio	2023-07-30T00:00:00	2024-11-08T09:00:00	2	Temperatura media	24.4
108402	7	Sololá	704	Santa Lucía Utatlán 	7	Santa Rita 	7	Julio	2023-07-30T00:00:00	2024-11-08T09:00:00	4	Temperatura máxima	24.4
108403	7	Sololá	704	Santa Lucía Utatlán 	7	Santa Rita 	7	Julio	2023-07-30T00:00:00	2024-11-08T09:00:00	3	Temperatura mínima	21.4
108404	7	Sololá	704	Santa Lucía Utatlán 	7	Santa Rita 	7	Julio	2023-07-30T00:00:00	2024-11-08T09:00:00	5	Humedad	69
108405	7	Sololá	704	Santa Lucía Utatlán 	7	Santa Rita 	7	Julio	2023-07-30T00:00:00	2024-11-08T09:00:00	6	Velocidad del viento	3.2
108406	7	Sololá	704	Santa Lucía Utatlán 	7	Santa Rita 	7	Julio	2023-07-30T00:00:00	2024-11-08T09:00:00	7	Dirección del viento	3.22
108407	7	Sololá	704	Santa Lucía Utatlán 	7	Santa Rita 	7	Julio	2023-07-30T00:00:00	2024-11-08T09:00:00	1	Precipitación	0
108408	7	Sololá	704	Santa Lucía Utatlán 	7	Santa Rita 	7	Julio	2023-07-30T00:00:00	2024-11-08T09:00:00	8	Radiación solar	606
108409	7	Sololá	704	Santa Lucía Utatlán 	7	Santa Rita 	7	Julio	2023-07-30T00:00:00	2024-11-08T10:00:00	2	Temperatura media	24.9
108410	7	Sololá	704	Santa Lucía Utatlán 	7	Santa Rita 	7	Julio	2023-07-30T00:00:00	2024-11-08T10:00:00	4	Temperatura máxima	25.1
108411	7	Sololá	704	Santa Lucía Utatlán 	7	Santa Rita 	7	Julio	2023-07-30T00:00:00	2024-11-08T10:00:00	3	Temperatura mínima	24.4
108412	7	Sololá	704	Santa Lucía Utatlán 	7	Santa Rita 	7	Julio	2023-07-30T00:00:00	2024-11-08T10:00:00	5	Humedad	65
108413	7	Sololá	704	Santa Lucía Utatlán 	7	Santa Rita 	7	Julio	2023-07-30T00:00:00	2024-11-08T10:00:00	6	Velocidad del viento	8
108414	7	Sololá	704	Santa Lucía Utatlán 	7	Santa Rita 	7	Julio	2023-07-30T00:00:00	2024-11-08T10:00:00	7	Dirección del viento	8.05
108415	7	Sololá	704	Santa Lucía Utatlán 	7	Santa Rita 	7	Julio	2023-07-30T00:00:00	2024-11-08T10:00:00	1	Precipitación	0
108416	7	Sololá	704	Santa Lucía Utatlán 	7	Santa Rita 	7	Julio	2023-07-30T00:00:00	2024-11-08T10:00:00	8	Radiación solar	805
108417	7	Sololá	704	Santa Lucía Utatlán 	7	Santa Rita 	7	Julio	2023-07-30T00:00:00	2024-11-08T11:00:00	2	Temperatura media	25.2
108418	7	Sololá	704	Santa Lucía Utatlán 	7	Santa Rita 	7	Julio	2023-07-30T00:00:00	2024-11-08T11:00:00	4	Temperatura máxima	25.2
108419	7	Sololá	704	Santa Lucía Utatlán 	7	Santa Rita 	7	Julio	2023-07-30T00:00:00	2024-11-08T11:00:00	3	Temperatura mínima	24.6
108420	7	Sololá	704	Santa Lucía Utatlán 	7	Santa Rita 	7	Julio	2023-07-30T00:00:00	2024-11-08T11:00:00	5	Humedad	67
108421	7	Sololá	704	Santa Lucía Utatlán 	7	Santa Rita 	7	Julio	2023-07-30T00:00:00	2024-11-08T11:00:00	6	Velocidad del viento	9.7
108422	7	Sololá	704	Santa Lucía Utatlán 	7	Santa Rita 	7	Julio	2023-07-30T00:00:00	2024-11-08T11:00:00	7	Dirección del viento	9.66
108423	7	Sololá	704	Santa Lucía Utatlán 	7	Santa Rita 	7	Julio	2023-07-30T00:00:00	2024-11-08T11:00:00	1	Precipitación	0
108424	7	Sololá	704	Santa Lucía Utatlán 	7	Santa Rita 	7	Julio	2023-07-30T00:00:00	2024-11-08T11:00:00	8	Radiación solar	920
108425	7	Sololá	704	Santa Lucía Utatlán 	7	Santa Rita 	7	Julio	2023-07-30T00:00:00	2024-11-08T12:00:00	2	Temperatura media	25.3
108426	7	Sololá	704	Santa Lucía Utatlán 	7	Santa Rita 	7	Julio	2023-07-30T00:00:00	2024-11-08T12:00:00	4	Temperatura máxima	25.4
108427	7	Sololá	704	Santa Lucía Utatlán 	7	Santa Rita 	7	Julio	2023-07-30T00:00:00	2024-11-08T12:00:00	3	Temperatura mínima	25
108428	7	Sololá	704	Santa Lucía Utatlán 	7	Santa Rita 	7	Julio	2023-07-30T00:00:00	2024-11-08T12:00:00	5	Humedad	64
108429	7	Sololá	704	Santa Lucía Utatlán 	7	Santa Rita 	7	Julio	2023-07-30T00:00:00	2024-11-08T12:00:00	6	Velocidad del viento	11.3
108430	7	Sololá	704	Santa Lucía Utatlán 	7	Santa Rita 	7	Julio	2023-07-30T00:00:00	2024-11-08T12:00:00	7	Dirección del viento	11.27
108431	7	Sololá	704	Santa Lucía Utatlán 	7	Santa Rita 	7	Julio	2023-07-30T00:00:00	2024-11-08T12:00:00	1	Precipitación	0
108432	7	Sololá	704	Santa Lucía Utatlán 	7	Santa Rita 	7	Julio	2023-07-30T00:00:00	2024-11-08T12:00:00	8	Radiación solar	1009
108433	7	Sololá	704	Santa Lucía Utatlán 	7	Santa Rita 	7	Julio	2023-07-30T00:00:00	2024-11-08T13:00:00	2	Temperatura media	24.5
108434	7	Sololá	704	Santa Lucía Utatlán 	7	Santa Rita 	7	Julio	2023-07-30T00:00:00	2024-11-08T13:00:00	4	Temperatura máxima	25.7
108435	7	Sololá	704	Santa Lucía Utatlán 	7	Santa Rita 	7	Julio	2023-07-30T00:00:00	2024-11-08T13:00:00	3	Temperatura mínima	24.5
108436	7	Sololá	704	Santa Lucía Utatlán 	7	Santa Rita 	7	Julio	2023-07-30T00:00:00	2024-11-08T13:00:00	5	Humedad	67
108437	7	Sololá	704	Santa Lucía Utatlán 	7	Santa Rita 	7	Julio	2023-07-30T00:00:00	2024-11-08T13:00:00	6	Velocidad del viento	11.3
108438	7	Sololá	704	Santa Lucía Utatlán 	7	Santa Rita 	7	Julio	2023-07-30T00:00:00	2024-11-08T13:00:00	7	Dirección del viento	11.27
108439	7	Sololá	704	Santa Lucía Utatlán 	7	Santa Rita 	7	Julio	2023-07-30T00:00:00	2024-11-08T13:00:00	1	Precipitación	0
108440	7	Sololá	704	Santa Lucía Utatlán 	7	Santa Rita 	7	Julio	2023-07-30T00:00:00	2024-11-08T13:00:00	8	Radiación solar	707
108441	7	Sololá	704	Santa Lucía Utatlán 	7	Santa Rita 	7	Julio	2023-07-30T00:00:00	2024-11-08T14:00:00	2	Temperatura media	21.7
108442	7	Sololá	704	Santa Lucía Utatlán 	7	Santa Rita 	7	Julio	2023-07-30T00:00:00	2024-11-08T14:00:00	4	Temperatura máxima	24.5
108443	7	Sololá	704	Santa Lucía Utatlán 	7	Santa Rita 	7	Julio	2023-07-30T00:00:00	2024-11-08T14:00:00	3	Temperatura mínima	21.3
108444	7	Sololá	704	Santa Lucía Utatlán 	7	Santa Rita 	7	Julio	2023-07-30T00:00:00	2024-11-08T14:00:00	5	Humedad	94
108445	7	Sololá	704	Santa Lucía Utatlán 	7	Santa Rita 	7	Julio	2023-07-30T00:00:00	2024-11-08T14:00:00	6	Velocidad del viento	6.4
108446	7	Sololá	704	Santa Lucía Utatlán 	7	Santa Rita 	7	Julio	2023-07-30T00:00:00	2024-11-08T14:00:00	7	Dirección del viento	6.44
108447	7	Sololá	704	Santa Lucía Utatlán 	7	Santa Rita 	7	Julio	2023-07-30T00:00:00	2024-11-08T14:00:00	1	Precipitación	6.2
108448	7	Sololá	704	Santa Lucía Utatlán 	7	Santa Rita 	7	Julio	2023-07-30T00:00:00	2024-11-08T14:00:00	8	Radiación solar	103
108449	7	Sololá	704	Santa Lucía Utatlán 	7	Santa Rita 	7	Julio	2023-07-30T00:00:00	2024-11-08T15:00:00	2	Temperatura media	24.1
108450	7	Sololá	704	Santa Lucía Utatlán 	7	Santa Rita 	7	Julio	2023-07-30T00:00:00	2024-11-08T15:00:00	4	Temperatura máxima	24.1
108451	7	Sololá	704	Santa Lucía Utatlán 	7	Santa Rita 	7	Julio	2023-07-30T00:00:00	2024-11-08T15:00:00	3	Temperatura mínima	21.7
108452	7	Sololá	704	Santa Lucía Utatlán 	7	Santa Rita 	7	Julio	2023-07-30T00:00:00	2024-11-08T15:00:00	5	Humedad	74
108453	7	Sololá	704	Santa Lucía Utatlán 	7	Santa Rita 	7	Julio	2023-07-30T00:00:00	2024-11-08T15:00:00	6	Velocidad del viento	4.8
108454	7	Sololá	704	Santa Lucía Utatlán 	7	Santa Rita 	7	Julio	2023-07-30T00:00:00	2024-11-08T15:00:00	7	Dirección del viento	4.83
108455	7	Sololá	704	Santa Lucía Utatlán 	7	Santa Rita 	7	Julio	2023-07-30T00:00:00	2024-11-08T15:00:00	1	Precipitación	0
108456	7	Sololá	704	Santa Lucía Utatlán 	7	Santa Rita 	7	Julio	2023-07-30T00:00:00	2024-11-08T15:00:00	8	Radiación solar	376
108457	7	Sololá	704	Santa Lucía Utatlán 	7	Santa Rita 	7	Julio	2023-07-30T00:00:00	2024-11-08T16:00:00	2	Temperatura media	23.7
108458	7	Sololá	704	Santa Lucía Utatlán 	7	Santa Rita 	7	Julio	2023-07-30T00:00:00	2024-11-08T16:00:00	4	Temperatura máxima	24.6
108459	7	Sololá	704	Santa Lucía Utatlán 	7	Santa Rita 	7	Julio	2023-07-30T00:00:00	2024-11-08T16:00:00	3	Temperatura mínima	23.7
108460	7	Sololá	704	Santa Lucía Utatlán 	7	Santa Rita 	7	Julio	2023-07-30T00:00:00	2024-11-08T16:00:00	5	Humedad	80
108461	7	Sololá	704	Santa Lucía Utatlán 	7	Santa Rita 	7	Julio	2023-07-30T00:00:00	2024-11-08T16:00:00	6	Velocidad del viento	6.4
108462	7	Sololá	704	Santa Lucía Utatlán 	7	Santa Rita 	7	Julio	2023-07-30T00:00:00	2024-11-08T16:00:00	7	Dirección del viento	6.44
108463	7	Sololá	704	Santa Lucía Utatlán 	7	Santa Rita 	7	Julio	2023-07-30T00:00:00	2024-11-08T16:00:00	1	Precipitación	0
108464	7	Sololá	704	Santa Lucía Utatlán 	7	Santa Rita 	7	Julio	2023-07-30T00:00:00	2024-11-08T16:00:00	8	Radiación solar	397
108465	7	Sololá	704	Santa Lucía Utatlán 	7	Santa Rita 	7	Julio	2023-07-30T00:00:00	2024-11-08T17:00:00	2	Temperatura media	24.2
108466	7	Sololá	704	Santa Lucía Utatlán 	7	Santa Rita 	7	Julio	2023-07-30T00:00:00	2024-11-08T17:00:00	4	Temperatura máxima	24.3
108467	7	Sololá	704	Santa Lucía Utatlán 	7	Santa Rita 	7	Julio	2023-07-30T00:00:00	2024-11-08T17:00:00	3	Temperatura mínima	23.2
108468	7	Sololá	704	Santa Lucía Utatlán 	7	Santa Rita 	7	Julio	2023-07-30T00:00:00	2024-11-08T17:00:00	5	Humedad	73
108469	7	Sololá	704	Santa Lucía Utatlán 	7	Santa Rita 	7	Julio	2023-07-30T00:00:00	2024-11-08T17:00:00	6	Velocidad del viento	4.8
108470	7	Sololá	704	Santa Lucía Utatlán 	7	Santa Rita 	7	Julio	2023-07-30T00:00:00	2024-11-08T17:00:00	7	Dirección del viento	4.83
108471	7	Sololá	704	Santa Lucía Utatlán 	7	Santa Rita 	7	Julio	2023-07-30T00:00:00	2024-11-08T17:00:00	1	Precipitación	0
108472	7	Sololá	704	Santa Lucía Utatlán 	7	Santa Rita 	7	Julio	2023-07-30T00:00:00	2024-11-08T17:00:00	8	Radiación solar	296
108473	7	Sololá	704	Santa Lucía Utatlán 	7	Santa Rita 	7	Julio	2023-07-30T00:00:00	2024-11-08T18:00:00	2	Temperatura media	22.9
108474	7	Sololá	704	Santa Lucía Utatlán 	7	Santa Rita 	7	Julio	2023-07-30T00:00:00	2024-11-08T18:00:00	4	Temperatura máxima	24.2
108475	7	Sololá	704	Santa Lucía Utatlán 	7	Santa Rita 	7	Julio	2023-07-30T00:00:00	2024-11-08T18:00:00	3	Temperatura mínima	22.9
108476	7	Sololá	704	Santa Lucía Utatlán 	7	Santa Rita 	7	Julio	2023-07-30T00:00:00	2024-11-08T18:00:00	5	Humedad	72
108477	7	Sololá	704	Santa Lucía Utatlán 	7	Santa Rita 	7	Julio	2023-07-30T00:00:00	2024-11-08T18:00:00	6	Velocidad del viento	4.8
108478	7	Sololá	704	Santa Lucía Utatlán 	7	Santa Rita 	7	Julio	2023-07-30T00:00:00	2024-11-08T18:00:00	7	Dirección del viento	4.83
108479	7	Sololá	704	Santa Lucía Utatlán 	7	Santa Rita 	7	Julio	2023-07-30T00:00:00	2024-11-08T18:00:00	1	Precipitación	0
108480	7	Sololá	704	Santa Lucía Utatlán 	7	Santa Rita 	7	Julio	2023-07-30T00:00:00	2024-11-08T18:00:00	8	Radiación solar	121
108481	7	Sololá	704	Santa Lucía Utatlán 	7	Santa Rita 	7	Julio	2023-07-30T00:00:00	2024-11-08T19:00:00	2	Temperatura media	20.1
108482	7	Sololá	704	Santa Lucía Utatlán 	7	Santa Rita 	7	Julio	2023-07-30T00:00:00	2024-11-08T19:00:00	4	Temperatura máxima	22.9
108483	7	Sololá	704	Santa Lucía Utatlán 	7	Santa Rita 	7	Julio	2023-07-30T00:00:00	2024-11-08T19:00:00	3	Temperatura mínima	20
108484	7	Sololá	704	Santa Lucía Utatlán 	7	Santa Rita 	7	Julio	2023-07-30T00:00:00	2024-11-08T19:00:00	5	Humedad	88
108485	7	Sololá	704	Santa Lucía Utatlán 	7	Santa Rita 	7	Julio	2023-07-30T00:00:00	2024-11-08T19:00:00	6	Velocidad del viento	4.8
108486	7	Sololá	704	Santa Lucía Utatlán 	7	Santa Rita 	7	Julio	2023-07-30T00:00:00	2024-11-08T19:00:00	7	Dirección del viento	4.83
108487	7	Sololá	704	Santa Lucía Utatlán 	7	Santa Rita 	7	Julio	2023-07-30T00:00:00	2024-11-08T19:00:00	1	Precipitación	0
108488	7	Sololá	704	Santa Lucía Utatlán 	7	Santa Rita 	7	Julio	2023-07-30T00:00:00	2024-11-08T19:00:00	8	Radiación solar	0
108489	7	Sololá	704	Santa Lucía Utatlán 	7	Santa Rita 	7	Julio	2023-07-30T00:00:00	2024-11-08T20:00:00	2	Temperatura media	19.7
108490	7	Sololá	704	Santa Lucía Utatlán 	7	Santa Rita 	7	Julio	2023-07-30T00:00:00	2024-11-08T20:00:00	4	Temperatura máxima	20.1
108491	7	Sololá	704	Santa Lucía Utatlán 	7	Santa Rita 	7	Julio	2023-07-30T00:00:00	2024-11-08T20:00:00	3	Temperatura mínima	19.6
108492	7	Sololá	704	Santa Lucía Utatlán 	7	Santa Rita 	7	Julio	2023-07-30T00:00:00	2024-11-08T20:00:00	5	Humedad	91
108493	7	Sololá	704	Santa Lucía Utatlán 	7	Santa Rita 	7	Julio	2023-07-30T00:00:00	2024-11-08T20:00:00	6	Velocidad del viento	3.2
108494	7	Sololá	704	Santa Lucía Utatlán 	7	Santa Rita 	7	Julio	2023-07-30T00:00:00	2024-11-08T20:00:00	7	Dirección del viento	3.22
108495	7	Sololá	704	Santa Lucía Utatlán 	7	Santa Rita 	7	Julio	2023-07-30T00:00:00	2024-11-08T20:00:00	1	Precipitación	0
108496	7	Sololá	704	Santa Lucía Utatlán 	7	Santa Rita 	7	Julio	2023-07-30T00:00:00	2024-11-08T20:00:00	8	Radiación solar	0
108497	7	Sololá	704	Santa Lucía Utatlán 	7	Santa Rita 	7	Julio	2023-07-30T00:00:00	2024-11-08T21:00:00	2	Temperatura media	19.7
108498	7	Sololá	704	Santa Lucía Utatlán 	7	Santa Rita 	7	Julio	2023-07-30T00:00:00	2024-11-08T21:00:00	4	Temperatura máxima	19.8
108499	7	Sololá	704	Santa Lucía Utatlán 	7	Santa Rita 	7	Julio	2023-07-30T00:00:00	2024-11-08T21:00:00	3	Temperatura mínima	19.6
108500	7	Sololá	704	Santa Lucía Utatlán 	7	Santa Rita 	7	Julio	2023-07-30T00:00:00	2024-11-08T21:00:00	5	Humedad	92
108501	7	Sololá	704	Santa Lucía Utatlán 	7	Santa Rita 	7	Julio	2023-07-30T00:00:00	2024-11-08T21:00:00	6	Velocidad del viento	1.6
108502	7	Sololá	704	Santa Lucía Utatlán 	7	Santa Rita 	7	Julio	2023-07-30T00:00:00	2024-11-08T21:00:00	7	Dirección del viento	1.61
108503	7	Sololá	704	Santa Lucía Utatlán 	7	Santa Rita 	7	Julio	2023-07-30T00:00:00	2024-11-08T21:00:00	1	Precipitación	0.2
108504	7	Sololá	704	Santa Lucía Utatlán 	7	Santa Rita 	7	Julio	2023-07-30T00:00:00	2024-11-08T21:00:00	8	Radiación solar	0
108505	7	Sololá	704	Santa Lucía Utatlán 	7	Santa Rita 	7	Julio	2023-07-30T00:00:00	2024-11-08T22:00:00	2	Temperatura media	19.4
108506	7	Sololá	704	Santa Lucía Utatlán 	7	Santa Rita 	7	Julio	2023-07-30T00:00:00	2024-11-08T22:00:00	4	Temperatura máxima	19.8
108507	7	Sololá	704	Santa Lucía Utatlán 	7	Santa Rita 	7	Julio	2023-07-30T00:00:00	2024-11-08T22:00:00	3	Temperatura mínima	19.4
108508	7	Sololá	704	Santa Lucía Utatlán 	7	Santa Rita 	7	Julio	2023-07-30T00:00:00	2024-11-08T22:00:00	5	Humedad	95
108509	7	Sololá	704	Santa Lucía Utatlán 	7	Santa Rita 	7	Julio	2023-07-30T00:00:00	2024-11-08T22:00:00	6	Velocidad del viento	1.6
108510	7	Sololá	704	Santa Lucía Utatlán 	7	Santa Rita 	7	Julio	2023-07-30T00:00:00	2024-11-08T22:00:00	7	Dirección del viento	1.61
108511	7	Sololá	704	Santa Lucía Utatlán 	7	Santa Rita 	7	Julio	2023-07-30T00:00:00	2024-11-08T22:00:00	1	Precipitación	0.2
108512	7	Sololá	704	Santa Lucía Utatlán 	7	Santa Rita 	7	Julio	2023-07-30T00:00:00	2024-11-08T22:00:00	8	Radiación solar	0
108513	7	Sololá	704	Santa Lucía Utatlán 	7	Santa Rita 	7	Julio	2023-07-30T00:00:00	2024-11-08T23:00:00	2	Temperatura media	19.1
108514	7	Sololá	704	Santa Lucía Utatlán 	7	Santa Rita 	7	Julio	2023-07-30T00:00:00	2024-11-08T23:00:00	4	Temperatura máxima	19.4
108515	7	Sololá	704	Santa Lucía Utatlán 	7	Santa Rita 	7	Julio	2023-07-30T00:00:00	2024-11-08T23:00:00	3	Temperatura mínima	19.1
108516	7	Sololá	704	Santa Lucía Utatlán 	7	Santa Rita 	7	Julio	2023-07-30T00:00:00	2024-11-08T23:00:00	5	Humedad	94
108517	7	Sololá	704	Santa Lucía Utatlán 	7	Santa Rita 	7	Julio	2023-07-30T00:00:00	2024-11-08T23:00:00	6	Velocidad del viento	1.6
108518	7	Sololá	704	Santa Lucía Utatlán 	7	Santa Rita 	7	Julio	2023-07-30T00:00:00	2024-11-08T23:00:00	7	Dirección del viento	1.61
108519	7	Sololá	704	Santa Lucía Utatlán 	7	Santa Rita 	7	Julio	2023-07-30T00:00:00	2024-11-08T23:00:00	1	Precipitación	0
108520	7	Sololá	704	Santa Lucía Utatlán 	7	Santa Rita 	7	Julio	2023-07-30T00:00:00	2024-11-08T23:00:00	8	Radiación solar	0
108521	7	Sololá	704	Santa Lucía Utatlán 	7	Santa Rita 	7	Julio	2023-07-31T00:00:00	2024-11-08T00:00:00	2	Temperatura media	18.9
108522	7	Sololá	704	Santa Lucía Utatlán 	7	Santa Rita 	7	Julio	2023-07-31T00:00:00	2024-11-08T00:00:00	4	Temperatura máxima	19.2
108523	7	Sololá	704	Santa Lucía Utatlán 	7	Santa Rita 	7	Julio	2023-07-31T00:00:00	2024-11-08T00:00:00	3	Temperatura mínima	18.9
108524	7	Sololá	704	Santa Lucía Utatlán 	7	Santa Rita 	7	Julio	2023-07-31T00:00:00	2024-11-08T00:00:00	5	Humedad	94
108525	7	Sololá	704	Santa Lucía Utatlán 	7	Santa Rita 	7	Julio	2023-07-31T00:00:00	2024-11-08T00:00:00	6	Velocidad del viento	1.6
108526	7	Sololá	704	Santa Lucía Utatlán 	7	Santa Rita 	7	Julio	2023-07-31T00:00:00	2024-11-08T00:00:00	7	Dirección del viento	1.61
108527	7	Sololá	704	Santa Lucía Utatlán 	7	Santa Rita 	7	Julio	2023-07-31T00:00:00	2024-11-08T00:00:00	1	Precipitación	0.6
108528	7	Sololá	704	Santa Lucía Utatlán 	7	Santa Rita 	7	Julio	2023-07-31T00:00:00	2024-11-08T00:00:00	8	Radiación solar	0
108529	7	Sololá	704	Santa Lucía Utatlán 	7	Santa Rita 	7	Julio	2023-07-31T00:00:00	2024-11-08T01:00:00	2	Temperatura media	18.2
108530	7	Sololá	704	Santa Lucía Utatlán 	7	Santa Rita 	7	Julio	2023-07-31T00:00:00	2024-11-08T01:00:00	4	Temperatura máxima	18.9
108531	7	Sololá	704	Santa Lucía Utatlán 	7	Santa Rita 	7	Julio	2023-07-31T00:00:00	2024-11-08T01:00:00	3	Temperatura mínima	18.1
108532	7	Sololá	704	Santa Lucía Utatlán 	7	Santa Rita 	7	Julio	2023-07-31T00:00:00	2024-11-08T01:00:00	5	Humedad	94
108533	7	Sololá	704	Santa Lucía Utatlán 	7	Santa Rita 	7	Julio	2023-07-31T00:00:00	2024-11-08T01:00:00	6	Velocidad del viento	3.2
108534	7	Sololá	704	Santa Lucía Utatlán 	7	Santa Rita 	7	Julio	2023-07-31T00:00:00	2024-11-08T01:00:00	7	Dirección del viento	3.22
108535	7	Sololá	704	Santa Lucía Utatlán 	7	Santa Rita 	7	Julio	2023-07-31T00:00:00	2024-11-08T01:00:00	1	Precipitación	0
108536	7	Sololá	704	Santa Lucía Utatlán 	7	Santa Rita 	7	Julio	2023-07-31T00:00:00	2024-11-08T01:00:00	8	Radiación solar	0
108537	7	Sololá	704	Santa Lucía Utatlán 	7	Santa Rita 	7	Julio	2023-07-31T00:00:00	2024-11-08T02:00:00	2	Temperatura media	18.1
108538	7	Sololá	704	Santa Lucía Utatlán 	7	Santa Rita 	7	Julio	2023-07-31T00:00:00	2024-11-08T02:00:00	4	Temperatura máxima	18.3
108539	7	Sololá	704	Santa Lucía Utatlán 	7	Santa Rita 	7	Julio	2023-07-31T00:00:00	2024-11-08T02:00:00	3	Temperatura mínima	17.9
108540	7	Sololá	704	Santa Lucía Utatlán 	7	Santa Rita 	7	Julio	2023-07-31T00:00:00	2024-11-08T02:00:00	5	Humedad	93
108541	7	Sololá	704	Santa Lucía Utatlán 	7	Santa Rita 	7	Julio	2023-07-31T00:00:00	2024-11-08T02:00:00	6	Velocidad del viento	4.8
108542	7	Sololá	704	Santa Lucía Utatlán 	7	Santa Rita 	7	Julio	2023-07-31T00:00:00	2024-11-08T02:00:00	7	Dirección del viento	4.83
108543	7	Sololá	704	Santa Lucía Utatlán 	7	Santa Rita 	7	Julio	2023-07-31T00:00:00	2024-11-08T02:00:00	1	Precipitación	3.8
108544	7	Sololá	704	Santa Lucía Utatlán 	7	Santa Rita 	7	Julio	2023-07-31T00:00:00	2024-11-08T02:00:00	8	Radiación solar	0
108545	7	Sololá	704	Santa Lucía Utatlán 	7	Santa Rita 	7	Julio	2023-07-31T00:00:00	2024-11-08T03:00:00	2	Temperatura media	18.2
108546	7	Sololá	704	Santa Lucía Utatlán 	7	Santa Rita 	7	Julio	2023-07-31T00:00:00	2024-11-08T03:00:00	4	Temperatura máxima	18.2
108547	7	Sololá	704	Santa Lucía Utatlán 	7	Santa Rita 	7	Julio	2023-07-31T00:00:00	2024-11-08T03:00:00	3	Temperatura mínima	17.6
108548	7	Sololá	704	Santa Lucía Utatlán 	7	Santa Rita 	7	Julio	2023-07-31T00:00:00	2024-11-08T03:00:00	5	Humedad	90
108549	7	Sololá	704	Santa Lucía Utatlán 	7	Santa Rita 	7	Julio	2023-07-31T00:00:00	2024-11-08T03:00:00	6	Velocidad del viento	4.8
108550	7	Sololá	704	Santa Lucía Utatlán 	7	Santa Rita 	7	Julio	2023-07-31T00:00:00	2024-11-08T03:00:00	7	Dirección del viento	4.83
108551	7	Sololá	704	Santa Lucía Utatlán 	7	Santa Rita 	7	Julio	2023-07-31T00:00:00	2024-11-08T03:00:00	1	Precipitación	2.2
108552	7	Sololá	704	Santa Lucía Utatlán 	7	Santa Rita 	7	Julio	2023-07-31T00:00:00	2024-11-08T03:00:00	8	Radiación solar	0
108553	7	Sololá	704	Santa Lucía Utatlán 	7	Santa Rita 	7	Julio	2023-07-31T00:00:00	2024-11-08T04:00:00	2	Temperatura media	19.4
108554	7	Sololá	704	Santa Lucía Utatlán 	7	Santa Rita 	7	Julio	2023-07-31T00:00:00	2024-11-08T04:00:00	4	Temperatura máxima	19.4
108555	7	Sololá	704	Santa Lucía Utatlán 	7	Santa Rita 	7	Julio	2023-07-31T00:00:00	2024-11-08T04:00:00	3	Temperatura mínima	18.2
108556	7	Sololá	704	Santa Lucía Utatlán 	7	Santa Rita 	7	Julio	2023-07-31T00:00:00	2024-11-08T04:00:00	5	Humedad	81
108557	7	Sololá	704	Santa Lucía Utatlán 	7	Santa Rita 	7	Julio	2023-07-31T00:00:00	2024-11-08T04:00:00	6	Velocidad del viento	6.4
108558	7	Sololá	704	Santa Lucía Utatlán 	7	Santa Rita 	7	Julio	2023-07-31T00:00:00	2024-11-08T04:00:00	7	Dirección del viento	6.44
108559	7	Sololá	704	Santa Lucía Utatlán 	7	Santa Rita 	7	Julio	2023-07-31T00:00:00	2024-11-08T04:00:00	1	Precipitación	0
108560	7	Sololá	704	Santa Lucía Utatlán 	7	Santa Rita 	7	Julio	2023-07-31T00:00:00	2024-11-08T04:00:00	8	Radiación solar	0
108561	7	Sololá	704	Santa Lucía Utatlán 	7	Santa Rita 	7	Julio	2023-07-31T00:00:00	2024-11-08T05:00:00	2	Temperatura media	17.8
108562	7	Sololá	704	Santa Lucía Utatlán 	7	Santa Rita 	7	Julio	2023-07-31T00:00:00	2024-11-08T05:00:00	4	Temperatura máxima	19.5
108563	7	Sololá	704	Santa Lucía Utatlán 	7	Santa Rita 	7	Julio	2023-07-31T00:00:00	2024-11-08T05:00:00	3	Temperatura mínima	17.6
108564	7	Sololá	704	Santa Lucía Utatlán 	7	Santa Rita 	7	Julio	2023-07-31T00:00:00	2024-11-08T05:00:00	5	Humedad	88
108565	7	Sololá	704	Santa Lucía Utatlán 	7	Santa Rita 	7	Julio	2023-07-31T00:00:00	2024-11-08T05:00:00	6	Velocidad del viento	4.8
108566	7	Sololá	704	Santa Lucía Utatlán 	7	Santa Rita 	7	Julio	2023-07-31T00:00:00	2024-11-08T05:00:00	7	Dirección del viento	4.83
108567	7	Sololá	704	Santa Lucía Utatlán 	7	Santa Rita 	7	Julio	2023-07-31T00:00:00	2024-11-08T05:00:00	1	Precipitación	0
108568	7	Sololá	704	Santa Lucía Utatlán 	7	Santa Rita 	7	Julio	2023-07-31T00:00:00	2024-11-08T05:00:00	8	Radiación solar	0
108569	7	Sololá	704	Santa Lucía Utatlán 	7	Santa Rita 	7	Julio	2023-07-31T00:00:00	2024-11-08T06:00:00	2	Temperatura media	18.1
108570	7	Sololá	704	Santa Lucía Utatlán 	7	Santa Rita 	7	Julio	2023-07-31T00:00:00	2024-11-08T06:00:00	4	Temperatura máxima	18.1
108571	7	Sololá	704	Santa Lucía Utatlán 	7	Santa Rita 	7	Julio	2023-07-31T00:00:00	2024-11-08T06:00:00	3	Temperatura mínima	17.4
108572	7	Sololá	704	Santa Lucía Utatlán 	7	Santa Rita 	7	Julio	2023-07-31T00:00:00	2024-11-08T06:00:00	5	Humedad	87
108573	7	Sololá	704	Santa Lucía Utatlán 	7	Santa Rita 	7	Julio	2023-07-31T00:00:00	2024-11-08T06:00:00	6	Velocidad del viento	3.2
108574	7	Sololá	704	Santa Lucía Utatlán 	7	Santa Rita 	7	Julio	2023-07-31T00:00:00	2024-11-08T06:00:00	7	Dirección del viento	3.22
108575	7	Sololá	704	Santa Lucía Utatlán 	7	Santa Rita 	7	Julio	2023-07-31T00:00:00	2024-11-08T06:00:00	1	Precipitación	0
108576	7	Sololá	704	Santa Lucía Utatlán 	7	Santa Rita 	7	Julio	2023-07-31T00:00:00	2024-11-08T06:00:00	8	Radiación solar	2
108577	7	Sololá	704	Santa Lucía Utatlán 	7	Santa Rita 	7	Julio	2023-07-31T00:00:00	2024-11-08T07:00:00	2	Temperatura media	18.8
108578	7	Sololá	704	Santa Lucía Utatlán 	7	Santa Rita 	7	Julio	2023-07-31T00:00:00	2024-11-08T07:00:00	4	Temperatura máxima	18.8
108579	7	Sololá	704	Santa Lucía Utatlán 	7	Santa Rita 	7	Julio	2023-07-31T00:00:00	2024-11-08T07:00:00	3	Temperatura mínima	17.8
108580	7	Sololá	704	Santa Lucía Utatlán 	7	Santa Rita 	7	Julio	2023-07-31T00:00:00	2024-11-08T07:00:00	5	Humedad	87
108581	7	Sololá	704	Santa Lucía Utatlán 	7	Santa Rita 	7	Julio	2023-07-31T00:00:00	2024-11-08T07:00:00	6	Velocidad del viento	1.6
108582	7	Sololá	704	Santa Lucía Utatlán 	7	Santa Rita 	7	Julio	2023-07-31T00:00:00	2024-11-08T07:00:00	7	Dirección del viento	1.61
108583	7	Sololá	704	Santa Lucía Utatlán 	7	Santa Rita 	7	Julio	2023-07-31T00:00:00	2024-11-08T07:00:00	1	Precipitación	0
108584	7	Sololá	704	Santa Lucía Utatlán 	7	Santa Rita 	7	Julio	2023-07-31T00:00:00	2024-11-08T07:00:00	8	Radiación solar	67
108585	7	Sololá	704	Santa Lucía Utatlán 	7	Santa Rita 	7	Julio	2023-07-31T00:00:00	2024-11-08T08:00:00	2	Temperatura media	21.9
108586	7	Sololá	704	Santa Lucía Utatlán 	7	Santa Rita 	7	Julio	2023-07-31T00:00:00	2024-11-08T08:00:00	4	Temperatura máxima	21.9
108587	7	Sololá	704	Santa Lucía Utatlán 	7	Santa Rita 	7	Julio	2023-07-31T00:00:00	2024-11-08T08:00:00	3	Temperatura mínima	18.8
108588	7	Sololá	704	Santa Lucía Utatlán 	7	Santa Rita 	7	Julio	2023-07-31T00:00:00	2024-11-08T08:00:00	5	Humedad	83
108589	7	Sololá	704	Santa Lucía Utatlán 	7	Santa Rita 	7	Julio	2023-07-31T00:00:00	2024-11-08T08:00:00	6	Velocidad del viento	3.2
108590	7	Sololá	704	Santa Lucía Utatlán 	7	Santa Rita 	7	Julio	2023-07-31T00:00:00	2024-11-08T08:00:00	7	Dirección del viento	3.22
108591	7	Sololá	704	Santa Lucía Utatlán 	7	Santa Rita 	7	Julio	2023-07-31T00:00:00	2024-11-08T08:00:00	1	Precipitación	0
108592	7	Sololá	704	Santa Lucía Utatlán 	7	Santa Rita 	7	Julio	2023-07-31T00:00:00	2024-11-08T08:00:00	8	Radiación solar	333
108593	7	Sololá	704	Santa Lucía Utatlán 	7	Santa Rita 	7	Julio	2023-07-31T00:00:00	2024-11-08T09:00:00	2	Temperatura media	25.2
108594	7	Sololá	704	Santa Lucía Utatlán 	7	Santa Rita 	7	Julio	2023-07-31T00:00:00	2024-11-08T09:00:00	4	Temperatura máxima	25.2
108595	7	Sololá	704	Santa Lucía Utatlán 	7	Santa Rita 	7	Julio	2023-07-31T00:00:00	2024-11-08T09:00:00	3	Temperatura mínima	21.9
108596	7	Sololá	704	Santa Lucía Utatlán 	7	Santa Rita 	7	Julio	2023-07-31T00:00:00	2024-11-08T09:00:00	5	Humedad	61
108597	7	Sololá	704	Santa Lucía Utatlán 	7	Santa Rita 	7	Julio	2023-07-31T00:00:00	2024-11-08T09:00:00	6	Velocidad del viento	1.6
108598	7	Sololá	704	Santa Lucía Utatlán 	7	Santa Rita 	7	Julio	2023-07-31T00:00:00	2024-11-08T09:00:00	7	Dirección del viento	1.61
108599	7	Sololá	704	Santa Lucía Utatlán 	7	Santa Rita 	7	Julio	2023-07-31T00:00:00	2024-11-08T09:00:00	1	Precipitación	0
108600	7	Sololá	704	Santa Lucía Utatlán 	7	Santa Rita 	7	Julio	2023-07-31T00:00:00	2024-11-08T09:00:00	8	Radiación solar	606
108601	7	Sololá	704	Santa Lucía Utatlán 	7	Santa Rita 	7	Julio	2023-07-31T00:00:00	2024-11-08T10:00:00	2	Temperatura media	26.8
108602	7	Sololá	704	Santa Lucía Utatlán 	7	Santa Rita 	7	Julio	2023-07-31T00:00:00	2024-11-08T10:00:00	4	Temperatura máxima	26.8
108603	7	Sololá	704	Santa Lucía Utatlán 	7	Santa Rita 	7	Julio	2023-07-31T00:00:00	2024-11-08T10:00:00	3	Temperatura mínima	25.2
108604	7	Sololá	704	Santa Lucía Utatlán 	7	Santa Rita 	7	Julio	2023-07-31T00:00:00	2024-11-08T10:00:00	5	Humedad	47
108605	7	Sololá	704	Santa Lucía Utatlán 	7	Santa Rita 	7	Julio	2023-07-31T00:00:00	2024-11-08T10:00:00	6	Velocidad del viento	4.8
108606	7	Sololá	704	Santa Lucía Utatlán 	7	Santa Rita 	7	Julio	2023-07-31T00:00:00	2024-11-08T10:00:00	7	Dirección del viento	4.83
108607	7	Sololá	704	Santa Lucía Utatlán 	7	Santa Rita 	7	Julio	2023-07-31T00:00:00	2024-11-08T10:00:00	1	Precipitación	0
108608	7	Sololá	704	Santa Lucía Utatlán 	7	Santa Rita 	7	Julio	2023-07-31T00:00:00	2024-11-08T10:00:00	8	Radiación solar	838
108609	7	Sololá	704	Santa Lucía Utatlán 	7	Santa Rita 	7	Julio	2023-07-31T00:00:00	2024-11-08T11:00:00	2	Temperatura media	27.1
108610	7	Sololá	704	Santa Lucía Utatlán 	7	Santa Rita 	7	Julio	2023-07-31T00:00:00	2024-11-08T11:00:00	4	Temperatura máxima	27.1
108611	7	Sololá	704	Santa Lucía Utatlán 	7	Santa Rita 	7	Julio	2023-07-31T00:00:00	2024-11-08T11:00:00	3	Temperatura mínima	26.2
108612	7	Sololá	704	Santa Lucía Utatlán 	7	Santa Rita 	7	Julio	2023-07-31T00:00:00	2024-11-08T11:00:00	5	Humedad	46
108613	7	Sololá	704	Santa Lucía Utatlán 	7	Santa Rita 	7	Julio	2023-07-31T00:00:00	2024-11-08T11:00:00	6	Velocidad del viento	6.4
108614	7	Sololá	704	Santa Lucía Utatlán 	7	Santa Rita 	7	Julio	2023-07-31T00:00:00	2024-11-08T11:00:00	7	Dirección del viento	6.44
108615	7	Sololá	704	Santa Lucía Utatlán 	7	Santa Rita 	7	Julio	2023-07-31T00:00:00	2024-11-08T11:00:00	1	Precipitación	0
108616	7	Sololá	704	Santa Lucía Utatlán 	7	Santa Rita 	7	Julio	2023-07-31T00:00:00	2024-11-08T11:00:00	8	Radiación solar	779
108617	7	Sololá	704	Santa Lucía Utatlán 	7	Santa Rita 	7	Julio	2023-07-31T00:00:00	2024-11-08T12:00:00	2	Temperatura media	26.1
108618	7	Sololá	704	Santa Lucía Utatlán 	7	Santa Rita 	7	Julio	2023-07-31T00:00:00	2024-11-08T12:00:00	4	Temperatura máxima	27.2
108619	7	Sololá	704	Santa Lucía Utatlán 	7	Santa Rita 	7	Julio	2023-07-31T00:00:00	2024-11-08T12:00:00	3	Temperatura mínima	25.9
108620	7	Sololá	704	Santa Lucía Utatlán 	7	Santa Rita 	7	Julio	2023-07-31T00:00:00	2024-11-08T12:00:00	5	Humedad	57
108621	7	Sololá	704	Santa Lucía Utatlán 	7	Santa Rita 	7	Julio	2023-07-31T00:00:00	2024-11-08T12:00:00	6	Velocidad del viento	11.3
108622	7	Sololá	704	Santa Lucía Utatlán 	7	Santa Rita 	7	Julio	2023-07-31T00:00:00	2024-11-08T12:00:00	7	Dirección del viento	11.27
108623	7	Sololá	704	Santa Lucía Utatlán 	7	Santa Rita 	7	Julio	2023-07-31T00:00:00	2024-11-08T12:00:00	1	Precipitación	0
108624	7	Sololá	704	Santa Lucía Utatlán 	7	Santa Rita 	7	Julio	2023-07-31T00:00:00	2024-11-08T12:00:00	8	Radiación solar	658
108625	7	Sololá	704	Santa Lucía Utatlán 	7	Santa Rita 	7	Julio	2023-07-31T00:00:00	2024-11-08T13:00:00	2	Temperatura media	26.9
108626	7	Sololá	704	Santa Lucía Utatlán 	7	Santa Rita 	7	Julio	2023-07-31T00:00:00	2024-11-08T13:00:00	4	Temperatura máxima	27
108627	7	Sololá	704	Santa Lucía Utatlán 	7	Santa Rita 	7	Julio	2023-07-31T00:00:00	2024-11-08T13:00:00	3	Temperatura mínima	25.9
108628	7	Sololá	704	Santa Lucía Utatlán 	7	Santa Rita 	7	Julio	2023-07-31T00:00:00	2024-11-08T13:00:00	5	Humedad	53
108629	7	Sololá	704	Santa Lucía Utatlán 	7	Santa Rita 	7	Julio	2023-07-31T00:00:00	2024-11-08T13:00:00	6	Velocidad del viento	8
108630	7	Sololá	704	Santa Lucía Utatlán 	7	Santa Rita 	7	Julio	2023-07-31T00:00:00	2024-11-08T13:00:00	7	Dirección del viento	8.05
108631	7	Sololá	704	Santa Lucía Utatlán 	7	Santa Rita 	7	Julio	2023-07-31T00:00:00	2024-11-08T13:00:00	1	Precipitación	0
108632	7	Sololá	704	Santa Lucía Utatlán 	7	Santa Rita 	7	Julio	2023-07-31T00:00:00	2024-11-08T13:00:00	8	Radiación solar	952
108633	7	Sololá	704	Santa Lucía Utatlán 	7	Santa Rita 	7	Julio	2023-07-31T00:00:00	2024-11-08T14:00:00	2	Temperatura media	26.7
108634	7	Sololá	704	Santa Lucía Utatlán 	7	Santa Rita 	7	Julio	2023-07-31T00:00:00	2024-11-08T14:00:00	4	Temperatura máxima	27.1
108635	7	Sololá	704	Santa Lucía Utatlán 	7	Santa Rita 	7	Julio	2023-07-31T00:00:00	2024-11-08T14:00:00	3	Temperatura mínima	26.7
108636	7	Sololá	704	Santa Lucía Utatlán 	7	Santa Rita 	7	Julio	2023-07-31T00:00:00	2024-11-08T14:00:00	5	Humedad	52
108637	7	Sololá	704	Santa Lucía Utatlán 	7	Santa Rita 	7	Julio	2023-07-31T00:00:00	2024-11-08T14:00:00	6	Velocidad del viento	11.3
108638	7	Sololá	704	Santa Lucía Utatlán 	7	Santa Rita 	7	Julio	2023-07-31T00:00:00	2024-11-08T14:00:00	7	Dirección del viento	11.27
108639	7	Sololá	704	Santa Lucía Utatlán 	7	Santa Rita 	7	Julio	2023-07-31T00:00:00	2024-11-08T14:00:00	1	Precipitación	0
108640	7	Sololá	704	Santa Lucía Utatlán 	7	Santa Rita 	7	Julio	2023-07-31T00:00:00	2024-11-08T14:00:00	8	Radiación solar	1034
108641	7	Sololá	704	Santa Lucía Utatlán 	7	Santa Rita 	7	Julio	2023-07-31T00:00:00	2024-11-08T15:00:00	2	Temperatura media	26.7
108642	7	Sololá	704	Santa Lucía Utatlán 	7	Santa Rita 	7	Julio	2023-07-31T00:00:00	2024-11-08T15:00:00	4	Temperatura máxima	26.8
108643	7	Sololá	704	Santa Lucía Utatlán 	7	Santa Rita 	7	Julio	2023-07-31T00:00:00	2024-11-08T15:00:00	3	Temperatura mínima	25.7
108644	7	Sololá	704	Santa Lucía Utatlán 	7	Santa Rita 	7	Julio	2023-07-31T00:00:00	2024-11-08T15:00:00	5	Humedad	56
108645	7	Sololá	704	Santa Lucía Utatlán 	7	Santa Rita 	7	Julio	2023-07-31T00:00:00	2024-11-08T15:00:00	6	Velocidad del viento	9.7
108646	7	Sololá	704	Santa Lucía Utatlán 	7	Santa Rita 	7	Julio	2023-07-31T00:00:00	2024-11-08T15:00:00	7	Dirección del viento	9.66
108647	7	Sololá	704	Santa Lucía Utatlán 	7	Santa Rita 	7	Julio	2023-07-31T00:00:00	2024-11-08T15:00:00	1	Precipitación	0
108648	7	Sololá	704	Santa Lucía Utatlán 	7	Santa Rita 	7	Julio	2023-07-31T00:00:00	2024-11-08T15:00:00	8	Radiación solar	828
108649	7	Sololá	704	Santa Lucía Utatlán 	7	Santa Rita 	7	Julio	2023-07-31T00:00:00	2024-11-08T16:00:00	2	Temperatura media	25.8
108650	7	Sololá	704	Santa Lucía Utatlán 	7	Santa Rita 	7	Julio	2023-07-31T00:00:00	2024-11-08T16:00:00	4	Temperatura máxima	26.7
108651	7	Sololá	704	Santa Lucía Utatlán 	7	Santa Rita 	7	Julio	2023-07-31T00:00:00	2024-11-08T16:00:00	3	Temperatura mínima	25.6
108652	7	Sololá	704	Santa Lucía Utatlán 	7	Santa Rita 	7	Julio	2023-07-31T00:00:00	2024-11-08T16:00:00	5	Humedad	64
108653	7	Sololá	704	Santa Lucía Utatlán 	7	Santa Rita 	7	Julio	2023-07-31T00:00:00	2024-11-08T16:00:00	6	Velocidad del viento	11.3
108654	7	Sololá	704	Santa Lucía Utatlán 	7	Santa Rita 	7	Julio	2023-07-31T00:00:00	2024-11-08T16:00:00	7	Dirección del viento	11.27
108655	7	Sololá	704	Santa Lucía Utatlán 	7	Santa Rita 	7	Julio	2023-07-31T00:00:00	2024-11-08T16:00:00	1	Precipitación	0
108656	7	Sololá	704	Santa Lucía Utatlán 	7	Santa Rita 	7	Julio	2023-07-31T00:00:00	2024-11-08T16:00:00	8	Radiación solar	662
108657	7	Sololá	704	Santa Lucía Utatlán 	7	Santa Rita 	7	Julio	2023-07-31T00:00:00	2024-11-08T17:00:00	2	Temperatura media	24.2
108658	7	Sololá	704	Santa Lucía Utatlán 	7	Santa Rita 	7	Julio	2023-07-31T00:00:00	2024-11-08T17:00:00	4	Temperatura máxima	26.1
108659	7	Sololá	704	Santa Lucía Utatlán 	7	Santa Rita 	7	Julio	2023-07-31T00:00:00	2024-11-08T17:00:00	3	Temperatura mínima	24.2
108660	7	Sololá	704	Santa Lucía Utatlán 	7	Santa Rita 	7	Julio	2023-07-31T00:00:00	2024-11-08T17:00:00	5	Humedad	76
108661	7	Sololá	704	Santa Lucía Utatlán 	7	Santa Rita 	7	Julio	2023-07-31T00:00:00	2024-11-08T17:00:00	6	Velocidad del viento	9.7
108662	7	Sololá	704	Santa Lucía Utatlán 	7	Santa Rita 	7	Julio	2023-07-31T00:00:00	2024-11-08T17:00:00	7	Dirección del viento	9.66
108663	7	Sololá	704	Santa Lucía Utatlán 	7	Santa Rita 	7	Julio	2023-07-31T00:00:00	2024-11-08T17:00:00	1	Precipitación	0
108664	7	Sololá	704	Santa Lucía Utatlán 	7	Santa Rita 	7	Julio	2023-07-31T00:00:00	2024-11-08T17:00:00	8	Radiación solar	418
108665	7	Sololá	704	Santa Lucía Utatlán 	7	Santa Rita 	7	Julio	2023-07-31T00:00:00	2024-11-08T18:00:00	2	Temperatura media	22.4
108666	7	Sololá	704	Santa Lucía Utatlán 	7	Santa Rita 	7	Julio	2023-07-31T00:00:00	2024-11-08T18:00:00	4	Temperatura máxima	24.2
108667	7	Sololá	704	Santa Lucía Utatlán 	7	Santa Rita 	7	Julio	2023-07-31T00:00:00	2024-11-08T18:00:00	3	Temperatura mínima	22.4
108668	7	Sololá	704	Santa Lucía Utatlán 	7	Santa Rita 	7	Julio	2023-07-31T00:00:00	2024-11-08T18:00:00	5	Humedad	87
108669	7	Sololá	704	Santa Lucía Utatlán 	7	Santa Rita 	7	Julio	2023-07-31T00:00:00	2024-11-08T18:00:00	6	Velocidad del viento	4.8
108670	7	Sololá	704	Santa Lucía Utatlán 	7	Santa Rita 	7	Julio	2023-07-31T00:00:00	2024-11-08T18:00:00	7	Dirección del viento	4.83
108671	7	Sololá	704	Santa Lucía Utatlán 	7	Santa Rita 	7	Julio	2023-07-31T00:00:00	2024-11-08T18:00:00	1	Precipitación	0
108672	7	Sololá	704	Santa Lucía Utatlán 	7	Santa Rita 	7	Julio	2023-07-31T00:00:00	2024-11-08T18:00:00	8	Radiación solar	93
108673	7	Sololá	704	Santa Lucía Utatlán 	7	Santa Rita 	7	Julio	2023-07-31T00:00:00	2024-11-08T19:00:00	2	Temperatura media	20.6
108674	7	Sololá	704	Santa Lucía Utatlán 	7	Santa Rita 	7	Julio	2023-07-31T00:00:00	2024-11-08T19:00:00	4	Temperatura máxima	22.4
108675	7	Sololá	704	Santa Lucía Utatlán 	7	Santa Rita 	7	Julio	2023-07-31T00:00:00	2024-11-08T19:00:00	3	Temperatura mínima	20.6
108676	7	Sololá	704	Santa Lucía Utatlán 	7	Santa Rita 	7	Julio	2023-07-31T00:00:00	2024-11-08T19:00:00	5	Humedad	91
108677	7	Sololá	704	Santa Lucía Utatlán 	7	Santa Rita 	7	Julio	2023-07-31T00:00:00	2024-11-08T19:00:00	6	Velocidad del viento	3.2
108678	7	Sololá	704	Santa Lucía Utatlán 	7	Santa Rita 	7	Julio	2023-07-31T00:00:00	2024-11-08T19:00:00	7	Dirección del viento	3.22
108679	7	Sololá	704	Santa Lucía Utatlán 	7	Santa Rita 	7	Julio	2023-07-31T00:00:00	2024-11-08T19:00:00	1	Precipitación	0.8
108680	7	Sololá	704	Santa Lucía Utatlán 	7	Santa Rita 	7	Julio	2023-07-31T00:00:00	2024-11-08T19:00:00	8	Radiación solar	0
108681	7	Sololá	704	Santa Lucía Utatlán 	7	Santa Rita 	7	Julio	2023-07-31T00:00:00	2024-11-08T20:00:00	2	Temperatura media	19.7
108682	7	Sololá	704	Santa Lucía Utatlán 	7	Santa Rita 	7	Julio	2023-07-31T00:00:00	2024-11-08T20:00:00	4	Temperatura máxima	20.6
108683	7	Sololá	704	Santa Lucía Utatlán 	7	Santa Rita 	7	Julio	2023-07-31T00:00:00	2024-11-08T20:00:00	3	Temperatura mínima	19.7
108684	7	Sololá	704	Santa Lucía Utatlán 	7	Santa Rita 	7	Julio	2023-07-31T00:00:00	2024-11-08T20:00:00	5	Humedad	93
108685	7	Sololá	704	Santa Lucía Utatlán 	7	Santa Rita 	7	Julio	2023-07-31T00:00:00	2024-11-08T20:00:00	6	Velocidad del viento	1.6
108686	7	Sololá	704	Santa Lucía Utatlán 	7	Santa Rita 	7	Julio	2023-07-31T00:00:00	2024-11-08T20:00:00	7	Dirección del viento	1.61
108687	7	Sololá	704	Santa Lucía Utatlán 	7	Santa Rita 	7	Julio	2023-07-31T00:00:00	2024-11-08T20:00:00	1	Precipitación	0.8
108688	7	Sololá	704	Santa Lucía Utatlán 	7	Santa Rita 	7	Julio	2023-07-31T00:00:00	2024-11-08T20:00:00	8	Radiación solar	0
108689	7	Sololá	704	Santa Lucía Utatlán 	7	Santa Rita 	7	Julio	2023-07-31T00:00:00	2024-11-08T21:00:00	2	Temperatura media	19.7
108690	7	Sololá	704	Santa Lucía Utatlán 	7	Santa Rita 	7	Julio	2023-07-31T00:00:00	2024-11-08T21:00:00	4	Temperatura máxima	20.7
108691	7	Sololá	704	Santa Lucía Utatlán 	7	Santa Rita 	7	Julio	2023-07-31T00:00:00	2024-11-08T21:00:00	3	Temperatura mínima	19.5
108692	7	Sololá	704	Santa Lucía Utatlán 	7	Santa Rita 	7	Julio	2023-07-31T00:00:00	2024-11-08T21:00:00	5	Humedad	93
108693	7	Sololá	704	Santa Lucía Utatlán 	7	Santa Rita 	7	Julio	2023-07-31T00:00:00	2024-11-08T21:00:00	6	Velocidad del viento	3.2
108694	7	Sololá	704	Santa Lucía Utatlán 	7	Santa Rita 	7	Julio	2023-07-31T00:00:00	2024-11-08T21:00:00	7	Dirección del viento	3.22
108695	7	Sololá	704	Santa Lucía Utatlán 	7	Santa Rita 	7	Julio	2023-07-31T00:00:00	2024-11-08T21:00:00	1	Precipitación	0
108696	7	Sololá	704	Santa Lucía Utatlán 	7	Santa Rita 	7	Julio	2023-07-31T00:00:00	2024-11-08T21:00:00	8	Radiación solar	0
108697	7	Sololá	704	Santa Lucía Utatlán 	7	Santa Rita 	7	Julio	2023-07-31T00:00:00	2024-11-08T22:00:00	2	Temperatura media	19.2
108698	7	Sololá	704	Santa Lucía Utatlán 	7	Santa Rita 	7	Julio	2023-07-31T00:00:00	2024-11-08T22:00:00	4	Temperatura máxima	19.7
108699	7	Sololá	704	Santa Lucía Utatlán 	7	Santa Rita 	7	Julio	2023-07-31T00:00:00	2024-11-08T22:00:00	3	Temperatura mínima	19.2
108700	7	Sololá	704	Santa Lucía Utatlán 	7	Santa Rita 	7	Julio	2023-07-31T00:00:00	2024-11-08T22:00:00	5	Humedad	93
108701	7	Sololá	704	Santa Lucía Utatlán 	7	Santa Rita 	7	Julio	2023-07-31T00:00:00	2024-11-08T22:00:00	6	Velocidad del viento	3.2
108702	7	Sololá	704	Santa Lucía Utatlán 	7	Santa Rita 	7	Julio	2023-07-31T00:00:00	2024-11-08T22:00:00	7	Dirección del viento	3.22
108703	7	Sololá	704	Santa Lucía Utatlán 	7	Santa Rita 	7	Julio	2023-07-31T00:00:00	2024-11-08T22:00:00	1	Precipitación	0
108704	7	Sololá	704	Santa Lucía Utatlán 	7	Santa Rita 	7	Julio	2023-07-31T00:00:00	2024-11-08T22:00:00	8	Radiación solar	0
108705	7	Sololá	704	Santa Lucía Utatlán 	7	Santa Rita 	7	Julio	2023-07-31T00:00:00	2024-11-08T23:00:00	2	Temperatura media	17.9
108706	7	Sololá	704	Santa Lucía Utatlán 	7	Santa Rita 	7	Julio	2023-07-31T00:00:00	2024-11-08T23:00:00	4	Temperatura máxima	19.2
108707	7	Sololá	704	Santa Lucía Utatlán 	7	Santa Rita 	7	Julio	2023-07-31T00:00:00	2024-11-08T23:00:00	3	Temperatura mínima	17.9
108708	7	Sololá	704	Santa Lucía Utatlán 	7	Santa Rita 	7	Julio	2023-07-31T00:00:00	2024-11-08T23:00:00	5	Humedad	94
108709	7	Sololá	704	Santa Lucía Utatlán 	7	Santa Rita 	7	Julio	2023-07-31T00:00:00	2024-11-08T23:00:00	6	Velocidad del viento	3.2
108710	7	Sololá	704	Santa Lucía Utatlán 	7	Santa Rita 	7	Julio	2023-07-31T00:00:00	2024-11-08T23:00:00	7	Dirección del viento	3.22
108711	7	Sololá	704	Santa Lucía Utatlán 	7	Santa Rita 	7	Julio	2023-07-31T00:00:00	2024-11-08T23:00:00	1	Precipitación	0
108712	7	Sololá	704	Santa Lucía Utatlán 	7	Santa Rita 	7	Julio	2023-07-31T00:00:00	2024-11-08T23:00:00	8	Radiación solar	0
108713	7	Sololá	704	Santa Lucía Utatlán 	7	Santa Rita 	8	Agosto	2023-01-08T00:00:00	2024-11-08T00:00:00	2	Temperatura media	18.1
108714	7	Sololá	704	Santa Lucía Utatlán 	7	Santa Rita 	8	Agosto	2023-01-08T00:00:00	2024-11-08T00:00:00	4	Temperatura máxima	18.1
108715	7	Sololá	704	Santa Lucía Utatlán 	7	Santa Rita 	8	Agosto	2023-01-08T00:00:00	2024-11-08T00:00:00	3	Temperatura mínima	17.9
108716	7	Sololá	704	Santa Lucía Utatlán 	7	Santa Rita 	8	Agosto	2023-01-08T00:00:00	2024-11-08T00:00:00	5	Humedad	95
108717	7	Sololá	704	Santa Lucía Utatlán 	7	Santa Rita 	8	Agosto	2023-01-08T00:00:00	2024-11-08T00:00:00	6	Velocidad del viento	1.6
108718	7	Sololá	704	Santa Lucía Utatlán 	7	Santa Rita 	8	Agosto	2023-01-08T00:00:00	2024-11-08T00:00:00	7	Dirección del viento	1.61
108719	7	Sololá	704	Santa Lucía Utatlán 	7	Santa Rita 	8	Agosto	2023-01-08T00:00:00	2024-11-08T00:00:00	1	Precipitación	0
108720	7	Sololá	704	Santa Lucía Utatlán 	7	Santa Rita 	8	Agosto	2023-01-08T00:00:00	2024-11-08T00:00:00	8	Radiación solar	0
108721	7	Sololá	704	Santa Lucía Utatlán 	7	Santa Rita 	8	Agosto	2023-01-08T00:00:00	2024-11-08T01:00:00	2	Temperatura media	18.4
108722	7	Sololá	704	Santa Lucía Utatlán 	7	Santa Rita 	8	Agosto	2023-01-08T00:00:00	2024-11-08T01:00:00	4	Temperatura máxima	18.4
108723	7	Sololá	704	Santa Lucía Utatlán 	7	Santa Rita 	8	Agosto	2023-01-08T00:00:00	2024-11-08T01:00:00	3	Temperatura mínima	18
108724	7	Sololá	704	Santa Lucía Utatlán 	7	Santa Rita 	8	Agosto	2023-01-08T00:00:00	2024-11-08T01:00:00	5	Humedad	95
108725	7	Sololá	704	Santa Lucía Utatlán 	7	Santa Rita 	8	Agosto	2023-01-08T00:00:00	2024-11-08T01:00:00	6	Velocidad del viento	1.6
108726	7	Sololá	704	Santa Lucía Utatlán 	7	Santa Rita 	8	Agosto	2023-01-08T00:00:00	2024-11-08T01:00:00	7	Dirección del viento	1.61
108727	7	Sololá	704	Santa Lucía Utatlán 	7	Santa Rita 	8	Agosto	2023-01-08T00:00:00	2024-11-08T01:00:00	1	Precipitación	0
108728	7	Sololá	704	Santa Lucía Utatlán 	7	Santa Rita 	8	Agosto	2023-01-08T00:00:00	2024-11-08T01:00:00	8	Radiación solar	0
108729	7	Sololá	704	Santa Lucía Utatlán 	7	Santa Rita 	8	Agosto	2023-01-08T00:00:00	2024-11-08T02:00:00	2	Temperatura media	18.7
108730	7	Sololá	704	Santa Lucía Utatlán 	7	Santa Rita 	8	Agosto	2023-01-08T00:00:00	2024-11-08T02:00:00	4	Temperatura máxima	19.6
108731	7	Sololá	704	Santa Lucía Utatlán 	7	Santa Rita 	8	Agosto	2023-01-08T00:00:00	2024-11-08T02:00:00	3	Temperatura mínima	18.4
108732	7	Sololá	704	Santa Lucía Utatlán 	7	Santa Rita 	8	Agosto	2023-01-08T00:00:00	2024-11-08T02:00:00	5	Humedad	93
108733	7	Sololá	704	Santa Lucía Utatlán 	7	Santa Rita 	8	Agosto	2023-01-08T00:00:00	2024-11-08T02:00:00	6	Velocidad del viento	3.2
108734	7	Sololá	704	Santa Lucía Utatlán 	7	Santa Rita 	8	Agosto	2023-01-08T00:00:00	2024-11-08T02:00:00	7	Dirección del viento	3.22
108735	7	Sololá	704	Santa Lucía Utatlán 	7	Santa Rita 	8	Agosto	2023-01-08T00:00:00	2024-11-08T02:00:00	1	Precipitación	0
108736	7	Sololá	704	Santa Lucía Utatlán 	7	Santa Rita 	8	Agosto	2023-01-08T00:00:00	2024-11-08T02:00:00	8	Radiación solar	0
108737	7	Sololá	704	Santa Lucía Utatlán 	7	Santa Rita 	8	Agosto	2023-01-08T00:00:00	2024-11-08T03:00:00	2	Temperatura media	18.8
108738	7	Sololá	704	Santa Lucía Utatlán 	7	Santa Rita 	8	Agosto	2023-01-08T00:00:00	2024-11-08T03:00:00	4	Temperatura máxima	19.3
108739	7	Sololá	704	Santa Lucía Utatlán 	7	Santa Rita 	8	Agosto	2023-01-08T00:00:00	2024-11-08T03:00:00	3	Temperatura mínima	18.6
108740	7	Sololá	704	Santa Lucía Utatlán 	7	Santa Rita 	8	Agosto	2023-01-08T00:00:00	2024-11-08T03:00:00	5	Humedad	93
108741	7	Sololá	704	Santa Lucía Utatlán 	7	Santa Rita 	8	Agosto	2023-01-08T00:00:00	2024-11-08T03:00:00	6	Velocidad del viento	3.2
108742	7	Sololá	704	Santa Lucía Utatlán 	7	Santa Rita 	8	Agosto	2023-01-08T00:00:00	2024-11-08T03:00:00	7	Dirección del viento	3.22
108743	7	Sololá	704	Santa Lucía Utatlán 	7	Santa Rita 	8	Agosto	2023-01-08T00:00:00	2024-11-08T03:00:00	1	Precipitación	0
108744	7	Sololá	704	Santa Lucía Utatlán 	7	Santa Rita 	8	Agosto	2023-01-08T00:00:00	2024-11-08T03:00:00	8	Radiación solar	0
108745	7	Sololá	704	Santa Lucía Utatlán 	7	Santa Rita 	8	Agosto	2023-01-08T00:00:00	2024-11-08T04:00:00	2	Temperatura media	18.4
108746	7	Sololá	704	Santa Lucía Utatlán 	7	Santa Rita 	8	Agosto	2023-01-08T00:00:00	2024-11-08T04:00:00	4	Temperatura máxima	18.9
108747	7	Sololá	704	Santa Lucía Utatlán 	7	Santa Rita 	8	Agosto	2023-01-08T00:00:00	2024-11-08T04:00:00	3	Temperatura mínima	18.4
108748	7	Sololá	704	Santa Lucía Utatlán 	7	Santa Rita 	8	Agosto	2023-01-08T00:00:00	2024-11-08T04:00:00	5	Humedad	93
108749	7	Sololá	704	Santa Lucía Utatlán 	7	Santa Rita 	8	Agosto	2023-01-08T00:00:00	2024-11-08T04:00:00	6	Velocidad del viento	1.6
108750	7	Sololá	704	Santa Lucía Utatlán 	7	Santa Rita 	8	Agosto	2023-01-08T00:00:00	2024-11-08T04:00:00	7	Dirección del viento	1.61
108751	7	Sololá	704	Santa Lucía Utatlán 	7	Santa Rita 	8	Agosto	2023-01-08T00:00:00	2024-11-08T04:00:00	1	Precipitación	0
108752	7	Sololá	704	Santa Lucía Utatlán 	7	Santa Rita 	8	Agosto	2023-01-08T00:00:00	2024-11-08T04:00:00	8	Radiación solar	0
108753	7	Sololá	704	Santa Lucía Utatlán 	7	Santa Rita 	8	Agosto	2023-01-08T00:00:00	2024-11-08T05:00:00	2	Temperatura media	17.6
108754	7	Sololá	704	Santa Lucía Utatlán 	7	Santa Rita 	8	Agosto	2023-01-08T00:00:00	2024-11-08T05:00:00	4	Temperatura máxima	18.4
108755	7	Sololá	704	Santa Lucía Utatlán 	7	Santa Rita 	8	Agosto	2023-01-08T00:00:00	2024-11-08T05:00:00	3	Temperatura mínima	17.6
108756	7	Sololá	704	Santa Lucía Utatlán 	7	Santa Rita 	8	Agosto	2023-01-08T00:00:00	2024-11-08T05:00:00	5	Humedad	93
108757	7	Sololá	704	Santa Lucía Utatlán 	7	Santa Rita 	8	Agosto	2023-01-08T00:00:00	2024-11-08T05:00:00	6	Velocidad del viento	3.2
108758	7	Sololá	704	Santa Lucía Utatlán 	7	Santa Rita 	8	Agosto	2023-01-08T00:00:00	2024-11-08T05:00:00	7	Dirección del viento	3.22
108759	7	Sololá	704	Santa Lucía Utatlán 	7	Santa Rita 	8	Agosto	2023-01-08T00:00:00	2024-11-08T05:00:00	1	Precipitación	0
108760	7	Sololá	704	Santa Lucía Utatlán 	7	Santa Rita 	8	Agosto	2023-01-08T00:00:00	2024-11-08T05:00:00	8	Radiación solar	0
108761	7	Sololá	704	Santa Lucía Utatlán 	7	Santa Rita 	8	Agosto	2023-01-08T00:00:00	2024-11-08T06:00:00	2	Temperatura media	17.3
108762	7	Sololá	704	Santa Lucía Utatlán 	7	Santa Rita 	8	Agosto	2023-01-08T00:00:00	2024-11-08T06:00:00	4	Temperatura máxima	17.6
108763	7	Sololá	704	Santa Lucía Utatlán 	7	Santa Rita 	8	Agosto	2023-01-08T00:00:00	2024-11-08T06:00:00	3	Temperatura mínima	17.3
108764	7	Sololá	704	Santa Lucía Utatlán 	7	Santa Rita 	8	Agosto	2023-01-08T00:00:00	2024-11-08T06:00:00	5	Humedad	92
108765	7	Sololá	704	Santa Lucía Utatlán 	7	Santa Rita 	8	Agosto	2023-01-08T00:00:00	2024-11-08T06:00:00	6	Velocidad del viento	1.6
108766	7	Sololá	704	Santa Lucía Utatlán 	7	Santa Rita 	8	Agosto	2023-01-08T00:00:00	2024-11-08T06:00:00	7	Dirección del viento	1.61
108767	7	Sololá	704	Santa Lucía Utatlán 	7	Santa Rita 	8	Agosto	2023-01-08T00:00:00	2024-11-08T06:00:00	1	Precipitación	0
108768	7	Sololá	704	Santa Lucía Utatlán 	7	Santa Rita 	8	Agosto	2023-01-08T00:00:00	2024-11-08T06:00:00	8	Radiación solar	2
108769	7	Sololá	704	Santa Lucía Utatlán 	7	Santa Rita 	8	Agosto	2023-01-08T00:00:00	2024-11-08T07:00:00	2	Temperatura media	17.9
108770	7	Sololá	704	Santa Lucía Utatlán 	7	Santa Rita 	8	Agosto	2023-01-08T00:00:00	2024-11-08T07:00:00	4	Temperatura máxima	17.9
108771	7	Sololá	704	Santa Lucía Utatlán 	7	Santa Rita 	8	Agosto	2023-01-08T00:00:00	2024-11-08T07:00:00	3	Temperatura mínima	17.2
108772	7	Sololá	704	Santa Lucía Utatlán 	7	Santa Rita 	8	Agosto	2023-01-08T00:00:00	2024-11-08T07:00:00	5	Humedad	94
108773	7	Sololá	704	Santa Lucía Utatlán 	7	Santa Rita 	8	Agosto	2023-01-08T00:00:00	2024-11-08T07:00:00	6	Velocidad del viento	1.6
108774	7	Sololá	704	Santa Lucía Utatlán 	7	Santa Rita 	8	Agosto	2023-01-08T00:00:00	2024-11-08T07:00:00	7	Dirección del viento	1.61
108775	7	Sololá	704	Santa Lucía Utatlán 	7	Santa Rita 	8	Agosto	2023-01-08T00:00:00	2024-11-08T07:00:00	1	Precipitación	0
108776	7	Sololá	704	Santa Lucía Utatlán 	7	Santa Rita 	8	Agosto	2023-01-08T00:00:00	2024-11-08T07:00:00	8	Radiación solar	50
108777	7	Sololá	704	Santa Lucía Utatlán 	7	Santa Rita 	8	Agosto	2023-01-08T00:00:00	2024-11-08T08:00:00	2	Temperatura media	20.2
108778	7	Sololá	704	Santa Lucía Utatlán 	7	Santa Rita 	8	Agosto	2023-01-08T00:00:00	2024-11-08T08:00:00	4	Temperatura máxima	20.2
108779	7	Sololá	704	Santa Lucía Utatlán 	7	Santa Rita 	8	Agosto	2023-01-08T00:00:00	2024-11-08T08:00:00	3	Temperatura mínima	18
108780	7	Sololá	704	Santa Lucía Utatlán 	7	Santa Rita 	8	Agosto	2023-01-08T00:00:00	2024-11-08T08:00:00	5	Humedad	85
108781	7	Sololá	704	Santa Lucía Utatlán 	7	Santa Rita 	8	Agosto	2023-01-08T00:00:00	2024-11-08T08:00:00	6	Velocidad del viento	1.6
108782	7	Sololá	704	Santa Lucía Utatlán 	7	Santa Rita 	8	Agosto	2023-01-08T00:00:00	2024-11-08T08:00:00	7	Dirección del viento	1.61
108783	7	Sololá	704	Santa Lucía Utatlán 	7	Santa Rita 	8	Agosto	2023-01-08T00:00:00	2024-11-08T08:00:00	1	Precipitación	0
108784	7	Sololá	704	Santa Lucía Utatlán 	7	Santa Rita 	8	Agosto	2023-01-08T00:00:00	2024-11-08T08:00:00	8	Radiación solar	181
108785	7	Sololá	704	Santa Lucía Utatlán 	7	Santa Rita 	8	Agosto	2023-01-08T00:00:00	2024-11-08T09:00:00	2	Temperatura media	22.8
108786	7	Sololá	704	Santa Lucía Utatlán 	7	Santa Rita 	8	Agosto	2023-01-08T00:00:00	2024-11-08T09:00:00	4	Temperatura máxima	22.8
108787	7	Sololá	704	Santa Lucía Utatlán 	7	Santa Rita 	8	Agosto	2023-01-08T00:00:00	2024-11-08T09:00:00	3	Temperatura mínima	20.2
108788	7	Sololá	704	Santa Lucía Utatlán 	7	Santa Rita 	8	Agosto	2023-01-08T00:00:00	2024-11-08T09:00:00	5	Humedad	76
108789	7	Sololá	704	Santa Lucía Utatlán 	7	Santa Rita 	8	Agosto	2023-01-08T00:00:00	2024-11-08T09:00:00	6	Velocidad del viento	1.6
108790	7	Sololá	704	Santa Lucía Utatlán 	7	Santa Rita 	8	Agosto	2023-01-08T00:00:00	2024-11-08T09:00:00	7	Dirección del viento	1.61
108791	7	Sololá	704	Santa Lucía Utatlán 	7	Santa Rita 	8	Agosto	2023-01-08T00:00:00	2024-11-08T09:00:00	1	Precipitación	0
108792	7	Sololá	704	Santa Lucía Utatlán 	7	Santa Rita 	8	Agosto	2023-01-08T00:00:00	2024-11-08T09:00:00	8	Radiación solar	420
108793	7	Sololá	704	Santa Lucía Utatlán 	7	Santa Rita 	8	Agosto	2023-01-08T00:00:00	2024-11-08T10:00:00	2	Temperatura media	24.3
108794	7	Sololá	704	Santa Lucía Utatlán 	7	Santa Rita 	8	Agosto	2023-01-08T00:00:00	2024-11-08T10:00:00	4	Temperatura máxima	24.4
108795	7	Sololá	704	Santa Lucía Utatlán 	7	Santa Rita 	8	Agosto	2023-01-08T00:00:00	2024-11-08T10:00:00	3	Temperatura mínima	22.8
108796	7	Sololá	704	Santa Lucía Utatlán 	7	Santa Rita 	8	Agosto	2023-01-08T00:00:00	2024-11-08T10:00:00	5	Humedad	66
108797	7	Sololá	704	Santa Lucía Utatlán 	7	Santa Rita 	8	Agosto	2023-01-08T00:00:00	2024-11-08T10:00:00	6	Velocidad del viento	6.4
108798	7	Sololá	704	Santa Lucía Utatlán 	7	Santa Rita 	8	Agosto	2023-01-08T00:00:00	2024-11-08T10:00:00	7	Dirección del viento	6.44
108799	7	Sololá	704	Santa Lucía Utatlán 	7	Santa Rita 	8	Agosto	2023-01-08T00:00:00	2024-11-08T10:00:00	1	Precipitación	0
108800	7	Sololá	704	Santa Lucía Utatlán 	7	Santa Rita 	8	Agosto	2023-01-08T00:00:00	2024-11-08T10:00:00	8	Radiación solar	799
108801	7	Sololá	704	Santa Lucía Utatlán 	7	Santa Rita 	8	Agosto	2023-01-08T00:00:00	2024-11-08T11:00:00	2	Temperatura media	24.7
108802	7	Sololá	704	Santa Lucía Utatlán 	7	Santa Rita 	8	Agosto	2023-01-08T00:00:00	2024-11-08T11:00:00	4	Temperatura máxima	24.7
108803	7	Sololá	704	Santa Lucía Utatlán 	7	Santa Rita 	8	Agosto	2023-01-08T00:00:00	2024-11-08T11:00:00	3	Temperatura mínima	24.2
108804	7	Sololá	704	Santa Lucía Utatlán 	7	Santa Rita 	8	Agosto	2023-01-08T00:00:00	2024-11-08T11:00:00	5	Humedad	62
108805	7	Sololá	704	Santa Lucía Utatlán 	7	Santa Rita 	8	Agosto	2023-01-08T00:00:00	2024-11-08T11:00:00	6	Velocidad del viento	9.7
108806	7	Sololá	704	Santa Lucía Utatlán 	7	Santa Rita 	8	Agosto	2023-01-08T00:00:00	2024-11-08T11:00:00	7	Dirección del viento	9.66
108807	7	Sololá	704	Santa Lucía Utatlán 	7	Santa Rita 	8	Agosto	2023-01-08T00:00:00	2024-11-08T11:00:00	1	Precipitación	0
108808	7	Sololá	704	Santa Lucía Utatlán 	7	Santa Rita 	8	Agosto	2023-01-08T00:00:00	2024-11-08T11:00:00	8	Radiación solar	960
108809	7	Sololá	704	Santa Lucía Utatlán 	7	Santa Rita 	8	Agosto	2023-01-08T00:00:00	2024-11-08T12:00:00	2	Temperatura media	24.2
108810	7	Sololá	704	Santa Lucía Utatlán 	7	Santa Rita 	8	Agosto	2023-01-08T00:00:00	2024-11-08T12:00:00	4	Temperatura máxima	25.4
108811	7	Sololá	704	Santa Lucía Utatlán 	7	Santa Rita 	8	Agosto	2023-01-08T00:00:00	2024-11-08T12:00:00	3	Temperatura mínima	24.1
108812	7	Sololá	704	Santa Lucía Utatlán 	7	Santa Rita 	8	Agosto	2023-01-08T00:00:00	2024-11-08T12:00:00	5	Humedad	67
108813	7	Sololá	704	Santa Lucía Utatlán 	7	Santa Rita 	8	Agosto	2023-01-08T00:00:00	2024-11-08T12:00:00	6	Velocidad del viento	9.7
108814	7	Sololá	704	Santa Lucía Utatlán 	7	Santa Rita 	8	Agosto	2023-01-08T00:00:00	2024-11-08T12:00:00	7	Dirección del viento	9.66
108815	7	Sololá	704	Santa Lucía Utatlán 	7	Santa Rita 	8	Agosto	2023-01-08T00:00:00	2024-11-08T12:00:00	1	Precipitación	0
108816	7	Sololá	704	Santa Lucía Utatlán 	7	Santa Rita 	8	Agosto	2023-01-08T00:00:00	2024-11-08T12:00:00	8	Radiación solar	626
108817	7	Sololá	704	Santa Lucía Utatlán 	7	Santa Rita 	8	Agosto	2023-01-08T00:00:00	2024-11-08T13:00:00	2	Temperatura media	24.8
108818	7	Sololá	704	Santa Lucía Utatlán 	7	Santa Rita 	8	Agosto	2023-01-08T00:00:00	2024-11-08T13:00:00	4	Temperatura máxima	24.8
108819	7	Sololá	704	Santa Lucía Utatlán 	7	Santa Rita 	8	Agosto	2023-01-08T00:00:00	2024-11-08T13:00:00	3	Temperatura mínima	23.6
108820	7	Sololá	704	Santa Lucía Utatlán 	7	Santa Rita 	8	Agosto	2023-01-08T00:00:00	2024-11-08T13:00:00	5	Humedad	72
108821	7	Sololá	704	Santa Lucía Utatlán 	7	Santa Rita 	8	Agosto	2023-01-08T00:00:00	2024-11-08T13:00:00	6	Velocidad del viento	6.4
108822	7	Sololá	704	Santa Lucía Utatlán 	7	Santa Rita 	8	Agosto	2023-01-08T00:00:00	2024-11-08T13:00:00	7	Dirección del viento	6.44
108823	7	Sololá	704	Santa Lucía Utatlán 	7	Santa Rita 	8	Agosto	2023-01-08T00:00:00	2024-11-08T13:00:00	1	Precipitación	0
108824	7	Sololá	704	Santa Lucía Utatlán 	7	Santa Rita 	8	Agosto	2023-01-08T00:00:00	2024-11-08T13:00:00	8	Radiación solar	466
108825	7	Sololá	704	Santa Lucía Utatlán 	7	Santa Rita 	8	Agosto	2023-01-08T00:00:00	2024-11-08T14:00:00	2	Temperatura media	23.9
108826	7	Sololá	704	Santa Lucía Utatlán 	7	Santa Rita 	8	Agosto	2023-01-08T00:00:00	2024-11-08T14:00:00	4	Temperatura máxima	25.6
108827	7	Sololá	704	Santa Lucía Utatlán 	7	Santa Rita 	8	Agosto	2023-01-08T00:00:00	2024-11-08T14:00:00	3	Temperatura mínima	23.9
108828	7	Sololá	704	Santa Lucía Utatlán 	7	Santa Rita 	8	Agosto	2023-01-08T00:00:00	2024-11-08T14:00:00	5	Humedad	74
108829	7	Sololá	704	Santa Lucía Utatlán 	7	Santa Rita 	8	Agosto	2023-01-08T00:00:00	2024-11-08T14:00:00	6	Velocidad del viento	6.4
108830	7	Sololá	704	Santa Lucía Utatlán 	7	Santa Rita 	8	Agosto	2023-01-08T00:00:00	2024-11-08T14:00:00	7	Dirección del viento	6.44
108831	7	Sololá	704	Santa Lucía Utatlán 	7	Santa Rita 	8	Agosto	2023-01-08T00:00:00	2024-11-08T14:00:00	1	Precipitación	0
108832	7	Sololá	704	Santa Lucía Utatlán 	7	Santa Rita 	8	Agosto	2023-01-08T00:00:00	2024-11-08T14:00:00	8	Radiación solar	379
108833	7	Sololá	704	Santa Lucía Utatlán 	7	Santa Rita 	8	Agosto	2023-01-08T00:00:00	2024-11-08T15:00:00	2	Temperatura media	25.8
108834	7	Sololá	704	Santa Lucía Utatlán 	7	Santa Rita 	8	Agosto	2023-01-08T00:00:00	2024-11-08T15:00:00	4	Temperatura máxima	26.6
108835	7	Sololá	704	Santa Lucía Utatlán 	7	Santa Rita 	8	Agosto	2023-01-08T00:00:00	2024-11-08T15:00:00	3	Temperatura mínima	23.8
108836	7	Sololá	704	Santa Lucía Utatlán 	7	Santa Rita 	8	Agosto	2023-01-08T00:00:00	2024-11-08T15:00:00	5	Humedad	72
108837	7	Sololá	704	Santa Lucía Utatlán 	7	Santa Rita 	8	Agosto	2023-01-08T00:00:00	2024-11-08T15:00:00	6	Velocidad del viento	4.8
108838	7	Sololá	704	Santa Lucía Utatlán 	7	Santa Rita 	8	Agosto	2023-01-08T00:00:00	2024-11-08T15:00:00	7	Dirección del viento	4.83
108839	7	Sololá	704	Santa Lucía Utatlán 	7	Santa Rita 	8	Agosto	2023-01-08T00:00:00	2024-11-08T15:00:00	1	Precipitación	0
108840	7	Sololá	704	Santa Lucía Utatlán 	7	Santa Rita 	8	Agosto	2023-01-08T00:00:00	2024-11-08T15:00:00	8	Radiación solar	611
108841	7	Sololá	704	Santa Lucía Utatlán 	7	Santa Rita 	8	Agosto	2023-01-08T00:00:00	2024-11-08T16:00:00	2	Temperatura media	24
108842	7	Sololá	704	Santa Lucía Utatlán 	7	Santa Rita 	8	Agosto	2023-01-08T00:00:00	2024-11-08T16:00:00	4	Temperatura máxima	25.8
108843	7	Sololá	704	Santa Lucía Utatlán 	7	Santa Rita 	8	Agosto	2023-01-08T00:00:00	2024-11-08T16:00:00	3	Temperatura mínima	24
108844	7	Sololá	704	Santa Lucía Utatlán 	7	Santa Rita 	8	Agosto	2023-01-08T00:00:00	2024-11-08T16:00:00	5	Humedad	82
108845	7	Sololá	704	Santa Lucía Utatlán 	7	Santa Rita 	8	Agosto	2023-01-08T00:00:00	2024-11-08T16:00:00	6	Velocidad del viento	9.7
108846	7	Sololá	704	Santa Lucía Utatlán 	7	Santa Rita 	8	Agosto	2023-01-08T00:00:00	2024-11-08T16:00:00	7	Dirección del viento	9.66
108847	7	Sololá	704	Santa Lucía Utatlán 	7	Santa Rita 	8	Agosto	2023-01-08T00:00:00	2024-11-08T16:00:00	1	Precipitación	0
108848	7	Sololá	704	Santa Lucía Utatlán 	7	Santa Rita 	8	Agosto	2023-01-08T00:00:00	2024-11-08T16:00:00	8	Radiación solar	447
108849	7	Sololá	704	Santa Lucía Utatlán 	7	Santa Rita 	8	Agosto	2023-01-08T00:00:00	2024-11-08T17:00:00	2	Temperatura media	20.7
108850	7	Sololá	704	Santa Lucía Utatlán 	7	Santa Rita 	8	Agosto	2023-01-08T00:00:00	2024-11-08T17:00:00	4	Temperatura máxima	24
108851	7	Sololá	704	Santa Lucía Utatlán 	7	Santa Rita 	8	Agosto	2023-01-08T00:00:00	2024-11-08T17:00:00	3	Temperatura mínima	20.7
108852	7	Sololá	704	Santa Lucía Utatlán 	7	Santa Rita 	8	Agosto	2023-01-08T00:00:00	2024-11-08T17:00:00	5	Humedad	87
108853	7	Sololá	704	Santa Lucía Utatlán 	7	Santa Rita 	8	Agosto	2023-01-08T00:00:00	2024-11-08T17:00:00	6	Velocidad del viento	6.4
108854	7	Sololá	704	Santa Lucía Utatlán 	7	Santa Rita 	8	Agosto	2023-01-08T00:00:00	2024-11-08T17:00:00	7	Dirección del viento	6.44
108855	7	Sololá	704	Santa Lucía Utatlán 	7	Santa Rita 	8	Agosto	2023-01-08T00:00:00	2024-11-08T17:00:00	1	Precipitación	0
108856	7	Sololá	704	Santa Lucía Utatlán 	7	Santa Rita 	8	Agosto	2023-01-08T00:00:00	2024-11-08T17:00:00	8	Radiación solar	109
108857	7	Sololá	704	Santa Lucía Utatlán 	7	Santa Rita 	8	Agosto	2023-01-08T00:00:00	2024-11-08T18:00:00	2	Temperatura media	20.9
108858	7	Sololá	704	Santa Lucía Utatlán 	7	Santa Rita 	8	Agosto	2023-01-08T00:00:00	2024-11-08T18:00:00	4	Temperatura máxima	20.9
108859	7	Sololá	704	Santa Lucía Utatlán 	7	Santa Rita 	8	Agosto	2023-01-08T00:00:00	2024-11-08T18:00:00	3	Temperatura mínima	20.7
108860	7	Sololá	704	Santa Lucía Utatlán 	7	Santa Rita 	8	Agosto	2023-01-08T00:00:00	2024-11-08T18:00:00	5	Humedad	89
108861	7	Sololá	704	Santa Lucía Utatlán 	7	Santa Rita 	8	Agosto	2023-01-08T00:00:00	2024-11-08T18:00:00	6	Velocidad del viento	3.2
108862	7	Sololá	704	Santa Lucía Utatlán 	7	Santa Rita 	8	Agosto	2023-01-08T00:00:00	2024-11-08T18:00:00	7	Dirección del viento	3.22
108863	7	Sololá	704	Santa Lucía Utatlán 	7	Santa Rita 	8	Agosto	2023-01-08T00:00:00	2024-11-08T18:00:00	1	Precipitación	0
108864	7	Sololá	704	Santa Lucía Utatlán 	7	Santa Rita 	8	Agosto	2023-01-08T00:00:00	2024-11-08T18:00:00	8	Radiación solar	62
108865	7	Sololá	704	Santa Lucía Utatlán 	7	Santa Rita 	8	Agosto	2023-01-08T00:00:00	2024-11-08T19:00:00	2	Temperatura media	20.2
108866	7	Sololá	704	Santa Lucía Utatlán 	7	Santa Rita 	8	Agosto	2023-01-08T00:00:00	2024-11-08T19:00:00	4	Temperatura máxima	20.9
108867	7	Sololá	704	Santa Lucía Utatlán 	7	Santa Rita 	8	Agosto	2023-01-08T00:00:00	2024-11-08T19:00:00	3	Temperatura mínima	20.1
108868	7	Sololá	704	Santa Lucía Utatlán 	7	Santa Rita 	8	Agosto	2023-01-08T00:00:00	2024-11-08T19:00:00	5	Humedad	89
108869	7	Sololá	704	Santa Lucía Utatlán 	7	Santa Rita 	8	Agosto	2023-01-08T00:00:00	2024-11-08T19:00:00	6	Velocidad del viento	1.6
108870	7	Sololá	704	Santa Lucía Utatlán 	7	Santa Rita 	8	Agosto	2023-01-08T00:00:00	2024-11-08T19:00:00	7	Dirección del viento	1.61
108871	7	Sololá	704	Santa Lucía Utatlán 	7	Santa Rita 	8	Agosto	2023-01-08T00:00:00	2024-11-08T19:00:00	1	Precipitación	0
108872	7	Sololá	704	Santa Lucía Utatlán 	7	Santa Rita 	8	Agosto	2023-01-08T00:00:00	2024-11-08T19:00:00	8	Radiación solar	0
108873	7	Sololá	704	Santa Lucía Utatlán 	7	Santa Rita 	8	Agosto	2023-01-08T00:00:00	2024-11-08T20:00:00	2	Temperatura media	20
108874	7	Sololá	704	Santa Lucía Utatlán 	7	Santa Rita 	8	Agosto	2023-01-08T00:00:00	2024-11-08T20:00:00	4	Temperatura máxima	20.6
108875	7	Sololá	704	Santa Lucía Utatlán 	7	Santa Rita 	8	Agosto	2023-01-08T00:00:00	2024-11-08T20:00:00	3	Temperatura mínima	20
108876	7	Sololá	704	Santa Lucía Utatlán 	7	Santa Rita 	8	Agosto	2023-01-08T00:00:00	2024-11-08T20:00:00	5	Humedad	90
108877	7	Sololá	704	Santa Lucía Utatlán 	7	Santa Rita 	8	Agosto	2023-01-08T00:00:00	2024-11-08T20:00:00	6	Velocidad del viento	3.2
108878	7	Sololá	704	Santa Lucía Utatlán 	7	Santa Rita 	8	Agosto	2023-01-08T00:00:00	2024-11-08T20:00:00	7	Dirección del viento	3.22
108879	7	Sololá	704	Santa Lucía Utatlán 	7	Santa Rita 	8	Agosto	2023-01-08T00:00:00	2024-11-08T20:00:00	1	Precipitación	0
108880	7	Sololá	704	Santa Lucía Utatlán 	7	Santa Rita 	8	Agosto	2023-01-08T00:00:00	2024-11-08T20:00:00	8	Radiación solar	0
108881	7	Sololá	704	Santa Lucía Utatlán 	7	Santa Rita 	8	Agosto	2023-01-08T00:00:00	2024-11-08T21:00:00	2	Temperatura media	19.6
108882	7	Sololá	704	Santa Lucía Utatlán 	7	Santa Rita 	8	Agosto	2023-01-08T00:00:00	2024-11-08T21:00:00	4	Temperatura máxima	20.1
108883	7	Sololá	704	Santa Lucía Utatlán 	7	Santa Rita 	8	Agosto	2023-01-08T00:00:00	2024-11-08T21:00:00	3	Temperatura mínima	19.6
108884	7	Sololá	704	Santa Lucía Utatlán 	7	Santa Rita 	8	Agosto	2023-01-08T00:00:00	2024-11-08T21:00:00	5	Humedad	93
108885	7	Sololá	704	Santa Lucía Utatlán 	7	Santa Rita 	8	Agosto	2023-01-08T00:00:00	2024-11-08T21:00:00	6	Velocidad del viento	1.6
108886	7	Sololá	704	Santa Lucía Utatlán 	7	Santa Rita 	8	Agosto	2023-01-08T00:00:00	2024-11-08T21:00:00	7	Dirección del viento	1.61
108887	7	Sololá	704	Santa Lucía Utatlán 	7	Santa Rita 	8	Agosto	2023-01-08T00:00:00	2024-11-08T21:00:00	1	Precipitación	0.4
108888	7	Sololá	704	Santa Lucía Utatlán 	7	Santa Rita 	8	Agosto	2023-01-08T00:00:00	2024-11-08T21:00:00	8	Radiación solar	0
108889	7	Sololá	704	Santa Lucía Utatlán 	7	Santa Rita 	8	Agosto	2023-01-08T00:00:00	2024-11-08T22:00:00	2	Temperatura media	18.2
108890	7	Sololá	704	Santa Lucía Utatlán 	7	Santa Rita 	8	Agosto	2023-01-08T00:00:00	2024-11-08T22:00:00	4	Temperatura máxima	19.6
108891	7	Sololá	704	Santa Lucía Utatlán 	7	Santa Rita 	8	Agosto	2023-01-08T00:00:00	2024-11-08T22:00:00	3	Temperatura mínima	18.2
108892	7	Sololá	704	Santa Lucía Utatlán 	7	Santa Rita 	8	Agosto	2023-01-08T00:00:00	2024-11-08T22:00:00	5	Humedad	89
108893	7	Sololá	704	Santa Lucía Utatlán 	7	Santa Rita 	8	Agosto	2023-01-08T00:00:00	2024-11-08T22:00:00	6	Velocidad del viento	8
108894	7	Sololá	704	Santa Lucía Utatlán 	7	Santa Rita 	8	Agosto	2023-01-08T00:00:00	2024-11-08T22:00:00	7	Dirección del viento	8.05
108895	7	Sololá	704	Santa Lucía Utatlán 	7	Santa Rita 	8	Agosto	2023-01-08T00:00:00	2024-11-08T22:00:00	1	Precipitación	5.8
108896	7	Sololá	704	Santa Lucía Utatlán 	7	Santa Rita 	8	Agosto	2023-01-08T00:00:00	2024-11-08T22:00:00	8	Radiación solar	0
108897	7	Sololá	704	Santa Lucía Utatlán 	7	Santa Rita 	8	Agosto	2023-01-08T00:00:00	2024-11-08T23:00:00	2	Temperatura media	18.3
108898	7	Sololá	704	Santa Lucía Utatlán 	7	Santa Rita 	8	Agosto	2023-01-08T00:00:00	2024-11-08T23:00:00	4	Temperatura máxima	18.4
108899	7	Sololá	704	Santa Lucía Utatlán 	7	Santa Rita 	8	Agosto	2023-01-08T00:00:00	2024-11-08T23:00:00	3	Temperatura mínima	18.2
108900	7	Sololá	704	Santa Lucía Utatlán 	7	Santa Rita 	8	Agosto	2023-01-08T00:00:00	2024-11-08T23:00:00	5	Humedad	86
108901	7	Sololá	704	Santa Lucía Utatlán 	7	Santa Rita 	8	Agosto	2023-01-08T00:00:00	2024-11-08T23:00:00	6	Velocidad del viento	6.4
108902	7	Sololá	704	Santa Lucía Utatlán 	7	Santa Rita 	8	Agosto	2023-01-08T00:00:00	2024-11-08T23:00:00	7	Dirección del viento	6.44
108903	7	Sololá	704	Santa Lucía Utatlán 	7	Santa Rita 	8	Agosto	2023-01-08T00:00:00	2024-11-08T23:00:00	1	Precipitación	0.2
108904	7	Sololá	704	Santa Lucía Utatlán 	7	Santa Rita 	8	Agosto	2023-01-08T00:00:00	2024-11-08T23:00:00	8	Radiación solar	0
108905	7	Sololá	704	Santa Lucía Utatlán 	7	Santa Rita 	8	Agosto	2023-02-08T00:00:00	2024-11-08T00:00:00	2	Temperatura media	18.8
108906	7	Sololá	704	Santa Lucía Utatlán 	7	Santa Rita 	8	Agosto	2023-02-08T00:00:00	2024-11-08T00:00:00	4	Temperatura máxima	18.9
108907	7	Sololá	704	Santa Lucía Utatlán 	7	Santa Rita 	8	Agosto	2023-02-08T00:00:00	2024-11-08T00:00:00	3	Temperatura mínima	18.3
108908	7	Sololá	704	Santa Lucía Utatlán 	7	Santa Rita 	8	Agosto	2023-02-08T00:00:00	2024-11-08T00:00:00	5	Humedad	84
108909	7	Sololá	704	Santa Lucía Utatlán 	7	Santa Rita 	8	Agosto	2023-02-08T00:00:00	2024-11-08T00:00:00	6	Velocidad del viento	6.4
108910	7	Sololá	704	Santa Lucía Utatlán 	7	Santa Rita 	8	Agosto	2023-02-08T00:00:00	2024-11-08T00:00:00	7	Dirección del viento	6.44
108911	7	Sololá	704	Santa Lucía Utatlán 	7	Santa Rita 	8	Agosto	2023-02-08T00:00:00	2024-11-08T00:00:00	1	Precipitación	0
108912	7	Sololá	704	Santa Lucía Utatlán 	7	Santa Rita 	8	Agosto	2023-02-08T00:00:00	2024-11-08T00:00:00	8	Radiación solar	0
108913	7	Sololá	704	Santa Lucía Utatlán 	7	Santa Rita 	8	Agosto	2023-02-08T00:00:00	2024-11-08T01:00:00	2	Temperatura media	17.7
108914	7	Sololá	704	Santa Lucía Utatlán 	7	Santa Rita 	8	Agosto	2023-02-08T00:00:00	2024-11-08T01:00:00	4	Temperatura máxima	18.8
108915	7	Sololá	704	Santa Lucía Utatlán 	7	Santa Rita 	8	Agosto	2023-02-08T00:00:00	2024-11-08T01:00:00	3	Temperatura mínima	17.7
108916	7	Sololá	704	Santa Lucía Utatlán 	7	Santa Rita 	8	Agosto	2023-02-08T00:00:00	2024-11-08T01:00:00	5	Humedad	88
108917	7	Sololá	704	Santa Lucía Utatlán 	7	Santa Rita 	8	Agosto	2023-02-08T00:00:00	2024-11-08T01:00:00	6	Velocidad del viento	3.2
108918	7	Sololá	704	Santa Lucía Utatlán 	7	Santa Rita 	8	Agosto	2023-02-08T00:00:00	2024-11-08T01:00:00	7	Dirección del viento	3.22
108919	7	Sololá	704	Santa Lucía Utatlán 	7	Santa Rita 	8	Agosto	2023-02-08T00:00:00	2024-11-08T01:00:00	1	Precipitación	0
108920	7	Sololá	704	Santa Lucía Utatlán 	7	Santa Rita 	8	Agosto	2023-02-08T00:00:00	2024-11-08T01:00:00	8	Radiación solar	0
108921	7	Sololá	704	Santa Lucía Utatlán 	7	Santa Rita 	8	Agosto	2023-02-08T00:00:00	2024-11-08T02:00:00	2	Temperatura media	18.8
108922	7	Sololá	704	Santa Lucía Utatlán 	7	Santa Rita 	8	Agosto	2023-02-08T00:00:00	2024-11-08T02:00:00	4	Temperatura máxima	18.8
108923	7	Sololá	704	Santa Lucía Utatlán 	7	Santa Rita 	8	Agosto	2023-02-08T00:00:00	2024-11-08T02:00:00	3	Temperatura mínima	17.4
108924	7	Sololá	704	Santa Lucía Utatlán 	7	Santa Rita 	8	Agosto	2023-02-08T00:00:00	2024-11-08T02:00:00	5	Humedad	82
108925	7	Sololá	704	Santa Lucía Utatlán 	7	Santa Rita 	8	Agosto	2023-02-08T00:00:00	2024-11-08T02:00:00	6	Velocidad del viento	3.2
108926	7	Sololá	704	Santa Lucía Utatlán 	7	Santa Rita 	8	Agosto	2023-02-08T00:00:00	2024-11-08T02:00:00	7	Dirección del viento	3.22
108927	7	Sololá	704	Santa Lucía Utatlán 	7	Santa Rita 	8	Agosto	2023-02-08T00:00:00	2024-11-08T02:00:00	1	Precipitación	0
108928	7	Sololá	704	Santa Lucía Utatlán 	7	Santa Rita 	8	Agosto	2023-02-08T00:00:00	2024-11-08T02:00:00	8	Radiación solar	0
108929	7	Sololá	704	Santa Lucía Utatlán 	7	Santa Rita 	8	Agosto	2023-02-08T00:00:00	2024-11-08T03:00:00	2	Temperatura media	18.9
108930	7	Sololá	704	Santa Lucía Utatlán 	7	Santa Rita 	8	Agosto	2023-02-08T00:00:00	2024-11-08T03:00:00	4	Temperatura máxima	19.1
108931	7	Sololá	704	Santa Lucía Utatlán 	7	Santa Rita 	8	Agosto	2023-02-08T00:00:00	2024-11-08T03:00:00	3	Temperatura mínima	18.1
108932	7	Sololá	704	Santa Lucía Utatlán 	7	Santa Rita 	8	Agosto	2023-02-08T00:00:00	2024-11-08T03:00:00	5	Humedad	81
108933	7	Sololá	704	Santa Lucía Utatlán 	7	Santa Rita 	8	Agosto	2023-02-08T00:00:00	2024-11-08T03:00:00	6	Velocidad del viento	3.2
108934	7	Sololá	704	Santa Lucía Utatlán 	7	Santa Rita 	8	Agosto	2023-02-08T00:00:00	2024-11-08T03:00:00	7	Dirección del viento	3.22
108935	7	Sololá	704	Santa Lucía Utatlán 	7	Santa Rita 	8	Agosto	2023-02-08T00:00:00	2024-11-08T03:00:00	1	Precipitación	0
108936	7	Sololá	704	Santa Lucía Utatlán 	7	Santa Rita 	8	Agosto	2023-02-08T00:00:00	2024-11-08T03:00:00	8	Radiación solar	0
108937	7	Sololá	704	Santa Lucía Utatlán 	7	Santa Rita 	8	Agosto	2023-02-08T00:00:00	2024-11-08T04:00:00	2	Temperatura media	18.3
108938	7	Sololá	704	Santa Lucía Utatlán 	7	Santa Rita 	8	Agosto	2023-02-08T00:00:00	2024-11-08T04:00:00	4	Temperatura máxima	18.9
108939	7	Sololá	704	Santa Lucía Utatlán 	7	Santa Rita 	8	Agosto	2023-02-08T00:00:00	2024-11-08T04:00:00	3	Temperatura mínima	18.1
108940	7	Sololá	704	Santa Lucía Utatlán 	7	Santa Rita 	8	Agosto	2023-02-08T00:00:00	2024-11-08T04:00:00	5	Humedad	79
108941	7	Sololá	704	Santa Lucía Utatlán 	7	Santa Rita 	8	Agosto	2023-02-08T00:00:00	2024-11-08T04:00:00	6	Velocidad del viento	3.2
108942	7	Sololá	704	Santa Lucía Utatlán 	7	Santa Rita 	8	Agosto	2023-02-08T00:00:00	2024-11-08T04:00:00	7	Dirección del viento	3.22
108943	7	Sololá	704	Santa Lucía Utatlán 	7	Santa Rita 	8	Agosto	2023-02-08T00:00:00	2024-11-08T04:00:00	1	Precipitación	0
108944	7	Sololá	704	Santa Lucía Utatlán 	7	Santa Rita 	8	Agosto	2023-02-08T00:00:00	2024-11-08T04:00:00	8	Radiación solar	0
108945	7	Sololá	704	Santa Lucía Utatlán 	7	Santa Rita 	8	Agosto	2023-02-08T00:00:00	2024-11-08T05:00:00	2	Temperatura media	19.3
108946	7	Sololá	704	Santa Lucía Utatlán 	7	Santa Rita 	8	Agosto	2023-02-08T00:00:00	2024-11-08T05:00:00	4	Temperatura máxima	19.4
108947	7	Sololá	704	Santa Lucía Utatlán 	7	Santa Rita 	8	Agosto	2023-02-08T00:00:00	2024-11-08T05:00:00	3	Temperatura mínima	18.3
108948	7	Sololá	704	Santa Lucía Utatlán 	7	Santa Rita 	8	Agosto	2023-02-08T00:00:00	2024-11-08T05:00:00	5	Humedad	79
108949	7	Sololá	704	Santa Lucía Utatlán 	7	Santa Rita 	8	Agosto	2023-02-08T00:00:00	2024-11-08T05:00:00	6	Velocidad del viento	4.8
108950	7	Sololá	704	Santa Lucía Utatlán 	7	Santa Rita 	8	Agosto	2023-02-08T00:00:00	2024-11-08T05:00:00	7	Dirección del viento	4.83
108951	7	Sololá	704	Santa Lucía Utatlán 	7	Santa Rita 	8	Agosto	2023-02-08T00:00:00	2024-11-08T05:00:00	1	Precipitación	0
108952	7	Sololá	704	Santa Lucía Utatlán 	7	Santa Rita 	8	Agosto	2023-02-08T00:00:00	2024-11-08T05:00:00	8	Radiación solar	0
108953	7	Sololá	704	Santa Lucía Utatlán 	7	Santa Rita 	8	Agosto	2023-02-08T00:00:00	2024-11-08T06:00:00	2	Temperatura media	18.9
108954	7	Sololá	704	Santa Lucía Utatlán 	7	Santa Rita 	8	Agosto	2023-02-08T00:00:00	2024-11-08T06:00:00	4	Temperatura máxima	19.3
108955	7	Sololá	704	Santa Lucía Utatlán 	7	Santa Rita 	8	Agosto	2023-02-08T00:00:00	2024-11-08T06:00:00	3	Temperatura mínima	18.6
108956	7	Sololá	704	Santa Lucía Utatlán 	7	Santa Rita 	8	Agosto	2023-02-08T00:00:00	2024-11-08T06:00:00	5	Humedad	81
108957	7	Sololá	704	Santa Lucía Utatlán 	7	Santa Rita 	8	Agosto	2023-02-08T00:00:00	2024-11-08T06:00:00	6	Velocidad del viento	1.6
108958	7	Sololá	704	Santa Lucía Utatlán 	7	Santa Rita 	8	Agosto	2023-02-08T00:00:00	2024-11-08T06:00:00	7	Dirección del viento	1.61
108959	7	Sololá	704	Santa Lucía Utatlán 	7	Santa Rita 	8	Agosto	2023-02-08T00:00:00	2024-11-08T06:00:00	1	Precipitación	0
108960	7	Sololá	704	Santa Lucía Utatlán 	7	Santa Rita 	8	Agosto	2023-02-08T00:00:00	2024-11-08T06:00:00	8	Radiación solar	0
108961	7	Sololá	704	Santa Lucía Utatlán 	7	Santa Rita 	8	Agosto	2023-02-08T00:00:00	2024-11-08T07:00:00	2	Temperatura media	18.9
108962	7	Sololá	704	Santa Lucía Utatlán 	7	Santa Rita 	8	Agosto	2023-02-08T00:00:00	2024-11-08T07:00:00	4	Temperatura máxima	19
108963	7	Sololá	704	Santa Lucía Utatlán 	7	Santa Rita 	8	Agosto	2023-02-08T00:00:00	2024-11-08T07:00:00	3	Temperatura mínima	18.8
108964	7	Sololá	704	Santa Lucía Utatlán 	7	Santa Rita 	8	Agosto	2023-02-08T00:00:00	2024-11-08T07:00:00	5	Humedad	82
108965	7	Sololá	704	Santa Lucía Utatlán 	7	Santa Rita 	8	Agosto	2023-02-08T00:00:00	2024-11-08T07:00:00	6	Velocidad del viento	1.6
108966	7	Sololá	704	Santa Lucía Utatlán 	7	Santa Rita 	8	Agosto	2023-02-08T00:00:00	2024-11-08T07:00:00	7	Dirección del viento	1.61
108967	7	Sololá	704	Santa Lucía Utatlán 	7	Santa Rita 	8	Agosto	2023-02-08T00:00:00	2024-11-08T07:00:00	1	Precipitación	0
108968	7	Sololá	704	Santa Lucía Utatlán 	7	Santa Rita 	8	Agosto	2023-02-08T00:00:00	2024-11-08T07:00:00	8	Radiación solar	14
108969	7	Sololá	704	Santa Lucía Utatlán 	7	Santa Rita 	8	Agosto	2023-02-08T00:00:00	2024-11-08T08:00:00	2	Temperatura media	19.3
108970	7	Sololá	704	Santa Lucía Utatlán 	7	Santa Rita 	8	Agosto	2023-02-08T00:00:00	2024-11-08T08:00:00	4	Temperatura máxima	19.3
108971	7	Sololá	704	Santa Lucía Utatlán 	7	Santa Rita 	8	Agosto	2023-02-08T00:00:00	2024-11-08T08:00:00	3	Temperatura mínima	18.9
108972	7	Sololá	704	Santa Lucía Utatlán 	7	Santa Rita 	8	Agosto	2023-02-08T00:00:00	2024-11-08T08:00:00	5	Humedad	82
108973	7	Sololá	704	Santa Lucía Utatlán 	7	Santa Rita 	8	Agosto	2023-02-08T00:00:00	2024-11-08T08:00:00	6	Velocidad del viento	1.6
108974	7	Sololá	704	Santa Lucía Utatlán 	7	Santa Rita 	8	Agosto	2023-02-08T00:00:00	2024-11-08T08:00:00	7	Dirección del viento	1.61
108975	7	Sololá	704	Santa Lucía Utatlán 	7	Santa Rita 	8	Agosto	2023-02-08T00:00:00	2024-11-08T08:00:00	1	Precipitación	0
108976	7	Sololá	704	Santa Lucía Utatlán 	7	Santa Rita 	8	Agosto	2023-02-08T00:00:00	2024-11-08T08:00:00	8	Radiación solar	89
108977	7	Sololá	704	Santa Lucía Utatlán 	7	Santa Rita 	8	Agosto	2023-02-08T00:00:00	2024-11-08T09:00:00	2	Temperatura media	20
108978	7	Sololá	704	Santa Lucía Utatlán 	7	Santa Rita 	8	Agosto	2023-02-08T00:00:00	2024-11-08T09:00:00	4	Temperatura máxima	20
108979	7	Sololá	704	Santa Lucía Utatlán 	7	Santa Rita 	8	Agosto	2023-02-08T00:00:00	2024-11-08T09:00:00	3	Temperatura mínima	19.3
108980	7	Sololá	704	Santa Lucía Utatlán 	7	Santa Rita 	8	Agosto	2023-02-08T00:00:00	2024-11-08T09:00:00	5	Humedad	83
108981	7	Sololá	704	Santa Lucía Utatlán 	7	Santa Rita 	8	Agosto	2023-02-08T00:00:00	2024-11-08T09:00:00	6	Velocidad del viento	3.2
108982	7	Sololá	704	Santa Lucía Utatlán 	7	Santa Rita 	8	Agosto	2023-02-08T00:00:00	2024-11-08T09:00:00	7	Dirección del viento	3.22
108983	7	Sololá	704	Santa Lucía Utatlán 	7	Santa Rita 	8	Agosto	2023-02-08T00:00:00	2024-11-08T09:00:00	1	Precipitación	0
108984	7	Sololá	704	Santa Lucía Utatlán 	7	Santa Rita 	8	Agosto	2023-02-08T00:00:00	2024-11-08T09:00:00	8	Radiación solar	176
108985	7	Sololá	704	Santa Lucía Utatlán 	7	Santa Rita 	8	Agosto	2023-02-08T00:00:00	2024-11-08T10:00:00	2	Temperatura media	20.8
108986	7	Sololá	704	Santa Lucía Utatlán 	7	Santa Rita 	8	Agosto	2023-02-08T00:00:00	2024-11-08T10:00:00	4	Temperatura máxima	21.1
108987	7	Sololá	704	Santa Lucía Utatlán 	7	Santa Rita 	8	Agosto	2023-02-08T00:00:00	2024-11-08T10:00:00	3	Temperatura mínima	20
108988	7	Sololá	704	Santa Lucía Utatlán 	7	Santa Rita 	8	Agosto	2023-02-08T00:00:00	2024-11-08T10:00:00	5	Humedad	83
108989	7	Sololá	704	Santa Lucía Utatlán 	7	Santa Rita 	8	Agosto	2023-02-08T00:00:00	2024-11-08T10:00:00	6	Velocidad del viento	3.2
108990	7	Sololá	704	Santa Lucía Utatlán 	7	Santa Rita 	8	Agosto	2023-02-08T00:00:00	2024-11-08T10:00:00	7	Dirección del viento	3.22
108991	7	Sololá	704	Santa Lucía Utatlán 	7	Santa Rita 	8	Agosto	2023-02-08T00:00:00	2024-11-08T10:00:00	1	Precipitación	0
108992	7	Sololá	704	Santa Lucía Utatlán 	7	Santa Rita 	8	Agosto	2023-02-08T00:00:00	2024-11-08T10:00:00	8	Radiación solar	338
108993	7	Sololá	704	Santa Lucía Utatlán 	7	Santa Rita 	8	Agosto	2023-02-08T00:00:00	2024-11-08T11:00:00	2	Temperatura media	20.7
108994	7	Sololá	704	Santa Lucía Utatlán 	7	Santa Rita 	8	Agosto	2023-02-08T00:00:00	2024-11-08T11:00:00	4	Temperatura máxima	20.7
108995	7	Sololá	704	Santa Lucía Utatlán 	7	Santa Rita 	8	Agosto	2023-02-08T00:00:00	2024-11-08T11:00:00	3	Temperatura mínima	20.7
108996	7	Sololá	704	Santa Lucía Utatlán 	7	Santa Rita 	8	Agosto	2023-02-08T00:00:00	2024-11-08T11:00:00	5	Humedad	81
108997	7	Sololá	704	Santa Lucía Utatlán 	7	Santa Rita 	8	Agosto	2023-02-08T00:00:00	2024-11-08T11:00:00	6	Velocidad del viento	6.4
108998	7	Sololá	704	Santa Lucía Utatlán 	7	Santa Rita 	8	Agosto	2023-02-08T00:00:00	2024-11-08T11:00:00	7	Dirección del viento	0.11
108999	7	Sololá	704	Santa Lucía Utatlán 	7	Santa Rita 	8	Agosto	2023-02-08T00:00:00	2024-11-08T11:00:00	1	Precipitación	0
109000	7	Sololá	704	Santa Lucía Utatlán 	7	Santa Rita 	8	Agosto	2023-02-08T00:00:00	2024-11-08T11:00:00	8	Radiación solar	185
109001	7	Sololá	704	Santa Lucía Utatlán 	7	Santa Rita 	8	Agosto	2023-02-08T00:00:00	2024-11-08T12:00:00	2	Temperatura media	20.6
109002	7	Sololá	704	Santa Lucía Utatlán 	7	Santa Rita 	8	Agosto	2023-02-08T00:00:00	2024-11-08T12:00:00	4	Temperatura máxima	20.8
109003	7	Sololá	704	Santa Lucía Utatlán 	7	Santa Rita 	8	Agosto	2023-02-08T00:00:00	2024-11-08T12:00:00	3	Temperatura mínima	20.6
109004	7	Sololá	704	Santa Lucía Utatlán 	7	Santa Rita 	8	Agosto	2023-02-08T00:00:00	2024-11-08T12:00:00	5	Humedad	81
109005	7	Sololá	704	Santa Lucía Utatlán 	7	Santa Rita 	8	Agosto	2023-02-08T00:00:00	2024-11-08T12:00:00	6	Velocidad del viento	6.4
109006	7	Sololá	704	Santa Lucía Utatlán 	7	Santa Rita 	8	Agosto	2023-02-08T00:00:00	2024-11-08T12:00:00	7	Dirección del viento	6.44
109007	7	Sololá	704	Santa Lucía Utatlán 	7	Santa Rita 	8	Agosto	2023-02-08T00:00:00	2024-11-08T12:00:00	1	Precipitación	0
109008	7	Sololá	704	Santa Lucía Utatlán 	7	Santa Rita 	8	Agosto	2023-02-08T00:00:00	2024-11-08T12:00:00	8	Radiación solar	171
109009	7	Sololá	704	Santa Lucía Utatlán 	7	Santa Rita 	8	Agosto	2023-02-08T00:00:00	2024-11-08T13:00:00	2	Temperatura media	20.3
109010	7	Sololá	704	Santa Lucía Utatlán 	7	Santa Rita 	8	Agosto	2023-02-08T00:00:00	2024-11-08T13:00:00	4	Temperatura máxima	20.6
109011	7	Sololá	704	Santa Lucía Utatlán 	7	Santa Rita 	8	Agosto	2023-02-08T00:00:00	2024-11-08T13:00:00	3	Temperatura mínima	20.3
109012	7	Sololá	704	Santa Lucía Utatlán 	7	Santa Rita 	8	Agosto	2023-02-08T00:00:00	2024-11-08T13:00:00	5	Humedad	84
109013	7	Sololá	704	Santa Lucía Utatlán 	7	Santa Rita 	8	Agosto	2023-02-08T00:00:00	2024-11-08T13:00:00	6	Velocidad del viento	4.8
109014	7	Sololá	704	Santa Lucía Utatlán 	7	Santa Rita 	8	Agosto	2023-02-08T00:00:00	2024-11-08T13:00:00	7	Dirección del viento	4.83
109015	7	Sololá	704	Santa Lucía Utatlán 	7	Santa Rita 	8	Agosto	2023-02-08T00:00:00	2024-11-08T13:00:00	1	Precipitación	0
109016	7	Sololá	704	Santa Lucía Utatlán 	7	Santa Rita 	8	Agosto	2023-02-08T00:00:00	2024-11-08T13:00:00	8	Radiación solar	153
109017	7	Sololá	704	Santa Lucía Utatlán 	7	Santa Rita 	8	Agosto	2023-02-08T00:00:00	2024-11-08T14:00:00	2	Temperatura media	20.2
109018	7	Sololá	704	Santa Lucía Utatlán 	7	Santa Rita 	8	Agosto	2023-02-08T00:00:00	2024-11-08T14:00:00	4	Temperatura máxima	20.6
109019	7	Sololá	704	Santa Lucía Utatlán 	7	Santa Rita 	8	Agosto	2023-02-08T00:00:00	2024-11-08T14:00:00	3	Temperatura mínima	20.1
109020	7	Sololá	704	Santa Lucía Utatlán 	7	Santa Rita 	8	Agosto	2023-02-08T00:00:00	2024-11-08T14:00:00	5	Humedad	84
109021	7	Sololá	704	Santa Lucía Utatlán 	7	Santa Rita 	8	Agosto	2023-02-08T00:00:00	2024-11-08T14:00:00	6	Velocidad del viento	4.8
109022	7	Sololá	704	Santa Lucía Utatlán 	7	Santa Rita 	8	Agosto	2023-02-08T00:00:00	2024-11-08T14:00:00	7	Dirección del viento	4.83
109023	7	Sololá	704	Santa Lucía Utatlán 	7	Santa Rita 	8	Agosto	2023-02-08T00:00:00	2024-11-08T14:00:00	1	Precipitación	0
109024	7	Sololá	704	Santa Lucía Utatlán 	7	Santa Rita 	8	Agosto	2023-02-08T00:00:00	2024-11-08T14:00:00	8	Radiación solar	127
109025	7	Sololá	704	Santa Lucía Utatlán 	7	Santa Rita 	8	Agosto	2023-02-08T00:00:00	2024-11-08T15:00:00	2	Temperatura media	20.7
109026	7	Sololá	704	Santa Lucía Utatlán 	7	Santa Rita 	8	Agosto	2023-02-08T00:00:00	2024-11-08T15:00:00	4	Temperatura máxima	20.7
109027	7	Sololá	704	Santa Lucía Utatlán 	7	Santa Rita 	8	Agosto	2023-02-08T00:00:00	2024-11-08T15:00:00	3	Temperatura mínima	19.9
109028	7	Sololá	704	Santa Lucía Utatlán 	7	Santa Rita 	8	Agosto	2023-02-08T00:00:00	2024-11-08T15:00:00	5	Humedad	82
109029	7	Sololá	704	Santa Lucía Utatlán 	7	Santa Rita 	8	Agosto	2023-02-08T00:00:00	2024-11-08T15:00:00	6	Velocidad del viento	1.6
109030	7	Sololá	704	Santa Lucía Utatlán 	7	Santa Rita 	8	Agosto	2023-02-08T00:00:00	2024-11-08T15:00:00	7	Dirección del viento	1.61
109031	7	Sololá	704	Santa Lucía Utatlán 	7	Santa Rita 	8	Agosto	2023-02-08T00:00:00	2024-11-08T15:00:00	1	Precipitación	0
109032	7	Sololá	704	Santa Lucía Utatlán 	7	Santa Rita 	8	Agosto	2023-02-08T00:00:00	2024-11-08T15:00:00	8	Radiación solar	153
109033	7	Sololá	704	Santa Lucía Utatlán 	7	Santa Rita 	8	Agosto	2023-02-08T00:00:00	2024-11-08T16:00:00	2	Temperatura media	21.1
109034	7	Sololá	704	Santa Lucía Utatlán 	7	Santa Rita 	8	Agosto	2023-02-08T00:00:00	2024-11-08T16:00:00	4	Temperatura máxima	21.5
109035	7	Sololá	704	Santa Lucía Utatlán 	7	Santa Rita 	8	Agosto	2023-02-08T00:00:00	2024-11-08T16:00:00	3	Temperatura mínima	20.7
109036	7	Sololá	704	Santa Lucía Utatlán 	7	Santa Rita 	8	Agosto	2023-02-08T00:00:00	2024-11-08T16:00:00	5	Humedad	81
109037	7	Sololá	704	Santa Lucía Utatlán 	7	Santa Rita 	8	Agosto	2023-02-08T00:00:00	2024-11-08T16:00:00	6	Velocidad del viento	3.2
109038	7	Sololá	704	Santa Lucía Utatlán 	7	Santa Rita 	8	Agosto	2023-02-08T00:00:00	2024-11-08T16:00:00	7	Dirección del viento	3.22
109039	7	Sololá	704	Santa Lucía Utatlán 	7	Santa Rita 	8	Agosto	2023-02-08T00:00:00	2024-11-08T16:00:00	1	Precipitación	0
109040	7	Sololá	704	Santa Lucía Utatlán 	7	Santa Rita 	8	Agosto	2023-02-08T00:00:00	2024-11-08T16:00:00	8	Radiación solar	156
109041	7	Sololá	704	Santa Lucía Utatlán 	7	Santa Rita 	8	Agosto	2023-02-08T00:00:00	2024-11-08T17:00:00	2	Temperatura media	20.9
109042	7	Sololá	704	Santa Lucía Utatlán 	7	Santa Rita 	8	Agosto	2023-02-08T00:00:00	2024-11-08T17:00:00	4	Temperatura máxima	21.1
109043	7	Sololá	704	Santa Lucía Utatlán 	7	Santa Rita 	8	Agosto	2023-02-08T00:00:00	2024-11-08T17:00:00	3	Temperatura mínima	20.8
109044	7	Sololá	704	Santa Lucía Utatlán 	7	Santa Rita 	8	Agosto	2023-02-08T00:00:00	2024-11-08T17:00:00	5	Humedad	81
109045	7	Sololá	704	Santa Lucía Utatlán 	7	Santa Rita 	8	Agosto	2023-02-08T00:00:00	2024-11-08T17:00:00	6	Velocidad del viento	4.8
109046	7	Sololá	704	Santa Lucía Utatlán 	7	Santa Rita 	8	Agosto	2023-02-08T00:00:00	2024-11-08T17:00:00	7	Dirección del viento	4.83
109047	7	Sololá	704	Santa Lucía Utatlán 	7	Santa Rita 	8	Agosto	2023-02-08T00:00:00	2024-11-08T17:00:00	1	Precipitación	0
109048	7	Sololá	704	Santa Lucía Utatlán 	7	Santa Rita 	8	Agosto	2023-02-08T00:00:00	2024-11-08T17:00:00	8	Radiación solar	83
109049	7	Sololá	704	Santa Lucía Utatlán 	7	Santa Rita 	8	Agosto	2023-02-08T00:00:00	2024-11-08T18:00:00	2	Temperatura media	20.4
109050	7	Sololá	704	Santa Lucía Utatlán 	7	Santa Rita 	8	Agosto	2023-02-08T00:00:00	2024-11-08T18:00:00	4	Temperatura máxima	20.9
109051	7	Sololá	704	Santa Lucía Utatlán 	7	Santa Rita 	8	Agosto	2023-02-08T00:00:00	2024-11-08T18:00:00	3	Temperatura mínima	20.4
109052	7	Sololá	704	Santa Lucía Utatlán 	7	Santa Rita 	8	Agosto	2023-02-08T00:00:00	2024-11-08T18:00:00	5	Humedad	82
109053	7	Sololá	704	Santa Lucía Utatlán 	7	Santa Rita 	8	Agosto	2023-02-08T00:00:00	2024-11-08T18:00:00	6	Velocidad del viento	3.2
109054	7	Sololá	704	Santa Lucía Utatlán 	7	Santa Rita 	8	Agosto	2023-02-08T00:00:00	2024-11-08T18:00:00	7	Dirección del viento	3.22
109055	7	Sololá	704	Santa Lucía Utatlán 	7	Santa Rita 	8	Agosto	2023-02-08T00:00:00	2024-11-08T18:00:00	1	Precipitación	0
109056	7	Sololá	704	Santa Lucía Utatlán 	7	Santa Rita 	8	Agosto	2023-02-08T00:00:00	2024-11-08T18:00:00	8	Radiación solar	15
109057	7	Sololá	704	Santa Lucía Utatlán 	7	Santa Rita 	8	Agosto	2023-02-08T00:00:00	2024-11-08T19:00:00	2	Temperatura media	19.9
109058	7	Sololá	704	Santa Lucía Utatlán 	7	Santa Rita 	8	Agosto	2023-02-08T00:00:00	2024-11-08T19:00:00	4	Temperatura máxima	20.4
109059	7	Sololá	704	Santa Lucía Utatlán 	7	Santa Rita 	8	Agosto	2023-02-08T00:00:00	2024-11-08T19:00:00	3	Temperatura mínima	19.9
109060	7	Sololá	704	Santa Lucía Utatlán 	7	Santa Rita 	8	Agosto	2023-02-08T00:00:00	2024-11-08T19:00:00	5	Humedad	83
109061	7	Sololá	704	Santa Lucía Utatlán 	7	Santa Rita 	8	Agosto	2023-02-08T00:00:00	2024-11-08T19:00:00	6	Velocidad del viento	1.6
109062	7	Sololá	704	Santa Lucía Utatlán 	7	Santa Rita 	8	Agosto	2023-02-08T00:00:00	2024-11-08T19:00:00	7	Dirección del viento	1.61
109063	7	Sololá	704	Santa Lucía Utatlán 	7	Santa Rita 	8	Agosto	2023-02-08T00:00:00	2024-11-08T19:00:00	1	Precipitación	0
109064	7	Sololá	704	Santa Lucía Utatlán 	7	Santa Rita 	8	Agosto	2023-02-08T00:00:00	2024-11-08T19:00:00	8	Radiación solar	0
109065	7	Sololá	704	Santa Lucía Utatlán 	7	Santa Rita 	8	Agosto	2023-02-08T00:00:00	2024-11-08T20:00:00	2	Temperatura media	19.8
109066	7	Sololá	704	Santa Lucía Utatlán 	7	Santa Rita 	8	Agosto	2023-02-08T00:00:00	2024-11-08T20:00:00	4	Temperatura máxima	20.1
109067	7	Sololá	704	Santa Lucía Utatlán 	7	Santa Rita 	8	Agosto	2023-02-08T00:00:00	2024-11-08T20:00:00	3	Temperatura mínima	19.8
109068	7	Sololá	704	Santa Lucía Utatlán 	7	Santa Rita 	8	Agosto	2023-02-08T00:00:00	2024-11-08T20:00:00	5	Humedad	83
109069	7	Sololá	704	Santa Lucía Utatlán 	7	Santa Rita 	8	Agosto	2023-02-08T00:00:00	2024-11-08T20:00:00	6	Velocidad del viento	3.2
109070	7	Sololá	704	Santa Lucía Utatlán 	7	Santa Rita 	8	Agosto	2023-02-08T00:00:00	2024-11-08T20:00:00	7	Dirección del viento	3.22
109071	7	Sololá	704	Santa Lucía Utatlán 	7	Santa Rita 	8	Agosto	2023-02-08T00:00:00	2024-11-08T20:00:00	1	Precipitación	0
109072	7	Sololá	704	Santa Lucía Utatlán 	7	Santa Rita 	8	Agosto	2023-02-08T00:00:00	2024-11-08T20:00:00	8	Radiación solar	0
109073	7	Sololá	704	Santa Lucía Utatlán 	7	Santa Rita 	8	Agosto	2023-02-08T00:00:00	2024-11-08T21:00:00	2	Temperatura media	19.8
109074	7	Sololá	704	Santa Lucía Utatlán 	7	Santa Rita 	8	Agosto	2023-02-08T00:00:00	2024-11-08T21:00:00	4	Temperatura máxima	19.9
109075	7	Sololá	704	Santa Lucía Utatlán 	7	Santa Rita 	8	Agosto	2023-02-08T00:00:00	2024-11-08T21:00:00	3	Temperatura mínima	19.8
109076	7	Sololá	704	Santa Lucía Utatlán 	7	Santa Rita 	8	Agosto	2023-02-08T00:00:00	2024-11-08T21:00:00	5	Humedad	83
109077	7	Sololá	704	Santa Lucía Utatlán 	7	Santa Rita 	8	Agosto	2023-02-08T00:00:00	2024-11-08T21:00:00	6	Velocidad del viento	3.2
109078	7	Sololá	704	Santa Lucía Utatlán 	7	Santa Rita 	8	Agosto	2023-02-08T00:00:00	2024-11-08T21:00:00	7	Dirección del viento	3.22
109079	7	Sololá	704	Santa Lucía Utatlán 	7	Santa Rita 	8	Agosto	2023-02-08T00:00:00	2024-11-08T21:00:00	1	Precipitación	0
109080	7	Sololá	704	Santa Lucía Utatlán 	7	Santa Rita 	8	Agosto	2023-02-08T00:00:00	2024-11-08T21:00:00	8	Radiación solar	0
109081	7	Sololá	704	Santa Lucía Utatlán 	7	Santa Rita 	8	Agosto	2023-02-08T00:00:00	2024-11-08T22:00:00	2	Temperatura media	19.8
109082	7	Sololá	704	Santa Lucía Utatlán 	7	Santa Rita 	8	Agosto	2023-02-08T00:00:00	2024-11-08T22:00:00	4	Temperatura máxima	19.9
109083	7	Sololá	704	Santa Lucía Utatlán 	7	Santa Rita 	8	Agosto	2023-02-08T00:00:00	2024-11-08T22:00:00	3	Temperatura mínima	19.8
109084	7	Sololá	704	Santa Lucía Utatlán 	7	Santa Rita 	8	Agosto	2023-02-08T00:00:00	2024-11-08T22:00:00	5	Humedad	86
109085	7	Sololá	704	Santa Lucía Utatlán 	7	Santa Rita 	8	Agosto	2023-02-08T00:00:00	2024-11-08T22:00:00	6	Velocidad del viento	1.6
109086	7	Sololá	704	Santa Lucía Utatlán 	7	Santa Rita 	8	Agosto	2023-02-08T00:00:00	2024-11-08T22:00:00	7	Dirección del viento	1.61
109087	7	Sololá	704	Santa Lucía Utatlán 	7	Santa Rita 	8	Agosto	2023-02-08T00:00:00	2024-11-08T22:00:00	1	Precipitación	0
109088	7	Sololá	704	Santa Lucía Utatlán 	7	Santa Rita 	8	Agosto	2023-02-08T00:00:00	2024-11-08T22:00:00	8	Radiación solar	0
109089	7	Sololá	704	Santa Lucía Utatlán 	7	Santa Rita 	8	Agosto	2023-02-08T00:00:00	2024-11-08T23:00:00	2	Temperatura media	19.4
109090	7	Sololá	704	Santa Lucía Utatlán 	7	Santa Rita 	8	Agosto	2023-02-08T00:00:00	2024-11-08T23:00:00	4	Temperatura máxima	19.8
109091	7	Sololá	704	Santa Lucía Utatlán 	7	Santa Rita 	8	Agosto	2023-02-08T00:00:00	2024-11-08T23:00:00	3	Temperatura mínima	19.3
109092	7	Sololá	704	Santa Lucía Utatlán 	7	Santa Rita 	8	Agosto	2023-02-08T00:00:00	2024-11-08T23:00:00	5	Humedad	86
109093	7	Sololá	704	Santa Lucía Utatlán 	7	Santa Rita 	8	Agosto	2023-02-08T00:00:00	2024-11-08T23:00:00	6	Velocidad del viento	1.6
109094	7	Sololá	704	Santa Lucía Utatlán 	7	Santa Rita 	8	Agosto	2023-02-08T00:00:00	2024-11-08T23:00:00	7	Dirección del viento	1.61
109095	7	Sololá	704	Santa Lucía Utatlán 	7	Santa Rita 	8	Agosto	2023-02-08T00:00:00	2024-11-08T23:00:00	1	Precipitación	0
109096	7	Sololá	704	Santa Lucía Utatlán 	7	Santa Rita 	8	Agosto	2023-02-08T00:00:00	2024-11-08T23:00:00	8	Radiación solar	0
109097	7	Sololá	704	Santa Lucía Utatlán 	7	Santa Rita 	8	Agosto	2023-03-08T00:00:00	2024-11-08T00:00:00	2	Temperatura media	18.9
109098	7	Sololá	704	Santa Lucía Utatlán 	7	Santa Rita 	8	Agosto	2023-03-08T00:00:00	2024-11-08T00:00:00	4	Temperatura máxima	19.6
109099	7	Sololá	704	Santa Lucía Utatlán 	7	Santa Rita 	8	Agosto	2023-03-08T00:00:00	2024-11-08T00:00:00	3	Temperatura mínima	18.9
109100	7	Sololá	704	Santa Lucía Utatlán 	7	Santa Rita 	8	Agosto	2023-03-08T00:00:00	2024-11-08T00:00:00	5	Humedad	90
109101	7	Sololá	704	Santa Lucía Utatlán 	7	Santa Rita 	8	Agosto	2023-03-08T00:00:00	2024-11-08T00:00:00	6	Velocidad del viento	1.6
109102	7	Sololá	704	Santa Lucía Utatlán 	7	Santa Rita 	8	Agosto	2023-03-08T00:00:00	2024-11-08T00:00:00	7	Dirección del viento	1.61
109103	7	Sololá	704	Santa Lucía Utatlán 	7	Santa Rita 	8	Agosto	2023-03-08T00:00:00	2024-11-08T00:00:00	1	Precipitación	0
109104	7	Sololá	704	Santa Lucía Utatlán 	7	Santa Rita 	8	Agosto	2023-03-08T00:00:00	2024-11-08T00:00:00	8	Radiación solar	0
109105	7	Sololá	704	Santa Lucía Utatlán 	7	Santa Rita 	8	Agosto	2023-03-08T00:00:00	2024-11-08T01:00:00	2	Temperatura media	19.4
109106	7	Sololá	704	Santa Lucía Utatlán 	7	Santa Rita 	8	Agosto	2023-03-08T00:00:00	2024-11-08T01:00:00	4	Temperatura máxima	19.4
109107	7	Sololá	704	Santa Lucía Utatlán 	7	Santa Rita 	8	Agosto	2023-03-08T00:00:00	2024-11-08T01:00:00	3	Temperatura mínima	18.8
109108	7	Sololá	704	Santa Lucía Utatlán 	7	Santa Rita 	8	Agosto	2023-03-08T00:00:00	2024-11-08T01:00:00	5	Humedad	87
109109	7	Sololá	704	Santa Lucía Utatlán 	7	Santa Rita 	8	Agosto	2023-03-08T00:00:00	2024-11-08T01:00:00	6	Velocidad del viento	1.6
109110	7	Sololá	704	Santa Lucía Utatlán 	7	Santa Rita 	8	Agosto	2023-03-08T00:00:00	2024-11-08T01:00:00	7	Dirección del viento	1.61
109111	7	Sololá	704	Santa Lucía Utatlán 	7	Santa Rita 	8	Agosto	2023-03-08T00:00:00	2024-11-08T01:00:00	1	Precipitación	0
109112	7	Sololá	704	Santa Lucía Utatlán 	7	Santa Rita 	8	Agosto	2023-03-08T00:00:00	2024-11-08T01:00:00	8	Radiación solar	0
109113	7	Sololá	704	Santa Lucía Utatlán 	7	Santa Rita 	8	Agosto	2023-03-08T00:00:00	2024-11-08T02:00:00	2	Temperatura media	18.3
109114	7	Sololá	704	Santa Lucía Utatlán 	7	Santa Rita 	8	Agosto	2023-03-08T00:00:00	2024-11-08T02:00:00	4	Temperatura máxima	19.7
109115	7	Sololá	704	Santa Lucía Utatlán 	7	Santa Rita 	8	Agosto	2023-03-08T00:00:00	2024-11-08T02:00:00	3	Temperatura mínima	18.3
109116	7	Sololá	704	Santa Lucía Utatlán 	7	Santa Rita 	8	Agosto	2023-03-08T00:00:00	2024-11-08T02:00:00	5	Humedad	88
109117	7	Sololá	704	Santa Lucía Utatlán 	7	Santa Rita 	8	Agosto	2023-03-08T00:00:00	2024-11-08T02:00:00	6	Velocidad del viento	3.2
109118	7	Sololá	704	Santa Lucía Utatlán 	7	Santa Rita 	8	Agosto	2023-03-08T00:00:00	2024-11-08T02:00:00	7	Dirección del viento	3.22
109119	7	Sololá	704	Santa Lucía Utatlán 	7	Santa Rita 	8	Agosto	2023-03-08T00:00:00	2024-11-08T02:00:00	1	Precipitación	0
109120	7	Sololá	704	Santa Lucía Utatlán 	7	Santa Rita 	8	Agosto	2023-03-08T00:00:00	2024-11-08T02:00:00	8	Radiación solar	0
109121	7	Sololá	704	Santa Lucía Utatlán 	7	Santa Rita 	8	Agosto	2023-03-08T00:00:00	2024-11-08T03:00:00	2	Temperatura media	17.9
109122	7	Sololá	704	Santa Lucía Utatlán 	7	Santa Rita 	8	Agosto	2023-03-08T00:00:00	2024-11-08T03:00:00	4	Temperatura máxima	18.3
109123	7	Sololá	704	Santa Lucía Utatlán 	7	Santa Rita 	8	Agosto	2023-03-08T00:00:00	2024-11-08T03:00:00	3	Temperatura mínima	17.8
109124	7	Sololá	704	Santa Lucía Utatlán 	7	Santa Rita 	8	Agosto	2023-03-08T00:00:00	2024-11-08T03:00:00	5	Humedad	89
109125	7	Sololá	704	Santa Lucía Utatlán 	7	Santa Rita 	8	Agosto	2023-03-08T00:00:00	2024-11-08T03:00:00	6	Velocidad del viento	3.2
109126	7	Sololá	704	Santa Lucía Utatlán 	7	Santa Rita 	8	Agosto	2023-03-08T00:00:00	2024-11-08T03:00:00	7	Dirección del viento	3.22
109127	7	Sololá	704	Santa Lucía Utatlán 	7	Santa Rita 	8	Agosto	2023-03-08T00:00:00	2024-11-08T03:00:00	1	Precipitación	0
109128	7	Sololá	704	Santa Lucía Utatlán 	7	Santa Rita 	8	Agosto	2023-03-08T00:00:00	2024-11-08T03:00:00	8	Radiación solar	0
109129	7	Sololá	704	Santa Lucía Utatlán 	7	Santa Rita 	8	Agosto	2023-03-08T00:00:00	2024-11-08T04:00:00	2	Temperatura media	19.3
109130	7	Sololá	704	Santa Lucía Utatlán 	7	Santa Rita 	8	Agosto	2023-03-08T00:00:00	2024-11-08T04:00:00	4	Temperatura máxima	19.4
109131	7	Sololá	704	Santa Lucía Utatlán 	7	Santa Rita 	8	Agosto	2023-03-08T00:00:00	2024-11-08T04:00:00	3	Temperatura mínima	17.9
109132	7	Sololá	704	Santa Lucía Utatlán 	7	Santa Rita 	8	Agosto	2023-03-08T00:00:00	2024-11-08T04:00:00	5	Humedad	81
109133	7	Sololá	704	Santa Lucía Utatlán 	7	Santa Rita 	8	Agosto	2023-03-08T00:00:00	2024-11-08T04:00:00	6	Velocidad del viento	4.8
109134	7	Sololá	704	Santa Lucía Utatlán 	7	Santa Rita 	8	Agosto	2023-03-08T00:00:00	2024-11-08T04:00:00	7	Dirección del viento	4.83
109135	7	Sololá	704	Santa Lucía Utatlán 	7	Santa Rita 	8	Agosto	2023-03-08T00:00:00	2024-11-08T04:00:00	1	Precipitación	0
109136	7	Sololá	704	Santa Lucía Utatlán 	7	Santa Rita 	8	Agosto	2023-03-08T00:00:00	2024-11-08T04:00:00	8	Radiación solar	0
109137	7	Sololá	704	Santa Lucía Utatlán 	7	Santa Rita 	8	Agosto	2023-03-08T00:00:00	2024-11-08T05:00:00	2	Temperatura media	17.6
109138	7	Sololá	704	Santa Lucía Utatlán 	7	Santa Rita 	8	Agosto	2023-03-08T00:00:00	2024-11-08T05:00:00	4	Temperatura máxima	19.3
109139	7	Sololá	704	Santa Lucía Utatlán 	7	Santa Rita 	8	Agosto	2023-03-08T00:00:00	2024-11-08T05:00:00	3	Temperatura mínima	17.6
109140	7	Sololá	704	Santa Lucía Utatlán 	7	Santa Rita 	8	Agosto	2023-03-08T00:00:00	2024-11-08T05:00:00	5	Humedad	86
109141	7	Sololá	704	Santa Lucía Utatlán 	7	Santa Rita 	8	Agosto	2023-03-08T00:00:00	2024-11-08T05:00:00	6	Velocidad del viento	3.2
109142	7	Sololá	704	Santa Lucía Utatlán 	7	Santa Rita 	8	Agosto	2023-03-08T00:00:00	2024-11-08T05:00:00	7	Dirección del viento	3.22
109143	7	Sololá	704	Santa Lucía Utatlán 	7	Santa Rita 	8	Agosto	2023-03-08T00:00:00	2024-11-08T05:00:00	1	Precipitación	0
109144	7	Sololá	704	Santa Lucía Utatlán 	7	Santa Rita 	8	Agosto	2023-03-08T00:00:00	2024-11-08T05:00:00	8	Radiación solar	0
109145	7	Sololá	704	Santa Lucía Utatlán 	7	Santa Rita 	8	Agosto	2023-03-08T00:00:00	2024-11-08T06:00:00	2	Temperatura media	17.7
109146	7	Sololá	704	Santa Lucía Utatlán 	7	Santa Rita 	8	Agosto	2023-03-08T00:00:00	2024-11-08T06:00:00	4	Temperatura máxima	17.8
109147	7	Sololá	704	Santa Lucía Utatlán 	7	Santa Rita 	8	Agosto	2023-03-08T00:00:00	2024-11-08T06:00:00	3	Temperatura mínima	17.3
109148	7	Sololá	704	Santa Lucía Utatlán 	7	Santa Rita 	8	Agosto	2023-03-08T00:00:00	2024-11-08T06:00:00	5	Humedad	85
109149	7	Sololá	704	Santa Lucía Utatlán 	7	Santa Rita 	8	Agosto	2023-03-08T00:00:00	2024-11-08T06:00:00	6	Velocidad del viento	6.4
109150	7	Sololá	704	Santa Lucía Utatlán 	7	Santa Rita 	8	Agosto	2023-03-08T00:00:00	2024-11-08T06:00:00	7	Dirección del viento	6.44
109151	7	Sololá	704	Santa Lucía Utatlán 	7	Santa Rita 	8	Agosto	2023-03-08T00:00:00	2024-11-08T06:00:00	1	Precipitación	0
109152	7	Sololá	704	Santa Lucía Utatlán 	7	Santa Rita 	8	Agosto	2023-03-08T00:00:00	2024-11-08T06:00:00	8	Radiación solar	1
109153	7	Sololá	704	Santa Lucía Utatlán 	7	Santa Rita 	8	Agosto	2023-03-08T00:00:00	2024-11-08T07:00:00	2	Temperatura media	19.7
109154	7	Sololá	704	Santa Lucía Utatlán 	7	Santa Rita 	8	Agosto	2023-03-08T00:00:00	2024-11-08T07:00:00	4	Temperatura máxima	19.7
109155	7	Sololá	704	Santa Lucía Utatlán 	7	Santa Rita 	8	Agosto	2023-03-08T00:00:00	2024-11-08T07:00:00	3	Temperatura mínima	17.6
109156	7	Sololá	704	Santa Lucía Utatlán 	7	Santa Rita 	8	Agosto	2023-03-08T00:00:00	2024-11-08T07:00:00	5	Humedad	82
109157	7	Sololá	704	Santa Lucía Utatlán 	7	Santa Rita 	8	Agosto	2023-03-08T00:00:00	2024-11-08T07:00:00	6	Velocidad del viento	4.8
109158	7	Sololá	704	Santa Lucía Utatlán 	7	Santa Rita 	8	Agosto	2023-03-08T00:00:00	2024-11-08T07:00:00	7	Dirección del viento	4.83
109159	7	Sololá	704	Santa Lucía Utatlán 	7	Santa Rita 	8	Agosto	2023-03-08T00:00:00	2024-11-08T07:00:00	1	Precipitación	0
109160	7	Sololá	704	Santa Lucía Utatlán 	7	Santa Rita 	8	Agosto	2023-03-08T00:00:00	2024-11-08T07:00:00	8	Radiación solar	64
109161	7	Sololá	704	Santa Lucía Utatlán 	7	Santa Rita 	8	Agosto	2023-03-08T00:00:00	2024-11-08T08:00:00	2	Temperatura media	22.6
109162	7	Sololá	704	Santa Lucía Utatlán 	7	Santa Rita 	8	Agosto	2023-03-08T00:00:00	2024-11-08T08:00:00	4	Temperatura máxima	22.6
109163	7	Sololá	704	Santa Lucía Utatlán 	7	Santa Rita 	8	Agosto	2023-03-08T00:00:00	2024-11-08T08:00:00	3	Temperatura mínima	19.7
109164	7	Sololá	704	Santa Lucía Utatlán 	7	Santa Rita 	8	Agosto	2023-03-08T00:00:00	2024-11-08T08:00:00	5	Humedad	76
109165	7	Sololá	704	Santa Lucía Utatlán 	7	Santa Rita 	8	Agosto	2023-03-08T00:00:00	2024-11-08T08:00:00	6	Velocidad del viento	3.2
109166	7	Sololá	704	Santa Lucía Utatlán 	7	Santa Rita 	8	Agosto	2023-03-08T00:00:00	2024-11-08T08:00:00	7	Dirección del viento	3.22
109167	7	Sololá	704	Santa Lucía Utatlán 	7	Santa Rita 	8	Agosto	2023-03-08T00:00:00	2024-11-08T08:00:00	1	Precipitación	0
109168	7	Sololá	704	Santa Lucía Utatlán 	7	Santa Rita 	8	Agosto	2023-03-08T00:00:00	2024-11-08T08:00:00	8	Radiación solar	348
109169	7	Sololá	704	Santa Lucía Utatlán 	7	Santa Rita 	8	Agosto	2023-03-08T00:00:00	2024-11-08T09:00:00	2	Temperatura media	23.4
109170	7	Sololá	704	Santa Lucía Utatlán 	7	Santa Rita 	8	Agosto	2023-03-08T00:00:00	2024-11-08T09:00:00	4	Temperatura máxima	23.4
109171	7	Sololá	704	Santa Lucía Utatlán 	7	Santa Rita 	8	Agosto	2023-03-08T00:00:00	2024-11-08T09:00:00	3	Temperatura mínima	22.6
109172	7	Sololá	704	Santa Lucía Utatlán 	7	Santa Rita 	8	Agosto	2023-03-08T00:00:00	2024-11-08T09:00:00	5	Humedad	73
109173	7	Sololá	704	Santa Lucía Utatlán 	7	Santa Rita 	8	Agosto	2023-03-08T00:00:00	2024-11-08T09:00:00	6	Velocidad del viento	6.4
109174	7	Sololá	704	Santa Lucía Utatlán 	7	Santa Rita 	8	Agosto	2023-03-08T00:00:00	2024-11-08T09:00:00	7	Dirección del viento	6.44
109175	7	Sololá	704	Santa Lucía Utatlán 	7	Santa Rita 	8	Agosto	2023-03-08T00:00:00	2024-11-08T09:00:00	1	Precipitación	0
109176	7	Sololá	704	Santa Lucía Utatlán 	7	Santa Rita 	8	Agosto	2023-03-08T00:00:00	2024-11-08T09:00:00	8	Radiación solar	620
109177	7	Sololá	704	Santa Lucía Utatlán 	7	Santa Rita 	8	Agosto	2023-03-08T00:00:00	2024-11-08T10:00:00	2	Temperatura media	24.6
109178	7	Sololá	704	Santa Lucía Utatlán 	7	Santa Rita 	8	Agosto	2023-03-08T00:00:00	2024-11-08T10:00:00	4	Temperatura máxima	24.6
109179	7	Sololá	704	Santa Lucía Utatlán 	7	Santa Rita 	8	Agosto	2023-03-08T00:00:00	2024-11-08T10:00:00	3	Temperatura mínima	23.4
109180	7	Sololá	704	Santa Lucía Utatlán 	7	Santa Rita 	8	Agosto	2023-03-08T00:00:00	2024-11-08T10:00:00	5	Humedad	71
109181	7	Sololá	704	Santa Lucía Utatlán 	7	Santa Rita 	8	Agosto	2023-03-08T00:00:00	2024-11-08T10:00:00	6	Velocidad del viento	6.4
109182	7	Sololá	704	Santa Lucía Utatlán 	7	Santa Rita 	8	Agosto	2023-03-08T00:00:00	2024-11-08T10:00:00	7	Dirección del viento	6.44
109183	7	Sololá	704	Santa Lucía Utatlán 	7	Santa Rita 	8	Agosto	2023-03-08T00:00:00	2024-11-08T10:00:00	1	Precipitación	0
109184	7	Sololá	704	Santa Lucía Utatlán 	7	Santa Rita 	8	Agosto	2023-03-08T00:00:00	2024-11-08T10:00:00	8	Radiación solar	827
109185	7	Sololá	704	Santa Lucía Utatlán 	7	Santa Rita 	8	Agosto	2023-03-08T00:00:00	2024-11-08T11:00:00	2	Temperatura media	23.3
109186	7	Sololá	704	Santa Lucía Utatlán 	7	Santa Rita 	8	Agosto	2023-03-08T00:00:00	2024-11-08T11:00:00	4	Temperatura máxima	24.6
109187	7	Sololá	704	Santa Lucía Utatlán 	7	Santa Rita 	8	Agosto	2023-03-08T00:00:00	2024-11-08T11:00:00	3	Temperatura mínima	23.3
109188	7	Sololá	704	Santa Lucía Utatlán 	7	Santa Rita 	8	Agosto	2023-03-08T00:00:00	2024-11-08T11:00:00	5	Humedad	76
109189	7	Sololá	704	Santa Lucía Utatlán 	7	Santa Rita 	8	Agosto	2023-03-08T00:00:00	2024-11-08T11:00:00	6	Velocidad del viento	6.4
109190	7	Sololá	704	Santa Lucía Utatlán 	7	Santa Rita 	8	Agosto	2023-03-08T00:00:00	2024-11-08T11:00:00	7	Dirección del viento	6.44
109191	7	Sololá	704	Santa Lucía Utatlán 	7	Santa Rita 	8	Agosto	2023-03-08T00:00:00	2024-11-08T11:00:00	1	Precipitación	0
109192	7	Sololá	704	Santa Lucía Utatlán 	7	Santa Rita 	8	Agosto	2023-03-08T00:00:00	2024-11-08T11:00:00	8	Radiación solar	507
109193	7	Sololá	704	Santa Lucía Utatlán 	7	Santa Rita 	8	Agosto	2023-03-08T00:00:00	2024-11-08T12:00:00	2	Temperatura media	23.5
109194	7	Sololá	704	Santa Lucía Utatlán 	7	Santa Rita 	8	Agosto	2023-03-08T00:00:00	2024-11-08T12:00:00	4	Temperatura máxima	23.5
109195	7	Sololá	704	Santa Lucía Utatlán 	7	Santa Rita 	8	Agosto	2023-03-08T00:00:00	2024-11-08T12:00:00	3	Temperatura mínima	22.8
109196	7	Sololá	704	Santa Lucía Utatlán 	7	Santa Rita 	8	Agosto	2023-03-08T00:00:00	2024-11-08T12:00:00	5	Humedad	76
109197	7	Sololá	704	Santa Lucía Utatlán 	7	Santa Rita 	8	Agosto	2023-03-08T00:00:00	2024-11-08T12:00:00	6	Velocidad del viento	4.8
109198	7	Sololá	704	Santa Lucía Utatlán 	7	Santa Rita 	8	Agosto	2023-03-08T00:00:00	2024-11-08T12:00:00	7	Dirección del viento	4.83
109199	7	Sololá	704	Santa Lucía Utatlán 	7	Santa Rita 	8	Agosto	2023-03-08T00:00:00	2024-11-08T12:00:00	1	Precipitación	0
109200	7	Sololá	704	Santa Lucía Utatlán 	7	Santa Rita 	8	Agosto	2023-03-08T00:00:00	2024-11-08T12:00:00	8	Radiación solar	290
109201	7	Sololá	704	Santa Lucía Utatlán 	7	Santa Rita 	8	Agosto	2023-03-08T00:00:00	2024-11-08T13:00:00	2	Temperatura media	21.1
109202	7	Sololá	704	Santa Lucía Utatlán 	7	Santa Rita 	8	Agosto	2023-03-08T00:00:00	2024-11-08T13:00:00	4	Temperatura máxima	23.5
109203	7	Sololá	704	Santa Lucía Utatlán 	7	Santa Rita 	8	Agosto	2023-03-08T00:00:00	2024-11-08T13:00:00	3	Temperatura mínima	21.1
109204	7	Sololá	704	Santa Lucía Utatlán 	7	Santa Rita 	8	Agosto	2023-03-08T00:00:00	2024-11-08T13:00:00	5	Humedad	87
109205	7	Sololá	704	Santa Lucía Utatlán 	7	Santa Rita 	8	Agosto	2023-03-08T00:00:00	2024-11-08T13:00:00	6	Velocidad del viento	4.8
109206	7	Sololá	704	Santa Lucía Utatlán 	7	Santa Rita 	8	Agosto	2023-03-08T00:00:00	2024-11-08T13:00:00	7	Dirección del viento	4.83
109207	7	Sololá	704	Santa Lucía Utatlán 	7	Santa Rita 	8	Agosto	2023-03-08T00:00:00	2024-11-08T13:00:00	1	Precipitación	0
109208	7	Sololá	704	Santa Lucía Utatlán 	7	Santa Rita 	8	Agosto	2023-03-08T00:00:00	2024-11-08T13:00:00	8	Radiación solar	118
109209	7	Sololá	704	Santa Lucía Utatlán 	7	Santa Rita 	8	Agosto	2023-03-08T00:00:00	2024-11-08T14:00:00	2	Temperatura media	20.4
109210	7	Sololá	704	Santa Lucía Utatlán 	7	Santa Rita 	8	Agosto	2023-03-08T00:00:00	2024-11-08T14:00:00	4	Temperatura máxima	21.1
109211	7	Sololá	704	Santa Lucía Utatlán 	7	Santa Rita 	8	Agosto	2023-03-08T00:00:00	2024-11-08T14:00:00	3	Temperatura mínima	20.4
109212	7	Sololá	704	Santa Lucía Utatlán 	7	Santa Rita 	8	Agosto	2023-03-08T00:00:00	2024-11-08T14:00:00	5	Humedad	89
109213	7	Sololá	704	Santa Lucía Utatlán 	7	Santa Rita 	8	Agosto	2023-03-08T00:00:00	2024-11-08T14:00:00	6	Velocidad del viento	3.2
109214	7	Sololá	704	Santa Lucía Utatlán 	7	Santa Rita 	8	Agosto	2023-03-08T00:00:00	2024-11-08T14:00:00	7	Dirección del viento	3.22
109215	7	Sololá	704	Santa Lucía Utatlán 	7	Santa Rita 	8	Agosto	2023-03-08T00:00:00	2024-11-08T14:00:00	1	Precipitación	0.8
109216	7	Sololá	704	Santa Lucía Utatlán 	7	Santa Rita 	8	Agosto	2023-03-08T00:00:00	2024-11-08T14:00:00	8	Radiación solar	85
109217	7	Sololá	704	Santa Lucía Utatlán 	7	Santa Rita 	8	Agosto	2023-03-08T00:00:00	2024-11-08T15:00:00	2	Temperatura media	23
109218	7	Sololá	704	Santa Lucía Utatlán 	7	Santa Rita 	8	Agosto	2023-03-08T00:00:00	2024-11-08T15:00:00	4	Temperatura máxima	23
109219	7	Sololá	704	Santa Lucía Utatlán 	7	Santa Rita 	8	Agosto	2023-03-08T00:00:00	2024-11-08T15:00:00	3	Temperatura mínima	20.1
109220	7	Sololá	704	Santa Lucía Utatlán 	7	Santa Rita 	8	Agosto	2023-03-08T00:00:00	2024-11-08T15:00:00	5	Humedad	75
109221	7	Sololá	704	Santa Lucía Utatlán 	7	Santa Rita 	8	Agosto	2023-03-08T00:00:00	2024-11-08T15:00:00	6	Velocidad del viento	1.6
109222	7	Sololá	704	Santa Lucía Utatlán 	7	Santa Rita 	8	Agosto	2023-03-08T00:00:00	2024-11-08T15:00:00	7	Dirección del viento	1.61
109223	7	Sololá	704	Santa Lucía Utatlán 	7	Santa Rita 	8	Agosto	2023-03-08T00:00:00	2024-11-08T15:00:00	1	Precipitación	0.8
109224	7	Sololá	704	Santa Lucía Utatlán 	7	Santa Rita 	8	Agosto	2023-03-08T00:00:00	2024-11-08T15:00:00	8	Radiación solar	310
109225	7	Sololá	704	Santa Lucía Utatlán 	7	Santa Rita 	8	Agosto	2023-03-08T00:00:00	2024-11-08T16:00:00	2	Temperatura media	22
109226	7	Sololá	704	Santa Lucía Utatlán 	7	Santa Rita 	8	Agosto	2023-03-08T00:00:00	2024-11-08T16:00:00	4	Temperatura máxima	23.4
109227	7	Sololá	704	Santa Lucía Utatlán 	7	Santa Rita 	8	Agosto	2023-03-08T00:00:00	2024-11-08T16:00:00	3	Temperatura mínima	21.9
109228	7	Sololá	704	Santa Lucía Utatlán 	7	Santa Rita 	8	Agosto	2023-03-08T00:00:00	2024-11-08T16:00:00	5	Humedad	80
109229	7	Sololá	704	Santa Lucía Utatlán 	7	Santa Rita 	8	Agosto	2023-03-08T00:00:00	2024-11-08T16:00:00	6	Velocidad del viento	3.2
109230	7	Sololá	704	Santa Lucía Utatlán 	7	Santa Rita 	8	Agosto	2023-03-08T00:00:00	2024-11-08T16:00:00	7	Dirección del viento	3.22
109231	7	Sololá	704	Santa Lucía Utatlán 	7	Santa Rita 	8	Agosto	2023-03-08T00:00:00	2024-11-08T16:00:00	1	Precipitación	0
109232	7	Sololá	704	Santa Lucía Utatlán 	7	Santa Rita 	8	Agosto	2023-03-08T00:00:00	2024-11-08T16:00:00	8	Radiación solar	328
109233	7	Sololá	704	Santa Lucía Utatlán 	7	Santa Rita 	8	Agosto	2023-03-08T00:00:00	2024-11-08T17:00:00	2	Temperatura media	20.9
109234	7	Sololá	704	Santa Lucía Utatlán 	7	Santa Rita 	8	Agosto	2023-03-08T00:00:00	2024-11-08T17:00:00	4	Temperatura máxima	22.1
109235	7	Sololá	704	Santa Lucía Utatlán 	7	Santa Rita 	8	Agosto	2023-03-08T00:00:00	2024-11-08T17:00:00	3	Temperatura mínima	20.9
109236	7	Sololá	704	Santa Lucía Utatlán 	7	Santa Rita 	8	Agosto	2023-03-08T00:00:00	2024-11-08T17:00:00	5	Humedad	91
109237	7	Sololá	704	Santa Lucía Utatlán 	7	Santa Rita 	8	Agosto	2023-03-08T00:00:00	2024-11-08T17:00:00	6	Velocidad del viento	1.6
109238	7	Sololá	704	Santa Lucía Utatlán 	7	Santa Rita 	8	Agosto	2023-03-08T00:00:00	2024-11-08T17:00:00	7	Dirección del viento	1.61
109239	7	Sololá	704	Santa Lucía Utatlán 	7	Santa Rita 	8	Agosto	2023-03-08T00:00:00	2024-11-08T17:00:00	1	Precipitación	0
109240	7	Sololá	704	Santa Lucía Utatlán 	7	Santa Rita 	8	Agosto	2023-03-08T00:00:00	2024-11-08T17:00:00	8	Radiación solar	100
109241	7	Sololá	704	Santa Lucía Utatlán 	7	Santa Rita 	8	Agosto	2023-03-08T00:00:00	2024-11-08T18:00:00	2	Temperatura media	20.3
109242	7	Sololá	704	Santa Lucía Utatlán 	7	Santa Rita 	8	Agosto	2023-03-08T00:00:00	2024-11-08T18:00:00	4	Temperatura máxima	20.9
109243	7	Sololá	704	Santa Lucía Utatlán 	7	Santa Rita 	8	Agosto	2023-03-08T00:00:00	2024-11-08T18:00:00	3	Temperatura mínima	20.2
109244	7	Sololá	704	Santa Lucía Utatlán 	7	Santa Rita 	8	Agosto	2023-03-08T00:00:00	2024-11-08T18:00:00	5	Humedad	91
109245	7	Sololá	704	Santa Lucía Utatlán 	7	Santa Rita 	8	Agosto	2023-03-08T00:00:00	2024-11-08T18:00:00	6	Velocidad del viento	3.2
109246	7	Sololá	704	Santa Lucía Utatlán 	7	Santa Rita 	8	Agosto	2023-03-08T00:00:00	2024-11-08T18:00:00	7	Dirección del viento	3.22
109247	7	Sololá	704	Santa Lucía Utatlán 	7	Santa Rita 	8	Agosto	2023-03-08T00:00:00	2024-11-08T18:00:00	1	Precipitación	0
109248	7	Sololá	704	Santa Lucía Utatlán 	7	Santa Rita 	8	Agosto	2023-03-08T00:00:00	2024-11-08T18:00:00	8	Radiación solar	32
109249	7	Sololá	704	Santa Lucía Utatlán 	7	Santa Rita 	8	Agosto	2023-03-08T00:00:00	2024-11-08T19:00:00	2	Temperatura media	19.8
109250	7	Sololá	704	Santa Lucía Utatlán 	7	Santa Rita 	8	Agosto	2023-03-08T00:00:00	2024-11-08T19:00:00	4	Temperatura máxima	20.3
109251	7	Sololá	704	Santa Lucía Utatlán 	7	Santa Rita 	8	Agosto	2023-03-08T00:00:00	2024-11-08T19:00:00	3	Temperatura mínima	19.8
109252	7	Sololá	704	Santa Lucía Utatlán 	7	Santa Rita 	8	Agosto	2023-03-08T00:00:00	2024-11-08T19:00:00	5	Humedad	91
109253	7	Sololá	704	Santa Lucía Utatlán 	7	Santa Rita 	8	Agosto	2023-03-08T00:00:00	2024-11-08T19:00:00	6	Velocidad del viento	1.6
109254	7	Sololá	704	Santa Lucía Utatlán 	7	Santa Rita 	8	Agosto	2023-03-08T00:00:00	2024-11-08T19:00:00	7	Dirección del viento	1.61
109255	7	Sololá	704	Santa Lucía Utatlán 	7	Santa Rita 	8	Agosto	2023-03-08T00:00:00	2024-11-08T19:00:00	1	Precipitación	0.8
109256	7	Sololá	704	Santa Lucía Utatlán 	7	Santa Rita 	8	Agosto	2023-03-08T00:00:00	2024-11-08T19:00:00	8	Radiación solar	0
109257	7	Sololá	704	Santa Lucía Utatlán 	7	Santa Rita 	8	Agosto	2023-03-08T00:00:00	2024-11-08T20:00:00	2	Temperatura media	18.8
109258	7	Sololá	704	Santa Lucía Utatlán 	7	Santa Rita 	8	Agosto	2023-03-08T00:00:00	2024-11-08T20:00:00	4	Temperatura máxima	19.9
109259	7	Sololá	704	Santa Lucía Utatlán 	7	Santa Rita 	8	Agosto	2023-03-08T00:00:00	2024-11-08T20:00:00	3	Temperatura mínima	18.8
109260	7	Sololá	704	Santa Lucía Utatlán 	7	Santa Rita 	8	Agosto	2023-03-08T00:00:00	2024-11-08T20:00:00	5	Humedad	91
109261	7	Sololá	704	Santa Lucía Utatlán 	7	Santa Rita 	8	Agosto	2023-03-08T00:00:00	2024-11-08T20:00:00	6	Velocidad del viento	3.2
109262	7	Sololá	704	Santa Lucía Utatlán 	7	Santa Rita 	8	Agosto	2023-03-08T00:00:00	2024-11-08T20:00:00	7	Dirección del viento	3.22
109263	7	Sololá	704	Santa Lucía Utatlán 	7	Santa Rita 	8	Agosto	2023-03-08T00:00:00	2024-11-08T20:00:00	1	Precipitación	4.6
109264	7	Sololá	704	Santa Lucía Utatlán 	7	Santa Rita 	8	Agosto	2023-03-08T00:00:00	2024-11-08T20:00:00	8	Radiación solar	0
109265	7	Sololá	704	Santa Lucía Utatlán 	7	Santa Rita 	8	Agosto	2023-03-08T00:00:00	2024-11-08T21:00:00	2	Temperatura media	19.5
109266	7	Sololá	704	Santa Lucía Utatlán 	7	Santa Rita 	8	Agosto	2023-03-08T00:00:00	2024-11-08T21:00:00	4	Temperatura máxima	19.9
109267	7	Sololá	704	Santa Lucía Utatlán 	7	Santa Rita 	8	Agosto	2023-03-08T00:00:00	2024-11-08T21:00:00	3	Temperatura mínima	18.8
109268	7	Sololá	704	Santa Lucía Utatlán 	7	Santa Rita 	8	Agosto	2023-03-08T00:00:00	2024-11-08T21:00:00	5	Humedad	81
109269	7	Sololá	704	Santa Lucía Utatlán 	7	Santa Rita 	8	Agosto	2023-03-08T00:00:00	2024-11-08T21:00:00	6	Velocidad del viento	8
109270	7	Sololá	704	Santa Lucía Utatlán 	7	Santa Rita 	8	Agosto	2023-03-08T00:00:00	2024-11-08T21:00:00	7	Dirección del viento	8.05
109271	7	Sololá	704	Santa Lucía Utatlán 	7	Santa Rita 	8	Agosto	2023-03-08T00:00:00	2024-11-08T21:00:00	1	Precipitación	4.8
109272	7	Sololá	704	Santa Lucía Utatlán 	7	Santa Rita 	8	Agosto	2023-03-08T00:00:00	2024-11-08T21:00:00	8	Radiación solar	0
109273	7	Sololá	704	Santa Lucía Utatlán 	7	Santa Rita 	8	Agosto	2023-03-08T00:00:00	2024-11-08T22:00:00	2	Temperatura media	17.6
109274	7	Sololá	704	Santa Lucía Utatlán 	7	Santa Rita 	8	Agosto	2023-03-08T00:00:00	2024-11-08T22:00:00	4	Temperatura máxima	19.5
109275	7	Sololá	704	Santa Lucía Utatlán 	7	Santa Rita 	8	Agosto	2023-03-08T00:00:00	2024-11-08T22:00:00	3	Temperatura mínima	17.6
109276	7	Sololá	704	Santa Lucía Utatlán 	7	Santa Rita 	8	Agosto	2023-03-08T00:00:00	2024-11-08T22:00:00	5	Humedad	91
109277	7	Sololá	704	Santa Lucía Utatlán 	7	Santa Rita 	8	Agosto	2023-03-08T00:00:00	2024-11-08T22:00:00	6	Velocidad del viento	4.8
109278	7	Sololá	704	Santa Lucía Utatlán 	7	Santa Rita 	8	Agosto	2023-03-08T00:00:00	2024-11-08T22:00:00	7	Dirección del viento	4.83
109279	7	Sololá	704	Santa Lucía Utatlán 	7	Santa Rita 	8	Agosto	2023-03-08T00:00:00	2024-11-08T22:00:00	1	Precipitación	1.8
109280	7	Sololá	704	Santa Lucía Utatlán 	7	Santa Rita 	8	Agosto	2023-03-08T00:00:00	2024-11-08T22:00:00	8	Radiación solar	0
109281	7	Sololá	704	Santa Lucía Utatlán 	7	Santa Rita 	8	Agosto	2023-03-08T00:00:00	2024-11-08T23:00:00	2	Temperatura media	17.3
109282	7	Sololá	704	Santa Lucía Utatlán 	7	Santa Rita 	8	Agosto	2023-03-08T00:00:00	2024-11-08T23:00:00	4	Temperatura máxima	17.6
109283	7	Sololá	704	Santa Lucía Utatlán 	7	Santa Rita 	8	Agosto	2023-03-08T00:00:00	2024-11-08T23:00:00	3	Temperatura mínima	17.2
109284	7	Sololá	704	Santa Lucía Utatlán 	7	Santa Rita 	8	Agosto	2023-03-08T00:00:00	2024-11-08T23:00:00	5	Humedad	91
109285	7	Sololá	704	Santa Lucía Utatlán 	7	Santa Rita 	8	Agosto	2023-03-08T00:00:00	2024-11-08T23:00:00	6	Velocidad del viento	3.2
109286	7	Sololá	704	Santa Lucía Utatlán 	7	Santa Rita 	8	Agosto	2023-03-08T00:00:00	2024-11-08T23:00:00	7	Dirección del viento	3.22
109287	7	Sololá	704	Santa Lucía Utatlán 	7	Santa Rita 	8	Agosto	2023-03-08T00:00:00	2024-11-08T23:00:00	1	Precipitación	0.4
109288	7	Sololá	704	Santa Lucía Utatlán 	7	Santa Rita 	8	Agosto	2023-03-08T00:00:00	2024-11-08T23:00:00	8	Radiación solar	0
109289	7	Sololá	704	Santa Lucía Utatlán 	7	Santa Rita 	8	Agosto	2023-04-08T00:00:00	2024-11-08T00:00:00	2	Temperatura media	17.6
109290	7	Sololá	704	Santa Lucía Utatlán 	7	Santa Rita 	8	Agosto	2023-04-08T00:00:00	2024-11-08T00:00:00	4	Temperatura máxima	17.7
109291	7	Sololá	704	Santa Lucía Utatlán 	7	Santa Rita 	8	Agosto	2023-04-08T00:00:00	2024-11-08T00:00:00	3	Temperatura mínima	17.3
109292	7	Sololá	704	Santa Lucía Utatlán 	7	Santa Rita 	8	Agosto	2023-04-08T00:00:00	2024-11-08T00:00:00	5	Humedad	91
109293	7	Sololá	704	Santa Lucía Utatlán 	7	Santa Rita 	8	Agosto	2023-04-08T00:00:00	2024-11-08T00:00:00	6	Velocidad del viento	4.8
109294	7	Sololá	704	Santa Lucía Utatlán 	7	Santa Rita 	8	Agosto	2023-04-08T00:00:00	2024-11-08T00:00:00	7	Dirección del viento	4.83
109295	7	Sololá	704	Santa Lucía Utatlán 	7	Santa Rita 	8	Agosto	2023-04-08T00:00:00	2024-11-08T00:00:00	1	Precipitación	0
109296	7	Sololá	704	Santa Lucía Utatlán 	7	Santa Rita 	8	Agosto	2023-04-08T00:00:00	2024-11-08T00:00:00	8	Radiación solar	0
109297	7	Sololá	704	Santa Lucía Utatlán 	7	Santa Rita 	8	Agosto	2023-04-08T00:00:00	2024-11-08T01:00:00	2	Temperatura media	17.2
109298	7	Sololá	704	Santa Lucía Utatlán 	7	Santa Rita 	8	Agosto	2023-04-08T00:00:00	2024-11-08T01:00:00	4	Temperatura máxima	17.6
109299	7	Sololá	704	Santa Lucía Utatlán 	7	Santa Rita 	8	Agosto	2023-04-08T00:00:00	2024-11-08T01:00:00	3	Temperatura mínima	17.2
109300	7	Sololá	704	Santa Lucía Utatlán 	7	Santa Rita 	8	Agosto	2023-04-08T00:00:00	2024-11-08T01:00:00	5	Humedad	94
109301	7	Sololá	704	Santa Lucía Utatlán 	7	Santa Rita 	8	Agosto	2023-04-08T00:00:00	2024-11-08T01:00:00	6	Velocidad del viento	3.2
109302	7	Sololá	704	Santa Lucía Utatlán 	7	Santa Rita 	8	Agosto	2023-04-08T00:00:00	2024-11-08T01:00:00	7	Dirección del viento	3.22
109303	7	Sololá	704	Santa Lucía Utatlán 	7	Santa Rita 	8	Agosto	2023-04-08T00:00:00	2024-11-08T01:00:00	1	Precipitación	0
109304	7	Sololá	704	Santa Lucía Utatlán 	7	Santa Rita 	8	Agosto	2023-04-08T00:00:00	2024-11-08T01:00:00	8	Radiación solar	0
109305	7	Sololá	704	Santa Lucía Utatlán 	7	Santa Rita 	8	Agosto	2023-04-08T00:00:00	2024-11-08T02:00:00	2	Temperatura media	16.9
109306	7	Sololá	704	Santa Lucía Utatlán 	7	Santa Rita 	8	Agosto	2023-04-08T00:00:00	2024-11-08T02:00:00	4	Temperatura máxima	17.3
109307	7	Sololá	704	Santa Lucía Utatlán 	7	Santa Rita 	8	Agosto	2023-04-08T00:00:00	2024-11-08T02:00:00	3	Temperatura mínima	16.9
109308	7	Sololá	704	Santa Lucía Utatlán 	7	Santa Rita 	8	Agosto	2023-04-08T00:00:00	2024-11-08T02:00:00	5	Humedad	93
109309	7	Sololá	704	Santa Lucía Utatlán 	7	Santa Rita 	8	Agosto	2023-04-08T00:00:00	2024-11-08T02:00:00	6	Velocidad del viento	3.2
109310	7	Sololá	704	Santa Lucía Utatlán 	7	Santa Rita 	8	Agosto	2023-04-08T00:00:00	2024-11-08T02:00:00	7	Dirección del viento	3.22
109311	7	Sololá	704	Santa Lucía Utatlán 	7	Santa Rita 	8	Agosto	2023-04-08T00:00:00	2024-11-08T02:00:00	1	Precipitación	0.2
109312	7	Sololá	704	Santa Lucía Utatlán 	7	Santa Rita 	8	Agosto	2023-04-08T00:00:00	2024-11-08T02:00:00	8	Radiación solar	0
109313	7	Sololá	704	Santa Lucía Utatlán 	7	Santa Rita 	8	Agosto	2023-04-08T00:00:00	2024-11-08T03:00:00	2	Temperatura media	17.4
109314	7	Sololá	704	Santa Lucía Utatlán 	7	Santa Rita 	8	Agosto	2023-04-08T00:00:00	2024-11-08T03:00:00	4	Temperatura máxima	17.4
109315	7	Sololá	704	Santa Lucía Utatlán 	7	Santa Rita 	8	Agosto	2023-04-08T00:00:00	2024-11-08T03:00:00	3	Temperatura mínima	16.9
109316	7	Sololá	704	Santa Lucía Utatlán 	7	Santa Rita 	8	Agosto	2023-04-08T00:00:00	2024-11-08T03:00:00	5	Humedad	88
109317	7	Sololá	704	Santa Lucía Utatlán 	7	Santa Rita 	8	Agosto	2023-04-08T00:00:00	2024-11-08T03:00:00	6	Velocidad del viento	4.8
109318	7	Sololá	704	Santa Lucía Utatlán 	7	Santa Rita 	8	Agosto	2023-04-08T00:00:00	2024-11-08T03:00:00	7	Dirección del viento	4.83
109319	7	Sololá	704	Santa Lucía Utatlán 	7	Santa Rita 	8	Agosto	2023-04-08T00:00:00	2024-11-08T03:00:00	1	Precipitación	0
109320	7	Sololá	704	Santa Lucía Utatlán 	7	Santa Rita 	8	Agosto	2023-04-08T00:00:00	2024-11-08T03:00:00	8	Radiación solar	0
109321	7	Sololá	704	Santa Lucía Utatlán 	7	Santa Rita 	8	Agosto	2023-04-08T00:00:00	2024-11-08T04:00:00	2	Temperatura media	18.1
109322	7	Sololá	704	Santa Lucía Utatlán 	7	Santa Rita 	8	Agosto	2023-04-08T00:00:00	2024-11-08T04:00:00	4	Temperatura máxima	18.2
109323	7	Sololá	704	Santa Lucía Utatlán 	7	Santa Rita 	8	Agosto	2023-04-08T00:00:00	2024-11-08T04:00:00	3	Temperatura mínima	17.3
109324	7	Sololá	704	Santa Lucía Utatlán 	7	Santa Rita 	8	Agosto	2023-04-08T00:00:00	2024-11-08T04:00:00	5	Humedad	87
109325	7	Sololá	704	Santa Lucía Utatlán 	7	Santa Rita 	8	Agosto	2023-04-08T00:00:00	2024-11-08T04:00:00	6	Velocidad del viento	6.4
109326	7	Sololá	704	Santa Lucía Utatlán 	7	Santa Rita 	8	Agosto	2023-04-08T00:00:00	2024-11-08T04:00:00	7	Dirección del viento	6.44
109327	7	Sololá	704	Santa Lucía Utatlán 	7	Santa Rita 	8	Agosto	2023-04-08T00:00:00	2024-11-08T04:00:00	1	Precipitación	0
109328	7	Sololá	704	Santa Lucía Utatlán 	7	Santa Rita 	8	Agosto	2023-04-08T00:00:00	2024-11-08T04:00:00	8	Radiación solar	0
109329	7	Sololá	704	Santa Lucía Utatlán 	7	Santa Rita 	8	Agosto	2023-04-08T00:00:00	2024-11-08T05:00:00	2	Temperatura media	18.3
109330	7	Sololá	704	Santa Lucía Utatlán 	7	Santa Rita 	8	Agosto	2023-04-08T00:00:00	2024-11-08T05:00:00	4	Temperatura máxima	18.4
109331	7	Sololá	704	Santa Lucía Utatlán 	7	Santa Rita 	8	Agosto	2023-04-08T00:00:00	2024-11-08T05:00:00	3	Temperatura mínima	17.9
109332	7	Sololá	704	Santa Lucía Utatlán 	7	Santa Rita 	8	Agosto	2023-04-08T00:00:00	2024-11-08T05:00:00	5	Humedad	86
109333	7	Sololá	704	Santa Lucía Utatlán 	7	Santa Rita 	8	Agosto	2023-04-08T00:00:00	2024-11-08T05:00:00	6	Velocidad del viento	4.8
109334	7	Sololá	704	Santa Lucía Utatlán 	7	Santa Rita 	8	Agosto	2023-04-08T00:00:00	2024-11-08T05:00:00	7	Dirección del viento	4.83
109335	7	Sololá	704	Santa Lucía Utatlán 	7	Santa Rita 	8	Agosto	2023-04-08T00:00:00	2024-11-08T05:00:00	1	Precipitación	0
109336	7	Sololá	704	Santa Lucía Utatlán 	7	Santa Rita 	8	Agosto	2023-04-08T00:00:00	2024-11-08T05:00:00	8	Radiación solar	0
109337	7	Sololá	704	Santa Lucía Utatlán 	7	Santa Rita 	8	Agosto	2023-04-08T00:00:00	2024-11-08T06:00:00	2	Temperatura media	18.6
109338	7	Sololá	704	Santa Lucía Utatlán 	7	Santa Rita 	8	Agosto	2023-04-08T00:00:00	2024-11-08T06:00:00	4	Temperatura máxima	18.6
109339	7	Sololá	704	Santa Lucía Utatlán 	7	Santa Rita 	8	Agosto	2023-04-08T00:00:00	2024-11-08T06:00:00	3	Temperatura mínima	18.1
109340	7	Sololá	704	Santa Lucía Utatlán 	7	Santa Rita 	8	Agosto	2023-04-08T00:00:00	2024-11-08T06:00:00	5	Humedad	87
109341	7	Sololá	704	Santa Lucía Utatlán 	7	Santa Rita 	8	Agosto	2023-04-08T00:00:00	2024-11-08T06:00:00	6	Velocidad del viento	4.8
109342	7	Sololá	704	Santa Lucía Utatlán 	7	Santa Rita 	8	Agosto	2023-04-08T00:00:00	2024-11-08T06:00:00	7	Dirección del viento	4.83
109343	7	Sololá	704	Santa Lucía Utatlán 	7	Santa Rita 	8	Agosto	2023-04-08T00:00:00	2024-11-08T06:00:00	1	Precipitación	0
109344	7	Sololá	704	Santa Lucía Utatlán 	7	Santa Rita 	8	Agosto	2023-04-08T00:00:00	2024-11-08T06:00:00	8	Radiación solar	1
109345	7	Sololá	704	Santa Lucía Utatlán 	7	Santa Rita 	8	Agosto	2023-04-08T00:00:00	2024-11-08T07:00:00	2	Temperatura media	19.6
109346	7	Sololá	704	Santa Lucía Utatlán 	7	Santa Rita 	8	Agosto	2023-04-08T00:00:00	2024-11-08T07:00:00	4	Temperatura máxima	19.6
109347	7	Sololá	704	Santa Lucía Utatlán 	7	Santa Rita 	8	Agosto	2023-04-08T00:00:00	2024-11-08T07:00:00	3	Temperatura mínima	18.6
109348	7	Sololá	704	Santa Lucía Utatlán 	7	Santa Rita 	8	Agosto	2023-04-08T00:00:00	2024-11-08T07:00:00	5	Humedad	87
109349	7	Sololá	704	Santa Lucía Utatlán 	7	Santa Rita 	8	Agosto	2023-04-08T00:00:00	2024-11-08T07:00:00	6	Velocidad del viento	3.2
109350	7	Sololá	704	Santa Lucía Utatlán 	7	Santa Rita 	8	Agosto	2023-04-08T00:00:00	2024-11-08T07:00:00	7	Dirección del viento	3.22
109351	7	Sololá	704	Santa Lucía Utatlán 	7	Santa Rita 	8	Agosto	2023-04-08T00:00:00	2024-11-08T07:00:00	1	Precipitación	0
109352	7	Sololá	704	Santa Lucía Utatlán 	7	Santa Rita 	8	Agosto	2023-04-08T00:00:00	2024-11-08T07:00:00	8	Radiación solar	58
109353	7	Sololá	704	Santa Lucía Utatlán 	7	Santa Rita 	8	Agosto	2023-04-08T00:00:00	2024-11-08T08:00:00	2	Temperatura media	21.1
109354	7	Sololá	704	Santa Lucía Utatlán 	7	Santa Rita 	8	Agosto	2023-04-08T00:00:00	2024-11-08T08:00:00	4	Temperatura máxima	21.1
109355	7	Sololá	704	Santa Lucía Utatlán 	7	Santa Rita 	8	Agosto	2023-04-08T00:00:00	2024-11-08T08:00:00	3	Temperatura mínima	19.6
109356	7	Sololá	704	Santa Lucía Utatlán 	7	Santa Rita 	8	Agosto	2023-04-08T00:00:00	2024-11-08T08:00:00	5	Humedad	83
109357	7	Sololá	704	Santa Lucía Utatlán 	7	Santa Rita 	8	Agosto	2023-04-08T00:00:00	2024-11-08T08:00:00	6	Velocidad del viento	1.6
109358	7	Sololá	704	Santa Lucía Utatlán 	7	Santa Rita 	8	Agosto	2023-04-08T00:00:00	2024-11-08T08:00:00	7	Dirección del viento	1.61
109359	7	Sololá	704	Santa Lucía Utatlán 	7	Santa Rita 	8	Agosto	2023-04-08T00:00:00	2024-11-08T08:00:00	1	Precipitación	0
109360	7	Sololá	704	Santa Lucía Utatlán 	7	Santa Rita 	8	Agosto	2023-04-08T00:00:00	2024-11-08T08:00:00	8	Radiación solar	152
109361	7	Sololá	704	Santa Lucía Utatlán 	7	Santa Rita 	8	Agosto	2023-04-08T00:00:00	2024-11-08T09:00:00	2	Temperatura media	23.6
109362	7	Sololá	704	Santa Lucía Utatlán 	7	Santa Rita 	8	Agosto	2023-04-08T00:00:00	2024-11-08T09:00:00	4	Temperatura máxima	23.6
109363	7	Sololá	704	Santa Lucía Utatlán 	7	Santa Rita 	8	Agosto	2023-04-08T00:00:00	2024-11-08T09:00:00	3	Temperatura mínima	21.1
109364	7	Sololá	704	Santa Lucía Utatlán 	7	Santa Rita 	8	Agosto	2023-04-08T00:00:00	2024-11-08T09:00:00	5	Humedad	70
109365	7	Sololá	704	Santa Lucía Utatlán 	7	Santa Rita 	8	Agosto	2023-04-08T00:00:00	2024-11-08T09:00:00	6	Velocidad del viento	1.6
109366	7	Sololá	704	Santa Lucía Utatlán 	7	Santa Rita 	8	Agosto	2023-04-08T00:00:00	2024-11-08T09:00:00	7	Dirección del viento	1.61
109367	7	Sololá	704	Santa Lucía Utatlán 	7	Santa Rita 	8	Agosto	2023-04-08T00:00:00	2024-11-08T09:00:00	1	Precipitación	0
109368	7	Sololá	704	Santa Lucía Utatlán 	7	Santa Rita 	8	Agosto	2023-04-08T00:00:00	2024-11-08T09:00:00	8	Radiación solar	362
109369	7	Sololá	704	Santa Lucía Utatlán 	7	Santa Rita 	8	Agosto	2023-04-08T00:00:00	2024-11-08T10:00:00	2	Temperatura media	23.7
109370	7	Sololá	704	Santa Lucía Utatlán 	7	Santa Rita 	8	Agosto	2023-04-08T00:00:00	2024-11-08T10:00:00	4	Temperatura máxima	25.3
109371	7	Sololá	704	Santa Lucía Utatlán 	7	Santa Rita 	8	Agosto	2023-04-08T00:00:00	2024-11-08T10:00:00	3	Temperatura mínima	23.4
109372	7	Sololá	704	Santa Lucía Utatlán 	7	Santa Rita 	8	Agosto	2023-04-08T00:00:00	2024-11-08T10:00:00	5	Humedad	69
109373	7	Sololá	704	Santa Lucía Utatlán 	7	Santa Rita 	8	Agosto	2023-04-08T00:00:00	2024-11-08T10:00:00	6	Velocidad del viento	3.2
109374	7	Sololá	704	Santa Lucía Utatlán 	7	Santa Rita 	8	Agosto	2023-04-08T00:00:00	2024-11-08T10:00:00	7	Dirección del viento	3.22
109375	7	Sololá	704	Santa Lucía Utatlán 	7	Santa Rita 	8	Agosto	2023-04-08T00:00:00	2024-11-08T10:00:00	1	Precipitación	0
109376	7	Sololá	704	Santa Lucía Utatlán 	7	Santa Rita 	8	Agosto	2023-04-08T00:00:00	2024-11-08T10:00:00	8	Radiación solar	547
109377	7	Sololá	704	Santa Lucía Utatlán 	7	Santa Rita 	8	Agosto	2023-04-08T00:00:00	2024-11-08T11:00:00	2	Temperatura media	25.3
109378	7	Sololá	704	Santa Lucía Utatlán 	7	Santa Rita 	8	Agosto	2023-04-08T00:00:00	2024-11-08T11:00:00	4	Temperatura máxima	25.5
109379	7	Sololá	704	Santa Lucía Utatlán 	7	Santa Rita 	8	Agosto	2023-04-08T00:00:00	2024-11-08T11:00:00	3	Temperatura mínima	23.7
109380	7	Sololá	704	Santa Lucía Utatlán 	7	Santa Rita 	8	Agosto	2023-04-08T00:00:00	2024-11-08T11:00:00	5	Humedad	70
109381	7	Sololá	704	Santa Lucía Utatlán 	7	Santa Rita 	8	Agosto	2023-04-08T00:00:00	2024-11-08T11:00:00	6	Velocidad del viento	4.8
109382	7	Sololá	704	Santa Lucía Utatlán 	7	Santa Rita 	8	Agosto	2023-04-08T00:00:00	2024-11-08T11:00:00	7	Dirección del viento	4.83
109383	7	Sololá	704	Santa Lucía Utatlán 	7	Santa Rita 	8	Agosto	2023-04-08T00:00:00	2024-11-08T11:00:00	1	Precipitación	0
109384	7	Sololá	704	Santa Lucía Utatlán 	7	Santa Rita 	8	Agosto	2023-04-08T00:00:00	2024-11-08T11:00:00	8	Radiación solar	637
109385	7	Sololá	704	Santa Lucía Utatlán 	7	Santa Rita 	8	Agosto	2023-04-08T00:00:00	2024-11-08T12:00:00	2	Temperatura media	26
109386	7	Sololá	704	Santa Lucía Utatlán 	7	Santa Rita 	8	Agosto	2023-04-08T00:00:00	2024-11-08T12:00:00	4	Temperatura máxima	26.3
109387	7	Sololá	704	Santa Lucía Utatlán 	7	Santa Rita 	8	Agosto	2023-04-08T00:00:00	2024-11-08T12:00:00	3	Temperatura mínima	25.2
109388	7	Sololá	704	Santa Lucía Utatlán 	7	Santa Rita 	8	Agosto	2023-04-08T00:00:00	2024-11-08T12:00:00	5	Humedad	62
109389	7	Sololá	704	Santa Lucía Utatlán 	7	Santa Rita 	8	Agosto	2023-04-08T00:00:00	2024-11-08T12:00:00	6	Velocidad del viento	8
109390	7	Sololá	704	Santa Lucía Utatlán 	7	Santa Rita 	8	Agosto	2023-04-08T00:00:00	2024-11-08T12:00:00	7	Dirección del viento	8.05
109391	7	Sololá	704	Santa Lucía Utatlán 	7	Santa Rita 	8	Agosto	2023-04-08T00:00:00	2024-11-08T12:00:00	1	Precipitación	0
109392	7	Sololá	704	Santa Lucía Utatlán 	7	Santa Rita 	8	Agosto	2023-04-08T00:00:00	2024-11-08T12:00:00	8	Radiación solar	748
109393	7	Sololá	704	Santa Lucía Utatlán 	7	Santa Rita 	8	Agosto	2023-04-08T00:00:00	2024-11-08T13:00:00	2	Temperatura media	25.9
109394	7	Sololá	704	Santa Lucía Utatlán 	7	Santa Rita 	8	Agosto	2023-04-08T00:00:00	2024-11-08T13:00:00	4	Temperatura máxima	26.2
109395	7	Sololá	704	Santa Lucía Utatlán 	7	Santa Rita 	8	Agosto	2023-04-08T00:00:00	2024-11-08T13:00:00	3	Temperatura mínima	25.6
109396	7	Sololá	704	Santa Lucía Utatlán 	7	Santa Rita 	8	Agosto	2023-04-08T00:00:00	2024-11-08T13:00:00	5	Humedad	65
109397	7	Sololá	704	Santa Lucía Utatlán 	7	Santa Rita 	8	Agosto	2023-04-08T00:00:00	2024-11-08T13:00:00	6	Velocidad del viento	9.7
109398	7	Sololá	704	Santa Lucía Utatlán 	7	Santa Rita 	8	Agosto	2023-04-08T00:00:00	2024-11-08T13:00:00	7	Dirección del viento	9.66
109399	7	Sololá	704	Santa Lucía Utatlán 	7	Santa Rita 	8	Agosto	2023-04-08T00:00:00	2024-11-08T13:00:00	1	Precipitación	0
109400	7	Sololá	704	Santa Lucía Utatlán 	7	Santa Rita 	8	Agosto	2023-04-08T00:00:00	2024-11-08T13:00:00	8	Radiación solar	743
109401	7	Sololá	704	Santa Lucía Utatlán 	7	Santa Rita 	8	Agosto	2023-04-08T00:00:00	2024-11-08T14:00:00	2	Temperatura media	25.6
109402	7	Sololá	704	Santa Lucía Utatlán 	7	Santa Rita 	8	Agosto	2023-04-08T00:00:00	2024-11-08T14:00:00	4	Temperatura máxima	26.1
109403	7	Sololá	704	Santa Lucía Utatlán 	7	Santa Rita 	8	Agosto	2023-04-08T00:00:00	2024-11-08T14:00:00	3	Temperatura mínima	25.5
109404	7	Sololá	704	Santa Lucía Utatlán 	7	Santa Rita 	8	Agosto	2023-04-08T00:00:00	2024-11-08T14:00:00	5	Humedad	60
109405	7	Sololá	704	Santa Lucía Utatlán 	7	Santa Rita 	8	Agosto	2023-04-08T00:00:00	2024-11-08T14:00:00	6	Velocidad del viento	9.7
109406	7	Sololá	704	Santa Lucía Utatlán 	7	Santa Rita 	8	Agosto	2023-04-08T00:00:00	2024-11-08T14:00:00	7	Dirección del viento	9.66
109407	7	Sololá	704	Santa Lucía Utatlán 	7	Santa Rita 	8	Agosto	2023-04-08T00:00:00	2024-11-08T14:00:00	1	Precipitación	0
109408	7	Sololá	704	Santa Lucía Utatlán 	7	Santa Rita 	8	Agosto	2023-04-08T00:00:00	2024-11-08T14:00:00	8	Radiación solar	806
109409	7	Sololá	704	Santa Lucía Utatlán 	7	Santa Rita 	8	Agosto	2023-04-08T00:00:00	2024-11-08T15:00:00	2	Temperatura media	25.7
109410	7	Sololá	704	Santa Lucía Utatlán 	7	Santa Rita 	8	Agosto	2023-04-08T00:00:00	2024-11-08T15:00:00	4	Temperatura máxima	25.8
109411	7	Sololá	704	Santa Lucía Utatlán 	7	Santa Rita 	8	Agosto	2023-04-08T00:00:00	2024-11-08T15:00:00	3	Temperatura mínima	24.9
109412	7	Sololá	704	Santa Lucía Utatlán 	7	Santa Rita 	8	Agosto	2023-04-08T00:00:00	2024-11-08T15:00:00	5	Humedad	57
109413	7	Sololá	704	Santa Lucía Utatlán 	7	Santa Rita 	8	Agosto	2023-04-08T00:00:00	2024-11-08T15:00:00	6	Velocidad del viento	11.3
109414	7	Sololá	704	Santa Lucía Utatlán 	7	Santa Rita 	8	Agosto	2023-04-08T00:00:00	2024-11-08T15:00:00	7	Dirección del viento	11.27
109415	7	Sololá	704	Santa Lucía Utatlán 	7	Santa Rita 	8	Agosto	2023-04-08T00:00:00	2024-11-08T15:00:00	1	Precipitación	0
109416	7	Sololá	704	Santa Lucía Utatlán 	7	Santa Rita 	8	Agosto	2023-04-08T00:00:00	2024-11-08T15:00:00	8	Radiación solar	737
109417	7	Sololá	704	Santa Lucía Utatlán 	7	Santa Rita 	8	Agosto	2023-04-08T00:00:00	2024-11-08T16:00:00	2	Temperatura media	25.4
109418	7	Sololá	704	Santa Lucía Utatlán 	7	Santa Rita 	8	Agosto	2023-04-08T00:00:00	2024-11-08T16:00:00	4	Temperatura máxima	25.9
109419	7	Sololá	704	Santa Lucía Utatlán 	7	Santa Rita 	8	Agosto	2023-04-08T00:00:00	2024-11-08T16:00:00	3	Temperatura mínima	25.1
109420	7	Sololá	704	Santa Lucía Utatlán 	7	Santa Rita 	8	Agosto	2023-04-08T00:00:00	2024-11-08T16:00:00	5	Humedad	63
109421	7	Sololá	704	Santa Lucía Utatlán 	7	Santa Rita 	8	Agosto	2023-04-08T00:00:00	2024-11-08T16:00:00	6	Velocidad del viento	8
109422	7	Sololá	704	Santa Lucía Utatlán 	7	Santa Rita 	8	Agosto	2023-04-08T00:00:00	2024-11-08T16:00:00	7	Dirección del viento	8.05
109423	7	Sololá	704	Santa Lucía Utatlán 	7	Santa Rita 	8	Agosto	2023-04-08T00:00:00	2024-11-08T16:00:00	1	Precipitación	0
109424	7	Sololá	704	Santa Lucía Utatlán 	7	Santa Rita 	8	Agosto	2023-04-08T00:00:00	2024-11-08T16:00:00	8	Radiación solar	590
109425	7	Sololá	704	Santa Lucía Utatlán 	7	Santa Rita 	8	Agosto	2023-04-08T00:00:00	2024-11-08T17:00:00	2	Temperatura media	23.9
109426	7	Sololá	704	Santa Lucía Utatlán 	7	Santa Rita 	8	Agosto	2023-04-08T00:00:00	2024-11-08T17:00:00	4	Temperatura máxima	25.6
109427	7	Sololá	704	Santa Lucía Utatlán 	7	Santa Rita 	8	Agosto	2023-04-08T00:00:00	2024-11-08T17:00:00	3	Temperatura mínima	23.9
109428	7	Sololá	704	Santa Lucía Utatlán 	7	Santa Rita 	8	Agosto	2023-04-08T00:00:00	2024-11-08T17:00:00	5	Humedad	77
109429	7	Sololá	704	Santa Lucía Utatlán 	7	Santa Rita 	8	Agosto	2023-04-08T00:00:00	2024-11-08T17:00:00	6	Velocidad del viento	6.4
109430	7	Sololá	704	Santa Lucía Utatlán 	7	Santa Rita 	8	Agosto	2023-04-08T00:00:00	2024-11-08T17:00:00	7	Dirección del viento	6.44
109431	7	Sololá	704	Santa Lucía Utatlán 	7	Santa Rita 	8	Agosto	2023-04-08T00:00:00	2024-11-08T17:00:00	1	Precipitación	0
109432	7	Sololá	704	Santa Lucía Utatlán 	7	Santa Rita 	8	Agosto	2023-04-08T00:00:00	2024-11-08T17:00:00	8	Radiación solar	190
109433	7	Sololá	704	Santa Lucía Utatlán 	7	Santa Rita 	8	Agosto	2023-04-08T00:00:00	2024-11-08T18:00:00	2	Temperatura media	22.9
109434	7	Sololá	704	Santa Lucía Utatlán 	7	Santa Rita 	8	Agosto	2023-04-08T00:00:00	2024-11-08T18:00:00	4	Temperatura máxima	24
109435	7	Sololá	704	Santa Lucía Utatlán 	7	Santa Rita 	8	Agosto	2023-04-08T00:00:00	2024-11-08T18:00:00	3	Temperatura mínima	22.9
109436	7	Sololá	704	Santa Lucía Utatlán 	7	Santa Rita 	8	Agosto	2023-04-08T00:00:00	2024-11-08T18:00:00	5	Humedad	80
109437	7	Sololá	704	Santa Lucía Utatlán 	7	Santa Rita 	8	Agosto	2023-04-08T00:00:00	2024-11-08T18:00:00	6	Velocidad del viento	4.8
109438	7	Sololá	704	Santa Lucía Utatlán 	7	Santa Rita 	8	Agosto	2023-04-08T00:00:00	2024-11-08T18:00:00	7	Dirección del viento	4.83
109439	7	Sololá	704	Santa Lucía Utatlán 	7	Santa Rita 	8	Agosto	2023-04-08T00:00:00	2024-11-08T18:00:00	1	Precipitación	0
109440	7	Sololá	704	Santa Lucía Utatlán 	7	Santa Rita 	8	Agosto	2023-04-08T00:00:00	2024-11-08T18:00:00	8	Radiación solar	146
109441	7	Sololá	704	Santa Lucía Utatlán 	7	Santa Rita 	8	Agosto	2023-04-08T00:00:00	2024-11-08T19:00:00	2	Temperatura media	21.3
109442	7	Sololá	704	Santa Lucía Utatlán 	7	Santa Rita 	8	Agosto	2023-04-08T00:00:00	2024-11-08T19:00:00	4	Temperatura máxima	22.9
109443	7	Sololá	704	Santa Lucía Utatlán 	7	Santa Rita 	8	Agosto	2023-04-08T00:00:00	2024-11-08T19:00:00	3	Temperatura mínima	21.3
109444	7	Sololá	704	Santa Lucía Utatlán 	7	Santa Rita 	8	Agosto	2023-04-08T00:00:00	2024-11-08T19:00:00	5	Humedad	90
109445	7	Sololá	704	Santa Lucía Utatlán 	7	Santa Rita 	8	Agosto	2023-04-08T00:00:00	2024-11-08T19:00:00	6	Velocidad del viento	1.6
109446	7	Sololá	704	Santa Lucía Utatlán 	7	Santa Rita 	8	Agosto	2023-04-08T00:00:00	2024-11-08T19:00:00	7	Dirección del viento	1.61
109447	7	Sololá	704	Santa Lucía Utatlán 	7	Santa Rita 	8	Agosto	2023-04-08T00:00:00	2024-11-08T19:00:00	1	Precipitación	0
109448	7	Sololá	704	Santa Lucía Utatlán 	7	Santa Rita 	8	Agosto	2023-04-08T00:00:00	2024-11-08T19:00:00	8	Radiación solar	0
109449	7	Sololá	704	Santa Lucía Utatlán 	7	Santa Rita 	8	Agosto	2023-04-08T00:00:00	2024-11-08T20:00:00	2	Temperatura media	19.8
109450	7	Sololá	704	Santa Lucía Utatlán 	7	Santa Rita 	8	Agosto	2023-04-08T00:00:00	2024-11-08T20:00:00	4	Temperatura máxima	21.3
109451	7	Sololá	704	Santa Lucía Utatlán 	7	Santa Rita 	8	Agosto	2023-04-08T00:00:00	2024-11-08T20:00:00	3	Temperatura mínima	19.8
109452	7	Sololá	704	Santa Lucía Utatlán 	7	Santa Rita 	8	Agosto	2023-04-08T00:00:00	2024-11-08T20:00:00	5	Humedad	90
109453	7	Sololá	704	Santa Lucía Utatlán 	7	Santa Rita 	8	Agosto	2023-04-08T00:00:00	2024-11-08T20:00:00	6	Velocidad del viento	1.6
109454	7	Sololá	704	Santa Lucía Utatlán 	7	Santa Rita 	8	Agosto	2023-04-08T00:00:00	2024-11-08T20:00:00	7	Dirección del viento	1.61
109455	7	Sololá	704	Santa Lucía Utatlán 	7	Santa Rita 	8	Agosto	2023-04-08T00:00:00	2024-11-08T20:00:00	1	Precipitación	0
109456	7	Sololá	704	Santa Lucía Utatlán 	7	Santa Rita 	8	Agosto	2023-04-08T00:00:00	2024-11-08T20:00:00	8	Radiación solar	0
109457	7	Sololá	704	Santa Lucía Utatlán 	7	Santa Rita 	8	Agosto	2023-04-08T00:00:00	2024-11-08T21:00:00	2	Temperatura media	19.2
109458	7	Sololá	704	Santa Lucía Utatlán 	7	Santa Rita 	8	Agosto	2023-04-08T00:00:00	2024-11-08T21:00:00	4	Temperatura máxima	19.9
109459	7	Sololá	704	Santa Lucía Utatlán 	7	Santa Rita 	8	Agosto	2023-04-08T00:00:00	2024-11-08T21:00:00	3	Temperatura mínima	19.1
109460	7	Sololá	704	Santa Lucía Utatlán 	7	Santa Rita 	8	Agosto	2023-04-08T00:00:00	2024-11-08T21:00:00	5	Humedad	89
109461	7	Sololá	704	Santa Lucía Utatlán 	7	Santa Rita 	8	Agosto	2023-04-08T00:00:00	2024-11-08T21:00:00	6	Velocidad del viento	4.8
109462	7	Sololá	704	Santa Lucía Utatlán 	7	Santa Rita 	8	Agosto	2023-04-08T00:00:00	2024-11-08T21:00:00	7	Dirección del viento	4.83
109463	7	Sololá	704	Santa Lucía Utatlán 	7	Santa Rita 	8	Agosto	2023-04-08T00:00:00	2024-11-08T21:00:00	1	Precipitación	0
109464	7	Sololá	704	Santa Lucía Utatlán 	7	Santa Rita 	8	Agosto	2023-04-08T00:00:00	2024-11-08T21:00:00	8	Radiación solar	0
109465	7	Sololá	704	Santa Lucía Utatlán 	7	Santa Rita 	8	Agosto	2023-04-08T00:00:00	2024-11-08T22:00:00	2	Temperatura media	18.9
109466	7	Sololá	704	Santa Lucía Utatlán 	7	Santa Rita 	8	Agosto	2023-04-08T00:00:00	2024-11-08T22:00:00	4	Temperatura máxima	19.4
109467	7	Sololá	704	Santa Lucía Utatlán 	7	Santa Rita 	8	Agosto	2023-04-08T00:00:00	2024-11-08T22:00:00	3	Temperatura mínima	18.9
109468	7	Sololá	704	Santa Lucía Utatlán 	7	Santa Rita 	8	Agosto	2023-04-08T00:00:00	2024-11-08T22:00:00	5	Humedad	86
109469	7	Sololá	704	Santa Lucía Utatlán 	7	Santa Rita 	8	Agosto	2023-04-08T00:00:00	2024-11-08T22:00:00	6	Velocidad del viento	4.8
109470	7	Sololá	704	Santa Lucía Utatlán 	7	Santa Rita 	8	Agosto	2023-04-08T00:00:00	2024-11-08T22:00:00	7	Dirección del viento	4.83
109471	7	Sololá	704	Santa Lucía Utatlán 	7	Santa Rita 	8	Agosto	2023-04-08T00:00:00	2024-11-08T22:00:00	1	Precipitación	0
109472	7	Sololá	704	Santa Lucía Utatlán 	7	Santa Rita 	8	Agosto	2023-04-08T00:00:00	2024-11-08T22:00:00	8	Radiación solar	0
109473	7	Sololá	704	Santa Lucía Utatlán 	7	Santa Rita 	8	Agosto	2023-04-08T00:00:00	2024-11-08T23:00:00	2	Temperatura media	19
109474	7	Sololá	704	Santa Lucía Utatlán 	7	Santa Rita 	8	Agosto	2023-04-08T00:00:00	2024-11-08T23:00:00	4	Temperatura máxima	19
109475	7	Sololá	704	Santa Lucía Utatlán 	7	Santa Rita 	8	Agosto	2023-04-08T00:00:00	2024-11-08T23:00:00	3	Temperatura mínima	18.3
109476	7	Sololá	704	Santa Lucía Utatlán 	7	Santa Rita 	8	Agosto	2023-04-08T00:00:00	2024-11-08T23:00:00	5	Humedad	83
109477	7	Sololá	704	Santa Lucía Utatlán 	7	Santa Rita 	8	Agosto	2023-04-08T00:00:00	2024-11-08T23:00:00	6	Velocidad del viento	3.2
109478	7	Sololá	704	Santa Lucía Utatlán 	7	Santa Rita 	8	Agosto	2023-04-08T00:00:00	2024-11-08T23:00:00	7	Dirección del viento	3.22
109479	7	Sololá	704	Santa Lucía Utatlán 	7	Santa Rita 	8	Agosto	2023-04-08T00:00:00	2024-11-08T23:00:00	1	Precipitación	0
109480	7	Sololá	704	Santa Lucía Utatlán 	7	Santa Rita 	8	Agosto	2023-04-08T00:00:00	2024-11-08T23:00:00	8	Radiación solar	0
109481	7	Sololá	704	Santa Lucía Utatlán 	7	Santa Rita 	8	Agosto	2023-05-08T00:00:00	2024-11-08T00:00:00	2	Temperatura media	18.1
109482	7	Sololá	704	Santa Lucía Utatlán 	7	Santa Rita 	8	Agosto	2023-05-08T00:00:00	2024-11-08T00:00:00	4	Temperatura máxima	20.1
109483	7	Sololá	704	Santa Lucía Utatlán 	7	Santa Rita 	8	Agosto	2023-05-08T00:00:00	2024-11-08T00:00:00	3	Temperatura mínima	18
109484	7	Sololá	704	Santa Lucía Utatlán 	7	Santa Rita 	8	Agosto	2023-05-08T00:00:00	2024-11-08T00:00:00	5	Humedad	84
109485	7	Sololá	704	Santa Lucía Utatlán 	7	Santa Rita 	8	Agosto	2023-05-08T00:00:00	2024-11-08T00:00:00	6	Velocidad del viento	4.8
109486	7	Sololá	704	Santa Lucía Utatlán 	7	Santa Rita 	8	Agosto	2023-05-08T00:00:00	2024-11-08T00:00:00	7	Dirección del viento	4.83
109487	7	Sololá	704	Santa Lucía Utatlán 	7	Santa Rita 	8	Agosto	2023-05-08T00:00:00	2024-11-08T00:00:00	1	Precipitación	0
109488	7	Sololá	704	Santa Lucía Utatlán 	7	Santa Rita 	8	Agosto	2023-05-08T00:00:00	2024-11-08T00:00:00	8	Radiación solar	0
109489	7	Sololá	704	Santa Lucía Utatlán 	7	Santa Rita 	8	Agosto	2023-05-08T00:00:00	2024-11-08T01:00:00	2	Temperatura media	17.7
109490	7	Sololá	704	Santa Lucía Utatlán 	7	Santa Rita 	8	Agosto	2023-05-08T00:00:00	2024-11-08T01:00:00	4	Temperatura máxima	18.3
109491	7	Sololá	704	Santa Lucía Utatlán 	7	Santa Rita 	8	Agosto	2023-05-08T00:00:00	2024-11-08T01:00:00	3	Temperatura mínima	17.6
109492	7	Sololá	704	Santa Lucía Utatlán 	7	Santa Rita 	8	Agosto	2023-05-08T00:00:00	2024-11-08T01:00:00	5	Humedad	84
109493	7	Sololá	704	Santa Lucía Utatlán 	7	Santa Rita 	8	Agosto	2023-05-08T00:00:00	2024-11-08T01:00:00	6	Velocidad del viento	4.8
109494	7	Sololá	704	Santa Lucía Utatlán 	7	Santa Rita 	8	Agosto	2023-05-08T00:00:00	2024-11-08T01:00:00	7	Dirección del viento	4.83
109495	7	Sololá	704	Santa Lucía Utatlán 	7	Santa Rita 	8	Agosto	2023-05-08T00:00:00	2024-11-08T01:00:00	1	Precipitación	0
109496	7	Sololá	704	Santa Lucía Utatlán 	7	Santa Rita 	8	Agosto	2023-05-08T00:00:00	2024-11-08T01:00:00	8	Radiación solar	0
109497	7	Sololá	704	Santa Lucía Utatlán 	7	Santa Rita 	8	Agosto	2023-05-08T00:00:00	2024-11-08T02:00:00	2	Temperatura media	17.7
109498	7	Sololá	704	Santa Lucía Utatlán 	7	Santa Rita 	8	Agosto	2023-05-08T00:00:00	2024-11-08T02:00:00	4	Temperatura máxima	17.8
109499	7	Sololá	704	Santa Lucía Utatlán 	7	Santa Rita 	8	Agosto	2023-05-08T00:00:00	2024-11-08T02:00:00	3	Temperatura mínima	17.4
109500	7	Sololá	704	Santa Lucía Utatlán 	7	Santa Rita 	8	Agosto	2023-05-08T00:00:00	2024-11-08T02:00:00	5	Humedad	83
109501	7	Sololá	704	Santa Lucía Utatlán 	7	Santa Rita 	8	Agosto	2023-05-08T00:00:00	2024-11-08T02:00:00	6	Velocidad del viento	4.8
109502	7	Sololá	704	Santa Lucía Utatlán 	7	Santa Rita 	8	Agosto	2023-05-08T00:00:00	2024-11-08T02:00:00	7	Dirección del viento	4.83
109503	7	Sololá	704	Santa Lucía Utatlán 	7	Santa Rita 	8	Agosto	2023-05-08T00:00:00	2024-11-08T02:00:00	1	Precipitación	0
109504	7	Sololá	704	Santa Lucía Utatlán 	7	Santa Rita 	8	Agosto	2023-05-08T00:00:00	2024-11-08T02:00:00	8	Radiación solar	0
109505	7	Sololá	704	Santa Lucía Utatlán 	7	Santa Rita 	8	Agosto	2023-05-08T00:00:00	2024-11-08T03:00:00	2	Temperatura media	17.5
109506	7	Sololá	704	Santa Lucía Utatlán 	7	Santa Rita 	8	Agosto	2023-05-08T00:00:00	2024-11-08T03:00:00	4	Temperatura máxima	17.9
109507	7	Sololá	704	Santa Lucía Utatlán 	7	Santa Rita 	8	Agosto	2023-05-08T00:00:00	2024-11-08T03:00:00	3	Temperatura mínima	17.3
109508	7	Sololá	704	Santa Lucía Utatlán 	7	Santa Rita 	8	Agosto	2023-05-08T00:00:00	2024-11-08T03:00:00	5	Humedad	80
109509	7	Sololá	704	Santa Lucía Utatlán 	7	Santa Rita 	8	Agosto	2023-05-08T00:00:00	2024-11-08T03:00:00	6	Velocidad del viento	4.8
109510	7	Sololá	704	Santa Lucía Utatlán 	7	Santa Rita 	8	Agosto	2023-05-08T00:00:00	2024-11-08T03:00:00	7	Dirección del viento	4.83
109511	7	Sololá	704	Santa Lucía Utatlán 	7	Santa Rita 	8	Agosto	2023-05-08T00:00:00	2024-11-08T03:00:00	1	Precipitación	0
109512	7	Sololá	704	Santa Lucía Utatlán 	7	Santa Rita 	8	Agosto	2023-05-08T00:00:00	2024-11-08T03:00:00	8	Radiación solar	0
109513	7	Sololá	704	Santa Lucía Utatlán 	7	Santa Rita 	8	Agosto	2023-05-08T00:00:00	2024-11-08T04:00:00	2	Temperatura media	16.7
109514	7	Sololá	704	Santa Lucía Utatlán 	7	Santa Rita 	8	Agosto	2023-05-08T00:00:00	2024-11-08T04:00:00	4	Temperatura máxima	17.7
109515	7	Sololá	704	Santa Lucía Utatlán 	7	Santa Rita 	8	Agosto	2023-05-08T00:00:00	2024-11-08T04:00:00	3	Temperatura mínima	16.7
109516	7	Sololá	704	Santa Lucía Utatlán 	7	Santa Rita 	8	Agosto	2023-05-08T00:00:00	2024-11-08T04:00:00	5	Humedad	85
109517	7	Sololá	704	Santa Lucía Utatlán 	7	Santa Rita 	8	Agosto	2023-05-08T00:00:00	2024-11-08T04:00:00	6	Velocidad del viento	3.2
109518	7	Sololá	704	Santa Lucía Utatlán 	7	Santa Rita 	8	Agosto	2023-05-08T00:00:00	2024-11-08T04:00:00	7	Dirección del viento	3.22
109519	7	Sololá	704	Santa Lucía Utatlán 	7	Santa Rita 	8	Agosto	2023-05-08T00:00:00	2024-11-08T04:00:00	1	Precipitación	0
109520	7	Sololá	704	Santa Lucía Utatlán 	7	Santa Rita 	8	Agosto	2023-05-08T00:00:00	2024-11-08T04:00:00	8	Radiación solar	0
109521	7	Sololá	704	Santa Lucía Utatlán 	7	Santa Rita 	8	Agosto	2023-05-08T00:00:00	2024-11-08T05:00:00	2	Temperatura media	17.2
109522	7	Sololá	704	Santa Lucía Utatlán 	7	Santa Rita 	8	Agosto	2023-05-08T00:00:00	2024-11-08T05:00:00	4	Temperatura máxima	17.3
109523	7	Sololá	704	Santa Lucía Utatlán 	7	Santa Rita 	8	Agosto	2023-05-08T00:00:00	2024-11-08T05:00:00	3	Temperatura mínima	17
109524	7	Sololá	704	Santa Lucía Utatlán 	7	Santa Rita 	8	Agosto	2023-05-08T00:00:00	2024-11-08T05:00:00	5	Humedad	96
109525	7	Sololá	704	Santa Lucía Utatlán 	7	Santa Rita 	8	Agosto	2023-05-08T00:00:00	2024-11-08T05:00:00	6	Velocidad del viento	3.2
109526	7	Sololá	704	Santa Lucía Utatlán 	7	Santa Rita 	8	Agosto	2023-05-08T00:00:00	2024-11-08T05:00:00	7	Dirección del viento	3.22
109527	7	Sololá	704	Santa Lucía Utatlán 	7	Santa Rita 	8	Agosto	2023-05-08T00:00:00	2024-11-08T05:00:00	1	Precipitación	0.2
109528	7	Sololá	704	Santa Lucía Utatlán 	7	Santa Rita 	8	Agosto	2023-05-08T00:00:00	2024-11-08T05:00:00	8	Radiación solar	0
109529	7	Sololá	704	Santa Lucía Utatlán 	7	Santa Rita 	8	Agosto	2023-05-08T00:00:00	2024-11-08T06:00:00	2	Temperatura media	17.5
109530	7	Sololá	704	Santa Lucía Utatlán 	7	Santa Rita 	8	Agosto	2023-05-08T00:00:00	2024-11-08T06:00:00	4	Temperatura máxima	17.6
109531	7	Sololá	704	Santa Lucía Utatlán 	7	Santa Rita 	8	Agosto	2023-05-08T00:00:00	2024-11-08T06:00:00	3	Temperatura mínima	17.1
109532	7	Sololá	704	Santa Lucía Utatlán 	7	Santa Rita 	8	Agosto	2023-05-08T00:00:00	2024-11-08T06:00:00	5	Humedad	94
109533	7	Sololá	704	Santa Lucía Utatlán 	7	Santa Rita 	8	Agosto	2023-05-08T00:00:00	2024-11-08T06:00:00	6	Velocidad del viento	3.2
109534	7	Sololá	704	Santa Lucía Utatlán 	7	Santa Rita 	8	Agosto	2023-05-08T00:00:00	2024-11-08T06:00:00	7	Dirección del viento	3.22
109535	7	Sololá	704	Santa Lucía Utatlán 	7	Santa Rita 	8	Agosto	2023-05-08T00:00:00	2024-11-08T06:00:00	1	Precipitación	0
109536	7	Sololá	704	Santa Lucía Utatlán 	7	Santa Rita 	8	Agosto	2023-05-08T00:00:00	2024-11-08T06:00:00	8	Radiación solar	1
109537	7	Sololá	704	Santa Lucía Utatlán 	7	Santa Rita 	8	Agosto	2023-05-08T00:00:00	2024-11-08T07:00:00	2	Temperatura media	18.1
109538	7	Sololá	704	Santa Lucía Utatlán 	7	Santa Rita 	8	Agosto	2023-05-08T00:00:00	2024-11-08T07:00:00	4	Temperatura máxima	18.1
109539	7	Sololá	704	Santa Lucía Utatlán 	7	Santa Rita 	8	Agosto	2023-05-08T00:00:00	2024-11-08T07:00:00	3	Temperatura mínima	17.4
109540	7	Sololá	704	Santa Lucía Utatlán 	7	Santa Rita 	8	Agosto	2023-05-08T00:00:00	2024-11-08T07:00:00	5	Humedad	94
109541	7	Sololá	704	Santa Lucía Utatlán 	7	Santa Rita 	8	Agosto	2023-05-08T00:00:00	2024-11-08T07:00:00	6	Velocidad del viento	3.2
109542	7	Sololá	704	Santa Lucía Utatlán 	7	Santa Rita 	8	Agosto	2023-05-08T00:00:00	2024-11-08T07:00:00	7	Dirección del viento	3.22
109543	7	Sololá	704	Santa Lucía Utatlán 	7	Santa Rita 	8	Agosto	2023-05-08T00:00:00	2024-11-08T07:00:00	1	Precipitación	0
109544	7	Sololá	704	Santa Lucía Utatlán 	7	Santa Rita 	8	Agosto	2023-05-08T00:00:00	2024-11-08T07:00:00	8	Radiación solar	33
109545	7	Sololá	704	Santa Lucía Utatlán 	7	Santa Rita 	8	Agosto	2023-05-08T00:00:00	2024-11-08T08:00:00	2	Temperatura media	22.4
109546	7	Sololá	704	Santa Lucía Utatlán 	7	Santa Rita 	8	Agosto	2023-05-08T00:00:00	2024-11-08T08:00:00	4	Temperatura máxima	22.4
109547	7	Sololá	704	Santa Lucía Utatlán 	7	Santa Rita 	8	Agosto	2023-05-08T00:00:00	2024-11-08T08:00:00	3	Temperatura mínima	18.4
109548	7	Sololá	704	Santa Lucía Utatlán 	7	Santa Rita 	8	Agosto	2023-05-08T00:00:00	2024-11-08T08:00:00	5	Humedad	77
109549	7	Sololá	704	Santa Lucía Utatlán 	7	Santa Rita 	8	Agosto	2023-05-08T00:00:00	2024-11-08T08:00:00	6	Velocidad del viento	4.8
109550	7	Sololá	704	Santa Lucía Utatlán 	7	Santa Rita 	8	Agosto	2023-05-08T00:00:00	2024-11-08T08:00:00	7	Dirección del viento	4.83
109551	7	Sololá	704	Santa Lucía Utatlán 	7	Santa Rita 	8	Agosto	2023-05-08T00:00:00	2024-11-08T08:00:00	1	Precipitación	0
109552	7	Sololá	704	Santa Lucía Utatlán 	7	Santa Rita 	8	Agosto	2023-05-08T00:00:00	2024-11-08T08:00:00	8	Radiación solar	343
109553	7	Sololá	704	Santa Lucía Utatlán 	7	Santa Rita 	8	Agosto	2023-05-08T00:00:00	2024-11-08T09:00:00	2	Temperatura media	24.8
109554	7	Sololá	704	Santa Lucía Utatlán 	7	Santa Rita 	8	Agosto	2023-05-08T00:00:00	2024-11-08T09:00:00	4	Temperatura máxima	24.8
109555	7	Sololá	704	Santa Lucía Utatlán 	7	Santa Rita 	8	Agosto	2023-05-08T00:00:00	2024-11-08T09:00:00	3	Temperatura mínima	22.4
109556	7	Sololá	704	Santa Lucía Utatlán 	7	Santa Rita 	8	Agosto	2023-05-08T00:00:00	2024-11-08T09:00:00	5	Humedad	52
109557	7	Sololá	704	Santa Lucía Utatlán 	7	Santa Rita 	8	Agosto	2023-05-08T00:00:00	2024-11-08T09:00:00	6	Velocidad del viento	4.8
109558	7	Sololá	704	Santa Lucía Utatlán 	7	Santa Rita 	8	Agosto	2023-05-08T00:00:00	2024-11-08T09:00:00	7	Dirección del viento	4.83
109559	7	Sololá	704	Santa Lucía Utatlán 	7	Santa Rita 	8	Agosto	2023-05-08T00:00:00	2024-11-08T09:00:00	1	Precipitación	0
109560	7	Sololá	704	Santa Lucía Utatlán 	7	Santa Rita 	8	Agosto	2023-05-08T00:00:00	2024-11-08T09:00:00	8	Radiación solar	579
109561	7	Sololá	704	Santa Lucía Utatlán 	7	Santa Rita 	8	Agosto	2023-05-08T00:00:00	2024-11-08T10:00:00	2	Temperatura media	25.4
109562	7	Sololá	704	Santa Lucía Utatlán 	7	Santa Rita 	8	Agosto	2023-05-08T00:00:00	2024-11-08T10:00:00	4	Temperatura máxima	25.6
109563	7	Sololá	704	Santa Lucía Utatlán 	7	Santa Rita 	8	Agosto	2023-05-08T00:00:00	2024-11-08T10:00:00	3	Temperatura mínima	24.8
109564	7	Sololá	704	Santa Lucía Utatlán 	7	Santa Rita 	8	Agosto	2023-05-08T00:00:00	2024-11-08T10:00:00	5	Humedad	41
109565	7	Sololá	704	Santa Lucía Utatlán 	7	Santa Rita 	8	Agosto	2023-05-08T00:00:00	2024-11-08T10:00:00	6	Velocidad del viento	11.3
109566	7	Sololá	704	Santa Lucía Utatlán 	7	Santa Rita 	8	Agosto	2023-05-08T00:00:00	2024-11-08T10:00:00	7	Dirección del viento	11.27
109567	7	Sololá	704	Santa Lucía Utatlán 	7	Santa Rita 	8	Agosto	2023-05-08T00:00:00	2024-11-08T10:00:00	1	Precipitación	0
109568	7	Sololá	704	Santa Lucía Utatlán 	7	Santa Rita 	8	Agosto	2023-05-08T00:00:00	2024-11-08T10:00:00	8	Radiación solar	831
109569	7	Sololá	704	Santa Lucía Utatlán 	7	Santa Rita 	8	Agosto	2023-05-08T00:00:00	2024-11-08T11:00:00	2	Temperatura media	25.9
109570	7	Sololá	704	Santa Lucía Utatlán 	7	Santa Rita 	8	Agosto	2023-05-08T00:00:00	2024-11-08T11:00:00	4	Temperatura máxima	26
109571	7	Sololá	704	Santa Lucía Utatlán 	7	Santa Rita 	8	Agosto	2023-05-08T00:00:00	2024-11-08T11:00:00	3	Temperatura mínima	25.2
109572	7	Sololá	704	Santa Lucía Utatlán 	7	Santa Rita 	8	Agosto	2023-05-08T00:00:00	2024-11-08T11:00:00	5	Humedad	44
109573	7	Sololá	704	Santa Lucía Utatlán 	7	Santa Rita 	8	Agosto	2023-05-08T00:00:00	2024-11-08T11:00:00	6	Velocidad del viento	11.3
109574	7	Sololá	704	Santa Lucía Utatlán 	7	Santa Rita 	8	Agosto	2023-05-08T00:00:00	2024-11-08T11:00:00	7	Dirección del viento	11.27
109575	7	Sololá	704	Santa Lucía Utatlán 	7	Santa Rita 	8	Agosto	2023-05-08T00:00:00	2024-11-08T11:00:00	1	Precipitación	0
109576	7	Sololá	704	Santa Lucía Utatlán 	7	Santa Rita 	8	Agosto	2023-05-08T00:00:00	2024-11-08T11:00:00	8	Radiación solar	898
109577	7	Sololá	704	Santa Lucía Utatlán 	7	Santa Rita 	8	Agosto	2023-05-08T00:00:00	2024-11-08T12:00:00	2	Temperatura media	25.8
109578	7	Sololá	704	Santa Lucía Utatlán 	7	Santa Rita 	8	Agosto	2023-05-08T00:00:00	2024-11-08T12:00:00	4	Temperatura máxima	26
109579	7	Sololá	704	Santa Lucía Utatlán 	7	Santa Rita 	8	Agosto	2023-05-08T00:00:00	2024-11-08T12:00:00	3	Temperatura mínima	25.5
109580	7	Sololá	704	Santa Lucía Utatlán 	7	Santa Rita 	8	Agosto	2023-05-08T00:00:00	2024-11-08T12:00:00	5	Humedad	47
109581	7	Sololá	704	Santa Lucía Utatlán 	7	Santa Rita 	8	Agosto	2023-05-08T00:00:00	2024-11-08T12:00:00	6	Velocidad del viento	12.9
109582	7	Sololá	704	Santa Lucía Utatlán 	7	Santa Rita 	8	Agosto	2023-05-08T00:00:00	2024-11-08T12:00:00	7	Dirección del viento	12.87
109583	7	Sololá	704	Santa Lucía Utatlán 	7	Santa Rita 	8	Agosto	2023-05-08T00:00:00	2024-11-08T12:00:00	1	Precipitación	0
109584	7	Sololá	704	Santa Lucía Utatlán 	7	Santa Rita 	8	Agosto	2023-05-08T00:00:00	2024-11-08T12:00:00	8	Radiación solar	1017
109585	7	Sololá	704	Santa Lucía Utatlán 	7	Santa Rita 	8	Agosto	2023-05-08T00:00:00	2024-11-08T13:00:00	2	Temperatura media	26.1
109586	7	Sololá	704	Santa Lucía Utatlán 	7	Santa Rita 	8	Agosto	2023-05-08T00:00:00	2024-11-08T13:00:00	4	Temperatura máxima	26.4
109587	7	Sololá	704	Santa Lucía Utatlán 	7	Santa Rita 	8	Agosto	2023-05-08T00:00:00	2024-11-08T13:00:00	3	Temperatura mínima	25.8
109588	7	Sololá	704	Santa Lucía Utatlán 	7	Santa Rita 	8	Agosto	2023-05-08T00:00:00	2024-11-08T13:00:00	5	Humedad	41
109589	7	Sololá	704	Santa Lucía Utatlán 	7	Santa Rita 	8	Agosto	2023-05-08T00:00:00	2024-11-08T13:00:00	6	Velocidad del viento	12.9
109590	7	Sololá	704	Santa Lucía Utatlán 	7	Santa Rita 	8	Agosto	2023-05-08T00:00:00	2024-11-08T13:00:00	7	Dirección del viento	12.87
109591	7	Sololá	704	Santa Lucía Utatlán 	7	Santa Rita 	8	Agosto	2023-05-08T00:00:00	2024-11-08T13:00:00	1	Precipitación	0
109592	7	Sololá	704	Santa Lucía Utatlán 	7	Santa Rita 	8	Agosto	2023-05-08T00:00:00	2024-11-08T13:00:00	8	Radiación solar	1015
109593	7	Sololá	704	Santa Lucía Utatlán 	7	Santa Rita 	8	Agosto	2023-05-08T00:00:00	2024-11-08T14:00:00	2	Temperatura media	26.2
109594	7	Sololá	704	Santa Lucía Utatlán 	7	Santa Rita 	8	Agosto	2023-05-08T00:00:00	2024-11-08T14:00:00	4	Temperatura máxima	26.5
109595	7	Sololá	704	Santa Lucía Utatlán 	7	Santa Rita 	8	Agosto	2023-05-08T00:00:00	2024-11-08T14:00:00	3	Temperatura mínima	25.9
109596	7	Sololá	704	Santa Lucía Utatlán 	7	Santa Rita 	8	Agosto	2023-05-08T00:00:00	2024-11-08T14:00:00	5	Humedad	46
109597	7	Sololá	704	Santa Lucía Utatlán 	7	Santa Rita 	8	Agosto	2023-05-08T00:00:00	2024-11-08T14:00:00	6	Velocidad del viento	9.7
109598	7	Sololá	704	Santa Lucía Utatlán 	7	Santa Rita 	8	Agosto	2023-05-08T00:00:00	2024-11-08T14:00:00	7	Dirección del viento	9.66
109599	7	Sololá	704	Santa Lucía Utatlán 	7	Santa Rita 	8	Agosto	2023-05-08T00:00:00	2024-11-08T14:00:00	1	Precipitación	0
109600	7	Sololá	704	Santa Lucía Utatlán 	7	Santa Rita 	8	Agosto	2023-05-08T00:00:00	2024-11-08T14:00:00	8	Radiación solar	927
109601	7	Sololá	704	Santa Lucía Utatlán 	7	Santa Rita 	8	Agosto	2023-05-08T00:00:00	2024-11-08T15:00:00	2	Temperatura media	26.2
109602	7	Sololá	704	Santa Lucía Utatlán 	7	Santa Rita 	8	Agosto	2023-05-08T00:00:00	2024-11-08T15:00:00	4	Temperatura máxima	26.7
109603	7	Sololá	704	Santa Lucía Utatlán 	7	Santa Rita 	8	Agosto	2023-05-08T00:00:00	2024-11-08T15:00:00	3	Temperatura mínima	25.8
109604	7	Sololá	704	Santa Lucía Utatlán 	7	Santa Rita 	8	Agosto	2023-05-08T00:00:00	2024-11-08T15:00:00	5	Humedad	47
109605	7	Sololá	704	Santa Lucía Utatlán 	7	Santa Rita 	8	Agosto	2023-05-08T00:00:00	2024-11-08T15:00:00	6	Velocidad del viento	11.3
109606	7	Sololá	704	Santa Lucía Utatlán 	7	Santa Rita 	8	Agosto	2023-05-08T00:00:00	2024-11-08T15:00:00	7	Dirección del viento	11.27
109607	7	Sololá	704	Santa Lucía Utatlán 	7	Santa Rita 	8	Agosto	2023-05-08T00:00:00	2024-11-08T15:00:00	1	Precipitación	0
109608	7	Sololá	704	Santa Lucía Utatlán 	7	Santa Rita 	8	Agosto	2023-05-08T00:00:00	2024-11-08T15:00:00	8	Radiación solar	794
109609	7	Sololá	704	Santa Lucía Utatlán 	7	Santa Rita 	8	Agosto	2023-05-08T00:00:00	2024-11-08T16:00:00	2	Temperatura media	25.9
109610	7	Sololá	704	Santa Lucía Utatlán 	7	Santa Rita 	8	Agosto	2023-05-08T00:00:00	2024-11-08T16:00:00	4	Temperatura máxima	26.8
109611	7	Sololá	704	Santa Lucía Utatlán 	7	Santa Rita 	8	Agosto	2023-05-08T00:00:00	2024-11-08T16:00:00	3	Temperatura mínima	25.9
109612	7	Sololá	704	Santa Lucía Utatlán 	7	Santa Rita 	8	Agosto	2023-05-08T00:00:00	2024-11-08T16:00:00	5	Humedad	49
109613	7	Sololá	704	Santa Lucía Utatlán 	7	Santa Rita 	8	Agosto	2023-05-08T00:00:00	2024-11-08T16:00:00	6	Velocidad del viento	11.3
109614	7	Sololá	704	Santa Lucía Utatlán 	7	Santa Rita 	8	Agosto	2023-05-08T00:00:00	2024-11-08T16:00:00	7	Dirección del viento	11.27
109615	7	Sololá	704	Santa Lucía Utatlán 	7	Santa Rita 	8	Agosto	2023-05-08T00:00:00	2024-11-08T16:00:00	1	Precipitación	0
109616	7	Sololá	704	Santa Lucía Utatlán 	7	Santa Rita 	8	Agosto	2023-05-08T00:00:00	2024-11-08T16:00:00	8	Radiación solar	632
109617	7	Sololá	704	Santa Lucía Utatlán 	7	Santa Rita 	8	Agosto	2023-05-08T00:00:00	2024-11-08T17:00:00	2	Temperatura media	25.4
109618	7	Sololá	704	Santa Lucía Utatlán 	7	Santa Rita 	8	Agosto	2023-05-08T00:00:00	2024-11-08T17:00:00	4	Temperatura máxima	26.4
109619	7	Sololá	704	Santa Lucía Utatlán 	7	Santa Rita 	8	Agosto	2023-05-08T00:00:00	2024-11-08T17:00:00	3	Temperatura mínima	25.3
109620	7	Sololá	704	Santa Lucía Utatlán 	7	Santa Rita 	8	Agosto	2023-05-08T00:00:00	2024-11-08T17:00:00	5	Humedad	52
109621	7	Sololá	704	Santa Lucía Utatlán 	7	Santa Rita 	8	Agosto	2023-05-08T00:00:00	2024-11-08T17:00:00	6	Velocidad del viento	9.7
109622	7	Sololá	704	Santa Lucía Utatlán 	7	Santa Rita 	8	Agosto	2023-05-08T00:00:00	2024-11-08T17:00:00	7	Dirección del viento	9.66
109623	7	Sololá	704	Santa Lucía Utatlán 	7	Santa Rita 	8	Agosto	2023-05-08T00:00:00	2024-11-08T17:00:00	1	Precipitación	0
109624	7	Sololá	704	Santa Lucía Utatlán 	7	Santa Rita 	8	Agosto	2023-05-08T00:00:00	2024-11-08T17:00:00	8	Radiación solar	396
109625	7	Sololá	704	Santa Lucía Utatlán 	7	Santa Rita 	8	Agosto	2023-05-08T00:00:00	2024-11-08T18:00:00	2	Temperatura media	23.3
109626	7	Sololá	704	Santa Lucía Utatlán 	7	Santa Rita 	8	Agosto	2023-05-08T00:00:00	2024-11-08T18:00:00	4	Temperatura máxima	25.8
109627	7	Sololá	704	Santa Lucía Utatlán 	7	Santa Rita 	8	Agosto	2023-05-08T00:00:00	2024-11-08T18:00:00	3	Temperatura mínima	23.2
109628	7	Sololá	704	Santa Lucía Utatlán 	7	Santa Rita 	8	Agosto	2023-05-08T00:00:00	2024-11-08T18:00:00	5	Humedad	66
109629	7	Sololá	704	Santa Lucía Utatlán 	7	Santa Rita 	8	Agosto	2023-05-08T00:00:00	2024-11-08T18:00:00	6	Velocidad del viento	4.8
109630	7	Sololá	704	Santa Lucía Utatlán 	7	Santa Rita 	8	Agosto	2023-05-08T00:00:00	2024-11-08T18:00:00	7	Dirección del viento	4.83
109631	7	Sololá	704	Santa Lucía Utatlán 	7	Santa Rita 	8	Agosto	2023-05-08T00:00:00	2024-11-08T18:00:00	1	Precipitación	0
109632	7	Sololá	704	Santa Lucía Utatlán 	7	Santa Rita 	8	Agosto	2023-05-08T00:00:00	2024-11-08T18:00:00	8	Radiación solar	66
109633	7	Sololá	704	Santa Lucía Utatlán 	7	Santa Rita 	8	Agosto	2023-05-08T00:00:00	2024-11-08T19:00:00	2	Temperatura media	22.3
109634	7	Sololá	704	Santa Lucía Utatlán 	7	Santa Rita 	8	Agosto	2023-05-08T00:00:00	2024-11-08T19:00:00	4	Temperatura máxima	23.3
109635	7	Sololá	704	Santa Lucía Utatlán 	7	Santa Rita 	8	Agosto	2023-05-08T00:00:00	2024-11-08T19:00:00	3	Temperatura mínima	21.8
109636	7	Sololá	704	Santa Lucía Utatlán 	7	Santa Rita 	8	Agosto	2023-05-08T00:00:00	2024-11-08T19:00:00	5	Humedad	70
109637	7	Sololá	704	Santa Lucía Utatlán 	7	Santa Rita 	8	Agosto	2023-05-08T00:00:00	2024-11-08T19:00:00	6	Velocidad del viento	4.8
109638	7	Sololá	704	Santa Lucía Utatlán 	7	Santa Rita 	8	Agosto	2023-05-08T00:00:00	2024-11-08T19:00:00	7	Dirección del viento	4.83
109639	7	Sololá	704	Santa Lucía Utatlán 	7	Santa Rita 	8	Agosto	2023-05-08T00:00:00	2024-11-08T19:00:00	1	Precipitación	0
109640	7	Sololá	704	Santa Lucía Utatlán 	7	Santa Rita 	8	Agosto	2023-05-08T00:00:00	2024-11-08T19:00:00	8	Radiación solar	0
109641	7	Sololá	704	Santa Lucía Utatlán 	7	Santa Rita 	8	Agosto	2023-05-08T00:00:00	2024-11-08T20:00:00	2	Temperatura media	19.9
109642	7	Sololá	704	Santa Lucía Utatlán 	7	Santa Rita 	8	Agosto	2023-05-08T00:00:00	2024-11-08T20:00:00	4	Temperatura máxima	22.3
109643	7	Sololá	704	Santa Lucía Utatlán 	7	Santa Rita 	8	Agosto	2023-05-08T00:00:00	2024-11-08T20:00:00	3	Temperatura mínima	19.9
109644	7	Sololá	704	Santa Lucía Utatlán 	7	Santa Rita 	8	Agosto	2023-05-08T00:00:00	2024-11-08T20:00:00	5	Humedad	81
109645	7	Sololá	704	Santa Lucía Utatlán 	7	Santa Rita 	8	Agosto	2023-05-08T00:00:00	2024-11-08T20:00:00	6	Velocidad del viento	3.2
109646	7	Sololá	704	Santa Lucía Utatlán 	7	Santa Rita 	8	Agosto	2023-05-08T00:00:00	2024-11-08T20:00:00	7	Dirección del viento	3.22
109647	7	Sololá	704	Santa Lucía Utatlán 	7	Santa Rita 	8	Agosto	2023-05-08T00:00:00	2024-11-08T20:00:00	1	Precipitación	0
109648	7	Sololá	704	Santa Lucía Utatlán 	7	Santa Rita 	8	Agosto	2023-05-08T00:00:00	2024-11-08T20:00:00	8	Radiación solar	0
109649	7	Sololá	704	Santa Lucía Utatlán 	7	Santa Rita 	8	Agosto	2023-05-08T00:00:00	2024-11-08T21:00:00	2	Temperatura media	19.7
109650	7	Sololá	704	Santa Lucía Utatlán 	7	Santa Rita 	8	Agosto	2023-05-08T00:00:00	2024-11-08T21:00:00	4	Temperatura máxima	19.9
109651	7	Sololá	704	Santa Lucía Utatlán 	7	Santa Rita 	8	Agosto	2023-05-08T00:00:00	2024-11-08T21:00:00	3	Temperatura mínima	19.1
109652	7	Sololá	704	Santa Lucía Utatlán 	7	Santa Rita 	8	Agosto	2023-05-08T00:00:00	2024-11-08T21:00:00	5	Humedad	81
109653	7	Sololá	704	Santa Lucía Utatlán 	7	Santa Rita 	8	Agosto	2023-05-08T00:00:00	2024-11-08T21:00:00	6	Velocidad del viento	3.2
109654	7	Sololá	704	Santa Lucía Utatlán 	7	Santa Rita 	8	Agosto	2023-05-08T00:00:00	2024-11-08T21:00:00	7	Dirección del viento	3.22
109655	7	Sololá	704	Santa Lucía Utatlán 	7	Santa Rita 	8	Agosto	2023-05-08T00:00:00	2024-11-08T21:00:00	1	Precipitación	0
109656	7	Sololá	704	Santa Lucía Utatlán 	7	Santa Rita 	8	Agosto	2023-05-08T00:00:00	2024-11-08T21:00:00	8	Radiación solar	0
109657	7	Sololá	704	Santa Lucía Utatlán 	7	Santa Rita 	8	Agosto	2023-05-08T00:00:00	2024-11-08T22:00:00	2	Temperatura media	18.4
109658	7	Sololá	704	Santa Lucía Utatlán 	7	Santa Rita 	8	Agosto	2023-05-08T00:00:00	2024-11-08T22:00:00	4	Temperatura máxima	19.8
109659	7	Sololá	704	Santa Lucía Utatlán 	7	Santa Rita 	8	Agosto	2023-05-08T00:00:00	2024-11-08T22:00:00	3	Temperatura mínima	18.3
109660	7	Sololá	704	Santa Lucía Utatlán 	7	Santa Rita 	8	Agosto	2023-05-08T00:00:00	2024-11-08T22:00:00	5	Humedad	82
109661	7	Sololá	704	Santa Lucía Utatlán 	7	Santa Rita 	8	Agosto	2023-05-08T00:00:00	2024-11-08T22:00:00	6	Velocidad del viento	3.2
109662	7	Sololá	704	Santa Lucía Utatlán 	7	Santa Rita 	8	Agosto	2023-05-08T00:00:00	2024-11-08T22:00:00	7	Dirección del viento	3.22
109663	7	Sololá	704	Santa Lucía Utatlán 	7	Santa Rita 	8	Agosto	2023-05-08T00:00:00	2024-11-08T22:00:00	1	Precipitación	0
109664	7	Sololá	704	Santa Lucía Utatlán 	7	Santa Rita 	8	Agosto	2023-05-08T00:00:00	2024-11-08T22:00:00	8	Radiación solar	0
109665	7	Sololá	704	Santa Lucía Utatlán 	7	Santa Rita 	8	Agosto	2023-05-08T00:00:00	2024-11-08T23:00:00	2	Temperatura media	17.8
109666	7	Sololá	704	Santa Lucía Utatlán 	7	Santa Rita 	8	Agosto	2023-05-08T00:00:00	2024-11-08T23:00:00	4	Temperatura máxima	18.6
109667	7	Sololá	704	Santa Lucía Utatlán 	7	Santa Rita 	8	Agosto	2023-05-08T00:00:00	2024-11-08T23:00:00	3	Temperatura mínima	17.5
109668	7	Sololá	704	Santa Lucía Utatlán 	7	Santa Rita 	8	Agosto	2023-05-08T00:00:00	2024-11-08T23:00:00	5	Humedad	84
109669	7	Sololá	704	Santa Lucía Utatlán 	7	Santa Rita 	8	Agosto	2023-05-08T00:00:00	2024-11-08T23:00:00	6	Velocidad del viento	4.8
109670	7	Sololá	704	Santa Lucía Utatlán 	7	Santa Rita 	8	Agosto	2023-05-08T00:00:00	2024-11-08T23:00:00	7	Dirección del viento	4.83
109671	7	Sololá	704	Santa Lucía Utatlán 	7	Santa Rita 	8	Agosto	2023-05-08T00:00:00	2024-11-08T23:00:00	1	Precipitación	0
109672	7	Sololá	704	Santa Lucía Utatlán 	7	Santa Rita 	8	Agosto	2023-05-08T00:00:00	2024-11-08T23:00:00	8	Radiación solar	0
109673	7	Sololá	704	Santa Lucía Utatlán 	7	Santa Rita 	8	Agosto	2023-06-08T00:00:00	2024-11-08T00:00:00	2	Temperatura media	17.1
109674	7	Sololá	704	Santa Lucía Utatlán 	7	Santa Rita 	8	Agosto	2023-06-08T00:00:00	2024-11-08T00:00:00	4	Temperatura máxima	17.8
109675	7	Sololá	704	Santa Lucía Utatlán 	7	Santa Rita 	8	Agosto	2023-06-08T00:00:00	2024-11-08T00:00:00	3	Temperatura mínima	17.1
109676	7	Sololá	704	Santa Lucía Utatlán 	7	Santa Rita 	8	Agosto	2023-06-08T00:00:00	2024-11-08T00:00:00	5	Humedad	80
109677	7	Sololá	704	Santa Lucía Utatlán 	7	Santa Rita 	8	Agosto	2023-06-08T00:00:00	2024-11-08T00:00:00	6	Velocidad del viento	3.2
109678	7	Sololá	704	Santa Lucía Utatlán 	7	Santa Rita 	8	Agosto	2023-06-08T00:00:00	2024-11-08T00:00:00	7	Dirección del viento	3.22
109679	7	Sololá	704	Santa Lucía Utatlán 	7	Santa Rita 	8	Agosto	2023-06-08T00:00:00	2024-11-08T00:00:00	1	Precipitación	0
109680	7	Sololá	704	Santa Lucía Utatlán 	7	Santa Rita 	8	Agosto	2023-06-08T00:00:00	2024-11-08T00:00:00	8	Radiación solar	0
109681	7	Sololá	704	Santa Lucía Utatlán 	7	Santa Rita 	8	Agosto	2023-06-08T00:00:00	2024-11-08T01:00:00	2	Temperatura media	16.6
109682	7	Sololá	704	Santa Lucía Utatlán 	7	Santa Rita 	8	Agosto	2023-06-08T00:00:00	2024-11-08T01:00:00	4	Temperatura máxima	17.3
109683	7	Sololá	704	Santa Lucía Utatlán 	7	Santa Rita 	8	Agosto	2023-06-08T00:00:00	2024-11-08T01:00:00	3	Temperatura mínima	16.6
109684	7	Sololá	704	Santa Lucía Utatlán 	7	Santa Rita 	8	Agosto	2023-06-08T00:00:00	2024-11-08T01:00:00	5	Humedad	77
109685	7	Sololá	704	Santa Lucía Utatlán 	7	Santa Rita 	8	Agosto	2023-06-08T00:00:00	2024-11-08T01:00:00	6	Velocidad del viento	3.2
109686	7	Sololá	704	Santa Lucía Utatlán 	7	Santa Rita 	8	Agosto	2023-06-08T00:00:00	2024-11-08T01:00:00	7	Dirección del viento	3.22
109687	7	Sololá	704	Santa Lucía Utatlán 	7	Santa Rita 	8	Agosto	2023-06-08T00:00:00	2024-11-08T01:00:00	1	Precipitación	0
109688	7	Sololá	704	Santa Lucía Utatlán 	7	Santa Rita 	8	Agosto	2023-06-08T00:00:00	2024-11-08T01:00:00	8	Radiación solar	0
109689	7	Sololá	704	Santa Lucía Utatlán 	7	Santa Rita 	8	Agosto	2023-06-08T00:00:00	2024-11-08T02:00:00	2	Temperatura media	18.1
109690	7	Sololá	704	Santa Lucía Utatlán 	7	Santa Rita 	8	Agosto	2023-06-08T00:00:00	2024-11-08T02:00:00	4	Temperatura máxima	19.2
109691	7	Sololá	704	Santa Lucía Utatlán 	7	Santa Rita 	8	Agosto	2023-06-08T00:00:00	2024-11-08T02:00:00	3	Temperatura mínima	16.6
109692	7	Sololá	704	Santa Lucía Utatlán 	7	Santa Rita 	8	Agosto	2023-06-08T00:00:00	2024-11-08T02:00:00	5	Humedad	73
109693	7	Sololá	704	Santa Lucía Utatlán 	7	Santa Rita 	8	Agosto	2023-06-08T00:00:00	2024-11-08T02:00:00	6	Velocidad del viento	4.8
109694	7	Sololá	704	Santa Lucía Utatlán 	7	Santa Rita 	8	Agosto	2023-06-08T00:00:00	2024-11-08T02:00:00	7	Dirección del viento	4.83
109695	7	Sololá	704	Santa Lucía Utatlán 	7	Santa Rita 	8	Agosto	2023-06-08T00:00:00	2024-11-08T02:00:00	1	Precipitación	0
109696	7	Sololá	704	Santa Lucía Utatlán 	7	Santa Rita 	8	Agosto	2023-06-08T00:00:00	2024-11-08T02:00:00	8	Radiación solar	0
109697	7	Sololá	704	Santa Lucía Utatlán 	7	Santa Rita 	8	Agosto	2023-06-08T00:00:00	2024-11-08T03:00:00	2	Temperatura media	16.6
109698	7	Sololá	704	Santa Lucía Utatlán 	7	Santa Rita 	8	Agosto	2023-06-08T00:00:00	2024-11-08T03:00:00	4	Temperatura máxima	18.1
109699	7	Sololá	704	Santa Lucía Utatlán 	7	Santa Rita 	8	Agosto	2023-06-08T00:00:00	2024-11-08T03:00:00	3	Temperatura mínima	16.6
109700	7	Sololá	704	Santa Lucía Utatlán 	7	Santa Rita 	8	Agosto	2023-06-08T00:00:00	2024-11-08T03:00:00	5	Humedad	79
109701	7	Sololá	704	Santa Lucía Utatlán 	7	Santa Rita 	8	Agosto	2023-06-08T00:00:00	2024-11-08T03:00:00	6	Velocidad del viento	1.6
109702	7	Sololá	704	Santa Lucía Utatlán 	7	Santa Rita 	8	Agosto	2023-06-08T00:00:00	2024-11-08T03:00:00	7	Dirección del viento	1.61
109703	7	Sololá	704	Santa Lucía Utatlán 	7	Santa Rita 	8	Agosto	2023-06-08T00:00:00	2024-11-08T03:00:00	1	Precipitación	0
109704	7	Sololá	704	Santa Lucía Utatlán 	7	Santa Rita 	8	Agosto	2023-06-08T00:00:00	2024-11-08T03:00:00	8	Radiación solar	0
109705	7	Sololá	704	Santa Lucía Utatlán 	7	Santa Rita 	8	Agosto	2023-06-08T00:00:00	2024-11-08T04:00:00	2	Temperatura media	16.9
109706	7	Sololá	704	Santa Lucía Utatlán 	7	Santa Rita 	8	Agosto	2023-06-08T00:00:00	2024-11-08T04:00:00	4	Temperatura máxima	17.1
109707	7	Sololá	704	Santa Lucía Utatlán 	7	Santa Rita 	8	Agosto	2023-06-08T00:00:00	2024-11-08T04:00:00	3	Temperatura mínima	16.6
109708	7	Sololá	704	Santa Lucía Utatlán 	7	Santa Rita 	8	Agosto	2023-06-08T00:00:00	2024-11-08T04:00:00	5	Humedad	77
109709	7	Sololá	704	Santa Lucía Utatlán 	7	Santa Rita 	8	Agosto	2023-06-08T00:00:00	2024-11-08T04:00:00	6	Velocidad del viento	4.8
109710	7	Sololá	704	Santa Lucía Utatlán 	7	Santa Rita 	8	Agosto	2023-06-08T00:00:00	2024-11-08T04:00:00	7	Dirección del viento	4.83
109711	7	Sololá	704	Santa Lucía Utatlán 	7	Santa Rita 	8	Agosto	2023-06-08T00:00:00	2024-11-08T04:00:00	1	Precipitación	0
109712	7	Sololá	704	Santa Lucía Utatlán 	7	Santa Rita 	8	Agosto	2023-06-08T00:00:00	2024-11-08T04:00:00	8	Radiación solar	0
109713	7	Sololá	704	Santa Lucía Utatlán 	7	Santa Rita 	8	Agosto	2023-06-08T00:00:00	2024-11-08T05:00:00	2	Temperatura media	17.3
109714	7	Sololá	704	Santa Lucía Utatlán 	7	Santa Rita 	8	Agosto	2023-06-08T00:00:00	2024-11-08T05:00:00	4	Temperatura máxima	17.4
109715	7	Sololá	704	Santa Lucía Utatlán 	7	Santa Rita 	8	Agosto	2023-06-08T00:00:00	2024-11-08T05:00:00	3	Temperatura mínima	16.6
109716	7	Sololá	704	Santa Lucía Utatlán 	7	Santa Rita 	8	Agosto	2023-06-08T00:00:00	2024-11-08T05:00:00	5	Humedad	78
109717	7	Sololá	704	Santa Lucía Utatlán 	7	Santa Rita 	8	Agosto	2023-06-08T00:00:00	2024-11-08T05:00:00	6	Velocidad del viento	4.8
109718	7	Sololá	704	Santa Lucía Utatlán 	7	Santa Rita 	8	Agosto	2023-06-08T00:00:00	2024-11-08T05:00:00	7	Dirección del viento	4.83
109719	7	Sololá	704	Santa Lucía Utatlán 	7	Santa Rita 	8	Agosto	2023-06-08T00:00:00	2024-11-08T05:00:00	1	Precipitación	0
109720	7	Sololá	704	Santa Lucía Utatlán 	7	Santa Rita 	8	Agosto	2023-06-08T00:00:00	2024-11-08T05:00:00	8	Radiación solar	0
109721	7	Sololá	704	Santa Lucía Utatlán 	7	Santa Rita 	8	Agosto	2023-06-08T00:00:00	2024-11-08T06:00:00	2	Temperatura media	17.6
109722	7	Sololá	704	Santa Lucía Utatlán 	7	Santa Rita 	8	Agosto	2023-06-08T00:00:00	2024-11-08T06:00:00	4	Temperatura máxima	17.8
109723	7	Sololá	704	Santa Lucía Utatlán 	7	Santa Rita 	8	Agosto	2023-06-08T00:00:00	2024-11-08T06:00:00	3	Temperatura mínima	17
109724	7	Sololá	704	Santa Lucía Utatlán 	7	Santa Rita 	8	Agosto	2023-06-08T00:00:00	2024-11-08T06:00:00	5	Humedad	77
109725	7	Sololá	704	Santa Lucía Utatlán 	7	Santa Rita 	8	Agosto	2023-06-08T00:00:00	2024-11-08T06:00:00	6	Velocidad del viento	4.8
109726	7	Sololá	704	Santa Lucía Utatlán 	7	Santa Rita 	8	Agosto	2023-06-08T00:00:00	2024-11-08T06:00:00	7	Dirección del viento	4.83
109727	7	Sololá	704	Santa Lucía Utatlán 	7	Santa Rita 	8	Agosto	2023-06-08T00:00:00	2024-11-08T06:00:00	1	Precipitación	0
109728	7	Sololá	704	Santa Lucía Utatlán 	7	Santa Rita 	8	Agosto	2023-06-08T00:00:00	2024-11-08T06:00:00	8	Radiación solar	3
109729	7	Sololá	704	Santa Lucía Utatlán 	7	Santa Rita 	8	Agosto	2023-06-08T00:00:00	2024-11-08T07:00:00	2	Temperatura media	18.9
109730	7	Sololá	704	Santa Lucía Utatlán 	7	Santa Rita 	8	Agosto	2023-06-08T00:00:00	2024-11-08T07:00:00	4	Temperatura máxima	18.9
109731	7	Sololá	704	Santa Lucía Utatlán 	7	Santa Rita 	8	Agosto	2023-06-08T00:00:00	2024-11-08T07:00:00	3	Temperatura mínima	17.1
109732	7	Sololá	704	Santa Lucía Utatlán 	7	Santa Rita 	8	Agosto	2023-06-08T00:00:00	2024-11-08T07:00:00	5	Humedad	77
109733	7	Sololá	704	Santa Lucía Utatlán 	7	Santa Rita 	8	Agosto	2023-06-08T00:00:00	2024-11-08T07:00:00	6	Velocidad del viento	3.2
109734	7	Sololá	704	Santa Lucía Utatlán 	7	Santa Rita 	8	Agosto	2023-06-08T00:00:00	2024-11-08T07:00:00	7	Dirección del viento	3.22
109735	7	Sololá	704	Santa Lucía Utatlán 	7	Santa Rita 	8	Agosto	2023-06-08T00:00:00	2024-11-08T07:00:00	1	Precipitación	0
109736	7	Sololá	704	Santa Lucía Utatlán 	7	Santa Rita 	8	Agosto	2023-06-08T00:00:00	2024-11-08T07:00:00	8	Radiación solar	98
109737	7	Sololá	704	Santa Lucía Utatlán 	7	Santa Rita 	8	Agosto	2023-06-08T00:00:00	2024-11-08T08:00:00	2	Temperatura media	22.6
109738	7	Sololá	704	Santa Lucía Utatlán 	7	Santa Rita 	8	Agosto	2023-06-08T00:00:00	2024-11-08T08:00:00	4	Temperatura máxima	22.6
109739	7	Sololá	704	Santa Lucía Utatlán 	7	Santa Rita 	8	Agosto	2023-06-08T00:00:00	2024-11-08T08:00:00	3	Temperatura mínima	18.9
109740	7	Sololá	704	Santa Lucía Utatlán 	7	Santa Rita 	8	Agosto	2023-06-08T00:00:00	2024-11-08T08:00:00	5	Humedad	68
109741	7	Sololá	704	Santa Lucía Utatlán 	7	Santa Rita 	8	Agosto	2023-06-08T00:00:00	2024-11-08T08:00:00	6	Velocidad del viento	4.8
109742	7	Sololá	704	Santa Lucía Utatlán 	7	Santa Rita 	8	Agosto	2023-06-08T00:00:00	2024-11-08T08:00:00	7	Dirección del viento	4.83
109743	7	Sololá	704	Santa Lucía Utatlán 	7	Santa Rita 	8	Agosto	2023-06-08T00:00:00	2024-11-08T08:00:00	1	Precipitación	0
109744	7	Sololá	704	Santa Lucía Utatlán 	7	Santa Rita 	8	Agosto	2023-06-08T00:00:00	2024-11-08T08:00:00	8	Radiación solar	406
109745	7	Sololá	704	Santa Lucía Utatlán 	7	Santa Rita 	8	Agosto	2023-06-08T00:00:00	2024-11-08T09:00:00	2	Temperatura media	25.3
109746	7	Sololá	704	Santa Lucía Utatlán 	7	Santa Rita 	8	Agosto	2023-06-08T00:00:00	2024-11-08T09:00:00	4	Temperatura máxima	25.3
109747	7	Sololá	704	Santa Lucía Utatlán 	7	Santa Rita 	8	Agosto	2023-06-08T00:00:00	2024-11-08T09:00:00	3	Temperatura mínima	22.6
109748	7	Sololá	704	Santa Lucía Utatlán 	7	Santa Rita 	8	Agosto	2023-06-08T00:00:00	2024-11-08T09:00:00	5	Humedad	53
109749	7	Sololá	704	Santa Lucía Utatlán 	7	Santa Rita 	8	Agosto	2023-06-08T00:00:00	2024-11-08T09:00:00	6	Velocidad del viento	6.4
109750	7	Sololá	704	Santa Lucía Utatlán 	7	Santa Rita 	8	Agosto	2023-06-08T00:00:00	2024-11-08T09:00:00	7	Dirección del viento	6.44
109751	7	Sololá	704	Santa Lucía Utatlán 	7	Santa Rita 	8	Agosto	2023-06-08T00:00:00	2024-11-08T09:00:00	1	Precipitación	0
109752	7	Sololá	704	Santa Lucía Utatlán 	7	Santa Rita 	8	Agosto	2023-06-08T00:00:00	2024-11-08T09:00:00	8	Radiación solar	640
109753	7	Sololá	704	Santa Lucía Utatlán 	7	Santa Rita 	8	Agosto	2023-06-08T00:00:00	2024-11-08T10:00:00	2	Temperatura media	25.6
109754	7	Sololá	704	Santa Lucía Utatlán 	7	Santa Rita 	8	Agosto	2023-06-08T00:00:00	2024-11-08T10:00:00	4	Temperatura máxima	26
109755	7	Sololá	704	Santa Lucía Utatlán 	7	Santa Rita 	8	Agosto	2023-06-08T00:00:00	2024-11-08T10:00:00	3	Temperatura mínima	25.2
109756	7	Sololá	704	Santa Lucía Utatlán 	7	Santa Rita 	8	Agosto	2023-06-08T00:00:00	2024-11-08T10:00:00	5	Humedad	47
109757	7	Sololá	704	Santa Lucía Utatlán 	7	Santa Rita 	8	Agosto	2023-06-08T00:00:00	2024-11-08T10:00:00	6	Velocidad del viento	9.7
109758	7	Sololá	704	Santa Lucía Utatlán 	7	Santa Rita 	8	Agosto	2023-06-08T00:00:00	2024-11-08T10:00:00	7	Dirección del viento	9.66
109759	7	Sololá	704	Santa Lucía Utatlán 	7	Santa Rita 	8	Agosto	2023-06-08T00:00:00	2024-11-08T10:00:00	1	Precipitación	0
109760	7	Sololá	704	Santa Lucía Utatlán 	7	Santa Rita 	8	Agosto	2023-06-08T00:00:00	2024-11-08T10:00:00	8	Radiación solar	829
109761	7	Sololá	704	Santa Lucía Utatlán 	7	Santa Rita 	8	Agosto	2023-06-08T00:00:00	2024-11-08T11:00:00	2	Temperatura media	25.9
109762	7	Sololá	704	Santa Lucía Utatlán 	7	Santa Rita 	8	Agosto	2023-06-08T00:00:00	2024-11-08T11:00:00	4	Temperatura máxima	26.2
109763	7	Sololá	704	Santa Lucía Utatlán 	7	Santa Rita 	8	Agosto	2023-06-08T00:00:00	2024-11-08T11:00:00	3	Temperatura mínima	25.5
109764	7	Sololá	704	Santa Lucía Utatlán 	7	Santa Rita 	8	Agosto	2023-06-08T00:00:00	2024-11-08T11:00:00	5	Humedad	46
109765	7	Sololá	704	Santa Lucía Utatlán 	7	Santa Rita 	8	Agosto	2023-06-08T00:00:00	2024-11-08T11:00:00	6	Velocidad del viento	12.9
109766	7	Sololá	704	Santa Lucía Utatlán 	7	Santa Rita 	8	Agosto	2023-06-08T00:00:00	2024-11-08T11:00:00	7	Dirección del viento	12.87
109767	7	Sololá	704	Santa Lucía Utatlán 	7	Santa Rita 	8	Agosto	2023-06-08T00:00:00	2024-11-08T11:00:00	1	Precipitación	0
109768	7	Sololá	704	Santa Lucía Utatlán 	7	Santa Rita 	8	Agosto	2023-06-08T00:00:00	2024-11-08T11:00:00	8	Radiación solar	957
109769	7	Sololá	704	Santa Lucía Utatlán 	7	Santa Rita 	8	Agosto	2023-06-08T00:00:00	2024-11-08T12:00:00	2	Temperatura media	26
109770	7	Sololá	704	Santa Lucía Utatlán 	7	Santa Rita 	8	Agosto	2023-06-08T00:00:00	2024-11-08T12:00:00	4	Temperatura máxima	26.1
109771	7	Sololá	704	Santa Lucía Utatlán 	7	Santa Rita 	8	Agosto	2023-06-08T00:00:00	2024-11-08T12:00:00	3	Temperatura mínima	25.6
109772	7	Sololá	704	Santa Lucía Utatlán 	7	Santa Rita 	8	Agosto	2023-06-08T00:00:00	2024-11-08T12:00:00	5	Humedad	50
109773	7	Sololá	704	Santa Lucía Utatlán 	7	Santa Rita 	8	Agosto	2023-06-08T00:00:00	2024-11-08T12:00:00	6	Velocidad del viento	14.5
109774	7	Sololá	704	Santa Lucía Utatlán 	7	Santa Rita 	8	Agosto	2023-06-08T00:00:00	2024-11-08T12:00:00	7	Dirección del viento	14.48
109775	7	Sololá	704	Santa Lucía Utatlán 	7	Santa Rita 	8	Agosto	2023-06-08T00:00:00	2024-11-08T12:00:00	1	Precipitación	0
109776	7	Sololá	704	Santa Lucía Utatlán 	7	Santa Rita 	8	Agosto	2023-06-08T00:00:00	2024-11-08T12:00:00	8	Radiación solar	1022
109777	7	Sololá	704	Santa Lucía Utatlán 	7	Santa Rita 	8	Agosto	2023-06-08T00:00:00	2024-11-08T13:00:00	2	Temperatura media	26.2
109778	7	Sololá	704	Santa Lucía Utatlán 	7	Santa Rita 	8	Agosto	2023-06-08T00:00:00	2024-11-08T13:00:00	4	Temperatura máxima	26.4
109779	7	Sololá	704	Santa Lucía Utatlán 	7	Santa Rita 	8	Agosto	2023-06-08T00:00:00	2024-11-08T13:00:00	3	Temperatura mínima	25.7
109780	7	Sololá	704	Santa Lucía Utatlán 	7	Santa Rita 	8	Agosto	2023-06-08T00:00:00	2024-11-08T13:00:00	5	Humedad	48
109781	7	Sololá	704	Santa Lucía Utatlán 	7	Santa Rita 	8	Agosto	2023-06-08T00:00:00	2024-11-08T13:00:00	6	Velocidad del viento	14.5
109782	7	Sololá	704	Santa Lucía Utatlán 	7	Santa Rita 	8	Agosto	2023-06-08T00:00:00	2024-11-08T13:00:00	7	Dirección del viento	14.48
109783	7	Sololá	704	Santa Lucía Utatlán 	7	Santa Rita 	8	Agosto	2023-06-08T00:00:00	2024-11-08T13:00:00	1	Precipitación	0
109784	7	Sololá	704	Santa Lucía Utatlán 	7	Santa Rita 	8	Agosto	2023-06-08T00:00:00	2024-11-08T13:00:00	8	Radiación solar	1030
109785	7	Sololá	704	Santa Lucía Utatlán 	7	Santa Rita 	8	Agosto	2023-06-08T00:00:00	2024-11-08T14:00:00	2	Temperatura media	26.7
109786	7	Sololá	704	Santa Lucía Utatlán 	7	Santa Rita 	8	Agosto	2023-06-08T00:00:00	2024-11-08T14:00:00	4	Temperatura máxima	26.9
109787	7	Sololá	704	Santa Lucía Utatlán 	7	Santa Rita 	8	Agosto	2023-06-08T00:00:00	2024-11-08T14:00:00	3	Temperatura mínima	26.2
109788	7	Sololá	704	Santa Lucía Utatlán 	7	Santa Rita 	8	Agosto	2023-06-08T00:00:00	2024-11-08T14:00:00	5	Humedad	45
109789	7	Sololá	704	Santa Lucía Utatlán 	7	Santa Rita 	8	Agosto	2023-06-08T00:00:00	2024-11-08T14:00:00	6	Velocidad del viento	11.3
109790	7	Sololá	704	Santa Lucía Utatlán 	7	Santa Rita 	8	Agosto	2023-06-08T00:00:00	2024-11-08T14:00:00	7	Dirección del viento	11.27
109791	7	Sololá	704	Santa Lucía Utatlán 	7	Santa Rita 	8	Agosto	2023-06-08T00:00:00	2024-11-08T14:00:00	1	Precipitación	0
109792	7	Sololá	704	Santa Lucía Utatlán 	7	Santa Rita 	8	Agosto	2023-06-08T00:00:00	2024-11-08T14:00:00	8	Radiación solar	920
109793	7	Sololá	704	Santa Lucía Utatlán 	7	Santa Rita 	8	Agosto	2023-06-08T00:00:00	2024-11-08T15:00:00	2	Temperatura media	26.1
109794	7	Sololá	704	Santa Lucía Utatlán 	7	Santa Rita 	8	Agosto	2023-06-08T00:00:00	2024-11-08T15:00:00	4	Temperatura máxima	26.8
109795	7	Sololá	704	Santa Lucía Utatlán 	7	Santa Rita 	8	Agosto	2023-06-08T00:00:00	2024-11-08T15:00:00	3	Temperatura mínima	26
109796	7	Sololá	704	Santa Lucía Utatlán 	7	Santa Rita 	8	Agosto	2023-06-08T00:00:00	2024-11-08T15:00:00	5	Humedad	50
109797	7	Sololá	704	Santa Lucía Utatlán 	7	Santa Rita 	8	Agosto	2023-06-08T00:00:00	2024-11-08T15:00:00	6	Velocidad del viento	12.9
109798	7	Sololá	704	Santa Lucía Utatlán 	7	Santa Rita 	8	Agosto	2023-06-08T00:00:00	2024-11-08T15:00:00	7	Dirección del viento	12.87
109799	7	Sololá	704	Santa Lucía Utatlán 	7	Santa Rita 	8	Agosto	2023-06-08T00:00:00	2024-11-08T15:00:00	1	Precipitación	0
109800	7	Sololá	704	Santa Lucía Utatlán 	7	Santa Rita 	8	Agosto	2023-06-08T00:00:00	2024-11-08T15:00:00	8	Radiación solar	821
109801	7	Sololá	704	Santa Lucía Utatlán 	7	Santa Rita 	8	Agosto	2023-06-08T00:00:00	2024-11-08T16:00:00	2	Temperatura media	25.8
109802	7	Sololá	704	Santa Lucía Utatlán 	7	Santa Rita 	8	Agosto	2023-06-08T00:00:00	2024-11-08T16:00:00	4	Temperatura máxima	26.3
109803	7	Sololá	704	Santa Lucía Utatlán 	7	Santa Rita 	8	Agosto	2023-06-08T00:00:00	2024-11-08T16:00:00	3	Temperatura mínima	25.5
109804	7	Sololá	704	Santa Lucía Utatlán 	7	Santa Rita 	8	Agosto	2023-06-08T00:00:00	2024-11-08T16:00:00	5	Humedad	55
109805	7	Sololá	704	Santa Lucía Utatlán 	7	Santa Rita 	8	Agosto	2023-06-08T00:00:00	2024-11-08T16:00:00	6	Velocidad del viento	11.3
109806	7	Sololá	704	Santa Lucía Utatlán 	7	Santa Rita 	8	Agosto	2023-06-08T00:00:00	2024-11-08T16:00:00	7	Dirección del viento	11.27
109807	7	Sololá	704	Santa Lucía Utatlán 	7	Santa Rita 	8	Agosto	2023-06-08T00:00:00	2024-11-08T16:00:00	1	Precipitación	0
109808	7	Sololá	704	Santa Lucía Utatlán 	7	Santa Rita 	8	Agosto	2023-06-08T00:00:00	2024-11-08T16:00:00	8	Radiación solar	639
109809	7	Sololá	704	Santa Lucía Utatlán 	7	Santa Rita 	8	Agosto	2023-06-08T00:00:00	2024-11-08T17:00:00	2	Temperatura media	23.9
109810	7	Sololá	704	Santa Lucía Utatlán 	7	Santa Rita 	8	Agosto	2023-06-08T00:00:00	2024-11-08T17:00:00	4	Temperatura máxima	25.8
109811	7	Sololá	704	Santa Lucía Utatlán 	7	Santa Rita 	8	Agosto	2023-06-08T00:00:00	2024-11-08T17:00:00	3	Temperatura mínima	23.9
109812	7	Sololá	704	Santa Lucía Utatlán 	7	Santa Rita 	8	Agosto	2023-06-08T00:00:00	2024-11-08T17:00:00	5	Humedad	62
109813	7	Sololá	704	Santa Lucía Utatlán 	7	Santa Rita 	8	Agosto	2023-06-08T00:00:00	2024-11-08T17:00:00	6	Velocidad del viento	6.4
109814	7	Sololá	704	Santa Lucía Utatlán 	7	Santa Rita 	8	Agosto	2023-06-08T00:00:00	2024-11-08T17:00:00	7	Dirección del viento	6.44
109815	7	Sololá	704	Santa Lucía Utatlán 	7	Santa Rita 	8	Agosto	2023-06-08T00:00:00	2024-11-08T17:00:00	1	Precipitación	0
109816	7	Sololá	704	Santa Lucía Utatlán 	7	Santa Rita 	8	Agosto	2023-06-08T00:00:00	2024-11-08T17:00:00	8	Radiación solar	146
109817	7	Sololá	704	Santa Lucía Utatlán 	7	Santa Rita 	8	Agosto	2023-06-08T00:00:00	2024-11-08T18:00:00	2	Temperatura media	22.6
109818	7	Sololá	704	Santa Lucía Utatlán 	7	Santa Rita 	8	Agosto	2023-06-08T00:00:00	2024-11-08T18:00:00	4	Temperatura máxima	23.9
109819	7	Sololá	704	Santa Lucía Utatlán 	7	Santa Rita 	8	Agosto	2023-06-08T00:00:00	2024-11-08T18:00:00	3	Temperatura mínima	22.6
109820	7	Sololá	704	Santa Lucía Utatlán 	7	Santa Rita 	8	Agosto	2023-06-08T00:00:00	2024-11-08T18:00:00	5	Humedad	69
109821	7	Sololá	704	Santa Lucía Utatlán 	7	Santa Rita 	8	Agosto	2023-06-08T00:00:00	2024-11-08T18:00:00	6	Velocidad del viento	6.4
109822	7	Sololá	704	Santa Lucía Utatlán 	7	Santa Rita 	8	Agosto	2023-06-08T00:00:00	2024-11-08T18:00:00	7	Dirección del viento	6.44
109823	7	Sololá	704	Santa Lucía Utatlán 	7	Santa Rita 	8	Agosto	2023-06-08T00:00:00	2024-11-08T18:00:00	1	Precipitación	0
109824	7	Sololá	704	Santa Lucía Utatlán 	7	Santa Rita 	8	Agosto	2023-06-08T00:00:00	2024-11-08T18:00:00	8	Radiación solar	39
109825	7	Sololá	704	Santa Lucía Utatlán 	7	Santa Rita 	8	Agosto	2023-06-08T00:00:00	2024-11-08T19:00:00	2	Temperatura media	21.8
109826	7	Sololá	704	Santa Lucía Utatlán 	7	Santa Rita 	8	Agosto	2023-06-08T00:00:00	2024-11-08T19:00:00	4	Temperatura máxima	22.6
109827	7	Sololá	704	Santa Lucía Utatlán 	7	Santa Rita 	8	Agosto	2023-06-08T00:00:00	2024-11-08T19:00:00	3	Temperatura mínima	21.7
109828	7	Sololá	704	Santa Lucía Utatlán 	7	Santa Rita 	8	Agosto	2023-06-08T00:00:00	2024-11-08T19:00:00	5	Humedad	78
109829	7	Sololá	704	Santa Lucía Utatlán 	7	Santa Rita 	8	Agosto	2023-06-08T00:00:00	2024-11-08T19:00:00	6	Velocidad del viento	3.2
109830	7	Sololá	704	Santa Lucía Utatlán 	7	Santa Rita 	8	Agosto	2023-06-08T00:00:00	2024-11-08T19:00:00	7	Dirección del viento	3.22
109831	7	Sololá	704	Santa Lucía Utatlán 	7	Santa Rita 	8	Agosto	2023-06-08T00:00:00	2024-11-08T19:00:00	1	Precipitación	0
109832	7	Sololá	704	Santa Lucía Utatlán 	7	Santa Rita 	8	Agosto	2023-06-08T00:00:00	2024-11-08T19:00:00	8	Radiación solar	0
109833	7	Sololá	704	Santa Lucía Utatlán 	7	Santa Rita 	8	Agosto	2023-06-08T00:00:00	2024-11-08T20:00:00	2	Temperatura media	21.4
109834	7	Sololá	704	Santa Lucía Utatlán 	7	Santa Rita 	8	Agosto	2023-06-08T00:00:00	2024-11-08T20:00:00	4	Temperatura máxima	22
109835	7	Sololá	704	Santa Lucía Utatlán 	7	Santa Rita 	8	Agosto	2023-06-08T00:00:00	2024-11-08T20:00:00	3	Temperatura mínima	21.4
109836	7	Sololá	704	Santa Lucía Utatlán 	7	Santa Rita 	8	Agosto	2023-06-08T00:00:00	2024-11-08T20:00:00	5	Humedad	75
109837	7	Sololá	704	Santa Lucía Utatlán 	7	Santa Rita 	8	Agosto	2023-06-08T00:00:00	2024-11-08T20:00:00	6	Velocidad del viento	4.8
109838	7	Sololá	704	Santa Lucía Utatlán 	7	Santa Rita 	8	Agosto	2023-06-08T00:00:00	2024-11-08T20:00:00	7	Dirección del viento	4.83
109839	7	Sololá	704	Santa Lucía Utatlán 	7	Santa Rita 	8	Agosto	2023-06-08T00:00:00	2024-11-08T20:00:00	1	Precipitación	0
109840	7	Sololá	704	Santa Lucía Utatlán 	7	Santa Rita 	8	Agosto	2023-06-08T00:00:00	2024-11-08T20:00:00	8	Radiación solar	0
109841	7	Sololá	704	Santa Lucía Utatlán 	7	Santa Rita 	8	Agosto	2023-06-08T00:00:00	2024-11-08T21:00:00	2	Temperatura media	21.2
109842	7	Sololá	704	Santa Lucía Utatlán 	7	Santa Rita 	8	Agosto	2023-06-08T00:00:00	2024-11-08T21:00:00	4	Temperatura máxima	21.4
109843	7	Sololá	704	Santa Lucía Utatlán 	7	Santa Rita 	8	Agosto	2023-06-08T00:00:00	2024-11-08T21:00:00	3	Temperatura mínima	20.8
109844	7	Sololá	704	Santa Lucía Utatlán 	7	Santa Rita 	8	Agosto	2023-06-08T00:00:00	2024-11-08T21:00:00	5	Humedad	77
109845	7	Sololá	704	Santa Lucía Utatlán 	7	Santa Rita 	8	Agosto	2023-06-08T00:00:00	2024-11-08T21:00:00	6	Velocidad del viento	3.2
109846	7	Sololá	704	Santa Lucía Utatlán 	7	Santa Rita 	8	Agosto	2023-06-08T00:00:00	2024-11-08T21:00:00	7	Dirección del viento	3.22
109847	7	Sololá	704	Santa Lucía Utatlán 	7	Santa Rita 	8	Agosto	2023-06-08T00:00:00	2024-11-08T21:00:00	1	Precipitación	0
109848	7	Sololá	704	Santa Lucía Utatlán 	7	Santa Rita 	8	Agosto	2023-06-08T00:00:00	2024-11-08T21:00:00	8	Radiación solar	0
109849	7	Sololá	704	Santa Lucía Utatlán 	7	Santa Rita 	8	Agosto	2023-06-08T00:00:00	2024-11-08T22:00:00	2	Temperatura media	20.8
109850	7	Sololá	704	Santa Lucía Utatlán 	7	Santa Rita 	8	Agosto	2023-06-08T00:00:00	2024-11-08T22:00:00	4	Temperatura máxima	21.6
109851	7	Sololá	704	Santa Lucía Utatlán 	7	Santa Rita 	8	Agosto	2023-06-08T00:00:00	2024-11-08T22:00:00	3	Temperatura mínima	20.3
109852	7	Sololá	704	Santa Lucía Utatlán 	7	Santa Rita 	8	Agosto	2023-06-08T00:00:00	2024-11-08T22:00:00	5	Humedad	75
109853	7	Sololá	704	Santa Lucía Utatlán 	7	Santa Rita 	8	Agosto	2023-06-08T00:00:00	2024-11-08T22:00:00	6	Velocidad del viento	3.2
109854	7	Sololá	704	Santa Lucía Utatlán 	7	Santa Rita 	8	Agosto	2023-06-08T00:00:00	2024-11-08T22:00:00	7	Dirección del viento	3.22
109855	7	Sololá	704	Santa Lucía Utatlán 	7	Santa Rita 	8	Agosto	2023-06-08T00:00:00	2024-11-08T22:00:00	1	Precipitación	0
109856	7	Sololá	704	Santa Lucía Utatlán 	7	Santa Rita 	8	Agosto	2023-06-08T00:00:00	2024-11-08T22:00:00	8	Radiación solar	0
109857	7	Sololá	704	Santa Lucía Utatlán 	7	Santa Rita 	8	Agosto	2023-06-08T00:00:00	2024-11-08T23:00:00	2	Temperatura media	18.6
109858	7	Sololá	704	Santa Lucía Utatlán 	7	Santa Rita 	8	Agosto	2023-06-08T00:00:00	2024-11-08T23:00:00	4	Temperatura máxima	20.8
109859	7	Sololá	704	Santa Lucía Utatlán 	7	Santa Rita 	8	Agosto	2023-06-08T00:00:00	2024-11-08T23:00:00	3	Temperatura mínima	18.6
109860	7	Sololá	704	Santa Lucía Utatlán 	7	Santa Rita 	8	Agosto	2023-06-08T00:00:00	2024-11-08T23:00:00	5	Humedad	81
109861	7	Sololá	704	Santa Lucía Utatlán 	7	Santa Rita 	8	Agosto	2023-06-08T00:00:00	2024-11-08T23:00:00	6	Velocidad del viento	3.2
109862	7	Sololá	704	Santa Lucía Utatlán 	7	Santa Rita 	8	Agosto	2023-06-08T00:00:00	2024-11-08T23:00:00	7	Dirección del viento	3.22
109863	7	Sololá	704	Santa Lucía Utatlán 	7	Santa Rita 	8	Agosto	2023-06-08T00:00:00	2024-11-08T23:00:00	1	Precipitación	0
109864	7	Sololá	704	Santa Lucía Utatlán 	7	Santa Rita 	8	Agosto	2023-06-08T00:00:00	2024-11-08T23:00:00	8	Radiación solar	0
109865	7	Sololá	704	Santa Lucía Utatlán 	7	Santa Rita 	8	Agosto	2023-07-08T00:00:00	2024-11-08T00:00:00	2	Temperatura media	18.1
109866	7	Sololá	704	Santa Lucía Utatlán 	7	Santa Rita 	8	Agosto	2023-07-08T00:00:00	2024-11-08T00:00:00	4	Temperatura máxima	19.6
109867	7	Sololá	704	Santa Lucía Utatlán 	7	Santa Rita 	8	Agosto	2023-07-08T00:00:00	2024-11-08T00:00:00	3	Temperatura mínima	17.6
109868	7	Sololá	704	Santa Lucía Utatlán 	7	Santa Rita 	8	Agosto	2023-07-08T00:00:00	2024-11-08T00:00:00	5	Humedad	83
109869	7	Sololá	704	Santa Lucía Utatlán 	7	Santa Rita 	8	Agosto	2023-07-08T00:00:00	2024-11-08T00:00:00	6	Velocidad del viento	3.2
109870	7	Sololá	704	Santa Lucía Utatlán 	7	Santa Rita 	8	Agosto	2023-07-08T00:00:00	2024-11-08T00:00:00	7	Dirección del viento	3.22
109871	7	Sololá	704	Santa Lucía Utatlán 	7	Santa Rita 	8	Agosto	2023-07-08T00:00:00	2024-11-08T00:00:00	1	Precipitación	0
109872	7	Sololá	704	Santa Lucía Utatlán 	7	Santa Rita 	8	Agosto	2023-07-08T00:00:00	2024-11-08T00:00:00	8	Radiación solar	0
109873	7	Sololá	704	Santa Lucía Utatlán 	7	Santa Rita 	8	Agosto	2023-07-08T00:00:00	2024-11-08T01:00:00	2	Temperatura media	17.6
109874	7	Sololá	704	Santa Lucía Utatlán 	7	Santa Rita 	8	Agosto	2023-07-08T00:00:00	2024-11-08T01:00:00	4	Temperatura máxima	18.8
109875	7	Sololá	704	Santa Lucía Utatlán 	7	Santa Rita 	8	Agosto	2023-07-08T00:00:00	2024-11-08T01:00:00	3	Temperatura mínima	17.6
109876	7	Sololá	704	Santa Lucía Utatlán 	7	Santa Rita 	8	Agosto	2023-07-08T00:00:00	2024-11-08T01:00:00	5	Humedad	85
109877	7	Sololá	704	Santa Lucía Utatlán 	7	Santa Rita 	8	Agosto	2023-07-08T00:00:00	2024-11-08T01:00:00	6	Velocidad del viento	3.2
109878	7	Sololá	704	Santa Lucía Utatlán 	7	Santa Rita 	8	Agosto	2023-07-08T00:00:00	2024-11-08T01:00:00	7	Dirección del viento	3.22
109879	7	Sololá	704	Santa Lucía Utatlán 	7	Santa Rita 	8	Agosto	2023-07-08T00:00:00	2024-11-08T01:00:00	1	Precipitación	0
109880	7	Sololá	704	Santa Lucía Utatlán 	7	Santa Rita 	8	Agosto	2023-07-08T00:00:00	2024-11-08T01:00:00	8	Radiación solar	0
109881	7	Sololá	704	Santa Lucía Utatlán 	7	Santa Rita 	8	Agosto	2023-07-08T00:00:00	2024-11-08T02:00:00	2	Temperatura media	18.6
109882	7	Sololá	704	Santa Lucía Utatlán 	7	Santa Rita 	8	Agosto	2023-07-08T00:00:00	2024-11-08T02:00:00	4	Temperatura máxima	19.3
109883	7	Sololá	704	Santa Lucía Utatlán 	7	Santa Rita 	8	Agosto	2023-07-08T00:00:00	2024-11-08T02:00:00	3	Temperatura mínima	17.3
109884	7	Sololá	704	Santa Lucía Utatlán 	7	Santa Rita 	8	Agosto	2023-07-08T00:00:00	2024-11-08T02:00:00	5	Humedad	77
109885	7	Sololá	704	Santa Lucía Utatlán 	7	Santa Rita 	8	Agosto	2023-07-08T00:00:00	2024-11-08T02:00:00	6	Velocidad del viento	3.2
109886	7	Sololá	704	Santa Lucía Utatlán 	7	Santa Rita 	8	Agosto	2023-07-08T00:00:00	2024-11-08T02:00:00	7	Dirección del viento	3.22
109887	7	Sololá	704	Santa Lucía Utatlán 	7	Santa Rita 	8	Agosto	2023-07-08T00:00:00	2024-11-08T02:00:00	1	Precipitación	0
109888	7	Sololá	704	Santa Lucía Utatlán 	7	Santa Rita 	8	Agosto	2023-07-08T00:00:00	2024-11-08T02:00:00	8	Radiación solar	0
109889	7	Sololá	704	Santa Lucía Utatlán 	7	Santa Rita 	8	Agosto	2023-07-08T00:00:00	2024-11-08T03:00:00	2	Temperatura media	17.8
109890	7	Sololá	704	Santa Lucía Utatlán 	7	Santa Rita 	8	Agosto	2023-07-08T00:00:00	2024-11-08T03:00:00	4	Temperatura máxima	18.7
109891	7	Sololá	704	Santa Lucía Utatlán 	7	Santa Rita 	8	Agosto	2023-07-08T00:00:00	2024-11-08T03:00:00	3	Temperatura mínima	17.8
109892	7	Sololá	704	Santa Lucía Utatlán 	7	Santa Rita 	8	Agosto	2023-07-08T00:00:00	2024-11-08T03:00:00	5	Humedad	79
109893	7	Sololá	704	Santa Lucía Utatlán 	7	Santa Rita 	8	Agosto	2023-07-08T00:00:00	2024-11-08T03:00:00	6	Velocidad del viento	3.2
109894	7	Sololá	704	Santa Lucía Utatlán 	7	Santa Rita 	8	Agosto	2023-07-08T00:00:00	2024-11-08T03:00:00	7	Dirección del viento	3.22
109895	7	Sololá	704	Santa Lucía Utatlán 	7	Santa Rita 	8	Agosto	2023-07-08T00:00:00	2024-11-08T03:00:00	1	Precipitación	0
109896	7	Sololá	704	Santa Lucía Utatlán 	7	Santa Rita 	8	Agosto	2023-07-08T00:00:00	2024-11-08T03:00:00	8	Radiación solar	0
109897	7	Sololá	704	Santa Lucía Utatlán 	7	Santa Rita 	8	Agosto	2023-07-08T00:00:00	2024-11-08T04:00:00	2	Temperatura media	17.3
109898	7	Sololá	704	Santa Lucía Utatlán 	7	Santa Rita 	8	Agosto	2023-07-08T00:00:00	2024-11-08T04:00:00	4	Temperatura máxima	17.9
109899	7	Sololá	704	Santa Lucía Utatlán 	7	Santa Rita 	8	Agosto	2023-07-08T00:00:00	2024-11-08T04:00:00	3	Temperatura mínima	17.3
109900	7	Sololá	704	Santa Lucía Utatlán 	7	Santa Rita 	8	Agosto	2023-07-08T00:00:00	2024-11-08T04:00:00	5	Humedad	81
109901	7	Sololá	704	Santa Lucía Utatlán 	7	Santa Rita 	8	Agosto	2023-07-08T00:00:00	2024-11-08T04:00:00	6	Velocidad del viento	3.2
109902	7	Sololá	704	Santa Lucía Utatlán 	7	Santa Rita 	8	Agosto	2023-07-08T00:00:00	2024-11-08T04:00:00	7	Dirección del viento	3.22
109903	7	Sololá	704	Santa Lucía Utatlán 	7	Santa Rita 	8	Agosto	2023-07-08T00:00:00	2024-11-08T04:00:00	1	Precipitación	0
109904	7	Sololá	704	Santa Lucía Utatlán 	7	Santa Rita 	8	Agosto	2023-07-08T00:00:00	2024-11-08T04:00:00	8	Radiación solar	0
109905	7	Sololá	704	Santa Lucía Utatlán 	7	Santa Rita 	8	Agosto	2023-07-08T00:00:00	2024-11-08T05:00:00	2	Temperatura media	16.9
109906	7	Sololá	704	Santa Lucía Utatlán 	7	Santa Rita 	8	Agosto	2023-07-08T00:00:00	2024-11-08T05:00:00	4	Temperatura máxima	17.4
109907	7	Sololá	704	Santa Lucía Utatlán 	7	Santa Rita 	8	Agosto	2023-07-08T00:00:00	2024-11-08T05:00:00	3	Temperatura mínima	16.9
109908	7	Sololá	704	Santa Lucía Utatlán 	7	Santa Rita 	8	Agosto	2023-07-08T00:00:00	2024-11-08T05:00:00	5	Humedad	82
109909	7	Sololá	704	Santa Lucía Utatlán 	7	Santa Rita 	8	Agosto	2023-07-08T00:00:00	2024-11-08T05:00:00	6	Velocidad del viento	1.6
109910	7	Sololá	704	Santa Lucía Utatlán 	7	Santa Rita 	8	Agosto	2023-07-08T00:00:00	2024-11-08T05:00:00	7	Dirección del viento	1.61
109911	7	Sololá	704	Santa Lucía Utatlán 	7	Santa Rita 	8	Agosto	2023-07-08T00:00:00	2024-11-08T05:00:00	1	Precipitación	0
109912	7	Sololá	704	Santa Lucía Utatlán 	7	Santa Rita 	8	Agosto	2023-07-08T00:00:00	2024-11-08T05:00:00	8	Radiación solar	0
109913	7	Sololá	704	Santa Lucía Utatlán 	7	Santa Rita 	8	Agosto	2023-07-08T00:00:00	2024-11-08T06:00:00	2	Temperatura media	19.2
109914	7	Sololá	704	Santa Lucía Utatlán 	7	Santa Rita 	8	Agosto	2023-07-08T00:00:00	2024-11-08T06:00:00	4	Temperatura máxima	19.2
109915	7	Sololá	704	Santa Lucía Utatlán 	7	Santa Rita 	8	Agosto	2023-07-08T00:00:00	2024-11-08T06:00:00	3	Temperatura mínima	16.6
109916	7	Sololá	704	Santa Lucía Utatlán 	7	Santa Rita 	8	Agosto	2023-07-08T00:00:00	2024-11-08T06:00:00	5	Humedad	78
109917	7	Sololá	704	Santa Lucía Utatlán 	7	Santa Rita 	8	Agosto	2023-07-08T00:00:00	2024-11-08T06:00:00	6	Velocidad del viento	3.2
109918	7	Sololá	704	Santa Lucía Utatlán 	7	Santa Rita 	8	Agosto	2023-07-08T00:00:00	2024-11-08T06:00:00	7	Dirección del viento	3.22
109919	7	Sololá	704	Santa Lucía Utatlán 	7	Santa Rita 	8	Agosto	2023-07-08T00:00:00	2024-11-08T06:00:00	1	Precipitación	0
109920	7	Sololá	704	Santa Lucía Utatlán 	7	Santa Rita 	8	Agosto	2023-07-08T00:00:00	2024-11-08T06:00:00	8	Radiación solar	3
109921	7	Sololá	704	Santa Lucía Utatlán 	7	Santa Rita 	8	Agosto	2023-07-08T00:00:00	2024-11-08T07:00:00	2	Temperatura media	21.2
109922	7	Sololá	704	Santa Lucía Utatlán 	7	Santa Rita 	8	Agosto	2023-07-08T00:00:00	2024-11-08T07:00:00	4	Temperatura máxima	21.3
109923	7	Sololá	704	Santa Lucía Utatlán 	7	Santa Rita 	8	Agosto	2023-07-08T00:00:00	2024-11-08T07:00:00	3	Temperatura mínima	19.2
109924	7	Sololá	704	Santa Lucía Utatlán 	7	Santa Rita 	8	Agosto	2023-07-08T00:00:00	2024-11-08T07:00:00	5	Humedad	74
109925	7	Sololá	704	Santa Lucía Utatlán 	7	Santa Rita 	8	Agosto	2023-07-08T00:00:00	2024-11-08T07:00:00	6	Velocidad del viento	6.4
109926	7	Sololá	704	Santa Lucía Utatlán 	7	Santa Rita 	8	Agosto	2023-07-08T00:00:00	2024-11-08T07:00:00	7	Dirección del viento	6.44
109927	7	Sololá	704	Santa Lucía Utatlán 	7	Santa Rita 	8	Agosto	2023-07-08T00:00:00	2024-11-08T07:00:00	1	Precipitación	0
109928	7	Sololá	704	Santa Lucía Utatlán 	7	Santa Rita 	8	Agosto	2023-07-08T00:00:00	2024-11-08T07:00:00	8	Radiación solar	101
109929	7	Sololá	704	Santa Lucía Utatlán 	7	Santa Rita 	8	Agosto	2023-07-08T00:00:00	2024-11-08T08:00:00	2	Temperatura media	22.6
109930	7	Sololá	704	Santa Lucía Utatlán 	7	Santa Rita 	8	Agosto	2023-07-08T00:00:00	2024-11-08T08:00:00	4	Temperatura máxima	23.1
109931	7	Sololá	704	Santa Lucía Utatlán 	7	Santa Rita 	8	Agosto	2023-07-08T00:00:00	2024-11-08T08:00:00	3	Temperatura mínima	21.2
109932	7	Sololá	704	Santa Lucía Utatlán 	7	Santa Rita 	8	Agosto	2023-07-08T00:00:00	2024-11-08T08:00:00	5	Humedad	60
109933	7	Sololá	704	Santa Lucía Utatlán 	7	Santa Rita 	8	Agosto	2023-07-08T00:00:00	2024-11-08T08:00:00	6	Velocidad del viento	9.7
109934	7	Sololá	704	Santa Lucía Utatlán 	7	Santa Rita 	8	Agosto	2023-07-08T00:00:00	2024-11-08T08:00:00	7	Dirección del viento	9.66
109935	7	Sololá	704	Santa Lucía Utatlán 	7	Santa Rita 	8	Agosto	2023-07-08T00:00:00	2024-11-08T08:00:00	1	Precipitación	0
109936	7	Sololá	704	Santa Lucía Utatlán 	7	Santa Rita 	8	Agosto	2023-07-08T00:00:00	2024-11-08T08:00:00	8	Radiación solar	409
109937	7	Sololá	704	Santa Lucía Utatlán 	7	Santa Rita 	8	Agosto	2023-07-08T00:00:00	2024-11-08T09:00:00	2	Temperatura media	24.5
109938	7	Sololá	704	Santa Lucía Utatlán 	7	Santa Rita 	8	Agosto	2023-07-08T00:00:00	2024-11-08T09:00:00	4	Temperatura máxima	24.6
109939	7	Sololá	704	Santa Lucía Utatlán 	7	Santa Rita 	8	Agosto	2023-07-08T00:00:00	2024-11-08T09:00:00	3	Temperatura mínima	22.6
109940	7	Sololá	704	Santa Lucía Utatlán 	7	Santa Rita 	8	Agosto	2023-07-08T00:00:00	2024-11-08T09:00:00	5	Humedad	55
109941	7	Sololá	704	Santa Lucía Utatlán 	7	Santa Rita 	8	Agosto	2023-07-08T00:00:00	2024-11-08T09:00:00	6	Velocidad del viento	6.4
109942	7	Sololá	704	Santa Lucía Utatlán 	7	Santa Rita 	8	Agosto	2023-07-08T00:00:00	2024-11-08T09:00:00	7	Dirección del viento	6.44
109943	7	Sololá	704	Santa Lucía Utatlán 	7	Santa Rita 	8	Agosto	2023-07-08T00:00:00	2024-11-08T09:00:00	1	Precipitación	0
109944	7	Sololá	704	Santa Lucía Utatlán 	7	Santa Rita 	8	Agosto	2023-07-08T00:00:00	2024-11-08T09:00:00	8	Radiación solar	617
109945	7	Sololá	704	Santa Lucía Utatlán 	7	Santa Rita 	8	Agosto	2023-07-08T00:00:00	2024-11-08T10:00:00	2	Temperatura media	26
109946	7	Sololá	704	Santa Lucía Utatlán 	7	Santa Rita 	8	Agosto	2023-07-08T00:00:00	2024-11-08T10:00:00	4	Temperatura máxima	26.1
109947	7	Sololá	704	Santa Lucía Utatlán 	7	Santa Rita 	8	Agosto	2023-07-08T00:00:00	2024-11-08T10:00:00	3	Temperatura mínima	24.5
109948	7	Sololá	704	Santa Lucía Utatlán 	7	Santa Rita 	8	Agosto	2023-07-08T00:00:00	2024-11-08T10:00:00	5	Humedad	50
109949	7	Sololá	704	Santa Lucía Utatlán 	7	Santa Rita 	8	Agosto	2023-07-08T00:00:00	2024-11-08T10:00:00	6	Velocidad del viento	6.4
109950	7	Sololá	704	Santa Lucía Utatlán 	7	Santa Rita 	8	Agosto	2023-07-08T00:00:00	2024-11-08T10:00:00	7	Dirección del viento	6.44
109951	7	Sololá	704	Santa Lucía Utatlán 	7	Santa Rita 	8	Agosto	2023-07-08T00:00:00	2024-11-08T10:00:00	1	Precipitación	0
109952	7	Sololá	704	Santa Lucía Utatlán 	7	Santa Rita 	8	Agosto	2023-07-08T00:00:00	2024-11-08T10:00:00	8	Radiación solar	820
109953	7	Sololá	704	Santa Lucía Utatlán 	7	Santa Rita 	8	Agosto	2023-07-08T00:00:00	2024-11-08T11:00:00	2	Temperatura media	25.7
109954	7	Sololá	704	Santa Lucía Utatlán 	7	Santa Rita 	8	Agosto	2023-07-08T00:00:00	2024-11-08T11:00:00	4	Temperatura máxima	26.3
109955	7	Sololá	704	Santa Lucía Utatlán 	7	Santa Rita 	8	Agosto	2023-07-08T00:00:00	2024-11-08T11:00:00	3	Temperatura mínima	25.2
109956	7	Sololá	704	Santa Lucía Utatlán 	7	Santa Rita 	8	Agosto	2023-07-08T00:00:00	2024-11-08T11:00:00	5	Humedad	57
109957	7	Sololá	704	Santa Lucía Utatlán 	7	Santa Rita 	8	Agosto	2023-07-08T00:00:00	2024-11-08T11:00:00	6	Velocidad del viento	8
109958	7	Sololá	704	Santa Lucía Utatlán 	7	Santa Rita 	8	Agosto	2023-07-08T00:00:00	2024-11-08T11:00:00	7	Dirección del viento	8.05
109959	7	Sololá	704	Santa Lucía Utatlán 	7	Santa Rita 	8	Agosto	2023-07-08T00:00:00	2024-11-08T11:00:00	1	Precipitación	0
109960	7	Sololá	704	Santa Lucía Utatlán 	7	Santa Rita 	8	Agosto	2023-07-08T00:00:00	2024-11-08T11:00:00	8	Radiación solar	963
109961	7	Sololá	704	Santa Lucía Utatlán 	7	Santa Rita 	8	Agosto	2023-07-08T00:00:00	2024-11-08T12:00:00	2	Temperatura media	25.2
109962	7	Sololá	704	Santa Lucía Utatlán 	7	Santa Rita 	8	Agosto	2023-07-08T00:00:00	2024-11-08T12:00:00	4	Temperatura máxima	25.7
109963	7	Sololá	704	Santa Lucía Utatlán 	7	Santa Rita 	8	Agosto	2023-07-08T00:00:00	2024-11-08T12:00:00	3	Temperatura mínima	24.5
109964	7	Sololá	704	Santa Lucía Utatlán 	7	Santa Rita 	8	Agosto	2023-07-08T00:00:00	2024-11-08T12:00:00	5	Humedad	61
109965	7	Sololá	704	Santa Lucía Utatlán 	7	Santa Rita 	8	Agosto	2023-07-08T00:00:00	2024-11-08T12:00:00	6	Velocidad del viento	12.9
109966	7	Sololá	704	Santa Lucía Utatlán 	7	Santa Rita 	8	Agosto	2023-07-08T00:00:00	2024-11-08T12:00:00	7	Dirección del viento	12.87
109967	7	Sololá	704	Santa Lucía Utatlán 	7	Santa Rita 	8	Agosto	2023-07-08T00:00:00	2024-11-08T12:00:00	1	Precipitación	0
109968	7	Sololá	704	Santa Lucía Utatlán 	7	Santa Rita 	8	Agosto	2023-07-08T00:00:00	2024-11-08T12:00:00	8	Radiación solar	1086
109969	7	Sololá	704	Santa Lucía Utatlán 	7	Santa Rita 	8	Agosto	2023-07-08T00:00:00	2024-11-08T13:00:00	2	Temperatura media	25.1
109970	7	Sololá	704	Santa Lucía Utatlán 	7	Santa Rita 	8	Agosto	2023-07-08T00:00:00	2024-11-08T13:00:00	4	Temperatura máxima	25.3
109971	7	Sololá	704	Santa Lucía Utatlán 	7	Santa Rita 	8	Agosto	2023-07-08T00:00:00	2024-11-08T13:00:00	3	Temperatura mínima	24.7
109972	7	Sololá	704	Santa Lucía Utatlán 	7	Santa Rita 	8	Agosto	2023-07-08T00:00:00	2024-11-08T13:00:00	5	Humedad	60
109973	7	Sololá	704	Santa Lucía Utatlán 	7	Santa Rita 	8	Agosto	2023-07-08T00:00:00	2024-11-08T13:00:00	6	Velocidad del viento	11.3
109974	7	Sololá	704	Santa Lucía Utatlán 	7	Santa Rita 	8	Agosto	2023-07-08T00:00:00	2024-11-08T13:00:00	7	Dirección del viento	11.27
109975	7	Sololá	704	Santa Lucía Utatlán 	7	Santa Rita 	8	Agosto	2023-07-08T00:00:00	2024-11-08T13:00:00	1	Precipitación	0
109976	7	Sololá	704	Santa Lucía Utatlán 	7	Santa Rita 	8	Agosto	2023-07-08T00:00:00	2024-11-08T13:00:00	8	Radiación solar	848
109977	7	Sololá	704	Santa Lucía Utatlán 	7	Santa Rita 	8	Agosto	2023-07-08T00:00:00	2024-11-08T14:00:00	2	Temperatura media	26
109978	7	Sololá	704	Santa Lucía Utatlán 	7	Santa Rita 	8	Agosto	2023-07-08T00:00:00	2024-11-08T14:00:00	4	Temperatura máxima	26
109979	7	Sololá	704	Santa Lucía Utatlán 	7	Santa Rita 	8	Agosto	2023-07-08T00:00:00	2024-11-08T14:00:00	3	Temperatura mínima	24.9
109980	7	Sololá	704	Santa Lucía Utatlán 	7	Santa Rita 	8	Agosto	2023-07-08T00:00:00	2024-11-08T14:00:00	5	Humedad	59
109981	7	Sololá	704	Santa Lucía Utatlán 	7	Santa Rita 	8	Agosto	2023-07-08T00:00:00	2024-11-08T14:00:00	6	Velocidad del viento	11.3
109982	7	Sololá	704	Santa Lucía Utatlán 	7	Santa Rita 	8	Agosto	2023-07-08T00:00:00	2024-11-08T14:00:00	7	Dirección del viento	11.27
109983	7	Sololá	704	Santa Lucía Utatlán 	7	Santa Rita 	8	Agosto	2023-07-08T00:00:00	2024-11-08T14:00:00	1	Precipitación	0
109984	7	Sololá	704	Santa Lucía Utatlán 	7	Santa Rita 	8	Agosto	2023-07-08T00:00:00	2024-11-08T14:00:00	8	Radiación solar	653
109985	7	Sololá	704	Santa Lucía Utatlán 	7	Santa Rita 	8	Agosto	2023-07-08T00:00:00	2024-11-08T15:00:00	2	Temperatura media	18.4
109986	7	Sololá	704	Santa Lucía Utatlán 	7	Santa Rita 	8	Agosto	2023-07-08T00:00:00	2024-11-08T15:00:00	4	Temperatura máxima	22.9
109987	7	Sololá	704	Santa Lucía Utatlán 	7	Santa Rita 	8	Agosto	2023-07-08T00:00:00	2024-11-08T15:00:00	3	Temperatura mínima	18.4
109988	7	Sololá	704	Santa Lucía Utatlán 	7	Santa Rita 	8	Agosto	2023-07-08T00:00:00	2024-11-08T15:00:00	5	Humedad	92
109989	7	Sololá	704	Santa Lucía Utatlán 	7	Santa Rita 	8	Agosto	2023-07-08T00:00:00	2024-11-08T15:00:00	6	Velocidad del viento	6.4
109990	7	Sololá	704	Santa Lucía Utatlán 	7	Santa Rita 	8	Agosto	2023-07-08T00:00:00	2024-11-08T15:00:00	7	Dirección del viento	6.44
109991	7	Sololá	704	Santa Lucía Utatlán 	7	Santa Rita 	8	Agosto	2023-07-08T00:00:00	2024-11-08T15:00:00	1	Precipitación	51
109992	7	Sololá	704	Santa Lucía Utatlán 	7	Santa Rita 	8	Agosto	2023-07-08T00:00:00	2024-11-08T15:00:00	8	Radiación solar	35
109993	7	Sololá	704	Santa Lucía Utatlán 	7	Santa Rita 	8	Agosto	2023-07-08T00:00:00	2024-11-08T16:00:00	2	Temperatura media	18.9
109994	7	Sololá	704	Santa Lucía Utatlán 	7	Santa Rita 	8	Agosto	2023-07-08T00:00:00	2024-11-08T16:00:00	4	Temperatura máxima	19
109995	7	Sololá	704	Santa Lucía Utatlán 	7	Santa Rita 	8	Agosto	2023-07-08T00:00:00	2024-11-08T16:00:00	3	Temperatura mínima	18.3
109996	7	Sololá	704	Santa Lucía Utatlán 	7	Santa Rita 	8	Agosto	2023-07-08T00:00:00	2024-11-08T16:00:00	5	Humedad	95
109997	7	Sololá	704	Santa Lucía Utatlán 	7	Santa Rita 	8	Agosto	2023-07-08T00:00:00	2024-11-08T16:00:00	6	Velocidad del viento	3.2
109998	7	Sololá	704	Santa Lucía Utatlán 	7	Santa Rita 	8	Agosto	2023-07-08T00:00:00	2024-11-08T16:00:00	7	Dirección del viento	3.22
109999	7	Sololá	704	Santa Lucía Utatlán 	7	Santa Rita 	8	Agosto	2023-07-08T00:00:00	2024-11-08T16:00:00	1	Precipitación	2.8
110000	7	Sololá	704	Santa Lucía Utatlán 	7	Santa Rita 	8	Agosto	2023-07-08T00:00:00	2024-11-08T16:00:00	8	Radiación solar	62
110001	7	Sololá	704	Santa Lucía Utatlán 	7	Santa Rita 	8	Agosto	2023-07-08T00:00:00	2024-11-08T17:00:00	2	Temperatura media	18.6
110002	7	Sololá	704	Santa Lucía Utatlán 	7	Santa Rita 	8	Agosto	2023-07-08T00:00:00	2024-11-08T17:00:00	4	Temperatura máxima	19
110003	7	Sololá	704	Santa Lucía Utatlán 	7	Santa Rita 	8	Agosto	2023-07-08T00:00:00	2024-11-08T17:00:00	3	Temperatura mínima	18.4
110004	7	Sololá	704	Santa Lucía Utatlán 	7	Santa Rita 	8	Agosto	2023-07-08T00:00:00	2024-11-08T17:00:00	5	Humedad	96
110005	7	Sololá	704	Santa Lucía Utatlán 	7	Santa Rita 	8	Agosto	2023-07-08T00:00:00	2024-11-08T17:00:00	6	Velocidad del viento	3.2
110006	7	Sololá	704	Santa Lucía Utatlán 	7	Santa Rita 	8	Agosto	2023-07-08T00:00:00	2024-11-08T17:00:00	7	Dirección del viento	3.22
110007	7	Sololá	704	Santa Lucía Utatlán 	7	Santa Rita 	8	Agosto	2023-07-08T00:00:00	2024-11-08T17:00:00	1	Precipitación	4.2
110008	7	Sololá	704	Santa Lucía Utatlán 	7	Santa Rita 	8	Agosto	2023-07-08T00:00:00	2024-11-08T17:00:00	8	Radiación solar	11
110009	7	Sololá	704	Santa Lucía Utatlán 	7	Santa Rita 	8	Agosto	2023-07-08T00:00:00	2024-11-08T18:00:00	2	Temperatura media	22
110010	7	Sololá	704	Santa Lucía Utatlán 	7	Santa Rita 	8	Agosto	2023-07-08T00:00:00	2024-11-08T18:00:00	4	Temperatura máxima	23.7
110011	7	Sololá	704	Santa Lucía Utatlán 	7	Santa Rita 	8	Agosto	2023-07-08T00:00:00	2024-11-08T18:00:00	3	Temperatura mínima	22
110012	7	Sololá	704	Santa Lucía Utatlán 	7	Santa Rita 	8	Agosto	2023-07-08T00:00:00	2024-11-08T18:00:00	5	Humedad	72
110013	7	Sololá	704	Santa Lucía Utatlán 	7	Santa Rita 	8	Agosto	2023-07-08T00:00:00	2024-11-08T18:00:00	6	Velocidad del viento	4.8
110014	7	Sololá	704	Santa Lucía Utatlán 	7	Santa Rita 	8	Agosto	2023-07-08T00:00:00	2024-11-08T18:00:00	7	Dirección del viento	4.83
110015	7	Sololá	704	Santa Lucía Utatlán 	7	Santa Rita 	8	Agosto	2023-07-08T00:00:00	2024-11-08T18:00:00	1	Precipitación	0
110016	7	Sololá	704	Santa Lucía Utatlán 	7	Santa Rita 	8	Agosto	2023-07-08T00:00:00	2024-11-08T18:00:00	8	Radiación solar	5
110017	7	Sololá	704	Santa Lucía Utatlán 	7	Santa Rita 	8	Agosto	2023-07-08T00:00:00	2024-11-08T19:00:00	2	Temperatura media	21.8
110018	7	Sololá	704	Santa Lucía Utatlán 	7	Santa Rita 	8	Agosto	2023-07-08T00:00:00	2024-11-08T19:00:00	4	Temperatura máxima	22.1
110019	7	Sololá	704	Santa Lucía Utatlán 	7	Santa Rita 	8	Agosto	2023-07-08T00:00:00	2024-11-08T19:00:00	3	Temperatura mínima	21.2
110020	7	Sololá	704	Santa Lucía Utatlán 	7	Santa Rita 	8	Agosto	2023-07-08T00:00:00	2024-11-08T19:00:00	5	Humedad	76
110021	7	Sololá	704	Santa Lucía Utatlán 	7	Santa Rita 	8	Agosto	2023-07-08T00:00:00	2024-11-08T19:00:00	6	Velocidad del viento	4.8
110022	7	Sololá	704	Santa Lucía Utatlán 	7	Santa Rita 	8	Agosto	2023-07-08T00:00:00	2024-11-08T19:00:00	7	Dirección del viento	4.83
110023	7	Sololá	704	Santa Lucía Utatlán 	7	Santa Rita 	8	Agosto	2023-07-08T00:00:00	2024-11-08T19:00:00	1	Precipitación	0
110024	7	Sololá	704	Santa Lucía Utatlán 	7	Santa Rita 	8	Agosto	2023-07-08T00:00:00	2024-11-08T19:00:00	8	Radiación solar	0
110025	7	Sololá	704	Santa Lucía Utatlán 	7	Santa Rita 	8	Agosto	2023-07-08T00:00:00	2024-11-08T20:00:00	2	Temperatura media	20.3
110026	7	Sololá	704	Santa Lucía Utatlán 	7	Santa Rita 	8	Agosto	2023-07-08T00:00:00	2024-11-08T20:00:00	4	Temperatura máxima	21.9
110027	7	Sololá	704	Santa Lucía Utatlán 	7	Santa Rita 	8	Agosto	2023-07-08T00:00:00	2024-11-08T20:00:00	3	Temperatura mínima	20.3
110028	7	Sololá	704	Santa Lucía Utatlán 	7	Santa Rita 	8	Agosto	2023-07-08T00:00:00	2024-11-08T20:00:00	5	Humedad	81
110029	7	Sololá	704	Santa Lucía Utatlán 	7	Santa Rita 	8	Agosto	2023-07-08T00:00:00	2024-11-08T20:00:00	6	Velocidad del viento	3.2
110030	7	Sololá	704	Santa Lucía Utatlán 	7	Santa Rita 	8	Agosto	2023-07-08T00:00:00	2024-11-08T20:00:00	7	Dirección del viento	3.22
110031	7	Sololá	704	Santa Lucía Utatlán 	7	Santa Rita 	8	Agosto	2023-07-08T00:00:00	2024-11-08T20:00:00	1	Precipitación	0
110032	7	Sololá	704	Santa Lucía Utatlán 	7	Santa Rita 	8	Agosto	2023-07-08T00:00:00	2024-11-08T20:00:00	8	Radiación solar	0
110033	7	Sololá	704	Santa Lucía Utatlán 	7	Santa Rita 	8	Agosto	2023-07-08T00:00:00	2024-11-08T21:00:00	2	Temperatura media	20.6
110034	7	Sololá	704	Santa Lucía Utatlán 	7	Santa Rita 	8	Agosto	2023-07-08T00:00:00	2024-11-08T21:00:00	4	Temperatura máxima	21.2
110035	7	Sololá	704	Santa Lucía Utatlán 	7	Santa Rita 	8	Agosto	2023-07-08T00:00:00	2024-11-08T21:00:00	3	Temperatura mínima	19.8
110036	7	Sololá	704	Santa Lucía Utatlán 	7	Santa Rita 	8	Agosto	2023-07-08T00:00:00	2024-11-08T21:00:00	5	Humedad	79
110037	7	Sololá	704	Santa Lucía Utatlán 	7	Santa Rita 	8	Agosto	2023-07-08T00:00:00	2024-11-08T21:00:00	6	Velocidad del viento	3.2
110038	7	Sololá	704	Santa Lucía Utatlán 	7	Santa Rita 	8	Agosto	2023-07-08T00:00:00	2024-11-08T21:00:00	7	Dirección del viento	3.22
110039	7	Sololá	704	Santa Lucía Utatlán 	7	Santa Rita 	8	Agosto	2023-07-08T00:00:00	2024-11-08T21:00:00	1	Precipitación	0
110040	7	Sololá	704	Santa Lucía Utatlán 	7	Santa Rita 	8	Agosto	2023-07-08T00:00:00	2024-11-08T21:00:00	8	Radiación solar	0
110041	7	Sololá	704	Santa Lucía Utatlán 	7	Santa Rita 	8	Agosto	2023-07-08T00:00:00	2024-11-08T22:00:00	2	Temperatura media	20.7
110042	7	Sololá	704	Santa Lucía Utatlán 	7	Santa Rita 	8	Agosto	2023-07-08T00:00:00	2024-11-08T22:00:00	4	Temperatura máxima	21.7
110043	7	Sololá	704	Santa Lucía Utatlán 	7	Santa Rita 	8	Agosto	2023-07-08T00:00:00	2024-11-08T22:00:00	3	Temperatura mínima	20.4
110044	7	Sololá	704	Santa Lucía Utatlán 	7	Santa Rita 	8	Agosto	2023-07-08T00:00:00	2024-11-08T22:00:00	5	Humedad	76
110045	7	Sololá	704	Santa Lucía Utatlán 	7	Santa Rita 	8	Agosto	2023-07-08T00:00:00	2024-11-08T22:00:00	6	Velocidad del viento	3.2
110046	7	Sololá	704	Santa Lucía Utatlán 	7	Santa Rita 	8	Agosto	2023-07-08T00:00:00	2024-11-08T22:00:00	7	Dirección del viento	3.22
110047	7	Sololá	704	Santa Lucía Utatlán 	7	Santa Rita 	8	Agosto	2023-07-08T00:00:00	2024-11-08T22:00:00	1	Precipitación	0
110048	7	Sololá	704	Santa Lucía Utatlán 	7	Santa Rita 	8	Agosto	2023-07-08T00:00:00	2024-11-08T22:00:00	8	Radiación solar	0
110049	7	Sololá	704	Santa Lucía Utatlán 	7	Santa Rita 	8	Agosto	2023-07-08T00:00:00	2024-11-08T23:00:00	2	Temperatura media	20.1
110050	7	Sololá	704	Santa Lucía Utatlán 	7	Santa Rita 	8	Agosto	2023-07-08T00:00:00	2024-11-08T23:00:00	4	Temperatura máxima	21
110051	7	Sololá	704	Santa Lucía Utatlán 	7	Santa Rita 	8	Agosto	2023-07-08T00:00:00	2024-11-08T23:00:00	3	Temperatura mínima	20.1
110052	7	Sololá	704	Santa Lucía Utatlán 	7	Santa Rita 	8	Agosto	2023-07-08T00:00:00	2024-11-08T23:00:00	5	Humedad	80
110053	7	Sololá	704	Santa Lucía Utatlán 	7	Santa Rita 	8	Agosto	2023-07-08T00:00:00	2024-11-08T23:00:00	6	Velocidad del viento	3.2
110054	7	Sololá	704	Santa Lucía Utatlán 	7	Santa Rita 	8	Agosto	2023-07-08T00:00:00	2024-11-08T23:00:00	7	Dirección del viento	3.22
110055	7	Sololá	704	Santa Lucía Utatlán 	7	Santa Rita 	8	Agosto	2023-07-08T00:00:00	2024-11-08T23:00:00	1	Precipitación	0
110056	7	Sololá	704	Santa Lucía Utatlán 	7	Santa Rita 	8	Agosto	2023-07-08T00:00:00	2024-11-08T23:00:00	8	Radiación solar	0
110057	7	Sololá	704	Santa Lucía Utatlán 	7	Santa Rita 	8	Agosto	2023-08-08T00:00:00	2024-11-08T00:00:00	2	Temperatura media	19.7
110058	7	Sololá	704	Santa Lucía Utatlán 	7	Santa Rita 	8	Agosto	2023-08-08T00:00:00	2024-11-08T00:00:00	4	Temperatura máxima	21.1
110059	7	Sololá	704	Santa Lucía Utatlán 	7	Santa Rita 	8	Agosto	2023-08-08T00:00:00	2024-11-08T00:00:00	3	Temperatura mínima	19.6
110060	7	Sololá	704	Santa Lucía Utatlán 	7	Santa Rita 	8	Agosto	2023-08-08T00:00:00	2024-11-08T00:00:00	5	Humedad	82
110061	7	Sololá	704	Santa Lucía Utatlán 	7	Santa Rita 	8	Agosto	2023-08-08T00:00:00	2024-11-08T00:00:00	6	Velocidad del viento	3.2
110062	7	Sololá	704	Santa Lucía Utatlán 	7	Santa Rita 	8	Agosto	2023-08-08T00:00:00	2024-11-08T00:00:00	7	Dirección del viento	3.22
110063	7	Sololá	704	Santa Lucía Utatlán 	7	Santa Rita 	8	Agosto	2023-08-08T00:00:00	2024-11-08T00:00:00	1	Precipitación	0
110064	7	Sololá	704	Santa Lucía Utatlán 	7	Santa Rita 	8	Agosto	2023-08-08T00:00:00	2024-11-08T00:00:00	8	Radiación solar	0
110065	7	Sololá	704	Santa Lucía Utatlán 	7	Santa Rita 	8	Agosto	2023-08-08T00:00:00	2024-11-08T01:00:00	2	Temperatura media	20.4
110066	7	Sololá	704	Santa Lucía Utatlán 	7	Santa Rita 	8	Agosto	2023-08-08T00:00:00	2024-11-08T01:00:00	4	Temperatura máxima	20.5
110067	7	Sololá	704	Santa Lucía Utatlán 	7	Santa Rita 	8	Agosto	2023-08-08T00:00:00	2024-11-08T01:00:00	3	Temperatura mínima	19.3
110068	7	Sololá	704	Santa Lucía Utatlán 	7	Santa Rita 	8	Agosto	2023-08-08T00:00:00	2024-11-08T01:00:00	5	Humedad	78
110069	7	Sololá	704	Santa Lucía Utatlán 	7	Santa Rita 	8	Agosto	2023-08-08T00:00:00	2024-11-08T01:00:00	6	Velocidad del viento	4.8
110070	7	Sololá	704	Santa Lucía Utatlán 	7	Santa Rita 	8	Agosto	2023-08-08T00:00:00	2024-11-08T01:00:00	7	Dirección del viento	4.83
110071	7	Sololá	704	Santa Lucía Utatlán 	7	Santa Rita 	8	Agosto	2023-08-08T00:00:00	2024-11-08T01:00:00	1	Precipitación	0
110072	7	Sololá	704	Santa Lucía Utatlán 	7	Santa Rita 	8	Agosto	2023-08-08T00:00:00	2024-11-08T01:00:00	8	Radiación solar	0
110073	7	Sololá	704	Santa Lucía Utatlán 	7	Santa Rita 	8	Agosto	2023-08-08T00:00:00	2024-11-08T02:00:00	2	Temperatura media	21.6
110074	7	Sololá	704	Santa Lucía Utatlán 	7	Santa Rita 	8	Agosto	2023-08-08T00:00:00	2024-11-08T02:00:00	4	Temperatura máxima	21.6
110075	7	Sololá	704	Santa Lucía Utatlán 	7	Santa Rita 	8	Agosto	2023-08-08T00:00:00	2024-11-08T02:00:00	3	Temperatura mínima	20.4
110076	7	Sololá	704	Santa Lucía Utatlán 	7	Santa Rita 	8	Agosto	2023-08-08T00:00:00	2024-11-08T02:00:00	5	Humedad	70
110077	7	Sololá	704	Santa Lucía Utatlán 	7	Santa Rita 	8	Agosto	2023-08-08T00:00:00	2024-11-08T02:00:00	6	Velocidad del viento	8
110078	7	Sololá	704	Santa Lucía Utatlán 	7	Santa Rita 	8	Agosto	2023-08-08T00:00:00	2024-11-08T02:00:00	7	Dirección del viento	8.05
110079	7	Sololá	704	Santa Lucía Utatlán 	7	Santa Rita 	8	Agosto	2023-08-08T00:00:00	2024-11-08T02:00:00	1	Precipitación	0
110080	7	Sololá	704	Santa Lucía Utatlán 	7	Santa Rita 	8	Agosto	2023-08-08T00:00:00	2024-11-08T02:00:00	8	Radiación solar	0
110081	7	Sololá	704	Santa Lucía Utatlán 	7	Santa Rita 	8	Agosto	2023-08-08T00:00:00	2024-11-08T03:00:00	2	Temperatura media	22.9
110082	7	Sololá	704	Santa Lucía Utatlán 	7	Santa Rita 	8	Agosto	2023-08-08T00:00:00	2024-11-08T03:00:00	4	Temperatura máxima	23.1
110083	7	Sololá	704	Santa Lucía Utatlán 	7	Santa Rita 	8	Agosto	2023-08-08T00:00:00	2024-11-08T03:00:00	3	Temperatura mínima	21.6
110084	7	Sololá	704	Santa Lucía Utatlán 	7	Santa Rita 	8	Agosto	2023-08-08T00:00:00	2024-11-08T03:00:00	5	Humedad	58
110085	7	Sololá	704	Santa Lucía Utatlán 	7	Santa Rita 	8	Agosto	2023-08-08T00:00:00	2024-11-08T03:00:00	6	Velocidad del viento	8
110086	7	Sololá	704	Santa Lucía Utatlán 	7	Santa Rita 	8	Agosto	2023-08-08T00:00:00	2024-11-08T03:00:00	7	Dirección del viento	8.05
110087	7	Sololá	704	Santa Lucía Utatlán 	7	Santa Rita 	8	Agosto	2023-08-08T00:00:00	2024-11-08T03:00:00	1	Precipitación	0
110088	7	Sololá	704	Santa Lucía Utatlán 	7	Santa Rita 	8	Agosto	2023-08-08T00:00:00	2024-11-08T03:00:00	8	Radiación solar	0
110089	7	Sololá	704	Santa Lucía Utatlán 	7	Santa Rita 	8	Agosto	2023-08-08T00:00:00	2024-11-08T04:00:00	2	Temperatura media	20
110090	7	Sololá	704	Santa Lucía Utatlán 	7	Santa Rita 	8	Agosto	2023-08-08T00:00:00	2024-11-08T04:00:00	4	Temperatura máxima	23
110091	7	Sololá	704	Santa Lucía Utatlán 	7	Santa Rita 	8	Agosto	2023-08-08T00:00:00	2024-11-08T04:00:00	3	Temperatura mínima	19.9
110092	7	Sololá	704	Santa Lucía Utatlán 	7	Santa Rita 	8	Agosto	2023-08-08T00:00:00	2024-11-08T04:00:00	5	Humedad	72
110093	7	Sololá	704	Santa Lucía Utatlán 	7	Santa Rita 	8	Agosto	2023-08-08T00:00:00	2024-11-08T04:00:00	6	Velocidad del viento	4.8
110094	7	Sololá	704	Santa Lucía Utatlán 	7	Santa Rita 	8	Agosto	2023-08-08T00:00:00	2024-11-08T04:00:00	7	Dirección del viento	4.83
110095	7	Sololá	704	Santa Lucía Utatlán 	7	Santa Rita 	8	Agosto	2023-08-08T00:00:00	2024-11-08T04:00:00	1	Precipitación	0
110096	7	Sololá	704	Santa Lucía Utatlán 	7	Santa Rita 	8	Agosto	2023-08-08T00:00:00	2024-11-08T04:00:00	8	Radiación solar	0
110097	7	Sololá	704	Santa Lucía Utatlán 	7	Santa Rita 	8	Agosto	2023-08-08T00:00:00	2024-11-08T05:00:00	2	Temperatura media	19.4
110098	7	Sololá	704	Santa Lucía Utatlán 	7	Santa Rita 	8	Agosto	2023-08-08T00:00:00	2024-11-08T05:00:00	4	Temperatura máxima	21.3
110099	7	Sololá	704	Santa Lucía Utatlán 	7	Santa Rita 	8	Agosto	2023-08-08T00:00:00	2024-11-08T05:00:00	3	Temperatura mínima	19.4
110100	7	Sololá	704	Santa Lucía Utatlán 	7	Santa Rita 	8	Agosto	2023-08-08T00:00:00	2024-11-08T05:00:00	5	Humedad	75
110101	7	Sololá	704	Santa Lucía Utatlán 	7	Santa Rita 	8	Agosto	2023-08-08T00:00:00	2024-11-08T05:00:00	6	Velocidad del viento	4.8
110102	7	Sololá	704	Santa Lucía Utatlán 	7	Santa Rita 	8	Agosto	2023-08-08T00:00:00	2024-11-08T05:00:00	7	Dirección del viento	4.83
110103	7	Sololá	704	Santa Lucía Utatlán 	7	Santa Rita 	8	Agosto	2023-08-08T00:00:00	2024-11-08T05:00:00	1	Precipitación	0
110104	7	Sololá	704	Santa Lucía Utatlán 	7	Santa Rita 	8	Agosto	2023-08-08T00:00:00	2024-11-08T05:00:00	8	Radiación solar	0
110105	7	Sololá	704	Santa Lucía Utatlán 	7	Santa Rita 	8	Agosto	2023-08-08T00:00:00	2024-11-08T06:00:00	2	Temperatura media	22.4
110106	7	Sololá	704	Santa Lucía Utatlán 	7	Santa Rita 	8	Agosto	2023-08-08T00:00:00	2024-11-08T06:00:00	4	Temperatura máxima	22.4
110107	7	Sololá	704	Santa Lucía Utatlán 	7	Santa Rita 	8	Agosto	2023-08-08T00:00:00	2024-11-08T06:00:00	3	Temperatura mínima	19.1
110108	7	Sololá	704	Santa Lucía Utatlán 	7	Santa Rita 	8	Agosto	2023-08-08T00:00:00	2024-11-08T06:00:00	5	Humedad	68
110109	7	Sololá	704	Santa Lucía Utatlán 	7	Santa Rita 	8	Agosto	2023-08-08T00:00:00	2024-11-08T06:00:00	6	Velocidad del viento	3.2
110110	7	Sololá	704	Santa Lucía Utatlán 	7	Santa Rita 	8	Agosto	2023-08-08T00:00:00	2024-11-08T06:00:00	7	Dirección del viento	3.22
110111	7	Sololá	704	Santa Lucía Utatlán 	7	Santa Rita 	8	Agosto	2023-08-08T00:00:00	2024-11-08T06:00:00	1	Precipitación	0
110112	7	Sololá	704	Santa Lucía Utatlán 	7	Santa Rita 	8	Agosto	2023-08-08T00:00:00	2024-11-08T06:00:00	8	Radiación solar	87
110113	7	Sololá	704	Santa Lucía Utatlán 	7	Santa Rita 	8	Agosto	2023-08-08T00:00:00	2024-11-08T07:00:00	2	Temperatura media	23.6
110114	7	Sololá	704	Santa Lucía Utatlán 	7	Santa Rita 	8	Agosto	2023-08-08T00:00:00	2024-11-08T07:00:00	4	Temperatura máxima	23.6
110115	7	Sololá	704	Santa Lucía Utatlán 	7	Santa Rita 	8	Agosto	2023-08-08T00:00:00	2024-11-08T07:00:00	3	Temperatura mínima	20.9
110116	7	Sololá	704	Santa Lucía Utatlán 	7	Santa Rita 	8	Agosto	2023-08-08T00:00:00	2024-11-08T07:00:00	5	Humedad	67
110117	7	Sololá	704	Santa Lucía Utatlán 	7	Santa Rita 	8	Agosto	2023-08-08T00:00:00	2024-11-08T07:00:00	6	Velocidad del viento	4.8
110118	7	Sololá	704	Santa Lucía Utatlán 	7	Santa Rita 	8	Agosto	2023-08-08T00:00:00	2024-11-08T07:00:00	7	Dirección del viento	4.83
110119	7	Sololá	704	Santa Lucía Utatlán 	7	Santa Rita 	8	Agosto	2023-08-08T00:00:00	2024-11-08T07:00:00	1	Precipitación	0
110120	7	Sololá	704	Santa Lucía Utatlán 	7	Santa Rita 	8	Agosto	2023-08-08T00:00:00	2024-11-08T07:00:00	8	Radiación solar	298
110121	7	Sololá	704	Santa Lucía Utatlán 	7	Santa Rita 	8	Agosto	2023-08-08T00:00:00	2024-11-08T08:00:00	2	Temperatura media	25.1
110122	7	Sololá	704	Santa Lucía Utatlán 	7	Santa Rita 	8	Agosto	2023-08-08T00:00:00	2024-11-08T08:00:00	4	Temperatura máxima	25.1
110123	7	Sololá	704	Santa Lucía Utatlán 	7	Santa Rita 	8	Agosto	2023-08-08T00:00:00	2024-11-08T08:00:00	3	Temperatura mínima	23.7
110124	7	Sololá	704	Santa Lucía Utatlán 	7	Santa Rita 	8	Agosto	2023-08-08T00:00:00	2024-11-08T08:00:00	5	Humedad	58
110125	7	Sololá	704	Santa Lucía Utatlán 	7	Santa Rita 	8	Agosto	2023-08-08T00:00:00	2024-11-08T08:00:00	6	Velocidad del viento	8
110126	7	Sololá	704	Santa Lucía Utatlán 	7	Santa Rita 	8	Agosto	2023-08-08T00:00:00	2024-11-08T08:00:00	7	Dirección del viento	8.05
110127	7	Sololá	704	Santa Lucía Utatlán 	7	Santa Rita 	8	Agosto	2023-08-08T00:00:00	2024-11-08T08:00:00	1	Precipitación	0
110128	7	Sololá	704	Santa Lucía Utatlán 	7	Santa Rita 	8	Agosto	2023-08-08T00:00:00	2024-11-08T08:00:00	8	Radiación solar	730
110129	7	Sololá	704	Santa Lucía Utatlán 	7	Santa Rita 	8	Agosto	2023-08-08T00:00:00	2024-11-08T09:00:00	2	Temperatura media	25.7
110130	7	Sololá	704	Santa Lucía Utatlán 	7	Santa Rita 	8	Agosto	2023-08-08T00:00:00	2024-11-08T09:00:00	4	Temperatura máxima	25.8
110131	7	Sololá	704	Santa Lucía Utatlán 	7	Santa Rita 	8	Agosto	2023-08-08T00:00:00	2024-11-08T09:00:00	3	Temperatura mínima	24.2
110132	7	Sololá	704	Santa Lucía Utatlán 	7	Santa Rita 	8	Agosto	2023-08-08T00:00:00	2024-11-08T09:00:00	5	Humedad	56
110133	7	Sololá	704	Santa Lucía Utatlán 	7	Santa Rita 	8	Agosto	2023-08-08T00:00:00	2024-11-08T09:00:00	6	Velocidad del viento	11.3
110134	7	Sololá	704	Santa Lucía Utatlán 	7	Santa Rita 	8	Agosto	2023-08-08T00:00:00	2024-11-08T09:00:00	7	Dirección del viento	11.27
110135	7	Sololá	704	Santa Lucía Utatlán 	7	Santa Rita 	8	Agosto	2023-08-08T00:00:00	2024-11-08T09:00:00	1	Precipitación	0
110136	7	Sololá	704	Santa Lucía Utatlán 	7	Santa Rita 	8	Agosto	2023-08-08T00:00:00	2024-11-08T09:00:00	8	Radiación solar	791
110137	7	Sololá	704	Santa Lucía Utatlán 	7	Santa Rita 	8	Agosto	2023-08-08T00:00:00	2024-11-08T10:00:00	2	Temperatura media	25.2
110138	7	Sololá	704	Santa Lucía Utatlán 	7	Santa Rita 	8	Agosto	2023-08-08T00:00:00	2024-11-08T10:00:00	4	Temperatura máxima	25.7
110139	7	Sololá	704	Santa Lucía Utatlán 	7	Santa Rita 	8	Agosto	2023-08-08T00:00:00	2024-11-08T10:00:00	3	Temperatura mínima	24.8
110140	7	Sololá	704	Santa Lucía Utatlán 	7	Santa Rita 	8	Agosto	2023-08-08T00:00:00	2024-11-08T10:00:00	5	Humedad	63
110141	7	Sololá	704	Santa Lucía Utatlán 	7	Santa Rita 	8	Agosto	2023-08-08T00:00:00	2024-11-08T10:00:00	6	Velocidad del viento	11.3
110142	7	Sololá	704	Santa Lucía Utatlán 	7	Santa Rita 	8	Agosto	2023-08-08T00:00:00	2024-11-08T10:00:00	7	Dirección del viento	11.27
110143	7	Sololá	704	Santa Lucía Utatlán 	7	Santa Rita 	8	Agosto	2023-08-08T00:00:00	2024-11-08T10:00:00	1	Precipitación	0
110144	7	Sololá	704	Santa Lucía Utatlán 	7	Santa Rita 	8	Agosto	2023-08-08T00:00:00	2024-11-08T10:00:00	8	Radiación solar	978
110145	7	Sololá	704	Santa Lucía Utatlán 	7	Santa Rita 	8	Agosto	2023-08-08T00:00:00	2024-11-08T11:00:00	2	Temperatura media	25.7
110146	7	Sololá	704	Santa Lucía Utatlán 	7	Santa Rita 	8	Agosto	2023-08-08T00:00:00	2024-11-08T11:00:00	4	Temperatura máxima	25.8
110147	7	Sololá	704	Santa Lucía Utatlán 	7	Santa Rita 	8	Agosto	2023-08-08T00:00:00	2024-11-08T11:00:00	3	Temperatura mínima	25
110148	7	Sololá	704	Santa Lucía Utatlán 	7	Santa Rita 	8	Agosto	2023-08-08T00:00:00	2024-11-08T11:00:00	5	Humedad	62
110149	7	Sololá	704	Santa Lucía Utatlán 	7	Santa Rita 	8	Agosto	2023-08-08T00:00:00	2024-11-08T11:00:00	6	Velocidad del viento	12.9
110150	7	Sololá	704	Santa Lucía Utatlán 	7	Santa Rita 	8	Agosto	2023-08-08T00:00:00	2024-11-08T11:00:00	7	Dirección del viento	12.87
110151	7	Sololá	704	Santa Lucía Utatlán 	7	Santa Rita 	8	Agosto	2023-08-08T00:00:00	2024-11-08T11:00:00	1	Precipitación	0
110152	7	Sololá	704	Santa Lucía Utatlán 	7	Santa Rita 	8	Agosto	2023-08-08T00:00:00	2024-11-08T11:00:00	8	Radiación solar	1027
110153	7	Sololá	704	Santa Lucía Utatlán 	7	Santa Rita 	8	Agosto	2023-08-08T00:00:00	2024-11-08T12:00:00	2	Temperatura media	26.2
110154	7	Sololá	704	Santa Lucía Utatlán 	7	Santa Rita 	8	Agosto	2023-08-08T00:00:00	2024-11-08T12:00:00	4	Temperatura máxima	26.3
110155	7	Sololá	704	Santa Lucía Utatlán 	7	Santa Rita 	8	Agosto	2023-08-08T00:00:00	2024-11-08T12:00:00	3	Temperatura mínima	25.6
110156	7	Sololá	704	Santa Lucía Utatlán 	7	Santa Rita 	8	Agosto	2023-08-08T00:00:00	2024-11-08T12:00:00	5	Humedad	58
110157	7	Sololá	704	Santa Lucía Utatlán 	7	Santa Rita 	8	Agosto	2023-08-08T00:00:00	2024-11-08T12:00:00	6	Velocidad del viento	11.3
110158	7	Sololá	704	Santa Lucía Utatlán 	7	Santa Rita 	8	Agosto	2023-08-08T00:00:00	2024-11-08T12:00:00	7	Dirección del viento	11.27
110159	7	Sololá	704	Santa Lucía Utatlán 	7	Santa Rita 	8	Agosto	2023-08-08T00:00:00	2024-11-08T12:00:00	1	Precipitación	0
110160	7	Sololá	704	Santa Lucía Utatlán 	7	Santa Rita 	8	Agosto	2023-08-08T00:00:00	2024-11-08T12:00:00	8	Radiación solar	1027
110161	7	Sololá	704	Santa Lucía Utatlán 	7	Santa Rita 	8	Agosto	2023-08-08T00:00:00	2024-11-08T13:00:00	2	Temperatura media	26.7
110162	7	Sololá	704	Santa Lucía Utatlán 	7	Santa Rita 	8	Agosto	2023-08-08T00:00:00	2024-11-08T13:00:00	4	Temperatura máxima	26.7
110163	7	Sololá	704	Santa Lucía Utatlán 	7	Santa Rita 	8	Agosto	2023-08-08T00:00:00	2024-11-08T13:00:00	3	Temperatura mínima	26
110164	7	Sololá	704	Santa Lucía Utatlán 	7	Santa Rita 	8	Agosto	2023-08-08T00:00:00	2024-11-08T13:00:00	5	Humedad	54
110165	7	Sololá	704	Santa Lucía Utatlán 	7	Santa Rita 	8	Agosto	2023-08-08T00:00:00	2024-11-08T13:00:00	6	Velocidad del viento	12.9
110166	7	Sololá	704	Santa Lucía Utatlán 	7	Santa Rita 	8	Agosto	2023-08-08T00:00:00	2024-11-08T13:00:00	7	Dirección del viento	12.87
110167	7	Sololá	704	Santa Lucía Utatlán 	7	Santa Rita 	8	Agosto	2023-08-08T00:00:00	2024-11-08T13:00:00	1	Precipitación	0
110168	7	Sololá	704	Santa Lucía Utatlán 	7	Santa Rita 	8	Agosto	2023-08-08T00:00:00	2024-11-08T13:00:00	8	Radiación solar	989
110169	7	Sololá	704	Santa Lucía Utatlán 	7	Santa Rita 	8	Agosto	2023-08-08T00:00:00	2024-11-08T14:00:00	2	Temperatura media	25.7
110170	7	Sololá	704	Santa Lucía Utatlán 	7	Santa Rita 	8	Agosto	2023-08-08T00:00:00	2024-11-08T14:00:00	4	Temperatura máxima	26.7
110171	7	Sololá	704	Santa Lucía Utatlán 	7	Santa Rita 	8	Agosto	2023-08-08T00:00:00	2024-11-08T14:00:00	3	Temperatura mínima	25.6
110172	7	Sololá	704	Santa Lucía Utatlán 	7	Santa Rita 	8	Agosto	2023-08-08T00:00:00	2024-11-08T14:00:00	5	Humedad	66
110173	7	Sololá	704	Santa Lucía Utatlán 	7	Santa Rita 	8	Agosto	2023-08-08T00:00:00	2024-11-08T14:00:00	6	Velocidad del viento	8
110174	7	Sololá	704	Santa Lucía Utatlán 	7	Santa Rita 	8	Agosto	2023-08-08T00:00:00	2024-11-08T14:00:00	7	Dirección del viento	8.05
110175	7	Sololá	704	Santa Lucía Utatlán 	7	Santa Rita 	8	Agosto	2023-08-08T00:00:00	2024-11-08T14:00:00	1	Precipitación	0
110176	7	Sololá	704	Santa Lucía Utatlán 	7	Santa Rita 	8	Agosto	2023-08-08T00:00:00	2024-11-08T14:00:00	8	Radiación solar	686
110177	7	Sololá	704	Santa Lucía Utatlán 	7	Santa Rita 	8	Agosto	2023-08-08T00:00:00	2024-11-08T15:00:00	2	Temperatura media	25.2
110178	7	Sololá	704	Santa Lucía Utatlán 	7	Santa Rita 	8	Agosto	2023-08-08T00:00:00	2024-11-08T15:00:00	4	Temperatura máxima	26.3
110179	7	Sololá	704	Santa Lucía Utatlán 	7	Santa Rita 	8	Agosto	2023-08-08T00:00:00	2024-11-08T15:00:00	3	Temperatura mínima	25.1
110180	7	Sololá	704	Santa Lucía Utatlán 	7	Santa Rita 	8	Agosto	2023-08-08T00:00:00	2024-11-08T15:00:00	5	Humedad	69
110181	7	Sololá	704	Santa Lucía Utatlán 	7	Santa Rita 	8	Agosto	2023-08-08T00:00:00	2024-11-08T15:00:00	6	Velocidad del viento	8
110182	7	Sololá	704	Santa Lucía Utatlán 	7	Santa Rita 	8	Agosto	2023-08-08T00:00:00	2024-11-08T15:00:00	7	Dirección del viento	8.05
110183	7	Sololá	704	Santa Lucía Utatlán 	7	Santa Rita 	8	Agosto	2023-08-08T00:00:00	2024-11-08T15:00:00	1	Precipitación	0
110184	7	Sololá	704	Santa Lucía Utatlán 	7	Santa Rita 	8	Agosto	2023-08-08T00:00:00	2024-11-08T15:00:00	8	Radiación solar	500
110185	7	Sololá	704	Santa Lucía Utatlán 	7	Santa Rita 	8	Agosto	2023-08-08T00:00:00	2024-11-08T16:00:00	2	Temperatura media	25.2
110186	7	Sololá	704	Santa Lucía Utatlán 	7	Santa Rita 	8	Agosto	2023-08-08T00:00:00	2024-11-08T16:00:00	4	Temperatura máxima	25.5
110187	7	Sololá	704	Santa Lucía Utatlán 	7	Santa Rita 	8	Agosto	2023-08-08T00:00:00	2024-11-08T16:00:00	3	Temperatura mínima	24.8
110188	7	Sololá	704	Santa Lucía Utatlán 	7	Santa Rita 	8	Agosto	2023-08-08T00:00:00	2024-11-08T16:00:00	5	Humedad	53
110189	7	Sololá	704	Santa Lucía Utatlán 	7	Santa Rita 	8	Agosto	2023-08-08T00:00:00	2024-11-08T16:00:00	6	Velocidad del viento	9.7
110190	7	Sololá	704	Santa Lucía Utatlán 	7	Santa Rita 	8	Agosto	2023-08-08T00:00:00	2024-11-08T16:00:00	7	Dirección del viento	9.66
110191	7	Sololá	704	Santa Lucía Utatlán 	7	Santa Rita 	8	Agosto	2023-08-08T00:00:00	2024-11-08T16:00:00	1	Precipitación	0
110192	7	Sololá	704	Santa Lucía Utatlán 	7	Santa Rita 	8	Agosto	2023-08-08T00:00:00	2024-11-08T16:00:00	8	Radiación solar	348
110193	7	Sololá	704	Santa Lucía Utatlán 	7	Santa Rita 	8	Agosto	2023-08-08T00:00:00	2024-11-08T17:00:00	2	Temperatura media	23.3
110194	7	Sololá	704	Santa Lucía Utatlán 	7	Santa Rita 	8	Agosto	2023-08-08T00:00:00	2024-11-08T17:00:00	4	Temperatura máxima	25.4
110195	7	Sololá	704	Santa Lucía Utatlán 	7	Santa Rita 	8	Agosto	2023-08-08T00:00:00	2024-11-08T17:00:00	3	Temperatura mínima	23.3
110196	7	Sololá	704	Santa Lucía Utatlán 	7	Santa Rita 	8	Agosto	2023-08-08T00:00:00	2024-11-08T17:00:00	5	Humedad	66
110197	7	Sololá	704	Santa Lucía Utatlán 	7	Santa Rita 	8	Agosto	2023-08-08T00:00:00	2024-11-08T17:00:00	6	Velocidad del viento	4.8
110198	7	Sololá	704	Santa Lucía Utatlán 	7	Santa Rita 	8	Agosto	2023-08-08T00:00:00	2024-11-08T17:00:00	7	Dirección del viento	4.83
110199	7	Sololá	704	Santa Lucía Utatlán 	7	Santa Rita 	8	Agosto	2023-08-08T00:00:00	2024-11-08T17:00:00	1	Precipitación	0
110200	7	Sololá	704	Santa Lucía Utatlán 	7	Santa Rita 	8	Agosto	2023-08-08T00:00:00	2024-11-08T17:00:00	8	Radiación solar	96
110201	7	Sololá	704	Santa Lucía Utatlán 	7	Santa Rita 	8	Agosto	2023-08-08T00:00:00	2024-11-08T18:00:00	2	Temperatura media	21.2
110202	7	Sololá	704	Santa Lucía Utatlán 	7	Santa Rita 	8	Agosto	2023-08-08T00:00:00	2024-11-08T18:00:00	4	Temperatura máxima	23.3
110203	7	Sololá	704	Santa Lucía Utatlán 	7	Santa Rita 	8	Agosto	2023-08-08T00:00:00	2024-11-08T18:00:00	3	Temperatura mínima	21.2
110204	7	Sololá	704	Santa Lucía Utatlán 	7	Santa Rita 	8	Agosto	2023-08-08T00:00:00	2024-11-08T18:00:00	5	Humedad	74
110205	7	Sololá	704	Santa Lucía Utatlán 	7	Santa Rita 	8	Agosto	2023-08-08T00:00:00	2024-11-08T18:00:00	6	Velocidad del viento	3.2
110206	7	Sololá	704	Santa Lucía Utatlán 	7	Santa Rita 	8	Agosto	2023-08-08T00:00:00	2024-11-08T18:00:00	7	Dirección del viento	3.22
110207	7	Sololá	704	Santa Lucía Utatlán 	7	Santa Rita 	8	Agosto	2023-08-08T00:00:00	2024-11-08T18:00:00	1	Precipitación	0
110208	7	Sololá	704	Santa Lucía Utatlán 	7	Santa Rita 	8	Agosto	2023-08-08T00:00:00	2024-11-08T18:00:00	8	Radiación solar	3
110209	7	Sololá	704	Santa Lucía Utatlán 	7	Santa Rita 	8	Agosto	2023-08-08T00:00:00	2024-11-08T19:00:00	2	Temperatura media	19.8
110210	7	Sololá	704	Santa Lucía Utatlán 	7	Santa Rita 	8	Agosto	2023-08-08T00:00:00	2024-11-08T19:00:00	4	Temperatura máxima	21.2
110211	7	Sololá	704	Santa Lucía Utatlán 	7	Santa Rita 	8	Agosto	2023-08-08T00:00:00	2024-11-08T19:00:00	3	Temperatura mínima	19.7
110212	7	Sololá	704	Santa Lucía Utatlán 	7	Santa Rita 	8	Agosto	2023-08-08T00:00:00	2024-11-08T19:00:00	5	Humedad	84
110213	7	Sololá	704	Santa Lucía Utatlán 	7	Santa Rita 	8	Agosto	2023-08-08T00:00:00	2024-11-08T19:00:00	6	Velocidad del viento	3.2
110214	7	Sololá	704	Santa Lucía Utatlán 	7	Santa Rita 	8	Agosto	2023-08-08T00:00:00	2024-11-08T19:00:00	7	Dirección del viento	3.22
110215	7	Sololá	704	Santa Lucía Utatlán 	7	Santa Rita 	8	Agosto	2023-08-08T00:00:00	2024-11-08T19:00:00	1	Precipitación	0
110216	7	Sololá	704	Santa Lucía Utatlán 	7	Santa Rita 	8	Agosto	2023-08-08T00:00:00	2024-11-08T19:00:00	8	Radiación solar	0
110217	7	Sololá	704	Santa Lucía Utatlán 	7	Santa Rita 	8	Agosto	2023-08-08T00:00:00	2024-11-08T20:00:00	2	Temperatura media	18.9
110218	7	Sololá	704	Santa Lucía Utatlán 	7	Santa Rita 	8	Agosto	2023-08-08T00:00:00	2024-11-08T20:00:00	4	Temperatura máxima	19.8
110219	7	Sololá	704	Santa Lucía Utatlán 	7	Santa Rita 	8	Agosto	2023-08-08T00:00:00	2024-11-08T20:00:00	3	Temperatura mínima	18.9
110220	7	Sololá	704	Santa Lucía Utatlán 	7	Santa Rita 	8	Agosto	2023-08-08T00:00:00	2024-11-08T20:00:00	5	Humedad	85
110221	7	Sololá	704	Santa Lucía Utatlán 	7	Santa Rita 	8	Agosto	2023-08-08T00:00:00	2024-11-08T20:00:00	6	Velocidad del viento	3.2
110222	7	Sololá	704	Santa Lucía Utatlán 	7	Santa Rita 	8	Agosto	2023-08-08T00:00:00	2024-11-08T20:00:00	7	Dirección del viento	3.22
110223	7	Sololá	704	Santa Lucía Utatlán 	7	Santa Rita 	8	Agosto	2023-08-08T00:00:00	2024-11-08T20:00:00	1	Precipitación	0
110224	7	Sololá	704	Santa Lucía Utatlán 	7	Santa Rita 	8	Agosto	2023-08-08T00:00:00	2024-11-08T20:00:00	8	Radiación solar	0
110225	7	Sololá	704	Santa Lucía Utatlán 	7	Santa Rita 	8	Agosto	2023-08-08T00:00:00	2024-11-08T21:00:00	2	Temperatura media	20.1
110226	7	Sololá	704	Santa Lucía Utatlán 	7	Santa Rita 	8	Agosto	2023-08-08T00:00:00	2024-11-08T21:00:00	4	Temperatura máxima	20.1
110227	7	Sololá	704	Santa Lucía Utatlán 	7	Santa Rita 	8	Agosto	2023-08-08T00:00:00	2024-11-08T21:00:00	3	Temperatura mínima	18.1
110228	7	Sololá	704	Santa Lucía Utatlán 	7	Santa Rita 	8	Agosto	2023-08-08T00:00:00	2024-11-08T21:00:00	5	Humedad	78
110229	7	Sololá	704	Santa Lucía Utatlán 	7	Santa Rita 	8	Agosto	2023-08-08T00:00:00	2024-11-08T21:00:00	6	Velocidad del viento	3.2
110230	7	Sololá	704	Santa Lucía Utatlán 	7	Santa Rita 	8	Agosto	2023-08-08T00:00:00	2024-11-08T21:00:00	7	Dirección del viento	3.22
110231	7	Sololá	704	Santa Lucía Utatlán 	7	Santa Rita 	8	Agosto	2023-08-08T00:00:00	2024-11-08T21:00:00	1	Precipitación	0
110232	7	Sololá	704	Santa Lucía Utatlán 	7	Santa Rita 	8	Agosto	2023-08-08T00:00:00	2024-11-08T21:00:00	8	Radiación solar	0
110233	7	Sololá	704	Santa Lucía Utatlán 	7	Santa Rita 	8	Agosto	2023-08-08T00:00:00	2024-11-08T22:00:00	2	Temperatura media	18.2
110234	7	Sololá	704	Santa Lucía Utatlán 	7	Santa Rita 	8	Agosto	2023-08-08T00:00:00	2024-11-08T22:00:00	4	Temperatura máxima	20.1
110235	7	Sololá	704	Santa Lucía Utatlán 	7	Santa Rita 	8	Agosto	2023-08-08T00:00:00	2024-11-08T22:00:00	3	Temperatura mínima	18.2
110236	7	Sololá	704	Santa Lucía Utatlán 	7	Santa Rita 	8	Agosto	2023-08-08T00:00:00	2024-11-08T22:00:00	5	Humedad	84
110237	7	Sololá	704	Santa Lucía Utatlán 	7	Santa Rita 	8	Agosto	2023-08-08T00:00:00	2024-11-08T22:00:00	6	Velocidad del viento	3.2
110238	7	Sololá	704	Santa Lucía Utatlán 	7	Santa Rita 	8	Agosto	2023-08-08T00:00:00	2024-11-08T22:00:00	7	Dirección del viento	3.22
110239	7	Sololá	704	Santa Lucía Utatlán 	7	Santa Rita 	8	Agosto	2023-08-08T00:00:00	2024-11-08T22:00:00	1	Precipitación	0
110240	7	Sololá	704	Santa Lucía Utatlán 	7	Santa Rita 	8	Agosto	2023-08-08T00:00:00	2024-11-08T22:00:00	8	Radiación solar	0
110241	7	Sololá	704	Santa Lucía Utatlán 	7	Santa Rita 	8	Agosto	2023-08-08T00:00:00	2024-11-08T23:00:00	2	Temperatura media	17.3
110242	7	Sololá	704	Santa Lucía Utatlán 	7	Santa Rita 	8	Agosto	2023-08-08T00:00:00	2024-11-08T23:00:00	4	Temperatura máxima	18.2
110243	7	Sololá	704	Santa Lucía Utatlán 	7	Santa Rita 	8	Agosto	2023-08-08T00:00:00	2024-11-08T23:00:00	3	Temperatura mínima	17.3
110244	7	Sololá	704	Santa Lucía Utatlán 	7	Santa Rita 	8	Agosto	2023-08-08T00:00:00	2024-11-08T23:00:00	5	Humedad	86
110245	7	Sololá	704	Santa Lucía Utatlán 	7	Santa Rita 	8	Agosto	2023-08-08T00:00:00	2024-11-08T23:00:00	6	Velocidad del viento	4.8
110246	7	Sololá	704	Santa Lucía Utatlán 	7	Santa Rita 	8	Agosto	2023-08-08T00:00:00	2024-11-08T23:00:00	7	Dirección del viento	4.83
110247	7	Sololá	704	Santa Lucía Utatlán 	7	Santa Rita 	8	Agosto	2023-08-08T00:00:00	2024-11-08T23:00:00	1	Precipitación	0
110248	7	Sololá	704	Santa Lucía Utatlán 	7	Santa Rita 	8	Agosto	2023-08-08T00:00:00	2024-11-08T23:00:00	8	Radiación solar	0
110249	7	Sololá	704	Santa Lucía Utatlán 	7	Santa Rita 	8	Agosto	2023-09-08T00:00:00	2024-11-08T00:00:00	2	Temperatura media	17.3
110250	7	Sololá	704	Santa Lucía Utatlán 	7	Santa Rita 	8	Agosto	2023-09-08T00:00:00	2024-11-08T00:00:00	4	Temperatura máxima	17.4
110251	7	Sololá	704	Santa Lucía Utatlán 	7	Santa Rita 	8	Agosto	2023-09-08T00:00:00	2024-11-08T00:00:00	3	Temperatura mínima	17.1
110252	7	Sololá	704	Santa Lucía Utatlán 	7	Santa Rita 	8	Agosto	2023-09-08T00:00:00	2024-11-08T00:00:00	5	Humedad	85
110253	7	Sololá	704	Santa Lucía Utatlán 	7	Santa Rita 	8	Agosto	2023-09-08T00:00:00	2024-11-08T00:00:00	6	Velocidad del viento	4.8
110254	7	Sololá	704	Santa Lucía Utatlán 	7	Santa Rita 	8	Agosto	2023-09-08T00:00:00	2024-11-08T00:00:00	7	Dirección del viento	4.83
110255	7	Sololá	704	Santa Lucía Utatlán 	7	Santa Rita 	8	Agosto	2023-09-08T00:00:00	2024-11-08T00:00:00	1	Precipitación	0
110256	7	Sololá	704	Santa Lucía Utatlán 	7	Santa Rita 	8	Agosto	2023-09-08T00:00:00	2024-11-08T00:00:00	8	Radiación solar	0
110257	7	Sololá	704	Santa Lucía Utatlán 	7	Santa Rita 	8	Agosto	2023-09-08T00:00:00	2024-11-08T01:00:00	2	Temperatura media	17.3
110258	7	Sololá	704	Santa Lucía Utatlán 	7	Santa Rita 	8	Agosto	2023-09-08T00:00:00	2024-11-08T01:00:00	4	Temperatura máxima	17.6
110259	7	Sololá	704	Santa Lucía Utatlán 	7	Santa Rita 	8	Agosto	2023-09-08T00:00:00	2024-11-08T01:00:00	3	Temperatura mínima	17.1
110260	7	Sololá	704	Santa Lucía Utatlán 	7	Santa Rita 	8	Agosto	2023-09-08T00:00:00	2024-11-08T01:00:00	5	Humedad	84
110261	7	Sololá	704	Santa Lucía Utatlán 	7	Santa Rita 	8	Agosto	2023-09-08T00:00:00	2024-11-08T01:00:00	6	Velocidad del viento	4.8
110262	7	Sololá	704	Santa Lucía Utatlán 	7	Santa Rita 	8	Agosto	2023-09-08T00:00:00	2024-11-08T01:00:00	7	Dirección del viento	4.83
110263	7	Sololá	704	Santa Lucía Utatlán 	7	Santa Rita 	8	Agosto	2023-09-08T00:00:00	2024-11-08T01:00:00	1	Precipitación	0
110264	7	Sololá	704	Santa Lucía Utatlán 	7	Santa Rita 	8	Agosto	2023-09-08T00:00:00	2024-11-08T01:00:00	8	Radiación solar	0
110265	7	Sololá	704	Santa Lucía Utatlán 	7	Santa Rita 	8	Agosto	2023-09-08T00:00:00	2024-11-08T02:00:00	2	Temperatura media	19.1
110266	7	Sololá	704	Santa Lucía Utatlán 	7	Santa Rita 	8	Agosto	2023-09-08T00:00:00	2024-11-08T02:00:00	4	Temperatura máxima	19.3
110267	7	Sololá	704	Santa Lucía Utatlán 	7	Santa Rita 	8	Agosto	2023-09-08T00:00:00	2024-11-08T02:00:00	3	Temperatura mínima	17.3
110268	7	Sololá	704	Santa Lucía Utatlán 	7	Santa Rita 	8	Agosto	2023-09-08T00:00:00	2024-11-08T02:00:00	5	Humedad	75
110269	7	Sololá	704	Santa Lucía Utatlán 	7	Santa Rita 	8	Agosto	2023-09-08T00:00:00	2024-11-08T02:00:00	6	Velocidad del viento	4.8
110270	7	Sololá	704	Santa Lucía Utatlán 	7	Santa Rita 	8	Agosto	2023-09-08T00:00:00	2024-11-08T02:00:00	7	Dirección del viento	4.83
110271	7	Sololá	704	Santa Lucía Utatlán 	7	Santa Rita 	8	Agosto	2023-09-08T00:00:00	2024-11-08T02:00:00	1	Precipitación	0
110272	7	Sololá	704	Santa Lucía Utatlán 	7	Santa Rita 	8	Agosto	2023-09-08T00:00:00	2024-11-08T02:00:00	8	Radiación solar	0
110273	7	Sololá	704	Santa Lucía Utatlán 	7	Santa Rita 	8	Agosto	2023-09-08T00:00:00	2024-11-08T03:00:00	2	Temperatura media	17.1
110274	7	Sololá	704	Santa Lucía Utatlán 	7	Santa Rita 	8	Agosto	2023-09-08T00:00:00	2024-11-08T03:00:00	4	Temperatura máxima	19.5
110275	7	Sololá	704	Santa Lucía Utatlán 	7	Santa Rita 	8	Agosto	2023-09-08T00:00:00	2024-11-08T03:00:00	3	Temperatura mínima	16.9
110276	7	Sololá	704	Santa Lucía Utatlán 	7	Santa Rita 	8	Agosto	2023-09-08T00:00:00	2024-11-08T03:00:00	5	Humedad	84
110277	7	Sololá	704	Santa Lucía Utatlán 	7	Santa Rita 	8	Agosto	2023-09-08T00:00:00	2024-11-08T03:00:00	6	Velocidad del viento	3.2
110278	7	Sololá	704	Santa Lucía Utatlán 	7	Santa Rita 	8	Agosto	2023-09-08T00:00:00	2024-11-08T03:00:00	7	Dirección del viento	3.22
110279	7	Sololá	704	Santa Lucía Utatlán 	7	Santa Rita 	8	Agosto	2023-09-08T00:00:00	2024-11-08T03:00:00	1	Precipitación	0
110280	7	Sololá	704	Santa Lucía Utatlán 	7	Santa Rita 	8	Agosto	2023-09-08T00:00:00	2024-11-08T03:00:00	8	Radiación solar	0
110281	7	Sololá	704	Santa Lucía Utatlán 	7	Santa Rita 	8	Agosto	2023-09-08T00:00:00	2024-11-08T04:00:00	2	Temperatura media	17.2
110282	7	Sololá	704	Santa Lucía Utatlán 	7	Santa Rita 	8	Agosto	2023-09-08T00:00:00	2024-11-08T04:00:00	4	Temperatura máxima	17.3
110283	7	Sololá	704	Santa Lucía Utatlán 	7	Santa Rita 	8	Agosto	2023-09-08T00:00:00	2024-11-08T04:00:00	3	Temperatura mínima	16.6
110284	7	Sololá	704	Santa Lucía Utatlán 	7	Santa Rita 	8	Agosto	2023-09-08T00:00:00	2024-11-08T04:00:00	5	Humedad	85
110285	7	Sololá	704	Santa Lucía Utatlán 	7	Santa Rita 	8	Agosto	2023-09-08T00:00:00	2024-11-08T04:00:00	6	Velocidad del viento	3.2
110286	7	Sololá	704	Santa Lucía Utatlán 	7	Santa Rita 	8	Agosto	2023-09-08T00:00:00	2024-11-08T04:00:00	7	Dirección del viento	3.22
110287	7	Sololá	704	Santa Lucía Utatlán 	7	Santa Rita 	8	Agosto	2023-09-08T00:00:00	2024-11-08T04:00:00	1	Precipitación	0
110288	7	Sololá	704	Santa Lucía Utatlán 	7	Santa Rita 	8	Agosto	2023-09-08T00:00:00	2024-11-08T04:00:00	8	Radiación solar	0
110289	7	Sololá	704	Santa Lucía Utatlán 	7	Santa Rita 	8	Agosto	2023-09-08T00:00:00	2024-11-08T05:00:00	2	Temperatura media	16.6
110290	7	Sololá	704	Santa Lucía Utatlán 	7	Santa Rita 	8	Agosto	2023-09-08T00:00:00	2024-11-08T05:00:00	4	Temperatura máxima	17.2
110291	7	Sololá	704	Santa Lucía Utatlán 	7	Santa Rita 	8	Agosto	2023-09-08T00:00:00	2024-11-08T05:00:00	3	Temperatura mínima	16.6
110292	7	Sololá	704	Santa Lucía Utatlán 	7	Santa Rita 	8	Agosto	2023-09-08T00:00:00	2024-11-08T05:00:00	5	Humedad	83
110293	7	Sololá	704	Santa Lucía Utatlán 	7	Santa Rita 	8	Agosto	2023-09-08T00:00:00	2024-11-08T05:00:00	6	Velocidad del viento	4.8
110294	7	Sololá	704	Santa Lucía Utatlán 	7	Santa Rita 	8	Agosto	2023-09-08T00:00:00	2024-11-08T05:00:00	7	Dirección del viento	4.83
110295	7	Sololá	704	Santa Lucía Utatlán 	7	Santa Rita 	8	Agosto	2023-09-08T00:00:00	2024-11-08T05:00:00	1	Precipitación	0
110296	7	Sololá	704	Santa Lucía Utatlán 	7	Santa Rita 	8	Agosto	2023-09-08T00:00:00	2024-11-08T05:00:00	8	Radiación solar	0
110297	7	Sololá	704	Santa Lucía Utatlán 	7	Santa Rita 	8	Agosto	2023-09-08T00:00:00	2024-11-08T06:00:00	2	Temperatura media	18.9
110298	7	Sololá	704	Santa Lucía Utatlán 	7	Santa Rita 	8	Agosto	2023-09-08T00:00:00	2024-11-08T06:00:00	4	Temperatura máxima	18.9
110299	7	Sololá	704	Santa Lucía Utatlán 	7	Santa Rita 	8	Agosto	2023-09-08T00:00:00	2024-11-08T06:00:00	3	Temperatura mínima	16.6
110300	7	Sololá	704	Santa Lucía Utatlán 	7	Santa Rita 	8	Agosto	2023-09-08T00:00:00	2024-11-08T06:00:00	5	Humedad	78
110301	7	Sololá	704	Santa Lucía Utatlán 	7	Santa Rita 	8	Agosto	2023-09-08T00:00:00	2024-11-08T06:00:00	6	Velocidad del viento	3.2
110302	7	Sololá	704	Santa Lucía Utatlán 	7	Santa Rita 	8	Agosto	2023-09-08T00:00:00	2024-11-08T06:00:00	7	Dirección del viento	3.22
110303	7	Sololá	704	Santa Lucía Utatlán 	7	Santa Rita 	8	Agosto	2023-09-08T00:00:00	2024-11-08T06:00:00	1	Precipitación	0
110304	7	Sololá	704	Santa Lucía Utatlán 	7	Santa Rita 	8	Agosto	2023-09-08T00:00:00	2024-11-08T06:00:00	8	Radiación solar	84
110305	7	Sololá	704	Santa Lucía Utatlán 	7	Santa Rita 	8	Agosto	2023-09-08T00:00:00	2024-11-08T07:00:00	2	Temperatura media	22.6
110306	7	Sololá	704	Santa Lucía Utatlán 	7	Santa Rita 	8	Agosto	2023-09-08T00:00:00	2024-11-08T07:00:00	4	Temperatura máxima	22.6
110307	7	Sololá	704	Santa Lucía Utatlán 	7	Santa Rita 	8	Agosto	2023-09-08T00:00:00	2024-11-08T07:00:00	3	Temperatura mínima	18.9
110308	7	Sololá	704	Santa Lucía Utatlán 	7	Santa Rita 	8	Agosto	2023-09-08T00:00:00	2024-11-08T07:00:00	5	Humedad	68
110309	7	Sololá	704	Santa Lucía Utatlán 	7	Santa Rita 	8	Agosto	2023-09-08T00:00:00	2024-11-08T07:00:00	6	Velocidad del viento	3.2
110310	7	Sololá	704	Santa Lucía Utatlán 	7	Santa Rita 	8	Agosto	2023-09-08T00:00:00	2024-11-08T07:00:00	7	Dirección del viento	3.22
110311	7	Sololá	704	Santa Lucía Utatlán 	7	Santa Rita 	8	Agosto	2023-09-08T00:00:00	2024-11-08T07:00:00	1	Precipitación	0
110312	7	Sololá	704	Santa Lucía Utatlán 	7	Santa Rita 	8	Agosto	2023-09-08T00:00:00	2024-11-08T07:00:00	8	Radiación solar	440
110313	7	Sololá	704	Santa Lucía Utatlán 	7	Santa Rita 	8	Agosto	2023-09-08T00:00:00	2024-11-08T08:00:00	2	Temperatura media	23.6
110314	7	Sololá	704	Santa Lucía Utatlán 	7	Santa Rita 	8	Agosto	2023-09-08T00:00:00	2024-11-08T08:00:00	4	Temperatura máxima	23.7
110315	7	Sololá	704	Santa Lucía Utatlán 	7	Santa Rita 	8	Agosto	2023-09-08T00:00:00	2024-11-08T08:00:00	3	Temperatura mínima	22.6
110316	7	Sololá	704	Santa Lucía Utatlán 	7	Santa Rita 	8	Agosto	2023-09-08T00:00:00	2024-11-08T08:00:00	5	Humedad	66
110317	7	Sololá	704	Santa Lucía Utatlán 	7	Santa Rita 	8	Agosto	2023-09-08T00:00:00	2024-11-08T08:00:00	6	Velocidad del viento	3.2
110318	7	Sololá	704	Santa Lucía Utatlán 	7	Santa Rita 	8	Agosto	2023-09-08T00:00:00	2024-11-08T08:00:00	7	Dirección del viento	3.22
110319	7	Sololá	704	Santa Lucía Utatlán 	7	Santa Rita 	8	Agosto	2023-09-08T00:00:00	2024-11-08T08:00:00	1	Precipitación	0
110320	7	Sololá	704	Santa Lucía Utatlán 	7	Santa Rita 	8	Agosto	2023-09-08T00:00:00	2024-11-08T08:00:00	8	Radiación solar	497
110321	7	Sololá	704	Santa Lucía Utatlán 	7	Santa Rita 	8	Agosto	2023-09-08T00:00:00	2024-11-08T09:00:00	2	Temperatura media	25.2
110322	7	Sololá	704	Santa Lucía Utatlán 	7	Santa Rita 	8	Agosto	2023-09-08T00:00:00	2024-11-08T09:00:00	4	Temperatura máxima	25.2
110323	7	Sololá	704	Santa Lucía Utatlán 	7	Santa Rita 	8	Agosto	2023-09-08T00:00:00	2024-11-08T09:00:00	3	Temperatura mínima	23.6
110324	7	Sololá	704	Santa Lucía Utatlán 	7	Santa Rita 	8	Agosto	2023-09-08T00:00:00	2024-11-08T09:00:00	5	Humedad	58
110325	7	Sololá	704	Santa Lucía Utatlán 	7	Santa Rita 	8	Agosto	2023-09-08T00:00:00	2024-11-08T09:00:00	6	Velocidad del viento	4.8
110326	7	Sololá	704	Santa Lucía Utatlán 	7	Santa Rita 	8	Agosto	2023-09-08T00:00:00	2024-11-08T09:00:00	7	Dirección del viento	4.83
110327	7	Sololá	704	Santa Lucía Utatlán 	7	Santa Rita 	8	Agosto	2023-09-08T00:00:00	2024-11-08T09:00:00	1	Precipitación	0
110328	7	Sololá	704	Santa Lucía Utatlán 	7	Santa Rita 	8	Agosto	2023-09-08T00:00:00	2024-11-08T09:00:00	8	Radiación solar	779
110329	7	Sololá	704	Santa Lucía Utatlán 	7	Santa Rita 	8	Agosto	2023-09-08T00:00:00	2024-11-08T10:00:00	2	Temperatura media	25.9
110330	7	Sololá	704	Santa Lucía Utatlán 	7	Santa Rita 	8	Agosto	2023-09-08T00:00:00	2024-11-08T10:00:00	4	Temperatura máxima	26.1
110331	7	Sololá	704	Santa Lucía Utatlán 	7	Santa Rita 	8	Agosto	2023-09-08T00:00:00	2024-11-08T10:00:00	3	Temperatura mínima	25.2
110332	7	Sololá	704	Santa Lucía Utatlán 	7	Santa Rita 	8	Agosto	2023-09-08T00:00:00	2024-11-08T10:00:00	5	Humedad	62
110333	7	Sololá	704	Santa Lucía Utatlán 	7	Santa Rita 	8	Agosto	2023-09-08T00:00:00	2024-11-08T10:00:00	6	Velocidad del viento	6.4
110334	7	Sololá	704	Santa Lucía Utatlán 	7	Santa Rita 	8	Agosto	2023-09-08T00:00:00	2024-11-08T10:00:00	7	Dirección del viento	6.44
110335	7	Sololá	704	Santa Lucía Utatlán 	7	Santa Rita 	8	Agosto	2023-09-08T00:00:00	2024-11-08T10:00:00	1	Precipitación	0
110336	7	Sololá	704	Santa Lucía Utatlán 	7	Santa Rita 	8	Agosto	2023-09-08T00:00:00	2024-11-08T10:00:00	8	Radiación solar	965
110337	7	Sololá	704	Santa Lucía Utatlán 	7	Santa Rita 	8	Agosto	2023-09-08T00:00:00	2024-11-08T11:00:00	2	Temperatura media	26.3
110338	7	Sololá	704	Santa Lucía Utatlán 	7	Santa Rita 	8	Agosto	2023-09-08T00:00:00	2024-11-08T11:00:00	4	Temperatura máxima	26.7
110339	7	Sololá	704	Santa Lucía Utatlán 	7	Santa Rita 	8	Agosto	2023-09-08T00:00:00	2024-11-08T11:00:00	3	Temperatura mínima	25.8
110340	7	Sololá	704	Santa Lucía Utatlán 	7	Santa Rita 	8	Agosto	2023-09-08T00:00:00	2024-11-08T11:00:00	5	Humedad	60
110341	7	Sololá	704	Santa Lucía Utatlán 	7	Santa Rita 	8	Agosto	2023-09-08T00:00:00	2024-11-08T11:00:00	6	Velocidad del viento	8
110342	7	Sololá	704	Santa Lucía Utatlán 	7	Santa Rita 	8	Agosto	2023-09-08T00:00:00	2024-11-08T11:00:00	7	Dirección del viento	8.05
110343	7	Sololá	704	Santa Lucía Utatlán 	7	Santa Rita 	8	Agosto	2023-09-08T00:00:00	2024-11-08T11:00:00	1	Precipitación	0
110344	7	Sololá	704	Santa Lucía Utatlán 	7	Santa Rita 	8	Agosto	2023-09-08T00:00:00	2024-11-08T11:00:00	8	Radiación solar	1065
110345	7	Sololá	704	Santa Lucía Utatlán 	7	Santa Rita 	8	Agosto	2023-09-08T00:00:00	2024-11-08T12:00:00	2	Temperatura media	26.6
110346	7	Sololá	704	Santa Lucía Utatlán 	7	Santa Rita 	8	Agosto	2023-09-08T00:00:00	2024-11-08T12:00:00	4	Temperatura máxima	26.6
110347	7	Sololá	704	Santa Lucía Utatlán 	7	Santa Rita 	8	Agosto	2023-09-08T00:00:00	2024-11-08T12:00:00	3	Temperatura mínima	25.3
110348	7	Sololá	704	Santa Lucía Utatlán 	7	Santa Rita 	8	Agosto	2023-09-08T00:00:00	2024-11-08T12:00:00	5	Humedad	61
110349	7	Sololá	704	Santa Lucía Utatlán 	7	Santa Rita 	8	Agosto	2023-09-08T00:00:00	2024-11-08T12:00:00	6	Velocidad del viento	8
110350	7	Sololá	704	Santa Lucía Utatlán 	7	Santa Rita 	8	Agosto	2023-09-08T00:00:00	2024-11-08T12:00:00	7	Dirección del viento	8.05
110351	7	Sololá	704	Santa Lucía Utatlán 	7	Santa Rita 	8	Agosto	2023-09-08T00:00:00	2024-11-08T12:00:00	1	Precipitación	0
110352	7	Sololá	704	Santa Lucía Utatlán 	7	Santa Rita 	8	Agosto	2023-09-08T00:00:00	2024-11-08T12:00:00	8	Radiación solar	911
110353	7	Sololá	704	Santa Lucía Utatlán 	7	Santa Rita 	8	Agosto	2023-09-08T00:00:00	2024-11-08T13:00:00	2	Temperatura media	25.2
110354	7	Sololá	704	Santa Lucía Utatlán 	7	Santa Rita 	8	Agosto	2023-09-08T00:00:00	2024-11-08T13:00:00	4	Temperatura máxima	27.2
110355	7	Sololá	704	Santa Lucía Utatlán 	7	Santa Rita 	8	Agosto	2023-09-08T00:00:00	2024-11-08T13:00:00	3	Temperatura mínima	25.2
110356	7	Sololá	704	Santa Lucía Utatlán 	7	Santa Rita 	8	Agosto	2023-09-08T00:00:00	2024-11-08T13:00:00	5	Humedad	71
110357	7	Sololá	704	Santa Lucía Utatlán 	7	Santa Rita 	8	Agosto	2023-09-08T00:00:00	2024-11-08T13:00:00	6	Velocidad del viento	8
110358	7	Sololá	704	Santa Lucía Utatlán 	7	Santa Rita 	8	Agosto	2023-09-08T00:00:00	2024-11-08T13:00:00	7	Dirección del viento	8.05
110359	7	Sololá	704	Santa Lucía Utatlán 	7	Santa Rita 	8	Agosto	2023-09-08T00:00:00	2024-11-08T13:00:00	1	Precipitación	0
110360	7	Sololá	704	Santa Lucía Utatlán 	7	Santa Rita 	8	Agosto	2023-09-08T00:00:00	2024-11-08T13:00:00	8	Radiación solar	503
110361	7	Sololá	704	Santa Lucía Utatlán 	7	Santa Rita 	8	Agosto	2023-09-08T00:00:00	2024-11-08T14:00:00	2	Temperatura media	22.9
110362	7	Sololá	704	Santa Lucía Utatlán 	7	Santa Rita 	8	Agosto	2023-09-08T00:00:00	2024-11-08T14:00:00	4	Temperatura máxima	25.4
110363	7	Sololá	704	Santa Lucía Utatlán 	7	Santa Rita 	8	Agosto	2023-09-08T00:00:00	2024-11-08T14:00:00	3	Temperatura mínima	22.7
110364	7	Sololá	704	Santa Lucía Utatlán 	7	Santa Rita 	8	Agosto	2023-09-08T00:00:00	2024-11-08T14:00:00	5	Humedad	86
110365	7	Sololá	704	Santa Lucía Utatlán 	7	Santa Rita 	8	Agosto	2023-09-08T00:00:00	2024-11-08T14:00:00	6	Velocidad del viento	6.4
110366	7	Sololá	704	Santa Lucía Utatlán 	7	Santa Rita 	8	Agosto	2023-09-08T00:00:00	2024-11-08T14:00:00	7	Dirección del viento	6.44
110367	7	Sololá	704	Santa Lucía Utatlán 	7	Santa Rita 	8	Agosto	2023-09-08T00:00:00	2024-11-08T14:00:00	1	Precipitación	0
110368	7	Sololá	704	Santa Lucía Utatlán 	7	Santa Rita 	8	Agosto	2023-09-08T00:00:00	2024-11-08T14:00:00	8	Radiación solar	150
110369	7	Sololá	704	Santa Lucía Utatlán 	7	Santa Rita 	8	Agosto	2023-09-08T00:00:00	2024-11-08T15:00:00	2	Temperatura media	22.9
110370	7	Sololá	704	Santa Lucía Utatlán 	7	Santa Rita 	8	Agosto	2023-09-08T00:00:00	2024-11-08T15:00:00	4	Temperatura máxima	24.2
110371	7	Sololá	704	Santa Lucía Utatlán 	7	Santa Rita 	8	Agosto	2023-09-08T00:00:00	2024-11-08T15:00:00	3	Temperatura mínima	22.8
110372	7	Sololá	704	Santa Lucía Utatlán 	7	Santa Rita 	8	Agosto	2023-09-08T00:00:00	2024-11-08T15:00:00	5	Humedad	83
110373	7	Sololá	704	Santa Lucía Utatlán 	7	Santa Rita 	8	Agosto	2023-09-08T00:00:00	2024-11-08T15:00:00	6	Velocidad del viento	4.8
110374	7	Sololá	704	Santa Lucía Utatlán 	7	Santa Rita 	8	Agosto	2023-09-08T00:00:00	2024-11-08T15:00:00	7	Dirección del viento	4.83
110375	7	Sololá	704	Santa Lucía Utatlán 	7	Santa Rita 	8	Agosto	2023-09-08T00:00:00	2024-11-08T15:00:00	1	Precipitación	0
110376	7	Sololá	704	Santa Lucía Utatlán 	7	Santa Rita 	8	Agosto	2023-09-08T00:00:00	2024-11-08T15:00:00	8	Radiación solar	280
110377	7	Sololá	704	Santa Lucía Utatlán 	7	Santa Rita 	8	Agosto	2023-09-08T00:00:00	2024-11-08T16:00:00	2	Temperatura media	22.7
110378	7	Sololá	704	Santa Lucía Utatlán 	7	Santa Rita 	8	Agosto	2023-09-08T00:00:00	2024-11-08T16:00:00	4	Temperatura máxima	22.9
110379	7	Sololá	704	Santa Lucía Utatlán 	7	Santa Rita 	8	Agosto	2023-09-08T00:00:00	2024-11-08T16:00:00	3	Temperatura mínima	22.3
110380	7	Sololá	704	Santa Lucía Utatlán 	7	Santa Rita 	8	Agosto	2023-09-08T00:00:00	2024-11-08T16:00:00	5	Humedad	82
110381	7	Sololá	704	Santa Lucía Utatlán 	7	Santa Rita 	8	Agosto	2023-09-08T00:00:00	2024-11-08T16:00:00	6	Velocidad del viento	3.2
110382	7	Sololá	704	Santa Lucía Utatlán 	7	Santa Rita 	8	Agosto	2023-09-08T00:00:00	2024-11-08T16:00:00	7	Dirección del viento	3.22
110383	7	Sololá	704	Santa Lucía Utatlán 	7	Santa Rita 	8	Agosto	2023-09-08T00:00:00	2024-11-08T16:00:00	1	Precipitación	0
110384	7	Sololá	704	Santa Lucía Utatlán 	7	Santa Rita 	8	Agosto	2023-09-08T00:00:00	2024-11-08T16:00:00	8	Radiación solar	135
110385	7	Sololá	704	Santa Lucía Utatlán 	7	Santa Rita 	8	Agosto	2023-09-08T00:00:00	2024-11-08T17:00:00	2	Temperatura media	22
110386	7	Sololá	704	Santa Lucía Utatlán 	7	Santa Rita 	8	Agosto	2023-09-08T00:00:00	2024-11-08T17:00:00	4	Temperatura máxima	22.8
110387	7	Sololá	704	Santa Lucía Utatlán 	7	Santa Rita 	8	Agosto	2023-09-08T00:00:00	2024-11-08T17:00:00	3	Temperatura mínima	22
110388	7	Sololá	704	Santa Lucía Utatlán 	7	Santa Rita 	8	Agosto	2023-09-08T00:00:00	2024-11-08T17:00:00	5	Humedad	85
110389	7	Sololá	704	Santa Lucía Utatlán 	7	Santa Rita 	8	Agosto	2023-09-08T00:00:00	2024-11-08T17:00:00	6	Velocidad del viento	3.2
110390	7	Sololá	704	Santa Lucía Utatlán 	7	Santa Rita 	8	Agosto	2023-09-08T00:00:00	2024-11-08T17:00:00	7	Dirección del viento	3.22
110391	7	Sololá	704	Santa Lucía Utatlán 	7	Santa Rita 	8	Agosto	2023-09-08T00:00:00	2024-11-08T17:00:00	1	Precipitación	0
110392	7	Sololá	704	Santa Lucía Utatlán 	7	Santa Rita 	8	Agosto	2023-09-08T00:00:00	2024-11-08T17:00:00	8	Radiación solar	89
110393	7	Sololá	704	Santa Lucía Utatlán 	7	Santa Rita 	8	Agosto	2023-09-08T00:00:00	2024-11-08T18:00:00	2	Temperatura media	20.1
110394	7	Sololá	704	Santa Lucía Utatlán 	7	Santa Rita 	8	Agosto	2023-09-08T00:00:00	2024-11-08T18:00:00	4	Temperatura máxima	22
110395	7	Sololá	704	Santa Lucía Utatlán 	7	Santa Rita 	8	Agosto	2023-09-08T00:00:00	2024-11-08T18:00:00	3	Temperatura mínima	20.1
110396	7	Sololá	704	Santa Lucía Utatlán 	7	Santa Rita 	8	Agosto	2023-09-08T00:00:00	2024-11-08T18:00:00	5	Humedad	91
110397	7	Sololá	704	Santa Lucía Utatlán 	7	Santa Rita 	8	Agosto	2023-09-08T00:00:00	2024-11-08T18:00:00	6	Velocidad del viento	3.2
110398	7	Sololá	704	Santa Lucía Utatlán 	7	Santa Rita 	8	Agosto	2023-09-08T00:00:00	2024-11-08T18:00:00	7	Dirección del viento	3.22
110399	7	Sololá	704	Santa Lucía Utatlán 	7	Santa Rita 	8	Agosto	2023-09-08T00:00:00	2024-11-08T18:00:00	1	Precipitación	0
110400	7	Sololá	704	Santa Lucía Utatlán 	7	Santa Rita 	8	Agosto	2023-09-08T00:00:00	2024-11-08T18:00:00	8	Radiación solar	3
110401	7	Sololá	704	Santa Lucía Utatlán 	7	Santa Rita 	8	Agosto	2023-09-08T00:00:00	2024-11-08T19:00:00	2	Temperatura media	19.6
110402	7	Sololá	704	Santa Lucía Utatlán 	7	Santa Rita 	8	Agosto	2023-09-08T00:00:00	2024-11-08T19:00:00	4	Temperatura máxima	20.6
110403	7	Sololá	704	Santa Lucía Utatlán 	7	Santa Rita 	8	Agosto	2023-09-08T00:00:00	2024-11-08T19:00:00	3	Temperatura mínima	19.6
110404	7	Sololá	704	Santa Lucía Utatlán 	7	Santa Rita 	8	Agosto	2023-09-08T00:00:00	2024-11-08T19:00:00	5	Humedad	90
110405	7	Sololá	704	Santa Lucía Utatlán 	7	Santa Rita 	8	Agosto	2023-09-08T00:00:00	2024-11-08T19:00:00	6	Velocidad del viento	3.2
110406	7	Sololá	704	Santa Lucía Utatlán 	7	Santa Rita 	8	Agosto	2023-09-08T00:00:00	2024-11-08T19:00:00	7	Dirección del viento	3.22
110407	7	Sololá	704	Santa Lucía Utatlán 	7	Santa Rita 	8	Agosto	2023-09-08T00:00:00	2024-11-08T19:00:00	1	Precipitación	0
110408	7	Sololá	704	Santa Lucía Utatlán 	7	Santa Rita 	8	Agosto	2023-09-08T00:00:00	2024-11-08T19:00:00	8	Radiación solar	0
110409	7	Sololá	704	Santa Lucía Utatlán 	7	Santa Rita 	8	Agosto	2023-09-08T00:00:00	2024-11-08T20:00:00	2	Temperatura media	18.9
110410	7	Sololá	704	Santa Lucía Utatlán 	7	Santa Rita 	8	Agosto	2023-09-08T00:00:00	2024-11-08T20:00:00	4	Temperatura máxima	19.6
110411	7	Sololá	704	Santa Lucía Utatlán 	7	Santa Rita 	8	Agosto	2023-09-08T00:00:00	2024-11-08T20:00:00	3	Temperatura mínima	18.9
110412	7	Sololá	704	Santa Lucía Utatlán 	7	Santa Rita 	8	Agosto	2023-09-08T00:00:00	2024-11-08T20:00:00	5	Humedad	89
110413	7	Sololá	704	Santa Lucía Utatlán 	7	Santa Rita 	8	Agosto	2023-09-08T00:00:00	2024-11-08T20:00:00	6	Velocidad del viento	3.2
110414	7	Sololá	704	Santa Lucía Utatlán 	7	Santa Rita 	8	Agosto	2023-09-08T00:00:00	2024-11-08T20:00:00	7	Dirección del viento	3.22
110415	7	Sololá	704	Santa Lucía Utatlán 	7	Santa Rita 	8	Agosto	2023-09-08T00:00:00	2024-11-08T20:00:00	1	Precipitación	0
110416	7	Sololá	704	Santa Lucía Utatlán 	7	Santa Rita 	8	Agosto	2023-09-08T00:00:00	2024-11-08T20:00:00	8	Radiación solar	0
110417	7	Sololá	704	Santa Lucía Utatlán 	7	Santa Rita 	8	Agosto	2023-09-08T00:00:00	2024-11-08T21:00:00	2	Temperatura media	18.5
110418	7	Sololá	704	Santa Lucía Utatlán 	7	Santa Rita 	8	Agosto	2023-09-08T00:00:00	2024-11-08T21:00:00	4	Temperatura máxima	18.9
110419	7	Sololá	704	Santa Lucía Utatlán 	7	Santa Rita 	8	Agosto	2023-09-08T00:00:00	2024-11-08T21:00:00	3	Temperatura mínima	18.4
110420	7	Sololá	704	Santa Lucía Utatlán 	7	Santa Rita 	8	Agosto	2023-09-08T00:00:00	2024-11-08T21:00:00	5	Humedad	88
110421	7	Sololá	704	Santa Lucía Utatlán 	7	Santa Rita 	8	Agosto	2023-09-08T00:00:00	2024-11-08T21:00:00	6	Velocidad del viento	3.2
110422	7	Sololá	704	Santa Lucía Utatlán 	7	Santa Rita 	8	Agosto	2023-09-08T00:00:00	2024-11-08T21:00:00	7	Dirección del viento	3.22
110423	7	Sololá	704	Santa Lucía Utatlán 	7	Santa Rita 	8	Agosto	2023-09-08T00:00:00	2024-11-08T21:00:00	1	Precipitación	0
110424	7	Sololá	704	Santa Lucía Utatlán 	7	Santa Rita 	8	Agosto	2023-09-08T00:00:00	2024-11-08T21:00:00	8	Radiación solar	0
110425	7	Sololá	704	Santa Lucía Utatlán 	7	Santa Rita 	8	Agosto	2023-09-08T00:00:00	2024-11-08T22:00:00	2	Temperatura media	18.2
110426	7	Sololá	704	Santa Lucía Utatlán 	7	Santa Rita 	8	Agosto	2023-09-08T00:00:00	2024-11-08T22:00:00	4	Temperatura máxima	18.6
110427	7	Sololá	704	Santa Lucía Utatlán 	7	Santa Rita 	8	Agosto	2023-09-08T00:00:00	2024-11-08T22:00:00	3	Temperatura mínima	18.1
110428	7	Sololá	704	Santa Lucía Utatlán 	7	Santa Rita 	8	Agosto	2023-09-08T00:00:00	2024-11-08T22:00:00	5	Humedad	88
110429	7	Sololá	704	Santa Lucía Utatlán 	7	Santa Rita 	8	Agosto	2023-09-08T00:00:00	2024-11-08T22:00:00	6	Velocidad del viento	3.2
110430	7	Sololá	704	Santa Lucía Utatlán 	7	Santa Rita 	8	Agosto	2023-09-08T00:00:00	2024-11-08T22:00:00	7	Dirección del viento	3.22
110431	7	Sololá	704	Santa Lucía Utatlán 	7	Santa Rita 	8	Agosto	2023-09-08T00:00:00	2024-11-08T22:00:00	1	Precipitación	0
110432	7	Sololá	704	Santa Lucía Utatlán 	7	Santa Rita 	8	Agosto	2023-09-08T00:00:00	2024-11-08T22:00:00	8	Radiación solar	0
110433	7	Sololá	704	Santa Lucía Utatlán 	7	Santa Rita 	8	Agosto	2023-09-08T00:00:00	2024-11-08T23:00:00	2	Temperatura media	18.2
110434	7	Sololá	704	Santa Lucía Utatlán 	7	Santa Rita 	8	Agosto	2023-09-08T00:00:00	2024-11-08T23:00:00	4	Temperatura máxima	18.3
110435	7	Sololá	704	Santa Lucía Utatlán 	7	Santa Rita 	8	Agosto	2023-09-08T00:00:00	2024-11-08T23:00:00	3	Temperatura mínima	18
110436	7	Sololá	704	Santa Lucía Utatlán 	7	Santa Rita 	8	Agosto	2023-09-08T00:00:00	2024-11-08T23:00:00	5	Humedad	86
110437	7	Sololá	704	Santa Lucía Utatlán 	7	Santa Rita 	8	Agosto	2023-09-08T00:00:00	2024-11-08T23:00:00	6	Velocidad del viento	4.8
110438	7	Sololá	704	Santa Lucía Utatlán 	7	Santa Rita 	8	Agosto	2023-09-08T00:00:00	2024-11-08T23:00:00	7	Dirección del viento	4.83
110439	7	Sololá	704	Santa Lucía Utatlán 	7	Santa Rita 	8	Agosto	2023-09-08T00:00:00	2024-11-08T23:00:00	1	Precipitación	0
110440	7	Sololá	704	Santa Lucía Utatlán 	7	Santa Rita 	8	Agosto	2023-09-08T00:00:00	2024-11-08T23:00:00	8	Radiación solar	0
110441	7	Sololá	704	Santa Lucía Utatlán 	7	Santa Rita 	8	Agosto	2023-10-08T00:00:00	2024-11-08T00:00:00	2	Temperatura media	19.2
110442	7	Sololá	704	Santa Lucía Utatlán 	7	Santa Rita 	8	Agosto	2023-10-08T00:00:00	2024-11-08T00:00:00	4	Temperatura máxima	19.3
110443	7	Sololá	704	Santa Lucía Utatlán 	7	Santa Rita 	8	Agosto	2023-10-08T00:00:00	2024-11-08T00:00:00	3	Temperatura mínima	18.2
110444	7	Sololá	704	Santa Lucía Utatlán 	7	Santa Rita 	8	Agosto	2023-10-08T00:00:00	2024-11-08T00:00:00	5	Humedad	83
110445	7	Sololá	704	Santa Lucía Utatlán 	7	Santa Rita 	8	Agosto	2023-10-08T00:00:00	2024-11-08T00:00:00	6	Velocidad del viento	3.2
110446	7	Sololá	704	Santa Lucía Utatlán 	7	Santa Rita 	8	Agosto	2023-10-08T00:00:00	2024-11-08T00:00:00	7	Dirección del viento	3.22
110447	7	Sololá	704	Santa Lucía Utatlán 	7	Santa Rita 	8	Agosto	2023-10-08T00:00:00	2024-11-08T00:00:00	1	Precipitación	0
110448	7	Sololá	704	Santa Lucía Utatlán 	7	Santa Rita 	8	Agosto	2023-10-08T00:00:00	2024-11-08T00:00:00	8	Radiación solar	0
110449	7	Sololá	704	Santa Lucía Utatlán 	7	Santa Rita 	8	Agosto	2023-10-08T00:00:00	2024-11-08T01:00:00	2	Temperatura media	18.8
110450	7	Sololá	704	Santa Lucía Utatlán 	7	Santa Rita 	8	Agosto	2023-10-08T00:00:00	2024-11-08T01:00:00	4	Temperatura máxima	19.3
110451	7	Sololá	704	Santa Lucía Utatlán 	7	Santa Rita 	8	Agosto	2023-10-08T00:00:00	2024-11-08T01:00:00	3	Temperatura mínima	18.8
110452	7	Sololá	704	Santa Lucía Utatlán 	7	Santa Rita 	8	Agosto	2023-10-08T00:00:00	2024-11-08T01:00:00	5	Humedad	84
110453	7	Sololá	704	Santa Lucía Utatlán 	7	Santa Rita 	8	Agosto	2023-10-08T00:00:00	2024-11-08T01:00:00	6	Velocidad del viento	4.8
110454	7	Sololá	704	Santa Lucía Utatlán 	7	Santa Rita 	8	Agosto	2023-10-08T00:00:00	2024-11-08T01:00:00	7	Dirección del viento	4.83
110455	7	Sololá	704	Santa Lucía Utatlán 	7	Santa Rita 	8	Agosto	2023-10-08T00:00:00	2024-11-08T01:00:00	1	Precipitación	0
110456	7	Sololá	704	Santa Lucía Utatlán 	7	Santa Rita 	8	Agosto	2023-10-08T00:00:00	2024-11-08T01:00:00	8	Radiación solar	0
110457	7	Sololá	704	Santa Lucía Utatlán 	7	Santa Rita 	8	Agosto	2023-10-08T00:00:00	2024-11-08T02:00:00	2	Temperatura media	18.7
110458	7	Sololá	704	Santa Lucía Utatlán 	7	Santa Rita 	8	Agosto	2023-10-08T00:00:00	2024-11-08T02:00:00	4	Temperatura máxima	18.8
110459	7	Sololá	704	Santa Lucía Utatlán 	7	Santa Rita 	8	Agosto	2023-10-08T00:00:00	2024-11-08T02:00:00	3	Temperatura mínima	18.4
110460	7	Sololá	704	Santa Lucía Utatlán 	7	Santa Rita 	8	Agosto	2023-10-08T00:00:00	2024-11-08T02:00:00	5	Humedad	84
110461	7	Sololá	704	Santa Lucía Utatlán 	7	Santa Rita 	8	Agosto	2023-10-08T00:00:00	2024-11-08T02:00:00	6	Velocidad del viento	4.8
110462	7	Sololá	704	Santa Lucía Utatlán 	7	Santa Rita 	8	Agosto	2023-10-08T00:00:00	2024-11-08T02:00:00	7	Dirección del viento	4.83
110463	7	Sololá	704	Santa Lucía Utatlán 	7	Santa Rita 	8	Agosto	2023-10-08T00:00:00	2024-11-08T02:00:00	1	Precipitación	0
110464	7	Sololá	704	Santa Lucía Utatlán 	7	Santa Rita 	8	Agosto	2023-10-08T00:00:00	2024-11-08T02:00:00	8	Radiación solar	0
110465	7	Sololá	704	Santa Lucía Utatlán 	7	Santa Rita 	8	Agosto	2023-10-08T00:00:00	2024-11-08T03:00:00	2	Temperatura media	19.2
110466	7	Sololá	704	Santa Lucía Utatlán 	7	Santa Rita 	8	Agosto	2023-10-08T00:00:00	2024-11-08T03:00:00	4	Temperatura máxima	19.2
110467	7	Sololá	704	Santa Lucía Utatlán 	7	Santa Rita 	8	Agosto	2023-10-08T00:00:00	2024-11-08T03:00:00	3	Temperatura mínima	18.4
110468	7	Sololá	704	Santa Lucía Utatlán 	7	Santa Rita 	8	Agosto	2023-10-08T00:00:00	2024-11-08T03:00:00	5	Humedad	83
110469	7	Sololá	704	Santa Lucía Utatlán 	7	Santa Rita 	8	Agosto	2023-10-08T00:00:00	2024-11-08T03:00:00	6	Velocidad del viento	6.4
110470	7	Sololá	704	Santa Lucía Utatlán 	7	Santa Rita 	8	Agosto	2023-10-08T00:00:00	2024-11-08T03:00:00	7	Dirección del viento	6.44
110471	7	Sololá	704	Santa Lucía Utatlán 	7	Santa Rita 	8	Agosto	2023-10-08T00:00:00	2024-11-08T03:00:00	1	Precipitación	0
110472	7	Sololá	704	Santa Lucía Utatlán 	7	Santa Rita 	8	Agosto	2023-10-08T00:00:00	2024-11-08T03:00:00	8	Radiación solar	0
110473	7	Sololá	704	Santa Lucía Utatlán 	7	Santa Rita 	8	Agosto	2023-10-08T00:00:00	2024-11-08T04:00:00	2	Temperatura media	18.8
110474	7	Sololá	704	Santa Lucía Utatlán 	7	Santa Rita 	8	Agosto	2023-10-08T00:00:00	2024-11-08T04:00:00	4	Temperatura máxima	19.2
110475	7	Sololá	704	Santa Lucía Utatlán 	7	Santa Rita 	8	Agosto	2023-10-08T00:00:00	2024-11-08T04:00:00	3	Temperatura mínima	18.7
110476	7	Sololá	704	Santa Lucía Utatlán 	7	Santa Rita 	8	Agosto	2023-10-08T00:00:00	2024-11-08T04:00:00	5	Humedad	84
110477	7	Sololá	704	Santa Lucía Utatlán 	7	Santa Rita 	8	Agosto	2023-10-08T00:00:00	2024-11-08T04:00:00	6	Velocidad del viento	4.8
110478	7	Sololá	704	Santa Lucía Utatlán 	7	Santa Rita 	8	Agosto	2023-10-08T00:00:00	2024-11-08T04:00:00	7	Dirección del viento	4.83
110479	7	Sololá	704	Santa Lucía Utatlán 	7	Santa Rita 	8	Agosto	2023-10-08T00:00:00	2024-11-08T04:00:00	1	Precipitación	0
110480	7	Sololá	704	Santa Lucía Utatlán 	7	Santa Rita 	8	Agosto	2023-10-08T00:00:00	2024-11-08T04:00:00	8	Radiación solar	0
110481	7	Sololá	704	Santa Lucía Utatlán 	7	Santa Rita 	8	Agosto	2023-10-08T00:00:00	2024-11-08T05:00:00	2	Temperatura media	17.9
110482	7	Sololá	704	Santa Lucía Utatlán 	7	Santa Rita 	8	Agosto	2023-10-08T00:00:00	2024-11-08T05:00:00	4	Temperatura máxima	18.8
110483	7	Sololá	704	Santa Lucía Utatlán 	7	Santa Rita 	8	Agosto	2023-10-08T00:00:00	2024-11-08T05:00:00	3	Temperatura mínima	17.9
110484	7	Sololá	704	Santa Lucía Utatlán 	7	Santa Rita 	8	Agosto	2023-10-08T00:00:00	2024-11-08T05:00:00	5	Humedad	88
110485	7	Sololá	704	Santa Lucía Utatlán 	7	Santa Rita 	8	Agosto	2023-10-08T00:00:00	2024-11-08T05:00:00	6	Velocidad del viento	4.8
110486	7	Sololá	704	Santa Lucía Utatlán 	7	Santa Rita 	8	Agosto	2023-10-08T00:00:00	2024-11-08T05:00:00	7	Dirección del viento	4.83
110487	7	Sololá	704	Santa Lucía Utatlán 	7	Santa Rita 	8	Agosto	2023-10-08T00:00:00	2024-11-08T05:00:00	1	Precipitación	0
110488	7	Sololá	704	Santa Lucía Utatlán 	7	Santa Rita 	8	Agosto	2023-10-08T00:00:00	2024-11-08T05:00:00	8	Radiación solar	0
110489	7	Sololá	704	Santa Lucía Utatlán 	7	Santa Rita 	8	Agosto	2023-10-08T00:00:00	2024-11-08T06:00:00	2	Temperatura media	19.9
110490	7	Sololá	704	Santa Lucía Utatlán 	7	Santa Rita 	8	Agosto	2023-10-08T00:00:00	2024-11-08T06:00:00	4	Temperatura máxima	19.9
110491	7	Sololá	704	Santa Lucía Utatlán 	7	Santa Rita 	8	Agosto	2023-10-08T00:00:00	2024-11-08T06:00:00	3	Temperatura mínima	17.9
110492	7	Sololá	704	Santa Lucía Utatlán 	7	Santa Rita 	8	Agosto	2023-10-08T00:00:00	2024-11-08T06:00:00	5	Humedad	85
110493	7	Sololá	704	Santa Lucía Utatlán 	7	Santa Rita 	8	Agosto	2023-10-08T00:00:00	2024-11-08T06:00:00	6	Velocidad del viento	3.2
110494	7	Sololá	704	Santa Lucía Utatlán 	7	Santa Rita 	8	Agosto	2023-10-08T00:00:00	2024-11-08T06:00:00	7	Dirección del viento	3.22
110495	7	Sololá	704	Santa Lucía Utatlán 	7	Santa Rita 	8	Agosto	2023-10-08T00:00:00	2024-11-08T06:00:00	1	Precipitación	0
110496	7	Sololá	704	Santa Lucía Utatlán 	7	Santa Rita 	8	Agosto	2023-10-08T00:00:00	2024-11-08T06:00:00	8	Radiación solar	94
110497	7	Sololá	704	Santa Lucía Utatlán 	7	Santa Rita 	8	Agosto	2023-10-08T00:00:00	2024-11-08T07:00:00	2	Temperatura media	23.4
110498	7	Sololá	704	Santa Lucía Utatlán 	7	Santa Rita 	8	Agosto	2023-10-08T00:00:00	2024-11-08T07:00:00	4	Temperatura máxima	23.4
110499	7	Sololá	704	Santa Lucía Utatlán 	7	Santa Rita 	8	Agosto	2023-10-08T00:00:00	2024-11-08T07:00:00	3	Temperatura mínima	19.9
110500	7	Sololá	704	Santa Lucía Utatlán 	7	Santa Rita 	8	Agosto	2023-10-08T00:00:00	2024-11-08T07:00:00	5	Humedad	74
110501	7	Sololá	704	Santa Lucía Utatlán 	7	Santa Rita 	8	Agosto	2023-10-08T00:00:00	2024-11-08T07:00:00	6	Velocidad del viento	1.6
110502	7	Sololá	704	Santa Lucía Utatlán 	7	Santa Rita 	8	Agosto	2023-10-08T00:00:00	2024-11-08T07:00:00	7	Dirección del viento	1.61
110503	7	Sololá	704	Santa Lucía Utatlán 	7	Santa Rita 	8	Agosto	2023-10-08T00:00:00	2024-11-08T07:00:00	1	Precipitación	0
110504	7	Sololá	704	Santa Lucía Utatlán 	7	Santa Rita 	8	Agosto	2023-10-08T00:00:00	2024-11-08T07:00:00	8	Radiación solar	394
110505	7	Sololá	704	Santa Lucía Utatlán 	7	Santa Rita 	8	Agosto	2023-10-08T00:00:00	2024-11-08T08:00:00	2	Temperatura media	24.1
110506	7	Sololá	704	Santa Lucía Utatlán 	7	Santa Rita 	8	Agosto	2023-10-08T00:00:00	2024-11-08T08:00:00	4	Temperatura máxima	24.1
110507	7	Sololá	704	Santa Lucía Utatlán 	7	Santa Rita 	8	Agosto	2023-10-08T00:00:00	2024-11-08T08:00:00	3	Temperatura mínima	23.2
110508	7	Sololá	704	Santa Lucía Utatlán 	7	Santa Rita 	8	Agosto	2023-10-08T00:00:00	2024-11-08T08:00:00	5	Humedad	69
110509	7	Sololá	704	Santa Lucía Utatlán 	7	Santa Rita 	8	Agosto	2023-10-08T00:00:00	2024-11-08T08:00:00	6	Velocidad del viento	3.2
110510	7	Sololá	704	Santa Lucía Utatlán 	7	Santa Rita 	8	Agosto	2023-10-08T00:00:00	2024-11-08T08:00:00	7	Dirección del viento	3.22
110511	7	Sololá	704	Santa Lucía Utatlán 	7	Santa Rita 	8	Agosto	2023-10-08T00:00:00	2024-11-08T08:00:00	1	Precipitación	0
110512	7	Sololá	704	Santa Lucía Utatlán 	7	Santa Rita 	8	Agosto	2023-10-08T00:00:00	2024-11-08T08:00:00	8	Radiación solar	612
110513	7	Sololá	704	Santa Lucía Utatlán 	7	Santa Rita 	8	Agosto	2023-10-08T00:00:00	2024-11-08T09:00:00	2	Temperatura media	25.2
110514	7	Sololá	704	Santa Lucía Utatlán 	7	Santa Rita 	8	Agosto	2023-10-08T00:00:00	2024-11-08T09:00:00	4	Temperatura máxima	25.6
110515	7	Sololá	704	Santa Lucía Utatlán 	7	Santa Rita 	8	Agosto	2023-10-08T00:00:00	2024-11-08T09:00:00	3	Temperatura mínima	24.1
110516	7	Sololá	704	Santa Lucía Utatlán 	7	Santa Rita 	8	Agosto	2023-10-08T00:00:00	2024-11-08T09:00:00	5	Humedad	67
110517	7	Sololá	704	Santa Lucía Utatlán 	7	Santa Rita 	8	Agosto	2023-10-08T00:00:00	2024-11-08T09:00:00	6	Velocidad del viento	4.8
110518	7	Sololá	704	Santa Lucía Utatlán 	7	Santa Rita 	8	Agosto	2023-10-08T00:00:00	2024-11-08T09:00:00	7	Dirección del viento	4.83
110519	7	Sololá	704	Santa Lucía Utatlán 	7	Santa Rita 	8	Agosto	2023-10-08T00:00:00	2024-11-08T09:00:00	1	Precipitación	0
110520	7	Sololá	704	Santa Lucía Utatlán 	7	Santa Rita 	8	Agosto	2023-10-08T00:00:00	2024-11-08T09:00:00	8	Radiación solar	668
110521	7	Sololá	704	Santa Lucía Utatlán 	7	Santa Rita 	8	Agosto	2023-10-08T00:00:00	2024-11-08T10:00:00	2	Temperatura media	25.8
110522	7	Sololá	704	Santa Lucía Utatlán 	7	Santa Rita 	8	Agosto	2023-10-08T00:00:00	2024-11-08T10:00:00	4	Temperatura máxima	25.8
110523	7	Sololá	704	Santa Lucía Utatlán 	7	Santa Rita 	8	Agosto	2023-10-08T00:00:00	2024-11-08T10:00:00	3	Temperatura mínima	25.2
110524	7	Sololá	704	Santa Lucía Utatlán 	7	Santa Rita 	8	Agosto	2023-10-08T00:00:00	2024-11-08T10:00:00	5	Humedad	69
110525	7	Sololá	704	Santa Lucía Utatlán 	7	Santa Rita 	8	Agosto	2023-10-08T00:00:00	2024-11-08T10:00:00	6	Velocidad del viento	6.4
110526	7	Sololá	704	Santa Lucía Utatlán 	7	Santa Rita 	8	Agosto	2023-10-08T00:00:00	2024-11-08T10:00:00	7	Dirección del viento	6.44
110527	7	Sololá	704	Santa Lucía Utatlán 	7	Santa Rita 	8	Agosto	2023-10-08T00:00:00	2024-11-08T10:00:00	1	Precipitación	0
110528	7	Sololá	704	Santa Lucía Utatlán 	7	Santa Rita 	8	Agosto	2023-10-08T00:00:00	2024-11-08T10:00:00	8	Radiación solar	737
110529	7	Sololá	704	Santa Lucía Utatlán 	7	Santa Rita 	8	Agosto	2023-10-08T00:00:00	2024-11-08T11:00:00	2	Temperatura media	25.3
110530	7	Sololá	704	Santa Lucía Utatlán 	7	Santa Rita 	8	Agosto	2023-10-08T00:00:00	2024-11-08T11:00:00	4	Temperatura máxima	25.9
110531	7	Sololá	704	Santa Lucía Utatlán 	7	Santa Rita 	8	Agosto	2023-10-08T00:00:00	2024-11-08T11:00:00	3	Temperatura mínima	25.2
110532	7	Sololá	704	Santa Lucía Utatlán 	7	Santa Rita 	8	Agosto	2023-10-08T00:00:00	2024-11-08T11:00:00	5	Humedad	68
110533	7	Sololá	704	Santa Lucía Utatlán 	7	Santa Rita 	8	Agosto	2023-10-08T00:00:00	2024-11-08T11:00:00	6	Velocidad del viento	6.4
110534	7	Sololá	704	Santa Lucía Utatlán 	7	Santa Rita 	8	Agosto	2023-10-08T00:00:00	2024-11-08T11:00:00	7	Dirección del viento	6.44
110535	7	Sololá	704	Santa Lucía Utatlán 	7	Santa Rita 	8	Agosto	2023-10-08T00:00:00	2024-11-08T11:00:00	1	Precipitación	0
110536	7	Sololá	704	Santa Lucía Utatlán 	7	Santa Rita 	8	Agosto	2023-10-08T00:00:00	2024-11-08T11:00:00	8	Radiación solar	462
110537	7	Sololá	704	Santa Lucía Utatlán 	7	Santa Rita 	8	Agosto	2023-10-08T00:00:00	2024-11-08T12:00:00	2	Temperatura media	23.6
110538	7	Sololá	704	Santa Lucía Utatlán 	7	Santa Rita 	8	Agosto	2023-10-08T00:00:00	2024-11-08T12:00:00	4	Temperatura máxima	25.2
110539	7	Sololá	704	Santa Lucía Utatlán 	7	Santa Rita 	8	Agosto	2023-10-08T00:00:00	2024-11-08T12:00:00	3	Temperatura mínima	23.6
110540	7	Sololá	704	Santa Lucía Utatlán 	7	Santa Rita 	8	Agosto	2023-10-08T00:00:00	2024-11-08T12:00:00	5	Humedad	81
110541	7	Sololá	704	Santa Lucía Utatlán 	7	Santa Rita 	8	Agosto	2023-10-08T00:00:00	2024-11-08T12:00:00	6	Velocidad del viento	4.8
110542	7	Sololá	704	Santa Lucía Utatlán 	7	Santa Rita 	8	Agosto	2023-10-08T00:00:00	2024-11-08T12:00:00	7	Dirección del viento	4.83
110543	7	Sololá	704	Santa Lucía Utatlán 	7	Santa Rita 	8	Agosto	2023-10-08T00:00:00	2024-11-08T12:00:00	1	Precipitación	0
110544	7	Sololá	704	Santa Lucía Utatlán 	7	Santa Rita 	8	Agosto	2023-10-08T00:00:00	2024-11-08T12:00:00	8	Radiación solar	161
110545	7	Sololá	704	Santa Lucía Utatlán 	7	Santa Rita 	8	Agosto	2023-10-08T00:00:00	2024-11-08T13:00:00	2	Temperatura media	23.7
110546	7	Sololá	704	Santa Lucía Utatlán 	7	Santa Rita 	8	Agosto	2023-10-08T00:00:00	2024-11-08T13:00:00	4	Temperatura máxima	23.8
110547	7	Sololá	704	Santa Lucía Utatlán 	7	Santa Rita 	8	Agosto	2023-10-08T00:00:00	2024-11-08T13:00:00	3	Temperatura mínima	23.1
110548	7	Sololá	704	Santa Lucía Utatlán 	7	Santa Rita 	8	Agosto	2023-10-08T00:00:00	2024-11-08T13:00:00	5	Humedad	82
110549	7	Sololá	704	Santa Lucía Utatlán 	7	Santa Rita 	8	Agosto	2023-10-08T00:00:00	2024-11-08T13:00:00	6	Velocidad del viento	4.8
110550	7	Sololá	704	Santa Lucía Utatlán 	7	Santa Rita 	8	Agosto	2023-10-08T00:00:00	2024-11-08T13:00:00	7	Dirección del viento	4.83
110551	7	Sololá	704	Santa Lucía Utatlán 	7	Santa Rita 	8	Agosto	2023-10-08T00:00:00	2024-11-08T13:00:00	1	Precipitación	0
110552	7	Sololá	704	Santa Lucía Utatlán 	7	Santa Rita 	8	Agosto	2023-10-08T00:00:00	2024-11-08T13:00:00	8	Radiación solar	195
110553	7	Sololá	704	Santa Lucía Utatlán 	7	Santa Rita 	8	Agosto	2023-10-08T00:00:00	2024-11-08T14:00:00	2	Temperatura media	23.3
110554	7	Sololá	704	Santa Lucía Utatlán 	7	Santa Rita 	8	Agosto	2023-10-08T00:00:00	2024-11-08T14:00:00	4	Temperatura máxima	23.9
110555	7	Sololá	704	Santa Lucía Utatlán 	7	Santa Rita 	8	Agosto	2023-10-08T00:00:00	2024-11-08T14:00:00	3	Temperatura mínima	23.3
110556	7	Sololá	704	Santa Lucía Utatlán 	7	Santa Rita 	8	Agosto	2023-10-08T00:00:00	2024-11-08T14:00:00	5	Humedad	85
110557	7	Sololá	704	Santa Lucía Utatlán 	7	Santa Rita 	8	Agosto	2023-10-08T00:00:00	2024-11-08T14:00:00	6	Velocidad del viento	6.4
110558	7	Sololá	704	Santa Lucía Utatlán 	7	Santa Rita 	8	Agosto	2023-10-08T00:00:00	2024-11-08T14:00:00	7	Dirección del viento	6.44
110559	7	Sololá	704	Santa Lucía Utatlán 	7	Santa Rita 	8	Agosto	2023-10-08T00:00:00	2024-11-08T14:00:00	1	Precipitación	0
110560	7	Sololá	704	Santa Lucía Utatlán 	7	Santa Rita 	8	Agosto	2023-10-08T00:00:00	2024-11-08T14:00:00	8	Radiación solar	333
110561	7	Sololá	704	Santa Lucía Utatlán 	7	Santa Rita 	8	Agosto	2023-10-08T00:00:00	2024-11-08T15:00:00	2	Temperatura media	23.9
110562	7	Sololá	704	Santa Lucía Utatlán 	7	Santa Rita 	8	Agosto	2023-10-08T00:00:00	2024-11-08T15:00:00	4	Temperatura máxima	23.9
110563	7	Sololá	704	Santa Lucía Utatlán 	7	Santa Rita 	8	Agosto	2023-10-08T00:00:00	2024-11-08T15:00:00	3	Temperatura mínima	23.2
110564	7	Sololá	704	Santa Lucía Utatlán 	7	Santa Rita 	8	Agosto	2023-10-08T00:00:00	2024-11-08T15:00:00	5	Humedad	76
110565	7	Sololá	704	Santa Lucía Utatlán 	7	Santa Rita 	8	Agosto	2023-10-08T00:00:00	2024-11-08T15:00:00	6	Velocidad del viento	3.2
110566	7	Sololá	704	Santa Lucía Utatlán 	7	Santa Rita 	8	Agosto	2023-10-08T00:00:00	2024-11-08T15:00:00	7	Dirección del viento	3.22
110567	7	Sololá	704	Santa Lucía Utatlán 	7	Santa Rita 	8	Agosto	2023-10-08T00:00:00	2024-11-08T15:00:00	1	Precipitación	0
110568	7	Sololá	704	Santa Lucía Utatlán 	7	Santa Rita 	8	Agosto	2023-10-08T00:00:00	2024-11-08T15:00:00	8	Radiación solar	315
110569	7	Sololá	704	Santa Lucía Utatlán 	7	Santa Rita 	8	Agosto	2023-10-08T00:00:00	2024-11-08T16:00:00	2	Temperatura media	24
110570	7	Sololá	704	Santa Lucía Utatlán 	7	Santa Rita 	8	Agosto	2023-10-08T00:00:00	2024-11-08T16:00:00	4	Temperatura máxima	25.2
110571	7	Sololá	704	Santa Lucía Utatlán 	7	Santa Rita 	8	Agosto	2023-10-08T00:00:00	2024-11-08T16:00:00	3	Temperatura mínima	23.8
110572	7	Sololá	704	Santa Lucía Utatlán 	7	Santa Rita 	8	Agosto	2023-10-08T00:00:00	2024-11-08T16:00:00	5	Humedad	74
110573	7	Sololá	704	Santa Lucía Utatlán 	7	Santa Rita 	8	Agosto	2023-10-08T00:00:00	2024-11-08T16:00:00	6	Velocidad del viento	1.6
110574	7	Sololá	704	Santa Lucía Utatlán 	7	Santa Rita 	8	Agosto	2023-10-08T00:00:00	2024-11-08T16:00:00	7	Dirección del viento	1.61
110575	7	Sololá	704	Santa Lucía Utatlán 	7	Santa Rita 	8	Agosto	2023-10-08T00:00:00	2024-11-08T16:00:00	1	Precipitación	0
110576	7	Sololá	704	Santa Lucía Utatlán 	7	Santa Rita 	8	Agosto	2023-10-08T00:00:00	2024-11-08T16:00:00	8	Radiación solar	225
110577	7	Sololá	704	Santa Lucía Utatlán 	7	Santa Rita 	8	Agosto	2023-10-08T00:00:00	2024-11-08T17:00:00	2	Temperatura media	23.1
110578	7	Sololá	704	Santa Lucía Utatlán 	7	Santa Rita 	8	Agosto	2023-10-08T00:00:00	2024-11-08T17:00:00	4	Temperatura máxima	24
110579	7	Sololá	704	Santa Lucía Utatlán 	7	Santa Rita 	8	Agosto	2023-10-08T00:00:00	2024-11-08T17:00:00	3	Temperatura mínima	23
110580	7	Sololá	704	Santa Lucía Utatlán 	7	Santa Rita 	8	Agosto	2023-10-08T00:00:00	2024-11-08T17:00:00	5	Humedad	69
110581	7	Sololá	704	Santa Lucía Utatlán 	7	Santa Rita 	8	Agosto	2023-10-08T00:00:00	2024-11-08T17:00:00	6	Velocidad del viento	6.4
110582	7	Sololá	704	Santa Lucía Utatlán 	7	Santa Rita 	8	Agosto	2023-10-08T00:00:00	2024-11-08T17:00:00	7	Dirección del viento	6.44
110583	7	Sololá	704	Santa Lucía Utatlán 	7	Santa Rita 	8	Agosto	2023-10-08T00:00:00	2024-11-08T17:00:00	1	Precipitación	0
110584	7	Sololá	704	Santa Lucía Utatlán 	7	Santa Rita 	8	Agosto	2023-10-08T00:00:00	2024-11-08T17:00:00	8	Radiación solar	48
110585	7	Sololá	704	Santa Lucía Utatlán 	7	Santa Rita 	8	Agosto	2023-10-08T00:00:00	2024-11-08T18:00:00	2	Temperatura media	20.7
110586	7	Sololá	704	Santa Lucía Utatlán 	7	Santa Rita 	8	Agosto	2023-10-08T00:00:00	2024-11-08T18:00:00	4	Temperatura máxima	23.1
110587	7	Sololá	704	Santa Lucía Utatlán 	7	Santa Rita 	8	Agosto	2023-10-08T00:00:00	2024-11-08T18:00:00	3	Temperatura mínima	20.7
110588	7	Sololá	704	Santa Lucía Utatlán 	7	Santa Rita 	8	Agosto	2023-10-08T00:00:00	2024-11-08T18:00:00	5	Humedad	81
110589	7	Sololá	704	Santa Lucía Utatlán 	7	Santa Rita 	8	Agosto	2023-10-08T00:00:00	2024-11-08T18:00:00	6	Velocidad del viento	3.2
110590	7	Sololá	704	Santa Lucía Utatlán 	7	Santa Rita 	8	Agosto	2023-10-08T00:00:00	2024-11-08T18:00:00	7	Dirección del viento	3.22
110591	7	Sololá	704	Santa Lucía Utatlán 	7	Santa Rita 	8	Agosto	2023-10-08T00:00:00	2024-11-08T18:00:00	1	Precipitación	0
110592	7	Sololá	704	Santa Lucía Utatlán 	7	Santa Rita 	8	Agosto	2023-10-08T00:00:00	2024-11-08T18:00:00	8	Radiación solar	6
110593	7	Sololá	704	Santa Lucía Utatlán 	7	Santa Rita 	8	Agosto	2023-10-08T00:00:00	2024-11-08T19:00:00	2	Temperatura media	20.6
110594	7	Sololá	704	Santa Lucía Utatlán 	7	Santa Rita 	8	Agosto	2023-10-08T00:00:00	2024-11-08T19:00:00	4	Temperatura máxima	22.4
110595	7	Sololá	704	Santa Lucía Utatlán 	7	Santa Rita 	8	Agosto	2023-10-08T00:00:00	2024-11-08T19:00:00	3	Temperatura mínima	20.5
110596	7	Sololá	704	Santa Lucía Utatlán 	7	Santa Rita 	8	Agosto	2023-10-08T00:00:00	2024-11-08T19:00:00	5	Humedad	80
110597	7	Sololá	704	Santa Lucía Utatlán 	7	Santa Rita 	8	Agosto	2023-10-08T00:00:00	2024-11-08T19:00:00	6	Velocidad del viento	3.2
110598	7	Sololá	704	Santa Lucía Utatlán 	7	Santa Rita 	8	Agosto	2023-10-08T00:00:00	2024-11-08T19:00:00	7	Dirección del viento	3.22
110599	7	Sololá	704	Santa Lucía Utatlán 	7	Santa Rita 	8	Agosto	2023-10-08T00:00:00	2024-11-08T19:00:00	1	Precipitación	0
110600	7	Sololá	704	Santa Lucía Utatlán 	7	Santa Rita 	8	Agosto	2023-10-08T00:00:00	2024-11-08T19:00:00	8	Radiación solar	0
110601	7	Sololá	704	Santa Lucía Utatlán 	7	Santa Rita 	8	Agosto	2023-10-08T00:00:00	2024-11-08T20:00:00	2	Temperatura media	19.2
110602	7	Sololá	704	Santa Lucía Utatlán 	7	Santa Rita 	8	Agosto	2023-10-08T00:00:00	2024-11-08T20:00:00	4	Temperatura máxima	20.5
110603	7	Sololá	704	Santa Lucía Utatlán 	7	Santa Rita 	8	Agosto	2023-10-08T00:00:00	2024-11-08T20:00:00	3	Temperatura mínima	19.1
110604	7	Sololá	704	Santa Lucía Utatlán 	7	Santa Rita 	8	Agosto	2023-10-08T00:00:00	2024-11-08T20:00:00	5	Humedad	79
110605	7	Sololá	704	Santa Lucía Utatlán 	7	Santa Rita 	8	Agosto	2023-10-08T00:00:00	2024-11-08T20:00:00	6	Velocidad del viento	3.2
110606	7	Sololá	704	Santa Lucía Utatlán 	7	Santa Rita 	8	Agosto	2023-10-08T00:00:00	2024-11-08T20:00:00	7	Dirección del viento	3.22
110607	7	Sololá	704	Santa Lucía Utatlán 	7	Santa Rita 	8	Agosto	2023-10-08T00:00:00	2024-11-08T20:00:00	1	Precipitación	0
110608	7	Sololá	704	Santa Lucía Utatlán 	7	Santa Rita 	8	Agosto	2023-10-08T00:00:00	2024-11-08T20:00:00	8	Radiación solar	0
110609	7	Sololá	704	Santa Lucía Utatlán 	7	Santa Rita 	8	Agosto	2023-10-08T00:00:00	2024-11-08T21:00:00	2	Temperatura media	18.6
110610	7	Sololá	704	Santa Lucía Utatlán 	7	Santa Rita 	8	Agosto	2023-10-08T00:00:00	2024-11-08T21:00:00	4	Temperatura máxima	19.3
110611	7	Sololá	704	Santa Lucía Utatlán 	7	Santa Rita 	8	Agosto	2023-10-08T00:00:00	2024-11-08T21:00:00	3	Temperatura mínima	18.6
110612	7	Sololá	704	Santa Lucía Utatlán 	7	Santa Rita 	8	Agosto	2023-10-08T00:00:00	2024-11-08T21:00:00	5	Humedad	84
110613	7	Sololá	704	Santa Lucía Utatlán 	7	Santa Rita 	8	Agosto	2023-10-08T00:00:00	2024-11-08T21:00:00	6	Velocidad del viento	3.2
110614	7	Sololá	704	Santa Lucía Utatlán 	7	Santa Rita 	8	Agosto	2023-10-08T00:00:00	2024-11-08T21:00:00	7	Dirección del viento	3.22
110615	7	Sololá	704	Santa Lucía Utatlán 	7	Santa Rita 	8	Agosto	2023-10-08T00:00:00	2024-11-08T21:00:00	1	Precipitación	0
110616	7	Sololá	704	Santa Lucía Utatlán 	7	Santa Rita 	8	Agosto	2023-10-08T00:00:00	2024-11-08T21:00:00	8	Radiación solar	0
110617	7	Sololá	704	Santa Lucía Utatlán 	7	Santa Rita 	8	Agosto	2023-10-08T00:00:00	2024-11-08T22:00:00	2	Temperatura media	18.2
110618	7	Sololá	704	Santa Lucía Utatlán 	7	Santa Rita 	8	Agosto	2023-10-08T00:00:00	2024-11-08T22:00:00	4	Temperatura máxima	18.8
110619	7	Sololá	704	Santa Lucía Utatlán 	7	Santa Rita 	8	Agosto	2023-10-08T00:00:00	2024-11-08T22:00:00	3	Temperatura mínima	18.2
110620	7	Sololá	704	Santa Lucía Utatlán 	7	Santa Rita 	8	Agosto	2023-10-08T00:00:00	2024-11-08T22:00:00	5	Humedad	86
110621	7	Sololá	704	Santa Lucía Utatlán 	7	Santa Rita 	8	Agosto	2023-10-08T00:00:00	2024-11-08T22:00:00	6	Velocidad del viento	3.2
110622	7	Sololá	704	Santa Lucía Utatlán 	7	Santa Rita 	8	Agosto	2023-10-08T00:00:00	2024-11-08T22:00:00	7	Dirección del viento	3.22
110623	7	Sololá	704	Santa Lucía Utatlán 	7	Santa Rita 	8	Agosto	2023-10-08T00:00:00	2024-11-08T22:00:00	1	Precipitación	0
110624	7	Sololá	704	Santa Lucía Utatlán 	7	Santa Rita 	8	Agosto	2023-10-08T00:00:00	2024-11-08T22:00:00	8	Radiación solar	0
110625	7	Sololá	704	Santa Lucía Utatlán 	7	Santa Rita 	8	Agosto	2023-10-08T00:00:00	2024-11-08T23:00:00	2	Temperatura media	18.2
110626	7	Sololá	704	Santa Lucía Utatlán 	7	Santa Rita 	8	Agosto	2023-10-08T00:00:00	2024-11-08T23:00:00	4	Temperatura máxima	18.7
110627	7	Sololá	704	Santa Lucía Utatlán 	7	Santa Rita 	8	Agosto	2023-10-08T00:00:00	2024-11-08T23:00:00	3	Temperatura mínima	18.1
110628	7	Sololá	704	Santa Lucía Utatlán 	7	Santa Rita 	8	Agosto	2023-10-08T00:00:00	2024-11-08T23:00:00	5	Humedad	84
110629	7	Sololá	704	Santa Lucía Utatlán 	7	Santa Rita 	8	Agosto	2023-10-08T00:00:00	2024-11-08T23:00:00	6	Velocidad del viento	4.8
110630	7	Sololá	704	Santa Lucía Utatlán 	7	Santa Rita 	8	Agosto	2023-10-08T00:00:00	2024-11-08T23:00:00	7	Dirección del viento	4.83
110631	7	Sololá	704	Santa Lucía Utatlán 	7	Santa Rita 	8	Agosto	2023-10-08T00:00:00	2024-11-08T23:00:00	1	Precipitación	0
110632	7	Sololá	704	Santa Lucía Utatlán 	7	Santa Rita 	8	Agosto	2023-10-08T00:00:00	2024-11-08T23:00:00	8	Radiación solar	0
110633	7	Sololá	704	Santa Lucía Utatlán 	7	Santa Rita 	8	Agosto	2023-11-08T00:00:00	2024-11-08T00:00:00	2	Temperatura media	18.2
110634	7	Sololá	704	Santa Lucía Utatlán 	7	Santa Rita 	8	Agosto	2023-11-08T00:00:00	2024-11-08T00:00:00	4	Temperatura máxima	18.7
110635	7	Sololá	704	Santa Lucía Utatlán 	7	Santa Rita 	8	Agosto	2023-11-08T00:00:00	2024-11-08T00:00:00	3	Temperatura mínima	18.2
110636	7	Sololá	704	Santa Lucía Utatlán 	7	Santa Rita 	8	Agosto	2023-11-08T00:00:00	2024-11-08T00:00:00	5	Humedad	79
110637	7	Sololá	704	Santa Lucía Utatlán 	7	Santa Rita 	8	Agosto	2023-11-08T00:00:00	2024-11-08T00:00:00	6	Velocidad del viento	4.8
110638	7	Sololá	704	Santa Lucía Utatlán 	7	Santa Rita 	8	Agosto	2023-11-08T00:00:00	2024-11-08T00:00:00	7	Dirección del viento	4.83
110639	7	Sololá	704	Santa Lucía Utatlán 	7	Santa Rita 	8	Agosto	2023-11-08T00:00:00	2024-11-08T00:00:00	1	Precipitación	0
110640	7	Sololá	704	Santa Lucía Utatlán 	7	Santa Rita 	8	Agosto	2023-11-08T00:00:00	2024-11-08T00:00:00	8	Radiación solar	0
110641	7	Sololá	704	Santa Lucía Utatlán 	7	Santa Rita 	8	Agosto	2023-11-08T00:00:00	2024-11-08T01:00:00	2	Temperatura media	18.3
110642	7	Sololá	704	Santa Lucía Utatlán 	7	Santa Rita 	8	Agosto	2023-11-08T00:00:00	2024-11-08T01:00:00	4	Temperatura máxima	18.4
110643	7	Sololá	704	Santa Lucía Utatlán 	7	Santa Rita 	8	Agosto	2023-11-08T00:00:00	2024-11-08T01:00:00	3	Temperatura mínima	18
110644	7	Sololá	704	Santa Lucía Utatlán 	7	Santa Rita 	8	Agosto	2023-11-08T00:00:00	2024-11-08T01:00:00	5	Humedad	76
110645	7	Sololá	704	Santa Lucía Utatlán 	7	Santa Rita 	8	Agosto	2023-11-08T00:00:00	2024-11-08T01:00:00	6	Velocidad del viento	4.8
110646	7	Sololá	704	Santa Lucía Utatlán 	7	Santa Rita 	8	Agosto	2023-11-08T00:00:00	2024-11-08T01:00:00	7	Dirección del viento	4.83
110647	7	Sololá	704	Santa Lucía Utatlán 	7	Santa Rita 	8	Agosto	2023-11-08T00:00:00	2024-11-08T01:00:00	1	Precipitación	0
110648	7	Sololá	704	Santa Lucía Utatlán 	7	Santa Rita 	8	Agosto	2023-11-08T00:00:00	2024-11-08T01:00:00	8	Radiación solar	0
110649	7	Sololá	704	Santa Lucía Utatlán 	7	Santa Rita 	8	Agosto	2023-11-08T00:00:00	2024-11-08T02:00:00	2	Temperatura media	17.8
110650	7	Sololá	704	Santa Lucía Utatlán 	7	Santa Rita 	8	Agosto	2023-11-08T00:00:00	2024-11-08T02:00:00	4	Temperatura máxima	18.3
110651	7	Sololá	704	Santa Lucía Utatlán 	7	Santa Rita 	8	Agosto	2023-11-08T00:00:00	2024-11-08T02:00:00	3	Temperatura mínima	17.8
110652	7	Sololá	704	Santa Lucía Utatlán 	7	Santa Rita 	8	Agosto	2023-11-08T00:00:00	2024-11-08T02:00:00	5	Humedad	76
110653	7	Sololá	704	Santa Lucía Utatlán 	7	Santa Rita 	8	Agosto	2023-11-08T00:00:00	2024-11-08T02:00:00	6	Velocidad del viento	4.8
110654	7	Sololá	704	Santa Lucía Utatlán 	7	Santa Rita 	8	Agosto	2023-11-08T00:00:00	2024-11-08T02:00:00	7	Dirección del viento	4.83
110655	7	Sololá	704	Santa Lucía Utatlán 	7	Santa Rita 	8	Agosto	2023-11-08T00:00:00	2024-11-08T02:00:00	1	Precipitación	0
110656	7	Sololá	704	Santa Lucía Utatlán 	7	Santa Rita 	8	Agosto	2023-11-08T00:00:00	2024-11-08T02:00:00	8	Radiación solar	0
110657	7	Sololá	704	Santa Lucía Utatlán 	7	Santa Rita 	8	Agosto	2023-11-08T00:00:00	2024-11-08T03:00:00	2	Temperatura media	17.6
110658	7	Sololá	704	Santa Lucía Utatlán 	7	Santa Rita 	8	Agosto	2023-11-08T00:00:00	2024-11-08T03:00:00	4	Temperatura máxima	18.1
110659	7	Sololá	704	Santa Lucía Utatlán 	7	Santa Rita 	8	Agosto	2023-11-08T00:00:00	2024-11-08T03:00:00	3	Temperatura mínima	17.6
110660	7	Sololá	704	Santa Lucía Utatlán 	7	Santa Rita 	8	Agosto	2023-11-08T00:00:00	2024-11-08T03:00:00	5	Humedad	76
110661	7	Sololá	704	Santa Lucía Utatlán 	7	Santa Rita 	8	Agosto	2023-11-08T00:00:00	2024-11-08T03:00:00	6	Velocidad del viento	6.4
110662	7	Sololá	704	Santa Lucía Utatlán 	7	Santa Rita 	8	Agosto	2023-11-08T00:00:00	2024-11-08T03:00:00	7	Dirección del viento	6.44
110663	7	Sololá	704	Santa Lucía Utatlán 	7	Santa Rita 	8	Agosto	2023-11-08T00:00:00	2024-11-08T03:00:00	1	Precipitación	0
110664	7	Sololá	704	Santa Lucía Utatlán 	7	Santa Rita 	8	Agosto	2023-11-08T00:00:00	2024-11-08T03:00:00	8	Radiación solar	0
110665	7	Sololá	704	Santa Lucía Utatlán 	7	Santa Rita 	8	Agosto	2023-11-08T00:00:00	2024-11-08T04:00:00	2	Temperatura media	17.8
110666	7	Sololá	704	Santa Lucía Utatlán 	7	Santa Rita 	8	Agosto	2023-11-08T00:00:00	2024-11-08T04:00:00	4	Temperatura máxima	17.8
110667	7	Sololá	704	Santa Lucía Utatlán 	7	Santa Rita 	8	Agosto	2023-11-08T00:00:00	2024-11-08T04:00:00	3	Temperatura mínima	17.6
110668	7	Sololá	704	Santa Lucía Utatlán 	7	Santa Rita 	8	Agosto	2023-11-08T00:00:00	2024-11-08T04:00:00	5	Humedad	74
110669	7	Sololá	704	Santa Lucía Utatlán 	7	Santa Rita 	8	Agosto	2023-11-08T00:00:00	2024-11-08T04:00:00	6	Velocidad del viento	8
110670	7	Sololá	704	Santa Lucía Utatlán 	7	Santa Rita 	8	Agosto	2023-11-08T00:00:00	2024-11-08T04:00:00	7	Dirección del viento	8.05
110671	7	Sololá	704	Santa Lucía Utatlán 	7	Santa Rita 	8	Agosto	2023-11-08T00:00:00	2024-11-08T04:00:00	1	Precipitación	0
110672	7	Sololá	704	Santa Lucía Utatlán 	7	Santa Rita 	8	Agosto	2023-11-08T00:00:00	2024-11-08T04:00:00	8	Radiación solar	0
110673	7	Sololá	704	Santa Lucía Utatlán 	7	Santa Rita 	8	Agosto	2023-11-08T00:00:00	2024-11-08T05:00:00	2	Temperatura media	17.2
110674	7	Sololá	704	Santa Lucía Utatlán 	7	Santa Rita 	8	Agosto	2023-11-08T00:00:00	2024-11-08T05:00:00	4	Temperatura máxima	17.8
110675	7	Sololá	704	Santa Lucía Utatlán 	7	Santa Rita 	8	Agosto	2023-11-08T00:00:00	2024-11-08T05:00:00	3	Temperatura mínima	17.2
110676	7	Sololá	704	Santa Lucía Utatlán 	7	Santa Rita 	8	Agosto	2023-11-08T00:00:00	2024-11-08T05:00:00	5	Humedad	76
110677	7	Sololá	704	Santa Lucía Utatlán 	7	Santa Rita 	8	Agosto	2023-11-08T00:00:00	2024-11-08T05:00:00	6	Velocidad del viento	6.4
110678	7	Sololá	704	Santa Lucía Utatlán 	7	Santa Rita 	8	Agosto	2023-11-08T00:00:00	2024-11-08T05:00:00	7	Dirección del viento	6.44
110679	7	Sololá	704	Santa Lucía Utatlán 	7	Santa Rita 	8	Agosto	2023-11-08T00:00:00	2024-11-08T05:00:00	1	Precipitación	0
110680	7	Sololá	704	Santa Lucía Utatlán 	7	Santa Rita 	8	Agosto	2023-11-08T00:00:00	2024-11-08T05:00:00	8	Radiación solar	0
110681	7	Sololá	704	Santa Lucía Utatlán 	7	Santa Rita 	8	Agosto	2023-11-08T00:00:00	2024-11-08T06:00:00	2	Temperatura media	19.4
110682	7	Sololá	704	Santa Lucía Utatlán 	7	Santa Rita 	8	Agosto	2023-11-08T00:00:00	2024-11-08T06:00:00	4	Temperatura máxima	19.4
110683	7	Sololá	704	Santa Lucía Utatlán 	7	Santa Rita 	8	Agosto	2023-11-08T00:00:00	2024-11-08T06:00:00	3	Temperatura mínima	17.2
110684	7	Sololá	704	Santa Lucía Utatlán 	7	Santa Rita 	8	Agosto	2023-11-08T00:00:00	2024-11-08T06:00:00	5	Humedad	73
110685	7	Sololá	704	Santa Lucía Utatlán 	7	Santa Rita 	8	Agosto	2023-11-08T00:00:00	2024-11-08T06:00:00	6	Velocidad del viento	6.4
110686	7	Sololá	704	Santa Lucía Utatlán 	7	Santa Rita 	8	Agosto	2023-11-08T00:00:00	2024-11-08T06:00:00	7	Dirección del viento	6.44
110687	7	Sololá	704	Santa Lucía Utatlán 	7	Santa Rita 	8	Agosto	2023-11-08T00:00:00	2024-11-08T06:00:00	1	Precipitación	0
110688	7	Sololá	704	Santa Lucía Utatlán 	7	Santa Rita 	8	Agosto	2023-11-08T00:00:00	2024-11-08T06:00:00	8	Radiación solar	1
110689	7	Sololá	704	Santa Lucía Utatlán 	7	Santa Rita 	8	Agosto	2023-11-08T00:00:00	2024-11-08T07:00:00	2	Temperatura media	22.4
110690	7	Sololá	704	Santa Lucía Utatlán 	7	Santa Rita 	8	Agosto	2023-11-08T00:00:00	2024-11-08T07:00:00	4	Temperatura máxima	22.4
110691	7	Sololá	704	Santa Lucía Utatlán 	7	Santa Rita 	8	Agosto	2023-11-08T00:00:00	2024-11-08T07:00:00	3	Temperatura mínima	19.4
110692	7	Sololá	704	Santa Lucía Utatlán 	7	Santa Rita 	8	Agosto	2023-11-08T00:00:00	2024-11-08T07:00:00	5	Humedad	66
110693	7	Sololá	704	Santa Lucía Utatlán 	7	Santa Rita 	8	Agosto	2023-11-08T00:00:00	2024-11-08T07:00:00	6	Velocidad del viento	4.8
110694	7	Sololá	704	Santa Lucía Utatlán 	7	Santa Rita 	8	Agosto	2023-11-08T00:00:00	2024-11-08T07:00:00	7	Dirección del viento	4.83
110695	7	Sololá	704	Santa Lucía Utatlán 	7	Santa Rita 	8	Agosto	2023-11-08T00:00:00	2024-11-08T07:00:00	1	Precipitación	0
110696	7	Sololá	704	Santa Lucía Utatlán 	7	Santa Rita 	8	Agosto	2023-11-08T00:00:00	2024-11-08T07:00:00	8	Radiación solar	80
110697	7	Sololá	704	Santa Lucía Utatlán 	7	Santa Rita 	8	Agosto	2023-11-08T00:00:00	2024-11-08T08:00:00	2	Temperatura media	25.1
110698	7	Sololá	704	Santa Lucía Utatlán 	7	Santa Rita 	8	Agosto	2023-11-08T00:00:00	2024-11-08T08:00:00	4	Temperatura máxima	25.1
110699	7	Sololá	704	Santa Lucía Utatlán 	7	Santa Rita 	8	Agosto	2023-11-08T00:00:00	2024-11-08T08:00:00	3	Temperatura mínima	22.4
110700	7	Sololá	704	Santa Lucía Utatlán 	7	Santa Rita 	8	Agosto	2023-11-08T00:00:00	2024-11-08T08:00:00	5	Humedad	62
110701	7	Sololá	704	Santa Lucía Utatlán 	7	Santa Rita 	8	Agosto	2023-11-08T00:00:00	2024-11-08T08:00:00	6	Velocidad del viento	3.2
110702	7	Sololá	704	Santa Lucía Utatlán 	7	Santa Rita 	8	Agosto	2023-11-08T00:00:00	2024-11-08T08:00:00	7	Dirección del viento	3.22
110703	7	Sololá	704	Santa Lucía Utatlán 	7	Santa Rita 	8	Agosto	2023-11-08T00:00:00	2024-11-08T08:00:00	1	Precipitación	0
110704	7	Sololá	704	Santa Lucía Utatlán 	7	Santa Rita 	8	Agosto	2023-11-08T00:00:00	2024-11-08T08:00:00	8	Radiación solar	389
110705	7	Sololá	704	Santa Lucía Utatlán 	7	Santa Rita 	8	Agosto	2023-11-08T00:00:00	2024-11-08T09:00:00	2	Temperatura media	24.7
110706	7	Sololá	704	Santa Lucía Utatlán 	7	Santa Rita 	8	Agosto	2023-11-08T00:00:00	2024-11-08T09:00:00	4	Temperatura máxima	26.3
110707	7	Sololá	704	Santa Lucía Utatlán 	7	Santa Rita 	8	Agosto	2023-11-08T00:00:00	2024-11-08T09:00:00	3	Temperatura mínima	24.7
110708	7	Sololá	704	Santa Lucía Utatlán 	7	Santa Rita 	8	Agosto	2023-11-08T00:00:00	2024-11-08T09:00:00	5	Humedad	63
110709	7	Sololá	704	Santa Lucía Utatlán 	7	Santa Rita 	8	Agosto	2023-11-08T00:00:00	2024-11-08T09:00:00	6	Velocidad del viento	6.4
110710	7	Sololá	704	Santa Lucía Utatlán 	7	Santa Rita 	8	Agosto	2023-11-08T00:00:00	2024-11-08T09:00:00	7	Dirección del viento	6.44
110711	7	Sololá	704	Santa Lucía Utatlán 	7	Santa Rita 	8	Agosto	2023-11-08T00:00:00	2024-11-08T09:00:00	1	Precipitación	0
110712	7	Sololá	704	Santa Lucía Utatlán 	7	Santa Rita 	8	Agosto	2023-11-08T00:00:00	2024-11-08T09:00:00	8	Radiación solar	535
110713	7	Sololá	704	Santa Lucía Utatlán 	7	Santa Rita 	8	Agosto	2023-11-08T00:00:00	2024-11-08T10:00:00	2	Temperatura media	25.2
110714	7	Sololá	704	Santa Lucía Utatlán 	7	Santa Rita 	8	Agosto	2023-11-08T00:00:00	2024-11-08T10:00:00	4	Temperatura máxima	25.3
110715	7	Sololá	704	Santa Lucía Utatlán 	7	Santa Rita 	8	Agosto	2023-11-08T00:00:00	2024-11-08T10:00:00	3	Temperatura mínima	24.7
110716	7	Sololá	704	Santa Lucía Utatlán 	7	Santa Rita 	8	Agosto	2023-11-08T00:00:00	2024-11-08T10:00:00	5	Humedad	62
110717	7	Sololá	704	Santa Lucía Utatlán 	7	Santa Rita 	8	Agosto	2023-11-08T00:00:00	2024-11-08T10:00:00	6	Velocidad del viento	8
110718	7	Sololá	704	Santa Lucía Utatlán 	7	Santa Rita 	8	Agosto	2023-11-08T00:00:00	2024-11-08T10:00:00	7	Dirección del viento	8.05
110719	7	Sololá	704	Santa Lucía Utatlán 	7	Santa Rita 	8	Agosto	2023-11-08T00:00:00	2024-11-08T10:00:00	1	Precipitación	0
110720	7	Sololá	704	Santa Lucía Utatlán 	7	Santa Rita 	8	Agosto	2023-11-08T00:00:00	2024-11-08T10:00:00	8	Radiación solar	579
110721	7	Sololá	704	Santa Lucía Utatlán 	7	Santa Rita 	8	Agosto	2023-11-08T00:00:00	2024-11-08T11:00:00	2	Temperatura media	25.4
110722	7	Sololá	704	Santa Lucía Utatlán 	7	Santa Rita 	8	Agosto	2023-11-08T00:00:00	2024-11-08T11:00:00	4	Temperatura máxima	26.2
110723	7	Sololá	704	Santa Lucía Utatlán 	7	Santa Rita 	8	Agosto	2023-11-08T00:00:00	2024-11-08T11:00:00	3	Temperatura mínima	25.3
110724	7	Sololá	704	Santa Lucía Utatlán 	7	Santa Rita 	8	Agosto	2023-11-08T00:00:00	2024-11-08T11:00:00	5	Humedad	62
110725	7	Sololá	704	Santa Lucía Utatlán 	7	Santa Rita 	8	Agosto	2023-11-08T00:00:00	2024-11-08T11:00:00	6	Velocidad del viento	9.7
110726	7	Sololá	704	Santa Lucía Utatlán 	7	Santa Rita 	8	Agosto	2023-11-08T00:00:00	2024-11-08T11:00:00	7	Dirección del viento	9.66
110727	7	Sololá	704	Santa Lucía Utatlán 	7	Santa Rita 	8	Agosto	2023-11-08T00:00:00	2024-11-08T11:00:00	1	Precipitación	0
110728	7	Sololá	704	Santa Lucía Utatlán 	7	Santa Rita 	8	Agosto	2023-11-08T00:00:00	2024-11-08T11:00:00	8	Radiación solar	701
110729	7	Sololá	704	Santa Lucía Utatlán 	7	Santa Rita 	8	Agosto	2023-11-08T00:00:00	2024-11-08T12:00:00	2	Temperatura media	25.7
110730	7	Sololá	704	Santa Lucía Utatlán 	7	Santa Rita 	8	Agosto	2023-11-08T00:00:00	2024-11-08T12:00:00	4	Temperatura máxima	25.9
110731	7	Sololá	704	Santa Lucía Utatlán 	7	Santa Rita 	8	Agosto	2023-11-08T00:00:00	2024-11-08T12:00:00	3	Temperatura mínima	25.3
110732	7	Sololá	704	Santa Lucía Utatlán 	7	Santa Rita 	8	Agosto	2023-11-08T00:00:00	2024-11-08T12:00:00	5	Humedad	64
110733	7	Sololá	704	Santa Lucía Utatlán 	7	Santa Rita 	8	Agosto	2023-11-08T00:00:00	2024-11-08T12:00:00	6	Velocidad del viento	6.4
110734	7	Sololá	704	Santa Lucía Utatlán 	7	Santa Rita 	8	Agosto	2023-11-08T00:00:00	2024-11-08T12:00:00	7	Dirección del viento	6.44
110735	7	Sololá	704	Santa Lucía Utatlán 	7	Santa Rita 	8	Agosto	2023-11-08T00:00:00	2024-11-08T12:00:00	1	Precipitación	0
110736	7	Sololá	704	Santa Lucía Utatlán 	7	Santa Rita 	8	Agosto	2023-11-08T00:00:00	2024-11-08T12:00:00	8	Radiación solar	765
110737	7	Sololá	704	Santa Lucía Utatlán 	7	Santa Rita 	8	Agosto	2023-11-08T00:00:00	2024-11-08T13:00:00	2	Temperatura media	25.6
110738	7	Sololá	704	Santa Lucía Utatlán 	7	Santa Rita 	8	Agosto	2023-11-08T00:00:00	2024-11-08T13:00:00	4	Temperatura máxima	25.8
110739	7	Sololá	704	Santa Lucía Utatlán 	7	Santa Rita 	8	Agosto	2023-11-08T00:00:00	2024-11-08T13:00:00	3	Temperatura mínima	24.8
110740	7	Sololá	704	Santa Lucía Utatlán 	7	Santa Rita 	8	Agosto	2023-11-08T00:00:00	2024-11-08T13:00:00	5	Humedad	67
110741	7	Sololá	704	Santa Lucía Utatlán 	7	Santa Rita 	8	Agosto	2023-11-08T00:00:00	2024-11-08T13:00:00	6	Velocidad del viento	6.4
110742	7	Sololá	704	Santa Lucía Utatlán 	7	Santa Rita 	8	Agosto	2023-11-08T00:00:00	2024-11-08T13:00:00	7	Dirección del viento	6.44
110743	7	Sololá	704	Santa Lucía Utatlán 	7	Santa Rita 	8	Agosto	2023-11-08T00:00:00	2024-11-08T13:00:00	1	Precipitación	0
110744	7	Sololá	704	Santa Lucía Utatlán 	7	Santa Rita 	8	Agosto	2023-11-08T00:00:00	2024-11-08T13:00:00	8	Radiación solar	623
110745	7	Sololá	704	Santa Lucía Utatlán 	7	Santa Rita 	8	Agosto	2023-11-08T00:00:00	2024-11-08T14:00:00	2	Temperatura media	25.8
110746	7	Sololá	704	Santa Lucía Utatlán 	7	Santa Rita 	8	Agosto	2023-11-08T00:00:00	2024-11-08T14:00:00	4	Temperatura máxima	26.1
110747	7	Sololá	704	Santa Lucía Utatlán 	7	Santa Rita 	8	Agosto	2023-11-08T00:00:00	2024-11-08T14:00:00	3	Temperatura mínima	25.4
110748	7	Sololá	704	Santa Lucía Utatlán 	7	Santa Rita 	8	Agosto	2023-11-08T00:00:00	2024-11-08T14:00:00	5	Humedad	68
110749	7	Sololá	704	Santa Lucía Utatlán 	7	Santa Rita 	8	Agosto	2023-11-08T00:00:00	2024-11-08T14:00:00	6	Velocidad del viento	8
110750	7	Sololá	704	Santa Lucía Utatlán 	7	Santa Rita 	8	Agosto	2023-11-08T00:00:00	2024-11-08T14:00:00	7	Dirección del viento	8.05
110751	7	Sololá	704	Santa Lucía Utatlán 	7	Santa Rita 	8	Agosto	2023-11-08T00:00:00	2024-11-08T14:00:00	1	Precipitación	0
110752	7	Sololá	704	Santa Lucía Utatlán 	7	Santa Rita 	8	Agosto	2023-11-08T00:00:00	2024-11-08T14:00:00	8	Radiación solar	508
110753	7	Sololá	704	Santa Lucía Utatlán 	7	Santa Rita 	8	Agosto	2023-11-08T00:00:00	2024-11-08T15:00:00	2	Temperatura media	24.4
110754	7	Sololá	704	Santa Lucía Utatlán 	7	Santa Rita 	8	Agosto	2023-11-08T00:00:00	2024-11-08T15:00:00	4	Temperatura máxima	25.8
110755	7	Sololá	704	Santa Lucía Utatlán 	7	Santa Rita 	8	Agosto	2023-11-08T00:00:00	2024-11-08T15:00:00	3	Temperatura mínima	24.4
110756	7	Sololá	704	Santa Lucía Utatlán 	7	Santa Rita 	8	Agosto	2023-11-08T00:00:00	2024-11-08T15:00:00	5	Humedad	78
110757	7	Sololá	704	Santa Lucía Utatlán 	7	Santa Rita 	8	Agosto	2023-11-08T00:00:00	2024-11-08T15:00:00	6	Velocidad del viento	8
110758	7	Sololá	704	Santa Lucía Utatlán 	7	Santa Rita 	8	Agosto	2023-11-08T00:00:00	2024-11-08T15:00:00	7	Dirección del viento	8.05
110759	7	Sololá	704	Santa Lucía Utatlán 	7	Santa Rita 	8	Agosto	2023-11-08T00:00:00	2024-11-08T15:00:00	1	Precipitación	0
110760	7	Sololá	704	Santa Lucía Utatlán 	7	Santa Rita 	8	Agosto	2023-11-08T00:00:00	2024-11-08T15:00:00	8	Radiación solar	452
110761	7	Sololá	704	Santa Lucía Utatlán 	7	Santa Rita 	8	Agosto	2023-11-08T00:00:00	2024-11-08T16:00:00	2	Temperatura media	24.2
110762	7	Sololá	704	Santa Lucía Utatlán 	7	Santa Rita 	8	Agosto	2023-11-08T00:00:00	2024-11-08T16:00:00	4	Temperatura máxima	24.4
110763	7	Sololá	704	Santa Lucía Utatlán 	7	Santa Rita 	8	Agosto	2023-11-08T00:00:00	2024-11-08T16:00:00	3	Temperatura mínima	24.2
110764	7	Sololá	704	Santa Lucía Utatlán 	7	Santa Rita 	8	Agosto	2023-11-08T00:00:00	2024-11-08T16:00:00	5	Humedad	78
110765	7	Sololá	704	Santa Lucía Utatlán 	7	Santa Rita 	8	Agosto	2023-11-08T00:00:00	2024-11-08T16:00:00	6	Velocidad del viento	4.8
110766	7	Sololá	704	Santa Lucía Utatlán 	7	Santa Rita 	8	Agosto	2023-11-08T00:00:00	2024-11-08T16:00:00	7	Dirección del viento	4.83
110767	7	Sololá	704	Santa Lucía Utatlán 	7	Santa Rita 	8	Agosto	2023-11-08T00:00:00	2024-11-08T16:00:00	1	Precipitación	0
110768	7	Sololá	704	Santa Lucía Utatlán 	7	Santa Rita 	8	Agosto	2023-11-08T00:00:00	2024-11-08T16:00:00	8	Radiación solar	363
110769	7	Sololá	704	Santa Lucía Utatlán 	7	Santa Rita 	8	Agosto	2023-11-08T00:00:00	2024-11-08T17:00:00	2	Temperatura media	21.3
110770	7	Sololá	704	Santa Lucía Utatlán 	7	Santa Rita 	8	Agosto	2023-11-08T00:00:00	2024-11-08T17:00:00	4	Temperatura máxima	22.9
110771	7	Sololá	704	Santa Lucía Utatlán 	7	Santa Rita 	8	Agosto	2023-11-08T00:00:00	2024-11-08T17:00:00	3	Temperatura mínima	21.3
110772	7	Sololá	704	Santa Lucía Utatlán 	7	Santa Rita 	8	Agosto	2023-11-08T00:00:00	2024-11-08T17:00:00	5	Humedad	81
110773	7	Sololá	704	Santa Lucía Utatlán 	7	Santa Rita 	8	Agosto	2023-11-08T00:00:00	2024-11-08T17:00:00	6	Velocidad del viento	3.2
110774	7	Sololá	704	Santa Lucía Utatlán 	7	Santa Rita 	8	Agosto	2023-11-08T00:00:00	2024-11-08T17:00:00	7	Dirección del viento	3.22
110775	7	Sololá	704	Santa Lucía Utatlán 	7	Santa Rita 	8	Agosto	2023-11-08T00:00:00	2024-11-08T17:00:00	1	Precipitación	0
110776	7	Sololá	704	Santa Lucía Utatlán 	7	Santa Rita 	8	Agosto	2023-11-08T00:00:00	2024-11-08T17:00:00	8	Radiación solar	192
110777	7	Sololá	704	Santa Lucía Utatlán 	7	Santa Rita 	8	Agosto	2023-11-08T00:00:00	2024-11-08T18:00:00	2	Temperatura media	22.2
110778	7	Sololá	704	Santa Lucía Utatlán 	7	Santa Rita 	8	Agosto	2023-11-08T00:00:00	2024-11-08T18:00:00	4	Temperatura máxima	22.2
110779	7	Sololá	704	Santa Lucía Utatlán 	7	Santa Rita 	8	Agosto	2023-11-08T00:00:00	2024-11-08T18:00:00	3	Temperatura mínima	21
110780	7	Sololá	704	Santa Lucía Utatlán 	7	Santa Rita 	8	Agosto	2023-11-08T00:00:00	2024-11-08T18:00:00	5	Humedad	75
110781	7	Sololá	704	Santa Lucía Utatlán 	7	Santa Rita 	8	Agosto	2023-11-08T00:00:00	2024-11-08T18:00:00	6	Velocidad del viento	3.2
110782	7	Sololá	704	Santa Lucía Utatlán 	7	Santa Rita 	8	Agosto	2023-11-08T00:00:00	2024-11-08T18:00:00	7	Dirección del viento	3.22
110783	7	Sololá	704	Santa Lucía Utatlán 	7	Santa Rita 	8	Agosto	2023-11-08T00:00:00	2024-11-08T18:00:00	1	Precipitación	0
110784	7	Sololá	704	Santa Lucía Utatlán 	7	Santa Rita 	8	Agosto	2023-11-08T00:00:00	2024-11-08T18:00:00	8	Radiación solar	14
110785	7	Sololá	704	Santa Lucía Utatlán 	7	Santa Rita 	8	Agosto	2023-11-08T00:00:00	2024-11-08T19:00:00	2	Temperatura media	21.9
110786	7	Sololá	704	Santa Lucía Utatlán 	7	Santa Rita 	8	Agosto	2023-11-08T00:00:00	2024-11-08T19:00:00	4	Temperatura máxima	22.6
110787	7	Sololá	704	Santa Lucía Utatlán 	7	Santa Rita 	8	Agosto	2023-11-08T00:00:00	2024-11-08T19:00:00	3	Temperatura mínima	21.3
110788	7	Sololá	704	Santa Lucía Utatlán 	7	Santa Rita 	8	Agosto	2023-11-08T00:00:00	2024-11-08T19:00:00	5	Humedad	75
110789	7	Sololá	704	Santa Lucía Utatlán 	7	Santa Rita 	8	Agosto	2023-11-08T00:00:00	2024-11-08T19:00:00	6	Velocidad del viento	4.8
110790	7	Sololá	704	Santa Lucía Utatlán 	7	Santa Rita 	8	Agosto	2023-11-08T00:00:00	2024-11-08T19:00:00	7	Dirección del viento	4.83
110791	7	Sololá	704	Santa Lucía Utatlán 	7	Santa Rita 	8	Agosto	2023-11-08T00:00:00	2024-11-08T19:00:00	1	Precipitación	0
110792	7	Sololá	704	Santa Lucía Utatlán 	7	Santa Rita 	8	Agosto	2023-11-08T00:00:00	2024-11-08T19:00:00	8	Radiación solar	0
110793	7	Sololá	704	Santa Lucía Utatlán 	7	Santa Rita 	8	Agosto	2023-11-08T00:00:00	2024-11-08T20:00:00	2	Temperatura media	20.3
110794	7	Sololá	704	Santa Lucía Utatlán 	7	Santa Rita 	8	Agosto	2023-11-08T00:00:00	2024-11-08T20:00:00	4	Temperatura máxima	22.3
110795	7	Sololá	704	Santa Lucía Utatlán 	7	Santa Rita 	8	Agosto	2023-11-08T00:00:00	2024-11-08T20:00:00	3	Temperatura mínima	19.8
110796	7	Sololá	704	Santa Lucía Utatlán 	7	Santa Rita 	8	Agosto	2023-11-08T00:00:00	2024-11-08T20:00:00	5	Humedad	80
110797	7	Sololá	704	Santa Lucía Utatlán 	7	Santa Rita 	8	Agosto	2023-11-08T00:00:00	2024-11-08T20:00:00	6	Velocidad del viento	4.8
110798	7	Sololá	704	Santa Lucía Utatlán 	7	Santa Rita 	8	Agosto	2023-11-08T00:00:00	2024-11-08T20:00:00	7	Dirección del viento	4.83
110799	7	Sololá	704	Santa Lucía Utatlán 	7	Santa Rita 	8	Agosto	2023-11-08T00:00:00	2024-11-08T20:00:00	1	Precipitación	0
110800	7	Sololá	704	Santa Lucía Utatlán 	7	Santa Rita 	8	Agosto	2023-11-08T00:00:00	2024-11-08T20:00:00	8	Radiación solar	0
110801	7	Sololá	704	Santa Lucía Utatlán 	7	Santa Rita 	8	Agosto	2023-11-08T00:00:00	2024-11-08T21:00:00	2	Temperatura media	20
110802	7	Sololá	704	Santa Lucía Utatlán 	7	Santa Rita 	8	Agosto	2023-11-08T00:00:00	2024-11-08T21:00:00	4	Temperatura máxima	20.9
110803	7	Sololá	704	Santa Lucía Utatlán 	7	Santa Rita 	8	Agosto	2023-11-08T00:00:00	2024-11-08T21:00:00	3	Temperatura mínima	19.9
110804	7	Sololá	704	Santa Lucía Utatlán 	7	Santa Rita 	8	Agosto	2023-11-08T00:00:00	2024-11-08T21:00:00	5	Humedad	82
110805	7	Sololá	704	Santa Lucía Utatlán 	7	Santa Rita 	8	Agosto	2023-11-08T00:00:00	2024-11-08T21:00:00	6	Velocidad del viento	3.2
110806	7	Sololá	704	Santa Lucía Utatlán 	7	Santa Rita 	8	Agosto	2023-11-08T00:00:00	2024-11-08T21:00:00	7	Dirección del viento	3.22
110807	7	Sololá	704	Santa Lucía Utatlán 	7	Santa Rita 	8	Agosto	2023-11-08T00:00:00	2024-11-08T21:00:00	1	Precipitación	0
110808	7	Sololá	704	Santa Lucía Utatlán 	7	Santa Rita 	8	Agosto	2023-11-08T00:00:00	2024-11-08T21:00:00	8	Radiación solar	0
110809	7	Sololá	704	Santa Lucía Utatlán 	7	Santa Rita 	8	Agosto	2023-11-08T00:00:00	2024-11-08T22:00:00	2	Temperatura media	21.6
110810	7	Sololá	704	Santa Lucía Utatlán 	7	Santa Rita 	8	Agosto	2023-11-08T00:00:00	2024-11-08T22:00:00	4	Temperatura máxima	22
110811	7	Sololá	704	Santa Lucía Utatlán 	7	Santa Rita 	8	Agosto	2023-11-08T00:00:00	2024-11-08T22:00:00	3	Temperatura mínima	21.6
110812	7	Sololá	704	Santa Lucía Utatlán 	7	Santa Rita 	8	Agosto	2023-11-08T00:00:00	2024-11-08T22:00:00	5	Humedad	72
110813	7	Sololá	704	Santa Lucía Utatlán 	7	Santa Rita 	8	Agosto	2023-11-08T00:00:00	2024-11-08T22:00:00	6	Velocidad del viento	9.7
110814	7	Sololá	704	Santa Lucía Utatlán 	7	Santa Rita 	8	Agosto	2023-11-08T00:00:00	2024-11-08T22:00:00	7	Dirección del viento	9.66
110815	7	Sololá	704	Santa Lucía Utatlán 	7	Santa Rita 	8	Agosto	2023-11-08T00:00:00	2024-11-08T22:00:00	1	Precipitación	0
110816	7	Sololá	704	Santa Lucía Utatlán 	7	Santa Rita 	8	Agosto	2023-11-08T00:00:00	2024-11-08T22:00:00	8	Radiación solar	0
110817	7	Sololá	704	Santa Lucía Utatlán 	7	Santa Rita 	8	Agosto	2023-11-08T00:00:00	2024-11-08T23:00:00	2	Temperatura media	20.3
110818	7	Sololá	704	Santa Lucía Utatlán 	7	Santa Rita 	8	Agosto	2023-11-08T00:00:00	2024-11-08T23:00:00	4	Temperatura máxima	21.6
110819	7	Sololá	704	Santa Lucía Utatlán 	7	Santa Rita 	8	Agosto	2023-11-08T00:00:00	2024-11-08T23:00:00	3	Temperatura mínima	20.3
110820	7	Sololá	704	Santa Lucía Utatlán 	7	Santa Rita 	8	Agosto	2023-11-08T00:00:00	2024-11-08T23:00:00	5	Humedad	76
110821	7	Sololá	704	Santa Lucía Utatlán 	7	Santa Rita 	8	Agosto	2023-11-08T00:00:00	2024-11-08T23:00:00	6	Velocidad del viento	6.4
110822	7	Sololá	704	Santa Lucía Utatlán 	7	Santa Rita 	8	Agosto	2023-11-08T00:00:00	2024-11-08T23:00:00	7	Dirección del viento	6.44
110823	7	Sololá	704	Santa Lucía Utatlán 	7	Santa Rita 	8	Agosto	2023-11-08T00:00:00	2024-11-08T23:00:00	1	Precipitación	0
110824	7	Sololá	704	Santa Lucía Utatlán 	7	Santa Rita 	8	Agosto	2023-11-08T00:00:00	2024-11-08T23:00:00	8	Radiación solar	0
110825	7	Sololá	704	Santa Lucía Utatlán 	7	Santa Rita 	8	Agosto	2023-12-08T00:00:00	2024-11-08T00:00:00	2	Temperatura media	17.9
110826	7	Sololá	704	Santa Lucía Utatlán 	7	Santa Rita 	8	Agosto	2023-12-08T00:00:00	2024-11-08T00:00:00	4	Temperatura máxima	20.4
110827	7	Sololá	704	Santa Lucía Utatlán 	7	Santa Rita 	8	Agosto	2023-12-08T00:00:00	2024-11-08T00:00:00	3	Temperatura mínima	17.9
110828	7	Sololá	704	Santa Lucía Utatlán 	7	Santa Rita 	8	Agosto	2023-12-08T00:00:00	2024-11-08T00:00:00	5	Humedad	83
110829	7	Sololá	704	Santa Lucía Utatlán 	7	Santa Rita 	8	Agosto	2023-12-08T00:00:00	2024-11-08T00:00:00	6	Velocidad del viento	3.2
110830	7	Sololá	704	Santa Lucía Utatlán 	7	Santa Rita 	8	Agosto	2023-12-08T00:00:00	2024-11-08T00:00:00	7	Dirección del viento	3.22
110831	7	Sololá	704	Santa Lucía Utatlán 	7	Santa Rita 	8	Agosto	2023-12-08T00:00:00	2024-11-08T00:00:00	1	Precipitación	0
110832	7	Sololá	704	Santa Lucía Utatlán 	7	Santa Rita 	8	Agosto	2023-12-08T00:00:00	2024-11-08T00:00:00	8	Radiación solar	0
110833	7	Sololá	704	Santa Lucía Utatlán 	7	Santa Rita 	8	Agosto	2023-12-08T00:00:00	2024-11-08T01:00:00	2	Temperatura media	17.6
110834	7	Sololá	704	Santa Lucía Utatlán 	7	Santa Rita 	8	Agosto	2023-12-08T00:00:00	2024-11-08T01:00:00	4	Temperatura máxima	17.9
110835	7	Sololá	704	Santa Lucía Utatlán 	7	Santa Rita 	8	Agosto	2023-12-08T00:00:00	2024-11-08T01:00:00	3	Temperatura mínima	17.2
110836	7	Sololá	704	Santa Lucía Utatlán 	7	Santa Rita 	8	Agosto	2023-12-08T00:00:00	2024-11-08T01:00:00	5	Humedad	85
110837	7	Sololá	704	Santa Lucía Utatlán 	7	Santa Rita 	8	Agosto	2023-12-08T00:00:00	2024-11-08T01:00:00	6	Velocidad del viento	3.2
110838	7	Sololá	704	Santa Lucía Utatlán 	7	Santa Rita 	8	Agosto	2023-12-08T00:00:00	2024-11-08T01:00:00	7	Dirección del viento	3.22
110839	7	Sololá	704	Santa Lucía Utatlán 	7	Santa Rita 	8	Agosto	2023-12-08T00:00:00	2024-11-08T01:00:00	1	Precipitación	0
110840	7	Sololá	704	Santa Lucía Utatlán 	7	Santa Rita 	8	Agosto	2023-12-08T00:00:00	2024-11-08T01:00:00	8	Radiación solar	0
110841	7	Sololá	704	Santa Lucía Utatlán 	7	Santa Rita 	8	Agosto	2023-12-08T00:00:00	2024-11-08T02:00:00	2	Temperatura media	17.7
110842	7	Sololá	704	Santa Lucía Utatlán 	7	Santa Rita 	8	Agosto	2023-12-08T00:00:00	2024-11-08T02:00:00	4	Temperatura máxima	17.8
110843	7	Sololá	704	Santa Lucía Utatlán 	7	Santa Rita 	8	Agosto	2023-12-08T00:00:00	2024-11-08T02:00:00	3	Temperatura mínima	17.5
110844	7	Sololá	704	Santa Lucía Utatlán 	7	Santa Rita 	8	Agosto	2023-12-08T00:00:00	2024-11-08T02:00:00	5	Humedad	88
110845	7	Sololá	704	Santa Lucía Utatlán 	7	Santa Rita 	8	Agosto	2023-12-08T00:00:00	2024-11-08T02:00:00	6	Velocidad del viento	3.2
110846	7	Sololá	704	Santa Lucía Utatlán 	7	Santa Rita 	8	Agosto	2023-12-08T00:00:00	2024-11-08T02:00:00	7	Dirección del viento	3.22
110847	7	Sololá	704	Santa Lucía Utatlán 	7	Santa Rita 	8	Agosto	2023-12-08T00:00:00	2024-11-08T02:00:00	1	Precipitación	0
110848	7	Sololá	704	Santa Lucía Utatlán 	7	Santa Rita 	8	Agosto	2023-12-08T00:00:00	2024-11-08T02:00:00	8	Radiación solar	0
110849	7	Sololá	704	Santa Lucía Utatlán 	7	Santa Rita 	8	Agosto	2023-12-08T00:00:00	2024-11-08T03:00:00	2	Temperatura media	17.6
110850	7	Sololá	704	Santa Lucía Utatlán 	7	Santa Rita 	8	Agosto	2023-12-08T00:00:00	2024-11-08T03:00:00	4	Temperatura máxima	18.2
110851	7	Sololá	704	Santa Lucía Utatlán 	7	Santa Rita 	8	Agosto	2023-12-08T00:00:00	2024-11-08T03:00:00	3	Temperatura mínima	17.6
110852	7	Sololá	704	Santa Lucía Utatlán 	7	Santa Rita 	8	Agosto	2023-12-08T00:00:00	2024-11-08T03:00:00	5	Humedad	89
110853	7	Sololá	704	Santa Lucía Utatlán 	7	Santa Rita 	8	Agosto	2023-12-08T00:00:00	2024-11-08T03:00:00	6	Velocidad del viento	3.2
110854	7	Sololá	704	Santa Lucía Utatlán 	7	Santa Rita 	8	Agosto	2023-12-08T00:00:00	2024-11-08T03:00:00	7	Dirección del viento	3.22
110855	7	Sololá	704	Santa Lucía Utatlán 	7	Santa Rita 	8	Agosto	2023-12-08T00:00:00	2024-11-08T03:00:00	1	Precipitación	0
110856	7	Sololá	704	Santa Lucía Utatlán 	7	Santa Rita 	8	Agosto	2023-12-08T00:00:00	2024-11-08T03:00:00	8	Radiación solar	0
110857	7	Sololá	704	Santa Lucía Utatlán 	7	Santa Rita 	8	Agosto	2023-12-08T00:00:00	2024-11-08T04:00:00	2	Temperatura media	18.4
110858	7	Sololá	704	Santa Lucía Utatlán 	7	Santa Rita 	8	Agosto	2023-12-08T00:00:00	2024-11-08T04:00:00	4	Temperatura máxima	19.7
110859	7	Sololá	704	Santa Lucía Utatlán 	7	Santa Rita 	8	Agosto	2023-12-08T00:00:00	2024-11-08T04:00:00	3	Temperatura mínima	17.6
110860	7	Sololá	704	Santa Lucía Utatlán 	7	Santa Rita 	8	Agosto	2023-12-08T00:00:00	2024-11-08T04:00:00	5	Humedad	84
110861	7	Sololá	704	Santa Lucía Utatlán 	7	Santa Rita 	8	Agosto	2023-12-08T00:00:00	2024-11-08T04:00:00	6	Velocidad del viento	3.2
110862	7	Sololá	704	Santa Lucía Utatlán 	7	Santa Rita 	8	Agosto	2023-12-08T00:00:00	2024-11-08T04:00:00	7	Dirección del viento	3.22
110863	7	Sololá	704	Santa Lucía Utatlán 	7	Santa Rita 	8	Agosto	2023-12-08T00:00:00	2024-11-08T04:00:00	1	Precipitación	0
110864	7	Sololá	704	Santa Lucía Utatlán 	7	Santa Rita 	8	Agosto	2023-12-08T00:00:00	2024-11-08T04:00:00	8	Radiación solar	0
110865	7	Sololá	704	Santa Lucía Utatlán 	7	Santa Rita 	8	Agosto	2023-12-08T00:00:00	2024-11-08T05:00:00	2	Temperatura media	19.8
110866	7	Sololá	704	Santa Lucía Utatlán 	7	Santa Rita 	8	Agosto	2023-12-08T00:00:00	2024-11-08T05:00:00	4	Temperatura máxima	19.8
110867	7	Sololá	704	Santa Lucía Utatlán 	7	Santa Rita 	8	Agosto	2023-12-08T00:00:00	2024-11-08T05:00:00	3	Temperatura mínima	18.4
110868	7	Sololá	704	Santa Lucía Utatlán 	7	Santa Rita 	8	Agosto	2023-12-08T00:00:00	2024-11-08T05:00:00	5	Humedad	85
110869	7	Sololá	704	Santa Lucía Utatlán 	7	Santa Rita 	8	Agosto	2023-12-08T00:00:00	2024-11-08T05:00:00	6	Velocidad del viento	0
110870	7	Sololá	704	Santa Lucía Utatlán 	7	Santa Rita 	8	Agosto	2023-12-08T00:00:00	2024-11-08T05:00:00	7	Dirección del viento	0
110871	7	Sololá	704	Santa Lucía Utatlán 	7	Santa Rita 	8	Agosto	2023-12-08T00:00:00	2024-11-08T05:00:00	1	Precipitación	0
110872	7	Sololá	704	Santa Lucía Utatlán 	7	Santa Rita 	8	Agosto	2023-12-08T00:00:00	2024-11-08T05:00:00	8	Radiación solar	0
110873	7	Sololá	704	Santa Lucía Utatlán 	7	Santa Rita 	8	Agosto	2023-12-08T00:00:00	2024-11-08T06:00:00	2	Temperatura media	23.9
110874	7	Sololá	704	Santa Lucía Utatlán 	7	Santa Rita 	8	Agosto	2023-12-08T00:00:00	2024-11-08T06:00:00	4	Temperatura máxima	23.9
110875	7	Sololá	704	Santa Lucía Utatlán 	7	Santa Rita 	8	Agosto	2023-12-08T00:00:00	2024-11-08T06:00:00	3	Temperatura mínima	19.8
110876	7	Sololá	704	Santa Lucía Utatlán 	7	Santa Rita 	8	Agosto	2023-12-08T00:00:00	2024-11-08T06:00:00	5	Humedad	67
110877	7	Sololá	704	Santa Lucía Utatlán 	7	Santa Rita 	8	Agosto	2023-12-08T00:00:00	2024-11-08T06:00:00	6	Velocidad del viento	1.6
110878	7	Sololá	704	Santa Lucía Utatlán 	7	Santa Rita 	8	Agosto	2023-12-08T00:00:00	2024-11-08T06:00:00	7	Dirección del viento	1.61
110879	7	Sololá	704	Santa Lucía Utatlán 	7	Santa Rita 	8	Agosto	2023-12-08T00:00:00	2024-11-08T06:00:00	1	Precipitación	0
110880	7	Sololá	704	Santa Lucía Utatlán 	7	Santa Rita 	8	Agosto	2023-12-08T00:00:00	2024-11-08T06:00:00	8	Radiación solar	0
110881	7	Sololá	704	Santa Lucía Utatlán 	7	Santa Rita 	8	Agosto	2023-12-08T00:00:00	2024-11-08T07:00:00	2	Temperatura media	25.7
110882	7	Sololá	704	Santa Lucía Utatlán 	7	Santa Rita 	8	Agosto	2023-12-08T00:00:00	2024-11-08T07:00:00	4	Temperatura máxima	25.7
110883	7	Sololá	704	Santa Lucía Utatlán 	7	Santa Rita 	8	Agosto	2023-12-08T00:00:00	2024-11-08T07:00:00	3	Temperatura mínima	23.9
110884	7	Sololá	704	Santa Lucía Utatlán 	7	Santa Rita 	8	Agosto	2023-12-08T00:00:00	2024-11-08T07:00:00	5	Humedad	57
110885	7	Sololá	704	Santa Lucía Utatlán 	7	Santa Rita 	8	Agosto	2023-12-08T00:00:00	2024-11-08T07:00:00	6	Velocidad del viento	4.8
110886	7	Sololá	704	Santa Lucía Utatlán 	7	Santa Rita 	8	Agosto	2023-12-08T00:00:00	2024-11-08T07:00:00	7	Dirección del viento	4.83
110887	7	Sololá	704	Santa Lucía Utatlán 	7	Santa Rita 	8	Agosto	2023-12-08T00:00:00	2024-11-08T07:00:00	1	Precipitación	0
110888	7	Sololá	704	Santa Lucía Utatlán 	7	Santa Rita 	8	Agosto	2023-12-08T00:00:00	2024-11-08T07:00:00	8	Radiación solar	38
110889	7	Sololá	704	Santa Lucía Utatlán 	7	Santa Rita 	8	Agosto	2023-12-08T00:00:00	2024-11-08T08:00:00	2	Temperatura media	27.3
110890	7	Sololá	704	Santa Lucía Utatlán 	7	Santa Rita 	8	Agosto	2023-12-08T00:00:00	2024-11-08T08:00:00	4	Temperatura máxima	27.3
110891	7	Sololá	704	Santa Lucía Utatlán 	7	Santa Rita 	8	Agosto	2023-12-08T00:00:00	2024-11-08T08:00:00	3	Temperatura mínima	25.7
110892	7	Sololá	704	Santa Lucía Utatlán 	7	Santa Rita 	8	Agosto	2023-12-08T00:00:00	2024-11-08T08:00:00	5	Humedad	50
110893	7	Sololá	704	Santa Lucía Utatlán 	7	Santa Rita 	8	Agosto	2023-12-08T00:00:00	2024-11-08T08:00:00	6	Velocidad del viento	4.8
110894	7	Sololá	704	Santa Lucía Utatlán 	7	Santa Rita 	8	Agosto	2023-12-08T00:00:00	2024-11-08T08:00:00	7	Dirección del viento	4.83
110895	7	Sololá	704	Santa Lucía Utatlán 	7	Santa Rita 	8	Agosto	2023-12-08T00:00:00	2024-11-08T08:00:00	1	Precipitación	0
110896	7	Sololá	704	Santa Lucía Utatlán 	7	Santa Rita 	8	Agosto	2023-12-08T00:00:00	2024-11-08T08:00:00	8	Radiación solar	143
110897	7	Sololá	704	Santa Lucía Utatlán 	7	Santa Rita 	8	Agosto	2023-12-08T00:00:00	2024-11-08T09:00:00	2	Temperatura media	26.6
110898	7	Sololá	704	Santa Lucía Utatlán 	7	Santa Rita 	8	Agosto	2023-12-08T00:00:00	2024-11-08T09:00:00	4	Temperatura máxima	29.4
110899	7	Sololá	704	Santa Lucía Utatlán 	7	Santa Rita 	8	Agosto	2023-12-08T00:00:00	2024-11-08T09:00:00	3	Temperatura mínima	26.6
110900	7	Sololá	704	Santa Lucía Utatlán 	7	Santa Rita 	8	Agosto	2023-12-08T00:00:00	2024-11-08T09:00:00	5	Humedad	61
110901	7	Sololá	704	Santa Lucía Utatlán 	7	Santa Rita 	8	Agosto	2023-12-08T00:00:00	2024-11-08T09:00:00	6	Velocidad del viento	9.7
110902	7	Sololá	704	Santa Lucía Utatlán 	7	Santa Rita 	8	Agosto	2023-12-08T00:00:00	2024-11-08T09:00:00	7	Dirección del viento	9.66
110903	7	Sololá	704	Santa Lucía Utatlán 	7	Santa Rita 	8	Agosto	2023-12-08T00:00:00	2024-11-08T09:00:00	1	Precipitación	0
110904	7	Sololá	704	Santa Lucía Utatlán 	7	Santa Rita 	8	Agosto	2023-12-08T00:00:00	2024-11-08T09:00:00	8	Radiación solar	423
110905	7	Sololá	704	Santa Lucía Utatlán 	7	Santa Rita 	8	Agosto	2023-12-08T00:00:00	2024-11-08T10:00:00	2	Temperatura media	25.4
110906	7	Sololá	704	Santa Lucía Utatlán 	7	Santa Rita 	8	Agosto	2023-12-08T00:00:00	2024-11-08T10:00:00	4	Temperatura máxima	26.9
110907	7	Sololá	704	Santa Lucía Utatlán 	7	Santa Rita 	8	Agosto	2023-12-08T00:00:00	2024-11-08T10:00:00	3	Temperatura mínima	25.4
110908	7	Sololá	704	Santa Lucía Utatlán 	7	Santa Rita 	8	Agosto	2023-12-08T00:00:00	2024-11-08T10:00:00	5	Humedad	70
110909	7	Sololá	704	Santa Lucía Utatlán 	7	Santa Rita 	8	Agosto	2023-12-08T00:00:00	2024-11-08T10:00:00	6	Velocidad del viento	11.3
110910	7	Sololá	704	Santa Lucía Utatlán 	7	Santa Rita 	8	Agosto	2023-12-08T00:00:00	2024-11-08T10:00:00	7	Dirección del viento	11.27
110911	7	Sololá	704	Santa Lucía Utatlán 	7	Santa Rita 	8	Agosto	2023-12-08T00:00:00	2024-11-08T10:00:00	1	Precipitación	0
110912	7	Sololá	704	Santa Lucía Utatlán 	7	Santa Rita 	8	Agosto	2023-12-08T00:00:00	2024-11-08T10:00:00	8	Radiación solar	728
110913	7	Sololá	704	Santa Lucía Utatlán 	7	Santa Rita 	8	Agosto	2023-12-08T00:00:00	2024-11-08T11:00:00	2	Temperatura media	26.5
110914	7	Sololá	704	Santa Lucía Utatlán 	7	Santa Rita 	8	Agosto	2023-12-08T00:00:00	2024-11-08T11:00:00	4	Temperatura máxima	26.7
110915	7	Sololá	704	Santa Lucía Utatlán 	7	Santa Rita 	8	Agosto	2023-12-08T00:00:00	2024-11-08T11:00:00	3	Temperatura mínima	25.4
110916	7	Sololá	704	Santa Lucía Utatlán 	7	Santa Rita 	8	Agosto	2023-12-08T00:00:00	2024-11-08T11:00:00	5	Humedad	56
110917	7	Sololá	704	Santa Lucía Utatlán 	7	Santa Rita 	8	Agosto	2023-12-08T00:00:00	2024-11-08T11:00:00	6	Velocidad del viento	12.9
110918	7	Sololá	704	Santa Lucía Utatlán 	7	Santa Rita 	8	Agosto	2023-12-08T00:00:00	2024-11-08T11:00:00	7	Dirección del viento	12.87
110919	7	Sololá	704	Santa Lucía Utatlán 	7	Santa Rita 	8	Agosto	2023-12-08T00:00:00	2024-11-08T11:00:00	1	Precipitación	0
110920	7	Sololá	704	Santa Lucía Utatlán 	7	Santa Rita 	8	Agosto	2023-12-08T00:00:00	2024-11-08T11:00:00	8	Radiación solar	736
110921	7	Sololá	704	Santa Lucía Utatlán 	7	Santa Rita 	8	Agosto	2023-12-08T00:00:00	2024-11-08T12:00:00	2	Temperatura media	25
110922	7	Sololá	704	Santa Lucía Utatlán 	7	Santa Rita 	8	Agosto	2023-12-08T00:00:00	2024-11-08T12:00:00	4	Temperatura máxima	26.5
110923	7	Sololá	704	Santa Lucía Utatlán 	7	Santa Rita 	8	Agosto	2023-12-08T00:00:00	2024-11-08T12:00:00	3	Temperatura mínima	25
110924	7	Sololá	704	Santa Lucía Utatlán 	7	Santa Rita 	8	Agosto	2023-12-08T00:00:00	2024-11-08T12:00:00	5	Humedad	66
110925	7	Sololá	704	Santa Lucía Utatlán 	7	Santa Rita 	8	Agosto	2023-12-08T00:00:00	2024-11-08T12:00:00	6	Velocidad del viento	12.9
110926	7	Sololá	704	Santa Lucía Utatlán 	7	Santa Rita 	8	Agosto	2023-12-08T00:00:00	2024-11-08T12:00:00	7	Dirección del viento	12.87
110927	7	Sololá	704	Santa Lucía Utatlán 	7	Santa Rita 	8	Agosto	2023-12-08T00:00:00	2024-11-08T12:00:00	1	Precipitación	0
110928	7	Sololá	704	Santa Lucía Utatlán 	7	Santa Rita 	8	Agosto	2023-12-08T00:00:00	2024-11-08T12:00:00	8	Radiación solar	1094
110929	7	Sololá	704	Santa Lucía Utatlán 	7	Santa Rita 	8	Agosto	2023-12-08T00:00:00	2024-11-08T13:00:00	2	Temperatura media	24.8
110930	7	Sololá	704	Santa Lucía Utatlán 	7	Santa Rita 	8	Agosto	2023-12-08T00:00:00	2024-11-08T13:00:00	4	Temperatura máxima	26.3
110931	7	Sololá	704	Santa Lucía Utatlán 	7	Santa Rita 	8	Agosto	2023-12-08T00:00:00	2024-11-08T13:00:00	3	Temperatura mínima	24.8
110932	7	Sololá	704	Santa Lucía Utatlán 	7	Santa Rita 	8	Agosto	2023-12-08T00:00:00	2024-11-08T13:00:00	5	Humedad	62
110933	7	Sololá	704	Santa Lucía Utatlán 	7	Santa Rita 	8	Agosto	2023-12-08T00:00:00	2024-11-08T13:00:00	6	Velocidad del viento	11.3
110934	7	Sololá	704	Santa Lucía Utatlán 	7	Santa Rita 	8	Agosto	2023-12-08T00:00:00	2024-11-08T13:00:00	7	Dirección del viento	11.27
110935	7	Sololá	704	Santa Lucía Utatlán 	7	Santa Rita 	8	Agosto	2023-12-08T00:00:00	2024-11-08T13:00:00	1	Precipitación	0
110936	7	Sololá	704	Santa Lucía Utatlán 	7	Santa Rita 	8	Agosto	2023-12-08T00:00:00	2024-11-08T13:00:00	8	Radiación solar	925
110937	7	Sololá	704	Santa Lucía Utatlán 	7	Santa Rita 	8	Agosto	2023-12-08T00:00:00	2024-11-08T14:00:00	2	Temperatura media	26.1
110938	7	Sololá	704	Santa Lucía Utatlán 	7	Santa Rita 	8	Agosto	2023-12-08T00:00:00	2024-11-08T14:00:00	4	Temperatura máxima	26.3
110939	7	Sololá	704	Santa Lucía Utatlán 	7	Santa Rita 	8	Agosto	2023-12-08T00:00:00	2024-11-08T14:00:00	3	Temperatura mínima	24.8
110940	7	Sololá	704	Santa Lucía Utatlán 	7	Santa Rita 	8	Agosto	2023-12-08T00:00:00	2024-11-08T14:00:00	5	Humedad	59
110941	7	Sololá	704	Santa Lucía Utatlán 	7	Santa Rita 	8	Agosto	2023-12-08T00:00:00	2024-11-08T14:00:00	6	Velocidad del viento	8
110942	7	Sololá	704	Santa Lucía Utatlán 	7	Santa Rita 	8	Agosto	2023-12-08T00:00:00	2024-11-08T14:00:00	7	Dirección del viento	8.05
110943	7	Sololá	704	Santa Lucía Utatlán 	7	Santa Rita 	8	Agosto	2023-12-08T00:00:00	2024-11-08T14:00:00	1	Precipitación	0
110944	7	Sololá	704	Santa Lucía Utatlán 	7	Santa Rita 	8	Agosto	2023-12-08T00:00:00	2024-11-08T14:00:00	8	Radiación solar	481
110945	7	Sololá	704	Santa Lucía Utatlán 	7	Santa Rita 	8	Agosto	2023-12-08T00:00:00	2024-11-08T15:00:00	2	Temperatura media	24.1
110946	7	Sololá	704	Santa Lucía Utatlán 	7	Santa Rita 	8	Agosto	2023-12-08T00:00:00	2024-11-08T15:00:00	4	Temperatura máxima	26.3
110947	7	Sololá	704	Santa Lucía Utatlán 	7	Santa Rita 	8	Agosto	2023-12-08T00:00:00	2024-11-08T15:00:00	3	Temperatura mínima	24.1
110948	7	Sololá	704	Santa Lucía Utatlán 	7	Santa Rita 	8	Agosto	2023-12-08T00:00:00	2024-11-08T15:00:00	5	Humedad	71
110949	7	Sololá	704	Santa Lucía Utatlán 	7	Santa Rita 	8	Agosto	2023-12-08T00:00:00	2024-11-08T15:00:00	6	Velocidad del viento	9.7
110950	7	Sololá	704	Santa Lucía Utatlán 	7	Santa Rita 	8	Agosto	2023-12-08T00:00:00	2024-11-08T15:00:00	7	Dirección del viento	9.66
110951	7	Sololá	704	Santa Lucía Utatlán 	7	Santa Rita 	8	Agosto	2023-12-08T00:00:00	2024-11-08T15:00:00	1	Precipitación	0
110952	7	Sololá	704	Santa Lucía Utatlán 	7	Santa Rita 	8	Agosto	2023-12-08T00:00:00	2024-11-08T15:00:00	8	Radiación solar	362
110953	7	Sololá	704	Santa Lucía Utatlán 	7	Santa Rita 	8	Agosto	2023-12-08T00:00:00	2024-11-08T16:00:00	2	Temperatura media	22.3
110954	7	Sololá	704	Santa Lucía Utatlán 	7	Santa Rita 	8	Agosto	2023-12-08T00:00:00	2024-11-08T16:00:00	4	Temperatura máxima	24.1
110955	7	Sololá	704	Santa Lucía Utatlán 	7	Santa Rita 	8	Agosto	2023-12-08T00:00:00	2024-11-08T16:00:00	3	Temperatura mínima	22.3
110956	7	Sololá	704	Santa Lucía Utatlán 	7	Santa Rita 	8	Agosto	2023-12-08T00:00:00	2024-11-08T16:00:00	5	Humedad	81
110957	7	Sololá	704	Santa Lucía Utatlán 	7	Santa Rita 	8	Agosto	2023-12-08T00:00:00	2024-11-08T16:00:00	6	Velocidad del viento	6.4
110958	7	Sololá	704	Santa Lucía Utatlán 	7	Santa Rita 	8	Agosto	2023-12-08T00:00:00	2024-11-08T16:00:00	7	Dirección del viento	6.44
110959	7	Sololá	704	Santa Lucía Utatlán 	7	Santa Rita 	8	Agosto	2023-12-08T00:00:00	2024-11-08T16:00:00	1	Precipitación	0
110960	7	Sololá	704	Santa Lucía Utatlán 	7	Santa Rita 	8	Agosto	2023-12-08T00:00:00	2024-11-08T16:00:00	8	Radiación solar	397
110961	7	Sololá	704	Santa Lucía Utatlán 	7	Santa Rita 	8	Agosto	2023-12-08T00:00:00	2024-11-08T17:00:00	2	Temperatura media	22.2
110962	7	Sololá	704	Santa Lucía Utatlán 	7	Santa Rita 	8	Agosto	2023-12-08T00:00:00	2024-11-08T17:00:00	4	Temperatura máxima	22.4
110963	7	Sololá	704	Santa Lucía Utatlán 	7	Santa Rita 	8	Agosto	2023-12-08T00:00:00	2024-11-08T17:00:00	3	Temperatura mínima	22.2
110964	7	Sololá	704	Santa Lucía Utatlán 	7	Santa Rita 	8	Agosto	2023-12-08T00:00:00	2024-11-08T17:00:00	5	Humedad	80
110965	7	Sololá	704	Santa Lucía Utatlán 	7	Santa Rita 	8	Agosto	2023-12-08T00:00:00	2024-11-08T17:00:00	6	Velocidad del viento	4.8
110966	7	Sololá	704	Santa Lucía Utatlán 	7	Santa Rita 	8	Agosto	2023-12-08T00:00:00	2024-11-08T17:00:00	7	Dirección del viento	4.83
110967	7	Sololá	704	Santa Lucía Utatlán 	7	Santa Rita 	8	Agosto	2023-12-08T00:00:00	2024-11-08T17:00:00	1	Precipitación	0
110968	7	Sololá	704	Santa Lucía Utatlán 	7	Santa Rita 	8	Agosto	2023-12-08T00:00:00	2024-11-08T17:00:00	8	Radiación solar	474
110969	7	Sololá	704	Santa Lucía Utatlán 	7	Santa Rita 	8	Agosto	2023-12-08T00:00:00	2024-11-08T18:00:00	2	Temperatura media	20.7
110970	7	Sololá	704	Santa Lucía Utatlán 	7	Santa Rita 	8	Agosto	2023-12-08T00:00:00	2024-11-08T18:00:00	4	Temperatura máxima	22.2
110971	7	Sololá	704	Santa Lucía Utatlán 	7	Santa Rita 	8	Agosto	2023-12-08T00:00:00	2024-11-08T18:00:00	3	Temperatura mínima	20.7
110972	7	Sololá	704	Santa Lucía Utatlán 	7	Santa Rita 	8	Agosto	2023-12-08T00:00:00	2024-11-08T18:00:00	5	Humedad	85
110973	7	Sololá	704	Santa Lucía Utatlán 	7	Santa Rita 	8	Agosto	2023-12-08T00:00:00	2024-11-08T18:00:00	6	Velocidad del viento	6.4
110974	7	Sololá	704	Santa Lucía Utatlán 	7	Santa Rita 	8	Agosto	2023-12-08T00:00:00	2024-11-08T18:00:00	7	Dirección del viento	6.44
110975	7	Sololá	704	Santa Lucía Utatlán 	7	Santa Rita 	8	Agosto	2023-12-08T00:00:00	2024-11-08T18:00:00	1	Precipitación	2
110976	7	Sololá	704	Santa Lucía Utatlán 	7	Santa Rita 	8	Agosto	2023-12-08T00:00:00	2024-11-08T18:00:00	8	Radiación solar	156
110977	7	Sololá	704	Santa Lucía Utatlán 	7	Santa Rita 	8	Agosto	2023-12-08T00:00:00	2024-11-08T19:00:00	2	Temperatura media	19.4
110978	7	Sololá	704	Santa Lucía Utatlán 	7	Santa Rita 	8	Agosto	2023-12-08T00:00:00	2024-11-08T19:00:00	4	Temperatura máxima	20.7
110979	7	Sololá	704	Santa Lucía Utatlán 	7	Santa Rita 	8	Agosto	2023-12-08T00:00:00	2024-11-08T19:00:00	3	Temperatura mínima	19.4
110980	7	Sololá	704	Santa Lucía Utatlán 	7	Santa Rita 	8	Agosto	2023-12-08T00:00:00	2024-11-08T19:00:00	5	Humedad	90
110981	7	Sololá	704	Santa Lucía Utatlán 	7	Santa Rita 	8	Agosto	2023-12-08T00:00:00	2024-11-08T19:00:00	6	Velocidad del viento	3.2
110982	7	Sololá	704	Santa Lucía Utatlán 	7	Santa Rita 	8	Agosto	2023-12-08T00:00:00	2024-11-08T19:00:00	7	Dirección del viento	3.22
110983	7	Sololá	704	Santa Lucía Utatlán 	7	Santa Rita 	8	Agosto	2023-12-08T00:00:00	2024-11-08T19:00:00	1	Precipitación	0
110984	7	Sololá	704	Santa Lucía Utatlán 	7	Santa Rita 	8	Agosto	2023-12-08T00:00:00	2024-11-08T19:00:00	8	Radiación solar	0
110985	7	Sololá	704	Santa Lucía Utatlán 	7	Santa Rita 	8	Agosto	2023-12-08T00:00:00	2024-11-08T20:00:00	2	Temperatura media	20.2
110986	7	Sololá	704	Santa Lucía Utatlán 	7	Santa Rita 	8	Agosto	2023-12-08T00:00:00	2024-11-08T20:00:00	4	Temperatura máxima	20.5
110987	7	Sololá	704	Santa Lucía Utatlán 	7	Santa Rita 	8	Agosto	2023-12-08T00:00:00	2024-11-08T20:00:00	3	Temperatura mínima	19.1
110988	7	Sololá	704	Santa Lucía Utatlán 	7	Santa Rita 	8	Agosto	2023-12-08T00:00:00	2024-11-08T20:00:00	5	Humedad	83
110989	7	Sololá	704	Santa Lucía Utatlán 	7	Santa Rita 	8	Agosto	2023-12-08T00:00:00	2024-11-08T20:00:00	6	Velocidad del viento	6.4
110990	7	Sololá	704	Santa Lucía Utatlán 	7	Santa Rita 	8	Agosto	2023-12-08T00:00:00	2024-11-08T20:00:00	7	Dirección del viento	6.44
110991	7	Sololá	704	Santa Lucía Utatlán 	7	Santa Rita 	8	Agosto	2023-12-08T00:00:00	2024-11-08T20:00:00	1	Precipitación	0
110992	7	Sololá	704	Santa Lucía Utatlán 	7	Santa Rita 	8	Agosto	2023-12-08T00:00:00	2024-11-08T20:00:00	8	Radiación solar	0
110993	7	Sololá	704	Santa Lucía Utatlán 	7	Santa Rita 	8	Agosto	2023-12-08T00:00:00	2024-11-08T21:00:00	2	Temperatura media	19.9
110994	7	Sololá	704	Santa Lucía Utatlán 	7	Santa Rita 	8	Agosto	2023-12-08T00:00:00	2024-11-08T21:00:00	4	Temperatura máxima	20.6
110995	7	Sololá	704	Santa Lucía Utatlán 	7	Santa Rita 	8	Agosto	2023-12-08T00:00:00	2024-11-08T21:00:00	3	Temperatura mínima	19.4
110996	7	Sololá	704	Santa Lucía Utatlán 	7	Santa Rita 	8	Agosto	2023-12-08T00:00:00	2024-11-08T21:00:00	5	Humedad	76
110997	7	Sololá	704	Santa Lucía Utatlán 	7	Santa Rita 	8	Agosto	2023-12-08T00:00:00	2024-11-08T21:00:00	6	Velocidad del viento	8
110998	7	Sololá	704	Santa Lucía Utatlán 	7	Santa Rita 	8	Agosto	2023-12-08T00:00:00	2024-11-08T21:00:00	7	Dirección del viento	8.05
110999	7	Sololá	704	Santa Lucía Utatlán 	7	Santa Rita 	8	Agosto	2023-12-08T00:00:00	2024-11-08T21:00:00	1	Precipitación	0
111000	7	Sololá	704	Santa Lucía Utatlán 	7	Santa Rita 	8	Agosto	2023-12-08T00:00:00	2024-11-08T21:00:00	8	Radiación solar	0
111001	7	Sololá	704	Santa Lucía Utatlán 	7	Santa Rita 	8	Agosto	2023-12-08T00:00:00	2024-11-08T22:00:00	2	Temperatura media	19.1
111002	7	Sololá	704	Santa Lucía Utatlán 	7	Santa Rita 	8	Agosto	2023-12-08T00:00:00	2024-11-08T22:00:00	4	Temperatura máxima	20.1
111003	7	Sololá	704	Santa Lucía Utatlán 	7	Santa Rita 	8	Agosto	2023-12-08T00:00:00	2024-11-08T22:00:00	3	Temperatura mínima	19.1
111004	7	Sololá	704	Santa Lucía Utatlán 	7	Santa Rita 	8	Agosto	2023-12-08T00:00:00	2024-11-08T22:00:00	5	Humedad	73
111005	7	Sololá	704	Santa Lucía Utatlán 	7	Santa Rita 	8	Agosto	2023-12-08T00:00:00	2024-11-08T22:00:00	6	Velocidad del viento	6.4
111006	7	Sololá	704	Santa Lucía Utatlán 	7	Santa Rita 	8	Agosto	2023-12-08T00:00:00	2024-11-08T22:00:00	7	Dirección del viento	6.44
111007	7	Sololá	704	Santa Lucía Utatlán 	7	Santa Rita 	8	Agosto	2023-12-08T00:00:00	2024-11-08T22:00:00	1	Precipitación	0
111008	7	Sololá	704	Santa Lucía Utatlán 	7	Santa Rita 	8	Agosto	2023-12-08T00:00:00	2024-11-08T22:00:00	8	Radiación solar	0
111009	7	Sololá	704	Santa Lucía Utatlán 	7	Santa Rita 	8	Agosto	2023-12-08T00:00:00	2024-11-08T23:00:00	2	Temperatura media	17.1
111010	7	Sololá	704	Santa Lucía Utatlán 	7	Santa Rita 	8	Agosto	2023-12-08T00:00:00	2024-11-08T23:00:00	4	Temperatura máxima	20.3
111011	7	Sololá	704	Santa Lucía Utatlán 	7	Santa Rita 	8	Agosto	2023-12-08T00:00:00	2024-11-08T23:00:00	3	Temperatura mínima	17.1
111012	7	Sololá	704	Santa Lucía Utatlán 	7	Santa Rita 	8	Agosto	2023-12-08T00:00:00	2024-11-08T23:00:00	5	Humedad	79
111013	7	Sololá	704	Santa Lucía Utatlán 	7	Santa Rita 	8	Agosto	2023-12-08T00:00:00	2024-11-08T23:00:00	6	Velocidad del viento	6.4
111014	7	Sololá	704	Santa Lucía Utatlán 	7	Santa Rita 	8	Agosto	2023-12-08T00:00:00	2024-11-08T23:00:00	7	Dirección del viento	6.44
111015	7	Sololá	704	Santa Lucía Utatlán 	7	Santa Rita 	8	Agosto	2023-12-08T00:00:00	2024-11-08T23:00:00	1	Precipitación	0
111016	7	Sololá	704	Santa Lucía Utatlán 	7	Santa Rita 	8	Agosto	2023-12-08T00:00:00	2024-11-08T23:00:00	8	Radiación solar	0
111017	7	Sololá	704	Santa Lucía Utatlán 	7	Santa Rita 	8	Agosto	2023-08-13T00:00:00	2024-11-08T00:00:00	2	Temperatura media	18.3
111018	7	Sololá	704	Santa Lucía Utatlán 	7	Santa Rita 	8	Agosto	2023-08-13T00:00:00	2024-11-08T00:00:00	4	Temperatura máxima	18.3
111019	7	Sololá	704	Santa Lucía Utatlán 	7	Santa Rita 	8	Agosto	2023-08-13T00:00:00	2024-11-08T00:00:00	3	Temperatura mínima	16.7
111020	7	Sololá	704	Santa Lucía Utatlán 	7	Santa Rita 	8	Agosto	2023-08-13T00:00:00	2024-11-08T00:00:00	5	Humedad	74
111021	7	Sololá	704	Santa Lucía Utatlán 	7	Santa Rita 	8	Agosto	2023-08-13T00:00:00	2024-11-08T00:00:00	6	Velocidad del viento	4.8
111022	7	Sololá	704	Santa Lucía Utatlán 	7	Santa Rita 	8	Agosto	2023-08-13T00:00:00	2024-11-08T00:00:00	7	Dirección del viento	4.83
111023	7	Sololá	704	Santa Lucía Utatlán 	7	Santa Rita 	8	Agosto	2023-08-13T00:00:00	2024-11-08T00:00:00	1	Precipitación	0
111024	7	Sololá	704	Santa Lucía Utatlán 	7	Santa Rita 	8	Agosto	2023-08-13T00:00:00	2024-11-08T00:00:00	8	Radiación solar	0
111025	7	Sololá	704	Santa Lucía Utatlán 	7	Santa Rita 	8	Agosto	2023-08-13T00:00:00	2024-11-08T01:00:00	2	Temperatura media	17.3
111026	7	Sololá	704	Santa Lucía Utatlán 	7	Santa Rita 	8	Agosto	2023-08-13T00:00:00	2024-11-08T01:00:00	4	Temperatura máxima	18.8
111027	7	Sololá	704	Santa Lucía Utatlán 	7	Santa Rita 	8	Agosto	2023-08-13T00:00:00	2024-11-08T01:00:00	3	Temperatura mínima	16.8
111028	7	Sololá	704	Santa Lucía Utatlán 	7	Santa Rita 	8	Agosto	2023-08-13T00:00:00	2024-11-08T01:00:00	5	Humedad	80
111029	7	Sololá	704	Santa Lucía Utatlán 	7	Santa Rita 	8	Agosto	2023-08-13T00:00:00	2024-11-08T01:00:00	6	Velocidad del viento	4.8
111030	7	Sololá	704	Santa Lucía Utatlán 	7	Santa Rita 	8	Agosto	2023-08-13T00:00:00	2024-11-08T01:00:00	7	Dirección del viento	4.83
111031	7	Sololá	704	Santa Lucía Utatlán 	7	Santa Rita 	8	Agosto	2023-08-13T00:00:00	2024-11-08T01:00:00	1	Precipitación	0
111032	7	Sololá	704	Santa Lucía Utatlán 	7	Santa Rita 	8	Agosto	2023-08-13T00:00:00	2024-11-08T01:00:00	8	Radiación solar	0
111033	7	Sololá	704	Santa Lucía Utatlán 	7	Santa Rita 	8	Agosto	2023-08-13T00:00:00	2024-11-08T02:00:00	2	Temperatura media	19.8
111034	7	Sololá	704	Santa Lucía Utatlán 	7	Santa Rita 	8	Agosto	2023-08-13T00:00:00	2024-11-08T02:00:00	4	Temperatura máxima	19.8
111035	7	Sololá	704	Santa Lucía Utatlán 	7	Santa Rita 	8	Agosto	2023-08-13T00:00:00	2024-11-08T02:00:00	3	Temperatura mínima	17.3
111036	7	Sololá	704	Santa Lucía Utatlán 	7	Santa Rita 	8	Agosto	2023-08-13T00:00:00	2024-11-08T02:00:00	5	Humedad	74
111037	7	Sololá	704	Santa Lucía Utatlán 	7	Santa Rita 	8	Agosto	2023-08-13T00:00:00	2024-11-08T02:00:00	6	Velocidad del viento	4.8
111038	7	Sololá	704	Santa Lucía Utatlán 	7	Santa Rita 	8	Agosto	2023-08-13T00:00:00	2024-11-08T02:00:00	7	Dirección del viento	4.83
111039	7	Sololá	704	Santa Lucía Utatlán 	7	Santa Rita 	8	Agosto	2023-08-13T00:00:00	2024-11-08T02:00:00	1	Precipitación	0
111040	7	Sololá	704	Santa Lucía Utatlán 	7	Santa Rita 	8	Agosto	2023-08-13T00:00:00	2024-11-08T02:00:00	8	Radiación solar	0
111041	7	Sololá	704	Santa Lucía Utatlán 	7	Santa Rita 	8	Agosto	2023-08-13T00:00:00	2024-11-08T03:00:00	2	Temperatura media	19.4
111042	7	Sololá	704	Santa Lucía Utatlán 	7	Santa Rita 	8	Agosto	2023-08-13T00:00:00	2024-11-08T03:00:00	4	Temperatura máxima	20.6
111043	7	Sololá	704	Santa Lucía Utatlán 	7	Santa Rita 	8	Agosto	2023-08-13T00:00:00	2024-11-08T03:00:00	3	Temperatura mínima	19.4
111044	7	Sololá	704	Santa Lucía Utatlán 	7	Santa Rita 	8	Agosto	2023-08-13T00:00:00	2024-11-08T03:00:00	5	Humedad	78
111045	7	Sololá	704	Santa Lucía Utatlán 	7	Santa Rita 	8	Agosto	2023-08-13T00:00:00	2024-11-08T03:00:00	6	Velocidad del viento	6.4
111046	7	Sololá	704	Santa Lucía Utatlán 	7	Santa Rita 	8	Agosto	2023-08-13T00:00:00	2024-11-08T03:00:00	7	Dirección del viento	6.44
111047	7	Sololá	704	Santa Lucía Utatlán 	7	Santa Rita 	8	Agosto	2023-08-13T00:00:00	2024-11-08T03:00:00	1	Precipitación	0
111048	7	Sololá	704	Santa Lucía Utatlán 	7	Santa Rita 	8	Agosto	2023-08-13T00:00:00	2024-11-08T03:00:00	8	Radiación solar	0
111049	7	Sololá	704	Santa Lucía Utatlán 	7	Santa Rita 	8	Agosto	2023-08-13T00:00:00	2024-11-08T04:00:00	2	Temperatura media	20.3
111050	7	Sololá	704	Santa Lucía Utatlán 	7	Santa Rita 	8	Agosto	2023-08-13T00:00:00	2024-11-08T04:00:00	4	Temperatura máxima	21.2
111051	7	Sololá	704	Santa Lucía Utatlán 	7	Santa Rita 	8	Agosto	2023-08-13T00:00:00	2024-11-08T04:00:00	3	Temperatura mínima	18.4
111052	7	Sololá	704	Santa Lucía Utatlán 	7	Santa Rita 	8	Agosto	2023-08-13T00:00:00	2024-11-08T04:00:00	5	Humedad	76
111053	7	Sololá	704	Santa Lucía Utatlán 	7	Santa Rita 	8	Agosto	2023-08-13T00:00:00	2024-11-08T04:00:00	6	Velocidad del viento	6.4
111054	7	Sololá	704	Santa Lucía Utatlán 	7	Santa Rita 	8	Agosto	2023-08-13T00:00:00	2024-11-08T04:00:00	7	Dirección del viento	6.44
111055	7	Sololá	704	Santa Lucía Utatlán 	7	Santa Rita 	8	Agosto	2023-08-13T00:00:00	2024-11-08T04:00:00	1	Precipitación	0
111056	7	Sololá	704	Santa Lucía Utatlán 	7	Santa Rita 	8	Agosto	2023-08-13T00:00:00	2024-11-08T04:00:00	8	Radiación solar	0
111057	7	Sololá	704	Santa Lucía Utatlán 	7	Santa Rita 	8	Agosto	2023-08-13T00:00:00	2024-11-08T05:00:00	2	Temperatura media	22
111058	7	Sololá	704	Santa Lucía Utatlán 	7	Santa Rita 	8	Agosto	2023-08-13T00:00:00	2024-11-08T05:00:00	4	Temperatura máxima	22
111059	7	Sololá	704	Santa Lucía Utatlán 	7	Santa Rita 	8	Agosto	2023-08-13T00:00:00	2024-11-08T05:00:00	3	Temperatura mínima	20.1
111060	7	Sololá	704	Santa Lucía Utatlán 	7	Santa Rita 	8	Agosto	2023-08-13T00:00:00	2024-11-08T05:00:00	5	Humedad	70
111061	7	Sololá	704	Santa Lucía Utatlán 	7	Santa Rita 	8	Agosto	2023-08-13T00:00:00	2024-11-08T05:00:00	6	Velocidad del viento	4.8
111062	7	Sololá	704	Santa Lucía Utatlán 	7	Santa Rita 	8	Agosto	2023-08-13T00:00:00	2024-11-08T05:00:00	7	Dirección del viento	4.83
111063	7	Sololá	704	Santa Lucía Utatlán 	7	Santa Rita 	8	Agosto	2023-08-13T00:00:00	2024-11-08T05:00:00	1	Precipitación	0
111064	7	Sololá	704	Santa Lucía Utatlán 	7	Santa Rita 	8	Agosto	2023-08-13T00:00:00	2024-11-08T05:00:00	8	Radiación solar	0
111065	7	Sololá	704	Santa Lucía Utatlán 	7	Santa Rita 	8	Agosto	2023-08-13T00:00:00	2024-11-08T06:00:00	2	Temperatura media	22.3
111066	7	Sololá	704	Santa Lucía Utatlán 	7	Santa Rita 	8	Agosto	2023-08-13T00:00:00	2024-11-08T06:00:00	4	Temperatura máxima	23.2
111067	7	Sololá	704	Santa Lucía Utatlán 	7	Santa Rita 	8	Agosto	2023-08-13T00:00:00	2024-11-08T06:00:00	3	Temperatura mínima	22.1
111068	7	Sololá	704	Santa Lucía Utatlán 	7	Santa Rita 	8	Agosto	2023-08-13T00:00:00	2024-11-08T06:00:00	5	Humedad	71
111069	7	Sololá	704	Santa Lucía Utatlán 	7	Santa Rita 	8	Agosto	2023-08-13T00:00:00	2024-11-08T06:00:00	6	Velocidad del viento	8
111070	7	Sololá	704	Santa Lucía Utatlán 	7	Santa Rita 	8	Agosto	2023-08-13T00:00:00	2024-11-08T06:00:00	7	Dirección del viento	8.05
111071	7	Sololá	704	Santa Lucía Utatlán 	7	Santa Rita 	8	Agosto	2023-08-13T00:00:00	2024-11-08T06:00:00	1	Precipitación	0
111072	7	Sololá	704	Santa Lucía Utatlán 	7	Santa Rita 	8	Agosto	2023-08-13T00:00:00	2024-11-08T06:00:00	8	Radiación solar	29
111073	7	Sololá	704	Santa Lucía Utatlán 	7	Santa Rita 	8	Agosto	2023-08-13T00:00:00	2024-11-08T07:00:00	2	Temperatura media	22.8
111074	7	Sololá	704	Santa Lucía Utatlán 	7	Santa Rita 	8	Agosto	2023-08-13T00:00:00	2024-11-08T07:00:00	4	Temperatura máxima	22.8
111075	7	Sololá	704	Santa Lucía Utatlán 	7	Santa Rita 	8	Agosto	2023-08-13T00:00:00	2024-11-08T07:00:00	3	Temperatura mínima	21.8
111076	7	Sololá	704	Santa Lucía Utatlán 	7	Santa Rita 	8	Agosto	2023-08-13T00:00:00	2024-11-08T07:00:00	5	Humedad	71
111077	7	Sololá	704	Santa Lucía Utatlán 	7	Santa Rita 	8	Agosto	2023-08-13T00:00:00	2024-11-08T07:00:00	6	Velocidad del viento	8
111078	7	Sololá	704	Santa Lucía Utatlán 	7	Santa Rita 	8	Agosto	2023-08-13T00:00:00	2024-11-08T07:00:00	7	Dirección del viento	8.05
111079	7	Sololá	704	Santa Lucía Utatlán 	7	Santa Rita 	8	Agosto	2023-08-13T00:00:00	2024-11-08T07:00:00	1	Precipitación	0
111080	7	Sololá	704	Santa Lucía Utatlán 	7	Santa Rita 	8	Agosto	2023-08-13T00:00:00	2024-11-08T07:00:00	8	Radiación solar	167
111081	7	Sololá	704	Santa Lucía Utatlán 	7	Santa Rita 	8	Agosto	2023-08-13T00:00:00	2024-11-08T08:00:00	2	Temperatura media	23.7
111082	7	Sololá	704	Santa Lucía Utatlán 	7	Santa Rita 	8	Agosto	2023-08-13T00:00:00	2024-11-08T08:00:00	4	Temperatura máxima	24.1
111083	7	Sololá	704	Santa Lucía Utatlán 	7	Santa Rita 	8	Agosto	2023-08-13T00:00:00	2024-11-08T08:00:00	3	Temperatura mínima	22.7
111084	7	Sololá	704	Santa Lucía Utatlán 	7	Santa Rita 	8	Agosto	2023-08-13T00:00:00	2024-11-08T08:00:00	5	Humedad	70
111085	7	Sololá	704	Santa Lucía Utatlán 	7	Santa Rita 	8	Agosto	2023-08-13T00:00:00	2024-11-08T08:00:00	6	Velocidad del viento	8
111086	7	Sololá	704	Santa Lucía Utatlán 	7	Santa Rita 	8	Agosto	2023-08-13T00:00:00	2024-11-08T08:00:00	7	Dirección del viento	8.05
111087	7	Sololá	704	Santa Lucía Utatlán 	7	Santa Rita 	8	Agosto	2023-08-13T00:00:00	2024-11-08T08:00:00	1	Precipitación	0
111088	7	Sololá	704	Santa Lucía Utatlán 	7	Santa Rita 	8	Agosto	2023-08-13T00:00:00	2024-11-08T08:00:00	8	Radiación solar	394
111089	7	Sololá	704	Santa Lucía Utatlán 	7	Santa Rita 	8	Agosto	2023-08-13T00:00:00	2024-11-08T09:00:00	2	Temperatura media	22.9
111090	7	Sololá	704	Santa Lucía Utatlán 	7	Santa Rita 	8	Agosto	2023-08-13T00:00:00	2024-11-08T09:00:00	4	Temperatura máxima	24.5
111091	7	Sololá	704	Santa Lucía Utatlán 	7	Santa Rita 	8	Agosto	2023-08-13T00:00:00	2024-11-08T09:00:00	3	Temperatura mínima	22.8
111092	7	Sololá	704	Santa Lucía Utatlán 	7	Santa Rita 	8	Agosto	2023-08-13T00:00:00	2024-11-08T09:00:00	5	Humedad	73
111093	7	Sololá	704	Santa Lucía Utatlán 	7	Santa Rita 	8	Agosto	2023-08-13T00:00:00	2024-11-08T09:00:00	6	Velocidad del viento	11.3
111094	7	Sololá	704	Santa Lucía Utatlán 	7	Santa Rita 	8	Agosto	2023-08-13T00:00:00	2024-11-08T09:00:00	7	Dirección del viento	11.27
111095	7	Sololá	704	Santa Lucía Utatlán 	7	Santa Rita 	8	Agosto	2023-08-13T00:00:00	2024-11-08T09:00:00	1	Precipitación	0
111096	7	Sololá	704	Santa Lucía Utatlán 	7	Santa Rita 	8	Agosto	2023-08-13T00:00:00	2024-11-08T09:00:00	8	Radiación solar	331
111097	7	Sololá	704	Santa Lucía Utatlán 	7	Santa Rita 	8	Agosto	2023-08-13T00:00:00	2024-11-08T10:00:00	2	Temperatura media	24.2
111098	7	Sololá	704	Santa Lucía Utatlán 	7	Santa Rita 	8	Agosto	2023-08-13T00:00:00	2024-11-08T10:00:00	4	Temperatura máxima	24.2
111099	7	Sololá	704	Santa Lucía Utatlán 	7	Santa Rita 	8	Agosto	2023-08-13T00:00:00	2024-11-08T10:00:00	3	Temperatura mínima	23
111100	7	Sololá	704	Santa Lucía Utatlán 	7	Santa Rita 	8	Agosto	2023-08-13T00:00:00	2024-11-08T10:00:00	5	Humedad	68
111101	7	Sololá	704	Santa Lucía Utatlán 	7	Santa Rita 	8	Agosto	2023-08-13T00:00:00	2024-11-08T10:00:00	6	Velocidad del viento	9.7
111102	7	Sololá	704	Santa Lucía Utatlán 	7	Santa Rita 	8	Agosto	2023-08-13T00:00:00	2024-11-08T10:00:00	7	Dirección del viento	9.66
111103	7	Sololá	704	Santa Lucía Utatlán 	7	Santa Rita 	8	Agosto	2023-08-13T00:00:00	2024-11-08T10:00:00	1	Precipitación	0
111104	7	Sololá	704	Santa Lucía Utatlán 	7	Santa Rita 	8	Agosto	2023-08-13T00:00:00	2024-11-08T10:00:00	8	Radiación solar	861
111105	7	Sololá	704	Santa Lucía Utatlán 	7	Santa Rita 	8	Agosto	2023-08-13T00:00:00	2024-11-08T11:00:00	2	Temperatura media	25
111106	7	Sololá	704	Santa Lucía Utatlán 	7	Santa Rita 	8	Agosto	2023-08-13T00:00:00	2024-11-08T11:00:00	4	Temperatura máxima	25.1
111107	7	Sololá	704	Santa Lucía Utatlán 	7	Santa Rita 	8	Agosto	2023-08-13T00:00:00	2024-11-08T11:00:00	3	Temperatura mínima	23.9
111108	7	Sololá	704	Santa Lucía Utatlán 	7	Santa Rita 	8	Agosto	2023-08-13T00:00:00	2024-11-08T11:00:00	5	Humedad	62
111109	7	Sololá	704	Santa Lucía Utatlán 	7	Santa Rita 	8	Agosto	2023-08-13T00:00:00	2024-11-08T11:00:00	6	Velocidad del viento	8
111110	7	Sololá	704	Santa Lucía Utatlán 	7	Santa Rita 	8	Agosto	2023-08-13T00:00:00	2024-11-08T11:00:00	7	Dirección del viento	8.05
111111	7	Sololá	704	Santa Lucía Utatlán 	7	Santa Rita 	8	Agosto	2023-08-13T00:00:00	2024-11-08T11:00:00	1	Precipitación	0
111112	7	Sololá	704	Santa Lucía Utatlán 	7	Santa Rita 	8	Agosto	2023-08-13T00:00:00	2024-11-08T11:00:00	8	Radiación solar	597
111113	7	Sololá	704	Santa Lucía Utatlán 	7	Santa Rita 	8	Agosto	2023-08-13T00:00:00	2024-11-08T12:00:00	2	Temperatura media	24.7
111114	7	Sololá	704	Santa Lucía Utatlán 	7	Santa Rita 	8	Agosto	2023-08-13T00:00:00	2024-11-08T12:00:00	4	Temperatura máxima	25.6
111115	7	Sololá	704	Santa Lucía Utatlán 	7	Santa Rita 	8	Agosto	2023-08-13T00:00:00	2024-11-08T12:00:00	3	Temperatura mínima	24.6
111116	7	Sololá	704	Santa Lucía Utatlán 	7	Santa Rita 	8	Agosto	2023-08-13T00:00:00	2024-11-08T12:00:00	5	Humedad	65
111117	7	Sololá	704	Santa Lucía Utatlán 	7	Santa Rita 	8	Agosto	2023-08-13T00:00:00	2024-11-08T12:00:00	6	Velocidad del viento	9.7
111118	7	Sololá	704	Santa Lucía Utatlán 	7	Santa Rita 	8	Agosto	2023-08-13T00:00:00	2024-11-08T12:00:00	7	Dirección del viento	9.66
111119	7	Sololá	704	Santa Lucía Utatlán 	7	Santa Rita 	8	Agosto	2023-08-13T00:00:00	2024-11-08T12:00:00	1	Precipitación	0
111120	7	Sololá	704	Santa Lucía Utatlán 	7	Santa Rita 	8	Agosto	2023-08-13T00:00:00	2024-11-08T12:00:00	8	Radiación solar	509
111121	7	Sololá	704	Santa Lucía Utatlán 	7	Santa Rita 	8	Agosto	2023-08-13T00:00:00	2024-11-08T13:00:00	2	Temperatura media	23.9
111122	7	Sololá	704	Santa Lucía Utatlán 	7	Santa Rita 	8	Agosto	2023-08-13T00:00:00	2024-11-08T13:00:00	4	Temperatura máxima	25.3
111123	7	Sololá	704	Santa Lucía Utatlán 	7	Santa Rita 	8	Agosto	2023-08-13T00:00:00	2024-11-08T13:00:00	3	Temperatura mínima	23.9
111124	7	Sololá	704	Santa Lucía Utatlán 	7	Santa Rita 	8	Agosto	2023-08-13T00:00:00	2024-11-08T13:00:00	5	Humedad	75
111125	7	Sololá	704	Santa Lucía Utatlán 	7	Santa Rita 	8	Agosto	2023-08-13T00:00:00	2024-11-08T13:00:00	6	Velocidad del viento	11.3
111126	7	Sololá	704	Santa Lucía Utatlán 	7	Santa Rita 	8	Agosto	2023-08-13T00:00:00	2024-11-08T13:00:00	7	Dirección del viento	11.27
111127	7	Sololá	704	Santa Lucía Utatlán 	7	Santa Rita 	8	Agosto	2023-08-13T00:00:00	2024-11-08T13:00:00	1	Precipitación	0
111128	7	Sololá	704	Santa Lucía Utatlán 	7	Santa Rita 	8	Agosto	2023-08-13T00:00:00	2024-11-08T13:00:00	8	Radiación solar	431
111129	7	Sololá	704	Santa Lucía Utatlán 	7	Santa Rita 	8	Agosto	2023-08-13T00:00:00	2024-11-08T14:00:00	2	Temperatura media	23.3
111130	7	Sololá	704	Santa Lucía Utatlán 	7	Santa Rita 	8	Agosto	2023-08-13T00:00:00	2024-11-08T14:00:00	4	Temperatura máxima	24.4
111131	7	Sololá	704	Santa Lucía Utatlán 	7	Santa Rita 	8	Agosto	2023-08-13T00:00:00	2024-11-08T14:00:00	3	Temperatura mínima	23.3
111132	7	Sololá	704	Santa Lucía Utatlán 	7	Santa Rita 	8	Agosto	2023-08-13T00:00:00	2024-11-08T14:00:00	5	Humedad	80
111133	7	Sololá	704	Santa Lucía Utatlán 	7	Santa Rita 	8	Agosto	2023-08-13T00:00:00	2024-11-08T14:00:00	6	Velocidad del viento	8
111134	7	Sololá	704	Santa Lucía Utatlán 	7	Santa Rita 	8	Agosto	2023-08-13T00:00:00	2024-11-08T14:00:00	7	Dirección del viento	8.05
111135	7	Sololá	704	Santa Lucía Utatlán 	7	Santa Rita 	8	Agosto	2023-08-13T00:00:00	2024-11-08T14:00:00	1	Precipitación	0
111136	7	Sololá	704	Santa Lucía Utatlán 	7	Santa Rita 	8	Agosto	2023-08-13T00:00:00	2024-11-08T14:00:00	8	Radiación solar	444
111137	7	Sololá	704	Santa Lucía Utatlán 	7	Santa Rita 	8	Agosto	2023-08-13T00:00:00	2024-11-08T15:00:00	2	Temperatura media	21.8
111138	7	Sololá	704	Santa Lucía Utatlán 	7	Santa Rita 	8	Agosto	2023-08-13T00:00:00	2024-11-08T15:00:00	4	Temperatura máxima	23.4
111139	7	Sololá	704	Santa Lucía Utatlán 	7	Santa Rita 	8	Agosto	2023-08-13T00:00:00	2024-11-08T15:00:00	3	Temperatura mínima	21.8
111140	7	Sololá	704	Santa Lucía Utatlán 	7	Santa Rita 	8	Agosto	2023-08-13T00:00:00	2024-11-08T15:00:00	5	Humedad	87
111141	7	Sololá	704	Santa Lucía Utatlán 	7	Santa Rita 	8	Agosto	2023-08-13T00:00:00	2024-11-08T15:00:00	6	Velocidad del viento	4.8
111142	7	Sololá	704	Santa Lucía Utatlán 	7	Santa Rita 	8	Agosto	2023-08-13T00:00:00	2024-11-08T15:00:00	7	Dirección del viento	4.83
111143	7	Sololá	704	Santa Lucía Utatlán 	7	Santa Rita 	8	Agosto	2023-08-13T00:00:00	2024-11-08T15:00:00	1	Precipitación	0
111144	7	Sololá	704	Santa Lucía Utatlán 	7	Santa Rita 	8	Agosto	2023-08-13T00:00:00	2024-11-08T15:00:00	8	Radiación solar	508
111145	7	Sololá	704	Santa Lucía Utatlán 	7	Santa Rita 	8	Agosto	2023-08-13T00:00:00	2024-11-08T16:00:00	2	Temperatura media	19.4
111146	7	Sololá	704	Santa Lucía Utatlán 	7	Santa Rita 	8	Agosto	2023-08-13T00:00:00	2024-11-08T16:00:00	4	Temperatura máxima	21.9
111147	7	Sololá	704	Santa Lucía Utatlán 	7	Santa Rita 	8	Agosto	2023-08-13T00:00:00	2024-11-08T16:00:00	3	Temperatura mínima	19.4
111148	7	Sololá	704	Santa Lucía Utatlán 	7	Santa Rita 	8	Agosto	2023-08-13T00:00:00	2024-11-08T16:00:00	5	Humedad	91
111149	7	Sololá	704	Santa Lucía Utatlán 	7	Santa Rita 	8	Agosto	2023-08-13T00:00:00	2024-11-08T16:00:00	6	Velocidad del viento	4.8
111150	7	Sololá	704	Santa Lucía Utatlán 	7	Santa Rita 	8	Agosto	2023-08-13T00:00:00	2024-11-08T16:00:00	7	Dirección del viento	4.83
111151	7	Sololá	704	Santa Lucía Utatlán 	7	Santa Rita 	8	Agosto	2023-08-13T00:00:00	2024-11-08T16:00:00	1	Precipitación	11.2
111152	7	Sololá	704	Santa Lucía Utatlán 	7	Santa Rita 	8	Agosto	2023-08-13T00:00:00	2024-11-08T16:00:00	8	Radiación solar	283
111153	7	Sololá	704	Santa Lucía Utatlán 	7	Santa Rita 	8	Agosto	2023-08-13T00:00:00	2024-11-08T17:00:00	2	Temperatura media	18.6
111154	7	Sololá	704	Santa Lucía Utatlán 	7	Santa Rita 	8	Agosto	2023-08-13T00:00:00	2024-11-08T17:00:00	4	Temperatura máxima	19.4
111155	7	Sololá	704	Santa Lucía Utatlán 	7	Santa Rita 	8	Agosto	2023-08-13T00:00:00	2024-11-08T17:00:00	3	Temperatura mínima	18.6
111156	7	Sololá	704	Santa Lucía Utatlán 	7	Santa Rita 	8	Agosto	2023-08-13T00:00:00	2024-11-08T17:00:00	5	Humedad	91
111157	7	Sololá	704	Santa Lucía Utatlán 	7	Santa Rita 	8	Agosto	2023-08-13T00:00:00	2024-11-08T17:00:00	6	Velocidad del viento	4.8
111158	7	Sololá	704	Santa Lucía Utatlán 	7	Santa Rita 	8	Agosto	2023-08-13T00:00:00	2024-11-08T17:00:00	7	Dirección del viento	4.83
111159	7	Sololá	704	Santa Lucía Utatlán 	7	Santa Rita 	8	Agosto	2023-08-13T00:00:00	2024-11-08T17:00:00	1	Precipitación	2.8
111160	7	Sololá	704	Santa Lucía Utatlán 	7	Santa Rita 	8	Agosto	2023-08-13T00:00:00	2024-11-08T17:00:00	8	Radiación solar	88
111161	7	Sololá	704	Santa Lucía Utatlán 	7	Santa Rita 	8	Agosto	2023-08-13T00:00:00	2024-11-08T18:00:00	2	Temperatura media	18.6
111162	7	Sololá	704	Santa Lucía Utatlán 	7	Santa Rita 	8	Agosto	2023-08-13T00:00:00	2024-11-08T18:00:00	4	Temperatura máxima	18.7
111163	7	Sololá	704	Santa Lucía Utatlán 	7	Santa Rita 	8	Agosto	2023-08-13T00:00:00	2024-11-08T18:00:00	3	Temperatura mínima	18
111164	7	Sololá	704	Santa Lucía Utatlán 	7	Santa Rita 	8	Agosto	2023-08-13T00:00:00	2024-11-08T18:00:00	5	Humedad	91
111165	7	Sololá	704	Santa Lucía Utatlán 	7	Santa Rita 	8	Agosto	2023-08-13T00:00:00	2024-11-08T18:00:00	6	Velocidad del viento	4.8
111166	7	Sololá	704	Santa Lucía Utatlán 	7	Santa Rita 	8	Agosto	2023-08-13T00:00:00	2024-11-08T18:00:00	7	Dirección del viento	4.83
111167	7	Sololá	704	Santa Lucía Utatlán 	7	Santa Rita 	8	Agosto	2023-08-13T00:00:00	2024-11-08T18:00:00	1	Precipitación	0
111168	7	Sololá	704	Santa Lucía Utatlán 	7	Santa Rita 	8	Agosto	2023-08-13T00:00:00	2024-11-08T18:00:00	8	Radiación solar	17
111169	7	Sololá	704	Santa Lucía Utatlán 	7	Santa Rita 	8	Agosto	2023-08-13T00:00:00	2024-11-08T19:00:00	2	Temperatura media	18
111170	7	Sololá	704	Santa Lucía Utatlán 	7	Santa Rita 	8	Agosto	2023-08-13T00:00:00	2024-11-08T19:00:00	4	Temperatura máxima	18.6
111171	7	Sololá	704	Santa Lucía Utatlán 	7	Santa Rita 	8	Agosto	2023-08-13T00:00:00	2024-11-08T19:00:00	3	Temperatura mínima	18
111172	7	Sololá	704	Santa Lucía Utatlán 	7	Santa Rita 	8	Agosto	2023-08-13T00:00:00	2024-11-08T19:00:00	5	Humedad	92
111173	7	Sololá	704	Santa Lucía Utatlán 	7	Santa Rita 	8	Agosto	2023-08-13T00:00:00	2024-11-08T19:00:00	6	Velocidad del viento	3.2
111174	7	Sololá	704	Santa Lucía Utatlán 	7	Santa Rita 	8	Agosto	2023-08-13T00:00:00	2024-11-08T19:00:00	7	Dirección del viento	3.22
111175	7	Sololá	704	Santa Lucía Utatlán 	7	Santa Rita 	8	Agosto	2023-08-13T00:00:00	2024-11-08T19:00:00	1	Precipitación	0
111176	7	Sololá	704	Santa Lucía Utatlán 	7	Santa Rita 	8	Agosto	2023-08-13T00:00:00	2024-11-08T19:00:00	8	Radiación solar	0
111177	7	Sololá	704	Santa Lucía Utatlán 	7	Santa Rita 	8	Agosto	2023-08-13T00:00:00	2024-11-08T20:00:00	2	Temperatura media	18.8
111178	7	Sololá	704	Santa Lucía Utatlán 	7	Santa Rita 	8	Agosto	2023-08-13T00:00:00	2024-11-08T20:00:00	4	Temperatura máxima	18.9
111179	7	Sololá	704	Santa Lucía Utatlán 	7	Santa Rita 	8	Agosto	2023-08-13T00:00:00	2024-11-08T20:00:00	3	Temperatura mínima	17.8
111180	7	Sololá	704	Santa Lucía Utatlán 	7	Santa Rita 	8	Agosto	2023-08-13T00:00:00	2024-11-08T20:00:00	5	Humedad	93
111181	7	Sololá	704	Santa Lucía Utatlán 	7	Santa Rita 	8	Agosto	2023-08-13T00:00:00	2024-11-08T20:00:00	6	Velocidad del viento	1.6
111182	7	Sololá	704	Santa Lucía Utatlán 	7	Santa Rita 	8	Agosto	2023-08-13T00:00:00	2024-11-08T20:00:00	7	Dirección del viento	1.61
111183	7	Sololá	704	Santa Lucía Utatlán 	7	Santa Rita 	8	Agosto	2023-08-13T00:00:00	2024-11-08T20:00:00	1	Precipitación	0
111184	7	Sololá	704	Santa Lucía Utatlán 	7	Santa Rita 	8	Agosto	2023-08-13T00:00:00	2024-11-08T20:00:00	8	Radiación solar	0
111185	7	Sololá	704	Santa Lucía Utatlán 	7	Santa Rita 	8	Agosto	2023-08-13T00:00:00	2024-11-08T21:00:00	2	Temperatura media	19.2
111186	7	Sololá	704	Santa Lucía Utatlán 	7	Santa Rita 	8	Agosto	2023-08-13T00:00:00	2024-11-08T21:00:00	4	Temperatura máxima	19.4
111187	7	Sololá	704	Santa Lucía Utatlán 	7	Santa Rita 	8	Agosto	2023-08-13T00:00:00	2024-11-08T21:00:00	3	Temperatura mínima	18.7
111188	7	Sololá	704	Santa Lucía Utatlán 	7	Santa Rita 	8	Agosto	2023-08-13T00:00:00	2024-11-08T21:00:00	5	Humedad	89
111189	7	Sololá	704	Santa Lucía Utatlán 	7	Santa Rita 	8	Agosto	2023-08-13T00:00:00	2024-11-08T21:00:00	6	Velocidad del viento	3.2
111190	7	Sololá	704	Santa Lucía Utatlán 	7	Santa Rita 	8	Agosto	2023-08-13T00:00:00	2024-11-08T21:00:00	7	Dirección del viento	3.22
111191	7	Sololá	704	Santa Lucía Utatlán 	7	Santa Rita 	8	Agosto	2023-08-13T00:00:00	2024-11-08T21:00:00	1	Precipitación	0
111192	7	Sololá	704	Santa Lucía Utatlán 	7	Santa Rita 	8	Agosto	2023-08-13T00:00:00	2024-11-08T21:00:00	8	Radiación solar	0
111193	7	Sololá	704	Santa Lucía Utatlán 	7	Santa Rita 	8	Agosto	2023-08-13T00:00:00	2024-11-08T22:00:00	2	Temperatura media	19.1
111194	7	Sololá	704	Santa Lucía Utatlán 	7	Santa Rita 	8	Agosto	2023-08-13T00:00:00	2024-11-08T22:00:00	4	Temperatura máxima	19.4
111195	7	Sololá	704	Santa Lucía Utatlán 	7	Santa Rita 	8	Agosto	2023-08-13T00:00:00	2024-11-08T22:00:00	3	Temperatura mínima	19.1
111196	7	Sololá	704	Santa Lucía Utatlán 	7	Santa Rita 	8	Agosto	2023-08-13T00:00:00	2024-11-08T22:00:00	5	Humedad	91
111197	7	Sololá	704	Santa Lucía Utatlán 	7	Santa Rita 	8	Agosto	2023-08-13T00:00:00	2024-11-08T22:00:00	6	Velocidad del viento	3.2
111198	7	Sololá	704	Santa Lucía Utatlán 	7	Santa Rita 	8	Agosto	2023-08-13T00:00:00	2024-11-08T22:00:00	7	Dirección del viento	3.22
111199	7	Sololá	704	Santa Lucía Utatlán 	7	Santa Rita 	8	Agosto	2023-08-13T00:00:00	2024-11-08T22:00:00	1	Precipitación	0
111200	7	Sololá	704	Santa Lucía Utatlán 	7	Santa Rita 	8	Agosto	2023-08-13T00:00:00	2024-11-08T22:00:00	8	Radiación solar	0
111201	7	Sololá	704	Santa Lucía Utatlán 	7	Santa Rita 	8	Agosto	2023-08-13T00:00:00	2024-11-08T23:00:00	2	Temperatura media	19.3
111202	7	Sololá	704	Santa Lucía Utatlán 	7	Santa Rita 	8	Agosto	2023-08-13T00:00:00	2024-11-08T23:00:00	4	Temperatura máxima	19.3
111203	7	Sololá	704	Santa Lucía Utatlán 	7	Santa Rita 	8	Agosto	2023-08-13T00:00:00	2024-11-08T23:00:00	3	Temperatura mínima	18.9
111204	7	Sololá	704	Santa Lucía Utatlán 	7	Santa Rita 	8	Agosto	2023-08-13T00:00:00	2024-11-08T23:00:00	5	Humedad	86
111205	7	Sololá	704	Santa Lucía Utatlán 	7	Santa Rita 	8	Agosto	2023-08-13T00:00:00	2024-11-08T23:00:00	6	Velocidad del viento	4.8
111206	7	Sololá	704	Santa Lucía Utatlán 	7	Santa Rita 	8	Agosto	2023-08-13T00:00:00	2024-11-08T23:00:00	7	Dirección del viento	4.83
111207	7	Sololá	704	Santa Lucía Utatlán 	7	Santa Rita 	8	Agosto	2023-08-13T00:00:00	2024-11-08T23:00:00	1	Precipitación	0
111208	7	Sololá	704	Santa Lucía Utatlán 	7	Santa Rita 	8	Agosto	2023-08-13T00:00:00	2024-11-08T23:00:00	8	Radiación solar	0
111209	7	Sololá	704	Santa Lucía Utatlán 	7	Santa Rita 	8	Agosto	2023-08-14T00:00:00	2024-11-08T00:00:00	2	Temperatura media	18.7
111210	7	Sololá	704	Santa Lucía Utatlán 	7	Santa Rita 	8	Agosto	2023-08-14T00:00:00	2024-11-08T00:00:00	4	Temperatura máxima	19.3
111211	7	Sololá	704	Santa Lucía Utatlán 	7	Santa Rita 	8	Agosto	2023-08-14T00:00:00	2024-11-08T00:00:00	3	Temperatura mínima	18.6
111212	7	Sololá	704	Santa Lucía Utatlán 	7	Santa Rita 	8	Agosto	2023-08-14T00:00:00	2024-11-08T00:00:00	5	Humedad	81
111213	7	Sololá	704	Santa Lucía Utatlán 	7	Santa Rita 	8	Agosto	2023-08-14T00:00:00	2024-11-08T00:00:00	6	Velocidad del viento	4.8
111214	7	Sololá	704	Santa Lucía Utatlán 	7	Santa Rita 	8	Agosto	2023-08-14T00:00:00	2024-11-08T00:00:00	7	Dirección del viento	4.83
111215	7	Sololá	704	Santa Lucía Utatlán 	7	Santa Rita 	8	Agosto	2023-08-14T00:00:00	2024-11-08T00:00:00	1	Precipitación	0
111216	7	Sololá	704	Santa Lucía Utatlán 	7	Santa Rita 	8	Agosto	2023-08-14T00:00:00	2024-11-08T00:00:00	8	Radiación solar	0
111217	7	Sololá	704	Santa Lucía Utatlán 	7	Santa Rita 	8	Agosto	2023-08-14T00:00:00	2024-11-08T01:00:00	2	Temperatura media	16.9
111218	7	Sololá	704	Santa Lucía Utatlán 	7	Santa Rita 	8	Agosto	2023-08-14T00:00:00	2024-11-08T01:00:00	4	Temperatura máxima	18.9
111219	7	Sololá	704	Santa Lucía Utatlán 	7	Santa Rita 	8	Agosto	2023-08-14T00:00:00	2024-11-08T01:00:00	3	Temperatura mínima	16.9
111220	7	Sololá	704	Santa Lucía Utatlán 	7	Santa Rita 	8	Agosto	2023-08-14T00:00:00	2024-11-08T01:00:00	5	Humedad	89
111221	7	Sololá	704	Santa Lucía Utatlán 	7	Santa Rita 	8	Agosto	2023-08-14T00:00:00	2024-11-08T01:00:00	6	Velocidad del viento	3.2
111222	7	Sololá	704	Santa Lucía Utatlán 	7	Santa Rita 	8	Agosto	2023-08-14T00:00:00	2024-11-08T01:00:00	7	Dirección del viento	3.22
111223	7	Sololá	704	Santa Lucía Utatlán 	7	Santa Rita 	8	Agosto	2023-08-14T00:00:00	2024-11-08T01:00:00	1	Precipitación	0
111224	7	Sololá	704	Santa Lucía Utatlán 	7	Santa Rita 	8	Agosto	2023-08-14T00:00:00	2024-11-08T01:00:00	8	Radiación solar	0
111225	7	Sololá	704	Santa Lucía Utatlán 	7	Santa Rita 	8	Agosto	2023-08-14T00:00:00	2024-11-08T02:00:00	2	Temperatura media	17.9
111226	7	Sololá	704	Santa Lucía Utatlán 	7	Santa Rita 	8	Agosto	2023-08-14T00:00:00	2024-11-08T02:00:00	4	Temperatura máxima	18.2
111227	7	Sololá	704	Santa Lucía Utatlán 	7	Santa Rita 	8	Agosto	2023-08-14T00:00:00	2024-11-08T02:00:00	3	Temperatura mínima	16.7
111228	7	Sololá	704	Santa Lucía Utatlán 	7	Santa Rita 	8	Agosto	2023-08-14T00:00:00	2024-11-08T02:00:00	5	Humedad	83
111229	7	Sololá	704	Santa Lucía Utatlán 	7	Santa Rita 	8	Agosto	2023-08-14T00:00:00	2024-11-08T02:00:00	6	Velocidad del viento	3.2
111230	7	Sololá	704	Santa Lucía Utatlán 	7	Santa Rita 	8	Agosto	2023-08-14T00:00:00	2024-11-08T02:00:00	7	Dirección del viento	3.22
111231	7	Sololá	704	Santa Lucía Utatlán 	7	Santa Rita 	8	Agosto	2023-08-14T00:00:00	2024-11-08T02:00:00	1	Precipitación	0
111232	7	Sololá	704	Santa Lucía Utatlán 	7	Santa Rita 	8	Agosto	2023-08-14T00:00:00	2024-11-08T02:00:00	8	Radiación solar	0
111233	7	Sololá	704	Santa Lucía Utatlán 	7	Santa Rita 	8	Agosto	2023-08-14T00:00:00	2024-11-08T03:00:00	2	Temperatura media	18.2
111234	7	Sololá	704	Santa Lucía Utatlán 	7	Santa Rita 	8	Agosto	2023-08-14T00:00:00	2024-11-08T03:00:00	4	Temperatura máxima	18.2
111235	7	Sololá	704	Santa Lucía Utatlán 	7	Santa Rita 	8	Agosto	2023-08-14T00:00:00	2024-11-08T03:00:00	3	Temperatura mínima	17.1
111236	7	Sololá	704	Santa Lucía Utatlán 	7	Santa Rita 	8	Agosto	2023-08-14T00:00:00	2024-11-08T03:00:00	5	Humedad	83
111237	7	Sololá	704	Santa Lucía Utatlán 	7	Santa Rita 	8	Agosto	2023-08-14T00:00:00	2024-11-08T03:00:00	6	Velocidad del viento	4.8
111238	7	Sololá	704	Santa Lucía Utatlán 	7	Santa Rita 	8	Agosto	2023-08-14T00:00:00	2024-11-08T03:00:00	7	Dirección del viento	4.83
111239	7	Sololá	704	Santa Lucía Utatlán 	7	Santa Rita 	8	Agosto	2023-08-14T00:00:00	2024-11-08T03:00:00	1	Precipitación	0
111240	7	Sololá	704	Santa Lucía Utatlán 	7	Santa Rita 	8	Agosto	2023-08-14T00:00:00	2024-11-08T03:00:00	8	Radiación solar	0
111241	7	Sololá	704	Santa Lucía Utatlán 	7	Santa Rita 	8	Agosto	2023-08-14T00:00:00	2024-11-08T04:00:00	2	Temperatura media	19.3
111242	7	Sololá	704	Santa Lucía Utatlán 	7	Santa Rita 	8	Agosto	2023-08-14T00:00:00	2024-11-08T04:00:00	4	Temperatura máxima	19.3
111243	7	Sololá	704	Santa Lucía Utatlán 	7	Santa Rita 	8	Agosto	2023-08-14T00:00:00	2024-11-08T04:00:00	3	Temperatura mínima	18.2
111244	7	Sololá	704	Santa Lucía Utatlán 	7	Santa Rita 	8	Agosto	2023-08-14T00:00:00	2024-11-08T04:00:00	5	Humedad	81
111245	7	Sololá	704	Santa Lucía Utatlán 	7	Santa Rita 	8	Agosto	2023-08-14T00:00:00	2024-11-08T04:00:00	6	Velocidad del viento	4.8
111246	7	Sololá	704	Santa Lucía Utatlán 	7	Santa Rita 	8	Agosto	2023-08-14T00:00:00	2024-11-08T04:00:00	7	Dirección del viento	4.83
111247	7	Sololá	704	Santa Lucía Utatlán 	7	Santa Rita 	8	Agosto	2023-08-14T00:00:00	2024-11-08T04:00:00	1	Precipitación	0
111248	7	Sololá	704	Santa Lucía Utatlán 	7	Santa Rita 	8	Agosto	2023-08-14T00:00:00	2024-11-08T04:00:00	8	Radiación solar	0
111249	7	Sololá	704	Santa Lucía Utatlán 	7	Santa Rita 	8	Agosto	2023-08-14T00:00:00	2024-11-08T05:00:00	2	Temperatura media	20.8
111250	7	Sololá	704	Santa Lucía Utatlán 	7	Santa Rita 	8	Agosto	2023-08-14T00:00:00	2024-11-08T05:00:00	4	Temperatura máxima	20.8
111251	7	Sololá	704	Santa Lucía Utatlán 	7	Santa Rita 	8	Agosto	2023-08-14T00:00:00	2024-11-08T05:00:00	3	Temperatura mínima	19.3
111252	7	Sololá	704	Santa Lucía Utatlán 	7	Santa Rita 	8	Agosto	2023-08-14T00:00:00	2024-11-08T05:00:00	5	Humedad	75
111253	7	Sololá	704	Santa Lucía Utatlán 	7	Santa Rita 	8	Agosto	2023-08-14T00:00:00	2024-11-08T05:00:00	6	Velocidad del viento	8
111254	7	Sololá	704	Santa Lucía Utatlán 	7	Santa Rita 	8	Agosto	2023-08-14T00:00:00	2024-11-08T05:00:00	7	Dirección del viento	8.05
111255	7	Sololá	704	Santa Lucía Utatlán 	7	Santa Rita 	8	Agosto	2023-08-14T00:00:00	2024-11-08T05:00:00	1	Precipitación	0
111256	7	Sololá	704	Santa Lucía Utatlán 	7	Santa Rita 	8	Agosto	2023-08-14T00:00:00	2024-11-08T05:00:00	8	Radiación solar	0
111257	7	Sololá	704	Santa Lucía Utatlán 	7	Santa Rita 	8	Agosto	2023-08-14T00:00:00	2024-11-08T06:00:00	2	Temperatura media	21.6
111258	7	Sololá	704	Santa Lucía Utatlán 	7	Santa Rita 	8	Agosto	2023-08-14T00:00:00	2024-11-08T06:00:00	4	Temperatura máxima	21.8
111259	7	Sololá	704	Santa Lucía Utatlán 	7	Santa Rita 	8	Agosto	2023-08-14T00:00:00	2024-11-08T06:00:00	3	Temperatura mínima	20.6
111260	7	Sololá	704	Santa Lucía Utatlán 	7	Santa Rita 	8	Agosto	2023-08-14T00:00:00	2024-11-08T06:00:00	5	Humedad	70
111261	7	Sololá	704	Santa Lucía Utatlán 	7	Santa Rita 	8	Agosto	2023-08-14T00:00:00	2024-11-08T06:00:00	6	Velocidad del viento	8
111262	7	Sololá	704	Santa Lucía Utatlán 	7	Santa Rita 	8	Agosto	2023-08-14T00:00:00	2024-11-08T06:00:00	7	Dirección del viento	8.05
111263	7	Sololá	704	Santa Lucía Utatlán 	7	Santa Rita 	8	Agosto	2023-08-14T00:00:00	2024-11-08T06:00:00	1	Precipitación	0
111264	7	Sololá	704	Santa Lucía Utatlán 	7	Santa Rita 	8	Agosto	2023-08-14T00:00:00	2024-11-08T06:00:00	8	Radiación solar	37
111265	7	Sololá	704	Santa Lucía Utatlán 	7	Santa Rita 	8	Agosto	2023-08-14T00:00:00	2024-11-08T07:00:00	2	Temperatura media	21.8
111266	7	Sololá	704	Santa Lucía Utatlán 	7	Santa Rita 	8	Agosto	2023-08-14T00:00:00	2024-11-08T07:00:00	4	Temperatura máxima	22.8
111267	7	Sololá	704	Santa Lucía Utatlán 	7	Santa Rita 	8	Agosto	2023-08-14T00:00:00	2024-11-08T07:00:00	3	Temperatura mínima	21.2
111268	7	Sololá	704	Santa Lucía Utatlán 	7	Santa Rita 	8	Agosto	2023-08-14T00:00:00	2024-11-08T07:00:00	5	Humedad	68
111269	7	Sololá	704	Santa Lucía Utatlán 	7	Santa Rita 	8	Agosto	2023-08-14T00:00:00	2024-11-08T07:00:00	6	Velocidad del viento	9.7
111270	7	Sololá	704	Santa Lucía Utatlán 	7	Santa Rita 	8	Agosto	2023-08-14T00:00:00	2024-11-08T07:00:00	7	Dirección del viento	9.66
111271	7	Sololá	704	Santa Lucía Utatlán 	7	Santa Rita 	8	Agosto	2023-08-14T00:00:00	2024-11-08T07:00:00	1	Precipitación	0
111272	7	Sololá	704	Santa Lucía Utatlán 	7	Santa Rita 	8	Agosto	2023-08-14T00:00:00	2024-11-08T07:00:00	8	Radiación solar	190
111273	7	Sololá	704	Santa Lucía Utatlán 	7	Santa Rita 	8	Agosto	2023-08-14T00:00:00	2024-11-08T08:00:00	2	Temperatura media	22.6
111274	7	Sololá	704	Santa Lucía Utatlán 	7	Santa Rita 	8	Agosto	2023-08-14T00:00:00	2024-11-08T08:00:00	4	Temperatura máxima	22.9
111275	7	Sololá	704	Santa Lucía Utatlán 	7	Santa Rita 	8	Agosto	2023-08-14T00:00:00	2024-11-08T08:00:00	3	Temperatura mínima	21.4
111276	7	Sololá	704	Santa Lucía Utatlán 	7	Santa Rita 	8	Agosto	2023-08-14T00:00:00	2024-11-08T08:00:00	5	Humedad	64
111277	7	Sololá	704	Santa Lucía Utatlán 	7	Santa Rita 	8	Agosto	2023-08-14T00:00:00	2024-11-08T08:00:00	6	Velocidad del viento	9.7
111278	7	Sololá	704	Santa Lucía Utatlán 	7	Santa Rita 	8	Agosto	2023-08-14T00:00:00	2024-11-08T08:00:00	7	Dirección del viento	9.66
111279	7	Sololá	704	Santa Lucía Utatlán 	7	Santa Rita 	8	Agosto	2023-08-14T00:00:00	2024-11-08T08:00:00	1	Precipitación	0
111280	7	Sololá	704	Santa Lucía Utatlán 	7	Santa Rita 	8	Agosto	2023-08-14T00:00:00	2024-11-08T08:00:00	8	Radiación solar	413
111281	7	Sololá	704	Santa Lucía Utatlán 	7	Santa Rita 	8	Agosto	2023-08-14T00:00:00	2024-11-08T09:00:00	2	Temperatura media	23.4
111282	7	Sololá	704	Santa Lucía Utatlán 	7	Santa Rita 	8	Agosto	2023-08-14T00:00:00	2024-11-08T09:00:00	4	Temperatura máxima	23.6
111283	7	Sololá	704	Santa Lucía Utatlán 	7	Santa Rita 	8	Agosto	2023-08-14T00:00:00	2024-11-08T09:00:00	3	Temperatura mínima	22.2
111284	7	Sololá	704	Santa Lucía Utatlán 	7	Santa Rita 	8	Agosto	2023-08-14T00:00:00	2024-11-08T09:00:00	5	Humedad	61
111285	7	Sololá	704	Santa Lucía Utatlán 	7	Santa Rita 	8	Agosto	2023-08-14T00:00:00	2024-11-08T09:00:00	6	Velocidad del viento	12.9
111286	7	Sololá	704	Santa Lucía Utatlán 	7	Santa Rita 	8	Agosto	2023-08-14T00:00:00	2024-11-08T09:00:00	7	Dirección del viento	12.87
111287	7	Sololá	704	Santa Lucía Utatlán 	7	Santa Rita 	8	Agosto	2023-08-14T00:00:00	2024-11-08T09:00:00	1	Precipitación	0
111288	7	Sololá	704	Santa Lucía Utatlán 	7	Santa Rita 	8	Agosto	2023-08-14T00:00:00	2024-11-08T09:00:00	8	Radiación solar	753
111289	7	Sololá	704	Santa Lucía Utatlán 	7	Santa Rita 	8	Agosto	2023-08-14T00:00:00	2024-11-08T10:00:00	2	Temperatura media	23.6
111290	7	Sololá	704	Santa Lucía Utatlán 	7	Santa Rita 	8	Agosto	2023-08-14T00:00:00	2024-11-08T10:00:00	4	Temperatura máxima	23.9
111291	7	Sololá	704	Santa Lucía Utatlán 	7	Santa Rita 	8	Agosto	2023-08-14T00:00:00	2024-11-08T10:00:00	3	Temperatura mínima	23.2
111292	7	Sololá	704	Santa Lucía Utatlán 	7	Santa Rita 	8	Agosto	2023-08-14T00:00:00	2024-11-08T10:00:00	5	Humedad	62
111293	7	Sololá	704	Santa Lucía Utatlán 	7	Santa Rita 	8	Agosto	2023-08-14T00:00:00	2024-11-08T10:00:00	6	Velocidad del viento	11.3
111294	7	Sololá	704	Santa Lucía Utatlán 	7	Santa Rita 	8	Agosto	2023-08-14T00:00:00	2024-11-08T10:00:00	7	Dirección del viento	11.27
111295	7	Sololá	704	Santa Lucía Utatlán 	7	Santa Rita 	8	Agosto	2023-08-14T00:00:00	2024-11-08T10:00:00	1	Precipitación	0
111296	7	Sololá	704	Santa Lucía Utatlán 	7	Santa Rita 	8	Agosto	2023-08-14T00:00:00	2024-11-08T10:00:00	8	Radiación solar	666
111297	7	Sololá	704	Santa Lucía Utatlán 	7	Santa Rita 	8	Agosto	2023-08-14T00:00:00	2024-11-08T11:00:00	2	Temperatura media	24.6
111298	7	Sololá	704	Santa Lucía Utatlán 	7	Santa Rita 	8	Agosto	2023-08-14T00:00:00	2024-11-08T11:00:00	4	Temperatura máxima	24.8
111299	7	Sololá	704	Santa Lucía Utatlán 	7	Santa Rita 	8	Agosto	2023-08-14T00:00:00	2024-11-08T11:00:00	3	Temperatura mínima	23.5
111300	7	Sololá	704	Santa Lucía Utatlán 	7	Santa Rita 	8	Agosto	2023-08-14T00:00:00	2024-11-08T11:00:00	5	Humedad	56
111301	7	Sololá	704	Santa Lucía Utatlán 	7	Santa Rita 	8	Agosto	2023-08-14T00:00:00	2024-11-08T11:00:00	6	Velocidad del viento	9.7
111302	7	Sololá	704	Santa Lucía Utatlán 	7	Santa Rita 	8	Agosto	2023-08-14T00:00:00	2024-11-08T11:00:00	7	Dirección del viento	9.66
111303	7	Sololá	704	Santa Lucía Utatlán 	7	Santa Rita 	8	Agosto	2023-08-14T00:00:00	2024-11-08T11:00:00	1	Precipitación	0
111304	7	Sololá	704	Santa Lucía Utatlán 	7	Santa Rita 	8	Agosto	2023-08-14T00:00:00	2024-11-08T11:00:00	8	Radiación solar	859
111305	7	Sololá	704	Santa Lucía Utatlán 	7	Santa Rita 	8	Agosto	2023-08-14T00:00:00	2024-11-08T12:00:00	2	Temperatura media	23.8
111306	7	Sololá	704	Santa Lucía Utatlán 	7	Santa Rita 	8	Agosto	2023-08-14T00:00:00	2024-11-08T12:00:00	4	Temperatura máxima	25
111307	7	Sololá	704	Santa Lucía Utatlán 	7	Santa Rita 	8	Agosto	2023-08-14T00:00:00	2024-11-08T12:00:00	3	Temperatura mínima	23.8
111308	7	Sololá	704	Santa Lucía Utatlán 	7	Santa Rita 	8	Agosto	2023-08-14T00:00:00	2024-11-08T12:00:00	5	Humedad	62
111309	7	Sololá	704	Santa Lucía Utatlán 	7	Santa Rita 	8	Agosto	2023-08-14T00:00:00	2024-11-08T12:00:00	6	Velocidad del viento	9.7
111310	7	Sololá	704	Santa Lucía Utatlán 	7	Santa Rita 	8	Agosto	2023-08-14T00:00:00	2024-11-08T12:00:00	7	Dirección del viento	9.66
111311	7	Sololá	704	Santa Lucía Utatlán 	7	Santa Rita 	8	Agosto	2023-08-14T00:00:00	2024-11-08T12:00:00	1	Precipitación	0
111312	7	Sololá	704	Santa Lucía Utatlán 	7	Santa Rita 	8	Agosto	2023-08-14T00:00:00	2024-11-08T12:00:00	8	Radiación solar	925
111313	7	Sololá	704	Santa Lucía Utatlán 	7	Santa Rita 	8	Agosto	2023-08-14T00:00:00	2024-11-08T13:00:00	2	Temperatura media	24
111314	7	Sololá	704	Santa Lucía Utatlán 	7	Santa Rita 	8	Agosto	2023-08-14T00:00:00	2024-11-08T13:00:00	4	Temperatura máxima	24
111315	7	Sololá	704	Santa Lucía Utatlán 	7	Santa Rita 	8	Agosto	2023-08-14T00:00:00	2024-11-08T13:00:00	3	Temperatura mínima	23.2
111316	7	Sololá	704	Santa Lucía Utatlán 	7	Santa Rita 	8	Agosto	2023-08-14T00:00:00	2024-11-08T13:00:00	5	Humedad	66
111317	7	Sololá	704	Santa Lucía Utatlán 	7	Santa Rita 	8	Agosto	2023-08-14T00:00:00	2024-11-08T13:00:00	6	Velocidad del viento	8
111318	7	Sololá	704	Santa Lucía Utatlán 	7	Santa Rita 	8	Agosto	2023-08-14T00:00:00	2024-11-08T13:00:00	7	Dirección del viento	8.05
111319	7	Sololá	704	Santa Lucía Utatlán 	7	Santa Rita 	8	Agosto	2023-08-14T00:00:00	2024-11-08T13:00:00	1	Precipitación	0
111320	7	Sololá	704	Santa Lucía Utatlán 	7	Santa Rita 	8	Agosto	2023-08-14T00:00:00	2024-11-08T13:00:00	8	Radiación solar	695
111321	7	Sololá	704	Santa Lucía Utatlán 	7	Santa Rita 	8	Agosto	2023-08-14T00:00:00	2024-11-08T14:00:00	2	Temperatura media	23.2
111322	7	Sololá	704	Santa Lucía Utatlán 	7	Santa Rita 	8	Agosto	2023-08-14T00:00:00	2024-11-08T14:00:00	4	Temperatura máxima	24.2
111323	7	Sololá	704	Santa Lucía Utatlán 	7	Santa Rita 	8	Agosto	2023-08-14T00:00:00	2024-11-08T14:00:00	3	Temperatura mínima	22.9
111324	7	Sololá	704	Santa Lucía Utatlán 	7	Santa Rita 	8	Agosto	2023-08-14T00:00:00	2024-11-08T14:00:00	5	Humedad	69
111325	7	Sololá	704	Santa Lucía Utatlán 	7	Santa Rita 	8	Agosto	2023-08-14T00:00:00	2024-11-08T14:00:00	6	Velocidad del viento	9.7
111326	7	Sololá	704	Santa Lucía Utatlán 	7	Santa Rita 	8	Agosto	2023-08-14T00:00:00	2024-11-08T14:00:00	7	Dirección del viento	9.66
111327	7	Sololá	704	Santa Lucía Utatlán 	7	Santa Rita 	8	Agosto	2023-08-14T00:00:00	2024-11-08T14:00:00	1	Precipitación	0
111328	7	Sololá	704	Santa Lucía Utatlán 	7	Santa Rita 	8	Agosto	2023-08-14T00:00:00	2024-11-08T14:00:00	8	Radiación solar	485
111329	7	Sololá	704	Santa Lucía Utatlán 	7	Santa Rita 	8	Agosto	2023-08-14T00:00:00	2024-11-08T15:00:00	2	Temperatura media	22.2
111330	7	Sololá	704	Santa Lucía Utatlán 	7	Santa Rita 	8	Agosto	2023-08-14T00:00:00	2024-11-08T15:00:00	4	Temperatura máxima	23.2
111331	7	Sololá	704	Santa Lucía Utatlán 	7	Santa Rita 	8	Agosto	2023-08-14T00:00:00	2024-11-08T15:00:00	3	Temperatura mínima	22.2
111332	7	Sololá	704	Santa Lucía Utatlán 	7	Santa Rita 	8	Agosto	2023-08-14T00:00:00	2024-11-08T15:00:00	5	Humedad	65
111333	7	Sololá	704	Santa Lucía Utatlán 	7	Santa Rita 	8	Agosto	2023-08-14T00:00:00	2024-11-08T15:00:00	6	Velocidad del viento	6.4
111334	7	Sololá	704	Santa Lucía Utatlán 	7	Santa Rita 	8	Agosto	2023-08-14T00:00:00	2024-11-08T15:00:00	7	Dirección del viento	6.44
111335	7	Sololá	704	Santa Lucía Utatlán 	7	Santa Rita 	8	Agosto	2023-08-14T00:00:00	2024-11-08T15:00:00	1	Precipitación	0
111336	7	Sololá	704	Santa Lucía Utatlán 	7	Santa Rita 	8	Agosto	2023-08-14T00:00:00	2024-11-08T15:00:00	8	Radiación solar	396
111337	7	Sololá	704	Santa Lucía Utatlán 	7	Santa Rita 	8	Agosto	2023-08-14T00:00:00	2024-11-08T16:00:00	2	Temperatura media	20.4
111338	7	Sololá	704	Santa Lucía Utatlán 	7	Santa Rita 	8	Agosto	2023-08-14T00:00:00	2024-11-08T16:00:00	4	Temperatura máxima	22.3
111339	7	Sololá	704	Santa Lucía Utatlán 	7	Santa Rita 	8	Agosto	2023-08-14T00:00:00	2024-11-08T16:00:00	3	Temperatura mínima	20.4
111340	7	Sololá	704	Santa Lucía Utatlán 	7	Santa Rita 	8	Agosto	2023-08-14T00:00:00	2024-11-08T16:00:00	5	Humedad	80
111341	7	Sololá	704	Santa Lucía Utatlán 	7	Santa Rita 	8	Agosto	2023-08-14T00:00:00	2024-11-08T16:00:00	6	Velocidad del viento	3.2
111342	7	Sololá	704	Santa Lucía Utatlán 	7	Santa Rita 	8	Agosto	2023-08-14T00:00:00	2024-11-08T16:00:00	7	Dirección del viento	3.22
111343	7	Sololá	704	Santa Lucía Utatlán 	7	Santa Rita 	8	Agosto	2023-08-14T00:00:00	2024-11-08T16:00:00	1	Precipitación	0
111344	7	Sololá	704	Santa Lucía Utatlán 	7	Santa Rita 	8	Agosto	2023-08-14T00:00:00	2024-11-08T16:00:00	8	Radiación solar	310
111345	7	Sololá	704	Santa Lucía Utatlán 	7	Santa Rita 	8	Agosto	2023-08-14T00:00:00	2024-11-08T17:00:00	2	Temperatura media	18.7
111346	7	Sololá	704	Santa Lucía Utatlán 	7	Santa Rita 	8	Agosto	2023-08-14T00:00:00	2024-11-08T17:00:00	4	Temperatura máxima	20.4
111347	7	Sololá	704	Santa Lucía Utatlán 	7	Santa Rita 	8	Agosto	2023-08-14T00:00:00	2024-11-08T17:00:00	3	Temperatura mínima	18.7
111348	7	Sololá	704	Santa Lucía Utatlán 	7	Santa Rita 	8	Agosto	2023-08-14T00:00:00	2024-11-08T17:00:00	5	Humedad	84
111349	7	Sololá	704	Santa Lucía Utatlán 	7	Santa Rita 	8	Agosto	2023-08-14T00:00:00	2024-11-08T17:00:00	6	Velocidad del viento	3.2
111350	7	Sololá	704	Santa Lucía Utatlán 	7	Santa Rita 	8	Agosto	2023-08-14T00:00:00	2024-11-08T17:00:00	7	Dirección del viento	3.22
111351	7	Sololá	704	Santa Lucía Utatlán 	7	Santa Rita 	8	Agosto	2023-08-14T00:00:00	2024-11-08T17:00:00	1	Precipitación	0
111352	7	Sololá	704	Santa Lucía Utatlán 	7	Santa Rita 	8	Agosto	2023-08-14T00:00:00	2024-11-08T17:00:00	8	Radiación solar	151
111353	7	Sololá	704	Santa Lucía Utatlán 	7	Santa Rita 	8	Agosto	2023-08-14T00:00:00	2024-11-08T18:00:00	2	Temperatura media	19.1
111354	7	Sololá	704	Santa Lucía Utatlán 	7	Santa Rita 	8	Agosto	2023-08-14T00:00:00	2024-11-08T18:00:00	4	Temperatura máxima	19.3
111355	7	Sololá	704	Santa Lucía Utatlán 	7	Santa Rita 	8	Agosto	2023-08-14T00:00:00	2024-11-08T18:00:00	3	Temperatura mínima	18.4
111356	7	Sololá	704	Santa Lucía Utatlán 	7	Santa Rita 	8	Agosto	2023-08-14T00:00:00	2024-11-08T18:00:00	5	Humedad	85
111357	7	Sololá	704	Santa Lucía Utatlán 	7	Santa Rita 	8	Agosto	2023-08-14T00:00:00	2024-11-08T18:00:00	6	Velocidad del viento	4.8
111358	7	Sololá	704	Santa Lucía Utatlán 	7	Santa Rita 	8	Agosto	2023-08-14T00:00:00	2024-11-08T18:00:00	7	Dirección del viento	4.83
111359	7	Sololá	704	Santa Lucía Utatlán 	7	Santa Rita 	8	Agosto	2023-08-14T00:00:00	2024-11-08T18:00:00	1	Precipitación	0
111360	7	Sololá	704	Santa Lucía Utatlán 	7	Santa Rita 	8	Agosto	2023-08-14T00:00:00	2024-11-08T18:00:00	8	Radiación solar	19
111361	7	Sololá	704	Santa Lucía Utatlán 	7	Santa Rita 	8	Agosto	2023-08-14T00:00:00	2024-11-08T19:00:00	2	Temperatura media	18.6
111362	7	Sololá	704	Santa Lucía Utatlán 	7	Santa Rita 	8	Agosto	2023-08-14T00:00:00	2024-11-08T19:00:00	4	Temperatura máxima	19.1
111363	7	Sololá	704	Santa Lucía Utatlán 	7	Santa Rita 	8	Agosto	2023-08-14T00:00:00	2024-11-08T19:00:00	3	Temperatura mínima	18.4
111364	7	Sololá	704	Santa Lucía Utatlán 	7	Santa Rita 	8	Agosto	2023-08-14T00:00:00	2024-11-08T19:00:00	5	Humedad	84
111365	7	Sololá	704	Santa Lucía Utatlán 	7	Santa Rita 	8	Agosto	2023-08-14T00:00:00	2024-11-08T19:00:00	6	Velocidad del viento	3.2
111366	7	Sololá	704	Santa Lucía Utatlán 	7	Santa Rita 	8	Agosto	2023-08-14T00:00:00	2024-11-08T19:00:00	7	Dirección del viento	3.22
111367	7	Sololá	704	Santa Lucía Utatlán 	7	Santa Rita 	8	Agosto	2023-08-14T00:00:00	2024-11-08T19:00:00	1	Precipitación	0
111368	7	Sololá	704	Santa Lucía Utatlán 	7	Santa Rita 	8	Agosto	2023-08-14T00:00:00	2024-11-08T19:00:00	8	Radiación solar	0
111369	7	Sololá	704	Santa Lucía Utatlán 	7	Santa Rita 	8	Agosto	2023-08-14T00:00:00	2024-11-08T20:00:00	2	Temperatura media	19.9
111370	7	Sololá	704	Santa Lucía Utatlán 	7	Santa Rita 	8	Agosto	2023-08-14T00:00:00	2024-11-08T20:00:00	4	Temperatura máxima	20.4
111371	7	Sololá	704	Santa Lucía Utatlán 	7	Santa Rita 	8	Agosto	2023-08-14T00:00:00	2024-11-08T20:00:00	3	Temperatura mínima	18.6
111372	7	Sololá	704	Santa Lucía Utatlán 	7	Santa Rita 	8	Agosto	2023-08-14T00:00:00	2024-11-08T20:00:00	5	Humedad	81
111373	7	Sololá	704	Santa Lucía Utatlán 	7	Santa Rita 	8	Agosto	2023-08-14T00:00:00	2024-11-08T20:00:00	6	Velocidad del viento	6.4
111374	7	Sololá	704	Santa Lucía Utatlán 	7	Santa Rita 	8	Agosto	2023-08-14T00:00:00	2024-11-08T20:00:00	7	Dirección del viento	6.44
111375	7	Sololá	704	Santa Lucía Utatlán 	7	Santa Rita 	8	Agosto	2023-08-14T00:00:00	2024-11-08T20:00:00	1	Precipitación	0
111376	7	Sololá	704	Santa Lucía Utatlán 	7	Santa Rita 	8	Agosto	2023-08-14T00:00:00	2024-11-08T20:00:00	8	Radiación solar	0
111377	7	Sololá	704	Santa Lucía Utatlán 	7	Santa Rita 	8	Agosto	2023-08-14T00:00:00	2024-11-08T21:00:00	2	Temperatura media	21.1
111378	7	Sololá	704	Santa Lucía Utatlán 	7	Santa Rita 	8	Agosto	2023-08-14T00:00:00	2024-11-08T21:00:00	4	Temperatura máxima	21.3
111379	7	Sololá	704	Santa Lucía Utatlán 	7	Santa Rita 	8	Agosto	2023-08-14T00:00:00	2024-11-08T21:00:00	3	Temperatura mínima	20.3
111380	7	Sololá	704	Santa Lucía Utatlán 	7	Santa Rita 	8	Agosto	2023-08-14T00:00:00	2024-11-08T21:00:00	5	Humedad	73
111381	7	Sololá	704	Santa Lucía Utatlán 	7	Santa Rita 	8	Agosto	2023-08-14T00:00:00	2024-11-08T21:00:00	6	Velocidad del viento	8
111382	7	Sololá	704	Santa Lucía Utatlán 	7	Santa Rita 	8	Agosto	2023-08-14T00:00:00	2024-11-08T21:00:00	7	Dirección del viento	8.05
111383	7	Sololá	704	Santa Lucía Utatlán 	7	Santa Rita 	8	Agosto	2023-08-14T00:00:00	2024-11-08T21:00:00	1	Precipitación	0
111384	7	Sololá	704	Santa Lucía Utatlán 	7	Santa Rita 	8	Agosto	2023-08-14T00:00:00	2024-11-08T21:00:00	8	Radiación solar	0
111385	7	Sololá	704	Santa Lucía Utatlán 	7	Santa Rita 	8	Agosto	2023-08-14T00:00:00	2024-11-08T22:00:00	2	Temperatura media	18.4
111386	7	Sololá	704	Santa Lucía Utatlán 	7	Santa Rita 	8	Agosto	2023-08-14T00:00:00	2024-11-08T22:00:00	4	Temperatura máxima	18.5
111387	7	Sololá	704	Santa Lucía Utatlán 	7	Santa Rita 	8	Agosto	2023-08-14T00:00:00	2024-11-08T22:00:00	3	Temperatura mínima	18.2
111388	7	Sololá	704	Santa Lucía Utatlán 	7	Santa Rita 	8	Agosto	2023-08-14T00:00:00	2024-11-08T22:00:00	5	Humedad	88
111389	7	Sololá	704	Santa Lucía Utatlán 	7	Santa Rita 	8	Agosto	2023-08-14T00:00:00	2024-11-08T22:00:00	6	Velocidad del viento	4.8
111390	7	Sololá	704	Santa Lucía Utatlán 	7	Santa Rita 	8	Agosto	2023-08-14T00:00:00	2024-11-08T22:00:00	7	Dirección del viento	4.83
111391	7	Sololá	704	Santa Lucía Utatlán 	7	Santa Rita 	8	Agosto	2023-08-14T00:00:00	2024-11-08T22:00:00	1	Precipitación	1.4
111392	7	Sololá	704	Santa Lucía Utatlán 	7	Santa Rita 	8	Agosto	2023-08-14T00:00:00	2024-11-08T22:00:00	8	Radiación solar	0
111393	7	Sololá	704	Santa Lucía Utatlán 	7	Santa Rita 	8	Agosto	2023-08-14T00:00:00	2024-11-08T23:00:00	2	Temperatura media	17.4
111394	7	Sololá	704	Santa Lucía Utatlán 	7	Santa Rita 	8	Agosto	2023-08-14T00:00:00	2024-11-08T23:00:00	4	Temperatura máxima	18.5
111395	7	Sololá	704	Santa Lucía Utatlán 	7	Santa Rita 	8	Agosto	2023-08-14T00:00:00	2024-11-08T23:00:00	3	Temperatura mínima	17.4
111396	7	Sololá	704	Santa Lucía Utatlán 	7	Santa Rita 	8	Agosto	2023-08-14T00:00:00	2024-11-08T23:00:00	5	Humedad	91
111397	7	Sololá	704	Santa Lucía Utatlán 	7	Santa Rita 	8	Agosto	2023-08-14T00:00:00	2024-11-08T23:00:00	6	Velocidad del viento	4.8
111398	7	Sololá	704	Santa Lucía Utatlán 	7	Santa Rita 	8	Agosto	2023-08-14T00:00:00	2024-11-08T23:00:00	7	Dirección del viento	4.83
111399	7	Sololá	704	Santa Lucía Utatlán 	7	Santa Rita 	8	Agosto	2023-08-14T00:00:00	2024-11-08T23:00:00	1	Precipitación	0
111400	7	Sololá	704	Santa Lucía Utatlán 	7	Santa Rita 	8	Agosto	2023-08-14T00:00:00	2024-11-08T23:00:00	8	Radiación solar	0
111401	7	Sololá	704	Santa Lucía Utatlán 	7	Santa Rita 	8	Agosto	2023-08-15T00:00:00	2024-11-08T00:00:00	2	Temperatura media	16.7
111402	7	Sololá	704	Santa Lucía Utatlán 	7	Santa Rita 	8	Agosto	2023-08-15T00:00:00	2024-11-08T00:00:00	4	Temperatura máxima	17.5
111403	7	Sololá	704	Santa Lucía Utatlán 	7	Santa Rita 	8	Agosto	2023-08-15T00:00:00	2024-11-08T00:00:00	3	Temperatura mínima	16.7
111404	7	Sololá	704	Santa Lucía Utatlán 	7	Santa Rita 	8	Agosto	2023-08-15T00:00:00	2024-11-08T00:00:00	5	Humedad	93
111405	7	Sololá	704	Santa Lucía Utatlán 	7	Santa Rita 	8	Agosto	2023-08-15T00:00:00	2024-11-08T00:00:00	6	Velocidad del viento	1.6
111406	7	Sololá	704	Santa Lucía Utatlán 	7	Santa Rita 	8	Agosto	2023-08-15T00:00:00	2024-11-08T00:00:00	7	Dirección del viento	1.61
111407	7	Sololá	704	Santa Lucía Utatlán 	7	Santa Rita 	8	Agosto	2023-08-15T00:00:00	2024-11-08T00:00:00	1	Precipitación	0
111408	7	Sololá	704	Santa Lucía Utatlán 	7	Santa Rita 	8	Agosto	2023-08-15T00:00:00	2024-11-08T00:00:00	8	Radiación solar	0
111409	7	Sololá	704	Santa Lucía Utatlán 	7	Santa Rita 	8	Agosto	2023-08-15T00:00:00	2024-11-08T01:00:00	2	Temperatura media	16.9
111410	7	Sololá	704	Santa Lucía Utatlán 	7	Santa Rita 	8	Agosto	2023-08-15T00:00:00	2024-11-08T01:00:00	4	Temperatura máxima	17.1
111411	7	Sololá	704	Santa Lucía Utatlán 	7	Santa Rita 	8	Agosto	2023-08-15T00:00:00	2024-11-08T01:00:00	3	Temperatura mínima	16.6
111412	7	Sololá	704	Santa Lucía Utatlán 	7	Santa Rita 	8	Agosto	2023-08-15T00:00:00	2024-11-08T01:00:00	5	Humedad	92
111413	7	Sololá	704	Santa Lucía Utatlán 	7	Santa Rita 	8	Agosto	2023-08-15T00:00:00	2024-11-08T01:00:00	6	Velocidad del viento	3.2
111414	7	Sololá	704	Santa Lucía Utatlán 	7	Santa Rita 	8	Agosto	2023-08-15T00:00:00	2024-11-08T01:00:00	7	Dirección del viento	3.22
111415	7	Sololá	704	Santa Lucía Utatlán 	7	Santa Rita 	8	Agosto	2023-08-15T00:00:00	2024-11-08T01:00:00	1	Precipitación	0
111416	7	Sololá	704	Santa Lucía Utatlán 	7	Santa Rita 	8	Agosto	2023-08-15T00:00:00	2024-11-08T01:00:00	8	Radiación solar	0
111417	7	Sololá	704	Santa Lucía Utatlán 	7	Santa Rita 	8	Agosto	2023-08-15T00:00:00	2024-11-08T02:00:00	2	Temperatura media	17
111418	7	Sololá	704	Santa Lucía Utatlán 	7	Santa Rita 	8	Agosto	2023-08-15T00:00:00	2024-11-08T02:00:00	4	Temperatura máxima	17.2
111419	7	Sololá	704	Santa Lucía Utatlán 	7	Santa Rita 	8	Agosto	2023-08-15T00:00:00	2024-11-08T02:00:00	3	Temperatura mínima	16.9
111420	7	Sololá	704	Santa Lucía Utatlán 	7	Santa Rita 	8	Agosto	2023-08-15T00:00:00	2024-11-08T02:00:00	5	Humedad	92
111421	7	Sololá	704	Santa Lucía Utatlán 	7	Santa Rita 	8	Agosto	2023-08-15T00:00:00	2024-11-08T02:00:00	6	Velocidad del viento	1.6
111422	7	Sololá	704	Santa Lucía Utatlán 	7	Santa Rita 	8	Agosto	2023-08-15T00:00:00	2024-11-08T02:00:00	7	Dirección del viento	1.61
111423	7	Sololá	704	Santa Lucía Utatlán 	7	Santa Rita 	8	Agosto	2023-08-15T00:00:00	2024-11-08T02:00:00	1	Precipitación	0
111424	7	Sololá	704	Santa Lucía Utatlán 	7	Santa Rita 	8	Agosto	2023-08-15T00:00:00	2024-11-08T02:00:00	8	Radiación solar	0
111425	7	Sololá	704	Santa Lucía Utatlán 	7	Santa Rita 	8	Agosto	2023-08-15T00:00:00	2024-11-08T03:00:00	2	Temperatura media	17.5
111426	7	Sololá	704	Santa Lucía Utatlán 	7	Santa Rita 	8	Agosto	2023-08-15T00:00:00	2024-11-08T03:00:00	4	Temperatura máxima	17.9
111427	7	Sololá	704	Santa Lucía Utatlán 	7	Santa Rita 	8	Agosto	2023-08-15T00:00:00	2024-11-08T03:00:00	3	Temperatura mínima	16.8
111428	7	Sololá	704	Santa Lucía Utatlán 	7	Santa Rita 	8	Agosto	2023-08-15T00:00:00	2024-11-08T03:00:00	5	Humedad	89
111429	7	Sololá	704	Santa Lucía Utatlán 	7	Santa Rita 	8	Agosto	2023-08-15T00:00:00	2024-11-08T03:00:00	6	Velocidad del viento	3.2
111430	7	Sololá	704	Santa Lucía Utatlán 	7	Santa Rita 	8	Agosto	2023-08-15T00:00:00	2024-11-08T03:00:00	7	Dirección del viento	3.22
111431	7	Sololá	704	Santa Lucía Utatlán 	7	Santa Rita 	8	Agosto	2023-08-15T00:00:00	2024-11-08T03:00:00	1	Precipitación	0
111432	7	Sololá	704	Santa Lucía Utatlán 	7	Santa Rita 	8	Agosto	2023-08-15T00:00:00	2024-11-08T03:00:00	8	Radiación solar	0
111433	7	Sololá	704	Santa Lucía Utatlán 	7	Santa Rita 	8	Agosto	2023-08-15T00:00:00	2024-11-08T04:00:00	2	Temperatura media	19.2
111434	7	Sololá	704	Santa Lucía Utatlán 	7	Santa Rita 	8	Agosto	2023-08-15T00:00:00	2024-11-08T04:00:00	4	Temperatura máxima	19.7
111435	7	Sololá	704	Santa Lucía Utatlán 	7	Santa Rita 	8	Agosto	2023-08-15T00:00:00	2024-11-08T04:00:00	3	Temperatura mínima	17.5
111436	7	Sololá	704	Santa Lucía Utatlán 	7	Santa Rita 	8	Agosto	2023-08-15T00:00:00	2024-11-08T04:00:00	5	Humedad	84
111437	7	Sololá	704	Santa Lucía Utatlán 	7	Santa Rita 	8	Agosto	2023-08-15T00:00:00	2024-11-08T04:00:00	6	Velocidad del viento	4.8
111438	7	Sololá	704	Santa Lucía Utatlán 	7	Santa Rita 	8	Agosto	2023-08-15T00:00:00	2024-11-08T04:00:00	7	Dirección del viento	4.83
111439	7	Sololá	704	Santa Lucía Utatlán 	7	Santa Rita 	8	Agosto	2023-08-15T00:00:00	2024-11-08T04:00:00	1	Precipitación	0
111440	7	Sololá	704	Santa Lucía Utatlán 	7	Santa Rita 	8	Agosto	2023-08-15T00:00:00	2024-11-08T04:00:00	8	Radiación solar	0
111441	7	Sololá	704	Santa Lucía Utatlán 	7	Santa Rita 	8	Agosto	2023-08-15T00:00:00	2024-11-08T05:00:00	2	Temperatura media	21.9
111442	7	Sololá	704	Santa Lucía Utatlán 	7	Santa Rita 	8	Agosto	2023-08-15T00:00:00	2024-11-08T05:00:00	4	Temperatura máxima	21.9
111443	7	Sololá	704	Santa Lucía Utatlán 	7	Santa Rita 	8	Agosto	2023-08-15T00:00:00	2024-11-08T05:00:00	3	Temperatura mínima	19.2
111444	7	Sololá	704	Santa Lucía Utatlán 	7	Santa Rita 	8	Agosto	2023-08-15T00:00:00	2024-11-08T05:00:00	5	Humedad	69
111445	7	Sololá	704	Santa Lucía Utatlán 	7	Santa Rita 	8	Agosto	2023-08-15T00:00:00	2024-11-08T05:00:00	6	Velocidad del viento	3.2
111446	7	Sololá	704	Santa Lucía Utatlán 	7	Santa Rita 	8	Agosto	2023-08-15T00:00:00	2024-11-08T05:00:00	7	Dirección del viento	3.22
111447	7	Sololá	704	Santa Lucía Utatlán 	7	Santa Rita 	8	Agosto	2023-08-15T00:00:00	2024-11-08T05:00:00	1	Precipitación	0
111448	7	Sololá	704	Santa Lucía Utatlán 	7	Santa Rita 	8	Agosto	2023-08-15T00:00:00	2024-11-08T05:00:00	8	Radiación solar	0
111449	7	Sololá	704	Santa Lucía Utatlán 	7	Santa Rita 	8	Agosto	2023-08-15T00:00:00	2024-11-08T06:00:00	2	Temperatura media	22
111450	7	Sololá	704	Santa Lucía Utatlán 	7	Santa Rita 	8	Agosto	2023-08-15T00:00:00	2024-11-08T06:00:00	4	Temperatura máxima	23.5
111451	7	Sololá	704	Santa Lucía Utatlán 	7	Santa Rita 	8	Agosto	2023-08-15T00:00:00	2024-11-08T06:00:00	3	Temperatura mínima	21.7
111452	7	Sololá	704	Santa Lucía Utatlán 	7	Santa Rita 	8	Agosto	2023-08-15T00:00:00	2024-11-08T06:00:00	5	Humedad	66
111453	7	Sololá	704	Santa Lucía Utatlán 	7	Santa Rita 	8	Agosto	2023-08-15T00:00:00	2024-11-08T06:00:00	6	Velocidad del viento	4.8
111454	7	Sololá	704	Santa Lucía Utatlán 	7	Santa Rita 	8	Agosto	2023-08-15T00:00:00	2024-11-08T06:00:00	7	Dirección del viento	4.83
111455	7	Sololá	704	Santa Lucía Utatlán 	7	Santa Rita 	8	Agosto	2023-08-15T00:00:00	2024-11-08T06:00:00	1	Precipitación	0
111456	7	Sololá	704	Santa Lucía Utatlán 	7	Santa Rita 	8	Agosto	2023-08-15T00:00:00	2024-11-08T06:00:00	8	Radiación solar	3
111457	7	Sololá	704	Santa Lucía Utatlán 	7	Santa Rita 	8	Agosto	2023-08-15T00:00:00	2024-11-08T07:00:00	2	Temperatura media	20.9
111458	7	Sololá	704	Santa Lucía Utatlán 	7	Santa Rita 	8	Agosto	2023-08-15T00:00:00	2024-11-08T07:00:00	4	Temperatura máxima	22.4
111459	7	Sololá	704	Santa Lucía Utatlán 	7	Santa Rita 	8	Agosto	2023-08-15T00:00:00	2024-11-08T07:00:00	3	Temperatura mínima	20.7
111460	7	Sololá	704	Santa Lucía Utatlán 	7	Santa Rita 	8	Agosto	2023-08-15T00:00:00	2024-11-08T07:00:00	5	Humedad	79
111461	7	Sololá	704	Santa Lucía Utatlán 	7	Santa Rita 	8	Agosto	2023-08-15T00:00:00	2024-11-08T07:00:00	6	Velocidad del viento	4.8
111462	7	Sololá	704	Santa Lucía Utatlán 	7	Santa Rita 	8	Agosto	2023-08-15T00:00:00	2024-11-08T07:00:00	7	Dirección del viento	4.83
111463	7	Sololá	704	Santa Lucía Utatlán 	7	Santa Rita 	8	Agosto	2023-08-15T00:00:00	2024-11-08T07:00:00	1	Precipitación	0
111464	7	Sololá	704	Santa Lucía Utatlán 	7	Santa Rita 	8	Agosto	2023-08-15T00:00:00	2024-11-08T07:00:00	8	Radiación solar	84
111465	7	Sololá	704	Santa Lucía Utatlán 	7	Santa Rita 	8	Agosto	2023-08-15T00:00:00	2024-11-08T08:00:00	2	Temperatura media	22.7
111466	7	Sololá	704	Santa Lucía Utatlán 	7	Santa Rita 	8	Agosto	2023-08-15T00:00:00	2024-11-08T08:00:00	4	Temperatura máxima	22.9
111467	7	Sololá	704	Santa Lucía Utatlán 	7	Santa Rita 	8	Agosto	2023-08-15T00:00:00	2024-11-08T08:00:00	3	Temperatura mínima	20.9
111468	7	Sololá	704	Santa Lucía Utatlán 	7	Santa Rita 	8	Agosto	2023-08-15T00:00:00	2024-11-08T08:00:00	5	Humedad	67
111469	7	Sololá	704	Santa Lucía Utatlán 	7	Santa Rita 	8	Agosto	2023-08-15T00:00:00	2024-11-08T08:00:00	6	Velocidad del viento	6.4
111470	7	Sololá	704	Santa Lucía Utatlán 	7	Santa Rita 	8	Agosto	2023-08-15T00:00:00	2024-11-08T08:00:00	7	Dirección del viento	6.44
111471	7	Sololá	704	Santa Lucía Utatlán 	7	Santa Rita 	8	Agosto	2023-08-15T00:00:00	2024-11-08T08:00:00	1	Precipitación	0
111472	7	Sololá	704	Santa Lucía Utatlán 	7	Santa Rita 	8	Agosto	2023-08-15T00:00:00	2024-11-08T08:00:00	8	Radiación solar	318
111473	7	Sololá	704	Santa Lucía Utatlán 	7	Santa Rita 	8	Agosto	2023-08-15T00:00:00	2024-11-08T09:00:00	2	Temperatura media	22.6
111474	7	Sololá	704	Santa Lucía Utatlán 	7	Santa Rita 	8	Agosto	2023-08-15T00:00:00	2024-11-08T09:00:00	4	Temperatura máxima	22.8
111475	7	Sololá	704	Santa Lucía Utatlán 	7	Santa Rita 	8	Agosto	2023-08-15T00:00:00	2024-11-08T09:00:00	3	Temperatura mínima	22.2
111476	7	Sololá	704	Santa Lucía Utatlán 	7	Santa Rita 	8	Agosto	2023-08-15T00:00:00	2024-11-08T09:00:00	5	Humedad	69
111477	7	Sololá	704	Santa Lucía Utatlán 	7	Santa Rita 	8	Agosto	2023-08-15T00:00:00	2024-11-08T09:00:00	6	Velocidad del viento	8
111478	7	Sololá	704	Santa Lucía Utatlán 	7	Santa Rita 	8	Agosto	2023-08-15T00:00:00	2024-11-08T09:00:00	7	Dirección del viento	8.05
111479	7	Sololá	704	Santa Lucía Utatlán 	7	Santa Rita 	8	Agosto	2023-08-15T00:00:00	2024-11-08T09:00:00	1	Precipitación	0
111480	7	Sololá	704	Santa Lucía Utatlán 	7	Santa Rita 	8	Agosto	2023-08-15T00:00:00	2024-11-08T09:00:00	8	Radiación solar	536
111481	7	Sololá	704	Santa Lucía Utatlán 	7	Santa Rita 	8	Agosto	2023-08-15T00:00:00	2024-11-08T10:00:00	2	Temperatura media	21.1
111482	7	Sololá	704	Santa Lucía Utatlán 	7	Santa Rita 	8	Agosto	2023-08-15T00:00:00	2024-11-08T10:00:00	4	Temperatura máxima	22.6
111483	7	Sololá	704	Santa Lucía Utatlán 	7	Santa Rita 	8	Agosto	2023-08-15T00:00:00	2024-11-08T10:00:00	3	Temperatura mínima	21.1
111484	7	Sololá	704	Santa Lucía Utatlán 	7	Santa Rita 	8	Agosto	2023-08-15T00:00:00	2024-11-08T10:00:00	5	Humedad	80
111485	7	Sololá	704	Santa Lucía Utatlán 	7	Santa Rita 	8	Agosto	2023-08-15T00:00:00	2024-11-08T10:00:00	6	Velocidad del viento	6.4
111486	7	Sololá	704	Santa Lucía Utatlán 	7	Santa Rita 	8	Agosto	2023-08-15T00:00:00	2024-11-08T10:00:00	7	Dirección del viento	6.44
111487	7	Sololá	704	Santa Lucía Utatlán 	7	Santa Rita 	8	Agosto	2023-08-15T00:00:00	2024-11-08T10:00:00	1	Precipitación	0
111488	7	Sololá	704	Santa Lucía Utatlán 	7	Santa Rita 	8	Agosto	2023-08-15T00:00:00	2024-11-08T10:00:00	8	Radiación solar	292
111489	7	Sololá	704	Santa Lucía Utatlán 	7	Santa Rita 	8	Agosto	2023-08-15T00:00:00	2024-11-08T11:00:00	2	Temperatura media	20.9
111490	7	Sololá	704	Santa Lucía Utatlán 	7	Santa Rita 	8	Agosto	2023-08-15T00:00:00	2024-11-08T11:00:00	4	Temperatura máxima	21.2
111491	7	Sololá	704	Santa Lucía Utatlán 	7	Santa Rita 	8	Agosto	2023-08-15T00:00:00	2024-11-08T11:00:00	3	Temperatura mínima	20.7
111492	7	Sololá	704	Santa Lucía Utatlán 	7	Santa Rita 	8	Agosto	2023-08-15T00:00:00	2024-11-08T11:00:00	5	Humedad	78
111493	7	Sololá	704	Santa Lucía Utatlán 	7	Santa Rita 	8	Agosto	2023-08-15T00:00:00	2024-11-08T11:00:00	6	Velocidad del viento	6.4
111494	7	Sololá	704	Santa Lucía Utatlán 	7	Santa Rita 	8	Agosto	2023-08-15T00:00:00	2024-11-08T11:00:00	7	Dirección del viento	6.44
111495	7	Sololá	704	Santa Lucía Utatlán 	7	Santa Rita 	8	Agosto	2023-08-15T00:00:00	2024-11-08T11:00:00	1	Precipitación	0
111496	7	Sololá	704	Santa Lucía Utatlán 	7	Santa Rita 	8	Agosto	2023-08-15T00:00:00	2024-11-08T11:00:00	8	Radiación solar	583
111497	7	Sololá	704	Santa Lucía Utatlán 	7	Santa Rita 	8	Agosto	2023-08-15T00:00:00	2024-11-08T12:00:00	2	Temperatura media	22.3
111498	7	Sololá	704	Santa Lucía Utatlán 	7	Santa Rita 	8	Agosto	2023-08-15T00:00:00	2024-11-08T12:00:00	4	Temperatura máxima	22.3
111499	7	Sololá	704	Santa Lucía Utatlán 	7	Santa Rita 	8	Agosto	2023-08-15T00:00:00	2024-11-08T12:00:00	3	Temperatura mínima	20.8
111500	7	Sololá	704	Santa Lucía Utatlán 	7	Santa Rita 	8	Agosto	2023-08-15T00:00:00	2024-11-08T12:00:00	5	Humedad	73
111501	7	Sololá	704	Santa Lucía Utatlán 	7	Santa Rita 	8	Agosto	2023-08-15T00:00:00	2024-11-08T12:00:00	6	Velocidad del viento	3.2
111502	7	Sololá	704	Santa Lucía Utatlán 	7	Santa Rita 	8	Agosto	2023-08-15T00:00:00	2024-11-08T12:00:00	7	Dirección del viento	3.22
111503	7	Sololá	704	Santa Lucía Utatlán 	7	Santa Rita 	8	Agosto	2023-08-15T00:00:00	2024-11-08T12:00:00	1	Precipitación	0
111504	7	Sololá	704	Santa Lucía Utatlán 	7	Santa Rita 	8	Agosto	2023-08-15T00:00:00	2024-11-08T12:00:00	8	Radiación solar	591
111505	7	Sololá	704	Santa Lucía Utatlán 	7	Santa Rita 	8	Agosto	2023-08-15T00:00:00	2024-11-08T13:00:00	2	Temperatura media	21.3
111506	7	Sololá	704	Santa Lucía Utatlán 	7	Santa Rita 	8	Agosto	2023-08-15T00:00:00	2024-11-08T13:00:00	4	Temperatura máxima	22.5
111507	7	Sololá	704	Santa Lucía Utatlán 	7	Santa Rita 	8	Agosto	2023-08-15T00:00:00	2024-11-08T13:00:00	3	Temperatura mínima	21.3
111508	7	Sololá	704	Santa Lucía Utatlán 	7	Santa Rita 	8	Agosto	2023-08-15T00:00:00	2024-11-08T13:00:00	5	Humedad	77
111509	7	Sololá	704	Santa Lucía Utatlán 	7	Santa Rita 	8	Agosto	2023-08-15T00:00:00	2024-11-08T13:00:00	6	Velocidad del viento	6.4
111510	7	Sololá	704	Santa Lucía Utatlán 	7	Santa Rita 	8	Agosto	2023-08-15T00:00:00	2024-11-08T13:00:00	7	Dirección del viento	6.44
111511	7	Sololá	704	Santa Lucía Utatlán 	7	Santa Rita 	8	Agosto	2023-08-15T00:00:00	2024-11-08T13:00:00	1	Precipitación	0
111512	7	Sololá	704	Santa Lucía Utatlán 	7	Santa Rita 	8	Agosto	2023-08-15T00:00:00	2024-11-08T13:00:00	8	Radiación solar	183
111513	7	Sololá	704	Santa Lucía Utatlán 	7	Santa Rita 	8	Agosto	2023-08-15T00:00:00	2024-11-08T14:00:00	2	Temperatura media	20.6
111514	7	Sololá	704	Santa Lucía Utatlán 	7	Santa Rita 	8	Agosto	2023-08-15T00:00:00	2024-11-08T14:00:00	4	Temperatura máxima	21.3
111515	7	Sololá	704	Santa Lucía Utatlán 	7	Santa Rita 	8	Agosto	2023-08-15T00:00:00	2024-11-08T14:00:00	3	Temperatura mínima	20.1
111516	7	Sololá	704	Santa Lucía Utatlán 	7	Santa Rita 	8	Agosto	2023-08-15T00:00:00	2024-11-08T14:00:00	5	Humedad	85
111517	7	Sololá	704	Santa Lucía Utatlán 	7	Santa Rita 	8	Agosto	2023-08-15T00:00:00	2024-11-08T14:00:00	6	Velocidad del viento	4.8
111518	7	Sololá	704	Santa Lucía Utatlán 	7	Santa Rita 	8	Agosto	2023-08-15T00:00:00	2024-11-08T14:00:00	7	Dirección del viento	4.83
111519	7	Sololá	704	Santa Lucía Utatlán 	7	Santa Rita 	8	Agosto	2023-08-15T00:00:00	2024-11-08T14:00:00	1	Precipitación	0
111520	7	Sololá	704	Santa Lucía Utatlán 	7	Santa Rita 	8	Agosto	2023-08-15T00:00:00	2024-11-08T14:00:00	8	Radiación solar	123
111521	7	Sololá	704	Santa Lucía Utatlán 	7	Santa Rita 	8	Agosto	2023-08-15T00:00:00	2024-11-08T15:00:00	2	Temperatura media	20.6
111522	7	Sololá	704	Santa Lucía Utatlán 	7	Santa Rita 	8	Agosto	2023-08-15T00:00:00	2024-11-08T15:00:00	4	Temperatura máxima	20.8
111523	7	Sololá	704	Santa Lucía Utatlán 	7	Santa Rita 	8	Agosto	2023-08-15T00:00:00	2024-11-08T15:00:00	3	Temperatura mínima	20.4
111524	7	Sololá	704	Santa Lucía Utatlán 	7	Santa Rita 	8	Agosto	2023-08-15T00:00:00	2024-11-08T15:00:00	5	Humedad	81
111525	7	Sololá	704	Santa Lucía Utatlán 	7	Santa Rita 	8	Agosto	2023-08-15T00:00:00	2024-11-08T15:00:00	6	Velocidad del viento	1.6
111526	7	Sololá	704	Santa Lucía Utatlán 	7	Santa Rita 	8	Agosto	2023-08-15T00:00:00	2024-11-08T15:00:00	7	Dirección del viento	1.61
111527	7	Sololá	704	Santa Lucía Utatlán 	7	Santa Rita 	8	Agosto	2023-08-15T00:00:00	2024-11-08T15:00:00	1	Precipitación	0
111528	7	Sololá	704	Santa Lucía Utatlán 	7	Santa Rita 	8	Agosto	2023-08-15T00:00:00	2024-11-08T15:00:00	8	Radiación solar	245
111529	7	Sololá	704	Santa Lucía Utatlán 	7	Santa Rita 	8	Agosto	2023-08-15T00:00:00	2024-11-08T16:00:00	2	Temperatura media	20.2
111530	7	Sololá	704	Santa Lucía Utatlán 	7	Santa Rita 	8	Agosto	2023-08-15T00:00:00	2024-11-08T16:00:00	4	Temperatura máxima	20.6
111531	7	Sololá	704	Santa Lucía Utatlán 	7	Santa Rita 	8	Agosto	2023-08-15T00:00:00	2024-11-08T16:00:00	3	Temperatura mínima	20.2
111532	7	Sololá	704	Santa Lucía Utatlán 	7	Santa Rita 	8	Agosto	2023-08-15T00:00:00	2024-11-08T16:00:00	5	Humedad	83
111533	7	Sololá	704	Santa Lucía Utatlán 	7	Santa Rita 	8	Agosto	2023-08-15T00:00:00	2024-11-08T16:00:00	6	Velocidad del viento	1.6
111534	7	Sololá	704	Santa Lucía Utatlán 	7	Santa Rita 	8	Agosto	2023-08-15T00:00:00	2024-11-08T16:00:00	7	Dirección del viento	1.61
111535	7	Sololá	704	Santa Lucía Utatlán 	7	Santa Rita 	8	Agosto	2023-08-15T00:00:00	2024-11-08T16:00:00	1	Precipitación	0
111536	7	Sololá	704	Santa Lucía Utatlán 	7	Santa Rita 	8	Agosto	2023-08-15T00:00:00	2024-11-08T16:00:00	8	Radiación solar	226
111537	7	Sololá	704	Santa Lucía Utatlán 	7	Santa Rita 	8	Agosto	2023-08-15T00:00:00	2024-11-08T17:00:00	2	Temperatura media	20.1
111538	7	Sololá	704	Santa Lucía Utatlán 	7	Santa Rita 	8	Agosto	2023-08-15T00:00:00	2024-11-08T17:00:00	4	Temperatura máxima	20.2
111539	7	Sololá	704	Santa Lucía Utatlán 	7	Santa Rita 	8	Agosto	2023-08-15T00:00:00	2024-11-08T17:00:00	3	Temperatura mínima	19.9
111540	7	Sololá	704	Santa Lucía Utatlán 	7	Santa Rita 	8	Agosto	2023-08-15T00:00:00	2024-11-08T17:00:00	5	Humedad	80
111541	7	Sololá	704	Santa Lucía Utatlán 	7	Santa Rita 	8	Agosto	2023-08-15T00:00:00	2024-11-08T17:00:00	6	Velocidad del viento	1.6
111542	7	Sololá	704	Santa Lucía Utatlán 	7	Santa Rita 	8	Agosto	2023-08-15T00:00:00	2024-11-08T17:00:00	7	Dirección del viento	1.61
111543	7	Sololá	704	Santa Lucía Utatlán 	7	Santa Rita 	8	Agosto	2023-08-15T00:00:00	2024-11-08T17:00:00	1	Precipitación	0
111544	7	Sololá	704	Santa Lucía Utatlán 	7	Santa Rita 	8	Agosto	2023-08-15T00:00:00	2024-11-08T17:00:00	8	Radiación solar	62
111545	7	Sololá	704	Santa Lucía Utatlán 	7	Santa Rita 	8	Agosto	2023-08-15T00:00:00	2024-11-08T18:00:00	2	Temperatura media	18.7
111546	7	Sololá	704	Santa Lucía Utatlán 	7	Santa Rita 	8	Agosto	2023-08-15T00:00:00	2024-11-08T18:00:00	4	Temperatura máxima	20
111547	7	Sololá	704	Santa Lucía Utatlán 	7	Santa Rita 	8	Agosto	2023-08-15T00:00:00	2024-11-08T18:00:00	3	Temperatura mínima	18.7
111548	7	Sololá	704	Santa Lucía Utatlán 	7	Santa Rita 	8	Agosto	2023-08-15T00:00:00	2024-11-08T18:00:00	5	Humedad	86
111549	7	Sololá	704	Santa Lucía Utatlán 	7	Santa Rita 	8	Agosto	2023-08-15T00:00:00	2024-11-08T18:00:00	6	Velocidad del viento	1.6
111550	7	Sololá	704	Santa Lucía Utatlán 	7	Santa Rita 	8	Agosto	2023-08-15T00:00:00	2024-11-08T18:00:00	7	Dirección del viento	1.61
111551	7	Sololá	704	Santa Lucía Utatlán 	7	Santa Rita 	8	Agosto	2023-08-15T00:00:00	2024-11-08T18:00:00	1	Precipitación	0
111552	7	Sololá	704	Santa Lucía Utatlán 	7	Santa Rita 	8	Agosto	2023-08-15T00:00:00	2024-11-08T18:00:00	8	Radiación solar	37
111553	7	Sololá	704	Santa Lucía Utatlán 	7	Santa Rita 	8	Agosto	2023-08-15T00:00:00	2024-11-08T19:00:00	2	Temperatura media	18.6
111554	7	Sololá	704	Santa Lucía Utatlán 	7	Santa Rita 	8	Agosto	2023-08-15T00:00:00	2024-11-08T19:00:00	4	Temperatura máxima	18.8
111555	7	Sololá	704	Santa Lucía Utatlán 	7	Santa Rita 	8	Agosto	2023-08-15T00:00:00	2024-11-08T19:00:00	3	Temperatura mínima	18.6
111556	7	Sololá	704	Santa Lucía Utatlán 	7	Santa Rita 	8	Agosto	2023-08-15T00:00:00	2024-11-08T19:00:00	5	Humedad	87
111557	7	Sololá	704	Santa Lucía Utatlán 	7	Santa Rita 	8	Agosto	2023-08-15T00:00:00	2024-11-08T19:00:00	6	Velocidad del viento	3.2
111558	7	Sololá	704	Santa Lucía Utatlán 	7	Santa Rita 	8	Agosto	2023-08-15T00:00:00	2024-11-08T19:00:00	7	Dirección del viento	3.22
111559	7	Sololá	704	Santa Lucía Utatlán 	7	Santa Rita 	8	Agosto	2023-08-15T00:00:00	2024-11-08T19:00:00	1	Precipitación	0
111560	7	Sololá	704	Santa Lucía Utatlán 	7	Santa Rita 	8	Agosto	2023-08-15T00:00:00	2024-11-08T19:00:00	8	Radiación solar	0
111561	7	Sololá	704	Santa Lucía Utatlán 	7	Santa Rita 	8	Agosto	2023-08-15T00:00:00	2024-11-08T20:00:00	2	Temperatura media	19.2
111562	7	Sololá	704	Santa Lucía Utatlán 	7	Santa Rita 	8	Agosto	2023-08-15T00:00:00	2024-11-08T20:00:00	4	Temperatura máxima	19.4
111563	7	Sololá	704	Santa Lucía Utatlán 	7	Santa Rita 	8	Agosto	2023-08-15T00:00:00	2024-11-08T20:00:00	3	Temperatura mínima	18.6
111564	7	Sololá	704	Santa Lucía Utatlán 	7	Santa Rita 	8	Agosto	2023-08-15T00:00:00	2024-11-08T20:00:00	5	Humedad	86
111565	7	Sololá	704	Santa Lucía Utatlán 	7	Santa Rita 	8	Agosto	2023-08-15T00:00:00	2024-11-08T20:00:00	6	Velocidad del viento	1.6
111566	7	Sololá	704	Santa Lucía Utatlán 	7	Santa Rita 	8	Agosto	2023-08-15T00:00:00	2024-11-08T20:00:00	7	Dirección del viento	1.61
111567	7	Sololá	704	Santa Lucía Utatlán 	7	Santa Rita 	8	Agosto	2023-08-15T00:00:00	2024-11-08T20:00:00	1	Precipitación	0
111568	7	Sololá	704	Santa Lucía Utatlán 	7	Santa Rita 	8	Agosto	2023-08-15T00:00:00	2024-11-08T20:00:00	8	Radiación solar	0
111569	7	Sololá	704	Santa Lucía Utatlán 	7	Santa Rita 	8	Agosto	2023-08-15T00:00:00	2024-11-08T21:00:00	2	Temperatura media	18.2
111570	7	Sololá	704	Santa Lucía Utatlán 	7	Santa Rita 	8	Agosto	2023-08-15T00:00:00	2024-11-08T21:00:00	4	Temperatura máxima	19.2
111571	7	Sololá	704	Santa Lucía Utatlán 	7	Santa Rita 	8	Agosto	2023-08-15T00:00:00	2024-11-08T21:00:00	3	Temperatura mínima	18.2
111572	7	Sololá	704	Santa Lucía Utatlán 	7	Santa Rita 	8	Agosto	2023-08-15T00:00:00	2024-11-08T21:00:00	5	Humedad	86
111573	7	Sololá	704	Santa Lucía Utatlán 	7	Santa Rita 	8	Agosto	2023-08-15T00:00:00	2024-11-08T21:00:00	6	Velocidad del viento	3.2
111574	7	Sololá	704	Santa Lucía Utatlán 	7	Santa Rita 	8	Agosto	2023-08-15T00:00:00	2024-11-08T21:00:00	7	Dirección del viento	3.22
111575	7	Sololá	704	Santa Lucía Utatlán 	7	Santa Rita 	8	Agosto	2023-08-15T00:00:00	2024-11-08T21:00:00	1	Precipitación	0
111576	7	Sololá	704	Santa Lucía Utatlán 	7	Santa Rita 	8	Agosto	2023-08-15T00:00:00	2024-11-08T21:00:00	8	Radiación solar	0
111577	7	Sololá	704	Santa Lucía Utatlán 	7	Santa Rita 	8	Agosto	2023-08-15T00:00:00	2024-11-08T22:00:00	2	Temperatura media	18.1
111578	7	Sololá	704	Santa Lucía Utatlán 	7	Santa Rita 	8	Agosto	2023-08-15T00:00:00	2024-11-08T22:00:00	4	Temperatura máxima	18.8
111579	7	Sololá	704	Santa Lucía Utatlán 	7	Santa Rita 	8	Agosto	2023-08-15T00:00:00	2024-11-08T22:00:00	3	Temperatura mínima	18
111580	7	Sololá	704	Santa Lucía Utatlán 	7	Santa Rita 	8	Agosto	2023-08-15T00:00:00	2024-11-08T22:00:00	5	Humedad	84
111581	7	Sololá	704	Santa Lucía Utatlán 	7	Santa Rita 	8	Agosto	2023-08-15T00:00:00	2024-11-08T22:00:00	6	Velocidad del viento	1.6
111582	7	Sololá	704	Santa Lucía Utatlán 	7	Santa Rita 	8	Agosto	2023-08-15T00:00:00	2024-11-08T22:00:00	7	Dirección del viento	1.61
111583	7	Sololá	704	Santa Lucía Utatlán 	7	Santa Rita 	8	Agosto	2023-08-15T00:00:00	2024-11-08T22:00:00	1	Precipitación	0
111584	7	Sololá	704	Santa Lucía Utatlán 	7	Santa Rita 	8	Agosto	2023-08-15T00:00:00	2024-11-08T22:00:00	8	Radiación solar	0
111585	7	Sololá	704	Santa Lucía Utatlán 	7	Santa Rita 	8	Agosto	2023-08-15T00:00:00	2024-11-08T23:00:00	2	Temperatura media	17.7
111586	7	Sololá	704	Santa Lucía Utatlán 	7	Santa Rita 	8	Agosto	2023-08-15T00:00:00	2024-11-08T23:00:00	4	Temperatura máxima	18.1
111587	7	Sololá	704	Santa Lucía Utatlán 	7	Santa Rita 	8	Agosto	2023-08-15T00:00:00	2024-11-08T23:00:00	3	Temperatura mínima	17.6
111588	7	Sololá	704	Santa Lucía Utatlán 	7	Santa Rita 	8	Agosto	2023-08-15T00:00:00	2024-11-08T23:00:00	5	Humedad	84
111589	7	Sololá	704	Santa Lucía Utatlán 	7	Santa Rita 	8	Agosto	2023-08-15T00:00:00	2024-11-08T23:00:00	6	Velocidad del viento	3.2
111590	7	Sololá	704	Santa Lucía Utatlán 	7	Santa Rita 	8	Agosto	2023-08-15T00:00:00	2024-11-08T23:00:00	7	Dirección del viento	3.22
111591	7	Sololá	704	Santa Lucía Utatlán 	7	Santa Rita 	8	Agosto	2023-08-15T00:00:00	2024-11-08T23:00:00	1	Precipitación	0
111592	7	Sololá	704	Santa Lucía Utatlán 	7	Santa Rita 	8	Agosto	2023-08-15T00:00:00	2024-11-08T23:00:00	8	Radiación solar	0
111593	7	Sololá	704	Santa Lucía Utatlán 	7	Santa Rita 	8	Agosto	2023-08-16T00:00:00	2024-11-08T00:00:00	2	Temperatura media	18
111594	7	Sololá	704	Santa Lucía Utatlán 	7	Santa Rita 	8	Agosto	2023-08-16T00:00:00	2024-11-08T00:00:00	4	Temperatura máxima	18
111595	7	Sololá	704	Santa Lucía Utatlán 	7	Santa Rita 	8	Agosto	2023-08-16T00:00:00	2024-11-08T00:00:00	3	Temperatura mínima	17.5
111596	7	Sololá	704	Santa Lucía Utatlán 	7	Santa Rita 	8	Agosto	2023-08-16T00:00:00	2024-11-08T00:00:00	5	Humedad	82
111597	7	Sololá	704	Santa Lucía Utatlán 	7	Santa Rita 	8	Agosto	2023-08-16T00:00:00	2024-11-08T00:00:00	6	Velocidad del viento	4.8
111598	7	Sololá	704	Santa Lucía Utatlán 	7	Santa Rita 	8	Agosto	2023-08-16T00:00:00	2024-11-08T00:00:00	7	Dirección del viento	4.83
111599	7	Sololá	704	Santa Lucía Utatlán 	7	Santa Rita 	8	Agosto	2023-08-16T00:00:00	2024-11-08T00:00:00	1	Precipitación	0
111600	7	Sololá	704	Santa Lucía Utatlán 	7	Santa Rita 	8	Agosto	2023-08-16T00:00:00	2024-11-08T00:00:00	8	Radiación solar	0
111601	7	Sololá	704	Santa Lucía Utatlán 	7	Santa Rita 	8	Agosto	2023-08-16T00:00:00	2024-11-08T01:00:00	2	Temperatura media	17.6
111602	7	Sololá	704	Santa Lucía Utatlán 	7	Santa Rita 	8	Agosto	2023-08-16T00:00:00	2024-11-08T01:00:00	4	Temperatura máxima	18
111603	7	Sololá	704	Santa Lucía Utatlán 	7	Santa Rita 	8	Agosto	2023-08-16T00:00:00	2024-11-08T01:00:00	3	Temperatura mínima	17.3
111604	7	Sololá	704	Santa Lucía Utatlán 	7	Santa Rita 	8	Agosto	2023-08-16T00:00:00	2024-11-08T01:00:00	5	Humedad	86
111605	7	Sololá	704	Santa Lucía Utatlán 	7	Santa Rita 	8	Agosto	2023-08-16T00:00:00	2024-11-08T01:00:00	6	Velocidad del viento	3.2
111606	7	Sololá	704	Santa Lucía Utatlán 	7	Santa Rita 	8	Agosto	2023-08-16T00:00:00	2024-11-08T01:00:00	7	Dirección del viento	3.22
111607	7	Sololá	704	Santa Lucía Utatlán 	7	Santa Rita 	8	Agosto	2023-08-16T00:00:00	2024-11-08T01:00:00	1	Precipitación	0
111608	7	Sololá	704	Santa Lucía Utatlán 	7	Santa Rita 	8	Agosto	2023-08-16T00:00:00	2024-11-08T01:00:00	8	Radiación solar	0
111609	7	Sololá	704	Santa Lucía Utatlán 	7	Santa Rita 	8	Agosto	2023-08-16T00:00:00	2024-11-08T02:00:00	2	Temperatura media	17.7
111610	7	Sololá	704	Santa Lucía Utatlán 	7	Santa Rita 	8	Agosto	2023-08-16T00:00:00	2024-11-08T02:00:00	4	Temperatura máxima	18.1
111611	7	Sololá	704	Santa Lucía Utatlán 	7	Santa Rita 	8	Agosto	2023-08-16T00:00:00	2024-11-08T02:00:00	3	Temperatura mínima	17.6
111612	7	Sololá	704	Santa Lucía Utatlán 	7	Santa Rita 	8	Agosto	2023-08-16T00:00:00	2024-11-08T02:00:00	5	Humedad	85
111613	7	Sololá	704	Santa Lucía Utatlán 	7	Santa Rita 	8	Agosto	2023-08-16T00:00:00	2024-11-08T02:00:00	6	Velocidad del viento	1.6
111614	7	Sololá	704	Santa Lucía Utatlán 	7	Santa Rita 	8	Agosto	2023-08-16T00:00:00	2024-11-08T02:00:00	7	Dirección del viento	1.61
111615	7	Sololá	704	Santa Lucía Utatlán 	7	Santa Rita 	8	Agosto	2023-08-16T00:00:00	2024-11-08T02:00:00	1	Precipitación	0
111616	7	Sololá	704	Santa Lucía Utatlán 	7	Santa Rita 	8	Agosto	2023-08-16T00:00:00	2024-11-08T02:00:00	8	Radiación solar	0
111617	7	Sololá	704	Santa Lucía Utatlán 	7	Santa Rita 	8	Agosto	2023-08-16T00:00:00	2024-11-08T03:00:00	2	Temperatura media	19.6
111618	7	Sololá	704	Santa Lucía Utatlán 	7	Santa Rita 	8	Agosto	2023-08-16T00:00:00	2024-11-08T03:00:00	4	Temperatura máxima	19.6
111619	7	Sololá	704	Santa Lucía Utatlán 	7	Santa Rita 	8	Agosto	2023-08-16T00:00:00	2024-11-08T03:00:00	3	Temperatura mínima	17.6
111620	7	Sololá	704	Santa Lucía Utatlán 	7	Santa Rita 	8	Agosto	2023-08-16T00:00:00	2024-11-08T03:00:00	5	Humedad	73
111621	7	Sololá	704	Santa Lucía Utatlán 	7	Santa Rita 	8	Agosto	2023-08-16T00:00:00	2024-11-08T03:00:00	6	Velocidad del viento	4.8
111622	7	Sololá	704	Santa Lucía Utatlán 	7	Santa Rita 	8	Agosto	2023-08-16T00:00:00	2024-11-08T03:00:00	7	Dirección del viento	4.83
111623	7	Sololá	704	Santa Lucía Utatlán 	7	Santa Rita 	8	Agosto	2023-08-16T00:00:00	2024-11-08T03:00:00	1	Precipitación	0
111624	7	Sololá	704	Santa Lucía Utatlán 	7	Santa Rita 	8	Agosto	2023-08-16T00:00:00	2024-11-08T03:00:00	8	Radiación solar	0
111625	7	Sololá	704	Santa Lucía Utatlán 	7	Santa Rita 	8	Agosto	2023-08-16T00:00:00	2024-11-08T04:00:00	2	Temperatura media	20.3
111626	7	Sololá	704	Santa Lucía Utatlán 	7	Santa Rita 	8	Agosto	2023-08-16T00:00:00	2024-11-08T04:00:00	4	Temperatura máxima	20.4
111627	7	Sololá	704	Santa Lucía Utatlán 	7	Santa Rita 	8	Agosto	2023-08-16T00:00:00	2024-11-08T04:00:00	3	Temperatura mínima	19.1
111628	7	Sololá	704	Santa Lucía Utatlán 	7	Santa Rita 	8	Agosto	2023-08-16T00:00:00	2024-11-08T04:00:00	5	Humedad	78
111629	7	Sololá	704	Santa Lucía Utatlán 	7	Santa Rita 	8	Agosto	2023-08-16T00:00:00	2024-11-08T04:00:00	6	Velocidad del viento	3.2
111630	7	Sololá	704	Santa Lucía Utatlán 	7	Santa Rita 	8	Agosto	2023-08-16T00:00:00	2024-11-08T04:00:00	7	Dirección del viento	3.22
111631	7	Sololá	704	Santa Lucía Utatlán 	7	Santa Rita 	8	Agosto	2023-08-16T00:00:00	2024-11-08T04:00:00	1	Precipitación	0
111632	7	Sololá	704	Santa Lucía Utatlán 	7	Santa Rita 	8	Agosto	2023-08-16T00:00:00	2024-11-08T04:00:00	8	Radiación solar	0
111633	7	Sololá	704	Santa Lucía Utatlán 	7	Santa Rita 	8	Agosto	2023-08-16T00:00:00	2024-11-08T05:00:00	2	Temperatura media	20.8
111634	7	Sololá	704	Santa Lucía Utatlán 	7	Santa Rita 	8	Agosto	2023-08-16T00:00:00	2024-11-08T05:00:00	4	Temperatura máxima	21.6
111635	7	Sololá	704	Santa Lucía Utatlán 	7	Santa Rita 	8	Agosto	2023-08-16T00:00:00	2024-11-08T05:00:00	3	Temperatura mínima	20.3
111636	7	Sololá	704	Santa Lucía Utatlán 	7	Santa Rita 	8	Agosto	2023-08-16T00:00:00	2024-11-08T05:00:00	5	Humedad	78
111637	7	Sololá	704	Santa Lucía Utatlán 	7	Santa Rita 	8	Agosto	2023-08-16T00:00:00	2024-11-08T05:00:00	6	Velocidad del viento	1.6
111638	7	Sololá	704	Santa Lucía Utatlán 	7	Santa Rita 	8	Agosto	2023-08-16T00:00:00	2024-11-08T05:00:00	7	Dirección del viento	1.61
111639	7	Sololá	704	Santa Lucía Utatlán 	7	Santa Rita 	8	Agosto	2023-08-16T00:00:00	2024-11-08T05:00:00	1	Precipitación	0
111640	7	Sololá	704	Santa Lucía Utatlán 	7	Santa Rita 	8	Agosto	2023-08-16T00:00:00	2024-11-08T05:00:00	8	Radiación solar	0
111641	7	Sololá	704	Santa Lucía Utatlán 	7	Santa Rita 	8	Agosto	2023-08-16T00:00:00	2024-11-08T06:00:00	2	Temperatura media	23.1
111642	7	Sololá	704	Santa Lucía Utatlán 	7	Santa Rita 	8	Agosto	2023-08-16T00:00:00	2024-11-08T06:00:00	4	Temperatura máxima	23.1
111643	7	Sololá	704	Santa Lucía Utatlán 	7	Santa Rita 	8	Agosto	2023-08-16T00:00:00	2024-11-08T06:00:00	3	Temperatura mínima	20.7
111644	7	Sololá	704	Santa Lucía Utatlán 	7	Santa Rita 	8	Agosto	2023-08-16T00:00:00	2024-11-08T06:00:00	5	Humedad	72
111645	7	Sololá	704	Santa Lucía Utatlán 	7	Santa Rita 	8	Agosto	2023-08-16T00:00:00	2024-11-08T06:00:00	6	Velocidad del viento	4.8
111646	7	Sololá	704	Santa Lucía Utatlán 	7	Santa Rita 	8	Agosto	2023-08-16T00:00:00	2024-11-08T06:00:00	7	Dirección del viento	4.83
111647	7	Sololá	704	Santa Lucía Utatlán 	7	Santa Rita 	8	Agosto	2023-08-16T00:00:00	2024-11-08T06:00:00	1	Precipitación	0
111648	7	Sololá	704	Santa Lucía Utatlán 	7	Santa Rita 	8	Agosto	2023-08-16T00:00:00	2024-11-08T06:00:00	8	Radiación solar	6
111649	7	Sololá	704	Santa Lucía Utatlán 	7	Santa Rita 	8	Agosto	2023-08-16T00:00:00	2024-11-08T07:00:00	2	Temperatura media	24
111650	7	Sololá	704	Santa Lucía Utatlán 	7	Santa Rita 	8	Agosto	2023-08-16T00:00:00	2024-11-08T07:00:00	4	Temperatura máxima	24.1
111651	7	Sololá	704	Santa Lucía Utatlán 	7	Santa Rita 	8	Agosto	2023-08-16T00:00:00	2024-11-08T07:00:00	3	Temperatura mínima	22.8
111652	7	Sololá	704	Santa Lucía Utatlán 	7	Santa Rita 	8	Agosto	2023-08-16T00:00:00	2024-11-08T07:00:00	5	Humedad	65
111653	7	Sololá	704	Santa Lucía Utatlán 	7	Santa Rita 	8	Agosto	2023-08-16T00:00:00	2024-11-08T07:00:00	6	Velocidad del viento	9.7
111654	7	Sololá	704	Santa Lucía Utatlán 	7	Santa Rita 	8	Agosto	2023-08-16T00:00:00	2024-11-08T07:00:00	7	Dirección del viento	9.66
111655	7	Sololá	704	Santa Lucía Utatlán 	7	Santa Rita 	8	Agosto	2023-08-16T00:00:00	2024-11-08T07:00:00	1	Precipitación	0
111656	7	Sololá	704	Santa Lucía Utatlán 	7	Santa Rita 	8	Agosto	2023-08-16T00:00:00	2024-11-08T07:00:00	8	Radiación solar	124
111657	7	Sololá	704	Santa Lucía Utatlán 	7	Santa Rita 	8	Agosto	2023-08-16T00:00:00	2024-11-08T08:00:00	2	Temperatura media	24.6
111658	7	Sololá	704	Santa Lucía Utatlán 	7	Santa Rita 	8	Agosto	2023-08-16T00:00:00	2024-11-08T08:00:00	4	Temperatura máxima	25.2
111659	7	Sololá	704	Santa Lucía Utatlán 	7	Santa Rita 	8	Agosto	2023-08-16T00:00:00	2024-11-08T08:00:00	3	Temperatura mínima	24
111660	7	Sololá	704	Santa Lucía Utatlán 	7	Santa Rita 	8	Agosto	2023-08-16T00:00:00	2024-11-08T08:00:00	5	Humedad	63
111661	7	Sololá	704	Santa Lucía Utatlán 	7	Santa Rita 	8	Agosto	2023-08-16T00:00:00	2024-11-08T08:00:00	6	Velocidad del viento	9.7
111662	7	Sololá	704	Santa Lucía Utatlán 	7	Santa Rita 	8	Agosto	2023-08-16T00:00:00	2024-11-08T08:00:00	7	Dirección del viento	9.66
111663	7	Sololá	704	Santa Lucía Utatlán 	7	Santa Rita 	8	Agosto	2023-08-16T00:00:00	2024-11-08T08:00:00	1	Precipitación	0
111664	7	Sololá	704	Santa Lucía Utatlán 	7	Santa Rita 	8	Agosto	2023-08-16T00:00:00	2024-11-08T08:00:00	8	Radiación solar	261
111665	7	Sololá	704	Santa Lucía Utatlán 	7	Santa Rita 	8	Agosto	2023-08-16T00:00:00	2024-11-08T09:00:00	2	Temperatura media	23.7
111666	7	Sololá	704	Santa Lucía Utatlán 	7	Santa Rita 	8	Agosto	2023-08-16T00:00:00	2024-11-08T09:00:00	4	Temperatura máxima	24.7
111667	7	Sololá	704	Santa Lucía Utatlán 	7	Santa Rita 	8	Agosto	2023-08-16T00:00:00	2024-11-08T09:00:00	3	Temperatura mínima	23.7
111668	7	Sololá	704	Santa Lucía Utatlán 	7	Santa Rita 	8	Agosto	2023-08-16T00:00:00	2024-11-08T09:00:00	5	Humedad	66
111669	7	Sololá	704	Santa Lucía Utatlán 	7	Santa Rita 	8	Agosto	2023-08-16T00:00:00	2024-11-08T09:00:00	6	Velocidad del viento	11.3
111670	7	Sololá	704	Santa Lucía Utatlán 	7	Santa Rita 	8	Agosto	2023-08-16T00:00:00	2024-11-08T09:00:00	7	Dirección del viento	11.27
111671	7	Sololá	704	Santa Lucía Utatlán 	7	Santa Rita 	8	Agosto	2023-08-16T00:00:00	2024-11-08T09:00:00	1	Precipitación	0
111672	7	Sololá	704	Santa Lucía Utatlán 	7	Santa Rita 	8	Agosto	2023-08-16T00:00:00	2024-11-08T09:00:00	8	Radiación solar	636
111673	7	Sololá	704	Santa Lucía Utatlán 	7	Santa Rita 	8	Agosto	2023-08-16T00:00:00	2024-11-08T10:00:00	2	Temperatura media	24.2
111674	7	Sololá	704	Santa Lucía Utatlán 	7	Santa Rita 	8	Agosto	2023-08-16T00:00:00	2024-11-08T10:00:00	4	Temperatura máxima	24.8
111675	7	Sololá	704	Santa Lucía Utatlán 	7	Santa Rita 	8	Agosto	2023-08-16T00:00:00	2024-11-08T10:00:00	3	Temperatura mínima	23.4
111676	7	Sololá	704	Santa Lucía Utatlán 	7	Santa Rita 	8	Agosto	2023-08-16T00:00:00	2024-11-08T10:00:00	5	Humedad	67
111677	7	Sololá	704	Santa Lucía Utatlán 	7	Santa Rita 	8	Agosto	2023-08-16T00:00:00	2024-11-08T10:00:00	6	Velocidad del viento	9.7
111678	7	Sololá	704	Santa Lucía Utatlán 	7	Santa Rita 	8	Agosto	2023-08-16T00:00:00	2024-11-08T10:00:00	7	Dirección del viento	9.66
111679	7	Sololá	704	Santa Lucía Utatlán 	7	Santa Rita 	8	Agosto	2023-08-16T00:00:00	2024-11-08T10:00:00	1	Precipitación	0
111680	7	Sololá	704	Santa Lucía Utatlán 	7	Santa Rita 	8	Agosto	2023-08-16T00:00:00	2024-11-08T10:00:00	8	Radiación solar	859
111681	7	Sololá	704	Santa Lucía Utatlán 	7	Santa Rita 	8	Agosto	2023-08-16T00:00:00	2024-11-08T11:00:00	2	Temperatura media	24.1
111682	7	Sololá	704	Santa Lucía Utatlán 	7	Santa Rita 	8	Agosto	2023-08-16T00:00:00	2024-11-08T11:00:00	4	Temperatura máxima	24.2
111683	7	Sololá	704	Santa Lucía Utatlán 	7	Santa Rita 	8	Agosto	2023-08-16T00:00:00	2024-11-08T11:00:00	3	Temperatura mínima	23.1
111684	7	Sololá	704	Santa Lucía Utatlán 	7	Santa Rita 	8	Agosto	2023-08-16T00:00:00	2024-11-08T11:00:00	5	Humedad	71
111685	7	Sololá	704	Santa Lucía Utatlán 	7	Santa Rita 	8	Agosto	2023-08-16T00:00:00	2024-11-08T11:00:00	6	Velocidad del viento	8
111686	7	Sololá	704	Santa Lucía Utatlán 	7	Santa Rita 	8	Agosto	2023-08-16T00:00:00	2024-11-08T11:00:00	7	Dirección del viento	8.05
111687	7	Sololá	704	Santa Lucía Utatlán 	7	Santa Rita 	8	Agosto	2023-08-16T00:00:00	2024-11-08T11:00:00	1	Precipitación	0
111688	7	Sololá	704	Santa Lucía Utatlán 	7	Santa Rita 	8	Agosto	2023-08-16T00:00:00	2024-11-08T11:00:00	8	Radiación solar	1023
111689	7	Sololá	704	Santa Lucía Utatlán 	7	Santa Rita 	8	Agosto	2023-08-16T00:00:00	2024-11-08T12:00:00	2	Temperatura media	22.7
111690	7	Sololá	704	Santa Lucía Utatlán 	7	Santa Rita 	8	Agosto	2023-08-16T00:00:00	2024-11-08T12:00:00	4	Temperatura máxima	25.1
111691	7	Sololá	704	Santa Lucía Utatlán 	7	Santa Rita 	8	Agosto	2023-08-16T00:00:00	2024-11-08T12:00:00	3	Temperatura mínima	22.7
111692	7	Sololá	704	Santa Lucía Utatlán 	7	Santa Rita 	8	Agosto	2023-08-16T00:00:00	2024-11-08T12:00:00	5	Humedad	80
111693	7	Sololá	704	Santa Lucía Utatlán 	7	Santa Rita 	8	Agosto	2023-08-16T00:00:00	2024-11-08T12:00:00	6	Velocidad del viento	9.7
111694	7	Sololá	704	Santa Lucía Utatlán 	7	Santa Rita 	8	Agosto	2023-08-16T00:00:00	2024-11-08T12:00:00	7	Dirección del viento	9.66
111695	7	Sololá	704	Santa Lucía Utatlán 	7	Santa Rita 	8	Agosto	2023-08-16T00:00:00	2024-11-08T12:00:00	1	Precipitación	0
111696	7	Sololá	704	Santa Lucía Utatlán 	7	Santa Rita 	8	Agosto	2023-08-16T00:00:00	2024-11-08T12:00:00	8	Radiación solar	551
111697	7	Sololá	704	Santa Lucía Utatlán 	7	Santa Rita 	8	Agosto	2023-08-16T00:00:00	2024-11-08T13:00:00	2	Temperatura media	22.6
111698	7	Sololá	704	Santa Lucía Utatlán 	7	Santa Rita 	8	Agosto	2023-08-16T00:00:00	2024-11-08T13:00:00	4	Temperatura máxima	23.1
111699	7	Sololá	704	Santa Lucía Utatlán 	7	Santa Rita 	8	Agosto	2023-08-16T00:00:00	2024-11-08T13:00:00	3	Temperatura mínima	22.5
111700	7	Sololá	704	Santa Lucía Utatlán 	7	Santa Rita 	8	Agosto	2023-08-16T00:00:00	2024-11-08T13:00:00	5	Humedad	72
111701	7	Sololá	704	Santa Lucía Utatlán 	7	Santa Rita 	8	Agosto	2023-08-16T00:00:00	2024-11-08T13:00:00	6	Velocidad del viento	8
111702	7	Sololá	704	Santa Lucía Utatlán 	7	Santa Rita 	8	Agosto	2023-08-16T00:00:00	2024-11-08T13:00:00	7	Dirección del viento	8.05
111703	7	Sololá	704	Santa Lucía Utatlán 	7	Santa Rita 	8	Agosto	2023-08-16T00:00:00	2024-11-08T13:00:00	1	Precipitación	0
111704	7	Sololá	704	Santa Lucía Utatlán 	7	Santa Rita 	8	Agosto	2023-08-16T00:00:00	2024-11-08T13:00:00	8	Radiación solar	483
111705	7	Sololá	704	Santa Lucía Utatlán 	7	Santa Rita 	8	Agosto	2023-08-16T00:00:00	2024-11-08T14:00:00	2	Temperatura media	21.8
111706	7	Sololá	704	Santa Lucía Utatlán 	7	Santa Rita 	8	Agosto	2023-08-16T00:00:00	2024-11-08T14:00:00	4	Temperatura máxima	22.6
111707	7	Sololá	704	Santa Lucía Utatlán 	7	Santa Rita 	8	Agosto	2023-08-16T00:00:00	2024-11-08T14:00:00	3	Temperatura mínima	21.8
111708	7	Sololá	704	Santa Lucía Utatlán 	7	Santa Rita 	8	Agosto	2023-08-16T00:00:00	2024-11-08T14:00:00	5	Humedad	75
111709	7	Sololá	704	Santa Lucía Utatlán 	7	Santa Rita 	8	Agosto	2023-08-16T00:00:00	2024-11-08T14:00:00	6	Velocidad del viento	3.2
111710	7	Sololá	704	Santa Lucía Utatlán 	7	Santa Rita 	8	Agosto	2023-08-16T00:00:00	2024-11-08T14:00:00	7	Dirección del viento	3.22
111711	7	Sololá	704	Santa Lucía Utatlán 	7	Santa Rita 	8	Agosto	2023-08-16T00:00:00	2024-11-08T14:00:00	1	Precipitación	0
111712	7	Sololá	704	Santa Lucía Utatlán 	7	Santa Rita 	8	Agosto	2023-08-16T00:00:00	2024-11-08T14:00:00	8	Radiación solar	375
111713	7	Sololá	704	Santa Lucía Utatlán 	7	Santa Rita 	8	Agosto	2023-08-16T00:00:00	2024-11-08T15:00:00	2	Temperatura media	20.8
111714	7	Sololá	704	Santa Lucía Utatlán 	7	Santa Rita 	8	Agosto	2023-08-16T00:00:00	2024-11-08T15:00:00	4	Temperatura máxima	21.9
111715	7	Sololá	704	Santa Lucía Utatlán 	7	Santa Rita 	8	Agosto	2023-08-16T00:00:00	2024-11-08T15:00:00	3	Temperatura mínima	20.8
111716	7	Sololá	704	Santa Lucía Utatlán 	7	Santa Rita 	8	Agosto	2023-08-16T00:00:00	2024-11-08T15:00:00	5	Humedad	76
111717	7	Sololá	704	Santa Lucía Utatlán 	7	Santa Rita 	8	Agosto	2023-08-16T00:00:00	2024-11-08T15:00:00	6	Velocidad del viento	1.6
111718	7	Sololá	704	Santa Lucía Utatlán 	7	Santa Rita 	8	Agosto	2023-08-16T00:00:00	2024-11-08T15:00:00	7	Dirección del viento	1.61
111719	7	Sololá	704	Santa Lucía Utatlán 	7	Santa Rita 	8	Agosto	2023-08-16T00:00:00	2024-11-08T15:00:00	1	Precipitación	0
111720	7	Sololá	704	Santa Lucía Utatlán 	7	Santa Rita 	8	Agosto	2023-08-16T00:00:00	2024-11-08T15:00:00	8	Radiación solar	419
111721	7	Sololá	704	Santa Lucía Utatlán 	7	Santa Rita 	8	Agosto	2023-08-16T00:00:00	2024-11-08T16:00:00	2	Temperatura media	19.7
111722	7	Sololá	704	Santa Lucía Utatlán 	7	Santa Rita 	8	Agosto	2023-08-16T00:00:00	2024-11-08T16:00:00	4	Temperatura máxima	20.8
111723	7	Sololá	704	Santa Lucía Utatlán 	7	Santa Rita 	8	Agosto	2023-08-16T00:00:00	2024-11-08T16:00:00	3	Temperatura mínima	19.7
111724	7	Sololá	704	Santa Lucía Utatlán 	7	Santa Rita 	8	Agosto	2023-08-16T00:00:00	2024-11-08T16:00:00	5	Humedad	80
111725	7	Sololá	704	Santa Lucía Utatlán 	7	Santa Rita 	8	Agosto	2023-08-16T00:00:00	2024-11-08T16:00:00	6	Velocidad del viento	3.2
111726	7	Sololá	704	Santa Lucía Utatlán 	7	Santa Rita 	8	Agosto	2023-08-16T00:00:00	2024-11-08T16:00:00	7	Dirección del viento	3.22
111727	7	Sololá	704	Santa Lucía Utatlán 	7	Santa Rita 	8	Agosto	2023-08-16T00:00:00	2024-11-08T16:00:00	1	Precipitación	0
111728	7	Sololá	704	Santa Lucía Utatlán 	7	Santa Rita 	8	Agosto	2023-08-16T00:00:00	2024-11-08T16:00:00	8	Radiación solar	172
111729	7	Sololá	704	Santa Lucía Utatlán 	7	Santa Rita 	8	Agosto	2023-08-16T00:00:00	2024-11-08T17:00:00	2	Temperatura media	18.9
111730	7	Sololá	704	Santa Lucía Utatlán 	7	Santa Rita 	8	Agosto	2023-08-16T00:00:00	2024-11-08T17:00:00	4	Temperatura máxima	19.7
111731	7	Sololá	704	Santa Lucía Utatlán 	7	Santa Rita 	8	Agosto	2023-08-16T00:00:00	2024-11-08T17:00:00	3	Temperatura mínima	18.7
111732	7	Sololá	704	Santa Lucía Utatlán 	7	Santa Rita 	8	Agosto	2023-08-16T00:00:00	2024-11-08T17:00:00	5	Humedad	84
111733	7	Sololá	704	Santa Lucía Utatlán 	7	Santa Rita 	8	Agosto	2023-08-16T00:00:00	2024-11-08T17:00:00	6	Velocidad del viento	3.2
111734	7	Sololá	704	Santa Lucía Utatlán 	7	Santa Rita 	8	Agosto	2023-08-16T00:00:00	2024-11-08T17:00:00	7	Dirección del viento	3.22
111735	7	Sololá	704	Santa Lucía Utatlán 	7	Santa Rita 	8	Agosto	2023-08-16T00:00:00	2024-11-08T17:00:00	1	Precipitación	0
111736	7	Sololá	704	Santa Lucía Utatlán 	7	Santa Rita 	8	Agosto	2023-08-16T00:00:00	2024-11-08T17:00:00	8	Radiación solar	77
111737	7	Sololá	704	Santa Lucía Utatlán 	7	Santa Rita 	8	Agosto	2023-08-16T00:00:00	2024-11-08T18:00:00	2	Temperatura media	18.6
111738	7	Sololá	704	Santa Lucía Utatlán 	7	Santa Rita 	8	Agosto	2023-08-16T00:00:00	2024-11-08T18:00:00	4	Temperatura máxima	18.9
111739	7	Sololá	704	Santa Lucía Utatlán 	7	Santa Rita 	8	Agosto	2023-08-16T00:00:00	2024-11-08T18:00:00	3	Temperatura mínima	18.6
111740	7	Sololá	704	Santa Lucía Utatlán 	7	Santa Rita 	8	Agosto	2023-08-16T00:00:00	2024-11-08T18:00:00	5	Humedad	85
111741	7	Sololá	704	Santa Lucía Utatlán 	7	Santa Rita 	8	Agosto	2023-08-16T00:00:00	2024-11-08T18:00:00	6	Velocidad del viento	3.2
111742	7	Sololá	704	Santa Lucía Utatlán 	7	Santa Rita 	8	Agosto	2023-08-16T00:00:00	2024-11-08T18:00:00	7	Dirección del viento	3.22
111743	7	Sololá	704	Santa Lucía Utatlán 	7	Santa Rita 	8	Agosto	2023-08-16T00:00:00	2024-11-08T18:00:00	1	Precipitación	0
111744	7	Sololá	704	Santa Lucía Utatlán 	7	Santa Rita 	8	Agosto	2023-08-16T00:00:00	2024-11-08T18:00:00	8	Radiación solar	36
111745	7	Sololá	704	Santa Lucía Utatlán 	7	Santa Rita 	8	Agosto	2023-08-16T00:00:00	2024-11-08T19:00:00	2	Temperatura media	17.6
111746	7	Sololá	704	Santa Lucía Utatlán 	7	Santa Rita 	8	Agosto	2023-08-16T00:00:00	2024-11-08T19:00:00	4	Temperatura máxima	18.7
111747	7	Sololá	704	Santa Lucía Utatlán 	7	Santa Rita 	8	Agosto	2023-08-16T00:00:00	2024-11-08T19:00:00	3	Temperatura mínima	17.6
111748	7	Sololá	704	Santa Lucía Utatlán 	7	Santa Rita 	8	Agosto	2023-08-16T00:00:00	2024-11-08T19:00:00	5	Humedad	85
111749	7	Sololá	704	Santa Lucía Utatlán 	7	Santa Rita 	8	Agosto	2023-08-16T00:00:00	2024-11-08T19:00:00	6	Velocidad del viento	4.8
111750	7	Sololá	704	Santa Lucía Utatlán 	7	Santa Rita 	8	Agosto	2023-08-16T00:00:00	2024-11-08T19:00:00	7	Dirección del viento	4.83
111751	7	Sololá	704	Santa Lucía Utatlán 	7	Santa Rita 	8	Agosto	2023-08-16T00:00:00	2024-11-08T19:00:00	1	Precipitación	0
111752	7	Sololá	704	Santa Lucía Utatlán 	7	Santa Rita 	8	Agosto	2023-08-16T00:00:00	2024-11-08T19:00:00	8	Radiación solar	0
111753	7	Sololá	704	Santa Lucía Utatlán 	7	Santa Rita 	8	Agosto	2023-08-16T00:00:00	2024-11-08T20:00:00	2	Temperatura media	18.6
111754	7	Sololá	704	Santa Lucía Utatlán 	7	Santa Rita 	8	Agosto	2023-08-16T00:00:00	2024-11-08T20:00:00	4	Temperatura máxima	18.8
111755	7	Sololá	704	Santa Lucía Utatlán 	7	Santa Rita 	8	Agosto	2023-08-16T00:00:00	2024-11-08T20:00:00	3	Temperatura mínima	17.6
111756	7	Sololá	704	Santa Lucía Utatlán 	7	Santa Rita 	8	Agosto	2023-08-16T00:00:00	2024-11-08T20:00:00	5	Humedad	80
111757	7	Sololá	704	Santa Lucía Utatlán 	7	Santa Rita 	8	Agosto	2023-08-16T00:00:00	2024-11-08T20:00:00	6	Velocidad del viento	3.2
111758	7	Sololá	704	Santa Lucía Utatlán 	7	Santa Rita 	8	Agosto	2023-08-16T00:00:00	2024-11-08T20:00:00	7	Dirección del viento	3.22
111759	7	Sololá	704	Santa Lucía Utatlán 	7	Santa Rita 	8	Agosto	2023-08-16T00:00:00	2024-11-08T20:00:00	1	Precipitación	0
111760	7	Sololá	704	Santa Lucía Utatlán 	7	Santa Rita 	8	Agosto	2023-08-16T00:00:00	2024-11-08T20:00:00	8	Radiación solar	0
111761	7	Sololá	704	Santa Lucía Utatlán 	7	Santa Rita 	8	Agosto	2023-08-16T00:00:00	2024-11-08T21:00:00	2	Temperatura media	17.3
111762	7	Sololá	704	Santa Lucía Utatlán 	7	Santa Rita 	8	Agosto	2023-08-16T00:00:00	2024-11-08T21:00:00	4	Temperatura máxima	18.6
111763	7	Sololá	704	Santa Lucía Utatlán 	7	Santa Rita 	8	Agosto	2023-08-16T00:00:00	2024-11-08T21:00:00	3	Temperatura mínima	17.2
111764	7	Sololá	704	Santa Lucía Utatlán 	7	Santa Rita 	8	Agosto	2023-08-16T00:00:00	2024-11-08T21:00:00	5	Humedad	83
111765	7	Sololá	704	Santa Lucía Utatlán 	7	Santa Rita 	8	Agosto	2023-08-16T00:00:00	2024-11-08T21:00:00	6	Velocidad del viento	3.2
111766	7	Sololá	704	Santa Lucía Utatlán 	7	Santa Rita 	8	Agosto	2023-08-16T00:00:00	2024-11-08T21:00:00	7	Dirección del viento	3.22
111767	7	Sololá	704	Santa Lucía Utatlán 	7	Santa Rita 	8	Agosto	2023-08-16T00:00:00	2024-11-08T21:00:00	1	Precipitación	0
111768	7	Sololá	704	Santa Lucía Utatlán 	7	Santa Rita 	8	Agosto	2023-08-16T00:00:00	2024-11-08T21:00:00	8	Radiación solar	0
111769	7	Sololá	704	Santa Lucía Utatlán 	7	Santa Rita 	8	Agosto	2023-08-16T00:00:00	2024-11-08T22:00:00	2	Temperatura media	17.2
111770	7	Sololá	704	Santa Lucía Utatlán 	7	Santa Rita 	8	Agosto	2023-08-16T00:00:00	2024-11-08T22:00:00	4	Temperatura máxima	17.6
111771	7	Sololá	704	Santa Lucía Utatlán 	7	Santa Rita 	8	Agosto	2023-08-16T00:00:00	2024-11-08T22:00:00	3	Temperatura mínima	16.9
111772	7	Sololá	704	Santa Lucía Utatlán 	7	Santa Rita 	8	Agosto	2023-08-16T00:00:00	2024-11-08T22:00:00	5	Humedad	86
111773	7	Sololá	704	Santa Lucía Utatlán 	7	Santa Rita 	8	Agosto	2023-08-16T00:00:00	2024-11-08T22:00:00	6	Velocidad del viento	1.6
111774	7	Sololá	704	Santa Lucía Utatlán 	7	Santa Rita 	8	Agosto	2023-08-16T00:00:00	2024-11-08T22:00:00	7	Dirección del viento	1.61
111775	7	Sololá	704	Santa Lucía Utatlán 	7	Santa Rita 	8	Agosto	2023-08-16T00:00:00	2024-11-08T22:00:00	1	Precipitación	0
111776	7	Sololá	704	Santa Lucía Utatlán 	7	Santa Rita 	8	Agosto	2023-08-16T00:00:00	2024-11-08T22:00:00	8	Radiación solar	0
111777	7	Sololá	704	Santa Lucía Utatlán 	7	Santa Rita 	8	Agosto	2023-08-16T00:00:00	2024-11-08T23:00:00	2	Temperatura media	16.9
111778	7	Sololá	704	Santa Lucía Utatlán 	7	Santa Rita 	8	Agosto	2023-08-16T00:00:00	2024-11-08T23:00:00	4	Temperatura máxima	17.3
111779	7	Sololá	704	Santa Lucía Utatlán 	7	Santa Rita 	8	Agosto	2023-08-16T00:00:00	2024-11-08T23:00:00	3	Temperatura mínima	16.7
111780	7	Sololá	704	Santa Lucía Utatlán 	7	Santa Rita 	8	Agosto	2023-08-16T00:00:00	2024-11-08T23:00:00	5	Humedad	87
111781	7	Sololá	704	Santa Lucía Utatlán 	7	Santa Rita 	8	Agosto	2023-08-16T00:00:00	2024-11-08T23:00:00	6	Velocidad del viento	3.2
111782	7	Sololá	704	Santa Lucía Utatlán 	7	Santa Rita 	8	Agosto	2023-08-16T00:00:00	2024-11-08T23:00:00	7	Dirección del viento	3.22
111783	7	Sololá	704	Santa Lucía Utatlán 	7	Santa Rita 	8	Agosto	2023-08-16T00:00:00	2024-11-08T23:00:00	1	Precipitación	0
111784	7	Sololá	704	Santa Lucía Utatlán 	7	Santa Rita 	8	Agosto	2023-08-16T00:00:00	2024-11-08T23:00:00	8	Radiación solar	0
111785	7	Sololá	704	Santa Lucía Utatlán 	7	Santa Rita 	8	Agosto	2023-08-17T00:00:00	2024-11-08T00:00:00	2	Temperatura media	16.8
111786	7	Sololá	704	Santa Lucía Utatlán 	7	Santa Rita 	8	Agosto	2023-08-17T00:00:00	2024-11-08T00:00:00	4	Temperatura máxima	16.8
111787	7	Sololá	704	Santa Lucía Utatlán 	7	Santa Rita 	8	Agosto	2023-08-17T00:00:00	2024-11-08T00:00:00	3	Temperatura mínima	16.4
111788	7	Sololá	704	Santa Lucía Utatlán 	7	Santa Rita 	8	Agosto	2023-08-17T00:00:00	2024-11-08T00:00:00	5	Humedad	85
111789	7	Sololá	704	Santa Lucía Utatlán 	7	Santa Rita 	8	Agosto	2023-08-17T00:00:00	2024-11-08T00:00:00	6	Velocidad del viento	4.8
111790	7	Sololá	704	Santa Lucía Utatlán 	7	Santa Rita 	8	Agosto	2023-08-17T00:00:00	2024-11-08T00:00:00	7	Dirección del viento	4.83
111791	7	Sololá	704	Santa Lucía Utatlán 	7	Santa Rita 	8	Agosto	2023-08-17T00:00:00	2024-11-08T00:00:00	1	Precipitación	0
111792	7	Sololá	704	Santa Lucía Utatlán 	7	Santa Rita 	8	Agosto	2023-08-17T00:00:00	2024-11-08T00:00:00	8	Radiación solar	0
111793	7	Sololá	704	Santa Lucía Utatlán 	7	Santa Rita 	8	Agosto	2023-08-17T00:00:00	2024-11-08T01:00:00	2	Temperatura media	16.3
111794	7	Sololá	704	Santa Lucía Utatlán 	7	Santa Rita 	8	Agosto	2023-08-17T00:00:00	2024-11-08T01:00:00	4	Temperatura máxima	16.8
111795	7	Sololá	704	Santa Lucía Utatlán 	7	Santa Rita 	8	Agosto	2023-08-17T00:00:00	2024-11-08T01:00:00	3	Temperatura mínima	16.3
111796	7	Sololá	704	Santa Lucía Utatlán 	7	Santa Rita 	8	Agosto	2023-08-17T00:00:00	2024-11-08T01:00:00	5	Humedad	87
111797	7	Sololá	704	Santa Lucía Utatlán 	7	Santa Rita 	8	Agosto	2023-08-17T00:00:00	2024-11-08T01:00:00	6	Velocidad del viento	3.2
111798	7	Sololá	704	Santa Lucía Utatlán 	7	Santa Rita 	8	Agosto	2023-08-17T00:00:00	2024-11-08T01:00:00	7	Dirección del viento	3.22
111799	7	Sololá	704	Santa Lucía Utatlán 	7	Santa Rita 	8	Agosto	2023-08-17T00:00:00	2024-11-08T01:00:00	1	Precipitación	0
111800	7	Sololá	704	Santa Lucía Utatlán 	7	Santa Rita 	8	Agosto	2023-08-17T00:00:00	2024-11-08T01:00:00	8	Radiación solar	0
111801	7	Sololá	704	Santa Lucía Utatlán 	7	Santa Rita 	8	Agosto	2023-08-17T00:00:00	2024-11-08T02:00:00	2	Temperatura media	16.2
111802	7	Sololá	704	Santa Lucía Utatlán 	7	Santa Rita 	8	Agosto	2023-08-17T00:00:00	2024-11-08T02:00:00	4	Temperatura máxima	16.4
111803	7	Sololá	704	Santa Lucía Utatlán 	7	Santa Rita 	8	Agosto	2023-08-17T00:00:00	2024-11-08T02:00:00	3	Temperatura mínima	16.1
111804	7	Sololá	704	Santa Lucía Utatlán 	7	Santa Rita 	8	Agosto	2023-08-17T00:00:00	2024-11-08T02:00:00	5	Humedad	85
111805	7	Sololá	704	Santa Lucía Utatlán 	7	Santa Rita 	8	Agosto	2023-08-17T00:00:00	2024-11-08T02:00:00	6	Velocidad del viento	4.8
111806	7	Sololá	704	Santa Lucía Utatlán 	7	Santa Rita 	8	Agosto	2023-08-17T00:00:00	2024-11-08T02:00:00	7	Dirección del viento	4.83
111807	7	Sololá	704	Santa Lucía Utatlán 	7	Santa Rita 	8	Agosto	2023-08-17T00:00:00	2024-11-08T02:00:00	1	Precipitación	0
111808	7	Sololá	704	Santa Lucía Utatlán 	7	Santa Rita 	8	Agosto	2023-08-17T00:00:00	2024-11-08T02:00:00	8	Radiación solar	0
111809	7	Sololá	704	Santa Lucía Utatlán 	7	Santa Rita 	8	Agosto	2023-08-17T00:00:00	2024-11-08T03:00:00	2	Temperatura media	15.8
111810	7	Sololá	704	Santa Lucía Utatlán 	7	Santa Rita 	8	Agosto	2023-08-17T00:00:00	2024-11-08T03:00:00	4	Temperatura máxima	16.1
111811	7	Sololá	704	Santa Lucía Utatlán 	7	Santa Rita 	8	Agosto	2023-08-17T00:00:00	2024-11-08T03:00:00	3	Temperatura mínima	15.7
111812	7	Sololá	704	Santa Lucía Utatlán 	7	Santa Rita 	8	Agosto	2023-08-17T00:00:00	2024-11-08T03:00:00	5	Humedad	83
111813	7	Sololá	704	Santa Lucía Utatlán 	7	Santa Rita 	8	Agosto	2023-08-17T00:00:00	2024-11-08T03:00:00	6	Velocidad del viento	6.4
111814	7	Sololá	704	Santa Lucía Utatlán 	7	Santa Rita 	8	Agosto	2023-08-17T00:00:00	2024-11-08T03:00:00	7	Dirección del viento	6.44
111815	7	Sololá	704	Santa Lucía Utatlán 	7	Santa Rita 	8	Agosto	2023-08-17T00:00:00	2024-11-08T03:00:00	1	Precipitación	0
111816	7	Sololá	704	Santa Lucía Utatlán 	7	Santa Rita 	8	Agosto	2023-08-17T00:00:00	2024-11-08T03:00:00	8	Radiación solar	0
111817	7	Sololá	704	Santa Lucía Utatlán 	7	Santa Rita 	8	Agosto	2023-08-17T00:00:00	2024-11-08T04:00:00	2	Temperatura media	17.9
111818	7	Sololá	704	Santa Lucía Utatlán 	7	Santa Rita 	8	Agosto	2023-08-17T00:00:00	2024-11-08T04:00:00	4	Temperatura máxima	17.9
111819	7	Sololá	704	Santa Lucía Utatlán 	7	Santa Rita 	8	Agosto	2023-08-17T00:00:00	2024-11-08T04:00:00	3	Temperatura mínima	15.8
111820	7	Sololá	704	Santa Lucía Utatlán 	7	Santa Rita 	8	Agosto	2023-08-17T00:00:00	2024-11-08T04:00:00	5	Humedad	81
111821	7	Sololá	704	Santa Lucía Utatlán 	7	Santa Rita 	8	Agosto	2023-08-17T00:00:00	2024-11-08T04:00:00	6	Velocidad del viento	4.8
111822	7	Sololá	704	Santa Lucía Utatlán 	7	Santa Rita 	8	Agosto	2023-08-17T00:00:00	2024-11-08T04:00:00	7	Dirección del viento	4.83
111823	7	Sololá	704	Santa Lucía Utatlán 	7	Santa Rita 	8	Agosto	2023-08-17T00:00:00	2024-11-08T04:00:00	1	Precipitación	0
111824	7	Sololá	704	Santa Lucía Utatlán 	7	Santa Rita 	8	Agosto	2023-08-17T00:00:00	2024-11-08T04:00:00	8	Radiación solar	0
111825	7	Sololá	704	Santa Lucía Utatlán 	7	Santa Rita 	8	Agosto	2023-08-17T00:00:00	2024-11-08T05:00:00	2	Temperatura media	21
111826	7	Sololá	704	Santa Lucía Utatlán 	7	Santa Rita 	8	Agosto	2023-08-17T00:00:00	2024-11-08T05:00:00	4	Temperatura máxima	21
111827	7	Sololá	704	Santa Lucía Utatlán 	7	Santa Rita 	8	Agosto	2023-08-17T00:00:00	2024-11-08T05:00:00	3	Temperatura mínima	17.9
111828	7	Sololá	704	Santa Lucía Utatlán 	7	Santa Rita 	8	Agosto	2023-08-17T00:00:00	2024-11-08T05:00:00	5	Humedad	71
111829	7	Sololá	704	Santa Lucía Utatlán 	7	Santa Rita 	8	Agosto	2023-08-17T00:00:00	2024-11-08T05:00:00	6	Velocidad del viento	3.2
111830	7	Sololá	704	Santa Lucía Utatlán 	7	Santa Rita 	8	Agosto	2023-08-17T00:00:00	2024-11-08T05:00:00	7	Dirección del viento	3.22
111831	7	Sololá	704	Santa Lucía Utatlán 	7	Santa Rita 	8	Agosto	2023-08-17T00:00:00	2024-11-08T05:00:00	1	Precipitación	0
111832	7	Sololá	704	Santa Lucía Utatlán 	7	Santa Rita 	8	Agosto	2023-08-17T00:00:00	2024-11-08T05:00:00	8	Radiación solar	0
111833	7	Sololá	704	Santa Lucía Utatlán 	7	Santa Rita 	8	Agosto	2023-08-17T00:00:00	2024-11-08T06:00:00	2	Temperatura media	23.7
111834	7	Sololá	704	Santa Lucía Utatlán 	7	Santa Rita 	8	Agosto	2023-08-17T00:00:00	2024-11-08T06:00:00	4	Temperatura máxima	23.8
111835	7	Sololá	704	Santa Lucía Utatlán 	7	Santa Rita 	8	Agosto	2023-08-17T00:00:00	2024-11-08T06:00:00	3	Temperatura mínima	21
111836	7	Sololá	704	Santa Lucía Utatlán 	7	Santa Rita 	8	Agosto	2023-08-17T00:00:00	2024-11-08T06:00:00	5	Humedad	58
111837	7	Sololá	704	Santa Lucía Utatlán 	7	Santa Rita 	8	Agosto	2023-08-17T00:00:00	2024-11-08T06:00:00	6	Velocidad del viento	4.8
111838	7	Sololá	704	Santa Lucía Utatlán 	7	Santa Rita 	8	Agosto	2023-08-17T00:00:00	2024-11-08T06:00:00	7	Dirección del viento	4.83
111839	7	Sololá	704	Santa Lucía Utatlán 	7	Santa Rita 	8	Agosto	2023-08-17T00:00:00	2024-11-08T06:00:00	1	Precipitación	0
111840	7	Sololá	704	Santa Lucía Utatlán 	7	Santa Rita 	8	Agosto	2023-08-17T00:00:00	2024-11-08T06:00:00	8	Radiación solar	3
111841	7	Sololá	704	Santa Lucía Utatlán 	7	Santa Rita 	8	Agosto	2023-08-17T00:00:00	2024-11-08T07:00:00	2	Temperatura media	23.9
111842	7	Sololá	704	Santa Lucía Utatlán 	7	Santa Rita 	8	Agosto	2023-08-17T00:00:00	2024-11-08T07:00:00	4	Temperatura máxima	24.8
111843	7	Sololá	704	Santa Lucía Utatlán 	7	Santa Rita 	8	Agosto	2023-08-17T00:00:00	2024-11-08T07:00:00	3	Temperatura mínima	23.6
111844	7	Sololá	704	Santa Lucía Utatlán 	7	Santa Rita 	8	Agosto	2023-08-17T00:00:00	2024-11-08T07:00:00	5	Humedad	60
111845	7	Sololá	704	Santa Lucía Utatlán 	7	Santa Rita 	8	Agosto	2023-08-17T00:00:00	2024-11-08T07:00:00	6	Velocidad del viento	9.7
111846	7	Sololá	704	Santa Lucía Utatlán 	7	Santa Rita 	8	Agosto	2023-08-17T00:00:00	2024-11-08T07:00:00	7	Dirección del viento	9.66
111847	7	Sololá	704	Santa Lucía Utatlán 	7	Santa Rita 	8	Agosto	2023-08-17T00:00:00	2024-11-08T07:00:00	1	Precipitación	0
111848	7	Sololá	704	Santa Lucía Utatlán 	7	Santa Rita 	8	Agosto	2023-08-17T00:00:00	2024-11-08T07:00:00	8	Radiación solar	73
111849	7	Sololá	704	Santa Lucía Utatlán 	7	Santa Rita 	8	Agosto	2023-08-17T00:00:00	2024-11-08T08:00:00	2	Temperatura media	25.4
111850	7	Sololá	704	Santa Lucía Utatlán 	7	Santa Rita 	8	Agosto	2023-08-17T00:00:00	2024-11-08T08:00:00	4	Temperatura máxima	25.4
111851	7	Sololá	704	Santa Lucía Utatlán 	7	Santa Rita 	8	Agosto	2023-08-17T00:00:00	2024-11-08T08:00:00	3	Temperatura mínima	23.8
111852	7	Sololá	704	Santa Lucía Utatlán 	7	Santa Rita 	8	Agosto	2023-08-17T00:00:00	2024-11-08T08:00:00	5	Humedad	54
111853	7	Sololá	704	Santa Lucía Utatlán 	7	Santa Rita 	8	Agosto	2023-08-17T00:00:00	2024-11-08T08:00:00	6	Velocidad del viento	9.7
111854	7	Sololá	704	Santa Lucía Utatlán 	7	Santa Rita 	8	Agosto	2023-08-17T00:00:00	2024-11-08T08:00:00	7	Dirección del viento	9.66
111855	7	Sololá	704	Santa Lucía Utatlán 	7	Santa Rita 	8	Agosto	2023-08-17T00:00:00	2024-11-08T08:00:00	1	Precipitación	0
111856	7	Sololá	704	Santa Lucía Utatlán 	7	Santa Rita 	8	Agosto	2023-08-17T00:00:00	2024-11-08T08:00:00	8	Radiación solar	384
111857	7	Sololá	704	Santa Lucía Utatlán 	7	Santa Rita 	8	Agosto	2023-08-17T00:00:00	2024-11-08T09:00:00	2	Temperatura media	24.5
111858	7	Sololá	704	Santa Lucía Utatlán 	7	Santa Rita 	8	Agosto	2023-08-17T00:00:00	2024-11-08T09:00:00	4	Temperatura máxima	25.4
111859	7	Sololá	704	Santa Lucía Utatlán 	7	Santa Rita 	8	Agosto	2023-08-17T00:00:00	2024-11-08T09:00:00	3	Temperatura mínima	24.3
111860	7	Sololá	704	Santa Lucía Utatlán 	7	Santa Rita 	8	Agosto	2023-08-17T00:00:00	2024-11-08T09:00:00	5	Humedad	59
111861	7	Sololá	704	Santa Lucía Utatlán 	7	Santa Rita 	8	Agosto	2023-08-17T00:00:00	2024-11-08T09:00:00	6	Velocidad del viento	12.9
111862	7	Sololá	704	Santa Lucía Utatlán 	7	Santa Rita 	8	Agosto	2023-08-17T00:00:00	2024-11-08T09:00:00	7	Dirección del viento	12.87
111863	7	Sololá	704	Santa Lucía Utatlán 	7	Santa Rita 	8	Agosto	2023-08-17T00:00:00	2024-11-08T09:00:00	1	Precipitación	0
111864	7	Sololá	704	Santa Lucía Utatlán 	7	Santa Rita 	8	Agosto	2023-08-17T00:00:00	2024-11-08T09:00:00	8	Radiación solar	638
111865	7	Sololá	704	Santa Lucía Utatlán 	7	Santa Rita 	8	Agosto	2023-08-17T00:00:00	2024-11-08T10:00:00	2	Temperatura media	24.8
111866	7	Sololá	704	Santa Lucía Utatlán 	7	Santa Rita 	8	Agosto	2023-08-17T00:00:00	2024-11-08T10:00:00	4	Temperatura máxima	25.4
111867	7	Sololá	704	Santa Lucía Utatlán 	7	Santa Rita 	8	Agosto	2023-08-17T00:00:00	2024-11-08T10:00:00	3	Temperatura mínima	24.3
111868	7	Sololá	704	Santa Lucía Utatlán 	7	Santa Rita 	8	Agosto	2023-08-17T00:00:00	2024-11-08T10:00:00	5	Humedad	59
111869	7	Sololá	704	Santa Lucía Utatlán 	7	Santa Rita 	8	Agosto	2023-08-17T00:00:00	2024-11-08T10:00:00	6	Velocidad del viento	11.3
111870	7	Sololá	704	Santa Lucía Utatlán 	7	Santa Rita 	8	Agosto	2023-08-17T00:00:00	2024-11-08T10:00:00	7	Dirección del viento	11.27
111871	7	Sololá	704	Santa Lucía Utatlán 	7	Santa Rita 	8	Agosto	2023-08-17T00:00:00	2024-11-08T10:00:00	1	Precipitación	0
111872	7	Sololá	704	Santa Lucía Utatlán 	7	Santa Rita 	8	Agosto	2023-08-17T00:00:00	2024-11-08T10:00:00	8	Radiación solar	845
111873	7	Sololá	704	Santa Lucía Utatlán 	7	Santa Rita 	8	Agosto	2023-08-17T00:00:00	2024-11-08T11:00:00	2	Temperatura media	25
111874	7	Sololá	704	Santa Lucía Utatlán 	7	Santa Rita 	8	Agosto	2023-08-17T00:00:00	2024-11-08T11:00:00	4	Temperatura máxima	25.4
111875	7	Sololá	704	Santa Lucía Utatlán 	7	Santa Rita 	8	Agosto	2023-08-17T00:00:00	2024-11-08T11:00:00	3	Temperatura mínima	24.4
111876	7	Sololá	704	Santa Lucía Utatlán 	7	Santa Rita 	8	Agosto	2023-08-17T00:00:00	2024-11-08T11:00:00	5	Humedad	56
111877	7	Sololá	704	Santa Lucía Utatlán 	7	Santa Rita 	8	Agosto	2023-08-17T00:00:00	2024-11-08T11:00:00	6	Velocidad del viento	11.3
111878	7	Sololá	704	Santa Lucía Utatlán 	7	Santa Rita 	8	Agosto	2023-08-17T00:00:00	2024-11-08T11:00:00	7	Dirección del viento	11.27
111879	7	Sololá	704	Santa Lucía Utatlán 	7	Santa Rita 	8	Agosto	2023-08-17T00:00:00	2024-11-08T11:00:00	1	Precipitación	0
111880	7	Sololá	704	Santa Lucía Utatlán 	7	Santa Rita 	8	Agosto	2023-08-17T00:00:00	2024-11-08T11:00:00	8	Radiación solar	963
111881	7	Sololá	704	Santa Lucía Utatlán 	7	Santa Rita 	8	Agosto	2023-08-17T00:00:00	2024-11-08T12:00:00	2	Temperatura media	24.8
111882	7	Sololá	704	Santa Lucía Utatlán 	7	Santa Rita 	8	Agosto	2023-08-17T00:00:00	2024-11-08T12:00:00	4	Temperatura máxima	25.6
111883	7	Sololá	704	Santa Lucía Utatlán 	7	Santa Rita 	8	Agosto	2023-08-17T00:00:00	2024-11-08T12:00:00	3	Temperatura mínima	24.7
111884	7	Sololá	704	Santa Lucía Utatlán 	7	Santa Rita 	8	Agosto	2023-08-17T00:00:00	2024-11-08T12:00:00	5	Humedad	58
111885	7	Sololá	704	Santa Lucía Utatlán 	7	Santa Rita 	8	Agosto	2023-08-17T00:00:00	2024-11-08T12:00:00	6	Velocidad del viento	9.7
111886	7	Sololá	704	Santa Lucía Utatlán 	7	Santa Rita 	8	Agosto	2023-08-17T00:00:00	2024-11-08T12:00:00	7	Dirección del viento	9.66
111887	7	Sololá	704	Santa Lucía Utatlán 	7	Santa Rita 	8	Agosto	2023-08-17T00:00:00	2024-11-08T12:00:00	1	Precipitación	0
111888	7	Sololá	704	Santa Lucía Utatlán 	7	Santa Rita 	8	Agosto	2023-08-17T00:00:00	2024-11-08T12:00:00	8	Radiación solar	1102
111889	7	Sololá	704	Santa Lucía Utatlán 	7	Santa Rita 	8	Agosto	2023-08-17T00:00:00	2024-11-08T13:00:00	2	Temperatura media	24.7
111890	7	Sololá	704	Santa Lucía Utatlán 	7	Santa Rita 	8	Agosto	2023-08-17T00:00:00	2024-11-08T13:00:00	4	Temperatura máxima	25.1
111891	7	Sololá	704	Santa Lucía Utatlán 	7	Santa Rita 	8	Agosto	2023-08-17T00:00:00	2024-11-08T13:00:00	3	Temperatura mínima	24.3
111892	7	Sololá	704	Santa Lucía Utatlán 	7	Santa Rita 	8	Agosto	2023-08-17T00:00:00	2024-11-08T13:00:00	5	Humedad	59
111893	7	Sololá	704	Santa Lucía Utatlán 	7	Santa Rita 	8	Agosto	2023-08-17T00:00:00	2024-11-08T13:00:00	6	Velocidad del viento	9.7
111894	7	Sololá	704	Santa Lucía Utatlán 	7	Santa Rita 	8	Agosto	2023-08-17T00:00:00	2024-11-08T13:00:00	7	Dirección del viento	9.66
111895	7	Sololá	704	Santa Lucía Utatlán 	7	Santa Rita 	8	Agosto	2023-08-17T00:00:00	2024-11-08T13:00:00	1	Precipitación	0
111896	7	Sololá	704	Santa Lucía Utatlán 	7	Santa Rita 	8	Agosto	2023-08-17T00:00:00	2024-11-08T13:00:00	8	Radiación solar	1042
111897	7	Sololá	704	Santa Lucía Utatlán 	7	Santa Rita 	8	Agosto	2023-08-17T00:00:00	2024-11-08T14:00:00	2	Temperatura media	23.9
111898	7	Sololá	704	Santa Lucía Utatlán 	7	Santa Rita 	8	Agosto	2023-08-17T00:00:00	2024-11-08T14:00:00	4	Temperatura máxima	24.7
111899	7	Sololá	704	Santa Lucía Utatlán 	7	Santa Rita 	8	Agosto	2023-08-17T00:00:00	2024-11-08T14:00:00	3	Temperatura mínima	23.9
111900	7	Sololá	704	Santa Lucía Utatlán 	7	Santa Rita 	8	Agosto	2023-08-17T00:00:00	2024-11-08T14:00:00	5	Humedad	62
111901	7	Sololá	704	Santa Lucía Utatlán 	7	Santa Rita 	8	Agosto	2023-08-17T00:00:00	2024-11-08T14:00:00	6	Velocidad del viento	8
111902	7	Sololá	704	Santa Lucía Utatlán 	7	Santa Rita 	8	Agosto	2023-08-17T00:00:00	2024-11-08T14:00:00	7	Dirección del viento	8.05
111903	7	Sololá	704	Santa Lucía Utatlán 	7	Santa Rita 	8	Agosto	2023-08-17T00:00:00	2024-11-08T14:00:00	1	Precipitación	0
111904	7	Sololá	704	Santa Lucía Utatlán 	7	Santa Rita 	8	Agosto	2023-08-17T00:00:00	2024-11-08T14:00:00	8	Radiación solar	865
111905	7	Sololá	704	Santa Lucía Utatlán 	7	Santa Rita 	8	Agosto	2023-08-17T00:00:00	2024-11-08T15:00:00	2	Temperatura media	22.4
111906	7	Sololá	704	Santa Lucía Utatlán 	7	Santa Rita 	8	Agosto	2023-08-17T00:00:00	2024-11-08T15:00:00	4	Temperatura máxima	23.9
111907	7	Sololá	704	Santa Lucía Utatlán 	7	Santa Rita 	8	Agosto	2023-08-17T00:00:00	2024-11-08T15:00:00	3	Temperatura mínima	22.4
111908	7	Sololá	704	Santa Lucía Utatlán 	7	Santa Rita 	8	Agosto	2023-08-17T00:00:00	2024-11-08T15:00:00	5	Humedad	71
111909	7	Sololá	704	Santa Lucía Utatlán 	7	Santa Rita 	8	Agosto	2023-08-17T00:00:00	2024-11-08T15:00:00	6	Velocidad del viento	3.2
111910	7	Sololá	704	Santa Lucía Utatlán 	7	Santa Rita 	8	Agosto	2023-08-17T00:00:00	2024-11-08T15:00:00	7	Dirección del viento	3.22
111911	7	Sololá	704	Santa Lucía Utatlán 	7	Santa Rita 	8	Agosto	2023-08-17T00:00:00	2024-11-08T15:00:00	1	Precipitación	0
111912	7	Sololá	704	Santa Lucía Utatlán 	7	Santa Rita 	8	Agosto	2023-08-17T00:00:00	2024-11-08T15:00:00	8	Radiación solar	536
111913	7	Sololá	704	Santa Lucía Utatlán 	7	Santa Rita 	8	Agosto	2023-08-17T00:00:00	2024-11-08T16:00:00	2	Temperatura media	20.1
111914	7	Sololá	704	Santa Lucía Utatlán 	7	Santa Rita 	8	Agosto	2023-08-17T00:00:00	2024-11-08T16:00:00	4	Temperatura máxima	22.4
111915	7	Sololá	704	Santa Lucía Utatlán 	7	Santa Rita 	8	Agosto	2023-08-17T00:00:00	2024-11-08T16:00:00	3	Temperatura mínima	19.7
111916	7	Sololá	704	Santa Lucía Utatlán 	7	Santa Rita 	8	Agosto	2023-08-17T00:00:00	2024-11-08T16:00:00	5	Humedad	84
111917	7	Sololá	704	Santa Lucía Utatlán 	7	Santa Rita 	8	Agosto	2023-08-17T00:00:00	2024-11-08T16:00:00	6	Velocidad del viento	3.2
111918	7	Sololá	704	Santa Lucía Utatlán 	7	Santa Rita 	8	Agosto	2023-08-17T00:00:00	2024-11-08T16:00:00	7	Dirección del viento	3.22
111919	7	Sololá	704	Santa Lucía Utatlán 	7	Santa Rita 	8	Agosto	2023-08-17T00:00:00	2024-11-08T16:00:00	1	Precipitación	0
111920	7	Sololá	704	Santa Lucía Utatlán 	7	Santa Rita 	8	Agosto	2023-08-17T00:00:00	2024-11-08T16:00:00	8	Radiación solar	393
111921	7	Sololá	704	Santa Lucía Utatlán 	7	Santa Rita 	8	Agosto	2023-08-17T00:00:00	2024-11-08T17:00:00	2	Temperatura media	21.1
111922	7	Sololá	704	Santa Lucía Utatlán 	7	Santa Rita 	8	Agosto	2023-08-17T00:00:00	2024-11-08T17:00:00	4	Temperatura máxima	21.2
111923	7	Sololá	704	Santa Lucía Utatlán 	7	Santa Rita 	8	Agosto	2023-08-17T00:00:00	2024-11-08T17:00:00	3	Temperatura mínima	20.1
111924	7	Sololá	704	Santa Lucía Utatlán 	7	Santa Rita 	8	Agosto	2023-08-17T00:00:00	2024-11-08T17:00:00	5	Humedad	81
111925	7	Sololá	704	Santa Lucía Utatlán 	7	Santa Rita 	8	Agosto	2023-08-17T00:00:00	2024-11-08T17:00:00	6	Velocidad del viento	6.4
111926	7	Sololá	704	Santa Lucía Utatlán 	7	Santa Rita 	8	Agosto	2023-08-17T00:00:00	2024-11-08T17:00:00	7	Dirección del viento	6.44
111927	7	Sololá	704	Santa Lucía Utatlán 	7	Santa Rita 	8	Agosto	2023-08-17T00:00:00	2024-11-08T17:00:00	1	Precipitación	0
111928	7	Sololá	704	Santa Lucía Utatlán 	7	Santa Rita 	8	Agosto	2023-08-17T00:00:00	2024-11-08T17:00:00	8	Radiación solar	209
111929	7	Sololá	704	Santa Lucía Utatlán 	7	Santa Rita 	8	Agosto	2023-08-17T00:00:00	2024-11-08T18:00:00	2	Temperatura media	19.8
111930	7	Sololá	704	Santa Lucía Utatlán 	7	Santa Rita 	8	Agosto	2023-08-17T00:00:00	2024-11-08T18:00:00	4	Temperatura máxima	21.2
111931	7	Sololá	704	Santa Lucía Utatlán 	7	Santa Rita 	8	Agosto	2023-08-17T00:00:00	2024-11-08T18:00:00	3	Temperatura mínima	19.8
111932	7	Sololá	704	Santa Lucía Utatlán 	7	Santa Rita 	8	Agosto	2023-08-17T00:00:00	2024-11-08T18:00:00	5	Humedad	83
111933	7	Sololá	704	Santa Lucía Utatlán 	7	Santa Rita 	8	Agosto	2023-08-17T00:00:00	2024-11-08T18:00:00	6	Velocidad del viento	4.8
111934	7	Sololá	704	Santa Lucía Utatlán 	7	Santa Rita 	8	Agosto	2023-08-17T00:00:00	2024-11-08T18:00:00	7	Dirección del viento	4.83
111935	7	Sololá	704	Santa Lucía Utatlán 	7	Santa Rita 	8	Agosto	2023-08-17T00:00:00	2024-11-08T18:00:00	1	Precipitación	0
111936	7	Sololá	704	Santa Lucía Utatlán 	7	Santa Rita 	8	Agosto	2023-08-17T00:00:00	2024-11-08T18:00:00	8	Radiación solar	42
111937	7	Sololá	704	Santa Lucía Utatlán 	7	Santa Rita 	8	Agosto	2023-08-17T00:00:00	2024-11-08T19:00:00	2	Temperatura media	18.1
111938	7	Sololá	704	Santa Lucía Utatlán 	7	Santa Rita 	8	Agosto	2023-08-17T00:00:00	2024-11-08T19:00:00	4	Temperatura máxima	19.8
111939	7	Sololá	704	Santa Lucía Utatlán 	7	Santa Rita 	8	Agosto	2023-08-17T00:00:00	2024-11-08T19:00:00	3	Temperatura mínima	18.1
111940	7	Sololá	704	Santa Lucía Utatlán 	7	Santa Rita 	8	Agosto	2023-08-17T00:00:00	2024-11-08T19:00:00	5	Humedad	86
111941	7	Sololá	704	Santa Lucía Utatlán 	7	Santa Rita 	8	Agosto	2023-08-17T00:00:00	2024-11-08T19:00:00	6	Velocidad del viento	3.2
111942	7	Sololá	704	Santa Lucía Utatlán 	7	Santa Rita 	8	Agosto	2023-08-17T00:00:00	2024-11-08T19:00:00	7	Dirección del viento	3.22
111943	7	Sololá	704	Santa Lucía Utatlán 	7	Santa Rita 	8	Agosto	2023-08-17T00:00:00	2024-11-08T19:00:00	1	Precipitación	0
111944	7	Sololá	704	Santa Lucía Utatlán 	7	Santa Rita 	8	Agosto	2023-08-17T00:00:00	2024-11-08T19:00:00	8	Radiación solar	0
111945	7	Sololá	704	Santa Lucía Utatlán 	7	Santa Rita 	8	Agosto	2023-08-17T00:00:00	2024-11-08T20:00:00	2	Temperatura media	17.3
111946	7	Sololá	704	Santa Lucía Utatlán 	7	Santa Rita 	8	Agosto	2023-08-17T00:00:00	2024-11-08T20:00:00	4	Temperatura máxima	18.2
111947	7	Sololá	704	Santa Lucía Utatlán 	7	Santa Rita 	8	Agosto	2023-08-17T00:00:00	2024-11-08T20:00:00	3	Temperatura mínima	17.3
111948	7	Sololá	704	Santa Lucía Utatlán 	7	Santa Rita 	8	Agosto	2023-08-17T00:00:00	2024-11-08T20:00:00	5	Humedad	89
111949	7	Sololá	704	Santa Lucía Utatlán 	7	Santa Rita 	8	Agosto	2023-08-17T00:00:00	2024-11-08T20:00:00	6	Velocidad del viento	3.2
111950	7	Sololá	704	Santa Lucía Utatlán 	7	Santa Rita 	8	Agosto	2023-08-17T00:00:00	2024-11-08T20:00:00	7	Dirección del viento	3.22
111951	7	Sololá	704	Santa Lucía Utatlán 	7	Santa Rita 	8	Agosto	2023-08-17T00:00:00	2024-11-08T20:00:00	1	Precipitación	0
111952	7	Sololá	704	Santa Lucía Utatlán 	7	Santa Rita 	8	Agosto	2023-08-17T00:00:00	2024-11-08T20:00:00	8	Radiación solar	0
111953	7	Sololá	704	Santa Lucía Utatlán 	7	Santa Rita 	8	Agosto	2023-08-17T00:00:00	2024-11-08T21:00:00	2	Temperatura media	16.7
111954	7	Sololá	704	Santa Lucía Utatlán 	7	Santa Rita 	8	Agosto	2023-08-17T00:00:00	2024-11-08T21:00:00	4	Temperatura máxima	17.3
111955	7	Sololá	704	Santa Lucía Utatlán 	7	Santa Rita 	8	Agosto	2023-08-17T00:00:00	2024-11-08T21:00:00	3	Temperatura mínima	16.6
111956	7	Sololá	704	Santa Lucía Utatlán 	7	Santa Rita 	8	Agosto	2023-08-17T00:00:00	2024-11-08T21:00:00	5	Humedad	89
111957	7	Sololá	704	Santa Lucía Utatlán 	7	Santa Rita 	8	Agosto	2023-08-17T00:00:00	2024-11-08T21:00:00	6	Velocidad del viento	3.2
111958	7	Sololá	704	Santa Lucía Utatlán 	7	Santa Rita 	8	Agosto	2023-08-17T00:00:00	2024-11-08T21:00:00	7	Dirección del viento	3.22
111959	7	Sololá	704	Santa Lucía Utatlán 	7	Santa Rita 	8	Agosto	2023-08-17T00:00:00	2024-11-08T21:00:00	1	Precipitación	0
111960	7	Sololá	704	Santa Lucía Utatlán 	7	Santa Rita 	8	Agosto	2023-08-17T00:00:00	2024-11-08T21:00:00	8	Radiación solar	0
111961	7	Sololá	704	Santa Lucía Utatlán 	7	Santa Rita 	8	Agosto	2023-08-17T00:00:00	2024-11-08T22:00:00	2	Temperatura media	16.8
111962	7	Sololá	704	Santa Lucía Utatlán 	7	Santa Rita 	8	Agosto	2023-08-17T00:00:00	2024-11-08T22:00:00	4	Temperatura máxima	16.8
111963	7	Sololá	704	Santa Lucía Utatlán 	7	Santa Rita 	8	Agosto	2023-08-17T00:00:00	2024-11-08T22:00:00	3	Temperatura mínima	16.5
111964	7	Sololá	704	Santa Lucía Utatlán 	7	Santa Rita 	8	Agosto	2023-08-17T00:00:00	2024-11-08T22:00:00	5	Humedad	88
111965	7	Sololá	704	Santa Lucía Utatlán 	7	Santa Rita 	8	Agosto	2023-08-17T00:00:00	2024-11-08T22:00:00	6	Velocidad del viento	3.2
111966	7	Sololá	704	Santa Lucía Utatlán 	7	Santa Rita 	8	Agosto	2023-08-17T00:00:00	2024-11-08T22:00:00	7	Dirección del viento	3.22
111967	7	Sololá	704	Santa Lucía Utatlán 	7	Santa Rita 	8	Agosto	2023-08-17T00:00:00	2024-11-08T22:00:00	1	Precipitación	0
111968	7	Sololá	704	Santa Lucía Utatlán 	7	Santa Rita 	8	Agosto	2023-08-17T00:00:00	2024-11-08T22:00:00	8	Radiación solar	0
111969	7	Sololá	704	Santa Lucía Utatlán 	7	Santa Rita 	8	Agosto	2023-08-17T00:00:00	2024-11-08T23:00:00	2	Temperatura media	17.6
111970	7	Sololá	704	Santa Lucía Utatlán 	7	Santa Rita 	8	Agosto	2023-08-17T00:00:00	2024-11-08T23:00:00	4	Temperatura máxima	17.7
111971	7	Sololá	704	Santa Lucía Utatlán 	7	Santa Rita 	8	Agosto	2023-08-17T00:00:00	2024-11-08T23:00:00	3	Temperatura mínima	16.8
111972	7	Sololá	704	Santa Lucía Utatlán 	7	Santa Rita 	8	Agosto	2023-08-17T00:00:00	2024-11-08T23:00:00	5	Humedad	89
111973	7	Sololá	704	Santa Lucía Utatlán 	7	Santa Rita 	8	Agosto	2023-08-17T00:00:00	2024-11-08T23:00:00	6	Velocidad del viento	1.6
111974	7	Sololá	704	Santa Lucía Utatlán 	7	Santa Rita 	8	Agosto	2023-08-17T00:00:00	2024-11-08T23:00:00	7	Dirección del viento	1.61
111975	7	Sololá	704	Santa Lucía Utatlán 	7	Santa Rita 	8	Agosto	2023-08-17T00:00:00	2024-11-08T23:00:00	1	Precipitación	0
111976	7	Sololá	704	Santa Lucía Utatlán 	7	Santa Rita 	8	Agosto	2023-08-17T00:00:00	2024-11-08T23:00:00	8	Radiación solar	0
111977	7	Sololá	704	Santa Lucía Utatlán 	7	Santa Rita 	8	Agosto	2023-08-18T00:00:00	2024-11-08T00:00:00	2	Temperatura media	18.2
111978	7	Sololá	704	Santa Lucía Utatlán 	7	Santa Rita 	8	Agosto	2023-08-18T00:00:00	2024-11-08T00:00:00	4	Temperatura máxima	18.2
111979	7	Sololá	704	Santa Lucía Utatlán 	7	Santa Rita 	8	Agosto	2023-08-18T00:00:00	2024-11-08T00:00:00	3	Temperatura mínima	17.6
111980	7	Sololá	704	Santa Lucía Utatlán 	7	Santa Rita 	8	Agosto	2023-08-18T00:00:00	2024-11-08T00:00:00	5	Humedad	89
111981	7	Sololá	704	Santa Lucía Utatlán 	7	Santa Rita 	8	Agosto	2023-08-18T00:00:00	2024-11-08T00:00:00	6	Velocidad del viento	1.6
111982	7	Sololá	704	Santa Lucía Utatlán 	7	Santa Rita 	8	Agosto	2023-08-18T00:00:00	2024-11-08T00:00:00	7	Dirección del viento	1.61
111983	7	Sololá	704	Santa Lucía Utatlán 	7	Santa Rita 	8	Agosto	2023-08-18T00:00:00	2024-11-08T00:00:00	1	Precipitación	0
111984	7	Sololá	704	Santa Lucía Utatlán 	7	Santa Rita 	8	Agosto	2023-08-18T00:00:00	2024-11-08T00:00:00	8	Radiación solar	0
111985	7	Sololá	704	Santa Lucía Utatlán 	7	Santa Rita 	8	Agosto	2023-08-18T00:00:00	2024-11-08T01:00:00	2	Temperatura media	18
111986	7	Sololá	704	Santa Lucía Utatlán 	7	Santa Rita 	8	Agosto	2023-08-18T00:00:00	2024-11-08T01:00:00	4	Temperatura máxima	18.3
111987	7	Sololá	704	Santa Lucía Utatlán 	7	Santa Rita 	8	Agosto	2023-08-18T00:00:00	2024-11-08T01:00:00	3	Temperatura mínima	18
111988	7	Sololá	704	Santa Lucía Utatlán 	7	Santa Rita 	8	Agosto	2023-08-18T00:00:00	2024-11-08T01:00:00	5	Humedad	92
111989	7	Sololá	704	Santa Lucía Utatlán 	7	Santa Rita 	8	Agosto	2023-08-18T00:00:00	2024-11-08T01:00:00	6	Velocidad del viento	0
111990	7	Sololá	704	Santa Lucía Utatlán 	7	Santa Rita 	8	Agosto	2023-08-18T00:00:00	2024-11-08T01:00:00	7	Dirección del viento	0
111991	7	Sololá	704	Santa Lucía Utatlán 	7	Santa Rita 	8	Agosto	2023-08-18T00:00:00	2024-11-08T01:00:00	1	Precipitación	0
111992	7	Sololá	704	Santa Lucía Utatlán 	7	Santa Rita 	8	Agosto	2023-08-18T00:00:00	2024-11-08T01:00:00	8	Radiación solar	0
111993	7	Sololá	704	Santa Lucía Utatlán 	7	Santa Rita 	8	Agosto	2023-08-18T00:00:00	2024-11-08T02:00:00	2	Temperatura media	18.2
111994	7	Sololá	704	Santa Lucía Utatlán 	7	Santa Rita 	8	Agosto	2023-08-18T00:00:00	2024-11-08T02:00:00	4	Temperatura máxima	18.8
111995	7	Sololá	704	Santa Lucía Utatlán 	7	Santa Rita 	8	Agosto	2023-08-18T00:00:00	2024-11-08T02:00:00	3	Temperatura mínima	17.9
111996	7	Sololá	704	Santa Lucía Utatlán 	7	Santa Rita 	8	Agosto	2023-08-18T00:00:00	2024-11-08T02:00:00	5	Humedad	90
111997	7	Sololá	704	Santa Lucía Utatlán 	7	Santa Rita 	8	Agosto	2023-08-18T00:00:00	2024-11-08T02:00:00	6	Velocidad del viento	1.6
111998	7	Sololá	704	Santa Lucía Utatlán 	7	Santa Rita 	8	Agosto	2023-08-18T00:00:00	2024-11-08T02:00:00	7	Dirección del viento	1.61
111999	7	Sololá	704	Santa Lucía Utatlán 	7	Santa Rita 	8	Agosto	2023-08-18T00:00:00	2024-11-08T02:00:00	1	Precipitación	0
112000	7	Sololá	704	Santa Lucía Utatlán 	7	Santa Rita 	8	Agosto	2023-08-18T00:00:00	2024-11-08T02:00:00	8	Radiación solar	0
112001	7	Sololá	704	Santa Lucía Utatlán 	7	Santa Rita 	8	Agosto	2023-08-18T00:00:00	2024-11-08T03:00:00	2	Temperatura media	17.3
112002	7	Sololá	704	Santa Lucía Utatlán 	7	Santa Rita 	8	Agosto	2023-08-18T00:00:00	2024-11-08T03:00:00	4	Temperatura máxima	18.2
112003	7	Sololá	704	Santa Lucía Utatlán 	7	Santa Rita 	8	Agosto	2023-08-18T00:00:00	2024-11-08T03:00:00	3	Temperatura mínima	17.2
112004	7	Sololá	704	Santa Lucía Utatlán 	7	Santa Rita 	8	Agosto	2023-08-18T00:00:00	2024-11-08T03:00:00	5	Humedad	90
112005	7	Sololá	704	Santa Lucía Utatlán 	7	Santa Rita 	8	Agosto	2023-08-18T00:00:00	2024-11-08T03:00:00	6	Velocidad del viento	3.2
112006	7	Sololá	704	Santa Lucía Utatlán 	7	Santa Rita 	8	Agosto	2023-08-18T00:00:00	2024-11-08T03:00:00	7	Dirección del viento	3.22
112007	7	Sololá	704	Santa Lucía Utatlán 	7	Santa Rita 	8	Agosto	2023-08-18T00:00:00	2024-11-08T03:00:00	1	Precipitación	0
112008	7	Sololá	704	Santa Lucía Utatlán 	7	Santa Rita 	8	Agosto	2023-08-18T00:00:00	2024-11-08T03:00:00	8	Radiación solar	0
112009	7	Sololá	704	Santa Lucía Utatlán 	7	Santa Rita 	8	Agosto	2023-08-18T00:00:00	2024-11-08T04:00:00	2	Temperatura media	20.2
112010	7	Sololá	704	Santa Lucía Utatlán 	7	Santa Rita 	8	Agosto	2023-08-18T00:00:00	2024-11-08T04:00:00	4	Temperatura máxima	20.2
112011	7	Sololá	704	Santa Lucía Utatlán 	7	Santa Rita 	8	Agosto	2023-08-18T00:00:00	2024-11-08T04:00:00	3	Temperatura mínima	17.1
112012	7	Sololá	704	Santa Lucía Utatlán 	7	Santa Rita 	8	Agosto	2023-08-18T00:00:00	2024-11-08T04:00:00	5	Humedad	82
112013	7	Sololá	704	Santa Lucía Utatlán 	7	Santa Rita 	8	Agosto	2023-08-18T00:00:00	2024-11-08T04:00:00	6	Velocidad del viento	3.2
112014	7	Sololá	704	Santa Lucía Utatlán 	7	Santa Rita 	8	Agosto	2023-08-18T00:00:00	2024-11-08T04:00:00	7	Dirección del viento	3.22
112015	7	Sololá	704	Santa Lucía Utatlán 	7	Santa Rita 	8	Agosto	2023-08-18T00:00:00	2024-11-08T04:00:00	1	Precipitación	0
112016	7	Sololá	704	Santa Lucía Utatlán 	7	Santa Rita 	8	Agosto	2023-08-18T00:00:00	2024-11-08T04:00:00	8	Radiación solar	0
112017	7	Sololá	704	Santa Lucía Utatlán 	7	Santa Rita 	8	Agosto	2023-08-18T00:00:00	2024-11-08T05:00:00	2	Temperatura media	22.6
112018	7	Sololá	704	Santa Lucía Utatlán 	7	Santa Rita 	8	Agosto	2023-08-18T00:00:00	2024-11-08T05:00:00	4	Temperatura máxima	22.6
112019	7	Sololá	704	Santa Lucía Utatlán 	7	Santa Rita 	8	Agosto	2023-08-18T00:00:00	2024-11-08T05:00:00	3	Temperatura mínima	20.2
112020	7	Sololá	704	Santa Lucía Utatlán 	7	Santa Rita 	8	Agosto	2023-08-18T00:00:00	2024-11-08T05:00:00	5	Humedad	75
112021	7	Sololá	704	Santa Lucía Utatlán 	7	Santa Rita 	8	Agosto	2023-08-18T00:00:00	2024-11-08T05:00:00	6	Velocidad del viento	3.2
112022	7	Sololá	704	Santa Lucía Utatlán 	7	Santa Rita 	8	Agosto	2023-08-18T00:00:00	2024-11-08T05:00:00	7	Dirección del viento	3.22
112023	7	Sololá	704	Santa Lucía Utatlán 	7	Santa Rita 	8	Agosto	2023-08-18T00:00:00	2024-11-08T05:00:00	1	Precipitación	0
112024	7	Sololá	704	Santa Lucía Utatlán 	7	Santa Rita 	8	Agosto	2023-08-18T00:00:00	2024-11-08T05:00:00	8	Radiación solar	0
112025	7	Sololá	704	Santa Lucía Utatlán 	7	Santa Rita 	8	Agosto	2023-08-18T00:00:00	2024-11-08T06:00:00	2	Temperatura media	23.8
112026	7	Sololá	704	Santa Lucía Utatlán 	7	Santa Rita 	8	Agosto	2023-08-18T00:00:00	2024-11-08T06:00:00	4	Temperatura máxima	24.2
112027	7	Sololá	704	Santa Lucía Utatlán 	7	Santa Rita 	8	Agosto	2023-08-18T00:00:00	2024-11-08T06:00:00	3	Temperatura mínima	22.6
112028	7	Sololá	704	Santa Lucía Utatlán 	7	Santa Rita 	8	Agosto	2023-08-18T00:00:00	2024-11-08T06:00:00	5	Humedad	66
112029	7	Sololá	704	Santa Lucía Utatlán 	7	Santa Rita 	8	Agosto	2023-08-18T00:00:00	2024-11-08T06:00:00	6	Velocidad del viento	6.4
112030	7	Sololá	704	Santa Lucía Utatlán 	7	Santa Rita 	8	Agosto	2023-08-18T00:00:00	2024-11-08T06:00:00	7	Dirección del viento	6.44
112031	7	Sololá	704	Santa Lucía Utatlán 	7	Santa Rita 	8	Agosto	2023-08-18T00:00:00	2024-11-08T06:00:00	1	Precipitación	0
112032	7	Sololá	704	Santa Lucía Utatlán 	7	Santa Rita 	8	Agosto	2023-08-18T00:00:00	2024-11-08T06:00:00	8	Radiación solar	3
112033	7	Sololá	704	Santa Lucía Utatlán 	7	Santa Rita 	8	Agosto	2023-08-18T00:00:00	2024-11-08T07:00:00	2	Temperatura media	23.8
112034	7	Sololá	704	Santa Lucía Utatlán 	7	Santa Rita 	8	Agosto	2023-08-18T00:00:00	2024-11-08T07:00:00	4	Temperatura máxima	24.6
112035	7	Sololá	704	Santa Lucía Utatlán 	7	Santa Rita 	8	Agosto	2023-08-18T00:00:00	2024-11-08T07:00:00	3	Temperatura mínima	23.4
112036	7	Sololá	704	Santa Lucía Utatlán 	7	Santa Rita 	8	Agosto	2023-08-18T00:00:00	2024-11-08T07:00:00	5	Humedad	64
112037	7	Sololá	704	Santa Lucía Utatlán 	7	Santa Rita 	8	Agosto	2023-08-18T00:00:00	2024-11-08T07:00:00	6	Velocidad del viento	11.3
112038	7	Sololá	704	Santa Lucía Utatlán 	7	Santa Rita 	8	Agosto	2023-08-18T00:00:00	2024-11-08T07:00:00	7	Dirección del viento	11.27
112039	7	Sololá	704	Santa Lucía Utatlán 	7	Santa Rita 	8	Agosto	2023-08-18T00:00:00	2024-11-08T07:00:00	1	Precipitación	0
112040	7	Sololá	704	Santa Lucía Utatlán 	7	Santa Rita 	8	Agosto	2023-08-18T00:00:00	2024-11-08T07:00:00	8	Radiación solar	141
112041	7	Sololá	704	Santa Lucía Utatlán 	7	Santa Rita 	8	Agosto	2023-08-18T00:00:00	2024-11-08T08:00:00	2	Temperatura media	24.4
112042	7	Sololá	704	Santa Lucía Utatlán 	7	Santa Rita 	8	Agosto	2023-08-18T00:00:00	2024-11-08T08:00:00	4	Temperatura máxima	24.7
112043	7	Sololá	704	Santa Lucía Utatlán 	7	Santa Rita 	8	Agosto	2023-08-18T00:00:00	2024-11-08T08:00:00	3	Temperatura mínima	23.8
112044	7	Sololá	704	Santa Lucía Utatlán 	7	Santa Rita 	8	Agosto	2023-08-18T00:00:00	2024-11-08T08:00:00	5	Humedad	62
112045	7	Sololá	704	Santa Lucía Utatlán 	7	Santa Rita 	8	Agosto	2023-08-18T00:00:00	2024-11-08T08:00:00	6	Velocidad del viento	11.3
112046	7	Sololá	704	Santa Lucía Utatlán 	7	Santa Rita 	8	Agosto	2023-08-18T00:00:00	2024-11-08T08:00:00	7	Dirección del viento	11.27
112047	7	Sololá	704	Santa Lucía Utatlán 	7	Santa Rita 	8	Agosto	2023-08-18T00:00:00	2024-11-08T08:00:00	1	Precipitación	0
112048	7	Sololá	704	Santa Lucía Utatlán 	7	Santa Rita 	8	Agosto	2023-08-18T00:00:00	2024-11-08T08:00:00	8	Radiación solar	423
112049	7	Sololá	704	Santa Lucía Utatlán 	7	Santa Rita 	8	Agosto	2023-08-18T00:00:00	2024-11-08T09:00:00	2	Temperatura media	25
112050	7	Sololá	704	Santa Lucía Utatlán 	7	Santa Rita 	8	Agosto	2023-08-18T00:00:00	2024-11-08T09:00:00	4	Temperatura máxima	25.3
112051	7	Sololá	704	Santa Lucía Utatlán 	7	Santa Rita 	8	Agosto	2023-08-18T00:00:00	2024-11-08T09:00:00	3	Temperatura mínima	24.3
112052	7	Sololá	704	Santa Lucía Utatlán 	7	Santa Rita 	8	Agosto	2023-08-18T00:00:00	2024-11-08T09:00:00	5	Humedad	61
112053	7	Sololá	704	Santa Lucía Utatlán 	7	Santa Rita 	8	Agosto	2023-08-18T00:00:00	2024-11-08T09:00:00	6	Velocidad del viento	12.9
112054	7	Sololá	704	Santa Lucía Utatlán 	7	Santa Rita 	8	Agosto	2023-08-18T00:00:00	2024-11-08T09:00:00	7	Dirección del viento	12.87
112055	7	Sololá	704	Santa Lucía Utatlán 	7	Santa Rita 	8	Agosto	2023-08-18T00:00:00	2024-11-08T09:00:00	1	Precipitación	0
112056	7	Sololá	704	Santa Lucía Utatlán 	7	Santa Rita 	8	Agosto	2023-08-18T00:00:00	2024-11-08T09:00:00	8	Radiación solar	670
112057	7	Sololá	704	Santa Lucía Utatlán 	7	Santa Rita 	8	Agosto	2023-08-18T00:00:00	2024-11-08T10:00:00	2	Temperatura media	24
112058	7	Sololá	704	Santa Lucía Utatlán 	7	Santa Rita 	8	Agosto	2023-08-18T00:00:00	2024-11-08T10:00:00	4	Temperatura máxima	25.1
112059	7	Sololá	704	Santa Lucía Utatlán 	7	Santa Rita 	8	Agosto	2023-08-18T00:00:00	2024-11-08T10:00:00	3	Temperatura mínima	23.7
112060	7	Sololá	704	Santa Lucía Utatlán 	7	Santa Rita 	8	Agosto	2023-08-18T00:00:00	2024-11-08T10:00:00	5	Humedad	64
112061	7	Sololá	704	Santa Lucía Utatlán 	7	Santa Rita 	8	Agosto	2023-08-18T00:00:00	2024-11-08T10:00:00	6	Velocidad del viento	11.3
112062	7	Sololá	704	Santa Lucía Utatlán 	7	Santa Rita 	8	Agosto	2023-08-18T00:00:00	2024-11-08T10:00:00	7	Dirección del viento	11.27
112063	7	Sololá	704	Santa Lucía Utatlán 	7	Santa Rita 	8	Agosto	2023-08-18T00:00:00	2024-11-08T10:00:00	1	Precipitación	0
112064	7	Sololá	704	Santa Lucía Utatlán 	7	Santa Rita 	8	Agosto	2023-08-18T00:00:00	2024-11-08T10:00:00	8	Radiación solar	839
112065	7	Sololá	704	Santa Lucía Utatlán 	7	Santa Rita 	8	Agosto	2023-08-18T00:00:00	2024-11-08T11:00:00	2	Temperatura media	23.8
112066	7	Sololá	704	Santa Lucía Utatlán 	7	Santa Rita 	8	Agosto	2023-08-18T00:00:00	2024-11-08T11:00:00	4	Temperatura máxima	25.6
112067	7	Sololá	704	Santa Lucía Utatlán 	7	Santa Rita 	8	Agosto	2023-08-18T00:00:00	2024-11-08T11:00:00	3	Temperatura mínima	23.8
112068	7	Sololá	704	Santa Lucía Utatlán 	7	Santa Rita 	8	Agosto	2023-08-18T00:00:00	2024-11-08T11:00:00	5	Humedad	67
112069	7	Sololá	704	Santa Lucía Utatlán 	7	Santa Rita 	8	Agosto	2023-08-18T00:00:00	2024-11-08T11:00:00	6	Velocidad del viento	8
112070	7	Sololá	704	Santa Lucía Utatlán 	7	Santa Rita 	8	Agosto	2023-08-18T00:00:00	2024-11-08T11:00:00	7	Dirección del viento	8.05
112071	7	Sololá	704	Santa Lucía Utatlán 	7	Santa Rita 	8	Agosto	2023-08-18T00:00:00	2024-11-08T11:00:00	1	Precipitación	0
112072	7	Sololá	704	Santa Lucía Utatlán 	7	Santa Rita 	8	Agosto	2023-08-18T00:00:00	2024-11-08T11:00:00	8	Radiación solar	1047
112073	7	Sololá	704	Santa Lucía Utatlán 	7	Santa Rita 	8	Agosto	2023-08-18T00:00:00	2024-11-08T12:00:00	2	Temperatura media	24.8
112074	7	Sololá	704	Santa Lucía Utatlán 	7	Santa Rita 	8	Agosto	2023-08-18T00:00:00	2024-11-08T12:00:00	4	Temperatura máxima	25
112075	7	Sololá	704	Santa Lucía Utatlán 	7	Santa Rita 	8	Agosto	2023-08-18T00:00:00	2024-11-08T12:00:00	3	Temperatura mínima	23.7
112076	7	Sololá	704	Santa Lucía Utatlán 	7	Santa Rita 	8	Agosto	2023-08-18T00:00:00	2024-11-08T12:00:00	5	Humedad	62
112077	7	Sololá	704	Santa Lucía Utatlán 	7	Santa Rita 	8	Agosto	2023-08-18T00:00:00	2024-11-08T12:00:00	6	Velocidad del viento	8
112078	7	Sololá	704	Santa Lucía Utatlán 	7	Santa Rita 	8	Agosto	2023-08-18T00:00:00	2024-11-08T12:00:00	7	Dirección del viento	8.05
112079	7	Sololá	704	Santa Lucía Utatlán 	7	Santa Rita 	8	Agosto	2023-08-18T00:00:00	2024-11-08T12:00:00	1	Precipitación	0
112080	7	Sololá	704	Santa Lucía Utatlán 	7	Santa Rita 	8	Agosto	2023-08-18T00:00:00	2024-11-08T12:00:00	8	Radiación solar	1003
112081	7	Sololá	704	Santa Lucía Utatlán 	7	Santa Rita 	8	Agosto	2023-08-18T00:00:00	2024-11-08T13:00:00	2	Temperatura media	24.2
112082	7	Sololá	704	Santa Lucía Utatlán 	7	Santa Rita 	8	Agosto	2023-08-18T00:00:00	2024-11-08T13:00:00	4	Temperatura máxima	25.1
112083	7	Sololá	704	Santa Lucía Utatlán 	7	Santa Rita 	8	Agosto	2023-08-18T00:00:00	2024-11-08T13:00:00	3	Temperatura mínima	24.2
112084	7	Sololá	704	Santa Lucía Utatlán 	7	Santa Rita 	8	Agosto	2023-08-18T00:00:00	2024-11-08T13:00:00	5	Humedad	54
112085	7	Sololá	704	Santa Lucía Utatlán 	7	Santa Rita 	8	Agosto	2023-08-18T00:00:00	2024-11-08T13:00:00	6	Velocidad del viento	11.3
112086	7	Sololá	704	Santa Lucía Utatlán 	7	Santa Rita 	8	Agosto	2023-08-18T00:00:00	2024-11-08T13:00:00	7	Dirección del viento	11.27
112087	7	Sololá	704	Santa Lucía Utatlán 	7	Santa Rita 	8	Agosto	2023-08-18T00:00:00	2024-11-08T13:00:00	1	Precipitación	0
112088	7	Sololá	704	Santa Lucía Utatlán 	7	Santa Rita 	8	Agosto	2023-08-18T00:00:00	2024-11-08T13:00:00	8	Radiación solar	520
112089	7	Sololá	704	Santa Lucía Utatlán 	7	Santa Rita 	8	Agosto	2023-08-18T00:00:00	2024-11-08T14:00:00	2	Temperatura media	22.9
112090	7	Sololá	704	Santa Lucía Utatlán 	7	Santa Rita 	8	Agosto	2023-08-18T00:00:00	2024-11-08T14:00:00	4	Temperatura máxima	24.2
112091	7	Sololá	704	Santa Lucía Utatlán 	7	Santa Rita 	8	Agosto	2023-08-18T00:00:00	2024-11-08T14:00:00	3	Temperatura mínima	22.9
112092	7	Sololá	704	Santa Lucía Utatlán 	7	Santa Rita 	8	Agosto	2023-08-18T00:00:00	2024-11-08T14:00:00	5	Humedad	64
112093	7	Sololá	704	Santa Lucía Utatlán 	7	Santa Rita 	8	Agosto	2023-08-18T00:00:00	2024-11-08T14:00:00	6	Velocidad del viento	8
112094	7	Sololá	704	Santa Lucía Utatlán 	7	Santa Rita 	8	Agosto	2023-08-18T00:00:00	2024-11-08T14:00:00	7	Dirección del viento	8.05
112095	7	Sololá	704	Santa Lucía Utatlán 	7	Santa Rita 	8	Agosto	2023-08-18T00:00:00	2024-11-08T14:00:00	1	Precipitación	0
112096	7	Sololá	704	Santa Lucía Utatlán 	7	Santa Rita 	8	Agosto	2023-08-18T00:00:00	2024-11-08T14:00:00	8	Radiación solar	370
112097	7	Sololá	704	Santa Lucía Utatlán 	7	Santa Rita 	8	Agosto	2023-08-18T00:00:00	2024-11-08T15:00:00	2	Temperatura media	21.9
112098	7	Sololá	704	Santa Lucía Utatlán 	7	Santa Rita 	8	Agosto	2023-08-18T00:00:00	2024-11-08T15:00:00	4	Temperatura máxima	23.1
112099	7	Sololá	704	Santa Lucía Utatlán 	7	Santa Rita 	8	Agosto	2023-08-18T00:00:00	2024-11-08T15:00:00	3	Temperatura mínima	21.9
112100	7	Sololá	704	Santa Lucía Utatlán 	7	Santa Rita 	8	Agosto	2023-08-18T00:00:00	2024-11-08T15:00:00	5	Humedad	72
112101	7	Sololá	704	Santa Lucía Utatlán 	7	Santa Rita 	8	Agosto	2023-08-18T00:00:00	2024-11-08T15:00:00	6	Velocidad del viento	4.8
112102	7	Sololá	704	Santa Lucía Utatlán 	7	Santa Rita 	8	Agosto	2023-08-18T00:00:00	2024-11-08T15:00:00	7	Dirección del viento	4.83
112103	7	Sololá	704	Santa Lucía Utatlán 	7	Santa Rita 	8	Agosto	2023-08-18T00:00:00	2024-11-08T15:00:00	1	Precipitación	0
112104	7	Sololá	704	Santa Lucía Utatlán 	7	Santa Rita 	8	Agosto	2023-08-18T00:00:00	2024-11-08T15:00:00	8	Radiación solar	377
112105	7	Sololá	704	Santa Lucía Utatlán 	7	Santa Rita 	8	Agosto	2023-08-18T00:00:00	2024-11-08T16:00:00	2	Temperatura media	21.1
112106	7	Sololá	704	Santa Lucía Utatlán 	7	Santa Rita 	8	Agosto	2023-08-18T00:00:00	2024-11-08T16:00:00	4	Temperatura máxima	22
112107	7	Sololá	704	Santa Lucía Utatlán 	7	Santa Rita 	8	Agosto	2023-08-18T00:00:00	2024-11-08T16:00:00	3	Temperatura mínima	21.1
112108	7	Sololá	704	Santa Lucía Utatlán 	7	Santa Rita 	8	Agosto	2023-08-18T00:00:00	2024-11-08T16:00:00	5	Humedad	77
112109	7	Sololá	704	Santa Lucía Utatlán 	7	Santa Rita 	8	Agosto	2023-08-18T00:00:00	2024-11-08T16:00:00	6	Velocidad del viento	4.8
112110	7	Sololá	704	Santa Lucía Utatlán 	7	Santa Rita 	8	Agosto	2023-08-18T00:00:00	2024-11-08T16:00:00	7	Dirección del viento	4.83
112111	7	Sololá	704	Santa Lucía Utatlán 	7	Santa Rita 	8	Agosto	2023-08-18T00:00:00	2024-11-08T16:00:00	1	Precipitación	0
112112	7	Sololá	704	Santa Lucía Utatlán 	7	Santa Rita 	8	Agosto	2023-08-18T00:00:00	2024-11-08T16:00:00	8	Radiación solar	489
112113	7	Sololá	704	Santa Lucía Utatlán 	7	Santa Rita 	8	Agosto	2023-08-18T00:00:00	2024-11-08T17:00:00	2	Temperatura media	19.4
112114	7	Sololá	704	Santa Lucía Utatlán 	7	Santa Rita 	8	Agosto	2023-08-18T00:00:00	2024-11-08T17:00:00	4	Temperatura máxima	21.1
112115	7	Sololá	704	Santa Lucía Utatlán 	7	Santa Rita 	8	Agosto	2023-08-18T00:00:00	2024-11-08T17:00:00	3	Temperatura mínima	19.3
112116	7	Sololá	704	Santa Lucía Utatlán 	7	Santa Rita 	8	Agosto	2023-08-18T00:00:00	2024-11-08T17:00:00	5	Humedad	83
112117	7	Sololá	704	Santa Lucía Utatlán 	7	Santa Rita 	8	Agosto	2023-08-18T00:00:00	2024-11-08T17:00:00	6	Velocidad del viento	1.6
112118	7	Sololá	704	Santa Lucía Utatlán 	7	Santa Rita 	8	Agosto	2023-08-18T00:00:00	2024-11-08T17:00:00	7	Dirección del viento	1.61
112119	7	Sololá	704	Santa Lucía Utatlán 	7	Santa Rita 	8	Agosto	2023-08-18T00:00:00	2024-11-08T17:00:00	1	Precipitación	0
112120	7	Sololá	704	Santa Lucía Utatlán 	7	Santa Rita 	8	Agosto	2023-08-18T00:00:00	2024-11-08T17:00:00	8	Radiación solar	312
112121	7	Sololá	704	Santa Lucía Utatlán 	7	Santa Rita 	8	Agosto	2023-08-18T00:00:00	2024-11-08T18:00:00	2	Temperatura media	18.8
112122	7	Sololá	704	Santa Lucía Utatlán 	7	Santa Rita 	8	Agosto	2023-08-18T00:00:00	2024-11-08T18:00:00	4	Temperatura máxima	19.4
112123	7	Sololá	704	Santa Lucía Utatlán 	7	Santa Rita 	8	Agosto	2023-08-18T00:00:00	2024-11-08T18:00:00	3	Temperatura mínima	18.7
112124	7	Sololá	704	Santa Lucía Utatlán 	7	Santa Rita 	8	Agosto	2023-08-18T00:00:00	2024-11-08T18:00:00	5	Humedad	80
112125	7	Sololá	704	Santa Lucía Utatlán 	7	Santa Rita 	8	Agosto	2023-08-18T00:00:00	2024-11-08T18:00:00	6	Velocidad del viento	3.2
112126	7	Sololá	704	Santa Lucía Utatlán 	7	Santa Rita 	8	Agosto	2023-08-18T00:00:00	2024-11-08T18:00:00	7	Dirección del viento	3.22
112127	7	Sololá	704	Santa Lucía Utatlán 	7	Santa Rita 	8	Agosto	2023-08-18T00:00:00	2024-11-08T18:00:00	1	Precipitación	0
112128	7	Sololá	704	Santa Lucía Utatlán 	7	Santa Rita 	8	Agosto	2023-08-18T00:00:00	2024-11-08T18:00:00	8	Radiación solar	51
112129	7	Sololá	704	Santa Lucía Utatlán 	7	Santa Rita 	8	Agosto	2023-08-18T00:00:00	2024-11-08T19:00:00	2	Temperatura media	19.9
112130	7	Sololá	704	Santa Lucía Utatlán 	7	Santa Rita 	8	Agosto	2023-08-18T00:00:00	2024-11-08T19:00:00	4	Temperatura máxima	19.9
112131	7	Sololá	704	Santa Lucía Utatlán 	7	Santa Rita 	8	Agosto	2023-08-18T00:00:00	2024-11-08T19:00:00	3	Temperatura mínima	18.1
112132	7	Sololá	704	Santa Lucía Utatlán 	7	Santa Rita 	8	Agosto	2023-08-18T00:00:00	2024-11-08T19:00:00	5	Humedad	70
112133	7	Sololá	704	Santa Lucía Utatlán 	7	Santa Rita 	8	Agosto	2023-08-18T00:00:00	2024-11-08T19:00:00	6	Velocidad del viento	4.8
112134	7	Sololá	704	Santa Lucía Utatlán 	7	Santa Rita 	8	Agosto	2023-08-18T00:00:00	2024-11-08T19:00:00	7	Dirección del viento	4.83
112135	7	Sololá	704	Santa Lucía Utatlán 	7	Santa Rita 	8	Agosto	2023-08-18T00:00:00	2024-11-08T19:00:00	1	Precipitación	0
112136	7	Sololá	704	Santa Lucía Utatlán 	7	Santa Rita 	8	Agosto	2023-08-18T00:00:00	2024-11-08T19:00:00	8	Radiación solar	0
112137	7	Sololá	704	Santa Lucía Utatlán 	7	Santa Rita 	8	Agosto	2023-08-18T00:00:00	2024-11-08T20:00:00	2	Temperatura media	19.8
112138	7	Sololá	704	Santa Lucía Utatlán 	7	Santa Rita 	8	Agosto	2023-08-18T00:00:00	2024-11-08T20:00:00	4	Temperatura máxima	20.1
112139	7	Sololá	704	Santa Lucía Utatlán 	7	Santa Rita 	8	Agosto	2023-08-18T00:00:00	2024-11-08T20:00:00	3	Temperatura mínima	19.8
112140	7	Sololá	704	Santa Lucía Utatlán 	7	Santa Rita 	8	Agosto	2023-08-18T00:00:00	2024-11-08T20:00:00	5	Humedad	64
112141	7	Sololá	704	Santa Lucía Utatlán 	7	Santa Rita 	8	Agosto	2023-08-18T00:00:00	2024-11-08T20:00:00	6	Velocidad del viento	9.7
112142	7	Sololá	704	Santa Lucía Utatlán 	7	Santa Rita 	8	Agosto	2023-08-18T00:00:00	2024-11-08T20:00:00	7	Dirección del viento	9.66
112143	7	Sololá	704	Santa Lucía Utatlán 	7	Santa Rita 	8	Agosto	2023-08-18T00:00:00	2024-11-08T20:00:00	1	Precipitación	0
112144	7	Sololá	704	Santa Lucía Utatlán 	7	Santa Rita 	8	Agosto	2023-08-18T00:00:00	2024-11-08T20:00:00	8	Radiación solar	0
112145	7	Sololá	704	Santa Lucía Utatlán 	7	Santa Rita 	8	Agosto	2023-08-18T00:00:00	2024-11-08T21:00:00	2	Temperatura media	19.6
112146	7	Sololá	704	Santa Lucía Utatlán 	7	Santa Rita 	8	Agosto	2023-08-18T00:00:00	2024-11-08T21:00:00	4	Temperatura máxima	19.8
112147	7	Sololá	704	Santa Lucía Utatlán 	7	Santa Rita 	8	Agosto	2023-08-18T00:00:00	2024-11-08T21:00:00	3	Temperatura mínima	19.4
112148	7	Sololá	704	Santa Lucía Utatlán 	7	Santa Rita 	8	Agosto	2023-08-18T00:00:00	2024-11-08T21:00:00	5	Humedad	64
112149	7	Sololá	704	Santa Lucía Utatlán 	7	Santa Rita 	8	Agosto	2023-08-18T00:00:00	2024-11-08T21:00:00	6	Velocidad del viento	8
112150	7	Sololá	704	Santa Lucía Utatlán 	7	Santa Rita 	8	Agosto	2023-08-18T00:00:00	2024-11-08T21:00:00	7	Dirección del viento	8.05
112151	7	Sololá	704	Santa Lucía Utatlán 	7	Santa Rita 	8	Agosto	2023-08-18T00:00:00	2024-11-08T21:00:00	1	Precipitación	0
112152	7	Sololá	704	Santa Lucía Utatlán 	7	Santa Rita 	8	Agosto	2023-08-18T00:00:00	2024-11-08T21:00:00	8	Radiación solar	0
112153	7	Sololá	704	Santa Lucía Utatlán 	7	Santa Rita 	8	Agosto	2023-08-18T00:00:00	2024-11-08T22:00:00	2	Temperatura media	18.3
112154	7	Sololá	704	Santa Lucía Utatlán 	7	Santa Rita 	8	Agosto	2023-08-18T00:00:00	2024-11-08T22:00:00	4	Temperatura máxima	19.6
112155	7	Sololá	704	Santa Lucía Utatlán 	7	Santa Rita 	8	Agosto	2023-08-18T00:00:00	2024-11-08T22:00:00	3	Temperatura mínima	18.3
112156	7	Sololá	704	Santa Lucía Utatlán 	7	Santa Rita 	8	Agosto	2023-08-18T00:00:00	2024-11-08T22:00:00	5	Humedad	71
112157	7	Sololá	704	Santa Lucía Utatlán 	7	Santa Rita 	8	Agosto	2023-08-18T00:00:00	2024-11-08T22:00:00	6	Velocidad del viento	4.8
112158	7	Sololá	704	Santa Lucía Utatlán 	7	Santa Rita 	8	Agosto	2023-08-18T00:00:00	2024-11-08T22:00:00	7	Dirección del viento	4.83
112159	7	Sololá	704	Santa Lucía Utatlán 	7	Santa Rita 	8	Agosto	2023-08-18T00:00:00	2024-11-08T22:00:00	1	Precipitación	0
112160	7	Sololá	704	Santa Lucía Utatlán 	7	Santa Rita 	8	Agosto	2023-08-18T00:00:00	2024-11-08T22:00:00	8	Radiación solar	0
112161	7	Sololá	704	Santa Lucía Utatlán 	7	Santa Rita 	8	Agosto	2023-08-18T00:00:00	2024-11-08T23:00:00	2	Temperatura media	17.2
112162	7	Sololá	704	Santa Lucía Utatlán 	7	Santa Rita 	8	Agosto	2023-08-18T00:00:00	2024-11-08T23:00:00	4	Temperatura máxima	18.2
112163	7	Sololá	704	Santa Lucía Utatlán 	7	Santa Rita 	8	Agosto	2023-08-18T00:00:00	2024-11-08T23:00:00	3	Temperatura mínima	16.7
112164	7	Sololá	704	Santa Lucía Utatlán 	7	Santa Rita 	8	Agosto	2023-08-18T00:00:00	2024-11-08T23:00:00	5	Humedad	71
112165	7	Sololá	704	Santa Lucía Utatlán 	7	Santa Rita 	8	Agosto	2023-08-18T00:00:00	2024-11-08T23:00:00	6	Velocidad del viento	3.2
112166	7	Sololá	704	Santa Lucía Utatlán 	7	Santa Rita 	8	Agosto	2023-08-18T00:00:00	2024-11-08T23:00:00	7	Dirección del viento	3.22
112167	7	Sololá	704	Santa Lucía Utatlán 	7	Santa Rita 	8	Agosto	2023-08-18T00:00:00	2024-11-08T23:00:00	1	Precipitación	0
112168	7	Sololá	704	Santa Lucía Utatlán 	7	Santa Rita 	8	Agosto	2023-08-18T00:00:00	2024-11-08T23:00:00	8	Radiación solar	0
112169	7	Sololá	704	Santa Lucía Utatlán 	7	Santa Rita 	8	Agosto	2023-08-19T00:00:00	2024-11-08T00:00:00	2	Temperatura media	14.9
112170	7	Sololá	704	Santa Lucía Utatlán 	7	Santa Rita 	8	Agosto	2023-08-19T00:00:00	2024-11-08T00:00:00	4	Temperatura máxima	17.2
112171	7	Sololá	704	Santa Lucía Utatlán 	7	Santa Rita 	8	Agosto	2023-08-19T00:00:00	2024-11-08T00:00:00	3	Temperatura mínima	14.9
112172	7	Sololá	704	Santa Lucía Utatlán 	7	Santa Rita 	8	Agosto	2023-08-19T00:00:00	2024-11-08T00:00:00	5	Humedad	71
112173	7	Sololá	704	Santa Lucía Utatlán 	7	Santa Rita 	8	Agosto	2023-08-19T00:00:00	2024-11-08T00:00:00	6	Velocidad del viento	4.8
112174	7	Sololá	704	Santa Lucía Utatlán 	7	Santa Rita 	8	Agosto	2023-08-19T00:00:00	2024-11-08T00:00:00	7	Dirección del viento	4.83
112175	7	Sololá	704	Santa Lucía Utatlán 	7	Santa Rita 	8	Agosto	2023-08-19T00:00:00	2024-11-08T00:00:00	1	Precipitación	0
112176	7	Sololá	704	Santa Lucía Utatlán 	7	Santa Rita 	8	Agosto	2023-08-19T00:00:00	2024-11-08T00:00:00	8	Radiación solar	0
112177	7	Sololá	704	Santa Lucía Utatlán 	7	Santa Rita 	8	Agosto	2023-08-19T00:00:00	2024-11-08T01:00:00	2	Temperatura media	14.6
112178	7	Sololá	704	Santa Lucía Utatlán 	7	Santa Rita 	8	Agosto	2023-08-19T00:00:00	2024-11-08T01:00:00	4	Temperatura máxima	15.3
112179	7	Sololá	704	Santa Lucía Utatlán 	7	Santa Rita 	8	Agosto	2023-08-19T00:00:00	2024-11-08T01:00:00	3	Temperatura mínima	14.6
112180	7	Sololá	704	Santa Lucía Utatlán 	7	Santa Rita 	8	Agosto	2023-08-19T00:00:00	2024-11-08T01:00:00	5	Humedad	71
112181	7	Sololá	704	Santa Lucía Utatlán 	7	Santa Rita 	8	Agosto	2023-08-19T00:00:00	2024-11-08T01:00:00	6	Velocidad del viento	4.8
112182	7	Sololá	704	Santa Lucía Utatlán 	7	Santa Rita 	8	Agosto	2023-08-19T00:00:00	2024-11-08T01:00:00	7	Dirección del viento	4.83
112183	7	Sololá	704	Santa Lucía Utatlán 	7	Santa Rita 	8	Agosto	2023-08-19T00:00:00	2024-11-08T01:00:00	1	Precipitación	0
112184	7	Sololá	704	Santa Lucía Utatlán 	7	Santa Rita 	8	Agosto	2023-08-19T00:00:00	2024-11-08T01:00:00	8	Radiación solar	0
112185	7	Sololá	704	Santa Lucía Utatlán 	7	Santa Rita 	8	Agosto	2023-08-19T00:00:00	2024-11-08T02:00:00	2	Temperatura media	14.4
112186	7	Sololá	704	Santa Lucía Utatlán 	7	Santa Rita 	8	Agosto	2023-08-19T00:00:00	2024-11-08T02:00:00	4	Temperatura máxima	14.6
112187	7	Sololá	704	Santa Lucía Utatlán 	7	Santa Rita 	8	Agosto	2023-08-19T00:00:00	2024-11-08T02:00:00	3	Temperatura mínima	13.9
112188	7	Sololá	704	Santa Lucía Utatlán 	7	Santa Rita 	8	Agosto	2023-08-19T00:00:00	2024-11-08T02:00:00	5	Humedad	70
112189	7	Sololá	704	Santa Lucía Utatlán 	7	Santa Rita 	8	Agosto	2023-08-19T00:00:00	2024-11-08T02:00:00	6	Velocidad del viento	4.8
112190	7	Sololá	704	Santa Lucía Utatlán 	7	Santa Rita 	8	Agosto	2023-08-19T00:00:00	2024-11-08T02:00:00	7	Dirección del viento	4.83
112191	7	Sololá	704	Santa Lucía Utatlán 	7	Santa Rita 	8	Agosto	2023-08-19T00:00:00	2024-11-08T02:00:00	1	Precipitación	0
112192	7	Sololá	704	Santa Lucía Utatlán 	7	Santa Rita 	8	Agosto	2023-08-19T00:00:00	2024-11-08T02:00:00	8	Radiación solar	0
112193	7	Sololá	704	Santa Lucía Utatlán 	7	Santa Rita 	8	Agosto	2023-08-19T00:00:00	2024-11-08T03:00:00	2	Temperatura media	16.3
112194	7	Sololá	704	Santa Lucía Utatlán 	7	Santa Rita 	8	Agosto	2023-08-19T00:00:00	2024-11-08T03:00:00	4	Temperatura máxima	16.3
112195	7	Sololá	704	Santa Lucía Utatlán 	7	Santa Rita 	8	Agosto	2023-08-19T00:00:00	2024-11-08T03:00:00	3	Temperatura mínima	14.4
112196	7	Sololá	704	Santa Lucía Utatlán 	7	Santa Rita 	8	Agosto	2023-08-19T00:00:00	2024-11-08T03:00:00	5	Humedad	73
112197	7	Sololá	704	Santa Lucía Utatlán 	7	Santa Rita 	8	Agosto	2023-08-19T00:00:00	2024-11-08T03:00:00	6	Velocidad del viento	4.8
112198	7	Sololá	704	Santa Lucía Utatlán 	7	Santa Rita 	8	Agosto	2023-08-19T00:00:00	2024-11-08T03:00:00	7	Dirección del viento	4.83
112199	7	Sololá	704	Santa Lucía Utatlán 	7	Santa Rita 	8	Agosto	2023-08-19T00:00:00	2024-11-08T03:00:00	1	Precipitación	0
112200	7	Sololá	704	Santa Lucía Utatlán 	7	Santa Rita 	8	Agosto	2023-08-19T00:00:00	2024-11-08T03:00:00	8	Radiación solar	0
112201	7	Sololá	704	Santa Lucía Utatlán 	7	Santa Rita 	8	Agosto	2023-08-19T00:00:00	2024-11-08T04:00:00	2	Temperatura media	18.3
112202	7	Sololá	704	Santa Lucía Utatlán 	7	Santa Rita 	8	Agosto	2023-08-19T00:00:00	2024-11-08T04:00:00	4	Temperatura máxima	18.3
112203	7	Sololá	704	Santa Lucía Utatlán 	7	Santa Rita 	8	Agosto	2023-08-19T00:00:00	2024-11-08T04:00:00	3	Temperatura mínima	15.7
112204	7	Sololá	704	Santa Lucía Utatlán 	7	Santa Rita 	8	Agosto	2023-08-19T00:00:00	2024-11-08T04:00:00	5	Humedad	72
112205	7	Sololá	704	Santa Lucía Utatlán 	7	Santa Rita 	8	Agosto	2023-08-19T00:00:00	2024-11-08T04:00:00	6	Velocidad del viento	3.2
112206	7	Sololá	704	Santa Lucía Utatlán 	7	Santa Rita 	8	Agosto	2023-08-19T00:00:00	2024-11-08T04:00:00	7	Dirección del viento	3.22
112207	7	Sololá	704	Santa Lucía Utatlán 	7	Santa Rita 	8	Agosto	2023-08-19T00:00:00	2024-11-08T04:00:00	1	Precipitación	0
112208	7	Sololá	704	Santa Lucía Utatlán 	7	Santa Rita 	8	Agosto	2023-08-19T00:00:00	2024-11-08T04:00:00	8	Radiación solar	0
112209	7	Sololá	704	Santa Lucía Utatlán 	7	Santa Rita 	8	Agosto	2023-08-19T00:00:00	2024-11-08T05:00:00	2	Temperatura media	21.5
112210	7	Sololá	704	Santa Lucía Utatlán 	7	Santa Rita 	8	Agosto	2023-08-19T00:00:00	2024-11-08T05:00:00	4	Temperatura máxima	21.5
112211	7	Sololá	704	Santa Lucía Utatlán 	7	Santa Rita 	8	Agosto	2023-08-19T00:00:00	2024-11-08T05:00:00	3	Temperatura mínima	18.3
112212	7	Sololá	704	Santa Lucía Utatlán 	7	Santa Rita 	8	Agosto	2023-08-19T00:00:00	2024-11-08T05:00:00	5	Humedad	61
112213	7	Sololá	704	Santa Lucía Utatlán 	7	Santa Rita 	8	Agosto	2023-08-19T00:00:00	2024-11-08T05:00:00	6	Velocidad del viento	3.2
112214	7	Sololá	704	Santa Lucía Utatlán 	7	Santa Rita 	8	Agosto	2023-08-19T00:00:00	2024-11-08T05:00:00	7	Dirección del viento	3.22
112215	7	Sololá	704	Santa Lucía Utatlán 	7	Santa Rita 	8	Agosto	2023-08-19T00:00:00	2024-11-08T05:00:00	1	Precipitación	0
112216	7	Sololá	704	Santa Lucía Utatlán 	7	Santa Rita 	8	Agosto	2023-08-19T00:00:00	2024-11-08T05:00:00	8	Radiación solar	0
112217	7	Sololá	704	Santa Lucía Utatlán 	7	Santa Rita 	8	Agosto	2023-08-19T00:00:00	2024-11-08T06:00:00	2	Temperatura media	23.8
112218	7	Sololá	704	Santa Lucía Utatlán 	7	Santa Rita 	8	Agosto	2023-08-19T00:00:00	2024-11-08T06:00:00	4	Temperatura máxima	23.9
112219	7	Sololá	704	Santa Lucía Utatlán 	7	Santa Rita 	8	Agosto	2023-08-19T00:00:00	2024-11-08T06:00:00	3	Temperatura mínima	21.6
112220	7	Sololá	704	Santa Lucía Utatlán 	7	Santa Rita 	8	Agosto	2023-08-19T00:00:00	2024-11-08T06:00:00	5	Humedad	52
112221	7	Sololá	704	Santa Lucía Utatlán 	7	Santa Rita 	8	Agosto	2023-08-19T00:00:00	2024-11-08T06:00:00	6	Velocidad del viento	4.8
112222	7	Sololá	704	Santa Lucía Utatlán 	7	Santa Rita 	8	Agosto	2023-08-19T00:00:00	2024-11-08T06:00:00	7	Dirección del viento	4.83
112223	7	Sololá	704	Santa Lucía Utatlán 	7	Santa Rita 	8	Agosto	2023-08-19T00:00:00	2024-11-08T06:00:00	1	Precipitación	0
112224	7	Sololá	704	Santa Lucía Utatlán 	7	Santa Rita 	8	Agosto	2023-08-19T00:00:00	2024-11-08T06:00:00	8	Radiación solar	8
112225	7	Sololá	704	Santa Lucía Utatlán 	7	Santa Rita 	8	Agosto	2023-08-19T00:00:00	2024-11-08T07:00:00	2	Temperatura media	24.9
112226	7	Sololá	704	Santa Lucía Utatlán 	7	Santa Rita 	8	Agosto	2023-08-19T00:00:00	2024-11-08T07:00:00	4	Temperatura máxima	25
112227	7	Sololá	704	Santa Lucía Utatlán 	7	Santa Rita 	8	Agosto	2023-08-19T00:00:00	2024-11-08T07:00:00	3	Temperatura mínima	23.8
112228	7	Sololá	704	Santa Lucía Utatlán 	7	Santa Rita 	8	Agosto	2023-08-19T00:00:00	2024-11-08T07:00:00	5	Humedad	46
112229	7	Sololá	704	Santa Lucía Utatlán 	7	Santa Rita 	8	Agosto	2023-08-19T00:00:00	2024-11-08T07:00:00	6	Velocidad del viento	6.4
112230	7	Sololá	704	Santa Lucía Utatlán 	7	Santa Rita 	8	Agosto	2023-08-19T00:00:00	2024-11-08T07:00:00	7	Dirección del viento	6.44
112231	7	Sololá	704	Santa Lucía Utatlán 	7	Santa Rita 	8	Agosto	2023-08-19T00:00:00	2024-11-08T07:00:00	1	Precipitación	0
112232	7	Sololá	704	Santa Lucía Utatlán 	7	Santa Rita 	8	Agosto	2023-08-19T00:00:00	2024-11-08T07:00:00	8	Radiación solar	126
112233	7	Sololá	704	Santa Lucía Utatlán 	7	Santa Rita 	8	Agosto	2023-08-19T00:00:00	2024-11-08T08:00:00	2	Temperatura media	24.4
112234	7	Sololá	704	Santa Lucía Utatlán 	7	Santa Rita 	8	Agosto	2023-08-19T00:00:00	2024-11-08T08:00:00	4	Temperatura máxima	25.1
112235	7	Sololá	704	Santa Lucía Utatlán 	7	Santa Rita 	8	Agosto	2023-08-19T00:00:00	2024-11-08T08:00:00	3	Temperatura mínima	23.9
112236	7	Sololá	704	Santa Lucía Utatlán 	7	Santa Rita 	8	Agosto	2023-08-19T00:00:00	2024-11-08T08:00:00	5	Humedad	60
112237	7	Sololá	704	Santa Lucía Utatlán 	7	Santa Rita 	8	Agosto	2023-08-19T00:00:00	2024-11-08T08:00:00	6	Velocidad del viento	11.3
112238	7	Sololá	704	Santa Lucía Utatlán 	7	Santa Rita 	8	Agosto	2023-08-19T00:00:00	2024-11-08T08:00:00	7	Dirección del viento	11.27
112239	7	Sololá	704	Santa Lucía Utatlán 	7	Santa Rita 	8	Agosto	2023-08-19T00:00:00	2024-11-08T08:00:00	1	Precipitación	0
112240	7	Sololá	704	Santa Lucía Utatlán 	7	Santa Rita 	8	Agosto	2023-08-19T00:00:00	2024-11-08T08:00:00	8	Radiación solar	421
112241	7	Sololá	704	Santa Lucía Utatlán 	7	Santa Rita 	8	Agosto	2023-08-19T00:00:00	2024-11-08T09:00:00	2	Temperatura media	24.9
112242	7	Sololá	704	Santa Lucía Utatlán 	7	Santa Rita 	8	Agosto	2023-08-19T00:00:00	2024-11-08T09:00:00	4	Temperatura máxima	25.5
112243	7	Sololá	704	Santa Lucía Utatlán 	7	Santa Rita 	8	Agosto	2023-08-19T00:00:00	2024-11-08T09:00:00	3	Temperatura mínima	24.4
112244	7	Sololá	704	Santa Lucía Utatlán 	7	Santa Rita 	8	Agosto	2023-08-19T00:00:00	2024-11-08T09:00:00	5	Humedad	59
112245	7	Sololá	704	Santa Lucía Utatlán 	7	Santa Rita 	8	Agosto	2023-08-19T00:00:00	2024-11-08T09:00:00	6	Velocidad del viento	8
112246	7	Sololá	704	Santa Lucía Utatlán 	7	Santa Rita 	8	Agosto	2023-08-19T00:00:00	2024-11-08T09:00:00	7	Dirección del viento	8.05
112247	7	Sololá	704	Santa Lucía Utatlán 	7	Santa Rita 	8	Agosto	2023-08-19T00:00:00	2024-11-08T09:00:00	1	Precipitación	0
112248	7	Sololá	704	Santa Lucía Utatlán 	7	Santa Rita 	8	Agosto	2023-08-19T00:00:00	2024-11-08T09:00:00	8	Radiación solar	656
112249	7	Sololá	704	Santa Lucía Utatlán 	7	Santa Rita 	8	Agosto	2023-08-19T00:00:00	2024-11-08T10:00:00	2	Temperatura media	23.6
112250	7	Sololá	704	Santa Lucía Utatlán 	7	Santa Rita 	8	Agosto	2023-08-19T00:00:00	2024-11-08T10:00:00	4	Temperatura máxima	25.1
112251	7	Sololá	704	Santa Lucía Utatlán 	7	Santa Rita 	8	Agosto	2023-08-19T00:00:00	2024-11-08T10:00:00	3	Temperatura mínima	23.4
112252	7	Sololá	704	Santa Lucía Utatlán 	7	Santa Rita 	8	Agosto	2023-08-19T00:00:00	2024-11-08T10:00:00	5	Humedad	63
112253	7	Sololá	704	Santa Lucía Utatlán 	7	Santa Rita 	8	Agosto	2023-08-19T00:00:00	2024-11-08T10:00:00	6	Velocidad del viento	9.7
112254	7	Sololá	704	Santa Lucía Utatlán 	7	Santa Rita 	8	Agosto	2023-08-19T00:00:00	2024-11-08T10:00:00	7	Dirección del viento	9.66
112255	7	Sololá	704	Santa Lucía Utatlán 	7	Santa Rita 	8	Agosto	2023-08-19T00:00:00	2024-11-08T10:00:00	1	Precipitación	0
112256	7	Sololá	704	Santa Lucía Utatlán 	7	Santa Rita 	8	Agosto	2023-08-19T00:00:00	2024-11-08T10:00:00	8	Radiación solar	836
112257	7	Sololá	704	Santa Lucía Utatlán 	7	Santa Rita 	8	Agosto	2023-08-19T00:00:00	2024-11-08T11:00:00	2	Temperatura media	24.1
112258	7	Sololá	704	Santa Lucía Utatlán 	7	Santa Rita 	8	Agosto	2023-08-19T00:00:00	2024-11-08T11:00:00	4	Temperatura máxima	24.7
112259	7	Sololá	704	Santa Lucía Utatlán 	7	Santa Rita 	8	Agosto	2023-08-19T00:00:00	2024-11-08T11:00:00	3	Temperatura mínima	23.5
112260	7	Sololá	704	Santa Lucía Utatlán 	7	Santa Rita 	8	Agosto	2023-08-19T00:00:00	2024-11-08T11:00:00	5	Humedad	61
112261	7	Sololá	704	Santa Lucía Utatlán 	7	Santa Rita 	8	Agosto	2023-08-19T00:00:00	2024-11-08T11:00:00	6	Velocidad del viento	8
112262	7	Sololá	704	Santa Lucía Utatlán 	7	Santa Rita 	8	Agosto	2023-08-19T00:00:00	2024-11-08T11:00:00	7	Dirección del viento	8.05
112263	7	Sololá	704	Santa Lucía Utatlán 	7	Santa Rita 	8	Agosto	2023-08-19T00:00:00	2024-11-08T11:00:00	1	Precipitación	0
112264	7	Sololá	704	Santa Lucía Utatlán 	7	Santa Rita 	8	Agosto	2023-08-19T00:00:00	2024-11-08T11:00:00	8	Radiación solar	986
112265	7	Sololá	704	Santa Lucía Utatlán 	7	Santa Rita 	8	Agosto	2023-08-19T00:00:00	2024-11-08T12:00:00	2	Temperatura media	23.7
112266	7	Sololá	704	Santa Lucía Utatlán 	7	Santa Rita 	8	Agosto	2023-08-19T00:00:00	2024-11-08T12:00:00	4	Temperatura máxima	25.1
112267	7	Sololá	704	Santa Lucía Utatlán 	7	Santa Rita 	8	Agosto	2023-08-19T00:00:00	2024-11-08T12:00:00	3	Temperatura mínima	23.4
112268	7	Sololá	704	Santa Lucía Utatlán 	7	Santa Rita 	8	Agosto	2023-08-19T00:00:00	2024-11-08T12:00:00	5	Humedad	65
112269	7	Sololá	704	Santa Lucía Utatlán 	7	Santa Rita 	8	Agosto	2023-08-19T00:00:00	2024-11-08T12:00:00	6	Velocidad del viento	9.7
112270	7	Sololá	704	Santa Lucía Utatlán 	7	Santa Rita 	8	Agosto	2023-08-19T00:00:00	2024-11-08T12:00:00	7	Dirección del viento	9.66
112271	7	Sololá	704	Santa Lucía Utatlán 	7	Santa Rita 	8	Agosto	2023-08-19T00:00:00	2024-11-08T12:00:00	1	Precipitación	0
112272	7	Sololá	704	Santa Lucía Utatlán 	7	Santa Rita 	8	Agosto	2023-08-19T00:00:00	2024-11-08T12:00:00	8	Radiación solar	953
112273	7	Sololá	704	Santa Lucía Utatlán 	7	Santa Rita 	8	Agosto	2023-08-19T00:00:00	2024-11-08T13:00:00	2	Temperatura media	23
112274	7	Sololá	704	Santa Lucía Utatlán 	7	Santa Rita 	8	Agosto	2023-08-19T00:00:00	2024-11-08T13:00:00	4	Temperatura máxima	23.6
112275	7	Sololá	704	Santa Lucía Utatlán 	7	Santa Rita 	8	Agosto	2023-08-19T00:00:00	2024-11-08T13:00:00	3	Temperatura mínima	22.6
112276	7	Sololá	704	Santa Lucía Utatlán 	7	Santa Rita 	8	Agosto	2023-08-19T00:00:00	2024-11-08T13:00:00	5	Humedad	64
112277	7	Sololá	704	Santa Lucía Utatlán 	7	Santa Rita 	8	Agosto	2023-08-19T00:00:00	2024-11-08T13:00:00	6	Velocidad del viento	8
112278	7	Sololá	704	Santa Lucía Utatlán 	7	Santa Rita 	8	Agosto	2023-08-19T00:00:00	2024-11-08T13:00:00	7	Dirección del viento	8.05
112279	7	Sololá	704	Santa Lucía Utatlán 	7	Santa Rita 	8	Agosto	2023-08-19T00:00:00	2024-11-08T13:00:00	1	Precipitación	0
112280	7	Sololá	704	Santa Lucía Utatlán 	7	Santa Rita 	8	Agosto	2023-08-19T00:00:00	2024-11-08T13:00:00	8	Radiación solar	406
112281	7	Sololá	704	Santa Lucía Utatlán 	7	Santa Rita 	8	Agosto	2023-08-19T00:00:00	2024-11-08T14:00:00	2	Temperatura media	22.8
112282	7	Sololá	704	Santa Lucía Utatlán 	7	Santa Rita 	8	Agosto	2023-08-19T00:00:00	2024-11-08T14:00:00	4	Temperatura máxima	23.5
112283	7	Sololá	704	Santa Lucía Utatlán 	7	Santa Rita 	8	Agosto	2023-08-19T00:00:00	2024-11-08T14:00:00	3	Temperatura mínima	22.8
112284	7	Sololá	704	Santa Lucía Utatlán 	7	Santa Rita 	8	Agosto	2023-08-19T00:00:00	2024-11-08T14:00:00	5	Humedad	66
112285	7	Sololá	704	Santa Lucía Utatlán 	7	Santa Rita 	8	Agosto	2023-08-19T00:00:00	2024-11-08T14:00:00	6	Velocidad del viento	6.4
112286	7	Sololá	704	Santa Lucía Utatlán 	7	Santa Rita 	8	Agosto	2023-08-19T00:00:00	2024-11-08T14:00:00	7	Dirección del viento	6.44
112287	7	Sololá	704	Santa Lucía Utatlán 	7	Santa Rita 	8	Agosto	2023-08-19T00:00:00	2024-11-08T14:00:00	1	Precipitación	0
112288	7	Sololá	704	Santa Lucía Utatlán 	7	Santa Rita 	8	Agosto	2023-08-19T00:00:00	2024-11-08T14:00:00	8	Radiación solar	409
112289	7	Sololá	704	Santa Lucía Utatlán 	7	Santa Rita 	8	Agosto	2023-08-19T00:00:00	2024-11-08T15:00:00	2	Temperatura media	21.3
112290	7	Sololá	704	Santa Lucía Utatlán 	7	Santa Rita 	8	Agosto	2023-08-19T00:00:00	2024-11-08T15:00:00	4	Temperatura máxima	22.8
112291	7	Sololá	704	Santa Lucía Utatlán 	7	Santa Rita 	8	Agosto	2023-08-19T00:00:00	2024-11-08T15:00:00	3	Temperatura mínima	21.3
112292	7	Sololá	704	Santa Lucía Utatlán 	7	Santa Rita 	8	Agosto	2023-08-19T00:00:00	2024-11-08T15:00:00	5	Humedad	77
112293	7	Sololá	704	Santa Lucía Utatlán 	7	Santa Rita 	8	Agosto	2023-08-19T00:00:00	2024-11-08T15:00:00	6	Velocidad del viento	3.2
112294	7	Sololá	704	Santa Lucía Utatlán 	7	Santa Rita 	8	Agosto	2023-08-19T00:00:00	2024-11-08T15:00:00	7	Dirección del viento	3.22
112295	7	Sololá	704	Santa Lucía Utatlán 	7	Santa Rita 	8	Agosto	2023-08-19T00:00:00	2024-11-08T15:00:00	1	Precipitación	0
112296	7	Sololá	704	Santa Lucía Utatlán 	7	Santa Rita 	8	Agosto	2023-08-19T00:00:00	2024-11-08T15:00:00	8	Radiación solar	441
112297	7	Sololá	704	Santa Lucía Utatlán 	7	Santa Rita 	8	Agosto	2023-08-19T00:00:00	2024-11-08T16:00:00	2	Temperatura media	20.5
112298	7	Sololá	704	Santa Lucía Utatlán 	7	Santa Rita 	8	Agosto	2023-08-19T00:00:00	2024-11-08T16:00:00	4	Temperatura máxima	21.3
112299	7	Sololá	704	Santa Lucía Utatlán 	7	Santa Rita 	8	Agosto	2023-08-19T00:00:00	2024-11-08T16:00:00	3	Temperatura mínima	20.1
112300	7	Sololá	704	Santa Lucía Utatlán 	7	Santa Rita 	8	Agosto	2023-08-19T00:00:00	2024-11-08T16:00:00	5	Humedad	79
112301	7	Sololá	704	Santa Lucía Utatlán 	7	Santa Rita 	8	Agosto	2023-08-19T00:00:00	2024-11-08T16:00:00	6	Velocidad del viento	6.4
112302	7	Sololá	704	Santa Lucía Utatlán 	7	Santa Rita 	8	Agosto	2023-08-19T00:00:00	2024-11-08T16:00:00	7	Dirección del viento	6.44
112303	7	Sololá	704	Santa Lucía Utatlán 	7	Santa Rita 	8	Agosto	2023-08-19T00:00:00	2024-11-08T16:00:00	1	Precipitación	0
112304	7	Sololá	704	Santa Lucía Utatlán 	7	Santa Rita 	8	Agosto	2023-08-19T00:00:00	2024-11-08T16:00:00	8	Radiación solar	192
112305	7	Sololá	704	Santa Lucía Utatlán 	7	Santa Rita 	8	Agosto	2023-08-19T00:00:00	2024-11-08T17:00:00	2	Temperatura media	19.4
112306	7	Sololá	704	Santa Lucía Utatlán 	7	Santa Rita 	8	Agosto	2023-08-19T00:00:00	2024-11-08T17:00:00	4	Temperatura máxima	20.5
112307	7	Sololá	704	Santa Lucía Utatlán 	7	Santa Rita 	8	Agosto	2023-08-19T00:00:00	2024-11-08T17:00:00	3	Temperatura mínima	19.4
112308	7	Sololá	704	Santa Lucía Utatlán 	7	Santa Rita 	8	Agosto	2023-08-19T00:00:00	2024-11-08T17:00:00	5	Humedad	78
112309	7	Sololá	704	Santa Lucía Utatlán 	7	Santa Rita 	8	Agosto	2023-08-19T00:00:00	2024-11-08T17:00:00	6	Velocidad del viento	6.4
112310	7	Sololá	704	Santa Lucía Utatlán 	7	Santa Rita 	8	Agosto	2023-08-19T00:00:00	2024-11-08T17:00:00	7	Dirección del viento	6.44
112311	7	Sololá	704	Santa Lucía Utatlán 	7	Santa Rita 	8	Agosto	2023-08-19T00:00:00	2024-11-08T17:00:00	1	Precipitación	0
112312	7	Sololá	704	Santa Lucía Utatlán 	7	Santa Rita 	8	Agosto	2023-08-19T00:00:00	2024-11-08T17:00:00	8	Radiación solar	211
112313	7	Sololá	704	Santa Lucía Utatlán 	7	Santa Rita 	8	Agosto	2023-08-19T00:00:00	2024-11-08T18:00:00	2	Temperatura media	19.1
112314	7	Sololá	704	Santa Lucía Utatlán 	7	Santa Rita 	8	Agosto	2023-08-19T00:00:00	2024-11-08T18:00:00	4	Temperatura máxima	19.4
112315	7	Sololá	704	Santa Lucía Utatlán 	7	Santa Rita 	8	Agosto	2023-08-19T00:00:00	2024-11-08T18:00:00	3	Temperatura mínima	19
112316	7	Sololá	704	Santa Lucía Utatlán 	7	Santa Rita 	8	Agosto	2023-08-19T00:00:00	2024-11-08T18:00:00	5	Humedad	78
112317	7	Sololá	704	Santa Lucía Utatlán 	7	Santa Rita 	8	Agosto	2023-08-19T00:00:00	2024-11-08T18:00:00	6	Velocidad del viento	9.7
112318	7	Sololá	704	Santa Lucía Utatlán 	7	Santa Rita 	8	Agosto	2023-08-19T00:00:00	2024-11-08T18:00:00	7	Dirección del viento	9.66
112319	7	Sololá	704	Santa Lucía Utatlán 	7	Santa Rita 	8	Agosto	2023-08-19T00:00:00	2024-11-08T18:00:00	1	Precipitación	0
112320	7	Sololá	704	Santa Lucía Utatlán 	7	Santa Rita 	8	Agosto	2023-08-19T00:00:00	2024-11-08T18:00:00	8	Radiación solar	18
112321	7	Sololá	704	Santa Lucía Utatlán 	7	Santa Rita 	8	Agosto	2023-08-19T00:00:00	2024-11-08T19:00:00	2	Temperatura media	19
112322	7	Sololá	704	Santa Lucía Utatlán 	7	Santa Rita 	8	Agosto	2023-08-19T00:00:00	2024-11-08T19:00:00	4	Temperatura máxima	19.4
112323	7	Sololá	704	Santa Lucía Utatlán 	7	Santa Rita 	8	Agosto	2023-08-19T00:00:00	2024-11-08T19:00:00	3	Temperatura mínima	18.9
112324	7	Sololá	704	Santa Lucía Utatlán 	7	Santa Rita 	8	Agosto	2023-08-19T00:00:00	2024-11-08T19:00:00	5	Humedad	71
112325	7	Sololá	704	Santa Lucía Utatlán 	7	Santa Rita 	8	Agosto	2023-08-19T00:00:00	2024-11-08T19:00:00	6	Velocidad del viento	8
112326	7	Sololá	704	Santa Lucía Utatlán 	7	Santa Rita 	8	Agosto	2023-08-19T00:00:00	2024-11-08T19:00:00	7	Dirección del viento	8.05
112327	7	Sololá	704	Santa Lucía Utatlán 	7	Santa Rita 	8	Agosto	2023-08-19T00:00:00	2024-11-08T19:00:00	1	Precipitación	0
112328	7	Sololá	704	Santa Lucía Utatlán 	7	Santa Rita 	8	Agosto	2023-08-19T00:00:00	2024-11-08T19:00:00	8	Radiación solar	0
112329	7	Sololá	704	Santa Lucía Utatlán 	7	Santa Rita 	8	Agosto	2023-08-19T00:00:00	2024-11-08T20:00:00	2	Temperatura media	19.1
112330	7	Sololá	704	Santa Lucía Utatlán 	7	Santa Rita 	8	Agosto	2023-08-19T00:00:00	2024-11-08T20:00:00	4	Temperatura máxima	19.1
112331	7	Sololá	704	Santa Lucía Utatlán 	7	Santa Rita 	8	Agosto	2023-08-19T00:00:00	2024-11-08T20:00:00	3	Temperatura mínima	18.8
112332	7	Sololá	704	Santa Lucía Utatlán 	7	Santa Rita 	8	Agosto	2023-08-19T00:00:00	2024-11-08T20:00:00	5	Humedad	67
112333	7	Sololá	704	Santa Lucía Utatlán 	7	Santa Rita 	8	Agosto	2023-08-19T00:00:00	2024-11-08T20:00:00	6	Velocidad del viento	11.3
112334	7	Sololá	704	Santa Lucía Utatlán 	7	Santa Rita 	8	Agosto	2023-08-19T00:00:00	2024-11-08T20:00:00	7	Dirección del viento	11.27
112335	7	Sololá	704	Santa Lucía Utatlán 	7	Santa Rita 	8	Agosto	2023-08-19T00:00:00	2024-11-08T20:00:00	1	Precipitación	0
112336	7	Sololá	704	Santa Lucía Utatlán 	7	Santa Rita 	8	Agosto	2023-08-19T00:00:00	2024-11-08T20:00:00	8	Radiación solar	0
112337	7	Sololá	704	Santa Lucía Utatlán 	7	Santa Rita 	8	Agosto	2023-08-19T00:00:00	2024-11-08T21:00:00	2	Temperatura media	18.9
112338	7	Sololá	704	Santa Lucía Utatlán 	7	Santa Rita 	8	Agosto	2023-08-19T00:00:00	2024-11-08T21:00:00	4	Temperatura máxima	19.2
112339	7	Sololá	704	Santa Lucía Utatlán 	7	Santa Rita 	8	Agosto	2023-08-19T00:00:00	2024-11-08T21:00:00	3	Temperatura mínima	18.9
112340	7	Sololá	704	Santa Lucía Utatlán 	7	Santa Rita 	8	Agosto	2023-08-19T00:00:00	2024-11-08T21:00:00	5	Humedad	70
112341	7	Sololá	704	Santa Lucía Utatlán 	7	Santa Rita 	8	Agosto	2023-08-19T00:00:00	2024-11-08T21:00:00	6	Velocidad del viento	11.3
112342	7	Sololá	704	Santa Lucía Utatlán 	7	Santa Rita 	8	Agosto	2023-08-19T00:00:00	2024-11-08T21:00:00	7	Dirección del viento	11.27
112343	7	Sololá	704	Santa Lucía Utatlán 	7	Santa Rita 	8	Agosto	2023-08-19T00:00:00	2024-11-08T21:00:00	1	Precipitación	0
112344	7	Sololá	704	Santa Lucía Utatlán 	7	Santa Rita 	8	Agosto	2023-08-19T00:00:00	2024-11-08T21:00:00	8	Radiación solar	0
112345	7	Sololá	704	Santa Lucía Utatlán 	7	Santa Rita 	8	Agosto	2023-08-19T00:00:00	2024-11-08T22:00:00	2	Temperatura media	19.3
112346	7	Sololá	704	Santa Lucía Utatlán 	7	Santa Rita 	8	Agosto	2023-08-19T00:00:00	2024-11-08T22:00:00	4	Temperatura máxima	19.3
112347	7	Sololá	704	Santa Lucía Utatlán 	7	Santa Rita 	8	Agosto	2023-08-19T00:00:00	2024-11-08T22:00:00	3	Temperatura mínima	18.9
112348	7	Sololá	704	Santa Lucía Utatlán 	7	Santa Rita 	8	Agosto	2023-08-19T00:00:00	2024-11-08T22:00:00	5	Humedad	61
112349	7	Sololá	704	Santa Lucía Utatlán 	7	Santa Rita 	8	Agosto	2023-08-19T00:00:00	2024-11-08T22:00:00	6	Velocidad del viento	9.7
112350	7	Sololá	704	Santa Lucía Utatlán 	7	Santa Rita 	8	Agosto	2023-08-19T00:00:00	2024-11-08T22:00:00	7	Dirección del viento	9.66
112351	7	Sololá	704	Santa Lucía Utatlán 	7	Santa Rita 	8	Agosto	2023-08-19T00:00:00	2024-11-08T22:00:00	1	Precipitación	0
112352	7	Sololá	704	Santa Lucía Utatlán 	7	Santa Rita 	8	Agosto	2023-08-19T00:00:00	2024-11-08T22:00:00	8	Radiación solar	0
112353	7	Sololá	704	Santa Lucía Utatlán 	7	Santa Rita 	8	Agosto	2023-08-19T00:00:00	2024-11-08T23:00:00	2	Temperatura media	19.1
112354	7	Sololá	704	Santa Lucía Utatlán 	7	Santa Rita 	8	Agosto	2023-08-19T00:00:00	2024-11-08T23:00:00	4	Temperatura máxima	19.4
112355	7	Sololá	704	Santa Lucía Utatlán 	7	Santa Rita 	8	Agosto	2023-08-19T00:00:00	2024-11-08T23:00:00	3	Temperatura mínima	19.1
112356	7	Sololá	704	Santa Lucía Utatlán 	7	Santa Rita 	8	Agosto	2023-08-19T00:00:00	2024-11-08T23:00:00	5	Humedad	64
112357	7	Sololá	704	Santa Lucía Utatlán 	7	Santa Rita 	8	Agosto	2023-08-19T00:00:00	2024-11-08T23:00:00	6	Velocidad del viento	6.4
112358	7	Sololá	704	Santa Lucía Utatlán 	7	Santa Rita 	8	Agosto	2023-08-19T00:00:00	2024-11-08T23:00:00	7	Dirección del viento	6.44
112359	7	Sololá	704	Santa Lucía Utatlán 	7	Santa Rita 	8	Agosto	2023-08-19T00:00:00	2024-11-08T23:00:00	1	Precipitación	0
112360	7	Sololá	704	Santa Lucía Utatlán 	7	Santa Rita 	8	Agosto	2023-08-19T00:00:00	2024-11-08T23:00:00	8	Radiación solar	0
112361	7	Sololá	704	Santa Lucía Utatlán 	7	Santa Rita 	8	Agosto	2023-08-20T00:00:00	2024-11-08T00:00:00	2	Temperatura media	15.8
112362	7	Sololá	704	Santa Lucía Utatlán 	7	Santa Rita 	8	Agosto	2023-08-20T00:00:00	2024-11-08T00:00:00	4	Temperatura máxima	19.1
112363	7	Sololá	704	Santa Lucía Utatlán 	7	Santa Rita 	8	Agosto	2023-08-20T00:00:00	2024-11-08T00:00:00	3	Temperatura mínima	15.8
112364	7	Sololá	704	Santa Lucía Utatlán 	7	Santa Rita 	8	Agosto	2023-08-20T00:00:00	2024-11-08T00:00:00	5	Humedad	79
112365	7	Sololá	704	Santa Lucía Utatlán 	7	Santa Rita 	8	Agosto	2023-08-20T00:00:00	2024-11-08T00:00:00	6	Velocidad del viento	3.2
112366	7	Sololá	704	Santa Lucía Utatlán 	7	Santa Rita 	8	Agosto	2023-08-20T00:00:00	2024-11-08T00:00:00	7	Dirección del viento	3.22
112367	7	Sololá	704	Santa Lucía Utatlán 	7	Santa Rita 	8	Agosto	2023-08-20T00:00:00	2024-11-08T00:00:00	1	Precipitación	0
112368	7	Sololá	704	Santa Lucía Utatlán 	7	Santa Rita 	8	Agosto	2023-08-20T00:00:00	2024-11-08T00:00:00	8	Radiación solar	0
112369	7	Sololá	704	Santa Lucía Utatlán 	7	Santa Rita 	8	Agosto	2023-08-20T00:00:00	2024-11-08T01:00:00	2	Temperatura media	15.6
112370	7	Sololá	704	Santa Lucía Utatlán 	7	Santa Rita 	8	Agosto	2023-08-20T00:00:00	2024-11-08T01:00:00	4	Temperatura máxima	16.4
112371	7	Sololá	704	Santa Lucía Utatlán 	7	Santa Rita 	8	Agosto	2023-08-20T00:00:00	2024-11-08T01:00:00	3	Temperatura mínima	15.6
112372	7	Sololá	704	Santa Lucía Utatlán 	7	Santa Rita 	8	Agosto	2023-08-20T00:00:00	2024-11-08T01:00:00	5	Humedad	75
112373	7	Sololá	704	Santa Lucía Utatlán 	7	Santa Rita 	8	Agosto	2023-08-20T00:00:00	2024-11-08T01:00:00	6	Velocidad del viento	3.2
112374	7	Sololá	704	Santa Lucía Utatlán 	7	Santa Rita 	8	Agosto	2023-08-20T00:00:00	2024-11-08T01:00:00	7	Dirección del viento	3.22
112375	7	Sololá	704	Santa Lucía Utatlán 	7	Santa Rita 	8	Agosto	2023-08-20T00:00:00	2024-11-08T01:00:00	1	Precipitación	0
112376	7	Sololá	704	Santa Lucía Utatlán 	7	Santa Rita 	8	Agosto	2023-08-20T00:00:00	2024-11-08T01:00:00	8	Radiación solar	0
112377	7	Sololá	704	Santa Lucía Utatlán 	7	Santa Rita 	8	Agosto	2023-08-20T00:00:00	2024-11-08T02:00:00	2	Temperatura media	15
112378	7	Sololá	704	Santa Lucía Utatlán 	7	Santa Rita 	8	Agosto	2023-08-20T00:00:00	2024-11-08T02:00:00	4	Temperatura máxima	15.9
112379	7	Sololá	704	Santa Lucía Utatlán 	7	Santa Rita 	8	Agosto	2023-08-20T00:00:00	2024-11-08T02:00:00	3	Temperatura mínima	14.9
112380	7	Sololá	704	Santa Lucía Utatlán 	7	Santa Rita 	8	Agosto	2023-08-20T00:00:00	2024-11-08T02:00:00	5	Humedad	74
112381	7	Sololá	704	Santa Lucía Utatlán 	7	Santa Rita 	8	Agosto	2023-08-20T00:00:00	2024-11-08T02:00:00	6	Velocidad del viento	3.2
112382	7	Sololá	704	Santa Lucía Utatlán 	7	Santa Rita 	8	Agosto	2023-08-20T00:00:00	2024-11-08T02:00:00	7	Dirección del viento	3.22
112383	7	Sololá	704	Santa Lucía Utatlán 	7	Santa Rita 	8	Agosto	2023-08-20T00:00:00	2024-11-08T02:00:00	1	Precipitación	0
112384	7	Sololá	704	Santa Lucía Utatlán 	7	Santa Rita 	8	Agosto	2023-08-20T00:00:00	2024-11-08T02:00:00	8	Radiación solar	0
112385	7	Sololá	704	Santa Lucía Utatlán 	7	Santa Rita 	8	Agosto	2023-08-20T00:00:00	2024-11-08T03:00:00	2	Temperatura media	16.8
112386	7	Sololá	704	Santa Lucía Utatlán 	7	Santa Rita 	8	Agosto	2023-08-20T00:00:00	2024-11-08T03:00:00	4	Temperatura máxima	17.9
112387	7	Sololá	704	Santa Lucía Utatlán 	7	Santa Rita 	8	Agosto	2023-08-20T00:00:00	2024-11-08T03:00:00	3	Temperatura mínima	15.1
112388	7	Sololá	704	Santa Lucía Utatlán 	7	Santa Rita 	8	Agosto	2023-08-20T00:00:00	2024-11-08T03:00:00	5	Humedad	68
112389	7	Sololá	704	Santa Lucía Utatlán 	7	Santa Rita 	8	Agosto	2023-08-20T00:00:00	2024-11-08T03:00:00	6	Velocidad del viento	3.2
112390	7	Sololá	704	Santa Lucía Utatlán 	7	Santa Rita 	8	Agosto	2023-08-20T00:00:00	2024-11-08T03:00:00	7	Dirección del viento	3.22
112391	7	Sololá	704	Santa Lucía Utatlán 	7	Santa Rita 	8	Agosto	2023-08-20T00:00:00	2024-11-08T03:00:00	1	Precipitación	0
112392	7	Sololá	704	Santa Lucía Utatlán 	7	Santa Rita 	8	Agosto	2023-08-20T00:00:00	2024-11-08T03:00:00	8	Radiación solar	0
112393	7	Sololá	704	Santa Lucía Utatlán 	7	Santa Rita 	8	Agosto	2023-08-20T00:00:00	2024-11-08T04:00:00	2	Temperatura media	19.2
112394	7	Sololá	704	Santa Lucía Utatlán 	7	Santa Rita 	8	Agosto	2023-08-20T00:00:00	2024-11-08T04:00:00	4	Temperatura máxima	19.3
112395	7	Sololá	704	Santa Lucía Utatlán 	7	Santa Rita 	8	Agosto	2023-08-20T00:00:00	2024-11-08T04:00:00	3	Temperatura mínima	16.7
112396	7	Sololá	704	Santa Lucía Utatlán 	7	Santa Rita 	8	Agosto	2023-08-20T00:00:00	2024-11-08T04:00:00	5	Humedad	64
112397	7	Sololá	704	Santa Lucía Utatlán 	7	Santa Rita 	8	Agosto	2023-08-20T00:00:00	2024-11-08T04:00:00	6	Velocidad del viento	3.2
112398	7	Sololá	704	Santa Lucía Utatlán 	7	Santa Rita 	8	Agosto	2023-08-20T00:00:00	2024-11-08T04:00:00	7	Dirección del viento	3.22
112399	7	Sololá	704	Santa Lucía Utatlán 	7	Santa Rita 	8	Agosto	2023-08-20T00:00:00	2024-11-08T04:00:00	1	Precipitación	0
112400	7	Sololá	704	Santa Lucía Utatlán 	7	Santa Rita 	8	Agosto	2023-08-20T00:00:00	2024-11-08T04:00:00	8	Radiación solar	0
112401	7	Sololá	704	Santa Lucía Utatlán 	7	Santa Rita 	8	Agosto	2023-08-20T00:00:00	2024-11-08T05:00:00	2	Temperatura media	22.8
112402	7	Sololá	704	Santa Lucía Utatlán 	7	Santa Rita 	8	Agosto	2023-08-20T00:00:00	2024-11-08T05:00:00	4	Temperatura máxima	22.8
112403	7	Sololá	704	Santa Lucía Utatlán 	7	Santa Rita 	8	Agosto	2023-08-20T00:00:00	2024-11-08T05:00:00	3	Temperatura mínima	19.2
112404	7	Sololá	704	Santa Lucía Utatlán 	7	Santa Rita 	8	Agosto	2023-08-20T00:00:00	2024-11-08T05:00:00	5	Humedad	57
112405	7	Sololá	704	Santa Lucía Utatlán 	7	Santa Rita 	8	Agosto	2023-08-20T00:00:00	2024-11-08T05:00:00	6	Velocidad del viento	3.2
112406	7	Sololá	704	Santa Lucía Utatlán 	7	Santa Rita 	8	Agosto	2023-08-20T00:00:00	2024-11-08T05:00:00	7	Dirección del viento	3.22
112407	7	Sololá	704	Santa Lucía Utatlán 	7	Santa Rita 	8	Agosto	2023-08-20T00:00:00	2024-11-08T05:00:00	1	Precipitación	0
112408	7	Sololá	704	Santa Lucía Utatlán 	7	Santa Rita 	8	Agosto	2023-08-20T00:00:00	2024-11-08T05:00:00	8	Radiación solar	0
112409	7	Sololá	704	Santa Lucía Utatlán 	7	Santa Rita 	8	Agosto	2023-08-20T00:00:00	2024-11-08T06:00:00	2	Temperatura media	25.4
112410	7	Sololá	704	Santa Lucía Utatlán 	7	Santa Rita 	8	Agosto	2023-08-20T00:00:00	2024-11-08T06:00:00	4	Temperatura máxima	25.7
112411	7	Sololá	704	Santa Lucía Utatlán 	7	Santa Rita 	8	Agosto	2023-08-20T00:00:00	2024-11-08T06:00:00	3	Temperatura mínima	22.8
112412	7	Sololá	704	Santa Lucía Utatlán 	7	Santa Rita 	8	Agosto	2023-08-20T00:00:00	2024-11-08T06:00:00	5	Humedad	45
112413	7	Sololá	704	Santa Lucía Utatlán 	7	Santa Rita 	8	Agosto	2023-08-20T00:00:00	2024-11-08T06:00:00	6	Velocidad del viento	4.8
112414	7	Sololá	704	Santa Lucía Utatlán 	7	Santa Rita 	8	Agosto	2023-08-20T00:00:00	2024-11-08T06:00:00	7	Dirección del viento	4.83
112415	7	Sololá	704	Santa Lucía Utatlán 	7	Santa Rita 	8	Agosto	2023-08-20T00:00:00	2024-11-08T06:00:00	1	Precipitación	0
112416	7	Sololá	704	Santa Lucía Utatlán 	7	Santa Rita 	8	Agosto	2023-08-20T00:00:00	2024-11-08T06:00:00	8	Radiación solar	4
112417	7	Sololá	704	Santa Lucía Utatlán 	7	Santa Rita 	8	Agosto	2023-08-20T00:00:00	2024-11-08T07:00:00	2	Temperatura media	25.8
112418	7	Sololá	704	Santa Lucía Utatlán 	7	Santa Rita 	8	Agosto	2023-08-20T00:00:00	2024-11-08T07:00:00	4	Temperatura máxima	26.5
112419	7	Sololá	704	Santa Lucía Utatlán 	7	Santa Rita 	8	Agosto	2023-08-20T00:00:00	2024-11-08T07:00:00	3	Temperatura mínima	25.4
112420	7	Sololá	704	Santa Lucía Utatlán 	7	Santa Rita 	8	Agosto	2023-08-20T00:00:00	2024-11-08T07:00:00	5	Humedad	43
112421	7	Sololá	704	Santa Lucía Utatlán 	7	Santa Rita 	8	Agosto	2023-08-20T00:00:00	2024-11-08T07:00:00	6	Velocidad del viento	4.8
112422	7	Sololá	704	Santa Lucía Utatlán 	7	Santa Rita 	8	Agosto	2023-08-20T00:00:00	2024-11-08T07:00:00	7	Dirección del viento	4.83
112423	7	Sololá	704	Santa Lucía Utatlán 	7	Santa Rita 	8	Agosto	2023-08-20T00:00:00	2024-11-08T07:00:00	1	Precipitación	0
112424	7	Sololá	704	Santa Lucía Utatlán 	7	Santa Rita 	8	Agosto	2023-08-20T00:00:00	2024-11-08T07:00:00	8	Radiación solar	149
112425	7	Sololá	704	Santa Lucía Utatlán 	7	Santa Rita 	8	Agosto	2023-08-20T00:00:00	2024-11-08T08:00:00	2	Temperatura media	25.8
112426	7	Sololá	704	Santa Lucía Utatlán 	7	Santa Rita 	8	Agosto	2023-08-20T00:00:00	2024-11-08T08:00:00	4	Temperatura máxima	27.1
112427	7	Sololá	704	Santa Lucía Utatlán 	7	Santa Rita 	8	Agosto	2023-08-20T00:00:00	2024-11-08T08:00:00	3	Temperatura mínima	25.8
112428	7	Sololá	704	Santa Lucía Utatlán 	7	Santa Rita 	8	Agosto	2023-08-20T00:00:00	2024-11-08T08:00:00	5	Humedad	48
112429	7	Sololá	704	Santa Lucía Utatlán 	7	Santa Rita 	8	Agosto	2023-08-20T00:00:00	2024-11-08T08:00:00	6	Velocidad del viento	8
112430	7	Sololá	704	Santa Lucía Utatlán 	7	Santa Rita 	8	Agosto	2023-08-20T00:00:00	2024-11-08T08:00:00	7	Dirección del viento	8.05
112431	7	Sololá	704	Santa Lucía Utatlán 	7	Santa Rita 	8	Agosto	2023-08-20T00:00:00	2024-11-08T08:00:00	1	Precipitación	0
112432	7	Sololá	704	Santa Lucía Utatlán 	7	Santa Rita 	8	Agosto	2023-08-20T00:00:00	2024-11-08T08:00:00	8	Radiación solar	433
112433	7	Sololá	704	Santa Lucía Utatlán 	7	Santa Rita 	8	Agosto	2023-08-20T00:00:00	2024-11-08T09:00:00	2	Temperatura media	25.7
112434	7	Sololá	704	Santa Lucía Utatlán 	7	Santa Rita 	8	Agosto	2023-08-20T00:00:00	2024-11-08T09:00:00	4	Temperatura máxima	26.4
112435	7	Sololá	704	Santa Lucía Utatlán 	7	Santa Rita 	8	Agosto	2023-08-20T00:00:00	2024-11-08T09:00:00	3	Temperatura mínima	25.3
112436	7	Sololá	704	Santa Lucía Utatlán 	7	Santa Rita 	8	Agosto	2023-08-20T00:00:00	2024-11-08T09:00:00	5	Humedad	50
112437	7	Sololá	704	Santa Lucía Utatlán 	7	Santa Rita 	8	Agosto	2023-08-20T00:00:00	2024-11-08T09:00:00	6	Velocidad del viento	9.7
112438	7	Sololá	704	Santa Lucía Utatlán 	7	Santa Rita 	8	Agosto	2023-08-20T00:00:00	2024-11-08T09:00:00	7	Dirección del viento	9.66
112439	7	Sololá	704	Santa Lucía Utatlán 	7	Santa Rita 	8	Agosto	2023-08-20T00:00:00	2024-11-08T09:00:00	1	Precipitación	0
112440	7	Sololá	704	Santa Lucía Utatlán 	7	Santa Rita 	8	Agosto	2023-08-20T00:00:00	2024-11-08T09:00:00	8	Radiación solar	663
112441	7	Sololá	704	Santa Lucía Utatlán 	7	Santa Rita 	8	Agosto	2023-08-20T00:00:00	2024-11-08T10:00:00	2	Temperatura media	26.1
112442	7	Sololá	704	Santa Lucía Utatlán 	7	Santa Rita 	8	Agosto	2023-08-20T00:00:00	2024-11-08T10:00:00	4	Temperatura máxima	26.3
112443	7	Sololá	704	Santa Lucía Utatlán 	7	Santa Rita 	8	Agosto	2023-08-20T00:00:00	2024-11-08T10:00:00	3	Temperatura mínima	25.7
112444	7	Sololá	704	Santa Lucía Utatlán 	7	Santa Rita 	8	Agosto	2023-08-20T00:00:00	2024-11-08T10:00:00	5	Humedad	50
112445	7	Sololá	704	Santa Lucía Utatlán 	7	Santa Rita 	8	Agosto	2023-08-20T00:00:00	2024-11-08T10:00:00	6	Velocidad del viento	9.7
112446	7	Sololá	704	Santa Lucía Utatlán 	7	Santa Rita 	8	Agosto	2023-08-20T00:00:00	2024-11-08T10:00:00	7	Dirección del viento	9.66
112447	7	Sololá	704	Santa Lucía Utatlán 	7	Santa Rita 	8	Agosto	2023-08-20T00:00:00	2024-11-08T10:00:00	1	Precipitación	0
112448	7	Sololá	704	Santa Lucía Utatlán 	7	Santa Rita 	8	Agosto	2023-08-20T00:00:00	2024-11-08T10:00:00	8	Radiación solar	848
112449	7	Sololá	704	Santa Lucía Utatlán 	7	Santa Rita 	8	Agosto	2023-08-20T00:00:00	2024-11-08T11:00:00	2	Temperatura media	25.4
112450	7	Sololá	704	Santa Lucía Utatlán 	7	Santa Rita 	8	Agosto	2023-08-20T00:00:00	2024-11-08T11:00:00	4	Temperatura máxima	26.1
112451	7	Sololá	704	Santa Lucía Utatlán 	7	Santa Rita 	8	Agosto	2023-08-20T00:00:00	2024-11-08T11:00:00	3	Temperatura mínima	25.1
112452	7	Sololá	704	Santa Lucía Utatlán 	7	Santa Rita 	8	Agosto	2023-08-20T00:00:00	2024-11-08T11:00:00	5	Humedad	55
112453	7	Sololá	704	Santa Lucía Utatlán 	7	Santa Rita 	8	Agosto	2023-08-20T00:00:00	2024-11-08T11:00:00	6	Velocidad del viento	9.7
112454	7	Sololá	704	Santa Lucía Utatlán 	7	Santa Rita 	8	Agosto	2023-08-20T00:00:00	2024-11-08T11:00:00	7	Dirección del viento	9.66
112455	7	Sololá	704	Santa Lucía Utatlán 	7	Santa Rita 	8	Agosto	2023-08-20T00:00:00	2024-11-08T11:00:00	1	Precipitación	0
112456	7	Sololá	704	Santa Lucía Utatlán 	7	Santa Rita 	8	Agosto	2023-08-20T00:00:00	2024-11-08T11:00:00	8	Radiación solar	970
112457	7	Sololá	704	Santa Lucía Utatlán 	7	Santa Rita 	8	Agosto	2023-08-20T00:00:00	2024-11-08T12:00:00	2	Temperatura media	25.5
112458	7	Sololá	704	Santa Lucía Utatlán 	7	Santa Rita 	8	Agosto	2023-08-20T00:00:00	2024-11-08T12:00:00	4	Temperatura máxima	25.8
112459	7	Sololá	704	Santa Lucía Utatlán 	7	Santa Rita 	8	Agosto	2023-08-20T00:00:00	2024-11-08T12:00:00	3	Temperatura mínima	24.7
112460	7	Sololá	704	Santa Lucía Utatlán 	7	Santa Rita 	8	Agosto	2023-08-20T00:00:00	2024-11-08T12:00:00	5	Humedad	61
112461	7	Sololá	704	Santa Lucía Utatlán 	7	Santa Rita 	8	Agosto	2023-08-20T00:00:00	2024-11-08T12:00:00	6	Velocidad del viento	8
112462	7	Sololá	704	Santa Lucía Utatlán 	7	Santa Rita 	8	Agosto	2023-08-20T00:00:00	2024-11-08T12:00:00	7	Dirección del viento	8.05
112463	7	Sololá	704	Santa Lucía Utatlán 	7	Santa Rita 	8	Agosto	2023-08-20T00:00:00	2024-11-08T12:00:00	1	Precipitación	0
112464	7	Sololá	704	Santa Lucía Utatlán 	7	Santa Rita 	8	Agosto	2023-08-20T00:00:00	2024-11-08T12:00:00	8	Radiación solar	1064
112465	7	Sololá	704	Santa Lucía Utatlán 	7	Santa Rita 	8	Agosto	2023-08-20T00:00:00	2024-11-08T13:00:00	2	Temperatura media	23.8
112466	7	Sololá	704	Santa Lucía Utatlán 	7	Santa Rita 	8	Agosto	2023-08-20T00:00:00	2024-11-08T13:00:00	4	Temperatura máxima	25.7
112467	7	Sololá	704	Santa Lucía Utatlán 	7	Santa Rita 	8	Agosto	2023-08-20T00:00:00	2024-11-08T13:00:00	3	Temperatura mínima	23.8
112468	7	Sololá	704	Santa Lucía Utatlán 	7	Santa Rita 	8	Agosto	2023-08-20T00:00:00	2024-11-08T13:00:00	5	Humedad	64
112469	7	Sololá	704	Santa Lucía Utatlán 	7	Santa Rita 	8	Agosto	2023-08-20T00:00:00	2024-11-08T13:00:00	6	Velocidad del viento	9.7
112470	7	Sololá	704	Santa Lucía Utatlán 	7	Santa Rita 	8	Agosto	2023-08-20T00:00:00	2024-11-08T13:00:00	7	Dirección del viento	9.66
112471	7	Sololá	704	Santa Lucía Utatlán 	7	Santa Rita 	8	Agosto	2023-08-20T00:00:00	2024-11-08T13:00:00	1	Precipitación	0
112472	7	Sololá	704	Santa Lucía Utatlán 	7	Santa Rita 	8	Agosto	2023-08-20T00:00:00	2024-11-08T13:00:00	8	Radiación solar	1069
112473	7	Sololá	704	Santa Lucía Utatlán 	7	Santa Rita 	8	Agosto	2023-08-20T00:00:00	2024-11-08T14:00:00	2	Temperatura media	22.9
112474	7	Sololá	704	Santa Lucía Utatlán 	7	Santa Rita 	8	Agosto	2023-08-20T00:00:00	2024-11-08T14:00:00	4	Temperatura máxima	24.2
112475	7	Sololá	704	Santa Lucía Utatlán 	7	Santa Rita 	8	Agosto	2023-08-20T00:00:00	2024-11-08T14:00:00	3	Temperatura mínima	22.9
112476	7	Sololá	704	Santa Lucía Utatlán 	7	Santa Rita 	8	Agosto	2023-08-20T00:00:00	2024-11-08T14:00:00	5	Humedad	70
112477	7	Sololá	704	Santa Lucía Utatlán 	7	Santa Rita 	8	Agosto	2023-08-20T00:00:00	2024-11-08T14:00:00	6	Velocidad del viento	9.7
112478	7	Sololá	704	Santa Lucía Utatlán 	7	Santa Rita 	8	Agosto	2023-08-20T00:00:00	2024-11-08T14:00:00	7	Dirección del viento	9.66
112479	7	Sololá	704	Santa Lucía Utatlán 	7	Santa Rita 	8	Agosto	2023-08-20T00:00:00	2024-11-08T14:00:00	1	Precipitación	0
112480	7	Sololá	704	Santa Lucía Utatlán 	7	Santa Rita 	8	Agosto	2023-08-20T00:00:00	2024-11-08T14:00:00	8	Radiación solar	438
112481	7	Sololá	704	Santa Lucía Utatlán 	7	Santa Rita 	8	Agosto	2023-08-20T00:00:00	2024-11-08T15:00:00	2	Temperatura media	22.1
112482	7	Sololá	704	Santa Lucía Utatlán 	7	Santa Rita 	8	Agosto	2023-08-20T00:00:00	2024-11-08T15:00:00	4	Temperatura máxima	22.9
112483	7	Sololá	704	Santa Lucía Utatlán 	7	Santa Rita 	8	Agosto	2023-08-20T00:00:00	2024-11-08T15:00:00	3	Temperatura mínima	22.1
112484	7	Sololá	704	Santa Lucía Utatlán 	7	Santa Rita 	8	Agosto	2023-08-20T00:00:00	2024-11-08T15:00:00	5	Humedad	70
112485	7	Sololá	704	Santa Lucía Utatlán 	7	Santa Rita 	8	Agosto	2023-08-20T00:00:00	2024-11-08T15:00:00	6	Velocidad del viento	3.2
112486	7	Sololá	704	Santa Lucía Utatlán 	7	Santa Rita 	8	Agosto	2023-08-20T00:00:00	2024-11-08T15:00:00	7	Dirección del viento	3.22
112487	7	Sololá	704	Santa Lucía Utatlán 	7	Santa Rita 	8	Agosto	2023-08-20T00:00:00	2024-11-08T15:00:00	1	Precipitación	0
112488	7	Sololá	704	Santa Lucía Utatlán 	7	Santa Rita 	8	Agosto	2023-08-20T00:00:00	2024-11-08T15:00:00	8	Radiación solar	492
112489	7	Sololá	704	Santa Lucía Utatlán 	7	Santa Rita 	8	Agosto	2023-08-20T00:00:00	2024-11-08T16:00:00	2	Temperatura media	21
112490	7	Sololá	704	Santa Lucía Utatlán 	7	Santa Rita 	8	Agosto	2023-08-20T00:00:00	2024-11-08T16:00:00	4	Temperatura máxima	22.1
112491	7	Sololá	704	Santa Lucía Utatlán 	7	Santa Rita 	8	Agosto	2023-08-20T00:00:00	2024-11-08T16:00:00	3	Temperatura mínima	21
112492	7	Sololá	704	Santa Lucía Utatlán 	7	Santa Rita 	8	Agosto	2023-08-20T00:00:00	2024-11-08T16:00:00	5	Humedad	74
112493	7	Sololá	704	Santa Lucía Utatlán 	7	Santa Rita 	8	Agosto	2023-08-20T00:00:00	2024-11-08T16:00:00	6	Velocidad del viento	4.8
112494	7	Sololá	704	Santa Lucía Utatlán 	7	Santa Rita 	8	Agosto	2023-08-20T00:00:00	2024-11-08T16:00:00	7	Dirección del viento	4.83
112495	7	Sololá	704	Santa Lucía Utatlán 	7	Santa Rita 	8	Agosto	2023-08-20T00:00:00	2024-11-08T16:00:00	1	Precipitación	0
112496	7	Sololá	704	Santa Lucía Utatlán 	7	Santa Rita 	8	Agosto	2023-08-20T00:00:00	2024-11-08T16:00:00	8	Radiación solar	314
112497	7	Sololá	704	Santa Lucía Utatlán 	7	Santa Rita 	8	Agosto	2023-08-20T00:00:00	2024-11-08T17:00:00	2	Temperatura media	19.6
112498	7	Sololá	704	Santa Lucía Utatlán 	7	Santa Rita 	8	Agosto	2023-08-20T00:00:00	2024-11-08T17:00:00	4	Temperatura máxima	21.1
112499	7	Sololá	704	Santa Lucía Utatlán 	7	Santa Rita 	8	Agosto	2023-08-20T00:00:00	2024-11-08T17:00:00	3	Temperatura mínima	19.6
112500	7	Sololá	704	Santa Lucía Utatlán 	7	Santa Rita 	8	Agosto	2023-08-20T00:00:00	2024-11-08T17:00:00	5	Humedad	81
112501	7	Sololá	704	Santa Lucía Utatlán 	7	Santa Rita 	8	Agosto	2023-08-20T00:00:00	2024-11-08T17:00:00	6	Velocidad del viento	3.2
112502	7	Sololá	704	Santa Lucía Utatlán 	7	Santa Rita 	8	Agosto	2023-08-20T00:00:00	2024-11-08T17:00:00	7	Dirección del viento	3.22
112503	7	Sololá	704	Santa Lucía Utatlán 	7	Santa Rita 	8	Agosto	2023-08-20T00:00:00	2024-11-08T17:00:00	1	Precipitación	0
112504	7	Sololá	704	Santa Lucía Utatlán 	7	Santa Rita 	8	Agosto	2023-08-20T00:00:00	2024-11-08T17:00:00	8	Radiación solar	195
112505	7	Sololá	704	Santa Lucía Utatlán 	7	Santa Rita 	8	Agosto	2023-08-20T00:00:00	2024-11-08T18:00:00	2	Temperatura media	18.7
112506	7	Sololá	704	Santa Lucía Utatlán 	7	Santa Rita 	8	Agosto	2023-08-20T00:00:00	2024-11-08T18:00:00	4	Temperatura máxima	19.6
112507	7	Sololá	704	Santa Lucía Utatlán 	7	Santa Rita 	8	Agosto	2023-08-20T00:00:00	2024-11-08T18:00:00	3	Temperatura mínima	18.7
112508	7	Sololá	704	Santa Lucía Utatlán 	7	Santa Rita 	8	Agosto	2023-08-20T00:00:00	2024-11-08T18:00:00	5	Humedad	86
112509	7	Sololá	704	Santa Lucía Utatlán 	7	Santa Rita 	8	Agosto	2023-08-20T00:00:00	2024-11-08T18:00:00	6	Velocidad del viento	1.6
112510	7	Sololá	704	Santa Lucía Utatlán 	7	Santa Rita 	8	Agosto	2023-08-20T00:00:00	2024-11-08T18:00:00	7	Dirección del viento	1.61
112511	7	Sololá	704	Santa Lucía Utatlán 	7	Santa Rita 	8	Agosto	2023-08-20T00:00:00	2024-11-08T18:00:00	1	Precipitación	0
112512	7	Sololá	704	Santa Lucía Utatlán 	7	Santa Rita 	8	Agosto	2023-08-20T00:00:00	2024-11-08T18:00:00	8	Radiación solar	48
112513	7	Sololá	704	Santa Lucía Utatlán 	7	Santa Rita 	8	Agosto	2023-08-20T00:00:00	2024-11-08T19:00:00	2	Temperatura media	20.7
112514	7	Sololá	704	Santa Lucía Utatlán 	7	Santa Rita 	8	Agosto	2023-08-20T00:00:00	2024-11-08T19:00:00	4	Temperatura máxima	20.7
112515	7	Sololá	704	Santa Lucía Utatlán 	7	Santa Rita 	8	Agosto	2023-08-20T00:00:00	2024-11-08T19:00:00	3	Temperatura mínima	18.6
112516	7	Sololá	704	Santa Lucía Utatlán 	7	Santa Rita 	8	Agosto	2023-08-20T00:00:00	2024-11-08T19:00:00	5	Humedad	75
112517	7	Sololá	704	Santa Lucía Utatlán 	7	Santa Rita 	8	Agosto	2023-08-20T00:00:00	2024-11-08T19:00:00	6	Velocidad del viento	4.8
112518	7	Sololá	704	Santa Lucía Utatlán 	7	Santa Rita 	8	Agosto	2023-08-20T00:00:00	2024-11-08T19:00:00	7	Dirección del viento	4.83
112519	7	Sololá	704	Santa Lucía Utatlán 	7	Santa Rita 	8	Agosto	2023-08-20T00:00:00	2024-11-08T19:00:00	1	Precipitación	0
112520	7	Sololá	704	Santa Lucía Utatlán 	7	Santa Rita 	8	Agosto	2023-08-20T00:00:00	2024-11-08T19:00:00	8	Radiación solar	0
112521	7	Sololá	704	Santa Lucía Utatlán 	7	Santa Rita 	8	Agosto	2023-08-20T00:00:00	2024-11-08T20:00:00	2	Temperatura media	18.9
112522	7	Sololá	704	Santa Lucía Utatlán 	7	Santa Rita 	8	Agosto	2023-08-20T00:00:00	2024-11-08T20:00:00	4	Temperatura máxima	20.7
112523	7	Sololá	704	Santa Lucía Utatlán 	7	Santa Rita 	8	Agosto	2023-08-20T00:00:00	2024-11-08T20:00:00	3	Temperatura mínima	18.9
112524	7	Sololá	704	Santa Lucía Utatlán 	7	Santa Rita 	8	Agosto	2023-08-20T00:00:00	2024-11-08T20:00:00	5	Humedad	84
112525	7	Sololá	704	Santa Lucía Utatlán 	7	Santa Rita 	8	Agosto	2023-08-20T00:00:00	2024-11-08T20:00:00	6	Velocidad del viento	4.8
112526	7	Sololá	704	Santa Lucía Utatlán 	7	Santa Rita 	8	Agosto	2023-08-20T00:00:00	2024-11-08T20:00:00	7	Dirección del viento	4.83
112527	7	Sololá	704	Santa Lucía Utatlán 	7	Santa Rita 	8	Agosto	2023-08-20T00:00:00	2024-11-08T20:00:00	1	Precipitación	0
112528	7	Sololá	704	Santa Lucía Utatlán 	7	Santa Rita 	8	Agosto	2023-08-20T00:00:00	2024-11-08T20:00:00	8	Radiación solar	0
112529	7	Sololá	704	Santa Lucía Utatlán 	7	Santa Rita 	8	Agosto	2023-08-20T00:00:00	2024-11-08T21:00:00	2	Temperatura media	17.2
112530	7	Sololá	704	Santa Lucía Utatlán 	7	Santa Rita 	8	Agosto	2023-08-20T00:00:00	2024-11-08T21:00:00	4	Temperatura máxima	18.9
112531	7	Sololá	704	Santa Lucía Utatlán 	7	Santa Rita 	8	Agosto	2023-08-20T00:00:00	2024-11-08T21:00:00	3	Temperatura mínima	17.2
112532	7	Sololá	704	Santa Lucía Utatlán 	7	Santa Rita 	8	Agosto	2023-08-20T00:00:00	2024-11-08T21:00:00	5	Humedad	87
112533	7	Sololá	704	Santa Lucía Utatlán 	7	Santa Rita 	8	Agosto	2023-08-20T00:00:00	2024-11-08T21:00:00	6	Velocidad del viento	3.2
112534	7	Sololá	704	Santa Lucía Utatlán 	7	Santa Rita 	8	Agosto	2023-08-20T00:00:00	2024-11-08T21:00:00	7	Dirección del viento	3.22
112535	7	Sololá	704	Santa Lucía Utatlán 	7	Santa Rita 	8	Agosto	2023-08-20T00:00:00	2024-11-08T21:00:00	1	Precipitación	0
112536	7	Sololá	704	Santa Lucía Utatlán 	7	Santa Rita 	8	Agosto	2023-08-20T00:00:00	2024-11-08T21:00:00	8	Radiación solar	0
112537	7	Sololá	704	Santa Lucía Utatlán 	7	Santa Rita 	8	Agosto	2023-08-20T00:00:00	2024-11-08T22:00:00	2	Temperatura media	19.3
112538	7	Sololá	704	Santa Lucía Utatlán 	7	Santa Rita 	8	Agosto	2023-08-20T00:00:00	2024-11-08T22:00:00	4	Temperatura máxima	19.3
112539	7	Sololá	704	Santa Lucía Utatlán 	7	Santa Rita 	8	Agosto	2023-08-20T00:00:00	2024-11-08T22:00:00	3	Temperatura mínima	17
112540	7	Sololá	704	Santa Lucía Utatlán 	7	Santa Rita 	8	Agosto	2023-08-20T00:00:00	2024-11-08T22:00:00	5	Humedad	79
112541	7	Sololá	704	Santa Lucía Utatlán 	7	Santa Rita 	8	Agosto	2023-08-20T00:00:00	2024-11-08T22:00:00	6	Velocidad del viento	3.2
112542	7	Sololá	704	Santa Lucía Utatlán 	7	Santa Rita 	8	Agosto	2023-08-20T00:00:00	2024-11-08T22:00:00	7	Dirección del viento	3.22
112543	7	Sololá	704	Santa Lucía Utatlán 	7	Santa Rita 	8	Agosto	2023-08-20T00:00:00	2024-11-08T22:00:00	1	Precipitación	0
112544	7	Sololá	704	Santa Lucía Utatlán 	7	Santa Rita 	8	Agosto	2023-08-20T00:00:00	2024-11-08T22:00:00	8	Radiación solar	0
112545	7	Sololá	704	Santa Lucía Utatlán 	7	Santa Rita 	8	Agosto	2023-08-20T00:00:00	2024-11-08T23:00:00	2	Temperatura media	20
112546	7	Sololá	704	Santa Lucía Utatlán 	7	Santa Rita 	8	Agosto	2023-08-20T00:00:00	2024-11-08T23:00:00	4	Temperatura máxima	20
112547	7	Sololá	704	Santa Lucía Utatlán 	7	Santa Rita 	8	Agosto	2023-08-20T00:00:00	2024-11-08T23:00:00	3	Temperatura mínima	18.8
112548	7	Sololá	704	Santa Lucía Utatlán 	7	Santa Rita 	8	Agosto	2023-08-20T00:00:00	2024-11-08T23:00:00	5	Humedad	73
112549	7	Sololá	704	Santa Lucía Utatlán 	7	Santa Rita 	8	Agosto	2023-08-20T00:00:00	2024-11-08T23:00:00	6	Velocidad del viento	4.8
112550	7	Sololá	704	Santa Lucía Utatlán 	7	Santa Rita 	8	Agosto	2023-08-20T00:00:00	2024-11-08T23:00:00	7	Dirección del viento	4.83
112551	7	Sololá	704	Santa Lucía Utatlán 	7	Santa Rita 	8	Agosto	2023-08-20T00:00:00	2024-11-08T23:00:00	1	Precipitación	0
112552	7	Sololá	704	Santa Lucía Utatlán 	7	Santa Rita 	8	Agosto	2023-08-20T00:00:00	2024-11-08T23:00:00	8	Radiación solar	0
112553	7	Sololá	704	Santa Lucía Utatlán 	7	Santa Rita 	8	Agosto	2023-08-21T00:00:00	2024-11-08T00:00:00	2	Temperatura media	19.8
112554	7	Sololá	704	Santa Lucía Utatlán 	7	Santa Rita 	8	Agosto	2023-08-21T00:00:00	2024-11-08T00:00:00	4	Temperatura máxima	20.1
112555	7	Sololá	704	Santa Lucía Utatlán 	7	Santa Rita 	8	Agosto	2023-08-21T00:00:00	2024-11-08T00:00:00	3	Temperatura mínima	17.4
112556	7	Sololá	704	Santa Lucía Utatlán 	7	Santa Rita 	8	Agosto	2023-08-21T00:00:00	2024-11-08T00:00:00	5	Humedad	75
112557	7	Sololá	704	Santa Lucía Utatlán 	7	Santa Rita 	8	Agosto	2023-08-21T00:00:00	2024-11-08T00:00:00	6	Velocidad del viento	4.8
112558	7	Sololá	704	Santa Lucía Utatlán 	7	Santa Rita 	8	Agosto	2023-08-21T00:00:00	2024-11-08T00:00:00	7	Dirección del viento	4.83
112559	7	Sololá	704	Santa Lucía Utatlán 	7	Santa Rita 	8	Agosto	2023-08-21T00:00:00	2024-11-08T00:00:00	1	Precipitación	0
112560	7	Sololá	704	Santa Lucía Utatlán 	7	Santa Rita 	8	Agosto	2023-08-21T00:00:00	2024-11-08T00:00:00	8	Radiación solar	0
112561	7	Sololá	704	Santa Lucía Utatlán 	7	Santa Rita 	8	Agosto	2023-08-21T00:00:00	2024-11-08T01:00:00	2	Temperatura media	19.4
112562	7	Sololá	704	Santa Lucía Utatlán 	7	Santa Rita 	8	Agosto	2023-08-21T00:00:00	2024-11-08T01:00:00	4	Temperatura máxima	19.8
112563	7	Sololá	704	Santa Lucía Utatlán 	7	Santa Rita 	8	Agosto	2023-08-21T00:00:00	2024-11-08T01:00:00	3	Temperatura mínima	19.2
112564	7	Sololá	704	Santa Lucía Utatlán 	7	Santa Rita 	8	Agosto	2023-08-21T00:00:00	2024-11-08T01:00:00	5	Humedad	76
112565	7	Sololá	704	Santa Lucía Utatlán 	7	Santa Rita 	8	Agosto	2023-08-21T00:00:00	2024-11-08T01:00:00	6	Velocidad del viento	8
112566	7	Sololá	704	Santa Lucía Utatlán 	7	Santa Rita 	8	Agosto	2023-08-21T00:00:00	2024-11-08T01:00:00	7	Dirección del viento	8.05
112567	7	Sololá	704	Santa Lucía Utatlán 	7	Santa Rita 	8	Agosto	2023-08-21T00:00:00	2024-11-08T01:00:00	1	Precipitación	0
112568	7	Sololá	704	Santa Lucía Utatlán 	7	Santa Rita 	8	Agosto	2023-08-21T00:00:00	2024-11-08T01:00:00	8	Radiación solar	0
112569	7	Sololá	704	Santa Lucía Utatlán 	7	Santa Rita 	8	Agosto	2023-08-21T00:00:00	2024-11-08T02:00:00	2	Temperatura media	17
112570	7	Sololá	704	Santa Lucía Utatlán 	7	Santa Rita 	8	Agosto	2023-08-21T00:00:00	2024-11-08T02:00:00	4	Temperatura máxima	19.4
112571	7	Sololá	704	Santa Lucía Utatlán 	7	Santa Rita 	8	Agosto	2023-08-21T00:00:00	2024-11-08T02:00:00	3	Temperatura mínima	17
112572	7	Sololá	704	Santa Lucía Utatlán 	7	Santa Rita 	8	Agosto	2023-08-21T00:00:00	2024-11-08T02:00:00	5	Humedad	87
112573	7	Sololá	704	Santa Lucía Utatlán 	7	Santa Rita 	8	Agosto	2023-08-21T00:00:00	2024-11-08T02:00:00	6	Velocidad del viento	3.2
112574	7	Sololá	704	Santa Lucía Utatlán 	7	Santa Rita 	8	Agosto	2023-08-21T00:00:00	2024-11-08T02:00:00	7	Dirección del viento	3.22
112575	7	Sololá	704	Santa Lucía Utatlán 	7	Santa Rita 	8	Agosto	2023-08-21T00:00:00	2024-11-08T02:00:00	1	Precipitación	0
112576	7	Sololá	704	Santa Lucía Utatlán 	7	Santa Rita 	8	Agosto	2023-08-21T00:00:00	2024-11-08T02:00:00	8	Radiación solar	0
112577	7	Sololá	704	Santa Lucía Utatlán 	7	Santa Rita 	8	Agosto	2023-08-21T00:00:00	2024-11-08T03:00:00	2	Temperatura media	16.7
112578	7	Sololá	704	Santa Lucía Utatlán 	7	Santa Rita 	8	Agosto	2023-08-21T00:00:00	2024-11-08T03:00:00	4	Temperatura máxima	17.2
112579	7	Sololá	704	Santa Lucía Utatlán 	7	Santa Rita 	8	Agosto	2023-08-21T00:00:00	2024-11-08T03:00:00	3	Temperatura mínima	16.7
112580	7	Sololá	704	Santa Lucía Utatlán 	7	Santa Rita 	8	Agosto	2023-08-21T00:00:00	2024-11-08T03:00:00	5	Humedad	88
112581	7	Sololá	704	Santa Lucía Utatlán 	7	Santa Rita 	8	Agosto	2023-08-21T00:00:00	2024-11-08T03:00:00	6	Velocidad del viento	3.2
112582	7	Sololá	704	Santa Lucía Utatlán 	7	Santa Rita 	8	Agosto	2023-08-21T00:00:00	2024-11-08T03:00:00	7	Dirección del viento	3.22
112583	7	Sololá	704	Santa Lucía Utatlán 	7	Santa Rita 	8	Agosto	2023-08-21T00:00:00	2024-11-08T03:00:00	1	Precipitación	0
112584	7	Sololá	704	Santa Lucía Utatlán 	7	Santa Rita 	8	Agosto	2023-08-21T00:00:00	2024-11-08T03:00:00	8	Radiación solar	0
112585	7	Sololá	704	Santa Lucía Utatlán 	7	Santa Rita 	8	Agosto	2023-08-21T00:00:00	2024-11-08T04:00:00	2	Temperatura media	18.3
112586	7	Sololá	704	Santa Lucía Utatlán 	7	Santa Rita 	8	Agosto	2023-08-21T00:00:00	2024-11-08T04:00:00	4	Temperatura máxima	18.3
112587	7	Sololá	704	Santa Lucía Utatlán 	7	Santa Rita 	8	Agosto	2023-08-21T00:00:00	2024-11-08T04:00:00	3	Temperatura mínima	16.7
112588	7	Sololá	704	Santa Lucía Utatlán 	7	Santa Rita 	8	Agosto	2023-08-21T00:00:00	2024-11-08T04:00:00	5	Humedad	86
112589	7	Sololá	704	Santa Lucía Utatlán 	7	Santa Rita 	8	Agosto	2023-08-21T00:00:00	2024-11-08T04:00:00	6	Velocidad del viento	3.2
112590	7	Sololá	704	Santa Lucía Utatlán 	7	Santa Rita 	8	Agosto	2023-08-21T00:00:00	2024-11-08T04:00:00	7	Dirección del viento	3.22
112591	7	Sololá	704	Santa Lucía Utatlán 	7	Santa Rita 	8	Agosto	2023-08-21T00:00:00	2024-11-08T04:00:00	1	Precipitación	0
112592	7	Sololá	704	Santa Lucía Utatlán 	7	Santa Rita 	8	Agosto	2023-08-21T00:00:00	2024-11-08T04:00:00	8	Radiación solar	0
112593	7	Sololá	704	Santa Lucía Utatlán 	7	Santa Rita 	8	Agosto	2023-08-21T00:00:00	2024-11-08T05:00:00	2	Temperatura media	22.2
112594	7	Sololá	704	Santa Lucía Utatlán 	7	Santa Rita 	8	Agosto	2023-08-21T00:00:00	2024-11-08T05:00:00	4	Temperatura máxima	22.2
112595	7	Sololá	704	Santa Lucía Utatlán 	7	Santa Rita 	8	Agosto	2023-08-21T00:00:00	2024-11-08T05:00:00	3	Temperatura mínima	18.3
112596	7	Sololá	704	Santa Lucía Utatlán 	7	Santa Rita 	8	Agosto	2023-08-21T00:00:00	2024-11-08T05:00:00	5	Humedad	75
112597	7	Sololá	704	Santa Lucía Utatlán 	7	Santa Rita 	8	Agosto	2023-08-21T00:00:00	2024-11-08T05:00:00	6	Velocidad del viento	1.6
112598	7	Sololá	704	Santa Lucía Utatlán 	7	Santa Rita 	8	Agosto	2023-08-21T00:00:00	2024-11-08T05:00:00	7	Dirección del viento	1.61
112599	7	Sololá	704	Santa Lucía Utatlán 	7	Santa Rita 	8	Agosto	2023-08-21T00:00:00	2024-11-08T05:00:00	1	Precipitación	0
112600	7	Sololá	704	Santa Lucía Utatlán 	7	Santa Rita 	8	Agosto	2023-08-21T00:00:00	2024-11-08T05:00:00	8	Radiación solar	0
112601	7	Sololá	704	Santa Lucía Utatlán 	7	Santa Rita 	8	Agosto	2023-08-21T00:00:00	2024-11-08T06:00:00	2	Temperatura media	24.1
112602	7	Sololá	704	Santa Lucía Utatlán 	7	Santa Rita 	8	Agosto	2023-08-21T00:00:00	2024-11-08T06:00:00	4	Temperatura máxima	24.4
112603	7	Sololá	704	Santa Lucía Utatlán 	7	Santa Rita 	8	Agosto	2023-08-21T00:00:00	2024-11-08T06:00:00	3	Temperatura mínima	22.2
112604	7	Sololá	704	Santa Lucía Utatlán 	7	Santa Rita 	8	Agosto	2023-08-21T00:00:00	2024-11-08T06:00:00	5	Humedad	65
112605	7	Sololá	704	Santa Lucía Utatlán 	7	Santa Rita 	8	Agosto	2023-08-21T00:00:00	2024-11-08T06:00:00	6	Velocidad del viento	3.2
112606	7	Sololá	704	Santa Lucía Utatlán 	7	Santa Rita 	8	Agosto	2023-08-21T00:00:00	2024-11-08T06:00:00	7	Dirección del viento	3.22
112607	7	Sololá	704	Santa Lucía Utatlán 	7	Santa Rita 	8	Agosto	2023-08-21T00:00:00	2024-11-08T06:00:00	1	Precipitación	0
112608	7	Sololá	704	Santa Lucía Utatlán 	7	Santa Rita 	8	Agosto	2023-08-21T00:00:00	2024-11-08T06:00:00	8	Radiación solar	3
112609	7	Sololá	704	Santa Lucía Utatlán 	7	Santa Rita 	8	Agosto	2023-08-21T00:00:00	2024-11-08T07:00:00	2	Temperatura media	24.7
112610	7	Sololá	704	Santa Lucía Utatlán 	7	Santa Rita 	8	Agosto	2023-08-21T00:00:00	2024-11-08T07:00:00	4	Temperatura máxima	24.8
112611	7	Sololá	704	Santa Lucía Utatlán 	7	Santa Rita 	8	Agosto	2023-08-21T00:00:00	2024-11-08T07:00:00	3	Temperatura mínima	24.1
112612	7	Sololá	704	Santa Lucía Utatlán 	7	Santa Rita 	8	Agosto	2023-08-21T00:00:00	2024-11-08T07:00:00	5	Humedad	57
112613	7	Sololá	704	Santa Lucía Utatlán 	7	Santa Rita 	8	Agosto	2023-08-21T00:00:00	2024-11-08T07:00:00	6	Velocidad del viento	9.7
112614	7	Sololá	704	Santa Lucía Utatlán 	7	Santa Rita 	8	Agosto	2023-08-21T00:00:00	2024-11-08T07:00:00	7	Dirección del viento	9.66
112615	7	Sololá	704	Santa Lucía Utatlán 	7	Santa Rita 	8	Agosto	2023-08-21T00:00:00	2024-11-08T07:00:00	1	Precipitación	0
112616	7	Sololá	704	Santa Lucía Utatlán 	7	Santa Rita 	8	Agosto	2023-08-21T00:00:00	2024-11-08T07:00:00	8	Radiación solar	65
112617	7	Sololá	704	Santa Lucía Utatlán 	7	Santa Rita 	8	Agosto	2023-08-21T00:00:00	2024-11-08T08:00:00	2	Temperatura media	25.3
112618	7	Sololá	704	Santa Lucía Utatlán 	7	Santa Rita 	8	Agosto	2023-08-21T00:00:00	2024-11-08T08:00:00	4	Temperatura máxima	25.4
112619	7	Sololá	704	Santa Lucía Utatlán 	7	Santa Rita 	8	Agosto	2023-08-21T00:00:00	2024-11-08T08:00:00	3	Temperatura mínima	24.7
112620	7	Sololá	704	Santa Lucía Utatlán 	7	Santa Rita 	8	Agosto	2023-08-21T00:00:00	2024-11-08T08:00:00	5	Humedad	59
112621	7	Sololá	704	Santa Lucía Utatlán 	7	Santa Rita 	8	Agosto	2023-08-21T00:00:00	2024-11-08T08:00:00	6	Velocidad del viento	11.3
112622	7	Sololá	704	Santa Lucía Utatlán 	7	Santa Rita 	8	Agosto	2023-08-21T00:00:00	2024-11-08T08:00:00	7	Dirección del viento	11.27
112623	7	Sololá	704	Santa Lucía Utatlán 	7	Santa Rita 	8	Agosto	2023-08-21T00:00:00	2024-11-08T08:00:00	1	Precipitación	0
112624	7	Sololá	704	Santa Lucía Utatlán 	7	Santa Rita 	8	Agosto	2023-08-21T00:00:00	2024-11-08T08:00:00	8	Radiación solar	260
112625	7	Sololá	704	Santa Lucía Utatlán 	7	Santa Rita 	8	Agosto	2023-08-21T00:00:00	2024-11-08T09:00:00	2	Temperatura media	25.7
112626	7	Sololá	704	Santa Lucía Utatlán 	7	Santa Rita 	8	Agosto	2023-08-21T00:00:00	2024-11-08T09:00:00	4	Temperatura máxima	25.7
112627	7	Sololá	704	Santa Lucía Utatlán 	7	Santa Rita 	8	Agosto	2023-08-21T00:00:00	2024-11-08T09:00:00	3	Temperatura mínima	24.9
112628	7	Sololá	704	Santa Lucía Utatlán 	7	Santa Rita 	8	Agosto	2023-08-21T00:00:00	2024-11-08T09:00:00	5	Humedad	58
112629	7	Sololá	704	Santa Lucía Utatlán 	7	Santa Rita 	8	Agosto	2023-08-21T00:00:00	2024-11-08T09:00:00	6	Velocidad del viento	9.7
112630	7	Sololá	704	Santa Lucía Utatlán 	7	Santa Rita 	8	Agosto	2023-08-21T00:00:00	2024-11-08T09:00:00	7	Dirección del viento	9.66
112631	7	Sololá	704	Santa Lucía Utatlán 	7	Santa Rita 	8	Agosto	2023-08-21T00:00:00	2024-11-08T09:00:00	1	Precipitación	0
112632	7	Sololá	704	Santa Lucía Utatlán 	7	Santa Rita 	8	Agosto	2023-08-21T00:00:00	2024-11-08T09:00:00	8	Radiación solar	473
112633	7	Sololá	704	Santa Lucía Utatlán 	7	Santa Rita 	8	Agosto	2023-08-21T00:00:00	2024-11-08T10:00:00	2	Temperatura media	24.8
112634	7	Sololá	704	Santa Lucía Utatlán 	7	Santa Rita 	8	Agosto	2023-08-21T00:00:00	2024-11-08T10:00:00	4	Temperatura máxima	26.3
112635	7	Sololá	704	Santa Lucía Utatlán 	7	Santa Rita 	8	Agosto	2023-08-21T00:00:00	2024-11-08T10:00:00	3	Temperatura mínima	24.8
112636	7	Sololá	704	Santa Lucía Utatlán 	7	Santa Rita 	8	Agosto	2023-08-21T00:00:00	2024-11-08T10:00:00	5	Humedad	68
112637	7	Sololá	704	Santa Lucía Utatlán 	7	Santa Rita 	8	Agosto	2023-08-21T00:00:00	2024-11-08T10:00:00	6	Velocidad del viento	9.7
112638	7	Sololá	704	Santa Lucía Utatlán 	7	Santa Rita 	8	Agosto	2023-08-21T00:00:00	2024-11-08T10:00:00	7	Dirección del viento	9.66
112639	7	Sololá	704	Santa Lucía Utatlán 	7	Santa Rita 	8	Agosto	2023-08-21T00:00:00	2024-11-08T10:00:00	1	Precipitación	0
112640	7	Sololá	704	Santa Lucía Utatlán 	7	Santa Rita 	8	Agosto	2023-08-21T00:00:00	2024-11-08T10:00:00	8	Radiación solar	639
112641	7	Sololá	704	Santa Lucía Utatlán 	7	Santa Rita 	8	Agosto	2023-08-21T00:00:00	2024-11-08T11:00:00	2	Temperatura media	24.2
112642	7	Sololá	704	Santa Lucía Utatlán 	7	Santa Rita 	8	Agosto	2023-08-21T00:00:00	2024-11-08T11:00:00	4	Temperatura máxima	24.8
112643	7	Sololá	704	Santa Lucía Utatlán 	7	Santa Rita 	8	Agosto	2023-08-21T00:00:00	2024-11-08T11:00:00	3	Temperatura mínima	24.2
112644	7	Sololá	704	Santa Lucía Utatlán 	7	Santa Rita 	8	Agosto	2023-08-21T00:00:00	2024-11-08T11:00:00	5	Humedad	73
112645	7	Sololá	704	Santa Lucía Utatlán 	7	Santa Rita 	8	Agosto	2023-08-21T00:00:00	2024-11-08T11:00:00	6	Velocidad del viento	6.4
112646	7	Sololá	704	Santa Lucía Utatlán 	7	Santa Rita 	8	Agosto	2023-08-21T00:00:00	2024-11-08T11:00:00	7	Dirección del viento	6.44
112647	7	Sololá	704	Santa Lucía Utatlán 	7	Santa Rita 	8	Agosto	2023-08-21T00:00:00	2024-11-08T11:00:00	1	Precipitación	0
112648	7	Sololá	704	Santa Lucía Utatlán 	7	Santa Rita 	8	Agosto	2023-08-21T00:00:00	2024-11-08T11:00:00	8	Radiación solar	738
112649	7	Sololá	704	Santa Lucía Utatlán 	7	Santa Rita 	8	Agosto	2023-08-21T00:00:00	2024-11-08T12:00:00	2	Temperatura media	24.4
112650	7	Sololá	704	Santa Lucía Utatlán 	7	Santa Rita 	8	Agosto	2023-08-21T00:00:00	2024-11-08T12:00:00	4	Temperatura máxima	25.4
112651	7	Sololá	704	Santa Lucía Utatlán 	7	Santa Rita 	8	Agosto	2023-08-21T00:00:00	2024-11-08T12:00:00	3	Temperatura mínima	24.1
112652	7	Sololá	704	Santa Lucía Utatlán 	7	Santa Rita 	8	Agosto	2023-08-21T00:00:00	2024-11-08T12:00:00	5	Humedad	73
112653	7	Sololá	704	Santa Lucía Utatlán 	7	Santa Rita 	8	Agosto	2023-08-21T00:00:00	2024-11-08T12:00:00	6	Velocidad del viento	8
112654	7	Sololá	704	Santa Lucía Utatlán 	7	Santa Rita 	8	Agosto	2023-08-21T00:00:00	2024-11-08T12:00:00	7	Dirección del viento	8.05
112655	7	Sololá	704	Santa Lucía Utatlán 	7	Santa Rita 	8	Agosto	2023-08-21T00:00:00	2024-11-08T12:00:00	1	Precipitación	0
112656	7	Sololá	704	Santa Lucía Utatlán 	7	Santa Rita 	8	Agosto	2023-08-21T00:00:00	2024-11-08T12:00:00	8	Radiación solar	731
112657	7	Sololá	704	Santa Lucía Utatlán 	7	Santa Rita 	8	Agosto	2023-08-21T00:00:00	2024-11-08T13:00:00	2	Temperatura media	21.1
112658	7	Sololá	704	Santa Lucía Utatlán 	7	Santa Rita 	8	Agosto	2023-08-21T00:00:00	2024-11-08T13:00:00	4	Temperatura máxima	24.4
112659	7	Sololá	704	Santa Lucía Utatlán 	7	Santa Rita 	8	Agosto	2023-08-21T00:00:00	2024-11-08T13:00:00	3	Temperatura mínima	21.1
112660	7	Sololá	704	Santa Lucía Utatlán 	7	Santa Rita 	8	Agosto	2023-08-21T00:00:00	2024-11-08T13:00:00	5	Humedad	89
112661	7	Sololá	704	Santa Lucía Utatlán 	7	Santa Rita 	8	Agosto	2023-08-21T00:00:00	2024-11-08T13:00:00	6	Velocidad del viento	8
112662	7	Sololá	704	Santa Lucía Utatlán 	7	Santa Rita 	8	Agosto	2023-08-21T00:00:00	2024-11-08T13:00:00	7	Dirección del viento	8.05
112663	7	Sololá	704	Santa Lucía Utatlán 	7	Santa Rita 	8	Agosto	2023-08-21T00:00:00	2024-11-08T13:00:00	1	Precipitación	5.4
112664	7	Sololá	704	Santa Lucía Utatlán 	7	Santa Rita 	8	Agosto	2023-08-21T00:00:00	2024-11-08T13:00:00	8	Radiación solar	638
112665	7	Sololá	704	Santa Lucía Utatlán 	7	Santa Rita 	8	Agosto	2023-08-21T00:00:00	2024-11-08T14:00:00	2	Temperatura media	19.9
112666	7	Sololá	704	Santa Lucía Utatlán 	7	Santa Rita 	8	Agosto	2023-08-21T00:00:00	2024-11-08T14:00:00	4	Temperatura máxima	19.9
112667	7	Sololá	704	Santa Lucía Utatlán 	7	Santa Rita 	8	Agosto	2023-08-21T00:00:00	2024-11-08T14:00:00	3	Temperatura mínima	19.7
112668	7	Sololá	704	Santa Lucía Utatlán 	7	Santa Rita 	8	Agosto	2023-08-21T00:00:00	2024-11-08T14:00:00	5	Humedad	95
112669	7	Sololá	704	Santa Lucía Utatlán 	7	Santa Rita 	8	Agosto	2023-08-21T00:00:00	2024-11-08T14:00:00	6	Velocidad del viento	1.6
112670	7	Sololá	704	Santa Lucía Utatlán 	7	Santa Rita 	8	Agosto	2023-08-21T00:00:00	2024-11-08T14:00:00	7	Dirección del viento	1.61
112671	7	Sololá	704	Santa Lucía Utatlán 	7	Santa Rita 	8	Agosto	2023-08-21T00:00:00	2024-11-08T14:00:00	1	Precipitación	0
112672	7	Sololá	704	Santa Lucía Utatlán 	7	Santa Rita 	8	Agosto	2023-08-21T00:00:00	2024-11-08T14:00:00	8	Radiación solar	300
112673	7	Sololá	704	Santa Lucía Utatlán 	7	Santa Rita 	8	Agosto	2023-08-21T00:00:00	2024-11-08T15:00:00	2	Temperatura media	19.7
112674	7	Sololá	704	Santa Lucía Utatlán 	7	Santa Rita 	8	Agosto	2023-08-21T00:00:00	2024-11-08T15:00:00	4	Temperatura máxima	19.9
112675	7	Sololá	704	Santa Lucía Utatlán 	7	Santa Rita 	8	Agosto	2023-08-21T00:00:00	2024-11-08T15:00:00	3	Temperatura mínima	19.7
112676	7	Sololá	704	Santa Lucía Utatlán 	7	Santa Rita 	8	Agosto	2023-08-21T00:00:00	2024-11-08T15:00:00	5	Humedad	95
112677	7	Sololá	704	Santa Lucía Utatlán 	7	Santa Rita 	8	Agosto	2023-08-21T00:00:00	2024-11-08T15:00:00	6	Velocidad del viento	1.6
112678	7	Sololá	704	Santa Lucía Utatlán 	7	Santa Rita 	8	Agosto	2023-08-21T00:00:00	2024-11-08T15:00:00	7	Dirección del viento	1.61
112679	7	Sololá	704	Santa Lucía Utatlán 	7	Santa Rita 	8	Agosto	2023-08-21T00:00:00	2024-11-08T15:00:00	1	Precipitación	0
112680	7	Sololá	704	Santa Lucía Utatlán 	7	Santa Rita 	8	Agosto	2023-08-21T00:00:00	2024-11-08T15:00:00	8	Radiación solar	438
112681	7	Sololá	704	Santa Lucía Utatlán 	7	Santa Rita 	8	Agosto	2023-08-21T00:00:00	2024-11-08T16:00:00	2	Temperatura media	19.5
112682	7	Sololá	704	Santa Lucía Utatlán 	7	Santa Rita 	8	Agosto	2023-08-21T00:00:00	2024-11-08T16:00:00	4	Temperatura máxima	19.7
112683	7	Sololá	704	Santa Lucía Utatlán 	7	Santa Rita 	8	Agosto	2023-08-21T00:00:00	2024-11-08T16:00:00	3	Temperatura mínima	19.4
112684	7	Sololá	704	Santa Lucía Utatlán 	7	Santa Rita 	8	Agosto	2023-08-21T00:00:00	2024-11-08T16:00:00	5	Humedad	94
112685	7	Sololá	704	Santa Lucía Utatlán 	7	Santa Rita 	8	Agosto	2023-08-21T00:00:00	2024-11-08T16:00:00	6	Velocidad del viento	1.6
112686	7	Sololá	704	Santa Lucía Utatlán 	7	Santa Rita 	8	Agosto	2023-08-21T00:00:00	2024-11-08T16:00:00	7	Dirección del viento	1.61
112687	7	Sololá	704	Santa Lucía Utatlán 	7	Santa Rita 	8	Agosto	2023-08-21T00:00:00	2024-11-08T16:00:00	1	Precipitación	0
112688	7	Sololá	704	Santa Lucía Utatlán 	7	Santa Rita 	8	Agosto	2023-08-21T00:00:00	2024-11-08T16:00:00	8	Radiación solar	159
112689	7	Sololá	704	Santa Lucía Utatlán 	7	Santa Rita 	8	Agosto	2023-08-21T00:00:00	2024-11-08T17:00:00	2	Temperatura media	19.6
112690	7	Sololá	704	Santa Lucía Utatlán 	7	Santa Rita 	8	Agosto	2023-08-21T00:00:00	2024-11-08T17:00:00	4	Temperatura máxima	19.7
112691	7	Sololá	704	Santa Lucía Utatlán 	7	Santa Rita 	8	Agosto	2023-08-21T00:00:00	2024-11-08T17:00:00	3	Temperatura mínima	19.3
112692	7	Sololá	704	Santa Lucía Utatlán 	7	Santa Rita 	8	Agosto	2023-08-21T00:00:00	2024-11-08T17:00:00	5	Humedad	92
112693	7	Sololá	704	Santa Lucía Utatlán 	7	Santa Rita 	8	Agosto	2023-08-21T00:00:00	2024-11-08T17:00:00	6	Velocidad del viento	1.6
112694	7	Sololá	704	Santa Lucía Utatlán 	7	Santa Rita 	8	Agosto	2023-08-21T00:00:00	2024-11-08T17:00:00	7	Dirección del viento	1.61
112695	7	Sololá	704	Santa Lucía Utatlán 	7	Santa Rita 	8	Agosto	2023-08-21T00:00:00	2024-11-08T17:00:00	1	Precipitación	0
112696	7	Sololá	704	Santa Lucía Utatlán 	7	Santa Rita 	8	Agosto	2023-08-21T00:00:00	2024-11-08T17:00:00	8	Radiación solar	10
112697	7	Sololá	704	Santa Lucía Utatlán 	7	Santa Rita 	8	Agosto	2023-08-21T00:00:00	2024-11-08T18:00:00	2	Temperatura media	19.3
112698	7	Sololá	704	Santa Lucía Utatlán 	7	Santa Rita 	8	Agosto	2023-08-21T00:00:00	2024-11-08T18:00:00	4	Temperatura máxima	19.7
112699	7	Sololá	704	Santa Lucía Utatlán 	7	Santa Rita 	8	Agosto	2023-08-21T00:00:00	2024-11-08T18:00:00	3	Temperatura mínima	19.3
112700	7	Sololá	704	Santa Lucía Utatlán 	7	Santa Rita 	8	Agosto	2023-08-21T00:00:00	2024-11-08T18:00:00	5	Humedad	92
112701	7	Sololá	704	Santa Lucía Utatlán 	7	Santa Rita 	8	Agosto	2023-08-21T00:00:00	2024-11-08T18:00:00	6	Velocidad del viento	1.6
112702	7	Sololá	704	Santa Lucía Utatlán 	7	Santa Rita 	8	Agosto	2023-08-21T00:00:00	2024-11-08T18:00:00	7	Dirección del viento	1.61
112703	7	Sololá	704	Santa Lucía Utatlán 	7	Santa Rita 	8	Agosto	2023-08-21T00:00:00	2024-11-08T18:00:00	1	Precipitación	0
112704	7	Sololá	704	Santa Lucía Utatlán 	7	Santa Rita 	8	Agosto	2023-08-21T00:00:00	2024-11-08T18:00:00	8	Radiación solar	0
112705	7	Sololá	704	Santa Lucía Utatlán 	7	Santa Rita 	8	Agosto	2023-08-21T00:00:00	2024-11-08T19:00:00	2	Temperatura media	18.6
112706	7	Sololá	704	Santa Lucía Utatlán 	7	Santa Rita 	8	Agosto	2023-08-21T00:00:00	2024-11-08T19:00:00	4	Temperatura máxima	20.1
112707	7	Sololá	704	Santa Lucía Utatlán 	7	Santa Rita 	8	Agosto	2023-08-21T00:00:00	2024-11-08T19:00:00	3	Temperatura mínima	18.5
112708	7	Sololá	704	Santa Lucía Utatlán 	7	Santa Rita 	8	Agosto	2023-08-21T00:00:00	2024-11-08T19:00:00	5	Humedad	93
112709	7	Sololá	704	Santa Lucía Utatlán 	7	Santa Rita 	8	Agosto	2023-08-21T00:00:00	2024-11-08T19:00:00	6	Velocidad del viento	3.2
112710	7	Sololá	704	Santa Lucía Utatlán 	7	Santa Rita 	8	Agosto	2023-08-21T00:00:00	2024-11-08T19:00:00	7	Dirección del viento	3.22
112711	7	Sololá	704	Santa Lucía Utatlán 	7	Santa Rita 	8	Agosto	2023-08-21T00:00:00	2024-11-08T19:00:00	1	Precipitación	0
112712	7	Sololá	704	Santa Lucía Utatlán 	7	Santa Rita 	8	Agosto	2023-08-21T00:00:00	2024-11-08T19:00:00	8	Radiación solar	0
112713	7	Sololá	704	Santa Lucía Utatlán 	7	Santa Rita 	8	Agosto	2023-08-21T00:00:00	2024-11-08T20:00:00	2	Temperatura media	18.3
112714	7	Sololá	704	Santa Lucía Utatlán 	7	Santa Rita 	8	Agosto	2023-08-21T00:00:00	2024-11-08T20:00:00	4	Temperatura máxima	18.6
112715	7	Sololá	704	Santa Lucía Utatlán 	7	Santa Rita 	8	Agosto	2023-08-21T00:00:00	2024-11-08T20:00:00	3	Temperatura mínima	18.3
112716	7	Sololá	704	Santa Lucía Utatlán 	7	Santa Rita 	8	Agosto	2023-08-21T00:00:00	2024-11-08T20:00:00	5	Humedad	92
112717	7	Sololá	704	Santa Lucía Utatlán 	7	Santa Rita 	8	Agosto	2023-08-21T00:00:00	2024-11-08T20:00:00	6	Velocidad del viento	3.2
112718	7	Sololá	704	Santa Lucía Utatlán 	7	Santa Rita 	8	Agosto	2023-08-21T00:00:00	2024-11-08T20:00:00	7	Dirección del viento	3.22
112719	7	Sololá	704	Santa Lucía Utatlán 	7	Santa Rita 	8	Agosto	2023-08-21T00:00:00	2024-11-08T20:00:00	1	Precipitación	0
112720	7	Sololá	704	Santa Lucía Utatlán 	7	Santa Rita 	8	Agosto	2023-08-21T00:00:00	2024-11-08T20:00:00	8	Radiación solar	0
112721	7	Sololá	704	Santa Lucía Utatlán 	7	Santa Rita 	8	Agosto	2023-08-21T00:00:00	2024-11-08T21:00:00	2	Temperatura media	18.2
112722	7	Sololá	704	Santa Lucía Utatlán 	7	Santa Rita 	8	Agosto	2023-08-21T00:00:00	2024-11-08T21:00:00	4	Temperatura máxima	18.8
112723	7	Sololá	704	Santa Lucía Utatlán 	7	Santa Rita 	8	Agosto	2023-08-21T00:00:00	2024-11-08T21:00:00	3	Temperatura mínima	18.1
112724	7	Sololá	704	Santa Lucía Utatlán 	7	Santa Rita 	8	Agosto	2023-08-21T00:00:00	2024-11-08T21:00:00	5	Humedad	91
112725	7	Sololá	704	Santa Lucía Utatlán 	7	Santa Rita 	8	Agosto	2023-08-21T00:00:00	2024-11-08T21:00:00	6	Velocidad del viento	3.2
112726	7	Sololá	704	Santa Lucía Utatlán 	7	Santa Rita 	8	Agosto	2023-08-21T00:00:00	2024-11-08T21:00:00	7	Dirección del viento	3.22
112727	7	Sololá	704	Santa Lucía Utatlán 	7	Santa Rita 	8	Agosto	2023-08-21T00:00:00	2024-11-08T21:00:00	1	Precipitación	0
112728	7	Sololá	704	Santa Lucía Utatlán 	7	Santa Rita 	8	Agosto	2023-08-21T00:00:00	2024-11-08T21:00:00	8	Radiación solar	0
112729	7	Sololá	704	Santa Lucía Utatlán 	7	Santa Rita 	8	Agosto	2023-08-21T00:00:00	2024-11-08T22:00:00	2	Temperatura media	18.8
112730	7	Sololá	704	Santa Lucía Utatlán 	7	Santa Rita 	8	Agosto	2023-08-21T00:00:00	2024-11-08T22:00:00	4	Temperatura máxima	18.8
112731	7	Sololá	704	Santa Lucía Utatlán 	7	Santa Rita 	8	Agosto	2023-08-21T00:00:00	2024-11-08T22:00:00	3	Temperatura mínima	17.7
112732	7	Sololá	704	Santa Lucía Utatlán 	7	Santa Rita 	8	Agosto	2023-08-21T00:00:00	2024-11-08T22:00:00	5	Humedad	81
112733	7	Sololá	704	Santa Lucía Utatlán 	7	Santa Rita 	8	Agosto	2023-08-21T00:00:00	2024-11-08T22:00:00	6	Velocidad del viento	3.2
112734	7	Sololá	704	Santa Lucía Utatlán 	7	Santa Rita 	8	Agosto	2023-08-21T00:00:00	2024-11-08T22:00:00	7	Dirección del viento	3.22
112735	7	Sololá	704	Santa Lucía Utatlán 	7	Santa Rita 	8	Agosto	2023-08-21T00:00:00	2024-11-08T22:00:00	1	Precipitación	0
112736	7	Sololá	704	Santa Lucía Utatlán 	7	Santa Rita 	8	Agosto	2023-08-21T00:00:00	2024-11-08T22:00:00	8	Radiación solar	0
112737	7	Sololá	704	Santa Lucía Utatlán 	7	Santa Rita 	8	Agosto	2023-08-21T00:00:00	2024-11-08T23:00:00	2	Temperatura media	18.8
112738	7	Sololá	704	Santa Lucía Utatlán 	7	Santa Rita 	8	Agosto	2023-08-21T00:00:00	2024-11-08T23:00:00	4	Temperatura máxima	18.9
112739	7	Sololá	704	Santa Lucía Utatlán 	7	Santa Rita 	8	Agosto	2023-08-21T00:00:00	2024-11-08T23:00:00	3	Temperatura mínima	17.5
112740	7	Sololá	704	Santa Lucía Utatlán 	7	Santa Rita 	8	Agosto	2023-08-21T00:00:00	2024-11-08T23:00:00	5	Humedad	74
112741	7	Sololá	704	Santa Lucía Utatlán 	7	Santa Rita 	8	Agosto	2023-08-21T00:00:00	2024-11-08T23:00:00	6	Velocidad del viento	3.2
112742	7	Sololá	704	Santa Lucía Utatlán 	7	Santa Rita 	8	Agosto	2023-08-21T00:00:00	2024-11-08T23:00:00	7	Dirección del viento	3.22
112743	7	Sololá	704	Santa Lucía Utatlán 	7	Santa Rita 	8	Agosto	2023-08-21T00:00:00	2024-11-08T23:00:00	1	Precipitación	0
112744	7	Sololá	704	Santa Lucía Utatlán 	7	Santa Rita 	8	Agosto	2023-08-21T00:00:00	2024-11-08T23:00:00	8	Radiación solar	0
112745	7	Sololá	704	Santa Lucía Utatlán 	7	Santa Rita 	8	Agosto	2023-08-22T00:00:00	2024-11-08T00:00:00	2	Temperatura media	17.3
112746	7	Sololá	704	Santa Lucía Utatlán 	7	Santa Rita 	8	Agosto	2023-08-22T00:00:00	2024-11-08T00:00:00	4	Temperatura máxima	19.4
112747	7	Sololá	704	Santa Lucía Utatlán 	7	Santa Rita 	8	Agosto	2023-08-22T00:00:00	2024-11-08T00:00:00	3	Temperatura mínima	17.3
112748	7	Sololá	704	Santa Lucía Utatlán 	7	Santa Rita 	8	Agosto	2023-08-22T00:00:00	2024-11-08T00:00:00	5	Humedad	87
112749	7	Sololá	704	Santa Lucía Utatlán 	7	Santa Rita 	8	Agosto	2023-08-22T00:00:00	2024-11-08T00:00:00	6	Velocidad del viento	4.8
112750	7	Sololá	704	Santa Lucía Utatlán 	7	Santa Rita 	8	Agosto	2023-08-22T00:00:00	2024-11-08T00:00:00	7	Dirección del viento	4.83
112751	7	Sololá	704	Santa Lucía Utatlán 	7	Santa Rita 	8	Agosto	2023-08-22T00:00:00	2024-11-08T00:00:00	1	Precipitación	0
112752	7	Sololá	704	Santa Lucía Utatlán 	7	Santa Rita 	8	Agosto	2023-08-22T00:00:00	2024-11-08T00:00:00	8	Radiación solar	0
112753	7	Sololá	704	Santa Lucía Utatlán 	7	Santa Rita 	8	Agosto	2023-08-22T00:00:00	2024-11-08T01:00:00	2	Temperatura media	16.5
112754	7	Sololá	704	Santa Lucía Utatlán 	7	Santa Rita 	8	Agosto	2023-08-22T00:00:00	2024-11-08T01:00:00	4	Temperatura máxima	17.3
112755	7	Sololá	704	Santa Lucía Utatlán 	7	Santa Rita 	8	Agosto	2023-08-22T00:00:00	2024-11-08T01:00:00	3	Temperatura mínima	16.4
112756	7	Sololá	704	Santa Lucía Utatlán 	7	Santa Rita 	8	Agosto	2023-08-22T00:00:00	2024-11-08T01:00:00	5	Humedad	86
112757	7	Sololá	704	Santa Lucía Utatlán 	7	Santa Rita 	8	Agosto	2023-08-22T00:00:00	2024-11-08T01:00:00	6	Velocidad del viento	3.2
112758	7	Sololá	704	Santa Lucía Utatlán 	7	Santa Rita 	8	Agosto	2023-08-22T00:00:00	2024-11-08T01:00:00	7	Dirección del viento	3.22
112759	7	Sololá	704	Santa Lucía Utatlán 	7	Santa Rita 	8	Agosto	2023-08-22T00:00:00	2024-11-08T01:00:00	1	Precipitación	0
112760	7	Sololá	704	Santa Lucía Utatlán 	7	Santa Rita 	8	Agosto	2023-08-22T00:00:00	2024-11-08T01:00:00	8	Radiación solar	0
112761	7	Sololá	704	Santa Lucía Utatlán 	7	Santa Rita 	8	Agosto	2023-08-22T00:00:00	2024-11-08T02:00:00	2	Temperatura media	16.9
112762	7	Sololá	704	Santa Lucía Utatlán 	7	Santa Rita 	8	Agosto	2023-08-22T00:00:00	2024-11-08T02:00:00	4	Temperatura máxima	17.1
112763	7	Sololá	704	Santa Lucía Utatlán 	7	Santa Rita 	8	Agosto	2023-08-22T00:00:00	2024-11-08T02:00:00	3	Temperatura mínima	16.5
112764	7	Sololá	704	Santa Lucía Utatlán 	7	Santa Rita 	8	Agosto	2023-08-22T00:00:00	2024-11-08T02:00:00	5	Humedad	83
112765	7	Sololá	704	Santa Lucía Utatlán 	7	Santa Rita 	8	Agosto	2023-08-22T00:00:00	2024-11-08T02:00:00	6	Velocidad del viento	6.4
112766	7	Sololá	704	Santa Lucía Utatlán 	7	Santa Rita 	8	Agosto	2023-08-22T00:00:00	2024-11-08T02:00:00	7	Dirección del viento	6.44
112767	7	Sololá	704	Santa Lucía Utatlán 	7	Santa Rita 	8	Agosto	2023-08-22T00:00:00	2024-11-08T02:00:00	1	Precipitación	0
112768	7	Sololá	704	Santa Lucía Utatlán 	7	Santa Rita 	8	Agosto	2023-08-22T00:00:00	2024-11-08T02:00:00	8	Radiación solar	0
112769	7	Sololá	704	Santa Lucía Utatlán 	7	Santa Rita 	8	Agosto	2023-08-22T00:00:00	2024-11-08T03:00:00	2	Temperatura media	18.9
112770	7	Sololá	704	Santa Lucía Utatlán 	7	Santa Rita 	8	Agosto	2023-08-22T00:00:00	2024-11-08T03:00:00	4	Temperatura máxima	18.9
112771	7	Sololá	704	Santa Lucía Utatlán 	7	Santa Rita 	8	Agosto	2023-08-22T00:00:00	2024-11-08T03:00:00	3	Temperatura mínima	16.9
112772	7	Sololá	704	Santa Lucía Utatlán 	7	Santa Rita 	8	Agosto	2023-08-22T00:00:00	2024-11-08T03:00:00	5	Humedad	81
112773	7	Sololá	704	Santa Lucía Utatlán 	7	Santa Rita 	8	Agosto	2023-08-22T00:00:00	2024-11-08T03:00:00	6	Velocidad del viento	3.2
112774	7	Sololá	704	Santa Lucía Utatlán 	7	Santa Rita 	8	Agosto	2023-08-22T00:00:00	2024-11-08T03:00:00	7	Dirección del viento	3.22
112775	7	Sololá	704	Santa Lucía Utatlán 	7	Santa Rita 	8	Agosto	2023-08-22T00:00:00	2024-11-08T03:00:00	1	Precipitación	0
112776	7	Sololá	704	Santa Lucía Utatlán 	7	Santa Rita 	8	Agosto	2023-08-22T00:00:00	2024-11-08T03:00:00	8	Radiación solar	0
112777	7	Sololá	704	Santa Lucía Utatlán 	7	Santa Rita 	8	Agosto	2023-08-22T00:00:00	2024-11-08T04:00:00	2	Temperatura media	22.1
112778	7	Sololá	704	Santa Lucía Utatlán 	7	Santa Rita 	8	Agosto	2023-08-22T00:00:00	2024-11-08T04:00:00	4	Temperatura máxima	22.1
112779	7	Sololá	704	Santa Lucía Utatlán 	7	Santa Rita 	8	Agosto	2023-08-22T00:00:00	2024-11-08T04:00:00	3	Temperatura mínima	18.8
112780	7	Sololá	704	Santa Lucía Utatlán 	7	Santa Rita 	8	Agosto	2023-08-22T00:00:00	2024-11-08T04:00:00	5	Humedad	74
112781	7	Sololá	704	Santa Lucía Utatlán 	7	Santa Rita 	8	Agosto	2023-08-22T00:00:00	2024-11-08T04:00:00	6	Velocidad del viento	1.6
112782	7	Sololá	704	Santa Lucía Utatlán 	7	Santa Rita 	8	Agosto	2023-08-22T00:00:00	2024-11-08T04:00:00	7	Dirección del viento	1.61
112783	7	Sololá	704	Santa Lucía Utatlán 	7	Santa Rita 	8	Agosto	2023-08-22T00:00:00	2024-11-08T04:00:00	1	Precipitación	0
112784	7	Sololá	704	Santa Lucía Utatlán 	7	Santa Rita 	8	Agosto	2023-08-22T00:00:00	2024-11-08T04:00:00	8	Radiación solar	0
112785	7	Sololá	704	Santa Lucía Utatlán 	7	Santa Rita 	8	Agosto	2023-08-22T00:00:00	2024-11-08T05:00:00	2	Temperatura media	24.9
112786	7	Sololá	704	Santa Lucía Utatlán 	7	Santa Rita 	8	Agosto	2023-08-22T00:00:00	2024-11-08T05:00:00	4	Temperatura máxima	25.1
112787	7	Sololá	704	Santa Lucía Utatlán 	7	Santa Rita 	8	Agosto	2023-08-22T00:00:00	2024-11-08T05:00:00	3	Temperatura mínima	22.1
112788	7	Sololá	704	Santa Lucía Utatlán 	7	Santa Rita 	8	Agosto	2023-08-22T00:00:00	2024-11-08T05:00:00	5	Humedad	68
112789	7	Sololá	704	Santa Lucía Utatlán 	7	Santa Rita 	8	Agosto	2023-08-22T00:00:00	2024-11-08T05:00:00	6	Velocidad del viento	3.2
112790	7	Sololá	704	Santa Lucía Utatlán 	7	Santa Rita 	8	Agosto	2023-08-22T00:00:00	2024-11-08T05:00:00	7	Dirección del viento	3.22
112791	7	Sololá	704	Santa Lucía Utatlán 	7	Santa Rita 	8	Agosto	2023-08-22T00:00:00	2024-11-08T05:00:00	1	Precipitación	0
112792	7	Sololá	704	Santa Lucía Utatlán 	7	Santa Rita 	8	Agosto	2023-08-22T00:00:00	2024-11-08T05:00:00	8	Radiación solar	0
112793	7	Sololá	704	Santa Lucía Utatlán 	7	Santa Rita 	8	Agosto	2023-08-22T00:00:00	2024-11-08T06:00:00	2	Temperatura media	24.9
112794	7	Sololá	704	Santa Lucía Utatlán 	7	Santa Rita 	8	Agosto	2023-08-22T00:00:00	2024-11-08T06:00:00	4	Temperatura máxima	25
112795	7	Sololá	704	Santa Lucía Utatlán 	7	Santa Rita 	8	Agosto	2023-08-22T00:00:00	2024-11-08T06:00:00	3	Temperatura mínima	24.4
112796	7	Sololá	704	Santa Lucía Utatlán 	7	Santa Rita 	8	Agosto	2023-08-22T00:00:00	2024-11-08T06:00:00	5	Humedad	49
112797	7	Sololá	704	Santa Lucía Utatlán 	7	Santa Rita 	8	Agosto	2023-08-22T00:00:00	2024-11-08T06:00:00	6	Velocidad del viento	14.5
112798	7	Sololá	704	Santa Lucía Utatlán 	7	Santa Rita 	8	Agosto	2023-08-22T00:00:00	2024-11-08T06:00:00	7	Dirección del viento	14.48
112799	7	Sololá	704	Santa Lucía Utatlán 	7	Santa Rita 	8	Agosto	2023-08-22T00:00:00	2024-11-08T06:00:00	1	Precipitación	0
112800	7	Sololá	704	Santa Lucía Utatlán 	7	Santa Rita 	8	Agosto	2023-08-22T00:00:00	2024-11-08T06:00:00	8	Radiación solar	2
112801	7	Sololá	704	Santa Lucía Utatlán 	7	Santa Rita 	8	Agosto	2023-08-22T00:00:00	2024-11-08T07:00:00	2	Temperatura media	25.1
112802	7	Sololá	704	Santa Lucía Utatlán 	7	Santa Rita 	8	Agosto	2023-08-22T00:00:00	2024-11-08T07:00:00	4	Temperatura máxima	25.4
112803	7	Sololá	704	Santa Lucía Utatlán 	7	Santa Rita 	8	Agosto	2023-08-22T00:00:00	2024-11-08T07:00:00	3	Temperatura mínima	24.9
112804	7	Sololá	704	Santa Lucía Utatlán 	7	Santa Rita 	8	Agosto	2023-08-22T00:00:00	2024-11-08T07:00:00	5	Humedad	54
112805	7	Sololá	704	Santa Lucía Utatlán 	7	Santa Rita 	8	Agosto	2023-08-22T00:00:00	2024-11-08T07:00:00	6	Velocidad del viento	12.9
112806	7	Sololá	704	Santa Lucía Utatlán 	7	Santa Rita 	8	Agosto	2023-08-22T00:00:00	2024-11-08T07:00:00	7	Dirección del viento	12.87
112807	7	Sololá	704	Santa Lucía Utatlán 	7	Santa Rita 	8	Agosto	2023-08-22T00:00:00	2024-11-08T07:00:00	1	Precipitación	0
112808	7	Sololá	704	Santa Lucía Utatlán 	7	Santa Rita 	8	Agosto	2023-08-22T00:00:00	2024-11-08T07:00:00	8	Radiación solar	106
112809	7	Sololá	704	Santa Lucía Utatlán 	7	Santa Rita 	8	Agosto	2023-08-22T00:00:00	2024-11-08T08:00:00	2	Temperatura media	25.4
112810	7	Sololá	704	Santa Lucía Utatlán 	7	Santa Rita 	8	Agosto	2023-08-22T00:00:00	2024-11-08T08:00:00	4	Temperatura máxima	25.4
112811	7	Sololá	704	Santa Lucía Utatlán 	7	Santa Rita 	8	Agosto	2023-08-22T00:00:00	2024-11-08T08:00:00	3	Temperatura mínima	25.1
112812	7	Sololá	704	Santa Lucía Utatlán 	7	Santa Rita 	8	Agosto	2023-08-22T00:00:00	2024-11-08T08:00:00	5	Humedad	56
112813	7	Sololá	704	Santa Lucía Utatlán 	7	Santa Rita 	8	Agosto	2023-08-22T00:00:00	2024-11-08T08:00:00	6	Velocidad del viento	11.3
112814	7	Sololá	704	Santa Lucía Utatlán 	7	Santa Rita 	8	Agosto	2023-08-22T00:00:00	2024-11-08T08:00:00	7	Dirección del viento	11.27
112815	7	Sololá	704	Santa Lucía Utatlán 	7	Santa Rita 	8	Agosto	2023-08-22T00:00:00	2024-11-08T08:00:00	1	Precipitación	0
112816	7	Sololá	704	Santa Lucía Utatlán 	7	Santa Rita 	8	Agosto	2023-08-22T00:00:00	2024-11-08T08:00:00	8	Radiación solar	381
112817	7	Sololá	704	Santa Lucía Utatlán 	7	Santa Rita 	8	Agosto	2023-08-22T00:00:00	2024-11-08T09:00:00	2	Temperatura media	25.3
112818	7	Sololá	704	Santa Lucía Utatlán 	7	Santa Rita 	8	Agosto	2023-08-22T00:00:00	2024-11-08T09:00:00	4	Temperatura máxima	25.5
112819	7	Sololá	704	Santa Lucía Utatlán 	7	Santa Rita 	8	Agosto	2023-08-22T00:00:00	2024-11-08T09:00:00	3	Temperatura mínima	24.8
112820	7	Sololá	704	Santa Lucía Utatlán 	7	Santa Rita 	8	Agosto	2023-08-22T00:00:00	2024-11-08T09:00:00	5	Humedad	56
112821	7	Sololá	704	Santa Lucía Utatlán 	7	Santa Rita 	8	Agosto	2023-08-22T00:00:00	2024-11-08T09:00:00	6	Velocidad del viento	11.3
112822	7	Sololá	704	Santa Lucía Utatlán 	7	Santa Rita 	8	Agosto	2023-08-22T00:00:00	2024-11-08T09:00:00	7	Dirección del viento	11.27
112823	7	Sololá	704	Santa Lucía Utatlán 	7	Santa Rita 	8	Agosto	2023-08-22T00:00:00	2024-11-08T09:00:00	1	Precipitación	0
112824	7	Sololá	704	Santa Lucía Utatlán 	7	Santa Rita 	8	Agosto	2023-08-22T00:00:00	2024-11-08T09:00:00	8	Radiación solar	651
112825	7	Sololá	704	Santa Lucía Utatlán 	7	Santa Rita 	8	Agosto	2023-08-22T00:00:00	2024-11-08T10:00:00	2	Temperatura media	25.6
112826	7	Sololá	704	Santa Lucía Utatlán 	7	Santa Rita 	8	Agosto	2023-08-22T00:00:00	2024-11-08T10:00:00	4	Temperatura máxima	25.6
112827	7	Sololá	704	Santa Lucía Utatlán 	7	Santa Rita 	8	Agosto	2023-08-22T00:00:00	2024-11-08T10:00:00	3	Temperatura mínima	24.2
112828	7	Sololá	704	Santa Lucía Utatlán 	7	Santa Rita 	8	Agosto	2023-08-22T00:00:00	2024-11-08T10:00:00	5	Humedad	56
112829	7	Sololá	704	Santa Lucía Utatlán 	7	Santa Rita 	8	Agosto	2023-08-22T00:00:00	2024-11-08T10:00:00	6	Velocidad del viento	9.7
112830	7	Sololá	704	Santa Lucía Utatlán 	7	Santa Rita 	8	Agosto	2023-08-22T00:00:00	2024-11-08T10:00:00	7	Dirección del viento	9.66
112831	7	Sololá	704	Santa Lucía Utatlán 	7	Santa Rita 	8	Agosto	2023-08-22T00:00:00	2024-11-08T10:00:00	1	Precipitación	0
112832	7	Sololá	704	Santa Lucía Utatlán 	7	Santa Rita 	8	Agosto	2023-08-22T00:00:00	2024-11-08T10:00:00	8	Radiación solar	824
112833	7	Sololá	704	Santa Lucía Utatlán 	7	Santa Rita 	8	Agosto	2023-08-22T00:00:00	2024-11-08T11:00:00	2	Temperatura media	24.6
112834	7	Sololá	704	Santa Lucía Utatlán 	7	Santa Rita 	8	Agosto	2023-08-22T00:00:00	2024-11-08T11:00:00	4	Temperatura máxima	25.9
112835	7	Sololá	704	Santa Lucía Utatlán 	7	Santa Rita 	8	Agosto	2023-08-22T00:00:00	2024-11-08T11:00:00	3	Temperatura mínima	24.5
112836	7	Sololá	704	Santa Lucía Utatlán 	7	Santa Rita 	8	Agosto	2023-08-22T00:00:00	2024-11-08T11:00:00	5	Humedad	55
112837	7	Sololá	704	Santa Lucía Utatlán 	7	Santa Rita 	8	Agosto	2023-08-22T00:00:00	2024-11-08T11:00:00	6	Velocidad del viento	8
112838	7	Sololá	704	Santa Lucía Utatlán 	7	Santa Rita 	8	Agosto	2023-08-22T00:00:00	2024-11-08T11:00:00	7	Dirección del viento	8.05
112839	7	Sololá	704	Santa Lucía Utatlán 	7	Santa Rita 	8	Agosto	2023-08-22T00:00:00	2024-11-08T11:00:00	1	Precipitación	0
112840	7	Sololá	704	Santa Lucía Utatlán 	7	Santa Rita 	8	Agosto	2023-08-22T00:00:00	2024-11-08T11:00:00	8	Radiación solar	966
112841	7	Sololá	704	Santa Lucía Utatlán 	7	Santa Rita 	8	Agosto	2023-08-22T00:00:00	2024-11-08T12:00:00	2	Temperatura media	24.1
112842	7	Sololá	704	Santa Lucía Utatlán 	7	Santa Rita 	8	Agosto	2023-08-22T00:00:00	2024-11-08T12:00:00	4	Temperatura máxima	24.8
112843	7	Sololá	704	Santa Lucía Utatlán 	7	Santa Rita 	8	Agosto	2023-08-22T00:00:00	2024-11-08T12:00:00	3	Temperatura mínima	23.9
112844	7	Sololá	704	Santa Lucía Utatlán 	7	Santa Rita 	8	Agosto	2023-08-22T00:00:00	2024-11-08T12:00:00	5	Humedad	65
112845	7	Sololá	704	Santa Lucía Utatlán 	7	Santa Rita 	8	Agosto	2023-08-22T00:00:00	2024-11-08T12:00:00	6	Velocidad del viento	9.7
112846	7	Sololá	704	Santa Lucía Utatlán 	7	Santa Rita 	8	Agosto	2023-08-22T00:00:00	2024-11-08T12:00:00	7	Dirección del viento	9.66
112847	7	Sololá	704	Santa Lucía Utatlán 	7	Santa Rita 	8	Agosto	2023-08-22T00:00:00	2024-11-08T12:00:00	1	Precipitación	0
112848	7	Sololá	704	Santa Lucía Utatlán 	7	Santa Rita 	8	Agosto	2023-08-22T00:00:00	2024-11-08T12:00:00	8	Radiación solar	1027
112849	7	Sololá	704	Santa Lucía Utatlán 	7	Santa Rita 	8	Agosto	2023-08-22T00:00:00	2024-11-08T13:00:00	2	Temperatura media	22.7
112850	7	Sololá	704	Santa Lucía Utatlán 	7	Santa Rita 	8	Agosto	2023-08-22T00:00:00	2024-11-08T13:00:00	4	Temperatura máxima	24.5
112851	7	Sololá	704	Santa Lucía Utatlán 	7	Santa Rita 	8	Agosto	2023-08-22T00:00:00	2024-11-08T13:00:00	3	Temperatura mínima	22.7
112852	7	Sololá	704	Santa Lucía Utatlán 	7	Santa Rita 	8	Agosto	2023-08-22T00:00:00	2024-11-08T13:00:00	5	Humedad	80
112853	7	Sololá	704	Santa Lucía Utatlán 	7	Santa Rita 	8	Agosto	2023-08-22T00:00:00	2024-11-08T13:00:00	6	Velocidad del viento	6.4
112854	7	Sololá	704	Santa Lucía Utatlán 	7	Santa Rita 	8	Agosto	2023-08-22T00:00:00	2024-11-08T13:00:00	7	Dirección del viento	6.44
112855	7	Sololá	704	Santa Lucía Utatlán 	7	Santa Rita 	8	Agosto	2023-08-22T00:00:00	2024-11-08T13:00:00	1	Precipitación	0
112856	7	Sololá	704	Santa Lucía Utatlán 	7	Santa Rita 	8	Agosto	2023-08-22T00:00:00	2024-11-08T13:00:00	8	Radiación solar	1022
112857	7	Sololá	704	Santa Lucía Utatlán 	7	Santa Rita 	8	Agosto	2023-08-22T00:00:00	2024-11-08T14:00:00	2	Temperatura media	21.1
112858	7	Sololá	704	Santa Lucía Utatlán 	7	Santa Rita 	8	Agosto	2023-08-22T00:00:00	2024-11-08T14:00:00	4	Temperatura máxima	22.8
112859	7	Sololá	704	Santa Lucía Utatlán 	7	Santa Rita 	8	Agosto	2023-08-22T00:00:00	2024-11-08T14:00:00	3	Temperatura mínima	21.1
112860	7	Sololá	704	Santa Lucía Utatlán 	7	Santa Rita 	8	Agosto	2023-08-22T00:00:00	2024-11-08T14:00:00	5	Humedad	87
112861	7	Sololá	704	Santa Lucía Utatlán 	7	Santa Rita 	8	Agosto	2023-08-22T00:00:00	2024-11-08T14:00:00	6	Velocidad del viento	4.8
112862	7	Sololá	704	Santa Lucía Utatlán 	7	Santa Rita 	8	Agosto	2023-08-22T00:00:00	2024-11-08T14:00:00	7	Dirección del viento	4.83
112863	7	Sololá	704	Santa Lucía Utatlán 	7	Santa Rita 	8	Agosto	2023-08-22T00:00:00	2024-11-08T14:00:00	1	Precipitación	0
112864	7	Sololá	704	Santa Lucía Utatlán 	7	Santa Rita 	8	Agosto	2023-08-22T00:00:00	2024-11-08T14:00:00	8	Radiación solar	629
112865	7	Sololá	704	Santa Lucía Utatlán 	7	Santa Rita 	8	Agosto	2023-08-22T00:00:00	2024-11-08T15:00:00	2	Temperatura media	20.9
112866	7	Sololá	704	Santa Lucía Utatlán 	7	Santa Rita 	8	Agosto	2023-08-22T00:00:00	2024-11-08T15:00:00	4	Temperatura máxima	21.1
112867	7	Sololá	704	Santa Lucía Utatlán 	7	Santa Rita 	8	Agosto	2023-08-22T00:00:00	2024-11-08T15:00:00	3	Temperatura mínima	20.9
112868	7	Sololá	704	Santa Lucía Utatlán 	7	Santa Rita 	8	Agosto	2023-08-22T00:00:00	2024-11-08T15:00:00	5	Humedad	89
112869	7	Sololá	704	Santa Lucía Utatlán 	7	Santa Rita 	8	Agosto	2023-08-22T00:00:00	2024-11-08T15:00:00	6	Velocidad del viento	1.6
112870	7	Sololá	704	Santa Lucía Utatlán 	7	Santa Rita 	8	Agosto	2023-08-22T00:00:00	2024-11-08T15:00:00	7	Dirección del viento	1.61
112871	7	Sololá	704	Santa Lucía Utatlán 	7	Santa Rita 	8	Agosto	2023-08-22T00:00:00	2024-11-08T15:00:00	1	Precipitación	0
112872	7	Sololá	704	Santa Lucía Utatlán 	7	Santa Rita 	8	Agosto	2023-08-22T00:00:00	2024-11-08T15:00:00	8	Radiación solar	473
112873	7	Sololá	704	Santa Lucía Utatlán 	7	Santa Rita 	8	Agosto	2023-08-22T00:00:00	2024-11-08T16:00:00	2	Temperatura media	20.8
112874	7	Sololá	704	Santa Lucía Utatlán 	7	Santa Rita 	8	Agosto	2023-08-22T00:00:00	2024-11-08T16:00:00	4	Temperatura máxima	20.9
112875	7	Sololá	704	Santa Lucía Utatlán 	7	Santa Rita 	8	Agosto	2023-08-22T00:00:00	2024-11-08T16:00:00	3	Temperatura mínima	20.6
112876	7	Sololá	704	Santa Lucía Utatlán 	7	Santa Rita 	8	Agosto	2023-08-22T00:00:00	2024-11-08T16:00:00	5	Humedad	81
112877	7	Sololá	704	Santa Lucía Utatlán 	7	Santa Rita 	8	Agosto	2023-08-22T00:00:00	2024-11-08T16:00:00	6	Velocidad del viento	4.8
112878	7	Sololá	704	Santa Lucía Utatlán 	7	Santa Rita 	8	Agosto	2023-08-22T00:00:00	2024-11-08T16:00:00	7	Dirección del viento	4.83
112879	7	Sololá	704	Santa Lucía Utatlán 	7	Santa Rita 	8	Agosto	2023-08-22T00:00:00	2024-11-08T16:00:00	1	Precipitación	0
112880	7	Sololá	704	Santa Lucía Utatlán 	7	Santa Rita 	8	Agosto	2023-08-22T00:00:00	2024-11-08T16:00:00	8	Radiación solar	308
112881	7	Sololá	704	Santa Lucía Utatlán 	7	Santa Rita 	8	Agosto	2023-08-22T00:00:00	2024-11-08T17:00:00	2	Temperatura media	20.4
112882	7	Sololá	704	Santa Lucía Utatlán 	7	Santa Rita 	8	Agosto	2023-08-22T00:00:00	2024-11-08T17:00:00	4	Temperatura máxima	20.9
112883	7	Sololá	704	Santa Lucía Utatlán 	7	Santa Rita 	8	Agosto	2023-08-22T00:00:00	2024-11-08T17:00:00	3	Temperatura mínima	20.4
112884	7	Sololá	704	Santa Lucía Utatlán 	7	Santa Rita 	8	Agosto	2023-08-22T00:00:00	2024-11-08T17:00:00	5	Humedad	79
112885	7	Sololá	704	Santa Lucía Utatlán 	7	Santa Rita 	8	Agosto	2023-08-22T00:00:00	2024-11-08T17:00:00	6	Velocidad del viento	3.2
112886	7	Sololá	704	Santa Lucía Utatlán 	7	Santa Rita 	8	Agosto	2023-08-22T00:00:00	2024-11-08T17:00:00	7	Dirección del viento	3.22
112887	7	Sololá	704	Santa Lucía Utatlán 	7	Santa Rita 	8	Agosto	2023-08-22T00:00:00	2024-11-08T17:00:00	1	Precipitación	0
112888	7	Sololá	704	Santa Lucía Utatlán 	7	Santa Rita 	8	Agosto	2023-08-22T00:00:00	2024-11-08T17:00:00	8	Radiación solar	223
112889	7	Sololá	704	Santa Lucía Utatlán 	7	Santa Rita 	8	Agosto	2023-08-22T00:00:00	2024-11-08T18:00:00	2	Temperatura media	19.5
112890	7	Sololá	704	Santa Lucía Utatlán 	7	Santa Rita 	8	Agosto	2023-08-22T00:00:00	2024-11-08T18:00:00	4	Temperatura máxima	20.4
112891	7	Sololá	704	Santa Lucía Utatlán 	7	Santa Rita 	8	Agosto	2023-08-22T00:00:00	2024-11-08T18:00:00	3	Temperatura mínima	19.1
112892	7	Sololá	704	Santa Lucía Utatlán 	7	Santa Rita 	8	Agosto	2023-08-22T00:00:00	2024-11-08T18:00:00	5	Humedad	76
112893	7	Sololá	704	Santa Lucía Utatlán 	7	Santa Rita 	8	Agosto	2023-08-22T00:00:00	2024-11-08T18:00:00	6	Velocidad del viento	6.4
112894	7	Sololá	704	Santa Lucía Utatlán 	7	Santa Rita 	8	Agosto	2023-08-22T00:00:00	2024-11-08T18:00:00	7	Dirección del viento	6.44
112895	7	Sololá	704	Santa Lucía Utatlán 	7	Santa Rita 	8	Agosto	2023-08-22T00:00:00	2024-11-08T18:00:00	1	Precipitación	0
112896	7	Sololá	704	Santa Lucía Utatlán 	7	Santa Rita 	8	Agosto	2023-08-22T00:00:00	2024-11-08T18:00:00	8	Radiación solar	39
112897	7	Sololá	704	Santa Lucía Utatlán 	7	Santa Rita 	8	Agosto	2023-08-22T00:00:00	2024-11-08T19:00:00	2	Temperatura media	17.8
112898	7	Sololá	704	Santa Lucía Utatlán 	7	Santa Rita 	8	Agosto	2023-08-22T00:00:00	2024-11-08T19:00:00	4	Temperatura máxima	19.7
112899	7	Sololá	704	Santa Lucía Utatlán 	7	Santa Rita 	8	Agosto	2023-08-22T00:00:00	2024-11-08T19:00:00	3	Temperatura mínima	17.8
112900	7	Sololá	704	Santa Lucía Utatlán 	7	Santa Rita 	8	Agosto	2023-08-22T00:00:00	2024-11-08T19:00:00	5	Humedad	84
112901	7	Sololá	704	Santa Lucía Utatlán 	7	Santa Rita 	8	Agosto	2023-08-22T00:00:00	2024-11-08T19:00:00	6	Velocidad del viento	4.8
112902	7	Sololá	704	Santa Lucía Utatlán 	7	Santa Rita 	8	Agosto	2023-08-22T00:00:00	2024-11-08T19:00:00	7	Dirección del viento	4.83
112903	7	Sololá	704	Santa Lucía Utatlán 	7	Santa Rita 	8	Agosto	2023-08-22T00:00:00	2024-11-08T19:00:00	1	Precipitación	0
112904	7	Sololá	704	Santa Lucía Utatlán 	7	Santa Rita 	8	Agosto	2023-08-22T00:00:00	2024-11-08T19:00:00	8	Radiación solar	0
112905	7	Sololá	704	Santa Lucía Utatlán 	7	Santa Rita 	8	Agosto	2023-08-22T00:00:00	2024-11-08T20:00:00	2	Temperatura media	16.7
112906	7	Sololá	704	Santa Lucía Utatlán 	7	Santa Rita 	8	Agosto	2023-08-22T00:00:00	2024-11-08T20:00:00	4	Temperatura máxima	17.8
112907	7	Sololá	704	Santa Lucía Utatlán 	7	Santa Rita 	8	Agosto	2023-08-22T00:00:00	2024-11-08T20:00:00	3	Temperatura mínima	16.6
112908	7	Sololá	704	Santa Lucía Utatlán 	7	Santa Rita 	8	Agosto	2023-08-22T00:00:00	2024-11-08T20:00:00	5	Humedad	87
112909	7	Sololá	704	Santa Lucía Utatlán 	7	Santa Rita 	8	Agosto	2023-08-22T00:00:00	2024-11-08T20:00:00	6	Velocidad del viento	3.2
112910	7	Sololá	704	Santa Lucía Utatlán 	7	Santa Rita 	8	Agosto	2023-08-22T00:00:00	2024-11-08T20:00:00	7	Dirección del viento	3.22
112911	7	Sololá	704	Santa Lucía Utatlán 	7	Santa Rita 	8	Agosto	2023-08-22T00:00:00	2024-11-08T20:00:00	1	Precipitación	0
112912	7	Sololá	704	Santa Lucía Utatlán 	7	Santa Rita 	8	Agosto	2023-08-22T00:00:00	2024-11-08T20:00:00	8	Radiación solar	0
112913	7	Sololá	704	Santa Lucía Utatlán 	7	Santa Rita 	8	Agosto	2023-08-22T00:00:00	2024-11-08T21:00:00	2	Temperatura media	19.1
112914	7	Sololá	704	Santa Lucía Utatlán 	7	Santa Rita 	8	Agosto	2023-08-22T00:00:00	2024-11-08T21:00:00	4	Temperatura máxima	19.6
112915	7	Sololá	704	Santa Lucía Utatlán 	7	Santa Rita 	8	Agosto	2023-08-22T00:00:00	2024-11-08T21:00:00	3	Temperatura mínima	16.7
112916	7	Sololá	704	Santa Lucía Utatlán 	7	Santa Rita 	8	Agosto	2023-08-22T00:00:00	2024-11-08T21:00:00	5	Humedad	74
112917	7	Sololá	704	Santa Lucía Utatlán 	7	Santa Rita 	8	Agosto	2023-08-22T00:00:00	2024-11-08T21:00:00	6	Velocidad del viento	4.8
112918	7	Sololá	704	Santa Lucía Utatlán 	7	Santa Rita 	8	Agosto	2023-08-22T00:00:00	2024-11-08T21:00:00	7	Dirección del viento	4.83
112919	7	Sololá	704	Santa Lucía Utatlán 	7	Santa Rita 	8	Agosto	2023-08-22T00:00:00	2024-11-08T21:00:00	1	Precipitación	0
112920	7	Sololá	704	Santa Lucía Utatlán 	7	Santa Rita 	8	Agosto	2023-08-22T00:00:00	2024-11-08T21:00:00	8	Radiación solar	0
112921	7	Sololá	704	Santa Lucía Utatlán 	7	Santa Rita 	8	Agosto	2023-08-22T00:00:00	2024-11-08T22:00:00	2	Temperatura media	16.8
112922	7	Sololá	704	Santa Lucía Utatlán 	7	Santa Rita 	8	Agosto	2023-08-22T00:00:00	2024-11-08T22:00:00	4	Temperatura máxima	19.1
112923	7	Sololá	704	Santa Lucía Utatlán 	7	Santa Rita 	8	Agosto	2023-08-22T00:00:00	2024-11-08T22:00:00	3	Temperatura mínima	16.8
112924	7	Sololá	704	Santa Lucía Utatlán 	7	Santa Rita 	8	Agosto	2023-08-22T00:00:00	2024-11-08T22:00:00	5	Humedad	83
112925	7	Sololá	704	Santa Lucía Utatlán 	7	Santa Rita 	8	Agosto	2023-08-22T00:00:00	2024-11-08T22:00:00	6	Velocidad del viento	3.2
112926	7	Sololá	704	Santa Lucía Utatlán 	7	Santa Rita 	8	Agosto	2023-08-22T00:00:00	2024-11-08T22:00:00	7	Dirección del viento	3.22
112927	7	Sololá	704	Santa Lucía Utatlán 	7	Santa Rita 	8	Agosto	2023-08-22T00:00:00	2024-11-08T22:00:00	1	Precipitación	0
112928	7	Sololá	704	Santa Lucía Utatlán 	7	Santa Rita 	8	Agosto	2023-08-22T00:00:00	2024-11-08T22:00:00	8	Radiación solar	0
112929	7	Sololá	704	Santa Lucía Utatlán 	7	Santa Rita 	8	Agosto	2023-08-22T00:00:00	2024-11-08T23:00:00	2	Temperatura media	17.4
112930	7	Sololá	704	Santa Lucía Utatlán 	7	Santa Rita 	8	Agosto	2023-08-22T00:00:00	2024-11-08T23:00:00	4	Temperatura máxima	17.6
112931	7	Sololá	704	Santa Lucía Utatlán 	7	Santa Rita 	8	Agosto	2023-08-22T00:00:00	2024-11-08T23:00:00	3	Temperatura mínima	16.2
112932	7	Sololá	704	Santa Lucía Utatlán 	7	Santa Rita 	8	Agosto	2023-08-22T00:00:00	2024-11-08T23:00:00	5	Humedad	78
112933	7	Sololá	704	Santa Lucía Utatlán 	7	Santa Rita 	8	Agosto	2023-08-22T00:00:00	2024-11-08T23:00:00	6	Velocidad del viento	4.8
112934	7	Sololá	704	Santa Lucía Utatlán 	7	Santa Rita 	8	Agosto	2023-08-22T00:00:00	2024-11-08T23:00:00	7	Dirección del viento	4.83
112935	7	Sololá	704	Santa Lucía Utatlán 	7	Santa Rita 	8	Agosto	2023-08-22T00:00:00	2024-11-08T23:00:00	1	Precipitación	0
112936	7	Sololá	704	Santa Lucía Utatlán 	7	Santa Rita 	8	Agosto	2023-08-22T00:00:00	2024-11-08T23:00:00	8	Radiación solar	0
112937	7	Sololá	704	Santa Lucía Utatlán 	7	Santa Rita 	8	Agosto	2023-08-23T00:00:00	2024-11-08T00:00:00	2	Temperatura media	16
112938	7	Sololá	704	Santa Lucía Utatlán 	7	Santa Rita 	8	Agosto	2023-08-23T00:00:00	2024-11-08T00:00:00	4	Temperatura máxima	17.4
112939	7	Sololá	704	Santa Lucía Utatlán 	7	Santa Rita 	8	Agosto	2023-08-23T00:00:00	2024-11-08T00:00:00	3	Temperatura mínima	15.7
112940	7	Sololá	704	Santa Lucía Utatlán 	7	Santa Rita 	8	Agosto	2023-08-23T00:00:00	2024-11-08T00:00:00	5	Humedad	74
112941	7	Sololá	704	Santa Lucía Utatlán 	7	Santa Rita 	8	Agosto	2023-08-23T00:00:00	2024-11-08T00:00:00	6	Velocidad del viento	3.2
112942	7	Sololá	704	Santa Lucía Utatlán 	7	Santa Rita 	8	Agosto	2023-08-23T00:00:00	2024-11-08T00:00:00	7	Dirección del viento	3.22
112943	7	Sololá	704	Santa Lucía Utatlán 	7	Santa Rita 	8	Agosto	2023-08-23T00:00:00	2024-11-08T00:00:00	1	Precipitación	0
112944	7	Sololá	704	Santa Lucía Utatlán 	7	Santa Rita 	8	Agosto	2023-08-23T00:00:00	2024-11-08T00:00:00	8	Radiación solar	0
112945	7	Sololá	704	Santa Lucía Utatlán 	7	Santa Rita 	8	Agosto	2023-08-23T00:00:00	2024-11-08T01:00:00	2	Temperatura media	16.1
112946	7	Sololá	704	Santa Lucía Utatlán 	7	Santa Rita 	8	Agosto	2023-08-23T00:00:00	2024-11-08T01:00:00	4	Temperatura máxima	16.5
112947	7	Sololá	704	Santa Lucía Utatlán 	7	Santa Rita 	8	Agosto	2023-08-23T00:00:00	2024-11-08T01:00:00	3	Temperatura mínima	16
112948	7	Sololá	704	Santa Lucía Utatlán 	7	Santa Rita 	8	Agosto	2023-08-23T00:00:00	2024-11-08T01:00:00	5	Humedad	77
112949	7	Sololá	704	Santa Lucía Utatlán 	7	Santa Rita 	8	Agosto	2023-08-23T00:00:00	2024-11-08T01:00:00	6	Velocidad del viento	1.6
112950	7	Sololá	704	Santa Lucía Utatlán 	7	Santa Rita 	8	Agosto	2023-08-23T00:00:00	2024-11-08T01:00:00	7	Dirección del viento	1.61
112951	7	Sololá	704	Santa Lucía Utatlán 	7	Santa Rita 	8	Agosto	2023-08-23T00:00:00	2024-11-08T01:00:00	1	Precipitación	0
112952	7	Sololá	704	Santa Lucía Utatlán 	7	Santa Rita 	8	Agosto	2023-08-23T00:00:00	2024-11-08T01:00:00	8	Radiación solar	0
112953	7	Sololá	704	Santa Lucía Utatlán 	7	Santa Rita 	8	Agosto	2023-08-23T00:00:00	2024-11-08T02:00:00	2	Temperatura media	16.5
112954	7	Sololá	704	Santa Lucía Utatlán 	7	Santa Rita 	8	Agosto	2023-08-23T00:00:00	2024-11-08T02:00:00	4	Temperatura máxima	16.7
112955	7	Sololá	704	Santa Lucía Utatlán 	7	Santa Rita 	8	Agosto	2023-08-23T00:00:00	2024-11-08T02:00:00	3	Temperatura mínima	15.9
112956	7	Sololá	704	Santa Lucía Utatlán 	7	Santa Rita 	8	Agosto	2023-08-23T00:00:00	2024-11-08T02:00:00	5	Humedad	77
112957	7	Sololá	704	Santa Lucía Utatlán 	7	Santa Rita 	8	Agosto	2023-08-23T00:00:00	2024-11-08T02:00:00	6	Velocidad del viento	3.2
112958	7	Sololá	704	Santa Lucía Utatlán 	7	Santa Rita 	8	Agosto	2023-08-23T00:00:00	2024-11-08T02:00:00	7	Dirección del viento	3.22
112959	7	Sololá	704	Santa Lucía Utatlán 	7	Santa Rita 	8	Agosto	2023-08-23T00:00:00	2024-11-08T02:00:00	1	Precipitación	0
112960	7	Sololá	704	Santa Lucía Utatlán 	7	Santa Rita 	8	Agosto	2023-08-23T00:00:00	2024-11-08T02:00:00	8	Radiación solar	0
112961	7	Sololá	704	Santa Lucía Utatlán 	7	Santa Rita 	8	Agosto	2023-08-23T00:00:00	2024-11-08T03:00:00	2	Temperatura media	17.3
112962	7	Sololá	704	Santa Lucía Utatlán 	7	Santa Rita 	8	Agosto	2023-08-23T00:00:00	2024-11-08T03:00:00	4	Temperatura máxima	17.3
112963	7	Sololá	704	Santa Lucía Utatlán 	7	Santa Rita 	8	Agosto	2023-08-23T00:00:00	2024-11-08T03:00:00	3	Temperatura mínima	16.4
112964	7	Sololá	704	Santa Lucía Utatlán 	7	Santa Rita 	8	Agosto	2023-08-23T00:00:00	2024-11-08T03:00:00	5	Humedad	75
112965	7	Sololá	704	Santa Lucía Utatlán 	7	Santa Rita 	8	Agosto	2023-08-23T00:00:00	2024-11-08T03:00:00	6	Velocidad del viento	3.2
112966	7	Sololá	704	Santa Lucía Utatlán 	7	Santa Rita 	8	Agosto	2023-08-23T00:00:00	2024-11-08T03:00:00	7	Dirección del viento	3.22
112967	7	Sololá	704	Santa Lucía Utatlán 	7	Santa Rita 	8	Agosto	2023-08-23T00:00:00	2024-11-08T03:00:00	1	Precipitación	0
112968	7	Sololá	704	Santa Lucía Utatlán 	7	Santa Rita 	8	Agosto	2023-08-23T00:00:00	2024-11-08T03:00:00	8	Radiación solar	0
112969	7	Sololá	704	Santa Lucía Utatlán 	7	Santa Rita 	8	Agosto	2023-08-23T00:00:00	2024-11-08T04:00:00	2	Temperatura media	19.7
112970	7	Sololá	704	Santa Lucía Utatlán 	7	Santa Rita 	8	Agosto	2023-08-23T00:00:00	2024-11-08T04:00:00	4	Temperatura máxima	19.7
112971	7	Sololá	704	Santa Lucía Utatlán 	7	Santa Rita 	8	Agosto	2023-08-23T00:00:00	2024-11-08T04:00:00	3	Temperatura mínima	17.3
112972	7	Sololá	704	Santa Lucía Utatlán 	7	Santa Rita 	8	Agosto	2023-08-23T00:00:00	2024-11-08T04:00:00	5	Humedad	67
112973	7	Sololá	704	Santa Lucía Utatlán 	7	Santa Rita 	8	Agosto	2023-08-23T00:00:00	2024-11-08T04:00:00	6	Velocidad del viento	1.6
112974	7	Sololá	704	Santa Lucía Utatlán 	7	Santa Rita 	8	Agosto	2023-08-23T00:00:00	2024-11-08T04:00:00	7	Dirección del viento	1.61
112975	7	Sololá	704	Santa Lucía Utatlán 	7	Santa Rita 	8	Agosto	2023-08-23T00:00:00	2024-11-08T04:00:00	1	Precipitación	0
112976	7	Sololá	704	Santa Lucía Utatlán 	7	Santa Rita 	8	Agosto	2023-08-23T00:00:00	2024-11-08T04:00:00	8	Radiación solar	0
112977	7	Sololá	704	Santa Lucía Utatlán 	7	Santa Rita 	8	Agosto	2023-08-23T00:00:00	2024-11-08T05:00:00	2	Temperatura media	22.7
112978	7	Sololá	704	Santa Lucía Utatlán 	7	Santa Rita 	8	Agosto	2023-08-23T00:00:00	2024-11-08T05:00:00	4	Temperatura máxima	23
112979	7	Sololá	704	Santa Lucía Utatlán 	7	Santa Rita 	8	Agosto	2023-08-23T00:00:00	2024-11-08T05:00:00	3	Temperatura mínima	19.6
112980	7	Sololá	704	Santa Lucía Utatlán 	7	Santa Rita 	8	Agosto	2023-08-23T00:00:00	2024-11-08T05:00:00	5	Humedad	65
112981	7	Sololá	704	Santa Lucía Utatlán 	7	Santa Rita 	8	Agosto	2023-08-23T00:00:00	2024-11-08T05:00:00	6	Velocidad del viento	3.2
112982	7	Sololá	704	Santa Lucía Utatlán 	7	Santa Rita 	8	Agosto	2023-08-23T00:00:00	2024-11-08T05:00:00	7	Dirección del viento	3.22
112983	7	Sololá	704	Santa Lucía Utatlán 	7	Santa Rita 	8	Agosto	2023-08-23T00:00:00	2024-11-08T05:00:00	1	Precipitación	0
112984	7	Sololá	704	Santa Lucía Utatlán 	7	Santa Rita 	8	Agosto	2023-08-23T00:00:00	2024-11-08T05:00:00	8	Radiación solar	0
112985	7	Sololá	704	Santa Lucía Utatlán 	7	Santa Rita 	8	Agosto	2023-08-23T00:00:00	2024-11-08T06:00:00	2	Temperatura media	23.4
112986	7	Sololá	704	Santa Lucía Utatlán 	7	Santa Rita 	8	Agosto	2023-08-23T00:00:00	2024-11-08T06:00:00	4	Temperatura máxima	23.7
112987	7	Sololá	704	Santa Lucía Utatlán 	7	Santa Rita 	8	Agosto	2023-08-23T00:00:00	2024-11-08T06:00:00	3	Temperatura mínima	22.7
112988	7	Sololá	704	Santa Lucía Utatlán 	7	Santa Rita 	8	Agosto	2023-08-23T00:00:00	2024-11-08T06:00:00	5	Humedad	53
112989	7	Sololá	704	Santa Lucía Utatlán 	7	Santa Rita 	8	Agosto	2023-08-23T00:00:00	2024-11-08T06:00:00	6	Velocidad del viento	4.8
112990	7	Sololá	704	Santa Lucía Utatlán 	7	Santa Rita 	8	Agosto	2023-08-23T00:00:00	2024-11-08T06:00:00	7	Dirección del viento	4.83
112991	7	Sololá	704	Santa Lucía Utatlán 	7	Santa Rita 	8	Agosto	2023-08-23T00:00:00	2024-11-08T06:00:00	1	Precipitación	0
112992	7	Sololá	704	Santa Lucía Utatlán 	7	Santa Rita 	8	Agosto	2023-08-23T00:00:00	2024-11-08T06:00:00	8	Radiación solar	1
112993	7	Sololá	704	Santa Lucía Utatlán 	7	Santa Rita 	8	Agosto	2023-08-23T00:00:00	2024-11-08T07:00:00	2	Temperatura media	23.2
112994	7	Sololá	704	Santa Lucía Utatlán 	7	Santa Rita 	8	Agosto	2023-08-23T00:00:00	2024-11-08T07:00:00	4	Temperatura máxima	23.5
112995	7	Sololá	704	Santa Lucía Utatlán 	7	Santa Rita 	8	Agosto	2023-08-23T00:00:00	2024-11-08T07:00:00	3	Temperatura mínima	23.2
112996	7	Sololá	704	Santa Lucía Utatlán 	7	Santa Rita 	8	Agosto	2023-08-23T00:00:00	2024-11-08T07:00:00	5	Humedad	58
112997	7	Sololá	704	Santa Lucía Utatlán 	7	Santa Rita 	8	Agosto	2023-08-23T00:00:00	2024-11-08T07:00:00	6	Velocidad del viento	8
112998	7	Sololá	704	Santa Lucía Utatlán 	7	Santa Rita 	8	Agosto	2023-08-23T00:00:00	2024-11-08T07:00:00	7	Dirección del viento	8.05
112999	7	Sololá	704	Santa Lucía Utatlán 	7	Santa Rita 	8	Agosto	2023-08-23T00:00:00	2024-11-08T07:00:00	1	Precipitación	0
113000	7	Sololá	704	Santa Lucía Utatlán 	7	Santa Rita 	8	Agosto	2023-08-23T00:00:00	2024-11-08T07:00:00	8	Radiación solar	62
113001	7	Sololá	704	Santa Lucía Utatlán 	7	Santa Rita 	8	Agosto	2023-08-23T00:00:00	2024-11-08T08:00:00	2	Temperatura media	23.7
113002	7	Sololá	704	Santa Lucía Utatlán 	7	Santa Rita 	8	Agosto	2023-08-23T00:00:00	2024-11-08T08:00:00	4	Temperatura máxima	23.7
113003	7	Sololá	704	Santa Lucía Utatlán 	7	Santa Rita 	8	Agosto	2023-08-23T00:00:00	2024-11-08T08:00:00	3	Temperatura mínima	23.2
113004	7	Sololá	704	Santa Lucía Utatlán 	7	Santa Rita 	8	Agosto	2023-08-23T00:00:00	2024-11-08T08:00:00	5	Humedad	59
113005	7	Sololá	704	Santa Lucía Utatlán 	7	Santa Rita 	8	Agosto	2023-08-23T00:00:00	2024-11-08T08:00:00	6	Velocidad del viento	11.3
113006	7	Sololá	704	Santa Lucía Utatlán 	7	Santa Rita 	8	Agosto	2023-08-23T00:00:00	2024-11-08T08:00:00	7	Dirección del viento	11.27
113007	7	Sololá	704	Santa Lucía Utatlán 	7	Santa Rita 	8	Agosto	2023-08-23T00:00:00	2024-11-08T08:00:00	1	Precipitación	0
113008	7	Sololá	704	Santa Lucía Utatlán 	7	Santa Rita 	8	Agosto	2023-08-23T00:00:00	2024-11-08T08:00:00	8	Radiación solar	203
113009	7	Sololá	704	Santa Lucía Utatlán 	7	Santa Rita 	8	Agosto	2023-08-23T00:00:00	2024-11-08T09:00:00	2	Temperatura media	24.1
113010	7	Sololá	704	Santa Lucía Utatlán 	7	Santa Rita 	8	Agosto	2023-08-23T00:00:00	2024-11-08T09:00:00	4	Temperatura máxima	24.2
113011	7	Sololá	704	Santa Lucía Utatlán 	7	Santa Rita 	8	Agosto	2023-08-23T00:00:00	2024-11-08T09:00:00	3	Temperatura mínima	23.6
113012	7	Sololá	704	Santa Lucía Utatlán 	7	Santa Rita 	8	Agosto	2023-08-23T00:00:00	2024-11-08T09:00:00	5	Humedad	60
113013	7	Sololá	704	Santa Lucía Utatlán 	7	Santa Rita 	8	Agosto	2023-08-23T00:00:00	2024-11-08T09:00:00	6	Velocidad del viento	8
113014	7	Sololá	704	Santa Lucía Utatlán 	7	Santa Rita 	8	Agosto	2023-08-23T00:00:00	2024-11-08T09:00:00	7	Dirección del viento	8.05
113015	7	Sololá	704	Santa Lucía Utatlán 	7	Santa Rita 	8	Agosto	2023-08-23T00:00:00	2024-11-08T09:00:00	1	Precipitación	0
113016	7	Sololá	704	Santa Lucía Utatlán 	7	Santa Rita 	8	Agosto	2023-08-23T00:00:00	2024-11-08T09:00:00	8	Radiación solar	541
113017	7	Sololá	704	Santa Lucía Utatlán 	7	Santa Rita 	8	Agosto	2023-08-23T00:00:00	2024-11-08T10:00:00	2	Temperatura media	23.4
113018	7	Sololá	704	Santa Lucía Utatlán 	7	Santa Rita 	8	Agosto	2023-08-23T00:00:00	2024-11-08T10:00:00	4	Temperatura máxima	24.1
113019	7	Sololá	704	Santa Lucía Utatlán 	7	Santa Rita 	8	Agosto	2023-08-23T00:00:00	2024-11-08T10:00:00	3	Temperatura mínima	23.1
113020	7	Sololá	704	Santa Lucía Utatlán 	7	Santa Rita 	8	Agosto	2023-08-23T00:00:00	2024-11-08T10:00:00	5	Humedad	66
113021	7	Sololá	704	Santa Lucía Utatlán 	7	Santa Rita 	8	Agosto	2023-08-23T00:00:00	2024-11-08T10:00:00	6	Velocidad del viento	9.7
113022	7	Sololá	704	Santa Lucía Utatlán 	7	Santa Rita 	8	Agosto	2023-08-23T00:00:00	2024-11-08T10:00:00	7	Dirección del viento	9.66
113023	7	Sololá	704	Santa Lucía Utatlán 	7	Santa Rita 	8	Agosto	2023-08-23T00:00:00	2024-11-08T10:00:00	1	Precipitación	0
113024	7	Sololá	704	Santa Lucía Utatlán 	7	Santa Rita 	8	Agosto	2023-08-23T00:00:00	2024-11-08T10:00:00	8	Radiación solar	469
113025	7	Sololá	704	Santa Lucía Utatlán 	7	Santa Rita 	8	Agosto	2023-08-23T00:00:00	2024-11-08T11:00:00	2	Temperatura media	23.2
113026	7	Sololá	704	Santa Lucía Utatlán 	7	Santa Rita 	8	Agosto	2023-08-23T00:00:00	2024-11-08T11:00:00	4	Temperatura máxima	23.6
113027	7	Sololá	704	Santa Lucía Utatlán 	7	Santa Rita 	8	Agosto	2023-08-23T00:00:00	2024-11-08T11:00:00	3	Temperatura mínima	23.1
113028	7	Sololá	704	Santa Lucía Utatlán 	7	Santa Rita 	8	Agosto	2023-08-23T00:00:00	2024-11-08T11:00:00	5	Humedad	66
113029	7	Sololá	704	Santa Lucía Utatlán 	7	Santa Rita 	8	Agosto	2023-08-23T00:00:00	2024-11-08T11:00:00	6	Velocidad del viento	6.4
113030	7	Sololá	704	Santa Lucía Utatlán 	7	Santa Rita 	8	Agosto	2023-08-23T00:00:00	2024-11-08T11:00:00	7	Dirección del viento	6.44
113031	7	Sololá	704	Santa Lucía Utatlán 	7	Santa Rita 	8	Agosto	2023-08-23T00:00:00	2024-11-08T11:00:00	1	Precipitación	0
113032	7	Sololá	704	Santa Lucía Utatlán 	7	Santa Rita 	8	Agosto	2023-08-23T00:00:00	2024-11-08T11:00:00	8	Radiación solar	467
113033	7	Sololá	704	Santa Lucía Utatlán 	7	Santa Rita 	8	Agosto	2023-08-23T00:00:00	2024-11-08T12:00:00	2	Temperatura media	22.9
113034	7	Sololá	704	Santa Lucía Utatlán 	7	Santa Rita 	8	Agosto	2023-08-23T00:00:00	2024-11-08T12:00:00	4	Temperatura máxima	23.3
113035	7	Sololá	704	Santa Lucía Utatlán 	7	Santa Rita 	8	Agosto	2023-08-23T00:00:00	2024-11-08T12:00:00	3	Temperatura mínima	22.9
113036	7	Sololá	704	Santa Lucía Utatlán 	7	Santa Rita 	8	Agosto	2023-08-23T00:00:00	2024-11-08T12:00:00	5	Humedad	64
113037	7	Sololá	704	Santa Lucía Utatlán 	7	Santa Rita 	8	Agosto	2023-08-23T00:00:00	2024-11-08T12:00:00	6	Velocidad del viento	8
113038	7	Sololá	704	Santa Lucía Utatlán 	7	Santa Rita 	8	Agosto	2023-08-23T00:00:00	2024-11-08T12:00:00	7	Dirección del viento	8.05
113039	7	Sololá	704	Santa Lucía Utatlán 	7	Santa Rita 	8	Agosto	2023-08-23T00:00:00	2024-11-08T12:00:00	1	Precipitación	0
113040	7	Sololá	704	Santa Lucía Utatlán 	7	Santa Rita 	8	Agosto	2023-08-23T00:00:00	2024-11-08T12:00:00	8	Radiación solar	537
113041	7	Sololá	704	Santa Lucía Utatlán 	7	Santa Rita 	8	Agosto	2023-08-23T00:00:00	2024-11-08T13:00:00	2	Temperatura media	22.7
113042	7	Sololá	704	Santa Lucía Utatlán 	7	Santa Rita 	8	Agosto	2023-08-23T00:00:00	2024-11-08T13:00:00	4	Temperatura máxima	22.9
113043	7	Sololá	704	Santa Lucía Utatlán 	7	Santa Rita 	8	Agosto	2023-08-23T00:00:00	2024-11-08T13:00:00	3	Temperatura mínima	22.6
113044	7	Sololá	704	Santa Lucía Utatlán 	7	Santa Rita 	8	Agosto	2023-08-23T00:00:00	2024-11-08T13:00:00	5	Humedad	70
113045	7	Sololá	704	Santa Lucía Utatlán 	7	Santa Rita 	8	Agosto	2023-08-23T00:00:00	2024-11-08T13:00:00	6	Velocidad del viento	4.8
113046	7	Sololá	704	Santa Lucía Utatlán 	7	Santa Rita 	8	Agosto	2023-08-23T00:00:00	2024-11-08T13:00:00	7	Dirección del viento	4.83
113047	7	Sololá	704	Santa Lucía Utatlán 	7	Santa Rita 	8	Agosto	2023-08-23T00:00:00	2024-11-08T13:00:00	1	Precipitación	0
113048	7	Sololá	704	Santa Lucía Utatlán 	7	Santa Rita 	8	Agosto	2023-08-23T00:00:00	2024-11-08T13:00:00	8	Radiación solar	597
113049	7	Sololá	704	Santa Lucía Utatlán 	7	Santa Rita 	8	Agosto	2023-08-23T00:00:00	2024-11-08T14:00:00	2	Temperatura media	20.4
113050	7	Sololá	704	Santa Lucía Utatlán 	7	Santa Rita 	8	Agosto	2023-08-23T00:00:00	2024-11-08T14:00:00	4	Temperatura máxima	22.7
113051	7	Sololá	704	Santa Lucía Utatlán 	7	Santa Rita 	8	Agosto	2023-08-23T00:00:00	2024-11-08T14:00:00	3	Temperatura mínima	20.4
113052	7	Sololá	704	Santa Lucía Utatlán 	7	Santa Rita 	8	Agosto	2023-08-23T00:00:00	2024-11-08T14:00:00	5	Humedad	80
113053	7	Sololá	704	Santa Lucía Utatlán 	7	Santa Rita 	8	Agosto	2023-08-23T00:00:00	2024-11-08T14:00:00	6	Velocidad del viento	1.6
113054	7	Sololá	704	Santa Lucía Utatlán 	7	Santa Rita 	8	Agosto	2023-08-23T00:00:00	2024-11-08T14:00:00	7	Dirección del viento	1.61
113055	7	Sololá	704	Santa Lucía Utatlán 	7	Santa Rita 	8	Agosto	2023-08-23T00:00:00	2024-11-08T14:00:00	1	Precipitación	0
113056	7	Sololá	704	Santa Lucía Utatlán 	7	Santa Rita 	8	Agosto	2023-08-23T00:00:00	2024-11-08T14:00:00	8	Radiación solar	478
113057	7	Sololá	704	Santa Lucía Utatlán 	7	Santa Rita 	8	Agosto	2023-08-23T00:00:00	2024-11-08T15:00:00	2	Temperatura media	19.2
113058	7	Sololá	704	Santa Lucía Utatlán 	7	Santa Rita 	8	Agosto	2023-08-23T00:00:00	2024-11-08T15:00:00	4	Temperatura máxima	20.4
113059	7	Sololá	704	Santa Lucía Utatlán 	7	Santa Rita 	8	Agosto	2023-08-23T00:00:00	2024-11-08T15:00:00	3	Temperatura mínima	19.2
113060	7	Sololá	704	Santa Lucía Utatlán 	7	Santa Rita 	8	Agosto	2023-08-23T00:00:00	2024-11-08T15:00:00	5	Humedad	85
113061	7	Sololá	704	Santa Lucía Utatlán 	7	Santa Rita 	8	Agosto	2023-08-23T00:00:00	2024-11-08T15:00:00	6	Velocidad del viento	3.2
113062	7	Sololá	704	Santa Lucía Utatlán 	7	Santa Rita 	8	Agosto	2023-08-23T00:00:00	2024-11-08T15:00:00	7	Dirección del viento	3.22
113063	7	Sololá	704	Santa Lucía Utatlán 	7	Santa Rita 	8	Agosto	2023-08-23T00:00:00	2024-11-08T15:00:00	1	Precipitación	0
113064	7	Sololá	704	Santa Lucía Utatlán 	7	Santa Rita 	8	Agosto	2023-08-23T00:00:00	2024-11-08T15:00:00	8	Radiación solar	445
113065	7	Sololá	704	Santa Lucía Utatlán 	7	Santa Rita 	8	Agosto	2023-08-23T00:00:00	2024-11-08T16:00:00	2	Temperatura media	18.2
113066	7	Sololá	704	Santa Lucía Utatlán 	7	Santa Rita 	8	Agosto	2023-08-23T00:00:00	2024-11-08T16:00:00	4	Temperatura máxima	19.2
113067	7	Sololá	704	Santa Lucía Utatlán 	7	Santa Rita 	8	Agosto	2023-08-23T00:00:00	2024-11-08T16:00:00	3	Temperatura mínima	18.1
113068	7	Sololá	704	Santa Lucía Utatlán 	7	Santa Rita 	8	Agosto	2023-08-23T00:00:00	2024-11-08T16:00:00	5	Humedad	89
113069	7	Sololá	704	Santa Lucía Utatlán 	7	Santa Rita 	8	Agosto	2023-08-23T00:00:00	2024-11-08T16:00:00	6	Velocidad del viento	3.2
113070	7	Sololá	704	Santa Lucía Utatlán 	7	Santa Rita 	8	Agosto	2023-08-23T00:00:00	2024-11-08T16:00:00	7	Dirección del viento	3.22
113071	7	Sololá	704	Santa Lucía Utatlán 	7	Santa Rita 	8	Agosto	2023-08-23T00:00:00	2024-11-08T16:00:00	1	Precipitación	0
113072	7	Sololá	704	Santa Lucía Utatlán 	7	Santa Rita 	8	Agosto	2023-08-23T00:00:00	2024-11-08T16:00:00	8	Radiación solar	325
113073	7	Sololá	704	Santa Lucía Utatlán 	7	Santa Rita 	8	Agosto	2023-08-23T00:00:00	2024-11-08T17:00:00	2	Temperatura media	18.2
113074	7	Sololá	704	Santa Lucía Utatlán 	7	Santa Rita 	8	Agosto	2023-08-23T00:00:00	2024-11-08T17:00:00	4	Temperatura máxima	18.3
113075	7	Sololá	704	Santa Lucía Utatlán 	7	Santa Rita 	8	Agosto	2023-08-23T00:00:00	2024-11-08T17:00:00	3	Temperatura mínima	18.1
113076	7	Sololá	704	Santa Lucía Utatlán 	7	Santa Rita 	8	Agosto	2023-08-23T00:00:00	2024-11-08T17:00:00	5	Humedad	90
113077	7	Sololá	704	Santa Lucía Utatlán 	7	Santa Rita 	8	Agosto	2023-08-23T00:00:00	2024-11-08T17:00:00	6	Velocidad del viento	1.6
113078	7	Sololá	704	Santa Lucía Utatlán 	7	Santa Rita 	8	Agosto	2023-08-23T00:00:00	2024-11-08T17:00:00	7	Dirección del viento	1.61
113079	7	Sololá	704	Santa Lucía Utatlán 	7	Santa Rita 	8	Agosto	2023-08-23T00:00:00	2024-11-08T17:00:00	1	Precipitación	0
113080	7	Sololá	704	Santa Lucía Utatlán 	7	Santa Rita 	8	Agosto	2023-08-23T00:00:00	2024-11-08T17:00:00	8	Radiación solar	166
113081	7	Sololá	704	Santa Lucía Utatlán 	7	Santa Rita 	8	Agosto	2023-08-23T00:00:00	2024-11-08T18:00:00	2	Temperatura media	19.8
113082	7	Sololá	704	Santa Lucía Utatlán 	7	Santa Rita 	8	Agosto	2023-08-23T00:00:00	2024-11-08T18:00:00	4	Temperatura máxima	19.8
113083	7	Sololá	704	Santa Lucía Utatlán 	7	Santa Rita 	8	Agosto	2023-08-23T00:00:00	2024-11-08T18:00:00	3	Temperatura mínima	18.1
113084	7	Sololá	704	Santa Lucía Utatlán 	7	Santa Rita 	8	Agosto	2023-08-23T00:00:00	2024-11-08T18:00:00	5	Humedad	79
113085	7	Sololá	704	Santa Lucía Utatlán 	7	Santa Rita 	8	Agosto	2023-08-23T00:00:00	2024-11-08T18:00:00	6	Velocidad del viento	3.2
113086	7	Sololá	704	Santa Lucía Utatlán 	7	Santa Rita 	8	Agosto	2023-08-23T00:00:00	2024-11-08T18:00:00	7	Dirección del viento	3.22
113087	7	Sololá	704	Santa Lucía Utatlán 	7	Santa Rita 	8	Agosto	2023-08-23T00:00:00	2024-11-08T18:00:00	1	Precipitación	0
113088	7	Sololá	704	Santa Lucía Utatlán 	7	Santa Rita 	8	Agosto	2023-08-23T00:00:00	2024-11-08T18:00:00	8	Radiación solar	53
113089	7	Sololá	704	Santa Lucía Utatlán 	7	Santa Rita 	8	Agosto	2023-08-23T00:00:00	2024-11-08T19:00:00	2	Temperatura media	20.4
113090	7	Sololá	704	Santa Lucía Utatlán 	7	Santa Rita 	8	Agosto	2023-08-23T00:00:00	2024-11-08T19:00:00	4	Temperatura máxima	20.6
113091	7	Sololá	704	Santa Lucía Utatlán 	7	Santa Rita 	8	Agosto	2023-08-23T00:00:00	2024-11-08T19:00:00	3	Temperatura mínima	19.8
113092	7	Sololá	704	Santa Lucía Utatlán 	7	Santa Rita 	8	Agosto	2023-08-23T00:00:00	2024-11-08T19:00:00	5	Humedad	76
113093	7	Sololá	704	Santa Lucía Utatlán 	7	Santa Rita 	8	Agosto	2023-08-23T00:00:00	2024-11-08T19:00:00	6	Velocidad del viento	6.4
113094	7	Sololá	704	Santa Lucía Utatlán 	7	Santa Rita 	8	Agosto	2023-08-23T00:00:00	2024-11-08T19:00:00	7	Dirección del viento	6.44
113095	7	Sololá	704	Santa Lucía Utatlán 	7	Santa Rita 	8	Agosto	2023-08-23T00:00:00	2024-11-08T19:00:00	1	Precipitación	0
113096	7	Sololá	704	Santa Lucía Utatlán 	7	Santa Rita 	8	Agosto	2023-08-23T00:00:00	2024-11-08T19:00:00	8	Radiación solar	0
113097	7	Sololá	704	Santa Lucía Utatlán 	7	Santa Rita 	8	Agosto	2023-08-23T00:00:00	2024-11-08T20:00:00	2	Temperatura media	20.2
113098	7	Sololá	704	Santa Lucía Utatlán 	7	Santa Rita 	8	Agosto	2023-08-23T00:00:00	2024-11-08T20:00:00	4	Temperatura máxima	21
113099	7	Sololá	704	Santa Lucía Utatlán 	7	Santa Rita 	8	Agosto	2023-08-23T00:00:00	2024-11-08T20:00:00	3	Temperatura mínima	20.2
113100	7	Sololá	704	Santa Lucía Utatlán 	7	Santa Rita 	8	Agosto	2023-08-23T00:00:00	2024-11-08T20:00:00	5	Humedad	79
113101	7	Sololá	704	Santa Lucía Utatlán 	7	Santa Rita 	8	Agosto	2023-08-23T00:00:00	2024-11-08T20:00:00	6	Velocidad del viento	4.8
113102	7	Sololá	704	Santa Lucía Utatlán 	7	Santa Rita 	8	Agosto	2023-08-23T00:00:00	2024-11-08T20:00:00	7	Dirección del viento	4.83
113103	7	Sololá	704	Santa Lucía Utatlán 	7	Santa Rita 	8	Agosto	2023-08-23T00:00:00	2024-11-08T20:00:00	1	Precipitación	0
113104	7	Sololá	704	Santa Lucía Utatlán 	7	Santa Rita 	8	Agosto	2023-08-23T00:00:00	2024-11-08T20:00:00	8	Radiación solar	0
113105	7	Sololá	704	Santa Lucía Utatlán 	7	Santa Rita 	8	Agosto	2023-08-23T00:00:00	2024-11-08T21:00:00	2	Temperatura media	18.6
113106	7	Sololá	704	Santa Lucía Utatlán 	7	Santa Rita 	8	Agosto	2023-08-23T00:00:00	2024-11-08T21:00:00	4	Temperatura máxima	20.1
113107	7	Sololá	704	Santa Lucía Utatlán 	7	Santa Rita 	8	Agosto	2023-08-23T00:00:00	2024-11-08T21:00:00	3	Temperatura mínima	18.6
113108	7	Sololá	704	Santa Lucía Utatlán 	7	Santa Rita 	8	Agosto	2023-08-23T00:00:00	2024-11-08T21:00:00	5	Humedad	85
113109	7	Sololá	704	Santa Lucía Utatlán 	7	Santa Rita 	8	Agosto	2023-08-23T00:00:00	2024-11-08T21:00:00	6	Velocidad del viento	1.6
113110	7	Sololá	704	Santa Lucía Utatlán 	7	Santa Rita 	8	Agosto	2023-08-23T00:00:00	2024-11-08T21:00:00	7	Dirección del viento	1.61
113111	7	Sololá	704	Santa Lucía Utatlán 	7	Santa Rita 	8	Agosto	2023-08-23T00:00:00	2024-11-08T21:00:00	1	Precipitación	0
113112	7	Sololá	704	Santa Lucía Utatlán 	7	Santa Rita 	8	Agosto	2023-08-23T00:00:00	2024-11-08T21:00:00	8	Radiación solar	0
113113	7	Sololá	704	Santa Lucía Utatlán 	7	Santa Rita 	8	Agosto	2023-08-23T00:00:00	2024-11-08T22:00:00	2	Temperatura media	17.8
113114	7	Sololá	704	Santa Lucía Utatlán 	7	Santa Rita 	8	Agosto	2023-08-23T00:00:00	2024-11-08T22:00:00	4	Temperatura máxima	18.6
113115	7	Sololá	704	Santa Lucía Utatlán 	7	Santa Rita 	8	Agosto	2023-08-23T00:00:00	2024-11-08T22:00:00	3	Temperatura mínima	17.8
113116	7	Sololá	704	Santa Lucía Utatlán 	7	Santa Rita 	8	Agosto	2023-08-23T00:00:00	2024-11-08T22:00:00	5	Humedad	89
113117	7	Sololá	704	Santa Lucía Utatlán 	7	Santa Rita 	8	Agosto	2023-08-23T00:00:00	2024-11-08T22:00:00	6	Velocidad del viento	1.6
113118	7	Sololá	704	Santa Lucía Utatlán 	7	Santa Rita 	8	Agosto	2023-08-23T00:00:00	2024-11-08T22:00:00	7	Dirección del viento	1.61
113119	7	Sololá	704	Santa Lucía Utatlán 	7	Santa Rita 	8	Agosto	2023-08-23T00:00:00	2024-11-08T22:00:00	1	Precipitación	0
113120	7	Sololá	704	Santa Lucía Utatlán 	7	Santa Rita 	8	Agosto	2023-08-23T00:00:00	2024-11-08T22:00:00	8	Radiación solar	0
113121	7	Sololá	704	Santa Lucía Utatlán 	7	Santa Rita 	8	Agosto	2023-08-23T00:00:00	2024-11-08T23:00:00	2	Temperatura media	17.5
113122	7	Sololá	704	Santa Lucía Utatlán 	7	Santa Rita 	8	Agosto	2023-08-23T00:00:00	2024-11-08T23:00:00	4	Temperatura máxima	18
113123	7	Sololá	704	Santa Lucía Utatlán 	7	Santa Rita 	8	Agosto	2023-08-23T00:00:00	2024-11-08T23:00:00	3	Temperatura mínima	17.5
113124	7	Sololá	704	Santa Lucía Utatlán 	7	Santa Rita 	8	Agosto	2023-08-23T00:00:00	2024-11-08T23:00:00	5	Humedad	91
113125	7	Sololá	704	Santa Lucía Utatlán 	7	Santa Rita 	8	Agosto	2023-08-23T00:00:00	2024-11-08T23:00:00	6	Velocidad del viento	1.6
113126	7	Sololá	704	Santa Lucía Utatlán 	7	Santa Rita 	8	Agosto	2023-08-23T00:00:00	2024-11-08T23:00:00	7	Dirección del viento	1.61
113127	7	Sololá	704	Santa Lucía Utatlán 	7	Santa Rita 	8	Agosto	2023-08-23T00:00:00	2024-11-08T23:00:00	1	Precipitación	0
113128	7	Sololá	704	Santa Lucía Utatlán 	7	Santa Rita 	8	Agosto	2023-08-23T00:00:00	2024-11-08T23:00:00	8	Radiación solar	0
113129	7	Sololá	704	Santa Lucía Utatlán 	7	Santa Rita 	8	Agosto	2023-08-24T00:00:00	2024-11-08T00:00:00	2	Temperatura media	16.7
113130	7	Sololá	704	Santa Lucía Utatlán 	7	Santa Rita 	8	Agosto	2023-08-24T00:00:00	2024-11-08T00:00:00	4	Temperatura máxima	17.6
113131	7	Sololá	704	Santa Lucía Utatlán 	7	Santa Rita 	8	Agosto	2023-08-24T00:00:00	2024-11-08T00:00:00	3	Temperatura mínima	16.7
113132	7	Sololá	704	Santa Lucía Utatlán 	7	Santa Rita 	8	Agosto	2023-08-24T00:00:00	2024-11-08T00:00:00	5	Humedad	92
113133	7	Sololá	704	Santa Lucía Utatlán 	7	Santa Rita 	8	Agosto	2023-08-24T00:00:00	2024-11-08T00:00:00	6	Velocidad del viento	1.6
113134	7	Sololá	704	Santa Lucía Utatlán 	7	Santa Rita 	8	Agosto	2023-08-24T00:00:00	2024-11-08T00:00:00	7	Dirección del viento	1.61
113135	7	Sololá	704	Santa Lucía Utatlán 	7	Santa Rita 	8	Agosto	2023-08-24T00:00:00	2024-11-08T00:00:00	1	Precipitación	0
113136	7	Sololá	704	Santa Lucía Utatlán 	7	Santa Rita 	8	Agosto	2023-08-24T00:00:00	2024-11-08T00:00:00	8	Radiación solar	0
113137	7	Sololá	704	Santa Lucía Utatlán 	7	Santa Rita 	8	Agosto	2023-08-24T00:00:00	2024-11-08T01:00:00	2	Temperatura media	16.8
113138	7	Sololá	704	Santa Lucía Utatlán 	7	Santa Rita 	8	Agosto	2023-08-24T00:00:00	2024-11-08T01:00:00	4	Temperatura máxima	16.8
113139	7	Sololá	704	Santa Lucía Utatlán 	7	Santa Rita 	8	Agosto	2023-08-24T00:00:00	2024-11-08T01:00:00	3	Temperatura mínima	16.6
113140	7	Sololá	704	Santa Lucía Utatlán 	7	Santa Rita 	8	Agosto	2023-08-24T00:00:00	2024-11-08T01:00:00	5	Humedad	91
113141	7	Sololá	704	Santa Lucía Utatlán 	7	Santa Rita 	8	Agosto	2023-08-24T00:00:00	2024-11-08T01:00:00	6	Velocidad del viento	1.6
113142	7	Sololá	704	Santa Lucía Utatlán 	7	Santa Rita 	8	Agosto	2023-08-24T00:00:00	2024-11-08T01:00:00	7	Dirección del viento	1.61
113143	7	Sololá	704	Santa Lucía Utatlán 	7	Santa Rita 	8	Agosto	2023-08-24T00:00:00	2024-11-08T01:00:00	1	Precipitación	0
113144	7	Sololá	704	Santa Lucía Utatlán 	7	Santa Rita 	8	Agosto	2023-08-24T00:00:00	2024-11-08T01:00:00	8	Radiación solar	0
113145	7	Sololá	704	Santa Lucía Utatlán 	7	Santa Rita 	8	Agosto	2023-08-24T00:00:00	2024-11-08T02:00:00	2	Temperatura media	16.9
113146	7	Sololá	704	Santa Lucía Utatlán 	7	Santa Rita 	8	Agosto	2023-08-24T00:00:00	2024-11-08T02:00:00	4	Temperatura máxima	16.9
113147	7	Sololá	704	Santa Lucía Utatlán 	7	Santa Rita 	8	Agosto	2023-08-24T00:00:00	2024-11-08T02:00:00	3	Temperatura mínima	16.6
113148	7	Sololá	704	Santa Lucía Utatlán 	7	Santa Rita 	8	Agosto	2023-08-24T00:00:00	2024-11-08T02:00:00	5	Humedad	91
113149	7	Sololá	704	Santa Lucía Utatlán 	7	Santa Rita 	8	Agosto	2023-08-24T00:00:00	2024-11-08T02:00:00	6	Velocidad del viento	3.2
113150	7	Sololá	704	Santa Lucía Utatlán 	7	Santa Rita 	8	Agosto	2023-08-24T00:00:00	2024-11-08T02:00:00	7	Dirección del viento	3.22
113151	7	Sololá	704	Santa Lucía Utatlán 	7	Santa Rita 	8	Agosto	2023-08-24T00:00:00	2024-11-08T02:00:00	1	Precipitación	0
113152	7	Sololá	704	Santa Lucía Utatlán 	7	Santa Rita 	8	Agosto	2023-08-24T00:00:00	2024-11-08T02:00:00	8	Radiación solar	0
113153	7	Sololá	704	Santa Lucía Utatlán 	7	Santa Rita 	8	Agosto	2023-08-24T00:00:00	2024-11-08T03:00:00	2	Temperatura media	18.2
113154	7	Sololá	704	Santa Lucía Utatlán 	7	Santa Rita 	8	Agosto	2023-08-24T00:00:00	2024-11-08T03:00:00	4	Temperatura máxima	18.3
113155	7	Sololá	704	Santa Lucía Utatlán 	7	Santa Rita 	8	Agosto	2023-08-24T00:00:00	2024-11-08T03:00:00	3	Temperatura mínima	16.8
113156	7	Sololá	704	Santa Lucía Utatlán 	7	Santa Rita 	8	Agosto	2023-08-24T00:00:00	2024-11-08T03:00:00	5	Humedad	88
113157	7	Sololá	704	Santa Lucía Utatlán 	7	Santa Rita 	8	Agosto	2023-08-24T00:00:00	2024-11-08T03:00:00	6	Velocidad del viento	1.6
113158	7	Sololá	704	Santa Lucía Utatlán 	7	Santa Rita 	8	Agosto	2023-08-24T00:00:00	2024-11-08T03:00:00	7	Dirección del viento	1.61
113159	7	Sololá	704	Santa Lucía Utatlán 	7	Santa Rita 	8	Agosto	2023-08-24T00:00:00	2024-11-08T03:00:00	1	Precipitación	0
113160	7	Sololá	704	Santa Lucía Utatlán 	7	Santa Rita 	8	Agosto	2023-08-24T00:00:00	2024-11-08T03:00:00	8	Radiación solar	0
113161	7	Sololá	704	Santa Lucía Utatlán 	7	Santa Rita 	8	Agosto	2023-08-24T00:00:00	2024-11-08T04:00:00	2	Temperatura media	19.7
113162	7	Sololá	704	Santa Lucía Utatlán 	7	Santa Rita 	8	Agosto	2023-08-24T00:00:00	2024-11-08T04:00:00	4	Temperatura máxima	19.7
113163	7	Sololá	704	Santa Lucía Utatlán 	7	Santa Rita 	8	Agosto	2023-08-24T00:00:00	2024-11-08T04:00:00	3	Temperatura mínima	18.1
113164	7	Sololá	704	Santa Lucía Utatlán 	7	Santa Rita 	8	Agosto	2023-08-24T00:00:00	2024-11-08T04:00:00	5	Humedad	83
113165	7	Sololá	704	Santa Lucía Utatlán 	7	Santa Rita 	8	Agosto	2023-08-24T00:00:00	2024-11-08T04:00:00	6	Velocidad del viento	0
113166	7	Sololá	704	Santa Lucía Utatlán 	7	Santa Rita 	8	Agosto	2023-08-24T00:00:00	2024-11-08T04:00:00	7	Dirección del viento	0
113167	7	Sololá	704	Santa Lucía Utatlán 	7	Santa Rita 	8	Agosto	2023-08-24T00:00:00	2024-11-08T04:00:00	1	Precipitación	0
113168	7	Sololá	704	Santa Lucía Utatlán 	7	Santa Rita 	8	Agosto	2023-08-24T00:00:00	2024-11-08T04:00:00	8	Radiación solar	0
113169	7	Sololá	704	Santa Lucía Utatlán 	7	Santa Rita 	8	Agosto	2023-08-24T00:00:00	2024-11-08T05:00:00	2	Temperatura media	20.8
113170	7	Sololá	704	Santa Lucía Utatlán 	7	Santa Rita 	8	Agosto	2023-08-24T00:00:00	2024-11-08T05:00:00	4	Temperatura máxima	20.8
113171	7	Sololá	704	Santa Lucía Utatlán 	7	Santa Rita 	8	Agosto	2023-08-24T00:00:00	2024-11-08T05:00:00	3	Temperatura mínima	19.7
113172	7	Sololá	704	Santa Lucía Utatlán 	7	Santa Rita 	8	Agosto	2023-08-24T00:00:00	2024-11-08T05:00:00	5	Humedad	81
113173	7	Sololá	704	Santa Lucía Utatlán 	7	Santa Rita 	8	Agosto	2023-08-24T00:00:00	2024-11-08T05:00:00	6	Velocidad del viento	0
113174	7	Sololá	704	Santa Lucía Utatlán 	7	Santa Rita 	8	Agosto	2023-08-24T00:00:00	2024-11-08T05:00:00	7	Dirección del viento	0
113175	7	Sololá	704	Santa Lucía Utatlán 	7	Santa Rita 	8	Agosto	2023-08-24T00:00:00	2024-11-08T05:00:00	1	Precipitación	0
113176	7	Sololá	704	Santa Lucía Utatlán 	7	Santa Rita 	8	Agosto	2023-08-24T00:00:00	2024-11-08T05:00:00	8	Radiación solar	0
113177	7	Sololá	704	Santa Lucía Utatlán 	7	Santa Rita 	8	Agosto	2023-08-24T00:00:00	2024-11-08T06:00:00	2	Temperatura media	21.8
113178	7	Sololá	704	Santa Lucía Utatlán 	7	Santa Rita 	8	Agosto	2023-08-24T00:00:00	2024-11-08T06:00:00	4	Temperatura máxima	21.8
113179	7	Sololá	704	Santa Lucía Utatlán 	7	Santa Rita 	8	Agosto	2023-08-24T00:00:00	2024-11-08T06:00:00	3	Temperatura mínima	20.8
113180	7	Sololá	704	Santa Lucía Utatlán 	7	Santa Rita 	8	Agosto	2023-08-24T00:00:00	2024-11-08T06:00:00	5	Humedad	74
113181	7	Sololá	704	Santa Lucía Utatlán 	7	Santa Rita 	8	Agosto	2023-08-24T00:00:00	2024-11-08T06:00:00	6	Velocidad del viento	1.6
113182	7	Sololá	704	Santa Lucía Utatlán 	7	Santa Rita 	8	Agosto	2023-08-24T00:00:00	2024-11-08T06:00:00	7	Dirección del viento	1.61
113183	7	Sololá	704	Santa Lucía Utatlán 	7	Santa Rita 	8	Agosto	2023-08-24T00:00:00	2024-11-08T06:00:00	1	Precipitación	0
113184	7	Sololá	704	Santa Lucía Utatlán 	7	Santa Rita 	8	Agosto	2023-08-24T00:00:00	2024-11-08T06:00:00	8	Radiación solar	1
113185	7	Sololá	704	Santa Lucía Utatlán 	7	Santa Rita 	8	Agosto	2023-08-24T00:00:00	2024-11-08T07:00:00	2	Temperatura media	22.1
113186	7	Sololá	704	Santa Lucía Utatlán 	7	Santa Rita 	8	Agosto	2023-08-24T00:00:00	2024-11-08T07:00:00	4	Temperatura máxima	22.3
113187	7	Sololá	704	Santa Lucía Utatlán 	7	Santa Rita 	8	Agosto	2023-08-24T00:00:00	2024-11-08T07:00:00	3	Temperatura mínima	21.8
113188	7	Sololá	704	Santa Lucía Utatlán 	7	Santa Rita 	8	Agosto	2023-08-24T00:00:00	2024-11-08T07:00:00	5	Humedad	78
113189	7	Sololá	704	Santa Lucía Utatlán 	7	Santa Rita 	8	Agosto	2023-08-24T00:00:00	2024-11-08T07:00:00	6	Velocidad del viento	3.2
113190	7	Sololá	704	Santa Lucía Utatlán 	7	Santa Rita 	8	Agosto	2023-08-24T00:00:00	2024-11-08T07:00:00	7	Dirección del viento	3.22
113191	7	Sololá	704	Santa Lucía Utatlán 	7	Santa Rita 	8	Agosto	2023-08-24T00:00:00	2024-11-08T07:00:00	1	Precipitación	0
113192	7	Sololá	704	Santa Lucía Utatlán 	7	Santa Rita 	8	Agosto	2023-08-24T00:00:00	2024-11-08T07:00:00	8	Radiación solar	45
113193	7	Sololá	704	Santa Lucía Utatlán 	7	Santa Rita 	8	Agosto	2023-08-24T00:00:00	2024-11-08T08:00:00	2	Temperatura media	22.3
113194	7	Sololá	704	Santa Lucía Utatlán 	7	Santa Rita 	8	Agosto	2023-08-24T00:00:00	2024-11-08T08:00:00	4	Temperatura máxima	22.4
113195	7	Sololá	704	Santa Lucía Utatlán 	7	Santa Rita 	8	Agosto	2023-08-24T00:00:00	2024-11-08T08:00:00	3	Temperatura mínima	21.9
113196	7	Sololá	704	Santa Lucía Utatlán 	7	Santa Rita 	8	Agosto	2023-08-24T00:00:00	2024-11-08T08:00:00	5	Humedad	79
113197	7	Sololá	704	Santa Lucía Utatlán 	7	Santa Rita 	8	Agosto	2023-08-24T00:00:00	2024-11-08T08:00:00	6	Velocidad del viento	6.4
113198	7	Sololá	704	Santa Lucía Utatlán 	7	Santa Rita 	8	Agosto	2023-08-24T00:00:00	2024-11-08T08:00:00	7	Dirección del viento	6.44
113199	7	Sololá	704	Santa Lucía Utatlán 	7	Santa Rita 	8	Agosto	2023-08-24T00:00:00	2024-11-08T08:00:00	1	Precipitación	0
113200	7	Sololá	704	Santa Lucía Utatlán 	7	Santa Rita 	8	Agosto	2023-08-24T00:00:00	2024-11-08T08:00:00	8	Radiación solar	149
113201	7	Sololá	704	Santa Lucía Utatlán 	7	Santa Rita 	8	Agosto	2023-08-24T00:00:00	2024-11-08T09:00:00	2	Temperatura media	21.2
113202	7	Sololá	704	Santa Lucía Utatlán 	7	Santa Rita 	8	Agosto	2023-08-24T00:00:00	2024-11-08T09:00:00	4	Temperatura máxima	22.3
113203	7	Sololá	704	Santa Lucía Utatlán 	7	Santa Rita 	8	Agosto	2023-08-24T00:00:00	2024-11-08T09:00:00	3	Temperatura mínima	21.2
113204	7	Sololá	704	Santa Lucía Utatlán 	7	Santa Rita 	8	Agosto	2023-08-24T00:00:00	2024-11-08T09:00:00	5	Humedad	88
113205	7	Sololá	704	Santa Lucía Utatlán 	7	Santa Rita 	8	Agosto	2023-08-24T00:00:00	2024-11-08T09:00:00	6	Velocidad del viento	3.2
113206	7	Sololá	704	Santa Lucía Utatlán 	7	Santa Rita 	8	Agosto	2023-08-24T00:00:00	2024-11-08T09:00:00	7	Dirección del viento	3.22
113207	7	Sololá	704	Santa Lucía Utatlán 	7	Santa Rita 	8	Agosto	2023-08-24T00:00:00	2024-11-08T09:00:00	1	Precipitación	2
113208	7	Sololá	704	Santa Lucía Utatlán 	7	Santa Rita 	8	Agosto	2023-08-24T00:00:00	2024-11-08T09:00:00	8	Radiación solar	190
113209	7	Sololá	704	Santa Lucía Utatlán 	7	Santa Rita 	8	Agosto	2023-08-24T00:00:00	2024-11-08T10:00:00	2	Temperatura media	19.4
113210	7	Sololá	704	Santa Lucía Utatlán 	7	Santa Rita 	8	Agosto	2023-08-24T00:00:00	2024-11-08T10:00:00	4	Temperatura máxima	21.2
113211	7	Sololá	704	Santa Lucía Utatlán 	7	Santa Rita 	8	Agosto	2023-08-24T00:00:00	2024-11-08T10:00:00	3	Temperatura mínima	19.4
113212	7	Sololá	704	Santa Lucía Utatlán 	7	Santa Rita 	8	Agosto	2023-08-24T00:00:00	2024-11-08T10:00:00	5	Humedad	92
113213	7	Sololá	704	Santa Lucía Utatlán 	7	Santa Rita 	8	Agosto	2023-08-24T00:00:00	2024-11-08T10:00:00	6	Velocidad del viento	4.8
113214	7	Sololá	704	Santa Lucía Utatlán 	7	Santa Rita 	8	Agosto	2023-08-24T00:00:00	2024-11-08T10:00:00	7	Dirección del viento	4.83
113215	7	Sololá	704	Santa Lucía Utatlán 	7	Santa Rita 	8	Agosto	2023-08-24T00:00:00	2024-11-08T10:00:00	1	Precipitación	12.4
113216	7	Sololá	704	Santa Lucía Utatlán 	7	Santa Rita 	8	Agosto	2023-08-24T00:00:00	2024-11-08T10:00:00	8	Radiación solar	295
113217	7	Sololá	704	Santa Lucía Utatlán 	7	Santa Rita 	8	Agosto	2023-08-24T00:00:00	2024-11-08T11:00:00	2	Temperatura media	19.8
113218	7	Sololá	704	Santa Lucía Utatlán 	7	Santa Rita 	8	Agosto	2023-08-24T00:00:00	2024-11-08T11:00:00	4	Temperatura máxima	20.2
113219	7	Sololá	704	Santa Lucía Utatlán 	7	Santa Rita 	8	Agosto	2023-08-24T00:00:00	2024-11-08T11:00:00	3	Temperatura mínima	19.1
113220	7	Sololá	704	Santa Lucía Utatlán 	7	Santa Rita 	8	Agosto	2023-08-24T00:00:00	2024-11-08T11:00:00	5	Humedad	91
113221	7	Sololá	704	Santa Lucía Utatlán 	7	Santa Rita 	8	Agosto	2023-08-24T00:00:00	2024-11-08T11:00:00	6	Velocidad del viento	3.2
113222	7	Sololá	704	Santa Lucía Utatlán 	7	Santa Rita 	8	Agosto	2023-08-24T00:00:00	2024-11-08T11:00:00	7	Dirección del viento	3.22
113223	7	Sololá	704	Santa Lucía Utatlán 	7	Santa Rita 	8	Agosto	2023-08-24T00:00:00	2024-11-08T11:00:00	1	Precipitación	5.4
113224	7	Sololá	704	Santa Lucía Utatlán 	7	Santa Rita 	8	Agosto	2023-08-24T00:00:00	2024-11-08T11:00:00	8	Radiación solar	341
113225	7	Sololá	704	Santa Lucía Utatlán 	7	Santa Rita 	8	Agosto	2023-08-24T00:00:00	2024-11-08T12:00:00	2	Temperatura media	20.1
113226	7	Sololá	704	Santa Lucía Utatlán 	7	Santa Rita 	8	Agosto	2023-08-24T00:00:00	2024-11-08T12:00:00	4	Temperatura máxima	20.1
113227	7	Sololá	704	Santa Lucía Utatlán 	7	Santa Rita 	8	Agosto	2023-08-24T00:00:00	2024-11-08T12:00:00	3	Temperatura mínima	19.6
113228	7	Sololá	704	Santa Lucía Utatlán 	7	Santa Rita 	8	Agosto	2023-08-24T00:00:00	2024-11-08T12:00:00	5	Humedad	93
113229	7	Sololá	704	Santa Lucía Utatlán 	7	Santa Rita 	8	Agosto	2023-08-24T00:00:00	2024-11-08T12:00:00	6	Velocidad del viento	0
113230	7	Sololá	704	Santa Lucía Utatlán 	7	Santa Rita 	8	Agosto	2023-08-24T00:00:00	2024-11-08T12:00:00	7	Dirección del viento	0
113231	7	Sololá	704	Santa Lucía Utatlán 	7	Santa Rita 	8	Agosto	2023-08-24T00:00:00	2024-11-08T12:00:00	1	Precipitación	1.4
113232	7	Sololá	704	Santa Lucía Utatlán 	7	Santa Rita 	8	Agosto	2023-08-24T00:00:00	2024-11-08T12:00:00	8	Radiación solar	441
113233	7	Sololá	704	Santa Lucía Utatlán 	7	Santa Rita 	8	Agosto	2023-08-24T00:00:00	2024-11-08T13:00:00	2	Temperatura media	20
113234	7	Sololá	704	Santa Lucía Utatlán 	7	Santa Rita 	8	Agosto	2023-08-24T00:00:00	2024-11-08T13:00:00	4	Temperatura máxima	20.1
113235	7	Sololá	704	Santa Lucía Utatlán 	7	Santa Rita 	8	Agosto	2023-08-24T00:00:00	2024-11-08T13:00:00	3	Temperatura mínima	19.9
113236	7	Sololá	704	Santa Lucía Utatlán 	7	Santa Rita 	8	Agosto	2023-08-24T00:00:00	2024-11-08T13:00:00	5	Humedad	94
113237	7	Sololá	704	Santa Lucía Utatlán 	7	Santa Rita 	8	Agosto	2023-08-24T00:00:00	2024-11-08T13:00:00	6	Velocidad del viento	0
113238	7	Sololá	704	Santa Lucía Utatlán 	7	Santa Rita 	8	Agosto	2023-08-24T00:00:00	2024-11-08T13:00:00	7	Dirección del viento	0
113239	7	Sololá	704	Santa Lucía Utatlán 	7	Santa Rita 	8	Agosto	2023-08-24T00:00:00	2024-11-08T13:00:00	1	Precipitación	0
113240	7	Sololá	704	Santa Lucía Utatlán 	7	Santa Rita 	8	Agosto	2023-08-24T00:00:00	2024-11-08T13:00:00	8	Radiación solar	168
113241	7	Sololá	704	Santa Lucía Utatlán 	7	Santa Rita 	8	Agosto	2023-08-24T00:00:00	2024-11-08T14:00:00	2	Temperatura media	19.9
113242	7	Sololá	704	Santa Lucía Utatlán 	7	Santa Rita 	8	Agosto	2023-08-24T00:00:00	2024-11-08T14:00:00	4	Temperatura máxima	20.2
113243	7	Sololá	704	Santa Lucía Utatlán 	7	Santa Rita 	8	Agosto	2023-08-24T00:00:00	2024-11-08T14:00:00	3	Temperatura mínima	19.8
113244	7	Sololá	704	Santa Lucía Utatlán 	7	Santa Rita 	8	Agosto	2023-08-24T00:00:00	2024-11-08T14:00:00	5	Humedad	95
113245	7	Sololá	704	Santa Lucía Utatlán 	7	Santa Rita 	8	Agosto	2023-08-24T00:00:00	2024-11-08T14:00:00	6	Velocidad del viento	0
113246	7	Sololá	704	Santa Lucía Utatlán 	7	Santa Rita 	8	Agosto	2023-08-24T00:00:00	2024-11-08T14:00:00	7	Dirección del viento	0
113247	7	Sololá	704	Santa Lucía Utatlán 	7	Santa Rita 	8	Agosto	2023-08-24T00:00:00	2024-11-08T14:00:00	1	Precipitación	0
113248	7	Sololá	704	Santa Lucía Utatlán 	7	Santa Rita 	8	Agosto	2023-08-24T00:00:00	2024-11-08T14:00:00	8	Radiación solar	39
113249	7	Sololá	704	Santa Lucía Utatlán 	7	Santa Rita 	8	Agosto	2023-08-24T00:00:00	2024-11-08T15:00:00	2	Temperatura media	18.8
113250	7	Sololá	704	Santa Lucía Utatlán 	7	Santa Rita 	8	Agosto	2023-08-24T00:00:00	2024-11-08T15:00:00	4	Temperatura máxima	19.9
113251	7	Sololá	704	Santa Lucía Utatlán 	7	Santa Rita 	8	Agosto	2023-08-24T00:00:00	2024-11-08T15:00:00	3	Temperatura mínima	18.8
113252	7	Sololá	704	Santa Lucía Utatlán 	7	Santa Rita 	8	Agosto	2023-08-24T00:00:00	2024-11-08T15:00:00	5	Humedad	94
113253	7	Sololá	704	Santa Lucía Utatlán 	7	Santa Rita 	8	Agosto	2023-08-24T00:00:00	2024-11-08T15:00:00	6	Velocidad del viento	1.6
113254	7	Sololá	704	Santa Lucía Utatlán 	7	Santa Rita 	8	Agosto	2023-08-24T00:00:00	2024-11-08T15:00:00	7	Dirección del viento	1.61
113255	7	Sololá	704	Santa Lucía Utatlán 	7	Santa Rita 	8	Agosto	2023-08-24T00:00:00	2024-11-08T15:00:00	1	Precipitación	0
113256	7	Sololá	704	Santa Lucía Utatlán 	7	Santa Rita 	8	Agosto	2023-08-24T00:00:00	2024-11-08T15:00:00	8	Radiación solar	159
113257	7	Sololá	704	Santa Lucía Utatlán 	7	Santa Rita 	8	Agosto	2023-08-24T00:00:00	2024-11-08T16:00:00	2	Temperatura media	18.4
113258	7	Sololá	704	Santa Lucía Utatlán 	7	Santa Rita 	8	Agosto	2023-08-24T00:00:00	2024-11-08T16:00:00	4	Temperatura máxima	18.8
113259	7	Sololá	704	Santa Lucía Utatlán 	7	Santa Rita 	8	Agosto	2023-08-24T00:00:00	2024-11-08T16:00:00	3	Temperatura mínima	18.3
113260	7	Sololá	704	Santa Lucía Utatlán 	7	Santa Rita 	8	Agosto	2023-08-24T00:00:00	2024-11-08T16:00:00	5	Humedad	94
113261	7	Sololá	704	Santa Lucía Utatlán 	7	Santa Rita 	8	Agosto	2023-08-24T00:00:00	2024-11-08T16:00:00	6	Velocidad del viento	3.2
113262	7	Sololá	704	Santa Lucía Utatlán 	7	Santa Rita 	8	Agosto	2023-08-24T00:00:00	2024-11-08T16:00:00	7	Dirección del viento	3.22
113263	7	Sololá	704	Santa Lucía Utatlán 	7	Santa Rita 	8	Agosto	2023-08-24T00:00:00	2024-11-08T16:00:00	1	Precipitación	0
113264	7	Sololá	704	Santa Lucía Utatlán 	7	Santa Rita 	8	Agosto	2023-08-24T00:00:00	2024-11-08T16:00:00	8	Radiación solar	130
113265	7	Sololá	704	Santa Lucía Utatlán 	7	Santa Rita 	8	Agosto	2023-08-24T00:00:00	2024-11-08T17:00:00	2	Temperatura media	18.5
113266	7	Sololá	704	Santa Lucía Utatlán 	7	Santa Rita 	8	Agosto	2023-08-24T00:00:00	2024-11-08T17:00:00	4	Temperatura máxima	18.6
113267	7	Sololá	704	Santa Lucía Utatlán 	7	Santa Rita 	8	Agosto	2023-08-24T00:00:00	2024-11-08T17:00:00	3	Temperatura mínima	18.4
113268	7	Sololá	704	Santa Lucía Utatlán 	7	Santa Rita 	8	Agosto	2023-08-24T00:00:00	2024-11-08T17:00:00	5	Humedad	93
113269	7	Sololá	704	Santa Lucía Utatlán 	7	Santa Rita 	8	Agosto	2023-08-24T00:00:00	2024-11-08T17:00:00	6	Velocidad del viento	3.2
113270	7	Sololá	704	Santa Lucía Utatlán 	7	Santa Rita 	8	Agosto	2023-08-24T00:00:00	2024-11-08T17:00:00	7	Dirección del viento	3.22
113271	7	Sololá	704	Santa Lucía Utatlán 	7	Santa Rita 	8	Agosto	2023-08-24T00:00:00	2024-11-08T17:00:00	1	Precipitación	0
113272	7	Sololá	704	Santa Lucía Utatlán 	7	Santa Rita 	8	Agosto	2023-08-24T00:00:00	2024-11-08T17:00:00	8	Radiación solar	78
113273	7	Sololá	704	Santa Lucía Utatlán 	7	Santa Rita 	8	Agosto	2023-08-24T00:00:00	2024-11-08T18:00:00	2	Temperatura media	17.6
113274	7	Sololá	704	Santa Lucía Utatlán 	7	Santa Rita 	8	Agosto	2023-08-24T00:00:00	2024-11-08T18:00:00	4	Temperatura máxima	18.6
113275	7	Sololá	704	Santa Lucía Utatlán 	7	Santa Rita 	8	Agosto	2023-08-24T00:00:00	2024-11-08T18:00:00	3	Temperatura mínima	17.6
113276	7	Sololá	704	Santa Lucía Utatlán 	7	Santa Rita 	8	Agosto	2023-08-24T00:00:00	2024-11-08T18:00:00	5	Humedad	94
113277	7	Sololá	704	Santa Lucía Utatlán 	7	Santa Rita 	8	Agosto	2023-08-24T00:00:00	2024-11-08T18:00:00	6	Velocidad del viento	3.2
113278	7	Sololá	704	Santa Lucía Utatlán 	7	Santa Rita 	8	Agosto	2023-08-24T00:00:00	2024-11-08T18:00:00	7	Dirección del viento	3.22
113279	7	Sololá	704	Santa Lucía Utatlán 	7	Santa Rita 	8	Agosto	2023-08-24T00:00:00	2024-11-08T18:00:00	1	Precipitación	0
113280	7	Sololá	704	Santa Lucía Utatlán 	7	Santa Rita 	8	Agosto	2023-08-24T00:00:00	2024-11-08T18:00:00	8	Radiación solar	41
113281	7	Sololá	704	Santa Lucía Utatlán 	7	Santa Rita 	8	Agosto	2023-08-24T00:00:00	2024-11-08T19:00:00	2	Temperatura media	17.1
113282	7	Sololá	704	Santa Lucía Utatlán 	7	Santa Rita 	8	Agosto	2023-08-24T00:00:00	2024-11-08T19:00:00	4	Temperatura máxima	17.6
113283	7	Sololá	704	Santa Lucía Utatlán 	7	Santa Rita 	8	Agosto	2023-08-24T00:00:00	2024-11-08T19:00:00	3	Temperatura mínima	17.1
113284	7	Sololá	704	Santa Lucía Utatlán 	7	Santa Rita 	8	Agosto	2023-08-24T00:00:00	2024-11-08T19:00:00	5	Humedad	94
113285	7	Sololá	704	Santa Lucía Utatlán 	7	Santa Rita 	8	Agosto	2023-08-24T00:00:00	2024-11-08T19:00:00	6	Velocidad del viento	4.8
113286	7	Sololá	704	Santa Lucía Utatlán 	7	Santa Rita 	8	Agosto	2023-08-24T00:00:00	2024-11-08T19:00:00	7	Dirección del viento	4.83
113287	7	Sololá	704	Santa Lucía Utatlán 	7	Santa Rita 	8	Agosto	2023-08-24T00:00:00	2024-11-08T19:00:00	1	Precipitación	0
113288	7	Sololá	704	Santa Lucía Utatlán 	7	Santa Rita 	8	Agosto	2023-08-24T00:00:00	2024-11-08T19:00:00	8	Radiación solar	0
113289	7	Sololá	704	Santa Lucía Utatlán 	7	Santa Rita 	8	Agosto	2023-08-24T00:00:00	2024-11-08T20:00:00	2	Temperatura media	16.8
113290	7	Sololá	704	Santa Lucía Utatlán 	7	Santa Rita 	8	Agosto	2023-08-24T00:00:00	2024-11-08T20:00:00	4	Temperatura máxima	17.2
113291	7	Sololá	704	Santa Lucía Utatlán 	7	Santa Rita 	8	Agosto	2023-08-24T00:00:00	2024-11-08T20:00:00	3	Temperatura mínima	16.7
113292	7	Sololá	704	Santa Lucía Utatlán 	7	Santa Rita 	8	Agosto	2023-08-24T00:00:00	2024-11-08T20:00:00	5	Humedad	95
113293	7	Sololá	704	Santa Lucía Utatlán 	7	Santa Rita 	8	Agosto	2023-08-24T00:00:00	2024-11-08T20:00:00	6	Velocidad del viento	3.2
113294	7	Sololá	704	Santa Lucía Utatlán 	7	Santa Rita 	8	Agosto	2023-08-24T00:00:00	2024-11-08T20:00:00	7	Dirección del viento	3.22
113295	7	Sololá	704	Santa Lucía Utatlán 	7	Santa Rita 	8	Agosto	2023-08-24T00:00:00	2024-11-08T20:00:00	1	Precipitación	0
113296	7	Sololá	704	Santa Lucía Utatlán 	7	Santa Rita 	8	Agosto	2023-08-24T00:00:00	2024-11-08T20:00:00	8	Radiación solar	0
113297	7	Sololá	704	Santa Lucía Utatlán 	7	Santa Rita 	8	Agosto	2023-08-24T00:00:00	2024-11-08T21:00:00	2	Temperatura media	16.7
113298	7	Sololá	704	Santa Lucía Utatlán 	7	Santa Rita 	8	Agosto	2023-08-24T00:00:00	2024-11-08T21:00:00	4	Temperatura máxima	17.1
113299	7	Sololá	704	Santa Lucía Utatlán 	7	Santa Rita 	8	Agosto	2023-08-24T00:00:00	2024-11-08T21:00:00	3	Temperatura mínima	16.6
113300	7	Sololá	704	Santa Lucía Utatlán 	7	Santa Rita 	8	Agosto	2023-08-24T00:00:00	2024-11-08T21:00:00	5	Humedad	95
113301	7	Sololá	704	Santa Lucía Utatlán 	7	Santa Rita 	8	Agosto	2023-08-24T00:00:00	2024-11-08T21:00:00	6	Velocidad del viento	3.2
113302	7	Sololá	704	Santa Lucía Utatlán 	7	Santa Rita 	8	Agosto	2023-08-24T00:00:00	2024-11-08T21:00:00	7	Dirección del viento	3.22
113303	7	Sololá	704	Santa Lucía Utatlán 	7	Santa Rita 	8	Agosto	2023-08-24T00:00:00	2024-11-08T21:00:00	1	Precipitación	0
113304	7	Sololá	704	Santa Lucía Utatlán 	7	Santa Rita 	8	Agosto	2023-08-24T00:00:00	2024-11-08T21:00:00	8	Radiación solar	0
113305	7	Sololá	704	Santa Lucía Utatlán 	7	Santa Rita 	8	Agosto	2023-08-24T00:00:00	2024-11-08T22:00:00	2	Temperatura media	16.4
113306	7	Sololá	704	Santa Lucía Utatlán 	7	Santa Rita 	8	Agosto	2023-08-24T00:00:00	2024-11-08T22:00:00	4	Temperatura máxima	16.7
113307	7	Sololá	704	Santa Lucía Utatlán 	7	Santa Rita 	8	Agosto	2023-08-24T00:00:00	2024-11-08T22:00:00	3	Temperatura mínima	16.4
113308	7	Sololá	704	Santa Lucía Utatlán 	7	Santa Rita 	8	Agosto	2023-08-24T00:00:00	2024-11-08T22:00:00	5	Humedad	95
113309	7	Sololá	704	Santa Lucía Utatlán 	7	Santa Rita 	8	Agosto	2023-08-24T00:00:00	2024-11-08T22:00:00	6	Velocidad del viento	3.2
113310	7	Sololá	704	Santa Lucía Utatlán 	7	Santa Rita 	8	Agosto	2023-08-24T00:00:00	2024-11-08T22:00:00	7	Dirección del viento	3.22
113311	7	Sololá	704	Santa Lucía Utatlán 	7	Santa Rita 	8	Agosto	2023-08-24T00:00:00	2024-11-08T22:00:00	1	Precipitación	0
113312	7	Sololá	704	Santa Lucía Utatlán 	7	Santa Rita 	8	Agosto	2023-08-24T00:00:00	2024-11-08T22:00:00	8	Radiación solar	0
113313	7	Sololá	704	Santa Lucía Utatlán 	7	Santa Rita 	8	Agosto	2023-08-24T00:00:00	2024-11-08T23:00:00	2	Temperatura media	17.1
113314	7	Sololá	704	Santa Lucía Utatlán 	7	Santa Rita 	8	Agosto	2023-08-24T00:00:00	2024-11-08T23:00:00	4	Temperatura máxima	17.2
113315	7	Sololá	704	Santa Lucía Utatlán 	7	Santa Rita 	8	Agosto	2023-08-24T00:00:00	2024-11-08T23:00:00	3	Temperatura mínima	16.4
113316	7	Sololá	704	Santa Lucía Utatlán 	7	Santa Rita 	8	Agosto	2023-08-24T00:00:00	2024-11-08T23:00:00	5	Humedad	94
113317	7	Sololá	704	Santa Lucía Utatlán 	7	Santa Rita 	8	Agosto	2023-08-24T00:00:00	2024-11-08T23:00:00	6	Velocidad del viento	3.2
113318	7	Sololá	704	Santa Lucía Utatlán 	7	Santa Rita 	8	Agosto	2023-08-24T00:00:00	2024-11-08T23:00:00	7	Dirección del viento	3.22
113319	7	Sololá	704	Santa Lucía Utatlán 	7	Santa Rita 	8	Agosto	2023-08-24T00:00:00	2024-11-08T23:00:00	1	Precipitación	0
113320	7	Sololá	704	Santa Lucía Utatlán 	7	Santa Rita 	8	Agosto	2023-08-24T00:00:00	2024-11-08T23:00:00	8	Radiación solar	0
113321	7	Sololá	704	Santa Lucía Utatlán 	7	Santa Rita 	8	Agosto	2023-08-25T00:00:00	2024-11-08T00:00:00	2	Temperatura media	17.3
113322	7	Sololá	704	Santa Lucía Utatlán 	7	Santa Rita 	8	Agosto	2023-08-25T00:00:00	2024-11-08T00:00:00	4	Temperatura máxima	17.3
113323	7	Sololá	704	Santa Lucía Utatlán 	7	Santa Rita 	8	Agosto	2023-08-25T00:00:00	2024-11-08T00:00:00	3	Temperatura mínima	16.8
113324	7	Sololá	704	Santa Lucía Utatlán 	7	Santa Rita 	8	Agosto	2023-08-25T00:00:00	2024-11-08T00:00:00	5	Humedad	93
113325	7	Sololá	704	Santa Lucía Utatlán 	7	Santa Rita 	8	Agosto	2023-08-25T00:00:00	2024-11-08T00:00:00	6	Velocidad del viento	4.8
113326	7	Sololá	704	Santa Lucía Utatlán 	7	Santa Rita 	8	Agosto	2023-08-25T00:00:00	2024-11-08T00:00:00	7	Dirección del viento	4.83
113327	7	Sololá	704	Santa Lucía Utatlán 	7	Santa Rita 	8	Agosto	2023-08-25T00:00:00	2024-11-08T00:00:00	1	Precipitación	0
113328	7	Sololá	704	Santa Lucía Utatlán 	7	Santa Rita 	8	Agosto	2023-08-25T00:00:00	2024-11-08T00:00:00	8	Radiación solar	0
113329	7	Sololá	704	Santa Lucía Utatlán 	7	Santa Rita 	8	Agosto	2023-08-25T00:00:00	2024-11-08T01:00:00	2	Temperatura media	16.8
113330	7	Sololá	704	Santa Lucía Utatlán 	7	Santa Rita 	8	Agosto	2023-08-25T00:00:00	2024-11-08T01:00:00	4	Temperatura máxima	17.3
113331	7	Sololá	704	Santa Lucía Utatlán 	7	Santa Rita 	8	Agosto	2023-08-25T00:00:00	2024-11-08T01:00:00	3	Temperatura mínima	16.6
113332	7	Sololá	704	Santa Lucía Utatlán 	7	Santa Rita 	8	Agosto	2023-08-25T00:00:00	2024-11-08T01:00:00	5	Humedad	94
113333	7	Sololá	704	Santa Lucía Utatlán 	7	Santa Rita 	8	Agosto	2023-08-25T00:00:00	2024-11-08T01:00:00	6	Velocidad del viento	3.2
113334	7	Sololá	704	Santa Lucía Utatlán 	7	Santa Rita 	8	Agosto	2023-08-25T00:00:00	2024-11-08T01:00:00	7	Dirección del viento	3.22
113335	7	Sololá	704	Santa Lucía Utatlán 	7	Santa Rita 	8	Agosto	2023-08-25T00:00:00	2024-11-08T01:00:00	1	Precipitación	0
113336	7	Sololá	704	Santa Lucía Utatlán 	7	Santa Rita 	8	Agosto	2023-08-25T00:00:00	2024-11-08T01:00:00	8	Radiación solar	0
113337	7	Sololá	704	Santa Lucía Utatlán 	7	Santa Rita 	8	Agosto	2023-08-25T00:00:00	2024-11-08T02:00:00	2	Temperatura media	16.9
113338	7	Sololá	704	Santa Lucía Utatlán 	7	Santa Rita 	8	Agosto	2023-08-25T00:00:00	2024-11-08T02:00:00	4	Temperatura máxima	17.2
113339	7	Sololá	704	Santa Lucía Utatlán 	7	Santa Rita 	8	Agosto	2023-08-25T00:00:00	2024-11-08T02:00:00	3	Temperatura mínima	16.8
113340	7	Sololá	704	Santa Lucía Utatlán 	7	Santa Rita 	8	Agosto	2023-08-25T00:00:00	2024-11-08T02:00:00	5	Humedad	93
113341	7	Sololá	704	Santa Lucía Utatlán 	7	Santa Rita 	8	Agosto	2023-08-25T00:00:00	2024-11-08T02:00:00	6	Velocidad del viento	3.2
113342	7	Sololá	704	Santa Lucía Utatlán 	7	Santa Rita 	8	Agosto	2023-08-25T00:00:00	2024-11-08T02:00:00	7	Dirección del viento	3.22
113343	7	Sololá	704	Santa Lucía Utatlán 	7	Santa Rita 	8	Agosto	2023-08-25T00:00:00	2024-11-08T02:00:00	1	Precipitación	0
113344	7	Sololá	704	Santa Lucía Utatlán 	7	Santa Rita 	8	Agosto	2023-08-25T00:00:00	2024-11-08T02:00:00	8	Radiación solar	0
113345	7	Sololá	704	Santa Lucía Utatlán 	7	Santa Rita 	8	Agosto	2023-08-25T00:00:00	2024-11-08T03:00:00	2	Temperatura media	18
113346	7	Sololá	704	Santa Lucía Utatlán 	7	Santa Rita 	8	Agosto	2023-08-25T00:00:00	2024-11-08T03:00:00	4	Temperatura máxima	18
113347	7	Sololá	704	Santa Lucía Utatlán 	7	Santa Rita 	8	Agosto	2023-08-25T00:00:00	2024-11-08T03:00:00	3	Temperatura mínima	16.8
113348	7	Sololá	704	Santa Lucía Utatlán 	7	Santa Rita 	8	Agosto	2023-08-25T00:00:00	2024-11-08T03:00:00	5	Humedad	91
113349	7	Sololá	704	Santa Lucía Utatlán 	7	Santa Rita 	8	Agosto	2023-08-25T00:00:00	2024-11-08T03:00:00	6	Velocidad del viento	3.2
113350	7	Sololá	704	Santa Lucía Utatlán 	7	Santa Rita 	8	Agosto	2023-08-25T00:00:00	2024-11-08T03:00:00	7	Dirección del viento	3.22
113351	7	Sololá	704	Santa Lucía Utatlán 	7	Santa Rita 	8	Agosto	2023-08-25T00:00:00	2024-11-08T03:00:00	1	Precipitación	0
113352	7	Sololá	704	Santa Lucía Utatlán 	7	Santa Rita 	8	Agosto	2023-08-25T00:00:00	2024-11-08T03:00:00	8	Radiación solar	0
113353	7	Sololá	704	Santa Lucía Utatlán 	7	Santa Rita 	8	Agosto	2023-08-25T00:00:00	2024-11-08T04:00:00	2	Temperatura media	21.6
113354	7	Sololá	704	Santa Lucía Utatlán 	7	Santa Rita 	8	Agosto	2023-08-25T00:00:00	2024-11-08T04:00:00	4	Temperatura máxima	21.6
113355	7	Sololá	704	Santa Lucía Utatlán 	7	Santa Rita 	8	Agosto	2023-08-25T00:00:00	2024-11-08T04:00:00	3	Temperatura mínima	18
113356	7	Sololá	704	Santa Lucía Utatlán 	7	Santa Rita 	8	Agosto	2023-08-25T00:00:00	2024-11-08T04:00:00	5	Humedad	79
113357	7	Sololá	704	Santa Lucía Utatlán 	7	Santa Rita 	8	Agosto	2023-08-25T00:00:00	2024-11-08T04:00:00	6	Velocidad del viento	1.6
113358	7	Sololá	704	Santa Lucía Utatlán 	7	Santa Rita 	8	Agosto	2023-08-25T00:00:00	2024-11-08T04:00:00	7	Dirección del viento	1.61
113359	7	Sololá	704	Santa Lucía Utatlán 	7	Santa Rita 	8	Agosto	2023-08-25T00:00:00	2024-11-08T04:00:00	1	Precipitación	0
113360	7	Sololá	704	Santa Lucía Utatlán 	7	Santa Rita 	8	Agosto	2023-08-25T00:00:00	2024-11-08T04:00:00	8	Radiación solar	0
113361	7	Sololá	704	Santa Lucía Utatlán 	7	Santa Rita 	8	Agosto	2023-08-25T00:00:00	2024-11-08T05:00:00	2	Temperatura media	23.7
113362	7	Sololá	704	Santa Lucía Utatlán 	7	Santa Rita 	8	Agosto	2023-08-25T00:00:00	2024-11-08T05:00:00	4	Temperatura máxima	23.7
113363	7	Sololá	704	Santa Lucía Utatlán 	7	Santa Rita 	8	Agosto	2023-08-25T00:00:00	2024-11-08T05:00:00	3	Temperatura mínima	21.5
113364	7	Sololá	704	Santa Lucía Utatlán 	7	Santa Rita 	8	Agosto	2023-08-25T00:00:00	2024-11-08T05:00:00	5	Humedad	78
113365	7	Sololá	704	Santa Lucía Utatlán 	7	Santa Rita 	8	Agosto	2023-08-25T00:00:00	2024-11-08T05:00:00	6	Velocidad del viento	3.2
113366	7	Sololá	704	Santa Lucía Utatlán 	7	Santa Rita 	8	Agosto	2023-08-25T00:00:00	2024-11-08T05:00:00	7	Dirección del viento	3.22
113367	7	Sololá	704	Santa Lucía Utatlán 	7	Santa Rita 	8	Agosto	2023-08-25T00:00:00	2024-11-08T05:00:00	1	Precipitación	0
113368	7	Sololá	704	Santa Lucía Utatlán 	7	Santa Rita 	8	Agosto	2023-08-25T00:00:00	2024-11-08T05:00:00	8	Radiación solar	0
113369	7	Sololá	704	Santa Lucía Utatlán 	7	Santa Rita 	8	Agosto	2023-08-25T00:00:00	2024-11-08T06:00:00	2	Temperatura media	24.9
113370	7	Sololá	704	Santa Lucía Utatlán 	7	Santa Rita 	8	Agosto	2023-08-25T00:00:00	2024-11-08T06:00:00	4	Temperatura máxima	25.3
113371	7	Sololá	704	Santa Lucía Utatlán 	7	Santa Rita 	8	Agosto	2023-08-25T00:00:00	2024-11-08T06:00:00	3	Temperatura mínima	23.7
113372	7	Sololá	704	Santa Lucía Utatlán 	7	Santa Rita 	8	Agosto	2023-08-25T00:00:00	2024-11-08T06:00:00	5	Humedad	74
113373	7	Sololá	704	Santa Lucía Utatlán 	7	Santa Rita 	8	Agosto	2023-08-25T00:00:00	2024-11-08T06:00:00	6	Velocidad del viento	4.8
113374	7	Sololá	704	Santa Lucía Utatlán 	7	Santa Rita 	8	Agosto	2023-08-25T00:00:00	2024-11-08T06:00:00	7	Dirección del viento	4.83
113375	7	Sololá	704	Santa Lucía Utatlán 	7	Santa Rita 	8	Agosto	2023-08-25T00:00:00	2024-11-08T06:00:00	1	Precipitación	0
113376	7	Sololá	704	Santa Lucía Utatlán 	7	Santa Rita 	8	Agosto	2023-08-25T00:00:00	2024-11-08T06:00:00	8	Radiación solar	4
113377	7	Sololá	704	Santa Lucía Utatlán 	7	Santa Rita 	8	Agosto	2023-08-25T00:00:00	2024-11-08T07:00:00	2	Temperatura media	24.2
113378	7	Sololá	704	Santa Lucía Utatlán 	7	Santa Rita 	8	Agosto	2023-08-25T00:00:00	2024-11-08T07:00:00	4	Temperatura máxima	24.8
113379	7	Sololá	704	Santa Lucía Utatlán 	7	Santa Rita 	8	Agosto	2023-08-25T00:00:00	2024-11-08T07:00:00	3	Temperatura mínima	23.6
113380	7	Sololá	704	Santa Lucía Utatlán 	7	Santa Rita 	8	Agosto	2023-08-25T00:00:00	2024-11-08T07:00:00	5	Humedad	81
113381	7	Sololá	704	Santa Lucía Utatlán 	7	Santa Rita 	8	Agosto	2023-08-25T00:00:00	2024-11-08T07:00:00	6	Velocidad del viento	6.4
113382	7	Sololá	704	Santa Lucía Utatlán 	7	Santa Rita 	8	Agosto	2023-08-25T00:00:00	2024-11-08T07:00:00	7	Dirección del viento	6.44
113383	7	Sololá	704	Santa Lucía Utatlán 	7	Santa Rita 	8	Agosto	2023-08-25T00:00:00	2024-11-08T07:00:00	1	Precipitación	0
113384	7	Sololá	704	Santa Lucía Utatlán 	7	Santa Rita 	8	Agosto	2023-08-25T00:00:00	2024-11-08T07:00:00	8	Radiación solar	54
113385	7	Sololá	704	Santa Lucía Utatlán 	7	Santa Rita 	8	Agosto	2023-08-25T00:00:00	2024-11-08T08:00:00	2	Temperatura media	24.1
113386	7	Sololá	704	Santa Lucía Utatlán 	7	Santa Rita 	8	Agosto	2023-08-25T00:00:00	2024-11-08T08:00:00	4	Temperatura máxima	24.5
113387	7	Sololá	704	Santa Lucía Utatlán 	7	Santa Rita 	8	Agosto	2023-08-25T00:00:00	2024-11-08T08:00:00	3	Temperatura mínima	23.4
113388	7	Sololá	704	Santa Lucía Utatlán 	7	Santa Rita 	8	Agosto	2023-08-25T00:00:00	2024-11-08T08:00:00	5	Humedad	78
113389	7	Sololá	704	Santa Lucía Utatlán 	7	Santa Rita 	8	Agosto	2023-08-25T00:00:00	2024-11-08T08:00:00	6	Velocidad del viento	6.4
113390	7	Sololá	704	Santa Lucía Utatlán 	7	Santa Rita 	8	Agosto	2023-08-25T00:00:00	2024-11-08T08:00:00	7	Dirección del viento	6.44
113391	7	Sololá	704	Santa Lucía Utatlán 	7	Santa Rita 	8	Agosto	2023-08-25T00:00:00	2024-11-08T08:00:00	1	Precipitación	0
113392	7	Sololá	704	Santa Lucía Utatlán 	7	Santa Rita 	8	Agosto	2023-08-25T00:00:00	2024-11-08T08:00:00	8	Radiación solar	297
113393	7	Sololá	704	Santa Lucía Utatlán 	7	Santa Rita 	8	Agosto	2023-08-25T00:00:00	2024-11-08T09:00:00	2	Temperatura media	22.7
113394	7	Sololá	704	Santa Lucía Utatlán 	7	Santa Rita 	8	Agosto	2023-08-25T00:00:00	2024-11-08T09:00:00	4	Temperatura máxima	24.1
113395	7	Sololá	704	Santa Lucía Utatlán 	7	Santa Rita 	8	Agosto	2023-08-25T00:00:00	2024-11-08T09:00:00	3	Temperatura mínima	22.7
113396	7	Sololá	704	Santa Lucía Utatlán 	7	Santa Rita 	8	Agosto	2023-08-25T00:00:00	2024-11-08T09:00:00	5	Humedad	83
113397	7	Sololá	704	Santa Lucía Utatlán 	7	Santa Rita 	8	Agosto	2023-08-25T00:00:00	2024-11-08T09:00:00	6	Velocidad del viento	6.4
113398	7	Sololá	704	Santa Lucía Utatlán 	7	Santa Rita 	8	Agosto	2023-08-25T00:00:00	2024-11-08T09:00:00	7	Dirección del viento	6.44
113399	7	Sololá	704	Santa Lucía Utatlán 	7	Santa Rita 	8	Agosto	2023-08-25T00:00:00	2024-11-08T09:00:00	1	Precipitación	0
113400	7	Sololá	704	Santa Lucía Utatlán 	7	Santa Rita 	8	Agosto	2023-08-25T00:00:00	2024-11-08T09:00:00	8	Radiación solar	641
113401	7	Sololá	704	Santa Lucía Utatlán 	7	Santa Rita 	8	Agosto	2023-08-25T00:00:00	2024-11-08T10:00:00	2	Temperatura media	24.7
113402	7	Sololá	704	Santa Lucía Utatlán 	7	Santa Rita 	8	Agosto	2023-08-25T00:00:00	2024-11-08T10:00:00	4	Temperatura máxima	24.7
113403	7	Sololá	704	Santa Lucía Utatlán 	7	Santa Rita 	8	Agosto	2023-08-25T00:00:00	2024-11-08T10:00:00	3	Temperatura mínima	22.7
113404	7	Sololá	704	Santa Lucía Utatlán 	7	Santa Rita 	8	Agosto	2023-08-25T00:00:00	2024-11-08T10:00:00	5	Humedad	70
113405	7	Sololá	704	Santa Lucía Utatlán 	7	Santa Rita 	8	Agosto	2023-08-25T00:00:00	2024-11-08T10:00:00	6	Velocidad del viento	8
113406	7	Sololá	704	Santa Lucía Utatlán 	7	Santa Rita 	8	Agosto	2023-08-25T00:00:00	2024-11-08T10:00:00	7	Dirección del viento	8.05
113407	7	Sololá	704	Santa Lucía Utatlán 	7	Santa Rita 	8	Agosto	2023-08-25T00:00:00	2024-11-08T10:00:00	1	Precipitación	0
113408	7	Sololá	704	Santa Lucía Utatlán 	7	Santa Rita 	8	Agosto	2023-08-25T00:00:00	2024-11-08T10:00:00	8	Radiación solar	917
113409	7	Sololá	704	Santa Lucía Utatlán 	7	Santa Rita 	8	Agosto	2023-08-25T00:00:00	2024-11-08T11:00:00	2	Temperatura media	23.2
113410	7	Sololá	704	Santa Lucía Utatlán 	7	Santa Rita 	8	Agosto	2023-08-25T00:00:00	2024-11-08T11:00:00	4	Temperatura máxima	24.8
113411	7	Sololá	704	Santa Lucía Utatlán 	7	Santa Rita 	8	Agosto	2023-08-25T00:00:00	2024-11-08T11:00:00	3	Temperatura mínima	23.1
113412	7	Sololá	704	Santa Lucía Utatlán 	7	Santa Rita 	8	Agosto	2023-08-25T00:00:00	2024-11-08T11:00:00	5	Humedad	80
113413	7	Sololá	704	Santa Lucía Utatlán 	7	Santa Rita 	8	Agosto	2023-08-25T00:00:00	2024-11-08T11:00:00	6	Velocidad del viento	6.4
113414	7	Sololá	704	Santa Lucía Utatlán 	7	Santa Rita 	8	Agosto	2023-08-25T00:00:00	2024-11-08T11:00:00	7	Dirección del viento	6.44
113415	7	Sololá	704	Santa Lucía Utatlán 	7	Santa Rita 	8	Agosto	2023-08-25T00:00:00	2024-11-08T11:00:00	1	Precipitación	0
113416	7	Sololá	704	Santa Lucía Utatlán 	7	Santa Rita 	8	Agosto	2023-08-25T00:00:00	2024-11-08T11:00:00	8	Radiación solar	682
113417	7	Sololá	704	Santa Lucía Utatlán 	7	Santa Rita 	8	Agosto	2023-08-25T00:00:00	2024-11-08T12:00:00	2	Temperatura media	22.6
113418	7	Sololá	704	Santa Lucía Utatlán 	7	Santa Rita 	8	Agosto	2023-08-25T00:00:00	2024-11-08T12:00:00	4	Temperatura máxima	23.4
113419	7	Sololá	704	Santa Lucía Utatlán 	7	Santa Rita 	8	Agosto	2023-08-25T00:00:00	2024-11-08T12:00:00	3	Temperatura mínima	22.6
113420	7	Sololá	704	Santa Lucía Utatlán 	7	Santa Rita 	8	Agosto	2023-08-25T00:00:00	2024-11-08T12:00:00	5	Humedad	80
113421	7	Sololá	704	Santa Lucía Utatlán 	7	Santa Rita 	8	Agosto	2023-08-25T00:00:00	2024-11-08T12:00:00	6	Velocidad del viento	4.8
113422	7	Sololá	704	Santa Lucía Utatlán 	7	Santa Rita 	8	Agosto	2023-08-25T00:00:00	2024-11-08T12:00:00	7	Dirección del viento	4.83
113423	7	Sololá	704	Santa Lucía Utatlán 	7	Santa Rita 	8	Agosto	2023-08-25T00:00:00	2024-11-08T12:00:00	1	Precipitación	0
113424	7	Sololá	704	Santa Lucía Utatlán 	7	Santa Rita 	8	Agosto	2023-08-25T00:00:00	2024-11-08T12:00:00	8	Radiación solar	321
113425	7	Sololá	704	Santa Lucía Utatlán 	7	Santa Rita 	8	Agosto	2023-08-25T00:00:00	2024-11-08T13:00:00	2	Temperatura media	25.7
113426	7	Sololá	704	Santa Lucía Utatlán 	7	Santa Rita 	8	Agosto	2023-08-25T00:00:00	2024-11-08T13:00:00	4	Temperatura máxima	25.9
113427	7	Sololá	704	Santa Lucía Utatlán 	7	Santa Rita 	8	Agosto	2023-08-25T00:00:00	2024-11-08T13:00:00	3	Temperatura mínima	25.4
113428	7	Sololá	704	Santa Lucía Utatlán 	7	Santa Rita 	8	Agosto	2023-08-25T00:00:00	2024-11-08T13:00:00	5	Humedad	48
113429	7	Sololá	704	Santa Lucía Utatlán 	7	Santa Rita 	8	Agosto	2023-08-25T00:00:00	2024-11-08T13:00:00	6	Velocidad del viento	12.9
113430	7	Sololá	704	Santa Lucía Utatlán 	7	Santa Rita 	8	Agosto	2023-08-25T00:00:00	2024-11-08T13:00:00	7	Dirección del viento	12.87
113431	7	Sololá	704	Santa Lucía Utatlán 	7	Santa Rita 	8	Agosto	2023-08-25T00:00:00	2024-11-08T13:00:00	1	Precipitación	0
113432	7	Sololá	704	Santa Lucía Utatlán 	7	Santa Rita 	8	Agosto	2023-08-25T00:00:00	2024-11-08T13:00:00	8	Radiación solar	226
113433	7	Sololá	704	Santa Lucía Utatlán 	7	Santa Rita 	8	Agosto	2023-08-25T00:00:00	2024-11-08T14:00:00	2	Temperatura media	25.4
113434	7	Sololá	704	Santa Lucía Utatlán 	7	Santa Rita 	8	Agosto	2023-08-25T00:00:00	2024-11-08T14:00:00	4	Temperatura máxima	25.8
113435	7	Sololá	704	Santa Lucía Utatlán 	7	Santa Rita 	8	Agosto	2023-08-25T00:00:00	2024-11-08T14:00:00	3	Temperatura mínima	25.4
113436	7	Sololá	704	Santa Lucía Utatlán 	7	Santa Rita 	8	Agosto	2023-08-25T00:00:00	2024-11-08T14:00:00	5	Humedad	50
113437	7	Sololá	704	Santa Lucía Utatlán 	7	Santa Rita 	8	Agosto	2023-08-25T00:00:00	2024-11-08T14:00:00	6	Velocidad del viento	12.9
113438	7	Sololá	704	Santa Lucía Utatlán 	7	Santa Rita 	8	Agosto	2023-08-25T00:00:00	2024-11-08T14:00:00	7	Dirección del viento	12.87
113439	7	Sololá	704	Santa Lucía Utatlán 	7	Santa Rita 	8	Agosto	2023-08-25T00:00:00	2024-11-08T14:00:00	1	Precipitación	0
113440	7	Sololá	704	Santa Lucía Utatlán 	7	Santa Rita 	8	Agosto	2023-08-25T00:00:00	2024-11-08T14:00:00	8	Radiación solar	574
113441	7	Sololá	704	Santa Lucía Utatlán 	7	Santa Rita 	8	Agosto	2023-08-25T00:00:00	2024-11-08T15:00:00	2	Temperatura media	20.4
113442	7	Sololá	704	Santa Lucía Utatlán 	7	Santa Rita 	8	Agosto	2023-08-25T00:00:00	2024-11-08T15:00:00	4	Temperatura máxima	20.6
113443	7	Sololá	704	Santa Lucía Utatlán 	7	Santa Rita 	8	Agosto	2023-08-25T00:00:00	2024-11-08T15:00:00	3	Temperatura mínima	20.4
113444	7	Sololá	704	Santa Lucía Utatlán 	7	Santa Rita 	8	Agosto	2023-08-25T00:00:00	2024-11-08T15:00:00	5	Humedad	94
113445	7	Sololá	704	Santa Lucía Utatlán 	7	Santa Rita 	8	Agosto	2023-08-25T00:00:00	2024-11-08T15:00:00	6	Velocidad del viento	0
113446	7	Sololá	704	Santa Lucía Utatlán 	7	Santa Rita 	8	Agosto	2023-08-25T00:00:00	2024-11-08T15:00:00	7	Dirección del viento	0
113447	7	Sololá	704	Santa Lucía Utatlán 	7	Santa Rita 	8	Agosto	2023-08-25T00:00:00	2024-11-08T15:00:00	1	Precipitación	0
113448	7	Sololá	704	Santa Lucía Utatlán 	7	Santa Rita 	8	Agosto	2023-08-25T00:00:00	2024-11-08T15:00:00	8	Radiación solar	334
113449	7	Sololá	704	Santa Lucía Utatlán 	7	Santa Rita 	8	Agosto	2023-08-25T00:00:00	2024-11-08T16:00:00	2	Temperatura media	20.1
113450	7	Sololá	704	Santa Lucía Utatlán 	7	Santa Rita 	8	Agosto	2023-08-25T00:00:00	2024-11-08T16:00:00	4	Temperatura máxima	20.4
113451	7	Sololá	704	Santa Lucía Utatlán 	7	Santa Rita 	8	Agosto	2023-08-25T00:00:00	2024-11-08T16:00:00	3	Temperatura mínima	20.1
113452	7	Sololá	704	Santa Lucía Utatlán 	7	Santa Rita 	8	Agosto	2023-08-25T00:00:00	2024-11-08T16:00:00	5	Humedad	96
113453	7	Sololá	704	Santa Lucía Utatlán 	7	Santa Rita 	8	Agosto	2023-08-25T00:00:00	2024-11-08T16:00:00	6	Velocidad del viento	0
113454	7	Sololá	704	Santa Lucía Utatlán 	7	Santa Rita 	8	Agosto	2023-08-25T00:00:00	2024-11-08T16:00:00	7	Dirección del viento	0
113455	7	Sololá	704	Santa Lucía Utatlán 	7	Santa Rita 	8	Agosto	2023-08-25T00:00:00	2024-11-08T16:00:00	1	Precipitación	0
113456	7	Sololá	704	Santa Lucía Utatlán 	7	Santa Rita 	8	Agosto	2023-08-25T00:00:00	2024-11-08T16:00:00	8	Radiación solar	235
113457	7	Sololá	704	Santa Lucía Utatlán 	7	Santa Rita 	8	Agosto	2023-08-25T00:00:00	2024-11-08T17:00:00	2	Temperatura media	19.3
113458	7	Sololá	704	Santa Lucía Utatlán 	7	Santa Rita 	8	Agosto	2023-08-25T00:00:00	2024-11-08T17:00:00	4	Temperatura máxima	20.1
113459	7	Sololá	704	Santa Lucía Utatlán 	7	Santa Rita 	8	Agosto	2023-08-25T00:00:00	2024-11-08T17:00:00	3	Temperatura mínima	19.3
113460	7	Sololá	704	Santa Lucía Utatlán 	7	Santa Rita 	8	Agosto	2023-08-25T00:00:00	2024-11-08T17:00:00	5	Humedad	95
113461	7	Sololá	704	Santa Lucía Utatlán 	7	Santa Rita 	8	Agosto	2023-08-25T00:00:00	2024-11-08T17:00:00	6	Velocidad del viento	1.6
113462	7	Sololá	704	Santa Lucía Utatlán 	7	Santa Rita 	8	Agosto	2023-08-25T00:00:00	2024-11-08T17:00:00	7	Dirección del viento	1.61
113463	7	Sololá	704	Santa Lucía Utatlán 	7	Santa Rita 	8	Agosto	2023-08-25T00:00:00	2024-11-08T17:00:00	1	Precipitación	0
113464	7	Sololá	704	Santa Lucía Utatlán 	7	Santa Rita 	8	Agosto	2023-08-25T00:00:00	2024-11-08T17:00:00	8	Radiación solar	1016
113465	7	Sololá	704	Santa Lucía Utatlán 	7	Santa Rita 	8	Agosto	2023-08-25T00:00:00	2024-11-08T18:00:00	2	Temperatura media	19.1
113466	7	Sololá	704	Santa Lucía Utatlán 	7	Santa Rita 	8	Agosto	2023-08-25T00:00:00	2024-11-08T18:00:00	4	Temperatura máxima	19.4
113467	7	Sololá	704	Santa Lucía Utatlán 	7	Santa Rita 	8	Agosto	2023-08-25T00:00:00	2024-11-08T18:00:00	3	Temperatura mínima	19.1
113468	7	Sololá	704	Santa Lucía Utatlán 	7	Santa Rita 	8	Agosto	2023-08-25T00:00:00	2024-11-08T18:00:00	5	Humedad	94
113469	7	Sololá	704	Santa Lucía Utatlán 	7	Santa Rita 	8	Agosto	2023-08-25T00:00:00	2024-11-08T18:00:00	6	Velocidad del viento	1.6
113470	7	Sololá	704	Santa Lucía Utatlán 	7	Santa Rita 	8	Agosto	2023-08-25T00:00:00	2024-11-08T18:00:00	7	Dirección del viento	1.61
113471	7	Sololá	704	Santa Lucía Utatlán 	7	Santa Rita 	8	Agosto	2023-08-25T00:00:00	2024-11-08T18:00:00	1	Precipitación	0
113472	7	Sololá	704	Santa Lucía Utatlán 	7	Santa Rita 	8	Agosto	2023-08-25T00:00:00	2024-11-08T18:00:00	8	Radiación solar	960
113473	7	Sololá	704	Santa Lucía Utatlán 	7	Santa Rita 	8	Agosto	2023-08-25T00:00:00	2024-11-08T19:00:00	2	Temperatura media	18.8
113474	7	Sololá	704	Santa Lucía Utatlán 	7	Santa Rita 	8	Agosto	2023-08-25T00:00:00	2024-11-08T19:00:00	4	Temperatura máxima	19.1
113475	7	Sololá	704	Santa Lucía Utatlán 	7	Santa Rita 	8	Agosto	2023-08-25T00:00:00	2024-11-08T19:00:00	3	Temperatura mínima	18.6
113476	7	Sololá	704	Santa Lucía Utatlán 	7	Santa Rita 	8	Agosto	2023-08-25T00:00:00	2024-11-08T19:00:00	5	Humedad	95
113477	7	Sololá	704	Santa Lucía Utatlán 	7	Santa Rita 	8	Agosto	2023-08-25T00:00:00	2024-11-08T19:00:00	6	Velocidad del viento	1.6
113478	7	Sololá	704	Santa Lucía Utatlán 	7	Santa Rita 	8	Agosto	2023-08-25T00:00:00	2024-11-08T19:00:00	7	Dirección del viento	1.61
113479	7	Sololá	704	Santa Lucía Utatlán 	7	Santa Rita 	8	Agosto	2023-08-25T00:00:00	2024-11-08T19:00:00	1	Precipitación	0
113480	7	Sololá	704	Santa Lucía Utatlán 	7	Santa Rita 	8	Agosto	2023-08-25T00:00:00	2024-11-08T19:00:00	8	Radiación solar	0
113481	7	Sololá	704	Santa Lucía Utatlán 	7	Santa Rita 	8	Agosto	2023-08-25T00:00:00	2024-11-08T20:00:00	2	Temperatura media	18.2
113482	7	Sololá	704	Santa Lucía Utatlán 	7	Santa Rita 	8	Agosto	2023-08-25T00:00:00	2024-11-08T20:00:00	4	Temperatura máxima	18.8
113483	7	Sololá	704	Santa Lucía Utatlán 	7	Santa Rita 	8	Agosto	2023-08-25T00:00:00	2024-11-08T20:00:00	3	Temperatura mínima	18.1
113484	7	Sololá	704	Santa Lucía Utatlán 	7	Santa Rita 	8	Agosto	2023-08-25T00:00:00	2024-11-08T20:00:00	5	Humedad	95
113485	7	Sololá	704	Santa Lucía Utatlán 	7	Santa Rita 	8	Agosto	2023-08-25T00:00:00	2024-11-08T20:00:00	6	Velocidad del viento	3.2
113486	7	Sololá	704	Santa Lucía Utatlán 	7	Santa Rita 	8	Agosto	2023-08-25T00:00:00	2024-11-08T20:00:00	7	Dirección del viento	3.22
113487	7	Sololá	704	Santa Lucía Utatlán 	7	Santa Rita 	8	Agosto	2023-08-25T00:00:00	2024-11-08T20:00:00	1	Precipitación	0
113488	7	Sololá	704	Santa Lucía Utatlán 	7	Santa Rita 	8	Agosto	2023-08-25T00:00:00	2024-11-08T20:00:00	8	Radiación solar	0
113489	7	Sololá	704	Santa Lucía Utatlán 	7	Santa Rita 	8	Agosto	2023-08-25T00:00:00	2024-11-08T21:00:00	2	Temperatura media	17.8
113490	7	Sololá	704	Santa Lucía Utatlán 	7	Santa Rita 	8	Agosto	2023-08-25T00:00:00	2024-11-08T21:00:00	4	Temperatura máxima	18.3
113491	7	Sololá	704	Santa Lucía Utatlán 	7	Santa Rita 	8	Agosto	2023-08-25T00:00:00	2024-11-08T21:00:00	3	Temperatura mínima	17.7
113492	7	Sololá	704	Santa Lucía Utatlán 	7	Santa Rita 	8	Agosto	2023-08-25T00:00:00	2024-11-08T21:00:00	5	Humedad	94
113493	7	Sololá	704	Santa Lucía Utatlán 	7	Santa Rita 	8	Agosto	2023-08-25T00:00:00	2024-11-08T21:00:00	6	Velocidad del viento	3.2
113494	7	Sololá	704	Santa Lucía Utatlán 	7	Santa Rita 	8	Agosto	2023-08-25T00:00:00	2024-11-08T21:00:00	7	Dirección del viento	3.22
113495	7	Sololá	704	Santa Lucía Utatlán 	7	Santa Rita 	8	Agosto	2023-08-25T00:00:00	2024-11-08T21:00:00	1	Precipitación	0
113496	7	Sololá	704	Santa Lucía Utatlán 	7	Santa Rita 	8	Agosto	2023-08-25T00:00:00	2024-11-08T21:00:00	8	Radiación solar	0
113497	7	Sololá	704	Santa Lucía Utatlán 	7	Santa Rita 	8	Agosto	2023-08-25T00:00:00	2024-11-08T22:00:00	2	Temperatura media	17.4
113498	7	Sololá	704	Santa Lucía Utatlán 	7	Santa Rita 	8	Agosto	2023-08-25T00:00:00	2024-11-08T22:00:00	4	Temperatura máxima	18
113499	7	Sololá	704	Santa Lucía Utatlán 	7	Santa Rita 	8	Agosto	2023-08-25T00:00:00	2024-11-08T22:00:00	3	Temperatura mínima	17.4
113500	7	Sololá	704	Santa Lucía Utatlán 	7	Santa Rita 	8	Agosto	2023-08-25T00:00:00	2024-11-08T22:00:00	5	Humedad	94
113501	7	Sololá	704	Santa Lucía Utatlán 	7	Santa Rita 	8	Agosto	2023-08-25T00:00:00	2024-11-08T22:00:00	6	Velocidad del viento	1.6
113502	7	Sololá	704	Santa Lucía Utatlán 	7	Santa Rita 	8	Agosto	2023-08-25T00:00:00	2024-11-08T22:00:00	7	Dirección del viento	1.61
113503	7	Sololá	704	Santa Lucía Utatlán 	7	Santa Rita 	8	Agosto	2023-08-25T00:00:00	2024-11-08T22:00:00	1	Precipitación	0
113504	7	Sololá	704	Santa Lucía Utatlán 	7	Santa Rita 	8	Agosto	2023-08-25T00:00:00	2024-11-08T22:00:00	8	Radiación solar	0
113505	7	Sololá	704	Santa Lucía Utatlán 	7	Santa Rita 	8	Agosto	2023-08-25T00:00:00	2024-11-08T23:00:00	2	Temperatura media	17.5
113506	7	Sololá	704	Santa Lucía Utatlán 	7	Santa Rita 	8	Agosto	2023-08-25T00:00:00	2024-11-08T23:00:00	4	Temperatura máxima	17.6
113507	7	Sololá	704	Santa Lucía Utatlán 	7	Santa Rita 	8	Agosto	2023-08-25T00:00:00	2024-11-08T23:00:00	3	Temperatura mínima	17.3
113508	7	Sololá	704	Santa Lucía Utatlán 	7	Santa Rita 	8	Agosto	2023-08-25T00:00:00	2024-11-08T23:00:00	5	Humedad	94
113509	7	Sololá	704	Santa Lucía Utatlán 	7	Santa Rita 	8	Agosto	2023-08-25T00:00:00	2024-11-08T23:00:00	6	Velocidad del viento	3.2
113510	7	Sololá	704	Santa Lucía Utatlán 	7	Santa Rita 	8	Agosto	2023-08-25T00:00:00	2024-11-08T23:00:00	7	Dirección del viento	3.22
113511	7	Sololá	704	Santa Lucía Utatlán 	7	Santa Rita 	8	Agosto	2023-08-25T00:00:00	2024-11-08T23:00:00	1	Precipitación	0
113512	7	Sololá	704	Santa Lucía Utatlán 	7	Santa Rita 	8	Agosto	2023-08-25T00:00:00	2024-11-08T23:00:00	8	Radiación solar	0
113513	7	Sololá	704	Santa Lucía Utatlán 	7	Santa Rita 	8	Agosto	2023-08-26T00:00:00	2024-11-08T00:00:00	2	Temperatura media	17.7
113514	7	Sololá	704	Santa Lucía Utatlán 	7	Santa Rita 	8	Agosto	2023-08-26T00:00:00	2024-11-08T00:00:00	4	Temperatura máxima	17.7
113515	7	Sololá	704	Santa Lucía Utatlán 	7	Santa Rita 	8	Agosto	2023-08-26T00:00:00	2024-11-08T00:00:00	3	Temperatura mínima	17.4
113516	7	Sololá	704	Santa Lucía Utatlán 	7	Santa Rita 	8	Agosto	2023-08-26T00:00:00	2024-11-08T00:00:00	5	Humedad	95
113517	7	Sololá	704	Santa Lucía Utatlán 	7	Santa Rita 	8	Agosto	2023-08-26T00:00:00	2024-11-08T00:00:00	6	Velocidad del viento	3.2
113518	7	Sololá	704	Santa Lucía Utatlán 	7	Santa Rita 	8	Agosto	2023-08-26T00:00:00	2024-11-08T00:00:00	7	Dirección del viento	3.22
113519	7	Sololá	704	Santa Lucía Utatlán 	7	Santa Rita 	8	Agosto	2023-08-26T00:00:00	2024-11-08T00:00:00	1	Precipitación	0
113520	7	Sololá	704	Santa Lucía Utatlán 	7	Santa Rita 	8	Agosto	2023-08-26T00:00:00	2024-11-08T00:00:00	8	Radiación solar	0
113521	7	Sololá	704	Santa Lucía Utatlán 	7	Santa Rita 	8	Agosto	2023-08-26T00:00:00	2024-11-08T01:00:00	2	Temperatura media	17.6
113522	7	Sololá	704	Santa Lucía Utatlán 	7	Santa Rita 	8	Agosto	2023-08-26T00:00:00	2024-11-08T01:00:00	4	Temperatura máxima	17.7
113523	7	Sololá	704	Santa Lucía Utatlán 	7	Santa Rita 	8	Agosto	2023-08-26T00:00:00	2024-11-08T01:00:00	3	Temperatura mínima	17.4
113524	7	Sololá	704	Santa Lucía Utatlán 	7	Santa Rita 	8	Agosto	2023-08-26T00:00:00	2024-11-08T01:00:00	5	Humedad	94
113525	7	Sololá	704	Santa Lucía Utatlán 	7	Santa Rita 	8	Agosto	2023-08-26T00:00:00	2024-11-08T01:00:00	6	Velocidad del viento	3.2
113526	7	Sololá	704	Santa Lucía Utatlán 	7	Santa Rita 	8	Agosto	2023-08-26T00:00:00	2024-11-08T01:00:00	7	Dirección del viento	3.22
113527	7	Sololá	704	Santa Lucía Utatlán 	7	Santa Rita 	8	Agosto	2023-08-26T00:00:00	2024-11-08T01:00:00	1	Precipitación	0
113528	7	Sololá	704	Santa Lucía Utatlán 	7	Santa Rita 	8	Agosto	2023-08-26T00:00:00	2024-11-08T01:00:00	8	Radiación solar	0
113529	7	Sololá	704	Santa Lucía Utatlán 	7	Santa Rita 	8	Agosto	2023-08-26T00:00:00	2024-11-08T02:00:00	2	Temperatura media	20.2
113530	7	Sololá	704	Santa Lucía Utatlán 	7	Santa Rita 	8	Agosto	2023-08-26T00:00:00	2024-11-08T02:00:00	4	Temperatura máxima	20.3
113531	7	Sololá	704	Santa Lucía Utatlán 	7	Santa Rita 	8	Agosto	2023-08-26T00:00:00	2024-11-08T02:00:00	3	Temperatura mínima	17.6
113532	7	Sololá	704	Santa Lucía Utatlán 	7	Santa Rita 	8	Agosto	2023-08-26T00:00:00	2024-11-08T02:00:00	5	Humedad	87
113533	7	Sololá	704	Santa Lucía Utatlán 	7	Santa Rita 	8	Agosto	2023-08-26T00:00:00	2024-11-08T02:00:00	6	Velocidad del viento	3.2
113534	7	Sololá	704	Santa Lucía Utatlán 	7	Santa Rita 	8	Agosto	2023-08-26T00:00:00	2024-11-08T02:00:00	7	Dirección del viento	3.22
113535	7	Sololá	704	Santa Lucía Utatlán 	7	Santa Rita 	8	Agosto	2023-08-26T00:00:00	2024-11-08T02:00:00	1	Precipitación	0
113536	7	Sololá	704	Santa Lucía Utatlán 	7	Santa Rita 	8	Agosto	2023-08-26T00:00:00	2024-11-08T02:00:00	8	Radiación solar	0
113537	7	Sololá	704	Santa Lucía Utatlán 	7	Santa Rita 	8	Agosto	2023-08-26T00:00:00	2024-11-08T03:00:00	2	Temperatura media	22.9
113538	7	Sololá	704	Santa Lucía Utatlán 	7	Santa Rita 	8	Agosto	2023-08-26T00:00:00	2024-11-08T03:00:00	4	Temperatura máxima	22.9
113539	7	Sololá	704	Santa Lucía Utatlán 	7	Santa Rita 	8	Agosto	2023-08-26T00:00:00	2024-11-08T03:00:00	3	Temperatura mínima	20.2
113540	7	Sololá	704	Santa Lucía Utatlán 	7	Santa Rita 	8	Agosto	2023-08-26T00:00:00	2024-11-08T03:00:00	5	Humedad	80
113541	7	Sololá	704	Santa Lucía Utatlán 	7	Santa Rita 	8	Agosto	2023-08-26T00:00:00	2024-11-08T03:00:00	6	Velocidad del viento	3.2
113542	7	Sololá	704	Santa Lucía Utatlán 	7	Santa Rita 	8	Agosto	2023-08-26T00:00:00	2024-11-08T03:00:00	7	Dirección del viento	3.22
113543	7	Sololá	704	Santa Lucía Utatlán 	7	Santa Rita 	8	Agosto	2023-08-26T00:00:00	2024-11-08T03:00:00	1	Precipitación	0.2
113544	7	Sololá	704	Santa Lucía Utatlán 	7	Santa Rita 	8	Agosto	2023-08-26T00:00:00	2024-11-08T03:00:00	8	Radiación solar	0
113545	7	Sololá	704	Santa Lucía Utatlán 	7	Santa Rita 	8	Agosto	2023-08-26T00:00:00	2024-11-08T04:00:00	2	Temperatura media	24.6
113546	7	Sololá	704	Santa Lucía Utatlán 	7	Santa Rita 	8	Agosto	2023-08-26T00:00:00	2024-11-08T04:00:00	4	Temperatura máxima	24.7
113547	7	Sololá	704	Santa Lucía Utatlán 	7	Santa Rita 	8	Agosto	2023-08-26T00:00:00	2024-11-08T04:00:00	3	Temperatura mínima	22.9
113548	7	Sololá	704	Santa Lucía Utatlán 	7	Santa Rita 	8	Agosto	2023-08-26T00:00:00	2024-11-08T04:00:00	5	Humedad	68
113549	7	Sololá	704	Santa Lucía Utatlán 	7	Santa Rita 	8	Agosto	2023-08-26T00:00:00	2024-11-08T04:00:00	6	Velocidad del viento	4.8
113550	7	Sololá	704	Santa Lucía Utatlán 	7	Santa Rita 	8	Agosto	2023-08-26T00:00:00	2024-11-08T04:00:00	7	Dirección del viento	4.83
113551	7	Sololá	704	Santa Lucía Utatlán 	7	Santa Rita 	8	Agosto	2023-08-26T00:00:00	2024-11-08T04:00:00	1	Precipitación	0
113552	7	Sololá	704	Santa Lucía Utatlán 	7	Santa Rita 	8	Agosto	2023-08-26T00:00:00	2024-11-08T04:00:00	8	Radiación solar	0
113553	7	Sololá	704	Santa Lucía Utatlán 	7	Santa Rita 	8	Agosto	2023-08-26T00:00:00	2024-11-08T05:00:00	2	Temperatura media	26
113554	7	Sololá	704	Santa Lucía Utatlán 	7	Santa Rita 	8	Agosto	2023-08-26T00:00:00	2024-11-08T05:00:00	4	Temperatura máxima	26.3
113555	7	Sololá	704	Santa Lucía Utatlán 	7	Santa Rita 	8	Agosto	2023-08-26T00:00:00	2024-11-08T05:00:00	3	Temperatura mínima	24.6
113556	7	Sololá	704	Santa Lucía Utatlán 	7	Santa Rita 	8	Agosto	2023-08-26T00:00:00	2024-11-08T05:00:00	5	Humedad	64
113557	7	Sololá	704	Santa Lucía Utatlán 	7	Santa Rita 	8	Agosto	2023-08-26T00:00:00	2024-11-08T05:00:00	6	Velocidad del viento	6.4
113558	7	Sololá	704	Santa Lucía Utatlán 	7	Santa Rita 	8	Agosto	2023-08-26T00:00:00	2024-11-08T05:00:00	7	Dirección del viento	6.44
113559	7	Sololá	704	Santa Lucía Utatlán 	7	Santa Rita 	8	Agosto	2023-08-26T00:00:00	2024-11-08T05:00:00	1	Precipitación	0
113560	7	Sololá	704	Santa Lucía Utatlán 	7	Santa Rita 	8	Agosto	2023-08-26T00:00:00	2024-11-08T05:00:00	8	Radiación solar	0
113561	7	Sololá	704	Santa Lucía Utatlán 	7	Santa Rita 	8	Agosto	2023-08-26T00:00:00	2024-11-08T06:00:00	2	Temperatura media	25.2
113562	7	Sololá	704	Santa Lucía Utatlán 	7	Santa Rita 	8	Agosto	2023-08-26T00:00:00	2024-11-08T06:00:00	4	Temperatura máxima	26
113563	7	Sololá	704	Santa Lucía Utatlán 	7	Santa Rita 	8	Agosto	2023-08-26T00:00:00	2024-11-08T06:00:00	3	Temperatura mínima	25.1
113564	7	Sololá	704	Santa Lucía Utatlán 	7	Santa Rita 	8	Agosto	2023-08-26T00:00:00	2024-11-08T06:00:00	5	Humedad	76
113565	7	Sololá	704	Santa Lucía Utatlán 	7	Santa Rita 	8	Agosto	2023-08-26T00:00:00	2024-11-08T06:00:00	6	Velocidad del viento	6.4
113566	7	Sololá	704	Santa Lucía Utatlán 	7	Santa Rita 	8	Agosto	2023-08-26T00:00:00	2024-11-08T06:00:00	7	Dirección del viento	6.44
113567	7	Sololá	704	Santa Lucía Utatlán 	7	Santa Rita 	8	Agosto	2023-08-26T00:00:00	2024-11-08T06:00:00	1	Precipitación	0
113568	7	Sololá	704	Santa Lucía Utatlán 	7	Santa Rita 	8	Agosto	2023-08-26T00:00:00	2024-11-08T06:00:00	8	Radiación solar	1
113569	7	Sololá	704	Santa Lucía Utatlán 	7	Santa Rita 	8	Agosto	2023-08-26T00:00:00	2024-11-08T07:00:00	2	Temperatura media	25.7
113570	7	Sololá	704	Santa Lucía Utatlán 	7	Santa Rita 	8	Agosto	2023-08-26T00:00:00	2024-11-08T07:00:00	4	Temperatura máxima	25.7
113571	7	Sololá	704	Santa Lucía Utatlán 	7	Santa Rita 	8	Agosto	2023-08-26T00:00:00	2024-11-08T07:00:00	3	Temperatura mínima	24.4
113572	7	Sololá	704	Santa Lucía Utatlán 	7	Santa Rita 	8	Agosto	2023-08-26T00:00:00	2024-11-08T07:00:00	5	Humedad	71
113573	7	Sololá	704	Santa Lucía Utatlán 	7	Santa Rita 	8	Agosto	2023-08-26T00:00:00	2024-11-08T07:00:00	6	Velocidad del viento	6.4
113574	7	Sololá	704	Santa Lucía Utatlán 	7	Santa Rita 	8	Agosto	2023-08-26T00:00:00	2024-11-08T07:00:00	7	Dirección del viento	6.44
113575	7	Sololá	704	Santa Lucía Utatlán 	7	Santa Rita 	8	Agosto	2023-08-26T00:00:00	2024-11-08T07:00:00	1	Precipitación	0
113576	7	Sololá	704	Santa Lucía Utatlán 	7	Santa Rita 	8	Agosto	2023-08-26T00:00:00	2024-11-08T07:00:00	8	Radiación solar	136
113577	7	Sololá	704	Santa Lucía Utatlán 	7	Santa Rita 	8	Agosto	2023-08-26T00:00:00	2024-11-08T08:00:00	2	Temperatura media	25.1
113578	7	Sololá	704	Santa Lucía Utatlán 	7	Santa Rita 	8	Agosto	2023-08-26T00:00:00	2024-11-08T08:00:00	4	Temperatura máxima	26.2
113579	7	Sololá	704	Santa Lucía Utatlán 	7	Santa Rita 	8	Agosto	2023-08-26T00:00:00	2024-11-08T08:00:00	3	Temperatura mínima	24.9
113580	7	Sololá	704	Santa Lucía Utatlán 	7	Santa Rita 	8	Agosto	2023-08-26T00:00:00	2024-11-08T08:00:00	5	Humedad	76
113581	7	Sololá	704	Santa Lucía Utatlán 	7	Santa Rita 	8	Agosto	2023-08-26T00:00:00	2024-11-08T08:00:00	6	Velocidad del viento	9.7
113582	7	Sololá	704	Santa Lucía Utatlán 	7	Santa Rita 	8	Agosto	2023-08-26T00:00:00	2024-11-08T08:00:00	7	Dirección del viento	9.66
113583	7	Sololá	704	Santa Lucía Utatlán 	7	Santa Rita 	8	Agosto	2023-08-26T00:00:00	2024-11-08T08:00:00	1	Precipitación	0
113584	7	Sololá	704	Santa Lucía Utatlán 	7	Santa Rita 	8	Agosto	2023-08-26T00:00:00	2024-11-08T08:00:00	8	Radiación solar	389
113585	7	Sololá	704	Santa Lucía Utatlán 	7	Santa Rita 	8	Agosto	2023-08-26T00:00:00	2024-11-08T09:00:00	2	Temperatura media	25.2
113586	7	Sololá	704	Santa Lucía Utatlán 	7	Santa Rita 	8	Agosto	2023-08-26T00:00:00	2024-11-08T09:00:00	4	Temperatura máxima	25.9
113587	7	Sololá	704	Santa Lucía Utatlán 	7	Santa Rita 	8	Agosto	2023-08-26T00:00:00	2024-11-08T09:00:00	3	Temperatura mínima	24.7
113588	7	Sololá	704	Santa Lucía Utatlán 	7	Santa Rita 	8	Agosto	2023-08-26T00:00:00	2024-11-08T09:00:00	5	Humedad	76
113589	7	Sololá	704	Santa Lucía Utatlán 	7	Santa Rita 	8	Agosto	2023-08-26T00:00:00	2024-11-08T09:00:00	6	Velocidad del viento	9.7
113590	7	Sololá	704	Santa Lucía Utatlán 	7	Santa Rita 	8	Agosto	2023-08-26T00:00:00	2024-11-08T09:00:00	7	Dirección del viento	9.66
113591	7	Sololá	704	Santa Lucía Utatlán 	7	Santa Rita 	8	Agosto	2023-08-26T00:00:00	2024-11-08T09:00:00	1	Precipitación	0
113592	7	Sololá	704	Santa Lucía Utatlán 	7	Santa Rita 	8	Agosto	2023-08-26T00:00:00	2024-11-08T09:00:00	8	Radiación solar	616
113593	7	Sololá	704	Santa Lucía Utatlán 	7	Santa Rita 	8	Agosto	2023-08-26T00:00:00	2024-11-08T10:00:00	2	Temperatura media	23.9
113594	7	Sololá	704	Santa Lucía Utatlán 	7	Santa Rita 	8	Agosto	2023-08-26T00:00:00	2024-11-08T10:00:00	4	Temperatura máxima	25.6
113595	7	Sololá	704	Santa Lucía Utatlán 	7	Santa Rita 	8	Agosto	2023-08-26T00:00:00	2024-11-08T10:00:00	3	Temperatura mínima	23.7
113596	7	Sololá	704	Santa Lucía Utatlán 	7	Santa Rita 	8	Agosto	2023-08-26T00:00:00	2024-11-08T10:00:00	5	Humedad	78
113597	7	Sololá	704	Santa Lucía Utatlán 	7	Santa Rita 	8	Agosto	2023-08-26T00:00:00	2024-11-08T10:00:00	6	Velocidad del viento	8
113598	7	Sololá	704	Santa Lucía Utatlán 	7	Santa Rita 	8	Agosto	2023-08-26T00:00:00	2024-11-08T10:00:00	7	Dirección del viento	8.05
113599	7	Sololá	704	Santa Lucía Utatlán 	7	Santa Rita 	8	Agosto	2023-08-26T00:00:00	2024-11-08T10:00:00	1	Precipitación	0
113600	7	Sololá	704	Santa Lucía Utatlán 	7	Santa Rita 	8	Agosto	2023-08-26T00:00:00	2024-11-08T10:00:00	8	Radiación solar	826
113601	7	Sololá	704	Santa Lucía Utatlán 	7	Santa Rita 	8	Agosto	2023-08-26T00:00:00	2024-11-08T11:00:00	2	Temperatura media	23.2
113602	7	Sololá	704	Santa Lucía Utatlán 	7	Santa Rita 	8	Agosto	2023-08-26T00:00:00	2024-11-08T11:00:00	4	Temperatura máxima	23.9
113603	7	Sololá	704	Santa Lucía Utatlán 	7	Santa Rita 	8	Agosto	2023-08-26T00:00:00	2024-11-08T11:00:00	3	Temperatura mínima	23.1
113604	7	Sololá	704	Santa Lucía Utatlán 	7	Santa Rita 	8	Agosto	2023-08-26T00:00:00	2024-11-08T11:00:00	5	Humedad	79
113605	7	Sololá	704	Santa Lucía Utatlán 	7	Santa Rita 	8	Agosto	2023-08-26T00:00:00	2024-11-08T11:00:00	6	Velocidad del viento	8
113606	7	Sololá	704	Santa Lucía Utatlán 	7	Santa Rita 	8	Agosto	2023-08-26T00:00:00	2024-11-08T11:00:00	7	Dirección del viento	8.05
113607	7	Sololá	704	Santa Lucía Utatlán 	7	Santa Rita 	8	Agosto	2023-08-26T00:00:00	2024-11-08T11:00:00	1	Precipitación	0
113608	7	Sololá	704	Santa Lucía Utatlán 	7	Santa Rita 	8	Agosto	2023-08-26T00:00:00	2024-11-08T11:00:00	8	Radiación solar	733
113609	7	Sololá	704	Santa Lucía Utatlán 	7	Santa Rita 	8	Agosto	2023-08-26T00:00:00	2024-11-08T12:00:00	2	Temperatura media	23.4
113610	7	Sololá	704	Santa Lucía Utatlán 	7	Santa Rita 	8	Agosto	2023-08-26T00:00:00	2024-11-08T12:00:00	4	Temperatura máxima	23.4
113611	7	Sololá	704	Santa Lucía Utatlán 	7	Santa Rita 	8	Agosto	2023-08-26T00:00:00	2024-11-08T12:00:00	3	Temperatura mínima	23.1
113612	7	Sololá	704	Santa Lucía Utatlán 	7	Santa Rita 	8	Agosto	2023-08-26T00:00:00	2024-11-08T12:00:00	5	Humedad	79
113613	7	Sololá	704	Santa Lucía Utatlán 	7	Santa Rita 	8	Agosto	2023-08-26T00:00:00	2024-11-08T12:00:00	6	Velocidad del viento	6.4
113614	7	Sololá	704	Santa Lucía Utatlán 	7	Santa Rita 	8	Agosto	2023-08-26T00:00:00	2024-11-08T12:00:00	7	Dirección del viento	6.44
113615	7	Sololá	704	Santa Lucía Utatlán 	7	Santa Rita 	8	Agosto	2023-08-26T00:00:00	2024-11-08T12:00:00	1	Precipitación	0
113616	7	Sololá	704	Santa Lucía Utatlán 	7	Santa Rita 	8	Agosto	2023-08-26T00:00:00	2024-11-08T12:00:00	8	Radiación solar	486
113617	7	Sololá	704	Santa Lucía Utatlán 	7	Santa Rita 	8	Agosto	2023-08-26T00:00:00	2024-11-08T13:00:00	2	Temperatura media	22.4
113618	7	Sololá	704	Santa Lucía Utatlán 	7	Santa Rita 	8	Agosto	2023-08-26T00:00:00	2024-11-08T13:00:00	4	Temperatura máxima	23.3
113619	7	Sololá	704	Santa Lucía Utatlán 	7	Santa Rita 	8	Agosto	2023-08-26T00:00:00	2024-11-08T13:00:00	3	Temperatura mínima	22.4
113620	7	Sololá	704	Santa Lucía Utatlán 	7	Santa Rita 	8	Agosto	2023-08-26T00:00:00	2024-11-08T13:00:00	5	Humedad	82
113621	7	Sololá	704	Santa Lucía Utatlán 	7	Santa Rita 	8	Agosto	2023-08-26T00:00:00	2024-11-08T13:00:00	6	Velocidad del viento	3.2
113622	7	Sololá	704	Santa Lucía Utatlán 	7	Santa Rita 	8	Agosto	2023-08-26T00:00:00	2024-11-08T13:00:00	7	Dirección del viento	3.22
113623	7	Sololá	704	Santa Lucía Utatlán 	7	Santa Rita 	8	Agosto	2023-08-26T00:00:00	2024-11-08T13:00:00	1	Precipitación	0
113624	7	Sololá	704	Santa Lucía Utatlán 	7	Santa Rita 	8	Agosto	2023-08-26T00:00:00	2024-11-08T13:00:00	8	Radiación solar	914
113625	7	Sololá	704	Santa Lucía Utatlán 	7	Santa Rita 	8	Agosto	2023-08-26T00:00:00	2024-11-08T14:00:00	2	Temperatura media	21
113626	7	Sololá	704	Santa Lucía Utatlán 	7	Santa Rita 	8	Agosto	2023-08-26T00:00:00	2024-11-08T14:00:00	4	Temperatura máxima	22.4
113627	7	Sololá	704	Santa Lucía Utatlán 	7	Santa Rita 	8	Agosto	2023-08-26T00:00:00	2024-11-08T14:00:00	3	Temperatura mínima	21
113628	7	Sololá	704	Santa Lucía Utatlán 	7	Santa Rita 	8	Agosto	2023-08-26T00:00:00	2024-11-08T14:00:00	5	Humedad	90
113629	7	Sololá	704	Santa Lucía Utatlán 	7	Santa Rita 	8	Agosto	2023-08-26T00:00:00	2024-11-08T14:00:00	6	Velocidad del viento	1.6
113630	7	Sololá	704	Santa Lucía Utatlán 	7	Santa Rita 	8	Agosto	2023-08-26T00:00:00	2024-11-08T14:00:00	7	Dirección del viento	1.61
113631	7	Sololá	704	Santa Lucía Utatlán 	7	Santa Rita 	8	Agosto	2023-08-26T00:00:00	2024-11-08T14:00:00	1	Precipitación	0
113632	7	Sololá	704	Santa Lucía Utatlán 	7	Santa Rita 	8	Agosto	2023-08-26T00:00:00	2024-11-08T14:00:00	8	Radiación solar	962
113633	7	Sololá	704	Santa Lucía Utatlán 	7	Santa Rita 	8	Agosto	2023-08-26T00:00:00	2024-11-08T15:00:00	2	Temperatura media	21.1
113634	7	Sololá	704	Santa Lucía Utatlán 	7	Santa Rita 	8	Agosto	2023-08-26T00:00:00	2024-11-08T15:00:00	4	Temperatura máxima	21.1
113635	7	Sololá	704	Santa Lucía Utatlán 	7	Santa Rita 	8	Agosto	2023-08-26T00:00:00	2024-11-08T15:00:00	3	Temperatura mínima	20.9
113636	7	Sololá	704	Santa Lucía Utatlán 	7	Santa Rita 	8	Agosto	2023-08-26T00:00:00	2024-11-08T15:00:00	5	Humedad	89
113637	7	Sololá	704	Santa Lucía Utatlán 	7	Santa Rita 	8	Agosto	2023-08-26T00:00:00	2024-11-08T15:00:00	6	Velocidad del viento	0
113638	7	Sololá	704	Santa Lucía Utatlán 	7	Santa Rita 	8	Agosto	2023-08-26T00:00:00	2024-11-08T15:00:00	7	Dirección del viento	0
113639	7	Sololá	704	Santa Lucía Utatlán 	7	Santa Rita 	8	Agosto	2023-08-26T00:00:00	2024-11-08T15:00:00	1	Precipitación	0
113640	7	Sololá	704	Santa Lucía Utatlán 	7	Santa Rita 	8	Agosto	2023-08-26T00:00:00	2024-11-08T15:00:00	8	Radiación solar	456
113641	7	Sololá	704	Santa Lucía Utatlán 	7	Santa Rita 	8	Agosto	2023-08-26T00:00:00	2024-11-08T16:00:00	2	Temperatura media	20.4
113642	7	Sololá	704	Santa Lucía Utatlán 	7	Santa Rita 	8	Agosto	2023-08-26T00:00:00	2024-11-08T16:00:00	4	Temperatura máxima	21.2
113643	7	Sololá	704	Santa Lucía Utatlán 	7	Santa Rita 	8	Agosto	2023-08-26T00:00:00	2024-11-08T16:00:00	3	Temperatura mínima	20.4
113644	7	Sololá	704	Santa Lucía Utatlán 	7	Santa Rita 	8	Agosto	2023-08-26T00:00:00	2024-11-08T16:00:00	5	Humedad	91
113645	7	Sololá	704	Santa Lucía Utatlán 	7	Santa Rita 	8	Agosto	2023-08-26T00:00:00	2024-11-08T16:00:00	6	Velocidad del viento	0
113646	7	Sololá	704	Santa Lucía Utatlán 	7	Santa Rita 	8	Agosto	2023-08-26T00:00:00	2024-11-08T16:00:00	7	Dirección del viento	0
113647	7	Sololá	704	Santa Lucía Utatlán 	7	Santa Rita 	8	Agosto	2023-08-26T00:00:00	2024-11-08T16:00:00	1	Precipitación	0
113648	7	Sololá	704	Santa Lucía Utatlán 	7	Santa Rita 	8	Agosto	2023-08-26T00:00:00	2024-11-08T16:00:00	8	Radiación solar	284
113649	7	Sololá	704	Santa Lucía Utatlán 	7	Santa Rita 	8	Agosto	2023-08-26T00:00:00	2024-11-08T17:00:00	2	Temperatura media	20.1
113650	7	Sololá	704	Santa Lucía Utatlán 	7	Santa Rita 	8	Agosto	2023-08-26T00:00:00	2024-11-08T17:00:00	4	Temperatura máxima	20.4
113651	7	Sololá	704	Santa Lucía Utatlán 	7	Santa Rita 	8	Agosto	2023-08-26T00:00:00	2024-11-08T17:00:00	3	Temperatura mínima	20.1
113652	7	Sololá	704	Santa Lucía Utatlán 	7	Santa Rita 	8	Agosto	2023-08-26T00:00:00	2024-11-08T17:00:00	5	Humedad	93
113653	7	Sololá	704	Santa Lucía Utatlán 	7	Santa Rita 	8	Agosto	2023-08-26T00:00:00	2024-11-08T17:00:00	6	Velocidad del viento	1.6
113654	7	Sololá	704	Santa Lucía Utatlán 	7	Santa Rita 	8	Agosto	2023-08-26T00:00:00	2024-11-08T17:00:00	7	Dirección del viento	1.61
113655	7	Sololá	704	Santa Lucía Utatlán 	7	Santa Rita 	8	Agosto	2023-08-26T00:00:00	2024-11-08T17:00:00	1	Precipitación	0
113656	7	Sololá	704	Santa Lucía Utatlán 	7	Santa Rita 	8	Agosto	2023-08-26T00:00:00	2024-11-08T17:00:00	8	Radiación solar	266
113657	7	Sololá	704	Santa Lucía Utatlán 	7	Santa Rita 	8	Agosto	2023-08-26T00:00:00	2024-11-08T18:00:00	2	Temperatura media	20.1
113658	7	Sololá	704	Santa Lucía Utatlán 	7	Santa Rita 	8	Agosto	2023-08-26T00:00:00	2024-11-08T18:00:00	4	Temperatura máxima	20.2
113659	7	Sololá	704	Santa Lucía Utatlán 	7	Santa Rita 	8	Agosto	2023-08-26T00:00:00	2024-11-08T18:00:00	3	Temperatura mínima	20
113660	7	Sololá	704	Santa Lucía Utatlán 	7	Santa Rita 	8	Agosto	2023-08-26T00:00:00	2024-11-08T18:00:00	5	Humedad	93
113661	7	Sololá	704	Santa Lucía Utatlán 	7	Santa Rita 	8	Agosto	2023-08-26T00:00:00	2024-11-08T18:00:00	6	Velocidad del viento	0
113662	7	Sololá	704	Santa Lucía Utatlán 	7	Santa Rita 	8	Agosto	2023-08-26T00:00:00	2024-11-08T18:00:00	7	Dirección del viento	0
113663	7	Sololá	704	Santa Lucía Utatlán 	7	Santa Rita 	8	Agosto	2023-08-26T00:00:00	2024-11-08T18:00:00	1	Precipitación	0
113664	7	Sololá	704	Santa Lucía Utatlán 	7	Santa Rita 	8	Agosto	2023-08-26T00:00:00	2024-11-08T18:00:00	8	Radiación solar	105
113665	7	Sololá	704	Santa Lucía Utatlán 	7	Santa Rita 	8	Agosto	2023-08-26T00:00:00	2024-11-08T19:00:00	2	Temperatura media	20.1
113666	7	Sololá	704	Santa Lucía Utatlán 	7	Santa Rita 	8	Agosto	2023-08-26T00:00:00	2024-11-08T19:00:00	4	Temperatura máxima	20.2
113667	7	Sololá	704	Santa Lucía Utatlán 	7	Santa Rita 	8	Agosto	2023-08-26T00:00:00	2024-11-08T19:00:00	3	Temperatura mínima	20.1
113668	7	Sololá	704	Santa Lucía Utatlán 	7	Santa Rita 	8	Agosto	2023-08-26T00:00:00	2024-11-08T19:00:00	5	Humedad	94
113669	7	Sololá	704	Santa Lucía Utatlán 	7	Santa Rita 	8	Agosto	2023-08-26T00:00:00	2024-11-08T19:00:00	6	Velocidad del viento	0
113670	7	Sololá	704	Santa Lucía Utatlán 	7	Santa Rita 	8	Agosto	2023-08-26T00:00:00	2024-11-08T19:00:00	7	Dirección del viento	0
113671	7	Sololá	704	Santa Lucía Utatlán 	7	Santa Rita 	8	Agosto	2023-08-26T00:00:00	2024-11-08T19:00:00	1	Precipitación	0
113672	7	Sololá	704	Santa Lucía Utatlán 	7	Santa Rita 	8	Agosto	2023-08-26T00:00:00	2024-11-08T19:00:00	8	Radiación solar	0
113673	7	Sololá	704	Santa Lucía Utatlán 	7	Santa Rita 	8	Agosto	2023-08-26T00:00:00	2024-11-08T20:00:00	2	Temperatura media	19.6
113674	7	Sololá	704	Santa Lucía Utatlán 	7	Santa Rita 	8	Agosto	2023-08-26T00:00:00	2024-11-08T20:00:00	4	Temperatura máxima	20.1
113675	7	Sololá	704	Santa Lucía Utatlán 	7	Santa Rita 	8	Agosto	2023-08-26T00:00:00	2024-11-08T20:00:00	3	Temperatura mínima	19.5
113676	7	Sololá	704	Santa Lucía Utatlán 	7	Santa Rita 	8	Agosto	2023-08-26T00:00:00	2024-11-08T20:00:00	5	Humedad	95
113677	7	Sololá	704	Santa Lucía Utatlán 	7	Santa Rita 	8	Agosto	2023-08-26T00:00:00	2024-11-08T20:00:00	6	Velocidad del viento	0
113678	7	Sololá	704	Santa Lucía Utatlán 	7	Santa Rita 	8	Agosto	2023-08-26T00:00:00	2024-11-08T20:00:00	7	Dirección del viento	0
113679	7	Sololá	704	Santa Lucía Utatlán 	7	Santa Rita 	8	Agosto	2023-08-26T00:00:00	2024-11-08T20:00:00	1	Precipitación	0
113680	7	Sololá	704	Santa Lucía Utatlán 	7	Santa Rita 	8	Agosto	2023-08-26T00:00:00	2024-11-08T20:00:00	8	Radiación solar	0
113681	7	Sololá	704	Santa Lucía Utatlán 	7	Santa Rita 	8	Agosto	2023-08-26T00:00:00	2024-11-08T21:00:00	2	Temperatura media	19.5
113682	7	Sololá	704	Santa Lucía Utatlán 	7	Santa Rita 	8	Agosto	2023-08-26T00:00:00	2024-11-08T21:00:00	4	Temperatura máxima	19.6
113683	7	Sololá	704	Santa Lucía Utatlán 	7	Santa Rita 	8	Agosto	2023-08-26T00:00:00	2024-11-08T21:00:00	3	Temperatura mínima	19.4
113684	7	Sololá	704	Santa Lucía Utatlán 	7	Santa Rita 	8	Agosto	2023-08-26T00:00:00	2024-11-08T21:00:00	5	Humedad	95
113685	7	Sololá	704	Santa Lucía Utatlán 	7	Santa Rita 	8	Agosto	2023-08-26T00:00:00	2024-11-08T21:00:00	6	Velocidad del viento	0
113686	7	Sololá	704	Santa Lucía Utatlán 	7	Santa Rita 	8	Agosto	2023-08-26T00:00:00	2024-11-08T21:00:00	7	Dirección del viento	0
113687	7	Sololá	704	Santa Lucía Utatlán 	7	Santa Rita 	8	Agosto	2023-08-26T00:00:00	2024-11-08T21:00:00	1	Precipitación	0
113688	7	Sololá	704	Santa Lucía Utatlán 	7	Santa Rita 	8	Agosto	2023-08-26T00:00:00	2024-11-08T21:00:00	8	Radiación solar	0
113689	7	Sololá	704	Santa Lucía Utatlán 	7	Santa Rita 	8	Agosto	2023-08-26T00:00:00	2024-11-08T22:00:00	2	Temperatura media	18.9
113690	7	Sololá	704	Santa Lucía Utatlán 	7	Santa Rita 	8	Agosto	2023-08-26T00:00:00	2024-11-08T22:00:00	4	Temperatura máxima	19.6
113691	7	Sololá	704	Santa Lucía Utatlán 	7	Santa Rita 	8	Agosto	2023-08-26T00:00:00	2024-11-08T22:00:00	3	Temperatura mínima	18.9
113692	7	Sololá	704	Santa Lucía Utatlán 	7	Santa Rita 	8	Agosto	2023-08-26T00:00:00	2024-11-08T22:00:00	5	Humedad	95
113693	7	Sololá	704	Santa Lucía Utatlán 	7	Santa Rita 	8	Agosto	2023-08-26T00:00:00	2024-11-08T22:00:00	6	Velocidad del viento	0
113694	7	Sololá	704	Santa Lucía Utatlán 	7	Santa Rita 	8	Agosto	2023-08-26T00:00:00	2024-11-08T22:00:00	7	Dirección del viento	0
113695	7	Sololá	704	Santa Lucía Utatlán 	7	Santa Rita 	8	Agosto	2023-08-26T00:00:00	2024-11-08T22:00:00	1	Precipitación	0
113696	7	Sololá	704	Santa Lucía Utatlán 	7	Santa Rita 	8	Agosto	2023-08-26T00:00:00	2024-11-08T22:00:00	8	Radiación solar	0
113697	7	Sololá	704	Santa Lucía Utatlán 	7	Santa Rita 	8	Agosto	2023-08-26T00:00:00	2024-11-08T23:00:00	2	Temperatura media	18.8
113698	7	Sololá	704	Santa Lucía Utatlán 	7	Santa Rita 	8	Agosto	2023-08-26T00:00:00	2024-11-08T23:00:00	4	Temperatura máxima	19.2
113699	7	Sololá	704	Santa Lucía Utatlán 	7	Santa Rita 	8	Agosto	2023-08-26T00:00:00	2024-11-08T23:00:00	3	Temperatura mínima	18.8
113700	7	Sololá	704	Santa Lucía Utatlán 	7	Santa Rita 	8	Agosto	2023-08-26T00:00:00	2024-11-08T23:00:00	5	Humedad	95
113701	7	Sololá	704	Santa Lucía Utatlán 	7	Santa Rita 	8	Agosto	2023-08-26T00:00:00	2024-11-08T23:00:00	6	Velocidad del viento	1.6
113702	7	Sololá	704	Santa Lucía Utatlán 	7	Santa Rita 	8	Agosto	2023-08-26T00:00:00	2024-11-08T23:00:00	7	Dirección del viento	1.61
113703	7	Sololá	704	Santa Lucía Utatlán 	7	Santa Rita 	8	Agosto	2023-08-26T00:00:00	2024-11-08T23:00:00	1	Precipitación	0
113704	7	Sololá	704	Santa Lucía Utatlán 	7	Santa Rita 	8	Agosto	2023-08-26T00:00:00	2024-11-08T23:00:00	8	Radiación solar	0
113705	7	Sololá	704	Santa Lucía Utatlán 	7	Santa Rita 	8	Agosto	2023-08-27T00:00:00	2024-11-08T00:00:00	2	Temperatura media	18.2
113706	7	Sololá	704	Santa Lucía Utatlán 	7	Santa Rita 	8	Agosto	2023-08-27T00:00:00	2024-11-08T00:00:00	4	Temperatura máxima	18.8
113707	7	Sololá	704	Santa Lucía Utatlán 	7	Santa Rita 	8	Agosto	2023-08-27T00:00:00	2024-11-08T00:00:00	3	Temperatura mínima	18.2
113708	7	Sololá	704	Santa Lucía Utatlán 	7	Santa Rita 	8	Agosto	2023-08-27T00:00:00	2024-11-08T00:00:00	5	Humedad	93
113709	7	Sololá	704	Santa Lucía Utatlán 	7	Santa Rita 	8	Agosto	2023-08-27T00:00:00	2024-11-08T00:00:00	6	Velocidad del viento	1.6
113710	7	Sololá	704	Santa Lucía Utatlán 	7	Santa Rita 	8	Agosto	2023-08-27T00:00:00	2024-11-08T00:00:00	7	Dirección del viento	1.61
113711	7	Sololá	704	Santa Lucía Utatlán 	7	Santa Rita 	8	Agosto	2023-08-27T00:00:00	2024-11-08T00:00:00	1	Precipitación	0
113712	7	Sololá	704	Santa Lucía Utatlán 	7	Santa Rita 	8	Agosto	2023-08-27T00:00:00	2024-11-08T00:00:00	8	Radiación solar	0
113713	7	Sololá	704	Santa Lucía Utatlán 	7	Santa Rita 	8	Agosto	2023-08-27T00:00:00	2024-11-08T01:00:00	2	Temperatura media	18
113714	7	Sololá	704	Santa Lucía Utatlán 	7	Santa Rita 	8	Agosto	2023-08-27T00:00:00	2024-11-08T01:00:00	4	Temperatura máxima	18.2
113715	7	Sololá	704	Santa Lucía Utatlán 	7	Santa Rita 	8	Agosto	2023-08-27T00:00:00	2024-11-08T01:00:00	3	Temperatura mínima	18
113716	7	Sololá	704	Santa Lucía Utatlán 	7	Santa Rita 	8	Agosto	2023-08-27T00:00:00	2024-11-08T01:00:00	5	Humedad	94
113717	7	Sololá	704	Santa Lucía Utatlán 	7	Santa Rita 	8	Agosto	2023-08-27T00:00:00	2024-11-08T01:00:00	6	Velocidad del viento	1.6
113718	7	Sololá	704	Santa Lucía Utatlán 	7	Santa Rita 	8	Agosto	2023-08-27T00:00:00	2024-11-08T01:00:00	7	Dirección del viento	1.61
113719	7	Sololá	704	Santa Lucía Utatlán 	7	Santa Rita 	8	Agosto	2023-08-27T00:00:00	2024-11-08T01:00:00	1	Precipitación	0
113720	7	Sololá	704	Santa Lucía Utatlán 	7	Santa Rita 	8	Agosto	2023-08-27T00:00:00	2024-11-08T01:00:00	8	Radiación solar	0
113721	7	Sololá	704	Santa Lucía Utatlán 	7	Santa Rita 	8	Agosto	2023-08-27T00:00:00	2024-11-08T02:00:00	2	Temperatura media	19.7
113722	7	Sololá	704	Santa Lucía Utatlán 	7	Santa Rita 	8	Agosto	2023-08-27T00:00:00	2024-11-08T02:00:00	4	Temperatura máxima	19.7
113723	7	Sololá	704	Santa Lucía Utatlán 	7	Santa Rita 	8	Agosto	2023-08-27T00:00:00	2024-11-08T02:00:00	3	Temperatura mínima	18
113724	7	Sololá	704	Santa Lucía Utatlán 	7	Santa Rita 	8	Agosto	2023-08-27T00:00:00	2024-11-08T02:00:00	5	Humedad	85
113725	7	Sololá	704	Santa Lucía Utatlán 	7	Santa Rita 	8	Agosto	2023-08-27T00:00:00	2024-11-08T02:00:00	6	Velocidad del viento	1.6
113726	7	Sololá	704	Santa Lucía Utatlán 	7	Santa Rita 	8	Agosto	2023-08-27T00:00:00	2024-11-08T02:00:00	7	Dirección del viento	1.61
113727	7	Sololá	704	Santa Lucía Utatlán 	7	Santa Rita 	8	Agosto	2023-08-27T00:00:00	2024-11-08T02:00:00	1	Precipitación	0
113728	7	Sololá	704	Santa Lucía Utatlán 	7	Santa Rita 	8	Agosto	2023-08-27T00:00:00	2024-11-08T02:00:00	8	Radiación solar	0
113729	7	Sololá	704	Santa Lucía Utatlán 	7	Santa Rita 	8	Agosto	2023-08-27T00:00:00	2024-11-08T03:00:00	2	Temperatura media	23.1
113730	7	Sololá	704	Santa Lucía Utatlán 	7	Santa Rita 	8	Agosto	2023-08-27T00:00:00	2024-11-08T03:00:00	4	Temperatura máxima	23.1
113731	7	Sololá	704	Santa Lucía Utatlán 	7	Santa Rita 	8	Agosto	2023-08-27T00:00:00	2024-11-08T03:00:00	3	Temperatura mínima	19.7
113732	7	Sololá	704	Santa Lucía Utatlán 	7	Santa Rita 	8	Agosto	2023-08-27T00:00:00	2024-11-08T03:00:00	5	Humedad	72
113733	7	Sololá	704	Santa Lucía Utatlán 	7	Santa Rita 	8	Agosto	2023-08-27T00:00:00	2024-11-08T03:00:00	6	Velocidad del viento	4.8
113734	7	Sololá	704	Santa Lucía Utatlán 	7	Santa Rita 	8	Agosto	2023-08-27T00:00:00	2024-11-08T03:00:00	7	Dirección del viento	4.83
113735	7	Sololá	704	Santa Lucía Utatlán 	7	Santa Rita 	8	Agosto	2023-08-27T00:00:00	2024-11-08T03:00:00	1	Precipitación	0
113736	7	Sololá	704	Santa Lucía Utatlán 	7	Santa Rita 	8	Agosto	2023-08-27T00:00:00	2024-11-08T03:00:00	8	Radiación solar	0
113737	7	Sololá	704	Santa Lucía Utatlán 	7	Santa Rita 	8	Agosto	2023-08-27T00:00:00	2024-11-08T04:00:00	2	Temperatura media	24.6
113738	7	Sololá	704	Santa Lucía Utatlán 	7	Santa Rita 	8	Agosto	2023-08-27T00:00:00	2024-11-08T04:00:00	4	Temperatura máxima	24.6
113739	7	Sololá	704	Santa Lucía Utatlán 	7	Santa Rita 	8	Agosto	2023-08-27T00:00:00	2024-11-08T04:00:00	3	Temperatura mínima	23
113740	7	Sololá	704	Santa Lucía Utatlán 	7	Santa Rita 	8	Agosto	2023-08-27T00:00:00	2024-11-08T04:00:00	5	Humedad	61
113741	7	Sololá	704	Santa Lucía Utatlán 	7	Santa Rita 	8	Agosto	2023-08-27T00:00:00	2024-11-08T04:00:00	6	Velocidad del viento	6.4
113742	7	Sololá	704	Santa Lucía Utatlán 	7	Santa Rita 	8	Agosto	2023-08-27T00:00:00	2024-11-08T04:00:00	7	Dirección del viento	6.44
113743	7	Sololá	704	Santa Lucía Utatlán 	7	Santa Rita 	8	Agosto	2023-08-27T00:00:00	2024-11-08T04:00:00	1	Precipitación	0
113744	7	Sololá	704	Santa Lucía Utatlán 	7	Santa Rita 	8	Agosto	2023-08-27T00:00:00	2024-11-08T04:00:00	8	Radiación solar	0
113745	7	Sololá	704	Santa Lucía Utatlán 	7	Santa Rita 	8	Agosto	2023-08-27T00:00:00	2024-11-08T05:00:00	2	Temperatura media	25.9
113746	7	Sololá	704	Santa Lucía Utatlán 	7	Santa Rita 	8	Agosto	2023-08-27T00:00:00	2024-11-08T05:00:00	4	Temperatura máxima	25.9
113747	7	Sololá	704	Santa Lucía Utatlán 	7	Santa Rita 	8	Agosto	2023-08-27T00:00:00	2024-11-08T05:00:00	3	Temperatura mínima	24.5
113748	7	Sololá	704	Santa Lucía Utatlán 	7	Santa Rita 	8	Agosto	2023-08-27T00:00:00	2024-11-08T05:00:00	5	Humedad	61
113749	7	Sololá	704	Santa Lucía Utatlán 	7	Santa Rita 	8	Agosto	2023-08-27T00:00:00	2024-11-08T05:00:00	6	Velocidad del viento	6.4
113750	7	Sololá	704	Santa Lucía Utatlán 	7	Santa Rita 	8	Agosto	2023-08-27T00:00:00	2024-11-08T05:00:00	7	Dirección del viento	6.44
113751	7	Sololá	704	Santa Lucía Utatlán 	7	Santa Rita 	8	Agosto	2023-08-27T00:00:00	2024-11-08T05:00:00	1	Precipitación	0
113752	7	Sololá	704	Santa Lucía Utatlán 	7	Santa Rita 	8	Agosto	2023-08-27T00:00:00	2024-11-08T05:00:00	8	Radiación solar	0
113753	7	Sololá	704	Santa Lucía Utatlán 	7	Santa Rita 	8	Agosto	2023-08-27T00:00:00	2024-11-08T06:00:00	2	Temperatura media	26.4
113754	7	Sololá	704	Santa Lucía Utatlán 	7	Santa Rita 	8	Agosto	2023-08-27T00:00:00	2024-11-08T06:00:00	4	Temperatura máxima	27.2
113755	7	Sololá	704	Santa Lucía Utatlán 	7	Santa Rita 	8	Agosto	2023-08-27T00:00:00	2024-11-08T06:00:00	3	Temperatura mínima	25.7
113756	7	Sololá	704	Santa Lucía Utatlán 	7	Santa Rita 	8	Agosto	2023-08-27T00:00:00	2024-11-08T06:00:00	5	Humedad	68
113757	7	Sololá	704	Santa Lucía Utatlán 	7	Santa Rita 	8	Agosto	2023-08-27T00:00:00	2024-11-08T06:00:00	6	Velocidad del viento	6.4
113758	7	Sololá	704	Santa Lucía Utatlán 	7	Santa Rita 	8	Agosto	2023-08-27T00:00:00	2024-11-08T06:00:00	7	Dirección del viento	6.44
113759	7	Sololá	704	Santa Lucía Utatlán 	7	Santa Rita 	8	Agosto	2023-08-27T00:00:00	2024-11-08T06:00:00	1	Precipitación	0
113760	7	Sololá	704	Santa Lucía Utatlán 	7	Santa Rita 	8	Agosto	2023-08-27T00:00:00	2024-11-08T06:00:00	8	Radiación solar	1
113761	7	Sololá	704	Santa Lucía Utatlán 	7	Santa Rita 	8	Agosto	2023-08-27T00:00:00	2024-11-08T07:00:00	2	Temperatura media	26.8
113762	7	Sololá	704	Santa Lucía Utatlán 	7	Santa Rita 	8	Agosto	2023-08-27T00:00:00	2024-11-08T07:00:00	4	Temperatura máxima	27.4
113763	7	Sololá	704	Santa Lucía Utatlán 	7	Santa Rita 	8	Agosto	2023-08-27T00:00:00	2024-11-08T07:00:00	3	Temperatura mínima	26.1
113764	7	Sololá	704	Santa Lucía Utatlán 	7	Santa Rita 	8	Agosto	2023-08-27T00:00:00	2024-11-08T07:00:00	5	Humedad	68
113765	7	Sololá	704	Santa Lucía Utatlán 	7	Santa Rita 	8	Agosto	2023-08-27T00:00:00	2024-11-08T07:00:00	6	Velocidad del viento	9.7
113766	7	Sololá	704	Santa Lucía Utatlán 	7	Santa Rita 	8	Agosto	2023-08-27T00:00:00	2024-11-08T07:00:00	7	Dirección del viento	9.66
113767	7	Sololá	704	Santa Lucía Utatlán 	7	Santa Rita 	8	Agosto	2023-08-27T00:00:00	2024-11-08T07:00:00	1	Precipitación	0
113768	7	Sololá	704	Santa Lucía Utatlán 	7	Santa Rita 	8	Agosto	2023-08-27T00:00:00	2024-11-08T07:00:00	8	Radiación solar	79
113769	7	Sololá	704	Santa Lucía Utatlán 	7	Santa Rita 	8	Agosto	2023-08-27T00:00:00	2024-11-08T08:00:00	2	Temperatura media	24.5
113770	7	Sololá	704	Santa Lucía Utatlán 	7	Santa Rita 	8	Agosto	2023-08-27T00:00:00	2024-11-08T08:00:00	4	Temperatura máxima	26.9
113771	7	Sololá	704	Santa Lucía Utatlán 	7	Santa Rita 	8	Agosto	2023-08-27T00:00:00	2024-11-08T08:00:00	3	Temperatura mínima	24.3
113772	7	Sololá	704	Santa Lucía Utatlán 	7	Santa Rita 	8	Agosto	2023-08-27T00:00:00	2024-11-08T08:00:00	5	Humedad	76
113773	7	Sololá	704	Santa Lucía Utatlán 	7	Santa Rita 	8	Agosto	2023-08-27T00:00:00	2024-11-08T08:00:00	6	Velocidad del viento	9.7
113774	7	Sololá	704	Santa Lucía Utatlán 	7	Santa Rita 	8	Agosto	2023-08-27T00:00:00	2024-11-08T08:00:00	7	Dirección del viento	9.66
113775	7	Sololá	704	Santa Lucía Utatlán 	7	Santa Rita 	8	Agosto	2023-08-27T00:00:00	2024-11-08T08:00:00	1	Precipitación	0
113776	7	Sololá	704	Santa Lucía Utatlán 	7	Santa Rita 	8	Agosto	2023-08-27T00:00:00	2024-11-08T08:00:00	8	Radiación solar	404
113777	7	Sololá	704	Santa Lucía Utatlán 	7	Santa Rita 	8	Agosto	2023-08-27T00:00:00	2024-11-08T09:00:00	2	Temperatura media	23.2
113778	7	Sololá	704	Santa Lucía Utatlán 	7	Santa Rita 	8	Agosto	2023-08-27T00:00:00	2024-11-08T09:00:00	4	Temperatura máxima	25.2
113779	7	Sololá	704	Santa Lucía Utatlán 	7	Santa Rita 	8	Agosto	2023-08-27T00:00:00	2024-11-08T09:00:00	3	Temperatura mínima	23.2
113780	7	Sololá	704	Santa Lucía Utatlán 	7	Santa Rita 	8	Agosto	2023-08-27T00:00:00	2024-11-08T09:00:00	5	Humedad	79
113781	7	Sololá	704	Santa Lucía Utatlán 	7	Santa Rita 	8	Agosto	2023-08-27T00:00:00	2024-11-08T09:00:00	6	Velocidad del viento	8
113782	7	Sololá	704	Santa Lucía Utatlán 	7	Santa Rita 	8	Agosto	2023-08-27T00:00:00	2024-11-08T09:00:00	7	Dirección del viento	8.05
113783	7	Sololá	704	Santa Lucía Utatlán 	7	Santa Rita 	8	Agosto	2023-08-27T00:00:00	2024-11-08T09:00:00	1	Precipitación	0
113784	7	Sololá	704	Santa Lucía Utatlán 	7	Santa Rita 	8	Agosto	2023-08-27T00:00:00	2024-11-08T09:00:00	8	Radiación solar	630
113785	7	Sololá	704	Santa Lucía Utatlán 	7	Santa Rita 	8	Agosto	2023-08-27T00:00:00	2024-11-08T10:00:00	2	Temperatura media	23.1
113786	7	Sololá	704	Santa Lucía Utatlán 	7	Santa Rita 	8	Agosto	2023-08-27T00:00:00	2024-11-08T10:00:00	4	Temperatura máxima	23.6
113787	7	Sololá	704	Santa Lucía Utatlán 	7	Santa Rita 	8	Agosto	2023-08-27T00:00:00	2024-11-08T10:00:00	3	Temperatura mínima	23
113788	7	Sololá	704	Santa Lucía Utatlán 	7	Santa Rita 	8	Agosto	2023-08-27T00:00:00	2024-11-08T10:00:00	5	Humedad	81
113789	7	Sololá	704	Santa Lucía Utatlán 	7	Santa Rita 	8	Agosto	2023-08-27T00:00:00	2024-11-08T10:00:00	6	Velocidad del viento	6.4
113790	7	Sololá	704	Santa Lucía Utatlán 	7	Santa Rita 	8	Agosto	2023-08-27T00:00:00	2024-11-08T10:00:00	7	Dirección del viento	6.44
113791	7	Sololá	704	Santa Lucía Utatlán 	7	Santa Rita 	8	Agosto	2023-08-27T00:00:00	2024-11-08T10:00:00	1	Precipitación	0
113792	7	Sololá	704	Santa Lucía Utatlán 	7	Santa Rita 	8	Agosto	2023-08-27T00:00:00	2024-11-08T10:00:00	8	Radiación solar	813
113793	7	Sololá	704	Santa Lucía Utatlán 	7	Santa Rita 	8	Agosto	2023-08-27T00:00:00	2024-11-08T11:00:00	2	Temperatura media	22.9
113794	7	Sololá	704	Santa Lucía Utatlán 	7	Santa Rita 	8	Agosto	2023-08-27T00:00:00	2024-11-08T11:00:00	4	Temperatura máxima	23.6
113795	7	Sololá	704	Santa Lucía Utatlán 	7	Santa Rita 	8	Agosto	2023-08-27T00:00:00	2024-11-08T11:00:00	3	Temperatura mínima	22.9
113796	7	Sololá	704	Santa Lucía Utatlán 	7	Santa Rita 	8	Agosto	2023-08-27T00:00:00	2024-11-08T11:00:00	5	Humedad	80
113797	7	Sololá	704	Santa Lucía Utatlán 	7	Santa Rita 	8	Agosto	2023-08-27T00:00:00	2024-11-08T11:00:00	6	Velocidad del viento	6.4
113798	7	Sololá	704	Santa Lucía Utatlán 	7	Santa Rita 	8	Agosto	2023-08-27T00:00:00	2024-11-08T11:00:00	7	Dirección del viento	6.44
113799	7	Sololá	704	Santa Lucía Utatlán 	7	Santa Rita 	8	Agosto	2023-08-27T00:00:00	2024-11-08T11:00:00	1	Precipitación	0
113800	7	Sololá	704	Santa Lucía Utatlán 	7	Santa Rita 	8	Agosto	2023-08-27T00:00:00	2024-11-08T11:00:00	8	Radiación solar	974
113801	7	Sololá	704	Santa Lucía Utatlán 	7	Santa Rita 	8	Agosto	2023-08-27T00:00:00	2024-11-08T12:00:00	2	Temperatura media	22.4
113802	7	Sololá	704	Santa Lucía Utatlán 	7	Santa Rita 	8	Agosto	2023-08-27T00:00:00	2024-11-08T12:00:00	4	Temperatura máxima	22.9
113803	7	Sololá	704	Santa Lucía Utatlán 	7	Santa Rita 	8	Agosto	2023-08-27T00:00:00	2024-11-08T12:00:00	3	Temperatura mínima	22.1
113804	7	Sololá	704	Santa Lucía Utatlán 	7	Santa Rita 	8	Agosto	2023-08-27T00:00:00	2024-11-08T12:00:00	5	Humedad	83
113805	7	Sololá	704	Santa Lucía Utatlán 	7	Santa Rita 	8	Agosto	2023-08-27T00:00:00	2024-11-08T12:00:00	6	Velocidad del viento	4.8
113806	7	Sololá	704	Santa Lucía Utatlán 	7	Santa Rita 	8	Agosto	2023-08-27T00:00:00	2024-11-08T12:00:00	7	Dirección del viento	4.83
113807	7	Sololá	704	Santa Lucía Utatlán 	7	Santa Rita 	8	Agosto	2023-08-27T00:00:00	2024-11-08T12:00:00	1	Precipitación	0
113808	7	Sololá	704	Santa Lucía Utatlán 	7	Santa Rita 	8	Agosto	2023-08-27T00:00:00	2024-11-08T12:00:00	8	Radiación solar	1115
113809	7	Sololá	704	Santa Lucía Utatlán 	7	Santa Rita 	8	Agosto	2023-08-27T00:00:00	2024-11-08T13:00:00	2	Temperatura media	21.6
113810	7	Sololá	704	Santa Lucía Utatlán 	7	Santa Rita 	8	Agosto	2023-08-27T00:00:00	2024-11-08T13:00:00	4	Temperatura máxima	22.4
113811	7	Sololá	704	Santa Lucía Utatlán 	7	Santa Rita 	8	Agosto	2023-08-27T00:00:00	2024-11-08T13:00:00	3	Temperatura mínima	21.6
113812	7	Sololá	704	Santa Lucía Utatlán 	7	Santa Rita 	8	Agosto	2023-08-27T00:00:00	2024-11-08T13:00:00	5	Humedad	87
113813	7	Sololá	704	Santa Lucía Utatlán 	7	Santa Rita 	8	Agosto	2023-08-27T00:00:00	2024-11-08T13:00:00	6	Velocidad del viento	1.6
113814	7	Sololá	704	Santa Lucía Utatlán 	7	Santa Rita 	8	Agosto	2023-08-27T00:00:00	2024-11-08T13:00:00	7	Dirección del viento	1.61
113815	7	Sololá	704	Santa Lucía Utatlán 	7	Santa Rita 	8	Agosto	2023-08-27T00:00:00	2024-11-08T13:00:00	1	Precipitación	0
113816	7	Sololá	704	Santa Lucía Utatlán 	7	Santa Rita 	8	Agosto	2023-08-27T00:00:00	2024-11-08T13:00:00	8	Radiación solar	537
113817	7	Sololá	704	Santa Lucía Utatlán 	7	Santa Rita 	8	Agosto	2023-08-27T00:00:00	2024-11-08T14:00:00	2	Temperatura media	20.7
113818	7	Sololá	704	Santa Lucía Utatlán 	7	Santa Rita 	8	Agosto	2023-08-27T00:00:00	2024-11-08T14:00:00	4	Temperatura máxima	21.6
113819	7	Sololá	704	Santa Lucía Utatlán 	7	Santa Rita 	8	Agosto	2023-08-27T00:00:00	2024-11-08T14:00:00	3	Temperatura mínima	20.7
113820	7	Sololá	704	Santa Lucía Utatlán 	7	Santa Rita 	8	Agosto	2023-08-27T00:00:00	2024-11-08T14:00:00	5	Humedad	88
113821	7	Sololá	704	Santa Lucía Utatlán 	7	Santa Rita 	8	Agosto	2023-08-27T00:00:00	2024-11-08T14:00:00	6	Velocidad del viento	1.6
113822	7	Sololá	704	Santa Lucía Utatlán 	7	Santa Rita 	8	Agosto	2023-08-27T00:00:00	2024-11-08T14:00:00	7	Dirección del viento	1.61
113823	7	Sololá	704	Santa Lucía Utatlán 	7	Santa Rita 	8	Agosto	2023-08-27T00:00:00	2024-11-08T14:00:00	1	Precipitación	0
113824	7	Sololá	704	Santa Lucía Utatlán 	7	Santa Rita 	8	Agosto	2023-08-27T00:00:00	2024-11-08T14:00:00	8	Radiación solar	363
113825	7	Sololá	704	Santa Lucía Utatlán 	7	Santa Rita 	8	Agosto	2023-08-27T00:00:00	2024-11-08T15:00:00	2	Temperatura media	20.4
113826	7	Sololá	704	Santa Lucía Utatlán 	7	Santa Rita 	8	Agosto	2023-08-27T00:00:00	2024-11-08T15:00:00	4	Temperatura máxima	20.7
113827	7	Sololá	704	Santa Lucía Utatlán 	7	Santa Rita 	8	Agosto	2023-08-27T00:00:00	2024-11-08T15:00:00	3	Temperatura mínima	20.4
113828	7	Sololá	704	Santa Lucía Utatlán 	7	Santa Rita 	8	Agosto	2023-08-27T00:00:00	2024-11-08T15:00:00	5	Humedad	91
113829	7	Sololá	704	Santa Lucía Utatlán 	7	Santa Rita 	8	Agosto	2023-08-27T00:00:00	2024-11-08T15:00:00	6	Velocidad del viento	1.6
113830	7	Sololá	704	Santa Lucía Utatlán 	7	Santa Rita 	8	Agosto	2023-08-27T00:00:00	2024-11-08T15:00:00	7	Dirección del viento	1.61
113831	7	Sololá	704	Santa Lucía Utatlán 	7	Santa Rita 	8	Agosto	2023-08-27T00:00:00	2024-11-08T15:00:00	1	Precipitación	0
113832	7	Sololá	704	Santa Lucía Utatlán 	7	Santa Rita 	8	Agosto	2023-08-27T00:00:00	2024-11-08T15:00:00	8	Radiación solar	225
113833	7	Sololá	704	Santa Lucía Utatlán 	7	Santa Rita 	8	Agosto	2023-08-27T00:00:00	2024-11-08T16:00:00	2	Temperatura media	20.4
113834	7	Sololá	704	Santa Lucía Utatlán 	7	Santa Rita 	8	Agosto	2023-08-27T00:00:00	2024-11-08T16:00:00	4	Temperatura máxima	20.7
113835	7	Sololá	704	Santa Lucía Utatlán 	7	Santa Rita 	8	Agosto	2023-08-27T00:00:00	2024-11-08T16:00:00	3	Temperatura mínima	20.3
113836	7	Sololá	704	Santa Lucía Utatlán 	7	Santa Rita 	8	Agosto	2023-08-27T00:00:00	2024-11-08T16:00:00	5	Humedad	92
113837	7	Sololá	704	Santa Lucía Utatlán 	7	Santa Rita 	8	Agosto	2023-08-27T00:00:00	2024-11-08T16:00:00	6	Velocidad del viento	1.6
113838	7	Sololá	704	Santa Lucía Utatlán 	7	Santa Rita 	8	Agosto	2023-08-27T00:00:00	2024-11-08T16:00:00	7	Dirección del viento	1.61
113839	7	Sololá	704	Santa Lucía Utatlán 	7	Santa Rita 	8	Agosto	2023-08-27T00:00:00	2024-11-08T16:00:00	1	Precipitación	0.2
113840	7	Sololá	704	Santa Lucía Utatlán 	7	Santa Rita 	8	Agosto	2023-08-27T00:00:00	2024-11-08T16:00:00	8	Radiación solar	164
113841	7	Sololá	704	Santa Lucía Utatlán 	7	Santa Rita 	8	Agosto	2023-08-27T00:00:00	2024-11-08T17:00:00	2	Temperatura media	19.8
113842	7	Sololá	704	Santa Lucía Utatlán 	7	Santa Rita 	8	Agosto	2023-08-27T00:00:00	2024-11-08T17:00:00	4	Temperatura máxima	20.4
113843	7	Sololá	704	Santa Lucía Utatlán 	7	Santa Rita 	8	Agosto	2023-08-27T00:00:00	2024-11-08T17:00:00	3	Temperatura mínima	19.8
113844	7	Sololá	704	Santa Lucía Utatlán 	7	Santa Rita 	8	Agosto	2023-08-27T00:00:00	2024-11-08T17:00:00	5	Humedad	94
113845	7	Sololá	704	Santa Lucía Utatlán 	7	Santa Rita 	8	Agosto	2023-08-27T00:00:00	2024-11-08T17:00:00	6	Velocidad del viento	1.6
113846	7	Sololá	704	Santa Lucía Utatlán 	7	Santa Rita 	8	Agosto	2023-08-27T00:00:00	2024-11-08T17:00:00	7	Dirección del viento	1.61
113847	7	Sololá	704	Santa Lucía Utatlán 	7	Santa Rita 	8	Agosto	2023-08-27T00:00:00	2024-11-08T17:00:00	1	Precipitación	0.6
113848	7	Sololá	704	Santa Lucía Utatlán 	7	Santa Rita 	8	Agosto	2023-08-27T00:00:00	2024-11-08T17:00:00	8	Radiación solar	104
113849	7	Sololá	704	Santa Lucía Utatlán 	7	Santa Rita 	8	Agosto	2023-08-27T00:00:00	2024-11-08T18:00:00	2	Temperatura media	19.5
113850	7	Sololá	704	Santa Lucía Utatlán 	7	Santa Rita 	8	Agosto	2023-08-27T00:00:00	2024-11-08T18:00:00	4	Temperatura máxima	19.8
113851	7	Sololá	704	Santa Lucía Utatlán 	7	Santa Rita 	8	Agosto	2023-08-27T00:00:00	2024-11-08T18:00:00	3	Temperatura mínima	19.4
113852	7	Sololá	704	Santa Lucía Utatlán 	7	Santa Rita 	8	Agosto	2023-08-27T00:00:00	2024-11-08T18:00:00	5	Humedad	95
113853	7	Sololá	704	Santa Lucía Utatlán 	7	Santa Rita 	8	Agosto	2023-08-27T00:00:00	2024-11-08T18:00:00	6	Velocidad del viento	0
113854	7	Sololá	704	Santa Lucía Utatlán 	7	Santa Rita 	8	Agosto	2023-08-27T00:00:00	2024-11-08T18:00:00	7	Dirección del viento	0
113855	7	Sololá	704	Santa Lucía Utatlán 	7	Santa Rita 	8	Agosto	2023-08-27T00:00:00	2024-11-08T18:00:00	1	Precipitación	0.8
113856	7	Sololá	704	Santa Lucía Utatlán 	7	Santa Rita 	8	Agosto	2023-08-27T00:00:00	2024-11-08T18:00:00	8	Radiación solar	20
113857	7	Sololá	704	Santa Lucía Utatlán 	7	Santa Rita 	8	Agosto	2023-08-27T00:00:00	2024-11-08T19:00:00	2	Temperatura media	18.9
113858	7	Sololá	704	Santa Lucía Utatlán 	7	Santa Rita 	8	Agosto	2023-08-27T00:00:00	2024-11-08T19:00:00	4	Temperatura máxima	19.5
113859	7	Sololá	704	Santa Lucía Utatlán 	7	Santa Rita 	8	Agosto	2023-08-27T00:00:00	2024-11-08T19:00:00	3	Temperatura mínima	18.9
113860	7	Sololá	704	Santa Lucía Utatlán 	7	Santa Rita 	8	Agosto	2023-08-27T00:00:00	2024-11-08T19:00:00	5	Humedad	94
113861	7	Sololá	704	Santa Lucía Utatlán 	7	Santa Rita 	8	Agosto	2023-08-27T00:00:00	2024-11-08T19:00:00	6	Velocidad del viento	1.6
113862	7	Sololá	704	Santa Lucía Utatlán 	7	Santa Rita 	8	Agosto	2023-08-27T00:00:00	2024-11-08T19:00:00	7	Dirección del viento	1.61
113863	7	Sololá	704	Santa Lucía Utatlán 	7	Santa Rita 	8	Agosto	2023-08-27T00:00:00	2024-11-08T19:00:00	1	Precipitación	0.4
113864	7	Sololá	704	Santa Lucía Utatlán 	7	Santa Rita 	8	Agosto	2023-08-27T00:00:00	2024-11-08T19:00:00	8	Radiación solar	0
113865	7	Sololá	704	Santa Lucía Utatlán 	7	Santa Rita 	8	Agosto	2023-08-27T00:00:00	2024-11-08T20:00:00	2	Temperatura media	18.6
113866	7	Sololá	704	Santa Lucía Utatlán 	7	Santa Rita 	8	Agosto	2023-08-27T00:00:00	2024-11-08T20:00:00	4	Temperatura máxima	19
113867	7	Sololá	704	Santa Lucía Utatlán 	7	Santa Rita 	8	Agosto	2023-08-27T00:00:00	2024-11-08T20:00:00	3	Temperatura mínima	18.5
113868	7	Sololá	704	Santa Lucía Utatlán 	7	Santa Rita 	8	Agosto	2023-08-27T00:00:00	2024-11-08T20:00:00	5	Humedad	94
113869	7	Sololá	704	Santa Lucía Utatlán 	7	Santa Rita 	8	Agosto	2023-08-27T00:00:00	2024-11-08T20:00:00	6	Velocidad del viento	1.6
113870	7	Sololá	704	Santa Lucía Utatlán 	7	Santa Rita 	8	Agosto	2023-08-27T00:00:00	2024-11-08T20:00:00	7	Dirección del viento	1.61
113871	7	Sololá	704	Santa Lucía Utatlán 	7	Santa Rita 	8	Agosto	2023-08-27T00:00:00	2024-11-08T20:00:00	1	Precipitación	0
113872	7	Sololá	704	Santa Lucía Utatlán 	7	Santa Rita 	8	Agosto	2023-08-27T00:00:00	2024-11-08T20:00:00	8	Radiación solar	0
113873	7	Sololá	704	Santa Lucía Utatlán 	7	Santa Rita 	8	Agosto	2023-08-27T00:00:00	2024-11-08T21:00:00	2	Temperatura media	18.8
113874	7	Sololá	704	Santa Lucía Utatlán 	7	Santa Rita 	8	Agosto	2023-08-27T00:00:00	2024-11-08T21:00:00	4	Temperatura máxima	18.8
113875	7	Sololá	704	Santa Lucía Utatlán 	7	Santa Rita 	8	Agosto	2023-08-27T00:00:00	2024-11-08T21:00:00	3	Temperatura mínima	18.4
113876	7	Sololá	704	Santa Lucía Utatlán 	7	Santa Rita 	8	Agosto	2023-08-27T00:00:00	2024-11-08T21:00:00	5	Humedad	96
113877	7	Sololá	704	Santa Lucía Utatlán 	7	Santa Rita 	8	Agosto	2023-08-27T00:00:00	2024-11-08T21:00:00	6	Velocidad del viento	1.6
113878	7	Sololá	704	Santa Lucía Utatlán 	7	Santa Rita 	8	Agosto	2023-08-27T00:00:00	2024-11-08T21:00:00	7	Dirección del viento	1.61
113879	7	Sololá	704	Santa Lucía Utatlán 	7	Santa Rita 	8	Agosto	2023-08-27T00:00:00	2024-11-08T21:00:00	1	Precipitación	0.2
113880	7	Sololá	704	Santa Lucía Utatlán 	7	Santa Rita 	8	Agosto	2023-08-27T00:00:00	2024-11-08T21:00:00	8	Radiación solar	0
113881	7	Sololá	704	Santa Lucía Utatlán 	7	Santa Rita 	8	Agosto	2023-08-27T00:00:00	2024-11-08T22:00:00	2	Temperatura media	18.3
113882	7	Sololá	704	Santa Lucía Utatlán 	7	Santa Rita 	8	Agosto	2023-08-27T00:00:00	2024-11-08T22:00:00	4	Temperatura máxima	18.8
113883	7	Sololá	704	Santa Lucía Utatlán 	7	Santa Rita 	8	Agosto	2023-08-27T00:00:00	2024-11-08T22:00:00	3	Temperatura mínima	18.3
113884	7	Sololá	704	Santa Lucía Utatlán 	7	Santa Rita 	8	Agosto	2023-08-27T00:00:00	2024-11-08T22:00:00	5	Humedad	96
113885	7	Sololá	704	Santa Lucía Utatlán 	7	Santa Rita 	8	Agosto	2023-08-27T00:00:00	2024-11-08T22:00:00	6	Velocidad del viento	1.6
113886	7	Sololá	704	Santa Lucía Utatlán 	7	Santa Rita 	8	Agosto	2023-08-27T00:00:00	2024-11-08T22:00:00	7	Dirección del viento	1.61
113887	7	Sololá	704	Santa Lucía Utatlán 	7	Santa Rita 	8	Agosto	2023-08-27T00:00:00	2024-11-08T22:00:00	1	Precipitación	1.6
113888	7	Sololá	704	Santa Lucía Utatlán 	7	Santa Rita 	8	Agosto	2023-08-27T00:00:00	2024-11-08T22:00:00	8	Radiación solar	0
113889	7	Sololá	704	Santa Lucía Utatlán 	7	Santa Rita 	8	Agosto	2023-08-27T00:00:00	2024-11-08T23:00:00	2	Temperatura media	18.2
113890	7	Sololá	704	Santa Lucía Utatlán 	7	Santa Rita 	8	Agosto	2023-08-27T00:00:00	2024-11-08T23:00:00	4	Temperatura máxima	18.4
113891	7	Sololá	704	Santa Lucía Utatlán 	7	Santa Rita 	8	Agosto	2023-08-27T00:00:00	2024-11-08T23:00:00	3	Temperatura mínima	18.2
113892	7	Sololá	704	Santa Lucía Utatlán 	7	Santa Rita 	8	Agosto	2023-08-27T00:00:00	2024-11-08T23:00:00	5	Humedad	95
113893	7	Sololá	704	Santa Lucía Utatlán 	7	Santa Rita 	8	Agosto	2023-08-27T00:00:00	2024-11-08T23:00:00	6	Velocidad del viento	1.6
113894	7	Sololá	704	Santa Lucía Utatlán 	7	Santa Rita 	8	Agosto	2023-08-27T00:00:00	2024-11-08T23:00:00	7	Dirección del viento	1.61
113895	7	Sololá	704	Santa Lucía Utatlán 	7	Santa Rita 	8	Agosto	2023-08-27T00:00:00	2024-11-08T23:00:00	1	Precipitación	0.2
113896	7	Sololá	704	Santa Lucía Utatlán 	7	Santa Rita 	8	Agosto	2023-08-27T00:00:00	2024-11-08T23:00:00	8	Radiación solar	0
113897	7	Sololá	704	Santa Lucía Utatlán 	7	Santa Rita 	8	Agosto	2023-08-28T00:00:00	2024-11-08T00:00:00	2	Temperatura media	17.8
113898	7	Sololá	704	Santa Lucía Utatlán 	7	Santa Rita 	8	Agosto	2023-08-28T00:00:00	2024-11-08T00:00:00	4	Temperatura máxima	18.2
113899	7	Sololá	704	Santa Lucía Utatlán 	7	Santa Rita 	8	Agosto	2023-08-28T00:00:00	2024-11-08T00:00:00	3	Temperatura mínima	17.8
113900	7	Sololá	704	Santa Lucía Utatlán 	7	Santa Rita 	8	Agosto	2023-08-28T00:00:00	2024-11-08T00:00:00	5	Humedad	95
113901	7	Sololá	704	Santa Lucía Utatlán 	7	Santa Rita 	8	Agosto	2023-08-28T00:00:00	2024-11-08T00:00:00	6	Velocidad del viento	1.6
113902	7	Sololá	704	Santa Lucía Utatlán 	7	Santa Rita 	8	Agosto	2023-08-28T00:00:00	2024-11-08T00:00:00	7	Dirección del viento	1.61
113903	7	Sololá	704	Santa Lucía Utatlán 	7	Santa Rita 	8	Agosto	2023-08-28T00:00:00	2024-11-08T00:00:00	1	Precipitación	0
113904	7	Sololá	704	Santa Lucía Utatlán 	7	Santa Rita 	8	Agosto	2023-08-28T00:00:00	2024-11-08T00:00:00	8	Radiación solar	0
113905	7	Sololá	704	Santa Lucía Utatlán 	7	Santa Rita 	8	Agosto	2023-08-28T00:00:00	2024-11-08T01:00:00	2	Temperatura media	17.8
113906	7	Sololá	704	Santa Lucía Utatlán 	7	Santa Rita 	8	Agosto	2023-08-28T00:00:00	2024-11-08T01:00:00	4	Temperatura máxima	17.8
113907	7	Sololá	704	Santa Lucía Utatlán 	7	Santa Rita 	8	Agosto	2023-08-28T00:00:00	2024-11-08T01:00:00	3	Temperatura mínima	17.4
113908	7	Sololá	704	Santa Lucía Utatlán 	7	Santa Rita 	8	Agosto	2023-08-28T00:00:00	2024-11-08T01:00:00	5	Humedad	94
113909	7	Sololá	704	Santa Lucía Utatlán 	7	Santa Rita 	8	Agosto	2023-08-28T00:00:00	2024-11-08T01:00:00	6	Velocidad del viento	1.6
113910	7	Sololá	704	Santa Lucía Utatlán 	7	Santa Rita 	8	Agosto	2023-08-28T00:00:00	2024-11-08T01:00:00	7	Dirección del viento	1.61
113911	7	Sololá	704	Santa Lucía Utatlán 	7	Santa Rita 	8	Agosto	2023-08-28T00:00:00	2024-11-08T01:00:00	1	Precipitación	0
113912	7	Sololá	704	Santa Lucía Utatlán 	7	Santa Rita 	8	Agosto	2023-08-28T00:00:00	2024-11-08T01:00:00	8	Radiación solar	0
113913	7	Sololá	704	Santa Lucía Utatlán 	7	Santa Rita 	8	Agosto	2023-08-28T00:00:00	2024-11-08T02:00:00	2	Temperatura media	20.1
113914	7	Sololá	704	Santa Lucía Utatlán 	7	Santa Rita 	8	Agosto	2023-08-28T00:00:00	2024-11-08T02:00:00	4	Temperatura máxima	20.1
113915	7	Sololá	704	Santa Lucía Utatlán 	7	Santa Rita 	8	Agosto	2023-08-28T00:00:00	2024-11-08T02:00:00	3	Temperatura mínima	17.7
113916	7	Sololá	704	Santa Lucía Utatlán 	7	Santa Rita 	8	Agosto	2023-08-28T00:00:00	2024-11-08T02:00:00	5	Humedad	87
113917	7	Sololá	704	Santa Lucía Utatlán 	7	Santa Rita 	8	Agosto	2023-08-28T00:00:00	2024-11-08T02:00:00	6	Velocidad del viento	1.6
113918	7	Sololá	704	Santa Lucía Utatlán 	7	Santa Rita 	8	Agosto	2023-08-28T00:00:00	2024-11-08T02:00:00	7	Dirección del viento	1.61
113919	7	Sololá	704	Santa Lucía Utatlán 	7	Santa Rita 	8	Agosto	2023-08-28T00:00:00	2024-11-08T02:00:00	1	Precipitación	0
113920	7	Sololá	704	Santa Lucía Utatlán 	7	Santa Rita 	8	Agosto	2023-08-28T00:00:00	2024-11-08T02:00:00	8	Radiación solar	0
113921	7	Sololá	704	Santa Lucía Utatlán 	7	Santa Rita 	8	Agosto	2023-08-28T00:00:00	2024-11-08T03:00:00	2	Temperatura media	22.1
113922	7	Sololá	704	Santa Lucía Utatlán 	7	Santa Rita 	8	Agosto	2023-08-28T00:00:00	2024-11-08T03:00:00	4	Temperatura máxima	22.1
113923	7	Sololá	704	Santa Lucía Utatlán 	7	Santa Rita 	8	Agosto	2023-08-28T00:00:00	2024-11-08T03:00:00	3	Temperatura mínima	20.2
113924	7	Sololá	704	Santa Lucía Utatlán 	7	Santa Rita 	8	Agosto	2023-08-28T00:00:00	2024-11-08T03:00:00	5	Humedad	80
113925	7	Sololá	704	Santa Lucía Utatlán 	7	Santa Rita 	8	Agosto	2023-08-28T00:00:00	2024-11-08T03:00:00	6	Velocidad del viento	1.6
113926	7	Sololá	704	Santa Lucía Utatlán 	7	Santa Rita 	8	Agosto	2023-08-28T00:00:00	2024-11-08T03:00:00	7	Dirección del viento	1.61
113927	7	Sololá	704	Santa Lucía Utatlán 	7	Santa Rita 	8	Agosto	2023-08-28T00:00:00	2024-11-08T03:00:00	1	Precipitación	0
113928	7	Sololá	704	Santa Lucía Utatlán 	7	Santa Rita 	8	Agosto	2023-08-28T00:00:00	2024-11-08T03:00:00	8	Radiación solar	0
113929	7	Sololá	704	Santa Lucía Utatlán 	7	Santa Rita 	8	Agosto	2023-08-28T00:00:00	2024-11-08T04:00:00	2	Temperatura media	23.3
113930	7	Sololá	704	Santa Lucía Utatlán 	7	Santa Rita 	8	Agosto	2023-08-28T00:00:00	2024-11-08T04:00:00	4	Temperatura máxima	23.3
113931	7	Sololá	704	Santa Lucía Utatlán 	7	Santa Rita 	8	Agosto	2023-08-28T00:00:00	2024-11-08T04:00:00	3	Temperatura mínima	21.5
113932	7	Sololá	704	Santa Lucía Utatlán 	7	Santa Rita 	8	Agosto	2023-08-28T00:00:00	2024-11-08T04:00:00	5	Humedad	77
113933	7	Sololá	704	Santa Lucía Utatlán 	7	Santa Rita 	8	Agosto	2023-08-28T00:00:00	2024-11-08T04:00:00	6	Velocidad del viento	3.2
113934	7	Sololá	704	Santa Lucía Utatlán 	7	Santa Rita 	8	Agosto	2023-08-28T00:00:00	2024-11-08T04:00:00	7	Dirección del viento	3.22
113935	7	Sololá	704	Santa Lucía Utatlán 	7	Santa Rita 	8	Agosto	2023-08-28T00:00:00	2024-11-08T04:00:00	1	Precipitación	0
113936	7	Sololá	704	Santa Lucía Utatlán 	7	Santa Rita 	8	Agosto	2023-08-28T00:00:00	2024-11-08T04:00:00	8	Radiación solar	0
113937	7	Sololá	704	Santa Lucía Utatlán 	7	Santa Rita 	8	Agosto	2023-08-28T00:00:00	2024-11-08T05:00:00	2	Temperatura media	25.1
113938	7	Sololá	704	Santa Lucía Utatlán 	7	Santa Rita 	8	Agosto	2023-08-28T00:00:00	2024-11-08T05:00:00	4	Temperatura máxima	25.2
113939	7	Sololá	704	Santa Lucía Utatlán 	7	Santa Rita 	8	Agosto	2023-08-28T00:00:00	2024-11-08T05:00:00	3	Temperatura mínima	23.3
113940	7	Sololá	704	Santa Lucía Utatlán 	7	Santa Rita 	8	Agosto	2023-08-28T00:00:00	2024-11-08T05:00:00	5	Humedad	69
113941	7	Sololá	704	Santa Lucía Utatlán 	7	Santa Rita 	8	Agosto	2023-08-28T00:00:00	2024-11-08T05:00:00	6	Velocidad del viento	4.8
113942	7	Sololá	704	Santa Lucía Utatlán 	7	Santa Rita 	8	Agosto	2023-08-28T00:00:00	2024-11-08T05:00:00	7	Dirección del viento	4.83
113943	7	Sololá	704	Santa Lucía Utatlán 	7	Santa Rita 	8	Agosto	2023-08-28T00:00:00	2024-11-08T05:00:00	1	Precipitación	0
113944	7	Sololá	704	Santa Lucía Utatlán 	7	Santa Rita 	8	Agosto	2023-08-28T00:00:00	2024-11-08T05:00:00	8	Radiación solar	0
113945	7	Sololá	704	Santa Lucía Utatlán 	7	Santa Rita 	8	Agosto	2023-08-28T00:00:00	2024-11-08T06:00:00	2	Temperatura media	23.7
113946	7	Sololá	704	Santa Lucía Utatlán 	7	Santa Rita 	8	Agosto	2023-08-28T00:00:00	2024-11-08T06:00:00	4	Temperatura máxima	25.6
113947	7	Sololá	704	Santa Lucía Utatlán 	7	Santa Rita 	8	Agosto	2023-08-28T00:00:00	2024-11-08T06:00:00	3	Temperatura mínima	23.6
113948	7	Sololá	704	Santa Lucía Utatlán 	7	Santa Rita 	8	Agosto	2023-08-28T00:00:00	2024-11-08T06:00:00	5	Humedad	80
113949	7	Sololá	704	Santa Lucía Utatlán 	7	Santa Rita 	8	Agosto	2023-08-28T00:00:00	2024-11-08T06:00:00	6	Velocidad del viento	8
113950	7	Sololá	704	Santa Lucía Utatlán 	7	Santa Rita 	8	Agosto	2023-08-28T00:00:00	2024-11-08T06:00:00	7	Dirección del viento	8.05
113951	7	Sololá	704	Santa Lucía Utatlán 	7	Santa Rita 	8	Agosto	2023-08-28T00:00:00	2024-11-08T06:00:00	1	Precipitación	0
113952	7	Sololá	704	Santa Lucía Utatlán 	7	Santa Rita 	8	Agosto	2023-08-28T00:00:00	2024-11-08T06:00:00	8	Radiación solar	0
113953	7	Sololá	704	Santa Lucía Utatlán 	7	Santa Rita 	8	Agosto	2023-08-28T00:00:00	2024-11-08T07:00:00	2	Temperatura media	22.7
113954	7	Sololá	704	Santa Lucía Utatlán 	7	Santa Rita 	8	Agosto	2023-08-28T00:00:00	2024-11-08T07:00:00	4	Temperatura máxima	24.1
113955	7	Sololá	704	Santa Lucía Utatlán 	7	Santa Rita 	8	Agosto	2023-08-28T00:00:00	2024-11-08T07:00:00	3	Temperatura mínima	22.7
113956	7	Sololá	704	Santa Lucía Utatlán 	7	Santa Rita 	8	Agosto	2023-08-28T00:00:00	2024-11-08T07:00:00	5	Humedad	85
113957	7	Sololá	704	Santa Lucía Utatlán 	7	Santa Rita 	8	Agosto	2023-08-28T00:00:00	2024-11-08T07:00:00	6	Velocidad del viento	4.8
113958	7	Sololá	704	Santa Lucía Utatlán 	7	Santa Rita 	8	Agosto	2023-08-28T00:00:00	2024-11-08T07:00:00	7	Dirección del viento	4.83
113959	7	Sololá	704	Santa Lucía Utatlán 	7	Santa Rita 	8	Agosto	2023-08-28T00:00:00	2024-11-08T07:00:00	1	Precipitación	0
113960	7	Sololá	704	Santa Lucía Utatlán 	7	Santa Rita 	8	Agosto	2023-08-28T00:00:00	2024-11-08T07:00:00	8	Radiación solar	122
113961	7	Sololá	704	Santa Lucía Utatlán 	7	Santa Rita 	8	Agosto	2023-08-28T00:00:00	2024-11-08T08:00:00	2	Temperatura media	22.4
113962	7	Sololá	704	Santa Lucía Utatlán 	7	Santa Rita 	8	Agosto	2023-08-28T00:00:00	2024-11-08T08:00:00	4	Temperatura máxima	23.1
113963	7	Sololá	704	Santa Lucía Utatlán 	7	Santa Rita 	8	Agosto	2023-08-28T00:00:00	2024-11-08T08:00:00	3	Temperatura mínima	22.4
113964	7	Sololá	704	Santa Lucía Utatlán 	7	Santa Rita 	8	Agosto	2023-08-28T00:00:00	2024-11-08T08:00:00	5	Humedad	82
113965	7	Sololá	704	Santa Lucía Utatlán 	7	Santa Rita 	8	Agosto	2023-08-28T00:00:00	2024-11-08T08:00:00	6	Velocidad del viento	6.4
113966	7	Sololá	704	Santa Lucía Utatlán 	7	Santa Rita 	8	Agosto	2023-08-28T00:00:00	2024-11-08T08:00:00	7	Dirección del viento	6.44
113967	7	Sololá	704	Santa Lucía Utatlán 	7	Santa Rita 	8	Agosto	2023-08-28T00:00:00	2024-11-08T08:00:00	1	Precipitación	0
113968	7	Sololá	704	Santa Lucía Utatlán 	7	Santa Rita 	8	Agosto	2023-08-28T00:00:00	2024-11-08T08:00:00	8	Radiación solar	331
113969	7	Sololá	704	Santa Lucía Utatlán 	7	Santa Rita 	8	Agosto	2023-08-28T00:00:00	2024-11-08T09:00:00	2	Temperatura media	22.1
113970	7	Sololá	704	Santa Lucía Utatlán 	7	Santa Rita 	8	Agosto	2023-08-28T00:00:00	2024-11-08T09:00:00	4	Temperatura máxima	23.5
113971	7	Sololá	704	Santa Lucía Utatlán 	7	Santa Rita 	8	Agosto	2023-08-28T00:00:00	2024-11-08T09:00:00	3	Temperatura mínima	22.1
113972	7	Sololá	704	Santa Lucía Utatlán 	7	Santa Rita 	8	Agosto	2023-08-28T00:00:00	2024-11-08T09:00:00	5	Humedad	84
113973	7	Sololá	704	Santa Lucía Utatlán 	7	Santa Rita 	8	Agosto	2023-08-28T00:00:00	2024-11-08T09:00:00	6	Velocidad del viento	4.8
113974	7	Sololá	704	Santa Lucía Utatlán 	7	Santa Rita 	8	Agosto	2023-08-28T00:00:00	2024-11-08T09:00:00	7	Dirección del viento	4.83
113975	7	Sololá	704	Santa Lucía Utatlán 	7	Santa Rita 	8	Agosto	2023-08-28T00:00:00	2024-11-08T09:00:00	1	Precipitación	0
113976	7	Sololá	704	Santa Lucía Utatlán 	7	Santa Rita 	8	Agosto	2023-08-28T00:00:00	2024-11-08T09:00:00	8	Radiación solar	489
113977	7	Sololá	704	Santa Lucía Utatlán 	7	Santa Rita 	8	Agosto	2023-08-28T00:00:00	2024-11-08T10:00:00	2	Temperatura media	20.3
113978	7	Sololá	704	Santa Lucía Utatlán 	7	Santa Rita 	8	Agosto	2023-08-28T00:00:00	2024-11-08T10:00:00	4	Temperatura máxima	22.2
113979	7	Sololá	704	Santa Lucía Utatlán 	7	Santa Rita 	8	Agosto	2023-08-28T00:00:00	2024-11-08T10:00:00	3	Temperatura mínima	20.3
113980	7	Sololá	704	Santa Lucía Utatlán 	7	Santa Rita 	8	Agosto	2023-08-28T00:00:00	2024-11-08T10:00:00	5	Humedad	91
113981	7	Sololá	704	Santa Lucía Utatlán 	7	Santa Rita 	8	Agosto	2023-08-28T00:00:00	2024-11-08T10:00:00	6	Velocidad del viento	4.8
113982	7	Sololá	704	Santa Lucía Utatlán 	7	Santa Rita 	8	Agosto	2023-08-28T00:00:00	2024-11-08T10:00:00	7	Dirección del viento	4.83
113983	7	Sololá	704	Santa Lucía Utatlán 	7	Santa Rita 	8	Agosto	2023-08-28T00:00:00	2024-11-08T10:00:00	1	Precipitación	0
113984	7	Sololá	704	Santa Lucía Utatlán 	7	Santa Rita 	8	Agosto	2023-08-28T00:00:00	2024-11-08T10:00:00	8	Radiación solar	855
113985	7	Sololá	704	Santa Lucía Utatlán 	7	Santa Rita 	8	Agosto	2023-08-28T00:00:00	2024-11-08T11:00:00	2	Temperatura media	20.2
113986	7	Sololá	704	Santa Lucía Utatlán 	7	Santa Rita 	8	Agosto	2023-08-28T00:00:00	2024-11-08T11:00:00	4	Temperatura máxima	20.4
113987	7	Sololá	704	Santa Lucía Utatlán 	7	Santa Rita 	8	Agosto	2023-08-28T00:00:00	2024-11-08T11:00:00	3	Temperatura mínima	20.2
113988	7	Sololá	704	Santa Lucía Utatlán 	7	Santa Rita 	8	Agosto	2023-08-28T00:00:00	2024-11-08T11:00:00	5	Humedad	93
113989	7	Sololá	704	Santa Lucía Utatlán 	7	Santa Rita 	8	Agosto	2023-08-28T00:00:00	2024-11-08T11:00:00	6	Velocidad del viento	1.6
113990	7	Sololá	704	Santa Lucía Utatlán 	7	Santa Rita 	8	Agosto	2023-08-28T00:00:00	2024-11-08T11:00:00	7	Dirección del viento	1.61
113991	7	Sololá	704	Santa Lucía Utatlán 	7	Santa Rita 	8	Agosto	2023-08-28T00:00:00	2024-11-08T11:00:00	1	Precipitación	0.8
113992	7	Sololá	704	Santa Lucía Utatlán 	7	Santa Rita 	8	Agosto	2023-08-28T00:00:00	2024-11-08T11:00:00	8	Radiación solar	637
113993	7	Sololá	704	Santa Lucía Utatlán 	7	Santa Rita 	8	Agosto	2023-08-28T00:00:00	2024-11-08T12:00:00	2	Temperatura media	20.3
113994	7	Sololá	704	Santa Lucía Utatlán 	7	Santa Rita 	8	Agosto	2023-08-28T00:00:00	2024-11-08T12:00:00	4	Temperatura máxima	20.4
113995	7	Sololá	704	Santa Lucía Utatlán 	7	Santa Rita 	8	Agosto	2023-08-28T00:00:00	2024-11-08T12:00:00	3	Temperatura mínima	20.1
113996	7	Sololá	704	Santa Lucía Utatlán 	7	Santa Rita 	8	Agosto	2023-08-28T00:00:00	2024-11-08T12:00:00	5	Humedad	94
113997	7	Sololá	704	Santa Lucía Utatlán 	7	Santa Rita 	8	Agosto	2023-08-28T00:00:00	2024-11-08T12:00:00	6	Velocidad del viento	1.6
113998	7	Sololá	704	Santa Lucía Utatlán 	7	Santa Rita 	8	Agosto	2023-08-28T00:00:00	2024-11-08T12:00:00	7	Dirección del viento	1.61
113999	7	Sololá	704	Santa Lucía Utatlán 	7	Santa Rita 	8	Agosto	2023-08-28T00:00:00	2024-11-08T12:00:00	1	Precipitación	0.6
114000	7	Sololá	704	Santa Lucía Utatlán 	7	Santa Rita 	8	Agosto	2023-08-28T00:00:00	2024-11-08T12:00:00	8	Radiación solar	258
114001	7	Sololá	704	Santa Lucía Utatlán 	7	Santa Rita 	8	Agosto	2023-08-28T00:00:00	2024-11-08T13:00:00	2	Temperatura media	19.9
114002	7	Sololá	704	Santa Lucía Utatlán 	7	Santa Rita 	8	Agosto	2023-08-28T00:00:00	2024-11-08T13:00:00	4	Temperatura máxima	20.4
114003	7	Sololá	704	Santa Lucía Utatlán 	7	Santa Rita 	8	Agosto	2023-08-28T00:00:00	2024-11-08T13:00:00	3	Temperatura mínima	19.9
114004	7	Sololá	704	Santa Lucía Utatlán 	7	Santa Rita 	8	Agosto	2023-08-28T00:00:00	2024-11-08T13:00:00	5	Humedad	95
114005	7	Sololá	704	Santa Lucía Utatlán 	7	Santa Rita 	8	Agosto	2023-08-28T00:00:00	2024-11-08T13:00:00	6	Velocidad del viento	1.6
114006	7	Sololá	704	Santa Lucía Utatlán 	7	Santa Rita 	8	Agosto	2023-08-28T00:00:00	2024-11-08T13:00:00	7	Dirección del viento	1.61
114007	7	Sololá	704	Santa Lucía Utatlán 	7	Santa Rita 	8	Agosto	2023-08-28T00:00:00	2024-11-08T13:00:00	1	Precipitación	0
114008	7	Sololá	704	Santa Lucía Utatlán 	7	Santa Rita 	8	Agosto	2023-08-28T00:00:00	2024-11-08T13:00:00	8	Radiación solar	280
114009	7	Sololá	704	Santa Lucía Utatlán 	7	Santa Rita 	8	Agosto	2023-08-28T00:00:00	2024-11-08T14:00:00	2	Temperatura media	19.7
114010	7	Sololá	704	Santa Lucía Utatlán 	7	Santa Rita 	8	Agosto	2023-08-28T00:00:00	2024-11-08T14:00:00	4	Temperatura máxima	19.9
114011	7	Sololá	704	Santa Lucía Utatlán 	7	Santa Rita 	8	Agosto	2023-08-28T00:00:00	2024-11-08T14:00:00	3	Temperatura mínima	19.6
114012	7	Sololá	704	Santa Lucía Utatlán 	7	Santa Rita 	8	Agosto	2023-08-28T00:00:00	2024-11-08T14:00:00	5	Humedad	95
114013	7	Sololá	704	Santa Lucía Utatlán 	7	Santa Rita 	8	Agosto	2023-08-28T00:00:00	2024-11-08T14:00:00	6	Velocidad del viento	1.6
114014	7	Sololá	704	Santa Lucía Utatlán 	7	Santa Rita 	8	Agosto	2023-08-28T00:00:00	2024-11-08T14:00:00	7	Dirección del viento	1.61
114015	7	Sololá	704	Santa Lucía Utatlán 	7	Santa Rita 	8	Agosto	2023-08-28T00:00:00	2024-11-08T14:00:00	1	Precipitación	0
114016	7	Sololá	704	Santa Lucía Utatlán 	7	Santa Rita 	8	Agosto	2023-08-28T00:00:00	2024-11-08T14:00:00	8	Radiación solar	323
114017	7	Sololá	704	Santa Lucía Utatlán 	7	Santa Rita 	8	Agosto	2023-08-28T00:00:00	2024-11-08T15:00:00	2	Temperatura media	19.3
114018	7	Sololá	704	Santa Lucía Utatlán 	7	Santa Rita 	8	Agosto	2023-08-28T00:00:00	2024-11-08T15:00:00	4	Temperatura máxima	19.7
114019	7	Sololá	704	Santa Lucía Utatlán 	7	Santa Rita 	8	Agosto	2023-08-28T00:00:00	2024-11-08T15:00:00	3	Temperatura mínima	19.3
114020	7	Sololá	704	Santa Lucía Utatlán 	7	Santa Rita 	8	Agosto	2023-08-28T00:00:00	2024-11-08T15:00:00	5	Humedad	95
114021	7	Sololá	704	Santa Lucía Utatlán 	7	Santa Rita 	8	Agosto	2023-08-28T00:00:00	2024-11-08T15:00:00	6	Velocidad del viento	0
114022	7	Sololá	704	Santa Lucía Utatlán 	7	Santa Rita 	8	Agosto	2023-08-28T00:00:00	2024-11-08T15:00:00	7	Dirección del viento	0
114023	7	Sololá	704	Santa Lucía Utatlán 	7	Santa Rita 	8	Agosto	2023-08-28T00:00:00	2024-11-08T15:00:00	1	Precipitación	0
114024	7	Sololá	704	Santa Lucía Utatlán 	7	Santa Rita 	8	Agosto	2023-08-28T00:00:00	2024-11-08T15:00:00	8	Radiación solar	32
114025	7	Sololá	704	Santa Lucía Utatlán 	7	Santa Rita 	8	Agosto	2023-08-28T00:00:00	2024-11-08T16:00:00	2	Temperatura media	19.2
114026	7	Sololá	704	Santa Lucía Utatlán 	7	Santa Rita 	8	Agosto	2023-08-28T00:00:00	2024-11-08T16:00:00	4	Temperatura máxima	19.3
114027	7	Sololá	704	Santa Lucía Utatlán 	7	Santa Rita 	8	Agosto	2023-08-28T00:00:00	2024-11-08T16:00:00	3	Temperatura mínima	19.2
114028	7	Sololá	704	Santa Lucía Utatlán 	7	Santa Rita 	8	Agosto	2023-08-28T00:00:00	2024-11-08T16:00:00	5	Humedad	96
114029	7	Sololá	704	Santa Lucía Utatlán 	7	Santa Rita 	8	Agosto	2023-08-28T00:00:00	2024-11-08T16:00:00	6	Velocidad del viento	1.6
114030	7	Sololá	704	Santa Lucía Utatlán 	7	Santa Rita 	8	Agosto	2023-08-28T00:00:00	2024-11-08T16:00:00	7	Dirección del viento	1.61
114031	7	Sololá	704	Santa Lucía Utatlán 	7	Santa Rita 	8	Agosto	2023-08-28T00:00:00	2024-11-08T16:00:00	1	Precipitación	0.2
114032	7	Sololá	704	Santa Lucía Utatlán 	7	Santa Rita 	8	Agosto	2023-08-28T00:00:00	2024-11-08T16:00:00	8	Radiación solar	39
114033	7	Sololá	704	Santa Lucía Utatlán 	7	Santa Rita 	8	Agosto	2023-08-28T00:00:00	2024-11-08T17:00:00	2	Temperatura media	19
114034	7	Sololá	704	Santa Lucía Utatlán 	7	Santa Rita 	8	Agosto	2023-08-28T00:00:00	2024-11-08T17:00:00	4	Temperatura máxima	19.2
114035	7	Sololá	704	Santa Lucía Utatlán 	7	Santa Rita 	8	Agosto	2023-08-28T00:00:00	2024-11-08T17:00:00	3	Temperatura mínima	18.9
114036	7	Sololá	704	Santa Lucía Utatlán 	7	Santa Rita 	8	Agosto	2023-08-28T00:00:00	2024-11-08T17:00:00	5	Humedad	96
114037	7	Sololá	704	Santa Lucía Utatlán 	7	Santa Rita 	8	Agosto	2023-08-28T00:00:00	2024-11-08T17:00:00	6	Velocidad del viento	0
114038	7	Sololá	704	Santa Lucía Utatlán 	7	Santa Rita 	8	Agosto	2023-08-28T00:00:00	2024-11-08T17:00:00	7	Dirección del viento	0
114039	7	Sololá	704	Santa Lucía Utatlán 	7	Santa Rita 	8	Agosto	2023-08-28T00:00:00	2024-11-08T17:00:00	1	Precipitación	0
114040	7	Sololá	704	Santa Lucía Utatlán 	7	Santa Rita 	8	Agosto	2023-08-28T00:00:00	2024-11-08T17:00:00	8	Radiación solar	34
114041	7	Sololá	704	Santa Lucía Utatlán 	7	Santa Rita 	8	Agosto	2023-08-28T00:00:00	2024-11-08T18:00:00	2	Temperatura media	18.3
114042	7	Sololá	704	Santa Lucía Utatlán 	7	Santa Rita 	8	Agosto	2023-08-28T00:00:00	2024-11-08T18:00:00	4	Temperatura máxima	19
114043	7	Sololá	704	Santa Lucía Utatlán 	7	Santa Rita 	8	Agosto	2023-08-28T00:00:00	2024-11-08T18:00:00	3	Temperatura mínima	18.3
114044	7	Sololá	704	Santa Lucía Utatlán 	7	Santa Rita 	8	Agosto	2023-08-28T00:00:00	2024-11-08T18:00:00	5	Humedad	95
114045	7	Sololá	704	Santa Lucía Utatlán 	7	Santa Rita 	8	Agosto	2023-08-28T00:00:00	2024-11-08T18:00:00	6	Velocidad del viento	1.6
114046	7	Sololá	704	Santa Lucía Utatlán 	7	Santa Rita 	8	Agosto	2023-08-28T00:00:00	2024-11-08T18:00:00	7	Dirección del viento	1.61
114047	7	Sololá	704	Santa Lucía Utatlán 	7	Santa Rita 	8	Agosto	2023-08-28T00:00:00	2024-11-08T18:00:00	1	Precipitación	0
114048	7	Sololá	704	Santa Lucía Utatlán 	7	Santa Rita 	8	Agosto	2023-08-28T00:00:00	2024-11-08T18:00:00	8	Radiación solar	18
114049	7	Sololá	704	Santa Lucía Utatlán 	7	Santa Rita 	8	Agosto	2023-08-28T00:00:00	2024-11-08T19:00:00	2	Temperatura media	18
114050	7	Sololá	704	Santa Lucía Utatlán 	7	Santa Rita 	8	Agosto	2023-08-28T00:00:00	2024-11-08T19:00:00	4	Temperatura máxima	18.3
114051	7	Sololá	704	Santa Lucía Utatlán 	7	Santa Rita 	8	Agosto	2023-08-28T00:00:00	2024-11-08T19:00:00	3	Temperatura mínima	18
114052	7	Sololá	704	Santa Lucía Utatlán 	7	Santa Rita 	8	Agosto	2023-08-28T00:00:00	2024-11-08T19:00:00	5	Humedad	95
114053	7	Sololá	704	Santa Lucía Utatlán 	7	Santa Rita 	8	Agosto	2023-08-28T00:00:00	2024-11-08T19:00:00	6	Velocidad del viento	1.6
114054	7	Sololá	704	Santa Lucía Utatlán 	7	Santa Rita 	8	Agosto	2023-08-28T00:00:00	2024-11-08T19:00:00	7	Dirección del viento	1.61
114055	7	Sololá	704	Santa Lucía Utatlán 	7	Santa Rita 	8	Agosto	2023-08-28T00:00:00	2024-11-08T19:00:00	1	Precipitación	0
114056	7	Sololá	704	Santa Lucía Utatlán 	7	Santa Rita 	8	Agosto	2023-08-28T00:00:00	2024-11-08T19:00:00	8	Radiación solar	0
114057	7	Sololá	704	Santa Lucía Utatlán 	7	Santa Rita 	8	Agosto	2023-08-28T00:00:00	2024-11-08T20:00:00	2	Temperatura media	17.7
114058	7	Sololá	704	Santa Lucía Utatlán 	7	Santa Rita 	8	Agosto	2023-08-28T00:00:00	2024-11-08T20:00:00	4	Temperatura máxima	18
114059	7	Sololá	704	Santa Lucía Utatlán 	7	Santa Rita 	8	Agosto	2023-08-28T00:00:00	2024-11-08T20:00:00	3	Temperatura mínima	17.7
114060	7	Sololá	704	Santa Lucía Utatlán 	7	Santa Rita 	8	Agosto	2023-08-28T00:00:00	2024-11-08T20:00:00	5	Humedad	95
114061	7	Sololá	704	Santa Lucía Utatlán 	7	Santa Rita 	8	Agosto	2023-08-28T00:00:00	2024-11-08T20:00:00	6	Velocidad del viento	1.6
114062	7	Sololá	704	Santa Lucía Utatlán 	7	Santa Rita 	8	Agosto	2023-08-28T00:00:00	2024-11-08T20:00:00	7	Dirección del viento	1.61
114063	7	Sololá	704	Santa Lucía Utatlán 	7	Santa Rita 	8	Agosto	2023-08-28T00:00:00	2024-11-08T20:00:00	1	Precipitación	0
114064	7	Sololá	704	Santa Lucía Utatlán 	7	Santa Rita 	8	Agosto	2023-08-28T00:00:00	2024-11-08T20:00:00	8	Radiación solar	0
114065	7	Sololá	704	Santa Lucía Utatlán 	7	Santa Rita 	8	Agosto	2023-08-28T00:00:00	2024-11-08T21:00:00	2	Temperatura media	18.1
114066	7	Sololá	704	Santa Lucía Utatlán 	7	Santa Rita 	8	Agosto	2023-08-28T00:00:00	2024-11-08T21:00:00	4	Temperatura máxima	18.1
114067	7	Sololá	704	Santa Lucía Utatlán 	7	Santa Rita 	8	Agosto	2023-08-28T00:00:00	2024-11-08T21:00:00	3	Temperatura mínima	17.7
114068	7	Sololá	704	Santa Lucía Utatlán 	7	Santa Rita 	8	Agosto	2023-08-28T00:00:00	2024-11-08T21:00:00	5	Humedad	95
114069	7	Sololá	704	Santa Lucía Utatlán 	7	Santa Rita 	8	Agosto	2023-08-28T00:00:00	2024-11-08T21:00:00	6	Velocidad del viento	1.6
114070	7	Sololá	704	Santa Lucía Utatlán 	7	Santa Rita 	8	Agosto	2023-08-28T00:00:00	2024-11-08T21:00:00	7	Dirección del viento	1.61
114071	7	Sololá	704	Santa Lucía Utatlán 	7	Santa Rita 	8	Agosto	2023-08-28T00:00:00	2024-11-08T21:00:00	1	Precipitación	0
114072	7	Sololá	704	Santa Lucía Utatlán 	7	Santa Rita 	8	Agosto	2023-08-28T00:00:00	2024-11-08T21:00:00	8	Radiación solar	0
114073	7	Sololá	704	Santa Lucía Utatlán 	7	Santa Rita 	8	Agosto	2023-08-28T00:00:00	2024-11-08T22:00:00	2	Temperatura media	18.2
114074	7	Sololá	704	Santa Lucía Utatlán 	7	Santa Rita 	8	Agosto	2023-08-28T00:00:00	2024-11-08T22:00:00	4	Temperatura máxima	18.2
114075	7	Sololá	704	Santa Lucía Utatlán 	7	Santa Rita 	8	Agosto	2023-08-28T00:00:00	2024-11-08T22:00:00	3	Temperatura mínima	18.1
114076	7	Sololá	704	Santa Lucía Utatlán 	7	Santa Rita 	8	Agosto	2023-08-28T00:00:00	2024-11-08T22:00:00	5	Humedad	93
114077	7	Sololá	704	Santa Lucía Utatlán 	7	Santa Rita 	8	Agosto	2023-08-28T00:00:00	2024-11-08T22:00:00	6	Velocidad del viento	3.2
114078	7	Sololá	704	Santa Lucía Utatlán 	7	Santa Rita 	8	Agosto	2023-08-28T00:00:00	2024-11-08T22:00:00	7	Dirección del viento	3.22
114079	7	Sololá	704	Santa Lucía Utatlán 	7	Santa Rita 	8	Agosto	2023-08-28T00:00:00	2024-11-08T22:00:00	1	Precipitación	0
114080	7	Sololá	704	Santa Lucía Utatlán 	7	Santa Rita 	8	Agosto	2023-08-28T00:00:00	2024-11-08T22:00:00	8	Radiación solar	0
114081	7	Sololá	704	Santa Lucía Utatlán 	7	Santa Rita 	8	Agosto	2023-08-28T00:00:00	2024-11-08T23:00:00	2	Temperatura media	17.8
114082	7	Sololá	704	Santa Lucía Utatlán 	7	Santa Rita 	8	Agosto	2023-08-28T00:00:00	2024-11-08T23:00:00	4	Temperatura máxima	18.2
114083	7	Sololá	704	Santa Lucía Utatlán 	7	Santa Rita 	8	Agosto	2023-08-28T00:00:00	2024-11-08T23:00:00	3	Temperatura mínima	17.8
114084	7	Sololá	704	Santa Lucía Utatlán 	7	Santa Rita 	8	Agosto	2023-08-28T00:00:00	2024-11-08T23:00:00	5	Humedad	93
114085	7	Sololá	704	Santa Lucía Utatlán 	7	Santa Rita 	8	Agosto	2023-08-28T00:00:00	2024-11-08T23:00:00	6	Velocidad del viento	3.2
114086	7	Sololá	704	Santa Lucía Utatlán 	7	Santa Rita 	8	Agosto	2023-08-28T00:00:00	2024-11-08T23:00:00	7	Dirección del viento	3.22
114087	7	Sololá	704	Santa Lucía Utatlán 	7	Santa Rita 	8	Agosto	2023-08-28T00:00:00	2024-11-08T23:00:00	1	Precipitación	0
114088	7	Sololá	704	Santa Lucía Utatlán 	7	Santa Rita 	8	Agosto	2023-08-28T00:00:00	2024-11-08T23:00:00	8	Radiación solar	0
114089	7	Sololá	704	Santa Lucía Utatlán 	7	Santa Rita 	8	Agosto	2023-08-29T00:00:00	2024-11-08T00:00:00	2	Temperatura media	17.4
114090	7	Sololá	704	Santa Lucía Utatlán 	7	Santa Rita 	8	Agosto	2023-08-29T00:00:00	2024-11-08T00:00:00	4	Temperatura máxima	17.9
114091	7	Sololá	704	Santa Lucía Utatlán 	7	Santa Rita 	8	Agosto	2023-08-29T00:00:00	2024-11-08T00:00:00	3	Temperatura mínima	17.4
114092	7	Sololá	704	Santa Lucía Utatlán 	7	Santa Rita 	8	Agosto	2023-08-29T00:00:00	2024-11-08T00:00:00	5	Humedad	94
114093	7	Sololá	704	Santa Lucía Utatlán 	7	Santa Rita 	8	Agosto	2023-08-29T00:00:00	2024-11-08T00:00:00	6	Velocidad del viento	3.2
114094	7	Sololá	704	Santa Lucía Utatlán 	7	Santa Rita 	8	Agosto	2023-08-29T00:00:00	2024-11-08T00:00:00	7	Dirección del viento	3.22
114095	7	Sololá	704	Santa Lucía Utatlán 	7	Santa Rita 	8	Agosto	2023-08-29T00:00:00	2024-11-08T00:00:00	1	Precipitación	0
114096	7	Sololá	704	Santa Lucía Utatlán 	7	Santa Rita 	8	Agosto	2023-08-29T00:00:00	2024-11-08T00:00:00	8	Radiación solar	0
114097	7	Sololá	704	Santa Lucía Utatlán 	7	Santa Rita 	8	Agosto	2023-08-29T00:00:00	2024-11-08T01:00:00	2	Temperatura media	17.2
114098	7	Sololá	704	Santa Lucía Utatlán 	7	Santa Rita 	8	Agosto	2023-08-29T00:00:00	2024-11-08T01:00:00	4	Temperatura máxima	17.5
114099	7	Sololá	704	Santa Lucía Utatlán 	7	Santa Rita 	8	Agosto	2023-08-29T00:00:00	2024-11-08T01:00:00	3	Temperatura mínima	17.1
114100	7	Sololá	704	Santa Lucía Utatlán 	7	Santa Rita 	8	Agosto	2023-08-29T00:00:00	2024-11-08T01:00:00	5	Humedad	94
114101	7	Sololá	704	Santa Lucía Utatlán 	7	Santa Rita 	8	Agosto	2023-08-29T00:00:00	2024-11-08T01:00:00	6	Velocidad del viento	3.2
114102	7	Sololá	704	Santa Lucía Utatlán 	7	Santa Rita 	8	Agosto	2023-08-29T00:00:00	2024-11-08T01:00:00	7	Dirección del viento	3.22
114103	7	Sololá	704	Santa Lucía Utatlán 	7	Santa Rita 	8	Agosto	2023-08-29T00:00:00	2024-11-08T01:00:00	1	Precipitación	0
114104	7	Sololá	704	Santa Lucía Utatlán 	7	Santa Rita 	8	Agosto	2023-08-29T00:00:00	2024-11-08T01:00:00	8	Radiación solar	0
114105	7	Sololá	704	Santa Lucía Utatlán 	7	Santa Rita 	8	Agosto	2023-08-29T00:00:00	2024-11-08T02:00:00	2	Temperatura media	17.9
114106	7	Sololá	704	Santa Lucía Utatlán 	7	Santa Rita 	8	Agosto	2023-08-29T00:00:00	2024-11-08T02:00:00	4	Temperatura máxima	17.9
114107	7	Sololá	704	Santa Lucía Utatlán 	7	Santa Rita 	8	Agosto	2023-08-29T00:00:00	2024-11-08T02:00:00	3	Temperatura mínima	17.2
114108	7	Sololá	704	Santa Lucía Utatlán 	7	Santa Rita 	8	Agosto	2023-08-29T00:00:00	2024-11-08T02:00:00	5	Humedad	95
114109	7	Sololá	704	Santa Lucía Utatlán 	7	Santa Rita 	8	Agosto	2023-08-29T00:00:00	2024-11-08T02:00:00	6	Velocidad del viento	1.6
114110	7	Sololá	704	Santa Lucía Utatlán 	7	Santa Rita 	8	Agosto	2023-08-29T00:00:00	2024-11-08T02:00:00	7	Dirección del viento	1.61
114111	7	Sololá	704	Santa Lucía Utatlán 	7	Santa Rita 	8	Agosto	2023-08-29T00:00:00	2024-11-08T02:00:00	1	Precipitación	0
114112	7	Sololá	704	Santa Lucía Utatlán 	7	Santa Rita 	8	Agosto	2023-08-29T00:00:00	2024-11-08T02:00:00	8	Radiación solar	0
114113	7	Sololá	704	Santa Lucía Utatlán 	7	Santa Rita 	8	Agosto	2023-08-29T00:00:00	2024-11-08T03:00:00	2	Temperatura media	19.8
114114	7	Sololá	704	Santa Lucía Utatlán 	7	Santa Rita 	8	Agosto	2023-08-29T00:00:00	2024-11-08T03:00:00	4	Temperatura máxima	19.8
114115	7	Sololá	704	Santa Lucía Utatlán 	7	Santa Rita 	8	Agosto	2023-08-29T00:00:00	2024-11-08T03:00:00	3	Temperatura mínima	17.8
114116	7	Sololá	704	Santa Lucía Utatlán 	7	Santa Rita 	8	Agosto	2023-08-29T00:00:00	2024-11-08T03:00:00	5	Humedad	93
114117	7	Sololá	704	Santa Lucía Utatlán 	7	Santa Rita 	8	Agosto	2023-08-29T00:00:00	2024-11-08T03:00:00	6	Velocidad del viento	0
114118	7	Sololá	704	Santa Lucía Utatlán 	7	Santa Rita 	8	Agosto	2023-08-29T00:00:00	2024-11-08T03:00:00	7	Dirección del viento	0
114119	7	Sololá	704	Santa Lucía Utatlán 	7	Santa Rita 	8	Agosto	2023-08-29T00:00:00	2024-11-08T03:00:00	1	Precipitación	0
114120	7	Sololá	704	Santa Lucía Utatlán 	7	Santa Rita 	8	Agosto	2023-08-29T00:00:00	2024-11-08T03:00:00	8	Radiación solar	0
114121	7	Sololá	704	Santa Lucía Utatlán 	7	Santa Rita 	8	Agosto	2023-08-29T00:00:00	2024-11-08T04:00:00	2	Temperatura media	22.3
114122	7	Sololá	704	Santa Lucía Utatlán 	7	Santa Rita 	8	Agosto	2023-08-29T00:00:00	2024-11-08T04:00:00	4	Temperatura máxima	22.3
114123	7	Sololá	704	Santa Lucía Utatlán 	7	Santa Rita 	8	Agosto	2023-08-29T00:00:00	2024-11-08T04:00:00	3	Temperatura mínima	19.8
114124	7	Sololá	704	Santa Lucía Utatlán 	7	Santa Rita 	8	Agosto	2023-08-29T00:00:00	2024-11-08T04:00:00	5	Humedad	85
114125	7	Sololá	704	Santa Lucía Utatlán 	7	Santa Rita 	8	Agosto	2023-08-29T00:00:00	2024-11-08T04:00:00	6	Velocidad del viento	3.2
114126	7	Sololá	704	Santa Lucía Utatlán 	7	Santa Rita 	8	Agosto	2023-08-29T00:00:00	2024-11-08T04:00:00	7	Dirección del viento	3.22
114127	7	Sololá	704	Santa Lucía Utatlán 	7	Santa Rita 	8	Agosto	2023-08-29T00:00:00	2024-11-08T04:00:00	1	Precipitación	0.2
114128	7	Sololá	704	Santa Lucía Utatlán 	7	Santa Rita 	8	Agosto	2023-08-29T00:00:00	2024-11-08T04:00:00	8	Radiación solar	0
114129	7	Sololá	704	Santa Lucía Utatlán 	7	Santa Rita 	8	Agosto	2023-08-29T00:00:00	2024-11-08T05:00:00	2	Temperatura media	24.6
114130	7	Sololá	704	Santa Lucía Utatlán 	7	Santa Rita 	8	Agosto	2023-08-29T00:00:00	2024-11-08T05:00:00	4	Temperatura máxima	24.6
114131	7	Sololá	704	Santa Lucía Utatlán 	7	Santa Rita 	8	Agosto	2023-08-29T00:00:00	2024-11-08T05:00:00	3	Temperatura mínima	22.3
114132	7	Sololá	704	Santa Lucía Utatlán 	7	Santa Rita 	8	Agosto	2023-08-29T00:00:00	2024-11-08T05:00:00	5	Humedad	78
114133	7	Sololá	704	Santa Lucía Utatlán 	7	Santa Rita 	8	Agosto	2023-08-29T00:00:00	2024-11-08T05:00:00	6	Velocidad del viento	4.8
114134	7	Sololá	704	Santa Lucía Utatlán 	7	Santa Rita 	8	Agosto	2023-08-29T00:00:00	2024-11-08T05:00:00	7	Dirección del viento	4.83
114135	7	Sololá	704	Santa Lucía Utatlán 	7	Santa Rita 	8	Agosto	2023-08-29T00:00:00	2024-11-08T05:00:00	1	Precipitación	0
114136	7	Sololá	704	Santa Lucía Utatlán 	7	Santa Rita 	8	Agosto	2023-08-29T00:00:00	2024-11-08T05:00:00	8	Radiación solar	0
114137	7	Sololá	704	Santa Lucía Utatlán 	7	Santa Rita 	8	Agosto	2023-08-29T00:00:00	2024-11-08T06:00:00	2	Temperatura media	24.4
114138	7	Sololá	704	Santa Lucía Utatlán 	7	Santa Rita 	8	Agosto	2023-08-29T00:00:00	2024-11-08T06:00:00	4	Temperatura máxima	25.4
114139	7	Sololá	704	Santa Lucía Utatlán 	7	Santa Rita 	8	Agosto	2023-08-29T00:00:00	2024-11-08T06:00:00	3	Temperatura mínima	23.8
114140	7	Sololá	704	Santa Lucía Utatlán 	7	Santa Rita 	8	Agosto	2023-08-29T00:00:00	2024-11-08T06:00:00	5	Humedad	80
114141	7	Sololá	704	Santa Lucía Utatlán 	7	Santa Rita 	8	Agosto	2023-08-29T00:00:00	2024-11-08T06:00:00	6	Velocidad del viento	6.4
114142	7	Sololá	704	Santa Lucía Utatlán 	7	Santa Rita 	8	Agosto	2023-08-29T00:00:00	2024-11-08T06:00:00	7	Dirección del viento	6.44
114143	7	Sololá	704	Santa Lucía Utatlán 	7	Santa Rita 	8	Agosto	2023-08-29T00:00:00	2024-11-08T06:00:00	1	Precipitación	0
114144	7	Sololá	704	Santa Lucía Utatlán 	7	Santa Rita 	8	Agosto	2023-08-29T00:00:00	2024-11-08T06:00:00	8	Radiación solar	2
114145	7	Sololá	704	Santa Lucía Utatlán 	7	Santa Rita 	8	Agosto	2023-08-29T00:00:00	2024-11-08T07:00:00	2	Temperatura media	22.5
114146	7	Sololá	704	Santa Lucía Utatlán 	7	Santa Rita 	8	Agosto	2023-08-29T00:00:00	2024-11-08T07:00:00	4	Temperatura máxima	24.4
114147	7	Sololá	704	Santa Lucía Utatlán 	7	Santa Rita 	8	Agosto	2023-08-29T00:00:00	2024-11-08T07:00:00	3	Temperatura mínima	22.5
114148	7	Sololá	704	Santa Lucía Utatlán 	7	Santa Rita 	8	Agosto	2023-08-29T00:00:00	2024-11-08T07:00:00	5	Humedad	83
114149	7	Sololá	704	Santa Lucía Utatlán 	7	Santa Rita 	8	Agosto	2023-08-29T00:00:00	2024-11-08T07:00:00	6	Velocidad del viento	6.4
114150	7	Sololá	704	Santa Lucía Utatlán 	7	Santa Rita 	8	Agosto	2023-08-29T00:00:00	2024-11-08T07:00:00	7	Dirección del viento	6.44
114151	7	Sololá	704	Santa Lucía Utatlán 	7	Santa Rita 	8	Agosto	2023-08-29T00:00:00	2024-11-08T07:00:00	1	Precipitación	0
114152	7	Sololá	704	Santa Lucía Utatlán 	7	Santa Rita 	8	Agosto	2023-08-29T00:00:00	2024-11-08T07:00:00	8	Radiación solar	63
114153	7	Sololá	704	Santa Lucía Utatlán 	7	Santa Rita 	8	Agosto	2023-08-29T00:00:00	2024-11-08T08:00:00	2	Temperatura media	21.4
114154	7	Sololá	704	Santa Lucía Utatlán 	7	Santa Rita 	8	Agosto	2023-08-29T00:00:00	2024-11-08T08:00:00	4	Temperatura máxima	22.5
114155	7	Sololá	704	Santa Lucía Utatlán 	7	Santa Rita 	8	Agosto	2023-08-29T00:00:00	2024-11-08T08:00:00	3	Temperatura mínima	21.4
114156	7	Sololá	704	Santa Lucía Utatlán 	7	Santa Rita 	8	Agosto	2023-08-29T00:00:00	2024-11-08T08:00:00	5	Humedad	88
114157	7	Sololá	704	Santa Lucía Utatlán 	7	Santa Rita 	8	Agosto	2023-08-29T00:00:00	2024-11-08T08:00:00	6	Velocidad del viento	6.4
114158	7	Sololá	704	Santa Lucía Utatlán 	7	Santa Rita 	8	Agosto	2023-08-29T00:00:00	2024-11-08T08:00:00	7	Dirección del viento	6.44
114159	7	Sololá	704	Santa Lucía Utatlán 	7	Santa Rita 	8	Agosto	2023-08-29T00:00:00	2024-11-08T08:00:00	1	Precipitación	0
114160	7	Sololá	704	Santa Lucía Utatlán 	7	Santa Rita 	8	Agosto	2023-08-29T00:00:00	2024-11-08T08:00:00	8	Radiación solar	179
114161	7	Sololá	704	Santa Lucía Utatlán 	7	Santa Rita 	8	Agosto	2023-08-29T00:00:00	2024-11-08T09:00:00	2	Temperatura media	21.9
114162	7	Sololá	704	Santa Lucía Utatlán 	7	Santa Rita 	8	Agosto	2023-08-29T00:00:00	2024-11-08T09:00:00	4	Temperatura máxima	22.2
114163	7	Sololá	704	Santa Lucía Utatlán 	7	Santa Rita 	8	Agosto	2023-08-29T00:00:00	2024-11-08T09:00:00	3	Temperatura mínima	21.4
114164	7	Sololá	704	Santa Lucía Utatlán 	7	Santa Rita 	8	Agosto	2023-08-29T00:00:00	2024-11-08T09:00:00	5	Humedad	86
114165	7	Sololá	704	Santa Lucía Utatlán 	7	Santa Rita 	8	Agosto	2023-08-29T00:00:00	2024-11-08T09:00:00	6	Velocidad del viento	3.2
114166	7	Sololá	704	Santa Lucía Utatlán 	7	Santa Rita 	8	Agosto	2023-08-29T00:00:00	2024-11-08T09:00:00	7	Dirección del viento	3.22
114167	7	Sololá	704	Santa Lucía Utatlán 	7	Santa Rita 	8	Agosto	2023-08-29T00:00:00	2024-11-08T09:00:00	1	Precipitación	0
114168	7	Sololá	704	Santa Lucía Utatlán 	7	Santa Rita 	8	Agosto	2023-08-29T00:00:00	2024-11-08T09:00:00	8	Radiación solar	463
114169	7	Sololá	704	Santa Lucía Utatlán 	7	Santa Rita 	8	Agosto	2023-08-29T00:00:00	2024-11-08T10:00:00	2	Temperatura media	21.1
114170	7	Sololá	704	Santa Lucía Utatlán 	7	Santa Rita 	8	Agosto	2023-08-29T00:00:00	2024-11-08T10:00:00	4	Temperatura máxima	22
114171	7	Sololá	704	Santa Lucía Utatlán 	7	Santa Rita 	8	Agosto	2023-08-29T00:00:00	2024-11-08T10:00:00	3	Temperatura mínima	20.8
114172	7	Sololá	704	Santa Lucía Utatlán 	7	Santa Rita 	8	Agosto	2023-08-29T00:00:00	2024-11-08T10:00:00	5	Humedad	87
114173	7	Sololá	704	Santa Lucía Utatlán 	7	Santa Rita 	8	Agosto	2023-08-29T00:00:00	2024-11-08T10:00:00	6	Velocidad del viento	4.8
114174	7	Sololá	704	Santa Lucía Utatlán 	7	Santa Rita 	8	Agosto	2023-08-29T00:00:00	2024-11-08T10:00:00	7	Dirección del viento	4.83
114175	7	Sololá	704	Santa Lucía Utatlán 	7	Santa Rita 	8	Agosto	2023-08-29T00:00:00	2024-11-08T10:00:00	1	Precipitación	0
114176	7	Sololá	704	Santa Lucía Utatlán 	7	Santa Rita 	8	Agosto	2023-08-29T00:00:00	2024-11-08T10:00:00	8	Radiación solar	789
114177	7	Sololá	704	Santa Lucía Utatlán 	7	Santa Rita 	8	Agosto	2023-08-29T00:00:00	2024-11-08T11:00:00	2	Temperatura media	21.1
114178	7	Sololá	704	Santa Lucía Utatlán 	7	Santa Rita 	8	Agosto	2023-08-29T00:00:00	2024-11-08T11:00:00	4	Temperatura máxima	21.3
114179	7	Sololá	704	Santa Lucía Utatlán 	7	Santa Rita 	8	Agosto	2023-08-29T00:00:00	2024-11-08T11:00:00	3	Temperatura mínima	21.1
114180	7	Sololá	704	Santa Lucía Utatlán 	7	Santa Rita 	8	Agosto	2023-08-29T00:00:00	2024-11-08T11:00:00	5	Humedad	88
114181	7	Sololá	704	Santa Lucía Utatlán 	7	Santa Rita 	8	Agosto	2023-08-29T00:00:00	2024-11-08T11:00:00	6	Velocidad del viento	1.6
114182	7	Sololá	704	Santa Lucía Utatlán 	7	Santa Rita 	8	Agosto	2023-08-29T00:00:00	2024-11-08T11:00:00	7	Dirección del viento	1.61
114183	7	Sololá	704	Santa Lucía Utatlán 	7	Santa Rita 	8	Agosto	2023-08-29T00:00:00	2024-11-08T11:00:00	1	Precipitación	0
114184	7	Sololá	704	Santa Lucía Utatlán 	7	Santa Rita 	8	Agosto	2023-08-29T00:00:00	2024-11-08T11:00:00	8	Radiación solar	730
114185	7	Sololá	704	Santa Lucía Utatlán 	7	Santa Rita 	8	Agosto	2023-08-29T00:00:00	2024-11-08T12:00:00	2	Temperatura media	20.6
114186	7	Sololá	704	Santa Lucía Utatlán 	7	Santa Rita 	8	Agosto	2023-08-29T00:00:00	2024-11-08T12:00:00	4	Temperatura máxima	21.1
114187	7	Sololá	704	Santa Lucía Utatlán 	7	Santa Rita 	8	Agosto	2023-08-29T00:00:00	2024-11-08T12:00:00	3	Temperatura mínima	20.6
114188	7	Sololá	704	Santa Lucía Utatlán 	7	Santa Rita 	8	Agosto	2023-08-29T00:00:00	2024-11-08T12:00:00	5	Humedad	89
114189	7	Sololá	704	Santa Lucía Utatlán 	7	Santa Rita 	8	Agosto	2023-08-29T00:00:00	2024-11-08T12:00:00	6	Velocidad del viento	1.6
114190	7	Sololá	704	Santa Lucía Utatlán 	7	Santa Rita 	8	Agosto	2023-08-29T00:00:00	2024-11-08T12:00:00	7	Dirección del viento	1.61
114191	7	Sololá	704	Santa Lucía Utatlán 	7	Santa Rita 	8	Agosto	2023-08-29T00:00:00	2024-11-08T12:00:00	1	Precipitación	0
114192	7	Sololá	704	Santa Lucía Utatlán 	7	Santa Rita 	8	Agosto	2023-08-29T00:00:00	2024-11-08T12:00:00	8	Radiación solar	181
114193	7	Sololá	704	Santa Lucía Utatlán 	7	Santa Rita 	8	Agosto	2023-08-29T00:00:00	2024-11-08T13:00:00	2	Temperatura media	20.2
114194	7	Sololá	704	Santa Lucía Utatlán 	7	Santa Rita 	8	Agosto	2023-08-29T00:00:00	2024-11-08T13:00:00	4	Temperatura máxima	20.7
114195	7	Sololá	704	Santa Lucía Utatlán 	7	Santa Rita 	8	Agosto	2023-08-29T00:00:00	2024-11-08T13:00:00	3	Temperatura mínima	20.2
114196	7	Sololá	704	Santa Lucía Utatlán 	7	Santa Rita 	8	Agosto	2023-08-29T00:00:00	2024-11-08T13:00:00	5	Humedad	93
114197	7	Sololá	704	Santa Lucía Utatlán 	7	Santa Rita 	8	Agosto	2023-08-29T00:00:00	2024-11-08T13:00:00	6	Velocidad del viento	1.6
114198	7	Sololá	704	Santa Lucía Utatlán 	7	Santa Rita 	8	Agosto	2023-08-29T00:00:00	2024-11-08T13:00:00	7	Dirección del viento	1.61
114199	7	Sololá	704	Santa Lucía Utatlán 	7	Santa Rita 	8	Agosto	2023-08-29T00:00:00	2024-11-08T13:00:00	1	Precipitación	0
114200	7	Sololá	704	Santa Lucía Utatlán 	7	Santa Rita 	8	Agosto	2023-08-29T00:00:00	2024-11-08T13:00:00	8	Radiación solar	186
114201	7	Sololá	704	Santa Lucía Utatlán 	7	Santa Rita 	8	Agosto	2023-08-29T00:00:00	2024-11-08T14:00:00	2	Temperatura media	19.7
114202	7	Sololá	704	Santa Lucía Utatlán 	7	Santa Rita 	8	Agosto	2023-08-29T00:00:00	2024-11-08T14:00:00	4	Temperatura máxima	20.3
114203	7	Sololá	704	Santa Lucía Utatlán 	7	Santa Rita 	8	Agosto	2023-08-29T00:00:00	2024-11-08T14:00:00	3	Temperatura mínima	19.7
114204	7	Sololá	704	Santa Lucía Utatlán 	7	Santa Rita 	8	Agosto	2023-08-29T00:00:00	2024-11-08T14:00:00	5	Humedad	95
114205	7	Sololá	704	Santa Lucía Utatlán 	7	Santa Rita 	8	Agosto	2023-08-29T00:00:00	2024-11-08T14:00:00	6	Velocidad del viento	0
114206	7	Sololá	704	Santa Lucía Utatlán 	7	Santa Rita 	8	Agosto	2023-08-29T00:00:00	2024-11-08T14:00:00	7	Dirección del viento	0
114207	7	Sololá	704	Santa Lucía Utatlán 	7	Santa Rita 	8	Agosto	2023-08-29T00:00:00	2024-11-08T14:00:00	1	Precipitación	0
114208	7	Sololá	704	Santa Lucía Utatlán 	7	Santa Rita 	8	Agosto	2023-08-29T00:00:00	2024-11-08T14:00:00	8	Radiación solar	160
114209	7	Sololá	704	Santa Lucía Utatlán 	7	Santa Rita 	8	Agosto	2023-08-29T00:00:00	2024-11-08T15:00:00	2	Temperatura media	19.7
114210	7	Sololá	704	Santa Lucía Utatlán 	7	Santa Rita 	8	Agosto	2023-08-29T00:00:00	2024-11-08T15:00:00	4	Temperatura máxima	19.8
114211	7	Sololá	704	Santa Lucía Utatlán 	7	Santa Rita 	8	Agosto	2023-08-29T00:00:00	2024-11-08T15:00:00	3	Temperatura mínima	19.6
114212	7	Sololá	704	Santa Lucía Utatlán 	7	Santa Rita 	8	Agosto	2023-08-29T00:00:00	2024-11-08T15:00:00	5	Humedad	95
114213	7	Sololá	704	Santa Lucía Utatlán 	7	Santa Rita 	8	Agosto	2023-08-29T00:00:00	2024-11-08T15:00:00	6	Velocidad del viento	1.6
114214	7	Sololá	704	Santa Lucía Utatlán 	7	Santa Rita 	8	Agosto	2023-08-29T00:00:00	2024-11-08T15:00:00	7	Dirección del viento	1.61
114215	7	Sololá	704	Santa Lucía Utatlán 	7	Santa Rita 	8	Agosto	2023-08-29T00:00:00	2024-11-08T15:00:00	1	Precipitación	0
114216	7	Sololá	704	Santa Lucía Utatlán 	7	Santa Rita 	8	Agosto	2023-08-29T00:00:00	2024-11-08T15:00:00	8	Radiación solar	69
114217	7	Sololá	704	Santa Lucía Utatlán 	7	Santa Rita 	8	Agosto	2023-08-29T00:00:00	2024-11-08T16:00:00	2	Temperatura media	19.4
114218	7	Sololá	704	Santa Lucía Utatlán 	7	Santa Rita 	8	Agosto	2023-08-29T00:00:00	2024-11-08T16:00:00	4	Temperatura máxima	19.7
114219	7	Sololá	704	Santa Lucía Utatlán 	7	Santa Rita 	8	Agosto	2023-08-29T00:00:00	2024-11-08T16:00:00	3	Temperatura mínima	19.4
114220	7	Sololá	704	Santa Lucía Utatlán 	7	Santa Rita 	8	Agosto	2023-08-29T00:00:00	2024-11-08T16:00:00	5	Humedad	96
114221	7	Sololá	704	Santa Lucía Utatlán 	7	Santa Rita 	8	Agosto	2023-08-29T00:00:00	2024-11-08T16:00:00	6	Velocidad del viento	1.6
114222	7	Sololá	704	Santa Lucía Utatlán 	7	Santa Rita 	8	Agosto	2023-08-29T00:00:00	2024-11-08T16:00:00	7	Dirección del viento	1.61
114223	7	Sololá	704	Santa Lucía Utatlán 	7	Santa Rita 	8	Agosto	2023-08-29T00:00:00	2024-11-08T16:00:00	1	Precipitación	0
114224	7	Sololá	704	Santa Lucía Utatlán 	7	Santa Rita 	8	Agosto	2023-08-29T00:00:00	2024-11-08T16:00:00	8	Radiación solar	65
114225	7	Sololá	704	Santa Lucía Utatlán 	7	Santa Rita 	8	Agosto	2023-08-29T00:00:00	2024-11-08T17:00:00	2	Temperatura media	19.2
114226	7	Sololá	704	Santa Lucía Utatlán 	7	Santa Rita 	8	Agosto	2023-08-29T00:00:00	2024-11-08T17:00:00	4	Temperatura máxima	19.5
114227	7	Sololá	704	Santa Lucía Utatlán 	7	Santa Rita 	8	Agosto	2023-08-29T00:00:00	2024-11-08T17:00:00	3	Temperatura mínima	19.2
114228	7	Sololá	704	Santa Lucía Utatlán 	7	Santa Rita 	8	Agosto	2023-08-29T00:00:00	2024-11-08T17:00:00	5	Humedad	94
114229	7	Sololá	704	Santa Lucía Utatlán 	7	Santa Rita 	8	Agosto	2023-08-29T00:00:00	2024-11-08T17:00:00	6	Velocidad del viento	1.6
114230	7	Sololá	704	Santa Lucía Utatlán 	7	Santa Rita 	8	Agosto	2023-08-29T00:00:00	2024-11-08T17:00:00	7	Dirección del viento	1.61
114231	7	Sololá	704	Santa Lucía Utatlán 	7	Santa Rita 	8	Agosto	2023-08-29T00:00:00	2024-11-08T17:00:00	1	Precipitación	0.2
114232	7	Sololá	704	Santa Lucía Utatlán 	7	Santa Rita 	8	Agosto	2023-08-29T00:00:00	2024-11-08T17:00:00	8	Radiación solar	20
114233	7	Sololá	704	Santa Lucía Utatlán 	7	Santa Rita 	8	Agosto	2023-08-29T00:00:00	2024-11-08T18:00:00	2	Temperatura media	19.2
114234	7	Sololá	704	Santa Lucía Utatlán 	7	Santa Rita 	8	Agosto	2023-08-29T00:00:00	2024-11-08T18:00:00	4	Temperatura máxima	19.3
114235	7	Sololá	704	Santa Lucía Utatlán 	7	Santa Rita 	8	Agosto	2023-08-29T00:00:00	2024-11-08T18:00:00	3	Temperatura mínima	19.2
114236	7	Sololá	704	Santa Lucía Utatlán 	7	Santa Rita 	8	Agosto	2023-08-29T00:00:00	2024-11-08T18:00:00	5	Humedad	96
114237	7	Sololá	704	Santa Lucía Utatlán 	7	Santa Rita 	8	Agosto	2023-08-29T00:00:00	2024-11-08T18:00:00	6	Velocidad del viento	1.6
114238	7	Sololá	704	Santa Lucía Utatlán 	7	Santa Rita 	8	Agosto	2023-08-29T00:00:00	2024-11-08T18:00:00	7	Dirección del viento	1.61
114239	7	Sololá	704	Santa Lucía Utatlán 	7	Santa Rita 	8	Agosto	2023-08-29T00:00:00	2024-11-08T18:00:00	1	Precipitación	0.2
114240	7	Sololá	704	Santa Lucía Utatlán 	7	Santa Rita 	8	Agosto	2023-08-29T00:00:00	2024-11-08T18:00:00	8	Radiación solar	10
114241	7	Sololá	704	Santa Lucía Utatlán 	7	Santa Rita 	8	Agosto	2023-08-29T00:00:00	2024-11-08T19:00:00	2	Temperatura media	19.2
114242	7	Sololá	704	Santa Lucía Utatlán 	7	Santa Rita 	8	Agosto	2023-08-29T00:00:00	2024-11-08T19:00:00	4	Temperatura máxima	19.3
114243	7	Sololá	704	Santa Lucía Utatlán 	7	Santa Rita 	8	Agosto	2023-08-29T00:00:00	2024-11-08T19:00:00	3	Temperatura mínima	19.1
114244	7	Sololá	704	Santa Lucía Utatlán 	7	Santa Rita 	8	Agosto	2023-08-29T00:00:00	2024-11-08T19:00:00	5	Humedad	96
114245	7	Sololá	704	Santa Lucía Utatlán 	7	Santa Rita 	8	Agosto	2023-08-29T00:00:00	2024-11-08T19:00:00	6	Velocidad del viento	1.6
114246	7	Sololá	704	Santa Lucía Utatlán 	7	Santa Rita 	8	Agosto	2023-08-29T00:00:00	2024-11-08T19:00:00	7	Dirección del viento	1.61
114247	7	Sololá	704	Santa Lucía Utatlán 	7	Santa Rita 	8	Agosto	2023-08-29T00:00:00	2024-11-08T19:00:00	1	Precipitación	0.2
114248	7	Sololá	704	Santa Lucía Utatlán 	7	Santa Rita 	8	Agosto	2023-08-29T00:00:00	2024-11-08T19:00:00	8	Radiación solar	0
114249	7	Sololá	704	Santa Lucía Utatlán 	7	Santa Rita 	8	Agosto	2023-08-29T00:00:00	2024-11-08T20:00:00	2	Temperatura media	18.8
114250	7	Sololá	704	Santa Lucía Utatlán 	7	Santa Rita 	8	Agosto	2023-08-29T00:00:00	2024-11-08T20:00:00	4	Temperatura máxima	19.3
114251	7	Sololá	704	Santa Lucía Utatlán 	7	Santa Rita 	8	Agosto	2023-08-29T00:00:00	2024-11-08T20:00:00	3	Temperatura mínima	18.8
114252	7	Sololá	704	Santa Lucía Utatlán 	7	Santa Rita 	8	Agosto	2023-08-29T00:00:00	2024-11-08T20:00:00	5	Humedad	94
114253	7	Sololá	704	Santa Lucía Utatlán 	7	Santa Rita 	8	Agosto	2023-08-29T00:00:00	2024-11-08T20:00:00	6	Velocidad del viento	3.2
114254	7	Sololá	704	Santa Lucía Utatlán 	7	Santa Rita 	8	Agosto	2023-08-29T00:00:00	2024-11-08T20:00:00	7	Dirección del viento	3.22
114255	7	Sololá	704	Santa Lucía Utatlán 	7	Santa Rita 	8	Agosto	2023-08-29T00:00:00	2024-11-08T20:00:00	1	Precipitación	0.4
114256	7	Sololá	704	Santa Lucía Utatlán 	7	Santa Rita 	8	Agosto	2023-08-29T00:00:00	2024-11-08T20:00:00	8	Radiación solar	0
114257	7	Sololá	704	Santa Lucía Utatlán 	7	Santa Rita 	8	Agosto	2023-08-29T00:00:00	2024-11-08T21:00:00	2	Temperatura media	18.6
114258	7	Sololá	704	Santa Lucía Utatlán 	7	Santa Rita 	8	Agosto	2023-08-29T00:00:00	2024-11-08T21:00:00	4	Temperatura máxima	18.8
114259	7	Sololá	704	Santa Lucía Utatlán 	7	Santa Rita 	8	Agosto	2023-08-29T00:00:00	2024-11-08T21:00:00	3	Temperatura mínima	18.6
114260	7	Sololá	704	Santa Lucía Utatlán 	7	Santa Rita 	8	Agosto	2023-08-29T00:00:00	2024-11-08T21:00:00	5	Humedad	95
114261	7	Sololá	704	Santa Lucía Utatlán 	7	Santa Rita 	8	Agosto	2023-08-29T00:00:00	2024-11-08T21:00:00	6	Velocidad del viento	3.2
114262	7	Sololá	704	Santa Lucía Utatlán 	7	Santa Rita 	8	Agosto	2023-08-29T00:00:00	2024-11-08T21:00:00	7	Dirección del viento	3.22
114263	7	Sololá	704	Santa Lucía Utatlán 	7	Santa Rita 	8	Agosto	2023-08-29T00:00:00	2024-11-08T21:00:00	1	Precipitación	0.4
114264	7	Sololá	704	Santa Lucía Utatlán 	7	Santa Rita 	8	Agosto	2023-08-29T00:00:00	2024-11-08T21:00:00	8	Radiación solar	0
114265	7	Sololá	704	Santa Lucía Utatlán 	7	Santa Rita 	8	Agosto	2023-08-29T00:00:00	2024-11-08T22:00:00	2	Temperatura media	18.6
114266	7	Sololá	704	Santa Lucía Utatlán 	7	Santa Rita 	8	Agosto	2023-08-29T00:00:00	2024-11-08T22:00:00	4	Temperatura máxima	18.6
114267	7	Sololá	704	Santa Lucía Utatlán 	7	Santa Rita 	8	Agosto	2023-08-29T00:00:00	2024-11-08T22:00:00	3	Temperatura mínima	18.4
114268	7	Sololá	704	Santa Lucía Utatlán 	7	Santa Rita 	8	Agosto	2023-08-29T00:00:00	2024-11-08T22:00:00	5	Humedad	95
114269	7	Sololá	704	Santa Lucía Utatlán 	7	Santa Rita 	8	Agosto	2023-08-29T00:00:00	2024-11-08T22:00:00	6	Velocidad del viento	1.6
114270	7	Sololá	704	Santa Lucía Utatlán 	7	Santa Rita 	8	Agosto	2023-08-29T00:00:00	2024-11-08T22:00:00	7	Dirección del viento	1.61
114271	7	Sololá	704	Santa Lucía Utatlán 	7	Santa Rita 	8	Agosto	2023-08-29T00:00:00	2024-11-08T22:00:00	1	Precipitación	0.8
114272	7	Sololá	704	Santa Lucía Utatlán 	7	Santa Rita 	8	Agosto	2023-08-29T00:00:00	2024-11-08T22:00:00	8	Radiación solar	0
114273	7	Sololá	704	Santa Lucía Utatlán 	7	Santa Rita 	8	Agosto	2023-08-29T00:00:00	2024-11-08T23:00:00	2	Temperatura media	18.5
114274	7	Sololá	704	Santa Lucía Utatlán 	7	Santa Rita 	8	Agosto	2023-08-29T00:00:00	2024-11-08T23:00:00	4	Temperatura máxima	18.7
114275	7	Sololá	704	Santa Lucía Utatlán 	7	Santa Rita 	8	Agosto	2023-08-29T00:00:00	2024-11-08T23:00:00	3	Temperatura mínima	18.4
114276	7	Sololá	704	Santa Lucía Utatlán 	7	Santa Rita 	8	Agosto	2023-08-29T00:00:00	2024-11-08T23:00:00	5	Humedad	95
114277	7	Sololá	704	Santa Lucía Utatlán 	7	Santa Rita 	8	Agosto	2023-08-29T00:00:00	2024-11-08T23:00:00	6	Velocidad del viento	3.2
114278	7	Sololá	704	Santa Lucía Utatlán 	7	Santa Rita 	8	Agosto	2023-08-29T00:00:00	2024-11-08T23:00:00	7	Dirección del viento	3.22
114279	7	Sololá	704	Santa Lucía Utatlán 	7	Santa Rita 	8	Agosto	2023-08-29T00:00:00	2024-11-08T23:00:00	1	Precipitación	0.4
114280	7	Sololá	704	Santa Lucía Utatlán 	7	Santa Rita 	8	Agosto	2023-08-29T00:00:00	2024-11-08T23:00:00	8	Radiación solar	0
114281	7	Sololá	704	Santa Lucía Utatlán 	7	Santa Rita 	8	Agosto	2023-08-30T00:00:00	2024-11-08T00:00:00	2	Temperatura media	18.3
114282	7	Sololá	704	Santa Lucía Utatlán 	7	Santa Rita 	8	Agosto	2023-08-30T00:00:00	2024-11-08T00:00:00	4	Temperatura máxima	18.8
114283	7	Sololá	704	Santa Lucía Utatlán 	7	Santa Rita 	8	Agosto	2023-08-30T00:00:00	2024-11-08T00:00:00	3	Temperatura mínima	18.3
114284	7	Sololá	704	Santa Lucía Utatlán 	7	Santa Rita 	8	Agosto	2023-08-30T00:00:00	2024-11-08T00:00:00	5	Humedad	92
114285	7	Sololá	704	Santa Lucía Utatlán 	7	Santa Rita 	8	Agosto	2023-08-30T00:00:00	2024-11-08T00:00:00	6	Velocidad del viento	4.8
114286	7	Sololá	704	Santa Lucía Utatlán 	7	Santa Rita 	8	Agosto	2023-08-30T00:00:00	2024-11-08T00:00:00	7	Dirección del viento	4.83
114287	7	Sololá	704	Santa Lucía Utatlán 	7	Santa Rita 	8	Agosto	2023-08-30T00:00:00	2024-11-08T00:00:00	1	Precipitación	0
114288	7	Sololá	704	Santa Lucía Utatlán 	7	Santa Rita 	8	Agosto	2023-08-30T00:00:00	2024-11-08T00:00:00	8	Radiación solar	0
114289	7	Sololá	704	Santa Lucía Utatlán 	7	Santa Rita 	8	Agosto	2023-08-30T00:00:00	2024-11-08T01:00:00	2	Temperatura media	18.6
114290	7	Sololá	704	Santa Lucía Utatlán 	7	Santa Rita 	8	Agosto	2023-08-30T00:00:00	2024-11-08T01:00:00	4	Temperatura máxima	18.7
114291	7	Sololá	704	Santa Lucía Utatlán 	7	Santa Rita 	8	Agosto	2023-08-30T00:00:00	2024-11-08T01:00:00	3	Temperatura mínima	18.2
114292	7	Sololá	704	Santa Lucía Utatlán 	7	Santa Rita 	8	Agosto	2023-08-30T00:00:00	2024-11-08T01:00:00	5	Humedad	92
114293	7	Sololá	704	Santa Lucía Utatlán 	7	Santa Rita 	8	Agosto	2023-08-30T00:00:00	2024-11-08T01:00:00	6	Velocidad del viento	3.2
114294	7	Sololá	704	Santa Lucía Utatlán 	7	Santa Rita 	8	Agosto	2023-08-30T00:00:00	2024-11-08T01:00:00	7	Dirección del viento	3.22
114295	7	Sololá	704	Santa Lucía Utatlán 	7	Santa Rita 	8	Agosto	2023-08-30T00:00:00	2024-11-08T01:00:00	1	Precipitación	0
114296	7	Sololá	704	Santa Lucía Utatlán 	7	Santa Rita 	8	Agosto	2023-08-30T00:00:00	2024-11-08T01:00:00	8	Radiación solar	0
114297	7	Sololá	704	Santa Lucía Utatlán 	7	Santa Rita 	8	Agosto	2023-08-30T00:00:00	2024-11-08T02:00:00	2	Temperatura media	19.4
114298	7	Sololá	704	Santa Lucía Utatlán 	7	Santa Rita 	8	Agosto	2023-08-30T00:00:00	2024-11-08T02:00:00	4	Temperatura máxima	19.4
114299	7	Sololá	704	Santa Lucía Utatlán 	7	Santa Rita 	8	Agosto	2023-08-30T00:00:00	2024-11-08T02:00:00	3	Temperatura mínima	18.3
114300	7	Sololá	704	Santa Lucía Utatlán 	7	Santa Rita 	8	Agosto	2023-08-30T00:00:00	2024-11-08T02:00:00	5	Humedad	92
114301	7	Sololá	704	Santa Lucía Utatlán 	7	Santa Rita 	8	Agosto	2023-08-30T00:00:00	2024-11-08T02:00:00	6	Velocidad del viento	3.2
114302	7	Sololá	704	Santa Lucía Utatlán 	7	Santa Rita 	8	Agosto	2023-08-30T00:00:00	2024-11-08T02:00:00	7	Dirección del viento	3.22
114303	7	Sololá	704	Santa Lucía Utatlán 	7	Santa Rita 	8	Agosto	2023-08-30T00:00:00	2024-11-08T02:00:00	1	Precipitación	0
114304	7	Sololá	704	Santa Lucía Utatlán 	7	Santa Rita 	8	Agosto	2023-08-30T00:00:00	2024-11-08T02:00:00	8	Radiación solar	0
114305	7	Sololá	704	Santa Lucía Utatlán 	7	Santa Rita 	8	Agosto	2023-08-30T00:00:00	2024-11-08T03:00:00	2	Temperatura media	21
114306	7	Sololá	704	Santa Lucía Utatlán 	7	Santa Rita 	8	Agosto	2023-08-30T00:00:00	2024-11-08T03:00:00	4	Temperatura máxima	21
114307	7	Sololá	704	Santa Lucía Utatlán 	7	Santa Rita 	8	Agosto	2023-08-30T00:00:00	2024-11-08T03:00:00	3	Temperatura mínima	19.3
114308	7	Sololá	704	Santa Lucía Utatlán 	7	Santa Rita 	8	Agosto	2023-08-30T00:00:00	2024-11-08T03:00:00	5	Humedad	92
114309	7	Sololá	704	Santa Lucía Utatlán 	7	Santa Rita 	8	Agosto	2023-08-30T00:00:00	2024-11-08T03:00:00	6	Velocidad del viento	1.6
114310	7	Sololá	704	Santa Lucía Utatlán 	7	Santa Rita 	8	Agosto	2023-08-30T00:00:00	2024-11-08T03:00:00	7	Dirección del viento	1.61
114311	7	Sololá	704	Santa Lucía Utatlán 	7	Santa Rita 	8	Agosto	2023-08-30T00:00:00	2024-11-08T03:00:00	1	Precipitación	0
114312	7	Sololá	704	Santa Lucía Utatlán 	7	Santa Rita 	8	Agosto	2023-08-30T00:00:00	2024-11-08T03:00:00	8	Radiación solar	0
114313	7	Sololá	704	Santa Lucía Utatlán 	7	Santa Rita 	8	Agosto	2023-08-30T00:00:00	2024-11-08T04:00:00	2	Temperatura media	22.7
114314	7	Sololá	704	Santa Lucía Utatlán 	7	Santa Rita 	8	Agosto	2023-08-30T00:00:00	2024-11-08T04:00:00	4	Temperatura máxima	22.7
114315	7	Sololá	704	Santa Lucía Utatlán 	7	Santa Rita 	8	Agosto	2023-08-30T00:00:00	2024-11-08T04:00:00	3	Temperatura mínima	21
114316	7	Sololá	704	Santa Lucía Utatlán 	7	Santa Rita 	8	Agosto	2023-08-30T00:00:00	2024-11-08T04:00:00	5	Humedad	80
114317	7	Sololá	704	Santa Lucía Utatlán 	7	Santa Rita 	8	Agosto	2023-08-30T00:00:00	2024-11-08T04:00:00	6	Velocidad del viento	1.6
114318	7	Sololá	704	Santa Lucía Utatlán 	7	Santa Rita 	8	Agosto	2023-08-30T00:00:00	2024-11-08T04:00:00	7	Dirección del viento	1.61
114319	7	Sololá	704	Santa Lucía Utatlán 	7	Santa Rita 	8	Agosto	2023-08-30T00:00:00	2024-11-08T04:00:00	1	Precipitación	0
114320	7	Sololá	704	Santa Lucía Utatlán 	7	Santa Rita 	8	Agosto	2023-08-30T00:00:00	2024-11-08T04:00:00	8	Radiación solar	0
114321	7	Sololá	704	Santa Lucía Utatlán 	7	Santa Rita 	8	Agosto	2023-08-30T00:00:00	2024-11-08T05:00:00	2	Temperatura media	24.5
114322	7	Sololá	704	Santa Lucía Utatlán 	7	Santa Rita 	8	Agosto	2023-08-30T00:00:00	2024-11-08T05:00:00	4	Temperatura máxima	24.5
114323	7	Sololá	704	Santa Lucía Utatlán 	7	Santa Rita 	8	Agosto	2023-08-30T00:00:00	2024-11-08T05:00:00	3	Temperatura mínima	22.7
114324	7	Sololá	704	Santa Lucía Utatlán 	7	Santa Rita 	8	Agosto	2023-08-30T00:00:00	2024-11-08T05:00:00	5	Humedad	73
114325	7	Sololá	704	Santa Lucía Utatlán 	7	Santa Rita 	8	Agosto	2023-08-30T00:00:00	2024-11-08T05:00:00	6	Velocidad del viento	3.2
114326	7	Sololá	704	Santa Lucía Utatlán 	7	Santa Rita 	8	Agosto	2023-08-30T00:00:00	2024-11-08T05:00:00	7	Dirección del viento	3.22
114327	7	Sololá	704	Santa Lucía Utatlán 	7	Santa Rita 	8	Agosto	2023-08-30T00:00:00	2024-11-08T05:00:00	1	Precipitación	0
114328	7	Sololá	704	Santa Lucía Utatlán 	7	Santa Rita 	8	Agosto	2023-08-30T00:00:00	2024-11-08T05:00:00	8	Radiación solar	0
114329	7	Sololá	704	Santa Lucía Utatlán 	7	Santa Rita 	8	Agosto	2023-08-30T00:00:00	2024-11-08T06:00:00	2	Temperatura media	24.7
114330	7	Sololá	704	Santa Lucía Utatlán 	7	Santa Rita 	8	Agosto	2023-08-30T00:00:00	2024-11-08T06:00:00	4	Temperatura máxima	25.6
114331	7	Sololá	704	Santa Lucía Utatlán 	7	Santa Rita 	8	Agosto	2023-08-30T00:00:00	2024-11-08T06:00:00	3	Temperatura mínima	24.5
114332	7	Sololá	704	Santa Lucía Utatlán 	7	Santa Rita 	8	Agosto	2023-08-30T00:00:00	2024-11-08T06:00:00	5	Humedad	81
114333	7	Sololá	704	Santa Lucía Utatlán 	7	Santa Rita 	8	Agosto	2023-08-30T00:00:00	2024-11-08T06:00:00	6	Velocidad del viento	6.4
114334	7	Sololá	704	Santa Lucía Utatlán 	7	Santa Rita 	8	Agosto	2023-08-30T00:00:00	2024-11-08T06:00:00	7	Dirección del viento	6.44
114335	7	Sololá	704	Santa Lucía Utatlán 	7	Santa Rita 	8	Agosto	2023-08-30T00:00:00	2024-11-08T06:00:00	1	Precipitación	0
114336	7	Sololá	704	Santa Lucía Utatlán 	7	Santa Rita 	8	Agosto	2023-08-30T00:00:00	2024-11-08T06:00:00	8	Radiación solar	1
114337	7	Sololá	704	Santa Lucía Utatlán 	7	Santa Rita 	8	Agosto	2023-08-30T00:00:00	2024-11-08T07:00:00	2	Temperatura media	24.4
114338	7	Sololá	704	Santa Lucía Utatlán 	7	Santa Rita 	8	Agosto	2023-08-30T00:00:00	2024-11-08T07:00:00	4	Temperatura máxima	24.8
114339	7	Sololá	704	Santa Lucía Utatlán 	7	Santa Rita 	8	Agosto	2023-08-30T00:00:00	2024-11-08T07:00:00	3	Temperatura mínima	23.6
114340	7	Sololá	704	Santa Lucía Utatlán 	7	Santa Rita 	8	Agosto	2023-08-30T00:00:00	2024-11-08T07:00:00	5	Humedad	79
114341	7	Sololá	704	Santa Lucía Utatlán 	7	Santa Rita 	8	Agosto	2023-08-30T00:00:00	2024-11-08T07:00:00	6	Velocidad del viento	6.4
114342	7	Sololá	704	Santa Lucía Utatlán 	7	Santa Rita 	8	Agosto	2023-08-30T00:00:00	2024-11-08T07:00:00	7	Dirección del viento	6.44
114343	7	Sololá	704	Santa Lucía Utatlán 	7	Santa Rita 	8	Agosto	2023-08-30T00:00:00	2024-11-08T07:00:00	1	Precipitación	0
114344	7	Sololá	704	Santa Lucía Utatlán 	7	Santa Rita 	8	Agosto	2023-08-30T00:00:00	2024-11-08T07:00:00	8	Radiación solar	39
114345	7	Sololá	704	Santa Lucía Utatlán 	7	Santa Rita 	8	Agosto	2023-08-30T00:00:00	2024-11-08T08:00:00	2	Temperatura media	24.2
114346	7	Sololá	704	Santa Lucía Utatlán 	7	Santa Rita 	8	Agosto	2023-08-30T00:00:00	2024-11-08T08:00:00	4	Temperatura máxima	24.7
114347	7	Sololá	704	Santa Lucía Utatlán 	7	Santa Rita 	8	Agosto	2023-08-30T00:00:00	2024-11-08T08:00:00	3	Temperatura mínima	23.6
114348	7	Sololá	704	Santa Lucía Utatlán 	7	Santa Rita 	8	Agosto	2023-08-30T00:00:00	2024-11-08T08:00:00	5	Humedad	77
114349	7	Sololá	704	Santa Lucía Utatlán 	7	Santa Rita 	8	Agosto	2023-08-30T00:00:00	2024-11-08T08:00:00	6	Velocidad del viento	8
114350	7	Sololá	704	Santa Lucía Utatlán 	7	Santa Rita 	8	Agosto	2023-08-30T00:00:00	2024-11-08T08:00:00	7	Dirección del viento	8.05
114351	7	Sololá	704	Santa Lucía Utatlán 	7	Santa Rita 	8	Agosto	2023-08-30T00:00:00	2024-11-08T08:00:00	1	Precipitación	0
114352	7	Sololá	704	Santa Lucía Utatlán 	7	Santa Rita 	8	Agosto	2023-08-30T00:00:00	2024-11-08T08:00:00	8	Radiación solar	159
114353	7	Sololá	704	Santa Lucía Utatlán 	7	Santa Rita 	8	Agosto	2023-08-30T00:00:00	2024-11-08T09:00:00	2	Temperatura media	24.1
114354	7	Sololá	704	Santa Lucía Utatlán 	7	Santa Rita 	8	Agosto	2023-08-30T00:00:00	2024-11-08T09:00:00	4	Temperatura máxima	24.3
114355	7	Sololá	704	Santa Lucía Utatlán 	7	Santa Rita 	8	Agosto	2023-08-30T00:00:00	2024-11-08T09:00:00	3	Temperatura mínima	23.6
114356	7	Sololá	704	Santa Lucía Utatlán 	7	Santa Rita 	8	Agosto	2023-08-30T00:00:00	2024-11-08T09:00:00	5	Humedad	78
114357	7	Sololá	704	Santa Lucía Utatlán 	7	Santa Rita 	8	Agosto	2023-08-30T00:00:00	2024-11-08T09:00:00	6	Velocidad del viento	6.4
114358	7	Sololá	704	Santa Lucía Utatlán 	7	Santa Rita 	8	Agosto	2023-08-30T00:00:00	2024-11-08T09:00:00	7	Dirección del viento	6.44
114359	7	Sololá	704	Santa Lucía Utatlán 	7	Santa Rita 	8	Agosto	2023-08-30T00:00:00	2024-11-08T09:00:00	1	Precipitación	0
114360	7	Sololá	704	Santa Lucía Utatlán 	7	Santa Rita 	8	Agosto	2023-08-30T00:00:00	2024-11-08T09:00:00	8	Radiación solar	296
114361	7	Sololá	704	Santa Lucía Utatlán 	7	Santa Rita 	8	Agosto	2023-08-30T00:00:00	2024-11-08T10:00:00	2	Temperatura media	21.8
114362	7	Sololá	704	Santa Lucía Utatlán 	7	Santa Rita 	8	Agosto	2023-08-30T00:00:00	2024-11-08T10:00:00	4	Temperatura máxima	24.2
114363	7	Sololá	704	Santa Lucía Utatlán 	7	Santa Rita 	8	Agosto	2023-08-30T00:00:00	2024-11-08T10:00:00	3	Temperatura mínima	21.8
114364	7	Sololá	704	Santa Lucía Utatlán 	7	Santa Rita 	8	Agosto	2023-08-30T00:00:00	2024-11-08T10:00:00	5	Humedad	90
114365	7	Sololá	704	Santa Lucía Utatlán 	7	Santa Rita 	8	Agosto	2023-08-30T00:00:00	2024-11-08T10:00:00	6	Velocidad del viento	4.8
114366	7	Sololá	704	Santa Lucía Utatlán 	7	Santa Rita 	8	Agosto	2023-08-30T00:00:00	2024-11-08T10:00:00	7	Dirección del viento	4.83
114367	7	Sololá	704	Santa Lucía Utatlán 	7	Santa Rita 	8	Agosto	2023-08-30T00:00:00	2024-11-08T10:00:00	1	Precipitación	0.2
114368	7	Sololá	704	Santa Lucía Utatlán 	7	Santa Rita 	8	Agosto	2023-08-30T00:00:00	2024-11-08T10:00:00	8	Radiación solar	562
114369	7	Sololá	704	Santa Lucía Utatlán 	7	Santa Rita 	8	Agosto	2023-08-30T00:00:00	2024-11-08T11:00:00	2	Temperatura media	21.9
114370	7	Sololá	704	Santa Lucía Utatlán 	7	Santa Rita 	8	Agosto	2023-08-30T00:00:00	2024-11-08T11:00:00	4	Temperatura máxima	21.9
114371	7	Sololá	704	Santa Lucía Utatlán 	7	Santa Rita 	8	Agosto	2023-08-30T00:00:00	2024-11-08T11:00:00	3	Temperatura mínima	21.6
114372	7	Sololá	704	Santa Lucía Utatlán 	7	Santa Rita 	8	Agosto	2023-08-30T00:00:00	2024-11-08T11:00:00	5	Humedad	87
114373	7	Sololá	704	Santa Lucía Utatlán 	7	Santa Rita 	8	Agosto	2023-08-30T00:00:00	2024-11-08T11:00:00	6	Velocidad del viento	1.6
114374	7	Sololá	704	Santa Lucía Utatlán 	7	Santa Rita 	8	Agosto	2023-08-30T00:00:00	2024-11-08T11:00:00	7	Dirección del viento	1.61
114375	7	Sololá	704	Santa Lucía Utatlán 	7	Santa Rita 	8	Agosto	2023-08-30T00:00:00	2024-11-08T11:00:00	1	Precipitación	0
114376	7	Sololá	704	Santa Lucía Utatlán 	7	Santa Rita 	8	Agosto	2023-08-30T00:00:00	2024-11-08T11:00:00	8	Radiación solar	858
114377	7	Sololá	704	Santa Lucía Utatlán 	7	Santa Rita 	8	Agosto	2023-08-30T00:00:00	2024-11-08T12:00:00	2	Temperatura media	21.4
114378	7	Sololá	704	Santa Lucía Utatlán 	7	Santa Rita 	8	Agosto	2023-08-30T00:00:00	2024-11-08T12:00:00	4	Temperatura máxima	21.9
114379	7	Sololá	704	Santa Lucía Utatlán 	7	Santa Rita 	8	Agosto	2023-08-30T00:00:00	2024-11-08T12:00:00	3	Temperatura mínima	21.4
114380	7	Sololá	704	Santa Lucía Utatlán 	7	Santa Rita 	8	Agosto	2023-08-30T00:00:00	2024-11-08T12:00:00	5	Humedad	92
114381	7	Sololá	704	Santa Lucía Utatlán 	7	Santa Rita 	8	Agosto	2023-08-30T00:00:00	2024-11-08T12:00:00	6	Velocidad del viento	0
114382	7	Sololá	704	Santa Lucía Utatlán 	7	Santa Rita 	8	Agosto	2023-08-30T00:00:00	2024-11-08T12:00:00	7	Dirección del viento	0
114383	7	Sololá	704	Santa Lucía Utatlán 	7	Santa Rita 	8	Agosto	2023-08-30T00:00:00	2024-11-08T12:00:00	1	Precipitación	0
114384	7	Sololá	704	Santa Lucía Utatlán 	7	Santa Rita 	8	Agosto	2023-08-30T00:00:00	2024-11-08T12:00:00	8	Radiación solar	492
114385	7	Sololá	704	Santa Lucía Utatlán 	7	Santa Rita 	8	Agosto	2023-08-30T00:00:00	2024-11-08T13:00:00	2	Temperatura media	20.7
114386	7	Sololá	704	Santa Lucía Utatlán 	7	Santa Rita 	8	Agosto	2023-08-30T00:00:00	2024-11-08T13:00:00	4	Temperatura máxima	21.4
114387	7	Sololá	704	Santa Lucía Utatlán 	7	Santa Rita 	8	Agosto	2023-08-30T00:00:00	2024-11-08T13:00:00	3	Temperatura mínima	20.6
114388	7	Sololá	704	Santa Lucía Utatlán 	7	Santa Rita 	8	Agosto	2023-08-30T00:00:00	2024-11-08T13:00:00	5	Humedad	94
114389	7	Sololá	704	Santa Lucía Utatlán 	7	Santa Rita 	8	Agosto	2023-08-30T00:00:00	2024-11-08T13:00:00	6	Velocidad del viento	1.6
114390	7	Sololá	704	Santa Lucía Utatlán 	7	Santa Rita 	8	Agosto	2023-08-30T00:00:00	2024-11-08T13:00:00	7	Dirección del viento	1.61
114391	7	Sololá	704	Santa Lucía Utatlán 	7	Santa Rita 	8	Agosto	2023-08-30T00:00:00	2024-11-08T13:00:00	1	Precipitación	0
114392	7	Sololá	704	Santa Lucía Utatlán 	7	Santa Rita 	8	Agosto	2023-08-30T00:00:00	2024-11-08T13:00:00	8	Radiación solar	326
114393	7	Sololá	704	Santa Lucía Utatlán 	7	Santa Rita 	8	Agosto	2023-08-30T00:00:00	2024-11-08T14:00:00	2	Temperatura media	20.2
114394	7	Sololá	704	Santa Lucía Utatlán 	7	Santa Rita 	8	Agosto	2023-08-30T00:00:00	2024-11-08T14:00:00	4	Temperatura máxima	20.7
114395	7	Sololá	704	Santa Lucía Utatlán 	7	Santa Rita 	8	Agosto	2023-08-30T00:00:00	2024-11-08T14:00:00	3	Temperatura mínima	20.2
114396	7	Sololá	704	Santa Lucía Utatlán 	7	Santa Rita 	8	Agosto	2023-08-30T00:00:00	2024-11-08T14:00:00	5	Humedad	94
114397	7	Sololá	704	Santa Lucía Utatlán 	7	Santa Rita 	8	Agosto	2023-08-30T00:00:00	2024-11-08T14:00:00	6	Velocidad del viento	1.6
114398	7	Sololá	704	Santa Lucía Utatlán 	7	Santa Rita 	8	Agosto	2023-08-30T00:00:00	2024-11-08T14:00:00	7	Dirección del viento	1.61
114399	7	Sololá	704	Santa Lucía Utatlán 	7	Santa Rita 	8	Agosto	2023-08-30T00:00:00	2024-11-08T14:00:00	1	Precipitación	0.2
114400	7	Sololá	704	Santa Lucía Utatlán 	7	Santa Rita 	8	Agosto	2023-08-30T00:00:00	2024-11-08T14:00:00	8	Radiación solar	481
114401	7	Sololá	704	Santa Lucía Utatlán 	7	Santa Rita 	8	Agosto	2023-08-30T00:00:00	2024-11-08T15:00:00	2	Temperatura media	19.4
114402	7	Sololá	704	Santa Lucía Utatlán 	7	Santa Rita 	8	Agosto	2023-08-30T00:00:00	2024-11-08T15:00:00	4	Temperatura máxima	20.2
114403	7	Sololá	704	Santa Lucía Utatlán 	7	Santa Rita 	8	Agosto	2023-08-30T00:00:00	2024-11-08T15:00:00	3	Temperatura mínima	19.4
114404	7	Sololá	704	Santa Lucía Utatlán 	7	Santa Rita 	8	Agosto	2023-08-30T00:00:00	2024-11-08T15:00:00	5	Humedad	92
114405	7	Sololá	704	Santa Lucía Utatlán 	7	Santa Rita 	8	Agosto	2023-08-30T00:00:00	2024-11-08T15:00:00	6	Velocidad del viento	1.6
114406	7	Sololá	704	Santa Lucía Utatlán 	7	Santa Rita 	8	Agosto	2023-08-30T00:00:00	2024-11-08T15:00:00	7	Dirección del viento	1.61
114407	7	Sololá	704	Santa Lucía Utatlán 	7	Santa Rita 	8	Agosto	2023-08-30T00:00:00	2024-11-08T15:00:00	1	Precipitación	0
114408	7	Sololá	704	Santa Lucía Utatlán 	7	Santa Rita 	8	Agosto	2023-08-30T00:00:00	2024-11-08T15:00:00	8	Radiación solar	117
114409	7	Sololá	704	Santa Lucía Utatlán 	7	Santa Rita 	8	Agosto	2023-08-30T00:00:00	2024-11-08T16:00:00	2	Temperatura media	19.3
114410	7	Sololá	704	Santa Lucía Utatlán 	7	Santa Rita 	8	Agosto	2023-08-30T00:00:00	2024-11-08T16:00:00	4	Temperatura máxima	19.5
114411	7	Sololá	704	Santa Lucía Utatlán 	7	Santa Rita 	8	Agosto	2023-08-30T00:00:00	2024-11-08T16:00:00	3	Temperatura mínima	19.3
114412	7	Sololá	704	Santa Lucía Utatlán 	7	Santa Rita 	8	Agosto	2023-08-30T00:00:00	2024-11-08T16:00:00	5	Humedad	93
114413	7	Sololá	704	Santa Lucía Utatlán 	7	Santa Rita 	8	Agosto	2023-08-30T00:00:00	2024-11-08T16:00:00	6	Velocidad del viento	3.2
114414	7	Sololá	704	Santa Lucía Utatlán 	7	Santa Rita 	8	Agosto	2023-08-30T00:00:00	2024-11-08T16:00:00	7	Dirección del viento	3.22
114415	7	Sololá	704	Santa Lucía Utatlán 	7	Santa Rita 	8	Agosto	2023-08-30T00:00:00	2024-11-08T16:00:00	1	Precipitación	0
114416	7	Sololá	704	Santa Lucía Utatlán 	7	Santa Rita 	8	Agosto	2023-08-30T00:00:00	2024-11-08T16:00:00	8	Radiación solar	108
114417	7	Sololá	704	Santa Lucía Utatlán 	7	Santa Rita 	8	Agosto	2023-08-30T00:00:00	2024-11-08T17:00:00	2	Temperatura media	19.3
114418	7	Sololá	704	Santa Lucía Utatlán 	7	Santa Rita 	8	Agosto	2023-08-30T00:00:00	2024-11-08T17:00:00	4	Temperatura máxima	19.4
114419	7	Sololá	704	Santa Lucía Utatlán 	7	Santa Rita 	8	Agosto	2023-08-30T00:00:00	2024-11-08T17:00:00	3	Temperatura mínima	19.3
114420	7	Sololá	704	Santa Lucía Utatlán 	7	Santa Rita 	8	Agosto	2023-08-30T00:00:00	2024-11-08T17:00:00	5	Humedad	92
114421	7	Sololá	704	Santa Lucía Utatlán 	7	Santa Rita 	8	Agosto	2023-08-30T00:00:00	2024-11-08T17:00:00	6	Velocidad del viento	3.2
114422	7	Sololá	704	Santa Lucía Utatlán 	7	Santa Rita 	8	Agosto	2023-08-30T00:00:00	2024-11-08T17:00:00	7	Dirección del viento	3.22
114423	7	Sololá	704	Santa Lucía Utatlán 	7	Santa Rita 	8	Agosto	2023-08-30T00:00:00	2024-11-08T17:00:00	1	Precipitación	0
114424	7	Sololá	704	Santa Lucía Utatlán 	7	Santa Rita 	8	Agosto	2023-08-30T00:00:00	2024-11-08T17:00:00	8	Radiación solar	33
114425	7	Sololá	704	Santa Lucía Utatlán 	7	Santa Rita 	8	Agosto	2023-08-30T00:00:00	2024-11-08T18:00:00	2	Temperatura media	19
114426	7	Sololá	704	Santa Lucía Utatlán 	7	Santa Rita 	8	Agosto	2023-08-30T00:00:00	2024-11-08T18:00:00	4	Temperatura máxima	19.3
114427	7	Sololá	704	Santa Lucía Utatlán 	7	Santa Rita 	8	Agosto	2023-08-30T00:00:00	2024-11-08T18:00:00	3	Temperatura mínima	18.8
114428	7	Sololá	704	Santa Lucía Utatlán 	7	Santa Rita 	8	Agosto	2023-08-30T00:00:00	2024-11-08T18:00:00	5	Humedad	93
114429	7	Sololá	704	Santa Lucía Utatlán 	7	Santa Rita 	8	Agosto	2023-08-30T00:00:00	2024-11-08T18:00:00	6	Velocidad del viento	3.2
114430	7	Sololá	704	Santa Lucía Utatlán 	7	Santa Rita 	8	Agosto	2023-08-30T00:00:00	2024-11-08T18:00:00	7	Dirección del viento	3.22
114431	7	Sololá	704	Santa Lucía Utatlán 	7	Santa Rita 	8	Agosto	2023-08-30T00:00:00	2024-11-08T18:00:00	1	Precipitación	0
114432	7	Sololá	704	Santa Lucía Utatlán 	7	Santa Rita 	8	Agosto	2023-08-30T00:00:00	2024-11-08T18:00:00	8	Radiación solar	7
114433	7	Sololá	704	Santa Lucía Utatlán 	7	Santa Rita 	8	Agosto	2023-08-30T00:00:00	2024-11-08T19:00:00	2	Temperatura media	19.2
114434	7	Sololá	704	Santa Lucía Utatlán 	7	Santa Rita 	8	Agosto	2023-08-30T00:00:00	2024-11-08T19:00:00	4	Temperatura máxima	19.3
114435	7	Sololá	704	Santa Lucía Utatlán 	7	Santa Rita 	8	Agosto	2023-08-30T00:00:00	2024-11-08T19:00:00	3	Temperatura mínima	19
114436	7	Sololá	704	Santa Lucía Utatlán 	7	Santa Rita 	8	Agosto	2023-08-30T00:00:00	2024-11-08T19:00:00	5	Humedad	92
114437	7	Sololá	704	Santa Lucía Utatlán 	7	Santa Rita 	8	Agosto	2023-08-30T00:00:00	2024-11-08T19:00:00	6	Velocidad del viento	3.2
114438	7	Sololá	704	Santa Lucía Utatlán 	7	Santa Rita 	8	Agosto	2023-08-30T00:00:00	2024-11-08T19:00:00	7	Dirección del viento	3.22
114439	7	Sololá	704	Santa Lucía Utatlán 	7	Santa Rita 	8	Agosto	2023-08-30T00:00:00	2024-11-08T19:00:00	1	Precipitación	0
114440	7	Sololá	704	Santa Lucía Utatlán 	7	Santa Rita 	8	Agosto	2023-08-30T00:00:00	2024-11-08T19:00:00	8	Radiación solar	0
114441	7	Sololá	704	Santa Lucía Utatlán 	7	Santa Rita 	8	Agosto	2023-08-30T00:00:00	2024-11-08T20:00:00	2	Temperatura media	19.1
114442	7	Sololá	704	Santa Lucía Utatlán 	7	Santa Rita 	8	Agosto	2023-08-30T00:00:00	2024-11-08T20:00:00	4	Temperatura máxima	19.3
114443	7	Sololá	704	Santa Lucía Utatlán 	7	Santa Rita 	8	Agosto	2023-08-30T00:00:00	2024-11-08T20:00:00	3	Temperatura mínima	19.1
114444	7	Sololá	704	Santa Lucía Utatlán 	7	Santa Rita 	8	Agosto	2023-08-30T00:00:00	2024-11-08T20:00:00	5	Humedad	90
114445	7	Sololá	704	Santa Lucía Utatlán 	7	Santa Rita 	8	Agosto	2023-08-30T00:00:00	2024-11-08T20:00:00	6	Velocidad del viento	4.8
114446	7	Sololá	704	Santa Lucía Utatlán 	7	Santa Rita 	8	Agosto	2023-08-30T00:00:00	2024-11-08T20:00:00	7	Dirección del viento	4.83
114447	7	Sololá	704	Santa Lucía Utatlán 	7	Santa Rita 	8	Agosto	2023-08-30T00:00:00	2024-11-08T20:00:00	1	Precipitación	0
114448	7	Sololá	704	Santa Lucía Utatlán 	7	Santa Rita 	8	Agosto	2023-08-30T00:00:00	2024-11-08T20:00:00	8	Radiación solar	0
114449	7	Sololá	704	Santa Lucía Utatlán 	7	Santa Rita 	8	Agosto	2023-08-30T00:00:00	2024-11-08T21:00:00	2	Temperatura media	18.7
114450	7	Sololá	704	Santa Lucía Utatlán 	7	Santa Rita 	8	Agosto	2023-08-30T00:00:00	2024-11-08T21:00:00	4	Temperatura máxima	19.1
114451	7	Sololá	704	Santa Lucía Utatlán 	7	Santa Rita 	8	Agosto	2023-08-30T00:00:00	2024-11-08T21:00:00	3	Temperatura mínima	18.6
114452	7	Sololá	704	Santa Lucía Utatlán 	7	Santa Rita 	8	Agosto	2023-08-30T00:00:00	2024-11-08T21:00:00	5	Humedad	91
114453	7	Sololá	704	Santa Lucía Utatlán 	7	Santa Rita 	8	Agosto	2023-08-30T00:00:00	2024-11-08T21:00:00	6	Velocidad del viento	3.2
114454	7	Sololá	704	Santa Lucía Utatlán 	7	Santa Rita 	8	Agosto	2023-08-30T00:00:00	2024-11-08T21:00:00	7	Dirección del viento	3.22
114455	7	Sololá	704	Santa Lucía Utatlán 	7	Santa Rita 	8	Agosto	2023-08-30T00:00:00	2024-11-08T21:00:00	1	Precipitación	0
114456	7	Sololá	704	Santa Lucía Utatlán 	7	Santa Rita 	8	Agosto	2023-08-30T00:00:00	2024-11-08T21:00:00	8	Radiación solar	0
114457	7	Sololá	704	Santa Lucía Utatlán 	7	Santa Rita 	8	Agosto	2023-08-30T00:00:00	2024-11-08T22:00:00	2	Temperatura media	18.7
114458	7	Sololá	704	Santa Lucía Utatlán 	7	Santa Rita 	8	Agosto	2023-08-30T00:00:00	2024-11-08T22:00:00	4	Temperatura máxima	18.9
114459	7	Sololá	704	Santa Lucía Utatlán 	7	Santa Rita 	8	Agosto	2023-08-30T00:00:00	2024-11-08T22:00:00	3	Temperatura mínima	18.6
114460	7	Sololá	704	Santa Lucía Utatlán 	7	Santa Rita 	8	Agosto	2023-08-30T00:00:00	2024-11-08T22:00:00	5	Humedad	90
114461	7	Sololá	704	Santa Lucía Utatlán 	7	Santa Rita 	8	Agosto	2023-08-30T00:00:00	2024-11-08T22:00:00	6	Velocidad del viento	4.8
114462	7	Sololá	704	Santa Lucía Utatlán 	7	Santa Rita 	8	Agosto	2023-08-30T00:00:00	2024-11-08T22:00:00	7	Dirección del viento	4.83
114463	7	Sololá	704	Santa Lucía Utatlán 	7	Santa Rita 	8	Agosto	2023-08-30T00:00:00	2024-11-08T22:00:00	1	Precipitación	0
114464	7	Sololá	704	Santa Lucía Utatlán 	7	Santa Rita 	8	Agosto	2023-08-30T00:00:00	2024-11-08T22:00:00	8	Radiación solar	0
114465	7	Sololá	704	Santa Lucía Utatlán 	7	Santa Rita 	8	Agosto	2023-08-30T00:00:00	2024-11-08T23:00:00	2	Temperatura media	18.6
114466	7	Sololá	704	Santa Lucía Utatlán 	7	Santa Rita 	8	Agosto	2023-08-30T00:00:00	2024-11-08T23:00:00	4	Temperatura máxima	18.7
114467	7	Sololá	704	Santa Lucía Utatlán 	7	Santa Rita 	8	Agosto	2023-08-30T00:00:00	2024-11-08T23:00:00	3	Temperatura mínima	18.5
114468	7	Sololá	704	Santa Lucía Utatlán 	7	Santa Rita 	8	Agosto	2023-08-30T00:00:00	2024-11-08T23:00:00	5	Humedad	90
114469	7	Sololá	704	Santa Lucía Utatlán 	7	Santa Rita 	8	Agosto	2023-08-30T00:00:00	2024-11-08T23:00:00	6	Velocidad del viento	3.2
114470	7	Sololá	704	Santa Lucía Utatlán 	7	Santa Rita 	8	Agosto	2023-08-30T00:00:00	2024-11-08T23:00:00	7	Dirección del viento	3.22
114471	7	Sololá	704	Santa Lucía Utatlán 	7	Santa Rita 	8	Agosto	2023-08-30T00:00:00	2024-11-08T23:00:00	1	Precipitación	0
114472	7	Sololá	704	Santa Lucía Utatlán 	7	Santa Rita 	8	Agosto	2023-08-30T00:00:00	2024-11-08T23:00:00	8	Radiación solar	0
114473	7	Sololá	704	Santa Lucía Utatlán 	7	Santa Rita 	8	Agosto	2023-08-31T00:00:00	2024-11-08T00:00:00	2	Temperatura media	18.3
114474	7	Sololá	704	Santa Lucía Utatlán 	7	Santa Rita 	8	Agosto	2023-08-31T00:00:00	2024-11-08T00:00:00	4	Temperatura máxima	18.6
114475	7	Sololá	704	Santa Lucía Utatlán 	7	Santa Rita 	8	Agosto	2023-08-31T00:00:00	2024-11-08T00:00:00	3	Temperatura mínima	18.3
114476	7	Sololá	704	Santa Lucía Utatlán 	7	Santa Rita 	8	Agosto	2023-08-31T00:00:00	2024-11-08T00:00:00	5	Humedad	86
114477	7	Sololá	704	Santa Lucía Utatlán 	7	Santa Rita 	8	Agosto	2023-08-31T00:00:00	2024-11-08T00:00:00	6	Velocidad del viento	3.2
114478	7	Sololá	704	Santa Lucía Utatlán 	7	Santa Rita 	8	Agosto	2023-08-31T00:00:00	2024-11-08T00:00:00	7	Dirección del viento	3.22
114479	7	Sololá	704	Santa Lucía Utatlán 	7	Santa Rita 	8	Agosto	2023-08-31T00:00:00	2024-11-08T00:00:00	1	Precipitación	0
114480	7	Sololá	704	Santa Lucía Utatlán 	7	Santa Rita 	8	Agosto	2023-08-31T00:00:00	2024-11-08T00:00:00	8	Radiación solar	0
114481	7	Sololá	704	Santa Lucía Utatlán 	7	Santa Rita 	8	Agosto	2023-08-31T00:00:00	2024-11-08T01:00:00	2	Temperatura media	18.1
114482	7	Sololá	704	Santa Lucía Utatlán 	7	Santa Rita 	8	Agosto	2023-08-31T00:00:00	2024-11-08T01:00:00	4	Temperatura máxima	18.4
114483	7	Sololá	704	Santa Lucía Utatlán 	7	Santa Rita 	8	Agosto	2023-08-31T00:00:00	2024-11-08T01:00:00	3	Temperatura mínima	18.1
114484	7	Sololá	704	Santa Lucía Utatlán 	7	Santa Rita 	8	Agosto	2023-08-31T00:00:00	2024-11-08T01:00:00	5	Humedad	86
114485	7	Sololá	704	Santa Lucía Utatlán 	7	Santa Rita 	8	Agosto	2023-08-31T00:00:00	2024-11-08T01:00:00	6	Velocidad del viento	4.8
114486	7	Sololá	704	Santa Lucía Utatlán 	7	Santa Rita 	8	Agosto	2023-08-31T00:00:00	2024-11-08T01:00:00	7	Dirección del viento	4.83
114487	7	Sololá	704	Santa Lucía Utatlán 	7	Santa Rita 	8	Agosto	2023-08-31T00:00:00	2024-11-08T01:00:00	1	Precipitación	0
114488	7	Sololá	704	Santa Lucía Utatlán 	7	Santa Rita 	8	Agosto	2023-08-31T00:00:00	2024-11-08T01:00:00	8	Radiación solar	0
114489	7	Sololá	704	Santa Lucía Utatlán 	7	Santa Rita 	8	Agosto	2023-08-31T00:00:00	2024-11-08T02:00:00	2	Temperatura media	20.2
114490	7	Sololá	704	Santa Lucía Utatlán 	7	Santa Rita 	8	Agosto	2023-08-31T00:00:00	2024-11-08T02:00:00	4	Temperatura máxima	20.2
114491	7	Sololá	704	Santa Lucía Utatlán 	7	Santa Rita 	8	Agosto	2023-08-31T00:00:00	2024-11-08T02:00:00	3	Temperatura mínima	17.9
114492	7	Sololá	704	Santa Lucía Utatlán 	7	Santa Rita 	8	Agosto	2023-08-31T00:00:00	2024-11-08T02:00:00	5	Humedad	83
114493	7	Sololá	704	Santa Lucía Utatlán 	7	Santa Rita 	8	Agosto	2023-08-31T00:00:00	2024-11-08T02:00:00	6	Velocidad del viento	4.8
114494	7	Sololá	704	Santa Lucía Utatlán 	7	Santa Rita 	8	Agosto	2023-08-31T00:00:00	2024-11-08T02:00:00	7	Dirección del viento	4.83
114495	7	Sololá	704	Santa Lucía Utatlán 	7	Santa Rita 	8	Agosto	2023-08-31T00:00:00	2024-11-08T02:00:00	1	Precipitación	0
114496	7	Sololá	704	Santa Lucía Utatlán 	7	Santa Rita 	8	Agosto	2023-08-31T00:00:00	2024-11-08T02:00:00	8	Radiación solar	0
114497	7	Sololá	704	Santa Lucía Utatlán 	7	Santa Rita 	8	Agosto	2023-08-31T00:00:00	2024-11-08T03:00:00	2	Temperatura media	23.3
114498	7	Sololá	704	Santa Lucía Utatlán 	7	Santa Rita 	8	Agosto	2023-08-31T00:00:00	2024-11-08T03:00:00	4	Temperatura máxima	23.4
114499	7	Sololá	704	Santa Lucía Utatlán 	7	Santa Rita 	8	Agosto	2023-08-31T00:00:00	2024-11-08T03:00:00	3	Temperatura mínima	20.2
114500	7	Sololá	704	Santa Lucía Utatlán 	7	Santa Rita 	8	Agosto	2023-08-31T00:00:00	2024-11-08T03:00:00	5	Humedad	72
114501	7	Sololá	704	Santa Lucía Utatlán 	7	Santa Rita 	8	Agosto	2023-08-31T00:00:00	2024-11-08T03:00:00	6	Velocidad del viento	1.6
114502	7	Sololá	704	Santa Lucía Utatlán 	7	Santa Rita 	8	Agosto	2023-08-31T00:00:00	2024-11-08T03:00:00	7	Dirección del viento	1.61
114503	7	Sololá	704	Santa Lucía Utatlán 	7	Santa Rita 	8	Agosto	2023-08-31T00:00:00	2024-11-08T03:00:00	1	Precipitación	0
114504	7	Sololá	704	Santa Lucía Utatlán 	7	Santa Rita 	8	Agosto	2023-08-31T00:00:00	2024-11-08T03:00:00	8	Radiación solar	0
114505	7	Sololá	704	Santa Lucía Utatlán 	7	Santa Rita 	8	Agosto	2023-08-31T00:00:00	2024-11-08T04:00:00	2	Temperatura media	26.1
114506	7	Sololá	704	Santa Lucía Utatlán 	7	Santa Rita 	8	Agosto	2023-08-31T00:00:00	2024-11-08T04:00:00	4	Temperatura máxima	26.1
114507	7	Sololá	704	Santa Lucía Utatlán 	7	Santa Rita 	8	Agosto	2023-08-31T00:00:00	2024-11-08T04:00:00	3	Temperatura mínima	23.3
114508	7	Sololá	704	Santa Lucía Utatlán 	7	Santa Rita 	8	Agosto	2023-08-31T00:00:00	2024-11-08T04:00:00	5	Humedad	57
114509	7	Sololá	704	Santa Lucía Utatlán 	7	Santa Rita 	8	Agosto	2023-08-31T00:00:00	2024-11-08T04:00:00	6	Velocidad del viento	3.2
114510	7	Sololá	704	Santa Lucía Utatlán 	7	Santa Rita 	8	Agosto	2023-08-31T00:00:00	2024-11-08T04:00:00	7	Dirección del viento	3.22
114511	7	Sololá	704	Santa Lucía Utatlán 	7	Santa Rita 	8	Agosto	2023-08-31T00:00:00	2024-11-08T04:00:00	1	Precipitación	0
114512	7	Sololá	704	Santa Lucía Utatlán 	7	Santa Rita 	8	Agosto	2023-08-31T00:00:00	2024-11-08T04:00:00	8	Radiación solar	0
114513	7	Sololá	704	Santa Lucía Utatlán 	7	Santa Rita 	8	Agosto	2023-08-31T00:00:00	2024-11-08T05:00:00	2	Temperatura media	26.5
114514	7	Sololá	704	Santa Lucía Utatlán 	7	Santa Rita 	8	Agosto	2023-08-31T00:00:00	2024-11-08T05:00:00	4	Temperatura máxima	26.5
114515	7	Sololá	704	Santa Lucía Utatlán 	7	Santa Rita 	8	Agosto	2023-08-31T00:00:00	2024-11-08T05:00:00	3	Temperatura mínima	25.8
114516	7	Sololá	704	Santa Lucía Utatlán 	7	Santa Rita 	8	Agosto	2023-08-31T00:00:00	2024-11-08T05:00:00	5	Humedad	57
114517	7	Sololá	704	Santa Lucía Utatlán 	7	Santa Rita 	8	Agosto	2023-08-31T00:00:00	2024-11-08T05:00:00	6	Velocidad del viento	4.8
114518	7	Sololá	704	Santa Lucía Utatlán 	7	Santa Rita 	8	Agosto	2023-08-31T00:00:00	2024-11-08T05:00:00	7	Dirección del viento	4.83
114519	7	Sololá	704	Santa Lucía Utatlán 	7	Santa Rita 	8	Agosto	2023-08-31T00:00:00	2024-11-08T05:00:00	1	Precipitación	0
114520	7	Sololá	704	Santa Lucía Utatlán 	7	Santa Rita 	8	Agosto	2023-08-31T00:00:00	2024-11-08T05:00:00	8	Radiación solar	0
114521	7	Sololá	704	Santa Lucía Utatlán 	7	Santa Rita 	8	Agosto	2023-08-31T00:00:00	2024-11-08T06:00:00	2	Temperatura media	27.2
114522	7	Sololá	704	Santa Lucía Utatlán 	7	Santa Rita 	8	Agosto	2023-08-31T00:00:00	2024-11-08T06:00:00	4	Temperatura máxima	27.4
114523	7	Sololá	704	Santa Lucía Utatlán 	7	Santa Rita 	8	Agosto	2023-08-31T00:00:00	2024-11-08T06:00:00	3	Temperatura mínima	26.5
114524	7	Sololá	704	Santa Lucía Utatlán 	7	Santa Rita 	8	Agosto	2023-08-31T00:00:00	2024-11-08T06:00:00	5	Humedad	49
114525	7	Sololá	704	Santa Lucía Utatlán 	7	Santa Rita 	8	Agosto	2023-08-31T00:00:00	2024-11-08T06:00:00	6	Velocidad del viento	6.4
114526	7	Sololá	704	Santa Lucía Utatlán 	7	Santa Rita 	8	Agosto	2023-08-31T00:00:00	2024-11-08T06:00:00	7	Dirección del viento	6.44
114527	7	Sololá	704	Santa Lucía Utatlán 	7	Santa Rita 	8	Agosto	2023-08-31T00:00:00	2024-11-08T06:00:00	1	Precipitación	0
114528	7	Sololá	704	Santa Lucía Utatlán 	7	Santa Rita 	8	Agosto	2023-08-31T00:00:00	2024-11-08T06:00:00	8	Radiación solar	1
114529	7	Sololá	704	Santa Lucía Utatlán 	7	Santa Rita 	8	Agosto	2023-08-31T00:00:00	2024-11-08T07:00:00	2	Temperatura media	26.7
114530	7	Sololá	704	Santa Lucía Utatlán 	7	Santa Rita 	8	Agosto	2023-08-31T00:00:00	2024-11-08T07:00:00	4	Temperatura máxima	27.7
114531	7	Sololá	704	Santa Lucía Utatlán 	7	Santa Rita 	8	Agosto	2023-08-31T00:00:00	2024-11-08T07:00:00	3	Temperatura mínima	26.6
114532	7	Sololá	704	Santa Lucía Utatlán 	7	Santa Rita 	8	Agosto	2023-08-31T00:00:00	2024-11-08T07:00:00	5	Humedad	62
114533	7	Sololá	704	Santa Lucía Utatlán 	7	Santa Rita 	8	Agosto	2023-08-31T00:00:00	2024-11-08T07:00:00	6	Velocidad del viento	8
114534	7	Sololá	704	Santa Lucía Utatlán 	7	Santa Rita 	8	Agosto	2023-08-31T00:00:00	2024-11-08T07:00:00	7	Dirección del viento	8.05
114535	7	Sololá	704	Santa Lucía Utatlán 	7	Santa Rita 	8	Agosto	2023-08-31T00:00:00	2024-11-08T07:00:00	1	Precipitación	0
114536	7	Sololá	704	Santa Lucía Utatlán 	7	Santa Rita 	8	Agosto	2023-08-31T00:00:00	2024-11-08T07:00:00	8	Radiación solar	97
114537	7	Sololá	704	Santa Lucía Utatlán 	7	Santa Rita 	8	Agosto	2023-08-31T00:00:00	2024-11-08T08:00:00	2	Temperatura media	24.1
114538	7	Sololá	704	Santa Lucía Utatlán 	7	Santa Rita 	8	Agosto	2023-08-31T00:00:00	2024-11-08T08:00:00	4	Temperatura máxima	26.6
114539	7	Sololá	704	Santa Lucía Utatlán 	7	Santa Rita 	8	Agosto	2023-08-31T00:00:00	2024-11-08T08:00:00	3	Temperatura mínima	24.1
114540	7	Sololá	704	Santa Lucía Utatlán 	7	Santa Rita 	8	Agosto	2023-08-31T00:00:00	2024-11-08T08:00:00	5	Humedad	81
114541	7	Sololá	704	Santa Lucía Utatlán 	7	Santa Rita 	8	Agosto	2023-08-31T00:00:00	2024-11-08T08:00:00	6	Velocidad del viento	8
114542	7	Sololá	704	Santa Lucía Utatlán 	7	Santa Rita 	8	Agosto	2023-08-31T00:00:00	2024-11-08T08:00:00	7	Dirección del viento	8.05
114543	7	Sololá	704	Santa Lucía Utatlán 	7	Santa Rita 	8	Agosto	2023-08-31T00:00:00	2024-11-08T08:00:00	1	Precipitación	0
114544	7	Sololá	704	Santa Lucía Utatlán 	7	Santa Rita 	8	Agosto	2023-08-31T00:00:00	2024-11-08T08:00:00	8	Radiación solar	375
114545	7	Sololá	704	Santa Lucía Utatlán 	7	Santa Rita 	8	Agosto	2023-08-31T00:00:00	2024-11-08T09:00:00	2	Temperatura media	20.6
114546	7	Sololá	704	Santa Lucía Utatlán 	7	Santa Rita 	8	Agosto	2023-08-31T00:00:00	2024-11-08T09:00:00	4	Temperatura máxima	24.1
114547	7	Sololá	704	Santa Lucía Utatlán 	7	Santa Rita 	8	Agosto	2023-08-31T00:00:00	2024-11-08T09:00:00	3	Temperatura mínima	20.6
114548	7	Sololá	704	Santa Lucía Utatlán 	7	Santa Rita 	8	Agosto	2023-08-31T00:00:00	2024-11-08T09:00:00	5	Humedad	84
114549	7	Sololá	704	Santa Lucía Utatlán 	7	Santa Rita 	8	Agosto	2023-08-31T00:00:00	2024-11-08T09:00:00	6	Velocidad del viento	8
114550	7	Sololá	704	Santa Lucía Utatlán 	7	Santa Rita 	8	Agosto	2023-08-31T00:00:00	2024-11-08T09:00:00	7	Dirección del viento	8.05
114551	7	Sololá	704	Santa Lucía Utatlán 	7	Santa Rita 	8	Agosto	2023-08-31T00:00:00	2024-11-08T09:00:00	1	Precipitación	3.2
114552	7	Sololá	704	Santa Lucía Utatlán 	7	Santa Rita 	8	Agosto	2023-08-31T00:00:00	2024-11-08T09:00:00	8	Radiación solar	635
114553	7	Sololá	704	Santa Lucía Utatlán 	7	Santa Rita 	8	Agosto	2023-08-31T00:00:00	2024-11-08T10:00:00	2	Temperatura media	18.8
114554	7	Sololá	704	Santa Lucía Utatlán 	7	Santa Rita 	8	Agosto	2023-08-31T00:00:00	2024-11-08T10:00:00	4	Temperatura máxima	20.6
114555	7	Sololá	704	Santa Lucía Utatlán 	7	Santa Rita 	8	Agosto	2023-08-31T00:00:00	2024-11-08T10:00:00	3	Temperatura mínima	18.8
114556	7	Sololá	704	Santa Lucía Utatlán 	7	Santa Rita 	8	Agosto	2023-08-31T00:00:00	2024-11-08T10:00:00	5	Humedad	93
114557	7	Sololá	704	Santa Lucía Utatlán 	7	Santa Rita 	8	Agosto	2023-08-31T00:00:00	2024-11-08T10:00:00	6	Velocidad del viento	4.8
114558	7	Sololá	704	Santa Lucía Utatlán 	7	Santa Rita 	8	Agosto	2023-08-31T00:00:00	2024-11-08T10:00:00	7	Dirección del viento	4.83
114559	7	Sololá	704	Santa Lucía Utatlán 	7	Santa Rita 	8	Agosto	2023-08-31T00:00:00	2024-11-08T10:00:00	1	Precipitación	4.6
114560	7	Sololá	704	Santa Lucía Utatlán 	7	Santa Rita 	8	Agosto	2023-08-31T00:00:00	2024-11-08T10:00:00	8	Radiación solar	780
114561	7	Sololá	704	Santa Lucía Utatlán 	7	Santa Rita 	8	Agosto	2023-08-31T00:00:00	2024-11-08T11:00:00	2	Temperatura media	19.6
114562	7	Sololá	704	Santa Lucía Utatlán 	7	Santa Rita 	8	Agosto	2023-08-31T00:00:00	2024-11-08T11:00:00	4	Temperatura máxima	19.6
114563	7	Sololá	704	Santa Lucía Utatlán 	7	Santa Rita 	8	Agosto	2023-08-31T00:00:00	2024-11-08T11:00:00	3	Temperatura mínima	18.8
114564	7	Sololá	704	Santa Lucía Utatlán 	7	Santa Rita 	8	Agosto	2023-08-31T00:00:00	2024-11-08T11:00:00	5	Humedad	94
114565	7	Sololá	704	Santa Lucía Utatlán 	7	Santa Rita 	8	Agosto	2023-08-31T00:00:00	2024-11-08T11:00:00	6	Velocidad del viento	1.6
114566	7	Sololá	704	Santa Lucía Utatlán 	7	Santa Rita 	8	Agosto	2023-08-31T00:00:00	2024-11-08T11:00:00	7	Dirección del viento	1.61
114567	7	Sololá	704	Santa Lucía Utatlán 	7	Santa Rita 	8	Agosto	2023-08-31T00:00:00	2024-11-08T11:00:00	1	Precipitación	1.2
114568	7	Sololá	704	Santa Lucía Utatlán 	7	Santa Rita 	8	Agosto	2023-08-31T00:00:00	2024-11-08T11:00:00	8	Radiación solar	958
114569	7	Sololá	704	Santa Lucía Utatlán 	7	Santa Rita 	8	Agosto	2023-08-31T00:00:00	2024-11-08T12:00:00	2	Temperatura media	19.3
114570	7	Sololá	704	Santa Lucía Utatlán 	7	Santa Rita 	8	Agosto	2023-08-31T00:00:00	2024-11-08T12:00:00	4	Temperatura máxima	19.7
114571	7	Sololá	704	Santa Lucía Utatlán 	7	Santa Rita 	8	Agosto	2023-08-31T00:00:00	2024-11-08T12:00:00	3	Temperatura mínima	19.3
114572	7	Sololá	704	Santa Lucía Utatlán 	7	Santa Rita 	8	Agosto	2023-08-31T00:00:00	2024-11-08T12:00:00	5	Humedad	93
114573	7	Sololá	704	Santa Lucía Utatlán 	7	Santa Rita 	8	Agosto	2023-08-31T00:00:00	2024-11-08T12:00:00	6	Velocidad del viento	1.6
114574	7	Sololá	704	Santa Lucía Utatlán 	7	Santa Rita 	8	Agosto	2023-08-31T00:00:00	2024-11-08T12:00:00	7	Dirección del viento	1.61
114575	7	Sololá	704	Santa Lucía Utatlán 	7	Santa Rita 	8	Agosto	2023-08-31T00:00:00	2024-11-08T12:00:00	1	Precipitación	0.2
114576	7	Sololá	704	Santa Lucía Utatlán 	7	Santa Rita 	8	Agosto	2023-08-31T00:00:00	2024-11-08T12:00:00	8	Radiación solar	1056
114577	7	Sololá	704	Santa Lucía Utatlán 	7	Santa Rita 	8	Agosto	2023-08-31T00:00:00	2024-11-08T13:00:00	2	Temperatura media	18.7
114578	7	Sololá	704	Santa Lucía Utatlán 	7	Santa Rita 	8	Agosto	2023-08-31T00:00:00	2024-11-08T13:00:00	4	Temperatura máxima	19.3
114579	7	Sololá	704	Santa Lucía Utatlán 	7	Santa Rita 	8	Agosto	2023-08-31T00:00:00	2024-11-08T13:00:00	3	Temperatura mínima	18.6
114580	7	Sololá	704	Santa Lucía Utatlán 	7	Santa Rita 	8	Agosto	2023-08-31T00:00:00	2024-11-08T13:00:00	5	Humedad	93
114581	7	Sololá	704	Santa Lucía Utatlán 	7	Santa Rita 	8	Agosto	2023-08-31T00:00:00	2024-11-08T13:00:00	6	Velocidad del viento	3.2
114582	7	Sololá	704	Santa Lucía Utatlán 	7	Santa Rita 	8	Agosto	2023-08-31T00:00:00	2024-11-08T13:00:00	7	Dirección del viento	3.22
114583	7	Sololá	704	Santa Lucía Utatlán 	7	Santa Rita 	8	Agosto	2023-08-31T00:00:00	2024-11-08T13:00:00	1	Precipitación	0.2
114584	7	Sololá	704	Santa Lucía Utatlán 	7	Santa Rita 	8	Agosto	2023-08-31T00:00:00	2024-11-08T13:00:00	8	Radiación solar	423
114585	7	Sololá	704	Santa Lucía Utatlán 	7	Santa Rita 	8	Agosto	2023-08-31T00:00:00	2024-11-08T14:00:00	2	Temperatura media	18.5
114586	7	Sololá	704	Santa Lucía Utatlán 	7	Santa Rita 	8	Agosto	2023-08-31T00:00:00	2024-11-08T14:00:00	4	Temperatura máxima	18.7
114587	7	Sololá	704	Santa Lucía Utatlán 	7	Santa Rita 	8	Agosto	2023-08-31T00:00:00	2024-11-08T14:00:00	3	Temperatura mínima	18.4
114588	7	Sololá	704	Santa Lucía Utatlán 	7	Santa Rita 	8	Agosto	2023-08-31T00:00:00	2024-11-08T14:00:00	5	Humedad	93
114589	7	Sololá	704	Santa Lucía Utatlán 	7	Santa Rita 	8	Agosto	2023-08-31T00:00:00	2024-11-08T14:00:00	6	Velocidad del viento	3.2
114590	7	Sololá	704	Santa Lucía Utatlán 	7	Santa Rita 	8	Agosto	2023-08-31T00:00:00	2024-11-08T14:00:00	7	Dirección del viento	3.22
114591	7	Sololá	704	Santa Lucía Utatlán 	7	Santa Rita 	8	Agosto	2023-08-31T00:00:00	2024-11-08T14:00:00	1	Precipitación	0
114592	7	Sololá	704	Santa Lucía Utatlán 	7	Santa Rita 	8	Agosto	2023-08-31T00:00:00	2024-11-08T14:00:00	8	Radiación solar	182
114593	7	Sololá	704	Santa Lucía Utatlán 	7	Santa Rita 	8	Agosto	2023-08-31T00:00:00	2024-11-08T15:00:00	2	Temperatura media	18.4
114594	7	Sololá	704	Santa Lucía Utatlán 	7	Santa Rita 	8	Agosto	2023-08-31T00:00:00	2024-11-08T15:00:00	4	Temperatura máxima	18.6
114595	7	Sololá	704	Santa Lucía Utatlán 	7	Santa Rita 	8	Agosto	2023-08-31T00:00:00	2024-11-08T15:00:00	3	Temperatura mínima	18.4
114596	7	Sololá	704	Santa Lucía Utatlán 	7	Santa Rita 	8	Agosto	2023-08-31T00:00:00	2024-11-08T15:00:00	5	Humedad	92
114597	7	Sololá	704	Santa Lucía Utatlán 	7	Santa Rita 	8	Agosto	2023-08-31T00:00:00	2024-11-08T15:00:00	6	Velocidad del viento	3.2
114598	7	Sololá	704	Santa Lucía Utatlán 	7	Santa Rita 	8	Agosto	2023-08-31T00:00:00	2024-11-08T15:00:00	7	Dirección del viento	3.22
114599	7	Sololá	704	Santa Lucía Utatlán 	7	Santa Rita 	8	Agosto	2023-08-31T00:00:00	2024-11-08T15:00:00	1	Precipitación	1.6
114600	7	Sololá	704	Santa Lucía Utatlán 	7	Santa Rita 	8	Agosto	2023-08-31T00:00:00	2024-11-08T15:00:00	8	Radiación solar	23
114601	7	Sololá	704	Santa Lucía Utatlán 	7	Santa Rita 	8	Agosto	2023-08-31T00:00:00	2024-11-08T16:00:00	2	Temperatura media	17.9
114602	7	Sololá	704	Santa Lucía Utatlán 	7	Santa Rita 	8	Agosto	2023-08-31T00:00:00	2024-11-08T16:00:00	4	Temperatura máxima	18.4
114603	7	Sololá	704	Santa Lucía Utatlán 	7	Santa Rita 	8	Agosto	2023-08-31T00:00:00	2024-11-08T16:00:00	3	Temperatura mínima	17.9
114604	7	Sololá	704	Santa Lucía Utatlán 	7	Santa Rita 	8	Agosto	2023-08-31T00:00:00	2024-11-08T16:00:00	5	Humedad	92
114605	7	Sololá	704	Santa Lucía Utatlán 	7	Santa Rita 	8	Agosto	2023-08-31T00:00:00	2024-11-08T16:00:00	6	Velocidad del viento	3.2
114606	7	Sololá	704	Santa Lucía Utatlán 	7	Santa Rita 	8	Agosto	2023-08-31T00:00:00	2024-11-08T16:00:00	7	Dirección del viento	3.22
114607	7	Sololá	704	Santa Lucía Utatlán 	7	Santa Rita 	8	Agosto	2023-08-31T00:00:00	2024-11-08T16:00:00	1	Precipitación	0.4
114608	7	Sololá	704	Santa Lucía Utatlán 	7	Santa Rita 	8	Agosto	2023-08-31T00:00:00	2024-11-08T16:00:00	8	Radiación solar	39
114609	7	Sololá	704	Santa Lucía Utatlán 	7	Santa Rita 	8	Agosto	2023-08-31T00:00:00	2024-11-08T17:00:00	2	Temperatura media	17.6
114610	7	Sololá	704	Santa Lucía Utatlán 	7	Santa Rita 	8	Agosto	2023-08-31T00:00:00	2024-11-08T17:00:00	4	Temperatura máxima	17.9
114611	7	Sololá	704	Santa Lucía Utatlán 	7	Santa Rita 	8	Agosto	2023-08-31T00:00:00	2024-11-08T17:00:00	3	Temperatura mínima	17.5
114612	7	Sololá	704	Santa Lucía Utatlán 	7	Santa Rita 	8	Agosto	2023-08-31T00:00:00	2024-11-08T17:00:00	5	Humedad	94
114613	7	Sololá	704	Santa Lucía Utatlán 	7	Santa Rita 	8	Agosto	2023-08-31T00:00:00	2024-11-08T17:00:00	6	Velocidad del viento	3.2
114614	7	Sololá	704	Santa Lucía Utatlán 	7	Santa Rita 	8	Agosto	2023-08-31T00:00:00	2024-11-08T17:00:00	7	Dirección del viento	3.22
114615	7	Sololá	704	Santa Lucía Utatlán 	7	Santa Rita 	8	Agosto	2023-08-31T00:00:00	2024-11-08T17:00:00	1	Precipitación	0
114616	7	Sololá	704	Santa Lucía Utatlán 	7	Santa Rita 	8	Agosto	2023-08-31T00:00:00	2024-11-08T17:00:00	8	Radiación solar	31
114617	7	Sololá	704	Santa Lucía Utatlán 	7	Santa Rita 	8	Agosto	2023-08-31T00:00:00	2024-11-08T18:00:00	2	Temperatura media	17.8
114618	7	Sololá	704	Santa Lucía Utatlán 	7	Santa Rita 	8	Agosto	2023-08-31T00:00:00	2024-11-08T18:00:00	4	Temperatura máxima	17.8
114619	7	Sololá	704	Santa Lucía Utatlán 	7	Santa Rita 	8	Agosto	2023-08-31T00:00:00	2024-11-08T18:00:00	3	Temperatura mínima	17.4
114620	7	Sololá	704	Santa Lucía Utatlán 	7	Santa Rita 	8	Agosto	2023-08-31T00:00:00	2024-11-08T18:00:00	5	Humedad	94
114621	7	Sololá	704	Santa Lucía Utatlán 	7	Santa Rita 	8	Agosto	2023-08-31T00:00:00	2024-11-08T18:00:00	6	Velocidad del viento	3.2
114622	7	Sololá	704	Santa Lucía Utatlán 	7	Santa Rita 	8	Agosto	2023-08-31T00:00:00	2024-11-08T18:00:00	7	Dirección del viento	3.22
114623	7	Sololá	704	Santa Lucía Utatlán 	7	Santa Rita 	8	Agosto	2023-08-31T00:00:00	2024-11-08T18:00:00	1	Precipitación	0
114624	7	Sololá	704	Santa Lucía Utatlán 	7	Santa Rita 	8	Agosto	2023-08-31T00:00:00	2024-11-08T18:00:00	8	Radiación solar	1
114625	7	Sololá	704	Santa Lucía Utatlán 	7	Santa Rita 	8	Agosto	2023-08-31T00:00:00	2024-11-08T19:00:00	2	Temperatura media	18.9
114626	7	Sololá	704	Santa Lucía Utatlán 	7	Santa Rita 	8	Agosto	2023-08-31T00:00:00	2024-11-08T19:00:00	4	Temperatura máxima	19
114627	7	Sololá	704	Santa Lucía Utatlán 	7	Santa Rita 	8	Agosto	2023-08-31T00:00:00	2024-11-08T19:00:00	3	Temperatura mínima	17.7
114628	7	Sololá	704	Santa Lucía Utatlán 	7	Santa Rita 	8	Agosto	2023-08-31T00:00:00	2024-11-08T19:00:00	5	Humedad	87
114629	7	Sololá	704	Santa Lucía Utatlán 	7	Santa Rita 	8	Agosto	2023-08-31T00:00:00	2024-11-08T19:00:00	6	Velocidad del viento	3.2
114630	7	Sololá	704	Santa Lucía Utatlán 	7	Santa Rita 	8	Agosto	2023-08-31T00:00:00	2024-11-08T19:00:00	7	Dirección del viento	3.22
114631	7	Sololá	704	Santa Lucía Utatlán 	7	Santa Rita 	8	Agosto	2023-08-31T00:00:00	2024-11-08T19:00:00	1	Precipitación	0
114632	7	Sololá	704	Santa Lucía Utatlán 	7	Santa Rita 	8	Agosto	2023-08-31T00:00:00	2024-11-08T19:00:00	8	Radiación solar	0
114633	7	Sololá	704	Santa Lucía Utatlán 	7	Santa Rita 	8	Agosto	2023-08-31T00:00:00	2024-11-08T20:00:00	2	Temperatura media	20
114634	7	Sololá	704	Santa Lucía Utatlán 	7	Santa Rita 	8	Agosto	2023-08-31T00:00:00	2024-11-08T20:00:00	4	Temperatura máxima	20.3
114635	7	Sololá	704	Santa Lucía Utatlán 	7	Santa Rita 	8	Agosto	2023-08-31T00:00:00	2024-11-08T20:00:00	3	Temperatura mínima	18.3
114636	7	Sololá	704	Santa Lucía Utatlán 	7	Santa Rita 	8	Agosto	2023-08-31T00:00:00	2024-11-08T20:00:00	5	Humedad	74
114637	7	Sololá	704	Santa Lucía Utatlán 	7	Santa Rita 	8	Agosto	2023-08-31T00:00:00	2024-11-08T20:00:00	6	Velocidad del viento	6.4
114638	7	Sololá	704	Santa Lucía Utatlán 	7	Santa Rita 	8	Agosto	2023-08-31T00:00:00	2024-11-08T20:00:00	7	Dirección del viento	6.44
114639	7	Sololá	704	Santa Lucía Utatlán 	7	Santa Rita 	8	Agosto	2023-08-31T00:00:00	2024-11-08T20:00:00	1	Precipitación	0.2
114640	7	Sololá	704	Santa Lucía Utatlán 	7	Santa Rita 	8	Agosto	2023-08-31T00:00:00	2024-11-08T20:00:00	8	Radiación solar	0
114641	7	Sololá	704	Santa Lucía Utatlán 	7	Santa Rita 	8	Agosto	2023-08-31T00:00:00	2024-11-08T21:00:00	2	Temperatura media	18.1
114642	7	Sololá	704	Santa Lucía Utatlán 	7	Santa Rita 	8	Agosto	2023-08-31T00:00:00	2024-11-08T21:00:00	4	Temperatura máxima	20.3
114643	7	Sololá	704	Santa Lucía Utatlán 	7	Santa Rita 	8	Agosto	2023-08-31T00:00:00	2024-11-08T21:00:00	3	Temperatura mínima	18
114644	7	Sololá	704	Santa Lucía Utatlán 	7	Santa Rita 	8	Agosto	2023-08-31T00:00:00	2024-11-08T21:00:00	5	Humedad	90
114645	7	Sololá	704	Santa Lucía Utatlán 	7	Santa Rita 	8	Agosto	2023-08-31T00:00:00	2024-11-08T21:00:00	6	Velocidad del viento	3.2
114646	7	Sololá	704	Santa Lucía Utatlán 	7	Santa Rita 	8	Agosto	2023-08-31T00:00:00	2024-11-08T21:00:00	7	Dirección del viento	3.22
114647	7	Sololá	704	Santa Lucía Utatlán 	7	Santa Rita 	8	Agosto	2023-08-31T00:00:00	2024-11-08T21:00:00	1	Precipitación	0
114648	7	Sololá	704	Santa Lucía Utatlán 	7	Santa Rita 	8	Agosto	2023-08-31T00:00:00	2024-11-08T21:00:00	8	Radiación solar	0
114649	7	Sololá	704	Santa Lucía Utatlán 	7	Santa Rita 	8	Agosto	2023-08-31T00:00:00	2024-11-08T22:00:00	2	Temperatura media	18.4
114650	7	Sololá	704	Santa Lucía Utatlán 	7	Santa Rita 	8	Agosto	2023-08-31T00:00:00	2024-11-08T22:00:00	4	Temperatura máxima	18.4
114651	7	Sololá	704	Santa Lucía Utatlán 	7	Santa Rita 	8	Agosto	2023-08-31T00:00:00	2024-11-08T22:00:00	3	Temperatura mínima	17.9
114652	7	Sololá	704	Santa Lucía Utatlán 	7	Santa Rita 	8	Agosto	2023-08-31T00:00:00	2024-11-08T22:00:00	5	Humedad	81
114653	7	Sololá	704	Santa Lucía Utatlán 	7	Santa Rita 	8	Agosto	2023-08-31T00:00:00	2024-11-08T22:00:00	6	Velocidad del viento	3.2
114654	7	Sololá	704	Santa Lucía Utatlán 	7	Santa Rita 	8	Agosto	2023-08-31T00:00:00	2024-11-08T22:00:00	7	Dirección del viento	3.22
114655	7	Sololá	704	Santa Lucía Utatlán 	7	Santa Rita 	8	Agosto	2023-08-31T00:00:00	2024-11-08T22:00:00	1	Precipitación	0
114656	7	Sololá	704	Santa Lucía Utatlán 	7	Santa Rita 	8	Agosto	2023-08-31T00:00:00	2024-11-08T22:00:00	8	Radiación solar	0
114657	7	Sololá	704	Santa Lucía Utatlán 	7	Santa Rita 	8	Agosto	2023-08-31T00:00:00	2024-11-08T23:00:00	2	Temperatura media	18.2
114658	7	Sololá	704	Santa Lucía Utatlán 	7	Santa Rita 	8	Agosto	2023-08-31T00:00:00	2024-11-08T23:00:00	4	Temperatura máxima	18.5
114659	7	Sololá	704	Santa Lucía Utatlán 	7	Santa Rita 	8	Agosto	2023-08-31T00:00:00	2024-11-08T23:00:00	3	Temperatura mínima	18
114660	7	Sololá	704	Santa Lucía Utatlán 	7	Santa Rita 	8	Agosto	2023-08-31T00:00:00	2024-11-08T23:00:00	5	Humedad	87
114661	7	Sololá	704	Santa Lucía Utatlán 	7	Santa Rita 	8	Agosto	2023-08-31T00:00:00	2024-11-08T23:00:00	6	Velocidad del viento	4.8
114662	7	Sololá	704	Santa Lucía Utatlán 	7	Santa Rita 	8	Agosto	2023-08-31T00:00:00	2024-11-08T23:00:00	7	Dirección del viento	4.83
114663	7	Sololá	704	Santa Lucía Utatlán 	7	Santa Rita 	8	Agosto	2023-08-31T00:00:00	2024-11-08T23:00:00	1	Precipitación	0
114664	7	Sololá	704	Santa Lucía Utatlán 	7	Santa Rita 	8	Agosto	2023-08-31T00:00:00	2024-11-08T23:00:00	8	Radiación solar	0
114665	7	Sololá	704	Santa Lucía Utatlán 	7	Santa Rita 	9	Septiembre	2023-01-09T00:00:00	2024-11-08T00:00:00	2	Temperatura media	17.7
114666	7	Sololá	704	Santa Lucía Utatlán 	7	Santa Rita 	9	Septiembre	2023-01-09T00:00:00	2024-11-08T00:00:00	4	Temperatura máxima	18.1
114667	7	Sololá	704	Santa Lucía Utatlán 	7	Santa Rita 	9	Septiembre	2023-01-09T00:00:00	2024-11-08T00:00:00	3	Temperatura mínima	17.6
114668	7	Sololá	704	Santa Lucía Utatlán 	7	Santa Rita 	9	Septiembre	2023-01-09T00:00:00	2024-11-08T00:00:00	5	Humedad	83
114669	7	Sololá	704	Santa Lucía Utatlán 	7	Santa Rita 	9	Septiembre	2023-01-09T00:00:00	2024-11-08T00:00:00	6	Velocidad del viento	4.8
114670	7	Sololá	704	Santa Lucía Utatlán 	7	Santa Rita 	9	Septiembre	2023-01-09T00:00:00	2024-11-08T00:00:00	7	Dirección del viento	4.83
114671	7	Sololá	704	Santa Lucía Utatlán 	7	Santa Rita 	9	Septiembre	2023-01-09T00:00:00	2024-11-08T00:00:00	1	Precipitación	0
114672	7	Sololá	704	Santa Lucía Utatlán 	7	Santa Rita 	9	Septiembre	2023-01-09T00:00:00	2024-11-08T00:00:00	8	Radiación solar	0
114673	7	Sololá	704	Santa Lucía Utatlán 	7	Santa Rita 	9	Septiembre	2023-01-09T00:00:00	2024-11-08T01:00:00	2	Temperatura media	19.9
114674	7	Sololá	704	Santa Lucía Utatlán 	7	Santa Rita 	9	Septiembre	2023-01-09T00:00:00	2024-11-08T01:00:00	4	Temperatura máxima	19.9
114675	7	Sololá	704	Santa Lucía Utatlán 	7	Santa Rita 	9	Septiembre	2023-01-09T00:00:00	2024-11-08T01:00:00	3	Temperatura mínima	17.6
114676	7	Sololá	704	Santa Lucía Utatlán 	7	Santa Rita 	9	Septiembre	2023-01-09T00:00:00	2024-11-08T01:00:00	5	Humedad	71
114677	7	Sololá	704	Santa Lucía Utatlán 	7	Santa Rita 	9	Septiembre	2023-01-09T00:00:00	2024-11-08T01:00:00	6	Velocidad del viento	6.4
114678	7	Sololá	704	Santa Lucía Utatlán 	7	Santa Rita 	9	Septiembre	2023-01-09T00:00:00	2024-11-08T01:00:00	7	Dirección del viento	6.44
114679	7	Sololá	704	Santa Lucía Utatlán 	7	Santa Rita 	9	Septiembre	2023-01-09T00:00:00	2024-11-08T01:00:00	1	Precipitación	0
114680	7	Sololá	704	Santa Lucía Utatlán 	7	Santa Rita 	9	Septiembre	2023-01-09T00:00:00	2024-11-08T01:00:00	8	Radiación solar	0
114681	7	Sololá	704	Santa Lucía Utatlán 	7	Santa Rita 	9	Septiembre	2023-01-09T00:00:00	2024-11-08T02:00:00	2	Temperatura media	22.1
114682	7	Sololá	704	Santa Lucía Utatlán 	7	Santa Rita 	9	Septiembre	2023-01-09T00:00:00	2024-11-08T02:00:00	4	Temperatura máxima	22.1
114683	7	Sololá	704	Santa Lucía Utatlán 	7	Santa Rita 	9	Septiembre	2023-01-09T00:00:00	2024-11-08T02:00:00	3	Temperatura mínima	20
114684	7	Sololá	704	Santa Lucía Utatlán 	7	Santa Rita 	9	Septiembre	2023-01-09T00:00:00	2024-11-08T02:00:00	5	Humedad	67
114685	7	Sololá	704	Santa Lucía Utatlán 	7	Santa Rita 	9	Septiembre	2023-01-09T00:00:00	2024-11-08T02:00:00	6	Velocidad del viento	6.4
114686	7	Sololá	704	Santa Lucía Utatlán 	7	Santa Rita 	9	Septiembre	2023-01-09T00:00:00	2024-11-08T02:00:00	7	Dirección del viento	6.44
114687	7	Sololá	704	Santa Lucía Utatlán 	7	Santa Rita 	9	Septiembre	2023-01-09T00:00:00	2024-11-08T02:00:00	1	Precipitación	0
114688	7	Sololá	704	Santa Lucía Utatlán 	7	Santa Rita 	9	Septiembre	2023-01-09T00:00:00	2024-11-08T02:00:00	8	Radiación solar	0
114689	7	Sololá	704	Santa Lucía Utatlán 	7	Santa Rita 	9	Septiembre	2023-01-09T00:00:00	2024-11-08T03:00:00	2	Temperatura media	24.1
114690	7	Sololá	704	Santa Lucía Utatlán 	7	Santa Rita 	9	Septiembre	2023-01-09T00:00:00	2024-11-08T03:00:00	4	Temperatura máxima	24.2
114691	7	Sololá	704	Santa Lucía Utatlán 	7	Santa Rita 	9	Septiembre	2023-01-09T00:00:00	2024-11-08T03:00:00	3	Temperatura mínima	22.1
114692	7	Sololá	704	Santa Lucía Utatlán 	7	Santa Rita 	9	Septiembre	2023-01-09T00:00:00	2024-11-08T03:00:00	5	Humedad	56
114693	7	Sololá	704	Santa Lucía Utatlán 	7	Santa Rita 	9	Septiembre	2023-01-09T00:00:00	2024-11-08T03:00:00	6	Velocidad del viento	6.4
114694	7	Sololá	704	Santa Lucía Utatlán 	7	Santa Rita 	9	Septiembre	2023-01-09T00:00:00	2024-11-08T03:00:00	7	Dirección del viento	6.44
114695	7	Sololá	704	Santa Lucía Utatlán 	7	Santa Rita 	9	Septiembre	2023-01-09T00:00:00	2024-11-08T03:00:00	1	Precipitación	0
114696	7	Sololá	704	Santa Lucía Utatlán 	7	Santa Rita 	9	Septiembre	2023-01-09T00:00:00	2024-11-08T03:00:00	8	Radiación solar	0
114697	7	Sololá	704	Santa Lucía Utatlán 	7	Santa Rita 	9	Septiembre	2023-01-09T00:00:00	2024-11-08T04:00:00	2	Temperatura media	24.8
114698	7	Sololá	704	Santa Lucía Utatlán 	7	Santa Rita 	9	Septiembre	2023-01-09T00:00:00	2024-11-08T04:00:00	4	Temperatura máxima	25.3
114699	7	Sololá	704	Santa Lucía Utatlán 	7	Santa Rita 	9	Septiembre	2023-01-09T00:00:00	2024-11-08T04:00:00	3	Temperatura mínima	24.1
114700	7	Sololá	704	Santa Lucía Utatlán 	7	Santa Rita 	9	Septiembre	2023-01-09T00:00:00	2024-11-08T04:00:00	5	Humedad	56
114701	7	Sololá	704	Santa Lucía Utatlán 	7	Santa Rita 	9	Septiembre	2023-01-09T00:00:00	2024-11-08T04:00:00	6	Velocidad del viento	8
114702	7	Sololá	704	Santa Lucía Utatlán 	7	Santa Rita 	9	Septiembre	2023-01-09T00:00:00	2024-11-08T04:00:00	7	Dirección del viento	8.05
114703	7	Sololá	704	Santa Lucía Utatlán 	7	Santa Rita 	9	Septiembre	2023-01-09T00:00:00	2024-11-08T04:00:00	1	Precipitación	0
114704	7	Sololá	704	Santa Lucía Utatlán 	7	Santa Rita 	9	Septiembre	2023-01-09T00:00:00	2024-11-08T04:00:00	8	Radiación solar	0
114705	7	Sololá	704	Santa Lucía Utatlán 	7	Santa Rita 	9	Septiembre	2023-01-09T00:00:00	2024-11-08T05:00:00	2	Temperatura media	26.7
114706	7	Sololá	704	Santa Lucía Utatlán 	7	Santa Rita 	9	Septiembre	2023-01-09T00:00:00	2024-11-08T05:00:00	4	Temperatura máxima	26.8
114707	7	Sololá	704	Santa Lucía Utatlán 	7	Santa Rita 	9	Septiembre	2023-01-09T00:00:00	2024-11-08T05:00:00	3	Temperatura mínima	24.7
114708	7	Sololá	704	Santa Lucía Utatlán 	7	Santa Rita 	9	Septiembre	2023-01-09T00:00:00	2024-11-08T05:00:00	5	Humedad	55
114709	7	Sololá	704	Santa Lucía Utatlán 	7	Santa Rita 	9	Septiembre	2023-01-09T00:00:00	2024-11-08T05:00:00	6	Velocidad del viento	6.4
114710	7	Sololá	704	Santa Lucía Utatlán 	7	Santa Rita 	9	Septiembre	2023-01-09T00:00:00	2024-11-08T05:00:00	7	Dirección del viento	6.44
114711	7	Sololá	704	Santa Lucía Utatlán 	7	Santa Rita 	9	Septiembre	2023-01-09T00:00:00	2024-11-08T05:00:00	1	Precipitación	0
114712	7	Sololá	704	Santa Lucía Utatlán 	7	Santa Rita 	9	Septiembre	2023-01-09T00:00:00	2024-11-08T05:00:00	8	Radiación solar	0
114713	7	Sololá	704	Santa Lucía Utatlán 	7	Santa Rita 	9	Septiembre	2023-01-09T00:00:00	2024-11-08T06:00:00	2	Temperatura media	27.7
114714	7	Sololá	704	Santa Lucía Utatlán 	7	Santa Rita 	9	Septiembre	2023-01-09T00:00:00	2024-11-08T06:00:00	4	Temperatura máxima	27.7
114715	7	Sololá	704	Santa Lucía Utatlán 	7	Santa Rita 	9	Septiembre	2023-01-09T00:00:00	2024-11-08T06:00:00	3	Temperatura mínima	26.6
114716	7	Sololá	704	Santa Lucía Utatlán 	7	Santa Rita 	9	Septiembre	2023-01-09T00:00:00	2024-11-08T06:00:00	5	Humedad	53
114717	7	Sololá	704	Santa Lucía Utatlán 	7	Santa Rita 	9	Septiembre	2023-01-09T00:00:00	2024-11-08T06:00:00	6	Velocidad del viento	6.4
114718	7	Sololá	704	Santa Lucía Utatlán 	7	Santa Rita 	9	Septiembre	2023-01-09T00:00:00	2024-11-08T06:00:00	7	Dirección del viento	6.44
114719	7	Sololá	704	Santa Lucía Utatlán 	7	Santa Rita 	9	Septiembre	2023-01-09T00:00:00	2024-11-08T06:00:00	1	Precipitación	0
114720	7	Sololá	704	Santa Lucía Utatlán 	7	Santa Rita 	9	Septiembre	2023-01-09T00:00:00	2024-11-08T06:00:00	8	Radiación solar	3
114721	7	Sololá	704	Santa Lucía Utatlán 	7	Santa Rita 	9	Septiembre	2023-01-09T00:00:00	2024-11-08T07:00:00	2	Temperatura media	26.7
114722	7	Sololá	704	Santa Lucía Utatlán 	7	Santa Rita 	9	Septiembre	2023-01-09T00:00:00	2024-11-08T07:00:00	4	Temperatura máxima	27.7
114723	7	Sololá	704	Santa Lucía Utatlán 	7	Santa Rita 	9	Septiembre	2023-01-09T00:00:00	2024-11-08T07:00:00	3	Temperatura mínima	26.7
114724	7	Sololá	704	Santa Lucía Utatlán 	7	Santa Rita 	9	Septiembre	2023-01-09T00:00:00	2024-11-08T07:00:00	5	Humedad	56
114725	7	Sololá	704	Santa Lucía Utatlán 	7	Santa Rita 	9	Septiembre	2023-01-09T00:00:00	2024-11-08T07:00:00	6	Velocidad del viento	9.7
114726	7	Sololá	704	Santa Lucía Utatlán 	7	Santa Rita 	9	Septiembre	2023-01-09T00:00:00	2024-11-08T07:00:00	7	Dirección del viento	9.66
114727	7	Sololá	704	Santa Lucía Utatlán 	7	Santa Rita 	9	Septiembre	2023-01-09T00:00:00	2024-11-08T07:00:00	1	Precipitación	0
114728	7	Sololá	704	Santa Lucía Utatlán 	7	Santa Rita 	9	Septiembre	2023-01-09T00:00:00	2024-11-08T07:00:00	8	Radiación solar	89
114729	7	Sololá	704	Santa Lucía Utatlán 	7	Santa Rita 	9	Septiembre	2023-01-09T00:00:00	2024-11-08T08:00:00	2	Temperatura media	25.8
114730	7	Sololá	704	Santa Lucía Utatlán 	7	Santa Rita 	9	Septiembre	2023-01-09T00:00:00	2024-11-08T08:00:00	4	Temperatura máxima	26.8
114731	7	Sololá	704	Santa Lucía Utatlán 	7	Santa Rita 	9	Septiembre	2023-01-09T00:00:00	2024-11-08T08:00:00	3	Temperatura mínima	25.8
114732	7	Sololá	704	Santa Lucía Utatlán 	7	Santa Rita 	9	Septiembre	2023-01-09T00:00:00	2024-11-08T08:00:00	5	Humedad	59
114733	7	Sololá	704	Santa Lucía Utatlán 	7	Santa Rita 	9	Septiembre	2023-01-09T00:00:00	2024-11-08T08:00:00	6	Velocidad del viento	12.9
114734	7	Sololá	704	Santa Lucía Utatlán 	7	Santa Rita 	9	Septiembre	2023-01-09T00:00:00	2024-11-08T08:00:00	7	Dirección del viento	12.87
114735	7	Sololá	704	Santa Lucía Utatlán 	7	Santa Rita 	9	Septiembre	2023-01-09T00:00:00	2024-11-08T08:00:00	1	Precipitación	0
114736	7	Sololá	704	Santa Lucía Utatlán 	7	Santa Rita 	9	Septiembre	2023-01-09T00:00:00	2024-11-08T08:00:00	8	Radiación solar	360
114737	7	Sololá	704	Santa Lucía Utatlán 	7	Santa Rita 	9	Septiembre	2023-01-09T00:00:00	2024-11-08T09:00:00	2	Temperatura media	26.4
114738	7	Sololá	704	Santa Lucía Utatlán 	7	Santa Rita 	9	Septiembre	2023-01-09T00:00:00	2024-11-08T09:00:00	4	Temperatura máxima	26.8
114739	7	Sololá	704	Santa Lucía Utatlán 	7	Santa Rita 	9	Septiembre	2023-01-09T00:00:00	2024-11-08T09:00:00	3	Temperatura mínima	25.8
114740	7	Sololá	704	Santa Lucía Utatlán 	7	Santa Rita 	9	Septiembre	2023-01-09T00:00:00	2024-11-08T09:00:00	5	Humedad	58
114741	7	Sololá	704	Santa Lucía Utatlán 	7	Santa Rita 	9	Septiembre	2023-01-09T00:00:00	2024-11-08T09:00:00	6	Velocidad del viento	9.7
114742	7	Sololá	704	Santa Lucía Utatlán 	7	Santa Rita 	9	Septiembre	2023-01-09T00:00:00	2024-11-08T09:00:00	7	Dirección del viento	9.66
114743	7	Sololá	704	Santa Lucía Utatlán 	7	Santa Rita 	9	Septiembre	2023-01-09T00:00:00	2024-11-08T09:00:00	1	Precipitación	0
114744	7	Sololá	704	Santa Lucía Utatlán 	7	Santa Rita 	9	Septiembre	2023-01-09T00:00:00	2024-11-08T09:00:00	8	Radiación solar	633
114745	7	Sololá	704	Santa Lucía Utatlán 	7	Santa Rita 	9	Septiembre	2023-01-09T00:00:00	2024-11-08T10:00:00	2	Temperatura media	25.9
114746	7	Sololá	704	Santa Lucía Utatlán 	7	Santa Rita 	9	Septiembre	2023-01-09T00:00:00	2024-11-08T10:00:00	4	Temperatura máxima	27.3
114747	7	Sololá	704	Santa Lucía Utatlán 	7	Santa Rita 	9	Septiembre	2023-01-09T00:00:00	2024-11-08T10:00:00	3	Temperatura mínima	25.9
114748	7	Sololá	704	Santa Lucía Utatlán 	7	Santa Rita 	9	Septiembre	2023-01-09T00:00:00	2024-11-08T10:00:00	5	Humedad	58
114749	7	Sololá	704	Santa Lucía Utatlán 	7	Santa Rita 	9	Septiembre	2023-01-09T00:00:00	2024-11-08T10:00:00	6	Velocidad del viento	11.3
114750	7	Sololá	704	Santa Lucía Utatlán 	7	Santa Rita 	9	Septiembre	2023-01-09T00:00:00	2024-11-08T10:00:00	7	Dirección del viento	11.27
114751	7	Sololá	704	Santa Lucía Utatlán 	7	Santa Rita 	9	Septiembre	2023-01-09T00:00:00	2024-11-08T10:00:00	1	Precipitación	0
114752	7	Sololá	704	Santa Lucía Utatlán 	7	Santa Rita 	9	Septiembre	2023-01-09T00:00:00	2024-11-08T10:00:00	8	Radiación solar	822
114753	7	Sololá	704	Santa Lucía Utatlán 	7	Santa Rita 	9	Septiembre	2023-01-09T00:00:00	2024-11-08T11:00:00	2	Temperatura media	25.1
114754	7	Sololá	704	Santa Lucía Utatlán 	7	Santa Rita 	9	Septiembre	2023-01-09T00:00:00	2024-11-08T11:00:00	4	Temperatura máxima	26.6
114755	7	Sololá	704	Santa Lucía Utatlán 	7	Santa Rita 	9	Septiembre	2023-01-09T00:00:00	2024-11-08T11:00:00	3	Temperatura mínima	25.1
114756	7	Sololá	704	Santa Lucía Utatlán 	7	Santa Rita 	9	Septiembre	2023-01-09T00:00:00	2024-11-08T11:00:00	5	Humedad	62
114757	7	Sololá	704	Santa Lucía Utatlán 	7	Santa Rita 	9	Septiembre	2023-01-09T00:00:00	2024-11-08T11:00:00	6	Velocidad del viento	8
114758	7	Sololá	704	Santa Lucía Utatlán 	7	Santa Rita 	9	Septiembre	2023-01-09T00:00:00	2024-11-08T11:00:00	7	Dirección del viento	8.05
114759	7	Sololá	704	Santa Lucía Utatlán 	7	Santa Rita 	9	Septiembre	2023-01-09T00:00:00	2024-11-08T11:00:00	1	Precipitación	0
114760	7	Sololá	704	Santa Lucía Utatlán 	7	Santa Rita 	9	Septiembre	2023-01-09T00:00:00	2024-11-08T11:00:00	8	Radiación solar	952
114761	7	Sololá	704	Santa Lucía Utatlán 	7	Santa Rita 	9	Septiembre	2023-01-09T00:00:00	2024-11-08T12:00:00	2	Temperatura media	24.7
114762	7	Sololá	704	Santa Lucía Utatlán 	7	Santa Rita 	9	Septiembre	2023-01-09T00:00:00	2024-11-08T12:00:00	4	Temperatura máxima	26.1
114763	7	Sololá	704	Santa Lucía Utatlán 	7	Santa Rita 	9	Septiembre	2023-01-09T00:00:00	2024-11-08T12:00:00	3	Temperatura mínima	24.7
114764	7	Sololá	704	Santa Lucía Utatlán 	7	Santa Rita 	9	Septiembre	2023-01-09T00:00:00	2024-11-08T12:00:00	5	Humedad	63
114765	7	Sololá	704	Santa Lucía Utatlán 	7	Santa Rita 	9	Septiembre	2023-01-09T00:00:00	2024-11-08T12:00:00	6	Velocidad del viento	6.4
114766	7	Sololá	704	Santa Lucía Utatlán 	7	Santa Rita 	9	Septiembre	2023-01-09T00:00:00	2024-11-08T12:00:00	7	Dirección del viento	6.44
114767	7	Sololá	704	Santa Lucía Utatlán 	7	Santa Rita 	9	Septiembre	2023-01-09T00:00:00	2024-11-08T12:00:00	1	Precipitación	0
114768	7	Sololá	704	Santa Lucía Utatlán 	7	Santa Rita 	9	Septiembre	2023-01-09T00:00:00	2024-11-08T12:00:00	8	Radiación solar	1017
114769	7	Sololá	704	Santa Lucía Utatlán 	7	Santa Rita 	9	Septiembre	2023-01-09T00:00:00	2024-11-08T13:00:00	2	Temperatura media	21.6
114770	7	Sololá	704	Santa Lucía Utatlán 	7	Santa Rita 	9	Septiembre	2023-01-09T00:00:00	2024-11-08T13:00:00	4	Temperatura máxima	24.7
114771	7	Sololá	704	Santa Lucía Utatlán 	7	Santa Rita 	9	Septiembre	2023-01-09T00:00:00	2024-11-08T13:00:00	3	Temperatura mínima	21.6
114772	7	Sololá	704	Santa Lucía Utatlán 	7	Santa Rita 	9	Septiembre	2023-01-09T00:00:00	2024-11-08T13:00:00	5	Humedad	78
114773	7	Sololá	704	Santa Lucía Utatlán 	7	Santa Rita 	9	Septiembre	2023-01-09T00:00:00	2024-11-08T13:00:00	6	Velocidad del viento	4.8
114774	7	Sololá	704	Santa Lucía Utatlán 	7	Santa Rita 	9	Septiembre	2023-01-09T00:00:00	2024-11-08T13:00:00	7	Dirección del viento	4.83
114775	7	Sololá	704	Santa Lucía Utatlán 	7	Santa Rita 	9	Septiembre	2023-01-09T00:00:00	2024-11-08T13:00:00	1	Precipitación	0
114776	7	Sololá	704	Santa Lucía Utatlán 	7	Santa Rita 	9	Septiembre	2023-01-09T00:00:00	2024-11-08T13:00:00	8	Radiación solar	777
114777	7	Sololá	704	Santa Lucía Utatlán 	7	Santa Rita 	9	Septiembre	2023-01-09T00:00:00	2024-11-08T14:00:00	2	Temperatura media	19.3
114778	7	Sololá	704	Santa Lucía Utatlán 	7	Santa Rita 	9	Septiembre	2023-01-09T00:00:00	2024-11-08T14:00:00	4	Temperatura máxima	22.3
114779	7	Sololá	704	Santa Lucía Utatlán 	7	Santa Rita 	9	Septiembre	2023-01-09T00:00:00	2024-11-08T14:00:00	3	Temperatura mínima	19.3
114780	7	Sololá	704	Santa Lucía Utatlán 	7	Santa Rita 	9	Septiembre	2023-01-09T00:00:00	2024-11-08T14:00:00	5	Humedad	81
114781	7	Sololá	704	Santa Lucía Utatlán 	7	Santa Rita 	9	Septiembre	2023-01-09T00:00:00	2024-11-08T14:00:00	6	Velocidad del viento	6.4
114782	7	Sololá	704	Santa Lucía Utatlán 	7	Santa Rita 	9	Septiembre	2023-01-09T00:00:00	2024-11-08T14:00:00	7	Dirección del viento	6.44
114783	7	Sololá	704	Santa Lucía Utatlán 	7	Santa Rita 	9	Septiembre	2023-01-09T00:00:00	2024-11-08T14:00:00	1	Precipitación	5.4
114784	7	Sololá	704	Santa Lucía Utatlán 	7	Santa Rita 	9	Septiembre	2023-01-09T00:00:00	2024-11-08T14:00:00	8	Radiación solar	573
114785	7	Sololá	704	Santa Lucía Utatlán 	7	Santa Rita 	9	Septiembre	2023-01-09T00:00:00	2024-11-08T15:00:00	2	Temperatura media	18.7
114786	7	Sololá	704	Santa Lucía Utatlán 	7	Santa Rita 	9	Septiembre	2023-01-09T00:00:00	2024-11-08T15:00:00	4	Temperatura máxima	19.3
114787	7	Sololá	704	Santa Lucía Utatlán 	7	Santa Rita 	9	Septiembre	2023-01-09T00:00:00	2024-11-08T15:00:00	3	Temperatura mínima	17.7
114788	7	Sololá	704	Santa Lucía Utatlán 	7	Santa Rita 	9	Septiembre	2023-01-09T00:00:00	2024-11-08T15:00:00	5	Humedad	94
114789	7	Sololá	704	Santa Lucía Utatlán 	7	Santa Rita 	9	Septiembre	2023-01-09T00:00:00	2024-11-08T15:00:00	6	Velocidad del viento	4.8
114790	7	Sololá	704	Santa Lucía Utatlán 	7	Santa Rita 	9	Septiembre	2023-01-09T00:00:00	2024-11-08T15:00:00	7	Dirección del viento	4.83
114791	7	Sololá	704	Santa Lucía Utatlán 	7	Santa Rita 	9	Septiembre	2023-01-09T00:00:00	2024-11-08T15:00:00	1	Precipitación	10.8
114792	7	Sololá	704	Santa Lucía Utatlán 	7	Santa Rita 	9	Septiembre	2023-01-09T00:00:00	2024-11-08T15:00:00	8	Radiación solar	644
114793	7	Sololá	704	Santa Lucía Utatlán 	7	Santa Rita 	9	Septiembre	2023-01-09T00:00:00	2024-11-08T16:00:00	2	Temperatura media	18.7
114794	7	Sololá	704	Santa Lucía Utatlán 	7	Santa Rita 	9	Septiembre	2023-01-09T00:00:00	2024-11-08T16:00:00	4	Temperatura máxima	18.8
114795	7	Sololá	704	Santa Lucía Utatlán 	7	Santa Rita 	9	Septiembre	2023-01-09T00:00:00	2024-11-08T16:00:00	3	Temperatura mínima	18.7
114796	7	Sololá	704	Santa Lucía Utatlán 	7	Santa Rita 	9	Septiembre	2023-01-09T00:00:00	2024-11-08T16:00:00	5	Humedad	94
114797	7	Sololá	704	Santa Lucía Utatlán 	7	Santa Rita 	9	Septiembre	2023-01-09T00:00:00	2024-11-08T16:00:00	6	Velocidad del viento	3.2
114798	7	Sololá	704	Santa Lucía Utatlán 	7	Santa Rita 	9	Septiembre	2023-01-09T00:00:00	2024-11-08T16:00:00	7	Dirección del viento	3.22
114799	7	Sololá	704	Santa Lucía Utatlán 	7	Santa Rita 	9	Septiembre	2023-01-09T00:00:00	2024-11-08T16:00:00	1	Precipitación	2
114800	7	Sololá	704	Santa Lucía Utatlán 	7	Santa Rita 	9	Septiembre	2023-01-09T00:00:00	2024-11-08T16:00:00	8	Radiación solar	322
114801	7	Sololá	704	Santa Lucía Utatlán 	7	Santa Rita 	9	Septiembre	2023-01-09T00:00:00	2024-11-08T17:00:00	2	Temperatura media	18
114802	7	Sololá	704	Santa Lucía Utatlán 	7	Santa Rita 	9	Septiembre	2023-01-09T00:00:00	2024-11-08T17:00:00	4	Temperatura máxima	18.7
114803	7	Sololá	704	Santa Lucía Utatlán 	7	Santa Rita 	9	Septiembre	2023-01-09T00:00:00	2024-11-08T17:00:00	3	Temperatura mínima	18
114804	7	Sololá	704	Santa Lucía Utatlán 	7	Santa Rita 	9	Septiembre	2023-01-09T00:00:00	2024-11-08T17:00:00	5	Humedad	95
114805	7	Sololá	704	Santa Lucía Utatlán 	7	Santa Rita 	9	Septiembre	2023-01-09T00:00:00	2024-11-08T17:00:00	6	Velocidad del viento	1.6
114806	7	Sololá	704	Santa Lucía Utatlán 	7	Santa Rita 	9	Septiembre	2023-01-09T00:00:00	2024-11-08T17:00:00	7	Dirección del viento	1.61
114807	7	Sololá	704	Santa Lucía Utatlán 	7	Santa Rita 	9	Septiembre	2023-01-09T00:00:00	2024-11-08T17:00:00	1	Precipitación	0
114808	7	Sololá	704	Santa Lucía Utatlán 	7	Santa Rita 	9	Septiembre	2023-01-09T00:00:00	2024-11-08T17:00:00	8	Radiación solar	229
114809	7	Sololá	704	Santa Lucía Utatlán 	7	Santa Rita 	9	Septiembre	2023-01-09T00:00:00	2024-11-08T18:00:00	2	Temperatura media	18.5
114810	7	Sololá	704	Santa Lucía Utatlán 	7	Santa Rita 	9	Septiembre	2023-01-09T00:00:00	2024-11-08T18:00:00	4	Temperatura máxima	18.6
114811	7	Sololá	704	Santa Lucía Utatlán 	7	Santa Rita 	9	Septiembre	2023-01-09T00:00:00	2024-11-08T18:00:00	3	Temperatura mínima	17.8
114812	7	Sololá	704	Santa Lucía Utatlán 	7	Santa Rita 	9	Septiembre	2023-01-09T00:00:00	2024-11-08T18:00:00	5	Humedad	89
114813	7	Sololá	704	Santa Lucía Utatlán 	7	Santa Rita 	9	Septiembre	2023-01-09T00:00:00	2024-11-08T18:00:00	6	Velocidad del viento	3.2
114814	7	Sololá	704	Santa Lucía Utatlán 	7	Santa Rita 	9	Septiembre	2023-01-09T00:00:00	2024-11-08T18:00:00	7	Dirección del viento	3.22
114815	7	Sololá	704	Santa Lucía Utatlán 	7	Santa Rita 	9	Septiembre	2023-01-09T00:00:00	2024-11-08T18:00:00	1	Precipitación	0
114816	7	Sololá	704	Santa Lucía Utatlán 	7	Santa Rita 	9	Septiembre	2023-01-09T00:00:00	2024-11-08T18:00:00	8	Radiación solar	25
114817	7	Sololá	704	Santa Lucía Utatlán 	7	Santa Rita 	9	Septiembre	2023-01-09T00:00:00	2024-11-08T19:00:00	2	Temperatura media	19.5
114818	7	Sololá	704	Santa Lucía Utatlán 	7	Santa Rita 	9	Septiembre	2023-01-09T00:00:00	2024-11-08T19:00:00	4	Temperatura máxima	19.8
114819	7	Sololá	704	Santa Lucía Utatlán 	7	Santa Rita 	9	Septiembre	2023-01-09T00:00:00	2024-11-08T19:00:00	3	Temperatura mínima	18.6
114820	7	Sololá	704	Santa Lucía Utatlán 	7	Santa Rita 	9	Septiembre	2023-01-09T00:00:00	2024-11-08T19:00:00	5	Humedad	85
114821	7	Sololá	704	Santa Lucía Utatlán 	7	Santa Rita 	9	Septiembre	2023-01-09T00:00:00	2024-11-08T19:00:00	6	Velocidad del viento	4.8
114822	7	Sololá	704	Santa Lucía Utatlán 	7	Santa Rita 	9	Septiembre	2023-01-09T00:00:00	2024-11-08T19:00:00	7	Dirección del viento	4.83
114823	7	Sololá	704	Santa Lucía Utatlán 	7	Santa Rita 	9	Septiembre	2023-01-09T00:00:00	2024-11-08T19:00:00	1	Precipitación	0
114824	7	Sololá	704	Santa Lucía Utatlán 	7	Santa Rita 	9	Septiembre	2023-01-09T00:00:00	2024-11-08T19:00:00	8	Radiación solar	0
114825	7	Sololá	704	Santa Lucía Utatlán 	7	Santa Rita 	9	Septiembre	2023-01-09T00:00:00	2024-11-08T20:00:00	2	Temperatura media	19.4
114826	7	Sololá	704	Santa Lucía Utatlán 	7	Santa Rita 	9	Septiembre	2023-01-09T00:00:00	2024-11-08T20:00:00	4	Temperatura máxima	20.1
114827	7	Sololá	704	Santa Lucía Utatlán 	7	Santa Rita 	9	Septiembre	2023-01-09T00:00:00	2024-11-08T20:00:00	3	Temperatura mínima	19.4
114828	7	Sololá	704	Santa Lucía Utatlán 	7	Santa Rita 	9	Septiembre	2023-01-09T00:00:00	2024-11-08T20:00:00	5	Humedad	82
114829	7	Sololá	704	Santa Lucía Utatlán 	7	Santa Rita 	9	Septiembre	2023-01-09T00:00:00	2024-11-08T20:00:00	6	Velocidad del viento	4.8
114830	7	Sololá	704	Santa Lucía Utatlán 	7	Santa Rita 	9	Septiembre	2023-01-09T00:00:00	2024-11-08T20:00:00	7	Dirección del viento	4.83
114831	7	Sololá	704	Santa Lucía Utatlán 	7	Santa Rita 	9	Septiembre	2023-01-09T00:00:00	2024-11-08T20:00:00	1	Precipitación	0
114832	7	Sololá	704	Santa Lucía Utatlán 	7	Santa Rita 	9	Septiembre	2023-01-09T00:00:00	2024-11-08T20:00:00	8	Radiación solar	0
114833	7	Sololá	704	Santa Lucía Utatlán 	7	Santa Rita 	9	Septiembre	2023-01-09T00:00:00	2024-11-08T21:00:00	2	Temperatura media	20.3
114834	7	Sololá	704	Santa Lucía Utatlán 	7	Santa Rita 	9	Septiembre	2023-01-09T00:00:00	2024-11-08T21:00:00	4	Temperatura máxima	20.4
114835	7	Sololá	704	Santa Lucía Utatlán 	7	Santa Rita 	9	Septiembre	2023-01-09T00:00:00	2024-11-08T21:00:00	3	Temperatura mínima	19.4
114836	7	Sololá	704	Santa Lucía Utatlán 	7	Santa Rita 	9	Septiembre	2023-01-09T00:00:00	2024-11-08T21:00:00	5	Humedad	77
114837	7	Sololá	704	Santa Lucía Utatlán 	7	Santa Rita 	9	Septiembre	2023-01-09T00:00:00	2024-11-08T21:00:00	6	Velocidad del viento	6.4
114838	7	Sololá	704	Santa Lucía Utatlán 	7	Santa Rita 	9	Septiembre	2023-01-09T00:00:00	2024-11-08T21:00:00	7	Dirección del viento	6.44
114839	7	Sololá	704	Santa Lucía Utatlán 	7	Santa Rita 	9	Septiembre	2023-01-09T00:00:00	2024-11-08T21:00:00	1	Precipitación	0
114840	7	Sololá	704	Santa Lucía Utatlán 	7	Santa Rita 	9	Septiembre	2023-01-09T00:00:00	2024-11-08T21:00:00	8	Radiación solar	0
114841	7	Sololá	704	Santa Lucía Utatlán 	7	Santa Rita 	9	Septiembre	2023-01-09T00:00:00	2024-11-08T22:00:00	2	Temperatura media	19.7
114842	7	Sololá	704	Santa Lucía Utatlán 	7	Santa Rita 	9	Septiembre	2023-01-09T00:00:00	2024-11-08T22:00:00	4	Temperatura máxima	20.4
114843	7	Sololá	704	Santa Lucía Utatlán 	7	Santa Rita 	9	Septiembre	2023-01-09T00:00:00	2024-11-08T22:00:00	3	Temperatura mínima	19.7
114844	7	Sololá	704	Santa Lucía Utatlán 	7	Santa Rita 	9	Septiembre	2023-01-09T00:00:00	2024-11-08T22:00:00	5	Humedad	80
114845	7	Sololá	704	Santa Lucía Utatlán 	7	Santa Rita 	9	Septiembre	2023-01-09T00:00:00	2024-11-08T22:00:00	6	Velocidad del viento	4.8
114846	7	Sololá	704	Santa Lucía Utatlán 	7	Santa Rita 	9	Septiembre	2023-01-09T00:00:00	2024-11-08T22:00:00	7	Dirección del viento	4.83
114847	7	Sololá	704	Santa Lucía Utatlán 	7	Santa Rita 	9	Septiembre	2023-01-09T00:00:00	2024-11-08T22:00:00	1	Precipitación	0
114848	7	Sololá	704	Santa Lucía Utatlán 	7	Santa Rita 	9	Septiembre	2023-01-09T00:00:00	2024-11-08T22:00:00	8	Radiación solar	0
114849	7	Sololá	704	Santa Lucía Utatlán 	7	Santa Rita 	9	Septiembre	2023-01-09T00:00:00	2024-11-08T23:00:00	2	Temperatura media	17.9
114850	7	Sololá	704	Santa Lucía Utatlán 	7	Santa Rita 	9	Septiembre	2023-01-09T00:00:00	2024-11-08T23:00:00	4	Temperatura máxima	19.7
114851	7	Sololá	704	Santa Lucía Utatlán 	7	Santa Rita 	9	Septiembre	2023-01-09T00:00:00	2024-11-08T23:00:00	3	Temperatura mínima	17.7
114852	7	Sololá	704	Santa Lucía Utatlán 	7	Santa Rita 	9	Septiembre	2023-01-09T00:00:00	2024-11-08T23:00:00	5	Humedad	86
114853	7	Sololá	704	Santa Lucía Utatlán 	7	Santa Rita 	9	Septiembre	2023-01-09T00:00:00	2024-11-08T23:00:00	6	Velocidad del viento	4.8
114854	7	Sololá	704	Santa Lucía Utatlán 	7	Santa Rita 	9	Septiembre	2023-01-09T00:00:00	2024-11-08T23:00:00	7	Dirección del viento	4.83
114855	7	Sololá	704	Santa Lucía Utatlán 	7	Santa Rita 	9	Septiembre	2023-01-09T00:00:00	2024-11-08T23:00:00	1	Precipitación	0
114856	7	Sololá	704	Santa Lucía Utatlán 	7	Santa Rita 	9	Septiembre	2023-01-09T00:00:00	2024-11-08T23:00:00	8	Radiación solar	0
114857	7	Sololá	704	Santa Lucía Utatlán 	7	Santa Rita 	9	Septiembre	2023-02-09T00:00:00	2024-11-08T00:00:00	2	Temperatura media	19.3
114858	7	Sololá	704	Santa Lucía Utatlán 	7	Santa Rita 	9	Septiembre	2023-02-09T00:00:00	2024-11-08T00:00:00	4	Temperatura máxima	19.5
114859	7	Sololá	704	Santa Lucía Utatlán 	7	Santa Rita 	9	Septiembre	2023-02-09T00:00:00	2024-11-08T00:00:00	3	Temperatura mínima	17.7
114860	7	Sololá	704	Santa Lucía Utatlán 	7	Santa Rita 	9	Septiembre	2023-02-09T00:00:00	2024-11-08T00:00:00	5	Humedad	78
114861	7	Sololá	704	Santa Lucía Utatlán 	7	Santa Rita 	9	Septiembre	2023-02-09T00:00:00	2024-11-08T00:00:00	6	Velocidad del viento	3.2
114862	7	Sololá	704	Santa Lucía Utatlán 	7	Santa Rita 	9	Septiembre	2023-02-09T00:00:00	2024-11-08T00:00:00	7	Dirección del viento	3.22
114863	7	Sololá	704	Santa Lucía Utatlán 	7	Santa Rita 	9	Septiembre	2023-02-09T00:00:00	2024-11-08T00:00:00	1	Precipitación	0
114864	7	Sololá	704	Santa Lucía Utatlán 	7	Santa Rita 	9	Septiembre	2023-02-09T00:00:00	2024-11-08T00:00:00	8	Radiación solar	0
114865	7	Sololá	704	Santa Lucía Utatlán 	7	Santa Rita 	9	Septiembre	2023-02-09T00:00:00	2024-11-08T01:00:00	2	Temperatura media	18.9
114866	7	Sololá	704	Santa Lucía Utatlán 	7	Santa Rita 	9	Septiembre	2023-02-09T00:00:00	2024-11-08T01:00:00	4	Temperatura máxima	19.4
114867	7	Sololá	704	Santa Lucía Utatlán 	7	Santa Rita 	9	Septiembre	2023-02-09T00:00:00	2024-11-08T01:00:00	3	Temperatura mínima	18.9
114868	7	Sololá	704	Santa Lucía Utatlán 	7	Santa Rita 	9	Septiembre	2023-02-09T00:00:00	2024-11-08T01:00:00	5	Humedad	80
114869	7	Sololá	704	Santa Lucía Utatlán 	7	Santa Rita 	9	Septiembre	2023-02-09T00:00:00	2024-11-08T01:00:00	6	Velocidad del viento	4.8
114870	7	Sololá	704	Santa Lucía Utatlán 	7	Santa Rita 	9	Septiembre	2023-02-09T00:00:00	2024-11-08T01:00:00	7	Dirección del viento	4.83
114871	7	Sololá	704	Santa Lucía Utatlán 	7	Santa Rita 	9	Septiembre	2023-02-09T00:00:00	2024-11-08T01:00:00	1	Precipitación	0
114872	7	Sololá	704	Santa Lucía Utatlán 	7	Santa Rita 	9	Septiembre	2023-02-09T00:00:00	2024-11-08T01:00:00	8	Radiación solar	0
114873	7	Sololá	704	Santa Lucía Utatlán 	7	Santa Rita 	9	Septiembre	2023-02-09T00:00:00	2024-11-08T02:00:00	2	Temperatura media	20.8
114874	7	Sololá	704	Santa Lucía Utatlán 	7	Santa Rita 	9	Septiembre	2023-02-09T00:00:00	2024-11-08T02:00:00	4	Temperatura máxima	20.8
114875	7	Sololá	704	Santa Lucía Utatlán 	7	Santa Rita 	9	Septiembre	2023-02-09T00:00:00	2024-11-08T02:00:00	3	Temperatura mínima	18.7
114876	7	Sololá	704	Santa Lucía Utatlán 	7	Santa Rita 	9	Septiembre	2023-02-09T00:00:00	2024-11-08T02:00:00	5	Humedad	73
114877	7	Sololá	704	Santa Lucía Utatlán 	7	Santa Rita 	9	Septiembre	2023-02-09T00:00:00	2024-11-08T02:00:00	6	Velocidad del viento	3.2
114878	7	Sololá	704	Santa Lucía Utatlán 	7	Santa Rita 	9	Septiembre	2023-02-09T00:00:00	2024-11-08T02:00:00	7	Dirección del viento	3.22
114879	7	Sololá	704	Santa Lucía Utatlán 	7	Santa Rita 	9	Septiembre	2023-02-09T00:00:00	2024-11-08T02:00:00	1	Precipitación	0
114880	7	Sololá	704	Santa Lucía Utatlán 	7	Santa Rita 	9	Septiembre	2023-02-09T00:00:00	2024-11-08T02:00:00	8	Radiación solar	0
114881	7	Sololá	704	Santa Lucía Utatlán 	7	Santa Rita 	9	Septiembre	2023-02-09T00:00:00	2024-11-08T03:00:00	2	Temperatura media	22.4
114882	7	Sololá	704	Santa Lucía Utatlán 	7	Santa Rita 	9	Septiembre	2023-02-09T00:00:00	2024-11-08T03:00:00	4	Temperatura máxima	22.6
114883	7	Sololá	704	Santa Lucía Utatlán 	7	Santa Rita 	9	Septiembre	2023-02-09T00:00:00	2024-11-08T03:00:00	3	Temperatura mínima	20.9
114884	7	Sololá	704	Santa Lucía Utatlán 	7	Santa Rita 	9	Septiembre	2023-02-09T00:00:00	2024-11-08T03:00:00	5	Humedad	73
114885	7	Sololá	704	Santa Lucía Utatlán 	7	Santa Rita 	9	Septiembre	2023-02-09T00:00:00	2024-11-08T03:00:00	6	Velocidad del viento	4.8
114886	7	Sololá	704	Santa Lucía Utatlán 	7	Santa Rita 	9	Septiembre	2023-02-09T00:00:00	2024-11-08T03:00:00	7	Dirección del viento	4.83
114887	7	Sololá	704	Santa Lucía Utatlán 	7	Santa Rita 	9	Septiembre	2023-02-09T00:00:00	2024-11-08T03:00:00	1	Precipitación	0
114888	7	Sololá	704	Santa Lucía Utatlán 	7	Santa Rita 	9	Septiembre	2023-02-09T00:00:00	2024-11-08T03:00:00	8	Radiación solar	0
114889	7	Sololá	704	Santa Lucía Utatlán 	7	Santa Rita 	9	Septiembre	2023-02-09T00:00:00	2024-11-08T04:00:00	2	Temperatura media	23.6
114890	7	Sololá	704	Santa Lucía Utatlán 	7	Santa Rita 	9	Septiembre	2023-02-09T00:00:00	2024-11-08T04:00:00	4	Temperatura máxima	23.6
114891	7	Sololá	704	Santa Lucía Utatlán 	7	Santa Rita 	9	Septiembre	2023-02-09T00:00:00	2024-11-08T04:00:00	3	Temperatura mínima	22.3
114892	7	Sololá	704	Santa Lucía Utatlán 	7	Santa Rita 	9	Septiembre	2023-02-09T00:00:00	2024-11-08T04:00:00	5	Humedad	69
114893	7	Sololá	704	Santa Lucía Utatlán 	7	Santa Rita 	9	Septiembre	2023-02-09T00:00:00	2024-11-08T04:00:00	6	Velocidad del viento	4.8
114894	7	Sololá	704	Santa Lucía Utatlán 	7	Santa Rita 	9	Septiembre	2023-02-09T00:00:00	2024-11-08T04:00:00	7	Dirección del viento	4.83
114895	7	Sololá	704	Santa Lucía Utatlán 	7	Santa Rita 	9	Septiembre	2023-02-09T00:00:00	2024-11-08T04:00:00	1	Precipitación	0
114896	7	Sololá	704	Santa Lucía Utatlán 	7	Santa Rita 	9	Septiembre	2023-02-09T00:00:00	2024-11-08T04:00:00	8	Radiación solar	0
114897	7	Sololá	704	Santa Lucía Utatlán 	7	Santa Rita 	9	Septiembre	2023-02-09T00:00:00	2024-11-08T05:00:00	2	Temperatura media	23.2
114898	7	Sololá	704	Santa Lucía Utatlán 	7	Santa Rita 	9	Septiembre	2023-02-09T00:00:00	2024-11-08T05:00:00	4	Temperatura máxima	23.9
114899	7	Sololá	704	Santa Lucía Utatlán 	7	Santa Rita 	9	Septiembre	2023-02-09T00:00:00	2024-11-08T05:00:00	3	Temperatura mínima	23.1
114900	7	Sololá	704	Santa Lucía Utatlán 	7	Santa Rita 	9	Septiembre	2023-02-09T00:00:00	2024-11-08T05:00:00	5	Humedad	69
114901	7	Sololá	704	Santa Lucía Utatlán 	7	Santa Rita 	9	Septiembre	2023-02-09T00:00:00	2024-11-08T05:00:00	6	Velocidad del viento	6.4
114902	7	Sololá	704	Santa Lucía Utatlán 	7	Santa Rita 	9	Septiembre	2023-02-09T00:00:00	2024-11-08T05:00:00	7	Dirección del viento	6.44
114903	7	Sololá	704	Santa Lucía Utatlán 	7	Santa Rita 	9	Septiembre	2023-02-09T00:00:00	2024-11-08T05:00:00	1	Precipitación	0
114904	7	Sololá	704	Santa Lucía Utatlán 	7	Santa Rita 	9	Septiembre	2023-02-09T00:00:00	2024-11-08T05:00:00	8	Radiación solar	0
114905	7	Sololá	704	Santa Lucía Utatlán 	7	Santa Rita 	9	Septiembre	2023-02-09T00:00:00	2024-11-08T06:00:00	2	Temperatura media	24.6
114906	7	Sololá	704	Santa Lucía Utatlán 	7	Santa Rita 	9	Septiembre	2023-02-09T00:00:00	2024-11-08T06:00:00	4	Temperatura máxima	24.7
114907	7	Sololá	704	Santa Lucía Utatlán 	7	Santa Rita 	9	Septiembre	2023-02-09T00:00:00	2024-11-08T06:00:00	3	Temperatura mínima	23.2
114908	7	Sololá	704	Santa Lucía Utatlán 	7	Santa Rita 	9	Septiembre	2023-02-09T00:00:00	2024-11-08T06:00:00	5	Humedad	63
114909	7	Sololá	704	Santa Lucía Utatlán 	7	Santa Rita 	9	Septiembre	2023-02-09T00:00:00	2024-11-08T06:00:00	6	Velocidad del viento	9.7
114910	7	Sololá	704	Santa Lucía Utatlán 	7	Santa Rita 	9	Septiembre	2023-02-09T00:00:00	2024-11-08T06:00:00	7	Dirección del viento	9.66
114911	7	Sololá	704	Santa Lucía Utatlán 	7	Santa Rita 	9	Septiembre	2023-02-09T00:00:00	2024-11-08T06:00:00	1	Precipitación	0
114912	7	Sololá	704	Santa Lucía Utatlán 	7	Santa Rita 	9	Septiembre	2023-02-09T00:00:00	2024-11-08T06:00:00	8	Radiación solar	3
114913	7	Sololá	704	Santa Lucía Utatlán 	7	Santa Rita 	9	Septiembre	2023-02-09T00:00:00	2024-11-08T07:00:00	2	Temperatura media	24.4
114914	7	Sololá	704	Santa Lucía Utatlán 	7	Santa Rita 	9	Septiembre	2023-02-09T00:00:00	2024-11-08T07:00:00	4	Temperatura máxima	24.9
114915	7	Sololá	704	Santa Lucía Utatlán 	7	Santa Rita 	9	Septiembre	2023-02-09T00:00:00	2024-11-08T07:00:00	3	Temperatura mínima	24.2
114916	7	Sololá	704	Santa Lucía Utatlán 	7	Santa Rita 	9	Septiembre	2023-02-09T00:00:00	2024-11-08T07:00:00	5	Humedad	66
114917	7	Sololá	704	Santa Lucía Utatlán 	7	Santa Rita 	9	Septiembre	2023-02-09T00:00:00	2024-11-08T07:00:00	6	Velocidad del viento	12.9
114918	7	Sololá	704	Santa Lucía Utatlán 	7	Santa Rita 	9	Septiembre	2023-02-09T00:00:00	2024-11-08T07:00:00	7	Dirección del viento	12.87
114919	7	Sololá	704	Santa Lucía Utatlán 	7	Santa Rita 	9	Septiembre	2023-02-09T00:00:00	2024-11-08T07:00:00	1	Precipitación	0
114920	7	Sololá	704	Santa Lucía Utatlán 	7	Santa Rita 	9	Septiembre	2023-02-09T00:00:00	2024-11-08T07:00:00	8	Radiación solar	88
114921	7	Sololá	704	Santa Lucía Utatlán 	7	Santa Rita 	9	Septiembre	2023-02-09T00:00:00	2024-11-08T08:00:00	2	Temperatura media	25.1
114922	7	Sololá	704	Santa Lucía Utatlán 	7	Santa Rita 	9	Septiembre	2023-02-09T00:00:00	2024-11-08T08:00:00	4	Temperatura máxima	25.1
114923	7	Sololá	704	Santa Lucía Utatlán 	7	Santa Rita 	9	Septiembre	2023-02-09T00:00:00	2024-11-08T08:00:00	3	Temperatura mínima	24.1
114924	7	Sololá	704	Santa Lucía Utatlán 	7	Santa Rita 	9	Septiembre	2023-02-09T00:00:00	2024-11-08T08:00:00	5	Humedad	60
114925	7	Sololá	704	Santa Lucía Utatlán 	7	Santa Rita 	9	Septiembre	2023-02-09T00:00:00	2024-11-08T08:00:00	6	Velocidad del viento	12.9
114926	7	Sololá	704	Santa Lucía Utatlán 	7	Santa Rita 	9	Septiembre	2023-02-09T00:00:00	2024-11-08T08:00:00	7	Dirección del viento	12.87
114927	7	Sololá	704	Santa Lucía Utatlán 	7	Santa Rita 	9	Septiembre	2023-02-09T00:00:00	2024-11-08T08:00:00	1	Precipitación	0
114928	7	Sololá	704	Santa Lucía Utatlán 	7	Santa Rita 	9	Septiembre	2023-02-09T00:00:00	2024-11-08T08:00:00	8	Radiación solar	381
114929	7	Sololá	704	Santa Lucía Utatlán 	7	Santa Rita 	9	Septiembre	2023-02-09T00:00:00	2024-11-08T09:00:00	2	Temperatura media	25.3
114930	7	Sololá	704	Santa Lucía Utatlán 	7	Santa Rita 	9	Septiembre	2023-02-09T00:00:00	2024-11-08T09:00:00	4	Temperatura máxima	25.8
114931	7	Sololá	704	Santa Lucía Utatlán 	7	Santa Rita 	9	Septiembre	2023-02-09T00:00:00	2024-11-08T09:00:00	3	Temperatura mínima	24.7
114932	7	Sololá	704	Santa Lucía Utatlán 	7	Santa Rita 	9	Septiembre	2023-02-09T00:00:00	2024-11-08T09:00:00	5	Humedad	59
114933	7	Sololá	704	Santa Lucía Utatlán 	7	Santa Rita 	9	Septiembre	2023-02-09T00:00:00	2024-11-08T09:00:00	6	Velocidad del viento	11.3
114934	7	Sololá	704	Santa Lucía Utatlán 	7	Santa Rita 	9	Septiembre	2023-02-09T00:00:00	2024-11-08T09:00:00	7	Dirección del viento	11.27
114935	7	Sololá	704	Santa Lucía Utatlán 	7	Santa Rita 	9	Septiembre	2023-02-09T00:00:00	2024-11-08T09:00:00	1	Precipitación	0
114936	7	Sololá	704	Santa Lucía Utatlán 	7	Santa Rita 	9	Septiembre	2023-02-09T00:00:00	2024-11-08T09:00:00	8	Radiación solar	616
114937	7	Sololá	704	Santa Lucía Utatlán 	7	Santa Rita 	9	Septiembre	2023-02-09T00:00:00	2024-11-08T10:00:00	2	Temperatura media	23.1
114938	7	Sololá	704	Santa Lucía Utatlán 	7	Santa Rita 	9	Septiembre	2023-02-09T00:00:00	2024-11-08T10:00:00	4	Temperatura máxima	25.8
114939	7	Sololá	704	Santa Lucía Utatlán 	7	Santa Rita 	9	Septiembre	2023-02-09T00:00:00	2024-11-08T10:00:00	3	Temperatura mínima	22.4
114940	7	Sololá	704	Santa Lucía Utatlán 	7	Santa Rita 	9	Septiembre	2023-02-09T00:00:00	2024-11-08T10:00:00	5	Humedad	74
114941	7	Sololá	704	Santa Lucía Utatlán 	7	Santa Rita 	9	Septiembre	2023-02-09T00:00:00	2024-11-08T10:00:00	6	Velocidad del viento	9.7
114942	7	Sololá	704	Santa Lucía Utatlán 	7	Santa Rita 	9	Septiembre	2023-02-09T00:00:00	2024-11-08T10:00:00	7	Dirección del viento	9.66
114943	7	Sololá	704	Santa Lucía Utatlán 	7	Santa Rita 	9	Septiembre	2023-02-09T00:00:00	2024-11-08T10:00:00	1	Precipitación	0
114944	7	Sololá	704	Santa Lucía Utatlán 	7	Santa Rita 	9	Septiembre	2023-02-09T00:00:00	2024-11-08T10:00:00	8	Radiación solar	512
114945	7	Sololá	704	Santa Lucía Utatlán 	7	Santa Rita 	9	Septiembre	2023-02-09T00:00:00	2024-11-08T11:00:00	2	Temperatura media	22.5
114946	7	Sololá	704	Santa Lucía Utatlán 	7	Santa Rita 	9	Septiembre	2023-02-09T00:00:00	2024-11-08T11:00:00	4	Temperatura máxima	23.6
114947	7	Sololá	704	Santa Lucía Utatlán 	7	Santa Rita 	9	Septiembre	2023-02-09T00:00:00	2024-11-08T11:00:00	3	Temperatura mínima	22.4
114948	7	Sololá	704	Santa Lucía Utatlán 	7	Santa Rita 	9	Septiembre	2023-02-09T00:00:00	2024-11-08T11:00:00	5	Humedad	72
114949	7	Sololá	704	Santa Lucía Utatlán 	7	Santa Rita 	9	Septiembre	2023-02-09T00:00:00	2024-11-08T11:00:00	6	Velocidad del viento	9.7
114950	7	Sololá	704	Santa Lucía Utatlán 	7	Santa Rita 	9	Septiembre	2023-02-09T00:00:00	2024-11-08T11:00:00	7	Dirección del viento	9.66
114951	7	Sololá	704	Santa Lucía Utatlán 	7	Santa Rita 	9	Septiembre	2023-02-09T00:00:00	2024-11-08T11:00:00	1	Precipitación	0
114952	7	Sololá	704	Santa Lucía Utatlán 	7	Santa Rita 	9	Septiembre	2023-02-09T00:00:00	2024-11-08T11:00:00	8	Radiación solar	669
114953	7	Sololá	704	Santa Lucía Utatlán 	7	Santa Rita 	9	Septiembre	2023-02-09T00:00:00	2024-11-08T12:00:00	2	Temperatura media	21.8
114954	7	Sololá	704	Santa Lucía Utatlán 	7	Santa Rita 	9	Septiembre	2023-02-09T00:00:00	2024-11-08T12:00:00	4	Temperatura máxima	22.5
114955	7	Sololá	704	Santa Lucía Utatlán 	7	Santa Rita 	9	Septiembre	2023-02-09T00:00:00	2024-11-08T12:00:00	3	Temperatura mínima	21.8
114956	7	Sololá	704	Santa Lucía Utatlán 	7	Santa Rita 	9	Septiembre	2023-02-09T00:00:00	2024-11-08T12:00:00	5	Humedad	78
114957	7	Sololá	704	Santa Lucía Utatlán 	7	Santa Rita 	9	Septiembre	2023-02-09T00:00:00	2024-11-08T12:00:00	6	Velocidad del viento	4.8
114958	7	Sololá	704	Santa Lucía Utatlán 	7	Santa Rita 	9	Septiembre	2023-02-09T00:00:00	2024-11-08T12:00:00	7	Dirección del viento	4.83
114959	7	Sololá	704	Santa Lucía Utatlán 	7	Santa Rita 	9	Septiembre	2023-02-09T00:00:00	2024-11-08T12:00:00	1	Precipitación	0
114960	7	Sololá	704	Santa Lucía Utatlán 	7	Santa Rita 	9	Septiembre	2023-02-09T00:00:00	2024-11-08T12:00:00	8	Radiación solar	861
114961	7	Sololá	704	Santa Lucía Utatlán 	7	Santa Rita 	9	Septiembre	2023-02-09T00:00:00	2024-11-08T13:00:00	2	Temperatura media	21.1
114962	7	Sololá	704	Santa Lucía Utatlán 	7	Santa Rita 	9	Septiembre	2023-02-09T00:00:00	2024-11-08T13:00:00	4	Temperatura máxima	21.9
114963	7	Sololá	704	Santa Lucía Utatlán 	7	Santa Rita 	9	Septiembre	2023-02-09T00:00:00	2024-11-08T13:00:00	3	Temperatura mínima	21.1
114964	7	Sololá	704	Santa Lucía Utatlán 	7	Santa Rita 	9	Septiembre	2023-02-09T00:00:00	2024-11-08T13:00:00	5	Humedad	76
114965	7	Sololá	704	Santa Lucía Utatlán 	7	Santa Rita 	9	Septiembre	2023-02-09T00:00:00	2024-11-08T13:00:00	6	Velocidad del viento	4.8
114966	7	Sololá	704	Santa Lucía Utatlán 	7	Santa Rita 	9	Septiembre	2023-02-09T00:00:00	2024-11-08T13:00:00	7	Dirección del viento	4.83
114967	7	Sololá	704	Santa Lucía Utatlán 	7	Santa Rita 	9	Septiembre	2023-02-09T00:00:00	2024-11-08T13:00:00	1	Precipitación	0
114968	7	Sololá	704	Santa Lucía Utatlán 	7	Santa Rita 	9	Septiembre	2023-02-09T00:00:00	2024-11-08T13:00:00	8	Radiación solar	652
114969	7	Sololá	704	Santa Lucía Utatlán 	7	Santa Rita 	9	Septiembre	2023-02-09T00:00:00	2024-11-08T14:00:00	2	Temperatura media	20.8
114970	7	Sololá	704	Santa Lucía Utatlán 	7	Santa Rita 	9	Septiembre	2023-02-09T00:00:00	2024-11-08T14:00:00	4	Temperatura máxima	21.2
114971	7	Sololá	704	Santa Lucía Utatlán 	7	Santa Rita 	9	Septiembre	2023-02-09T00:00:00	2024-11-08T14:00:00	3	Temperatura mínima	20.6
114972	7	Sololá	704	Santa Lucía Utatlán 	7	Santa Rita 	9	Septiembre	2023-02-09T00:00:00	2024-11-08T14:00:00	5	Humedad	79
114973	7	Sololá	704	Santa Lucía Utatlán 	7	Santa Rita 	9	Septiembre	2023-02-09T00:00:00	2024-11-08T14:00:00	6	Velocidad del viento	3.2
114974	7	Sololá	704	Santa Lucía Utatlán 	7	Santa Rita 	9	Septiembre	2023-02-09T00:00:00	2024-11-08T14:00:00	7	Dirección del viento	3.22
114975	7	Sololá	704	Santa Lucía Utatlán 	7	Santa Rita 	9	Septiembre	2023-02-09T00:00:00	2024-11-08T14:00:00	1	Precipitación	0.2
114976	7	Sololá	704	Santa Lucía Utatlán 	7	Santa Rita 	9	Septiembre	2023-02-09T00:00:00	2024-11-08T14:00:00	8	Radiación solar	884
114977	7	Sololá	704	Santa Lucía Utatlán 	7	Santa Rita 	9	Septiembre	2023-02-09T00:00:00	2024-11-08T15:00:00	2	Temperatura media	20.6
114978	7	Sololá	704	Santa Lucía Utatlán 	7	Santa Rita 	9	Septiembre	2023-02-09T00:00:00	2024-11-08T15:00:00	4	Temperatura máxima	21
114979	7	Sololá	704	Santa Lucía Utatlán 	7	Santa Rita 	9	Septiembre	2023-02-09T00:00:00	2024-11-08T15:00:00	3	Temperatura mínima	20.6
114980	7	Sololá	704	Santa Lucía Utatlán 	7	Santa Rita 	9	Septiembre	2023-02-09T00:00:00	2024-11-08T15:00:00	5	Humedad	83
114981	7	Sololá	704	Santa Lucía Utatlán 	7	Santa Rita 	9	Septiembre	2023-02-09T00:00:00	2024-11-08T15:00:00	6	Velocidad del viento	6.4
114982	7	Sololá	704	Santa Lucía Utatlán 	7	Santa Rita 	9	Septiembre	2023-02-09T00:00:00	2024-11-08T15:00:00	7	Dirección del viento	6.44
114983	7	Sololá	704	Santa Lucía Utatlán 	7	Santa Rita 	9	Septiembre	2023-02-09T00:00:00	2024-11-08T15:00:00	1	Precipitación	0.2
114984	7	Sololá	704	Santa Lucía Utatlán 	7	Santa Rita 	9	Septiembre	2023-02-09T00:00:00	2024-11-08T15:00:00	8	Radiación solar	398
114985	7	Sololá	704	Santa Lucía Utatlán 	7	Santa Rita 	9	Septiembre	2023-02-09T00:00:00	2024-11-08T16:00:00	2	Temperatura media	18.8
114986	7	Sololá	704	Santa Lucía Utatlán 	7	Santa Rita 	9	Septiembre	2023-02-09T00:00:00	2024-11-08T16:00:00	4	Temperatura máxima	20.6
114987	7	Sololá	704	Santa Lucía Utatlán 	7	Santa Rita 	9	Septiembre	2023-02-09T00:00:00	2024-11-08T16:00:00	3	Temperatura mínima	18.8
114988	7	Sololá	704	Santa Lucía Utatlán 	7	Santa Rita 	9	Septiembre	2023-02-09T00:00:00	2024-11-08T16:00:00	5	Humedad	90
114989	7	Sololá	704	Santa Lucía Utatlán 	7	Santa Rita 	9	Septiembre	2023-02-09T00:00:00	2024-11-08T16:00:00	6	Velocidad del viento	1.6
114990	7	Sololá	704	Santa Lucía Utatlán 	7	Santa Rita 	9	Septiembre	2023-02-09T00:00:00	2024-11-08T16:00:00	7	Dirección del viento	1.61
114991	7	Sololá	704	Santa Lucía Utatlán 	7	Santa Rita 	9	Septiembre	2023-02-09T00:00:00	2024-11-08T16:00:00	1	Precipitación	0.2
114992	7	Sololá	704	Santa Lucía Utatlán 	7	Santa Rita 	9	Septiembre	2023-02-09T00:00:00	2024-11-08T16:00:00	8	Radiación solar	204
114993	7	Sololá	704	Santa Lucía Utatlán 	7	Santa Rita 	9	Septiembre	2023-02-09T00:00:00	2024-11-08T17:00:00	2	Temperatura media	20
114994	7	Sololá	704	Santa Lucía Utatlán 	7	Santa Rita 	9	Septiembre	2023-02-09T00:00:00	2024-11-08T17:00:00	4	Temperatura máxima	20
114995	7	Sololá	704	Santa Lucía Utatlán 	7	Santa Rita 	9	Septiembre	2023-02-09T00:00:00	2024-11-08T17:00:00	3	Temperatura mínima	18.6
114996	7	Sololá	704	Santa Lucía Utatlán 	7	Santa Rita 	9	Septiembre	2023-02-09T00:00:00	2024-11-08T17:00:00	5	Humedad	82
114997	7	Sololá	704	Santa Lucía Utatlán 	7	Santa Rita 	9	Septiembre	2023-02-09T00:00:00	2024-11-08T17:00:00	6	Velocidad del viento	3.2
114998	7	Sololá	704	Santa Lucía Utatlán 	7	Santa Rita 	9	Septiembre	2023-02-09T00:00:00	2024-11-08T17:00:00	7	Dirección del viento	3.22
114999	7	Sololá	704	Santa Lucía Utatlán 	7	Santa Rita 	9	Septiembre	2023-02-09T00:00:00	2024-11-08T17:00:00	1	Precipitación	0
115000	7	Sololá	704	Santa Lucía Utatlán 	7	Santa Rita 	9	Septiembre	2023-02-09T00:00:00	2024-11-08T17:00:00	8	Radiación solar	88
115001	7	Sololá	704	Santa Lucía Utatlán 	7	Santa Rita 	9	Septiembre	2023-02-09T00:00:00	2024-11-08T18:00:00	2	Temperatura media	20.8
115002	7	Sololá	704	Santa Lucía Utatlán 	7	Santa Rita 	9	Septiembre	2023-02-09T00:00:00	2024-11-08T18:00:00	4	Temperatura máxima	20.9
115003	7	Sololá	704	Santa Lucía Utatlán 	7	Santa Rita 	9	Septiembre	2023-02-09T00:00:00	2024-11-08T18:00:00	3	Temperatura mínima	19.6
115004	7	Sololá	704	Santa Lucía Utatlán 	7	Santa Rita 	9	Septiembre	2023-02-09T00:00:00	2024-11-08T18:00:00	5	Humedad	76
115005	7	Sololá	704	Santa Lucía Utatlán 	7	Santa Rita 	9	Septiembre	2023-02-09T00:00:00	2024-11-08T18:00:00	6	Velocidad del viento	4.8
115006	7	Sololá	704	Santa Lucía Utatlán 	7	Santa Rita 	9	Septiembre	2023-02-09T00:00:00	2024-11-08T18:00:00	7	Dirección del viento	4.83
115007	7	Sololá	704	Santa Lucía Utatlán 	7	Santa Rita 	9	Septiembre	2023-02-09T00:00:00	2024-11-08T18:00:00	1	Precipitación	0.2
115008	7	Sololá	704	Santa Lucía Utatlán 	7	Santa Rita 	9	Septiembre	2023-02-09T00:00:00	2024-11-08T18:00:00	8	Radiación solar	52
115009	7	Sololá	704	Santa Lucía Utatlán 	7	Santa Rita 	9	Septiembre	2023-02-09T00:00:00	2024-11-08T19:00:00	2	Temperatura media	19.3
115010	7	Sololá	704	Santa Lucía Utatlán 	7	Santa Rita 	9	Septiembre	2023-02-09T00:00:00	2024-11-08T19:00:00	4	Temperatura máxima	20.9
115011	7	Sololá	704	Santa Lucía Utatlán 	7	Santa Rita 	9	Septiembre	2023-02-09T00:00:00	2024-11-08T19:00:00	3	Temperatura mínima	18.8
115012	7	Sololá	704	Santa Lucía Utatlán 	7	Santa Rita 	9	Septiembre	2023-02-09T00:00:00	2024-11-08T19:00:00	5	Humedad	78
115013	7	Sololá	704	Santa Lucía Utatlán 	7	Santa Rita 	9	Septiembre	2023-02-09T00:00:00	2024-11-08T19:00:00	6	Velocidad del viento	3.2
115014	7	Sololá	704	Santa Lucía Utatlán 	7	Santa Rita 	9	Septiembre	2023-02-09T00:00:00	2024-11-08T19:00:00	7	Dirección del viento	3.22
115015	7	Sololá	704	Santa Lucía Utatlán 	7	Santa Rita 	9	Septiembre	2023-02-09T00:00:00	2024-11-08T19:00:00	1	Precipitación	0
115016	7	Sololá	704	Santa Lucía Utatlán 	7	Santa Rita 	9	Septiembre	2023-02-09T00:00:00	2024-11-08T19:00:00	8	Radiación solar	0
115017	7	Sololá	704	Santa Lucía Utatlán 	7	Santa Rita 	9	Septiembre	2023-02-09T00:00:00	2024-11-08T20:00:00	2	Temperatura media	17.8
115018	7	Sololá	704	Santa Lucía Utatlán 	7	Santa Rita 	9	Septiembre	2023-02-09T00:00:00	2024-11-08T20:00:00	4	Temperatura máxima	20
115019	7	Sololá	704	Santa Lucía Utatlán 	7	Santa Rita 	9	Septiembre	2023-02-09T00:00:00	2024-11-08T20:00:00	3	Temperatura mínima	17.8
115020	7	Sololá	704	Santa Lucía Utatlán 	7	Santa Rita 	9	Septiembre	2023-02-09T00:00:00	2024-11-08T20:00:00	5	Humedad	88
115021	7	Sololá	704	Santa Lucía Utatlán 	7	Santa Rita 	9	Septiembre	2023-02-09T00:00:00	2024-11-08T20:00:00	6	Velocidad del viento	3.2
115022	7	Sololá	704	Santa Lucía Utatlán 	7	Santa Rita 	9	Septiembre	2023-02-09T00:00:00	2024-11-08T20:00:00	7	Dirección del viento	3.22
115023	7	Sololá	704	Santa Lucía Utatlán 	7	Santa Rita 	9	Septiembre	2023-02-09T00:00:00	2024-11-08T20:00:00	1	Precipitación	0
115024	7	Sololá	704	Santa Lucía Utatlán 	7	Santa Rita 	9	Septiembre	2023-02-09T00:00:00	2024-11-08T20:00:00	8	Radiación solar	0
115025	7	Sololá	704	Santa Lucía Utatlán 	7	Santa Rita 	9	Septiembre	2023-02-09T00:00:00	2024-11-08T21:00:00	2	Temperatura media	20.2
115026	7	Sololá	704	Santa Lucía Utatlán 	7	Santa Rita 	9	Septiembre	2023-02-09T00:00:00	2024-11-08T21:00:00	4	Temperatura máxima	20.3
115027	7	Sololá	704	Santa Lucía Utatlán 	7	Santa Rita 	9	Septiembre	2023-02-09T00:00:00	2024-11-08T21:00:00	3	Temperatura mínima	17.3
115028	7	Sololá	704	Santa Lucía Utatlán 	7	Santa Rita 	9	Septiembre	2023-02-09T00:00:00	2024-11-08T21:00:00	5	Humedad	77
115029	7	Sololá	704	Santa Lucía Utatlán 	7	Santa Rita 	9	Septiembre	2023-02-09T00:00:00	2024-11-08T21:00:00	6	Velocidad del viento	6.4
115030	7	Sololá	704	Santa Lucía Utatlán 	7	Santa Rita 	9	Septiembre	2023-02-09T00:00:00	2024-11-08T21:00:00	7	Dirección del viento	6.44
115031	7	Sololá	704	Santa Lucía Utatlán 	7	Santa Rita 	9	Septiembre	2023-02-09T00:00:00	2024-11-08T21:00:00	1	Precipitación	0
115032	7	Sololá	704	Santa Lucía Utatlán 	7	Santa Rita 	9	Septiembre	2023-02-09T00:00:00	2024-11-08T21:00:00	8	Radiación solar	0
115033	7	Sololá	704	Santa Lucía Utatlán 	7	Santa Rita 	9	Septiembre	2023-02-09T00:00:00	2024-11-08T22:00:00	2	Temperatura media	17.8
115034	7	Sololá	704	Santa Lucía Utatlán 	7	Santa Rita 	9	Septiembre	2023-02-09T00:00:00	2024-11-08T22:00:00	4	Temperatura máxima	20.2
115035	7	Sololá	704	Santa Lucía Utatlán 	7	Santa Rita 	9	Septiembre	2023-02-09T00:00:00	2024-11-08T22:00:00	3	Temperatura mínima	17.8
115036	7	Sololá	704	Santa Lucía Utatlán 	7	Santa Rita 	9	Septiembre	2023-02-09T00:00:00	2024-11-08T22:00:00	5	Humedad	86
115037	7	Sololá	704	Santa Lucía Utatlán 	7	Santa Rita 	9	Septiembre	2023-02-09T00:00:00	2024-11-08T22:00:00	6	Velocidad del viento	4.8
115038	7	Sololá	704	Santa Lucía Utatlán 	7	Santa Rita 	9	Septiembre	2023-02-09T00:00:00	2024-11-08T22:00:00	7	Dirección del viento	4.83
115039	7	Sololá	704	Santa Lucía Utatlán 	7	Santa Rita 	9	Septiembre	2023-02-09T00:00:00	2024-11-08T22:00:00	1	Precipitación	0
115040	7	Sololá	704	Santa Lucía Utatlán 	7	Santa Rita 	9	Septiembre	2023-02-09T00:00:00	2024-11-08T22:00:00	8	Radiación solar	0
115041	7	Sololá	704	Santa Lucía Utatlán 	7	Santa Rita 	9	Septiembre	2023-02-09T00:00:00	2024-11-08T23:00:00	2	Temperatura media	19.2
115042	7	Sololá	704	Santa Lucía Utatlán 	7	Santa Rita 	9	Septiembre	2023-02-09T00:00:00	2024-11-08T23:00:00	4	Temperatura máxima	20.2
115043	7	Sololá	704	Santa Lucía Utatlán 	7	Santa Rita 	9	Septiembre	2023-02-09T00:00:00	2024-11-08T23:00:00	3	Temperatura mínima	17.4
115044	7	Sololá	704	Santa Lucía Utatlán 	7	Santa Rita 	9	Septiembre	2023-02-09T00:00:00	2024-11-08T23:00:00	5	Humedad	77
115045	7	Sololá	704	Santa Lucía Utatlán 	7	Santa Rita 	9	Septiembre	2023-02-09T00:00:00	2024-11-08T23:00:00	6	Velocidad del viento	4.8
115046	7	Sololá	704	Santa Lucía Utatlán 	7	Santa Rita 	9	Septiembre	2023-02-09T00:00:00	2024-11-08T23:00:00	7	Dirección del viento	4.83
115047	7	Sololá	704	Santa Lucía Utatlán 	7	Santa Rita 	9	Septiembre	2023-02-09T00:00:00	2024-11-08T23:00:00	1	Precipitación	0
115048	7	Sololá	704	Santa Lucía Utatlán 	7	Santa Rita 	9	Septiembre	2023-02-09T00:00:00	2024-11-08T23:00:00	8	Radiación solar	0
115049	7	Sololá	704	Santa Lucía Utatlán 	7	Santa Rita 	9	Septiembre	2023-03-09T00:00:00	2024-11-08T00:00:00	2	Temperatura media	18.2
115050	7	Sololá	704	Santa Lucía Utatlán 	7	Santa Rita 	9	Septiembre	2023-03-09T00:00:00	2024-11-08T00:00:00	4	Temperatura máxima	19.2
115051	7	Sololá	704	Santa Lucía Utatlán 	7	Santa Rita 	9	Septiembre	2023-03-09T00:00:00	2024-11-08T00:00:00	3	Temperatura mínima	17.8
115052	7	Sololá	704	Santa Lucía Utatlán 	7	Santa Rita 	9	Septiembre	2023-03-09T00:00:00	2024-11-08T00:00:00	5	Humedad	82
115053	7	Sololá	704	Santa Lucía Utatlán 	7	Santa Rita 	9	Septiembre	2023-03-09T00:00:00	2024-11-08T00:00:00	6	Velocidad del viento	3.2
115054	7	Sololá	704	Santa Lucía Utatlán 	7	Santa Rita 	9	Septiembre	2023-03-09T00:00:00	2024-11-08T00:00:00	7	Dirección del viento	3.22
115055	7	Sololá	704	Santa Lucía Utatlán 	7	Santa Rita 	9	Septiembre	2023-03-09T00:00:00	2024-11-08T00:00:00	1	Precipitación	0
115056	7	Sololá	704	Santa Lucía Utatlán 	7	Santa Rita 	9	Septiembre	2023-03-09T00:00:00	2024-11-08T00:00:00	8	Radiación solar	0
115057	7	Sololá	704	Santa Lucía Utatlán 	7	Santa Rita 	9	Septiembre	2023-03-09T00:00:00	2024-11-08T01:00:00	2	Temperatura media	18.6
115058	7	Sololá	704	Santa Lucía Utatlán 	7	Santa Rita 	9	Septiembre	2023-03-09T00:00:00	2024-11-08T01:00:00	4	Temperatura máxima	19.2
115059	7	Sololá	704	Santa Lucía Utatlán 	7	Santa Rita 	9	Septiembre	2023-03-09T00:00:00	2024-11-08T01:00:00	3	Temperatura mínima	18.2
115060	7	Sololá	704	Santa Lucía Utatlán 	7	Santa Rita 	9	Septiembre	2023-03-09T00:00:00	2024-11-08T01:00:00	5	Humedad	82
115061	7	Sololá	704	Santa Lucía Utatlán 	7	Santa Rita 	9	Septiembre	2023-03-09T00:00:00	2024-11-08T01:00:00	6	Velocidad del viento	4.8
115062	7	Sololá	704	Santa Lucía Utatlán 	7	Santa Rita 	9	Septiembre	2023-03-09T00:00:00	2024-11-08T01:00:00	7	Dirección del viento	4.83
115063	7	Sololá	704	Santa Lucía Utatlán 	7	Santa Rita 	9	Septiembre	2023-03-09T00:00:00	2024-11-08T01:00:00	1	Precipitación	0
115064	7	Sololá	704	Santa Lucía Utatlán 	7	Santa Rita 	9	Septiembre	2023-03-09T00:00:00	2024-11-08T01:00:00	8	Radiación solar	0
115065	7	Sololá	704	Santa Lucía Utatlán 	7	Santa Rita 	9	Septiembre	2023-03-09T00:00:00	2024-11-08T02:00:00	2	Temperatura media	20.2
115066	7	Sololá	704	Santa Lucía Utatlán 	7	Santa Rita 	9	Septiembre	2023-03-09T00:00:00	2024-11-08T02:00:00	4	Temperatura máxima	20.3
115067	7	Sololá	704	Santa Lucía Utatlán 	7	Santa Rita 	9	Septiembre	2023-03-09T00:00:00	2024-11-08T02:00:00	3	Temperatura mínima	18.2
115068	7	Sololá	704	Santa Lucía Utatlán 	7	Santa Rita 	9	Septiembre	2023-03-09T00:00:00	2024-11-08T02:00:00	5	Humedad	76
115069	7	Sololá	704	Santa Lucía Utatlán 	7	Santa Rita 	9	Septiembre	2023-03-09T00:00:00	2024-11-08T02:00:00	6	Velocidad del viento	4.8
115070	7	Sololá	704	Santa Lucía Utatlán 	7	Santa Rita 	9	Septiembre	2023-03-09T00:00:00	2024-11-08T02:00:00	7	Dirección del viento	4.83
115071	7	Sololá	704	Santa Lucía Utatlán 	7	Santa Rita 	9	Septiembre	2023-03-09T00:00:00	2024-11-08T02:00:00	1	Precipitación	0
115072	7	Sololá	704	Santa Lucía Utatlán 	7	Santa Rita 	9	Septiembre	2023-03-09T00:00:00	2024-11-08T02:00:00	8	Radiación solar	0
115073	7	Sololá	704	Santa Lucía Utatlán 	7	Santa Rita 	9	Septiembre	2023-03-09T00:00:00	2024-11-08T03:00:00	2	Temperatura media	22.7
115074	7	Sololá	704	Santa Lucía Utatlán 	7	Santa Rita 	9	Septiembre	2023-03-09T00:00:00	2024-11-08T03:00:00	4	Temperatura máxima	22.8
115075	7	Sololá	704	Santa Lucía Utatlán 	7	Santa Rita 	9	Septiembre	2023-03-09T00:00:00	2024-11-08T03:00:00	3	Temperatura mínima	20.2
115076	7	Sololá	704	Santa Lucía Utatlán 	7	Santa Rita 	9	Septiembre	2023-03-09T00:00:00	2024-11-08T03:00:00	5	Humedad	73
115077	7	Sololá	704	Santa Lucía Utatlán 	7	Santa Rita 	9	Septiembre	2023-03-09T00:00:00	2024-11-08T03:00:00	6	Velocidad del viento	3.2
115078	7	Sololá	704	Santa Lucía Utatlán 	7	Santa Rita 	9	Septiembre	2023-03-09T00:00:00	2024-11-08T03:00:00	7	Dirección del viento	3.22
115079	7	Sololá	704	Santa Lucía Utatlán 	7	Santa Rita 	9	Septiembre	2023-03-09T00:00:00	2024-11-08T03:00:00	1	Precipitación	0
115080	7	Sololá	704	Santa Lucía Utatlán 	7	Santa Rita 	9	Septiembre	2023-03-09T00:00:00	2024-11-08T03:00:00	8	Radiación solar	0
115081	7	Sololá	704	Santa Lucía Utatlán 	7	Santa Rita 	9	Septiembre	2023-03-09T00:00:00	2024-11-08T04:00:00	2	Temperatura media	24.1
115082	7	Sololá	704	Santa Lucía Utatlán 	7	Santa Rita 	9	Septiembre	2023-03-09T00:00:00	2024-11-08T04:00:00	4	Temperatura máxima	24.1
115083	7	Sololá	704	Santa Lucía Utatlán 	7	Santa Rita 	9	Septiembre	2023-03-09T00:00:00	2024-11-08T04:00:00	3	Temperatura mínima	22.7
115084	7	Sololá	704	Santa Lucía Utatlán 	7	Santa Rita 	9	Septiembre	2023-03-09T00:00:00	2024-11-08T04:00:00	5	Humedad	62
115085	7	Sololá	704	Santa Lucía Utatlán 	7	Santa Rita 	9	Septiembre	2023-03-09T00:00:00	2024-11-08T04:00:00	6	Velocidad del viento	11.3
115086	7	Sololá	704	Santa Lucía Utatlán 	7	Santa Rita 	9	Septiembre	2023-03-09T00:00:00	2024-11-08T04:00:00	7	Dirección del viento	11.27
115087	7	Sololá	704	Santa Lucía Utatlán 	7	Santa Rita 	9	Septiembre	2023-03-09T00:00:00	2024-11-08T04:00:00	1	Precipitación	0
115088	7	Sololá	704	Santa Lucía Utatlán 	7	Santa Rita 	9	Septiembre	2023-03-09T00:00:00	2024-11-08T04:00:00	8	Radiación solar	0
115089	7	Sololá	704	Santa Lucía Utatlán 	7	Santa Rita 	9	Septiembre	2023-03-09T00:00:00	2024-11-08T05:00:00	2	Temperatura media	24.8
115090	7	Sololá	704	Santa Lucía Utatlán 	7	Santa Rita 	9	Septiembre	2023-03-09T00:00:00	2024-11-08T05:00:00	4	Temperatura máxima	25.2
115091	7	Sololá	704	Santa Lucía Utatlán 	7	Santa Rita 	9	Septiembre	2023-03-09T00:00:00	2024-11-08T05:00:00	3	Temperatura mínima	24.1
115092	7	Sololá	704	Santa Lucía Utatlán 	7	Santa Rita 	9	Septiembre	2023-03-09T00:00:00	2024-11-08T05:00:00	5	Humedad	59
115093	7	Sololá	704	Santa Lucía Utatlán 	7	Santa Rita 	9	Septiembre	2023-03-09T00:00:00	2024-11-08T05:00:00	6	Velocidad del viento	11.3
115094	7	Sololá	704	Santa Lucía Utatlán 	7	Santa Rita 	9	Septiembre	2023-03-09T00:00:00	2024-11-08T05:00:00	7	Dirección del viento	11.27
115095	7	Sololá	704	Santa Lucía Utatlán 	7	Santa Rita 	9	Septiembre	2023-03-09T00:00:00	2024-11-08T05:00:00	1	Precipitación	0
115096	7	Sololá	704	Santa Lucía Utatlán 	7	Santa Rita 	9	Septiembre	2023-03-09T00:00:00	2024-11-08T05:00:00	8	Radiación solar	0
115097	7	Sololá	704	Santa Lucía Utatlán 	7	Santa Rita 	9	Septiembre	2023-03-09T00:00:00	2024-11-08T06:00:00	2	Temperatura media	25.3
115098	7	Sololá	704	Santa Lucía Utatlán 	7	Santa Rita 	9	Septiembre	2023-03-09T00:00:00	2024-11-08T06:00:00	4	Temperatura máxima	25.8
115099	7	Sololá	704	Santa Lucía Utatlán 	7	Santa Rita 	9	Septiembre	2023-03-09T00:00:00	2024-11-08T06:00:00	3	Temperatura mínima	24.8
115100	7	Sololá	704	Santa Lucía Utatlán 	7	Santa Rita 	9	Septiembre	2023-03-09T00:00:00	2024-11-08T06:00:00	5	Humedad	61
115101	7	Sololá	704	Santa Lucía Utatlán 	7	Santa Rita 	9	Septiembre	2023-03-09T00:00:00	2024-11-08T06:00:00	6	Velocidad del viento	9.7
115102	7	Sololá	704	Santa Lucía Utatlán 	7	Santa Rita 	9	Septiembre	2023-03-09T00:00:00	2024-11-08T06:00:00	7	Dirección del viento	9.66
115103	7	Sololá	704	Santa Lucía Utatlán 	7	Santa Rita 	9	Septiembre	2023-03-09T00:00:00	2024-11-08T06:00:00	1	Precipitación	0
115104	7	Sololá	704	Santa Lucía Utatlán 	7	Santa Rita 	9	Septiembre	2023-03-09T00:00:00	2024-11-08T06:00:00	8	Radiación solar	2
115105	7	Sololá	704	Santa Lucía Utatlán 	7	Santa Rita 	9	Septiembre	2023-03-09T00:00:00	2024-11-08T07:00:00	2	Temperatura media	25.4
115106	7	Sololá	704	Santa Lucía Utatlán 	7	Santa Rita 	9	Septiembre	2023-03-09T00:00:00	2024-11-08T07:00:00	4	Temperatura máxima	25.8
115107	7	Sololá	704	Santa Lucía Utatlán 	7	Santa Rita 	9	Septiembre	2023-03-09T00:00:00	2024-11-08T07:00:00	3	Temperatura mínima	25.2
115108	7	Sololá	704	Santa Lucía Utatlán 	7	Santa Rita 	9	Septiembre	2023-03-09T00:00:00	2024-11-08T07:00:00	5	Humedad	59
115109	7	Sololá	704	Santa Lucía Utatlán 	7	Santa Rita 	9	Septiembre	2023-03-09T00:00:00	2024-11-08T07:00:00	6	Velocidad del viento	8
115110	7	Sololá	704	Santa Lucía Utatlán 	7	Santa Rita 	9	Septiembre	2023-03-09T00:00:00	2024-11-08T07:00:00	7	Dirección del viento	8.05
115111	7	Sololá	704	Santa Lucía Utatlán 	7	Santa Rita 	9	Septiembre	2023-03-09T00:00:00	2024-11-08T07:00:00	1	Precipitación	0
115112	7	Sololá	704	Santa Lucía Utatlán 	7	Santa Rita 	9	Septiembre	2023-03-09T00:00:00	2024-11-08T07:00:00	8	Radiación solar	90
115113	7	Sololá	704	Santa Lucía Utatlán 	7	Santa Rita 	9	Septiembre	2023-03-09T00:00:00	2024-11-08T08:00:00	2	Temperatura media	25.9
115114	7	Sololá	704	Santa Lucía Utatlán 	7	Santa Rita 	9	Septiembre	2023-03-09T00:00:00	2024-11-08T08:00:00	4	Temperatura máxima	26.2
115115	7	Sololá	704	Santa Lucía Utatlán 	7	Santa Rita 	9	Septiembre	2023-03-09T00:00:00	2024-11-08T08:00:00	3	Temperatura mínima	25.4
115116	7	Sololá	704	Santa Lucía Utatlán 	7	Santa Rita 	9	Septiembre	2023-03-09T00:00:00	2024-11-08T08:00:00	5	Humedad	55
115117	7	Sololá	704	Santa Lucía Utatlán 	7	Santa Rita 	9	Septiembre	2023-03-09T00:00:00	2024-11-08T08:00:00	6	Velocidad del viento	9.7
115118	7	Sololá	704	Santa Lucía Utatlán 	7	Santa Rita 	9	Septiembre	2023-03-09T00:00:00	2024-11-08T08:00:00	7	Dirección del viento	9.66
115119	7	Sololá	704	Santa Lucía Utatlán 	7	Santa Rita 	9	Septiembre	2023-03-09T00:00:00	2024-11-08T08:00:00	1	Precipitación	0
115120	7	Sololá	704	Santa Lucía Utatlán 	7	Santa Rita 	9	Septiembre	2023-03-09T00:00:00	2024-11-08T08:00:00	8	Radiación solar	355
115121	7	Sololá	704	Santa Lucía Utatlán 	7	Santa Rita 	9	Septiembre	2023-03-09T00:00:00	2024-11-08T09:00:00	2	Temperatura media	26.4
115122	7	Sololá	704	Santa Lucía Utatlán 	7	Santa Rita 	9	Septiembre	2023-03-09T00:00:00	2024-11-08T09:00:00	4	Temperatura máxima	26.5
115123	7	Sololá	704	Santa Lucía Utatlán 	7	Santa Rita 	9	Septiembre	2023-03-09T00:00:00	2024-11-08T09:00:00	3	Temperatura mínima	25.8
115124	7	Sololá	704	Santa Lucía Utatlán 	7	Santa Rita 	9	Septiembre	2023-03-09T00:00:00	2024-11-08T09:00:00	5	Humedad	53
115125	7	Sololá	704	Santa Lucía Utatlán 	7	Santa Rita 	9	Septiembre	2023-03-09T00:00:00	2024-11-08T09:00:00	6	Velocidad del viento	11.3
115126	7	Sololá	704	Santa Lucía Utatlán 	7	Santa Rita 	9	Septiembre	2023-03-09T00:00:00	2024-11-08T09:00:00	7	Dirección del viento	11.27
115127	7	Sololá	704	Santa Lucía Utatlán 	7	Santa Rita 	9	Septiembre	2023-03-09T00:00:00	2024-11-08T09:00:00	1	Precipitación	0
115128	7	Sololá	704	Santa Lucía Utatlán 	7	Santa Rita 	9	Septiembre	2023-03-09T00:00:00	2024-11-08T09:00:00	8	Radiación solar	616
115129	7	Sololá	704	Santa Lucía Utatlán 	7	Santa Rita 	9	Septiembre	2023-03-09T00:00:00	2024-11-08T10:00:00	2	Temperatura media	25.7
115130	7	Sololá	704	Santa Lucía Utatlán 	7	Santa Rita 	9	Septiembre	2023-03-09T00:00:00	2024-11-08T10:00:00	4	Temperatura máxima	26.4
115131	7	Sololá	704	Santa Lucía Utatlán 	7	Santa Rita 	9	Septiembre	2023-03-09T00:00:00	2024-11-08T10:00:00	3	Temperatura mínima	25.7
115132	7	Sololá	704	Santa Lucía Utatlán 	7	Santa Rita 	9	Septiembre	2023-03-09T00:00:00	2024-11-08T10:00:00	5	Humedad	64
115133	7	Sololá	704	Santa Lucía Utatlán 	7	Santa Rita 	9	Septiembre	2023-03-09T00:00:00	2024-11-08T10:00:00	6	Velocidad del viento	9.7
115134	7	Sololá	704	Santa Lucía Utatlán 	7	Santa Rita 	9	Septiembre	2023-03-09T00:00:00	2024-11-08T10:00:00	7	Dirección del viento	9.66
115135	7	Sololá	704	Santa Lucía Utatlán 	7	Santa Rita 	9	Septiembre	2023-03-09T00:00:00	2024-11-08T10:00:00	1	Precipitación	0
115136	7	Sololá	704	Santa Lucía Utatlán 	7	Santa Rita 	9	Septiembre	2023-03-09T00:00:00	2024-11-08T10:00:00	8	Radiación solar	820
115137	7	Sololá	704	Santa Lucía Utatlán 	7	Santa Rita 	9	Septiembre	2023-03-09T00:00:00	2024-11-08T11:00:00	2	Temperatura media	23.8
115138	7	Sololá	704	Santa Lucía Utatlán 	7	Santa Rita 	9	Septiembre	2023-03-09T00:00:00	2024-11-08T11:00:00	4	Temperatura máxima	25.7
115139	7	Sololá	704	Santa Lucía Utatlán 	7	Santa Rita 	9	Septiembre	2023-03-09T00:00:00	2024-11-08T11:00:00	3	Temperatura mínima	23.8
115140	7	Sololá	704	Santa Lucía Utatlán 	7	Santa Rita 	9	Septiembre	2023-03-09T00:00:00	2024-11-08T11:00:00	5	Humedad	79
115141	7	Sololá	704	Santa Lucía Utatlán 	7	Santa Rita 	9	Septiembre	2023-03-09T00:00:00	2024-11-08T11:00:00	6	Velocidad del viento	9.7
115142	7	Sololá	704	Santa Lucía Utatlán 	7	Santa Rita 	9	Septiembre	2023-03-09T00:00:00	2024-11-08T11:00:00	7	Dirección del viento	9.66
115143	7	Sololá	704	Santa Lucía Utatlán 	7	Santa Rita 	9	Septiembre	2023-03-09T00:00:00	2024-11-08T11:00:00	1	Precipitación	0
115144	7	Sololá	704	Santa Lucía Utatlán 	7	Santa Rita 	9	Septiembre	2023-03-09T00:00:00	2024-11-08T11:00:00	8	Radiación solar	1069
115145	7	Sololá	704	Santa Lucía Utatlán 	7	Santa Rita 	9	Septiembre	2023-03-09T00:00:00	2024-11-08T12:00:00	2	Temperatura media	20.8
115146	7	Sololá	704	Santa Lucía Utatlán 	7	Santa Rita 	9	Septiembre	2023-03-09T00:00:00	2024-11-08T12:00:00	4	Temperatura máxima	23.8
115147	7	Sololá	704	Santa Lucía Utatlán 	7	Santa Rita 	9	Septiembre	2023-03-09T00:00:00	2024-11-08T12:00:00	3	Temperatura mínima	20.6
115148	7	Sololá	704	Santa Lucía Utatlán 	7	Santa Rita 	9	Septiembre	2023-03-09T00:00:00	2024-11-08T12:00:00	5	Humedad	91
115149	7	Sololá	704	Santa Lucía Utatlán 	7	Santa Rita 	9	Septiembre	2023-03-09T00:00:00	2024-11-08T12:00:00	6	Velocidad del viento	6.4
115150	7	Sololá	704	Santa Lucía Utatlán 	7	Santa Rita 	9	Septiembre	2023-03-09T00:00:00	2024-11-08T12:00:00	7	Dirección del viento	6.44
115151	7	Sololá	704	Santa Lucía Utatlán 	7	Santa Rita 	9	Septiembre	2023-03-09T00:00:00	2024-11-08T12:00:00	1	Precipitación	1.8
115152	7	Sololá	704	Santa Lucía Utatlán 	7	Santa Rita 	9	Septiembre	2023-03-09T00:00:00	2024-11-08T12:00:00	8	Radiación solar	1108
115153	7	Sololá	704	Santa Lucía Utatlán 	7	Santa Rita 	9	Septiembre	2023-03-09T00:00:00	2024-11-08T13:00:00	2	Temperatura media	20.3
115154	7	Sololá	704	Santa Lucía Utatlán 	7	Santa Rita 	9	Septiembre	2023-03-09T00:00:00	2024-11-08T13:00:00	4	Temperatura máxima	20.9
115155	7	Sololá	704	Santa Lucía Utatlán 	7	Santa Rita 	9	Septiembre	2023-03-09T00:00:00	2024-11-08T13:00:00	3	Temperatura mínima	20.3
115156	7	Sololá	704	Santa Lucía Utatlán 	7	Santa Rita 	9	Septiembre	2023-03-09T00:00:00	2024-11-08T13:00:00	5	Humedad	93
115157	7	Sololá	704	Santa Lucía Utatlán 	7	Santa Rita 	9	Septiembre	2023-03-09T00:00:00	2024-11-08T13:00:00	6	Velocidad del viento	1.6
115158	7	Sololá	704	Santa Lucía Utatlán 	7	Santa Rita 	9	Septiembre	2023-03-09T00:00:00	2024-11-08T13:00:00	7	Dirección del viento	1.61
115159	7	Sololá	704	Santa Lucía Utatlán 	7	Santa Rita 	9	Septiembre	2023-03-09T00:00:00	2024-11-08T13:00:00	1	Precipitación	0
115160	7	Sololá	704	Santa Lucía Utatlán 	7	Santa Rita 	9	Septiembre	2023-03-09T00:00:00	2024-11-08T13:00:00	8	Radiación solar	1085
115161	7	Sololá	704	Santa Lucía Utatlán 	7	Santa Rita 	9	Septiembre	2023-03-09T00:00:00	2024-11-08T14:00:00	2	Temperatura media	19.7
115162	7	Sololá	704	Santa Lucía Utatlán 	7	Santa Rita 	9	Septiembre	2023-03-09T00:00:00	2024-11-08T14:00:00	4	Temperatura máxima	20.3
115163	7	Sololá	704	Santa Lucía Utatlán 	7	Santa Rita 	9	Septiembre	2023-03-09T00:00:00	2024-11-08T14:00:00	3	Temperatura mínima	19.6
115164	7	Sololá	704	Santa Lucía Utatlán 	7	Santa Rita 	9	Septiembre	2023-03-09T00:00:00	2024-11-08T14:00:00	5	Humedad	93
115165	7	Sololá	704	Santa Lucía Utatlán 	7	Santa Rita 	9	Septiembre	2023-03-09T00:00:00	2024-11-08T14:00:00	6	Velocidad del viento	1.6
115166	7	Sololá	704	Santa Lucía Utatlán 	7	Santa Rita 	9	Septiembre	2023-03-09T00:00:00	2024-11-08T14:00:00	7	Dirección del viento	1.61
115167	7	Sololá	704	Santa Lucía Utatlán 	7	Santa Rita 	9	Septiembre	2023-03-09T00:00:00	2024-11-08T14:00:00	1	Precipitación	0
115168	7	Sololá	704	Santa Lucía Utatlán 	7	Santa Rita 	9	Septiembre	2023-03-09T00:00:00	2024-11-08T14:00:00	8	Radiación solar	1026
115169	7	Sololá	704	Santa Lucía Utatlán 	7	Santa Rita 	9	Septiembre	2023-03-09T00:00:00	2024-11-08T15:00:00	2	Temperatura media	19.6
115170	7	Sololá	704	Santa Lucía Utatlán 	7	Santa Rita 	9	Septiembre	2023-03-09T00:00:00	2024-11-08T15:00:00	4	Temperatura máxima	19.7
115171	7	Sololá	704	Santa Lucía Utatlán 	7	Santa Rita 	9	Septiembre	2023-03-09T00:00:00	2024-11-08T15:00:00	3	Temperatura mínima	19.6
115172	7	Sololá	704	Santa Lucía Utatlán 	7	Santa Rita 	9	Septiembre	2023-03-09T00:00:00	2024-11-08T15:00:00	5	Humedad	94
115173	7	Sololá	704	Santa Lucía Utatlán 	7	Santa Rita 	9	Septiembre	2023-03-09T00:00:00	2024-11-08T15:00:00	6	Velocidad del viento	0
115174	7	Sololá	704	Santa Lucía Utatlán 	7	Santa Rita 	9	Septiembre	2023-03-09T00:00:00	2024-11-08T15:00:00	7	Dirección del viento	0
115175	7	Sololá	704	Santa Lucía Utatlán 	7	Santa Rita 	9	Septiembre	2023-03-09T00:00:00	2024-11-08T15:00:00	1	Precipitación	0.8
115176	7	Sololá	704	Santa Lucía Utatlán 	7	Santa Rita 	9	Septiembre	2023-03-09T00:00:00	2024-11-08T15:00:00	8	Radiación solar	771
115177	7	Sololá	704	Santa Lucía Utatlán 	7	Santa Rita 	9	Septiembre	2023-03-09T00:00:00	2024-11-08T16:00:00	2	Temperatura media	18.6
115178	7	Sololá	704	Santa Lucía Utatlán 	7	Santa Rita 	9	Septiembre	2023-03-09T00:00:00	2024-11-08T16:00:00	4	Temperatura máxima	19.6
115179	7	Sololá	704	Santa Lucía Utatlán 	7	Santa Rita 	9	Septiembre	2023-03-09T00:00:00	2024-11-08T16:00:00	3	Temperatura mínima	18.6
115180	7	Sololá	704	Santa Lucía Utatlán 	7	Santa Rita 	9	Septiembre	2023-03-09T00:00:00	2024-11-08T16:00:00	5	Humedad	92
115181	7	Sololá	704	Santa Lucía Utatlán 	7	Santa Rita 	9	Septiembre	2023-03-09T00:00:00	2024-11-08T16:00:00	6	Velocidad del viento	1.6
115182	7	Sololá	704	Santa Lucía Utatlán 	7	Santa Rita 	9	Septiembre	2023-03-09T00:00:00	2024-11-08T16:00:00	7	Dirección del viento	1.61
115183	7	Sololá	704	Santa Lucía Utatlán 	7	Santa Rita 	9	Septiembre	2023-03-09T00:00:00	2024-11-08T16:00:00	1	Precipitación	0.4
115184	7	Sololá	704	Santa Lucía Utatlán 	7	Santa Rita 	9	Septiembre	2023-03-09T00:00:00	2024-11-08T16:00:00	8	Radiación solar	410
115185	7	Sololá	704	Santa Lucía Utatlán 	7	Santa Rita 	9	Septiembre	2023-03-09T00:00:00	2024-11-08T17:00:00	2	Temperatura media	18.6
115186	7	Sololá	704	Santa Lucía Utatlán 	7	Santa Rita 	9	Septiembre	2023-03-09T00:00:00	2024-11-08T17:00:00	4	Temperatura máxima	18.6
115187	7	Sololá	704	Santa Lucía Utatlán 	7	Santa Rita 	9	Septiembre	2023-03-09T00:00:00	2024-11-08T17:00:00	3	Temperatura mínima	18.3
115188	7	Sololá	704	Santa Lucía Utatlán 	7	Santa Rita 	9	Septiembre	2023-03-09T00:00:00	2024-11-08T17:00:00	5	Humedad	95
115189	7	Sololá	704	Santa Lucía Utatlán 	7	Santa Rita 	9	Septiembre	2023-03-09T00:00:00	2024-11-08T17:00:00	6	Velocidad del viento	1.6
115190	7	Sololá	704	Santa Lucía Utatlán 	7	Santa Rita 	9	Septiembre	2023-03-09T00:00:00	2024-11-08T17:00:00	7	Dirección del viento	1.61
115191	7	Sololá	704	Santa Lucía Utatlán 	7	Santa Rita 	9	Septiembre	2023-03-09T00:00:00	2024-11-08T17:00:00	1	Precipitación	0
115192	7	Sololá	704	Santa Lucía Utatlán 	7	Santa Rita 	9	Septiembre	2023-03-09T00:00:00	2024-11-08T17:00:00	8	Radiación solar	106
115193	7	Sololá	704	Santa Lucía Utatlán 	7	Santa Rita 	9	Septiembre	2023-03-09T00:00:00	2024-11-08T18:00:00	2	Temperatura media	18.3
115194	7	Sololá	704	Santa Lucía Utatlán 	7	Santa Rita 	9	Septiembre	2023-03-09T00:00:00	2024-11-08T18:00:00	4	Temperatura máxima	18.9
115195	7	Sololá	704	Santa Lucía Utatlán 	7	Santa Rita 	9	Septiembre	2023-03-09T00:00:00	2024-11-08T18:00:00	3	Temperatura mínima	18.3
115196	7	Sololá	704	Santa Lucía Utatlán 	7	Santa Rita 	9	Septiembre	2023-03-09T00:00:00	2024-11-08T18:00:00	5	Humedad	92
115197	7	Sololá	704	Santa Lucía Utatlán 	7	Santa Rita 	9	Septiembre	2023-03-09T00:00:00	2024-11-08T18:00:00	6	Velocidad del viento	3.2
115198	7	Sololá	704	Santa Lucía Utatlán 	7	Santa Rita 	9	Septiembre	2023-03-09T00:00:00	2024-11-08T18:00:00	7	Dirección del viento	3.22
115199	7	Sololá	704	Santa Lucía Utatlán 	7	Santa Rita 	9	Septiembre	2023-03-09T00:00:00	2024-11-08T18:00:00	1	Precipitación	2.4
115200	7	Sololá	704	Santa Lucía Utatlán 	7	Santa Rita 	9	Septiembre	2023-03-09T00:00:00	2024-11-08T18:00:00	8	Radiación solar	42
115201	7	Sololá	704	Santa Lucía Utatlán 	7	Santa Rita 	9	Septiembre	2023-03-09T00:00:00	2024-11-08T19:00:00	2	Temperatura media	18.2
115202	7	Sololá	704	Santa Lucía Utatlán 	7	Santa Rita 	9	Septiembre	2023-03-09T00:00:00	2024-11-08T19:00:00	4	Temperatura máxima	18.3
115203	7	Sololá	704	Santa Lucía Utatlán 	7	Santa Rita 	9	Septiembre	2023-03-09T00:00:00	2024-11-08T19:00:00	3	Temperatura mínima	18.1
115204	7	Sololá	704	Santa Lucía Utatlán 	7	Santa Rita 	9	Septiembre	2023-03-09T00:00:00	2024-11-08T19:00:00	5	Humedad	95
115205	7	Sololá	704	Santa Lucía Utatlán 	7	Santa Rita 	9	Septiembre	2023-03-09T00:00:00	2024-11-08T19:00:00	6	Velocidad del viento	1.6
115206	7	Sololá	704	Santa Lucía Utatlán 	7	Santa Rita 	9	Septiembre	2023-03-09T00:00:00	2024-11-08T19:00:00	7	Dirección del viento	1.61
115207	7	Sololá	704	Santa Lucía Utatlán 	7	Santa Rita 	9	Septiembre	2023-03-09T00:00:00	2024-11-08T19:00:00	1	Precipitación	0.2
115208	7	Sololá	704	Santa Lucía Utatlán 	7	Santa Rita 	9	Septiembre	2023-03-09T00:00:00	2024-11-08T19:00:00	8	Radiación solar	0
115209	7	Sololá	704	Santa Lucía Utatlán 	7	Santa Rita 	9	Septiembre	2023-03-09T00:00:00	2024-11-08T20:00:00	2	Temperatura media	18.2
115210	7	Sololá	704	Santa Lucía Utatlán 	7	Santa Rita 	9	Septiembre	2023-03-09T00:00:00	2024-11-08T20:00:00	4	Temperatura máxima	18.2
115211	7	Sololá	704	Santa Lucía Utatlán 	7	Santa Rita 	9	Septiembre	2023-03-09T00:00:00	2024-11-08T20:00:00	3	Temperatura mínima	17.9
115212	7	Sololá	704	Santa Lucía Utatlán 	7	Santa Rita 	9	Septiembre	2023-03-09T00:00:00	2024-11-08T20:00:00	5	Humedad	95
115213	7	Sololá	704	Santa Lucía Utatlán 	7	Santa Rita 	9	Septiembre	2023-03-09T00:00:00	2024-11-08T20:00:00	6	Velocidad del viento	1.6
115214	7	Sololá	704	Santa Lucía Utatlán 	7	Santa Rita 	9	Septiembre	2023-03-09T00:00:00	2024-11-08T20:00:00	7	Dirección del viento	1.61
115215	7	Sololá	704	Santa Lucía Utatlán 	7	Santa Rita 	9	Septiembre	2023-03-09T00:00:00	2024-11-08T20:00:00	1	Precipitación	0.2
115216	7	Sololá	704	Santa Lucía Utatlán 	7	Santa Rita 	9	Septiembre	2023-03-09T00:00:00	2024-11-08T20:00:00	8	Radiación solar	0
115217	7	Sololá	704	Santa Lucía Utatlán 	7	Santa Rita 	9	Septiembre	2023-03-09T00:00:00	2024-11-08T21:00:00	2	Temperatura media	17.1
115218	7	Sololá	704	Santa Lucía Utatlán 	7	Santa Rita 	9	Septiembre	2023-03-09T00:00:00	2024-11-08T21:00:00	4	Temperatura máxima	18.2
115219	7	Sololá	704	Santa Lucía Utatlán 	7	Santa Rita 	9	Septiembre	2023-03-09T00:00:00	2024-11-08T21:00:00	3	Temperatura mínima	17.1
115220	7	Sololá	704	Santa Lucía Utatlán 	7	Santa Rita 	9	Septiembre	2023-03-09T00:00:00	2024-11-08T21:00:00	5	Humedad	94
115221	7	Sololá	704	Santa Lucía Utatlán 	7	Santa Rita 	9	Septiembre	2023-03-09T00:00:00	2024-11-08T21:00:00	6	Velocidad del viento	1.6
115222	7	Sololá	704	Santa Lucía Utatlán 	7	Santa Rita 	9	Septiembre	2023-03-09T00:00:00	2024-11-08T21:00:00	7	Dirección del viento	1.61
115223	7	Sololá	704	Santa Lucía Utatlán 	7	Santa Rita 	9	Septiembre	2023-03-09T00:00:00	2024-11-08T21:00:00	1	Precipitación	0
115224	7	Sololá	704	Santa Lucía Utatlán 	7	Santa Rita 	9	Septiembre	2023-03-09T00:00:00	2024-11-08T21:00:00	8	Radiación solar	0
115225	7	Sololá	704	Santa Lucía Utatlán 	7	Santa Rita 	9	Septiembre	2023-03-09T00:00:00	2024-11-08T22:00:00	2	Temperatura media	17.7
115226	7	Sololá	704	Santa Lucía Utatlán 	7	Santa Rita 	9	Septiembre	2023-03-09T00:00:00	2024-11-08T22:00:00	4	Temperatura máxima	18.4
115227	7	Sololá	704	Santa Lucía Utatlán 	7	Santa Rita 	9	Septiembre	2023-03-09T00:00:00	2024-11-08T22:00:00	3	Temperatura mínima	17.1
115228	7	Sololá	704	Santa Lucía Utatlán 	7	Santa Rita 	9	Septiembre	2023-03-09T00:00:00	2024-11-08T22:00:00	5	Humedad	88
115229	7	Sololá	704	Santa Lucía Utatlán 	7	Santa Rita 	9	Septiembre	2023-03-09T00:00:00	2024-11-08T22:00:00	6	Velocidad del viento	3.2
115230	7	Sololá	704	Santa Lucía Utatlán 	7	Santa Rita 	9	Septiembre	2023-03-09T00:00:00	2024-11-08T22:00:00	7	Dirección del viento	3.22
115231	7	Sololá	704	Santa Lucía Utatlán 	7	Santa Rita 	9	Septiembre	2023-03-09T00:00:00	2024-11-08T22:00:00	1	Precipitación	0
115232	7	Sololá	704	Santa Lucía Utatlán 	7	Santa Rita 	9	Septiembre	2023-03-09T00:00:00	2024-11-08T22:00:00	8	Radiación solar	0
115233	7	Sololá	704	Santa Lucía Utatlán 	7	Santa Rita 	9	Septiembre	2023-03-09T00:00:00	2024-11-08T23:00:00	2	Temperatura media	15.8
115234	7	Sololá	704	Santa Lucía Utatlán 	7	Santa Rita 	9	Septiembre	2023-03-09T00:00:00	2024-11-08T23:00:00	4	Temperatura máxima	17.7
115235	7	Sololá	704	Santa Lucía Utatlán 	7	Santa Rita 	9	Septiembre	2023-03-09T00:00:00	2024-11-08T23:00:00	3	Temperatura mínima	15.8
115236	7	Sololá	704	Santa Lucía Utatlán 	7	Santa Rita 	9	Septiembre	2023-03-09T00:00:00	2024-11-08T23:00:00	5	Humedad	94
115237	7	Sololá	704	Santa Lucía Utatlán 	7	Santa Rita 	9	Septiembre	2023-03-09T00:00:00	2024-11-08T23:00:00	6	Velocidad del viento	1.6
115238	7	Sololá	704	Santa Lucía Utatlán 	7	Santa Rita 	9	Septiembre	2023-03-09T00:00:00	2024-11-08T23:00:00	7	Dirección del viento	1.61
115239	7	Sololá	704	Santa Lucía Utatlán 	7	Santa Rita 	9	Septiembre	2023-03-09T00:00:00	2024-11-08T23:00:00	1	Precipitación	0
115240	7	Sololá	704	Santa Lucía Utatlán 	7	Santa Rita 	9	Septiembre	2023-03-09T00:00:00	2024-11-08T23:00:00	8	Radiación solar	0
115241	7	Sololá	704	Santa Lucía Utatlán 	7	Santa Rita 	9	Septiembre	2023-04-09T00:00:00	2024-11-08T00:00:00	2	Temperatura media	15.6
115242	7	Sololá	704	Santa Lucía Utatlán 	7	Santa Rita 	9	Septiembre	2023-04-09T00:00:00	2024-11-08T00:00:00	4	Temperatura máxima	15.9
115243	7	Sololá	704	Santa Lucía Utatlán 	7	Santa Rita 	9	Septiembre	2023-04-09T00:00:00	2024-11-08T00:00:00	3	Temperatura mínima	15.6
115244	7	Sololá	704	Santa Lucía Utatlán 	7	Santa Rita 	9	Septiembre	2023-04-09T00:00:00	2024-11-08T00:00:00	5	Humedad	93
115245	7	Sololá	704	Santa Lucía Utatlán 	7	Santa Rita 	9	Septiembre	2023-04-09T00:00:00	2024-11-08T00:00:00	6	Velocidad del viento	3.2
115246	7	Sololá	704	Santa Lucía Utatlán 	7	Santa Rita 	9	Septiembre	2023-04-09T00:00:00	2024-11-08T00:00:00	7	Dirección del viento	3.22
115247	7	Sololá	704	Santa Lucía Utatlán 	7	Santa Rita 	9	Septiembre	2023-04-09T00:00:00	2024-11-08T00:00:00	1	Precipitación	0
115248	7	Sololá	704	Santa Lucía Utatlán 	7	Santa Rita 	9	Septiembre	2023-04-09T00:00:00	2024-11-08T00:00:00	8	Radiación solar	0
115249	7	Sololá	704	Santa Lucía Utatlán 	7	Santa Rita 	9	Septiembre	2023-04-09T00:00:00	2024-11-08T01:00:00	2	Temperatura media	15.5
115250	7	Sololá	704	Santa Lucía Utatlán 	7	Santa Rita 	9	Septiembre	2023-04-09T00:00:00	2024-11-08T01:00:00	4	Temperatura máxima	15.6
115251	7	Sololá	704	Santa Lucía Utatlán 	7	Santa Rita 	9	Septiembre	2023-04-09T00:00:00	2024-11-08T01:00:00	3	Temperatura mínima	15.2
115252	7	Sololá	704	Santa Lucía Utatlán 	7	Santa Rita 	9	Septiembre	2023-04-09T00:00:00	2024-11-08T01:00:00	5	Humedad	93
115253	7	Sololá	704	Santa Lucía Utatlán 	7	Santa Rita 	9	Septiembre	2023-04-09T00:00:00	2024-11-08T01:00:00	6	Velocidad del viento	3.2
115254	7	Sololá	704	Santa Lucía Utatlán 	7	Santa Rita 	9	Septiembre	2023-04-09T00:00:00	2024-11-08T01:00:00	7	Dirección del viento	3.22
115255	7	Sololá	704	Santa Lucía Utatlán 	7	Santa Rita 	9	Septiembre	2023-04-09T00:00:00	2024-11-08T01:00:00	1	Precipitación	0
115256	7	Sololá	704	Santa Lucía Utatlán 	7	Santa Rita 	9	Septiembre	2023-04-09T00:00:00	2024-11-08T01:00:00	8	Radiación solar	0
115257	7	Sololá	704	Santa Lucía Utatlán 	7	Santa Rita 	9	Septiembre	2023-04-09T00:00:00	2024-11-08T02:00:00	2	Temperatura media	17.9
115258	7	Sololá	704	Santa Lucía Utatlán 	7	Santa Rita 	9	Septiembre	2023-04-09T00:00:00	2024-11-08T02:00:00	4	Temperatura máxima	17.9
115259	7	Sololá	704	Santa Lucía Utatlán 	7	Santa Rita 	9	Septiembre	2023-04-09T00:00:00	2024-11-08T02:00:00	3	Temperatura mínima	15.5
115260	7	Sololá	704	Santa Lucía Utatlán 	7	Santa Rita 	9	Septiembre	2023-04-09T00:00:00	2024-11-08T02:00:00	5	Humedad	90
115261	7	Sololá	704	Santa Lucía Utatlán 	7	Santa Rita 	9	Septiembre	2023-04-09T00:00:00	2024-11-08T02:00:00	6	Velocidad del viento	1.6
115262	7	Sololá	704	Santa Lucía Utatlán 	7	Santa Rita 	9	Septiembre	2023-04-09T00:00:00	2024-11-08T02:00:00	7	Dirección del viento	1.61
115263	7	Sololá	704	Santa Lucía Utatlán 	7	Santa Rita 	9	Septiembre	2023-04-09T00:00:00	2024-11-08T02:00:00	1	Precipitación	0.2
115264	7	Sololá	704	Santa Lucía Utatlán 	7	Santa Rita 	9	Septiembre	2023-04-09T00:00:00	2024-11-08T02:00:00	8	Radiación solar	0
115265	7	Sololá	704	Santa Lucía Utatlán 	7	Santa Rita 	9	Septiembre	2023-04-09T00:00:00	2024-11-08T03:00:00	2	Temperatura media	21.3
115266	7	Sololá	704	Santa Lucía Utatlán 	7	Santa Rita 	9	Septiembre	2023-04-09T00:00:00	2024-11-08T03:00:00	4	Temperatura máxima	21.3
115267	7	Sololá	704	Santa Lucía Utatlán 	7	Santa Rita 	9	Septiembre	2023-04-09T00:00:00	2024-11-08T03:00:00	3	Temperatura mínima	17.9
115268	7	Sololá	704	Santa Lucía Utatlán 	7	Santa Rita 	9	Septiembre	2023-04-09T00:00:00	2024-11-08T03:00:00	5	Humedad	81
115269	7	Sololá	704	Santa Lucía Utatlán 	7	Santa Rita 	9	Septiembre	2023-04-09T00:00:00	2024-11-08T03:00:00	6	Velocidad del viento	1.6
115270	7	Sololá	704	Santa Lucía Utatlán 	7	Santa Rita 	9	Septiembre	2023-04-09T00:00:00	2024-11-08T03:00:00	7	Dirección del viento	1.61
115271	7	Sololá	704	Santa Lucía Utatlán 	7	Santa Rita 	9	Septiembre	2023-04-09T00:00:00	2024-11-08T03:00:00	1	Precipitación	0
115272	7	Sololá	704	Santa Lucía Utatlán 	7	Santa Rita 	9	Septiembre	2023-04-09T00:00:00	2024-11-08T03:00:00	8	Radiación solar	0
115273	7	Sololá	704	Santa Lucía Utatlán 	7	Santa Rita 	9	Septiembre	2023-04-09T00:00:00	2024-11-08T04:00:00	2	Temperatura media	23.7
115274	7	Sololá	704	Santa Lucía Utatlán 	7	Santa Rita 	9	Septiembre	2023-04-09T00:00:00	2024-11-08T04:00:00	4	Temperatura máxima	23.7
115275	7	Sololá	704	Santa Lucía Utatlán 	7	Santa Rita 	9	Septiembre	2023-04-09T00:00:00	2024-11-08T04:00:00	3	Temperatura mínima	21.3
115276	7	Sololá	704	Santa Lucía Utatlán 	7	Santa Rita 	9	Septiembre	2023-04-09T00:00:00	2024-11-08T04:00:00	5	Humedad	68
115277	7	Sololá	704	Santa Lucía Utatlán 	7	Santa Rita 	9	Septiembre	2023-04-09T00:00:00	2024-11-08T04:00:00	6	Velocidad del viento	4.8
115278	7	Sololá	704	Santa Lucía Utatlán 	7	Santa Rita 	9	Septiembre	2023-04-09T00:00:00	2024-11-08T04:00:00	7	Dirección del viento	4.83
115279	7	Sololá	704	Santa Lucía Utatlán 	7	Santa Rita 	9	Septiembre	2023-04-09T00:00:00	2024-11-08T04:00:00	1	Precipitación	0
115280	7	Sololá	704	Santa Lucía Utatlán 	7	Santa Rita 	9	Septiembre	2023-04-09T00:00:00	2024-11-08T04:00:00	8	Radiación solar	0
115281	7	Sololá	704	Santa Lucía Utatlán 	7	Santa Rita 	9	Septiembre	2023-04-09T00:00:00	2024-11-08T05:00:00	2	Temperatura media	24.1
115282	7	Sololá	704	Santa Lucía Utatlán 	7	Santa Rita 	9	Septiembre	2023-04-09T00:00:00	2024-11-08T05:00:00	4	Temperatura máxima	24.1
115283	7	Sololá	704	Santa Lucía Utatlán 	7	Santa Rita 	9	Septiembre	2023-04-09T00:00:00	2024-11-08T05:00:00	3	Temperatura mínima	23.5
115284	7	Sololá	704	Santa Lucía Utatlán 	7	Santa Rita 	9	Septiembre	2023-04-09T00:00:00	2024-11-08T05:00:00	5	Humedad	68
115285	7	Sololá	704	Santa Lucía Utatlán 	7	Santa Rita 	9	Septiembre	2023-04-09T00:00:00	2024-11-08T05:00:00	6	Velocidad del viento	8
115286	7	Sololá	704	Santa Lucía Utatlán 	7	Santa Rita 	9	Septiembre	2023-04-09T00:00:00	2024-11-08T05:00:00	7	Dirección del viento	8.05
115287	7	Sololá	704	Santa Lucía Utatlán 	7	Santa Rita 	9	Septiembre	2023-04-09T00:00:00	2024-11-08T05:00:00	1	Precipitación	0
115288	7	Sololá	704	Santa Lucía Utatlán 	7	Santa Rita 	9	Septiembre	2023-04-09T00:00:00	2024-11-08T05:00:00	8	Radiación solar	0
115289	7	Sololá	704	Santa Lucía Utatlán 	7	Santa Rita 	9	Septiembre	2023-04-09T00:00:00	2024-11-08T06:00:00	2	Temperatura media	24.7
115290	7	Sololá	704	Santa Lucía Utatlán 	7	Santa Rita 	9	Septiembre	2023-04-09T00:00:00	2024-11-08T06:00:00	4	Temperatura máxima	24.8
115291	7	Sololá	704	Santa Lucía Utatlán 	7	Santa Rita 	9	Septiembre	2023-04-09T00:00:00	2024-11-08T06:00:00	3	Temperatura mínima	24
115292	7	Sololá	704	Santa Lucía Utatlán 	7	Santa Rita 	9	Septiembre	2023-04-09T00:00:00	2024-11-08T06:00:00	5	Humedad	63
115293	7	Sololá	704	Santa Lucía Utatlán 	7	Santa Rita 	9	Septiembre	2023-04-09T00:00:00	2024-11-08T06:00:00	6	Velocidad del viento	9.7
115294	7	Sololá	704	Santa Lucía Utatlán 	7	Santa Rita 	9	Septiembre	2023-04-09T00:00:00	2024-11-08T06:00:00	7	Dirección del viento	9.66
115295	7	Sololá	704	Santa Lucía Utatlán 	7	Santa Rita 	9	Septiembre	2023-04-09T00:00:00	2024-11-08T06:00:00	1	Precipitación	0
115296	7	Sololá	704	Santa Lucía Utatlán 	7	Santa Rita 	9	Septiembre	2023-04-09T00:00:00	2024-11-08T06:00:00	8	Radiación solar	2
115297	7	Sololá	704	Santa Lucía Utatlán 	7	Santa Rita 	9	Septiembre	2023-04-09T00:00:00	2024-11-08T07:00:00	2	Temperatura media	25.2
115298	7	Sololá	704	Santa Lucía Utatlán 	7	Santa Rita 	9	Septiembre	2023-04-09T00:00:00	2024-11-08T07:00:00	4	Temperatura máxima	25.3
115299	7	Sololá	704	Santa Lucía Utatlán 	7	Santa Rita 	9	Septiembre	2023-04-09T00:00:00	2024-11-08T07:00:00	3	Temperatura mínima	24.6
115300	7	Sololá	704	Santa Lucía Utatlán 	7	Santa Rita 	9	Septiembre	2023-04-09T00:00:00	2024-11-08T07:00:00	5	Humedad	62
115301	7	Sololá	704	Santa Lucía Utatlán 	7	Santa Rita 	9	Septiembre	2023-04-09T00:00:00	2024-11-08T07:00:00	6	Velocidad del viento	9.7
115302	7	Sololá	704	Santa Lucía Utatlán 	7	Santa Rita 	9	Septiembre	2023-04-09T00:00:00	2024-11-08T07:00:00	7	Dirección del viento	9.66
115303	7	Sololá	704	Santa Lucía Utatlán 	7	Santa Rita 	9	Septiembre	2023-04-09T00:00:00	2024-11-08T07:00:00	1	Precipitación	0
115304	7	Sololá	704	Santa Lucía Utatlán 	7	Santa Rita 	9	Septiembre	2023-04-09T00:00:00	2024-11-08T07:00:00	8	Radiación solar	97
115305	7	Sololá	704	Santa Lucía Utatlán 	7	Santa Rita 	9	Septiembre	2023-04-09T00:00:00	2024-11-08T08:00:00	2	Temperatura media	24.9
115306	7	Sololá	704	Santa Lucía Utatlán 	7	Santa Rita 	9	Septiembre	2023-04-09T00:00:00	2024-11-08T08:00:00	4	Temperatura máxima	25.6
115307	7	Sololá	704	Santa Lucía Utatlán 	7	Santa Rita 	9	Septiembre	2023-04-09T00:00:00	2024-11-08T08:00:00	3	Temperatura mínima	24.4
115308	7	Sololá	704	Santa Lucía Utatlán 	7	Santa Rita 	9	Septiembre	2023-04-09T00:00:00	2024-11-08T08:00:00	5	Humedad	64
115309	7	Sololá	704	Santa Lucía Utatlán 	7	Santa Rita 	9	Septiembre	2023-04-09T00:00:00	2024-11-08T08:00:00	6	Velocidad del viento	9.7
115310	7	Sololá	704	Santa Lucía Utatlán 	7	Santa Rita 	9	Septiembre	2023-04-09T00:00:00	2024-11-08T08:00:00	7	Dirección del viento	9.66
115311	7	Sololá	704	Santa Lucía Utatlán 	7	Santa Rita 	9	Septiembre	2023-04-09T00:00:00	2024-11-08T08:00:00	1	Precipitación	0
115312	7	Sololá	704	Santa Lucía Utatlán 	7	Santa Rita 	9	Septiembre	2023-04-09T00:00:00	2024-11-08T08:00:00	8	Radiación solar	349
115313	7	Sololá	704	Santa Lucía Utatlán 	7	Santa Rita 	9	Septiembre	2023-04-09T00:00:00	2024-11-08T09:00:00	2	Temperatura media	24.1
115314	7	Sololá	704	Santa Lucía Utatlán 	7	Santa Rita 	9	Septiembre	2023-04-09T00:00:00	2024-11-08T09:00:00	4	Temperatura máxima	24.9
115315	7	Sololá	704	Santa Lucía Utatlán 	7	Santa Rita 	9	Septiembre	2023-04-09T00:00:00	2024-11-08T09:00:00	3	Temperatura mínima	23.9
115316	7	Sololá	704	Santa Lucía Utatlán 	7	Santa Rita 	9	Septiembre	2023-04-09T00:00:00	2024-11-08T09:00:00	5	Humedad	78
115317	7	Sololá	704	Santa Lucía Utatlán 	7	Santa Rita 	9	Septiembre	2023-04-09T00:00:00	2024-11-08T09:00:00	6	Velocidad del viento	9.7
115318	7	Sololá	704	Santa Lucía Utatlán 	7	Santa Rita 	9	Septiembre	2023-04-09T00:00:00	2024-11-08T09:00:00	7	Dirección del viento	9.66
115319	7	Sololá	704	Santa Lucía Utatlán 	7	Santa Rita 	9	Septiembre	2023-04-09T00:00:00	2024-11-08T09:00:00	1	Precipitación	0
115320	7	Sololá	704	Santa Lucía Utatlán 	7	Santa Rita 	9	Septiembre	2023-04-09T00:00:00	2024-11-08T09:00:00	8	Radiación solar	640
115321	7	Sololá	704	Santa Lucía Utatlán 	7	Santa Rita 	9	Septiembre	2023-04-09T00:00:00	2024-11-08T10:00:00	2	Temperatura media	21.4
115322	7	Sololá	704	Santa Lucía Utatlán 	7	Santa Rita 	9	Septiembre	2023-04-09T00:00:00	2024-11-08T10:00:00	4	Temperatura máxima	24.1
115323	7	Sololá	704	Santa Lucía Utatlán 	7	Santa Rita 	9	Septiembre	2023-04-09T00:00:00	2024-11-08T10:00:00	3	Temperatura mínima	21.4
115324	7	Sololá	704	Santa Lucía Utatlán 	7	Santa Rita 	9	Septiembre	2023-04-09T00:00:00	2024-11-08T10:00:00	5	Humedad	84
115325	7	Sololá	704	Santa Lucía Utatlán 	7	Santa Rita 	9	Septiembre	2023-04-09T00:00:00	2024-11-08T10:00:00	6	Velocidad del viento	6.4
115326	7	Sololá	704	Santa Lucía Utatlán 	7	Santa Rita 	9	Septiembre	2023-04-09T00:00:00	2024-11-08T10:00:00	7	Dirección del viento	6.44
115327	7	Sololá	704	Santa Lucía Utatlán 	7	Santa Rita 	9	Septiembre	2023-04-09T00:00:00	2024-11-08T10:00:00	1	Precipitación	0
115328	7	Sololá	704	Santa Lucía Utatlán 	7	Santa Rita 	9	Septiembre	2023-04-09T00:00:00	2024-11-08T10:00:00	8	Radiación solar	883
115329	7	Sololá	704	Santa Lucía Utatlán 	7	Santa Rita 	9	Septiembre	2023-04-09T00:00:00	2024-11-08T11:00:00	2	Temperatura media	20.6
115330	7	Sololá	704	Santa Lucía Utatlán 	7	Santa Rita 	9	Septiembre	2023-04-09T00:00:00	2024-11-08T11:00:00	4	Temperatura máxima	21.5
115331	7	Sololá	704	Santa Lucía Utatlán 	7	Santa Rita 	9	Septiembre	2023-04-09T00:00:00	2024-11-08T11:00:00	3	Temperatura mínima	20.6
115332	7	Sololá	704	Santa Lucía Utatlán 	7	Santa Rita 	9	Septiembre	2023-04-09T00:00:00	2024-11-08T11:00:00	5	Humedad	93
115333	7	Sololá	704	Santa Lucía Utatlán 	7	Santa Rita 	9	Septiembre	2023-04-09T00:00:00	2024-11-08T11:00:00	6	Velocidad del viento	1.6
115334	7	Sololá	704	Santa Lucía Utatlán 	7	Santa Rita 	9	Septiembre	2023-04-09T00:00:00	2024-11-08T11:00:00	7	Dirección del viento	1.61
115335	7	Sololá	704	Santa Lucía Utatlán 	7	Santa Rita 	9	Septiembre	2023-04-09T00:00:00	2024-11-08T11:00:00	1	Precipitación	4
115336	7	Sololá	704	Santa Lucía Utatlán 	7	Santa Rita 	9	Septiembre	2023-04-09T00:00:00	2024-11-08T11:00:00	8	Radiación solar	1060
115337	7	Sololá	704	Santa Lucía Utatlán 	7	Santa Rita 	9	Septiembre	2023-04-09T00:00:00	2024-11-08T12:00:00	2	Temperatura media	19.8
115338	7	Sololá	704	Santa Lucía Utatlán 	7	Santa Rita 	9	Septiembre	2023-04-09T00:00:00	2024-11-08T12:00:00	4	Temperatura máxima	20.6
115339	7	Sololá	704	Santa Lucía Utatlán 	7	Santa Rita 	9	Septiembre	2023-04-09T00:00:00	2024-11-08T12:00:00	3	Temperatura mínima	19.8
115340	7	Sololá	704	Santa Lucía Utatlán 	7	Santa Rita 	9	Septiembre	2023-04-09T00:00:00	2024-11-08T12:00:00	5	Humedad	94
115341	7	Sololá	704	Santa Lucía Utatlán 	7	Santa Rita 	9	Septiembre	2023-04-09T00:00:00	2024-11-08T12:00:00	6	Velocidad del viento	3.2
115342	7	Sololá	704	Santa Lucía Utatlán 	7	Santa Rita 	9	Septiembre	2023-04-09T00:00:00	2024-11-08T12:00:00	7	Dirección del viento	3.22
115343	7	Sololá	704	Santa Lucía Utatlán 	7	Santa Rita 	9	Septiembre	2023-04-09T00:00:00	2024-11-08T12:00:00	1	Precipitación	5.4
115344	7	Sololá	704	Santa Lucía Utatlán 	7	Santa Rita 	9	Septiembre	2023-04-09T00:00:00	2024-11-08T12:00:00	8	Radiación solar	1024
115345	7	Sololá	704	Santa Lucía Utatlán 	7	Santa Rita 	9	Septiembre	2023-04-09T00:00:00	2024-11-08T13:00:00	2	Temperatura media	19.2
115346	7	Sololá	704	Santa Lucía Utatlán 	7	Santa Rita 	9	Septiembre	2023-04-09T00:00:00	2024-11-08T13:00:00	4	Temperatura máxima	19.9
115347	7	Sololá	704	Santa Lucía Utatlán 	7	Santa Rita 	9	Septiembre	2023-04-09T00:00:00	2024-11-08T13:00:00	3	Temperatura mínima	19.1
115348	7	Sololá	704	Santa Lucía Utatlán 	7	Santa Rita 	9	Septiembre	2023-04-09T00:00:00	2024-11-08T13:00:00	5	Humedad	94
115349	7	Sololá	704	Santa Lucía Utatlán 	7	Santa Rita 	9	Septiembre	2023-04-09T00:00:00	2024-11-08T13:00:00	6	Velocidad del viento	3.2
115350	7	Sololá	704	Santa Lucía Utatlán 	7	Santa Rita 	9	Septiembre	2023-04-09T00:00:00	2024-11-08T13:00:00	7	Dirección del viento	3.22
115351	7	Sololá	704	Santa Lucía Utatlán 	7	Santa Rita 	9	Septiembre	2023-04-09T00:00:00	2024-11-08T13:00:00	1	Precipitación	2.8
115352	7	Sololá	704	Santa Lucía Utatlán 	7	Santa Rita 	9	Septiembre	2023-04-09T00:00:00	2024-11-08T13:00:00	8	Radiación solar	546
115353	7	Sololá	704	Santa Lucía Utatlán 	7	Santa Rita 	9	Septiembre	2023-04-09T00:00:00	2024-11-08T14:00:00	2	Temperatura media	18.9
115354	7	Sololá	704	Santa Lucía Utatlán 	7	Santa Rita 	9	Septiembre	2023-04-09T00:00:00	2024-11-08T14:00:00	4	Temperatura máxima	19.3
115355	7	Sololá	704	Santa Lucía Utatlán 	7	Santa Rita 	9	Septiembre	2023-04-09T00:00:00	2024-11-08T14:00:00	3	Temperatura mínima	18.9
115356	7	Sololá	704	Santa Lucía Utatlán 	7	Santa Rita 	9	Septiembre	2023-04-09T00:00:00	2024-11-08T14:00:00	5	Humedad	94
115357	7	Sololá	704	Santa Lucía Utatlán 	7	Santa Rita 	9	Septiembre	2023-04-09T00:00:00	2024-11-08T14:00:00	6	Velocidad del viento	1.6
115358	7	Sololá	704	Santa Lucía Utatlán 	7	Santa Rita 	9	Septiembre	2023-04-09T00:00:00	2024-11-08T14:00:00	7	Dirección del viento	1.61
115359	7	Sololá	704	Santa Lucía Utatlán 	7	Santa Rita 	9	Septiembre	2023-04-09T00:00:00	2024-11-08T14:00:00	1	Precipitación	1.4
115360	7	Sololá	704	Santa Lucía Utatlán 	7	Santa Rita 	9	Septiembre	2023-04-09T00:00:00	2024-11-08T14:00:00	8	Radiación solar	632
115361	7	Sololá	704	Santa Lucía Utatlán 	7	Santa Rita 	9	Septiembre	2023-04-09T00:00:00	2024-11-08T15:00:00	2	Temperatura media	18.7
115362	7	Sololá	704	Santa Lucía Utatlán 	7	Santa Rita 	9	Septiembre	2023-04-09T00:00:00	2024-11-08T15:00:00	4	Temperatura máxima	18.9
115363	7	Sololá	704	Santa Lucía Utatlán 	7	Santa Rita 	9	Septiembre	2023-04-09T00:00:00	2024-11-08T15:00:00	3	Temperatura mínima	18.6
115364	7	Sololá	704	Santa Lucía Utatlán 	7	Santa Rita 	9	Septiembre	2023-04-09T00:00:00	2024-11-08T15:00:00	5	Humedad	95
115365	7	Sololá	704	Santa Lucía Utatlán 	7	Santa Rita 	9	Septiembre	2023-04-09T00:00:00	2024-11-08T15:00:00	6	Velocidad del viento	1.6
115366	7	Sololá	704	Santa Lucía Utatlán 	7	Santa Rita 	9	Septiembre	2023-04-09T00:00:00	2024-11-08T15:00:00	7	Dirección del viento	1.61
115367	7	Sololá	704	Santa Lucía Utatlán 	7	Santa Rita 	9	Septiembre	2023-04-09T00:00:00	2024-11-08T15:00:00	1	Precipitación	0.8
115368	7	Sololá	704	Santa Lucía Utatlán 	7	Santa Rita 	9	Septiembre	2023-04-09T00:00:00	2024-11-08T15:00:00	8	Radiación solar	176
115369	7	Sololá	704	Santa Lucía Utatlán 	7	Santa Rita 	9	Septiembre	2023-04-09T00:00:00	2024-11-08T16:00:00	2	Temperatura media	18.7
115370	7	Sololá	704	Santa Lucía Utatlán 	7	Santa Rita 	9	Septiembre	2023-04-09T00:00:00	2024-11-08T16:00:00	4	Temperatura máxima	18.8
115371	7	Sololá	704	Santa Lucía Utatlán 	7	Santa Rita 	9	Septiembre	2023-04-09T00:00:00	2024-11-08T16:00:00	3	Temperatura mínima	18.6
115372	7	Sololá	704	Santa Lucía Utatlán 	7	Santa Rita 	9	Septiembre	2023-04-09T00:00:00	2024-11-08T16:00:00	5	Humedad	96
115373	7	Sololá	704	Santa Lucía Utatlán 	7	Santa Rita 	9	Septiembre	2023-04-09T00:00:00	2024-11-08T16:00:00	6	Velocidad del viento	1.6
115374	7	Sololá	704	Santa Lucía Utatlán 	7	Santa Rita 	9	Septiembre	2023-04-09T00:00:00	2024-11-08T16:00:00	7	Dirección del viento	1.61
115375	7	Sololá	704	Santa Lucía Utatlán 	7	Santa Rita 	9	Septiembre	2023-04-09T00:00:00	2024-11-08T16:00:00	1	Precipitación	0
115376	7	Sololá	704	Santa Lucía Utatlán 	7	Santa Rita 	9	Septiembre	2023-04-09T00:00:00	2024-11-08T16:00:00	8	Radiación solar	35
115377	7	Sololá	704	Santa Lucía Utatlán 	7	Santa Rita 	9	Septiembre	2023-04-09T00:00:00	2024-11-08T17:00:00	2	Temperatura media	18.4
115378	7	Sololá	704	Santa Lucía Utatlán 	7	Santa Rita 	9	Septiembre	2023-04-09T00:00:00	2024-11-08T17:00:00	4	Temperatura máxima	18.8
115379	7	Sololá	704	Santa Lucía Utatlán 	7	Santa Rita 	9	Septiembre	2023-04-09T00:00:00	2024-11-08T17:00:00	3	Temperatura mínima	18.4
115380	7	Sololá	704	Santa Lucía Utatlán 	7	Santa Rita 	9	Septiembre	2023-04-09T00:00:00	2024-11-08T17:00:00	5	Humedad	96
115381	7	Sololá	704	Santa Lucía Utatlán 	7	Santa Rita 	9	Septiembre	2023-04-09T00:00:00	2024-11-08T17:00:00	6	Velocidad del viento	1.6
115382	7	Sololá	704	Santa Lucía Utatlán 	7	Santa Rita 	9	Septiembre	2023-04-09T00:00:00	2024-11-08T17:00:00	7	Dirección del viento	1.61
115383	7	Sololá	704	Santa Lucía Utatlán 	7	Santa Rita 	9	Septiembre	2023-04-09T00:00:00	2024-11-08T17:00:00	1	Precipitación	0.2
115384	7	Sololá	704	Santa Lucía Utatlán 	7	Santa Rita 	9	Septiembre	2023-04-09T00:00:00	2024-11-08T17:00:00	8	Radiación solar	34
115385	7	Sololá	704	Santa Lucía Utatlán 	7	Santa Rita 	9	Septiembre	2023-04-09T00:00:00	2024-11-08T18:00:00	2	Temperatura media	18.6
115386	7	Sololá	704	Santa Lucía Utatlán 	7	Santa Rita 	9	Septiembre	2023-04-09T00:00:00	2024-11-08T18:00:00	4	Temperatura máxima	18.6
115387	7	Sololá	704	Santa Lucía Utatlán 	7	Santa Rita 	9	Septiembre	2023-04-09T00:00:00	2024-11-08T18:00:00	3	Temperatura mínima	18.4
115388	7	Sololá	704	Santa Lucía Utatlán 	7	Santa Rita 	9	Septiembre	2023-04-09T00:00:00	2024-11-08T18:00:00	5	Humedad	96
115389	7	Sololá	704	Santa Lucía Utatlán 	7	Santa Rita 	9	Septiembre	2023-04-09T00:00:00	2024-11-08T18:00:00	6	Velocidad del viento	0
115390	7	Sololá	704	Santa Lucía Utatlán 	7	Santa Rita 	9	Septiembre	2023-04-09T00:00:00	2024-11-08T18:00:00	7	Dirección del viento	0
115391	7	Sololá	704	Santa Lucía Utatlán 	7	Santa Rita 	9	Septiembre	2023-04-09T00:00:00	2024-11-08T18:00:00	1	Precipitación	0
115392	7	Sololá	704	Santa Lucía Utatlán 	7	Santa Rita 	9	Septiembre	2023-04-09T00:00:00	2024-11-08T18:00:00	8	Radiación solar	26
115393	7	Sololá	704	Santa Lucía Utatlán 	7	Santa Rita 	9	Septiembre	2023-04-09T00:00:00	2024-11-08T19:00:00	2	Temperatura media	18.4
115394	7	Sololá	704	Santa Lucía Utatlán 	7	Santa Rita 	9	Septiembre	2023-04-09T00:00:00	2024-11-08T19:00:00	4	Temperatura máxima	18.6
115395	7	Sololá	704	Santa Lucía Utatlán 	7	Santa Rita 	9	Septiembre	2023-04-09T00:00:00	2024-11-08T19:00:00	3	Temperatura mínima	18.4
115396	7	Sololá	704	Santa Lucía Utatlán 	7	Santa Rita 	9	Septiembre	2023-04-09T00:00:00	2024-11-08T19:00:00	5	Humedad	96
115397	7	Sololá	704	Santa Lucía Utatlán 	7	Santa Rita 	9	Septiembre	2023-04-09T00:00:00	2024-11-08T19:00:00	6	Velocidad del viento	0
115398	7	Sololá	704	Santa Lucía Utatlán 	7	Santa Rita 	9	Septiembre	2023-04-09T00:00:00	2024-11-08T19:00:00	7	Dirección del viento	0
115399	7	Sololá	704	Santa Lucía Utatlán 	7	Santa Rita 	9	Septiembre	2023-04-09T00:00:00	2024-11-08T19:00:00	1	Precipitación	0
115400	7	Sololá	704	Santa Lucía Utatlán 	7	Santa Rita 	9	Septiembre	2023-04-09T00:00:00	2024-11-08T19:00:00	8	Radiación solar	0
115401	7	Sololá	704	Santa Lucía Utatlán 	7	Santa Rita 	9	Septiembre	2023-04-09T00:00:00	2024-11-08T20:00:00	2	Temperatura media	18.1
115402	7	Sololá	704	Santa Lucía Utatlán 	7	Santa Rita 	9	Septiembre	2023-04-09T00:00:00	2024-11-08T20:00:00	4	Temperatura máxima	18.4
115403	7	Sololá	704	Santa Lucía Utatlán 	7	Santa Rita 	9	Septiembre	2023-04-09T00:00:00	2024-11-08T20:00:00	3	Temperatura mínima	18.1
115404	7	Sololá	704	Santa Lucía Utatlán 	7	Santa Rita 	9	Septiembre	2023-04-09T00:00:00	2024-11-08T20:00:00	5	Humedad	94
115405	7	Sololá	704	Santa Lucía Utatlán 	7	Santa Rita 	9	Septiembre	2023-04-09T00:00:00	2024-11-08T20:00:00	6	Velocidad del viento	1.6
115406	7	Sololá	704	Santa Lucía Utatlán 	7	Santa Rita 	9	Septiembre	2023-04-09T00:00:00	2024-11-08T20:00:00	7	Dirección del viento	1.61
115407	7	Sololá	704	Santa Lucía Utatlán 	7	Santa Rita 	9	Septiembre	2023-04-09T00:00:00	2024-11-08T20:00:00	1	Precipitación	0
115408	7	Sololá	704	Santa Lucía Utatlán 	7	Santa Rita 	9	Septiembre	2023-04-09T00:00:00	2024-11-08T20:00:00	8	Radiación solar	0
115409	7	Sololá	704	Santa Lucía Utatlán 	7	Santa Rita 	9	Septiembre	2023-04-09T00:00:00	2024-11-08T21:00:00	2	Temperatura media	17.7
115410	7	Sololá	704	Santa Lucía Utatlán 	7	Santa Rita 	9	Septiembre	2023-04-09T00:00:00	2024-11-08T21:00:00	4	Temperatura máxima	18.2
115411	7	Sololá	704	Santa Lucía Utatlán 	7	Santa Rita 	9	Septiembre	2023-04-09T00:00:00	2024-11-08T21:00:00	3	Temperatura mínima	17.7
115412	7	Sololá	704	Santa Lucía Utatlán 	7	Santa Rita 	9	Septiembre	2023-04-09T00:00:00	2024-11-08T21:00:00	5	Humedad	94
115413	7	Sololá	704	Santa Lucía Utatlán 	7	Santa Rita 	9	Septiembre	2023-04-09T00:00:00	2024-11-08T21:00:00	6	Velocidad del viento	1.6
115414	7	Sololá	704	Santa Lucía Utatlán 	7	Santa Rita 	9	Septiembre	2023-04-09T00:00:00	2024-11-08T21:00:00	7	Dirección del viento	1.61
115415	7	Sololá	704	Santa Lucía Utatlán 	7	Santa Rita 	9	Septiembre	2023-04-09T00:00:00	2024-11-08T21:00:00	1	Precipitación	0
115416	7	Sololá	704	Santa Lucía Utatlán 	7	Santa Rita 	9	Septiembre	2023-04-09T00:00:00	2024-11-08T21:00:00	8	Radiación solar	0
115417	7	Sololá	704	Santa Lucía Utatlán 	7	Santa Rita 	9	Septiembre	2023-04-09T00:00:00	2024-11-08T22:00:00	2	Temperatura media	17.3
115418	7	Sololá	704	Santa Lucía Utatlán 	7	Santa Rita 	9	Septiembre	2023-04-09T00:00:00	2024-11-08T22:00:00	4	Temperatura máxima	17.7
115419	7	Sololá	704	Santa Lucía Utatlán 	7	Santa Rita 	9	Septiembre	2023-04-09T00:00:00	2024-11-08T22:00:00	3	Temperatura mínima	17.3
115420	7	Sololá	704	Santa Lucía Utatlán 	7	Santa Rita 	9	Septiembre	2023-04-09T00:00:00	2024-11-08T22:00:00	5	Humedad	94
115421	7	Sololá	704	Santa Lucía Utatlán 	7	Santa Rita 	9	Septiembre	2023-04-09T00:00:00	2024-11-08T22:00:00	6	Velocidad del viento	3.2
115422	7	Sololá	704	Santa Lucía Utatlán 	7	Santa Rita 	9	Septiembre	2023-04-09T00:00:00	2024-11-08T22:00:00	7	Dirección del viento	3.22
115423	7	Sololá	704	Santa Lucía Utatlán 	7	Santa Rita 	9	Septiembre	2023-04-09T00:00:00	2024-11-08T22:00:00	1	Precipitación	0
115424	7	Sololá	704	Santa Lucía Utatlán 	7	Santa Rita 	9	Septiembre	2023-04-09T00:00:00	2024-11-08T22:00:00	8	Radiación solar	0
115425	7	Sololá	704	Santa Lucía Utatlán 	7	Santa Rita 	9	Septiembre	2023-04-09T00:00:00	2024-11-08T23:00:00	2	Temperatura media	16.8
115426	7	Sololá	704	Santa Lucía Utatlán 	7	Santa Rita 	9	Septiembre	2023-04-09T00:00:00	2024-11-08T23:00:00	4	Temperatura máxima	17.4
115427	7	Sololá	704	Santa Lucía Utatlán 	7	Santa Rita 	9	Septiembre	2023-04-09T00:00:00	2024-11-08T23:00:00	3	Temperatura mínima	16.8
115428	7	Sololá	704	Santa Lucía Utatlán 	7	Santa Rita 	9	Septiembre	2023-04-09T00:00:00	2024-11-08T23:00:00	5	Humedad	91
115429	7	Sololá	704	Santa Lucía Utatlán 	7	Santa Rita 	9	Septiembre	2023-04-09T00:00:00	2024-11-08T23:00:00	6	Velocidad del viento	4.8
115430	7	Sololá	704	Santa Lucía Utatlán 	7	Santa Rita 	9	Septiembre	2023-04-09T00:00:00	2024-11-08T23:00:00	7	Dirección del viento	4.83
115431	7	Sololá	704	Santa Lucía Utatlán 	7	Santa Rita 	9	Septiembre	2023-04-09T00:00:00	2024-11-08T23:00:00	1	Precipitación	0
115432	7	Sololá	704	Santa Lucía Utatlán 	7	Santa Rita 	9	Septiembre	2023-04-09T00:00:00	2024-11-08T23:00:00	8	Radiación solar	0
115433	7	Sololá	704	Santa Lucía Utatlán 	7	Santa Rita 	9	Septiembre	2023-05-09T00:00:00	2024-11-08T00:00:00	2	Temperatura media	16.5
115434	7	Sololá	704	Santa Lucía Utatlán 	7	Santa Rita 	9	Septiembre	2023-05-09T00:00:00	2024-11-08T00:00:00	4	Temperatura máxima	16.9
115435	7	Sololá	704	Santa Lucía Utatlán 	7	Santa Rita 	9	Septiembre	2023-05-09T00:00:00	2024-11-08T00:00:00	3	Temperatura mínima	16.4
115436	7	Sololá	704	Santa Lucía Utatlán 	7	Santa Rita 	9	Septiembre	2023-05-09T00:00:00	2024-11-08T00:00:00	5	Humedad	91
115437	7	Sololá	704	Santa Lucía Utatlán 	7	Santa Rita 	9	Septiembre	2023-05-09T00:00:00	2024-11-08T00:00:00	6	Velocidad del viento	4.8
115438	7	Sololá	704	Santa Lucía Utatlán 	7	Santa Rita 	9	Septiembre	2023-05-09T00:00:00	2024-11-08T00:00:00	7	Dirección del viento	4.83
115439	7	Sololá	704	Santa Lucía Utatlán 	7	Santa Rita 	9	Septiembre	2023-05-09T00:00:00	2024-11-08T00:00:00	1	Precipitación	0
115440	7	Sololá	704	Santa Lucía Utatlán 	7	Santa Rita 	9	Septiembre	2023-05-09T00:00:00	2024-11-08T00:00:00	8	Radiación solar	0
115441	7	Sololá	704	Santa Lucía Utatlán 	7	Santa Rita 	9	Septiembre	2023-05-09T00:00:00	2024-11-08T01:00:00	2	Temperatura media	15.6
115442	7	Sololá	704	Santa Lucía Utatlán 	7	Santa Rita 	9	Septiembre	2023-05-09T00:00:00	2024-11-08T01:00:00	4	Temperatura máxima	16.7
115443	7	Sololá	704	Santa Lucía Utatlán 	7	Santa Rita 	9	Septiembre	2023-05-09T00:00:00	2024-11-08T01:00:00	3	Temperatura mínima	15.6
115444	7	Sololá	704	Santa Lucía Utatlán 	7	Santa Rita 	9	Septiembre	2023-05-09T00:00:00	2024-11-08T01:00:00	5	Humedad	93
115445	7	Sololá	704	Santa Lucía Utatlán 	7	Santa Rita 	9	Septiembre	2023-05-09T00:00:00	2024-11-08T01:00:00	6	Velocidad del viento	3.2
115446	7	Sololá	704	Santa Lucía Utatlán 	7	Santa Rita 	9	Septiembre	2023-05-09T00:00:00	2024-11-08T01:00:00	7	Dirección del viento	3.22
115447	7	Sololá	704	Santa Lucía Utatlán 	7	Santa Rita 	9	Septiembre	2023-05-09T00:00:00	2024-11-08T01:00:00	1	Precipitación	0
115448	7	Sololá	704	Santa Lucía Utatlán 	7	Santa Rita 	9	Septiembre	2023-05-09T00:00:00	2024-11-08T01:00:00	8	Radiación solar	0
115449	7	Sololá	704	Santa Lucía Utatlán 	7	Santa Rita 	9	Septiembre	2023-05-09T00:00:00	2024-11-08T02:00:00	2	Temperatura media	18.7
115450	7	Sololá	704	Santa Lucía Utatlán 	7	Santa Rita 	9	Septiembre	2023-05-09T00:00:00	2024-11-08T02:00:00	4	Temperatura máxima	18.7
115451	7	Sololá	704	Santa Lucía Utatlán 	7	Santa Rita 	9	Septiembre	2023-05-09T00:00:00	2024-11-08T02:00:00	3	Temperatura mínima	15.6
115452	7	Sololá	704	Santa Lucía Utatlán 	7	Santa Rita 	9	Septiembre	2023-05-09T00:00:00	2024-11-08T02:00:00	5	Humedad	86
115453	7	Sololá	704	Santa Lucía Utatlán 	7	Santa Rita 	9	Septiembre	2023-05-09T00:00:00	2024-11-08T02:00:00	6	Velocidad del viento	3.2
115454	7	Sololá	704	Santa Lucía Utatlán 	7	Santa Rita 	9	Septiembre	2023-05-09T00:00:00	2024-11-08T02:00:00	7	Dirección del viento	3.22
115455	7	Sololá	704	Santa Lucía Utatlán 	7	Santa Rita 	9	Septiembre	2023-05-09T00:00:00	2024-11-08T02:00:00	1	Precipitación	0
115456	7	Sololá	704	Santa Lucía Utatlán 	7	Santa Rita 	9	Septiembre	2023-05-09T00:00:00	2024-11-08T02:00:00	8	Radiación solar	0
115457	7	Sololá	704	Santa Lucía Utatlán 	7	Santa Rita 	9	Septiembre	2023-05-09T00:00:00	2024-11-08T03:00:00	2	Temperatura media	22.3
115458	7	Sololá	704	Santa Lucía Utatlán 	7	Santa Rita 	9	Septiembre	2023-05-09T00:00:00	2024-11-08T03:00:00	4	Temperatura máxima	22.3
115459	7	Sololá	704	Santa Lucía Utatlán 	7	Santa Rita 	9	Septiembre	2023-05-09T00:00:00	2024-11-08T03:00:00	3	Temperatura mínima	18.7
115460	7	Sololá	704	Santa Lucía Utatlán 	7	Santa Rita 	9	Septiembre	2023-05-09T00:00:00	2024-11-08T03:00:00	5	Humedad	79
115461	7	Sololá	704	Santa Lucía Utatlán 	7	Santa Rita 	9	Septiembre	2023-05-09T00:00:00	2024-11-08T03:00:00	6	Velocidad del viento	3.2
115462	7	Sololá	704	Santa Lucía Utatlán 	7	Santa Rita 	9	Septiembre	2023-05-09T00:00:00	2024-11-08T03:00:00	7	Dirección del viento	3.22
115463	7	Sololá	704	Santa Lucía Utatlán 	7	Santa Rita 	9	Septiembre	2023-05-09T00:00:00	2024-11-08T03:00:00	1	Precipitación	0
115464	7	Sololá	704	Santa Lucía Utatlán 	7	Santa Rita 	9	Septiembre	2023-05-09T00:00:00	2024-11-08T03:00:00	8	Radiación solar	0
115465	7	Sololá	704	Santa Lucía Utatlán 	7	Santa Rita 	9	Septiembre	2023-05-09T00:00:00	2024-11-08T04:00:00	2	Temperatura media	23.4
115466	7	Sololá	704	Santa Lucía Utatlán 	7	Santa Rita 	9	Septiembre	2023-05-09T00:00:00	2024-11-08T04:00:00	4	Temperatura máxima	23.4
115467	7	Sololá	704	Santa Lucía Utatlán 	7	Santa Rita 	9	Septiembre	2023-05-09T00:00:00	2024-11-08T04:00:00	3	Temperatura mínima	22.3
115468	7	Sololá	704	Santa Lucía Utatlán 	7	Santa Rita 	9	Septiembre	2023-05-09T00:00:00	2024-11-08T04:00:00	5	Humedad	70
115469	7	Sololá	704	Santa Lucía Utatlán 	7	Santa Rita 	9	Septiembre	2023-05-09T00:00:00	2024-11-08T04:00:00	6	Velocidad del viento	4.8
115470	7	Sololá	704	Santa Lucía Utatlán 	7	Santa Rita 	9	Septiembre	2023-05-09T00:00:00	2024-11-08T04:00:00	7	Dirección del viento	4.83
115471	7	Sololá	704	Santa Lucía Utatlán 	7	Santa Rita 	9	Septiembre	2023-05-09T00:00:00	2024-11-08T04:00:00	1	Precipitación	0
115472	7	Sololá	704	Santa Lucía Utatlán 	7	Santa Rita 	9	Septiembre	2023-05-09T00:00:00	2024-11-08T04:00:00	8	Radiación solar	0
115473	7	Sololá	704	Santa Lucía Utatlán 	7	Santa Rita 	9	Septiembre	2023-05-09T00:00:00	2024-11-08T05:00:00	2	Temperatura media	23.6
115474	7	Sololá	704	Santa Lucía Utatlán 	7	Santa Rita 	9	Septiembre	2023-05-09T00:00:00	2024-11-08T05:00:00	4	Temperatura máxima	24
115475	7	Sololá	704	Santa Lucía Utatlán 	7	Santa Rita 	9	Septiembre	2023-05-09T00:00:00	2024-11-08T05:00:00	3	Temperatura mínima	23.2
115476	7	Sololá	704	Santa Lucía Utatlán 	7	Santa Rita 	9	Septiembre	2023-05-09T00:00:00	2024-11-08T05:00:00	5	Humedad	71
115477	7	Sololá	704	Santa Lucía Utatlán 	7	Santa Rita 	9	Septiembre	2023-05-09T00:00:00	2024-11-08T05:00:00	6	Velocidad del viento	6.4
115478	7	Sololá	704	Santa Lucía Utatlán 	7	Santa Rita 	9	Septiembre	2023-05-09T00:00:00	2024-11-08T05:00:00	7	Dirección del viento	6.44
115479	7	Sololá	704	Santa Lucía Utatlán 	7	Santa Rita 	9	Septiembre	2023-05-09T00:00:00	2024-11-08T05:00:00	1	Precipitación	0
115480	7	Sololá	704	Santa Lucía Utatlán 	7	Santa Rita 	9	Septiembre	2023-05-09T00:00:00	2024-11-08T05:00:00	8	Radiación solar	0
115481	7	Sololá	704	Santa Lucía Utatlán 	7	Santa Rita 	9	Septiembre	2023-05-09T00:00:00	2024-11-08T06:00:00	2	Temperatura media	24.6
115482	7	Sololá	704	Santa Lucía Utatlán 	7	Santa Rita 	9	Septiembre	2023-05-09T00:00:00	2024-11-08T06:00:00	4	Temperatura máxima	24.7
115483	7	Sololá	704	Santa Lucía Utatlán 	7	Santa Rita 	9	Septiembre	2023-05-09T00:00:00	2024-11-08T06:00:00	3	Temperatura mínima	23.6
115484	7	Sololá	704	Santa Lucía Utatlán 	7	Santa Rita 	9	Septiembre	2023-05-09T00:00:00	2024-11-08T06:00:00	5	Humedad	67
115485	7	Sololá	704	Santa Lucía Utatlán 	7	Santa Rita 	9	Septiembre	2023-05-09T00:00:00	2024-11-08T06:00:00	6	Velocidad del viento	6.4
115486	7	Sololá	704	Santa Lucía Utatlán 	7	Santa Rita 	9	Septiembre	2023-05-09T00:00:00	2024-11-08T06:00:00	7	Dirección del viento	6.44
115487	7	Sololá	704	Santa Lucía Utatlán 	7	Santa Rita 	9	Septiembre	2023-05-09T00:00:00	2024-11-08T06:00:00	1	Precipitación	0
115488	7	Sololá	704	Santa Lucía Utatlán 	7	Santa Rita 	9	Septiembre	2023-05-09T00:00:00	2024-11-08T06:00:00	8	Radiación solar	2
115489	7	Sololá	704	Santa Lucía Utatlán 	7	Santa Rita 	9	Septiembre	2023-05-09T00:00:00	2024-11-08T07:00:00	2	Temperatura media	24.2
115490	7	Sololá	704	Santa Lucía Utatlán 	7	Santa Rita 	9	Septiembre	2023-05-09T00:00:00	2024-11-08T07:00:00	4	Temperatura máxima	25.1
115491	7	Sololá	704	Santa Lucía Utatlán 	7	Santa Rita 	9	Septiembre	2023-05-09T00:00:00	2024-11-08T07:00:00	3	Temperatura mínima	24.1
115492	7	Sololá	704	Santa Lucía Utatlán 	7	Santa Rita 	9	Septiembre	2023-05-09T00:00:00	2024-11-08T07:00:00	5	Humedad	71
115493	7	Sololá	704	Santa Lucía Utatlán 	7	Santa Rita 	9	Septiembre	2023-05-09T00:00:00	2024-11-08T07:00:00	6	Velocidad del viento	8
115494	7	Sololá	704	Santa Lucía Utatlán 	7	Santa Rita 	9	Septiembre	2023-05-09T00:00:00	2024-11-08T07:00:00	7	Dirección del viento	8.05
115495	7	Sololá	704	Santa Lucía Utatlán 	7	Santa Rita 	9	Septiembre	2023-05-09T00:00:00	2024-11-08T07:00:00	1	Precipitación	0
115496	7	Sololá	704	Santa Lucía Utatlán 	7	Santa Rita 	9	Septiembre	2023-05-09T00:00:00	2024-11-08T07:00:00	8	Radiación solar	118
115497	7	Sololá	704	Santa Lucía Utatlán 	7	Santa Rita 	9	Septiembre	2023-05-09T00:00:00	2024-11-08T08:00:00	2	Temperatura media	23.8
115498	7	Sololá	704	Santa Lucía Utatlán 	7	Santa Rita 	9	Septiembre	2023-05-09T00:00:00	2024-11-08T08:00:00	4	Temperatura máxima	24.2
115499	7	Sololá	704	Santa Lucía Utatlán 	7	Santa Rita 	9	Septiembre	2023-05-09T00:00:00	2024-11-08T08:00:00	3	Temperatura mínima	23
115500	7	Sololá	704	Santa Lucía Utatlán 	7	Santa Rita 	9	Septiembre	2023-05-09T00:00:00	2024-11-08T08:00:00	5	Humedad	75
115501	7	Sololá	704	Santa Lucía Utatlán 	7	Santa Rita 	9	Septiembre	2023-05-09T00:00:00	2024-11-08T08:00:00	6	Velocidad del viento	6.4
115502	7	Sololá	704	Santa Lucía Utatlán 	7	Santa Rita 	9	Septiembre	2023-05-09T00:00:00	2024-11-08T08:00:00	7	Dirección del viento	6.44
115503	7	Sololá	704	Santa Lucía Utatlán 	7	Santa Rita 	9	Septiembre	2023-05-09T00:00:00	2024-11-08T08:00:00	1	Precipitación	0
115504	7	Sololá	704	Santa Lucía Utatlán 	7	Santa Rita 	9	Septiembre	2023-05-09T00:00:00	2024-11-08T08:00:00	8	Radiación solar	401
115505	7	Sololá	704	Santa Lucía Utatlán 	7	Santa Rita 	9	Septiembre	2023-05-09T00:00:00	2024-11-08T09:00:00	2	Temperatura media	22.6
115506	7	Sololá	704	Santa Lucía Utatlán 	7	Santa Rita 	9	Septiembre	2023-05-09T00:00:00	2024-11-08T09:00:00	4	Temperatura máxima	24.7
115507	7	Sololá	704	Santa Lucía Utatlán 	7	Santa Rita 	9	Septiembre	2023-05-09T00:00:00	2024-11-08T09:00:00	3	Temperatura mínima	22.5
115508	7	Sololá	704	Santa Lucía Utatlán 	7	Santa Rita 	9	Septiembre	2023-05-09T00:00:00	2024-11-08T09:00:00	5	Humedad	82
115509	7	Sololá	704	Santa Lucía Utatlán 	7	Santa Rita 	9	Septiembre	2023-05-09T00:00:00	2024-11-08T09:00:00	6	Velocidad del viento	8
115510	7	Sololá	704	Santa Lucía Utatlán 	7	Santa Rita 	9	Septiembre	2023-05-09T00:00:00	2024-11-08T09:00:00	7	Dirección del viento	8.05
115511	7	Sololá	704	Santa Lucía Utatlán 	7	Santa Rita 	9	Septiembre	2023-05-09T00:00:00	2024-11-08T09:00:00	1	Precipitación	0
115512	7	Sololá	704	Santa Lucía Utatlán 	7	Santa Rita 	9	Septiembre	2023-05-09T00:00:00	2024-11-08T09:00:00	8	Radiación solar	624
115513	7	Sololá	704	Santa Lucía Utatlán 	7	Santa Rita 	9	Septiembre	2023-05-09T00:00:00	2024-11-08T10:00:00	2	Temperatura media	19.2
115514	7	Sololá	704	Santa Lucía Utatlán 	7	Santa Rita 	9	Septiembre	2023-05-09T00:00:00	2024-11-08T10:00:00	4	Temperatura máxima	22.5
115515	7	Sololá	704	Santa Lucía Utatlán 	7	Santa Rita 	9	Septiembre	2023-05-09T00:00:00	2024-11-08T10:00:00	3	Temperatura mínima	19
115516	7	Sololá	704	Santa Lucía Utatlán 	7	Santa Rita 	9	Septiembre	2023-05-09T00:00:00	2024-11-08T10:00:00	5	Humedad	94
115517	7	Sololá	704	Santa Lucía Utatlán 	7	Santa Rita 	9	Septiembre	2023-05-09T00:00:00	2024-11-08T10:00:00	6	Velocidad del viento	4.8
115518	7	Sololá	704	Santa Lucía Utatlán 	7	Santa Rita 	9	Septiembre	2023-05-09T00:00:00	2024-11-08T10:00:00	7	Dirección del viento	4.83
115519	7	Sololá	704	Santa Lucía Utatlán 	7	Santa Rita 	9	Septiembre	2023-05-09T00:00:00	2024-11-08T10:00:00	1	Precipitación	6.2
115520	7	Sololá	704	Santa Lucía Utatlán 	7	Santa Rita 	9	Septiembre	2023-05-09T00:00:00	2024-11-08T10:00:00	8	Radiación solar	846
115521	7	Sololá	704	Santa Lucía Utatlán 	7	Santa Rita 	9	Septiembre	2023-05-09T00:00:00	2024-11-08T11:00:00	2	Temperatura media	19
115522	7	Sololá	704	Santa Lucía Utatlán 	7	Santa Rita 	9	Septiembre	2023-05-09T00:00:00	2024-11-08T11:00:00	4	Temperatura máxima	19.2
115523	7	Sololá	704	Santa Lucía Utatlán 	7	Santa Rita 	9	Septiembre	2023-05-09T00:00:00	2024-11-08T11:00:00	3	Temperatura mínima	19
115524	7	Sololá	704	Santa Lucía Utatlán 	7	Santa Rita 	9	Septiembre	2023-05-09T00:00:00	2024-11-08T11:00:00	5	Humedad	95
115525	7	Sololá	704	Santa Lucía Utatlán 	7	Santa Rita 	9	Septiembre	2023-05-09T00:00:00	2024-11-08T11:00:00	6	Velocidad del viento	1.6
115526	7	Sololá	704	Santa Lucía Utatlán 	7	Santa Rita 	9	Septiembre	2023-05-09T00:00:00	2024-11-08T11:00:00	7	Dirección del viento	1.61
115527	7	Sololá	704	Santa Lucía Utatlán 	7	Santa Rita 	9	Septiembre	2023-05-09T00:00:00	2024-11-08T11:00:00	1	Precipitación	0.2
115528	7	Sololá	704	Santa Lucía Utatlán 	7	Santa Rita 	9	Septiembre	2023-05-09T00:00:00	2024-11-08T11:00:00	8	Radiación solar	980
115529	7	Sololá	704	Santa Lucía Utatlán 	7	Santa Rita 	9	Septiembre	2023-05-09T00:00:00	2024-11-08T12:00:00	2	Temperatura media	18.6
115530	7	Sololá	704	Santa Lucía Utatlán 	7	Santa Rita 	9	Septiembre	2023-05-09T00:00:00	2024-11-08T12:00:00	4	Temperatura máxima	19
115531	7	Sololá	704	Santa Lucía Utatlán 	7	Santa Rita 	9	Septiembre	2023-05-09T00:00:00	2024-11-08T12:00:00	3	Temperatura mínima	18.6
115532	7	Sololá	704	Santa Lucía Utatlán 	7	Santa Rita 	9	Septiembre	2023-05-09T00:00:00	2024-11-08T12:00:00	5	Humedad	93
115533	7	Sololá	704	Santa Lucía Utatlán 	7	Santa Rita 	9	Septiembre	2023-05-09T00:00:00	2024-11-08T12:00:00	6	Velocidad del viento	1.6
115534	7	Sololá	704	Santa Lucía Utatlán 	7	Santa Rita 	9	Septiembre	2023-05-09T00:00:00	2024-11-08T12:00:00	7	Dirección del viento	1.61
115535	7	Sololá	704	Santa Lucía Utatlán 	7	Santa Rita 	9	Septiembre	2023-05-09T00:00:00	2024-11-08T12:00:00	1	Precipitación	1.6
115536	7	Sololá	704	Santa Lucía Utatlán 	7	Santa Rita 	9	Septiembre	2023-05-09T00:00:00	2024-11-08T12:00:00	8	Radiación solar	1048
115537	7	Sololá	704	Santa Lucía Utatlán 	7	Santa Rita 	9	Septiembre	2023-05-09T00:00:00	2024-11-08T13:00:00	2	Temperatura media	18.2
115538	7	Sololá	704	Santa Lucía Utatlán 	7	Santa Rita 	9	Septiembre	2023-05-09T00:00:00	2024-11-08T13:00:00	4	Temperatura máxima	18.6
115539	7	Sololá	704	Santa Lucía Utatlán 	7	Santa Rita 	9	Septiembre	2023-05-09T00:00:00	2024-11-08T13:00:00	3	Temperatura mínima	18.1
115540	7	Sololá	704	Santa Lucía Utatlán 	7	Santa Rita 	9	Septiembre	2023-05-09T00:00:00	2024-11-08T13:00:00	5	Humedad	93
115541	7	Sololá	704	Santa Lucía Utatlán 	7	Santa Rita 	9	Septiembre	2023-05-09T00:00:00	2024-11-08T13:00:00	6	Velocidad del viento	3.2
115542	7	Sololá	704	Santa Lucía Utatlán 	7	Santa Rita 	9	Septiembre	2023-05-09T00:00:00	2024-11-08T13:00:00	7	Dirección del viento	3.22
115543	7	Sololá	704	Santa Lucía Utatlán 	7	Santa Rita 	9	Septiembre	2023-05-09T00:00:00	2024-11-08T13:00:00	1	Precipitación	0
115544	7	Sololá	704	Santa Lucía Utatlán 	7	Santa Rita 	9	Septiembre	2023-05-09T00:00:00	2024-11-08T13:00:00	8	Radiación solar	501
115545	7	Sololá	704	Santa Lucía Utatlán 	7	Santa Rita 	9	Septiembre	2023-05-09T00:00:00	2024-11-08T14:00:00	2	Temperatura media	18.2
115546	7	Sololá	704	Santa Lucía Utatlán 	7	Santa Rita 	9	Septiembre	2023-05-09T00:00:00	2024-11-08T14:00:00	4	Temperatura máxima	18.2
115547	7	Sololá	704	Santa Lucía Utatlán 	7	Santa Rita 	9	Septiembre	2023-05-09T00:00:00	2024-11-08T14:00:00	3	Temperatura mínima	18.1
115548	7	Sololá	704	Santa Lucía Utatlán 	7	Santa Rita 	9	Septiembre	2023-05-09T00:00:00	2024-11-08T14:00:00	5	Humedad	94
115549	7	Sololá	704	Santa Lucía Utatlán 	7	Santa Rita 	9	Septiembre	2023-05-09T00:00:00	2024-11-08T14:00:00	6	Velocidad del viento	1.6
115550	7	Sololá	704	Santa Lucía Utatlán 	7	Santa Rita 	9	Septiembre	2023-05-09T00:00:00	2024-11-08T14:00:00	7	Dirección del viento	1.61
115551	7	Sololá	704	Santa Lucía Utatlán 	7	Santa Rita 	9	Septiembre	2023-05-09T00:00:00	2024-11-08T14:00:00	1	Precipitación	0.6
115552	7	Sololá	704	Santa Lucía Utatlán 	7	Santa Rita 	9	Septiembre	2023-05-09T00:00:00	2024-11-08T14:00:00	8	Radiación solar	434
115553	7	Sololá	704	Santa Lucía Utatlán 	7	Santa Rita 	9	Septiembre	2023-05-09T00:00:00	2024-11-08T15:00:00	2	Temperatura media	18.3
115554	7	Sololá	704	Santa Lucía Utatlán 	7	Santa Rita 	9	Septiembre	2023-05-09T00:00:00	2024-11-08T15:00:00	4	Temperatura máxima	18.4
115555	7	Sololá	704	Santa Lucía Utatlán 	7	Santa Rita 	9	Septiembre	2023-05-09T00:00:00	2024-11-08T15:00:00	3	Temperatura mínima	18.2
115556	7	Sololá	704	Santa Lucía Utatlán 	7	Santa Rita 	9	Septiembre	2023-05-09T00:00:00	2024-11-08T15:00:00	5	Humedad	93
115557	7	Sololá	704	Santa Lucía Utatlán 	7	Santa Rita 	9	Septiembre	2023-05-09T00:00:00	2024-11-08T15:00:00	6	Velocidad del viento	3.2
115558	7	Sololá	704	Santa Lucía Utatlán 	7	Santa Rita 	9	Septiembre	2023-05-09T00:00:00	2024-11-08T15:00:00	7	Dirección del viento	3.22
115559	7	Sololá	704	Santa Lucía Utatlán 	7	Santa Rita 	9	Septiembre	2023-05-09T00:00:00	2024-11-08T15:00:00	1	Precipitación	0
115560	7	Sololá	704	Santa Lucía Utatlán 	7	Santa Rita 	9	Septiembre	2023-05-09T00:00:00	2024-11-08T15:00:00	8	Radiación solar	36
115561	7	Sololá	704	Santa Lucía Utatlán 	7	Santa Rita 	9	Septiembre	2023-05-09T00:00:00	2024-11-08T16:00:00	2	Temperatura media	19.4
115562	7	Sololá	704	Santa Lucía Utatlán 	7	Santa Rita 	9	Septiembre	2023-05-09T00:00:00	2024-11-08T16:00:00	4	Temperatura máxima	19.4
115563	7	Sololá	704	Santa Lucía Utatlán 	7	Santa Rita 	9	Septiembre	2023-05-09T00:00:00	2024-11-08T16:00:00	3	Temperatura mínima	17.9
115564	7	Sololá	704	Santa Lucía Utatlán 	7	Santa Rita 	9	Septiembre	2023-05-09T00:00:00	2024-11-08T16:00:00	5	Humedad	86
115565	7	Sololá	704	Santa Lucía Utatlán 	7	Santa Rita 	9	Septiembre	2023-05-09T00:00:00	2024-11-08T16:00:00	6	Velocidad del viento	4.8
115566	7	Sololá	704	Santa Lucía Utatlán 	7	Santa Rita 	9	Septiembre	2023-05-09T00:00:00	2024-11-08T16:00:00	7	Dirección del viento	4.83
115567	7	Sololá	704	Santa Lucía Utatlán 	7	Santa Rita 	9	Septiembre	2023-05-09T00:00:00	2024-11-08T16:00:00	1	Precipitación	0
115568	7	Sololá	704	Santa Lucía Utatlán 	7	Santa Rita 	9	Septiembre	2023-05-09T00:00:00	2024-11-08T16:00:00	8	Radiación solar	34
115569	7	Sololá	704	Santa Lucía Utatlán 	7	Santa Rita 	9	Septiembre	2023-05-09T00:00:00	2024-11-08T17:00:00	2	Temperatura media	18.8
115570	7	Sololá	704	Santa Lucía Utatlán 	7	Santa Rita 	9	Septiembre	2023-05-09T00:00:00	2024-11-08T17:00:00	4	Temperatura máxima	19.4
115571	7	Sololá	704	Santa Lucía Utatlán 	7	Santa Rita 	9	Septiembre	2023-05-09T00:00:00	2024-11-08T17:00:00	3	Temperatura mínima	18.5
115572	7	Sololá	704	Santa Lucía Utatlán 	7	Santa Rita 	9	Septiembre	2023-05-09T00:00:00	2024-11-08T17:00:00	5	Humedad	87
115573	7	Sololá	704	Santa Lucía Utatlán 	7	Santa Rita 	9	Septiembre	2023-05-09T00:00:00	2024-11-08T17:00:00	6	Velocidad del viento	3.2
115574	7	Sololá	704	Santa Lucía Utatlán 	7	Santa Rita 	9	Septiembre	2023-05-09T00:00:00	2024-11-08T17:00:00	7	Dirección del viento	3.22
115575	7	Sololá	704	Santa Lucía Utatlán 	7	Santa Rita 	9	Septiembre	2023-05-09T00:00:00	2024-11-08T17:00:00	1	Precipitación	0
115576	7	Sololá	704	Santa Lucía Utatlán 	7	Santa Rita 	9	Septiembre	2023-05-09T00:00:00	2024-11-08T17:00:00	8	Radiación solar	12
115577	7	Sololá	704	Santa Lucía Utatlán 	7	Santa Rita 	9	Septiembre	2023-05-09T00:00:00	2024-11-08T18:00:00	2	Temperatura media	18.5
115578	7	Sololá	704	Santa Lucía Utatlán 	7	Santa Rita 	9	Septiembre	2023-05-09T00:00:00	2024-11-08T18:00:00	4	Temperatura máxima	19.6
115579	7	Sololá	704	Santa Lucía Utatlán 	7	Santa Rita 	9	Septiembre	2023-05-09T00:00:00	2024-11-08T18:00:00	3	Temperatura mínima	18.5
115580	7	Sololá	704	Santa Lucía Utatlán 	7	Santa Rita 	9	Septiembre	2023-05-09T00:00:00	2024-11-08T18:00:00	5	Humedad	87
115581	7	Sololá	704	Santa Lucía Utatlán 	7	Santa Rita 	9	Septiembre	2023-05-09T00:00:00	2024-11-08T18:00:00	6	Velocidad del viento	4.8
115582	7	Sololá	704	Santa Lucía Utatlán 	7	Santa Rita 	9	Septiembre	2023-05-09T00:00:00	2024-11-08T18:00:00	7	Dirección del viento	4.83
115583	7	Sololá	704	Santa Lucía Utatlán 	7	Santa Rita 	9	Septiembre	2023-05-09T00:00:00	2024-11-08T18:00:00	1	Precipitación	0
115584	7	Sololá	704	Santa Lucía Utatlán 	7	Santa Rita 	9	Septiembre	2023-05-09T00:00:00	2024-11-08T18:00:00	8	Radiación solar	2
115585	7	Sololá	704	Santa Lucía Utatlán 	7	Santa Rita 	9	Septiembre	2023-05-09T00:00:00	2024-11-08T19:00:00	2	Temperatura media	17.6
115586	7	Sololá	704	Santa Lucía Utatlán 	7	Santa Rita 	9	Septiembre	2023-05-09T00:00:00	2024-11-08T19:00:00	4	Temperatura máxima	18.5
115587	7	Sololá	704	Santa Lucía Utatlán 	7	Santa Rita 	9	Septiembre	2023-05-09T00:00:00	2024-11-08T19:00:00	3	Temperatura mínima	17.6
115588	7	Sololá	704	Santa Lucía Utatlán 	7	Santa Rita 	9	Septiembre	2023-05-09T00:00:00	2024-11-08T19:00:00	5	Humedad	92
115589	7	Sololá	704	Santa Lucía Utatlán 	7	Santa Rita 	9	Septiembre	2023-05-09T00:00:00	2024-11-08T19:00:00	6	Velocidad del viento	1.6
115590	7	Sololá	704	Santa Lucía Utatlán 	7	Santa Rita 	9	Septiembre	2023-05-09T00:00:00	2024-11-08T19:00:00	7	Dirección del viento	1.61
115591	7	Sololá	704	Santa Lucía Utatlán 	7	Santa Rita 	9	Septiembre	2023-05-09T00:00:00	2024-11-08T19:00:00	1	Precipitación	0
115592	7	Sololá	704	Santa Lucía Utatlán 	7	Santa Rita 	9	Septiembre	2023-05-09T00:00:00	2024-11-08T19:00:00	8	Radiación solar	0
115593	7	Sololá	704	Santa Lucía Utatlán 	7	Santa Rita 	9	Septiembre	2023-05-09T00:00:00	2024-11-08T20:00:00	2	Temperatura media	17.4
115594	7	Sololá	704	Santa Lucía Utatlán 	7	Santa Rita 	9	Septiembre	2023-05-09T00:00:00	2024-11-08T20:00:00	4	Temperatura máxima	17.6
115595	7	Sololá	704	Santa Lucía Utatlán 	7	Santa Rita 	9	Septiembre	2023-05-09T00:00:00	2024-11-08T20:00:00	3	Temperatura mínima	17.2
115596	7	Sololá	704	Santa Lucía Utatlán 	7	Santa Rita 	9	Septiembre	2023-05-09T00:00:00	2024-11-08T20:00:00	5	Humedad	93
115597	7	Sololá	704	Santa Lucía Utatlán 	7	Santa Rita 	9	Septiembre	2023-05-09T00:00:00	2024-11-08T20:00:00	6	Velocidad del viento	1.6
115598	7	Sololá	704	Santa Lucía Utatlán 	7	Santa Rita 	9	Septiembre	2023-05-09T00:00:00	2024-11-08T20:00:00	7	Dirección del viento	1.61
115599	7	Sololá	704	Santa Lucía Utatlán 	7	Santa Rita 	9	Septiembre	2023-05-09T00:00:00	2024-11-08T20:00:00	1	Precipitación	0
115600	7	Sololá	704	Santa Lucía Utatlán 	7	Santa Rita 	9	Septiembre	2023-05-09T00:00:00	2024-11-08T20:00:00	8	Radiación solar	0
115601	7	Sololá	704	Santa Lucía Utatlán 	7	Santa Rita 	9	Septiembre	2023-05-09T00:00:00	2024-11-08T21:00:00	2	Temperatura media	17.2
115602	7	Sololá	704	Santa Lucía Utatlán 	7	Santa Rita 	9	Septiembre	2023-05-09T00:00:00	2024-11-08T21:00:00	4	Temperatura máxima	17.5
115603	7	Sololá	704	Santa Lucía Utatlán 	7	Santa Rita 	9	Septiembre	2023-05-09T00:00:00	2024-11-08T21:00:00	3	Temperatura mínima	17.1
115604	7	Sololá	704	Santa Lucía Utatlán 	7	Santa Rita 	9	Septiembre	2023-05-09T00:00:00	2024-11-08T21:00:00	5	Humedad	93
115605	7	Sololá	704	Santa Lucía Utatlán 	7	Santa Rita 	9	Septiembre	2023-05-09T00:00:00	2024-11-08T21:00:00	6	Velocidad del viento	1.6
115606	7	Sololá	704	Santa Lucía Utatlán 	7	Santa Rita 	9	Septiembre	2023-05-09T00:00:00	2024-11-08T21:00:00	7	Dirección del viento	1.61
115607	7	Sololá	704	Santa Lucía Utatlán 	7	Santa Rita 	9	Septiembre	2023-05-09T00:00:00	2024-11-08T21:00:00	1	Precipitación	0
115608	7	Sololá	704	Santa Lucía Utatlán 	7	Santa Rita 	9	Septiembre	2023-05-09T00:00:00	2024-11-08T21:00:00	8	Radiación solar	0
115609	7	Sololá	704	Santa Lucía Utatlán 	7	Santa Rita 	9	Septiembre	2023-05-09T00:00:00	2024-11-08T22:00:00	2	Temperatura media	17.2
115610	7	Sololá	704	Santa Lucía Utatlán 	7	Santa Rita 	9	Septiembre	2023-05-09T00:00:00	2024-11-08T22:00:00	4	Temperatura máxima	17.2
115611	7	Sololá	704	Santa Lucía Utatlán 	7	Santa Rita 	9	Septiembre	2023-05-09T00:00:00	2024-11-08T22:00:00	3	Temperatura mínima	16.9
115612	7	Sololá	704	Santa Lucía Utatlán 	7	Santa Rita 	9	Septiembre	2023-05-09T00:00:00	2024-11-08T22:00:00	5	Humedad	93
115613	7	Sololá	704	Santa Lucía Utatlán 	7	Santa Rita 	9	Septiembre	2023-05-09T00:00:00	2024-11-08T22:00:00	6	Velocidad del viento	3.2
115614	7	Sololá	704	Santa Lucía Utatlán 	7	Santa Rita 	9	Septiembre	2023-05-09T00:00:00	2024-11-08T22:00:00	7	Dirección del viento	3.22
115615	7	Sololá	704	Santa Lucía Utatlán 	7	Santa Rita 	9	Septiembre	2023-05-09T00:00:00	2024-11-08T22:00:00	1	Precipitación	0
115616	7	Sololá	704	Santa Lucía Utatlán 	7	Santa Rita 	9	Septiembre	2023-05-09T00:00:00	2024-11-08T22:00:00	8	Radiación solar	0
115617	7	Sololá	704	Santa Lucía Utatlán 	7	Santa Rita 	9	Septiembre	2023-05-09T00:00:00	2024-11-08T23:00:00	2	Temperatura media	17.2
115618	7	Sololá	704	Santa Lucía Utatlán 	7	Santa Rita 	9	Septiembre	2023-05-09T00:00:00	2024-11-08T23:00:00	4	Temperatura máxima	17.3
115619	7	Sololá	704	Santa Lucía Utatlán 	7	Santa Rita 	9	Septiembre	2023-05-09T00:00:00	2024-11-08T23:00:00	3	Temperatura mínima	17.1
115620	7	Sololá	704	Santa Lucía Utatlán 	7	Santa Rita 	9	Septiembre	2023-05-09T00:00:00	2024-11-08T23:00:00	5	Humedad	93
115621	7	Sololá	704	Santa Lucía Utatlán 	7	Santa Rita 	9	Septiembre	2023-05-09T00:00:00	2024-11-08T23:00:00	6	Velocidad del viento	1.6
115622	7	Sololá	704	Santa Lucía Utatlán 	7	Santa Rita 	9	Septiembre	2023-05-09T00:00:00	2024-11-08T23:00:00	7	Dirección del viento	1.61
115623	7	Sololá	704	Santa Lucía Utatlán 	7	Santa Rita 	9	Septiembre	2023-05-09T00:00:00	2024-11-08T23:00:00	1	Precipitación	0
115624	7	Sololá	704	Santa Lucía Utatlán 	7	Santa Rita 	9	Septiembre	2023-05-09T00:00:00	2024-11-08T23:00:00	8	Radiación solar	0
115625	7	Sololá	704	Santa Lucía Utatlán 	7	Santa Rita 	9	Septiembre	2023-06-09T00:00:00	2024-11-08T00:00:00	2	Temperatura media	17.9
115626	7	Sololá	704	Santa Lucía Utatlán 	7	Santa Rita 	9	Septiembre	2023-06-09T00:00:00	2024-11-08T00:00:00	4	Temperatura máxima	18.1
115627	7	Sololá	704	Santa Lucía Utatlán 	7	Santa Rita 	9	Septiembre	2023-06-09T00:00:00	2024-11-08T00:00:00	3	Temperatura mínima	17
115628	7	Sololá	704	Santa Lucía Utatlán 	7	Santa Rita 	9	Septiembre	2023-06-09T00:00:00	2024-11-08T00:00:00	5	Humedad	89
115629	7	Sololá	704	Santa Lucía Utatlán 	7	Santa Rita 	9	Septiembre	2023-06-09T00:00:00	2024-11-08T00:00:00	6	Velocidad del viento	3.2
115630	7	Sololá	704	Santa Lucía Utatlán 	7	Santa Rita 	9	Septiembre	2023-06-09T00:00:00	2024-11-08T00:00:00	7	Dirección del viento	3.22
115631	7	Sololá	704	Santa Lucía Utatlán 	7	Santa Rita 	9	Septiembre	2023-06-09T00:00:00	2024-11-08T00:00:00	1	Precipitación	0
115632	7	Sololá	704	Santa Lucía Utatlán 	7	Santa Rita 	9	Septiembre	2023-06-09T00:00:00	2024-11-08T00:00:00	8	Radiación solar	0
115633	7	Sololá	704	Santa Lucía Utatlán 	7	Santa Rita 	9	Septiembre	2023-06-09T00:00:00	2024-11-08T01:00:00	2	Temperatura media	17.3
115634	7	Sololá	704	Santa Lucía Utatlán 	7	Santa Rita 	9	Septiembre	2023-06-09T00:00:00	2024-11-08T01:00:00	4	Temperatura máxima	17.9
115635	7	Sololá	704	Santa Lucía Utatlán 	7	Santa Rita 	9	Septiembre	2023-06-09T00:00:00	2024-11-08T01:00:00	3	Temperatura mínima	17.3
115636	7	Sololá	704	Santa Lucía Utatlán 	7	Santa Rita 	9	Septiembre	2023-06-09T00:00:00	2024-11-08T01:00:00	5	Humedad	91
115637	7	Sololá	704	Santa Lucía Utatlán 	7	Santa Rita 	9	Septiembre	2023-06-09T00:00:00	2024-11-08T01:00:00	6	Velocidad del viento	1.6
115638	7	Sololá	704	Santa Lucía Utatlán 	7	Santa Rita 	9	Septiembre	2023-06-09T00:00:00	2024-11-08T01:00:00	7	Dirección del viento	1.61
115639	7	Sololá	704	Santa Lucía Utatlán 	7	Santa Rita 	9	Septiembre	2023-06-09T00:00:00	2024-11-08T01:00:00	1	Precipitación	0
115640	7	Sololá	704	Santa Lucía Utatlán 	7	Santa Rita 	9	Septiembre	2023-06-09T00:00:00	2024-11-08T01:00:00	8	Radiación solar	0
115641	7	Sololá	704	Santa Lucía Utatlán 	7	Santa Rita 	9	Septiembre	2023-06-09T00:00:00	2024-11-08T02:00:00	2	Temperatura media	17.9
115642	7	Sololá	704	Santa Lucía Utatlán 	7	Santa Rita 	9	Septiembre	2023-06-09T00:00:00	2024-11-08T02:00:00	4	Temperatura máxima	17.9
115643	7	Sololá	704	Santa Lucía Utatlán 	7	Santa Rita 	9	Septiembre	2023-06-09T00:00:00	2024-11-08T02:00:00	3	Temperatura mínima	17.2
115644	7	Sololá	704	Santa Lucía Utatlán 	7	Santa Rita 	9	Septiembre	2023-06-09T00:00:00	2024-11-08T02:00:00	5	Humedad	93
115645	7	Sololá	704	Santa Lucía Utatlán 	7	Santa Rita 	9	Septiembre	2023-06-09T00:00:00	2024-11-08T02:00:00	6	Velocidad del viento	1.6
115646	7	Sololá	704	Santa Lucía Utatlán 	7	Santa Rita 	9	Septiembre	2023-06-09T00:00:00	2024-11-08T02:00:00	7	Dirección del viento	1.61
115647	7	Sololá	704	Santa Lucía Utatlán 	7	Santa Rita 	9	Septiembre	2023-06-09T00:00:00	2024-11-08T02:00:00	1	Precipitación	0
115648	7	Sololá	704	Santa Lucía Utatlán 	7	Santa Rita 	9	Septiembre	2023-06-09T00:00:00	2024-11-08T02:00:00	8	Radiación solar	0
115649	7	Sololá	704	Santa Lucía Utatlán 	7	Santa Rita 	9	Septiembre	2023-06-09T00:00:00	2024-11-08T03:00:00	2	Temperatura media	20.4
115650	7	Sololá	704	Santa Lucía Utatlán 	7	Santa Rita 	9	Septiembre	2023-06-09T00:00:00	2024-11-08T03:00:00	4	Temperatura máxima	20.4
115651	7	Sololá	704	Santa Lucía Utatlán 	7	Santa Rita 	9	Septiembre	2023-06-09T00:00:00	2024-11-08T03:00:00	3	Temperatura mínima	17.9
115652	7	Sololá	704	Santa Lucía Utatlán 	7	Santa Rita 	9	Septiembre	2023-06-09T00:00:00	2024-11-08T03:00:00	5	Humedad	82
115653	7	Sololá	704	Santa Lucía Utatlán 	7	Santa Rita 	9	Septiembre	2023-06-09T00:00:00	2024-11-08T03:00:00	6	Velocidad del viento	1.6
115654	7	Sololá	704	Santa Lucía Utatlán 	7	Santa Rita 	9	Septiembre	2023-06-09T00:00:00	2024-11-08T03:00:00	7	Dirección del viento	1.61
115655	7	Sololá	704	Santa Lucía Utatlán 	7	Santa Rita 	9	Septiembre	2023-06-09T00:00:00	2024-11-08T03:00:00	1	Precipitación	0
115656	7	Sololá	704	Santa Lucía Utatlán 	7	Santa Rita 	9	Septiembre	2023-06-09T00:00:00	2024-11-08T03:00:00	8	Radiación solar	0
115657	7	Sololá	704	Santa Lucía Utatlán 	7	Santa Rita 	9	Septiembre	2023-06-09T00:00:00	2024-11-08T04:00:00	2	Temperatura media	21.2
115658	7	Sololá	704	Santa Lucía Utatlán 	7	Santa Rita 	9	Septiembre	2023-06-09T00:00:00	2024-11-08T04:00:00	4	Temperatura máxima	21.2
115659	7	Sololá	704	Santa Lucía Utatlán 	7	Santa Rita 	9	Septiembre	2023-06-09T00:00:00	2024-11-08T04:00:00	3	Temperatura mínima	20.4
115660	7	Sololá	704	Santa Lucía Utatlán 	7	Santa Rita 	9	Septiembre	2023-06-09T00:00:00	2024-11-08T04:00:00	5	Humedad	78
115661	7	Sololá	704	Santa Lucía Utatlán 	7	Santa Rita 	9	Septiembre	2023-06-09T00:00:00	2024-11-08T04:00:00	6	Velocidad del viento	1.6
115662	7	Sololá	704	Santa Lucía Utatlán 	7	Santa Rita 	9	Septiembre	2023-06-09T00:00:00	2024-11-08T04:00:00	7	Dirección del viento	1.61
115663	7	Sololá	704	Santa Lucía Utatlán 	7	Santa Rita 	9	Septiembre	2023-06-09T00:00:00	2024-11-08T04:00:00	1	Precipitación	0
115664	7	Sololá	704	Santa Lucía Utatlán 	7	Santa Rita 	9	Septiembre	2023-06-09T00:00:00	2024-11-08T04:00:00	8	Radiación solar	0
115665	7	Sololá	704	Santa Lucía Utatlán 	7	Santa Rita 	9	Septiembre	2023-06-09T00:00:00	2024-11-08T05:00:00	2	Temperatura media	21.5
115666	7	Sololá	704	Santa Lucía Utatlán 	7	Santa Rita 	9	Septiembre	2023-06-09T00:00:00	2024-11-08T05:00:00	4	Temperatura máxima	22.1
115667	7	Sololá	704	Santa Lucía Utatlán 	7	Santa Rita 	9	Septiembre	2023-06-09T00:00:00	2024-11-08T05:00:00	3	Temperatura mínima	21.2
115668	7	Sololá	704	Santa Lucía Utatlán 	7	Santa Rita 	9	Septiembre	2023-06-09T00:00:00	2024-11-08T05:00:00	5	Humedad	78
115669	7	Sololá	704	Santa Lucía Utatlán 	7	Santa Rita 	9	Septiembre	2023-06-09T00:00:00	2024-11-08T05:00:00	6	Velocidad del viento	4.8
115670	7	Sololá	704	Santa Lucía Utatlán 	7	Santa Rita 	9	Septiembre	2023-06-09T00:00:00	2024-11-08T05:00:00	7	Dirección del viento	4.83
115671	7	Sololá	704	Santa Lucía Utatlán 	7	Santa Rita 	9	Septiembre	2023-06-09T00:00:00	2024-11-08T05:00:00	1	Precipitación	0
115672	7	Sololá	704	Santa Lucía Utatlán 	7	Santa Rita 	9	Septiembre	2023-06-09T00:00:00	2024-11-08T05:00:00	8	Radiación solar	0
115673	7	Sololá	704	Santa Lucía Utatlán 	7	Santa Rita 	9	Septiembre	2023-06-09T00:00:00	2024-11-08T06:00:00	2	Temperatura media	22.5
115674	7	Sololá	704	Santa Lucía Utatlán 	7	Santa Rita 	9	Septiembre	2023-06-09T00:00:00	2024-11-08T06:00:00	4	Temperatura máxima	22.5
115675	7	Sololá	704	Santa Lucía Utatlán 	7	Santa Rita 	9	Septiembre	2023-06-09T00:00:00	2024-11-08T06:00:00	3	Temperatura mínima	21.4
115676	7	Sololá	704	Santa Lucía Utatlán 	7	Santa Rita 	9	Septiembre	2023-06-09T00:00:00	2024-11-08T06:00:00	5	Humedad	79
115677	7	Sololá	704	Santa Lucía Utatlán 	7	Santa Rita 	9	Septiembre	2023-06-09T00:00:00	2024-11-08T06:00:00	6	Velocidad del viento	6.4
115678	7	Sololá	704	Santa Lucía Utatlán 	7	Santa Rita 	9	Septiembre	2023-06-09T00:00:00	2024-11-08T06:00:00	7	Dirección del viento	6.44
115679	7	Sololá	704	Santa Lucía Utatlán 	7	Santa Rita 	9	Septiembre	2023-06-09T00:00:00	2024-11-08T06:00:00	1	Precipitación	0
115680	7	Sololá	704	Santa Lucía Utatlán 	7	Santa Rita 	9	Septiembre	2023-06-09T00:00:00	2024-11-08T06:00:00	8	Radiación solar	1
115681	7	Sololá	704	Santa Lucía Utatlán 	7	Santa Rita 	9	Septiembre	2023-06-09T00:00:00	2024-11-08T07:00:00	2	Temperatura media	23.1
115682	7	Sololá	704	Santa Lucía Utatlán 	7	Santa Rita 	9	Septiembre	2023-06-09T00:00:00	2024-11-08T07:00:00	4	Temperatura máxima	23.2
115683	7	Sololá	704	Santa Lucía Utatlán 	7	Santa Rita 	9	Septiembre	2023-06-09T00:00:00	2024-11-08T07:00:00	3	Temperatura mínima	22.6
115684	7	Sololá	704	Santa Lucía Utatlán 	7	Santa Rita 	9	Septiembre	2023-06-09T00:00:00	2024-11-08T07:00:00	5	Humedad	76
115685	7	Sololá	704	Santa Lucía Utatlán 	7	Santa Rita 	9	Septiembre	2023-06-09T00:00:00	2024-11-08T07:00:00	6	Velocidad del viento	6.4
115686	7	Sololá	704	Santa Lucía Utatlán 	7	Santa Rita 	9	Septiembre	2023-06-09T00:00:00	2024-11-08T07:00:00	7	Dirección del viento	6.44
115687	7	Sololá	704	Santa Lucía Utatlán 	7	Santa Rita 	9	Septiembre	2023-06-09T00:00:00	2024-11-08T07:00:00	1	Precipitación	0
115688	7	Sololá	704	Santa Lucía Utatlán 	7	Santa Rita 	9	Septiembre	2023-06-09T00:00:00	2024-11-08T07:00:00	8	Radiación solar	55
115689	7	Sololá	704	Santa Lucía Utatlán 	7	Santa Rita 	9	Septiembre	2023-06-09T00:00:00	2024-11-08T08:00:00	2	Temperatura media	24.1
115690	7	Sololá	704	Santa Lucía Utatlán 	7	Santa Rita 	9	Septiembre	2023-06-09T00:00:00	2024-11-08T08:00:00	4	Temperatura máxima	24.1
115691	7	Sololá	704	Santa Lucía Utatlán 	7	Santa Rita 	9	Septiembre	2023-06-09T00:00:00	2024-11-08T08:00:00	3	Temperatura mínima	22.9
115692	7	Sololá	704	Santa Lucía Utatlán 	7	Santa Rita 	9	Septiembre	2023-06-09T00:00:00	2024-11-08T08:00:00	5	Humedad	69
115693	7	Sololá	704	Santa Lucía Utatlán 	7	Santa Rita 	9	Septiembre	2023-06-09T00:00:00	2024-11-08T08:00:00	6	Velocidad del viento	4.8
115694	7	Sololá	704	Santa Lucía Utatlán 	7	Santa Rita 	9	Septiembre	2023-06-09T00:00:00	2024-11-08T08:00:00	7	Dirección del viento	4.83
115695	7	Sololá	704	Santa Lucía Utatlán 	7	Santa Rita 	9	Septiembre	2023-06-09T00:00:00	2024-11-08T08:00:00	1	Precipitación	0
115696	7	Sololá	704	Santa Lucía Utatlán 	7	Santa Rita 	9	Septiembre	2023-06-09T00:00:00	2024-11-08T08:00:00	8	Radiación solar	255
115697	7	Sololá	704	Santa Lucía Utatlán 	7	Santa Rita 	9	Septiembre	2023-06-09T00:00:00	2024-11-08T09:00:00	2	Temperatura media	25.1
115698	7	Sololá	704	Santa Lucía Utatlán 	7	Santa Rita 	9	Septiembre	2023-06-09T00:00:00	2024-11-08T09:00:00	4	Temperatura máxima	25.1
115699	7	Sololá	704	Santa Lucía Utatlán 	7	Santa Rita 	9	Septiembre	2023-06-09T00:00:00	2024-11-08T09:00:00	3	Temperatura mínima	23.6
115700	7	Sololá	704	Santa Lucía Utatlán 	7	Santa Rita 	9	Septiembre	2023-06-09T00:00:00	2024-11-08T09:00:00	5	Humedad	66
115701	7	Sololá	704	Santa Lucía Utatlán 	7	Santa Rita 	9	Septiembre	2023-06-09T00:00:00	2024-11-08T09:00:00	6	Velocidad del viento	4.8
115702	7	Sololá	704	Santa Lucía Utatlán 	7	Santa Rita 	9	Septiembre	2023-06-09T00:00:00	2024-11-08T09:00:00	7	Dirección del viento	4.83
115703	7	Sololá	704	Santa Lucía Utatlán 	7	Santa Rita 	9	Septiembre	2023-06-09T00:00:00	2024-11-08T09:00:00	1	Precipitación	0
115704	7	Sololá	704	Santa Lucía Utatlán 	7	Santa Rita 	9	Septiembre	2023-06-09T00:00:00	2024-11-08T09:00:00	8	Radiación solar	245
115705	7	Sololá	704	Santa Lucía Utatlán 	7	Santa Rita 	9	Septiembre	2023-06-09T00:00:00	2024-11-08T10:00:00	2	Temperatura media	23.8
115706	7	Sololá	704	Santa Lucía Utatlán 	7	Santa Rita 	9	Septiembre	2023-06-09T00:00:00	2024-11-08T10:00:00	4	Temperatura máxima	25.2
115707	7	Sololá	704	Santa Lucía Utatlán 	7	Santa Rita 	9	Septiembre	2023-06-09T00:00:00	2024-11-08T10:00:00	3	Temperatura mínima	23.6
115708	7	Sololá	704	Santa Lucía Utatlán 	7	Santa Rita 	9	Septiembre	2023-06-09T00:00:00	2024-11-08T10:00:00	5	Humedad	76
115709	7	Sololá	704	Santa Lucía Utatlán 	7	Santa Rita 	9	Septiembre	2023-06-09T00:00:00	2024-11-08T10:00:00	6	Velocidad del viento	6.4
115710	7	Sololá	704	Santa Lucía Utatlán 	7	Santa Rita 	9	Septiembre	2023-06-09T00:00:00	2024-11-08T10:00:00	7	Dirección del viento	6.44
115711	7	Sololá	704	Santa Lucía Utatlán 	7	Santa Rita 	9	Septiembre	2023-06-09T00:00:00	2024-11-08T10:00:00	1	Precipitación	0
115712	7	Sololá	704	Santa Lucía Utatlán 	7	Santa Rita 	9	Septiembre	2023-06-09T00:00:00	2024-11-08T10:00:00	8	Radiación solar	412
115713	7	Sololá	704	Santa Lucía Utatlán 	7	Santa Rita 	9	Septiembre	2023-06-09T00:00:00	2024-11-08T11:00:00	2	Temperatura media	22.6
115714	7	Sololá	704	Santa Lucía Utatlán 	7	Santa Rita 	9	Septiembre	2023-06-09T00:00:00	2024-11-08T11:00:00	4	Temperatura máxima	24.1
115715	7	Sololá	704	Santa Lucía Utatlán 	7	Santa Rita 	9	Septiembre	2023-06-09T00:00:00	2024-11-08T11:00:00	3	Temperatura mínima	22.6
115716	7	Sololá	704	Santa Lucía Utatlán 	7	Santa Rita 	9	Septiembre	2023-06-09T00:00:00	2024-11-08T11:00:00	5	Humedad	77
115717	7	Sololá	704	Santa Lucía Utatlán 	7	Santa Rita 	9	Septiembre	2023-06-09T00:00:00	2024-11-08T11:00:00	6	Velocidad del viento	6.4
115718	7	Sololá	704	Santa Lucía Utatlán 	7	Santa Rita 	9	Septiembre	2023-06-09T00:00:00	2024-11-08T11:00:00	7	Dirección del viento	6.44
115719	7	Sololá	704	Santa Lucía Utatlán 	7	Santa Rita 	9	Septiembre	2023-06-09T00:00:00	2024-11-08T11:00:00	1	Precipitación	0
115720	7	Sololá	704	Santa Lucía Utatlán 	7	Santa Rita 	9	Septiembre	2023-06-09T00:00:00	2024-11-08T11:00:00	8	Radiación solar	519
115721	7	Sololá	704	Santa Lucía Utatlán 	7	Santa Rita 	9	Septiembre	2023-06-09T00:00:00	2024-11-08T12:00:00	2	Temperatura media	22.9
115722	7	Sololá	704	Santa Lucía Utatlán 	7	Santa Rita 	9	Septiembre	2023-06-09T00:00:00	2024-11-08T12:00:00	4	Temperatura máxima	24.1
115723	7	Sololá	704	Santa Lucía Utatlán 	7	Santa Rita 	9	Septiembre	2023-06-09T00:00:00	2024-11-08T12:00:00	3	Temperatura mínima	22.5
115724	7	Sololá	704	Santa Lucía Utatlán 	7	Santa Rita 	9	Septiembre	2023-06-09T00:00:00	2024-11-08T12:00:00	5	Humedad	75
115725	7	Sololá	704	Santa Lucía Utatlán 	7	Santa Rita 	9	Septiembre	2023-06-09T00:00:00	2024-11-08T12:00:00	6	Velocidad del viento	4.8
115726	7	Sololá	704	Santa Lucía Utatlán 	7	Santa Rita 	9	Septiembre	2023-06-09T00:00:00	2024-11-08T12:00:00	7	Dirección del viento	4.83
115727	7	Sololá	704	Santa Lucía Utatlán 	7	Santa Rita 	9	Septiembre	2023-06-09T00:00:00	2024-11-08T12:00:00	1	Precipitación	0
115728	7	Sololá	704	Santa Lucía Utatlán 	7	Santa Rita 	9	Septiembre	2023-06-09T00:00:00	2024-11-08T12:00:00	8	Radiación solar	510
115729	7	Sololá	704	Santa Lucía Utatlán 	7	Santa Rita 	9	Septiembre	2023-06-09T00:00:00	2024-11-08T13:00:00	2	Temperatura media	21.8
115730	7	Sololá	704	Santa Lucía Utatlán 	7	Santa Rita 	9	Septiembre	2023-06-09T00:00:00	2024-11-08T13:00:00	4	Temperatura máxima	22.9
115731	7	Sololá	704	Santa Lucía Utatlán 	7	Santa Rita 	9	Septiembre	2023-06-09T00:00:00	2024-11-08T13:00:00	3	Temperatura mínima	21.8
115732	7	Sololá	704	Santa Lucía Utatlán 	7	Santa Rita 	9	Septiembre	2023-06-09T00:00:00	2024-11-08T13:00:00	5	Humedad	79
115733	7	Sololá	704	Santa Lucía Utatlán 	7	Santa Rita 	9	Septiembre	2023-06-09T00:00:00	2024-11-08T13:00:00	6	Velocidad del viento	3.2
115734	7	Sololá	704	Santa Lucía Utatlán 	7	Santa Rita 	9	Septiembre	2023-06-09T00:00:00	2024-11-08T13:00:00	7	Dirección del viento	3.22
115735	7	Sololá	704	Santa Lucía Utatlán 	7	Santa Rita 	9	Septiembre	2023-06-09T00:00:00	2024-11-08T13:00:00	1	Precipitación	0
115736	7	Sololá	704	Santa Lucía Utatlán 	7	Santa Rita 	9	Septiembre	2023-06-09T00:00:00	2024-11-08T13:00:00	8	Radiación solar	536
115737	7	Sololá	704	Santa Lucía Utatlán 	7	Santa Rita 	9	Septiembre	2023-06-09T00:00:00	2024-11-08T14:00:00	2	Temperatura media	19.8
115738	7	Sololá	704	Santa Lucía Utatlán 	7	Santa Rita 	9	Septiembre	2023-06-09T00:00:00	2024-11-08T14:00:00	4	Temperatura máxima	21.7
115739	7	Sololá	704	Santa Lucía Utatlán 	7	Santa Rita 	9	Septiembre	2023-06-09T00:00:00	2024-11-08T14:00:00	3	Temperatura mínima	19.8
115740	7	Sololá	704	Santa Lucía Utatlán 	7	Santa Rita 	9	Septiembre	2023-06-09T00:00:00	2024-11-08T14:00:00	5	Humedad	84
115741	7	Sololá	704	Santa Lucía Utatlán 	7	Santa Rita 	9	Septiembre	2023-06-09T00:00:00	2024-11-08T14:00:00	6	Velocidad del viento	1.6
115742	7	Sololá	704	Santa Lucía Utatlán 	7	Santa Rita 	9	Septiembre	2023-06-09T00:00:00	2024-11-08T14:00:00	7	Dirección del viento	1.61
115743	7	Sololá	704	Santa Lucía Utatlán 	7	Santa Rita 	9	Septiembre	2023-06-09T00:00:00	2024-11-08T14:00:00	1	Precipitación	0
115744	7	Sololá	704	Santa Lucía Utatlán 	7	Santa Rita 	9	Septiembre	2023-06-09T00:00:00	2024-11-08T14:00:00	8	Radiación solar	642
115745	7	Sololá	704	Santa Lucía Utatlán 	7	Santa Rita 	9	Septiembre	2023-06-09T00:00:00	2024-11-08T15:00:00	2	Temperatura media	18.9
115746	7	Sololá	704	Santa Lucía Utatlán 	7	Santa Rita 	9	Septiembre	2023-06-09T00:00:00	2024-11-08T15:00:00	4	Temperatura máxima	19.8
115747	7	Sololá	704	Santa Lucía Utatlán 	7	Santa Rita 	9	Septiembre	2023-06-09T00:00:00	2024-11-08T15:00:00	3	Temperatura mínima	18.8
115748	7	Sololá	704	Santa Lucía Utatlán 	7	Santa Rita 	9	Septiembre	2023-06-09T00:00:00	2024-11-08T15:00:00	5	Humedad	85
115749	7	Sololá	704	Santa Lucía Utatlán 	7	Santa Rita 	9	Septiembre	2023-06-09T00:00:00	2024-11-08T15:00:00	6	Velocidad del viento	3.2
115750	7	Sololá	704	Santa Lucía Utatlán 	7	Santa Rita 	9	Septiembre	2023-06-09T00:00:00	2024-11-08T15:00:00	7	Dirección del viento	3.22
115751	7	Sololá	704	Santa Lucía Utatlán 	7	Santa Rita 	9	Septiembre	2023-06-09T00:00:00	2024-11-08T15:00:00	1	Precipitación	0
115752	7	Sololá	704	Santa Lucía Utatlán 	7	Santa Rita 	9	Septiembre	2023-06-09T00:00:00	2024-11-08T15:00:00	8	Radiación solar	390
115753	7	Sololá	704	Santa Lucía Utatlán 	7	Santa Rita 	9	Septiembre	2023-06-09T00:00:00	2024-11-08T16:00:00	2	Temperatura media	18.3
115754	7	Sololá	704	Santa Lucía Utatlán 	7	Santa Rita 	9	Septiembre	2023-06-09T00:00:00	2024-11-08T16:00:00	4	Temperatura máxima	18.9
115755	7	Sololá	704	Santa Lucía Utatlán 	7	Santa Rita 	9	Septiembre	2023-06-09T00:00:00	2024-11-08T16:00:00	3	Temperatura mínima	18.3
115756	7	Sololá	704	Santa Lucía Utatlán 	7	Santa Rita 	9	Septiembre	2023-06-09T00:00:00	2024-11-08T16:00:00	5	Humedad	88
115757	7	Sololá	704	Santa Lucía Utatlán 	7	Santa Rita 	9	Septiembre	2023-06-09T00:00:00	2024-11-08T16:00:00	6	Velocidad del viento	3.2
115758	7	Sololá	704	Santa Lucía Utatlán 	7	Santa Rita 	9	Septiembre	2023-06-09T00:00:00	2024-11-08T16:00:00	7	Dirección del viento	3.22
115759	7	Sololá	704	Santa Lucía Utatlán 	7	Santa Rita 	9	Septiembre	2023-06-09T00:00:00	2024-11-08T16:00:00	1	Precipitación	0
115760	7	Sololá	704	Santa Lucía Utatlán 	7	Santa Rita 	9	Septiembre	2023-06-09T00:00:00	2024-11-08T16:00:00	8	Radiación solar	181
115761	7	Sololá	704	Santa Lucía Utatlán 	7	Santa Rita 	9	Septiembre	2023-06-09T00:00:00	2024-11-08T17:00:00	2	Temperatura media	18.2
115762	7	Sololá	704	Santa Lucía Utatlán 	7	Santa Rita 	9	Septiembre	2023-06-09T00:00:00	2024-11-08T17:00:00	4	Temperatura máxima	18.4
115763	7	Sololá	704	Santa Lucía Utatlán 	7	Santa Rita 	9	Septiembre	2023-06-09T00:00:00	2024-11-08T17:00:00	3	Temperatura mínima	18.1
115764	7	Sololá	704	Santa Lucía Utatlán 	7	Santa Rita 	9	Septiembre	2023-06-09T00:00:00	2024-11-08T17:00:00	5	Humedad	89
115765	7	Sololá	704	Santa Lucía Utatlán 	7	Santa Rita 	9	Septiembre	2023-06-09T00:00:00	2024-11-08T17:00:00	6	Velocidad del viento	4.8
115766	7	Sololá	704	Santa Lucía Utatlán 	7	Santa Rita 	9	Septiembre	2023-06-09T00:00:00	2024-11-08T17:00:00	7	Dirección del viento	4.83
115767	7	Sololá	704	Santa Lucía Utatlán 	7	Santa Rita 	9	Septiembre	2023-06-09T00:00:00	2024-11-08T17:00:00	1	Precipitación	0
115768	7	Sololá	704	Santa Lucía Utatlán 	7	Santa Rita 	9	Septiembre	2023-06-09T00:00:00	2024-11-08T17:00:00	8	Radiación solar	229
115769	7	Sololá	704	Santa Lucía Utatlán 	7	Santa Rita 	9	Septiembre	2023-06-09T00:00:00	2024-11-08T18:00:00	2	Temperatura media	17.9
115770	7	Sololá	704	Santa Lucía Utatlán 	7	Santa Rita 	9	Septiembre	2023-06-09T00:00:00	2024-11-08T18:00:00	4	Temperatura máxima	18.3
115771	7	Sololá	704	Santa Lucía Utatlán 	7	Santa Rita 	9	Septiembre	2023-06-09T00:00:00	2024-11-08T18:00:00	3	Temperatura mínima	17.9
115772	7	Sololá	704	Santa Lucía Utatlán 	7	Santa Rita 	9	Septiembre	2023-06-09T00:00:00	2024-11-08T18:00:00	5	Humedad	89
115773	7	Sololá	704	Santa Lucía Utatlán 	7	Santa Rita 	9	Septiembre	2023-06-09T00:00:00	2024-11-08T18:00:00	6	Velocidad del viento	4.8
115774	7	Sololá	704	Santa Lucía Utatlán 	7	Santa Rita 	9	Septiembre	2023-06-09T00:00:00	2024-11-08T18:00:00	7	Dirección del viento	4.83
115775	7	Sololá	704	Santa Lucía Utatlán 	7	Santa Rita 	9	Septiembre	2023-06-09T00:00:00	2024-11-08T18:00:00	1	Precipitación	0
115776	7	Sololá	704	Santa Lucía Utatlán 	7	Santa Rita 	9	Septiembre	2023-06-09T00:00:00	2024-11-08T18:00:00	8	Radiación solar	57
115777	7	Sololá	704	Santa Lucía Utatlán 	7	Santa Rita 	9	Septiembre	2023-06-09T00:00:00	2024-11-08T19:00:00	2	Temperatura media	18.3
115778	7	Sololá	704	Santa Lucía Utatlán 	7	Santa Rita 	9	Septiembre	2023-06-09T00:00:00	2024-11-08T19:00:00	4	Temperatura máxima	18.3
115779	7	Sololá	704	Santa Lucía Utatlán 	7	Santa Rita 	9	Septiembre	2023-06-09T00:00:00	2024-11-08T19:00:00	3	Temperatura mínima	17.8
115780	7	Sololá	704	Santa Lucía Utatlán 	7	Santa Rita 	9	Septiembre	2023-06-09T00:00:00	2024-11-08T19:00:00	5	Humedad	87
115781	7	Sololá	704	Santa Lucía Utatlán 	7	Santa Rita 	9	Septiembre	2023-06-09T00:00:00	2024-11-08T19:00:00	6	Velocidad del viento	3.2
115782	7	Sololá	704	Santa Lucía Utatlán 	7	Santa Rita 	9	Septiembre	2023-06-09T00:00:00	2024-11-08T19:00:00	7	Dirección del viento	3.22
115783	7	Sololá	704	Santa Lucía Utatlán 	7	Santa Rita 	9	Septiembre	2023-06-09T00:00:00	2024-11-08T19:00:00	1	Precipitación	0
115784	7	Sololá	704	Santa Lucía Utatlán 	7	Santa Rita 	9	Septiembre	2023-06-09T00:00:00	2024-11-08T19:00:00	8	Radiación solar	0
115785	7	Sololá	704	Santa Lucía Utatlán 	7	Santa Rita 	9	Septiembre	2023-06-09T00:00:00	2024-11-08T20:00:00	2	Temperatura media	18
115786	7	Sololá	704	Santa Lucía Utatlán 	7	Santa Rita 	9	Septiembre	2023-06-09T00:00:00	2024-11-08T20:00:00	4	Temperatura máxima	18.3
115787	7	Sololá	704	Santa Lucía Utatlán 	7	Santa Rita 	9	Septiembre	2023-06-09T00:00:00	2024-11-08T20:00:00	3	Temperatura mínima	17.8
115788	7	Sololá	704	Santa Lucía Utatlán 	7	Santa Rita 	9	Septiembre	2023-06-09T00:00:00	2024-11-08T20:00:00	5	Humedad	87
115789	7	Sololá	704	Santa Lucía Utatlán 	7	Santa Rita 	9	Septiembre	2023-06-09T00:00:00	2024-11-08T20:00:00	6	Velocidad del viento	4.8
115790	7	Sololá	704	Santa Lucía Utatlán 	7	Santa Rita 	9	Septiembre	2023-06-09T00:00:00	2024-11-08T20:00:00	7	Dirección del viento	4.83
115791	7	Sololá	704	Santa Lucía Utatlán 	7	Santa Rita 	9	Septiembre	2023-06-09T00:00:00	2024-11-08T20:00:00	1	Precipitación	0
115792	7	Sololá	704	Santa Lucía Utatlán 	7	Santa Rita 	9	Septiembre	2023-06-09T00:00:00	2024-11-08T20:00:00	8	Radiación solar	0
115793	7	Sololá	704	Santa Lucía Utatlán 	7	Santa Rita 	9	Septiembre	2023-06-09T00:00:00	2024-11-08T21:00:00	2	Temperatura media	17.4
115794	7	Sololá	704	Santa Lucía Utatlán 	7	Santa Rita 	9	Septiembre	2023-06-09T00:00:00	2024-11-08T21:00:00	4	Temperatura máxima	18
115795	7	Sololá	704	Santa Lucía Utatlán 	7	Santa Rita 	9	Septiembre	2023-06-09T00:00:00	2024-11-08T21:00:00	3	Temperatura mínima	17.4
115796	7	Sololá	704	Santa Lucía Utatlán 	7	Santa Rita 	9	Septiembre	2023-06-09T00:00:00	2024-11-08T21:00:00	5	Humedad	90
115797	7	Sololá	704	Santa Lucía Utatlán 	7	Santa Rita 	9	Septiembre	2023-06-09T00:00:00	2024-11-08T21:00:00	6	Velocidad del viento	4.8
115798	7	Sololá	704	Santa Lucía Utatlán 	7	Santa Rita 	9	Septiembre	2023-06-09T00:00:00	2024-11-08T21:00:00	7	Dirección del viento	4.83
115799	7	Sololá	704	Santa Lucía Utatlán 	7	Santa Rita 	9	Septiembre	2023-06-09T00:00:00	2024-11-08T21:00:00	1	Precipitación	0
115800	7	Sololá	704	Santa Lucía Utatlán 	7	Santa Rita 	9	Septiembre	2023-06-09T00:00:00	2024-11-08T21:00:00	8	Radiación solar	0
115801	7	Sololá	704	Santa Lucía Utatlán 	7	Santa Rita 	9	Septiembre	2023-06-09T00:00:00	2024-11-08T22:00:00	2	Temperatura media	17.4
115802	7	Sololá	704	Santa Lucía Utatlán 	7	Santa Rita 	9	Septiembre	2023-06-09T00:00:00	2024-11-08T22:00:00	4	Temperatura máxima	17.8
115803	7	Sololá	704	Santa Lucía Utatlán 	7	Santa Rita 	9	Septiembre	2023-06-09T00:00:00	2024-11-08T22:00:00	3	Temperatura mínima	17.4
115804	7	Sololá	704	Santa Lucía Utatlán 	7	Santa Rita 	9	Septiembre	2023-06-09T00:00:00	2024-11-08T22:00:00	5	Humedad	90
115805	7	Sololá	704	Santa Lucía Utatlán 	7	Santa Rita 	9	Septiembre	2023-06-09T00:00:00	2024-11-08T22:00:00	6	Velocidad del viento	3.2
115806	7	Sololá	704	Santa Lucía Utatlán 	7	Santa Rita 	9	Septiembre	2023-06-09T00:00:00	2024-11-08T22:00:00	7	Dirección del viento	3.22
115807	7	Sololá	704	Santa Lucía Utatlán 	7	Santa Rita 	9	Septiembre	2023-06-09T00:00:00	2024-11-08T22:00:00	1	Precipitación	0
115808	7	Sololá	704	Santa Lucía Utatlán 	7	Santa Rita 	9	Septiembre	2023-06-09T00:00:00	2024-11-08T22:00:00	8	Radiación solar	0
115809	7	Sololá	704	Santa Lucía Utatlán 	7	Santa Rita 	9	Septiembre	2023-06-09T00:00:00	2024-11-08T23:00:00	2	Temperatura media	17.3
115810	7	Sololá	704	Santa Lucía Utatlán 	7	Santa Rita 	9	Septiembre	2023-06-09T00:00:00	2024-11-08T23:00:00	4	Temperatura máxima	17.4
115811	7	Sololá	704	Santa Lucía Utatlán 	7	Santa Rita 	9	Septiembre	2023-06-09T00:00:00	2024-11-08T23:00:00	3	Temperatura mínima	17.2
115812	7	Sololá	704	Santa Lucía Utatlán 	7	Santa Rita 	9	Septiembre	2023-06-09T00:00:00	2024-11-08T23:00:00	5	Humedad	90
115813	7	Sololá	704	Santa Lucía Utatlán 	7	Santa Rita 	9	Septiembre	2023-06-09T00:00:00	2024-11-08T23:00:00	6	Velocidad del viento	4.8
115814	7	Sololá	704	Santa Lucía Utatlán 	7	Santa Rita 	9	Septiembre	2023-06-09T00:00:00	2024-11-08T23:00:00	7	Dirección del viento	4.83
115815	7	Sololá	704	Santa Lucía Utatlán 	7	Santa Rita 	9	Septiembre	2023-06-09T00:00:00	2024-11-08T23:00:00	1	Precipitación	0
115816	7	Sololá	704	Santa Lucía Utatlán 	7	Santa Rita 	9	Septiembre	2023-06-09T00:00:00	2024-11-08T23:00:00	8	Radiación solar	0
115817	7	Sololá	704	Santa Lucía Utatlán 	7	Santa Rita 	9	Septiembre	2023-07-09T00:00:00	2024-11-08T00:00:00	2	Temperatura media	17.2
115818	7	Sololá	704	Santa Lucía Utatlán 	7	Santa Rita 	9	Septiembre	2023-07-09T00:00:00	2024-11-08T00:00:00	4	Temperatura máxima	17.4
115819	7	Sololá	704	Santa Lucía Utatlán 	7	Santa Rita 	9	Septiembre	2023-07-09T00:00:00	2024-11-08T00:00:00	3	Temperatura mínima	17.1
115820	7	Sololá	704	Santa Lucía Utatlán 	7	Santa Rita 	9	Septiembre	2023-07-09T00:00:00	2024-11-08T00:00:00	5	Humedad	91
115821	7	Sololá	704	Santa Lucía Utatlán 	7	Santa Rita 	9	Septiembre	2023-07-09T00:00:00	2024-11-08T00:00:00	6	Velocidad del viento	4.8
115822	7	Sololá	704	Santa Lucía Utatlán 	7	Santa Rita 	9	Septiembre	2023-07-09T00:00:00	2024-11-08T00:00:00	7	Dirección del viento	4.83
115823	7	Sololá	704	Santa Lucía Utatlán 	7	Santa Rita 	9	Septiembre	2023-07-09T00:00:00	2024-11-08T00:00:00	1	Precipitación	0
115824	7	Sololá	704	Santa Lucía Utatlán 	7	Santa Rita 	9	Septiembre	2023-07-09T00:00:00	2024-11-08T00:00:00	8	Radiación solar	0
115825	7	Sololá	704	Santa Lucía Utatlán 	7	Santa Rita 	9	Septiembre	2023-07-09T00:00:00	2024-11-08T01:00:00	2	Temperatura media	16.7
115826	7	Sololá	704	Santa Lucía Utatlán 	7	Santa Rita 	9	Septiembre	2023-07-09T00:00:00	2024-11-08T01:00:00	4	Temperatura máxima	17.3
115827	7	Sololá	704	Santa Lucía Utatlán 	7	Santa Rita 	9	Septiembre	2023-07-09T00:00:00	2024-11-08T01:00:00	3	Temperatura mínima	16.7
115828	7	Sololá	704	Santa Lucía Utatlán 	7	Santa Rita 	9	Septiembre	2023-07-09T00:00:00	2024-11-08T01:00:00	5	Humedad	92
115829	7	Sololá	704	Santa Lucía Utatlán 	7	Santa Rita 	9	Septiembre	2023-07-09T00:00:00	2024-11-08T01:00:00	6	Velocidad del viento	3.2
115830	7	Sololá	704	Santa Lucía Utatlán 	7	Santa Rita 	9	Septiembre	2023-07-09T00:00:00	2024-11-08T01:00:00	7	Dirección del viento	3.22
115831	7	Sololá	704	Santa Lucía Utatlán 	7	Santa Rita 	9	Septiembre	2023-07-09T00:00:00	2024-11-08T01:00:00	1	Precipitación	0
115832	7	Sololá	704	Santa Lucía Utatlán 	7	Santa Rita 	9	Septiembre	2023-07-09T00:00:00	2024-11-08T01:00:00	8	Radiación solar	0
115833	7	Sololá	704	Santa Lucía Utatlán 	7	Santa Rita 	9	Septiembre	2023-07-09T00:00:00	2024-11-08T02:00:00	2	Temperatura media	19.3
115834	7	Sololá	704	Santa Lucía Utatlán 	7	Santa Rita 	9	Septiembre	2023-07-09T00:00:00	2024-11-08T02:00:00	4	Temperatura máxima	19.3
115835	7	Sololá	704	Santa Lucía Utatlán 	7	Santa Rita 	9	Septiembre	2023-07-09T00:00:00	2024-11-08T02:00:00	3	Temperatura mínima	16.7
115836	7	Sololá	704	Santa Lucía Utatlán 	7	Santa Rita 	9	Septiembre	2023-07-09T00:00:00	2024-11-08T02:00:00	5	Humedad	87
115837	7	Sololá	704	Santa Lucía Utatlán 	7	Santa Rita 	9	Septiembre	2023-07-09T00:00:00	2024-11-08T02:00:00	6	Velocidad del viento	1.6
115838	7	Sololá	704	Santa Lucía Utatlán 	7	Santa Rita 	9	Septiembre	2023-07-09T00:00:00	2024-11-08T02:00:00	7	Dirección del viento	1.61
115839	7	Sololá	704	Santa Lucía Utatlán 	7	Santa Rita 	9	Septiembre	2023-07-09T00:00:00	2024-11-08T02:00:00	1	Precipitación	0
115840	7	Sololá	704	Santa Lucía Utatlán 	7	Santa Rita 	9	Septiembre	2023-07-09T00:00:00	2024-11-08T02:00:00	8	Radiación solar	0
115841	7	Sololá	704	Santa Lucía Utatlán 	7	Santa Rita 	9	Septiembre	2023-07-09T00:00:00	2024-11-08T03:00:00	2	Temperatura media	22.4
115842	7	Sololá	704	Santa Lucía Utatlán 	7	Santa Rita 	9	Septiembre	2023-07-09T00:00:00	2024-11-08T03:00:00	4	Temperatura máxima	22.4
115843	7	Sololá	704	Santa Lucía Utatlán 	7	Santa Rita 	9	Septiembre	2023-07-09T00:00:00	2024-11-08T03:00:00	3	Temperatura mínima	19.2
115844	7	Sololá	704	Santa Lucía Utatlán 	7	Santa Rita 	9	Septiembre	2023-07-09T00:00:00	2024-11-08T03:00:00	5	Humedad	78
115845	7	Sololá	704	Santa Lucía Utatlán 	7	Santa Rita 	9	Septiembre	2023-07-09T00:00:00	2024-11-08T03:00:00	6	Velocidad del viento	3.2
115846	7	Sololá	704	Santa Lucía Utatlán 	7	Santa Rita 	9	Septiembre	2023-07-09T00:00:00	2024-11-08T03:00:00	7	Dirección del viento	3.22
115847	7	Sololá	704	Santa Lucía Utatlán 	7	Santa Rita 	9	Septiembre	2023-07-09T00:00:00	2024-11-08T03:00:00	1	Precipitación	0
115848	7	Sololá	704	Santa Lucía Utatlán 	7	Santa Rita 	9	Septiembre	2023-07-09T00:00:00	2024-11-08T03:00:00	8	Radiación solar	0
115849	7	Sololá	704	Santa Lucía Utatlán 	7	Santa Rita 	9	Septiembre	2023-07-09T00:00:00	2024-11-08T04:00:00	2	Temperatura media	24.3
115850	7	Sololá	704	Santa Lucía Utatlán 	7	Santa Rita 	9	Septiembre	2023-07-09T00:00:00	2024-11-08T04:00:00	4	Temperatura máxima	24.3
115851	7	Sololá	704	Santa Lucía Utatlán 	7	Santa Rita 	9	Septiembre	2023-07-09T00:00:00	2024-11-08T04:00:00	3	Temperatura mínima	22.4
115852	7	Sololá	704	Santa Lucía Utatlán 	7	Santa Rita 	9	Septiembre	2023-07-09T00:00:00	2024-11-08T04:00:00	5	Humedad	75
115853	7	Sololá	704	Santa Lucía Utatlán 	7	Santa Rita 	9	Septiembre	2023-07-09T00:00:00	2024-11-08T04:00:00	6	Velocidad del viento	3.2
115854	7	Sololá	704	Santa Lucía Utatlán 	7	Santa Rita 	9	Septiembre	2023-07-09T00:00:00	2024-11-08T04:00:00	7	Dirección del viento	3.22
115855	7	Sololá	704	Santa Lucía Utatlán 	7	Santa Rita 	9	Septiembre	2023-07-09T00:00:00	2024-11-08T04:00:00	1	Precipitación	0
115856	7	Sololá	704	Santa Lucía Utatlán 	7	Santa Rita 	9	Septiembre	2023-07-09T00:00:00	2024-11-08T04:00:00	8	Radiación solar	0
115857	7	Sololá	704	Santa Lucía Utatlán 	7	Santa Rita 	9	Septiembre	2023-07-09T00:00:00	2024-11-08T05:00:00	2	Temperatura media	25.9
115858	7	Sololá	704	Santa Lucía Utatlán 	7	Santa Rita 	9	Septiembre	2023-07-09T00:00:00	2024-11-08T05:00:00	4	Temperatura máxima	25.9
115859	7	Sololá	704	Santa Lucía Utatlán 	7	Santa Rita 	9	Septiembre	2023-07-09T00:00:00	2024-11-08T05:00:00	3	Temperatura mínima	24.2
115860	7	Sololá	704	Santa Lucía Utatlán 	7	Santa Rita 	9	Septiembre	2023-07-09T00:00:00	2024-11-08T05:00:00	5	Humedad	62
115861	7	Sololá	704	Santa Lucía Utatlán 	7	Santa Rita 	9	Septiembre	2023-07-09T00:00:00	2024-11-08T05:00:00	6	Velocidad del viento	4.8
115862	7	Sololá	704	Santa Lucía Utatlán 	7	Santa Rita 	9	Septiembre	2023-07-09T00:00:00	2024-11-08T05:00:00	7	Dirección del viento	4.83
115863	7	Sololá	704	Santa Lucía Utatlán 	7	Santa Rita 	9	Septiembre	2023-07-09T00:00:00	2024-11-08T05:00:00	1	Precipitación	0
115864	7	Sololá	704	Santa Lucía Utatlán 	7	Santa Rita 	9	Septiembre	2023-07-09T00:00:00	2024-11-08T05:00:00	8	Radiación solar	0
115865	7	Sololá	704	Santa Lucía Utatlán 	7	Santa Rita 	9	Septiembre	2023-07-09T00:00:00	2024-11-08T06:00:00	2	Temperatura media	27
115866	7	Sololá	704	Santa Lucía Utatlán 	7	Santa Rita 	9	Septiembre	2023-07-09T00:00:00	2024-11-08T06:00:00	4	Temperatura máxima	27
115867	7	Sololá	704	Santa Lucía Utatlán 	7	Santa Rita 	9	Septiembre	2023-07-09T00:00:00	2024-11-08T06:00:00	3	Temperatura mínima	25.9
115868	7	Sololá	704	Santa Lucía Utatlán 	7	Santa Rita 	9	Septiembre	2023-07-09T00:00:00	2024-11-08T06:00:00	5	Humedad	47
115869	7	Sololá	704	Santa Lucía Utatlán 	7	Santa Rita 	9	Septiembre	2023-07-09T00:00:00	2024-11-08T06:00:00	6	Velocidad del viento	6.4
115870	7	Sololá	704	Santa Lucía Utatlán 	7	Santa Rita 	9	Septiembre	2023-07-09T00:00:00	2024-11-08T06:00:00	7	Dirección del viento	6.44
115871	7	Sololá	704	Santa Lucía Utatlán 	7	Santa Rita 	9	Septiembre	2023-07-09T00:00:00	2024-11-08T06:00:00	1	Precipitación	0
115872	7	Sololá	704	Santa Lucía Utatlán 	7	Santa Rita 	9	Septiembre	2023-07-09T00:00:00	2024-11-08T06:00:00	8	Radiación solar	2
115873	7	Sololá	704	Santa Lucía Utatlán 	7	Santa Rita 	9	Septiembre	2023-07-09T00:00:00	2024-11-08T07:00:00	2	Temperatura media	27.5
115874	7	Sololá	704	Santa Lucía Utatlán 	7	Santa Rita 	9	Septiembre	2023-07-09T00:00:00	2024-11-08T07:00:00	4	Temperatura máxima	27.6
115875	7	Sololá	704	Santa Lucía Utatlán 	7	Santa Rita 	9	Septiembre	2023-07-09T00:00:00	2024-11-08T07:00:00	3	Temperatura mínima	26.9
115876	7	Sololá	704	Santa Lucía Utatlán 	7	Santa Rita 	9	Septiembre	2023-07-09T00:00:00	2024-11-08T07:00:00	5	Humedad	40
115877	7	Sololá	704	Santa Lucía Utatlán 	7	Santa Rita 	9	Septiembre	2023-07-09T00:00:00	2024-11-08T07:00:00	6	Velocidad del viento	9.7
115878	7	Sololá	704	Santa Lucía Utatlán 	7	Santa Rita 	9	Septiembre	2023-07-09T00:00:00	2024-11-08T07:00:00	7	Dirección del viento	9.66
115879	7	Sololá	704	Santa Lucía Utatlán 	7	Santa Rita 	9	Septiembre	2023-07-09T00:00:00	2024-11-08T07:00:00	1	Precipitación	0
115880	7	Sololá	704	Santa Lucía Utatlán 	7	Santa Rita 	9	Septiembre	2023-07-09T00:00:00	2024-11-08T07:00:00	8	Radiación solar	109
115881	7	Sololá	704	Santa Lucía Utatlán 	7	Santa Rita 	9	Septiembre	2023-07-09T00:00:00	2024-11-08T08:00:00	2	Temperatura media	27.8
115882	7	Sololá	704	Santa Lucía Utatlán 	7	Santa Rita 	9	Septiembre	2023-07-09T00:00:00	2024-11-08T08:00:00	4	Temperatura máxima	28.5
115883	7	Sololá	704	Santa Lucía Utatlán 	7	Santa Rita 	9	Septiembre	2023-07-09T00:00:00	2024-11-08T08:00:00	3	Temperatura mínima	27.4
115884	7	Sololá	704	Santa Lucía Utatlán 	7	Santa Rita 	9	Septiembre	2023-07-09T00:00:00	2024-11-08T08:00:00	5	Humedad	45
115885	7	Sololá	704	Santa Lucía Utatlán 	7	Santa Rita 	9	Septiembre	2023-07-09T00:00:00	2024-11-08T08:00:00	6	Velocidad del viento	8
115886	7	Sololá	704	Santa Lucía Utatlán 	7	Santa Rita 	9	Septiembre	2023-07-09T00:00:00	2024-11-08T08:00:00	7	Dirección del viento	8.05
115887	7	Sololá	704	Santa Lucía Utatlán 	7	Santa Rita 	9	Septiembre	2023-07-09T00:00:00	2024-11-08T08:00:00	1	Precipitación	0
115888	7	Sololá	704	Santa Lucía Utatlán 	7	Santa Rita 	9	Septiembre	2023-07-09T00:00:00	2024-11-08T08:00:00	8	Radiación solar	382
115889	7	Sololá	704	Santa Lucía Utatlán 	7	Santa Rita 	9	Septiembre	2023-07-09T00:00:00	2024-11-08T09:00:00	2	Temperatura media	26.8
115890	7	Sololá	704	Santa Lucía Utatlán 	7	Santa Rita 	9	Septiembre	2023-07-09T00:00:00	2024-11-08T09:00:00	4	Temperatura máxima	28.3
115891	7	Sololá	704	Santa Lucía Utatlán 	7	Santa Rita 	9	Septiembre	2023-07-09T00:00:00	2024-11-08T09:00:00	3	Temperatura mínima	26.8
115892	7	Sololá	704	Santa Lucía Utatlán 	7	Santa Rita 	9	Septiembre	2023-07-09T00:00:00	2024-11-08T09:00:00	5	Humedad	66
115893	7	Sololá	704	Santa Lucía Utatlán 	7	Santa Rita 	9	Septiembre	2023-07-09T00:00:00	2024-11-08T09:00:00	6	Velocidad del viento	9.7
115894	7	Sololá	704	Santa Lucía Utatlán 	7	Santa Rita 	9	Septiembre	2023-07-09T00:00:00	2024-11-08T09:00:00	7	Dirección del viento	9.66
115895	7	Sololá	704	Santa Lucía Utatlán 	7	Santa Rita 	9	Septiembre	2023-07-09T00:00:00	2024-11-08T09:00:00	1	Precipitación	0
115896	7	Sololá	704	Santa Lucía Utatlán 	7	Santa Rita 	9	Septiembre	2023-07-09T00:00:00	2024-11-08T09:00:00	8	Radiación solar	611
115897	7	Sololá	704	Santa Lucía Utatlán 	7	Santa Rita 	9	Septiembre	2023-07-09T00:00:00	2024-11-08T10:00:00	2	Temperatura media	23.8
115898	7	Sololá	704	Santa Lucía Utatlán 	7	Santa Rita 	9	Septiembre	2023-07-09T00:00:00	2024-11-08T10:00:00	4	Temperatura máxima	26.8
115899	7	Sololá	704	Santa Lucía Utatlán 	7	Santa Rita 	9	Septiembre	2023-07-09T00:00:00	2024-11-08T10:00:00	3	Temperatura mínima	23.8
115900	7	Sololá	704	Santa Lucía Utatlán 	7	Santa Rita 	9	Septiembre	2023-07-09T00:00:00	2024-11-08T10:00:00	5	Humedad	81
115901	7	Sololá	704	Santa Lucía Utatlán 	7	Santa Rita 	9	Septiembre	2023-07-09T00:00:00	2024-11-08T10:00:00	6	Velocidad del viento	8
115902	7	Sololá	704	Santa Lucía Utatlán 	7	Santa Rita 	9	Septiembre	2023-07-09T00:00:00	2024-11-08T10:00:00	7	Dirección del viento	8.05
115903	7	Sololá	704	Santa Lucía Utatlán 	7	Santa Rita 	9	Septiembre	2023-07-09T00:00:00	2024-11-08T10:00:00	1	Precipitación	0
115904	7	Sololá	704	Santa Lucía Utatlán 	7	Santa Rita 	9	Septiembre	2023-07-09T00:00:00	2024-11-08T10:00:00	8	Radiación solar	793
115905	7	Sololá	704	Santa Lucía Utatlán 	7	Santa Rita 	9	Septiembre	2023-07-09T00:00:00	2024-11-08T11:00:00	2	Temperatura media	22.7
115906	7	Sololá	704	Santa Lucía Utatlán 	7	Santa Rita 	9	Septiembre	2023-07-09T00:00:00	2024-11-08T11:00:00	4	Temperatura máxima	23.8
115907	7	Sololá	704	Santa Lucía Utatlán 	7	Santa Rita 	9	Septiembre	2023-07-09T00:00:00	2024-11-08T11:00:00	3	Temperatura mínima	22.7
115908	7	Sololá	704	Santa Lucía Utatlán 	7	Santa Rita 	9	Septiembre	2023-07-09T00:00:00	2024-11-08T11:00:00	5	Humedad	87
115909	7	Sololá	704	Santa Lucía Utatlán 	7	Santa Rita 	9	Septiembre	2023-07-09T00:00:00	2024-11-08T11:00:00	6	Velocidad del viento	4.8
115910	7	Sololá	704	Santa Lucía Utatlán 	7	Santa Rita 	9	Septiembre	2023-07-09T00:00:00	2024-11-08T11:00:00	7	Dirección del viento	4.83
115911	7	Sololá	704	Santa Lucía Utatlán 	7	Santa Rita 	9	Septiembre	2023-07-09T00:00:00	2024-11-08T11:00:00	1	Precipitación	0.4
115912	7	Sololá	704	Santa Lucía Utatlán 	7	Santa Rita 	9	Septiembre	2023-07-09T00:00:00	2024-11-08T11:00:00	8	Radiación solar	852
115913	7	Sololá	704	Santa Lucía Utatlán 	7	Santa Rita 	9	Septiembre	2023-07-09T00:00:00	2024-11-08T12:00:00	2	Temperatura media	22.1
115914	7	Sololá	704	Santa Lucía Utatlán 	7	Santa Rita 	9	Septiembre	2023-07-09T00:00:00	2024-11-08T12:00:00	4	Temperatura máxima	22.7
115915	7	Sololá	704	Santa Lucía Utatlán 	7	Santa Rita 	9	Septiembre	2023-07-09T00:00:00	2024-11-08T12:00:00	3	Temperatura mínima	22.1
115916	7	Sololá	704	Santa Lucía Utatlán 	7	Santa Rita 	9	Septiembre	2023-07-09T00:00:00	2024-11-08T12:00:00	5	Humedad	90
115917	7	Sololá	704	Santa Lucía Utatlán 	7	Santa Rita 	9	Septiembre	2023-07-09T00:00:00	2024-11-08T12:00:00	6	Velocidad del viento	3.2
115918	7	Sololá	704	Santa Lucía Utatlán 	7	Santa Rita 	9	Septiembre	2023-07-09T00:00:00	2024-11-08T12:00:00	7	Dirección del viento	3.22
115919	7	Sololá	704	Santa Lucía Utatlán 	7	Santa Rita 	9	Septiembre	2023-07-09T00:00:00	2024-11-08T12:00:00	1	Precipitación	0
115920	7	Sololá	704	Santa Lucía Utatlán 	7	Santa Rita 	9	Septiembre	2023-07-09T00:00:00	2024-11-08T12:00:00	8	Radiación solar	925
115921	7	Sololá	704	Santa Lucía Utatlán 	7	Santa Rita 	9	Septiembre	2023-07-09T00:00:00	2024-11-08T13:00:00	2	Temperatura media	20.5
115922	7	Sololá	704	Santa Lucía Utatlán 	7	Santa Rita 	9	Septiembre	2023-07-09T00:00:00	2024-11-08T13:00:00	4	Temperatura máxima	22.1
115923	7	Sololá	704	Santa Lucía Utatlán 	7	Santa Rita 	9	Septiembre	2023-07-09T00:00:00	2024-11-08T13:00:00	3	Temperatura mínima	20.5
115924	7	Sololá	704	Santa Lucía Utatlán 	7	Santa Rita 	9	Septiembre	2023-07-09T00:00:00	2024-11-08T13:00:00	5	Humedad	80
115925	7	Sololá	704	Santa Lucía Utatlán 	7	Santa Rita 	9	Septiembre	2023-07-09T00:00:00	2024-11-08T13:00:00	6	Velocidad del viento	6.4
115926	7	Sololá	704	Santa Lucía Utatlán 	7	Santa Rita 	9	Septiembre	2023-07-09T00:00:00	2024-11-08T13:00:00	7	Dirección del viento	6.44
115927	7	Sololá	704	Santa Lucía Utatlán 	7	Santa Rita 	9	Septiembre	2023-07-09T00:00:00	2024-11-08T13:00:00	1	Precipitación	0
115928	7	Sololá	704	Santa Lucía Utatlán 	7	Santa Rita 	9	Septiembre	2023-07-09T00:00:00	2024-11-08T13:00:00	8	Radiación solar	939
115929	7	Sololá	704	Santa Lucía Utatlán 	7	Santa Rita 	9	Septiembre	2023-07-09T00:00:00	2024-11-08T14:00:00	2	Temperatura media	19.3
115930	7	Sololá	704	Santa Lucía Utatlán 	7	Santa Rita 	9	Septiembre	2023-07-09T00:00:00	2024-11-08T14:00:00	4	Temperatura máxima	20.6
115931	7	Sololá	704	Santa Lucía Utatlán 	7	Santa Rita 	9	Septiembre	2023-07-09T00:00:00	2024-11-08T14:00:00	3	Temperatura mínima	19.2
115932	7	Sololá	704	Santa Lucía Utatlán 	7	Santa Rita 	9	Septiembre	2023-07-09T00:00:00	2024-11-08T14:00:00	5	Humedad	91
115933	7	Sololá	704	Santa Lucía Utatlán 	7	Santa Rita 	9	Septiembre	2023-07-09T00:00:00	2024-11-08T14:00:00	6	Velocidad del viento	3.2
115934	7	Sololá	704	Santa Lucía Utatlán 	7	Santa Rita 	9	Septiembre	2023-07-09T00:00:00	2024-11-08T14:00:00	7	Dirección del viento	3.22
115935	7	Sololá	704	Santa Lucía Utatlán 	7	Santa Rita 	9	Septiembre	2023-07-09T00:00:00	2024-11-08T14:00:00	1	Precipitación	0
115936	7	Sololá	704	Santa Lucía Utatlán 	7	Santa Rita 	9	Septiembre	2023-07-09T00:00:00	2024-11-08T14:00:00	8	Radiación solar	884
115937	7	Sololá	704	Santa Lucía Utatlán 	7	Santa Rita 	9	Septiembre	2023-07-09T00:00:00	2024-11-08T15:00:00	2	Temperatura media	19.2
115938	7	Sololá	704	Santa Lucía Utatlán 	7	Santa Rita 	9	Septiembre	2023-07-09T00:00:00	2024-11-08T15:00:00	4	Temperatura máxima	19.4
115939	7	Sololá	704	Santa Lucía Utatlán 	7	Santa Rita 	9	Septiembre	2023-07-09T00:00:00	2024-11-08T15:00:00	3	Temperatura mínima	19.1
115940	7	Sololá	704	Santa Lucía Utatlán 	7	Santa Rita 	9	Septiembre	2023-07-09T00:00:00	2024-11-08T15:00:00	5	Humedad	93
115941	7	Sololá	704	Santa Lucía Utatlán 	7	Santa Rita 	9	Septiembre	2023-07-09T00:00:00	2024-11-08T15:00:00	6	Velocidad del viento	1.6
115942	7	Sololá	704	Santa Lucía Utatlán 	7	Santa Rita 	9	Septiembre	2023-07-09T00:00:00	2024-11-08T15:00:00	7	Dirección del viento	1.61
115943	7	Sololá	704	Santa Lucía Utatlán 	7	Santa Rita 	9	Septiembre	2023-07-09T00:00:00	2024-11-08T15:00:00	1	Precipitación	0
115944	7	Sololá	704	Santa Lucía Utatlán 	7	Santa Rita 	9	Septiembre	2023-07-09T00:00:00	2024-11-08T15:00:00	8	Radiación solar	425
115945	7	Sololá	704	Santa Lucía Utatlán 	7	Santa Rita 	9	Septiembre	2023-07-09T00:00:00	2024-11-08T16:00:00	2	Temperatura media	18.9
115946	7	Sololá	704	Santa Lucía Utatlán 	7	Santa Rita 	9	Septiembre	2023-07-09T00:00:00	2024-11-08T16:00:00	4	Temperatura máxima	19.3
115947	7	Sololá	704	Santa Lucía Utatlán 	7	Santa Rita 	9	Septiembre	2023-07-09T00:00:00	2024-11-08T16:00:00	3	Temperatura mínima	18.9
115948	7	Sololá	704	Santa Lucía Utatlán 	7	Santa Rita 	9	Septiembre	2023-07-09T00:00:00	2024-11-08T16:00:00	5	Humedad	92
115949	7	Sololá	704	Santa Lucía Utatlán 	7	Santa Rita 	9	Septiembre	2023-07-09T00:00:00	2024-11-08T16:00:00	6	Velocidad del viento	1.6
115950	7	Sololá	704	Santa Lucía Utatlán 	7	Santa Rita 	9	Septiembre	2023-07-09T00:00:00	2024-11-08T16:00:00	7	Dirección del viento	1.61
115951	7	Sololá	704	Santa Lucía Utatlán 	7	Santa Rita 	9	Septiembre	2023-07-09T00:00:00	2024-11-08T16:00:00	1	Precipitación	0
115952	7	Sololá	704	Santa Lucía Utatlán 	7	Santa Rita 	9	Septiembre	2023-07-09T00:00:00	2024-11-08T16:00:00	8	Radiación solar	143
115953	7	Sololá	704	Santa Lucía Utatlán 	7	Santa Rita 	9	Septiembre	2023-07-09T00:00:00	2024-11-08T17:00:00	2	Temperatura media	18.6
115954	7	Sololá	704	Santa Lucía Utatlán 	7	Santa Rita 	9	Septiembre	2023-07-09T00:00:00	2024-11-08T17:00:00	4	Temperatura máxima	18.9
115955	7	Sololá	704	Santa Lucía Utatlán 	7	Santa Rita 	9	Septiembre	2023-07-09T00:00:00	2024-11-08T17:00:00	3	Temperatura mínima	18.3
115956	7	Sololá	704	Santa Lucía Utatlán 	7	Santa Rita 	9	Septiembre	2023-07-09T00:00:00	2024-11-08T17:00:00	5	Humedad	92
115957	7	Sololá	704	Santa Lucía Utatlán 	7	Santa Rita 	9	Septiembre	2023-07-09T00:00:00	2024-11-08T17:00:00	6	Velocidad del viento	3.2
115958	7	Sololá	704	Santa Lucía Utatlán 	7	Santa Rita 	9	Septiembre	2023-07-09T00:00:00	2024-11-08T17:00:00	7	Dirección del viento	3.22
115959	7	Sololá	704	Santa Lucía Utatlán 	7	Santa Rita 	9	Septiembre	2023-07-09T00:00:00	2024-11-08T17:00:00	1	Precipitación	0
115960	7	Sololá	704	Santa Lucía Utatlán 	7	Santa Rita 	9	Septiembre	2023-07-09T00:00:00	2024-11-08T17:00:00	8	Radiación solar	68
115961	7	Sololá	704	Santa Lucía Utatlán 	7	Santa Rita 	9	Septiembre	2023-07-09T00:00:00	2024-11-08T18:00:00	2	Temperatura media	20.3
115962	7	Sololá	704	Santa Lucía Utatlán 	7	Santa Rita 	9	Septiembre	2023-07-09T00:00:00	2024-11-08T18:00:00	4	Temperatura máxima	20.7
115963	7	Sololá	704	Santa Lucía Utatlán 	7	Santa Rita 	9	Septiembre	2023-07-09T00:00:00	2024-11-08T18:00:00	3	Temperatura mínima	18.4
115964	7	Sololá	704	Santa Lucía Utatlán 	7	Santa Rita 	9	Septiembre	2023-07-09T00:00:00	2024-11-08T18:00:00	5	Humedad	79
115965	7	Sololá	704	Santa Lucía Utatlán 	7	Santa Rita 	9	Septiembre	2023-07-09T00:00:00	2024-11-08T18:00:00	6	Velocidad del viento	6.4
115966	7	Sololá	704	Santa Lucía Utatlán 	7	Santa Rita 	9	Septiembre	2023-07-09T00:00:00	2024-11-08T18:00:00	7	Dirección del viento	6.44
115967	7	Sololá	704	Santa Lucía Utatlán 	7	Santa Rita 	9	Septiembre	2023-07-09T00:00:00	2024-11-08T18:00:00	1	Precipitación	0
115968	7	Sololá	704	Santa Lucía Utatlán 	7	Santa Rita 	9	Septiembre	2023-07-09T00:00:00	2024-11-08T18:00:00	8	Radiación solar	18
115969	7	Sololá	704	Santa Lucía Utatlán 	7	Santa Rita 	9	Septiembre	2023-07-09T00:00:00	2024-11-08T19:00:00	2	Temperatura media	17.4
115970	7	Sololá	704	Santa Lucía Utatlán 	7	Santa Rita 	9	Septiembre	2023-07-09T00:00:00	2024-11-08T19:00:00	4	Temperatura máxima	20.3
115971	7	Sololá	704	Santa Lucía Utatlán 	7	Santa Rita 	9	Septiembre	2023-07-09T00:00:00	2024-11-08T19:00:00	3	Temperatura mínima	17.4
115972	7	Sololá	704	Santa Lucía Utatlán 	7	Santa Rita 	9	Septiembre	2023-07-09T00:00:00	2024-11-08T19:00:00	5	Humedad	86
115973	7	Sololá	704	Santa Lucía Utatlán 	7	Santa Rita 	9	Septiembre	2023-07-09T00:00:00	2024-11-08T19:00:00	6	Velocidad del viento	3.2
115974	7	Sololá	704	Santa Lucía Utatlán 	7	Santa Rita 	9	Septiembre	2023-07-09T00:00:00	2024-11-08T19:00:00	7	Dirección del viento	3.22
115975	7	Sololá	704	Santa Lucía Utatlán 	7	Santa Rita 	9	Septiembre	2023-07-09T00:00:00	2024-11-08T19:00:00	1	Precipitación	0
115976	7	Sololá	704	Santa Lucía Utatlán 	7	Santa Rita 	9	Septiembre	2023-07-09T00:00:00	2024-11-08T19:00:00	8	Radiación solar	0
115977	7	Sololá	704	Santa Lucía Utatlán 	7	Santa Rita 	9	Septiembre	2023-07-09T00:00:00	2024-11-08T20:00:00	2	Temperatura media	18.6
115978	7	Sololá	704	Santa Lucía Utatlán 	7	Santa Rita 	9	Septiembre	2023-07-09T00:00:00	2024-11-08T20:00:00	4	Temperatura máxima	19.8
115979	7	Sololá	704	Santa Lucía Utatlán 	7	Santa Rita 	9	Septiembre	2023-07-09T00:00:00	2024-11-08T20:00:00	3	Temperatura mínima	17.2
115980	7	Sololá	704	Santa Lucía Utatlán 	7	Santa Rita 	9	Septiembre	2023-07-09T00:00:00	2024-11-08T20:00:00	5	Humedad	82
115981	7	Sololá	704	Santa Lucía Utatlán 	7	Santa Rita 	9	Septiembre	2023-07-09T00:00:00	2024-11-08T20:00:00	6	Velocidad del viento	4.8
115982	7	Sololá	704	Santa Lucía Utatlán 	7	Santa Rita 	9	Septiembre	2023-07-09T00:00:00	2024-11-08T20:00:00	7	Dirección del viento	4.83
115983	7	Sololá	704	Santa Lucía Utatlán 	7	Santa Rita 	9	Septiembre	2023-07-09T00:00:00	2024-11-08T20:00:00	1	Precipitación	0
115984	7	Sololá	704	Santa Lucía Utatlán 	7	Santa Rita 	9	Septiembre	2023-07-09T00:00:00	2024-11-08T20:00:00	8	Radiación solar	0
115985	7	Sololá	704	Santa Lucía Utatlán 	7	Santa Rita 	9	Septiembre	2023-07-09T00:00:00	2024-11-08T21:00:00	2	Temperatura media	17.3
115986	7	Sololá	704	Santa Lucía Utatlán 	7	Santa Rita 	9	Septiembre	2023-07-09T00:00:00	2024-11-08T21:00:00	4	Temperatura máxima	18.6
115987	7	Sololá	704	Santa Lucía Utatlán 	7	Santa Rita 	9	Septiembre	2023-07-09T00:00:00	2024-11-08T21:00:00	3	Temperatura mínima	17.3
115988	7	Sololá	704	Santa Lucía Utatlán 	7	Santa Rita 	9	Septiembre	2023-07-09T00:00:00	2024-11-08T21:00:00	5	Humedad	85
115989	7	Sololá	704	Santa Lucía Utatlán 	7	Santa Rita 	9	Septiembre	2023-07-09T00:00:00	2024-11-08T21:00:00	6	Velocidad del viento	3.2
115990	7	Sololá	704	Santa Lucía Utatlán 	7	Santa Rita 	9	Septiembre	2023-07-09T00:00:00	2024-11-08T21:00:00	7	Dirección del viento	3.22
115991	7	Sololá	704	Santa Lucía Utatlán 	7	Santa Rita 	9	Septiembre	2023-07-09T00:00:00	2024-11-08T21:00:00	1	Precipitación	0
115992	7	Sololá	704	Santa Lucía Utatlán 	7	Santa Rita 	9	Septiembre	2023-07-09T00:00:00	2024-11-08T21:00:00	8	Radiación solar	0
115993	7	Sololá	704	Santa Lucía Utatlán 	7	Santa Rita 	9	Septiembre	2023-07-09T00:00:00	2024-11-08T22:00:00	2	Temperatura media	16.6
115994	7	Sololá	704	Santa Lucía Utatlán 	7	Santa Rita 	9	Septiembre	2023-07-09T00:00:00	2024-11-08T22:00:00	4	Temperatura máxima	17.3
115995	7	Sololá	704	Santa Lucía Utatlán 	7	Santa Rita 	9	Septiembre	2023-07-09T00:00:00	2024-11-08T22:00:00	3	Temperatura mínima	16.3
115996	7	Sololá	704	Santa Lucía Utatlán 	7	Santa Rita 	9	Septiembre	2023-07-09T00:00:00	2024-11-08T22:00:00	5	Humedad	83
115997	7	Sololá	704	Santa Lucía Utatlán 	7	Santa Rita 	9	Septiembre	2023-07-09T00:00:00	2024-11-08T22:00:00	6	Velocidad del viento	4.8
115998	7	Sololá	704	Santa Lucía Utatlán 	7	Santa Rita 	9	Septiembre	2023-07-09T00:00:00	2024-11-08T22:00:00	7	Dirección del viento	4.83
115999	7	Sololá	704	Santa Lucía Utatlán 	7	Santa Rita 	9	Septiembre	2023-07-09T00:00:00	2024-11-08T22:00:00	1	Precipitación	0
116000	7	Sololá	704	Santa Lucía Utatlán 	7	Santa Rita 	9	Septiembre	2023-07-09T00:00:00	2024-11-08T22:00:00	8	Radiación solar	0
116001	7	Sololá	704	Santa Lucía Utatlán 	7	Santa Rita 	9	Septiembre	2023-07-09T00:00:00	2024-11-08T23:00:00	2	Temperatura media	16.8
116002	7	Sololá	704	Santa Lucía Utatlán 	7	Santa Rita 	9	Septiembre	2023-07-09T00:00:00	2024-11-08T23:00:00	4	Temperatura máxima	17.1
116003	7	Sololá	704	Santa Lucía Utatlán 	7	Santa Rita 	9	Septiembre	2023-07-09T00:00:00	2024-11-08T23:00:00	3	Temperatura mínima	16.6
116004	7	Sololá	704	Santa Lucía Utatlán 	7	Santa Rita 	9	Septiembre	2023-07-09T00:00:00	2024-11-08T23:00:00	5	Humedad	83
116005	7	Sololá	704	Santa Lucía Utatlán 	7	Santa Rita 	9	Septiembre	2023-07-09T00:00:00	2024-11-08T23:00:00	6	Velocidad del viento	3.2
116006	7	Sololá	704	Santa Lucía Utatlán 	7	Santa Rita 	9	Septiembre	2023-07-09T00:00:00	2024-11-08T23:00:00	7	Dirección del viento	3.22
116007	7	Sololá	704	Santa Lucía Utatlán 	7	Santa Rita 	9	Septiembre	2023-07-09T00:00:00	2024-11-08T23:00:00	1	Precipitación	0
116008	7	Sololá	704	Santa Lucía Utatlán 	7	Santa Rita 	9	Septiembre	2023-07-09T00:00:00	2024-11-08T23:00:00	8	Radiación solar	0
116009	7	Sololá	704	Santa Lucía Utatlán 	7	Santa Rita 	9	Septiembre	2023-08-09T00:00:00	2024-11-08T00:00:00	2	Temperatura media	16.1
116010	7	Sololá	704	Santa Lucía Utatlán 	7	Santa Rita 	9	Septiembre	2023-08-09T00:00:00	2024-11-08T00:00:00	4	Temperatura máxima	16.8
116011	7	Sololá	704	Santa Lucía Utatlán 	7	Santa Rita 	9	Septiembre	2023-08-09T00:00:00	2024-11-08T00:00:00	3	Temperatura mínima	15.8
116012	7	Sololá	704	Santa Lucía Utatlán 	7	Santa Rita 	9	Septiembre	2023-08-09T00:00:00	2024-11-08T00:00:00	5	Humedad	86
116013	7	Sololá	704	Santa Lucía Utatlán 	7	Santa Rita 	9	Septiembre	2023-08-09T00:00:00	2024-11-08T00:00:00	6	Velocidad del viento	3.2
116014	7	Sololá	704	Santa Lucía Utatlán 	7	Santa Rita 	9	Septiembre	2023-08-09T00:00:00	2024-11-08T00:00:00	7	Dirección del viento	3.22
116015	7	Sololá	704	Santa Lucía Utatlán 	7	Santa Rita 	9	Septiembre	2023-08-09T00:00:00	2024-11-08T00:00:00	1	Precipitación	0
116016	7	Sololá	704	Santa Lucía Utatlán 	7	Santa Rita 	9	Septiembre	2023-08-09T00:00:00	2024-11-08T00:00:00	8	Radiación solar	0
116017	7	Sololá	704	Santa Lucía Utatlán 	7	Santa Rita 	9	Septiembre	2023-08-09T00:00:00	2024-11-08T01:00:00	2	Temperatura media	18.5
116018	7	Sololá	704	Santa Lucía Utatlán 	7	Santa Rita 	9	Septiembre	2023-08-09T00:00:00	2024-11-08T01:00:00	4	Temperatura máxima	18.8
116019	7	Sololá	704	Santa Lucía Utatlán 	7	Santa Rita 	9	Septiembre	2023-08-09T00:00:00	2024-11-08T01:00:00	3	Temperatura mínima	15.8
116020	7	Sololá	704	Santa Lucía Utatlán 	7	Santa Rita 	9	Septiembre	2023-08-09T00:00:00	2024-11-08T01:00:00	5	Humedad	74
116021	7	Sololá	704	Santa Lucía Utatlán 	7	Santa Rita 	9	Septiembre	2023-08-09T00:00:00	2024-11-08T01:00:00	6	Velocidad del viento	3.2
116022	7	Sololá	704	Santa Lucía Utatlán 	7	Santa Rita 	9	Septiembre	2023-08-09T00:00:00	2024-11-08T01:00:00	7	Dirección del viento	3.22
116023	7	Sololá	704	Santa Lucía Utatlán 	7	Santa Rita 	9	Septiembre	2023-08-09T00:00:00	2024-11-08T01:00:00	1	Precipitación	0
116024	7	Sololá	704	Santa Lucía Utatlán 	7	Santa Rita 	9	Septiembre	2023-08-09T00:00:00	2024-11-08T01:00:00	8	Radiación solar	0
116025	7	Sololá	704	Santa Lucía Utatlán 	7	Santa Rita 	9	Septiembre	2023-08-09T00:00:00	2024-11-08T02:00:00	2	Temperatura media	20.6
116026	7	Sololá	704	Santa Lucía Utatlán 	7	Santa Rita 	9	Septiembre	2023-08-09T00:00:00	2024-11-08T02:00:00	4	Temperatura máxima	20.6
116027	7	Sololá	704	Santa Lucía Utatlán 	7	Santa Rita 	9	Septiembre	2023-08-09T00:00:00	2024-11-08T02:00:00	3	Temperatura mínima	17.6
116028	7	Sololá	704	Santa Lucía Utatlán 	7	Santa Rita 	9	Septiembre	2023-08-09T00:00:00	2024-11-08T02:00:00	5	Humedad	76
116029	7	Sololá	704	Santa Lucía Utatlán 	7	Santa Rita 	9	Septiembre	2023-08-09T00:00:00	2024-11-08T02:00:00	6	Velocidad del viento	1.6
116030	7	Sololá	704	Santa Lucía Utatlán 	7	Santa Rita 	9	Septiembre	2023-08-09T00:00:00	2024-11-08T02:00:00	7	Dirección del viento	1.61
116031	7	Sololá	704	Santa Lucía Utatlán 	7	Santa Rita 	9	Septiembre	2023-08-09T00:00:00	2024-11-08T02:00:00	1	Precipitación	0
116032	7	Sololá	704	Santa Lucía Utatlán 	7	Santa Rita 	9	Septiembre	2023-08-09T00:00:00	2024-11-08T02:00:00	8	Radiación solar	0
116033	7	Sololá	704	Santa Lucía Utatlán 	7	Santa Rita 	9	Septiembre	2023-08-09T00:00:00	2024-11-08T03:00:00	2	Temperatura media	23.4
116034	7	Sololá	704	Santa Lucía Utatlán 	7	Santa Rita 	9	Septiembre	2023-08-09T00:00:00	2024-11-08T03:00:00	4	Temperatura máxima	23.6
116035	7	Sololá	704	Santa Lucía Utatlán 	7	Santa Rita 	9	Septiembre	2023-08-09T00:00:00	2024-11-08T03:00:00	3	Temperatura mínima	20.6
116036	7	Sololá	704	Santa Lucía Utatlán 	7	Santa Rita 	9	Septiembre	2023-08-09T00:00:00	2024-11-08T03:00:00	5	Humedad	64
116037	7	Sololá	704	Santa Lucía Utatlán 	7	Santa Rita 	9	Septiembre	2023-08-09T00:00:00	2024-11-08T03:00:00	6	Velocidad del viento	3.2
116038	7	Sololá	704	Santa Lucía Utatlán 	7	Santa Rita 	9	Septiembre	2023-08-09T00:00:00	2024-11-08T03:00:00	7	Dirección del viento	3.22
116039	7	Sololá	704	Santa Lucía Utatlán 	7	Santa Rita 	9	Septiembre	2023-08-09T00:00:00	2024-11-08T03:00:00	1	Precipitación	0
116040	7	Sololá	704	Santa Lucía Utatlán 	7	Santa Rita 	9	Septiembre	2023-08-09T00:00:00	2024-11-08T03:00:00	8	Radiación solar	0
116041	7	Sololá	704	Santa Lucía Utatlán 	7	Santa Rita 	9	Septiembre	2023-08-09T00:00:00	2024-11-08T04:00:00	2	Temperatura media	26.3
116042	7	Sololá	704	Santa Lucía Utatlán 	7	Santa Rita 	9	Septiembre	2023-08-09T00:00:00	2024-11-08T04:00:00	4	Temperatura máxima	26.3
116043	7	Sololá	704	Santa Lucía Utatlán 	7	Santa Rita 	9	Septiembre	2023-08-09T00:00:00	2024-11-08T04:00:00	3	Temperatura mínima	23.4
116044	7	Sololá	704	Santa Lucía Utatlán 	7	Santa Rita 	9	Septiembre	2023-08-09T00:00:00	2024-11-08T04:00:00	5	Humedad	58
116045	7	Sololá	704	Santa Lucía Utatlán 	7	Santa Rita 	9	Septiembre	2023-08-09T00:00:00	2024-11-08T04:00:00	6	Velocidad del viento	3.2
116046	7	Sololá	704	Santa Lucía Utatlán 	7	Santa Rita 	9	Septiembre	2023-08-09T00:00:00	2024-11-08T04:00:00	7	Dirección del viento	3.22
116047	7	Sololá	704	Santa Lucía Utatlán 	7	Santa Rita 	9	Septiembre	2023-08-09T00:00:00	2024-11-08T04:00:00	1	Precipitación	0
116048	7	Sololá	704	Santa Lucía Utatlán 	7	Santa Rita 	9	Septiembre	2023-08-09T00:00:00	2024-11-08T04:00:00	8	Radiación solar	0
116049	7	Sololá	704	Santa Lucía Utatlán 	7	Santa Rita 	9	Septiembre	2023-08-09T00:00:00	2024-11-08T05:00:00	2	Temperatura media	25.7
116050	7	Sololá	704	Santa Lucía Utatlán 	7	Santa Rita 	9	Septiembre	2023-08-09T00:00:00	2024-11-08T05:00:00	4	Temperatura máxima	26.4
116051	7	Sololá	704	Santa Lucía Utatlán 	7	Santa Rita 	9	Septiembre	2023-08-09T00:00:00	2024-11-08T05:00:00	3	Temperatura mínima	25.6
116052	7	Sololá	704	Santa Lucía Utatlán 	7	Santa Rita 	9	Septiembre	2023-08-09T00:00:00	2024-11-08T05:00:00	5	Humedad	57
116053	7	Sololá	704	Santa Lucía Utatlán 	7	Santa Rita 	9	Septiembre	2023-08-09T00:00:00	2024-11-08T05:00:00	6	Velocidad del viento	8
116054	7	Sololá	704	Santa Lucía Utatlán 	7	Santa Rita 	9	Septiembre	2023-08-09T00:00:00	2024-11-08T05:00:00	7	Dirección del viento	8.05
116055	7	Sololá	704	Santa Lucía Utatlán 	7	Santa Rita 	9	Septiembre	2023-08-09T00:00:00	2024-11-08T05:00:00	1	Precipitación	0
116056	7	Sololá	704	Santa Lucía Utatlán 	7	Santa Rita 	9	Septiembre	2023-08-09T00:00:00	2024-11-08T05:00:00	8	Radiación solar	0
116057	7	Sololá	704	Santa Lucía Utatlán 	7	Santa Rita 	9	Septiembre	2023-08-09T00:00:00	2024-11-08T06:00:00	2	Temperatura media	25.7
116058	7	Sololá	704	Santa Lucía Utatlán 	7	Santa Rita 	9	Septiembre	2023-08-09T00:00:00	2024-11-08T06:00:00	4	Temperatura máxima	26.1
116059	7	Sololá	704	Santa Lucía Utatlán 	7	Santa Rita 	9	Septiembre	2023-08-09T00:00:00	2024-11-08T06:00:00	3	Temperatura mínima	25.5
116060	7	Sololá	704	Santa Lucía Utatlán 	7	Santa Rita 	9	Septiembre	2023-08-09T00:00:00	2024-11-08T06:00:00	5	Humedad	62
116061	7	Sololá	704	Santa Lucía Utatlán 	7	Santa Rita 	9	Septiembre	2023-08-09T00:00:00	2024-11-08T06:00:00	6	Velocidad del viento	11.3
116062	7	Sololá	704	Santa Lucía Utatlán 	7	Santa Rita 	9	Septiembre	2023-08-09T00:00:00	2024-11-08T06:00:00	7	Dirección del viento	11.27
116063	7	Sololá	704	Santa Lucía Utatlán 	7	Santa Rita 	9	Septiembre	2023-08-09T00:00:00	2024-11-08T06:00:00	1	Precipitación	0
116064	7	Sololá	704	Santa Lucía Utatlán 	7	Santa Rita 	9	Septiembre	2023-08-09T00:00:00	2024-11-08T06:00:00	8	Radiación solar	3
116065	7	Sololá	704	Santa Lucía Utatlán 	7	Santa Rita 	9	Septiembre	2023-08-09T00:00:00	2024-11-08T07:00:00	2	Temperatura media	25.5
116066	7	Sololá	704	Santa Lucía Utatlán 	7	Santa Rita 	9	Septiembre	2023-08-09T00:00:00	2024-11-08T07:00:00	4	Temperatura máxima	25.7
116067	7	Sololá	704	Santa Lucía Utatlán 	7	Santa Rita 	9	Septiembre	2023-08-09T00:00:00	2024-11-08T07:00:00	3	Temperatura mínima	24.7
116068	7	Sololá	704	Santa Lucía Utatlán 	7	Santa Rita 	9	Septiembre	2023-08-09T00:00:00	2024-11-08T07:00:00	5	Humedad	63
116069	7	Sololá	704	Santa Lucía Utatlán 	7	Santa Rita 	9	Septiembre	2023-08-09T00:00:00	2024-11-08T07:00:00	6	Velocidad del viento	14.5
116070	7	Sololá	704	Santa Lucía Utatlán 	7	Santa Rita 	9	Septiembre	2023-08-09T00:00:00	2024-11-08T07:00:00	7	Dirección del viento	14.48
116071	7	Sololá	704	Santa Lucía Utatlán 	7	Santa Rita 	9	Septiembre	2023-08-09T00:00:00	2024-11-08T07:00:00	1	Precipitación	0
116072	7	Sololá	704	Santa Lucía Utatlán 	7	Santa Rita 	9	Septiembre	2023-08-09T00:00:00	2024-11-08T07:00:00	8	Radiación solar	120
116073	7	Sololá	704	Santa Lucía Utatlán 	7	Santa Rita 	9	Septiembre	2023-08-09T00:00:00	2024-11-08T08:00:00	2	Temperatura media	25.1
116074	7	Sololá	704	Santa Lucía Utatlán 	7	Santa Rita 	9	Septiembre	2023-08-09T00:00:00	2024-11-08T08:00:00	4	Temperatura máxima	25.9
116075	7	Sololá	704	Santa Lucía Utatlán 	7	Santa Rita 	9	Septiembre	2023-08-09T00:00:00	2024-11-08T08:00:00	3	Temperatura mínima	25.1
116076	7	Sololá	704	Santa Lucía Utatlán 	7	Santa Rita 	9	Septiembre	2023-08-09T00:00:00	2024-11-08T08:00:00	5	Humedad	63
116077	7	Sololá	704	Santa Lucía Utatlán 	7	Santa Rita 	9	Septiembre	2023-08-09T00:00:00	2024-11-08T08:00:00	6	Velocidad del viento	11.3
116078	7	Sololá	704	Santa Lucía Utatlán 	7	Santa Rita 	9	Septiembre	2023-08-09T00:00:00	2024-11-08T08:00:00	7	Dirección del viento	11.27
116079	7	Sololá	704	Santa Lucía Utatlán 	7	Santa Rita 	9	Septiembre	2023-08-09T00:00:00	2024-11-08T08:00:00	1	Precipitación	0
116080	7	Sololá	704	Santa Lucía Utatlán 	7	Santa Rita 	9	Septiembre	2023-08-09T00:00:00	2024-11-08T08:00:00	8	Radiación solar	378
116081	7	Sololá	704	Santa Lucía Utatlán 	7	Santa Rita 	9	Septiembre	2023-08-09T00:00:00	2024-11-08T09:00:00	2	Temperatura media	25.9
116082	7	Sololá	704	Santa Lucía Utatlán 	7	Santa Rita 	9	Septiembre	2023-08-09T00:00:00	2024-11-08T09:00:00	4	Temperatura máxima	25.9
116083	7	Sololá	704	Santa Lucía Utatlán 	7	Santa Rita 	9	Septiembre	2023-08-09T00:00:00	2024-11-08T09:00:00	3	Temperatura mínima	24.6
116084	7	Sololá	704	Santa Lucía Utatlán 	7	Santa Rita 	9	Septiembre	2023-08-09T00:00:00	2024-11-08T09:00:00	5	Humedad	59
116085	7	Sololá	704	Santa Lucía Utatlán 	7	Santa Rita 	9	Septiembre	2023-08-09T00:00:00	2024-11-08T09:00:00	6	Velocidad del viento	11.3
116086	7	Sololá	704	Santa Lucía Utatlán 	7	Santa Rita 	9	Septiembre	2023-08-09T00:00:00	2024-11-08T09:00:00	7	Dirección del viento	11.27
116087	7	Sololá	704	Santa Lucía Utatlán 	7	Santa Rita 	9	Septiembre	2023-08-09T00:00:00	2024-11-08T09:00:00	1	Precipitación	0
116088	7	Sololá	704	Santa Lucía Utatlán 	7	Santa Rita 	9	Septiembre	2023-08-09T00:00:00	2024-11-08T09:00:00	8	Radiación solar	606
116089	7	Sololá	704	Santa Lucía Utatlán 	7	Santa Rita 	9	Septiembre	2023-08-09T00:00:00	2024-11-08T10:00:00	2	Temperatura media	24.8
116090	7	Sololá	704	Santa Lucía Utatlán 	7	Santa Rita 	9	Septiembre	2023-08-09T00:00:00	2024-11-08T10:00:00	4	Temperatura máxima	26
116091	7	Sololá	704	Santa Lucía Utatlán 	7	Santa Rita 	9	Septiembre	2023-08-09T00:00:00	2024-11-08T10:00:00	3	Temperatura mínima	24.6
116092	7	Sololá	704	Santa Lucía Utatlán 	7	Santa Rita 	9	Septiembre	2023-08-09T00:00:00	2024-11-08T10:00:00	5	Humedad	62
116093	7	Sololá	704	Santa Lucía Utatlán 	7	Santa Rita 	9	Septiembre	2023-08-09T00:00:00	2024-11-08T10:00:00	6	Velocidad del viento	11.3
116094	7	Sololá	704	Santa Lucía Utatlán 	7	Santa Rita 	9	Septiembre	2023-08-09T00:00:00	2024-11-08T10:00:00	7	Dirección del viento	11.27
116095	7	Sololá	704	Santa Lucía Utatlán 	7	Santa Rita 	9	Septiembre	2023-08-09T00:00:00	2024-11-08T10:00:00	1	Precipitación	0
116096	7	Sololá	704	Santa Lucía Utatlán 	7	Santa Rita 	9	Septiembre	2023-08-09T00:00:00	2024-11-08T10:00:00	8	Radiación solar	796
116097	7	Sololá	704	Santa Lucía Utatlán 	7	Santa Rita 	9	Septiembre	2023-08-09T00:00:00	2024-11-08T11:00:00	2	Temperatura media	23.1
116098	7	Sololá	704	Santa Lucía Utatlán 	7	Santa Rita 	9	Septiembre	2023-08-09T00:00:00	2024-11-08T11:00:00	4	Temperatura máxima	24.8
116099	7	Sololá	704	Santa Lucía Utatlán 	7	Santa Rita 	9	Septiembre	2023-08-09T00:00:00	2024-11-08T11:00:00	3	Temperatura mínima	23.1
116100	7	Sololá	704	Santa Lucía Utatlán 	7	Santa Rita 	9	Septiembre	2023-08-09T00:00:00	2024-11-08T11:00:00	5	Humedad	83
116101	7	Sololá	704	Santa Lucía Utatlán 	7	Santa Rita 	9	Septiembre	2023-08-09T00:00:00	2024-11-08T11:00:00	6	Velocidad del viento	6.4
116102	7	Sololá	704	Santa Lucía Utatlán 	7	Santa Rita 	9	Septiembre	2023-08-09T00:00:00	2024-11-08T11:00:00	7	Dirección del viento	6.44
116103	7	Sololá	704	Santa Lucía Utatlán 	7	Santa Rita 	9	Septiembre	2023-08-09T00:00:00	2024-11-08T11:00:00	1	Precipitación	0
116104	7	Sololá	704	Santa Lucía Utatlán 	7	Santa Rita 	9	Septiembre	2023-08-09T00:00:00	2024-11-08T11:00:00	8	Radiación solar	959
116105	7	Sololá	704	Santa Lucía Utatlán 	7	Santa Rita 	9	Septiembre	2023-08-09T00:00:00	2024-11-08T12:00:00	2	Temperatura media	22.2
116106	7	Sololá	704	Santa Lucía Utatlán 	7	Santa Rita 	9	Septiembre	2023-08-09T00:00:00	2024-11-08T12:00:00	4	Temperatura máxima	23.1
116107	7	Sololá	704	Santa Lucía Utatlán 	7	Santa Rita 	9	Septiembre	2023-08-09T00:00:00	2024-11-08T12:00:00	3	Temperatura mínima	22
116108	7	Sololá	704	Santa Lucía Utatlán 	7	Santa Rita 	9	Septiembre	2023-08-09T00:00:00	2024-11-08T12:00:00	5	Humedad	87
116109	7	Sololá	704	Santa Lucía Utatlán 	7	Santa Rita 	9	Septiembre	2023-08-09T00:00:00	2024-11-08T12:00:00	6	Velocidad del viento	3.2
116110	7	Sololá	704	Santa Lucía Utatlán 	7	Santa Rita 	9	Septiembre	2023-08-09T00:00:00	2024-11-08T12:00:00	7	Dirección del viento	3.22
116111	7	Sololá	704	Santa Lucía Utatlán 	7	Santa Rita 	9	Septiembre	2023-08-09T00:00:00	2024-11-08T12:00:00	1	Precipitación	0
116112	7	Sololá	704	Santa Lucía Utatlán 	7	Santa Rita 	9	Septiembre	2023-08-09T00:00:00	2024-11-08T12:00:00	8	Radiación solar	1046
116113	7	Sololá	704	Santa Lucía Utatlán 	7	Santa Rita 	9	Septiembre	2023-08-09T00:00:00	2024-11-08T13:00:00	2	Temperatura media	21.2
116114	7	Sololá	704	Santa Lucía Utatlán 	7	Santa Rita 	9	Septiembre	2023-08-09T00:00:00	2024-11-08T13:00:00	4	Temperatura máxima	22.2
116115	7	Sololá	704	Santa Lucía Utatlán 	7	Santa Rita 	9	Septiembre	2023-08-09T00:00:00	2024-11-08T13:00:00	3	Temperatura mínima	21.2
116116	7	Sololá	704	Santa Lucía Utatlán 	7	Santa Rita 	9	Septiembre	2023-08-09T00:00:00	2024-11-08T13:00:00	5	Humedad	90
116117	7	Sololá	704	Santa Lucía Utatlán 	7	Santa Rita 	9	Septiembre	2023-08-09T00:00:00	2024-11-08T13:00:00	6	Velocidad del viento	3.2
116118	7	Sololá	704	Santa Lucía Utatlán 	7	Santa Rita 	9	Septiembre	2023-08-09T00:00:00	2024-11-08T13:00:00	7	Dirección del viento	3.22
116119	7	Sololá	704	Santa Lucía Utatlán 	7	Santa Rita 	9	Septiembre	2023-08-09T00:00:00	2024-11-08T13:00:00	1	Precipitación	0
116120	7	Sololá	704	Santa Lucía Utatlán 	7	Santa Rita 	9	Septiembre	2023-08-09T00:00:00	2024-11-08T13:00:00	8	Radiación solar	956
116121	7	Sololá	704	Santa Lucía Utatlán 	7	Santa Rita 	9	Septiembre	2023-08-09T00:00:00	2024-11-08T14:00:00	2	Temperatura media	21
116122	7	Sololá	704	Santa Lucía Utatlán 	7	Santa Rita 	9	Septiembre	2023-08-09T00:00:00	2024-11-08T14:00:00	4	Temperatura máxima	21.2
116123	7	Sololá	704	Santa Lucía Utatlán 	7	Santa Rita 	9	Septiembre	2023-08-09T00:00:00	2024-11-08T14:00:00	3	Temperatura mínima	20.9
116124	7	Sololá	704	Santa Lucía Utatlán 	7	Santa Rita 	9	Septiembre	2023-08-09T00:00:00	2024-11-08T14:00:00	5	Humedad	81
116125	7	Sololá	704	Santa Lucía Utatlán 	7	Santa Rita 	9	Septiembre	2023-08-09T00:00:00	2024-11-08T14:00:00	6	Velocidad del viento	3.2
116126	7	Sololá	704	Santa Lucía Utatlán 	7	Santa Rita 	9	Septiembre	2023-08-09T00:00:00	2024-11-08T14:00:00	7	Dirección del viento	3.22
116127	7	Sololá	704	Santa Lucía Utatlán 	7	Santa Rita 	9	Septiembre	2023-08-09T00:00:00	2024-11-08T14:00:00	1	Precipitación	0
116128	7	Sololá	704	Santa Lucía Utatlán 	7	Santa Rita 	9	Septiembre	2023-08-09T00:00:00	2024-11-08T14:00:00	8	Radiación solar	809
116129	7	Sololá	704	Santa Lucía Utatlán 	7	Santa Rita 	9	Septiembre	2023-08-09T00:00:00	2024-11-08T15:00:00	2	Temperatura media	19.7
116130	7	Sololá	704	Santa Lucía Utatlán 	7	Santa Rita 	9	Septiembre	2023-08-09T00:00:00	2024-11-08T15:00:00	4	Temperatura máxima	21
116131	7	Sololá	704	Santa Lucía Utatlán 	7	Santa Rita 	9	Septiembre	2023-08-09T00:00:00	2024-11-08T15:00:00	3	Temperatura mínima	19.7
116132	7	Sololá	704	Santa Lucía Utatlán 	7	Santa Rita 	9	Septiembre	2023-08-09T00:00:00	2024-11-08T15:00:00	5	Humedad	91
116133	7	Sololá	704	Santa Lucía Utatlán 	7	Santa Rita 	9	Septiembre	2023-08-09T00:00:00	2024-11-08T15:00:00	6	Velocidad del viento	4.8
116134	7	Sololá	704	Santa Lucía Utatlán 	7	Santa Rita 	9	Septiembre	2023-08-09T00:00:00	2024-11-08T15:00:00	7	Dirección del viento	4.83
116135	7	Sololá	704	Santa Lucía Utatlán 	7	Santa Rita 	9	Septiembre	2023-08-09T00:00:00	2024-11-08T15:00:00	1	Precipitación	1
116136	7	Sololá	704	Santa Lucía Utatlán 	7	Santa Rita 	9	Septiembre	2023-08-09T00:00:00	2024-11-08T15:00:00	8	Radiación solar	400
116137	7	Sololá	704	Santa Lucía Utatlán 	7	Santa Rita 	9	Septiembre	2023-08-09T00:00:00	2024-11-08T16:00:00	2	Temperatura media	19.3
116138	7	Sololá	704	Santa Lucía Utatlán 	7	Santa Rita 	9	Septiembre	2023-08-09T00:00:00	2024-11-08T16:00:00	4	Temperatura máxima	19.7
116139	7	Sololá	704	Santa Lucía Utatlán 	7	Santa Rita 	9	Septiembre	2023-08-09T00:00:00	2024-11-08T16:00:00	3	Temperatura mínima	19.3
116140	7	Sololá	704	Santa Lucía Utatlán 	7	Santa Rita 	9	Septiembre	2023-08-09T00:00:00	2024-11-08T16:00:00	5	Humedad	95
116141	7	Sololá	704	Santa Lucía Utatlán 	7	Santa Rita 	9	Septiembre	2023-08-09T00:00:00	2024-11-08T16:00:00	6	Velocidad del viento	0
116142	7	Sololá	704	Santa Lucía Utatlán 	7	Santa Rita 	9	Septiembre	2023-08-09T00:00:00	2024-11-08T16:00:00	7	Dirección del viento	0
116143	7	Sololá	704	Santa Lucía Utatlán 	7	Santa Rita 	9	Septiembre	2023-08-09T00:00:00	2024-11-08T16:00:00	1	Precipitación	4
116144	7	Sololá	704	Santa Lucía Utatlán 	7	Santa Rita 	9	Septiembre	2023-08-09T00:00:00	2024-11-08T16:00:00	8	Radiación solar	150
116145	7	Sololá	704	Santa Lucía Utatlán 	7	Santa Rita 	9	Septiembre	2023-08-09T00:00:00	2024-11-08T17:00:00	2	Temperatura media	18.3
116146	7	Sololá	704	Santa Lucía Utatlán 	7	Santa Rita 	9	Septiembre	2023-08-09T00:00:00	2024-11-08T17:00:00	4	Temperatura máxima	19.3
116147	7	Sololá	704	Santa Lucía Utatlán 	7	Santa Rita 	9	Septiembre	2023-08-09T00:00:00	2024-11-08T17:00:00	3	Temperatura mínima	18.3
116148	7	Sololá	704	Santa Lucía Utatlán 	7	Santa Rita 	9	Septiembre	2023-08-09T00:00:00	2024-11-08T17:00:00	5	Humedad	94
116149	7	Sololá	704	Santa Lucía Utatlán 	7	Santa Rita 	9	Septiembre	2023-08-09T00:00:00	2024-11-08T17:00:00	6	Velocidad del viento	3.2
116150	7	Sololá	704	Santa Lucía Utatlán 	7	Santa Rita 	9	Septiembre	2023-08-09T00:00:00	2024-11-08T17:00:00	7	Dirección del viento	3.22
116151	7	Sololá	704	Santa Lucía Utatlán 	7	Santa Rita 	9	Septiembre	2023-08-09T00:00:00	2024-11-08T17:00:00	1	Precipitación	0
116152	7	Sololá	704	Santa Lucía Utatlán 	7	Santa Rita 	9	Septiembre	2023-08-09T00:00:00	2024-11-08T17:00:00	8	Radiación solar	55
116153	7	Sololá	704	Santa Lucía Utatlán 	7	Santa Rita 	9	Septiembre	2023-08-09T00:00:00	2024-11-08T18:00:00	2	Temperatura media	18.3
116154	7	Sololá	704	Santa Lucía Utatlán 	7	Santa Rita 	9	Septiembre	2023-08-09T00:00:00	2024-11-08T18:00:00	4	Temperatura máxima	18.4
116155	7	Sololá	704	Santa Lucía Utatlán 	7	Santa Rita 	9	Septiembre	2023-08-09T00:00:00	2024-11-08T18:00:00	3	Temperatura mínima	18.2
116156	7	Sololá	704	Santa Lucía Utatlán 	7	Santa Rita 	9	Septiembre	2023-08-09T00:00:00	2024-11-08T18:00:00	5	Humedad	94
116157	7	Sololá	704	Santa Lucía Utatlán 	7	Santa Rita 	9	Septiembre	2023-08-09T00:00:00	2024-11-08T18:00:00	6	Velocidad del viento	1.6
116158	7	Sololá	704	Santa Lucía Utatlán 	7	Santa Rita 	9	Septiembre	2023-08-09T00:00:00	2024-11-08T18:00:00	7	Dirección del viento	1.61
116159	7	Sololá	704	Santa Lucía Utatlán 	7	Santa Rita 	9	Septiembre	2023-08-09T00:00:00	2024-11-08T18:00:00	1	Precipitación	0
116160	7	Sololá	704	Santa Lucía Utatlán 	7	Santa Rita 	9	Septiembre	2023-08-09T00:00:00	2024-11-08T18:00:00	8	Radiación solar	19
116161	7	Sololá	704	Santa Lucía Utatlán 	7	Santa Rita 	9	Septiembre	2023-08-09T00:00:00	2024-11-08T19:00:00	2	Temperatura media	17.8
116162	7	Sololá	704	Santa Lucía Utatlán 	7	Santa Rita 	9	Septiembre	2023-08-09T00:00:00	2024-11-08T19:00:00	4	Temperatura máxima	18.3
116163	7	Sololá	704	Santa Lucía Utatlán 	7	Santa Rita 	9	Septiembre	2023-08-09T00:00:00	2024-11-08T19:00:00	3	Temperatura mínima	17.8
116164	7	Sololá	704	Santa Lucía Utatlán 	7	Santa Rita 	9	Septiembre	2023-08-09T00:00:00	2024-11-08T19:00:00	5	Humedad	93
116165	7	Sololá	704	Santa Lucía Utatlán 	7	Santa Rita 	9	Septiembre	2023-08-09T00:00:00	2024-11-08T19:00:00	6	Velocidad del viento	1.6
116166	7	Sololá	704	Santa Lucía Utatlán 	7	Santa Rita 	9	Septiembre	2023-08-09T00:00:00	2024-11-08T19:00:00	7	Dirección del viento	1.61
116167	7	Sololá	704	Santa Lucía Utatlán 	7	Santa Rita 	9	Septiembre	2023-08-09T00:00:00	2024-11-08T19:00:00	1	Precipitación	0
116168	7	Sololá	704	Santa Lucía Utatlán 	7	Santa Rita 	9	Septiembre	2023-08-09T00:00:00	2024-11-08T19:00:00	8	Radiación solar	0
116169	7	Sololá	704	Santa Lucía Utatlán 	7	Santa Rita 	9	Septiembre	2023-08-09T00:00:00	2024-11-08T20:00:00	2	Temperatura media	17.1
116170	7	Sololá	704	Santa Lucía Utatlán 	7	Santa Rita 	9	Septiembre	2023-08-09T00:00:00	2024-11-08T20:00:00	4	Temperatura máxima	17.8
116171	7	Sololá	704	Santa Lucía Utatlán 	7	Santa Rita 	9	Septiembre	2023-08-09T00:00:00	2024-11-08T20:00:00	3	Temperatura mínima	17.1
116172	7	Sololá	704	Santa Lucía Utatlán 	7	Santa Rita 	9	Septiembre	2023-08-09T00:00:00	2024-11-08T20:00:00	5	Humedad	93
116173	7	Sololá	704	Santa Lucía Utatlán 	7	Santa Rita 	9	Septiembre	2023-08-09T00:00:00	2024-11-08T20:00:00	6	Velocidad del viento	3.2
116174	7	Sololá	704	Santa Lucía Utatlán 	7	Santa Rita 	9	Septiembre	2023-08-09T00:00:00	2024-11-08T20:00:00	7	Dirección del viento	3.22
116175	7	Sololá	704	Santa Lucía Utatlán 	7	Santa Rita 	9	Septiembre	2023-08-09T00:00:00	2024-11-08T20:00:00	1	Precipitación	0
116176	7	Sololá	704	Santa Lucía Utatlán 	7	Santa Rita 	9	Septiembre	2023-08-09T00:00:00	2024-11-08T20:00:00	8	Radiación solar	0
116177	7	Sololá	704	Santa Lucía Utatlán 	7	Santa Rita 	9	Septiembre	2023-08-09T00:00:00	2024-11-08T21:00:00	2	Temperatura media	17.3
116178	7	Sololá	704	Santa Lucía Utatlán 	7	Santa Rita 	9	Septiembre	2023-08-09T00:00:00	2024-11-08T21:00:00	4	Temperatura máxima	17.3
116179	7	Sololá	704	Santa Lucía Utatlán 	7	Santa Rita 	9	Septiembre	2023-08-09T00:00:00	2024-11-08T21:00:00	3	Temperatura mínima	17
116180	7	Sololá	704	Santa Lucía Utatlán 	7	Santa Rita 	9	Septiembre	2023-08-09T00:00:00	2024-11-08T21:00:00	5	Humedad	93
116181	7	Sololá	704	Santa Lucía Utatlán 	7	Santa Rita 	9	Septiembre	2023-08-09T00:00:00	2024-11-08T21:00:00	6	Velocidad del viento	3.2
116182	7	Sololá	704	Santa Lucía Utatlán 	7	Santa Rita 	9	Septiembre	2023-08-09T00:00:00	2024-11-08T21:00:00	7	Dirección del viento	3.22
116183	7	Sololá	704	Santa Lucía Utatlán 	7	Santa Rita 	9	Septiembre	2023-08-09T00:00:00	2024-11-08T21:00:00	1	Precipitación	0
116184	7	Sololá	704	Santa Lucía Utatlán 	7	Santa Rita 	9	Septiembre	2023-08-09T00:00:00	2024-11-08T21:00:00	8	Radiación solar	0
116185	7	Sololá	704	Santa Lucía Utatlán 	7	Santa Rita 	9	Septiembre	2023-08-09T00:00:00	2024-11-08T22:00:00	2	Temperatura media	17.2
116186	7	Sololá	704	Santa Lucía Utatlán 	7	Santa Rita 	9	Septiembre	2023-08-09T00:00:00	2024-11-08T22:00:00	4	Temperatura máxima	17.3
116187	7	Sololá	704	Santa Lucía Utatlán 	7	Santa Rita 	9	Septiembre	2023-08-09T00:00:00	2024-11-08T22:00:00	3	Temperatura mínima	17.1
116188	7	Sololá	704	Santa Lucía Utatlán 	7	Santa Rita 	9	Septiembre	2023-08-09T00:00:00	2024-11-08T22:00:00	5	Humedad	95
116189	7	Sololá	704	Santa Lucía Utatlán 	7	Santa Rita 	9	Septiembre	2023-08-09T00:00:00	2024-11-08T22:00:00	6	Velocidad del viento	1.6
116190	7	Sololá	704	Santa Lucía Utatlán 	7	Santa Rita 	9	Septiembre	2023-08-09T00:00:00	2024-11-08T22:00:00	7	Dirección del viento	1.61
116191	7	Sololá	704	Santa Lucía Utatlán 	7	Santa Rita 	9	Septiembre	2023-08-09T00:00:00	2024-11-08T22:00:00	1	Precipitación	0
116192	7	Sololá	704	Santa Lucía Utatlán 	7	Santa Rita 	9	Septiembre	2023-08-09T00:00:00	2024-11-08T22:00:00	8	Radiación solar	0
116193	7	Sololá	704	Santa Lucía Utatlán 	7	Santa Rita 	9	Septiembre	2023-08-09T00:00:00	2024-11-08T23:00:00	2	Temperatura media	17.4
116194	7	Sololá	704	Santa Lucía Utatlán 	7	Santa Rita 	9	Septiembre	2023-08-09T00:00:00	2024-11-08T23:00:00	4	Temperatura máxima	17.6
116195	7	Sololá	704	Santa Lucía Utatlán 	7	Santa Rita 	9	Septiembre	2023-08-09T00:00:00	2024-11-08T23:00:00	3	Temperatura mínima	17.2
116196	7	Sololá	704	Santa Lucía Utatlán 	7	Santa Rita 	9	Septiembre	2023-08-09T00:00:00	2024-11-08T23:00:00	5	Humedad	95
116197	7	Sololá	704	Santa Lucía Utatlán 	7	Santa Rita 	9	Septiembre	2023-08-09T00:00:00	2024-11-08T23:00:00	6	Velocidad del viento	1.6
116198	7	Sololá	704	Santa Lucía Utatlán 	7	Santa Rita 	9	Septiembre	2023-08-09T00:00:00	2024-11-08T23:00:00	7	Dirección del viento	1.61
116199	7	Sololá	704	Santa Lucía Utatlán 	7	Santa Rita 	9	Septiembre	2023-08-09T00:00:00	2024-11-08T23:00:00	1	Precipitación	0.2
116200	7	Sololá	704	Santa Lucía Utatlán 	7	Santa Rita 	9	Septiembre	2023-08-09T00:00:00	2024-11-08T23:00:00	8	Radiación solar	0
116201	7	Sololá	704	Santa Lucía Utatlán 	7	Santa Rita 	9	Septiembre	2023-09-09T00:00:00	2024-11-08T00:00:00	2	Temperatura media	16.8
116202	7	Sololá	704	Santa Lucía Utatlán 	7	Santa Rita 	9	Septiembre	2023-09-09T00:00:00	2024-11-08T00:00:00	4	Temperatura máxima	17.4
116203	7	Sololá	704	Santa Lucía Utatlán 	7	Santa Rita 	9	Septiembre	2023-09-09T00:00:00	2024-11-08T00:00:00	3	Temperatura mínima	16.8
116204	7	Sololá	704	Santa Lucía Utatlán 	7	Santa Rita 	9	Septiembre	2023-09-09T00:00:00	2024-11-08T00:00:00	5	Humedad	93
116205	7	Sololá	704	Santa Lucía Utatlán 	7	Santa Rita 	9	Septiembre	2023-09-09T00:00:00	2024-11-08T00:00:00	6	Velocidad del viento	1.6
116206	7	Sololá	704	Santa Lucía Utatlán 	7	Santa Rita 	9	Septiembre	2023-09-09T00:00:00	2024-11-08T00:00:00	7	Dirección del viento	1.61
116207	7	Sololá	704	Santa Lucía Utatlán 	7	Santa Rita 	9	Septiembre	2023-09-09T00:00:00	2024-11-08T00:00:00	1	Precipitación	0.2
116208	7	Sololá	704	Santa Lucía Utatlán 	7	Santa Rita 	9	Septiembre	2023-09-09T00:00:00	2024-11-08T00:00:00	8	Radiación solar	0
116209	7	Sololá	704	Santa Lucía Utatlán 	7	Santa Rita 	9	Septiembre	2023-09-09T00:00:00	2024-11-08T01:00:00	2	Temperatura media	16.2
116210	7	Sololá	704	Santa Lucía Utatlán 	7	Santa Rita 	9	Septiembre	2023-09-09T00:00:00	2024-11-08T01:00:00	4	Temperatura máxima	16.8
116211	7	Sololá	704	Santa Lucía Utatlán 	7	Santa Rita 	9	Septiembre	2023-09-09T00:00:00	2024-11-08T01:00:00	3	Temperatura mínima	16.2
116212	7	Sololá	704	Santa Lucía Utatlán 	7	Santa Rita 	9	Septiembre	2023-09-09T00:00:00	2024-11-08T01:00:00	5	Humedad	92
116213	7	Sololá	704	Santa Lucía Utatlán 	7	Santa Rita 	9	Septiembre	2023-09-09T00:00:00	2024-11-08T01:00:00	6	Velocidad del viento	4.8
116214	7	Sololá	704	Santa Lucía Utatlán 	7	Santa Rita 	9	Septiembre	2023-09-09T00:00:00	2024-11-08T01:00:00	7	Dirección del viento	4.83
116215	7	Sololá	704	Santa Lucía Utatlán 	7	Santa Rita 	9	Septiembre	2023-09-09T00:00:00	2024-11-08T01:00:00	1	Precipitación	0
116216	7	Sololá	704	Santa Lucía Utatlán 	7	Santa Rita 	9	Septiembre	2023-09-09T00:00:00	2024-11-08T01:00:00	8	Radiación solar	0
116217	7	Sololá	704	Santa Lucía Utatlán 	7	Santa Rita 	9	Septiembre	2023-09-09T00:00:00	2024-11-08T02:00:00	2	Temperatura media	18
116218	7	Sololá	704	Santa Lucía Utatlán 	7	Santa Rita 	9	Septiembre	2023-09-09T00:00:00	2024-11-08T02:00:00	4	Temperatura máxima	18
116219	7	Sololá	704	Santa Lucía Utatlán 	7	Santa Rita 	9	Septiembre	2023-09-09T00:00:00	2024-11-08T02:00:00	3	Temperatura mínima	16.2
116220	7	Sololá	704	Santa Lucía Utatlán 	7	Santa Rita 	9	Septiembre	2023-09-09T00:00:00	2024-11-08T02:00:00	5	Humedad	94
116221	7	Sololá	704	Santa Lucía Utatlán 	7	Santa Rita 	9	Septiembre	2023-09-09T00:00:00	2024-11-08T02:00:00	6	Velocidad del viento	1.6
116222	7	Sololá	704	Santa Lucía Utatlán 	7	Santa Rita 	9	Septiembre	2023-09-09T00:00:00	2024-11-08T02:00:00	7	Dirección del viento	1.61
116223	7	Sololá	704	Santa Lucía Utatlán 	7	Santa Rita 	9	Septiembre	2023-09-09T00:00:00	2024-11-08T02:00:00	1	Precipitación	0
116224	7	Sololá	704	Santa Lucía Utatlán 	7	Santa Rita 	9	Septiembre	2023-09-09T00:00:00	2024-11-08T02:00:00	8	Radiación solar	0
116225	7	Sololá	704	Santa Lucía Utatlán 	7	Santa Rita 	9	Septiembre	2023-09-09T00:00:00	2024-11-08T03:00:00	2	Temperatura media	19.9
116226	7	Sololá	704	Santa Lucía Utatlán 	7	Santa Rita 	9	Septiembre	2023-09-09T00:00:00	2024-11-08T03:00:00	4	Temperatura máxima	20.7
116227	7	Sololá	704	Santa Lucía Utatlán 	7	Santa Rita 	9	Septiembre	2023-09-09T00:00:00	2024-11-08T03:00:00	3	Temperatura mínima	18
116228	7	Sololá	704	Santa Lucía Utatlán 	7	Santa Rita 	9	Septiembre	2023-09-09T00:00:00	2024-11-08T03:00:00	5	Humedad	84
116229	7	Sololá	704	Santa Lucía Utatlán 	7	Santa Rita 	9	Septiembre	2023-09-09T00:00:00	2024-11-08T03:00:00	6	Velocidad del viento	1.6
116230	7	Sololá	704	Santa Lucía Utatlán 	7	Santa Rita 	9	Septiembre	2023-09-09T00:00:00	2024-11-08T03:00:00	7	Dirección del viento	1.61
116231	7	Sololá	704	Santa Lucía Utatlán 	7	Santa Rita 	9	Septiembre	2023-09-09T00:00:00	2024-11-08T03:00:00	1	Precipitación	0
116232	7	Sololá	704	Santa Lucía Utatlán 	7	Santa Rita 	9	Septiembre	2023-09-09T00:00:00	2024-11-08T03:00:00	8	Radiación solar	0
116233	7	Sololá	704	Santa Lucía Utatlán 	7	Santa Rita 	9	Septiembre	2023-09-09T00:00:00	2024-11-08T04:00:00	2	Temperatura media	21.3
116234	7	Sololá	704	Santa Lucía Utatlán 	7	Santa Rita 	9	Septiembre	2023-09-09T00:00:00	2024-11-08T04:00:00	4	Temperatura máxima	21.4
116235	7	Sololá	704	Santa Lucía Utatlán 	7	Santa Rita 	9	Septiembre	2023-09-09T00:00:00	2024-11-08T04:00:00	3	Temperatura mínima	19.9
116236	7	Sololá	704	Santa Lucía Utatlán 	7	Santa Rita 	9	Septiembre	2023-09-09T00:00:00	2024-11-08T04:00:00	5	Humedad	80
116237	7	Sololá	704	Santa Lucía Utatlán 	7	Santa Rita 	9	Septiembre	2023-09-09T00:00:00	2024-11-08T04:00:00	6	Velocidad del viento	3.2
116238	7	Sololá	704	Santa Lucía Utatlán 	7	Santa Rita 	9	Septiembre	2023-09-09T00:00:00	2024-11-08T04:00:00	7	Dirección del viento	3.22
116239	7	Sololá	704	Santa Lucía Utatlán 	7	Santa Rita 	9	Septiembre	2023-09-09T00:00:00	2024-11-08T04:00:00	1	Precipitación	0
116240	7	Sololá	704	Santa Lucía Utatlán 	7	Santa Rita 	9	Septiembre	2023-09-09T00:00:00	2024-11-08T04:00:00	8	Radiación solar	0
116241	7	Sololá	704	Santa Lucía Utatlán 	7	Santa Rita 	9	Septiembre	2023-09-09T00:00:00	2024-11-08T05:00:00	2	Temperatura media	21.9
116242	7	Sololá	704	Santa Lucía Utatlán 	7	Santa Rita 	9	Septiembre	2023-09-09T00:00:00	2024-11-08T05:00:00	4	Temperatura máxima	22.8
116243	7	Sololá	704	Santa Lucía Utatlán 	7	Santa Rita 	9	Septiembre	2023-09-09T00:00:00	2024-11-08T05:00:00	3	Temperatura mínima	21.3
116244	7	Sololá	704	Santa Lucía Utatlán 	7	Santa Rita 	9	Septiembre	2023-09-09T00:00:00	2024-11-08T05:00:00	5	Humedad	75
116245	7	Sololá	704	Santa Lucía Utatlán 	7	Santa Rita 	9	Septiembre	2023-09-09T00:00:00	2024-11-08T05:00:00	6	Velocidad del viento	4.8
116246	7	Sololá	704	Santa Lucía Utatlán 	7	Santa Rita 	9	Septiembre	2023-09-09T00:00:00	2024-11-08T05:00:00	7	Dirección del viento	4.83
116247	7	Sololá	704	Santa Lucía Utatlán 	7	Santa Rita 	9	Septiembre	2023-09-09T00:00:00	2024-11-08T05:00:00	1	Precipitación	0
116248	7	Sololá	704	Santa Lucía Utatlán 	7	Santa Rita 	9	Septiembre	2023-09-09T00:00:00	2024-11-08T05:00:00	8	Radiación solar	0
116249	7	Sololá	704	Santa Lucía Utatlán 	7	Santa Rita 	9	Septiembre	2023-09-09T00:00:00	2024-11-08T06:00:00	2	Temperatura media	23.3
116250	7	Sololá	704	Santa Lucía Utatlán 	7	Santa Rita 	9	Septiembre	2023-09-09T00:00:00	2024-11-08T06:00:00	4	Temperatura máxima	23.7
116251	7	Sololá	704	Santa Lucía Utatlán 	7	Santa Rita 	9	Septiembre	2023-09-09T00:00:00	2024-11-08T06:00:00	3	Temperatura mínima	21.9
116252	7	Sololá	704	Santa Lucía Utatlán 	7	Santa Rita 	9	Septiembre	2023-09-09T00:00:00	2024-11-08T06:00:00	5	Humedad	72
116253	7	Sololá	704	Santa Lucía Utatlán 	7	Santa Rita 	9	Septiembre	2023-09-09T00:00:00	2024-11-08T06:00:00	6	Velocidad del viento	4.8
116254	7	Sololá	704	Santa Lucía Utatlán 	7	Santa Rita 	9	Septiembre	2023-09-09T00:00:00	2024-11-08T06:00:00	7	Dirección del viento	4.83
116255	7	Sololá	704	Santa Lucía Utatlán 	7	Santa Rita 	9	Septiembre	2023-09-09T00:00:00	2024-11-08T06:00:00	1	Precipitación	0
116256	7	Sololá	704	Santa Lucía Utatlán 	7	Santa Rita 	9	Septiembre	2023-09-09T00:00:00	2024-11-08T06:00:00	8	Radiación solar	4
116257	7	Sololá	704	Santa Lucía Utatlán 	7	Santa Rita 	9	Septiembre	2023-09-09T00:00:00	2024-11-08T07:00:00	2	Temperatura media	23.3
116258	7	Sololá	704	Santa Lucía Utatlán 	7	Santa Rita 	9	Septiembre	2023-09-09T00:00:00	2024-11-08T07:00:00	4	Temperatura máxima	23.4
116259	7	Sololá	704	Santa Lucía Utatlán 	7	Santa Rita 	9	Septiembre	2023-09-09T00:00:00	2024-11-08T07:00:00	3	Temperatura mínima	23
116260	7	Sololá	704	Santa Lucía Utatlán 	7	Santa Rita 	9	Septiembre	2023-09-09T00:00:00	2024-11-08T07:00:00	5	Humedad	75
116261	7	Sololá	704	Santa Lucía Utatlán 	7	Santa Rita 	9	Septiembre	2023-09-09T00:00:00	2024-11-08T07:00:00	6	Velocidad del viento	4.8
116262	7	Sololá	704	Santa Lucía Utatlán 	7	Santa Rita 	9	Septiembre	2023-09-09T00:00:00	2024-11-08T07:00:00	7	Dirección del viento	4.83
116263	7	Sololá	704	Santa Lucía Utatlán 	7	Santa Rita 	9	Septiembre	2023-09-09T00:00:00	2024-11-08T07:00:00	1	Precipitación	0
116264	7	Sololá	704	Santa Lucía Utatlán 	7	Santa Rita 	9	Septiembre	2023-09-09T00:00:00	2024-11-08T07:00:00	8	Radiación solar	77
116265	7	Sololá	704	Santa Lucía Utatlán 	7	Santa Rita 	9	Septiembre	2023-09-09T00:00:00	2024-11-08T08:00:00	2	Temperatura media	22.1
116266	7	Sololá	704	Santa Lucía Utatlán 	7	Santa Rita 	9	Septiembre	2023-09-09T00:00:00	2024-11-08T08:00:00	4	Temperatura máxima	23.4
116267	7	Sololá	704	Santa Lucía Utatlán 	7	Santa Rita 	9	Septiembre	2023-09-09T00:00:00	2024-11-08T08:00:00	3	Temperatura mínima	22.1
116268	7	Sololá	704	Santa Lucía Utatlán 	7	Santa Rita 	9	Septiembre	2023-09-09T00:00:00	2024-11-08T08:00:00	5	Humedad	82
116269	7	Sololá	704	Santa Lucía Utatlán 	7	Santa Rita 	9	Septiembre	2023-09-09T00:00:00	2024-11-08T08:00:00	6	Velocidad del viento	3.2
116270	7	Sololá	704	Santa Lucía Utatlán 	7	Santa Rita 	9	Septiembre	2023-09-09T00:00:00	2024-11-08T08:00:00	7	Dirección del viento	3.22
116271	7	Sololá	704	Santa Lucía Utatlán 	7	Santa Rita 	9	Septiembre	2023-09-09T00:00:00	2024-11-08T08:00:00	1	Precipitación	1.2
116272	7	Sololá	704	Santa Lucía Utatlán 	7	Santa Rita 	9	Septiembre	2023-09-09T00:00:00	2024-11-08T08:00:00	8	Radiación solar	286
116273	7	Sololá	704	Santa Lucía Utatlán 	7	Santa Rita 	9	Septiembre	2023-09-09T00:00:00	2024-11-08T09:00:00	2	Temperatura media	22.6
116274	7	Sololá	704	Santa Lucía Utatlán 	7	Santa Rita 	9	Septiembre	2023-09-09T00:00:00	2024-11-08T09:00:00	4	Temperatura máxima	22.6
116275	7	Sololá	704	Santa Lucía Utatlán 	7	Santa Rita 	9	Septiembre	2023-09-09T00:00:00	2024-11-08T09:00:00	3	Temperatura mínima	21.5
116276	7	Sololá	704	Santa Lucía Utatlán 	7	Santa Rita 	9	Septiembre	2023-09-09T00:00:00	2024-11-08T09:00:00	5	Humedad	85
116277	7	Sololá	704	Santa Lucía Utatlán 	7	Santa Rita 	9	Septiembre	2023-09-09T00:00:00	2024-11-08T09:00:00	6	Velocidad del viento	1.6
116278	7	Sololá	704	Santa Lucía Utatlán 	7	Santa Rita 	9	Septiembre	2023-09-09T00:00:00	2024-11-08T09:00:00	7	Dirección del viento	1.61
116279	7	Sololá	704	Santa Lucía Utatlán 	7	Santa Rita 	9	Septiembre	2023-09-09T00:00:00	2024-11-08T09:00:00	1	Precipitación	2.4
116280	7	Sololá	704	Santa Lucía Utatlán 	7	Santa Rita 	9	Septiembre	2023-09-09T00:00:00	2024-11-08T09:00:00	8	Radiación solar	345
116281	7	Sololá	704	Santa Lucía Utatlán 	7	Santa Rita 	9	Septiembre	2023-09-09T00:00:00	2024-11-08T10:00:00	2	Temperatura media	21.6
116282	7	Sololá	704	Santa Lucía Utatlán 	7	Santa Rita 	9	Septiembre	2023-09-09T00:00:00	2024-11-08T10:00:00	4	Temperatura máxima	23.8
116283	7	Sololá	704	Santa Lucía Utatlán 	7	Santa Rita 	9	Septiembre	2023-09-09T00:00:00	2024-11-08T10:00:00	3	Temperatura mínima	21.6
116284	7	Sololá	704	Santa Lucía Utatlán 	7	Santa Rita 	9	Septiembre	2023-09-09T00:00:00	2024-11-08T10:00:00	5	Humedad	88
116285	7	Sololá	704	Santa Lucía Utatlán 	7	Santa Rita 	9	Septiembre	2023-09-09T00:00:00	2024-11-08T10:00:00	6	Velocidad del viento	3.2
116286	7	Sololá	704	Santa Lucía Utatlán 	7	Santa Rita 	9	Septiembre	2023-09-09T00:00:00	2024-11-08T10:00:00	7	Dirección del viento	3.22
116287	7	Sololá	704	Santa Lucía Utatlán 	7	Santa Rita 	9	Septiembre	2023-09-09T00:00:00	2024-11-08T10:00:00	1	Precipitación	0.2
116288	7	Sololá	704	Santa Lucía Utatlán 	7	Santa Rita 	9	Septiembre	2023-09-09T00:00:00	2024-11-08T10:00:00	8	Radiación solar	522
116289	7	Sololá	704	Santa Lucía Utatlán 	7	Santa Rita 	9	Septiembre	2023-09-09T00:00:00	2024-11-08T11:00:00	2	Temperatura media	20.1
116290	7	Sololá	704	Santa Lucía Utatlán 	7	Santa Rita 	9	Septiembre	2023-09-09T00:00:00	2024-11-08T11:00:00	4	Temperatura máxima	21.6
116291	7	Sololá	704	Santa Lucía Utatlán 	7	Santa Rita 	9	Septiembre	2023-09-09T00:00:00	2024-11-08T11:00:00	3	Temperatura mínima	20.1
116292	7	Sololá	704	Santa Lucía Utatlán 	7	Santa Rita 	9	Septiembre	2023-09-09T00:00:00	2024-11-08T11:00:00	5	Humedad	92
116293	7	Sololá	704	Santa Lucía Utatlán 	7	Santa Rita 	9	Septiembre	2023-09-09T00:00:00	2024-11-08T11:00:00	6	Velocidad del viento	4.8
116294	7	Sololá	704	Santa Lucía Utatlán 	7	Santa Rita 	9	Septiembre	2023-09-09T00:00:00	2024-11-08T11:00:00	7	Dirección del viento	4.83
116295	7	Sololá	704	Santa Lucía Utatlán 	7	Santa Rita 	9	Septiembre	2023-09-09T00:00:00	2024-11-08T11:00:00	1	Precipitación	1
116296	7	Sololá	704	Santa Lucía Utatlán 	7	Santa Rita 	9	Septiembre	2023-09-09T00:00:00	2024-11-08T11:00:00	8	Radiación solar	837
116297	7	Sololá	704	Santa Lucía Utatlán 	7	Santa Rita 	9	Septiembre	2023-09-09T00:00:00	2024-11-08T12:00:00	2	Temperatura media	19.8
116298	7	Sololá	704	Santa Lucía Utatlán 	7	Santa Rita 	9	Septiembre	2023-09-09T00:00:00	2024-11-08T12:00:00	4	Temperatura máxima	20.1
116299	7	Sololá	704	Santa Lucía Utatlán 	7	Santa Rita 	9	Septiembre	2023-09-09T00:00:00	2024-11-08T12:00:00	3	Temperatura mínima	19.7
116300	7	Sololá	704	Santa Lucía Utatlán 	7	Santa Rita 	9	Septiembre	2023-09-09T00:00:00	2024-11-08T12:00:00	5	Humedad	94
116301	7	Sololá	704	Santa Lucía Utatlán 	7	Santa Rita 	9	Septiembre	2023-09-09T00:00:00	2024-11-08T12:00:00	6	Velocidad del viento	1.6
116302	7	Sololá	704	Santa Lucía Utatlán 	7	Santa Rita 	9	Septiembre	2023-09-09T00:00:00	2024-11-08T12:00:00	7	Dirección del viento	1.61
116303	7	Sololá	704	Santa Lucía Utatlán 	7	Santa Rita 	9	Septiembre	2023-09-09T00:00:00	2024-11-08T12:00:00	1	Precipitación	0.2
116304	7	Sololá	704	Santa Lucía Utatlán 	7	Santa Rita 	9	Septiembre	2023-09-09T00:00:00	2024-11-08T12:00:00	8	Radiación solar	437
116305	7	Sololá	704	Santa Lucía Utatlán 	7	Santa Rita 	9	Septiembre	2023-09-09T00:00:00	2024-11-08T13:00:00	2	Temperatura media	19.2
116306	7	Sololá	704	Santa Lucía Utatlán 	7	Santa Rita 	9	Septiembre	2023-09-09T00:00:00	2024-11-08T13:00:00	4	Temperatura máxima	19.8
116307	7	Sololá	704	Santa Lucía Utatlán 	7	Santa Rita 	9	Septiembre	2023-09-09T00:00:00	2024-11-08T13:00:00	3	Temperatura mínima	19.2
116308	7	Sololá	704	Santa Lucía Utatlán 	7	Santa Rita 	9	Septiembre	2023-09-09T00:00:00	2024-11-08T13:00:00	5	Humedad	92
116309	7	Sololá	704	Santa Lucía Utatlán 	7	Santa Rita 	9	Septiembre	2023-09-09T00:00:00	2024-11-08T13:00:00	6	Velocidad del viento	3.2
116310	7	Sololá	704	Santa Lucía Utatlán 	7	Santa Rita 	9	Septiembre	2023-09-09T00:00:00	2024-11-08T13:00:00	7	Dirección del viento	3.22
116311	7	Sololá	704	Santa Lucía Utatlán 	7	Santa Rita 	9	Septiembre	2023-09-09T00:00:00	2024-11-08T13:00:00	1	Precipitación	11.8
116312	7	Sololá	704	Santa Lucía Utatlán 	7	Santa Rita 	9	Septiembre	2023-09-09T00:00:00	2024-11-08T13:00:00	8	Radiación solar	178
116313	7	Sololá	704	Santa Lucía Utatlán 	7	Santa Rita 	9	Septiembre	2023-09-09T00:00:00	2024-11-08T14:00:00	2	Temperatura media	18.5
116314	7	Sololá	704	Santa Lucía Utatlán 	7	Santa Rita 	9	Septiembre	2023-09-09T00:00:00	2024-11-08T14:00:00	4	Temperatura máxima	19.2
116315	7	Sololá	704	Santa Lucía Utatlán 	7	Santa Rita 	9	Septiembre	2023-09-09T00:00:00	2024-11-08T14:00:00	3	Temperatura mínima	18.4
116316	7	Sololá	704	Santa Lucía Utatlán 	7	Santa Rita 	9	Septiembre	2023-09-09T00:00:00	2024-11-08T14:00:00	5	Humedad	92
116317	7	Sololá	704	Santa Lucía Utatlán 	7	Santa Rita 	9	Septiembre	2023-09-09T00:00:00	2024-11-08T14:00:00	6	Velocidad del viento	3.2
116318	7	Sololá	704	Santa Lucía Utatlán 	7	Santa Rita 	9	Septiembre	2023-09-09T00:00:00	2024-11-08T14:00:00	7	Dirección del viento	3.22
116319	7	Sololá	704	Santa Lucía Utatlán 	7	Santa Rita 	9	Septiembre	2023-09-09T00:00:00	2024-11-08T14:00:00	1	Precipitación	0
116320	7	Sololá	704	Santa Lucía Utatlán 	7	Santa Rita 	9	Septiembre	2023-09-09T00:00:00	2024-11-08T14:00:00	8	Radiación solar	234
116321	7	Sololá	704	Santa Lucía Utatlán 	7	Santa Rita 	9	Septiembre	2023-09-09T00:00:00	2024-11-08T15:00:00	2	Temperatura media	18.3
116322	7	Sololá	704	Santa Lucía Utatlán 	7	Santa Rita 	9	Septiembre	2023-09-09T00:00:00	2024-11-08T15:00:00	4	Temperatura máxima	18.7
116323	7	Sololá	704	Santa Lucía Utatlán 	7	Santa Rita 	9	Septiembre	2023-09-09T00:00:00	2024-11-08T15:00:00	3	Temperatura mínima	18.3
116324	7	Sololá	704	Santa Lucía Utatlán 	7	Santa Rita 	9	Septiembre	2023-09-09T00:00:00	2024-11-08T15:00:00	5	Humedad	91
116325	7	Sololá	704	Santa Lucía Utatlán 	7	Santa Rita 	9	Septiembre	2023-09-09T00:00:00	2024-11-08T15:00:00	6	Velocidad del viento	3.2
116326	7	Sololá	704	Santa Lucía Utatlán 	7	Santa Rita 	9	Septiembre	2023-09-09T00:00:00	2024-11-08T15:00:00	7	Dirección del viento	3.22
116327	7	Sololá	704	Santa Lucía Utatlán 	7	Santa Rita 	9	Septiembre	2023-09-09T00:00:00	2024-11-08T15:00:00	1	Precipitación	0
116328	7	Sololá	704	Santa Lucía Utatlán 	7	Santa Rita 	9	Septiembre	2023-09-09T00:00:00	2024-11-08T15:00:00	8	Radiación solar	220
116329	7	Sololá	704	Santa Lucía Utatlán 	7	Santa Rita 	9	Septiembre	2023-09-09T00:00:00	2024-11-08T16:00:00	2	Temperatura media	18.3
116330	7	Sololá	704	Santa Lucía Utatlán 	7	Santa Rita 	9	Septiembre	2023-09-09T00:00:00	2024-11-08T16:00:00	4	Temperatura máxima	18.3
116331	7	Sololá	704	Santa Lucía Utatlán 	7	Santa Rita 	9	Septiembre	2023-09-09T00:00:00	2024-11-08T16:00:00	3	Temperatura mínima	18.2
116332	7	Sololá	704	Santa Lucía Utatlán 	7	Santa Rita 	9	Septiembre	2023-09-09T00:00:00	2024-11-08T16:00:00	5	Humedad	92
116333	7	Sololá	704	Santa Lucía Utatlán 	7	Santa Rita 	9	Septiembre	2023-09-09T00:00:00	2024-11-08T16:00:00	6	Velocidad del viento	3.2
116334	7	Sololá	704	Santa Lucía Utatlán 	7	Santa Rita 	9	Septiembre	2023-09-09T00:00:00	2024-11-08T16:00:00	7	Dirección del viento	3.22
116335	7	Sololá	704	Santa Lucía Utatlán 	7	Santa Rita 	9	Septiembre	2023-09-09T00:00:00	2024-11-08T16:00:00	1	Precipitación	0
116336	7	Sololá	704	Santa Lucía Utatlán 	7	Santa Rita 	9	Septiembre	2023-09-09T00:00:00	2024-11-08T16:00:00	8	Radiación solar	37
116337	7	Sololá	704	Santa Lucía Utatlán 	7	Santa Rita 	9	Septiembre	2023-09-09T00:00:00	2024-11-08T17:00:00	2	Temperatura media	18.4
116338	7	Sololá	704	Santa Lucía Utatlán 	7	Santa Rita 	9	Septiembre	2023-09-09T00:00:00	2024-11-08T17:00:00	4	Temperatura máxima	18.4
116339	7	Sololá	704	Santa Lucía Utatlán 	7	Santa Rita 	9	Septiembre	2023-09-09T00:00:00	2024-11-08T17:00:00	3	Temperatura mínima	18.3
116340	7	Sololá	704	Santa Lucía Utatlán 	7	Santa Rita 	9	Septiembre	2023-09-09T00:00:00	2024-11-08T17:00:00	5	Humedad	92
116341	7	Sololá	704	Santa Lucía Utatlán 	7	Santa Rita 	9	Septiembre	2023-09-09T00:00:00	2024-11-08T17:00:00	6	Velocidad del viento	1.6
116342	7	Sololá	704	Santa Lucía Utatlán 	7	Santa Rita 	9	Septiembre	2023-09-09T00:00:00	2024-11-08T17:00:00	7	Dirección del viento	1.61
116343	7	Sololá	704	Santa Lucía Utatlán 	7	Santa Rita 	9	Septiembre	2023-09-09T00:00:00	2024-11-08T17:00:00	1	Precipitación	0
116344	7	Sololá	704	Santa Lucía Utatlán 	7	Santa Rita 	9	Septiembre	2023-09-09T00:00:00	2024-11-08T17:00:00	8	Radiación solar	8
116345	7	Sololá	704	Santa Lucía Utatlán 	7	Santa Rita 	9	Septiembre	2023-09-09T00:00:00	2024-11-08T18:00:00	2	Temperatura media	18.7
116346	7	Sololá	704	Santa Lucía Utatlán 	7	Santa Rita 	9	Septiembre	2023-09-09T00:00:00	2024-11-08T18:00:00	4	Temperatura máxima	18.7
116347	7	Sololá	704	Santa Lucía Utatlán 	7	Santa Rita 	9	Septiembre	2023-09-09T00:00:00	2024-11-08T18:00:00	3	Temperatura mínima	18.3
116348	7	Sololá	704	Santa Lucía Utatlán 	7	Santa Rita 	9	Septiembre	2023-09-09T00:00:00	2024-11-08T18:00:00	5	Humedad	92
116349	7	Sololá	704	Santa Lucía Utatlán 	7	Santa Rita 	9	Septiembre	2023-09-09T00:00:00	2024-11-08T18:00:00	6	Velocidad del viento	3.2
116350	7	Sololá	704	Santa Lucía Utatlán 	7	Santa Rita 	9	Septiembre	2023-09-09T00:00:00	2024-11-08T18:00:00	7	Dirección del viento	3.22
116351	7	Sololá	704	Santa Lucía Utatlán 	7	Santa Rita 	9	Septiembre	2023-09-09T00:00:00	2024-11-08T18:00:00	1	Precipitación	0
116352	7	Sololá	704	Santa Lucía Utatlán 	7	Santa Rita 	9	Septiembre	2023-09-09T00:00:00	2024-11-08T18:00:00	8	Radiación solar	0
116353	7	Sololá	704	Santa Lucía Utatlán 	7	Santa Rita 	9	Septiembre	2023-09-09T00:00:00	2024-11-08T19:00:00	2	Temperatura media	18.4
116354	7	Sololá	704	Santa Lucía Utatlán 	7	Santa Rita 	9	Septiembre	2023-09-09T00:00:00	2024-11-08T19:00:00	4	Temperatura máxima	18.9
116355	7	Sololá	704	Santa Lucía Utatlán 	7	Santa Rita 	9	Septiembre	2023-09-09T00:00:00	2024-11-08T19:00:00	3	Temperatura mínima	18.4
116356	7	Sololá	704	Santa Lucía Utatlán 	7	Santa Rita 	9	Septiembre	2023-09-09T00:00:00	2024-11-08T19:00:00	5	Humedad	93
116357	7	Sololá	704	Santa Lucía Utatlán 	7	Santa Rita 	9	Septiembre	2023-09-09T00:00:00	2024-11-08T19:00:00	6	Velocidad del viento	1.6
116358	7	Sololá	704	Santa Lucía Utatlán 	7	Santa Rita 	9	Septiembre	2023-09-09T00:00:00	2024-11-08T19:00:00	7	Dirección del viento	1.61
116359	7	Sololá	704	Santa Lucía Utatlán 	7	Santa Rita 	9	Septiembre	2023-09-09T00:00:00	2024-11-08T19:00:00	1	Precipitación	0
116360	7	Sololá	704	Santa Lucía Utatlán 	7	Santa Rita 	9	Septiembre	2023-09-09T00:00:00	2024-11-08T19:00:00	8	Radiación solar	0
116361	7	Sololá	704	Santa Lucía Utatlán 	7	Santa Rita 	9	Septiembre	2023-09-09T00:00:00	2024-11-08T20:00:00	2	Temperatura media	18.1
116362	7	Sololá	704	Santa Lucía Utatlán 	7	Santa Rita 	9	Septiembre	2023-09-09T00:00:00	2024-11-08T20:00:00	4	Temperatura máxima	18.5
116363	7	Sololá	704	Santa Lucía Utatlán 	7	Santa Rita 	9	Septiembre	2023-09-09T00:00:00	2024-11-08T20:00:00	3	Temperatura mínima	18.1
116364	7	Sololá	704	Santa Lucía Utatlán 	7	Santa Rita 	9	Septiembre	2023-09-09T00:00:00	2024-11-08T20:00:00	5	Humedad	93
116365	7	Sololá	704	Santa Lucía Utatlán 	7	Santa Rita 	9	Septiembre	2023-09-09T00:00:00	2024-11-08T20:00:00	6	Velocidad del viento	1.6
116366	7	Sololá	704	Santa Lucía Utatlán 	7	Santa Rita 	9	Septiembre	2023-09-09T00:00:00	2024-11-08T20:00:00	7	Dirección del viento	1.61
116367	7	Sololá	704	Santa Lucía Utatlán 	7	Santa Rita 	9	Septiembre	2023-09-09T00:00:00	2024-11-08T20:00:00	1	Precipitación	0
116368	7	Sololá	704	Santa Lucía Utatlán 	7	Santa Rita 	9	Septiembre	2023-09-09T00:00:00	2024-11-08T20:00:00	8	Radiación solar	0
116369	7	Sololá	704	Santa Lucía Utatlán 	7	Santa Rita 	9	Septiembre	2023-09-09T00:00:00	2024-11-08T21:00:00	2	Temperatura media	17.7
116370	7	Sololá	704	Santa Lucía Utatlán 	7	Santa Rita 	9	Septiembre	2023-09-09T00:00:00	2024-11-08T21:00:00	4	Temperatura máxima	18.1
116371	7	Sololá	704	Santa Lucía Utatlán 	7	Santa Rita 	9	Septiembre	2023-09-09T00:00:00	2024-11-08T21:00:00	3	Temperatura mínima	17.7
116372	7	Sololá	704	Santa Lucía Utatlán 	7	Santa Rita 	9	Septiembre	2023-09-09T00:00:00	2024-11-08T21:00:00	5	Humedad	93
116373	7	Sololá	704	Santa Lucía Utatlán 	7	Santa Rita 	9	Septiembre	2023-09-09T00:00:00	2024-11-08T21:00:00	6	Velocidad del viento	1.6
116374	7	Sololá	704	Santa Lucía Utatlán 	7	Santa Rita 	9	Septiembre	2023-09-09T00:00:00	2024-11-08T21:00:00	7	Dirección del viento	1.61
116375	7	Sololá	704	Santa Lucía Utatlán 	7	Santa Rita 	9	Septiembre	2023-09-09T00:00:00	2024-11-08T21:00:00	1	Precipitación	0
116376	7	Sololá	704	Santa Lucía Utatlán 	7	Santa Rita 	9	Septiembre	2023-09-09T00:00:00	2024-11-08T21:00:00	8	Radiación solar	0
116377	7	Sololá	704	Santa Lucía Utatlán 	7	Santa Rita 	9	Septiembre	2023-09-09T00:00:00	2024-11-08T22:00:00	2	Temperatura media	17.4
116378	7	Sololá	704	Santa Lucía Utatlán 	7	Santa Rita 	9	Septiembre	2023-09-09T00:00:00	2024-11-08T22:00:00	4	Temperatura máxima	17.7
116379	7	Sololá	704	Santa Lucía Utatlán 	7	Santa Rita 	9	Septiembre	2023-09-09T00:00:00	2024-11-08T22:00:00	3	Temperatura mínima	17.4
116380	7	Sololá	704	Santa Lucía Utatlán 	7	Santa Rita 	9	Septiembre	2023-09-09T00:00:00	2024-11-08T22:00:00	5	Humedad	91
116381	7	Sololá	704	Santa Lucía Utatlán 	7	Santa Rita 	9	Septiembre	2023-09-09T00:00:00	2024-11-08T22:00:00	6	Velocidad del viento	1.6
116382	7	Sololá	704	Santa Lucía Utatlán 	7	Santa Rita 	9	Septiembre	2023-09-09T00:00:00	2024-11-08T22:00:00	7	Dirección del viento	1.61
116383	7	Sololá	704	Santa Lucía Utatlán 	7	Santa Rita 	9	Septiembre	2023-09-09T00:00:00	2024-11-08T22:00:00	1	Precipitación	0
116384	7	Sololá	704	Santa Lucía Utatlán 	7	Santa Rita 	9	Septiembre	2023-09-09T00:00:00	2024-11-08T22:00:00	8	Radiación solar	0
116385	7	Sololá	704	Santa Lucía Utatlán 	7	Santa Rita 	9	Septiembre	2023-09-09T00:00:00	2024-11-08T23:00:00	2	Temperatura media	17.2
116386	7	Sololá	704	Santa Lucía Utatlán 	7	Santa Rita 	9	Septiembre	2023-09-09T00:00:00	2024-11-08T23:00:00	4	Temperatura máxima	17.5
116387	7	Sololá	704	Santa Lucía Utatlán 	7	Santa Rita 	9	Septiembre	2023-09-09T00:00:00	2024-11-08T23:00:00	3	Temperatura mínima	17.2
116388	7	Sololá	704	Santa Lucía Utatlán 	7	Santa Rita 	9	Septiembre	2023-09-09T00:00:00	2024-11-08T23:00:00	5	Humedad	91
116389	7	Sololá	704	Santa Lucía Utatlán 	7	Santa Rita 	9	Septiembre	2023-09-09T00:00:00	2024-11-08T23:00:00	6	Velocidad del viento	3.2
116390	7	Sololá	704	Santa Lucía Utatlán 	7	Santa Rita 	9	Septiembre	2023-09-09T00:00:00	2024-11-08T23:00:00	7	Dirección del viento	3.22
116391	7	Sololá	704	Santa Lucía Utatlán 	7	Santa Rita 	9	Septiembre	2023-09-09T00:00:00	2024-11-08T23:00:00	1	Precipitación	0
116392	7	Sololá	704	Santa Lucía Utatlán 	7	Santa Rita 	9	Septiembre	2023-09-09T00:00:00	2024-11-08T23:00:00	8	Radiación solar	0
116393	7	Sololá	704	Santa Lucía Utatlán 	7	Santa Rita 	9	Septiembre	2023-10-09T00:00:00	2024-11-08T00:00:00	2	Temperatura media	17.1
116394	7	Sololá	704	Santa Lucía Utatlán 	7	Santa Rita 	9	Septiembre	2023-10-09T00:00:00	2024-11-08T00:00:00	4	Temperatura máxima	17.3
116395	7	Sololá	704	Santa Lucía Utatlán 	7	Santa Rita 	9	Septiembre	2023-10-09T00:00:00	2024-11-08T00:00:00	3	Temperatura mínima	17.1
116396	7	Sololá	704	Santa Lucía Utatlán 	7	Santa Rita 	9	Septiembre	2023-10-09T00:00:00	2024-11-08T00:00:00	5	Humedad	91
116397	7	Sololá	704	Santa Lucía Utatlán 	7	Santa Rita 	9	Septiembre	2023-10-09T00:00:00	2024-11-08T00:00:00	6	Velocidad del viento	3.2
116398	7	Sololá	704	Santa Lucía Utatlán 	7	Santa Rita 	9	Septiembre	2023-10-09T00:00:00	2024-11-08T00:00:00	7	Dirección del viento	3.22
116399	7	Sololá	704	Santa Lucía Utatlán 	7	Santa Rita 	9	Septiembre	2023-10-09T00:00:00	2024-11-08T00:00:00	1	Precipitación	0
116400	7	Sololá	704	Santa Lucía Utatlán 	7	Santa Rita 	9	Septiembre	2023-10-09T00:00:00	2024-11-08T00:00:00	8	Radiación solar	0
116401	7	Sololá	704	Santa Lucía Utatlán 	7	Santa Rita 	9	Septiembre	2023-10-09T00:00:00	2024-11-08T01:00:00	2	Temperatura media	17.1
116402	7	Sololá	704	Santa Lucía Utatlán 	7	Santa Rita 	9	Septiembre	2023-10-09T00:00:00	2024-11-08T01:00:00	4	Temperatura máxima	17.1
116403	7	Sololá	704	Santa Lucía Utatlán 	7	Santa Rita 	9	Septiembre	2023-10-09T00:00:00	2024-11-08T01:00:00	3	Temperatura mínima	16.8
116404	7	Sololá	704	Santa Lucía Utatlán 	7	Santa Rita 	9	Septiembre	2023-10-09T00:00:00	2024-11-08T01:00:00	5	Humedad	92
116405	7	Sololá	704	Santa Lucía Utatlán 	7	Santa Rita 	9	Septiembre	2023-10-09T00:00:00	2024-11-08T01:00:00	6	Velocidad del viento	1.6
116406	7	Sololá	704	Santa Lucía Utatlán 	7	Santa Rita 	9	Septiembre	2023-10-09T00:00:00	2024-11-08T01:00:00	7	Dirección del viento	1.61
116407	7	Sololá	704	Santa Lucía Utatlán 	7	Santa Rita 	9	Septiembre	2023-10-09T00:00:00	2024-11-08T01:00:00	1	Precipitación	0
116408	7	Sololá	704	Santa Lucía Utatlán 	7	Santa Rita 	9	Septiembre	2023-10-09T00:00:00	2024-11-08T01:00:00	8	Radiación solar	0
116409	7	Sololá	704	Santa Lucía Utatlán 	7	Santa Rita 	9	Septiembre	2023-10-09T00:00:00	2024-11-08T02:00:00	2	Temperatura media	17.9
116410	7	Sololá	704	Santa Lucía Utatlán 	7	Santa Rita 	9	Septiembre	2023-10-09T00:00:00	2024-11-08T02:00:00	4	Temperatura máxima	18
116411	7	Sololá	704	Santa Lucía Utatlán 	7	Santa Rita 	9	Septiembre	2023-10-09T00:00:00	2024-11-08T02:00:00	3	Temperatura mínima	17.1
116412	7	Sololá	704	Santa Lucía Utatlán 	7	Santa Rita 	9	Septiembre	2023-10-09T00:00:00	2024-11-08T02:00:00	5	Humedad	93
116413	7	Sololá	704	Santa Lucía Utatlán 	7	Santa Rita 	9	Septiembre	2023-10-09T00:00:00	2024-11-08T02:00:00	6	Velocidad del viento	1.6
116414	7	Sololá	704	Santa Lucía Utatlán 	7	Santa Rita 	9	Septiembre	2023-10-09T00:00:00	2024-11-08T02:00:00	7	Dirección del viento	1.61
116415	7	Sololá	704	Santa Lucía Utatlán 	7	Santa Rita 	9	Septiembre	2023-10-09T00:00:00	2024-11-08T02:00:00	1	Precipitación	0
116416	7	Sololá	704	Santa Lucía Utatlán 	7	Santa Rita 	9	Septiembre	2023-10-09T00:00:00	2024-11-08T02:00:00	8	Radiación solar	0
116417	7	Sololá	704	Santa Lucía Utatlán 	7	Santa Rita 	9	Septiembre	2023-10-09T00:00:00	2024-11-08T03:00:00	2	Temperatura media	19.1
116418	7	Sololá	704	Santa Lucía Utatlán 	7	Santa Rita 	9	Septiembre	2023-10-09T00:00:00	2024-11-08T03:00:00	4	Temperatura máxima	19.1
116419	7	Sololá	704	Santa Lucía Utatlán 	7	Santa Rita 	9	Septiembre	2023-10-09T00:00:00	2024-11-08T03:00:00	3	Temperatura mínima	17.9
116420	7	Sololá	704	Santa Lucía Utatlán 	7	Santa Rita 	9	Septiembre	2023-10-09T00:00:00	2024-11-08T03:00:00	5	Humedad	91
116421	7	Sololá	704	Santa Lucía Utatlán 	7	Santa Rita 	9	Septiembre	2023-10-09T00:00:00	2024-11-08T03:00:00	6	Velocidad del viento	1.6
116422	7	Sololá	704	Santa Lucía Utatlán 	7	Santa Rita 	9	Septiembre	2023-10-09T00:00:00	2024-11-08T03:00:00	7	Dirección del viento	1.61
116423	7	Sololá	704	Santa Lucía Utatlán 	7	Santa Rita 	9	Septiembre	2023-10-09T00:00:00	2024-11-08T03:00:00	1	Precipitación	0
116424	7	Sololá	704	Santa Lucía Utatlán 	7	Santa Rita 	9	Septiembre	2023-10-09T00:00:00	2024-11-08T03:00:00	8	Radiación solar	0
116425	7	Sololá	704	Santa Lucía Utatlán 	7	Santa Rita 	9	Septiembre	2023-10-09T00:00:00	2024-11-08T04:00:00	2	Temperatura media	20.6
116426	7	Sololá	704	Santa Lucía Utatlán 	7	Santa Rita 	9	Septiembre	2023-10-09T00:00:00	2024-11-08T04:00:00	4	Temperatura máxima	20.6
116427	7	Sololá	704	Santa Lucía Utatlán 	7	Santa Rita 	9	Septiembre	2023-10-09T00:00:00	2024-11-08T04:00:00	3	Temperatura mínima	19.1
116428	7	Sololá	704	Santa Lucía Utatlán 	7	Santa Rita 	9	Septiembre	2023-10-09T00:00:00	2024-11-08T04:00:00	5	Humedad	83
116429	7	Sololá	704	Santa Lucía Utatlán 	7	Santa Rita 	9	Septiembre	2023-10-09T00:00:00	2024-11-08T04:00:00	6	Velocidad del viento	1.6
116430	7	Sololá	704	Santa Lucía Utatlán 	7	Santa Rita 	9	Septiembre	2023-10-09T00:00:00	2024-11-08T04:00:00	7	Dirección del viento	1.61
116431	7	Sololá	704	Santa Lucía Utatlán 	7	Santa Rita 	9	Septiembre	2023-10-09T00:00:00	2024-11-08T04:00:00	1	Precipitación	0
116432	7	Sololá	704	Santa Lucía Utatlán 	7	Santa Rita 	9	Septiembre	2023-10-09T00:00:00	2024-11-08T04:00:00	8	Radiación solar	0
116433	7	Sololá	704	Santa Lucía Utatlán 	7	Santa Rita 	9	Septiembre	2023-10-09T00:00:00	2024-11-08T05:00:00	2	Temperatura media	22.5
116434	7	Sololá	704	Santa Lucía Utatlán 	7	Santa Rita 	9	Septiembre	2023-10-09T00:00:00	2024-11-08T05:00:00	4	Temperatura máxima	22.5
116435	7	Sololá	704	Santa Lucía Utatlán 	7	Santa Rita 	9	Septiembre	2023-10-09T00:00:00	2024-11-08T05:00:00	3	Temperatura mínima	20.6
116436	7	Sololá	704	Santa Lucía Utatlán 	7	Santa Rita 	9	Septiembre	2023-10-09T00:00:00	2024-11-08T05:00:00	5	Humedad	77
116437	7	Sololá	704	Santa Lucía Utatlán 	7	Santa Rita 	9	Septiembre	2023-10-09T00:00:00	2024-11-08T05:00:00	6	Velocidad del viento	1.6
116438	7	Sololá	704	Santa Lucía Utatlán 	7	Santa Rita 	9	Septiembre	2023-10-09T00:00:00	2024-11-08T05:00:00	7	Dirección del viento	1.61
116439	7	Sololá	704	Santa Lucía Utatlán 	7	Santa Rita 	9	Septiembre	2023-10-09T00:00:00	2024-11-08T05:00:00	1	Precipitación	0
116440	7	Sololá	704	Santa Lucía Utatlán 	7	Santa Rita 	9	Septiembre	2023-10-09T00:00:00	2024-11-08T05:00:00	8	Radiación solar	0
116441	7	Sololá	704	Santa Lucía Utatlán 	7	Santa Rita 	9	Septiembre	2023-10-09T00:00:00	2024-11-08T06:00:00	2	Temperatura media	24.5
116442	7	Sololá	704	Santa Lucía Utatlán 	7	Santa Rita 	9	Septiembre	2023-10-09T00:00:00	2024-11-08T06:00:00	4	Temperatura máxima	24.5
116443	7	Sololá	704	Santa Lucía Utatlán 	7	Santa Rita 	9	Septiembre	2023-10-09T00:00:00	2024-11-08T06:00:00	3	Temperatura mínima	22.5
116444	7	Sololá	704	Santa Lucía Utatlán 	7	Santa Rita 	9	Septiembre	2023-10-09T00:00:00	2024-11-08T06:00:00	5	Humedad	62
116445	7	Sololá	704	Santa Lucía Utatlán 	7	Santa Rita 	9	Septiembre	2023-10-09T00:00:00	2024-11-08T06:00:00	6	Velocidad del viento	4.8
116446	7	Sololá	704	Santa Lucía Utatlán 	7	Santa Rita 	9	Septiembre	2023-10-09T00:00:00	2024-11-08T06:00:00	7	Dirección del viento	4.83
116447	7	Sololá	704	Santa Lucía Utatlán 	7	Santa Rita 	9	Septiembre	2023-10-09T00:00:00	2024-11-08T06:00:00	1	Precipitación	0
116448	7	Sololá	704	Santa Lucía Utatlán 	7	Santa Rita 	9	Septiembre	2023-10-09T00:00:00	2024-11-08T06:00:00	8	Radiación solar	0
116449	7	Sololá	704	Santa Lucía Utatlán 	7	Santa Rita 	9	Septiembre	2023-10-09T00:00:00	2024-11-08T07:00:00	2	Temperatura media	24.9
116450	7	Sololá	704	Santa Lucía Utatlán 	7	Santa Rita 	9	Septiembre	2023-10-09T00:00:00	2024-11-08T07:00:00	4	Temperatura máxima	25.3
116451	7	Sololá	704	Santa Lucía Utatlán 	7	Santa Rita 	9	Septiembre	2023-10-09T00:00:00	2024-11-08T07:00:00	3	Temperatura mínima	24.4
116452	7	Sololá	704	Santa Lucía Utatlán 	7	Santa Rita 	9	Septiembre	2023-10-09T00:00:00	2024-11-08T07:00:00	5	Humedad	70
116453	7	Sololá	704	Santa Lucía Utatlán 	7	Santa Rita 	9	Septiembre	2023-10-09T00:00:00	2024-11-08T07:00:00	6	Velocidad del viento	8
116454	7	Sololá	704	Santa Lucía Utatlán 	7	Santa Rita 	9	Septiembre	2023-10-09T00:00:00	2024-11-08T07:00:00	7	Dirección del viento	8.05
116455	7	Sololá	704	Santa Lucía Utatlán 	7	Santa Rita 	9	Septiembre	2023-10-09T00:00:00	2024-11-08T07:00:00	1	Precipitación	0
116456	7	Sololá	704	Santa Lucía Utatlán 	7	Santa Rita 	9	Septiembre	2023-10-09T00:00:00	2024-11-08T07:00:00	8	Radiación solar	39
116457	7	Sololá	704	Santa Lucía Utatlán 	7	Santa Rita 	9	Septiembre	2023-10-09T00:00:00	2024-11-08T08:00:00	2	Temperatura media	25
116458	7	Sololá	704	Santa Lucía Utatlán 	7	Santa Rita 	9	Septiembre	2023-10-09T00:00:00	2024-11-08T08:00:00	4	Temperatura máxima	25.7
116459	7	Sololá	704	Santa Lucía Utatlán 	7	Santa Rita 	9	Septiembre	2023-10-09T00:00:00	2024-11-08T08:00:00	3	Temperatura mínima	24.9
116460	7	Sololá	704	Santa Lucía Utatlán 	7	Santa Rita 	9	Septiembre	2023-10-09T00:00:00	2024-11-08T08:00:00	5	Humedad	69
116461	7	Sololá	704	Santa Lucía Utatlán 	7	Santa Rita 	9	Septiembre	2023-10-09T00:00:00	2024-11-08T08:00:00	6	Velocidad del viento	11.3
116462	7	Sololá	704	Santa Lucía Utatlán 	7	Santa Rita 	9	Septiembre	2023-10-09T00:00:00	2024-11-08T08:00:00	7	Dirección del viento	11.27
116463	7	Sololá	704	Santa Lucía Utatlán 	7	Santa Rita 	9	Septiembre	2023-10-09T00:00:00	2024-11-08T08:00:00	1	Precipitación	0
116464	7	Sololá	704	Santa Lucía Utatlán 	7	Santa Rita 	9	Septiembre	2023-10-09T00:00:00	2024-11-08T08:00:00	8	Radiación solar	136
116465	7	Sololá	704	Santa Lucía Utatlán 	7	Santa Rita 	9	Septiembre	2023-10-09T00:00:00	2024-11-08T09:00:00	2	Temperatura media	25.7
116466	7	Sololá	704	Santa Lucía Utatlán 	7	Santa Rita 	9	Septiembre	2023-10-09T00:00:00	2024-11-08T09:00:00	4	Temperatura máxima	25.7
116467	7	Sololá	704	Santa Lucía Utatlán 	7	Santa Rita 	9	Septiembre	2023-10-09T00:00:00	2024-11-08T09:00:00	3	Temperatura mínima	23.9
116468	7	Sololá	704	Santa Lucía Utatlán 	7	Santa Rita 	9	Septiembre	2023-10-09T00:00:00	2024-11-08T09:00:00	5	Humedad	60
116469	7	Sololá	704	Santa Lucía Utatlán 	7	Santa Rita 	9	Septiembre	2023-10-09T00:00:00	2024-11-08T09:00:00	6	Velocidad del viento	9.7
116470	7	Sololá	704	Santa Lucía Utatlán 	7	Santa Rita 	9	Septiembre	2023-10-09T00:00:00	2024-11-08T09:00:00	7	Dirección del viento	9.66
116471	7	Sololá	704	Santa Lucía Utatlán 	7	Santa Rita 	9	Septiembre	2023-10-09T00:00:00	2024-11-08T09:00:00	1	Precipitación	0
116472	7	Sololá	704	Santa Lucía Utatlán 	7	Santa Rita 	9	Septiembre	2023-10-09T00:00:00	2024-11-08T09:00:00	8	Radiación solar	238
116473	7	Sololá	704	Santa Lucía Utatlán 	7	Santa Rita 	9	Septiembre	2023-10-09T00:00:00	2024-11-08T10:00:00	2	Temperatura media	24.7
116474	7	Sololá	704	Santa Lucía Utatlán 	7	Santa Rita 	9	Septiembre	2023-10-09T00:00:00	2024-11-08T10:00:00	4	Temperatura máxima	25.7
116475	7	Sololá	704	Santa Lucía Utatlán 	7	Santa Rita 	9	Septiembre	2023-10-09T00:00:00	2024-11-08T10:00:00	3	Temperatura mínima	24.7
116476	7	Sololá	704	Santa Lucía Utatlán 	7	Santa Rita 	9	Septiembre	2023-10-09T00:00:00	2024-11-08T10:00:00	5	Humedad	71
116477	7	Sololá	704	Santa Lucía Utatlán 	7	Santa Rita 	9	Septiembre	2023-10-09T00:00:00	2024-11-08T10:00:00	6	Velocidad del viento	11.3
116478	7	Sololá	704	Santa Lucía Utatlán 	7	Santa Rita 	9	Septiembre	2023-10-09T00:00:00	2024-11-08T10:00:00	7	Dirección del viento	11.27
116479	7	Sololá	704	Santa Lucía Utatlán 	7	Santa Rita 	9	Septiembre	2023-10-09T00:00:00	2024-11-08T10:00:00	1	Precipitación	0
116480	7	Sololá	704	Santa Lucía Utatlán 	7	Santa Rita 	9	Septiembre	2023-10-09T00:00:00	2024-11-08T10:00:00	8	Radiación solar	415
116481	7	Sololá	704	Santa Lucía Utatlán 	7	Santa Rita 	9	Septiembre	2023-10-09T00:00:00	2024-11-08T11:00:00	2	Temperatura media	23.1
116482	7	Sololá	704	Santa Lucía Utatlán 	7	Santa Rita 	9	Septiembre	2023-10-09T00:00:00	2024-11-08T11:00:00	4	Temperatura máxima	24.7
116483	7	Sololá	704	Santa Lucía Utatlán 	7	Santa Rita 	9	Septiembre	2023-10-09T00:00:00	2024-11-08T11:00:00	3	Temperatura mínima	23.1
116484	7	Sololá	704	Santa Lucía Utatlán 	7	Santa Rita 	9	Septiembre	2023-10-09T00:00:00	2024-11-08T11:00:00	5	Humedad	80
116485	7	Sololá	704	Santa Lucía Utatlán 	7	Santa Rita 	9	Septiembre	2023-10-09T00:00:00	2024-11-08T11:00:00	6	Velocidad del viento	9.7
116486	7	Sololá	704	Santa Lucía Utatlán 	7	Santa Rita 	9	Septiembre	2023-10-09T00:00:00	2024-11-08T11:00:00	7	Dirección del viento	9.66
116487	7	Sololá	704	Santa Lucía Utatlán 	7	Santa Rita 	9	Septiembre	2023-10-09T00:00:00	2024-11-08T11:00:00	1	Precipitación	0
116488	7	Sololá	704	Santa Lucía Utatlán 	7	Santa Rita 	9	Septiembre	2023-10-09T00:00:00	2024-11-08T11:00:00	8	Radiación solar	796
116489	7	Sololá	704	Santa Lucía Utatlán 	7	Santa Rita 	9	Septiembre	2023-10-09T00:00:00	2024-11-08T12:00:00	2	Temperatura media	21.9
116490	7	Sololá	704	Santa Lucía Utatlán 	7	Santa Rita 	9	Septiembre	2023-10-09T00:00:00	2024-11-08T12:00:00	4	Temperatura máxima	23.1
116491	7	Sololá	704	Santa Lucía Utatlán 	7	Santa Rita 	9	Septiembre	2023-10-09T00:00:00	2024-11-08T12:00:00	3	Temperatura mínima	21.9
116492	7	Sololá	704	Santa Lucía Utatlán 	7	Santa Rita 	9	Septiembre	2023-10-09T00:00:00	2024-11-08T12:00:00	5	Humedad	87
116493	7	Sololá	704	Santa Lucía Utatlán 	7	Santa Rita 	9	Septiembre	2023-10-09T00:00:00	2024-11-08T12:00:00	6	Velocidad del viento	4.8
116494	7	Sololá	704	Santa Lucía Utatlán 	7	Santa Rita 	9	Septiembre	2023-10-09T00:00:00	2024-11-08T12:00:00	7	Dirección del viento	4.83
116495	7	Sololá	704	Santa Lucía Utatlán 	7	Santa Rita 	9	Septiembre	2023-10-09T00:00:00	2024-11-08T12:00:00	1	Precipitación	0
116496	7	Sololá	704	Santa Lucía Utatlán 	7	Santa Rita 	9	Septiembre	2023-10-09T00:00:00	2024-11-08T12:00:00	8	Radiación solar	982
116497	7	Sololá	704	Santa Lucía Utatlán 	7	Santa Rita 	9	Septiembre	2023-10-09T00:00:00	2024-11-08T13:00:00	2	Temperatura media	21.3
116498	7	Sololá	704	Santa Lucía Utatlán 	7	Santa Rita 	9	Septiembre	2023-10-09T00:00:00	2024-11-08T13:00:00	4	Temperatura máxima	21.9
116499	7	Sololá	704	Santa Lucía Utatlán 	7	Santa Rita 	9	Septiembre	2023-10-09T00:00:00	2024-11-08T13:00:00	3	Temperatura mínima	21.3
116500	7	Sololá	704	Santa Lucía Utatlán 	7	Santa Rita 	9	Septiembre	2023-10-09T00:00:00	2024-11-08T13:00:00	5	Humedad	91
116501	7	Sololá	704	Santa Lucía Utatlán 	7	Santa Rita 	9	Septiembre	2023-10-09T00:00:00	2024-11-08T13:00:00	6	Velocidad del viento	1.6
116502	7	Sololá	704	Santa Lucía Utatlán 	7	Santa Rita 	9	Septiembre	2023-10-09T00:00:00	2024-11-08T13:00:00	7	Dirección del viento	1.61
116503	7	Sololá	704	Santa Lucía Utatlán 	7	Santa Rita 	9	Septiembre	2023-10-09T00:00:00	2024-11-08T13:00:00	1	Precipitación	0
116504	7	Sololá	704	Santa Lucía Utatlán 	7	Santa Rita 	9	Septiembre	2023-10-09T00:00:00	2024-11-08T13:00:00	8	Radiación solar	1066
116505	7	Sololá	704	Santa Lucía Utatlán 	7	Santa Rita 	9	Septiembre	2023-10-09T00:00:00	2024-11-08T14:00:00	2	Temperatura media	20.6
116506	7	Sololá	704	Santa Lucía Utatlán 	7	Santa Rita 	9	Septiembre	2023-10-09T00:00:00	2024-11-08T14:00:00	4	Temperatura máxima	21.3
116507	7	Sololá	704	Santa Lucía Utatlán 	7	Santa Rita 	9	Septiembre	2023-10-09T00:00:00	2024-11-08T14:00:00	3	Temperatura mínima	20.6
116508	7	Sololá	704	Santa Lucía Utatlán 	7	Santa Rita 	9	Septiembre	2023-10-09T00:00:00	2024-11-08T14:00:00	5	Humedad	93
116509	7	Sololá	704	Santa Lucía Utatlán 	7	Santa Rita 	9	Septiembre	2023-10-09T00:00:00	2024-11-08T14:00:00	6	Velocidad del viento	1.6
116510	7	Sololá	704	Santa Lucía Utatlán 	7	Santa Rita 	9	Septiembre	2023-10-09T00:00:00	2024-11-08T14:00:00	7	Dirección del viento	1.61
116511	7	Sololá	704	Santa Lucía Utatlán 	7	Santa Rita 	9	Septiembre	2023-10-09T00:00:00	2024-11-08T14:00:00	1	Precipitación	0.2
116512	7	Sololá	704	Santa Lucía Utatlán 	7	Santa Rita 	9	Septiembre	2023-10-09T00:00:00	2024-11-08T14:00:00	8	Radiación solar	588
116513	7	Sololá	704	Santa Lucía Utatlán 	7	Santa Rita 	9	Septiembre	2023-10-09T00:00:00	2024-11-08T15:00:00	2	Temperatura media	19.6
116514	7	Sololá	704	Santa Lucía Utatlán 	7	Santa Rita 	9	Septiembre	2023-10-09T00:00:00	2024-11-08T15:00:00	4	Temperatura máxima	20.7
116515	7	Sololá	704	Santa Lucía Utatlán 	7	Santa Rita 	9	Septiembre	2023-10-09T00:00:00	2024-11-08T15:00:00	3	Temperatura mínima	19.6
116516	7	Sololá	704	Santa Lucía Utatlán 	7	Santa Rita 	9	Septiembre	2023-10-09T00:00:00	2024-11-08T15:00:00	5	Humedad	94
116517	7	Sololá	704	Santa Lucía Utatlán 	7	Santa Rita 	9	Septiembre	2023-10-09T00:00:00	2024-11-08T15:00:00	6	Velocidad del viento	1.6
116518	7	Sololá	704	Santa Lucía Utatlán 	7	Santa Rita 	9	Septiembre	2023-10-09T00:00:00	2024-11-08T15:00:00	7	Dirección del viento	1.61
116519	7	Sololá	704	Santa Lucía Utatlán 	7	Santa Rita 	9	Septiembre	2023-10-09T00:00:00	2024-11-08T15:00:00	1	Precipitación	4.8
116520	7	Sololá	704	Santa Lucía Utatlán 	7	Santa Rita 	9	Septiembre	2023-10-09T00:00:00	2024-11-08T15:00:00	8	Radiación solar	730
116521	7	Sololá	704	Santa Lucía Utatlán 	7	Santa Rita 	9	Septiembre	2023-10-09T00:00:00	2024-11-08T16:00:00	2	Temperatura media	18.9
116522	7	Sololá	704	Santa Lucía Utatlán 	7	Santa Rita 	9	Septiembre	2023-10-09T00:00:00	2024-11-08T16:00:00	4	Temperatura máxima	19.6
116523	7	Sololá	704	Santa Lucía Utatlán 	7	Santa Rita 	9	Septiembre	2023-10-09T00:00:00	2024-11-08T16:00:00	3	Temperatura mínima	18.9
116524	7	Sololá	704	Santa Lucía Utatlán 	7	Santa Rita 	9	Septiembre	2023-10-09T00:00:00	2024-11-08T16:00:00	5	Humedad	94
116525	7	Sololá	704	Santa Lucía Utatlán 	7	Santa Rita 	9	Septiembre	2023-10-09T00:00:00	2024-11-08T16:00:00	6	Velocidad del viento	1.6
116526	7	Sololá	704	Santa Lucía Utatlán 	7	Santa Rita 	9	Septiembre	2023-10-09T00:00:00	2024-11-08T16:00:00	7	Dirección del viento	1.61
116527	7	Sololá	704	Santa Lucía Utatlán 	7	Santa Rita 	9	Septiembre	2023-10-09T00:00:00	2024-11-08T16:00:00	1	Precipitación	0.2
116528	7	Sololá	704	Santa Lucía Utatlán 	7	Santa Rita 	9	Septiembre	2023-10-09T00:00:00	2024-11-08T16:00:00	8	Radiación solar	293
116529	7	Sololá	704	Santa Lucía Utatlán 	7	Santa Rita 	9	Septiembre	2023-10-09T00:00:00	2024-11-08T17:00:00	2	Temperatura media	18.5
116530	7	Sololá	704	Santa Lucía Utatlán 	7	Santa Rita 	9	Septiembre	2023-10-09T00:00:00	2024-11-08T17:00:00	4	Temperatura máxima	18.9
116531	7	Sololá	704	Santa Lucía Utatlán 	7	Santa Rita 	9	Septiembre	2023-10-09T00:00:00	2024-11-08T17:00:00	3	Temperatura mínima	18.4
116532	7	Sololá	704	Santa Lucía Utatlán 	7	Santa Rita 	9	Septiembre	2023-10-09T00:00:00	2024-11-08T17:00:00	5	Humedad	94
116533	7	Sololá	704	Santa Lucía Utatlán 	7	Santa Rita 	9	Septiembre	2023-10-09T00:00:00	2024-11-08T17:00:00	6	Velocidad del viento	3.2
116534	7	Sololá	704	Santa Lucía Utatlán 	7	Santa Rita 	9	Septiembre	2023-10-09T00:00:00	2024-11-08T17:00:00	7	Dirección del viento	3.22
116535	7	Sololá	704	Santa Lucía Utatlán 	7	Santa Rita 	9	Septiembre	2023-10-09T00:00:00	2024-11-08T17:00:00	1	Precipitación	0
116536	7	Sololá	704	Santa Lucía Utatlán 	7	Santa Rita 	9	Septiembre	2023-10-09T00:00:00	2024-11-08T17:00:00	8	Radiación solar	77
116537	7	Sololá	704	Santa Lucía Utatlán 	7	Santa Rita 	9	Septiembre	2023-10-09T00:00:00	2024-11-08T18:00:00	2	Temperatura media	18.4
116538	7	Sololá	704	Santa Lucía Utatlán 	7	Santa Rita 	9	Septiembre	2023-10-09T00:00:00	2024-11-08T18:00:00	4	Temperatura máxima	18.6
116539	7	Sololá	704	Santa Lucía Utatlán 	7	Santa Rita 	9	Septiembre	2023-10-09T00:00:00	2024-11-08T18:00:00	3	Temperatura mínima	18.4
116540	7	Sololá	704	Santa Lucía Utatlán 	7	Santa Rita 	9	Septiembre	2023-10-09T00:00:00	2024-11-08T18:00:00	5	Humedad	95
116541	7	Sololá	704	Santa Lucía Utatlán 	7	Santa Rita 	9	Septiembre	2023-10-09T00:00:00	2024-11-08T18:00:00	6	Velocidad del viento	1.6
116542	7	Sololá	704	Santa Lucía Utatlán 	7	Santa Rita 	9	Septiembre	2023-10-09T00:00:00	2024-11-08T18:00:00	7	Dirección del viento	1.61
116543	7	Sololá	704	Santa Lucía Utatlán 	7	Santa Rita 	9	Septiembre	2023-10-09T00:00:00	2024-11-08T18:00:00	1	Precipitación	0
116544	7	Sololá	704	Santa Lucía Utatlán 	7	Santa Rita 	9	Septiembre	2023-10-09T00:00:00	2024-11-08T18:00:00	8	Radiación solar	36
116545	7	Sololá	704	Santa Lucía Utatlán 	7	Santa Rita 	9	Septiembre	2023-10-09T00:00:00	2024-11-08T19:00:00	2	Temperatura media	17.6
116546	7	Sololá	704	Santa Lucía Utatlán 	7	Santa Rita 	9	Septiembre	2023-10-09T00:00:00	2024-11-08T19:00:00	4	Temperatura máxima	18.4
116547	7	Sololá	704	Santa Lucía Utatlán 	7	Santa Rita 	9	Septiembre	2023-10-09T00:00:00	2024-11-08T19:00:00	3	Temperatura mínima	17.5
116548	7	Sololá	704	Santa Lucía Utatlán 	7	Santa Rita 	9	Septiembre	2023-10-09T00:00:00	2024-11-08T19:00:00	5	Humedad	94
116549	7	Sololá	704	Santa Lucía Utatlán 	7	Santa Rita 	9	Septiembre	2023-10-09T00:00:00	2024-11-08T19:00:00	6	Velocidad del viento	1.6
116550	7	Sololá	704	Santa Lucía Utatlán 	7	Santa Rita 	9	Septiembre	2023-10-09T00:00:00	2024-11-08T19:00:00	7	Dirección del viento	1.61
116551	7	Sololá	704	Santa Lucía Utatlán 	7	Santa Rita 	9	Septiembre	2023-10-09T00:00:00	2024-11-08T19:00:00	1	Precipitación	0
116552	7	Sololá	704	Santa Lucía Utatlán 	7	Santa Rita 	9	Septiembre	2023-10-09T00:00:00	2024-11-08T19:00:00	8	Radiación solar	0
116553	7	Sololá	704	Santa Lucía Utatlán 	7	Santa Rita 	9	Septiembre	2023-10-09T00:00:00	2024-11-08T20:00:00	2	Temperatura media	17
116554	7	Sololá	704	Santa Lucía Utatlán 	7	Santa Rita 	9	Septiembre	2023-10-09T00:00:00	2024-11-08T20:00:00	4	Temperatura máxima	17.6
116555	7	Sololá	704	Santa Lucía Utatlán 	7	Santa Rita 	9	Septiembre	2023-10-09T00:00:00	2024-11-08T20:00:00	3	Temperatura mínima	16.9
116556	7	Sololá	704	Santa Lucía Utatlán 	7	Santa Rita 	9	Septiembre	2023-10-09T00:00:00	2024-11-08T20:00:00	5	Humedad	94
116557	7	Sololá	704	Santa Lucía Utatlán 	7	Santa Rita 	9	Septiembre	2023-10-09T00:00:00	2024-11-08T20:00:00	6	Velocidad del viento	3.2
116558	7	Sololá	704	Santa Lucía Utatlán 	7	Santa Rita 	9	Septiembre	2023-10-09T00:00:00	2024-11-08T20:00:00	7	Dirección del viento	3.22
116559	7	Sololá	704	Santa Lucía Utatlán 	7	Santa Rita 	9	Septiembre	2023-10-09T00:00:00	2024-11-08T20:00:00	1	Precipitación	0
116560	7	Sololá	704	Santa Lucía Utatlán 	7	Santa Rita 	9	Septiembre	2023-10-09T00:00:00	2024-11-08T20:00:00	8	Radiación solar	0
116561	7	Sololá	704	Santa Lucía Utatlán 	7	Santa Rita 	9	Septiembre	2023-10-09T00:00:00	2024-11-08T21:00:00	2	Temperatura media	16.7
116562	7	Sololá	704	Santa Lucía Utatlán 	7	Santa Rita 	9	Septiembre	2023-10-09T00:00:00	2024-11-08T21:00:00	4	Temperatura máxima	17
116563	7	Sololá	704	Santa Lucía Utatlán 	7	Santa Rita 	9	Septiembre	2023-10-09T00:00:00	2024-11-08T21:00:00	3	Temperatura mínima	16.6
116564	7	Sololá	704	Santa Lucía Utatlán 	7	Santa Rita 	9	Septiembre	2023-10-09T00:00:00	2024-11-08T21:00:00	5	Humedad	95
116565	7	Sololá	704	Santa Lucía Utatlán 	7	Santa Rita 	9	Septiembre	2023-10-09T00:00:00	2024-11-08T21:00:00	6	Velocidad del viento	1.6
116566	7	Sololá	704	Santa Lucía Utatlán 	7	Santa Rita 	9	Septiembre	2023-10-09T00:00:00	2024-11-08T21:00:00	7	Dirección del viento	1.61
116567	7	Sololá	704	Santa Lucía Utatlán 	7	Santa Rita 	9	Septiembre	2023-10-09T00:00:00	2024-11-08T21:00:00	1	Precipitación	0
116568	7	Sololá	704	Santa Lucía Utatlán 	7	Santa Rita 	9	Septiembre	2023-10-09T00:00:00	2024-11-08T21:00:00	8	Radiación solar	0
116569	7	Sololá	704	Santa Lucía Utatlán 	7	Santa Rita 	9	Septiembre	2023-10-09T00:00:00	2024-11-08T22:00:00	2	Temperatura media	16.3
116570	7	Sololá	704	Santa Lucía Utatlán 	7	Santa Rita 	9	Septiembre	2023-10-09T00:00:00	2024-11-08T22:00:00	4	Temperatura máxima	16.7
116571	7	Sololá	704	Santa Lucía Utatlán 	7	Santa Rita 	9	Septiembre	2023-10-09T00:00:00	2024-11-08T22:00:00	3	Temperatura mínima	16.3
116572	7	Sololá	704	Santa Lucía Utatlán 	7	Santa Rita 	9	Septiembre	2023-10-09T00:00:00	2024-11-08T22:00:00	5	Humedad	95
116573	7	Sololá	704	Santa Lucía Utatlán 	7	Santa Rita 	9	Septiembre	2023-10-09T00:00:00	2024-11-08T22:00:00	6	Velocidad del viento	1.6
116574	7	Sololá	704	Santa Lucía Utatlán 	7	Santa Rita 	9	Septiembre	2023-10-09T00:00:00	2024-11-08T22:00:00	7	Dirección del viento	1.61
116575	7	Sololá	704	Santa Lucía Utatlán 	7	Santa Rita 	9	Septiembre	2023-10-09T00:00:00	2024-11-08T22:00:00	1	Precipitación	0
116576	7	Sololá	704	Santa Lucía Utatlán 	7	Santa Rita 	9	Septiembre	2023-10-09T00:00:00	2024-11-08T22:00:00	8	Radiación solar	0
116577	7	Sololá	704	Santa Lucía Utatlán 	7	Santa Rita 	9	Septiembre	2023-10-09T00:00:00	2024-11-08T23:00:00	2	Temperatura media	17.3
116578	7	Sololá	704	Santa Lucía Utatlán 	7	Santa Rita 	9	Septiembre	2023-10-09T00:00:00	2024-11-08T23:00:00	4	Temperatura máxima	17.3
116579	7	Sololá	704	Santa Lucía Utatlán 	7	Santa Rita 	9	Septiembre	2023-10-09T00:00:00	2024-11-08T23:00:00	3	Temperatura mínima	16.2
116580	7	Sololá	704	Santa Lucía Utatlán 	7	Santa Rita 	9	Septiembre	2023-10-09T00:00:00	2024-11-08T23:00:00	5	Humedad	89
116581	7	Sololá	704	Santa Lucía Utatlán 	7	Santa Rita 	9	Septiembre	2023-10-09T00:00:00	2024-11-08T23:00:00	6	Velocidad del viento	3.2
116582	7	Sololá	704	Santa Lucía Utatlán 	7	Santa Rita 	9	Septiembre	2023-10-09T00:00:00	2024-11-08T23:00:00	7	Dirección del viento	3.22
116583	7	Sololá	704	Santa Lucía Utatlán 	7	Santa Rita 	9	Septiembre	2023-10-09T00:00:00	2024-11-08T23:00:00	1	Precipitación	0
116584	7	Sololá	704	Santa Lucía Utatlán 	7	Santa Rita 	9	Septiembre	2023-10-09T00:00:00	2024-11-08T23:00:00	8	Radiación solar	0
116585	7	Sololá	704	Santa Lucía Utatlán 	7	Santa Rita 	9	Septiembre	2023-11-09T00:00:00	2024-11-08T00:00:00	2	Temperatura media	17
116586	7	Sololá	704	Santa Lucía Utatlán 	7	Santa Rita 	9	Septiembre	2023-11-09T00:00:00	2024-11-08T00:00:00	4	Temperatura máxima	17.3
116587	7	Sololá	704	Santa Lucía Utatlán 	7	Santa Rita 	9	Septiembre	2023-11-09T00:00:00	2024-11-08T00:00:00	3	Temperatura mínima	16.7
116588	7	Sololá	704	Santa Lucía Utatlán 	7	Santa Rita 	9	Septiembre	2023-11-09T00:00:00	2024-11-08T00:00:00	5	Humedad	86
116589	7	Sololá	704	Santa Lucía Utatlán 	7	Santa Rita 	9	Septiembre	2023-11-09T00:00:00	2024-11-08T00:00:00	6	Velocidad del viento	3.2
116590	7	Sololá	704	Santa Lucía Utatlán 	7	Santa Rita 	9	Septiembre	2023-11-09T00:00:00	2024-11-08T00:00:00	7	Dirección del viento	3.22
116591	7	Sololá	704	Santa Lucía Utatlán 	7	Santa Rita 	9	Septiembre	2023-11-09T00:00:00	2024-11-08T00:00:00	1	Precipitación	0
116592	7	Sololá	704	Santa Lucía Utatlán 	7	Santa Rita 	9	Septiembre	2023-11-09T00:00:00	2024-11-08T00:00:00	8	Radiación solar	0
116593	7	Sololá	704	Santa Lucía Utatlán 	7	Santa Rita 	9	Septiembre	2023-11-09T00:00:00	2024-11-08T01:00:00	2	Temperatura media	16.8
116594	7	Sololá	704	Santa Lucía Utatlán 	7	Santa Rita 	9	Septiembre	2023-11-09T00:00:00	2024-11-08T01:00:00	4	Temperatura máxima	17.7
116595	7	Sololá	704	Santa Lucía Utatlán 	7	Santa Rita 	9	Septiembre	2023-11-09T00:00:00	2024-11-08T01:00:00	3	Temperatura mínima	16.8
116596	7	Sololá	704	Santa Lucía Utatlán 	7	Santa Rita 	9	Septiembre	2023-11-09T00:00:00	2024-11-08T01:00:00	5	Humedad	89
116597	7	Sololá	704	Santa Lucía Utatlán 	7	Santa Rita 	9	Septiembre	2023-11-09T00:00:00	2024-11-08T01:00:00	6	Velocidad del viento	3.2
116598	7	Sololá	704	Santa Lucía Utatlán 	7	Santa Rita 	9	Septiembre	2023-11-09T00:00:00	2024-11-08T01:00:00	7	Dirección del viento	3.22
116599	7	Sololá	704	Santa Lucía Utatlán 	7	Santa Rita 	9	Septiembre	2023-11-09T00:00:00	2024-11-08T01:00:00	1	Precipitación	0
116600	7	Sololá	704	Santa Lucía Utatlán 	7	Santa Rita 	9	Septiembre	2023-11-09T00:00:00	2024-11-08T01:00:00	8	Radiación solar	0
116601	7	Sololá	704	Santa Lucía Utatlán 	7	Santa Rita 	9	Septiembre	2023-11-09T00:00:00	2024-11-08T02:00:00	2	Temperatura media	18.5
116602	7	Sololá	704	Santa Lucía Utatlán 	7	Santa Rita 	9	Septiembre	2023-11-09T00:00:00	2024-11-08T02:00:00	4	Temperatura máxima	18.5
116603	7	Sololá	704	Santa Lucía Utatlán 	7	Santa Rita 	9	Septiembre	2023-11-09T00:00:00	2024-11-08T02:00:00	3	Temperatura mínima	16.5
116604	7	Sololá	704	Santa Lucía Utatlán 	7	Santa Rita 	9	Septiembre	2023-11-09T00:00:00	2024-11-08T02:00:00	5	Humedad	92
116605	7	Sololá	704	Santa Lucía Utatlán 	7	Santa Rita 	9	Septiembre	2023-11-09T00:00:00	2024-11-08T02:00:00	6	Velocidad del viento	1.6
116606	7	Sololá	704	Santa Lucía Utatlán 	7	Santa Rita 	9	Septiembre	2023-11-09T00:00:00	2024-11-08T02:00:00	7	Dirección del viento	1.61
116607	7	Sololá	704	Santa Lucía Utatlán 	7	Santa Rita 	9	Septiembre	2023-11-09T00:00:00	2024-11-08T02:00:00	1	Precipitación	0
116608	7	Sololá	704	Santa Lucía Utatlán 	7	Santa Rita 	9	Septiembre	2023-11-09T00:00:00	2024-11-08T02:00:00	8	Radiación solar	0
116609	7	Sololá	704	Santa Lucía Utatlán 	7	Santa Rita 	9	Septiembre	2023-11-09T00:00:00	2024-11-08T03:00:00	2	Temperatura media	19.9
116610	7	Sololá	704	Santa Lucía Utatlán 	7	Santa Rita 	9	Septiembre	2023-11-09T00:00:00	2024-11-08T03:00:00	4	Temperatura máxima	20
116611	7	Sololá	704	Santa Lucía Utatlán 	7	Santa Rita 	9	Septiembre	2023-11-09T00:00:00	2024-11-08T03:00:00	3	Temperatura mínima	18.6
116612	7	Sololá	704	Santa Lucía Utatlán 	7	Santa Rita 	9	Septiembre	2023-11-09T00:00:00	2024-11-08T03:00:00	5	Humedad	87
116613	7	Sololá	704	Santa Lucía Utatlán 	7	Santa Rita 	9	Septiembre	2023-11-09T00:00:00	2024-11-08T03:00:00	6	Velocidad del viento	1.6
116614	7	Sololá	704	Santa Lucía Utatlán 	7	Santa Rita 	9	Septiembre	2023-11-09T00:00:00	2024-11-08T03:00:00	7	Dirección del viento	1.61
116615	7	Sololá	704	Santa Lucía Utatlán 	7	Santa Rita 	9	Septiembre	2023-11-09T00:00:00	2024-11-08T03:00:00	1	Precipitación	0
116616	7	Sololá	704	Santa Lucía Utatlán 	7	Santa Rita 	9	Septiembre	2023-11-09T00:00:00	2024-11-08T03:00:00	8	Radiación solar	0
116617	7	Sololá	704	Santa Lucía Utatlán 	7	Santa Rita 	9	Septiembre	2023-11-09T00:00:00	2024-11-08T04:00:00	2	Temperatura media	22.9
116618	7	Sololá	704	Santa Lucía Utatlán 	7	Santa Rita 	9	Septiembre	2023-11-09T00:00:00	2024-11-08T04:00:00	4	Temperatura máxima	23
116619	7	Sololá	704	Santa Lucía Utatlán 	7	Santa Rita 	9	Septiembre	2023-11-09T00:00:00	2024-11-08T04:00:00	3	Temperatura mínima	20
116620	7	Sololá	704	Santa Lucía Utatlán 	7	Santa Rita 	9	Septiembre	2023-11-09T00:00:00	2024-11-08T04:00:00	5	Humedad	67
116621	7	Sololá	704	Santa Lucía Utatlán 	7	Santa Rita 	9	Septiembre	2023-11-09T00:00:00	2024-11-08T04:00:00	6	Velocidad del viento	3.2
116622	7	Sololá	704	Santa Lucía Utatlán 	7	Santa Rita 	9	Septiembre	2023-11-09T00:00:00	2024-11-08T04:00:00	7	Dirección del viento	3.22
116623	7	Sololá	704	Santa Lucía Utatlán 	7	Santa Rita 	9	Septiembre	2023-11-09T00:00:00	2024-11-08T04:00:00	1	Precipitación	0
116624	7	Sololá	704	Santa Lucía Utatlán 	7	Santa Rita 	9	Septiembre	2023-11-09T00:00:00	2024-11-08T04:00:00	8	Radiación solar	0
116625	7	Sololá	704	Santa Lucía Utatlán 	7	Santa Rita 	9	Septiembre	2023-11-09T00:00:00	2024-11-08T05:00:00	2	Temperatura media	24.1
116626	7	Sololá	704	Santa Lucía Utatlán 	7	Santa Rita 	9	Septiembre	2023-11-09T00:00:00	2024-11-08T05:00:00	4	Temperatura máxima	24.1
116627	7	Sololá	704	Santa Lucía Utatlán 	7	Santa Rita 	9	Septiembre	2023-11-09T00:00:00	2024-11-08T05:00:00	3	Temperatura mínima	22.9
116628	7	Sololá	704	Santa Lucía Utatlán 	7	Santa Rita 	9	Septiembre	2023-11-09T00:00:00	2024-11-08T05:00:00	5	Humedad	64
116629	7	Sololá	704	Santa Lucía Utatlán 	7	Santa Rita 	9	Septiembre	2023-11-09T00:00:00	2024-11-08T05:00:00	6	Velocidad del viento	6.4
116630	7	Sololá	704	Santa Lucía Utatlán 	7	Santa Rita 	9	Septiembre	2023-11-09T00:00:00	2024-11-08T05:00:00	7	Dirección del viento	6.44
116631	7	Sololá	704	Santa Lucía Utatlán 	7	Santa Rita 	9	Septiembre	2023-11-09T00:00:00	2024-11-08T05:00:00	1	Precipitación	0
116632	7	Sololá	704	Santa Lucía Utatlán 	7	Santa Rita 	9	Septiembre	2023-11-09T00:00:00	2024-11-08T05:00:00	8	Radiación solar	0
116633	7	Sololá	704	Santa Lucía Utatlán 	7	Santa Rita 	9	Septiembre	2023-11-09T00:00:00	2024-11-08T06:00:00	2	Temperatura media	24.6
116634	7	Sololá	704	Santa Lucía Utatlán 	7	Santa Rita 	9	Septiembre	2023-11-09T00:00:00	2024-11-08T06:00:00	4	Temperatura máxima	24.9
116635	7	Sololá	704	Santa Lucía Utatlán 	7	Santa Rita 	9	Septiembre	2023-11-09T00:00:00	2024-11-08T06:00:00	3	Temperatura mínima	24.1
116636	7	Sololá	704	Santa Lucía Utatlán 	7	Santa Rita 	9	Septiembre	2023-11-09T00:00:00	2024-11-08T06:00:00	5	Humedad	60
116637	7	Sololá	704	Santa Lucía Utatlán 	7	Santa Rita 	9	Septiembre	2023-11-09T00:00:00	2024-11-08T06:00:00	6	Velocidad del viento	9.7
116638	7	Sololá	704	Santa Lucía Utatlán 	7	Santa Rita 	9	Septiembre	2023-11-09T00:00:00	2024-11-08T06:00:00	7	Dirección del viento	9.66
116639	7	Sololá	704	Santa Lucía Utatlán 	7	Santa Rita 	9	Septiembre	2023-11-09T00:00:00	2024-11-08T06:00:00	1	Precipitación	0
116640	7	Sololá	704	Santa Lucía Utatlán 	7	Santa Rita 	9	Septiembre	2023-11-09T00:00:00	2024-11-08T06:00:00	8	Radiación solar	2
116641	7	Sololá	704	Santa Lucía Utatlán 	7	Santa Rita 	9	Septiembre	2023-11-09T00:00:00	2024-11-08T07:00:00	2	Temperatura media	25.6
116642	7	Sololá	704	Santa Lucía Utatlán 	7	Santa Rita 	9	Septiembre	2023-11-09T00:00:00	2024-11-08T07:00:00	4	Temperatura máxima	25.6
116643	7	Sololá	704	Santa Lucía Utatlán 	7	Santa Rita 	9	Septiembre	2023-11-09T00:00:00	2024-11-08T07:00:00	3	Temperatura mínima	24.5
116644	7	Sololá	704	Santa Lucía Utatlán 	7	Santa Rita 	9	Septiembre	2023-11-09T00:00:00	2024-11-08T07:00:00	5	Humedad	59
116645	7	Sololá	704	Santa Lucía Utatlán 	7	Santa Rita 	9	Septiembre	2023-11-09T00:00:00	2024-11-08T07:00:00	6	Velocidad del viento	9.7
116646	7	Sololá	704	Santa Lucía Utatlán 	7	Santa Rita 	9	Septiembre	2023-11-09T00:00:00	2024-11-08T07:00:00	7	Dirección del viento	9.66
116647	7	Sololá	704	Santa Lucía Utatlán 	7	Santa Rita 	9	Septiembre	2023-11-09T00:00:00	2024-11-08T07:00:00	1	Precipitación	0
116648	7	Sololá	704	Santa Lucía Utatlán 	7	Santa Rita 	9	Septiembre	2023-11-09T00:00:00	2024-11-08T07:00:00	8	Radiación solar	94
116649	7	Sololá	704	Santa Lucía Utatlán 	7	Santa Rita 	9	Septiembre	2023-11-09T00:00:00	2024-11-08T08:00:00	2	Temperatura media	24.8
116650	7	Sololá	704	Santa Lucía Utatlán 	7	Santa Rita 	9	Septiembre	2023-11-09T00:00:00	2024-11-08T08:00:00	4	Temperatura máxima	25.7
116651	7	Sololá	704	Santa Lucía Utatlán 	7	Santa Rita 	9	Septiembre	2023-11-09T00:00:00	2024-11-08T08:00:00	3	Temperatura mínima	24.2
116652	7	Sololá	704	Santa Lucía Utatlán 	7	Santa Rita 	9	Septiembre	2023-11-09T00:00:00	2024-11-08T08:00:00	5	Humedad	67
116653	7	Sololá	704	Santa Lucía Utatlán 	7	Santa Rita 	9	Septiembre	2023-11-09T00:00:00	2024-11-08T08:00:00	6	Velocidad del viento	9.7
116654	7	Sololá	704	Santa Lucía Utatlán 	7	Santa Rita 	9	Septiembre	2023-11-09T00:00:00	2024-11-08T08:00:00	7	Dirección del viento	9.66
116655	7	Sololá	704	Santa Lucía Utatlán 	7	Santa Rita 	9	Septiembre	2023-11-09T00:00:00	2024-11-08T08:00:00	1	Precipitación	0
116656	7	Sololá	704	Santa Lucía Utatlán 	7	Santa Rita 	9	Septiembre	2023-11-09T00:00:00	2024-11-08T08:00:00	8	Radiación solar	233
116657	7	Sololá	704	Santa Lucía Utatlán 	7	Santa Rita 	9	Septiembre	2023-11-09T00:00:00	2024-11-08T09:00:00	2	Temperatura media	25.8
116658	7	Sololá	704	Santa Lucía Utatlán 	7	Santa Rita 	9	Septiembre	2023-11-09T00:00:00	2024-11-08T09:00:00	4	Temperatura máxima	25.8
116659	7	Sololá	704	Santa Lucía Utatlán 	7	Santa Rita 	9	Septiembre	2023-11-09T00:00:00	2024-11-08T09:00:00	3	Temperatura mínima	23.9
116660	7	Sololá	704	Santa Lucía Utatlán 	7	Santa Rita 	9	Septiembre	2023-11-09T00:00:00	2024-11-08T09:00:00	5	Humedad	63
116661	7	Sololá	704	Santa Lucía Utatlán 	7	Santa Rita 	9	Septiembre	2023-11-09T00:00:00	2024-11-08T09:00:00	6	Velocidad del viento	11.3
116662	7	Sololá	704	Santa Lucía Utatlán 	7	Santa Rita 	9	Septiembre	2023-11-09T00:00:00	2024-11-08T09:00:00	7	Dirección del viento	11.27
116663	7	Sololá	704	Santa Lucía Utatlán 	7	Santa Rita 	9	Septiembre	2023-11-09T00:00:00	2024-11-08T09:00:00	1	Precipitación	0
116664	7	Sololá	704	Santa Lucía Utatlán 	7	Santa Rita 	9	Septiembre	2023-11-09T00:00:00	2024-11-08T09:00:00	8	Radiación solar	584
116665	7	Sololá	704	Santa Lucía Utatlán 	7	Santa Rita 	9	Septiembre	2023-11-09T00:00:00	2024-11-08T10:00:00	2	Temperatura media	24.1
116666	7	Sololá	704	Santa Lucía Utatlán 	7	Santa Rita 	9	Septiembre	2023-11-09T00:00:00	2024-11-08T10:00:00	4	Temperatura máxima	26
116667	7	Sololá	704	Santa Lucía Utatlán 	7	Santa Rita 	9	Septiembre	2023-11-09T00:00:00	2024-11-08T10:00:00	3	Temperatura mínima	24.1
116668	7	Sololá	704	Santa Lucía Utatlán 	7	Santa Rita 	9	Septiembre	2023-11-09T00:00:00	2024-11-08T10:00:00	5	Humedad	76
116669	7	Sololá	704	Santa Lucía Utatlán 	7	Santa Rita 	9	Septiembre	2023-11-09T00:00:00	2024-11-08T10:00:00	6	Velocidad del viento	9.7
116670	7	Sololá	704	Santa Lucía Utatlán 	7	Santa Rita 	9	Septiembre	2023-11-09T00:00:00	2024-11-08T10:00:00	7	Dirección del viento	9.66
116671	7	Sololá	704	Santa Lucía Utatlán 	7	Santa Rita 	9	Septiembre	2023-11-09T00:00:00	2024-11-08T10:00:00	1	Precipitación	0
116672	7	Sololá	704	Santa Lucía Utatlán 	7	Santa Rita 	9	Septiembre	2023-11-09T00:00:00	2024-11-08T10:00:00	8	Radiación solar	822
116673	7	Sololá	704	Santa Lucía Utatlán 	7	Santa Rita 	9	Septiembre	2023-11-09T00:00:00	2024-11-08T11:00:00	2	Temperatura media	22.8
116674	7	Sololá	704	Santa Lucía Utatlán 	7	Santa Rita 	9	Septiembre	2023-11-09T00:00:00	2024-11-08T11:00:00	4	Temperatura máxima	24.7
116675	7	Sololá	704	Santa Lucía Utatlán 	7	Santa Rita 	9	Septiembre	2023-11-09T00:00:00	2024-11-08T11:00:00	3	Temperatura mínima	22.8
116676	7	Sololá	704	Santa Lucía Utatlán 	7	Santa Rita 	9	Septiembre	2023-11-09T00:00:00	2024-11-08T11:00:00	5	Humedad	80
116677	7	Sololá	704	Santa Lucía Utatlán 	7	Santa Rita 	9	Septiembre	2023-11-09T00:00:00	2024-11-08T11:00:00	6	Velocidad del viento	9.7
116678	7	Sololá	704	Santa Lucía Utatlán 	7	Santa Rita 	9	Septiembre	2023-11-09T00:00:00	2024-11-08T11:00:00	7	Dirección del viento	9.66
116679	7	Sololá	704	Santa Lucía Utatlán 	7	Santa Rita 	9	Septiembre	2023-11-09T00:00:00	2024-11-08T11:00:00	1	Precipitación	0
116680	7	Sololá	704	Santa Lucía Utatlán 	7	Santa Rita 	9	Septiembre	2023-11-09T00:00:00	2024-11-08T11:00:00	8	Radiación solar	981
116681	7	Sololá	704	Santa Lucía Utatlán 	7	Santa Rita 	9	Septiembre	2023-11-09T00:00:00	2024-11-08T12:00:00	2	Temperatura media	22.3
116682	7	Sololá	704	Santa Lucía Utatlán 	7	Santa Rita 	9	Septiembre	2023-11-09T00:00:00	2024-11-08T12:00:00	4	Temperatura máxima	23.1
116683	7	Sololá	704	Santa Lucía Utatlán 	7	Santa Rita 	9	Septiembre	2023-11-09T00:00:00	2024-11-08T12:00:00	3	Temperatura mínima	22.2
116684	7	Sololá	704	Santa Lucía Utatlán 	7	Santa Rita 	9	Septiembre	2023-11-09T00:00:00	2024-11-08T12:00:00	5	Humedad	73
116685	7	Sololá	704	Santa Lucía Utatlán 	7	Santa Rita 	9	Septiembre	2023-11-09T00:00:00	2024-11-08T12:00:00	6	Velocidad del viento	8
116686	7	Sololá	704	Santa Lucía Utatlán 	7	Santa Rita 	9	Septiembre	2023-11-09T00:00:00	2024-11-08T12:00:00	7	Dirección del viento	8.05
116687	7	Sololá	704	Santa Lucía Utatlán 	7	Santa Rita 	9	Septiembre	2023-11-09T00:00:00	2024-11-08T12:00:00	1	Precipitación	0
116688	7	Sololá	704	Santa Lucía Utatlán 	7	Santa Rita 	9	Septiembre	2023-11-09T00:00:00	2024-11-08T12:00:00	8	Radiación solar	1112
116689	7	Sololá	704	Santa Lucía Utatlán 	7	Santa Rita 	9	Septiembre	2023-11-09T00:00:00	2024-11-08T13:00:00	2	Temperatura media	21.3
116690	7	Sololá	704	Santa Lucía Utatlán 	7	Santa Rita 	9	Septiembre	2023-11-09T00:00:00	2024-11-08T13:00:00	4	Temperatura máxima	22.3
116691	7	Sololá	704	Santa Lucía Utatlán 	7	Santa Rita 	9	Septiembre	2023-11-09T00:00:00	2024-11-08T13:00:00	3	Temperatura mínima	21.3
116692	7	Sololá	704	Santa Lucía Utatlán 	7	Santa Rita 	9	Septiembre	2023-11-09T00:00:00	2024-11-08T13:00:00	5	Humedad	81
116693	7	Sololá	704	Santa Lucía Utatlán 	7	Santa Rita 	9	Septiembre	2023-11-09T00:00:00	2024-11-08T13:00:00	6	Velocidad del viento	4.8
116694	7	Sololá	704	Santa Lucía Utatlán 	7	Santa Rita 	9	Septiembre	2023-11-09T00:00:00	2024-11-08T13:00:00	7	Dirección del viento	4.83
116695	7	Sololá	704	Santa Lucía Utatlán 	7	Santa Rita 	9	Septiembre	2023-11-09T00:00:00	2024-11-08T13:00:00	1	Precipitación	0
116696	7	Sololá	704	Santa Lucía Utatlán 	7	Santa Rita 	9	Septiembre	2023-11-09T00:00:00	2024-11-08T13:00:00	8	Radiación solar	614
116697	7	Sololá	704	Santa Lucía Utatlán 	7	Santa Rita 	9	Septiembre	2023-11-09T00:00:00	2024-11-08T14:00:00	2	Temperatura media	19.6
116698	7	Sololá	704	Santa Lucía Utatlán 	7	Santa Rita 	9	Septiembre	2023-11-09T00:00:00	2024-11-08T14:00:00	4	Temperatura máxima	21.3
116699	7	Sololá	704	Santa Lucía Utatlán 	7	Santa Rita 	9	Septiembre	2023-11-09T00:00:00	2024-11-08T14:00:00	3	Temperatura mínima	19.6
116700	7	Sololá	704	Santa Lucía Utatlán 	7	Santa Rita 	9	Septiembre	2023-11-09T00:00:00	2024-11-08T14:00:00	5	Humedad	91
116701	7	Sololá	704	Santa Lucía Utatlán 	7	Santa Rita 	9	Septiembre	2023-11-09T00:00:00	2024-11-08T14:00:00	6	Velocidad del viento	3.2
116702	7	Sololá	704	Santa Lucía Utatlán 	7	Santa Rita 	9	Septiembre	2023-11-09T00:00:00	2024-11-08T14:00:00	7	Dirección del viento	3.22
116703	7	Sololá	704	Santa Lucía Utatlán 	7	Santa Rita 	9	Septiembre	2023-11-09T00:00:00	2024-11-08T14:00:00	1	Precipitación	0.2
116704	7	Sololá	704	Santa Lucía Utatlán 	7	Santa Rita 	9	Septiembre	2023-11-09T00:00:00	2024-11-08T14:00:00	8	Radiación solar	717
116705	7	Sololá	704	Santa Lucía Utatlán 	7	Santa Rita 	9	Septiembre	2023-11-09T00:00:00	2024-11-08T15:00:00	2	Temperatura media	19.3
116706	7	Sololá	704	Santa Lucía Utatlán 	7	Santa Rita 	9	Septiembre	2023-11-09T00:00:00	2024-11-08T15:00:00	4	Temperatura máxima	19.6
116707	7	Sololá	704	Santa Lucía Utatlán 	7	Santa Rita 	9	Septiembre	2023-11-09T00:00:00	2024-11-08T15:00:00	3	Temperatura mínima	19.2
116708	7	Sololá	704	Santa Lucía Utatlán 	7	Santa Rita 	9	Septiembre	2023-11-09T00:00:00	2024-11-08T15:00:00	5	Humedad	95
116709	7	Sololá	704	Santa Lucía Utatlán 	7	Santa Rita 	9	Septiembre	2023-11-09T00:00:00	2024-11-08T15:00:00	6	Velocidad del viento	1.6
116710	7	Sololá	704	Santa Lucía Utatlán 	7	Santa Rita 	9	Septiembre	2023-11-09T00:00:00	2024-11-08T15:00:00	7	Dirección del viento	1.61
116711	7	Sololá	704	Santa Lucía Utatlán 	7	Santa Rita 	9	Septiembre	2023-11-09T00:00:00	2024-11-08T15:00:00	1	Precipitación	0.2
116712	7	Sololá	704	Santa Lucía Utatlán 	7	Santa Rita 	9	Septiembre	2023-11-09T00:00:00	2024-11-08T15:00:00	8	Radiación solar	450
116713	7	Sololá	704	Santa Lucía Utatlán 	7	Santa Rita 	9	Septiembre	2023-11-09T00:00:00	2024-11-08T16:00:00	2	Temperatura media	19.2
116714	7	Sololá	704	Santa Lucía Utatlán 	7	Santa Rita 	9	Septiembre	2023-11-09T00:00:00	2024-11-08T16:00:00	4	Temperatura máxima	19.3
116715	7	Sololá	704	Santa Lucía Utatlán 	7	Santa Rita 	9	Septiembre	2023-11-09T00:00:00	2024-11-08T16:00:00	3	Temperatura mínima	19.1
116716	7	Sololá	704	Santa Lucía Utatlán 	7	Santa Rita 	9	Septiembre	2023-11-09T00:00:00	2024-11-08T16:00:00	5	Humedad	96
116717	7	Sololá	704	Santa Lucía Utatlán 	7	Santa Rita 	9	Septiembre	2023-11-09T00:00:00	2024-11-08T16:00:00	6	Velocidad del viento	1.6
116718	7	Sololá	704	Santa Lucía Utatlán 	7	Santa Rita 	9	Septiembre	2023-11-09T00:00:00	2024-11-08T16:00:00	7	Dirección del viento	1.61
116719	7	Sololá	704	Santa Lucía Utatlán 	7	Santa Rita 	9	Septiembre	2023-11-09T00:00:00	2024-11-08T16:00:00	1	Precipitación	0.8
116720	7	Sololá	704	Santa Lucía Utatlán 	7	Santa Rita 	9	Septiembre	2023-11-09T00:00:00	2024-11-08T16:00:00	8	Radiación solar	312
116721	7	Sololá	704	Santa Lucía Utatlán 	7	Santa Rita 	9	Septiembre	2023-11-09T00:00:00	2024-11-08T17:00:00	2	Temperatura media	19.2
116722	7	Sololá	704	Santa Lucía Utatlán 	7	Santa Rita 	9	Septiembre	2023-11-09T00:00:00	2024-11-08T17:00:00	4	Temperatura máxima	19.4
116723	7	Sololá	704	Santa Lucía Utatlán 	7	Santa Rita 	9	Septiembre	2023-11-09T00:00:00	2024-11-08T17:00:00	3	Temperatura mínima	19.2
116724	7	Sololá	704	Santa Lucía Utatlán 	7	Santa Rita 	9	Septiembre	2023-11-09T00:00:00	2024-11-08T17:00:00	5	Humedad	94
116725	7	Sololá	704	Santa Lucía Utatlán 	7	Santa Rita 	9	Septiembre	2023-11-09T00:00:00	2024-11-08T17:00:00	6	Velocidad del viento	1.6
116726	7	Sololá	704	Santa Lucía Utatlán 	7	Santa Rita 	9	Septiembre	2023-11-09T00:00:00	2024-11-08T17:00:00	7	Dirección del viento	1.61
116727	7	Sololá	704	Santa Lucía Utatlán 	7	Santa Rita 	9	Septiembre	2023-11-09T00:00:00	2024-11-08T17:00:00	1	Precipitación	0.4
116728	7	Sololá	704	Santa Lucía Utatlán 	7	Santa Rita 	9	Septiembre	2023-11-09T00:00:00	2024-11-08T17:00:00	8	Radiación solar	52
116729	7	Sololá	704	Santa Lucía Utatlán 	7	Santa Rita 	9	Septiembre	2023-11-09T00:00:00	2024-11-08T18:00:00	2	Temperatura media	19
116730	7	Sololá	704	Santa Lucía Utatlán 	7	Santa Rita 	9	Septiembre	2023-11-09T00:00:00	2024-11-08T18:00:00	4	Temperatura máxima	19.2
116731	7	Sololá	704	Santa Lucía Utatlán 	7	Santa Rita 	9	Septiembre	2023-11-09T00:00:00	2024-11-08T18:00:00	3	Temperatura mínima	18.9
116732	7	Sololá	704	Santa Lucía Utatlán 	7	Santa Rita 	9	Septiembre	2023-11-09T00:00:00	2024-11-08T18:00:00	5	Humedad	95
116733	7	Sololá	704	Santa Lucía Utatlán 	7	Santa Rita 	9	Septiembre	2023-11-09T00:00:00	2024-11-08T18:00:00	6	Velocidad del viento	1.6
116734	7	Sololá	704	Santa Lucía Utatlán 	7	Santa Rita 	9	Septiembre	2023-11-09T00:00:00	2024-11-08T18:00:00	7	Dirección del viento	1.61
116735	7	Sololá	704	Santa Lucía Utatlán 	7	Santa Rita 	9	Septiembre	2023-11-09T00:00:00	2024-11-08T18:00:00	1	Precipitación	0
116736	7	Sololá	704	Santa Lucía Utatlán 	7	Santa Rita 	9	Septiembre	2023-11-09T00:00:00	2024-11-08T18:00:00	8	Radiación solar	6
116737	7	Sololá	704	Santa Lucía Utatlán 	7	Santa Rita 	9	Septiembre	2023-11-09T00:00:00	2024-11-08T19:00:00	2	Temperatura media	18.5
116738	7	Sololá	704	Santa Lucía Utatlán 	7	Santa Rita 	9	Septiembre	2023-11-09T00:00:00	2024-11-08T19:00:00	4	Temperatura máxima	19
116739	7	Sololá	704	Santa Lucía Utatlán 	7	Santa Rita 	9	Septiembre	2023-11-09T00:00:00	2024-11-08T19:00:00	3	Temperatura mínima	18.5
116740	7	Sololá	704	Santa Lucía Utatlán 	7	Santa Rita 	9	Septiembre	2023-11-09T00:00:00	2024-11-08T19:00:00	5	Humedad	96
116741	7	Sololá	704	Santa Lucía Utatlán 	7	Santa Rita 	9	Septiembre	2023-11-09T00:00:00	2024-11-08T19:00:00	6	Velocidad del viento	1.6
116742	7	Sololá	704	Santa Lucía Utatlán 	7	Santa Rita 	9	Septiembre	2023-11-09T00:00:00	2024-11-08T19:00:00	7	Dirección del viento	1.61
116743	7	Sololá	704	Santa Lucía Utatlán 	7	Santa Rita 	9	Septiembre	2023-11-09T00:00:00	2024-11-08T19:00:00	1	Precipitación	0
116744	7	Sololá	704	Santa Lucía Utatlán 	7	Santa Rita 	9	Septiembre	2023-11-09T00:00:00	2024-11-08T19:00:00	8	Radiación solar	0
116745	7	Sololá	704	Santa Lucía Utatlán 	7	Santa Rita 	9	Septiembre	2023-11-09T00:00:00	2024-11-08T20:00:00	2	Temperatura media	18.1
116746	7	Sololá	704	Santa Lucía Utatlán 	7	Santa Rita 	9	Septiembre	2023-11-09T00:00:00	2024-11-08T20:00:00	4	Temperatura máxima	18.5
116747	7	Sololá	704	Santa Lucía Utatlán 	7	Santa Rita 	9	Septiembre	2023-11-09T00:00:00	2024-11-08T20:00:00	3	Temperatura mínima	18.1
116748	7	Sololá	704	Santa Lucía Utatlán 	7	Santa Rita 	9	Septiembre	2023-11-09T00:00:00	2024-11-08T20:00:00	5	Humedad	96
116749	7	Sololá	704	Santa Lucía Utatlán 	7	Santa Rita 	9	Septiembre	2023-11-09T00:00:00	2024-11-08T20:00:00	6	Velocidad del viento	1.6
116750	7	Sololá	704	Santa Lucía Utatlán 	7	Santa Rita 	9	Septiembre	2023-11-09T00:00:00	2024-11-08T20:00:00	7	Dirección del viento	1.61
116751	7	Sololá	704	Santa Lucía Utatlán 	7	Santa Rita 	9	Septiembre	2023-11-09T00:00:00	2024-11-08T20:00:00	1	Precipitación	0
116752	7	Sololá	704	Santa Lucía Utatlán 	7	Santa Rita 	9	Septiembre	2023-11-09T00:00:00	2024-11-08T20:00:00	8	Radiación solar	0
116753	7	Sololá	704	Santa Lucía Utatlán 	7	Santa Rita 	9	Septiembre	2023-11-09T00:00:00	2024-11-08T21:00:00	2	Temperatura media	17.4
116754	7	Sololá	704	Santa Lucía Utatlán 	7	Santa Rita 	9	Septiembre	2023-11-09T00:00:00	2024-11-08T21:00:00	4	Temperatura máxima	18.1
116755	7	Sololá	704	Santa Lucía Utatlán 	7	Santa Rita 	9	Septiembre	2023-11-09T00:00:00	2024-11-08T21:00:00	3	Temperatura mínima	17.4
116756	7	Sololá	704	Santa Lucía Utatlán 	7	Santa Rita 	9	Septiembre	2023-11-09T00:00:00	2024-11-08T21:00:00	5	Humedad	95
116757	7	Sololá	704	Santa Lucía Utatlán 	7	Santa Rita 	9	Septiembre	2023-11-09T00:00:00	2024-11-08T21:00:00	6	Velocidad del viento	1.6
116758	7	Sololá	704	Santa Lucía Utatlán 	7	Santa Rita 	9	Septiembre	2023-11-09T00:00:00	2024-11-08T21:00:00	7	Dirección del viento	1.61
116759	7	Sololá	704	Santa Lucía Utatlán 	7	Santa Rita 	9	Septiembre	2023-11-09T00:00:00	2024-11-08T21:00:00	1	Precipitación	0
116760	7	Sololá	704	Santa Lucía Utatlán 	7	Santa Rita 	9	Septiembre	2023-11-09T00:00:00	2024-11-08T21:00:00	8	Radiación solar	0
116761	7	Sololá	704	Santa Lucía Utatlán 	7	Santa Rita 	9	Septiembre	2023-11-09T00:00:00	2024-11-08T22:00:00	2	Temperatura media	17.4
116762	7	Sololá	704	Santa Lucía Utatlán 	7	Santa Rita 	9	Septiembre	2023-11-09T00:00:00	2024-11-08T22:00:00	4	Temperatura máxima	17.4
116763	7	Sololá	704	Santa Lucía Utatlán 	7	Santa Rita 	9	Septiembre	2023-11-09T00:00:00	2024-11-08T22:00:00	3	Temperatura mínima	17.2
116764	7	Sololá	704	Santa Lucía Utatlán 	7	Santa Rita 	9	Septiembre	2023-11-09T00:00:00	2024-11-08T22:00:00	5	Humedad	96
116765	7	Sololá	704	Santa Lucía Utatlán 	7	Santa Rita 	9	Septiembre	2023-11-09T00:00:00	2024-11-08T22:00:00	6	Velocidad del viento	3.2
116766	7	Sololá	704	Santa Lucía Utatlán 	7	Santa Rita 	9	Septiembre	2023-11-09T00:00:00	2024-11-08T22:00:00	7	Dirección del viento	3.22
116767	7	Sololá	704	Santa Lucía Utatlán 	7	Santa Rita 	9	Septiembre	2023-11-09T00:00:00	2024-11-08T22:00:00	1	Precipitación	0
116768	7	Sololá	704	Santa Lucía Utatlán 	7	Santa Rita 	9	Septiembre	2023-11-09T00:00:00	2024-11-08T22:00:00	8	Radiación solar	0
116769	7	Sololá	704	Santa Lucía Utatlán 	7	Santa Rita 	9	Septiembre	2023-11-09T00:00:00	2024-11-08T23:00:00	2	Temperatura media	17.3
116770	7	Sololá	704	Santa Lucía Utatlán 	7	Santa Rita 	9	Septiembre	2023-11-09T00:00:00	2024-11-08T23:00:00	4	Temperatura máxima	17.4
116771	7	Sololá	704	Santa Lucía Utatlán 	7	Santa Rita 	9	Septiembre	2023-11-09T00:00:00	2024-11-08T23:00:00	3	Temperatura mínima	17.2
116772	7	Sololá	704	Santa Lucía Utatlán 	7	Santa Rita 	9	Septiembre	2023-11-09T00:00:00	2024-11-08T23:00:00	5	Humedad	95
116773	7	Sololá	704	Santa Lucía Utatlán 	7	Santa Rita 	9	Septiembre	2023-11-09T00:00:00	2024-11-08T23:00:00	6	Velocidad del viento	1.6
116774	7	Sololá	704	Santa Lucía Utatlán 	7	Santa Rita 	9	Septiembre	2023-11-09T00:00:00	2024-11-08T23:00:00	7	Dirección del viento	1.61
116775	7	Sololá	704	Santa Lucía Utatlán 	7	Santa Rita 	9	Septiembre	2023-11-09T00:00:00	2024-11-08T23:00:00	1	Precipitación	0
116776	7	Sololá	704	Santa Lucía Utatlán 	7	Santa Rita 	9	Septiembre	2023-11-09T00:00:00	2024-11-08T23:00:00	8	Radiación solar	0
116777	7	Sololá	704	Santa Lucía Utatlán 	7	Santa Rita 	9	Septiembre	2023-12-09T00:00:00	2024-11-08T00:00:00	2	Temperatura media	16.6
116778	7	Sololá	704	Santa Lucía Utatlán 	7	Santa Rita 	9	Septiembre	2023-12-09T00:00:00	2024-11-08T00:00:00	4	Temperatura máxima	17.3
116779	7	Sololá	704	Santa Lucía Utatlán 	7	Santa Rita 	9	Septiembre	2023-12-09T00:00:00	2024-11-08T00:00:00	3	Temperatura mínima	16.6
116780	7	Sololá	704	Santa Lucía Utatlán 	7	Santa Rita 	9	Septiembre	2023-12-09T00:00:00	2024-11-08T00:00:00	5	Humedad	93
116781	7	Sololá	704	Santa Lucía Utatlán 	7	Santa Rita 	9	Septiembre	2023-12-09T00:00:00	2024-11-08T00:00:00	6	Velocidad del viento	3.2
116782	7	Sololá	704	Santa Lucía Utatlán 	7	Santa Rita 	9	Septiembre	2023-12-09T00:00:00	2024-11-08T00:00:00	7	Dirección del viento	3.22
116783	7	Sololá	704	Santa Lucía Utatlán 	7	Santa Rita 	9	Septiembre	2023-12-09T00:00:00	2024-11-08T00:00:00	1	Precipitación	0
116784	7	Sololá	704	Santa Lucía Utatlán 	7	Santa Rita 	9	Septiembre	2023-12-09T00:00:00	2024-11-08T00:00:00	8	Radiación solar	0
116785	7	Sololá	704	Santa Lucía Utatlán 	7	Santa Rita 	9	Septiembre	2023-12-09T00:00:00	2024-11-08T01:00:00	2	Temperatura media	15.9
116786	7	Sololá	704	Santa Lucía Utatlán 	7	Santa Rita 	9	Septiembre	2023-12-09T00:00:00	2024-11-08T01:00:00	4	Temperatura máxima	16.6
116787	7	Sololá	704	Santa Lucía Utatlán 	7	Santa Rita 	9	Septiembre	2023-12-09T00:00:00	2024-11-08T01:00:00	3	Temperatura mínima	15.9
116788	7	Sololá	704	Santa Lucía Utatlán 	7	Santa Rita 	9	Septiembre	2023-12-09T00:00:00	2024-11-08T01:00:00	5	Humedad	93
116789	7	Sololá	704	Santa Lucía Utatlán 	7	Santa Rita 	9	Septiembre	2023-12-09T00:00:00	2024-11-08T01:00:00	6	Velocidad del viento	3.2
116790	7	Sololá	704	Santa Lucía Utatlán 	7	Santa Rita 	9	Septiembre	2023-12-09T00:00:00	2024-11-08T01:00:00	7	Dirección del viento	3.22
116791	7	Sololá	704	Santa Lucía Utatlán 	7	Santa Rita 	9	Septiembre	2023-12-09T00:00:00	2024-11-08T01:00:00	1	Precipitación	0
116792	7	Sololá	704	Santa Lucía Utatlán 	7	Santa Rita 	9	Septiembre	2023-12-09T00:00:00	2024-11-08T01:00:00	8	Radiación solar	0
116793	7	Sololá	704	Santa Lucía Utatlán 	7	Santa Rita 	9	Septiembre	2023-12-09T00:00:00	2024-11-08T02:00:00	2	Temperatura media	19.1
116794	7	Sololá	704	Santa Lucía Utatlán 	7	Santa Rita 	9	Septiembre	2023-12-09T00:00:00	2024-11-08T02:00:00	4	Temperatura máxima	19.1
116795	7	Sololá	704	Santa Lucía Utatlán 	7	Santa Rita 	9	Septiembre	2023-12-09T00:00:00	2024-11-08T02:00:00	3	Temperatura mínima	15.9
116796	7	Sololá	704	Santa Lucía Utatlán 	7	Santa Rita 	9	Septiembre	2023-12-09T00:00:00	2024-11-08T02:00:00	5	Humedad	86
116797	7	Sololá	704	Santa Lucía Utatlán 	7	Santa Rita 	9	Septiembre	2023-12-09T00:00:00	2024-11-08T02:00:00	6	Velocidad del viento	3.2
116798	7	Sololá	704	Santa Lucía Utatlán 	7	Santa Rita 	9	Septiembre	2023-12-09T00:00:00	2024-11-08T02:00:00	7	Dirección del viento	3.22
116799	7	Sololá	704	Santa Lucía Utatlán 	7	Santa Rita 	9	Septiembre	2023-12-09T00:00:00	2024-11-08T02:00:00	1	Precipitación	0
116800	7	Sololá	704	Santa Lucía Utatlán 	7	Santa Rita 	9	Septiembre	2023-12-09T00:00:00	2024-11-08T02:00:00	8	Radiación solar	0
116801	7	Sololá	704	Santa Lucía Utatlán 	7	Santa Rita 	9	Septiembre	2023-12-09T00:00:00	2024-11-08T03:00:00	2	Temperatura media	22
116802	7	Sololá	704	Santa Lucía Utatlán 	7	Santa Rita 	9	Septiembre	2023-12-09T00:00:00	2024-11-08T03:00:00	4	Temperatura máxima	22
116803	7	Sololá	704	Santa Lucía Utatlán 	7	Santa Rita 	9	Septiembre	2023-12-09T00:00:00	2024-11-08T03:00:00	3	Temperatura mínima	19.1
116804	7	Sololá	704	Santa Lucía Utatlán 	7	Santa Rita 	9	Septiembre	2023-12-09T00:00:00	2024-11-08T03:00:00	5	Humedad	79
116805	7	Sololá	704	Santa Lucía Utatlán 	7	Santa Rita 	9	Septiembre	2023-12-09T00:00:00	2024-11-08T03:00:00	6	Velocidad del viento	3.2
116806	7	Sololá	704	Santa Lucía Utatlán 	7	Santa Rita 	9	Septiembre	2023-12-09T00:00:00	2024-11-08T03:00:00	7	Dirección del viento	3.22
116807	7	Sololá	704	Santa Lucía Utatlán 	7	Santa Rita 	9	Septiembre	2023-12-09T00:00:00	2024-11-08T03:00:00	1	Precipitación	0
116808	7	Sololá	704	Santa Lucía Utatlán 	7	Santa Rita 	9	Septiembre	2023-12-09T00:00:00	2024-11-08T03:00:00	8	Radiación solar	0
116809	7	Sololá	704	Santa Lucía Utatlán 	7	Santa Rita 	9	Septiembre	2023-12-09T00:00:00	2024-11-08T04:00:00	2	Temperatura media	24.4
116810	7	Sololá	704	Santa Lucía Utatlán 	7	Santa Rita 	9	Septiembre	2023-12-09T00:00:00	2024-11-08T04:00:00	4	Temperatura máxima	24.4
116811	7	Sololá	704	Santa Lucía Utatlán 	7	Santa Rita 	9	Septiembre	2023-12-09T00:00:00	2024-11-08T04:00:00	3	Temperatura mínima	22
116812	7	Sololá	704	Santa Lucía Utatlán 	7	Santa Rita 	9	Septiembre	2023-12-09T00:00:00	2024-11-08T04:00:00	5	Humedad	70
116813	7	Sololá	704	Santa Lucía Utatlán 	7	Santa Rita 	9	Septiembre	2023-12-09T00:00:00	2024-11-08T04:00:00	6	Velocidad del viento	4.8
116814	7	Sololá	704	Santa Lucía Utatlán 	7	Santa Rita 	9	Septiembre	2023-12-09T00:00:00	2024-11-08T04:00:00	7	Dirección del viento	4.83
116815	7	Sololá	704	Santa Lucía Utatlán 	7	Santa Rita 	9	Septiembre	2023-12-09T00:00:00	2024-11-08T04:00:00	1	Precipitación	0
116816	7	Sololá	704	Santa Lucía Utatlán 	7	Santa Rita 	9	Septiembre	2023-12-09T00:00:00	2024-11-08T04:00:00	8	Radiación solar	0
116817	7	Sololá	704	Santa Lucía Utatlán 	7	Santa Rita 	9	Septiembre	2023-12-09T00:00:00	2024-11-08T05:00:00	2	Temperatura media	24.7
116818	7	Sololá	704	Santa Lucía Utatlán 	7	Santa Rita 	9	Septiembre	2023-12-09T00:00:00	2024-11-08T05:00:00	4	Temperatura máxima	24.8
116819	7	Sololá	704	Santa Lucía Utatlán 	7	Santa Rita 	9	Septiembre	2023-12-09T00:00:00	2024-11-08T05:00:00	3	Temperatura mínima	24.4
116820	7	Sololá	704	Santa Lucía Utatlán 	7	Santa Rita 	9	Septiembre	2023-12-09T00:00:00	2024-11-08T05:00:00	5	Humedad	63
116821	7	Sololá	704	Santa Lucía Utatlán 	7	Santa Rita 	9	Septiembre	2023-12-09T00:00:00	2024-11-08T05:00:00	6	Velocidad del viento	6.4
116822	7	Sololá	704	Santa Lucía Utatlán 	7	Santa Rita 	9	Septiembre	2023-12-09T00:00:00	2024-11-08T05:00:00	7	Dirección del viento	6.44
116823	7	Sololá	704	Santa Lucía Utatlán 	7	Santa Rita 	9	Septiembre	2023-12-09T00:00:00	2024-11-08T05:00:00	1	Precipitación	0
116824	7	Sololá	704	Santa Lucía Utatlán 	7	Santa Rita 	9	Septiembre	2023-12-09T00:00:00	2024-11-08T05:00:00	8	Radiación solar	0
116825	7	Sololá	704	Santa Lucía Utatlán 	7	Santa Rita 	9	Septiembre	2023-12-09T00:00:00	2024-11-08T06:00:00	2	Temperatura media	25.6
116826	7	Sololá	704	Santa Lucía Utatlán 	7	Santa Rita 	9	Septiembre	2023-12-09T00:00:00	2024-11-08T06:00:00	4	Temperatura máxima	25.7
116827	7	Sololá	704	Santa Lucía Utatlán 	7	Santa Rita 	9	Septiembre	2023-12-09T00:00:00	2024-11-08T06:00:00	3	Temperatura mínima	24.7
116828	7	Sololá	704	Santa Lucía Utatlán 	7	Santa Rita 	9	Septiembre	2023-12-09T00:00:00	2024-11-08T06:00:00	5	Humedad	67
116829	7	Sololá	704	Santa Lucía Utatlán 	7	Santa Rita 	9	Septiembre	2023-12-09T00:00:00	2024-11-08T06:00:00	6	Velocidad del viento	6.4
116830	7	Sololá	704	Santa Lucía Utatlán 	7	Santa Rita 	9	Septiembre	2023-12-09T00:00:00	2024-11-08T06:00:00	7	Dirección del viento	6.44
116831	7	Sololá	704	Santa Lucía Utatlán 	7	Santa Rita 	9	Septiembre	2023-12-09T00:00:00	2024-11-08T06:00:00	1	Precipitación	0
116832	7	Sololá	704	Santa Lucía Utatlán 	7	Santa Rita 	9	Septiembre	2023-12-09T00:00:00	2024-11-08T06:00:00	8	Radiación solar	2
116833	7	Sololá	704	Santa Lucía Utatlán 	7	Santa Rita 	9	Septiembre	2023-12-09T00:00:00	2024-11-08T07:00:00	2	Temperatura media	25.3
116834	7	Sololá	704	Santa Lucía Utatlán 	7	Santa Rita 	9	Septiembre	2023-12-09T00:00:00	2024-11-08T07:00:00	4	Temperatura máxima	25.7
116835	7	Sololá	704	Santa Lucía Utatlán 	7	Santa Rita 	9	Septiembre	2023-12-09T00:00:00	2024-11-08T07:00:00	3	Temperatura mínima	24.7
116836	7	Sololá	704	Santa Lucía Utatlán 	7	Santa Rita 	9	Septiembre	2023-12-09T00:00:00	2024-11-08T07:00:00	5	Humedad	71
116837	7	Sololá	704	Santa Lucía Utatlán 	7	Santa Rita 	9	Septiembre	2023-12-09T00:00:00	2024-11-08T07:00:00	6	Velocidad del viento	8
116838	7	Sololá	704	Santa Lucía Utatlán 	7	Santa Rita 	9	Septiembre	2023-12-09T00:00:00	2024-11-08T07:00:00	7	Dirección del viento	8.05
116839	7	Sololá	704	Santa Lucía Utatlán 	7	Santa Rita 	9	Septiembre	2023-12-09T00:00:00	2024-11-08T07:00:00	1	Precipitación	0
116840	7	Sololá	704	Santa Lucía Utatlán 	7	Santa Rita 	9	Septiembre	2023-12-09T00:00:00	2024-11-08T07:00:00	8	Radiación solar	105
116841	7	Sololá	704	Santa Lucía Utatlán 	7	Santa Rita 	9	Septiembre	2023-12-09T00:00:00	2024-11-08T08:00:00	2	Temperatura media	25.7
116842	7	Sololá	704	Santa Lucía Utatlán 	7	Santa Rita 	9	Septiembre	2023-12-09T00:00:00	2024-11-08T08:00:00	4	Temperatura máxima	25.7
116843	7	Sololá	704	Santa Lucía Utatlán 	7	Santa Rita 	9	Septiembre	2023-12-09T00:00:00	2024-11-08T08:00:00	3	Temperatura mínima	24.9
116844	7	Sololá	704	Santa Lucía Utatlán 	7	Santa Rita 	9	Septiembre	2023-12-09T00:00:00	2024-11-08T08:00:00	5	Humedad	73
116845	7	Sololá	704	Santa Lucía Utatlán 	7	Santa Rita 	9	Septiembre	2023-12-09T00:00:00	2024-11-08T08:00:00	6	Velocidad del viento	11.3
116846	7	Sololá	704	Santa Lucía Utatlán 	7	Santa Rita 	9	Septiembre	2023-12-09T00:00:00	2024-11-08T08:00:00	7	Dirección del viento	11.27
116847	7	Sololá	704	Santa Lucía Utatlán 	7	Santa Rita 	9	Septiembre	2023-12-09T00:00:00	2024-11-08T08:00:00	1	Precipitación	0
116848	7	Sololá	704	Santa Lucía Utatlán 	7	Santa Rita 	9	Septiembre	2023-12-09T00:00:00	2024-11-08T08:00:00	8	Radiación solar	394
116849	7	Sololá	704	Santa Lucía Utatlán 	7	Santa Rita 	9	Septiembre	2023-12-09T00:00:00	2024-11-08T09:00:00	2	Temperatura media	25
116850	7	Sololá	704	Santa Lucía Utatlán 	7	Santa Rita 	9	Septiembre	2023-12-09T00:00:00	2024-11-08T09:00:00	4	Temperatura máxima	25.9
116851	7	Sololá	704	Santa Lucía Utatlán 	7	Santa Rita 	9	Septiembre	2023-12-09T00:00:00	2024-11-08T09:00:00	3	Temperatura mínima	24.8
116852	7	Sololá	704	Santa Lucía Utatlán 	7	Santa Rita 	9	Septiembre	2023-12-09T00:00:00	2024-11-08T09:00:00	5	Humedad	76
116853	7	Sololá	704	Santa Lucía Utatlán 	7	Santa Rita 	9	Septiembre	2023-12-09T00:00:00	2024-11-08T09:00:00	6	Velocidad del viento	9.7
116854	7	Sololá	704	Santa Lucía Utatlán 	7	Santa Rita 	9	Septiembre	2023-12-09T00:00:00	2024-11-08T09:00:00	7	Dirección del viento	9.66
116855	7	Sololá	704	Santa Lucía Utatlán 	7	Santa Rita 	9	Septiembre	2023-12-09T00:00:00	2024-11-08T09:00:00	1	Precipitación	0
116856	7	Sololá	704	Santa Lucía Utatlán 	7	Santa Rita 	9	Septiembre	2023-12-09T00:00:00	2024-11-08T09:00:00	8	Radiación solar	632
116857	7	Sololá	704	Santa Lucía Utatlán 	7	Santa Rita 	9	Septiembre	2023-12-09T00:00:00	2024-11-08T10:00:00	2	Temperatura media	24.1
116858	7	Sololá	704	Santa Lucía Utatlán 	7	Santa Rita 	9	Septiembre	2023-12-09T00:00:00	2024-11-08T10:00:00	4	Temperatura máxima	25.1
116859	7	Sololá	704	Santa Lucía Utatlán 	7	Santa Rita 	9	Septiembre	2023-12-09T00:00:00	2024-11-08T10:00:00	3	Temperatura mínima	24
116860	7	Sololá	704	Santa Lucía Utatlán 	7	Santa Rita 	9	Septiembre	2023-12-09T00:00:00	2024-11-08T10:00:00	5	Humedad	81
116861	7	Sololá	704	Santa Lucía Utatlán 	7	Santa Rita 	9	Septiembre	2023-12-09T00:00:00	2024-11-08T10:00:00	6	Velocidad del viento	8
116862	7	Sololá	704	Santa Lucía Utatlán 	7	Santa Rita 	9	Septiembre	2023-12-09T00:00:00	2024-11-08T10:00:00	7	Dirección del viento	8.05
116863	7	Sololá	704	Santa Lucía Utatlán 	7	Santa Rita 	9	Septiembre	2023-12-09T00:00:00	2024-11-08T10:00:00	1	Precipitación	0
116864	7	Sololá	704	Santa Lucía Utatlán 	7	Santa Rita 	9	Septiembre	2023-12-09T00:00:00	2024-11-08T10:00:00	8	Radiación solar	821
116865	7	Sololá	704	Santa Lucía Utatlán 	7	Santa Rita 	9	Septiembre	2023-12-09T00:00:00	2024-11-08T11:00:00	2	Temperatura media	23.1
116866	7	Sololá	704	Santa Lucía Utatlán 	7	Santa Rita 	9	Septiembre	2023-12-09T00:00:00	2024-11-08T11:00:00	4	Temperatura máxima	24.1
116867	7	Sololá	704	Santa Lucía Utatlán 	7	Santa Rita 	9	Septiembre	2023-12-09T00:00:00	2024-11-08T11:00:00	3	Temperatura mínima	23.1
116868	7	Sololá	704	Santa Lucía Utatlán 	7	Santa Rita 	9	Septiembre	2023-12-09T00:00:00	2024-11-08T11:00:00	5	Humedad	85
116869	7	Sololá	704	Santa Lucía Utatlán 	7	Santa Rita 	9	Septiembre	2023-12-09T00:00:00	2024-11-08T11:00:00	6	Velocidad del viento	6.4
116870	7	Sololá	704	Santa Lucía Utatlán 	7	Santa Rita 	9	Septiembre	2023-12-09T00:00:00	2024-11-08T11:00:00	7	Dirección del viento	6.44
116871	7	Sololá	704	Santa Lucía Utatlán 	7	Santa Rita 	9	Septiembre	2023-12-09T00:00:00	2024-11-08T11:00:00	1	Precipitación	0
116872	7	Sololá	704	Santa Lucía Utatlán 	7	Santa Rita 	9	Septiembre	2023-12-09T00:00:00	2024-11-08T11:00:00	8	Radiación solar	961
116873	7	Sololá	704	Santa Lucía Utatlán 	7	Santa Rita 	9	Septiembre	2023-12-09T00:00:00	2024-11-08T12:00:00	2	Temperatura media	22.6
116874	7	Sololá	704	Santa Lucía Utatlán 	7	Santa Rita 	9	Septiembre	2023-12-09T00:00:00	2024-11-08T12:00:00	4	Temperatura máxima	23.1
116875	7	Sololá	704	Santa Lucía Utatlán 	7	Santa Rita 	9	Septiembre	2023-12-09T00:00:00	2024-11-08T12:00:00	3	Temperatura mínima	22.6
116876	7	Sololá	704	Santa Lucía Utatlán 	7	Santa Rita 	9	Septiembre	2023-12-09T00:00:00	2024-11-08T12:00:00	5	Humedad	86
116877	7	Sololá	704	Santa Lucía Utatlán 	7	Santa Rita 	9	Septiembre	2023-12-09T00:00:00	2024-11-08T12:00:00	6	Velocidad del viento	6.4
116878	7	Sololá	704	Santa Lucía Utatlán 	7	Santa Rita 	9	Septiembre	2023-12-09T00:00:00	2024-11-08T12:00:00	7	Dirección del viento	6.44
116879	7	Sololá	704	Santa Lucía Utatlán 	7	Santa Rita 	9	Septiembre	2023-12-09T00:00:00	2024-11-08T12:00:00	1	Precipitación	0
116880	7	Sololá	704	Santa Lucía Utatlán 	7	Santa Rita 	9	Septiembre	2023-12-09T00:00:00	2024-11-08T12:00:00	8	Radiación solar	949
116881	7	Sololá	704	Santa Lucía Utatlán 	7	Santa Rita 	9	Septiembre	2023-12-09T00:00:00	2024-11-08T13:00:00	2	Temperatura media	22
116882	7	Sololá	704	Santa Lucía Utatlán 	7	Santa Rita 	9	Septiembre	2023-12-09T00:00:00	2024-11-08T13:00:00	4	Temperatura máxima	22.6
116883	7	Sololá	704	Santa Lucía Utatlán 	7	Santa Rita 	9	Septiembre	2023-12-09T00:00:00	2024-11-08T13:00:00	3	Temperatura mínima	22
116884	7	Sololá	704	Santa Lucía Utatlán 	7	Santa Rita 	9	Septiembre	2023-12-09T00:00:00	2024-11-08T13:00:00	5	Humedad	90
116885	7	Sololá	704	Santa Lucía Utatlán 	7	Santa Rita 	9	Septiembre	2023-12-09T00:00:00	2024-11-08T13:00:00	6	Velocidad del viento	3.2
116886	7	Sololá	704	Santa Lucía Utatlán 	7	Santa Rita 	9	Septiembre	2023-12-09T00:00:00	2024-11-08T13:00:00	7	Dirección del viento	3.22
116887	7	Sololá	704	Santa Lucía Utatlán 	7	Santa Rita 	9	Septiembre	2023-12-09T00:00:00	2024-11-08T13:00:00	1	Precipitación	0
116888	7	Sololá	704	Santa Lucía Utatlán 	7	Santa Rita 	9	Septiembre	2023-12-09T00:00:00	2024-11-08T13:00:00	8	Radiación solar	1071
116889	7	Sololá	704	Santa Lucía Utatlán 	7	Santa Rita 	9	Septiembre	2023-12-09T00:00:00	2024-11-08T14:00:00	2	Temperatura media	21.2
116890	7	Sololá	704	Santa Lucía Utatlán 	7	Santa Rita 	9	Septiembre	2023-12-09T00:00:00	2024-11-08T14:00:00	4	Temperatura máxima	22.1
116891	7	Sololá	704	Santa Lucía Utatlán 	7	Santa Rita 	9	Septiembre	2023-12-09T00:00:00	2024-11-08T14:00:00	3	Temperatura mínima	21.1
116892	7	Sololá	704	Santa Lucía Utatlán 	7	Santa Rita 	9	Septiembre	2023-12-09T00:00:00	2024-11-08T14:00:00	5	Humedad	86
116893	7	Sololá	704	Santa Lucía Utatlán 	7	Santa Rita 	9	Septiembre	2023-12-09T00:00:00	2024-11-08T14:00:00	6	Velocidad del viento	1.6
116894	7	Sololá	704	Santa Lucía Utatlán 	7	Santa Rita 	9	Septiembre	2023-12-09T00:00:00	2024-11-08T14:00:00	7	Dirección del viento	1.61
116895	7	Sololá	704	Santa Lucía Utatlán 	7	Santa Rita 	9	Septiembre	2023-12-09T00:00:00	2024-11-08T14:00:00	1	Precipitación	0
116896	7	Sololá	704	Santa Lucía Utatlán 	7	Santa Rita 	9	Septiembre	2023-12-09T00:00:00	2024-11-08T14:00:00	8	Radiación solar	589
116897	7	Sololá	704	Santa Lucía Utatlán 	7	Santa Rita 	9	Septiembre	2023-12-09T00:00:00	2024-11-08T15:00:00	2	Temperatura media	19.9
116898	7	Sololá	704	Santa Lucía Utatlán 	7	Santa Rita 	9	Septiembre	2023-12-09T00:00:00	2024-11-08T15:00:00	4	Temperatura máxima	21.2
116899	7	Sololá	704	Santa Lucía Utatlán 	7	Santa Rita 	9	Septiembre	2023-12-09T00:00:00	2024-11-08T15:00:00	3	Temperatura mínima	19.9
116900	7	Sololá	704	Santa Lucía Utatlán 	7	Santa Rita 	9	Septiembre	2023-12-09T00:00:00	2024-11-08T15:00:00	5	Humedad	91
116901	7	Sololá	704	Santa Lucía Utatlán 	7	Santa Rita 	9	Septiembre	2023-12-09T00:00:00	2024-11-08T15:00:00	6	Velocidad del viento	1.6
116902	7	Sololá	704	Santa Lucía Utatlán 	7	Santa Rita 	9	Septiembre	2023-12-09T00:00:00	2024-11-08T15:00:00	7	Dirección del viento	1.61
116903	7	Sololá	704	Santa Lucía Utatlán 	7	Santa Rita 	9	Septiembre	2023-12-09T00:00:00	2024-11-08T15:00:00	1	Precipitación	0
116904	7	Sololá	704	Santa Lucía Utatlán 	7	Santa Rita 	9	Septiembre	2023-12-09T00:00:00	2024-11-08T15:00:00	8	Radiación solar	218
116905	7	Sololá	704	Santa Lucía Utatlán 	7	Santa Rita 	9	Septiembre	2023-12-09T00:00:00	2024-11-08T16:00:00	2	Temperatura media	19.6
116906	7	Sololá	704	Santa Lucía Utatlán 	7	Santa Rita 	9	Septiembre	2023-12-09T00:00:00	2024-11-08T16:00:00	4	Temperatura máxima	19.9
116907	7	Sololá	704	Santa Lucía Utatlán 	7	Santa Rita 	9	Septiembre	2023-12-09T00:00:00	2024-11-08T16:00:00	3	Temperatura mínima	19.4
116908	7	Sololá	704	Santa Lucía Utatlán 	7	Santa Rita 	9	Septiembre	2023-12-09T00:00:00	2024-11-08T16:00:00	5	Humedad	91
116909	7	Sololá	704	Santa Lucía Utatlán 	7	Santa Rita 	9	Septiembre	2023-12-09T00:00:00	2024-11-08T16:00:00	6	Velocidad del viento	1.6
116910	7	Sololá	704	Santa Lucía Utatlán 	7	Santa Rita 	9	Septiembre	2023-12-09T00:00:00	2024-11-08T16:00:00	7	Dirección del viento	1.61
116911	7	Sololá	704	Santa Lucía Utatlán 	7	Santa Rita 	9	Septiembre	2023-12-09T00:00:00	2024-11-08T16:00:00	1	Precipitación	0
116912	7	Sololá	704	Santa Lucía Utatlán 	7	Santa Rita 	9	Septiembre	2023-12-09T00:00:00	2024-11-08T16:00:00	8	Radiación solar	154
116913	7	Sololá	704	Santa Lucía Utatlán 	7	Santa Rita 	9	Septiembre	2023-12-09T00:00:00	2024-11-08T17:00:00	2	Temperatura media	19.4
116914	7	Sololá	704	Santa Lucía Utatlán 	7	Santa Rita 	9	Septiembre	2023-12-09T00:00:00	2024-11-08T17:00:00	4	Temperatura máxima	19.5
116915	7	Sololá	704	Santa Lucía Utatlán 	7	Santa Rita 	9	Septiembre	2023-12-09T00:00:00	2024-11-08T17:00:00	3	Temperatura mínima	19.3
116916	7	Sololá	704	Santa Lucía Utatlán 	7	Santa Rita 	9	Septiembre	2023-12-09T00:00:00	2024-11-08T17:00:00	5	Humedad	93
116917	7	Sololá	704	Santa Lucía Utatlán 	7	Santa Rita 	9	Septiembre	2023-12-09T00:00:00	2024-11-08T17:00:00	6	Velocidad del viento	1.6
116918	7	Sololá	704	Santa Lucía Utatlán 	7	Santa Rita 	9	Septiembre	2023-12-09T00:00:00	2024-11-08T17:00:00	7	Dirección del viento	1.61
116919	7	Sololá	704	Santa Lucía Utatlán 	7	Santa Rita 	9	Septiembre	2023-12-09T00:00:00	2024-11-08T17:00:00	1	Precipitación	0
116920	7	Sololá	704	Santa Lucía Utatlán 	7	Santa Rita 	9	Septiembre	2023-12-09T00:00:00	2024-11-08T17:00:00	8	Radiación solar	98
116921	7	Sololá	704	Santa Lucía Utatlán 	7	Santa Rita 	9	Septiembre	2023-12-09T00:00:00	2024-11-08T18:00:00	2	Temperatura media	19.2
116922	7	Sololá	704	Santa Lucía Utatlán 	7	Santa Rita 	9	Septiembre	2023-12-09T00:00:00	2024-11-08T18:00:00	4	Temperatura máxima	19.4
116923	7	Sololá	704	Santa Lucía Utatlán 	7	Santa Rita 	9	Septiembre	2023-12-09T00:00:00	2024-11-08T18:00:00	3	Temperatura mínima	19.1
116924	7	Sololá	704	Santa Lucía Utatlán 	7	Santa Rita 	9	Septiembre	2023-12-09T00:00:00	2024-11-08T18:00:00	5	Humedad	92
116925	7	Sololá	704	Santa Lucía Utatlán 	7	Santa Rita 	9	Septiembre	2023-12-09T00:00:00	2024-11-08T18:00:00	6	Velocidad del viento	1.6
116926	7	Sololá	704	Santa Lucía Utatlán 	7	Santa Rita 	9	Septiembre	2023-12-09T00:00:00	2024-11-08T18:00:00	7	Dirección del viento	1.61
116927	7	Sololá	704	Santa Lucía Utatlán 	7	Santa Rita 	9	Septiembre	2023-12-09T00:00:00	2024-11-08T18:00:00	1	Precipitación	0
116928	7	Sololá	704	Santa Lucía Utatlán 	7	Santa Rita 	9	Septiembre	2023-12-09T00:00:00	2024-11-08T18:00:00	8	Radiación solar	25
116929	7	Sololá	704	Santa Lucía Utatlán 	7	Santa Rita 	9	Septiembre	2023-12-09T00:00:00	2024-11-08T19:00:00	2	Temperatura media	18.8
116930	7	Sololá	704	Santa Lucía Utatlán 	7	Santa Rita 	9	Septiembre	2023-12-09T00:00:00	2024-11-08T19:00:00	4	Temperatura máxima	19.2
116931	7	Sololá	704	Santa Lucía Utatlán 	7	Santa Rita 	9	Septiembre	2023-12-09T00:00:00	2024-11-08T19:00:00	3	Temperatura mínima	18.6
116932	7	Sololá	704	Santa Lucía Utatlán 	7	Santa Rita 	9	Septiembre	2023-12-09T00:00:00	2024-11-08T19:00:00	5	Humedad	94
116933	7	Sololá	704	Santa Lucía Utatlán 	7	Santa Rita 	9	Septiembre	2023-12-09T00:00:00	2024-11-08T19:00:00	6	Velocidad del viento	3.2
116934	7	Sololá	704	Santa Lucía Utatlán 	7	Santa Rita 	9	Septiembre	2023-12-09T00:00:00	2024-11-08T19:00:00	7	Dirección del viento	3.22
116935	7	Sololá	704	Santa Lucía Utatlán 	7	Santa Rita 	9	Septiembre	2023-12-09T00:00:00	2024-11-08T19:00:00	1	Precipitación	0
116936	7	Sololá	704	Santa Lucía Utatlán 	7	Santa Rita 	9	Septiembre	2023-12-09T00:00:00	2024-11-08T19:00:00	8	Radiación solar	0
116937	7	Sololá	704	Santa Lucía Utatlán 	7	Santa Rita 	9	Septiembre	2023-12-09T00:00:00	2024-11-08T20:00:00	2	Temperatura media	19.2
116938	7	Sololá	704	Santa Lucía Utatlán 	7	Santa Rita 	9	Septiembre	2023-12-09T00:00:00	2024-11-08T20:00:00	4	Temperatura máxima	19.2
116939	7	Sololá	704	Santa Lucía Utatlán 	7	Santa Rita 	9	Septiembre	2023-12-09T00:00:00	2024-11-08T20:00:00	3	Temperatura mínima	18.8
116940	7	Sololá	704	Santa Lucía Utatlán 	7	Santa Rita 	9	Septiembre	2023-12-09T00:00:00	2024-11-08T20:00:00	5	Humedad	94
116941	7	Sololá	704	Santa Lucía Utatlán 	7	Santa Rita 	9	Septiembre	2023-12-09T00:00:00	2024-11-08T20:00:00	6	Velocidad del viento	0
116942	7	Sololá	704	Santa Lucía Utatlán 	7	Santa Rita 	9	Septiembre	2023-12-09T00:00:00	2024-11-08T20:00:00	7	Dirección del viento	0
116943	7	Sololá	704	Santa Lucía Utatlán 	7	Santa Rita 	9	Septiembre	2023-12-09T00:00:00	2024-11-08T20:00:00	1	Precipitación	0
116944	7	Sololá	704	Santa Lucía Utatlán 	7	Santa Rita 	9	Septiembre	2023-12-09T00:00:00	2024-11-08T20:00:00	8	Radiación solar	0
116945	7	Sololá	704	Santa Lucía Utatlán 	7	Santa Rita 	9	Septiembre	2023-12-09T00:00:00	2024-11-08T21:00:00	2	Temperatura media	18.7
116946	7	Sololá	704	Santa Lucía Utatlán 	7	Santa Rita 	9	Septiembre	2023-12-09T00:00:00	2024-11-08T21:00:00	4	Temperatura máxima	19.4
116947	7	Sololá	704	Santa Lucía Utatlán 	7	Santa Rita 	9	Septiembre	2023-12-09T00:00:00	2024-11-08T21:00:00	3	Temperatura mínima	18.7
116948	7	Sololá	704	Santa Lucía Utatlán 	7	Santa Rita 	9	Septiembre	2023-12-09T00:00:00	2024-11-08T21:00:00	5	Humedad	93
116949	7	Sololá	704	Santa Lucía Utatlán 	7	Santa Rita 	9	Septiembre	2023-12-09T00:00:00	2024-11-08T21:00:00	6	Velocidad del viento	1.6
116950	7	Sololá	704	Santa Lucía Utatlán 	7	Santa Rita 	9	Septiembre	2023-12-09T00:00:00	2024-11-08T21:00:00	7	Dirección del viento	1.61
116951	7	Sololá	704	Santa Lucía Utatlán 	7	Santa Rita 	9	Septiembre	2023-12-09T00:00:00	2024-11-08T21:00:00	1	Precipitación	0
116952	7	Sololá	704	Santa Lucía Utatlán 	7	Santa Rita 	9	Septiembre	2023-12-09T00:00:00	2024-11-08T21:00:00	8	Radiación solar	0
116953	7	Sololá	704	Santa Lucía Utatlán 	7	Santa Rita 	9	Septiembre	2023-12-09T00:00:00	2024-11-08T22:00:00	2	Temperatura media	18.7
116954	7	Sololá	704	Santa Lucía Utatlán 	7	Santa Rita 	9	Septiembre	2023-12-09T00:00:00	2024-11-08T22:00:00	4	Temperatura máxima	18.8
116955	7	Sololá	704	Santa Lucía Utatlán 	7	Santa Rita 	9	Septiembre	2023-12-09T00:00:00	2024-11-08T22:00:00	3	Temperatura mínima	18.6
116956	7	Sololá	704	Santa Lucía Utatlán 	7	Santa Rita 	9	Septiembre	2023-12-09T00:00:00	2024-11-08T22:00:00	5	Humedad	95
116957	7	Sololá	704	Santa Lucía Utatlán 	7	Santa Rita 	9	Septiembre	2023-12-09T00:00:00	2024-11-08T22:00:00	6	Velocidad del viento	1.6
116958	7	Sololá	704	Santa Lucía Utatlán 	7	Santa Rita 	9	Septiembre	2023-12-09T00:00:00	2024-11-08T22:00:00	7	Dirección del viento	1.61
116959	7	Sololá	704	Santa Lucía Utatlán 	7	Santa Rita 	9	Septiembre	2023-12-09T00:00:00	2024-11-08T22:00:00	1	Precipitación	0.4
116960	7	Sololá	704	Santa Lucía Utatlán 	7	Santa Rita 	9	Septiembre	2023-12-09T00:00:00	2024-11-08T22:00:00	8	Radiación solar	0
116961	7	Sololá	704	Santa Lucía Utatlán 	7	Santa Rita 	9	Septiembre	2023-12-09T00:00:00	2024-11-08T23:00:00	2	Temperatura media	18
116962	7	Sololá	704	Santa Lucía Utatlán 	7	Santa Rita 	9	Septiembre	2023-12-09T00:00:00	2024-11-08T23:00:00	4	Temperatura máxima	18.7
116963	7	Sololá	704	Santa Lucía Utatlán 	7	Santa Rita 	9	Septiembre	2023-12-09T00:00:00	2024-11-08T23:00:00	3	Temperatura mínima	17.9
116964	7	Sololá	704	Santa Lucía Utatlán 	7	Santa Rita 	9	Septiembre	2023-12-09T00:00:00	2024-11-08T23:00:00	5	Humedad	95
116965	7	Sololá	704	Santa Lucía Utatlán 	7	Santa Rita 	9	Septiembre	2023-12-09T00:00:00	2024-11-08T23:00:00	6	Velocidad del viento	1.6
116966	7	Sololá	704	Santa Lucía Utatlán 	7	Santa Rita 	9	Septiembre	2023-12-09T00:00:00	2024-11-08T23:00:00	7	Dirección del viento	1.61
116967	7	Sololá	704	Santa Lucía Utatlán 	7	Santa Rita 	9	Septiembre	2023-12-09T00:00:00	2024-11-08T23:00:00	1	Precipitación	0
116968	7	Sololá	704	Santa Lucía Utatlán 	7	Santa Rita 	9	Septiembre	2023-12-09T00:00:00	2024-11-08T23:00:00	8	Radiación solar	0
116969	7	Sololá	704	Santa Lucía Utatlán 	7	Santa Rita 	9	Septiembre	2023-09-13T00:00:00	2024-11-08T00:00:00	2	Temperatura media	17.6
116970	7	Sololá	704	Santa Lucía Utatlán 	7	Santa Rita 	9	Septiembre	2023-09-13T00:00:00	2024-11-08T00:00:00	4	Temperatura máxima	18
116971	7	Sololá	704	Santa Lucía Utatlán 	7	Santa Rita 	9	Septiembre	2023-09-13T00:00:00	2024-11-08T00:00:00	3	Temperatura mínima	17.6
116972	7	Sololá	704	Santa Lucía Utatlán 	7	Santa Rita 	9	Septiembre	2023-09-13T00:00:00	2024-11-08T00:00:00	5	Humedad	94
116973	7	Sololá	704	Santa Lucía Utatlán 	7	Santa Rita 	9	Septiembre	2023-09-13T00:00:00	2024-11-08T00:00:00	6	Velocidad del viento	1.6
116974	7	Sololá	704	Santa Lucía Utatlán 	7	Santa Rita 	9	Septiembre	2023-09-13T00:00:00	2024-11-08T00:00:00	7	Dirección del viento	1.61
116975	7	Sololá	704	Santa Lucía Utatlán 	7	Santa Rita 	9	Septiembre	2023-09-13T00:00:00	2024-11-08T00:00:00	1	Precipitación	0
116976	7	Sololá	704	Santa Lucía Utatlán 	7	Santa Rita 	9	Septiembre	2023-09-13T00:00:00	2024-11-08T00:00:00	8	Radiación solar	0
116977	7	Sololá	704	Santa Lucía Utatlán 	7	Santa Rita 	9	Septiembre	2023-09-13T00:00:00	2024-11-08T01:00:00	2	Temperatura media	19.6
116978	7	Sololá	704	Santa Lucía Utatlán 	7	Santa Rita 	9	Septiembre	2023-09-13T00:00:00	2024-11-08T01:00:00	4	Temperatura máxima	19.8
116979	7	Sololá	704	Santa Lucía Utatlán 	7	Santa Rita 	9	Septiembre	2023-09-13T00:00:00	2024-11-08T01:00:00	3	Temperatura mínima	17.5
116980	7	Sololá	704	Santa Lucía Utatlán 	7	Santa Rita 	9	Septiembre	2023-09-13T00:00:00	2024-11-08T01:00:00	5	Humedad	83
116981	7	Sololá	704	Santa Lucía Utatlán 	7	Santa Rita 	9	Septiembre	2023-09-13T00:00:00	2024-11-08T01:00:00	6	Velocidad del viento	3.2
116982	7	Sololá	704	Santa Lucía Utatlán 	7	Santa Rita 	9	Septiembre	2023-09-13T00:00:00	2024-11-08T01:00:00	7	Dirección del viento	3.22
116983	7	Sololá	704	Santa Lucía Utatlán 	7	Santa Rita 	9	Septiembre	2023-09-13T00:00:00	2024-11-08T01:00:00	1	Precipitación	0
116984	7	Sololá	704	Santa Lucía Utatlán 	7	Santa Rita 	9	Septiembre	2023-09-13T00:00:00	2024-11-08T01:00:00	8	Radiación solar	0
116985	7	Sololá	704	Santa Lucía Utatlán 	7	Santa Rita 	9	Septiembre	2023-09-13T00:00:00	2024-11-08T02:00:00	2	Temperatura media	18.9
116986	7	Sololá	704	Santa Lucía Utatlán 	7	Santa Rita 	9	Septiembre	2023-09-13T00:00:00	2024-11-08T02:00:00	4	Temperatura máxima	19.6
116987	7	Sololá	704	Santa Lucía Utatlán 	7	Santa Rita 	9	Septiembre	2023-09-13T00:00:00	2024-11-08T02:00:00	3	Temperatura mínima	17.9
116988	7	Sololá	704	Santa Lucía Utatlán 	7	Santa Rita 	9	Septiembre	2023-09-13T00:00:00	2024-11-08T02:00:00	5	Humedad	92
116989	7	Sololá	704	Santa Lucía Utatlán 	7	Santa Rita 	9	Septiembre	2023-09-13T00:00:00	2024-11-08T02:00:00	6	Velocidad del viento	1.6
116990	7	Sololá	704	Santa Lucía Utatlán 	7	Santa Rita 	9	Septiembre	2023-09-13T00:00:00	2024-11-08T02:00:00	7	Dirección del viento	1.61
116991	7	Sololá	704	Santa Lucía Utatlán 	7	Santa Rita 	9	Septiembre	2023-09-13T00:00:00	2024-11-08T02:00:00	1	Precipitación	0
116992	7	Sololá	704	Santa Lucía Utatlán 	7	Santa Rita 	9	Septiembre	2023-09-13T00:00:00	2024-11-08T02:00:00	8	Radiación solar	0
116993	7	Sololá	704	Santa Lucía Utatlán 	7	Santa Rita 	9	Septiembre	2023-09-13T00:00:00	2024-11-08T03:00:00	2	Temperatura media	21.3
116994	7	Sololá	704	Santa Lucía Utatlán 	7	Santa Rita 	9	Septiembre	2023-09-13T00:00:00	2024-11-08T03:00:00	4	Temperatura máxima	21.3
116995	7	Sololá	704	Santa Lucía Utatlán 	7	Santa Rita 	9	Septiembre	2023-09-13T00:00:00	2024-11-08T03:00:00	3	Temperatura mínima	18.9
116996	7	Sololá	704	Santa Lucía Utatlán 	7	Santa Rita 	9	Septiembre	2023-09-13T00:00:00	2024-11-08T03:00:00	5	Humedad	86
116997	7	Sololá	704	Santa Lucía Utatlán 	7	Santa Rita 	9	Septiembre	2023-09-13T00:00:00	2024-11-08T03:00:00	6	Velocidad del viento	1.6
116998	7	Sololá	704	Santa Lucía Utatlán 	7	Santa Rita 	9	Septiembre	2023-09-13T00:00:00	2024-11-08T03:00:00	7	Dirección del viento	1.61
116999	7	Sololá	704	Santa Lucía Utatlán 	7	Santa Rita 	9	Septiembre	2023-09-13T00:00:00	2024-11-08T03:00:00	1	Precipitación	0
117000	7	Sololá	704	Santa Lucía Utatlán 	7	Santa Rita 	9	Septiembre	2023-09-13T00:00:00	2024-11-08T03:00:00	8	Radiación solar	0
117001	7	Sololá	704	Santa Lucía Utatlán 	7	Santa Rita 	9	Septiembre	2023-09-13T00:00:00	2024-11-08T04:00:00	2	Temperatura media	25.5
117002	7	Sololá	704	Santa Lucía Utatlán 	7	Santa Rita 	9	Septiembre	2023-09-13T00:00:00	2024-11-08T04:00:00	4	Temperatura máxima	25.6
117003	7	Sololá	704	Santa Lucía Utatlán 	7	Santa Rita 	9	Septiembre	2023-09-13T00:00:00	2024-11-08T04:00:00	3	Temperatura mínima	21.3
117004	7	Sololá	704	Santa Lucía Utatlán 	7	Santa Rita 	9	Septiembre	2023-09-13T00:00:00	2024-11-08T04:00:00	5	Humedad	73
117005	7	Sololá	704	Santa Lucía Utatlán 	7	Santa Rita 	9	Septiembre	2023-09-13T00:00:00	2024-11-08T04:00:00	6	Velocidad del viento	3.2
117006	7	Sololá	704	Santa Lucía Utatlán 	7	Santa Rita 	9	Septiembre	2023-09-13T00:00:00	2024-11-08T04:00:00	7	Dirección del viento	3.22
117007	7	Sololá	704	Santa Lucía Utatlán 	7	Santa Rita 	9	Septiembre	2023-09-13T00:00:00	2024-11-08T04:00:00	1	Precipitación	0
117008	7	Sololá	704	Santa Lucía Utatlán 	7	Santa Rita 	9	Septiembre	2023-09-13T00:00:00	2024-11-08T04:00:00	8	Radiación solar	0
117009	7	Sololá	704	Santa Lucía Utatlán 	7	Santa Rita 	9	Septiembre	2023-09-13T00:00:00	2024-11-08T05:00:00	2	Temperatura media	25.3
117010	7	Sololá	704	Santa Lucía Utatlán 	7	Santa Rita 	9	Septiembre	2023-09-13T00:00:00	2024-11-08T05:00:00	4	Temperatura máxima	26.1
117011	7	Sololá	704	Santa Lucía Utatlán 	7	Santa Rita 	9	Septiembre	2023-09-13T00:00:00	2024-11-08T05:00:00	3	Temperatura mínima	25.1
117012	7	Sololá	704	Santa Lucía Utatlán 	7	Santa Rita 	9	Septiembre	2023-09-13T00:00:00	2024-11-08T05:00:00	5	Humedad	71
117013	7	Sololá	704	Santa Lucía Utatlán 	7	Santa Rita 	9	Septiembre	2023-09-13T00:00:00	2024-11-08T05:00:00	6	Velocidad del viento	6.4
117014	7	Sololá	704	Santa Lucía Utatlán 	7	Santa Rita 	9	Septiembre	2023-09-13T00:00:00	2024-11-08T05:00:00	7	Dirección del viento	6.44
117015	7	Sololá	704	Santa Lucía Utatlán 	7	Santa Rita 	9	Septiembre	2023-09-13T00:00:00	2024-11-08T05:00:00	1	Precipitación	0
117016	7	Sololá	704	Santa Lucía Utatlán 	7	Santa Rita 	9	Septiembre	2023-09-13T00:00:00	2024-11-08T05:00:00	8	Radiación solar	0
117017	7	Sololá	704	Santa Lucía Utatlán 	7	Santa Rita 	9	Septiembre	2023-09-13T00:00:00	2024-11-08T06:00:00	2	Temperatura media	24.8
117018	7	Sololá	704	Santa Lucía Utatlán 	7	Santa Rita 	9	Septiembre	2023-09-13T00:00:00	2024-11-08T06:00:00	4	Temperatura máxima	25.9
117019	7	Sololá	704	Santa Lucía Utatlán 	7	Santa Rita 	9	Septiembre	2023-09-13T00:00:00	2024-11-08T06:00:00	3	Temperatura mínima	24.7
117020	7	Sololá	704	Santa Lucía Utatlán 	7	Santa Rita 	9	Septiembre	2023-09-13T00:00:00	2024-11-08T06:00:00	5	Humedad	73
117021	7	Sololá	704	Santa Lucía Utatlán 	7	Santa Rita 	9	Septiembre	2023-09-13T00:00:00	2024-11-08T06:00:00	6	Velocidad del viento	8
117022	7	Sololá	704	Santa Lucía Utatlán 	7	Santa Rita 	9	Septiembre	2023-09-13T00:00:00	2024-11-08T06:00:00	7	Dirección del viento	8.05
117023	7	Sololá	704	Santa Lucía Utatlán 	7	Santa Rita 	9	Septiembre	2023-09-13T00:00:00	2024-11-08T06:00:00	1	Precipitación	0
117024	7	Sololá	704	Santa Lucía Utatlán 	7	Santa Rita 	9	Septiembre	2023-09-13T00:00:00	2024-11-08T06:00:00	8	Radiación solar	2
117025	7	Sololá	704	Santa Lucía Utatlán 	7	Santa Rita 	9	Septiembre	2023-09-13T00:00:00	2024-11-08T07:00:00	2	Temperatura media	26.1
117026	7	Sololá	704	Santa Lucía Utatlán 	7	Santa Rita 	9	Septiembre	2023-09-13T00:00:00	2024-11-08T07:00:00	4	Temperatura máxima	26.3
117027	7	Sololá	704	Santa Lucía Utatlán 	7	Santa Rita 	9	Septiembre	2023-09-13T00:00:00	2024-11-08T07:00:00	3	Temperatura mínima	24.8
117028	7	Sololá	704	Santa Lucía Utatlán 	7	Santa Rita 	9	Septiembre	2023-09-13T00:00:00	2024-11-08T07:00:00	5	Humedad	71
117029	7	Sololá	704	Santa Lucía Utatlán 	7	Santa Rita 	9	Septiembre	2023-09-13T00:00:00	2024-11-08T07:00:00	6	Velocidad del viento	9.7
117030	7	Sololá	704	Santa Lucía Utatlán 	7	Santa Rita 	9	Septiembre	2023-09-13T00:00:00	2024-11-08T07:00:00	7	Dirección del viento	9.66
117031	7	Sololá	704	Santa Lucía Utatlán 	7	Santa Rita 	9	Septiembre	2023-09-13T00:00:00	2024-11-08T07:00:00	1	Precipitación	0
117032	7	Sololá	704	Santa Lucía Utatlán 	7	Santa Rita 	9	Septiembre	2023-09-13T00:00:00	2024-11-08T07:00:00	8	Radiación solar	73
117033	7	Sololá	704	Santa Lucía Utatlán 	7	Santa Rita 	9	Septiembre	2023-09-13T00:00:00	2024-11-08T08:00:00	2	Temperatura media	25.8
117034	7	Sololá	704	Santa Lucía Utatlán 	7	Santa Rita 	9	Septiembre	2023-09-13T00:00:00	2024-11-08T08:00:00	4	Temperatura máxima	26.1
117035	7	Sololá	704	Santa Lucía Utatlán 	7	Santa Rita 	9	Septiembre	2023-09-13T00:00:00	2024-11-08T08:00:00	3	Temperatura mínima	25.1
117036	7	Sololá	704	Santa Lucía Utatlán 	7	Santa Rita 	9	Septiembre	2023-09-13T00:00:00	2024-11-08T08:00:00	5	Humedad	76
117037	7	Sololá	704	Santa Lucía Utatlán 	7	Santa Rita 	9	Septiembre	2023-09-13T00:00:00	2024-11-08T08:00:00	6	Velocidad del viento	9.7
117038	7	Sololá	704	Santa Lucía Utatlán 	7	Santa Rita 	9	Septiembre	2023-09-13T00:00:00	2024-11-08T08:00:00	7	Dirección del viento	9.66
117039	7	Sololá	704	Santa Lucía Utatlán 	7	Santa Rita 	9	Septiembre	2023-09-13T00:00:00	2024-11-08T08:00:00	1	Precipitación	0
117040	7	Sololá	704	Santa Lucía Utatlán 	7	Santa Rita 	9	Septiembre	2023-09-13T00:00:00	2024-11-08T08:00:00	8	Radiación solar	153
117041	7	Sololá	704	Santa Lucía Utatlán 	7	Santa Rita 	9	Septiembre	2023-09-13T00:00:00	2024-11-08T09:00:00	2	Temperatura media	23.5
117042	7	Sololá	704	Santa Lucía Utatlán 	7	Santa Rita 	9	Septiembre	2023-09-13T00:00:00	2024-11-08T09:00:00	4	Temperatura máxima	25.9
117043	7	Sololá	704	Santa Lucía Utatlán 	7	Santa Rita 	9	Septiembre	2023-09-13T00:00:00	2024-11-08T09:00:00	3	Temperatura mínima	23.5
117044	7	Sololá	704	Santa Lucía Utatlán 	7	Santa Rita 	9	Septiembre	2023-09-13T00:00:00	2024-11-08T09:00:00	5	Humedad	85
117045	7	Sololá	704	Santa Lucía Utatlán 	7	Santa Rita 	9	Septiembre	2023-09-13T00:00:00	2024-11-08T09:00:00	6	Velocidad del viento	8
117046	7	Sololá	704	Santa Lucía Utatlán 	7	Santa Rita 	9	Septiembre	2023-09-13T00:00:00	2024-11-08T09:00:00	7	Dirección del viento	8.05
117047	7	Sololá	704	Santa Lucía Utatlán 	7	Santa Rita 	9	Septiembre	2023-09-13T00:00:00	2024-11-08T09:00:00	1	Precipitación	0
117048	7	Sololá	704	Santa Lucía Utatlán 	7	Santa Rita 	9	Septiembre	2023-09-13T00:00:00	2024-11-08T09:00:00	8	Radiación solar	638
117049	7	Sololá	704	Santa Lucía Utatlán 	7	Santa Rita 	9	Septiembre	2023-09-13T00:00:00	2024-11-08T10:00:00	2	Temperatura media	22.6
117050	7	Sololá	704	Santa Lucía Utatlán 	7	Santa Rita 	9	Septiembre	2023-09-13T00:00:00	2024-11-08T10:00:00	4	Temperatura máxima	23.5
117051	7	Sololá	704	Santa Lucía Utatlán 	7	Santa Rita 	9	Septiembre	2023-09-13T00:00:00	2024-11-08T10:00:00	3	Temperatura mínima	22.2
117052	7	Sololá	704	Santa Lucía Utatlán 	7	Santa Rita 	9	Septiembre	2023-09-13T00:00:00	2024-11-08T10:00:00	5	Humedad	84
117053	7	Sololá	704	Santa Lucía Utatlán 	7	Santa Rita 	9	Septiembre	2023-09-13T00:00:00	2024-11-08T10:00:00	6	Velocidad del viento	3.2
117054	7	Sololá	704	Santa Lucía Utatlán 	7	Santa Rita 	9	Septiembre	2023-09-13T00:00:00	2024-11-08T10:00:00	7	Dirección del viento	3.22
117055	7	Sololá	704	Santa Lucía Utatlán 	7	Santa Rita 	9	Septiembre	2023-09-13T00:00:00	2024-11-08T10:00:00	1	Precipitación	0
117056	7	Sololá	704	Santa Lucía Utatlán 	7	Santa Rita 	9	Septiembre	2023-09-13T00:00:00	2024-11-08T10:00:00	8	Radiación solar	837
117057	7	Sololá	704	Santa Lucía Utatlán 	7	Santa Rita 	9	Septiembre	2023-09-13T00:00:00	2024-11-08T11:00:00	2	Temperatura media	21.4
117058	7	Sololá	704	Santa Lucía Utatlán 	7	Santa Rita 	9	Septiembre	2023-09-13T00:00:00	2024-11-08T11:00:00	4	Temperatura máxima	22.6
117059	7	Sololá	704	Santa Lucía Utatlán 	7	Santa Rita 	9	Septiembre	2023-09-13T00:00:00	2024-11-08T11:00:00	3	Temperatura mínima	21.4
117060	7	Sololá	704	Santa Lucía Utatlán 	7	Santa Rita 	9	Septiembre	2023-09-13T00:00:00	2024-11-08T11:00:00	5	Humedad	89
117061	7	Sololá	704	Santa Lucía Utatlán 	7	Santa Rita 	9	Septiembre	2023-09-13T00:00:00	2024-11-08T11:00:00	6	Velocidad del viento	3.2
117062	7	Sololá	704	Santa Lucía Utatlán 	7	Santa Rita 	9	Septiembre	2023-09-13T00:00:00	2024-11-08T11:00:00	7	Dirección del viento	3.22
117063	7	Sololá	704	Santa Lucía Utatlán 	7	Santa Rita 	9	Septiembre	2023-09-13T00:00:00	2024-11-08T11:00:00	1	Precipitación	0.4
117064	7	Sololá	704	Santa Lucía Utatlán 	7	Santa Rita 	9	Septiembre	2023-09-13T00:00:00	2024-11-08T11:00:00	8	Radiación solar	918
117065	7	Sololá	704	Santa Lucía Utatlán 	7	Santa Rita 	9	Septiembre	2023-09-13T00:00:00	2024-11-08T12:00:00	2	Temperatura media	22.4
117066	7	Sololá	704	Santa Lucía Utatlán 	7	Santa Rita 	9	Septiembre	2023-09-13T00:00:00	2024-11-08T12:00:00	4	Temperatura máxima	22.4
117067	7	Sololá	704	Santa Lucía Utatlán 	7	Santa Rita 	9	Septiembre	2023-09-13T00:00:00	2024-11-08T12:00:00	3	Temperatura mínima	21.4
117068	7	Sololá	704	Santa Lucía Utatlán 	7	Santa Rita 	9	Septiembre	2023-09-13T00:00:00	2024-11-08T12:00:00	5	Humedad	86
117069	7	Sololá	704	Santa Lucía Utatlán 	7	Santa Rita 	9	Septiembre	2023-09-13T00:00:00	2024-11-08T12:00:00	6	Velocidad del viento	1.6
117070	7	Sololá	704	Santa Lucía Utatlán 	7	Santa Rita 	9	Septiembre	2023-09-13T00:00:00	2024-11-08T12:00:00	7	Dirección del viento	1.61
117071	7	Sololá	704	Santa Lucía Utatlán 	7	Santa Rita 	9	Septiembre	2023-09-13T00:00:00	2024-11-08T12:00:00	1	Precipitación	0
117072	7	Sololá	704	Santa Lucía Utatlán 	7	Santa Rita 	9	Septiembre	2023-09-13T00:00:00	2024-11-08T12:00:00	8	Radiación solar	1083
117073	7	Sololá	704	Santa Lucía Utatlán 	7	Santa Rita 	9	Septiembre	2023-09-13T00:00:00	2024-11-08T13:00:00	2	Temperatura media	21.3
117074	7	Sololá	704	Santa Lucía Utatlán 	7	Santa Rita 	9	Septiembre	2023-09-13T00:00:00	2024-11-08T13:00:00	4	Temperatura máxima	22.4
117075	7	Sololá	704	Santa Lucía Utatlán 	7	Santa Rita 	9	Septiembre	2023-09-13T00:00:00	2024-11-08T13:00:00	3	Temperatura mínima	21.3
117076	7	Sololá	704	Santa Lucía Utatlán 	7	Santa Rita 	9	Septiembre	2023-09-13T00:00:00	2024-11-08T13:00:00	5	Humedad	93
117077	7	Sololá	704	Santa Lucía Utatlán 	7	Santa Rita 	9	Septiembre	2023-09-13T00:00:00	2024-11-08T13:00:00	6	Velocidad del viento	1.6
117078	7	Sololá	704	Santa Lucía Utatlán 	7	Santa Rita 	9	Septiembre	2023-09-13T00:00:00	2024-11-08T13:00:00	7	Dirección del viento	1.61
117079	7	Sololá	704	Santa Lucía Utatlán 	7	Santa Rita 	9	Septiembre	2023-09-13T00:00:00	2024-11-08T13:00:00	1	Precipitación	0.4
117080	7	Sololá	704	Santa Lucía Utatlán 	7	Santa Rita 	9	Septiembre	2023-09-13T00:00:00	2024-11-08T13:00:00	8	Radiación solar	951
117081	7	Sololá	704	Santa Lucía Utatlán 	7	Santa Rita 	9	Septiembre	2023-09-13T00:00:00	2024-11-08T14:00:00	2	Temperatura media	20.8
117082	7	Sololá	704	Santa Lucía Utatlán 	7	Santa Rita 	9	Septiembre	2023-09-13T00:00:00	2024-11-08T14:00:00	4	Temperatura máxima	21.3
117083	7	Sololá	704	Santa Lucía Utatlán 	7	Santa Rita 	9	Septiembre	2023-09-13T00:00:00	2024-11-08T14:00:00	3	Temperatura mínima	20.8
117084	7	Sololá	704	Santa Lucía Utatlán 	7	Santa Rita 	9	Septiembre	2023-09-13T00:00:00	2024-11-08T14:00:00	5	Humedad	93
117085	7	Sololá	704	Santa Lucía Utatlán 	7	Santa Rita 	9	Septiembre	2023-09-13T00:00:00	2024-11-08T14:00:00	6	Velocidad del viento	1.6
117086	7	Sololá	704	Santa Lucía Utatlán 	7	Santa Rita 	9	Septiembre	2023-09-13T00:00:00	2024-11-08T14:00:00	7	Dirección del viento	1.61
117087	7	Sololá	704	Santa Lucía Utatlán 	7	Santa Rita 	9	Septiembre	2023-09-13T00:00:00	2024-11-08T14:00:00	1	Precipitación	0.4
117088	7	Sololá	704	Santa Lucía Utatlán 	7	Santa Rita 	9	Septiembre	2023-09-13T00:00:00	2024-11-08T14:00:00	8	Radiación solar	253
117089	7	Sololá	704	Santa Lucía Utatlán 	7	Santa Rita 	9	Septiembre	2023-09-13T00:00:00	2024-11-08T15:00:00	2	Temperatura media	19.9
117090	7	Sololá	704	Santa Lucía Utatlán 	7	Santa Rita 	9	Septiembre	2023-09-13T00:00:00	2024-11-08T15:00:00	4	Temperatura máxima	20.9
117091	7	Sololá	704	Santa Lucía Utatlán 	7	Santa Rita 	9	Septiembre	2023-09-13T00:00:00	2024-11-08T15:00:00	3	Temperatura mínima	19.9
117092	7	Sololá	704	Santa Lucía Utatlán 	7	Santa Rita 	9	Septiembre	2023-09-13T00:00:00	2024-11-08T15:00:00	5	Humedad	94
117093	7	Sololá	704	Santa Lucía Utatlán 	7	Santa Rita 	9	Septiembre	2023-09-13T00:00:00	2024-11-08T15:00:00	6	Velocidad del viento	1.6
117094	7	Sololá	704	Santa Lucía Utatlán 	7	Santa Rita 	9	Septiembre	2023-09-13T00:00:00	2024-11-08T15:00:00	7	Dirección del viento	1.61
117095	7	Sololá	704	Santa Lucía Utatlán 	7	Santa Rita 	9	Septiembre	2023-09-13T00:00:00	2024-11-08T15:00:00	1	Precipitación	2.8
117096	7	Sololá	704	Santa Lucía Utatlán 	7	Santa Rita 	9	Septiembre	2023-09-13T00:00:00	2024-11-08T15:00:00	8	Radiación solar	63
117097	7	Sololá	704	Santa Lucía Utatlán 	7	Santa Rita 	9	Septiembre	2023-09-13T00:00:00	2024-11-08T16:00:00	2	Temperatura media	19.9
117098	7	Sololá	704	Santa Lucía Utatlán 	7	Santa Rita 	9	Septiembre	2023-09-13T00:00:00	2024-11-08T16:00:00	4	Temperatura máxima	20
117099	7	Sololá	704	Santa Lucía Utatlán 	7	Santa Rita 	9	Septiembre	2023-09-13T00:00:00	2024-11-08T16:00:00	3	Temperatura mínima	19.8
117100	7	Sololá	704	Santa Lucía Utatlán 	7	Santa Rita 	9	Septiembre	2023-09-13T00:00:00	2024-11-08T16:00:00	5	Humedad	96
117101	7	Sololá	704	Santa Lucía Utatlán 	7	Santa Rita 	9	Septiembre	2023-09-13T00:00:00	2024-11-08T16:00:00	6	Velocidad del viento	0
117102	7	Sololá	704	Santa Lucía Utatlán 	7	Santa Rita 	9	Septiembre	2023-09-13T00:00:00	2024-11-08T16:00:00	7	Dirección del viento	0
117103	7	Sololá	704	Santa Lucía Utatlán 	7	Santa Rita 	9	Septiembre	2023-09-13T00:00:00	2024-11-08T16:00:00	1	Precipitación	0.2
117104	7	Sololá	704	Santa Lucía Utatlán 	7	Santa Rita 	9	Septiembre	2023-09-13T00:00:00	2024-11-08T16:00:00	8	Radiación solar	59
117105	7	Sololá	704	Santa Lucía Utatlán 	7	Santa Rita 	9	Septiembre	2023-09-13T00:00:00	2024-11-08T17:00:00	2	Temperatura media	19.9
117106	7	Sololá	704	Santa Lucía Utatlán 	7	Santa Rita 	9	Septiembre	2023-09-13T00:00:00	2024-11-08T17:00:00	4	Temperatura máxima	19.9
117107	7	Sololá	704	Santa Lucía Utatlán 	7	Santa Rita 	9	Septiembre	2023-09-13T00:00:00	2024-11-08T17:00:00	3	Temperatura mínima	19.6
117108	7	Sololá	704	Santa Lucía Utatlán 	7	Santa Rita 	9	Septiembre	2023-09-13T00:00:00	2024-11-08T17:00:00	5	Humedad	91
117109	7	Sololá	704	Santa Lucía Utatlán 	7	Santa Rita 	9	Septiembre	2023-09-13T00:00:00	2024-11-08T17:00:00	6	Velocidad del viento	1.6
117110	7	Sololá	704	Santa Lucía Utatlán 	7	Santa Rita 	9	Septiembre	2023-09-13T00:00:00	2024-11-08T17:00:00	7	Dirección del viento	1.61
117111	7	Sololá	704	Santa Lucía Utatlán 	7	Santa Rita 	9	Septiembre	2023-09-13T00:00:00	2024-11-08T17:00:00	1	Precipitación	0
117112	7	Sololá	704	Santa Lucía Utatlán 	7	Santa Rita 	9	Septiembre	2023-09-13T00:00:00	2024-11-08T17:00:00	8	Radiación solar	173
117113	7	Sololá	704	Santa Lucía Utatlán 	7	Santa Rita 	9	Septiembre	2023-09-13T00:00:00	2024-11-08T18:00:00	2	Temperatura media	19.9
117114	7	Sololá	704	Santa Lucía Utatlán 	7	Santa Rita 	9	Septiembre	2023-09-13T00:00:00	2024-11-08T18:00:00	4	Temperatura máxima	20.3
117115	7	Sololá	704	Santa Lucía Utatlán 	7	Santa Rita 	9	Septiembre	2023-09-13T00:00:00	2024-11-08T18:00:00	3	Temperatura mínima	19.8
117116	7	Sololá	704	Santa Lucía Utatlán 	7	Santa Rita 	9	Septiembre	2023-09-13T00:00:00	2024-11-08T18:00:00	5	Humedad	87
117117	7	Sololá	704	Santa Lucía Utatlán 	7	Santa Rita 	9	Septiembre	2023-09-13T00:00:00	2024-11-08T18:00:00	6	Velocidad del viento	4.8
117118	7	Sololá	704	Santa Lucía Utatlán 	7	Santa Rita 	9	Septiembre	2023-09-13T00:00:00	2024-11-08T18:00:00	7	Dirección del viento	4.83
117119	7	Sololá	704	Santa Lucía Utatlán 	7	Santa Rita 	9	Septiembre	2023-09-13T00:00:00	2024-11-08T18:00:00	1	Precipitación	0.2
117120	7	Sololá	704	Santa Lucía Utatlán 	7	Santa Rita 	9	Septiembre	2023-09-13T00:00:00	2024-11-08T18:00:00	8	Radiación solar	50
117121	7	Sololá	704	Santa Lucía Utatlán 	7	Santa Rita 	9	Septiembre	2023-09-13T00:00:00	2024-11-08T19:00:00	2	Temperatura media	18.9
117122	7	Sololá	704	Santa Lucía Utatlán 	7	Santa Rita 	9	Septiembre	2023-09-13T00:00:00	2024-11-08T19:00:00	4	Temperatura máxima	19.8
117123	7	Sololá	704	Santa Lucía Utatlán 	7	Santa Rita 	9	Septiembre	2023-09-13T00:00:00	2024-11-08T19:00:00	3	Temperatura mínima	18.9
117124	7	Sololá	704	Santa Lucía Utatlán 	7	Santa Rita 	9	Septiembre	2023-09-13T00:00:00	2024-11-08T19:00:00	5	Humedad	93
117125	7	Sololá	704	Santa Lucía Utatlán 	7	Santa Rita 	9	Septiembre	2023-09-13T00:00:00	2024-11-08T19:00:00	6	Velocidad del viento	1.6
117126	7	Sololá	704	Santa Lucía Utatlán 	7	Santa Rita 	9	Septiembre	2023-09-13T00:00:00	2024-11-08T19:00:00	7	Dirección del viento	1.61
117127	7	Sololá	704	Santa Lucía Utatlán 	7	Santa Rita 	9	Septiembre	2023-09-13T00:00:00	2024-11-08T19:00:00	1	Precipitación	0
117128	7	Sololá	704	Santa Lucía Utatlán 	7	Santa Rita 	9	Septiembre	2023-09-13T00:00:00	2024-11-08T19:00:00	8	Radiación solar	0
117129	7	Sololá	704	Santa Lucía Utatlán 	7	Santa Rita 	9	Septiembre	2023-09-13T00:00:00	2024-11-08T20:00:00	2	Temperatura media	18.9
117130	7	Sololá	704	Santa Lucía Utatlán 	7	Santa Rita 	9	Septiembre	2023-09-13T00:00:00	2024-11-08T20:00:00	4	Temperatura máxima	19.1
117131	7	Sololá	704	Santa Lucía Utatlán 	7	Santa Rita 	9	Septiembre	2023-09-13T00:00:00	2024-11-08T20:00:00	3	Temperatura mínima	18.8
117132	7	Sololá	704	Santa Lucía Utatlán 	7	Santa Rita 	9	Septiembre	2023-09-13T00:00:00	2024-11-08T20:00:00	5	Humedad	92
117133	7	Sololá	704	Santa Lucía Utatlán 	7	Santa Rita 	9	Septiembre	2023-09-13T00:00:00	2024-11-08T20:00:00	6	Velocidad del viento	1.6
117134	7	Sololá	704	Santa Lucía Utatlán 	7	Santa Rita 	9	Septiembre	2023-09-13T00:00:00	2024-11-08T20:00:00	7	Dirección del viento	1.61
117135	7	Sololá	704	Santa Lucía Utatlán 	7	Santa Rita 	9	Septiembre	2023-09-13T00:00:00	2024-11-08T20:00:00	1	Precipitación	0
117136	7	Sololá	704	Santa Lucía Utatlán 	7	Santa Rita 	9	Septiembre	2023-09-13T00:00:00	2024-11-08T20:00:00	8	Radiación solar	0
117137	7	Sololá	704	Santa Lucía Utatlán 	7	Santa Rita 	9	Septiembre	2023-09-13T00:00:00	2024-11-08T21:00:00	2	Temperatura media	18.1
117138	7	Sololá	704	Santa Lucía Utatlán 	7	Santa Rita 	9	Septiembre	2023-09-13T00:00:00	2024-11-08T21:00:00	4	Temperatura máxima	18.9
117139	7	Sololá	704	Santa Lucía Utatlán 	7	Santa Rita 	9	Septiembre	2023-09-13T00:00:00	2024-11-08T21:00:00	3	Temperatura mínima	18.1
117140	7	Sololá	704	Santa Lucía Utatlán 	7	Santa Rita 	9	Septiembre	2023-09-13T00:00:00	2024-11-08T21:00:00	5	Humedad	93
117141	7	Sololá	704	Santa Lucía Utatlán 	7	Santa Rita 	9	Septiembre	2023-09-13T00:00:00	2024-11-08T21:00:00	6	Velocidad del viento	1.6
117142	7	Sololá	704	Santa Lucía Utatlán 	7	Santa Rita 	9	Septiembre	2023-09-13T00:00:00	2024-11-08T21:00:00	7	Dirección del viento	1.61
117143	7	Sololá	704	Santa Lucía Utatlán 	7	Santa Rita 	9	Septiembre	2023-09-13T00:00:00	2024-11-08T21:00:00	1	Precipitación	0
117144	7	Sololá	704	Santa Lucía Utatlán 	7	Santa Rita 	9	Septiembre	2023-09-13T00:00:00	2024-11-08T21:00:00	8	Radiación solar	0
117145	7	Sololá	704	Santa Lucía Utatlán 	7	Santa Rita 	9	Septiembre	2023-09-13T00:00:00	2024-11-08T22:00:00	2	Temperatura media	17.2
117146	7	Sololá	704	Santa Lucía Utatlán 	7	Santa Rita 	9	Septiembre	2023-09-13T00:00:00	2024-11-08T22:00:00	4	Temperatura máxima	18.1
117147	7	Sololá	704	Santa Lucía Utatlán 	7	Santa Rita 	9	Septiembre	2023-09-13T00:00:00	2024-11-08T22:00:00	3	Temperatura mínima	17.1
117148	7	Sololá	704	Santa Lucía Utatlán 	7	Santa Rita 	9	Septiembre	2023-09-13T00:00:00	2024-11-08T22:00:00	5	Humedad	91
117149	7	Sololá	704	Santa Lucía Utatlán 	7	Santa Rita 	9	Septiembre	2023-09-13T00:00:00	2024-11-08T22:00:00	6	Velocidad del viento	3.2
117150	7	Sololá	704	Santa Lucía Utatlán 	7	Santa Rita 	9	Septiembre	2023-09-13T00:00:00	2024-11-08T22:00:00	7	Dirección del viento	3.22
117151	7	Sololá	704	Santa Lucía Utatlán 	7	Santa Rita 	9	Septiembre	2023-09-13T00:00:00	2024-11-08T22:00:00	1	Precipitación	0
117152	7	Sololá	704	Santa Lucía Utatlán 	7	Santa Rita 	9	Septiembre	2023-09-13T00:00:00	2024-11-08T22:00:00	8	Radiación solar	0
117153	7	Sololá	704	Santa Lucía Utatlán 	7	Santa Rita 	9	Septiembre	2023-09-13T00:00:00	2024-11-08T23:00:00	2	Temperatura media	17
117154	7	Sololá	704	Santa Lucía Utatlán 	7	Santa Rita 	9	Septiembre	2023-09-13T00:00:00	2024-11-08T23:00:00	4	Temperatura máxima	17.2
117155	7	Sololá	704	Santa Lucía Utatlán 	7	Santa Rita 	9	Septiembre	2023-09-13T00:00:00	2024-11-08T23:00:00	3	Temperatura mínima	16.8
117156	7	Sololá	704	Santa Lucía Utatlán 	7	Santa Rita 	9	Septiembre	2023-09-13T00:00:00	2024-11-08T23:00:00	5	Humedad	93
117157	7	Sololá	704	Santa Lucía Utatlán 	7	Santa Rita 	9	Septiembre	2023-09-13T00:00:00	2024-11-08T23:00:00	6	Velocidad del viento	3.2
117158	7	Sololá	704	Santa Lucía Utatlán 	7	Santa Rita 	9	Septiembre	2023-09-13T00:00:00	2024-11-08T23:00:00	7	Dirección del viento	3.22
117159	7	Sololá	704	Santa Lucía Utatlán 	7	Santa Rita 	9	Septiembre	2023-09-13T00:00:00	2024-11-08T23:00:00	1	Precipitación	0
117160	7	Sololá	704	Santa Lucía Utatlán 	7	Santa Rita 	9	Septiembre	2023-09-13T00:00:00	2024-11-08T23:00:00	8	Radiación solar	0
117161	7	Sololá	704	Santa Lucía Utatlán 	7	Santa Rita 	9	Septiembre	2023-09-14T00:00:00	2024-11-08T00:00:00	2	Temperatura media	16.7
117162	7	Sololá	704	Santa Lucía Utatlán 	7	Santa Rita 	9	Septiembre	2023-09-14T00:00:00	2024-11-08T00:00:00	4	Temperatura máxima	17
117163	7	Sololá	704	Santa Lucía Utatlán 	7	Santa Rita 	9	Septiembre	2023-09-14T00:00:00	2024-11-08T00:00:00	3	Temperatura mínima	16.6
117164	7	Sololá	704	Santa Lucía Utatlán 	7	Santa Rita 	9	Septiembre	2023-09-14T00:00:00	2024-11-08T00:00:00	5	Humedad	94
117165	7	Sololá	704	Santa Lucía Utatlán 	7	Santa Rita 	9	Septiembre	2023-09-14T00:00:00	2024-11-08T00:00:00	6	Velocidad del viento	1.6
117166	7	Sololá	704	Santa Lucía Utatlán 	7	Santa Rita 	9	Septiembre	2023-09-14T00:00:00	2024-11-08T00:00:00	7	Dirección del viento	1.61
117167	7	Sololá	704	Santa Lucía Utatlán 	7	Santa Rita 	9	Septiembre	2023-09-14T00:00:00	2024-11-08T00:00:00	1	Precipitación	0
117168	7	Sololá	704	Santa Lucía Utatlán 	7	Santa Rita 	9	Septiembre	2023-09-14T00:00:00	2024-11-08T00:00:00	8	Radiación solar	0
117169	7	Sololá	704	Santa Lucía Utatlán 	7	Santa Rita 	9	Septiembre	2023-09-14T00:00:00	2024-11-08T01:00:00	2	Temperatura media	16.8
117170	7	Sololá	704	Santa Lucía Utatlán 	7	Santa Rita 	9	Septiembre	2023-09-14T00:00:00	2024-11-08T01:00:00	4	Temperatura máxima	17.3
117171	7	Sololá	704	Santa Lucía Utatlán 	7	Santa Rita 	9	Septiembre	2023-09-14T00:00:00	2024-11-08T01:00:00	3	Temperatura mínima	16.6
117172	7	Sololá	704	Santa Lucía Utatlán 	7	Santa Rita 	9	Septiembre	2023-09-14T00:00:00	2024-11-08T01:00:00	5	Humedad	94
117173	7	Sololá	704	Santa Lucía Utatlán 	7	Santa Rita 	9	Septiembre	2023-09-14T00:00:00	2024-11-08T01:00:00	6	Velocidad del viento	3.2
117174	7	Sololá	704	Santa Lucía Utatlán 	7	Santa Rita 	9	Septiembre	2023-09-14T00:00:00	2024-11-08T01:00:00	7	Dirección del viento	3.22
117175	7	Sololá	704	Santa Lucía Utatlán 	7	Santa Rita 	9	Septiembre	2023-09-14T00:00:00	2024-11-08T01:00:00	1	Precipitación	0
117176	7	Sololá	704	Santa Lucía Utatlán 	7	Santa Rita 	9	Septiembre	2023-09-14T00:00:00	2024-11-08T01:00:00	8	Radiación solar	0
117177	7	Sololá	704	Santa Lucía Utatlán 	7	Santa Rita 	9	Septiembre	2023-09-14T00:00:00	2024-11-08T02:00:00	2	Temperatura media	18.9
117178	7	Sololá	704	Santa Lucía Utatlán 	7	Santa Rita 	9	Septiembre	2023-09-14T00:00:00	2024-11-08T02:00:00	4	Temperatura máxima	18.9
117179	7	Sololá	704	Santa Lucía Utatlán 	7	Santa Rita 	9	Septiembre	2023-09-14T00:00:00	2024-11-08T02:00:00	3	Temperatura mínima	16.8
117180	7	Sololá	704	Santa Lucía Utatlán 	7	Santa Rita 	9	Septiembre	2023-09-14T00:00:00	2024-11-08T02:00:00	5	Humedad	90
117181	7	Sololá	704	Santa Lucía Utatlán 	7	Santa Rita 	9	Septiembre	2023-09-14T00:00:00	2024-11-08T02:00:00	6	Velocidad del viento	3.2
117182	7	Sololá	704	Santa Lucía Utatlán 	7	Santa Rita 	9	Septiembre	2023-09-14T00:00:00	2024-11-08T02:00:00	7	Dirección del viento	3.22
117183	7	Sololá	704	Santa Lucía Utatlán 	7	Santa Rita 	9	Septiembre	2023-09-14T00:00:00	2024-11-08T02:00:00	1	Precipitación	0
117184	7	Sololá	704	Santa Lucía Utatlán 	7	Santa Rita 	9	Septiembre	2023-09-14T00:00:00	2024-11-08T02:00:00	8	Radiación solar	0
117185	7	Sololá	704	Santa Lucía Utatlán 	7	Santa Rita 	9	Septiembre	2023-09-14T00:00:00	2024-11-08T03:00:00	2	Temperatura media	19.3
117186	7	Sololá	704	Santa Lucía Utatlán 	7	Santa Rita 	9	Septiembre	2023-09-14T00:00:00	2024-11-08T03:00:00	4	Temperatura máxima	19.3
117187	7	Sololá	704	Santa Lucía Utatlán 	7	Santa Rita 	9	Septiembre	2023-09-14T00:00:00	2024-11-08T03:00:00	3	Temperatura mínima	18.7
117188	7	Sololá	704	Santa Lucía Utatlán 	7	Santa Rita 	9	Septiembre	2023-09-14T00:00:00	2024-11-08T03:00:00	5	Humedad	90
117189	7	Sololá	704	Santa Lucía Utatlán 	7	Santa Rita 	9	Septiembre	2023-09-14T00:00:00	2024-11-08T03:00:00	6	Velocidad del viento	1.6
117190	7	Sololá	704	Santa Lucía Utatlán 	7	Santa Rita 	9	Septiembre	2023-09-14T00:00:00	2024-11-08T03:00:00	7	Dirección del viento	1.61
117191	7	Sololá	704	Santa Lucía Utatlán 	7	Santa Rita 	9	Septiembre	2023-09-14T00:00:00	2024-11-08T03:00:00	1	Precipitación	0
117192	7	Sololá	704	Santa Lucía Utatlán 	7	Santa Rita 	9	Septiembre	2023-09-14T00:00:00	2024-11-08T03:00:00	8	Radiación solar	0
117193	7	Sololá	704	Santa Lucía Utatlán 	7	Santa Rita 	9	Septiembre	2023-09-14T00:00:00	2024-11-08T04:00:00	2	Temperatura media	21.2
117194	7	Sololá	704	Santa Lucía Utatlán 	7	Santa Rita 	9	Septiembre	2023-09-14T00:00:00	2024-11-08T04:00:00	4	Temperatura máxima	21.2
117195	7	Sololá	704	Santa Lucía Utatlán 	7	Santa Rita 	9	Septiembre	2023-09-14T00:00:00	2024-11-08T04:00:00	3	Temperatura mínima	19.3
117196	7	Sololá	704	Santa Lucía Utatlán 	7	Santa Rita 	9	Septiembre	2023-09-14T00:00:00	2024-11-08T04:00:00	5	Humedad	79
117197	7	Sololá	704	Santa Lucía Utatlán 	7	Santa Rita 	9	Septiembre	2023-09-14T00:00:00	2024-11-08T04:00:00	6	Velocidad del viento	1.6
117198	7	Sololá	704	Santa Lucía Utatlán 	7	Santa Rita 	9	Septiembre	2023-09-14T00:00:00	2024-11-08T04:00:00	7	Dirección del viento	1.61
117199	7	Sololá	704	Santa Lucía Utatlán 	7	Santa Rita 	9	Septiembre	2023-09-14T00:00:00	2024-11-08T04:00:00	1	Precipitación	0
117200	7	Sololá	704	Santa Lucía Utatlán 	7	Santa Rita 	9	Septiembre	2023-09-14T00:00:00	2024-11-08T04:00:00	8	Radiación solar	0
117201	7	Sololá	704	Santa Lucía Utatlán 	7	Santa Rita 	9	Septiembre	2023-09-14T00:00:00	2024-11-08T05:00:00	2	Temperatura media	23.3
117202	7	Sololá	704	Santa Lucía Utatlán 	7	Santa Rita 	9	Septiembre	2023-09-14T00:00:00	2024-11-08T05:00:00	4	Temperatura máxima	23.3
117203	7	Sololá	704	Santa Lucía Utatlán 	7	Santa Rita 	9	Septiembre	2023-09-14T00:00:00	2024-11-08T05:00:00	3	Temperatura mínima	21.2
117204	7	Sololá	704	Santa Lucía Utatlán 	7	Santa Rita 	9	Septiembre	2023-09-14T00:00:00	2024-11-08T05:00:00	5	Humedad	73
117205	7	Sololá	704	Santa Lucía Utatlán 	7	Santa Rita 	9	Septiembre	2023-09-14T00:00:00	2024-11-08T05:00:00	6	Velocidad del viento	4.8
117206	7	Sololá	704	Santa Lucía Utatlán 	7	Santa Rita 	9	Septiembre	2023-09-14T00:00:00	2024-11-08T05:00:00	7	Dirección del viento	4.83
117207	7	Sololá	704	Santa Lucía Utatlán 	7	Santa Rita 	9	Septiembre	2023-09-14T00:00:00	2024-11-08T05:00:00	1	Precipitación	0
117208	7	Sololá	704	Santa Lucía Utatlán 	7	Santa Rita 	9	Septiembre	2023-09-14T00:00:00	2024-11-08T05:00:00	8	Radiación solar	0
117209	7	Sololá	704	Santa Lucía Utatlán 	7	Santa Rita 	9	Septiembre	2023-09-14T00:00:00	2024-11-08T06:00:00	2	Temperatura media	24.6
117210	7	Sololá	704	Santa Lucía Utatlán 	7	Santa Rita 	9	Septiembre	2023-09-14T00:00:00	2024-11-08T06:00:00	4	Temperatura máxima	24.9
117211	7	Sololá	704	Santa Lucía Utatlán 	7	Santa Rita 	9	Septiembre	2023-09-14T00:00:00	2024-11-08T06:00:00	3	Temperatura mínima	23.4
117212	7	Sololá	704	Santa Lucía Utatlán 	7	Santa Rita 	9	Septiembre	2023-09-14T00:00:00	2024-11-08T06:00:00	5	Humedad	68
117213	7	Sololá	704	Santa Lucía Utatlán 	7	Santa Rita 	9	Septiembre	2023-09-14T00:00:00	2024-11-08T06:00:00	6	Velocidad del viento	6.4
117214	7	Sololá	704	Santa Lucía Utatlán 	7	Santa Rita 	9	Septiembre	2023-09-14T00:00:00	2024-11-08T06:00:00	7	Dirección del viento	6.44
117215	7	Sololá	704	Santa Lucía Utatlán 	7	Santa Rita 	9	Septiembre	2023-09-14T00:00:00	2024-11-08T06:00:00	1	Precipitación	0
117216	7	Sololá	704	Santa Lucía Utatlán 	7	Santa Rita 	9	Septiembre	2023-09-14T00:00:00	2024-11-08T06:00:00	8	Radiación solar	2
117217	7	Sololá	704	Santa Lucía Utatlán 	7	Santa Rita 	9	Septiembre	2023-09-14T00:00:00	2024-11-08T07:00:00	2	Temperatura media	24.7
117218	7	Sololá	704	Santa Lucía Utatlán 	7	Santa Rita 	9	Septiembre	2023-09-14T00:00:00	2024-11-08T07:00:00	4	Temperatura máxima	25.1
117219	7	Sololá	704	Santa Lucía Utatlán 	7	Santa Rita 	9	Septiembre	2023-09-14T00:00:00	2024-11-08T07:00:00	3	Temperatura mínima	24.4
117220	7	Sololá	704	Santa Lucía Utatlán 	7	Santa Rita 	9	Septiembre	2023-09-14T00:00:00	2024-11-08T07:00:00	5	Humedad	74
117221	7	Sololá	704	Santa Lucía Utatlán 	7	Santa Rita 	9	Septiembre	2023-09-14T00:00:00	2024-11-08T07:00:00	6	Velocidad del viento	8
117222	7	Sololá	704	Santa Lucía Utatlán 	7	Santa Rita 	9	Septiembre	2023-09-14T00:00:00	2024-11-08T07:00:00	7	Dirección del viento	8.05
117223	7	Sololá	704	Santa Lucía Utatlán 	7	Santa Rita 	9	Septiembre	2023-09-14T00:00:00	2024-11-08T07:00:00	1	Precipitación	0
117224	7	Sololá	704	Santa Lucía Utatlán 	7	Santa Rita 	9	Septiembre	2023-09-14T00:00:00	2024-11-08T07:00:00	8	Radiación solar	91
117225	7	Sololá	704	Santa Lucía Utatlán 	7	Santa Rita 	9	Septiembre	2023-09-14T00:00:00	2024-11-08T08:00:00	2	Temperatura media	25.9
117226	7	Sololá	704	Santa Lucía Utatlán 	7	Santa Rita 	9	Septiembre	2023-09-14T00:00:00	2024-11-08T08:00:00	4	Temperatura máxima	25.9
117227	7	Sololá	704	Santa Lucía Utatlán 	7	Santa Rita 	9	Septiembre	2023-09-14T00:00:00	2024-11-08T08:00:00	3	Temperatura mínima	24.7
117228	7	Sololá	704	Santa Lucía Utatlán 	7	Santa Rita 	9	Septiembre	2023-09-14T00:00:00	2024-11-08T08:00:00	5	Humedad	67
117229	7	Sololá	704	Santa Lucía Utatlán 	7	Santa Rita 	9	Septiembre	2023-09-14T00:00:00	2024-11-08T08:00:00	6	Velocidad del viento	9.7
117230	7	Sololá	704	Santa Lucía Utatlán 	7	Santa Rita 	9	Septiembre	2023-09-14T00:00:00	2024-11-08T08:00:00	7	Dirección del viento	9.66
117231	7	Sololá	704	Santa Lucía Utatlán 	7	Santa Rita 	9	Septiembre	2023-09-14T00:00:00	2024-11-08T08:00:00	1	Precipitación	0
117232	7	Sololá	704	Santa Lucía Utatlán 	7	Santa Rita 	9	Septiembre	2023-09-14T00:00:00	2024-11-08T08:00:00	8	Radiación solar	123
117233	7	Sololá	704	Santa Lucía Utatlán 	7	Santa Rita 	9	Septiembre	2023-09-14T00:00:00	2024-11-08T09:00:00	2	Temperatura media	25.8
117234	7	Sololá	704	Santa Lucía Utatlán 	7	Santa Rita 	9	Septiembre	2023-09-14T00:00:00	2024-11-08T09:00:00	4	Temperatura máxima	26.2
117235	7	Sololá	704	Santa Lucía Utatlán 	7	Santa Rita 	9	Septiembre	2023-09-14T00:00:00	2024-11-08T09:00:00	3	Temperatura mínima	24.9
117236	7	Sololá	704	Santa Lucía Utatlán 	7	Santa Rita 	9	Septiembre	2023-09-14T00:00:00	2024-11-08T09:00:00	5	Humedad	70
117237	7	Sololá	704	Santa Lucía Utatlán 	7	Santa Rita 	9	Septiembre	2023-09-14T00:00:00	2024-11-08T09:00:00	6	Velocidad del viento	9.7
117238	7	Sololá	704	Santa Lucía Utatlán 	7	Santa Rita 	9	Septiembre	2023-09-14T00:00:00	2024-11-08T09:00:00	7	Dirección del viento	9.66
117239	7	Sololá	704	Santa Lucía Utatlán 	7	Santa Rita 	9	Septiembre	2023-09-14T00:00:00	2024-11-08T09:00:00	1	Precipitación	0
117240	7	Sololá	704	Santa Lucía Utatlán 	7	Santa Rita 	9	Septiembre	2023-09-14T00:00:00	2024-11-08T09:00:00	8	Radiación solar	266
117241	7	Sololá	704	Santa Lucía Utatlán 	7	Santa Rita 	9	Septiembre	2023-09-14T00:00:00	2024-11-08T10:00:00	2	Temperatura media	25
117242	7	Sololá	704	Santa Lucía Utatlán 	7	Santa Rita 	9	Septiembre	2023-09-14T00:00:00	2024-11-08T10:00:00	4	Temperatura máxima	25.7
117243	7	Sololá	704	Santa Lucía Utatlán 	7	Santa Rita 	9	Septiembre	2023-09-14T00:00:00	2024-11-08T10:00:00	3	Temperatura mínima	24.5
117244	7	Sololá	704	Santa Lucía Utatlán 	7	Santa Rita 	9	Septiembre	2023-09-14T00:00:00	2024-11-08T10:00:00	5	Humedad	77
117245	7	Sololá	704	Santa Lucía Utatlán 	7	Santa Rita 	9	Septiembre	2023-09-14T00:00:00	2024-11-08T10:00:00	6	Velocidad del viento	9.7
117246	7	Sololá	704	Santa Lucía Utatlán 	7	Santa Rita 	9	Septiembre	2023-09-14T00:00:00	2024-11-08T10:00:00	7	Dirección del viento	9.66
117247	7	Sololá	704	Santa Lucía Utatlán 	7	Santa Rita 	9	Septiembre	2023-09-14T00:00:00	2024-11-08T10:00:00	1	Precipitación	0
117248	7	Sololá	704	Santa Lucía Utatlán 	7	Santa Rita 	9	Septiembre	2023-09-14T00:00:00	2024-11-08T10:00:00	8	Radiación solar	573
117249	7	Sololá	704	Santa Lucía Utatlán 	7	Santa Rita 	9	Septiembre	2023-09-14T00:00:00	2024-11-08T11:00:00	2	Temperatura media	23.8
117250	7	Sololá	704	Santa Lucía Utatlán 	7	Santa Rita 	9	Septiembre	2023-09-14T00:00:00	2024-11-08T11:00:00	4	Temperatura máxima	25.1
117251	7	Sololá	704	Santa Lucía Utatlán 	7	Santa Rita 	9	Septiembre	2023-09-14T00:00:00	2024-11-08T11:00:00	3	Temperatura mínima	23.8
117252	7	Sololá	704	Santa Lucía Utatlán 	7	Santa Rita 	9	Septiembre	2023-09-14T00:00:00	2024-11-08T11:00:00	5	Humedad	84
117253	7	Sololá	704	Santa Lucía Utatlán 	7	Santa Rita 	9	Septiembre	2023-09-14T00:00:00	2024-11-08T11:00:00	6	Velocidad del viento	6.4
117254	7	Sololá	704	Santa Lucía Utatlán 	7	Santa Rita 	9	Septiembre	2023-09-14T00:00:00	2024-11-08T11:00:00	7	Dirección del viento	6.44
117255	7	Sololá	704	Santa Lucía Utatlán 	7	Santa Rita 	9	Septiembre	2023-09-14T00:00:00	2024-11-08T11:00:00	1	Precipitación	0
117256	7	Sololá	704	Santa Lucía Utatlán 	7	Santa Rita 	9	Septiembre	2023-09-14T00:00:00	2024-11-08T11:00:00	8	Radiación solar	909
117257	7	Sololá	704	Santa Lucía Utatlán 	7	Santa Rita 	9	Septiembre	2023-09-14T00:00:00	2024-11-08T12:00:00	2	Temperatura media	22.4
117258	7	Sololá	704	Santa Lucía Utatlán 	7	Santa Rita 	9	Septiembre	2023-09-14T00:00:00	2024-11-08T12:00:00	4	Temperatura máxima	23.8
117259	7	Sololá	704	Santa Lucía Utatlán 	7	Santa Rita 	9	Septiembre	2023-09-14T00:00:00	2024-11-08T12:00:00	3	Temperatura mínima	22.4
117260	7	Sololá	704	Santa Lucía Utatlán 	7	Santa Rita 	9	Septiembre	2023-09-14T00:00:00	2024-11-08T12:00:00	5	Humedad	88
117261	7	Sololá	704	Santa Lucía Utatlán 	7	Santa Rita 	9	Septiembre	2023-09-14T00:00:00	2024-11-08T12:00:00	6	Velocidad del viento	4.8
117262	7	Sololá	704	Santa Lucía Utatlán 	7	Santa Rita 	9	Septiembre	2023-09-14T00:00:00	2024-11-08T12:00:00	7	Dirección del viento	4.83
117263	7	Sololá	704	Santa Lucía Utatlán 	7	Santa Rita 	9	Septiembre	2023-09-14T00:00:00	2024-11-08T12:00:00	1	Precipitación	0
117264	7	Sololá	704	Santa Lucía Utatlán 	7	Santa Rita 	9	Septiembre	2023-09-14T00:00:00	2024-11-08T12:00:00	8	Radiación solar	876
117265	7	Sololá	704	Santa Lucía Utatlán 	7	Santa Rita 	9	Septiembre	2023-09-14T00:00:00	2024-11-08T13:00:00	2	Temperatura media	21.5
117266	7	Sololá	704	Santa Lucía Utatlán 	7	Santa Rita 	9	Septiembre	2023-09-14T00:00:00	2024-11-08T13:00:00	4	Temperatura máxima	22.4
117267	7	Sololá	704	Santa Lucía Utatlán 	7	Santa Rita 	9	Septiembre	2023-09-14T00:00:00	2024-11-08T13:00:00	3	Temperatura mínima	21.5
117268	7	Sololá	704	Santa Lucía Utatlán 	7	Santa Rita 	9	Septiembre	2023-09-14T00:00:00	2024-11-08T13:00:00	5	Humedad	91
117269	7	Sololá	704	Santa Lucía Utatlán 	7	Santa Rita 	9	Septiembre	2023-09-14T00:00:00	2024-11-08T13:00:00	6	Velocidad del viento	3.2
117270	7	Sololá	704	Santa Lucía Utatlán 	7	Santa Rita 	9	Septiembre	2023-09-14T00:00:00	2024-11-08T13:00:00	7	Dirección del viento	3.22
117271	7	Sololá	704	Santa Lucía Utatlán 	7	Santa Rita 	9	Septiembre	2023-09-14T00:00:00	2024-11-08T13:00:00	1	Precipitación	0
117272	7	Sololá	704	Santa Lucía Utatlán 	7	Santa Rita 	9	Septiembre	2023-09-14T00:00:00	2024-11-08T13:00:00	8	Radiación solar	1058
117273	7	Sololá	704	Santa Lucía Utatlán 	7	Santa Rita 	9	Septiembre	2023-09-14T00:00:00	2024-11-08T14:00:00	2	Temperatura media	20.6
117274	7	Sololá	704	Santa Lucía Utatlán 	7	Santa Rita 	9	Septiembre	2023-09-14T00:00:00	2024-11-08T14:00:00	4	Temperatura máxima	21.6
117275	7	Sololá	704	Santa Lucía Utatlán 	7	Santa Rita 	9	Septiembre	2023-09-14T00:00:00	2024-11-08T14:00:00	3	Temperatura mínima	20.6
117276	7	Sololá	704	Santa Lucía Utatlán 	7	Santa Rita 	9	Septiembre	2023-09-14T00:00:00	2024-11-08T14:00:00	5	Humedad	91
117277	7	Sololá	704	Santa Lucía Utatlán 	7	Santa Rita 	9	Septiembre	2023-09-14T00:00:00	2024-11-08T14:00:00	6	Velocidad del viento	1.6
117278	7	Sololá	704	Santa Lucía Utatlán 	7	Santa Rita 	9	Septiembre	2023-09-14T00:00:00	2024-11-08T14:00:00	7	Dirección del viento	1.61
117279	7	Sololá	704	Santa Lucía Utatlán 	7	Santa Rita 	9	Septiembre	2023-09-14T00:00:00	2024-11-08T14:00:00	1	Precipitación	0
117280	7	Sololá	704	Santa Lucía Utatlán 	7	Santa Rita 	9	Septiembre	2023-09-14T00:00:00	2024-11-08T14:00:00	8	Radiación solar	843
117281	7	Sololá	704	Santa Lucía Utatlán 	7	Santa Rita 	9	Septiembre	2023-09-14T00:00:00	2024-11-08T15:00:00	2	Temperatura media	19.2
117282	7	Sololá	704	Santa Lucía Utatlán 	7	Santa Rita 	9	Septiembre	2023-09-14T00:00:00	2024-11-08T15:00:00	4	Temperatura máxima	20.6
117283	7	Sololá	704	Santa Lucía Utatlán 	7	Santa Rita 	9	Septiembre	2023-09-14T00:00:00	2024-11-08T15:00:00	3	Temperatura mínima	19.2
117284	7	Sololá	704	Santa Lucía Utatlán 	7	Santa Rita 	9	Septiembre	2023-09-14T00:00:00	2024-11-08T15:00:00	5	Humedad	92
117285	7	Sololá	704	Santa Lucía Utatlán 	7	Santa Rita 	9	Septiembre	2023-09-14T00:00:00	2024-11-08T15:00:00	6	Velocidad del viento	3.2
117286	7	Sololá	704	Santa Lucía Utatlán 	7	Santa Rita 	9	Septiembre	2023-09-14T00:00:00	2024-11-08T15:00:00	7	Dirección del viento	3.22
117287	7	Sololá	704	Santa Lucía Utatlán 	7	Santa Rita 	9	Septiembre	2023-09-14T00:00:00	2024-11-08T15:00:00	1	Precipitación	0
117288	7	Sololá	704	Santa Lucía Utatlán 	7	Santa Rita 	9	Septiembre	2023-09-14T00:00:00	2024-11-08T15:00:00	8	Radiación solar	698
117289	7	Sololá	704	Santa Lucía Utatlán 	7	Santa Rita 	9	Septiembre	2023-09-14T00:00:00	2024-11-08T16:00:00	2	Temperatura media	18.7
117290	7	Sololá	704	Santa Lucía Utatlán 	7	Santa Rita 	9	Septiembre	2023-09-14T00:00:00	2024-11-08T16:00:00	4	Temperatura máxima	19.3
117291	7	Sololá	704	Santa Lucía Utatlán 	7	Santa Rita 	9	Septiembre	2023-09-14T00:00:00	2024-11-08T16:00:00	3	Temperatura mínima	18.6
117292	7	Sololá	704	Santa Lucía Utatlán 	7	Santa Rita 	9	Septiembre	2023-09-14T00:00:00	2024-11-08T16:00:00	5	Humedad	91
117293	7	Sololá	704	Santa Lucía Utatlán 	7	Santa Rita 	9	Septiembre	2023-09-14T00:00:00	2024-11-08T16:00:00	6	Velocidad del viento	3.2
117294	7	Sololá	704	Santa Lucía Utatlán 	7	Santa Rita 	9	Septiembre	2023-09-14T00:00:00	2024-11-08T16:00:00	7	Dirección del viento	3.22
117295	7	Sololá	704	Santa Lucía Utatlán 	7	Santa Rita 	9	Septiembre	2023-09-14T00:00:00	2024-11-08T16:00:00	1	Precipitación	0
117296	7	Sololá	704	Santa Lucía Utatlán 	7	Santa Rita 	9	Septiembre	2023-09-14T00:00:00	2024-11-08T16:00:00	8	Radiación solar	163
117297	7	Sololá	704	Santa Lucía Utatlán 	7	Santa Rita 	9	Septiembre	2023-09-14T00:00:00	2024-11-08T17:00:00	2	Temperatura media	19.4
117298	7	Sololá	704	Santa Lucía Utatlán 	7	Santa Rita 	9	Septiembre	2023-09-14T00:00:00	2024-11-08T17:00:00	4	Temperatura máxima	19.4
117299	7	Sololá	704	Santa Lucía Utatlán 	7	Santa Rita 	9	Septiembre	2023-09-14T00:00:00	2024-11-08T17:00:00	3	Temperatura mínima	18.7
117300	7	Sololá	704	Santa Lucía Utatlán 	7	Santa Rita 	9	Septiembre	2023-09-14T00:00:00	2024-11-08T17:00:00	5	Humedad	93
117301	7	Sololá	704	Santa Lucía Utatlán 	7	Santa Rita 	9	Septiembre	2023-09-14T00:00:00	2024-11-08T17:00:00	6	Velocidad del viento	1.6
117302	7	Sololá	704	Santa Lucía Utatlán 	7	Santa Rita 	9	Septiembre	2023-09-14T00:00:00	2024-11-08T17:00:00	7	Dirección del viento	1.61
117303	7	Sololá	704	Santa Lucía Utatlán 	7	Santa Rita 	9	Septiembre	2023-09-14T00:00:00	2024-11-08T17:00:00	1	Precipitación	0
117304	7	Sololá	704	Santa Lucía Utatlán 	7	Santa Rita 	9	Septiembre	2023-09-14T00:00:00	2024-11-08T17:00:00	8	Radiación solar	146
117305	7	Sololá	704	Santa Lucía Utatlán 	7	Santa Rita 	9	Septiembre	2023-09-14T00:00:00	2024-11-08T18:00:00	2	Temperatura media	19.3
117306	7	Sololá	704	Santa Lucía Utatlán 	7	Santa Rita 	9	Septiembre	2023-09-14T00:00:00	2024-11-08T18:00:00	4	Temperatura máxima	19.4
117307	7	Sololá	704	Santa Lucía Utatlán 	7	Santa Rita 	9	Septiembre	2023-09-14T00:00:00	2024-11-08T18:00:00	3	Temperatura mínima	19.3
117308	7	Sololá	704	Santa Lucía Utatlán 	7	Santa Rita 	9	Septiembre	2023-09-14T00:00:00	2024-11-08T18:00:00	5	Humedad	94
117309	7	Sololá	704	Santa Lucía Utatlán 	7	Santa Rita 	9	Septiembre	2023-09-14T00:00:00	2024-11-08T18:00:00	6	Velocidad del viento	1.6
117310	7	Sololá	704	Santa Lucía Utatlán 	7	Santa Rita 	9	Septiembre	2023-09-14T00:00:00	2024-11-08T18:00:00	7	Dirección del viento	1.61
117311	7	Sololá	704	Santa Lucía Utatlán 	7	Santa Rita 	9	Septiembre	2023-09-14T00:00:00	2024-11-08T18:00:00	1	Precipitación	0
117312	7	Sololá	704	Santa Lucía Utatlán 	7	Santa Rita 	9	Septiembre	2023-09-14T00:00:00	2024-11-08T18:00:00	8	Radiación solar	34
117313	7	Sololá	704	Santa Lucía Utatlán 	7	Santa Rita 	9	Septiembre	2023-09-14T00:00:00	2024-11-08T19:00:00	2	Temperatura media	18.6
117314	7	Sololá	704	Santa Lucía Utatlán 	7	Santa Rita 	9	Septiembre	2023-09-14T00:00:00	2024-11-08T19:00:00	4	Temperatura máxima	19.4
117315	7	Sololá	704	Santa Lucía Utatlán 	7	Santa Rita 	9	Septiembre	2023-09-14T00:00:00	2024-11-08T19:00:00	3	Temperatura mínima	18.6
117316	7	Sololá	704	Santa Lucía Utatlán 	7	Santa Rita 	9	Septiembre	2023-09-14T00:00:00	2024-11-08T19:00:00	5	Humedad	94
117317	7	Sololá	704	Santa Lucía Utatlán 	7	Santa Rita 	9	Septiembre	2023-09-14T00:00:00	2024-11-08T19:00:00	6	Velocidad del viento	1.6
117318	7	Sololá	704	Santa Lucía Utatlán 	7	Santa Rita 	9	Septiembre	2023-09-14T00:00:00	2024-11-08T19:00:00	7	Dirección del viento	1.61
117319	7	Sololá	704	Santa Lucía Utatlán 	7	Santa Rita 	9	Septiembre	2023-09-14T00:00:00	2024-11-08T19:00:00	1	Precipitación	0
117320	7	Sololá	704	Santa Lucía Utatlán 	7	Santa Rita 	9	Septiembre	2023-09-14T00:00:00	2024-11-08T19:00:00	8	Radiación solar	0
117321	7	Sololá	704	Santa Lucía Utatlán 	7	Santa Rita 	9	Septiembre	2023-09-14T00:00:00	2024-11-08T20:00:00	2	Temperatura media	20.3
117322	7	Sololá	704	Santa Lucía Utatlán 	7	Santa Rita 	9	Septiembre	2023-09-14T00:00:00	2024-11-08T20:00:00	4	Temperatura máxima	21.6
117323	7	Sololá	704	Santa Lucía Utatlán 	7	Santa Rita 	9	Septiembre	2023-09-14T00:00:00	2024-11-08T20:00:00	3	Temperatura mínima	20.3
117324	7	Sololá	704	Santa Lucía Utatlán 	7	Santa Rita 	9	Septiembre	2023-09-14T00:00:00	2024-11-08T20:00:00	5	Humedad	68
117325	7	Sololá	704	Santa Lucía Utatlán 	7	Santa Rita 	9	Septiembre	2023-09-14T00:00:00	2024-11-08T20:00:00	6	Velocidad del viento	4.8
117326	7	Sololá	704	Santa Lucía Utatlán 	7	Santa Rita 	9	Septiembre	2023-09-14T00:00:00	2024-11-08T20:00:00	7	Dirección del viento	4.83
117327	7	Sololá	704	Santa Lucía Utatlán 	7	Santa Rita 	9	Septiembre	2023-09-14T00:00:00	2024-11-08T20:00:00	1	Precipitación	0
117328	7	Sololá	704	Santa Lucía Utatlán 	7	Santa Rita 	9	Septiembre	2023-09-14T00:00:00	2024-11-08T20:00:00	8	Radiación solar	0
117329	7	Sololá	704	Santa Lucía Utatlán 	7	Santa Rita 	9	Septiembre	2023-09-14T00:00:00	2024-11-08T21:00:00	2	Temperatura media	19
117330	7	Sololá	704	Santa Lucía Utatlán 	7	Santa Rita 	9	Septiembre	2023-09-14T00:00:00	2024-11-08T21:00:00	4	Temperatura máxima	20.3
117331	7	Sololá	704	Santa Lucía Utatlán 	7	Santa Rita 	9	Septiembre	2023-09-14T00:00:00	2024-11-08T21:00:00	3	Temperatura mínima	18.9
117332	7	Sololá	704	Santa Lucía Utatlán 	7	Santa Rita 	9	Septiembre	2023-09-14T00:00:00	2024-11-08T21:00:00	5	Humedad	85
117333	7	Sololá	704	Santa Lucía Utatlán 	7	Santa Rita 	9	Septiembre	2023-09-14T00:00:00	2024-11-08T21:00:00	6	Velocidad del viento	3.2
117334	7	Sololá	704	Santa Lucía Utatlán 	7	Santa Rita 	9	Septiembre	2023-09-14T00:00:00	2024-11-08T21:00:00	7	Dirección del viento	3.22
117335	7	Sololá	704	Santa Lucía Utatlán 	7	Santa Rita 	9	Septiembre	2023-09-14T00:00:00	2024-11-08T21:00:00	1	Precipitación	0
117336	7	Sololá	704	Santa Lucía Utatlán 	7	Santa Rita 	9	Septiembre	2023-09-14T00:00:00	2024-11-08T21:00:00	8	Radiación solar	0
117337	7	Sololá	704	Santa Lucía Utatlán 	7	Santa Rita 	9	Septiembre	2023-09-14T00:00:00	2024-11-08T22:00:00	2	Temperatura media	18.9
117338	7	Sololá	704	Santa Lucía Utatlán 	7	Santa Rita 	9	Septiembre	2023-09-14T00:00:00	2024-11-08T22:00:00	4	Temperatura máxima	19.1
117339	7	Sololá	704	Santa Lucía Utatlán 	7	Santa Rita 	9	Septiembre	2023-09-14T00:00:00	2024-11-08T22:00:00	3	Temperatura mínima	18.7
117340	7	Sololá	704	Santa Lucía Utatlán 	7	Santa Rita 	9	Septiembre	2023-09-14T00:00:00	2024-11-08T22:00:00	5	Humedad	88
117341	7	Sololá	704	Santa Lucía Utatlán 	7	Santa Rita 	9	Septiembre	2023-09-14T00:00:00	2024-11-08T22:00:00	6	Velocidad del viento	3.2
117342	7	Sololá	704	Santa Lucía Utatlán 	7	Santa Rita 	9	Septiembre	2023-09-14T00:00:00	2024-11-08T22:00:00	7	Dirección del viento	3.22
117343	7	Sololá	704	Santa Lucía Utatlán 	7	Santa Rita 	9	Septiembre	2023-09-14T00:00:00	2024-11-08T22:00:00	1	Precipitación	0
117344	7	Sololá	704	Santa Lucía Utatlán 	7	Santa Rita 	9	Septiembre	2023-09-14T00:00:00	2024-11-08T22:00:00	8	Radiación solar	0
117345	7	Sololá	704	Santa Lucía Utatlán 	7	Santa Rita 	9	Septiembre	2023-09-14T00:00:00	2024-11-08T23:00:00	2	Temperatura media	16.6
117346	7	Sololá	704	Santa Lucía Utatlán 	7	Santa Rita 	9	Septiembre	2023-09-14T00:00:00	2024-11-08T23:00:00	4	Temperatura máxima	17.1
117347	7	Sololá	704	Santa Lucía Utatlán 	7	Santa Rita 	9	Septiembre	2023-09-14T00:00:00	2024-11-08T23:00:00	3	Temperatura mínima	16.6
117348	7	Sololá	704	Santa Lucía Utatlán 	7	Santa Rita 	9	Septiembre	2023-09-14T00:00:00	2024-11-08T23:00:00	5	Humedad	92
117349	7	Sololá	704	Santa Lucía Utatlán 	7	Santa Rita 	9	Septiembre	2023-09-14T00:00:00	2024-11-08T23:00:00	6	Velocidad del viento	3.2
117350	7	Sololá	704	Santa Lucía Utatlán 	7	Santa Rita 	9	Septiembre	2023-09-14T00:00:00	2024-11-08T23:00:00	7	Dirección del viento	3.22
117351	7	Sololá	704	Santa Lucía Utatlán 	7	Santa Rita 	9	Septiembre	2023-09-14T00:00:00	2024-11-08T23:00:00	1	Precipitación	0
117352	7	Sololá	704	Santa Lucía Utatlán 	7	Santa Rita 	9	Septiembre	2023-09-14T00:00:00	2024-11-08T23:00:00	8	Radiación solar	0
117353	7	Sololá	704	Santa Lucía Utatlán 	7	Santa Rita 	9	Septiembre	2023-09-15T00:00:00	2024-11-08T00:00:00	2	Temperatura media	16.3
117354	7	Sololá	704	Santa Lucía Utatlán 	7	Santa Rita 	9	Septiembre	2023-09-15T00:00:00	2024-11-08T00:00:00	4	Temperatura máxima	16.6
117355	7	Sololá	704	Santa Lucía Utatlán 	7	Santa Rita 	9	Septiembre	2023-09-15T00:00:00	2024-11-08T00:00:00	3	Temperatura mínima	16.2
117356	7	Sololá	704	Santa Lucía Utatlán 	7	Santa Rita 	9	Septiembre	2023-09-15T00:00:00	2024-11-08T00:00:00	5	Humedad	92
117357	7	Sololá	704	Santa Lucía Utatlán 	7	Santa Rita 	9	Septiembre	2023-09-15T00:00:00	2024-11-08T00:00:00	6	Velocidad del viento	3.2
117358	7	Sololá	704	Santa Lucía Utatlán 	7	Santa Rita 	9	Septiembre	2023-09-15T00:00:00	2024-11-08T00:00:00	7	Dirección del viento	3.22
117359	7	Sololá	704	Santa Lucía Utatlán 	7	Santa Rita 	9	Septiembre	2023-09-15T00:00:00	2024-11-08T00:00:00	1	Precipitación	0
117360	7	Sololá	704	Santa Lucía Utatlán 	7	Santa Rita 	9	Septiembre	2023-09-15T00:00:00	2024-11-08T00:00:00	8	Radiación solar	0
117361	7	Sololá	704	Santa Lucía Utatlán 	7	Santa Rita 	9	Septiembre	2023-09-15T00:00:00	2024-11-08T01:00:00	2	Temperatura media	16.6
117362	7	Sololá	704	Santa Lucía Utatlán 	7	Santa Rita 	9	Septiembre	2023-09-15T00:00:00	2024-11-08T01:00:00	4	Temperatura máxima	16.6
117363	7	Sololá	704	Santa Lucía Utatlán 	7	Santa Rita 	9	Septiembre	2023-09-15T00:00:00	2024-11-08T01:00:00	3	Temperatura mínima	16.1
117364	7	Sololá	704	Santa Lucía Utatlán 	7	Santa Rita 	9	Septiembre	2023-09-15T00:00:00	2024-11-08T01:00:00	5	Humedad	93
117365	7	Sololá	704	Santa Lucía Utatlán 	7	Santa Rita 	9	Septiembre	2023-09-15T00:00:00	2024-11-08T01:00:00	6	Velocidad del viento	4.8
117366	7	Sololá	704	Santa Lucía Utatlán 	7	Santa Rita 	9	Septiembre	2023-09-15T00:00:00	2024-11-08T01:00:00	7	Dirección del viento	4.83
117367	7	Sololá	704	Santa Lucía Utatlán 	7	Santa Rita 	9	Septiembre	2023-09-15T00:00:00	2024-11-08T01:00:00	1	Precipitación	0
117368	7	Sololá	704	Santa Lucía Utatlán 	7	Santa Rita 	9	Septiembre	2023-09-15T00:00:00	2024-11-08T01:00:00	8	Radiación solar	0
117369	7	Sololá	704	Santa Lucía Utatlán 	7	Santa Rita 	9	Septiembre	2023-09-15T00:00:00	2024-11-08T02:00:00	2	Temperatura media	19.5
117370	7	Sololá	704	Santa Lucía Utatlán 	7	Santa Rita 	9	Septiembre	2023-09-15T00:00:00	2024-11-08T02:00:00	4	Temperatura máxima	19.5
117371	7	Sololá	704	Santa Lucía Utatlán 	7	Santa Rita 	9	Septiembre	2023-09-15T00:00:00	2024-11-08T02:00:00	3	Temperatura mínima	16.6
117372	7	Sololá	704	Santa Lucía Utatlán 	7	Santa Rita 	9	Septiembre	2023-09-15T00:00:00	2024-11-08T02:00:00	5	Humedad	89
117373	7	Sololá	704	Santa Lucía Utatlán 	7	Santa Rita 	9	Septiembre	2023-09-15T00:00:00	2024-11-08T02:00:00	6	Velocidad del viento	1.6
117374	7	Sololá	704	Santa Lucía Utatlán 	7	Santa Rita 	9	Septiembre	2023-09-15T00:00:00	2024-11-08T02:00:00	7	Dirección del viento	1.61
117375	7	Sololá	704	Santa Lucía Utatlán 	7	Santa Rita 	9	Septiembre	2023-09-15T00:00:00	2024-11-08T02:00:00	1	Precipitación	0
117376	7	Sololá	704	Santa Lucía Utatlán 	7	Santa Rita 	9	Septiembre	2023-09-15T00:00:00	2024-11-08T02:00:00	8	Radiación solar	0
117377	7	Sololá	704	Santa Lucía Utatlán 	7	Santa Rita 	9	Septiembre	2023-09-15T00:00:00	2024-11-08T03:00:00	2	Temperatura media	22.4
117378	7	Sololá	704	Santa Lucía Utatlán 	7	Santa Rita 	9	Septiembre	2023-09-15T00:00:00	2024-11-08T03:00:00	4	Temperatura máxima	22.4
117379	7	Sololá	704	Santa Lucía Utatlán 	7	Santa Rita 	9	Septiembre	2023-09-15T00:00:00	2024-11-08T03:00:00	3	Temperatura mínima	19.5
117380	7	Sololá	704	Santa Lucía Utatlán 	7	Santa Rita 	9	Septiembre	2023-09-15T00:00:00	2024-11-08T03:00:00	5	Humedad	76
117381	7	Sololá	704	Santa Lucía Utatlán 	7	Santa Rita 	9	Septiembre	2023-09-15T00:00:00	2024-11-08T03:00:00	6	Velocidad del viento	3.2
117382	7	Sololá	704	Santa Lucía Utatlán 	7	Santa Rita 	9	Septiembre	2023-09-15T00:00:00	2024-11-08T03:00:00	7	Dirección del viento	3.22
117383	7	Sololá	704	Santa Lucía Utatlán 	7	Santa Rita 	9	Septiembre	2023-09-15T00:00:00	2024-11-08T03:00:00	1	Precipitación	0
117384	7	Sololá	704	Santa Lucía Utatlán 	7	Santa Rita 	9	Septiembre	2023-09-15T00:00:00	2024-11-08T03:00:00	8	Radiación solar	0
117385	7	Sololá	704	Santa Lucía Utatlán 	7	Santa Rita 	9	Septiembre	2023-09-15T00:00:00	2024-11-08T04:00:00	2	Temperatura media	24
117386	7	Sololá	704	Santa Lucía Utatlán 	7	Santa Rita 	9	Septiembre	2023-09-15T00:00:00	2024-11-08T04:00:00	4	Temperatura máxima	24
117387	7	Sololá	704	Santa Lucía Utatlán 	7	Santa Rita 	9	Septiembre	2023-09-15T00:00:00	2024-11-08T04:00:00	3	Temperatura mínima	22.4
117388	7	Sololá	704	Santa Lucía Utatlán 	7	Santa Rita 	9	Septiembre	2023-09-15T00:00:00	2024-11-08T04:00:00	5	Humedad	69
117389	7	Sololá	704	Santa Lucía Utatlán 	7	Santa Rita 	9	Septiembre	2023-09-15T00:00:00	2024-11-08T04:00:00	6	Velocidad del viento	4.8
117390	7	Sololá	704	Santa Lucía Utatlán 	7	Santa Rita 	9	Septiembre	2023-09-15T00:00:00	2024-11-08T04:00:00	7	Dirección del viento	4.83
117391	7	Sololá	704	Santa Lucía Utatlán 	7	Santa Rita 	9	Septiembre	2023-09-15T00:00:00	2024-11-08T04:00:00	1	Precipitación	0
117392	7	Sololá	704	Santa Lucía Utatlán 	7	Santa Rita 	9	Septiembre	2023-09-15T00:00:00	2024-11-08T04:00:00	8	Radiación solar	0
117393	7	Sololá	704	Santa Lucía Utatlán 	7	Santa Rita 	9	Septiembre	2023-09-15T00:00:00	2024-11-08T05:00:00	2	Temperatura media	24.6
117394	7	Sololá	704	Santa Lucía Utatlán 	7	Santa Rita 	9	Septiembre	2023-09-15T00:00:00	2024-11-08T05:00:00	4	Temperatura máxima	24.8
117395	7	Sololá	704	Santa Lucía Utatlán 	7	Santa Rita 	9	Septiembre	2023-09-15T00:00:00	2024-11-08T05:00:00	3	Temperatura mínima	23.7
117396	7	Sololá	704	Santa Lucía Utatlán 	7	Santa Rita 	9	Septiembre	2023-09-15T00:00:00	2024-11-08T05:00:00	5	Humedad	67
117397	7	Sololá	704	Santa Lucía Utatlán 	7	Santa Rita 	9	Septiembre	2023-09-15T00:00:00	2024-11-08T05:00:00	6	Velocidad del viento	8
117398	7	Sololá	704	Santa Lucía Utatlán 	7	Santa Rita 	9	Septiembre	2023-09-15T00:00:00	2024-11-08T05:00:00	7	Dirección del viento	8.05
117399	7	Sololá	704	Santa Lucía Utatlán 	7	Santa Rita 	9	Septiembre	2023-09-15T00:00:00	2024-11-08T05:00:00	1	Precipitación	0
117400	7	Sololá	704	Santa Lucía Utatlán 	7	Santa Rita 	9	Septiembre	2023-09-15T00:00:00	2024-11-08T05:00:00	8	Radiación solar	0
117401	7	Sololá	704	Santa Lucía Utatlán 	7	Santa Rita 	9	Septiembre	2023-09-15T00:00:00	2024-11-08T06:00:00	2	Temperatura media	25.5
117402	7	Sololá	704	Santa Lucía Utatlán 	7	Santa Rita 	9	Septiembre	2023-09-15T00:00:00	2024-11-08T06:00:00	4	Temperatura máxima	25.5
117403	7	Sololá	704	Santa Lucía Utatlán 	7	Santa Rita 	9	Septiembre	2023-09-15T00:00:00	2024-11-08T06:00:00	3	Temperatura mínima	24.4
117404	7	Sololá	704	Santa Lucía Utatlán 	7	Santa Rita 	9	Septiembre	2023-09-15T00:00:00	2024-11-08T06:00:00	5	Humedad	63
117405	7	Sololá	704	Santa Lucía Utatlán 	7	Santa Rita 	9	Septiembre	2023-09-15T00:00:00	2024-11-08T06:00:00	6	Velocidad del viento	9.7
117406	7	Sololá	704	Santa Lucía Utatlán 	7	Santa Rita 	9	Septiembre	2023-09-15T00:00:00	2024-11-08T06:00:00	7	Dirección del viento	9.66
117407	7	Sololá	704	Santa Lucía Utatlán 	7	Santa Rita 	9	Septiembre	2023-09-15T00:00:00	2024-11-08T06:00:00	1	Precipitación	0
117408	7	Sololá	704	Santa Lucía Utatlán 	7	Santa Rita 	9	Septiembre	2023-09-15T00:00:00	2024-11-08T06:00:00	8	Radiación solar	8
117409	7	Sololá	704	Santa Lucía Utatlán 	7	Santa Rita 	9	Septiembre	2023-09-15T00:00:00	2024-11-08T07:00:00	2	Temperatura media	26.4
117410	7	Sololá	704	Santa Lucía Utatlán 	7	Santa Rita 	9	Septiembre	2023-09-15T00:00:00	2024-11-08T07:00:00	4	Temperatura máxima	26.4
117411	7	Sololá	704	Santa Lucía Utatlán 	7	Santa Rita 	9	Septiembre	2023-09-15T00:00:00	2024-11-08T07:00:00	3	Temperatura mínima	25.4
117412	7	Sololá	704	Santa Lucía Utatlán 	7	Santa Rita 	9	Septiembre	2023-09-15T00:00:00	2024-11-08T07:00:00	5	Humedad	54
117413	7	Sololá	704	Santa Lucía Utatlán 	7	Santa Rita 	9	Septiembre	2023-09-15T00:00:00	2024-11-08T07:00:00	6	Velocidad del viento	9.7
117414	7	Sololá	704	Santa Lucía Utatlán 	7	Santa Rita 	9	Septiembre	2023-09-15T00:00:00	2024-11-08T07:00:00	7	Dirección del viento	9.66
117415	7	Sololá	704	Santa Lucía Utatlán 	7	Santa Rita 	9	Septiembre	2023-09-15T00:00:00	2024-11-08T07:00:00	1	Precipitación	0
117416	7	Sololá	704	Santa Lucía Utatlán 	7	Santa Rita 	9	Septiembre	2023-09-15T00:00:00	2024-11-08T07:00:00	8	Radiación solar	129
117417	7	Sololá	704	Santa Lucía Utatlán 	7	Santa Rita 	9	Septiembre	2023-09-15T00:00:00	2024-11-08T08:00:00	2	Temperatura media	26.1
117418	7	Sololá	704	Santa Lucía Utatlán 	7	Santa Rita 	9	Septiembre	2023-09-15T00:00:00	2024-11-08T08:00:00	4	Temperatura máxima	26.4
117419	7	Sololá	704	Santa Lucía Utatlán 	7	Santa Rita 	9	Septiembre	2023-09-15T00:00:00	2024-11-08T08:00:00	3	Temperatura mínima	25.8
117420	7	Sololá	704	Santa Lucía Utatlán 	7	Santa Rita 	9	Septiembre	2023-09-15T00:00:00	2024-11-08T08:00:00	5	Humedad	51
117421	7	Sololá	704	Santa Lucía Utatlán 	7	Santa Rita 	9	Septiembre	2023-09-15T00:00:00	2024-11-08T08:00:00	6	Velocidad del viento	9.7
117422	7	Sololá	704	Santa Lucía Utatlán 	7	Santa Rita 	9	Septiembre	2023-09-15T00:00:00	2024-11-08T08:00:00	7	Dirección del viento	9.66
117423	7	Sololá	704	Santa Lucía Utatlán 	7	Santa Rita 	9	Septiembre	2023-09-15T00:00:00	2024-11-08T08:00:00	1	Precipitación	0
117424	7	Sololá	704	Santa Lucía Utatlán 	7	Santa Rita 	9	Septiembre	2023-09-15T00:00:00	2024-11-08T08:00:00	8	Radiación solar	407
117425	7	Sololá	704	Santa Lucía Utatlán 	7	Santa Rita 	9	Septiembre	2023-09-15T00:00:00	2024-11-08T09:00:00	2	Temperatura media	23.6
117426	7	Sololá	704	Santa Lucía Utatlán 	7	Santa Rita 	9	Septiembre	2023-09-15T00:00:00	2024-11-08T09:00:00	4	Temperatura máxima	26.1
117427	7	Sololá	704	Santa Lucía Utatlán 	7	Santa Rita 	9	Septiembre	2023-09-15T00:00:00	2024-11-08T09:00:00	3	Temperatura mínima	23.6
117428	7	Sololá	704	Santa Lucía Utatlán 	7	Santa Rita 	9	Septiembre	2023-09-15T00:00:00	2024-11-08T09:00:00	5	Humedad	79
117429	7	Sololá	704	Santa Lucía Utatlán 	7	Santa Rita 	9	Septiembre	2023-09-15T00:00:00	2024-11-08T09:00:00	6	Velocidad del viento	9.7
117430	7	Sololá	704	Santa Lucía Utatlán 	7	Santa Rita 	9	Septiembre	2023-09-15T00:00:00	2024-11-08T09:00:00	7	Dirección del viento	9.66
117431	7	Sololá	704	Santa Lucía Utatlán 	7	Santa Rita 	9	Septiembre	2023-09-15T00:00:00	2024-11-08T09:00:00	1	Precipitación	0
117432	7	Sololá	704	Santa Lucía Utatlán 	7	Santa Rita 	9	Septiembre	2023-09-15T00:00:00	2024-11-08T09:00:00	8	Radiación solar	703
117433	7	Sololá	704	Santa Lucía Utatlán 	7	Santa Rita 	9	Septiembre	2023-09-15T00:00:00	2024-11-08T10:00:00	2	Temperatura media	23.9
117434	7	Sololá	704	Santa Lucía Utatlán 	7	Santa Rita 	9	Septiembre	2023-09-15T00:00:00	2024-11-08T10:00:00	4	Temperatura máxima	24
117435	7	Sololá	704	Santa Lucía Utatlán 	7	Santa Rita 	9	Septiembre	2023-09-15T00:00:00	2024-11-08T10:00:00	3	Temperatura mínima	22.8
117436	7	Sololá	704	Santa Lucía Utatlán 	7	Santa Rita 	9	Septiembre	2023-09-15T00:00:00	2024-11-08T10:00:00	5	Humedad	73
117437	7	Sololá	704	Santa Lucía Utatlán 	7	Santa Rita 	9	Septiembre	2023-09-15T00:00:00	2024-11-08T10:00:00	6	Velocidad del viento	9.7
117438	7	Sololá	704	Santa Lucía Utatlán 	7	Santa Rita 	9	Septiembre	2023-09-15T00:00:00	2024-11-08T10:00:00	7	Dirección del viento	9.66
117439	7	Sololá	704	Santa Lucía Utatlán 	7	Santa Rita 	9	Septiembre	2023-09-15T00:00:00	2024-11-08T10:00:00	1	Precipitación	0
117440	7	Sololá	704	Santa Lucía Utatlán 	7	Santa Rita 	9	Septiembre	2023-09-15T00:00:00	2024-11-08T10:00:00	8	Radiación solar	844
117441	7	Sololá	704	Santa Lucía Utatlán 	7	Santa Rita 	9	Septiembre	2023-09-15T00:00:00	2024-11-08T11:00:00	2	Temperatura media	22.2
117442	7	Sololá	704	Santa Lucía Utatlán 	7	Santa Rita 	9	Septiembre	2023-09-15T00:00:00	2024-11-08T11:00:00	4	Temperatura máxima	24
117443	7	Sololá	704	Santa Lucía Utatlán 	7	Santa Rita 	9	Septiembre	2023-09-15T00:00:00	2024-11-08T11:00:00	3	Temperatura mínima	22.2
117444	7	Sololá	704	Santa Lucía Utatlán 	7	Santa Rita 	9	Septiembre	2023-09-15T00:00:00	2024-11-08T11:00:00	5	Humedad	84
117445	7	Sololá	704	Santa Lucía Utatlán 	7	Santa Rita 	9	Septiembre	2023-09-15T00:00:00	2024-11-08T11:00:00	6	Velocidad del viento	9.7
117446	7	Sololá	704	Santa Lucía Utatlán 	7	Santa Rita 	9	Septiembre	2023-09-15T00:00:00	2024-11-08T11:00:00	7	Dirección del viento	9.66
117447	7	Sololá	704	Santa Lucía Utatlán 	7	Santa Rita 	9	Septiembre	2023-09-15T00:00:00	2024-11-08T11:00:00	1	Precipitación	0
117448	7	Sololá	704	Santa Lucía Utatlán 	7	Santa Rita 	9	Septiembre	2023-09-15T00:00:00	2024-11-08T11:00:00	8	Radiación solar	974
117449	7	Sololá	704	Santa Lucía Utatlán 	7	Santa Rita 	9	Septiembre	2023-09-15T00:00:00	2024-11-08T12:00:00	2	Temperatura media	21.8
117450	7	Sololá	704	Santa Lucía Utatlán 	7	Santa Rita 	9	Septiembre	2023-09-15T00:00:00	2024-11-08T12:00:00	4	Temperatura máxima	22.3
117451	7	Sololá	704	Santa Lucía Utatlán 	7	Santa Rita 	9	Septiembre	2023-09-15T00:00:00	2024-11-08T12:00:00	3	Temperatura mínima	21.7
117452	7	Sololá	704	Santa Lucía Utatlán 	7	Santa Rita 	9	Septiembre	2023-09-15T00:00:00	2024-11-08T12:00:00	5	Humedad	86
117453	7	Sololá	704	Santa Lucía Utatlán 	7	Santa Rita 	9	Septiembre	2023-09-15T00:00:00	2024-11-08T12:00:00	6	Velocidad del viento	4.8
117454	7	Sololá	704	Santa Lucía Utatlán 	7	Santa Rita 	9	Septiembre	2023-09-15T00:00:00	2024-11-08T12:00:00	7	Dirección del viento	4.83
117455	7	Sololá	704	Santa Lucía Utatlán 	7	Santa Rita 	9	Septiembre	2023-09-15T00:00:00	2024-11-08T12:00:00	1	Precipitación	0
117456	7	Sololá	704	Santa Lucía Utatlán 	7	Santa Rita 	9	Septiembre	2023-09-15T00:00:00	2024-11-08T12:00:00	8	Radiación solar	1043
117457	7	Sololá	704	Santa Lucía Utatlán 	7	Santa Rita 	9	Septiembre	2023-09-15T00:00:00	2024-11-08T13:00:00	2	Temperatura media	20.9
117458	7	Sololá	704	Santa Lucía Utatlán 	7	Santa Rita 	9	Septiembre	2023-09-15T00:00:00	2024-11-08T13:00:00	4	Temperatura máxima	21.8
117459	7	Sololá	704	Santa Lucía Utatlán 	7	Santa Rita 	9	Septiembre	2023-09-15T00:00:00	2024-11-08T13:00:00	3	Temperatura mínima	20.9
117460	7	Sololá	704	Santa Lucía Utatlán 	7	Santa Rita 	9	Septiembre	2023-09-15T00:00:00	2024-11-08T13:00:00	5	Humedad	83
117461	7	Sololá	704	Santa Lucía Utatlán 	7	Santa Rita 	9	Septiembre	2023-09-15T00:00:00	2024-11-08T13:00:00	6	Velocidad del viento	3.2
117462	7	Sololá	704	Santa Lucía Utatlán 	7	Santa Rita 	9	Septiembre	2023-09-15T00:00:00	2024-11-08T13:00:00	7	Dirección del viento	3.22
117463	7	Sololá	704	Santa Lucía Utatlán 	7	Santa Rita 	9	Septiembre	2023-09-15T00:00:00	2024-11-08T13:00:00	1	Precipitación	0
117464	7	Sololá	704	Santa Lucía Utatlán 	7	Santa Rita 	9	Septiembre	2023-09-15T00:00:00	2024-11-08T13:00:00	8	Radiación solar	711
117465	7	Sololá	704	Santa Lucía Utatlán 	7	Santa Rita 	9	Septiembre	2023-09-15T00:00:00	2024-11-08T14:00:00	2	Temperatura media	20.6
117466	7	Sololá	704	Santa Lucía Utatlán 	7	Santa Rita 	9	Septiembre	2023-09-15T00:00:00	2024-11-08T14:00:00	4	Temperatura máxima	20.9
117467	7	Sololá	704	Santa Lucía Utatlán 	7	Santa Rita 	9	Septiembre	2023-09-15T00:00:00	2024-11-08T14:00:00	3	Temperatura mínima	20.3
117468	7	Sololá	704	Santa Lucía Utatlán 	7	Santa Rita 	9	Septiembre	2023-09-15T00:00:00	2024-11-08T14:00:00	5	Humedad	82
117469	7	Sololá	704	Santa Lucía Utatlán 	7	Santa Rita 	9	Septiembre	2023-09-15T00:00:00	2024-11-08T14:00:00	6	Velocidad del viento	1.6
117470	7	Sololá	704	Santa Lucía Utatlán 	7	Santa Rita 	9	Septiembre	2023-09-15T00:00:00	2024-11-08T14:00:00	7	Dirección del viento	1.61
117471	7	Sololá	704	Santa Lucía Utatlán 	7	Santa Rita 	9	Septiembre	2023-09-15T00:00:00	2024-11-08T14:00:00	1	Precipitación	0
117472	7	Sololá	704	Santa Lucía Utatlán 	7	Santa Rita 	9	Septiembre	2023-09-15T00:00:00	2024-11-08T14:00:00	8	Radiación solar	296
117473	7	Sololá	704	Santa Lucía Utatlán 	7	Santa Rita 	9	Septiembre	2023-09-15T00:00:00	2024-11-08T15:00:00	2	Temperatura media	19.7
117474	7	Sololá	704	Santa Lucía Utatlán 	7	Santa Rita 	9	Septiembre	2023-09-15T00:00:00	2024-11-08T15:00:00	4	Temperatura máxima	20.7
117475	7	Sololá	704	Santa Lucía Utatlán 	7	Santa Rita 	9	Septiembre	2023-09-15T00:00:00	2024-11-08T15:00:00	3	Temperatura mínima	19.7
117476	7	Sololá	704	Santa Lucía Utatlán 	7	Santa Rita 	9	Septiembre	2023-09-15T00:00:00	2024-11-08T15:00:00	5	Humedad	88
117477	7	Sololá	704	Santa Lucía Utatlán 	7	Santa Rita 	9	Septiembre	2023-09-15T00:00:00	2024-11-08T15:00:00	6	Velocidad del viento	1.6
117478	7	Sololá	704	Santa Lucía Utatlán 	7	Santa Rita 	9	Septiembre	2023-09-15T00:00:00	2024-11-08T15:00:00	7	Dirección del viento	1.61
117479	7	Sololá	704	Santa Lucía Utatlán 	7	Santa Rita 	9	Septiembre	2023-09-15T00:00:00	2024-11-08T15:00:00	1	Precipitación	0
117480	7	Sololá	704	Santa Lucía Utatlán 	7	Santa Rita 	9	Septiembre	2023-09-15T00:00:00	2024-11-08T15:00:00	8	Radiación solar	343
117481	7	Sololá	704	Santa Lucía Utatlán 	7	Santa Rita 	9	Septiembre	2023-09-15T00:00:00	2024-11-08T16:00:00	2	Temperatura media	19.2
117482	7	Sololá	704	Santa Lucía Utatlán 	7	Santa Rita 	9	Septiembre	2023-09-15T00:00:00	2024-11-08T16:00:00	4	Temperatura máxima	19.7
117483	7	Sololá	704	Santa Lucía Utatlán 	7	Santa Rita 	9	Septiembre	2023-09-15T00:00:00	2024-11-08T16:00:00	3	Temperatura mínima	18.9
117484	7	Sololá	704	Santa Lucía Utatlán 	7	Santa Rita 	9	Septiembre	2023-09-15T00:00:00	2024-11-08T16:00:00	5	Humedad	87
117485	7	Sololá	704	Santa Lucía Utatlán 	7	Santa Rita 	9	Septiembre	2023-09-15T00:00:00	2024-11-08T16:00:00	6	Velocidad del viento	3.2
117486	7	Sololá	704	Santa Lucía Utatlán 	7	Santa Rita 	9	Septiembre	2023-09-15T00:00:00	2024-11-08T16:00:00	7	Dirección del viento	3.22
117487	7	Sololá	704	Santa Lucía Utatlán 	7	Santa Rita 	9	Septiembre	2023-09-15T00:00:00	2024-11-08T16:00:00	1	Precipitación	0
117488	7	Sololá	704	Santa Lucía Utatlán 	7	Santa Rita 	9	Septiembre	2023-09-15T00:00:00	2024-11-08T16:00:00	8	Radiación solar	233
117489	7	Sololá	704	Santa Lucía Utatlán 	7	Santa Rita 	9	Septiembre	2023-09-15T00:00:00	2024-11-08T17:00:00	2	Temperatura media	18
117490	7	Sololá	704	Santa Lucía Utatlán 	7	Santa Rita 	9	Septiembre	2023-09-15T00:00:00	2024-11-08T17:00:00	4	Temperatura máxima	19.2
117491	7	Sololá	704	Santa Lucía Utatlán 	7	Santa Rita 	9	Septiembre	2023-09-15T00:00:00	2024-11-08T17:00:00	3	Temperatura mínima	17.8
117492	7	Sololá	704	Santa Lucía Utatlán 	7	Santa Rita 	9	Septiembre	2023-09-15T00:00:00	2024-11-08T17:00:00	5	Humedad	92
117493	7	Sololá	704	Santa Lucía Utatlán 	7	Santa Rita 	9	Septiembre	2023-09-15T00:00:00	2024-11-08T17:00:00	6	Velocidad del viento	3.2
117494	7	Sololá	704	Santa Lucía Utatlán 	7	Santa Rita 	9	Septiembre	2023-09-15T00:00:00	2024-11-08T17:00:00	7	Dirección del viento	3.22
117495	7	Sololá	704	Santa Lucía Utatlán 	7	Santa Rita 	9	Septiembre	2023-09-15T00:00:00	2024-11-08T17:00:00	1	Precipitación	0
117496	7	Sololá	704	Santa Lucía Utatlán 	7	Santa Rita 	9	Septiembre	2023-09-15T00:00:00	2024-11-08T17:00:00	8	Radiación solar	88
117497	7	Sololá	704	Santa Lucía Utatlán 	7	Santa Rita 	9	Septiembre	2023-09-15T00:00:00	2024-11-08T18:00:00	2	Temperatura media	17.3
117498	7	Sololá	704	Santa Lucía Utatlán 	7	Santa Rita 	9	Septiembre	2023-09-15T00:00:00	2024-11-08T18:00:00	4	Temperatura máxima	18
117499	7	Sololá	704	Santa Lucía Utatlán 	7	Santa Rita 	9	Septiembre	2023-09-15T00:00:00	2024-11-08T18:00:00	3	Temperatura mínima	17.3
117500	7	Sololá	704	Santa Lucía Utatlán 	7	Santa Rita 	9	Septiembre	2023-09-15T00:00:00	2024-11-08T18:00:00	5	Humedad	92
117501	7	Sololá	704	Santa Lucía Utatlán 	7	Santa Rita 	9	Septiembre	2023-09-15T00:00:00	2024-11-08T18:00:00	6	Velocidad del viento	3.2
117502	7	Sololá	704	Santa Lucía Utatlán 	7	Santa Rita 	9	Septiembre	2023-09-15T00:00:00	2024-11-08T18:00:00	7	Dirección del viento	3.22
117503	7	Sololá	704	Santa Lucía Utatlán 	7	Santa Rita 	9	Septiembre	2023-09-15T00:00:00	2024-11-08T18:00:00	1	Precipitación	0
117504	7	Sololá	704	Santa Lucía Utatlán 	7	Santa Rita 	9	Septiembre	2023-09-15T00:00:00	2024-11-08T18:00:00	8	Radiación solar	14
117505	7	Sololá	704	Santa Lucía Utatlán 	7	Santa Rita 	9	Septiembre	2023-09-15T00:00:00	2024-11-08T19:00:00	2	Temperatura media	16.4
117506	7	Sololá	704	Santa Lucía Utatlán 	7	Santa Rita 	9	Septiembre	2023-09-15T00:00:00	2024-11-08T19:00:00	4	Temperatura máxima	17.3
117507	7	Sololá	704	Santa Lucía Utatlán 	7	Santa Rita 	9	Septiembre	2023-09-15T00:00:00	2024-11-08T19:00:00	3	Temperatura mínima	16.3
117508	7	Sololá	704	Santa Lucía Utatlán 	7	Santa Rita 	9	Septiembre	2023-09-15T00:00:00	2024-11-08T19:00:00	5	Humedad	89
117509	7	Sololá	704	Santa Lucía Utatlán 	7	Santa Rita 	9	Septiembre	2023-09-15T00:00:00	2024-11-08T19:00:00	6	Velocidad del viento	4.8
117510	7	Sololá	704	Santa Lucía Utatlán 	7	Santa Rita 	9	Septiembre	2023-09-15T00:00:00	2024-11-08T19:00:00	7	Dirección del viento	4.83
117511	7	Sololá	704	Santa Lucía Utatlán 	7	Santa Rita 	9	Septiembre	2023-09-15T00:00:00	2024-11-08T19:00:00	1	Precipitación	0
117512	7	Sololá	704	Santa Lucía Utatlán 	7	Santa Rita 	9	Septiembre	2023-09-15T00:00:00	2024-11-08T19:00:00	8	Radiación solar	0
117513	7	Sololá	704	Santa Lucía Utatlán 	7	Santa Rita 	9	Septiembre	2023-09-15T00:00:00	2024-11-08T20:00:00	2	Temperatura media	16.1
117514	7	Sololá	704	Santa Lucía Utatlán 	7	Santa Rita 	9	Septiembre	2023-09-15T00:00:00	2024-11-08T20:00:00	4	Temperatura máxima	16.6
117515	7	Sololá	704	Santa Lucía Utatlán 	7	Santa Rita 	9	Septiembre	2023-09-15T00:00:00	2024-11-08T20:00:00	3	Temperatura mínima	16.1
117516	7	Sololá	704	Santa Lucía Utatlán 	7	Santa Rita 	9	Septiembre	2023-09-15T00:00:00	2024-11-08T20:00:00	5	Humedad	85
117517	7	Sololá	704	Santa Lucía Utatlán 	7	Santa Rita 	9	Septiembre	2023-09-15T00:00:00	2024-11-08T20:00:00	6	Velocidad del viento	4.8
117518	7	Sololá	704	Santa Lucía Utatlán 	7	Santa Rita 	9	Septiembre	2023-09-15T00:00:00	2024-11-08T20:00:00	7	Dirección del viento	4.83
117519	7	Sololá	704	Santa Lucía Utatlán 	7	Santa Rita 	9	Septiembre	2023-09-15T00:00:00	2024-11-08T20:00:00	1	Precipitación	0
117520	7	Sololá	704	Santa Lucía Utatlán 	7	Santa Rita 	9	Septiembre	2023-09-15T00:00:00	2024-11-08T20:00:00	8	Radiación solar	0
117521	7	Sololá	704	Santa Lucía Utatlán 	7	Santa Rita 	9	Septiembre	2023-09-15T00:00:00	2024-11-08T21:00:00	2	Temperatura media	15.8
117522	7	Sololá	704	Santa Lucía Utatlán 	7	Santa Rita 	9	Septiembre	2023-09-15T00:00:00	2024-11-08T21:00:00	4	Temperatura máxima	16.1
117523	7	Sololá	704	Santa Lucía Utatlán 	7	Santa Rita 	9	Septiembre	2023-09-15T00:00:00	2024-11-08T21:00:00	3	Temperatura mínima	15.7
117524	7	Sololá	704	Santa Lucía Utatlán 	7	Santa Rita 	9	Septiembre	2023-09-15T00:00:00	2024-11-08T21:00:00	5	Humedad	87
117525	7	Sololá	704	Santa Lucía Utatlán 	7	Santa Rita 	9	Septiembre	2023-09-15T00:00:00	2024-11-08T21:00:00	6	Velocidad del viento	4.8
117526	7	Sololá	704	Santa Lucía Utatlán 	7	Santa Rita 	9	Septiembre	2023-09-15T00:00:00	2024-11-08T21:00:00	7	Dirección del viento	4.83
117527	7	Sololá	704	Santa Lucía Utatlán 	7	Santa Rita 	9	Septiembre	2023-09-15T00:00:00	2024-11-08T21:00:00	1	Precipitación	0
117528	7	Sololá	704	Santa Lucía Utatlán 	7	Santa Rita 	9	Septiembre	2023-09-15T00:00:00	2024-11-08T21:00:00	8	Radiación solar	0
117529	7	Sololá	704	Santa Lucía Utatlán 	7	Santa Rita 	9	Septiembre	2023-09-15T00:00:00	2024-11-08T22:00:00	2	Temperatura media	15.6
117530	7	Sololá	704	Santa Lucía Utatlán 	7	Santa Rita 	9	Septiembre	2023-09-15T00:00:00	2024-11-08T22:00:00	4	Temperatura máxima	15.9
117531	7	Sololá	704	Santa Lucía Utatlán 	7	Santa Rita 	9	Septiembre	2023-09-15T00:00:00	2024-11-08T22:00:00	3	Temperatura mínima	15.4
117532	7	Sololá	704	Santa Lucía Utatlán 	7	Santa Rita 	9	Septiembre	2023-09-15T00:00:00	2024-11-08T22:00:00	5	Humedad	85
117533	7	Sololá	704	Santa Lucía Utatlán 	7	Santa Rita 	9	Septiembre	2023-09-15T00:00:00	2024-11-08T22:00:00	6	Velocidad del viento	4.8
117534	7	Sololá	704	Santa Lucía Utatlán 	7	Santa Rita 	9	Septiembre	2023-09-15T00:00:00	2024-11-08T22:00:00	7	Dirección del viento	4.83
117535	7	Sololá	704	Santa Lucía Utatlán 	7	Santa Rita 	9	Septiembre	2023-09-15T00:00:00	2024-11-08T22:00:00	1	Precipitación	0
117536	7	Sololá	704	Santa Lucía Utatlán 	7	Santa Rita 	9	Septiembre	2023-09-15T00:00:00	2024-11-08T22:00:00	8	Radiación solar	0
117537	7	Sololá	704	Santa Lucía Utatlán 	7	Santa Rita 	9	Septiembre	2023-09-15T00:00:00	2024-11-08T23:00:00	2	Temperatura media	16.1
117538	7	Sololá	704	Santa Lucía Utatlán 	7	Santa Rita 	9	Septiembre	2023-09-15T00:00:00	2024-11-08T23:00:00	4	Temperatura máxima	17.1
117539	7	Sololá	704	Santa Lucía Utatlán 	7	Santa Rita 	9	Septiembre	2023-09-15T00:00:00	2024-11-08T23:00:00	3	Temperatura mínima	15.6
117540	7	Sololá	704	Santa Lucía Utatlán 	7	Santa Rita 	9	Septiembre	2023-09-15T00:00:00	2024-11-08T23:00:00	5	Humedad	85
117541	7	Sololá	704	Santa Lucía Utatlán 	7	Santa Rita 	9	Septiembre	2023-09-15T00:00:00	2024-11-08T23:00:00	6	Velocidad del viento	1.6
117542	7	Sololá	704	Santa Lucía Utatlán 	7	Santa Rita 	9	Septiembre	2023-09-15T00:00:00	2024-11-08T23:00:00	7	Dirección del viento	1.61
117543	7	Sololá	704	Santa Lucía Utatlán 	7	Santa Rita 	9	Septiembre	2023-09-15T00:00:00	2024-11-08T23:00:00	1	Precipitación	0
117544	7	Sololá	704	Santa Lucía Utatlán 	7	Santa Rita 	9	Septiembre	2023-09-15T00:00:00	2024-11-08T23:00:00	8	Radiación solar	0
117545	7	Sololá	704	Santa Lucía Utatlán 	7	Santa Rita 	9	Septiembre	2023-09-16T00:00:00	2024-11-08T00:00:00	2	Temperatura media	16.1
117546	7	Sololá	704	Santa Lucía Utatlán 	7	Santa Rita 	9	Septiembre	2023-09-16T00:00:00	2024-11-08T00:00:00	4	Temperatura máxima	16.1
117547	7	Sololá	704	Santa Lucía Utatlán 	7	Santa Rita 	9	Septiembre	2023-09-16T00:00:00	2024-11-08T00:00:00	3	Temperatura mínima	15.5
117548	7	Sololá	704	Santa Lucía Utatlán 	7	Santa Rita 	9	Septiembre	2023-09-16T00:00:00	2024-11-08T00:00:00	5	Humedad	89
117549	7	Sololá	704	Santa Lucía Utatlán 	7	Santa Rita 	9	Septiembre	2023-09-16T00:00:00	2024-11-08T00:00:00	6	Velocidad del viento	1.6
117550	7	Sololá	704	Santa Lucía Utatlán 	7	Santa Rita 	9	Septiembre	2023-09-16T00:00:00	2024-11-08T00:00:00	7	Dirección del viento	1.61
117551	7	Sololá	704	Santa Lucía Utatlán 	7	Santa Rita 	9	Septiembre	2023-09-16T00:00:00	2024-11-08T00:00:00	1	Precipitación	0
117552	7	Sololá	704	Santa Lucía Utatlán 	7	Santa Rita 	9	Septiembre	2023-09-16T00:00:00	2024-11-08T00:00:00	8	Radiación solar	0
117553	7	Sololá	704	Santa Lucía Utatlán 	7	Santa Rita 	9	Septiembre	2023-09-16T00:00:00	2024-11-08T01:00:00	2	Temperatura media	16.3
117554	7	Sololá	704	Santa Lucía Utatlán 	7	Santa Rita 	9	Septiembre	2023-09-16T00:00:00	2024-11-08T01:00:00	4	Temperatura máxima	16.3
117555	7	Sololá	704	Santa Lucía Utatlán 	7	Santa Rita 	9	Septiembre	2023-09-16T00:00:00	2024-11-08T01:00:00	3	Temperatura mínima	15.8
117556	7	Sololá	704	Santa Lucía Utatlán 	7	Santa Rita 	9	Septiembre	2023-09-16T00:00:00	2024-11-08T01:00:00	5	Humedad	88
117557	7	Sololá	704	Santa Lucía Utatlán 	7	Santa Rita 	9	Septiembre	2023-09-16T00:00:00	2024-11-08T01:00:00	6	Velocidad del viento	3.2
117558	7	Sololá	704	Santa Lucía Utatlán 	7	Santa Rita 	9	Septiembre	2023-09-16T00:00:00	2024-11-08T01:00:00	7	Dirección del viento	3.22
117559	7	Sololá	704	Santa Lucía Utatlán 	7	Santa Rita 	9	Septiembre	2023-09-16T00:00:00	2024-11-08T01:00:00	1	Precipitación	0
117560	7	Sololá	704	Santa Lucía Utatlán 	7	Santa Rita 	9	Septiembre	2023-09-16T00:00:00	2024-11-08T01:00:00	8	Radiación solar	0
117561	7	Sololá	704	Santa Lucía Utatlán 	7	Santa Rita 	9	Septiembre	2023-09-16T00:00:00	2024-11-08T02:00:00	2	Temperatura media	19.6
117562	7	Sololá	704	Santa Lucía Utatlán 	7	Santa Rita 	9	Septiembre	2023-09-16T00:00:00	2024-11-08T02:00:00	4	Temperatura máxima	19.6
117563	7	Sololá	704	Santa Lucía Utatlán 	7	Santa Rita 	9	Septiembre	2023-09-16T00:00:00	2024-11-08T02:00:00	3	Temperatura mínima	16.2
117564	7	Sololá	704	Santa Lucía Utatlán 	7	Santa Rita 	9	Septiembre	2023-09-16T00:00:00	2024-11-08T02:00:00	5	Humedad	81
117565	7	Sololá	704	Santa Lucía Utatlán 	7	Santa Rita 	9	Septiembre	2023-09-16T00:00:00	2024-11-08T02:00:00	6	Velocidad del viento	1.6
117566	7	Sololá	704	Santa Lucía Utatlán 	7	Santa Rita 	9	Septiembre	2023-09-16T00:00:00	2024-11-08T02:00:00	7	Dirección del viento	1.61
117567	7	Sololá	704	Santa Lucía Utatlán 	7	Santa Rita 	9	Septiembre	2023-09-16T00:00:00	2024-11-08T02:00:00	1	Precipitación	0
117568	7	Sololá	704	Santa Lucía Utatlán 	7	Santa Rita 	9	Septiembre	2023-09-16T00:00:00	2024-11-08T02:00:00	8	Radiación solar	0
117569	7	Sololá	704	Santa Lucía Utatlán 	7	Santa Rita 	9	Septiembre	2023-09-16T00:00:00	2024-11-08T03:00:00	2	Temperatura media	23.2
117570	7	Sololá	704	Santa Lucía Utatlán 	7	Santa Rita 	9	Septiembre	2023-09-16T00:00:00	2024-11-08T03:00:00	4	Temperatura máxima	23.2
117571	7	Sololá	704	Santa Lucía Utatlán 	7	Santa Rita 	9	Septiembre	2023-09-16T00:00:00	2024-11-08T03:00:00	3	Temperatura mínima	19.6
117572	7	Sololá	704	Santa Lucía Utatlán 	7	Santa Rita 	9	Septiembre	2023-09-16T00:00:00	2024-11-08T03:00:00	5	Humedad	66
117573	7	Sololá	704	Santa Lucía Utatlán 	7	Santa Rita 	9	Septiembre	2023-09-16T00:00:00	2024-11-08T03:00:00	6	Velocidad del viento	3.2
117574	7	Sololá	704	Santa Lucía Utatlán 	7	Santa Rita 	9	Septiembre	2023-09-16T00:00:00	2024-11-08T03:00:00	7	Dirección del viento	3.22
117575	7	Sololá	704	Santa Lucía Utatlán 	7	Santa Rita 	9	Septiembre	2023-09-16T00:00:00	2024-11-08T03:00:00	1	Precipitación	0
117576	7	Sololá	704	Santa Lucía Utatlán 	7	Santa Rita 	9	Septiembre	2023-09-16T00:00:00	2024-11-08T03:00:00	8	Radiación solar	0
117577	7	Sololá	704	Santa Lucía Utatlán 	7	Santa Rita 	9	Septiembre	2023-09-16T00:00:00	2024-11-08T04:00:00	2	Temperatura media	25.1
117578	7	Sololá	704	Santa Lucía Utatlán 	7	Santa Rita 	9	Septiembre	2023-09-16T00:00:00	2024-11-08T04:00:00	4	Temperatura máxima	25.1
117579	7	Sololá	704	Santa Lucía Utatlán 	7	Santa Rita 	9	Septiembre	2023-09-16T00:00:00	2024-11-08T04:00:00	3	Temperatura mínima	23.2
117580	7	Sololá	704	Santa Lucía Utatlán 	7	Santa Rita 	9	Septiembre	2023-09-16T00:00:00	2024-11-08T04:00:00	5	Humedad	60
117581	7	Sololá	704	Santa Lucía Utatlán 	7	Santa Rita 	9	Septiembre	2023-09-16T00:00:00	2024-11-08T04:00:00	6	Velocidad del viento	4.8
117582	7	Sololá	704	Santa Lucía Utatlán 	7	Santa Rita 	9	Septiembre	2023-09-16T00:00:00	2024-11-08T04:00:00	7	Dirección del viento	4.83
117583	7	Sololá	704	Santa Lucía Utatlán 	7	Santa Rita 	9	Septiembre	2023-09-16T00:00:00	2024-11-08T04:00:00	1	Precipitación	0
117584	7	Sololá	704	Santa Lucía Utatlán 	7	Santa Rita 	9	Septiembre	2023-09-16T00:00:00	2024-11-08T04:00:00	8	Radiación solar	0
117585	7	Sololá	704	Santa Lucía Utatlán 	7	Santa Rita 	9	Septiembre	2023-09-16T00:00:00	2024-11-08T05:00:00	2	Temperatura media	25.8
117586	7	Sololá	704	Santa Lucía Utatlán 	7	Santa Rita 	9	Septiembre	2023-09-16T00:00:00	2024-11-08T05:00:00	4	Temperatura máxima	26.2
117587	7	Sololá	704	Santa Lucía Utatlán 	7	Santa Rita 	9	Septiembre	2023-09-16T00:00:00	2024-11-08T05:00:00	3	Temperatura mínima	25.1
117588	7	Sololá	704	Santa Lucía Utatlán 	7	Santa Rita 	9	Septiembre	2023-09-16T00:00:00	2024-11-08T05:00:00	5	Humedad	58
117589	7	Sololá	704	Santa Lucía Utatlán 	7	Santa Rita 	9	Septiembre	2023-09-16T00:00:00	2024-11-08T05:00:00	6	Velocidad del viento	4.8
117590	7	Sololá	704	Santa Lucía Utatlán 	7	Santa Rita 	9	Septiembre	2023-09-16T00:00:00	2024-11-08T05:00:00	7	Dirección del viento	4.83
117591	7	Sololá	704	Santa Lucía Utatlán 	7	Santa Rita 	9	Septiembre	2023-09-16T00:00:00	2024-11-08T05:00:00	1	Precipitación	0
117592	7	Sololá	704	Santa Lucía Utatlán 	7	Santa Rita 	9	Septiembre	2023-09-16T00:00:00	2024-11-08T05:00:00	8	Radiación solar	0
117593	7	Sololá	704	Santa Lucía Utatlán 	7	Santa Rita 	9	Septiembre	2023-09-16T00:00:00	2024-11-08T06:00:00	2	Temperatura media	25.6
117594	7	Sololá	704	Santa Lucía Utatlán 	7	Santa Rita 	9	Septiembre	2023-09-16T00:00:00	2024-11-08T06:00:00	4	Temperatura máxima	25.9
117595	7	Sololá	704	Santa Lucía Utatlán 	7	Santa Rita 	9	Septiembre	2023-09-16T00:00:00	2024-11-08T06:00:00	3	Temperatura mínima	25.2
117596	7	Sololá	704	Santa Lucía Utatlán 	7	Santa Rita 	9	Septiembre	2023-09-16T00:00:00	2024-11-08T06:00:00	5	Humedad	62
117597	7	Sololá	704	Santa Lucía Utatlán 	7	Santa Rita 	9	Septiembre	2023-09-16T00:00:00	2024-11-08T06:00:00	6	Velocidad del viento	11.3
117598	7	Sololá	704	Santa Lucía Utatlán 	7	Santa Rita 	9	Septiembre	2023-09-16T00:00:00	2024-11-08T06:00:00	7	Dirección del viento	11.27
117599	7	Sololá	704	Santa Lucía Utatlán 	7	Santa Rita 	9	Septiembre	2023-09-16T00:00:00	2024-11-08T06:00:00	1	Precipitación	0
117600	7	Sololá	704	Santa Lucía Utatlán 	7	Santa Rita 	9	Septiembre	2023-09-16T00:00:00	2024-11-08T06:00:00	8	Radiación solar	8
117601	7	Sololá	704	Santa Lucía Utatlán 	7	Santa Rita 	9	Septiembre	2023-09-16T00:00:00	2024-11-08T07:00:00	2	Temperatura media	24.9
117602	7	Sololá	704	Santa Lucía Utatlán 	7	Santa Rita 	9	Septiembre	2023-09-16T00:00:00	2024-11-08T07:00:00	4	Temperatura máxima	26
117603	7	Sololá	704	Santa Lucía Utatlán 	7	Santa Rita 	9	Septiembre	2023-09-16T00:00:00	2024-11-08T07:00:00	3	Temperatura mínima	24.9
117604	7	Sololá	704	Santa Lucía Utatlán 	7	Santa Rita 	9	Septiembre	2023-09-16T00:00:00	2024-11-08T07:00:00	5	Humedad	59
117605	7	Sololá	704	Santa Lucía Utatlán 	7	Santa Rita 	9	Septiembre	2023-09-16T00:00:00	2024-11-08T07:00:00	6	Velocidad del viento	11.3
117606	7	Sololá	704	Santa Lucía Utatlán 	7	Santa Rita 	9	Septiembre	2023-09-16T00:00:00	2024-11-08T07:00:00	7	Dirección del viento	11.27
117607	7	Sololá	704	Santa Lucía Utatlán 	7	Santa Rita 	9	Septiembre	2023-09-16T00:00:00	2024-11-08T07:00:00	1	Precipitación	0
117608	7	Sololá	704	Santa Lucía Utatlán 	7	Santa Rita 	9	Septiembre	2023-09-16T00:00:00	2024-11-08T07:00:00	8	Radiación solar	177
117609	7	Sololá	704	Santa Lucía Utatlán 	7	Santa Rita 	9	Septiembre	2023-09-16T00:00:00	2024-11-08T08:00:00	2	Temperatura media	25.2
117610	7	Sololá	704	Santa Lucía Utatlán 	7	Santa Rita 	9	Septiembre	2023-09-16T00:00:00	2024-11-08T08:00:00	4	Temperatura máxima	25.7
117611	7	Sololá	704	Santa Lucía Utatlán 	7	Santa Rita 	9	Septiembre	2023-09-16T00:00:00	2024-11-08T08:00:00	3	Temperatura mínima	24.8
117612	7	Sololá	704	Santa Lucía Utatlán 	7	Santa Rita 	9	Septiembre	2023-09-16T00:00:00	2024-11-08T08:00:00	5	Humedad	59
117613	7	Sololá	704	Santa Lucía Utatlán 	7	Santa Rita 	9	Septiembre	2023-09-16T00:00:00	2024-11-08T08:00:00	6	Velocidad del viento	14.5
117614	7	Sololá	704	Santa Lucía Utatlán 	7	Santa Rita 	9	Septiembre	2023-09-16T00:00:00	2024-11-08T08:00:00	7	Dirección del viento	14.48
117615	7	Sololá	704	Santa Lucía Utatlán 	7	Santa Rita 	9	Septiembre	2023-09-16T00:00:00	2024-11-08T08:00:00	1	Precipitación	0
117616	7	Sololá	704	Santa Lucía Utatlán 	7	Santa Rita 	9	Septiembre	2023-09-16T00:00:00	2024-11-08T08:00:00	8	Radiación solar	450
117617	7	Sololá	704	Santa Lucía Utatlán 	7	Santa Rita 	9	Septiembre	2023-09-16T00:00:00	2024-11-08T09:00:00	2	Temperatura media	25.8
117618	7	Sololá	704	Santa Lucía Utatlán 	7	Santa Rita 	9	Septiembre	2023-09-16T00:00:00	2024-11-08T09:00:00	4	Temperatura máxima	26.1
117619	7	Sololá	704	Santa Lucía Utatlán 	7	Santa Rita 	9	Septiembre	2023-09-16T00:00:00	2024-11-08T09:00:00	3	Temperatura mínima	25
117620	7	Sololá	704	Santa Lucía Utatlán 	7	Santa Rita 	9	Septiembre	2023-09-16T00:00:00	2024-11-08T09:00:00	5	Humedad	59
117621	7	Sololá	704	Santa Lucía Utatlán 	7	Santa Rita 	9	Septiembre	2023-09-16T00:00:00	2024-11-08T09:00:00	6	Velocidad del viento	11.3
117622	7	Sololá	704	Santa Lucía Utatlán 	7	Santa Rita 	9	Septiembre	2023-09-16T00:00:00	2024-11-08T09:00:00	7	Dirección del viento	11.27
117623	7	Sololá	704	Santa Lucía Utatlán 	7	Santa Rita 	9	Septiembre	2023-09-16T00:00:00	2024-11-08T09:00:00	1	Precipitación	0
117624	7	Sololá	704	Santa Lucía Utatlán 	7	Santa Rita 	9	Septiembre	2023-09-16T00:00:00	2024-11-08T09:00:00	8	Radiación solar	678
117625	7	Sololá	704	Santa Lucía Utatlán 	7	Santa Rita 	9	Septiembre	2023-09-16T00:00:00	2024-11-08T10:00:00	2	Temperatura media	25.6
117626	7	Sololá	704	Santa Lucía Utatlán 	7	Santa Rita 	9	Septiembre	2023-09-16T00:00:00	2024-11-08T10:00:00	4	Temperatura máxima	26.1
117627	7	Sololá	704	Santa Lucía Utatlán 	7	Santa Rita 	9	Septiembre	2023-09-16T00:00:00	2024-11-08T10:00:00	3	Temperatura mínima	25.1
117628	7	Sololá	704	Santa Lucía Utatlán 	7	Santa Rita 	9	Septiembre	2023-09-16T00:00:00	2024-11-08T10:00:00	5	Humedad	55
117629	7	Sololá	704	Santa Lucía Utatlán 	7	Santa Rita 	9	Septiembre	2023-09-16T00:00:00	2024-11-08T10:00:00	6	Velocidad del viento	9.7
117630	7	Sololá	704	Santa Lucía Utatlán 	7	Santa Rita 	9	Septiembre	2023-09-16T00:00:00	2024-11-08T10:00:00	7	Dirección del viento	9.66
117631	7	Sololá	704	Santa Lucía Utatlán 	7	Santa Rita 	9	Septiembre	2023-09-16T00:00:00	2024-11-08T10:00:00	1	Precipitación	0
117632	7	Sololá	704	Santa Lucía Utatlán 	7	Santa Rita 	9	Septiembre	2023-09-16T00:00:00	2024-11-08T10:00:00	8	Radiación solar	852
117633	7	Sololá	704	Santa Lucía Utatlán 	7	Santa Rita 	9	Septiembre	2023-09-16T00:00:00	2024-11-08T11:00:00	2	Temperatura media	24.2
117634	7	Sololá	704	Santa Lucía Utatlán 	7	Santa Rita 	9	Septiembre	2023-09-16T00:00:00	2024-11-08T11:00:00	4	Temperatura máxima	26
117635	7	Sololá	704	Santa Lucía Utatlán 	7	Santa Rita 	9	Septiembre	2023-09-16T00:00:00	2024-11-08T11:00:00	3	Temperatura mínima	24.2
117636	7	Sololá	704	Santa Lucía Utatlán 	7	Santa Rita 	9	Septiembre	2023-09-16T00:00:00	2024-11-08T11:00:00	5	Humedad	72
117637	7	Sololá	704	Santa Lucía Utatlán 	7	Santa Rita 	9	Septiembre	2023-09-16T00:00:00	2024-11-08T11:00:00	6	Velocidad del viento	9.7
117638	7	Sololá	704	Santa Lucía Utatlán 	7	Santa Rita 	9	Septiembre	2023-09-16T00:00:00	2024-11-08T11:00:00	7	Dirección del viento	9.66
117639	7	Sololá	704	Santa Lucía Utatlán 	7	Santa Rita 	9	Septiembre	2023-09-16T00:00:00	2024-11-08T11:00:00	1	Precipitación	0
117640	7	Sololá	704	Santa Lucía Utatlán 	7	Santa Rita 	9	Septiembre	2023-09-16T00:00:00	2024-11-08T11:00:00	8	Radiación solar	972
117641	7	Sololá	704	Santa Lucía Utatlán 	7	Santa Rita 	9	Septiembre	2023-09-16T00:00:00	2024-11-08T12:00:00	2	Temperatura media	23.7
117642	7	Sololá	704	Santa Lucía Utatlán 	7	Santa Rita 	9	Septiembre	2023-09-16T00:00:00	2024-11-08T12:00:00	4	Temperatura máxima	25.2
117643	7	Sololá	704	Santa Lucía Utatlán 	7	Santa Rita 	9	Septiembre	2023-09-16T00:00:00	2024-11-08T12:00:00	3	Temperatura mínima	23.7
117644	7	Sololá	704	Santa Lucía Utatlán 	7	Santa Rita 	9	Septiembre	2023-09-16T00:00:00	2024-11-08T12:00:00	5	Humedad	69
117645	7	Sololá	704	Santa Lucía Utatlán 	7	Santa Rita 	9	Septiembre	2023-09-16T00:00:00	2024-11-08T12:00:00	6	Velocidad del viento	8
117646	7	Sololá	704	Santa Lucía Utatlán 	7	Santa Rita 	9	Septiembre	2023-09-16T00:00:00	2024-11-08T12:00:00	7	Dirección del viento	8.05
117647	7	Sololá	704	Santa Lucía Utatlán 	7	Santa Rita 	9	Septiembre	2023-09-16T00:00:00	2024-11-08T12:00:00	1	Precipitación	0
117648	7	Sololá	704	Santa Lucía Utatlán 	7	Santa Rita 	9	Septiembre	2023-09-16T00:00:00	2024-11-08T12:00:00	8	Radiación solar	855
117649	7	Sololá	704	Santa Lucía Utatlán 	7	Santa Rita 	9	Septiembre	2023-09-16T00:00:00	2024-11-08T13:00:00	2	Temperatura media	22.4
117650	7	Sololá	704	Santa Lucía Utatlán 	7	Santa Rita 	9	Septiembre	2023-09-16T00:00:00	2024-11-08T13:00:00	4	Temperatura máxima	23.7
117651	7	Sololá	704	Santa Lucía Utatlán 	7	Santa Rita 	9	Septiembre	2023-09-16T00:00:00	2024-11-08T13:00:00	3	Temperatura mínima	22.4
117652	7	Sololá	704	Santa Lucía Utatlán 	7	Santa Rita 	9	Septiembre	2023-09-16T00:00:00	2024-11-08T13:00:00	5	Humedad	79
117653	7	Sololá	704	Santa Lucía Utatlán 	7	Santa Rita 	9	Septiembre	2023-09-16T00:00:00	2024-11-08T13:00:00	6	Velocidad del viento	6.4
117654	7	Sololá	704	Santa Lucía Utatlán 	7	Santa Rita 	9	Septiembre	2023-09-16T00:00:00	2024-11-08T13:00:00	7	Dirección del viento	6.44
117655	7	Sololá	704	Santa Lucía Utatlán 	7	Santa Rita 	9	Septiembre	2023-09-16T00:00:00	2024-11-08T13:00:00	1	Precipitación	0
117656	7	Sololá	704	Santa Lucía Utatlán 	7	Santa Rita 	9	Septiembre	2023-09-16T00:00:00	2024-11-08T13:00:00	8	Radiación solar	420
117657	7	Sololá	704	Santa Lucía Utatlán 	7	Santa Rita 	9	Septiembre	2023-09-16T00:00:00	2024-11-08T14:00:00	2	Temperatura media	21.6
117658	7	Sololá	704	Santa Lucía Utatlán 	7	Santa Rita 	9	Septiembre	2023-09-16T00:00:00	2024-11-08T14:00:00	4	Temperatura máxima	22.4
117659	7	Sololá	704	Santa Lucía Utatlán 	7	Santa Rita 	9	Septiembre	2023-09-16T00:00:00	2024-11-08T14:00:00	3	Temperatura mínima	21.6
117660	7	Sololá	704	Santa Lucía Utatlán 	7	Santa Rita 	9	Septiembre	2023-09-16T00:00:00	2024-11-08T14:00:00	5	Humedad	80
117661	7	Sololá	704	Santa Lucía Utatlán 	7	Santa Rita 	9	Septiembre	2023-09-16T00:00:00	2024-11-08T14:00:00	6	Velocidad del viento	3.2
117662	7	Sololá	704	Santa Lucía Utatlán 	7	Santa Rita 	9	Septiembre	2023-09-16T00:00:00	2024-11-08T14:00:00	7	Dirección del viento	3.22
117663	7	Sololá	704	Santa Lucía Utatlán 	7	Santa Rita 	9	Septiembre	2023-09-16T00:00:00	2024-11-08T14:00:00	1	Precipitación	0
117664	7	Sololá	704	Santa Lucía Utatlán 	7	Santa Rita 	9	Septiembre	2023-09-16T00:00:00	2024-11-08T14:00:00	8	Radiación solar	614
117665	7	Sololá	704	Santa Lucía Utatlán 	7	Santa Rita 	9	Septiembre	2023-09-16T00:00:00	2024-11-08T15:00:00	2	Temperatura media	20.1
117666	7	Sololá	704	Santa Lucía Utatlán 	7	Santa Rita 	9	Septiembre	2023-09-16T00:00:00	2024-11-08T15:00:00	4	Temperatura máxima	21.7
117667	7	Sololá	704	Santa Lucía Utatlán 	7	Santa Rita 	9	Septiembre	2023-09-16T00:00:00	2024-11-08T15:00:00	3	Temperatura mínima	19.7
117668	7	Sololá	704	Santa Lucía Utatlán 	7	Santa Rita 	9	Septiembre	2023-09-16T00:00:00	2024-11-08T15:00:00	5	Humedad	88
117669	7	Sololá	704	Santa Lucía Utatlán 	7	Santa Rita 	9	Septiembre	2023-09-16T00:00:00	2024-11-08T15:00:00	6	Velocidad del viento	3.2
117670	7	Sololá	704	Santa Lucía Utatlán 	7	Santa Rita 	9	Septiembre	2023-09-16T00:00:00	2024-11-08T15:00:00	7	Dirección del viento	3.22
117671	7	Sololá	704	Santa Lucía Utatlán 	7	Santa Rita 	9	Septiembre	2023-09-16T00:00:00	2024-11-08T15:00:00	1	Precipitación	0
117672	7	Sololá	704	Santa Lucía Utatlán 	7	Santa Rita 	9	Septiembre	2023-09-16T00:00:00	2024-11-08T15:00:00	8	Radiación solar	516
117673	7	Sololá	704	Santa Lucía Utatlán 	7	Santa Rita 	9	Septiembre	2023-09-16T00:00:00	2024-11-08T16:00:00	2	Temperatura media	19.6
117674	7	Sololá	704	Santa Lucía Utatlán 	7	Santa Rita 	9	Septiembre	2023-09-16T00:00:00	2024-11-08T16:00:00	4	Temperatura máxima	20.3
117675	7	Sololá	704	Santa Lucía Utatlán 	7	Santa Rita 	9	Septiembre	2023-09-16T00:00:00	2024-11-08T16:00:00	3	Temperatura mínima	19.6
117676	7	Sololá	704	Santa Lucía Utatlán 	7	Santa Rita 	9	Septiembre	2023-09-16T00:00:00	2024-11-08T16:00:00	5	Humedad	90
117677	7	Sololá	704	Santa Lucía Utatlán 	7	Santa Rita 	9	Septiembre	2023-09-16T00:00:00	2024-11-08T16:00:00	6	Velocidad del viento	1.6
117678	7	Sololá	704	Santa Lucía Utatlán 	7	Santa Rita 	9	Septiembre	2023-09-16T00:00:00	2024-11-08T16:00:00	7	Dirección del viento	1.61
117679	7	Sololá	704	Santa Lucía Utatlán 	7	Santa Rita 	9	Septiembre	2023-09-16T00:00:00	2024-11-08T16:00:00	1	Precipitación	0
117680	7	Sololá	704	Santa Lucía Utatlán 	7	Santa Rita 	9	Septiembre	2023-09-16T00:00:00	2024-11-08T16:00:00	8	Radiación solar	295
117681	7	Sololá	704	Santa Lucía Utatlán 	7	Santa Rita 	9	Septiembre	2023-09-16T00:00:00	2024-11-08T17:00:00	2	Temperatura media	18.6
117682	7	Sololá	704	Santa Lucía Utatlán 	7	Santa Rita 	9	Septiembre	2023-09-16T00:00:00	2024-11-08T17:00:00	4	Temperatura máxima	19.7
117683	7	Sololá	704	Santa Lucía Utatlán 	7	Santa Rita 	9	Septiembre	2023-09-16T00:00:00	2024-11-08T17:00:00	3	Temperatura mínima	18.6
117684	7	Sololá	704	Santa Lucía Utatlán 	7	Santa Rita 	9	Septiembre	2023-09-16T00:00:00	2024-11-08T17:00:00	5	Humedad	90
117685	7	Sololá	704	Santa Lucía Utatlán 	7	Santa Rita 	9	Septiembre	2023-09-16T00:00:00	2024-11-08T17:00:00	6	Velocidad del viento	3.2
117686	7	Sololá	704	Santa Lucía Utatlán 	7	Santa Rita 	9	Septiembre	2023-09-16T00:00:00	2024-11-08T17:00:00	7	Dirección del viento	3.22
117687	7	Sololá	704	Santa Lucía Utatlán 	7	Santa Rita 	9	Septiembre	2023-09-16T00:00:00	2024-11-08T17:00:00	1	Precipitación	0
117688	7	Sololá	704	Santa Lucía Utatlán 	7	Santa Rita 	9	Septiembre	2023-09-16T00:00:00	2024-11-08T17:00:00	8	Radiación solar	160
117689	7	Sololá	704	Santa Lucía Utatlán 	7	Santa Rita 	9	Septiembre	2023-09-16T00:00:00	2024-11-08T18:00:00	2	Temperatura media	17.7
117690	7	Sololá	704	Santa Lucía Utatlán 	7	Santa Rita 	9	Septiembre	2023-09-16T00:00:00	2024-11-08T18:00:00	4	Temperatura máxima	18.6
117691	7	Sololá	704	Santa Lucía Utatlán 	7	Santa Rita 	9	Septiembre	2023-09-16T00:00:00	2024-11-08T18:00:00	3	Temperatura mínima	17.7
117692	7	Sololá	704	Santa Lucía Utatlán 	7	Santa Rita 	9	Septiembre	2023-09-16T00:00:00	2024-11-08T18:00:00	5	Humedad	91
117693	7	Sololá	704	Santa Lucía Utatlán 	7	Santa Rita 	9	Septiembre	2023-09-16T00:00:00	2024-11-08T18:00:00	6	Velocidad del viento	1.6
117694	7	Sololá	704	Santa Lucía Utatlán 	7	Santa Rita 	9	Septiembre	2023-09-16T00:00:00	2024-11-08T18:00:00	7	Dirección del viento	1.61
117695	7	Sololá	704	Santa Lucía Utatlán 	7	Santa Rita 	9	Septiembre	2023-09-16T00:00:00	2024-11-08T18:00:00	1	Precipitación	0
117696	7	Sololá	704	Santa Lucía Utatlán 	7	Santa Rita 	9	Septiembre	2023-09-16T00:00:00	2024-11-08T18:00:00	8	Radiación solar	16
117697	7	Sololá	704	Santa Lucía Utatlán 	7	Santa Rita 	9	Septiembre	2023-09-16T00:00:00	2024-11-08T19:00:00	2	Temperatura media	17.1
117698	7	Sololá	704	Santa Lucía Utatlán 	7	Santa Rita 	9	Septiembre	2023-09-16T00:00:00	2024-11-08T19:00:00	4	Temperatura máxima	17.7
117699	7	Sololá	704	Santa Lucía Utatlán 	7	Santa Rita 	9	Septiembre	2023-09-16T00:00:00	2024-11-08T19:00:00	3	Temperatura mínima	17.1
117700	7	Sololá	704	Santa Lucía Utatlán 	7	Santa Rita 	9	Septiembre	2023-09-16T00:00:00	2024-11-08T19:00:00	5	Humedad	92
117701	7	Sololá	704	Santa Lucía Utatlán 	7	Santa Rita 	9	Septiembre	2023-09-16T00:00:00	2024-11-08T19:00:00	6	Velocidad del viento	3.2
117702	7	Sololá	704	Santa Lucía Utatlán 	7	Santa Rita 	9	Septiembre	2023-09-16T00:00:00	2024-11-08T19:00:00	7	Dirección del viento	3.22
117703	7	Sololá	704	Santa Lucía Utatlán 	7	Santa Rita 	9	Septiembre	2023-09-16T00:00:00	2024-11-08T19:00:00	1	Precipitación	0
117704	7	Sololá	704	Santa Lucía Utatlán 	7	Santa Rita 	9	Septiembre	2023-09-16T00:00:00	2024-11-08T19:00:00	8	Radiación solar	0
117705	7	Sololá	704	Santa Lucía Utatlán 	7	Santa Rita 	9	Septiembre	2023-09-16T00:00:00	2024-11-08T20:00:00	2	Temperatura media	15.9
117706	7	Sololá	704	Santa Lucía Utatlán 	7	Santa Rita 	9	Septiembre	2023-09-16T00:00:00	2024-11-08T20:00:00	4	Temperatura máxima	17.2
117707	7	Sololá	704	Santa Lucía Utatlán 	7	Santa Rita 	9	Septiembre	2023-09-16T00:00:00	2024-11-08T20:00:00	3	Temperatura mínima	15.9
117708	7	Sololá	704	Santa Lucía Utatlán 	7	Santa Rita 	9	Septiembre	2023-09-16T00:00:00	2024-11-08T20:00:00	5	Humedad	88
117709	7	Sololá	704	Santa Lucía Utatlán 	7	Santa Rita 	9	Septiembre	2023-09-16T00:00:00	2024-11-08T20:00:00	6	Velocidad del viento	4.8
117710	7	Sololá	704	Santa Lucía Utatlán 	7	Santa Rita 	9	Septiembre	2023-09-16T00:00:00	2024-11-08T20:00:00	7	Dirección del viento	4.83
117711	7	Sololá	704	Santa Lucía Utatlán 	7	Santa Rita 	9	Septiembre	2023-09-16T00:00:00	2024-11-08T20:00:00	1	Precipitación	0
117712	7	Sololá	704	Santa Lucía Utatlán 	7	Santa Rita 	9	Septiembre	2023-09-16T00:00:00	2024-11-08T20:00:00	8	Radiación solar	0
117713	7	Sololá	704	Santa Lucía Utatlán 	7	Santa Rita 	9	Septiembre	2023-09-16T00:00:00	2024-11-08T21:00:00	2	Temperatura media	15.4
117714	7	Sololá	704	Santa Lucía Utatlán 	7	Santa Rita 	9	Septiembre	2023-09-16T00:00:00	2024-11-08T21:00:00	4	Temperatura máxima	15.9
117715	7	Sololá	704	Santa Lucía Utatlán 	7	Santa Rita 	9	Septiembre	2023-09-16T00:00:00	2024-11-08T21:00:00	3	Temperatura mínima	15.4
117716	7	Sololá	704	Santa Lucía Utatlán 	7	Santa Rita 	9	Septiembre	2023-09-16T00:00:00	2024-11-08T21:00:00	5	Humedad	88
117717	7	Sololá	704	Santa Lucía Utatlán 	7	Santa Rita 	9	Septiembre	2023-09-16T00:00:00	2024-11-08T21:00:00	6	Velocidad del viento	4.8
117718	7	Sololá	704	Santa Lucía Utatlán 	7	Santa Rita 	9	Septiembre	2023-09-16T00:00:00	2024-11-08T21:00:00	7	Dirección del viento	4.83
117719	7	Sololá	704	Santa Lucía Utatlán 	7	Santa Rita 	9	Septiembre	2023-09-16T00:00:00	2024-11-08T21:00:00	1	Precipitación	0
117720	7	Sololá	704	Santa Lucía Utatlán 	7	Santa Rita 	9	Septiembre	2023-09-16T00:00:00	2024-11-08T21:00:00	8	Radiación solar	0
117721	7	Sololá	704	Santa Lucía Utatlán 	7	Santa Rita 	9	Septiembre	2023-09-16T00:00:00	2024-11-08T22:00:00	2	Temperatura media	15.8
117722	7	Sololá	704	Santa Lucía Utatlán 	7	Santa Rita 	9	Septiembre	2023-09-16T00:00:00	2024-11-08T22:00:00	4	Temperatura máxima	15.8
117723	7	Sololá	704	Santa Lucía Utatlán 	7	Santa Rita 	9	Septiembre	2023-09-16T00:00:00	2024-11-08T22:00:00	3	Temperatura mínima	15.4
117724	7	Sololá	704	Santa Lucía Utatlán 	7	Santa Rita 	9	Septiembre	2023-09-16T00:00:00	2024-11-08T22:00:00	5	Humedad	84
117725	7	Sololá	704	Santa Lucía Utatlán 	7	Santa Rita 	9	Septiembre	2023-09-16T00:00:00	2024-11-08T22:00:00	6	Velocidad del viento	4.8
117726	7	Sololá	704	Santa Lucía Utatlán 	7	Santa Rita 	9	Septiembre	2023-09-16T00:00:00	2024-11-08T22:00:00	7	Dirección del viento	4.83
117727	7	Sololá	704	Santa Lucía Utatlán 	7	Santa Rita 	9	Septiembre	2023-09-16T00:00:00	2024-11-08T22:00:00	1	Precipitación	0
117728	7	Sololá	704	Santa Lucía Utatlán 	7	Santa Rita 	9	Septiembre	2023-09-16T00:00:00	2024-11-08T22:00:00	8	Radiación solar	0
117729	7	Sololá	704	Santa Lucía Utatlán 	7	Santa Rita 	9	Septiembre	2023-09-16T00:00:00	2024-11-08T23:00:00	2	Temperatura media	15.6
117730	7	Sololá	704	Santa Lucía Utatlán 	7	Santa Rita 	9	Septiembre	2023-09-16T00:00:00	2024-11-08T23:00:00	4	Temperatura máxima	16
117731	7	Sololá	704	Santa Lucía Utatlán 	7	Santa Rita 	9	Septiembre	2023-09-16T00:00:00	2024-11-08T23:00:00	3	Temperatura mínima	15.4
117732	7	Sololá	704	Santa Lucía Utatlán 	7	Santa Rita 	9	Septiembre	2023-09-16T00:00:00	2024-11-08T23:00:00	5	Humedad	83
117733	7	Sololá	704	Santa Lucía Utatlán 	7	Santa Rita 	9	Septiembre	2023-09-16T00:00:00	2024-11-08T23:00:00	6	Velocidad del viento	4.8
117734	7	Sololá	704	Santa Lucía Utatlán 	7	Santa Rita 	9	Septiembre	2023-09-16T00:00:00	2024-11-08T23:00:00	7	Dirección del viento	4.83
117735	7	Sololá	704	Santa Lucía Utatlán 	7	Santa Rita 	9	Septiembre	2023-09-16T00:00:00	2024-11-08T23:00:00	1	Precipitación	0
117736	7	Sololá	704	Santa Lucía Utatlán 	7	Santa Rita 	9	Septiembre	2023-09-16T00:00:00	2024-11-08T23:00:00	8	Radiación solar	0
117737	7	Sololá	704	Santa Lucía Utatlán 	7	Santa Rita 	9	Septiembre	2023-09-17T00:00:00	2024-11-08T00:00:00	2	Temperatura media	15.6
117738	7	Sololá	704	Santa Lucía Utatlán 	7	Santa Rita 	9	Septiembre	2023-09-17T00:00:00	2024-11-08T00:00:00	4	Temperatura máxima	15.7
117739	7	Sololá	704	Santa Lucía Utatlán 	7	Santa Rita 	9	Septiembre	2023-09-17T00:00:00	2024-11-08T00:00:00	3	Temperatura mínima	15.2
117740	7	Sololá	704	Santa Lucía Utatlán 	7	Santa Rita 	9	Septiembre	2023-09-17T00:00:00	2024-11-08T00:00:00	5	Humedad	81
117741	7	Sololá	704	Santa Lucía Utatlán 	7	Santa Rita 	9	Septiembre	2023-09-17T00:00:00	2024-11-08T00:00:00	6	Velocidad del viento	4.8
117742	7	Sololá	704	Santa Lucía Utatlán 	7	Santa Rita 	9	Septiembre	2023-09-17T00:00:00	2024-11-08T00:00:00	7	Dirección del viento	4.83
117743	7	Sololá	704	Santa Lucía Utatlán 	7	Santa Rita 	9	Septiembre	2023-09-17T00:00:00	2024-11-08T00:00:00	1	Precipitación	0
117744	7	Sololá	704	Santa Lucía Utatlán 	7	Santa Rita 	9	Septiembre	2023-09-17T00:00:00	2024-11-08T00:00:00	8	Radiación solar	0
117745	7	Sololá	704	Santa Lucía Utatlán 	7	Santa Rita 	9	Septiembre	2023-09-17T00:00:00	2024-11-08T01:00:00	2	Temperatura media	16.6
117746	7	Sololá	704	Santa Lucía Utatlán 	7	Santa Rita 	9	Septiembre	2023-09-17T00:00:00	2024-11-08T01:00:00	4	Temperatura máxima	17.3
117747	7	Sololá	704	Santa Lucía Utatlán 	7	Santa Rita 	9	Septiembre	2023-09-17T00:00:00	2024-11-08T01:00:00	3	Temperatura mínima	15.6
117748	7	Sololá	704	Santa Lucía Utatlán 	7	Santa Rita 	9	Septiembre	2023-09-17T00:00:00	2024-11-08T01:00:00	5	Humedad	76
117749	7	Sololá	704	Santa Lucía Utatlán 	7	Santa Rita 	9	Septiembre	2023-09-17T00:00:00	2024-11-08T01:00:00	6	Velocidad del viento	4.8
117750	7	Sololá	704	Santa Lucía Utatlán 	7	Santa Rita 	9	Septiembre	2023-09-17T00:00:00	2024-11-08T01:00:00	7	Dirección del viento	4.83
117751	7	Sololá	704	Santa Lucía Utatlán 	7	Santa Rita 	9	Septiembre	2023-09-17T00:00:00	2024-11-08T01:00:00	1	Precipitación	0
117752	7	Sololá	704	Santa Lucía Utatlán 	7	Santa Rita 	9	Septiembre	2023-09-17T00:00:00	2024-11-08T01:00:00	8	Radiación solar	0
117753	7	Sololá	704	Santa Lucía Utatlán 	7	Santa Rita 	9	Septiembre	2023-09-17T00:00:00	2024-11-08T02:00:00	2	Temperatura media	19.3
117754	7	Sololá	704	Santa Lucía Utatlán 	7	Santa Rita 	9	Septiembre	2023-09-17T00:00:00	2024-11-08T02:00:00	4	Temperatura máxima	19.3
117755	7	Sololá	704	Santa Lucía Utatlán 	7	Santa Rita 	9	Septiembre	2023-09-17T00:00:00	2024-11-08T02:00:00	3	Temperatura mínima	16.3
117756	7	Sololá	704	Santa Lucía Utatlán 	7	Santa Rita 	9	Septiembre	2023-09-17T00:00:00	2024-11-08T02:00:00	5	Humedad	73
117757	7	Sololá	704	Santa Lucía Utatlán 	7	Santa Rita 	9	Septiembre	2023-09-17T00:00:00	2024-11-08T02:00:00	6	Velocidad del viento	1.6
117758	7	Sololá	704	Santa Lucía Utatlán 	7	Santa Rita 	9	Septiembre	2023-09-17T00:00:00	2024-11-08T02:00:00	7	Dirección del viento	1.61
117759	7	Sololá	704	Santa Lucía Utatlán 	7	Santa Rita 	9	Septiembre	2023-09-17T00:00:00	2024-11-08T02:00:00	1	Precipitación	0
117760	7	Sololá	704	Santa Lucía Utatlán 	7	Santa Rita 	9	Septiembre	2023-09-17T00:00:00	2024-11-08T02:00:00	8	Radiación solar	0
117761	7	Sololá	704	Santa Lucía Utatlán 	7	Santa Rita 	9	Septiembre	2023-09-17T00:00:00	2024-11-08T03:00:00	2	Temperatura media	21.9
117762	7	Sololá	704	Santa Lucía Utatlán 	7	Santa Rita 	9	Septiembre	2023-09-17T00:00:00	2024-11-08T03:00:00	4	Temperatura máxima	21.9
117763	7	Sololá	704	Santa Lucía Utatlán 	7	Santa Rita 	9	Septiembre	2023-09-17T00:00:00	2024-11-08T03:00:00	3	Temperatura mínima	19.3
117764	7	Sololá	704	Santa Lucía Utatlán 	7	Santa Rita 	9	Septiembre	2023-09-17T00:00:00	2024-11-08T03:00:00	5	Humedad	66
117765	7	Sololá	704	Santa Lucía Utatlán 	7	Santa Rita 	9	Septiembre	2023-09-17T00:00:00	2024-11-08T03:00:00	6	Velocidad del viento	3.2
117766	7	Sololá	704	Santa Lucía Utatlán 	7	Santa Rita 	9	Septiembre	2023-09-17T00:00:00	2024-11-08T03:00:00	7	Dirección del viento	3.22
117767	7	Sololá	704	Santa Lucía Utatlán 	7	Santa Rita 	9	Septiembre	2023-09-17T00:00:00	2024-11-08T03:00:00	1	Precipitación	0
117768	7	Sololá	704	Santa Lucía Utatlán 	7	Santa Rita 	9	Septiembre	2023-09-17T00:00:00	2024-11-08T03:00:00	8	Radiación solar	0
117769	7	Sololá	704	Santa Lucía Utatlán 	7	Santa Rita 	9	Septiembre	2023-09-17T00:00:00	2024-11-08T04:00:00	2	Temperatura media	23.7
117770	7	Sololá	704	Santa Lucía Utatlán 	7	Santa Rita 	9	Septiembre	2023-09-17T00:00:00	2024-11-08T04:00:00	4	Temperatura máxima	23.8
117771	7	Sololá	704	Santa Lucía Utatlán 	7	Santa Rita 	9	Septiembre	2023-09-17T00:00:00	2024-11-08T04:00:00	3	Temperatura mínima	21.9
117772	7	Sololá	704	Santa Lucía Utatlán 	7	Santa Rita 	9	Septiembre	2023-09-17T00:00:00	2024-11-08T04:00:00	5	Humedad	62
117773	7	Sololá	704	Santa Lucía Utatlán 	7	Santa Rita 	9	Septiembre	2023-09-17T00:00:00	2024-11-08T04:00:00	6	Velocidad del viento	6.4
117774	7	Sololá	704	Santa Lucía Utatlán 	7	Santa Rita 	9	Septiembre	2023-09-17T00:00:00	2024-11-08T04:00:00	7	Dirección del viento	6.44
117775	7	Sololá	704	Santa Lucía Utatlán 	7	Santa Rita 	9	Septiembre	2023-09-17T00:00:00	2024-11-08T04:00:00	1	Precipitación	0
117776	7	Sololá	704	Santa Lucía Utatlán 	7	Santa Rita 	9	Septiembre	2023-09-17T00:00:00	2024-11-08T04:00:00	8	Radiación solar	0
117777	7	Sololá	704	Santa Lucía Utatlán 	7	Santa Rita 	9	Septiembre	2023-09-17T00:00:00	2024-11-08T05:00:00	2	Temperatura media	24.7
117778	7	Sololá	704	Santa Lucía Utatlán 	7	Santa Rita 	9	Septiembre	2023-09-17T00:00:00	2024-11-08T05:00:00	4	Temperatura máxima	24.7
117779	7	Sololá	704	Santa Lucía Utatlán 	7	Santa Rita 	9	Septiembre	2023-09-17T00:00:00	2024-11-08T05:00:00	3	Temperatura mínima	23.6
117780	7	Sololá	704	Santa Lucía Utatlán 	7	Santa Rita 	9	Septiembre	2023-09-17T00:00:00	2024-11-08T05:00:00	5	Humedad	56
117781	7	Sololá	704	Santa Lucía Utatlán 	7	Santa Rita 	9	Septiembre	2023-09-17T00:00:00	2024-11-08T05:00:00	6	Velocidad del viento	6.4
117782	7	Sololá	704	Santa Lucía Utatlán 	7	Santa Rita 	9	Septiembre	2023-09-17T00:00:00	2024-11-08T05:00:00	7	Dirección del viento	6.44
117783	7	Sololá	704	Santa Lucía Utatlán 	7	Santa Rita 	9	Septiembre	2023-09-17T00:00:00	2024-11-08T05:00:00	1	Precipitación	0
117784	7	Sololá	704	Santa Lucía Utatlán 	7	Santa Rita 	9	Septiembre	2023-09-17T00:00:00	2024-11-08T05:00:00	8	Radiación solar	0
117785	7	Sololá	704	Santa Lucía Utatlán 	7	Santa Rita 	9	Septiembre	2023-09-17T00:00:00	2024-11-08T06:00:00	2	Temperatura media	25.2
117786	7	Sololá	704	Santa Lucía Utatlán 	7	Santa Rita 	9	Septiembre	2023-09-17T00:00:00	2024-11-08T06:00:00	4	Temperatura máxima	25.2
117787	7	Sololá	704	Santa Lucía Utatlán 	7	Santa Rita 	9	Septiembre	2023-09-17T00:00:00	2024-11-08T06:00:00	3	Temperatura mínima	24.4
117788	7	Sololá	704	Santa Lucía Utatlán 	7	Santa Rita 	9	Septiembre	2023-09-17T00:00:00	2024-11-08T06:00:00	5	Humedad	57
117789	7	Sololá	704	Santa Lucía Utatlán 	7	Santa Rita 	9	Septiembre	2023-09-17T00:00:00	2024-11-08T06:00:00	6	Velocidad del viento	6.4
117790	7	Sololá	704	Santa Lucía Utatlán 	7	Santa Rita 	9	Septiembre	2023-09-17T00:00:00	2024-11-08T06:00:00	7	Dirección del viento	6.44
117791	7	Sololá	704	Santa Lucía Utatlán 	7	Santa Rita 	9	Septiembre	2023-09-17T00:00:00	2024-11-08T06:00:00	1	Precipitación	0
117792	7	Sololá	704	Santa Lucía Utatlán 	7	Santa Rita 	9	Septiembre	2023-09-17T00:00:00	2024-11-08T06:00:00	8	Radiación solar	7
117793	7	Sololá	704	Santa Lucía Utatlán 	7	Santa Rita 	9	Septiembre	2023-09-17T00:00:00	2024-11-08T07:00:00	2	Temperatura media	25.6
117794	7	Sololá	704	Santa Lucía Utatlán 	7	Santa Rita 	9	Septiembre	2023-09-17T00:00:00	2024-11-08T07:00:00	4	Temperatura máxima	25.7
117795	7	Sololá	704	Santa Lucía Utatlán 	7	Santa Rita 	9	Septiembre	2023-09-17T00:00:00	2024-11-08T07:00:00	3	Temperatura mínima	25.1
117796	7	Sololá	704	Santa Lucía Utatlán 	7	Santa Rita 	9	Septiembre	2023-09-17T00:00:00	2024-11-08T07:00:00	5	Humedad	57
117797	7	Sololá	704	Santa Lucía Utatlán 	7	Santa Rita 	9	Septiembre	2023-09-17T00:00:00	2024-11-08T07:00:00	6	Velocidad del viento	6.4
117798	7	Sololá	704	Santa Lucía Utatlán 	7	Santa Rita 	9	Septiembre	2023-09-17T00:00:00	2024-11-08T07:00:00	7	Dirección del viento	6.44
117799	7	Sololá	704	Santa Lucía Utatlán 	7	Santa Rita 	9	Septiembre	2023-09-17T00:00:00	2024-11-08T07:00:00	1	Precipitación	0
117800	7	Sololá	704	Santa Lucía Utatlán 	7	Santa Rita 	9	Septiembre	2023-09-17T00:00:00	2024-11-08T07:00:00	8	Radiación solar	168
117801	7	Sololá	704	Santa Lucía Utatlán 	7	Santa Rita 	9	Septiembre	2023-09-17T00:00:00	2024-11-08T08:00:00	2	Temperatura media	25.9
117802	7	Sololá	704	Santa Lucía Utatlán 	7	Santa Rita 	9	Septiembre	2023-09-17T00:00:00	2024-11-08T08:00:00	4	Temperatura máxima	26.6
117803	7	Sololá	704	Santa Lucía Utatlán 	7	Santa Rita 	9	Septiembre	2023-09-17T00:00:00	2024-11-08T08:00:00	3	Temperatura mínima	25.4
117804	7	Sololá	704	Santa Lucía Utatlán 	7	Santa Rita 	9	Septiembre	2023-09-17T00:00:00	2024-11-08T08:00:00	5	Humedad	57
117805	7	Sololá	704	Santa Lucía Utatlán 	7	Santa Rita 	9	Septiembre	2023-09-17T00:00:00	2024-11-08T08:00:00	6	Velocidad del viento	6.4
117806	7	Sololá	704	Santa Lucía Utatlán 	7	Santa Rita 	9	Septiembre	2023-09-17T00:00:00	2024-11-08T08:00:00	7	Dirección del viento	6.44
117807	7	Sololá	704	Santa Lucía Utatlán 	7	Santa Rita 	9	Septiembre	2023-09-17T00:00:00	2024-11-08T08:00:00	1	Precipitación	0
117808	7	Sololá	704	Santa Lucía Utatlán 	7	Santa Rita 	9	Septiembre	2023-09-17T00:00:00	2024-11-08T08:00:00	8	Radiación solar	431
117809	7	Sololá	704	Santa Lucía Utatlán 	7	Santa Rita 	9	Septiembre	2023-09-17T00:00:00	2024-11-08T09:00:00	2	Temperatura media	25.3
117810	7	Sololá	704	Santa Lucía Utatlán 	7	Santa Rita 	9	Septiembre	2023-09-17T00:00:00	2024-11-08T09:00:00	4	Temperatura máxima	26
117811	7	Sololá	704	Santa Lucía Utatlán 	7	Santa Rita 	9	Septiembre	2023-09-17T00:00:00	2024-11-08T09:00:00	3	Temperatura mínima	25.1
117812	7	Sololá	704	Santa Lucía Utatlán 	7	Santa Rita 	9	Septiembre	2023-09-17T00:00:00	2024-11-08T09:00:00	5	Humedad	70
117813	7	Sololá	704	Santa Lucía Utatlán 	7	Santa Rita 	9	Septiembre	2023-09-17T00:00:00	2024-11-08T09:00:00	6	Velocidad del viento	8
117814	7	Sololá	704	Santa Lucía Utatlán 	7	Santa Rita 	9	Septiembre	2023-09-17T00:00:00	2024-11-08T09:00:00	7	Dirección del viento	8.05
117815	7	Sololá	704	Santa Lucía Utatlán 	7	Santa Rita 	9	Septiembre	2023-09-17T00:00:00	2024-11-08T09:00:00	1	Precipitación	0
117816	7	Sololá	704	Santa Lucía Utatlán 	7	Santa Rita 	9	Septiembre	2023-09-17T00:00:00	2024-11-08T09:00:00	8	Radiación solar	678
117817	7	Sololá	704	Santa Lucía Utatlán 	7	Santa Rita 	9	Septiembre	2023-09-17T00:00:00	2024-11-08T10:00:00	2	Temperatura media	25.9
117818	7	Sololá	704	Santa Lucía Utatlán 	7	Santa Rita 	9	Septiembre	2023-09-17T00:00:00	2024-11-08T10:00:00	4	Temperatura máxima	25.9
117819	7	Sololá	704	Santa Lucía Utatlán 	7	Santa Rita 	9	Septiembre	2023-09-17T00:00:00	2024-11-08T10:00:00	3	Temperatura mínima	24.5
117820	7	Sololá	704	Santa Lucía Utatlán 	7	Santa Rita 	9	Septiembre	2023-09-17T00:00:00	2024-11-08T10:00:00	5	Humedad	61
117821	7	Sololá	704	Santa Lucía Utatlán 	7	Santa Rita 	9	Septiembre	2023-09-17T00:00:00	2024-11-08T10:00:00	6	Velocidad del viento	9.7
117822	7	Sololá	704	Santa Lucía Utatlán 	7	Santa Rita 	9	Septiembre	2023-09-17T00:00:00	2024-11-08T10:00:00	7	Dirección del viento	9.66
117823	7	Sololá	704	Santa Lucía Utatlán 	7	Santa Rita 	9	Septiembre	2023-09-17T00:00:00	2024-11-08T10:00:00	1	Precipitación	0
117824	7	Sololá	704	Santa Lucía Utatlán 	7	Santa Rita 	9	Septiembre	2023-09-17T00:00:00	2024-11-08T10:00:00	8	Radiación solar	868
117825	7	Sololá	704	Santa Lucía Utatlán 	7	Santa Rita 	9	Septiembre	2023-09-17T00:00:00	2024-11-08T11:00:00	2	Temperatura media	25.3
117826	7	Sololá	704	Santa Lucía Utatlán 	7	Santa Rita 	9	Septiembre	2023-09-17T00:00:00	2024-11-08T11:00:00	4	Temperatura máxima	26.1
117827	7	Sololá	704	Santa Lucía Utatlán 	7	Santa Rita 	9	Septiembre	2023-09-17T00:00:00	2024-11-08T11:00:00	3	Temperatura mínima	25.1
117828	7	Sololá	704	Santa Lucía Utatlán 	7	Santa Rita 	9	Septiembre	2023-09-17T00:00:00	2024-11-08T11:00:00	5	Humedad	59
117829	7	Sololá	704	Santa Lucía Utatlán 	7	Santa Rita 	9	Septiembre	2023-09-17T00:00:00	2024-11-08T11:00:00	6	Velocidad del viento	6.4
117830	7	Sololá	704	Santa Lucía Utatlán 	7	Santa Rita 	9	Septiembre	2023-09-17T00:00:00	2024-11-08T11:00:00	7	Dirección del viento	6.44
117831	7	Sololá	704	Santa Lucía Utatlán 	7	Santa Rita 	9	Septiembre	2023-09-17T00:00:00	2024-11-08T11:00:00	1	Precipitación	0
117832	7	Sololá	704	Santa Lucía Utatlán 	7	Santa Rita 	9	Septiembre	2023-09-17T00:00:00	2024-11-08T11:00:00	8	Radiación solar	946
117833	7	Sololá	704	Santa Lucía Utatlán 	7	Santa Rita 	9	Septiembre	2023-09-17T00:00:00	2024-11-08T12:00:00	2	Temperatura media	23
117834	7	Sololá	704	Santa Lucía Utatlán 	7	Santa Rita 	9	Septiembre	2023-09-17T00:00:00	2024-11-08T12:00:00	4	Temperatura máxima	26.5
117835	7	Sololá	704	Santa Lucía Utatlán 	7	Santa Rita 	9	Septiembre	2023-09-17T00:00:00	2024-11-08T12:00:00	3	Temperatura mínima	22.9
117836	7	Sololá	704	Santa Lucía Utatlán 	7	Santa Rita 	9	Septiembre	2023-09-17T00:00:00	2024-11-08T12:00:00	5	Humedad	66
117837	7	Sololá	704	Santa Lucía Utatlán 	7	Santa Rita 	9	Septiembre	2023-09-17T00:00:00	2024-11-08T12:00:00	6	Velocidad del viento	4.8
117838	7	Sololá	704	Santa Lucía Utatlán 	7	Santa Rita 	9	Septiembre	2023-09-17T00:00:00	2024-11-08T12:00:00	7	Dirección del viento	4.83
117839	7	Sololá	704	Santa Lucía Utatlán 	7	Santa Rita 	9	Septiembre	2023-09-17T00:00:00	2024-11-08T12:00:00	1	Precipitación	0
117840	7	Sololá	704	Santa Lucía Utatlán 	7	Santa Rita 	9	Septiembre	2023-09-17T00:00:00	2024-11-08T12:00:00	8	Radiación solar	1010
117841	7	Sololá	704	Santa Lucía Utatlán 	7	Santa Rita 	9	Septiembre	2023-09-17T00:00:00	2024-11-08T13:00:00	2	Temperatura media	21.4
117842	7	Sololá	704	Santa Lucía Utatlán 	7	Santa Rita 	9	Septiembre	2023-09-17T00:00:00	2024-11-08T13:00:00	4	Temperatura máxima	23.1
117843	7	Sololá	704	Santa Lucía Utatlán 	7	Santa Rita 	9	Septiembre	2023-09-17T00:00:00	2024-11-08T13:00:00	3	Temperatura mínima	21.3
117844	7	Sololá	704	Santa Lucía Utatlán 	7	Santa Rita 	9	Septiembre	2023-09-17T00:00:00	2024-11-08T13:00:00	5	Humedad	79
117845	7	Sololá	704	Santa Lucía Utatlán 	7	Santa Rita 	9	Septiembre	2023-09-17T00:00:00	2024-11-08T13:00:00	6	Velocidad del viento	3.2
117846	7	Sololá	704	Santa Lucía Utatlán 	7	Santa Rita 	9	Septiembre	2023-09-17T00:00:00	2024-11-08T13:00:00	7	Dirección del viento	3.22
117847	7	Sololá	704	Santa Lucía Utatlán 	7	Santa Rita 	9	Septiembre	2023-09-17T00:00:00	2024-11-08T13:00:00	1	Precipitación	0
117848	7	Sololá	704	Santa Lucía Utatlán 	7	Santa Rita 	9	Septiembre	2023-09-17T00:00:00	2024-11-08T13:00:00	8	Radiación solar	964
117849	7	Sololá	704	Santa Lucía Utatlán 	7	Santa Rita 	9	Septiembre	2023-09-17T00:00:00	2024-11-08T14:00:00	2	Temperatura media	19.6
117850	7	Sololá	704	Santa Lucía Utatlán 	7	Santa Rita 	9	Septiembre	2023-09-17T00:00:00	2024-11-08T14:00:00	4	Temperatura máxima	21.4
117851	7	Sololá	704	Santa Lucía Utatlán 	7	Santa Rita 	9	Septiembre	2023-09-17T00:00:00	2024-11-08T14:00:00	3	Temperatura mínima	19.5
117852	7	Sololá	704	Santa Lucía Utatlán 	7	Santa Rita 	9	Septiembre	2023-09-17T00:00:00	2024-11-08T14:00:00	5	Humedad	86
117853	7	Sololá	704	Santa Lucía Utatlán 	7	Santa Rita 	9	Septiembre	2023-09-17T00:00:00	2024-11-08T14:00:00	6	Velocidad del viento	3.2
117854	7	Sololá	704	Santa Lucía Utatlán 	7	Santa Rita 	9	Septiembre	2023-09-17T00:00:00	2024-11-08T14:00:00	7	Dirección del viento	3.22
117855	7	Sololá	704	Santa Lucía Utatlán 	7	Santa Rita 	9	Septiembre	2023-09-17T00:00:00	2024-11-08T14:00:00	1	Precipitación	0
117856	7	Sololá	704	Santa Lucía Utatlán 	7	Santa Rita 	9	Septiembre	2023-09-17T00:00:00	2024-11-08T14:00:00	8	Radiación solar	770
117857	7	Sololá	704	Santa Lucía Utatlán 	7	Santa Rita 	9	Septiembre	2023-09-17T00:00:00	2024-11-08T15:00:00	2	Temperatura media	19.6
117858	7	Sololá	704	Santa Lucía Utatlán 	7	Santa Rita 	9	Septiembre	2023-09-17T00:00:00	2024-11-08T15:00:00	4	Temperatura máxima	19.9
117859	7	Sololá	704	Santa Lucía Utatlán 	7	Santa Rita 	9	Septiembre	2023-09-17T00:00:00	2024-11-08T15:00:00	3	Temperatura mínima	19.5
117860	7	Sololá	704	Santa Lucía Utatlán 	7	Santa Rita 	9	Septiembre	2023-09-17T00:00:00	2024-11-08T15:00:00	5	Humedad	89
117861	7	Sololá	704	Santa Lucía Utatlán 	7	Santa Rita 	9	Septiembre	2023-09-17T00:00:00	2024-11-08T15:00:00	6	Velocidad del viento	1.6
117862	7	Sololá	704	Santa Lucía Utatlán 	7	Santa Rita 	9	Septiembre	2023-09-17T00:00:00	2024-11-08T15:00:00	7	Dirección del viento	1.61
117863	7	Sololá	704	Santa Lucía Utatlán 	7	Santa Rita 	9	Septiembre	2023-09-17T00:00:00	2024-11-08T15:00:00	1	Precipitación	0
117864	7	Sololá	704	Santa Lucía Utatlán 	7	Santa Rita 	9	Septiembre	2023-09-17T00:00:00	2024-11-08T15:00:00	8	Radiación solar	404
117865	7	Sololá	704	Santa Lucía Utatlán 	7	Santa Rita 	9	Septiembre	2023-09-17T00:00:00	2024-11-08T16:00:00	2	Temperatura media	19.1
117866	7	Sololá	704	Santa Lucía Utatlán 	7	Santa Rita 	9	Septiembre	2023-09-17T00:00:00	2024-11-08T16:00:00	4	Temperatura máxima	19.7
117867	7	Sololá	704	Santa Lucía Utatlán 	7	Santa Rita 	9	Septiembre	2023-09-17T00:00:00	2024-11-08T16:00:00	3	Temperatura mínima	19.1
117868	7	Sololá	704	Santa Lucía Utatlán 	7	Santa Rita 	9	Septiembre	2023-09-17T00:00:00	2024-11-08T16:00:00	5	Humedad	95
117869	7	Sololá	704	Santa Lucía Utatlán 	7	Santa Rita 	9	Septiembre	2023-09-17T00:00:00	2024-11-08T16:00:00	6	Velocidad del viento	1.6
117870	7	Sololá	704	Santa Lucía Utatlán 	7	Santa Rita 	9	Septiembre	2023-09-17T00:00:00	2024-11-08T16:00:00	7	Dirección del viento	1.61
117871	7	Sololá	704	Santa Lucía Utatlán 	7	Santa Rita 	9	Septiembre	2023-09-17T00:00:00	2024-11-08T16:00:00	1	Precipitación	3.2
117872	7	Sololá	704	Santa Lucía Utatlán 	7	Santa Rita 	9	Septiembre	2023-09-17T00:00:00	2024-11-08T16:00:00	8	Radiación solar	208
117873	7	Sololá	704	Santa Lucía Utatlán 	7	Santa Rita 	9	Septiembre	2023-09-17T00:00:00	2024-11-08T17:00:00	2	Temperatura media	18.7
117874	7	Sololá	704	Santa Lucía Utatlán 	7	Santa Rita 	9	Septiembre	2023-09-17T00:00:00	2024-11-08T17:00:00	4	Temperatura máxima	19.2
117875	7	Sololá	704	Santa Lucía Utatlán 	7	Santa Rita 	9	Septiembre	2023-09-17T00:00:00	2024-11-08T17:00:00	3	Temperatura mínima	18.7
117876	7	Sololá	704	Santa Lucía Utatlán 	7	Santa Rita 	9	Septiembre	2023-09-17T00:00:00	2024-11-08T17:00:00	5	Humedad	96
117877	7	Sololá	704	Santa Lucía Utatlán 	7	Santa Rita 	9	Septiembre	2023-09-17T00:00:00	2024-11-08T17:00:00	6	Velocidad del viento	1.6
117878	7	Sololá	704	Santa Lucía Utatlán 	7	Santa Rita 	9	Septiembre	2023-09-17T00:00:00	2024-11-08T17:00:00	7	Dirección del viento	1.61
117879	7	Sololá	704	Santa Lucía Utatlán 	7	Santa Rita 	9	Septiembre	2023-09-17T00:00:00	2024-11-08T17:00:00	1	Precipitación	5.6
117880	7	Sololá	704	Santa Lucía Utatlán 	7	Santa Rita 	9	Septiembre	2023-09-17T00:00:00	2024-11-08T17:00:00	8	Radiación solar	142
117881	7	Sololá	704	Santa Lucía Utatlán 	7	Santa Rita 	9	Septiembre	2023-09-17T00:00:00	2024-11-08T18:00:00	2	Temperatura media	18.7
117882	7	Sololá	704	Santa Lucía Utatlán 	7	Santa Rita 	9	Septiembre	2023-09-17T00:00:00	2024-11-08T18:00:00	4	Temperatura máxima	18.8
117883	7	Sololá	704	Santa Lucía Utatlán 	7	Santa Rita 	9	Septiembre	2023-09-17T00:00:00	2024-11-08T18:00:00	3	Temperatura mínima	18.2
117884	7	Sololá	704	Santa Lucía Utatlán 	7	Santa Rita 	9	Septiembre	2023-09-17T00:00:00	2024-11-08T18:00:00	5	Humedad	84
117885	7	Sololá	704	Santa Lucía Utatlán 	7	Santa Rita 	9	Septiembre	2023-09-17T00:00:00	2024-11-08T18:00:00	6	Velocidad del viento	1.6
117886	7	Sololá	704	Santa Lucía Utatlán 	7	Santa Rita 	9	Septiembre	2023-09-17T00:00:00	2024-11-08T18:00:00	7	Dirección del viento	1.61
117887	7	Sololá	704	Santa Lucía Utatlán 	7	Santa Rita 	9	Septiembre	2023-09-17T00:00:00	2024-11-08T18:00:00	1	Precipitación	0.4
117888	7	Sololá	704	Santa Lucía Utatlán 	7	Santa Rita 	9	Septiembre	2023-09-17T00:00:00	2024-11-08T18:00:00	8	Radiación solar	7
117889	7	Sololá	704	Santa Lucía Utatlán 	7	Santa Rita 	9	Septiembre	2023-09-17T00:00:00	2024-11-08T19:00:00	2	Temperatura media	17.3
117890	7	Sololá	704	Santa Lucía Utatlán 	7	Santa Rita 	9	Septiembre	2023-09-17T00:00:00	2024-11-08T19:00:00	4	Temperatura máxima	19.4
117891	7	Sololá	704	Santa Lucía Utatlán 	7	Santa Rita 	9	Septiembre	2023-09-17T00:00:00	2024-11-08T19:00:00	3	Temperatura mínima	17.2
117892	7	Sololá	704	Santa Lucía Utatlán 	7	Santa Rita 	9	Septiembre	2023-09-17T00:00:00	2024-11-08T19:00:00	5	Humedad	83
117893	7	Sololá	704	Santa Lucía Utatlán 	7	Santa Rita 	9	Septiembre	2023-09-17T00:00:00	2024-11-08T19:00:00	6	Velocidad del viento	4.8
117894	7	Sololá	704	Santa Lucía Utatlán 	7	Santa Rita 	9	Septiembre	2023-09-17T00:00:00	2024-11-08T19:00:00	7	Dirección del viento	4.83
117895	7	Sololá	704	Santa Lucía Utatlán 	7	Santa Rita 	9	Septiembre	2023-09-17T00:00:00	2024-11-08T19:00:00	1	Precipitación	0
117896	7	Sololá	704	Santa Lucía Utatlán 	7	Santa Rita 	9	Septiembre	2023-09-17T00:00:00	2024-11-08T19:00:00	8	Radiación solar	0
117897	7	Sololá	704	Santa Lucía Utatlán 	7	Santa Rita 	9	Septiembre	2023-09-17T00:00:00	2024-11-08T20:00:00	2	Temperatura media	16.6
117898	7	Sololá	704	Santa Lucía Utatlán 	7	Santa Rita 	9	Septiembre	2023-09-17T00:00:00	2024-11-08T20:00:00	4	Temperatura máxima	19.1
117899	7	Sololá	704	Santa Lucía Utatlán 	7	Santa Rita 	9	Septiembre	2023-09-17T00:00:00	2024-11-08T20:00:00	3	Temperatura mínima	16.6
117900	7	Sololá	704	Santa Lucía Utatlán 	7	Santa Rita 	9	Septiembre	2023-09-17T00:00:00	2024-11-08T20:00:00	5	Humedad	86
117901	7	Sololá	704	Santa Lucía Utatlán 	7	Santa Rita 	9	Septiembre	2023-09-17T00:00:00	2024-11-08T20:00:00	6	Velocidad del viento	4.8
117902	7	Sololá	704	Santa Lucía Utatlán 	7	Santa Rita 	9	Septiembre	2023-09-17T00:00:00	2024-11-08T20:00:00	7	Dirección del viento	4.83
117903	7	Sololá	704	Santa Lucía Utatlán 	7	Santa Rita 	9	Septiembre	2023-09-17T00:00:00	2024-11-08T20:00:00	1	Precipitación	0
117904	7	Sololá	704	Santa Lucía Utatlán 	7	Santa Rita 	9	Septiembre	2023-09-17T00:00:00	2024-11-08T20:00:00	8	Radiación solar	0
117905	7	Sololá	704	Santa Lucía Utatlán 	7	Santa Rita 	9	Septiembre	2023-09-17T00:00:00	2024-11-08T21:00:00	2	Temperatura media	17.8
117906	7	Sololá	704	Santa Lucía Utatlán 	7	Santa Rita 	9	Septiembre	2023-09-17T00:00:00	2024-11-08T21:00:00	4	Temperatura máxima	18.9
117907	7	Sololá	704	Santa Lucía Utatlán 	7	Santa Rita 	9	Septiembre	2023-09-17T00:00:00	2024-11-08T21:00:00	3	Temperatura mínima	16.6
117908	7	Sololá	704	Santa Lucía Utatlán 	7	Santa Rita 	9	Septiembre	2023-09-17T00:00:00	2024-11-08T21:00:00	5	Humedad	78
117909	7	Sololá	704	Santa Lucía Utatlán 	7	Santa Rita 	9	Septiembre	2023-09-17T00:00:00	2024-11-08T21:00:00	6	Velocidad del viento	6.4
117910	7	Sololá	704	Santa Lucía Utatlán 	7	Santa Rita 	9	Septiembre	2023-09-17T00:00:00	2024-11-08T21:00:00	7	Dirección del viento	6.44
117911	7	Sololá	704	Santa Lucía Utatlán 	7	Santa Rita 	9	Septiembre	2023-09-17T00:00:00	2024-11-08T21:00:00	1	Precipitación	0
117912	7	Sololá	704	Santa Lucía Utatlán 	7	Santa Rita 	9	Septiembre	2023-09-17T00:00:00	2024-11-08T21:00:00	8	Radiación solar	0
117913	7	Sololá	704	Santa Lucía Utatlán 	7	Santa Rita 	9	Septiembre	2023-09-17T00:00:00	2024-11-08T22:00:00	2	Temperatura media	16.3
117914	7	Sololá	704	Santa Lucía Utatlán 	7	Santa Rita 	9	Septiembre	2023-09-17T00:00:00	2024-11-08T22:00:00	4	Temperatura máxima	17.8
117915	7	Sololá	704	Santa Lucía Utatlán 	7	Santa Rita 	9	Septiembre	2023-09-17T00:00:00	2024-11-08T22:00:00	3	Temperatura mínima	16.2
117916	7	Sololá	704	Santa Lucía Utatlán 	7	Santa Rita 	9	Septiembre	2023-09-17T00:00:00	2024-11-08T22:00:00	5	Humedad	85
117917	7	Sololá	704	Santa Lucía Utatlán 	7	Santa Rita 	9	Septiembre	2023-09-17T00:00:00	2024-11-08T22:00:00	6	Velocidad del viento	3.2
117918	7	Sololá	704	Santa Lucía Utatlán 	7	Santa Rita 	9	Septiembre	2023-09-17T00:00:00	2024-11-08T22:00:00	7	Dirección del viento	3.22
117919	7	Sololá	704	Santa Lucía Utatlán 	7	Santa Rita 	9	Septiembre	2023-09-17T00:00:00	2024-11-08T22:00:00	1	Precipitación	0
117920	7	Sololá	704	Santa Lucía Utatlán 	7	Santa Rita 	9	Septiembre	2023-09-17T00:00:00	2024-11-08T22:00:00	8	Radiación solar	0
117921	7	Sololá	704	Santa Lucía Utatlán 	7	Santa Rita 	9	Septiembre	2023-09-17T00:00:00	2024-11-08T23:00:00	2	Temperatura media	17.2
117922	7	Sololá	704	Santa Lucía Utatlán 	7	Santa Rita 	9	Septiembre	2023-09-17T00:00:00	2024-11-08T23:00:00	4	Temperatura máxima	17.4
117923	7	Sololá	704	Santa Lucía Utatlán 	7	Santa Rita 	9	Septiembre	2023-09-17T00:00:00	2024-11-08T23:00:00	3	Temperatura mínima	16
117924	7	Sololá	704	Santa Lucía Utatlán 	7	Santa Rita 	9	Septiembre	2023-09-17T00:00:00	2024-11-08T23:00:00	5	Humedad	78
117925	7	Sololá	704	Santa Lucía Utatlán 	7	Santa Rita 	9	Septiembre	2023-09-17T00:00:00	2024-11-08T23:00:00	6	Velocidad del viento	3.2
117926	7	Sololá	704	Santa Lucía Utatlán 	7	Santa Rita 	9	Septiembre	2023-09-17T00:00:00	2024-11-08T23:00:00	7	Dirección del viento	3.22
117927	7	Sololá	704	Santa Lucía Utatlán 	7	Santa Rita 	9	Septiembre	2023-09-17T00:00:00	2024-11-08T23:00:00	1	Precipitación	0
117928	7	Sololá	704	Santa Lucía Utatlán 	7	Santa Rita 	9	Septiembre	2023-09-17T00:00:00	2024-11-08T23:00:00	8	Radiación solar	0
117929	7	Sololá	704	Santa Lucía Utatlán 	7	Santa Rita 	9	Septiembre	2023-09-18T00:00:00	2024-11-08T00:00:00	2	Temperatura media	18.6
117930	7	Sololá	704	Santa Lucía Utatlán 	7	Santa Rita 	9	Septiembre	2023-09-18T00:00:00	2024-11-08T00:00:00	4	Temperatura máxima	19
117931	7	Sololá	704	Santa Lucía Utatlán 	7	Santa Rita 	9	Septiembre	2023-09-18T00:00:00	2024-11-08T00:00:00	3	Temperatura mínima	16.7
117932	7	Sololá	704	Santa Lucía Utatlán 	7	Santa Rita 	9	Septiembre	2023-09-18T00:00:00	2024-11-08T00:00:00	5	Humedad	69
117933	7	Sololá	704	Santa Lucía Utatlán 	7	Santa Rita 	9	Septiembre	2023-09-18T00:00:00	2024-11-08T00:00:00	6	Velocidad del viento	4.8
117934	7	Sololá	704	Santa Lucía Utatlán 	7	Santa Rita 	9	Septiembre	2023-09-18T00:00:00	2024-11-08T00:00:00	7	Dirección del viento	4.83
117935	7	Sololá	704	Santa Lucía Utatlán 	7	Santa Rita 	9	Septiembre	2023-09-18T00:00:00	2024-11-08T00:00:00	1	Precipitación	0
117936	7	Sololá	704	Santa Lucía Utatlán 	7	Santa Rita 	9	Septiembre	2023-09-18T00:00:00	2024-11-08T00:00:00	8	Radiación solar	0
117937	7	Sololá	704	Santa Lucía Utatlán 	7	Santa Rita 	9	Septiembre	2023-09-18T00:00:00	2024-11-08T01:00:00	2	Temperatura media	21.8
117938	7	Sololá	704	Santa Lucía Utatlán 	7	Santa Rita 	9	Septiembre	2023-09-18T00:00:00	2024-11-08T01:00:00	4	Temperatura máxima	21.8
117939	7	Sololá	704	Santa Lucía Utatlán 	7	Santa Rita 	9	Septiembre	2023-09-18T00:00:00	2024-11-08T01:00:00	3	Temperatura mínima	18.6
117940	7	Sololá	704	Santa Lucía Utatlán 	7	Santa Rita 	9	Septiembre	2023-09-18T00:00:00	2024-11-08T01:00:00	5	Humedad	51
117941	7	Sololá	704	Santa Lucía Utatlán 	7	Santa Rita 	9	Septiembre	2023-09-18T00:00:00	2024-11-08T01:00:00	6	Velocidad del viento	9.7
117942	7	Sololá	704	Santa Lucía Utatlán 	7	Santa Rita 	9	Septiembre	2023-09-18T00:00:00	2024-11-08T01:00:00	7	Dirección del viento	9.66
117943	7	Sololá	704	Santa Lucía Utatlán 	7	Santa Rita 	9	Septiembre	2023-09-18T00:00:00	2024-11-08T01:00:00	1	Precipitación	0
117944	7	Sololá	704	Santa Lucía Utatlán 	7	Santa Rita 	9	Septiembre	2023-09-18T00:00:00	2024-11-08T01:00:00	8	Radiación solar	0
117945	7	Sololá	704	Santa Lucía Utatlán 	7	Santa Rita 	9	Septiembre	2023-09-18T00:00:00	2024-11-08T02:00:00	2	Temperatura media	24.8
117946	7	Sololá	704	Santa Lucía Utatlán 	7	Santa Rita 	9	Septiembre	2023-09-18T00:00:00	2024-11-08T02:00:00	4	Temperatura máxima	24.8
117947	7	Sololá	704	Santa Lucía Utatlán 	7	Santa Rita 	9	Septiembre	2023-09-18T00:00:00	2024-11-08T02:00:00	3	Temperatura mínima	21.8
117948	7	Sololá	704	Santa Lucía Utatlán 	7	Santa Rita 	9	Septiembre	2023-09-18T00:00:00	2024-11-08T02:00:00	5	Humedad	43
117949	7	Sololá	704	Santa Lucía Utatlán 	7	Santa Rita 	9	Septiembre	2023-09-18T00:00:00	2024-11-08T02:00:00	6	Velocidad del viento	8
117950	7	Sololá	704	Santa Lucía Utatlán 	7	Santa Rita 	9	Septiembre	2023-09-18T00:00:00	2024-11-08T02:00:00	7	Dirección del viento	8.05
117951	7	Sololá	704	Santa Lucía Utatlán 	7	Santa Rita 	9	Septiembre	2023-09-18T00:00:00	2024-11-08T02:00:00	1	Precipitación	0
117952	7	Sololá	704	Santa Lucía Utatlán 	7	Santa Rita 	9	Septiembre	2023-09-18T00:00:00	2024-11-08T02:00:00	8	Radiación solar	0
117953	7	Sololá	704	Santa Lucía Utatlán 	7	Santa Rita 	9	Septiembre	2023-09-18T00:00:00	2024-11-08T03:00:00	2	Temperatura media	25.8
117954	7	Sololá	704	Santa Lucía Utatlán 	7	Santa Rita 	9	Septiembre	2023-09-18T00:00:00	2024-11-08T03:00:00	4	Temperatura máxima	26.7
117955	7	Sololá	704	Santa Lucía Utatlán 	7	Santa Rita 	9	Septiembre	2023-09-18T00:00:00	2024-11-08T03:00:00	3	Temperatura mínima	24.8
117956	7	Sololá	704	Santa Lucía Utatlán 	7	Santa Rita 	9	Septiembre	2023-09-18T00:00:00	2024-11-08T03:00:00	5	Humedad	48
117957	7	Sololá	704	Santa Lucía Utatlán 	7	Santa Rita 	9	Septiembre	2023-09-18T00:00:00	2024-11-08T03:00:00	6	Velocidad del viento	6.4
117958	7	Sololá	704	Santa Lucía Utatlán 	7	Santa Rita 	9	Septiembre	2023-09-18T00:00:00	2024-11-08T03:00:00	7	Dirección del viento	6.44
117959	7	Sololá	704	Santa Lucía Utatlán 	7	Santa Rita 	9	Septiembre	2023-09-18T00:00:00	2024-11-08T03:00:00	1	Precipitación	0
117960	7	Sololá	704	Santa Lucía Utatlán 	7	Santa Rita 	9	Septiembre	2023-09-18T00:00:00	2024-11-08T03:00:00	8	Radiación solar	0
117961	7	Sololá	704	Santa Lucía Utatlán 	7	Santa Rita 	9	Septiembre	2023-09-18T00:00:00	2024-11-08T04:00:00	2	Temperatura media	24.7
117962	7	Sololá	704	Santa Lucía Utatlán 	7	Santa Rita 	9	Septiembre	2023-09-18T00:00:00	2024-11-08T04:00:00	4	Temperatura máxima	25.9
117963	7	Sololá	704	Santa Lucía Utatlán 	7	Santa Rita 	9	Septiembre	2023-09-18T00:00:00	2024-11-08T04:00:00	3	Temperatura mínima	24.7
117964	7	Sololá	704	Santa Lucía Utatlán 	7	Santa Rita 	9	Septiembre	2023-09-18T00:00:00	2024-11-08T04:00:00	5	Humedad	55
117965	7	Sololá	704	Santa Lucía Utatlán 	7	Santa Rita 	9	Septiembre	2023-09-18T00:00:00	2024-11-08T04:00:00	6	Velocidad del viento	11.3
117966	7	Sololá	704	Santa Lucía Utatlán 	7	Santa Rita 	9	Septiembre	2023-09-18T00:00:00	2024-11-08T04:00:00	7	Dirección del viento	11.27
117967	7	Sololá	704	Santa Lucía Utatlán 	7	Santa Rita 	9	Septiembre	2023-09-18T00:00:00	2024-11-08T04:00:00	1	Precipitación	0
117968	7	Sololá	704	Santa Lucía Utatlán 	7	Santa Rita 	9	Septiembre	2023-09-18T00:00:00	2024-11-08T04:00:00	8	Radiación solar	0
117969	7	Sololá	704	Santa Lucía Utatlán 	7	Santa Rita 	9	Septiembre	2023-09-18T00:00:00	2024-11-08T05:00:00	2	Temperatura media	17.3
117970	7	Sololá	704	Santa Lucía Utatlán 	7	Santa Rita 	9	Septiembre	2023-09-18T00:00:00	2024-11-08T05:00:00	4	Temperatura máxima	18.6
117971	7	Sololá	704	Santa Lucía Utatlán 	7	Santa Rita 	9	Septiembre	2023-09-18T00:00:00	2024-11-08T05:00:00	3	Temperatura mínima	17.3
117972	7	Sololá	704	Santa Lucía Utatlán 	7	Santa Rita 	9	Septiembre	2023-09-18T00:00:00	2024-11-08T05:00:00	5	Humedad	83
117973	7	Sololá	704	Santa Lucía Utatlán 	7	Santa Rita 	9	Septiembre	2023-09-18T00:00:00	2024-11-08T05:00:00	6	Velocidad del viento	4.8
117974	7	Sololá	704	Santa Lucía Utatlán 	7	Santa Rita 	9	Septiembre	2023-09-18T00:00:00	2024-11-08T05:00:00	7	Dirección del viento	4.83
117975	7	Sololá	704	Santa Lucía Utatlán 	7	Santa Rita 	9	Septiembre	2023-09-18T00:00:00	2024-11-08T05:00:00	1	Precipitación	0
117976	7	Sololá	704	Santa Lucía Utatlán 	7	Santa Rita 	9	Septiembre	2023-09-18T00:00:00	2024-11-08T05:00:00	8	Radiación solar	0
117977	7	Sololá	704	Santa Lucía Utatlán 	7	Santa Rita 	9	Septiembre	2023-09-18T00:00:00	2024-11-08T06:00:00	2	Temperatura media	18.1
117978	7	Sololá	704	Santa Lucía Utatlán 	7	Santa Rita 	9	Septiembre	2023-09-18T00:00:00	2024-11-08T06:00:00	4	Temperatura máxima	18.1
117979	7	Sololá	704	Santa Lucía Utatlán 	7	Santa Rita 	9	Septiembre	2023-09-18T00:00:00	2024-11-08T06:00:00	3	Temperatura mínima	17.2
117980	7	Sololá	704	Santa Lucía Utatlán 	7	Santa Rita 	9	Septiembre	2023-09-18T00:00:00	2024-11-08T06:00:00	5	Humedad	82
117981	7	Sololá	704	Santa Lucía Utatlán 	7	Santa Rita 	9	Septiembre	2023-09-18T00:00:00	2024-11-08T06:00:00	6	Velocidad del viento	3.2
117982	7	Sololá	704	Santa Lucía Utatlán 	7	Santa Rita 	9	Septiembre	2023-09-18T00:00:00	2024-11-08T06:00:00	7	Dirección del viento	3.22
117983	7	Sololá	704	Santa Lucía Utatlán 	7	Santa Rita 	9	Septiembre	2023-09-18T00:00:00	2024-11-08T06:00:00	1	Precipitación	0
117984	7	Sololá	704	Santa Lucía Utatlán 	7	Santa Rita 	9	Septiembre	2023-09-18T00:00:00	2024-11-08T06:00:00	8	Radiación solar	4
117985	7	Sololá	704	Santa Lucía Utatlán 	7	Santa Rita 	9	Septiembre	2023-09-18T00:00:00	2024-11-08T07:00:00	2	Temperatura media	19.1
117986	7	Sololá	704	Santa Lucía Utatlán 	7	Santa Rita 	9	Septiembre	2023-09-18T00:00:00	2024-11-08T07:00:00	4	Temperatura máxima	19.1
117987	7	Sololá	704	Santa Lucía Utatlán 	7	Santa Rita 	9	Septiembre	2023-09-18T00:00:00	2024-11-08T07:00:00	3	Temperatura mínima	18.1
117988	7	Sololá	704	Santa Lucía Utatlán 	7	Santa Rita 	9	Septiembre	2023-09-18T00:00:00	2024-11-08T07:00:00	5	Humedad	82
117989	7	Sololá	704	Santa Lucía Utatlán 	7	Santa Rita 	9	Septiembre	2023-09-18T00:00:00	2024-11-08T07:00:00	6	Velocidad del viento	1.6
117990	7	Sololá	704	Santa Lucía Utatlán 	7	Santa Rita 	9	Septiembre	2023-09-18T00:00:00	2024-11-08T07:00:00	7	Dirección del viento	1.61
117991	7	Sololá	704	Santa Lucía Utatlán 	7	Santa Rita 	9	Septiembre	2023-09-18T00:00:00	2024-11-08T07:00:00	1	Precipitación	0
117992	7	Sololá	704	Santa Lucía Utatlán 	7	Santa Rita 	9	Septiembre	2023-09-18T00:00:00	2024-11-08T07:00:00	8	Radiación solar	83
117993	7	Sololá	704	Santa Lucía Utatlán 	7	Santa Rita 	9	Septiembre	2023-09-18T00:00:00	2024-11-08T08:00:00	2	Temperatura media	20.9
117994	7	Sololá	704	Santa Lucía Utatlán 	7	Santa Rita 	9	Septiembre	2023-09-18T00:00:00	2024-11-08T08:00:00	4	Temperatura máxima	20.9
117995	7	Sololá	704	Santa Lucía Utatlán 	7	Santa Rita 	9	Septiembre	2023-09-18T00:00:00	2024-11-08T08:00:00	3	Temperatura mínima	19.1
117996	7	Sololá	704	Santa Lucía Utatlán 	7	Santa Rita 	9	Septiembre	2023-09-18T00:00:00	2024-11-08T08:00:00	5	Humedad	76
117997	7	Sololá	704	Santa Lucía Utatlán 	7	Santa Rita 	9	Septiembre	2023-09-18T00:00:00	2024-11-08T08:00:00	6	Velocidad del viento	1.6
117998	7	Sololá	704	Santa Lucía Utatlán 	7	Santa Rita 	9	Septiembre	2023-09-18T00:00:00	2024-11-08T08:00:00	7	Dirección del viento	1.61
117999	7	Sololá	704	Santa Lucía Utatlán 	7	Santa Rita 	9	Septiembre	2023-09-18T00:00:00	2024-11-08T08:00:00	1	Precipitación	0
118000	7	Sololá	704	Santa Lucía Utatlán 	7	Santa Rita 	9	Septiembre	2023-09-18T00:00:00	2024-11-08T08:00:00	8	Radiación solar	279
118001	7	Sololá	704	Santa Lucía Utatlán 	7	Santa Rita 	9	Septiembre	2023-09-18T00:00:00	2024-11-08T09:00:00	2	Temperatura media	22.6
118002	7	Sololá	704	Santa Lucía Utatlán 	7	Santa Rita 	9	Septiembre	2023-09-18T00:00:00	2024-11-08T09:00:00	4	Temperatura máxima	22.6
118003	7	Sololá	704	Santa Lucía Utatlán 	7	Santa Rita 	9	Septiembre	2023-09-18T00:00:00	2024-11-08T09:00:00	3	Temperatura mínima	20.9
118004	7	Sololá	704	Santa Lucía Utatlán 	7	Santa Rita 	9	Septiembre	2023-09-18T00:00:00	2024-11-08T09:00:00	5	Humedad	68
118005	7	Sololá	704	Santa Lucía Utatlán 	7	Santa Rita 	9	Septiembre	2023-09-18T00:00:00	2024-11-08T09:00:00	6	Velocidad del viento	3.2
118006	7	Sololá	704	Santa Lucía Utatlán 	7	Santa Rita 	9	Septiembre	2023-09-18T00:00:00	2024-11-08T09:00:00	7	Dirección del viento	3.22
118007	7	Sololá	704	Santa Lucía Utatlán 	7	Santa Rita 	9	Septiembre	2023-09-18T00:00:00	2024-11-08T09:00:00	1	Precipitación	0
118008	7	Sololá	704	Santa Lucía Utatlán 	7	Santa Rita 	9	Septiembre	2023-09-18T00:00:00	2024-11-08T09:00:00	8	Radiación solar	506
118009	7	Sololá	704	Santa Lucía Utatlán 	7	Santa Rita 	9	Septiembre	2023-09-18T00:00:00	2024-11-08T10:00:00	2	Temperatura media	23.2
118010	7	Sololá	704	Santa Lucía Utatlán 	7	Santa Rita 	9	Septiembre	2023-09-18T00:00:00	2024-11-08T10:00:00	4	Temperatura máxima	23.4
118011	7	Sololá	704	Santa Lucía Utatlán 	7	Santa Rita 	9	Septiembre	2023-09-18T00:00:00	2024-11-08T10:00:00	3	Temperatura mínima	22.6
118012	7	Sololá	704	Santa Lucía Utatlán 	7	Santa Rita 	9	Septiembre	2023-09-18T00:00:00	2024-11-08T10:00:00	5	Humedad	69
118013	7	Sololá	704	Santa Lucía Utatlán 	7	Santa Rita 	9	Septiembre	2023-09-18T00:00:00	2024-11-08T10:00:00	6	Velocidad del viento	4.8
118014	7	Sololá	704	Santa Lucía Utatlán 	7	Santa Rita 	9	Septiembre	2023-09-18T00:00:00	2024-11-08T10:00:00	7	Dirección del viento	4.83
118015	7	Sololá	704	Santa Lucía Utatlán 	7	Santa Rita 	9	Septiembre	2023-09-18T00:00:00	2024-11-08T10:00:00	1	Precipitación	0
118016	7	Sololá	704	Santa Lucía Utatlán 	7	Santa Rita 	9	Septiembre	2023-09-18T00:00:00	2024-11-08T10:00:00	8	Radiación solar	516
118017	7	Sololá	704	Santa Lucía Utatlán 	7	Santa Rita 	9	Septiembre	2023-09-18T00:00:00	2024-11-08T11:00:00	2	Temperatura media	22.6
118018	7	Sololá	704	Santa Lucía Utatlán 	7	Santa Rita 	9	Septiembre	2023-09-18T00:00:00	2024-11-08T11:00:00	4	Temperatura máxima	23.2
118019	7	Sololá	704	Santa Lucía Utatlán 	7	Santa Rita 	9	Septiembre	2023-09-18T00:00:00	2024-11-08T11:00:00	3	Temperatura mínima	22.5
118020	7	Sololá	704	Santa Lucía Utatlán 	7	Santa Rita 	9	Septiembre	2023-09-18T00:00:00	2024-11-08T11:00:00	5	Humedad	71
118021	7	Sololá	704	Santa Lucía Utatlán 	7	Santa Rita 	9	Septiembre	2023-09-18T00:00:00	2024-11-08T11:00:00	6	Velocidad del viento	6.4
118022	7	Sololá	704	Santa Lucía Utatlán 	7	Santa Rita 	9	Septiembre	2023-09-18T00:00:00	2024-11-08T11:00:00	7	Dirección del viento	6.44
118023	7	Sololá	704	Santa Lucía Utatlán 	7	Santa Rita 	9	Septiembre	2023-09-18T00:00:00	2024-11-08T11:00:00	1	Precipitación	0
118024	7	Sololá	704	Santa Lucía Utatlán 	7	Santa Rita 	9	Septiembre	2023-09-18T00:00:00	2024-11-08T11:00:00	8	Radiación solar	373
118025	7	Sololá	704	Santa Lucía Utatlán 	7	Santa Rita 	9	Septiembre	2023-09-18T00:00:00	2024-11-08T12:00:00	2	Temperatura media	25.4
118026	7	Sololá	704	Santa Lucía Utatlán 	7	Santa Rita 	9	Septiembre	2023-09-18T00:00:00	2024-11-08T12:00:00	4	Temperatura máxima	25.4
118027	7	Sololá	704	Santa Lucía Utatlán 	7	Santa Rita 	9	Septiembre	2023-09-18T00:00:00	2024-11-08T12:00:00	3	Temperatura mínima	25.4
118028	7	Sololá	704	Santa Lucía Utatlán 	7	Santa Rita 	9	Septiembre	2023-09-18T00:00:00	2024-11-08T12:00:00	5	Humedad	51
118029	7	Sololá	704	Santa Lucía Utatlán 	7	Santa Rita 	9	Septiembre	2023-09-18T00:00:00	2024-11-08T12:00:00	6	Velocidad del viento	8
118030	7	Sololá	704	Santa Lucía Utatlán 	7	Santa Rita 	9	Septiembre	2023-09-18T00:00:00	2024-11-08T12:00:00	7	Dirección del viento	0.13
118031	7	Sololá	704	Santa Lucía Utatlán 	7	Santa Rita 	9	Septiembre	2023-09-18T00:00:00	2024-11-08T12:00:00	1	Precipitación	0
118032	7	Sololá	704	Santa Lucía Utatlán 	7	Santa Rita 	9	Septiembre	2023-09-18T00:00:00	2024-11-08T12:00:00	8	Radiación solar	1056
118033	7	Sololá	704	Santa Lucía Utatlán 	7	Santa Rita 	9	Septiembre	2023-09-18T00:00:00	2024-11-08T13:00:00	2	Temperatura media	24.9
118034	7	Sololá	704	Santa Lucía Utatlán 	7	Santa Rita 	9	Septiembre	2023-09-18T00:00:00	2024-11-08T13:00:00	4	Temperatura máxima	25.8
118035	7	Sololá	704	Santa Lucía Utatlán 	7	Santa Rita 	9	Septiembre	2023-09-18T00:00:00	2024-11-08T13:00:00	3	Temperatura mínima	24.8
118036	7	Sololá	704	Santa Lucía Utatlán 	7	Santa Rita 	9	Septiembre	2023-09-18T00:00:00	2024-11-08T13:00:00	5	Humedad	62
118037	7	Sololá	704	Santa Lucía Utatlán 	7	Santa Rita 	9	Septiembre	2023-09-18T00:00:00	2024-11-08T13:00:00	6	Velocidad del viento	11.3
118038	7	Sololá	704	Santa Lucía Utatlán 	7	Santa Rita 	9	Septiembre	2023-09-18T00:00:00	2024-11-08T13:00:00	7	Dirección del viento	11.27
118039	7	Sololá	704	Santa Lucía Utatlán 	7	Santa Rita 	9	Septiembre	2023-09-18T00:00:00	2024-11-08T13:00:00	1	Precipitación	0
118040	7	Sololá	704	Santa Lucía Utatlán 	7	Santa Rita 	9	Septiembre	2023-09-18T00:00:00	2024-11-08T13:00:00	8	Radiación solar	882
118041	7	Sololá	704	Santa Lucía Utatlán 	7	Santa Rita 	9	Septiembre	2023-09-18T00:00:00	2024-11-08T14:00:00	2	Temperatura media	25.6
118042	7	Sololá	704	Santa Lucía Utatlán 	7	Santa Rita 	9	Septiembre	2023-09-18T00:00:00	2024-11-08T14:00:00	4	Temperatura máxima	25.6
118043	7	Sololá	704	Santa Lucía Utatlán 	7	Santa Rita 	9	Septiembre	2023-09-18T00:00:00	2024-11-08T14:00:00	3	Temperatura mínima	24.2
118044	7	Sololá	704	Santa Lucía Utatlán 	7	Santa Rita 	9	Septiembre	2023-09-18T00:00:00	2024-11-08T14:00:00	5	Humedad	54
118045	7	Sololá	704	Santa Lucía Utatlán 	7	Santa Rita 	9	Septiembre	2023-09-18T00:00:00	2024-11-08T14:00:00	6	Velocidad del viento	11.3
118046	7	Sololá	704	Santa Lucía Utatlán 	7	Santa Rita 	9	Septiembre	2023-09-18T00:00:00	2024-11-08T14:00:00	7	Dirección del viento	11.27
118047	7	Sololá	704	Santa Lucía Utatlán 	7	Santa Rita 	9	Septiembre	2023-09-18T00:00:00	2024-11-08T14:00:00	1	Precipitación	0
118048	7	Sololá	704	Santa Lucía Utatlán 	7	Santa Rita 	9	Septiembre	2023-09-18T00:00:00	2024-11-08T14:00:00	8	Radiación solar	824
118049	7	Sololá	704	Santa Lucía Utatlán 	7	Santa Rita 	9	Septiembre	2023-09-18T00:00:00	2024-11-08T15:00:00	2	Temperatura media	23.9
118050	7	Sololá	704	Santa Lucía Utatlán 	7	Santa Rita 	9	Septiembre	2023-09-18T00:00:00	2024-11-08T15:00:00	4	Temperatura máxima	25.9
118051	7	Sololá	704	Santa Lucía Utatlán 	7	Santa Rita 	9	Septiembre	2023-09-18T00:00:00	2024-11-08T15:00:00	3	Temperatura mínima	23.6
118052	7	Sololá	704	Santa Lucía Utatlán 	7	Santa Rita 	9	Septiembre	2023-09-18T00:00:00	2024-11-08T15:00:00	5	Humedad	63
118053	7	Sololá	704	Santa Lucía Utatlán 	7	Santa Rita 	9	Septiembre	2023-09-18T00:00:00	2024-11-08T15:00:00	6	Velocidad del viento	11.3
118054	7	Sololá	704	Santa Lucía Utatlán 	7	Santa Rita 	9	Septiembre	2023-09-18T00:00:00	2024-11-08T15:00:00	7	Dirección del viento	11.27
118055	7	Sololá	704	Santa Lucía Utatlán 	7	Santa Rita 	9	Septiembre	2023-09-18T00:00:00	2024-11-08T15:00:00	1	Precipitación	0
118056	7	Sololá	704	Santa Lucía Utatlán 	7	Santa Rita 	9	Septiembre	2023-09-18T00:00:00	2024-11-08T15:00:00	8	Radiación solar	447
118057	7	Sololá	704	Santa Lucía Utatlán 	7	Santa Rita 	9	Septiembre	2023-09-18T00:00:00	2024-11-08T16:00:00	2	Temperatura media	22.9
118058	7	Sololá	704	Santa Lucía Utatlán 	7	Santa Rita 	9	Septiembre	2023-09-18T00:00:00	2024-11-08T16:00:00	4	Temperatura máxima	24.4
118059	7	Sololá	704	Santa Lucía Utatlán 	7	Santa Rita 	9	Septiembre	2023-09-18T00:00:00	2024-11-08T16:00:00	3	Temperatura mínima	22.8
118060	7	Sololá	704	Santa Lucía Utatlán 	7	Santa Rita 	9	Septiembre	2023-09-18T00:00:00	2024-11-08T16:00:00	5	Humedad	66
118061	7	Sololá	704	Santa Lucía Utatlán 	7	Santa Rita 	9	Septiembre	2023-09-18T00:00:00	2024-11-08T16:00:00	6	Velocidad del viento	9.7
118062	7	Sololá	704	Santa Lucía Utatlán 	7	Santa Rita 	9	Septiembre	2023-09-18T00:00:00	2024-11-08T16:00:00	7	Dirección del viento	9.66
118063	7	Sololá	704	Santa Lucía Utatlán 	7	Santa Rita 	9	Septiembre	2023-09-18T00:00:00	2024-11-08T16:00:00	1	Precipitación	0
118064	7	Sololá	704	Santa Lucía Utatlán 	7	Santa Rita 	9	Septiembre	2023-09-18T00:00:00	2024-11-08T16:00:00	8	Radiación solar	161
118065	7	Sololá	704	Santa Lucía Utatlán 	7	Santa Rita 	9	Septiembre	2023-09-18T00:00:00	2024-11-08T17:00:00	2	Temperatura media	22
118066	7	Sololá	704	Santa Lucía Utatlán 	7	Santa Rita 	9	Septiembre	2023-09-18T00:00:00	2024-11-08T17:00:00	4	Temperatura máxima	22.9
118067	7	Sololá	704	Santa Lucía Utatlán 	7	Santa Rita 	9	Septiembre	2023-09-18T00:00:00	2024-11-08T17:00:00	3	Temperatura mínima	22
118068	7	Sololá	704	Santa Lucía Utatlán 	7	Santa Rita 	9	Septiembre	2023-09-18T00:00:00	2024-11-08T17:00:00	5	Humedad	74
118069	7	Sololá	704	Santa Lucía Utatlán 	7	Santa Rita 	9	Septiembre	2023-09-18T00:00:00	2024-11-08T17:00:00	6	Velocidad del viento	4.8
118070	7	Sololá	704	Santa Lucía Utatlán 	7	Santa Rita 	9	Septiembre	2023-09-18T00:00:00	2024-11-08T17:00:00	7	Dirección del viento	4.83
118071	7	Sololá	704	Santa Lucía Utatlán 	7	Santa Rita 	9	Septiembre	2023-09-18T00:00:00	2024-11-08T17:00:00	1	Precipitación	0
118072	7	Sololá	704	Santa Lucía Utatlán 	7	Santa Rita 	9	Septiembre	2023-09-18T00:00:00	2024-11-08T17:00:00	8	Radiación solar	101
118073	7	Sololá	704	Santa Lucía Utatlán 	7	Santa Rita 	9	Septiembre	2023-09-18T00:00:00	2024-11-08T18:00:00	2	Temperatura media	20.8
118074	7	Sololá	704	Santa Lucía Utatlán 	7	Santa Rita 	9	Septiembre	2023-09-18T00:00:00	2024-11-08T18:00:00	4	Temperatura máxima	22.1
118075	7	Sololá	704	Santa Lucía Utatlán 	7	Santa Rita 	9	Septiembre	2023-09-18T00:00:00	2024-11-08T18:00:00	3	Temperatura mínima	20.6
118076	7	Sololá	704	Santa Lucía Utatlán 	7	Santa Rita 	9	Septiembre	2023-09-18T00:00:00	2024-11-08T18:00:00	5	Humedad	81
118077	7	Sololá	704	Santa Lucía Utatlán 	7	Santa Rita 	9	Septiembre	2023-09-18T00:00:00	2024-11-08T18:00:00	6	Velocidad del viento	6.4
118078	7	Sololá	704	Santa Lucía Utatlán 	7	Santa Rita 	9	Septiembre	2023-09-18T00:00:00	2024-11-08T18:00:00	7	Dirección del viento	6.44
118079	7	Sololá	704	Santa Lucía Utatlán 	7	Santa Rita 	9	Septiembre	2023-09-18T00:00:00	2024-11-08T18:00:00	1	Precipitación	0
118080	7	Sololá	704	Santa Lucía Utatlán 	7	Santa Rita 	9	Septiembre	2023-09-18T00:00:00	2024-11-08T18:00:00	8	Radiación solar	40
118081	7	Sololá	704	Santa Lucía Utatlán 	7	Santa Rita 	9	Septiembre	2023-09-18T00:00:00	2024-11-08T19:00:00	2	Temperatura media	21.2
118082	7	Sololá	704	Santa Lucía Utatlán 	7	Santa Rita 	9	Septiembre	2023-09-18T00:00:00	2024-11-08T19:00:00	4	Temperatura máxima	21.3
118083	7	Sololá	704	Santa Lucía Utatlán 	7	Santa Rita 	9	Septiembre	2023-09-18T00:00:00	2024-11-08T19:00:00	3	Temperatura mínima	20.8
118084	7	Sololá	704	Santa Lucía Utatlán 	7	Santa Rita 	9	Septiembre	2023-09-18T00:00:00	2024-11-08T19:00:00	5	Humedad	68
118085	7	Sololá	704	Santa Lucía Utatlán 	7	Santa Rita 	9	Septiembre	2023-09-18T00:00:00	2024-11-08T19:00:00	6	Velocidad del viento	4.8
118086	7	Sololá	704	Santa Lucía Utatlán 	7	Santa Rita 	9	Septiembre	2023-09-18T00:00:00	2024-11-08T19:00:00	7	Dirección del viento	4.83
118087	7	Sololá	704	Santa Lucía Utatlán 	7	Santa Rita 	9	Septiembre	2023-09-18T00:00:00	2024-11-08T19:00:00	1	Precipitación	0
118088	7	Sololá	704	Santa Lucía Utatlán 	7	Santa Rita 	9	Septiembre	2023-09-18T00:00:00	2024-11-08T19:00:00	8	Radiación solar	0
118089	7	Sololá	704	Santa Lucía Utatlán 	7	Santa Rita 	9	Septiembre	2023-09-18T00:00:00	2024-11-08T20:00:00	2	Temperatura media	19.8
118090	7	Sololá	704	Santa Lucía Utatlán 	7	Santa Rita 	9	Septiembre	2023-09-18T00:00:00	2024-11-08T20:00:00	4	Temperatura máxima	21.3
118091	7	Sololá	704	Santa Lucía Utatlán 	7	Santa Rita 	9	Septiembre	2023-09-18T00:00:00	2024-11-08T20:00:00	3	Temperatura mínima	19.3
118092	7	Sololá	704	Santa Lucía Utatlán 	7	Santa Rita 	9	Septiembre	2023-09-18T00:00:00	2024-11-08T20:00:00	5	Humedad	75
118093	7	Sololá	704	Santa Lucía Utatlán 	7	Santa Rita 	9	Septiembre	2023-09-18T00:00:00	2024-11-08T20:00:00	6	Velocidad del viento	3.2
118094	7	Sololá	704	Santa Lucía Utatlán 	7	Santa Rita 	9	Septiembre	2023-09-18T00:00:00	2024-11-08T20:00:00	7	Dirección del viento	3.22
118095	7	Sololá	704	Santa Lucía Utatlán 	7	Santa Rita 	9	Septiembre	2023-09-18T00:00:00	2024-11-08T20:00:00	1	Precipitación	0
118096	7	Sololá	704	Santa Lucía Utatlán 	7	Santa Rita 	9	Septiembre	2023-09-18T00:00:00	2024-11-08T20:00:00	8	Radiación solar	0
118097	7	Sololá	704	Santa Lucía Utatlán 	7	Santa Rita 	9	Septiembre	2023-09-18T00:00:00	2024-11-08T21:00:00	2	Temperatura media	19.9
118098	7	Sololá	704	Santa Lucía Utatlán 	7	Santa Rita 	9	Septiembre	2023-09-18T00:00:00	2024-11-08T21:00:00	4	Temperatura máxima	20
118099	7	Sololá	704	Santa Lucía Utatlán 	7	Santa Rita 	9	Septiembre	2023-09-18T00:00:00	2024-11-08T21:00:00	3	Temperatura mínima	19.6
118100	7	Sololá	704	Santa Lucía Utatlán 	7	Santa Rita 	9	Septiembre	2023-09-18T00:00:00	2024-11-08T21:00:00	5	Humedad	80
118101	7	Sololá	704	Santa Lucía Utatlán 	7	Santa Rita 	9	Septiembre	2023-09-18T00:00:00	2024-11-08T21:00:00	6	Velocidad del viento	3.2
118102	7	Sololá	704	Santa Lucía Utatlán 	7	Santa Rita 	9	Septiembre	2023-09-18T00:00:00	2024-11-08T21:00:00	7	Dirección del viento	3.22
118103	7	Sololá	704	Santa Lucía Utatlán 	7	Santa Rita 	9	Septiembre	2023-09-18T00:00:00	2024-11-08T21:00:00	1	Precipitación	0
118104	7	Sololá	704	Santa Lucía Utatlán 	7	Santa Rita 	9	Septiembre	2023-09-18T00:00:00	2024-11-08T21:00:00	8	Radiación solar	0
118105	7	Sololá	704	Santa Lucía Utatlán 	7	Santa Rita 	9	Septiembre	2023-09-18T00:00:00	2024-11-08T22:00:00	2	Temperatura media	17.9
118106	7	Sololá	704	Santa Lucía Utatlán 	7	Santa Rita 	9	Septiembre	2023-09-18T00:00:00	2024-11-08T22:00:00	4	Temperatura máxima	19.9
118107	7	Sololá	704	Santa Lucía Utatlán 	7	Santa Rita 	9	Septiembre	2023-09-18T00:00:00	2024-11-08T22:00:00	3	Temperatura mínima	17.9
118108	7	Sololá	704	Santa Lucía Utatlán 	7	Santa Rita 	9	Septiembre	2023-09-18T00:00:00	2024-11-08T22:00:00	5	Humedad	88
118109	7	Sololá	704	Santa Lucía Utatlán 	7	Santa Rita 	9	Septiembre	2023-09-18T00:00:00	2024-11-08T22:00:00	6	Velocidad del viento	1.6
118110	7	Sololá	704	Santa Lucía Utatlán 	7	Santa Rita 	9	Septiembre	2023-09-18T00:00:00	2024-11-08T22:00:00	7	Dirección del viento	1.61
118111	7	Sololá	704	Santa Lucía Utatlán 	7	Santa Rita 	9	Septiembre	2023-09-18T00:00:00	2024-11-08T22:00:00	1	Precipitación	0
118112	7	Sololá	704	Santa Lucía Utatlán 	7	Santa Rita 	9	Septiembre	2023-09-18T00:00:00	2024-11-08T22:00:00	8	Radiación solar	0
118113	7	Sololá	704	Santa Lucía Utatlán 	7	Santa Rita 	9	Septiembre	2023-09-18T00:00:00	2024-11-08T23:00:00	2	Temperatura media	17.2
118114	7	Sololá	704	Santa Lucía Utatlán 	7	Santa Rita 	9	Septiembre	2023-09-18T00:00:00	2024-11-08T23:00:00	4	Temperatura máxima	17.9
118115	7	Sololá	704	Santa Lucía Utatlán 	7	Santa Rita 	9	Septiembre	2023-09-18T00:00:00	2024-11-08T23:00:00	3	Temperatura mínima	17.2
118116	7	Sololá	704	Santa Lucía Utatlán 	7	Santa Rita 	9	Septiembre	2023-09-18T00:00:00	2024-11-08T23:00:00	5	Humedad	89
118117	7	Sololá	704	Santa Lucía Utatlán 	7	Santa Rita 	9	Septiembre	2023-09-18T00:00:00	2024-11-08T23:00:00	6	Velocidad del viento	3.2
118118	7	Sololá	704	Santa Lucía Utatlán 	7	Santa Rita 	9	Septiembre	2023-09-18T00:00:00	2024-11-08T23:00:00	7	Dirección del viento	3.22
118119	7	Sololá	704	Santa Lucía Utatlán 	7	Santa Rita 	9	Septiembre	2023-09-18T00:00:00	2024-11-08T23:00:00	1	Precipitación	0
118120	7	Sololá	704	Santa Lucía Utatlán 	7	Santa Rita 	9	Septiembre	2023-09-18T00:00:00	2024-11-08T23:00:00	8	Radiación solar	0
118121	7	Sololá	704	Santa Lucía Utatlán 	7	Santa Rita 	9	Septiembre	2023-09-19T00:00:00	2024-11-08T00:00:00	2	Temperatura media	16.6
118122	7	Sololá	704	Santa Lucía Utatlán 	7	Santa Rita 	9	Septiembre	2023-09-19T00:00:00	2024-11-08T00:00:00	4	Temperatura máxima	17.4
118123	7	Sololá	704	Santa Lucía Utatlán 	7	Santa Rita 	9	Septiembre	2023-09-19T00:00:00	2024-11-08T00:00:00	3	Temperatura mínima	16.6
118124	7	Sololá	704	Santa Lucía Utatlán 	7	Santa Rita 	9	Septiembre	2023-09-19T00:00:00	2024-11-08T00:00:00	5	Humedad	90
118125	7	Sololá	704	Santa Lucía Utatlán 	7	Santa Rita 	9	Septiembre	2023-09-19T00:00:00	2024-11-08T00:00:00	6	Velocidad del viento	3.2
118126	7	Sololá	704	Santa Lucía Utatlán 	7	Santa Rita 	9	Septiembre	2023-09-19T00:00:00	2024-11-08T00:00:00	7	Dirección del viento	3.22
118127	7	Sololá	704	Santa Lucía Utatlán 	7	Santa Rita 	9	Septiembre	2023-09-19T00:00:00	2024-11-08T00:00:00	1	Precipitación	0
118128	7	Sololá	704	Santa Lucía Utatlán 	7	Santa Rita 	9	Septiembre	2023-09-19T00:00:00	2024-11-08T00:00:00	8	Radiación solar	0
118129	7	Sololá	704	Santa Lucía Utatlán 	7	Santa Rita 	9	Septiembre	2023-09-19T00:00:00	2024-11-08T01:00:00	2	Temperatura media	16.4
118130	7	Sololá	704	Santa Lucía Utatlán 	7	Santa Rita 	9	Septiembre	2023-09-19T00:00:00	2024-11-08T01:00:00	4	Temperatura máxima	16.9
118131	7	Sololá	704	Santa Lucía Utatlán 	7	Santa Rita 	9	Septiembre	2023-09-19T00:00:00	2024-11-08T01:00:00	3	Temperatura mínima	16.3
118132	7	Sololá	704	Santa Lucía Utatlán 	7	Santa Rita 	9	Septiembre	2023-09-19T00:00:00	2024-11-08T01:00:00	5	Humedad	91
118133	7	Sololá	704	Santa Lucía Utatlán 	7	Santa Rita 	9	Septiembre	2023-09-19T00:00:00	2024-11-08T01:00:00	6	Velocidad del viento	3.2
118134	7	Sololá	704	Santa Lucía Utatlán 	7	Santa Rita 	9	Septiembre	2023-09-19T00:00:00	2024-11-08T01:00:00	7	Dirección del viento	3.22
118135	7	Sololá	704	Santa Lucía Utatlán 	7	Santa Rita 	9	Septiembre	2023-09-19T00:00:00	2024-11-08T01:00:00	1	Precipitación	0
118136	7	Sololá	704	Santa Lucía Utatlán 	7	Santa Rita 	9	Septiembre	2023-09-19T00:00:00	2024-11-08T01:00:00	8	Radiación solar	0
118137	7	Sololá	704	Santa Lucía Utatlán 	7	Santa Rita 	9	Septiembre	2023-09-19T00:00:00	2024-11-08T02:00:00	2	Temperatura media	17.1
118138	7	Sololá	704	Santa Lucía Utatlán 	7	Santa Rita 	9	Septiembre	2023-09-19T00:00:00	2024-11-08T02:00:00	4	Temperatura máxima	17.3
118139	7	Sololá	704	Santa Lucía Utatlán 	7	Santa Rita 	9	Septiembre	2023-09-19T00:00:00	2024-11-08T02:00:00	3	Temperatura mínima	16.4
118140	7	Sololá	704	Santa Lucía Utatlán 	7	Santa Rita 	9	Septiembre	2023-09-19T00:00:00	2024-11-08T02:00:00	5	Humedad	87
118141	7	Sololá	704	Santa Lucía Utatlán 	7	Santa Rita 	9	Septiembre	2023-09-19T00:00:00	2024-11-08T02:00:00	6	Velocidad del viento	3.2
118142	7	Sololá	704	Santa Lucía Utatlán 	7	Santa Rita 	9	Septiembre	2023-09-19T00:00:00	2024-11-08T02:00:00	7	Dirección del viento	3.22
118143	7	Sololá	704	Santa Lucía Utatlán 	7	Santa Rita 	9	Septiembre	2023-09-19T00:00:00	2024-11-08T02:00:00	1	Precipitación	0
118144	7	Sololá	704	Santa Lucía Utatlán 	7	Santa Rita 	9	Septiembre	2023-09-19T00:00:00	2024-11-08T02:00:00	8	Radiación solar	0
118145	7	Sololá	704	Santa Lucía Utatlán 	7	Santa Rita 	9	Septiembre	2023-09-19T00:00:00	2024-11-08T03:00:00	2	Temperatura media	16.4
118146	7	Sololá	704	Santa Lucía Utatlán 	7	Santa Rita 	9	Septiembre	2023-09-19T00:00:00	2024-11-08T03:00:00	4	Temperatura máxima	17.9
118147	7	Sololá	704	Santa Lucía Utatlán 	7	Santa Rita 	9	Septiembre	2023-09-19T00:00:00	2024-11-08T03:00:00	3	Temperatura mínima	16.3
118148	7	Sololá	704	Santa Lucía Utatlán 	7	Santa Rita 	9	Septiembre	2023-09-19T00:00:00	2024-11-08T03:00:00	5	Humedad	85
118149	7	Sololá	704	Santa Lucía Utatlán 	7	Santa Rita 	9	Septiembre	2023-09-19T00:00:00	2024-11-08T03:00:00	6	Velocidad del viento	3.2
118150	7	Sololá	704	Santa Lucía Utatlán 	7	Santa Rita 	9	Septiembre	2023-09-19T00:00:00	2024-11-08T03:00:00	7	Dirección del viento	3.22
118151	7	Sololá	704	Santa Lucía Utatlán 	7	Santa Rita 	9	Septiembre	2023-09-19T00:00:00	2024-11-08T03:00:00	1	Precipitación	0
118152	7	Sololá	704	Santa Lucía Utatlán 	7	Santa Rita 	9	Septiembre	2023-09-19T00:00:00	2024-11-08T03:00:00	8	Radiación solar	0
118153	7	Sololá	704	Santa Lucía Utatlán 	7	Santa Rita 	9	Septiembre	2023-09-19T00:00:00	2024-11-08T04:00:00	2	Temperatura media	17.4
118154	7	Sololá	704	Santa Lucía Utatlán 	7	Santa Rita 	9	Septiembre	2023-09-19T00:00:00	2024-11-08T04:00:00	4	Temperatura máxima	18.4
118155	7	Sololá	704	Santa Lucía Utatlán 	7	Santa Rita 	9	Septiembre	2023-09-19T00:00:00	2024-11-08T04:00:00	3	Temperatura mínima	16.1
118156	7	Sololá	704	Santa Lucía Utatlán 	7	Santa Rita 	9	Septiembre	2023-09-19T00:00:00	2024-11-08T04:00:00	5	Humedad	74
118157	7	Sololá	704	Santa Lucía Utatlán 	7	Santa Rita 	9	Septiembre	2023-09-19T00:00:00	2024-11-08T04:00:00	6	Velocidad del viento	4.8
118158	7	Sololá	704	Santa Lucía Utatlán 	7	Santa Rita 	9	Septiembre	2023-09-19T00:00:00	2024-11-08T04:00:00	7	Dirección del viento	4.83
118159	7	Sololá	704	Santa Lucía Utatlán 	7	Santa Rita 	9	Septiembre	2023-09-19T00:00:00	2024-11-08T04:00:00	1	Precipitación	0
118160	7	Sololá	704	Santa Lucía Utatlán 	7	Santa Rita 	9	Septiembre	2023-09-19T00:00:00	2024-11-08T04:00:00	8	Radiación solar	0
118161	7	Sololá	704	Santa Lucía Utatlán 	7	Santa Rita 	9	Septiembre	2023-09-19T00:00:00	2024-11-08T05:00:00	2	Temperatura media	15.7
118162	7	Sololá	704	Santa Lucía Utatlán 	7	Santa Rita 	9	Septiembre	2023-09-19T00:00:00	2024-11-08T05:00:00	4	Temperatura máxima	17.4
118163	7	Sololá	704	Santa Lucía Utatlán 	7	Santa Rita 	9	Septiembre	2023-09-19T00:00:00	2024-11-08T05:00:00	3	Temperatura mínima	15.5
118164	7	Sololá	704	Santa Lucía Utatlán 	7	Santa Rita 	9	Septiembre	2023-09-19T00:00:00	2024-11-08T05:00:00	5	Humedad	75
118165	7	Sololá	704	Santa Lucía Utatlán 	7	Santa Rita 	9	Septiembre	2023-09-19T00:00:00	2024-11-08T05:00:00	6	Velocidad del viento	3.2
118166	7	Sololá	704	Santa Lucía Utatlán 	7	Santa Rita 	9	Septiembre	2023-09-19T00:00:00	2024-11-08T05:00:00	7	Dirección del viento	3.22
118167	7	Sololá	704	Santa Lucía Utatlán 	7	Santa Rita 	9	Septiembre	2023-09-19T00:00:00	2024-11-08T05:00:00	1	Precipitación	0
118168	7	Sololá	704	Santa Lucía Utatlán 	7	Santa Rita 	9	Septiembre	2023-09-19T00:00:00	2024-11-08T05:00:00	8	Radiación solar	0
118169	7	Sololá	704	Santa Lucía Utatlán 	7	Santa Rita 	9	Septiembre	2023-09-19T00:00:00	2024-11-08T06:00:00	2	Temperatura media	15.9
118170	7	Sololá	704	Santa Lucía Utatlán 	7	Santa Rita 	9	Septiembre	2023-09-19T00:00:00	2024-11-08T06:00:00	4	Temperatura máxima	16.3
118171	7	Sololá	704	Santa Lucía Utatlán 	7	Santa Rita 	9	Septiembre	2023-09-19T00:00:00	2024-11-08T06:00:00	3	Temperatura mínima	15.5
118172	7	Sololá	704	Santa Lucía Utatlán 	7	Santa Rita 	9	Septiembre	2023-09-19T00:00:00	2024-11-08T06:00:00	5	Humedad	70
118173	7	Sololá	704	Santa Lucía Utatlán 	7	Santa Rita 	9	Septiembre	2023-09-19T00:00:00	2024-11-08T06:00:00	6	Velocidad del viento	1.6
118174	7	Sololá	704	Santa Lucía Utatlán 	7	Santa Rita 	9	Septiembre	2023-09-19T00:00:00	2024-11-08T06:00:00	7	Dirección del viento	1.61
118175	7	Sololá	704	Santa Lucía Utatlán 	7	Santa Rita 	9	Septiembre	2023-09-19T00:00:00	2024-11-08T06:00:00	1	Precipitación	0
118176	7	Sololá	704	Santa Lucía Utatlán 	7	Santa Rita 	9	Septiembre	2023-09-19T00:00:00	2024-11-08T06:00:00	8	Radiación solar	7
118177	7	Sololá	704	Santa Lucía Utatlán 	7	Santa Rita 	9	Septiembre	2023-09-19T00:00:00	2024-11-08T07:00:00	2	Temperatura media	18.9
118178	7	Sololá	704	Santa Lucía Utatlán 	7	Santa Rita 	9	Septiembre	2023-09-19T00:00:00	2024-11-08T07:00:00	4	Temperatura máxima	18.9
118179	7	Sololá	704	Santa Lucía Utatlán 	7	Santa Rita 	9	Septiembre	2023-09-19T00:00:00	2024-11-08T07:00:00	3	Temperatura mínima	15.9
118180	7	Sololá	704	Santa Lucía Utatlán 	7	Santa Rita 	9	Septiembre	2023-09-19T00:00:00	2024-11-08T07:00:00	5	Humedad	60
118181	7	Sololá	704	Santa Lucía Utatlán 	7	Santa Rita 	9	Septiembre	2023-09-19T00:00:00	2024-11-08T07:00:00	6	Velocidad del viento	3.2
118182	7	Sololá	704	Santa Lucía Utatlán 	7	Santa Rita 	9	Septiembre	2023-09-19T00:00:00	2024-11-08T07:00:00	7	Dirección del viento	3.22
118183	7	Sololá	704	Santa Lucía Utatlán 	7	Santa Rita 	9	Septiembre	2023-09-19T00:00:00	2024-11-08T07:00:00	1	Precipitación	0
118184	7	Sololá	704	Santa Lucía Utatlán 	7	Santa Rita 	9	Septiembre	2023-09-19T00:00:00	2024-11-08T07:00:00	8	Radiación solar	157
118185	7	Sololá	704	Santa Lucía Utatlán 	7	Santa Rita 	9	Septiembre	2023-09-19T00:00:00	2024-11-08T08:00:00	2	Temperatura media	20.9
118186	7	Sololá	704	Santa Lucía Utatlán 	7	Santa Rita 	9	Septiembre	2023-09-19T00:00:00	2024-11-08T08:00:00	4	Temperatura máxima	20.9
118187	7	Sololá	704	Santa Lucía Utatlán 	7	Santa Rita 	9	Septiembre	2023-09-19T00:00:00	2024-11-08T08:00:00	3	Temperatura mínima	18.9
118188	7	Sololá	704	Santa Lucía Utatlán 	7	Santa Rita 	9	Septiembre	2023-09-19T00:00:00	2024-11-08T08:00:00	5	Humedad	57
118189	7	Sololá	704	Santa Lucía Utatlán 	7	Santa Rita 	9	Septiembre	2023-09-19T00:00:00	2024-11-08T08:00:00	6	Velocidad del viento	3.2
118190	7	Sololá	704	Santa Lucía Utatlán 	7	Santa Rita 	9	Septiembre	2023-09-19T00:00:00	2024-11-08T08:00:00	7	Dirección del viento	3.22
118191	7	Sololá	704	Santa Lucía Utatlán 	7	Santa Rita 	9	Septiembre	2023-09-19T00:00:00	2024-11-08T08:00:00	1	Precipitación	0
118192	7	Sololá	704	Santa Lucía Utatlán 	7	Santa Rita 	9	Septiembre	2023-09-19T00:00:00	2024-11-08T08:00:00	8	Radiación solar	353
118193	7	Sololá	704	Santa Lucía Utatlán 	7	Santa Rita 	9	Septiembre	2023-09-19T00:00:00	2024-11-08T09:00:00	2	Temperatura media	24.8
118194	7	Sololá	704	Santa Lucía Utatlán 	7	Santa Rita 	9	Septiembre	2023-09-19T00:00:00	2024-11-08T09:00:00	4	Temperatura máxima	25.1
118195	7	Sololá	704	Santa Lucía Utatlán 	7	Santa Rita 	9	Septiembre	2023-09-19T00:00:00	2024-11-08T09:00:00	3	Temperatura mínima	20.9
118196	7	Sololá	704	Santa Lucía Utatlán 	7	Santa Rita 	9	Septiembre	2023-09-19T00:00:00	2024-11-08T09:00:00	5	Humedad	32
118197	7	Sololá	704	Santa Lucía Utatlán 	7	Santa Rita 	9	Septiembre	2023-09-19T00:00:00	2024-11-08T09:00:00	6	Velocidad del viento	4.8
118198	7	Sololá	704	Santa Lucía Utatlán 	7	Santa Rita 	9	Septiembre	2023-09-19T00:00:00	2024-11-08T09:00:00	7	Dirección del viento	4.83
118199	7	Sololá	704	Santa Lucía Utatlán 	7	Santa Rita 	9	Septiembre	2023-09-19T00:00:00	2024-11-08T09:00:00	1	Precipitación	0
118200	7	Sololá	704	Santa Lucía Utatlán 	7	Santa Rita 	9	Septiembre	2023-09-19T00:00:00	2024-11-08T09:00:00	8	Radiación solar	627
118201	7	Sololá	704	Santa Lucía Utatlán 	7	Santa Rita 	9	Septiembre	2023-09-19T00:00:00	2024-11-08T10:00:00	2	Temperatura media	25.1
118202	7	Sololá	704	Santa Lucía Utatlán 	7	Santa Rita 	9	Septiembre	2023-09-19T00:00:00	2024-11-08T10:00:00	4	Temperatura máxima	25.2
118203	7	Sololá	704	Santa Lucía Utatlán 	7	Santa Rita 	9	Septiembre	2023-09-19T00:00:00	2024-11-08T10:00:00	3	Temperatura mínima	24.4
118204	7	Sololá	704	Santa Lucía Utatlán 	7	Santa Rita 	9	Septiembre	2023-09-19T00:00:00	2024-11-08T10:00:00	5	Humedad	35
118205	7	Sololá	704	Santa Lucía Utatlán 	7	Santa Rita 	9	Septiembre	2023-09-19T00:00:00	2024-11-08T10:00:00	6	Velocidad del viento	9.7
118206	7	Sololá	704	Santa Lucía Utatlán 	7	Santa Rita 	9	Septiembre	2023-09-19T00:00:00	2024-11-08T10:00:00	7	Dirección del viento	9.66
118207	7	Sololá	704	Santa Lucía Utatlán 	7	Santa Rita 	9	Septiembre	2023-09-19T00:00:00	2024-11-08T10:00:00	1	Precipitación	0
118208	7	Sololá	704	Santa Lucía Utatlán 	7	Santa Rita 	9	Septiembre	2023-09-19T00:00:00	2024-11-08T10:00:00	8	Radiación solar	826
118209	7	Sololá	704	Santa Lucía Utatlán 	7	Santa Rita 	9	Septiembre	2023-09-19T00:00:00	2024-11-08T11:00:00	2	Temperatura media	24.8
118210	7	Sololá	704	Santa Lucía Utatlán 	7	Santa Rita 	9	Septiembre	2023-09-19T00:00:00	2024-11-08T11:00:00	4	Temperatura máxima	25.3
118211	7	Sololá	704	Santa Lucía Utatlán 	7	Santa Rita 	9	Septiembre	2023-09-19T00:00:00	2024-11-08T11:00:00	3	Temperatura mínima	24.7
118212	7	Sololá	704	Santa Lucía Utatlán 	7	Santa Rita 	9	Septiembre	2023-09-19T00:00:00	2024-11-08T11:00:00	5	Humedad	43
118213	7	Sololá	704	Santa Lucía Utatlán 	7	Santa Rita 	9	Septiembre	2023-09-19T00:00:00	2024-11-08T11:00:00	6	Velocidad del viento	9.7
118214	7	Sololá	704	Santa Lucía Utatlán 	7	Santa Rita 	9	Septiembre	2023-09-19T00:00:00	2024-11-08T11:00:00	7	Dirección del viento	9.66
118215	7	Sololá	704	Santa Lucía Utatlán 	7	Santa Rita 	9	Septiembre	2023-09-19T00:00:00	2024-11-08T11:00:00	1	Precipitación	0
118216	7	Sololá	704	Santa Lucía Utatlán 	7	Santa Rita 	9	Septiembre	2023-09-19T00:00:00	2024-11-08T11:00:00	8	Radiación solar	949
118217	7	Sololá	704	Santa Lucía Utatlán 	7	Santa Rita 	9	Septiembre	2023-09-19T00:00:00	2024-11-08T12:00:00	2	Temperatura media	25.2
118218	7	Sololá	704	Santa Lucía Utatlán 	7	Santa Rita 	9	Septiembre	2023-09-19T00:00:00	2024-11-08T12:00:00	4	Temperatura máxima	25.2
118219	7	Sololá	704	Santa Lucía Utatlán 	7	Santa Rita 	9	Septiembre	2023-09-19T00:00:00	2024-11-08T12:00:00	3	Temperatura mínima	24.6
118220	7	Sololá	704	Santa Lucía Utatlán 	7	Santa Rita 	9	Septiembre	2023-09-19T00:00:00	2024-11-08T12:00:00	5	Humedad	42
118221	7	Sololá	704	Santa Lucía Utatlán 	7	Santa Rita 	9	Septiembre	2023-09-19T00:00:00	2024-11-08T12:00:00	6	Velocidad del viento	9.7
118222	7	Sololá	704	Santa Lucía Utatlán 	7	Santa Rita 	9	Septiembre	2023-09-19T00:00:00	2024-11-08T12:00:00	7	Dirección del viento	9.66
118223	7	Sololá	704	Santa Lucía Utatlán 	7	Santa Rita 	9	Septiembre	2023-09-19T00:00:00	2024-11-08T12:00:00	1	Precipitación	0
118224	7	Sololá	704	Santa Lucía Utatlán 	7	Santa Rita 	9	Septiembre	2023-09-19T00:00:00	2024-11-08T12:00:00	8	Radiación solar	998
118225	7	Sololá	704	Santa Lucía Utatlán 	7	Santa Rita 	9	Septiembre	2023-09-19T00:00:00	2024-11-08T13:00:00	2	Temperatura media	25.1
118226	7	Sololá	704	Santa Lucía Utatlán 	7	Santa Rita 	9	Septiembre	2023-09-19T00:00:00	2024-11-08T13:00:00	4	Temperatura máxima	25.8
118227	7	Sololá	704	Santa Lucía Utatlán 	7	Santa Rita 	9	Septiembre	2023-09-19T00:00:00	2024-11-08T13:00:00	3	Temperatura mínima	24.9
118228	7	Sololá	704	Santa Lucía Utatlán 	7	Santa Rita 	9	Septiembre	2023-09-19T00:00:00	2024-11-08T13:00:00	5	Humedad	44
118229	7	Sololá	704	Santa Lucía Utatlán 	7	Santa Rita 	9	Septiembre	2023-09-19T00:00:00	2024-11-08T13:00:00	6	Velocidad del viento	9.7
118230	7	Sololá	704	Santa Lucía Utatlán 	7	Santa Rita 	9	Septiembre	2023-09-19T00:00:00	2024-11-08T13:00:00	7	Dirección del viento	9.66
118231	7	Sololá	704	Santa Lucía Utatlán 	7	Santa Rita 	9	Septiembre	2023-09-19T00:00:00	2024-11-08T13:00:00	1	Precipitación	0
118232	7	Sololá	704	Santa Lucía Utatlán 	7	Santa Rita 	9	Septiembre	2023-09-19T00:00:00	2024-11-08T13:00:00	8	Radiación solar	958
118233	7	Sololá	704	Santa Lucía Utatlán 	7	Santa Rita 	9	Septiembre	2023-09-19T00:00:00	2024-11-08T14:00:00	2	Temperatura media	25.6
118234	7	Sololá	704	Santa Lucía Utatlán 	7	Santa Rita 	9	Septiembre	2023-09-19T00:00:00	2024-11-08T14:00:00	4	Temperatura máxima	25.7
118235	7	Sololá	704	Santa Lucía Utatlán 	7	Santa Rita 	9	Septiembre	2023-09-19T00:00:00	2024-11-08T14:00:00	3	Temperatura mínima	25
118236	7	Sololá	704	Santa Lucía Utatlán 	7	Santa Rita 	9	Septiembre	2023-09-19T00:00:00	2024-11-08T14:00:00	5	Humedad	43
118237	7	Sololá	704	Santa Lucía Utatlán 	7	Santa Rita 	9	Septiembre	2023-09-19T00:00:00	2024-11-08T14:00:00	6	Velocidad del viento	8
118238	7	Sololá	704	Santa Lucía Utatlán 	7	Santa Rita 	9	Septiembre	2023-09-19T00:00:00	2024-11-08T14:00:00	7	Dirección del viento	8.05
118239	7	Sololá	704	Santa Lucía Utatlán 	7	Santa Rita 	9	Septiembre	2023-09-19T00:00:00	2024-11-08T14:00:00	1	Precipitación	0
118240	7	Sololá	704	Santa Lucía Utatlán 	7	Santa Rita 	9	Septiembre	2023-09-19T00:00:00	2024-11-08T14:00:00	8	Radiación solar	874
118241	7	Sololá	704	Santa Lucía Utatlán 	7	Santa Rita 	9	Septiembre	2023-09-19T00:00:00	2024-11-08T15:00:00	2	Temperatura media	24.6
118242	7	Sololá	704	Santa Lucía Utatlán 	7	Santa Rita 	9	Septiembre	2023-09-19T00:00:00	2024-11-08T15:00:00	4	Temperatura máxima	25.6
118243	7	Sololá	704	Santa Lucía Utatlán 	7	Santa Rita 	9	Septiembre	2023-09-19T00:00:00	2024-11-08T15:00:00	3	Temperatura mínima	24.3
118244	7	Sololá	704	Santa Lucía Utatlán 	7	Santa Rita 	9	Septiembre	2023-09-19T00:00:00	2024-11-08T15:00:00	5	Humedad	50
118245	7	Sololá	704	Santa Lucía Utatlán 	7	Santa Rita 	9	Septiembre	2023-09-19T00:00:00	2024-11-08T15:00:00	6	Velocidad del viento	9.7
118246	7	Sololá	704	Santa Lucía Utatlán 	7	Santa Rita 	9	Septiembre	2023-09-19T00:00:00	2024-11-08T15:00:00	7	Dirección del viento	9.66
118247	7	Sololá	704	Santa Lucía Utatlán 	7	Santa Rita 	9	Septiembre	2023-09-19T00:00:00	2024-11-08T15:00:00	1	Precipitación	0
118248	7	Sololá	704	Santa Lucía Utatlán 	7	Santa Rita 	9	Septiembre	2023-09-19T00:00:00	2024-11-08T15:00:00	8	Radiación solar	609
118249	7	Sololá	704	Santa Lucía Utatlán 	7	Santa Rita 	9	Septiembre	2023-09-19T00:00:00	2024-11-08T16:00:00	2	Temperatura media	24.3
118250	7	Sololá	704	Santa Lucía Utatlán 	7	Santa Rita 	9	Septiembre	2023-09-19T00:00:00	2024-11-08T16:00:00	4	Temperatura máxima	24.9
118251	7	Sololá	704	Santa Lucía Utatlán 	7	Santa Rita 	9	Septiembre	2023-09-19T00:00:00	2024-11-08T16:00:00	3	Temperatura mínima	23.9
118252	7	Sololá	704	Santa Lucía Utatlán 	7	Santa Rita 	9	Septiembre	2023-09-19T00:00:00	2024-11-08T16:00:00	5	Humedad	60
118253	7	Sololá	704	Santa Lucía Utatlán 	7	Santa Rita 	9	Septiembre	2023-09-19T00:00:00	2024-11-08T16:00:00	6	Velocidad del viento	8
118254	7	Sololá	704	Santa Lucía Utatlán 	7	Santa Rita 	9	Septiembre	2023-09-19T00:00:00	2024-11-08T16:00:00	7	Dirección del viento	8.05
118255	7	Sololá	704	Santa Lucía Utatlán 	7	Santa Rita 	9	Septiembre	2023-09-19T00:00:00	2024-11-08T16:00:00	1	Precipitación	0
118256	7	Sololá	704	Santa Lucía Utatlán 	7	Santa Rita 	9	Septiembre	2023-09-19T00:00:00	2024-11-08T16:00:00	8	Radiación solar	370
118257	7	Sololá	704	Santa Lucía Utatlán 	7	Santa Rita 	9	Septiembre	2023-09-19T00:00:00	2024-11-08T17:00:00	2	Temperatura media	22.8
118258	7	Sololá	704	Santa Lucía Utatlán 	7	Santa Rita 	9	Septiembre	2023-09-19T00:00:00	2024-11-08T17:00:00	4	Temperatura máxima	24.4
118259	7	Sololá	704	Santa Lucía Utatlán 	7	Santa Rita 	9	Septiembre	2023-09-19T00:00:00	2024-11-08T17:00:00	3	Temperatura mínima	22.8
118260	7	Sololá	704	Santa Lucía Utatlán 	7	Santa Rita 	9	Septiembre	2023-09-19T00:00:00	2024-11-08T17:00:00	5	Humedad	63
118261	7	Sololá	704	Santa Lucía Utatlán 	7	Santa Rita 	9	Septiembre	2023-09-19T00:00:00	2024-11-08T17:00:00	6	Velocidad del viento	8
118262	7	Sololá	704	Santa Lucía Utatlán 	7	Santa Rita 	9	Septiembre	2023-09-19T00:00:00	2024-11-08T17:00:00	7	Dirección del viento	8.05
118263	7	Sololá	704	Santa Lucía Utatlán 	7	Santa Rita 	9	Septiembre	2023-09-19T00:00:00	2024-11-08T17:00:00	1	Precipitación	0
118264	7	Sololá	704	Santa Lucía Utatlán 	7	Santa Rita 	9	Septiembre	2023-09-19T00:00:00	2024-11-08T17:00:00	8	Radiación solar	142
118265	7	Sololá	704	Santa Lucía Utatlán 	7	Santa Rita 	9	Septiembre	2023-09-19T00:00:00	2024-11-08T18:00:00	2	Temperatura media	21.2
118266	7	Sololá	704	Santa Lucía Utatlán 	7	Santa Rita 	9	Septiembre	2023-09-19T00:00:00	2024-11-08T18:00:00	4	Temperatura máxima	22.8
118267	7	Sololá	704	Santa Lucía Utatlán 	7	Santa Rita 	9	Septiembre	2023-09-19T00:00:00	2024-11-08T18:00:00	3	Temperatura mínima	21.2
118268	7	Sololá	704	Santa Lucía Utatlán 	7	Santa Rita 	9	Septiembre	2023-09-19T00:00:00	2024-11-08T18:00:00	5	Humedad	72
118269	7	Sololá	704	Santa Lucía Utatlán 	7	Santa Rita 	9	Septiembre	2023-09-19T00:00:00	2024-11-08T18:00:00	6	Velocidad del viento	3.2
118270	7	Sololá	704	Santa Lucía Utatlán 	7	Santa Rita 	9	Septiembre	2023-09-19T00:00:00	2024-11-08T18:00:00	7	Dirección del viento	3.22
118271	7	Sololá	704	Santa Lucía Utatlán 	7	Santa Rita 	9	Septiembre	2023-09-19T00:00:00	2024-11-08T18:00:00	1	Precipitación	0
118272	7	Sololá	704	Santa Lucía Utatlán 	7	Santa Rita 	9	Septiembre	2023-09-19T00:00:00	2024-11-08T18:00:00	8	Radiación solar	8
118273	7	Sololá	704	Santa Lucía Utatlán 	7	Santa Rita 	9	Septiembre	2023-09-19T00:00:00	2024-11-08T19:00:00	2	Temperatura media	18.4
118274	7	Sololá	704	Santa Lucía Utatlán 	7	Santa Rita 	9	Septiembre	2023-09-19T00:00:00	2024-11-08T19:00:00	4	Temperatura máxima	21.2
118275	7	Sololá	704	Santa Lucía Utatlán 	7	Santa Rita 	9	Septiembre	2023-09-19T00:00:00	2024-11-08T19:00:00	3	Temperatura mínima	18.4
118276	7	Sololá	704	Santa Lucía Utatlán 	7	Santa Rita 	9	Septiembre	2023-09-19T00:00:00	2024-11-08T19:00:00	5	Humedad	85
118277	7	Sololá	704	Santa Lucía Utatlán 	7	Santa Rita 	9	Septiembre	2023-09-19T00:00:00	2024-11-08T19:00:00	6	Velocidad del viento	3.2
118278	7	Sololá	704	Santa Lucía Utatlán 	7	Santa Rita 	9	Septiembre	2023-09-19T00:00:00	2024-11-08T19:00:00	7	Dirección del viento	3.22
118279	7	Sololá	704	Santa Lucía Utatlán 	7	Santa Rita 	9	Septiembre	2023-09-19T00:00:00	2024-11-08T19:00:00	1	Precipitación	0
118280	7	Sololá	704	Santa Lucía Utatlán 	7	Santa Rita 	9	Septiembre	2023-09-19T00:00:00	2024-11-08T19:00:00	8	Radiación solar	0
118281	7	Sololá	704	Santa Lucía Utatlán 	7	Santa Rita 	9	Septiembre	2023-09-19T00:00:00	2024-11-08T20:00:00	2	Temperatura media	18.1
118282	7	Sololá	704	Santa Lucía Utatlán 	7	Santa Rita 	9	Septiembre	2023-09-19T00:00:00	2024-11-08T20:00:00	4	Temperatura máxima	18.4
118283	7	Sololá	704	Santa Lucía Utatlán 	7	Santa Rita 	9	Septiembre	2023-09-19T00:00:00	2024-11-08T20:00:00	3	Temperatura mínima	18.1
118284	7	Sololá	704	Santa Lucía Utatlán 	7	Santa Rita 	9	Septiembre	2023-09-19T00:00:00	2024-11-08T20:00:00	5	Humedad	88
118285	7	Sololá	704	Santa Lucía Utatlán 	7	Santa Rita 	9	Septiembre	2023-09-19T00:00:00	2024-11-08T20:00:00	6	Velocidad del viento	3.2
118286	7	Sololá	704	Santa Lucía Utatlán 	7	Santa Rita 	9	Septiembre	2023-09-19T00:00:00	2024-11-08T20:00:00	7	Dirección del viento	3.22
118287	7	Sololá	704	Santa Lucía Utatlán 	7	Santa Rita 	9	Septiembre	2023-09-19T00:00:00	2024-11-08T20:00:00	1	Precipitación	0
118288	7	Sololá	704	Santa Lucía Utatlán 	7	Santa Rita 	9	Septiembre	2023-09-19T00:00:00	2024-11-08T20:00:00	8	Radiación solar	0
118289	7	Sololá	704	Santa Lucía Utatlán 	7	Santa Rita 	9	Septiembre	2023-09-19T00:00:00	2024-11-08T21:00:00	2	Temperatura media	17.3
118290	7	Sololá	704	Santa Lucía Utatlán 	7	Santa Rita 	9	Septiembre	2023-09-19T00:00:00	2024-11-08T21:00:00	4	Temperatura máxima	18.1
118291	7	Sololá	704	Santa Lucía Utatlán 	7	Santa Rita 	9	Septiembre	2023-09-19T00:00:00	2024-11-08T21:00:00	3	Temperatura mínima	17.3
118292	7	Sololá	704	Santa Lucía Utatlán 	7	Santa Rita 	9	Septiembre	2023-09-19T00:00:00	2024-11-08T21:00:00	5	Humedad	90
118293	7	Sololá	704	Santa Lucía Utatlán 	7	Santa Rita 	9	Septiembre	2023-09-19T00:00:00	2024-11-08T21:00:00	6	Velocidad del viento	3.2
118294	7	Sololá	704	Santa Lucía Utatlán 	7	Santa Rita 	9	Septiembre	2023-09-19T00:00:00	2024-11-08T21:00:00	7	Dirección del viento	3.22
118295	7	Sololá	704	Santa Lucía Utatlán 	7	Santa Rita 	9	Septiembre	2023-09-19T00:00:00	2024-11-08T21:00:00	1	Precipitación	0
118296	7	Sololá	704	Santa Lucía Utatlán 	7	Santa Rita 	9	Septiembre	2023-09-19T00:00:00	2024-11-08T21:00:00	8	Radiación solar	0
118297	7	Sololá	704	Santa Lucía Utatlán 	7	Santa Rita 	9	Septiembre	2023-09-19T00:00:00	2024-11-08T22:00:00	2	Temperatura media	16.9
118298	7	Sololá	704	Santa Lucía Utatlán 	7	Santa Rita 	9	Septiembre	2023-09-19T00:00:00	2024-11-08T22:00:00	4	Temperatura máxima	17.3
118299	7	Sololá	704	Santa Lucía Utatlán 	7	Santa Rita 	9	Septiembre	2023-09-19T00:00:00	2024-11-08T22:00:00	3	Temperatura mínima	16.9
118300	7	Sololá	704	Santa Lucía Utatlán 	7	Santa Rita 	9	Septiembre	2023-09-19T00:00:00	2024-11-08T22:00:00	5	Humedad	91
118301	7	Sololá	704	Santa Lucía Utatlán 	7	Santa Rita 	9	Septiembre	2023-09-19T00:00:00	2024-11-08T22:00:00	6	Velocidad del viento	1.6
118302	7	Sololá	704	Santa Lucía Utatlán 	7	Santa Rita 	9	Septiembre	2023-09-19T00:00:00	2024-11-08T22:00:00	7	Dirección del viento	1.61
118303	7	Sololá	704	Santa Lucía Utatlán 	7	Santa Rita 	9	Septiembre	2023-09-19T00:00:00	2024-11-08T22:00:00	1	Precipitación	0
118304	7	Sololá	704	Santa Lucía Utatlán 	7	Santa Rita 	9	Septiembre	2023-09-19T00:00:00	2024-11-08T22:00:00	8	Radiación solar	0
118305	7	Sololá	704	Santa Lucía Utatlán 	7	Santa Rita 	9	Septiembre	2023-09-19T00:00:00	2024-11-08T23:00:00	2	Temperatura media	17.4
118306	7	Sololá	704	Santa Lucía Utatlán 	7	Santa Rita 	9	Septiembre	2023-09-19T00:00:00	2024-11-08T23:00:00	4	Temperatura máxima	17.4
118307	7	Sololá	704	Santa Lucía Utatlán 	7	Santa Rita 	9	Septiembre	2023-09-19T00:00:00	2024-11-08T23:00:00	3	Temperatura mínima	16.8
118308	7	Sololá	704	Santa Lucía Utatlán 	7	Santa Rita 	9	Septiembre	2023-09-19T00:00:00	2024-11-08T23:00:00	5	Humedad	89
118309	7	Sololá	704	Santa Lucía Utatlán 	7	Santa Rita 	9	Septiembre	2023-09-19T00:00:00	2024-11-08T23:00:00	6	Velocidad del viento	3.2
118310	7	Sololá	704	Santa Lucía Utatlán 	7	Santa Rita 	9	Septiembre	2023-09-19T00:00:00	2024-11-08T23:00:00	7	Dirección del viento	3.22
118311	7	Sololá	704	Santa Lucía Utatlán 	7	Santa Rita 	9	Septiembre	2023-09-19T00:00:00	2024-11-08T23:00:00	1	Precipitación	0
118312	7	Sololá	704	Santa Lucía Utatlán 	7	Santa Rita 	9	Septiembre	2023-09-19T00:00:00	2024-11-08T23:00:00	8	Radiación solar	0
118313	7	Sololá	704	Santa Lucía Utatlán 	7	Santa Rita 	9	Septiembre	2023-09-20T00:00:00	2024-11-08T00:00:00	2	Temperatura media	17.3
118314	7	Sololá	704	Santa Lucía Utatlán 	7	Santa Rita 	9	Septiembre	2023-09-20T00:00:00	2024-11-08T00:00:00	4	Temperatura máxima	17.4
118315	7	Sololá	704	Santa Lucía Utatlán 	7	Santa Rita 	9	Septiembre	2023-09-20T00:00:00	2024-11-08T00:00:00	3	Temperatura mínima	16.9
118316	7	Sololá	704	Santa Lucía Utatlán 	7	Santa Rita 	9	Septiembre	2023-09-20T00:00:00	2024-11-08T00:00:00	5	Humedad	85
118317	7	Sololá	704	Santa Lucía Utatlán 	7	Santa Rita 	9	Septiembre	2023-09-20T00:00:00	2024-11-08T00:00:00	6	Velocidad del viento	3.2
118318	7	Sololá	704	Santa Lucía Utatlán 	7	Santa Rita 	9	Septiembre	2023-09-20T00:00:00	2024-11-08T00:00:00	7	Dirección del viento	3.22
118319	7	Sololá	704	Santa Lucía Utatlán 	7	Santa Rita 	9	Septiembre	2023-09-20T00:00:00	2024-11-08T00:00:00	1	Precipitación	0
118320	7	Sololá	704	Santa Lucía Utatlán 	7	Santa Rita 	9	Septiembre	2023-09-20T00:00:00	2024-11-08T00:00:00	8	Radiación solar	0
118321	7	Sololá	704	Santa Lucía Utatlán 	7	Santa Rita 	9	Septiembre	2023-09-20T00:00:00	2024-11-08T01:00:00	2	Temperatura media	16.6
118322	7	Sololá	704	Santa Lucía Utatlán 	7	Santa Rita 	9	Septiembre	2023-09-20T00:00:00	2024-11-08T01:00:00	4	Temperatura máxima	18.2
118323	7	Sololá	704	Santa Lucía Utatlán 	7	Santa Rita 	9	Septiembre	2023-09-20T00:00:00	2024-11-08T01:00:00	3	Temperatura mínima	16.6
118324	7	Sololá	704	Santa Lucía Utatlán 	7	Santa Rita 	9	Septiembre	2023-09-20T00:00:00	2024-11-08T01:00:00	5	Humedad	86
118325	7	Sololá	704	Santa Lucía Utatlán 	7	Santa Rita 	9	Septiembre	2023-09-20T00:00:00	2024-11-08T01:00:00	6	Velocidad del viento	3.2
118326	7	Sololá	704	Santa Lucía Utatlán 	7	Santa Rita 	9	Septiembre	2023-09-20T00:00:00	2024-11-08T01:00:00	7	Dirección del viento	3.22
118327	7	Sololá	704	Santa Lucía Utatlán 	7	Santa Rita 	9	Septiembre	2023-09-20T00:00:00	2024-11-08T01:00:00	1	Precipitación	0
118328	7	Sololá	704	Santa Lucía Utatlán 	7	Santa Rita 	9	Septiembre	2023-09-20T00:00:00	2024-11-08T01:00:00	8	Radiación solar	0
118329	7	Sololá	704	Santa Lucía Utatlán 	7	Santa Rita 	9	Septiembre	2023-09-20T00:00:00	2024-11-08T02:00:00	2	Temperatura media	15.9
118330	7	Sololá	704	Santa Lucía Utatlán 	7	Santa Rita 	9	Septiembre	2023-09-20T00:00:00	2024-11-08T02:00:00	4	Temperatura máxima	16.6
118331	7	Sololá	704	Santa Lucía Utatlán 	7	Santa Rita 	9	Septiembre	2023-09-20T00:00:00	2024-11-08T02:00:00	3	Temperatura mínima	15.9
118332	7	Sololá	704	Santa Lucía Utatlán 	7	Santa Rita 	9	Septiembre	2023-09-20T00:00:00	2024-11-08T02:00:00	5	Humedad	84
118333	7	Sololá	704	Santa Lucía Utatlán 	7	Santa Rita 	9	Septiembre	2023-09-20T00:00:00	2024-11-08T02:00:00	6	Velocidad del viento	4.8
118334	7	Sololá	704	Santa Lucía Utatlán 	7	Santa Rita 	9	Septiembre	2023-09-20T00:00:00	2024-11-08T02:00:00	7	Dirección del viento	4.83
118335	7	Sololá	704	Santa Lucía Utatlán 	7	Santa Rita 	9	Septiembre	2023-09-20T00:00:00	2024-11-08T02:00:00	1	Precipitación	0
118336	7	Sololá	704	Santa Lucía Utatlán 	7	Santa Rita 	9	Septiembre	2023-09-20T00:00:00	2024-11-08T02:00:00	8	Radiación solar	0
118337	7	Sololá	704	Santa Lucía Utatlán 	7	Santa Rita 	9	Septiembre	2023-09-20T00:00:00	2024-11-08T03:00:00	2	Temperatura media	15.9
118338	7	Sololá	704	Santa Lucía Utatlán 	7	Santa Rita 	9	Septiembre	2023-09-20T00:00:00	2024-11-08T03:00:00	4	Temperatura máxima	16
118339	7	Sololá	704	Santa Lucía Utatlán 	7	Santa Rita 	9	Septiembre	2023-09-20T00:00:00	2024-11-08T03:00:00	3	Temperatura mínima	15.6
118340	7	Sololá	704	Santa Lucía Utatlán 	7	Santa Rita 	9	Septiembre	2023-09-20T00:00:00	2024-11-08T03:00:00	5	Humedad	87
118341	7	Sololá	704	Santa Lucía Utatlán 	7	Santa Rita 	9	Septiembre	2023-09-20T00:00:00	2024-11-08T03:00:00	6	Velocidad del viento	4.8
118342	7	Sololá	704	Santa Lucía Utatlán 	7	Santa Rita 	9	Septiembre	2023-09-20T00:00:00	2024-11-08T03:00:00	7	Dirección del viento	4.83
118343	7	Sololá	704	Santa Lucía Utatlán 	7	Santa Rita 	9	Septiembre	2023-09-20T00:00:00	2024-11-08T03:00:00	1	Precipitación	0
118344	7	Sololá	704	Santa Lucía Utatlán 	7	Santa Rita 	9	Septiembre	2023-09-20T00:00:00	2024-11-08T03:00:00	8	Radiación solar	0
118345	7	Sololá	704	Santa Lucía Utatlán 	7	Santa Rita 	9	Septiembre	2023-09-20T00:00:00	2024-11-08T04:00:00	2	Temperatura media	15.9
118346	7	Sololá	704	Santa Lucía Utatlán 	7	Santa Rita 	9	Septiembre	2023-09-20T00:00:00	2024-11-08T04:00:00	4	Temperatura máxima	16
118347	7	Sololá	704	Santa Lucía Utatlán 	7	Santa Rita 	9	Septiembre	2023-09-20T00:00:00	2024-11-08T04:00:00	3	Temperatura mínima	15.6
118348	7	Sololá	704	Santa Lucía Utatlán 	7	Santa Rita 	9	Septiembre	2023-09-20T00:00:00	2024-11-08T04:00:00	5	Humedad	85
118349	7	Sololá	704	Santa Lucía Utatlán 	7	Santa Rita 	9	Septiembre	2023-09-20T00:00:00	2024-11-08T04:00:00	6	Velocidad del viento	4.8
118350	7	Sololá	704	Santa Lucía Utatlán 	7	Santa Rita 	9	Septiembre	2023-09-20T00:00:00	2024-11-08T04:00:00	7	Dirección del viento	4.83
118351	7	Sololá	704	Santa Lucía Utatlán 	7	Santa Rita 	9	Septiembre	2023-09-20T00:00:00	2024-11-08T04:00:00	1	Precipitación	0
118352	7	Sololá	704	Santa Lucía Utatlán 	7	Santa Rita 	9	Septiembre	2023-09-20T00:00:00	2024-11-08T04:00:00	8	Radiación solar	0
118353	7	Sololá	704	Santa Lucía Utatlán 	7	Santa Rita 	9	Septiembre	2023-09-20T00:00:00	2024-11-08T05:00:00	2	Temperatura media	15.8
118354	7	Sololá	704	Santa Lucía Utatlán 	7	Santa Rita 	9	Septiembre	2023-09-20T00:00:00	2024-11-08T05:00:00	4	Temperatura máxima	16.1
118355	7	Sololá	704	Santa Lucía Utatlán 	7	Santa Rita 	9	Septiembre	2023-09-20T00:00:00	2024-11-08T05:00:00	3	Temperatura mínima	15.6
118356	7	Sololá	704	Santa Lucía Utatlán 	7	Santa Rita 	9	Septiembre	2023-09-20T00:00:00	2024-11-08T05:00:00	5	Humedad	84
118357	7	Sololá	704	Santa Lucía Utatlán 	7	Santa Rita 	9	Septiembre	2023-09-20T00:00:00	2024-11-08T05:00:00	6	Velocidad del viento	4.8
118358	7	Sololá	704	Santa Lucía Utatlán 	7	Santa Rita 	9	Septiembre	2023-09-20T00:00:00	2024-11-08T05:00:00	7	Dirección del viento	4.83
118359	7	Sololá	704	Santa Lucía Utatlán 	7	Santa Rita 	9	Septiembre	2023-09-20T00:00:00	2024-11-08T05:00:00	1	Precipitación	0
118360	7	Sololá	704	Santa Lucía Utatlán 	7	Santa Rita 	9	Septiembre	2023-09-20T00:00:00	2024-11-08T05:00:00	8	Radiación solar	0
118361	7	Sololá	704	Santa Lucía Utatlán 	7	Santa Rita 	9	Septiembre	2023-09-20T00:00:00	2024-11-08T06:00:00	2	Temperatura media	16.1
118362	7	Sololá	704	Santa Lucía Utatlán 	7	Santa Rita 	9	Septiembre	2023-09-20T00:00:00	2024-11-08T06:00:00	4	Temperatura máxima	16.1
118363	7	Sololá	704	Santa Lucía Utatlán 	7	Santa Rita 	9	Septiembre	2023-09-20T00:00:00	2024-11-08T06:00:00	3	Temperatura mínima	15.7
118364	7	Sololá	704	Santa Lucía Utatlán 	7	Santa Rita 	9	Septiembre	2023-09-20T00:00:00	2024-11-08T06:00:00	5	Humedad	85
118365	7	Sololá	704	Santa Lucía Utatlán 	7	Santa Rita 	9	Septiembre	2023-09-20T00:00:00	2024-11-08T06:00:00	6	Velocidad del viento	4.8
118366	7	Sololá	704	Santa Lucía Utatlán 	7	Santa Rita 	9	Septiembre	2023-09-20T00:00:00	2024-11-08T06:00:00	7	Dirección del viento	4.83
118367	7	Sololá	704	Santa Lucía Utatlán 	7	Santa Rita 	9	Septiembre	2023-09-20T00:00:00	2024-11-08T06:00:00	1	Precipitación	0
118368	7	Sololá	704	Santa Lucía Utatlán 	7	Santa Rita 	9	Septiembre	2023-09-20T00:00:00	2024-11-08T06:00:00	8	Radiación solar	7
118369	7	Sololá	704	Santa Lucía Utatlán 	7	Santa Rita 	9	Septiembre	2023-09-20T00:00:00	2024-11-08T07:00:00	2	Temperatura media	18.5
118370	7	Sololá	704	Santa Lucía Utatlán 	7	Santa Rita 	9	Septiembre	2023-09-20T00:00:00	2024-11-08T07:00:00	4	Temperatura máxima	18.5
118371	7	Sololá	704	Santa Lucía Utatlán 	7	Santa Rita 	9	Septiembre	2023-09-20T00:00:00	2024-11-08T07:00:00	3	Temperatura mínima	15.9
118372	7	Sololá	704	Santa Lucía Utatlán 	7	Santa Rita 	9	Septiembre	2023-09-20T00:00:00	2024-11-08T07:00:00	5	Humedad	82
118373	7	Sololá	704	Santa Lucía Utatlán 	7	Santa Rita 	9	Septiembre	2023-09-20T00:00:00	2024-11-08T07:00:00	6	Velocidad del viento	3.2
118374	7	Sololá	704	Santa Lucía Utatlán 	7	Santa Rita 	9	Septiembre	2023-09-20T00:00:00	2024-11-08T07:00:00	7	Dirección del viento	3.22
118375	7	Sololá	704	Santa Lucía Utatlán 	7	Santa Rita 	9	Septiembre	2023-09-20T00:00:00	2024-11-08T07:00:00	1	Precipitación	0
118376	7	Sololá	704	Santa Lucía Utatlán 	7	Santa Rita 	9	Septiembre	2023-09-20T00:00:00	2024-11-08T07:00:00	8	Radiación solar	128
118377	7	Sololá	704	Santa Lucía Utatlán 	7	Santa Rita 	9	Septiembre	2023-09-20T00:00:00	2024-11-08T08:00:00	2	Temperatura media	22.1
118378	7	Sololá	704	Santa Lucía Utatlán 	7	Santa Rita 	9	Septiembre	2023-09-20T00:00:00	2024-11-08T08:00:00	4	Temperatura máxima	22.1
118379	7	Sololá	704	Santa Lucía Utatlán 	7	Santa Rita 	9	Septiembre	2023-09-20T00:00:00	2024-11-08T08:00:00	3	Temperatura mínima	18.5
118380	7	Sololá	704	Santa Lucía Utatlán 	7	Santa Rita 	9	Septiembre	2023-09-20T00:00:00	2024-11-08T08:00:00	5	Humedad	72
118381	7	Sololá	704	Santa Lucía Utatlán 	7	Santa Rita 	9	Septiembre	2023-09-20T00:00:00	2024-11-08T08:00:00	6	Velocidad del viento	3.2
118382	7	Sololá	704	Santa Lucía Utatlán 	7	Santa Rita 	9	Septiembre	2023-09-20T00:00:00	2024-11-08T08:00:00	7	Dirección del viento	3.22
118383	7	Sololá	704	Santa Lucía Utatlán 	7	Santa Rita 	9	Septiembre	2023-09-20T00:00:00	2024-11-08T08:00:00	1	Precipitación	0
118384	7	Sololá	704	Santa Lucía Utatlán 	7	Santa Rita 	9	Septiembre	2023-09-20T00:00:00	2024-11-08T08:00:00	8	Radiación solar	391
118385	7	Sololá	704	Santa Lucía Utatlán 	7	Santa Rita 	9	Septiembre	2023-09-20T00:00:00	2024-11-08T09:00:00	2	Temperatura media	24.6
118386	7	Sololá	704	Santa Lucía Utatlán 	7	Santa Rita 	9	Septiembre	2023-09-20T00:00:00	2024-11-08T09:00:00	4	Temperatura máxima	24.6
118387	7	Sololá	704	Santa Lucía Utatlán 	7	Santa Rita 	9	Septiembre	2023-09-20T00:00:00	2024-11-08T09:00:00	3	Temperatura mínima	22.2
118388	7	Sololá	704	Santa Lucía Utatlán 	7	Santa Rita 	9	Septiembre	2023-09-20T00:00:00	2024-11-08T09:00:00	5	Humedad	61
118389	7	Sololá	704	Santa Lucía Utatlán 	7	Santa Rita 	9	Septiembre	2023-09-20T00:00:00	2024-11-08T09:00:00	6	Velocidad del viento	4.8
118390	7	Sololá	704	Santa Lucía Utatlán 	7	Santa Rita 	9	Septiembre	2023-09-20T00:00:00	2024-11-08T09:00:00	7	Dirección del viento	4.83
118391	7	Sololá	704	Santa Lucía Utatlán 	7	Santa Rita 	9	Septiembre	2023-09-20T00:00:00	2024-11-08T09:00:00	1	Precipitación	0
118392	7	Sololá	704	Santa Lucía Utatlán 	7	Santa Rita 	9	Septiembre	2023-09-20T00:00:00	2024-11-08T09:00:00	8	Radiación solar	663
118393	7	Sololá	704	Santa Lucía Utatlán 	7	Santa Rita 	9	Septiembre	2023-09-20T00:00:00	2024-11-08T10:00:00	2	Temperatura media	25.8
118394	7	Sololá	704	Santa Lucía Utatlán 	7	Santa Rita 	9	Septiembre	2023-09-20T00:00:00	2024-11-08T10:00:00	4	Temperatura máxima	25.9
118395	7	Sololá	704	Santa Lucía Utatlán 	7	Santa Rita 	9	Septiembre	2023-09-20T00:00:00	2024-11-08T10:00:00	3	Temperatura mínima	24.6
118396	7	Sololá	704	Santa Lucía Utatlán 	7	Santa Rita 	9	Septiembre	2023-09-20T00:00:00	2024-11-08T10:00:00	5	Humedad	56
118397	7	Sololá	704	Santa Lucía Utatlán 	7	Santa Rita 	9	Septiembre	2023-09-20T00:00:00	2024-11-08T10:00:00	6	Velocidad del viento	8
118398	7	Sololá	704	Santa Lucía Utatlán 	7	Santa Rita 	9	Septiembre	2023-09-20T00:00:00	2024-11-08T10:00:00	7	Dirección del viento	8.05
118399	7	Sololá	704	Santa Lucía Utatlán 	7	Santa Rita 	9	Septiembre	2023-09-20T00:00:00	2024-11-08T10:00:00	1	Precipitación	0
118400	7	Sololá	704	Santa Lucía Utatlán 	7	Santa Rita 	9	Septiembre	2023-09-20T00:00:00	2024-11-08T10:00:00	8	Radiación solar	869
118401	7	Sololá	704	Santa Lucía Utatlán 	7	Santa Rita 	9	Septiembre	2023-09-20T00:00:00	2024-11-08T11:00:00	2	Temperatura media	25.4
118402	7	Sololá	704	Santa Lucía Utatlán 	7	Santa Rita 	9	Septiembre	2023-09-20T00:00:00	2024-11-08T11:00:00	4	Temperatura máxima	25.8
118403	7	Sololá	704	Santa Lucía Utatlán 	7	Santa Rita 	9	Septiembre	2023-09-20T00:00:00	2024-11-08T11:00:00	3	Temperatura mínima	24.7
118404	7	Sololá	704	Santa Lucía Utatlán 	7	Santa Rita 	9	Septiembre	2023-09-20T00:00:00	2024-11-08T11:00:00	5	Humedad	55
118405	7	Sololá	704	Santa Lucía Utatlán 	7	Santa Rita 	9	Septiembre	2023-09-20T00:00:00	2024-11-08T11:00:00	6	Velocidad del viento	9.7
118406	7	Sololá	704	Santa Lucía Utatlán 	7	Santa Rita 	9	Septiembre	2023-09-20T00:00:00	2024-11-08T11:00:00	7	Dirección del viento	9.66
118407	7	Sololá	704	Santa Lucía Utatlán 	7	Santa Rita 	9	Septiembre	2023-09-20T00:00:00	2024-11-08T11:00:00	1	Precipitación	0
118408	7	Sololá	704	Santa Lucía Utatlán 	7	Santa Rita 	9	Septiembre	2023-09-20T00:00:00	2024-11-08T11:00:00	8	Radiación solar	665
118409	7	Sololá	704	Santa Lucía Utatlán 	7	Santa Rita 	9	Septiembre	2023-09-20T00:00:00	2024-11-08T12:00:00	2	Temperatura media	25.8
118410	7	Sololá	704	Santa Lucía Utatlán 	7	Santa Rita 	9	Septiembre	2023-09-20T00:00:00	2024-11-08T12:00:00	4	Temperatura máxima	25.8
118411	7	Sololá	704	Santa Lucía Utatlán 	7	Santa Rita 	9	Septiembre	2023-09-20T00:00:00	2024-11-08T12:00:00	3	Temperatura mínima	25.1
118412	7	Sololá	704	Santa Lucía Utatlán 	7	Santa Rita 	9	Septiembre	2023-09-20T00:00:00	2024-11-08T12:00:00	5	Humedad	57
118413	7	Sololá	704	Santa Lucía Utatlán 	7	Santa Rita 	9	Septiembre	2023-09-20T00:00:00	2024-11-08T12:00:00	6	Velocidad del viento	9.7
118414	7	Sololá	704	Santa Lucía Utatlán 	7	Santa Rita 	9	Septiembre	2023-09-20T00:00:00	2024-11-08T12:00:00	7	Dirección del viento	9.66
118415	7	Sololá	704	Santa Lucía Utatlán 	7	Santa Rita 	9	Septiembre	2023-09-20T00:00:00	2024-11-08T12:00:00	1	Precipitación	0
118416	7	Sololá	704	Santa Lucía Utatlán 	7	Santa Rita 	9	Septiembre	2023-09-20T00:00:00	2024-11-08T12:00:00	8	Radiación solar	684
118417	7	Sololá	704	Santa Lucía Utatlán 	7	Santa Rita 	9	Septiembre	2023-09-20T00:00:00	2024-11-08T13:00:00	2	Temperatura media	25.8
118418	7	Sololá	704	Santa Lucía Utatlán 	7	Santa Rita 	9	Septiembre	2023-09-20T00:00:00	2024-11-08T13:00:00	4	Temperatura máxima	25.9
118419	7	Sololá	704	Santa Lucía Utatlán 	7	Santa Rita 	9	Septiembre	2023-09-20T00:00:00	2024-11-08T13:00:00	3	Temperatura mínima	24.6
118420	7	Sololá	704	Santa Lucía Utatlán 	7	Santa Rita 	9	Septiembre	2023-09-20T00:00:00	2024-11-08T13:00:00	5	Humedad	57
118421	7	Sololá	704	Santa Lucía Utatlán 	7	Santa Rita 	9	Septiembre	2023-09-20T00:00:00	2024-11-08T13:00:00	6	Velocidad del viento	11.3
118422	7	Sololá	704	Santa Lucía Utatlán 	7	Santa Rita 	9	Septiembre	2023-09-20T00:00:00	2024-11-08T13:00:00	7	Dirección del viento	11.27
118423	7	Sololá	704	Santa Lucía Utatlán 	7	Santa Rita 	9	Septiembre	2023-09-20T00:00:00	2024-11-08T13:00:00	1	Precipitación	0
118424	7	Sololá	704	Santa Lucía Utatlán 	7	Santa Rita 	9	Septiembre	2023-09-20T00:00:00	2024-11-08T13:00:00	8	Radiación solar	737
118425	7	Sololá	704	Santa Lucía Utatlán 	7	Santa Rita 	9	Septiembre	2023-09-20T00:00:00	2024-11-08T14:00:00	2	Temperatura media	24.8
118426	7	Sololá	704	Santa Lucía Utatlán 	7	Santa Rita 	9	Septiembre	2023-09-20T00:00:00	2024-11-08T14:00:00	4	Temperatura máxima	26
118427	7	Sololá	704	Santa Lucía Utatlán 	7	Santa Rita 	9	Septiembre	2023-09-20T00:00:00	2024-11-08T14:00:00	3	Temperatura mínima	24.7
118428	7	Sololá	704	Santa Lucía Utatlán 	7	Santa Rita 	9	Septiembre	2023-09-20T00:00:00	2024-11-08T14:00:00	5	Humedad	64
118429	7	Sololá	704	Santa Lucía Utatlán 	7	Santa Rita 	9	Septiembre	2023-09-20T00:00:00	2024-11-08T14:00:00	6	Velocidad del viento	8
118430	7	Sololá	704	Santa Lucía Utatlán 	7	Santa Rita 	9	Septiembre	2023-09-20T00:00:00	2024-11-08T14:00:00	7	Dirección del viento	8.05
118431	7	Sololá	704	Santa Lucía Utatlán 	7	Santa Rita 	9	Septiembre	2023-09-20T00:00:00	2024-11-08T14:00:00	1	Precipitación	0
118432	7	Sololá	704	Santa Lucía Utatlán 	7	Santa Rita 	9	Septiembre	2023-09-20T00:00:00	2024-11-08T14:00:00	8	Radiación solar	694
118433	7	Sololá	704	Santa Lucía Utatlán 	7	Santa Rita 	9	Septiembre	2023-09-20T00:00:00	2024-11-08T15:00:00	2	Temperatura media	23.8
118434	7	Sololá	704	Santa Lucía Utatlán 	7	Santa Rita 	9	Septiembre	2023-09-20T00:00:00	2024-11-08T15:00:00	4	Temperatura máxima	24.8
118435	7	Sololá	704	Santa Lucía Utatlán 	7	Santa Rita 	9	Septiembre	2023-09-20T00:00:00	2024-11-08T15:00:00	3	Temperatura mínima	23.4
118436	7	Sololá	704	Santa Lucía Utatlán 	7	Santa Rita 	9	Septiembre	2023-09-20T00:00:00	2024-11-08T15:00:00	5	Humedad	69
118437	7	Sololá	704	Santa Lucía Utatlán 	7	Santa Rita 	9	Septiembre	2023-09-20T00:00:00	2024-11-08T15:00:00	6	Velocidad del viento	6.4
118438	7	Sololá	704	Santa Lucía Utatlán 	7	Santa Rita 	9	Septiembre	2023-09-20T00:00:00	2024-11-08T15:00:00	7	Dirección del viento	6.44
118439	7	Sololá	704	Santa Lucía Utatlán 	7	Santa Rita 	9	Septiembre	2023-09-20T00:00:00	2024-11-08T15:00:00	1	Precipitación	0
118440	7	Sololá	704	Santa Lucía Utatlán 	7	Santa Rita 	9	Septiembre	2023-09-20T00:00:00	2024-11-08T15:00:00	8	Radiación solar	264
118441	7	Sololá	704	Santa Lucía Utatlán 	7	Santa Rita 	9	Septiembre	2023-09-20T00:00:00	2024-11-08T16:00:00	2	Temperatura media	22.2
118442	7	Sololá	704	Santa Lucía Utatlán 	7	Santa Rita 	9	Septiembre	2023-09-20T00:00:00	2024-11-08T16:00:00	4	Temperatura máxima	24
118443	7	Sololá	704	Santa Lucía Utatlán 	7	Santa Rita 	9	Septiembre	2023-09-20T00:00:00	2024-11-08T16:00:00	3	Temperatura mínima	22.2
118444	7	Sololá	704	Santa Lucía Utatlán 	7	Santa Rita 	9	Septiembre	2023-09-20T00:00:00	2024-11-08T16:00:00	5	Humedad	85
118445	7	Sololá	704	Santa Lucía Utatlán 	7	Santa Rita 	9	Septiembre	2023-09-20T00:00:00	2024-11-08T16:00:00	6	Velocidad del viento	6.4
118446	7	Sololá	704	Santa Lucía Utatlán 	7	Santa Rita 	9	Septiembre	2023-09-20T00:00:00	2024-11-08T16:00:00	7	Dirección del viento	6.44
118447	7	Sololá	704	Santa Lucía Utatlán 	7	Santa Rita 	9	Septiembre	2023-09-20T00:00:00	2024-11-08T16:00:00	1	Precipitación	0
118448	7	Sololá	704	Santa Lucía Utatlán 	7	Santa Rita 	9	Septiembre	2023-09-20T00:00:00	2024-11-08T16:00:00	8	Radiación solar	175
118449	7	Sololá	704	Santa Lucía Utatlán 	7	Santa Rita 	9	Septiembre	2023-09-20T00:00:00	2024-11-08T17:00:00	2	Temperatura media	21.4
118450	7	Sololá	704	Santa Lucía Utatlán 	7	Santa Rita 	9	Septiembre	2023-09-20T00:00:00	2024-11-08T17:00:00	4	Temperatura máxima	22.4
118451	7	Sololá	704	Santa Lucía Utatlán 	7	Santa Rita 	9	Septiembre	2023-09-20T00:00:00	2024-11-08T17:00:00	3	Temperatura mínima	21.4
118452	7	Sololá	704	Santa Lucía Utatlán 	7	Santa Rita 	9	Septiembre	2023-09-20T00:00:00	2024-11-08T17:00:00	5	Humedad	89
118453	7	Sololá	704	Santa Lucía Utatlán 	7	Santa Rita 	9	Septiembre	2023-09-20T00:00:00	2024-11-08T17:00:00	6	Velocidad del viento	3.2
118454	7	Sololá	704	Santa Lucía Utatlán 	7	Santa Rita 	9	Septiembre	2023-09-20T00:00:00	2024-11-08T17:00:00	7	Dirección del viento	3.22
118455	7	Sololá	704	Santa Lucía Utatlán 	7	Santa Rita 	9	Septiembre	2023-09-20T00:00:00	2024-11-08T17:00:00	1	Precipitación	0
118456	7	Sololá	704	Santa Lucía Utatlán 	7	Santa Rita 	9	Septiembre	2023-09-20T00:00:00	2024-11-08T17:00:00	8	Radiación solar	82
118457	7	Sololá	704	Santa Lucía Utatlán 	7	Santa Rita 	9	Septiembre	2023-09-20T00:00:00	2024-11-08T18:00:00	2	Temperatura media	20.2
118458	7	Sololá	704	Santa Lucía Utatlán 	7	Santa Rita 	9	Septiembre	2023-09-20T00:00:00	2024-11-08T18:00:00	4	Temperatura máxima	21.4
118459	7	Sololá	704	Santa Lucía Utatlán 	7	Santa Rita 	9	Septiembre	2023-09-20T00:00:00	2024-11-08T18:00:00	3	Temperatura mínima	20.2
118460	7	Sololá	704	Santa Lucía Utatlán 	7	Santa Rita 	9	Septiembre	2023-09-20T00:00:00	2024-11-08T18:00:00	5	Humedad	89
118461	7	Sololá	704	Santa Lucía Utatlán 	7	Santa Rita 	9	Septiembre	2023-09-20T00:00:00	2024-11-08T18:00:00	6	Velocidad del viento	1.6
118462	7	Sololá	704	Santa Lucía Utatlán 	7	Santa Rita 	9	Septiembre	2023-09-20T00:00:00	2024-11-08T18:00:00	7	Dirección del viento	1.61
118463	7	Sololá	704	Santa Lucía Utatlán 	7	Santa Rita 	9	Septiembre	2023-09-20T00:00:00	2024-11-08T18:00:00	1	Precipitación	0
118464	7	Sololá	704	Santa Lucía Utatlán 	7	Santa Rita 	9	Septiembre	2023-09-20T00:00:00	2024-11-08T18:00:00	8	Radiación solar	13
118465	7	Sololá	704	Santa Lucía Utatlán 	7	Santa Rita 	9	Septiembre	2023-09-20T00:00:00	2024-11-08T19:00:00	2	Temperatura media	18.3
118466	7	Sololá	704	Santa Lucía Utatlán 	7	Santa Rita 	9	Septiembre	2023-09-20T00:00:00	2024-11-08T19:00:00	4	Temperatura máxima	20.2
118467	7	Sololá	704	Santa Lucía Utatlán 	7	Santa Rita 	9	Septiembre	2023-09-20T00:00:00	2024-11-08T19:00:00	3	Temperatura mínima	18.2
118468	7	Sololá	704	Santa Lucía Utatlán 	7	Santa Rita 	9	Septiembre	2023-09-20T00:00:00	2024-11-08T19:00:00	5	Humedad	88
118469	7	Sololá	704	Santa Lucía Utatlán 	7	Santa Rita 	9	Septiembre	2023-09-20T00:00:00	2024-11-08T19:00:00	6	Velocidad del viento	3.2
118470	7	Sololá	704	Santa Lucía Utatlán 	7	Santa Rita 	9	Septiembre	2023-09-20T00:00:00	2024-11-08T19:00:00	7	Dirección del viento	3.22
118471	7	Sololá	704	Santa Lucía Utatlán 	7	Santa Rita 	9	Septiembre	2023-09-20T00:00:00	2024-11-08T19:00:00	1	Precipitación	0
118472	7	Sololá	704	Santa Lucía Utatlán 	7	Santa Rita 	9	Septiembre	2023-09-20T00:00:00	2024-11-08T19:00:00	8	Radiación solar	0
118473	7	Sololá	704	Santa Lucía Utatlán 	7	Santa Rita 	9	Septiembre	2023-09-20T00:00:00	2024-11-08T20:00:00	2	Temperatura media	18.9
118474	7	Sololá	704	Santa Lucía Utatlán 	7	Santa Rita 	9	Septiembre	2023-09-20T00:00:00	2024-11-08T20:00:00	4	Temperatura máxima	18.9
118475	7	Sololá	704	Santa Lucía Utatlán 	7	Santa Rita 	9	Septiembre	2023-09-20T00:00:00	2024-11-08T20:00:00	3	Temperatura mínima	18.2
118476	7	Sololá	704	Santa Lucía Utatlán 	7	Santa Rita 	9	Septiembre	2023-09-20T00:00:00	2024-11-08T20:00:00	5	Humedad	90
118477	7	Sololá	704	Santa Lucía Utatlán 	7	Santa Rita 	9	Septiembre	2023-09-20T00:00:00	2024-11-08T20:00:00	6	Velocidad del viento	1.6
118478	7	Sololá	704	Santa Lucía Utatlán 	7	Santa Rita 	9	Septiembre	2023-09-20T00:00:00	2024-11-08T20:00:00	7	Dirección del viento	1.61
118479	7	Sololá	704	Santa Lucía Utatlán 	7	Santa Rita 	9	Septiembre	2023-09-20T00:00:00	2024-11-08T20:00:00	1	Precipitación	0
118480	7	Sololá	704	Santa Lucía Utatlán 	7	Santa Rita 	9	Septiembre	2023-09-20T00:00:00	2024-11-08T20:00:00	8	Radiación solar	0
118481	7	Sololá	704	Santa Lucía Utatlán 	7	Santa Rita 	9	Septiembre	2023-09-20T00:00:00	2024-11-08T21:00:00	2	Temperatura media	18.7
118482	7	Sololá	704	Santa Lucía Utatlán 	7	Santa Rita 	9	Septiembre	2023-09-20T00:00:00	2024-11-08T21:00:00	4	Temperatura máxima	19.1
118483	7	Sololá	704	Santa Lucía Utatlán 	7	Santa Rita 	9	Septiembre	2023-09-20T00:00:00	2024-11-08T21:00:00	3	Temperatura mínima	18.7
118484	7	Sololá	704	Santa Lucía Utatlán 	7	Santa Rita 	9	Septiembre	2023-09-20T00:00:00	2024-11-08T21:00:00	5	Humedad	91
118485	7	Sololá	704	Santa Lucía Utatlán 	7	Santa Rita 	9	Septiembre	2023-09-20T00:00:00	2024-11-08T21:00:00	6	Velocidad del viento	1.6
118486	7	Sololá	704	Santa Lucía Utatlán 	7	Santa Rita 	9	Septiembre	2023-09-20T00:00:00	2024-11-08T21:00:00	7	Dirección del viento	1.61
118487	7	Sololá	704	Santa Lucía Utatlán 	7	Santa Rita 	9	Septiembre	2023-09-20T00:00:00	2024-11-08T21:00:00	1	Precipitación	0
118488	7	Sololá	704	Santa Lucía Utatlán 	7	Santa Rita 	9	Septiembre	2023-09-20T00:00:00	2024-11-08T21:00:00	8	Radiación solar	0
118489	7	Sololá	704	Santa Lucía Utatlán 	7	Santa Rita 	9	Septiembre	2023-09-20T00:00:00	2024-11-08T22:00:00	2	Temperatura media	18.7
118490	7	Sololá	704	Santa Lucía Utatlán 	7	Santa Rita 	9	Septiembre	2023-09-20T00:00:00	2024-11-08T22:00:00	4	Temperatura máxima	19.3
118491	7	Sololá	704	Santa Lucía Utatlán 	7	Santa Rita 	9	Septiembre	2023-09-20T00:00:00	2024-11-08T22:00:00	3	Temperatura mínima	18.7
118492	7	Sololá	704	Santa Lucía Utatlán 	7	Santa Rita 	9	Septiembre	2023-09-20T00:00:00	2024-11-08T22:00:00	5	Humedad	92
118493	7	Sololá	704	Santa Lucía Utatlán 	7	Santa Rita 	9	Septiembre	2023-09-20T00:00:00	2024-11-08T22:00:00	6	Velocidad del viento	3.2
118494	7	Sololá	704	Santa Lucía Utatlán 	7	Santa Rita 	9	Septiembre	2023-09-20T00:00:00	2024-11-08T22:00:00	7	Dirección del viento	3.22
118495	7	Sololá	704	Santa Lucía Utatlán 	7	Santa Rita 	9	Septiembre	2023-09-20T00:00:00	2024-11-08T22:00:00	1	Precipitación	0
118496	7	Sololá	704	Santa Lucía Utatlán 	7	Santa Rita 	9	Septiembre	2023-09-20T00:00:00	2024-11-08T22:00:00	8	Radiación solar	0
118497	7	Sololá	704	Santa Lucía Utatlán 	7	Santa Rita 	9	Septiembre	2023-09-20T00:00:00	2024-11-08T23:00:00	2	Temperatura media	19.1
118498	7	Sololá	704	Santa Lucía Utatlán 	7	Santa Rita 	9	Septiembre	2023-09-20T00:00:00	2024-11-08T23:00:00	4	Temperatura máxima	19.1
118499	7	Sololá	704	Santa Lucía Utatlán 	7	Santa Rita 	9	Septiembre	2023-09-20T00:00:00	2024-11-08T23:00:00	3	Temperatura mínima	18.7
118500	7	Sololá	704	Santa Lucía Utatlán 	7	Santa Rita 	9	Septiembre	2023-09-20T00:00:00	2024-11-08T23:00:00	5	Humedad	91
118501	7	Sololá	704	Santa Lucía Utatlán 	7	Santa Rita 	9	Septiembre	2023-09-20T00:00:00	2024-11-08T23:00:00	6	Velocidad del viento	1.6
118502	7	Sololá	704	Santa Lucía Utatlán 	7	Santa Rita 	9	Septiembre	2023-09-20T00:00:00	2024-11-08T23:00:00	7	Dirección del viento	1.61
118503	7	Sololá	704	Santa Lucía Utatlán 	7	Santa Rita 	9	Septiembre	2023-09-20T00:00:00	2024-11-08T23:00:00	1	Precipitación	0
118504	7	Sololá	704	Santa Lucía Utatlán 	7	Santa Rita 	9	Septiembre	2023-09-20T00:00:00	2024-11-08T23:00:00	8	Radiación solar	0
118505	7	Sololá	704	Santa Lucía Utatlán 	7	Santa Rita 	9	Septiembre	2023-09-21T00:00:00	2024-11-08T00:00:00	2	Temperatura media	18.8
118506	7	Sololá	704	Santa Lucía Utatlán 	7	Santa Rita 	9	Septiembre	2023-09-21T00:00:00	2024-11-08T00:00:00	4	Temperatura máxima	19.1
118507	7	Sololá	704	Santa Lucía Utatlán 	7	Santa Rita 	9	Septiembre	2023-09-21T00:00:00	2024-11-08T00:00:00	3	Temperatura mínima	18.3
118508	7	Sololá	704	Santa Lucía Utatlán 	7	Santa Rita 	9	Septiembre	2023-09-21T00:00:00	2024-11-08T00:00:00	5	Humedad	90
118509	7	Sololá	704	Santa Lucía Utatlán 	7	Santa Rita 	9	Septiembre	2023-09-21T00:00:00	2024-11-08T00:00:00	6	Velocidad del viento	1.6
118510	7	Sololá	704	Santa Lucía Utatlán 	7	Santa Rita 	9	Septiembre	2023-09-21T00:00:00	2024-11-08T00:00:00	7	Dirección del viento	1.61
118511	7	Sololá	704	Santa Lucía Utatlán 	7	Santa Rita 	9	Septiembre	2023-09-21T00:00:00	2024-11-08T00:00:00	1	Precipitación	0
118512	7	Sololá	704	Santa Lucía Utatlán 	7	Santa Rita 	9	Septiembre	2023-09-21T00:00:00	2024-11-08T00:00:00	8	Radiación solar	0
118513	7	Sololá	704	Santa Lucía Utatlán 	7	Santa Rita 	9	Septiembre	2023-09-21T00:00:00	2024-11-08T01:00:00	2	Temperatura media	18.3
118514	7	Sololá	704	Santa Lucía Utatlán 	7	Santa Rita 	9	Septiembre	2023-09-21T00:00:00	2024-11-08T01:00:00	4	Temperatura máxima	19.3
118515	7	Sololá	704	Santa Lucía Utatlán 	7	Santa Rita 	9	Septiembre	2023-09-21T00:00:00	2024-11-08T01:00:00	3	Temperatura mínima	18.3
118516	7	Sololá	704	Santa Lucía Utatlán 	7	Santa Rita 	9	Septiembre	2023-09-21T00:00:00	2024-11-08T01:00:00	5	Humedad	92
118517	7	Sololá	704	Santa Lucía Utatlán 	7	Santa Rita 	9	Septiembre	2023-09-21T00:00:00	2024-11-08T01:00:00	6	Velocidad del viento	1.6
118518	7	Sololá	704	Santa Lucía Utatlán 	7	Santa Rita 	9	Septiembre	2023-09-21T00:00:00	2024-11-08T01:00:00	7	Dirección del viento	1.61
118519	7	Sololá	704	Santa Lucía Utatlán 	7	Santa Rita 	9	Septiembre	2023-09-21T00:00:00	2024-11-08T01:00:00	1	Precipitación	0
118520	7	Sololá	704	Santa Lucía Utatlán 	7	Santa Rita 	9	Septiembre	2023-09-21T00:00:00	2024-11-08T01:00:00	8	Radiación solar	0
118521	7	Sololá	704	Santa Lucía Utatlán 	7	Santa Rita 	9	Septiembre	2023-09-21T00:00:00	2024-11-08T02:00:00	2	Temperatura media	17.2
118522	7	Sololá	704	Santa Lucía Utatlán 	7	Santa Rita 	9	Septiembre	2023-09-21T00:00:00	2024-11-08T02:00:00	4	Temperatura máxima	18.3
118523	7	Sololá	704	Santa Lucía Utatlán 	7	Santa Rita 	9	Septiembre	2023-09-21T00:00:00	2024-11-08T02:00:00	3	Temperatura mínima	17.2
118524	7	Sololá	704	Santa Lucía Utatlán 	7	Santa Rita 	9	Septiembre	2023-09-21T00:00:00	2024-11-08T02:00:00	5	Humedad	93
118525	7	Sololá	704	Santa Lucía Utatlán 	7	Santa Rita 	9	Septiembre	2023-09-21T00:00:00	2024-11-08T02:00:00	6	Velocidad del viento	3.2
118526	7	Sololá	704	Santa Lucía Utatlán 	7	Santa Rita 	9	Septiembre	2023-09-21T00:00:00	2024-11-08T02:00:00	7	Dirección del viento	3.22
118527	7	Sololá	704	Santa Lucía Utatlán 	7	Santa Rita 	9	Septiembre	2023-09-21T00:00:00	2024-11-08T02:00:00	1	Precipitación	0
118528	7	Sololá	704	Santa Lucía Utatlán 	7	Santa Rita 	9	Septiembre	2023-09-21T00:00:00	2024-11-08T02:00:00	8	Radiación solar	0
118529	7	Sololá	704	Santa Lucía Utatlán 	7	Santa Rita 	9	Septiembre	2023-09-21T00:00:00	2024-11-08T03:00:00	2	Temperatura media	16.8
118530	7	Sololá	704	Santa Lucía Utatlán 	7	Santa Rita 	9	Septiembre	2023-09-21T00:00:00	2024-11-08T03:00:00	4	Temperatura máxima	17.2
118531	7	Sololá	704	Santa Lucía Utatlán 	7	Santa Rita 	9	Septiembre	2023-09-21T00:00:00	2024-11-08T03:00:00	3	Temperatura mínima	16.7
118532	7	Sololá	704	Santa Lucía Utatlán 	7	Santa Rita 	9	Septiembre	2023-09-21T00:00:00	2024-11-08T03:00:00	5	Humedad	94
118533	7	Sololá	704	Santa Lucía Utatlán 	7	Santa Rita 	9	Septiembre	2023-09-21T00:00:00	2024-11-08T03:00:00	6	Velocidad del viento	1.6
118534	7	Sololá	704	Santa Lucía Utatlán 	7	Santa Rita 	9	Septiembre	2023-09-21T00:00:00	2024-11-08T03:00:00	7	Dirección del viento	1.61
118535	7	Sololá	704	Santa Lucía Utatlán 	7	Santa Rita 	9	Septiembre	2023-09-21T00:00:00	2024-11-08T03:00:00	1	Precipitación	0
118536	7	Sololá	704	Santa Lucía Utatlán 	7	Santa Rita 	9	Septiembre	2023-09-21T00:00:00	2024-11-08T03:00:00	8	Radiación solar	0
118537	7	Sololá	704	Santa Lucía Utatlán 	7	Santa Rita 	9	Septiembre	2023-09-21T00:00:00	2024-11-08T04:00:00	2	Temperatura media	16.6
118538	7	Sololá	704	Santa Lucía Utatlán 	7	Santa Rita 	9	Septiembre	2023-09-21T00:00:00	2024-11-08T04:00:00	4	Temperatura máxima	16.9
118539	7	Sololá	704	Santa Lucía Utatlán 	7	Santa Rita 	9	Septiembre	2023-09-21T00:00:00	2024-11-08T04:00:00	3	Temperatura mínima	16.4
118540	7	Sololá	704	Santa Lucía Utatlán 	7	Santa Rita 	9	Septiembre	2023-09-21T00:00:00	2024-11-08T04:00:00	5	Humedad	92
118541	7	Sololá	704	Santa Lucía Utatlán 	7	Santa Rita 	9	Septiembre	2023-09-21T00:00:00	2024-11-08T04:00:00	6	Velocidad del viento	3.2
118542	7	Sololá	704	Santa Lucía Utatlán 	7	Santa Rita 	9	Septiembre	2023-09-21T00:00:00	2024-11-08T04:00:00	7	Dirección del viento	3.22
118543	7	Sololá	704	Santa Lucía Utatlán 	7	Santa Rita 	9	Septiembre	2023-09-21T00:00:00	2024-11-08T04:00:00	1	Precipitación	0
118544	7	Sololá	704	Santa Lucía Utatlán 	7	Santa Rita 	9	Septiembre	2023-09-21T00:00:00	2024-11-08T04:00:00	8	Radiación solar	0
118545	7	Sololá	704	Santa Lucía Utatlán 	7	Santa Rita 	9	Septiembre	2023-09-21T00:00:00	2024-11-08T05:00:00	2	Temperatura media	16.3
118546	7	Sololá	704	Santa Lucía Utatlán 	7	Santa Rita 	9	Septiembre	2023-09-21T00:00:00	2024-11-08T05:00:00	4	Temperatura máxima	16.7
118547	7	Sololá	704	Santa Lucía Utatlán 	7	Santa Rita 	9	Septiembre	2023-09-21T00:00:00	2024-11-08T05:00:00	3	Temperatura mínima	16.1
118548	7	Sololá	704	Santa Lucía Utatlán 	7	Santa Rita 	9	Septiembre	2023-09-21T00:00:00	2024-11-08T05:00:00	5	Humedad	87
118549	7	Sololá	704	Santa Lucía Utatlán 	7	Santa Rita 	9	Septiembre	2023-09-21T00:00:00	2024-11-08T05:00:00	6	Velocidad del viento	4.8
118550	7	Sololá	704	Santa Lucía Utatlán 	7	Santa Rita 	9	Septiembre	2023-09-21T00:00:00	2024-11-08T05:00:00	7	Dirección del viento	4.83
118551	7	Sololá	704	Santa Lucía Utatlán 	7	Santa Rita 	9	Septiembre	2023-09-21T00:00:00	2024-11-08T05:00:00	1	Precipitación	0
118552	7	Sololá	704	Santa Lucía Utatlán 	7	Santa Rita 	9	Septiembre	2023-09-21T00:00:00	2024-11-08T05:00:00	8	Radiación solar	0
118553	7	Sololá	704	Santa Lucía Utatlán 	7	Santa Rita 	9	Septiembre	2023-09-21T00:00:00	2024-11-08T06:00:00	2	Temperatura media	19.2
118554	7	Sololá	704	Santa Lucía Utatlán 	7	Santa Rita 	9	Septiembre	2023-09-21T00:00:00	2024-11-08T06:00:00	4	Temperatura máxima	19.2
118555	7	Sololá	704	Santa Lucía Utatlán 	7	Santa Rita 	9	Septiembre	2023-09-21T00:00:00	2024-11-08T06:00:00	3	Temperatura mínima	16.1
118556	7	Sololá	704	Santa Lucía Utatlán 	7	Santa Rita 	9	Septiembre	2023-09-21T00:00:00	2024-11-08T06:00:00	5	Humedad	72
118557	7	Sololá	704	Santa Lucía Utatlán 	7	Santa Rita 	9	Septiembre	2023-09-21T00:00:00	2024-11-08T06:00:00	6	Velocidad del viento	4.8
118558	7	Sololá	704	Santa Lucía Utatlán 	7	Santa Rita 	9	Septiembre	2023-09-21T00:00:00	2024-11-08T06:00:00	7	Dirección del viento	4.83
118559	7	Sololá	704	Santa Lucía Utatlán 	7	Santa Rita 	9	Septiembre	2023-09-21T00:00:00	2024-11-08T06:00:00	1	Precipitación	0
118560	7	Sololá	704	Santa Lucía Utatlán 	7	Santa Rita 	9	Septiembre	2023-09-21T00:00:00	2024-11-08T06:00:00	8	Radiación solar	6
118561	7	Sololá	704	Santa Lucía Utatlán 	7	Santa Rita 	9	Septiembre	2023-09-21T00:00:00	2024-11-08T07:00:00	2	Temperatura media	19.8
118562	7	Sololá	704	Santa Lucía Utatlán 	7	Santa Rita 	9	Septiembre	2023-09-21T00:00:00	2024-11-08T07:00:00	4	Temperatura máxima	20.3
118563	7	Sololá	704	Santa Lucía Utatlán 	7	Santa Rita 	9	Septiembre	2023-09-21T00:00:00	2024-11-08T07:00:00	3	Temperatura mínima	18.7
118564	7	Sololá	704	Santa Lucía Utatlán 	7	Santa Rita 	9	Septiembre	2023-09-21T00:00:00	2024-11-08T07:00:00	5	Humedad	73
118565	7	Sololá	704	Santa Lucía Utatlán 	7	Santa Rita 	9	Septiembre	2023-09-21T00:00:00	2024-11-08T07:00:00	6	Velocidad del viento	4.8
118566	7	Sololá	704	Santa Lucía Utatlán 	7	Santa Rita 	9	Septiembre	2023-09-21T00:00:00	2024-11-08T07:00:00	7	Dirección del viento	4.83
118567	7	Sololá	704	Santa Lucía Utatlán 	7	Santa Rita 	9	Septiembre	2023-09-21T00:00:00	2024-11-08T07:00:00	1	Precipitación	0
118568	7	Sololá	704	Santa Lucía Utatlán 	7	Santa Rita 	9	Septiembre	2023-09-21T00:00:00	2024-11-08T07:00:00	8	Radiación solar	97
118569	7	Sololá	704	Santa Lucía Utatlán 	7	Santa Rita 	9	Septiembre	2023-09-21T00:00:00	2024-11-08T08:00:00	2	Temperatura media	23.1
118570	7	Sololá	704	Santa Lucía Utatlán 	7	Santa Rita 	9	Septiembre	2023-09-21T00:00:00	2024-11-08T08:00:00	4	Temperatura máxima	23.1
118571	7	Sololá	704	Santa Lucía Utatlán 	7	Santa Rita 	9	Septiembre	2023-09-21T00:00:00	2024-11-08T08:00:00	3	Temperatura mínima	19.7
118572	7	Sololá	704	Santa Lucía Utatlán 	7	Santa Rita 	9	Septiembre	2023-09-21T00:00:00	2024-11-08T08:00:00	5	Humedad	69
118573	7	Sololá	704	Santa Lucía Utatlán 	7	Santa Rita 	9	Septiembre	2023-09-21T00:00:00	2024-11-08T08:00:00	6	Velocidad del viento	3.2
118574	7	Sololá	704	Santa Lucía Utatlán 	7	Santa Rita 	9	Septiembre	2023-09-21T00:00:00	2024-11-08T08:00:00	7	Dirección del viento	3.22
118575	7	Sololá	704	Santa Lucía Utatlán 	7	Santa Rita 	9	Septiembre	2023-09-21T00:00:00	2024-11-08T08:00:00	1	Precipitación	0
118576	7	Sololá	704	Santa Lucía Utatlán 	7	Santa Rita 	9	Septiembre	2023-09-21T00:00:00	2024-11-08T08:00:00	8	Radiación solar	331
118577	7	Sololá	704	Santa Lucía Utatlán 	7	Santa Rita 	9	Septiembre	2023-09-21T00:00:00	2024-11-08T09:00:00	2	Temperatura media	24.9
118578	7	Sololá	704	Santa Lucía Utatlán 	7	Santa Rita 	9	Septiembre	2023-09-21T00:00:00	2024-11-08T09:00:00	4	Temperatura máxima	24.9
118579	7	Sololá	704	Santa Lucía Utatlán 	7	Santa Rita 	9	Septiembre	2023-09-21T00:00:00	2024-11-08T09:00:00	3	Temperatura mínima	23.1
118580	7	Sololá	704	Santa Lucía Utatlán 	7	Santa Rita 	9	Septiembre	2023-09-21T00:00:00	2024-11-08T09:00:00	5	Humedad	62
118581	7	Sololá	704	Santa Lucía Utatlán 	7	Santa Rita 	9	Septiembre	2023-09-21T00:00:00	2024-11-08T09:00:00	6	Velocidad del viento	6.4
118582	7	Sololá	704	Santa Lucía Utatlán 	7	Santa Rita 	9	Septiembre	2023-09-21T00:00:00	2024-11-08T09:00:00	7	Dirección del viento	6.44
118583	7	Sololá	704	Santa Lucía Utatlán 	7	Santa Rita 	9	Septiembre	2023-09-21T00:00:00	2024-11-08T09:00:00	1	Precipitación	0
118584	7	Sololá	704	Santa Lucía Utatlán 	7	Santa Rita 	9	Septiembre	2023-09-21T00:00:00	2024-11-08T09:00:00	8	Radiación solar	722
118585	7	Sololá	704	Santa Lucía Utatlán 	7	Santa Rita 	9	Septiembre	2023-09-21T00:00:00	2024-11-08T10:00:00	2	Temperatura media	23.8
118586	7	Sololá	704	Santa Lucía Utatlán 	7	Santa Rita 	9	Septiembre	2023-09-21T00:00:00	2024-11-08T10:00:00	4	Temperatura máxima	25.3
118587	7	Sololá	704	Santa Lucía Utatlán 	7	Santa Rita 	9	Septiembre	2023-09-21T00:00:00	2024-11-08T10:00:00	3	Temperatura mínima	23.6
118588	7	Sololá	704	Santa Lucía Utatlán 	7	Santa Rita 	9	Septiembre	2023-09-21T00:00:00	2024-11-08T10:00:00	5	Humedad	67
118589	7	Sololá	704	Santa Lucía Utatlán 	7	Santa Rita 	9	Septiembre	2023-09-21T00:00:00	2024-11-08T10:00:00	6	Velocidad del viento	11.3
118590	7	Sololá	704	Santa Lucía Utatlán 	7	Santa Rita 	9	Septiembre	2023-09-21T00:00:00	2024-11-08T10:00:00	7	Dirección del viento	11.27
118591	7	Sololá	704	Santa Lucía Utatlán 	7	Santa Rita 	9	Septiembre	2023-09-21T00:00:00	2024-11-08T10:00:00	1	Precipitación	0
118592	7	Sololá	704	Santa Lucía Utatlán 	7	Santa Rita 	9	Septiembre	2023-09-21T00:00:00	2024-11-08T10:00:00	8	Radiación solar	691
118593	7	Sololá	704	Santa Lucía Utatlán 	7	Santa Rita 	9	Septiembre	2023-09-21T00:00:00	2024-11-08T11:00:00	2	Temperatura media	24.6
118594	7	Sololá	704	Santa Lucía Utatlán 	7	Santa Rita 	9	Septiembre	2023-09-21T00:00:00	2024-11-08T11:00:00	4	Temperatura máxima	24.7
118595	7	Sololá	704	Santa Lucía Utatlán 	7	Santa Rita 	9	Septiembre	2023-09-21T00:00:00	2024-11-08T11:00:00	3	Temperatura mínima	23.8
118596	7	Sololá	704	Santa Lucía Utatlán 	7	Santa Rita 	9	Septiembre	2023-09-21T00:00:00	2024-11-08T11:00:00	5	Humedad	67
118597	7	Sololá	704	Santa Lucía Utatlán 	7	Santa Rita 	9	Septiembre	2023-09-21T00:00:00	2024-11-08T11:00:00	6	Velocidad del viento	9.7
118598	7	Sololá	704	Santa Lucía Utatlán 	7	Santa Rita 	9	Septiembre	2023-09-21T00:00:00	2024-11-08T11:00:00	7	Dirección del viento	9.66
118599	7	Sololá	704	Santa Lucía Utatlán 	7	Santa Rita 	9	Septiembre	2023-09-21T00:00:00	2024-11-08T11:00:00	1	Precipitación	0
118600	7	Sololá	704	Santa Lucía Utatlán 	7	Santa Rita 	9	Septiembre	2023-09-21T00:00:00	2024-11-08T11:00:00	8	Radiación solar	751
118601	7	Sololá	704	Santa Lucía Utatlán 	7	Santa Rita 	9	Septiembre	2023-09-21T00:00:00	2024-11-08T12:00:00	2	Temperatura media	25.2
118602	7	Sololá	704	Santa Lucía Utatlán 	7	Santa Rita 	9	Septiembre	2023-09-21T00:00:00	2024-11-08T12:00:00	4	Temperatura máxima	25.4
118603	7	Sololá	704	Santa Lucía Utatlán 	7	Santa Rita 	9	Septiembre	2023-09-21T00:00:00	2024-11-08T12:00:00	3	Temperatura mínima	24.5
118604	7	Sololá	704	Santa Lucía Utatlán 	7	Santa Rita 	9	Septiembre	2023-09-21T00:00:00	2024-11-08T12:00:00	5	Humedad	66
118605	7	Sololá	704	Santa Lucía Utatlán 	7	Santa Rita 	9	Septiembre	2023-09-21T00:00:00	2024-11-08T12:00:00	6	Velocidad del viento	11.3
118606	7	Sololá	704	Santa Lucía Utatlán 	7	Santa Rita 	9	Septiembre	2023-09-21T00:00:00	2024-11-08T12:00:00	7	Dirección del viento	11.27
118607	7	Sololá	704	Santa Lucía Utatlán 	7	Santa Rita 	9	Septiembre	2023-09-21T00:00:00	2024-11-08T12:00:00	1	Precipitación	0
118608	7	Sololá	704	Santa Lucía Utatlán 	7	Santa Rita 	9	Septiembre	2023-09-21T00:00:00	2024-11-08T12:00:00	8	Radiación solar	886
118609	7	Sololá	704	Santa Lucía Utatlán 	7	Santa Rita 	9	Septiembre	2023-09-21T00:00:00	2024-11-08T13:00:00	2	Temperatura media	25.3
118610	7	Sololá	704	Santa Lucía Utatlán 	7	Santa Rita 	9	Septiembre	2023-09-21T00:00:00	2024-11-08T13:00:00	4	Temperatura máxima	25.6
118611	7	Sololá	704	Santa Lucía Utatlán 	7	Santa Rita 	9	Septiembre	2023-09-21T00:00:00	2024-11-08T13:00:00	3	Temperatura mínima	24.9
118612	7	Sololá	704	Santa Lucía Utatlán 	7	Santa Rita 	9	Septiembre	2023-09-21T00:00:00	2024-11-08T13:00:00	5	Humedad	65
118613	7	Sololá	704	Santa Lucía Utatlán 	7	Santa Rita 	9	Septiembre	2023-09-21T00:00:00	2024-11-08T13:00:00	6	Velocidad del viento	9.7
118614	7	Sololá	704	Santa Lucía Utatlán 	7	Santa Rita 	9	Septiembre	2023-09-21T00:00:00	2024-11-08T13:00:00	7	Dirección del viento	9.66
118615	7	Sololá	704	Santa Lucía Utatlán 	7	Santa Rita 	9	Septiembre	2023-09-21T00:00:00	2024-11-08T13:00:00	1	Precipitación	0
118616	7	Sololá	704	Santa Lucía Utatlán 	7	Santa Rita 	9	Septiembre	2023-09-21T00:00:00	2024-11-08T13:00:00	8	Radiación solar	655
118617	7	Sololá	704	Santa Lucía Utatlán 	7	Santa Rita 	9	Septiembre	2023-09-21T00:00:00	2024-11-08T14:00:00	2	Temperatura media	25.9
118618	7	Sololá	704	Santa Lucía Utatlán 	7	Santa Rita 	9	Septiembre	2023-09-21T00:00:00	2024-11-08T14:00:00	4	Temperatura máxima	26.2
118619	7	Sololá	704	Santa Lucía Utatlán 	7	Santa Rita 	9	Septiembre	2023-09-21T00:00:00	2024-11-08T14:00:00	3	Temperatura mínima	25.2
118620	7	Sololá	704	Santa Lucía Utatlán 	7	Santa Rita 	9	Septiembre	2023-09-21T00:00:00	2024-11-08T14:00:00	5	Humedad	62
118621	7	Sololá	704	Santa Lucía Utatlán 	7	Santa Rita 	9	Septiembre	2023-09-21T00:00:00	2024-11-08T14:00:00	6	Velocidad del viento	12.9
118622	7	Sololá	704	Santa Lucía Utatlán 	7	Santa Rita 	9	Septiembre	2023-09-21T00:00:00	2024-11-08T14:00:00	7	Dirección del viento	12.87
118623	7	Sololá	704	Santa Lucía Utatlán 	7	Santa Rita 	9	Septiembre	2023-09-21T00:00:00	2024-11-08T14:00:00	1	Precipitación	0
118624	7	Sololá	704	Santa Lucía Utatlán 	7	Santa Rita 	9	Septiembre	2023-09-21T00:00:00	2024-11-08T14:00:00	8	Radiación solar	852
118625	7	Sololá	704	Santa Lucía Utatlán 	7	Santa Rita 	9	Septiembre	2023-09-21T00:00:00	2024-11-08T15:00:00	2	Temperatura media	25.2
118626	7	Sololá	704	Santa Lucía Utatlán 	7	Santa Rita 	9	Septiembre	2023-09-21T00:00:00	2024-11-08T15:00:00	4	Temperatura máxima	26.3
118627	7	Sololá	704	Santa Lucía Utatlán 	7	Santa Rita 	9	Septiembre	2023-09-21T00:00:00	2024-11-08T15:00:00	3	Temperatura mínima	25.2
118628	7	Sololá	704	Santa Lucía Utatlán 	7	Santa Rita 	9	Septiembre	2023-09-21T00:00:00	2024-11-08T15:00:00	5	Humedad	64
118629	7	Sololá	704	Santa Lucía Utatlán 	7	Santa Rita 	9	Septiembre	2023-09-21T00:00:00	2024-11-08T15:00:00	6	Velocidad del viento	11.3
118630	7	Sololá	704	Santa Lucía Utatlán 	7	Santa Rita 	9	Septiembre	2023-09-21T00:00:00	2024-11-08T15:00:00	7	Dirección del viento	11.27
118631	7	Sololá	704	Santa Lucía Utatlán 	7	Santa Rita 	9	Septiembre	2023-09-21T00:00:00	2024-11-08T15:00:00	1	Precipitación	0
118632	7	Sololá	704	Santa Lucía Utatlán 	7	Santa Rita 	9	Septiembre	2023-09-21T00:00:00	2024-11-08T15:00:00	8	Radiación solar	585
118633	7	Sololá	704	Santa Lucía Utatlán 	7	Santa Rita 	9	Septiembre	2023-09-21T00:00:00	2024-11-08T16:00:00	2	Temperatura media	25.7
118634	7	Sololá	704	Santa Lucía Utatlán 	7	Santa Rita 	9	Septiembre	2023-09-21T00:00:00	2024-11-08T16:00:00	4	Temperatura máxima	25.8
118635	7	Sololá	704	Santa Lucía Utatlán 	7	Santa Rita 	9	Septiembre	2023-09-21T00:00:00	2024-11-08T16:00:00	3	Temperatura mínima	25
118636	7	Sololá	704	Santa Lucía Utatlán 	7	Santa Rita 	9	Septiembre	2023-09-21T00:00:00	2024-11-08T16:00:00	5	Humedad	65
118637	7	Sololá	704	Santa Lucía Utatlán 	7	Santa Rita 	9	Septiembre	2023-09-21T00:00:00	2024-11-08T16:00:00	6	Velocidad del viento	8
118638	7	Sololá	704	Santa Lucía Utatlán 	7	Santa Rita 	9	Septiembre	2023-09-21T00:00:00	2024-11-08T16:00:00	7	Dirección del viento	8.05
118639	7	Sololá	704	Santa Lucía Utatlán 	7	Santa Rita 	9	Septiembre	2023-09-21T00:00:00	2024-11-08T16:00:00	1	Precipitación	0
118640	7	Sololá	704	Santa Lucía Utatlán 	7	Santa Rita 	9	Septiembre	2023-09-21T00:00:00	2024-11-08T16:00:00	8	Radiación solar	310
118641	7	Sololá	704	Santa Lucía Utatlán 	7	Santa Rita 	9	Septiembre	2023-09-21T00:00:00	2024-11-08T17:00:00	2	Temperatura media	24.2
118642	7	Sololá	704	Santa Lucía Utatlán 	7	Santa Rita 	9	Septiembre	2023-09-21T00:00:00	2024-11-08T17:00:00	4	Temperatura máxima	25.7
118643	7	Sololá	704	Santa Lucía Utatlán 	7	Santa Rita 	9	Septiembre	2023-09-21T00:00:00	2024-11-08T17:00:00	3	Temperatura mínima	24.2
118644	7	Sololá	704	Santa Lucía Utatlán 	7	Santa Rita 	9	Septiembre	2023-09-21T00:00:00	2024-11-08T17:00:00	5	Humedad	68
118645	7	Sololá	704	Santa Lucía Utatlán 	7	Santa Rita 	9	Septiembre	2023-09-21T00:00:00	2024-11-08T17:00:00	6	Velocidad del viento	8
118646	7	Sololá	704	Santa Lucía Utatlán 	7	Santa Rita 	9	Septiembre	2023-09-21T00:00:00	2024-11-08T17:00:00	7	Dirección del viento	8.05
118647	7	Sololá	704	Santa Lucía Utatlán 	7	Santa Rita 	9	Septiembre	2023-09-21T00:00:00	2024-11-08T17:00:00	1	Precipitación	0
118648	7	Sololá	704	Santa Lucía Utatlán 	7	Santa Rita 	9	Septiembre	2023-09-21T00:00:00	2024-11-08T17:00:00	8	Radiación solar	137
118649	7	Sololá	704	Santa Lucía Utatlán 	7	Santa Rita 	9	Septiembre	2023-09-21T00:00:00	2024-11-08T18:00:00	2	Temperatura media	21.4
118650	7	Sololá	704	Santa Lucía Utatlán 	7	Santa Rita 	9	Septiembre	2023-09-21T00:00:00	2024-11-08T18:00:00	4	Temperatura máxima	24.2
118651	7	Sololá	704	Santa Lucía Utatlán 	7	Santa Rita 	9	Septiembre	2023-09-21T00:00:00	2024-11-08T18:00:00	3	Temperatura mínima	21.4
118652	7	Sololá	704	Santa Lucía Utatlán 	7	Santa Rita 	9	Septiembre	2023-09-21T00:00:00	2024-11-08T18:00:00	5	Humedad	87
118653	7	Sololá	704	Santa Lucía Utatlán 	7	Santa Rita 	9	Septiembre	2023-09-21T00:00:00	2024-11-08T18:00:00	6	Velocidad del viento	3.2
118654	7	Sololá	704	Santa Lucía Utatlán 	7	Santa Rita 	9	Septiembre	2023-09-21T00:00:00	2024-11-08T18:00:00	7	Dirección del viento	3.22
118655	7	Sololá	704	Santa Lucía Utatlán 	7	Santa Rita 	9	Septiembre	2023-09-21T00:00:00	2024-11-08T18:00:00	1	Precipitación	0
118656	7	Sololá	704	Santa Lucía Utatlán 	7	Santa Rita 	9	Septiembre	2023-09-21T00:00:00	2024-11-08T18:00:00	8	Radiación solar	8
118657	7	Sololá	704	Santa Lucía Utatlán 	7	Santa Rita 	9	Septiembre	2023-09-21T00:00:00	2024-11-08T19:00:00	2	Temperatura media	20.8
118658	7	Sololá	704	Santa Lucía Utatlán 	7	Santa Rita 	9	Septiembre	2023-09-21T00:00:00	2024-11-08T19:00:00	4	Temperatura máxima	21.4
118659	7	Sololá	704	Santa Lucía Utatlán 	7	Santa Rita 	9	Septiembre	2023-09-21T00:00:00	2024-11-08T19:00:00	3	Temperatura mínima	20.8
118660	7	Sololá	704	Santa Lucía Utatlán 	7	Santa Rita 	9	Septiembre	2023-09-21T00:00:00	2024-11-08T19:00:00	5	Humedad	90
118661	7	Sololá	704	Santa Lucía Utatlán 	7	Santa Rita 	9	Septiembre	2023-09-21T00:00:00	2024-11-08T19:00:00	6	Velocidad del viento	1.6
118662	7	Sololá	704	Santa Lucía Utatlán 	7	Santa Rita 	9	Septiembre	2023-09-21T00:00:00	2024-11-08T19:00:00	7	Dirección del viento	1.61
118663	7	Sololá	704	Santa Lucía Utatlán 	7	Santa Rita 	9	Septiembre	2023-09-21T00:00:00	2024-11-08T19:00:00	1	Precipitación	0
118664	7	Sololá	704	Santa Lucía Utatlán 	7	Santa Rita 	9	Septiembre	2023-09-21T00:00:00	2024-11-08T19:00:00	8	Radiación solar	0
118665	7	Sololá	704	Santa Lucía Utatlán 	7	Santa Rita 	9	Septiembre	2023-09-21T00:00:00	2024-11-08T20:00:00	2	Temperatura media	19.7
118666	7	Sololá	704	Santa Lucía Utatlán 	7	Santa Rita 	9	Septiembre	2023-09-21T00:00:00	2024-11-08T20:00:00	4	Temperatura máxima	20.8
118667	7	Sololá	704	Santa Lucía Utatlán 	7	Santa Rita 	9	Septiembre	2023-09-21T00:00:00	2024-11-08T20:00:00	3	Temperatura mínima	19.3
118668	7	Sololá	704	Santa Lucía Utatlán 	7	Santa Rita 	9	Septiembre	2023-09-21T00:00:00	2024-11-08T20:00:00	5	Humedad	93
118669	7	Sololá	704	Santa Lucía Utatlán 	7	Santa Rita 	9	Septiembre	2023-09-21T00:00:00	2024-11-08T20:00:00	6	Velocidad del viento	4.8
118670	7	Sololá	704	Santa Lucía Utatlán 	7	Santa Rita 	9	Septiembre	2023-09-21T00:00:00	2024-11-08T20:00:00	7	Dirección del viento	4.83
118671	7	Sololá	704	Santa Lucía Utatlán 	7	Santa Rita 	9	Septiembre	2023-09-21T00:00:00	2024-11-08T20:00:00	1	Precipitación	0
118672	7	Sololá	704	Santa Lucía Utatlán 	7	Santa Rita 	9	Septiembre	2023-09-21T00:00:00	2024-11-08T20:00:00	8	Radiación solar	0
118673	7	Sololá	704	Santa Lucía Utatlán 	7	Santa Rita 	9	Septiembre	2023-09-21T00:00:00	2024-11-08T21:00:00	2	Temperatura media	19.8
118674	7	Sololá	704	Santa Lucía Utatlán 	7	Santa Rita 	9	Septiembre	2023-09-21T00:00:00	2024-11-08T21:00:00	4	Temperatura máxima	19.8
118675	7	Sololá	704	Santa Lucía Utatlán 	7	Santa Rita 	9	Septiembre	2023-09-21T00:00:00	2024-11-08T21:00:00	3	Temperatura mínima	19.6
118676	7	Sololá	704	Santa Lucía Utatlán 	7	Santa Rita 	9	Septiembre	2023-09-21T00:00:00	2024-11-08T21:00:00	5	Humedad	94
118677	7	Sololá	704	Santa Lucía Utatlán 	7	Santa Rita 	9	Septiembre	2023-09-21T00:00:00	2024-11-08T21:00:00	6	Velocidad del viento	1.6
118678	7	Sololá	704	Santa Lucía Utatlán 	7	Santa Rita 	9	Septiembre	2023-09-21T00:00:00	2024-11-08T21:00:00	7	Dirección del viento	1.61
118679	7	Sololá	704	Santa Lucía Utatlán 	7	Santa Rita 	9	Septiembre	2023-09-21T00:00:00	2024-11-08T21:00:00	1	Precipitación	0
118680	7	Sololá	704	Santa Lucía Utatlán 	7	Santa Rita 	9	Septiembre	2023-09-21T00:00:00	2024-11-08T21:00:00	8	Radiación solar	0
118681	7	Sololá	704	Santa Lucía Utatlán 	7	Santa Rita 	9	Septiembre	2023-09-21T00:00:00	2024-11-08T22:00:00	2	Temperatura media	19.5
118682	7	Sololá	704	Santa Lucía Utatlán 	7	Santa Rita 	9	Septiembre	2023-09-21T00:00:00	2024-11-08T22:00:00	4	Temperatura máxima	19.9
118683	7	Sololá	704	Santa Lucía Utatlán 	7	Santa Rita 	9	Septiembre	2023-09-21T00:00:00	2024-11-08T22:00:00	3	Temperatura mínima	19.5
118684	7	Sololá	704	Santa Lucía Utatlán 	7	Santa Rita 	9	Septiembre	2023-09-21T00:00:00	2024-11-08T22:00:00	5	Humedad	95
118685	7	Sololá	704	Santa Lucía Utatlán 	7	Santa Rita 	9	Septiembre	2023-09-21T00:00:00	2024-11-08T22:00:00	6	Velocidad del viento	3.2
118686	7	Sololá	704	Santa Lucía Utatlán 	7	Santa Rita 	9	Septiembre	2023-09-21T00:00:00	2024-11-08T22:00:00	7	Dirección del viento	3.22
118687	7	Sololá	704	Santa Lucía Utatlán 	7	Santa Rita 	9	Septiembre	2023-09-21T00:00:00	2024-11-08T22:00:00	1	Precipitación	23.4
118688	7	Sololá	704	Santa Lucía Utatlán 	7	Santa Rita 	9	Septiembre	2023-09-21T00:00:00	2024-11-08T22:00:00	8	Radiación solar	0
118689	7	Sololá	704	Santa Lucía Utatlán 	7	Santa Rita 	9	Septiembre	2023-09-21T00:00:00	2024-11-08T23:00:00	2	Temperatura media	19.2
118690	7	Sololá	704	Santa Lucía Utatlán 	7	Santa Rita 	9	Septiembre	2023-09-21T00:00:00	2024-11-08T23:00:00	4	Temperatura máxima	19.5
118691	7	Sololá	704	Santa Lucía Utatlán 	7	Santa Rita 	9	Septiembre	2023-09-21T00:00:00	2024-11-08T23:00:00	3	Temperatura mínima	19.2
118692	7	Sololá	704	Santa Lucía Utatlán 	7	Santa Rita 	9	Septiembre	2023-09-21T00:00:00	2024-11-08T23:00:00	5	Humedad	96
118693	7	Sololá	704	Santa Lucía Utatlán 	7	Santa Rita 	9	Septiembre	2023-09-21T00:00:00	2024-11-08T23:00:00	6	Velocidad del viento	1.6
118694	7	Sololá	704	Santa Lucía Utatlán 	7	Santa Rita 	9	Septiembre	2023-09-21T00:00:00	2024-11-08T23:00:00	7	Dirección del viento	1.61
118695	7	Sololá	704	Santa Lucía Utatlán 	7	Santa Rita 	9	Septiembre	2023-09-21T00:00:00	2024-11-08T23:00:00	1	Precipitación	8
118696	7	Sololá	704	Santa Lucía Utatlán 	7	Santa Rita 	9	Septiembre	2023-09-21T00:00:00	2024-11-08T23:00:00	8	Radiación solar	0
118697	7	Sololá	704	Santa Lucía Utatlán 	7	Santa Rita 	9	Septiembre	2023-09-22T00:00:00	2024-11-08T00:00:00	2	Temperatura media	18.8
118698	7	Sololá	704	Santa Lucía Utatlán 	7	Santa Rita 	9	Septiembre	2023-09-22T00:00:00	2024-11-08T00:00:00	4	Temperatura máxima	19.4
118699	7	Sololá	704	Santa Lucía Utatlán 	7	Santa Rita 	9	Septiembre	2023-09-22T00:00:00	2024-11-08T00:00:00	3	Temperatura mínima	18.8
118700	7	Sololá	704	Santa Lucía Utatlán 	7	Santa Rita 	9	Septiembre	2023-09-22T00:00:00	2024-11-08T00:00:00	5	Humedad	95
118701	7	Sololá	704	Santa Lucía Utatlán 	7	Santa Rita 	9	Septiembre	2023-09-22T00:00:00	2024-11-08T00:00:00	6	Velocidad del viento	3.2
118702	7	Sololá	704	Santa Lucía Utatlán 	7	Santa Rita 	9	Septiembre	2023-09-22T00:00:00	2024-11-08T00:00:00	7	Dirección del viento	3.22
118703	7	Sololá	704	Santa Lucía Utatlán 	7	Santa Rita 	9	Septiembre	2023-09-22T00:00:00	2024-11-08T00:00:00	1	Precipitación	0
118704	7	Sololá	704	Santa Lucía Utatlán 	7	Santa Rita 	9	Septiembre	2023-09-22T00:00:00	2024-11-08T00:00:00	8	Radiación solar	0
118705	7	Sololá	704	Santa Lucía Utatlán 	7	Santa Rita 	9	Septiembre	2023-09-22T00:00:00	2024-11-08T01:00:00	2	Temperatura media	18.8
118706	7	Sololá	704	Santa Lucía Utatlán 	7	Santa Rita 	9	Septiembre	2023-09-22T00:00:00	2024-11-08T01:00:00	4	Temperatura máxima	18.8
118707	7	Sololá	704	Santa Lucía Utatlán 	7	Santa Rita 	9	Septiembre	2023-09-22T00:00:00	2024-11-08T01:00:00	3	Temperatura mínima	18.7
118708	7	Sololá	704	Santa Lucía Utatlán 	7	Santa Rita 	9	Septiembre	2023-09-22T00:00:00	2024-11-08T01:00:00	5	Humedad	94
118709	7	Sololá	704	Santa Lucía Utatlán 	7	Santa Rita 	9	Septiembre	2023-09-22T00:00:00	2024-11-08T01:00:00	6	Velocidad del viento	1.6
118710	7	Sololá	704	Santa Lucía Utatlán 	7	Santa Rita 	9	Septiembre	2023-09-22T00:00:00	2024-11-08T01:00:00	7	Dirección del viento	1.61
118711	7	Sololá	704	Santa Lucía Utatlán 	7	Santa Rita 	9	Septiembre	2023-09-22T00:00:00	2024-11-08T01:00:00	1	Precipitación	0
118712	7	Sololá	704	Santa Lucía Utatlán 	7	Santa Rita 	9	Septiembre	2023-09-22T00:00:00	2024-11-08T01:00:00	8	Radiación solar	0
118713	7	Sololá	704	Santa Lucía Utatlán 	7	Santa Rita 	9	Septiembre	2023-09-22T00:00:00	2024-11-08T02:00:00	2	Temperatura media	18.6
118714	7	Sololá	704	Santa Lucía Utatlán 	7	Santa Rita 	9	Septiembre	2023-09-22T00:00:00	2024-11-08T02:00:00	4	Temperatura máxima	19.1
118715	7	Sololá	704	Santa Lucía Utatlán 	7	Santa Rita 	9	Septiembre	2023-09-22T00:00:00	2024-11-08T02:00:00	3	Temperatura mínima	18.4
118716	7	Sololá	704	Santa Lucía Utatlán 	7	Santa Rita 	9	Septiembre	2023-09-22T00:00:00	2024-11-08T02:00:00	5	Humedad	96
118717	7	Sololá	704	Santa Lucía Utatlán 	7	Santa Rita 	9	Septiembre	2023-09-22T00:00:00	2024-11-08T02:00:00	6	Velocidad del viento	3.2
118718	7	Sololá	704	Santa Lucía Utatlán 	7	Santa Rita 	9	Septiembre	2023-09-22T00:00:00	2024-11-08T02:00:00	7	Dirección del viento	3.22
118719	7	Sololá	704	Santa Lucía Utatlán 	7	Santa Rita 	9	Septiembre	2023-09-22T00:00:00	2024-11-08T02:00:00	1	Precipitación	0.2
118720	7	Sololá	704	Santa Lucía Utatlán 	7	Santa Rita 	9	Septiembre	2023-09-22T00:00:00	2024-11-08T02:00:00	8	Radiación solar	0
118721	7	Sololá	704	Santa Lucía Utatlán 	7	Santa Rita 	9	Septiembre	2023-09-22T00:00:00	2024-11-08T03:00:00	2	Temperatura media	18.6
118722	7	Sololá	704	Santa Lucía Utatlán 	7	Santa Rita 	9	Septiembre	2023-09-22T00:00:00	2024-11-08T03:00:00	4	Temperatura máxima	19.1
118723	7	Sololá	704	Santa Lucía Utatlán 	7	Santa Rita 	9	Septiembre	2023-09-22T00:00:00	2024-11-08T03:00:00	3	Temperatura mínima	18.4
118724	7	Sololá	704	Santa Lucía Utatlán 	7	Santa Rita 	9	Septiembre	2023-09-22T00:00:00	2024-11-08T03:00:00	5	Humedad	95
118725	7	Sololá	704	Santa Lucía Utatlán 	7	Santa Rita 	9	Septiembre	2023-09-22T00:00:00	2024-11-08T03:00:00	6	Velocidad del viento	1.6
118726	7	Sololá	704	Santa Lucía Utatlán 	7	Santa Rita 	9	Septiembre	2023-09-22T00:00:00	2024-11-08T03:00:00	7	Dirección del viento	1.61
118727	7	Sololá	704	Santa Lucía Utatlán 	7	Santa Rita 	9	Septiembre	2023-09-22T00:00:00	2024-11-08T03:00:00	1	Precipitación	0
118728	7	Sololá	704	Santa Lucía Utatlán 	7	Santa Rita 	9	Septiembre	2023-09-22T00:00:00	2024-11-08T03:00:00	8	Radiación solar	0
118729	7	Sololá	704	Santa Lucía Utatlán 	7	Santa Rita 	9	Septiembre	2023-09-22T00:00:00	2024-11-08T04:00:00	2	Temperatura media	19.7
118730	7	Sololá	704	Santa Lucía Utatlán 	7	Santa Rita 	9	Septiembre	2023-09-22T00:00:00	2024-11-08T04:00:00	4	Temperatura máxima	19.8
118731	7	Sololá	704	Santa Lucía Utatlán 	7	Santa Rita 	9	Septiembre	2023-09-22T00:00:00	2024-11-08T04:00:00	3	Temperatura mínima	18.1
118732	7	Sololá	704	Santa Lucía Utatlán 	7	Santa Rita 	9	Septiembre	2023-09-22T00:00:00	2024-11-08T04:00:00	5	Humedad	85
118733	7	Sololá	704	Santa Lucía Utatlán 	7	Santa Rita 	9	Septiembre	2023-09-22T00:00:00	2024-11-08T04:00:00	6	Velocidad del viento	4.8
118734	7	Sololá	704	Santa Lucía Utatlán 	7	Santa Rita 	9	Septiembre	2023-09-22T00:00:00	2024-11-08T04:00:00	7	Dirección del viento	4.83
118735	7	Sololá	704	Santa Lucía Utatlán 	7	Santa Rita 	9	Septiembre	2023-09-22T00:00:00	2024-11-08T04:00:00	1	Precipitación	0
118736	7	Sololá	704	Santa Lucía Utatlán 	7	Santa Rita 	9	Septiembre	2023-09-22T00:00:00	2024-11-08T04:00:00	8	Radiación solar	0
118737	7	Sololá	704	Santa Lucía Utatlán 	7	Santa Rita 	9	Septiembre	2023-09-22T00:00:00	2024-11-08T05:00:00	2	Temperatura media	17.7
118738	7	Sololá	704	Santa Lucía Utatlán 	7	Santa Rita 	9	Septiembre	2023-09-22T00:00:00	2024-11-08T05:00:00	4	Temperatura máxima	20.8
118739	7	Sololá	704	Santa Lucía Utatlán 	7	Santa Rita 	9	Septiembre	2023-09-22T00:00:00	2024-11-08T05:00:00	3	Temperatura mínima	17.7
118740	7	Sololá	704	Santa Lucía Utatlán 	7	Santa Rita 	9	Septiembre	2023-09-22T00:00:00	2024-11-08T05:00:00	5	Humedad	91
118741	7	Sololá	704	Santa Lucía Utatlán 	7	Santa Rita 	9	Septiembre	2023-09-22T00:00:00	2024-11-08T05:00:00	6	Velocidad del viento	4.8
118742	7	Sololá	704	Santa Lucía Utatlán 	7	Santa Rita 	9	Septiembre	2023-09-22T00:00:00	2024-11-08T05:00:00	7	Dirección del viento	4.83
118743	7	Sololá	704	Santa Lucía Utatlán 	7	Santa Rita 	9	Septiembre	2023-09-22T00:00:00	2024-11-08T05:00:00	1	Precipitación	0
118744	7	Sololá	704	Santa Lucía Utatlán 	7	Santa Rita 	9	Septiembre	2023-09-22T00:00:00	2024-11-08T05:00:00	8	Radiación solar	0
118745	7	Sololá	704	Santa Lucía Utatlán 	7	Santa Rita 	9	Septiembre	2023-09-22T00:00:00	2024-11-08T06:00:00	2	Temperatura media	17.4
118746	7	Sololá	704	Santa Lucía Utatlán 	7	Santa Rita 	9	Septiembre	2023-09-22T00:00:00	2024-11-08T06:00:00	4	Temperatura máxima	17.7
118747	7	Sololá	704	Santa Lucía Utatlán 	7	Santa Rita 	9	Septiembre	2023-09-22T00:00:00	2024-11-08T06:00:00	3	Temperatura mínima	17.1
118748	7	Sololá	704	Santa Lucía Utatlán 	7	Santa Rita 	9	Septiembre	2023-09-22T00:00:00	2024-11-08T06:00:00	5	Humedad	92
118749	7	Sololá	704	Santa Lucía Utatlán 	7	Santa Rita 	9	Septiembre	2023-09-22T00:00:00	2024-11-08T06:00:00	6	Velocidad del viento	3.2
118750	7	Sololá	704	Santa Lucía Utatlán 	7	Santa Rita 	9	Septiembre	2023-09-22T00:00:00	2024-11-08T06:00:00	7	Dirección del viento	3.22
118751	7	Sololá	704	Santa Lucía Utatlán 	7	Santa Rita 	9	Septiembre	2023-09-22T00:00:00	2024-11-08T06:00:00	1	Precipitación	0
118752	7	Sololá	704	Santa Lucía Utatlán 	7	Santa Rita 	9	Septiembre	2023-09-22T00:00:00	2024-11-08T06:00:00	8	Radiación solar	8
118753	7	Sololá	704	Santa Lucía Utatlán 	7	Santa Rita 	9	Septiembre	2023-09-22T00:00:00	2024-11-08T07:00:00	2	Temperatura media	21
118754	7	Sololá	704	Santa Lucía Utatlán 	7	Santa Rita 	9	Septiembre	2023-09-22T00:00:00	2024-11-08T07:00:00	4	Temperatura máxima	21
118755	7	Sololá	704	Santa Lucía Utatlán 	7	Santa Rita 	9	Septiembre	2023-09-22T00:00:00	2024-11-08T07:00:00	3	Temperatura mínima	17.4
118756	7	Sololá	704	Santa Lucía Utatlán 	7	Santa Rita 	9	Septiembre	2023-09-22T00:00:00	2024-11-08T07:00:00	5	Humedad	84
118757	7	Sololá	704	Santa Lucía Utatlán 	7	Santa Rita 	9	Septiembre	2023-09-22T00:00:00	2024-11-08T07:00:00	6	Velocidad del viento	3.2
118758	7	Sololá	704	Santa Lucía Utatlán 	7	Santa Rita 	9	Septiembre	2023-09-22T00:00:00	2024-11-08T07:00:00	7	Dirección del viento	3.22
118759	7	Sololá	704	Santa Lucía Utatlán 	7	Santa Rita 	9	Septiembre	2023-09-22T00:00:00	2024-11-08T07:00:00	1	Precipitación	0
118760	7	Sololá	704	Santa Lucía Utatlán 	7	Santa Rita 	9	Septiembre	2023-09-22T00:00:00	2024-11-08T07:00:00	8	Radiación solar	150
118761	7	Sololá	704	Santa Lucía Utatlán 	7	Santa Rita 	9	Septiembre	2023-09-22T00:00:00	2024-11-08T08:00:00	2	Temperatura media	23.7
118762	7	Sololá	704	Santa Lucía Utatlán 	7	Santa Rita 	9	Septiembre	2023-09-22T00:00:00	2024-11-08T08:00:00	4	Temperatura máxima	23.7
118763	7	Sololá	704	Santa Lucía Utatlán 	7	Santa Rita 	9	Septiembre	2023-09-22T00:00:00	2024-11-08T08:00:00	3	Temperatura mínima	21.1
118764	7	Sololá	704	Santa Lucía Utatlán 	7	Santa Rita 	9	Septiembre	2023-09-22T00:00:00	2024-11-08T08:00:00	5	Humedad	65
118765	7	Sololá	704	Santa Lucía Utatlán 	7	Santa Rita 	9	Septiembre	2023-09-22T00:00:00	2024-11-08T08:00:00	6	Velocidad del viento	6.4
118766	7	Sololá	704	Santa Lucía Utatlán 	7	Santa Rita 	9	Septiembre	2023-09-22T00:00:00	2024-11-08T08:00:00	7	Dirección del viento	6.44
118767	7	Sololá	704	Santa Lucía Utatlán 	7	Santa Rita 	9	Septiembre	2023-09-22T00:00:00	2024-11-08T08:00:00	1	Precipitación	0
118768	7	Sololá	704	Santa Lucía Utatlán 	7	Santa Rita 	9	Septiembre	2023-09-22T00:00:00	2024-11-08T08:00:00	8	Radiación solar	428
118769	7	Sololá	704	Santa Lucía Utatlán 	7	Santa Rita 	9	Septiembre	2023-09-22T00:00:00	2024-11-08T09:00:00	2	Temperatura media	23.8
118770	7	Sololá	704	Santa Lucía Utatlán 	7	Santa Rita 	9	Septiembre	2023-09-22T00:00:00	2024-11-08T09:00:00	4	Temperatura máxima	24.1
118771	7	Sololá	704	Santa Lucía Utatlán 	7	Santa Rita 	9	Septiembre	2023-09-22T00:00:00	2024-11-08T09:00:00	3	Temperatura mínima	23.6
118772	7	Sololá	704	Santa Lucía Utatlán 	7	Santa Rita 	9	Septiembre	2023-09-22T00:00:00	2024-11-08T09:00:00	5	Humedad	63
118773	7	Sololá	704	Santa Lucía Utatlán 	7	Santa Rita 	9	Septiembre	2023-09-22T00:00:00	2024-11-08T09:00:00	6	Velocidad del viento	9.7
118774	7	Sololá	704	Santa Lucía Utatlán 	7	Santa Rita 	9	Septiembre	2023-09-22T00:00:00	2024-11-08T09:00:00	7	Dirección del viento	9.66
118775	7	Sololá	704	Santa Lucía Utatlán 	7	Santa Rita 	9	Septiembre	2023-09-22T00:00:00	2024-11-08T09:00:00	1	Precipitación	0
118776	7	Sololá	704	Santa Lucía Utatlán 	7	Santa Rita 	9	Septiembre	2023-09-22T00:00:00	2024-11-08T09:00:00	8	Radiación solar	651
118777	7	Sololá	704	Santa Lucía Utatlán 	7	Santa Rita 	9	Septiembre	2023-09-22T00:00:00	2024-11-08T10:00:00	2	Temperatura media	23.2
118778	7	Sololá	704	Santa Lucía Utatlán 	7	Santa Rita 	9	Septiembre	2023-09-22T00:00:00	2024-11-08T10:00:00	4	Temperatura máxima	24.1
118779	7	Sololá	704	Santa Lucía Utatlán 	7	Santa Rita 	9	Septiembre	2023-09-22T00:00:00	2024-11-08T10:00:00	3	Temperatura mínima	22.8
118780	7	Sololá	704	Santa Lucía Utatlán 	7	Santa Rita 	9	Septiembre	2023-09-22T00:00:00	2024-11-08T10:00:00	5	Humedad	67
118781	7	Sololá	704	Santa Lucía Utatlán 	7	Santa Rita 	9	Septiembre	2023-09-22T00:00:00	2024-11-08T10:00:00	6	Velocidad del viento	8
118782	7	Sololá	704	Santa Lucía Utatlán 	7	Santa Rita 	9	Septiembre	2023-09-22T00:00:00	2024-11-08T10:00:00	7	Dirección del viento	8.05
118783	7	Sololá	704	Santa Lucía Utatlán 	7	Santa Rita 	9	Septiembre	2023-09-22T00:00:00	2024-11-08T10:00:00	1	Precipitación	0
118784	7	Sololá	704	Santa Lucía Utatlán 	7	Santa Rita 	9	Septiembre	2023-09-22T00:00:00	2024-11-08T10:00:00	8	Radiación solar	593
118785	7	Sololá	704	Santa Lucía Utatlán 	7	Santa Rita 	9	Septiembre	2023-09-22T00:00:00	2024-11-08T11:00:00	2	Temperatura media	24.6
118786	7	Sololá	704	Santa Lucía Utatlán 	7	Santa Rita 	9	Septiembre	2023-09-22T00:00:00	2024-11-08T11:00:00	4	Temperatura máxima	24.8
118787	7	Sololá	704	Santa Lucía Utatlán 	7	Santa Rita 	9	Septiembre	2023-09-22T00:00:00	2024-11-08T11:00:00	3	Temperatura mínima	23.2
118788	7	Sololá	704	Santa Lucía Utatlán 	7	Santa Rita 	9	Septiembre	2023-09-22T00:00:00	2024-11-08T11:00:00	5	Humedad	64
118789	7	Sololá	704	Santa Lucía Utatlán 	7	Santa Rita 	9	Septiembre	2023-09-22T00:00:00	2024-11-08T11:00:00	6	Velocidad del viento	6.4
118790	7	Sololá	704	Santa Lucía Utatlán 	7	Santa Rita 	9	Septiembre	2023-09-22T00:00:00	2024-11-08T11:00:00	7	Dirección del viento	6.44
118791	7	Sololá	704	Santa Lucía Utatlán 	7	Santa Rita 	9	Septiembre	2023-09-22T00:00:00	2024-11-08T11:00:00	1	Precipitación	0
118792	7	Sololá	704	Santa Lucía Utatlán 	7	Santa Rita 	9	Septiembre	2023-09-22T00:00:00	2024-11-08T11:00:00	8	Radiación solar	853
118793	7	Sololá	704	Santa Lucía Utatlán 	7	Santa Rita 	9	Septiembre	2023-09-22T00:00:00	2024-11-08T12:00:00	2	Temperatura media	25.4
118794	7	Sololá	704	Santa Lucía Utatlán 	7	Santa Rita 	9	Septiembre	2023-09-22T00:00:00	2024-11-08T12:00:00	4	Temperatura máxima	25.4
118795	7	Sololá	704	Santa Lucía Utatlán 	7	Santa Rita 	9	Septiembre	2023-09-22T00:00:00	2024-11-08T12:00:00	3	Temperatura mínima	24.5
118796	7	Sololá	704	Santa Lucía Utatlán 	7	Santa Rita 	9	Septiembre	2023-09-22T00:00:00	2024-11-08T12:00:00	5	Humedad	60
118797	7	Sololá	704	Santa Lucía Utatlán 	7	Santa Rita 	9	Septiembre	2023-09-22T00:00:00	2024-11-08T12:00:00	6	Velocidad del viento	9.7
118798	7	Sololá	704	Santa Lucía Utatlán 	7	Santa Rita 	9	Septiembre	2023-09-22T00:00:00	2024-11-08T12:00:00	7	Dirección del viento	9.66
118799	7	Sololá	704	Santa Lucía Utatlán 	7	Santa Rita 	9	Septiembre	2023-09-22T00:00:00	2024-11-08T12:00:00	1	Precipitación	0
118800	7	Sololá	704	Santa Lucía Utatlán 	7	Santa Rita 	9	Septiembre	2023-09-22T00:00:00	2024-11-08T12:00:00	8	Radiación solar	1022
118801	7	Sololá	704	Santa Lucía Utatlán 	7	Santa Rita 	9	Septiembre	2023-09-22T00:00:00	2024-11-08T13:00:00	2	Temperatura media	25.3
118802	7	Sololá	704	Santa Lucía Utatlán 	7	Santa Rita 	9	Septiembre	2023-09-22T00:00:00	2024-11-08T13:00:00	4	Temperatura máxima	25.9
118803	7	Sololá	704	Santa Lucía Utatlán 	7	Santa Rita 	9	Septiembre	2023-09-22T00:00:00	2024-11-08T13:00:00	3	Temperatura mínima	24.9
118804	7	Sololá	704	Santa Lucía Utatlán 	7	Santa Rita 	9	Septiembre	2023-09-22T00:00:00	2024-11-08T13:00:00	5	Humedad	69
118805	7	Sololá	704	Santa Lucía Utatlán 	7	Santa Rita 	9	Septiembre	2023-09-22T00:00:00	2024-11-08T13:00:00	6	Velocidad del viento	9.7
118806	7	Sololá	704	Santa Lucía Utatlán 	7	Santa Rita 	9	Septiembre	2023-09-22T00:00:00	2024-11-08T13:00:00	7	Dirección del viento	9.66
118807	7	Sololá	704	Santa Lucía Utatlán 	7	Santa Rita 	9	Septiembre	2023-09-22T00:00:00	2024-11-08T13:00:00	1	Precipitación	0
118808	7	Sololá	704	Santa Lucía Utatlán 	7	Santa Rita 	9	Septiembre	2023-09-22T00:00:00	2024-11-08T13:00:00	8	Radiación solar	1017
118809	7	Sololá	704	Santa Lucía Utatlán 	7	Santa Rita 	9	Septiembre	2023-09-22T00:00:00	2024-11-08T14:00:00	2	Temperatura media	25.2
118810	7	Sololá	704	Santa Lucía Utatlán 	7	Santa Rita 	9	Septiembre	2023-09-22T00:00:00	2024-11-08T14:00:00	4	Temperatura máxima	26.2
118811	7	Sololá	704	Santa Lucía Utatlán 	7	Santa Rita 	9	Septiembre	2023-09-22T00:00:00	2024-11-08T14:00:00	3	Temperatura mínima	24.7
118812	7	Sololá	704	Santa Lucía Utatlán 	7	Santa Rita 	9	Septiembre	2023-09-22T00:00:00	2024-11-08T14:00:00	5	Humedad	61
118813	7	Sololá	704	Santa Lucía Utatlán 	7	Santa Rita 	9	Septiembre	2023-09-22T00:00:00	2024-11-08T14:00:00	6	Velocidad del viento	11.3
118814	7	Sololá	704	Santa Lucía Utatlán 	7	Santa Rita 	9	Septiembre	2023-09-22T00:00:00	2024-11-08T14:00:00	7	Dirección del viento	11.27
118815	7	Sololá	704	Santa Lucía Utatlán 	7	Santa Rita 	9	Septiembre	2023-09-22T00:00:00	2024-11-08T14:00:00	1	Precipitación	0
118816	7	Sololá	704	Santa Lucía Utatlán 	7	Santa Rita 	9	Septiembre	2023-09-22T00:00:00	2024-11-08T14:00:00	8	Radiación solar	821
118817	7	Sololá	704	Santa Lucía Utatlán 	7	Santa Rita 	9	Septiembre	2023-09-22T00:00:00	2024-11-08T15:00:00	2	Temperatura media	24.6
118818	7	Sololá	704	Santa Lucía Utatlán 	7	Santa Rita 	9	Septiembre	2023-09-22T00:00:00	2024-11-08T15:00:00	4	Temperatura máxima	25.3
118819	7	Sololá	704	Santa Lucía Utatlán 	7	Santa Rita 	9	Septiembre	2023-09-22T00:00:00	2024-11-08T15:00:00	3	Temperatura mínima	24.3
118820	7	Sololá	704	Santa Lucía Utatlán 	7	Santa Rita 	9	Septiembre	2023-09-22T00:00:00	2024-11-08T15:00:00	5	Humedad	67
118821	7	Sololá	704	Santa Lucía Utatlán 	7	Santa Rita 	9	Septiembre	2023-09-22T00:00:00	2024-11-08T15:00:00	6	Velocidad del viento	9.7
118822	7	Sololá	704	Santa Lucía Utatlán 	7	Santa Rita 	9	Septiembre	2023-09-22T00:00:00	2024-11-08T15:00:00	7	Dirección del viento	9.66
118823	7	Sololá	704	Santa Lucía Utatlán 	7	Santa Rita 	9	Septiembre	2023-09-22T00:00:00	2024-11-08T15:00:00	1	Precipitación	0
118824	7	Sololá	704	Santa Lucía Utatlán 	7	Santa Rita 	9	Septiembre	2023-09-22T00:00:00	2024-11-08T15:00:00	8	Radiación solar	263
118825	7	Sololá	704	Santa Lucía Utatlán 	7	Santa Rita 	9	Septiembre	2023-09-22T00:00:00	2024-11-08T16:00:00	2	Temperatura media	24.7
118826	7	Sololá	704	Santa Lucía Utatlán 	7	Santa Rita 	9	Septiembre	2023-09-22T00:00:00	2024-11-08T16:00:00	4	Temperatura máxima	24.7
118827	7	Sololá	704	Santa Lucía Utatlán 	7	Santa Rita 	9	Septiembre	2023-09-22T00:00:00	2024-11-08T16:00:00	3	Temperatura mínima	23.9
118828	7	Sololá	704	Santa Lucía Utatlán 	7	Santa Rita 	9	Septiembre	2023-09-22T00:00:00	2024-11-08T16:00:00	5	Humedad	67
118829	7	Sololá	704	Santa Lucía Utatlán 	7	Santa Rita 	9	Septiembre	2023-09-22T00:00:00	2024-11-08T16:00:00	6	Velocidad del viento	8
118830	7	Sololá	704	Santa Lucía Utatlán 	7	Santa Rita 	9	Septiembre	2023-09-22T00:00:00	2024-11-08T16:00:00	7	Dirección del viento	8.05
118831	7	Sololá	704	Santa Lucía Utatlán 	7	Santa Rita 	9	Septiembre	2023-09-22T00:00:00	2024-11-08T16:00:00	1	Precipitación	0
118832	7	Sololá	704	Santa Lucía Utatlán 	7	Santa Rita 	9	Septiembre	2023-09-22T00:00:00	2024-11-08T16:00:00	8	Radiación solar	242
118833	7	Sololá	704	Santa Lucía Utatlán 	7	Santa Rita 	9	Septiembre	2023-09-22T00:00:00	2024-11-08T17:00:00	2	Temperatura media	23.7
118834	7	Sololá	704	Santa Lucía Utatlán 	7	Santa Rita 	9	Septiembre	2023-09-22T00:00:00	2024-11-08T17:00:00	4	Temperatura máxima	25.2
118835	7	Sololá	704	Santa Lucía Utatlán 	7	Santa Rita 	9	Septiembre	2023-09-22T00:00:00	2024-11-08T17:00:00	3	Temperatura mínima	23.7
118836	7	Sololá	704	Santa Lucía Utatlán 	7	Santa Rita 	9	Septiembre	2023-09-22T00:00:00	2024-11-08T17:00:00	5	Humedad	70
118837	7	Sololá	704	Santa Lucía Utatlán 	7	Santa Rita 	9	Septiembre	2023-09-22T00:00:00	2024-11-08T17:00:00	6	Velocidad del viento	4.8
118838	7	Sololá	704	Santa Lucía Utatlán 	7	Santa Rita 	9	Septiembre	2023-09-22T00:00:00	2024-11-08T17:00:00	7	Dirección del viento	4.83
118839	7	Sololá	704	Santa Lucía Utatlán 	7	Santa Rita 	9	Septiembre	2023-09-22T00:00:00	2024-11-08T17:00:00	1	Precipitación	0
118840	7	Sololá	704	Santa Lucía Utatlán 	7	Santa Rita 	9	Septiembre	2023-09-22T00:00:00	2024-11-08T17:00:00	8	Radiación solar	164
118841	7	Sololá	704	Santa Lucía Utatlán 	7	Santa Rita 	9	Septiembre	2023-09-22T00:00:00	2024-11-08T18:00:00	2	Temperatura media	22.6
118842	7	Sololá	704	Santa Lucía Utatlán 	7	Santa Rita 	9	Septiembre	2023-09-22T00:00:00	2024-11-08T18:00:00	4	Temperatura máxima	23.7
118843	7	Sololá	704	Santa Lucía Utatlán 	7	Santa Rita 	9	Septiembre	2023-09-22T00:00:00	2024-11-08T18:00:00	3	Temperatura mínima	22.6
118844	7	Sololá	704	Santa Lucía Utatlán 	7	Santa Rita 	9	Septiembre	2023-09-22T00:00:00	2024-11-08T18:00:00	5	Humedad	74
118845	7	Sololá	704	Santa Lucía Utatlán 	7	Santa Rita 	9	Septiembre	2023-09-22T00:00:00	2024-11-08T18:00:00	6	Velocidad del viento	9.7
118846	7	Sololá	704	Santa Lucía Utatlán 	7	Santa Rita 	9	Septiembre	2023-09-22T00:00:00	2024-11-08T18:00:00	7	Dirección del viento	9.66
118847	7	Sololá	704	Santa Lucía Utatlán 	7	Santa Rita 	9	Septiembre	2023-09-22T00:00:00	2024-11-08T18:00:00	1	Precipitación	0
118848	7	Sololá	704	Santa Lucía Utatlán 	7	Santa Rita 	9	Septiembre	2023-09-22T00:00:00	2024-11-08T18:00:00	8	Radiación solar	60
118849	7	Sololá	704	Santa Lucía Utatlán 	7	Santa Rita 	9	Septiembre	2023-09-22T00:00:00	2024-11-08T19:00:00	2	Temperatura media	21.6
118850	7	Sololá	704	Santa Lucía Utatlán 	7	Santa Rita 	9	Septiembre	2023-09-22T00:00:00	2024-11-08T19:00:00	4	Temperatura máxima	22.6
118851	7	Sololá	704	Santa Lucía Utatlán 	7	Santa Rita 	9	Septiembre	2023-09-22T00:00:00	2024-11-08T19:00:00	3	Temperatura mínima	21.6
118852	7	Sololá	704	Santa Lucía Utatlán 	7	Santa Rita 	9	Septiembre	2023-09-22T00:00:00	2024-11-08T19:00:00	5	Humedad	84
118853	7	Sololá	704	Santa Lucía Utatlán 	7	Santa Rita 	9	Septiembre	2023-09-22T00:00:00	2024-11-08T19:00:00	6	Velocidad del viento	3.2
118854	7	Sololá	704	Santa Lucía Utatlán 	7	Santa Rita 	9	Septiembre	2023-09-22T00:00:00	2024-11-08T19:00:00	7	Dirección del viento	3.22
118855	7	Sololá	704	Santa Lucía Utatlán 	7	Santa Rita 	9	Septiembre	2023-09-22T00:00:00	2024-11-08T19:00:00	1	Precipitación	0
118856	7	Sololá	704	Santa Lucía Utatlán 	7	Santa Rita 	9	Septiembre	2023-09-22T00:00:00	2024-11-08T19:00:00	8	Radiación solar	0
118857	7	Sololá	704	Santa Lucía Utatlán 	7	Santa Rita 	9	Septiembre	2023-09-22T00:00:00	2024-11-08T20:00:00	2	Temperatura media	20.6
118858	7	Sololá	704	Santa Lucía Utatlán 	7	Santa Rita 	9	Septiembre	2023-09-22T00:00:00	2024-11-08T20:00:00	4	Temperatura máxima	21.6
118859	7	Sololá	704	Santa Lucía Utatlán 	7	Santa Rita 	9	Septiembre	2023-09-22T00:00:00	2024-11-08T20:00:00	3	Temperatura mínima	20.6
118860	7	Sololá	704	Santa Lucía Utatlán 	7	Santa Rita 	9	Septiembre	2023-09-22T00:00:00	2024-11-08T20:00:00	5	Humedad	92
118861	7	Sololá	704	Santa Lucía Utatlán 	7	Santa Rita 	9	Septiembre	2023-09-22T00:00:00	2024-11-08T20:00:00	6	Velocidad del viento	1.6
118862	7	Sololá	704	Santa Lucía Utatlán 	7	Santa Rita 	9	Septiembre	2023-09-22T00:00:00	2024-11-08T20:00:00	7	Dirección del viento	1.61
118863	7	Sololá	704	Santa Lucía Utatlán 	7	Santa Rita 	9	Septiembre	2023-09-22T00:00:00	2024-11-08T20:00:00	1	Precipitación	0.4
118864	7	Sololá	704	Santa Lucía Utatlán 	7	Santa Rita 	9	Septiembre	2023-09-22T00:00:00	2024-11-08T20:00:00	8	Radiación solar	0
118865	7	Sololá	704	Santa Lucía Utatlán 	7	Santa Rita 	9	Septiembre	2023-09-22T00:00:00	2024-11-08T21:00:00	2	Temperatura media	20
118866	7	Sololá	704	Santa Lucía Utatlán 	7	Santa Rita 	9	Septiembre	2023-09-22T00:00:00	2024-11-08T21:00:00	4	Temperatura máxima	20.6
118867	7	Sololá	704	Santa Lucía Utatlán 	7	Santa Rita 	9	Septiembre	2023-09-22T00:00:00	2024-11-08T21:00:00	3	Temperatura mínima	19.9
118868	7	Sololá	704	Santa Lucía Utatlán 	7	Santa Rita 	9	Septiembre	2023-09-22T00:00:00	2024-11-08T21:00:00	5	Humedad	92
118869	7	Sololá	704	Santa Lucía Utatlán 	7	Santa Rita 	9	Septiembre	2023-09-22T00:00:00	2024-11-08T21:00:00	6	Velocidad del viento	1.6
118870	7	Sololá	704	Santa Lucía Utatlán 	7	Santa Rita 	9	Septiembre	2023-09-22T00:00:00	2024-11-08T21:00:00	7	Dirección del viento	1.61
118871	7	Sololá	704	Santa Lucía Utatlán 	7	Santa Rita 	9	Septiembre	2023-09-22T00:00:00	2024-11-08T21:00:00	1	Precipitación	0.2
118872	7	Sololá	704	Santa Lucía Utatlán 	7	Santa Rita 	9	Septiembre	2023-09-22T00:00:00	2024-11-08T21:00:00	8	Radiación solar	0
118873	7	Sololá	704	Santa Lucía Utatlán 	7	Santa Rita 	9	Septiembre	2023-09-22T00:00:00	2024-11-08T22:00:00	2	Temperatura media	19.7
118874	7	Sololá	704	Santa Lucía Utatlán 	7	Santa Rita 	9	Septiembre	2023-09-22T00:00:00	2024-11-08T22:00:00	4	Temperatura máxima	19.9
118875	7	Sololá	704	Santa Lucía Utatlán 	7	Santa Rita 	9	Septiembre	2023-09-22T00:00:00	2024-11-08T22:00:00	3	Temperatura mínima	19.6
118876	7	Sololá	704	Santa Lucía Utatlán 	7	Santa Rita 	9	Septiembre	2023-09-22T00:00:00	2024-11-08T22:00:00	5	Humedad	92
118877	7	Sololá	704	Santa Lucía Utatlán 	7	Santa Rita 	9	Septiembre	2023-09-22T00:00:00	2024-11-08T22:00:00	6	Velocidad del viento	4.8
118878	7	Sololá	704	Santa Lucía Utatlán 	7	Santa Rita 	9	Septiembre	2023-09-22T00:00:00	2024-11-08T22:00:00	7	Dirección del viento	4.83
118879	7	Sololá	704	Santa Lucía Utatlán 	7	Santa Rita 	9	Septiembre	2023-09-22T00:00:00	2024-11-08T22:00:00	1	Precipitación	0
118880	7	Sololá	704	Santa Lucía Utatlán 	7	Santa Rita 	9	Septiembre	2023-09-22T00:00:00	2024-11-08T22:00:00	8	Radiación solar	0
118881	7	Sololá	704	Santa Lucía Utatlán 	7	Santa Rita 	9	Septiembre	2023-09-22T00:00:00	2024-11-08T23:00:00	2	Temperatura media	18.7
118882	7	Sololá	704	Santa Lucía Utatlán 	7	Santa Rita 	9	Septiembre	2023-09-22T00:00:00	2024-11-08T23:00:00	4	Temperatura máxima	19.7
118883	7	Sololá	704	Santa Lucía Utatlán 	7	Santa Rita 	9	Septiembre	2023-09-22T00:00:00	2024-11-08T23:00:00	3	Temperatura mínima	18.6
118884	7	Sololá	704	Santa Lucía Utatlán 	7	Santa Rita 	9	Septiembre	2023-09-22T00:00:00	2024-11-08T23:00:00	5	Humedad	94
118885	7	Sololá	704	Santa Lucía Utatlán 	7	Santa Rita 	9	Septiembre	2023-09-22T00:00:00	2024-11-08T23:00:00	6	Velocidad del viento	1.6
118886	7	Sololá	704	Santa Lucía Utatlán 	7	Santa Rita 	9	Septiembre	2023-09-22T00:00:00	2024-11-08T23:00:00	7	Dirección del viento	1.61
118887	7	Sololá	704	Santa Lucía Utatlán 	7	Santa Rita 	9	Septiembre	2023-09-22T00:00:00	2024-11-08T23:00:00	1	Precipitación	0
118888	7	Sololá	704	Santa Lucía Utatlán 	7	Santa Rita 	9	Septiembre	2023-09-22T00:00:00	2024-11-08T23:00:00	8	Radiación solar	0
118889	7	Sololá	704	Santa Lucía Utatlán 	7	Santa Rita 	9	Septiembre	2023-09-23T00:00:00	2024-11-08T00:00:00	2	Temperatura media	18
118890	7	Sololá	704	Santa Lucía Utatlán 	7	Santa Rita 	9	Septiembre	2023-09-23T00:00:00	2024-11-08T00:00:00	4	Temperatura máxima	18.7
118891	7	Sololá	704	Santa Lucía Utatlán 	7	Santa Rita 	9	Septiembre	2023-09-23T00:00:00	2024-11-08T00:00:00	3	Temperatura mínima	18
118892	7	Sololá	704	Santa Lucía Utatlán 	7	Santa Rita 	9	Septiembre	2023-09-23T00:00:00	2024-11-08T00:00:00	5	Humedad	92
118893	7	Sololá	704	Santa Lucía Utatlán 	7	Santa Rita 	9	Septiembre	2023-09-23T00:00:00	2024-11-08T00:00:00	6	Velocidad del viento	3.2
118894	7	Sololá	704	Santa Lucía Utatlán 	7	Santa Rita 	9	Septiembre	2023-09-23T00:00:00	2024-11-08T00:00:00	7	Dirección del viento	3.22
118895	7	Sololá	704	Santa Lucía Utatlán 	7	Santa Rita 	9	Septiembre	2023-09-23T00:00:00	2024-11-08T00:00:00	1	Precipitación	0
118896	7	Sololá	704	Santa Lucía Utatlán 	7	Santa Rita 	9	Septiembre	2023-09-23T00:00:00	2024-11-08T00:00:00	8	Radiación solar	0
118897	7	Sololá	704	Santa Lucía Utatlán 	7	Santa Rita 	9	Septiembre	2023-09-23T00:00:00	2024-11-08T01:00:00	2	Temperatura media	17.1
118898	7	Sololá	704	Santa Lucía Utatlán 	7	Santa Rita 	9	Septiembre	2023-09-23T00:00:00	2024-11-08T01:00:00	4	Temperatura máxima	18
118899	7	Sololá	704	Santa Lucía Utatlán 	7	Santa Rita 	9	Septiembre	2023-09-23T00:00:00	2024-11-08T01:00:00	3	Temperatura mínima	17.1
118900	7	Sololá	704	Santa Lucía Utatlán 	7	Santa Rita 	9	Septiembre	2023-09-23T00:00:00	2024-11-08T01:00:00	5	Humedad	91
118901	7	Sololá	704	Santa Lucía Utatlán 	7	Santa Rita 	9	Septiembre	2023-09-23T00:00:00	2024-11-08T01:00:00	6	Velocidad del viento	3.2
118902	7	Sololá	704	Santa Lucía Utatlán 	7	Santa Rita 	9	Septiembre	2023-09-23T00:00:00	2024-11-08T01:00:00	7	Dirección del viento	3.22
118903	7	Sololá	704	Santa Lucía Utatlán 	7	Santa Rita 	9	Septiembre	2023-09-23T00:00:00	2024-11-08T01:00:00	1	Precipitación	0
118904	7	Sololá	704	Santa Lucía Utatlán 	7	Santa Rita 	9	Septiembre	2023-09-23T00:00:00	2024-11-08T01:00:00	8	Radiación solar	0
118905	7	Sololá	704	Santa Lucía Utatlán 	7	Santa Rita 	9	Septiembre	2023-09-23T00:00:00	2024-11-08T02:00:00	2	Temperatura media	16.9
118906	7	Sololá	704	Santa Lucía Utatlán 	7	Santa Rita 	9	Septiembre	2023-09-23T00:00:00	2024-11-08T02:00:00	4	Temperatura máxima	17.1
118907	7	Sololá	704	Santa Lucía Utatlán 	7	Santa Rita 	9	Septiembre	2023-09-23T00:00:00	2024-11-08T02:00:00	3	Temperatura mínima	16.8
118908	7	Sololá	704	Santa Lucía Utatlán 	7	Santa Rita 	9	Septiembre	2023-09-23T00:00:00	2024-11-08T02:00:00	5	Humedad	90
118909	7	Sololá	704	Santa Lucía Utatlán 	7	Santa Rita 	9	Septiembre	2023-09-23T00:00:00	2024-11-08T02:00:00	6	Velocidad del viento	4.8
118910	7	Sololá	704	Santa Lucía Utatlán 	7	Santa Rita 	9	Septiembre	2023-09-23T00:00:00	2024-11-08T02:00:00	7	Dirección del viento	4.83
118911	7	Sololá	704	Santa Lucía Utatlán 	7	Santa Rita 	9	Septiembre	2023-09-23T00:00:00	2024-11-08T02:00:00	1	Precipitación	0
118912	7	Sololá	704	Santa Lucía Utatlán 	7	Santa Rita 	9	Septiembre	2023-09-23T00:00:00	2024-11-08T02:00:00	8	Radiación solar	0
118913	7	Sololá	704	Santa Lucía Utatlán 	7	Santa Rita 	9	Septiembre	2023-09-23T00:00:00	2024-11-08T03:00:00	2	Temperatura media	16.6
118914	7	Sololá	704	Santa Lucía Utatlán 	7	Santa Rita 	9	Septiembre	2023-09-23T00:00:00	2024-11-08T03:00:00	4	Temperatura máxima	16.9
118915	7	Sololá	704	Santa Lucía Utatlán 	7	Santa Rita 	9	Septiembre	2023-09-23T00:00:00	2024-11-08T03:00:00	3	Temperatura mínima	16.4
118916	7	Sololá	704	Santa Lucía Utatlán 	7	Santa Rita 	9	Septiembre	2023-09-23T00:00:00	2024-11-08T03:00:00	5	Humedad	88
118917	7	Sololá	704	Santa Lucía Utatlán 	7	Santa Rita 	9	Septiembre	2023-09-23T00:00:00	2024-11-08T03:00:00	6	Velocidad del viento	3.2
118918	7	Sololá	704	Santa Lucía Utatlán 	7	Santa Rita 	9	Septiembre	2023-09-23T00:00:00	2024-11-08T03:00:00	7	Dirección del viento	3.22
118919	7	Sololá	704	Santa Lucía Utatlán 	7	Santa Rita 	9	Septiembre	2023-09-23T00:00:00	2024-11-08T03:00:00	1	Precipitación	0
118920	7	Sololá	704	Santa Lucía Utatlán 	7	Santa Rita 	9	Septiembre	2023-09-23T00:00:00	2024-11-08T03:00:00	8	Radiación solar	0
118921	7	Sololá	704	Santa Lucía Utatlán 	7	Santa Rita 	9	Septiembre	2023-09-23T00:00:00	2024-11-08T04:00:00	2	Temperatura media	16.7
118922	7	Sololá	704	Santa Lucía Utatlán 	7	Santa Rita 	9	Septiembre	2023-09-23T00:00:00	2024-11-08T04:00:00	4	Temperatura máxima	16.9
118923	7	Sololá	704	Santa Lucía Utatlán 	7	Santa Rita 	9	Septiembre	2023-09-23T00:00:00	2024-11-08T04:00:00	3	Temperatura mínima	16.6
118924	7	Sololá	704	Santa Lucía Utatlán 	7	Santa Rita 	9	Septiembre	2023-09-23T00:00:00	2024-11-08T04:00:00	5	Humedad	86
118925	7	Sololá	704	Santa Lucía Utatlán 	7	Santa Rita 	9	Septiembre	2023-09-23T00:00:00	2024-11-08T04:00:00	6	Velocidad del viento	4.8
118926	7	Sololá	704	Santa Lucía Utatlán 	7	Santa Rita 	9	Septiembre	2023-09-23T00:00:00	2024-11-08T04:00:00	7	Dirección del viento	4.83
118927	7	Sololá	704	Santa Lucía Utatlán 	7	Santa Rita 	9	Septiembre	2023-09-23T00:00:00	2024-11-08T04:00:00	1	Precipitación	0
118928	7	Sololá	704	Santa Lucía Utatlán 	7	Santa Rita 	9	Septiembre	2023-09-23T00:00:00	2024-11-08T04:00:00	8	Radiación solar	0
118929	7	Sololá	704	Santa Lucía Utatlán 	7	Santa Rita 	9	Septiembre	2023-09-23T00:00:00	2024-11-08T05:00:00	2	Temperatura media	16.7
118930	7	Sololá	704	Santa Lucía Utatlán 	7	Santa Rita 	9	Septiembre	2023-09-23T00:00:00	2024-11-08T05:00:00	4	Temperatura máxima	16.8
118931	7	Sololá	704	Santa Lucía Utatlán 	7	Santa Rita 	9	Septiembre	2023-09-23T00:00:00	2024-11-08T05:00:00	3	Temperatura mínima	16.5
118932	7	Sololá	704	Santa Lucía Utatlán 	7	Santa Rita 	9	Septiembre	2023-09-23T00:00:00	2024-11-08T05:00:00	5	Humedad	83
118933	7	Sololá	704	Santa Lucía Utatlán 	7	Santa Rita 	9	Septiembre	2023-09-23T00:00:00	2024-11-08T05:00:00	6	Velocidad del viento	6.4
118934	7	Sololá	704	Santa Lucía Utatlán 	7	Santa Rita 	9	Septiembre	2023-09-23T00:00:00	2024-11-08T05:00:00	7	Dirección del viento	6.44
118935	7	Sololá	704	Santa Lucía Utatlán 	7	Santa Rita 	9	Septiembre	2023-09-23T00:00:00	2024-11-08T05:00:00	1	Precipitación	0
118936	7	Sololá	704	Santa Lucía Utatlán 	7	Santa Rita 	9	Septiembre	2023-09-23T00:00:00	2024-11-08T05:00:00	8	Radiación solar	0
118937	7	Sololá	704	Santa Lucía Utatlán 	7	Santa Rita 	9	Septiembre	2023-09-23T00:00:00	2024-11-08T06:00:00	2	Temperatura media	16.6
118938	7	Sololá	704	Santa Lucía Utatlán 	7	Santa Rita 	9	Septiembre	2023-09-23T00:00:00	2024-11-08T06:00:00	4	Temperatura máxima	16.7
118939	7	Sololá	704	Santa Lucía Utatlán 	7	Santa Rita 	9	Septiembre	2023-09-23T00:00:00	2024-11-08T06:00:00	3	Temperatura mínima	16
118940	7	Sololá	704	Santa Lucía Utatlán 	7	Santa Rita 	9	Septiembre	2023-09-23T00:00:00	2024-11-08T06:00:00	5	Humedad	83
118941	7	Sololá	704	Santa Lucía Utatlán 	7	Santa Rita 	9	Septiembre	2023-09-23T00:00:00	2024-11-08T06:00:00	6	Velocidad del viento	3.2
118942	7	Sololá	704	Santa Lucía Utatlán 	7	Santa Rita 	9	Septiembre	2023-09-23T00:00:00	2024-11-08T06:00:00	7	Dirección del viento	3.22
118943	7	Sololá	704	Santa Lucía Utatlán 	7	Santa Rita 	9	Septiembre	2023-09-23T00:00:00	2024-11-08T06:00:00	1	Precipitación	0
118944	7	Sololá	704	Santa Lucía Utatlán 	7	Santa Rita 	9	Septiembre	2023-09-23T00:00:00	2024-11-08T06:00:00	8	Radiación solar	4
118945	7	Sololá	704	Santa Lucía Utatlán 	7	Santa Rita 	9	Septiembre	2023-09-23T00:00:00	2024-11-08T07:00:00	2	Temperatura media	19.4
118946	7	Sololá	704	Santa Lucía Utatlán 	7	Santa Rita 	9	Septiembre	2023-09-23T00:00:00	2024-11-08T07:00:00	4	Temperatura máxima	19.4
118947	7	Sololá	704	Santa Lucía Utatlán 	7	Santa Rita 	9	Septiembre	2023-09-23T00:00:00	2024-11-08T07:00:00	3	Temperatura mínima	16.4
118948	7	Sololá	704	Santa Lucía Utatlán 	7	Santa Rita 	9	Septiembre	2023-09-23T00:00:00	2024-11-08T07:00:00	5	Humedad	75
118949	7	Sololá	704	Santa Lucía Utatlán 	7	Santa Rita 	9	Septiembre	2023-09-23T00:00:00	2024-11-08T07:00:00	6	Velocidad del viento	3.2
118950	7	Sololá	704	Santa Lucía Utatlán 	7	Santa Rita 	9	Septiembre	2023-09-23T00:00:00	2024-11-08T07:00:00	7	Dirección del viento	3.22
118951	7	Sololá	704	Santa Lucía Utatlán 	7	Santa Rita 	9	Septiembre	2023-09-23T00:00:00	2024-11-08T07:00:00	1	Precipitación	0
118952	7	Sololá	704	Santa Lucía Utatlán 	7	Santa Rita 	9	Septiembre	2023-09-23T00:00:00	2024-11-08T07:00:00	8	Radiación solar	145
118953	7	Sololá	704	Santa Lucía Utatlán 	7	Santa Rita 	9	Septiembre	2023-09-23T00:00:00	2024-11-08T08:00:00	2	Temperatura media	22.7
118954	7	Sololá	704	Santa Lucía Utatlán 	7	Santa Rita 	9	Septiembre	2023-09-23T00:00:00	2024-11-08T08:00:00	4	Temperatura máxima	22.7
118955	7	Sololá	704	Santa Lucía Utatlán 	7	Santa Rita 	9	Septiembre	2023-09-23T00:00:00	2024-11-08T08:00:00	3	Temperatura mínima	19.4
118956	7	Sololá	704	Santa Lucía Utatlán 	7	Santa Rita 	9	Septiembre	2023-09-23T00:00:00	2024-11-08T08:00:00	5	Humedad	68
118957	7	Sololá	704	Santa Lucía Utatlán 	7	Santa Rita 	9	Septiembre	2023-09-23T00:00:00	2024-11-08T08:00:00	6	Velocidad del viento	3.2
118958	7	Sololá	704	Santa Lucía Utatlán 	7	Santa Rita 	9	Septiembre	2023-09-23T00:00:00	2024-11-08T08:00:00	7	Dirección del viento	3.22
118959	7	Sololá	704	Santa Lucía Utatlán 	7	Santa Rita 	9	Septiembre	2023-09-23T00:00:00	2024-11-08T08:00:00	1	Precipitación	0
118960	7	Sololá	704	Santa Lucía Utatlán 	7	Santa Rita 	9	Septiembre	2023-09-23T00:00:00	2024-11-08T08:00:00	8	Radiación solar	421
118961	7	Sololá	704	Santa Lucía Utatlán 	7	Santa Rita 	9	Septiembre	2023-09-23T00:00:00	2024-11-08T09:00:00	2	Temperatura media	25.1
118962	7	Sololá	704	Santa Lucía Utatlán 	7	Santa Rita 	9	Septiembre	2023-09-23T00:00:00	2024-11-08T09:00:00	4	Temperatura máxima	25.1
118963	7	Sololá	704	Santa Lucía Utatlán 	7	Santa Rita 	9	Septiembre	2023-09-23T00:00:00	2024-11-08T09:00:00	3	Temperatura mínima	22.6
118964	7	Sololá	704	Santa Lucía Utatlán 	7	Santa Rita 	9	Septiembre	2023-09-23T00:00:00	2024-11-08T09:00:00	5	Humedad	60
118965	7	Sololá	704	Santa Lucía Utatlán 	7	Santa Rita 	9	Septiembre	2023-09-23T00:00:00	2024-11-08T09:00:00	6	Velocidad del viento	3.2
118966	7	Sololá	704	Santa Lucía Utatlán 	7	Santa Rita 	9	Septiembre	2023-09-23T00:00:00	2024-11-08T09:00:00	7	Dirección del viento	3.22
118967	7	Sololá	704	Santa Lucía Utatlán 	7	Santa Rita 	9	Septiembre	2023-09-23T00:00:00	2024-11-08T09:00:00	1	Precipitación	0
118968	7	Sololá	704	Santa Lucía Utatlán 	7	Santa Rita 	9	Septiembre	2023-09-23T00:00:00	2024-11-08T09:00:00	8	Radiación solar	645
118969	7	Sololá	704	Santa Lucía Utatlán 	7	Santa Rita 	9	Septiembre	2023-09-23T00:00:00	2024-11-08T10:00:00	2	Temperatura media	25.4
118970	7	Sololá	704	Santa Lucía Utatlán 	7	Santa Rita 	9	Septiembre	2023-09-23T00:00:00	2024-11-08T10:00:00	4	Temperatura máxima	26.2
118971	7	Sololá	704	Santa Lucía Utatlán 	7	Santa Rita 	9	Septiembre	2023-09-23T00:00:00	2024-11-08T10:00:00	3	Temperatura mínima	25
118972	7	Sololá	704	Santa Lucía Utatlán 	7	Santa Rita 	9	Septiembre	2023-09-23T00:00:00	2024-11-08T10:00:00	5	Humedad	55
118973	7	Sololá	704	Santa Lucía Utatlán 	7	Santa Rita 	9	Septiembre	2023-09-23T00:00:00	2024-11-08T10:00:00	6	Velocidad del viento	6.4
118974	7	Sololá	704	Santa Lucía Utatlán 	7	Santa Rita 	9	Septiembre	2023-09-23T00:00:00	2024-11-08T10:00:00	7	Dirección del viento	6.44
118975	7	Sololá	704	Santa Lucía Utatlán 	7	Santa Rita 	9	Septiembre	2023-09-23T00:00:00	2024-11-08T10:00:00	1	Precipitación	0
118976	7	Sololá	704	Santa Lucía Utatlán 	7	Santa Rita 	9	Septiembre	2023-09-23T00:00:00	2024-11-08T10:00:00	8	Radiación solar	842
118977	7	Sololá	704	Santa Lucía Utatlán 	7	Santa Rita 	9	Septiembre	2023-09-23T00:00:00	2024-11-08T11:00:00	2	Temperatura media	26.1
118978	7	Sololá	704	Santa Lucía Utatlán 	7	Santa Rita 	9	Septiembre	2023-09-23T00:00:00	2024-11-08T11:00:00	4	Temperatura máxima	26.1
118979	7	Sololá	704	Santa Lucía Utatlán 	7	Santa Rita 	9	Septiembre	2023-09-23T00:00:00	2024-11-08T11:00:00	3	Temperatura mínima	25.4
118980	7	Sololá	704	Santa Lucía Utatlán 	7	Santa Rita 	9	Septiembre	2023-09-23T00:00:00	2024-11-08T11:00:00	5	Humedad	56
118981	7	Sololá	704	Santa Lucía Utatlán 	7	Santa Rita 	9	Septiembre	2023-09-23T00:00:00	2024-11-08T11:00:00	6	Velocidad del viento	9.7
118982	7	Sololá	704	Santa Lucía Utatlán 	7	Santa Rita 	9	Septiembre	2023-09-23T00:00:00	2024-11-08T11:00:00	7	Dirección del viento	9.66
118983	7	Sololá	704	Santa Lucía Utatlán 	7	Santa Rita 	9	Septiembre	2023-09-23T00:00:00	2024-11-08T11:00:00	1	Precipitación	0
118984	7	Sololá	704	Santa Lucía Utatlán 	7	Santa Rita 	9	Septiembre	2023-09-23T00:00:00	2024-11-08T11:00:00	8	Radiación solar	951
118985	7	Sololá	704	Santa Lucía Utatlán 	7	Santa Rita 	9	Septiembre	2023-09-23T00:00:00	2024-11-08T12:00:00	2	Temperatura media	26.1
118986	7	Sololá	704	Santa Lucía Utatlán 	7	Santa Rita 	9	Septiembre	2023-09-23T00:00:00	2024-11-08T12:00:00	4	Temperatura máxima	27.1
118987	7	Sololá	704	Santa Lucía Utatlán 	7	Santa Rita 	9	Septiembre	2023-09-23T00:00:00	2024-11-08T12:00:00	3	Temperatura mínima	25.9
118988	7	Sololá	704	Santa Lucía Utatlán 	7	Santa Rita 	9	Septiembre	2023-09-23T00:00:00	2024-11-08T12:00:00	5	Humedad	55
118989	7	Sololá	704	Santa Lucía Utatlán 	7	Santa Rita 	9	Septiembre	2023-09-23T00:00:00	2024-11-08T12:00:00	6	Velocidad del viento	6.4
118990	7	Sololá	704	Santa Lucía Utatlán 	7	Santa Rita 	9	Septiembre	2023-09-23T00:00:00	2024-11-08T12:00:00	7	Dirección del viento	6.44
118991	7	Sololá	704	Santa Lucía Utatlán 	7	Santa Rita 	9	Septiembre	2023-09-23T00:00:00	2024-11-08T12:00:00	1	Precipitación	0
118992	7	Sololá	704	Santa Lucía Utatlán 	7	Santa Rita 	9	Septiembre	2023-09-23T00:00:00	2024-11-08T12:00:00	8	Radiación solar	990
118993	7	Sololá	704	Santa Lucía Utatlán 	7	Santa Rita 	9	Septiembre	2023-09-23T00:00:00	2024-11-08T13:00:00	2	Temperatura media	26.5
118994	7	Sololá	704	Santa Lucía Utatlán 	7	Santa Rita 	9	Septiembre	2023-09-23T00:00:00	2024-11-08T13:00:00	4	Temperatura máxima	26.8
118995	7	Sololá	704	Santa Lucía Utatlán 	7	Santa Rita 	9	Septiembre	2023-09-23T00:00:00	2024-11-08T13:00:00	3	Temperatura mínima	25.7
118996	7	Sololá	704	Santa Lucía Utatlán 	7	Santa Rita 	9	Septiembre	2023-09-23T00:00:00	2024-11-08T13:00:00	5	Humedad	55
118997	7	Sololá	704	Santa Lucía Utatlán 	7	Santa Rita 	9	Septiembre	2023-09-23T00:00:00	2024-11-08T13:00:00	6	Velocidad del viento	11.3
118998	7	Sololá	704	Santa Lucía Utatlán 	7	Santa Rita 	9	Septiembre	2023-09-23T00:00:00	2024-11-08T13:00:00	7	Dirección del viento	11.27
118999	7	Sololá	704	Santa Lucía Utatlán 	7	Santa Rita 	9	Septiembre	2023-09-23T00:00:00	2024-11-08T13:00:00	1	Precipitación	0
119000	7	Sololá	704	Santa Lucía Utatlán 	7	Santa Rita 	9	Septiembre	2023-09-23T00:00:00	2024-11-08T13:00:00	8	Radiación solar	980
119001	7	Sololá	704	Santa Lucía Utatlán 	7	Santa Rita 	9	Septiembre	2023-09-23T00:00:00	2024-11-08T14:00:00	2	Temperatura media	26
119002	7	Sololá	704	Santa Lucía Utatlán 	7	Santa Rita 	9	Septiembre	2023-09-23T00:00:00	2024-11-08T14:00:00	4	Temperatura máxima	26.5
119003	7	Sololá	704	Santa Lucía Utatlán 	7	Santa Rita 	9	Septiembre	2023-09-23T00:00:00	2024-11-08T14:00:00	3	Temperatura mínima	25.8
119004	7	Sololá	704	Santa Lucía Utatlán 	7	Santa Rita 	9	Septiembre	2023-09-23T00:00:00	2024-11-08T14:00:00	5	Humedad	59
119005	7	Sololá	704	Santa Lucía Utatlán 	7	Santa Rita 	9	Septiembre	2023-09-23T00:00:00	2024-11-08T14:00:00	6	Velocidad del viento	11.3
119006	7	Sololá	704	Santa Lucía Utatlán 	7	Santa Rita 	9	Septiembre	2023-09-23T00:00:00	2024-11-08T14:00:00	7	Dirección del viento	11.27
119007	7	Sololá	704	Santa Lucía Utatlán 	7	Santa Rita 	9	Septiembre	2023-09-23T00:00:00	2024-11-08T14:00:00	1	Precipitación	0
119008	7	Sololá	704	Santa Lucía Utatlán 	7	Santa Rita 	9	Septiembre	2023-09-23T00:00:00	2024-11-08T14:00:00	8	Radiación solar	983
119009	7	Sololá	704	Santa Lucía Utatlán 	7	Santa Rita 	9	Septiembre	2023-09-23T00:00:00	2024-11-08T15:00:00	2	Temperatura media	23.9
119010	7	Sololá	704	Santa Lucía Utatlán 	7	Santa Rita 	9	Septiembre	2023-09-23T00:00:00	2024-11-08T15:00:00	4	Temperatura máxima	26.2
119011	7	Sololá	704	Santa Lucía Utatlán 	7	Santa Rita 	9	Septiembre	2023-09-23T00:00:00	2024-11-08T15:00:00	3	Temperatura mínima	23.9
119012	7	Sololá	704	Santa Lucía Utatlán 	7	Santa Rita 	9	Septiembre	2023-09-23T00:00:00	2024-11-08T15:00:00	5	Humedad	79
119013	7	Sololá	704	Santa Lucía Utatlán 	7	Santa Rita 	9	Septiembre	2023-09-23T00:00:00	2024-11-08T15:00:00	6	Velocidad del viento	9.7
119014	7	Sololá	704	Santa Lucía Utatlán 	7	Santa Rita 	9	Septiembre	2023-09-23T00:00:00	2024-11-08T15:00:00	7	Dirección del viento	9.66
119015	7	Sololá	704	Santa Lucía Utatlán 	7	Santa Rita 	9	Septiembre	2023-09-23T00:00:00	2024-11-08T15:00:00	1	Precipitación	0
119016	7	Sololá	704	Santa Lucía Utatlán 	7	Santa Rita 	9	Septiembre	2023-09-23T00:00:00	2024-11-08T15:00:00	8	Radiación solar	317
119017	7	Sololá	704	Santa Lucía Utatlán 	7	Santa Rita 	9	Septiembre	2023-09-23T00:00:00	2024-11-08T16:00:00	2	Temperatura media	24.1
119018	7	Sololá	704	Santa Lucía Utatlán 	7	Santa Rita 	9	Septiembre	2023-09-23T00:00:00	2024-11-08T16:00:00	4	Temperatura máxima	24.2
119019	7	Sololá	704	Santa Lucía Utatlán 	7	Santa Rita 	9	Septiembre	2023-09-23T00:00:00	2024-11-08T16:00:00	3	Temperatura mínima	23.7
119020	7	Sololá	704	Santa Lucía Utatlán 	7	Santa Rita 	9	Septiembre	2023-09-23T00:00:00	2024-11-08T16:00:00	5	Humedad	79
119021	7	Sololá	704	Santa Lucía Utatlán 	7	Santa Rita 	9	Septiembre	2023-09-23T00:00:00	2024-11-08T16:00:00	6	Velocidad del viento	6.4
119022	7	Sololá	704	Santa Lucía Utatlán 	7	Santa Rita 	9	Septiembre	2023-09-23T00:00:00	2024-11-08T16:00:00	7	Dirección del viento	6.44
119023	7	Sololá	704	Santa Lucía Utatlán 	7	Santa Rita 	9	Septiembre	2023-09-23T00:00:00	2024-11-08T16:00:00	1	Precipitación	0
119024	7	Sololá	704	Santa Lucía Utatlán 	7	Santa Rita 	9	Septiembre	2023-09-23T00:00:00	2024-11-08T16:00:00	8	Radiación solar	173
119025	7	Sololá	704	Santa Lucía Utatlán 	7	Santa Rita 	9	Septiembre	2023-09-23T00:00:00	2024-11-08T17:00:00	2	Temperatura media	23.5
119026	7	Sololá	704	Santa Lucía Utatlán 	7	Santa Rita 	9	Septiembre	2023-09-23T00:00:00	2024-11-08T17:00:00	4	Temperatura máxima	24.1
119027	7	Sololá	704	Santa Lucía Utatlán 	7	Santa Rita 	9	Septiembre	2023-09-23T00:00:00	2024-11-08T17:00:00	3	Temperatura mínima	23
119028	7	Sololá	704	Santa Lucía Utatlán 	7	Santa Rita 	9	Septiembre	2023-09-23T00:00:00	2024-11-08T17:00:00	5	Humedad	73
119029	7	Sololá	704	Santa Lucía Utatlán 	7	Santa Rita 	9	Septiembre	2023-09-23T00:00:00	2024-11-08T17:00:00	6	Velocidad del viento	6.4
119030	7	Sololá	704	Santa Lucía Utatlán 	7	Santa Rita 	9	Septiembre	2023-09-23T00:00:00	2024-11-08T17:00:00	7	Dirección del viento	6.44
119031	7	Sololá	704	Santa Lucía Utatlán 	7	Santa Rita 	9	Septiembre	2023-09-23T00:00:00	2024-11-08T17:00:00	1	Precipitación	0
119032	7	Sololá	704	Santa Lucía Utatlán 	7	Santa Rita 	9	Septiembre	2023-09-23T00:00:00	2024-11-08T17:00:00	8	Radiación solar	77
119033	7	Sololá	704	Santa Lucía Utatlán 	7	Santa Rita 	9	Septiembre	2023-09-23T00:00:00	2024-11-08T18:00:00	2	Temperatura media	21
119034	7	Sololá	704	Santa Lucía Utatlán 	7	Santa Rita 	9	Septiembre	2023-09-23T00:00:00	2024-11-08T18:00:00	4	Temperatura máxima	23.4
119035	7	Sololá	704	Santa Lucía Utatlán 	7	Santa Rita 	9	Septiembre	2023-09-23T00:00:00	2024-11-08T18:00:00	3	Temperatura mínima	21
119036	7	Sololá	704	Santa Lucía Utatlán 	7	Santa Rita 	9	Septiembre	2023-09-23T00:00:00	2024-11-08T18:00:00	5	Humedad	85
119037	7	Sololá	704	Santa Lucía Utatlán 	7	Santa Rita 	9	Septiembre	2023-09-23T00:00:00	2024-11-08T18:00:00	6	Velocidad del viento	3.2
119038	7	Sololá	704	Santa Lucía Utatlán 	7	Santa Rita 	9	Septiembre	2023-09-23T00:00:00	2024-11-08T18:00:00	7	Dirección del viento	3.22
119039	7	Sololá	704	Santa Lucía Utatlán 	7	Santa Rita 	9	Septiembre	2023-09-23T00:00:00	2024-11-08T18:00:00	1	Precipitación	0
119040	7	Sololá	704	Santa Lucía Utatlán 	7	Santa Rita 	9	Septiembre	2023-09-23T00:00:00	2024-11-08T18:00:00	8	Radiación solar	4
119041	7	Sololá	704	Santa Lucía Utatlán 	7	Santa Rita 	9	Septiembre	2023-09-23T00:00:00	2024-11-08T19:00:00	2	Temperatura media	20.9
119042	7	Sololá	704	Santa Lucía Utatlán 	7	Santa Rita 	9	Septiembre	2023-09-23T00:00:00	2024-11-08T19:00:00	4	Temperatura máxima	21
119043	7	Sololá	704	Santa Lucía Utatlán 	7	Santa Rita 	9	Septiembre	2023-09-23T00:00:00	2024-11-08T19:00:00	3	Temperatura mínima	20.3
119044	7	Sololá	704	Santa Lucía Utatlán 	7	Santa Rita 	9	Septiembre	2023-09-23T00:00:00	2024-11-08T19:00:00	5	Humedad	91
119045	7	Sololá	704	Santa Lucía Utatlán 	7	Santa Rita 	9	Septiembre	2023-09-23T00:00:00	2024-11-08T19:00:00	6	Velocidad del viento	1.6
119046	7	Sololá	704	Santa Lucía Utatlán 	7	Santa Rita 	9	Septiembre	2023-09-23T00:00:00	2024-11-08T19:00:00	7	Dirección del viento	1.61
119047	7	Sololá	704	Santa Lucía Utatlán 	7	Santa Rita 	9	Septiembre	2023-09-23T00:00:00	2024-11-08T19:00:00	1	Precipitación	0
119048	7	Sololá	704	Santa Lucía Utatlán 	7	Santa Rita 	9	Septiembre	2023-09-23T00:00:00	2024-11-08T19:00:00	8	Radiación solar	0
119049	7	Sololá	704	Santa Lucía Utatlán 	7	Santa Rita 	9	Septiembre	2023-09-23T00:00:00	2024-11-08T20:00:00	2	Temperatura media	20.7
119050	7	Sololá	704	Santa Lucía Utatlán 	7	Santa Rita 	9	Septiembre	2023-09-23T00:00:00	2024-11-08T20:00:00	4	Temperatura máxima	21.2
119051	7	Sololá	704	Santa Lucía Utatlán 	7	Santa Rita 	9	Septiembre	2023-09-23T00:00:00	2024-11-08T20:00:00	3	Temperatura mínima	20.7
119052	7	Sololá	704	Santa Lucía Utatlán 	7	Santa Rita 	9	Septiembre	2023-09-23T00:00:00	2024-11-08T20:00:00	5	Humedad	93
119053	7	Sololá	704	Santa Lucía Utatlán 	7	Santa Rita 	9	Septiembre	2023-09-23T00:00:00	2024-11-08T20:00:00	6	Velocidad del viento	1.6
119054	7	Sololá	704	Santa Lucía Utatlán 	7	Santa Rita 	9	Septiembre	2023-09-23T00:00:00	2024-11-08T20:00:00	7	Dirección del viento	1.61
119055	7	Sololá	704	Santa Lucía Utatlán 	7	Santa Rita 	9	Septiembre	2023-09-23T00:00:00	2024-11-08T20:00:00	1	Precipitación	0
119056	7	Sololá	704	Santa Lucía Utatlán 	7	Santa Rita 	9	Septiembre	2023-09-23T00:00:00	2024-11-08T20:00:00	8	Radiación solar	0
119057	7	Sololá	704	Santa Lucía Utatlán 	7	Santa Rita 	9	Septiembre	2023-09-23T00:00:00	2024-11-08T21:00:00	2	Temperatura media	17.6
119058	7	Sololá	704	Santa Lucía Utatlán 	7	Santa Rita 	9	Septiembre	2023-09-23T00:00:00	2024-11-08T21:00:00	4	Temperatura máxima	18.3
119059	7	Sololá	704	Santa Lucía Utatlán 	7	Santa Rita 	9	Septiembre	2023-09-23T00:00:00	2024-11-08T21:00:00	3	Temperatura mínima	17.5
119060	7	Sololá	704	Santa Lucía Utatlán 	7	Santa Rita 	9	Septiembre	2023-09-23T00:00:00	2024-11-08T21:00:00	5	Humedad	88
119061	7	Sololá	704	Santa Lucía Utatlán 	7	Santa Rita 	9	Septiembre	2023-09-23T00:00:00	2024-11-08T21:00:00	6	Velocidad del viento	3.2
119062	7	Sololá	704	Santa Lucía Utatlán 	7	Santa Rita 	9	Septiembre	2023-09-23T00:00:00	2024-11-08T21:00:00	7	Dirección del viento	3.22
119063	7	Sololá	704	Santa Lucía Utatlán 	7	Santa Rita 	9	Septiembre	2023-09-23T00:00:00	2024-11-08T21:00:00	1	Precipitación	0
119064	7	Sololá	704	Santa Lucía Utatlán 	7	Santa Rita 	9	Septiembre	2023-09-23T00:00:00	2024-11-08T21:00:00	8	Radiación solar	0
119065	7	Sololá	704	Santa Lucía Utatlán 	7	Santa Rita 	9	Septiembre	2023-09-23T00:00:00	2024-11-08T22:00:00	2	Temperatura media	16.7
119066	7	Sololá	704	Santa Lucía Utatlán 	7	Santa Rita 	9	Septiembre	2023-09-23T00:00:00	2024-11-08T22:00:00	4	Temperatura máxima	17.6
119067	7	Sololá	704	Santa Lucía Utatlán 	7	Santa Rita 	9	Septiembre	2023-09-23T00:00:00	2024-11-08T22:00:00	3	Temperatura mínima	16.6
119068	7	Sololá	704	Santa Lucía Utatlán 	7	Santa Rita 	9	Septiembre	2023-09-23T00:00:00	2024-11-08T22:00:00	5	Humedad	90
119069	7	Sololá	704	Santa Lucía Utatlán 	7	Santa Rita 	9	Septiembre	2023-09-23T00:00:00	2024-11-08T22:00:00	6	Velocidad del viento	1.6
119070	7	Sololá	704	Santa Lucía Utatlán 	7	Santa Rita 	9	Septiembre	2023-09-23T00:00:00	2024-11-08T22:00:00	7	Dirección del viento	1.61
119071	7	Sololá	704	Santa Lucía Utatlán 	7	Santa Rita 	9	Septiembre	2023-09-23T00:00:00	2024-11-08T22:00:00	1	Precipitación	0
119072	7	Sololá	704	Santa Lucía Utatlán 	7	Santa Rita 	9	Septiembre	2023-09-23T00:00:00	2024-11-08T22:00:00	8	Radiación solar	0
119073	7	Sololá	704	Santa Lucía Utatlán 	7	Santa Rita 	9	Septiembre	2023-09-23T00:00:00	2024-11-08T23:00:00	2	Temperatura media	17
119074	7	Sololá	704	Santa Lucía Utatlán 	7	Santa Rita 	9	Septiembre	2023-09-23T00:00:00	2024-11-08T23:00:00	4	Temperatura máxima	17.4
119075	7	Sololá	704	Santa Lucía Utatlán 	7	Santa Rita 	9	Septiembre	2023-09-23T00:00:00	2024-11-08T23:00:00	3	Temperatura mínima	16.5
119076	7	Sololá	704	Santa Lucía Utatlán 	7	Santa Rita 	9	Septiembre	2023-09-23T00:00:00	2024-11-08T23:00:00	5	Humedad	89
119077	7	Sololá	704	Santa Lucía Utatlán 	7	Santa Rita 	9	Septiembre	2023-09-23T00:00:00	2024-11-08T23:00:00	6	Velocidad del viento	3.2
119078	7	Sololá	704	Santa Lucía Utatlán 	7	Santa Rita 	9	Septiembre	2023-09-23T00:00:00	2024-11-08T23:00:00	7	Dirección del viento	3.22
119079	7	Sololá	704	Santa Lucía Utatlán 	7	Santa Rita 	9	Septiembre	2023-09-23T00:00:00	2024-11-08T23:00:00	1	Precipitación	0
119080	7	Sololá	704	Santa Lucía Utatlán 	7	Santa Rita 	9	Septiembre	2023-09-23T00:00:00	2024-11-08T23:00:00	8	Radiación solar	0
119081	7	Sololá	704	Santa Lucía Utatlán 	7	Santa Rita 	9	Septiembre	2023-09-24T00:00:00	2024-11-08T00:00:00	2	Temperatura media	16.6
119082	7	Sololá	704	Santa Lucía Utatlán 	7	Santa Rita 	9	Septiembre	2023-09-24T00:00:00	2024-11-08T00:00:00	4	Temperatura máxima	17
119083	7	Sololá	704	Santa Lucía Utatlán 	7	Santa Rita 	9	Septiembre	2023-09-24T00:00:00	2024-11-08T00:00:00	3	Temperatura mínima	16.6
119084	7	Sololá	704	Santa Lucía Utatlán 	7	Santa Rita 	9	Septiembre	2023-09-24T00:00:00	2024-11-08T00:00:00	5	Humedad	89
119085	7	Sololá	704	Santa Lucía Utatlán 	7	Santa Rita 	9	Septiembre	2023-09-24T00:00:00	2024-11-08T00:00:00	6	Velocidad del viento	3.2
119086	7	Sololá	704	Santa Lucía Utatlán 	7	Santa Rita 	9	Septiembre	2023-09-24T00:00:00	2024-11-08T00:00:00	7	Dirección del viento	3.22
119087	7	Sololá	704	Santa Lucía Utatlán 	7	Santa Rita 	9	Septiembre	2023-09-24T00:00:00	2024-11-08T00:00:00	1	Precipitación	0
119088	7	Sololá	704	Santa Lucía Utatlán 	7	Santa Rita 	9	Septiembre	2023-09-24T00:00:00	2024-11-08T00:00:00	8	Radiación solar	0
119089	7	Sololá	704	Santa Lucía Utatlán 	7	Santa Rita 	9	Septiembre	2023-09-24T00:00:00	2024-11-08T01:00:00	2	Temperatura media	16.1
119090	7	Sololá	704	Santa Lucía Utatlán 	7	Santa Rita 	9	Septiembre	2023-09-24T00:00:00	2024-11-08T01:00:00	4	Temperatura máxima	16.7
119091	7	Sololá	704	Santa Lucía Utatlán 	7	Santa Rita 	9	Septiembre	2023-09-24T00:00:00	2024-11-08T01:00:00	3	Temperatura mínima	15.8
119092	7	Sololá	704	Santa Lucía Utatlán 	7	Santa Rita 	9	Septiembre	2023-09-24T00:00:00	2024-11-08T01:00:00	5	Humedad	91
119093	7	Sololá	704	Santa Lucía Utatlán 	7	Santa Rita 	9	Septiembre	2023-09-24T00:00:00	2024-11-08T01:00:00	6	Velocidad del viento	3.2
119094	7	Sololá	704	Santa Lucía Utatlán 	7	Santa Rita 	9	Septiembre	2023-09-24T00:00:00	2024-11-08T01:00:00	7	Dirección del viento	3.22
119095	7	Sololá	704	Santa Lucía Utatlán 	7	Santa Rita 	9	Septiembre	2023-09-24T00:00:00	2024-11-08T01:00:00	1	Precipitación	0
119096	7	Sololá	704	Santa Lucía Utatlán 	7	Santa Rita 	9	Septiembre	2023-09-24T00:00:00	2024-11-08T01:00:00	8	Radiación solar	0
119097	7	Sololá	704	Santa Lucía Utatlán 	7	Santa Rita 	9	Septiembre	2023-09-24T00:00:00	2024-11-08T02:00:00	2	Temperatura media	16.4
119098	7	Sololá	704	Santa Lucía Utatlán 	7	Santa Rita 	9	Septiembre	2023-09-24T00:00:00	2024-11-08T02:00:00	4	Temperatura máxima	16.4
119099	7	Sololá	704	Santa Lucía Utatlán 	7	Santa Rita 	9	Septiembre	2023-09-24T00:00:00	2024-11-08T02:00:00	3	Temperatura mínima	16.1
119100	7	Sololá	704	Santa Lucía Utatlán 	7	Santa Rita 	9	Septiembre	2023-09-24T00:00:00	2024-11-08T02:00:00	5	Humedad	90
119101	7	Sololá	704	Santa Lucía Utatlán 	7	Santa Rita 	9	Septiembre	2023-09-24T00:00:00	2024-11-08T02:00:00	6	Velocidad del viento	4.8
119102	7	Sololá	704	Santa Lucía Utatlán 	7	Santa Rita 	9	Septiembre	2023-09-24T00:00:00	2024-11-08T02:00:00	7	Dirección del viento	4.83
119103	7	Sololá	704	Santa Lucía Utatlán 	7	Santa Rita 	9	Septiembre	2023-09-24T00:00:00	2024-11-08T02:00:00	1	Precipitación	0
119104	7	Sololá	704	Santa Lucía Utatlán 	7	Santa Rita 	9	Septiembre	2023-09-24T00:00:00	2024-11-08T02:00:00	8	Radiación solar	0
119105	7	Sololá	704	Santa Lucía Utatlán 	7	Santa Rita 	9	Septiembre	2023-09-24T00:00:00	2024-11-08T03:00:00	2	Temperatura media	16.4
119106	7	Sololá	704	Santa Lucía Utatlán 	7	Santa Rita 	9	Septiembre	2023-09-24T00:00:00	2024-11-08T03:00:00	4	Temperatura máxima	16.7
119107	7	Sololá	704	Santa Lucía Utatlán 	7	Santa Rita 	9	Septiembre	2023-09-24T00:00:00	2024-11-08T03:00:00	3	Temperatura mínima	16.2
119108	7	Sololá	704	Santa Lucía Utatlán 	7	Santa Rita 	9	Septiembre	2023-09-24T00:00:00	2024-11-08T03:00:00	5	Humedad	90
119109	7	Sololá	704	Santa Lucía Utatlán 	7	Santa Rita 	9	Septiembre	2023-09-24T00:00:00	2024-11-08T03:00:00	6	Velocidad del viento	4.8
119110	7	Sololá	704	Santa Lucía Utatlán 	7	Santa Rita 	9	Septiembre	2023-09-24T00:00:00	2024-11-08T03:00:00	7	Dirección del viento	4.83
119111	7	Sololá	704	Santa Lucía Utatlán 	7	Santa Rita 	9	Septiembre	2023-09-24T00:00:00	2024-11-08T03:00:00	1	Precipitación	0
119112	7	Sololá	704	Santa Lucía Utatlán 	7	Santa Rita 	9	Septiembre	2023-09-24T00:00:00	2024-11-08T03:00:00	8	Radiación solar	0
119113	7	Sololá	704	Santa Lucía Utatlán 	7	Santa Rita 	9	Septiembre	2023-09-24T00:00:00	2024-11-08T04:00:00	2	Temperatura media	19.5
119114	7	Sololá	704	Santa Lucía Utatlán 	7	Santa Rita 	9	Septiembre	2023-09-24T00:00:00	2024-11-08T04:00:00	4	Temperatura máxima	19.5
119115	7	Sololá	704	Santa Lucía Utatlán 	7	Santa Rita 	9	Septiembre	2023-09-24T00:00:00	2024-11-08T04:00:00	3	Temperatura mínima	16.4
119116	7	Sololá	704	Santa Lucía Utatlán 	7	Santa Rita 	9	Septiembre	2023-09-24T00:00:00	2024-11-08T04:00:00	5	Humedad	85
119117	7	Sololá	704	Santa Lucía Utatlán 	7	Santa Rita 	9	Septiembre	2023-09-24T00:00:00	2024-11-08T04:00:00	6	Velocidad del viento	3.2
119118	7	Sololá	704	Santa Lucía Utatlán 	7	Santa Rita 	9	Septiembre	2023-09-24T00:00:00	2024-11-08T04:00:00	7	Dirección del viento	3.22
119119	7	Sololá	704	Santa Lucía Utatlán 	7	Santa Rita 	9	Septiembre	2023-09-24T00:00:00	2024-11-08T04:00:00	1	Precipitación	0
119120	7	Sololá	704	Santa Lucía Utatlán 	7	Santa Rita 	9	Septiembre	2023-09-24T00:00:00	2024-11-08T04:00:00	8	Radiación solar	0
119121	7	Sololá	704	Santa Lucía Utatlán 	7	Santa Rita 	9	Septiembre	2023-09-24T00:00:00	2024-11-08T05:00:00	2	Temperatura media	20.1
119122	7	Sololá	704	Santa Lucía Utatlán 	7	Santa Rita 	9	Septiembre	2023-09-24T00:00:00	2024-11-08T05:00:00	4	Temperatura máxima	21
119123	7	Sololá	704	Santa Lucía Utatlán 	7	Santa Rita 	9	Septiembre	2023-09-24T00:00:00	2024-11-08T05:00:00	3	Temperatura mínima	19.5
119124	7	Sololá	704	Santa Lucía Utatlán 	7	Santa Rita 	9	Septiembre	2023-09-24T00:00:00	2024-11-08T05:00:00	5	Humedad	84
119125	7	Sololá	704	Santa Lucía Utatlán 	7	Santa Rita 	9	Septiembre	2023-09-24T00:00:00	2024-11-08T05:00:00	6	Velocidad del viento	4.8
119126	7	Sololá	704	Santa Lucía Utatlán 	7	Santa Rita 	9	Septiembre	2023-09-24T00:00:00	2024-11-08T05:00:00	7	Dirección del viento	4.83
119127	7	Sololá	704	Santa Lucía Utatlán 	7	Santa Rita 	9	Septiembre	2023-09-24T00:00:00	2024-11-08T05:00:00	1	Precipitación	0
119128	7	Sololá	704	Santa Lucía Utatlán 	7	Santa Rita 	9	Septiembre	2023-09-24T00:00:00	2024-11-08T05:00:00	8	Radiación solar	0
119129	7	Sololá	704	Santa Lucía Utatlán 	7	Santa Rita 	9	Septiembre	2023-09-24T00:00:00	2024-11-08T06:00:00	2	Temperatura media	21.8
119130	7	Sololá	704	Santa Lucía Utatlán 	7	Santa Rita 	9	Septiembre	2023-09-24T00:00:00	2024-11-08T06:00:00	4	Temperatura máxima	21.9
119131	7	Sololá	704	Santa Lucía Utatlán 	7	Santa Rita 	9	Septiembre	2023-09-24T00:00:00	2024-11-08T06:00:00	3	Temperatura mínima	20.1
119132	7	Sololá	704	Santa Lucía Utatlán 	7	Santa Rita 	9	Septiembre	2023-09-24T00:00:00	2024-11-08T06:00:00	5	Humedad	76
119133	7	Sololá	704	Santa Lucía Utatlán 	7	Santa Rita 	9	Septiembre	2023-09-24T00:00:00	2024-11-08T06:00:00	6	Velocidad del viento	4.8
119134	7	Sololá	704	Santa Lucía Utatlán 	7	Santa Rita 	9	Septiembre	2023-09-24T00:00:00	2024-11-08T06:00:00	7	Dirección del viento	4.83
119135	7	Sololá	704	Santa Lucía Utatlán 	7	Santa Rita 	9	Septiembre	2023-09-24T00:00:00	2024-11-08T06:00:00	1	Precipitación	0
119136	7	Sololá	704	Santa Lucía Utatlán 	7	Santa Rita 	9	Septiembre	2023-09-24T00:00:00	2024-11-08T06:00:00	8	Radiación solar	5
119137	7	Sololá	704	Santa Lucía Utatlán 	7	Santa Rita 	9	Septiembre	2023-09-24T00:00:00	2024-11-08T07:00:00	2	Temperatura media	24.1
119138	7	Sololá	704	Santa Lucía Utatlán 	7	Santa Rita 	9	Septiembre	2023-09-24T00:00:00	2024-11-08T07:00:00	4	Temperatura máxima	24.2
119139	7	Sololá	704	Santa Lucía Utatlán 	7	Santa Rita 	9	Septiembre	2023-09-24T00:00:00	2024-11-08T07:00:00	3	Temperatura mínima	21.8
119140	7	Sololá	704	Santa Lucía Utatlán 	7	Santa Rita 	9	Septiembre	2023-09-24T00:00:00	2024-11-08T07:00:00	5	Humedad	67
119141	7	Sololá	704	Santa Lucía Utatlán 	7	Santa Rita 	9	Septiembre	2023-09-24T00:00:00	2024-11-08T07:00:00	6	Velocidad del viento	3.2
119142	7	Sololá	704	Santa Lucía Utatlán 	7	Santa Rita 	9	Septiembre	2023-09-24T00:00:00	2024-11-08T07:00:00	7	Dirección del viento	3.22
119143	7	Sololá	704	Santa Lucía Utatlán 	7	Santa Rita 	9	Septiembre	2023-09-24T00:00:00	2024-11-08T07:00:00	1	Precipitación	0
119144	7	Sololá	704	Santa Lucía Utatlán 	7	Santa Rita 	9	Septiembre	2023-09-24T00:00:00	2024-11-08T07:00:00	8	Radiación solar	102
119145	7	Sololá	704	Santa Lucía Utatlán 	7	Santa Rita 	9	Septiembre	2023-09-24T00:00:00	2024-11-08T08:00:00	2	Temperatura media	24.2
119146	7	Sololá	704	Santa Lucía Utatlán 	7	Santa Rita 	9	Septiembre	2023-09-24T00:00:00	2024-11-08T08:00:00	4	Temperatura máxima	25.2
119147	7	Sololá	704	Santa Lucía Utatlán 	7	Santa Rita 	9	Septiembre	2023-09-24T00:00:00	2024-11-08T08:00:00	3	Temperatura mínima	23.7
119148	7	Sololá	704	Santa Lucía Utatlán 	7	Santa Rita 	9	Septiembre	2023-09-24T00:00:00	2024-11-08T08:00:00	5	Humedad	69
119149	7	Sololá	704	Santa Lucía Utatlán 	7	Santa Rita 	9	Septiembre	2023-09-24T00:00:00	2024-11-08T08:00:00	6	Velocidad del viento	4.8
119150	7	Sololá	704	Santa Lucía Utatlán 	7	Santa Rita 	9	Septiembre	2023-09-24T00:00:00	2024-11-08T08:00:00	7	Dirección del viento	4.83
119151	7	Sololá	704	Santa Lucía Utatlán 	7	Santa Rita 	9	Septiembre	2023-09-24T00:00:00	2024-11-08T08:00:00	1	Precipitación	0
119152	7	Sololá	704	Santa Lucía Utatlán 	7	Santa Rita 	9	Septiembre	2023-09-24T00:00:00	2024-11-08T08:00:00	8	Radiación solar	352
119153	7	Sololá	704	Santa Lucía Utatlán 	7	Santa Rita 	9	Septiembre	2023-09-24T00:00:00	2024-11-08T09:00:00	2	Temperatura media	22
119154	7	Sololá	704	Santa Lucía Utatlán 	7	Santa Rita 	9	Septiembre	2023-09-24T00:00:00	2024-11-08T09:00:00	4	Temperatura máxima	24.2
119155	7	Sololá	704	Santa Lucía Utatlán 	7	Santa Rita 	9	Septiembre	2023-09-24T00:00:00	2024-11-08T09:00:00	3	Temperatura mínima	22
119156	7	Sololá	704	Santa Lucía Utatlán 	7	Santa Rita 	9	Septiembre	2023-09-24T00:00:00	2024-11-08T09:00:00	5	Humedad	85
119157	7	Sololá	704	Santa Lucía Utatlán 	7	Santa Rita 	9	Septiembre	2023-09-24T00:00:00	2024-11-08T09:00:00	6	Velocidad del viento	8
119158	7	Sololá	704	Santa Lucía Utatlán 	7	Santa Rita 	9	Septiembre	2023-09-24T00:00:00	2024-11-08T09:00:00	7	Dirección del viento	8.05
119159	7	Sololá	704	Santa Lucía Utatlán 	7	Santa Rita 	9	Septiembre	2023-09-24T00:00:00	2024-11-08T09:00:00	1	Precipitación	0
119160	7	Sololá	704	Santa Lucía Utatlán 	7	Santa Rita 	9	Septiembre	2023-09-24T00:00:00	2024-11-08T09:00:00	8	Radiación solar	387
119161	7	Sololá	704	Santa Lucía Utatlán 	7	Santa Rita 	9	Septiembre	2023-09-24T00:00:00	2024-11-08T10:00:00	2	Temperatura media	20.9
119162	7	Sololá	704	Santa Lucía Utatlán 	7	Santa Rita 	9	Septiembre	2023-09-24T00:00:00	2024-11-08T10:00:00	4	Temperatura máxima	22.1
119163	7	Sololá	704	Santa Lucía Utatlán 	7	Santa Rita 	9	Septiembre	2023-09-24T00:00:00	2024-11-08T10:00:00	3	Temperatura mínima	20.9
119164	7	Sololá	704	Santa Lucía Utatlán 	7	Santa Rita 	9	Septiembre	2023-09-24T00:00:00	2024-11-08T10:00:00	5	Humedad	89
119165	7	Sololá	704	Santa Lucía Utatlán 	7	Santa Rita 	9	Septiembre	2023-09-24T00:00:00	2024-11-08T10:00:00	6	Velocidad del viento	3.2
119166	7	Sololá	704	Santa Lucía Utatlán 	7	Santa Rita 	9	Septiembre	2023-09-24T00:00:00	2024-11-08T10:00:00	7	Dirección del viento	3.22
119167	7	Sololá	704	Santa Lucía Utatlán 	7	Santa Rita 	9	Septiembre	2023-09-24T00:00:00	2024-11-08T10:00:00	1	Precipitación	8.4
119168	7	Sololá	704	Santa Lucía Utatlán 	7	Santa Rita 	9	Septiembre	2023-09-24T00:00:00	2024-11-08T10:00:00	8	Radiación solar	561
119169	7	Sololá	704	Santa Lucía Utatlán 	7	Santa Rita 	9	Septiembre	2023-09-24T00:00:00	2024-11-08T11:00:00	2	Temperatura media	19.4
119170	7	Sololá	704	Santa Lucía Utatlán 	7	Santa Rita 	9	Septiembre	2023-09-24T00:00:00	2024-11-08T11:00:00	4	Temperatura máxima	20.9
119171	7	Sololá	704	Santa Lucía Utatlán 	7	Santa Rita 	9	Septiembre	2023-09-24T00:00:00	2024-11-08T11:00:00	3	Temperatura mínima	19.2
119172	7	Sololá	704	Santa Lucía Utatlán 	7	Santa Rita 	9	Septiembre	2023-09-24T00:00:00	2024-11-08T11:00:00	5	Humedad	87
119173	7	Sololá	704	Santa Lucía Utatlán 	7	Santa Rita 	9	Septiembre	2023-09-24T00:00:00	2024-11-08T11:00:00	6	Velocidad del viento	3.2
119174	7	Sololá	704	Santa Lucía Utatlán 	7	Santa Rita 	9	Septiembre	2023-09-24T00:00:00	2024-11-08T11:00:00	7	Dirección del viento	3.22
119175	7	Sololá	704	Santa Lucía Utatlán 	7	Santa Rita 	9	Septiembre	2023-09-24T00:00:00	2024-11-08T11:00:00	1	Precipitación	6.6
119176	7	Sololá	704	Santa Lucía Utatlán 	7	Santa Rita 	9	Septiembre	2023-09-24T00:00:00	2024-11-08T11:00:00	8	Radiación solar	615
119177	7	Sololá	704	Santa Lucía Utatlán 	7	Santa Rita 	9	Septiembre	2023-09-24T00:00:00	2024-11-08T12:00:00	2	Temperatura media	23.8
119178	7	Sololá	704	Santa Lucía Utatlán 	7	Santa Rita 	9	Septiembre	2023-09-24T00:00:00	2024-11-08T12:00:00	4	Temperatura máxima	24.7
119179	7	Sololá	704	Santa Lucía Utatlán 	7	Santa Rita 	9	Septiembre	2023-09-24T00:00:00	2024-11-08T12:00:00	3	Temperatura mínima	23.8
119180	7	Sololá	704	Santa Lucía Utatlán 	7	Santa Rita 	9	Septiembre	2023-09-24T00:00:00	2024-11-08T12:00:00	5	Humedad	75
119181	7	Sololá	704	Santa Lucía Utatlán 	7	Santa Rita 	9	Septiembre	2023-09-24T00:00:00	2024-11-08T12:00:00	6	Velocidad del viento	8
119182	7	Sololá	704	Santa Lucía Utatlán 	7	Santa Rita 	9	Septiembre	2023-09-24T00:00:00	2024-11-08T12:00:00	7	Dirección del viento	8.05
119183	7	Sololá	704	Santa Lucía Utatlán 	7	Santa Rita 	9	Septiembre	2023-09-24T00:00:00	2024-11-08T12:00:00	1	Precipitación	0
119184	7	Sololá	704	Santa Lucía Utatlán 	7	Santa Rita 	9	Septiembre	2023-09-24T00:00:00	2024-11-08T12:00:00	8	Radiación solar	218
119185	7	Sololá	704	Santa Lucía Utatlán 	7	Santa Rita 	9	Septiembre	2023-09-24T00:00:00	2024-11-08T13:00:00	2	Temperatura media	22.6
119186	7	Sololá	704	Santa Lucía Utatlán 	7	Santa Rita 	9	Septiembre	2023-09-24T00:00:00	2024-11-08T13:00:00	4	Temperatura máxima	24.2
119187	7	Sololá	704	Santa Lucía Utatlán 	7	Santa Rita 	9	Septiembre	2023-09-24T00:00:00	2024-11-08T13:00:00	3	Temperatura mínima	22.5
119188	7	Sololá	704	Santa Lucía Utatlán 	7	Santa Rita 	9	Septiembre	2023-09-24T00:00:00	2024-11-08T13:00:00	5	Humedad	83
119189	7	Sololá	704	Santa Lucía Utatlán 	7	Santa Rita 	9	Septiembre	2023-09-24T00:00:00	2024-11-08T13:00:00	6	Velocidad del viento	8
119190	7	Sololá	704	Santa Lucía Utatlán 	7	Santa Rita 	9	Septiembre	2023-09-24T00:00:00	2024-11-08T13:00:00	7	Dirección del viento	8.05
119191	7	Sololá	704	Santa Lucía Utatlán 	7	Santa Rita 	9	Septiembre	2023-09-24T00:00:00	2024-11-08T13:00:00	1	Precipitación	0
119192	7	Sololá	704	Santa Lucía Utatlán 	7	Santa Rita 	9	Septiembre	2023-09-24T00:00:00	2024-11-08T13:00:00	8	Radiación solar	62
119193	7	Sololá	704	Santa Lucía Utatlán 	7	Santa Rita 	9	Septiembre	2023-09-24T00:00:00	2024-11-08T14:00:00	2	Temperatura media	20.6
119194	7	Sololá	704	Santa Lucía Utatlán 	7	Santa Rita 	9	Septiembre	2023-09-24T00:00:00	2024-11-08T14:00:00	4	Temperatura máxima	22.5
119195	7	Sololá	704	Santa Lucía Utatlán 	7	Santa Rita 	9	Septiembre	2023-09-24T00:00:00	2024-11-08T14:00:00	3	Temperatura mínima	20.6
119196	7	Sololá	704	Santa Lucía Utatlán 	7	Santa Rita 	9	Septiembre	2023-09-24T00:00:00	2024-11-08T14:00:00	5	Humedad	91
119197	7	Sololá	704	Santa Lucía Utatlán 	7	Santa Rita 	9	Septiembre	2023-09-24T00:00:00	2024-11-08T14:00:00	6	Velocidad del viento	8
119198	7	Sololá	704	Santa Lucía Utatlán 	7	Santa Rita 	9	Septiembre	2023-09-24T00:00:00	2024-11-08T14:00:00	7	Dirección del viento	8.05
119199	7	Sololá	704	Santa Lucía Utatlán 	7	Santa Rita 	9	Septiembre	2023-09-24T00:00:00	2024-11-08T14:00:00	1	Precipitación	0.4
119200	7	Sololá	704	Santa Lucía Utatlán 	7	Santa Rita 	9	Septiembre	2023-09-24T00:00:00	2024-11-08T14:00:00	8	Radiación solar	148
119201	7	Sololá	704	Santa Lucía Utatlán 	7	Santa Rita 	9	Septiembre	2023-09-24T00:00:00	2024-11-08T15:00:00	2	Temperatura media	20.3
119202	7	Sololá	704	Santa Lucía Utatlán 	7	Santa Rita 	9	Septiembre	2023-09-24T00:00:00	2024-11-08T15:00:00	4	Temperatura máxima	20.7
119203	7	Sololá	704	Santa Lucía Utatlán 	7	Santa Rita 	9	Septiembre	2023-09-24T00:00:00	2024-11-08T15:00:00	3	Temperatura mínima	20.2
119204	7	Sololá	704	Santa Lucía Utatlán 	7	Santa Rita 	9	Septiembre	2023-09-24T00:00:00	2024-11-08T15:00:00	5	Humedad	93
119205	7	Sololá	704	Santa Lucía Utatlán 	7	Santa Rita 	9	Septiembre	2023-09-24T00:00:00	2024-11-08T15:00:00	6	Velocidad del viento	3.2
119206	7	Sololá	704	Santa Lucía Utatlán 	7	Santa Rita 	9	Septiembre	2023-09-24T00:00:00	2024-11-08T15:00:00	7	Dirección del viento	3.22
119207	7	Sololá	704	Santa Lucía Utatlán 	7	Santa Rita 	9	Septiembre	2023-09-24T00:00:00	2024-11-08T15:00:00	1	Precipitación	0
119208	7	Sololá	704	Santa Lucía Utatlán 	7	Santa Rita 	9	Septiembre	2023-09-24T00:00:00	2024-11-08T15:00:00	8	Radiación solar	1091
119209	7	Sololá	704	Santa Lucía Utatlán 	7	Santa Rita 	9	Septiembre	2023-09-24T00:00:00	2024-11-08T16:00:00	2	Temperatura media	19.5
119210	7	Sololá	704	Santa Lucía Utatlán 	7	Santa Rita 	9	Septiembre	2023-09-24T00:00:00	2024-11-08T16:00:00	4	Temperatura máxima	19.7
119211	7	Sololá	704	Santa Lucía Utatlán 	7	Santa Rita 	9	Septiembre	2023-09-24T00:00:00	2024-11-08T16:00:00	3	Temperatura mínima	19.4
119212	7	Sololá	704	Santa Lucía Utatlán 	7	Santa Rita 	9	Septiembre	2023-09-24T00:00:00	2024-11-08T16:00:00	5	Humedad	95
119213	7	Sololá	704	Santa Lucía Utatlán 	7	Santa Rita 	9	Septiembre	2023-09-24T00:00:00	2024-11-08T16:00:00	6	Velocidad del viento	1.6
119214	7	Sololá	704	Santa Lucía Utatlán 	7	Santa Rita 	9	Septiembre	2023-09-24T00:00:00	2024-11-08T16:00:00	7	Dirección del viento	1.61
119215	7	Sololá	704	Santa Lucía Utatlán 	7	Santa Rita 	9	Septiembre	2023-09-24T00:00:00	2024-11-08T16:00:00	1	Precipitación	0
119216	7	Sololá	704	Santa Lucía Utatlán 	7	Santa Rita 	9	Septiembre	2023-09-24T00:00:00	2024-11-08T16:00:00	8	Radiación solar	721
119217	7	Sololá	704	Santa Lucía Utatlán 	7	Santa Rita 	9	Septiembre	2023-09-24T00:00:00	2024-11-08T17:00:00	2	Temperatura media	19.5
119218	7	Sololá	704	Santa Lucía Utatlán 	7	Santa Rita 	9	Septiembre	2023-09-24T00:00:00	2024-11-08T17:00:00	4	Temperatura máxima	19.9
119219	7	Sololá	704	Santa Lucía Utatlán 	7	Santa Rita 	9	Septiembre	2023-09-24T00:00:00	2024-11-08T17:00:00	3	Temperatura mínima	19.4
119220	7	Sololá	704	Santa Lucía Utatlán 	7	Santa Rita 	9	Septiembre	2023-09-24T00:00:00	2024-11-08T17:00:00	5	Humedad	96
119221	7	Sololá	704	Santa Lucía Utatlán 	7	Santa Rita 	9	Septiembre	2023-09-24T00:00:00	2024-11-08T17:00:00	6	Velocidad del viento	3.2
119222	7	Sololá	704	Santa Lucía Utatlán 	7	Santa Rita 	9	Septiembre	2023-09-24T00:00:00	2024-11-08T17:00:00	7	Dirección del viento	3.22
119223	7	Sololá	704	Santa Lucía Utatlán 	7	Santa Rita 	9	Septiembre	2023-09-24T00:00:00	2024-11-08T17:00:00	1	Precipitación	0
119224	7	Sololá	704	Santa Lucía Utatlán 	7	Santa Rita 	9	Septiembre	2023-09-24T00:00:00	2024-11-08T17:00:00	8	Radiación solar	226
119225	7	Sololá	704	Santa Lucía Utatlán 	7	Santa Rita 	9	Septiembre	2023-09-24T00:00:00	2024-11-08T18:00:00	2	Temperatura media	19.3
119226	7	Sololá	704	Santa Lucía Utatlán 	7	Santa Rita 	9	Septiembre	2023-09-24T00:00:00	2024-11-08T18:00:00	4	Temperatura máxima	19.6
119227	7	Sololá	704	Santa Lucía Utatlán 	7	Santa Rita 	9	Septiembre	2023-09-24T00:00:00	2024-11-08T18:00:00	3	Temperatura mínima	19.2
119228	7	Sololá	704	Santa Lucía Utatlán 	7	Santa Rita 	9	Septiembre	2023-09-24T00:00:00	2024-11-08T18:00:00	5	Humedad	96
119229	7	Sololá	704	Santa Lucía Utatlán 	7	Santa Rita 	9	Septiembre	2023-09-24T00:00:00	2024-11-08T18:00:00	6	Velocidad del viento	0
119230	7	Sololá	704	Santa Lucía Utatlán 	7	Santa Rita 	9	Septiembre	2023-09-24T00:00:00	2024-11-08T18:00:00	7	Dirección del viento	0
119231	7	Sololá	704	Santa Lucía Utatlán 	7	Santa Rita 	9	Septiembre	2023-09-24T00:00:00	2024-11-08T18:00:00	1	Precipitación	0
119232	7	Sololá	704	Santa Lucía Utatlán 	7	Santa Rita 	9	Septiembre	2023-09-24T00:00:00	2024-11-08T18:00:00	8	Radiación solar	84
119233	7	Sololá	704	Santa Lucía Utatlán 	7	Santa Rita 	9	Septiembre	2023-09-24T00:00:00	2024-11-08T19:00:00	2	Temperatura media	19.2
119234	7	Sololá	704	Santa Lucía Utatlán 	7	Santa Rita 	9	Septiembre	2023-09-24T00:00:00	2024-11-08T19:00:00	4	Temperatura máxima	19.3
119235	7	Sololá	704	Santa Lucía Utatlán 	7	Santa Rita 	9	Septiembre	2023-09-24T00:00:00	2024-11-08T19:00:00	3	Temperatura mínima	19.2
119236	7	Sololá	704	Santa Lucía Utatlán 	7	Santa Rita 	9	Septiembre	2023-09-24T00:00:00	2024-11-08T19:00:00	5	Humedad	97
119237	7	Sololá	704	Santa Lucía Utatlán 	7	Santa Rita 	9	Septiembre	2023-09-24T00:00:00	2024-11-08T19:00:00	6	Velocidad del viento	0
119238	7	Sololá	704	Santa Lucía Utatlán 	7	Santa Rita 	9	Septiembre	2023-09-24T00:00:00	2024-11-08T19:00:00	7	Dirección del viento	0
119239	7	Sololá	704	Santa Lucía Utatlán 	7	Santa Rita 	9	Septiembre	2023-09-24T00:00:00	2024-11-08T19:00:00	1	Precipitación	0
119240	7	Sololá	704	Santa Lucía Utatlán 	7	Santa Rita 	9	Septiembre	2023-09-24T00:00:00	2024-11-08T19:00:00	8	Radiación solar	0
119241	7	Sololá	704	Santa Lucía Utatlán 	7	Santa Rita 	9	Septiembre	2023-09-24T00:00:00	2024-11-08T20:00:00	2	Temperatura media	19.2
119242	7	Sololá	704	Santa Lucía Utatlán 	7	Santa Rita 	9	Septiembre	2023-09-24T00:00:00	2024-11-08T20:00:00	4	Temperatura máxima	19.3
119243	7	Sololá	704	Santa Lucía Utatlán 	7	Santa Rita 	9	Septiembre	2023-09-24T00:00:00	2024-11-08T20:00:00	3	Temperatura mínima	19.1
119244	7	Sololá	704	Santa Lucía Utatlán 	7	Santa Rita 	9	Septiembre	2023-09-24T00:00:00	2024-11-08T20:00:00	5	Humedad	97
119245	7	Sololá	704	Santa Lucía Utatlán 	7	Santa Rita 	9	Septiembre	2023-09-24T00:00:00	2024-11-08T20:00:00	6	Velocidad del viento	0
119246	7	Sololá	704	Santa Lucía Utatlán 	7	Santa Rita 	9	Septiembre	2023-09-24T00:00:00	2024-11-08T20:00:00	7	Dirección del viento	0
119247	7	Sololá	704	Santa Lucía Utatlán 	7	Santa Rita 	9	Septiembre	2023-09-24T00:00:00	2024-11-08T20:00:00	1	Precipitación	0
119248	7	Sololá	704	Santa Lucía Utatlán 	7	Santa Rita 	9	Septiembre	2023-09-24T00:00:00	2024-11-08T20:00:00	8	Radiación solar	0
119249	7	Sololá	704	Santa Lucía Utatlán 	7	Santa Rita 	9	Septiembre	2023-09-24T00:00:00	2024-11-08T21:00:00	2	Temperatura media	18.8
119250	7	Sololá	704	Santa Lucía Utatlán 	7	Santa Rita 	9	Septiembre	2023-09-24T00:00:00	2024-11-08T21:00:00	4	Temperatura máxima	19.2
119251	7	Sololá	704	Santa Lucía Utatlán 	7	Santa Rita 	9	Septiembre	2023-09-24T00:00:00	2024-11-08T21:00:00	3	Temperatura mínima	18.8
119252	7	Sololá	704	Santa Lucía Utatlán 	7	Santa Rita 	9	Septiembre	2023-09-24T00:00:00	2024-11-08T21:00:00	5	Humedad	96
119253	7	Sololá	704	Santa Lucía Utatlán 	7	Santa Rita 	9	Septiembre	2023-09-24T00:00:00	2024-11-08T21:00:00	6	Velocidad del viento	1.6
119254	7	Sololá	704	Santa Lucía Utatlán 	7	Santa Rita 	9	Septiembre	2023-09-24T00:00:00	2024-11-08T21:00:00	7	Dirección del viento	1.61
119255	7	Sololá	704	Santa Lucía Utatlán 	7	Santa Rita 	9	Septiembre	2023-09-24T00:00:00	2024-11-08T21:00:00	1	Precipitación	0
119256	7	Sololá	704	Santa Lucía Utatlán 	7	Santa Rita 	9	Septiembre	2023-09-24T00:00:00	2024-11-08T21:00:00	8	Radiación solar	0
119257	7	Sololá	704	Santa Lucía Utatlán 	7	Santa Rita 	9	Septiembre	2023-09-24T00:00:00	2024-11-08T22:00:00	2	Temperatura media	18.7
119258	7	Sololá	704	Santa Lucía Utatlán 	7	Santa Rita 	9	Septiembre	2023-09-24T00:00:00	2024-11-08T22:00:00	4	Temperatura máxima	18.8
119259	7	Sololá	704	Santa Lucía Utatlán 	7	Santa Rita 	9	Septiembre	2023-09-24T00:00:00	2024-11-08T22:00:00	3	Temperatura mínima	18.7
119260	7	Sololá	704	Santa Lucía Utatlán 	7	Santa Rita 	9	Septiembre	2023-09-24T00:00:00	2024-11-08T22:00:00	5	Humedad	96
119261	7	Sololá	704	Santa Lucía Utatlán 	7	Santa Rita 	9	Septiembre	2023-09-24T00:00:00	2024-11-08T22:00:00	6	Velocidad del viento	1.6
119262	7	Sololá	704	Santa Lucía Utatlán 	7	Santa Rita 	9	Septiembre	2023-09-24T00:00:00	2024-11-08T22:00:00	7	Dirección del viento	1.61
119263	7	Sololá	704	Santa Lucía Utatlán 	7	Santa Rita 	9	Septiembre	2023-09-24T00:00:00	2024-11-08T22:00:00	1	Precipitación	0.2
119264	7	Sololá	704	Santa Lucía Utatlán 	7	Santa Rita 	9	Septiembre	2023-09-24T00:00:00	2024-11-08T22:00:00	8	Radiación solar	0
119265	7	Sololá	704	Santa Lucía Utatlán 	7	Santa Rita 	9	Septiembre	2023-09-24T00:00:00	2024-11-08T23:00:00	2	Temperatura media	18.6
119266	7	Sololá	704	Santa Lucía Utatlán 	7	Santa Rita 	9	Septiembre	2023-09-24T00:00:00	2024-11-08T23:00:00	4	Temperatura máxima	18.7
119267	7	Sololá	704	Santa Lucía Utatlán 	7	Santa Rita 	9	Septiembre	2023-09-24T00:00:00	2024-11-08T23:00:00	3	Temperatura mínima	18.5
119268	7	Sololá	704	Santa Lucía Utatlán 	7	Santa Rita 	9	Septiembre	2023-09-24T00:00:00	2024-11-08T23:00:00	5	Humedad	97
119269	7	Sololá	704	Santa Lucía Utatlán 	7	Santa Rita 	9	Septiembre	2023-09-24T00:00:00	2024-11-08T23:00:00	6	Velocidad del viento	0
119270	7	Sololá	704	Santa Lucía Utatlán 	7	Santa Rita 	9	Septiembre	2023-09-24T00:00:00	2024-11-08T23:00:00	7	Dirección del viento	0
119271	7	Sololá	704	Santa Lucía Utatlán 	7	Santa Rita 	9	Septiembre	2023-09-24T00:00:00	2024-11-08T23:00:00	1	Precipitación	0
119272	7	Sololá	704	Santa Lucía Utatlán 	7	Santa Rita 	9	Septiembre	2023-09-24T00:00:00	2024-11-08T23:00:00	8	Radiación solar	0
119273	7	Sololá	704	Santa Lucía Utatlán 	7	Santa Rita 	9	Septiembre	2023-09-25T00:00:00	2024-11-08T00:00:00	2	Temperatura media	18.8
119274	7	Sololá	704	Santa Lucía Utatlán 	7	Santa Rita 	9	Septiembre	2023-09-25T00:00:00	2024-11-08T00:00:00	4	Temperatura máxima	18.8
119275	7	Sololá	704	Santa Lucía Utatlán 	7	Santa Rita 	9	Septiembre	2023-09-25T00:00:00	2024-11-08T00:00:00	3	Temperatura mínima	18.3
119276	7	Sololá	704	Santa Lucía Utatlán 	7	Santa Rita 	9	Septiembre	2023-09-25T00:00:00	2024-11-08T00:00:00	5	Humedad	92
119277	7	Sololá	704	Santa Lucía Utatlán 	7	Santa Rita 	9	Septiembre	2023-09-25T00:00:00	2024-11-08T00:00:00	6	Velocidad del viento	1.6
119278	7	Sololá	704	Santa Lucía Utatlán 	7	Santa Rita 	9	Septiembre	2023-09-25T00:00:00	2024-11-08T00:00:00	7	Dirección del viento	1.61
119279	7	Sololá	704	Santa Lucía Utatlán 	7	Santa Rita 	9	Septiembre	2023-09-25T00:00:00	2024-11-08T00:00:00	1	Precipitación	0
119280	7	Sololá	704	Santa Lucía Utatlán 	7	Santa Rita 	9	Septiembre	2023-09-25T00:00:00	2024-11-08T00:00:00	8	Radiación solar	0
119281	7	Sololá	704	Santa Lucía Utatlán 	7	Santa Rita 	9	Septiembre	2023-09-25T00:00:00	2024-11-08T01:00:00	2	Temperatura media	17.6
119282	7	Sololá	704	Santa Lucía Utatlán 	7	Santa Rita 	9	Septiembre	2023-09-25T00:00:00	2024-11-08T01:00:00	4	Temperatura máxima	18.7
119283	7	Sololá	704	Santa Lucía Utatlán 	7	Santa Rita 	9	Septiembre	2023-09-25T00:00:00	2024-11-08T01:00:00	3	Temperatura mínima	17.6
119284	7	Sololá	704	Santa Lucía Utatlán 	7	Santa Rita 	9	Septiembre	2023-09-25T00:00:00	2024-11-08T01:00:00	5	Humedad	95
119285	7	Sololá	704	Santa Lucía Utatlán 	7	Santa Rita 	9	Septiembre	2023-09-25T00:00:00	2024-11-08T01:00:00	6	Velocidad del viento	1.6
119286	7	Sololá	704	Santa Lucía Utatlán 	7	Santa Rita 	9	Septiembre	2023-09-25T00:00:00	2024-11-08T01:00:00	7	Dirección del viento	1.61
119287	7	Sololá	704	Santa Lucía Utatlán 	7	Santa Rita 	9	Septiembre	2023-09-25T00:00:00	2024-11-08T01:00:00	1	Precipitación	0
119288	7	Sololá	704	Santa Lucía Utatlán 	7	Santa Rita 	9	Septiembre	2023-09-25T00:00:00	2024-11-08T01:00:00	8	Radiación solar	0
119289	7	Sololá	704	Santa Lucía Utatlán 	7	Santa Rita 	9	Septiembre	2023-09-25T00:00:00	2024-11-08T02:00:00	2	Temperatura media	17.6
119290	7	Sololá	704	Santa Lucía Utatlán 	7	Santa Rita 	9	Septiembre	2023-09-25T00:00:00	2024-11-08T02:00:00	4	Temperatura máxima	17.7
119291	7	Sololá	704	Santa Lucía Utatlán 	7	Santa Rita 	9	Septiembre	2023-09-25T00:00:00	2024-11-08T02:00:00	3	Temperatura mínima	17.5
119292	7	Sololá	704	Santa Lucía Utatlán 	7	Santa Rita 	9	Septiembre	2023-09-25T00:00:00	2024-11-08T02:00:00	5	Humedad	94
119293	7	Sololá	704	Santa Lucía Utatlán 	7	Santa Rita 	9	Septiembre	2023-09-25T00:00:00	2024-11-08T02:00:00	6	Velocidad del viento	1.6
119294	7	Sololá	704	Santa Lucía Utatlán 	7	Santa Rita 	9	Septiembre	2023-09-25T00:00:00	2024-11-08T02:00:00	7	Dirección del viento	1.61
119295	7	Sololá	704	Santa Lucía Utatlán 	7	Santa Rita 	9	Septiembre	2023-09-25T00:00:00	2024-11-08T02:00:00	1	Precipitación	0
119296	7	Sololá	704	Santa Lucía Utatlán 	7	Santa Rita 	9	Septiembre	2023-09-25T00:00:00	2024-11-08T02:00:00	8	Radiación solar	0
119297	7	Sololá	704	Santa Lucía Utatlán 	7	Santa Rita 	9	Septiembre	2023-09-25T00:00:00	2024-11-08T03:00:00	2	Temperatura media	18.2
119298	7	Sololá	704	Santa Lucía Utatlán 	7	Santa Rita 	9	Septiembre	2023-09-25T00:00:00	2024-11-08T03:00:00	4	Temperatura máxima	18.2
119299	7	Sololá	704	Santa Lucía Utatlán 	7	Santa Rita 	9	Septiembre	2023-09-25T00:00:00	2024-11-08T03:00:00	3	Temperatura mínima	17.6
119300	7	Sololá	704	Santa Lucía Utatlán 	7	Santa Rita 	9	Septiembre	2023-09-25T00:00:00	2024-11-08T03:00:00	5	Humedad	90
119301	7	Sololá	704	Santa Lucía Utatlán 	7	Santa Rita 	9	Septiembre	2023-09-25T00:00:00	2024-11-08T03:00:00	6	Velocidad del viento	1.6
119302	7	Sololá	704	Santa Lucía Utatlán 	7	Santa Rita 	9	Septiembre	2023-09-25T00:00:00	2024-11-08T03:00:00	7	Dirección del viento	1.61
119303	7	Sololá	704	Santa Lucía Utatlán 	7	Santa Rita 	9	Septiembre	2023-09-25T00:00:00	2024-11-08T03:00:00	1	Precipitación	0
119304	7	Sololá	704	Santa Lucía Utatlán 	7	Santa Rita 	9	Septiembre	2023-09-25T00:00:00	2024-11-08T03:00:00	8	Radiación solar	0
119305	7	Sololá	704	Santa Lucía Utatlán 	7	Santa Rita 	9	Septiembre	2023-09-25T00:00:00	2024-11-08T04:00:00	2	Temperatura media	20.8
119306	7	Sololá	704	Santa Lucía Utatlán 	7	Santa Rita 	9	Septiembre	2023-09-25T00:00:00	2024-11-08T04:00:00	4	Temperatura máxima	20.8
119307	7	Sololá	704	Santa Lucía Utatlán 	7	Santa Rita 	9	Septiembre	2023-09-25T00:00:00	2024-11-08T04:00:00	3	Temperatura mínima	18.2
119308	7	Sololá	704	Santa Lucía Utatlán 	7	Santa Rita 	9	Septiembre	2023-09-25T00:00:00	2024-11-08T04:00:00	5	Humedad	80
119309	7	Sololá	704	Santa Lucía Utatlán 	7	Santa Rita 	9	Septiembre	2023-09-25T00:00:00	2024-11-08T04:00:00	6	Velocidad del viento	1.6
119310	7	Sololá	704	Santa Lucía Utatlán 	7	Santa Rita 	9	Septiembre	2023-09-25T00:00:00	2024-11-08T04:00:00	7	Dirección del viento	1.61
119311	7	Sololá	704	Santa Lucía Utatlán 	7	Santa Rita 	9	Septiembre	2023-09-25T00:00:00	2024-11-08T04:00:00	1	Precipitación	0
119312	7	Sololá	704	Santa Lucía Utatlán 	7	Santa Rita 	9	Septiembre	2023-09-25T00:00:00	2024-11-08T04:00:00	8	Radiación solar	0
119313	7	Sololá	704	Santa Lucía Utatlán 	7	Santa Rita 	9	Septiembre	2023-09-25T00:00:00	2024-11-08T05:00:00	2	Temperatura media	22.3
119314	7	Sololá	704	Santa Lucía Utatlán 	7	Santa Rita 	9	Septiembre	2023-09-25T00:00:00	2024-11-08T05:00:00	4	Temperatura máxima	22.6
119315	7	Sololá	704	Santa Lucía Utatlán 	7	Santa Rita 	9	Septiembre	2023-09-25T00:00:00	2024-11-08T05:00:00	3	Temperatura mínima	20.7
119316	7	Sololá	704	Santa Lucía Utatlán 	7	Santa Rita 	9	Septiembre	2023-09-25T00:00:00	2024-11-08T05:00:00	5	Humedad	78
119317	7	Sololá	704	Santa Lucía Utatlán 	7	Santa Rita 	9	Septiembre	2023-09-25T00:00:00	2024-11-08T05:00:00	6	Velocidad del viento	3.2
119318	7	Sololá	704	Santa Lucía Utatlán 	7	Santa Rita 	9	Septiembre	2023-09-25T00:00:00	2024-11-08T05:00:00	7	Dirección del viento	3.22
119319	7	Sololá	704	Santa Lucía Utatlán 	7	Santa Rita 	9	Septiembre	2023-09-25T00:00:00	2024-11-08T05:00:00	1	Precipitación	0
119320	7	Sololá	704	Santa Lucía Utatlán 	7	Santa Rita 	9	Septiembre	2023-09-25T00:00:00	2024-11-08T05:00:00	8	Radiación solar	0
119321	7	Sololá	704	Santa Lucía Utatlán 	7	Santa Rita 	9	Septiembre	2023-09-25T00:00:00	2024-11-08T06:00:00	2	Temperatura media	24.2
119322	7	Sololá	704	Santa Lucía Utatlán 	7	Santa Rita 	9	Septiembre	2023-09-25T00:00:00	2024-11-08T06:00:00	4	Temperatura máxima	24.2
119323	7	Sololá	704	Santa Lucía Utatlán 	7	Santa Rita 	9	Septiembre	2023-09-25T00:00:00	2024-11-08T06:00:00	3	Temperatura mínima	22.3
119324	7	Sololá	704	Santa Lucía Utatlán 	7	Santa Rita 	9	Septiembre	2023-09-25T00:00:00	2024-11-08T06:00:00	5	Humedad	65
119325	7	Sololá	704	Santa Lucía Utatlán 	7	Santa Rita 	9	Septiembre	2023-09-25T00:00:00	2024-11-08T06:00:00	6	Velocidad del viento	3.2
119326	7	Sololá	704	Santa Lucía Utatlán 	7	Santa Rita 	9	Septiembre	2023-09-25T00:00:00	2024-11-08T06:00:00	7	Dirección del viento	3.22
119327	7	Sololá	704	Santa Lucía Utatlán 	7	Santa Rita 	9	Septiembre	2023-09-25T00:00:00	2024-11-08T06:00:00	1	Precipitación	0
119328	7	Sololá	704	Santa Lucía Utatlán 	7	Santa Rita 	9	Septiembre	2023-09-25T00:00:00	2024-11-08T06:00:00	8	Radiación solar	31
119329	7	Sololá	704	Santa Lucía Utatlán 	7	Santa Rita 	9	Septiembre	2023-09-25T00:00:00	2024-11-08T07:00:00	2	Temperatura media	25.3
119330	7	Sololá	704	Santa Lucía Utatlán 	7	Santa Rita 	9	Septiembre	2023-09-25T00:00:00	2024-11-08T07:00:00	4	Temperatura máxima	25.5
119331	7	Sololá	704	Santa Lucía Utatlán 	7	Santa Rita 	9	Septiembre	2023-09-25T00:00:00	2024-11-08T07:00:00	3	Temperatura mínima	24.2
119332	7	Sololá	704	Santa Lucía Utatlán 	7	Santa Rita 	9	Septiembre	2023-09-25T00:00:00	2024-11-08T07:00:00	5	Humedad	59
119333	7	Sololá	704	Santa Lucía Utatlán 	7	Santa Rita 	9	Septiembre	2023-09-25T00:00:00	2024-11-08T07:00:00	6	Velocidad del viento	3.2
119334	7	Sololá	704	Santa Lucía Utatlán 	7	Santa Rita 	9	Septiembre	2023-09-25T00:00:00	2024-11-08T07:00:00	7	Dirección del viento	3.22
119335	7	Sololá	704	Santa Lucía Utatlán 	7	Santa Rita 	9	Septiembre	2023-09-25T00:00:00	2024-11-08T07:00:00	1	Precipitación	0
119336	7	Sololá	704	Santa Lucía Utatlán 	7	Santa Rita 	9	Septiembre	2023-09-25T00:00:00	2024-11-08T07:00:00	8	Radiación solar	222
119337	7	Sololá	704	Santa Lucía Utatlán 	7	Santa Rita 	9	Septiembre	2023-09-25T00:00:00	2024-11-08T08:00:00	2	Temperatura media	24.4
119338	7	Sololá	704	Santa Lucía Utatlán 	7	Santa Rita 	9	Septiembre	2023-09-25T00:00:00	2024-11-08T08:00:00	4	Temperatura máxima	26.1
119339	7	Sololá	704	Santa Lucía Utatlán 	7	Santa Rita 	9	Septiembre	2023-09-25T00:00:00	2024-11-08T08:00:00	3	Temperatura mínima	24.3
119340	7	Sololá	704	Santa Lucía Utatlán 	7	Santa Rita 	9	Septiembre	2023-09-25T00:00:00	2024-11-08T08:00:00	5	Humedad	71
119341	7	Sololá	704	Santa Lucía Utatlán 	7	Santa Rita 	9	Septiembre	2023-09-25T00:00:00	2024-11-08T08:00:00	6	Velocidad del viento	6.4
119342	7	Sololá	704	Santa Lucía Utatlán 	7	Santa Rita 	9	Septiembre	2023-09-25T00:00:00	2024-11-08T08:00:00	7	Dirección del viento	6.44
119343	7	Sololá	704	Santa Lucía Utatlán 	7	Santa Rita 	9	Septiembre	2023-09-25T00:00:00	2024-11-08T08:00:00	1	Precipitación	0
119344	7	Sololá	704	Santa Lucía Utatlán 	7	Santa Rita 	9	Septiembre	2023-09-25T00:00:00	2024-11-08T08:00:00	8	Radiación solar	561
119345	7	Sololá	704	Santa Lucía Utatlán 	7	Santa Rita 	9	Septiembre	2023-09-25T00:00:00	2024-11-08T09:00:00	2	Temperatura media	23.2
119346	7	Sololá	704	Santa Lucía Utatlán 	7	Santa Rita 	9	Septiembre	2023-09-25T00:00:00	2024-11-08T09:00:00	4	Temperatura máxima	24.4
119347	7	Sololá	704	Santa Lucía Utatlán 	7	Santa Rita 	9	Septiembre	2023-09-25T00:00:00	2024-11-08T09:00:00	3	Temperatura mínima	23.1
119348	7	Sololá	704	Santa Lucía Utatlán 	7	Santa Rita 	9	Septiembre	2023-09-25T00:00:00	2024-11-08T09:00:00	5	Humedad	78
119349	7	Sololá	704	Santa Lucía Utatlán 	7	Santa Rita 	9	Septiembre	2023-09-25T00:00:00	2024-11-08T09:00:00	6	Velocidad del viento	8
119350	7	Sololá	704	Santa Lucía Utatlán 	7	Santa Rita 	9	Septiembre	2023-09-25T00:00:00	2024-11-08T09:00:00	7	Dirección del viento	8.05
119351	7	Sololá	704	Santa Lucía Utatlán 	7	Santa Rita 	9	Septiembre	2023-09-25T00:00:00	2024-11-08T09:00:00	1	Precipitación	0
119352	7	Sololá	704	Santa Lucía Utatlán 	7	Santa Rita 	9	Septiembre	2023-09-25T00:00:00	2024-11-08T09:00:00	8	Radiación solar	567
119353	7	Sololá	704	Santa Lucía Utatlán 	7	Santa Rita 	9	Septiembre	2023-09-25T00:00:00	2024-11-08T10:00:00	2	Temperatura media	21.2
119354	7	Sololá	704	Santa Lucía Utatlán 	7	Santa Rita 	9	Septiembre	2023-09-25T00:00:00	2024-11-08T10:00:00	4	Temperatura máxima	23.7
119355	7	Sololá	704	Santa Lucía Utatlán 	7	Santa Rita 	9	Septiembre	2023-09-25T00:00:00	2024-11-08T10:00:00	3	Temperatura mínima	21.1
119356	7	Sololá	704	Santa Lucía Utatlán 	7	Santa Rita 	9	Septiembre	2023-09-25T00:00:00	2024-11-08T10:00:00	5	Humedad	89
119357	7	Sololá	704	Santa Lucía Utatlán 	7	Santa Rita 	9	Septiembre	2023-09-25T00:00:00	2024-11-08T10:00:00	6	Velocidad del viento	6.4
119358	7	Sololá	704	Santa Lucía Utatlán 	7	Santa Rita 	9	Septiembre	2023-09-25T00:00:00	2024-11-08T10:00:00	7	Dirección del viento	6.44
119359	7	Sololá	704	Santa Lucía Utatlán 	7	Santa Rita 	9	Septiembre	2023-09-25T00:00:00	2024-11-08T10:00:00	1	Precipitación	0
119360	7	Sololá	704	Santa Lucía Utatlán 	7	Santa Rita 	9	Septiembre	2023-09-25T00:00:00	2024-11-08T10:00:00	8	Radiación solar	808
119361	7	Sololá	704	Santa Lucía Utatlán 	7	Santa Rita 	9	Septiembre	2023-09-25T00:00:00	2024-11-08T11:00:00	2	Temperatura media	20.7
119362	7	Sololá	704	Santa Lucía Utatlán 	7	Santa Rita 	9	Septiembre	2023-09-25T00:00:00	2024-11-08T11:00:00	4	Temperatura máxima	21.4
119363	7	Sololá	704	Santa Lucía Utatlán 	7	Santa Rita 	9	Septiembre	2023-09-25T00:00:00	2024-11-08T11:00:00	3	Temperatura mínima	20.7
119364	7	Sololá	704	Santa Lucía Utatlán 	7	Santa Rita 	9	Septiembre	2023-09-25T00:00:00	2024-11-08T11:00:00	5	Humedad	91
119365	7	Sololá	704	Santa Lucía Utatlán 	7	Santa Rita 	9	Septiembre	2023-09-25T00:00:00	2024-11-08T11:00:00	6	Velocidad del viento	3.2
119366	7	Sololá	704	Santa Lucía Utatlán 	7	Santa Rita 	9	Septiembre	2023-09-25T00:00:00	2024-11-08T11:00:00	7	Dirección del viento	3.22
119367	7	Sololá	704	Santa Lucía Utatlán 	7	Santa Rita 	9	Septiembre	2023-09-25T00:00:00	2024-11-08T11:00:00	1	Precipitación	0
119368	7	Sololá	704	Santa Lucía Utatlán 	7	Santa Rita 	9	Septiembre	2023-09-25T00:00:00	2024-11-08T11:00:00	8	Radiación solar	689
119369	7	Sololá	704	Santa Lucía Utatlán 	7	Santa Rita 	9	Septiembre	2023-09-25T00:00:00	2024-11-08T12:00:00	2	Temperatura media	20.8
119370	7	Sololá	704	Santa Lucía Utatlán 	7	Santa Rita 	9	Septiembre	2023-09-25T00:00:00	2024-11-08T12:00:00	4	Temperatura máxima	20.9
119371	7	Sololá	704	Santa Lucía Utatlán 	7	Santa Rita 	9	Septiembre	2023-09-25T00:00:00	2024-11-08T12:00:00	3	Temperatura mínima	20.6
119372	7	Sololá	704	Santa Lucía Utatlán 	7	Santa Rita 	9	Septiembre	2023-09-25T00:00:00	2024-11-08T12:00:00	5	Humedad	91
119373	7	Sololá	704	Santa Lucía Utatlán 	7	Santa Rita 	9	Septiembre	2023-09-25T00:00:00	2024-11-08T12:00:00	6	Velocidad del viento	1.6
119374	7	Sololá	704	Santa Lucía Utatlán 	7	Santa Rita 	9	Septiembre	2023-09-25T00:00:00	2024-11-08T12:00:00	7	Dirección del viento	1.61
119375	7	Sololá	704	Santa Lucía Utatlán 	7	Santa Rita 	9	Septiembre	2023-09-25T00:00:00	2024-11-08T12:00:00	1	Precipitación	0
119376	7	Sololá	704	Santa Lucía Utatlán 	7	Santa Rita 	9	Septiembre	2023-09-25T00:00:00	2024-11-08T12:00:00	8	Radiación solar	660
119377	7	Sololá	704	Santa Lucía Utatlán 	7	Santa Rita 	9	Septiembre	2023-09-25T00:00:00	2024-11-08T13:00:00	2	Temperatura media	20.7
119378	7	Sololá	704	Santa Lucía Utatlán 	7	Santa Rita 	9	Septiembre	2023-09-25T00:00:00	2024-11-08T13:00:00	4	Temperatura máxima	20.8
119379	7	Sololá	704	Santa Lucía Utatlán 	7	Santa Rita 	9	Septiembre	2023-09-25T00:00:00	2024-11-08T13:00:00	3	Temperatura mínima	20.4
119380	7	Sololá	704	Santa Lucía Utatlán 	7	Santa Rita 	9	Septiembre	2023-09-25T00:00:00	2024-11-08T13:00:00	5	Humedad	91
119381	7	Sololá	704	Santa Lucía Utatlán 	7	Santa Rita 	9	Septiembre	2023-09-25T00:00:00	2024-11-08T13:00:00	6	Velocidad del viento	1.6
119382	7	Sololá	704	Santa Lucía Utatlán 	7	Santa Rita 	9	Septiembre	2023-09-25T00:00:00	2024-11-08T13:00:00	7	Dirección del viento	1.61
119383	7	Sololá	704	Santa Lucía Utatlán 	7	Santa Rita 	9	Septiembre	2023-09-25T00:00:00	2024-11-08T13:00:00	1	Precipitación	0
119384	7	Sololá	704	Santa Lucía Utatlán 	7	Santa Rita 	9	Septiembre	2023-09-25T00:00:00	2024-11-08T13:00:00	8	Radiación solar	219
119385	7	Sololá	704	Santa Lucía Utatlán 	7	Santa Rita 	9	Septiembre	2023-09-25T00:00:00	2024-11-08T14:00:00	2	Temperatura media	20.2
119386	7	Sololá	704	Santa Lucía Utatlán 	7	Santa Rita 	9	Septiembre	2023-09-25T00:00:00	2024-11-08T14:00:00	4	Temperatura máxima	20.7
119387	7	Sololá	704	Santa Lucía Utatlán 	7	Santa Rita 	9	Septiembre	2023-09-25T00:00:00	2024-11-08T14:00:00	3	Temperatura mínima	20.1
119388	7	Sololá	704	Santa Lucía Utatlán 	7	Santa Rita 	9	Septiembre	2023-09-25T00:00:00	2024-11-08T14:00:00	5	Humedad	94
119389	7	Sololá	704	Santa Lucía Utatlán 	7	Santa Rita 	9	Septiembre	2023-09-25T00:00:00	2024-11-08T14:00:00	6	Velocidad del viento	1.6
119390	7	Sololá	704	Santa Lucía Utatlán 	7	Santa Rita 	9	Septiembre	2023-09-25T00:00:00	2024-11-08T14:00:00	7	Dirección del viento	1.61
119391	7	Sololá	704	Santa Lucía Utatlán 	7	Santa Rita 	9	Septiembre	2023-09-25T00:00:00	2024-11-08T14:00:00	1	Precipitación	0
119392	7	Sololá	704	Santa Lucía Utatlán 	7	Santa Rita 	9	Septiembre	2023-09-25T00:00:00	2024-11-08T14:00:00	8	Radiación solar	44
119393	7	Sololá	704	Santa Lucía Utatlán 	7	Santa Rita 	9	Septiembre	2023-09-25T00:00:00	2024-11-08T15:00:00	2	Temperatura media	20
119394	7	Sololá	704	Santa Lucía Utatlán 	7	Santa Rita 	9	Septiembre	2023-09-25T00:00:00	2024-11-08T15:00:00	4	Temperatura máxima	20.2
119395	7	Sololá	704	Santa Lucía Utatlán 	7	Santa Rita 	9	Septiembre	2023-09-25T00:00:00	2024-11-08T15:00:00	3	Temperatura mínima	19.8
119396	7	Sololá	704	Santa Lucía Utatlán 	7	Santa Rita 	9	Septiembre	2023-09-25T00:00:00	2024-11-08T15:00:00	5	Humedad	94
119397	7	Sololá	704	Santa Lucía Utatlán 	7	Santa Rita 	9	Septiembre	2023-09-25T00:00:00	2024-11-08T15:00:00	6	Velocidad del viento	0
119398	7	Sololá	704	Santa Lucía Utatlán 	7	Santa Rita 	9	Septiembre	2023-09-25T00:00:00	2024-11-08T15:00:00	7	Dirección del viento	0
119399	7	Sololá	704	Santa Lucía Utatlán 	7	Santa Rita 	9	Septiembre	2023-09-25T00:00:00	2024-11-08T15:00:00	1	Precipitación	0
119400	7	Sololá	704	Santa Lucía Utatlán 	7	Santa Rita 	9	Septiembre	2023-09-25T00:00:00	2024-11-08T15:00:00	8	Radiación solar	67
119401	7	Sololá	704	Santa Lucía Utatlán 	7	Santa Rita 	9	Septiembre	2023-09-25T00:00:00	2024-11-08T16:00:00	2	Temperatura media	19.1
119402	7	Sololá	704	Santa Lucía Utatlán 	7	Santa Rita 	9	Septiembre	2023-09-25T00:00:00	2024-11-08T16:00:00	4	Temperatura máxima	20
119403	7	Sololá	704	Santa Lucía Utatlán 	7	Santa Rita 	9	Septiembre	2023-09-25T00:00:00	2024-11-08T16:00:00	3	Temperatura mínima	19.1
119404	7	Sololá	704	Santa Lucía Utatlán 	7	Santa Rita 	9	Septiembre	2023-09-25T00:00:00	2024-11-08T16:00:00	5	Humedad	94
119405	7	Sololá	704	Santa Lucía Utatlán 	7	Santa Rita 	9	Septiembre	2023-09-25T00:00:00	2024-11-08T16:00:00	6	Velocidad del viento	1.6
119406	7	Sololá	704	Santa Lucía Utatlán 	7	Santa Rita 	9	Septiembre	2023-09-25T00:00:00	2024-11-08T16:00:00	7	Dirección del viento	1.61
119407	7	Sololá	704	Santa Lucía Utatlán 	7	Santa Rita 	9	Septiembre	2023-09-25T00:00:00	2024-11-08T16:00:00	1	Precipitación	0
119408	7	Sololá	704	Santa Lucía Utatlán 	7	Santa Rita 	9	Septiembre	2023-09-25T00:00:00	2024-11-08T16:00:00	8	Radiación solar	69
119409	7	Sololá	704	Santa Lucía Utatlán 	7	Santa Rita 	9	Septiembre	2023-09-25T00:00:00	2024-11-08T17:00:00	2	Temperatura media	18.8
119410	7	Sololá	704	Santa Lucía Utatlán 	7	Santa Rita 	9	Septiembre	2023-09-25T00:00:00	2024-11-08T17:00:00	4	Temperatura máxima	19.1
119411	7	Sololá	704	Santa Lucía Utatlán 	7	Santa Rita 	9	Septiembre	2023-09-25T00:00:00	2024-11-08T17:00:00	3	Temperatura mínima	18.7
119412	7	Sololá	704	Santa Lucía Utatlán 	7	Santa Rita 	9	Septiembre	2023-09-25T00:00:00	2024-11-08T17:00:00	5	Humedad	94
119413	7	Sololá	704	Santa Lucía Utatlán 	7	Santa Rita 	9	Septiembre	2023-09-25T00:00:00	2024-11-08T17:00:00	6	Velocidad del viento	3.2
119414	7	Sololá	704	Santa Lucía Utatlán 	7	Santa Rita 	9	Septiembre	2023-09-25T00:00:00	2024-11-08T17:00:00	7	Dirección del viento	3.22
119415	7	Sololá	704	Santa Lucía Utatlán 	7	Santa Rita 	9	Septiembre	2023-09-25T00:00:00	2024-11-08T17:00:00	1	Precipitación	0
119416	7	Sololá	704	Santa Lucía Utatlán 	7	Santa Rita 	9	Septiembre	2023-09-25T00:00:00	2024-11-08T17:00:00	8	Radiación solar	22
119417	7	Sololá	704	Santa Lucía Utatlán 	7	Santa Rita 	9	Septiembre	2023-09-25T00:00:00	2024-11-08T18:00:00	2	Temperatura media	18.4
119418	7	Sololá	704	Santa Lucía Utatlán 	7	Santa Rita 	9	Septiembre	2023-09-25T00:00:00	2024-11-08T18:00:00	4	Temperatura máxima	18.8
119419	7	Sololá	704	Santa Lucía Utatlán 	7	Santa Rita 	9	Septiembre	2023-09-25T00:00:00	2024-11-08T18:00:00	3	Temperatura mínima	18.4
119420	7	Sololá	704	Santa Lucía Utatlán 	7	Santa Rita 	9	Septiembre	2023-09-25T00:00:00	2024-11-08T18:00:00	5	Humedad	93
119421	7	Sololá	704	Santa Lucía Utatlán 	7	Santa Rita 	9	Septiembre	2023-09-25T00:00:00	2024-11-08T18:00:00	6	Velocidad del viento	1.6
119422	7	Sololá	704	Santa Lucía Utatlán 	7	Santa Rita 	9	Septiembre	2023-09-25T00:00:00	2024-11-08T18:00:00	7	Dirección del viento	1.61
119423	7	Sololá	704	Santa Lucía Utatlán 	7	Santa Rita 	9	Septiembre	2023-09-25T00:00:00	2024-11-08T18:00:00	1	Precipitación	0
119424	7	Sololá	704	Santa Lucía Utatlán 	7	Santa Rita 	9	Septiembre	2023-09-25T00:00:00	2024-11-08T18:00:00	8	Radiación solar	0
119425	7	Sololá	704	Santa Lucía Utatlán 	7	Santa Rita 	9	Septiembre	2023-09-25T00:00:00	2024-11-08T19:00:00	2	Temperatura media	18.4
119426	7	Sololá	704	Santa Lucía Utatlán 	7	Santa Rita 	9	Septiembre	2023-09-25T00:00:00	2024-11-08T19:00:00	4	Temperatura máxima	18.6
119427	7	Sololá	704	Santa Lucía Utatlán 	7	Santa Rita 	9	Septiembre	2023-09-25T00:00:00	2024-11-08T19:00:00	3	Temperatura mínima	18.3
119428	7	Sololá	704	Santa Lucía Utatlán 	7	Santa Rita 	9	Septiembre	2023-09-25T00:00:00	2024-11-08T19:00:00	5	Humedad	94
119429	7	Sololá	704	Santa Lucía Utatlán 	7	Santa Rita 	9	Septiembre	2023-09-25T00:00:00	2024-11-08T19:00:00	6	Velocidad del viento	1.6
119430	7	Sololá	704	Santa Lucía Utatlán 	7	Santa Rita 	9	Septiembre	2023-09-25T00:00:00	2024-11-08T19:00:00	7	Dirección del viento	1.61
119431	7	Sololá	704	Santa Lucía Utatlán 	7	Santa Rita 	9	Septiembre	2023-09-25T00:00:00	2024-11-08T19:00:00	1	Precipitación	0
119432	7	Sololá	704	Santa Lucía Utatlán 	7	Santa Rita 	9	Septiembre	2023-09-25T00:00:00	2024-11-08T19:00:00	8	Radiación solar	0
119433	7	Sololá	704	Santa Lucía Utatlán 	7	Santa Rita 	9	Septiembre	2023-09-25T00:00:00	2024-11-08T20:00:00	2	Temperatura media	18.6
119434	7	Sololá	704	Santa Lucía Utatlán 	7	Santa Rita 	9	Septiembre	2023-09-25T00:00:00	2024-11-08T20:00:00	4	Temperatura máxima	19
119435	7	Sololá	704	Santa Lucía Utatlán 	7	Santa Rita 	9	Septiembre	2023-09-25T00:00:00	2024-11-08T20:00:00	3	Temperatura mínima	18.4
119436	7	Sololá	704	Santa Lucía Utatlán 	7	Santa Rita 	9	Septiembre	2023-09-25T00:00:00	2024-11-08T20:00:00	5	Humedad	95
119437	7	Sololá	704	Santa Lucía Utatlán 	7	Santa Rita 	9	Septiembre	2023-09-25T00:00:00	2024-11-08T20:00:00	6	Velocidad del viento	1.6
119438	7	Sololá	704	Santa Lucía Utatlán 	7	Santa Rita 	9	Septiembre	2023-09-25T00:00:00	2024-11-08T20:00:00	7	Dirección del viento	1.61
119439	7	Sololá	704	Santa Lucía Utatlán 	7	Santa Rita 	9	Septiembre	2023-09-25T00:00:00	2024-11-08T20:00:00	1	Precipitación	0
119440	7	Sololá	704	Santa Lucía Utatlán 	7	Santa Rita 	9	Septiembre	2023-09-25T00:00:00	2024-11-08T20:00:00	8	Radiación solar	0
119441	7	Sololá	704	Santa Lucía Utatlán 	7	Santa Rita 	9	Septiembre	2023-09-25T00:00:00	2024-11-08T21:00:00	2	Temperatura media	18.7
119442	7	Sololá	704	Santa Lucía Utatlán 	7	Santa Rita 	9	Septiembre	2023-09-25T00:00:00	2024-11-08T21:00:00	4	Temperatura máxima	18.8
119443	7	Sololá	704	Santa Lucía Utatlán 	7	Santa Rita 	9	Septiembre	2023-09-25T00:00:00	2024-11-08T21:00:00	3	Temperatura mínima	18.6
119444	7	Sololá	704	Santa Lucía Utatlán 	7	Santa Rita 	9	Septiembre	2023-09-25T00:00:00	2024-11-08T21:00:00	5	Humedad	96
119445	7	Sololá	704	Santa Lucía Utatlán 	7	Santa Rita 	9	Septiembre	2023-09-25T00:00:00	2024-11-08T21:00:00	6	Velocidad del viento	0
119446	7	Sololá	704	Santa Lucía Utatlán 	7	Santa Rita 	9	Septiembre	2023-09-25T00:00:00	2024-11-08T21:00:00	7	Dirección del viento	0
119447	7	Sololá	704	Santa Lucía Utatlán 	7	Santa Rita 	9	Septiembre	2023-09-25T00:00:00	2024-11-08T21:00:00	1	Precipitación	0.4
119448	7	Sololá	704	Santa Lucía Utatlán 	7	Santa Rita 	9	Septiembre	2023-09-25T00:00:00	2024-11-08T21:00:00	8	Radiación solar	0
119449	7	Sololá	704	Santa Lucía Utatlán 	7	Santa Rita 	9	Septiembre	2023-09-25T00:00:00	2024-11-08T22:00:00	2	Temperatura media	17.9
119450	7	Sololá	704	Santa Lucía Utatlán 	7	Santa Rita 	9	Septiembre	2023-09-25T00:00:00	2024-11-08T22:00:00	4	Temperatura máxima	18.7
119451	7	Sololá	704	Santa Lucía Utatlán 	7	Santa Rita 	9	Septiembre	2023-09-25T00:00:00	2024-11-08T22:00:00	3	Temperatura mínima	17.9
119452	7	Sololá	704	Santa Lucía Utatlán 	7	Santa Rita 	9	Septiembre	2023-09-25T00:00:00	2024-11-08T22:00:00	5	Humedad	94
119453	7	Sololá	704	Santa Lucía Utatlán 	7	Santa Rita 	9	Septiembre	2023-09-25T00:00:00	2024-11-08T22:00:00	6	Velocidad del viento	1.6
119454	7	Sololá	704	Santa Lucía Utatlán 	7	Santa Rita 	9	Septiembre	2023-09-25T00:00:00	2024-11-08T22:00:00	7	Dirección del viento	1.61
119455	7	Sololá	704	Santa Lucía Utatlán 	7	Santa Rita 	9	Septiembre	2023-09-25T00:00:00	2024-11-08T22:00:00	1	Precipitación	3.2
119456	7	Sololá	704	Santa Lucía Utatlán 	7	Santa Rita 	9	Septiembre	2023-09-25T00:00:00	2024-11-08T22:00:00	8	Radiación solar	0
119457	7	Sololá	704	Santa Lucía Utatlán 	7	Santa Rita 	9	Septiembre	2023-09-25T00:00:00	2024-11-08T23:00:00	2	Temperatura media	17.6
119458	7	Sololá	704	Santa Lucía Utatlán 	7	Santa Rita 	9	Septiembre	2023-09-25T00:00:00	2024-11-08T23:00:00	4	Temperatura máxima	17.9
119459	7	Sololá	704	Santa Lucía Utatlán 	7	Santa Rita 	9	Septiembre	2023-09-25T00:00:00	2024-11-08T23:00:00	3	Temperatura mínima	17.4
119460	7	Sololá	704	Santa Lucía Utatlán 	7	Santa Rita 	9	Septiembre	2023-09-25T00:00:00	2024-11-08T23:00:00	5	Humedad	96
119461	7	Sololá	704	Santa Lucía Utatlán 	7	Santa Rita 	9	Septiembre	2023-09-25T00:00:00	2024-11-08T23:00:00	6	Velocidad del viento	1.6
119462	7	Sololá	704	Santa Lucía Utatlán 	7	Santa Rita 	9	Septiembre	2023-09-25T00:00:00	2024-11-08T23:00:00	7	Dirección del viento	1.61
119463	7	Sololá	704	Santa Lucía Utatlán 	7	Santa Rita 	9	Septiembre	2023-09-25T00:00:00	2024-11-08T23:00:00	1	Precipitación	4.4
119464	7	Sololá	704	Santa Lucía Utatlán 	7	Santa Rita 	9	Septiembre	2023-09-25T00:00:00	2024-11-08T23:00:00	8	Radiación solar	0
119465	7	Sololá	704	Santa Lucía Utatlán 	7	Santa Rita 	9	Septiembre	2023-09-26T00:00:00	2024-11-08T00:00:00	2	Temperatura media	17.4
119466	7	Sololá	704	Santa Lucía Utatlán 	7	Santa Rita 	9	Septiembre	2023-09-26T00:00:00	2024-11-08T00:00:00	4	Temperatura máxima	17.6
119467	7	Sololá	704	Santa Lucía Utatlán 	7	Santa Rita 	9	Septiembre	2023-09-26T00:00:00	2024-11-08T00:00:00	3	Temperatura mínima	17.3
119468	7	Sololá	704	Santa Lucía Utatlán 	7	Santa Rita 	9	Septiembre	2023-09-26T00:00:00	2024-11-08T00:00:00	5	Humedad	96
119469	7	Sololá	704	Santa Lucía Utatlán 	7	Santa Rita 	9	Septiembre	2023-09-26T00:00:00	2024-11-08T00:00:00	6	Velocidad del viento	1.6
119470	7	Sololá	704	Santa Lucía Utatlán 	7	Santa Rita 	9	Septiembre	2023-09-26T00:00:00	2024-11-08T00:00:00	7	Dirección del viento	1.61
119471	7	Sololá	704	Santa Lucía Utatlán 	7	Santa Rita 	9	Septiembre	2023-09-26T00:00:00	2024-11-08T00:00:00	1	Precipitación	0
119472	7	Sololá	704	Santa Lucía Utatlán 	7	Santa Rita 	9	Septiembre	2023-09-26T00:00:00	2024-11-08T00:00:00	8	Radiación solar	0
119473	7	Sololá	704	Santa Lucía Utatlán 	7	Santa Rita 	9	Septiembre	2023-09-26T00:00:00	2024-11-08T01:00:00	2	Temperatura media	16.9
119474	7	Sololá	704	Santa Lucía Utatlán 	7	Santa Rita 	9	Septiembre	2023-09-26T00:00:00	2024-11-08T01:00:00	4	Temperatura máxima	17.4
119475	7	Sololá	704	Santa Lucía Utatlán 	7	Santa Rita 	9	Septiembre	2023-09-26T00:00:00	2024-11-08T01:00:00	3	Temperatura mínima	16.9
119476	7	Sololá	704	Santa Lucía Utatlán 	7	Santa Rita 	9	Septiembre	2023-09-26T00:00:00	2024-11-08T01:00:00	5	Humedad	92
119477	7	Sololá	704	Santa Lucía Utatlán 	7	Santa Rita 	9	Septiembre	2023-09-26T00:00:00	2024-11-08T01:00:00	6	Velocidad del viento	3.2
119478	7	Sololá	704	Santa Lucía Utatlán 	7	Santa Rita 	9	Septiembre	2023-09-26T00:00:00	2024-11-08T01:00:00	7	Dirección del viento	3.22
119479	7	Sololá	704	Santa Lucía Utatlán 	7	Santa Rita 	9	Septiembre	2023-09-26T00:00:00	2024-11-08T01:00:00	1	Precipitación	0
119480	7	Sololá	704	Santa Lucía Utatlán 	7	Santa Rita 	9	Septiembre	2023-09-26T00:00:00	2024-11-08T01:00:00	8	Radiación solar	0
119481	7	Sololá	704	Santa Lucía Utatlán 	7	Santa Rita 	9	Septiembre	2023-09-26T00:00:00	2024-11-08T02:00:00	2	Temperatura media	16.1
119482	7	Sololá	704	Santa Lucía Utatlán 	7	Santa Rita 	9	Septiembre	2023-09-26T00:00:00	2024-11-08T02:00:00	4	Temperatura máxima	16.9
119483	7	Sololá	704	Santa Lucía Utatlán 	7	Santa Rita 	9	Septiembre	2023-09-26T00:00:00	2024-11-08T02:00:00	3	Temperatura mínima	16
119484	7	Sololá	704	Santa Lucía Utatlán 	7	Santa Rita 	9	Septiembre	2023-09-26T00:00:00	2024-11-08T02:00:00	5	Humedad	94
119485	7	Sololá	704	Santa Lucía Utatlán 	7	Santa Rita 	9	Septiembre	2023-09-26T00:00:00	2024-11-08T02:00:00	6	Velocidad del viento	3.2
119486	7	Sololá	704	Santa Lucía Utatlán 	7	Santa Rita 	9	Septiembre	2023-09-26T00:00:00	2024-11-08T02:00:00	7	Dirección del viento	3.22
119487	7	Sololá	704	Santa Lucía Utatlán 	7	Santa Rita 	9	Septiembre	2023-09-26T00:00:00	2024-11-08T02:00:00	1	Precipitación	0
119488	7	Sololá	704	Santa Lucía Utatlán 	7	Santa Rita 	9	Septiembre	2023-09-26T00:00:00	2024-11-08T02:00:00	8	Radiación solar	0
119489	7	Sololá	704	Santa Lucía Utatlán 	7	Santa Rita 	9	Septiembre	2023-09-26T00:00:00	2024-11-08T03:00:00	2	Temperatura media	17.7
119490	7	Sololá	704	Santa Lucía Utatlán 	7	Santa Rita 	9	Septiembre	2023-09-26T00:00:00	2024-11-08T03:00:00	4	Temperatura máxima	17.7
119491	7	Sololá	704	Santa Lucía Utatlán 	7	Santa Rita 	9	Septiembre	2023-09-26T00:00:00	2024-11-08T03:00:00	3	Temperatura mínima	16
119492	7	Sololá	704	Santa Lucía Utatlán 	7	Santa Rita 	9	Septiembre	2023-09-26T00:00:00	2024-11-08T03:00:00	5	Humedad	92
119493	7	Sololá	704	Santa Lucía Utatlán 	7	Santa Rita 	9	Septiembre	2023-09-26T00:00:00	2024-11-08T03:00:00	6	Velocidad del viento	3.2
119494	7	Sololá	704	Santa Lucía Utatlán 	7	Santa Rita 	9	Septiembre	2023-09-26T00:00:00	2024-11-08T03:00:00	7	Dirección del viento	3.22
119495	7	Sololá	704	Santa Lucía Utatlán 	7	Santa Rita 	9	Septiembre	2023-09-26T00:00:00	2024-11-08T03:00:00	1	Precipitación	0
119496	7	Sololá	704	Santa Lucía Utatlán 	7	Santa Rita 	9	Septiembre	2023-09-26T00:00:00	2024-11-08T03:00:00	8	Radiación solar	0
119497	7	Sololá	704	Santa Lucía Utatlán 	7	Santa Rita 	9	Septiembre	2023-09-26T00:00:00	2024-11-08T04:00:00	2	Temperatura media	20.9
119498	7	Sololá	704	Santa Lucía Utatlán 	7	Santa Rita 	9	Septiembre	2023-09-26T00:00:00	2024-11-08T04:00:00	4	Temperatura máxima	20.9
119499	7	Sololá	704	Santa Lucía Utatlán 	7	Santa Rita 	9	Septiembre	2023-09-26T00:00:00	2024-11-08T04:00:00	3	Temperatura mínima	17.7
119500	7	Sololá	704	Santa Lucía Utatlán 	7	Santa Rita 	9	Septiembre	2023-09-26T00:00:00	2024-11-08T04:00:00	5	Humedad	82
119501	7	Sololá	704	Santa Lucía Utatlán 	7	Santa Rita 	9	Septiembre	2023-09-26T00:00:00	2024-11-08T04:00:00	6	Velocidad del viento	1.6
119502	7	Sololá	704	Santa Lucía Utatlán 	7	Santa Rita 	9	Septiembre	2023-09-26T00:00:00	2024-11-08T04:00:00	7	Dirección del viento	1.61
119503	7	Sololá	704	Santa Lucía Utatlán 	7	Santa Rita 	9	Septiembre	2023-09-26T00:00:00	2024-11-08T04:00:00	1	Precipitación	0
119504	7	Sololá	704	Santa Lucía Utatlán 	7	Santa Rita 	9	Septiembre	2023-09-26T00:00:00	2024-11-08T04:00:00	8	Radiación solar	0
119505	7	Sololá	704	Santa Lucía Utatlán 	7	Santa Rita 	9	Septiembre	2023-09-26T00:00:00	2024-11-08T05:00:00	2	Temperatura media	23.1
119506	7	Sololá	704	Santa Lucía Utatlán 	7	Santa Rita 	9	Septiembre	2023-09-26T00:00:00	2024-11-08T05:00:00	4	Temperatura máxima	23.1
119507	7	Sololá	704	Santa Lucía Utatlán 	7	Santa Rita 	9	Septiembre	2023-09-26T00:00:00	2024-11-08T05:00:00	3	Temperatura mínima	21
119508	7	Sololá	704	Santa Lucía Utatlán 	7	Santa Rita 	9	Septiembre	2023-09-26T00:00:00	2024-11-08T05:00:00	5	Humedad	75
119509	7	Sololá	704	Santa Lucía Utatlán 	7	Santa Rita 	9	Septiembre	2023-09-26T00:00:00	2024-11-08T05:00:00	6	Velocidad del viento	3.2
119510	7	Sololá	704	Santa Lucía Utatlán 	7	Santa Rita 	9	Septiembre	2023-09-26T00:00:00	2024-11-08T05:00:00	7	Dirección del viento	3.22
119511	7	Sololá	704	Santa Lucía Utatlán 	7	Santa Rita 	9	Septiembre	2023-09-26T00:00:00	2024-11-08T05:00:00	1	Precipitación	0
119512	7	Sololá	704	Santa Lucía Utatlán 	7	Santa Rita 	9	Septiembre	2023-09-26T00:00:00	2024-11-08T05:00:00	8	Radiación solar	0
119513	7	Sololá	704	Santa Lucía Utatlán 	7	Santa Rita 	9	Septiembre	2023-09-26T00:00:00	2024-11-08T06:00:00	2	Temperatura media	24.6
119514	7	Sololá	704	Santa Lucía Utatlán 	7	Santa Rita 	9	Septiembre	2023-09-26T00:00:00	2024-11-08T06:00:00	4	Temperatura máxima	24.6
119515	7	Sololá	704	Santa Lucía Utatlán 	7	Santa Rita 	9	Septiembre	2023-09-26T00:00:00	2024-11-08T06:00:00	3	Temperatura mínima	23.1
119516	7	Sololá	704	Santa Lucía Utatlán 	7	Santa Rita 	9	Septiembre	2023-09-26T00:00:00	2024-11-08T06:00:00	5	Humedad	72
119517	7	Sololá	704	Santa Lucía Utatlán 	7	Santa Rita 	9	Septiembre	2023-09-26T00:00:00	2024-11-08T06:00:00	6	Velocidad del viento	4.8
119518	7	Sololá	704	Santa Lucía Utatlán 	7	Santa Rita 	9	Septiembre	2023-09-26T00:00:00	2024-11-08T06:00:00	7	Dirección del viento	4.83
119519	7	Sololá	704	Santa Lucía Utatlán 	7	Santa Rita 	9	Septiembre	2023-09-26T00:00:00	2024-11-08T06:00:00	1	Precipitación	0
119520	7	Sololá	704	Santa Lucía Utatlán 	7	Santa Rita 	9	Septiembre	2023-09-26T00:00:00	2024-11-08T06:00:00	8	Radiación solar	46
119521	7	Sololá	704	Santa Lucía Utatlán 	7	Santa Rita 	9	Septiembre	2023-09-26T00:00:00	2024-11-08T07:00:00	2	Temperatura media	24.8
119522	7	Sololá	704	Santa Lucía Utatlán 	7	Santa Rita 	9	Septiembre	2023-09-26T00:00:00	2024-11-08T07:00:00	4	Temperatura máxima	24.8
119523	7	Sololá	704	Santa Lucía Utatlán 	7	Santa Rita 	9	Septiembre	2023-09-26T00:00:00	2024-11-08T07:00:00	3	Temperatura mínima	23.6
119524	7	Sololá	704	Santa Lucía Utatlán 	7	Santa Rita 	9	Septiembre	2023-09-26T00:00:00	2024-11-08T07:00:00	5	Humedad	73
119525	7	Sololá	704	Santa Lucía Utatlán 	7	Santa Rita 	9	Septiembre	2023-09-26T00:00:00	2024-11-08T07:00:00	6	Velocidad del viento	4.8
119526	7	Sololá	704	Santa Lucía Utatlán 	7	Santa Rita 	9	Septiembre	2023-09-26T00:00:00	2024-11-08T07:00:00	7	Dirección del viento	4.83
119527	7	Sololá	704	Santa Lucía Utatlán 	7	Santa Rita 	9	Septiembre	2023-09-26T00:00:00	2024-11-08T07:00:00	1	Precipitación	0
119528	7	Sololá	704	Santa Lucía Utatlán 	7	Santa Rita 	9	Septiembre	2023-09-26T00:00:00	2024-11-08T07:00:00	8	Radiación solar	293
119529	7	Sololá	704	Santa Lucía Utatlán 	7	Santa Rita 	9	Septiembre	2023-09-26T00:00:00	2024-11-08T08:00:00	2	Temperatura media	24.9
119530	7	Sololá	704	Santa Lucía Utatlán 	7	Santa Rita 	9	Septiembre	2023-09-26T00:00:00	2024-11-08T08:00:00	4	Temperatura máxima	25.8
119531	7	Sololá	704	Santa Lucía Utatlán 	7	Santa Rita 	9	Septiembre	2023-09-26T00:00:00	2024-11-08T08:00:00	3	Temperatura mínima	24.1
119532	7	Sololá	704	Santa Lucía Utatlán 	7	Santa Rita 	9	Septiembre	2023-09-26T00:00:00	2024-11-08T08:00:00	5	Humedad	72
119533	7	Sololá	704	Santa Lucía Utatlán 	7	Santa Rita 	9	Septiembre	2023-09-26T00:00:00	2024-11-08T08:00:00	6	Velocidad del viento	6.4
119534	7	Sololá	704	Santa Lucía Utatlán 	7	Santa Rita 	9	Septiembre	2023-09-26T00:00:00	2024-11-08T08:00:00	7	Dirección del viento	6.44
119535	7	Sololá	704	Santa Lucía Utatlán 	7	Santa Rita 	9	Septiembre	2023-09-26T00:00:00	2024-11-08T08:00:00	1	Precipitación	0
119536	7	Sololá	704	Santa Lucía Utatlán 	7	Santa Rita 	9	Septiembre	2023-09-26T00:00:00	2024-11-08T08:00:00	8	Radiación solar	554
119537	7	Sololá	704	Santa Lucía Utatlán 	7	Santa Rita 	9	Septiembre	2023-09-26T00:00:00	2024-11-08T09:00:00	2	Temperatura media	25.2
119538	7	Sololá	704	Santa Lucía Utatlán 	7	Santa Rita 	9	Septiembre	2023-09-26T00:00:00	2024-11-08T09:00:00	4	Temperatura máxima	25.9
119539	7	Sololá	704	Santa Lucía Utatlán 	7	Santa Rita 	9	Septiembre	2023-09-26T00:00:00	2024-11-08T09:00:00	3	Temperatura mínima	24.8
119540	7	Sololá	704	Santa Lucía Utatlán 	7	Santa Rita 	9	Septiembre	2023-09-26T00:00:00	2024-11-08T09:00:00	5	Humedad	70
119541	7	Sololá	704	Santa Lucía Utatlán 	7	Santa Rita 	9	Septiembre	2023-09-26T00:00:00	2024-11-08T09:00:00	6	Velocidad del viento	6.4
119542	7	Sololá	704	Santa Lucía Utatlán 	7	Santa Rita 	9	Septiembre	2023-09-26T00:00:00	2024-11-08T09:00:00	7	Dirección del viento	6.44
119543	7	Sololá	704	Santa Lucía Utatlán 	7	Santa Rita 	9	Septiembre	2023-09-26T00:00:00	2024-11-08T09:00:00	1	Precipitación	0
119544	7	Sololá	704	Santa Lucía Utatlán 	7	Santa Rita 	9	Septiembre	2023-09-26T00:00:00	2024-11-08T09:00:00	8	Radiación solar	753
119545	7	Sololá	704	Santa Lucía Utatlán 	7	Santa Rita 	9	Septiembre	2023-09-26T00:00:00	2024-11-08T10:00:00	2	Temperatura media	23.4
119546	7	Sololá	704	Santa Lucía Utatlán 	7	Santa Rita 	9	Septiembre	2023-09-26T00:00:00	2024-11-08T10:00:00	4	Temperatura máxima	25.1
119547	7	Sololá	704	Santa Lucía Utatlán 	7	Santa Rita 	9	Septiembre	2023-09-26T00:00:00	2024-11-08T10:00:00	3	Temperatura mínima	23.4
119548	7	Sololá	704	Santa Lucía Utatlán 	7	Santa Rita 	9	Septiembre	2023-09-26T00:00:00	2024-11-08T10:00:00	5	Humedad	78
119549	7	Sololá	704	Santa Lucía Utatlán 	7	Santa Rita 	9	Septiembre	2023-09-26T00:00:00	2024-11-08T10:00:00	6	Velocidad del viento	6.4
119550	7	Sololá	704	Santa Lucía Utatlán 	7	Santa Rita 	9	Septiembre	2023-09-26T00:00:00	2024-11-08T10:00:00	7	Dirección del viento	6.44
119551	7	Sololá	704	Santa Lucía Utatlán 	7	Santa Rita 	9	Septiembre	2023-09-26T00:00:00	2024-11-08T10:00:00	1	Precipitación	0
119552	7	Sololá	704	Santa Lucía Utatlán 	7	Santa Rita 	9	Septiembre	2023-09-26T00:00:00	2024-11-08T10:00:00	8	Radiación solar	320
119553	7	Sololá	704	Santa Lucía Utatlán 	7	Santa Rita 	9	Septiembre	2023-09-26T00:00:00	2024-11-08T11:00:00	2	Temperatura media	20.7
119554	7	Sololá	704	Santa Lucía Utatlán 	7	Santa Rita 	9	Septiembre	2023-09-26T00:00:00	2024-11-08T11:00:00	4	Temperatura máxima	23.4
119555	7	Sololá	704	Santa Lucía Utatlán 	7	Santa Rita 	9	Septiembre	2023-09-26T00:00:00	2024-11-08T11:00:00	3	Temperatura mínima	20.6
119556	7	Sololá	704	Santa Lucía Utatlán 	7	Santa Rita 	9	Septiembre	2023-09-26T00:00:00	2024-11-08T11:00:00	5	Humedad	93
119557	7	Sololá	704	Santa Lucía Utatlán 	7	Santa Rita 	9	Septiembre	2023-09-26T00:00:00	2024-11-08T11:00:00	6	Velocidad del viento	4.8
119558	7	Sololá	704	Santa Lucía Utatlán 	7	Santa Rita 	9	Septiembre	2023-09-26T00:00:00	2024-11-08T11:00:00	7	Dirección del viento	4.83
119559	7	Sololá	704	Santa Lucía Utatlán 	7	Santa Rita 	9	Septiembre	2023-09-26T00:00:00	2024-11-08T11:00:00	1	Precipitación	6.4
119560	7	Sololá	704	Santa Lucía Utatlán 	7	Santa Rita 	9	Septiembre	2023-09-26T00:00:00	2024-11-08T11:00:00	8	Radiación solar	506
119561	7	Sololá	704	Santa Lucía Utatlán 	7	Santa Rita 	9	Septiembre	2023-09-26T00:00:00	2024-11-08T12:00:00	2	Temperatura media	21.8
119562	7	Sololá	704	Santa Lucía Utatlán 	7	Santa Rita 	9	Septiembre	2023-09-26T00:00:00	2024-11-08T12:00:00	4	Temperatura máxima	21.8
119563	7	Sololá	704	Santa Lucía Utatlán 	7	Santa Rita 	9	Septiembre	2023-09-26T00:00:00	2024-11-08T12:00:00	3	Temperatura mínima	20.7
119564	7	Sololá	704	Santa Lucía Utatlán 	7	Santa Rita 	9	Septiembre	2023-09-26T00:00:00	2024-11-08T12:00:00	5	Humedad	91
119565	7	Sololá	704	Santa Lucía Utatlán 	7	Santa Rita 	9	Septiembre	2023-09-26T00:00:00	2024-11-08T12:00:00	6	Velocidad del viento	1.6
119566	7	Sololá	704	Santa Lucía Utatlán 	7	Santa Rita 	9	Septiembre	2023-09-26T00:00:00	2024-11-08T12:00:00	7	Dirección del viento	1.61
119567	7	Sololá	704	Santa Lucía Utatlán 	7	Santa Rita 	9	Septiembre	2023-09-26T00:00:00	2024-11-08T12:00:00	1	Precipitación	0.6
119568	7	Sololá	704	Santa Lucía Utatlán 	7	Santa Rita 	9	Septiembre	2023-09-26T00:00:00	2024-11-08T12:00:00	8	Radiación solar	471
119569	7	Sololá	704	Santa Lucía Utatlán 	7	Santa Rita 	9	Septiembre	2023-09-26T00:00:00	2024-11-08T13:00:00	2	Temperatura media	20.6
119570	7	Sololá	704	Santa Lucía Utatlán 	7	Santa Rita 	9	Septiembre	2023-09-26T00:00:00	2024-11-08T13:00:00	4	Temperatura máxima	22.1
119571	7	Sololá	704	Santa Lucía Utatlán 	7	Santa Rita 	9	Septiembre	2023-09-26T00:00:00	2024-11-08T13:00:00	3	Temperatura mínima	20.6
119572	7	Sololá	704	Santa Lucía Utatlán 	7	Santa Rita 	9	Septiembre	2023-09-26T00:00:00	2024-11-08T13:00:00	5	Humedad	92
119573	7	Sololá	704	Santa Lucía Utatlán 	7	Santa Rita 	9	Septiembre	2023-09-26T00:00:00	2024-11-08T13:00:00	6	Velocidad del viento	3.2
119574	7	Sololá	704	Santa Lucía Utatlán 	7	Santa Rita 	9	Septiembre	2023-09-26T00:00:00	2024-11-08T13:00:00	7	Dirección del viento	3.22
119575	7	Sololá	704	Santa Lucía Utatlán 	7	Santa Rita 	9	Septiembre	2023-09-26T00:00:00	2024-11-08T13:00:00	1	Precipitación	0
119576	7	Sololá	704	Santa Lucía Utatlán 	7	Santa Rita 	9	Septiembre	2023-09-26T00:00:00	2024-11-08T13:00:00	8	Radiación solar	121
119577	7	Sololá	704	Santa Lucía Utatlán 	7	Santa Rita 	9	Septiembre	2023-09-26T00:00:00	2024-11-08T14:00:00	2	Temperatura media	19.8
119578	7	Sololá	704	Santa Lucía Utatlán 	7	Santa Rita 	9	Septiembre	2023-09-26T00:00:00	2024-11-08T14:00:00	4	Temperatura máxima	20.6
119579	7	Sololá	704	Santa Lucía Utatlán 	7	Santa Rita 	9	Septiembre	2023-09-26T00:00:00	2024-11-08T14:00:00	3	Temperatura mínima	19.7
119580	7	Sololá	704	Santa Lucía Utatlán 	7	Santa Rita 	9	Septiembre	2023-09-26T00:00:00	2024-11-08T14:00:00	5	Humedad	95
119581	7	Sololá	704	Santa Lucía Utatlán 	7	Santa Rita 	9	Septiembre	2023-09-26T00:00:00	2024-11-08T14:00:00	6	Velocidad del viento	3.2
119582	7	Sololá	704	Santa Lucía Utatlán 	7	Santa Rita 	9	Septiembre	2023-09-26T00:00:00	2024-11-08T14:00:00	7	Dirección del viento	3.22
119583	7	Sololá	704	Santa Lucía Utatlán 	7	Santa Rita 	9	Septiembre	2023-09-26T00:00:00	2024-11-08T14:00:00	1	Precipitación	0.2
119584	7	Sololá	704	Santa Lucía Utatlán 	7	Santa Rita 	9	Septiembre	2023-09-26T00:00:00	2024-11-08T14:00:00	8	Radiación solar	59
119585	7	Sololá	704	Santa Lucía Utatlán 	7	Santa Rita 	9	Septiembre	2023-09-26T00:00:00	2024-11-08T15:00:00	2	Temperatura media	19.5
119586	7	Sololá	704	Santa Lucía Utatlán 	7	Santa Rita 	9	Septiembre	2023-09-26T00:00:00	2024-11-08T15:00:00	4	Temperatura máxima	19.8
119587	7	Sololá	704	Santa Lucía Utatlán 	7	Santa Rita 	9	Septiembre	2023-09-26T00:00:00	2024-11-08T15:00:00	3	Temperatura mínima	19.4
119588	7	Sololá	704	Santa Lucía Utatlán 	7	Santa Rita 	9	Septiembre	2023-09-26T00:00:00	2024-11-08T15:00:00	5	Humedad	95
119589	7	Sololá	704	Santa Lucía Utatlán 	7	Santa Rita 	9	Septiembre	2023-09-26T00:00:00	2024-11-08T15:00:00	6	Velocidad del viento	1.6
119590	7	Sololá	704	Santa Lucía Utatlán 	7	Santa Rita 	9	Septiembre	2023-09-26T00:00:00	2024-11-08T15:00:00	7	Dirección del viento	1.61
119591	7	Sololá	704	Santa Lucía Utatlán 	7	Santa Rita 	9	Septiembre	2023-09-26T00:00:00	2024-11-08T15:00:00	1	Precipitación	0.8
119592	7	Sololá	704	Santa Lucía Utatlán 	7	Santa Rita 	9	Septiembre	2023-09-26T00:00:00	2024-11-08T15:00:00	8	Radiación solar	136
119593	7	Sololá	704	Santa Lucía Utatlán 	7	Santa Rita 	9	Septiembre	2023-09-26T00:00:00	2024-11-08T16:00:00	2	Temperatura media	19.2
119594	7	Sololá	704	Santa Lucía Utatlán 	7	Santa Rita 	9	Septiembre	2023-09-26T00:00:00	2024-11-08T16:00:00	4	Temperatura máxima	19.5
119595	7	Sololá	704	Santa Lucía Utatlán 	7	Santa Rita 	9	Septiembre	2023-09-26T00:00:00	2024-11-08T16:00:00	3	Temperatura mínima	19.2
119596	7	Sololá	704	Santa Lucía Utatlán 	7	Santa Rita 	9	Septiembre	2023-09-26T00:00:00	2024-11-08T16:00:00	5	Humedad	95
119597	7	Sololá	704	Santa Lucía Utatlán 	7	Santa Rita 	9	Septiembre	2023-09-26T00:00:00	2024-11-08T16:00:00	6	Velocidad del viento	0
119598	7	Sololá	704	Santa Lucía Utatlán 	7	Santa Rita 	9	Septiembre	2023-09-26T00:00:00	2024-11-08T16:00:00	7	Dirección del viento	0
119599	7	Sololá	704	Santa Lucía Utatlán 	7	Santa Rita 	9	Septiembre	2023-09-26T00:00:00	2024-11-08T16:00:00	1	Precipitación	1
119600	7	Sololá	704	Santa Lucía Utatlán 	7	Santa Rita 	9	Septiembre	2023-09-26T00:00:00	2024-11-08T16:00:00	8	Radiación solar	63
119601	7	Sololá	704	Santa Lucía Utatlán 	7	Santa Rita 	9	Septiembre	2023-09-26T00:00:00	2024-11-08T17:00:00	2	Temperatura media	19.3
119602	7	Sololá	704	Santa Lucía Utatlán 	7	Santa Rita 	9	Septiembre	2023-09-26T00:00:00	2024-11-08T17:00:00	4	Temperatura máxima	19.3
119603	7	Sololá	704	Santa Lucía Utatlán 	7	Santa Rita 	9	Septiembre	2023-09-26T00:00:00	2024-11-08T17:00:00	3	Temperatura mínima	19.2
119604	7	Sololá	704	Santa Lucía Utatlán 	7	Santa Rita 	9	Septiembre	2023-09-26T00:00:00	2024-11-08T17:00:00	5	Humedad	97
119605	7	Sololá	704	Santa Lucía Utatlán 	7	Santa Rita 	9	Septiembre	2023-09-26T00:00:00	2024-11-08T17:00:00	6	Velocidad del viento	1.6
119606	7	Sololá	704	Santa Lucía Utatlán 	7	Santa Rita 	9	Septiembre	2023-09-26T00:00:00	2024-11-08T17:00:00	7	Dirección del viento	1.61
119607	7	Sololá	704	Santa Lucía Utatlán 	7	Santa Rita 	9	Septiembre	2023-09-26T00:00:00	2024-11-08T17:00:00	1	Precipitación	0
119608	7	Sololá	704	Santa Lucía Utatlán 	7	Santa Rita 	9	Septiembre	2023-09-26T00:00:00	2024-11-08T17:00:00	8	Radiación solar	0
119609	7	Sololá	704	Santa Lucía Utatlán 	7	Santa Rita 	9	Septiembre	2023-09-26T00:00:00	2024-11-08T18:00:00	2	Temperatura media	19.3
119610	7	Sololá	704	Santa Lucía Utatlán 	7	Santa Rita 	9	Septiembre	2023-09-26T00:00:00	2024-11-08T18:00:00	4	Temperatura máxima	19.3
119611	7	Sololá	704	Santa Lucía Utatlán 	7	Santa Rita 	9	Septiembre	2023-09-26T00:00:00	2024-11-08T18:00:00	3	Temperatura mínima	19.2
119612	7	Sololá	704	Santa Lucía Utatlán 	7	Santa Rita 	9	Septiembre	2023-09-26T00:00:00	2024-11-08T18:00:00	5	Humedad	97
119613	7	Sololá	704	Santa Lucía Utatlán 	7	Santa Rita 	9	Septiembre	2023-09-26T00:00:00	2024-11-08T18:00:00	6	Velocidad del viento	0
119614	7	Sololá	704	Santa Lucía Utatlán 	7	Santa Rita 	9	Septiembre	2023-09-26T00:00:00	2024-11-08T18:00:00	7	Dirección del viento	0
119615	7	Sololá	704	Santa Lucía Utatlán 	7	Santa Rita 	9	Septiembre	2023-09-26T00:00:00	2024-11-08T18:00:00	1	Precipitación	0
119616	7	Sololá	704	Santa Lucía Utatlán 	7	Santa Rita 	9	Septiembre	2023-09-26T00:00:00	2024-11-08T18:00:00	8	Radiación solar	0
119617	7	Sololá	704	Santa Lucía Utatlán 	7	Santa Rita 	9	Septiembre	2023-09-26T00:00:00	2024-11-08T19:00:00	2	Temperatura media	18.7
119618	7	Sololá	704	Santa Lucía Utatlán 	7	Santa Rita 	9	Septiembre	2023-09-26T00:00:00	2024-11-08T19:00:00	4	Temperatura máxima	19.3
119619	7	Sololá	704	Santa Lucía Utatlán 	7	Santa Rita 	9	Septiembre	2023-09-26T00:00:00	2024-11-08T19:00:00	3	Temperatura mínima	18.7
119620	7	Sololá	704	Santa Lucía Utatlán 	7	Santa Rita 	9	Septiembre	2023-09-26T00:00:00	2024-11-08T19:00:00	5	Humedad	96
119621	7	Sololá	704	Santa Lucía Utatlán 	7	Santa Rita 	9	Septiembre	2023-09-26T00:00:00	2024-11-08T19:00:00	6	Velocidad del viento	1.6
119622	7	Sololá	704	Santa Lucía Utatlán 	7	Santa Rita 	9	Septiembre	2023-09-26T00:00:00	2024-11-08T19:00:00	7	Dirección del viento	1.61
119623	7	Sololá	704	Santa Lucía Utatlán 	7	Santa Rita 	9	Septiembre	2023-09-26T00:00:00	2024-11-08T19:00:00	1	Precipitación	0
119624	7	Sololá	704	Santa Lucía Utatlán 	7	Santa Rita 	9	Septiembre	2023-09-26T00:00:00	2024-11-08T19:00:00	8	Radiación solar	0
119625	7	Sololá	704	Santa Lucía Utatlán 	7	Santa Rita 	9	Septiembre	2023-09-26T00:00:00	2024-11-08T20:00:00	2	Temperatura media	18.2
119626	7	Sololá	704	Santa Lucía Utatlán 	7	Santa Rita 	9	Septiembre	2023-09-26T00:00:00	2024-11-08T20:00:00	4	Temperatura máxima	18.7
119627	7	Sololá	704	Santa Lucía Utatlán 	7	Santa Rita 	9	Septiembre	2023-09-26T00:00:00	2024-11-08T20:00:00	3	Temperatura mínima	18.1
119628	7	Sololá	704	Santa Lucía Utatlán 	7	Santa Rita 	9	Septiembre	2023-09-26T00:00:00	2024-11-08T20:00:00	5	Humedad	95
119629	7	Sololá	704	Santa Lucía Utatlán 	7	Santa Rita 	9	Septiembre	2023-09-26T00:00:00	2024-11-08T20:00:00	6	Velocidad del viento	1.6
119630	7	Sololá	704	Santa Lucía Utatlán 	7	Santa Rita 	9	Septiembre	2023-09-26T00:00:00	2024-11-08T20:00:00	7	Dirección del viento	1.61
119631	7	Sololá	704	Santa Lucía Utatlán 	7	Santa Rita 	9	Septiembre	2023-09-26T00:00:00	2024-11-08T20:00:00	1	Precipitación	0
119632	7	Sololá	704	Santa Lucía Utatlán 	7	Santa Rita 	9	Septiembre	2023-09-26T00:00:00	2024-11-08T20:00:00	8	Radiación solar	0
119633	7	Sololá	704	Santa Lucía Utatlán 	7	Santa Rita 	9	Septiembre	2023-09-26T00:00:00	2024-11-08T21:00:00	2	Temperatura media	17.7
119634	7	Sololá	704	Santa Lucía Utatlán 	7	Santa Rita 	9	Septiembre	2023-09-26T00:00:00	2024-11-08T21:00:00	4	Temperatura máxima	18.2
119635	7	Sololá	704	Santa Lucía Utatlán 	7	Santa Rita 	9	Septiembre	2023-09-26T00:00:00	2024-11-08T21:00:00	3	Temperatura mínima	17.7
119636	7	Sololá	704	Santa Lucía Utatlán 	7	Santa Rita 	9	Septiembre	2023-09-26T00:00:00	2024-11-08T21:00:00	5	Humedad	95
119637	7	Sololá	704	Santa Lucía Utatlán 	7	Santa Rita 	9	Septiembre	2023-09-26T00:00:00	2024-11-08T21:00:00	6	Velocidad del viento	3.2
119638	7	Sololá	704	Santa Lucía Utatlán 	7	Santa Rita 	9	Septiembre	2023-09-26T00:00:00	2024-11-08T21:00:00	7	Dirección del viento	3.22
119639	7	Sololá	704	Santa Lucía Utatlán 	7	Santa Rita 	9	Septiembre	2023-09-26T00:00:00	2024-11-08T21:00:00	1	Precipitación	0
119640	7	Sololá	704	Santa Lucía Utatlán 	7	Santa Rita 	9	Septiembre	2023-09-26T00:00:00	2024-11-08T21:00:00	8	Radiación solar	0
119641	7	Sololá	704	Santa Lucía Utatlán 	7	Santa Rita 	9	Septiembre	2023-09-26T00:00:00	2024-11-08T22:00:00	2	Temperatura media	17.7
119642	7	Sololá	704	Santa Lucía Utatlán 	7	Santa Rita 	9	Septiembre	2023-09-26T00:00:00	2024-11-08T22:00:00	4	Temperatura máxima	17.8
119643	7	Sololá	704	Santa Lucía Utatlán 	7	Santa Rita 	9	Septiembre	2023-09-26T00:00:00	2024-11-08T22:00:00	3	Temperatura mínima	17.5
119644	7	Sololá	704	Santa Lucía Utatlán 	7	Santa Rita 	9	Septiembre	2023-09-26T00:00:00	2024-11-08T22:00:00	5	Humedad	96
119645	7	Sololá	704	Santa Lucía Utatlán 	7	Santa Rita 	9	Septiembre	2023-09-26T00:00:00	2024-11-08T22:00:00	6	Velocidad del viento	3.2
119646	7	Sololá	704	Santa Lucía Utatlán 	7	Santa Rita 	9	Septiembre	2023-09-26T00:00:00	2024-11-08T22:00:00	7	Dirección del viento	3.22
119647	7	Sololá	704	Santa Lucía Utatlán 	7	Santa Rita 	9	Septiembre	2023-09-26T00:00:00	2024-11-08T22:00:00	1	Precipitación	0
119648	7	Sololá	704	Santa Lucía Utatlán 	7	Santa Rita 	9	Septiembre	2023-09-26T00:00:00	2024-11-08T22:00:00	8	Radiación solar	0
119649	7	Sololá	704	Santa Lucía Utatlán 	7	Santa Rita 	9	Septiembre	2023-09-26T00:00:00	2024-11-08T23:00:00	2	Temperatura media	17.7
119650	7	Sololá	704	Santa Lucía Utatlán 	7	Santa Rita 	9	Septiembre	2023-09-26T00:00:00	2024-11-08T23:00:00	4	Temperatura máxima	17.8
119651	7	Sololá	704	Santa Lucía Utatlán 	7	Santa Rita 	9	Septiembre	2023-09-26T00:00:00	2024-11-08T23:00:00	3	Temperatura mínima	17.7
119652	7	Sololá	704	Santa Lucía Utatlán 	7	Santa Rita 	9	Septiembre	2023-09-26T00:00:00	2024-11-08T23:00:00	5	Humedad	95
119653	7	Sololá	704	Santa Lucía Utatlán 	7	Santa Rita 	9	Septiembre	2023-09-26T00:00:00	2024-11-08T23:00:00	6	Velocidad del viento	1.6
119654	7	Sololá	704	Santa Lucía Utatlán 	7	Santa Rita 	9	Septiembre	2023-09-26T00:00:00	2024-11-08T23:00:00	7	Dirección del viento	1.61
119655	7	Sololá	704	Santa Lucía Utatlán 	7	Santa Rita 	9	Septiembre	2023-09-26T00:00:00	2024-11-08T23:00:00	1	Precipitación	0
119656	7	Sololá	704	Santa Lucía Utatlán 	7	Santa Rita 	9	Septiembre	2023-09-26T00:00:00	2024-11-08T23:00:00	8	Radiación solar	0
119657	7	Sololá	704	Santa Lucía Utatlán 	7	Santa Rita 	9	Septiembre	2023-09-27T00:00:00	2024-11-08T00:00:00	2	Temperatura media	17.3
119658	7	Sololá	704	Santa Lucía Utatlán 	7	Santa Rita 	9	Septiembre	2023-09-27T00:00:00	2024-11-08T00:00:00	4	Temperatura máxima	17.8
119659	7	Sololá	704	Santa Lucía Utatlán 	7	Santa Rita 	9	Septiembre	2023-09-27T00:00:00	2024-11-08T00:00:00	3	Temperatura mínima	17.2
119660	7	Sololá	704	Santa Lucía Utatlán 	7	Santa Rita 	9	Septiembre	2023-09-27T00:00:00	2024-11-08T00:00:00	5	Humedad	95
119661	7	Sololá	704	Santa Lucía Utatlán 	7	Santa Rita 	9	Septiembre	2023-09-27T00:00:00	2024-11-08T00:00:00	6	Velocidad del viento	3.2
119662	7	Sololá	704	Santa Lucía Utatlán 	7	Santa Rita 	9	Septiembre	2023-09-27T00:00:00	2024-11-08T00:00:00	7	Dirección del viento	3.22
119663	7	Sololá	704	Santa Lucía Utatlán 	7	Santa Rita 	9	Septiembre	2023-09-27T00:00:00	2024-11-08T00:00:00	1	Precipitación	0
119664	7	Sololá	704	Santa Lucía Utatlán 	7	Santa Rita 	9	Septiembre	2023-09-27T00:00:00	2024-11-08T00:00:00	8	Radiación solar	0
119665	7	Sololá	704	Santa Lucía Utatlán 	7	Santa Rita 	9	Septiembre	2023-09-27T00:00:00	2024-11-08T01:00:00	2	Temperatura media	16.9
119666	7	Sololá	704	Santa Lucía Utatlán 	7	Santa Rita 	9	Septiembre	2023-09-27T00:00:00	2024-11-08T01:00:00	4	Temperatura máxima	17.3
119667	7	Sololá	704	Santa Lucía Utatlán 	7	Santa Rita 	9	Septiembre	2023-09-27T00:00:00	2024-11-08T01:00:00	3	Temperatura mínima	16.9
119668	7	Sololá	704	Santa Lucía Utatlán 	7	Santa Rita 	9	Septiembre	2023-09-27T00:00:00	2024-11-08T01:00:00	5	Humedad	95
119669	7	Sololá	704	Santa Lucía Utatlán 	7	Santa Rita 	9	Septiembre	2023-09-27T00:00:00	2024-11-08T01:00:00	6	Velocidad del viento	3.2
119670	7	Sololá	704	Santa Lucía Utatlán 	7	Santa Rita 	9	Septiembre	2023-09-27T00:00:00	2024-11-08T01:00:00	7	Dirección del viento	3.22
119671	7	Sololá	704	Santa Lucía Utatlán 	7	Santa Rita 	9	Septiembre	2023-09-27T00:00:00	2024-11-08T01:00:00	1	Precipitación	0
119672	7	Sololá	704	Santa Lucía Utatlán 	7	Santa Rita 	9	Septiembre	2023-09-27T00:00:00	2024-11-08T01:00:00	8	Radiación solar	0
119673	7	Sololá	704	Santa Lucía Utatlán 	7	Santa Rita 	9	Septiembre	2023-09-27T00:00:00	2024-11-08T02:00:00	2	Temperatura media	16.8
119674	7	Sololá	704	Santa Lucía Utatlán 	7	Santa Rita 	9	Septiembre	2023-09-27T00:00:00	2024-11-08T02:00:00	4	Temperatura máxima	17
119675	7	Sololá	704	Santa Lucía Utatlán 	7	Santa Rita 	9	Septiembre	2023-09-27T00:00:00	2024-11-08T02:00:00	3	Temperatura mínima	16.8
119676	7	Sololá	704	Santa Lucía Utatlán 	7	Santa Rita 	9	Septiembre	2023-09-27T00:00:00	2024-11-08T02:00:00	5	Humedad	95
119677	7	Sololá	704	Santa Lucía Utatlán 	7	Santa Rita 	9	Septiembre	2023-09-27T00:00:00	2024-11-08T02:00:00	6	Velocidad del viento	4.8
119678	7	Sololá	704	Santa Lucía Utatlán 	7	Santa Rita 	9	Septiembre	2023-09-27T00:00:00	2024-11-08T02:00:00	7	Dirección del viento	4.83
119679	7	Sololá	704	Santa Lucía Utatlán 	7	Santa Rita 	9	Septiembre	2023-09-27T00:00:00	2024-11-08T02:00:00	1	Precipitación	0
119680	7	Sololá	704	Santa Lucía Utatlán 	7	Santa Rita 	9	Septiembre	2023-09-27T00:00:00	2024-11-08T02:00:00	8	Radiación solar	0
119681	7	Sololá	704	Santa Lucía Utatlán 	7	Santa Rita 	9	Septiembre	2023-09-27T00:00:00	2024-11-08T03:00:00	2	Temperatura media	18.1
119682	7	Sololá	704	Santa Lucía Utatlán 	7	Santa Rita 	9	Septiembre	2023-09-27T00:00:00	2024-11-08T03:00:00	4	Temperatura máxima	18.1
119683	7	Sololá	704	Santa Lucía Utatlán 	7	Santa Rita 	9	Septiembre	2023-09-27T00:00:00	2024-11-08T03:00:00	3	Temperatura mínima	16.8
119684	7	Sololá	704	Santa Lucía Utatlán 	7	Santa Rita 	9	Septiembre	2023-09-27T00:00:00	2024-11-08T03:00:00	5	Humedad	92
119685	7	Sololá	704	Santa Lucía Utatlán 	7	Santa Rita 	9	Septiembre	2023-09-27T00:00:00	2024-11-08T03:00:00	6	Velocidad del viento	3.2
119686	7	Sololá	704	Santa Lucía Utatlán 	7	Santa Rita 	9	Septiembre	2023-09-27T00:00:00	2024-11-08T03:00:00	7	Dirección del viento	3.22
119687	7	Sololá	704	Santa Lucía Utatlán 	7	Santa Rita 	9	Septiembre	2023-09-27T00:00:00	2024-11-08T03:00:00	1	Precipitación	0.2
119688	7	Sololá	704	Santa Lucía Utatlán 	7	Santa Rita 	9	Septiembre	2023-09-27T00:00:00	2024-11-08T03:00:00	8	Radiación solar	0
119689	7	Sololá	704	Santa Lucía Utatlán 	7	Santa Rita 	9	Septiembre	2023-09-27T00:00:00	2024-11-08T04:00:00	2	Temperatura media	21.8
119690	7	Sololá	704	Santa Lucía Utatlán 	7	Santa Rita 	9	Septiembre	2023-09-27T00:00:00	2024-11-08T04:00:00	4	Temperatura máxima	21.8
119691	7	Sololá	704	Santa Lucía Utatlán 	7	Santa Rita 	9	Septiembre	2023-09-27T00:00:00	2024-11-08T04:00:00	3	Temperatura mínima	18.1
119692	7	Sololá	704	Santa Lucía Utatlán 	7	Santa Rita 	9	Septiembre	2023-09-27T00:00:00	2024-11-08T04:00:00	5	Humedad	85
119693	7	Sololá	704	Santa Lucía Utatlán 	7	Santa Rita 	9	Septiembre	2023-09-27T00:00:00	2024-11-08T04:00:00	6	Velocidad del viento	1.6
119694	7	Sololá	704	Santa Lucía Utatlán 	7	Santa Rita 	9	Septiembre	2023-09-27T00:00:00	2024-11-08T04:00:00	7	Dirección del viento	1.61
119695	7	Sololá	704	Santa Lucía Utatlán 	7	Santa Rita 	9	Septiembre	2023-09-27T00:00:00	2024-11-08T04:00:00	1	Precipitación	0
119696	7	Sololá	704	Santa Lucía Utatlán 	7	Santa Rita 	9	Septiembre	2023-09-27T00:00:00	2024-11-08T04:00:00	8	Radiación solar	0
119697	7	Sololá	704	Santa Lucía Utatlán 	7	Santa Rita 	9	Septiembre	2023-09-27T00:00:00	2024-11-08T05:00:00	2	Temperatura media	23.6
119698	7	Sololá	704	Santa Lucía Utatlán 	7	Santa Rita 	9	Septiembre	2023-09-27T00:00:00	2024-11-08T05:00:00	4	Temperatura máxima	23.8
119699	7	Sololá	704	Santa Lucía Utatlán 	7	Santa Rita 	9	Septiembre	2023-09-27T00:00:00	2024-11-08T05:00:00	3	Temperatura mínima	21.8
119700	7	Sololá	704	Santa Lucía Utatlán 	7	Santa Rita 	9	Septiembre	2023-09-27T00:00:00	2024-11-08T05:00:00	5	Humedad	79
119701	7	Sololá	704	Santa Lucía Utatlán 	7	Santa Rita 	9	Septiembre	2023-09-27T00:00:00	2024-11-08T05:00:00	6	Velocidad del viento	3.2
119702	7	Sololá	704	Santa Lucía Utatlán 	7	Santa Rita 	9	Septiembre	2023-09-27T00:00:00	2024-11-08T05:00:00	7	Dirección del viento	3.22
119703	7	Sololá	704	Santa Lucía Utatlán 	7	Santa Rita 	9	Septiembre	2023-09-27T00:00:00	2024-11-08T05:00:00	1	Precipitación	0
119704	7	Sololá	704	Santa Lucía Utatlán 	7	Santa Rita 	9	Septiembre	2023-09-27T00:00:00	2024-11-08T05:00:00	8	Radiación solar	0
119705	7	Sololá	704	Santa Lucía Utatlán 	7	Santa Rita 	9	Septiembre	2023-09-27T00:00:00	2024-11-08T06:00:00	2	Temperatura media	24.6
119706	7	Sololá	704	Santa Lucía Utatlán 	7	Santa Rita 	9	Septiembre	2023-09-27T00:00:00	2024-11-08T06:00:00	4	Temperatura máxima	24.9
119707	7	Sololá	704	Santa Lucía Utatlán 	7	Santa Rita 	9	Septiembre	2023-09-27T00:00:00	2024-11-08T06:00:00	3	Temperatura mínima	23.6
119708	7	Sololá	704	Santa Lucía Utatlán 	7	Santa Rita 	9	Septiembre	2023-09-27T00:00:00	2024-11-08T06:00:00	5	Humedad	71
119709	7	Sololá	704	Santa Lucía Utatlán 	7	Santa Rita 	9	Septiembre	2023-09-27T00:00:00	2024-11-08T06:00:00	6	Velocidad del viento	4.8
119710	7	Sololá	704	Santa Lucía Utatlán 	7	Santa Rita 	9	Septiembre	2023-09-27T00:00:00	2024-11-08T06:00:00	7	Dirección del viento	4.83
119711	7	Sololá	704	Santa Lucía Utatlán 	7	Santa Rita 	9	Septiembre	2023-09-27T00:00:00	2024-11-08T06:00:00	1	Precipitación	0
119712	7	Sololá	704	Santa Lucía Utatlán 	7	Santa Rita 	9	Septiembre	2023-09-27T00:00:00	2024-11-08T06:00:00	8	Radiación solar	35
119713	7	Sololá	704	Santa Lucía Utatlán 	7	Santa Rita 	9	Septiembre	2023-09-27T00:00:00	2024-11-08T07:00:00	2	Temperatura media	24.6
119714	7	Sololá	704	Santa Lucía Utatlán 	7	Santa Rita 	9	Septiembre	2023-09-27T00:00:00	2024-11-08T07:00:00	4	Temperatura máxima	24.8
119715	7	Sololá	704	Santa Lucía Utatlán 	7	Santa Rita 	9	Septiembre	2023-09-27T00:00:00	2024-11-08T07:00:00	3	Temperatura mínima	23.9
119716	7	Sololá	704	Santa Lucía Utatlán 	7	Santa Rita 	9	Septiembre	2023-09-27T00:00:00	2024-11-08T07:00:00	5	Humedad	79
119717	7	Sololá	704	Santa Lucía Utatlán 	7	Santa Rita 	9	Septiembre	2023-09-27T00:00:00	2024-11-08T07:00:00	6	Velocidad del viento	6.4
119718	7	Sololá	704	Santa Lucía Utatlán 	7	Santa Rita 	9	Septiembre	2023-09-27T00:00:00	2024-11-08T07:00:00	7	Dirección del viento	6.44
119719	7	Sololá	704	Santa Lucía Utatlán 	7	Santa Rita 	9	Septiembre	2023-09-27T00:00:00	2024-11-08T07:00:00	1	Precipitación	0
119720	7	Sololá	704	Santa Lucía Utatlán 	7	Santa Rita 	9	Septiembre	2023-09-27T00:00:00	2024-11-08T07:00:00	8	Radiación solar	274
119721	7	Sololá	704	Santa Lucía Utatlán 	7	Santa Rita 	9	Septiembre	2023-09-27T00:00:00	2024-11-08T08:00:00	2	Temperatura media	25.5
119722	7	Sololá	704	Santa Lucía Utatlán 	7	Santa Rita 	9	Septiembre	2023-09-27T00:00:00	2024-11-08T08:00:00	4	Temperatura máxima	25.7
119723	7	Sololá	704	Santa Lucía Utatlán 	7	Santa Rita 	9	Septiembre	2023-09-27T00:00:00	2024-11-08T08:00:00	3	Temperatura mínima	24.6
119724	7	Sololá	704	Santa Lucía Utatlán 	7	Santa Rita 	9	Septiembre	2023-09-27T00:00:00	2024-11-08T08:00:00	5	Humedad	71
119725	7	Sololá	704	Santa Lucía Utatlán 	7	Santa Rita 	9	Septiembre	2023-09-27T00:00:00	2024-11-08T08:00:00	6	Velocidad del viento	6.4
119726	7	Sololá	704	Santa Lucía Utatlán 	7	Santa Rita 	9	Septiembre	2023-09-27T00:00:00	2024-11-08T08:00:00	7	Dirección del viento	6.44
119727	7	Sololá	704	Santa Lucía Utatlán 	7	Santa Rita 	9	Septiembre	2023-09-27T00:00:00	2024-11-08T08:00:00	1	Precipitación	0
119728	7	Sololá	704	Santa Lucía Utatlán 	7	Santa Rita 	9	Septiembre	2023-09-27T00:00:00	2024-11-08T08:00:00	8	Radiación solar	545
119729	7	Sololá	704	Santa Lucía Utatlán 	7	Santa Rita 	9	Septiembre	2023-09-27T00:00:00	2024-11-08T09:00:00	2	Temperatura media	24.4
119730	7	Sololá	704	Santa Lucía Utatlán 	7	Santa Rita 	9	Septiembre	2023-09-27T00:00:00	2024-11-08T09:00:00	4	Temperatura máxima	25.8
119731	7	Sololá	704	Santa Lucía Utatlán 	7	Santa Rita 	9	Septiembre	2023-09-27T00:00:00	2024-11-08T09:00:00	3	Temperatura mínima	24.3
119732	7	Sololá	704	Santa Lucía Utatlán 	7	Santa Rita 	9	Septiembre	2023-09-27T00:00:00	2024-11-08T09:00:00	5	Humedad	75
119733	7	Sololá	704	Santa Lucía Utatlán 	7	Santa Rita 	9	Septiembre	2023-09-27T00:00:00	2024-11-08T09:00:00	6	Velocidad del viento	6.4
119734	7	Sololá	704	Santa Lucía Utatlán 	7	Santa Rita 	9	Septiembre	2023-09-27T00:00:00	2024-11-08T09:00:00	7	Dirección del viento	6.44
119735	7	Sololá	704	Santa Lucía Utatlán 	7	Santa Rita 	9	Septiembre	2023-09-27T00:00:00	2024-11-08T09:00:00	1	Precipitación	0
119736	7	Sololá	704	Santa Lucía Utatlán 	7	Santa Rita 	9	Septiembre	2023-09-27T00:00:00	2024-11-08T09:00:00	8	Radiación solar	727
119737	7	Sololá	704	Santa Lucía Utatlán 	7	Santa Rita 	9	Septiembre	2023-09-27T00:00:00	2024-11-08T10:00:00	2	Temperatura media	24.1
119738	7	Sololá	704	Santa Lucía Utatlán 	7	Santa Rita 	9	Septiembre	2023-09-27T00:00:00	2024-11-08T10:00:00	4	Temperatura máxima	24.9
119739	7	Sololá	704	Santa Lucía Utatlán 	7	Santa Rita 	9	Septiembre	2023-09-27T00:00:00	2024-11-08T10:00:00	3	Temperatura mínima	23.9
119740	7	Sololá	704	Santa Lucía Utatlán 	7	Santa Rita 	9	Septiembre	2023-09-27T00:00:00	2024-11-08T10:00:00	5	Humedad	82
119741	7	Sololá	704	Santa Lucía Utatlán 	7	Santa Rita 	9	Septiembre	2023-09-27T00:00:00	2024-11-08T10:00:00	6	Velocidad del viento	6.4
119742	7	Sololá	704	Santa Lucía Utatlán 	7	Santa Rita 	9	Septiembre	2023-09-27T00:00:00	2024-11-08T10:00:00	7	Dirección del viento	6.44
119743	7	Sololá	704	Santa Lucía Utatlán 	7	Santa Rita 	9	Septiembre	2023-09-27T00:00:00	2024-11-08T10:00:00	1	Precipitación	0
119744	7	Sololá	704	Santa Lucía Utatlán 	7	Santa Rita 	9	Septiembre	2023-09-27T00:00:00	2024-11-08T10:00:00	8	Radiación solar	600
119745	7	Sololá	704	Santa Lucía Utatlán 	7	Santa Rita 	9	Septiembre	2023-09-27T00:00:00	2024-11-08T11:00:00	2	Temperatura media	21.4
119746	7	Sololá	704	Santa Lucía Utatlán 	7	Santa Rita 	9	Septiembre	2023-09-27T00:00:00	2024-11-08T11:00:00	4	Temperatura máxima	24.1
119747	7	Sololá	704	Santa Lucía Utatlán 	7	Santa Rita 	9	Septiembre	2023-09-27T00:00:00	2024-11-08T11:00:00	3	Temperatura mínima	21.4
119748	7	Sololá	704	Santa Lucía Utatlán 	7	Santa Rita 	9	Septiembre	2023-09-27T00:00:00	2024-11-08T11:00:00	5	Humedad	88
119749	7	Sololá	704	Santa Lucía Utatlán 	7	Santa Rita 	9	Septiembre	2023-09-27T00:00:00	2024-11-08T11:00:00	6	Velocidad del viento	6.4
119750	7	Sololá	704	Santa Lucía Utatlán 	7	Santa Rita 	9	Septiembre	2023-09-27T00:00:00	2024-11-08T11:00:00	7	Dirección del viento	6.44
119751	7	Sololá	704	Santa Lucía Utatlán 	7	Santa Rita 	9	Septiembre	2023-09-27T00:00:00	2024-11-08T11:00:00	1	Precipitación	0.4
119752	7	Sololá	704	Santa Lucía Utatlán 	7	Santa Rita 	9	Septiembre	2023-09-27T00:00:00	2024-11-08T11:00:00	8	Radiación solar	949
119753	7	Sololá	704	Santa Lucía Utatlán 	7	Santa Rita 	9	Septiembre	2023-09-27T00:00:00	2024-11-08T12:00:00	2	Temperatura media	20.4
119754	7	Sololá	704	Santa Lucía Utatlán 	7	Santa Rita 	9	Septiembre	2023-09-27T00:00:00	2024-11-08T12:00:00	4	Temperatura máxima	21.4
119755	7	Sololá	704	Santa Lucía Utatlán 	7	Santa Rita 	9	Septiembre	2023-09-27T00:00:00	2024-11-08T12:00:00	3	Temperatura mínima	20.3
119756	7	Sololá	704	Santa Lucía Utatlán 	7	Santa Rita 	9	Septiembre	2023-09-27T00:00:00	2024-11-08T12:00:00	5	Humedad	95
119757	7	Sololá	704	Santa Lucía Utatlán 	7	Santa Rita 	9	Septiembre	2023-09-27T00:00:00	2024-11-08T12:00:00	6	Velocidad del viento	1.6
119758	7	Sololá	704	Santa Lucía Utatlán 	7	Santa Rita 	9	Septiembre	2023-09-27T00:00:00	2024-11-08T12:00:00	7	Dirección del viento	1.61
119759	7	Sololá	704	Santa Lucía Utatlán 	7	Santa Rita 	9	Septiembre	2023-09-27T00:00:00	2024-11-08T12:00:00	1	Precipitación	5.6
119760	7	Sololá	704	Santa Lucía Utatlán 	7	Santa Rita 	9	Septiembre	2023-09-27T00:00:00	2024-11-08T12:00:00	8	Radiación solar	297
119761	7	Sololá	704	Santa Lucía Utatlán 	7	Santa Rita 	9	Septiembre	2023-09-27T00:00:00	2024-11-08T13:00:00	2	Temperatura media	20.2
119762	7	Sololá	704	Santa Lucía Utatlán 	7	Santa Rita 	9	Septiembre	2023-09-27T00:00:00	2024-11-08T13:00:00	4	Temperatura máxima	20.5
119763	7	Sololá	704	Santa Lucía Utatlán 	7	Santa Rita 	9	Septiembre	2023-09-27T00:00:00	2024-11-08T13:00:00	3	Temperatura mínima	20.2
119764	7	Sololá	704	Santa Lucía Utatlán 	7	Santa Rita 	9	Septiembre	2023-09-27T00:00:00	2024-11-08T13:00:00	5	Humedad	95
119765	7	Sololá	704	Santa Lucía Utatlán 	7	Santa Rita 	9	Septiembre	2023-09-27T00:00:00	2024-11-08T13:00:00	6	Velocidad del viento	1.6
119766	7	Sololá	704	Santa Lucía Utatlán 	7	Santa Rita 	9	Septiembre	2023-09-27T00:00:00	2024-11-08T13:00:00	7	Dirección del viento	1.61
119767	7	Sololá	704	Santa Lucía Utatlán 	7	Santa Rita 	9	Septiembre	2023-09-27T00:00:00	2024-11-08T13:00:00	1	Precipitación	0.8
119768	7	Sololá	704	Santa Lucía Utatlán 	7	Santa Rita 	9	Septiembre	2023-09-27T00:00:00	2024-11-08T13:00:00	8	Radiación solar	216
119769	7	Sololá	704	Santa Lucía Utatlán 	7	Santa Rita 	9	Septiembre	2023-09-27T00:00:00	2024-11-08T14:00:00	2	Temperatura media	20
119770	7	Sololá	704	Santa Lucía Utatlán 	7	Santa Rita 	9	Septiembre	2023-09-27T00:00:00	2024-11-08T14:00:00	4	Temperatura máxima	20.3
119771	7	Sololá	704	Santa Lucía Utatlán 	7	Santa Rita 	9	Septiembre	2023-09-27T00:00:00	2024-11-08T14:00:00	3	Temperatura mínima	20
119772	7	Sololá	704	Santa Lucía Utatlán 	7	Santa Rita 	9	Septiembre	2023-09-27T00:00:00	2024-11-08T14:00:00	5	Humedad	95
119773	7	Sololá	704	Santa Lucía Utatlán 	7	Santa Rita 	9	Septiembre	2023-09-27T00:00:00	2024-11-08T14:00:00	6	Velocidad del viento	1.6
119774	7	Sololá	704	Santa Lucía Utatlán 	7	Santa Rita 	9	Septiembre	2023-09-27T00:00:00	2024-11-08T14:00:00	7	Dirección del viento	1.61
119775	7	Sololá	704	Santa Lucía Utatlán 	7	Santa Rita 	9	Septiembre	2023-09-27T00:00:00	2024-11-08T14:00:00	1	Precipitación	0.2
119776	7	Sololá	704	Santa Lucía Utatlán 	7	Santa Rita 	9	Septiembre	2023-09-27T00:00:00	2024-11-08T14:00:00	8	Radiación solar	48
119777	7	Sololá	704	Santa Lucía Utatlán 	7	Santa Rita 	9	Septiembre	2023-09-27T00:00:00	2024-11-08T15:00:00	2	Temperatura media	19.9
119778	7	Sololá	704	Santa Lucía Utatlán 	7	Santa Rita 	9	Septiembre	2023-09-27T00:00:00	2024-11-08T15:00:00	4	Temperatura máxima	20.2
119779	7	Sololá	704	Santa Lucía Utatlán 	7	Santa Rita 	9	Septiembre	2023-09-27T00:00:00	2024-11-08T15:00:00	3	Temperatura mínima	19.8
119780	7	Sololá	704	Santa Lucía Utatlán 	7	Santa Rita 	9	Septiembre	2023-09-27T00:00:00	2024-11-08T15:00:00	5	Humedad	94
119781	7	Sololá	704	Santa Lucía Utatlán 	7	Santa Rita 	9	Septiembre	2023-09-27T00:00:00	2024-11-08T15:00:00	6	Velocidad del viento	1.6
119782	7	Sololá	704	Santa Lucía Utatlán 	7	Santa Rita 	9	Septiembre	2023-09-27T00:00:00	2024-11-08T15:00:00	7	Dirección del viento	1.61
119783	7	Sololá	704	Santa Lucía Utatlán 	7	Santa Rita 	9	Septiembre	2023-09-27T00:00:00	2024-11-08T15:00:00	1	Precipitación	0
119784	7	Sololá	704	Santa Lucía Utatlán 	7	Santa Rita 	9	Septiembre	2023-09-27T00:00:00	2024-11-08T15:00:00	8	Radiación solar	3
119785	7	Sololá	704	Santa Lucía Utatlán 	7	Santa Rita 	9	Septiembre	2023-09-27T00:00:00	2024-11-08T16:00:00	2	Temperatura media	19.5
119786	7	Sololá	704	Santa Lucía Utatlán 	7	Santa Rita 	9	Septiembre	2023-09-27T00:00:00	2024-11-08T16:00:00	4	Temperatura máxima	19.9
119787	7	Sololá	704	Santa Lucía Utatlán 	7	Santa Rita 	9	Septiembre	2023-09-27T00:00:00	2024-11-08T16:00:00	3	Temperatura mínima	19.5
119788	7	Sololá	704	Santa Lucía Utatlán 	7	Santa Rita 	9	Septiembre	2023-09-27T00:00:00	2024-11-08T16:00:00	5	Humedad	96
119789	7	Sololá	704	Santa Lucía Utatlán 	7	Santa Rita 	9	Septiembre	2023-09-27T00:00:00	2024-11-08T16:00:00	6	Velocidad del viento	1.6
119790	7	Sololá	704	Santa Lucía Utatlán 	7	Santa Rita 	9	Septiembre	2023-09-27T00:00:00	2024-11-08T16:00:00	7	Dirección del viento	1.61
119791	7	Sololá	704	Santa Lucía Utatlán 	7	Santa Rita 	9	Septiembre	2023-09-27T00:00:00	2024-11-08T16:00:00	1	Precipitación	0.8
119792	7	Sololá	704	Santa Lucía Utatlán 	7	Santa Rita 	9	Septiembre	2023-09-27T00:00:00	2024-11-08T16:00:00	8	Radiación solar	16
119793	7	Sololá	704	Santa Lucía Utatlán 	7	Santa Rita 	9	Septiembre	2023-09-27T00:00:00	2024-11-08T17:00:00	2	Temperatura media	19.4
119794	7	Sololá	704	Santa Lucía Utatlán 	7	Santa Rita 	9	Septiembre	2023-09-27T00:00:00	2024-11-08T17:00:00	4	Temperatura máxima	19.6
119795	7	Sololá	704	Santa Lucía Utatlán 	7	Santa Rita 	9	Septiembre	2023-09-27T00:00:00	2024-11-08T17:00:00	3	Temperatura mínima	19.4
119796	7	Sololá	704	Santa Lucía Utatlán 	7	Santa Rita 	9	Septiembre	2023-09-27T00:00:00	2024-11-08T17:00:00	5	Humedad	95
119797	7	Sololá	704	Santa Lucía Utatlán 	7	Santa Rita 	9	Septiembre	2023-09-27T00:00:00	2024-11-08T17:00:00	6	Velocidad del viento	1.6
119798	7	Sololá	704	Santa Lucía Utatlán 	7	Santa Rita 	9	Septiembre	2023-09-27T00:00:00	2024-11-08T17:00:00	7	Dirección del viento	1.61
119799	7	Sololá	704	Santa Lucía Utatlán 	7	Santa Rita 	9	Septiembre	2023-09-27T00:00:00	2024-11-08T17:00:00	1	Precipitación	0.2
119800	7	Sololá	704	Santa Lucía Utatlán 	7	Santa Rita 	9	Septiembre	2023-09-27T00:00:00	2024-11-08T17:00:00	8	Radiación solar	9
119801	7	Sololá	704	Santa Lucía Utatlán 	7	Santa Rita 	9	Septiembre	2023-09-27T00:00:00	2024-11-08T18:00:00	2	Temperatura media	19.1
119802	7	Sololá	704	Santa Lucía Utatlán 	7	Santa Rita 	9	Septiembre	2023-09-27T00:00:00	2024-11-08T18:00:00	4	Temperatura máxima	19.4
119803	7	Sololá	704	Santa Lucía Utatlán 	7	Santa Rita 	9	Septiembre	2023-09-27T00:00:00	2024-11-08T18:00:00	3	Temperatura mínima	19.1
119804	7	Sololá	704	Santa Lucía Utatlán 	7	Santa Rita 	9	Septiembre	2023-09-27T00:00:00	2024-11-08T18:00:00	5	Humedad	96
119805	7	Sololá	704	Santa Lucía Utatlán 	7	Santa Rita 	9	Septiembre	2023-09-27T00:00:00	2024-11-08T18:00:00	6	Velocidad del viento	1.6
119806	7	Sololá	704	Santa Lucía Utatlán 	7	Santa Rita 	9	Septiembre	2023-09-27T00:00:00	2024-11-08T18:00:00	7	Dirección del viento	1.61
119807	7	Sololá	704	Santa Lucía Utatlán 	7	Santa Rita 	9	Septiembre	2023-09-27T00:00:00	2024-11-08T18:00:00	1	Precipitación	0
119808	7	Sololá	704	Santa Lucía Utatlán 	7	Santa Rita 	9	Septiembre	2023-09-27T00:00:00	2024-11-08T18:00:00	8	Radiación solar	0
119809	7	Sololá	704	Santa Lucía Utatlán 	7	Santa Rita 	9	Septiembre	2023-09-27T00:00:00	2024-11-08T19:00:00	2	Temperatura media	18.8
119810	7	Sololá	704	Santa Lucía Utatlán 	7	Santa Rita 	9	Septiembre	2023-09-27T00:00:00	2024-11-08T19:00:00	4	Temperatura máxima	19.2
119811	7	Sololá	704	Santa Lucía Utatlán 	7	Santa Rita 	9	Septiembre	2023-09-27T00:00:00	2024-11-08T19:00:00	3	Temperatura mínima	18.8
119812	7	Sololá	704	Santa Lucía Utatlán 	7	Santa Rita 	9	Septiembre	2023-09-27T00:00:00	2024-11-08T19:00:00	5	Humedad	96
119813	7	Sololá	704	Santa Lucía Utatlán 	7	Santa Rita 	9	Septiembre	2023-09-27T00:00:00	2024-11-08T19:00:00	6	Velocidad del viento	1.6
119814	7	Sololá	704	Santa Lucía Utatlán 	7	Santa Rita 	9	Septiembre	2023-09-27T00:00:00	2024-11-08T19:00:00	7	Dirección del viento	1.61
119815	7	Sololá	704	Santa Lucía Utatlán 	7	Santa Rita 	9	Septiembre	2023-09-27T00:00:00	2024-11-08T19:00:00	1	Precipitación	0.2
119816	7	Sololá	704	Santa Lucía Utatlán 	7	Santa Rita 	9	Septiembre	2023-09-27T00:00:00	2024-11-08T19:00:00	8	Radiación solar	0
119817	7	Sololá	704	Santa Lucía Utatlán 	7	Santa Rita 	9	Septiembre	2023-09-27T00:00:00	2024-11-08T20:00:00	2	Temperatura media	18.4
119818	7	Sololá	704	Santa Lucía Utatlán 	7	Santa Rita 	9	Septiembre	2023-09-27T00:00:00	2024-11-08T20:00:00	4	Temperatura máxima	18.8
119819	7	Sololá	704	Santa Lucía Utatlán 	7	Santa Rita 	9	Septiembre	2023-09-27T00:00:00	2024-11-08T20:00:00	3	Temperatura mínima	18.4
119820	7	Sololá	704	Santa Lucía Utatlán 	7	Santa Rita 	9	Septiembre	2023-09-27T00:00:00	2024-11-08T20:00:00	5	Humedad	96
119821	7	Sololá	704	Santa Lucía Utatlán 	7	Santa Rita 	9	Septiembre	2023-09-27T00:00:00	2024-11-08T20:00:00	6	Velocidad del viento	0
119822	7	Sololá	704	Santa Lucía Utatlán 	7	Santa Rita 	9	Septiembre	2023-09-27T00:00:00	2024-11-08T20:00:00	7	Dirección del viento	0
119823	7	Sololá	704	Santa Lucía Utatlán 	7	Santa Rita 	9	Septiembre	2023-09-27T00:00:00	2024-11-08T20:00:00	1	Precipitación	0
119824	7	Sololá	704	Santa Lucía Utatlán 	7	Santa Rita 	9	Septiembre	2023-09-27T00:00:00	2024-11-08T20:00:00	8	Radiación solar	0
119825	7	Sololá	704	Santa Lucía Utatlán 	7	Santa Rita 	9	Septiembre	2023-09-27T00:00:00	2024-11-08T21:00:00	2	Temperatura media	19.6
119826	7	Sololá	704	Santa Lucía Utatlán 	7	Santa Rita 	9	Septiembre	2023-09-27T00:00:00	2024-11-08T21:00:00	4	Temperatura máxima	19.9
119827	7	Sololá	704	Santa Lucía Utatlán 	7	Santa Rita 	9	Septiembre	2023-09-27T00:00:00	2024-11-08T21:00:00	3	Temperatura mínima	18.4
119828	7	Sololá	704	Santa Lucía Utatlán 	7	Santa Rita 	9	Septiembre	2023-09-27T00:00:00	2024-11-08T21:00:00	5	Humedad	90
119829	7	Sololá	704	Santa Lucía Utatlán 	7	Santa Rita 	9	Septiembre	2023-09-27T00:00:00	2024-11-08T21:00:00	6	Velocidad del viento	1.6
119830	7	Sololá	704	Santa Lucía Utatlán 	7	Santa Rita 	9	Septiembre	2023-09-27T00:00:00	2024-11-08T21:00:00	7	Dirección del viento	1.61
119831	7	Sololá	704	Santa Lucía Utatlán 	7	Santa Rita 	9	Septiembre	2023-09-27T00:00:00	2024-11-08T21:00:00	1	Precipitación	0
119832	7	Sololá	704	Santa Lucía Utatlán 	7	Santa Rita 	9	Septiembre	2023-09-27T00:00:00	2024-11-08T21:00:00	8	Radiación solar	0
119833	7	Sololá	704	Santa Lucía Utatlán 	7	Santa Rita 	9	Septiembre	2023-09-27T00:00:00	2024-11-08T22:00:00	2	Temperatura media	18.3
119834	7	Sololá	704	Santa Lucía Utatlán 	7	Santa Rita 	9	Septiembre	2023-09-27T00:00:00	2024-11-08T22:00:00	4	Temperatura máxima	19.6
119835	7	Sololá	704	Santa Lucía Utatlán 	7	Santa Rita 	9	Septiembre	2023-09-27T00:00:00	2024-11-08T22:00:00	3	Temperatura mínima	18.3
119836	7	Sololá	704	Santa Lucía Utatlán 	7	Santa Rita 	9	Septiembre	2023-09-27T00:00:00	2024-11-08T22:00:00	5	Humedad	94
119837	7	Sololá	704	Santa Lucía Utatlán 	7	Santa Rita 	9	Septiembre	2023-09-27T00:00:00	2024-11-08T22:00:00	6	Velocidad del viento	1.6
119838	7	Sololá	704	Santa Lucía Utatlán 	7	Santa Rita 	9	Septiembre	2023-09-27T00:00:00	2024-11-08T22:00:00	7	Dirección del viento	1.61
119839	7	Sololá	704	Santa Lucía Utatlán 	7	Santa Rita 	9	Septiembre	2023-09-27T00:00:00	2024-11-08T22:00:00	1	Precipitación	0
119840	7	Sololá	704	Santa Lucía Utatlán 	7	Santa Rita 	9	Septiembre	2023-09-27T00:00:00	2024-11-08T22:00:00	8	Radiación solar	0
119841	7	Sololá	704	Santa Lucía Utatlán 	7	Santa Rita 	9	Septiembre	2023-09-27T00:00:00	2024-11-08T23:00:00	2	Temperatura media	18.3
119842	7	Sololá	704	Santa Lucía Utatlán 	7	Santa Rita 	9	Septiembre	2023-09-27T00:00:00	2024-11-08T23:00:00	4	Temperatura máxima	18.4
119843	7	Sololá	704	Santa Lucía Utatlán 	7	Santa Rita 	9	Septiembre	2023-09-27T00:00:00	2024-11-08T23:00:00	3	Temperatura mínima	18.1
119844	7	Sololá	704	Santa Lucía Utatlán 	7	Santa Rita 	9	Septiembre	2023-09-27T00:00:00	2024-11-08T23:00:00	5	Humedad	95
119845	7	Sololá	704	Santa Lucía Utatlán 	7	Santa Rita 	9	Septiembre	2023-09-27T00:00:00	2024-11-08T23:00:00	6	Velocidad del viento	1.6
119846	7	Sololá	704	Santa Lucía Utatlán 	7	Santa Rita 	9	Septiembre	2023-09-27T00:00:00	2024-11-08T23:00:00	7	Dirección del viento	1.61
119847	7	Sololá	704	Santa Lucía Utatlán 	7	Santa Rita 	9	Septiembre	2023-09-27T00:00:00	2024-11-08T23:00:00	1	Precipitación	0
119848	7	Sololá	704	Santa Lucía Utatlán 	7	Santa Rita 	9	Septiembre	2023-09-27T00:00:00	2024-11-08T23:00:00	8	Radiación solar	0
119849	7	Sololá	704	Santa Lucía Utatlán 	7	Santa Rita 	9	Septiembre	2023-09-28T00:00:00	2024-11-08T00:00:00	2	Temperatura media	18.1
119850	7	Sololá	704	Santa Lucía Utatlán 	7	Santa Rita 	9	Septiembre	2023-09-28T00:00:00	2024-11-08T00:00:00	4	Temperatura máxima	18.4
119851	7	Sololá	704	Santa Lucía Utatlán 	7	Santa Rita 	9	Septiembre	2023-09-28T00:00:00	2024-11-08T00:00:00	3	Temperatura mínima	18.1
119852	7	Sololá	704	Santa Lucía Utatlán 	7	Santa Rita 	9	Septiembre	2023-09-28T00:00:00	2024-11-08T00:00:00	5	Humedad	95
119853	7	Sololá	704	Santa Lucía Utatlán 	7	Santa Rita 	9	Septiembre	2023-09-28T00:00:00	2024-11-08T00:00:00	6	Velocidad del viento	1.6
119854	7	Sololá	704	Santa Lucía Utatlán 	7	Santa Rita 	9	Septiembre	2023-09-28T00:00:00	2024-11-08T00:00:00	7	Dirección del viento	1.61
119855	7	Sololá	704	Santa Lucía Utatlán 	7	Santa Rita 	9	Septiembre	2023-09-28T00:00:00	2024-11-08T00:00:00	1	Precipitación	0
119856	7	Sololá	704	Santa Lucía Utatlán 	7	Santa Rita 	9	Septiembre	2023-09-28T00:00:00	2024-11-08T00:00:00	8	Radiación solar	0
119857	7	Sololá	704	Santa Lucía Utatlán 	7	Santa Rita 	9	Septiembre	2023-09-28T00:00:00	2024-11-08T01:00:00	2	Temperatura media	17.7
119858	7	Sololá	704	Santa Lucía Utatlán 	7	Santa Rita 	9	Septiembre	2023-09-28T00:00:00	2024-11-08T01:00:00	4	Temperatura máxima	18.1
119859	7	Sololá	704	Santa Lucía Utatlán 	7	Santa Rita 	9	Septiembre	2023-09-28T00:00:00	2024-11-08T01:00:00	3	Temperatura mínima	17.6
119860	7	Sololá	704	Santa Lucía Utatlán 	7	Santa Rita 	9	Septiembre	2023-09-28T00:00:00	2024-11-08T01:00:00	5	Humedad	94
119861	7	Sololá	704	Santa Lucía Utatlán 	7	Santa Rita 	9	Septiembre	2023-09-28T00:00:00	2024-11-08T01:00:00	6	Velocidad del viento	1.6
119862	7	Sololá	704	Santa Lucía Utatlán 	7	Santa Rita 	9	Septiembre	2023-09-28T00:00:00	2024-11-08T01:00:00	7	Dirección del viento	1.61
119863	7	Sololá	704	Santa Lucía Utatlán 	7	Santa Rita 	9	Septiembre	2023-09-28T00:00:00	2024-11-08T01:00:00	1	Precipitación	0
119864	7	Sololá	704	Santa Lucía Utatlán 	7	Santa Rita 	9	Septiembre	2023-09-28T00:00:00	2024-11-08T01:00:00	8	Radiación solar	0
119865	7	Sololá	704	Santa Lucía Utatlán 	7	Santa Rita 	9	Septiembre	2023-09-28T00:00:00	2024-11-08T02:00:00	2	Temperatura media	17.5
119866	7	Sololá	704	Santa Lucía Utatlán 	7	Santa Rita 	9	Septiembre	2023-09-28T00:00:00	2024-11-08T02:00:00	4	Temperatura máxima	17.7
119867	7	Sololá	704	Santa Lucía Utatlán 	7	Santa Rita 	9	Septiembre	2023-09-28T00:00:00	2024-11-08T02:00:00	3	Temperatura mínima	17.2
119868	7	Sololá	704	Santa Lucía Utatlán 	7	Santa Rita 	9	Septiembre	2023-09-28T00:00:00	2024-11-08T02:00:00	5	Humedad	94
119869	7	Sololá	704	Santa Lucía Utatlán 	7	Santa Rita 	9	Septiembre	2023-09-28T00:00:00	2024-11-08T02:00:00	6	Velocidad del viento	3.2
119870	7	Sololá	704	Santa Lucía Utatlán 	7	Santa Rita 	9	Septiembre	2023-09-28T00:00:00	2024-11-08T02:00:00	7	Dirección del viento	3.22
119871	7	Sololá	704	Santa Lucía Utatlán 	7	Santa Rita 	9	Septiembre	2023-09-28T00:00:00	2024-11-08T02:00:00	1	Precipitación	0
119872	7	Sololá	704	Santa Lucía Utatlán 	7	Santa Rita 	9	Septiembre	2023-09-28T00:00:00	2024-11-08T02:00:00	8	Radiación solar	0
119873	7	Sololá	704	Santa Lucía Utatlán 	7	Santa Rita 	9	Septiembre	2023-09-28T00:00:00	2024-11-08T03:00:00	2	Temperatura media	19.2
119874	7	Sololá	704	Santa Lucía Utatlán 	7	Santa Rita 	9	Septiembre	2023-09-28T00:00:00	2024-11-08T03:00:00	4	Temperatura máxima	19.2
119875	7	Sololá	704	Santa Lucía Utatlán 	7	Santa Rita 	9	Septiembre	2023-09-28T00:00:00	2024-11-08T03:00:00	3	Temperatura mínima	17.5
119876	7	Sololá	704	Santa Lucía Utatlán 	7	Santa Rita 	9	Septiembre	2023-09-28T00:00:00	2024-11-08T03:00:00	5	Humedad	92
119877	7	Sololá	704	Santa Lucía Utatlán 	7	Santa Rita 	9	Septiembre	2023-09-28T00:00:00	2024-11-08T03:00:00	6	Velocidad del viento	3.2
119878	7	Sololá	704	Santa Lucía Utatlán 	7	Santa Rita 	9	Septiembre	2023-09-28T00:00:00	2024-11-08T03:00:00	7	Dirección del viento	3.22
119879	7	Sololá	704	Santa Lucía Utatlán 	7	Santa Rita 	9	Septiembre	2023-09-28T00:00:00	2024-11-08T03:00:00	1	Precipitación	0
119880	7	Sololá	704	Santa Lucía Utatlán 	7	Santa Rita 	9	Septiembre	2023-09-28T00:00:00	2024-11-08T03:00:00	8	Radiación solar	0
119881	7	Sololá	704	Santa Lucía Utatlán 	7	Santa Rita 	9	Septiembre	2023-09-28T00:00:00	2024-11-08T04:00:00	2	Temperatura media	22.5
119882	7	Sololá	704	Santa Lucía Utatlán 	7	Santa Rita 	9	Septiembre	2023-09-28T00:00:00	2024-11-08T04:00:00	4	Temperatura máxima	22.5
119883	7	Sololá	704	Santa Lucía Utatlán 	7	Santa Rita 	9	Septiembre	2023-09-28T00:00:00	2024-11-08T04:00:00	3	Temperatura mínima	19.2
119884	7	Sololá	704	Santa Lucía Utatlán 	7	Santa Rita 	9	Septiembre	2023-09-28T00:00:00	2024-11-08T04:00:00	5	Humedad	81
119885	7	Sololá	704	Santa Lucía Utatlán 	7	Santa Rita 	9	Septiembre	2023-09-28T00:00:00	2024-11-08T04:00:00	6	Velocidad del viento	1.6
119886	7	Sololá	704	Santa Lucía Utatlán 	7	Santa Rita 	9	Septiembre	2023-09-28T00:00:00	2024-11-08T04:00:00	7	Dirección del viento	1.61
119887	7	Sololá	704	Santa Lucía Utatlán 	7	Santa Rita 	9	Septiembre	2023-09-28T00:00:00	2024-11-08T04:00:00	1	Precipitación	0
119888	7	Sololá	704	Santa Lucía Utatlán 	7	Santa Rita 	9	Septiembre	2023-09-28T00:00:00	2024-11-08T04:00:00	8	Radiación solar	0
119889	7	Sololá	704	Santa Lucía Utatlán 	7	Santa Rita 	9	Septiembre	2023-09-28T00:00:00	2024-11-08T05:00:00	2	Temperatura media	23.9
119890	7	Sololá	704	Santa Lucía Utatlán 	7	Santa Rita 	9	Septiembre	2023-09-28T00:00:00	2024-11-08T05:00:00	4	Temperatura máxima	23.9
119891	7	Sololá	704	Santa Lucía Utatlán 	7	Santa Rita 	9	Septiembre	2023-09-28T00:00:00	2024-11-08T05:00:00	3	Temperatura mínima	22.5
119892	7	Sololá	704	Santa Lucía Utatlán 	7	Santa Rita 	9	Septiembre	2023-09-28T00:00:00	2024-11-08T05:00:00	5	Humedad	78
119893	7	Sololá	704	Santa Lucía Utatlán 	7	Santa Rita 	9	Septiembre	2023-09-28T00:00:00	2024-11-08T05:00:00	6	Velocidad del viento	3.2
119894	7	Sololá	704	Santa Lucía Utatlán 	7	Santa Rita 	9	Septiembre	2023-09-28T00:00:00	2024-11-08T05:00:00	7	Dirección del viento	3.22
119895	7	Sololá	704	Santa Lucía Utatlán 	7	Santa Rita 	9	Septiembre	2023-09-28T00:00:00	2024-11-08T05:00:00	1	Precipitación	0
119896	7	Sololá	704	Santa Lucía Utatlán 	7	Santa Rita 	9	Septiembre	2023-09-28T00:00:00	2024-11-08T05:00:00	8	Radiación solar	0
119897	7	Sololá	704	Santa Lucía Utatlán 	7	Santa Rita 	9	Septiembre	2023-09-28T00:00:00	2024-11-08T06:00:00	2	Temperatura media	24.6
119898	7	Sololá	704	Santa Lucía Utatlán 	7	Santa Rita 	9	Septiembre	2023-09-28T00:00:00	2024-11-08T06:00:00	4	Temperatura máxima	24.6
119899	7	Sololá	704	Santa Lucía Utatlán 	7	Santa Rita 	9	Septiembre	2023-09-28T00:00:00	2024-11-08T06:00:00	3	Temperatura mínima	23.9
119900	7	Sololá	704	Santa Lucía Utatlán 	7	Santa Rita 	9	Septiembre	2023-09-28T00:00:00	2024-11-08T06:00:00	5	Humedad	69
119901	7	Sololá	704	Santa Lucía Utatlán 	7	Santa Rita 	9	Septiembre	2023-09-28T00:00:00	2024-11-08T06:00:00	6	Velocidad del viento	6.4
119902	7	Sololá	704	Santa Lucía Utatlán 	7	Santa Rita 	9	Septiembre	2023-09-28T00:00:00	2024-11-08T06:00:00	7	Dirección del viento	6.44
119903	7	Sololá	704	Santa Lucía Utatlán 	7	Santa Rita 	9	Septiembre	2023-09-28T00:00:00	2024-11-08T06:00:00	1	Precipitación	0
119904	7	Sololá	704	Santa Lucía Utatlán 	7	Santa Rita 	9	Septiembre	2023-09-28T00:00:00	2024-11-08T06:00:00	8	Radiación solar	52
119905	7	Sololá	704	Santa Lucía Utatlán 	7	Santa Rita 	9	Septiembre	2023-09-28T00:00:00	2024-11-08T07:00:00	2	Temperatura media	25.9
119906	7	Sololá	704	Santa Lucía Utatlán 	7	Santa Rita 	9	Septiembre	2023-09-28T00:00:00	2024-11-08T07:00:00	4	Temperatura máxima	26
119907	7	Sololá	704	Santa Lucía Utatlán 	7	Santa Rita 	9	Septiembre	2023-09-28T00:00:00	2024-11-08T07:00:00	3	Temperatura mínima	24.5
119908	7	Sololá	704	Santa Lucía Utatlán 	7	Santa Rita 	9	Septiembre	2023-09-28T00:00:00	2024-11-08T07:00:00	5	Humedad	68
119909	7	Sololá	704	Santa Lucía Utatlán 	7	Santa Rita 	9	Septiembre	2023-09-28T00:00:00	2024-11-08T07:00:00	6	Velocidad del viento	6.4
119910	7	Sololá	704	Santa Lucía Utatlán 	7	Santa Rita 	9	Septiembre	2023-09-28T00:00:00	2024-11-08T07:00:00	7	Dirección del viento	6.44
119911	7	Sololá	704	Santa Lucía Utatlán 	7	Santa Rita 	9	Septiembre	2023-09-28T00:00:00	2024-11-08T07:00:00	1	Precipitación	0
119912	7	Sololá	704	Santa Lucía Utatlán 	7	Santa Rita 	9	Septiembre	2023-09-28T00:00:00	2024-11-08T07:00:00	8	Radiación solar	284
119913	7	Sololá	704	Santa Lucía Utatlán 	7	Santa Rita 	9	Septiembre	2023-09-28T00:00:00	2024-11-08T08:00:00	2	Temperatura media	24.5
119914	7	Sololá	704	Santa Lucía Utatlán 	7	Santa Rita 	9	Septiembre	2023-09-28T00:00:00	2024-11-08T08:00:00	4	Temperatura máxima	25.9
119915	7	Sololá	704	Santa Lucía Utatlán 	7	Santa Rita 	9	Septiembre	2023-09-28T00:00:00	2024-11-08T08:00:00	3	Temperatura mínima	24.5
119916	7	Sololá	704	Santa Lucía Utatlán 	7	Santa Rita 	9	Septiembre	2023-09-28T00:00:00	2024-11-08T08:00:00	5	Humedad	71
119917	7	Sololá	704	Santa Lucía Utatlán 	7	Santa Rita 	9	Septiembre	2023-09-28T00:00:00	2024-11-08T08:00:00	6	Velocidad del viento	9.7
119918	7	Sololá	704	Santa Lucía Utatlán 	7	Santa Rita 	9	Septiembre	2023-09-28T00:00:00	2024-11-08T08:00:00	7	Dirección del viento	9.66
119919	7	Sololá	704	Santa Lucía Utatlán 	7	Santa Rita 	9	Septiembre	2023-09-28T00:00:00	2024-11-08T08:00:00	1	Precipitación	0
119920	7	Sololá	704	Santa Lucía Utatlán 	7	Santa Rita 	9	Septiembre	2023-09-28T00:00:00	2024-11-08T08:00:00	8	Radiación solar	565
119921	7	Sololá	704	Santa Lucía Utatlán 	7	Santa Rita 	9	Septiembre	2023-09-28T00:00:00	2024-11-08T09:00:00	2	Temperatura media	24.8
119922	7	Sololá	704	Santa Lucía Utatlán 	7	Santa Rita 	9	Septiembre	2023-09-28T00:00:00	2024-11-08T09:00:00	4	Temperatura máxima	25.1
119923	7	Sololá	704	Santa Lucía Utatlán 	7	Santa Rita 	9	Septiembre	2023-09-28T00:00:00	2024-11-08T09:00:00	3	Temperatura mínima	24.4
119924	7	Sololá	704	Santa Lucía Utatlán 	7	Santa Rita 	9	Septiembre	2023-09-28T00:00:00	2024-11-08T09:00:00	5	Humedad	71
119925	7	Sololá	704	Santa Lucía Utatlán 	7	Santa Rita 	9	Septiembre	2023-09-28T00:00:00	2024-11-08T09:00:00	6	Velocidad del viento	8
119926	7	Sololá	704	Santa Lucía Utatlán 	7	Santa Rita 	9	Septiembre	2023-09-28T00:00:00	2024-11-08T09:00:00	7	Dirección del viento	8.05
119927	7	Sololá	704	Santa Lucía Utatlán 	7	Santa Rita 	9	Septiembre	2023-09-28T00:00:00	2024-11-08T09:00:00	1	Precipitación	0
119928	7	Sololá	704	Santa Lucía Utatlán 	7	Santa Rita 	9	Septiembre	2023-09-28T00:00:00	2024-11-08T09:00:00	8	Radiación solar	822
119929	7	Sololá	704	Santa Lucía Utatlán 	7	Santa Rita 	9	Septiembre	2023-09-28T00:00:00	2024-11-08T10:00:00	2	Temperatura media	24.4
119930	7	Sololá	704	Santa Lucía Utatlán 	7	Santa Rita 	9	Septiembre	2023-09-28T00:00:00	2024-11-08T10:00:00	4	Temperatura máxima	25
119931	7	Sololá	704	Santa Lucía Utatlán 	7	Santa Rita 	9	Septiembre	2023-09-28T00:00:00	2024-11-08T10:00:00	3	Temperatura mínima	24.4
119932	7	Sololá	704	Santa Lucía Utatlán 	7	Santa Rita 	9	Septiembre	2023-09-28T00:00:00	2024-11-08T10:00:00	5	Humedad	76
119933	7	Sololá	704	Santa Lucía Utatlán 	7	Santa Rita 	9	Septiembre	2023-09-28T00:00:00	2024-11-08T10:00:00	6	Velocidad del viento	9.7
119934	7	Sololá	704	Santa Lucía Utatlán 	7	Santa Rita 	9	Septiembre	2023-09-28T00:00:00	2024-11-08T10:00:00	7	Dirección del viento	9.66
119935	7	Sololá	704	Santa Lucía Utatlán 	7	Santa Rita 	9	Septiembre	2023-09-28T00:00:00	2024-11-08T10:00:00	1	Precipitación	0
119936	7	Sololá	704	Santa Lucía Utatlán 	7	Santa Rita 	9	Septiembre	2023-09-28T00:00:00	2024-11-08T10:00:00	8	Radiación solar	1026
119937	7	Sololá	704	Santa Lucía Utatlán 	7	Santa Rita 	9	Septiembre	2023-09-28T00:00:00	2024-11-08T11:00:00	2	Temperatura media	23.3
119938	7	Sololá	704	Santa Lucía Utatlán 	7	Santa Rita 	9	Septiembre	2023-09-28T00:00:00	2024-11-08T11:00:00	4	Temperatura máxima	25.1
119939	7	Sololá	704	Santa Lucía Utatlán 	7	Santa Rita 	9	Septiembre	2023-09-28T00:00:00	2024-11-08T11:00:00	3	Temperatura mínima	23.3
119940	7	Sololá	704	Santa Lucía Utatlán 	7	Santa Rita 	9	Septiembre	2023-09-28T00:00:00	2024-11-08T11:00:00	5	Humedad	87
119941	7	Sololá	704	Santa Lucía Utatlán 	7	Santa Rita 	9	Septiembre	2023-09-28T00:00:00	2024-11-08T11:00:00	6	Velocidad del viento	6.4
119942	7	Sololá	704	Santa Lucía Utatlán 	7	Santa Rita 	9	Septiembre	2023-09-28T00:00:00	2024-11-08T11:00:00	7	Dirección del viento	6.44
119943	7	Sololá	704	Santa Lucía Utatlán 	7	Santa Rita 	9	Septiembre	2023-09-28T00:00:00	2024-11-08T11:00:00	1	Precipitación	0
119944	7	Sololá	704	Santa Lucía Utatlán 	7	Santa Rita 	9	Septiembre	2023-09-28T00:00:00	2024-11-08T11:00:00	8	Radiación solar	674
119945	7	Sololá	704	Santa Lucía Utatlán 	7	Santa Rita 	9	Septiembre	2023-09-28T00:00:00	2024-11-08T12:00:00	2	Temperatura media	21.1
119946	7	Sololá	704	Santa Lucía Utatlán 	7	Santa Rita 	9	Septiembre	2023-09-28T00:00:00	2024-11-08T12:00:00	4	Temperatura máxima	23.3
119947	7	Sololá	704	Santa Lucía Utatlán 	7	Santa Rita 	9	Septiembre	2023-09-28T00:00:00	2024-11-08T12:00:00	3	Temperatura mínima	21.1
119948	7	Sololá	704	Santa Lucía Utatlán 	7	Santa Rita 	9	Septiembre	2023-09-28T00:00:00	2024-11-08T12:00:00	5	Humedad	93
119949	7	Sololá	704	Santa Lucía Utatlán 	7	Santa Rita 	9	Septiembre	2023-09-28T00:00:00	2024-11-08T12:00:00	6	Velocidad del viento	4.8
119950	7	Sololá	704	Santa Lucía Utatlán 	7	Santa Rita 	9	Septiembre	2023-09-28T00:00:00	2024-11-08T12:00:00	7	Dirección del viento	4.83
119951	7	Sololá	704	Santa Lucía Utatlán 	7	Santa Rita 	9	Septiembre	2023-09-28T00:00:00	2024-11-08T12:00:00	1	Precipitación	1
119952	7	Sololá	704	Santa Lucía Utatlán 	7	Santa Rita 	9	Septiembre	2023-09-28T00:00:00	2024-11-08T12:00:00	8	Radiación solar	233
119953	7	Sololá	704	Santa Lucía Utatlán 	7	Santa Rita 	9	Septiembre	2023-09-28T00:00:00	2024-11-08T13:00:00	2	Temperatura media	20.7
119954	7	Sololá	704	Santa Lucía Utatlán 	7	Santa Rita 	9	Septiembre	2023-09-28T00:00:00	2024-11-08T13:00:00	4	Temperatura máxima	21.1
119955	7	Sololá	704	Santa Lucía Utatlán 	7	Santa Rita 	9	Septiembre	2023-09-28T00:00:00	2024-11-08T13:00:00	3	Temperatura mínima	20.7
119956	7	Sololá	704	Santa Lucía Utatlán 	7	Santa Rita 	9	Septiembre	2023-09-28T00:00:00	2024-11-08T13:00:00	5	Humedad	95
119957	7	Sololá	704	Santa Lucía Utatlán 	7	Santa Rita 	9	Septiembre	2023-09-28T00:00:00	2024-11-08T13:00:00	6	Velocidad del viento	1.6
119958	7	Sololá	704	Santa Lucía Utatlán 	7	Santa Rita 	9	Septiembre	2023-09-28T00:00:00	2024-11-08T13:00:00	7	Dirección del viento	1.61
119959	7	Sololá	704	Santa Lucía Utatlán 	7	Santa Rita 	9	Septiembre	2023-09-28T00:00:00	2024-11-08T13:00:00	1	Precipitación	0.4
119960	7	Sololá	704	Santa Lucía Utatlán 	7	Santa Rita 	9	Septiembre	2023-09-28T00:00:00	2024-11-08T13:00:00	8	Radiación solar	204
119961	7	Sololá	704	Santa Lucía Utatlán 	7	Santa Rita 	9	Septiembre	2023-09-28T00:00:00	2024-11-08T14:00:00	2	Temperatura media	20.6
119962	7	Sololá	704	Santa Lucía Utatlán 	7	Santa Rita 	9	Septiembre	2023-09-28T00:00:00	2024-11-08T14:00:00	4	Temperatura máxima	20.8
119963	7	Sololá	704	Santa Lucía Utatlán 	7	Santa Rita 	9	Septiembre	2023-09-28T00:00:00	2024-11-08T14:00:00	3	Temperatura mínima	20.6
119964	7	Sololá	704	Santa Lucía Utatlán 	7	Santa Rita 	9	Septiembre	2023-09-28T00:00:00	2024-11-08T14:00:00	5	Humedad	96
119965	7	Sololá	704	Santa Lucía Utatlán 	7	Santa Rita 	9	Septiembre	2023-09-28T00:00:00	2024-11-08T14:00:00	6	Velocidad del viento	1.6
119966	7	Sololá	704	Santa Lucía Utatlán 	7	Santa Rita 	9	Septiembre	2023-09-28T00:00:00	2024-11-08T14:00:00	7	Dirección del viento	1.61
119967	7	Sololá	704	Santa Lucía Utatlán 	7	Santa Rita 	9	Septiembre	2023-09-28T00:00:00	2024-11-08T14:00:00	1	Precipitación	0
119968	7	Sololá	704	Santa Lucía Utatlán 	7	Santa Rita 	9	Septiembre	2023-09-28T00:00:00	2024-11-08T14:00:00	8	Radiación solar	207
119969	7	Sololá	704	Santa Lucía Utatlán 	7	Santa Rita 	9	Septiembre	2023-09-28T00:00:00	2024-11-08T15:00:00	2	Temperatura media	20.7
119970	7	Sololá	704	Santa Lucía Utatlán 	7	Santa Rita 	9	Septiembre	2023-09-28T00:00:00	2024-11-08T15:00:00	4	Temperatura máxima	20.7
119971	7	Sololá	704	Santa Lucía Utatlán 	7	Santa Rita 	9	Septiembre	2023-09-28T00:00:00	2024-11-08T15:00:00	3	Temperatura mínima	20.6
119972	7	Sololá	704	Santa Lucía Utatlán 	7	Santa Rita 	9	Septiembre	2023-09-28T00:00:00	2024-11-08T15:00:00	5	Humedad	97
119973	7	Sololá	704	Santa Lucía Utatlán 	7	Santa Rita 	9	Septiembre	2023-09-28T00:00:00	2024-11-08T15:00:00	6	Velocidad del viento	1.6
119974	7	Sololá	704	Santa Lucía Utatlán 	7	Santa Rita 	9	Septiembre	2023-09-28T00:00:00	2024-11-08T15:00:00	7	Dirección del viento	1.61
119975	7	Sololá	704	Santa Lucía Utatlán 	7	Santa Rita 	9	Septiembre	2023-09-28T00:00:00	2024-11-08T15:00:00	1	Precipitación	0.8
119976	7	Sololá	704	Santa Lucía Utatlán 	7	Santa Rita 	9	Septiembre	2023-09-28T00:00:00	2024-11-08T15:00:00	8	Radiación solar	19
119977	7	Sololá	704	Santa Lucía Utatlán 	7	Santa Rita 	9	Septiembre	2023-09-28T00:00:00	2024-11-08T16:00:00	2	Temperatura media	20.3
119978	7	Sololá	704	Santa Lucía Utatlán 	7	Santa Rita 	9	Septiembre	2023-09-28T00:00:00	2024-11-08T16:00:00	4	Temperatura máxima	20.7
119979	7	Sololá	704	Santa Lucía Utatlán 	7	Santa Rita 	9	Septiembre	2023-09-28T00:00:00	2024-11-08T16:00:00	3	Temperatura mínima	20.2
119980	7	Sololá	704	Santa Lucía Utatlán 	7	Santa Rita 	9	Septiembre	2023-09-28T00:00:00	2024-11-08T16:00:00	5	Humedad	96
119981	7	Sololá	704	Santa Lucía Utatlán 	7	Santa Rita 	9	Septiembre	2023-09-28T00:00:00	2024-11-08T16:00:00	6	Velocidad del viento	1.6
119982	7	Sololá	704	Santa Lucía Utatlán 	7	Santa Rita 	9	Septiembre	2023-09-28T00:00:00	2024-11-08T16:00:00	7	Dirección del viento	1.61
119983	7	Sololá	704	Santa Lucía Utatlán 	7	Santa Rita 	9	Septiembre	2023-09-28T00:00:00	2024-11-08T16:00:00	1	Precipitación	0.2
119984	7	Sololá	704	Santa Lucía Utatlán 	7	Santa Rita 	9	Septiembre	2023-09-28T00:00:00	2024-11-08T16:00:00	8	Radiación solar	11
119985	7	Sololá	704	Santa Lucía Utatlán 	7	Santa Rita 	9	Septiembre	2023-09-28T00:00:00	2024-11-08T17:00:00	2	Temperatura media	20.3
119986	7	Sololá	704	Santa Lucía Utatlán 	7	Santa Rita 	9	Septiembre	2023-09-28T00:00:00	2024-11-08T17:00:00	4	Temperatura máxima	20.4
119987	7	Sololá	704	Santa Lucía Utatlán 	7	Santa Rita 	9	Septiembre	2023-09-28T00:00:00	2024-11-08T17:00:00	3	Temperatura mínima	20.2
119988	7	Sololá	704	Santa Lucía Utatlán 	7	Santa Rita 	9	Septiembre	2023-09-28T00:00:00	2024-11-08T17:00:00	5	Humedad	96
119989	7	Sololá	704	Santa Lucía Utatlán 	7	Santa Rita 	9	Septiembre	2023-09-28T00:00:00	2024-11-08T17:00:00	6	Velocidad del viento	0
119990	7	Sololá	704	Santa Lucía Utatlán 	7	Santa Rita 	9	Septiembre	2023-09-28T00:00:00	2024-11-08T17:00:00	7	Dirección del viento	0
119991	7	Sololá	704	Santa Lucía Utatlán 	7	Santa Rita 	9	Septiembre	2023-09-28T00:00:00	2024-11-08T17:00:00	1	Precipitación	0
119992	7	Sololá	704	Santa Lucía Utatlán 	7	Santa Rita 	9	Septiembre	2023-09-28T00:00:00	2024-11-08T17:00:00	8	Radiación solar	4
119993	7	Sololá	704	Santa Lucía Utatlán 	7	Santa Rita 	9	Septiembre	2023-09-28T00:00:00	2024-11-08T18:00:00	2	Temperatura media	19.9
119994	7	Sololá	704	Santa Lucía Utatlán 	7	Santa Rita 	9	Septiembre	2023-09-28T00:00:00	2024-11-08T18:00:00	4	Temperatura máxima	20.3
119995	7	Sololá	704	Santa Lucía Utatlán 	7	Santa Rita 	9	Septiembre	2023-09-28T00:00:00	2024-11-08T18:00:00	3	Temperatura mínima	19.9
119996	7	Sololá	704	Santa Lucía Utatlán 	7	Santa Rita 	9	Septiembre	2023-09-28T00:00:00	2024-11-08T18:00:00	5	Humedad	94
119997	7	Sololá	704	Santa Lucía Utatlán 	7	Santa Rita 	9	Septiembre	2023-09-28T00:00:00	2024-11-08T18:00:00	6	Velocidad del viento	1.6
119998	7	Sololá	704	Santa Lucía Utatlán 	7	Santa Rita 	9	Septiembre	2023-09-28T00:00:00	2024-11-08T18:00:00	7	Dirección del viento	1.61
119999	7	Sololá	704	Santa Lucía Utatlán 	7	Santa Rita 	9	Septiembre	2023-09-28T00:00:00	2024-11-08T18:00:00	1	Precipitación	1.2
120000	7	Sololá	704	Santa Lucía Utatlán 	7	Santa Rita 	9	Septiembre	2023-09-28T00:00:00	2024-11-08T18:00:00	8	Radiación solar	0
120001	7	Sololá	704	Santa Lucía Utatlán 	7	Santa Rita 	9	Septiembre	2023-09-28T00:00:00	2024-11-08T19:00:00	2	Temperatura media	19.5
120002	7	Sololá	704	Santa Lucía Utatlán 	7	Santa Rita 	9	Septiembre	2023-09-28T00:00:00	2024-11-08T19:00:00	4	Temperatura máxima	20.1
120003	7	Sololá	704	Santa Lucía Utatlán 	7	Santa Rita 	9	Septiembre	2023-09-28T00:00:00	2024-11-08T19:00:00	3	Temperatura mínima	19.5
120004	7	Sololá	704	Santa Lucía Utatlán 	7	Santa Rita 	9	Septiembre	2023-09-28T00:00:00	2024-11-08T19:00:00	5	Humedad	96
120005	7	Sololá	704	Santa Lucía Utatlán 	7	Santa Rita 	9	Septiembre	2023-09-28T00:00:00	2024-11-08T19:00:00	6	Velocidad del viento	1.6
120006	7	Sololá	704	Santa Lucía Utatlán 	7	Santa Rita 	9	Septiembre	2023-09-28T00:00:00	2024-11-08T19:00:00	7	Dirección del viento	1.61
120007	7	Sololá	704	Santa Lucía Utatlán 	7	Santa Rita 	9	Septiembre	2023-09-28T00:00:00	2024-11-08T19:00:00	1	Precipitación	1.8
120008	7	Sololá	704	Santa Lucía Utatlán 	7	Santa Rita 	9	Septiembre	2023-09-28T00:00:00	2024-11-08T19:00:00	8	Radiación solar	0
120009	7	Sololá	704	Santa Lucía Utatlán 	7	Santa Rita 	9	Septiembre	2023-09-28T00:00:00	2024-11-08T20:00:00	2	Temperatura media	19.3
120010	7	Sololá	704	Santa Lucía Utatlán 	7	Santa Rita 	9	Septiembre	2023-09-28T00:00:00	2024-11-08T20:00:00	4	Temperatura máxima	19.6
120011	7	Sololá	704	Santa Lucía Utatlán 	7	Santa Rita 	9	Septiembre	2023-09-28T00:00:00	2024-11-08T20:00:00	3	Temperatura mínima	19.3
120012	7	Sololá	704	Santa Lucía Utatlán 	7	Santa Rita 	9	Septiembre	2023-09-28T00:00:00	2024-11-08T20:00:00	5	Humedad	96
120013	7	Sololá	704	Santa Lucía Utatlán 	7	Santa Rita 	9	Septiembre	2023-09-28T00:00:00	2024-11-08T20:00:00	6	Velocidad del viento	0
120014	7	Sololá	704	Santa Lucía Utatlán 	7	Santa Rita 	9	Septiembre	2023-09-28T00:00:00	2024-11-08T20:00:00	7	Dirección del viento	0
120015	7	Sololá	704	Santa Lucía Utatlán 	7	Santa Rita 	9	Septiembre	2023-09-28T00:00:00	2024-11-08T20:00:00	1	Precipitación	0.2
120016	7	Sololá	704	Santa Lucía Utatlán 	7	Santa Rita 	9	Septiembre	2023-09-28T00:00:00	2024-11-08T20:00:00	8	Radiación solar	0
120017	7	Sololá	704	Santa Lucía Utatlán 	7	Santa Rita 	9	Septiembre	2023-09-28T00:00:00	2024-11-08T21:00:00	2	Temperatura media	18.9
120018	7	Sololá	704	Santa Lucía Utatlán 	7	Santa Rita 	9	Septiembre	2023-09-28T00:00:00	2024-11-08T21:00:00	4	Temperatura máxima	19.3
120019	7	Sololá	704	Santa Lucía Utatlán 	7	Santa Rita 	9	Septiembre	2023-09-28T00:00:00	2024-11-08T21:00:00	3	Temperatura mínima	18.8
120020	7	Sololá	704	Santa Lucía Utatlán 	7	Santa Rita 	9	Septiembre	2023-09-28T00:00:00	2024-11-08T21:00:00	5	Humedad	95
120021	7	Sololá	704	Santa Lucía Utatlán 	7	Santa Rita 	9	Septiembre	2023-09-28T00:00:00	2024-11-08T21:00:00	6	Velocidad del viento	1.6
120022	7	Sololá	704	Santa Lucía Utatlán 	7	Santa Rita 	9	Septiembre	2023-09-28T00:00:00	2024-11-08T21:00:00	7	Dirección del viento	1.61
120023	7	Sololá	704	Santa Lucía Utatlán 	7	Santa Rita 	9	Septiembre	2023-09-28T00:00:00	2024-11-08T21:00:00	1	Precipitación	0
120024	7	Sololá	704	Santa Lucía Utatlán 	7	Santa Rita 	9	Septiembre	2023-09-28T00:00:00	2024-11-08T21:00:00	8	Radiación solar	0
120025	7	Sololá	704	Santa Lucía Utatlán 	7	Santa Rita 	9	Septiembre	2023-09-28T00:00:00	2024-11-08T22:00:00	2	Temperatura media	18.6
120026	7	Sololá	704	Santa Lucía Utatlán 	7	Santa Rita 	9	Septiembre	2023-09-28T00:00:00	2024-11-08T22:00:00	4	Temperatura máxima	18.9
120027	7	Sololá	704	Santa Lucía Utatlán 	7	Santa Rita 	9	Septiembre	2023-09-28T00:00:00	2024-11-08T22:00:00	3	Temperatura mínima	18.6
120028	7	Sololá	704	Santa Lucía Utatlán 	7	Santa Rita 	9	Septiembre	2023-09-28T00:00:00	2024-11-08T22:00:00	5	Humedad	96
120029	7	Sololá	704	Santa Lucía Utatlán 	7	Santa Rita 	9	Septiembre	2023-09-28T00:00:00	2024-11-08T22:00:00	6	Velocidad del viento	1.6
120030	7	Sololá	704	Santa Lucía Utatlán 	7	Santa Rita 	9	Septiembre	2023-09-28T00:00:00	2024-11-08T22:00:00	7	Dirección del viento	1.61
120031	7	Sololá	704	Santa Lucía Utatlán 	7	Santa Rita 	9	Septiembre	2023-09-28T00:00:00	2024-11-08T22:00:00	1	Precipitación	0
120032	7	Sololá	704	Santa Lucía Utatlán 	7	Santa Rita 	9	Septiembre	2023-09-28T00:00:00	2024-11-08T22:00:00	8	Radiación solar	0
120033	7	Sololá	704	Santa Lucía Utatlán 	7	Santa Rita 	9	Septiembre	2023-09-28T00:00:00	2024-11-08T23:00:00	2	Temperatura media	18.5
120034	7	Sololá	704	Santa Lucía Utatlán 	7	Santa Rita 	9	Septiembre	2023-09-28T00:00:00	2024-11-08T23:00:00	4	Temperatura máxima	18.6
120035	7	Sololá	704	Santa Lucía Utatlán 	7	Santa Rita 	9	Septiembre	2023-09-28T00:00:00	2024-11-08T23:00:00	3	Temperatura mínima	18.4
120036	7	Sololá	704	Santa Lucía Utatlán 	7	Santa Rita 	9	Septiembre	2023-09-28T00:00:00	2024-11-08T23:00:00	5	Humedad	96
120037	7	Sololá	704	Santa Lucía Utatlán 	7	Santa Rita 	9	Septiembre	2023-09-28T00:00:00	2024-11-08T23:00:00	6	Velocidad del viento	1.6
120038	7	Sololá	704	Santa Lucía Utatlán 	7	Santa Rita 	9	Septiembre	2023-09-28T00:00:00	2024-11-08T23:00:00	7	Dirección del viento	1.61
120039	7	Sololá	704	Santa Lucía Utatlán 	7	Santa Rita 	9	Septiembre	2023-09-28T00:00:00	2024-11-08T23:00:00	1	Precipitación	0
120040	7	Sololá	704	Santa Lucía Utatlán 	7	Santa Rita 	9	Septiembre	2023-09-28T00:00:00	2024-11-08T23:00:00	8	Radiación solar	0
120041	7	Sololá	704	Santa Lucía Utatlán 	7	Santa Rita 	9	Septiembre	2023-09-29T00:00:00	2024-11-08T00:00:00	2	Temperatura media	18.4
120042	7	Sololá	704	Santa Lucía Utatlán 	7	Santa Rita 	9	Septiembre	2023-09-29T00:00:00	2024-11-08T00:00:00	4	Temperatura máxima	18.5
120043	7	Sololá	704	Santa Lucía Utatlán 	7	Santa Rita 	9	Septiembre	2023-09-29T00:00:00	2024-11-08T00:00:00	3	Temperatura mínima	18.3
120044	7	Sololá	704	Santa Lucía Utatlán 	7	Santa Rita 	9	Septiembre	2023-09-29T00:00:00	2024-11-08T00:00:00	5	Humedad	96
120045	7	Sololá	704	Santa Lucía Utatlán 	7	Santa Rita 	9	Septiembre	2023-09-29T00:00:00	2024-11-08T00:00:00	6	Velocidad del viento	1.6
120046	7	Sololá	704	Santa Lucía Utatlán 	7	Santa Rita 	9	Septiembre	2023-09-29T00:00:00	2024-11-08T00:00:00	7	Dirección del viento	1.61
120047	7	Sololá	704	Santa Lucía Utatlán 	7	Santa Rita 	9	Septiembre	2023-09-29T00:00:00	2024-11-08T00:00:00	1	Precipitación	0
120048	7	Sololá	704	Santa Lucía Utatlán 	7	Santa Rita 	9	Septiembre	2023-09-29T00:00:00	2024-11-08T00:00:00	8	Radiación solar	0
120049	7	Sololá	704	Santa Lucía Utatlán 	7	Santa Rita 	9	Septiembre	2023-09-29T00:00:00	2024-11-08T01:00:00	2	Temperatura media	18.2
120050	7	Sololá	704	Santa Lucía Utatlán 	7	Santa Rita 	9	Septiembre	2023-09-29T00:00:00	2024-11-08T01:00:00	4	Temperatura máxima	18.5
120051	7	Sololá	704	Santa Lucía Utatlán 	7	Santa Rita 	9	Septiembre	2023-09-29T00:00:00	2024-11-08T01:00:00	3	Temperatura mínima	18.2
120052	7	Sololá	704	Santa Lucía Utatlán 	7	Santa Rita 	9	Septiembre	2023-09-29T00:00:00	2024-11-08T01:00:00	5	Humedad	96
120053	7	Sololá	704	Santa Lucía Utatlán 	7	Santa Rita 	9	Septiembre	2023-09-29T00:00:00	2024-11-08T01:00:00	6	Velocidad del viento	1.6
120054	7	Sololá	704	Santa Lucía Utatlán 	7	Santa Rita 	9	Septiembre	2023-09-29T00:00:00	2024-11-08T01:00:00	7	Dirección del viento	1.61
120055	7	Sololá	704	Santa Lucía Utatlán 	7	Santa Rita 	9	Septiembre	2023-09-29T00:00:00	2024-11-08T01:00:00	1	Precipitación	0
120056	7	Sololá	704	Santa Lucía Utatlán 	7	Santa Rita 	9	Septiembre	2023-09-29T00:00:00	2024-11-08T01:00:00	8	Radiación solar	0
120057	7	Sololá	704	Santa Lucía Utatlán 	7	Santa Rita 	9	Septiembre	2023-09-29T00:00:00	2024-11-08T02:00:00	2	Temperatura media	17.9
120058	7	Sololá	704	Santa Lucía Utatlán 	7	Santa Rita 	9	Septiembre	2023-09-29T00:00:00	2024-11-08T02:00:00	4	Temperatura máxima	18.2
120059	7	Sololá	704	Santa Lucía Utatlán 	7	Santa Rita 	9	Septiembre	2023-09-29T00:00:00	2024-11-08T02:00:00	3	Temperatura mínima	17.9
120060	7	Sololá	704	Santa Lucía Utatlán 	7	Santa Rita 	9	Septiembre	2023-09-29T00:00:00	2024-11-08T02:00:00	5	Humedad	96
120061	7	Sololá	704	Santa Lucía Utatlán 	7	Santa Rita 	9	Septiembre	2023-09-29T00:00:00	2024-11-08T02:00:00	6	Velocidad del viento	1.6
120062	7	Sololá	704	Santa Lucía Utatlán 	7	Santa Rita 	9	Septiembre	2023-09-29T00:00:00	2024-11-08T02:00:00	7	Dirección del viento	1.61
120063	7	Sololá	704	Santa Lucía Utatlán 	7	Santa Rita 	9	Septiembre	2023-09-29T00:00:00	2024-11-08T02:00:00	1	Precipitación	0
120064	7	Sololá	704	Santa Lucía Utatlán 	7	Santa Rita 	9	Septiembre	2023-09-29T00:00:00	2024-11-08T02:00:00	8	Radiación solar	0
120065	7	Sololá	704	Santa Lucía Utatlán 	7	Santa Rita 	9	Septiembre	2023-09-29T00:00:00	2024-11-08T03:00:00	2	Temperatura media	18.2
120066	7	Sololá	704	Santa Lucía Utatlán 	7	Santa Rita 	9	Septiembre	2023-09-29T00:00:00	2024-11-08T03:00:00	4	Temperatura máxima	18.2
120067	7	Sololá	704	Santa Lucía Utatlán 	7	Santa Rita 	9	Septiembre	2023-09-29T00:00:00	2024-11-08T03:00:00	3	Temperatura mínima	17.7
120068	7	Sololá	704	Santa Lucía Utatlán 	7	Santa Rita 	9	Septiembre	2023-09-29T00:00:00	2024-11-08T03:00:00	5	Humedad	97
120069	7	Sololá	704	Santa Lucía Utatlán 	7	Santa Rita 	9	Septiembre	2023-09-29T00:00:00	2024-11-08T03:00:00	6	Velocidad del viento	1.6
120070	7	Sololá	704	Santa Lucía Utatlán 	7	Santa Rita 	9	Septiembre	2023-09-29T00:00:00	2024-11-08T03:00:00	7	Dirección del viento	1.61
120071	7	Sololá	704	Santa Lucía Utatlán 	7	Santa Rita 	9	Septiembre	2023-09-29T00:00:00	2024-11-08T03:00:00	1	Precipitación	0.2
120072	7	Sololá	704	Santa Lucía Utatlán 	7	Santa Rita 	9	Septiembre	2023-09-29T00:00:00	2024-11-08T03:00:00	8	Radiación solar	0
120073	7	Sololá	704	Santa Lucía Utatlán 	7	Santa Rita 	9	Septiembre	2023-09-29T00:00:00	2024-11-08T04:00:00	2	Temperatura media	19.3
120074	7	Sololá	704	Santa Lucía Utatlán 	7	Santa Rita 	9	Septiembre	2023-09-29T00:00:00	2024-11-08T04:00:00	4	Temperatura máxima	19.4
120075	7	Sololá	704	Santa Lucía Utatlán 	7	Santa Rita 	9	Septiembre	2023-09-29T00:00:00	2024-11-08T04:00:00	3	Temperatura mínima	18.2
120076	7	Sololá	704	Santa Lucía Utatlán 	7	Santa Rita 	9	Septiembre	2023-09-29T00:00:00	2024-11-08T04:00:00	5	Humedad	97
120077	7	Sololá	704	Santa Lucía Utatlán 	7	Santa Rita 	9	Septiembre	2023-09-29T00:00:00	2024-11-08T04:00:00	6	Velocidad del viento	0
120078	7	Sololá	704	Santa Lucía Utatlán 	7	Santa Rita 	9	Septiembre	2023-09-29T00:00:00	2024-11-08T04:00:00	7	Dirección del viento	0
120079	7	Sololá	704	Santa Lucía Utatlán 	7	Santa Rita 	9	Septiembre	2023-09-29T00:00:00	2024-11-08T04:00:00	1	Precipitación	0
120080	7	Sololá	704	Santa Lucía Utatlán 	7	Santa Rita 	9	Septiembre	2023-09-29T00:00:00	2024-11-08T04:00:00	8	Radiación solar	0
120081	7	Sololá	704	Santa Lucía Utatlán 	7	Santa Rita 	9	Septiembre	2023-09-29T00:00:00	2024-11-08T05:00:00	2	Temperatura media	20.9
120082	7	Sololá	704	Santa Lucía Utatlán 	7	Santa Rita 	9	Septiembre	2023-09-29T00:00:00	2024-11-08T05:00:00	4	Temperatura máxima	20.9
120083	7	Sololá	704	Santa Lucía Utatlán 	7	Santa Rita 	9	Septiembre	2023-09-29T00:00:00	2024-11-08T05:00:00	3	Temperatura mínima	19.3
120084	7	Sololá	704	Santa Lucía Utatlán 	7	Santa Rita 	9	Septiembre	2023-09-29T00:00:00	2024-11-08T05:00:00	5	Humedad	92
120085	7	Sololá	704	Santa Lucía Utatlán 	7	Santa Rita 	9	Septiembre	2023-09-29T00:00:00	2024-11-08T05:00:00	6	Velocidad del viento	1.6
120086	7	Sololá	704	Santa Lucía Utatlán 	7	Santa Rita 	9	Septiembre	2023-09-29T00:00:00	2024-11-08T05:00:00	7	Dirección del viento	1.61
120087	7	Sololá	704	Santa Lucía Utatlán 	7	Santa Rita 	9	Septiembre	2023-09-29T00:00:00	2024-11-08T05:00:00	1	Precipitación	0
120088	7	Sololá	704	Santa Lucía Utatlán 	7	Santa Rita 	9	Septiembre	2023-09-29T00:00:00	2024-11-08T05:00:00	8	Radiación solar	0
120089	7	Sololá	704	Santa Lucía Utatlán 	7	Santa Rita 	9	Septiembre	2023-09-29T00:00:00	2024-11-08T06:00:00	2	Temperatura media	23.1
120090	7	Sololá	704	Santa Lucía Utatlán 	7	Santa Rita 	9	Septiembre	2023-09-29T00:00:00	2024-11-08T06:00:00	4	Temperatura máxima	23.1
120091	7	Sololá	704	Santa Lucía Utatlán 	7	Santa Rita 	9	Septiembre	2023-09-29T00:00:00	2024-11-08T06:00:00	3	Temperatura mínima	20.9
120092	7	Sololá	704	Santa Lucía Utatlán 	7	Santa Rita 	9	Septiembre	2023-09-29T00:00:00	2024-11-08T06:00:00	5	Humedad	86
120093	7	Sololá	704	Santa Lucía Utatlán 	7	Santa Rita 	9	Septiembre	2023-09-29T00:00:00	2024-11-08T06:00:00	6	Velocidad del viento	1.6
120094	7	Sololá	704	Santa Lucía Utatlán 	7	Santa Rita 	9	Septiembre	2023-09-29T00:00:00	2024-11-08T06:00:00	7	Dirección del viento	1.61
120095	7	Sololá	704	Santa Lucía Utatlán 	7	Santa Rita 	9	Septiembre	2023-09-29T00:00:00	2024-11-08T06:00:00	1	Precipitación	0
120096	7	Sololá	704	Santa Lucía Utatlán 	7	Santa Rita 	9	Septiembre	2023-09-29T00:00:00	2024-11-08T06:00:00	8	Radiación solar	25
120097	7	Sololá	704	Santa Lucía Utatlán 	7	Santa Rita 	9	Septiembre	2023-09-29T00:00:00	2024-11-08T07:00:00	2	Temperatura media	26.2
120098	7	Sololá	704	Santa Lucía Utatlán 	7	Santa Rita 	9	Septiembre	2023-09-29T00:00:00	2024-11-08T07:00:00	4	Temperatura máxima	26.3
120099	7	Sololá	704	Santa Lucía Utatlán 	7	Santa Rita 	9	Septiembre	2023-09-29T00:00:00	2024-11-08T07:00:00	3	Temperatura mínima	23.1
120100	7	Sololá	704	Santa Lucía Utatlán 	7	Santa Rita 	9	Septiembre	2023-09-29T00:00:00	2024-11-08T07:00:00	5	Humedad	64
120101	7	Sololá	704	Santa Lucía Utatlán 	7	Santa Rita 	9	Septiembre	2023-09-29T00:00:00	2024-11-08T07:00:00	6	Velocidad del viento	3.2
120102	7	Sololá	704	Santa Lucía Utatlán 	7	Santa Rita 	9	Septiembre	2023-09-29T00:00:00	2024-11-08T07:00:00	7	Dirección del viento	3.22
120103	7	Sololá	704	Santa Lucía Utatlán 	7	Santa Rita 	9	Septiembre	2023-09-29T00:00:00	2024-11-08T07:00:00	1	Precipitación	0
120104	7	Sololá	704	Santa Lucía Utatlán 	7	Santa Rita 	9	Septiembre	2023-09-29T00:00:00	2024-11-08T07:00:00	8	Radiación solar	75
120105	7	Sololá	704	Santa Lucía Utatlán 	7	Santa Rita 	9	Septiembre	2023-09-29T00:00:00	2024-11-08T08:00:00	2	Temperatura media	24.8
120106	7	Sololá	704	Santa Lucía Utatlán 	7	Santa Rita 	9	Septiembre	2023-09-29T00:00:00	2024-11-08T08:00:00	4	Temperatura máxima	26.4
120107	7	Sololá	704	Santa Lucía Utatlán 	7	Santa Rita 	9	Septiembre	2023-09-29T00:00:00	2024-11-08T08:00:00	3	Temperatura mínima	24.7
120108	7	Sololá	704	Santa Lucía Utatlán 	7	Santa Rita 	9	Septiembre	2023-09-29T00:00:00	2024-11-08T08:00:00	5	Humedad	69
120109	7	Sololá	704	Santa Lucía Utatlán 	7	Santa Rita 	9	Septiembre	2023-09-29T00:00:00	2024-11-08T08:00:00	6	Velocidad del viento	8
120110	7	Sololá	704	Santa Lucía Utatlán 	7	Santa Rita 	9	Septiembre	2023-09-29T00:00:00	2024-11-08T08:00:00	7	Dirección del viento	8.05
120111	7	Sololá	704	Santa Lucía Utatlán 	7	Santa Rita 	9	Septiembre	2023-09-29T00:00:00	2024-11-08T08:00:00	1	Precipitación	0
120112	7	Sololá	704	Santa Lucía Utatlán 	7	Santa Rita 	9	Septiembre	2023-09-29T00:00:00	2024-11-08T08:00:00	8	Radiación solar	232
120113	7	Sololá	704	Santa Lucía Utatlán 	7	Santa Rita 	9	Septiembre	2023-09-29T00:00:00	2024-11-08T09:00:00	2	Temperatura media	23.7
120114	7	Sololá	704	Santa Lucía Utatlán 	7	Santa Rita 	9	Septiembre	2023-09-29T00:00:00	2024-11-08T09:00:00	4	Temperatura máxima	25.2
120115	7	Sololá	704	Santa Lucía Utatlán 	7	Santa Rita 	9	Septiembre	2023-09-29T00:00:00	2024-11-08T09:00:00	3	Temperatura mínima	23.4
120116	7	Sololá	704	Santa Lucía Utatlán 	7	Santa Rita 	9	Septiembre	2023-09-29T00:00:00	2024-11-08T09:00:00	5	Humedad	77
120117	7	Sololá	704	Santa Lucía Utatlán 	7	Santa Rita 	9	Septiembre	2023-09-29T00:00:00	2024-11-08T09:00:00	6	Velocidad del viento	6.4
120118	7	Sololá	704	Santa Lucía Utatlán 	7	Santa Rita 	9	Septiembre	2023-09-29T00:00:00	2024-11-08T09:00:00	7	Dirección del viento	6.44
120119	7	Sololá	704	Santa Lucía Utatlán 	7	Santa Rita 	9	Septiembre	2023-09-29T00:00:00	2024-11-08T09:00:00	1	Precipitación	0
120120	7	Sololá	704	Santa Lucía Utatlán 	7	Santa Rita 	9	Septiembre	2023-09-29T00:00:00	2024-11-08T09:00:00	8	Radiación solar	399
120121	7	Sololá	704	Santa Lucía Utatlán 	7	Santa Rita 	9	Septiembre	2023-09-29T00:00:00	2024-11-08T10:00:00	2	Temperatura media	21.9
120122	7	Sololá	704	Santa Lucía Utatlán 	7	Santa Rita 	9	Septiembre	2023-09-29T00:00:00	2024-11-08T10:00:00	4	Temperatura máxima	24.2
120123	7	Sololá	704	Santa Lucía Utatlán 	7	Santa Rita 	9	Septiembre	2023-09-29T00:00:00	2024-11-08T10:00:00	3	Temperatura mínima	21.9
120124	7	Sololá	704	Santa Lucía Utatlán 	7	Santa Rita 	9	Septiembre	2023-09-29T00:00:00	2024-11-08T10:00:00	5	Humedad	92
120125	7	Sololá	704	Santa Lucía Utatlán 	7	Santa Rita 	9	Septiembre	2023-09-29T00:00:00	2024-11-08T10:00:00	6	Velocidad del viento	3.2
120126	7	Sololá	704	Santa Lucía Utatlán 	7	Santa Rita 	9	Septiembre	2023-09-29T00:00:00	2024-11-08T10:00:00	7	Dirección del viento	3.22
120127	7	Sololá	704	Santa Lucía Utatlán 	7	Santa Rita 	9	Septiembre	2023-09-29T00:00:00	2024-11-08T10:00:00	1	Precipitación	0
120128	7	Sololá	704	Santa Lucía Utatlán 	7	Santa Rita 	9	Septiembre	2023-09-29T00:00:00	2024-11-08T10:00:00	8	Radiación solar	761
120129	7	Sololá	704	Santa Lucía Utatlán 	7	Santa Rita 	9	Septiembre	2023-09-29T00:00:00	2024-11-08T11:00:00	2	Temperatura media	21.3
120130	7	Sololá	704	Santa Lucía Utatlán 	7	Santa Rita 	9	Septiembre	2023-09-29T00:00:00	2024-11-08T11:00:00	4	Temperatura máxima	21.9
120131	7	Sololá	704	Santa Lucía Utatlán 	7	Santa Rita 	9	Septiembre	2023-09-29T00:00:00	2024-11-08T11:00:00	3	Temperatura mínima	21.1
120132	7	Sololá	704	Santa Lucía Utatlán 	7	Santa Rita 	9	Septiembre	2023-09-29T00:00:00	2024-11-08T11:00:00	5	Humedad	93
120133	7	Sololá	704	Santa Lucía Utatlán 	7	Santa Rita 	9	Septiembre	2023-09-29T00:00:00	2024-11-08T11:00:00	6	Velocidad del viento	3.2
120134	7	Sololá	704	Santa Lucía Utatlán 	7	Santa Rita 	9	Septiembre	2023-09-29T00:00:00	2024-11-08T11:00:00	7	Dirección del viento	3.22
120135	7	Sololá	704	Santa Lucía Utatlán 	7	Santa Rita 	9	Septiembre	2023-09-29T00:00:00	2024-11-08T11:00:00	1	Precipitación	1.4
120136	7	Sololá	704	Santa Lucía Utatlán 	7	Santa Rita 	9	Septiembre	2023-09-29T00:00:00	2024-11-08T11:00:00	8	Radiación solar	620
120137	7	Sololá	704	Santa Lucía Utatlán 	7	Santa Rita 	9	Septiembre	2023-09-29T00:00:00	2024-11-08T12:00:00	2	Temperatura media	21.9
120138	7	Sololá	704	Santa Lucía Utatlán 	7	Santa Rita 	9	Septiembre	2023-09-29T00:00:00	2024-11-08T12:00:00	4	Temperatura máxima	22.2
120139	7	Sololá	704	Santa Lucía Utatlán 	7	Santa Rita 	9	Septiembre	2023-09-29T00:00:00	2024-11-08T12:00:00	3	Temperatura mínima	21.2
120140	7	Sololá	704	Santa Lucía Utatlán 	7	Santa Rita 	9	Septiembre	2023-09-29T00:00:00	2024-11-08T12:00:00	5	Humedad	92
120141	7	Sololá	704	Santa Lucía Utatlán 	7	Santa Rita 	9	Septiembre	2023-09-29T00:00:00	2024-11-08T12:00:00	6	Velocidad del viento	1.6
120142	7	Sololá	704	Santa Lucía Utatlán 	7	Santa Rita 	9	Septiembre	2023-09-29T00:00:00	2024-11-08T12:00:00	7	Dirección del viento	1.61
120143	7	Sololá	704	Santa Lucía Utatlán 	7	Santa Rita 	9	Septiembre	2023-09-29T00:00:00	2024-11-08T12:00:00	1	Precipitación	0
120144	7	Sololá	704	Santa Lucía Utatlán 	7	Santa Rita 	9	Septiembre	2023-09-29T00:00:00	2024-11-08T12:00:00	8	Radiación solar	283
120145	7	Sololá	704	Santa Lucía Utatlán 	7	Santa Rita 	9	Septiembre	2023-09-29T00:00:00	2024-11-08T13:00:00	2	Temperatura media	20.7
120146	7	Sololá	704	Santa Lucía Utatlán 	7	Santa Rita 	9	Septiembre	2023-09-29T00:00:00	2024-11-08T13:00:00	4	Temperatura máxima	21.9
120147	7	Sololá	704	Santa Lucía Utatlán 	7	Santa Rita 	9	Septiembre	2023-09-29T00:00:00	2024-11-08T13:00:00	3	Temperatura mínima	20.7
120148	7	Sololá	704	Santa Lucía Utatlán 	7	Santa Rita 	9	Septiembre	2023-09-29T00:00:00	2024-11-08T13:00:00	5	Humedad	95
120149	7	Sololá	704	Santa Lucía Utatlán 	7	Santa Rita 	9	Septiembre	2023-09-29T00:00:00	2024-11-08T13:00:00	6	Velocidad del viento	1.6
120150	7	Sololá	704	Santa Lucía Utatlán 	7	Santa Rita 	9	Septiembre	2023-09-29T00:00:00	2024-11-08T13:00:00	7	Dirección del viento	1.61
120151	7	Sololá	704	Santa Lucía Utatlán 	7	Santa Rita 	9	Septiembre	2023-09-29T00:00:00	2024-11-08T13:00:00	1	Precipitación	1
120152	7	Sololá	704	Santa Lucía Utatlán 	7	Santa Rita 	9	Septiembre	2023-09-29T00:00:00	2024-11-08T13:00:00	8	Radiación solar	178
120153	7	Sololá	704	Santa Lucía Utatlán 	7	Santa Rita 	9	Septiembre	2023-09-29T00:00:00	2024-11-08T14:00:00	2	Temperatura media	19.9
120154	7	Sololá	704	Santa Lucía Utatlán 	7	Santa Rita 	9	Septiembre	2023-09-29T00:00:00	2024-11-08T14:00:00	4	Temperatura máxima	20.7
120155	7	Sololá	704	Santa Lucía Utatlán 	7	Santa Rita 	9	Septiembre	2023-09-29T00:00:00	2024-11-08T14:00:00	3	Temperatura mínima	19.9
120156	7	Sololá	704	Santa Lucía Utatlán 	7	Santa Rita 	9	Septiembre	2023-09-29T00:00:00	2024-11-08T14:00:00	5	Humedad	95
120157	7	Sololá	704	Santa Lucía Utatlán 	7	Santa Rita 	9	Septiembre	2023-09-29T00:00:00	2024-11-08T14:00:00	6	Velocidad del viento	1.6
120158	7	Sololá	704	Santa Lucía Utatlán 	7	Santa Rita 	9	Septiembre	2023-09-29T00:00:00	2024-11-08T14:00:00	7	Dirección del viento	1.61
120159	7	Sololá	704	Santa Lucía Utatlán 	7	Santa Rita 	9	Septiembre	2023-09-29T00:00:00	2024-11-08T14:00:00	1	Precipitación	3.8
120160	7	Sololá	704	Santa Lucía Utatlán 	7	Santa Rita 	9	Septiembre	2023-09-29T00:00:00	2024-11-08T14:00:00	8	Radiación solar	59
120161	7	Sololá	704	Santa Lucía Utatlán 	7	Santa Rita 	9	Septiembre	2023-09-29T00:00:00	2024-11-08T15:00:00	2	Temperatura media	20
120162	7	Sololá	704	Santa Lucía Utatlán 	7	Santa Rita 	9	Septiembre	2023-09-29T00:00:00	2024-11-08T15:00:00	4	Temperatura máxima	20
120163	7	Sololá	704	Santa Lucía Utatlán 	7	Santa Rita 	9	Septiembre	2023-09-29T00:00:00	2024-11-08T15:00:00	3	Temperatura mínima	19.9
120164	7	Sololá	704	Santa Lucía Utatlán 	7	Santa Rita 	9	Septiembre	2023-09-29T00:00:00	2024-11-08T15:00:00	5	Humedad	96
120165	7	Sololá	704	Santa Lucía Utatlán 	7	Santa Rita 	9	Septiembre	2023-09-29T00:00:00	2024-11-08T15:00:00	6	Velocidad del viento	1.6
120166	7	Sololá	704	Santa Lucía Utatlán 	7	Santa Rita 	9	Septiembre	2023-09-29T00:00:00	2024-11-08T15:00:00	7	Dirección del viento	1.61
120167	7	Sololá	704	Santa Lucía Utatlán 	7	Santa Rita 	9	Septiembre	2023-09-29T00:00:00	2024-11-08T15:00:00	1	Precipitación	0.4
120168	7	Sololá	704	Santa Lucía Utatlán 	7	Santa Rita 	9	Septiembre	2023-09-29T00:00:00	2024-11-08T15:00:00	8	Radiación solar	186
120169	7	Sololá	704	Santa Lucía Utatlán 	7	Santa Rita 	9	Septiembre	2023-09-29T00:00:00	2024-11-08T16:00:00	2	Temperatura media	19.8
120170	7	Sololá	704	Santa Lucía Utatlán 	7	Santa Rita 	9	Septiembre	2023-09-29T00:00:00	2024-11-08T16:00:00	4	Temperatura máxima	20
120171	7	Sololá	704	Santa Lucía Utatlán 	7	Santa Rita 	9	Septiembre	2023-09-29T00:00:00	2024-11-08T16:00:00	3	Temperatura mínima	19.7
120172	7	Sololá	704	Santa Lucía Utatlán 	7	Santa Rita 	9	Septiembre	2023-09-29T00:00:00	2024-11-08T16:00:00	5	Humedad	96
120173	7	Sololá	704	Santa Lucía Utatlán 	7	Santa Rita 	9	Septiembre	2023-09-29T00:00:00	2024-11-08T16:00:00	6	Velocidad del viento	0
120174	7	Sololá	704	Santa Lucía Utatlán 	7	Santa Rita 	9	Septiembre	2023-09-29T00:00:00	2024-11-08T16:00:00	7	Dirección del viento	0
120175	7	Sololá	704	Santa Lucía Utatlán 	7	Santa Rita 	9	Septiembre	2023-09-29T00:00:00	2024-11-08T16:00:00	1	Precipitación	1.6
120176	7	Sololá	704	Santa Lucía Utatlán 	7	Santa Rita 	9	Septiembre	2023-09-29T00:00:00	2024-11-08T16:00:00	8	Radiación solar	12
120177	7	Sololá	704	Santa Lucía Utatlán 	7	Santa Rita 	9	Septiembre	2023-09-29T00:00:00	2024-11-08T17:00:00	2	Temperatura media	19.6
120178	7	Sololá	704	Santa Lucía Utatlán 	7	Santa Rita 	9	Septiembre	2023-09-29T00:00:00	2024-11-08T17:00:00	4	Temperatura máxima	19.8
120179	7	Sololá	704	Santa Lucía Utatlán 	7	Santa Rita 	9	Septiembre	2023-09-29T00:00:00	2024-11-08T17:00:00	3	Temperatura mínima	19.6
120180	7	Sololá	704	Santa Lucía Utatlán 	7	Santa Rita 	9	Septiembre	2023-09-29T00:00:00	2024-11-08T17:00:00	5	Humedad	96
120181	7	Sololá	704	Santa Lucía Utatlán 	7	Santa Rita 	9	Septiembre	2023-09-29T00:00:00	2024-11-08T17:00:00	6	Velocidad del viento	1.6
120182	7	Sololá	704	Santa Lucía Utatlán 	7	Santa Rita 	9	Septiembre	2023-09-29T00:00:00	2024-11-08T17:00:00	7	Dirección del viento	1.61
120183	7	Sololá	704	Santa Lucía Utatlán 	7	Santa Rita 	9	Septiembre	2023-09-29T00:00:00	2024-11-08T17:00:00	1	Precipitación	0.2
120184	7	Sololá	704	Santa Lucía Utatlán 	7	Santa Rita 	9	Septiembre	2023-09-29T00:00:00	2024-11-08T17:00:00	8	Radiación solar	0
120185	7	Sololá	704	Santa Lucía Utatlán 	7	Santa Rita 	9	Septiembre	2023-09-29T00:00:00	2024-11-08T18:00:00	2	Temperatura media	19.4
120186	7	Sololá	704	Santa Lucía Utatlán 	7	Santa Rita 	9	Septiembre	2023-09-29T00:00:00	2024-11-08T18:00:00	4	Temperatura máxima	19.6
120187	7	Sololá	704	Santa Lucía Utatlán 	7	Santa Rita 	9	Septiembre	2023-09-29T00:00:00	2024-11-08T18:00:00	3	Temperatura mínima	19.4
120188	7	Sololá	704	Santa Lucía Utatlán 	7	Santa Rita 	9	Septiembre	2023-09-29T00:00:00	2024-11-08T18:00:00	5	Humedad	96
120189	7	Sololá	704	Santa Lucía Utatlán 	7	Santa Rita 	9	Septiembre	2023-09-29T00:00:00	2024-11-08T18:00:00	6	Velocidad del viento	0
120190	7	Sololá	704	Santa Lucía Utatlán 	7	Santa Rita 	9	Septiembre	2023-09-29T00:00:00	2024-11-08T18:00:00	7	Dirección del viento	0
120191	7	Sololá	704	Santa Lucía Utatlán 	7	Santa Rita 	9	Septiembre	2023-09-29T00:00:00	2024-11-08T18:00:00	1	Precipitación	0
120192	7	Sololá	704	Santa Lucía Utatlán 	7	Santa Rita 	9	Septiembre	2023-09-29T00:00:00	2024-11-08T18:00:00	8	Radiación solar	0
120193	7	Sololá	704	Santa Lucía Utatlán 	7	Santa Rita 	9	Septiembre	2023-09-29T00:00:00	2024-11-08T19:00:00	2	Temperatura media	19.1
120194	7	Sololá	704	Santa Lucía Utatlán 	7	Santa Rita 	9	Septiembre	2023-09-29T00:00:00	2024-11-08T19:00:00	4	Temperatura máxima	19.5
120195	7	Sololá	704	Santa Lucía Utatlán 	7	Santa Rita 	9	Septiembre	2023-09-29T00:00:00	2024-11-08T19:00:00	3	Temperatura mínima	19
120196	7	Sololá	704	Santa Lucía Utatlán 	7	Santa Rita 	9	Septiembre	2023-09-29T00:00:00	2024-11-08T19:00:00	5	Humedad	96
120197	7	Sololá	704	Santa Lucía Utatlán 	7	Santa Rita 	9	Septiembre	2023-09-29T00:00:00	2024-11-08T19:00:00	6	Velocidad del viento	1.6
120198	7	Sololá	704	Santa Lucía Utatlán 	7	Santa Rita 	9	Septiembre	2023-09-29T00:00:00	2024-11-08T19:00:00	7	Dirección del viento	1.61
120199	7	Sololá	704	Santa Lucía Utatlán 	7	Santa Rita 	9	Septiembre	2023-09-29T00:00:00	2024-11-08T19:00:00	1	Precipitación	0
120200	7	Sololá	704	Santa Lucía Utatlán 	7	Santa Rita 	9	Septiembre	2023-09-29T00:00:00	2024-11-08T19:00:00	8	Radiación solar	0
120201	7	Sololá	704	Santa Lucía Utatlán 	7	Santa Rita 	9	Septiembre	2023-09-29T00:00:00	2024-11-08T20:00:00	2	Temperatura media	18.9
120202	7	Sololá	704	Santa Lucía Utatlán 	7	Santa Rita 	9	Septiembre	2023-09-29T00:00:00	2024-11-08T20:00:00	4	Temperatura máxima	19.2
120203	7	Sololá	704	Santa Lucía Utatlán 	7	Santa Rita 	9	Septiembre	2023-09-29T00:00:00	2024-11-08T20:00:00	3	Temperatura mínima	18.9
120204	7	Sololá	704	Santa Lucía Utatlán 	7	Santa Rita 	9	Septiembre	2023-09-29T00:00:00	2024-11-08T20:00:00	5	Humedad	97
120205	7	Sololá	704	Santa Lucía Utatlán 	7	Santa Rita 	9	Septiembre	2023-09-29T00:00:00	2024-11-08T20:00:00	6	Velocidad del viento	1.6
120206	7	Sololá	704	Santa Lucía Utatlán 	7	Santa Rita 	9	Septiembre	2023-09-29T00:00:00	2024-11-08T20:00:00	7	Dirección del viento	1.61
120207	7	Sololá	704	Santa Lucía Utatlán 	7	Santa Rita 	9	Septiembre	2023-09-29T00:00:00	2024-11-08T20:00:00	1	Precipitación	0
120208	7	Sololá	704	Santa Lucía Utatlán 	7	Santa Rita 	9	Septiembre	2023-09-29T00:00:00	2024-11-08T20:00:00	8	Radiación solar	0
120209	7	Sololá	704	Santa Lucía Utatlán 	7	Santa Rita 	9	Septiembre	2023-09-29T00:00:00	2024-11-08T21:00:00	2	Temperatura media	19
120210	7	Sololá	704	Santa Lucía Utatlán 	7	Santa Rita 	9	Septiembre	2023-09-29T00:00:00	2024-11-08T21:00:00	4	Temperatura máxima	19.1
120211	7	Sololá	704	Santa Lucía Utatlán 	7	Santa Rita 	9	Septiembre	2023-09-29T00:00:00	2024-11-08T21:00:00	3	Temperatura mínima	18.9
120212	7	Sololá	704	Santa Lucía Utatlán 	7	Santa Rita 	9	Septiembre	2023-09-29T00:00:00	2024-11-08T21:00:00	5	Humedad	96
120213	7	Sololá	704	Santa Lucía Utatlán 	7	Santa Rita 	9	Septiembre	2023-09-29T00:00:00	2024-11-08T21:00:00	6	Velocidad del viento	1.6
120214	7	Sololá	704	Santa Lucía Utatlán 	7	Santa Rita 	9	Septiembre	2023-09-29T00:00:00	2024-11-08T21:00:00	7	Dirección del viento	1.61
120215	7	Sololá	704	Santa Lucía Utatlán 	7	Santa Rita 	9	Septiembre	2023-09-29T00:00:00	2024-11-08T21:00:00	1	Precipitación	0
120216	7	Sololá	704	Santa Lucía Utatlán 	7	Santa Rita 	9	Septiembre	2023-09-29T00:00:00	2024-11-08T21:00:00	8	Radiación solar	0
120217	7	Sololá	704	Santa Lucía Utatlán 	7	Santa Rita 	9	Septiembre	2023-09-29T00:00:00	2024-11-08T22:00:00	2	Temperatura media	19.1
120218	7	Sololá	704	Santa Lucía Utatlán 	7	Santa Rita 	9	Septiembre	2023-09-29T00:00:00	2024-11-08T22:00:00	4	Temperatura máxima	19.2
120219	7	Sololá	704	Santa Lucía Utatlán 	7	Santa Rita 	9	Septiembre	2023-09-29T00:00:00	2024-11-08T22:00:00	3	Temperatura mínima	19
120220	7	Sololá	704	Santa Lucía Utatlán 	7	Santa Rita 	9	Septiembre	2023-09-29T00:00:00	2024-11-08T22:00:00	5	Humedad	96
120221	7	Sololá	704	Santa Lucía Utatlán 	7	Santa Rita 	9	Septiembre	2023-09-29T00:00:00	2024-11-08T22:00:00	6	Velocidad del viento	1.6
120222	7	Sololá	704	Santa Lucía Utatlán 	7	Santa Rita 	9	Septiembre	2023-09-29T00:00:00	2024-11-08T22:00:00	7	Dirección del viento	1.61
120223	7	Sololá	704	Santa Lucía Utatlán 	7	Santa Rita 	9	Septiembre	2023-09-29T00:00:00	2024-11-08T22:00:00	1	Precipitación	0
120224	7	Sololá	704	Santa Lucía Utatlán 	7	Santa Rita 	9	Septiembre	2023-09-29T00:00:00	2024-11-08T22:00:00	8	Radiación solar	0
120225	7	Sololá	704	Santa Lucía Utatlán 	7	Santa Rita 	9	Septiembre	2023-09-29T00:00:00	2024-11-08T23:00:00	2	Temperatura media	18.6
120226	7	Sololá	704	Santa Lucía Utatlán 	7	Santa Rita 	9	Septiembre	2023-09-29T00:00:00	2024-11-08T23:00:00	4	Temperatura máxima	19.1
120227	7	Sololá	704	Santa Lucía Utatlán 	7	Santa Rita 	9	Septiembre	2023-09-29T00:00:00	2024-11-08T23:00:00	3	Temperatura mínima	18.6
120228	7	Sololá	704	Santa Lucía Utatlán 	7	Santa Rita 	9	Septiembre	2023-09-29T00:00:00	2024-11-08T23:00:00	5	Humedad	96
120229	7	Sololá	704	Santa Lucía Utatlán 	7	Santa Rita 	9	Septiembre	2023-09-29T00:00:00	2024-11-08T23:00:00	6	Velocidad del viento	1.6
120230	7	Sololá	704	Santa Lucía Utatlán 	7	Santa Rita 	9	Septiembre	2023-09-29T00:00:00	2024-11-08T23:00:00	7	Dirección del viento	1.61
120231	7	Sololá	704	Santa Lucía Utatlán 	7	Santa Rita 	9	Septiembre	2023-09-29T00:00:00	2024-11-08T23:00:00	1	Precipitación	0
120232	7	Sololá	704	Santa Lucía Utatlán 	7	Santa Rita 	9	Septiembre	2023-09-29T00:00:00	2024-11-08T23:00:00	8	Radiación solar	0
120233	7	Sololá	704	Santa Lucía Utatlán 	7	Santa Rita 	9	Septiembre	2023-09-30T00:00:00	2024-11-08T00:00:00	2	Temperatura media	18.2
120234	7	Sololá	704	Santa Lucía Utatlán 	7	Santa Rita 	9	Septiembre	2023-09-30T00:00:00	2024-11-08T00:00:00	4	Temperatura máxima	18.6
120235	7	Sololá	704	Santa Lucía Utatlán 	7	Santa Rita 	9	Septiembre	2023-09-30T00:00:00	2024-11-08T00:00:00	3	Temperatura mínima	18.1
120236	7	Sololá	704	Santa Lucía Utatlán 	7	Santa Rita 	9	Septiembre	2023-09-30T00:00:00	2024-11-08T00:00:00	5	Humedad	95
120237	7	Sololá	704	Santa Lucía Utatlán 	7	Santa Rita 	9	Septiembre	2023-09-30T00:00:00	2024-11-08T00:00:00	6	Velocidad del viento	3.2
120238	7	Sololá	704	Santa Lucía Utatlán 	7	Santa Rita 	9	Septiembre	2023-09-30T00:00:00	2024-11-08T00:00:00	7	Dirección del viento	3.22
120239	7	Sololá	704	Santa Lucía Utatlán 	7	Santa Rita 	9	Septiembre	2023-09-30T00:00:00	2024-11-08T00:00:00	1	Precipitación	0
120240	7	Sololá	704	Santa Lucía Utatlán 	7	Santa Rita 	9	Septiembre	2023-09-30T00:00:00	2024-11-08T00:00:00	8	Radiación solar	0
120241	7	Sololá	704	Santa Lucía Utatlán 	7	Santa Rita 	9	Septiembre	2023-09-30T00:00:00	2024-11-08T01:00:00	2	Temperatura media	18.1
120242	7	Sololá	704	Santa Lucía Utatlán 	7	Santa Rita 	9	Septiembre	2023-09-30T00:00:00	2024-11-08T01:00:00	4	Temperatura máxima	18.2
120243	7	Sololá	704	Santa Lucía Utatlán 	7	Santa Rita 	9	Septiembre	2023-09-30T00:00:00	2024-11-08T01:00:00	3	Temperatura mínima	18
120244	7	Sololá	704	Santa Lucía Utatlán 	7	Santa Rita 	9	Septiembre	2023-09-30T00:00:00	2024-11-08T01:00:00	5	Humedad	95
120245	7	Sololá	704	Santa Lucía Utatlán 	7	Santa Rita 	9	Septiembre	2023-09-30T00:00:00	2024-11-08T01:00:00	6	Velocidad del viento	3.2
120246	7	Sololá	704	Santa Lucía Utatlán 	7	Santa Rita 	9	Septiembre	2023-09-30T00:00:00	2024-11-08T01:00:00	7	Dirección del viento	3.22
120247	7	Sololá	704	Santa Lucía Utatlán 	7	Santa Rita 	9	Septiembre	2023-09-30T00:00:00	2024-11-08T01:00:00	1	Precipitación	0
120248	7	Sololá	704	Santa Lucía Utatlán 	7	Santa Rita 	9	Septiembre	2023-09-30T00:00:00	2024-11-08T01:00:00	8	Radiación solar	0
120249	7	Sololá	704	Santa Lucía Utatlán 	7	Santa Rita 	9	Septiembre	2023-09-30T00:00:00	2024-11-08T02:00:00	2	Temperatura media	17.7
120250	7	Sololá	704	Santa Lucía Utatlán 	7	Santa Rita 	9	Septiembre	2023-09-30T00:00:00	2024-11-08T02:00:00	4	Temperatura máxima	18.1
120251	7	Sololá	704	Santa Lucía Utatlán 	7	Santa Rita 	9	Septiembre	2023-09-30T00:00:00	2024-11-08T02:00:00	3	Temperatura mínima	17.7
120252	7	Sololá	704	Santa Lucía Utatlán 	7	Santa Rita 	9	Septiembre	2023-09-30T00:00:00	2024-11-08T02:00:00	5	Humedad	95
120253	7	Sololá	704	Santa Lucía Utatlán 	7	Santa Rita 	9	Septiembre	2023-09-30T00:00:00	2024-11-08T02:00:00	6	Velocidad del viento	3.2
120254	7	Sololá	704	Santa Lucía Utatlán 	7	Santa Rita 	9	Septiembre	2023-09-30T00:00:00	2024-11-08T02:00:00	7	Dirección del viento	3.22
120255	7	Sololá	704	Santa Lucía Utatlán 	7	Santa Rita 	9	Septiembre	2023-09-30T00:00:00	2024-11-08T02:00:00	1	Precipitación	0
120256	7	Sololá	704	Santa Lucía Utatlán 	7	Santa Rita 	9	Septiembre	2023-09-30T00:00:00	2024-11-08T02:00:00	8	Radiación solar	0
120257	7	Sololá	704	Santa Lucía Utatlán 	7	Santa Rita 	9	Septiembre	2023-09-30T00:00:00	2024-11-08T03:00:00	2	Temperatura media	19.4
120258	7	Sololá	704	Santa Lucía Utatlán 	7	Santa Rita 	9	Septiembre	2023-09-30T00:00:00	2024-11-08T03:00:00	4	Temperatura máxima	19.9
120259	7	Sololá	704	Santa Lucía Utatlán 	7	Santa Rita 	9	Septiembre	2023-09-30T00:00:00	2024-11-08T03:00:00	3	Temperatura mínima	17.7
120260	7	Sololá	704	Santa Lucía Utatlán 	7	Santa Rita 	9	Septiembre	2023-09-30T00:00:00	2024-11-08T03:00:00	5	Humedad	91
120261	7	Sololá	704	Santa Lucía Utatlán 	7	Santa Rita 	9	Septiembre	2023-09-30T00:00:00	2024-11-08T03:00:00	6	Velocidad del viento	3.2
120262	7	Sololá	704	Santa Lucía Utatlán 	7	Santa Rita 	9	Septiembre	2023-09-30T00:00:00	2024-11-08T03:00:00	7	Dirección del viento	3.22
120263	7	Sololá	704	Santa Lucía Utatlán 	7	Santa Rita 	9	Septiembre	2023-09-30T00:00:00	2024-11-08T03:00:00	1	Precipitación	0
120264	7	Sololá	704	Santa Lucía Utatlán 	7	Santa Rita 	9	Septiembre	2023-09-30T00:00:00	2024-11-08T03:00:00	8	Radiación solar	0
120265	7	Sololá	704	Santa Lucía Utatlán 	7	Santa Rita 	9	Septiembre	2023-09-30T00:00:00	2024-11-08T04:00:00	2	Temperatura media	22.3
120266	7	Sololá	704	Santa Lucía Utatlán 	7	Santa Rita 	9	Septiembre	2023-09-30T00:00:00	2024-11-08T04:00:00	4	Temperatura máxima	22.3
120267	7	Sololá	704	Santa Lucía Utatlán 	7	Santa Rita 	9	Septiembre	2023-09-30T00:00:00	2024-11-08T04:00:00	3	Temperatura mínima	19.2
120268	7	Sololá	704	Santa Lucía Utatlán 	7	Santa Rita 	9	Septiembre	2023-09-30T00:00:00	2024-11-08T04:00:00	5	Humedad	83
120269	7	Sololá	704	Santa Lucía Utatlán 	7	Santa Rita 	9	Septiembre	2023-09-30T00:00:00	2024-11-08T04:00:00	6	Velocidad del viento	1.6
120270	7	Sololá	704	Santa Lucía Utatlán 	7	Santa Rita 	9	Septiembre	2023-09-30T00:00:00	2024-11-08T04:00:00	7	Dirección del viento	1.61
120271	7	Sololá	704	Santa Lucía Utatlán 	7	Santa Rita 	9	Septiembre	2023-09-30T00:00:00	2024-11-08T04:00:00	1	Precipitación	0
120272	7	Sololá	704	Santa Lucía Utatlán 	7	Santa Rita 	9	Septiembre	2023-09-30T00:00:00	2024-11-08T04:00:00	8	Radiación solar	0
120273	7	Sololá	704	Santa Lucía Utatlán 	7	Santa Rita 	9	Septiembre	2023-09-30T00:00:00	2024-11-08T05:00:00	2	Temperatura media	23.6
120274	7	Sololá	704	Santa Lucía Utatlán 	7	Santa Rita 	9	Septiembre	2023-09-30T00:00:00	2024-11-08T05:00:00	4	Temperatura máxima	23.6
120275	7	Sololá	704	Santa Lucía Utatlán 	7	Santa Rita 	9	Septiembre	2023-09-30T00:00:00	2024-11-08T05:00:00	3	Temperatura mínima	22.3
120276	7	Sololá	704	Santa Lucía Utatlán 	7	Santa Rita 	9	Septiembre	2023-09-30T00:00:00	2024-11-08T05:00:00	5	Humedad	81
120277	7	Sololá	704	Santa Lucía Utatlán 	7	Santa Rita 	9	Septiembre	2023-09-30T00:00:00	2024-11-08T05:00:00	6	Velocidad del viento	3.2
120278	7	Sololá	704	Santa Lucía Utatlán 	7	Santa Rita 	9	Septiembre	2023-09-30T00:00:00	2024-11-08T05:00:00	7	Dirección del viento	3.22
120279	7	Sololá	704	Santa Lucía Utatlán 	7	Santa Rita 	9	Septiembre	2023-09-30T00:00:00	2024-11-08T05:00:00	1	Precipitación	0
120280	7	Sololá	704	Santa Lucía Utatlán 	7	Santa Rita 	9	Septiembre	2023-09-30T00:00:00	2024-11-08T05:00:00	8	Radiación solar	0
120281	7	Sololá	704	Santa Lucía Utatlán 	7	Santa Rita 	9	Septiembre	2023-09-30T00:00:00	2024-11-08T06:00:00	2	Temperatura media	24.7
120282	7	Sololá	704	Santa Lucía Utatlán 	7	Santa Rita 	9	Septiembre	2023-09-30T00:00:00	2024-11-08T06:00:00	4	Temperatura máxima	24.7
120283	7	Sololá	704	Santa Lucía Utatlán 	7	Santa Rita 	9	Septiembre	2023-09-30T00:00:00	2024-11-08T06:00:00	3	Temperatura mínima	23.6
120284	7	Sololá	704	Santa Lucía Utatlán 	7	Santa Rita 	9	Septiembre	2023-09-30T00:00:00	2024-11-08T06:00:00	5	Humedad	72
120285	7	Sololá	704	Santa Lucía Utatlán 	7	Santa Rita 	9	Septiembre	2023-09-30T00:00:00	2024-11-08T06:00:00	6	Velocidad del viento	4.8
120286	7	Sololá	704	Santa Lucía Utatlán 	7	Santa Rita 	9	Septiembre	2023-09-30T00:00:00	2024-11-08T06:00:00	7	Dirección del viento	4.83
120287	7	Sololá	704	Santa Lucía Utatlán 	7	Santa Rita 	9	Septiembre	2023-09-30T00:00:00	2024-11-08T06:00:00	1	Precipitación	0
120288	7	Sololá	704	Santa Lucía Utatlán 	7	Santa Rita 	9	Septiembre	2023-09-30T00:00:00	2024-11-08T06:00:00	8	Radiación solar	60
120289	7	Sololá	704	Santa Lucía Utatlán 	7	Santa Rita 	9	Septiembre	2023-09-30T00:00:00	2024-11-08T07:00:00	2	Temperatura media	25.1
120290	7	Sololá	704	Santa Lucía Utatlán 	7	Santa Rita 	9	Septiembre	2023-09-30T00:00:00	2024-11-08T07:00:00	4	Temperatura máxima	25.6
120291	7	Sololá	704	Santa Lucía Utatlán 	7	Santa Rita 	9	Septiembre	2023-09-30T00:00:00	2024-11-08T07:00:00	3	Temperatura mínima	24.6
120292	7	Sololá	704	Santa Lucía Utatlán 	7	Santa Rita 	9	Septiembre	2023-09-30T00:00:00	2024-11-08T07:00:00	5	Humedad	75
120293	7	Sololá	704	Santa Lucía Utatlán 	7	Santa Rita 	9	Septiembre	2023-09-30T00:00:00	2024-11-08T07:00:00	6	Velocidad del viento	9.7
120294	7	Sololá	704	Santa Lucía Utatlán 	7	Santa Rita 	9	Septiembre	2023-09-30T00:00:00	2024-11-08T07:00:00	7	Dirección del viento	9.66
120295	7	Sololá	704	Santa Lucía Utatlán 	7	Santa Rita 	9	Septiembre	2023-09-30T00:00:00	2024-11-08T07:00:00	1	Precipitación	0
120296	7	Sololá	704	Santa Lucía Utatlán 	7	Santa Rita 	9	Septiembre	2023-09-30T00:00:00	2024-11-08T07:00:00	8	Radiación solar	271
120297	7	Sololá	704	Santa Lucía Utatlán 	7	Santa Rita 	9	Septiembre	2023-09-30T00:00:00	2024-11-08T08:00:00	2	Temperatura media	25.4
120298	7	Sololá	704	Santa Lucía Utatlán 	7	Santa Rita 	9	Septiembre	2023-09-30T00:00:00	2024-11-08T08:00:00	4	Temperatura máxima	25.9
120299	7	Sololá	704	Santa Lucía Utatlán 	7	Santa Rita 	9	Septiembre	2023-09-30T00:00:00	2024-11-08T08:00:00	3	Temperatura mínima	24.7
120300	7	Sololá	704	Santa Lucía Utatlán 	7	Santa Rita 	9	Septiembre	2023-09-30T00:00:00	2024-11-08T08:00:00	5	Humedad	67
120301	7	Sololá	704	Santa Lucía Utatlán 	7	Santa Rita 	9	Septiembre	2023-09-30T00:00:00	2024-11-08T08:00:00	6	Velocidad del viento	11.3
120302	7	Sololá	704	Santa Lucía Utatlán 	7	Santa Rita 	9	Septiembre	2023-09-30T00:00:00	2024-11-08T08:00:00	7	Dirección del viento	11.27
120303	7	Sololá	704	Santa Lucía Utatlán 	7	Santa Rita 	9	Septiembre	2023-09-30T00:00:00	2024-11-08T08:00:00	1	Precipitación	0
120304	7	Sololá	704	Santa Lucía Utatlán 	7	Santa Rita 	9	Septiembre	2023-09-30T00:00:00	2024-11-08T08:00:00	8	Radiación solar	453
120305	7	Sololá	704	Santa Lucía Utatlán 	7	Santa Rita 	9	Septiembre	2023-09-30T00:00:00	2024-11-08T09:00:00	2	Temperatura media	25.6
120306	7	Sololá	704	Santa Lucía Utatlán 	7	Santa Rita 	9	Septiembre	2023-09-30T00:00:00	2024-11-08T09:00:00	4	Temperatura máxima	26.7
120307	7	Sololá	704	Santa Lucía Utatlán 	7	Santa Rita 	9	Septiembre	2023-09-30T00:00:00	2024-11-08T09:00:00	3	Temperatura mínima	25.4
120308	7	Sololá	704	Santa Lucía Utatlán 	7	Santa Rita 	9	Septiembre	2023-09-30T00:00:00	2024-11-08T09:00:00	5	Humedad	69
120309	7	Sololá	704	Santa Lucía Utatlán 	7	Santa Rita 	9	Septiembre	2023-09-30T00:00:00	2024-11-08T09:00:00	6	Velocidad del viento	9.7
120310	7	Sololá	704	Santa Lucía Utatlán 	7	Santa Rita 	9	Septiembre	2023-09-30T00:00:00	2024-11-08T09:00:00	7	Dirección del viento	9.66
120311	7	Sololá	704	Santa Lucía Utatlán 	7	Santa Rita 	9	Septiembre	2023-09-30T00:00:00	2024-11-08T09:00:00	1	Precipitación	0
120312	7	Sololá	704	Santa Lucía Utatlán 	7	Santa Rita 	9	Septiembre	2023-09-30T00:00:00	2024-11-08T09:00:00	8	Radiación solar	554
120313	7	Sololá	704	Santa Lucía Utatlán 	7	Santa Rita 	9	Septiembre	2023-09-30T00:00:00	2024-11-08T10:00:00	2	Temperatura media	24.3
120314	7	Sololá	704	Santa Lucía Utatlán 	7	Santa Rita 	9	Septiembre	2023-09-30T00:00:00	2024-11-08T10:00:00	4	Temperatura máxima	25.9
120315	7	Sololá	704	Santa Lucía Utatlán 	7	Santa Rita 	9	Septiembre	2023-09-30T00:00:00	2024-11-08T10:00:00	3	Temperatura mínima	24.1
120316	7	Sololá	704	Santa Lucía Utatlán 	7	Santa Rita 	9	Septiembre	2023-09-30T00:00:00	2024-11-08T10:00:00	5	Humedad	81
120317	7	Sololá	704	Santa Lucía Utatlán 	7	Santa Rita 	9	Septiembre	2023-09-30T00:00:00	2024-11-08T10:00:00	6	Velocidad del viento	8
120318	7	Sololá	704	Santa Lucía Utatlán 	7	Santa Rita 	9	Septiembre	2023-09-30T00:00:00	2024-11-08T10:00:00	7	Dirección del viento	8.05
120319	7	Sololá	704	Santa Lucía Utatlán 	7	Santa Rita 	9	Septiembre	2023-09-30T00:00:00	2024-11-08T10:00:00	1	Precipitación	0
120320	7	Sololá	704	Santa Lucía Utatlán 	7	Santa Rita 	9	Septiembre	2023-09-30T00:00:00	2024-11-08T10:00:00	8	Radiación solar	853
120321	7	Sololá	704	Santa Lucía Utatlán 	7	Santa Rita 	9	Septiembre	2023-09-30T00:00:00	2024-11-08T11:00:00	2	Temperatura media	22.1
120322	7	Sololá	704	Santa Lucía Utatlán 	7	Santa Rita 	9	Septiembre	2023-09-30T00:00:00	2024-11-08T11:00:00	4	Temperatura máxima	24.3
120323	7	Sololá	704	Santa Lucía Utatlán 	7	Santa Rita 	9	Septiembre	2023-09-30T00:00:00	2024-11-08T11:00:00	3	Temperatura mínima	22.1
120324	7	Sololá	704	Santa Lucía Utatlán 	7	Santa Rita 	9	Septiembre	2023-09-30T00:00:00	2024-11-08T11:00:00	5	Humedad	85
120325	7	Sololá	704	Santa Lucía Utatlán 	7	Santa Rita 	9	Septiembre	2023-09-30T00:00:00	2024-11-08T11:00:00	6	Velocidad del viento	3.2
120326	7	Sololá	704	Santa Lucía Utatlán 	7	Santa Rita 	9	Septiembre	2023-09-30T00:00:00	2024-11-08T11:00:00	7	Dirección del viento	3.22
120327	7	Sololá	704	Santa Lucía Utatlán 	7	Santa Rita 	9	Septiembre	2023-09-30T00:00:00	2024-11-08T11:00:00	1	Precipitación	0
120328	7	Sololá	704	Santa Lucía Utatlán 	7	Santa Rita 	9	Septiembre	2023-09-30T00:00:00	2024-11-08T11:00:00	8	Radiación solar	949
120329	7	Sololá	704	Santa Lucía Utatlán 	7	Santa Rita 	9	Septiembre	2023-09-30T00:00:00	2024-11-08T12:00:00	2	Temperatura media	22.8
120330	7	Sololá	704	Santa Lucía Utatlán 	7	Santa Rita 	9	Septiembre	2023-09-30T00:00:00	2024-11-08T12:00:00	4	Temperatura máxima	22.8
120331	7	Sololá	704	Santa Lucía Utatlán 	7	Santa Rita 	9	Septiembre	2023-09-30T00:00:00	2024-11-08T12:00:00	3	Temperatura mínima	22.1
120332	7	Sololá	704	Santa Lucía Utatlán 	7	Santa Rita 	9	Septiembre	2023-09-30T00:00:00	2024-11-08T12:00:00	5	Humedad	84
120333	7	Sololá	704	Santa Lucía Utatlán 	7	Santa Rita 	9	Septiembre	2023-09-30T00:00:00	2024-11-08T12:00:00	6	Velocidad del viento	1.6
120334	7	Sololá	704	Santa Lucía Utatlán 	7	Santa Rita 	9	Septiembre	2023-09-30T00:00:00	2024-11-08T12:00:00	7	Dirección del viento	1.61
120335	7	Sololá	704	Santa Lucía Utatlán 	7	Santa Rita 	9	Septiembre	2023-09-30T00:00:00	2024-11-08T12:00:00	1	Precipitación	0
120336	7	Sololá	704	Santa Lucía Utatlán 	7	Santa Rita 	9	Septiembre	2023-09-30T00:00:00	2024-11-08T12:00:00	8	Radiación solar	761
120337	7	Sololá	704	Santa Lucía Utatlán 	7	Santa Rita 	9	Septiembre	2023-09-30T00:00:00	2024-11-08T13:00:00	2	Temperatura media	22.7
120338	7	Sololá	704	Santa Lucía Utatlán 	7	Santa Rita 	9	Septiembre	2023-09-30T00:00:00	2024-11-08T13:00:00	4	Temperatura máxima	23
120339	7	Sololá	704	Santa Lucía Utatlán 	7	Santa Rita 	9	Septiembre	2023-09-30T00:00:00	2024-11-08T13:00:00	3	Temperatura mínima	22.7
120340	7	Sololá	704	Santa Lucía Utatlán 	7	Santa Rita 	9	Septiembre	2023-09-30T00:00:00	2024-11-08T13:00:00	5	Humedad	86
120341	7	Sololá	704	Santa Lucía Utatlán 	7	Santa Rita 	9	Septiembre	2023-09-30T00:00:00	2024-11-08T13:00:00	6	Velocidad del viento	1.6
120342	7	Sololá	704	Santa Lucía Utatlán 	7	Santa Rita 	9	Septiembre	2023-09-30T00:00:00	2024-11-08T13:00:00	7	Dirección del viento	1.61
120343	7	Sololá	704	Santa Lucía Utatlán 	7	Santa Rita 	9	Septiembre	2023-09-30T00:00:00	2024-11-08T13:00:00	1	Precipitación	0
120344	7	Sololá	704	Santa Lucía Utatlán 	7	Santa Rita 	9	Septiembre	2023-09-30T00:00:00	2024-11-08T13:00:00	8	Radiación solar	415
120345	7	Sololá	704	Santa Lucía Utatlán 	7	Santa Rita 	9	Septiembre	2023-09-30T00:00:00	2024-11-08T14:00:00	2	Temperatura media	21.9
120346	7	Sololá	704	Santa Lucía Utatlán 	7	Santa Rita 	9	Septiembre	2023-09-30T00:00:00	2024-11-08T14:00:00	4	Temperatura máxima	22.7
120347	7	Sololá	704	Santa Lucía Utatlán 	7	Santa Rita 	9	Septiembre	2023-09-30T00:00:00	2024-11-08T14:00:00	3	Temperatura mínima	21.9
120348	7	Sololá	704	Santa Lucía Utatlán 	7	Santa Rita 	9	Septiembre	2023-09-30T00:00:00	2024-11-08T14:00:00	5	Humedad	90
120349	7	Sololá	704	Santa Lucía Utatlán 	7	Santa Rita 	9	Septiembre	2023-09-30T00:00:00	2024-11-08T14:00:00	6	Velocidad del viento	0
120350	7	Sololá	704	Santa Lucía Utatlán 	7	Santa Rita 	9	Septiembre	2023-09-30T00:00:00	2024-11-08T14:00:00	7	Dirección del viento	0
120351	7	Sololá	704	Santa Lucía Utatlán 	7	Santa Rita 	9	Septiembre	2023-09-30T00:00:00	2024-11-08T14:00:00	1	Precipitación	0
120352	7	Sololá	704	Santa Lucía Utatlán 	7	Santa Rita 	9	Septiembre	2023-09-30T00:00:00	2024-11-08T14:00:00	8	Radiación solar	131
120353	7	Sololá	704	Santa Lucía Utatlán 	7	Santa Rita 	9	Septiembre	2023-09-30T00:00:00	2024-11-08T15:00:00	2	Temperatura media	20.3
120354	7	Sololá	704	Santa Lucía Utatlán 	7	Santa Rita 	9	Septiembre	2023-09-30T00:00:00	2024-11-08T15:00:00	4	Temperatura máxima	21.9
120355	7	Sololá	704	Santa Lucía Utatlán 	7	Santa Rita 	9	Septiembre	2023-09-30T00:00:00	2024-11-08T15:00:00	3	Temperatura mínima	20.3
120356	7	Sololá	704	Santa Lucía Utatlán 	7	Santa Rita 	9	Septiembre	2023-09-30T00:00:00	2024-11-08T15:00:00	5	Humedad	93
120357	7	Sololá	704	Santa Lucía Utatlán 	7	Santa Rita 	9	Septiembre	2023-09-30T00:00:00	2024-11-08T15:00:00	6	Velocidad del viento	1.6
120358	7	Sololá	704	Santa Lucía Utatlán 	7	Santa Rita 	9	Septiembre	2023-09-30T00:00:00	2024-11-08T15:00:00	7	Dirección del viento	1.61
120359	7	Sololá	704	Santa Lucía Utatlán 	7	Santa Rita 	9	Septiembre	2023-09-30T00:00:00	2024-11-08T15:00:00	1	Precipitación	0
120360	7	Sololá	704	Santa Lucía Utatlán 	7	Santa Rita 	9	Septiembre	2023-09-30T00:00:00	2024-11-08T15:00:00	8	Radiación solar	132
120361	7	Sololá	704	Santa Lucía Utatlán 	7	Santa Rita 	9	Septiembre	2023-09-30T00:00:00	2024-11-08T16:00:00	2	Temperatura media	20.3
120362	7	Sololá	704	Santa Lucía Utatlán 	7	Santa Rita 	9	Septiembre	2023-09-30T00:00:00	2024-11-08T16:00:00	4	Temperatura máxima	20.6
120363	7	Sololá	704	Santa Lucía Utatlán 	7	Santa Rita 	9	Septiembre	2023-09-30T00:00:00	2024-11-08T16:00:00	3	Temperatura mínima	20.3
120364	7	Sololá	704	Santa Lucía Utatlán 	7	Santa Rita 	9	Septiembre	2023-09-30T00:00:00	2024-11-08T16:00:00	5	Humedad	94
120365	7	Sololá	704	Santa Lucía Utatlán 	7	Santa Rita 	9	Septiembre	2023-09-30T00:00:00	2024-11-08T16:00:00	6	Velocidad del viento	1.6
120366	7	Sololá	704	Santa Lucía Utatlán 	7	Santa Rita 	9	Septiembre	2023-09-30T00:00:00	2024-11-08T16:00:00	7	Dirección del viento	1.61
120367	7	Sololá	704	Santa Lucía Utatlán 	7	Santa Rita 	9	Septiembre	2023-09-30T00:00:00	2024-11-08T16:00:00	1	Precipitación	0
120368	7	Sololá	704	Santa Lucía Utatlán 	7	Santa Rita 	9	Septiembre	2023-09-30T00:00:00	2024-11-08T16:00:00	8	Radiación solar	123
120369	7	Sololá	704	Santa Lucía Utatlán 	7	Santa Rita 	9	Septiembre	2023-09-30T00:00:00	2024-11-08T17:00:00	2	Temperatura media	20
120370	7	Sololá	704	Santa Lucía Utatlán 	7	Santa Rita 	9	Septiembre	2023-09-30T00:00:00	2024-11-08T17:00:00	4	Temperatura máxima	20.3
120371	7	Sololá	704	Santa Lucía Utatlán 	7	Santa Rita 	9	Septiembre	2023-09-30T00:00:00	2024-11-08T17:00:00	3	Temperatura mínima	20
120372	7	Sololá	704	Santa Lucía Utatlán 	7	Santa Rita 	9	Septiembre	2023-09-30T00:00:00	2024-11-08T17:00:00	5	Humedad	95
120373	7	Sololá	704	Santa Lucía Utatlán 	7	Santa Rita 	9	Septiembre	2023-09-30T00:00:00	2024-11-08T17:00:00	6	Velocidad del viento	1.6
120374	7	Sololá	704	Santa Lucía Utatlán 	7	Santa Rita 	9	Septiembre	2023-09-30T00:00:00	2024-11-08T17:00:00	7	Dirección del viento	1.61
120375	7	Sololá	704	Santa Lucía Utatlán 	7	Santa Rita 	9	Septiembre	2023-09-30T00:00:00	2024-11-08T17:00:00	1	Precipitación	4
120376	7	Sololá	704	Santa Lucía Utatlán 	7	Santa Rita 	9	Septiembre	2023-09-30T00:00:00	2024-11-08T17:00:00	8	Radiación solar	28
120377	7	Sololá	704	Santa Lucía Utatlán 	7	Santa Rita 	9	Septiembre	2023-09-30T00:00:00	2024-11-08T18:00:00	2	Temperatura media	19.1
120378	7	Sololá	704	Santa Lucía Utatlán 	7	Santa Rita 	9	Septiembre	2023-09-30T00:00:00	2024-11-08T18:00:00	4	Temperatura máxima	20
120379	7	Sololá	704	Santa Lucía Utatlán 	7	Santa Rita 	9	Septiembre	2023-09-30T00:00:00	2024-11-08T18:00:00	3	Temperatura mínima	19
120380	7	Sololá	704	Santa Lucía Utatlán 	7	Santa Rita 	9	Septiembre	2023-09-30T00:00:00	2024-11-08T18:00:00	5	Humedad	95
120381	7	Sololá	704	Santa Lucía Utatlán 	7	Santa Rita 	9	Septiembre	2023-09-30T00:00:00	2024-11-08T18:00:00	6	Velocidad del viento	1.6
120382	7	Sololá	704	Santa Lucía Utatlán 	7	Santa Rita 	9	Septiembre	2023-09-30T00:00:00	2024-11-08T18:00:00	7	Dirección del viento	1.61
120383	7	Sololá	704	Santa Lucía Utatlán 	7	Santa Rita 	9	Septiembre	2023-09-30T00:00:00	2024-11-08T18:00:00	1	Precipitación	3.4
120384	7	Sololá	704	Santa Lucía Utatlán 	7	Santa Rita 	9	Septiembre	2023-09-30T00:00:00	2024-11-08T18:00:00	8	Radiación solar	0
120385	7	Sololá	704	Santa Lucía Utatlán 	7	Santa Rita 	9	Septiembre	2023-09-30T00:00:00	2024-11-08T19:00:00	2	Temperatura media	18.7
120386	7	Sololá	704	Santa Lucía Utatlán 	7	Santa Rita 	9	Septiembre	2023-09-30T00:00:00	2024-11-08T19:00:00	4	Temperatura máxima	19.1
120387	7	Sololá	704	Santa Lucía Utatlán 	7	Santa Rita 	9	Septiembre	2023-09-30T00:00:00	2024-11-08T19:00:00	3	Temperatura mínima	18.7
120388	7	Sololá	704	Santa Lucía Utatlán 	7	Santa Rita 	9	Septiembre	2023-09-30T00:00:00	2024-11-08T19:00:00	5	Humedad	96
120389	7	Sololá	704	Santa Lucía Utatlán 	7	Santa Rita 	9	Septiembre	2023-09-30T00:00:00	2024-11-08T19:00:00	6	Velocidad del viento	1.6
120390	7	Sololá	704	Santa Lucía Utatlán 	7	Santa Rita 	9	Septiembre	2023-09-30T00:00:00	2024-11-08T19:00:00	7	Dirección del viento	1.61
120391	7	Sololá	704	Santa Lucía Utatlán 	7	Santa Rita 	9	Septiembre	2023-09-30T00:00:00	2024-11-08T19:00:00	1	Precipitación	0.4
120392	7	Sololá	704	Santa Lucía Utatlán 	7	Santa Rita 	9	Septiembre	2023-09-30T00:00:00	2024-11-08T19:00:00	8	Radiación solar	0
120393	7	Sololá	704	Santa Lucía Utatlán 	7	Santa Rita 	9	Septiembre	2023-09-30T00:00:00	2024-11-08T20:00:00	2	Temperatura media	18.5
120394	7	Sololá	704	Santa Lucía Utatlán 	7	Santa Rita 	9	Septiembre	2023-09-30T00:00:00	2024-11-08T20:00:00	4	Temperatura máxima	18.8
120395	7	Sololá	704	Santa Lucía Utatlán 	7	Santa Rita 	9	Septiembre	2023-09-30T00:00:00	2024-11-08T20:00:00	3	Temperatura mínima	18.5
120396	7	Sololá	704	Santa Lucía Utatlán 	7	Santa Rita 	9	Septiembre	2023-09-30T00:00:00	2024-11-08T20:00:00	5	Humedad	96
120397	7	Sololá	704	Santa Lucía Utatlán 	7	Santa Rita 	9	Septiembre	2023-09-30T00:00:00	2024-11-08T20:00:00	6	Velocidad del viento	1.6
120398	7	Sololá	704	Santa Lucía Utatlán 	7	Santa Rita 	9	Septiembre	2023-09-30T00:00:00	2024-11-08T20:00:00	7	Dirección del viento	1.61
120399	7	Sololá	704	Santa Lucía Utatlán 	7	Santa Rita 	9	Septiembre	2023-09-30T00:00:00	2024-11-08T20:00:00	1	Precipitación	0
120400	7	Sololá	704	Santa Lucía Utatlán 	7	Santa Rita 	9	Septiembre	2023-09-30T00:00:00	2024-11-08T20:00:00	8	Radiación solar	0
120401	7	Sololá	704	Santa Lucía Utatlán 	7	Santa Rita 	9	Septiembre	2023-09-30T00:00:00	2024-11-08T21:00:00	2	Temperatura media	18.3
120402	7	Sololá	704	Santa Lucía Utatlán 	7	Santa Rita 	9	Septiembre	2023-09-30T00:00:00	2024-11-08T21:00:00	4	Temperatura máxima	18.6
120403	7	Sololá	704	Santa Lucía Utatlán 	7	Santa Rita 	9	Septiembre	2023-09-30T00:00:00	2024-11-08T21:00:00	3	Temperatura mínima	18.3
120404	7	Sololá	704	Santa Lucía Utatlán 	7	Santa Rita 	9	Septiembre	2023-09-30T00:00:00	2024-11-08T21:00:00	5	Humedad	96
120405	7	Sololá	704	Santa Lucía Utatlán 	7	Santa Rita 	9	Septiembre	2023-09-30T00:00:00	2024-11-08T21:00:00	6	Velocidad del viento	1.6
120406	7	Sololá	704	Santa Lucía Utatlán 	7	Santa Rita 	9	Septiembre	2023-09-30T00:00:00	2024-11-08T21:00:00	7	Dirección del viento	1.61
120407	7	Sololá	704	Santa Lucía Utatlán 	7	Santa Rita 	9	Septiembre	2023-09-30T00:00:00	2024-11-08T21:00:00	1	Precipitación	0
120408	7	Sololá	704	Santa Lucía Utatlán 	7	Santa Rita 	9	Septiembre	2023-09-30T00:00:00	2024-11-08T21:00:00	8	Radiación solar	0
120409	7	Sololá	704	Santa Lucía Utatlán 	7	Santa Rita 	9	Septiembre	2023-09-30T00:00:00	2024-11-08T22:00:00	2	Temperatura media	18.4
120410	7	Sololá	704	Santa Lucía Utatlán 	7	Santa Rita 	9	Septiembre	2023-09-30T00:00:00	2024-11-08T22:00:00	4	Temperatura máxima	18.4
120411	7	Sololá	704	Santa Lucía Utatlán 	7	Santa Rita 	9	Septiembre	2023-09-30T00:00:00	2024-11-08T22:00:00	3	Temperatura mínima	17.8
120412	7	Sololá	704	Santa Lucía Utatlán 	7	Santa Rita 	9	Septiembre	2023-09-30T00:00:00	2024-11-08T22:00:00	5	Humedad	92
120413	7	Sololá	704	Santa Lucía Utatlán 	7	Santa Rita 	9	Septiembre	2023-09-30T00:00:00	2024-11-08T22:00:00	6	Velocidad del viento	1.6
120414	7	Sololá	704	Santa Lucía Utatlán 	7	Santa Rita 	9	Septiembre	2023-09-30T00:00:00	2024-11-08T22:00:00	7	Dirección del viento	1.61
120415	7	Sololá	704	Santa Lucía Utatlán 	7	Santa Rita 	9	Septiembre	2023-09-30T00:00:00	2024-11-08T22:00:00	1	Precipitación	0
120416	7	Sololá	704	Santa Lucía Utatlán 	7	Santa Rita 	9	Septiembre	2023-09-30T00:00:00	2024-11-08T22:00:00	8	Radiación solar	0
120417	7	Sololá	704	Santa Lucía Utatlán 	7	Santa Rita 	9	Septiembre	2023-09-30T00:00:00	2024-11-08T23:00:00	2	Temperatura media	16.9
120418	7	Sololá	704	Santa Lucía Utatlán 	7	Santa Rita 	9	Septiembre	2023-09-30T00:00:00	2024-11-08T23:00:00	4	Temperatura máxima	18.4
120419	7	Sololá	704	Santa Lucía Utatlán 	7	Santa Rita 	9	Septiembre	2023-09-30T00:00:00	2024-11-08T23:00:00	3	Temperatura mínima	16.9
120420	7	Sololá	704	Santa Lucía Utatlán 	7	Santa Rita 	9	Septiembre	2023-09-30T00:00:00	2024-11-08T23:00:00	5	Humedad	94
120421	7	Sololá	704	Santa Lucía Utatlán 	7	Santa Rita 	9	Septiembre	2023-09-30T00:00:00	2024-11-08T23:00:00	6	Velocidad del viento	3.2
120422	7	Sololá	704	Santa Lucía Utatlán 	7	Santa Rita 	9	Septiembre	2023-09-30T00:00:00	2024-11-08T23:00:00	7	Dirección del viento	3.22
120423	7	Sololá	704	Santa Lucía Utatlán 	7	Santa Rita 	9	Septiembre	2023-09-30T00:00:00	2024-11-08T23:00:00	1	Precipitación	0
120424	7	Sololá	704	Santa Lucía Utatlán 	7	Santa Rita 	9	Septiembre	2023-09-30T00:00:00	2024-11-08T23:00:00	8	Radiación solar	0
120425	7	Sololá	704	Santa Lucía Utatlán 	7	Santa Rita 	10	Octubre	2023-01-10T00:00:00	2024-11-08T00:00:00	2	Temperatura media	17.3
120426	7	Sololá	704	Santa Lucía Utatlán 	7	Santa Rita 	10	Octubre	2023-01-10T00:00:00	2024-11-08T00:00:00	4	Temperatura máxima	17.3
120427	7	Sololá	704	Santa Lucía Utatlán 	7	Santa Rita 	10	Octubre	2023-01-10T00:00:00	2024-11-08T00:00:00	3	Temperatura mínima	16.6
120428	7	Sololá	704	Santa Lucía Utatlán 	7	Santa Rita 	10	Octubre	2023-01-10T00:00:00	2024-11-08T00:00:00	5	Humedad	91
120429	7	Sololá	704	Santa Lucía Utatlán 	7	Santa Rita 	10	Octubre	2023-01-10T00:00:00	2024-11-08T00:00:00	6	Velocidad del viento	3.2
120430	7	Sololá	704	Santa Lucía Utatlán 	7	Santa Rita 	10	Octubre	2023-01-10T00:00:00	2024-11-08T00:00:00	7	Dirección del viento	3.22
120431	7	Sololá	704	Santa Lucía Utatlán 	7	Santa Rita 	10	Octubre	2023-01-10T00:00:00	2024-11-08T00:00:00	1	Precipitación	0
120432	7	Sololá	704	Santa Lucía Utatlán 	7	Santa Rita 	10	Octubre	2023-01-10T00:00:00	2024-11-08T00:00:00	8	Radiación solar	0
120433	7	Sololá	704	Santa Lucía Utatlán 	7	Santa Rita 	10	Octubre	2023-01-10T00:00:00	2024-11-08T01:00:00	2	Temperatura media	16.5
120434	7	Sololá	704	Santa Lucía Utatlán 	7	Santa Rita 	10	Octubre	2023-01-10T00:00:00	2024-11-08T01:00:00	4	Temperatura máxima	17.3
120435	7	Sololá	704	Santa Lucía Utatlán 	7	Santa Rita 	10	Octubre	2023-01-10T00:00:00	2024-11-08T01:00:00	3	Temperatura mínima	16.1
120436	7	Sololá	704	Santa Lucía Utatlán 	7	Santa Rita 	10	Octubre	2023-01-10T00:00:00	2024-11-08T01:00:00	5	Humedad	92
120437	7	Sololá	704	Santa Lucía Utatlán 	7	Santa Rita 	10	Octubre	2023-01-10T00:00:00	2024-11-08T01:00:00	6	Velocidad del viento	1.6
120438	7	Sololá	704	Santa Lucía Utatlán 	7	Santa Rita 	10	Octubre	2023-01-10T00:00:00	2024-11-08T01:00:00	7	Dirección del viento	1.61
120439	7	Sololá	704	Santa Lucía Utatlán 	7	Santa Rita 	10	Octubre	2023-01-10T00:00:00	2024-11-08T01:00:00	1	Precipitación	0
120440	7	Sololá	704	Santa Lucía Utatlán 	7	Santa Rita 	10	Octubre	2023-01-10T00:00:00	2024-11-08T01:00:00	8	Radiación solar	0
120441	7	Sololá	704	Santa Lucía Utatlán 	7	Santa Rita 	10	Octubre	2023-01-10T00:00:00	2024-11-08T02:00:00	2	Temperatura media	16.4
120442	7	Sololá	704	Santa Lucía Utatlán 	7	Santa Rita 	10	Octubre	2023-01-10T00:00:00	2024-11-08T02:00:00	4	Temperatura máxima	16.6
120443	7	Sololá	704	Santa Lucía Utatlán 	7	Santa Rita 	10	Octubre	2023-01-10T00:00:00	2024-11-08T02:00:00	3	Temperatura mínima	16.1
120444	7	Sololá	704	Santa Lucía Utatlán 	7	Santa Rita 	10	Octubre	2023-01-10T00:00:00	2024-11-08T02:00:00	5	Humedad	92
120445	7	Sololá	704	Santa Lucía Utatlán 	7	Santa Rita 	10	Octubre	2023-01-10T00:00:00	2024-11-08T02:00:00	6	Velocidad del viento	3.2
120446	7	Sololá	704	Santa Lucía Utatlán 	7	Santa Rita 	10	Octubre	2023-01-10T00:00:00	2024-11-08T02:00:00	7	Dirección del viento	3.22
120447	7	Sololá	704	Santa Lucía Utatlán 	7	Santa Rita 	10	Octubre	2023-01-10T00:00:00	2024-11-08T02:00:00	1	Precipitación	0
120448	7	Sololá	704	Santa Lucía Utatlán 	7	Santa Rita 	10	Octubre	2023-01-10T00:00:00	2024-11-08T02:00:00	8	Radiación solar	0
120449	7	Sololá	704	Santa Lucía Utatlán 	7	Santa Rita 	10	Octubre	2023-01-10T00:00:00	2024-11-08T03:00:00	2	Temperatura media	18.3
120450	7	Sololá	704	Santa Lucía Utatlán 	7	Santa Rita 	10	Octubre	2023-01-10T00:00:00	2024-11-08T03:00:00	4	Temperatura máxima	18.3
120451	7	Sololá	704	Santa Lucía Utatlán 	7	Santa Rita 	10	Octubre	2023-01-10T00:00:00	2024-11-08T03:00:00	3	Temperatura mínima	16.4
120452	7	Sololá	704	Santa Lucía Utatlán 	7	Santa Rita 	10	Octubre	2023-01-10T00:00:00	2024-11-08T03:00:00	5	Humedad	86
120453	7	Sololá	704	Santa Lucía Utatlán 	7	Santa Rita 	10	Octubre	2023-01-10T00:00:00	2024-11-08T03:00:00	6	Velocidad del viento	1.6
120454	7	Sololá	704	Santa Lucía Utatlán 	7	Santa Rita 	10	Octubre	2023-01-10T00:00:00	2024-11-08T03:00:00	7	Dirección del viento	1.61
120455	7	Sololá	704	Santa Lucía Utatlán 	7	Santa Rita 	10	Octubre	2023-01-10T00:00:00	2024-11-08T03:00:00	1	Precipitación	0
120456	7	Sololá	704	Santa Lucía Utatlán 	7	Santa Rita 	10	Octubre	2023-01-10T00:00:00	2024-11-08T03:00:00	8	Radiación solar	0
120457	7	Sololá	704	Santa Lucía Utatlán 	7	Santa Rita 	10	Octubre	2023-01-10T00:00:00	2024-11-08T04:00:00	2	Temperatura media	22.2
120458	7	Sololá	704	Santa Lucía Utatlán 	7	Santa Rita 	10	Octubre	2023-01-10T00:00:00	2024-11-08T04:00:00	4	Temperatura máxima	22.2
120459	7	Sololá	704	Santa Lucía Utatlán 	7	Santa Rita 	10	Octubre	2023-01-10T00:00:00	2024-11-08T04:00:00	3	Temperatura mínima	18.3
120460	7	Sololá	704	Santa Lucía Utatlán 	7	Santa Rita 	10	Octubre	2023-01-10T00:00:00	2024-11-08T04:00:00	5	Humedad	77
120461	7	Sololá	704	Santa Lucía Utatlán 	7	Santa Rita 	10	Octubre	2023-01-10T00:00:00	2024-11-08T04:00:00	6	Velocidad del viento	1.6
120462	7	Sololá	704	Santa Lucía Utatlán 	7	Santa Rita 	10	Octubre	2023-01-10T00:00:00	2024-11-08T04:00:00	7	Dirección del viento	1.61
120463	7	Sololá	704	Santa Lucía Utatlán 	7	Santa Rita 	10	Octubre	2023-01-10T00:00:00	2024-11-08T04:00:00	1	Precipitación	0
120464	7	Sololá	704	Santa Lucía Utatlán 	7	Santa Rita 	10	Octubre	2023-01-10T00:00:00	2024-11-08T04:00:00	8	Radiación solar	0
120465	7	Sololá	704	Santa Lucía Utatlán 	7	Santa Rita 	10	Octubre	2023-01-10T00:00:00	2024-11-08T05:00:00	2	Temperatura media	24.1
120466	7	Sololá	704	Santa Lucía Utatlán 	7	Santa Rita 	10	Octubre	2023-01-10T00:00:00	2024-11-08T05:00:00	4	Temperatura máxima	24.2
120467	7	Sololá	704	Santa Lucía Utatlán 	7	Santa Rita 	10	Octubre	2023-01-10T00:00:00	2024-11-08T05:00:00	3	Temperatura mínima	22.2
120468	7	Sololá	704	Santa Lucía Utatlán 	7	Santa Rita 	10	Octubre	2023-01-10T00:00:00	2024-11-08T05:00:00	5	Humedad	73
120469	7	Sololá	704	Santa Lucía Utatlán 	7	Santa Rita 	10	Octubre	2023-01-10T00:00:00	2024-11-08T05:00:00	6	Velocidad del viento	3.2
120470	7	Sololá	704	Santa Lucía Utatlán 	7	Santa Rita 	10	Octubre	2023-01-10T00:00:00	2024-11-08T05:00:00	7	Dirección del viento	3.22
120471	7	Sololá	704	Santa Lucía Utatlán 	7	Santa Rita 	10	Octubre	2023-01-10T00:00:00	2024-11-08T05:00:00	1	Precipitación	0
120472	7	Sololá	704	Santa Lucía Utatlán 	7	Santa Rita 	10	Octubre	2023-01-10T00:00:00	2024-11-08T05:00:00	8	Radiación solar	0
120473	7	Sololá	704	Santa Lucía Utatlán 	7	Santa Rita 	10	Octubre	2023-01-10T00:00:00	2024-11-08T06:00:00	2	Temperatura media	25.3
120474	7	Sololá	704	Santa Lucía Utatlán 	7	Santa Rita 	10	Octubre	2023-01-10T00:00:00	2024-11-08T06:00:00	4	Temperatura máxima	25.4
120475	7	Sololá	704	Santa Lucía Utatlán 	7	Santa Rita 	10	Octubre	2023-01-10T00:00:00	2024-11-08T06:00:00	3	Temperatura mínima	24.1
120476	7	Sololá	704	Santa Lucía Utatlán 	7	Santa Rita 	10	Octubre	2023-01-10T00:00:00	2024-11-08T06:00:00	5	Humedad	70
120477	7	Sololá	704	Santa Lucía Utatlán 	7	Santa Rita 	10	Octubre	2023-01-10T00:00:00	2024-11-08T06:00:00	6	Velocidad del viento	6.4
120478	7	Sololá	704	Santa Lucía Utatlán 	7	Santa Rita 	10	Octubre	2023-01-10T00:00:00	2024-11-08T06:00:00	7	Dirección del viento	6.44
120479	7	Sololá	704	Santa Lucía Utatlán 	7	Santa Rita 	10	Octubre	2023-01-10T00:00:00	2024-11-08T06:00:00	1	Precipitación	0
120480	7	Sololá	704	Santa Lucía Utatlán 	7	Santa Rita 	10	Octubre	2023-01-10T00:00:00	2024-11-08T06:00:00	8	Radiación solar	51
120481	7	Sololá	704	Santa Lucía Utatlán 	7	Santa Rita 	10	Octubre	2023-01-10T00:00:00	2024-11-08T07:00:00	2	Temperatura media	25.8
120482	7	Sololá	704	Santa Lucía Utatlán 	7	Santa Rita 	10	Octubre	2023-01-10T00:00:00	2024-11-08T07:00:00	4	Temperatura máxima	25.9
120483	7	Sololá	704	Santa Lucía Utatlán 	7	Santa Rita 	10	Octubre	2023-01-10T00:00:00	2024-11-08T07:00:00	3	Temperatura mínima	25.1
120484	7	Sololá	704	Santa Lucía Utatlán 	7	Santa Rita 	10	Octubre	2023-01-10T00:00:00	2024-11-08T07:00:00	5	Humedad	66
120485	7	Sololá	704	Santa Lucía Utatlán 	7	Santa Rita 	10	Octubre	2023-01-10T00:00:00	2024-11-08T07:00:00	6	Velocidad del viento	8
120486	7	Sololá	704	Santa Lucía Utatlán 	7	Santa Rita 	10	Octubre	2023-01-10T00:00:00	2024-11-08T07:00:00	7	Dirección del viento	8.05
120487	7	Sololá	704	Santa Lucía Utatlán 	7	Santa Rita 	10	Octubre	2023-01-10T00:00:00	2024-11-08T07:00:00	1	Precipitación	0
120488	7	Sololá	704	Santa Lucía Utatlán 	7	Santa Rita 	10	Octubre	2023-01-10T00:00:00	2024-11-08T07:00:00	8	Radiación solar	314
120489	7	Sololá	704	Santa Lucía Utatlán 	7	Santa Rita 	10	Octubre	2023-01-10T00:00:00	2024-11-08T08:00:00	2	Temperatura media	25.9
120490	7	Sololá	704	Santa Lucía Utatlán 	7	Santa Rita 	10	Octubre	2023-01-10T00:00:00	2024-11-08T08:00:00	4	Temperatura máxima	26.1
120491	7	Sololá	704	Santa Lucía Utatlán 	7	Santa Rita 	10	Octubre	2023-01-10T00:00:00	2024-11-08T08:00:00	3	Temperatura mínima	25.7
120492	7	Sololá	704	Santa Lucía Utatlán 	7	Santa Rita 	10	Octubre	2023-01-10T00:00:00	2024-11-08T08:00:00	5	Humedad	60
120493	7	Sololá	704	Santa Lucía Utatlán 	7	Santa Rita 	10	Octubre	2023-01-10T00:00:00	2024-11-08T08:00:00	6	Velocidad del viento	11.3
120494	7	Sololá	704	Santa Lucía Utatlán 	7	Santa Rita 	10	Octubre	2023-01-10T00:00:00	2024-11-08T08:00:00	7	Dirección del viento	11.27
120495	7	Sololá	704	Santa Lucía Utatlán 	7	Santa Rita 	10	Octubre	2023-01-10T00:00:00	2024-11-08T08:00:00	1	Precipitación	0
120496	7	Sololá	704	Santa Lucía Utatlán 	7	Santa Rita 	10	Octubre	2023-01-10T00:00:00	2024-11-08T08:00:00	8	Radiación solar	551
120497	7	Sololá	704	Santa Lucía Utatlán 	7	Santa Rita 	10	Octubre	2023-01-10T00:00:00	2024-11-08T09:00:00	2	Temperatura media	25.8
120498	7	Sololá	704	Santa Lucía Utatlán 	7	Santa Rita 	10	Octubre	2023-01-10T00:00:00	2024-11-08T09:00:00	4	Temperatura máxima	26.8
120499	7	Sololá	704	Santa Lucía Utatlán 	7	Santa Rita 	10	Octubre	2023-01-10T00:00:00	2024-11-08T09:00:00	3	Temperatura mínima	25.2
120500	7	Sololá	704	Santa Lucía Utatlán 	7	Santa Rita 	10	Octubre	2023-01-10T00:00:00	2024-11-08T09:00:00	5	Humedad	71
120501	7	Sololá	704	Santa Lucía Utatlán 	7	Santa Rita 	10	Octubre	2023-01-10T00:00:00	2024-11-08T09:00:00	6	Velocidad del viento	11.3
120502	7	Sololá	704	Santa Lucía Utatlán 	7	Santa Rita 	10	Octubre	2023-01-10T00:00:00	2024-11-08T09:00:00	7	Dirección del viento	11.27
120503	7	Sololá	704	Santa Lucía Utatlán 	7	Santa Rita 	10	Octubre	2023-01-10T00:00:00	2024-11-08T09:00:00	1	Precipitación	0
120504	7	Sololá	704	Santa Lucía Utatlán 	7	Santa Rita 	10	Octubre	2023-01-10T00:00:00	2024-11-08T09:00:00	8	Radiación solar	755
120505	7	Sololá	704	Santa Lucía Utatlán 	7	Santa Rita 	10	Octubre	2023-01-10T00:00:00	2024-11-08T10:00:00	2	Temperatura media	26.5
120506	7	Sololá	704	Santa Lucía Utatlán 	7	Santa Rita 	10	Octubre	2023-01-10T00:00:00	2024-11-08T10:00:00	4	Temperatura máxima	26.5
120507	7	Sololá	704	Santa Lucía Utatlán 	7	Santa Rita 	10	Octubre	2023-01-10T00:00:00	2024-11-08T10:00:00	3	Temperatura mínima	24.8
120508	7	Sololá	704	Santa Lucía Utatlán 	7	Santa Rita 	10	Octubre	2023-01-10T00:00:00	2024-11-08T10:00:00	5	Humedad	63
120509	7	Sololá	704	Santa Lucía Utatlán 	7	Santa Rita 	10	Octubre	2023-01-10T00:00:00	2024-11-08T10:00:00	6	Velocidad del viento	9.7
120510	7	Sololá	704	Santa Lucía Utatlán 	7	Santa Rita 	10	Octubre	2023-01-10T00:00:00	2024-11-08T10:00:00	7	Dirección del viento	9.66
120511	7	Sololá	704	Santa Lucía Utatlán 	7	Santa Rita 	10	Octubre	2023-01-10T00:00:00	2024-11-08T10:00:00	1	Precipitación	0
120512	7	Sololá	704	Santa Lucía Utatlán 	7	Santa Rita 	10	Octubre	2023-01-10T00:00:00	2024-11-08T10:00:00	8	Radiación solar	922
120513	7	Sololá	704	Santa Lucía Utatlán 	7	Santa Rita 	10	Octubre	2023-01-10T00:00:00	2024-11-08T11:00:00	2	Temperatura media	24.1
120514	7	Sololá	704	Santa Lucía Utatlán 	7	Santa Rita 	10	Octubre	2023-01-10T00:00:00	2024-11-08T11:00:00	4	Temperatura máxima	26.6
120515	7	Sololá	704	Santa Lucía Utatlán 	7	Santa Rita 	10	Octubre	2023-01-10T00:00:00	2024-11-08T11:00:00	3	Temperatura mínima	24.1
120516	7	Sololá	704	Santa Lucía Utatlán 	7	Santa Rita 	10	Octubre	2023-01-10T00:00:00	2024-11-08T11:00:00	5	Humedad	82
120517	7	Sololá	704	Santa Lucía Utatlán 	7	Santa Rita 	10	Octubre	2023-01-10T00:00:00	2024-11-08T11:00:00	6	Velocidad del viento	9.7
120518	7	Sololá	704	Santa Lucía Utatlán 	7	Santa Rita 	10	Octubre	2023-01-10T00:00:00	2024-11-08T11:00:00	7	Dirección del viento	9.66
120519	7	Sololá	704	Santa Lucía Utatlán 	7	Santa Rita 	10	Octubre	2023-01-10T00:00:00	2024-11-08T11:00:00	1	Precipitación	0
120520	7	Sololá	704	Santa Lucía Utatlán 	7	Santa Rita 	10	Octubre	2023-01-10T00:00:00	2024-11-08T11:00:00	8	Radiación solar	1015
120521	7	Sololá	704	Santa Lucía Utatlán 	7	Santa Rita 	10	Octubre	2023-01-10T00:00:00	2024-11-08T12:00:00	2	Temperatura media	23.2
120522	7	Sololá	704	Santa Lucía Utatlán 	7	Santa Rita 	10	Octubre	2023-01-10T00:00:00	2024-11-08T12:00:00	4	Temperatura máxima	24.1
120523	7	Sololá	704	Santa Lucía Utatlán 	7	Santa Rita 	10	Octubre	2023-01-10T00:00:00	2024-11-08T12:00:00	3	Temperatura mínima	22.9
120524	7	Sololá	704	Santa Lucía Utatlán 	7	Santa Rita 	10	Octubre	2023-01-10T00:00:00	2024-11-08T12:00:00	5	Humedad	85
120525	7	Sololá	704	Santa Lucía Utatlán 	7	Santa Rita 	10	Octubre	2023-01-10T00:00:00	2024-11-08T12:00:00	6	Velocidad del viento	6.4
120526	7	Sololá	704	Santa Lucía Utatlán 	7	Santa Rita 	10	Octubre	2023-01-10T00:00:00	2024-11-08T12:00:00	7	Dirección del viento	6.44
120527	7	Sololá	704	Santa Lucía Utatlán 	7	Santa Rita 	10	Octubre	2023-01-10T00:00:00	2024-11-08T12:00:00	1	Precipitación	0
120528	7	Sololá	704	Santa Lucía Utatlán 	7	Santa Rita 	10	Octubre	2023-01-10T00:00:00	2024-11-08T12:00:00	8	Radiación solar	970
120529	7	Sololá	704	Santa Lucía Utatlán 	7	Santa Rita 	10	Octubre	2023-01-10T00:00:00	2024-11-08T13:00:00	2	Temperatura media	22.3
120530	7	Sololá	704	Santa Lucía Utatlán 	7	Santa Rita 	10	Octubre	2023-01-10T00:00:00	2024-11-08T13:00:00	4	Temperatura máxima	23.2
120531	7	Sololá	704	Santa Lucía Utatlán 	7	Santa Rita 	10	Octubre	2023-01-10T00:00:00	2024-11-08T13:00:00	3	Temperatura mínima	22.2
120532	7	Sololá	704	Santa Lucía Utatlán 	7	Santa Rita 	10	Octubre	2023-01-10T00:00:00	2024-11-08T13:00:00	5	Humedad	87
120533	7	Sololá	704	Santa Lucía Utatlán 	7	Santa Rita 	10	Octubre	2023-01-10T00:00:00	2024-11-08T13:00:00	6	Velocidad del viento	4.8
120534	7	Sololá	704	Santa Lucía Utatlán 	7	Santa Rita 	10	Octubre	2023-01-10T00:00:00	2024-11-08T13:00:00	7	Dirección del viento	4.83
120535	7	Sololá	704	Santa Lucía Utatlán 	7	Santa Rita 	10	Octubre	2023-01-10T00:00:00	2024-11-08T13:00:00	1	Precipitación	0
120536	7	Sololá	704	Santa Lucía Utatlán 	7	Santa Rita 	10	Octubre	2023-01-10T00:00:00	2024-11-08T13:00:00	8	Radiación solar	621
120537	7	Sololá	704	Santa Lucía Utatlán 	7	Santa Rita 	10	Octubre	2023-01-10T00:00:00	2024-11-08T14:00:00	2	Temperatura media	21.6
120538	7	Sololá	704	Santa Lucía Utatlán 	7	Santa Rita 	10	Octubre	2023-01-10T00:00:00	2024-11-08T14:00:00	4	Temperatura máxima	22.3
120539	7	Sololá	704	Santa Lucía Utatlán 	7	Santa Rita 	10	Octubre	2023-01-10T00:00:00	2024-11-08T14:00:00	3	Temperatura mínima	21.6
120540	7	Sololá	704	Santa Lucía Utatlán 	7	Santa Rita 	10	Octubre	2023-01-10T00:00:00	2024-11-08T14:00:00	5	Humedad	89
120541	7	Sololá	704	Santa Lucía Utatlán 	7	Santa Rita 	10	Octubre	2023-01-10T00:00:00	2024-11-08T14:00:00	6	Velocidad del viento	3.2
120542	7	Sololá	704	Santa Lucía Utatlán 	7	Santa Rita 	10	Octubre	2023-01-10T00:00:00	2024-11-08T14:00:00	7	Dirección del viento	3.22
120543	7	Sololá	704	Santa Lucía Utatlán 	7	Santa Rita 	10	Octubre	2023-01-10T00:00:00	2024-11-08T14:00:00	1	Precipitación	0
120544	7	Sololá	704	Santa Lucía Utatlán 	7	Santa Rita 	10	Octubre	2023-01-10T00:00:00	2024-11-08T14:00:00	8	Radiación solar	659
120545	7	Sololá	704	Santa Lucía Utatlán 	7	Santa Rita 	10	Octubre	2023-01-10T00:00:00	2024-11-08T15:00:00	2	Temperatura media	20.7
120546	7	Sololá	704	Santa Lucía Utatlán 	7	Santa Rita 	10	Octubre	2023-01-10T00:00:00	2024-11-08T15:00:00	4	Temperatura máxima	21.6
120547	7	Sololá	704	Santa Lucía Utatlán 	7	Santa Rita 	10	Octubre	2023-01-10T00:00:00	2024-11-08T15:00:00	3	Temperatura mínima	20.7
120548	7	Sololá	704	Santa Lucía Utatlán 	7	Santa Rita 	10	Octubre	2023-01-10T00:00:00	2024-11-08T15:00:00	5	Humedad	92
120549	7	Sololá	704	Santa Lucía Utatlán 	7	Santa Rita 	10	Octubre	2023-01-10T00:00:00	2024-11-08T15:00:00	6	Velocidad del viento	1.6
120550	7	Sololá	704	Santa Lucía Utatlán 	7	Santa Rita 	10	Octubre	2023-01-10T00:00:00	2024-11-08T15:00:00	7	Dirección del viento	1.61
120551	7	Sololá	704	Santa Lucía Utatlán 	7	Santa Rita 	10	Octubre	2023-01-10T00:00:00	2024-11-08T15:00:00	1	Precipitación	0
120552	7	Sololá	704	Santa Lucía Utatlán 	7	Santa Rita 	10	Octubre	2023-01-10T00:00:00	2024-11-08T15:00:00	8	Radiación solar	150
120553	7	Sololá	704	Santa Lucía Utatlán 	7	Santa Rita 	10	Octubre	2023-01-10T00:00:00	2024-11-08T16:00:00	2	Temperatura media	20.2
120554	7	Sololá	704	Santa Lucía Utatlán 	7	Santa Rita 	10	Octubre	2023-01-10T00:00:00	2024-11-08T16:00:00	4	Temperatura máxima	20.7
120555	7	Sololá	704	Santa Lucía Utatlán 	7	Santa Rita 	10	Octubre	2023-01-10T00:00:00	2024-11-08T16:00:00	3	Temperatura mínima	20.1
120556	7	Sololá	704	Santa Lucía Utatlán 	7	Santa Rita 	10	Octubre	2023-01-10T00:00:00	2024-11-08T16:00:00	5	Humedad	93
120557	7	Sololá	704	Santa Lucía Utatlán 	7	Santa Rita 	10	Octubre	2023-01-10T00:00:00	2024-11-08T16:00:00	6	Velocidad del viento	1.6
120558	7	Sololá	704	Santa Lucía Utatlán 	7	Santa Rita 	10	Octubre	2023-01-10T00:00:00	2024-11-08T16:00:00	7	Dirección del viento	1.61
120559	7	Sololá	704	Santa Lucía Utatlán 	7	Santa Rita 	10	Octubre	2023-01-10T00:00:00	2024-11-08T16:00:00	1	Precipitación	0
120560	7	Sololá	704	Santa Lucía Utatlán 	7	Santa Rita 	10	Octubre	2023-01-10T00:00:00	2024-11-08T16:00:00	8	Radiación solar	68
120561	7	Sololá	704	Santa Lucía Utatlán 	7	Santa Rita 	10	Octubre	2023-01-10T00:00:00	2024-11-08T17:00:00	2	Temperatura media	20.6
120562	7	Sololá	704	Santa Lucía Utatlán 	7	Santa Rita 	10	Octubre	2023-01-10T00:00:00	2024-11-08T17:00:00	4	Temperatura máxima	20.7
120563	7	Sololá	704	Santa Lucía Utatlán 	7	Santa Rita 	10	Octubre	2023-01-10T00:00:00	2024-11-08T17:00:00	3	Temperatura mínima	20.2
120564	7	Sololá	704	Santa Lucía Utatlán 	7	Santa Rita 	10	Octubre	2023-01-10T00:00:00	2024-11-08T17:00:00	5	Humedad	95
120565	7	Sololá	704	Santa Lucía Utatlán 	7	Santa Rita 	10	Octubre	2023-01-10T00:00:00	2024-11-08T17:00:00	6	Velocidad del viento	0
120566	7	Sololá	704	Santa Lucía Utatlán 	7	Santa Rita 	10	Octubre	2023-01-10T00:00:00	2024-11-08T17:00:00	7	Dirección del viento	0
120567	7	Sololá	704	Santa Lucía Utatlán 	7	Santa Rita 	10	Octubre	2023-01-10T00:00:00	2024-11-08T17:00:00	1	Precipitación	2.6
120568	7	Sololá	704	Santa Lucía Utatlán 	7	Santa Rita 	10	Octubre	2023-01-10T00:00:00	2024-11-08T17:00:00	8	Radiación solar	32
120569	7	Sololá	704	Santa Lucía Utatlán 	7	Santa Rita 	10	Octubre	2023-01-10T00:00:00	2024-11-08T18:00:00	2	Temperatura media	20.2
120570	7	Sololá	704	Santa Lucía Utatlán 	7	Santa Rita 	10	Octubre	2023-01-10T00:00:00	2024-11-08T18:00:00	4	Temperatura máxima	20.6
120571	7	Sololá	704	Santa Lucía Utatlán 	7	Santa Rita 	10	Octubre	2023-01-10T00:00:00	2024-11-08T18:00:00	3	Temperatura mínima	20.1
120572	7	Sololá	704	Santa Lucía Utatlán 	7	Santa Rita 	10	Octubre	2023-01-10T00:00:00	2024-11-08T18:00:00	5	Humedad	96
120573	7	Sololá	704	Santa Lucía Utatlán 	7	Santa Rita 	10	Octubre	2023-01-10T00:00:00	2024-11-08T18:00:00	6	Velocidad del viento	1.6
120574	7	Sololá	704	Santa Lucía Utatlán 	7	Santa Rita 	10	Octubre	2023-01-10T00:00:00	2024-11-08T18:00:00	7	Dirección del viento	1.61
120575	7	Sololá	704	Santa Lucía Utatlán 	7	Santa Rita 	10	Octubre	2023-01-10T00:00:00	2024-11-08T18:00:00	1	Precipitación	0.6
120576	7	Sololá	704	Santa Lucía Utatlán 	7	Santa Rita 	10	Octubre	2023-01-10T00:00:00	2024-11-08T18:00:00	8	Radiación solar	0
120577	7	Sololá	704	Santa Lucía Utatlán 	7	Santa Rita 	10	Octubre	2023-01-10T00:00:00	2024-11-08T19:00:00	2	Temperatura media	19.7
120578	7	Sololá	704	Santa Lucía Utatlán 	7	Santa Rita 	10	Octubre	2023-01-10T00:00:00	2024-11-08T19:00:00	4	Temperatura máxima	20.2
120579	7	Sololá	704	Santa Lucía Utatlán 	7	Santa Rita 	10	Octubre	2023-01-10T00:00:00	2024-11-08T19:00:00	3	Temperatura mínima	19.7
120580	7	Sololá	704	Santa Lucía Utatlán 	7	Santa Rita 	10	Octubre	2023-01-10T00:00:00	2024-11-08T19:00:00	5	Humedad	96
120581	7	Sololá	704	Santa Lucía Utatlán 	7	Santa Rita 	10	Octubre	2023-01-10T00:00:00	2024-11-08T19:00:00	6	Velocidad del viento	1.6
120582	7	Sololá	704	Santa Lucía Utatlán 	7	Santa Rita 	10	Octubre	2023-01-10T00:00:00	2024-11-08T19:00:00	7	Dirección del viento	1.61
120583	7	Sololá	704	Santa Lucía Utatlán 	7	Santa Rita 	10	Octubre	2023-01-10T00:00:00	2024-11-08T19:00:00	1	Precipitación	0.2
120584	7	Sololá	704	Santa Lucía Utatlán 	7	Santa Rita 	10	Octubre	2023-01-10T00:00:00	2024-11-08T19:00:00	8	Radiación solar	0
120585	7	Sololá	704	Santa Lucía Utatlán 	7	Santa Rita 	10	Octubre	2023-01-10T00:00:00	2024-11-08T20:00:00	2	Temperatura media	19.6
120586	7	Sololá	704	Santa Lucía Utatlán 	7	Santa Rita 	10	Octubre	2023-01-10T00:00:00	2024-11-08T20:00:00	4	Temperatura máxima	19.8
120587	7	Sololá	704	Santa Lucía Utatlán 	7	Santa Rita 	10	Octubre	2023-01-10T00:00:00	2024-11-08T20:00:00	3	Temperatura mínima	19.6
120588	7	Sololá	704	Santa Lucía Utatlán 	7	Santa Rita 	10	Octubre	2023-01-10T00:00:00	2024-11-08T20:00:00	5	Humedad	96
120589	7	Sololá	704	Santa Lucía Utatlán 	7	Santa Rita 	10	Octubre	2023-01-10T00:00:00	2024-11-08T20:00:00	6	Velocidad del viento	1.6
120590	7	Sololá	704	Santa Lucía Utatlán 	7	Santa Rita 	10	Octubre	2023-01-10T00:00:00	2024-11-08T20:00:00	7	Dirección del viento	1.61
120591	7	Sololá	704	Santa Lucía Utatlán 	7	Santa Rita 	10	Octubre	2023-01-10T00:00:00	2024-11-08T20:00:00	1	Precipitación	0
120592	7	Sololá	704	Santa Lucía Utatlán 	7	Santa Rita 	10	Octubre	2023-01-10T00:00:00	2024-11-08T20:00:00	8	Radiación solar	0
120593	7	Sololá	704	Santa Lucía Utatlán 	7	Santa Rita 	10	Octubre	2023-01-10T00:00:00	2024-11-08T21:00:00	2	Temperatura media	19.3
120594	7	Sololá	704	Santa Lucía Utatlán 	7	Santa Rita 	10	Octubre	2023-01-10T00:00:00	2024-11-08T21:00:00	4	Temperatura máxima	19.7
120595	7	Sololá	704	Santa Lucía Utatlán 	7	Santa Rita 	10	Octubre	2023-01-10T00:00:00	2024-11-08T21:00:00	3	Temperatura mínima	19.3
120596	7	Sololá	704	Santa Lucía Utatlán 	7	Santa Rita 	10	Octubre	2023-01-10T00:00:00	2024-11-08T21:00:00	5	Humedad	96
120597	7	Sololá	704	Santa Lucía Utatlán 	7	Santa Rita 	10	Octubre	2023-01-10T00:00:00	2024-11-08T21:00:00	6	Velocidad del viento	1.6
120598	7	Sololá	704	Santa Lucía Utatlán 	7	Santa Rita 	10	Octubre	2023-01-10T00:00:00	2024-11-08T21:00:00	7	Dirección del viento	1.61
120599	7	Sololá	704	Santa Lucía Utatlán 	7	Santa Rita 	10	Octubre	2023-01-10T00:00:00	2024-11-08T21:00:00	1	Precipitación	0
120600	7	Sololá	704	Santa Lucía Utatlán 	7	Santa Rita 	10	Octubre	2023-01-10T00:00:00	2024-11-08T21:00:00	8	Radiación solar	0
120601	7	Sololá	704	Santa Lucía Utatlán 	7	Santa Rita 	10	Octubre	2023-01-10T00:00:00	2024-11-08T22:00:00	2	Temperatura media	19.2
120602	7	Sololá	704	Santa Lucía Utatlán 	7	Santa Rita 	10	Octubre	2023-01-10T00:00:00	2024-11-08T22:00:00	4	Temperatura máxima	19.3
120603	7	Sololá	704	Santa Lucía Utatlán 	7	Santa Rita 	10	Octubre	2023-01-10T00:00:00	2024-11-08T22:00:00	3	Temperatura mínima	19.1
120604	7	Sololá	704	Santa Lucía Utatlán 	7	Santa Rita 	10	Octubre	2023-01-10T00:00:00	2024-11-08T22:00:00	5	Humedad	96
120605	7	Sololá	704	Santa Lucía Utatlán 	7	Santa Rita 	10	Octubre	2023-01-10T00:00:00	2024-11-08T22:00:00	6	Velocidad del viento	1.6
120606	7	Sololá	704	Santa Lucía Utatlán 	7	Santa Rita 	10	Octubre	2023-01-10T00:00:00	2024-11-08T22:00:00	7	Dirección del viento	1.61
120607	7	Sololá	704	Santa Lucía Utatlán 	7	Santa Rita 	10	Octubre	2023-01-10T00:00:00	2024-11-08T22:00:00	1	Precipitación	0
120608	7	Sololá	704	Santa Lucía Utatlán 	7	Santa Rita 	10	Octubre	2023-01-10T00:00:00	2024-11-08T22:00:00	8	Radiación solar	0
120609	7	Sololá	704	Santa Lucía Utatlán 	7	Santa Rita 	10	Octubre	2023-01-10T00:00:00	2024-11-08T23:00:00	2	Temperatura media	18.3
120610	7	Sololá	704	Santa Lucía Utatlán 	7	Santa Rita 	10	Octubre	2023-01-10T00:00:00	2024-11-08T23:00:00	4	Temperatura máxima	19.2
120611	7	Sololá	704	Santa Lucía Utatlán 	7	Santa Rita 	10	Octubre	2023-01-10T00:00:00	2024-11-08T23:00:00	3	Temperatura mínima	18.3
120612	7	Sololá	704	Santa Lucía Utatlán 	7	Santa Rita 	10	Octubre	2023-01-10T00:00:00	2024-11-08T23:00:00	5	Humedad	96
120613	7	Sololá	704	Santa Lucía Utatlán 	7	Santa Rita 	10	Octubre	2023-01-10T00:00:00	2024-11-08T23:00:00	6	Velocidad del viento	1.6
120614	7	Sololá	704	Santa Lucía Utatlán 	7	Santa Rita 	10	Octubre	2023-01-10T00:00:00	2024-11-08T23:00:00	7	Dirección del viento	1.61
120615	7	Sololá	704	Santa Lucía Utatlán 	7	Santa Rita 	10	Octubre	2023-01-10T00:00:00	2024-11-08T23:00:00	1	Precipitación	0
120616	7	Sololá	704	Santa Lucía Utatlán 	7	Santa Rita 	10	Octubre	2023-01-10T00:00:00	2024-11-08T23:00:00	8	Radiación solar	0
120617	7	Sololá	704	Santa Lucía Utatlán 	7	Santa Rita 	10	Octubre	2023-02-10T00:00:00	2024-11-08T00:00:00	2	Temperatura media	17.9
120618	7	Sololá	704	Santa Lucía Utatlán 	7	Santa Rita 	10	Octubre	2023-02-10T00:00:00	2024-11-08T00:00:00	4	Temperatura máxima	18.4
120619	7	Sololá	704	Santa Lucía Utatlán 	7	Santa Rita 	10	Octubre	2023-02-10T00:00:00	2024-11-08T00:00:00	3	Temperatura mínima	17.9
120620	7	Sololá	704	Santa Lucía Utatlán 	7	Santa Rita 	10	Octubre	2023-02-10T00:00:00	2024-11-08T00:00:00	5	Humedad	96
120621	7	Sololá	704	Santa Lucía Utatlán 	7	Santa Rita 	10	Octubre	2023-02-10T00:00:00	2024-11-08T00:00:00	6	Velocidad del viento	1.6
120622	7	Sololá	704	Santa Lucía Utatlán 	7	Santa Rita 	10	Octubre	2023-02-10T00:00:00	2024-11-08T00:00:00	7	Dirección del viento	1.61
120623	7	Sololá	704	Santa Lucía Utatlán 	7	Santa Rita 	10	Octubre	2023-02-10T00:00:00	2024-11-08T00:00:00	1	Precipitación	0
120624	7	Sololá	704	Santa Lucía Utatlán 	7	Santa Rita 	10	Octubre	2023-02-10T00:00:00	2024-11-08T00:00:00	8	Radiación solar	0
120625	7	Sololá	704	Santa Lucía Utatlán 	7	Santa Rita 	10	Octubre	2023-02-10T00:00:00	2024-11-08T01:00:00	2	Temperatura media	17.4
120626	7	Sololá	704	Santa Lucía Utatlán 	7	Santa Rita 	10	Octubre	2023-02-10T00:00:00	2024-11-08T01:00:00	4	Temperatura máxima	17.9
120627	7	Sololá	704	Santa Lucía Utatlán 	7	Santa Rita 	10	Octubre	2023-02-10T00:00:00	2024-11-08T01:00:00	3	Temperatura mínima	17.3
120628	7	Sololá	704	Santa Lucía Utatlán 	7	Santa Rita 	10	Octubre	2023-02-10T00:00:00	2024-11-08T01:00:00	5	Humedad	96
120629	7	Sololá	704	Santa Lucía Utatlán 	7	Santa Rita 	10	Octubre	2023-02-10T00:00:00	2024-11-08T01:00:00	6	Velocidad del viento	3.2
120630	7	Sololá	704	Santa Lucía Utatlán 	7	Santa Rita 	10	Octubre	2023-02-10T00:00:00	2024-11-08T01:00:00	7	Dirección del viento	3.22
120631	7	Sololá	704	Santa Lucía Utatlán 	7	Santa Rita 	10	Octubre	2023-02-10T00:00:00	2024-11-08T01:00:00	1	Precipitación	0
120632	7	Sololá	704	Santa Lucía Utatlán 	7	Santa Rita 	10	Octubre	2023-02-10T00:00:00	2024-11-08T01:00:00	8	Radiación solar	0
120633	7	Sololá	704	Santa Lucía Utatlán 	7	Santa Rita 	10	Octubre	2023-02-10T00:00:00	2024-11-08T02:00:00	2	Temperatura media	17
120634	7	Sololá	704	Santa Lucía Utatlán 	7	Santa Rita 	10	Octubre	2023-02-10T00:00:00	2024-11-08T02:00:00	4	Temperatura máxima	17.4
120635	7	Sololá	704	Santa Lucía Utatlán 	7	Santa Rita 	10	Octubre	2023-02-10T00:00:00	2024-11-08T02:00:00	3	Temperatura mínima	17
120636	7	Sololá	704	Santa Lucía Utatlán 	7	Santa Rita 	10	Octubre	2023-02-10T00:00:00	2024-11-08T02:00:00	5	Humedad	95
120637	7	Sololá	704	Santa Lucía Utatlán 	7	Santa Rita 	10	Octubre	2023-02-10T00:00:00	2024-11-08T02:00:00	6	Velocidad del viento	3.2
120638	7	Sololá	704	Santa Lucía Utatlán 	7	Santa Rita 	10	Octubre	2023-02-10T00:00:00	2024-11-08T02:00:00	7	Dirección del viento	3.22
120639	7	Sololá	704	Santa Lucía Utatlán 	7	Santa Rita 	10	Octubre	2023-02-10T00:00:00	2024-11-08T02:00:00	1	Precipitación	0
120640	7	Sololá	704	Santa Lucía Utatlán 	7	Santa Rita 	10	Octubre	2023-02-10T00:00:00	2024-11-08T02:00:00	8	Radiación solar	0
120641	7	Sololá	704	Santa Lucía Utatlán 	7	Santa Rita 	10	Octubre	2023-02-10T00:00:00	2024-11-08T03:00:00	2	Temperatura media	18
120642	7	Sololá	704	Santa Lucía Utatlán 	7	Santa Rita 	10	Octubre	2023-02-10T00:00:00	2024-11-08T03:00:00	4	Temperatura máxima	18
120643	7	Sololá	704	Santa Lucía Utatlán 	7	Santa Rita 	10	Octubre	2023-02-10T00:00:00	2024-11-08T03:00:00	3	Temperatura mínima	17
120644	7	Sololá	704	Santa Lucía Utatlán 	7	Santa Rita 	10	Octubre	2023-02-10T00:00:00	2024-11-08T03:00:00	5	Humedad	95
120645	7	Sololá	704	Santa Lucía Utatlán 	7	Santa Rita 	10	Octubre	2023-02-10T00:00:00	2024-11-08T03:00:00	6	Velocidad del viento	1.6
120646	7	Sololá	704	Santa Lucía Utatlán 	7	Santa Rita 	10	Octubre	2023-02-10T00:00:00	2024-11-08T03:00:00	7	Dirección del viento	1.61
120647	7	Sololá	704	Santa Lucía Utatlán 	7	Santa Rita 	10	Octubre	2023-02-10T00:00:00	2024-11-08T03:00:00	1	Precipitación	0
120648	7	Sololá	704	Santa Lucía Utatlán 	7	Santa Rita 	10	Octubre	2023-02-10T00:00:00	2024-11-08T03:00:00	8	Radiación solar	0
120649	7	Sololá	704	Santa Lucía Utatlán 	7	Santa Rita 	10	Octubre	2023-02-10T00:00:00	2024-11-08T04:00:00	2	Temperatura media	20.5
120650	7	Sololá	704	Santa Lucía Utatlán 	7	Santa Rita 	10	Octubre	2023-02-10T00:00:00	2024-11-08T04:00:00	4	Temperatura máxima	20.5
120651	7	Sololá	704	Santa Lucía Utatlán 	7	Santa Rita 	10	Octubre	2023-02-10T00:00:00	2024-11-08T04:00:00	3	Temperatura mínima	18
120652	7	Sololá	704	Santa Lucía Utatlán 	7	Santa Rita 	10	Octubre	2023-02-10T00:00:00	2024-11-08T04:00:00	5	Humedad	90
120653	7	Sololá	704	Santa Lucía Utatlán 	7	Santa Rita 	10	Octubre	2023-02-10T00:00:00	2024-11-08T04:00:00	6	Velocidad del viento	1.6
120654	7	Sololá	704	Santa Lucía Utatlán 	7	Santa Rita 	10	Octubre	2023-02-10T00:00:00	2024-11-08T04:00:00	7	Dirección del viento	1.61
120655	7	Sololá	704	Santa Lucía Utatlán 	7	Santa Rita 	10	Octubre	2023-02-10T00:00:00	2024-11-08T04:00:00	1	Precipitación	0.2
120656	7	Sololá	704	Santa Lucía Utatlán 	7	Santa Rita 	10	Octubre	2023-02-10T00:00:00	2024-11-08T04:00:00	8	Radiación solar	0
120657	7	Sololá	704	Santa Lucía Utatlán 	7	Santa Rita 	10	Octubre	2023-02-10T00:00:00	2024-11-08T05:00:00	2	Temperatura media	23.3
120658	7	Sololá	704	Santa Lucía Utatlán 	7	Santa Rita 	10	Octubre	2023-02-10T00:00:00	2024-11-08T05:00:00	4	Temperatura máxima	23.3
120659	7	Sololá	704	Santa Lucía Utatlán 	7	Santa Rita 	10	Octubre	2023-02-10T00:00:00	2024-11-08T05:00:00	3	Temperatura mínima	20.5
120660	7	Sololá	704	Santa Lucía Utatlán 	7	Santa Rita 	10	Octubre	2023-02-10T00:00:00	2024-11-08T05:00:00	5	Humedad	77
120661	7	Sololá	704	Santa Lucía Utatlán 	7	Santa Rita 	10	Octubre	2023-02-10T00:00:00	2024-11-08T05:00:00	6	Velocidad del viento	3.2
120662	7	Sololá	704	Santa Lucía Utatlán 	7	Santa Rita 	10	Octubre	2023-02-10T00:00:00	2024-11-08T05:00:00	7	Dirección del viento	3.22
120663	7	Sololá	704	Santa Lucía Utatlán 	7	Santa Rita 	10	Octubre	2023-02-10T00:00:00	2024-11-08T05:00:00	1	Precipitación	0
120664	7	Sololá	704	Santa Lucía Utatlán 	7	Santa Rita 	10	Octubre	2023-02-10T00:00:00	2024-11-08T05:00:00	8	Radiación solar	0
120665	7	Sololá	704	Santa Lucía Utatlán 	7	Santa Rita 	10	Octubre	2023-02-10T00:00:00	2024-11-08T06:00:00	2	Temperatura media	25.6
120666	7	Sololá	704	Santa Lucía Utatlán 	7	Santa Rita 	10	Octubre	2023-02-10T00:00:00	2024-11-08T06:00:00	4	Temperatura máxima	25.6
120667	7	Sololá	704	Santa Lucía Utatlán 	7	Santa Rita 	10	Octubre	2023-02-10T00:00:00	2024-11-08T06:00:00	3	Temperatura mínima	23.3
120668	7	Sololá	704	Santa Lucía Utatlán 	7	Santa Rita 	10	Octubre	2023-02-10T00:00:00	2024-11-08T06:00:00	5	Humedad	63
120669	7	Sololá	704	Santa Lucía Utatlán 	7	Santa Rita 	10	Octubre	2023-02-10T00:00:00	2024-11-08T06:00:00	6	Velocidad del viento	6.4
120670	7	Sololá	704	Santa Lucía Utatlán 	7	Santa Rita 	10	Octubre	2023-02-10T00:00:00	2024-11-08T06:00:00	7	Dirección del viento	6.44
120671	7	Sololá	704	Santa Lucía Utatlán 	7	Santa Rita 	10	Octubre	2023-02-10T00:00:00	2024-11-08T06:00:00	1	Precipitación	0
120672	7	Sololá	704	Santa Lucía Utatlán 	7	Santa Rita 	10	Octubre	2023-02-10T00:00:00	2024-11-08T06:00:00	8	Radiación solar	49
120673	7	Sololá	704	Santa Lucía Utatlán 	7	Santa Rita 	10	Octubre	2023-02-10T00:00:00	2024-11-08T07:00:00	2	Temperatura media	26.3
120674	7	Sololá	704	Santa Lucía Utatlán 	7	Santa Rita 	10	Octubre	2023-02-10T00:00:00	2024-11-08T07:00:00	4	Temperatura máxima	26.4
120675	7	Sololá	704	Santa Lucía Utatlán 	7	Santa Rita 	10	Octubre	2023-02-10T00:00:00	2024-11-08T07:00:00	3	Temperatura mínima	25.5
120676	7	Sololá	704	Santa Lucía Utatlán 	7	Santa Rita 	10	Octubre	2023-02-10T00:00:00	2024-11-08T07:00:00	5	Humedad	60
120677	7	Sololá	704	Santa Lucía Utatlán 	7	Santa Rita 	10	Octubre	2023-02-10T00:00:00	2024-11-08T07:00:00	6	Velocidad del viento	9.7
120678	7	Sololá	704	Santa Lucía Utatlán 	7	Santa Rita 	10	Octubre	2023-02-10T00:00:00	2024-11-08T07:00:00	7	Dirección del viento	9.66
120679	7	Sololá	704	Santa Lucía Utatlán 	7	Santa Rita 	10	Octubre	2023-02-10T00:00:00	2024-11-08T07:00:00	1	Precipitación	0
120680	7	Sololá	704	Santa Lucía Utatlán 	7	Santa Rita 	10	Octubre	2023-02-10T00:00:00	2024-11-08T07:00:00	8	Radiación solar	192
120681	7	Sololá	704	Santa Lucía Utatlán 	7	Santa Rita 	10	Octubre	2023-02-10T00:00:00	2024-11-08T08:00:00	2	Temperatura media	26.1
120682	7	Sololá	704	Santa Lucía Utatlán 	7	Santa Rita 	10	Octubre	2023-02-10T00:00:00	2024-11-08T08:00:00	4	Temperatura máxima	26.6
120683	7	Sololá	704	Santa Lucía Utatlán 	7	Santa Rita 	10	Octubre	2023-02-10T00:00:00	2024-11-08T08:00:00	3	Temperatura mínima	25.7
120684	7	Sololá	704	Santa Lucía Utatlán 	7	Santa Rita 	10	Octubre	2023-02-10T00:00:00	2024-11-08T08:00:00	5	Humedad	63
120685	7	Sololá	704	Santa Lucía Utatlán 	7	Santa Rita 	10	Octubre	2023-02-10T00:00:00	2024-11-08T08:00:00	6	Velocidad del viento	11.3
120686	7	Sololá	704	Santa Lucía Utatlán 	7	Santa Rita 	10	Octubre	2023-02-10T00:00:00	2024-11-08T08:00:00	7	Dirección del viento	11.27
120687	7	Sololá	704	Santa Lucía Utatlán 	7	Santa Rita 	10	Octubre	2023-02-10T00:00:00	2024-11-08T08:00:00	1	Precipitación	0
120688	7	Sololá	704	Santa Lucía Utatlán 	7	Santa Rita 	10	Octubre	2023-02-10T00:00:00	2024-11-08T08:00:00	8	Radiación solar	535
120689	7	Sololá	704	Santa Lucía Utatlán 	7	Santa Rita 	10	Octubre	2023-02-10T00:00:00	2024-11-08T09:00:00	2	Temperatura media	26.3
120690	7	Sololá	704	Santa Lucía Utatlán 	7	Santa Rita 	10	Octubre	2023-02-10T00:00:00	2024-11-08T09:00:00	4	Temperatura máxima	26.7
120691	7	Sololá	704	Santa Lucía Utatlán 	7	Santa Rita 	10	Octubre	2023-02-10T00:00:00	2024-11-08T09:00:00	3	Temperatura mínima	25.9
120692	7	Sololá	704	Santa Lucía Utatlán 	7	Santa Rita 	10	Octubre	2023-02-10T00:00:00	2024-11-08T09:00:00	5	Humedad	61
120693	7	Sololá	704	Santa Lucía Utatlán 	7	Santa Rita 	10	Octubre	2023-02-10T00:00:00	2024-11-08T09:00:00	6	Velocidad del viento	9.7
120694	7	Sololá	704	Santa Lucía Utatlán 	7	Santa Rita 	10	Octubre	2023-02-10T00:00:00	2024-11-08T09:00:00	7	Dirección del viento	9.66
120695	7	Sololá	704	Santa Lucía Utatlán 	7	Santa Rita 	10	Octubre	2023-02-10T00:00:00	2024-11-08T09:00:00	1	Precipitación	0
120696	7	Sololá	704	Santa Lucía Utatlán 	7	Santa Rita 	10	Octubre	2023-02-10T00:00:00	2024-11-08T09:00:00	8	Radiación solar	761
120697	7	Sololá	704	Santa Lucía Utatlán 	7	Santa Rita 	10	Octubre	2023-02-10T00:00:00	2024-11-08T10:00:00	2	Temperatura media	25.7
120698	7	Sololá	704	Santa Lucía Utatlán 	7	Santa Rita 	10	Octubre	2023-02-10T00:00:00	2024-11-08T10:00:00	4	Temperatura máxima	26.7
120699	7	Sololá	704	Santa Lucía Utatlán 	7	Santa Rita 	10	Octubre	2023-02-10T00:00:00	2024-11-08T10:00:00	3	Temperatura mínima	25.6
120700	7	Sololá	704	Santa Lucía Utatlán 	7	Santa Rita 	10	Octubre	2023-02-10T00:00:00	2024-11-08T10:00:00	5	Humedad	70
120701	7	Sololá	704	Santa Lucía Utatlán 	7	Santa Rita 	10	Octubre	2023-02-10T00:00:00	2024-11-08T10:00:00	6	Velocidad del viento	9.7
120702	7	Sololá	704	Santa Lucía Utatlán 	7	Santa Rita 	10	Octubre	2023-02-10T00:00:00	2024-11-08T10:00:00	7	Dirección del viento	9.66
120703	7	Sololá	704	Santa Lucía Utatlán 	7	Santa Rita 	10	Octubre	2023-02-10T00:00:00	2024-11-08T10:00:00	1	Precipitación	0
120704	7	Sololá	704	Santa Lucía Utatlán 	7	Santa Rita 	10	Octubre	2023-02-10T00:00:00	2024-11-08T10:00:00	8	Radiación solar	895
120705	7	Sololá	704	Santa Lucía Utatlán 	7	Santa Rita 	10	Octubre	2023-02-10T00:00:00	2024-11-08T11:00:00	2	Temperatura media	24.3
120706	7	Sololá	704	Santa Lucía Utatlán 	7	Santa Rita 	10	Octubre	2023-02-10T00:00:00	2024-11-08T11:00:00	4	Temperatura máxima	25.9
120707	7	Sololá	704	Santa Lucía Utatlán 	7	Santa Rita 	10	Octubre	2023-02-10T00:00:00	2024-11-08T11:00:00	3	Temperatura mínima	24.2
120708	7	Sololá	704	Santa Lucía Utatlán 	7	Santa Rita 	10	Octubre	2023-02-10T00:00:00	2024-11-08T11:00:00	5	Humedad	78
120709	7	Sololá	704	Santa Lucía Utatlán 	7	Santa Rita 	10	Octubre	2023-02-10T00:00:00	2024-11-08T11:00:00	6	Velocidad del viento	6.4
120710	7	Sololá	704	Santa Lucía Utatlán 	7	Santa Rita 	10	Octubre	2023-02-10T00:00:00	2024-11-08T11:00:00	7	Dirección del viento	6.44
120711	7	Sololá	704	Santa Lucía Utatlán 	7	Santa Rita 	10	Octubre	2023-02-10T00:00:00	2024-11-08T11:00:00	1	Precipitación	0
120712	7	Sololá	704	Santa Lucía Utatlán 	7	Santa Rita 	10	Octubre	2023-02-10T00:00:00	2024-11-08T11:00:00	8	Radiación solar	977
120713	7	Sololá	704	Santa Lucía Utatlán 	7	Santa Rita 	10	Octubre	2023-02-10T00:00:00	2024-11-08T12:00:00	2	Temperatura media	24
120714	7	Sololá	704	Santa Lucía Utatlán 	7	Santa Rita 	10	Octubre	2023-02-10T00:00:00	2024-11-08T12:00:00	4	Temperatura máxima	24.5
120715	7	Sololá	704	Santa Lucía Utatlán 	7	Santa Rita 	10	Octubre	2023-02-10T00:00:00	2024-11-08T12:00:00	3	Temperatura mínima	23.7
120716	7	Sololá	704	Santa Lucía Utatlán 	7	Santa Rita 	10	Octubre	2023-02-10T00:00:00	2024-11-08T12:00:00	5	Humedad	76
120717	7	Sololá	704	Santa Lucía Utatlán 	7	Santa Rita 	10	Octubre	2023-02-10T00:00:00	2024-11-08T12:00:00	6	Velocidad del viento	6.4
120718	7	Sololá	704	Santa Lucía Utatlán 	7	Santa Rita 	10	Octubre	2023-02-10T00:00:00	2024-11-08T12:00:00	7	Dirección del viento	6.44
120719	7	Sololá	704	Santa Lucía Utatlán 	7	Santa Rita 	10	Octubre	2023-02-10T00:00:00	2024-11-08T12:00:00	1	Precipitación	0
120720	7	Sololá	704	Santa Lucía Utatlán 	7	Santa Rita 	10	Octubre	2023-02-10T00:00:00	2024-11-08T12:00:00	8	Radiación solar	974
120721	7	Sololá	704	Santa Lucía Utatlán 	7	Santa Rita 	10	Octubre	2023-02-10T00:00:00	2024-11-08T13:00:00	2	Temperatura media	22.5
120722	7	Sololá	704	Santa Lucía Utatlán 	7	Santa Rita 	10	Octubre	2023-02-10T00:00:00	2024-11-08T13:00:00	4	Temperatura máxima	24.1
120723	7	Sololá	704	Santa Lucía Utatlán 	7	Santa Rita 	10	Octubre	2023-02-10T00:00:00	2024-11-08T13:00:00	3	Temperatura mínima	22.5
120724	7	Sololá	704	Santa Lucía Utatlán 	7	Santa Rita 	10	Octubre	2023-02-10T00:00:00	2024-11-08T13:00:00	5	Humedad	84
120725	7	Sololá	704	Santa Lucía Utatlán 	7	Santa Rita 	10	Octubre	2023-02-10T00:00:00	2024-11-08T13:00:00	6	Velocidad del viento	9.7
120726	7	Sololá	704	Santa Lucía Utatlán 	7	Santa Rita 	10	Octubre	2023-02-10T00:00:00	2024-11-08T13:00:00	7	Dirección del viento	9.66
120727	7	Sololá	704	Santa Lucía Utatlán 	7	Santa Rita 	10	Octubre	2023-02-10T00:00:00	2024-11-08T13:00:00	1	Precipitación	0
120728	7	Sololá	704	Santa Lucía Utatlán 	7	Santa Rita 	10	Octubre	2023-02-10T00:00:00	2024-11-08T13:00:00	8	Radiación solar	844
120729	7	Sololá	704	Santa Lucía Utatlán 	7	Santa Rita 	10	Octubre	2023-02-10T00:00:00	2024-11-08T14:00:00	2	Temperatura media	20.8
120730	7	Sololá	704	Santa Lucía Utatlán 	7	Santa Rita 	10	Octubre	2023-02-10T00:00:00	2024-11-08T14:00:00	4	Temperatura máxima	22.5
120731	7	Sololá	704	Santa Lucía Utatlán 	7	Santa Rita 	10	Octubre	2023-02-10T00:00:00	2024-11-08T14:00:00	3	Temperatura mínima	20.8
120732	7	Sololá	704	Santa Lucía Utatlán 	7	Santa Rita 	10	Octubre	2023-02-10T00:00:00	2024-11-08T14:00:00	5	Humedad	94
120733	7	Sololá	704	Santa Lucía Utatlán 	7	Santa Rita 	10	Octubre	2023-02-10T00:00:00	2024-11-08T14:00:00	6	Velocidad del viento	4.8
120734	7	Sololá	704	Santa Lucía Utatlán 	7	Santa Rita 	10	Octubre	2023-02-10T00:00:00	2024-11-08T14:00:00	7	Dirección del viento	4.83
120735	7	Sololá	704	Santa Lucía Utatlán 	7	Santa Rita 	10	Octubre	2023-02-10T00:00:00	2024-11-08T14:00:00	1	Precipitación	0
120736	7	Sololá	704	Santa Lucía Utatlán 	7	Santa Rita 	10	Octubre	2023-02-10T00:00:00	2024-11-08T14:00:00	8	Radiación solar	239
120737	7	Sololá	704	Santa Lucía Utatlán 	7	Santa Rita 	10	Octubre	2023-02-10T00:00:00	2024-11-08T15:00:00	2	Temperatura media	20.6
120738	7	Sololá	704	Santa Lucía Utatlán 	7	Santa Rita 	10	Octubre	2023-02-10T00:00:00	2024-11-08T15:00:00	4	Temperatura máxima	20.9
120739	7	Sololá	704	Santa Lucía Utatlán 	7	Santa Rita 	10	Octubre	2023-02-10T00:00:00	2024-11-08T15:00:00	3	Temperatura mínima	20.6
120740	7	Sololá	704	Santa Lucía Utatlán 	7	Santa Rita 	10	Octubre	2023-02-10T00:00:00	2024-11-08T15:00:00	5	Humedad	94
120741	7	Sololá	704	Santa Lucía Utatlán 	7	Santa Rita 	10	Octubre	2023-02-10T00:00:00	2024-11-08T15:00:00	6	Velocidad del viento	3.2
120742	7	Sololá	704	Santa Lucía Utatlán 	7	Santa Rita 	10	Octubre	2023-02-10T00:00:00	2024-11-08T15:00:00	7	Dirección del viento	3.22
120743	7	Sololá	704	Santa Lucía Utatlán 	7	Santa Rita 	10	Octubre	2023-02-10T00:00:00	2024-11-08T15:00:00	1	Precipitación	1
120744	7	Sololá	704	Santa Lucía Utatlán 	7	Santa Rita 	10	Octubre	2023-02-10T00:00:00	2024-11-08T15:00:00	8	Radiación solar	184
120745	7	Sololá	704	Santa Lucía Utatlán 	7	Santa Rita 	10	Octubre	2023-02-10T00:00:00	2024-11-08T16:00:00	2	Temperatura media	19.4
120746	7	Sololá	704	Santa Lucía Utatlán 	7	Santa Rita 	10	Octubre	2023-02-10T00:00:00	2024-11-08T16:00:00	4	Temperatura máxima	20.6
120747	7	Sololá	704	Santa Lucía Utatlán 	7	Santa Rita 	10	Octubre	2023-02-10T00:00:00	2024-11-08T16:00:00	3	Temperatura mínima	19.3
120748	7	Sololá	704	Santa Lucía Utatlán 	7	Santa Rita 	10	Octubre	2023-02-10T00:00:00	2024-11-08T16:00:00	5	Humedad	96
120749	7	Sololá	704	Santa Lucía Utatlán 	7	Santa Rita 	10	Octubre	2023-02-10T00:00:00	2024-11-08T16:00:00	6	Velocidad del viento	3.2
120750	7	Sololá	704	Santa Lucía Utatlán 	7	Santa Rita 	10	Octubre	2023-02-10T00:00:00	2024-11-08T16:00:00	7	Dirección del viento	3.22
120751	7	Sololá	704	Santa Lucía Utatlán 	7	Santa Rita 	10	Octubre	2023-02-10T00:00:00	2024-11-08T16:00:00	1	Precipitación	0.6
120752	7	Sololá	704	Santa Lucía Utatlán 	7	Santa Rita 	10	Octubre	2023-02-10T00:00:00	2024-11-08T16:00:00	8	Radiación solar	120
120753	7	Sololá	704	Santa Lucía Utatlán 	7	Santa Rita 	10	Octubre	2023-02-10T00:00:00	2024-11-08T17:00:00	2	Temperatura media	19.2
120754	7	Sololá	704	Santa Lucía Utatlán 	7	Santa Rita 	10	Octubre	2023-02-10T00:00:00	2024-11-08T17:00:00	4	Temperatura máxima	19.4
120755	7	Sololá	704	Santa Lucía Utatlán 	7	Santa Rita 	10	Octubre	2023-02-10T00:00:00	2024-11-08T17:00:00	3	Temperatura mínima	19.2
120756	7	Sololá	704	Santa Lucía Utatlán 	7	Santa Rita 	10	Octubre	2023-02-10T00:00:00	2024-11-08T17:00:00	5	Humedad	94
120757	7	Sololá	704	Santa Lucía Utatlán 	7	Santa Rita 	10	Octubre	2023-02-10T00:00:00	2024-11-08T17:00:00	6	Velocidad del viento	3.2
120758	7	Sololá	704	Santa Lucía Utatlán 	7	Santa Rita 	10	Octubre	2023-02-10T00:00:00	2024-11-08T17:00:00	7	Dirección del viento	3.22
120759	7	Sololá	704	Santa Lucía Utatlán 	7	Santa Rita 	10	Octubre	2023-02-10T00:00:00	2024-11-08T17:00:00	1	Precipitación	10.8
120760	7	Sololá	704	Santa Lucía Utatlán 	7	Santa Rita 	10	Octubre	2023-02-10T00:00:00	2024-11-08T17:00:00	8	Radiación solar	14
120761	7	Sololá	704	Santa Lucía Utatlán 	7	Santa Rita 	10	Octubre	2023-02-10T00:00:00	2024-11-08T18:00:00	2	Temperatura media	19
120762	7	Sololá	704	Santa Lucía Utatlán 	7	Santa Rita 	10	Octubre	2023-02-10T00:00:00	2024-11-08T18:00:00	4	Temperatura máxima	19.3
120763	7	Sololá	704	Santa Lucía Utatlán 	7	Santa Rita 	10	Octubre	2023-02-10T00:00:00	2024-11-08T18:00:00	3	Temperatura mínima	19
120764	7	Sololá	704	Santa Lucía Utatlán 	7	Santa Rita 	10	Octubre	2023-02-10T00:00:00	2024-11-08T18:00:00	5	Humedad	95
120765	7	Sololá	704	Santa Lucía Utatlán 	7	Santa Rita 	10	Octubre	2023-02-10T00:00:00	2024-11-08T18:00:00	6	Velocidad del viento	1.6
120766	7	Sololá	704	Santa Lucía Utatlán 	7	Santa Rita 	10	Octubre	2023-02-10T00:00:00	2024-11-08T18:00:00	7	Dirección del viento	1.61
120767	7	Sololá	704	Santa Lucía Utatlán 	7	Santa Rita 	10	Octubre	2023-02-10T00:00:00	2024-11-08T18:00:00	1	Precipitación	0.8
120768	7	Sololá	704	Santa Lucía Utatlán 	7	Santa Rita 	10	Octubre	2023-02-10T00:00:00	2024-11-08T18:00:00	8	Radiación solar	0
120769	7	Sololá	704	Santa Lucía Utatlán 	7	Santa Rita 	10	Octubre	2023-02-10T00:00:00	2024-11-08T19:00:00	2	Temperatura media	18.9
120770	7	Sololá	704	Santa Lucía Utatlán 	7	Santa Rita 	10	Octubre	2023-02-10T00:00:00	2024-11-08T19:00:00	4	Temperatura máxima	19.1
120771	7	Sololá	704	Santa Lucía Utatlán 	7	Santa Rita 	10	Octubre	2023-02-10T00:00:00	2024-11-08T19:00:00	3	Temperatura mínima	18.8
120772	7	Sololá	704	Santa Lucía Utatlán 	7	Santa Rita 	10	Octubre	2023-02-10T00:00:00	2024-11-08T19:00:00	5	Humedad	96
120773	7	Sololá	704	Santa Lucía Utatlán 	7	Santa Rita 	10	Octubre	2023-02-10T00:00:00	2024-11-08T19:00:00	6	Velocidad del viento	1.6
120774	7	Sololá	704	Santa Lucía Utatlán 	7	Santa Rita 	10	Octubre	2023-02-10T00:00:00	2024-11-08T19:00:00	7	Dirección del viento	1.61
120775	7	Sololá	704	Santa Lucía Utatlán 	7	Santa Rita 	10	Octubre	2023-02-10T00:00:00	2024-11-08T19:00:00	1	Precipitación	0.2
120776	7	Sololá	704	Santa Lucía Utatlán 	7	Santa Rita 	10	Octubre	2023-02-10T00:00:00	2024-11-08T19:00:00	8	Radiación solar	0
120777	7	Sololá	704	Santa Lucía Utatlán 	7	Santa Rita 	10	Octubre	2023-02-10T00:00:00	2024-11-08T20:00:00	2	Temperatura media	18.4
120778	7	Sololá	704	Santa Lucía Utatlán 	7	Santa Rita 	10	Octubre	2023-02-10T00:00:00	2024-11-08T20:00:00	4	Temperatura máxima	18.9
120779	7	Sololá	704	Santa Lucía Utatlán 	7	Santa Rita 	10	Octubre	2023-02-10T00:00:00	2024-11-08T20:00:00	3	Temperatura mínima	18.4
120780	7	Sololá	704	Santa Lucía Utatlán 	7	Santa Rita 	10	Octubre	2023-02-10T00:00:00	2024-11-08T20:00:00	5	Humedad	96
120781	7	Sololá	704	Santa Lucía Utatlán 	7	Santa Rita 	10	Octubre	2023-02-10T00:00:00	2024-11-08T20:00:00	6	Velocidad del viento	1.6
120782	7	Sololá	704	Santa Lucía Utatlán 	7	Santa Rita 	10	Octubre	2023-02-10T00:00:00	2024-11-08T20:00:00	7	Dirección del viento	1.61
120783	7	Sololá	704	Santa Lucía Utatlán 	7	Santa Rita 	10	Octubre	2023-02-10T00:00:00	2024-11-08T20:00:00	1	Precipitación	0
120784	7	Sololá	704	Santa Lucía Utatlán 	7	Santa Rita 	10	Octubre	2023-02-10T00:00:00	2024-11-08T20:00:00	8	Radiación solar	0
120785	7	Sololá	704	Santa Lucía Utatlán 	7	Santa Rita 	10	Octubre	2023-02-10T00:00:00	2024-11-08T21:00:00	2	Temperatura media	20.2
120786	7	Sololá	704	Santa Lucía Utatlán 	7	Santa Rita 	10	Octubre	2023-02-10T00:00:00	2024-11-08T21:00:00	4	Temperatura máxima	20.2
120787	7	Sololá	704	Santa Lucía Utatlán 	7	Santa Rita 	10	Octubre	2023-02-10T00:00:00	2024-11-08T21:00:00	3	Temperatura mínima	18.2
120788	7	Sololá	704	Santa Lucía Utatlán 	7	Santa Rita 	10	Octubre	2023-02-10T00:00:00	2024-11-08T21:00:00	5	Humedad	84
120789	7	Sololá	704	Santa Lucía Utatlán 	7	Santa Rita 	10	Octubre	2023-02-10T00:00:00	2024-11-08T21:00:00	6	Velocidad del viento	4.8
120790	7	Sololá	704	Santa Lucía Utatlán 	7	Santa Rita 	10	Octubre	2023-02-10T00:00:00	2024-11-08T21:00:00	7	Dirección del viento	4.83
120791	7	Sololá	704	Santa Lucía Utatlán 	7	Santa Rita 	10	Octubre	2023-02-10T00:00:00	2024-11-08T21:00:00	1	Precipitación	0
120792	7	Sololá	704	Santa Lucía Utatlán 	7	Santa Rita 	10	Octubre	2023-02-10T00:00:00	2024-11-08T21:00:00	8	Radiación solar	0
120793	7	Sololá	704	Santa Lucía Utatlán 	7	Santa Rita 	10	Octubre	2023-02-10T00:00:00	2024-11-08T22:00:00	2	Temperatura media	19.2
120794	7	Sololá	704	Santa Lucía Utatlán 	7	Santa Rita 	10	Octubre	2023-02-10T00:00:00	2024-11-08T22:00:00	4	Temperatura máxima	20.2
120795	7	Sololá	704	Santa Lucía Utatlán 	7	Santa Rita 	10	Octubre	2023-02-10T00:00:00	2024-11-08T22:00:00	3	Temperatura mínima	19.2
120796	7	Sololá	704	Santa Lucía Utatlán 	7	Santa Rita 	10	Octubre	2023-02-10T00:00:00	2024-11-08T22:00:00	5	Humedad	88
120797	7	Sololá	704	Santa Lucía Utatlán 	7	Santa Rita 	10	Octubre	2023-02-10T00:00:00	2024-11-08T22:00:00	6	Velocidad del viento	4.8
120798	7	Sololá	704	Santa Lucía Utatlán 	7	Santa Rita 	10	Octubre	2023-02-10T00:00:00	2024-11-08T22:00:00	7	Dirección del viento	4.83
120799	7	Sololá	704	Santa Lucía Utatlán 	7	Santa Rita 	10	Octubre	2023-02-10T00:00:00	2024-11-08T22:00:00	1	Precipitación	0
120800	7	Sololá	704	Santa Lucía Utatlán 	7	Santa Rita 	10	Octubre	2023-02-10T00:00:00	2024-11-08T22:00:00	8	Radiación solar	0
120801	7	Sololá	704	Santa Lucía Utatlán 	7	Santa Rita 	10	Octubre	2023-02-10T00:00:00	2024-11-08T23:00:00	2	Temperatura media	18.8
120802	7	Sololá	704	Santa Lucía Utatlán 	7	Santa Rita 	10	Octubre	2023-02-10T00:00:00	2024-11-08T23:00:00	4	Temperatura máxima	19.4
120803	7	Sololá	704	Santa Lucía Utatlán 	7	Santa Rita 	10	Octubre	2023-02-10T00:00:00	2024-11-08T23:00:00	3	Temperatura mínima	18.4
120804	7	Sololá	704	Santa Lucía Utatlán 	7	Santa Rita 	10	Octubre	2023-02-10T00:00:00	2024-11-08T23:00:00	5	Humedad	90
120805	7	Sololá	704	Santa Lucía Utatlán 	7	Santa Rita 	10	Octubre	2023-02-10T00:00:00	2024-11-08T23:00:00	6	Velocidad del viento	3.2
120806	7	Sololá	704	Santa Lucía Utatlán 	7	Santa Rita 	10	Octubre	2023-02-10T00:00:00	2024-11-08T23:00:00	7	Dirección del viento	3.22
120807	7	Sololá	704	Santa Lucía Utatlán 	7	Santa Rita 	10	Octubre	2023-02-10T00:00:00	2024-11-08T23:00:00	1	Precipitación	0
120808	7	Sololá	704	Santa Lucía Utatlán 	7	Santa Rita 	10	Octubre	2023-02-10T00:00:00	2024-11-08T23:00:00	8	Radiación solar	0
120809	7	Sololá	704	Santa Lucía Utatlán 	7	Santa Rita 	10	Octubre	2023-03-10T00:00:00	2024-11-08T00:00:00	2	Temperatura media	17.7
120810	7	Sololá	704	Santa Lucía Utatlán 	7	Santa Rita 	10	Octubre	2023-03-10T00:00:00	2024-11-08T00:00:00	4	Temperatura máxima	18.8
120811	7	Sololá	704	Santa Lucía Utatlán 	7	Santa Rita 	10	Octubre	2023-03-10T00:00:00	2024-11-08T00:00:00	3	Temperatura mínima	17.7
120812	7	Sololá	704	Santa Lucía Utatlán 	7	Santa Rita 	10	Octubre	2023-03-10T00:00:00	2024-11-08T00:00:00	5	Humedad	93
120813	7	Sololá	704	Santa Lucía Utatlán 	7	Santa Rita 	10	Octubre	2023-03-10T00:00:00	2024-11-08T00:00:00	6	Velocidad del viento	3.2
120814	7	Sololá	704	Santa Lucía Utatlán 	7	Santa Rita 	10	Octubre	2023-03-10T00:00:00	2024-11-08T00:00:00	7	Dirección del viento	3.22
120815	7	Sololá	704	Santa Lucía Utatlán 	7	Santa Rita 	10	Octubre	2023-03-10T00:00:00	2024-11-08T00:00:00	1	Precipitación	0
120816	7	Sololá	704	Santa Lucía Utatlán 	7	Santa Rita 	10	Octubre	2023-03-10T00:00:00	2024-11-08T00:00:00	8	Radiación solar	0
120817	7	Sololá	704	Santa Lucía Utatlán 	7	Santa Rita 	10	Octubre	2023-03-10T00:00:00	2024-11-08T01:00:00	2	Temperatura media	17.1
120818	7	Sololá	704	Santa Lucía Utatlán 	7	Santa Rita 	10	Octubre	2023-03-10T00:00:00	2024-11-08T01:00:00	4	Temperatura máxima	17.7
120819	7	Sololá	704	Santa Lucía Utatlán 	7	Santa Rita 	10	Octubre	2023-03-10T00:00:00	2024-11-08T01:00:00	3	Temperatura mínima	17.1
120820	7	Sololá	704	Santa Lucía Utatlán 	7	Santa Rita 	10	Octubre	2023-03-10T00:00:00	2024-11-08T01:00:00	5	Humedad	95
120821	7	Sololá	704	Santa Lucía Utatlán 	7	Santa Rita 	10	Octubre	2023-03-10T00:00:00	2024-11-08T01:00:00	6	Velocidad del viento	1.6
120822	7	Sololá	704	Santa Lucía Utatlán 	7	Santa Rita 	10	Octubre	2023-03-10T00:00:00	2024-11-08T01:00:00	7	Dirección del viento	1.61
120823	7	Sololá	704	Santa Lucía Utatlán 	7	Santa Rita 	10	Octubre	2023-03-10T00:00:00	2024-11-08T01:00:00	1	Precipitación	0
120824	7	Sololá	704	Santa Lucía Utatlán 	7	Santa Rita 	10	Octubre	2023-03-10T00:00:00	2024-11-08T01:00:00	8	Radiación solar	0
120825	7	Sololá	704	Santa Lucía Utatlán 	7	Santa Rita 	10	Octubre	2023-03-10T00:00:00	2024-11-08T02:00:00	2	Temperatura media	17.1
120826	7	Sololá	704	Santa Lucía Utatlán 	7	Santa Rita 	10	Octubre	2023-03-10T00:00:00	2024-11-08T02:00:00	4	Temperatura máxima	17.2
120827	7	Sololá	704	Santa Lucía Utatlán 	7	Santa Rita 	10	Octubre	2023-03-10T00:00:00	2024-11-08T02:00:00	3	Temperatura mínima	17
120828	7	Sololá	704	Santa Lucía Utatlán 	7	Santa Rita 	10	Octubre	2023-03-10T00:00:00	2024-11-08T02:00:00	5	Humedad	94
120829	7	Sololá	704	Santa Lucía Utatlán 	7	Santa Rita 	10	Octubre	2023-03-10T00:00:00	2024-11-08T02:00:00	6	Velocidad del viento	1.6
120830	7	Sololá	704	Santa Lucía Utatlán 	7	Santa Rita 	10	Octubre	2023-03-10T00:00:00	2024-11-08T02:00:00	7	Dirección del viento	1.61
120831	7	Sololá	704	Santa Lucía Utatlán 	7	Santa Rita 	10	Octubre	2023-03-10T00:00:00	2024-11-08T02:00:00	1	Precipitación	0
120832	7	Sololá	704	Santa Lucía Utatlán 	7	Santa Rita 	10	Octubre	2023-03-10T00:00:00	2024-11-08T02:00:00	8	Radiación solar	0
120833	7	Sololá	704	Santa Lucía Utatlán 	7	Santa Rita 	10	Octubre	2023-03-10T00:00:00	2024-11-08T03:00:00	2	Temperatura media	18.6
120834	7	Sololá	704	Santa Lucía Utatlán 	7	Santa Rita 	10	Octubre	2023-03-10T00:00:00	2024-11-08T03:00:00	4	Temperatura máxima	18.6
120835	7	Sololá	704	Santa Lucía Utatlán 	7	Santa Rita 	10	Octubre	2023-03-10T00:00:00	2024-11-08T03:00:00	3	Temperatura mínima	16.9
120836	7	Sololá	704	Santa Lucía Utatlán 	7	Santa Rita 	10	Octubre	2023-03-10T00:00:00	2024-11-08T03:00:00	5	Humedad	94
120837	7	Sololá	704	Santa Lucía Utatlán 	7	Santa Rita 	10	Octubre	2023-03-10T00:00:00	2024-11-08T03:00:00	6	Velocidad del viento	1.6
120838	7	Sololá	704	Santa Lucía Utatlán 	7	Santa Rita 	10	Octubre	2023-03-10T00:00:00	2024-11-08T03:00:00	7	Dirección del viento	1.61
120839	7	Sololá	704	Santa Lucía Utatlán 	7	Santa Rita 	10	Octubre	2023-03-10T00:00:00	2024-11-08T03:00:00	1	Precipitación	0
120840	7	Sololá	704	Santa Lucía Utatlán 	7	Santa Rita 	10	Octubre	2023-03-10T00:00:00	2024-11-08T03:00:00	8	Radiación solar	0
120841	7	Sololá	704	Santa Lucía Utatlán 	7	Santa Rita 	10	Octubre	2023-03-10T00:00:00	2024-11-08T04:00:00	2	Temperatura media	21.9
120842	7	Sololá	704	Santa Lucía Utatlán 	7	Santa Rita 	10	Octubre	2023-03-10T00:00:00	2024-11-08T04:00:00	4	Temperatura máxima	21.9
120843	7	Sololá	704	Santa Lucía Utatlán 	7	Santa Rita 	10	Octubre	2023-03-10T00:00:00	2024-11-08T04:00:00	3	Temperatura mínima	18.6
120844	7	Sololá	704	Santa Lucía Utatlán 	7	Santa Rita 	10	Octubre	2023-03-10T00:00:00	2024-11-08T04:00:00	5	Humedad	86
120845	7	Sololá	704	Santa Lucía Utatlán 	7	Santa Rita 	10	Octubre	2023-03-10T00:00:00	2024-11-08T04:00:00	6	Velocidad del viento	3.2
120846	7	Sololá	704	Santa Lucía Utatlán 	7	Santa Rita 	10	Octubre	2023-03-10T00:00:00	2024-11-08T04:00:00	7	Dirección del viento	3.22
120847	7	Sololá	704	Santa Lucía Utatlán 	7	Santa Rita 	10	Octubre	2023-03-10T00:00:00	2024-11-08T04:00:00	1	Precipitación	0
120848	7	Sololá	704	Santa Lucía Utatlán 	7	Santa Rita 	10	Octubre	2023-03-10T00:00:00	2024-11-08T04:00:00	8	Radiación solar	0
120849	7	Sololá	704	Santa Lucía Utatlán 	7	Santa Rita 	10	Octubre	2023-03-10T00:00:00	2024-11-08T05:00:00	2	Temperatura media	22.8
120850	7	Sololá	704	Santa Lucía Utatlán 	7	Santa Rita 	10	Octubre	2023-03-10T00:00:00	2024-11-08T05:00:00	4	Temperatura máxima	23.2
120851	7	Sololá	704	Santa Lucía Utatlán 	7	Santa Rita 	10	Octubre	2023-03-10T00:00:00	2024-11-08T05:00:00	3	Temperatura mínima	21.9
120852	7	Sololá	704	Santa Lucía Utatlán 	7	Santa Rita 	10	Octubre	2023-03-10T00:00:00	2024-11-08T05:00:00	5	Humedad	80
120853	7	Sololá	704	Santa Lucía Utatlán 	7	Santa Rita 	10	Octubre	2023-03-10T00:00:00	2024-11-08T05:00:00	6	Velocidad del viento	4.8
120854	7	Sololá	704	Santa Lucía Utatlán 	7	Santa Rita 	10	Octubre	2023-03-10T00:00:00	2024-11-08T05:00:00	7	Dirección del viento	4.83
120855	7	Sololá	704	Santa Lucía Utatlán 	7	Santa Rita 	10	Octubre	2023-03-10T00:00:00	2024-11-08T05:00:00	1	Precipitación	0
120856	7	Sololá	704	Santa Lucía Utatlán 	7	Santa Rita 	10	Octubre	2023-03-10T00:00:00	2024-11-08T05:00:00	8	Radiación solar	0
120857	7	Sololá	704	Santa Lucía Utatlán 	7	Santa Rita 	10	Octubre	2023-03-10T00:00:00	2024-11-08T06:00:00	2	Temperatura media	23.9
120858	7	Sololá	704	Santa Lucía Utatlán 	7	Santa Rita 	10	Octubre	2023-03-10T00:00:00	2024-11-08T06:00:00	4	Temperatura máxima	23.9
120859	7	Sololá	704	Santa Lucía Utatlán 	7	Santa Rita 	10	Octubre	2023-03-10T00:00:00	2024-11-08T06:00:00	3	Temperatura mínima	22.3
120860	7	Sololá	704	Santa Lucía Utatlán 	7	Santa Rita 	10	Octubre	2023-03-10T00:00:00	2024-11-08T06:00:00	5	Humedad	70
120861	7	Sololá	704	Santa Lucía Utatlán 	7	Santa Rita 	10	Octubre	2023-03-10T00:00:00	2024-11-08T06:00:00	6	Velocidad del viento	6.4
120862	7	Sololá	704	Santa Lucía Utatlán 	7	Santa Rita 	10	Octubre	2023-03-10T00:00:00	2024-11-08T06:00:00	7	Dirección del viento	6.44
120863	7	Sololá	704	Santa Lucía Utatlán 	7	Santa Rita 	10	Octubre	2023-03-10T00:00:00	2024-11-08T06:00:00	1	Precipitación	0
120864	7	Sololá	704	Santa Lucía Utatlán 	7	Santa Rita 	10	Octubre	2023-03-10T00:00:00	2024-11-08T06:00:00	8	Radiación solar	1
120865	7	Sololá	704	Santa Lucía Utatlán 	7	Santa Rita 	10	Octubre	2023-03-10T00:00:00	2024-11-08T07:00:00	2	Temperatura media	24.6
120866	7	Sololá	704	Santa Lucía Utatlán 	7	Santa Rita 	10	Octubre	2023-03-10T00:00:00	2024-11-08T07:00:00	4	Temperatura máxima	24.9
120867	7	Sololá	704	Santa Lucía Utatlán 	7	Santa Rita 	10	Octubre	2023-03-10T00:00:00	2024-11-08T07:00:00	3	Temperatura mínima	23.9
120868	7	Sololá	704	Santa Lucía Utatlán 	7	Santa Rita 	10	Octubre	2023-03-10T00:00:00	2024-11-08T07:00:00	5	Humedad	73
120869	7	Sololá	704	Santa Lucía Utatlán 	7	Santa Rita 	10	Octubre	2023-03-10T00:00:00	2024-11-08T07:00:00	6	Velocidad del viento	8
120870	7	Sololá	704	Santa Lucía Utatlán 	7	Santa Rita 	10	Octubre	2023-03-10T00:00:00	2024-11-08T07:00:00	7	Dirección del viento	8.05
120871	7	Sololá	704	Santa Lucía Utatlán 	7	Santa Rita 	10	Octubre	2023-03-10T00:00:00	2024-11-08T07:00:00	1	Precipitación	0
120872	7	Sololá	704	Santa Lucía Utatlán 	7	Santa Rita 	10	Octubre	2023-03-10T00:00:00	2024-11-08T07:00:00	8	Radiación solar	53
120873	7	Sololá	704	Santa Lucía Utatlán 	7	Santa Rita 	10	Octubre	2023-03-10T00:00:00	2024-11-08T08:00:00	2	Temperatura media	24.7
120874	7	Sololá	704	Santa Lucía Utatlán 	7	Santa Rita 	10	Octubre	2023-03-10T00:00:00	2024-11-08T08:00:00	4	Temperatura máxima	24.8
120875	7	Sololá	704	Santa Lucía Utatlán 	7	Santa Rita 	10	Octubre	2023-03-10T00:00:00	2024-11-08T08:00:00	3	Temperatura mínima	23.9
120876	7	Sololá	704	Santa Lucía Utatlán 	7	Santa Rita 	10	Octubre	2023-03-10T00:00:00	2024-11-08T08:00:00	5	Humedad	74
120877	7	Sololá	704	Santa Lucía Utatlán 	7	Santa Rita 	10	Octubre	2023-03-10T00:00:00	2024-11-08T08:00:00	6	Velocidad del viento	8
120878	7	Sololá	704	Santa Lucía Utatlán 	7	Santa Rita 	10	Octubre	2023-03-10T00:00:00	2024-11-08T08:00:00	7	Dirección del viento	8.05
120879	7	Sololá	704	Santa Lucía Utatlán 	7	Santa Rita 	10	Octubre	2023-03-10T00:00:00	2024-11-08T08:00:00	1	Precipitación	0
120880	7	Sololá	704	Santa Lucía Utatlán 	7	Santa Rita 	10	Octubre	2023-03-10T00:00:00	2024-11-08T08:00:00	8	Radiación solar	311
120881	7	Sololá	704	Santa Lucía Utatlán 	7	Santa Rita 	10	Octubre	2023-03-10T00:00:00	2024-11-08T09:00:00	2	Temperatura media	25.3
120882	7	Sololá	704	Santa Lucía Utatlán 	7	Santa Rita 	10	Octubre	2023-03-10T00:00:00	2024-11-08T09:00:00	4	Temperatura máxima	25.3
120883	7	Sololá	704	Santa Lucía Utatlán 	7	Santa Rita 	10	Octubre	2023-03-10T00:00:00	2024-11-08T09:00:00	3	Temperatura mínima	24.3
120884	7	Sololá	704	Santa Lucía Utatlán 	7	Santa Rita 	10	Octubre	2023-03-10T00:00:00	2024-11-08T09:00:00	5	Humedad	73
120885	7	Sololá	704	Santa Lucía Utatlán 	7	Santa Rita 	10	Octubre	2023-03-10T00:00:00	2024-11-08T09:00:00	6	Velocidad del viento	8
120886	7	Sololá	704	Santa Lucía Utatlán 	7	Santa Rita 	10	Octubre	2023-03-10T00:00:00	2024-11-08T09:00:00	7	Dirección del viento	8.05
120887	7	Sololá	704	Santa Lucía Utatlán 	7	Santa Rita 	10	Octubre	2023-03-10T00:00:00	2024-11-08T09:00:00	1	Precipitación	0
120888	7	Sololá	704	Santa Lucía Utatlán 	7	Santa Rita 	10	Octubre	2023-03-10T00:00:00	2024-11-08T09:00:00	8	Radiación solar	531
120889	7	Sololá	704	Santa Lucía Utatlán 	7	Santa Rita 	10	Octubre	2023-03-10T00:00:00	2024-11-08T10:00:00	2	Temperatura media	25.2
120890	7	Sololá	704	Santa Lucía Utatlán 	7	Santa Rita 	10	Octubre	2023-03-10T00:00:00	2024-11-08T10:00:00	4	Temperatura máxima	26
120891	7	Sololá	704	Santa Lucía Utatlán 	7	Santa Rita 	10	Octubre	2023-03-10T00:00:00	2024-11-08T10:00:00	3	Temperatura mínima	25.1
120892	7	Sololá	704	Santa Lucía Utatlán 	7	Santa Rita 	10	Octubre	2023-03-10T00:00:00	2024-11-08T10:00:00	5	Humedad	76
120893	7	Sololá	704	Santa Lucía Utatlán 	7	Santa Rita 	10	Octubre	2023-03-10T00:00:00	2024-11-08T10:00:00	6	Velocidad del viento	8
120894	7	Sololá	704	Santa Lucía Utatlán 	7	Santa Rita 	10	Octubre	2023-03-10T00:00:00	2024-11-08T10:00:00	7	Dirección del viento	8.05
120895	7	Sololá	704	Santa Lucía Utatlán 	7	Santa Rita 	10	Octubre	2023-03-10T00:00:00	2024-11-08T10:00:00	1	Precipitación	0
120896	7	Sololá	704	Santa Lucía Utatlán 	7	Santa Rita 	10	Octubre	2023-03-10T00:00:00	2024-11-08T10:00:00	8	Radiación solar	423
120897	7	Sololá	704	Santa Lucía Utatlán 	7	Santa Rita 	10	Octubre	2023-03-10T00:00:00	2024-11-08T11:00:00	2	Temperatura media	23.2
120898	7	Sololá	704	Santa Lucía Utatlán 	7	Santa Rita 	10	Octubre	2023-03-10T00:00:00	2024-11-08T11:00:00	4	Temperatura máxima	25.2
120899	7	Sololá	704	Santa Lucía Utatlán 	7	Santa Rita 	10	Octubre	2023-03-10T00:00:00	2024-11-08T11:00:00	3	Temperatura mínima	23.2
120900	7	Sololá	704	Santa Lucía Utatlán 	7	Santa Rita 	10	Octubre	2023-03-10T00:00:00	2024-11-08T11:00:00	5	Humedad	86
120901	7	Sololá	704	Santa Lucía Utatlán 	7	Santa Rita 	10	Octubre	2023-03-10T00:00:00	2024-11-08T11:00:00	6	Velocidad del viento	8
120902	7	Sololá	704	Santa Lucía Utatlán 	7	Santa Rita 	10	Octubre	2023-03-10T00:00:00	2024-11-08T11:00:00	7	Dirección del viento	8.05
120903	7	Sololá	704	Santa Lucía Utatlán 	7	Santa Rita 	10	Octubre	2023-03-10T00:00:00	2024-11-08T11:00:00	1	Precipitación	0
120904	7	Sololá	704	Santa Lucía Utatlán 	7	Santa Rita 	10	Octubre	2023-03-10T00:00:00	2024-11-08T11:00:00	8	Radiación solar	1031
120905	7	Sololá	704	Santa Lucía Utatlán 	7	Santa Rita 	10	Octubre	2023-03-10T00:00:00	2024-11-08T12:00:00	2	Temperatura media	22.3
120906	7	Sololá	704	Santa Lucía Utatlán 	7	Santa Rita 	10	Octubre	2023-03-10T00:00:00	2024-11-08T12:00:00	4	Temperatura máxima	23.2
120907	7	Sololá	704	Santa Lucía Utatlán 	7	Santa Rita 	10	Octubre	2023-03-10T00:00:00	2024-11-08T12:00:00	3	Temperatura mínima	22.3
120908	7	Sololá	704	Santa Lucía Utatlán 	7	Santa Rita 	10	Octubre	2023-03-10T00:00:00	2024-11-08T12:00:00	5	Humedad	89
120909	7	Sololá	704	Santa Lucía Utatlán 	7	Santa Rita 	10	Octubre	2023-03-10T00:00:00	2024-11-08T12:00:00	6	Velocidad del viento	4.8
120910	7	Sololá	704	Santa Lucía Utatlán 	7	Santa Rita 	10	Octubre	2023-03-10T00:00:00	2024-11-08T12:00:00	7	Dirección del viento	4.83
120911	7	Sololá	704	Santa Lucía Utatlán 	7	Santa Rita 	10	Octubre	2023-03-10T00:00:00	2024-11-08T12:00:00	1	Precipitación	0
120912	7	Sololá	704	Santa Lucía Utatlán 	7	Santa Rita 	10	Octubre	2023-03-10T00:00:00	2024-11-08T12:00:00	8	Radiación solar	866
120913	7	Sololá	704	Santa Lucía Utatlán 	7	Santa Rita 	10	Octubre	2023-03-10T00:00:00	2024-11-08T13:00:00	2	Temperatura media	20.8
120914	7	Sololá	704	Santa Lucía Utatlán 	7	Santa Rita 	10	Octubre	2023-03-10T00:00:00	2024-11-08T13:00:00	4	Temperatura máxima	22.3
120915	7	Sololá	704	Santa Lucía Utatlán 	7	Santa Rita 	10	Octubre	2023-03-10T00:00:00	2024-11-08T13:00:00	3	Temperatura mínima	20.8
120916	7	Sololá	704	Santa Lucía Utatlán 	7	Santa Rita 	10	Octubre	2023-03-10T00:00:00	2024-11-08T13:00:00	5	Humedad	94
120917	7	Sololá	704	Santa Lucía Utatlán 	7	Santa Rita 	10	Octubre	2023-03-10T00:00:00	2024-11-08T13:00:00	6	Velocidad del viento	4.8
120918	7	Sololá	704	Santa Lucía Utatlán 	7	Santa Rita 	10	Octubre	2023-03-10T00:00:00	2024-11-08T13:00:00	7	Dirección del viento	4.83
120919	7	Sololá	704	Santa Lucía Utatlán 	7	Santa Rita 	10	Octubre	2023-03-10T00:00:00	2024-11-08T13:00:00	1	Precipitación	0
120920	7	Sololá	704	Santa Lucía Utatlán 	7	Santa Rita 	10	Octubre	2023-03-10T00:00:00	2024-11-08T13:00:00	8	Radiación solar	900
120921	7	Sololá	704	Santa Lucía Utatlán 	7	Santa Rita 	10	Octubre	2023-03-10T00:00:00	2024-11-08T14:00:00	2	Temperatura media	20.3
120922	7	Sololá	704	Santa Lucía Utatlán 	7	Santa Rita 	10	Octubre	2023-03-10T00:00:00	2024-11-08T14:00:00	4	Temperatura máxima	20.8
120923	7	Sololá	704	Santa Lucía Utatlán 	7	Santa Rita 	10	Octubre	2023-03-10T00:00:00	2024-11-08T14:00:00	3	Temperatura mínima	20.3
120924	7	Sololá	704	Santa Lucía Utatlán 	7	Santa Rita 	10	Octubre	2023-03-10T00:00:00	2024-11-08T14:00:00	5	Humedad	95
120925	7	Sololá	704	Santa Lucía Utatlán 	7	Santa Rita 	10	Octubre	2023-03-10T00:00:00	2024-11-08T14:00:00	6	Velocidad del viento	3.2
120926	7	Sololá	704	Santa Lucía Utatlán 	7	Santa Rita 	10	Octubre	2023-03-10T00:00:00	2024-11-08T14:00:00	7	Dirección del viento	3.22
120927	7	Sololá	704	Santa Lucía Utatlán 	7	Santa Rita 	10	Octubre	2023-03-10T00:00:00	2024-11-08T14:00:00	1	Precipitación	0
120928	7	Sololá	704	Santa Lucía Utatlán 	7	Santa Rita 	10	Octubre	2023-03-10T00:00:00	2024-11-08T14:00:00	8	Radiación solar	716
120929	7	Sololá	704	Santa Lucía Utatlán 	7	Santa Rita 	10	Octubre	2023-03-10T00:00:00	2024-11-08T15:00:00	2	Temperatura media	20.3
120930	7	Sololá	704	Santa Lucía Utatlán 	7	Santa Rita 	10	Octubre	2023-03-10T00:00:00	2024-11-08T15:00:00	4	Temperatura máxima	20.5
120931	7	Sololá	704	Santa Lucía Utatlán 	7	Santa Rita 	10	Octubre	2023-03-10T00:00:00	2024-11-08T15:00:00	3	Temperatura mínima	20.3
120932	7	Sololá	704	Santa Lucía Utatlán 	7	Santa Rita 	10	Octubre	2023-03-10T00:00:00	2024-11-08T15:00:00	5	Humedad	94
120933	7	Sololá	704	Santa Lucía Utatlán 	7	Santa Rita 	10	Octubre	2023-03-10T00:00:00	2024-11-08T15:00:00	6	Velocidad del viento	0
120934	7	Sololá	704	Santa Lucía Utatlán 	7	Santa Rita 	10	Octubre	2023-03-10T00:00:00	2024-11-08T15:00:00	7	Dirección del viento	0
120935	7	Sololá	704	Santa Lucía Utatlán 	7	Santa Rita 	10	Octubre	2023-03-10T00:00:00	2024-11-08T15:00:00	1	Precipitación	0
120936	7	Sololá	704	Santa Lucía Utatlán 	7	Santa Rita 	10	Octubre	2023-03-10T00:00:00	2024-11-08T15:00:00	8	Radiación solar	159
120937	7	Sololá	704	Santa Lucía Utatlán 	7	Santa Rita 	10	Octubre	2023-03-10T00:00:00	2024-11-08T16:00:00	2	Temperatura media	19.6
120938	7	Sololá	704	Santa Lucía Utatlán 	7	Santa Rita 	10	Octubre	2023-03-10T00:00:00	2024-11-08T16:00:00	4	Temperatura máxima	20.3
120939	7	Sololá	704	Santa Lucía Utatlán 	7	Santa Rita 	10	Octubre	2023-03-10T00:00:00	2024-11-08T16:00:00	3	Temperatura mínima	19.4
120940	7	Sololá	704	Santa Lucía Utatlán 	7	Santa Rita 	10	Octubre	2023-03-10T00:00:00	2024-11-08T16:00:00	5	Humedad	94
120941	7	Sololá	704	Santa Lucía Utatlán 	7	Santa Rita 	10	Octubre	2023-03-10T00:00:00	2024-11-08T16:00:00	6	Velocidad del viento	1.6
120942	7	Sololá	704	Santa Lucía Utatlán 	7	Santa Rita 	10	Octubre	2023-03-10T00:00:00	2024-11-08T16:00:00	7	Dirección del viento	1.61
120943	7	Sololá	704	Santa Lucía Utatlán 	7	Santa Rita 	10	Octubre	2023-03-10T00:00:00	2024-11-08T16:00:00	1	Precipitación	0
120944	7	Sololá	704	Santa Lucía Utatlán 	7	Santa Rita 	10	Octubre	2023-03-10T00:00:00	2024-11-08T16:00:00	8	Radiación solar	100
120945	7	Sololá	704	Santa Lucía Utatlán 	7	Santa Rita 	10	Octubre	2023-03-10T00:00:00	2024-11-08T17:00:00	2	Temperatura media	19.5
120946	7	Sololá	704	Santa Lucía Utatlán 	7	Santa Rita 	10	Octubre	2023-03-10T00:00:00	2024-11-08T17:00:00	4	Temperatura máxima	19.7
120947	7	Sololá	704	Santa Lucía Utatlán 	7	Santa Rita 	10	Octubre	2023-03-10T00:00:00	2024-11-08T17:00:00	3	Temperatura mínima	19.5
120948	7	Sololá	704	Santa Lucía Utatlán 	7	Santa Rita 	10	Octubre	2023-03-10T00:00:00	2024-11-08T17:00:00	5	Humedad	95
120949	7	Sololá	704	Santa Lucía Utatlán 	7	Santa Rita 	10	Octubre	2023-03-10T00:00:00	2024-11-08T17:00:00	6	Velocidad del viento	1.6
120950	7	Sololá	704	Santa Lucía Utatlán 	7	Santa Rita 	10	Octubre	2023-03-10T00:00:00	2024-11-08T17:00:00	7	Dirección del viento	1.61
120951	7	Sololá	704	Santa Lucía Utatlán 	7	Santa Rita 	10	Octubre	2023-03-10T00:00:00	2024-11-08T17:00:00	1	Precipitación	1.4
120952	7	Sololá	704	Santa Lucía Utatlán 	7	Santa Rita 	10	Octubre	2023-03-10T00:00:00	2024-11-08T17:00:00	8	Radiación solar	60
120953	7	Sololá	704	Santa Lucía Utatlán 	7	Santa Rita 	10	Octubre	2023-03-10T00:00:00	2024-11-08T18:00:00	2	Temperatura media	19.6
120954	7	Sololá	704	Santa Lucía Utatlán 	7	Santa Rita 	10	Octubre	2023-03-10T00:00:00	2024-11-08T18:00:00	4	Temperatura máxima	19.6
120955	7	Sololá	704	Santa Lucía Utatlán 	7	Santa Rita 	10	Octubre	2023-03-10T00:00:00	2024-11-08T18:00:00	3	Temperatura mínima	19.4
120956	7	Sololá	704	Santa Lucía Utatlán 	7	Santa Rita 	10	Octubre	2023-03-10T00:00:00	2024-11-08T18:00:00	5	Humedad	97
120957	7	Sololá	704	Santa Lucía Utatlán 	7	Santa Rita 	10	Octubre	2023-03-10T00:00:00	2024-11-08T18:00:00	6	Velocidad del viento	0
120958	7	Sololá	704	Santa Lucía Utatlán 	7	Santa Rita 	10	Octubre	2023-03-10T00:00:00	2024-11-08T18:00:00	7	Dirección del viento	0
120959	7	Sololá	704	Santa Lucía Utatlán 	7	Santa Rita 	10	Octubre	2023-03-10T00:00:00	2024-11-08T18:00:00	1	Precipitación	3
120960	7	Sololá	704	Santa Lucía Utatlán 	7	Santa Rita 	10	Octubre	2023-03-10T00:00:00	2024-11-08T18:00:00	8	Radiación solar	11
120961	7	Sololá	704	Santa Lucía Utatlán 	7	Santa Rita 	10	Octubre	2023-03-10T00:00:00	2024-11-08T19:00:00	2	Temperatura media	19.3
120962	7	Sololá	704	Santa Lucía Utatlán 	7	Santa Rita 	10	Octubre	2023-03-10T00:00:00	2024-11-08T19:00:00	4	Temperatura máxima	19.6
120963	7	Sololá	704	Santa Lucía Utatlán 	7	Santa Rita 	10	Octubre	2023-03-10T00:00:00	2024-11-08T19:00:00	3	Temperatura mínima	19.3
120964	7	Sololá	704	Santa Lucía Utatlán 	7	Santa Rita 	10	Octubre	2023-03-10T00:00:00	2024-11-08T19:00:00	5	Humedad	95
120965	7	Sololá	704	Santa Lucía Utatlán 	7	Santa Rita 	10	Octubre	2023-03-10T00:00:00	2024-11-08T19:00:00	6	Velocidad del viento	1.6
120966	7	Sololá	704	Santa Lucía Utatlán 	7	Santa Rita 	10	Octubre	2023-03-10T00:00:00	2024-11-08T19:00:00	7	Dirección del viento	1.61
120967	7	Sololá	704	Santa Lucía Utatlán 	7	Santa Rita 	10	Octubre	2023-03-10T00:00:00	2024-11-08T19:00:00	1	Precipitación	3.4
120968	7	Sololá	704	Santa Lucía Utatlán 	7	Santa Rita 	10	Octubre	2023-03-10T00:00:00	2024-11-08T19:00:00	8	Radiación solar	0
120969	7	Sololá	704	Santa Lucía Utatlán 	7	Santa Rita 	10	Octubre	2023-03-10T00:00:00	2024-11-08T20:00:00	2	Temperatura media	18.2
120970	7	Sololá	704	Santa Lucía Utatlán 	7	Santa Rita 	10	Octubre	2023-03-10T00:00:00	2024-11-08T20:00:00	4	Temperatura máxima	19.3
120971	7	Sololá	704	Santa Lucía Utatlán 	7	Santa Rita 	10	Octubre	2023-03-10T00:00:00	2024-11-08T20:00:00	3	Temperatura mínima	18.2
120972	7	Sololá	704	Santa Lucía Utatlán 	7	Santa Rita 	10	Octubre	2023-03-10T00:00:00	2024-11-08T20:00:00	5	Humedad	95
120973	7	Sololá	704	Santa Lucía Utatlán 	7	Santa Rita 	10	Octubre	2023-03-10T00:00:00	2024-11-08T20:00:00	6	Velocidad del viento	1.6
120974	7	Sololá	704	Santa Lucía Utatlán 	7	Santa Rita 	10	Octubre	2023-03-10T00:00:00	2024-11-08T20:00:00	7	Dirección del viento	1.61
120975	7	Sololá	704	Santa Lucía Utatlán 	7	Santa Rita 	10	Octubre	2023-03-10T00:00:00	2024-11-08T20:00:00	1	Precipitación	0.2
120976	7	Sololá	704	Santa Lucía Utatlán 	7	Santa Rita 	10	Octubre	2023-03-10T00:00:00	2024-11-08T20:00:00	8	Radiación solar	0
120977	7	Sololá	704	Santa Lucía Utatlán 	7	Santa Rita 	10	Octubre	2023-03-10T00:00:00	2024-11-08T21:00:00	2	Temperatura media	17.6
120978	7	Sololá	704	Santa Lucía Utatlán 	7	Santa Rita 	10	Octubre	2023-03-10T00:00:00	2024-11-08T21:00:00	4	Temperatura máxima	18.2
120979	7	Sololá	704	Santa Lucía Utatlán 	7	Santa Rita 	10	Octubre	2023-03-10T00:00:00	2024-11-08T21:00:00	3	Temperatura mínima	17.6
120980	7	Sololá	704	Santa Lucía Utatlán 	7	Santa Rita 	10	Octubre	2023-03-10T00:00:00	2024-11-08T21:00:00	5	Humedad	95
120981	7	Sololá	704	Santa Lucía Utatlán 	7	Santa Rita 	10	Octubre	2023-03-10T00:00:00	2024-11-08T21:00:00	6	Velocidad del viento	1.6
120982	7	Sololá	704	Santa Lucía Utatlán 	7	Santa Rita 	10	Octubre	2023-03-10T00:00:00	2024-11-08T21:00:00	7	Dirección del viento	1.61
120983	7	Sololá	704	Santa Lucía Utatlán 	7	Santa Rita 	10	Octubre	2023-03-10T00:00:00	2024-11-08T21:00:00	1	Precipitación	0
120984	7	Sololá	704	Santa Lucía Utatlán 	7	Santa Rita 	10	Octubre	2023-03-10T00:00:00	2024-11-08T21:00:00	8	Radiación solar	0
120985	7	Sololá	704	Santa Lucía Utatlán 	7	Santa Rita 	10	Octubre	2023-03-10T00:00:00	2024-11-08T22:00:00	2	Temperatura media	17.5
120986	7	Sololá	704	Santa Lucía Utatlán 	7	Santa Rita 	10	Octubre	2023-03-10T00:00:00	2024-11-08T22:00:00	4	Temperatura máxima	17.7
120987	7	Sololá	704	Santa Lucía Utatlán 	7	Santa Rita 	10	Octubre	2023-03-10T00:00:00	2024-11-08T22:00:00	3	Temperatura mínima	17.4
120988	7	Sololá	704	Santa Lucía Utatlán 	7	Santa Rita 	10	Octubre	2023-03-10T00:00:00	2024-11-08T22:00:00	5	Humedad	96
120989	7	Sololá	704	Santa Lucía Utatlán 	7	Santa Rita 	10	Octubre	2023-03-10T00:00:00	2024-11-08T22:00:00	6	Velocidad del viento	1.6
120990	7	Sololá	704	Santa Lucía Utatlán 	7	Santa Rita 	10	Octubre	2023-03-10T00:00:00	2024-11-08T22:00:00	7	Dirección del viento	1.61
120991	7	Sololá	704	Santa Lucía Utatlán 	7	Santa Rita 	10	Octubre	2023-03-10T00:00:00	2024-11-08T22:00:00	1	Precipitación	0
120992	7	Sololá	704	Santa Lucía Utatlán 	7	Santa Rita 	10	Octubre	2023-03-10T00:00:00	2024-11-08T22:00:00	8	Radiación solar	0
120993	7	Sololá	704	Santa Lucía Utatlán 	7	Santa Rita 	10	Octubre	2023-03-10T00:00:00	2024-11-08T23:00:00	2	Temperatura media	17.5
120994	7	Sololá	704	Santa Lucía Utatlán 	7	Santa Rita 	10	Octubre	2023-03-10T00:00:00	2024-11-08T23:00:00	4	Temperatura máxima	17.6
120995	7	Sololá	704	Santa Lucía Utatlán 	7	Santa Rita 	10	Octubre	2023-03-10T00:00:00	2024-11-08T23:00:00	3	Temperatura mínima	17.4
120996	7	Sololá	704	Santa Lucía Utatlán 	7	Santa Rita 	10	Octubre	2023-03-10T00:00:00	2024-11-08T23:00:00	5	Humedad	95
120997	7	Sololá	704	Santa Lucía Utatlán 	7	Santa Rita 	10	Octubre	2023-03-10T00:00:00	2024-11-08T23:00:00	6	Velocidad del viento	1.6
120998	7	Sololá	704	Santa Lucía Utatlán 	7	Santa Rita 	10	Octubre	2023-03-10T00:00:00	2024-11-08T23:00:00	7	Dirección del viento	1.61
120999	7	Sololá	704	Santa Lucía Utatlán 	7	Santa Rita 	10	Octubre	2023-03-10T00:00:00	2024-11-08T23:00:00	1	Precipitación	0
121000	7	Sololá	704	Santa Lucía Utatlán 	7	Santa Rita 	10	Octubre	2023-03-10T00:00:00	2024-11-08T23:00:00	8	Radiación solar	0
121001	7	Sololá	704	Santa Lucía Utatlán 	7	Santa Rita 	10	Octubre	2023-04-10T00:00:00	2024-11-08T00:00:00	2	Temperatura media	17.3
121002	7	Sololá	704	Santa Lucía Utatlán 	7	Santa Rita 	10	Octubre	2023-04-10T00:00:00	2024-11-08T00:00:00	4	Temperatura máxima	17.6
121003	7	Sololá	704	Santa Lucía Utatlán 	7	Santa Rita 	10	Octubre	2023-04-10T00:00:00	2024-11-08T00:00:00	3	Temperatura mínima	17.3
121004	7	Sololá	704	Santa Lucía Utatlán 	7	Santa Rita 	10	Octubre	2023-04-10T00:00:00	2024-11-08T00:00:00	5	Humedad	95
121005	7	Sololá	704	Santa Lucía Utatlán 	7	Santa Rita 	10	Octubre	2023-04-10T00:00:00	2024-11-08T00:00:00	6	Velocidad del viento	1.6
121006	7	Sololá	704	Santa Lucía Utatlán 	7	Santa Rita 	10	Octubre	2023-04-10T00:00:00	2024-11-08T00:00:00	7	Dirección del viento	1.61
121007	7	Sololá	704	Santa Lucía Utatlán 	7	Santa Rita 	10	Octubre	2023-04-10T00:00:00	2024-11-08T00:00:00	1	Precipitación	0
121008	7	Sololá	704	Santa Lucía Utatlán 	7	Santa Rita 	10	Octubre	2023-04-10T00:00:00	2024-11-08T00:00:00	8	Radiación solar	0
121009	7	Sololá	704	Santa Lucía Utatlán 	7	Santa Rita 	10	Octubre	2023-04-10T00:00:00	2024-11-08T01:00:00	2	Temperatura media	17.2
121010	7	Sololá	704	Santa Lucía Utatlán 	7	Santa Rita 	10	Octubre	2023-04-10T00:00:00	2024-11-08T01:00:00	4	Temperatura máxima	17.4
121011	7	Sololá	704	Santa Lucía Utatlán 	7	Santa Rita 	10	Octubre	2023-04-10T00:00:00	2024-11-08T01:00:00	3	Temperatura mínima	17.2
121012	7	Sololá	704	Santa Lucía Utatlán 	7	Santa Rita 	10	Octubre	2023-04-10T00:00:00	2024-11-08T01:00:00	5	Humedad	95
121013	7	Sololá	704	Santa Lucía Utatlán 	7	Santa Rita 	10	Octubre	2023-04-10T00:00:00	2024-11-08T01:00:00	6	Velocidad del viento	1.6
121014	7	Sololá	704	Santa Lucía Utatlán 	7	Santa Rita 	10	Octubre	2023-04-10T00:00:00	2024-11-08T01:00:00	7	Dirección del viento	1.61
121015	7	Sololá	704	Santa Lucía Utatlán 	7	Santa Rita 	10	Octubre	2023-04-10T00:00:00	2024-11-08T01:00:00	1	Precipitación	0
121016	7	Sololá	704	Santa Lucía Utatlán 	7	Santa Rita 	10	Octubre	2023-04-10T00:00:00	2024-11-08T01:00:00	8	Radiación solar	0
121017	7	Sololá	704	Santa Lucía Utatlán 	7	Santa Rita 	10	Octubre	2023-04-10T00:00:00	2024-11-08T02:00:00	2	Temperatura media	18.1
121018	7	Sololá	704	Santa Lucía Utatlán 	7	Santa Rita 	10	Octubre	2023-04-10T00:00:00	2024-11-08T02:00:00	4	Temperatura máxima	18.1
121019	7	Sololá	704	Santa Lucía Utatlán 	7	Santa Rita 	10	Octubre	2023-04-10T00:00:00	2024-11-08T02:00:00	3	Temperatura mínima	17.1
121020	7	Sololá	704	Santa Lucía Utatlán 	7	Santa Rita 	10	Octubre	2023-04-10T00:00:00	2024-11-08T02:00:00	5	Humedad	96
121021	7	Sololá	704	Santa Lucía Utatlán 	7	Santa Rita 	10	Octubre	2023-04-10T00:00:00	2024-11-08T02:00:00	6	Velocidad del viento	1.6
121022	7	Sololá	704	Santa Lucía Utatlán 	7	Santa Rita 	10	Octubre	2023-04-10T00:00:00	2024-11-08T02:00:00	7	Dirección del viento	1.61
121023	7	Sololá	704	Santa Lucía Utatlán 	7	Santa Rita 	10	Octubre	2023-04-10T00:00:00	2024-11-08T02:00:00	1	Precipitación	0
121024	7	Sololá	704	Santa Lucía Utatlán 	7	Santa Rita 	10	Octubre	2023-04-10T00:00:00	2024-11-08T02:00:00	8	Radiación solar	0
121025	7	Sololá	704	Santa Lucía Utatlán 	7	Santa Rita 	10	Octubre	2023-04-10T00:00:00	2024-11-08T03:00:00	2	Temperatura media	18.4
121026	7	Sololá	704	Santa Lucía Utatlán 	7	Santa Rita 	10	Octubre	2023-04-10T00:00:00	2024-11-08T03:00:00	4	Temperatura máxima	18.4
121027	7	Sololá	704	Santa Lucía Utatlán 	7	Santa Rita 	10	Octubre	2023-04-10T00:00:00	2024-11-08T03:00:00	3	Temperatura mínima	17.4
121028	7	Sololá	704	Santa Lucía Utatlán 	7	Santa Rita 	10	Octubre	2023-04-10T00:00:00	2024-11-08T03:00:00	5	Humedad	94
121029	7	Sololá	704	Santa Lucía Utatlán 	7	Santa Rita 	10	Octubre	2023-04-10T00:00:00	2024-11-08T03:00:00	6	Velocidad del viento	1.6
121030	7	Sololá	704	Santa Lucía Utatlán 	7	Santa Rita 	10	Octubre	2023-04-10T00:00:00	2024-11-08T03:00:00	7	Dirección del viento	1.61
121031	7	Sololá	704	Santa Lucía Utatlán 	7	Santa Rita 	10	Octubre	2023-04-10T00:00:00	2024-11-08T03:00:00	1	Precipitación	0
121032	7	Sololá	704	Santa Lucía Utatlán 	7	Santa Rita 	10	Octubre	2023-04-10T00:00:00	2024-11-08T03:00:00	8	Radiación solar	0
121033	7	Sololá	704	Santa Lucía Utatlán 	7	Santa Rita 	10	Octubre	2023-04-10T00:00:00	2024-11-08T04:00:00	2	Temperatura media	21.2
121034	7	Sololá	704	Santa Lucía Utatlán 	7	Santa Rita 	10	Octubre	2023-04-10T00:00:00	2024-11-08T04:00:00	4	Temperatura máxima	21.3
121035	7	Sololá	704	Santa Lucía Utatlán 	7	Santa Rita 	10	Octubre	2023-04-10T00:00:00	2024-11-08T04:00:00	3	Temperatura mínima	18.4
121036	7	Sololá	704	Santa Lucía Utatlán 	7	Santa Rita 	10	Octubre	2023-04-10T00:00:00	2024-11-08T04:00:00	5	Humedad	87
121037	7	Sololá	704	Santa Lucía Utatlán 	7	Santa Rita 	10	Octubre	2023-04-10T00:00:00	2024-11-08T04:00:00	6	Velocidad del viento	1.6
121038	7	Sololá	704	Santa Lucía Utatlán 	7	Santa Rita 	10	Octubre	2023-04-10T00:00:00	2024-11-08T04:00:00	7	Dirección del viento	1.61
121039	7	Sololá	704	Santa Lucía Utatlán 	7	Santa Rita 	10	Octubre	2023-04-10T00:00:00	2024-11-08T04:00:00	1	Precipitación	0
121040	7	Sololá	704	Santa Lucía Utatlán 	7	Santa Rita 	10	Octubre	2023-04-10T00:00:00	2024-11-08T04:00:00	8	Radiación solar	0
121041	7	Sololá	704	Santa Lucía Utatlán 	7	Santa Rita 	10	Octubre	2023-04-10T00:00:00	2024-11-08T05:00:00	2	Temperatura media	24.2
121042	7	Sololá	704	Santa Lucía Utatlán 	7	Santa Rita 	10	Octubre	2023-04-10T00:00:00	2024-11-08T05:00:00	4	Temperatura máxima	24.2
121043	7	Sololá	704	Santa Lucía Utatlán 	7	Santa Rita 	10	Octubre	2023-04-10T00:00:00	2024-11-08T05:00:00	3	Temperatura mínima	21.3
121044	7	Sololá	704	Santa Lucía Utatlán 	7	Santa Rita 	10	Octubre	2023-04-10T00:00:00	2024-11-08T05:00:00	5	Humedad	79
121045	7	Sololá	704	Santa Lucía Utatlán 	7	Santa Rita 	10	Octubre	2023-04-10T00:00:00	2024-11-08T05:00:00	6	Velocidad del viento	3.2
121046	7	Sololá	704	Santa Lucía Utatlán 	7	Santa Rita 	10	Octubre	2023-04-10T00:00:00	2024-11-08T05:00:00	7	Dirección del viento	3.22
121047	7	Sololá	704	Santa Lucía Utatlán 	7	Santa Rita 	10	Octubre	2023-04-10T00:00:00	2024-11-08T05:00:00	1	Precipitación	0
121048	7	Sololá	704	Santa Lucía Utatlán 	7	Santa Rita 	10	Octubre	2023-04-10T00:00:00	2024-11-08T05:00:00	8	Radiación solar	0
121049	7	Sololá	704	Santa Lucía Utatlán 	7	Santa Rita 	10	Octubre	2023-04-10T00:00:00	2024-11-08T06:00:00	2	Temperatura media	25.2
121050	7	Sololá	704	Santa Lucía Utatlán 	7	Santa Rita 	10	Octubre	2023-04-10T00:00:00	2024-11-08T06:00:00	4	Temperatura máxima	25.2
121051	7	Sololá	704	Santa Lucía Utatlán 	7	Santa Rita 	10	Octubre	2023-04-10T00:00:00	2024-11-08T06:00:00	3	Temperatura mínima	24.2
121052	7	Sololá	704	Santa Lucía Utatlán 	7	Santa Rita 	10	Octubre	2023-04-10T00:00:00	2024-11-08T06:00:00	5	Humedad	69
121053	7	Sololá	704	Santa Lucía Utatlán 	7	Santa Rita 	10	Octubre	2023-04-10T00:00:00	2024-11-08T06:00:00	6	Velocidad del viento	6.4
121054	7	Sololá	704	Santa Lucía Utatlán 	7	Santa Rita 	10	Octubre	2023-04-10T00:00:00	2024-11-08T06:00:00	7	Dirección del viento	6.44
121055	7	Sololá	704	Santa Lucía Utatlán 	7	Santa Rita 	10	Octubre	2023-04-10T00:00:00	2024-11-08T06:00:00	1	Precipitación	0
121056	7	Sololá	704	Santa Lucía Utatlán 	7	Santa Rita 	10	Octubre	2023-04-10T00:00:00	2024-11-08T06:00:00	8	Radiación solar	47
121057	7	Sololá	704	Santa Lucía Utatlán 	7	Santa Rita 	10	Octubre	2023-04-10T00:00:00	2024-11-08T07:00:00	2	Temperatura media	25.6
121058	7	Sololá	704	Santa Lucía Utatlán 	7	Santa Rita 	10	Octubre	2023-04-10T00:00:00	2024-11-08T07:00:00	4	Temperatura máxima	25.8
121059	7	Sololá	704	Santa Lucía Utatlán 	7	Santa Rita 	10	Octubre	2023-04-10T00:00:00	2024-11-08T07:00:00	3	Temperatura mínima	25.1
121060	7	Sololá	704	Santa Lucía Utatlán 	7	Santa Rita 	10	Octubre	2023-04-10T00:00:00	2024-11-08T07:00:00	5	Humedad	63
121061	7	Sololá	704	Santa Lucía Utatlán 	7	Santa Rita 	10	Octubre	2023-04-10T00:00:00	2024-11-08T07:00:00	6	Velocidad del viento	6.4
121062	7	Sololá	704	Santa Lucía Utatlán 	7	Santa Rita 	10	Octubre	2023-04-10T00:00:00	2024-11-08T07:00:00	7	Dirección del viento	6.44
121063	7	Sololá	704	Santa Lucía Utatlán 	7	Santa Rita 	10	Octubre	2023-04-10T00:00:00	2024-11-08T07:00:00	1	Precipitación	0
121064	7	Sololá	704	Santa Lucía Utatlán 	7	Santa Rita 	10	Octubre	2023-04-10T00:00:00	2024-11-08T07:00:00	8	Radiación solar	272
121065	7	Sololá	704	Santa Lucía Utatlán 	7	Santa Rita 	10	Octubre	2023-04-10T00:00:00	2024-11-08T08:00:00	2	Temperatura media	26.4
121066	7	Sololá	704	Santa Lucía Utatlán 	7	Santa Rita 	10	Octubre	2023-04-10T00:00:00	2024-11-08T08:00:00	4	Temperatura máxima	26.4
121067	7	Sololá	704	Santa Lucía Utatlán 	7	Santa Rita 	10	Octubre	2023-04-10T00:00:00	2024-11-08T08:00:00	3	Temperatura mínima	25.4
121068	7	Sololá	704	Santa Lucía Utatlán 	7	Santa Rita 	10	Octubre	2023-04-10T00:00:00	2024-11-08T08:00:00	5	Humedad	65
121069	7	Sololá	704	Santa Lucía Utatlán 	7	Santa Rita 	10	Octubre	2023-04-10T00:00:00	2024-11-08T08:00:00	6	Velocidad del viento	6.4
121070	7	Sololá	704	Santa Lucía Utatlán 	7	Santa Rita 	10	Octubre	2023-04-10T00:00:00	2024-11-08T08:00:00	7	Dirección del viento	6.44
121071	7	Sololá	704	Santa Lucía Utatlán 	7	Santa Rita 	10	Octubre	2023-04-10T00:00:00	2024-11-08T08:00:00	1	Precipitación	0
121072	7	Sololá	704	Santa Lucía Utatlán 	7	Santa Rita 	10	Octubre	2023-04-10T00:00:00	2024-11-08T08:00:00	8	Radiación solar	574
121073	7	Sololá	704	Santa Lucía Utatlán 	7	Santa Rita 	10	Octubre	2023-04-10T00:00:00	2024-11-08T09:00:00	2	Temperatura media	23.8
121074	7	Sololá	704	Santa Lucía Utatlán 	7	Santa Rita 	10	Octubre	2023-04-10T00:00:00	2024-11-08T09:00:00	4	Temperatura máxima	26.4
121075	7	Sololá	704	Santa Lucía Utatlán 	7	Santa Rita 	10	Octubre	2023-04-10T00:00:00	2024-11-08T09:00:00	3	Temperatura mínima	23.7
121076	7	Sololá	704	Santa Lucía Utatlán 	7	Santa Rita 	10	Octubre	2023-04-10T00:00:00	2024-11-08T09:00:00	5	Humedad	77
121077	7	Sololá	704	Santa Lucía Utatlán 	7	Santa Rita 	10	Octubre	2023-04-10T00:00:00	2024-11-08T09:00:00	6	Velocidad del viento	8
121078	7	Sololá	704	Santa Lucía Utatlán 	7	Santa Rita 	10	Octubre	2023-04-10T00:00:00	2024-11-08T09:00:00	7	Dirección del viento	8.05
121079	7	Sololá	704	Santa Lucía Utatlán 	7	Santa Rita 	10	Octubre	2023-04-10T00:00:00	2024-11-08T09:00:00	1	Precipitación	0
121080	7	Sololá	704	Santa Lucía Utatlán 	7	Santa Rita 	10	Octubre	2023-04-10T00:00:00	2024-11-08T09:00:00	8	Radiación solar	762
121081	7	Sololá	704	Santa Lucía Utatlán 	7	Santa Rita 	10	Octubre	2023-04-10T00:00:00	2024-11-08T10:00:00	2	Temperatura media	22.8
121082	7	Sololá	704	Santa Lucía Utatlán 	7	Santa Rita 	10	Octubre	2023-04-10T00:00:00	2024-11-08T10:00:00	4	Temperatura máxima	24.1
121083	7	Sololá	704	Santa Lucía Utatlán 	7	Santa Rita 	10	Octubre	2023-04-10T00:00:00	2024-11-08T10:00:00	3	Temperatura mínima	22.8
121084	7	Sololá	704	Santa Lucía Utatlán 	7	Santa Rita 	10	Octubre	2023-04-10T00:00:00	2024-11-08T10:00:00	5	Humedad	84
121085	7	Sololá	704	Santa Lucía Utatlán 	7	Santa Rita 	10	Octubre	2023-04-10T00:00:00	2024-11-08T10:00:00	6	Velocidad del viento	6.4
121086	7	Sololá	704	Santa Lucía Utatlán 	7	Santa Rita 	10	Octubre	2023-04-10T00:00:00	2024-11-08T10:00:00	7	Dirección del viento	6.44
121087	7	Sololá	704	Santa Lucía Utatlán 	7	Santa Rita 	10	Octubre	2023-04-10T00:00:00	2024-11-08T10:00:00	1	Precipitación	0
121088	7	Sololá	704	Santa Lucía Utatlán 	7	Santa Rita 	10	Octubre	2023-04-10T00:00:00	2024-11-08T10:00:00	8	Radiación solar	901
121089	7	Sololá	704	Santa Lucía Utatlán 	7	Santa Rita 	10	Octubre	2023-04-10T00:00:00	2024-11-08T11:00:00	2	Temperatura media	22.4
121090	7	Sololá	704	Santa Lucía Utatlán 	7	Santa Rita 	10	Octubre	2023-04-10T00:00:00	2024-11-08T11:00:00	4	Temperatura máxima	24.1
121091	7	Sololá	704	Santa Lucía Utatlán 	7	Santa Rita 	10	Octubre	2023-04-10T00:00:00	2024-11-08T11:00:00	3	Temperatura mínima	22.4
121092	7	Sololá	704	Santa Lucía Utatlán 	7	Santa Rita 	10	Octubre	2023-04-10T00:00:00	2024-11-08T11:00:00	5	Humedad	89
121093	7	Sololá	704	Santa Lucía Utatlán 	7	Santa Rita 	10	Octubre	2023-04-10T00:00:00	2024-11-08T11:00:00	6	Velocidad del viento	4.8
121094	7	Sololá	704	Santa Lucía Utatlán 	7	Santa Rita 	10	Octubre	2023-04-10T00:00:00	2024-11-08T11:00:00	7	Dirección del viento	4.83
121095	7	Sololá	704	Santa Lucía Utatlán 	7	Santa Rita 	10	Octubre	2023-04-10T00:00:00	2024-11-08T11:00:00	1	Precipitación	0.4
121096	7	Sololá	704	Santa Lucía Utatlán 	7	Santa Rita 	10	Octubre	2023-04-10T00:00:00	2024-11-08T11:00:00	8	Radiación solar	937
121097	7	Sololá	704	Santa Lucía Utatlán 	7	Santa Rita 	10	Octubre	2023-04-10T00:00:00	2024-11-08T12:00:00	2	Temperatura media	21.4
121098	7	Sololá	704	Santa Lucía Utatlán 	7	Santa Rita 	10	Octubre	2023-04-10T00:00:00	2024-11-08T12:00:00	4	Temperatura máxima	22.4
121099	7	Sololá	704	Santa Lucía Utatlán 	7	Santa Rita 	10	Octubre	2023-04-10T00:00:00	2024-11-08T12:00:00	3	Temperatura mínima	21.1
121100	7	Sololá	704	Santa Lucía Utatlán 	7	Santa Rita 	10	Octubre	2023-04-10T00:00:00	2024-11-08T12:00:00	5	Humedad	92
121101	7	Sololá	704	Santa Lucía Utatlán 	7	Santa Rita 	10	Octubre	2023-04-10T00:00:00	2024-11-08T12:00:00	6	Velocidad del viento	1.6
121102	7	Sololá	704	Santa Lucía Utatlán 	7	Santa Rita 	10	Octubre	2023-04-10T00:00:00	2024-11-08T12:00:00	7	Dirección del viento	1.61
121103	7	Sololá	704	Santa Lucía Utatlán 	7	Santa Rita 	10	Octubre	2023-04-10T00:00:00	2024-11-08T12:00:00	1	Precipitación	0.4
121104	7	Sololá	704	Santa Lucía Utatlán 	7	Santa Rita 	10	Octubre	2023-04-10T00:00:00	2024-11-08T12:00:00	8	Radiación solar	304
121105	7	Sololá	704	Santa Lucía Utatlán 	7	Santa Rita 	10	Octubre	2023-04-10T00:00:00	2024-11-08T13:00:00	2	Temperatura media	20.3
121106	7	Sololá	704	Santa Lucía Utatlán 	7	Santa Rita 	10	Octubre	2023-04-10T00:00:00	2024-11-08T13:00:00	4	Temperatura máxima	21.5
121107	7	Sololá	704	Santa Lucía Utatlán 	7	Santa Rita 	10	Octubre	2023-04-10T00:00:00	2024-11-08T13:00:00	3	Temperatura mínima	20.3
121108	7	Sololá	704	Santa Lucía Utatlán 	7	Santa Rita 	10	Octubre	2023-04-10T00:00:00	2024-11-08T13:00:00	5	Humedad	94
121109	7	Sololá	704	Santa Lucía Utatlán 	7	Santa Rita 	10	Octubre	2023-04-10T00:00:00	2024-11-08T13:00:00	6	Velocidad del viento	3.2
121110	7	Sololá	704	Santa Lucía Utatlán 	7	Santa Rita 	10	Octubre	2023-04-10T00:00:00	2024-11-08T13:00:00	7	Dirección del viento	3.22
121111	7	Sololá	704	Santa Lucía Utatlán 	7	Santa Rita 	10	Octubre	2023-04-10T00:00:00	2024-11-08T13:00:00	1	Precipitación	3.2
121112	7	Sololá	704	Santa Lucía Utatlán 	7	Santa Rita 	10	Octubre	2023-04-10T00:00:00	2024-11-08T13:00:00	8	Radiación solar	322
121113	7	Sololá	704	Santa Lucía Utatlán 	7	Santa Rita 	10	Octubre	2023-04-10T00:00:00	2024-11-08T14:00:00	2	Temperatura media	20.1
121114	7	Sololá	704	Santa Lucía Utatlán 	7	Santa Rita 	10	Octubre	2023-04-10T00:00:00	2024-11-08T14:00:00	4	Temperatura máxima	20.3
121115	7	Sololá	704	Santa Lucía Utatlán 	7	Santa Rita 	10	Octubre	2023-04-10T00:00:00	2024-11-08T14:00:00	3	Temperatura mínima	20.1
121116	7	Sololá	704	Santa Lucía Utatlán 	7	Santa Rita 	10	Octubre	2023-04-10T00:00:00	2024-11-08T14:00:00	5	Humedad	96
121117	7	Sololá	704	Santa Lucía Utatlán 	7	Santa Rita 	10	Octubre	2023-04-10T00:00:00	2024-11-08T14:00:00	6	Velocidad del viento	1.6
121118	7	Sololá	704	Santa Lucía Utatlán 	7	Santa Rita 	10	Octubre	2023-04-10T00:00:00	2024-11-08T14:00:00	7	Dirección del viento	1.61
121119	7	Sololá	704	Santa Lucía Utatlán 	7	Santa Rita 	10	Octubre	2023-04-10T00:00:00	2024-11-08T14:00:00	1	Precipitación	2.8
121120	7	Sololá	704	Santa Lucía Utatlán 	7	Santa Rita 	10	Octubre	2023-04-10T00:00:00	2024-11-08T14:00:00	8	Radiación solar	237
121121	7	Sololá	704	Santa Lucía Utatlán 	7	Santa Rita 	10	Octubre	2023-04-10T00:00:00	2024-11-08T15:00:00	2	Temperatura media	19.7
121122	7	Sololá	704	Santa Lucía Utatlán 	7	Santa Rita 	10	Octubre	2023-04-10T00:00:00	2024-11-08T15:00:00	4	Temperatura máxima	20.2
121123	7	Sololá	704	Santa Lucía Utatlán 	7	Santa Rita 	10	Octubre	2023-04-10T00:00:00	2024-11-08T15:00:00	3	Temperatura mínima	19.7
121124	7	Sololá	704	Santa Lucía Utatlán 	7	Santa Rita 	10	Octubre	2023-04-10T00:00:00	2024-11-08T15:00:00	5	Humedad	96
121125	7	Sololá	704	Santa Lucía Utatlán 	7	Santa Rita 	10	Octubre	2023-04-10T00:00:00	2024-11-08T15:00:00	6	Velocidad del viento	1.6
121126	7	Sololá	704	Santa Lucía Utatlán 	7	Santa Rita 	10	Octubre	2023-04-10T00:00:00	2024-11-08T15:00:00	7	Dirección del viento	1.61
121127	7	Sololá	704	Santa Lucía Utatlán 	7	Santa Rita 	10	Octubre	2023-04-10T00:00:00	2024-11-08T15:00:00	1	Precipitación	0
121128	7	Sololá	704	Santa Lucía Utatlán 	7	Santa Rita 	10	Octubre	2023-04-10T00:00:00	2024-11-08T15:00:00	8	Radiación solar	72
121129	7	Sololá	704	Santa Lucía Utatlán 	7	Santa Rita 	10	Octubre	2023-04-10T00:00:00	2024-11-08T16:00:00	2	Temperatura media	18.8
121130	7	Sololá	704	Santa Lucía Utatlán 	7	Santa Rita 	10	Octubre	2023-04-10T00:00:00	2024-11-08T16:00:00	4	Temperatura máxima	19.8
121131	7	Sololá	704	Santa Lucía Utatlán 	7	Santa Rita 	10	Octubre	2023-04-10T00:00:00	2024-11-08T16:00:00	3	Temperatura mínima	18.8
121132	7	Sololá	704	Santa Lucía Utatlán 	7	Santa Rita 	10	Octubre	2023-04-10T00:00:00	2024-11-08T16:00:00	5	Humedad	95
121133	7	Sololá	704	Santa Lucía Utatlán 	7	Santa Rita 	10	Octubre	2023-04-10T00:00:00	2024-11-08T16:00:00	6	Velocidad del viento	3.2
121134	7	Sololá	704	Santa Lucía Utatlán 	7	Santa Rita 	10	Octubre	2023-04-10T00:00:00	2024-11-08T16:00:00	7	Dirección del viento	3.22
121135	7	Sololá	704	Santa Lucía Utatlán 	7	Santa Rita 	10	Octubre	2023-04-10T00:00:00	2024-11-08T16:00:00	1	Precipitación	0
121136	7	Sololá	704	Santa Lucía Utatlán 	7	Santa Rita 	10	Octubre	2023-04-10T00:00:00	2024-11-08T16:00:00	8	Radiación solar	27
121137	7	Sololá	704	Santa Lucía Utatlán 	7	Santa Rita 	10	Octubre	2023-04-10T00:00:00	2024-11-08T17:00:00	2	Temperatura media	18.7
121138	7	Sololá	704	Santa Lucía Utatlán 	7	Santa Rita 	10	Octubre	2023-04-10T00:00:00	2024-11-08T17:00:00	4	Temperatura máxima	18.8
121139	7	Sololá	704	Santa Lucía Utatlán 	7	Santa Rita 	10	Octubre	2023-04-10T00:00:00	2024-11-08T17:00:00	3	Temperatura mínima	18.6
121140	7	Sololá	704	Santa Lucía Utatlán 	7	Santa Rita 	10	Octubre	2023-04-10T00:00:00	2024-11-08T17:00:00	5	Humedad	96
121141	7	Sololá	704	Santa Lucía Utatlán 	7	Santa Rita 	10	Octubre	2023-04-10T00:00:00	2024-11-08T17:00:00	6	Velocidad del viento	1.6
121142	7	Sololá	704	Santa Lucía Utatlán 	7	Santa Rita 	10	Octubre	2023-04-10T00:00:00	2024-11-08T17:00:00	7	Dirección del viento	1.61
121143	7	Sololá	704	Santa Lucía Utatlán 	7	Santa Rita 	10	Octubre	2023-04-10T00:00:00	2024-11-08T17:00:00	1	Precipitación	0
121144	7	Sololá	704	Santa Lucía Utatlán 	7	Santa Rita 	10	Octubre	2023-04-10T00:00:00	2024-11-08T17:00:00	8	Radiación solar	10
121145	7	Sololá	704	Santa Lucía Utatlán 	7	Santa Rita 	10	Octubre	2023-04-10T00:00:00	2024-11-08T18:00:00	2	Temperatura media	19
121146	7	Sololá	704	Santa Lucía Utatlán 	7	Santa Rita 	10	Octubre	2023-04-10T00:00:00	2024-11-08T18:00:00	4	Temperatura máxima	19
121147	7	Sololá	704	Santa Lucía Utatlán 	7	Santa Rita 	10	Octubre	2023-04-10T00:00:00	2024-11-08T18:00:00	3	Temperatura mínima	18.6
121148	7	Sololá	704	Santa Lucía Utatlán 	7	Santa Rita 	10	Octubre	2023-04-10T00:00:00	2024-11-08T18:00:00	5	Humedad	97
121149	7	Sololá	704	Santa Lucía Utatlán 	7	Santa Rita 	10	Octubre	2023-04-10T00:00:00	2024-11-08T18:00:00	6	Velocidad del viento	1.6
121150	7	Sololá	704	Santa Lucía Utatlán 	7	Santa Rita 	10	Octubre	2023-04-10T00:00:00	2024-11-08T18:00:00	7	Dirección del viento	1.61
121151	7	Sololá	704	Santa Lucía Utatlán 	7	Santa Rita 	10	Octubre	2023-04-10T00:00:00	2024-11-08T18:00:00	1	Precipitación	0
121152	7	Sololá	704	Santa Lucía Utatlán 	7	Santa Rita 	10	Octubre	2023-04-10T00:00:00	2024-11-08T18:00:00	8	Radiación solar	0
121153	7	Sololá	704	Santa Lucía Utatlán 	7	Santa Rita 	10	Octubre	2023-04-10T00:00:00	2024-11-08T19:00:00	2	Temperatura media	19.4
121154	7	Sololá	704	Santa Lucía Utatlán 	7	Santa Rita 	10	Octubre	2023-04-10T00:00:00	2024-11-08T19:00:00	4	Temperatura máxima	19.6
121155	7	Sololá	704	Santa Lucía Utatlán 	7	Santa Rita 	10	Octubre	2023-04-10T00:00:00	2024-11-08T19:00:00	3	Temperatura mínima	19
121156	7	Sololá	704	Santa Lucía Utatlán 	7	Santa Rita 	10	Octubre	2023-04-10T00:00:00	2024-11-08T19:00:00	5	Humedad	97
121157	7	Sololá	704	Santa Lucía Utatlán 	7	Santa Rita 	10	Octubre	2023-04-10T00:00:00	2024-11-08T19:00:00	6	Velocidad del viento	1.6
121158	7	Sololá	704	Santa Lucía Utatlán 	7	Santa Rita 	10	Octubre	2023-04-10T00:00:00	2024-11-08T19:00:00	7	Dirección del viento	1.61
121159	7	Sololá	704	Santa Lucía Utatlán 	7	Santa Rita 	10	Octubre	2023-04-10T00:00:00	2024-11-08T19:00:00	1	Precipitación	0
121160	7	Sololá	704	Santa Lucía Utatlán 	7	Santa Rita 	10	Octubre	2023-04-10T00:00:00	2024-11-08T19:00:00	8	Radiación solar	0
121161	7	Sololá	704	Santa Lucía Utatlán 	7	Santa Rita 	10	Octubre	2023-04-10T00:00:00	2024-11-08T20:00:00	2	Temperatura media	18.8
121162	7	Sololá	704	Santa Lucía Utatlán 	7	Santa Rita 	10	Octubre	2023-04-10T00:00:00	2024-11-08T20:00:00	4	Temperatura máxima	19.5
121163	7	Sololá	704	Santa Lucía Utatlán 	7	Santa Rita 	10	Octubre	2023-04-10T00:00:00	2024-11-08T20:00:00	3	Temperatura mínima	18.8
121164	7	Sololá	704	Santa Lucía Utatlán 	7	Santa Rita 	10	Octubre	2023-04-10T00:00:00	2024-11-08T20:00:00	5	Humedad	95
121165	7	Sololá	704	Santa Lucía Utatlán 	7	Santa Rita 	10	Octubre	2023-04-10T00:00:00	2024-11-08T20:00:00	6	Velocidad del viento	3.2
121166	7	Sololá	704	Santa Lucía Utatlán 	7	Santa Rita 	10	Octubre	2023-04-10T00:00:00	2024-11-08T20:00:00	7	Dirección del viento	3.22
121167	7	Sololá	704	Santa Lucía Utatlán 	7	Santa Rita 	10	Octubre	2023-04-10T00:00:00	2024-11-08T20:00:00	1	Precipitación	0
121168	7	Sololá	704	Santa Lucía Utatlán 	7	Santa Rita 	10	Octubre	2023-04-10T00:00:00	2024-11-08T20:00:00	8	Radiación solar	0
121169	7	Sololá	704	Santa Lucía Utatlán 	7	Santa Rita 	10	Octubre	2023-04-10T00:00:00	2024-11-08T21:00:00	2	Temperatura media	18.4
121170	7	Sololá	704	Santa Lucía Utatlán 	7	Santa Rita 	10	Octubre	2023-04-10T00:00:00	2024-11-08T21:00:00	4	Temperatura máxima	18.8
121171	7	Sololá	704	Santa Lucía Utatlán 	7	Santa Rita 	10	Octubre	2023-04-10T00:00:00	2024-11-08T21:00:00	3	Temperatura mínima	18.1
121172	7	Sololá	704	Santa Lucía Utatlán 	7	Santa Rita 	10	Octubre	2023-04-10T00:00:00	2024-11-08T21:00:00	5	Humedad	96
121173	7	Sololá	704	Santa Lucía Utatlán 	7	Santa Rita 	10	Octubre	2023-04-10T00:00:00	2024-11-08T21:00:00	6	Velocidad del viento	1.6
121174	7	Sololá	704	Santa Lucía Utatlán 	7	Santa Rita 	10	Octubre	2023-04-10T00:00:00	2024-11-08T21:00:00	7	Dirección del viento	1.61
121175	7	Sololá	704	Santa Lucía Utatlán 	7	Santa Rita 	10	Octubre	2023-04-10T00:00:00	2024-11-08T21:00:00	1	Precipitación	0
121176	7	Sololá	704	Santa Lucía Utatlán 	7	Santa Rita 	10	Octubre	2023-04-10T00:00:00	2024-11-08T21:00:00	8	Radiación solar	0
121177	7	Sololá	704	Santa Lucía Utatlán 	7	Santa Rita 	10	Octubre	2023-04-10T00:00:00	2024-11-08T22:00:00	2	Temperatura media	17.9
121178	7	Sololá	704	Santa Lucía Utatlán 	7	Santa Rita 	10	Octubre	2023-04-10T00:00:00	2024-11-08T22:00:00	4	Temperatura máxima	18.6
121179	7	Sololá	704	Santa Lucía Utatlán 	7	Santa Rita 	10	Octubre	2023-04-10T00:00:00	2024-11-08T22:00:00	3	Temperatura mínima	17.9
121180	7	Sololá	704	Santa Lucía Utatlán 	7	Santa Rita 	10	Octubre	2023-04-10T00:00:00	2024-11-08T22:00:00	5	Humedad	96
121181	7	Sololá	704	Santa Lucía Utatlán 	7	Santa Rita 	10	Octubre	2023-04-10T00:00:00	2024-11-08T22:00:00	6	Velocidad del viento	1.6
121182	7	Sololá	704	Santa Lucía Utatlán 	7	Santa Rita 	10	Octubre	2023-04-10T00:00:00	2024-11-08T22:00:00	7	Dirección del viento	1.61
121183	7	Sololá	704	Santa Lucía Utatlán 	7	Santa Rita 	10	Octubre	2023-04-10T00:00:00	2024-11-08T22:00:00	1	Precipitación	0
121184	7	Sololá	704	Santa Lucía Utatlán 	7	Santa Rita 	10	Octubre	2023-04-10T00:00:00	2024-11-08T22:00:00	8	Radiación solar	0
121185	7	Sololá	704	Santa Lucía Utatlán 	7	Santa Rita 	10	Octubre	2023-04-10T00:00:00	2024-11-08T23:00:00	2	Temperatura media	17.7
121186	7	Sololá	704	Santa Lucía Utatlán 	7	Santa Rita 	10	Octubre	2023-04-10T00:00:00	2024-11-08T23:00:00	4	Temperatura máxima	17.9
121187	7	Sololá	704	Santa Lucía Utatlán 	7	Santa Rita 	10	Octubre	2023-04-10T00:00:00	2024-11-08T23:00:00	3	Temperatura mínima	17.6
121188	7	Sololá	704	Santa Lucía Utatlán 	7	Santa Rita 	10	Octubre	2023-04-10T00:00:00	2024-11-08T23:00:00	5	Humedad	94
121189	7	Sololá	704	Santa Lucía Utatlán 	7	Santa Rita 	10	Octubre	2023-04-10T00:00:00	2024-11-08T23:00:00	6	Velocidad del viento	3.2
121190	7	Sololá	704	Santa Lucía Utatlán 	7	Santa Rita 	10	Octubre	2023-04-10T00:00:00	2024-11-08T23:00:00	7	Dirección del viento	3.22
121191	7	Sololá	704	Santa Lucía Utatlán 	7	Santa Rita 	10	Octubre	2023-04-10T00:00:00	2024-11-08T23:00:00	1	Precipitación	0
121192	7	Sololá	704	Santa Lucía Utatlán 	7	Santa Rita 	10	Octubre	2023-04-10T00:00:00	2024-11-08T23:00:00	8	Radiación solar	0
121193	7	Sololá	704	Santa Lucía Utatlán 	7	Santa Rita 	10	Octubre	2023-05-10T00:00:00	2024-11-08T00:00:00	2	Temperatura media	17.4
121194	7	Sololá	704	Santa Lucía Utatlán 	7	Santa Rita 	10	Octubre	2023-05-10T00:00:00	2024-11-08T00:00:00	4	Temperatura máxima	17.6
121195	7	Sololá	704	Santa Lucía Utatlán 	7	Santa Rita 	10	Octubre	2023-05-10T00:00:00	2024-11-08T00:00:00	3	Temperatura mínima	17.4
121196	7	Sololá	704	Santa Lucía Utatlán 	7	Santa Rita 	10	Octubre	2023-05-10T00:00:00	2024-11-08T00:00:00	5	Humedad	93
121197	7	Sololá	704	Santa Lucía Utatlán 	7	Santa Rita 	10	Octubre	2023-05-10T00:00:00	2024-11-08T00:00:00	6	Velocidad del viento	4.8
121198	7	Sololá	704	Santa Lucía Utatlán 	7	Santa Rita 	10	Octubre	2023-05-10T00:00:00	2024-11-08T00:00:00	7	Dirección del viento	4.83
121199	7	Sololá	704	Santa Lucía Utatlán 	7	Santa Rita 	10	Octubre	2023-05-10T00:00:00	2024-11-08T00:00:00	1	Precipitación	0
121200	7	Sololá	704	Santa Lucía Utatlán 	7	Santa Rita 	10	Octubre	2023-05-10T00:00:00	2024-11-08T00:00:00	8	Radiación solar	0
121201	7	Sololá	704	Santa Lucía Utatlán 	7	Santa Rita 	10	Octubre	2023-05-10T00:00:00	2024-11-08T01:00:00	2	Temperatura media	17.4
121202	7	Sololá	704	Santa Lucía Utatlán 	7	Santa Rita 	10	Octubre	2023-05-10T00:00:00	2024-11-08T01:00:00	4	Temperatura máxima	17.6
121203	7	Sololá	704	Santa Lucía Utatlán 	7	Santa Rita 	10	Octubre	2023-05-10T00:00:00	2024-11-08T01:00:00	3	Temperatura mínima	17.4
121204	7	Sololá	704	Santa Lucía Utatlán 	7	Santa Rita 	10	Octubre	2023-05-10T00:00:00	2024-11-08T01:00:00	5	Humedad	92
121205	7	Sololá	704	Santa Lucía Utatlán 	7	Santa Rita 	10	Octubre	2023-05-10T00:00:00	2024-11-08T01:00:00	6	Velocidad del viento	4.8
121206	7	Sololá	704	Santa Lucía Utatlán 	7	Santa Rita 	10	Octubre	2023-05-10T00:00:00	2024-11-08T01:00:00	7	Dirección del viento	4.83
121207	7	Sololá	704	Santa Lucía Utatlán 	7	Santa Rita 	10	Octubre	2023-05-10T00:00:00	2024-11-08T01:00:00	1	Precipitación	0
121208	7	Sololá	704	Santa Lucía Utatlán 	7	Santa Rita 	10	Octubre	2023-05-10T00:00:00	2024-11-08T01:00:00	8	Radiación solar	0
121209	7	Sololá	704	Santa Lucía Utatlán 	7	Santa Rita 	10	Octubre	2023-05-10T00:00:00	2024-11-08T02:00:00	2	Temperatura media	17.6
121210	7	Sololá	704	Santa Lucía Utatlán 	7	Santa Rita 	10	Octubre	2023-05-10T00:00:00	2024-11-08T02:00:00	4	Temperatura máxima	17.8
121211	7	Sololá	704	Santa Lucía Utatlán 	7	Santa Rita 	10	Octubre	2023-05-10T00:00:00	2024-11-08T02:00:00	3	Temperatura mínima	17.4
121212	7	Sololá	704	Santa Lucía Utatlán 	7	Santa Rita 	10	Octubre	2023-05-10T00:00:00	2024-11-08T02:00:00	5	Humedad	90
121213	7	Sololá	704	Santa Lucía Utatlán 	7	Santa Rita 	10	Octubre	2023-05-10T00:00:00	2024-11-08T02:00:00	6	Velocidad del viento	4.8
121214	7	Sololá	704	Santa Lucía Utatlán 	7	Santa Rita 	10	Octubre	2023-05-10T00:00:00	2024-11-08T02:00:00	7	Dirección del viento	4.83
121215	7	Sololá	704	Santa Lucía Utatlán 	7	Santa Rita 	10	Octubre	2023-05-10T00:00:00	2024-11-08T02:00:00	1	Precipitación	0
121216	7	Sololá	704	Santa Lucía Utatlán 	7	Santa Rita 	10	Octubre	2023-05-10T00:00:00	2024-11-08T02:00:00	8	Radiación solar	0
121217	7	Sololá	704	Santa Lucía Utatlán 	7	Santa Rita 	10	Octubre	2023-05-10T00:00:00	2024-11-08T03:00:00	2	Temperatura media	18.9
121218	7	Sololá	704	Santa Lucía Utatlán 	7	Santa Rita 	10	Octubre	2023-05-10T00:00:00	2024-11-08T03:00:00	4	Temperatura máxima	18.9
121219	7	Sololá	704	Santa Lucía Utatlán 	7	Santa Rita 	10	Octubre	2023-05-10T00:00:00	2024-11-08T03:00:00	3	Temperatura mínima	17.4
121220	7	Sololá	704	Santa Lucía Utatlán 	7	Santa Rita 	10	Octubre	2023-05-10T00:00:00	2024-11-08T03:00:00	5	Humedad	88
121221	7	Sololá	704	Santa Lucía Utatlán 	7	Santa Rita 	10	Octubre	2023-05-10T00:00:00	2024-11-08T03:00:00	6	Velocidad del viento	4.8
121222	7	Sololá	704	Santa Lucía Utatlán 	7	Santa Rita 	10	Octubre	2023-05-10T00:00:00	2024-11-08T03:00:00	7	Dirección del viento	4.83
121223	7	Sololá	704	Santa Lucía Utatlán 	7	Santa Rita 	10	Octubre	2023-05-10T00:00:00	2024-11-08T03:00:00	1	Precipitación	0
121224	7	Sololá	704	Santa Lucía Utatlán 	7	Santa Rita 	10	Octubre	2023-05-10T00:00:00	2024-11-08T03:00:00	8	Radiación solar	0
121225	7	Sololá	704	Santa Lucía Utatlán 	7	Santa Rita 	10	Octubre	2023-05-10T00:00:00	2024-11-08T04:00:00	2	Temperatura media	22.4
121226	7	Sololá	704	Santa Lucía Utatlán 	7	Santa Rita 	10	Octubre	2023-05-10T00:00:00	2024-11-08T04:00:00	4	Temperatura máxima	22.4
121227	7	Sololá	704	Santa Lucía Utatlán 	7	Santa Rita 	10	Octubre	2023-05-10T00:00:00	2024-11-08T04:00:00	3	Temperatura mínima	18.9
121228	7	Sololá	704	Santa Lucía Utatlán 	7	Santa Rita 	10	Octubre	2023-05-10T00:00:00	2024-11-08T04:00:00	5	Humedad	81
121229	7	Sololá	704	Santa Lucía Utatlán 	7	Santa Rita 	10	Octubre	2023-05-10T00:00:00	2024-11-08T04:00:00	6	Velocidad del viento	3.2
121230	7	Sololá	704	Santa Lucía Utatlán 	7	Santa Rita 	10	Octubre	2023-05-10T00:00:00	2024-11-08T04:00:00	7	Dirección del viento	3.22
121231	7	Sololá	704	Santa Lucía Utatlán 	7	Santa Rita 	10	Octubre	2023-05-10T00:00:00	2024-11-08T04:00:00	1	Precipitación	0.2
121232	7	Sololá	704	Santa Lucía Utatlán 	7	Santa Rita 	10	Octubre	2023-05-10T00:00:00	2024-11-08T04:00:00	8	Radiación solar	0
121233	7	Sololá	704	Santa Lucía Utatlán 	7	Santa Rita 	10	Octubre	2023-05-10T00:00:00	2024-11-08T05:00:00	2	Temperatura media	24.5
121234	7	Sololá	704	Santa Lucía Utatlán 	7	Santa Rita 	10	Octubre	2023-05-10T00:00:00	2024-11-08T05:00:00	4	Temperatura máxima	24.5
121235	7	Sololá	704	Santa Lucía Utatlán 	7	Santa Rita 	10	Octubre	2023-05-10T00:00:00	2024-11-08T05:00:00	3	Temperatura mínima	22.4
121236	7	Sololá	704	Santa Lucía Utatlán 	7	Santa Rita 	10	Octubre	2023-05-10T00:00:00	2024-11-08T05:00:00	5	Humedad	69
121237	7	Sololá	704	Santa Lucía Utatlán 	7	Santa Rita 	10	Octubre	2023-05-10T00:00:00	2024-11-08T05:00:00	6	Velocidad del viento	3.2
121238	7	Sololá	704	Santa Lucía Utatlán 	7	Santa Rita 	10	Octubre	2023-05-10T00:00:00	2024-11-08T05:00:00	7	Dirección del viento	3.22
121239	7	Sololá	704	Santa Lucía Utatlán 	7	Santa Rita 	10	Octubre	2023-05-10T00:00:00	2024-11-08T05:00:00	1	Precipitación	0
121240	7	Sololá	704	Santa Lucía Utatlán 	7	Santa Rita 	10	Octubre	2023-05-10T00:00:00	2024-11-08T05:00:00	8	Radiación solar	0
121241	7	Sololá	704	Santa Lucía Utatlán 	7	Santa Rita 	10	Octubre	2023-05-10T00:00:00	2024-11-08T06:00:00	2	Temperatura media	25.2
121242	7	Sololá	704	Santa Lucía Utatlán 	7	Santa Rita 	10	Octubre	2023-05-10T00:00:00	2024-11-08T06:00:00	4	Temperatura máxima	25.3
121243	7	Sololá	704	Santa Lucía Utatlán 	7	Santa Rita 	10	Octubre	2023-05-10T00:00:00	2024-11-08T06:00:00	3	Temperatura mínima	24.5
121244	7	Sololá	704	Santa Lucía Utatlán 	7	Santa Rita 	10	Octubre	2023-05-10T00:00:00	2024-11-08T06:00:00	5	Humedad	71
121245	7	Sololá	704	Santa Lucía Utatlán 	7	Santa Rita 	10	Octubre	2023-05-10T00:00:00	2024-11-08T06:00:00	6	Velocidad del viento	6.4
121246	7	Sololá	704	Santa Lucía Utatlán 	7	Santa Rita 	10	Octubre	2023-05-10T00:00:00	2024-11-08T06:00:00	7	Dirección del viento	6.44
121247	7	Sololá	704	Santa Lucía Utatlán 	7	Santa Rita 	10	Octubre	2023-05-10T00:00:00	2024-11-08T06:00:00	1	Precipitación	0
121248	7	Sololá	704	Santa Lucía Utatlán 	7	Santa Rita 	10	Octubre	2023-05-10T00:00:00	2024-11-08T06:00:00	8	Radiación solar	44
121249	7	Sololá	704	Santa Lucía Utatlán 	7	Santa Rita 	10	Octubre	2023-05-10T00:00:00	2024-11-08T07:00:00	2	Temperatura media	25.6
121250	7	Sololá	704	Santa Lucía Utatlán 	7	Santa Rita 	10	Octubre	2023-05-10T00:00:00	2024-11-08T07:00:00	4	Temperatura máxima	25.6
121251	7	Sololá	704	Santa Lucía Utatlán 	7	Santa Rita 	10	Octubre	2023-05-10T00:00:00	2024-11-08T07:00:00	3	Temperatura mínima	25
121252	7	Sololá	704	Santa Lucía Utatlán 	7	Santa Rita 	10	Octubre	2023-05-10T00:00:00	2024-11-08T07:00:00	5	Humedad	75
121253	7	Sololá	704	Santa Lucía Utatlán 	7	Santa Rita 	10	Octubre	2023-05-10T00:00:00	2024-11-08T07:00:00	6	Velocidad del viento	8
121254	7	Sololá	704	Santa Lucía Utatlán 	7	Santa Rita 	10	Octubre	2023-05-10T00:00:00	2024-11-08T07:00:00	7	Dirección del viento	8.05
121255	7	Sololá	704	Santa Lucía Utatlán 	7	Santa Rita 	10	Octubre	2023-05-10T00:00:00	2024-11-08T07:00:00	1	Precipitación	0
121256	7	Sololá	704	Santa Lucía Utatlán 	7	Santa Rita 	10	Octubre	2023-05-10T00:00:00	2024-11-08T07:00:00	8	Radiación solar	312
121257	7	Sololá	704	Santa Lucía Utatlán 	7	Santa Rita 	10	Octubre	2023-05-10T00:00:00	2024-11-08T08:00:00	2	Temperatura media	25.6
121258	7	Sololá	704	Santa Lucía Utatlán 	7	Santa Rita 	10	Octubre	2023-05-10T00:00:00	2024-11-08T08:00:00	4	Temperatura máxima	26.1
121259	7	Sololá	704	Santa Lucía Utatlán 	7	Santa Rita 	10	Octubre	2023-05-10T00:00:00	2024-11-08T08:00:00	3	Temperatura mínima	25.4
121260	7	Sololá	704	Santa Lucía Utatlán 	7	Santa Rita 	10	Octubre	2023-05-10T00:00:00	2024-11-08T08:00:00	5	Humedad	76
121261	7	Sololá	704	Santa Lucía Utatlán 	7	Santa Rita 	10	Octubre	2023-05-10T00:00:00	2024-11-08T08:00:00	6	Velocidad del viento	8
121262	7	Sololá	704	Santa Lucía Utatlán 	7	Santa Rita 	10	Octubre	2023-05-10T00:00:00	2024-11-08T08:00:00	7	Dirección del viento	8.05
121263	7	Sololá	704	Santa Lucía Utatlán 	7	Santa Rita 	10	Octubre	2023-05-10T00:00:00	2024-11-08T08:00:00	1	Precipitación	0
121264	7	Sololá	704	Santa Lucía Utatlán 	7	Santa Rita 	10	Octubre	2023-05-10T00:00:00	2024-11-08T08:00:00	8	Radiación solar	553
121265	7	Sololá	704	Santa Lucía Utatlán 	7	Santa Rita 	10	Octubre	2023-05-10T00:00:00	2024-11-08T09:00:00	2	Temperatura media	24.5
121266	7	Sololá	704	Santa Lucía Utatlán 	7	Santa Rita 	10	Octubre	2023-05-10T00:00:00	2024-11-08T09:00:00	4	Temperatura máxima	25.6
121267	7	Sololá	704	Santa Lucía Utatlán 	7	Santa Rita 	10	Octubre	2023-05-10T00:00:00	2024-11-08T09:00:00	3	Temperatura mínima	24.1
121268	7	Sololá	704	Santa Lucía Utatlán 	7	Santa Rita 	10	Octubre	2023-05-10T00:00:00	2024-11-08T09:00:00	5	Humedad	81
121269	7	Sololá	704	Santa Lucía Utatlán 	7	Santa Rita 	10	Octubre	2023-05-10T00:00:00	2024-11-08T09:00:00	6	Velocidad del viento	8
121270	7	Sololá	704	Santa Lucía Utatlán 	7	Santa Rita 	10	Octubre	2023-05-10T00:00:00	2024-11-08T09:00:00	7	Dirección del viento	8.05
121271	7	Sololá	704	Santa Lucía Utatlán 	7	Santa Rita 	10	Octubre	2023-05-10T00:00:00	2024-11-08T09:00:00	1	Precipitación	0
121272	7	Sololá	704	Santa Lucía Utatlán 	7	Santa Rita 	10	Octubre	2023-05-10T00:00:00	2024-11-08T09:00:00	8	Radiación solar	747
121273	7	Sololá	704	Santa Lucía Utatlán 	7	Santa Rita 	10	Octubre	2023-05-10T00:00:00	2024-11-08T10:00:00	2	Temperatura media	23.8
121274	7	Sololá	704	Santa Lucía Utatlán 	7	Santa Rita 	10	Octubre	2023-05-10T00:00:00	2024-11-08T10:00:00	4	Temperatura máxima	25.1
121275	7	Sololá	704	Santa Lucía Utatlán 	7	Santa Rita 	10	Octubre	2023-05-10T00:00:00	2024-11-08T10:00:00	3	Temperatura mínima	23.7
121276	7	Sololá	704	Santa Lucía Utatlán 	7	Santa Rita 	10	Octubre	2023-05-10T00:00:00	2024-11-08T10:00:00	5	Humedad	85
121277	7	Sololá	704	Santa Lucía Utatlán 	7	Santa Rita 	10	Octubre	2023-05-10T00:00:00	2024-11-08T10:00:00	6	Velocidad del viento	6.4
121278	7	Sololá	704	Santa Lucía Utatlán 	7	Santa Rita 	10	Octubre	2023-05-10T00:00:00	2024-11-08T10:00:00	7	Dirección del viento	6.44
121279	7	Sololá	704	Santa Lucía Utatlán 	7	Santa Rita 	10	Octubre	2023-05-10T00:00:00	2024-11-08T10:00:00	1	Precipitación	0
121280	7	Sololá	704	Santa Lucía Utatlán 	7	Santa Rita 	10	Octubre	2023-05-10T00:00:00	2024-11-08T10:00:00	8	Radiación solar	902
121281	7	Sololá	704	Santa Lucía Utatlán 	7	Santa Rita 	10	Octubre	2023-05-10T00:00:00	2024-11-08T11:00:00	2	Temperatura media	23.7
121282	7	Sololá	704	Santa Lucía Utatlán 	7	Santa Rita 	10	Octubre	2023-05-10T00:00:00	2024-11-08T11:00:00	4	Temperatura máxima	24.2
121283	7	Sololá	704	Santa Lucía Utatlán 	7	Santa Rita 	10	Octubre	2023-05-10T00:00:00	2024-11-08T11:00:00	3	Temperatura mínima	23
121284	7	Sololá	704	Santa Lucía Utatlán 	7	Santa Rita 	10	Octubre	2023-05-10T00:00:00	2024-11-08T11:00:00	5	Humedad	83
121285	7	Sololá	704	Santa Lucía Utatlán 	7	Santa Rita 	10	Octubre	2023-05-10T00:00:00	2024-11-08T11:00:00	6	Velocidad del viento	6.4
121286	7	Sololá	704	Santa Lucía Utatlán 	7	Santa Rita 	10	Octubre	2023-05-10T00:00:00	2024-11-08T11:00:00	7	Dirección del viento	6.44
121287	7	Sololá	704	Santa Lucía Utatlán 	7	Santa Rita 	10	Octubre	2023-05-10T00:00:00	2024-11-08T11:00:00	1	Precipitación	0
121288	7	Sololá	704	Santa Lucía Utatlán 	7	Santa Rita 	10	Octubre	2023-05-10T00:00:00	2024-11-08T11:00:00	8	Radiación solar	1088
121289	7	Sololá	704	Santa Lucía Utatlán 	7	Santa Rita 	10	Octubre	2023-05-10T00:00:00	2024-11-08T12:00:00	2	Temperatura media	22.6
121290	7	Sololá	704	Santa Lucía Utatlán 	7	Santa Rita 	10	Octubre	2023-05-10T00:00:00	2024-11-08T12:00:00	4	Temperatura máxima	24.4
121291	7	Sololá	704	Santa Lucía Utatlán 	7	Santa Rita 	10	Octubre	2023-05-10T00:00:00	2024-11-08T12:00:00	3	Temperatura mínima	22.6
121292	7	Sololá	704	Santa Lucía Utatlán 	7	Santa Rita 	10	Octubre	2023-05-10T00:00:00	2024-11-08T12:00:00	5	Humedad	89
121293	7	Sololá	704	Santa Lucía Utatlán 	7	Santa Rita 	10	Octubre	2023-05-10T00:00:00	2024-11-08T12:00:00	6	Velocidad del viento	4.8
121294	7	Sololá	704	Santa Lucía Utatlán 	7	Santa Rita 	10	Octubre	2023-05-10T00:00:00	2024-11-08T12:00:00	7	Dirección del viento	4.83
121295	7	Sololá	704	Santa Lucía Utatlán 	7	Santa Rita 	10	Octubre	2023-05-10T00:00:00	2024-11-08T12:00:00	1	Precipitación	0
121296	7	Sololá	704	Santa Lucía Utatlán 	7	Santa Rita 	10	Octubre	2023-05-10T00:00:00	2024-11-08T12:00:00	8	Radiación solar	446
121297	7	Sololá	704	Santa Lucía Utatlán 	7	Santa Rita 	10	Octubre	2023-05-10T00:00:00	2024-11-08T13:00:00	2	Temperatura media	22.3
121298	7	Sololá	704	Santa Lucía Utatlán 	7	Santa Rita 	10	Octubre	2023-05-10T00:00:00	2024-11-08T13:00:00	4	Temperatura máxima	22.8
121299	7	Sololá	704	Santa Lucía Utatlán 	7	Santa Rita 	10	Octubre	2023-05-10T00:00:00	2024-11-08T13:00:00	3	Temperatura mínima	22.2
121300	7	Sololá	704	Santa Lucía Utatlán 	7	Santa Rita 	10	Octubre	2023-05-10T00:00:00	2024-11-08T13:00:00	5	Humedad	89
121301	7	Sololá	704	Santa Lucía Utatlán 	7	Santa Rita 	10	Octubre	2023-05-10T00:00:00	2024-11-08T13:00:00	6	Velocidad del viento	3.2
121302	7	Sololá	704	Santa Lucía Utatlán 	7	Santa Rita 	10	Octubre	2023-05-10T00:00:00	2024-11-08T13:00:00	7	Dirección del viento	3.22
121303	7	Sololá	704	Santa Lucía Utatlán 	7	Santa Rita 	10	Octubre	2023-05-10T00:00:00	2024-11-08T13:00:00	1	Precipitación	0
121304	7	Sololá	704	Santa Lucía Utatlán 	7	Santa Rita 	10	Octubre	2023-05-10T00:00:00	2024-11-08T13:00:00	8	Radiación solar	355
121305	7	Sololá	704	Santa Lucía Utatlán 	7	Santa Rita 	10	Octubre	2023-05-10T00:00:00	2024-11-08T14:00:00	2	Temperatura media	21.4
121306	7	Sololá	704	Santa Lucía Utatlán 	7	Santa Rita 	10	Octubre	2023-05-10T00:00:00	2024-11-08T14:00:00	4	Temperatura máxima	22.4
121307	7	Sololá	704	Santa Lucía Utatlán 	7	Santa Rita 	10	Octubre	2023-05-10T00:00:00	2024-11-08T14:00:00	3	Temperatura mínima	21.4
121308	7	Sololá	704	Santa Lucía Utatlán 	7	Santa Rita 	10	Octubre	2023-05-10T00:00:00	2024-11-08T14:00:00	5	Humedad	93
121309	7	Sololá	704	Santa Lucía Utatlán 	7	Santa Rita 	10	Octubre	2023-05-10T00:00:00	2024-11-08T14:00:00	6	Velocidad del viento	3.2
121310	7	Sololá	704	Santa Lucía Utatlán 	7	Santa Rita 	10	Octubre	2023-05-10T00:00:00	2024-11-08T14:00:00	7	Dirección del viento	3.22
121311	7	Sololá	704	Santa Lucía Utatlán 	7	Santa Rita 	10	Octubre	2023-05-10T00:00:00	2024-11-08T14:00:00	1	Precipitación	0
121312	7	Sololá	704	Santa Lucía Utatlán 	7	Santa Rita 	10	Octubre	2023-05-10T00:00:00	2024-11-08T14:00:00	8	Radiación solar	258
121313	7	Sololá	704	Santa Lucía Utatlán 	7	Santa Rita 	10	Octubre	2023-05-10T00:00:00	2024-11-08T15:00:00	2	Temperatura media	21.1
121314	7	Sololá	704	Santa Lucía Utatlán 	7	Santa Rita 	10	Octubre	2023-05-10T00:00:00	2024-11-08T15:00:00	4	Temperatura máxima	21.4
121315	7	Sololá	704	Santa Lucía Utatlán 	7	Santa Rita 	10	Octubre	2023-05-10T00:00:00	2024-11-08T15:00:00	3	Temperatura mínima	21.1
121316	7	Sololá	704	Santa Lucía Utatlán 	7	Santa Rita 	10	Octubre	2023-05-10T00:00:00	2024-11-08T15:00:00	5	Humedad	89
121317	7	Sololá	704	Santa Lucía Utatlán 	7	Santa Rita 	10	Octubre	2023-05-10T00:00:00	2024-11-08T15:00:00	6	Velocidad del viento	1.6
121318	7	Sololá	704	Santa Lucía Utatlán 	7	Santa Rita 	10	Octubre	2023-05-10T00:00:00	2024-11-08T15:00:00	7	Dirección del viento	1.61
121319	7	Sololá	704	Santa Lucía Utatlán 	7	Santa Rita 	10	Octubre	2023-05-10T00:00:00	2024-11-08T15:00:00	1	Precipitación	0
121320	7	Sololá	704	Santa Lucía Utatlán 	7	Santa Rita 	10	Octubre	2023-05-10T00:00:00	2024-11-08T15:00:00	8	Radiación solar	241
121321	7	Sololá	704	Santa Lucía Utatlán 	7	Santa Rita 	10	Octubre	2023-05-10T00:00:00	2024-11-08T16:00:00	2	Temperatura media	20.3
121322	7	Sololá	704	Santa Lucía Utatlán 	7	Santa Rita 	10	Octubre	2023-05-10T00:00:00	2024-11-08T16:00:00	4	Temperatura máxima	21.1
121323	7	Sololá	704	Santa Lucía Utatlán 	7	Santa Rita 	10	Octubre	2023-05-10T00:00:00	2024-11-08T16:00:00	3	Temperatura mínima	20.3
121324	7	Sololá	704	Santa Lucía Utatlán 	7	Santa Rita 	10	Octubre	2023-05-10T00:00:00	2024-11-08T16:00:00	5	Humedad	92
121325	7	Sololá	704	Santa Lucía Utatlán 	7	Santa Rita 	10	Octubre	2023-05-10T00:00:00	2024-11-08T16:00:00	6	Velocidad del viento	1.6
121326	7	Sololá	704	Santa Lucía Utatlán 	7	Santa Rita 	10	Octubre	2023-05-10T00:00:00	2024-11-08T16:00:00	7	Dirección del viento	1.61
121327	7	Sololá	704	Santa Lucía Utatlán 	7	Santa Rita 	10	Octubre	2023-05-10T00:00:00	2024-11-08T16:00:00	1	Precipitación	0
121328	7	Sololá	704	Santa Lucía Utatlán 	7	Santa Rita 	10	Octubre	2023-05-10T00:00:00	2024-11-08T16:00:00	8	Radiación solar	139
121329	7	Sololá	704	Santa Lucía Utatlán 	7	Santa Rita 	10	Octubre	2023-05-10T00:00:00	2024-11-08T17:00:00	2	Temperatura media	19.4
121330	7	Sololá	704	Santa Lucía Utatlán 	7	Santa Rita 	10	Octubre	2023-05-10T00:00:00	2024-11-08T17:00:00	4	Temperatura máxima	20.2
121331	7	Sololá	704	Santa Lucía Utatlán 	7	Santa Rita 	10	Octubre	2023-05-10T00:00:00	2024-11-08T17:00:00	3	Temperatura mínima	19.4
121332	7	Sololá	704	Santa Lucía Utatlán 	7	Santa Rita 	10	Octubre	2023-05-10T00:00:00	2024-11-08T17:00:00	5	Humedad	94
121333	7	Sololá	704	Santa Lucía Utatlán 	7	Santa Rita 	10	Octubre	2023-05-10T00:00:00	2024-11-08T17:00:00	6	Velocidad del viento	1.6
121334	7	Sololá	704	Santa Lucía Utatlán 	7	Santa Rita 	10	Octubre	2023-05-10T00:00:00	2024-11-08T17:00:00	7	Dirección del viento	1.61
121335	7	Sololá	704	Santa Lucía Utatlán 	7	Santa Rita 	10	Octubre	2023-05-10T00:00:00	2024-11-08T17:00:00	1	Precipitación	0
121336	7	Sololá	704	Santa Lucía Utatlán 	7	Santa Rita 	10	Octubre	2023-05-10T00:00:00	2024-11-08T17:00:00	8	Radiación solar	34
121337	7	Sololá	704	Santa Lucía Utatlán 	7	Santa Rita 	10	Octubre	2023-05-10T00:00:00	2024-11-08T18:00:00	2	Temperatura media	19.4
121338	7	Sololá	704	Santa Lucía Utatlán 	7	Santa Rita 	10	Octubre	2023-05-10T00:00:00	2024-11-08T18:00:00	4	Temperatura máxima	19.5
121339	7	Sololá	704	Santa Lucía Utatlán 	7	Santa Rita 	10	Octubre	2023-05-10T00:00:00	2024-11-08T18:00:00	3	Temperatura mínima	19.2
121340	7	Sololá	704	Santa Lucía Utatlán 	7	Santa Rita 	10	Octubre	2023-05-10T00:00:00	2024-11-08T18:00:00	5	Humedad	94
121341	7	Sololá	704	Santa Lucía Utatlán 	7	Santa Rita 	10	Octubre	2023-05-10T00:00:00	2024-11-08T18:00:00	6	Velocidad del viento	3.2
121342	7	Sololá	704	Santa Lucía Utatlán 	7	Santa Rita 	10	Octubre	2023-05-10T00:00:00	2024-11-08T18:00:00	7	Dirección del viento	3.22
121343	7	Sololá	704	Santa Lucía Utatlán 	7	Santa Rita 	10	Octubre	2023-05-10T00:00:00	2024-11-08T18:00:00	1	Precipitación	0
121344	7	Sololá	704	Santa Lucía Utatlán 	7	Santa Rita 	10	Octubre	2023-05-10T00:00:00	2024-11-08T18:00:00	8	Radiación solar	0
121345	7	Sololá	704	Santa Lucía Utatlán 	7	Santa Rita 	10	Octubre	2023-05-10T00:00:00	2024-11-08T19:00:00	2	Temperatura media	19.3
121346	7	Sololá	704	Santa Lucía Utatlán 	7	Santa Rita 	10	Octubre	2023-05-10T00:00:00	2024-11-08T19:00:00	4	Temperatura máxima	19.7
121347	7	Sololá	704	Santa Lucía Utatlán 	7	Santa Rita 	10	Octubre	2023-05-10T00:00:00	2024-11-08T19:00:00	3	Temperatura mínima	19.3
121348	7	Sololá	704	Santa Lucía Utatlán 	7	Santa Rita 	10	Octubre	2023-05-10T00:00:00	2024-11-08T19:00:00	5	Humedad	92
121349	7	Sololá	704	Santa Lucía Utatlán 	7	Santa Rita 	10	Octubre	2023-05-10T00:00:00	2024-11-08T19:00:00	6	Velocidad del viento	1.6
121350	7	Sololá	704	Santa Lucía Utatlán 	7	Santa Rita 	10	Octubre	2023-05-10T00:00:00	2024-11-08T19:00:00	7	Dirección del viento	1.61
121351	7	Sololá	704	Santa Lucía Utatlán 	7	Santa Rita 	10	Octubre	2023-05-10T00:00:00	2024-11-08T19:00:00	1	Precipitación	0
121352	7	Sololá	704	Santa Lucía Utatlán 	7	Santa Rita 	10	Octubre	2023-05-10T00:00:00	2024-11-08T19:00:00	8	Radiación solar	0
121353	7	Sololá	704	Santa Lucía Utatlán 	7	Santa Rita 	10	Octubre	2023-05-10T00:00:00	2024-11-08T20:00:00	2	Temperatura media	20.1
121354	7	Sololá	704	Santa Lucía Utatlán 	7	Santa Rita 	10	Octubre	2023-05-10T00:00:00	2024-11-08T20:00:00	4	Temperatura máxima	20.2
121355	7	Sololá	704	Santa Lucía Utatlán 	7	Santa Rita 	10	Octubre	2023-05-10T00:00:00	2024-11-08T20:00:00	3	Temperatura mínima	19.3
121356	7	Sololá	704	Santa Lucía Utatlán 	7	Santa Rita 	10	Octubre	2023-05-10T00:00:00	2024-11-08T20:00:00	5	Humedad	83
121357	7	Sololá	704	Santa Lucía Utatlán 	7	Santa Rita 	10	Octubre	2023-05-10T00:00:00	2024-11-08T20:00:00	6	Velocidad del viento	4.8
121358	7	Sololá	704	Santa Lucía Utatlán 	7	Santa Rita 	10	Octubre	2023-05-10T00:00:00	2024-11-08T20:00:00	7	Dirección del viento	4.83
121359	7	Sololá	704	Santa Lucía Utatlán 	7	Santa Rita 	10	Octubre	2023-05-10T00:00:00	2024-11-08T20:00:00	1	Precipitación	0
121360	7	Sololá	704	Santa Lucía Utatlán 	7	Santa Rita 	10	Octubre	2023-05-10T00:00:00	2024-11-08T20:00:00	8	Radiación solar	0
121361	7	Sololá	704	Santa Lucía Utatlán 	7	Santa Rita 	10	Octubre	2023-05-10T00:00:00	2024-11-08T21:00:00	2	Temperatura media	19.4
121362	7	Sololá	704	Santa Lucía Utatlán 	7	Santa Rita 	10	Octubre	2023-05-10T00:00:00	2024-11-08T21:00:00	4	Temperatura máxima	20.1
121363	7	Sololá	704	Santa Lucía Utatlán 	7	Santa Rita 	10	Octubre	2023-05-10T00:00:00	2024-11-08T21:00:00	3	Temperatura mínima	19.4
121364	7	Sololá	704	Santa Lucía Utatlán 	7	Santa Rita 	10	Octubre	2023-05-10T00:00:00	2024-11-08T21:00:00	5	Humedad	85
121365	7	Sololá	704	Santa Lucía Utatlán 	7	Santa Rita 	10	Octubre	2023-05-10T00:00:00	2024-11-08T21:00:00	6	Velocidad del viento	4.8
121366	7	Sololá	704	Santa Lucía Utatlán 	7	Santa Rita 	10	Octubre	2023-05-10T00:00:00	2024-11-08T21:00:00	7	Dirección del viento	4.83
121367	7	Sololá	704	Santa Lucía Utatlán 	7	Santa Rita 	10	Octubre	2023-05-10T00:00:00	2024-11-08T21:00:00	1	Precipitación	0
121368	7	Sololá	704	Santa Lucía Utatlán 	7	Santa Rita 	10	Octubre	2023-05-10T00:00:00	2024-11-08T21:00:00	8	Radiación solar	0
121369	7	Sololá	704	Santa Lucía Utatlán 	7	Santa Rita 	10	Octubre	2023-05-10T00:00:00	2024-11-08T22:00:00	2	Temperatura media	18.3
121370	7	Sololá	704	Santa Lucía Utatlán 	7	Santa Rita 	10	Octubre	2023-05-10T00:00:00	2024-11-08T22:00:00	4	Temperatura máxima	19.4
121371	7	Sololá	704	Santa Lucía Utatlán 	7	Santa Rita 	10	Octubre	2023-05-10T00:00:00	2024-11-08T22:00:00	3	Temperatura mínima	18
121372	7	Sololá	704	Santa Lucía Utatlán 	7	Santa Rita 	10	Octubre	2023-05-10T00:00:00	2024-11-08T22:00:00	5	Humedad	86
121373	7	Sololá	704	Santa Lucía Utatlán 	7	Santa Rita 	10	Octubre	2023-05-10T00:00:00	2024-11-08T22:00:00	6	Velocidad del viento	3.2
121374	7	Sololá	704	Santa Lucía Utatlán 	7	Santa Rita 	10	Octubre	2023-05-10T00:00:00	2024-11-08T22:00:00	7	Dirección del viento	3.22
121375	7	Sololá	704	Santa Lucía Utatlán 	7	Santa Rita 	10	Octubre	2023-05-10T00:00:00	2024-11-08T22:00:00	1	Precipitación	0
121376	7	Sololá	704	Santa Lucía Utatlán 	7	Santa Rita 	10	Octubre	2023-05-10T00:00:00	2024-11-08T22:00:00	8	Radiación solar	0
121377	7	Sololá	704	Santa Lucía Utatlán 	7	Santa Rita 	10	Octubre	2023-05-10T00:00:00	2024-11-08T23:00:00	2	Temperatura media	17.7
121378	7	Sololá	704	Santa Lucía Utatlán 	7	Santa Rita 	10	Octubre	2023-05-10T00:00:00	2024-11-08T23:00:00	4	Temperatura máxima	18.3
121379	7	Sololá	704	Santa Lucía Utatlán 	7	Santa Rita 	10	Octubre	2023-05-10T00:00:00	2024-11-08T23:00:00	3	Temperatura mínima	17.7
121380	7	Sololá	704	Santa Lucía Utatlán 	7	Santa Rita 	10	Octubre	2023-05-10T00:00:00	2024-11-08T23:00:00	5	Humedad	88
121381	7	Sololá	704	Santa Lucía Utatlán 	7	Santa Rita 	10	Octubre	2023-05-10T00:00:00	2024-11-08T23:00:00	6	Velocidad del viento	3.2
121382	7	Sololá	704	Santa Lucía Utatlán 	7	Santa Rita 	10	Octubre	2023-05-10T00:00:00	2024-11-08T23:00:00	7	Dirección del viento	3.22
121383	7	Sololá	704	Santa Lucía Utatlán 	7	Santa Rita 	10	Octubre	2023-05-10T00:00:00	2024-11-08T23:00:00	1	Precipitación	0
121384	7	Sololá	704	Santa Lucía Utatlán 	7	Santa Rita 	10	Octubre	2023-05-10T00:00:00	2024-11-08T23:00:00	8	Radiación solar	0
121385	7	Sololá	704	Santa Lucía Utatlán 	7	Santa Rita 	10	Octubre	2023-06-10T00:00:00	2024-11-08T00:00:00	2	Temperatura media	17
121386	7	Sololá	704	Santa Lucía Utatlán 	7	Santa Rita 	10	Octubre	2023-06-10T00:00:00	2024-11-08T00:00:00	4	Temperatura máxima	17.8
121387	7	Sololá	704	Santa Lucía Utatlán 	7	Santa Rita 	10	Octubre	2023-06-10T00:00:00	2024-11-08T00:00:00	3	Temperatura mínima	16.9
121388	7	Sololá	704	Santa Lucía Utatlán 	7	Santa Rita 	10	Octubre	2023-06-10T00:00:00	2024-11-08T00:00:00	5	Humedad	91
121389	7	Sololá	704	Santa Lucía Utatlán 	7	Santa Rita 	10	Octubre	2023-06-10T00:00:00	2024-11-08T00:00:00	6	Velocidad del viento	3.2
121390	7	Sololá	704	Santa Lucía Utatlán 	7	Santa Rita 	10	Octubre	2023-06-10T00:00:00	2024-11-08T00:00:00	7	Dirección del viento	3.22
121391	7	Sololá	704	Santa Lucía Utatlán 	7	Santa Rita 	10	Octubre	2023-06-10T00:00:00	2024-11-08T00:00:00	1	Precipitación	0
121392	7	Sololá	704	Santa Lucía Utatlán 	7	Santa Rita 	10	Octubre	2023-06-10T00:00:00	2024-11-08T00:00:00	8	Radiación solar	0
121393	7	Sololá	704	Santa Lucía Utatlán 	7	Santa Rita 	10	Octubre	2023-06-10T00:00:00	2024-11-08T01:00:00	2	Temperatura media	16.8
121394	7	Sololá	704	Santa Lucía Utatlán 	7	Santa Rita 	10	Octubre	2023-06-10T00:00:00	2024-11-08T01:00:00	4	Temperatura máxima	17.1
121395	7	Sololá	704	Santa Lucía Utatlán 	7	Santa Rita 	10	Octubre	2023-06-10T00:00:00	2024-11-08T01:00:00	3	Temperatura mínima	16.8
121396	7	Sololá	704	Santa Lucía Utatlán 	7	Santa Rita 	10	Octubre	2023-06-10T00:00:00	2024-11-08T01:00:00	5	Humedad	91
121397	7	Sololá	704	Santa Lucía Utatlán 	7	Santa Rita 	10	Octubre	2023-06-10T00:00:00	2024-11-08T01:00:00	6	Velocidad del viento	3.2
121398	7	Sololá	704	Santa Lucía Utatlán 	7	Santa Rita 	10	Octubre	2023-06-10T00:00:00	2024-11-08T01:00:00	7	Dirección del viento	3.22
121399	7	Sololá	704	Santa Lucía Utatlán 	7	Santa Rita 	10	Octubre	2023-06-10T00:00:00	2024-11-08T01:00:00	1	Precipitación	0
121400	7	Sololá	704	Santa Lucía Utatlán 	7	Santa Rita 	10	Octubre	2023-06-10T00:00:00	2024-11-08T01:00:00	8	Radiación solar	0
121401	7	Sololá	704	Santa Lucía Utatlán 	7	Santa Rita 	10	Octubre	2023-06-10T00:00:00	2024-11-08T02:00:00	2	Temperatura media	16.9
121402	7	Sololá	704	Santa Lucía Utatlán 	7	Santa Rita 	10	Octubre	2023-06-10T00:00:00	2024-11-08T02:00:00	4	Temperatura máxima	16.9
121403	7	Sololá	704	Santa Lucía Utatlán 	7	Santa Rita 	10	Octubre	2023-06-10T00:00:00	2024-11-08T02:00:00	3	Temperatura mínima	16.8
121404	7	Sololá	704	Santa Lucía Utatlán 	7	Santa Rita 	10	Octubre	2023-06-10T00:00:00	2024-11-08T02:00:00	5	Humedad	93
121405	7	Sololá	704	Santa Lucía Utatlán 	7	Santa Rita 	10	Octubre	2023-06-10T00:00:00	2024-11-08T02:00:00	6	Velocidad del viento	4.8
121406	7	Sololá	704	Santa Lucía Utatlán 	7	Santa Rita 	10	Octubre	2023-06-10T00:00:00	2024-11-08T02:00:00	7	Dirección del viento	4.83
121407	7	Sololá	704	Santa Lucía Utatlán 	7	Santa Rita 	10	Octubre	2023-06-10T00:00:00	2024-11-08T02:00:00	1	Precipitación	0
121408	7	Sololá	704	Santa Lucía Utatlán 	7	Santa Rita 	10	Octubre	2023-06-10T00:00:00	2024-11-08T02:00:00	8	Radiación solar	0
121409	7	Sololá	704	Santa Lucía Utatlán 	7	Santa Rita 	10	Octubre	2023-06-10T00:00:00	2024-11-08T03:00:00	2	Temperatura media	18.6
121410	7	Sololá	704	Santa Lucía Utatlán 	7	Santa Rita 	10	Octubre	2023-06-10T00:00:00	2024-11-08T03:00:00	4	Temperatura máxima	18.6
121411	7	Sololá	704	Santa Lucía Utatlán 	7	Santa Rita 	10	Octubre	2023-06-10T00:00:00	2024-11-08T03:00:00	3	Temperatura mínima	16.9
121412	7	Sololá	704	Santa Lucía Utatlán 	7	Santa Rita 	10	Octubre	2023-06-10T00:00:00	2024-11-08T03:00:00	5	Humedad	92
121413	7	Sololá	704	Santa Lucía Utatlán 	7	Santa Rita 	10	Octubre	2023-06-10T00:00:00	2024-11-08T03:00:00	6	Velocidad del viento	3.2
121414	7	Sololá	704	Santa Lucía Utatlán 	7	Santa Rita 	10	Octubre	2023-06-10T00:00:00	2024-11-08T03:00:00	7	Dirección del viento	3.22
121415	7	Sololá	704	Santa Lucía Utatlán 	7	Santa Rita 	10	Octubre	2023-06-10T00:00:00	2024-11-08T03:00:00	1	Precipitación	0
121416	7	Sololá	704	Santa Lucía Utatlán 	7	Santa Rita 	10	Octubre	2023-06-10T00:00:00	2024-11-08T03:00:00	8	Radiación solar	0
121417	7	Sololá	704	Santa Lucía Utatlán 	7	Santa Rita 	10	Octubre	2023-06-10T00:00:00	2024-11-08T04:00:00	2	Temperatura media	22.4
121418	7	Sololá	704	Santa Lucía Utatlán 	7	Santa Rita 	10	Octubre	2023-06-10T00:00:00	2024-11-08T04:00:00	4	Temperatura máxima	22.4
121419	7	Sololá	704	Santa Lucía Utatlán 	7	Santa Rita 	10	Octubre	2023-06-10T00:00:00	2024-11-08T04:00:00	3	Temperatura mínima	18.6
121420	7	Sololá	704	Santa Lucía Utatlán 	7	Santa Rita 	10	Octubre	2023-06-10T00:00:00	2024-11-08T04:00:00	5	Humedad	81
121421	7	Sololá	704	Santa Lucía Utatlán 	7	Santa Rita 	10	Octubre	2023-06-10T00:00:00	2024-11-08T04:00:00	6	Velocidad del viento	3.2
121422	7	Sololá	704	Santa Lucía Utatlán 	7	Santa Rita 	10	Octubre	2023-06-10T00:00:00	2024-11-08T04:00:00	7	Dirección del viento	3.22
121423	7	Sololá	704	Santa Lucía Utatlán 	7	Santa Rita 	10	Octubre	2023-06-10T00:00:00	2024-11-08T04:00:00	1	Precipitación	0
121424	7	Sololá	704	Santa Lucía Utatlán 	7	Santa Rita 	10	Octubre	2023-06-10T00:00:00	2024-11-08T04:00:00	8	Radiación solar	0
121425	7	Sololá	704	Santa Lucía Utatlán 	7	Santa Rita 	10	Octubre	2023-06-10T00:00:00	2024-11-08T05:00:00	2	Temperatura media	24.3
121426	7	Sololá	704	Santa Lucía Utatlán 	7	Santa Rita 	10	Octubre	2023-06-10T00:00:00	2024-11-08T05:00:00	4	Temperatura máxima	24.3
121427	7	Sololá	704	Santa Lucía Utatlán 	7	Santa Rita 	10	Octubre	2023-06-10T00:00:00	2024-11-08T05:00:00	3	Temperatura mínima	22.4
121428	7	Sololá	704	Santa Lucía Utatlán 	7	Santa Rita 	10	Octubre	2023-06-10T00:00:00	2024-11-08T05:00:00	5	Humedad	74
121429	7	Sololá	704	Santa Lucía Utatlán 	7	Santa Rita 	10	Octubre	2023-06-10T00:00:00	2024-11-08T05:00:00	6	Velocidad del viento	4.8
121430	7	Sololá	704	Santa Lucía Utatlán 	7	Santa Rita 	10	Octubre	2023-06-10T00:00:00	2024-11-08T05:00:00	7	Dirección del viento	4.83
121431	7	Sololá	704	Santa Lucía Utatlán 	7	Santa Rita 	10	Octubre	2023-06-10T00:00:00	2024-11-08T05:00:00	1	Precipitación	0
121432	7	Sololá	704	Santa Lucía Utatlán 	7	Santa Rita 	10	Octubre	2023-06-10T00:00:00	2024-11-08T05:00:00	8	Radiación solar	0
121433	7	Sololá	704	Santa Lucía Utatlán 	7	Santa Rita 	10	Octubre	2023-06-10T00:00:00	2024-11-08T06:00:00	2	Temperatura media	25.1
121434	7	Sololá	704	Santa Lucía Utatlán 	7	Santa Rita 	10	Octubre	2023-06-10T00:00:00	2024-11-08T06:00:00	4	Temperatura máxima	25.4
121435	7	Sololá	704	Santa Lucía Utatlán 	7	Santa Rita 	10	Octubre	2023-06-10T00:00:00	2024-11-08T06:00:00	3	Temperatura mínima	24.3
121436	7	Sololá	704	Santa Lucía Utatlán 	7	Santa Rita 	10	Octubre	2023-06-10T00:00:00	2024-11-08T06:00:00	5	Humedad	76
121437	7	Sololá	704	Santa Lucía Utatlán 	7	Santa Rita 	10	Octubre	2023-06-10T00:00:00	2024-11-08T06:00:00	6	Velocidad del viento	6.4
121438	7	Sololá	704	Santa Lucía Utatlán 	7	Santa Rita 	10	Octubre	2023-06-10T00:00:00	2024-11-08T06:00:00	7	Dirección del viento	6.44
121439	7	Sololá	704	Santa Lucía Utatlán 	7	Santa Rita 	10	Octubre	2023-06-10T00:00:00	2024-11-08T06:00:00	1	Precipitación	0
121440	7	Sololá	704	Santa Lucía Utatlán 	7	Santa Rita 	10	Octubre	2023-06-10T00:00:00	2024-11-08T06:00:00	8	Radiación solar	0
121441	7	Sololá	704	Santa Lucía Utatlán 	7	Santa Rita 	10	Octubre	2023-06-10T00:00:00	2024-11-08T07:00:00	2	Temperatura media	25.3
121442	7	Sololá	704	Santa Lucía Utatlán 	7	Santa Rita 	10	Octubre	2023-06-10T00:00:00	2024-11-08T07:00:00	4	Temperatura máxima	25.9
121443	7	Sololá	704	Santa Lucía Utatlán 	7	Santa Rita 	10	Octubre	2023-06-10T00:00:00	2024-11-08T07:00:00	3	Temperatura mínima	24.7
121444	7	Sololá	704	Santa Lucía Utatlán 	7	Santa Rita 	10	Octubre	2023-06-10T00:00:00	2024-11-08T07:00:00	5	Humedad	75
121445	7	Sololá	704	Santa Lucía Utatlán 	7	Santa Rita 	10	Octubre	2023-06-10T00:00:00	2024-11-08T07:00:00	6	Velocidad del viento	8
121446	7	Sololá	704	Santa Lucía Utatlán 	7	Santa Rita 	10	Octubre	2023-06-10T00:00:00	2024-11-08T07:00:00	7	Dirección del viento	8.05
121447	7	Sololá	704	Santa Lucía Utatlán 	7	Santa Rita 	10	Octubre	2023-06-10T00:00:00	2024-11-08T07:00:00	1	Precipitación	0
121448	7	Sololá	704	Santa Lucía Utatlán 	7	Santa Rita 	10	Octubre	2023-06-10T00:00:00	2024-11-08T07:00:00	8	Radiación solar	53
121449	7	Sololá	704	Santa Lucía Utatlán 	7	Santa Rita 	10	Octubre	2023-06-10T00:00:00	2024-11-08T08:00:00	2	Temperatura media	24.6
121450	7	Sololá	704	Santa Lucía Utatlán 	7	Santa Rita 	10	Octubre	2023-06-10T00:00:00	2024-11-08T08:00:00	4	Temperatura máxima	25.6
121451	7	Sololá	704	Santa Lucía Utatlán 	7	Santa Rita 	10	Octubre	2023-06-10T00:00:00	2024-11-08T08:00:00	3	Temperatura mínima	24.4
121452	7	Sololá	704	Santa Lucía Utatlán 	7	Santa Rita 	10	Octubre	2023-06-10T00:00:00	2024-11-08T08:00:00	5	Humedad	77
121453	7	Sololá	704	Santa Lucía Utatlán 	7	Santa Rita 	10	Octubre	2023-06-10T00:00:00	2024-11-08T08:00:00	6	Velocidad del viento	6.4
121454	7	Sololá	704	Santa Lucía Utatlán 	7	Santa Rita 	10	Octubre	2023-06-10T00:00:00	2024-11-08T08:00:00	7	Dirección del viento	6.44
121455	7	Sololá	704	Santa Lucía Utatlán 	7	Santa Rita 	10	Octubre	2023-06-10T00:00:00	2024-11-08T08:00:00	1	Precipitación	0
121456	7	Sololá	704	Santa Lucía Utatlán 	7	Santa Rita 	10	Octubre	2023-06-10T00:00:00	2024-11-08T08:00:00	8	Radiación solar	294
121457	7	Sololá	704	Santa Lucía Utatlán 	7	Santa Rita 	10	Octubre	2023-06-10T00:00:00	2024-11-08T09:00:00	2	Temperatura media	24.9
121458	7	Sololá	704	Santa Lucía Utatlán 	7	Santa Rita 	10	Octubre	2023-06-10T00:00:00	2024-11-08T09:00:00	4	Temperatura máxima	25.5
121459	7	Sololá	704	Santa Lucía Utatlán 	7	Santa Rita 	10	Octubre	2023-06-10T00:00:00	2024-11-08T09:00:00	3	Temperatura mínima	24.6
121460	7	Sololá	704	Santa Lucía Utatlán 	7	Santa Rita 	10	Octubre	2023-06-10T00:00:00	2024-11-08T09:00:00	5	Humedad	77
121461	7	Sololá	704	Santa Lucía Utatlán 	7	Santa Rita 	10	Octubre	2023-06-10T00:00:00	2024-11-08T09:00:00	6	Velocidad del viento	8
121462	7	Sololá	704	Santa Lucía Utatlán 	7	Santa Rita 	10	Octubre	2023-06-10T00:00:00	2024-11-08T09:00:00	7	Dirección del viento	8.05
121463	7	Sololá	704	Santa Lucía Utatlán 	7	Santa Rita 	10	Octubre	2023-06-10T00:00:00	2024-11-08T09:00:00	1	Precipitación	0
121464	7	Sololá	704	Santa Lucía Utatlán 	7	Santa Rita 	10	Octubre	2023-06-10T00:00:00	2024-11-08T09:00:00	8	Radiación solar	548
121465	7	Sololá	704	Santa Lucía Utatlán 	7	Santa Rita 	10	Octubre	2023-06-10T00:00:00	2024-11-08T10:00:00	2	Temperatura media	24.2
121466	7	Sololá	704	Santa Lucía Utatlán 	7	Santa Rita 	10	Octubre	2023-06-10T00:00:00	2024-11-08T10:00:00	4	Temperatura máxima	25.4
121467	7	Sololá	704	Santa Lucía Utatlán 	7	Santa Rita 	10	Octubre	2023-06-10T00:00:00	2024-11-08T10:00:00	3	Temperatura mínima	24.2
121468	7	Sololá	704	Santa Lucía Utatlán 	7	Santa Rita 	10	Octubre	2023-06-10T00:00:00	2024-11-08T10:00:00	5	Humedad	82
121469	7	Sololá	704	Santa Lucía Utatlán 	7	Santa Rita 	10	Octubre	2023-06-10T00:00:00	2024-11-08T10:00:00	6	Velocidad del viento	9.7
121470	7	Sololá	704	Santa Lucía Utatlán 	7	Santa Rita 	10	Octubre	2023-06-10T00:00:00	2024-11-08T10:00:00	7	Dirección del viento	9.66
121471	7	Sololá	704	Santa Lucía Utatlán 	7	Santa Rita 	10	Octubre	2023-06-10T00:00:00	2024-11-08T10:00:00	1	Precipitación	0
121472	7	Sololá	704	Santa Lucía Utatlán 	7	Santa Rita 	10	Octubre	2023-06-10T00:00:00	2024-11-08T10:00:00	8	Radiación solar	814
121473	7	Sololá	704	Santa Lucía Utatlán 	7	Santa Rita 	10	Octubre	2023-06-10T00:00:00	2024-11-08T11:00:00	2	Temperatura media	23.6
121474	7	Sololá	704	Santa Lucía Utatlán 	7	Santa Rita 	10	Octubre	2023-06-10T00:00:00	2024-11-08T11:00:00	4	Temperatura máxima	24.8
121475	7	Sololá	704	Santa Lucía Utatlán 	7	Santa Rita 	10	Octubre	2023-06-10T00:00:00	2024-11-08T11:00:00	3	Temperatura mínima	23.2
121476	7	Sololá	704	Santa Lucía Utatlán 	7	Santa Rita 	10	Octubre	2023-06-10T00:00:00	2024-11-08T11:00:00	5	Humedad	85
121477	7	Sololá	704	Santa Lucía Utatlán 	7	Santa Rita 	10	Octubre	2023-06-10T00:00:00	2024-11-08T11:00:00	6	Velocidad del viento	6.4
121478	7	Sololá	704	Santa Lucía Utatlán 	7	Santa Rita 	10	Octubre	2023-06-10T00:00:00	2024-11-08T11:00:00	7	Dirección del viento	6.44
121479	7	Sololá	704	Santa Lucía Utatlán 	7	Santa Rita 	10	Octubre	2023-06-10T00:00:00	2024-11-08T11:00:00	1	Precipitación	0
121480	7	Sololá	704	Santa Lucía Utatlán 	7	Santa Rita 	10	Octubre	2023-06-10T00:00:00	2024-11-08T11:00:00	8	Radiación solar	1000
121481	7	Sololá	704	Santa Lucía Utatlán 	7	Santa Rita 	10	Octubre	2023-06-10T00:00:00	2024-11-08T12:00:00	2	Temperatura media	23.2
121482	7	Sololá	704	Santa Lucía Utatlán 	7	Santa Rita 	10	Octubre	2023-06-10T00:00:00	2024-11-08T12:00:00	4	Temperatura máxima	24.1
121483	7	Sololá	704	Santa Lucía Utatlán 	7	Santa Rita 	10	Octubre	2023-06-10T00:00:00	2024-11-08T12:00:00	3	Temperatura mínima	23.1
121484	7	Sololá	704	Santa Lucía Utatlán 	7	Santa Rita 	10	Octubre	2023-06-10T00:00:00	2024-11-08T12:00:00	5	Humedad	87
121485	7	Sololá	704	Santa Lucía Utatlán 	7	Santa Rita 	10	Octubre	2023-06-10T00:00:00	2024-11-08T12:00:00	6	Velocidad del viento	3.2
121486	7	Sololá	704	Santa Lucía Utatlán 	7	Santa Rita 	10	Octubre	2023-06-10T00:00:00	2024-11-08T12:00:00	7	Dirección del viento	3.22
121487	7	Sololá	704	Santa Lucía Utatlán 	7	Santa Rita 	10	Octubre	2023-06-10T00:00:00	2024-11-08T12:00:00	1	Precipitación	0
121488	7	Sololá	704	Santa Lucía Utatlán 	7	Santa Rita 	10	Octubre	2023-06-10T00:00:00	2024-11-08T12:00:00	8	Radiación solar	499
121489	7	Sololá	704	Santa Lucía Utatlán 	7	Santa Rita 	10	Octubre	2023-06-10T00:00:00	2024-11-08T13:00:00	2	Temperatura media	22.8
121490	7	Sololá	704	Santa Lucía Utatlán 	7	Santa Rita 	10	Octubre	2023-06-10T00:00:00	2024-11-08T13:00:00	4	Temperatura máxima	23.2
121491	7	Sololá	704	Santa Lucía Utatlán 	7	Santa Rita 	10	Octubre	2023-06-10T00:00:00	2024-11-08T13:00:00	3	Temperatura mínima	22.7
121492	7	Sololá	704	Santa Lucía Utatlán 	7	Santa Rita 	10	Octubre	2023-06-10T00:00:00	2024-11-08T13:00:00	5	Humedad	89
121493	7	Sololá	704	Santa Lucía Utatlán 	7	Santa Rita 	10	Octubre	2023-06-10T00:00:00	2024-11-08T13:00:00	6	Velocidad del viento	3.2
121494	7	Sololá	704	Santa Lucía Utatlán 	7	Santa Rita 	10	Octubre	2023-06-10T00:00:00	2024-11-08T13:00:00	7	Dirección del viento	3.22
121495	7	Sololá	704	Santa Lucía Utatlán 	7	Santa Rita 	10	Octubre	2023-06-10T00:00:00	2024-11-08T13:00:00	1	Precipitación	0
121496	7	Sololá	704	Santa Lucía Utatlán 	7	Santa Rita 	10	Octubre	2023-06-10T00:00:00	2024-11-08T13:00:00	8	Radiación solar	805
121497	7	Sololá	704	Santa Lucía Utatlán 	7	Santa Rita 	10	Octubre	2023-06-10T00:00:00	2024-11-08T14:00:00	2	Temperatura media	22.2
121498	7	Sololá	704	Santa Lucía Utatlán 	7	Santa Rita 	10	Octubre	2023-06-10T00:00:00	2024-11-08T14:00:00	4	Temperatura máxima	22.8
121499	7	Sololá	704	Santa Lucía Utatlán 	7	Santa Rita 	10	Octubre	2023-06-10T00:00:00	2024-11-08T14:00:00	3	Temperatura mínima	22.2
121500	7	Sololá	704	Santa Lucía Utatlán 	7	Santa Rita 	10	Octubre	2023-06-10T00:00:00	2024-11-08T14:00:00	5	Humedad	91
121501	7	Sololá	704	Santa Lucía Utatlán 	7	Santa Rita 	10	Octubre	2023-06-10T00:00:00	2024-11-08T14:00:00	6	Velocidad del viento	1.6
121502	7	Sololá	704	Santa Lucía Utatlán 	7	Santa Rita 	10	Octubre	2023-06-10T00:00:00	2024-11-08T14:00:00	7	Dirección del viento	1.61
121503	7	Sololá	704	Santa Lucía Utatlán 	7	Santa Rita 	10	Octubre	2023-06-10T00:00:00	2024-11-08T14:00:00	1	Precipitación	0
121504	7	Sololá	704	Santa Lucía Utatlán 	7	Santa Rita 	10	Octubre	2023-06-10T00:00:00	2024-11-08T14:00:00	8	Radiación solar	415
121505	7	Sololá	704	Santa Lucía Utatlán 	7	Santa Rita 	10	Octubre	2023-06-10T00:00:00	2024-11-08T15:00:00	2	Temperatura media	21.7
121506	7	Sololá	704	Santa Lucía Utatlán 	7	Santa Rita 	10	Octubre	2023-06-10T00:00:00	2024-11-08T15:00:00	4	Temperatura máxima	22.2
121507	7	Sololá	704	Santa Lucía Utatlán 	7	Santa Rita 	10	Octubre	2023-06-10T00:00:00	2024-11-08T15:00:00	3	Temperatura mínima	21.6
121508	7	Sololá	704	Santa Lucía Utatlán 	7	Santa Rita 	10	Octubre	2023-06-10T00:00:00	2024-11-08T15:00:00	5	Humedad	94
121509	7	Sololá	704	Santa Lucía Utatlán 	7	Santa Rita 	10	Octubre	2023-06-10T00:00:00	2024-11-08T15:00:00	6	Velocidad del viento	1.6
121510	7	Sololá	704	Santa Lucía Utatlán 	7	Santa Rita 	10	Octubre	2023-06-10T00:00:00	2024-11-08T15:00:00	7	Dirección del viento	1.61
121511	7	Sololá	704	Santa Lucía Utatlán 	7	Santa Rita 	10	Octubre	2023-06-10T00:00:00	2024-11-08T15:00:00	1	Precipitación	0
121512	7	Sololá	704	Santa Lucía Utatlán 	7	Santa Rita 	10	Octubre	2023-06-10T00:00:00	2024-11-08T15:00:00	8	Radiación solar	229
121513	7	Sololá	704	Santa Lucía Utatlán 	7	Santa Rita 	10	Octubre	2023-06-10T00:00:00	2024-11-08T16:00:00	2	Temperatura media	20.9
121514	7	Sololá	704	Santa Lucía Utatlán 	7	Santa Rita 	10	Octubre	2023-06-10T00:00:00	2024-11-08T16:00:00	4	Temperatura máxima	21.8
121515	7	Sololá	704	Santa Lucía Utatlán 	7	Santa Rita 	10	Octubre	2023-06-10T00:00:00	2024-11-08T16:00:00	3	Temperatura mínima	20.9
121516	7	Sololá	704	Santa Lucía Utatlán 	7	Santa Rita 	10	Octubre	2023-06-10T00:00:00	2024-11-08T16:00:00	5	Humedad	95
121517	7	Sololá	704	Santa Lucía Utatlán 	7	Santa Rita 	10	Octubre	2023-06-10T00:00:00	2024-11-08T16:00:00	6	Velocidad del viento	1.6
121518	7	Sololá	704	Santa Lucía Utatlán 	7	Santa Rita 	10	Octubre	2023-06-10T00:00:00	2024-11-08T16:00:00	7	Dirección del viento	1.61
121519	7	Sololá	704	Santa Lucía Utatlán 	7	Santa Rita 	10	Octubre	2023-06-10T00:00:00	2024-11-08T16:00:00	1	Precipitación	0
121520	7	Sololá	704	Santa Lucía Utatlán 	7	Santa Rita 	10	Octubre	2023-06-10T00:00:00	2024-11-08T16:00:00	8	Radiación solar	126
121521	7	Sololá	704	Santa Lucía Utatlán 	7	Santa Rita 	10	Octubre	2023-06-10T00:00:00	2024-11-08T17:00:00	2	Temperatura media	20.6
121522	7	Sololá	704	Santa Lucía Utatlán 	7	Santa Rita 	10	Octubre	2023-06-10T00:00:00	2024-11-08T17:00:00	4	Temperatura máxima	21
121523	7	Sololá	704	Santa Lucía Utatlán 	7	Santa Rita 	10	Octubre	2023-06-10T00:00:00	2024-11-08T17:00:00	3	Temperatura mínima	20.6
121524	7	Sololá	704	Santa Lucía Utatlán 	7	Santa Rita 	10	Octubre	2023-06-10T00:00:00	2024-11-08T17:00:00	5	Humedad	93
121525	7	Sololá	704	Santa Lucía Utatlán 	7	Santa Rita 	10	Octubre	2023-06-10T00:00:00	2024-11-08T17:00:00	6	Velocidad del viento	1.6
121526	7	Sololá	704	Santa Lucía Utatlán 	7	Santa Rita 	10	Octubre	2023-06-10T00:00:00	2024-11-08T17:00:00	7	Dirección del viento	1.61
121527	7	Sololá	704	Santa Lucía Utatlán 	7	Santa Rita 	10	Octubre	2023-06-10T00:00:00	2024-11-08T17:00:00	1	Precipitación	0
121528	7	Sololá	704	Santa Lucía Utatlán 	7	Santa Rita 	10	Octubre	2023-06-10T00:00:00	2024-11-08T17:00:00	8	Radiación solar	72
121529	7	Sololá	704	Santa Lucía Utatlán 	7	Santa Rita 	10	Octubre	2023-06-10T00:00:00	2024-11-08T18:00:00	2	Temperatura media	20.2
121530	7	Sololá	704	Santa Lucía Utatlán 	7	Santa Rita 	10	Octubre	2023-06-10T00:00:00	2024-11-08T18:00:00	4	Temperatura máxima	20.6
121531	7	Sololá	704	Santa Lucía Utatlán 	7	Santa Rita 	10	Octubre	2023-06-10T00:00:00	2024-11-08T18:00:00	3	Temperatura mínima	20.2
121532	7	Sololá	704	Santa Lucía Utatlán 	7	Santa Rita 	10	Octubre	2023-06-10T00:00:00	2024-11-08T18:00:00	5	Humedad	92
121533	7	Sololá	704	Santa Lucía Utatlán 	7	Santa Rita 	10	Octubre	2023-06-10T00:00:00	2024-11-08T18:00:00	6	Velocidad del viento	1.6
121534	7	Sololá	704	Santa Lucía Utatlán 	7	Santa Rita 	10	Octubre	2023-06-10T00:00:00	2024-11-08T18:00:00	7	Dirección del viento	1.61
121535	7	Sololá	704	Santa Lucía Utatlán 	7	Santa Rita 	10	Octubre	2023-06-10T00:00:00	2024-11-08T18:00:00	1	Precipitación	0
121536	7	Sololá	704	Santa Lucía Utatlán 	7	Santa Rita 	10	Octubre	2023-06-10T00:00:00	2024-11-08T18:00:00	8	Radiación solar	8
121537	7	Sololá	704	Santa Lucía Utatlán 	7	Santa Rita 	10	Octubre	2023-06-10T00:00:00	2024-11-08T19:00:00	2	Temperatura media	20.1
121538	7	Sololá	704	Santa Lucía Utatlán 	7	Santa Rita 	10	Octubre	2023-06-10T00:00:00	2024-11-08T19:00:00	4	Temperatura máxima	20.2
121539	7	Sololá	704	Santa Lucía Utatlán 	7	Santa Rita 	10	Octubre	2023-06-10T00:00:00	2024-11-08T19:00:00	3	Temperatura mínima	20
121540	7	Sololá	704	Santa Lucía Utatlán 	7	Santa Rita 	10	Octubre	2023-06-10T00:00:00	2024-11-08T19:00:00	5	Humedad	95
121541	7	Sololá	704	Santa Lucía Utatlán 	7	Santa Rita 	10	Octubre	2023-06-10T00:00:00	2024-11-08T19:00:00	6	Velocidad del viento	1.6
121542	7	Sololá	704	Santa Lucía Utatlán 	7	Santa Rita 	10	Octubre	2023-06-10T00:00:00	2024-11-08T19:00:00	7	Dirección del viento	1.61
121543	7	Sololá	704	Santa Lucía Utatlán 	7	Santa Rita 	10	Octubre	2023-06-10T00:00:00	2024-11-08T19:00:00	1	Precipitación	0.4
121544	7	Sololá	704	Santa Lucía Utatlán 	7	Santa Rita 	10	Octubre	2023-06-10T00:00:00	2024-11-08T19:00:00	8	Radiación solar	0
121545	7	Sololá	704	Santa Lucía Utatlán 	7	Santa Rita 	10	Octubre	2023-06-10T00:00:00	2024-11-08T20:00:00	2	Temperatura media	19.9
121546	7	Sololá	704	Santa Lucía Utatlán 	7	Santa Rita 	10	Octubre	2023-06-10T00:00:00	2024-11-08T20:00:00	4	Temperatura máxima	20.1
121547	7	Sololá	704	Santa Lucía Utatlán 	7	Santa Rita 	10	Octubre	2023-06-10T00:00:00	2024-11-08T20:00:00	3	Temperatura mínima	19.9
121548	7	Sololá	704	Santa Lucía Utatlán 	7	Santa Rita 	10	Octubre	2023-06-10T00:00:00	2024-11-08T20:00:00	5	Humedad	96
121549	7	Sololá	704	Santa Lucía Utatlán 	7	Santa Rita 	10	Octubre	2023-06-10T00:00:00	2024-11-08T20:00:00	6	Velocidad del viento	0
121550	7	Sololá	704	Santa Lucía Utatlán 	7	Santa Rita 	10	Octubre	2023-06-10T00:00:00	2024-11-08T20:00:00	7	Dirección del viento	0
121551	7	Sololá	704	Santa Lucía Utatlán 	7	Santa Rita 	10	Octubre	2023-06-10T00:00:00	2024-11-08T20:00:00	1	Precipitación	0.2
121552	7	Sololá	704	Santa Lucía Utatlán 	7	Santa Rita 	10	Octubre	2023-06-10T00:00:00	2024-11-08T20:00:00	8	Radiación solar	0
121553	7	Sololá	704	Santa Lucía Utatlán 	7	Santa Rita 	10	Octubre	2023-06-10T00:00:00	2024-11-08T21:00:00	2	Temperatura media	19.6
121554	7	Sololá	704	Santa Lucía Utatlán 	7	Santa Rita 	10	Octubre	2023-06-10T00:00:00	2024-11-08T21:00:00	4	Temperatura máxima	19.9
121555	7	Sololá	704	Santa Lucía Utatlán 	7	Santa Rita 	10	Octubre	2023-06-10T00:00:00	2024-11-08T21:00:00	3	Temperatura mínima	19.6
121556	7	Sololá	704	Santa Lucía Utatlán 	7	Santa Rita 	10	Octubre	2023-06-10T00:00:00	2024-11-08T21:00:00	5	Humedad	96
121557	7	Sololá	704	Santa Lucía Utatlán 	7	Santa Rita 	10	Octubre	2023-06-10T00:00:00	2024-11-08T21:00:00	6	Velocidad del viento	1.6
121558	7	Sololá	704	Santa Lucía Utatlán 	7	Santa Rita 	10	Octubre	2023-06-10T00:00:00	2024-11-08T21:00:00	7	Dirección del viento	1.61
121559	7	Sololá	704	Santa Lucía Utatlán 	7	Santa Rita 	10	Octubre	2023-06-10T00:00:00	2024-11-08T21:00:00	1	Precipitación	0
121560	7	Sololá	704	Santa Lucía Utatlán 	7	Santa Rita 	10	Octubre	2023-06-10T00:00:00	2024-11-08T21:00:00	8	Radiación solar	0
121561	7	Sololá	704	Santa Lucía Utatlán 	7	Santa Rita 	10	Octubre	2023-06-10T00:00:00	2024-11-08T22:00:00	2	Temperatura media	18.9
121562	7	Sololá	704	Santa Lucía Utatlán 	7	Santa Rita 	10	Octubre	2023-06-10T00:00:00	2024-11-08T22:00:00	4	Temperatura máxima	19.6
121563	7	Sololá	704	Santa Lucía Utatlán 	7	Santa Rita 	10	Octubre	2023-06-10T00:00:00	2024-11-08T22:00:00	3	Temperatura mínima	18.9
121564	7	Sololá	704	Santa Lucía Utatlán 	7	Santa Rita 	10	Octubre	2023-06-10T00:00:00	2024-11-08T22:00:00	5	Humedad	95
121565	7	Sololá	704	Santa Lucía Utatlán 	7	Santa Rita 	10	Octubre	2023-06-10T00:00:00	2024-11-08T22:00:00	6	Velocidad del viento	1.6
121566	7	Sololá	704	Santa Lucía Utatlán 	7	Santa Rita 	10	Octubre	2023-06-10T00:00:00	2024-11-08T22:00:00	7	Dirección del viento	1.61
121567	7	Sololá	704	Santa Lucía Utatlán 	7	Santa Rita 	10	Octubre	2023-06-10T00:00:00	2024-11-08T22:00:00	1	Precipitación	0
121568	7	Sololá	704	Santa Lucía Utatlán 	7	Santa Rita 	10	Octubre	2023-06-10T00:00:00	2024-11-08T22:00:00	8	Radiación solar	0
121569	7	Sololá	704	Santa Lucía Utatlán 	7	Santa Rita 	10	Octubre	2023-06-10T00:00:00	2024-11-08T23:00:00	2	Temperatura media	18.7
121570	7	Sololá	704	Santa Lucía Utatlán 	7	Santa Rita 	10	Octubre	2023-06-10T00:00:00	2024-11-08T23:00:00	4	Temperatura máxima	18.9
121571	7	Sololá	704	Santa Lucía Utatlán 	7	Santa Rita 	10	Octubre	2023-06-10T00:00:00	2024-11-08T23:00:00	3	Temperatura mínima	18.6
121572	7	Sololá	704	Santa Lucía Utatlán 	7	Santa Rita 	10	Octubre	2023-06-10T00:00:00	2024-11-08T23:00:00	5	Humedad	96
121573	7	Sololá	704	Santa Lucía Utatlán 	7	Santa Rita 	10	Octubre	2023-06-10T00:00:00	2024-11-08T23:00:00	6	Velocidad del viento	1.6
121574	7	Sololá	704	Santa Lucía Utatlán 	7	Santa Rita 	10	Octubre	2023-06-10T00:00:00	2024-11-08T23:00:00	7	Dirección del viento	1.61
121575	7	Sololá	704	Santa Lucía Utatlán 	7	Santa Rita 	10	Octubre	2023-06-10T00:00:00	2024-11-08T23:00:00	1	Precipitación	0
121576	7	Sololá	704	Santa Lucía Utatlán 	7	Santa Rita 	10	Octubre	2023-06-10T00:00:00	2024-11-08T23:00:00	8	Radiación solar	0
121577	7	Sololá	704	Santa Lucía Utatlán 	7	Santa Rita 	10	Octubre	2023-07-10T00:00:00	2024-11-08T00:00:00	2	Temperatura media	19.1
121578	7	Sololá	704	Santa Lucía Utatlán 	7	Santa Rita 	10	Octubre	2023-07-10T00:00:00	2024-11-08T00:00:00	4	Temperatura máxima	19.3
121579	7	Sololá	704	Santa Lucía Utatlán 	7	Santa Rita 	10	Octubre	2023-07-10T00:00:00	2024-11-08T00:00:00	3	Temperatura mínima	18.7
121580	7	Sololá	704	Santa Lucía Utatlán 	7	Santa Rita 	10	Octubre	2023-07-10T00:00:00	2024-11-08T00:00:00	5	Humedad	94
121581	7	Sololá	704	Santa Lucía Utatlán 	7	Santa Rita 	10	Octubre	2023-07-10T00:00:00	2024-11-08T00:00:00	6	Velocidad del viento	3.2
121582	7	Sololá	704	Santa Lucía Utatlán 	7	Santa Rita 	10	Octubre	2023-07-10T00:00:00	2024-11-08T00:00:00	7	Dirección del viento	3.22
121583	7	Sololá	704	Santa Lucía Utatlán 	7	Santa Rita 	10	Octubre	2023-07-10T00:00:00	2024-11-08T00:00:00	1	Precipitación	0
121584	7	Sololá	704	Santa Lucía Utatlán 	7	Santa Rita 	10	Octubre	2023-07-10T00:00:00	2024-11-08T00:00:00	8	Radiación solar	0
121585	7	Sololá	704	Santa Lucía Utatlán 	7	Santa Rita 	10	Octubre	2023-07-10T00:00:00	2024-11-08T01:00:00	2	Temperatura media	18.8
121586	7	Sololá	704	Santa Lucía Utatlán 	7	Santa Rita 	10	Octubre	2023-07-10T00:00:00	2024-11-08T01:00:00	4	Temperatura máxima	19.1
121587	7	Sololá	704	Santa Lucía Utatlán 	7	Santa Rita 	10	Octubre	2023-07-10T00:00:00	2024-11-08T01:00:00	3	Temperatura mínima	18.6
121588	7	Sololá	704	Santa Lucía Utatlán 	7	Santa Rita 	10	Octubre	2023-07-10T00:00:00	2024-11-08T01:00:00	5	Humedad	93
121589	7	Sololá	704	Santa Lucía Utatlán 	7	Santa Rita 	10	Octubre	2023-07-10T00:00:00	2024-11-08T01:00:00	6	Velocidad del viento	1.6
121590	7	Sololá	704	Santa Lucía Utatlán 	7	Santa Rita 	10	Octubre	2023-07-10T00:00:00	2024-11-08T01:00:00	7	Dirección del viento	1.61
121591	7	Sololá	704	Santa Lucía Utatlán 	7	Santa Rita 	10	Octubre	2023-07-10T00:00:00	2024-11-08T01:00:00	1	Precipitación	0
121592	7	Sololá	704	Santa Lucía Utatlán 	7	Santa Rita 	10	Octubre	2023-07-10T00:00:00	2024-11-08T01:00:00	8	Radiación solar	0
121593	7	Sololá	704	Santa Lucía Utatlán 	7	Santa Rita 	10	Octubre	2023-07-10T00:00:00	2024-11-08T02:00:00	2	Temperatura media	19
121594	7	Sololá	704	Santa Lucía Utatlán 	7	Santa Rita 	10	Octubre	2023-07-10T00:00:00	2024-11-08T02:00:00	4	Temperatura máxima	19.1
121595	7	Sololá	704	Santa Lucía Utatlán 	7	Santa Rita 	10	Octubre	2023-07-10T00:00:00	2024-11-08T02:00:00	3	Temperatura mínima	18.6
121596	7	Sololá	704	Santa Lucía Utatlán 	7	Santa Rita 	10	Octubre	2023-07-10T00:00:00	2024-11-08T02:00:00	5	Humedad	94
121597	7	Sololá	704	Santa Lucía Utatlán 	7	Santa Rita 	10	Octubre	2023-07-10T00:00:00	2024-11-08T02:00:00	6	Velocidad del viento	3.2
121598	7	Sololá	704	Santa Lucía Utatlán 	7	Santa Rita 	10	Octubre	2023-07-10T00:00:00	2024-11-08T02:00:00	7	Dirección del viento	3.22
121599	7	Sololá	704	Santa Lucía Utatlán 	7	Santa Rita 	10	Octubre	2023-07-10T00:00:00	2024-11-08T02:00:00	1	Precipitación	0
121600	7	Sololá	704	Santa Lucía Utatlán 	7	Santa Rita 	10	Octubre	2023-07-10T00:00:00	2024-11-08T02:00:00	8	Radiación solar	0
121601	7	Sololá	704	Santa Lucía Utatlán 	7	Santa Rita 	10	Octubre	2023-07-10T00:00:00	2024-11-08T03:00:00	2	Temperatura media	19.6
121602	7	Sololá	704	Santa Lucía Utatlán 	7	Santa Rita 	10	Octubre	2023-07-10T00:00:00	2024-11-08T03:00:00	4	Temperatura máxima	19.6
121603	7	Sololá	704	Santa Lucía Utatlán 	7	Santa Rita 	10	Octubre	2023-07-10T00:00:00	2024-11-08T03:00:00	3	Temperatura mínima	19
121604	7	Sololá	704	Santa Lucía Utatlán 	7	Santa Rita 	10	Octubre	2023-07-10T00:00:00	2024-11-08T03:00:00	5	Humedad	96
121605	7	Sololá	704	Santa Lucía Utatlán 	7	Santa Rita 	10	Octubre	2023-07-10T00:00:00	2024-11-08T03:00:00	6	Velocidad del viento	0
121606	7	Sololá	704	Santa Lucía Utatlán 	7	Santa Rita 	10	Octubre	2023-07-10T00:00:00	2024-11-08T03:00:00	7	Dirección del viento	0
121607	7	Sololá	704	Santa Lucía Utatlán 	7	Santa Rita 	10	Octubre	2023-07-10T00:00:00	2024-11-08T03:00:00	1	Precipitación	0
121608	7	Sololá	704	Santa Lucía Utatlán 	7	Santa Rita 	10	Octubre	2023-07-10T00:00:00	2024-11-08T03:00:00	8	Radiación solar	0
121609	7	Sololá	704	Santa Lucía Utatlán 	7	Santa Rita 	10	Octubre	2023-07-10T00:00:00	2024-11-08T04:00:00	2	Temperatura media	21.6
121610	7	Sololá	704	Santa Lucía Utatlán 	7	Santa Rita 	10	Octubre	2023-07-10T00:00:00	2024-11-08T04:00:00	4	Temperatura máxima	21.9
121611	7	Sololá	704	Santa Lucía Utatlán 	7	Santa Rita 	10	Octubre	2023-07-10T00:00:00	2024-11-08T04:00:00	3	Temperatura mínima	19.6
121612	7	Sololá	704	Santa Lucía Utatlán 	7	Santa Rita 	10	Octubre	2023-07-10T00:00:00	2024-11-08T04:00:00	5	Humedad	88
121613	7	Sololá	704	Santa Lucía Utatlán 	7	Santa Rita 	10	Octubre	2023-07-10T00:00:00	2024-11-08T04:00:00	6	Velocidad del viento	1.6
121614	7	Sololá	704	Santa Lucía Utatlán 	7	Santa Rita 	10	Octubre	2023-07-10T00:00:00	2024-11-08T04:00:00	7	Dirección del viento	1.61
121615	7	Sololá	704	Santa Lucía Utatlán 	7	Santa Rita 	10	Octubre	2023-07-10T00:00:00	2024-11-08T04:00:00	1	Precipitación	0
121616	7	Sololá	704	Santa Lucía Utatlán 	7	Santa Rita 	10	Octubre	2023-07-10T00:00:00	2024-11-08T04:00:00	8	Radiación solar	0
121617	7	Sololá	704	Santa Lucía Utatlán 	7	Santa Rita 	10	Octubre	2023-07-10T00:00:00	2024-11-08T05:00:00	2	Temperatura media	24.2
121618	7	Sololá	704	Santa Lucía Utatlán 	7	Santa Rita 	10	Octubre	2023-07-10T00:00:00	2024-11-08T05:00:00	4	Temperatura máxima	24.2
121619	7	Sololá	704	Santa Lucía Utatlán 	7	Santa Rita 	10	Octubre	2023-07-10T00:00:00	2024-11-08T05:00:00	3	Temperatura mínima	21.6
121620	7	Sololá	704	Santa Lucía Utatlán 	7	Santa Rita 	10	Octubre	2023-07-10T00:00:00	2024-11-08T05:00:00	5	Humedad	79
121621	7	Sololá	704	Santa Lucía Utatlán 	7	Santa Rita 	10	Octubre	2023-07-10T00:00:00	2024-11-08T05:00:00	6	Velocidad del viento	3.2
121622	7	Sololá	704	Santa Lucía Utatlán 	7	Santa Rita 	10	Octubre	2023-07-10T00:00:00	2024-11-08T05:00:00	7	Dirección del viento	3.22
121623	7	Sololá	704	Santa Lucía Utatlán 	7	Santa Rita 	10	Octubre	2023-07-10T00:00:00	2024-11-08T05:00:00	1	Precipitación	0
121624	7	Sololá	704	Santa Lucía Utatlán 	7	Santa Rita 	10	Octubre	2023-07-10T00:00:00	2024-11-08T05:00:00	8	Radiación solar	0
121625	7	Sololá	704	Santa Lucía Utatlán 	7	Santa Rita 	10	Octubre	2023-07-10T00:00:00	2024-11-08T06:00:00	2	Temperatura media	24.2
121626	7	Sololá	704	Santa Lucía Utatlán 	7	Santa Rita 	10	Octubre	2023-07-10T00:00:00	2024-11-08T06:00:00	4	Temperatura máxima	25.1
121627	7	Sololá	704	Santa Lucía Utatlán 	7	Santa Rita 	10	Octubre	2023-07-10T00:00:00	2024-11-08T06:00:00	3	Temperatura mínima	23.7
121628	7	Sololá	704	Santa Lucía Utatlán 	7	Santa Rita 	10	Octubre	2023-07-10T00:00:00	2024-11-08T06:00:00	5	Humedad	79
121629	7	Sololá	704	Santa Lucía Utatlán 	7	Santa Rita 	10	Octubre	2023-07-10T00:00:00	2024-11-08T06:00:00	6	Velocidad del viento	4.8
121630	7	Sololá	704	Santa Lucía Utatlán 	7	Santa Rita 	10	Octubre	2023-07-10T00:00:00	2024-11-08T06:00:00	7	Dirección del viento	4.83
121631	7	Sololá	704	Santa Lucía Utatlán 	7	Santa Rita 	10	Octubre	2023-07-10T00:00:00	2024-11-08T06:00:00	1	Precipitación	0
121632	7	Sololá	704	Santa Lucía Utatlán 	7	Santa Rita 	10	Octubre	2023-07-10T00:00:00	2024-11-08T06:00:00	8	Radiación solar	0
121633	7	Sololá	704	Santa Lucía Utatlán 	7	Santa Rita 	10	Octubre	2023-07-10T00:00:00	2024-11-08T07:00:00	2	Temperatura media	26.2
121634	7	Sololá	704	Santa Lucía Utatlán 	7	Santa Rita 	10	Octubre	2023-07-10T00:00:00	2024-11-08T07:00:00	4	Temperatura máxima	26.3
121635	7	Sololá	704	Santa Lucía Utatlán 	7	Santa Rita 	10	Octubre	2023-07-10T00:00:00	2024-11-08T07:00:00	3	Temperatura mínima	24
121636	7	Sololá	704	Santa Lucía Utatlán 	7	Santa Rita 	10	Octubre	2023-07-10T00:00:00	2024-11-08T07:00:00	5	Humedad	69
121637	7	Sololá	704	Santa Lucía Utatlán 	7	Santa Rita 	10	Octubre	2023-07-10T00:00:00	2024-11-08T07:00:00	6	Velocidad del viento	6.4
121638	7	Sololá	704	Santa Lucía Utatlán 	7	Santa Rita 	10	Octubre	2023-07-10T00:00:00	2024-11-08T07:00:00	7	Dirección del viento	6.44
121639	7	Sololá	704	Santa Lucía Utatlán 	7	Santa Rita 	10	Octubre	2023-07-10T00:00:00	2024-11-08T07:00:00	1	Precipitación	0
121640	7	Sololá	704	Santa Lucía Utatlán 	7	Santa Rita 	10	Octubre	2023-07-10T00:00:00	2024-11-08T07:00:00	8	Radiación solar	36
121641	7	Sololá	704	Santa Lucía Utatlán 	7	Santa Rita 	10	Octubre	2023-07-10T00:00:00	2024-11-08T08:00:00	2	Temperatura media	25.8
121642	7	Sololá	704	Santa Lucía Utatlán 	7	Santa Rita 	10	Octubre	2023-07-10T00:00:00	2024-11-08T08:00:00	4	Temperatura máxima	26.8
121643	7	Sololá	704	Santa Lucía Utatlán 	7	Santa Rita 	10	Octubre	2023-07-10T00:00:00	2024-11-08T08:00:00	3	Temperatura mínima	25.6
121644	7	Sololá	704	Santa Lucía Utatlán 	7	Santa Rita 	10	Octubre	2023-07-10T00:00:00	2024-11-08T08:00:00	5	Humedad	69
121645	7	Sololá	704	Santa Lucía Utatlán 	7	Santa Rita 	10	Octubre	2023-07-10T00:00:00	2024-11-08T08:00:00	6	Velocidad del viento	6.4
121646	7	Sololá	704	Santa Lucía Utatlán 	7	Santa Rita 	10	Octubre	2023-07-10T00:00:00	2024-11-08T08:00:00	7	Dirección del viento	6.44
121647	7	Sololá	704	Santa Lucía Utatlán 	7	Santa Rita 	10	Octubre	2023-07-10T00:00:00	2024-11-08T08:00:00	1	Precipitación	0
121648	7	Sololá	704	Santa Lucía Utatlán 	7	Santa Rita 	10	Octubre	2023-07-10T00:00:00	2024-11-08T08:00:00	8	Radiación solar	229
121649	7	Sololá	704	Santa Lucía Utatlán 	7	Santa Rita 	10	Octubre	2023-07-10T00:00:00	2024-11-08T09:00:00	2	Temperatura media	26.3
121650	7	Sololá	704	Santa Lucía Utatlán 	7	Santa Rita 	10	Octubre	2023-07-10T00:00:00	2024-11-08T09:00:00	4	Temperatura máxima	26.3
121651	7	Sololá	704	Santa Lucía Utatlán 	7	Santa Rita 	10	Octubre	2023-07-10T00:00:00	2024-11-08T09:00:00	3	Temperatura mínima	25
121652	7	Sololá	704	Santa Lucía Utatlán 	7	Santa Rita 	10	Octubre	2023-07-10T00:00:00	2024-11-08T09:00:00	5	Humedad	70
121653	7	Sololá	704	Santa Lucía Utatlán 	7	Santa Rita 	10	Octubre	2023-07-10T00:00:00	2024-11-08T09:00:00	6	Velocidad del viento	4.8
121654	7	Sololá	704	Santa Lucía Utatlán 	7	Santa Rita 	10	Octubre	2023-07-10T00:00:00	2024-11-08T09:00:00	7	Dirección del viento	4.83
121655	7	Sololá	704	Santa Lucía Utatlán 	7	Santa Rita 	10	Octubre	2023-07-10T00:00:00	2024-11-08T09:00:00	1	Precipitación	0
121656	7	Sololá	704	Santa Lucía Utatlán 	7	Santa Rita 	10	Octubre	2023-07-10T00:00:00	2024-11-08T09:00:00	8	Radiación solar	425
121657	7	Sololá	704	Santa Lucía Utatlán 	7	Santa Rita 	10	Octubre	2023-07-10T00:00:00	2024-11-08T10:00:00	2	Temperatura media	25.2
121658	7	Sololá	704	Santa Lucía Utatlán 	7	Santa Rita 	10	Octubre	2023-07-10T00:00:00	2024-11-08T10:00:00	4	Temperatura máxima	26.4
121659	7	Sololá	704	Santa Lucía Utatlán 	7	Santa Rita 	10	Octubre	2023-07-10T00:00:00	2024-11-08T10:00:00	3	Temperatura mínima	24.8
121660	7	Sololá	704	Santa Lucía Utatlán 	7	Santa Rita 	10	Octubre	2023-07-10T00:00:00	2024-11-08T10:00:00	5	Humedad	76
121661	7	Sololá	704	Santa Lucía Utatlán 	7	Santa Rita 	10	Octubre	2023-07-10T00:00:00	2024-11-08T10:00:00	6	Velocidad del viento	4.8
121662	7	Sololá	704	Santa Lucía Utatlán 	7	Santa Rita 	10	Octubre	2023-07-10T00:00:00	2024-11-08T10:00:00	7	Dirección del viento	4.83
121663	7	Sololá	704	Santa Lucía Utatlán 	7	Santa Rita 	10	Octubre	2023-07-10T00:00:00	2024-11-08T10:00:00	1	Precipitación	0
121664	7	Sololá	704	Santa Lucía Utatlán 	7	Santa Rita 	10	Octubre	2023-07-10T00:00:00	2024-11-08T10:00:00	8	Radiación solar	631
121665	7	Sololá	704	Santa Lucía Utatlán 	7	Santa Rita 	10	Octubre	2023-07-10T00:00:00	2024-11-08T11:00:00	2	Temperatura media	23.7
121666	7	Sololá	704	Santa Lucía Utatlán 	7	Santa Rita 	10	Octubre	2023-07-10T00:00:00	2024-11-08T11:00:00	4	Temperatura máxima	25.3
121667	7	Sololá	704	Santa Lucía Utatlán 	7	Santa Rita 	10	Octubre	2023-07-10T00:00:00	2024-11-08T11:00:00	3	Temperatura mínima	23.7
121668	7	Sololá	704	Santa Lucía Utatlán 	7	Santa Rita 	10	Octubre	2023-07-10T00:00:00	2024-11-08T11:00:00	5	Humedad	87
121669	7	Sololá	704	Santa Lucía Utatlán 	7	Santa Rita 	10	Octubre	2023-07-10T00:00:00	2024-11-08T11:00:00	6	Velocidad del viento	4.8
121670	7	Sololá	704	Santa Lucía Utatlán 	7	Santa Rita 	10	Octubre	2023-07-10T00:00:00	2024-11-08T11:00:00	7	Dirección del viento	4.83
121671	7	Sololá	704	Santa Lucía Utatlán 	7	Santa Rita 	10	Octubre	2023-07-10T00:00:00	2024-11-08T11:00:00	1	Precipitación	0
121672	7	Sololá	704	Santa Lucía Utatlán 	7	Santa Rita 	10	Octubre	2023-07-10T00:00:00	2024-11-08T11:00:00	8	Radiación solar	787
121673	7	Sololá	704	Santa Lucía Utatlán 	7	Santa Rita 	10	Octubre	2023-07-10T00:00:00	2024-11-08T12:00:00	2	Temperatura media	20.4
121674	7	Sololá	704	Santa Lucía Utatlán 	7	Santa Rita 	10	Octubre	2023-07-10T00:00:00	2024-11-08T12:00:00	4	Temperatura máxima	23.9
121675	7	Sololá	704	Santa Lucía Utatlán 	7	Santa Rita 	10	Octubre	2023-07-10T00:00:00	2024-11-08T12:00:00	3	Temperatura mínima	20.4
121676	7	Sololá	704	Santa Lucía Utatlán 	7	Santa Rita 	10	Octubre	2023-07-10T00:00:00	2024-11-08T12:00:00	5	Humedad	88
121677	7	Sololá	704	Santa Lucía Utatlán 	7	Santa Rita 	10	Octubre	2023-07-10T00:00:00	2024-11-08T12:00:00	6	Velocidad del viento	6.4
121678	7	Sololá	704	Santa Lucía Utatlán 	7	Santa Rita 	10	Octubre	2023-07-10T00:00:00	2024-11-08T12:00:00	7	Dirección del viento	6.44
121679	7	Sololá	704	Santa Lucía Utatlán 	7	Santa Rita 	10	Octubre	2023-07-10T00:00:00	2024-11-08T12:00:00	1	Precipitación	14
121680	7	Sololá	704	Santa Lucía Utatlán 	7	Santa Rita 	10	Octubre	2023-07-10T00:00:00	2024-11-08T12:00:00	8	Radiación solar	502
121681	7	Sololá	704	Santa Lucía Utatlán 	7	Santa Rita 	10	Octubre	2023-07-10T00:00:00	2024-11-08T13:00:00	2	Temperatura media	20.3
121682	7	Sololá	704	Santa Lucía Utatlán 	7	Santa Rita 	10	Octubre	2023-07-10T00:00:00	2024-11-08T13:00:00	4	Temperatura máxima	21.1
121683	7	Sololá	704	Santa Lucía Utatlán 	7	Santa Rita 	10	Octubre	2023-07-10T00:00:00	2024-11-08T13:00:00	3	Temperatura mínima	20.1
121684	7	Sololá	704	Santa Lucía Utatlán 	7	Santa Rita 	10	Octubre	2023-07-10T00:00:00	2024-11-08T13:00:00	5	Humedad	96
121685	7	Sololá	704	Santa Lucía Utatlán 	7	Santa Rita 	10	Octubre	2023-07-10T00:00:00	2024-11-08T13:00:00	6	Velocidad del viento	3.2
121686	7	Sololá	704	Santa Lucía Utatlán 	7	Santa Rita 	10	Octubre	2023-07-10T00:00:00	2024-11-08T13:00:00	7	Dirección del viento	3.22
121687	7	Sololá	704	Santa Lucía Utatlán 	7	Santa Rita 	10	Octubre	2023-07-10T00:00:00	2024-11-08T13:00:00	1	Precipitación	4.4
121688	7	Sololá	704	Santa Lucía Utatlán 	7	Santa Rita 	10	Octubre	2023-07-10T00:00:00	2024-11-08T13:00:00	8	Radiación solar	281
121689	7	Sololá	704	Santa Lucía Utatlán 	7	Santa Rita 	10	Octubre	2023-07-10T00:00:00	2024-11-08T14:00:00	2	Temperatura media	20.4
121690	7	Sololá	704	Santa Lucía Utatlán 	7	Santa Rita 	10	Octubre	2023-07-10T00:00:00	2024-11-08T14:00:00	4	Temperatura máxima	20.5
121691	7	Sololá	704	Santa Lucía Utatlán 	7	Santa Rita 	10	Octubre	2023-07-10T00:00:00	2024-11-08T14:00:00	3	Temperatura mínima	20.2
121692	7	Sololá	704	Santa Lucía Utatlán 	7	Santa Rita 	10	Octubre	2023-07-10T00:00:00	2024-11-08T14:00:00	5	Humedad	97
121693	7	Sololá	704	Santa Lucía Utatlán 	7	Santa Rita 	10	Octubre	2023-07-10T00:00:00	2024-11-08T14:00:00	6	Velocidad del viento	1.6
121694	7	Sololá	704	Santa Lucía Utatlán 	7	Santa Rita 	10	Octubre	2023-07-10T00:00:00	2024-11-08T14:00:00	7	Dirección del viento	1.61
121695	7	Sololá	704	Santa Lucía Utatlán 	7	Santa Rita 	10	Octubre	2023-07-10T00:00:00	2024-11-08T14:00:00	1	Precipitación	0
121696	7	Sololá	704	Santa Lucía Utatlán 	7	Santa Rita 	10	Octubre	2023-07-10T00:00:00	2024-11-08T14:00:00	8	Radiación solar	234
121697	7	Sololá	704	Santa Lucía Utatlán 	7	Santa Rita 	10	Octubre	2023-07-10T00:00:00	2024-11-08T15:00:00	2	Temperatura media	20.6
121698	7	Sololá	704	Santa Lucía Utatlán 	7	Santa Rita 	10	Octubre	2023-07-10T00:00:00	2024-11-08T15:00:00	4	Temperatura máxima	20.7
121699	7	Sololá	704	Santa Lucía Utatlán 	7	Santa Rita 	10	Octubre	2023-07-10T00:00:00	2024-11-08T15:00:00	3	Temperatura mínima	20.3
121700	7	Sololá	704	Santa Lucía Utatlán 	7	Santa Rita 	10	Octubre	2023-07-10T00:00:00	2024-11-08T15:00:00	5	Humedad	97
121701	7	Sololá	704	Santa Lucía Utatlán 	7	Santa Rita 	10	Octubre	2023-07-10T00:00:00	2024-11-08T15:00:00	6	Velocidad del viento	1.6
121702	7	Sololá	704	Santa Lucía Utatlán 	7	Santa Rita 	10	Octubre	2023-07-10T00:00:00	2024-11-08T15:00:00	7	Dirección del viento	1.61
121703	7	Sololá	704	Santa Lucía Utatlán 	7	Santa Rita 	10	Octubre	2023-07-10T00:00:00	2024-11-08T15:00:00	1	Precipitación	0.2
121704	7	Sololá	704	Santa Lucía Utatlán 	7	Santa Rita 	10	Octubre	2023-07-10T00:00:00	2024-11-08T15:00:00	8	Radiación solar	130
121705	7	Sololá	704	Santa Lucía Utatlán 	7	Santa Rita 	10	Octubre	2023-07-10T00:00:00	2024-11-08T16:00:00	2	Temperatura media	19.9
121706	7	Sololá	704	Santa Lucía Utatlán 	7	Santa Rita 	10	Octubre	2023-07-10T00:00:00	2024-11-08T16:00:00	4	Temperatura máxima	20.7
121707	7	Sololá	704	Santa Lucía Utatlán 	7	Santa Rita 	10	Octubre	2023-07-10T00:00:00	2024-11-08T16:00:00	3	Temperatura mínima	19.9
121708	7	Sololá	704	Santa Lucía Utatlán 	7	Santa Rita 	10	Octubre	2023-07-10T00:00:00	2024-11-08T16:00:00	5	Humedad	95
121709	7	Sololá	704	Santa Lucía Utatlán 	7	Santa Rita 	10	Octubre	2023-07-10T00:00:00	2024-11-08T16:00:00	6	Velocidad del viento	3.2
121710	7	Sololá	704	Santa Lucía Utatlán 	7	Santa Rita 	10	Octubre	2023-07-10T00:00:00	2024-11-08T16:00:00	7	Dirección del viento	3.22
121711	7	Sololá	704	Santa Lucía Utatlán 	7	Santa Rita 	10	Octubre	2023-07-10T00:00:00	2024-11-08T16:00:00	1	Precipitación	6
121712	7	Sololá	704	Santa Lucía Utatlán 	7	Santa Rita 	10	Octubre	2023-07-10T00:00:00	2024-11-08T16:00:00	8	Radiación solar	81
121713	7	Sololá	704	Santa Lucía Utatlán 	7	Santa Rita 	10	Octubre	2023-07-10T00:00:00	2024-11-08T17:00:00	2	Temperatura media	19.4
121714	7	Sololá	704	Santa Lucía Utatlán 	7	Santa Rita 	10	Octubre	2023-07-10T00:00:00	2024-11-08T17:00:00	4	Temperatura máxima	19.9
121715	7	Sololá	704	Santa Lucía Utatlán 	7	Santa Rita 	10	Octubre	2023-07-10T00:00:00	2024-11-08T17:00:00	3	Temperatura mínima	19.1
121716	7	Sololá	704	Santa Lucía Utatlán 	7	Santa Rita 	10	Octubre	2023-07-10T00:00:00	2024-11-08T17:00:00	5	Humedad	96
121717	7	Sololá	704	Santa Lucía Utatlán 	7	Santa Rita 	10	Octubre	2023-07-10T00:00:00	2024-11-08T17:00:00	6	Velocidad del viento	1.6
121718	7	Sololá	704	Santa Lucía Utatlán 	7	Santa Rita 	10	Octubre	2023-07-10T00:00:00	2024-11-08T17:00:00	7	Dirección del viento	1.61
121719	7	Sololá	704	Santa Lucía Utatlán 	7	Santa Rita 	10	Octubre	2023-07-10T00:00:00	2024-11-08T17:00:00	1	Precipitación	5
121720	7	Sololá	704	Santa Lucía Utatlán 	7	Santa Rita 	10	Octubre	2023-07-10T00:00:00	2024-11-08T17:00:00	8	Radiación solar	18
121721	7	Sololá	704	Santa Lucía Utatlán 	7	Santa Rita 	10	Octubre	2023-07-10T00:00:00	2024-11-08T18:00:00	2	Temperatura media	18.8
121722	7	Sololá	704	Santa Lucía Utatlán 	7	Santa Rita 	10	Octubre	2023-07-10T00:00:00	2024-11-08T18:00:00	4	Temperatura máxima	19.6
121723	7	Sololá	704	Santa Lucía Utatlán 	7	Santa Rita 	10	Octubre	2023-07-10T00:00:00	2024-11-08T18:00:00	3	Temperatura mínima	18.7
121724	7	Sololá	704	Santa Lucía Utatlán 	7	Santa Rita 	10	Octubre	2023-07-10T00:00:00	2024-11-08T18:00:00	5	Humedad	96
121725	7	Sololá	704	Santa Lucía Utatlán 	7	Santa Rita 	10	Octubre	2023-07-10T00:00:00	2024-11-08T18:00:00	6	Velocidad del viento	1.6
121726	7	Sololá	704	Santa Lucía Utatlán 	7	Santa Rita 	10	Octubre	2023-07-10T00:00:00	2024-11-08T18:00:00	7	Dirección del viento	1.61
121727	7	Sololá	704	Santa Lucía Utatlán 	7	Santa Rita 	10	Octubre	2023-07-10T00:00:00	2024-11-08T18:00:00	1	Precipitación	6
121728	7	Sololá	704	Santa Lucía Utatlán 	7	Santa Rita 	10	Octubre	2023-07-10T00:00:00	2024-11-08T18:00:00	8	Radiación solar	6
121729	7	Sololá	704	Santa Lucía Utatlán 	7	Santa Rita 	10	Octubre	2023-07-10T00:00:00	2024-11-08T19:00:00	2	Temperatura media	18.6
121730	7	Sololá	704	Santa Lucía Utatlán 	7	Santa Rita 	10	Octubre	2023-07-10T00:00:00	2024-11-08T19:00:00	4	Temperatura máxima	18.8
121731	7	Sololá	704	Santa Lucía Utatlán 	7	Santa Rita 	10	Octubre	2023-07-10T00:00:00	2024-11-08T19:00:00	3	Temperatura mínima	18.6
121732	7	Sololá	704	Santa Lucía Utatlán 	7	Santa Rita 	10	Octubre	2023-07-10T00:00:00	2024-11-08T19:00:00	5	Humedad	97
121733	7	Sololá	704	Santa Lucía Utatlán 	7	Santa Rita 	10	Octubre	2023-07-10T00:00:00	2024-11-08T19:00:00	6	Velocidad del viento	1.6
121734	7	Sololá	704	Santa Lucía Utatlán 	7	Santa Rita 	10	Octubre	2023-07-10T00:00:00	2024-11-08T19:00:00	7	Dirección del viento	1.61
121735	7	Sololá	704	Santa Lucía Utatlán 	7	Santa Rita 	10	Octubre	2023-07-10T00:00:00	2024-11-08T19:00:00	1	Precipitación	3.4
121736	7	Sololá	704	Santa Lucía Utatlán 	7	Santa Rita 	10	Octubre	2023-07-10T00:00:00	2024-11-08T19:00:00	8	Radiación solar	0
121737	7	Sololá	704	Santa Lucía Utatlán 	7	Santa Rita 	10	Octubre	2023-07-10T00:00:00	2024-11-08T20:00:00	2	Temperatura media	18.5
121738	7	Sololá	704	Santa Lucía Utatlán 	7	Santa Rita 	10	Octubre	2023-07-10T00:00:00	2024-11-08T20:00:00	4	Temperatura máxima	18.6
121739	7	Sololá	704	Santa Lucía Utatlán 	7	Santa Rita 	10	Octubre	2023-07-10T00:00:00	2024-11-08T20:00:00	3	Temperatura mínima	18.3
121740	7	Sololá	704	Santa Lucía Utatlán 	7	Santa Rita 	10	Octubre	2023-07-10T00:00:00	2024-11-08T20:00:00	5	Humedad	97
121741	7	Sololá	704	Santa Lucía Utatlán 	7	Santa Rita 	10	Octubre	2023-07-10T00:00:00	2024-11-08T20:00:00	6	Velocidad del viento	1.6
121742	7	Sololá	704	Santa Lucía Utatlán 	7	Santa Rita 	10	Octubre	2023-07-10T00:00:00	2024-11-08T20:00:00	7	Dirección del viento	1.61
121743	7	Sololá	704	Santa Lucía Utatlán 	7	Santa Rita 	10	Octubre	2023-07-10T00:00:00	2024-11-08T20:00:00	1	Precipitación	1.6
121744	7	Sololá	704	Santa Lucía Utatlán 	7	Santa Rita 	10	Octubre	2023-07-10T00:00:00	2024-11-08T20:00:00	8	Radiación solar	0
121745	7	Sololá	704	Santa Lucía Utatlán 	7	Santa Rita 	10	Octubre	2023-07-10T00:00:00	2024-11-08T21:00:00	2	Temperatura media	17.8
121746	7	Sololá	704	Santa Lucía Utatlán 	7	Santa Rita 	10	Octubre	2023-07-10T00:00:00	2024-11-08T21:00:00	4	Temperatura máxima	18.5
121747	7	Sololá	704	Santa Lucía Utatlán 	7	Santa Rita 	10	Octubre	2023-07-10T00:00:00	2024-11-08T21:00:00	3	Temperatura mínima	17.8
121748	7	Sololá	704	Santa Lucía Utatlán 	7	Santa Rita 	10	Octubre	2023-07-10T00:00:00	2024-11-08T21:00:00	5	Humedad	96
121749	7	Sololá	704	Santa Lucía Utatlán 	7	Santa Rita 	10	Octubre	2023-07-10T00:00:00	2024-11-08T21:00:00	6	Velocidad del viento	1.6
121750	7	Sololá	704	Santa Lucía Utatlán 	7	Santa Rita 	10	Octubre	2023-07-10T00:00:00	2024-11-08T21:00:00	7	Dirección del viento	1.61
121751	7	Sololá	704	Santa Lucía Utatlán 	7	Santa Rita 	10	Octubre	2023-07-10T00:00:00	2024-11-08T21:00:00	1	Precipitación	2
121752	7	Sololá	704	Santa Lucía Utatlán 	7	Santa Rita 	10	Octubre	2023-07-10T00:00:00	2024-11-08T21:00:00	8	Radiación solar	0
121753	7	Sololá	704	Santa Lucía Utatlán 	7	Santa Rita 	10	Octubre	2023-07-10T00:00:00	2024-11-08T22:00:00	2	Temperatura media	17.9
121754	7	Sololá	704	Santa Lucía Utatlán 	7	Santa Rita 	10	Octubre	2023-07-10T00:00:00	2024-11-08T22:00:00	4	Temperatura máxima	17.9
121755	7	Sololá	704	Santa Lucía Utatlán 	7	Santa Rita 	10	Octubre	2023-07-10T00:00:00	2024-11-08T22:00:00	3	Temperatura mínima	17.8
121756	7	Sololá	704	Santa Lucía Utatlán 	7	Santa Rita 	10	Octubre	2023-07-10T00:00:00	2024-11-08T22:00:00	5	Humedad	97
121757	7	Sololá	704	Santa Lucía Utatlán 	7	Santa Rita 	10	Octubre	2023-07-10T00:00:00	2024-11-08T22:00:00	6	Velocidad del viento	1.6
121758	7	Sololá	704	Santa Lucía Utatlán 	7	Santa Rita 	10	Octubre	2023-07-10T00:00:00	2024-11-08T22:00:00	7	Dirección del viento	1.61
121759	7	Sololá	704	Santa Lucía Utatlán 	7	Santa Rita 	10	Octubre	2023-07-10T00:00:00	2024-11-08T22:00:00	1	Precipitación	0.8
121760	7	Sololá	704	Santa Lucía Utatlán 	7	Santa Rita 	10	Octubre	2023-07-10T00:00:00	2024-11-08T22:00:00	8	Radiación solar	0
121761	7	Sololá	704	Santa Lucía Utatlán 	7	Santa Rita 	10	Octubre	2023-07-10T00:00:00	2024-11-08T23:00:00	2	Temperatura media	18.3
121762	7	Sololá	704	Santa Lucía Utatlán 	7	Santa Rita 	10	Octubre	2023-07-10T00:00:00	2024-11-08T23:00:00	4	Temperatura máxima	18.3
121763	7	Sololá	704	Santa Lucía Utatlán 	7	Santa Rita 	10	Octubre	2023-07-10T00:00:00	2024-11-08T23:00:00	3	Temperatura mínima	17.8
121764	7	Sololá	704	Santa Lucía Utatlán 	7	Santa Rita 	10	Octubre	2023-07-10T00:00:00	2024-11-08T23:00:00	5	Humedad	95
121765	7	Sololá	704	Santa Lucía Utatlán 	7	Santa Rita 	10	Octubre	2023-07-10T00:00:00	2024-11-08T23:00:00	6	Velocidad del viento	1.6
121766	7	Sololá	704	Santa Lucía Utatlán 	7	Santa Rita 	10	Octubre	2023-07-10T00:00:00	2024-11-08T23:00:00	7	Dirección del viento	1.61
121767	7	Sololá	704	Santa Lucía Utatlán 	7	Santa Rita 	10	Octubre	2023-07-10T00:00:00	2024-11-08T23:00:00	1	Precipitación	0
121768	7	Sololá	704	Santa Lucía Utatlán 	7	Santa Rita 	10	Octubre	2023-07-10T00:00:00	2024-11-08T23:00:00	8	Radiación solar	0
121769	7	Sololá	704	Santa Lucía Utatlán 	7	Santa Rita 	10	Octubre	2023-08-10T00:00:00	2024-11-08T00:00:00	2	Temperatura media	17.6
121770	7	Sololá	704	Santa Lucía Utatlán 	7	Santa Rita 	10	Octubre	2023-08-10T00:00:00	2024-11-08T00:00:00	4	Temperatura máxima	18.3
121771	7	Sololá	704	Santa Lucía Utatlán 	7	Santa Rita 	10	Octubre	2023-08-10T00:00:00	2024-11-08T00:00:00	3	Temperatura mínima	17.5
121772	7	Sololá	704	Santa Lucía Utatlán 	7	Santa Rita 	10	Octubre	2023-08-10T00:00:00	2024-11-08T00:00:00	5	Humedad	95
121773	7	Sololá	704	Santa Lucía Utatlán 	7	Santa Rita 	10	Octubre	2023-08-10T00:00:00	2024-11-08T00:00:00	6	Velocidad del viento	3.2
121774	7	Sololá	704	Santa Lucía Utatlán 	7	Santa Rita 	10	Octubre	2023-08-10T00:00:00	2024-11-08T00:00:00	7	Dirección del viento	3.22
121775	7	Sololá	704	Santa Lucía Utatlán 	7	Santa Rita 	10	Octubre	2023-08-10T00:00:00	2024-11-08T00:00:00	1	Precipitación	0.2
121776	7	Sololá	704	Santa Lucía Utatlán 	7	Santa Rita 	10	Octubre	2023-08-10T00:00:00	2024-11-08T00:00:00	8	Radiación solar	0
121777	7	Sololá	704	Santa Lucía Utatlán 	7	Santa Rita 	10	Octubre	2023-08-10T00:00:00	2024-11-08T01:00:00	2	Temperatura media	18.3
121778	7	Sololá	704	Santa Lucía Utatlán 	7	Santa Rita 	10	Octubre	2023-08-10T00:00:00	2024-11-08T01:00:00	4	Temperatura máxima	18.3
121779	7	Sololá	704	Santa Lucía Utatlán 	7	Santa Rita 	10	Octubre	2023-08-10T00:00:00	2024-11-08T01:00:00	3	Temperatura mínima	17.6
121780	7	Sololá	704	Santa Lucía Utatlán 	7	Santa Rita 	10	Octubre	2023-08-10T00:00:00	2024-11-08T01:00:00	5	Humedad	94
121781	7	Sololá	704	Santa Lucía Utatlán 	7	Santa Rita 	10	Octubre	2023-08-10T00:00:00	2024-11-08T01:00:00	6	Velocidad del viento	4.8
121782	7	Sololá	704	Santa Lucía Utatlán 	7	Santa Rita 	10	Octubre	2023-08-10T00:00:00	2024-11-08T01:00:00	7	Dirección del viento	4.83
121783	7	Sololá	704	Santa Lucía Utatlán 	7	Santa Rita 	10	Octubre	2023-08-10T00:00:00	2024-11-08T01:00:00	1	Precipitación	0
121784	7	Sololá	704	Santa Lucía Utatlán 	7	Santa Rita 	10	Octubre	2023-08-10T00:00:00	2024-11-08T01:00:00	8	Radiación solar	0
121785	7	Sololá	704	Santa Lucía Utatlán 	7	Santa Rita 	10	Octubre	2023-08-10T00:00:00	2024-11-08T02:00:00	2	Temperatura media	18.4
121786	7	Sololá	704	Santa Lucía Utatlán 	7	Santa Rita 	10	Octubre	2023-08-10T00:00:00	2024-11-08T02:00:00	4	Temperatura máxima	18.4
121787	7	Sololá	704	Santa Lucía Utatlán 	7	Santa Rita 	10	Octubre	2023-08-10T00:00:00	2024-11-08T02:00:00	3	Temperatura mínima	18.3
121788	7	Sololá	704	Santa Lucía Utatlán 	7	Santa Rita 	10	Octubre	2023-08-10T00:00:00	2024-11-08T02:00:00	5	Humedad	94
121789	7	Sololá	704	Santa Lucía Utatlán 	7	Santa Rita 	10	Octubre	2023-08-10T00:00:00	2024-11-08T02:00:00	6	Velocidad del viento	3.2
121790	7	Sololá	704	Santa Lucía Utatlán 	7	Santa Rita 	10	Octubre	2023-08-10T00:00:00	2024-11-08T02:00:00	7	Dirección del viento	3.22
121791	7	Sololá	704	Santa Lucía Utatlán 	7	Santa Rita 	10	Octubre	2023-08-10T00:00:00	2024-11-08T02:00:00	1	Precipitación	0
121792	7	Sololá	704	Santa Lucía Utatlán 	7	Santa Rita 	10	Octubre	2023-08-10T00:00:00	2024-11-08T02:00:00	8	Radiación solar	0
121793	7	Sololá	704	Santa Lucía Utatlán 	7	Santa Rita 	10	Octubre	2023-08-10T00:00:00	2024-11-08T03:00:00	2	Temperatura media	18.6
121794	7	Sololá	704	Santa Lucía Utatlán 	7	Santa Rita 	10	Octubre	2023-08-10T00:00:00	2024-11-08T03:00:00	4	Temperatura máxima	18.6
121795	7	Sololá	704	Santa Lucía Utatlán 	7	Santa Rita 	10	Octubre	2023-08-10T00:00:00	2024-11-08T03:00:00	3	Temperatura mínima	18.2
121796	7	Sololá	704	Santa Lucía Utatlán 	7	Santa Rita 	10	Octubre	2023-08-10T00:00:00	2024-11-08T03:00:00	5	Humedad	95
121797	7	Sololá	704	Santa Lucía Utatlán 	7	Santa Rita 	10	Octubre	2023-08-10T00:00:00	2024-11-08T03:00:00	6	Velocidad del viento	1.6
121798	7	Sololá	704	Santa Lucía Utatlán 	7	Santa Rita 	10	Octubre	2023-08-10T00:00:00	2024-11-08T03:00:00	7	Dirección del viento	1.61
121799	7	Sololá	704	Santa Lucía Utatlán 	7	Santa Rita 	10	Octubre	2023-08-10T00:00:00	2024-11-08T03:00:00	1	Precipitación	0
121800	7	Sololá	704	Santa Lucía Utatlán 	7	Santa Rita 	10	Octubre	2023-08-10T00:00:00	2024-11-08T03:00:00	8	Radiación solar	0
121801	7	Sololá	704	Santa Lucía Utatlán 	7	Santa Rita 	10	Octubre	2023-08-10T00:00:00	2024-11-08T04:00:00	2	Temperatura media	19.6
121802	7	Sololá	704	Santa Lucía Utatlán 	7	Santa Rita 	10	Octubre	2023-08-10T00:00:00	2024-11-08T04:00:00	4	Temperatura máxima	19.6
121803	7	Sololá	704	Santa Lucía Utatlán 	7	Santa Rita 	10	Octubre	2023-08-10T00:00:00	2024-11-08T04:00:00	3	Temperatura mínima	18.6
121804	7	Sololá	704	Santa Lucía Utatlán 	7	Santa Rita 	10	Octubre	2023-08-10T00:00:00	2024-11-08T04:00:00	5	Humedad	95
121805	7	Sololá	704	Santa Lucía Utatlán 	7	Santa Rita 	10	Octubre	2023-08-10T00:00:00	2024-11-08T04:00:00	6	Velocidad del viento	0
121806	7	Sololá	704	Santa Lucía Utatlán 	7	Santa Rita 	10	Octubre	2023-08-10T00:00:00	2024-11-08T04:00:00	7	Dirección del viento	0
121807	7	Sololá	704	Santa Lucía Utatlán 	7	Santa Rita 	10	Octubre	2023-08-10T00:00:00	2024-11-08T04:00:00	1	Precipitación	0
121808	7	Sololá	704	Santa Lucía Utatlán 	7	Santa Rita 	10	Octubre	2023-08-10T00:00:00	2024-11-08T04:00:00	8	Radiación solar	0
121809	7	Sololá	704	Santa Lucía Utatlán 	7	Santa Rita 	10	Octubre	2023-08-10T00:00:00	2024-11-08T05:00:00	2	Temperatura media	21.8
121810	7	Sololá	704	Santa Lucía Utatlán 	7	Santa Rita 	10	Octubre	2023-08-10T00:00:00	2024-11-08T05:00:00	4	Temperatura máxima	21.8
121811	7	Sololá	704	Santa Lucía Utatlán 	7	Santa Rita 	10	Octubre	2023-08-10T00:00:00	2024-11-08T05:00:00	3	Temperatura mínima	19.6
121812	7	Sololá	704	Santa Lucía Utatlán 	7	Santa Rita 	10	Octubre	2023-08-10T00:00:00	2024-11-08T05:00:00	5	Humedad	85
121813	7	Sololá	704	Santa Lucía Utatlán 	7	Santa Rita 	10	Octubre	2023-08-10T00:00:00	2024-11-08T05:00:00	6	Velocidad del viento	1.6
121814	7	Sololá	704	Santa Lucía Utatlán 	7	Santa Rita 	10	Octubre	2023-08-10T00:00:00	2024-11-08T05:00:00	7	Dirección del viento	1.61
121815	7	Sololá	704	Santa Lucía Utatlán 	7	Santa Rita 	10	Octubre	2023-08-10T00:00:00	2024-11-08T05:00:00	1	Precipitación	0
121816	7	Sololá	704	Santa Lucía Utatlán 	7	Santa Rita 	10	Octubre	2023-08-10T00:00:00	2024-11-08T05:00:00	8	Radiación solar	0
121817	7	Sololá	704	Santa Lucía Utatlán 	7	Santa Rita 	10	Octubre	2023-08-10T00:00:00	2024-11-08T06:00:00	2	Temperatura media	24.1
121818	7	Sololá	704	Santa Lucía Utatlán 	7	Santa Rita 	10	Octubre	2023-08-10T00:00:00	2024-11-08T06:00:00	4	Temperatura máxima	24.2
121819	7	Sololá	704	Santa Lucía Utatlán 	7	Santa Rita 	10	Octubre	2023-08-10T00:00:00	2024-11-08T06:00:00	3	Temperatura mínima	21.8
121820	7	Sololá	704	Santa Lucía Utatlán 	7	Santa Rita 	10	Octubre	2023-08-10T00:00:00	2024-11-08T06:00:00	5	Humedad	77
121821	7	Sololá	704	Santa Lucía Utatlán 	7	Santa Rita 	10	Octubre	2023-08-10T00:00:00	2024-11-08T06:00:00	6	Velocidad del viento	3.2
121822	7	Sololá	704	Santa Lucía Utatlán 	7	Santa Rita 	10	Octubre	2023-08-10T00:00:00	2024-11-08T06:00:00	7	Dirección del viento	3.22
121823	7	Sololá	704	Santa Lucía Utatlán 	7	Santa Rita 	10	Octubre	2023-08-10T00:00:00	2024-11-08T06:00:00	1	Precipitación	0
121824	7	Sololá	704	Santa Lucía Utatlán 	7	Santa Rita 	10	Octubre	2023-08-10T00:00:00	2024-11-08T06:00:00	8	Radiación solar	15
121825	7	Sololá	704	Santa Lucía Utatlán 	7	Santa Rita 	10	Octubre	2023-08-10T00:00:00	2024-11-08T07:00:00	2	Temperatura media	24.2
121826	7	Sololá	704	Santa Lucía Utatlán 	7	Santa Rita 	10	Octubre	2023-08-10T00:00:00	2024-11-08T07:00:00	4	Temperatura máxima	24.7
121827	7	Sololá	704	Santa Lucía Utatlán 	7	Santa Rita 	10	Octubre	2023-08-10T00:00:00	2024-11-08T07:00:00	3	Temperatura mínima	24.1
121828	7	Sololá	704	Santa Lucía Utatlán 	7	Santa Rita 	10	Octubre	2023-08-10T00:00:00	2024-11-08T07:00:00	5	Humedad	75
121829	7	Sololá	704	Santa Lucía Utatlán 	7	Santa Rita 	10	Octubre	2023-08-10T00:00:00	2024-11-08T07:00:00	6	Velocidad del viento	4.8
121830	7	Sololá	704	Santa Lucía Utatlán 	7	Santa Rita 	10	Octubre	2023-08-10T00:00:00	2024-11-08T07:00:00	7	Dirección del viento	4.83
121831	7	Sololá	704	Santa Lucía Utatlán 	7	Santa Rita 	10	Octubre	2023-08-10T00:00:00	2024-11-08T07:00:00	1	Precipitación	0
121832	7	Sololá	704	Santa Lucía Utatlán 	7	Santa Rita 	10	Octubre	2023-08-10T00:00:00	2024-11-08T07:00:00	8	Radiación solar	85
121833	7	Sololá	704	Santa Lucía Utatlán 	7	Santa Rita 	10	Octubre	2023-08-10T00:00:00	2024-11-08T08:00:00	2	Temperatura media	26
121834	7	Sololá	704	Santa Lucía Utatlán 	7	Santa Rita 	10	Octubre	2023-08-10T00:00:00	2024-11-08T08:00:00	4	Temperatura máxima	26
121835	7	Sololá	704	Santa Lucía Utatlán 	7	Santa Rita 	10	Octubre	2023-08-10T00:00:00	2024-11-08T08:00:00	3	Temperatura mínima	24.2
121836	7	Sololá	704	Santa Lucía Utatlán 	7	Santa Rita 	10	Octubre	2023-08-10T00:00:00	2024-11-08T08:00:00	5	Humedad	77
121837	7	Sololá	704	Santa Lucía Utatlán 	7	Santa Rita 	10	Octubre	2023-08-10T00:00:00	2024-11-08T08:00:00	6	Velocidad del viento	4.8
121838	7	Sololá	704	Santa Lucía Utatlán 	7	Santa Rita 	10	Octubre	2023-08-10T00:00:00	2024-11-08T08:00:00	7	Dirección del viento	4.83
121839	7	Sololá	704	Santa Lucía Utatlán 	7	Santa Rita 	10	Octubre	2023-08-10T00:00:00	2024-11-08T08:00:00	1	Precipitación	0
121840	7	Sololá	704	Santa Lucía Utatlán 	7	Santa Rita 	10	Octubre	2023-08-10T00:00:00	2024-11-08T08:00:00	8	Radiación solar	393
121841	7	Sololá	704	Santa Lucía Utatlán 	7	Santa Rita 	10	Octubre	2023-08-10T00:00:00	2024-11-08T09:00:00	2	Temperatura media	25.1
121842	7	Sololá	704	Santa Lucía Utatlán 	7	Santa Rita 	10	Octubre	2023-08-10T00:00:00	2024-11-08T09:00:00	4	Temperatura máxima	26.2
121843	7	Sololá	704	Santa Lucía Utatlán 	7	Santa Rita 	10	Octubre	2023-08-10T00:00:00	2024-11-08T09:00:00	3	Temperatura mínima	24.7
121844	7	Sololá	704	Santa Lucía Utatlán 	7	Santa Rita 	10	Octubre	2023-08-10T00:00:00	2024-11-08T09:00:00	5	Humedad	78
121845	7	Sololá	704	Santa Lucía Utatlán 	7	Santa Rita 	10	Octubre	2023-08-10T00:00:00	2024-11-08T09:00:00	6	Velocidad del viento	9.7
121846	7	Sololá	704	Santa Lucía Utatlán 	7	Santa Rita 	10	Octubre	2023-08-10T00:00:00	2024-11-08T09:00:00	7	Dirección del viento	9.66
121847	7	Sololá	704	Santa Lucía Utatlán 	7	Santa Rita 	10	Octubre	2023-08-10T00:00:00	2024-11-08T09:00:00	1	Precipitación	0
121848	7	Sololá	704	Santa Lucía Utatlán 	7	Santa Rita 	10	Octubre	2023-08-10T00:00:00	2024-11-08T09:00:00	8	Radiación solar	658
121849	7	Sololá	704	Santa Lucía Utatlán 	7	Santa Rita 	10	Octubre	2023-08-10T00:00:00	2024-11-08T10:00:00	2	Temperatura media	25.8
121850	7	Sololá	704	Santa Lucía Utatlán 	7	Santa Rita 	10	Octubre	2023-08-10T00:00:00	2024-11-08T10:00:00	4	Temperatura máxima	26.6
121851	7	Sololá	704	Santa Lucía Utatlán 	7	Santa Rita 	10	Octubre	2023-08-10T00:00:00	2024-11-08T10:00:00	3	Temperatura mínima	25.2
121852	7	Sololá	704	Santa Lucía Utatlán 	7	Santa Rita 	10	Octubre	2023-08-10T00:00:00	2024-11-08T10:00:00	5	Humedad	71
121853	7	Sololá	704	Santa Lucía Utatlán 	7	Santa Rita 	10	Octubre	2023-08-10T00:00:00	2024-11-08T10:00:00	6	Velocidad del viento	6.4
121854	7	Sololá	704	Santa Lucía Utatlán 	7	Santa Rita 	10	Octubre	2023-08-10T00:00:00	2024-11-08T10:00:00	7	Dirección del viento	6.44
121855	7	Sololá	704	Santa Lucía Utatlán 	7	Santa Rita 	10	Octubre	2023-08-10T00:00:00	2024-11-08T10:00:00	1	Precipitación	0
121856	7	Sololá	704	Santa Lucía Utatlán 	7	Santa Rita 	10	Octubre	2023-08-10T00:00:00	2024-11-08T10:00:00	8	Radiación solar	576
121857	7	Sololá	704	Santa Lucía Utatlán 	7	Santa Rita 	10	Octubre	2023-08-10T00:00:00	2024-11-08T11:00:00	2	Temperatura media	24.9
121858	7	Sololá	704	Santa Lucía Utatlán 	7	Santa Rita 	10	Octubre	2023-08-10T00:00:00	2024-11-08T11:00:00	4	Temperatura máxima	25.8
121859	7	Sololá	704	Santa Lucía Utatlán 	7	Santa Rita 	10	Octubre	2023-08-10T00:00:00	2024-11-08T11:00:00	3	Temperatura mínima	24.9
121860	7	Sololá	704	Santa Lucía Utatlán 	7	Santa Rita 	10	Octubre	2023-08-10T00:00:00	2024-11-08T11:00:00	5	Humedad	74
121861	7	Sololá	704	Santa Lucía Utatlán 	7	Santa Rita 	10	Octubre	2023-08-10T00:00:00	2024-11-08T11:00:00	6	Velocidad del viento	4.8
121862	7	Sololá	704	Santa Lucía Utatlán 	7	Santa Rita 	10	Octubre	2023-08-10T00:00:00	2024-11-08T11:00:00	7	Dirección del viento	4.83
121863	7	Sololá	704	Santa Lucía Utatlán 	7	Santa Rita 	10	Octubre	2023-08-10T00:00:00	2024-11-08T11:00:00	1	Precipitación	0
121864	7	Sololá	704	Santa Lucía Utatlán 	7	Santa Rita 	10	Octubre	2023-08-10T00:00:00	2024-11-08T11:00:00	8	Radiación solar	858
121865	7	Sololá	704	Santa Lucía Utatlán 	7	Santa Rita 	10	Octubre	2023-08-10T00:00:00	2024-11-08T12:00:00	2	Temperatura media	24.1
121866	7	Sololá	704	Santa Lucía Utatlán 	7	Santa Rita 	10	Octubre	2023-08-10T00:00:00	2024-11-08T12:00:00	4	Temperatura máxima	25.2
121867	7	Sololá	704	Santa Lucía Utatlán 	7	Santa Rita 	10	Octubre	2023-08-10T00:00:00	2024-11-08T12:00:00	3	Temperatura mínima	24.1
121868	7	Sololá	704	Santa Lucía Utatlán 	7	Santa Rita 	10	Octubre	2023-08-10T00:00:00	2024-11-08T12:00:00	5	Humedad	82
121869	7	Sololá	704	Santa Lucía Utatlán 	7	Santa Rita 	10	Octubre	2023-08-10T00:00:00	2024-11-08T12:00:00	6	Velocidad del viento	3.2
121870	7	Sololá	704	Santa Lucía Utatlán 	7	Santa Rita 	10	Octubre	2023-08-10T00:00:00	2024-11-08T12:00:00	7	Dirección del viento	3.22
121871	7	Sololá	704	Santa Lucía Utatlán 	7	Santa Rita 	10	Octubre	2023-08-10T00:00:00	2024-11-08T12:00:00	1	Precipitación	0
121872	7	Sololá	704	Santa Lucía Utatlán 	7	Santa Rita 	10	Octubre	2023-08-10T00:00:00	2024-11-08T12:00:00	8	Radiación solar	720
121873	7	Sololá	704	Santa Lucía Utatlán 	7	Santa Rita 	10	Octubre	2023-08-10T00:00:00	2024-11-08T13:00:00	2	Temperatura media	21.2
121874	7	Sololá	704	Santa Lucía Utatlán 	7	Santa Rita 	10	Octubre	2023-08-10T00:00:00	2024-11-08T13:00:00	4	Temperatura máxima	24.1
121875	7	Sololá	704	Santa Lucía Utatlán 	7	Santa Rita 	10	Octubre	2023-08-10T00:00:00	2024-11-08T13:00:00	3	Temperatura mínima	21.1
121876	7	Sololá	704	Santa Lucía Utatlán 	7	Santa Rita 	10	Octubre	2023-08-10T00:00:00	2024-11-08T13:00:00	5	Humedad	88
121877	7	Sololá	704	Santa Lucía Utatlán 	7	Santa Rita 	10	Octubre	2023-08-10T00:00:00	2024-11-08T13:00:00	6	Velocidad del viento	6.4
121878	7	Sololá	704	Santa Lucía Utatlán 	7	Santa Rita 	10	Octubre	2023-08-10T00:00:00	2024-11-08T13:00:00	7	Dirección del viento	6.44
121879	7	Sololá	704	Santa Lucía Utatlán 	7	Santa Rita 	10	Octubre	2023-08-10T00:00:00	2024-11-08T13:00:00	1	Precipitación	2.2
121880	7	Sololá	704	Santa Lucía Utatlán 	7	Santa Rita 	10	Octubre	2023-08-10T00:00:00	2024-11-08T13:00:00	8	Radiación solar	738
121881	7	Sololá	704	Santa Lucía Utatlán 	7	Santa Rita 	10	Octubre	2023-08-10T00:00:00	2024-11-08T14:00:00	2	Temperatura media	19.9
121882	7	Sololá	704	Santa Lucía Utatlán 	7	Santa Rita 	10	Octubre	2023-08-10T00:00:00	2024-11-08T14:00:00	4	Temperatura máxima	21.1
121883	7	Sololá	704	Santa Lucía Utatlán 	7	Santa Rita 	10	Octubre	2023-08-10T00:00:00	2024-11-08T14:00:00	3	Temperatura mínima	19.6
121884	7	Sololá	704	Santa Lucía Utatlán 	7	Santa Rita 	10	Octubre	2023-08-10T00:00:00	2024-11-08T14:00:00	5	Humedad	93
121885	7	Sololá	704	Santa Lucía Utatlán 	7	Santa Rita 	10	Octubre	2023-08-10T00:00:00	2024-11-08T14:00:00	6	Velocidad del viento	3.2
121886	7	Sololá	704	Santa Lucía Utatlán 	7	Santa Rita 	10	Octubre	2023-08-10T00:00:00	2024-11-08T14:00:00	7	Dirección del viento	3.22
121887	7	Sololá	704	Santa Lucía Utatlán 	7	Santa Rita 	10	Octubre	2023-08-10T00:00:00	2024-11-08T14:00:00	1	Precipitación	1
121888	7	Sololá	704	Santa Lucía Utatlán 	7	Santa Rita 	10	Octubre	2023-08-10T00:00:00	2024-11-08T14:00:00	8	Radiación solar	144
121889	7	Sololá	704	Santa Lucía Utatlán 	7	Santa Rita 	10	Octubre	2023-08-10T00:00:00	2024-11-08T15:00:00	2	Temperatura media	19.3
121890	7	Sololá	704	Santa Lucía Utatlán 	7	Santa Rita 	10	Octubre	2023-08-10T00:00:00	2024-11-08T15:00:00	4	Temperatura máxima	19.5
121891	7	Sololá	704	Santa Lucía Utatlán 	7	Santa Rita 	10	Octubre	2023-08-10T00:00:00	2024-11-08T15:00:00	3	Temperatura mínima	19.3
121892	7	Sololá	704	Santa Lucía Utatlán 	7	Santa Rita 	10	Octubre	2023-08-10T00:00:00	2024-11-08T15:00:00	5	Humedad	96
121893	7	Sololá	704	Santa Lucía Utatlán 	7	Santa Rita 	10	Octubre	2023-08-10T00:00:00	2024-11-08T15:00:00	6	Velocidad del viento	1.6
121894	7	Sololá	704	Santa Lucía Utatlán 	7	Santa Rita 	10	Octubre	2023-08-10T00:00:00	2024-11-08T15:00:00	7	Dirección del viento	1.61
121895	7	Sololá	704	Santa Lucía Utatlán 	7	Santa Rita 	10	Octubre	2023-08-10T00:00:00	2024-11-08T15:00:00	1	Precipitación	0
121896	7	Sololá	704	Santa Lucía Utatlán 	7	Santa Rita 	10	Octubre	2023-08-10T00:00:00	2024-11-08T15:00:00	8	Radiación solar	124
121897	7	Sololá	704	Santa Lucía Utatlán 	7	Santa Rita 	10	Octubre	2023-08-10T00:00:00	2024-11-08T16:00:00	2	Temperatura media	19.4
121898	7	Sololá	704	Santa Lucía Utatlán 	7	Santa Rita 	10	Octubre	2023-08-10T00:00:00	2024-11-08T16:00:00	4	Temperatura máxima	19.5
121899	7	Sololá	704	Santa Lucía Utatlán 	7	Santa Rita 	10	Octubre	2023-08-10T00:00:00	2024-11-08T16:00:00	3	Temperatura mínima	19.3
121900	7	Sololá	704	Santa Lucía Utatlán 	7	Santa Rita 	10	Octubre	2023-08-10T00:00:00	2024-11-08T16:00:00	5	Humedad	96
121901	7	Sololá	704	Santa Lucía Utatlán 	7	Santa Rita 	10	Octubre	2023-08-10T00:00:00	2024-11-08T16:00:00	6	Velocidad del viento	1.6
121902	7	Sololá	704	Santa Lucía Utatlán 	7	Santa Rita 	10	Octubre	2023-08-10T00:00:00	2024-11-08T16:00:00	7	Dirección del viento	1.61
121903	7	Sololá	704	Santa Lucía Utatlán 	7	Santa Rita 	10	Octubre	2023-08-10T00:00:00	2024-11-08T16:00:00	1	Precipitación	0
121904	7	Sololá	704	Santa Lucía Utatlán 	7	Santa Rita 	10	Octubre	2023-08-10T00:00:00	2024-11-08T16:00:00	8	Radiación solar	25
121905	7	Sololá	704	Santa Lucía Utatlán 	7	Santa Rita 	10	Octubre	2023-08-10T00:00:00	2024-11-08T17:00:00	2	Temperatura media	19.2
121906	7	Sololá	704	Santa Lucía Utatlán 	7	Santa Rita 	10	Octubre	2023-08-10T00:00:00	2024-11-08T17:00:00	4	Temperatura máxima	19.4
121907	7	Sololá	704	Santa Lucía Utatlán 	7	Santa Rita 	10	Octubre	2023-08-10T00:00:00	2024-11-08T17:00:00	3	Temperatura mínima	19.1
121908	7	Sololá	704	Santa Lucía Utatlán 	7	Santa Rita 	10	Octubre	2023-08-10T00:00:00	2024-11-08T17:00:00	5	Humedad	96
121909	7	Sololá	704	Santa Lucía Utatlán 	7	Santa Rita 	10	Octubre	2023-08-10T00:00:00	2024-11-08T17:00:00	6	Velocidad del viento	1.6
121910	7	Sololá	704	Santa Lucía Utatlán 	7	Santa Rita 	10	Octubre	2023-08-10T00:00:00	2024-11-08T17:00:00	7	Dirección del viento	1.61
121911	7	Sololá	704	Santa Lucía Utatlán 	7	Santa Rita 	10	Octubre	2023-08-10T00:00:00	2024-11-08T17:00:00	1	Precipitación	0
121912	7	Sololá	704	Santa Lucía Utatlán 	7	Santa Rita 	10	Octubre	2023-08-10T00:00:00	2024-11-08T17:00:00	8	Radiación solar	6
121913	7	Sololá	704	Santa Lucía Utatlán 	7	Santa Rita 	10	Octubre	2023-08-10T00:00:00	2024-11-08T18:00:00	2	Temperatura media	19.6
121914	7	Sololá	704	Santa Lucía Utatlán 	7	Santa Rita 	10	Octubre	2023-08-10T00:00:00	2024-11-08T18:00:00	4	Temperatura máxima	19.6
121915	7	Sololá	704	Santa Lucía Utatlán 	7	Santa Rita 	10	Octubre	2023-08-10T00:00:00	2024-11-08T18:00:00	3	Temperatura mínima	19.2
121916	7	Sololá	704	Santa Lucía Utatlán 	7	Santa Rita 	10	Octubre	2023-08-10T00:00:00	2024-11-08T18:00:00	5	Humedad	96
121917	7	Sololá	704	Santa Lucía Utatlán 	7	Santa Rita 	10	Octubre	2023-08-10T00:00:00	2024-11-08T18:00:00	6	Velocidad del viento	1.6
121918	7	Sololá	704	Santa Lucía Utatlán 	7	Santa Rita 	10	Octubre	2023-08-10T00:00:00	2024-11-08T18:00:00	7	Dirección del viento	1.61
121919	7	Sololá	704	Santa Lucía Utatlán 	7	Santa Rita 	10	Octubre	2023-08-10T00:00:00	2024-11-08T18:00:00	1	Precipitación	0.2
121920	7	Sololá	704	Santa Lucía Utatlán 	7	Santa Rita 	10	Octubre	2023-08-10T00:00:00	2024-11-08T18:00:00	8	Radiación solar	0
121921	7	Sololá	704	Santa Lucía Utatlán 	7	Santa Rita 	10	Octubre	2023-08-10T00:00:00	2024-11-08T19:00:00	2	Temperatura media	19.4
121922	7	Sololá	704	Santa Lucía Utatlán 	7	Santa Rita 	10	Octubre	2023-08-10T00:00:00	2024-11-08T19:00:00	4	Temperatura máxima	19.6
121923	7	Sololá	704	Santa Lucía Utatlán 	7	Santa Rita 	10	Octubre	2023-08-10T00:00:00	2024-11-08T19:00:00	3	Temperatura mínima	19.4
121924	7	Sololá	704	Santa Lucía Utatlán 	7	Santa Rita 	10	Octubre	2023-08-10T00:00:00	2024-11-08T19:00:00	5	Humedad	97
121925	7	Sololá	704	Santa Lucía Utatlán 	7	Santa Rita 	10	Octubre	2023-08-10T00:00:00	2024-11-08T19:00:00	6	Velocidad del viento	0
121926	7	Sololá	704	Santa Lucía Utatlán 	7	Santa Rita 	10	Octubre	2023-08-10T00:00:00	2024-11-08T19:00:00	7	Dirección del viento	0
121927	7	Sololá	704	Santa Lucía Utatlán 	7	Santa Rita 	10	Octubre	2023-08-10T00:00:00	2024-11-08T19:00:00	1	Precipitación	1
121928	7	Sololá	704	Santa Lucía Utatlán 	7	Santa Rita 	10	Octubre	2023-08-10T00:00:00	2024-11-08T19:00:00	8	Radiación solar	0
121929	7	Sololá	704	Santa Lucía Utatlán 	7	Santa Rita 	10	Octubre	2023-08-10T00:00:00	2024-11-08T20:00:00	2	Temperatura media	19.4
121930	7	Sololá	704	Santa Lucía Utatlán 	7	Santa Rita 	10	Octubre	2023-08-10T00:00:00	2024-11-08T20:00:00	4	Temperatura máxima	19.5
121931	7	Sololá	704	Santa Lucía Utatlán 	7	Santa Rita 	10	Octubre	2023-08-10T00:00:00	2024-11-08T20:00:00	3	Temperatura mínima	19.4
121932	7	Sololá	704	Santa Lucía Utatlán 	7	Santa Rita 	10	Octubre	2023-08-10T00:00:00	2024-11-08T20:00:00	5	Humedad	97
121933	7	Sololá	704	Santa Lucía Utatlán 	7	Santa Rita 	10	Octubre	2023-08-10T00:00:00	2024-11-08T20:00:00	6	Velocidad del viento	0
121934	7	Sololá	704	Santa Lucía Utatlán 	7	Santa Rita 	10	Octubre	2023-08-10T00:00:00	2024-11-08T20:00:00	7	Dirección del viento	0
121935	7	Sololá	704	Santa Lucía Utatlán 	7	Santa Rita 	10	Octubre	2023-08-10T00:00:00	2024-11-08T20:00:00	1	Precipitación	3.8
121936	7	Sololá	704	Santa Lucía Utatlán 	7	Santa Rita 	10	Octubre	2023-08-10T00:00:00	2024-11-08T20:00:00	8	Radiación solar	0
121937	7	Sololá	704	Santa Lucía Utatlán 	7	Santa Rita 	10	Octubre	2023-08-10T00:00:00	2024-11-08T21:00:00	2	Temperatura media	19
121938	7	Sololá	704	Santa Lucía Utatlán 	7	Santa Rita 	10	Octubre	2023-08-10T00:00:00	2024-11-08T21:00:00	4	Temperatura máxima	19.4
121939	7	Sololá	704	Santa Lucía Utatlán 	7	Santa Rita 	10	Octubre	2023-08-10T00:00:00	2024-11-08T21:00:00	3	Temperatura mínima	19
121940	7	Sololá	704	Santa Lucía Utatlán 	7	Santa Rita 	10	Octubre	2023-08-10T00:00:00	2024-11-08T21:00:00	5	Humedad	97
121941	7	Sololá	704	Santa Lucía Utatlán 	7	Santa Rita 	10	Octubre	2023-08-10T00:00:00	2024-11-08T21:00:00	6	Velocidad del viento	0
121942	7	Sololá	704	Santa Lucía Utatlán 	7	Santa Rita 	10	Octubre	2023-08-10T00:00:00	2024-11-08T21:00:00	7	Dirección del viento	0
121943	7	Sololá	704	Santa Lucía Utatlán 	7	Santa Rita 	10	Octubre	2023-08-10T00:00:00	2024-11-08T21:00:00	1	Precipitación	0.2
121944	7	Sololá	704	Santa Lucía Utatlán 	7	Santa Rita 	10	Octubre	2023-08-10T00:00:00	2024-11-08T21:00:00	8	Radiación solar	0
121945	7	Sololá	704	Santa Lucía Utatlán 	7	Santa Rita 	10	Octubre	2023-08-10T00:00:00	2024-11-08T22:00:00	2	Temperatura media	18.3
121946	7	Sololá	704	Santa Lucía Utatlán 	7	Santa Rita 	10	Octubre	2023-08-10T00:00:00	2024-11-08T22:00:00	4	Temperatura máxima	19.1
121947	7	Sololá	704	Santa Lucía Utatlán 	7	Santa Rita 	10	Octubre	2023-08-10T00:00:00	2024-11-08T22:00:00	3	Temperatura mínima	18.3
121948	7	Sololá	704	Santa Lucía Utatlán 	7	Santa Rita 	10	Octubre	2023-08-10T00:00:00	2024-11-08T22:00:00	5	Humedad	96
121949	7	Sololá	704	Santa Lucía Utatlán 	7	Santa Rita 	10	Octubre	2023-08-10T00:00:00	2024-11-08T22:00:00	6	Velocidad del viento	1.6
121950	7	Sololá	704	Santa Lucía Utatlán 	7	Santa Rita 	10	Octubre	2023-08-10T00:00:00	2024-11-08T22:00:00	7	Dirección del viento	1.61
121951	7	Sololá	704	Santa Lucía Utatlán 	7	Santa Rita 	10	Octubre	2023-08-10T00:00:00	2024-11-08T22:00:00	1	Precipitación	0
121952	7	Sololá	704	Santa Lucía Utatlán 	7	Santa Rita 	10	Octubre	2023-08-10T00:00:00	2024-11-08T22:00:00	8	Radiación solar	0
121953	7	Sololá	704	Santa Lucía Utatlán 	7	Santa Rita 	10	Octubre	2023-08-10T00:00:00	2024-11-08T23:00:00	2	Temperatura media	17.6
121954	7	Sololá	704	Santa Lucía Utatlán 	7	Santa Rita 	10	Octubre	2023-08-10T00:00:00	2024-11-08T23:00:00	4	Temperatura máxima	18.3
121955	7	Sololá	704	Santa Lucía Utatlán 	7	Santa Rita 	10	Octubre	2023-08-10T00:00:00	2024-11-08T23:00:00	3	Temperatura mínima	17.6
121956	7	Sololá	704	Santa Lucía Utatlán 	7	Santa Rita 	10	Octubre	2023-08-10T00:00:00	2024-11-08T23:00:00	5	Humedad	95
121957	7	Sololá	704	Santa Lucía Utatlán 	7	Santa Rita 	10	Octubre	2023-08-10T00:00:00	2024-11-08T23:00:00	6	Velocidad del viento	3.2
121958	7	Sololá	704	Santa Lucía Utatlán 	7	Santa Rita 	10	Octubre	2023-08-10T00:00:00	2024-11-08T23:00:00	7	Dirección del viento	3.22
121959	7	Sololá	704	Santa Lucía Utatlán 	7	Santa Rita 	10	Octubre	2023-08-10T00:00:00	2024-11-08T23:00:00	1	Precipitación	0.2
121960	7	Sololá	704	Santa Lucía Utatlán 	7	Santa Rita 	10	Octubre	2023-08-10T00:00:00	2024-11-08T23:00:00	8	Radiación solar	0
121961	7	Sololá	704	Santa Lucía Utatlán 	7	Santa Rita 	10	Octubre	2023-09-10T00:00:00	2024-11-08T00:00:00	2	Temperatura media	17.2
121962	7	Sololá	704	Santa Lucía Utatlán 	7	Santa Rita 	10	Octubre	2023-09-10T00:00:00	2024-11-08T00:00:00	4	Temperatura máxima	17.6
121963	7	Sololá	704	Santa Lucía Utatlán 	7	Santa Rita 	10	Octubre	2023-09-10T00:00:00	2024-11-08T00:00:00	3	Temperatura mínima	17.2
121964	7	Sololá	704	Santa Lucía Utatlán 	7	Santa Rita 	10	Octubre	2023-09-10T00:00:00	2024-11-08T00:00:00	5	Humedad	95
121965	7	Sololá	704	Santa Lucía Utatlán 	7	Santa Rita 	10	Octubre	2023-09-10T00:00:00	2024-11-08T00:00:00	6	Velocidad del viento	3.2
121966	7	Sololá	704	Santa Lucía Utatlán 	7	Santa Rita 	10	Octubre	2023-09-10T00:00:00	2024-11-08T00:00:00	7	Dirección del viento	3.22
121967	7	Sololá	704	Santa Lucía Utatlán 	7	Santa Rita 	10	Octubre	2023-09-10T00:00:00	2024-11-08T00:00:00	1	Precipitación	0
121968	7	Sololá	704	Santa Lucía Utatlán 	7	Santa Rita 	10	Octubre	2023-09-10T00:00:00	2024-11-08T00:00:00	8	Radiación solar	0
121969	7	Sololá	704	Santa Lucía Utatlán 	7	Santa Rita 	10	Octubre	2023-09-10T00:00:00	2024-11-08T01:00:00	2	Temperatura media	18.4
121970	7	Sololá	704	Santa Lucía Utatlán 	7	Santa Rita 	10	Octubre	2023-09-10T00:00:00	2024-11-08T01:00:00	4	Temperatura máxima	18.4
121971	7	Sololá	704	Santa Lucía Utatlán 	7	Santa Rita 	10	Octubre	2023-09-10T00:00:00	2024-11-08T01:00:00	3	Temperatura mínima	17.2
121972	7	Sololá	704	Santa Lucía Utatlán 	7	Santa Rita 	10	Octubre	2023-09-10T00:00:00	2024-11-08T01:00:00	5	Humedad	97
121973	7	Sololá	704	Santa Lucía Utatlán 	7	Santa Rita 	10	Octubre	2023-09-10T00:00:00	2024-11-08T01:00:00	6	Velocidad del viento	3.2
121974	7	Sololá	704	Santa Lucía Utatlán 	7	Santa Rita 	10	Octubre	2023-09-10T00:00:00	2024-11-08T01:00:00	7	Dirección del viento	3.22
121975	7	Sololá	704	Santa Lucía Utatlán 	7	Santa Rita 	10	Octubre	2023-09-10T00:00:00	2024-11-08T01:00:00	1	Precipitación	0
121976	7	Sololá	704	Santa Lucía Utatlán 	7	Santa Rita 	10	Octubre	2023-09-10T00:00:00	2024-11-08T01:00:00	8	Radiación solar	0
121977	7	Sololá	704	Santa Lucía Utatlán 	7	Santa Rita 	10	Octubre	2023-09-10T00:00:00	2024-11-08T02:00:00	2	Temperatura media	18.8
121978	7	Sololá	704	Santa Lucía Utatlán 	7	Santa Rita 	10	Octubre	2023-09-10T00:00:00	2024-11-08T02:00:00	4	Temperatura máxima	18.9
121979	7	Sololá	704	Santa Lucía Utatlán 	7	Santa Rita 	10	Octubre	2023-09-10T00:00:00	2024-11-08T02:00:00	3	Temperatura mínima	18.3
121980	7	Sololá	704	Santa Lucía Utatlán 	7	Santa Rita 	10	Octubre	2023-09-10T00:00:00	2024-11-08T02:00:00	5	Humedad	96
121981	7	Sololá	704	Santa Lucía Utatlán 	7	Santa Rita 	10	Octubre	2023-09-10T00:00:00	2024-11-08T02:00:00	6	Velocidad del viento	1.6
121982	7	Sololá	704	Santa Lucía Utatlán 	7	Santa Rita 	10	Octubre	2023-09-10T00:00:00	2024-11-08T02:00:00	7	Dirección del viento	1.61
121983	7	Sololá	704	Santa Lucía Utatlán 	7	Santa Rita 	10	Octubre	2023-09-10T00:00:00	2024-11-08T02:00:00	1	Precipitación	0
121984	7	Sololá	704	Santa Lucía Utatlán 	7	Santa Rita 	10	Octubre	2023-09-10T00:00:00	2024-11-08T02:00:00	8	Radiación solar	0
121985	7	Sololá	704	Santa Lucía Utatlán 	7	Santa Rita 	10	Octubre	2023-09-10T00:00:00	2024-11-08T03:00:00	2	Temperatura media	19.4
121986	7	Sololá	704	Santa Lucía Utatlán 	7	Santa Rita 	10	Octubre	2023-09-10T00:00:00	2024-11-08T03:00:00	4	Temperatura máxima	19.4
121987	7	Sololá	704	Santa Lucía Utatlán 	7	Santa Rita 	10	Octubre	2023-09-10T00:00:00	2024-11-08T03:00:00	3	Temperatura mínima	18.8
121988	7	Sololá	704	Santa Lucía Utatlán 	7	Santa Rita 	10	Octubre	2023-09-10T00:00:00	2024-11-08T03:00:00	5	Humedad	97
121989	7	Sololá	704	Santa Lucía Utatlán 	7	Santa Rita 	10	Octubre	2023-09-10T00:00:00	2024-11-08T03:00:00	6	Velocidad del viento	0
121990	7	Sololá	704	Santa Lucía Utatlán 	7	Santa Rita 	10	Octubre	2023-09-10T00:00:00	2024-11-08T03:00:00	7	Dirección del viento	0
121991	7	Sololá	704	Santa Lucía Utatlán 	7	Santa Rita 	10	Octubre	2023-09-10T00:00:00	2024-11-08T03:00:00	1	Precipitación	0
121992	7	Sololá	704	Santa Lucía Utatlán 	7	Santa Rita 	10	Octubre	2023-09-10T00:00:00	2024-11-08T03:00:00	8	Radiación solar	0
121993	7	Sololá	704	Santa Lucía Utatlán 	7	Santa Rita 	10	Octubre	2023-09-10T00:00:00	2024-11-08T04:00:00	2	Temperatura media	21.1
121994	7	Sololá	704	Santa Lucía Utatlán 	7	Santa Rita 	10	Octubre	2023-09-10T00:00:00	2024-11-08T04:00:00	4	Temperatura máxima	21.2
121995	7	Sololá	704	Santa Lucía Utatlán 	7	Santa Rita 	10	Octubre	2023-09-10T00:00:00	2024-11-08T04:00:00	3	Temperatura mínima	19.3
121996	7	Sololá	704	Santa Lucía Utatlán 	7	Santa Rita 	10	Octubre	2023-09-10T00:00:00	2024-11-08T04:00:00	5	Humedad	89
121997	7	Sololá	704	Santa Lucía Utatlán 	7	Santa Rita 	10	Octubre	2023-09-10T00:00:00	2024-11-08T04:00:00	6	Velocidad del viento	1.6
121998	7	Sololá	704	Santa Lucía Utatlán 	7	Santa Rita 	10	Octubre	2023-09-10T00:00:00	2024-11-08T04:00:00	7	Dirección del viento	1.61
121999	7	Sololá	704	Santa Lucía Utatlán 	7	Santa Rita 	10	Octubre	2023-09-10T00:00:00	2024-11-08T04:00:00	1	Precipitación	0
122000	7	Sololá	704	Santa Lucía Utatlán 	7	Santa Rita 	10	Octubre	2023-09-10T00:00:00	2024-11-08T04:00:00	8	Radiación solar	0
122001	7	Sololá	704	Santa Lucía Utatlán 	7	Santa Rita 	10	Octubre	2023-09-10T00:00:00	2024-11-08T05:00:00	2	Temperatura media	22.4
122002	7	Sololá	704	Santa Lucía Utatlán 	7	Santa Rita 	10	Octubre	2023-09-10T00:00:00	2024-11-08T05:00:00	4	Temperatura máxima	22.4
122003	7	Sololá	704	Santa Lucía Utatlán 	7	Santa Rita 	10	Octubre	2023-09-10T00:00:00	2024-11-08T05:00:00	3	Temperatura mínima	21.1
122004	7	Sololá	704	Santa Lucía Utatlán 	7	Santa Rita 	10	Octubre	2023-09-10T00:00:00	2024-11-08T05:00:00	5	Humedad	88
122005	7	Sololá	704	Santa Lucía Utatlán 	7	Santa Rita 	10	Octubre	2023-09-10T00:00:00	2024-11-08T05:00:00	6	Velocidad del viento	3.2
122006	7	Sololá	704	Santa Lucía Utatlán 	7	Santa Rita 	10	Octubre	2023-09-10T00:00:00	2024-11-08T05:00:00	7	Dirección del viento	3.22
122007	7	Sololá	704	Santa Lucía Utatlán 	7	Santa Rita 	10	Octubre	2023-09-10T00:00:00	2024-11-08T05:00:00	1	Precipitación	0
122008	7	Sololá	704	Santa Lucía Utatlán 	7	Santa Rita 	10	Octubre	2023-09-10T00:00:00	2024-11-08T05:00:00	8	Radiación solar	0
122009	7	Sololá	704	Santa Lucía Utatlán 	7	Santa Rita 	10	Octubre	2023-09-10T00:00:00	2024-11-08T06:00:00	2	Temperatura media	24.9
122010	7	Sololá	704	Santa Lucía Utatlán 	7	Santa Rita 	10	Octubre	2023-09-10T00:00:00	2024-11-08T06:00:00	4	Temperatura máxima	24.9
122011	7	Sololá	704	Santa Lucía Utatlán 	7	Santa Rita 	10	Octubre	2023-09-10T00:00:00	2024-11-08T06:00:00	3	Temperatura mínima	22.5
122012	7	Sololá	704	Santa Lucía Utatlán 	7	Santa Rita 	10	Octubre	2023-09-10T00:00:00	2024-11-08T06:00:00	5	Humedad	78
122013	7	Sololá	704	Santa Lucía Utatlán 	7	Santa Rita 	10	Octubre	2023-09-10T00:00:00	2024-11-08T06:00:00	6	Velocidad del viento	3.2
122014	7	Sololá	704	Santa Lucía Utatlán 	7	Santa Rita 	10	Octubre	2023-09-10T00:00:00	2024-11-08T06:00:00	7	Dirección del viento	3.22
122015	7	Sololá	704	Santa Lucía Utatlán 	7	Santa Rita 	10	Octubre	2023-09-10T00:00:00	2024-11-08T06:00:00	1	Precipitación	0
122016	7	Sololá	704	Santa Lucía Utatlán 	7	Santa Rita 	10	Octubre	2023-09-10T00:00:00	2024-11-08T06:00:00	8	Radiación solar	3
122017	7	Sololá	704	Santa Lucía Utatlán 	7	Santa Rita 	10	Octubre	2023-09-10T00:00:00	2024-11-08T07:00:00	2	Temperatura media	26.7
122018	7	Sololá	704	Santa Lucía Utatlán 	7	Santa Rita 	10	Octubre	2023-09-10T00:00:00	2024-11-08T07:00:00	4	Temperatura máxima	26.8
122019	7	Sololá	704	Santa Lucía Utatlán 	7	Santa Rita 	10	Octubre	2023-09-10T00:00:00	2024-11-08T07:00:00	3	Temperatura mínima	24.9
122020	7	Sololá	704	Santa Lucía Utatlán 	7	Santa Rita 	10	Octubre	2023-09-10T00:00:00	2024-11-08T07:00:00	5	Humedad	58
122021	7	Sololá	704	Santa Lucía Utatlán 	7	Santa Rita 	10	Octubre	2023-09-10T00:00:00	2024-11-08T07:00:00	6	Velocidad del viento	4.8
122022	7	Sololá	704	Santa Lucía Utatlán 	7	Santa Rita 	10	Octubre	2023-09-10T00:00:00	2024-11-08T07:00:00	7	Dirección del viento	4.83
122023	7	Sololá	704	Santa Lucía Utatlán 	7	Santa Rita 	10	Octubre	2023-09-10T00:00:00	2024-11-08T07:00:00	1	Precipitación	0
122024	7	Sololá	704	Santa Lucía Utatlán 	7	Santa Rita 	10	Octubre	2023-09-10T00:00:00	2024-11-08T07:00:00	8	Radiación solar	42
122025	7	Sololá	704	Santa Lucía Utatlán 	7	Santa Rita 	10	Octubre	2023-09-10T00:00:00	2024-11-08T08:00:00	2	Temperatura media	26.4
122026	7	Sololá	704	Santa Lucía Utatlán 	7	Santa Rita 	10	Octubre	2023-09-10T00:00:00	2024-11-08T08:00:00	4	Temperatura máxima	26.8
122027	7	Sololá	704	Santa Lucía Utatlán 	7	Santa Rita 	10	Octubre	2023-09-10T00:00:00	2024-11-08T08:00:00	3	Temperatura mínima	25.9
122028	7	Sololá	704	Santa Lucía Utatlán 	7	Santa Rita 	10	Octubre	2023-09-10T00:00:00	2024-11-08T08:00:00	5	Humedad	72
122029	7	Sololá	704	Santa Lucía Utatlán 	7	Santa Rita 	10	Octubre	2023-09-10T00:00:00	2024-11-08T08:00:00	6	Velocidad del viento	8
122030	7	Sololá	704	Santa Lucía Utatlán 	7	Santa Rita 	10	Octubre	2023-09-10T00:00:00	2024-11-08T08:00:00	7	Dirección del viento	8.05
122031	7	Sololá	704	Santa Lucía Utatlán 	7	Santa Rita 	10	Octubre	2023-09-10T00:00:00	2024-11-08T08:00:00	1	Precipitación	0
122032	7	Sololá	704	Santa Lucía Utatlán 	7	Santa Rita 	10	Octubre	2023-09-10T00:00:00	2024-11-08T08:00:00	8	Radiación solar	190
122033	7	Sololá	704	Santa Lucía Utatlán 	7	Santa Rita 	10	Octubre	2023-09-10T00:00:00	2024-11-08T09:00:00	2	Temperatura media	22.2
122034	7	Sololá	704	Santa Lucía Utatlán 	7	Santa Rita 	10	Octubre	2023-09-10T00:00:00	2024-11-08T09:00:00	4	Temperatura máxima	26.4
122035	7	Sololá	704	Santa Lucía Utatlán 	7	Santa Rita 	10	Octubre	2023-09-10T00:00:00	2024-11-08T09:00:00	3	Temperatura mínima	22.2
122036	7	Sololá	704	Santa Lucía Utatlán 	7	Santa Rita 	10	Octubre	2023-09-10T00:00:00	2024-11-08T09:00:00	5	Humedad	90
122037	7	Sololá	704	Santa Lucía Utatlán 	7	Santa Rita 	10	Octubre	2023-09-10T00:00:00	2024-11-08T09:00:00	6	Velocidad del viento	9.7
122038	7	Sololá	704	Santa Lucía Utatlán 	7	Santa Rita 	10	Octubre	2023-09-10T00:00:00	2024-11-08T09:00:00	7	Dirección del viento	9.66
122039	7	Sololá	704	Santa Lucía Utatlán 	7	Santa Rita 	10	Octubre	2023-09-10T00:00:00	2024-11-08T09:00:00	1	Precipitación	0
122040	7	Sololá	704	Santa Lucía Utatlán 	7	Santa Rita 	10	Octubre	2023-09-10T00:00:00	2024-11-08T09:00:00	8	Radiación solar	399
122041	7	Sololá	704	Santa Lucía Utatlán 	7	Santa Rita 	10	Octubre	2023-09-10T00:00:00	2024-11-08T10:00:00	2	Temperatura media	20.6
122042	7	Sololá	704	Santa Lucía Utatlán 	7	Santa Rita 	10	Octubre	2023-09-10T00:00:00	2024-11-08T10:00:00	4	Temperatura máxima	22.2
122043	7	Sololá	704	Santa Lucía Utatlán 	7	Santa Rita 	10	Octubre	2023-09-10T00:00:00	2024-11-08T10:00:00	3	Temperatura mínima	20.4
122044	7	Sololá	704	Santa Lucía Utatlán 	7	Santa Rita 	10	Octubre	2023-09-10T00:00:00	2024-11-08T10:00:00	5	Humedad	95
122045	7	Sololá	704	Santa Lucía Utatlán 	7	Santa Rita 	10	Octubre	2023-09-10T00:00:00	2024-11-08T10:00:00	6	Velocidad del viento	4.8
122046	7	Sololá	704	Santa Lucía Utatlán 	7	Santa Rita 	10	Octubre	2023-09-10T00:00:00	2024-11-08T10:00:00	7	Dirección del viento	4.83
122047	7	Sololá	704	Santa Lucía Utatlán 	7	Santa Rita 	10	Octubre	2023-09-10T00:00:00	2024-11-08T10:00:00	1	Precipitación	10.2
122048	7	Sololá	704	Santa Lucía Utatlán 	7	Santa Rita 	10	Octubre	2023-09-10T00:00:00	2024-11-08T10:00:00	8	Radiación solar	609
122049	7	Sololá	704	Santa Lucía Utatlán 	7	Santa Rita 	10	Octubre	2023-09-10T00:00:00	2024-11-08T11:00:00	2	Temperatura media	26.3
122050	7	Sololá	704	Santa Lucía Utatlán 	7	Santa Rita 	10	Octubre	2023-09-10T00:00:00	2024-11-08T11:00:00	4	Temperatura máxima	26.7
122051	7	Sololá	704	Santa Lucía Utatlán 	7	Santa Rita 	10	Octubre	2023-09-10T00:00:00	2024-11-08T11:00:00	3	Temperatura mínima	25.8
122052	7	Sololá	704	Santa Lucía Utatlán 	7	Santa Rita 	10	Octubre	2023-09-10T00:00:00	2024-11-08T11:00:00	5	Humedad	60
122053	7	Sololá	704	Santa Lucía Utatlán 	7	Santa Rita 	10	Octubre	2023-09-10T00:00:00	2024-11-08T11:00:00	6	Velocidad del viento	8
122054	7	Sololá	704	Santa Lucía Utatlán 	7	Santa Rita 	10	Octubre	2023-09-10T00:00:00	2024-11-08T11:00:00	7	Dirección del viento	8.05
122055	7	Sololá	704	Santa Lucía Utatlán 	7	Santa Rita 	10	Octubre	2023-09-10T00:00:00	2024-11-08T11:00:00	1	Precipitación	0
122056	7	Sololá	704	Santa Lucía Utatlán 	7	Santa Rita 	10	Octubre	2023-09-10T00:00:00	2024-11-08T11:00:00	8	Radiación solar	844
122057	7	Sololá	704	Santa Lucía Utatlán 	7	Santa Rita 	10	Octubre	2023-09-10T00:00:00	2024-11-08T12:00:00	2	Temperatura media	26.6
122058	7	Sololá	704	Santa Lucía Utatlán 	7	Santa Rita 	10	Octubre	2023-09-10T00:00:00	2024-11-08T12:00:00	4	Temperatura máxima	26.6
122059	7	Sololá	704	Santa Lucía Utatlán 	7	Santa Rita 	10	Octubre	2023-09-10T00:00:00	2024-11-08T12:00:00	3	Temperatura mínima	25.3
122060	7	Sololá	704	Santa Lucía Utatlán 	7	Santa Rita 	10	Octubre	2023-09-10T00:00:00	2024-11-08T12:00:00	5	Humedad	61
122061	7	Sololá	704	Santa Lucía Utatlán 	7	Santa Rita 	10	Octubre	2023-09-10T00:00:00	2024-11-08T12:00:00	6	Velocidad del viento	8
122062	7	Sololá	704	Santa Lucía Utatlán 	7	Santa Rita 	10	Octubre	2023-09-10T00:00:00	2024-11-08T12:00:00	7	Dirección del viento	8.05
122063	7	Sololá	704	Santa Lucía Utatlán 	7	Santa Rita 	10	Octubre	2023-09-10T00:00:00	2024-11-08T12:00:00	1	Precipitación	0
122064	7	Sololá	704	Santa Lucía Utatlán 	7	Santa Rita 	10	Octubre	2023-09-10T00:00:00	2024-11-08T12:00:00	8	Radiación solar	1037
122065	7	Sololá	704	Santa Lucía Utatlán 	7	Santa Rita 	10	Octubre	2023-09-10T00:00:00	2024-11-08T13:00:00	2	Temperatura media	25.2
122066	7	Sololá	704	Santa Lucía Utatlán 	7	Santa Rita 	10	Octubre	2023-09-10T00:00:00	2024-11-08T13:00:00	4	Temperatura máxima	27.2
122067	7	Sololá	704	Santa Lucía Utatlán 	7	Santa Rita 	10	Octubre	2023-09-10T00:00:00	2024-11-08T13:00:00	3	Temperatura mínima	25.2
122068	7	Sololá	704	Santa Lucía Utatlán 	7	Santa Rita 	10	Octubre	2023-09-10T00:00:00	2024-11-08T13:00:00	5	Humedad	71
122069	7	Sololá	704	Santa Lucía Utatlán 	7	Santa Rita 	10	Octubre	2023-09-10T00:00:00	2024-11-08T13:00:00	6	Velocidad del viento	8
122070	7	Sololá	704	Santa Lucía Utatlán 	7	Santa Rita 	10	Octubre	2023-09-10T00:00:00	2024-11-08T13:00:00	7	Dirección del viento	8.05
122071	7	Sololá	704	Santa Lucía Utatlán 	7	Santa Rita 	10	Octubre	2023-09-10T00:00:00	2024-11-08T13:00:00	1	Precipitación	0
122072	7	Sololá	704	Santa Lucía Utatlán 	7	Santa Rita 	10	Octubre	2023-09-10T00:00:00	2024-11-08T13:00:00	8	Radiación solar	482
122073	7	Sololá	704	Santa Lucía Utatlán 	7	Santa Rita 	10	Octubre	2023-09-10T00:00:00	2024-11-08T14:00:00	2	Temperatura media	19.9
122074	7	Sololá	704	Santa Lucía Utatlán 	7	Santa Rita 	10	Octubre	2023-09-10T00:00:00	2024-11-08T14:00:00	4	Temperatura máxima	20.1
122075	7	Sololá	704	Santa Lucía Utatlán 	7	Santa Rita 	10	Octubre	2023-09-10T00:00:00	2024-11-08T14:00:00	3	Temperatura mínima	19.9
122076	7	Sololá	704	Santa Lucía Utatlán 	7	Santa Rita 	10	Octubre	2023-09-10T00:00:00	2024-11-08T14:00:00	5	Humedad	97
122077	7	Sololá	704	Santa Lucía Utatlán 	7	Santa Rita 	10	Octubre	2023-09-10T00:00:00	2024-11-08T14:00:00	6	Velocidad del viento	1.6
122078	7	Sololá	704	Santa Lucía Utatlán 	7	Santa Rita 	10	Octubre	2023-09-10T00:00:00	2024-11-08T14:00:00	7	Dirección del viento	1.61
122079	7	Sololá	704	Santa Lucía Utatlán 	7	Santa Rita 	10	Octubre	2023-09-10T00:00:00	2024-11-08T14:00:00	1	Precipitación	0
122080	7	Sololá	704	Santa Lucía Utatlán 	7	Santa Rita 	10	Octubre	2023-09-10T00:00:00	2024-11-08T14:00:00	8	Radiación solar	22
122081	7	Sololá	704	Santa Lucía Utatlán 	7	Santa Rita 	10	Octubre	2023-09-10T00:00:00	2024-11-08T15:00:00	2	Temperatura media	19.6
122082	7	Sololá	704	Santa Lucía Utatlán 	7	Santa Rita 	10	Octubre	2023-09-10T00:00:00	2024-11-08T15:00:00	4	Temperatura máxima	20.1
122083	7	Sololá	704	Santa Lucía Utatlán 	7	Santa Rita 	10	Octubre	2023-09-10T00:00:00	2024-11-08T15:00:00	3	Temperatura mínima	19.6
122084	7	Sololá	704	Santa Lucía Utatlán 	7	Santa Rita 	10	Octubre	2023-09-10T00:00:00	2024-11-08T15:00:00	5	Humedad	95
122085	7	Sololá	704	Santa Lucía Utatlán 	7	Santa Rita 	10	Octubre	2023-09-10T00:00:00	2024-11-08T15:00:00	6	Velocidad del viento	1.6
122086	7	Sololá	704	Santa Lucía Utatlán 	7	Santa Rita 	10	Octubre	2023-09-10T00:00:00	2024-11-08T15:00:00	7	Dirección del viento	1.61
122087	7	Sololá	704	Santa Lucía Utatlán 	7	Santa Rita 	10	Octubre	2023-09-10T00:00:00	2024-11-08T15:00:00	1	Precipitación	0
122088	7	Sololá	704	Santa Lucía Utatlán 	7	Santa Rita 	10	Octubre	2023-09-10T00:00:00	2024-11-08T15:00:00	8	Radiación solar	1065
122089	7	Sololá	704	Santa Lucía Utatlán 	7	Santa Rita 	10	Octubre	2023-09-10T00:00:00	2024-11-08T16:00:00	2	Temperatura media	18.9
122090	7	Sololá	704	Santa Lucía Utatlán 	7	Santa Rita 	10	Octubre	2023-09-10T00:00:00	2024-11-08T16:00:00	4	Temperatura máxima	19.6
122091	7	Sololá	704	Santa Lucía Utatlán 	7	Santa Rita 	10	Octubre	2023-09-10T00:00:00	2024-11-08T16:00:00	3	Temperatura mínima	18.8
122092	7	Sololá	704	Santa Lucía Utatlán 	7	Santa Rita 	10	Octubre	2023-09-10T00:00:00	2024-11-08T16:00:00	5	Humedad	96
122093	7	Sololá	704	Santa Lucía Utatlán 	7	Santa Rita 	10	Octubre	2023-09-10T00:00:00	2024-11-08T16:00:00	6	Velocidad del viento	1.6
122094	7	Sololá	704	Santa Lucía Utatlán 	7	Santa Rita 	10	Octubre	2023-09-10T00:00:00	2024-11-08T16:00:00	7	Dirección del viento	1.61
122095	7	Sololá	704	Santa Lucía Utatlán 	7	Santa Rita 	10	Octubre	2023-09-10T00:00:00	2024-11-08T16:00:00	1	Precipitación	0
122096	7	Sololá	704	Santa Lucía Utatlán 	7	Santa Rita 	10	Octubre	2023-09-10T00:00:00	2024-11-08T16:00:00	8	Radiación solar	911
122097	7	Sololá	704	Santa Lucía Utatlán 	7	Santa Rita 	10	Octubre	2023-09-10T00:00:00	2024-11-08T17:00:00	2	Temperatura media	19
122098	7	Sololá	704	Santa Lucía Utatlán 	7	Santa Rita 	10	Octubre	2023-09-10T00:00:00	2024-11-08T17:00:00	4	Temperatura máxima	19
122099	7	Sololá	704	Santa Lucía Utatlán 	7	Santa Rita 	10	Octubre	2023-09-10T00:00:00	2024-11-08T17:00:00	3	Temperatura mínima	18.7
122100	7	Sololá	704	Santa Lucía Utatlán 	7	Santa Rita 	10	Octubre	2023-09-10T00:00:00	2024-11-08T17:00:00	5	Humedad	97
122101	7	Sololá	704	Santa Lucía Utatlán 	7	Santa Rita 	10	Octubre	2023-09-10T00:00:00	2024-11-08T17:00:00	6	Velocidad del viento	1.6
122102	7	Sololá	704	Santa Lucía Utatlán 	7	Santa Rita 	10	Octubre	2023-09-10T00:00:00	2024-11-08T17:00:00	7	Dirección del viento	1.61
122103	7	Sololá	704	Santa Lucía Utatlán 	7	Santa Rita 	10	Octubre	2023-09-10T00:00:00	2024-11-08T17:00:00	1	Precipitación	0
122104	7	Sololá	704	Santa Lucía Utatlán 	7	Santa Rita 	10	Octubre	2023-09-10T00:00:00	2024-11-08T17:00:00	8	Radiación solar	503
122105	7	Sololá	704	Santa Lucía Utatlán 	7	Santa Rita 	10	Octubre	2023-09-10T00:00:00	2024-11-08T18:00:00	2	Temperatura media	19.2
122106	7	Sololá	704	Santa Lucía Utatlán 	7	Santa Rita 	10	Octubre	2023-09-10T00:00:00	2024-11-08T18:00:00	4	Temperatura máxima	19.3
122107	7	Sololá	704	Santa Lucía Utatlán 	7	Santa Rita 	10	Octubre	2023-09-10T00:00:00	2024-11-08T18:00:00	3	Temperatura mínima	19
122108	7	Sololá	704	Santa Lucía Utatlán 	7	Santa Rita 	10	Octubre	2023-09-10T00:00:00	2024-11-08T18:00:00	5	Humedad	97
122109	7	Sololá	704	Santa Lucía Utatlán 	7	Santa Rita 	10	Octubre	2023-09-10T00:00:00	2024-11-08T18:00:00	6	Velocidad del viento	1.6
122110	7	Sololá	704	Santa Lucía Utatlán 	7	Santa Rita 	10	Octubre	2023-09-10T00:00:00	2024-11-08T18:00:00	7	Dirección del viento	1.61
122111	7	Sololá	704	Santa Lucía Utatlán 	7	Santa Rita 	10	Octubre	2023-09-10T00:00:00	2024-11-08T18:00:00	1	Precipitación	0
122112	7	Sololá	704	Santa Lucía Utatlán 	7	Santa Rita 	10	Octubre	2023-09-10T00:00:00	2024-11-08T18:00:00	8	Radiación solar	0
122113	7	Sololá	704	Santa Lucía Utatlán 	7	Santa Rita 	10	Octubre	2023-09-10T00:00:00	2024-11-08T19:00:00	2	Temperatura media	19
122114	7	Sololá	704	Santa Lucía Utatlán 	7	Santa Rita 	10	Octubre	2023-09-10T00:00:00	2024-11-08T19:00:00	4	Temperatura máxima	19.2
122115	7	Sololá	704	Santa Lucía Utatlán 	7	Santa Rita 	10	Octubre	2023-09-10T00:00:00	2024-11-08T19:00:00	3	Temperatura mínima	18.9
122116	7	Sololá	704	Santa Lucía Utatlán 	7	Santa Rita 	10	Octubre	2023-09-10T00:00:00	2024-11-08T19:00:00	5	Humedad	97
122117	7	Sololá	704	Santa Lucía Utatlán 	7	Santa Rita 	10	Octubre	2023-09-10T00:00:00	2024-11-08T19:00:00	6	Velocidad del viento	0
122118	7	Sololá	704	Santa Lucía Utatlán 	7	Santa Rita 	10	Octubre	2023-09-10T00:00:00	2024-11-08T19:00:00	7	Dirección del viento	0
122119	7	Sololá	704	Santa Lucía Utatlán 	7	Santa Rita 	10	Octubre	2023-09-10T00:00:00	2024-11-08T19:00:00	1	Precipitación	0
122120	7	Sololá	704	Santa Lucía Utatlán 	7	Santa Rita 	10	Octubre	2023-09-10T00:00:00	2024-11-08T19:00:00	8	Radiación solar	0
122121	7	Sololá	704	Santa Lucía Utatlán 	7	Santa Rita 	10	Octubre	2023-09-10T00:00:00	2024-11-08T20:00:00	2	Temperatura media	19
122122	7	Sololá	704	Santa Lucía Utatlán 	7	Santa Rita 	10	Octubre	2023-09-10T00:00:00	2024-11-08T20:00:00	4	Temperatura máxima	19.2
122123	7	Sololá	704	Santa Lucía Utatlán 	7	Santa Rita 	10	Octubre	2023-09-10T00:00:00	2024-11-08T20:00:00	3	Temperatura mínima	18.9
122124	7	Sololá	704	Santa Lucía Utatlán 	7	Santa Rita 	10	Octubre	2023-09-10T00:00:00	2024-11-08T20:00:00	5	Humedad	97
122125	7	Sololá	704	Santa Lucía Utatlán 	7	Santa Rita 	10	Octubre	2023-09-10T00:00:00	2024-11-08T20:00:00	6	Velocidad del viento	0
122126	7	Sololá	704	Santa Lucía Utatlán 	7	Santa Rita 	10	Octubre	2023-09-10T00:00:00	2024-11-08T20:00:00	7	Dirección del viento	0
122127	7	Sololá	704	Santa Lucía Utatlán 	7	Santa Rita 	10	Octubre	2023-09-10T00:00:00	2024-11-08T20:00:00	1	Precipitación	0
122128	7	Sololá	704	Santa Lucía Utatlán 	7	Santa Rita 	10	Octubre	2023-09-10T00:00:00	2024-11-08T20:00:00	8	Radiación solar	0
122129	7	Sololá	704	Santa Lucía Utatlán 	7	Santa Rita 	10	Octubre	2023-09-10T00:00:00	2024-11-08T21:00:00	2	Temperatura media	18
122130	7	Sololá	704	Santa Lucía Utatlán 	7	Santa Rita 	10	Octubre	2023-09-10T00:00:00	2024-11-08T21:00:00	4	Temperatura máxima	19
122131	7	Sololá	704	Santa Lucía Utatlán 	7	Santa Rita 	10	Octubre	2023-09-10T00:00:00	2024-11-08T21:00:00	3	Temperatura mínima	18
122132	7	Sololá	704	Santa Lucía Utatlán 	7	Santa Rita 	10	Octubre	2023-09-10T00:00:00	2024-11-08T21:00:00	5	Humedad	96
122133	7	Sololá	704	Santa Lucía Utatlán 	7	Santa Rita 	10	Octubre	2023-09-10T00:00:00	2024-11-08T21:00:00	6	Velocidad del viento	1.6
122134	7	Sololá	704	Santa Lucía Utatlán 	7	Santa Rita 	10	Octubre	2023-09-10T00:00:00	2024-11-08T21:00:00	7	Dirección del viento	1.61
122135	7	Sololá	704	Santa Lucía Utatlán 	7	Santa Rita 	10	Octubre	2023-09-10T00:00:00	2024-11-08T21:00:00	1	Precipitación	0
122136	7	Sololá	704	Santa Lucía Utatlán 	7	Santa Rita 	10	Octubre	2023-09-10T00:00:00	2024-11-08T21:00:00	8	Radiación solar	0
122137	7	Sololá	704	Santa Lucía Utatlán 	7	Santa Rita 	10	Octubre	2023-09-10T00:00:00	2024-11-08T22:00:00	2	Temperatura media	17.7
122138	7	Sololá	704	Santa Lucía Utatlán 	7	Santa Rita 	10	Octubre	2023-09-10T00:00:00	2024-11-08T22:00:00	4	Temperatura máxima	18.1
122139	7	Sololá	704	Santa Lucía Utatlán 	7	Santa Rita 	10	Octubre	2023-09-10T00:00:00	2024-11-08T22:00:00	3	Temperatura mínima	17.6
122140	7	Sololá	704	Santa Lucía Utatlán 	7	Santa Rita 	10	Octubre	2023-09-10T00:00:00	2024-11-08T22:00:00	5	Humedad	96
122141	7	Sololá	704	Santa Lucía Utatlán 	7	Santa Rita 	10	Octubre	2023-09-10T00:00:00	2024-11-08T22:00:00	6	Velocidad del viento	3.2
122142	7	Sololá	704	Santa Lucía Utatlán 	7	Santa Rita 	10	Octubre	2023-09-10T00:00:00	2024-11-08T22:00:00	7	Dirección del viento	3.22
122143	7	Sololá	704	Santa Lucía Utatlán 	7	Santa Rita 	10	Octubre	2023-09-10T00:00:00	2024-11-08T22:00:00	1	Precipitación	0
122144	7	Sololá	704	Santa Lucía Utatlán 	7	Santa Rita 	10	Octubre	2023-09-10T00:00:00	2024-11-08T22:00:00	8	Radiación solar	0
122145	7	Sololá	704	Santa Lucía Utatlán 	7	Santa Rita 	10	Octubre	2023-09-10T00:00:00	2024-11-08T23:00:00	2	Temperatura media	17.9
122146	7	Sololá	704	Santa Lucía Utatlán 	7	Santa Rita 	10	Octubre	2023-09-10T00:00:00	2024-11-08T23:00:00	4	Temperatura máxima	17.9
122147	7	Sololá	704	Santa Lucía Utatlán 	7	Santa Rita 	10	Octubre	2023-09-10T00:00:00	2024-11-08T23:00:00	3	Temperatura mínima	17.6
122148	7	Sololá	704	Santa Lucía Utatlán 	7	Santa Rita 	10	Octubre	2023-09-10T00:00:00	2024-11-08T23:00:00	5	Humedad	95
122149	7	Sololá	704	Santa Lucía Utatlán 	7	Santa Rita 	10	Octubre	2023-09-10T00:00:00	2024-11-08T23:00:00	6	Velocidad del viento	3.2
122150	7	Sololá	704	Santa Lucía Utatlán 	7	Santa Rita 	10	Octubre	2023-09-10T00:00:00	2024-11-08T23:00:00	7	Dirección del viento	3.22
122151	7	Sololá	704	Santa Lucía Utatlán 	7	Santa Rita 	10	Octubre	2023-09-10T00:00:00	2024-11-08T23:00:00	1	Precipitación	0.2
122152	7	Sololá	704	Santa Lucía Utatlán 	7	Santa Rita 	10	Octubre	2023-09-10T00:00:00	2024-11-08T23:00:00	8	Radiación solar	0
122153	7	Sololá	704	Santa Lucía Utatlán 	7	Santa Rita 	10	Octubre	2023-10-10T00:00:00	2024-11-08T00:00:00	2	Temperatura media	17.9
122154	7	Sololá	704	Santa Lucía Utatlán 	7	Santa Rita 	10	Octubre	2023-10-10T00:00:00	2024-11-08T00:00:00	4	Temperatura máxima	18
122155	7	Sololá	704	Santa Lucía Utatlán 	7	Santa Rita 	10	Octubre	2023-10-10T00:00:00	2024-11-08T00:00:00	3	Temperatura mínima	17.6
122156	7	Sololá	704	Santa Lucía Utatlán 	7	Santa Rita 	10	Octubre	2023-10-10T00:00:00	2024-11-08T00:00:00	5	Humedad	96
122157	7	Sololá	704	Santa Lucía Utatlán 	7	Santa Rita 	10	Octubre	2023-10-10T00:00:00	2024-11-08T00:00:00	6	Velocidad del viento	1.6
122158	7	Sololá	704	Santa Lucía Utatlán 	7	Santa Rita 	10	Octubre	2023-10-10T00:00:00	2024-11-08T00:00:00	7	Dirección del viento	1.61
122159	7	Sololá	704	Santa Lucía Utatlán 	7	Santa Rita 	10	Octubre	2023-10-10T00:00:00	2024-11-08T00:00:00	1	Precipitación	0
122160	7	Sololá	704	Santa Lucía Utatlán 	7	Santa Rita 	10	Octubre	2023-10-10T00:00:00	2024-11-08T00:00:00	8	Radiación solar	0
122161	7	Sololá	704	Santa Lucía Utatlán 	7	Santa Rita 	10	Octubre	2023-10-10T00:00:00	2024-11-08T01:00:00	2	Temperatura media	17.6
122162	7	Sololá	704	Santa Lucía Utatlán 	7	Santa Rita 	10	Octubre	2023-10-10T00:00:00	2024-11-08T01:00:00	4	Temperatura máxima	17.9
122163	7	Sololá	704	Santa Lucía Utatlán 	7	Santa Rita 	10	Octubre	2023-10-10T00:00:00	2024-11-08T01:00:00	3	Temperatura mínima	17.5
122164	7	Sololá	704	Santa Lucía Utatlán 	7	Santa Rita 	10	Octubre	2023-10-10T00:00:00	2024-11-08T01:00:00	5	Humedad	96
122165	7	Sololá	704	Santa Lucía Utatlán 	7	Santa Rita 	10	Octubre	2023-10-10T00:00:00	2024-11-08T01:00:00	6	Velocidad del viento	1.6
122166	7	Sololá	704	Santa Lucía Utatlán 	7	Santa Rita 	10	Octubre	2023-10-10T00:00:00	2024-11-08T01:00:00	7	Dirección del viento	1.61
122167	7	Sololá	704	Santa Lucía Utatlán 	7	Santa Rita 	10	Octubre	2023-10-10T00:00:00	2024-11-08T01:00:00	1	Precipitación	0
122168	7	Sololá	704	Santa Lucía Utatlán 	7	Santa Rita 	10	Octubre	2023-10-10T00:00:00	2024-11-08T01:00:00	8	Radiación solar	0
122169	7	Sololá	704	Santa Lucía Utatlán 	7	Santa Rita 	10	Octubre	2023-10-10T00:00:00	2024-11-08T02:00:00	2	Temperatura media	19.2
122170	7	Sololá	704	Santa Lucía Utatlán 	7	Santa Rita 	10	Octubre	2023-10-10T00:00:00	2024-11-08T02:00:00	4	Temperatura máxima	19.2
122171	7	Sololá	704	Santa Lucía Utatlán 	7	Santa Rita 	10	Octubre	2023-10-10T00:00:00	2024-11-08T02:00:00	3	Temperatura mínima	17.6
122172	7	Sololá	704	Santa Lucía Utatlán 	7	Santa Rita 	10	Octubre	2023-10-10T00:00:00	2024-11-08T02:00:00	5	Humedad	94
122173	7	Sololá	704	Santa Lucía Utatlán 	7	Santa Rita 	10	Octubre	2023-10-10T00:00:00	2024-11-08T02:00:00	6	Velocidad del viento	0
122174	7	Sololá	704	Santa Lucía Utatlán 	7	Santa Rita 	10	Octubre	2023-10-10T00:00:00	2024-11-08T02:00:00	7	Dirección del viento	0
122175	7	Sololá	704	Santa Lucía Utatlán 	7	Santa Rita 	10	Octubre	2023-10-10T00:00:00	2024-11-08T02:00:00	1	Precipitación	0
122176	7	Sololá	704	Santa Lucía Utatlán 	7	Santa Rita 	10	Octubre	2023-10-10T00:00:00	2024-11-08T02:00:00	8	Radiación solar	0
122177	7	Sololá	704	Santa Lucía Utatlán 	7	Santa Rita 	10	Octubre	2023-10-10T00:00:00	2024-11-08T03:00:00	2	Temperatura media	21.4
122178	7	Sololá	704	Santa Lucía Utatlán 	7	Santa Rita 	10	Octubre	2023-10-10T00:00:00	2024-11-08T03:00:00	4	Temperatura máxima	21.4
122179	7	Sololá	704	Santa Lucía Utatlán 	7	Santa Rita 	10	Octubre	2023-10-10T00:00:00	2024-11-08T03:00:00	3	Temperatura mínima	19.2
122180	7	Sololá	704	Santa Lucía Utatlán 	7	Santa Rita 	10	Octubre	2023-10-10T00:00:00	2024-11-08T03:00:00	5	Humedad	89
122181	7	Sololá	704	Santa Lucía Utatlán 	7	Santa Rita 	10	Octubre	2023-10-10T00:00:00	2024-11-08T03:00:00	6	Velocidad del viento	1.6
122182	7	Sololá	704	Santa Lucía Utatlán 	7	Santa Rita 	10	Octubre	2023-10-10T00:00:00	2024-11-08T03:00:00	7	Dirección del viento	1.61
122183	7	Sololá	704	Santa Lucía Utatlán 	7	Santa Rita 	10	Octubre	2023-10-10T00:00:00	2024-11-08T03:00:00	1	Precipitación	0
122184	7	Sololá	704	Santa Lucía Utatlán 	7	Santa Rita 	10	Octubre	2023-10-10T00:00:00	2024-11-08T03:00:00	8	Radiación solar	0
122185	7	Sololá	704	Santa Lucía Utatlán 	7	Santa Rita 	10	Octubre	2023-10-10T00:00:00	2024-11-08T04:00:00	2	Temperatura media	24.4
122186	7	Sololá	704	Santa Lucía Utatlán 	7	Santa Rita 	10	Octubre	2023-10-10T00:00:00	2024-11-08T04:00:00	4	Temperatura máxima	24.4
122187	7	Sololá	704	Santa Lucía Utatlán 	7	Santa Rita 	10	Octubre	2023-10-10T00:00:00	2024-11-08T04:00:00	3	Temperatura mínima	21.4
122188	7	Sololá	704	Santa Lucía Utatlán 	7	Santa Rita 	10	Octubre	2023-10-10T00:00:00	2024-11-08T04:00:00	5	Humedad	79
122189	7	Sololá	704	Santa Lucía Utatlán 	7	Santa Rita 	10	Octubre	2023-10-10T00:00:00	2024-11-08T04:00:00	6	Velocidad del viento	3.2
122190	7	Sololá	704	Santa Lucía Utatlán 	7	Santa Rita 	10	Octubre	2023-10-10T00:00:00	2024-11-08T04:00:00	7	Dirección del viento	3.22
122191	7	Sololá	704	Santa Lucía Utatlán 	7	Santa Rita 	10	Octubre	2023-10-10T00:00:00	2024-11-08T04:00:00	1	Precipitación	0
122192	7	Sololá	704	Santa Lucía Utatlán 	7	Santa Rita 	10	Octubre	2023-10-10T00:00:00	2024-11-08T04:00:00	8	Radiación solar	0
122193	7	Sololá	704	Santa Lucía Utatlán 	7	Santa Rita 	10	Octubre	2023-10-10T00:00:00	2024-11-08T05:00:00	2	Temperatura media	24.1
122194	7	Sololá	704	Santa Lucía Utatlán 	7	Santa Rita 	10	Octubre	2023-10-10T00:00:00	2024-11-08T05:00:00	4	Temperatura máxima	25.3
122195	7	Sololá	704	Santa Lucía Utatlán 	7	Santa Rita 	10	Octubre	2023-10-10T00:00:00	2024-11-08T05:00:00	3	Temperatura mínima	24.1
122196	7	Sololá	704	Santa Lucía Utatlán 	7	Santa Rita 	10	Octubre	2023-10-10T00:00:00	2024-11-08T05:00:00	5	Humedad	81
122197	7	Sololá	704	Santa Lucía Utatlán 	7	Santa Rita 	10	Octubre	2023-10-10T00:00:00	2024-11-08T05:00:00	6	Velocidad del viento	6.4
122198	7	Sololá	704	Santa Lucía Utatlán 	7	Santa Rita 	10	Octubre	2023-10-10T00:00:00	2024-11-08T05:00:00	7	Dirección del viento	6.44
122199	7	Sololá	704	Santa Lucía Utatlán 	7	Santa Rita 	10	Octubre	2023-10-10T00:00:00	2024-11-08T05:00:00	1	Precipitación	0
122200	7	Sololá	704	Santa Lucía Utatlán 	7	Santa Rita 	10	Octubre	2023-10-10T00:00:00	2024-11-08T05:00:00	8	Radiación solar	0
122201	7	Sololá	704	Santa Lucía Utatlán 	7	Santa Rita 	10	Octubre	2023-10-10T00:00:00	2024-11-08T06:00:00	2	Temperatura media	24.2
122202	7	Sololá	704	Santa Lucía Utatlán 	7	Santa Rita 	10	Octubre	2023-10-10T00:00:00	2024-11-08T06:00:00	4	Temperatura máxima	25.8
122203	7	Sololá	704	Santa Lucía Utatlán 	7	Santa Rita 	10	Octubre	2023-10-10T00:00:00	2024-11-08T06:00:00	3	Temperatura mínima	24
122204	7	Sololá	704	Santa Lucía Utatlán 	7	Santa Rita 	10	Octubre	2023-10-10T00:00:00	2024-11-08T06:00:00	5	Humedad	78
122205	7	Sololá	704	Santa Lucía Utatlán 	7	Santa Rita 	10	Octubre	2023-10-10T00:00:00	2024-11-08T06:00:00	6	Velocidad del viento	6.4
122206	7	Sololá	704	Santa Lucía Utatlán 	7	Santa Rita 	10	Octubre	2023-10-10T00:00:00	2024-11-08T06:00:00	7	Dirección del viento	6.44
122207	7	Sololá	704	Santa Lucía Utatlán 	7	Santa Rita 	10	Octubre	2023-10-10T00:00:00	2024-11-08T06:00:00	1	Precipitación	0
122208	7	Sololá	704	Santa Lucía Utatlán 	7	Santa Rita 	10	Octubre	2023-10-10T00:00:00	2024-11-08T06:00:00	8	Radiación solar	6
122209	7	Sololá	704	Santa Lucía Utatlán 	7	Santa Rita 	10	Octubre	2023-10-10T00:00:00	2024-11-08T07:00:00	2	Temperatura media	23.8
122210	7	Sololá	704	Santa Lucía Utatlán 	7	Santa Rita 	10	Octubre	2023-10-10T00:00:00	2024-11-08T07:00:00	4	Temperatura máxima	25.8
122211	7	Sololá	704	Santa Lucía Utatlán 	7	Santa Rita 	10	Octubre	2023-10-10T00:00:00	2024-11-08T07:00:00	3	Temperatura mínima	23.8
122212	7	Sololá	704	Santa Lucía Utatlán 	7	Santa Rita 	10	Octubre	2023-10-10T00:00:00	2024-11-08T07:00:00	5	Humedad	83
122213	7	Sololá	704	Santa Lucía Utatlán 	7	Santa Rita 	10	Octubre	2023-10-10T00:00:00	2024-11-08T07:00:00	6	Velocidad del viento	8
122214	7	Sololá	704	Santa Lucía Utatlán 	7	Santa Rita 	10	Octubre	2023-10-10T00:00:00	2024-11-08T07:00:00	7	Dirección del viento	8.05
122215	7	Sololá	704	Santa Lucía Utatlán 	7	Santa Rita 	10	Octubre	2023-10-10T00:00:00	2024-11-08T07:00:00	1	Precipitación	0
122216	7	Sololá	704	Santa Lucía Utatlán 	7	Santa Rita 	10	Octubre	2023-10-10T00:00:00	2024-11-08T07:00:00	8	Radiación solar	102
122217	7	Sololá	704	Santa Lucía Utatlán 	7	Santa Rita 	10	Octubre	2023-10-10T00:00:00	2024-11-08T08:00:00	2	Temperatura media	23.7
122218	7	Sololá	704	Santa Lucía Utatlán 	7	Santa Rita 	10	Octubre	2023-10-10T00:00:00	2024-11-08T08:00:00	4	Temperatura máxima	25.4
122219	7	Sololá	704	Santa Lucía Utatlán 	7	Santa Rita 	10	Octubre	2023-10-10T00:00:00	2024-11-08T08:00:00	3	Temperatura mínima	23.7
122220	7	Sololá	704	Santa Lucía Utatlán 	7	Santa Rita 	10	Octubre	2023-10-10T00:00:00	2024-11-08T08:00:00	5	Humedad	83
122221	7	Sololá	704	Santa Lucía Utatlán 	7	Santa Rita 	10	Octubre	2023-10-10T00:00:00	2024-11-08T08:00:00	6	Velocidad del viento	8
122222	7	Sololá	704	Santa Lucía Utatlán 	7	Santa Rita 	10	Octubre	2023-10-10T00:00:00	2024-11-08T08:00:00	7	Dirección del viento	8.05
122223	7	Sololá	704	Santa Lucía Utatlán 	7	Santa Rita 	10	Octubre	2023-10-10T00:00:00	2024-11-08T08:00:00	1	Precipitación	0
122224	7	Sololá	704	Santa Lucía Utatlán 	7	Santa Rita 	10	Octubre	2023-10-10T00:00:00	2024-11-08T08:00:00	8	Radiación solar	289
122225	7	Sololá	704	Santa Lucía Utatlán 	7	Santa Rita 	10	Octubre	2023-10-10T00:00:00	2024-11-08T09:00:00	2	Temperatura media	24.3
122226	7	Sololá	704	Santa Lucía Utatlán 	7	Santa Rita 	10	Octubre	2023-10-10T00:00:00	2024-11-08T09:00:00	4	Temperatura máxima	24.8
122227	7	Sololá	704	Santa Lucía Utatlán 	7	Santa Rita 	10	Octubre	2023-10-10T00:00:00	2024-11-08T09:00:00	3	Temperatura mínima	23.4
122228	7	Sololá	704	Santa Lucía Utatlán 	7	Santa Rita 	10	Octubre	2023-10-10T00:00:00	2024-11-08T09:00:00	5	Humedad	80
122229	7	Sololá	704	Santa Lucía Utatlán 	7	Santa Rita 	10	Octubre	2023-10-10T00:00:00	2024-11-08T09:00:00	6	Velocidad del viento	6.4
122230	7	Sololá	704	Santa Lucía Utatlán 	7	Santa Rita 	10	Octubre	2023-10-10T00:00:00	2024-11-08T09:00:00	7	Dirección del viento	6.44
122231	7	Sololá	704	Santa Lucía Utatlán 	7	Santa Rita 	10	Octubre	2023-10-10T00:00:00	2024-11-08T09:00:00	1	Precipitación	0
122232	7	Sololá	704	Santa Lucía Utatlán 	7	Santa Rita 	10	Octubre	2023-10-10T00:00:00	2024-11-08T09:00:00	8	Radiación solar	639
122233	7	Sololá	704	Santa Lucía Utatlán 	7	Santa Rita 	10	Octubre	2023-10-10T00:00:00	2024-11-08T10:00:00	2	Temperatura media	22.7
122234	7	Sololá	704	Santa Lucía Utatlán 	7	Santa Rita 	10	Octubre	2023-10-10T00:00:00	2024-11-08T10:00:00	4	Temperatura máxima	24.3
122235	7	Sololá	704	Santa Lucía Utatlán 	7	Santa Rita 	10	Octubre	2023-10-10T00:00:00	2024-11-08T10:00:00	3	Temperatura mínima	22.6
122236	7	Sololá	704	Santa Lucía Utatlán 	7	Santa Rita 	10	Octubre	2023-10-10T00:00:00	2024-11-08T10:00:00	5	Humedad	88
122237	7	Sololá	704	Santa Lucía Utatlán 	7	Santa Rita 	10	Octubre	2023-10-10T00:00:00	2024-11-08T10:00:00	6	Velocidad del viento	6.4
122238	7	Sololá	704	Santa Lucía Utatlán 	7	Santa Rita 	10	Octubre	2023-10-10T00:00:00	2024-11-08T10:00:00	7	Dirección del viento	6.44
122239	7	Sololá	704	Santa Lucía Utatlán 	7	Santa Rita 	10	Octubre	2023-10-10T00:00:00	2024-11-08T10:00:00	1	Precipitación	0
122240	7	Sololá	704	Santa Lucía Utatlán 	7	Santa Rita 	10	Octubre	2023-10-10T00:00:00	2024-11-08T10:00:00	8	Radiación solar	682
122241	7	Sololá	704	Santa Lucía Utatlán 	7	Santa Rita 	10	Octubre	2023-10-10T00:00:00	2024-11-08T11:00:00	2	Temperatura media	21.7
122242	7	Sololá	704	Santa Lucía Utatlán 	7	Santa Rita 	10	Octubre	2023-10-10T00:00:00	2024-11-08T11:00:00	4	Temperatura máxima	22.8
122243	7	Sololá	704	Santa Lucía Utatlán 	7	Santa Rita 	10	Octubre	2023-10-10T00:00:00	2024-11-08T11:00:00	3	Temperatura mínima	21.6
122244	7	Sololá	704	Santa Lucía Utatlán 	7	Santa Rita 	10	Octubre	2023-10-10T00:00:00	2024-11-08T11:00:00	5	Humedad	92
122245	7	Sololá	704	Santa Lucía Utatlán 	7	Santa Rita 	10	Octubre	2023-10-10T00:00:00	2024-11-08T11:00:00	6	Velocidad del viento	4.8
122246	7	Sololá	704	Santa Lucía Utatlán 	7	Santa Rita 	10	Octubre	2023-10-10T00:00:00	2024-11-08T11:00:00	7	Dirección del viento	4.83
122247	7	Sololá	704	Santa Lucía Utatlán 	7	Santa Rita 	10	Octubre	2023-10-10T00:00:00	2024-11-08T11:00:00	1	Precipitación	0
122248	7	Sololá	704	Santa Lucía Utatlán 	7	Santa Rita 	10	Octubre	2023-10-10T00:00:00	2024-11-08T11:00:00	8	Radiación solar	795
122249	7	Sololá	704	Santa Lucía Utatlán 	7	Santa Rita 	10	Octubre	2023-10-10T00:00:00	2024-11-08T12:00:00	2	Temperatura media	21.1
122250	7	Sololá	704	Santa Lucía Utatlán 	7	Santa Rita 	10	Octubre	2023-10-10T00:00:00	2024-11-08T12:00:00	4	Temperatura máxima	21.7
122251	7	Sololá	704	Santa Lucía Utatlán 	7	Santa Rita 	10	Octubre	2023-10-10T00:00:00	2024-11-08T12:00:00	3	Temperatura mínima	21.1
122252	7	Sololá	704	Santa Lucía Utatlán 	7	Santa Rita 	10	Octubre	2023-10-10T00:00:00	2024-11-08T12:00:00	5	Humedad	94
122253	7	Sololá	704	Santa Lucía Utatlán 	7	Santa Rita 	10	Octubre	2023-10-10T00:00:00	2024-11-08T12:00:00	6	Velocidad del viento	1.6
122254	7	Sololá	704	Santa Lucía Utatlán 	7	Santa Rita 	10	Octubre	2023-10-10T00:00:00	2024-11-08T12:00:00	7	Dirección del viento	1.61
122255	7	Sololá	704	Santa Lucía Utatlán 	7	Santa Rita 	10	Octubre	2023-10-10T00:00:00	2024-11-08T12:00:00	1	Precipitación	0
122256	7	Sololá	704	Santa Lucía Utatlán 	7	Santa Rita 	10	Octubre	2023-10-10T00:00:00	2024-11-08T12:00:00	8	Radiación solar	839
122257	7	Sololá	704	Santa Lucía Utatlán 	7	Santa Rita 	10	Octubre	2023-10-10T00:00:00	2024-11-08T13:00:00	2	Temperatura media	20.7
122258	7	Sololá	704	Santa Lucía Utatlán 	7	Santa Rita 	10	Octubre	2023-10-10T00:00:00	2024-11-08T13:00:00	4	Temperatura máxima	21.1
122259	7	Sololá	704	Santa Lucía Utatlán 	7	Santa Rita 	10	Octubre	2023-10-10T00:00:00	2024-11-08T13:00:00	3	Temperatura mínima	20.7
122260	7	Sololá	704	Santa Lucía Utatlán 	7	Santa Rita 	10	Octubre	2023-10-10T00:00:00	2024-11-08T13:00:00	5	Humedad	95
122261	7	Sololá	704	Santa Lucía Utatlán 	7	Santa Rita 	10	Octubre	2023-10-10T00:00:00	2024-11-08T13:00:00	6	Velocidad del viento	1.6
122262	7	Sololá	704	Santa Lucía Utatlán 	7	Santa Rita 	10	Octubre	2023-10-10T00:00:00	2024-11-08T13:00:00	7	Dirección del viento	1.61
122263	7	Sololá	704	Santa Lucía Utatlán 	7	Santa Rita 	10	Octubre	2023-10-10T00:00:00	2024-11-08T13:00:00	1	Precipitación	0.2
122264	7	Sololá	704	Santa Lucía Utatlán 	7	Santa Rita 	10	Octubre	2023-10-10T00:00:00	2024-11-08T13:00:00	8	Radiación solar	579
122265	7	Sololá	704	Santa Lucía Utatlán 	7	Santa Rita 	10	Octubre	2023-10-10T00:00:00	2024-11-08T14:00:00	2	Temperatura media	20.4
122266	7	Sololá	704	Santa Lucía Utatlán 	7	Santa Rita 	10	Octubre	2023-10-10T00:00:00	2024-11-08T14:00:00	4	Temperatura máxima	20.7
122267	7	Sololá	704	Santa Lucía Utatlán 	7	Santa Rita 	10	Octubre	2023-10-10T00:00:00	2024-11-08T14:00:00	3	Temperatura mínima	20.4
122268	7	Sololá	704	Santa Lucía Utatlán 	7	Santa Rita 	10	Octubre	2023-10-10T00:00:00	2024-11-08T14:00:00	5	Humedad	96
122269	7	Sololá	704	Santa Lucía Utatlán 	7	Santa Rita 	10	Octubre	2023-10-10T00:00:00	2024-11-08T14:00:00	6	Velocidad del viento	1.6
122270	7	Sololá	704	Santa Lucía Utatlán 	7	Santa Rita 	10	Octubre	2023-10-10T00:00:00	2024-11-08T14:00:00	7	Dirección del viento	1.61
122271	7	Sololá	704	Santa Lucía Utatlán 	7	Santa Rita 	10	Octubre	2023-10-10T00:00:00	2024-11-08T14:00:00	1	Precipitación	0.6
122272	7	Sololá	704	Santa Lucía Utatlán 	7	Santa Rita 	10	Octubre	2023-10-10T00:00:00	2024-11-08T14:00:00	8	Radiación solar	498
122273	7	Sololá	704	Santa Lucía Utatlán 	7	Santa Rita 	10	Octubre	2023-10-10T00:00:00	2024-11-08T15:00:00	2	Temperatura media	20.1
122274	7	Sololá	704	Santa Lucía Utatlán 	7	Santa Rita 	10	Octubre	2023-10-10T00:00:00	2024-11-08T15:00:00	4	Temperatura máxima	20.4
122275	7	Sololá	704	Santa Lucía Utatlán 	7	Santa Rita 	10	Octubre	2023-10-10T00:00:00	2024-11-08T15:00:00	3	Temperatura mínima	20.1
122276	7	Sololá	704	Santa Lucía Utatlán 	7	Santa Rita 	10	Octubre	2023-10-10T00:00:00	2024-11-08T15:00:00	5	Humedad	97
122277	7	Sololá	704	Santa Lucía Utatlán 	7	Santa Rita 	10	Octubre	2023-10-10T00:00:00	2024-11-08T15:00:00	6	Velocidad del viento	1.6
122278	7	Sololá	704	Santa Lucía Utatlán 	7	Santa Rita 	10	Octubre	2023-10-10T00:00:00	2024-11-08T15:00:00	7	Dirección del viento	1.61
122279	7	Sololá	704	Santa Lucía Utatlán 	7	Santa Rita 	10	Octubre	2023-10-10T00:00:00	2024-11-08T15:00:00	1	Precipitación	0.2
122280	7	Sololá	704	Santa Lucía Utatlán 	7	Santa Rita 	10	Octubre	2023-10-10T00:00:00	2024-11-08T15:00:00	8	Radiación solar	200
122281	7	Sololá	704	Santa Lucía Utatlán 	7	Santa Rita 	10	Octubre	2023-10-10T00:00:00	2024-11-08T16:00:00	2	Temperatura media	20.1
122282	7	Sololá	704	Santa Lucía Utatlán 	7	Santa Rita 	10	Octubre	2023-10-10T00:00:00	2024-11-08T16:00:00	4	Temperatura máxima	20.2
122283	7	Sololá	704	Santa Lucía Utatlán 	7	Santa Rita 	10	Octubre	2023-10-10T00:00:00	2024-11-08T16:00:00	3	Temperatura mínima	19.9
122284	7	Sololá	704	Santa Lucía Utatlán 	7	Santa Rita 	10	Octubre	2023-10-10T00:00:00	2024-11-08T16:00:00	5	Humedad	97
122285	7	Sololá	704	Santa Lucía Utatlán 	7	Santa Rita 	10	Octubre	2023-10-10T00:00:00	2024-11-08T16:00:00	6	Velocidad del viento	0
122286	7	Sololá	704	Santa Lucía Utatlán 	7	Santa Rita 	10	Octubre	2023-10-10T00:00:00	2024-11-08T16:00:00	7	Dirección del viento	0
122287	7	Sololá	704	Santa Lucía Utatlán 	7	Santa Rita 	10	Octubre	2023-10-10T00:00:00	2024-11-08T16:00:00	1	Precipitación	0
122288	7	Sololá	704	Santa Lucía Utatlán 	7	Santa Rita 	10	Octubre	2023-10-10T00:00:00	2024-11-08T16:00:00	8	Radiación solar	80
122289	7	Sololá	704	Santa Lucía Utatlán 	7	Santa Rita 	10	Octubre	2023-10-10T00:00:00	2024-11-08T17:00:00	2	Temperatura media	19.9
122290	7	Sololá	704	Santa Lucía Utatlán 	7	Santa Rita 	10	Octubre	2023-10-10T00:00:00	2024-11-08T17:00:00	4	Temperatura máxima	20.1
122291	7	Sololá	704	Santa Lucía Utatlán 	7	Santa Rita 	10	Octubre	2023-10-10T00:00:00	2024-11-08T17:00:00	3	Temperatura mínima	19.9
122292	7	Sololá	704	Santa Lucía Utatlán 	7	Santa Rita 	10	Octubre	2023-10-10T00:00:00	2024-11-08T17:00:00	5	Humedad	97
122293	7	Sololá	704	Santa Lucía Utatlán 	7	Santa Rita 	10	Octubre	2023-10-10T00:00:00	2024-11-08T17:00:00	6	Velocidad del viento	0
122294	7	Sololá	704	Santa Lucía Utatlán 	7	Santa Rita 	10	Octubre	2023-10-10T00:00:00	2024-11-08T17:00:00	7	Dirección del viento	0
122295	7	Sololá	704	Santa Lucía Utatlán 	7	Santa Rita 	10	Octubre	2023-10-10T00:00:00	2024-11-08T17:00:00	1	Precipitación	0
122296	7	Sololá	704	Santa Lucía Utatlán 	7	Santa Rita 	10	Octubre	2023-10-10T00:00:00	2024-11-08T17:00:00	8	Radiación solar	16
122297	7	Sololá	704	Santa Lucía Utatlán 	7	Santa Rita 	10	Octubre	2023-10-10T00:00:00	2024-11-08T18:00:00	2	Temperatura media	19.9
122298	7	Sololá	704	Santa Lucía Utatlán 	7	Santa Rita 	10	Octubre	2023-10-10T00:00:00	2024-11-08T18:00:00	4	Temperatura máxima	20
122299	7	Sololá	704	Santa Lucía Utatlán 	7	Santa Rita 	10	Octubre	2023-10-10T00:00:00	2024-11-08T18:00:00	3	Temperatura mínima	19.8
122300	7	Sololá	704	Santa Lucía Utatlán 	7	Santa Rita 	10	Octubre	2023-10-10T00:00:00	2024-11-08T18:00:00	5	Humedad	98
122301	7	Sololá	704	Santa Lucía Utatlán 	7	Santa Rita 	10	Octubre	2023-10-10T00:00:00	2024-11-08T18:00:00	6	Velocidad del viento	0
122302	7	Sololá	704	Santa Lucía Utatlán 	7	Santa Rita 	10	Octubre	2023-10-10T00:00:00	2024-11-08T18:00:00	7	Dirección del viento	0
122303	7	Sololá	704	Santa Lucía Utatlán 	7	Santa Rita 	10	Octubre	2023-10-10T00:00:00	2024-11-08T18:00:00	1	Precipitación	0
122304	7	Sololá	704	Santa Lucía Utatlán 	7	Santa Rita 	10	Octubre	2023-10-10T00:00:00	2024-11-08T18:00:00	8	Radiación solar	0
122305	7	Sololá	704	Santa Lucía Utatlán 	7	Santa Rita 	10	Octubre	2023-10-10T00:00:00	2024-11-08T19:00:00	2	Temperatura media	19.8
122306	7	Sololá	704	Santa Lucía Utatlán 	7	Santa Rita 	10	Octubre	2023-10-10T00:00:00	2024-11-08T19:00:00	4	Temperatura máxima	19.9
122307	7	Sololá	704	Santa Lucía Utatlán 	7	Santa Rita 	10	Octubre	2023-10-10T00:00:00	2024-11-08T19:00:00	3	Temperatura mínima	19.7
122308	7	Sololá	704	Santa Lucía Utatlán 	7	Santa Rita 	10	Octubre	2023-10-10T00:00:00	2024-11-08T19:00:00	5	Humedad	97
122309	7	Sololá	704	Santa Lucía Utatlán 	7	Santa Rita 	10	Octubre	2023-10-10T00:00:00	2024-11-08T19:00:00	6	Velocidad del viento	0
122310	7	Sololá	704	Santa Lucía Utatlán 	7	Santa Rita 	10	Octubre	2023-10-10T00:00:00	2024-11-08T19:00:00	7	Dirección del viento	0
122311	7	Sololá	704	Santa Lucía Utatlán 	7	Santa Rita 	10	Octubre	2023-10-10T00:00:00	2024-11-08T19:00:00	1	Precipitación	0.2
122312	7	Sololá	704	Santa Lucía Utatlán 	7	Santa Rita 	10	Octubre	2023-10-10T00:00:00	2024-11-08T19:00:00	8	Radiación solar	0
122313	7	Sololá	704	Santa Lucía Utatlán 	7	Santa Rita 	10	Octubre	2023-10-10T00:00:00	2024-11-08T20:00:00	2	Temperatura media	19.6
122314	7	Sololá	704	Santa Lucía Utatlán 	7	Santa Rita 	10	Octubre	2023-10-10T00:00:00	2024-11-08T20:00:00	4	Temperatura máxima	19.8
122315	7	Sololá	704	Santa Lucía Utatlán 	7	Santa Rita 	10	Octubre	2023-10-10T00:00:00	2024-11-08T20:00:00	3	Temperatura mínima	19.6
122316	7	Sololá	704	Santa Lucía Utatlán 	7	Santa Rita 	10	Octubre	2023-10-10T00:00:00	2024-11-08T20:00:00	5	Humedad	97
122317	7	Sololá	704	Santa Lucía Utatlán 	7	Santa Rita 	10	Octubre	2023-10-10T00:00:00	2024-11-08T20:00:00	6	Velocidad del viento	0
122318	7	Sololá	704	Santa Lucía Utatlán 	7	Santa Rita 	10	Octubre	2023-10-10T00:00:00	2024-11-08T20:00:00	7	Dirección del viento	0
122319	7	Sololá	704	Santa Lucía Utatlán 	7	Santa Rita 	10	Octubre	2023-10-10T00:00:00	2024-11-08T20:00:00	1	Precipitación	0
122320	7	Sololá	704	Santa Lucía Utatlán 	7	Santa Rita 	10	Octubre	2023-10-10T00:00:00	2024-11-08T20:00:00	8	Radiación solar	0
122321	7	Sololá	704	Santa Lucía Utatlán 	7	Santa Rita 	10	Octubre	2023-10-10T00:00:00	2024-11-08T21:00:00	2	Temperatura media	19.3
122322	7	Sololá	704	Santa Lucía Utatlán 	7	Santa Rita 	10	Octubre	2023-10-10T00:00:00	2024-11-08T21:00:00	4	Temperatura máxima	19.6
122323	7	Sololá	704	Santa Lucía Utatlán 	7	Santa Rita 	10	Octubre	2023-10-10T00:00:00	2024-11-08T21:00:00	3	Temperatura mínima	19.2
122324	7	Sololá	704	Santa Lucía Utatlán 	7	Santa Rita 	10	Octubre	2023-10-10T00:00:00	2024-11-08T21:00:00	5	Humedad	98
122325	7	Sololá	704	Santa Lucía Utatlán 	7	Santa Rita 	10	Octubre	2023-10-10T00:00:00	2024-11-08T21:00:00	6	Velocidad del viento	1.6
122326	7	Sololá	704	Santa Lucía Utatlán 	7	Santa Rita 	10	Octubre	2023-10-10T00:00:00	2024-11-08T21:00:00	7	Dirección del viento	1.61
122327	7	Sololá	704	Santa Lucía Utatlán 	7	Santa Rita 	10	Octubre	2023-10-10T00:00:00	2024-11-08T21:00:00	1	Precipitación	0
122328	7	Sololá	704	Santa Lucía Utatlán 	7	Santa Rita 	10	Octubre	2023-10-10T00:00:00	2024-11-08T21:00:00	8	Radiación solar	0
122329	7	Sololá	704	Santa Lucía Utatlán 	7	Santa Rita 	10	Octubre	2023-10-10T00:00:00	2024-11-08T22:00:00	2	Temperatura media	19.2
122330	7	Sololá	704	Santa Lucía Utatlán 	7	Santa Rita 	10	Octubre	2023-10-10T00:00:00	2024-11-08T22:00:00	4	Temperatura máxima	19.3
122331	7	Sololá	704	Santa Lucía Utatlán 	7	Santa Rita 	10	Octubre	2023-10-10T00:00:00	2024-11-08T22:00:00	3	Temperatura mínima	19.2
122332	7	Sololá	704	Santa Lucía Utatlán 	7	Santa Rita 	10	Octubre	2023-10-10T00:00:00	2024-11-08T22:00:00	5	Humedad	98
122333	7	Sololá	704	Santa Lucía Utatlán 	7	Santa Rita 	10	Octubre	2023-10-10T00:00:00	2024-11-08T22:00:00	6	Velocidad del viento	0
122334	7	Sololá	704	Santa Lucía Utatlán 	7	Santa Rita 	10	Octubre	2023-10-10T00:00:00	2024-11-08T22:00:00	7	Dirección del viento	0
122335	7	Sololá	704	Santa Lucía Utatlán 	7	Santa Rita 	10	Octubre	2023-10-10T00:00:00	2024-11-08T22:00:00	1	Precipitación	0
122336	7	Sololá	704	Santa Lucía Utatlán 	7	Santa Rita 	10	Octubre	2023-10-10T00:00:00	2024-11-08T22:00:00	8	Radiación solar	0
122337	7	Sololá	704	Santa Lucía Utatlán 	7	Santa Rita 	10	Octubre	2023-10-10T00:00:00	2024-11-08T23:00:00	2	Temperatura media	18.6
122338	7	Sololá	704	Santa Lucía Utatlán 	7	Santa Rita 	10	Octubre	2023-10-10T00:00:00	2024-11-08T23:00:00	4	Temperatura máxima	19.2
122339	7	Sololá	704	Santa Lucía Utatlán 	7	Santa Rita 	10	Octubre	2023-10-10T00:00:00	2024-11-08T23:00:00	3	Temperatura mínima	18.6
122340	7	Sololá	704	Santa Lucía Utatlán 	7	Santa Rita 	10	Octubre	2023-10-10T00:00:00	2024-11-08T23:00:00	5	Humedad	97
122341	7	Sololá	704	Santa Lucía Utatlán 	7	Santa Rita 	10	Octubre	2023-10-10T00:00:00	2024-11-08T23:00:00	6	Velocidad del viento	0
122342	7	Sololá	704	Santa Lucía Utatlán 	7	Santa Rita 	10	Octubre	2023-10-10T00:00:00	2024-11-08T23:00:00	7	Dirección del viento	0
122343	7	Sololá	704	Santa Lucía Utatlán 	7	Santa Rita 	10	Octubre	2023-10-10T00:00:00	2024-11-08T23:00:00	1	Precipitación	0
122344	7	Sololá	704	Santa Lucía Utatlán 	7	Santa Rita 	10	Octubre	2023-10-10T00:00:00	2024-11-08T23:00:00	8	Radiación solar	0
122345	7	Sololá	704	Santa Lucía Utatlán 	7	Santa Rita 	10	Octubre	2023-11-10T00:00:00	2024-11-08T00:00:00	2	Temperatura media	18.9
122346	7	Sololá	704	Santa Lucía Utatlán 	7	Santa Rita 	10	Octubre	2023-11-10T00:00:00	2024-11-08T00:00:00	4	Temperatura máxima	18.9
122347	7	Sololá	704	Santa Lucía Utatlán 	7	Santa Rita 	10	Octubre	2023-11-10T00:00:00	2024-11-08T00:00:00	3	Temperatura mínima	18.6
122348	7	Sololá	704	Santa Lucía Utatlán 	7	Santa Rita 	10	Octubre	2023-11-10T00:00:00	2024-11-08T00:00:00	5	Humedad	98
122349	7	Sololá	704	Santa Lucía Utatlán 	7	Santa Rita 	10	Octubre	2023-11-10T00:00:00	2024-11-08T00:00:00	6	Velocidad del viento	0
122350	7	Sololá	704	Santa Lucía Utatlán 	7	Santa Rita 	10	Octubre	2023-11-10T00:00:00	2024-11-08T00:00:00	7	Dirección del viento	0
122351	7	Sololá	704	Santa Lucía Utatlán 	7	Santa Rita 	10	Octubre	2023-11-10T00:00:00	2024-11-08T00:00:00	1	Precipitación	0
122352	7	Sololá	704	Santa Lucía Utatlán 	7	Santa Rita 	10	Octubre	2023-11-10T00:00:00	2024-11-08T00:00:00	8	Radiación solar	0
122353	7	Sololá	704	Santa Lucía Utatlán 	7	Santa Rita 	10	Octubre	2023-11-10T00:00:00	2024-11-08T01:00:00	2	Temperatura media	18
122354	7	Sololá	704	Santa Lucía Utatlán 	7	Santa Rita 	10	Octubre	2023-11-10T00:00:00	2024-11-08T01:00:00	4	Temperatura máxima	18.9
122355	7	Sololá	704	Santa Lucía Utatlán 	7	Santa Rita 	10	Octubre	2023-11-10T00:00:00	2024-11-08T01:00:00	3	Temperatura mínima	17.9
122356	7	Sololá	704	Santa Lucía Utatlán 	7	Santa Rita 	10	Octubre	2023-11-10T00:00:00	2024-11-08T01:00:00	5	Humedad	96
122357	7	Sololá	704	Santa Lucía Utatlán 	7	Santa Rita 	10	Octubre	2023-11-10T00:00:00	2024-11-08T01:00:00	6	Velocidad del viento	1.6
122358	7	Sololá	704	Santa Lucía Utatlán 	7	Santa Rita 	10	Octubre	2023-11-10T00:00:00	2024-11-08T01:00:00	7	Dirección del viento	1.61
122359	7	Sololá	704	Santa Lucía Utatlán 	7	Santa Rita 	10	Octubre	2023-11-10T00:00:00	2024-11-08T01:00:00	1	Precipitación	0
122360	7	Sololá	704	Santa Lucía Utatlán 	7	Santa Rita 	10	Octubre	2023-11-10T00:00:00	2024-11-08T01:00:00	8	Radiación solar	0
122361	7	Sololá	704	Santa Lucía Utatlán 	7	Santa Rita 	10	Octubre	2023-11-10T00:00:00	2024-11-08T02:00:00	2	Temperatura media	20
122362	7	Sololá	704	Santa Lucía Utatlán 	7	Santa Rita 	10	Octubre	2023-11-10T00:00:00	2024-11-08T02:00:00	4	Temperatura máxima	20
122363	7	Sololá	704	Santa Lucía Utatlán 	7	Santa Rita 	10	Octubre	2023-11-10T00:00:00	2024-11-08T02:00:00	3	Temperatura mínima	17.9
122364	7	Sololá	704	Santa Lucía Utatlán 	7	Santa Rita 	10	Octubre	2023-11-10T00:00:00	2024-11-08T02:00:00	5	Humedad	93
122365	7	Sololá	704	Santa Lucía Utatlán 	7	Santa Rita 	10	Octubre	2023-11-10T00:00:00	2024-11-08T02:00:00	6	Velocidad del viento	1.6
122366	7	Sololá	704	Santa Lucía Utatlán 	7	Santa Rita 	10	Octubre	2023-11-10T00:00:00	2024-11-08T02:00:00	7	Dirección del viento	1.61
122367	7	Sololá	704	Santa Lucía Utatlán 	7	Santa Rita 	10	Octubre	2023-11-10T00:00:00	2024-11-08T02:00:00	1	Precipitación	0
122368	7	Sololá	704	Santa Lucía Utatlán 	7	Santa Rita 	10	Octubre	2023-11-10T00:00:00	2024-11-08T02:00:00	8	Radiación solar	0
122369	7	Sololá	704	Santa Lucía Utatlán 	7	Santa Rita 	10	Octubre	2023-11-10T00:00:00	2024-11-08T03:00:00	2	Temperatura media	22.6
122370	7	Sololá	704	Santa Lucía Utatlán 	7	Santa Rita 	10	Octubre	2023-11-10T00:00:00	2024-11-08T03:00:00	4	Temperatura máxima	22.6
122371	7	Sololá	704	Santa Lucía Utatlán 	7	Santa Rita 	10	Octubre	2023-11-10T00:00:00	2024-11-08T03:00:00	3	Temperatura mínima	20
122372	7	Sololá	704	Santa Lucía Utatlán 	7	Santa Rita 	10	Octubre	2023-11-10T00:00:00	2024-11-08T03:00:00	5	Humedad	87
122373	7	Sololá	704	Santa Lucía Utatlán 	7	Santa Rita 	10	Octubre	2023-11-10T00:00:00	2024-11-08T03:00:00	6	Velocidad del viento	1.6
122374	7	Sololá	704	Santa Lucía Utatlán 	7	Santa Rita 	10	Octubre	2023-11-10T00:00:00	2024-11-08T03:00:00	7	Dirección del viento	1.61
122375	7	Sololá	704	Santa Lucía Utatlán 	7	Santa Rita 	10	Octubre	2023-11-10T00:00:00	2024-11-08T03:00:00	1	Precipitación	0
122376	7	Sololá	704	Santa Lucía Utatlán 	7	Santa Rita 	10	Octubre	2023-11-10T00:00:00	2024-11-08T03:00:00	8	Radiación solar	0
122377	7	Sololá	704	Santa Lucía Utatlán 	7	Santa Rita 	10	Octubre	2023-11-10T00:00:00	2024-11-08T04:00:00	2	Temperatura media	23.7
122378	7	Sololá	704	Santa Lucía Utatlán 	7	Santa Rita 	10	Octubre	2023-11-10T00:00:00	2024-11-08T04:00:00	4	Temperatura máxima	23.9
122379	7	Sololá	704	Santa Lucía Utatlán 	7	Santa Rita 	10	Octubre	2023-11-10T00:00:00	2024-11-08T04:00:00	3	Temperatura mínima	22.6
122380	7	Sololá	704	Santa Lucía Utatlán 	7	Santa Rita 	10	Octubre	2023-11-10T00:00:00	2024-11-08T04:00:00	5	Humedad	85
122381	7	Sololá	704	Santa Lucía Utatlán 	7	Santa Rita 	10	Octubre	2023-11-10T00:00:00	2024-11-08T04:00:00	6	Velocidad del viento	4.8
122382	7	Sololá	704	Santa Lucía Utatlán 	7	Santa Rita 	10	Octubre	2023-11-10T00:00:00	2024-11-08T04:00:00	7	Dirección del viento	4.83
122383	7	Sololá	704	Santa Lucía Utatlán 	7	Santa Rita 	10	Octubre	2023-11-10T00:00:00	2024-11-08T04:00:00	1	Precipitación	0
122384	7	Sololá	704	Santa Lucía Utatlán 	7	Santa Rita 	10	Octubre	2023-11-10T00:00:00	2024-11-08T04:00:00	8	Radiación solar	0
122385	7	Sololá	704	Santa Lucía Utatlán 	7	Santa Rita 	10	Octubre	2023-11-10T00:00:00	2024-11-08T05:00:00	2	Temperatura media	22.9
122386	7	Sololá	704	Santa Lucía Utatlán 	7	Santa Rita 	10	Octubre	2023-11-10T00:00:00	2024-11-08T05:00:00	4	Temperatura máxima	23.8
122387	7	Sololá	704	Santa Lucía Utatlán 	7	Santa Rita 	10	Octubre	2023-11-10T00:00:00	2024-11-08T05:00:00	3	Temperatura mínima	22.8
122388	7	Sololá	704	Santa Lucía Utatlán 	7	Santa Rita 	10	Octubre	2023-11-10T00:00:00	2024-11-08T05:00:00	5	Humedad	87
122389	7	Sololá	704	Santa Lucía Utatlán 	7	Santa Rita 	10	Octubre	2023-11-10T00:00:00	2024-11-08T05:00:00	6	Velocidad del viento	4.8
122390	7	Sololá	704	Santa Lucía Utatlán 	7	Santa Rita 	10	Octubre	2023-11-10T00:00:00	2024-11-08T05:00:00	7	Dirección del viento	4.83
122391	7	Sololá	704	Santa Lucía Utatlán 	7	Santa Rita 	10	Octubre	2023-11-10T00:00:00	2024-11-08T05:00:00	1	Precipitación	0
122392	7	Sololá	704	Santa Lucía Utatlán 	7	Santa Rita 	10	Octubre	2023-11-10T00:00:00	2024-11-08T05:00:00	8	Radiación solar	0
122393	7	Sololá	704	Santa Lucía Utatlán 	7	Santa Rita 	10	Octubre	2023-11-10T00:00:00	2024-11-08T06:00:00	2	Temperatura media	22.2
122394	7	Sololá	704	Santa Lucía Utatlán 	7	Santa Rita 	10	Octubre	2023-11-10T00:00:00	2024-11-08T06:00:00	4	Temperatura máxima	22.9
122395	7	Sololá	704	Santa Lucía Utatlán 	7	Santa Rita 	10	Octubre	2023-11-10T00:00:00	2024-11-08T06:00:00	3	Temperatura mínima	22.2
122396	7	Sololá	704	Santa Lucía Utatlán 	7	Santa Rita 	10	Octubre	2023-11-10T00:00:00	2024-11-08T06:00:00	5	Humedad	89
122397	7	Sololá	704	Santa Lucía Utatlán 	7	Santa Rita 	10	Octubre	2023-11-10T00:00:00	2024-11-08T06:00:00	6	Velocidad del viento	6.4
122398	7	Sololá	704	Santa Lucía Utatlán 	7	Santa Rita 	10	Octubre	2023-11-10T00:00:00	2024-11-08T06:00:00	7	Dirección del viento	6.44
122399	7	Sololá	704	Santa Lucía Utatlán 	7	Santa Rita 	10	Octubre	2023-11-10T00:00:00	2024-11-08T06:00:00	1	Precipitación	0
122400	7	Sololá	704	Santa Lucía Utatlán 	7	Santa Rita 	10	Octubre	2023-11-10T00:00:00	2024-11-08T06:00:00	8	Radiación solar	8
122401	7	Sololá	704	Santa Lucía Utatlán 	7	Santa Rita 	10	Octubre	2023-11-10T00:00:00	2024-11-08T07:00:00	2	Temperatura media	22.4
122402	7	Sololá	704	Santa Lucía Utatlán 	7	Santa Rita 	10	Octubre	2023-11-10T00:00:00	2024-11-08T07:00:00	4	Temperatura máxima	22.4
122403	7	Sololá	704	Santa Lucía Utatlán 	7	Santa Rita 	10	Octubre	2023-11-10T00:00:00	2024-11-08T07:00:00	3	Temperatura mínima	21.3
122404	7	Sololá	704	Santa Lucía Utatlán 	7	Santa Rita 	10	Octubre	2023-11-10T00:00:00	2024-11-08T07:00:00	5	Humedad	89
122405	7	Sololá	704	Santa Lucía Utatlán 	7	Santa Rita 	10	Octubre	2023-11-10T00:00:00	2024-11-08T07:00:00	6	Velocidad del viento	4.8
122406	7	Sololá	704	Santa Lucía Utatlán 	7	Santa Rita 	10	Octubre	2023-11-10T00:00:00	2024-11-08T07:00:00	7	Dirección del viento	4.83
122407	7	Sololá	704	Santa Lucía Utatlán 	7	Santa Rita 	10	Octubre	2023-11-10T00:00:00	2024-11-08T07:00:00	1	Precipitación	0
122408	7	Sololá	704	Santa Lucía Utatlán 	7	Santa Rita 	10	Octubre	2023-11-10T00:00:00	2024-11-08T07:00:00	8	Radiación solar	111
122409	7	Sololá	704	Santa Lucía Utatlán 	7	Santa Rita 	10	Octubre	2023-11-10T00:00:00	2024-11-08T08:00:00	2	Temperatura media	21.6
122410	7	Sololá	704	Santa Lucía Utatlán 	7	Santa Rita 	10	Octubre	2023-11-10T00:00:00	2024-11-08T08:00:00	4	Temperatura máxima	22.7
122411	7	Sololá	704	Santa Lucía Utatlán 	7	Santa Rita 	10	Octubre	2023-11-10T00:00:00	2024-11-08T08:00:00	3	Temperatura mínima	21.6
122412	7	Sololá	704	Santa Lucía Utatlán 	7	Santa Rita 	10	Octubre	2023-11-10T00:00:00	2024-11-08T08:00:00	5	Humedad	92
122413	7	Sololá	704	Santa Lucía Utatlán 	7	Santa Rita 	10	Octubre	2023-11-10T00:00:00	2024-11-08T08:00:00	6	Velocidad del viento	6.4
122414	7	Sololá	704	Santa Lucía Utatlán 	7	Santa Rita 	10	Octubre	2023-11-10T00:00:00	2024-11-08T08:00:00	7	Dirección del viento	6.44
122415	7	Sololá	704	Santa Lucía Utatlán 	7	Santa Rita 	10	Octubre	2023-11-10T00:00:00	2024-11-08T08:00:00	1	Precipitación	0
122416	7	Sololá	704	Santa Lucía Utatlán 	7	Santa Rita 	10	Octubre	2023-11-10T00:00:00	2024-11-08T08:00:00	8	Radiación solar	303
122417	7	Sololá	704	Santa Lucía Utatlán 	7	Santa Rita 	10	Octubre	2023-11-10T00:00:00	2024-11-08T09:00:00	2	Temperatura media	21.6
122418	7	Sololá	704	Santa Lucía Utatlán 	7	Santa Rita 	10	Octubre	2023-11-10T00:00:00	2024-11-08T09:00:00	4	Temperatura máxima	21.8
122419	7	Sololá	704	Santa Lucía Utatlán 	7	Santa Rita 	10	Octubre	2023-11-10T00:00:00	2024-11-08T09:00:00	3	Temperatura mínima	21.3
122420	7	Sololá	704	Santa Lucía Utatlán 	7	Santa Rita 	10	Octubre	2023-11-10T00:00:00	2024-11-08T09:00:00	5	Humedad	92
122421	7	Sololá	704	Santa Lucía Utatlán 	7	Santa Rita 	10	Octubre	2023-11-10T00:00:00	2024-11-08T09:00:00	6	Velocidad del viento	4.8
122422	7	Sololá	704	Santa Lucía Utatlán 	7	Santa Rita 	10	Octubre	2023-11-10T00:00:00	2024-11-08T09:00:00	7	Dirección del viento	4.83
122423	7	Sololá	704	Santa Lucía Utatlán 	7	Santa Rita 	10	Octubre	2023-11-10T00:00:00	2024-11-08T09:00:00	1	Precipitación	0
122424	7	Sololá	704	Santa Lucía Utatlán 	7	Santa Rita 	10	Octubre	2023-11-10T00:00:00	2024-11-08T09:00:00	8	Radiación solar	600
122425	7	Sololá	704	Santa Lucía Utatlán 	7	Santa Rita 	10	Octubre	2023-11-10T00:00:00	2024-11-08T10:00:00	2	Temperatura media	22.3
122426	7	Sololá	704	Santa Lucía Utatlán 	7	Santa Rita 	10	Octubre	2023-11-10T00:00:00	2024-11-08T10:00:00	4	Temperatura máxima	23.1
122427	7	Sololá	704	Santa Lucía Utatlán 	7	Santa Rita 	10	Octubre	2023-11-10T00:00:00	2024-11-08T10:00:00	3	Temperatura mínima	21.6
122428	7	Sololá	704	Santa Lucía Utatlán 	7	Santa Rita 	10	Octubre	2023-11-10T00:00:00	2024-11-08T10:00:00	5	Humedad	87
122429	7	Sololá	704	Santa Lucía Utatlán 	7	Santa Rita 	10	Octubre	2023-11-10T00:00:00	2024-11-08T10:00:00	6	Velocidad del viento	3.2
122430	7	Sololá	704	Santa Lucía Utatlán 	7	Santa Rita 	10	Octubre	2023-11-10T00:00:00	2024-11-08T10:00:00	7	Dirección del viento	3.22
122431	7	Sololá	704	Santa Lucía Utatlán 	7	Santa Rita 	10	Octubre	2023-11-10T00:00:00	2024-11-08T10:00:00	1	Precipitación	0
122432	7	Sololá	704	Santa Lucía Utatlán 	7	Santa Rita 	10	Octubre	2023-11-10T00:00:00	2024-11-08T10:00:00	8	Radiación solar	322
122433	7	Sololá	704	Santa Lucía Utatlán 	7	Santa Rita 	10	Octubre	2023-11-10T00:00:00	2024-11-08T11:00:00	2	Temperatura media	21.2
122434	7	Sololá	704	Santa Lucía Utatlán 	7	Santa Rita 	10	Octubre	2023-11-10T00:00:00	2024-11-08T11:00:00	4	Temperatura máxima	22.2
122435	7	Sololá	704	Santa Lucía Utatlán 	7	Santa Rita 	10	Octubre	2023-11-10T00:00:00	2024-11-08T11:00:00	3	Temperatura mínima	21.2
122436	7	Sololá	704	Santa Lucía Utatlán 	7	Santa Rita 	10	Octubre	2023-11-10T00:00:00	2024-11-08T11:00:00	5	Humedad	91
122437	7	Sololá	704	Santa Lucía Utatlán 	7	Santa Rita 	10	Octubre	2023-11-10T00:00:00	2024-11-08T11:00:00	6	Velocidad del viento	1.6
122438	7	Sololá	704	Santa Lucía Utatlán 	7	Santa Rita 	10	Octubre	2023-11-10T00:00:00	2024-11-08T11:00:00	7	Dirección del viento	1.61
122439	7	Sololá	704	Santa Lucía Utatlán 	7	Santa Rita 	10	Octubre	2023-11-10T00:00:00	2024-11-08T11:00:00	1	Precipitación	0
122440	7	Sololá	704	Santa Lucía Utatlán 	7	Santa Rita 	10	Octubre	2023-11-10T00:00:00	2024-11-08T11:00:00	8	Radiación solar	369
122441	7	Sololá	704	Santa Lucía Utatlán 	7	Santa Rita 	10	Octubre	2023-11-10T00:00:00	2024-11-08T12:00:00	2	Temperatura media	20.8
122442	7	Sololá	704	Santa Lucía Utatlán 	7	Santa Rita 	10	Octubre	2023-11-10T00:00:00	2024-11-08T12:00:00	4	Temperatura máxima	21.2
122443	7	Sololá	704	Santa Lucía Utatlán 	7	Santa Rita 	10	Octubre	2023-11-10T00:00:00	2024-11-08T12:00:00	3	Temperatura mínima	20.8
122444	7	Sololá	704	Santa Lucía Utatlán 	7	Santa Rita 	10	Octubre	2023-11-10T00:00:00	2024-11-08T12:00:00	5	Humedad	94
122445	7	Sololá	704	Santa Lucía Utatlán 	7	Santa Rita 	10	Octubre	2023-11-10T00:00:00	2024-11-08T12:00:00	6	Velocidad del viento	1.6
122446	7	Sololá	704	Santa Lucía Utatlán 	7	Santa Rita 	10	Octubre	2023-11-10T00:00:00	2024-11-08T12:00:00	7	Dirección del viento	1.61
122447	7	Sololá	704	Santa Lucía Utatlán 	7	Santa Rita 	10	Octubre	2023-11-10T00:00:00	2024-11-08T12:00:00	1	Precipitación	0
122448	7	Sololá	704	Santa Lucía Utatlán 	7	Santa Rita 	10	Octubre	2023-11-10T00:00:00	2024-11-08T12:00:00	8	Radiación solar	170
122449	7	Sololá	704	Santa Lucía Utatlán 	7	Santa Rita 	10	Octubre	2023-11-10T00:00:00	2024-11-08T13:00:00	2	Temperatura media	20.7
122450	7	Sololá	704	Santa Lucía Utatlán 	7	Santa Rita 	10	Octubre	2023-11-10T00:00:00	2024-11-08T13:00:00	4	Temperatura máxima	20.8
122451	7	Sololá	704	Santa Lucía Utatlán 	7	Santa Rita 	10	Octubre	2023-11-10T00:00:00	2024-11-08T13:00:00	3	Temperatura mínima	20.7
122452	7	Sololá	704	Santa Lucía Utatlán 	7	Santa Rita 	10	Octubre	2023-11-10T00:00:00	2024-11-08T13:00:00	5	Humedad	96
122453	7	Sololá	704	Santa Lucía Utatlán 	7	Santa Rita 	10	Octubre	2023-11-10T00:00:00	2024-11-08T13:00:00	6	Velocidad del viento	1.6
122454	7	Sololá	704	Santa Lucía Utatlán 	7	Santa Rita 	10	Octubre	2023-11-10T00:00:00	2024-11-08T13:00:00	7	Dirección del viento	1.61
122455	7	Sololá	704	Santa Lucía Utatlán 	7	Santa Rita 	10	Octubre	2023-11-10T00:00:00	2024-11-08T13:00:00	1	Precipitación	0
122456	7	Sololá	704	Santa Lucía Utatlán 	7	Santa Rita 	10	Octubre	2023-11-10T00:00:00	2024-11-08T13:00:00	8	Radiación solar	137
122457	7	Sololá	704	Santa Lucía Utatlán 	7	Santa Rita 	10	Octubre	2023-11-10T00:00:00	2024-11-08T14:00:00	2	Temperatura media	20.6
122458	7	Sololá	704	Santa Lucía Utatlán 	7	Santa Rita 	10	Octubre	2023-11-10T00:00:00	2024-11-08T14:00:00	4	Temperatura máxima	20.7
122459	7	Sololá	704	Santa Lucía Utatlán 	7	Santa Rita 	10	Octubre	2023-11-10T00:00:00	2024-11-08T14:00:00	3	Temperatura mínima	20.5
122460	7	Sololá	704	Santa Lucía Utatlán 	7	Santa Rita 	10	Octubre	2023-11-10T00:00:00	2024-11-08T14:00:00	5	Humedad	97
122461	7	Sololá	704	Santa Lucía Utatlán 	7	Santa Rita 	10	Octubre	2023-11-10T00:00:00	2024-11-08T14:00:00	6	Velocidad del viento	1.6
122462	7	Sololá	704	Santa Lucía Utatlán 	7	Santa Rita 	10	Octubre	2023-11-10T00:00:00	2024-11-08T14:00:00	7	Dirección del viento	1.61
122463	7	Sololá	704	Santa Lucía Utatlán 	7	Santa Rita 	10	Octubre	2023-11-10T00:00:00	2024-11-08T14:00:00	1	Precipitación	0.6
122464	7	Sololá	704	Santa Lucía Utatlán 	7	Santa Rita 	10	Octubre	2023-11-10T00:00:00	2024-11-08T14:00:00	8	Radiación solar	148
122465	7	Sololá	704	Santa Lucía Utatlán 	7	Santa Rita 	10	Octubre	2023-11-10T00:00:00	2024-11-08T15:00:00	2	Temperatura media	20.2
122466	7	Sololá	704	Santa Lucía Utatlán 	7	Santa Rita 	10	Octubre	2023-11-10T00:00:00	2024-11-08T15:00:00	4	Temperatura máxima	20.6
122467	7	Sololá	704	Santa Lucía Utatlán 	7	Santa Rita 	10	Octubre	2023-11-10T00:00:00	2024-11-08T15:00:00	3	Temperatura mínima	20.1
122468	7	Sololá	704	Santa Lucía Utatlán 	7	Santa Rita 	10	Octubre	2023-11-10T00:00:00	2024-11-08T15:00:00	5	Humedad	97
122469	7	Sololá	704	Santa Lucía Utatlán 	7	Santa Rita 	10	Octubre	2023-11-10T00:00:00	2024-11-08T15:00:00	6	Velocidad del viento	1.6
122470	7	Sololá	704	Santa Lucía Utatlán 	7	Santa Rita 	10	Octubre	2023-11-10T00:00:00	2024-11-08T15:00:00	7	Dirección del viento	1.61
122471	7	Sololá	704	Santa Lucía Utatlán 	7	Santa Rita 	10	Octubre	2023-11-10T00:00:00	2024-11-08T15:00:00	1	Precipitación	0.2
122472	7	Sololá	704	Santa Lucía Utatlán 	7	Santa Rita 	10	Octubre	2023-11-10T00:00:00	2024-11-08T15:00:00	8	Radiación solar	265
122473	7	Sololá	704	Santa Lucía Utatlán 	7	Santa Rita 	10	Octubre	2023-11-10T00:00:00	2024-11-08T16:00:00	2	Temperatura media	20.1
122474	7	Sololá	704	Santa Lucía Utatlán 	7	Santa Rita 	10	Octubre	2023-11-10T00:00:00	2024-11-08T16:00:00	4	Temperatura máxima	20.2
122475	7	Sololá	704	Santa Lucía Utatlán 	7	Santa Rita 	10	Octubre	2023-11-10T00:00:00	2024-11-08T16:00:00	3	Temperatura mínima	20
122476	7	Sololá	704	Santa Lucía Utatlán 	7	Santa Rita 	10	Octubre	2023-11-10T00:00:00	2024-11-08T16:00:00	5	Humedad	98
122477	7	Sololá	704	Santa Lucía Utatlán 	7	Santa Rita 	10	Octubre	2023-11-10T00:00:00	2024-11-08T16:00:00	6	Velocidad del viento	1.6
122478	7	Sololá	704	Santa Lucía Utatlán 	7	Santa Rita 	10	Octubre	2023-11-10T00:00:00	2024-11-08T16:00:00	7	Dirección del viento	1.61
122479	7	Sololá	704	Santa Lucía Utatlán 	7	Santa Rita 	10	Octubre	2023-11-10T00:00:00	2024-11-08T16:00:00	1	Precipitación	21.8
122480	7	Sololá	704	Santa Lucía Utatlán 	7	Santa Rita 	10	Octubre	2023-11-10T00:00:00	2024-11-08T16:00:00	8	Radiación solar	31
122481	7	Sololá	704	Santa Lucía Utatlán 	7	Santa Rita 	10	Octubre	2023-11-10T00:00:00	2024-11-08T17:00:00	2	Temperatura media	20
122482	7	Sololá	704	Santa Lucía Utatlán 	7	Santa Rita 	10	Octubre	2023-11-10T00:00:00	2024-11-08T17:00:00	4	Temperatura máxima	20.1
122483	7	Sololá	704	Santa Lucía Utatlán 	7	Santa Rita 	10	Octubre	2023-11-10T00:00:00	2024-11-08T17:00:00	3	Temperatura mínima	19.9
122484	7	Sololá	704	Santa Lucía Utatlán 	7	Santa Rita 	10	Octubre	2023-11-10T00:00:00	2024-11-08T17:00:00	5	Humedad	97
122485	7	Sololá	704	Santa Lucía Utatlán 	7	Santa Rita 	10	Octubre	2023-11-10T00:00:00	2024-11-08T17:00:00	6	Velocidad del viento	0
122486	7	Sololá	704	Santa Lucía Utatlán 	7	Santa Rita 	10	Octubre	2023-11-10T00:00:00	2024-11-08T17:00:00	7	Dirección del viento	0
122487	7	Sololá	704	Santa Lucía Utatlán 	7	Santa Rita 	10	Octubre	2023-11-10T00:00:00	2024-11-08T17:00:00	1	Precipitación	0.2
122488	7	Sololá	704	Santa Lucía Utatlán 	7	Santa Rita 	10	Octubre	2023-11-10T00:00:00	2024-11-08T17:00:00	8	Radiación solar	7
122489	7	Sololá	704	Santa Lucía Utatlán 	7	Santa Rita 	10	Octubre	2023-11-10T00:00:00	2024-11-08T18:00:00	2	Temperatura media	19.9
122490	7	Sololá	704	Santa Lucía Utatlán 	7	Santa Rita 	10	Octubre	2023-11-10T00:00:00	2024-11-08T18:00:00	4	Temperatura máxima	20
122491	7	Sololá	704	Santa Lucía Utatlán 	7	Santa Rita 	10	Octubre	2023-11-10T00:00:00	2024-11-08T18:00:00	3	Temperatura mínima	19.9
122492	7	Sololá	704	Santa Lucía Utatlán 	7	Santa Rita 	10	Octubre	2023-11-10T00:00:00	2024-11-08T18:00:00	5	Humedad	98
122493	7	Sololá	704	Santa Lucía Utatlán 	7	Santa Rita 	10	Octubre	2023-11-10T00:00:00	2024-11-08T18:00:00	6	Velocidad del viento	0
122494	7	Sololá	704	Santa Lucía Utatlán 	7	Santa Rita 	10	Octubre	2023-11-10T00:00:00	2024-11-08T18:00:00	7	Dirección del viento	0
122495	7	Sololá	704	Santa Lucía Utatlán 	7	Santa Rita 	10	Octubre	2023-11-10T00:00:00	2024-11-08T18:00:00	1	Precipitación	0
122496	7	Sololá	704	Santa Lucía Utatlán 	7	Santa Rita 	10	Octubre	2023-11-10T00:00:00	2024-11-08T18:00:00	8	Radiación solar	0
122497	7	Sololá	704	Santa Lucía Utatlán 	7	Santa Rita 	10	Octubre	2023-11-10T00:00:00	2024-11-08T19:00:00	2	Temperatura media	19.9
122498	7	Sololá	704	Santa Lucía Utatlán 	7	Santa Rita 	10	Octubre	2023-11-10T00:00:00	2024-11-08T19:00:00	4	Temperatura máxima	19.9
122499	7	Sololá	704	Santa Lucía Utatlán 	7	Santa Rita 	10	Octubre	2023-11-10T00:00:00	2024-11-08T19:00:00	3	Temperatura mínima	19.8
122500	7	Sololá	704	Santa Lucía Utatlán 	7	Santa Rita 	10	Octubre	2023-11-10T00:00:00	2024-11-08T19:00:00	5	Humedad	98
122501	7	Sololá	704	Santa Lucía Utatlán 	7	Santa Rita 	10	Octubre	2023-11-10T00:00:00	2024-11-08T19:00:00	6	Velocidad del viento	0
122502	7	Sololá	704	Santa Lucía Utatlán 	7	Santa Rita 	10	Octubre	2023-11-10T00:00:00	2024-11-08T19:00:00	7	Dirección del viento	0
122503	7	Sololá	704	Santa Lucía Utatlán 	7	Santa Rita 	10	Octubre	2023-11-10T00:00:00	2024-11-08T19:00:00	1	Precipitación	0
122504	7	Sololá	704	Santa Lucía Utatlán 	7	Santa Rita 	10	Octubre	2023-11-10T00:00:00	2024-11-08T19:00:00	8	Radiación solar	0
122505	7	Sololá	704	Santa Lucía Utatlán 	7	Santa Rita 	10	Octubre	2023-11-10T00:00:00	2024-11-08T20:00:00	2	Temperatura media	19.9
122506	7	Sololá	704	Santa Lucía Utatlán 	7	Santa Rita 	10	Octubre	2023-11-10T00:00:00	2024-11-08T20:00:00	4	Temperatura máxima	19.9
122507	7	Sololá	704	Santa Lucía Utatlán 	7	Santa Rita 	10	Octubre	2023-11-10T00:00:00	2024-11-08T20:00:00	3	Temperatura mínima	19.8
122508	7	Sololá	704	Santa Lucía Utatlán 	7	Santa Rita 	10	Octubre	2023-11-10T00:00:00	2024-11-08T20:00:00	5	Humedad	98
122509	7	Sololá	704	Santa Lucía Utatlán 	7	Santa Rita 	10	Octubre	2023-11-10T00:00:00	2024-11-08T20:00:00	6	Velocidad del viento	0
122510	7	Sololá	704	Santa Lucía Utatlán 	7	Santa Rita 	10	Octubre	2023-11-10T00:00:00	2024-11-08T20:00:00	7	Dirección del viento	0
122511	7	Sololá	704	Santa Lucía Utatlán 	7	Santa Rita 	10	Octubre	2023-11-10T00:00:00	2024-11-08T20:00:00	1	Precipitación	0.2
122512	7	Sololá	704	Santa Lucía Utatlán 	7	Santa Rita 	10	Octubre	2023-11-10T00:00:00	2024-11-08T20:00:00	8	Radiación solar	0
122513	7	Sololá	704	Santa Lucía Utatlán 	7	Santa Rita 	10	Octubre	2023-11-10T00:00:00	2024-11-08T21:00:00	2	Temperatura media	19.5
122514	7	Sololá	704	Santa Lucía Utatlán 	7	Santa Rita 	10	Octubre	2023-11-10T00:00:00	2024-11-08T21:00:00	4	Temperatura máxima	19.9
122515	7	Sololá	704	Santa Lucía Utatlán 	7	Santa Rita 	10	Octubre	2023-11-10T00:00:00	2024-11-08T21:00:00	3	Temperatura mínima	19.4
122516	7	Sololá	704	Santa Lucía Utatlán 	7	Santa Rita 	10	Octubre	2023-11-10T00:00:00	2024-11-08T21:00:00	5	Humedad	98
122517	7	Sololá	704	Santa Lucía Utatlán 	7	Santa Rita 	10	Octubre	2023-11-10T00:00:00	2024-11-08T21:00:00	6	Velocidad del viento	0
122518	7	Sololá	704	Santa Lucía Utatlán 	7	Santa Rita 	10	Octubre	2023-11-10T00:00:00	2024-11-08T21:00:00	7	Dirección del viento	0
122519	7	Sololá	704	Santa Lucía Utatlán 	7	Santa Rita 	10	Octubre	2023-11-10T00:00:00	2024-11-08T21:00:00	1	Precipitación	0
122520	7	Sololá	704	Santa Lucía Utatlán 	7	Santa Rita 	10	Octubre	2023-11-10T00:00:00	2024-11-08T21:00:00	8	Radiación solar	0
122521	7	Sololá	704	Santa Lucía Utatlán 	7	Santa Rita 	10	Octubre	2023-11-10T00:00:00	2024-11-08T22:00:00	2	Temperatura media	19.6
122522	7	Sololá	704	Santa Lucía Utatlán 	7	Santa Rita 	10	Octubre	2023-11-10T00:00:00	2024-11-08T22:00:00	4	Temperatura máxima	19.6
122523	7	Sololá	704	Santa Lucía Utatlán 	7	Santa Rita 	10	Octubre	2023-11-10T00:00:00	2024-11-08T22:00:00	3	Temperatura mínima	19.5
122524	7	Sololá	704	Santa Lucía Utatlán 	7	Santa Rita 	10	Octubre	2023-11-10T00:00:00	2024-11-08T22:00:00	5	Humedad	98
122525	7	Sololá	704	Santa Lucía Utatlán 	7	Santa Rita 	10	Octubre	2023-11-10T00:00:00	2024-11-08T22:00:00	6	Velocidad del viento	0
122526	7	Sololá	704	Santa Lucía Utatlán 	7	Santa Rita 	10	Octubre	2023-11-10T00:00:00	2024-11-08T22:00:00	7	Dirección del viento	0
122527	7	Sololá	704	Santa Lucía Utatlán 	7	Santa Rita 	10	Octubre	2023-11-10T00:00:00	2024-11-08T22:00:00	1	Precipitación	0
122528	7	Sololá	704	Santa Lucía Utatlán 	7	Santa Rita 	10	Octubre	2023-11-10T00:00:00	2024-11-08T22:00:00	8	Radiación solar	0
122529	7	Sololá	704	Santa Lucía Utatlán 	7	Santa Rita 	10	Octubre	2023-11-10T00:00:00	2024-11-08T23:00:00	2	Temperatura media	19.1
122530	7	Sololá	704	Santa Lucía Utatlán 	7	Santa Rita 	10	Octubre	2023-11-10T00:00:00	2024-11-08T23:00:00	4	Temperatura máxima	19.6
122531	7	Sololá	704	Santa Lucía Utatlán 	7	Santa Rita 	10	Octubre	2023-11-10T00:00:00	2024-11-08T23:00:00	3	Temperatura mínima	19.1
122532	7	Sololá	704	Santa Lucía Utatlán 	7	Santa Rita 	10	Octubre	2023-11-10T00:00:00	2024-11-08T23:00:00	5	Humedad	98
122533	7	Sololá	704	Santa Lucía Utatlán 	7	Santa Rita 	10	Octubre	2023-11-10T00:00:00	2024-11-08T23:00:00	6	Velocidad del viento	0
122534	7	Sololá	704	Santa Lucía Utatlán 	7	Santa Rita 	10	Octubre	2023-11-10T00:00:00	2024-11-08T23:00:00	7	Dirección del viento	0
122535	7	Sololá	704	Santa Lucía Utatlán 	7	Santa Rita 	10	Octubre	2023-11-10T00:00:00	2024-11-08T23:00:00	1	Precipitación	0.2
122536	7	Sololá	704	Santa Lucía Utatlán 	7	Santa Rita 	10	Octubre	2023-11-10T00:00:00	2024-11-08T23:00:00	8	Radiación solar	0
122537	7	Sololá	704	Santa Lucía Utatlán 	7	Santa Rita 	10	Octubre	2023-12-10T00:00:00	2024-11-08T00:00:00	2	Temperatura media	17.9
122538	7	Sololá	704	Santa Lucía Utatlán 	7	Santa Rita 	10	Octubre	2023-12-10T00:00:00	2024-11-08T00:00:00	4	Temperatura máxima	19.2
122539	7	Sololá	704	Santa Lucía Utatlán 	7	Santa Rita 	10	Octubre	2023-12-10T00:00:00	2024-11-08T00:00:00	3	Temperatura mínima	17.9
122540	7	Sololá	704	Santa Lucía Utatlán 	7	Santa Rita 	10	Octubre	2023-12-10T00:00:00	2024-11-08T00:00:00	5	Humedad	95
122541	7	Sololá	704	Santa Lucía Utatlán 	7	Santa Rita 	10	Octubre	2023-12-10T00:00:00	2024-11-08T00:00:00	6	Velocidad del viento	1.6
122542	7	Sololá	704	Santa Lucía Utatlán 	7	Santa Rita 	10	Octubre	2023-12-10T00:00:00	2024-11-08T00:00:00	7	Dirección del viento	1.61
122543	7	Sololá	704	Santa Lucía Utatlán 	7	Santa Rita 	10	Octubre	2023-12-10T00:00:00	2024-11-08T00:00:00	1	Precipitación	0
122544	7	Sololá	704	Santa Lucía Utatlán 	7	Santa Rita 	10	Octubre	2023-12-10T00:00:00	2024-11-08T00:00:00	8	Radiación solar	0
122545	7	Sololá	704	Santa Lucía Utatlán 	7	Santa Rita 	10	Octubre	2023-12-10T00:00:00	2024-11-08T01:00:00	2	Temperatura media	17.1
122546	7	Sololá	704	Santa Lucía Utatlán 	7	Santa Rita 	10	Octubre	2023-12-10T00:00:00	2024-11-08T01:00:00	4	Temperatura máxima	17.9
122547	7	Sololá	704	Santa Lucía Utatlán 	7	Santa Rita 	10	Octubre	2023-12-10T00:00:00	2024-11-08T01:00:00	3	Temperatura mínima	16.7
122548	7	Sololá	704	Santa Lucía Utatlán 	7	Santa Rita 	10	Octubre	2023-12-10T00:00:00	2024-11-08T01:00:00	5	Humedad	93
122549	7	Sololá	704	Santa Lucía Utatlán 	7	Santa Rita 	10	Octubre	2023-12-10T00:00:00	2024-11-08T01:00:00	6	Velocidad del viento	4.8
122550	7	Sololá	704	Santa Lucía Utatlán 	7	Santa Rita 	10	Octubre	2023-12-10T00:00:00	2024-11-08T01:00:00	7	Dirección del viento	4.83
122551	7	Sololá	704	Santa Lucía Utatlán 	7	Santa Rita 	10	Octubre	2023-12-10T00:00:00	2024-11-08T01:00:00	1	Precipitación	0
122552	7	Sololá	704	Santa Lucía Utatlán 	7	Santa Rita 	10	Octubre	2023-12-10T00:00:00	2024-11-08T01:00:00	8	Radiación solar	0
122553	7	Sololá	704	Santa Lucía Utatlán 	7	Santa Rita 	10	Octubre	2023-12-10T00:00:00	2024-11-08T02:00:00	2	Temperatura media	20.8
122554	7	Sololá	704	Santa Lucía Utatlán 	7	Santa Rita 	10	Octubre	2023-12-10T00:00:00	2024-11-08T02:00:00	4	Temperatura máxima	20.8
122555	7	Sololá	704	Santa Lucía Utatlán 	7	Santa Rita 	10	Octubre	2023-12-10T00:00:00	2024-11-08T02:00:00	3	Temperatura mínima	17.1
122556	7	Sololá	704	Santa Lucía Utatlán 	7	Santa Rita 	10	Octubre	2023-12-10T00:00:00	2024-11-08T02:00:00	5	Humedad	88
122557	7	Sololá	704	Santa Lucía Utatlán 	7	Santa Rita 	10	Octubre	2023-12-10T00:00:00	2024-11-08T02:00:00	6	Velocidad del viento	1.6
122558	7	Sololá	704	Santa Lucía Utatlán 	7	Santa Rita 	10	Octubre	2023-12-10T00:00:00	2024-11-08T02:00:00	7	Dirección del viento	1.61
122559	7	Sololá	704	Santa Lucía Utatlán 	7	Santa Rita 	10	Octubre	2023-12-10T00:00:00	2024-11-08T02:00:00	1	Precipitación	0
122560	7	Sololá	704	Santa Lucía Utatlán 	7	Santa Rita 	10	Octubre	2023-12-10T00:00:00	2024-11-08T02:00:00	8	Radiación solar	0
122561	7	Sololá	704	Santa Lucía Utatlán 	7	Santa Rita 	10	Octubre	2023-12-10T00:00:00	2024-11-08T03:00:00	2	Temperatura media	24.3
122562	7	Sololá	704	Santa Lucía Utatlán 	7	Santa Rita 	10	Octubre	2023-12-10T00:00:00	2024-11-08T03:00:00	4	Temperatura máxima	24.3
122563	7	Sololá	704	Santa Lucía Utatlán 	7	Santa Rita 	10	Octubre	2023-12-10T00:00:00	2024-11-08T03:00:00	3	Temperatura mínima	20.8
122564	7	Sololá	704	Santa Lucía Utatlán 	7	Santa Rita 	10	Octubre	2023-12-10T00:00:00	2024-11-08T03:00:00	5	Humedad	76
122565	7	Sololá	704	Santa Lucía Utatlán 	7	Santa Rita 	10	Octubre	2023-12-10T00:00:00	2024-11-08T03:00:00	6	Velocidad del viento	1.6
122566	7	Sololá	704	Santa Lucía Utatlán 	7	Santa Rita 	10	Octubre	2023-12-10T00:00:00	2024-11-08T03:00:00	7	Dirección del viento	1.61
122567	7	Sololá	704	Santa Lucía Utatlán 	7	Santa Rita 	10	Octubre	2023-12-10T00:00:00	2024-11-08T03:00:00	1	Precipitación	0
122568	7	Sololá	704	Santa Lucía Utatlán 	7	Santa Rita 	10	Octubre	2023-12-10T00:00:00	2024-11-08T03:00:00	8	Radiación solar	0
122569	7	Sololá	704	Santa Lucía Utatlán 	7	Santa Rita 	10	Octubre	2023-12-10T00:00:00	2024-11-08T04:00:00	2	Temperatura media	24.4
122570	7	Sololá	704	Santa Lucía Utatlán 	7	Santa Rita 	10	Octubre	2023-12-10T00:00:00	2024-11-08T04:00:00	4	Temperatura máxima	25.2
122571	7	Sololá	704	Santa Lucía Utatlán 	7	Santa Rita 	10	Octubre	2023-12-10T00:00:00	2024-11-08T04:00:00	3	Temperatura mínima	24.3
122572	7	Sololá	704	Santa Lucía Utatlán 	7	Santa Rita 	10	Octubre	2023-12-10T00:00:00	2024-11-08T04:00:00	5	Humedad	73
122573	7	Sololá	704	Santa Lucía Utatlán 	7	Santa Rita 	10	Octubre	2023-12-10T00:00:00	2024-11-08T04:00:00	6	Velocidad del viento	4.8
122574	7	Sololá	704	Santa Lucía Utatlán 	7	Santa Rita 	10	Octubre	2023-12-10T00:00:00	2024-11-08T04:00:00	7	Dirección del viento	4.83
122575	7	Sololá	704	Santa Lucía Utatlán 	7	Santa Rita 	10	Octubre	2023-12-10T00:00:00	2024-11-08T04:00:00	1	Precipitación	0
122576	7	Sololá	704	Santa Lucía Utatlán 	7	Santa Rita 	10	Octubre	2023-12-10T00:00:00	2024-11-08T04:00:00	8	Radiación solar	0
122577	7	Sololá	704	Santa Lucía Utatlán 	7	Santa Rita 	10	Octubre	2023-12-10T00:00:00	2024-11-08T05:00:00	2	Temperatura media	24.4
122578	7	Sololá	704	Santa Lucía Utatlán 	7	Santa Rita 	10	Octubre	2023-12-10T00:00:00	2024-11-08T05:00:00	4	Temperatura máxima	24.5
122579	7	Sololá	704	Santa Lucía Utatlán 	7	Santa Rita 	10	Octubre	2023-12-10T00:00:00	2024-11-08T05:00:00	3	Temperatura mínima	24
122580	7	Sololá	704	Santa Lucía Utatlán 	7	Santa Rita 	10	Octubre	2023-12-10T00:00:00	2024-11-08T05:00:00	5	Humedad	80
122581	7	Sololá	704	Santa Lucía Utatlán 	7	Santa Rita 	10	Octubre	2023-12-10T00:00:00	2024-11-08T05:00:00	6	Velocidad del viento	4.8
122582	7	Sololá	704	Santa Lucía Utatlán 	7	Santa Rita 	10	Octubre	2023-12-10T00:00:00	2024-11-08T05:00:00	7	Dirección del viento	4.83
122583	7	Sololá	704	Santa Lucía Utatlán 	7	Santa Rita 	10	Octubre	2023-12-10T00:00:00	2024-11-08T05:00:00	1	Precipitación	0
122584	7	Sololá	704	Santa Lucía Utatlán 	7	Santa Rita 	10	Octubre	2023-12-10T00:00:00	2024-11-08T05:00:00	8	Radiación solar	0
122585	7	Sololá	704	Santa Lucía Utatlán 	7	Santa Rita 	10	Octubre	2023-12-10T00:00:00	2024-11-08T06:00:00	2	Temperatura media	25.8
122586	7	Sololá	704	Santa Lucía Utatlán 	7	Santa Rita 	10	Octubre	2023-12-10T00:00:00	2024-11-08T06:00:00	4	Temperatura máxima	26.1
122587	7	Sololá	704	Santa Lucía Utatlán 	7	Santa Rita 	10	Octubre	2023-12-10T00:00:00	2024-11-08T06:00:00	3	Temperatura mínima	24.4
122588	7	Sololá	704	Santa Lucía Utatlán 	7	Santa Rita 	10	Octubre	2023-12-10T00:00:00	2024-11-08T06:00:00	5	Humedad	72
122589	7	Sololá	704	Santa Lucía Utatlán 	7	Santa Rita 	10	Octubre	2023-12-10T00:00:00	2024-11-08T06:00:00	6	Velocidad del viento	4.8
122590	7	Sololá	704	Santa Lucía Utatlán 	7	Santa Rita 	10	Octubre	2023-12-10T00:00:00	2024-11-08T06:00:00	7	Dirección del viento	4.83
122591	7	Sololá	704	Santa Lucía Utatlán 	7	Santa Rita 	10	Octubre	2023-12-10T00:00:00	2024-11-08T06:00:00	1	Precipitación	0
122592	7	Sololá	704	Santa Lucía Utatlán 	7	Santa Rita 	10	Octubre	2023-12-10T00:00:00	2024-11-08T06:00:00	8	Radiación solar	8
122593	7	Sololá	704	Santa Lucía Utatlán 	7	Santa Rita 	10	Octubre	2023-12-10T00:00:00	2024-11-08T07:00:00	2	Temperatura media	25.8
122594	7	Sololá	704	Santa Lucía Utatlán 	7	Santa Rita 	10	Octubre	2023-12-10T00:00:00	2024-11-08T07:00:00	4	Temperatura máxima	25.9
122595	7	Sololá	704	Santa Lucía Utatlán 	7	Santa Rita 	10	Octubre	2023-12-10T00:00:00	2024-11-08T07:00:00	3	Temperatura mínima	25.6
122596	7	Sololá	704	Santa Lucía Utatlán 	7	Santa Rita 	10	Octubre	2023-12-10T00:00:00	2024-11-08T07:00:00	5	Humedad	70
122597	7	Sololá	704	Santa Lucía Utatlán 	7	Santa Rita 	10	Octubre	2023-12-10T00:00:00	2024-11-08T07:00:00	6	Velocidad del viento	4.8
122598	7	Sololá	704	Santa Lucía Utatlán 	7	Santa Rita 	10	Octubre	2023-12-10T00:00:00	2024-11-08T07:00:00	7	Dirección del viento	4.83
122599	7	Sololá	704	Santa Lucía Utatlán 	7	Santa Rita 	10	Octubre	2023-12-10T00:00:00	2024-11-08T07:00:00	1	Precipitación	0
122600	7	Sololá	704	Santa Lucía Utatlán 	7	Santa Rita 	10	Octubre	2023-12-10T00:00:00	2024-11-08T07:00:00	8	Radiación solar	155
122601	7	Sololá	704	Santa Lucía Utatlán 	7	Santa Rita 	10	Octubre	2023-12-10T00:00:00	2024-11-08T08:00:00	2	Temperatura media	25.9
122602	7	Sololá	704	Santa Lucía Utatlán 	7	Santa Rita 	10	Octubre	2023-12-10T00:00:00	2024-11-08T08:00:00	4	Temperatura máxima	26
122603	7	Sololá	704	Santa Lucía Utatlán 	7	Santa Rita 	10	Octubre	2023-12-10T00:00:00	2024-11-08T08:00:00	3	Temperatura mínima	25.2
122604	7	Sololá	704	Santa Lucía Utatlán 	7	Santa Rita 	10	Octubre	2023-12-10T00:00:00	2024-11-08T08:00:00	5	Humedad	72
122605	7	Sololá	704	Santa Lucía Utatlán 	7	Santa Rita 	10	Octubre	2023-12-10T00:00:00	2024-11-08T08:00:00	6	Velocidad del viento	4.8
122606	7	Sololá	704	Santa Lucía Utatlán 	7	Santa Rita 	10	Octubre	2023-12-10T00:00:00	2024-11-08T08:00:00	7	Dirección del viento	4.83
122607	7	Sololá	704	Santa Lucía Utatlán 	7	Santa Rita 	10	Octubre	2023-12-10T00:00:00	2024-11-08T08:00:00	1	Precipitación	0
122608	7	Sololá	704	Santa Lucía Utatlán 	7	Santa Rita 	10	Octubre	2023-12-10T00:00:00	2024-11-08T08:00:00	8	Radiación solar	426
122609	7	Sololá	704	Santa Lucía Utatlán 	7	Santa Rita 	10	Octubre	2023-12-10T00:00:00	2024-11-08T09:00:00	2	Temperatura media	24.3
122610	7	Sololá	704	Santa Lucía Utatlán 	7	Santa Rita 	10	Octubre	2023-12-10T00:00:00	2024-11-08T09:00:00	4	Temperatura máxima	26.1
122611	7	Sololá	704	Santa Lucía Utatlán 	7	Santa Rita 	10	Octubre	2023-12-10T00:00:00	2024-11-08T09:00:00	3	Temperatura mínima	24.3
122612	7	Sololá	704	Santa Lucía Utatlán 	7	Santa Rita 	10	Octubre	2023-12-10T00:00:00	2024-11-08T09:00:00	5	Humedad	80
122613	7	Sololá	704	Santa Lucía Utatlán 	7	Santa Rita 	10	Octubre	2023-12-10T00:00:00	2024-11-08T09:00:00	6	Velocidad del viento	4.8
122614	7	Sololá	704	Santa Lucía Utatlán 	7	Santa Rita 	10	Octubre	2023-12-10T00:00:00	2024-11-08T09:00:00	7	Dirección del viento	4.83
122615	7	Sololá	704	Santa Lucía Utatlán 	7	Santa Rita 	10	Octubre	2023-12-10T00:00:00	2024-11-08T09:00:00	1	Precipitación	0
122616	7	Sololá	704	Santa Lucía Utatlán 	7	Santa Rita 	10	Octubre	2023-12-10T00:00:00	2024-11-08T09:00:00	8	Radiación solar	560
122617	7	Sololá	704	Santa Lucía Utatlán 	7	Santa Rita 	10	Octubre	2023-12-10T00:00:00	2024-11-08T10:00:00	2	Temperatura media	21.7
122618	7	Sololá	704	Santa Lucía Utatlán 	7	Santa Rita 	10	Octubre	2023-12-10T00:00:00	2024-11-08T10:00:00	4	Temperatura máxima	24.3
122619	7	Sololá	704	Santa Lucía Utatlán 	7	Santa Rita 	10	Octubre	2023-12-10T00:00:00	2024-11-08T10:00:00	3	Temperatura mínima	21.6
122620	7	Sololá	704	Santa Lucía Utatlán 	7	Santa Rita 	10	Octubre	2023-12-10T00:00:00	2024-11-08T10:00:00	5	Humedad	94
122621	7	Sololá	704	Santa Lucía Utatlán 	7	Santa Rita 	10	Octubre	2023-12-10T00:00:00	2024-11-08T10:00:00	6	Velocidad del viento	6.4
122622	7	Sololá	704	Santa Lucía Utatlán 	7	Santa Rita 	10	Octubre	2023-12-10T00:00:00	2024-11-08T10:00:00	7	Dirección del viento	6.44
122623	7	Sololá	704	Santa Lucía Utatlán 	7	Santa Rita 	10	Octubre	2023-12-10T00:00:00	2024-11-08T10:00:00	1	Precipitación	0
122624	7	Sololá	704	Santa Lucía Utatlán 	7	Santa Rita 	10	Octubre	2023-12-10T00:00:00	2024-11-08T10:00:00	8	Radiación solar	574
122625	7	Sololá	704	Santa Lucía Utatlán 	7	Santa Rita 	10	Octubre	2023-12-10T00:00:00	2024-11-08T11:00:00	2	Temperatura media	21.8
122626	7	Sololá	704	Santa Lucía Utatlán 	7	Santa Rita 	10	Octubre	2023-12-10T00:00:00	2024-11-08T11:00:00	4	Temperatura máxima	21.8
122627	7	Sololá	704	Santa Lucía Utatlán 	7	Santa Rita 	10	Octubre	2023-12-10T00:00:00	2024-11-08T11:00:00	3	Temperatura mínima	21.3
122628	7	Sololá	704	Santa Lucía Utatlán 	7	Santa Rita 	10	Octubre	2023-12-10T00:00:00	2024-11-08T11:00:00	5	Humedad	95
122629	7	Sololá	704	Santa Lucía Utatlán 	7	Santa Rita 	10	Octubre	2023-12-10T00:00:00	2024-11-08T11:00:00	6	Velocidad del viento	3.2
122630	7	Sololá	704	Santa Lucía Utatlán 	7	Santa Rita 	10	Octubre	2023-12-10T00:00:00	2024-11-08T11:00:00	7	Dirección del viento	3.22
122631	7	Sololá	704	Santa Lucía Utatlán 	7	Santa Rita 	10	Octubre	2023-12-10T00:00:00	2024-11-08T11:00:00	1	Precipitación	1.8
122632	7	Sololá	704	Santa Lucía Utatlán 	7	Santa Rita 	10	Octubre	2023-12-10T00:00:00	2024-11-08T11:00:00	8	Radiación solar	800
122633	7	Sololá	704	Santa Lucía Utatlán 	7	Santa Rita 	10	Octubre	2023-12-10T00:00:00	2024-11-08T12:00:00	2	Temperatura media	21.3
122634	7	Sololá	704	Santa Lucía Utatlán 	7	Santa Rita 	10	Octubre	2023-12-10T00:00:00	2024-11-08T12:00:00	4	Temperatura máxima	21.9
122635	7	Sololá	704	Santa Lucía Utatlán 	7	Santa Rita 	10	Octubre	2023-12-10T00:00:00	2024-11-08T12:00:00	3	Temperatura mínima	21.3
122636	7	Sololá	704	Santa Lucía Utatlán 	7	Santa Rita 	10	Octubre	2023-12-10T00:00:00	2024-11-08T12:00:00	5	Humedad	95
122637	7	Sololá	704	Santa Lucía Utatlán 	7	Santa Rita 	10	Octubre	2023-12-10T00:00:00	2024-11-08T12:00:00	6	Velocidad del viento	1.6
122638	7	Sololá	704	Santa Lucía Utatlán 	7	Santa Rita 	10	Octubre	2023-12-10T00:00:00	2024-11-08T12:00:00	7	Dirección del viento	1.61
122639	7	Sololá	704	Santa Lucía Utatlán 	7	Santa Rita 	10	Octubre	2023-12-10T00:00:00	2024-11-08T12:00:00	1	Precipitación	0
122640	7	Sololá	704	Santa Lucía Utatlán 	7	Santa Rita 	10	Octubre	2023-12-10T00:00:00	2024-11-08T12:00:00	8	Radiación solar	699
122641	7	Sololá	704	Santa Lucía Utatlán 	7	Santa Rita 	10	Octubre	2023-12-10T00:00:00	2024-11-08T13:00:00	2	Temperatura media	20.9
122642	7	Sololá	704	Santa Lucía Utatlán 	7	Santa Rita 	10	Octubre	2023-12-10T00:00:00	2024-11-08T13:00:00	4	Temperatura máxima	21.3
122643	7	Sololá	704	Santa Lucía Utatlán 	7	Santa Rita 	10	Octubre	2023-12-10T00:00:00	2024-11-08T13:00:00	3	Temperatura mínima	20.9
122644	7	Sololá	704	Santa Lucía Utatlán 	7	Santa Rita 	10	Octubre	2023-12-10T00:00:00	2024-11-08T13:00:00	5	Humedad	97
122645	7	Sololá	704	Santa Lucía Utatlán 	7	Santa Rita 	10	Octubre	2023-12-10T00:00:00	2024-11-08T13:00:00	6	Velocidad del viento	1.6
122646	7	Sololá	704	Santa Lucía Utatlán 	7	Santa Rita 	10	Octubre	2023-12-10T00:00:00	2024-11-08T13:00:00	7	Dirección del viento	1.61
122647	7	Sololá	704	Santa Lucía Utatlán 	7	Santa Rita 	10	Octubre	2023-12-10T00:00:00	2024-11-08T13:00:00	1	Precipitación	4.2
122648	7	Sololá	704	Santa Lucía Utatlán 	7	Santa Rita 	10	Octubre	2023-12-10T00:00:00	2024-11-08T13:00:00	8	Radiación solar	615
122649	7	Sololá	704	Santa Lucía Utatlán 	7	Santa Rita 	10	Octubre	2023-12-10T00:00:00	2024-11-08T14:00:00	2	Temperatura media	21.1
122650	7	Sololá	704	Santa Lucía Utatlán 	7	Santa Rita 	10	Octubre	2023-12-10T00:00:00	2024-11-08T14:00:00	4	Temperatura máxima	21.1
122651	7	Sololá	704	Santa Lucía Utatlán 	7	Santa Rita 	10	Octubre	2023-12-10T00:00:00	2024-11-08T14:00:00	3	Temperatura mínima	20.8
122652	7	Sololá	704	Santa Lucía Utatlán 	7	Santa Rita 	10	Octubre	2023-12-10T00:00:00	2024-11-08T14:00:00	5	Humedad	97
122653	7	Sololá	704	Santa Lucía Utatlán 	7	Santa Rita 	10	Octubre	2023-12-10T00:00:00	2024-11-08T14:00:00	6	Velocidad del viento	1.6
122654	7	Sololá	704	Santa Lucía Utatlán 	7	Santa Rita 	10	Octubre	2023-12-10T00:00:00	2024-11-08T14:00:00	7	Dirección del viento	1.61
122655	7	Sololá	704	Santa Lucía Utatlán 	7	Santa Rita 	10	Octubre	2023-12-10T00:00:00	2024-11-08T14:00:00	1	Precipitación	0
122656	7	Sololá	704	Santa Lucía Utatlán 	7	Santa Rita 	10	Octubre	2023-12-10T00:00:00	2024-11-08T14:00:00	8	Radiación solar	349
122657	7	Sololá	704	Santa Lucía Utatlán 	7	Santa Rita 	10	Octubre	2023-12-10T00:00:00	2024-11-08T15:00:00	2	Temperatura media	21
122658	7	Sololá	704	Santa Lucía Utatlán 	7	Santa Rita 	10	Octubre	2023-12-10T00:00:00	2024-11-08T15:00:00	4	Temperatura máxima	21.1
122659	7	Sololá	704	Santa Lucía Utatlán 	7	Santa Rita 	10	Octubre	2023-12-10T00:00:00	2024-11-08T15:00:00	3	Temperatura mínima	20.9
122660	7	Sololá	704	Santa Lucía Utatlán 	7	Santa Rita 	10	Octubre	2023-12-10T00:00:00	2024-11-08T15:00:00	5	Humedad	97
122661	7	Sololá	704	Santa Lucía Utatlán 	7	Santa Rita 	10	Octubre	2023-12-10T00:00:00	2024-11-08T15:00:00	6	Velocidad del viento	1.6
122662	7	Sololá	704	Santa Lucía Utatlán 	7	Santa Rita 	10	Octubre	2023-12-10T00:00:00	2024-11-08T15:00:00	7	Dirección del viento	1.61
122663	7	Sololá	704	Santa Lucía Utatlán 	7	Santa Rita 	10	Octubre	2023-12-10T00:00:00	2024-11-08T15:00:00	1	Precipitación	0
122664	7	Sololá	704	Santa Lucía Utatlán 	7	Santa Rita 	10	Octubre	2023-12-10T00:00:00	2024-11-08T15:00:00	8	Radiación solar	131
122665	7	Sololá	704	Santa Lucía Utatlán 	7	Santa Rita 	10	Octubre	2023-12-10T00:00:00	2024-11-08T16:00:00	2	Temperatura media	20.7
122666	7	Sololá	704	Santa Lucía Utatlán 	7	Santa Rita 	10	Octubre	2023-12-10T00:00:00	2024-11-08T16:00:00	4	Temperatura máxima	21
122667	7	Sololá	704	Santa Lucía Utatlán 	7	Santa Rita 	10	Octubre	2023-12-10T00:00:00	2024-11-08T16:00:00	3	Temperatura mínima	20.6
122668	7	Sololá	704	Santa Lucía Utatlán 	7	Santa Rita 	10	Octubre	2023-12-10T00:00:00	2024-11-08T16:00:00	5	Humedad	96
122669	7	Sololá	704	Santa Lucía Utatlán 	7	Santa Rita 	10	Octubre	2023-12-10T00:00:00	2024-11-08T16:00:00	6	Velocidad del viento	1.6
122670	7	Sololá	704	Santa Lucía Utatlán 	7	Santa Rita 	10	Octubre	2023-12-10T00:00:00	2024-11-08T16:00:00	7	Dirección del viento	1.61
122671	7	Sololá	704	Santa Lucía Utatlán 	7	Santa Rita 	10	Octubre	2023-12-10T00:00:00	2024-11-08T16:00:00	1	Precipitación	0
122672	7	Sololá	704	Santa Lucía Utatlán 	7	Santa Rita 	10	Octubre	2023-12-10T00:00:00	2024-11-08T16:00:00	8	Radiación solar	84
122673	7	Sololá	704	Santa Lucía Utatlán 	7	Santa Rita 	10	Octubre	2023-12-10T00:00:00	2024-11-08T17:00:00	2	Temperatura media	19.7
122674	7	Sololá	704	Santa Lucía Utatlán 	7	Santa Rita 	10	Octubre	2023-12-10T00:00:00	2024-11-08T17:00:00	4	Temperatura máxima	20.7
122675	7	Sololá	704	Santa Lucía Utatlán 	7	Santa Rita 	10	Octubre	2023-12-10T00:00:00	2024-11-08T17:00:00	3	Temperatura mínima	19.7
122676	7	Sololá	704	Santa Lucía Utatlán 	7	Santa Rita 	10	Octubre	2023-12-10T00:00:00	2024-11-08T17:00:00	5	Humedad	96
122677	7	Sololá	704	Santa Lucía Utatlán 	7	Santa Rita 	10	Octubre	2023-12-10T00:00:00	2024-11-08T17:00:00	6	Velocidad del viento	3.2
122678	7	Sololá	704	Santa Lucía Utatlán 	7	Santa Rita 	10	Octubre	2023-12-10T00:00:00	2024-11-08T17:00:00	7	Dirección del viento	3.22
122679	7	Sololá	704	Santa Lucía Utatlán 	7	Santa Rita 	10	Octubre	2023-12-10T00:00:00	2024-11-08T17:00:00	1	Precipitación	0.2
122680	7	Sololá	704	Santa Lucía Utatlán 	7	Santa Rita 	10	Octubre	2023-12-10T00:00:00	2024-11-08T17:00:00	8	Radiación solar	21
122681	7	Sololá	704	Santa Lucía Utatlán 	7	Santa Rita 	10	Octubre	2023-12-10T00:00:00	2024-11-08T18:00:00	2	Temperatura media	18.9
122682	7	Sololá	704	Santa Lucía Utatlán 	7	Santa Rita 	10	Octubre	2023-12-10T00:00:00	2024-11-08T18:00:00	4	Temperatura máxima	19.7
122683	7	Sololá	704	Santa Lucía Utatlán 	7	Santa Rita 	10	Octubre	2023-12-10T00:00:00	2024-11-08T18:00:00	3	Temperatura mínima	18.9
122684	7	Sololá	704	Santa Lucía Utatlán 	7	Santa Rita 	10	Octubre	2023-12-10T00:00:00	2024-11-08T18:00:00	5	Humedad	96
122685	7	Sololá	704	Santa Lucía Utatlán 	7	Santa Rita 	10	Octubre	2023-12-10T00:00:00	2024-11-08T18:00:00	6	Velocidad del viento	1.6
122686	7	Sololá	704	Santa Lucía Utatlán 	7	Santa Rita 	10	Octubre	2023-12-10T00:00:00	2024-11-08T18:00:00	7	Dirección del viento	1.61
122687	7	Sololá	704	Santa Lucía Utatlán 	7	Santa Rita 	10	Octubre	2023-12-10T00:00:00	2024-11-08T18:00:00	1	Precipitación	0
122688	7	Sololá	704	Santa Lucía Utatlán 	7	Santa Rita 	10	Octubre	2023-12-10T00:00:00	2024-11-08T18:00:00	8	Radiación solar	0
122689	7	Sololá	704	Santa Lucía Utatlán 	7	Santa Rita 	10	Octubre	2023-12-10T00:00:00	2024-11-08T19:00:00	2	Temperatura media	19.1
122690	7	Sololá	704	Santa Lucía Utatlán 	7	Santa Rita 	10	Octubre	2023-12-10T00:00:00	2024-11-08T19:00:00	4	Temperatura máxima	19.1
122691	7	Sololá	704	Santa Lucía Utatlán 	7	Santa Rita 	10	Octubre	2023-12-10T00:00:00	2024-11-08T19:00:00	3	Temperatura mínima	18.6
122692	7	Sololá	704	Santa Lucía Utatlán 	7	Santa Rita 	10	Octubre	2023-12-10T00:00:00	2024-11-08T19:00:00	5	Humedad	97
122693	7	Sololá	704	Santa Lucía Utatlán 	7	Santa Rita 	10	Octubre	2023-12-10T00:00:00	2024-11-08T19:00:00	6	Velocidad del viento	3.2
122694	7	Sololá	704	Santa Lucía Utatlán 	7	Santa Rita 	10	Octubre	2023-12-10T00:00:00	2024-11-08T19:00:00	7	Dirección del viento	3.22
122695	7	Sololá	704	Santa Lucía Utatlán 	7	Santa Rita 	10	Octubre	2023-12-10T00:00:00	2024-11-08T19:00:00	1	Precipitación	0
122696	7	Sololá	704	Santa Lucía Utatlán 	7	Santa Rita 	10	Octubre	2023-12-10T00:00:00	2024-11-08T19:00:00	8	Radiación solar	0
122697	7	Sololá	704	Santa Lucía Utatlán 	7	Santa Rita 	10	Octubre	2023-12-10T00:00:00	2024-11-08T20:00:00	2	Temperatura media	19.3
122698	7	Sololá	704	Santa Lucía Utatlán 	7	Santa Rita 	10	Octubre	2023-12-10T00:00:00	2024-11-08T20:00:00	4	Temperatura máxima	19.4
122699	7	Sololá	704	Santa Lucía Utatlán 	7	Santa Rita 	10	Octubre	2023-12-10T00:00:00	2024-11-08T20:00:00	3	Temperatura mínima	19.1
122700	7	Sololá	704	Santa Lucía Utatlán 	7	Santa Rita 	10	Octubre	2023-12-10T00:00:00	2024-11-08T20:00:00	5	Humedad	97
122701	7	Sololá	704	Santa Lucía Utatlán 	7	Santa Rita 	10	Octubre	2023-12-10T00:00:00	2024-11-08T20:00:00	6	Velocidad del viento	1.6
122702	7	Sololá	704	Santa Lucía Utatlán 	7	Santa Rita 	10	Octubre	2023-12-10T00:00:00	2024-11-08T20:00:00	7	Dirección del viento	1.61
122703	7	Sololá	704	Santa Lucía Utatlán 	7	Santa Rita 	10	Octubre	2023-12-10T00:00:00	2024-11-08T20:00:00	1	Precipitación	0
122704	7	Sololá	704	Santa Lucía Utatlán 	7	Santa Rita 	10	Octubre	2023-12-10T00:00:00	2024-11-08T20:00:00	8	Radiación solar	0
122705	7	Sololá	704	Santa Lucía Utatlán 	7	Santa Rita 	10	Octubre	2023-12-10T00:00:00	2024-11-08T21:00:00	2	Temperatura media	18.4
122706	7	Sololá	704	Santa Lucía Utatlán 	7	Santa Rita 	10	Octubre	2023-12-10T00:00:00	2024-11-08T21:00:00	4	Temperatura máxima	19.3
122707	7	Sololá	704	Santa Lucía Utatlán 	7	Santa Rita 	10	Octubre	2023-12-10T00:00:00	2024-11-08T21:00:00	3	Temperatura mínima	18.4
122708	7	Sololá	704	Santa Lucía Utatlán 	7	Santa Rita 	10	Octubre	2023-12-10T00:00:00	2024-11-08T21:00:00	5	Humedad	96
122709	7	Sololá	704	Santa Lucía Utatlán 	7	Santa Rita 	10	Octubre	2023-12-10T00:00:00	2024-11-08T21:00:00	6	Velocidad del viento	1.6
122710	7	Sololá	704	Santa Lucía Utatlán 	7	Santa Rita 	10	Octubre	2023-12-10T00:00:00	2024-11-08T21:00:00	7	Dirección del viento	1.61
122711	7	Sololá	704	Santa Lucía Utatlán 	7	Santa Rita 	10	Octubre	2023-12-10T00:00:00	2024-11-08T21:00:00	1	Precipitación	0
122712	7	Sololá	704	Santa Lucía Utatlán 	7	Santa Rita 	10	Octubre	2023-12-10T00:00:00	2024-11-08T21:00:00	8	Radiación solar	0
122713	7	Sololá	704	Santa Lucía Utatlán 	7	Santa Rita 	10	Octubre	2023-12-10T00:00:00	2024-11-08T22:00:00	2	Temperatura media	18.2
122714	7	Sololá	704	Santa Lucía Utatlán 	7	Santa Rita 	10	Octubre	2023-12-10T00:00:00	2024-11-08T22:00:00	4	Temperatura máxima	18.5
122715	7	Sololá	704	Santa Lucía Utatlán 	7	Santa Rita 	10	Octubre	2023-12-10T00:00:00	2024-11-08T22:00:00	3	Temperatura mínima	18.2
122716	7	Sololá	704	Santa Lucía Utatlán 	7	Santa Rita 	10	Octubre	2023-12-10T00:00:00	2024-11-08T22:00:00	5	Humedad	96
122717	7	Sololá	704	Santa Lucía Utatlán 	7	Santa Rita 	10	Octubre	2023-12-10T00:00:00	2024-11-08T22:00:00	6	Velocidad del viento	3.2
122718	7	Sololá	704	Santa Lucía Utatlán 	7	Santa Rita 	10	Octubre	2023-12-10T00:00:00	2024-11-08T22:00:00	7	Dirección del viento	3.22
122719	7	Sololá	704	Santa Lucía Utatlán 	7	Santa Rita 	10	Octubre	2023-12-10T00:00:00	2024-11-08T22:00:00	1	Precipitación	0
122720	7	Sololá	704	Santa Lucía Utatlán 	7	Santa Rita 	10	Octubre	2023-12-10T00:00:00	2024-11-08T22:00:00	8	Radiación solar	0
122721	7	Sololá	704	Santa Lucía Utatlán 	7	Santa Rita 	10	Octubre	2023-12-10T00:00:00	2024-11-08T23:00:00	2	Temperatura media	17.7
122722	7	Sololá	704	Santa Lucía Utatlán 	7	Santa Rita 	10	Octubre	2023-12-10T00:00:00	2024-11-08T23:00:00	4	Temperatura máxima	18.3
122723	7	Sololá	704	Santa Lucía Utatlán 	7	Santa Rita 	10	Octubre	2023-12-10T00:00:00	2024-11-08T23:00:00	3	Temperatura mínima	17.7
122724	7	Sololá	704	Santa Lucía Utatlán 	7	Santa Rita 	10	Octubre	2023-12-10T00:00:00	2024-11-08T23:00:00	5	Humedad	95
122725	7	Sololá	704	Santa Lucía Utatlán 	7	Santa Rita 	10	Octubre	2023-12-10T00:00:00	2024-11-08T23:00:00	6	Velocidad del viento	3.2
122726	7	Sololá	704	Santa Lucía Utatlán 	7	Santa Rita 	10	Octubre	2023-12-10T00:00:00	2024-11-08T23:00:00	7	Dirección del viento	3.22
122727	7	Sololá	704	Santa Lucía Utatlán 	7	Santa Rita 	10	Octubre	2023-12-10T00:00:00	2024-11-08T23:00:00	1	Precipitación	0
122728	7	Sololá	704	Santa Lucía Utatlán 	7	Santa Rita 	10	Octubre	2023-12-10T00:00:00	2024-11-08T23:00:00	8	Radiación solar	0
122729	7	Sololá	704	Santa Lucía Utatlán 	7	Santa Rita 	10	Octubre	2023-10-13T00:00:00	2024-11-08T00:00:00	2	Temperatura media	17.6
122730	7	Sololá	704	Santa Lucía Utatlán 	7	Santa Rita 	10	Octubre	2023-10-13T00:00:00	2024-11-08T00:00:00	4	Temperatura máxima	17.8
122731	7	Sololá	704	Santa Lucía Utatlán 	7	Santa Rita 	10	Octubre	2023-10-13T00:00:00	2024-11-08T00:00:00	3	Temperatura mínima	17.6
122732	7	Sololá	704	Santa Lucía Utatlán 	7	Santa Rita 	10	Octubre	2023-10-13T00:00:00	2024-11-08T00:00:00	5	Humedad	95
122733	7	Sololá	704	Santa Lucía Utatlán 	7	Santa Rita 	10	Octubre	2023-10-13T00:00:00	2024-11-08T00:00:00	6	Velocidad del viento	3.2
122734	7	Sololá	704	Santa Lucía Utatlán 	7	Santa Rita 	10	Octubre	2023-10-13T00:00:00	2024-11-08T00:00:00	7	Dirección del viento	3.22
122735	7	Sololá	704	Santa Lucía Utatlán 	7	Santa Rita 	10	Octubre	2023-10-13T00:00:00	2024-11-08T00:00:00	1	Precipitación	0
122736	7	Sololá	704	Santa Lucía Utatlán 	7	Santa Rita 	10	Octubre	2023-10-13T00:00:00	2024-11-08T00:00:00	8	Radiación solar	0
122737	7	Sololá	704	Santa Lucía Utatlán 	7	Santa Rita 	10	Octubre	2023-10-13T00:00:00	2024-11-08T01:00:00	2	Temperatura media	17.7
122738	7	Sololá	704	Santa Lucía Utatlán 	7	Santa Rita 	10	Octubre	2023-10-13T00:00:00	2024-11-08T01:00:00	4	Temperatura máxima	17.7
122739	7	Sololá	704	Santa Lucía Utatlán 	7	Santa Rita 	10	Octubre	2023-10-13T00:00:00	2024-11-08T01:00:00	3	Temperatura mínima	17.5
122740	7	Sololá	704	Santa Lucía Utatlán 	7	Santa Rita 	10	Octubre	2023-10-13T00:00:00	2024-11-08T01:00:00	5	Humedad	95
122741	7	Sololá	704	Santa Lucía Utatlán 	7	Santa Rita 	10	Octubre	2023-10-13T00:00:00	2024-11-08T01:00:00	6	Velocidad del viento	3.2
122742	7	Sololá	704	Santa Lucía Utatlán 	7	Santa Rita 	10	Octubre	2023-10-13T00:00:00	2024-11-08T01:00:00	7	Dirección del viento	3.22
122743	7	Sololá	704	Santa Lucía Utatlán 	7	Santa Rita 	10	Octubre	2023-10-13T00:00:00	2024-11-08T01:00:00	1	Precipitación	0
122744	7	Sololá	704	Santa Lucía Utatlán 	7	Santa Rita 	10	Octubre	2023-10-13T00:00:00	2024-11-08T01:00:00	8	Radiación solar	0
122745	7	Sololá	704	Santa Lucía Utatlán 	7	Santa Rita 	10	Octubre	2023-10-13T00:00:00	2024-11-08T02:00:00	2	Temperatura media	20.8
122746	7	Sololá	704	Santa Lucía Utatlán 	7	Santa Rita 	10	Octubre	2023-10-13T00:00:00	2024-11-08T02:00:00	4	Temperatura máxima	20.8
122747	7	Sololá	704	Santa Lucía Utatlán 	7	Santa Rita 	10	Octubre	2023-10-13T00:00:00	2024-11-08T02:00:00	3	Temperatura mínima	17.7
122748	7	Sololá	704	Santa Lucía Utatlán 	7	Santa Rita 	10	Octubre	2023-10-13T00:00:00	2024-11-08T02:00:00	5	Humedad	87
122749	7	Sololá	704	Santa Lucía Utatlán 	7	Santa Rita 	10	Octubre	2023-10-13T00:00:00	2024-11-08T02:00:00	6	Velocidad del viento	3.2
122750	7	Sololá	704	Santa Lucía Utatlán 	7	Santa Rita 	10	Octubre	2023-10-13T00:00:00	2024-11-08T02:00:00	7	Dirección del viento	3.22
122751	7	Sololá	704	Santa Lucía Utatlán 	7	Santa Rita 	10	Octubre	2023-10-13T00:00:00	2024-11-08T02:00:00	1	Precipitación	0
122752	7	Sololá	704	Santa Lucía Utatlán 	7	Santa Rita 	10	Octubre	2023-10-13T00:00:00	2024-11-08T02:00:00	8	Radiación solar	0
122753	7	Sololá	704	Santa Lucía Utatlán 	7	Santa Rita 	10	Octubre	2023-10-13T00:00:00	2024-11-08T03:00:00	2	Temperatura media	24.2
122754	7	Sololá	704	Santa Lucía Utatlán 	7	Santa Rita 	10	Octubre	2023-10-13T00:00:00	2024-11-08T03:00:00	4	Temperatura máxima	24.2
122755	7	Sololá	704	Santa Lucía Utatlán 	7	Santa Rita 	10	Octubre	2023-10-13T00:00:00	2024-11-08T03:00:00	3	Temperatura mínima	20.8
122756	7	Sololá	704	Santa Lucía Utatlán 	7	Santa Rita 	10	Octubre	2023-10-13T00:00:00	2024-11-08T03:00:00	5	Humedad	81
122757	7	Sololá	704	Santa Lucía Utatlán 	7	Santa Rita 	10	Octubre	2023-10-13T00:00:00	2024-11-08T03:00:00	6	Velocidad del viento	1.6
122758	7	Sololá	704	Santa Lucía Utatlán 	7	Santa Rita 	10	Octubre	2023-10-13T00:00:00	2024-11-08T03:00:00	7	Dirección del viento	1.61
122759	7	Sololá	704	Santa Lucía Utatlán 	7	Santa Rita 	10	Octubre	2023-10-13T00:00:00	2024-11-08T03:00:00	1	Precipitación	0
122760	7	Sololá	704	Santa Lucía Utatlán 	7	Santa Rita 	10	Octubre	2023-10-13T00:00:00	2024-11-08T03:00:00	8	Radiación solar	0
122761	7	Sololá	704	Santa Lucía Utatlán 	7	Santa Rita 	10	Octubre	2023-10-13T00:00:00	2024-11-08T04:00:00	2	Temperatura media	25.7
122762	7	Sololá	704	Santa Lucía Utatlán 	7	Santa Rita 	10	Octubre	2023-10-13T00:00:00	2024-11-08T04:00:00	4	Temperatura máxima	25.9
122763	7	Sololá	704	Santa Lucía Utatlán 	7	Santa Rita 	10	Octubre	2023-10-13T00:00:00	2024-11-08T04:00:00	3	Temperatura mínima	24.2
122764	7	Sololá	704	Santa Lucía Utatlán 	7	Santa Rita 	10	Octubre	2023-10-13T00:00:00	2024-11-08T04:00:00	5	Humedad	62
122765	7	Sololá	704	Santa Lucía Utatlán 	7	Santa Rita 	10	Octubre	2023-10-13T00:00:00	2024-11-08T04:00:00	6	Velocidad del viento	4.8
122766	7	Sololá	704	Santa Lucía Utatlán 	7	Santa Rita 	10	Octubre	2023-10-13T00:00:00	2024-11-08T04:00:00	7	Dirección del viento	4.83
122767	7	Sololá	704	Santa Lucía Utatlán 	7	Santa Rita 	10	Octubre	2023-10-13T00:00:00	2024-11-08T04:00:00	1	Precipitación	0
122768	7	Sololá	704	Santa Lucía Utatlán 	7	Santa Rita 	10	Octubre	2023-10-13T00:00:00	2024-11-08T04:00:00	8	Radiación solar	0
122769	7	Sololá	704	Santa Lucía Utatlán 	7	Santa Rita 	10	Octubre	2023-10-13T00:00:00	2024-11-08T05:00:00	2	Temperatura media	26.1
122770	7	Sololá	704	Santa Lucía Utatlán 	7	Santa Rita 	10	Octubre	2023-10-13T00:00:00	2024-11-08T05:00:00	4	Temperatura máxima	26.6
122771	7	Sololá	704	Santa Lucía Utatlán 	7	Santa Rita 	10	Octubre	2023-10-13T00:00:00	2024-11-08T05:00:00	3	Temperatura mínima	25.5
122772	7	Sololá	704	Santa Lucía Utatlán 	7	Santa Rita 	10	Octubre	2023-10-13T00:00:00	2024-11-08T05:00:00	5	Humedad	72
122773	7	Sololá	704	Santa Lucía Utatlán 	7	Santa Rita 	10	Octubre	2023-10-13T00:00:00	2024-11-08T05:00:00	6	Velocidad del viento	8
122774	7	Sololá	704	Santa Lucía Utatlán 	7	Santa Rita 	10	Octubre	2023-10-13T00:00:00	2024-11-08T05:00:00	7	Dirección del viento	8.05
122775	7	Sololá	704	Santa Lucía Utatlán 	7	Santa Rita 	10	Octubre	2023-10-13T00:00:00	2024-11-08T05:00:00	1	Precipitación	0
122776	7	Sololá	704	Santa Lucía Utatlán 	7	Santa Rita 	10	Octubre	2023-10-13T00:00:00	2024-11-08T05:00:00	8	Radiación solar	0
122777	7	Sololá	704	Santa Lucía Utatlán 	7	Santa Rita 	10	Octubre	2023-10-13T00:00:00	2024-11-08T06:00:00	2	Temperatura media	25.8
122778	7	Sololá	704	Santa Lucía Utatlán 	7	Santa Rita 	10	Octubre	2023-10-13T00:00:00	2024-11-08T06:00:00	4	Temperatura máxima	26.1
122779	7	Sololá	704	Santa Lucía Utatlán 	7	Santa Rita 	10	Octubre	2023-10-13T00:00:00	2024-11-08T06:00:00	3	Temperatura mínima	25.5
122780	7	Sololá	704	Santa Lucía Utatlán 	7	Santa Rita 	10	Octubre	2023-10-13T00:00:00	2024-11-08T06:00:00	5	Humedad	74
122781	7	Sololá	704	Santa Lucía Utatlán 	7	Santa Rita 	10	Octubre	2023-10-13T00:00:00	2024-11-08T06:00:00	6	Velocidad del viento	8
122782	7	Sololá	704	Santa Lucía Utatlán 	7	Santa Rita 	10	Octubre	2023-10-13T00:00:00	2024-11-08T06:00:00	7	Dirección del viento	8.05
122783	7	Sololá	704	Santa Lucía Utatlán 	7	Santa Rita 	10	Octubre	2023-10-13T00:00:00	2024-11-08T06:00:00	1	Precipitación	0
122784	7	Sololá	704	Santa Lucía Utatlán 	7	Santa Rita 	10	Octubre	2023-10-13T00:00:00	2024-11-08T06:00:00	8	Radiación solar	8
122785	7	Sololá	704	Santa Lucía Utatlán 	7	Santa Rita 	10	Octubre	2023-10-13T00:00:00	2024-11-08T07:00:00	2	Temperatura media	23
122786	7	Sololá	704	Santa Lucía Utatlán 	7	Santa Rita 	10	Octubre	2023-10-13T00:00:00	2024-11-08T07:00:00	4	Temperatura máxima	25.8
122787	7	Sololá	704	Santa Lucía Utatlán 	7	Santa Rita 	10	Octubre	2023-10-13T00:00:00	2024-11-08T07:00:00	3	Temperatura mínima	23
122788	7	Sololá	704	Santa Lucía Utatlán 	7	Santa Rita 	10	Octubre	2023-10-13T00:00:00	2024-11-08T07:00:00	5	Humedad	86
122789	7	Sololá	704	Santa Lucía Utatlán 	7	Santa Rita 	10	Octubre	2023-10-13T00:00:00	2024-11-08T07:00:00	6	Velocidad del viento	8
122790	7	Sololá	704	Santa Lucía Utatlán 	7	Santa Rita 	10	Octubre	2023-10-13T00:00:00	2024-11-08T07:00:00	7	Dirección del viento	8.05
122791	7	Sololá	704	Santa Lucía Utatlán 	7	Santa Rita 	10	Octubre	2023-10-13T00:00:00	2024-11-08T07:00:00	1	Precipitación	0
122792	7	Sololá	704	Santa Lucía Utatlán 	7	Santa Rita 	10	Octubre	2023-10-13T00:00:00	2024-11-08T07:00:00	8	Radiación solar	142
122793	7	Sololá	704	Santa Lucía Utatlán 	7	Santa Rita 	10	Octubre	2023-10-13T00:00:00	2024-11-08T08:00:00	2	Temperatura media	24.2
122794	7	Sololá	704	Santa Lucía Utatlán 	7	Santa Rita 	10	Octubre	2023-10-13T00:00:00	2024-11-08T08:00:00	4	Temperatura máxima	24.4
122795	7	Sololá	704	Santa Lucía Utatlán 	7	Santa Rita 	10	Octubre	2023-10-13T00:00:00	2024-11-08T08:00:00	3	Temperatura mínima	22.6
122796	7	Sololá	704	Santa Lucía Utatlán 	7	Santa Rita 	10	Octubre	2023-10-13T00:00:00	2024-11-08T08:00:00	5	Humedad	80
122797	7	Sololá	704	Santa Lucía Utatlán 	7	Santa Rita 	10	Octubre	2023-10-13T00:00:00	2024-11-08T08:00:00	6	Velocidad del viento	4.8
122798	7	Sololá	704	Santa Lucía Utatlán 	7	Santa Rita 	10	Octubre	2023-10-13T00:00:00	2024-11-08T08:00:00	7	Dirección del viento	4.83
122799	7	Sololá	704	Santa Lucía Utatlán 	7	Santa Rita 	10	Octubre	2023-10-13T00:00:00	2024-11-08T08:00:00	1	Precipitación	0
122800	7	Sololá	704	Santa Lucía Utatlán 	7	Santa Rita 	10	Octubre	2023-10-13T00:00:00	2024-11-08T08:00:00	8	Radiación solar	411
122801	7	Sololá	704	Santa Lucía Utatlán 	7	Santa Rita 	10	Octubre	2023-10-13T00:00:00	2024-11-08T09:00:00	2	Temperatura media	23.2
122802	7	Sololá	704	Santa Lucía Utatlán 	7	Santa Rita 	10	Octubre	2023-10-13T00:00:00	2024-11-08T09:00:00	4	Temperatura máxima	24.3
122803	7	Sololá	704	Santa Lucía Utatlán 	7	Santa Rita 	10	Octubre	2023-10-13T00:00:00	2024-11-08T09:00:00	3	Temperatura mínima	22.6
122804	7	Sololá	704	Santa Lucía Utatlán 	7	Santa Rita 	10	Octubre	2023-10-13T00:00:00	2024-11-08T09:00:00	5	Humedad	86
122805	7	Sololá	704	Santa Lucía Utatlán 	7	Santa Rita 	10	Octubre	2023-10-13T00:00:00	2024-11-08T09:00:00	6	Velocidad del viento	4.8
122806	7	Sololá	704	Santa Lucía Utatlán 	7	Santa Rita 	10	Octubre	2023-10-13T00:00:00	2024-11-08T09:00:00	7	Dirección del viento	4.83
122807	7	Sololá	704	Santa Lucía Utatlán 	7	Santa Rita 	10	Octubre	2023-10-13T00:00:00	2024-11-08T09:00:00	1	Precipitación	0
122808	7	Sololá	704	Santa Lucía Utatlán 	7	Santa Rita 	10	Octubre	2023-10-13T00:00:00	2024-11-08T09:00:00	8	Radiación solar	633
122809	7	Sololá	704	Santa Lucía Utatlán 	7	Santa Rita 	10	Octubre	2023-10-13T00:00:00	2024-11-08T10:00:00	2	Temperatura media	22.3
122810	7	Sololá	704	Santa Lucía Utatlán 	7	Santa Rita 	10	Octubre	2023-10-13T00:00:00	2024-11-08T10:00:00	4	Temperatura máxima	23.2
122811	7	Sololá	704	Santa Lucía Utatlán 	7	Santa Rita 	10	Octubre	2023-10-13T00:00:00	2024-11-08T10:00:00	3	Temperatura mínima	22.3
122812	7	Sololá	704	Santa Lucía Utatlán 	7	Santa Rita 	10	Octubre	2023-10-13T00:00:00	2024-11-08T10:00:00	5	Humedad	91
122813	7	Sololá	704	Santa Lucía Utatlán 	7	Santa Rita 	10	Octubre	2023-10-13T00:00:00	2024-11-08T10:00:00	6	Velocidad del viento	3.2
122814	7	Sololá	704	Santa Lucía Utatlán 	7	Santa Rita 	10	Octubre	2023-10-13T00:00:00	2024-11-08T10:00:00	7	Dirección del viento	3.22
122815	7	Sololá	704	Santa Lucía Utatlán 	7	Santa Rita 	10	Octubre	2023-10-13T00:00:00	2024-11-08T10:00:00	1	Precipitación	0
122816	7	Sololá	704	Santa Lucía Utatlán 	7	Santa Rita 	10	Octubre	2023-10-13T00:00:00	2024-11-08T10:00:00	8	Radiación solar	817
122817	7	Sololá	704	Santa Lucía Utatlán 	7	Santa Rita 	10	Octubre	2023-10-13T00:00:00	2024-11-08T11:00:00	2	Temperatura media	21.6
122818	7	Sololá	704	Santa Lucía Utatlán 	7	Santa Rita 	10	Octubre	2023-10-13T00:00:00	2024-11-08T11:00:00	4	Temperatura máxima	22.3
122819	7	Sololá	704	Santa Lucía Utatlán 	7	Santa Rita 	10	Octubre	2023-10-13T00:00:00	2024-11-08T11:00:00	3	Temperatura mínima	21.4
122820	7	Sololá	704	Santa Lucía Utatlán 	7	Santa Rita 	10	Octubre	2023-10-13T00:00:00	2024-11-08T11:00:00	5	Humedad	95
122821	7	Sololá	704	Santa Lucía Utatlán 	7	Santa Rita 	10	Octubre	2023-10-13T00:00:00	2024-11-08T11:00:00	6	Velocidad del viento	1.6
122822	7	Sololá	704	Santa Lucía Utatlán 	7	Santa Rita 	10	Octubre	2023-10-13T00:00:00	2024-11-08T11:00:00	7	Dirección del viento	1.61
122823	7	Sololá	704	Santa Lucía Utatlán 	7	Santa Rita 	10	Octubre	2023-10-13T00:00:00	2024-11-08T11:00:00	1	Precipitación	0.2
122824	7	Sololá	704	Santa Lucía Utatlán 	7	Santa Rita 	10	Octubre	2023-10-13T00:00:00	2024-11-08T11:00:00	8	Radiación solar	448
122825	7	Sololá	704	Santa Lucía Utatlán 	7	Santa Rita 	10	Octubre	2023-10-13T00:00:00	2024-11-08T12:00:00	2	Temperatura media	21.2
122826	7	Sololá	704	Santa Lucía Utatlán 	7	Santa Rita 	10	Octubre	2023-10-13T00:00:00	2024-11-08T12:00:00	4	Temperatura máxima	21.6
122827	7	Sololá	704	Santa Lucía Utatlán 	7	Santa Rita 	10	Octubre	2023-10-13T00:00:00	2024-11-08T12:00:00	3	Temperatura mínima	21.2
122828	7	Sololá	704	Santa Lucía Utatlán 	7	Santa Rita 	10	Octubre	2023-10-13T00:00:00	2024-11-08T12:00:00	5	Humedad	95
122829	7	Sololá	704	Santa Lucía Utatlán 	7	Santa Rita 	10	Octubre	2023-10-13T00:00:00	2024-11-08T12:00:00	6	Velocidad del viento	1.6
122830	7	Sololá	704	Santa Lucía Utatlán 	7	Santa Rita 	10	Octubre	2023-10-13T00:00:00	2024-11-08T12:00:00	7	Dirección del viento	1.61
122831	7	Sololá	704	Santa Lucía Utatlán 	7	Santa Rita 	10	Octubre	2023-10-13T00:00:00	2024-11-08T12:00:00	1	Precipitación	0
122832	7	Sololá	704	Santa Lucía Utatlán 	7	Santa Rita 	10	Octubre	2023-10-13T00:00:00	2024-11-08T12:00:00	8	Radiación solar	306
122833	7	Sololá	704	Santa Lucía Utatlán 	7	Santa Rita 	10	Octubre	2023-10-13T00:00:00	2024-11-08T13:00:00	2	Temperatura media	21.2
122834	7	Sololá	704	Santa Lucía Utatlán 	7	Santa Rita 	10	Octubre	2023-10-13T00:00:00	2024-11-08T13:00:00	4	Temperatura máxima	21.3
122835	7	Sololá	704	Santa Lucía Utatlán 	7	Santa Rita 	10	Octubre	2023-10-13T00:00:00	2024-11-08T13:00:00	3	Temperatura mínima	21.1
122836	7	Sololá	704	Santa Lucía Utatlán 	7	Santa Rita 	10	Octubre	2023-10-13T00:00:00	2024-11-08T13:00:00	5	Humedad	95
122837	7	Sololá	704	Santa Lucía Utatlán 	7	Santa Rita 	10	Octubre	2023-10-13T00:00:00	2024-11-08T13:00:00	6	Velocidad del viento	0
122838	7	Sololá	704	Santa Lucía Utatlán 	7	Santa Rita 	10	Octubre	2023-10-13T00:00:00	2024-11-08T13:00:00	7	Dirección del viento	0
122839	7	Sololá	704	Santa Lucía Utatlán 	7	Santa Rita 	10	Octubre	2023-10-13T00:00:00	2024-11-08T13:00:00	1	Precipitación	0
122840	7	Sololá	704	Santa Lucía Utatlán 	7	Santa Rita 	10	Octubre	2023-10-13T00:00:00	2024-11-08T13:00:00	8	Radiación solar	367
122841	7	Sololá	704	Santa Lucía Utatlán 	7	Santa Rita 	10	Octubre	2023-10-13T00:00:00	2024-11-08T14:00:00	2	Temperatura media	20.8
122842	7	Sololá	704	Santa Lucía Utatlán 	7	Santa Rita 	10	Octubre	2023-10-13T00:00:00	2024-11-08T14:00:00	4	Temperatura máxima	21.3
122843	7	Sololá	704	Santa Lucía Utatlán 	7	Santa Rita 	10	Octubre	2023-10-13T00:00:00	2024-11-08T14:00:00	3	Temperatura mínima	20.8
122844	7	Sololá	704	Santa Lucía Utatlán 	7	Santa Rita 	10	Octubre	2023-10-13T00:00:00	2024-11-08T14:00:00	5	Humedad	95
122845	7	Sololá	704	Santa Lucía Utatlán 	7	Santa Rita 	10	Octubre	2023-10-13T00:00:00	2024-11-08T14:00:00	6	Velocidad del viento	0
122846	7	Sololá	704	Santa Lucía Utatlán 	7	Santa Rita 	10	Octubre	2023-10-13T00:00:00	2024-11-08T14:00:00	7	Dirección del viento	0
122847	7	Sololá	704	Santa Lucía Utatlán 	7	Santa Rita 	10	Octubre	2023-10-13T00:00:00	2024-11-08T14:00:00	1	Precipitación	0
122848	7	Sololá	704	Santa Lucía Utatlán 	7	Santa Rita 	10	Octubre	2023-10-13T00:00:00	2024-11-08T14:00:00	8	Radiación solar	242
122849	7	Sololá	704	Santa Lucía Utatlán 	7	Santa Rita 	10	Octubre	2023-10-13T00:00:00	2024-11-08T15:00:00	2	Temperatura media	20.3
122850	7	Sololá	704	Santa Lucía Utatlán 	7	Santa Rita 	10	Octubre	2023-10-13T00:00:00	2024-11-08T15:00:00	4	Temperatura máxima	20.9
122851	7	Sololá	704	Santa Lucía Utatlán 	7	Santa Rita 	10	Octubre	2023-10-13T00:00:00	2024-11-08T15:00:00	3	Temperatura mínima	20.2
122852	7	Sololá	704	Santa Lucía Utatlán 	7	Santa Rita 	10	Octubre	2023-10-13T00:00:00	2024-11-08T15:00:00	5	Humedad	96
122853	7	Sololá	704	Santa Lucía Utatlán 	7	Santa Rita 	10	Octubre	2023-10-13T00:00:00	2024-11-08T15:00:00	6	Velocidad del viento	1.6
122854	7	Sololá	704	Santa Lucía Utatlán 	7	Santa Rita 	10	Octubre	2023-10-13T00:00:00	2024-11-08T15:00:00	7	Dirección del viento	1.61
122855	7	Sololá	704	Santa Lucía Utatlán 	7	Santa Rita 	10	Octubre	2023-10-13T00:00:00	2024-11-08T15:00:00	1	Precipitación	0
122856	7	Sololá	704	Santa Lucía Utatlán 	7	Santa Rita 	10	Octubre	2023-10-13T00:00:00	2024-11-08T15:00:00	8	Radiación solar	121
122857	7	Sololá	704	Santa Lucía Utatlán 	7	Santa Rita 	10	Octubre	2023-10-13T00:00:00	2024-11-08T16:00:00	2	Temperatura media	20
122858	7	Sololá	704	Santa Lucía Utatlán 	7	Santa Rita 	10	Octubre	2023-10-13T00:00:00	2024-11-08T16:00:00	4	Temperatura máxima	20.6
122859	7	Sololá	704	Santa Lucía Utatlán 	7	Santa Rita 	10	Octubre	2023-10-13T00:00:00	2024-11-08T16:00:00	3	Temperatura mínima	19.9
122860	7	Sololá	704	Santa Lucía Utatlán 	7	Santa Rita 	10	Octubre	2023-10-13T00:00:00	2024-11-08T16:00:00	5	Humedad	95
122861	7	Sololá	704	Santa Lucía Utatlán 	7	Santa Rita 	10	Octubre	2023-10-13T00:00:00	2024-11-08T16:00:00	6	Velocidad del viento	1.6
122862	7	Sololá	704	Santa Lucía Utatlán 	7	Santa Rita 	10	Octubre	2023-10-13T00:00:00	2024-11-08T16:00:00	7	Dirección del viento	1.61
122863	7	Sololá	704	Santa Lucía Utatlán 	7	Santa Rita 	10	Octubre	2023-10-13T00:00:00	2024-11-08T16:00:00	1	Precipitación	0
122864	7	Sololá	704	Santa Lucía Utatlán 	7	Santa Rita 	10	Octubre	2023-10-13T00:00:00	2024-11-08T16:00:00	8	Radiación solar	57
122865	7	Sololá	704	Santa Lucía Utatlán 	7	Santa Rita 	10	Octubre	2023-10-13T00:00:00	2024-11-08T17:00:00	2	Temperatura media	19.3
122866	7	Sololá	704	Santa Lucía Utatlán 	7	Santa Rita 	10	Octubre	2023-10-13T00:00:00	2024-11-08T17:00:00	4	Temperatura máxima	20
122867	7	Sololá	704	Santa Lucía Utatlán 	7	Santa Rita 	10	Octubre	2023-10-13T00:00:00	2024-11-08T17:00:00	3	Temperatura mínima	19
122868	7	Sololá	704	Santa Lucía Utatlán 	7	Santa Rita 	10	Octubre	2023-10-13T00:00:00	2024-11-08T17:00:00	5	Humedad	96
122869	7	Sololá	704	Santa Lucía Utatlán 	7	Santa Rita 	10	Octubre	2023-10-13T00:00:00	2024-11-08T17:00:00	6	Velocidad del viento	1.6
122870	7	Sololá	704	Santa Lucía Utatlán 	7	Santa Rita 	10	Octubre	2023-10-13T00:00:00	2024-11-08T17:00:00	7	Dirección del viento	1.61
122871	7	Sololá	704	Santa Lucía Utatlán 	7	Santa Rita 	10	Octubre	2023-10-13T00:00:00	2024-11-08T17:00:00	1	Precipitación	0
122872	7	Sololá	704	Santa Lucía Utatlán 	7	Santa Rita 	10	Octubre	2023-10-13T00:00:00	2024-11-08T17:00:00	8	Radiación solar	36
122873	7	Sololá	704	Santa Lucía Utatlán 	7	Santa Rita 	10	Octubre	2023-10-13T00:00:00	2024-11-08T18:00:00	2	Temperatura media	18.6
122874	7	Sololá	704	Santa Lucía Utatlán 	7	Santa Rita 	10	Octubre	2023-10-13T00:00:00	2024-11-08T18:00:00	4	Temperatura máxima	19.3
122875	7	Sololá	704	Santa Lucía Utatlán 	7	Santa Rita 	10	Octubre	2023-10-13T00:00:00	2024-11-08T18:00:00	3	Temperatura mínima	18.6
122876	7	Sololá	704	Santa Lucía Utatlán 	7	Santa Rita 	10	Octubre	2023-10-13T00:00:00	2024-11-08T18:00:00	5	Humedad	94
122877	7	Sololá	704	Santa Lucía Utatlán 	7	Santa Rita 	10	Octubre	2023-10-13T00:00:00	2024-11-08T18:00:00	6	Velocidad del viento	3.2
122878	7	Sololá	704	Santa Lucía Utatlán 	7	Santa Rita 	10	Octubre	2023-10-13T00:00:00	2024-11-08T18:00:00	7	Dirección del viento	3.22
122879	7	Sololá	704	Santa Lucía Utatlán 	7	Santa Rita 	10	Octubre	2023-10-13T00:00:00	2024-11-08T18:00:00	1	Precipitación	0
122880	7	Sololá	704	Santa Lucía Utatlán 	7	Santa Rita 	10	Octubre	2023-10-13T00:00:00	2024-11-08T18:00:00	8	Radiación solar	1
122881	7	Sololá	704	Santa Lucía Utatlán 	7	Santa Rita 	10	Octubre	2023-10-13T00:00:00	2024-11-08T19:00:00	2	Temperatura media	18.4
122882	7	Sololá	704	Santa Lucía Utatlán 	7	Santa Rita 	10	Octubre	2023-10-13T00:00:00	2024-11-08T19:00:00	4	Temperatura máxima	18.6
122883	7	Sololá	704	Santa Lucía Utatlán 	7	Santa Rita 	10	Octubre	2023-10-13T00:00:00	2024-11-08T19:00:00	3	Temperatura mínima	18.2
122884	7	Sololá	704	Santa Lucía Utatlán 	7	Santa Rita 	10	Octubre	2023-10-13T00:00:00	2024-11-08T19:00:00	5	Humedad	93
122885	7	Sololá	704	Santa Lucía Utatlán 	7	Santa Rita 	10	Octubre	2023-10-13T00:00:00	2024-11-08T19:00:00	6	Velocidad del viento	3.2
122886	7	Sololá	704	Santa Lucía Utatlán 	7	Santa Rita 	10	Octubre	2023-10-13T00:00:00	2024-11-08T19:00:00	7	Dirección del viento	3.22
122887	7	Sololá	704	Santa Lucía Utatlán 	7	Santa Rita 	10	Octubre	2023-10-13T00:00:00	2024-11-08T19:00:00	1	Precipitación	0
122888	7	Sololá	704	Santa Lucía Utatlán 	7	Santa Rita 	10	Octubre	2023-10-13T00:00:00	2024-11-08T19:00:00	8	Radiación solar	0
122889	7	Sololá	704	Santa Lucía Utatlán 	7	Santa Rita 	10	Octubre	2023-10-13T00:00:00	2024-11-08T20:00:00	2	Temperatura media	18.1
122890	7	Sololá	704	Santa Lucía Utatlán 	7	Santa Rita 	10	Octubre	2023-10-13T00:00:00	2024-11-08T20:00:00	4	Temperatura máxima	18.4
122891	7	Sololá	704	Santa Lucía Utatlán 	7	Santa Rita 	10	Octubre	2023-10-13T00:00:00	2024-11-08T20:00:00	3	Temperatura mínima	17.9
122892	7	Sololá	704	Santa Lucía Utatlán 	7	Santa Rita 	10	Octubre	2023-10-13T00:00:00	2024-11-08T20:00:00	5	Humedad	91
122893	7	Sololá	704	Santa Lucía Utatlán 	7	Santa Rita 	10	Octubre	2023-10-13T00:00:00	2024-11-08T20:00:00	6	Velocidad del viento	3.2
122894	7	Sololá	704	Santa Lucía Utatlán 	7	Santa Rita 	10	Octubre	2023-10-13T00:00:00	2024-11-08T20:00:00	7	Dirección del viento	3.22
122895	7	Sololá	704	Santa Lucía Utatlán 	7	Santa Rita 	10	Octubre	2023-10-13T00:00:00	2024-11-08T20:00:00	1	Precipitación	0
122896	7	Sololá	704	Santa Lucía Utatlán 	7	Santa Rita 	10	Octubre	2023-10-13T00:00:00	2024-11-08T20:00:00	8	Radiación solar	0
122897	7	Sololá	704	Santa Lucía Utatlán 	7	Santa Rita 	10	Octubre	2023-10-13T00:00:00	2024-11-08T21:00:00	2	Temperatura media	17.8
122898	7	Sololá	704	Santa Lucía Utatlán 	7	Santa Rita 	10	Octubre	2023-10-13T00:00:00	2024-11-08T21:00:00	4	Temperatura máxima	18.2
122899	7	Sololá	704	Santa Lucía Utatlán 	7	Santa Rita 	10	Octubre	2023-10-13T00:00:00	2024-11-08T21:00:00	3	Temperatura mínima	17.8
122900	7	Sololá	704	Santa Lucía Utatlán 	7	Santa Rita 	10	Octubre	2023-10-13T00:00:00	2024-11-08T21:00:00	5	Humedad	91
122901	7	Sololá	704	Santa Lucía Utatlán 	7	Santa Rita 	10	Octubre	2023-10-13T00:00:00	2024-11-08T21:00:00	6	Velocidad del viento	3.2
122902	7	Sololá	704	Santa Lucía Utatlán 	7	Santa Rita 	10	Octubre	2023-10-13T00:00:00	2024-11-08T21:00:00	7	Dirección del viento	3.22
122903	7	Sololá	704	Santa Lucía Utatlán 	7	Santa Rita 	10	Octubre	2023-10-13T00:00:00	2024-11-08T21:00:00	1	Precipitación	0
122904	7	Sololá	704	Santa Lucía Utatlán 	7	Santa Rita 	10	Octubre	2023-10-13T00:00:00	2024-11-08T21:00:00	8	Radiación solar	0
122905	7	Sololá	704	Santa Lucía Utatlán 	7	Santa Rita 	10	Octubre	2023-10-13T00:00:00	2024-11-08T22:00:00	2	Temperatura media	17.4
122906	7	Sololá	704	Santa Lucía Utatlán 	7	Santa Rita 	10	Octubre	2023-10-13T00:00:00	2024-11-08T22:00:00	4	Temperatura máxima	17.8
122907	7	Sololá	704	Santa Lucía Utatlán 	7	Santa Rita 	10	Octubre	2023-10-13T00:00:00	2024-11-08T22:00:00	3	Temperatura mínima	17.3
122908	7	Sololá	704	Santa Lucía Utatlán 	7	Santa Rita 	10	Octubre	2023-10-13T00:00:00	2024-11-08T22:00:00	5	Humedad	92
122909	7	Sololá	704	Santa Lucía Utatlán 	7	Santa Rita 	10	Octubre	2023-10-13T00:00:00	2024-11-08T22:00:00	6	Velocidad del viento	3.2
122910	7	Sololá	704	Santa Lucía Utatlán 	7	Santa Rita 	10	Octubre	2023-10-13T00:00:00	2024-11-08T22:00:00	7	Dirección del viento	3.22
122911	7	Sololá	704	Santa Lucía Utatlán 	7	Santa Rita 	10	Octubre	2023-10-13T00:00:00	2024-11-08T22:00:00	1	Precipitación	0
122912	7	Sololá	704	Santa Lucía Utatlán 	7	Santa Rita 	10	Octubre	2023-10-13T00:00:00	2024-11-08T22:00:00	8	Radiación solar	0
122913	7	Sololá	704	Santa Lucía Utatlán 	7	Santa Rita 	10	Octubre	2023-10-13T00:00:00	2024-11-08T23:00:00	2	Temperatura media	17.4
122914	7	Sololá	704	Santa Lucía Utatlán 	7	Santa Rita 	10	Octubre	2023-10-13T00:00:00	2024-11-08T23:00:00	4	Temperatura máxima	17.6
122915	7	Sololá	704	Santa Lucía Utatlán 	7	Santa Rita 	10	Octubre	2023-10-13T00:00:00	2024-11-08T23:00:00	3	Temperatura mínima	17.2
122916	7	Sololá	704	Santa Lucía Utatlán 	7	Santa Rita 	10	Octubre	2023-10-13T00:00:00	2024-11-08T23:00:00	5	Humedad	91
122917	7	Sololá	704	Santa Lucía Utatlán 	7	Santa Rita 	10	Octubre	2023-10-13T00:00:00	2024-11-08T23:00:00	6	Velocidad del viento	3.2
122918	7	Sololá	704	Santa Lucía Utatlán 	7	Santa Rita 	10	Octubre	2023-10-13T00:00:00	2024-11-08T23:00:00	7	Dirección del viento	3.22
122919	7	Sololá	704	Santa Lucía Utatlán 	7	Santa Rita 	10	Octubre	2023-10-13T00:00:00	2024-11-08T23:00:00	1	Precipitación	0
122920	7	Sololá	704	Santa Lucía Utatlán 	7	Santa Rita 	10	Octubre	2023-10-13T00:00:00	2024-11-08T23:00:00	8	Radiación solar	0
122921	7	Sololá	704	Santa Lucía Utatlán 	7	Santa Rita 	10	Octubre	2023-10-14T00:00:00	2024-11-08T00:00:00	2	Temperatura media	17.4
122922	7	Sololá	704	Santa Lucía Utatlán 	7	Santa Rita 	10	Octubre	2023-10-14T00:00:00	2024-11-08T00:00:00	4	Temperatura máxima	18.1
122923	7	Sololá	704	Santa Lucía Utatlán 	7	Santa Rita 	10	Octubre	2023-10-14T00:00:00	2024-11-08T00:00:00	3	Temperatura mínima	17.4
122924	7	Sololá	704	Santa Lucía Utatlán 	7	Santa Rita 	10	Octubre	2023-10-14T00:00:00	2024-11-08T00:00:00	5	Humedad	90
122925	7	Sololá	704	Santa Lucía Utatlán 	7	Santa Rita 	10	Octubre	2023-10-14T00:00:00	2024-11-08T00:00:00	6	Velocidad del viento	3.2
122926	7	Sololá	704	Santa Lucía Utatlán 	7	Santa Rita 	10	Octubre	2023-10-14T00:00:00	2024-11-08T00:00:00	7	Dirección del viento	3.22
122927	7	Sololá	704	Santa Lucía Utatlán 	7	Santa Rita 	10	Octubre	2023-10-14T00:00:00	2024-11-08T00:00:00	1	Precipitación	0
122928	7	Sololá	704	Santa Lucía Utatlán 	7	Santa Rita 	10	Octubre	2023-10-14T00:00:00	2024-11-08T00:00:00	8	Radiación solar	0
122929	7	Sololá	704	Santa Lucía Utatlán 	7	Santa Rita 	10	Octubre	2023-10-14T00:00:00	2024-11-08T01:00:00	2	Temperatura media	18.4
122930	7	Sololá	704	Santa Lucía Utatlán 	7	Santa Rita 	10	Octubre	2023-10-14T00:00:00	2024-11-08T01:00:00	4	Temperatura máxima	19.3
122931	7	Sololá	704	Santa Lucía Utatlán 	7	Santa Rita 	10	Octubre	2023-10-14T00:00:00	2024-11-08T01:00:00	3	Temperatura mínima	17.4
122932	7	Sololá	704	Santa Lucía Utatlán 	7	Santa Rita 	10	Octubre	2023-10-14T00:00:00	2024-11-08T01:00:00	5	Humedad	85
122933	7	Sololá	704	Santa Lucía Utatlán 	7	Santa Rita 	10	Octubre	2023-10-14T00:00:00	2024-11-08T01:00:00	6	Velocidad del viento	4.8
122934	7	Sololá	704	Santa Lucía Utatlán 	7	Santa Rita 	10	Octubre	2023-10-14T00:00:00	2024-11-08T01:00:00	7	Dirección del viento	4.83
122935	7	Sololá	704	Santa Lucía Utatlán 	7	Santa Rita 	10	Octubre	2023-10-14T00:00:00	2024-11-08T01:00:00	1	Precipitación	0
122936	7	Sololá	704	Santa Lucía Utatlán 	7	Santa Rita 	10	Octubre	2023-10-14T00:00:00	2024-11-08T01:00:00	8	Radiación solar	0
122937	7	Sololá	704	Santa Lucía Utatlán 	7	Santa Rita 	10	Octubre	2023-10-14T00:00:00	2024-11-08T02:00:00	2	Temperatura media	21.1
122938	7	Sololá	704	Santa Lucía Utatlán 	7	Santa Rita 	10	Octubre	2023-10-14T00:00:00	2024-11-08T02:00:00	4	Temperatura máxima	21.1
122939	7	Sololá	704	Santa Lucía Utatlán 	7	Santa Rita 	10	Octubre	2023-10-14T00:00:00	2024-11-08T02:00:00	3	Temperatura mínima	18.4
122940	7	Sololá	704	Santa Lucía Utatlán 	7	Santa Rita 	10	Octubre	2023-10-14T00:00:00	2024-11-08T02:00:00	5	Humedad	80
122941	7	Sololá	704	Santa Lucía Utatlán 	7	Santa Rita 	10	Octubre	2023-10-14T00:00:00	2024-11-08T02:00:00	6	Velocidad del viento	3.2
122942	7	Sololá	704	Santa Lucía Utatlán 	7	Santa Rita 	10	Octubre	2023-10-14T00:00:00	2024-11-08T02:00:00	7	Dirección del viento	3.22
122943	7	Sololá	704	Santa Lucía Utatlán 	7	Santa Rita 	10	Octubre	2023-10-14T00:00:00	2024-11-08T02:00:00	1	Precipitación	0
122944	7	Sololá	704	Santa Lucía Utatlán 	7	Santa Rita 	10	Octubre	2023-10-14T00:00:00	2024-11-08T02:00:00	8	Radiación solar	0
122945	7	Sololá	704	Santa Lucía Utatlán 	7	Santa Rita 	10	Octubre	2023-10-14T00:00:00	2024-11-08T03:00:00	2	Temperatura media	24
122946	7	Sololá	704	Santa Lucía Utatlán 	7	Santa Rita 	10	Octubre	2023-10-14T00:00:00	2024-11-08T03:00:00	4	Temperatura máxima	24.2
122947	7	Sololá	704	Santa Lucía Utatlán 	7	Santa Rita 	10	Octubre	2023-10-14T00:00:00	2024-11-08T03:00:00	3	Temperatura mínima	21.1
122948	7	Sololá	704	Santa Lucía Utatlán 	7	Santa Rita 	10	Octubre	2023-10-14T00:00:00	2024-11-08T03:00:00	5	Humedad	72
122949	7	Sololá	704	Santa Lucía Utatlán 	7	Santa Rita 	10	Octubre	2023-10-14T00:00:00	2024-11-08T03:00:00	6	Velocidad del viento	3.2
122950	7	Sololá	704	Santa Lucía Utatlán 	7	Santa Rita 	10	Octubre	2023-10-14T00:00:00	2024-11-08T03:00:00	7	Dirección del viento	3.22
122951	7	Sololá	704	Santa Lucía Utatlán 	7	Santa Rita 	10	Octubre	2023-10-14T00:00:00	2024-11-08T03:00:00	1	Precipitación	0
122952	7	Sololá	704	Santa Lucía Utatlán 	7	Santa Rita 	10	Octubre	2023-10-14T00:00:00	2024-11-08T03:00:00	8	Radiación solar	0
122953	7	Sololá	704	Santa Lucía Utatlán 	7	Santa Rita 	10	Octubre	2023-10-14T00:00:00	2024-11-08T04:00:00	2	Temperatura media	26
122954	7	Sololá	704	Santa Lucía Utatlán 	7	Santa Rita 	10	Octubre	2023-10-14T00:00:00	2024-11-08T04:00:00	4	Temperatura máxima	26
122955	7	Sololá	704	Santa Lucía Utatlán 	7	Santa Rita 	10	Octubre	2023-10-14T00:00:00	2024-11-08T04:00:00	3	Temperatura mínima	24
122956	7	Sololá	704	Santa Lucía Utatlán 	7	Santa Rita 	10	Octubre	2023-10-14T00:00:00	2024-11-08T04:00:00	5	Humedad	65
122957	7	Sololá	704	Santa Lucía Utatlán 	7	Santa Rita 	10	Octubre	2023-10-14T00:00:00	2024-11-08T04:00:00	6	Velocidad del viento	6.4
122958	7	Sololá	704	Santa Lucía Utatlán 	7	Santa Rita 	10	Octubre	2023-10-14T00:00:00	2024-11-08T04:00:00	7	Dirección del viento	6.44
122959	7	Sololá	704	Santa Lucía Utatlán 	7	Santa Rita 	10	Octubre	2023-10-14T00:00:00	2024-11-08T04:00:00	1	Precipitación	0
122960	7	Sololá	704	Santa Lucía Utatlán 	7	Santa Rita 	10	Octubre	2023-10-14T00:00:00	2024-11-08T04:00:00	8	Radiación solar	0
122961	7	Sololá	704	Santa Lucía Utatlán 	7	Santa Rita 	10	Octubre	2023-10-14T00:00:00	2024-11-08T05:00:00	2	Temperatura media	25.7
122962	7	Sololá	704	Santa Lucía Utatlán 	7	Santa Rita 	10	Octubre	2023-10-14T00:00:00	2024-11-08T05:00:00	4	Temperatura máxima	26.3
122963	7	Sololá	704	Santa Lucía Utatlán 	7	Santa Rita 	10	Octubre	2023-10-14T00:00:00	2024-11-08T05:00:00	3	Temperatura mínima	25.7
122964	7	Sololá	704	Santa Lucía Utatlán 	7	Santa Rita 	10	Octubre	2023-10-14T00:00:00	2024-11-08T05:00:00	5	Humedad	63
122965	7	Sololá	704	Santa Lucía Utatlán 	7	Santa Rita 	10	Octubre	2023-10-14T00:00:00	2024-11-08T05:00:00	6	Velocidad del viento	12.9
122966	7	Sololá	704	Santa Lucía Utatlán 	7	Santa Rita 	10	Octubre	2023-10-14T00:00:00	2024-11-08T05:00:00	7	Dirección del viento	12.87
122967	7	Sololá	704	Santa Lucía Utatlán 	7	Santa Rita 	10	Octubre	2023-10-14T00:00:00	2024-11-08T05:00:00	1	Precipitación	0
122968	7	Sololá	704	Santa Lucía Utatlán 	7	Santa Rita 	10	Octubre	2023-10-14T00:00:00	2024-11-08T05:00:00	8	Radiación solar	0
122969	7	Sololá	704	Santa Lucía Utatlán 	7	Santa Rita 	10	Octubre	2023-10-14T00:00:00	2024-11-08T06:00:00	2	Temperatura media	24.3
122970	7	Sololá	704	Santa Lucía Utatlán 	7	Santa Rita 	10	Octubre	2023-10-14T00:00:00	2024-11-08T06:00:00	4	Temperatura máxima	25.8
122971	7	Sololá	704	Santa Lucía Utatlán 	7	Santa Rita 	10	Octubre	2023-10-14T00:00:00	2024-11-08T06:00:00	3	Temperatura mínima	24.3
122972	7	Sololá	704	Santa Lucía Utatlán 	7	Santa Rita 	10	Octubre	2023-10-14T00:00:00	2024-11-08T06:00:00	5	Humedad	72
122973	7	Sololá	704	Santa Lucía Utatlán 	7	Santa Rita 	10	Octubre	2023-10-14T00:00:00	2024-11-08T06:00:00	6	Velocidad del viento	9.7
122974	7	Sololá	704	Santa Lucía Utatlán 	7	Santa Rita 	10	Octubre	2023-10-14T00:00:00	2024-11-08T06:00:00	7	Dirección del viento	9.66
122975	7	Sololá	704	Santa Lucía Utatlán 	7	Santa Rita 	10	Octubre	2023-10-14T00:00:00	2024-11-08T06:00:00	1	Precipitación	0
122976	7	Sololá	704	Santa Lucía Utatlán 	7	Santa Rita 	10	Octubre	2023-10-14T00:00:00	2024-11-08T06:00:00	8	Radiación solar	5
122977	7	Sololá	704	Santa Lucía Utatlán 	7	Santa Rita 	10	Octubre	2023-10-14T00:00:00	2024-11-08T07:00:00	2	Temperatura media	24.1
122978	7	Sololá	704	Santa Lucía Utatlán 	7	Santa Rita 	10	Octubre	2023-10-14T00:00:00	2024-11-08T07:00:00	4	Temperatura máxima	24.3
122979	7	Sololá	704	Santa Lucía Utatlán 	7	Santa Rita 	10	Octubre	2023-10-14T00:00:00	2024-11-08T07:00:00	3	Temperatura mínima	23.7
122980	7	Sololá	704	Santa Lucía Utatlán 	7	Santa Rita 	10	Octubre	2023-10-14T00:00:00	2024-11-08T07:00:00	5	Humedad	73
122981	7	Sololá	704	Santa Lucía Utatlán 	7	Santa Rita 	10	Octubre	2023-10-14T00:00:00	2024-11-08T07:00:00	6	Velocidad del viento	6.4
122982	7	Sololá	704	Santa Lucía Utatlán 	7	Santa Rita 	10	Octubre	2023-10-14T00:00:00	2024-11-08T07:00:00	7	Dirección del viento	6.44
122983	7	Sololá	704	Santa Lucía Utatlán 	7	Santa Rita 	10	Octubre	2023-10-14T00:00:00	2024-11-08T07:00:00	1	Precipitación	0
122984	7	Sololá	704	Santa Lucía Utatlán 	7	Santa Rita 	10	Octubre	2023-10-14T00:00:00	2024-11-08T07:00:00	8	Radiación solar	142
122985	7	Sololá	704	Santa Lucía Utatlán 	7	Santa Rita 	10	Octubre	2023-10-14T00:00:00	2024-11-08T08:00:00	2	Temperatura media	25.5
122986	7	Sololá	704	Santa Lucía Utatlán 	7	Santa Rita 	10	Octubre	2023-10-14T00:00:00	2024-11-08T08:00:00	4	Temperatura máxima	25.7
122987	7	Sololá	704	Santa Lucía Utatlán 	7	Santa Rita 	10	Octubre	2023-10-14T00:00:00	2024-11-08T08:00:00	3	Temperatura mínima	24
122988	7	Sololá	704	Santa Lucía Utatlán 	7	Santa Rita 	10	Octubre	2023-10-14T00:00:00	2024-11-08T08:00:00	5	Humedad	65
122989	7	Sololá	704	Santa Lucía Utatlán 	7	Santa Rita 	10	Octubre	2023-10-14T00:00:00	2024-11-08T08:00:00	6	Velocidad del viento	11.3
122990	7	Sololá	704	Santa Lucía Utatlán 	7	Santa Rita 	10	Octubre	2023-10-14T00:00:00	2024-11-08T08:00:00	7	Dirección del viento	11.27
122991	7	Sololá	704	Santa Lucía Utatlán 	7	Santa Rita 	10	Octubre	2023-10-14T00:00:00	2024-11-08T08:00:00	1	Precipitación	0
122992	7	Sololá	704	Santa Lucía Utatlán 	7	Santa Rita 	10	Octubre	2023-10-14T00:00:00	2024-11-08T08:00:00	8	Radiación solar	413
122993	7	Sololá	704	Santa Lucía Utatlán 	7	Santa Rita 	10	Octubre	2023-10-14T00:00:00	2024-11-08T09:00:00	2	Temperatura media	25.7
122994	7	Sololá	704	Santa Lucía Utatlán 	7	Santa Rita 	10	Octubre	2023-10-14T00:00:00	2024-11-08T09:00:00	4	Temperatura máxima	26.3
122995	7	Sololá	704	Santa Lucía Utatlán 	7	Santa Rita 	10	Octubre	2023-10-14T00:00:00	2024-11-08T09:00:00	3	Temperatura mínima	25.5
122996	7	Sololá	704	Santa Lucía Utatlán 	7	Santa Rita 	10	Octubre	2023-10-14T00:00:00	2024-11-08T09:00:00	5	Humedad	57
122997	7	Sololá	704	Santa Lucía Utatlán 	7	Santa Rita 	10	Octubre	2023-10-14T00:00:00	2024-11-08T09:00:00	6	Velocidad del viento	9.7
122998	7	Sololá	704	Santa Lucía Utatlán 	7	Santa Rita 	10	Octubre	2023-10-14T00:00:00	2024-11-08T09:00:00	7	Dirección del viento	9.66
122999	7	Sololá	704	Santa Lucía Utatlán 	7	Santa Rita 	10	Octubre	2023-10-14T00:00:00	2024-11-08T09:00:00	1	Precipitación	0
123000	7	Sololá	704	Santa Lucía Utatlán 	7	Santa Rita 	10	Octubre	2023-10-14T00:00:00	2024-11-08T09:00:00	8	Radiación solar	635
123001	7	Sololá	704	Santa Lucía Utatlán 	7	Santa Rita 	10	Octubre	2023-10-14T00:00:00	2024-11-08T10:00:00	2	Temperatura media	25
123002	7	Sololá	704	Santa Lucía Utatlán 	7	Santa Rita 	10	Octubre	2023-10-14T00:00:00	2024-11-08T10:00:00	4	Temperatura máxima	26.1
123003	7	Sololá	704	Santa Lucía Utatlán 	7	Santa Rita 	10	Octubre	2023-10-14T00:00:00	2024-11-08T10:00:00	3	Temperatura mínima	24.9
123004	7	Sololá	704	Santa Lucía Utatlán 	7	Santa Rita 	10	Octubre	2023-10-14T00:00:00	2024-11-08T10:00:00	5	Humedad	72
123005	7	Sololá	704	Santa Lucía Utatlán 	7	Santa Rita 	10	Octubre	2023-10-14T00:00:00	2024-11-08T10:00:00	6	Velocidad del viento	8
123006	7	Sololá	704	Santa Lucía Utatlán 	7	Santa Rita 	10	Octubre	2023-10-14T00:00:00	2024-11-08T10:00:00	7	Dirección del viento	8.05
123007	7	Sololá	704	Santa Lucía Utatlán 	7	Santa Rita 	10	Octubre	2023-10-14T00:00:00	2024-11-08T10:00:00	1	Precipitación	0
123008	7	Sololá	704	Santa Lucía Utatlán 	7	Santa Rita 	10	Octubre	2023-10-14T00:00:00	2024-11-08T10:00:00	8	Radiación solar	884
123009	7	Sololá	704	Santa Lucía Utatlán 	7	Santa Rita 	10	Octubre	2023-10-14T00:00:00	2024-11-08T11:00:00	2	Temperatura media	22.9
123010	7	Sololá	704	Santa Lucía Utatlán 	7	Santa Rita 	10	Octubre	2023-10-14T00:00:00	2024-11-08T11:00:00	4	Temperatura máxima	25
123011	7	Sololá	704	Santa Lucía Utatlán 	7	Santa Rita 	10	Octubre	2023-10-14T00:00:00	2024-11-08T11:00:00	3	Temperatura mínima	22.9
123012	7	Sololá	704	Santa Lucía Utatlán 	7	Santa Rita 	10	Octubre	2023-10-14T00:00:00	2024-11-08T11:00:00	5	Humedad	87
123013	7	Sololá	704	Santa Lucía Utatlán 	7	Santa Rita 	10	Octubre	2023-10-14T00:00:00	2024-11-08T11:00:00	6	Velocidad del viento	4.8
123014	7	Sololá	704	Santa Lucía Utatlán 	7	Santa Rita 	10	Octubre	2023-10-14T00:00:00	2024-11-08T11:00:00	7	Dirección del viento	4.83
123015	7	Sololá	704	Santa Lucía Utatlán 	7	Santa Rita 	10	Octubre	2023-10-14T00:00:00	2024-11-08T11:00:00	1	Precipitación	0
123016	7	Sololá	704	Santa Lucía Utatlán 	7	Santa Rita 	10	Octubre	2023-10-14T00:00:00	2024-11-08T11:00:00	8	Radiación solar	522
123017	7	Sololá	704	Santa Lucía Utatlán 	7	Santa Rita 	10	Octubre	2023-10-14T00:00:00	2024-11-08T12:00:00	2	Temperatura media	22.6
123018	7	Sololá	704	Santa Lucía Utatlán 	7	Santa Rita 	10	Octubre	2023-10-14T00:00:00	2024-11-08T12:00:00	4	Temperatura máxima	23.6
123019	7	Sololá	704	Santa Lucía Utatlán 	7	Santa Rita 	10	Octubre	2023-10-14T00:00:00	2024-11-08T12:00:00	3	Temperatura mínima	22.6
123020	7	Sololá	704	Santa Lucía Utatlán 	7	Santa Rita 	10	Octubre	2023-10-14T00:00:00	2024-11-08T12:00:00	5	Humedad	82
123021	7	Sololá	704	Santa Lucía Utatlán 	7	Santa Rita 	10	Octubre	2023-10-14T00:00:00	2024-11-08T12:00:00	6	Velocidad del viento	3.2
123022	7	Sololá	704	Santa Lucía Utatlán 	7	Santa Rita 	10	Octubre	2023-10-14T00:00:00	2024-11-08T12:00:00	7	Dirección del viento	3.22
123023	7	Sololá	704	Santa Lucía Utatlán 	7	Santa Rita 	10	Octubre	2023-10-14T00:00:00	2024-11-08T12:00:00	1	Precipitación	0
123024	7	Sololá	704	Santa Lucía Utatlán 	7	Santa Rita 	10	Octubre	2023-10-14T00:00:00	2024-11-08T12:00:00	8	Radiación solar	287
123025	7	Sololá	704	Santa Lucía Utatlán 	7	Santa Rita 	10	Octubre	2023-10-14T00:00:00	2024-11-08T13:00:00	2	Temperatura media	21.9
123026	7	Sololá	704	Santa Lucía Utatlán 	7	Santa Rita 	10	Octubre	2023-10-14T00:00:00	2024-11-08T13:00:00	4	Temperatura máxima	22.6
123027	7	Sololá	704	Santa Lucía Utatlán 	7	Santa Rita 	10	Octubre	2023-10-14T00:00:00	2024-11-08T13:00:00	3	Temperatura mínima	21.7
123028	7	Sololá	704	Santa Lucía Utatlán 	7	Santa Rita 	10	Octubre	2023-10-14T00:00:00	2024-11-08T13:00:00	5	Humedad	82
123029	7	Sololá	704	Santa Lucía Utatlán 	7	Santa Rita 	10	Octubre	2023-10-14T00:00:00	2024-11-08T13:00:00	6	Velocidad del viento	3.2
123030	7	Sololá	704	Santa Lucía Utatlán 	7	Santa Rita 	10	Octubre	2023-10-14T00:00:00	2024-11-08T13:00:00	7	Dirección del viento	3.22
123031	7	Sololá	704	Santa Lucía Utatlán 	7	Santa Rita 	10	Octubre	2023-10-14T00:00:00	2024-11-08T13:00:00	1	Precipitación	0
123032	7	Sololá	704	Santa Lucía Utatlán 	7	Santa Rita 	10	Octubre	2023-10-14T00:00:00	2024-11-08T13:00:00	8	Radiación solar	809
123033	7	Sololá	704	Santa Lucía Utatlán 	7	Santa Rita 	10	Octubre	2023-10-14T00:00:00	2024-11-08T14:00:00	2	Temperatura media	21.1
123034	7	Sololá	704	Santa Lucía Utatlán 	7	Santa Rita 	10	Octubre	2023-10-14T00:00:00	2024-11-08T14:00:00	4	Temperatura máxima	21.9
123035	7	Sololá	704	Santa Lucía Utatlán 	7	Santa Rita 	10	Octubre	2023-10-14T00:00:00	2024-11-08T14:00:00	3	Temperatura mínima	20.7
123036	7	Sololá	704	Santa Lucía Utatlán 	7	Santa Rita 	10	Octubre	2023-10-14T00:00:00	2024-11-08T14:00:00	5	Humedad	82
123037	7	Sololá	704	Santa Lucía Utatlán 	7	Santa Rita 	10	Octubre	2023-10-14T00:00:00	2024-11-08T14:00:00	6	Velocidad del viento	3.2
123038	7	Sololá	704	Santa Lucía Utatlán 	7	Santa Rita 	10	Octubre	2023-10-14T00:00:00	2024-11-08T14:00:00	7	Dirección del viento	3.22
123039	7	Sololá	704	Santa Lucía Utatlán 	7	Santa Rita 	10	Octubre	2023-10-14T00:00:00	2024-11-08T14:00:00	1	Precipitación	0
123040	7	Sololá	704	Santa Lucía Utatlán 	7	Santa Rita 	10	Octubre	2023-10-14T00:00:00	2024-11-08T14:00:00	8	Radiación solar	661
123041	7	Sololá	704	Santa Lucía Utatlán 	7	Santa Rita 	10	Octubre	2023-10-14T00:00:00	2024-11-08T15:00:00	2	Temperatura media	20.7
123042	7	Sololá	704	Santa Lucía Utatlán 	7	Santa Rita 	10	Octubre	2023-10-14T00:00:00	2024-11-08T15:00:00	4	Temperatura máxima	21.7
123043	7	Sololá	704	Santa Lucía Utatlán 	7	Santa Rita 	10	Octubre	2023-10-14T00:00:00	2024-11-08T15:00:00	3	Temperatura mínima	20.7
123044	7	Sololá	704	Santa Lucía Utatlán 	7	Santa Rita 	10	Octubre	2023-10-14T00:00:00	2024-11-08T15:00:00	5	Humedad	85
123045	7	Sololá	704	Santa Lucía Utatlán 	7	Santa Rita 	10	Octubre	2023-10-14T00:00:00	2024-11-08T15:00:00	6	Velocidad del viento	3.2
123046	7	Sololá	704	Santa Lucía Utatlán 	7	Santa Rita 	10	Octubre	2023-10-14T00:00:00	2024-11-08T15:00:00	7	Dirección del viento	3.22
123047	7	Sololá	704	Santa Lucía Utatlán 	7	Santa Rita 	10	Octubre	2023-10-14T00:00:00	2024-11-08T15:00:00	1	Precipitación	0
123048	7	Sololá	704	Santa Lucía Utatlán 	7	Santa Rita 	10	Octubre	2023-10-14T00:00:00	2024-11-08T15:00:00	8	Radiación solar	515
123049	7	Sololá	704	Santa Lucía Utatlán 	7	Santa Rita 	10	Octubre	2023-10-14T00:00:00	2024-11-08T16:00:00	2	Temperatura media	19.6
123050	7	Sololá	704	Santa Lucía Utatlán 	7	Santa Rita 	10	Octubre	2023-10-14T00:00:00	2024-11-08T16:00:00	4	Temperatura máxima	20.7
123051	7	Sololá	704	Santa Lucía Utatlán 	7	Santa Rita 	10	Octubre	2023-10-14T00:00:00	2024-11-08T16:00:00	3	Temperatura mínima	19.6
123052	7	Sololá	704	Santa Lucía Utatlán 	7	Santa Rita 	10	Octubre	2023-10-14T00:00:00	2024-11-08T16:00:00	5	Humedad	89
123053	7	Sololá	704	Santa Lucía Utatlán 	7	Santa Rita 	10	Octubre	2023-10-14T00:00:00	2024-11-08T16:00:00	6	Velocidad del viento	3.2
123054	7	Sololá	704	Santa Lucía Utatlán 	7	Santa Rita 	10	Octubre	2023-10-14T00:00:00	2024-11-08T16:00:00	7	Dirección del viento	3.22
123055	7	Sololá	704	Santa Lucía Utatlán 	7	Santa Rita 	10	Octubre	2023-10-14T00:00:00	2024-11-08T16:00:00	1	Precipitación	0
123056	7	Sololá	704	Santa Lucía Utatlán 	7	Santa Rita 	10	Octubre	2023-10-14T00:00:00	2024-11-08T16:00:00	8	Radiación solar	231
123057	7	Sololá	704	Santa Lucía Utatlán 	7	Santa Rita 	10	Octubre	2023-10-14T00:00:00	2024-11-08T17:00:00	2	Temperatura media	19.4
123058	7	Sololá	704	Santa Lucía Utatlán 	7	Santa Rita 	10	Octubre	2023-10-14T00:00:00	2024-11-08T17:00:00	4	Temperatura máxima	19.7
123059	7	Sololá	704	Santa Lucía Utatlán 	7	Santa Rita 	10	Octubre	2023-10-14T00:00:00	2024-11-08T17:00:00	3	Temperatura mínima	19.3
123060	7	Sololá	704	Santa Lucía Utatlán 	7	Santa Rita 	10	Octubre	2023-10-14T00:00:00	2024-11-08T17:00:00	5	Humedad	89
123061	7	Sololá	704	Santa Lucía Utatlán 	7	Santa Rita 	10	Octubre	2023-10-14T00:00:00	2024-11-08T17:00:00	6	Velocidad del viento	1.6
123062	7	Sololá	704	Santa Lucía Utatlán 	7	Santa Rita 	10	Octubre	2023-10-14T00:00:00	2024-11-08T17:00:00	7	Dirección del viento	1.61
123063	7	Sololá	704	Santa Lucía Utatlán 	7	Santa Rita 	10	Octubre	2023-10-14T00:00:00	2024-11-08T17:00:00	1	Precipitación	0
123064	7	Sololá	704	Santa Lucía Utatlán 	7	Santa Rita 	10	Octubre	2023-10-14T00:00:00	2024-11-08T17:00:00	8	Radiación solar	54
123065	7	Sololá	704	Santa Lucía Utatlán 	7	Santa Rita 	10	Octubre	2023-10-14T00:00:00	2024-11-08T18:00:00	2	Temperatura media	18.6
123066	7	Sololá	704	Santa Lucía Utatlán 	7	Santa Rita 	10	Octubre	2023-10-14T00:00:00	2024-11-08T18:00:00	4	Temperatura máxima	19.4
123067	7	Sololá	704	Santa Lucía Utatlán 	7	Santa Rita 	10	Octubre	2023-10-14T00:00:00	2024-11-08T18:00:00	3	Temperatura mínima	18.6
123068	7	Sololá	704	Santa Lucía Utatlán 	7	Santa Rita 	10	Octubre	2023-10-14T00:00:00	2024-11-08T18:00:00	5	Humedad	92
123069	7	Sololá	704	Santa Lucía Utatlán 	7	Santa Rita 	10	Octubre	2023-10-14T00:00:00	2024-11-08T18:00:00	6	Velocidad del viento	1.6
123070	7	Sololá	704	Santa Lucía Utatlán 	7	Santa Rita 	10	Octubre	2023-10-14T00:00:00	2024-11-08T18:00:00	7	Dirección del viento	1.61
123071	7	Sololá	704	Santa Lucía Utatlán 	7	Santa Rita 	10	Octubre	2023-10-14T00:00:00	2024-11-08T18:00:00	1	Precipitación	0
123072	7	Sololá	704	Santa Lucía Utatlán 	7	Santa Rita 	10	Octubre	2023-10-14T00:00:00	2024-11-08T18:00:00	8	Radiación solar	4
123073	7	Sololá	704	Santa Lucía Utatlán 	7	Santa Rita 	10	Octubre	2023-10-14T00:00:00	2024-11-08T19:00:00	2	Temperatura media	18.3
123074	7	Sololá	704	Santa Lucía Utatlán 	7	Santa Rita 	10	Octubre	2023-10-14T00:00:00	2024-11-08T19:00:00	4	Temperatura máxima	18.6
123075	7	Sololá	704	Santa Lucía Utatlán 	7	Santa Rita 	10	Octubre	2023-10-14T00:00:00	2024-11-08T19:00:00	3	Temperatura mínima	18.2
123076	7	Sololá	704	Santa Lucía Utatlán 	7	Santa Rita 	10	Octubre	2023-10-14T00:00:00	2024-11-08T19:00:00	5	Humedad	92
123077	7	Sololá	704	Santa Lucía Utatlán 	7	Santa Rita 	10	Octubre	2023-10-14T00:00:00	2024-11-08T19:00:00	6	Velocidad del viento	3.2
123078	7	Sololá	704	Santa Lucía Utatlán 	7	Santa Rita 	10	Octubre	2023-10-14T00:00:00	2024-11-08T19:00:00	7	Dirección del viento	3.22
123079	7	Sololá	704	Santa Lucía Utatlán 	7	Santa Rita 	10	Octubre	2023-10-14T00:00:00	2024-11-08T19:00:00	1	Precipitación	0
123080	7	Sololá	704	Santa Lucía Utatlán 	7	Santa Rita 	10	Octubre	2023-10-14T00:00:00	2024-11-08T19:00:00	8	Radiación solar	0
123081	7	Sololá	704	Santa Lucía Utatlán 	7	Santa Rita 	10	Octubre	2023-10-14T00:00:00	2024-11-08T20:00:00	2	Temperatura media	17.8
123082	7	Sololá	704	Santa Lucía Utatlán 	7	Santa Rita 	10	Octubre	2023-10-14T00:00:00	2024-11-08T20:00:00	4	Temperatura máxima	18.4
123083	7	Sololá	704	Santa Lucía Utatlán 	7	Santa Rita 	10	Octubre	2023-10-14T00:00:00	2024-11-08T20:00:00	3	Temperatura mínima	17.8
123084	7	Sololá	704	Santa Lucía Utatlán 	7	Santa Rita 	10	Octubre	2023-10-14T00:00:00	2024-11-08T20:00:00	5	Humedad	93
123085	7	Sololá	704	Santa Lucía Utatlán 	7	Santa Rita 	10	Octubre	2023-10-14T00:00:00	2024-11-08T20:00:00	6	Velocidad del viento	1.6
123086	7	Sololá	704	Santa Lucía Utatlán 	7	Santa Rita 	10	Octubre	2023-10-14T00:00:00	2024-11-08T20:00:00	7	Dirección del viento	1.61
123087	7	Sololá	704	Santa Lucía Utatlán 	7	Santa Rita 	10	Octubre	2023-10-14T00:00:00	2024-11-08T20:00:00	1	Precipitación	0
123088	7	Sololá	704	Santa Lucía Utatlán 	7	Santa Rita 	10	Octubre	2023-10-14T00:00:00	2024-11-08T20:00:00	8	Radiación solar	0
123089	7	Sololá	704	Santa Lucía Utatlán 	7	Santa Rita 	10	Octubre	2023-10-14T00:00:00	2024-11-08T21:00:00	2	Temperatura media	17.8
123090	7	Sololá	704	Santa Lucía Utatlán 	7	Santa Rita 	10	Octubre	2023-10-14T00:00:00	2024-11-08T21:00:00	4	Temperatura máxima	17.9
123091	7	Sololá	704	Santa Lucía Utatlán 	7	Santa Rita 	10	Octubre	2023-10-14T00:00:00	2024-11-08T21:00:00	3	Temperatura mínima	17.5
123092	7	Sololá	704	Santa Lucía Utatlán 	7	Santa Rita 	10	Octubre	2023-10-14T00:00:00	2024-11-08T21:00:00	5	Humedad	91
123093	7	Sololá	704	Santa Lucía Utatlán 	7	Santa Rita 	10	Octubre	2023-10-14T00:00:00	2024-11-08T21:00:00	6	Velocidad del viento	3.2
123094	7	Sololá	704	Santa Lucía Utatlán 	7	Santa Rita 	10	Octubre	2023-10-14T00:00:00	2024-11-08T21:00:00	7	Dirección del viento	3.22
123095	7	Sololá	704	Santa Lucía Utatlán 	7	Santa Rita 	10	Octubre	2023-10-14T00:00:00	2024-11-08T21:00:00	1	Precipitación	0
123096	7	Sololá	704	Santa Lucía Utatlán 	7	Santa Rita 	10	Octubre	2023-10-14T00:00:00	2024-11-08T21:00:00	8	Radiación solar	0
123097	7	Sololá	704	Santa Lucía Utatlán 	7	Santa Rita 	10	Octubre	2023-10-14T00:00:00	2024-11-08T22:00:00	2	Temperatura media	19.1
123098	7	Sololá	704	Santa Lucía Utatlán 	7	Santa Rita 	10	Octubre	2023-10-14T00:00:00	2024-11-08T22:00:00	4	Temperatura máxima	19.8
123099	7	Sololá	704	Santa Lucía Utatlán 	7	Santa Rita 	10	Octubre	2023-10-14T00:00:00	2024-11-08T22:00:00	3	Temperatura mínima	17.6
123100	7	Sololá	704	Santa Lucía Utatlán 	7	Santa Rita 	10	Octubre	2023-10-14T00:00:00	2024-11-08T22:00:00	5	Humedad	86
123101	7	Sololá	704	Santa Lucía Utatlán 	7	Santa Rita 	10	Octubre	2023-10-14T00:00:00	2024-11-08T22:00:00	6	Velocidad del viento	3.2
123102	7	Sololá	704	Santa Lucía Utatlán 	7	Santa Rita 	10	Octubre	2023-10-14T00:00:00	2024-11-08T22:00:00	7	Dirección del viento	3.22
123103	7	Sololá	704	Santa Lucía Utatlán 	7	Santa Rita 	10	Octubre	2023-10-14T00:00:00	2024-11-08T22:00:00	1	Precipitación	0
123104	7	Sololá	704	Santa Lucía Utatlán 	7	Santa Rita 	10	Octubre	2023-10-14T00:00:00	2024-11-08T22:00:00	8	Radiación solar	0
123105	7	Sololá	704	Santa Lucía Utatlán 	7	Santa Rita 	10	Octubre	2023-10-14T00:00:00	2024-11-08T23:00:00	2	Temperatura media	17.3
123106	7	Sololá	704	Santa Lucía Utatlán 	7	Santa Rita 	10	Octubre	2023-10-14T00:00:00	2024-11-08T23:00:00	4	Temperatura máxima	19.1
123107	7	Sololá	704	Santa Lucía Utatlán 	7	Santa Rita 	10	Octubre	2023-10-14T00:00:00	2024-11-08T23:00:00	3	Temperatura mínima	17.3
123108	7	Sololá	704	Santa Lucía Utatlán 	7	Santa Rita 	10	Octubre	2023-10-14T00:00:00	2024-11-08T23:00:00	5	Humedad	91
123109	7	Sololá	704	Santa Lucía Utatlán 	7	Santa Rita 	10	Octubre	2023-10-14T00:00:00	2024-11-08T23:00:00	6	Velocidad del viento	4.8
123110	7	Sololá	704	Santa Lucía Utatlán 	7	Santa Rita 	10	Octubre	2023-10-14T00:00:00	2024-11-08T23:00:00	7	Dirección del viento	4.83
123111	7	Sololá	704	Santa Lucía Utatlán 	7	Santa Rita 	10	Octubre	2023-10-14T00:00:00	2024-11-08T23:00:00	1	Precipitación	0
123112	7	Sololá	704	Santa Lucía Utatlán 	7	Santa Rita 	10	Octubre	2023-10-14T00:00:00	2024-11-08T23:00:00	8	Radiación solar	0
123113	7	Sololá	704	Santa Lucía Utatlán 	7	Santa Rita 	10	Octubre	2023-10-15T00:00:00	2024-11-08T00:00:00	2	Temperatura media	17.1
123114	7	Sololá	704	Santa Lucía Utatlán 	7	Santa Rita 	10	Octubre	2023-10-15T00:00:00	2024-11-08T00:00:00	4	Temperatura máxima	17.4
123115	7	Sololá	704	Santa Lucía Utatlán 	7	Santa Rita 	10	Octubre	2023-10-15T00:00:00	2024-11-08T00:00:00	3	Temperatura mínima	17.1
123116	7	Sololá	704	Santa Lucía Utatlán 	7	Santa Rita 	10	Octubre	2023-10-15T00:00:00	2024-11-08T00:00:00	5	Humedad	90
123117	7	Sololá	704	Santa Lucía Utatlán 	7	Santa Rita 	10	Octubre	2023-10-15T00:00:00	2024-11-08T00:00:00	6	Velocidad del viento	3.2
123118	7	Sololá	704	Santa Lucía Utatlán 	7	Santa Rita 	10	Octubre	2023-10-15T00:00:00	2024-11-08T00:00:00	7	Dirección del viento	3.22
123119	7	Sololá	704	Santa Lucía Utatlán 	7	Santa Rita 	10	Octubre	2023-10-15T00:00:00	2024-11-08T00:00:00	1	Precipitación	0
123120	7	Sololá	704	Santa Lucía Utatlán 	7	Santa Rita 	10	Octubre	2023-10-15T00:00:00	2024-11-08T00:00:00	8	Radiación solar	0
123121	7	Sololá	704	Santa Lucía Utatlán 	7	Santa Rita 	10	Octubre	2023-10-15T00:00:00	2024-11-08T01:00:00	2	Temperatura media	17
123122	7	Sololá	704	Santa Lucía Utatlán 	7	Santa Rita 	10	Octubre	2023-10-15T00:00:00	2024-11-08T01:00:00	4	Temperatura máxima	17.1
123123	7	Sololá	704	Santa Lucía Utatlán 	7	Santa Rita 	10	Octubre	2023-10-15T00:00:00	2024-11-08T01:00:00	3	Temperatura mínima	16.7
123124	7	Sololá	704	Santa Lucía Utatlán 	7	Santa Rita 	10	Octubre	2023-10-15T00:00:00	2024-11-08T01:00:00	5	Humedad	91
123125	7	Sololá	704	Santa Lucía Utatlán 	7	Santa Rita 	10	Octubre	2023-10-15T00:00:00	2024-11-08T01:00:00	6	Velocidad del viento	3.2
123126	7	Sololá	704	Santa Lucía Utatlán 	7	Santa Rita 	10	Octubre	2023-10-15T00:00:00	2024-11-08T01:00:00	7	Dirección del viento	3.22
123127	7	Sololá	704	Santa Lucía Utatlán 	7	Santa Rita 	10	Octubre	2023-10-15T00:00:00	2024-11-08T01:00:00	1	Precipitación	0
123128	7	Sololá	704	Santa Lucía Utatlán 	7	Santa Rita 	10	Octubre	2023-10-15T00:00:00	2024-11-08T01:00:00	8	Radiación solar	0
123129	7	Sololá	704	Santa Lucía Utatlán 	7	Santa Rita 	10	Octubre	2023-10-15T00:00:00	2024-11-08T02:00:00	2	Temperatura media	20.8
123130	7	Sololá	704	Santa Lucía Utatlán 	7	Santa Rita 	10	Octubre	2023-10-15T00:00:00	2024-11-08T02:00:00	4	Temperatura máxima	20.9
123131	7	Sololá	704	Santa Lucía Utatlán 	7	Santa Rita 	10	Octubre	2023-10-15T00:00:00	2024-11-08T02:00:00	3	Temperatura mínima	17
123132	7	Sololá	704	Santa Lucía Utatlán 	7	Santa Rita 	10	Octubre	2023-10-15T00:00:00	2024-11-08T02:00:00	5	Humedad	81
123133	7	Sololá	704	Santa Lucía Utatlán 	7	Santa Rita 	10	Octubre	2023-10-15T00:00:00	2024-11-08T02:00:00	6	Velocidad del viento	3.2
123134	7	Sololá	704	Santa Lucía Utatlán 	7	Santa Rita 	10	Octubre	2023-10-15T00:00:00	2024-11-08T02:00:00	7	Dirección del viento	3.22
123135	7	Sololá	704	Santa Lucía Utatlán 	7	Santa Rita 	10	Octubre	2023-10-15T00:00:00	2024-11-08T02:00:00	1	Precipitación	0
123136	7	Sololá	704	Santa Lucía Utatlán 	7	Santa Rita 	10	Octubre	2023-10-15T00:00:00	2024-11-08T02:00:00	8	Radiación solar	0
123137	7	Sololá	704	Santa Lucía Utatlán 	7	Santa Rita 	10	Octubre	2023-10-15T00:00:00	2024-11-08T03:00:00	2	Temperatura media	23.7
123138	7	Sololá	704	Santa Lucía Utatlán 	7	Santa Rita 	10	Octubre	2023-10-15T00:00:00	2024-11-08T03:00:00	4	Temperatura máxima	23.7
123139	7	Sololá	704	Santa Lucía Utatlán 	7	Santa Rita 	10	Octubre	2023-10-15T00:00:00	2024-11-08T03:00:00	3	Temperatura mínima	20.8
123140	7	Sololá	704	Santa Lucía Utatlán 	7	Santa Rita 	10	Octubre	2023-10-15T00:00:00	2024-11-08T03:00:00	5	Humedad	73
123141	7	Sololá	704	Santa Lucía Utatlán 	7	Santa Rita 	10	Octubre	2023-10-15T00:00:00	2024-11-08T03:00:00	6	Velocidad del viento	3.2
123142	7	Sololá	704	Santa Lucía Utatlán 	7	Santa Rita 	10	Octubre	2023-10-15T00:00:00	2024-11-08T03:00:00	7	Dirección del viento	3.22
123143	7	Sololá	704	Santa Lucía Utatlán 	7	Santa Rita 	10	Octubre	2023-10-15T00:00:00	2024-11-08T03:00:00	1	Precipitación	0
123144	7	Sololá	704	Santa Lucía Utatlán 	7	Santa Rita 	10	Octubre	2023-10-15T00:00:00	2024-11-08T03:00:00	8	Radiación solar	0
123145	7	Sololá	704	Santa Lucía Utatlán 	7	Santa Rita 	10	Octubre	2023-10-15T00:00:00	2024-11-08T04:00:00	2	Temperatura media	24.8
123146	7	Sololá	704	Santa Lucía Utatlán 	7	Santa Rita 	10	Octubre	2023-10-15T00:00:00	2024-11-08T04:00:00	4	Temperatura máxima	24.9
123147	7	Sololá	704	Santa Lucía Utatlán 	7	Santa Rita 	10	Octubre	2023-10-15T00:00:00	2024-11-08T04:00:00	3	Temperatura mínima	23.7
123148	7	Sololá	704	Santa Lucía Utatlán 	7	Santa Rita 	10	Octubre	2023-10-15T00:00:00	2024-11-08T04:00:00	5	Humedad	70
123149	7	Sololá	704	Santa Lucía Utatlán 	7	Santa Rita 	10	Octubre	2023-10-15T00:00:00	2024-11-08T04:00:00	6	Velocidad del viento	6.4
123150	7	Sololá	704	Santa Lucía Utatlán 	7	Santa Rita 	10	Octubre	2023-10-15T00:00:00	2024-11-08T04:00:00	7	Dirección del viento	6.44
123151	7	Sololá	704	Santa Lucía Utatlán 	7	Santa Rita 	10	Octubre	2023-10-15T00:00:00	2024-11-08T04:00:00	1	Precipitación	0
123152	7	Sololá	704	Santa Lucía Utatlán 	7	Santa Rita 	10	Octubre	2023-10-15T00:00:00	2024-11-08T04:00:00	8	Radiación solar	0
123153	7	Sololá	704	Santa Lucía Utatlán 	7	Santa Rita 	10	Octubre	2023-10-15T00:00:00	2024-11-08T05:00:00	2	Temperatura media	25.2
123154	7	Sololá	704	Santa Lucía Utatlán 	7	Santa Rita 	10	Octubre	2023-10-15T00:00:00	2024-11-08T05:00:00	4	Temperatura máxima	25.2
123155	7	Sololá	704	Santa Lucía Utatlán 	7	Santa Rita 	10	Octubre	2023-10-15T00:00:00	2024-11-08T05:00:00	3	Temperatura mínima	24.6
123156	7	Sololá	704	Santa Lucía Utatlán 	7	Santa Rita 	10	Octubre	2023-10-15T00:00:00	2024-11-08T05:00:00	5	Humedad	66
123157	7	Sololá	704	Santa Lucía Utatlán 	7	Santa Rita 	10	Octubre	2023-10-15T00:00:00	2024-11-08T05:00:00	6	Velocidad del viento	8
123158	7	Sololá	704	Santa Lucía Utatlán 	7	Santa Rita 	10	Octubre	2023-10-15T00:00:00	2024-11-08T05:00:00	7	Dirección del viento	8.05
123159	7	Sololá	704	Santa Lucía Utatlán 	7	Santa Rita 	10	Octubre	2023-10-15T00:00:00	2024-11-08T05:00:00	1	Precipitación	0
123160	7	Sololá	704	Santa Lucía Utatlán 	7	Santa Rita 	10	Octubre	2023-10-15T00:00:00	2024-11-08T05:00:00	8	Radiación solar	0
123161	7	Sololá	704	Santa Lucía Utatlán 	7	Santa Rita 	10	Octubre	2023-10-15T00:00:00	2024-11-08T06:00:00	2	Temperatura media	25
123162	7	Sololá	704	Santa Lucía Utatlán 	7	Santa Rita 	10	Octubre	2023-10-15T00:00:00	2024-11-08T06:00:00	4	Temperatura máxima	25.6
123163	7	Sololá	704	Santa Lucía Utatlán 	7	Santa Rita 	10	Octubre	2023-10-15T00:00:00	2024-11-08T06:00:00	3	Temperatura mínima	24.8
123164	7	Sololá	704	Santa Lucía Utatlán 	7	Santa Rita 	10	Octubre	2023-10-15T00:00:00	2024-11-08T06:00:00	5	Humedad	73
123165	7	Sololá	704	Santa Lucía Utatlán 	7	Santa Rita 	10	Octubre	2023-10-15T00:00:00	2024-11-08T06:00:00	6	Velocidad del viento	11.3
123166	7	Sololá	704	Santa Lucía Utatlán 	7	Santa Rita 	10	Octubre	2023-10-15T00:00:00	2024-11-08T06:00:00	7	Dirección del viento	11.27
123167	7	Sololá	704	Santa Lucía Utatlán 	7	Santa Rita 	10	Octubre	2023-10-15T00:00:00	2024-11-08T06:00:00	1	Precipitación	0
123168	7	Sololá	704	Santa Lucía Utatlán 	7	Santa Rita 	10	Octubre	2023-10-15T00:00:00	2024-11-08T06:00:00	8	Radiación solar	5
123169	7	Sololá	704	Santa Lucía Utatlán 	7	Santa Rita 	10	Octubre	2023-10-15T00:00:00	2024-11-08T07:00:00	2	Temperatura media	23.7
123170	7	Sololá	704	Santa Lucía Utatlán 	7	Santa Rita 	10	Octubre	2023-10-15T00:00:00	2024-11-08T07:00:00	4	Temperatura máxima	25.6
123171	7	Sololá	704	Santa Lucía Utatlán 	7	Santa Rita 	10	Octubre	2023-10-15T00:00:00	2024-11-08T07:00:00	3	Temperatura mínima	23.7
123172	7	Sololá	704	Santa Lucía Utatlán 	7	Santa Rita 	10	Octubre	2023-10-15T00:00:00	2024-11-08T07:00:00	5	Humedad	82
123173	7	Sololá	704	Santa Lucía Utatlán 	7	Santa Rita 	10	Octubre	2023-10-15T00:00:00	2024-11-08T07:00:00	6	Velocidad del viento	9.7
123174	7	Sololá	704	Santa Lucía Utatlán 	7	Santa Rita 	10	Octubre	2023-10-15T00:00:00	2024-11-08T07:00:00	7	Dirección del viento	9.66
123175	7	Sololá	704	Santa Lucía Utatlán 	7	Santa Rita 	10	Octubre	2023-10-15T00:00:00	2024-11-08T07:00:00	1	Precipitación	0
123176	7	Sololá	704	Santa Lucía Utatlán 	7	Santa Rita 	10	Octubre	2023-10-15T00:00:00	2024-11-08T07:00:00	8	Radiación solar	141
123177	7	Sololá	704	Santa Lucía Utatlán 	7	Santa Rita 	10	Octubre	2023-10-15T00:00:00	2024-11-08T08:00:00	2	Temperatura media	24.2
123178	7	Sololá	704	Santa Lucía Utatlán 	7	Santa Rita 	10	Octubre	2023-10-15T00:00:00	2024-11-08T08:00:00	4	Temperatura máxima	24.7
123179	7	Sololá	704	Santa Lucía Utatlán 	7	Santa Rita 	10	Octubre	2023-10-15T00:00:00	2024-11-08T08:00:00	3	Temperatura mínima	23.7
123180	7	Sololá	704	Santa Lucía Utatlán 	7	Santa Rita 	10	Octubre	2023-10-15T00:00:00	2024-11-08T08:00:00	5	Humedad	79
123181	7	Sololá	704	Santa Lucía Utatlán 	7	Santa Rita 	10	Octubre	2023-10-15T00:00:00	2024-11-08T08:00:00	6	Velocidad del viento	6.4
123182	7	Sololá	704	Santa Lucía Utatlán 	7	Santa Rita 	10	Octubre	2023-10-15T00:00:00	2024-11-08T08:00:00	7	Dirección del viento	6.44
123183	7	Sololá	704	Santa Lucía Utatlán 	7	Santa Rita 	10	Octubre	2023-10-15T00:00:00	2024-11-08T08:00:00	1	Precipitación	0
123184	7	Sololá	704	Santa Lucía Utatlán 	7	Santa Rita 	10	Octubre	2023-10-15T00:00:00	2024-11-08T08:00:00	8	Radiación solar	412
123185	7	Sololá	704	Santa Lucía Utatlán 	7	Santa Rita 	10	Octubre	2023-10-15T00:00:00	2024-11-08T09:00:00	2	Temperatura media	24.3
123186	7	Sololá	704	Santa Lucía Utatlán 	7	Santa Rita 	10	Octubre	2023-10-15T00:00:00	2024-11-08T09:00:00	4	Temperatura máxima	24.7
123187	7	Sololá	704	Santa Lucía Utatlán 	7	Santa Rita 	10	Octubre	2023-10-15T00:00:00	2024-11-08T09:00:00	3	Temperatura mínima	23.8
123188	7	Sololá	704	Santa Lucía Utatlán 	7	Santa Rita 	10	Octubre	2023-10-15T00:00:00	2024-11-08T09:00:00	5	Humedad	81
123189	7	Sololá	704	Santa Lucía Utatlán 	7	Santa Rita 	10	Octubre	2023-10-15T00:00:00	2024-11-08T09:00:00	6	Velocidad del viento	6.4
123190	7	Sololá	704	Santa Lucía Utatlán 	7	Santa Rita 	10	Octubre	2023-10-15T00:00:00	2024-11-08T09:00:00	7	Dirección del viento	6.44
123191	7	Sololá	704	Santa Lucía Utatlán 	7	Santa Rita 	10	Octubre	2023-10-15T00:00:00	2024-11-08T09:00:00	1	Precipitación	0
123192	7	Sololá	704	Santa Lucía Utatlán 	7	Santa Rita 	10	Octubre	2023-10-15T00:00:00	2024-11-08T09:00:00	8	Radiación solar	652
123193	7	Sololá	704	Santa Lucía Utatlán 	7	Santa Rita 	10	Octubre	2023-10-15T00:00:00	2024-11-08T10:00:00	2	Temperatura media	22.4
123194	7	Sololá	704	Santa Lucía Utatlán 	7	Santa Rita 	10	Octubre	2023-10-15T00:00:00	2024-11-08T10:00:00	4	Temperatura máxima	24.4
123195	7	Sololá	704	Santa Lucía Utatlán 	7	Santa Rita 	10	Octubre	2023-10-15T00:00:00	2024-11-08T10:00:00	3	Temperatura mínima	22.4
123196	7	Sololá	704	Santa Lucía Utatlán 	7	Santa Rita 	10	Octubre	2023-10-15T00:00:00	2024-11-08T10:00:00	5	Humedad	87
123197	7	Sololá	704	Santa Lucía Utatlán 	7	Santa Rita 	10	Octubre	2023-10-15T00:00:00	2024-11-08T10:00:00	6	Velocidad del viento	6.4
123198	7	Sololá	704	Santa Lucía Utatlán 	7	Santa Rita 	10	Octubre	2023-10-15T00:00:00	2024-11-08T10:00:00	7	Dirección del viento	6.44
123199	7	Sololá	704	Santa Lucía Utatlán 	7	Santa Rita 	10	Octubre	2023-10-15T00:00:00	2024-11-08T10:00:00	1	Precipitación	0
123200	7	Sololá	704	Santa Lucía Utatlán 	7	Santa Rita 	10	Octubre	2023-10-15T00:00:00	2024-11-08T10:00:00	8	Radiación solar	830
123201	7	Sololá	704	Santa Lucía Utatlán 	7	Santa Rita 	10	Octubre	2023-10-15T00:00:00	2024-11-08T11:00:00	2	Temperatura media	21.8
123202	7	Sololá	704	Santa Lucía Utatlán 	7	Santa Rita 	10	Octubre	2023-10-15T00:00:00	2024-11-08T11:00:00	4	Temperatura máxima	22.8
123203	7	Sololá	704	Santa Lucía Utatlán 	7	Santa Rita 	10	Octubre	2023-10-15T00:00:00	2024-11-08T11:00:00	3	Temperatura mínima	21.8
123204	7	Sololá	704	Santa Lucía Utatlán 	7	Santa Rita 	10	Octubre	2023-10-15T00:00:00	2024-11-08T11:00:00	5	Humedad	90
123205	7	Sololá	704	Santa Lucía Utatlán 	7	Santa Rita 	10	Octubre	2023-10-15T00:00:00	2024-11-08T11:00:00	6	Velocidad del viento	4.8
123206	7	Sololá	704	Santa Lucía Utatlán 	7	Santa Rita 	10	Octubre	2023-10-15T00:00:00	2024-11-08T11:00:00	7	Dirección del viento	4.83
123207	7	Sololá	704	Santa Lucía Utatlán 	7	Santa Rita 	10	Octubre	2023-10-15T00:00:00	2024-11-08T11:00:00	1	Precipitación	0
123208	7	Sololá	704	Santa Lucía Utatlán 	7	Santa Rita 	10	Octubre	2023-10-15T00:00:00	2024-11-08T11:00:00	8	Radiación solar	1003
123209	7	Sololá	704	Santa Lucía Utatlán 	7	Santa Rita 	10	Octubre	2023-10-15T00:00:00	2024-11-08T12:00:00	2	Temperatura media	20.9
123210	7	Sololá	704	Santa Lucía Utatlán 	7	Santa Rita 	10	Octubre	2023-10-15T00:00:00	2024-11-08T12:00:00	4	Temperatura máxima	21.8
123211	7	Sololá	704	Santa Lucía Utatlán 	7	Santa Rita 	10	Octubre	2023-10-15T00:00:00	2024-11-08T12:00:00	3	Temperatura mínima	20.9
123212	7	Sololá	704	Santa Lucía Utatlán 	7	Santa Rita 	10	Octubre	2023-10-15T00:00:00	2024-11-08T12:00:00	5	Humedad	94
123213	7	Sololá	704	Santa Lucía Utatlán 	7	Santa Rita 	10	Octubre	2023-10-15T00:00:00	2024-11-08T12:00:00	6	Velocidad del viento	3.2
123214	7	Sololá	704	Santa Lucía Utatlán 	7	Santa Rita 	10	Octubre	2023-10-15T00:00:00	2024-11-08T12:00:00	7	Dirección del viento	3.22
123215	7	Sololá	704	Santa Lucía Utatlán 	7	Santa Rita 	10	Octubre	2023-10-15T00:00:00	2024-11-08T12:00:00	1	Precipitación	0
123216	7	Sololá	704	Santa Lucía Utatlán 	7	Santa Rita 	10	Octubre	2023-10-15T00:00:00	2024-11-08T12:00:00	8	Radiación solar	612
123217	7	Sololá	704	Santa Lucía Utatlán 	7	Santa Rita 	10	Octubre	2023-10-15T00:00:00	2024-11-08T13:00:00	2	Temperatura media	20.6
123218	7	Sololá	704	Santa Lucía Utatlán 	7	Santa Rita 	10	Octubre	2023-10-15T00:00:00	2024-11-08T13:00:00	4	Temperatura máxima	20.9
123219	7	Sololá	704	Santa Lucía Utatlán 	7	Santa Rita 	10	Octubre	2023-10-15T00:00:00	2024-11-08T13:00:00	3	Temperatura mínima	20.6
123220	7	Sololá	704	Santa Lucía Utatlán 	7	Santa Rita 	10	Octubre	2023-10-15T00:00:00	2024-11-08T13:00:00	5	Humedad	94
123221	7	Sololá	704	Santa Lucía Utatlán 	7	Santa Rita 	10	Octubre	2023-10-15T00:00:00	2024-11-08T13:00:00	6	Velocidad del viento	1.6
123222	7	Sololá	704	Santa Lucía Utatlán 	7	Santa Rita 	10	Octubre	2023-10-15T00:00:00	2024-11-08T13:00:00	7	Dirección del viento	1.61
123223	7	Sololá	704	Santa Lucía Utatlán 	7	Santa Rita 	10	Octubre	2023-10-15T00:00:00	2024-11-08T13:00:00	1	Precipitación	0
123224	7	Sololá	704	Santa Lucía Utatlán 	7	Santa Rita 	10	Octubre	2023-10-15T00:00:00	2024-11-08T13:00:00	8	Radiación solar	434
123225	7	Sololá	704	Santa Lucía Utatlán 	7	Santa Rita 	10	Octubre	2023-10-15T00:00:00	2024-11-08T14:00:00	2	Temperatura media	20.3
123226	7	Sololá	704	Santa Lucía Utatlán 	7	Santa Rita 	10	Octubre	2023-10-15T00:00:00	2024-11-08T14:00:00	4	Temperatura máxima	20.7
123227	7	Sololá	704	Santa Lucía Utatlán 	7	Santa Rita 	10	Octubre	2023-10-15T00:00:00	2024-11-08T14:00:00	3	Temperatura mínima	20.3
123228	7	Sololá	704	Santa Lucía Utatlán 	7	Santa Rita 	10	Octubre	2023-10-15T00:00:00	2024-11-08T14:00:00	5	Humedad	94
123229	7	Sololá	704	Santa Lucía Utatlán 	7	Santa Rita 	10	Octubre	2023-10-15T00:00:00	2024-11-08T14:00:00	6	Velocidad del viento	1.6
123230	7	Sololá	704	Santa Lucía Utatlán 	7	Santa Rita 	10	Octubre	2023-10-15T00:00:00	2024-11-08T14:00:00	7	Dirección del viento	1.61
123231	7	Sololá	704	Santa Lucía Utatlán 	7	Santa Rita 	10	Octubre	2023-10-15T00:00:00	2024-11-08T14:00:00	1	Precipitación	0
123232	7	Sololá	704	Santa Lucía Utatlán 	7	Santa Rita 	10	Octubre	2023-10-15T00:00:00	2024-11-08T14:00:00	8	Radiación solar	420
123233	7	Sololá	704	Santa Lucía Utatlán 	7	Santa Rita 	10	Octubre	2023-10-15T00:00:00	2024-11-08T15:00:00	2	Temperatura media	20.1
123234	7	Sololá	704	Santa Lucía Utatlán 	7	Santa Rita 	10	Octubre	2023-10-15T00:00:00	2024-11-08T15:00:00	4	Temperatura máxima	20.3
123235	7	Sololá	704	Santa Lucía Utatlán 	7	Santa Rita 	10	Octubre	2023-10-15T00:00:00	2024-11-08T15:00:00	3	Temperatura mínima	19.7
123236	7	Sololá	704	Santa Lucía Utatlán 	7	Santa Rita 	10	Octubre	2023-10-15T00:00:00	2024-11-08T15:00:00	5	Humedad	94
123237	7	Sololá	704	Santa Lucía Utatlán 	7	Santa Rita 	10	Octubre	2023-10-15T00:00:00	2024-11-08T15:00:00	6	Velocidad del viento	1.6
123238	7	Sololá	704	Santa Lucía Utatlán 	7	Santa Rita 	10	Octubre	2023-10-15T00:00:00	2024-11-08T15:00:00	7	Dirección del viento	1.61
123239	7	Sololá	704	Santa Lucía Utatlán 	7	Santa Rita 	10	Octubre	2023-10-15T00:00:00	2024-11-08T15:00:00	1	Precipitación	0
123240	7	Sololá	704	Santa Lucía Utatlán 	7	Santa Rita 	10	Octubre	2023-10-15T00:00:00	2024-11-08T15:00:00	8	Radiación solar	163
123241	7	Sololá	704	Santa Lucía Utatlán 	7	Santa Rita 	10	Octubre	2023-10-15T00:00:00	2024-11-08T16:00:00	2	Temperatura media	19.2
123242	7	Sololá	704	Santa Lucía Utatlán 	7	Santa Rita 	10	Octubre	2023-10-15T00:00:00	2024-11-08T16:00:00	4	Temperatura máxima	20.1
123243	7	Sololá	704	Santa Lucía Utatlán 	7	Santa Rita 	10	Octubre	2023-10-15T00:00:00	2024-11-08T16:00:00	3	Temperatura mínima	19.2
123244	7	Sololá	704	Santa Lucía Utatlán 	7	Santa Rita 	10	Octubre	2023-10-15T00:00:00	2024-11-08T16:00:00	5	Humedad	94
123245	7	Sololá	704	Santa Lucía Utatlán 	7	Santa Rita 	10	Octubre	2023-10-15T00:00:00	2024-11-08T16:00:00	6	Velocidad del viento	1.6
123246	7	Sololá	704	Santa Lucía Utatlán 	7	Santa Rita 	10	Octubre	2023-10-15T00:00:00	2024-11-08T16:00:00	7	Dirección del viento	1.61
123247	7	Sololá	704	Santa Lucía Utatlán 	7	Santa Rita 	10	Octubre	2023-10-15T00:00:00	2024-11-08T16:00:00	1	Precipitación	0
123248	7	Sololá	704	Santa Lucía Utatlán 	7	Santa Rita 	10	Octubre	2023-10-15T00:00:00	2024-11-08T16:00:00	8	Radiación solar	108
123249	7	Sololá	704	Santa Lucía Utatlán 	7	Santa Rita 	10	Octubre	2023-10-15T00:00:00	2024-11-08T17:00:00	2	Temperatura media	19.7
123250	7	Sololá	704	Santa Lucía Utatlán 	7	Santa Rita 	10	Octubre	2023-10-15T00:00:00	2024-11-08T17:00:00	4	Temperatura máxima	19.7
123251	7	Sololá	704	Santa Lucía Utatlán 	7	Santa Rita 	10	Octubre	2023-10-15T00:00:00	2024-11-08T17:00:00	3	Temperatura mínima	19.2
123252	7	Sololá	704	Santa Lucía Utatlán 	7	Santa Rita 	10	Octubre	2023-10-15T00:00:00	2024-11-08T17:00:00	5	Humedad	95
123253	7	Sololá	704	Santa Lucía Utatlán 	7	Santa Rita 	10	Octubre	2023-10-15T00:00:00	2024-11-08T17:00:00	6	Velocidad del viento	0
123254	7	Sololá	704	Santa Lucía Utatlán 	7	Santa Rita 	10	Octubre	2023-10-15T00:00:00	2024-11-08T17:00:00	7	Dirección del viento	0
123255	7	Sololá	704	Santa Lucía Utatlán 	7	Santa Rita 	10	Octubre	2023-10-15T00:00:00	2024-11-08T17:00:00	1	Precipitación	0
123256	7	Sololá	704	Santa Lucía Utatlán 	7	Santa Rita 	10	Octubre	2023-10-15T00:00:00	2024-11-08T17:00:00	8	Radiación solar	24
123257	7	Sololá	704	Santa Lucía Utatlán 	7	Santa Rita 	10	Octubre	2023-10-15T00:00:00	2024-11-08T18:00:00	2	Temperatura media	19.4
123258	7	Sololá	704	Santa Lucía Utatlán 	7	Santa Rita 	10	Octubre	2023-10-15T00:00:00	2024-11-08T18:00:00	4	Temperatura máxima	19.7
123259	7	Sololá	704	Santa Lucía Utatlán 	7	Santa Rita 	10	Octubre	2023-10-15T00:00:00	2024-11-08T18:00:00	3	Temperatura mínima	19.3
123260	7	Sololá	704	Santa Lucía Utatlán 	7	Santa Rita 	10	Octubre	2023-10-15T00:00:00	2024-11-08T18:00:00	5	Humedad	96
123261	7	Sololá	704	Santa Lucía Utatlán 	7	Santa Rita 	10	Octubre	2023-10-15T00:00:00	2024-11-08T18:00:00	6	Velocidad del viento	0
123262	7	Sololá	704	Santa Lucía Utatlán 	7	Santa Rita 	10	Octubre	2023-10-15T00:00:00	2024-11-08T18:00:00	7	Dirección del viento	0
123263	7	Sololá	704	Santa Lucía Utatlán 	7	Santa Rita 	10	Octubre	2023-10-15T00:00:00	2024-11-08T18:00:00	1	Precipitación	4
123264	7	Sololá	704	Santa Lucía Utatlán 	7	Santa Rita 	10	Octubre	2023-10-15T00:00:00	2024-11-08T18:00:00	8	Radiación solar	0
123265	7	Sololá	704	Santa Lucía Utatlán 	7	Santa Rita 	10	Octubre	2023-10-15T00:00:00	2024-11-08T19:00:00	2	Temperatura media	19.1
123266	7	Sololá	704	Santa Lucía Utatlán 	7	Santa Rita 	10	Octubre	2023-10-15T00:00:00	2024-11-08T19:00:00	4	Temperatura máxima	19.4
123267	7	Sololá	704	Santa Lucía Utatlán 	7	Santa Rita 	10	Octubre	2023-10-15T00:00:00	2024-11-08T19:00:00	3	Temperatura mínima	19.1
123268	7	Sololá	704	Santa Lucía Utatlán 	7	Santa Rita 	10	Octubre	2023-10-15T00:00:00	2024-11-08T19:00:00	5	Humedad	96
123269	7	Sololá	704	Santa Lucía Utatlán 	7	Santa Rita 	10	Octubre	2023-10-15T00:00:00	2024-11-08T19:00:00	6	Velocidad del viento	1.6
123270	7	Sololá	704	Santa Lucía Utatlán 	7	Santa Rita 	10	Octubre	2023-10-15T00:00:00	2024-11-08T19:00:00	7	Dirección del viento	1.61
123271	7	Sololá	704	Santa Lucía Utatlán 	7	Santa Rita 	10	Octubre	2023-10-15T00:00:00	2024-11-08T19:00:00	1	Precipitación	1.6
123272	7	Sololá	704	Santa Lucía Utatlán 	7	Santa Rita 	10	Octubre	2023-10-15T00:00:00	2024-11-08T19:00:00	8	Radiación solar	0
123273	7	Sololá	704	Santa Lucía Utatlán 	7	Santa Rita 	10	Octubre	2023-10-15T00:00:00	2024-11-08T20:00:00	2	Temperatura media	19.2
123274	7	Sololá	704	Santa Lucía Utatlán 	7	Santa Rita 	10	Octubre	2023-10-15T00:00:00	2024-11-08T20:00:00	4	Temperatura máxima	19.4
123275	7	Sololá	704	Santa Lucía Utatlán 	7	Santa Rita 	10	Octubre	2023-10-15T00:00:00	2024-11-08T20:00:00	3	Temperatura mínima	18.6
123276	7	Sololá	704	Santa Lucía Utatlán 	7	Santa Rita 	10	Octubre	2023-10-15T00:00:00	2024-11-08T20:00:00	5	Humedad	86
123277	7	Sololá	704	Santa Lucía Utatlán 	7	Santa Rita 	10	Octubre	2023-10-15T00:00:00	2024-11-08T20:00:00	6	Velocidad del viento	1.6
123278	7	Sololá	704	Santa Lucía Utatlán 	7	Santa Rita 	10	Octubre	2023-10-15T00:00:00	2024-11-08T20:00:00	7	Dirección del viento	1.61
123279	7	Sololá	704	Santa Lucía Utatlán 	7	Santa Rita 	10	Octubre	2023-10-15T00:00:00	2024-11-08T20:00:00	1	Precipitación	0
123280	7	Sololá	704	Santa Lucía Utatlán 	7	Santa Rita 	10	Octubre	2023-10-15T00:00:00	2024-11-08T20:00:00	8	Radiación solar	0
123281	7	Sololá	704	Santa Lucía Utatlán 	7	Santa Rita 	10	Octubre	2023-10-15T00:00:00	2024-11-08T21:00:00	2	Temperatura media	18.2
123282	7	Sololá	704	Santa Lucía Utatlán 	7	Santa Rita 	10	Octubre	2023-10-15T00:00:00	2024-11-08T21:00:00	4	Temperatura máxima	19.2
123283	7	Sololá	704	Santa Lucía Utatlán 	7	Santa Rita 	10	Octubre	2023-10-15T00:00:00	2024-11-08T21:00:00	3	Temperatura mínima	18.2
123284	7	Sololá	704	Santa Lucía Utatlán 	7	Santa Rita 	10	Octubre	2023-10-15T00:00:00	2024-11-08T21:00:00	5	Humedad	86
123285	7	Sololá	704	Santa Lucía Utatlán 	7	Santa Rita 	10	Octubre	2023-10-15T00:00:00	2024-11-08T21:00:00	6	Velocidad del viento	3.2
123286	7	Sololá	704	Santa Lucía Utatlán 	7	Santa Rita 	10	Octubre	2023-10-15T00:00:00	2024-11-08T21:00:00	7	Dirección del viento	3.22
123287	7	Sololá	704	Santa Lucía Utatlán 	7	Santa Rita 	10	Octubre	2023-10-15T00:00:00	2024-11-08T21:00:00	1	Precipitación	0
123288	7	Sololá	704	Santa Lucía Utatlán 	7	Santa Rita 	10	Octubre	2023-10-15T00:00:00	2024-11-08T21:00:00	8	Radiación solar	0
123289	7	Sololá	704	Santa Lucía Utatlán 	7	Santa Rita 	10	Octubre	2023-10-15T00:00:00	2024-11-08T22:00:00	2	Temperatura media	18.1
123290	7	Sololá	704	Santa Lucía Utatlán 	7	Santa Rita 	10	Octubre	2023-10-15T00:00:00	2024-11-08T22:00:00	4	Temperatura máxima	18.8
123291	7	Sololá	704	Santa Lucía Utatlán 	7	Santa Rita 	10	Octubre	2023-10-15T00:00:00	2024-11-08T22:00:00	3	Temperatura mínima	18
123292	7	Sololá	704	Santa Lucía Utatlán 	7	Santa Rita 	10	Octubre	2023-10-15T00:00:00	2024-11-08T22:00:00	5	Humedad	84
123293	7	Sololá	704	Santa Lucía Utatlán 	7	Santa Rita 	10	Octubre	2023-10-15T00:00:00	2024-11-08T22:00:00	6	Velocidad del viento	1.6
123294	7	Sololá	704	Santa Lucía Utatlán 	7	Santa Rita 	10	Octubre	2023-10-15T00:00:00	2024-11-08T22:00:00	7	Dirección del viento	1.61
123295	7	Sololá	704	Santa Lucía Utatlán 	7	Santa Rita 	10	Octubre	2023-10-15T00:00:00	2024-11-08T22:00:00	1	Precipitación	0
123296	7	Sololá	704	Santa Lucía Utatlán 	7	Santa Rita 	10	Octubre	2023-10-15T00:00:00	2024-11-08T22:00:00	8	Radiación solar	0
123297	7	Sololá	704	Santa Lucía Utatlán 	7	Santa Rita 	10	Octubre	2023-10-15T00:00:00	2024-11-08T23:00:00	2	Temperatura media	17.7
123298	7	Sololá	704	Santa Lucía Utatlán 	7	Santa Rita 	10	Octubre	2023-10-15T00:00:00	2024-11-08T23:00:00	4	Temperatura máxima	18.1
123299	7	Sololá	704	Santa Lucía Utatlán 	7	Santa Rita 	10	Octubre	2023-10-15T00:00:00	2024-11-08T23:00:00	3	Temperatura mínima	17.6
123300	7	Sololá	704	Santa Lucía Utatlán 	7	Santa Rita 	10	Octubre	2023-10-15T00:00:00	2024-11-08T23:00:00	5	Humedad	84
123301	7	Sololá	704	Santa Lucía Utatlán 	7	Santa Rita 	10	Octubre	2023-10-15T00:00:00	2024-11-08T23:00:00	6	Velocidad del viento	3.2
123302	7	Sololá	704	Santa Lucía Utatlán 	7	Santa Rita 	10	Octubre	2023-10-15T00:00:00	2024-11-08T23:00:00	7	Dirección del viento	3.22
123303	7	Sololá	704	Santa Lucía Utatlán 	7	Santa Rita 	10	Octubre	2023-10-15T00:00:00	2024-11-08T23:00:00	1	Precipitación	0
123304	7	Sololá	704	Santa Lucía Utatlán 	7	Santa Rita 	10	Octubre	2023-10-15T00:00:00	2024-11-08T23:00:00	8	Radiación solar	0
123305	7	Sololá	704	Santa Lucía Utatlán 	7	Santa Rita 	10	Octubre	2023-10-16T00:00:00	2024-11-08T00:00:00	2	Temperatura media	21.4
123306	7	Sololá	704	Santa Lucía Utatlán 	7	Santa Rita 	10	Octubre	2023-10-16T00:00:00	2024-11-08T00:00:00	4	Temperatura máxima	21.4
123307	7	Sololá	704	Santa Lucía Utatlán 	7	Santa Rita 	10	Octubre	2023-10-16T00:00:00	2024-11-08T00:00:00	3	Temperatura mínima	20.7
123308	7	Sololá	704	Santa Lucía Utatlán 	7	Santa Rita 	10	Octubre	2023-10-16T00:00:00	2024-11-08T00:00:00	5	Humedad	66
123309	7	Sololá	704	Santa Lucía Utatlán 	7	Santa Rita 	10	Octubre	2023-10-16T00:00:00	2024-11-08T00:00:00	6	Velocidad del viento	16.1
123310	7	Sololá	704	Santa Lucía Utatlán 	7	Santa Rita 	10	Octubre	2023-10-16T00:00:00	2024-11-08T00:00:00	7	Dirección del viento	16.09
123311	7	Sololá	704	Santa Lucía Utatlán 	7	Santa Rita 	10	Octubre	2023-10-16T00:00:00	2024-11-08T00:00:00	1	Precipitación	0
123312	7	Sololá	704	Santa Lucía Utatlán 	7	Santa Rita 	10	Octubre	2023-10-16T00:00:00	2024-11-08T00:00:00	8	Radiación solar	0
123313	7	Sololá	704	Santa Lucía Utatlán 	7	Santa Rita 	10	Octubre	2023-10-16T00:00:00	2024-11-08T01:00:00	2	Temperatura media	22.1
123314	7	Sololá	704	Santa Lucía Utatlán 	7	Santa Rita 	10	Octubre	2023-10-16T00:00:00	2024-11-08T01:00:00	4	Temperatura máxima	22.2
123315	7	Sololá	704	Santa Lucía Utatlán 	7	Santa Rita 	10	Octubre	2023-10-16T00:00:00	2024-11-08T01:00:00	3	Temperatura mínima	21.4
123316	7	Sololá	704	Santa Lucía Utatlán 	7	Santa Rita 	10	Octubre	2023-10-16T00:00:00	2024-11-08T01:00:00	5	Humedad	64
123317	7	Sololá	704	Santa Lucía Utatlán 	7	Santa Rita 	10	Octubre	2023-10-16T00:00:00	2024-11-08T01:00:00	6	Velocidad del viento	11.3
123318	7	Sololá	704	Santa Lucía Utatlán 	7	Santa Rita 	10	Octubre	2023-10-16T00:00:00	2024-11-08T01:00:00	7	Dirección del viento	11.27
123319	7	Sololá	704	Santa Lucía Utatlán 	7	Santa Rita 	10	Octubre	2023-10-16T00:00:00	2024-11-08T01:00:00	1	Precipitación	0
123320	7	Sololá	704	Santa Lucía Utatlán 	7	Santa Rita 	10	Octubre	2023-10-16T00:00:00	2024-11-08T01:00:00	8	Radiación solar	0
123321	7	Sololá	704	Santa Lucía Utatlán 	7	Santa Rita 	10	Octubre	2023-10-16T00:00:00	2024-11-08T02:00:00	2	Temperatura media	22.6
123322	7	Sololá	704	Santa Lucía Utatlán 	7	Santa Rita 	10	Octubre	2023-10-16T00:00:00	2024-11-08T02:00:00	4	Temperatura máxima	22.9
123323	7	Sololá	704	Santa Lucía Utatlán 	7	Santa Rita 	10	Octubre	2023-10-16T00:00:00	2024-11-08T02:00:00	3	Temperatura mínima	21.7
123324	7	Sololá	704	Santa Lucía Utatlán 	7	Santa Rita 	10	Octubre	2023-10-16T00:00:00	2024-11-08T02:00:00	5	Humedad	72
123325	7	Sololá	704	Santa Lucía Utatlán 	7	Santa Rita 	10	Octubre	2023-10-16T00:00:00	2024-11-08T02:00:00	6	Velocidad del viento	11.3
123326	7	Sololá	704	Santa Lucía Utatlán 	7	Santa Rita 	10	Octubre	2023-10-16T00:00:00	2024-11-08T02:00:00	7	Dirección del viento	11.27
123327	7	Sololá	704	Santa Lucía Utatlán 	7	Santa Rita 	10	Octubre	2023-10-16T00:00:00	2024-11-08T02:00:00	1	Precipitación	0
123328	7	Sololá	704	Santa Lucía Utatlán 	7	Santa Rita 	10	Octubre	2023-10-16T00:00:00	2024-11-08T02:00:00	8	Radiación solar	0
123329	7	Sololá	704	Santa Lucía Utatlán 	7	Santa Rita 	10	Octubre	2023-10-16T00:00:00	2024-11-08T03:00:00	2	Temperatura media	22.8
123330	7	Sololá	704	Santa Lucía Utatlán 	7	Santa Rita 	10	Octubre	2023-10-16T00:00:00	2024-11-08T03:00:00	4	Temperatura máxima	23.1
123331	7	Sololá	704	Santa Lucía Utatlán 	7	Santa Rita 	10	Octubre	2023-10-16T00:00:00	2024-11-08T03:00:00	3	Temperatura mínima	22.1
123332	7	Sololá	704	Santa Lucía Utatlán 	7	Santa Rita 	10	Octubre	2023-10-16T00:00:00	2024-11-08T03:00:00	5	Humedad	72
123333	7	Sololá	704	Santa Lucía Utatlán 	7	Santa Rita 	10	Octubre	2023-10-16T00:00:00	2024-11-08T03:00:00	6	Velocidad del viento	12.9
123334	7	Sololá	704	Santa Lucía Utatlán 	7	Santa Rita 	10	Octubre	2023-10-16T00:00:00	2024-11-08T03:00:00	7	Dirección del viento	12.87
123335	7	Sololá	704	Santa Lucía Utatlán 	7	Santa Rita 	10	Octubre	2023-10-16T00:00:00	2024-11-08T03:00:00	1	Precipitación	0
123336	7	Sololá	704	Santa Lucía Utatlán 	7	Santa Rita 	10	Octubre	2023-10-16T00:00:00	2024-11-08T03:00:00	8	Radiación solar	0
123337	7	Sololá	704	Santa Lucía Utatlán 	7	Santa Rita 	10	Octubre	2023-10-16T00:00:00	2024-11-08T04:00:00	2	Temperatura media	22.2
123338	7	Sololá	704	Santa Lucía Utatlán 	7	Santa Rita 	10	Octubre	2023-10-16T00:00:00	2024-11-08T04:00:00	4	Temperatura máxima	22.8
123339	7	Sololá	704	Santa Lucía Utatlán 	7	Santa Rita 	10	Octubre	2023-10-16T00:00:00	2024-11-08T04:00:00	3	Temperatura mínima	21.8
123340	7	Sololá	704	Santa Lucía Utatlán 	7	Santa Rita 	10	Octubre	2023-10-16T00:00:00	2024-11-08T04:00:00	5	Humedad	73
123341	7	Sololá	704	Santa Lucía Utatlán 	7	Santa Rita 	10	Octubre	2023-10-16T00:00:00	2024-11-08T04:00:00	6	Velocidad del viento	12.9
123342	7	Sololá	704	Santa Lucía Utatlán 	7	Santa Rita 	10	Octubre	2023-10-16T00:00:00	2024-11-08T04:00:00	7	Dirección del viento	12.87
123343	7	Sololá	704	Santa Lucía Utatlán 	7	Santa Rita 	10	Octubre	2023-10-16T00:00:00	2024-11-08T04:00:00	1	Precipitación	0
123344	7	Sololá	704	Santa Lucía Utatlán 	7	Santa Rita 	10	Octubre	2023-10-16T00:00:00	2024-11-08T04:00:00	8	Radiación solar	0
123345	7	Sololá	704	Santa Lucía Utatlán 	7	Santa Rita 	10	Octubre	2023-10-16T00:00:00	2024-11-08T05:00:00	2	Temperatura media	22.5
123346	7	Sololá	704	Santa Lucía Utatlán 	7	Santa Rita 	10	Octubre	2023-10-16T00:00:00	2024-11-08T05:00:00	4	Temperatura máxima	23
123347	7	Sololá	704	Santa Lucía Utatlán 	7	Santa Rita 	10	Octubre	2023-10-16T00:00:00	2024-11-08T05:00:00	3	Temperatura mínima	22.2
123348	7	Sololá	704	Santa Lucía Utatlán 	7	Santa Rita 	10	Octubre	2023-10-16T00:00:00	2024-11-08T05:00:00	5	Humedad	72
123349	7	Sololá	704	Santa Lucía Utatlán 	7	Santa Rita 	10	Octubre	2023-10-16T00:00:00	2024-11-08T05:00:00	6	Velocidad del viento	9.7
123350	7	Sololá	704	Santa Lucía Utatlán 	7	Santa Rita 	10	Octubre	2023-10-16T00:00:00	2024-11-08T05:00:00	7	Dirección del viento	9.66
123351	7	Sololá	704	Santa Lucía Utatlán 	7	Santa Rita 	10	Octubre	2023-10-16T00:00:00	2024-11-08T05:00:00	1	Precipitación	0
123352	7	Sololá	704	Santa Lucía Utatlán 	7	Santa Rita 	10	Octubre	2023-10-16T00:00:00	2024-11-08T05:00:00	8	Radiación solar	0
123353	7	Sololá	704	Santa Lucía Utatlán 	7	Santa Rita 	10	Octubre	2023-10-16T00:00:00	2024-11-08T06:00:00	2	Temperatura media	23.9
123354	7	Sololá	704	Santa Lucía Utatlán 	7	Santa Rita 	10	Octubre	2023-10-16T00:00:00	2024-11-08T06:00:00	4	Temperatura máxima	23.9
123355	7	Sololá	704	Santa Lucía Utatlán 	7	Santa Rita 	10	Octubre	2023-10-16T00:00:00	2024-11-08T06:00:00	3	Temperatura mínima	22.2
123356	7	Sololá	704	Santa Lucía Utatlán 	7	Santa Rita 	10	Octubre	2023-10-16T00:00:00	2024-11-08T06:00:00	5	Humedad	69
123357	7	Sololá	704	Santa Lucía Utatlán 	7	Santa Rita 	10	Octubre	2023-10-16T00:00:00	2024-11-08T06:00:00	6	Velocidad del viento	12.9
123358	7	Sololá	704	Santa Lucía Utatlán 	7	Santa Rita 	10	Octubre	2023-10-16T00:00:00	2024-11-08T06:00:00	7	Dirección del viento	12.87
123359	7	Sololá	704	Santa Lucía Utatlán 	7	Santa Rita 	10	Octubre	2023-10-16T00:00:00	2024-11-08T06:00:00	1	Precipitación	0
123360	7	Sololá	704	Santa Lucía Utatlán 	7	Santa Rita 	10	Octubre	2023-10-16T00:00:00	2024-11-08T06:00:00	8	Radiación solar	38
123361	7	Sololá	704	Santa Lucía Utatlán 	7	Santa Rita 	10	Octubre	2023-10-16T00:00:00	2024-11-08T07:00:00	2	Temperatura media	23.6
123362	7	Sololá	704	Santa Lucía Utatlán 	7	Santa Rita 	10	Octubre	2023-10-16T00:00:00	2024-11-08T07:00:00	4	Temperatura máxima	24.7
123363	7	Sololá	704	Santa Lucía Utatlán 	7	Santa Rita 	10	Octubre	2023-10-16T00:00:00	2024-11-08T07:00:00	3	Temperatura mínima	23.6
123364	7	Sololá	704	Santa Lucía Utatlán 	7	Santa Rita 	10	Octubre	2023-10-16T00:00:00	2024-11-08T07:00:00	5	Humedad	66
123365	7	Sololá	704	Santa Lucía Utatlán 	7	Santa Rita 	10	Octubre	2023-10-16T00:00:00	2024-11-08T07:00:00	6	Velocidad del viento	12.9
123366	7	Sololá	704	Santa Lucía Utatlán 	7	Santa Rita 	10	Octubre	2023-10-16T00:00:00	2024-11-08T07:00:00	7	Dirección del viento	12.87
123367	7	Sololá	704	Santa Lucía Utatlán 	7	Santa Rita 	10	Octubre	2023-10-16T00:00:00	2024-11-08T07:00:00	1	Precipitación	0
123368	7	Sololá	704	Santa Lucía Utatlán 	7	Santa Rita 	10	Octubre	2023-10-16T00:00:00	2024-11-08T07:00:00	8	Radiación solar	250
123369	7	Sololá	704	Santa Lucía Utatlán 	7	Santa Rita 	10	Octubre	2023-10-16T00:00:00	2024-11-08T08:00:00	2	Temperatura media	21.9
123370	7	Sololá	704	Santa Lucía Utatlán 	7	Santa Rita 	10	Octubre	2023-10-16T00:00:00	2024-11-08T08:00:00	4	Temperatura máxima	23.8
123371	7	Sololá	704	Santa Lucía Utatlán 	7	Santa Rita 	10	Octubre	2023-10-16T00:00:00	2024-11-08T08:00:00	3	Temperatura mínima	21.9
123372	7	Sololá	704	Santa Lucía Utatlán 	7	Santa Rita 	10	Octubre	2023-10-16T00:00:00	2024-11-08T08:00:00	5	Humedad	75
123373	7	Sololá	704	Santa Lucía Utatlán 	7	Santa Rita 	10	Octubre	2023-10-16T00:00:00	2024-11-08T08:00:00	6	Velocidad del viento	11.3
123374	7	Sololá	704	Santa Lucía Utatlán 	7	Santa Rita 	10	Octubre	2023-10-16T00:00:00	2024-11-08T08:00:00	7	Dirección del viento	11.27
123375	7	Sololá	704	Santa Lucía Utatlán 	7	Santa Rita 	10	Octubre	2023-10-16T00:00:00	2024-11-08T08:00:00	1	Precipitación	0
123376	7	Sololá	704	Santa Lucía Utatlán 	7	Santa Rita 	10	Octubre	2023-10-16T00:00:00	2024-11-08T08:00:00	8	Radiación solar	405
123377	7	Sololá	704	Santa Lucía Utatlán 	7	Santa Rita 	10	Octubre	2023-10-16T00:00:00	2024-11-08T09:00:00	2	Temperatura media	21.7
123378	7	Sololá	704	Santa Lucía Utatlán 	7	Santa Rita 	10	Octubre	2023-10-16T00:00:00	2024-11-08T09:00:00	4	Temperatura máxima	22.1
123379	7	Sololá	704	Santa Lucía Utatlán 	7	Santa Rita 	10	Octubre	2023-10-16T00:00:00	2024-11-08T09:00:00	3	Temperatura mínima	21.6
123380	7	Sololá	704	Santa Lucía Utatlán 	7	Santa Rita 	10	Octubre	2023-10-16T00:00:00	2024-11-08T09:00:00	5	Humedad	75
123381	7	Sololá	704	Santa Lucía Utatlán 	7	Santa Rita 	10	Octubre	2023-10-16T00:00:00	2024-11-08T09:00:00	6	Velocidad del viento	11.3
123382	7	Sololá	704	Santa Lucía Utatlán 	7	Santa Rita 	10	Octubre	2023-10-16T00:00:00	2024-11-08T09:00:00	7	Dirección del viento	11.27
123383	7	Sololá	704	Santa Lucía Utatlán 	7	Santa Rita 	10	Octubre	2023-10-16T00:00:00	2024-11-08T09:00:00	1	Precipitación	0
123384	7	Sololá	704	Santa Lucía Utatlán 	7	Santa Rita 	10	Octubre	2023-10-16T00:00:00	2024-11-08T09:00:00	8	Radiación solar	676
123385	7	Sololá	704	Santa Lucía Utatlán 	7	Santa Rita 	10	Octubre	2023-10-16T00:00:00	2024-11-08T10:00:00	2	Temperatura media	24.2
123386	7	Sololá	704	Santa Lucía Utatlán 	7	Santa Rita 	10	Octubre	2023-10-16T00:00:00	2024-11-08T10:00:00	4	Temperatura máxima	24.8
123387	7	Sololá	704	Santa Lucía Utatlán 	7	Santa Rita 	10	Octubre	2023-10-16T00:00:00	2024-11-08T10:00:00	3	Temperatura mínima	23.4
123388	7	Sololá	704	Santa Lucía Utatlán 	7	Santa Rita 	10	Octubre	2023-10-16T00:00:00	2024-11-08T10:00:00	5	Humedad	67
123389	7	Sololá	704	Santa Lucía Utatlán 	7	Santa Rita 	10	Octubre	2023-10-16T00:00:00	2024-11-08T10:00:00	6	Velocidad del viento	9.7
123390	7	Sololá	704	Santa Lucía Utatlán 	7	Santa Rita 	10	Octubre	2023-10-16T00:00:00	2024-11-08T10:00:00	7	Dirección del viento	9.66
123391	7	Sololá	704	Santa Lucía Utatlán 	7	Santa Rita 	10	Octubre	2023-10-16T00:00:00	2024-11-08T10:00:00	1	Precipitación	0
123392	7	Sololá	704	Santa Lucía Utatlán 	7	Santa Rita 	10	Octubre	2023-10-16T00:00:00	2024-11-08T10:00:00	8	Radiación solar	367
123393	7	Sololá	704	Santa Lucía Utatlán 	7	Santa Rita 	10	Octubre	2023-10-16T00:00:00	2024-11-08T11:00:00	2	Temperatura media	24.1
123394	7	Sololá	704	Santa Lucía Utatlán 	7	Santa Rita 	10	Octubre	2023-10-16T00:00:00	2024-11-08T11:00:00	4	Temperatura máxima	24.2
123395	7	Sololá	704	Santa Lucía Utatlán 	7	Santa Rita 	10	Octubre	2023-10-16T00:00:00	2024-11-08T11:00:00	3	Temperatura mínima	23.1
123396	7	Sololá	704	Santa Lucía Utatlán 	7	Santa Rita 	10	Octubre	2023-10-16T00:00:00	2024-11-08T11:00:00	5	Humedad	71
123397	7	Sololá	704	Santa Lucía Utatlán 	7	Santa Rita 	10	Octubre	2023-10-16T00:00:00	2024-11-08T11:00:00	6	Velocidad del viento	8
123398	7	Sololá	704	Santa Lucía Utatlán 	7	Santa Rita 	10	Octubre	2023-10-16T00:00:00	2024-11-08T11:00:00	7	Dirección del viento	8.05
123399	7	Sololá	704	Santa Lucía Utatlán 	7	Santa Rita 	10	Octubre	2023-10-16T00:00:00	2024-11-08T11:00:00	1	Precipitación	0
123400	7	Sololá	704	Santa Lucía Utatlán 	7	Santa Rita 	10	Octubre	2023-10-16T00:00:00	2024-11-08T11:00:00	8	Radiación solar	397
123401	7	Sololá	704	Santa Lucía Utatlán 	7	Santa Rita 	10	Octubre	2023-10-16T00:00:00	2024-11-08T12:00:00	2	Temperatura media	22.7
123402	7	Sololá	704	Santa Lucía Utatlán 	7	Santa Rita 	10	Octubre	2023-10-16T00:00:00	2024-11-08T12:00:00	4	Temperatura máxima	25.1
123403	7	Sololá	704	Santa Lucía Utatlán 	7	Santa Rita 	10	Octubre	2023-10-16T00:00:00	2024-11-08T12:00:00	3	Temperatura mínima	22.7
123404	7	Sololá	704	Santa Lucía Utatlán 	7	Santa Rita 	10	Octubre	2023-10-16T00:00:00	2024-11-08T12:00:00	5	Humedad	80
123405	7	Sololá	704	Santa Lucía Utatlán 	7	Santa Rita 	10	Octubre	2023-10-16T00:00:00	2024-11-08T12:00:00	6	Velocidad del viento	9.7
123406	7	Sololá	704	Santa Lucía Utatlán 	7	Santa Rita 	10	Octubre	2023-10-16T00:00:00	2024-11-08T12:00:00	7	Dirección del viento	9.66
123407	7	Sololá	704	Santa Lucía Utatlán 	7	Santa Rita 	10	Octubre	2023-10-16T00:00:00	2024-11-08T12:00:00	1	Precipitación	0
123408	7	Sololá	704	Santa Lucía Utatlán 	7	Santa Rita 	10	Octubre	2023-10-16T00:00:00	2024-11-08T12:00:00	8	Radiación solar	370
123409	7	Sololá	704	Santa Lucía Utatlán 	7	Santa Rita 	10	Octubre	2023-10-16T00:00:00	2024-11-08T13:00:00	2	Temperatura media	22.6
123410	7	Sololá	704	Santa Lucía Utatlán 	7	Santa Rita 	10	Octubre	2023-10-16T00:00:00	2024-11-08T13:00:00	4	Temperatura máxima	23.1
123411	7	Sololá	704	Santa Lucía Utatlán 	7	Santa Rita 	10	Octubre	2023-10-16T00:00:00	2024-11-08T13:00:00	3	Temperatura mínima	22.5
123412	7	Sololá	704	Santa Lucía Utatlán 	7	Santa Rita 	10	Octubre	2023-10-16T00:00:00	2024-11-08T13:00:00	5	Humedad	72
123413	7	Sololá	704	Santa Lucía Utatlán 	7	Santa Rita 	10	Octubre	2023-10-16T00:00:00	2024-11-08T13:00:00	6	Velocidad del viento	8
123414	7	Sololá	704	Santa Lucía Utatlán 	7	Santa Rita 	10	Octubre	2023-10-16T00:00:00	2024-11-08T13:00:00	7	Dirección del viento	8.05
123415	7	Sololá	704	Santa Lucía Utatlán 	7	Santa Rita 	10	Octubre	2023-10-16T00:00:00	2024-11-08T13:00:00	1	Precipitación	0
123416	7	Sololá	704	Santa Lucía Utatlán 	7	Santa Rita 	10	Octubre	2023-10-16T00:00:00	2024-11-08T13:00:00	8	Radiación solar	334
123417	7	Sololá	704	Santa Lucía Utatlán 	7	Santa Rita 	10	Octubre	2023-10-16T00:00:00	2024-11-08T14:00:00	2	Temperatura media	21.8
123418	7	Sololá	704	Santa Lucía Utatlán 	7	Santa Rita 	10	Octubre	2023-10-16T00:00:00	2024-11-08T14:00:00	4	Temperatura máxima	22.6
123419	7	Sololá	704	Santa Lucía Utatlán 	7	Santa Rita 	10	Octubre	2023-10-16T00:00:00	2024-11-08T14:00:00	3	Temperatura mínima	21.8
123420	7	Sololá	704	Santa Lucía Utatlán 	7	Santa Rita 	10	Octubre	2023-10-16T00:00:00	2024-11-08T14:00:00	5	Humedad	75
123421	7	Sololá	704	Santa Lucía Utatlán 	7	Santa Rita 	10	Octubre	2023-10-16T00:00:00	2024-11-08T14:00:00	6	Velocidad del viento	3.2
123422	7	Sololá	704	Santa Lucía Utatlán 	7	Santa Rita 	10	Octubre	2023-10-16T00:00:00	2024-11-08T14:00:00	7	Dirección del viento	3.22
123423	7	Sololá	704	Santa Lucía Utatlán 	7	Santa Rita 	10	Octubre	2023-10-16T00:00:00	2024-11-08T14:00:00	1	Precipitación	0
123424	7	Sololá	704	Santa Lucía Utatlán 	7	Santa Rita 	10	Octubre	2023-10-16T00:00:00	2024-11-08T14:00:00	8	Radiación solar	369
123425	7	Sololá	704	Santa Lucía Utatlán 	7	Santa Rita 	10	Octubre	2023-10-16T00:00:00	2024-11-08T15:00:00	2	Temperatura media	19.1
123426	7	Sololá	704	Santa Lucía Utatlán 	7	Santa Rita 	10	Octubre	2023-10-16T00:00:00	2024-11-08T15:00:00	4	Temperatura máxima	20.1
123427	7	Sololá	704	Santa Lucía Utatlán 	7	Santa Rita 	10	Octubre	2023-10-16T00:00:00	2024-11-08T15:00:00	3	Temperatura mínima	19.1
123428	7	Sololá	704	Santa Lucía Utatlán 	7	Santa Rita 	10	Octubre	2023-10-16T00:00:00	2024-11-08T15:00:00	5	Humedad	74
123429	7	Sololá	704	Santa Lucía Utatlán 	7	Santa Rita 	10	Octubre	2023-10-16T00:00:00	2024-11-08T15:00:00	6	Velocidad del viento	16.1
123430	7	Sololá	704	Santa Lucía Utatlán 	7	Santa Rita 	10	Octubre	2023-10-16T00:00:00	2024-11-08T15:00:00	7	Dirección del viento	16.09
123431	7	Sololá	704	Santa Lucía Utatlán 	7	Santa Rita 	10	Octubre	2023-10-16T00:00:00	2024-11-08T15:00:00	1	Precipitación	0
123432	7	Sololá	704	Santa Lucía Utatlán 	7	Santa Rita 	10	Octubre	2023-10-16T00:00:00	2024-11-08T15:00:00	8	Radiación solar	339
123433	7	Sololá	704	Santa Lucía Utatlán 	7	Santa Rita 	10	Octubre	2023-10-16T00:00:00	2024-11-08T16:00:00	2	Temperatura media	19.4
123434	7	Sololá	704	Santa Lucía Utatlán 	7	Santa Rita 	10	Octubre	2023-10-16T00:00:00	2024-11-08T16:00:00	4	Temperatura máxima	19.7
123435	7	Sololá	704	Santa Lucía Utatlán 	7	Santa Rita 	10	Octubre	2023-10-16T00:00:00	2024-11-08T16:00:00	3	Temperatura mínima	19.1
123436	7	Sololá	704	Santa Lucía Utatlán 	7	Santa Rita 	10	Octubre	2023-10-16T00:00:00	2024-11-08T16:00:00	5	Humedad	71
123437	7	Sololá	704	Santa Lucía Utatlán 	7	Santa Rita 	10	Octubre	2023-10-16T00:00:00	2024-11-08T16:00:00	6	Velocidad del viento	14.5
123438	7	Sololá	704	Santa Lucía Utatlán 	7	Santa Rita 	10	Octubre	2023-10-16T00:00:00	2024-11-08T16:00:00	7	Dirección del viento	14.48
123439	7	Sololá	704	Santa Lucía Utatlán 	7	Santa Rita 	10	Octubre	2023-10-16T00:00:00	2024-11-08T16:00:00	1	Precipitación	0
123440	7	Sololá	704	Santa Lucía Utatlán 	7	Santa Rita 	10	Octubre	2023-10-16T00:00:00	2024-11-08T16:00:00	8	Radiación solar	218
123441	7	Sololá	704	Santa Lucía Utatlán 	7	Santa Rita 	10	Octubre	2023-10-16T00:00:00	2024-11-08T17:00:00	2	Temperatura media	18.9
123442	7	Sololá	704	Santa Lucía Utatlán 	7	Santa Rita 	10	Octubre	2023-10-16T00:00:00	2024-11-08T17:00:00	4	Temperatura máxima	19.8
123443	7	Sololá	704	Santa Lucía Utatlán 	7	Santa Rita 	10	Octubre	2023-10-16T00:00:00	2024-11-08T17:00:00	3	Temperatura mínima	18.9
123444	7	Sololá	704	Santa Lucía Utatlán 	7	Santa Rita 	10	Octubre	2023-10-16T00:00:00	2024-11-08T17:00:00	5	Humedad	73
123445	7	Sololá	704	Santa Lucía Utatlán 	7	Santa Rita 	10	Octubre	2023-10-16T00:00:00	2024-11-08T17:00:00	6	Velocidad del viento	12.9
123446	7	Sololá	704	Santa Lucía Utatlán 	7	Santa Rita 	10	Octubre	2023-10-16T00:00:00	2024-11-08T17:00:00	7	Dirección del viento	12.87
123447	7	Sololá	704	Santa Lucía Utatlán 	7	Santa Rita 	10	Octubre	2023-10-16T00:00:00	2024-11-08T17:00:00	1	Precipitación	0
123448	7	Sololá	704	Santa Lucía Utatlán 	7	Santa Rita 	10	Octubre	2023-10-16T00:00:00	2024-11-08T17:00:00	8	Radiación solar	36
123449	7	Sololá	704	Santa Lucía Utatlán 	7	Santa Rita 	10	Octubre	2023-10-16T00:00:00	2024-11-08T18:00:00	2	Temperatura media	19.6
123450	7	Sololá	704	Santa Lucía Utatlán 	7	Santa Rita 	10	Octubre	2023-10-16T00:00:00	2024-11-08T18:00:00	4	Temperatura máxima	19.6
123451	7	Sololá	704	Santa Lucía Utatlán 	7	Santa Rita 	10	Octubre	2023-10-16T00:00:00	2024-11-08T18:00:00	3	Temperatura mínima	18.8
123452	7	Sololá	704	Santa Lucía Utatlán 	7	Santa Rita 	10	Octubre	2023-10-16T00:00:00	2024-11-08T18:00:00	5	Humedad	71
123453	7	Sololá	704	Santa Lucía Utatlán 	7	Santa Rita 	10	Octubre	2023-10-16T00:00:00	2024-11-08T18:00:00	6	Velocidad del viento	14.5
123454	7	Sololá	704	Santa Lucía Utatlán 	7	Santa Rita 	10	Octubre	2023-10-16T00:00:00	2024-11-08T18:00:00	7	Dirección del viento	14.48
123455	7	Sololá	704	Santa Lucía Utatlán 	7	Santa Rita 	10	Octubre	2023-10-16T00:00:00	2024-11-08T18:00:00	1	Precipitación	0
123456	7	Sololá	704	Santa Lucía Utatlán 	7	Santa Rita 	10	Octubre	2023-10-16T00:00:00	2024-11-08T18:00:00	8	Radiación solar	3
123457	7	Sololá	704	Santa Lucía Utatlán 	7	Santa Rita 	10	Octubre	2023-10-16T00:00:00	2024-11-08T19:00:00	2	Temperatura media	21.4
123458	7	Sololá	704	Santa Lucía Utatlán 	7	Santa Rita 	10	Octubre	2023-10-16T00:00:00	2024-11-08T19:00:00	4	Temperatura máxima	21.4
123459	7	Sololá	704	Santa Lucía Utatlán 	7	Santa Rita 	10	Octubre	2023-10-16T00:00:00	2024-11-08T19:00:00	3	Temperatura mínima	19.6
123460	7	Sololá	704	Santa Lucía Utatlán 	7	Santa Rita 	10	Octubre	2023-10-16T00:00:00	2024-11-08T19:00:00	5	Humedad	67
123461	7	Sololá	704	Santa Lucía Utatlán 	7	Santa Rita 	10	Octubre	2023-10-16T00:00:00	2024-11-08T19:00:00	6	Velocidad del viento	16.1
123462	7	Sololá	704	Santa Lucía Utatlán 	7	Santa Rita 	10	Octubre	2023-10-16T00:00:00	2024-11-08T19:00:00	7	Dirección del viento	16.09
123463	7	Sololá	704	Santa Lucía Utatlán 	7	Santa Rita 	10	Octubre	2023-10-16T00:00:00	2024-11-08T19:00:00	1	Precipitación	0
123464	7	Sololá	704	Santa Lucía Utatlán 	7	Santa Rita 	10	Octubre	2023-10-16T00:00:00	2024-11-08T19:00:00	8	Radiación solar	0
123465	7	Sololá	704	Santa Lucía Utatlán 	7	Santa Rita 	10	Octubre	2023-10-16T00:00:00	2024-11-08T20:00:00	2	Temperatura media	21.5
123466	7	Sololá	704	Santa Lucía Utatlán 	7	Santa Rita 	10	Octubre	2023-10-16T00:00:00	2024-11-08T20:00:00	4	Temperatura máxima	21.7
123467	7	Sololá	704	Santa Lucía Utatlán 	7	Santa Rita 	10	Octubre	2023-10-16T00:00:00	2024-11-08T20:00:00	3	Temperatura mínima	20.7
123468	7	Sololá	704	Santa Lucía Utatlán 	7	Santa Rita 	10	Octubre	2023-10-16T00:00:00	2024-11-08T20:00:00	5	Humedad	66
123469	7	Sololá	704	Santa Lucía Utatlán 	7	Santa Rita 	10	Octubre	2023-10-16T00:00:00	2024-11-08T20:00:00	6	Velocidad del viento	12.9
123470	7	Sololá	704	Santa Lucía Utatlán 	7	Santa Rita 	10	Octubre	2023-10-16T00:00:00	2024-11-08T20:00:00	7	Dirección del viento	12.87
123471	7	Sololá	704	Santa Lucía Utatlán 	7	Santa Rita 	10	Octubre	2023-10-16T00:00:00	2024-11-08T20:00:00	1	Precipitación	0
123472	7	Sololá	704	Santa Lucía Utatlán 	7	Santa Rita 	10	Octubre	2023-10-16T00:00:00	2024-11-08T20:00:00	8	Radiación solar	0
123473	7	Sololá	704	Santa Lucía Utatlán 	7	Santa Rita 	10	Octubre	2023-10-16T00:00:00	2024-11-08T21:00:00	2	Temperatura media	21.3
123474	7	Sololá	704	Santa Lucía Utatlán 	7	Santa Rita 	10	Octubre	2023-10-16T00:00:00	2024-11-08T21:00:00	4	Temperatura máxima	21.9
123475	7	Sololá	704	Santa Lucía Utatlán 	7	Santa Rita 	10	Octubre	2023-10-16T00:00:00	2024-11-08T21:00:00	3	Temperatura mínima	21.1
123476	7	Sololá	704	Santa Lucía Utatlán 	7	Santa Rita 	10	Octubre	2023-10-16T00:00:00	2024-11-08T21:00:00	5	Humedad	68
123477	7	Sololá	704	Santa Lucía Utatlán 	7	Santa Rita 	10	Octubre	2023-10-16T00:00:00	2024-11-08T21:00:00	6	Velocidad del viento	11.3
123478	7	Sololá	704	Santa Lucía Utatlán 	7	Santa Rita 	10	Octubre	2023-10-16T00:00:00	2024-11-08T21:00:00	7	Dirección del viento	11.27
123479	7	Sololá	704	Santa Lucía Utatlán 	7	Santa Rita 	10	Octubre	2023-10-16T00:00:00	2024-11-08T21:00:00	1	Precipitación	0
123480	7	Sololá	704	Santa Lucía Utatlán 	7	Santa Rita 	10	Octubre	2023-10-16T00:00:00	2024-11-08T21:00:00	8	Radiación solar	0
123481	7	Sololá	704	Santa Lucía Utatlán 	7	Santa Rita 	10	Octubre	2023-10-16T00:00:00	2024-11-08T22:00:00	2	Temperatura media	21.1
123482	7	Sololá	704	Santa Lucía Utatlán 	7	Santa Rita 	10	Octubre	2023-10-16T00:00:00	2024-11-08T22:00:00	4	Temperatura máxima	21.4
123483	7	Sololá	704	Santa Lucía Utatlán 	7	Santa Rita 	10	Octubre	2023-10-16T00:00:00	2024-11-08T22:00:00	3	Temperatura mínima	21.1
123484	7	Sololá	704	Santa Lucía Utatlán 	7	Santa Rita 	10	Octubre	2023-10-16T00:00:00	2024-11-08T22:00:00	5	Humedad	70
123485	7	Sololá	704	Santa Lucía Utatlán 	7	Santa Rita 	10	Octubre	2023-10-16T00:00:00	2024-11-08T22:00:00	6	Velocidad del viento	11.3
123486	7	Sololá	704	Santa Lucía Utatlán 	7	Santa Rita 	10	Octubre	2023-10-16T00:00:00	2024-11-08T22:00:00	7	Dirección del viento	11.27
123487	7	Sololá	704	Santa Lucía Utatlán 	7	Santa Rita 	10	Octubre	2023-10-16T00:00:00	2024-11-08T22:00:00	1	Precipitación	0
123488	7	Sololá	704	Santa Lucía Utatlán 	7	Santa Rita 	10	Octubre	2023-10-16T00:00:00	2024-11-08T22:00:00	8	Radiación solar	0
123489	7	Sololá	704	Santa Lucía Utatlán 	7	Santa Rita 	10	Octubre	2023-10-16T00:00:00	2024-11-08T23:00:00	2	Temperatura media	21.9
123490	7	Sololá	704	Santa Lucía Utatlán 	7	Santa Rita 	10	Octubre	2023-10-16T00:00:00	2024-11-08T23:00:00	4	Temperatura máxima	22.1
123491	7	Sololá	704	Santa Lucía Utatlán 	7	Santa Rita 	10	Octubre	2023-10-16T00:00:00	2024-11-08T23:00:00	3	Temperatura mínima	21.1
123492	7	Sololá	704	Santa Lucía Utatlán 	7	Santa Rita 	10	Octubre	2023-10-16T00:00:00	2024-11-08T23:00:00	5	Humedad	69
123493	7	Sololá	704	Santa Lucía Utatlán 	7	Santa Rita 	10	Octubre	2023-10-16T00:00:00	2024-11-08T23:00:00	6	Velocidad del viento	8
123494	7	Sololá	704	Santa Lucía Utatlán 	7	Santa Rita 	10	Octubre	2023-10-16T00:00:00	2024-11-08T23:00:00	7	Dirección del viento	8.05
123495	7	Sololá	704	Santa Lucía Utatlán 	7	Santa Rita 	10	Octubre	2023-10-16T00:00:00	2024-11-08T23:00:00	1	Precipitación	0
123496	7	Sololá	704	Santa Lucía Utatlán 	7	Santa Rita 	10	Octubre	2023-10-16T00:00:00	2024-11-08T23:00:00	8	Radiación solar	0
123497	7	Sololá	704	Santa Lucía Utatlán 	7	Santa Rita 	10	Octubre	2023-10-17T00:00:00	2024-11-08T00:00:00	2	Temperatura media	23.2
123498	7	Sololá	704	Santa Lucía Utatlán 	7	Santa Rita 	10	Octubre	2023-10-17T00:00:00	2024-11-08T00:00:00	4	Temperatura máxima	23.3
123499	7	Sololá	704	Santa Lucía Utatlán 	7	Santa Rita 	10	Octubre	2023-10-17T00:00:00	2024-11-08T00:00:00	3	Temperatura mínima	21.9
123500	7	Sololá	704	Santa Lucía Utatlán 	7	Santa Rita 	10	Octubre	2023-10-17T00:00:00	2024-11-08T00:00:00	5	Humedad	65
123501	7	Sololá	704	Santa Lucía Utatlán 	7	Santa Rita 	10	Octubre	2023-10-17T00:00:00	2024-11-08T00:00:00	6	Velocidad del viento	4.8
123502	7	Sololá	704	Santa Lucía Utatlán 	7	Santa Rita 	10	Octubre	2023-10-17T00:00:00	2024-11-08T00:00:00	7	Dirección del viento	4.83
123503	7	Sololá	704	Santa Lucía Utatlán 	7	Santa Rita 	10	Octubre	2023-10-17T00:00:00	2024-11-08T00:00:00	1	Precipitación	0
123504	7	Sololá	704	Santa Lucía Utatlán 	7	Santa Rita 	10	Octubre	2023-10-17T00:00:00	2024-11-08T00:00:00	8	Radiación solar	0
123505	7	Sololá	704	Santa Lucía Utatlán 	7	Santa Rita 	10	Octubre	2023-10-17T00:00:00	2024-11-08T01:00:00	2	Temperatura media	22.1
123506	7	Sololá	704	Santa Lucía Utatlán 	7	Santa Rita 	10	Octubre	2023-10-17T00:00:00	2024-11-08T01:00:00	4	Temperatura máxima	23.2
123507	7	Sololá	704	Santa Lucía Utatlán 	7	Santa Rita 	10	Octubre	2023-10-17T00:00:00	2024-11-08T01:00:00	3	Temperatura mínima	21.4
123508	7	Sololá	704	Santa Lucía Utatlán 	7	Santa Rita 	10	Octubre	2023-10-17T00:00:00	2024-11-08T01:00:00	5	Humedad	68
123509	7	Sololá	704	Santa Lucía Utatlán 	7	Santa Rita 	10	Octubre	2023-10-17T00:00:00	2024-11-08T01:00:00	6	Velocidad del viento	8
123510	7	Sololá	704	Santa Lucía Utatlán 	7	Santa Rita 	10	Octubre	2023-10-17T00:00:00	2024-11-08T01:00:00	7	Dirección del viento	8.05
123511	7	Sololá	704	Santa Lucía Utatlán 	7	Santa Rita 	10	Octubre	2023-10-17T00:00:00	2024-11-08T01:00:00	1	Precipitación	0
123512	7	Sololá	704	Santa Lucía Utatlán 	7	Santa Rita 	10	Octubre	2023-10-17T00:00:00	2024-11-08T01:00:00	8	Radiación solar	0
123513	7	Sololá	704	Santa Lucía Utatlán 	7	Santa Rita 	10	Octubre	2023-10-17T00:00:00	2024-11-08T02:00:00	2	Temperatura media	22
123514	7	Sololá	704	Santa Lucía Utatlán 	7	Santa Rita 	10	Octubre	2023-10-17T00:00:00	2024-11-08T02:00:00	4	Temperatura máxima	22.8
123515	7	Sololá	704	Santa Lucía Utatlán 	7	Santa Rita 	10	Octubre	2023-10-17T00:00:00	2024-11-08T02:00:00	3	Temperatura mínima	21.9
123516	7	Sololá	704	Santa Lucía Utatlán 	7	Santa Rita 	10	Octubre	2023-10-17T00:00:00	2024-11-08T02:00:00	5	Humedad	69
123517	7	Sololá	704	Santa Lucía Utatlán 	7	Santa Rita 	10	Octubre	2023-10-17T00:00:00	2024-11-08T02:00:00	6	Velocidad del viento	6.4
123518	7	Sololá	704	Santa Lucía Utatlán 	7	Santa Rita 	10	Octubre	2023-10-17T00:00:00	2024-11-08T02:00:00	7	Dirección del viento	6.44
123519	7	Sololá	704	Santa Lucía Utatlán 	7	Santa Rita 	10	Octubre	2023-10-17T00:00:00	2024-11-08T02:00:00	1	Precipitación	0
123520	7	Sololá	704	Santa Lucía Utatlán 	7	Santa Rita 	10	Octubre	2023-10-17T00:00:00	2024-11-08T02:00:00	8	Radiación solar	0
123521	7	Sololá	704	Santa Lucía Utatlán 	7	Santa Rita 	10	Octubre	2023-10-17T00:00:00	2024-11-08T03:00:00	2	Temperatura media	23.3
123522	7	Sololá	704	Santa Lucía Utatlán 	7	Santa Rita 	10	Octubre	2023-10-17T00:00:00	2024-11-08T03:00:00	4	Temperatura máxima	23.3
123523	7	Sololá	704	Santa Lucía Utatlán 	7	Santa Rita 	10	Octubre	2023-10-17T00:00:00	2024-11-08T03:00:00	3	Temperatura mínima	21.2
123524	7	Sololá	704	Santa Lucía Utatlán 	7	Santa Rita 	10	Octubre	2023-10-17T00:00:00	2024-11-08T03:00:00	5	Humedad	67
123525	7	Sololá	704	Santa Lucía Utatlán 	7	Santa Rita 	10	Octubre	2023-10-17T00:00:00	2024-11-08T03:00:00	6	Velocidad del viento	8
123526	7	Sololá	704	Santa Lucía Utatlán 	7	Santa Rita 	10	Octubre	2023-10-17T00:00:00	2024-11-08T03:00:00	7	Dirección del viento	8.05
123527	7	Sololá	704	Santa Lucía Utatlán 	7	Santa Rita 	10	Octubre	2023-10-17T00:00:00	2024-11-08T03:00:00	1	Precipitación	0
123528	7	Sololá	704	Santa Lucía Utatlán 	7	Santa Rita 	10	Octubre	2023-10-17T00:00:00	2024-11-08T03:00:00	8	Radiación solar	0
123529	7	Sololá	704	Santa Lucía Utatlán 	7	Santa Rita 	10	Octubre	2023-10-17T00:00:00	2024-11-08T04:00:00	2	Temperatura media	20.8
123530	7	Sololá	704	Santa Lucía Utatlán 	7	Santa Rita 	10	Octubre	2023-10-17T00:00:00	2024-11-08T04:00:00	4	Temperatura máxima	23.8
123531	7	Sololá	704	Santa Lucía Utatlán 	7	Santa Rita 	10	Octubre	2023-10-17T00:00:00	2024-11-08T04:00:00	3	Temperatura mínima	20.7
123532	7	Sololá	704	Santa Lucía Utatlán 	7	Santa Rita 	10	Octubre	2023-10-17T00:00:00	2024-11-08T04:00:00	5	Humedad	74
123533	7	Sololá	704	Santa Lucía Utatlán 	7	Santa Rita 	10	Octubre	2023-10-17T00:00:00	2024-11-08T04:00:00	6	Velocidad del viento	11.3
123534	7	Sololá	704	Santa Lucía Utatlán 	7	Santa Rita 	10	Octubre	2023-10-17T00:00:00	2024-11-08T04:00:00	7	Dirección del viento	11.27
123535	7	Sololá	704	Santa Lucía Utatlán 	7	Santa Rita 	10	Octubre	2023-10-17T00:00:00	2024-11-08T04:00:00	1	Precipitación	0
123536	7	Sololá	704	Santa Lucía Utatlán 	7	Santa Rita 	10	Octubre	2023-10-17T00:00:00	2024-11-08T04:00:00	8	Radiación solar	0
123537	7	Sololá	704	Santa Lucía Utatlán 	7	Santa Rita 	10	Octubre	2023-10-17T00:00:00	2024-11-08T05:00:00	2	Temperatura media	20.2
123538	7	Sololá	704	Santa Lucía Utatlán 	7	Santa Rita 	10	Octubre	2023-10-17T00:00:00	2024-11-08T05:00:00	4	Temperatura máxima	20.8
123539	7	Sololá	704	Santa Lucía Utatlán 	7	Santa Rita 	10	Octubre	2023-10-17T00:00:00	2024-11-08T05:00:00	3	Temperatura mínima	19.7
123540	7	Sololá	704	Santa Lucía Utatlán 	7	Santa Rita 	10	Octubre	2023-10-17T00:00:00	2024-11-08T05:00:00	5	Humedad	74
123541	7	Sololá	704	Santa Lucía Utatlán 	7	Santa Rita 	10	Octubre	2023-10-17T00:00:00	2024-11-08T05:00:00	6	Velocidad del viento	12.9
123542	7	Sololá	704	Santa Lucía Utatlán 	7	Santa Rita 	10	Octubre	2023-10-17T00:00:00	2024-11-08T05:00:00	7	Dirección del viento	12.87
123543	7	Sololá	704	Santa Lucía Utatlán 	7	Santa Rita 	10	Octubre	2023-10-17T00:00:00	2024-11-08T05:00:00	1	Precipitación	0
123544	7	Sololá	704	Santa Lucía Utatlán 	7	Santa Rita 	10	Octubre	2023-10-17T00:00:00	2024-11-08T05:00:00	8	Radiación solar	0
123545	7	Sololá	704	Santa Lucía Utatlán 	7	Santa Rita 	10	Octubre	2023-10-17T00:00:00	2024-11-08T06:00:00	2	Temperatura media	23.7
123546	7	Sololá	704	Santa Lucía Utatlán 	7	Santa Rita 	10	Octubre	2023-10-17T00:00:00	2024-11-08T06:00:00	4	Temperatura máxima	23.8
123547	7	Sololá	704	Santa Lucía Utatlán 	7	Santa Rita 	10	Octubre	2023-10-17T00:00:00	2024-11-08T06:00:00	3	Temperatura mínima	21
123548	7	Sololá	704	Santa Lucía Utatlán 	7	Santa Rita 	10	Octubre	2023-10-17T00:00:00	2024-11-08T06:00:00	5	Humedad	58
123549	7	Sololá	704	Santa Lucía Utatlán 	7	Santa Rita 	10	Octubre	2023-10-17T00:00:00	2024-11-08T06:00:00	6	Velocidad del viento	4.8
123550	7	Sololá	704	Santa Lucía Utatlán 	7	Santa Rita 	10	Octubre	2023-10-17T00:00:00	2024-11-08T06:00:00	7	Dirección del viento	4.83
123551	7	Sololá	704	Santa Lucía Utatlán 	7	Santa Rita 	10	Octubre	2023-10-17T00:00:00	2024-11-08T06:00:00	1	Precipitación	0
123552	7	Sololá	704	Santa Lucía Utatlán 	7	Santa Rita 	10	Octubre	2023-10-17T00:00:00	2024-11-08T06:00:00	8	Radiación solar	13
123553	7	Sololá	704	Santa Lucía Utatlán 	7	Santa Rita 	10	Octubre	2023-10-17T00:00:00	2024-11-08T07:00:00	2	Temperatura media	23.9
123554	7	Sololá	704	Santa Lucía Utatlán 	7	Santa Rita 	10	Octubre	2023-10-17T00:00:00	2024-11-08T07:00:00	4	Temperatura máxima	24.8
123555	7	Sololá	704	Santa Lucía Utatlán 	7	Santa Rita 	10	Octubre	2023-10-17T00:00:00	2024-11-08T07:00:00	3	Temperatura mínima	23.6
123556	7	Sololá	704	Santa Lucía Utatlán 	7	Santa Rita 	10	Octubre	2023-10-17T00:00:00	2024-11-08T07:00:00	5	Humedad	60
123557	7	Sololá	704	Santa Lucía Utatlán 	7	Santa Rita 	10	Octubre	2023-10-17T00:00:00	2024-11-08T07:00:00	6	Velocidad del viento	9.7
123558	7	Sololá	704	Santa Lucía Utatlán 	7	Santa Rita 	10	Octubre	2023-10-17T00:00:00	2024-11-08T07:00:00	7	Dirección del viento	9.66
123559	7	Sololá	704	Santa Lucía Utatlán 	7	Santa Rita 	10	Octubre	2023-10-17T00:00:00	2024-11-08T07:00:00	1	Precipitación	0
123560	7	Sololá	704	Santa Lucía Utatlán 	7	Santa Rita 	10	Octubre	2023-10-17T00:00:00	2024-11-08T07:00:00	8	Radiación solar	218
123561	7	Sololá	704	Santa Lucía Utatlán 	7	Santa Rita 	10	Octubre	2023-10-17T00:00:00	2024-11-08T08:00:00	2	Temperatura media	20.4
123562	7	Sololá	704	Santa Lucía Utatlán 	7	Santa Rita 	10	Octubre	2023-10-17T00:00:00	2024-11-08T08:00:00	4	Temperatura máxima	20.8
123563	7	Sololá	704	Santa Lucía Utatlán 	7	Santa Rita 	10	Octubre	2023-10-17T00:00:00	2024-11-08T08:00:00	3	Temperatura mínima	20.2
123564	7	Sololá	704	Santa Lucía Utatlán 	7	Santa Rita 	10	Octubre	2023-10-17T00:00:00	2024-11-08T08:00:00	5	Humedad	66
123565	7	Sololá	704	Santa Lucía Utatlán 	7	Santa Rita 	10	Octubre	2023-10-17T00:00:00	2024-11-08T08:00:00	6	Velocidad del viento	9.7
123566	7	Sololá	704	Santa Lucía Utatlán 	7	Santa Rita 	10	Octubre	2023-10-17T00:00:00	2024-11-08T08:00:00	7	Dirección del viento	9.66
123567	7	Sololá	704	Santa Lucía Utatlán 	7	Santa Rita 	10	Octubre	2023-10-17T00:00:00	2024-11-08T08:00:00	1	Precipitación	0
123568	7	Sololá	704	Santa Lucía Utatlán 	7	Santa Rita 	10	Octubre	2023-10-17T00:00:00	2024-11-08T08:00:00	8	Radiación solar	501
123569	7	Sololá	704	Santa Lucía Utatlán 	7	Santa Rita 	10	Octubre	2023-10-17T00:00:00	2024-11-08T09:00:00	2	Temperatura media	17.8
123570	7	Sololá	704	Santa Lucía Utatlán 	7	Santa Rita 	10	Octubre	2023-10-17T00:00:00	2024-11-08T09:00:00	4	Temperatura máxima	20.6
123571	7	Sololá	704	Santa Lucía Utatlán 	7	Santa Rita 	10	Octubre	2023-10-17T00:00:00	2024-11-08T09:00:00	3	Temperatura mínima	17.7
123572	7	Sololá	704	Santa Lucía Utatlán 	7	Santa Rita 	10	Octubre	2023-10-17T00:00:00	2024-11-08T09:00:00	5	Humedad	82
123573	7	Sololá	704	Santa Lucía Utatlán 	7	Santa Rita 	10	Octubre	2023-10-17T00:00:00	2024-11-08T09:00:00	6	Velocidad del viento	4.8
123574	7	Sololá	704	Santa Lucía Utatlán 	7	Santa Rita 	10	Octubre	2023-10-17T00:00:00	2024-11-08T09:00:00	7	Dirección del viento	4.83
123575	7	Sololá	704	Santa Lucía Utatlán 	7	Santa Rita 	10	Octubre	2023-10-17T00:00:00	2024-11-08T09:00:00	1	Precipitación	0
123576	7	Sololá	704	Santa Lucía Utatlán 	7	Santa Rita 	10	Octubre	2023-10-17T00:00:00	2024-11-08T09:00:00	8	Radiación solar	616
123577	7	Sololá	704	Santa Lucía Utatlán 	7	Santa Rita 	10	Octubre	2023-10-17T00:00:00	2024-11-08T10:00:00	2	Temperatura media	17.4
123578	7	Sololá	704	Santa Lucía Utatlán 	7	Santa Rita 	10	Octubre	2023-10-17T00:00:00	2024-11-08T10:00:00	4	Temperatura máxima	17.8
123579	7	Sololá	704	Santa Lucía Utatlán 	7	Santa Rita 	10	Octubre	2023-10-17T00:00:00	2024-11-08T10:00:00	3	Temperatura mínima	17.4
123580	7	Sololá	704	Santa Lucía Utatlán 	7	Santa Rita 	10	Octubre	2023-10-17T00:00:00	2024-11-08T10:00:00	5	Humedad	84
123581	7	Sololá	704	Santa Lucía Utatlán 	7	Santa Rita 	10	Octubre	2023-10-17T00:00:00	2024-11-08T10:00:00	6	Velocidad del viento	1.6
123582	7	Sololá	704	Santa Lucía Utatlán 	7	Santa Rita 	10	Octubre	2023-10-17T00:00:00	2024-11-08T10:00:00	7	Dirección del viento	1.61
123583	7	Sololá	704	Santa Lucía Utatlán 	7	Santa Rita 	10	Octubre	2023-10-17T00:00:00	2024-11-08T10:00:00	1	Precipitación	0
123584	7	Sololá	704	Santa Lucía Utatlán 	7	Santa Rita 	10	Octubre	2023-10-17T00:00:00	2024-11-08T10:00:00	8	Radiación solar	458
123585	7	Sololá	704	Santa Lucía Utatlán 	7	Santa Rita 	10	Octubre	2023-10-17T00:00:00	2024-11-08T11:00:00	2	Temperatura media	17.3
123586	7	Sololá	704	Santa Lucía Utatlán 	7	Santa Rita 	10	Octubre	2023-10-17T00:00:00	2024-11-08T11:00:00	4	Temperatura máxima	17.5
123587	7	Sololá	704	Santa Lucía Utatlán 	7	Santa Rita 	10	Octubre	2023-10-17T00:00:00	2024-11-08T11:00:00	3	Temperatura mínima	17.2
123588	7	Sololá	704	Santa Lucía Utatlán 	7	Santa Rita 	10	Octubre	2023-10-17T00:00:00	2024-11-08T11:00:00	5	Humedad	85
123589	7	Sololá	704	Santa Lucía Utatlán 	7	Santa Rita 	10	Octubre	2023-10-17T00:00:00	2024-11-08T11:00:00	6	Velocidad del viento	1.6
123590	7	Sololá	704	Santa Lucía Utatlán 	7	Santa Rita 	10	Octubre	2023-10-17T00:00:00	2024-11-08T11:00:00	7	Dirección del viento	1.61
123591	7	Sololá	704	Santa Lucía Utatlán 	7	Santa Rita 	10	Octubre	2023-10-17T00:00:00	2024-11-08T11:00:00	1	Precipitación	0
123592	7	Sololá	704	Santa Lucía Utatlán 	7	Santa Rita 	10	Octubre	2023-10-17T00:00:00	2024-11-08T11:00:00	8	Radiación solar	511
123593	7	Sololá	704	Santa Lucía Utatlán 	7	Santa Rita 	10	Octubre	2023-10-17T00:00:00	2024-11-08T12:00:00	2	Temperatura media	17.5
123594	7	Sololá	704	Santa Lucía Utatlán 	7	Santa Rita 	10	Octubre	2023-10-17T00:00:00	2024-11-08T12:00:00	4	Temperatura máxima	17.6
123595	7	Sololá	704	Santa Lucía Utatlán 	7	Santa Rita 	10	Octubre	2023-10-17T00:00:00	2024-11-08T12:00:00	3	Temperatura mínima	17.2
123596	7	Sololá	704	Santa Lucía Utatlán 	7	Santa Rita 	10	Octubre	2023-10-17T00:00:00	2024-11-08T12:00:00	5	Humedad	85
123597	7	Sololá	704	Santa Lucía Utatlán 	7	Santa Rita 	10	Octubre	2023-10-17T00:00:00	2024-11-08T12:00:00	6	Velocidad del viento	1.6
123598	7	Sololá	704	Santa Lucía Utatlán 	7	Santa Rita 	10	Octubre	2023-10-17T00:00:00	2024-11-08T12:00:00	7	Dirección del viento	1.61
123599	7	Sololá	704	Santa Lucía Utatlán 	7	Santa Rita 	10	Octubre	2023-10-17T00:00:00	2024-11-08T12:00:00	1	Precipitación	0
123600	7	Sololá	704	Santa Lucía Utatlán 	7	Santa Rita 	10	Octubre	2023-10-17T00:00:00	2024-11-08T12:00:00	8	Radiación solar	520
123601	7	Sololá	704	Santa Lucía Utatlán 	7	Santa Rita 	10	Octubre	2023-10-17T00:00:00	2024-11-08T13:00:00	2	Temperatura media	17.3
123602	7	Sololá	704	Santa Lucía Utatlán 	7	Santa Rita 	10	Octubre	2023-10-17T00:00:00	2024-11-08T13:00:00	4	Temperatura máxima	17.8
123603	7	Sololá	704	Santa Lucía Utatlán 	7	Santa Rita 	10	Octubre	2023-10-17T00:00:00	2024-11-08T13:00:00	3	Temperatura mínima	17.1
123604	7	Sololá	704	Santa Lucía Utatlán 	7	Santa Rita 	10	Octubre	2023-10-17T00:00:00	2024-11-08T13:00:00	5	Humedad	88
123605	7	Sololá	704	Santa Lucía Utatlán 	7	Santa Rita 	10	Octubre	2023-10-17T00:00:00	2024-11-08T13:00:00	6	Velocidad del viento	1.6
123606	7	Sololá	704	Santa Lucía Utatlán 	7	Santa Rita 	10	Octubre	2023-10-17T00:00:00	2024-11-08T13:00:00	7	Dirección del viento	1.61
123607	7	Sololá	704	Santa Lucía Utatlán 	7	Santa Rita 	10	Octubre	2023-10-17T00:00:00	2024-11-08T13:00:00	1	Precipitación	0
123608	7	Sololá	704	Santa Lucía Utatlán 	7	Santa Rita 	10	Octubre	2023-10-17T00:00:00	2024-11-08T13:00:00	8	Radiación solar	271
123609	7	Sololá	704	Santa Lucía Utatlán 	7	Santa Rita 	10	Octubre	2023-10-17T00:00:00	2024-11-08T14:00:00	2	Temperatura media	16.5
123610	7	Sololá	704	Santa Lucía Utatlán 	7	Santa Rita 	10	Octubre	2023-10-17T00:00:00	2024-11-08T14:00:00	4	Temperatura máxima	17.6
123611	7	Sololá	704	Santa Lucía Utatlán 	7	Santa Rita 	10	Octubre	2023-10-17T00:00:00	2024-11-08T14:00:00	3	Temperatura mínima	16.4
123612	7	Sololá	704	Santa Lucía Utatlán 	7	Santa Rita 	10	Octubre	2023-10-17T00:00:00	2024-11-08T14:00:00	5	Humedad	89
123613	7	Sololá	704	Santa Lucía Utatlán 	7	Santa Rita 	10	Octubre	2023-10-17T00:00:00	2024-11-08T14:00:00	6	Velocidad del viento	1.6
123614	7	Sololá	704	Santa Lucía Utatlán 	7	Santa Rita 	10	Octubre	2023-10-17T00:00:00	2024-11-08T14:00:00	7	Dirección del viento	1.61
123615	7	Sololá	704	Santa Lucía Utatlán 	7	Santa Rita 	10	Octubre	2023-10-17T00:00:00	2024-11-08T14:00:00	1	Precipitación	0
123616	7	Sololá	704	Santa Lucía Utatlán 	7	Santa Rita 	10	Octubre	2023-10-17T00:00:00	2024-11-08T14:00:00	8	Radiación solar	320
123617	7	Sololá	704	Santa Lucía Utatlán 	7	Santa Rita 	10	Octubre	2023-10-17T00:00:00	2024-11-08T15:00:00	2	Temperatura media	16.8
123618	7	Sololá	704	Santa Lucía Utatlán 	7	Santa Rita 	10	Octubre	2023-10-17T00:00:00	2024-11-08T15:00:00	4	Temperatura máxima	16.9
123619	7	Sololá	704	Santa Lucía Utatlán 	7	Santa Rita 	10	Octubre	2023-10-17T00:00:00	2024-11-08T15:00:00	3	Temperatura mínima	16.4
123620	7	Sololá	704	Santa Lucía Utatlán 	7	Santa Rita 	10	Octubre	2023-10-17T00:00:00	2024-11-08T15:00:00	5	Humedad	86
123621	7	Sololá	704	Santa Lucía Utatlán 	7	Santa Rita 	10	Octubre	2023-10-17T00:00:00	2024-11-08T15:00:00	6	Velocidad del viento	4.8
123622	7	Sololá	704	Santa Lucía Utatlán 	7	Santa Rita 	10	Octubre	2023-10-17T00:00:00	2024-11-08T15:00:00	7	Dirección del viento	4.83
123623	7	Sololá	704	Santa Lucía Utatlán 	7	Santa Rita 	10	Octubre	2023-10-17T00:00:00	2024-11-08T15:00:00	1	Precipitación	0
123624	7	Sololá	704	Santa Lucía Utatlán 	7	Santa Rita 	10	Octubre	2023-10-17T00:00:00	2024-11-08T15:00:00	8	Radiación solar	180
123625	7	Sololá	704	Santa Lucía Utatlán 	7	Santa Rita 	10	Octubre	2023-10-17T00:00:00	2024-11-08T16:00:00	2	Temperatura media	17.3
123626	7	Sololá	704	Santa Lucía Utatlán 	7	Santa Rita 	10	Octubre	2023-10-17T00:00:00	2024-11-08T16:00:00	4	Temperatura máxima	17.3
123627	7	Sololá	704	Santa Lucía Utatlán 	7	Santa Rita 	10	Octubre	2023-10-17T00:00:00	2024-11-08T16:00:00	3	Temperatura mínima	16.8
123628	7	Sololá	704	Santa Lucía Utatlán 	7	Santa Rita 	10	Octubre	2023-10-17T00:00:00	2024-11-08T16:00:00	5	Humedad	85
123629	7	Sololá	704	Santa Lucía Utatlán 	7	Santa Rita 	10	Octubre	2023-10-17T00:00:00	2024-11-08T16:00:00	6	Velocidad del viento	4.8
123630	7	Sololá	704	Santa Lucía Utatlán 	7	Santa Rita 	10	Octubre	2023-10-17T00:00:00	2024-11-08T16:00:00	7	Dirección del viento	4.83
123631	7	Sololá	704	Santa Lucía Utatlán 	7	Santa Rita 	10	Octubre	2023-10-17T00:00:00	2024-11-08T16:00:00	1	Precipitación	0
123632	7	Sololá	704	Santa Lucía Utatlán 	7	Santa Rita 	10	Octubre	2023-10-17T00:00:00	2024-11-08T16:00:00	8	Radiación solar	265
123633	7	Sololá	704	Santa Lucía Utatlán 	7	Santa Rita 	10	Octubre	2023-10-17T00:00:00	2024-11-08T17:00:00	2	Temperatura media	17.4
123634	7	Sololá	704	Santa Lucía Utatlán 	7	Santa Rita 	10	Octubre	2023-10-17T00:00:00	2024-11-08T17:00:00	4	Temperatura máxima	17.6
123635	7	Sololá	704	Santa Lucía Utatlán 	7	Santa Rita 	10	Octubre	2023-10-17T00:00:00	2024-11-08T17:00:00	3	Temperatura mínima	17.3
123636	7	Sololá	704	Santa Lucía Utatlán 	7	Santa Rita 	10	Octubre	2023-10-17T00:00:00	2024-11-08T17:00:00	5	Humedad	86
123637	7	Sololá	704	Santa Lucía Utatlán 	7	Santa Rita 	10	Octubre	2023-10-17T00:00:00	2024-11-08T17:00:00	6	Velocidad del viento	3.2
123638	7	Sololá	704	Santa Lucía Utatlán 	7	Santa Rita 	10	Octubre	2023-10-17T00:00:00	2024-11-08T17:00:00	7	Dirección del viento	3.22
123639	7	Sololá	704	Santa Lucía Utatlán 	7	Santa Rita 	10	Octubre	2023-10-17T00:00:00	2024-11-08T17:00:00	1	Precipitación	0
123640	7	Sololá	704	Santa Lucía Utatlán 	7	Santa Rita 	10	Octubre	2023-10-17T00:00:00	2024-11-08T17:00:00	8	Radiación solar	0
123641	7	Sololá	704	Santa Lucía Utatlán 	7	Santa Rita 	10	Octubre	2023-10-17T00:00:00	2024-11-08T18:00:00	2	Temperatura media	21.5
123642	7	Sololá	704	Santa Lucía Utatlán 	7	Santa Rita 	10	Octubre	2023-10-17T00:00:00	2024-11-08T18:00:00	4	Temperatura máxima	21.5
123643	7	Sololá	704	Santa Lucía Utatlán 	7	Santa Rita 	10	Octubre	2023-10-17T00:00:00	2024-11-08T18:00:00	3	Temperatura mínima	17.3
123644	7	Sololá	704	Santa Lucía Utatlán 	7	Santa Rita 	10	Octubre	2023-10-17T00:00:00	2024-11-08T18:00:00	5	Humedad	74
123645	7	Sololá	704	Santa Lucía Utatlán 	7	Santa Rita 	10	Octubre	2023-10-17T00:00:00	2024-11-08T18:00:00	6	Velocidad del viento	1.6
123646	7	Sololá	704	Santa Lucía Utatlán 	7	Santa Rita 	10	Octubre	2023-10-17T00:00:00	2024-11-08T18:00:00	7	Dirección del viento	1.61
123647	7	Sololá	704	Santa Lucía Utatlán 	7	Santa Rita 	10	Octubre	2023-10-17T00:00:00	2024-11-08T18:00:00	1	Precipitación	0
123648	7	Sololá	704	Santa Lucía Utatlán 	7	Santa Rita 	10	Octubre	2023-10-17T00:00:00	2024-11-08T18:00:00	8	Radiación solar	0
123649	7	Sololá	704	Santa Lucía Utatlán 	7	Santa Rita 	10	Octubre	2023-10-17T00:00:00	2024-11-08T19:00:00	2	Temperatura media	23.9
123650	7	Sololá	704	Santa Lucía Utatlán 	7	Santa Rita 	10	Octubre	2023-10-17T00:00:00	2024-11-08T19:00:00	4	Temperatura máxima	24.1
123651	7	Sololá	704	Santa Lucía Utatlán 	7	Santa Rita 	10	Octubre	2023-10-17T00:00:00	2024-11-08T19:00:00	3	Temperatura mínima	21.5
123652	7	Sololá	704	Santa Lucía Utatlán 	7	Santa Rita 	10	Octubre	2023-10-17T00:00:00	2024-11-08T19:00:00	5	Humedad	66
123653	7	Sololá	704	Santa Lucía Utatlán 	7	Santa Rita 	10	Octubre	2023-10-17T00:00:00	2024-11-08T19:00:00	6	Velocidad del viento	3.2
123654	7	Sololá	704	Santa Lucía Utatlán 	7	Santa Rita 	10	Octubre	2023-10-17T00:00:00	2024-11-08T19:00:00	7	Dirección del viento	3.22
123655	7	Sololá	704	Santa Lucía Utatlán 	7	Santa Rita 	10	Octubre	2023-10-17T00:00:00	2024-11-08T19:00:00	1	Precipitación	0
123656	7	Sololá	704	Santa Lucía Utatlán 	7	Santa Rita 	10	Octubre	2023-10-17T00:00:00	2024-11-08T19:00:00	8	Radiación solar	0
123657	7	Sololá	704	Santa Lucía Utatlán 	7	Santa Rita 	10	Octubre	2023-10-17T00:00:00	2024-11-08T20:00:00	2	Temperatura media	23.1
123658	7	Sololá	704	Santa Lucía Utatlán 	7	Santa Rita 	10	Octubre	2023-10-17T00:00:00	2024-11-08T20:00:00	4	Temperatura máxima	23.9
123659	7	Sololá	704	Santa Lucía Utatlán 	7	Santa Rita 	10	Octubre	2023-10-17T00:00:00	2024-11-08T20:00:00	3	Temperatura mínima	23
123660	7	Sololá	704	Santa Lucía Utatlán 	7	Santa Rita 	10	Octubre	2023-10-17T00:00:00	2024-11-08T20:00:00	5	Humedad	67
123661	7	Sololá	704	Santa Lucía Utatlán 	7	Santa Rita 	10	Octubre	2023-10-17T00:00:00	2024-11-08T20:00:00	6	Velocidad del viento	6.4
123662	7	Sololá	704	Santa Lucía Utatlán 	7	Santa Rita 	10	Octubre	2023-10-17T00:00:00	2024-11-08T20:00:00	7	Dirección del viento	6.44
123663	7	Sololá	704	Santa Lucía Utatlán 	7	Santa Rita 	10	Octubre	2023-10-17T00:00:00	2024-11-08T20:00:00	1	Precipitación	0
123664	7	Sololá	704	Santa Lucía Utatlán 	7	Santa Rita 	10	Octubre	2023-10-17T00:00:00	2024-11-08T20:00:00	8	Radiación solar	0
123665	7	Sololá	704	Santa Lucía Utatlán 	7	Santa Rita 	10	Octubre	2023-10-17T00:00:00	2024-11-08T21:00:00	2	Temperatura media	23.2
123666	7	Sololá	704	Santa Lucía Utatlán 	7	Santa Rita 	10	Octubre	2023-10-17T00:00:00	2024-11-08T21:00:00	4	Temperatura máxima	23.3
123667	7	Sololá	704	Santa Lucía Utatlán 	7	Santa Rita 	10	Octubre	2023-10-17T00:00:00	2024-11-08T21:00:00	3	Temperatura mínima	22.5
123668	7	Sololá	704	Santa Lucía Utatlán 	7	Santa Rita 	10	Octubre	2023-10-17T00:00:00	2024-11-08T21:00:00	5	Humedad	68
123669	7	Sololá	704	Santa Lucía Utatlán 	7	Santa Rita 	10	Octubre	2023-10-17T00:00:00	2024-11-08T21:00:00	6	Velocidad del viento	6.4
123670	7	Sololá	704	Santa Lucía Utatlán 	7	Santa Rita 	10	Octubre	2023-10-17T00:00:00	2024-11-08T21:00:00	7	Dirección del viento	6.44
123671	7	Sololá	704	Santa Lucía Utatlán 	7	Santa Rita 	10	Octubre	2023-10-17T00:00:00	2024-11-08T21:00:00	1	Precipitación	0
123672	7	Sololá	704	Santa Lucía Utatlán 	7	Santa Rita 	10	Octubre	2023-10-17T00:00:00	2024-11-08T21:00:00	8	Radiación solar	0
123673	7	Sololá	704	Santa Lucía Utatlán 	7	Santa Rita 	10	Octubre	2023-10-17T00:00:00	2024-11-08T22:00:00	2	Temperatura media	23.1
123674	7	Sololá	704	Santa Lucía Utatlán 	7	Santa Rita 	10	Octubre	2023-10-17T00:00:00	2024-11-08T22:00:00	4	Temperatura máxima	23.2
123675	7	Sololá	704	Santa Lucía Utatlán 	7	Santa Rita 	10	Octubre	2023-10-17T00:00:00	2024-11-08T22:00:00	3	Temperatura mínima	22.8
123676	7	Sololá	704	Santa Lucía Utatlán 	7	Santa Rita 	10	Octubre	2023-10-17T00:00:00	2024-11-08T22:00:00	5	Humedad	69
123677	7	Sololá	704	Santa Lucía Utatlán 	7	Santa Rita 	10	Octubre	2023-10-17T00:00:00	2024-11-08T22:00:00	6	Velocidad del viento	9.7
123678	7	Sololá	704	Santa Lucía Utatlán 	7	Santa Rita 	10	Octubre	2023-10-17T00:00:00	2024-11-08T22:00:00	7	Dirección del viento	9.66
123679	7	Sololá	704	Santa Lucía Utatlán 	7	Santa Rita 	10	Octubre	2023-10-17T00:00:00	2024-11-08T22:00:00	1	Precipitación	0
123680	7	Sololá	704	Santa Lucía Utatlán 	7	Santa Rita 	10	Octubre	2023-10-17T00:00:00	2024-11-08T22:00:00	8	Radiación solar	0
123681	7	Sololá	704	Santa Lucía Utatlán 	7	Santa Rita 	10	Octubre	2023-10-17T00:00:00	2024-11-08T23:00:00	2	Temperatura media	23.1
123682	7	Sololá	704	Santa Lucía Utatlán 	7	Santa Rita 	10	Octubre	2023-10-17T00:00:00	2024-11-08T23:00:00	4	Temperatura máxima	23.8
123683	7	Sololá	704	Santa Lucía Utatlán 	7	Santa Rita 	10	Octubre	2023-10-17T00:00:00	2024-11-08T23:00:00	3	Temperatura mínima	22.8
123684	7	Sololá	704	Santa Lucía Utatlán 	7	Santa Rita 	10	Octubre	2023-10-17T00:00:00	2024-11-08T23:00:00	5	Humedad	70
123685	7	Sololá	704	Santa Lucía Utatlán 	7	Santa Rita 	10	Octubre	2023-10-17T00:00:00	2024-11-08T23:00:00	6	Velocidad del viento	8
123686	7	Sololá	704	Santa Lucía Utatlán 	7	Santa Rita 	10	Octubre	2023-10-17T00:00:00	2024-11-08T23:00:00	7	Dirección del viento	8.05
123687	7	Sololá	704	Santa Lucía Utatlán 	7	Santa Rita 	10	Octubre	2023-10-17T00:00:00	2024-11-08T23:00:00	1	Precipitación	0
123688	7	Sololá	704	Santa Lucía Utatlán 	7	Santa Rita 	10	Octubre	2023-10-17T00:00:00	2024-11-08T23:00:00	8	Radiación solar	0
123689	7	Sololá	704	Santa Lucía Utatlán 	7	Santa Rita 	10	Octubre	2023-10-18T00:00:00	2024-11-08T00:00:00	2	Temperatura media	22.3
123690	7	Sololá	704	Santa Lucía Utatlán 	7	Santa Rita 	10	Octubre	2023-10-18T00:00:00	2024-11-08T00:00:00	4	Temperatura máxima	23.2
123691	7	Sololá	704	Santa Lucía Utatlán 	7	Santa Rita 	10	Octubre	2023-10-18T00:00:00	2024-11-08T00:00:00	3	Temperatura mínima	22.3
123692	7	Sololá	704	Santa Lucía Utatlán 	7	Santa Rita 	10	Octubre	2023-10-18T00:00:00	2024-11-08T00:00:00	5	Humedad	74
123693	7	Sololá	704	Santa Lucía Utatlán 	7	Santa Rita 	10	Octubre	2023-10-18T00:00:00	2024-11-08T00:00:00	6	Velocidad del viento	6.4
123694	7	Sololá	704	Santa Lucía Utatlán 	7	Santa Rita 	10	Octubre	2023-10-18T00:00:00	2024-11-08T00:00:00	7	Dirección del viento	6.44
123695	7	Sololá	704	Santa Lucía Utatlán 	7	Santa Rita 	10	Octubre	2023-10-18T00:00:00	2024-11-08T00:00:00	1	Precipitación	0
123696	7	Sololá	704	Santa Lucía Utatlán 	7	Santa Rita 	10	Octubre	2023-10-18T00:00:00	2024-11-08T00:00:00	8	Radiación solar	0
123697	7	Sololá	704	Santa Lucía Utatlán 	7	Santa Rita 	10	Octubre	2023-10-18T00:00:00	2024-11-08T01:00:00	2	Temperatura media	22.9
123698	7	Sololá	704	Santa Lucía Utatlán 	7	Santa Rita 	10	Octubre	2023-10-18T00:00:00	2024-11-08T01:00:00	4	Temperatura máxima	23.1
123699	7	Sololá	704	Santa Lucía Utatlán 	7	Santa Rita 	10	Octubre	2023-10-18T00:00:00	2024-11-08T01:00:00	3	Temperatura mínima	22.3
123700	7	Sololá	704	Santa Lucía Utatlán 	7	Santa Rita 	10	Octubre	2023-10-18T00:00:00	2024-11-08T01:00:00	5	Humedad	73
123701	7	Sololá	704	Santa Lucía Utatlán 	7	Santa Rita 	10	Octubre	2023-10-18T00:00:00	2024-11-08T01:00:00	6	Velocidad del viento	6.4
123702	7	Sololá	704	Santa Lucía Utatlán 	7	Santa Rita 	10	Octubre	2023-10-18T00:00:00	2024-11-08T01:00:00	7	Dirección del viento	6.44
123703	7	Sololá	704	Santa Lucía Utatlán 	7	Santa Rita 	10	Octubre	2023-10-18T00:00:00	2024-11-08T01:00:00	1	Precipitación	0
123704	7	Sololá	704	Santa Lucía Utatlán 	7	Santa Rita 	10	Octubre	2023-10-18T00:00:00	2024-11-08T01:00:00	8	Radiación solar	0
123705	7	Sololá	704	Santa Lucía Utatlán 	7	Santa Rita 	10	Octubre	2023-10-18T00:00:00	2024-11-08T02:00:00	2	Temperatura media	22
123706	7	Sololá	704	Santa Lucía Utatlán 	7	Santa Rita 	10	Octubre	2023-10-18T00:00:00	2024-11-08T02:00:00	4	Temperatura máxima	23
123707	7	Sololá	704	Santa Lucía Utatlán 	7	Santa Rita 	10	Octubre	2023-10-18T00:00:00	2024-11-08T02:00:00	3	Temperatura mínima	21.9
123708	7	Sololá	704	Santa Lucía Utatlán 	7	Santa Rita 	10	Octubre	2023-10-18T00:00:00	2024-11-08T02:00:00	5	Humedad	76
123709	7	Sololá	704	Santa Lucía Utatlán 	7	Santa Rita 	10	Octubre	2023-10-18T00:00:00	2024-11-08T02:00:00	6	Velocidad del viento	6.4
123710	7	Sololá	704	Santa Lucía Utatlán 	7	Santa Rita 	10	Octubre	2023-10-18T00:00:00	2024-11-08T02:00:00	7	Dirección del viento	6.44
123711	7	Sololá	704	Santa Lucía Utatlán 	7	Santa Rita 	10	Octubre	2023-10-18T00:00:00	2024-11-08T02:00:00	1	Precipitación	0
123712	7	Sololá	704	Santa Lucía Utatlán 	7	Santa Rita 	10	Octubre	2023-10-18T00:00:00	2024-11-08T02:00:00	8	Radiación solar	0
123713	7	Sololá	704	Santa Lucía Utatlán 	7	Santa Rita 	10	Octubre	2023-10-18T00:00:00	2024-11-08T03:00:00	2	Temperatura media	21.7
123714	7	Sololá	704	Santa Lucía Utatlán 	7	Santa Rita 	10	Octubre	2023-10-18T00:00:00	2024-11-08T03:00:00	4	Temperatura máxima	23.3
123715	7	Sololá	704	Santa Lucía Utatlán 	7	Santa Rita 	10	Octubre	2023-10-18T00:00:00	2024-11-08T03:00:00	3	Temperatura mínima	21.7
123716	7	Sololá	704	Santa Lucía Utatlán 	7	Santa Rita 	10	Octubre	2023-10-18T00:00:00	2024-11-08T03:00:00	5	Humedad	77
123717	7	Sololá	704	Santa Lucía Utatlán 	7	Santa Rita 	10	Octubre	2023-10-18T00:00:00	2024-11-08T03:00:00	6	Velocidad del viento	8
123718	7	Sololá	704	Santa Lucía Utatlán 	7	Santa Rita 	10	Octubre	2023-10-18T00:00:00	2024-11-08T03:00:00	7	Dirección del viento	8.05
123719	7	Sololá	704	Santa Lucía Utatlán 	7	Santa Rita 	10	Octubre	2023-10-18T00:00:00	2024-11-08T03:00:00	1	Precipitación	0
123720	7	Sololá	704	Santa Lucía Utatlán 	7	Santa Rita 	10	Octubre	2023-10-18T00:00:00	2024-11-08T03:00:00	8	Radiación solar	0
123721	7	Sololá	704	Santa Lucía Utatlán 	7	Santa Rita 	10	Octubre	2023-10-18T00:00:00	2024-11-08T04:00:00	2	Temperatura media	20.2
123722	7	Sololá	704	Santa Lucía Utatlán 	7	Santa Rita 	10	Octubre	2023-10-18T00:00:00	2024-11-08T04:00:00	4	Temperatura máxima	20.2
123723	7	Sololá	704	Santa Lucía Utatlán 	7	Santa Rita 	10	Octubre	2023-10-18T00:00:00	2024-11-08T04:00:00	3	Temperatura mínima	17.1
123724	7	Sololá	704	Santa Lucía Utatlán 	7	Santa Rita 	10	Octubre	2023-10-18T00:00:00	2024-11-08T04:00:00	5	Humedad	82
123725	7	Sololá	704	Santa Lucía Utatlán 	7	Santa Rita 	10	Octubre	2023-10-18T00:00:00	2024-11-08T04:00:00	6	Velocidad del viento	3.2
123726	7	Sololá	704	Santa Lucía Utatlán 	7	Santa Rita 	10	Octubre	2023-10-18T00:00:00	2024-11-08T04:00:00	7	Dirección del viento	3.22
123727	7	Sololá	704	Santa Lucía Utatlán 	7	Santa Rita 	10	Octubre	2023-10-18T00:00:00	2024-11-08T04:00:00	1	Precipitación	0
123728	7	Sololá	704	Santa Lucía Utatlán 	7	Santa Rita 	10	Octubre	2023-10-18T00:00:00	2024-11-08T04:00:00	8	Radiación solar	0
123729	7	Sololá	704	Santa Lucía Utatlán 	7	Santa Rita 	10	Octubre	2023-10-18T00:00:00	2024-11-08T05:00:00	2	Temperatura media	19.3
123730	7	Sololá	704	Santa Lucía Utatlán 	7	Santa Rita 	10	Octubre	2023-10-18T00:00:00	2024-11-08T05:00:00	4	Temperatura máxima	19.6
123731	7	Sololá	704	Santa Lucía Utatlán 	7	Santa Rita 	10	Octubre	2023-10-18T00:00:00	2024-11-08T05:00:00	3	Temperatura mínima	19.1
123732	7	Sololá	704	Santa Lucía Utatlán 	7	Santa Rita 	10	Octubre	2023-10-18T00:00:00	2024-11-08T05:00:00	5	Humedad	86
123733	7	Sololá	704	Santa Lucía Utatlán 	7	Santa Rita 	10	Octubre	2023-10-18T00:00:00	2024-11-08T05:00:00	6	Velocidad del viento	3.2
123734	7	Sololá	704	Santa Lucía Utatlán 	7	Santa Rita 	10	Octubre	2023-10-18T00:00:00	2024-11-08T05:00:00	7	Dirección del viento	3.22
123735	7	Sololá	704	Santa Lucía Utatlán 	7	Santa Rita 	10	Octubre	2023-10-18T00:00:00	2024-11-08T05:00:00	1	Precipitación	0
123736	7	Sololá	704	Santa Lucía Utatlán 	7	Santa Rita 	10	Octubre	2023-10-18T00:00:00	2024-11-08T05:00:00	8	Radiación solar	0
123737	7	Sololá	704	Santa Lucía Utatlán 	7	Santa Rita 	10	Octubre	2023-10-18T00:00:00	2024-11-08T06:00:00	2	Temperatura media	19.2
123738	7	Sololá	704	Santa Lucía Utatlán 	7	Santa Rita 	10	Octubre	2023-10-18T00:00:00	2024-11-08T06:00:00	4	Temperatura máxima	19.6
123739	7	Sololá	704	Santa Lucía Utatlán 	7	Santa Rita 	10	Octubre	2023-10-18T00:00:00	2024-11-08T06:00:00	3	Temperatura mínima	19.2
123740	7	Sololá	704	Santa Lucía Utatlán 	7	Santa Rita 	10	Octubre	2023-10-18T00:00:00	2024-11-08T06:00:00	5	Humedad	86
123741	7	Sololá	704	Santa Lucía Utatlán 	7	Santa Rita 	10	Octubre	2023-10-18T00:00:00	2024-11-08T06:00:00	6	Velocidad del viento	1.6
123742	7	Sololá	704	Santa Lucía Utatlán 	7	Santa Rita 	10	Octubre	2023-10-18T00:00:00	2024-11-08T06:00:00	7	Dirección del viento	1.61
123743	7	Sololá	704	Santa Lucía Utatlán 	7	Santa Rita 	10	Octubre	2023-10-18T00:00:00	2024-11-08T06:00:00	1	Precipitación	0
123744	7	Sololá	704	Santa Lucía Utatlán 	7	Santa Rita 	10	Octubre	2023-10-18T00:00:00	2024-11-08T06:00:00	8	Radiación solar	0
123745	7	Sololá	704	Santa Lucía Utatlán 	7	Santa Rita 	10	Octubre	2023-10-18T00:00:00	2024-11-08T07:00:00	2	Temperatura media	17.9
123746	7	Sololá	704	Santa Lucía Utatlán 	7	Santa Rita 	10	Octubre	2023-10-18T00:00:00	2024-11-08T07:00:00	4	Temperatura máxima	19.2
123747	7	Sololá	704	Santa Lucía Utatlán 	7	Santa Rita 	10	Octubre	2023-10-18T00:00:00	2024-11-08T07:00:00	3	Temperatura mínima	17.9
123748	7	Sololá	704	Santa Lucía Utatlán 	7	Santa Rita 	10	Octubre	2023-10-18T00:00:00	2024-11-08T07:00:00	5	Humedad	90
123749	7	Sololá	704	Santa Lucía Utatlán 	7	Santa Rita 	10	Octubre	2023-10-18T00:00:00	2024-11-08T07:00:00	6	Velocidad del viento	1.6
123750	7	Sololá	704	Santa Lucía Utatlán 	7	Santa Rita 	10	Octubre	2023-10-18T00:00:00	2024-11-08T07:00:00	7	Dirección del viento	1.61
123751	7	Sololá	704	Santa Lucía Utatlán 	7	Santa Rita 	10	Octubre	2023-10-18T00:00:00	2024-11-08T07:00:00	1	Precipitación	0
123752	7	Sololá	704	Santa Lucía Utatlán 	7	Santa Rita 	10	Octubre	2023-10-18T00:00:00	2024-11-08T07:00:00	8	Radiación solar	6
123753	7	Sololá	704	Santa Lucía Utatlán 	7	Santa Rita 	10	Octubre	2023-10-18T00:00:00	2024-11-08T08:00:00	2	Temperatura media	16.9
123754	7	Sololá	704	Santa Lucía Utatlán 	7	Santa Rita 	10	Octubre	2023-10-18T00:00:00	2024-11-08T08:00:00	4	Temperatura máxima	17.9
123755	7	Sololá	704	Santa Lucía Utatlán 	7	Santa Rita 	10	Octubre	2023-10-18T00:00:00	2024-11-08T08:00:00	3	Temperatura mínima	16.9
123756	7	Sololá	704	Santa Lucía Utatlán 	7	Santa Rita 	10	Octubre	2023-10-18T00:00:00	2024-11-08T08:00:00	5	Humedad	93
123757	7	Sololá	704	Santa Lucía Utatlán 	7	Santa Rita 	10	Octubre	2023-10-18T00:00:00	2024-11-08T08:00:00	6	Velocidad del viento	1.6
123758	7	Sololá	704	Santa Lucía Utatlán 	7	Santa Rita 	10	Octubre	2023-10-18T00:00:00	2024-11-08T08:00:00	7	Dirección del viento	1.61
123759	7	Sololá	704	Santa Lucía Utatlán 	7	Santa Rita 	10	Octubre	2023-10-18T00:00:00	2024-11-08T08:00:00	1	Precipitación	0
123760	7	Sololá	704	Santa Lucía Utatlán 	7	Santa Rita 	10	Octubre	2023-10-18T00:00:00	2024-11-08T08:00:00	8	Radiación solar	120
123761	7	Sololá	704	Santa Lucía Utatlán 	7	Santa Rita 	10	Octubre	2023-10-18T00:00:00	2024-11-08T09:00:00	2	Temperatura media	16.6
123762	7	Sololá	704	Santa Lucía Utatlán 	7	Santa Rita 	10	Octubre	2023-10-18T00:00:00	2024-11-08T09:00:00	4	Temperatura máxima	17
123763	7	Sololá	704	Santa Lucía Utatlán 	7	Santa Rita 	10	Octubre	2023-10-18T00:00:00	2024-11-08T09:00:00	3	Temperatura mínima	16.6
123764	7	Sololá	704	Santa Lucía Utatlán 	7	Santa Rita 	10	Octubre	2023-10-18T00:00:00	2024-11-08T09:00:00	5	Humedad	93
123765	7	Sololá	704	Santa Lucía Utatlán 	7	Santa Rita 	10	Octubre	2023-10-18T00:00:00	2024-11-08T09:00:00	6	Velocidad del viento	3.2
123766	7	Sololá	704	Santa Lucía Utatlán 	7	Santa Rita 	10	Octubre	2023-10-18T00:00:00	2024-11-08T09:00:00	7	Dirección del viento	3.22
123767	7	Sololá	704	Santa Lucía Utatlán 	7	Santa Rita 	10	Octubre	2023-10-18T00:00:00	2024-11-08T09:00:00	1	Precipitación	0
123768	7	Sololá	704	Santa Lucía Utatlán 	7	Santa Rita 	10	Octubre	2023-10-18T00:00:00	2024-11-08T09:00:00	8	Radiación solar	362
123769	7	Sololá	704	Santa Lucía Utatlán 	7	Santa Rita 	10	Octubre	2023-10-18T00:00:00	2024-11-08T10:00:00	2	Temperatura media	16.6
123770	7	Sololá	704	Santa Lucía Utatlán 	7	Santa Rita 	10	Octubre	2023-10-18T00:00:00	2024-11-08T10:00:00	4	Temperatura máxima	16.7
123771	7	Sololá	704	Santa Lucía Utatlán 	7	Santa Rita 	10	Octubre	2023-10-18T00:00:00	2024-11-08T10:00:00	3	Temperatura mínima	16.5
123772	7	Sololá	704	Santa Lucía Utatlán 	7	Santa Rita 	10	Octubre	2023-10-18T00:00:00	2024-11-08T10:00:00	5	Humedad	93
123773	7	Sololá	704	Santa Lucía Utatlán 	7	Santa Rita 	10	Octubre	2023-10-18T00:00:00	2024-11-08T10:00:00	6	Velocidad del viento	1.6
123774	7	Sololá	704	Santa Lucía Utatlán 	7	Santa Rita 	10	Octubre	2023-10-18T00:00:00	2024-11-08T10:00:00	7	Dirección del viento	1.61
123775	7	Sololá	704	Santa Lucía Utatlán 	7	Santa Rita 	10	Octubre	2023-10-18T00:00:00	2024-11-08T10:00:00	1	Precipitación	0
123776	7	Sololá	704	Santa Lucía Utatlán 	7	Santa Rita 	10	Octubre	2023-10-18T00:00:00	2024-11-08T10:00:00	8	Radiación solar	608
123777	7	Sololá	704	Santa Lucía Utatlán 	7	Santa Rita 	10	Octubre	2023-10-18T00:00:00	2024-11-08T11:00:00	2	Temperatura media	16.6
123778	7	Sololá	704	Santa Lucía Utatlán 	7	Santa Rita 	10	Octubre	2023-10-18T00:00:00	2024-11-08T11:00:00	4	Temperatura máxima	16.9
123779	7	Sololá	704	Santa Lucía Utatlán 	7	Santa Rita 	10	Octubre	2023-10-18T00:00:00	2024-11-08T11:00:00	3	Temperatura mínima	16.6
123780	7	Sololá	704	Santa Lucía Utatlán 	7	Santa Rita 	10	Octubre	2023-10-18T00:00:00	2024-11-08T11:00:00	5	Humedad	92
123781	7	Sololá	704	Santa Lucía Utatlán 	7	Santa Rita 	10	Octubre	2023-10-18T00:00:00	2024-11-08T11:00:00	6	Velocidad del viento	1.6
123782	7	Sololá	704	Santa Lucía Utatlán 	7	Santa Rita 	10	Octubre	2023-10-18T00:00:00	2024-11-08T11:00:00	7	Dirección del viento	1.61
123783	7	Sololá	704	Santa Lucía Utatlán 	7	Santa Rita 	10	Octubre	2023-10-18T00:00:00	2024-11-08T11:00:00	1	Precipitación	0
123784	7	Sololá	704	Santa Lucía Utatlán 	7	Santa Rita 	10	Octubre	2023-10-18T00:00:00	2024-11-08T11:00:00	8	Radiación solar	735
123785	7	Sololá	704	Santa Lucía Utatlán 	7	Santa Rita 	10	Octubre	2023-10-18T00:00:00	2024-11-08T12:00:00	2	Temperatura media	16.6
123786	7	Sololá	704	Santa Lucía Utatlán 	7	Santa Rita 	10	Octubre	2023-10-18T00:00:00	2024-11-08T12:00:00	4	Temperatura máxima	16.7
123787	7	Sololá	704	Santa Lucía Utatlán 	7	Santa Rita 	10	Octubre	2023-10-18T00:00:00	2024-11-08T12:00:00	3	Temperatura mínima	16.3
123788	7	Sololá	704	Santa Lucía Utatlán 	7	Santa Rita 	10	Octubre	2023-10-18T00:00:00	2024-11-08T12:00:00	5	Humedad	91
123789	7	Sololá	704	Santa Lucía Utatlán 	7	Santa Rita 	10	Octubre	2023-10-18T00:00:00	2024-11-08T12:00:00	6	Velocidad del viento	3.2
123790	7	Sololá	704	Santa Lucía Utatlán 	7	Santa Rita 	10	Octubre	2023-10-18T00:00:00	2024-11-08T12:00:00	7	Dirección del viento	3.22
123791	7	Sololá	704	Santa Lucía Utatlán 	7	Santa Rita 	10	Octubre	2023-10-18T00:00:00	2024-11-08T12:00:00	1	Precipitación	0
123792	7	Sololá	704	Santa Lucía Utatlán 	7	Santa Rita 	10	Octubre	2023-10-18T00:00:00	2024-11-08T12:00:00	8	Radiación solar	441
123793	7	Sololá	704	Santa Lucía Utatlán 	7	Santa Rita 	10	Octubre	2023-10-18T00:00:00	2024-11-08T13:00:00	2	Temperatura media	16.8
123794	7	Sololá	704	Santa Lucía Utatlán 	7	Santa Rita 	10	Octubre	2023-10-18T00:00:00	2024-11-08T13:00:00	4	Temperatura máxima	16.8
123795	7	Sololá	704	Santa Lucía Utatlán 	7	Santa Rita 	10	Octubre	2023-10-18T00:00:00	2024-11-08T13:00:00	3	Temperatura mínima	16.6
123796	7	Sololá	704	Santa Lucía Utatlán 	7	Santa Rita 	10	Octubre	2023-10-18T00:00:00	2024-11-08T13:00:00	5	Humedad	90
123797	7	Sololá	704	Santa Lucía Utatlán 	7	Santa Rita 	10	Octubre	2023-10-18T00:00:00	2024-11-08T13:00:00	6	Velocidad del viento	3.2
123798	7	Sololá	704	Santa Lucía Utatlán 	7	Santa Rita 	10	Octubre	2023-10-18T00:00:00	2024-11-08T13:00:00	7	Dirección del viento	3.22
123799	7	Sololá	704	Santa Lucía Utatlán 	7	Santa Rita 	10	Octubre	2023-10-18T00:00:00	2024-11-08T13:00:00	1	Precipitación	0
123800	7	Sololá	704	Santa Lucía Utatlán 	7	Santa Rita 	10	Octubre	2023-10-18T00:00:00	2024-11-08T13:00:00	8	Radiación solar	218
123801	7	Sololá	704	Santa Lucía Utatlán 	7	Santa Rita 	10	Octubre	2023-10-18T00:00:00	2024-11-08T14:00:00	2	Temperatura media	16.9
123802	7	Sololá	704	Santa Lucía Utatlán 	7	Santa Rita 	10	Octubre	2023-10-18T00:00:00	2024-11-08T14:00:00	4	Temperatura máxima	16.9
123803	7	Sololá	704	Santa Lucía Utatlán 	7	Santa Rita 	10	Octubre	2023-10-18T00:00:00	2024-11-08T14:00:00	3	Temperatura mínima	16.6
123804	7	Sololá	704	Santa Lucía Utatlán 	7	Santa Rita 	10	Octubre	2023-10-18T00:00:00	2024-11-08T14:00:00	5	Humedad	89
123805	7	Sololá	704	Santa Lucía Utatlán 	7	Santa Rita 	10	Octubre	2023-10-18T00:00:00	2024-11-08T14:00:00	6	Velocidad del viento	4.8
123806	7	Sololá	704	Santa Lucía Utatlán 	7	Santa Rita 	10	Octubre	2023-10-18T00:00:00	2024-11-08T14:00:00	7	Dirección del viento	4.83
123807	7	Sololá	704	Santa Lucía Utatlán 	7	Santa Rita 	10	Octubre	2023-10-18T00:00:00	2024-11-08T14:00:00	1	Precipitación	0
123808	7	Sololá	704	Santa Lucía Utatlán 	7	Santa Rita 	10	Octubre	2023-10-18T00:00:00	2024-11-08T14:00:00	8	Radiación solar	118
123809	7	Sololá	704	Santa Lucía Utatlán 	7	Santa Rita 	10	Octubre	2023-10-18T00:00:00	2024-11-08T15:00:00	2	Temperatura media	16.9
123810	7	Sololá	704	Santa Lucía Utatlán 	7	Santa Rita 	10	Octubre	2023-10-18T00:00:00	2024-11-08T15:00:00	4	Temperatura máxima	17.2
123811	7	Sololá	704	Santa Lucía Utatlán 	7	Santa Rita 	10	Octubre	2023-10-18T00:00:00	2024-11-08T15:00:00	3	Temperatura mínima	16.8
123812	7	Sololá	704	Santa Lucía Utatlán 	7	Santa Rita 	10	Octubre	2023-10-18T00:00:00	2024-11-08T15:00:00	5	Humedad	87
123813	7	Sololá	704	Santa Lucía Utatlán 	7	Santa Rita 	10	Octubre	2023-10-18T00:00:00	2024-11-08T15:00:00	6	Velocidad del viento	4.8
123814	7	Sololá	704	Santa Lucía Utatlán 	7	Santa Rita 	10	Octubre	2023-10-18T00:00:00	2024-11-08T15:00:00	7	Dirección del viento	4.83
123815	7	Sololá	704	Santa Lucía Utatlán 	7	Santa Rita 	10	Octubre	2023-10-18T00:00:00	2024-11-08T15:00:00	1	Precipitación	0
123816	7	Sololá	704	Santa Lucía Utatlán 	7	Santa Rita 	10	Octubre	2023-10-18T00:00:00	2024-11-08T15:00:00	8	Radiación solar	130
123817	7	Sololá	704	Santa Lucía Utatlán 	7	Santa Rita 	10	Octubre	2023-10-18T00:00:00	2024-11-08T16:00:00	2	Temperatura media	16.7
123818	7	Sololá	704	Santa Lucía Utatlán 	7	Santa Rita 	10	Octubre	2023-10-18T00:00:00	2024-11-08T16:00:00	4	Temperatura máxima	17
123819	7	Sololá	704	Santa Lucía Utatlán 	7	Santa Rita 	10	Octubre	2023-10-18T00:00:00	2024-11-08T16:00:00	3	Temperatura mínima	16.6
123820	7	Sololá	704	Santa Lucía Utatlán 	7	Santa Rita 	10	Octubre	2023-10-18T00:00:00	2024-11-08T16:00:00	5	Humedad	89
123821	7	Sololá	704	Santa Lucía Utatlán 	7	Santa Rita 	10	Octubre	2023-10-18T00:00:00	2024-11-08T16:00:00	6	Velocidad del viento	4.8
123822	7	Sololá	704	Santa Lucía Utatlán 	7	Santa Rita 	10	Octubre	2023-10-18T00:00:00	2024-11-08T16:00:00	7	Dirección del viento	4.83
123823	7	Sololá	704	Santa Lucía Utatlán 	7	Santa Rita 	10	Octubre	2023-10-18T00:00:00	2024-11-08T16:00:00	1	Precipitación	0
123824	7	Sololá	704	Santa Lucía Utatlán 	7	Santa Rita 	10	Octubre	2023-10-18T00:00:00	2024-11-08T16:00:00	8	Radiación solar	0
123825	7	Sololá	704	Santa Lucía Utatlán 	7	Santa Rita 	10	Octubre	2023-10-18T00:00:00	2024-11-08T17:00:00	2	Temperatura media	19.6
123826	7	Sololá	704	Santa Lucía Utatlán 	7	Santa Rita 	10	Octubre	2023-10-18T00:00:00	2024-11-08T17:00:00	4	Temperatura máxima	19.6
123827	7	Sololá	704	Santa Lucía Utatlán 	7	Santa Rita 	10	Octubre	2023-10-18T00:00:00	2024-11-08T17:00:00	3	Temperatura mínima	16.7
123828	7	Sololá	704	Santa Lucía Utatlán 	7	Santa Rita 	10	Octubre	2023-10-18T00:00:00	2024-11-08T17:00:00	5	Humedad	83
123829	7	Sololá	704	Santa Lucía Utatlán 	7	Santa Rita 	10	Octubre	2023-10-18T00:00:00	2024-11-08T17:00:00	6	Velocidad del viento	1.6
123830	7	Sololá	704	Santa Lucía Utatlán 	7	Santa Rita 	10	Octubre	2023-10-18T00:00:00	2024-11-08T17:00:00	7	Dirección del viento	1.61
123831	7	Sololá	704	Santa Lucía Utatlán 	7	Santa Rita 	10	Octubre	2023-10-18T00:00:00	2024-11-08T17:00:00	1	Precipitación	0
123832	7	Sololá	704	Santa Lucía Utatlán 	7	Santa Rita 	10	Octubre	2023-10-18T00:00:00	2024-11-08T17:00:00	8	Radiación solar	0
123833	7	Sololá	704	Santa Lucía Utatlán 	7	Santa Rita 	10	Octubre	2023-10-18T00:00:00	2024-11-08T18:00:00	2	Temperatura media	22.5
123834	7	Sololá	704	Santa Lucía Utatlán 	7	Santa Rita 	10	Octubre	2023-10-18T00:00:00	2024-11-08T18:00:00	4	Temperatura máxima	22.5
123835	7	Sololá	704	Santa Lucía Utatlán 	7	Santa Rita 	10	Octubre	2023-10-18T00:00:00	2024-11-08T18:00:00	3	Temperatura mínima	19.6
123836	7	Sololá	704	Santa Lucía Utatlán 	7	Santa Rita 	10	Octubre	2023-10-18T00:00:00	2024-11-08T18:00:00	5	Humedad	78
123837	7	Sololá	704	Santa Lucía Utatlán 	7	Santa Rita 	10	Octubre	2023-10-18T00:00:00	2024-11-08T18:00:00	6	Velocidad del viento	3.2
123838	7	Sololá	704	Santa Lucía Utatlán 	7	Santa Rita 	10	Octubre	2023-10-18T00:00:00	2024-11-08T18:00:00	7	Dirección del viento	3.22
123839	7	Sololá	704	Santa Lucía Utatlán 	7	Santa Rita 	10	Octubre	2023-10-18T00:00:00	2024-11-08T18:00:00	1	Precipitación	0
123840	7	Sololá	704	Santa Lucía Utatlán 	7	Santa Rita 	10	Octubre	2023-10-18T00:00:00	2024-11-08T18:00:00	8	Radiación solar	0
123841	7	Sololá	704	Santa Lucía Utatlán 	7	Santa Rita 	10	Octubre	2023-10-18T00:00:00	2024-11-08T19:00:00	2	Temperatura media	24.8
123842	7	Sololá	704	Santa Lucía Utatlán 	7	Santa Rita 	10	Octubre	2023-10-18T00:00:00	2024-11-08T19:00:00	4	Temperatura máxima	24.8
123843	7	Sololá	704	Santa Lucía Utatlán 	7	Santa Rita 	10	Octubre	2023-10-18T00:00:00	2024-11-08T19:00:00	3	Temperatura mínima	22.5
123844	7	Sololá	704	Santa Lucía Utatlán 	7	Santa Rita 	10	Octubre	2023-10-18T00:00:00	2024-11-08T19:00:00	5	Humedad	67
123845	7	Sololá	704	Santa Lucía Utatlán 	7	Santa Rita 	10	Octubre	2023-10-18T00:00:00	2024-11-08T19:00:00	6	Velocidad del viento	6.4
123846	7	Sololá	704	Santa Lucía Utatlán 	7	Santa Rita 	10	Octubre	2023-10-18T00:00:00	2024-11-08T19:00:00	7	Dirección del viento	6.44
123847	7	Sololá	704	Santa Lucía Utatlán 	7	Santa Rita 	10	Octubre	2023-10-18T00:00:00	2024-11-08T19:00:00	1	Precipitación	0
123848	7	Sololá	704	Santa Lucía Utatlán 	7	Santa Rita 	10	Octubre	2023-10-18T00:00:00	2024-11-08T19:00:00	8	Radiación solar	0
123849	7	Sololá	704	Santa Lucía Utatlán 	7	Santa Rita 	10	Octubre	2023-10-18T00:00:00	2024-11-08T20:00:00	2	Temperatura media	24.1
123850	7	Sololá	704	Santa Lucía Utatlán 	7	Santa Rita 	10	Octubre	2023-10-18T00:00:00	2024-11-08T20:00:00	4	Temperatura máxima	24.8
123851	7	Sololá	704	Santa Lucía Utatlán 	7	Santa Rita 	10	Octubre	2023-10-18T00:00:00	2024-11-08T20:00:00	3	Temperatura mínima	23.8
123852	7	Sololá	704	Santa Lucía Utatlán 	7	Santa Rita 	10	Octubre	2023-10-18T00:00:00	2024-11-08T20:00:00	5	Humedad	69
123853	7	Sololá	704	Santa Lucía Utatlán 	7	Santa Rita 	10	Octubre	2023-10-18T00:00:00	2024-11-08T20:00:00	6	Velocidad del viento	11.3
123854	7	Sololá	704	Santa Lucía Utatlán 	7	Santa Rita 	10	Octubre	2023-10-18T00:00:00	2024-11-08T20:00:00	7	Dirección del viento	11.27
123855	7	Sololá	704	Santa Lucía Utatlán 	7	Santa Rita 	10	Octubre	2023-10-18T00:00:00	2024-11-08T20:00:00	1	Precipitación	0
123856	7	Sololá	704	Santa Lucía Utatlán 	7	Santa Rita 	10	Octubre	2023-10-18T00:00:00	2024-11-08T20:00:00	8	Radiación solar	0
123857	7	Sololá	704	Santa Lucía Utatlán 	7	Santa Rita 	10	Octubre	2023-10-18T00:00:00	2024-11-08T21:00:00	2	Temperatura media	23.7
123858	7	Sololá	704	Santa Lucía Utatlán 	7	Santa Rita 	10	Octubre	2023-10-18T00:00:00	2024-11-08T21:00:00	4	Temperatura máxima	24.4
123859	7	Sololá	704	Santa Lucía Utatlán 	7	Santa Rita 	10	Octubre	2023-10-18T00:00:00	2024-11-08T21:00:00	3	Temperatura mínima	23.7
123860	7	Sololá	704	Santa Lucía Utatlán 	7	Santa Rita 	10	Octubre	2023-10-18T00:00:00	2024-11-08T21:00:00	5	Humedad	76
123861	7	Sololá	704	Santa Lucía Utatlán 	7	Santa Rita 	10	Octubre	2023-10-18T00:00:00	2024-11-08T21:00:00	6	Velocidad del viento	6.4
123862	7	Sololá	704	Santa Lucía Utatlán 	7	Santa Rita 	10	Octubre	2023-10-18T00:00:00	2024-11-08T21:00:00	7	Dirección del viento	6.44
123863	7	Sololá	704	Santa Lucía Utatlán 	7	Santa Rita 	10	Octubre	2023-10-18T00:00:00	2024-11-08T21:00:00	1	Precipitación	0
123864	7	Sololá	704	Santa Lucía Utatlán 	7	Santa Rita 	10	Octubre	2023-10-18T00:00:00	2024-11-08T21:00:00	8	Radiación solar	0
123865	7	Sololá	704	Santa Lucía Utatlán 	7	Santa Rita 	10	Octubre	2023-10-18T00:00:00	2024-11-08T22:00:00	2	Temperatura media	22.2
123866	7	Sololá	704	Santa Lucía Utatlán 	7	Santa Rita 	10	Octubre	2023-10-18T00:00:00	2024-11-08T22:00:00	4	Temperatura máxima	23.7
123867	7	Sololá	704	Santa Lucía Utatlán 	7	Santa Rita 	10	Octubre	2023-10-18T00:00:00	2024-11-08T22:00:00	3	Temperatura mínima	21.9
123868	7	Sololá	704	Santa Lucía Utatlán 	7	Santa Rita 	10	Octubre	2023-10-18T00:00:00	2024-11-08T22:00:00	5	Humedad	83
123869	7	Sololá	704	Santa Lucía Utatlán 	7	Santa Rita 	10	Octubre	2023-10-18T00:00:00	2024-11-08T22:00:00	6	Velocidad del viento	4.8
123870	7	Sololá	704	Santa Lucía Utatlán 	7	Santa Rita 	10	Octubre	2023-10-18T00:00:00	2024-11-08T22:00:00	7	Dirección del viento	4.83
123871	7	Sololá	704	Santa Lucía Utatlán 	7	Santa Rita 	10	Octubre	2023-10-18T00:00:00	2024-11-08T22:00:00	1	Precipitación	0
123872	7	Sololá	704	Santa Lucía Utatlán 	7	Santa Rita 	10	Octubre	2023-10-18T00:00:00	2024-11-08T22:00:00	8	Radiación solar	0
123873	7	Sololá	704	Santa Lucía Utatlán 	7	Santa Rita 	10	Octubre	2023-10-18T00:00:00	2024-11-08T23:00:00	2	Temperatura media	21.2
123874	7	Sololá	704	Santa Lucía Utatlán 	7	Santa Rita 	10	Octubre	2023-10-18T00:00:00	2024-11-08T23:00:00	4	Temperatura máxima	22.2
123875	7	Sololá	704	Santa Lucía Utatlán 	7	Santa Rita 	10	Octubre	2023-10-18T00:00:00	2024-11-08T23:00:00	3	Temperatura mínima	21.2
123876	7	Sololá	704	Santa Lucía Utatlán 	7	Santa Rita 	10	Octubre	2023-10-18T00:00:00	2024-11-08T23:00:00	5	Humedad	89
123877	7	Sololá	704	Santa Lucía Utatlán 	7	Santa Rita 	10	Octubre	2023-10-18T00:00:00	2024-11-08T23:00:00	6	Velocidad del viento	3.2
123878	7	Sololá	704	Santa Lucía Utatlán 	7	Santa Rita 	10	Octubre	2023-10-18T00:00:00	2024-11-08T23:00:00	7	Dirección del viento	3.22
123879	7	Sololá	704	Santa Lucía Utatlán 	7	Santa Rita 	10	Octubre	2023-10-18T00:00:00	2024-11-08T23:00:00	1	Precipitación	0
123880	7	Sololá	704	Santa Lucía Utatlán 	7	Santa Rita 	10	Octubre	2023-10-18T00:00:00	2024-11-08T23:00:00	8	Radiación solar	0
123881	7	Sololá	704	Santa Lucía Utatlán 	7	Santa Rita 	10	Octubre	2023-10-19T00:00:00	2024-11-08T00:00:00	2	Temperatura media	21.8
123882	7	Sololá	704	Santa Lucía Utatlán 	7	Santa Rita 	10	Octubre	2023-10-19T00:00:00	2024-11-08T00:00:00	4	Temperatura máxima	21.8
123883	7	Sololá	704	Santa Lucía Utatlán 	7	Santa Rita 	10	Octubre	2023-10-19T00:00:00	2024-11-08T00:00:00	3	Temperatura mínima	20.9
123884	7	Sololá	704	Santa Lucía Utatlán 	7	Santa Rita 	10	Octubre	2023-10-19T00:00:00	2024-11-08T00:00:00	5	Humedad	86
123885	7	Sololá	704	Santa Lucía Utatlán 	7	Santa Rita 	10	Octubre	2023-10-19T00:00:00	2024-11-08T00:00:00	6	Velocidad del viento	1.6
123886	7	Sololá	704	Santa Lucía Utatlán 	7	Santa Rita 	10	Octubre	2023-10-19T00:00:00	2024-11-08T00:00:00	7	Dirección del viento	1.61
123887	7	Sololá	704	Santa Lucía Utatlán 	7	Santa Rita 	10	Octubre	2023-10-19T00:00:00	2024-11-08T00:00:00	1	Precipitación	0.6
123888	7	Sololá	704	Santa Lucía Utatlán 	7	Santa Rita 	10	Octubre	2023-10-19T00:00:00	2024-11-08T00:00:00	8	Radiación solar	0
123889	7	Sololá	704	Santa Lucía Utatlán 	7	Santa Rita 	10	Octubre	2023-10-19T00:00:00	2024-11-08T01:00:00	2	Temperatura media	14.6
123890	7	Sololá	704	Santa Lucía Utatlán 	7	Santa Rita 	10	Octubre	2023-10-19T00:00:00	2024-11-08T01:00:00	4	Temperatura máxima	15.3
123891	7	Sololá	704	Santa Lucía Utatlán 	7	Santa Rita 	10	Octubre	2023-10-19T00:00:00	2024-11-08T01:00:00	3	Temperatura mínima	14.6
123892	7	Sololá	704	Santa Lucía Utatlán 	7	Santa Rita 	10	Octubre	2023-10-19T00:00:00	2024-11-08T01:00:00	5	Humedad	71
123893	7	Sololá	704	Santa Lucía Utatlán 	7	Santa Rita 	10	Octubre	2023-10-19T00:00:00	2024-11-08T01:00:00	6	Velocidad del viento	4.8
123894	7	Sololá	704	Santa Lucía Utatlán 	7	Santa Rita 	10	Octubre	2023-10-19T00:00:00	2024-11-08T01:00:00	7	Dirección del viento	4.83
123895	7	Sololá	704	Santa Lucía Utatlán 	7	Santa Rita 	10	Octubre	2023-10-19T00:00:00	2024-11-08T01:00:00	1	Precipitación	0
123896	7	Sololá	704	Santa Lucía Utatlán 	7	Santa Rita 	10	Octubre	2023-10-19T00:00:00	2024-11-08T01:00:00	8	Radiación solar	0
123897	7	Sololá	704	Santa Lucía Utatlán 	7	Santa Rita 	10	Octubre	2023-10-19T00:00:00	2024-11-08T02:00:00	2	Temperatura media	14.4
123898	7	Sololá	704	Santa Lucía Utatlán 	7	Santa Rita 	10	Octubre	2023-10-19T00:00:00	2024-11-08T02:00:00	4	Temperatura máxima	14.6
123899	7	Sololá	704	Santa Lucía Utatlán 	7	Santa Rita 	10	Octubre	2023-10-19T00:00:00	2024-11-08T02:00:00	3	Temperatura mínima	13.9
123900	7	Sololá	704	Santa Lucía Utatlán 	7	Santa Rita 	10	Octubre	2023-10-19T00:00:00	2024-11-08T02:00:00	5	Humedad	70
123901	7	Sololá	704	Santa Lucía Utatlán 	7	Santa Rita 	10	Octubre	2023-10-19T00:00:00	2024-11-08T02:00:00	6	Velocidad del viento	4.8
123902	7	Sololá	704	Santa Lucía Utatlán 	7	Santa Rita 	10	Octubre	2023-10-19T00:00:00	2024-11-08T02:00:00	7	Dirección del viento	4.83
123903	7	Sololá	704	Santa Lucía Utatlán 	7	Santa Rita 	10	Octubre	2023-10-19T00:00:00	2024-11-08T02:00:00	1	Precipitación	0
123904	7	Sololá	704	Santa Lucía Utatlán 	7	Santa Rita 	10	Octubre	2023-10-19T00:00:00	2024-11-08T02:00:00	8	Radiación solar	0
123905	7	Sololá	704	Santa Lucía Utatlán 	7	Santa Rita 	10	Octubre	2023-10-19T00:00:00	2024-11-08T03:00:00	2	Temperatura media	16.3
123906	7	Sololá	704	Santa Lucía Utatlán 	7	Santa Rita 	10	Octubre	2023-10-19T00:00:00	2024-11-08T03:00:00	4	Temperatura máxima	16.3
123907	7	Sololá	704	Santa Lucía Utatlán 	7	Santa Rita 	10	Octubre	2023-10-19T00:00:00	2024-11-08T03:00:00	3	Temperatura mínima	14.4
123908	7	Sololá	704	Santa Lucía Utatlán 	7	Santa Rita 	10	Octubre	2023-10-19T00:00:00	2024-11-08T03:00:00	5	Humedad	73
123909	7	Sololá	704	Santa Lucía Utatlán 	7	Santa Rita 	10	Octubre	2023-10-19T00:00:00	2024-11-08T03:00:00	6	Velocidad del viento	4.8
123910	7	Sololá	704	Santa Lucía Utatlán 	7	Santa Rita 	10	Octubre	2023-10-19T00:00:00	2024-11-08T03:00:00	7	Dirección del viento	4.83
123911	7	Sololá	704	Santa Lucía Utatlán 	7	Santa Rita 	10	Octubre	2023-10-19T00:00:00	2024-11-08T03:00:00	1	Precipitación	0
123912	7	Sololá	704	Santa Lucía Utatlán 	7	Santa Rita 	10	Octubre	2023-10-19T00:00:00	2024-11-08T03:00:00	8	Radiación solar	0
123913	7	Sololá	704	Santa Lucía Utatlán 	7	Santa Rita 	10	Octubre	2023-10-19T00:00:00	2024-11-08T04:00:00	2	Temperatura media	18.3
123914	7	Sololá	704	Santa Lucía Utatlán 	7	Santa Rita 	10	Octubre	2023-10-19T00:00:00	2024-11-08T04:00:00	4	Temperatura máxima	18.3
123915	7	Sololá	704	Santa Lucía Utatlán 	7	Santa Rita 	10	Octubre	2023-10-19T00:00:00	2024-11-08T04:00:00	3	Temperatura mínima	15.7
123916	7	Sololá	704	Santa Lucía Utatlán 	7	Santa Rita 	10	Octubre	2023-10-19T00:00:00	2024-11-08T04:00:00	5	Humedad	72
123917	7	Sololá	704	Santa Lucía Utatlán 	7	Santa Rita 	10	Octubre	2023-10-19T00:00:00	2024-11-08T04:00:00	6	Velocidad del viento	3.2
123918	7	Sololá	704	Santa Lucía Utatlán 	7	Santa Rita 	10	Octubre	2023-10-19T00:00:00	2024-11-08T04:00:00	7	Dirección del viento	3.22
123919	7	Sololá	704	Santa Lucía Utatlán 	7	Santa Rita 	10	Octubre	2023-10-19T00:00:00	2024-11-08T04:00:00	1	Precipitación	0
123920	7	Sololá	704	Santa Lucía Utatlán 	7	Santa Rita 	10	Octubre	2023-10-19T00:00:00	2024-11-08T04:00:00	8	Radiación solar	0
123921	7	Sololá	704	Santa Lucía Utatlán 	7	Santa Rita 	10	Octubre	2023-10-19T00:00:00	2024-11-08T05:00:00	2	Temperatura media	19.3
123922	7	Sololá	704	Santa Lucía Utatlán 	7	Santa Rita 	10	Octubre	2023-10-19T00:00:00	2024-11-08T05:00:00	4	Temperatura máxima	19.8
123923	7	Sololá	704	Santa Lucía Utatlán 	7	Santa Rita 	10	Octubre	2023-10-19T00:00:00	2024-11-08T05:00:00	3	Temperatura mínima	19.3
123924	7	Sololá	704	Santa Lucía Utatlán 	7	Santa Rita 	10	Octubre	2023-10-19T00:00:00	2024-11-08T05:00:00	5	Humedad	94
123925	7	Sololá	704	Santa Lucía Utatlán 	7	Santa Rita 	10	Octubre	2023-10-19T00:00:00	2024-11-08T05:00:00	6	Velocidad del viento	0
123926	7	Sololá	704	Santa Lucía Utatlán 	7	Santa Rita 	10	Octubre	2023-10-19T00:00:00	2024-11-08T05:00:00	7	Dirección del viento	0
123927	7	Sololá	704	Santa Lucía Utatlán 	7	Santa Rita 	10	Octubre	2023-10-19T00:00:00	2024-11-08T05:00:00	1	Precipitación	0
123928	7	Sololá	704	Santa Lucía Utatlán 	7	Santa Rita 	10	Octubre	2023-10-19T00:00:00	2024-11-08T05:00:00	8	Radiación solar	0
123929	7	Sololá	704	Santa Lucía Utatlán 	7	Santa Rita 	10	Octubre	2023-10-19T00:00:00	2024-11-08T06:00:00	2	Temperatura media	19
123930	7	Sololá	704	Santa Lucía Utatlán 	7	Santa Rita 	10	Octubre	2023-10-19T00:00:00	2024-11-08T06:00:00	4	Temperatura máxima	19.3
123931	7	Sololá	704	Santa Lucía Utatlán 	7	Santa Rita 	10	Octubre	2023-10-19T00:00:00	2024-11-08T06:00:00	3	Temperatura mínima	19
123932	7	Sololá	704	Santa Lucía Utatlán 	7	Santa Rita 	10	Octubre	2023-10-19T00:00:00	2024-11-08T06:00:00	5	Humedad	95
123933	7	Sololá	704	Santa Lucía Utatlán 	7	Santa Rita 	10	Octubre	2023-10-19T00:00:00	2024-11-08T06:00:00	6	Velocidad del viento	0
123934	7	Sololá	704	Santa Lucía Utatlán 	7	Santa Rita 	10	Octubre	2023-10-19T00:00:00	2024-11-08T06:00:00	7	Dirección del viento	0
123935	7	Sololá	704	Santa Lucía Utatlán 	7	Santa Rita 	10	Octubre	2023-10-19T00:00:00	2024-11-08T06:00:00	1	Precipitación	0
123936	7	Sololá	704	Santa Lucía Utatlán 	7	Santa Rita 	10	Octubre	2023-10-19T00:00:00	2024-11-08T06:00:00	8	Radiación solar	0
123937	7	Sololá	704	Santa Lucía Utatlán 	7	Santa Rita 	10	Octubre	2023-10-19T00:00:00	2024-11-08T07:00:00	2	Temperatura media	18.9
123938	7	Sololá	704	Santa Lucía Utatlán 	7	Santa Rita 	10	Octubre	2023-10-19T00:00:00	2024-11-08T07:00:00	4	Temperatura máxima	19
123939	7	Sololá	704	Santa Lucía Utatlán 	7	Santa Rita 	10	Octubre	2023-10-19T00:00:00	2024-11-08T07:00:00	3	Temperatura mínima	18.7
123940	7	Sololá	704	Santa Lucía Utatlán 	7	Santa Rita 	10	Octubre	2023-10-19T00:00:00	2024-11-08T07:00:00	5	Humedad	96
123941	7	Sololá	704	Santa Lucía Utatlán 	7	Santa Rita 	10	Octubre	2023-10-19T00:00:00	2024-11-08T07:00:00	6	Velocidad del viento	0
123942	7	Sololá	704	Santa Lucía Utatlán 	7	Santa Rita 	10	Octubre	2023-10-19T00:00:00	2024-11-08T07:00:00	7	Dirección del viento	0
123943	7	Sololá	704	Santa Lucía Utatlán 	7	Santa Rita 	10	Octubre	2023-10-19T00:00:00	2024-11-08T07:00:00	1	Precipitación	0
123944	7	Sololá	704	Santa Lucía Utatlán 	7	Santa Rita 	10	Octubre	2023-10-19T00:00:00	2024-11-08T07:00:00	8	Radiación solar	3
123945	7	Sololá	704	Santa Lucía Utatlán 	7	Santa Rita 	10	Octubre	2023-10-19T00:00:00	2024-11-08T08:00:00	2	Temperatura media	18.6
123946	7	Sololá	704	Santa Lucía Utatlán 	7	Santa Rita 	10	Octubre	2023-10-19T00:00:00	2024-11-08T08:00:00	4	Temperatura máxima	18.9
123947	7	Sololá	704	Santa Lucía Utatlán 	7	Santa Rita 	10	Octubre	2023-10-19T00:00:00	2024-11-08T08:00:00	3	Temperatura mínima	18.6
123948	7	Sololá	704	Santa Lucía Utatlán 	7	Santa Rita 	10	Octubre	2023-10-19T00:00:00	2024-11-08T08:00:00	5	Humedad	96
123949	7	Sololá	704	Santa Lucía Utatlán 	7	Santa Rita 	10	Octubre	2023-10-19T00:00:00	2024-11-08T08:00:00	6	Velocidad del viento	1.6
123950	7	Sololá	704	Santa Lucía Utatlán 	7	Santa Rita 	10	Octubre	2023-10-19T00:00:00	2024-11-08T08:00:00	7	Dirección del viento	1.61
123951	7	Sololá	704	Santa Lucía Utatlán 	7	Santa Rita 	10	Octubre	2023-10-19T00:00:00	2024-11-08T08:00:00	1	Precipitación	0
123952	7	Sololá	704	Santa Lucía Utatlán 	7	Santa Rita 	10	Octubre	2023-10-19T00:00:00	2024-11-08T08:00:00	8	Radiación solar	107
123953	7	Sololá	704	Santa Lucía Utatlán 	7	Santa Rita 	10	Octubre	2023-10-19T00:00:00	2024-11-08T09:00:00	2	Temperatura media	18
123954	7	Sololá	704	Santa Lucía Utatlán 	7	Santa Rita 	10	Octubre	2023-10-19T00:00:00	2024-11-08T09:00:00	4	Temperatura máxima	18.6
123955	7	Sololá	704	Santa Lucía Utatlán 	7	Santa Rita 	10	Octubre	2023-10-19T00:00:00	2024-11-08T09:00:00	3	Temperatura mínima	18
123956	7	Sololá	704	Santa Lucía Utatlán 	7	Santa Rita 	10	Octubre	2023-10-19T00:00:00	2024-11-08T09:00:00	5	Humedad	96
123957	7	Sololá	704	Santa Lucía Utatlán 	7	Santa Rita 	10	Octubre	2023-10-19T00:00:00	2024-11-08T09:00:00	6	Velocidad del viento	1.6
123958	7	Sololá	704	Santa Lucía Utatlán 	7	Santa Rita 	10	Octubre	2023-10-19T00:00:00	2024-11-08T09:00:00	7	Dirección del viento	1.61
123959	7	Sololá	704	Santa Lucía Utatlán 	7	Santa Rita 	10	Octubre	2023-10-19T00:00:00	2024-11-08T09:00:00	1	Precipitación	0
123960	7	Sololá	704	Santa Lucía Utatlán 	7	Santa Rita 	10	Octubre	2023-10-19T00:00:00	2024-11-08T09:00:00	8	Radiación solar	360
123961	7	Sololá	704	Santa Lucía Utatlán 	7	Santa Rita 	10	Octubre	2023-10-19T00:00:00	2024-11-08T10:00:00	2	Temperatura media	17
123962	7	Sololá	704	Santa Lucía Utatlán 	7	Santa Rita 	10	Octubre	2023-10-19T00:00:00	2024-11-08T10:00:00	4	Temperatura máxima	18.1
123963	7	Sololá	704	Santa Lucía Utatlán 	7	Santa Rita 	10	Octubre	2023-10-19T00:00:00	2024-11-08T10:00:00	3	Temperatura mínima	17
123964	7	Sololá	704	Santa Lucía Utatlán 	7	Santa Rita 	10	Octubre	2023-10-19T00:00:00	2024-11-08T10:00:00	5	Humedad	95
123965	7	Sololá	704	Santa Lucía Utatlán 	7	Santa Rita 	10	Octubre	2023-10-19T00:00:00	2024-11-08T10:00:00	6	Velocidad del viento	1.6
123966	7	Sololá	704	Santa Lucía Utatlán 	7	Santa Rita 	10	Octubre	2023-10-19T00:00:00	2024-11-08T10:00:00	7	Dirección del viento	1.61
123967	7	Sololá	704	Santa Lucía Utatlán 	7	Santa Rita 	10	Octubre	2023-10-19T00:00:00	2024-11-08T10:00:00	1	Precipitación	0
123968	7	Sololá	704	Santa Lucía Utatlán 	7	Santa Rita 	10	Octubre	2023-10-19T00:00:00	2024-11-08T10:00:00	8	Radiación solar	585
123969	7	Sololá	704	Santa Lucía Utatlán 	7	Santa Rita 	10	Octubre	2023-10-19T00:00:00	2024-11-08T11:00:00	2	Temperatura media	16.6
123970	7	Sololá	704	Santa Lucía Utatlán 	7	Santa Rita 	10	Octubre	2023-10-19T00:00:00	2024-11-08T11:00:00	4	Temperatura máxima	17.1
123971	7	Sololá	704	Santa Lucía Utatlán 	7	Santa Rita 	10	Octubre	2023-10-19T00:00:00	2024-11-08T11:00:00	3	Temperatura mínima	16.6
123972	7	Sololá	704	Santa Lucía Utatlán 	7	Santa Rita 	10	Octubre	2023-10-19T00:00:00	2024-11-08T11:00:00	5	Humedad	96
123973	7	Sololá	704	Santa Lucía Utatlán 	7	Santa Rita 	10	Octubre	2023-10-19T00:00:00	2024-11-08T11:00:00	6	Velocidad del viento	3.2
123974	7	Sololá	704	Santa Lucía Utatlán 	7	Santa Rita 	10	Octubre	2023-10-19T00:00:00	2024-11-08T11:00:00	7	Dirección del viento	3.22
123975	7	Sololá	704	Santa Lucía Utatlán 	7	Santa Rita 	10	Octubre	2023-10-19T00:00:00	2024-11-08T11:00:00	1	Precipitación	0.2
123976	7	Sololá	704	Santa Lucía Utatlán 	7	Santa Rita 	10	Octubre	2023-10-19T00:00:00	2024-11-08T11:00:00	8	Radiación solar	781
123977	7	Sololá	704	Santa Lucía Utatlán 	7	Santa Rita 	10	Octubre	2023-10-19T00:00:00	2024-11-08T12:00:00	2	Temperatura media	16.1
123978	7	Sololá	704	Santa Lucía Utatlán 	7	Santa Rita 	10	Octubre	2023-10-19T00:00:00	2024-11-08T12:00:00	4	Temperatura máxima	16.7
123979	7	Sololá	704	Santa Lucía Utatlán 	7	Santa Rita 	10	Octubre	2023-10-19T00:00:00	2024-11-08T12:00:00	3	Temperatura mínima	16.1
123980	7	Sololá	704	Santa Lucía Utatlán 	7	Santa Rita 	10	Octubre	2023-10-19T00:00:00	2024-11-08T12:00:00	5	Humedad	95
123981	7	Sololá	704	Santa Lucía Utatlán 	7	Santa Rita 	10	Octubre	2023-10-19T00:00:00	2024-11-08T12:00:00	6	Velocidad del viento	1.6
123982	7	Sololá	704	Santa Lucía Utatlán 	7	Santa Rita 	10	Octubre	2023-10-19T00:00:00	2024-11-08T12:00:00	7	Dirección del viento	1.61
123983	7	Sololá	704	Santa Lucía Utatlán 	7	Santa Rita 	10	Octubre	2023-10-19T00:00:00	2024-11-08T12:00:00	1	Precipitación	0
123984	7	Sololá	704	Santa Lucía Utatlán 	7	Santa Rita 	10	Octubre	2023-10-19T00:00:00	2024-11-08T12:00:00	8	Radiación solar	827
123985	7	Sololá	704	Santa Lucía Utatlán 	7	Santa Rita 	10	Octubre	2023-10-19T00:00:00	2024-11-08T13:00:00	2	Temperatura media	16.1
123986	7	Sololá	704	Santa Lucía Utatlán 	7	Santa Rita 	10	Octubre	2023-10-19T00:00:00	2024-11-08T13:00:00	4	Temperatura máxima	16.2
123987	7	Sololá	704	Santa Lucía Utatlán 	7	Santa Rita 	10	Octubre	2023-10-19T00:00:00	2024-11-08T13:00:00	3	Temperatura mínima	15.8
123988	7	Sololá	704	Santa Lucía Utatlán 	7	Santa Rita 	10	Octubre	2023-10-19T00:00:00	2024-11-08T13:00:00	5	Humedad	94
123989	7	Sololá	704	Santa Lucía Utatlán 	7	Santa Rita 	10	Octubre	2023-10-19T00:00:00	2024-11-08T13:00:00	6	Velocidad del viento	4.8
123990	7	Sololá	704	Santa Lucía Utatlán 	7	Santa Rita 	10	Octubre	2023-10-19T00:00:00	2024-11-08T13:00:00	7	Dirección del viento	4.83
123991	7	Sololá	704	Santa Lucía Utatlán 	7	Santa Rita 	10	Octubre	2023-10-19T00:00:00	2024-11-08T13:00:00	1	Precipitación	0
123992	7	Sololá	704	Santa Lucía Utatlán 	7	Santa Rita 	10	Octubre	2023-10-19T00:00:00	2024-11-08T13:00:00	8	Radiación solar	834
123993	7	Sololá	704	Santa Lucía Utatlán 	7	Santa Rita 	10	Octubre	2023-10-19T00:00:00	2024-11-08T14:00:00	2	Temperatura media	15.9
123994	7	Sololá	704	Santa Lucía Utatlán 	7	Santa Rita 	10	Octubre	2023-10-19T00:00:00	2024-11-08T14:00:00	4	Temperatura máxima	16.3
123995	7	Sololá	704	Santa Lucía Utatlán 	7	Santa Rita 	10	Octubre	2023-10-19T00:00:00	2024-11-08T14:00:00	3	Temperatura mínima	15.9
123996	7	Sololá	704	Santa Lucía Utatlán 	7	Santa Rita 	10	Octubre	2023-10-19T00:00:00	2024-11-08T14:00:00	5	Humedad	94
123997	7	Sololá	704	Santa Lucía Utatlán 	7	Santa Rita 	10	Octubre	2023-10-19T00:00:00	2024-11-08T14:00:00	6	Velocidad del viento	3.2
123998	7	Sololá	704	Santa Lucía Utatlán 	7	Santa Rita 	10	Octubre	2023-10-19T00:00:00	2024-11-08T14:00:00	7	Dirección del viento	3.22
123999	7	Sololá	704	Santa Lucía Utatlán 	7	Santa Rita 	10	Octubre	2023-10-19T00:00:00	2024-11-08T14:00:00	1	Precipitación	0
124000	7	Sololá	704	Santa Lucía Utatlán 	7	Santa Rita 	10	Octubre	2023-10-19T00:00:00	2024-11-08T14:00:00	8	Radiación solar	315
124001	7	Sololá	704	Santa Lucía Utatlán 	7	Santa Rita 	10	Octubre	2023-10-19T00:00:00	2024-11-08T15:00:00	2	Temperatura media	16.3
124002	7	Sololá	704	Santa Lucía Utatlán 	7	Santa Rita 	10	Octubre	2023-10-19T00:00:00	2024-11-08T15:00:00	4	Temperatura máxima	16.3
124003	7	Sololá	704	Santa Lucía Utatlán 	7	Santa Rita 	10	Octubre	2023-10-19T00:00:00	2024-11-08T15:00:00	3	Temperatura mínima	15.9
124004	7	Sololá	704	Santa Lucía Utatlán 	7	Santa Rita 	10	Octubre	2023-10-19T00:00:00	2024-11-08T15:00:00	5	Humedad	92
124005	7	Sololá	704	Santa Lucía Utatlán 	7	Santa Rita 	10	Octubre	2023-10-19T00:00:00	2024-11-08T15:00:00	6	Velocidad del viento	4.8
124006	7	Sololá	704	Santa Lucía Utatlán 	7	Santa Rita 	10	Octubre	2023-10-19T00:00:00	2024-11-08T15:00:00	7	Dirección del viento	4.83
124007	7	Sololá	704	Santa Lucía Utatlán 	7	Santa Rita 	10	Octubre	2023-10-19T00:00:00	2024-11-08T15:00:00	1	Precipitación	0
124008	7	Sololá	704	Santa Lucía Utatlán 	7	Santa Rita 	10	Octubre	2023-10-19T00:00:00	2024-11-08T15:00:00	8	Radiación solar	197
124009	7	Sololá	704	Santa Lucía Utatlán 	7	Santa Rita 	10	Octubre	2023-10-19T00:00:00	2024-11-08T16:00:00	2	Temperatura media	19
124010	7	Sololá	704	Santa Lucía Utatlán 	7	Santa Rita 	10	Octubre	2023-10-19T00:00:00	2024-11-08T16:00:00	4	Temperatura máxima	19
124011	7	Sololá	704	Santa Lucía Utatlán 	7	Santa Rita 	10	Octubre	2023-10-19T00:00:00	2024-11-08T16:00:00	3	Temperatura mínima	16.3
124012	7	Sololá	704	Santa Lucía Utatlán 	7	Santa Rita 	10	Octubre	2023-10-19T00:00:00	2024-11-08T16:00:00	5	Humedad	87
124013	7	Sololá	704	Santa Lucía Utatlán 	7	Santa Rita 	10	Octubre	2023-10-19T00:00:00	2024-11-08T16:00:00	6	Velocidad del viento	3.2
124014	7	Sololá	704	Santa Lucía Utatlán 	7	Santa Rita 	10	Octubre	2023-10-19T00:00:00	2024-11-08T16:00:00	7	Dirección del viento	3.22
124015	7	Sololá	704	Santa Lucía Utatlán 	7	Santa Rita 	10	Octubre	2023-10-19T00:00:00	2024-11-08T16:00:00	1	Precipitación	0
124016	7	Sololá	704	Santa Lucía Utatlán 	7	Santa Rita 	10	Octubre	2023-10-19T00:00:00	2024-11-08T16:00:00	8	Radiación solar	118
124017	7	Sololá	704	Santa Lucía Utatlán 	7	Santa Rita 	10	Octubre	2023-10-19T00:00:00	2024-11-08T17:00:00	2	Temperatura media	22.4
124018	7	Sololá	704	Santa Lucía Utatlán 	7	Santa Rita 	10	Octubre	2023-10-19T00:00:00	2024-11-08T17:00:00	4	Temperatura máxima	22.4
124019	7	Sololá	704	Santa Lucía Utatlán 	7	Santa Rita 	10	Octubre	2023-10-19T00:00:00	2024-11-08T17:00:00	3	Temperatura mínima	19
124020	7	Sololá	704	Santa Lucía Utatlán 	7	Santa Rita 	10	Octubre	2023-10-19T00:00:00	2024-11-08T17:00:00	5	Humedad	72
124021	7	Sololá	704	Santa Lucía Utatlán 	7	Santa Rita 	10	Octubre	2023-10-19T00:00:00	2024-11-08T17:00:00	6	Velocidad del viento	3.2
124022	7	Sololá	704	Santa Lucía Utatlán 	7	Santa Rita 	10	Octubre	2023-10-19T00:00:00	2024-11-08T17:00:00	7	Dirección del viento	3.22
124023	7	Sololá	704	Santa Lucía Utatlán 	7	Santa Rita 	10	Octubre	2023-10-19T00:00:00	2024-11-08T17:00:00	1	Precipitación	0
124024	7	Sololá	704	Santa Lucía Utatlán 	7	Santa Rita 	10	Octubre	2023-10-19T00:00:00	2024-11-08T17:00:00	8	Radiación solar	0
124025	7	Sololá	704	Santa Lucía Utatlán 	7	Santa Rita 	10	Octubre	2023-10-19T00:00:00	2024-11-08T18:00:00	2	Temperatura media	23.8
124026	7	Sololá	704	Santa Lucía Utatlán 	7	Santa Rita 	10	Octubre	2023-10-19T00:00:00	2024-11-08T18:00:00	4	Temperatura máxima	23.8
124027	7	Sololá	704	Santa Lucía Utatlán 	7	Santa Rita 	10	Octubre	2023-10-19T00:00:00	2024-11-08T18:00:00	3	Temperatura mínima	22.4
124028	7	Sololá	704	Santa Lucía Utatlán 	7	Santa Rita 	10	Octubre	2023-10-19T00:00:00	2024-11-08T18:00:00	5	Humedad	74
124029	7	Sololá	704	Santa Lucía Utatlán 	7	Santa Rita 	10	Octubre	2023-10-19T00:00:00	2024-11-08T18:00:00	6	Velocidad del viento	4.8
124030	7	Sololá	704	Santa Lucía Utatlán 	7	Santa Rita 	10	Octubre	2023-10-19T00:00:00	2024-11-08T18:00:00	7	Dirección del viento	4.83
124031	7	Sololá	704	Santa Lucía Utatlán 	7	Santa Rita 	10	Octubre	2023-10-19T00:00:00	2024-11-08T18:00:00	1	Precipitación	0
124032	7	Sololá	704	Santa Lucía Utatlán 	7	Santa Rita 	10	Octubre	2023-10-19T00:00:00	2024-11-08T18:00:00	8	Radiación solar	0
124033	7	Sololá	704	Santa Lucía Utatlán 	7	Santa Rita 	10	Octubre	2023-10-19T00:00:00	2024-11-08T19:00:00	2	Temperatura media	25.2
124034	7	Sololá	704	Santa Lucía Utatlán 	7	Santa Rita 	10	Octubre	2023-10-19T00:00:00	2024-11-08T19:00:00	4	Temperatura máxima	25.5
124035	7	Sololá	704	Santa Lucía Utatlán 	7	Santa Rita 	10	Octubre	2023-10-19T00:00:00	2024-11-08T19:00:00	3	Temperatura mínima	23.8
124036	7	Sololá	704	Santa Lucía Utatlán 	7	Santa Rita 	10	Octubre	2023-10-19T00:00:00	2024-11-08T19:00:00	5	Humedad	69
124037	7	Sololá	704	Santa Lucía Utatlán 	7	Santa Rita 	10	Octubre	2023-10-19T00:00:00	2024-11-08T19:00:00	6	Velocidad del viento	4.8
124038	7	Sololá	704	Santa Lucía Utatlán 	7	Santa Rita 	10	Octubre	2023-10-19T00:00:00	2024-11-08T19:00:00	7	Dirección del viento	4.83
124039	7	Sololá	704	Santa Lucía Utatlán 	7	Santa Rita 	10	Octubre	2023-10-19T00:00:00	2024-11-08T19:00:00	1	Precipitación	0
124040	7	Sololá	704	Santa Lucía Utatlán 	7	Santa Rita 	10	Octubre	2023-10-19T00:00:00	2024-11-08T19:00:00	8	Radiación solar	0
124041	7	Sololá	704	Santa Lucía Utatlán 	7	Santa Rita 	10	Octubre	2023-10-19T00:00:00	2024-11-08T20:00:00	2	Temperatura media	23.8
124042	7	Sololá	704	Santa Lucía Utatlán 	7	Santa Rita 	10	Octubre	2023-10-19T00:00:00	2024-11-08T20:00:00	4	Temperatura máxima	25.2
124043	7	Sololá	704	Santa Lucía Utatlán 	7	Santa Rita 	10	Octubre	2023-10-19T00:00:00	2024-11-08T20:00:00	3	Temperatura mínima	23.7
124044	7	Sololá	704	Santa Lucía Utatlán 	7	Santa Rita 	10	Octubre	2023-10-19T00:00:00	2024-11-08T20:00:00	5	Humedad	77
124045	7	Sololá	704	Santa Lucía Utatlán 	7	Santa Rita 	10	Octubre	2023-10-19T00:00:00	2024-11-08T20:00:00	6	Velocidad del viento	8
124046	7	Sololá	704	Santa Lucía Utatlán 	7	Santa Rita 	10	Octubre	2023-10-19T00:00:00	2024-11-08T20:00:00	7	Dirección del viento	8.05
124047	7	Sololá	704	Santa Lucía Utatlán 	7	Santa Rita 	10	Octubre	2023-10-19T00:00:00	2024-11-08T20:00:00	1	Precipitación	0
124048	7	Sololá	704	Santa Lucía Utatlán 	7	Santa Rita 	10	Octubre	2023-10-19T00:00:00	2024-11-08T20:00:00	8	Radiación solar	0
124049	7	Sololá	704	Santa Lucía Utatlán 	7	Santa Rita 	10	Octubre	2023-10-19T00:00:00	2024-11-08T21:00:00	2	Temperatura media	24.4
124050	7	Sololá	704	Santa Lucía Utatlán 	7	Santa Rita 	10	Octubre	2023-10-19T00:00:00	2024-11-08T21:00:00	4	Temperatura máxima	24.6
124051	7	Sololá	704	Santa Lucía Utatlán 	7	Santa Rita 	10	Octubre	2023-10-19T00:00:00	2024-11-08T21:00:00	3	Temperatura mínima	23.8
124052	7	Sololá	704	Santa Lucía Utatlán 	7	Santa Rita 	10	Octubre	2023-10-19T00:00:00	2024-11-08T21:00:00	5	Humedad	78
124053	7	Sololá	704	Santa Lucía Utatlán 	7	Santa Rita 	10	Octubre	2023-10-19T00:00:00	2024-11-08T21:00:00	6	Velocidad del viento	8
124054	7	Sololá	704	Santa Lucía Utatlán 	7	Santa Rita 	10	Octubre	2023-10-19T00:00:00	2024-11-08T21:00:00	7	Dirección del viento	8.05
124055	7	Sololá	704	Santa Lucía Utatlán 	7	Santa Rita 	10	Octubre	2023-10-19T00:00:00	2024-11-08T21:00:00	1	Precipitación	0
124056	7	Sololá	704	Santa Lucía Utatlán 	7	Santa Rita 	10	Octubre	2023-10-19T00:00:00	2024-11-08T21:00:00	8	Radiación solar	0
124057	7	Sololá	704	Santa Lucía Utatlán 	7	Santa Rita 	10	Octubre	2023-10-19T00:00:00	2024-11-08T22:00:00	2	Temperatura media	22.6
124058	7	Sololá	704	Santa Lucía Utatlán 	7	Santa Rita 	10	Octubre	2023-10-19T00:00:00	2024-11-08T22:00:00	4	Temperatura máxima	24.4
124059	7	Sololá	704	Santa Lucía Utatlán 	7	Santa Rita 	10	Octubre	2023-10-19T00:00:00	2024-11-08T22:00:00	3	Temperatura mínima	22.5
124060	7	Sololá	704	Santa Lucía Utatlán 	7	Santa Rita 	10	Octubre	2023-10-19T00:00:00	2024-11-08T22:00:00	5	Humedad	84
124061	7	Sololá	704	Santa Lucía Utatlán 	7	Santa Rita 	10	Octubre	2023-10-19T00:00:00	2024-11-08T22:00:00	6	Velocidad del viento	8
124062	7	Sololá	704	Santa Lucía Utatlán 	7	Santa Rita 	10	Octubre	2023-10-19T00:00:00	2024-11-08T22:00:00	7	Dirección del viento	8.05
124063	7	Sololá	704	Santa Lucía Utatlán 	7	Santa Rita 	10	Octubre	2023-10-19T00:00:00	2024-11-08T22:00:00	1	Precipitación	0
124064	7	Sololá	704	Santa Lucía Utatlán 	7	Santa Rita 	10	Octubre	2023-10-19T00:00:00	2024-11-08T22:00:00	8	Radiación solar	0
124065	7	Sololá	704	Santa Lucía Utatlán 	7	Santa Rita 	10	Octubre	2023-10-19T00:00:00	2024-11-08T23:00:00	2	Temperatura media	22
124066	7	Sololá	704	Santa Lucía Utatlán 	7	Santa Rita 	10	Octubre	2023-10-19T00:00:00	2024-11-08T23:00:00	4	Temperatura máxima	23.1
124067	7	Sololá	704	Santa Lucía Utatlán 	7	Santa Rita 	10	Octubre	2023-10-19T00:00:00	2024-11-08T23:00:00	3	Temperatura mínima	22
124068	7	Sololá	704	Santa Lucía Utatlán 	7	Santa Rita 	10	Octubre	2023-10-19T00:00:00	2024-11-08T23:00:00	5	Humedad	85
124069	7	Sololá	704	Santa Lucía Utatlán 	7	Santa Rita 	10	Octubre	2023-10-19T00:00:00	2024-11-08T23:00:00	6	Velocidad del viento	4.8
124070	7	Sololá	704	Santa Lucía Utatlán 	7	Santa Rita 	10	Octubre	2023-10-19T00:00:00	2024-11-08T23:00:00	7	Dirección del viento	4.83
124071	7	Sololá	704	Santa Lucía Utatlán 	7	Santa Rita 	10	Octubre	2023-10-19T00:00:00	2024-11-08T23:00:00	1	Precipitación	0
124072	7	Sololá	704	Santa Lucía Utatlán 	7	Santa Rita 	10	Octubre	2023-10-19T00:00:00	2024-11-08T23:00:00	8	Radiación solar	0
124073	7	Sololá	704	Santa Lucía Utatlán 	7	Santa Rita 	10	Octubre	2023-10-20T00:00:00	2024-11-08T00:00:00	2	Temperatura media	21.4
124074	7	Sololá	704	Santa Lucía Utatlán 	7	Santa Rita 	10	Octubre	2023-10-20T00:00:00	2024-11-08T00:00:00	4	Temperatura máxima	22
124075	7	Sololá	704	Santa Lucía Utatlán 	7	Santa Rita 	10	Octubre	2023-10-20T00:00:00	2024-11-08T00:00:00	3	Temperatura mínima	21
124076	7	Sololá	704	Santa Lucía Utatlán 	7	Santa Rita 	10	Octubre	2023-10-20T00:00:00	2024-11-08T00:00:00	5	Humedad	87
124077	7	Sololá	704	Santa Lucía Utatlán 	7	Santa Rita 	10	Octubre	2023-10-20T00:00:00	2024-11-08T00:00:00	6	Velocidad del viento	4.8
124078	7	Sololá	704	Santa Lucía Utatlán 	7	Santa Rita 	10	Octubre	2023-10-20T00:00:00	2024-11-08T00:00:00	7	Dirección del viento	4.83
124079	7	Sololá	704	Santa Lucía Utatlán 	7	Santa Rita 	10	Octubre	2023-10-20T00:00:00	2024-11-08T00:00:00	1	Precipitación	0
124080	7	Sololá	704	Santa Lucía Utatlán 	7	Santa Rita 	10	Octubre	2023-10-20T00:00:00	2024-11-08T00:00:00	8	Radiación solar	0
124081	7	Sololá	704	Santa Lucía Utatlán 	7	Santa Rita 	10	Octubre	2023-10-20T00:00:00	2024-11-08T01:00:00	2	Temperatura media	15.6
124082	7	Sololá	704	Santa Lucía Utatlán 	7	Santa Rita 	10	Octubre	2023-10-20T00:00:00	2024-11-08T01:00:00	4	Temperatura máxima	16.4
124083	7	Sololá	704	Santa Lucía Utatlán 	7	Santa Rita 	10	Octubre	2023-10-20T00:00:00	2024-11-08T01:00:00	3	Temperatura mínima	15.6
124084	7	Sololá	704	Santa Lucía Utatlán 	7	Santa Rita 	10	Octubre	2023-10-20T00:00:00	2024-11-08T01:00:00	5	Humedad	75
124085	7	Sololá	704	Santa Lucía Utatlán 	7	Santa Rita 	10	Octubre	2023-10-20T00:00:00	2024-11-08T01:00:00	6	Velocidad del viento	3.2
124086	7	Sololá	704	Santa Lucía Utatlán 	7	Santa Rita 	10	Octubre	2023-10-20T00:00:00	2024-11-08T01:00:00	7	Dirección del viento	3.22
124087	7	Sololá	704	Santa Lucía Utatlán 	7	Santa Rita 	10	Octubre	2023-10-20T00:00:00	2024-11-08T01:00:00	1	Precipitación	0
124088	7	Sololá	704	Santa Lucía Utatlán 	7	Santa Rita 	10	Octubre	2023-10-20T00:00:00	2024-11-08T01:00:00	8	Radiación solar	0
124089	7	Sololá	704	Santa Lucía Utatlán 	7	Santa Rita 	10	Octubre	2023-10-20T00:00:00	2024-11-08T02:00:00	2	Temperatura media	15
124090	7	Sololá	704	Santa Lucía Utatlán 	7	Santa Rita 	10	Octubre	2023-10-20T00:00:00	2024-11-08T02:00:00	4	Temperatura máxima	15.9
124091	7	Sololá	704	Santa Lucía Utatlán 	7	Santa Rita 	10	Octubre	2023-10-20T00:00:00	2024-11-08T02:00:00	3	Temperatura mínima	14.9
124092	7	Sololá	704	Santa Lucía Utatlán 	7	Santa Rita 	10	Octubre	2023-10-20T00:00:00	2024-11-08T02:00:00	5	Humedad	74
124093	7	Sololá	704	Santa Lucía Utatlán 	7	Santa Rita 	10	Octubre	2023-10-20T00:00:00	2024-11-08T02:00:00	6	Velocidad del viento	3.2
124094	7	Sololá	704	Santa Lucía Utatlán 	7	Santa Rita 	10	Octubre	2023-10-20T00:00:00	2024-11-08T02:00:00	7	Dirección del viento	3.22
124095	7	Sololá	704	Santa Lucía Utatlán 	7	Santa Rita 	10	Octubre	2023-10-20T00:00:00	2024-11-08T02:00:00	1	Precipitación	0
124096	7	Sololá	704	Santa Lucía Utatlán 	7	Santa Rita 	10	Octubre	2023-10-20T00:00:00	2024-11-08T02:00:00	8	Radiación solar	0
124097	7	Sololá	704	Santa Lucía Utatlán 	7	Santa Rita 	10	Octubre	2023-10-20T00:00:00	2024-11-08T03:00:00	2	Temperatura media	18.7
124098	7	Sololá	704	Santa Lucía Utatlán 	7	Santa Rita 	10	Octubre	2023-10-20T00:00:00	2024-11-08T03:00:00	4	Temperatura máxima	20.7
124099	7	Sololá	704	Santa Lucía Utatlán 	7	Santa Rita 	10	Octubre	2023-10-20T00:00:00	2024-11-08T03:00:00	3	Temperatura mínima	18.7
124100	7	Sololá	704	Santa Lucía Utatlán 	7	Santa Rita 	10	Octubre	2023-10-20T00:00:00	2024-11-08T03:00:00	5	Humedad	91
124101	7	Sololá	704	Santa Lucía Utatlán 	7	Santa Rita 	10	Octubre	2023-10-20T00:00:00	2024-11-08T03:00:00	6	Velocidad del viento	1.6
124102	7	Sololá	704	Santa Lucía Utatlán 	7	Santa Rita 	10	Octubre	2023-10-20T00:00:00	2024-11-08T03:00:00	7	Dirección del viento	1.61
124103	7	Sololá	704	Santa Lucía Utatlán 	7	Santa Rita 	10	Octubre	2023-10-20T00:00:00	2024-11-08T03:00:00	1	Precipitación	0
124104	7	Sololá	704	Santa Lucía Utatlán 	7	Santa Rita 	10	Octubre	2023-10-20T00:00:00	2024-11-08T03:00:00	8	Radiación solar	0
124105	7	Sololá	704	Santa Lucía Utatlán 	7	Santa Rita 	10	Octubre	2023-10-20T00:00:00	2024-11-08T04:00:00	2	Temperatura media	17.7
124106	7	Sololá	704	Santa Lucía Utatlán 	7	Santa Rita 	10	Octubre	2023-10-20T00:00:00	2024-11-08T04:00:00	4	Temperatura máxima	18.7
124107	7	Sololá	704	Santa Lucía Utatlán 	7	Santa Rita 	10	Octubre	2023-10-20T00:00:00	2024-11-08T04:00:00	3	Temperatura mínima	17.7
124108	7	Sololá	704	Santa Lucía Utatlán 	7	Santa Rita 	10	Octubre	2023-10-20T00:00:00	2024-11-08T04:00:00	5	Humedad	93
124109	7	Sololá	704	Santa Lucía Utatlán 	7	Santa Rita 	10	Octubre	2023-10-20T00:00:00	2024-11-08T04:00:00	6	Velocidad del viento	3.2
124110	7	Sololá	704	Santa Lucía Utatlán 	7	Santa Rita 	10	Octubre	2023-10-20T00:00:00	2024-11-08T04:00:00	7	Dirección del viento	3.22
124111	7	Sololá	704	Santa Lucía Utatlán 	7	Santa Rita 	10	Octubre	2023-10-20T00:00:00	2024-11-08T04:00:00	1	Precipitación	0
124112	7	Sololá	704	Santa Lucía Utatlán 	7	Santa Rita 	10	Octubre	2023-10-20T00:00:00	2024-11-08T04:00:00	8	Radiación solar	0
124113	7	Sololá	704	Santa Lucía Utatlán 	7	Santa Rita 	10	Octubre	2023-10-20T00:00:00	2024-11-08T05:00:00	2	Temperatura media	17.9
124114	7	Sololá	704	Santa Lucía Utatlán 	7	Santa Rita 	10	Octubre	2023-10-20T00:00:00	2024-11-08T05:00:00	4	Temperatura máxima	18
124115	7	Sololá	704	Santa Lucía Utatlán 	7	Santa Rita 	10	Octubre	2023-10-20T00:00:00	2024-11-08T05:00:00	3	Temperatura mínima	17.6
124116	7	Sololá	704	Santa Lucía Utatlán 	7	Santa Rita 	10	Octubre	2023-10-20T00:00:00	2024-11-08T05:00:00	5	Humedad	93
124117	7	Sololá	704	Santa Lucía Utatlán 	7	Santa Rita 	10	Octubre	2023-10-20T00:00:00	2024-11-08T05:00:00	6	Velocidad del viento	1.6
124118	7	Sololá	704	Santa Lucía Utatlán 	7	Santa Rita 	10	Octubre	2023-10-20T00:00:00	2024-11-08T05:00:00	7	Dirección del viento	1.61
124119	7	Sololá	704	Santa Lucía Utatlán 	7	Santa Rita 	10	Octubre	2023-10-20T00:00:00	2024-11-08T05:00:00	1	Precipitación	0
124120	7	Sololá	704	Santa Lucía Utatlán 	7	Santa Rita 	10	Octubre	2023-10-20T00:00:00	2024-11-08T05:00:00	8	Radiación solar	0
124121	7	Sololá	704	Santa Lucía Utatlán 	7	Santa Rita 	10	Octubre	2023-10-20T00:00:00	2024-11-08T06:00:00	2	Temperatura media	17.1
124122	7	Sololá	704	Santa Lucía Utatlán 	7	Santa Rita 	10	Octubre	2023-10-20T00:00:00	2024-11-08T06:00:00	4	Temperatura máxima	17.9
124123	7	Sololá	704	Santa Lucía Utatlán 	7	Santa Rita 	10	Octubre	2023-10-20T00:00:00	2024-11-08T06:00:00	3	Temperatura mínima	17.1
124124	7	Sololá	704	Santa Lucía Utatlán 	7	Santa Rita 	10	Octubre	2023-10-20T00:00:00	2024-11-08T06:00:00	5	Humedad	93
124125	7	Sololá	704	Santa Lucía Utatlán 	7	Santa Rita 	10	Octubre	2023-10-20T00:00:00	2024-11-08T06:00:00	6	Velocidad del viento	1.6
124126	7	Sololá	704	Santa Lucía Utatlán 	7	Santa Rita 	10	Octubre	2023-10-20T00:00:00	2024-11-08T06:00:00	7	Dirección del viento	1.61
124127	7	Sololá	704	Santa Lucía Utatlán 	7	Santa Rita 	10	Octubre	2023-10-20T00:00:00	2024-11-08T06:00:00	1	Precipitación	0
124128	7	Sololá	704	Santa Lucía Utatlán 	7	Santa Rita 	10	Octubre	2023-10-20T00:00:00	2024-11-08T06:00:00	8	Radiación solar	0
124129	7	Sololá	704	Santa Lucía Utatlán 	7	Santa Rita 	10	Octubre	2023-10-20T00:00:00	2024-11-08T07:00:00	2	Temperatura media	16.5
124130	7	Sololá	704	Santa Lucía Utatlán 	7	Santa Rita 	10	Octubre	2023-10-20T00:00:00	2024-11-08T07:00:00	4	Temperatura máxima	17.1
124131	7	Sololá	704	Santa Lucía Utatlán 	7	Santa Rita 	10	Octubre	2023-10-20T00:00:00	2024-11-08T07:00:00	3	Temperatura mínima	16.5
124132	7	Sololá	704	Santa Lucía Utatlán 	7	Santa Rita 	10	Octubre	2023-10-20T00:00:00	2024-11-08T07:00:00	5	Humedad	93
124133	7	Sololá	704	Santa Lucía Utatlán 	7	Santa Rita 	10	Octubre	2023-10-20T00:00:00	2024-11-08T07:00:00	6	Velocidad del viento	3.2
124134	7	Sololá	704	Santa Lucía Utatlán 	7	Santa Rita 	10	Octubre	2023-10-20T00:00:00	2024-11-08T07:00:00	7	Dirección del viento	3.22
124135	7	Sololá	704	Santa Lucía Utatlán 	7	Santa Rita 	10	Octubre	2023-10-20T00:00:00	2024-11-08T07:00:00	1	Precipitación	0
124136	7	Sololá	704	Santa Lucía Utatlán 	7	Santa Rita 	10	Octubre	2023-10-20T00:00:00	2024-11-08T07:00:00	8	Radiación solar	18
124137	7	Sololá	704	Santa Lucía Utatlán 	7	Santa Rita 	10	Octubre	2023-10-20T00:00:00	2024-11-08T08:00:00	2	Temperatura media	16.3
124138	7	Sololá	704	Santa Lucía Utatlán 	7	Santa Rita 	10	Octubre	2023-10-20T00:00:00	2024-11-08T08:00:00	4	Temperatura máxima	16.6
124139	7	Sololá	704	Santa Lucía Utatlán 	7	Santa Rita 	10	Octubre	2023-10-20T00:00:00	2024-11-08T08:00:00	3	Temperatura mínima	16.3
124140	7	Sololá	704	Santa Lucía Utatlán 	7	Santa Rita 	10	Octubre	2023-10-20T00:00:00	2024-11-08T08:00:00	5	Humedad	93
124141	7	Sololá	704	Santa Lucía Utatlán 	7	Santa Rita 	10	Octubre	2023-10-20T00:00:00	2024-11-08T08:00:00	6	Velocidad del viento	4.8
124142	7	Sololá	704	Santa Lucía Utatlán 	7	Santa Rita 	10	Octubre	2023-10-20T00:00:00	2024-11-08T08:00:00	7	Dirección del viento	4.83
124143	7	Sololá	704	Santa Lucía Utatlán 	7	Santa Rita 	10	Octubre	2023-10-20T00:00:00	2024-11-08T08:00:00	1	Precipitación	0
124144	7	Sololá	704	Santa Lucía Utatlán 	7	Santa Rita 	10	Octubre	2023-10-20T00:00:00	2024-11-08T08:00:00	8	Radiación solar	237
124145	7	Sololá	704	Santa Lucía Utatlán 	7	Santa Rita 	10	Octubre	2023-10-20T00:00:00	2024-11-08T09:00:00	2	Temperatura media	16.1
124146	7	Sololá	704	Santa Lucía Utatlán 	7	Santa Rita 	10	Octubre	2023-10-20T00:00:00	2024-11-08T09:00:00	4	Temperatura máxima	16.4
124147	7	Sololá	704	Santa Lucía Utatlán 	7	Santa Rita 	10	Octubre	2023-10-20T00:00:00	2024-11-08T09:00:00	3	Temperatura mínima	16.1
124148	7	Sololá	704	Santa Lucía Utatlán 	7	Santa Rita 	10	Octubre	2023-10-20T00:00:00	2024-11-08T09:00:00	5	Humedad	94
124149	7	Sololá	704	Santa Lucía Utatlán 	7	Santa Rita 	10	Octubre	2023-10-20T00:00:00	2024-11-08T09:00:00	6	Velocidad del viento	4.8
124150	7	Sololá	704	Santa Lucía Utatlán 	7	Santa Rita 	10	Octubre	2023-10-20T00:00:00	2024-11-08T09:00:00	7	Dirección del viento	4.83
124151	7	Sololá	704	Santa Lucía Utatlán 	7	Santa Rita 	10	Octubre	2023-10-20T00:00:00	2024-11-08T09:00:00	1	Precipitación	0
124152	7	Sololá	704	Santa Lucía Utatlán 	7	Santa Rita 	10	Octubre	2023-10-20T00:00:00	2024-11-08T09:00:00	8	Radiación solar	325
124153	7	Sololá	704	Santa Lucía Utatlán 	7	Santa Rita 	10	Octubre	2023-10-20T00:00:00	2024-11-08T10:00:00	2	Temperatura media	15.9
124154	7	Sololá	704	Santa Lucía Utatlán 	7	Santa Rita 	10	Octubre	2023-10-20T00:00:00	2024-11-08T10:00:00	4	Temperatura máxima	16.2
124155	7	Sololá	704	Santa Lucía Utatlán 	7	Santa Rita 	10	Octubre	2023-10-20T00:00:00	2024-11-08T10:00:00	3	Temperatura mínima	15.8
124156	7	Sololá	704	Santa Lucía Utatlán 	7	Santa Rita 	10	Octubre	2023-10-20T00:00:00	2024-11-08T10:00:00	5	Humedad	93
124157	7	Sololá	704	Santa Lucía Utatlán 	7	Santa Rita 	10	Octubre	2023-10-20T00:00:00	2024-11-08T10:00:00	6	Velocidad del viento	3.2
124158	7	Sololá	704	Santa Lucía Utatlán 	7	Santa Rita 	10	Octubre	2023-10-20T00:00:00	2024-11-08T10:00:00	7	Dirección del viento	3.22
124159	7	Sololá	704	Santa Lucía Utatlán 	7	Santa Rita 	10	Octubre	2023-10-20T00:00:00	2024-11-08T10:00:00	1	Precipitación	0
124160	7	Sololá	704	Santa Lucía Utatlán 	7	Santa Rita 	10	Octubre	2023-10-20T00:00:00	2024-11-08T10:00:00	8	Radiación solar	499
124161	7	Sololá	704	Santa Lucía Utatlán 	7	Santa Rita 	10	Octubre	2023-10-20T00:00:00	2024-11-08T11:00:00	2	Temperatura media	15.7
124162	7	Sololá	704	Santa Lucía Utatlán 	7	Santa Rita 	10	Octubre	2023-10-20T00:00:00	2024-11-08T11:00:00	4	Temperatura máxima	15.9
124163	7	Sololá	704	Santa Lucía Utatlán 	7	Santa Rita 	10	Octubre	2023-10-20T00:00:00	2024-11-08T11:00:00	3	Temperatura mínima	15.7
124164	7	Sololá	704	Santa Lucía Utatlán 	7	Santa Rita 	10	Octubre	2023-10-20T00:00:00	2024-11-08T11:00:00	5	Humedad	92
124165	7	Sololá	704	Santa Lucía Utatlán 	7	Santa Rita 	10	Octubre	2023-10-20T00:00:00	2024-11-08T11:00:00	6	Velocidad del viento	4.8
124166	7	Sololá	704	Santa Lucía Utatlán 	7	Santa Rita 	10	Octubre	2023-10-20T00:00:00	2024-11-08T11:00:00	7	Dirección del viento	4.83
124167	7	Sololá	704	Santa Lucía Utatlán 	7	Santa Rita 	10	Octubre	2023-10-20T00:00:00	2024-11-08T11:00:00	1	Precipitación	0
124168	7	Sololá	704	Santa Lucía Utatlán 	7	Santa Rita 	10	Octubre	2023-10-20T00:00:00	2024-11-08T11:00:00	8	Radiación solar	320
124169	7	Sololá	704	Santa Lucía Utatlán 	7	Santa Rita 	10	Octubre	2023-10-20T00:00:00	2024-11-08T12:00:00	2	Temperatura media	15.7
124170	7	Sololá	704	Santa Lucía Utatlán 	7	Santa Rita 	10	Octubre	2023-10-20T00:00:00	2024-11-08T12:00:00	4	Temperatura máxima	15.8
124171	7	Sololá	704	Santa Lucía Utatlán 	7	Santa Rita 	10	Octubre	2023-10-20T00:00:00	2024-11-08T12:00:00	3	Temperatura mínima	15.6
124172	7	Sololá	704	Santa Lucía Utatlán 	7	Santa Rita 	10	Octubre	2023-10-20T00:00:00	2024-11-08T12:00:00	5	Humedad	92
124173	7	Sololá	704	Santa Lucía Utatlán 	7	Santa Rita 	10	Octubre	2023-10-20T00:00:00	2024-11-08T12:00:00	6	Velocidad del viento	4.8
124174	7	Sololá	704	Santa Lucía Utatlán 	7	Santa Rita 	10	Octubre	2023-10-20T00:00:00	2024-11-08T12:00:00	7	Dirección del viento	4.83
124175	7	Sololá	704	Santa Lucía Utatlán 	7	Santa Rita 	10	Octubre	2023-10-20T00:00:00	2024-11-08T12:00:00	1	Precipitación	0
124176	7	Sololá	704	Santa Lucía Utatlán 	7	Santa Rita 	10	Octubre	2023-10-20T00:00:00	2024-11-08T12:00:00	8	Radiación solar	483
124177	7	Sololá	704	Santa Lucía Utatlán 	7	Santa Rita 	10	Octubre	2023-10-20T00:00:00	2024-11-08T13:00:00	2	Temperatura media	16.3
124178	7	Sololá	704	Santa Lucía Utatlán 	7	Santa Rita 	10	Octubre	2023-10-20T00:00:00	2024-11-08T13:00:00	4	Temperatura máxima	16.3
124179	7	Sololá	704	Santa Lucía Utatlán 	7	Santa Rita 	10	Octubre	2023-10-20T00:00:00	2024-11-08T13:00:00	3	Temperatura mínima	15.7
124180	7	Sololá	704	Santa Lucía Utatlán 	7	Santa Rita 	10	Octubre	2023-10-20T00:00:00	2024-11-08T13:00:00	5	Humedad	90
124181	7	Sololá	704	Santa Lucía Utatlán 	7	Santa Rita 	10	Octubre	2023-10-20T00:00:00	2024-11-08T13:00:00	6	Velocidad del viento	4.8
124182	7	Sololá	704	Santa Lucía Utatlán 	7	Santa Rita 	10	Octubre	2023-10-20T00:00:00	2024-11-08T13:00:00	7	Dirección del viento	4.83
124183	7	Sololá	704	Santa Lucía Utatlán 	7	Santa Rita 	10	Octubre	2023-10-20T00:00:00	2024-11-08T13:00:00	1	Precipitación	0
124184	7	Sololá	704	Santa Lucía Utatlán 	7	Santa Rita 	10	Octubre	2023-10-20T00:00:00	2024-11-08T13:00:00	8	Radiación solar	392
124185	7	Sololá	704	Santa Lucía Utatlán 	7	Santa Rita 	10	Octubre	2023-10-20T00:00:00	2024-11-08T14:00:00	2	Temperatura media	16.4
124186	7	Sololá	704	Santa Lucía Utatlán 	7	Santa Rita 	10	Octubre	2023-10-20T00:00:00	2024-11-08T14:00:00	4	Temperatura máxima	16.6
124187	7	Sololá	704	Santa Lucía Utatlán 	7	Santa Rita 	10	Octubre	2023-10-20T00:00:00	2024-11-08T14:00:00	3	Temperatura mínima	16.2
124188	7	Sololá	704	Santa Lucía Utatlán 	7	Santa Rita 	10	Octubre	2023-10-20T00:00:00	2024-11-08T14:00:00	5	Humedad	90
124189	7	Sololá	704	Santa Lucía Utatlán 	7	Santa Rita 	10	Octubre	2023-10-20T00:00:00	2024-11-08T14:00:00	6	Velocidad del viento	4.8
124190	7	Sololá	704	Santa Lucía Utatlán 	7	Santa Rita 	10	Octubre	2023-10-20T00:00:00	2024-11-08T14:00:00	7	Dirección del viento	4.83
124191	7	Sololá	704	Santa Lucía Utatlán 	7	Santa Rita 	10	Octubre	2023-10-20T00:00:00	2024-11-08T14:00:00	1	Precipitación	0
124192	7	Sololá	704	Santa Lucía Utatlán 	7	Santa Rita 	10	Octubre	2023-10-20T00:00:00	2024-11-08T14:00:00	8	Radiación solar	335
124193	7	Sololá	704	Santa Lucía Utatlán 	7	Santa Rita 	10	Octubre	2023-10-20T00:00:00	2024-11-08T15:00:00	2	Temperatura media	17.1
124194	7	Sololá	704	Santa Lucía Utatlán 	7	Santa Rita 	10	Octubre	2023-10-20T00:00:00	2024-11-08T15:00:00	4	Temperatura máxima	17.1
124195	7	Sololá	704	Santa Lucía Utatlán 	7	Santa Rita 	10	Octubre	2023-10-20T00:00:00	2024-11-08T15:00:00	3	Temperatura mínima	16.4
124196	7	Sololá	704	Santa Lucía Utatlán 	7	Santa Rita 	10	Octubre	2023-10-20T00:00:00	2024-11-08T15:00:00	5	Humedad	89
124197	7	Sololá	704	Santa Lucía Utatlán 	7	Santa Rita 	10	Octubre	2023-10-20T00:00:00	2024-11-08T15:00:00	6	Velocidad del viento	3.2
124198	7	Sololá	704	Santa Lucía Utatlán 	7	Santa Rita 	10	Octubre	2023-10-20T00:00:00	2024-11-08T15:00:00	7	Dirección del viento	3.22
124199	7	Sololá	704	Santa Lucía Utatlán 	7	Santa Rita 	10	Octubre	2023-10-20T00:00:00	2024-11-08T15:00:00	1	Precipitación	0
124200	7	Sololá	704	Santa Lucía Utatlán 	7	Santa Rita 	10	Octubre	2023-10-20T00:00:00	2024-11-08T15:00:00	8	Radiación solar	0
124201	7	Sololá	704	Santa Lucía Utatlán 	7	Santa Rita 	10	Octubre	2023-10-20T00:00:00	2024-11-08T16:00:00	2	Temperatura media	20.3
124202	7	Sololá	704	Santa Lucía Utatlán 	7	Santa Rita 	10	Octubre	2023-10-20T00:00:00	2024-11-08T16:00:00	4	Temperatura máxima	20.4
124203	7	Sololá	704	Santa Lucía Utatlán 	7	Santa Rita 	10	Octubre	2023-10-20T00:00:00	2024-11-08T16:00:00	3	Temperatura mínima	17.1
124204	7	Sololá	704	Santa Lucía Utatlán 	7	Santa Rita 	10	Octubre	2023-10-20T00:00:00	2024-11-08T16:00:00	5	Humedad	82
124205	7	Sololá	704	Santa Lucía Utatlán 	7	Santa Rita 	10	Octubre	2023-10-20T00:00:00	2024-11-08T16:00:00	6	Velocidad del viento	1.6
124206	7	Sololá	704	Santa Lucía Utatlán 	7	Santa Rita 	10	Octubre	2023-10-20T00:00:00	2024-11-08T16:00:00	7	Dirección del viento	1.61
124207	7	Sololá	704	Santa Lucía Utatlán 	7	Santa Rita 	10	Octubre	2023-10-20T00:00:00	2024-11-08T16:00:00	1	Precipitación	0
124208	7	Sololá	704	Santa Lucía Utatlán 	7	Santa Rita 	10	Octubre	2023-10-20T00:00:00	2024-11-08T16:00:00	8	Radiación solar	0
124209	7	Sololá	704	Santa Lucía Utatlán 	7	Santa Rita 	10	Octubre	2023-10-20T00:00:00	2024-11-08T17:00:00	2	Temperatura media	20.6
124210	7	Sololá	704	Santa Lucía Utatlán 	7	Santa Rita 	10	Octubre	2023-10-20T00:00:00	2024-11-08T17:00:00	4	Temperatura máxima	20.6
124211	7	Sololá	704	Santa Lucía Utatlán 	7	Santa Rita 	10	Octubre	2023-10-20T00:00:00	2024-11-08T17:00:00	3	Temperatura mínima	19.6
124212	7	Sololá	704	Santa Lucía Utatlán 	7	Santa Rita 	10	Octubre	2023-10-20T00:00:00	2024-11-08T17:00:00	5	Humedad	81
124213	7	Sololá	704	Santa Lucía Utatlán 	7	Santa Rita 	10	Octubre	2023-10-20T00:00:00	2024-11-08T17:00:00	6	Velocidad del viento	3.2
124214	7	Sololá	704	Santa Lucía Utatlán 	7	Santa Rita 	10	Octubre	2023-10-20T00:00:00	2024-11-08T17:00:00	7	Dirección del viento	3.22
124215	7	Sololá	704	Santa Lucía Utatlán 	7	Santa Rita 	10	Octubre	2023-10-20T00:00:00	2024-11-08T17:00:00	1	Precipitación	0
124216	7	Sololá	704	Santa Lucía Utatlán 	7	Santa Rita 	10	Octubre	2023-10-20T00:00:00	2024-11-08T17:00:00	8	Radiación solar	7
124217	7	Sololá	704	Santa Lucía Utatlán 	7	Santa Rita 	10	Octubre	2023-10-20T00:00:00	2024-11-08T18:00:00	2	Temperatura media	21.7
124218	7	Sololá	704	Santa Lucía Utatlán 	7	Santa Rita 	10	Octubre	2023-10-20T00:00:00	2024-11-08T18:00:00	4	Temperatura máxima	22.1
124219	7	Sololá	704	Santa Lucía Utatlán 	7	Santa Rita 	10	Octubre	2023-10-20T00:00:00	2024-11-08T18:00:00	3	Temperatura mínima	20.6
124220	7	Sololá	704	Santa Lucía Utatlán 	7	Santa Rita 	10	Octubre	2023-10-20T00:00:00	2024-11-08T18:00:00	5	Humedad	78
124221	7	Sololá	704	Santa Lucía Utatlán 	7	Santa Rita 	10	Octubre	2023-10-20T00:00:00	2024-11-08T18:00:00	6	Velocidad del viento	4.8
124222	7	Sololá	704	Santa Lucía Utatlán 	7	Santa Rita 	10	Octubre	2023-10-20T00:00:00	2024-11-08T18:00:00	7	Dirección del viento	4.83
124223	7	Sololá	704	Santa Lucía Utatlán 	7	Santa Rita 	10	Octubre	2023-10-20T00:00:00	2024-11-08T18:00:00	1	Precipitación	0
124224	7	Sololá	704	Santa Lucía Utatlán 	7	Santa Rita 	10	Octubre	2023-10-20T00:00:00	2024-11-08T18:00:00	8	Radiación solar	0
124225	7	Sololá	704	Santa Lucía Utatlán 	7	Santa Rita 	10	Octubre	2023-10-20T00:00:00	2024-11-08T19:00:00	2	Temperatura media	22.6
124226	7	Sololá	704	Santa Lucía Utatlán 	7	Santa Rita 	10	Octubre	2023-10-20T00:00:00	2024-11-08T19:00:00	4	Temperatura máxima	22.7
124227	7	Sololá	704	Santa Lucía Utatlán 	7	Santa Rita 	10	Octubre	2023-10-20T00:00:00	2024-11-08T19:00:00	3	Temperatura mínima	21.7
124228	7	Sololá	704	Santa Lucía Utatlán 	7	Santa Rita 	10	Octubre	2023-10-20T00:00:00	2024-11-08T19:00:00	5	Humedad	76
124229	7	Sololá	704	Santa Lucía Utatlán 	7	Santa Rita 	10	Octubre	2023-10-20T00:00:00	2024-11-08T19:00:00	6	Velocidad del viento	3.2
124230	7	Sololá	704	Santa Lucía Utatlán 	7	Santa Rita 	10	Octubre	2023-10-20T00:00:00	2024-11-08T19:00:00	7	Dirección del viento	3.22
124231	7	Sololá	704	Santa Lucía Utatlán 	7	Santa Rita 	10	Octubre	2023-10-20T00:00:00	2024-11-08T19:00:00	1	Precipitación	0
124232	7	Sololá	704	Santa Lucía Utatlán 	7	Santa Rita 	10	Octubre	2023-10-20T00:00:00	2024-11-08T19:00:00	8	Radiación solar	0
124233	7	Sololá	704	Santa Lucía Utatlán 	7	Santa Rita 	10	Octubre	2023-10-20T00:00:00	2024-11-08T20:00:00	2	Temperatura media	23.2
124234	7	Sololá	704	Santa Lucía Utatlán 	7	Santa Rita 	10	Octubre	2023-10-20T00:00:00	2024-11-08T20:00:00	4	Temperatura máxima	23.2
124235	7	Sololá	704	Santa Lucía Utatlán 	7	Santa Rita 	10	Octubre	2023-10-20T00:00:00	2024-11-08T20:00:00	3	Temperatura mínima	22.5
124236	7	Sololá	704	Santa Lucía Utatlán 	7	Santa Rita 	10	Octubre	2023-10-20T00:00:00	2024-11-08T20:00:00	5	Humedad	76
124237	7	Sololá	704	Santa Lucía Utatlán 	7	Santa Rita 	10	Octubre	2023-10-20T00:00:00	2024-11-08T20:00:00	6	Velocidad del viento	6.4
124238	7	Sololá	704	Santa Lucía Utatlán 	7	Santa Rita 	10	Octubre	2023-10-20T00:00:00	2024-11-08T20:00:00	7	Dirección del viento	6.44
124239	7	Sololá	704	Santa Lucía Utatlán 	7	Santa Rita 	10	Octubre	2023-10-20T00:00:00	2024-11-08T20:00:00	1	Precipitación	0
124240	7	Sololá	704	Santa Lucía Utatlán 	7	Santa Rita 	10	Octubre	2023-10-20T00:00:00	2024-11-08T20:00:00	8	Radiación solar	0
124241	7	Sololá	704	Santa Lucía Utatlán 	7	Santa Rita 	10	Octubre	2023-10-20T00:00:00	2024-11-08T21:00:00	2	Temperatura media	23.4
124242	7	Sololá	704	Santa Lucía Utatlán 	7	Santa Rita 	10	Octubre	2023-10-20T00:00:00	2024-11-08T21:00:00	4	Temperatura máxima	23.6
124243	7	Sololá	704	Santa Lucía Utatlán 	7	Santa Rita 	10	Octubre	2023-10-20T00:00:00	2024-11-08T21:00:00	3	Temperatura mínima	22.6
124244	7	Sololá	704	Santa Lucía Utatlán 	7	Santa Rita 	10	Octubre	2023-10-20T00:00:00	2024-11-08T21:00:00	5	Humedad	75
124245	7	Sololá	704	Santa Lucía Utatlán 	7	Santa Rita 	10	Octubre	2023-10-20T00:00:00	2024-11-08T21:00:00	6	Velocidad del viento	6.4
124246	7	Sololá	704	Santa Lucía Utatlán 	7	Santa Rita 	10	Octubre	2023-10-20T00:00:00	2024-11-08T21:00:00	7	Dirección del viento	6.44
124247	7	Sololá	704	Santa Lucía Utatlán 	7	Santa Rita 	10	Octubre	2023-10-20T00:00:00	2024-11-08T21:00:00	1	Precipitación	0
124248	7	Sololá	704	Santa Lucía Utatlán 	7	Santa Rita 	10	Octubre	2023-10-20T00:00:00	2024-11-08T21:00:00	8	Radiación solar	0
124249	7	Sololá	704	Santa Lucía Utatlán 	7	Santa Rita 	10	Octubre	2023-10-20T00:00:00	2024-11-08T22:00:00	2	Temperatura media	22.3
124250	7	Sololá	704	Santa Lucía Utatlán 	7	Santa Rita 	10	Octubre	2023-10-20T00:00:00	2024-11-08T22:00:00	4	Temperatura máxima	24.3
124251	7	Sololá	704	Santa Lucía Utatlán 	7	Santa Rita 	10	Octubre	2023-10-20T00:00:00	2024-11-08T22:00:00	3	Temperatura mínima	22.3
124252	7	Sololá	704	Santa Lucía Utatlán 	7	Santa Rita 	10	Octubre	2023-10-20T00:00:00	2024-11-08T22:00:00	5	Humedad	80
124253	7	Sololá	704	Santa Lucía Utatlán 	7	Santa Rita 	10	Octubre	2023-10-20T00:00:00	2024-11-08T22:00:00	6	Velocidad del viento	8
124254	7	Sololá	704	Santa Lucía Utatlán 	7	Santa Rita 	10	Octubre	2023-10-20T00:00:00	2024-11-08T22:00:00	7	Dirección del viento	8.05
124255	7	Sololá	704	Santa Lucía Utatlán 	7	Santa Rita 	10	Octubre	2023-10-20T00:00:00	2024-11-08T22:00:00	1	Precipitación	0
124256	7	Sololá	704	Santa Lucía Utatlán 	7	Santa Rita 	10	Octubre	2023-10-20T00:00:00	2024-11-08T22:00:00	8	Radiación solar	0
124257	7	Sololá	704	Santa Lucía Utatlán 	7	Santa Rita 	10	Octubre	2023-10-20T00:00:00	2024-11-08T23:00:00	2	Temperatura media	20
124258	7	Sololá	704	Santa Lucía Utatlán 	7	Santa Rita 	10	Octubre	2023-10-20T00:00:00	2024-11-08T23:00:00	4	Temperatura máxima	20
124259	7	Sololá	704	Santa Lucía Utatlán 	7	Santa Rita 	10	Octubre	2023-10-20T00:00:00	2024-11-08T23:00:00	3	Temperatura mínima	18.8
124260	7	Sololá	704	Santa Lucía Utatlán 	7	Santa Rita 	10	Octubre	2023-10-20T00:00:00	2024-11-08T23:00:00	5	Humedad	73
124261	7	Sololá	704	Santa Lucía Utatlán 	7	Santa Rita 	10	Octubre	2023-10-20T00:00:00	2024-11-08T23:00:00	6	Velocidad del viento	4.8
124262	7	Sololá	704	Santa Lucía Utatlán 	7	Santa Rita 	10	Octubre	2023-10-20T00:00:00	2024-11-08T23:00:00	7	Dirección del viento	4.83
124263	7	Sololá	704	Santa Lucía Utatlán 	7	Santa Rita 	10	Octubre	2023-10-20T00:00:00	2024-11-08T23:00:00	1	Precipitación	0
124264	7	Sololá	704	Santa Lucía Utatlán 	7	Santa Rita 	10	Octubre	2023-10-20T00:00:00	2024-11-08T23:00:00	8	Radiación solar	0
124265	7	Sololá	704	Santa Lucía Utatlán 	7	Santa Rita 	10	Octubre	2023-10-21T00:00:00	2024-11-08T00:00:00	2	Temperatura media	19.8
124266	7	Sololá	704	Santa Lucía Utatlán 	7	Santa Rita 	10	Octubre	2023-10-21T00:00:00	2024-11-08T00:00:00	4	Temperatura máxima	20.1
124267	7	Sololá	704	Santa Lucía Utatlán 	7	Santa Rita 	10	Octubre	2023-10-21T00:00:00	2024-11-08T00:00:00	3	Temperatura mínima	17.4
124268	7	Sololá	704	Santa Lucía Utatlán 	7	Santa Rita 	10	Octubre	2023-10-21T00:00:00	2024-11-08T00:00:00	5	Humedad	75
124269	7	Sololá	704	Santa Lucía Utatlán 	7	Santa Rita 	10	Octubre	2023-10-21T00:00:00	2024-11-08T00:00:00	6	Velocidad del viento	4.8
124270	7	Sololá	704	Santa Lucía Utatlán 	7	Santa Rita 	10	Octubre	2023-10-21T00:00:00	2024-11-08T00:00:00	7	Dirección del viento	4.83
124271	7	Sololá	704	Santa Lucía Utatlán 	7	Santa Rita 	10	Octubre	2023-10-21T00:00:00	2024-11-08T00:00:00	1	Precipitación	0
124272	7	Sololá	704	Santa Lucía Utatlán 	7	Santa Rita 	10	Octubre	2023-10-21T00:00:00	2024-11-08T00:00:00	8	Radiación solar	0
124273	7	Sololá	704	Santa Lucía Utatlán 	7	Santa Rita 	10	Octubre	2023-10-21T00:00:00	2024-11-08T01:00:00	2	Temperatura media	19.9
124274	7	Sololá	704	Santa Lucía Utatlán 	7	Santa Rita 	10	Octubre	2023-10-21T00:00:00	2024-11-08T01:00:00	4	Temperatura máxima	20.9
124275	7	Sololá	704	Santa Lucía Utatlán 	7	Santa Rita 	10	Octubre	2023-10-21T00:00:00	2024-11-08T01:00:00	3	Temperatura mínima	19.9
124276	7	Sololá	704	Santa Lucía Utatlán 	7	Santa Rita 	10	Octubre	2023-10-21T00:00:00	2024-11-08T01:00:00	5	Humedad	94
124277	7	Sololá	704	Santa Lucía Utatlán 	7	Santa Rita 	10	Octubre	2023-10-21T00:00:00	2024-11-08T01:00:00	6	Velocidad del viento	1.6
124278	7	Sololá	704	Santa Lucía Utatlán 	7	Santa Rita 	10	Octubre	2023-10-21T00:00:00	2024-11-08T01:00:00	7	Dirección del viento	1.61
124279	7	Sololá	704	Santa Lucía Utatlán 	7	Santa Rita 	10	Octubre	2023-10-21T00:00:00	2024-11-08T01:00:00	1	Precipitación	0.6
124280	7	Sololá	704	Santa Lucía Utatlán 	7	Santa Rita 	10	Octubre	2023-10-21T00:00:00	2024-11-08T01:00:00	8	Radiación solar	0
124281	7	Sololá	704	Santa Lucía Utatlán 	7	Santa Rita 	10	Octubre	2023-10-21T00:00:00	2024-11-08T02:00:00	2	Temperatura media	18.5
124282	7	Sololá	704	Santa Lucía Utatlán 	7	Santa Rita 	10	Octubre	2023-10-21T00:00:00	2024-11-08T02:00:00	4	Temperatura máxima	20
124283	7	Sololá	704	Santa Lucía Utatlán 	7	Santa Rita 	10	Octubre	2023-10-21T00:00:00	2024-11-08T02:00:00	3	Temperatura mínima	18.5
124284	7	Sololá	704	Santa Lucía Utatlán 	7	Santa Rita 	10	Octubre	2023-10-21T00:00:00	2024-11-08T02:00:00	5	Humedad	94
124285	7	Sololá	704	Santa Lucía Utatlán 	7	Santa Rita 	10	Octubre	2023-10-21T00:00:00	2024-11-08T02:00:00	6	Velocidad del viento	3.2
124286	7	Sololá	704	Santa Lucía Utatlán 	7	Santa Rita 	10	Octubre	2023-10-21T00:00:00	2024-11-08T02:00:00	7	Dirección del viento	3.22
124287	7	Sololá	704	Santa Lucía Utatlán 	7	Santa Rita 	10	Octubre	2023-10-21T00:00:00	2024-11-08T02:00:00	1	Precipitación	0.4
124288	7	Sololá	704	Santa Lucía Utatlán 	7	Santa Rita 	10	Octubre	2023-10-21T00:00:00	2024-11-08T02:00:00	8	Radiación solar	0
124289	7	Sololá	704	Santa Lucía Utatlán 	7	Santa Rita 	10	Octubre	2023-10-21T00:00:00	2024-11-08T03:00:00	2	Temperatura media	18
124290	7	Sololá	704	Santa Lucía Utatlán 	7	Santa Rita 	10	Octubre	2023-10-21T00:00:00	2024-11-08T03:00:00	4	Temperatura máxima	18.5
124291	7	Sololá	704	Santa Lucía Utatlán 	7	Santa Rita 	10	Octubre	2023-10-21T00:00:00	2024-11-08T03:00:00	3	Temperatura mínima	17.9
124292	7	Sololá	704	Santa Lucía Utatlán 	7	Santa Rita 	10	Octubre	2023-10-21T00:00:00	2024-11-08T03:00:00	5	Humedad	96
124293	7	Sololá	704	Santa Lucía Utatlán 	7	Santa Rita 	10	Octubre	2023-10-21T00:00:00	2024-11-08T03:00:00	6	Velocidad del viento	1.6
124294	7	Sololá	704	Santa Lucía Utatlán 	7	Santa Rita 	10	Octubre	2023-10-21T00:00:00	2024-11-08T03:00:00	7	Dirección del viento	1.61
124295	7	Sololá	704	Santa Lucía Utatlán 	7	Santa Rita 	10	Octubre	2023-10-21T00:00:00	2024-11-08T03:00:00	1	Precipitación	1.4
124296	7	Sololá	704	Santa Lucía Utatlán 	7	Santa Rita 	10	Octubre	2023-10-21T00:00:00	2024-11-08T03:00:00	8	Radiación solar	0
124297	7	Sololá	704	Santa Lucía Utatlán 	7	Santa Rita 	10	Octubre	2023-10-21T00:00:00	2024-11-08T04:00:00	2	Temperatura media	18.2
124298	7	Sololá	704	Santa Lucía Utatlán 	7	Santa Rita 	10	Octubre	2023-10-21T00:00:00	2024-11-08T04:00:00	4	Temperatura máxima	18.3
124299	7	Sololá	704	Santa Lucía Utatlán 	7	Santa Rita 	10	Octubre	2023-10-21T00:00:00	2024-11-08T04:00:00	3	Temperatura mínima	18
124300	7	Sololá	704	Santa Lucía Utatlán 	7	Santa Rita 	10	Octubre	2023-10-21T00:00:00	2024-11-08T04:00:00	5	Humedad	95
124301	7	Sololá	704	Santa Lucía Utatlán 	7	Santa Rita 	10	Octubre	2023-10-21T00:00:00	2024-11-08T04:00:00	6	Velocidad del viento	1.6
124302	7	Sololá	704	Santa Lucía Utatlán 	7	Santa Rita 	10	Octubre	2023-10-21T00:00:00	2024-11-08T04:00:00	7	Dirección del viento	1.61
124303	7	Sololá	704	Santa Lucía Utatlán 	7	Santa Rita 	10	Octubre	2023-10-21T00:00:00	2024-11-08T04:00:00	1	Precipitación	0
124304	7	Sololá	704	Santa Lucía Utatlán 	7	Santa Rita 	10	Octubre	2023-10-21T00:00:00	2024-11-08T04:00:00	8	Radiación solar	0
124305	7	Sololá	704	Santa Lucía Utatlán 	7	Santa Rita 	10	Octubre	2023-10-21T00:00:00	2024-11-08T05:00:00	2	Temperatura media	18.1
124306	7	Sololá	704	Santa Lucía Utatlán 	7	Santa Rita 	10	Octubre	2023-10-21T00:00:00	2024-11-08T05:00:00	4	Temperatura máxima	18.2
124307	7	Sololá	704	Santa Lucía Utatlán 	7	Santa Rita 	10	Octubre	2023-10-21T00:00:00	2024-11-08T05:00:00	3	Temperatura mínima	18.1
124308	7	Sololá	704	Santa Lucía Utatlán 	7	Santa Rita 	10	Octubre	2023-10-21T00:00:00	2024-11-08T05:00:00	5	Humedad	96
124309	7	Sololá	704	Santa Lucía Utatlán 	7	Santa Rita 	10	Octubre	2023-10-21T00:00:00	2024-11-08T05:00:00	6	Velocidad del viento	1.6
124310	7	Sololá	704	Santa Lucía Utatlán 	7	Santa Rita 	10	Octubre	2023-10-21T00:00:00	2024-11-08T05:00:00	7	Dirección del viento	1.61
124311	7	Sololá	704	Santa Lucía Utatlán 	7	Santa Rita 	10	Octubre	2023-10-21T00:00:00	2024-11-08T05:00:00	1	Precipitación	0
124312	7	Sololá	704	Santa Lucía Utatlán 	7	Santa Rita 	10	Octubre	2023-10-21T00:00:00	2024-11-08T05:00:00	8	Radiación solar	0
124313	7	Sololá	704	Santa Lucía Utatlán 	7	Santa Rita 	10	Octubre	2023-10-21T00:00:00	2024-11-08T06:00:00	2	Temperatura media	18.1
124314	7	Sololá	704	Santa Lucía Utatlán 	7	Santa Rita 	10	Octubre	2023-10-21T00:00:00	2024-11-08T06:00:00	4	Temperatura máxima	18.3
124315	7	Sololá	704	Santa Lucía Utatlán 	7	Santa Rita 	10	Octubre	2023-10-21T00:00:00	2024-11-08T06:00:00	3	Temperatura mínima	18.1
124316	7	Sololá	704	Santa Lucía Utatlán 	7	Santa Rita 	10	Octubre	2023-10-21T00:00:00	2024-11-08T06:00:00	5	Humedad	96
124317	7	Sololá	704	Santa Lucía Utatlán 	7	Santa Rita 	10	Octubre	2023-10-21T00:00:00	2024-11-08T06:00:00	6	Velocidad del viento	1.6
124318	7	Sololá	704	Santa Lucía Utatlán 	7	Santa Rita 	10	Octubre	2023-10-21T00:00:00	2024-11-08T06:00:00	7	Dirección del viento	1.61
124319	7	Sololá	704	Santa Lucía Utatlán 	7	Santa Rita 	10	Octubre	2023-10-21T00:00:00	2024-11-08T06:00:00	1	Precipitación	0
124320	7	Sololá	704	Santa Lucía Utatlán 	7	Santa Rita 	10	Octubre	2023-10-21T00:00:00	2024-11-08T06:00:00	8	Radiación solar	2
124321	7	Sololá	704	Santa Lucía Utatlán 	7	Santa Rita 	10	Octubre	2023-10-21T00:00:00	2024-11-08T07:00:00	2	Temperatura media	18.2
124322	7	Sololá	704	Santa Lucía Utatlán 	7	Santa Rita 	10	Octubre	2023-10-21T00:00:00	2024-11-08T07:00:00	4	Temperatura máxima	18.3
124323	7	Sololá	704	Santa Lucía Utatlán 	7	Santa Rita 	10	Octubre	2023-10-21T00:00:00	2024-11-08T07:00:00	3	Temperatura mínima	18.1
124324	7	Sololá	704	Santa Lucía Utatlán 	7	Santa Rita 	10	Octubre	2023-10-21T00:00:00	2024-11-08T07:00:00	5	Humedad	96
124325	7	Sololá	704	Santa Lucía Utatlán 	7	Santa Rita 	10	Octubre	2023-10-21T00:00:00	2024-11-08T07:00:00	6	Velocidad del viento	1.6
124326	7	Sololá	704	Santa Lucía Utatlán 	7	Santa Rita 	10	Octubre	2023-10-21T00:00:00	2024-11-08T07:00:00	7	Dirección del viento	1.61
124327	7	Sololá	704	Santa Lucía Utatlán 	7	Santa Rita 	10	Octubre	2023-10-21T00:00:00	2024-11-08T07:00:00	1	Precipitación	0
124328	7	Sololá	704	Santa Lucía Utatlán 	7	Santa Rita 	10	Octubre	2023-10-21T00:00:00	2024-11-08T07:00:00	8	Radiación solar	106
124329	7	Sololá	704	Santa Lucía Utatlán 	7	Santa Rita 	10	Octubre	2023-10-21T00:00:00	2024-11-08T08:00:00	2	Temperatura media	18.1
124330	7	Sololá	704	Santa Lucía Utatlán 	7	Santa Rita 	10	Octubre	2023-10-21T00:00:00	2024-11-08T08:00:00	4	Temperatura máxima	18.2
124331	7	Sololá	704	Santa Lucía Utatlán 	7	Santa Rita 	10	Octubre	2023-10-21T00:00:00	2024-11-08T08:00:00	3	Temperatura mínima	17.9
124332	7	Sololá	704	Santa Lucía Utatlán 	7	Santa Rita 	10	Octubre	2023-10-21T00:00:00	2024-11-08T08:00:00	5	Humedad	96
124333	7	Sololá	704	Santa Lucía Utatlán 	7	Santa Rita 	10	Octubre	2023-10-21T00:00:00	2024-11-08T08:00:00	6	Velocidad del viento	1.6
124334	7	Sololá	704	Santa Lucía Utatlán 	7	Santa Rita 	10	Octubre	2023-10-21T00:00:00	2024-11-08T08:00:00	7	Dirección del viento	1.61
124335	7	Sololá	704	Santa Lucía Utatlán 	7	Santa Rita 	10	Octubre	2023-10-21T00:00:00	2024-11-08T08:00:00	1	Precipitación	0
124336	7	Sololá	704	Santa Lucía Utatlán 	7	Santa Rita 	10	Octubre	2023-10-21T00:00:00	2024-11-08T08:00:00	8	Radiación solar	346
124337	7	Sololá	704	Santa Lucía Utatlán 	7	Santa Rita 	10	Octubre	2023-10-21T00:00:00	2024-11-08T09:00:00	2	Temperatura media	18.1
124338	7	Sololá	704	Santa Lucía Utatlán 	7	Santa Rita 	10	Octubre	2023-10-21T00:00:00	2024-11-08T09:00:00	4	Temperatura máxima	18.2
124339	7	Sololá	704	Santa Lucía Utatlán 	7	Santa Rita 	10	Octubre	2023-10-21T00:00:00	2024-11-08T09:00:00	3	Temperatura mínima	18.1
124340	7	Sololá	704	Santa Lucía Utatlán 	7	Santa Rita 	10	Octubre	2023-10-21T00:00:00	2024-11-08T09:00:00	5	Humedad	96
124341	7	Sololá	704	Santa Lucía Utatlán 	7	Santa Rita 	10	Octubre	2023-10-21T00:00:00	2024-11-08T09:00:00	6	Velocidad del viento	1.6
124342	7	Sololá	704	Santa Lucía Utatlán 	7	Santa Rita 	10	Octubre	2023-10-21T00:00:00	2024-11-08T09:00:00	7	Dirección del viento	1.61
124343	7	Sololá	704	Santa Lucía Utatlán 	7	Santa Rita 	10	Octubre	2023-10-21T00:00:00	2024-11-08T09:00:00	1	Precipitación	0
124344	7	Sololá	704	Santa Lucía Utatlán 	7	Santa Rita 	10	Octubre	2023-10-21T00:00:00	2024-11-08T09:00:00	8	Radiación solar	577
124345	7	Sololá	704	Santa Lucía Utatlán 	7	Santa Rita 	10	Octubre	2023-10-21T00:00:00	2024-11-08T10:00:00	2	Temperatura media	18
124346	7	Sololá	704	Santa Lucía Utatlán 	7	Santa Rita 	10	Octubre	2023-10-21T00:00:00	2024-11-08T10:00:00	4	Temperatura máxima	18.2
124347	7	Sololá	704	Santa Lucía Utatlán 	7	Santa Rita 	10	Octubre	2023-10-21T00:00:00	2024-11-08T10:00:00	3	Temperatura mínima	17.9
124348	7	Sololá	704	Santa Lucía Utatlán 	7	Santa Rita 	10	Octubre	2023-10-21T00:00:00	2024-11-08T10:00:00	5	Humedad	97
124349	7	Sololá	704	Santa Lucía Utatlán 	7	Santa Rita 	10	Octubre	2023-10-21T00:00:00	2024-11-08T10:00:00	6	Velocidad del viento	0
124350	7	Sololá	704	Santa Lucía Utatlán 	7	Santa Rita 	10	Octubre	2023-10-21T00:00:00	2024-11-08T10:00:00	7	Dirección del viento	0
124351	7	Sololá	704	Santa Lucía Utatlán 	7	Santa Rita 	10	Octubre	2023-10-21T00:00:00	2024-11-08T10:00:00	1	Precipitación	0
124352	7	Sololá	704	Santa Lucía Utatlán 	7	Santa Rita 	10	Octubre	2023-10-21T00:00:00	2024-11-08T10:00:00	8	Radiación solar	770
124353	7	Sololá	704	Santa Lucía Utatlán 	7	Santa Rita 	10	Octubre	2023-10-21T00:00:00	2024-11-08T11:00:00	2	Temperatura media	17.6
124354	7	Sololá	704	Santa Lucía Utatlán 	7	Santa Rita 	10	Octubre	2023-10-21T00:00:00	2024-11-08T11:00:00	4	Temperatura máxima	18.1
124355	7	Sololá	704	Santa Lucía Utatlán 	7	Santa Rita 	10	Octubre	2023-10-21T00:00:00	2024-11-08T11:00:00	3	Temperatura mínima	17.6
124356	7	Sololá	704	Santa Lucía Utatlán 	7	Santa Rita 	10	Octubre	2023-10-21T00:00:00	2024-11-08T11:00:00	5	Humedad	95
124357	7	Sololá	704	Santa Lucía Utatlán 	7	Santa Rita 	10	Octubre	2023-10-21T00:00:00	2024-11-08T11:00:00	6	Velocidad del viento	1.6
124358	7	Sololá	704	Santa Lucía Utatlán 	7	Santa Rita 	10	Octubre	2023-10-21T00:00:00	2024-11-08T11:00:00	7	Dirección del viento	1.61
124359	7	Sololá	704	Santa Lucía Utatlán 	7	Santa Rita 	10	Octubre	2023-10-21T00:00:00	2024-11-08T11:00:00	1	Precipitación	0
124360	7	Sololá	704	Santa Lucía Utatlán 	7	Santa Rita 	10	Octubre	2023-10-21T00:00:00	2024-11-08T11:00:00	8	Radiación solar	440
124361	7	Sololá	704	Santa Lucía Utatlán 	7	Santa Rita 	10	Octubre	2023-10-21T00:00:00	2024-11-08T12:00:00	2	Temperatura media	17.3
124362	7	Sololá	704	Santa Lucía Utatlán 	7	Santa Rita 	10	Octubre	2023-10-21T00:00:00	2024-11-08T12:00:00	4	Temperatura máxima	17.6
124363	7	Sololá	704	Santa Lucía Utatlán 	7	Santa Rita 	10	Octubre	2023-10-21T00:00:00	2024-11-08T12:00:00	3	Temperatura mínima	17.3
124364	7	Sololá	704	Santa Lucía Utatlán 	7	Santa Rita 	10	Octubre	2023-10-21T00:00:00	2024-11-08T12:00:00	5	Humedad	94
124365	7	Sololá	704	Santa Lucía Utatlán 	7	Santa Rita 	10	Octubre	2023-10-21T00:00:00	2024-11-08T12:00:00	6	Velocidad del viento	1.6
124366	7	Sololá	704	Santa Lucía Utatlán 	7	Santa Rita 	10	Octubre	2023-10-21T00:00:00	2024-11-08T12:00:00	7	Dirección del viento	1.61
124367	7	Sololá	704	Santa Lucía Utatlán 	7	Santa Rita 	10	Octubre	2023-10-21T00:00:00	2024-11-08T12:00:00	1	Precipitación	0
124368	7	Sololá	704	Santa Lucía Utatlán 	7	Santa Rita 	10	Octubre	2023-10-21T00:00:00	2024-11-08T12:00:00	8	Radiación solar	275
124369	7	Sololá	704	Santa Lucía Utatlán 	7	Santa Rita 	10	Octubre	2023-10-21T00:00:00	2024-11-08T13:00:00	2	Temperatura media	16.7
124370	7	Sololá	704	Santa Lucía Utatlán 	7	Santa Rita 	10	Octubre	2023-10-21T00:00:00	2024-11-08T13:00:00	4	Temperatura máxima	17.3
124371	7	Sololá	704	Santa Lucía Utatlán 	7	Santa Rita 	10	Octubre	2023-10-21T00:00:00	2024-11-08T13:00:00	3	Temperatura mínima	16.6
124372	7	Sololá	704	Santa Lucía Utatlán 	7	Santa Rita 	10	Octubre	2023-10-21T00:00:00	2024-11-08T13:00:00	5	Humedad	94
124373	7	Sololá	704	Santa Lucía Utatlán 	7	Santa Rita 	10	Octubre	2023-10-21T00:00:00	2024-11-08T13:00:00	6	Velocidad del viento	4.8
124374	7	Sololá	704	Santa Lucía Utatlán 	7	Santa Rita 	10	Octubre	2023-10-21T00:00:00	2024-11-08T13:00:00	7	Dirección del viento	4.83
124375	7	Sololá	704	Santa Lucía Utatlán 	7	Santa Rita 	10	Octubre	2023-10-21T00:00:00	2024-11-08T13:00:00	1	Precipitación	0
124376	7	Sololá	704	Santa Lucía Utatlán 	7	Santa Rita 	10	Octubre	2023-10-21T00:00:00	2024-11-08T13:00:00	8	Radiación solar	166
124377	7	Sololá	704	Santa Lucía Utatlán 	7	Santa Rita 	10	Octubre	2023-10-21T00:00:00	2024-11-08T14:00:00	2	Temperatura media	19.2
124378	7	Sololá	704	Santa Lucía Utatlán 	7	Santa Rita 	10	Octubre	2023-10-21T00:00:00	2024-11-08T14:00:00	4	Temperatura máxima	19.2
124379	7	Sololá	704	Santa Lucía Utatlán 	7	Santa Rita 	10	Octubre	2023-10-21T00:00:00	2024-11-08T14:00:00	3	Temperatura mínima	16.7
124380	7	Sololá	704	Santa Lucía Utatlán 	7	Santa Rita 	10	Octubre	2023-10-21T00:00:00	2024-11-08T14:00:00	5	Humedad	89
124381	7	Sololá	704	Santa Lucía Utatlán 	7	Santa Rita 	10	Octubre	2023-10-21T00:00:00	2024-11-08T14:00:00	6	Velocidad del viento	1.6
124382	7	Sololá	704	Santa Lucía Utatlán 	7	Santa Rita 	10	Octubre	2023-10-21T00:00:00	2024-11-08T14:00:00	7	Dirección del viento	1.61
124383	7	Sololá	704	Santa Lucía Utatlán 	7	Santa Rita 	10	Octubre	2023-10-21T00:00:00	2024-11-08T14:00:00	1	Precipitación	0
124384	7	Sololá	704	Santa Lucía Utatlán 	7	Santa Rita 	10	Octubre	2023-10-21T00:00:00	2024-11-08T14:00:00	8	Radiación solar	155
124385	7	Sololá	704	Santa Lucía Utatlán 	7	Santa Rita 	10	Octubre	2023-10-21T00:00:00	2024-11-08T15:00:00	2	Temperatura media	21.6
124386	7	Sololá	704	Santa Lucía Utatlán 	7	Santa Rita 	10	Octubre	2023-10-21T00:00:00	2024-11-08T15:00:00	4	Temperatura máxima	21.6
124387	7	Sololá	704	Santa Lucía Utatlán 	7	Santa Rita 	10	Octubre	2023-10-21T00:00:00	2024-11-08T15:00:00	3	Temperatura mínima	19.3
124388	7	Sololá	704	Santa Lucía Utatlán 	7	Santa Rita 	10	Octubre	2023-10-21T00:00:00	2024-11-08T15:00:00	5	Humedad	80
124389	7	Sololá	704	Santa Lucía Utatlán 	7	Santa Rita 	10	Octubre	2023-10-21T00:00:00	2024-11-08T15:00:00	6	Velocidad del viento	1.6
124390	7	Sololá	704	Santa Lucía Utatlán 	7	Santa Rita 	10	Octubre	2023-10-21T00:00:00	2024-11-08T15:00:00	7	Dirección del viento	1.61
124391	7	Sololá	704	Santa Lucía Utatlán 	7	Santa Rita 	10	Octubre	2023-10-21T00:00:00	2024-11-08T15:00:00	1	Precipitación	0
124392	7	Sololá	704	Santa Lucía Utatlán 	7	Santa Rita 	10	Octubre	2023-10-21T00:00:00	2024-11-08T15:00:00	8	Radiación solar	58
124393	7	Sololá	704	Santa Lucía Utatlán 	7	Santa Rita 	10	Octubre	2023-10-21T00:00:00	2024-11-08T16:00:00	2	Temperatura media	24
124394	7	Sololá	704	Santa Lucía Utatlán 	7	Santa Rita 	10	Octubre	2023-10-21T00:00:00	2024-11-08T16:00:00	4	Temperatura máxima	24
124395	7	Sololá	704	Santa Lucía Utatlán 	7	Santa Rita 	10	Octubre	2023-10-21T00:00:00	2024-11-08T16:00:00	3	Temperatura mínima	21.6
124396	7	Sololá	704	Santa Lucía Utatlán 	7	Santa Rita 	10	Octubre	2023-10-21T00:00:00	2024-11-08T16:00:00	5	Humedad	73
124397	7	Sololá	704	Santa Lucía Utatlán 	7	Santa Rita 	10	Octubre	2023-10-21T00:00:00	2024-11-08T16:00:00	6	Velocidad del viento	4.8
124398	7	Sololá	704	Santa Lucía Utatlán 	7	Santa Rita 	10	Octubre	2023-10-21T00:00:00	2024-11-08T16:00:00	7	Dirección del viento	4.83
124399	7	Sololá	704	Santa Lucía Utatlán 	7	Santa Rita 	10	Octubre	2023-10-21T00:00:00	2024-11-08T16:00:00	1	Precipitación	0
124400	7	Sololá	704	Santa Lucía Utatlán 	7	Santa Rita 	10	Octubre	2023-10-21T00:00:00	2024-11-08T16:00:00	8	Radiación solar	137
124401	7	Sololá	704	Santa Lucía Utatlán 	7	Santa Rita 	10	Octubre	2023-10-21T00:00:00	2024-11-08T17:00:00	2	Temperatura media	25.2
124402	7	Sololá	704	Santa Lucía Utatlán 	7	Santa Rita 	10	Octubre	2023-10-21T00:00:00	2024-11-08T17:00:00	4	Temperatura máxima	25.2
124403	7	Sololá	704	Santa Lucía Utatlán 	7	Santa Rita 	10	Octubre	2023-10-21T00:00:00	2024-11-08T17:00:00	3	Temperatura mínima	24
124404	7	Sololá	704	Santa Lucía Utatlán 	7	Santa Rita 	10	Octubre	2023-10-21T00:00:00	2024-11-08T17:00:00	5	Humedad	69
124405	7	Sololá	704	Santa Lucía Utatlán 	7	Santa Rita 	10	Octubre	2023-10-21T00:00:00	2024-11-08T17:00:00	6	Velocidad del viento	4.8
124406	7	Sololá	704	Santa Lucía Utatlán 	7	Santa Rita 	10	Octubre	2023-10-21T00:00:00	2024-11-08T17:00:00	7	Dirección del viento	4.83
124407	7	Sololá	704	Santa Lucía Utatlán 	7	Santa Rita 	10	Octubre	2023-10-21T00:00:00	2024-11-08T17:00:00	1	Precipitación	0
124408	7	Sololá	704	Santa Lucía Utatlán 	7	Santa Rita 	10	Octubre	2023-10-21T00:00:00	2024-11-08T17:00:00	8	Radiación solar	54
124409	7	Sololá	704	Santa Lucía Utatlán 	7	Santa Rita 	10	Octubre	2023-10-21T00:00:00	2024-11-08T18:00:00	2	Temperatura media	23.4
124410	7	Sololá	704	Santa Lucía Utatlán 	7	Santa Rita 	10	Octubre	2023-10-21T00:00:00	2024-11-08T18:00:00	4	Temperatura máxima	25.3
124411	7	Sololá	704	Santa Lucía Utatlán 	7	Santa Rita 	10	Octubre	2023-10-21T00:00:00	2024-11-08T18:00:00	3	Temperatura mínima	23.2
124412	7	Sololá	704	Santa Lucía Utatlán 	7	Santa Rita 	10	Octubre	2023-10-21T00:00:00	2024-11-08T18:00:00	5	Humedad	76
124413	7	Sololá	704	Santa Lucía Utatlán 	7	Santa Rita 	10	Octubre	2023-10-21T00:00:00	2024-11-08T18:00:00	6	Velocidad del viento	6.4
124414	7	Sololá	704	Santa Lucía Utatlán 	7	Santa Rita 	10	Octubre	2023-10-21T00:00:00	2024-11-08T18:00:00	7	Dirección del viento	6.44
124415	7	Sololá	704	Santa Lucía Utatlán 	7	Santa Rita 	10	Octubre	2023-10-21T00:00:00	2024-11-08T18:00:00	1	Precipitación	0
124416	7	Sololá	704	Santa Lucía Utatlán 	7	Santa Rita 	10	Octubre	2023-10-21T00:00:00	2024-11-08T18:00:00	8	Radiación solar	0
124417	7	Sololá	704	Santa Lucía Utatlán 	7	Santa Rita 	10	Octubre	2023-10-21T00:00:00	2024-11-08T19:00:00	2	Temperatura media	22.9
124418	7	Sololá	704	Santa Lucía Utatlán 	7	Santa Rita 	10	Octubre	2023-10-21T00:00:00	2024-11-08T19:00:00	4	Temperatura máxima	23.4
124419	7	Sololá	704	Santa Lucía Utatlán 	7	Santa Rita 	10	Octubre	2023-10-21T00:00:00	2024-11-08T19:00:00	3	Temperatura mínima	22.7
124420	7	Sololá	704	Santa Lucía Utatlán 	7	Santa Rita 	10	Octubre	2023-10-21T00:00:00	2024-11-08T19:00:00	5	Humedad	75
124421	7	Sololá	704	Santa Lucía Utatlán 	7	Santa Rita 	10	Octubre	2023-10-21T00:00:00	2024-11-08T19:00:00	6	Velocidad del viento	6.4
124422	7	Sololá	704	Santa Lucía Utatlán 	7	Santa Rita 	10	Octubre	2023-10-21T00:00:00	2024-11-08T19:00:00	7	Dirección del viento	6.44
124423	7	Sololá	704	Santa Lucía Utatlán 	7	Santa Rita 	10	Octubre	2023-10-21T00:00:00	2024-11-08T19:00:00	1	Precipitación	0
124424	7	Sololá	704	Santa Lucía Utatlán 	7	Santa Rita 	10	Octubre	2023-10-21T00:00:00	2024-11-08T19:00:00	8	Radiación solar	0
124425	7	Sololá	704	Santa Lucía Utatlán 	7	Santa Rita 	10	Octubre	2023-10-21T00:00:00	2024-11-08T20:00:00	2	Temperatura media	22.4
124426	7	Sololá	704	Santa Lucía Utatlán 	7	Santa Rita 	10	Octubre	2023-10-21T00:00:00	2024-11-08T20:00:00	4	Temperatura máxima	23
124427	7	Sololá	704	Santa Lucía Utatlán 	7	Santa Rita 	10	Octubre	2023-10-21T00:00:00	2024-11-08T20:00:00	3	Temperatura mínima	22.4
124428	7	Sololá	704	Santa Lucía Utatlán 	7	Santa Rita 	10	Octubre	2023-10-21T00:00:00	2024-11-08T20:00:00	5	Humedad	83
124429	7	Sololá	704	Santa Lucía Utatlán 	7	Santa Rita 	10	Octubre	2023-10-21T00:00:00	2024-11-08T20:00:00	6	Velocidad del viento	3.2
124430	7	Sololá	704	Santa Lucía Utatlán 	7	Santa Rita 	10	Octubre	2023-10-21T00:00:00	2024-11-08T20:00:00	7	Dirección del viento	3.22
124431	7	Sololá	704	Santa Lucía Utatlán 	7	Santa Rita 	10	Octubre	2023-10-21T00:00:00	2024-11-08T20:00:00	1	Precipitación	0
124432	7	Sololá	704	Santa Lucía Utatlán 	7	Santa Rita 	10	Octubre	2023-10-21T00:00:00	2024-11-08T20:00:00	8	Radiación solar	0
124433	7	Sololá	704	Santa Lucía Utatlán 	7	Santa Rita 	10	Octubre	2023-10-21T00:00:00	2024-11-08T21:00:00	2	Temperatura media	21.8
124434	7	Sololá	704	Santa Lucía Utatlán 	7	Santa Rita 	10	Octubre	2023-10-21T00:00:00	2024-11-08T21:00:00	4	Temperatura máxima	22.6
124435	7	Sololá	704	Santa Lucía Utatlán 	7	Santa Rita 	10	Octubre	2023-10-21T00:00:00	2024-11-08T21:00:00	3	Temperatura mínima	21.8
124436	7	Sololá	704	Santa Lucía Utatlán 	7	Santa Rita 	10	Octubre	2023-10-21T00:00:00	2024-11-08T21:00:00	5	Humedad	87
124437	7	Sololá	704	Santa Lucía Utatlán 	7	Santa Rita 	10	Octubre	2023-10-21T00:00:00	2024-11-08T21:00:00	6	Velocidad del viento	4.8
124438	7	Sololá	704	Santa Lucía Utatlán 	7	Santa Rita 	10	Octubre	2023-10-21T00:00:00	2024-11-08T21:00:00	7	Dirección del viento	4.83
124439	7	Sololá	704	Santa Lucía Utatlán 	7	Santa Rita 	10	Octubre	2023-10-21T00:00:00	2024-11-08T21:00:00	1	Precipitación	0
124440	7	Sololá	704	Santa Lucía Utatlán 	7	Santa Rita 	10	Octubre	2023-10-21T00:00:00	2024-11-08T21:00:00	8	Radiación solar	0
124441	7	Sololá	704	Santa Lucía Utatlán 	7	Santa Rita 	10	Octubre	2023-10-21T00:00:00	2024-11-08T22:00:00	2	Temperatura media	20.8
124442	7	Sololá	704	Santa Lucía Utatlán 	7	Santa Rita 	10	Octubre	2023-10-21T00:00:00	2024-11-08T22:00:00	4	Temperatura máxima	21.8
124443	7	Sololá	704	Santa Lucía Utatlán 	7	Santa Rita 	10	Octubre	2023-10-21T00:00:00	2024-11-08T22:00:00	3	Temperatura mínima	20.7
124444	7	Sololá	704	Santa Lucía Utatlán 	7	Santa Rita 	10	Octubre	2023-10-21T00:00:00	2024-11-08T22:00:00	5	Humedad	92
124445	7	Sololá	704	Santa Lucía Utatlán 	7	Santa Rita 	10	Octubre	2023-10-21T00:00:00	2024-11-08T22:00:00	6	Velocidad del viento	3.2
124446	7	Sololá	704	Santa Lucía Utatlán 	7	Santa Rita 	10	Octubre	2023-10-21T00:00:00	2024-11-08T22:00:00	7	Dirección del viento	3.22
124447	7	Sololá	704	Santa Lucía Utatlán 	7	Santa Rita 	10	Octubre	2023-10-21T00:00:00	2024-11-08T22:00:00	1	Precipitación	0.8
124448	7	Sololá	704	Santa Lucía Utatlán 	7	Santa Rita 	10	Octubre	2023-10-21T00:00:00	2024-11-08T22:00:00	8	Radiación solar	0
124449	7	Sololá	704	Santa Lucía Utatlán 	7	Santa Rita 	10	Octubre	2023-10-21T00:00:00	2024-11-08T23:00:00	2	Temperatura media	20.7
124450	7	Sololá	704	Santa Lucía Utatlán 	7	Santa Rita 	10	Octubre	2023-10-21T00:00:00	2024-11-08T23:00:00	4	Temperatura máxima	21.2
124451	7	Sololá	704	Santa Lucía Utatlán 	7	Santa Rita 	10	Octubre	2023-10-21T00:00:00	2024-11-08T23:00:00	3	Temperatura mínima	20.6
124452	7	Sololá	704	Santa Lucía Utatlán 	7	Santa Rita 	10	Octubre	2023-10-21T00:00:00	2024-11-08T23:00:00	5	Humedad	92
124453	7	Sololá	704	Santa Lucía Utatlán 	7	Santa Rita 	10	Octubre	2023-10-21T00:00:00	2024-11-08T23:00:00	6	Velocidad del viento	3.2
124454	7	Sololá	704	Santa Lucía Utatlán 	7	Santa Rita 	10	Octubre	2023-10-21T00:00:00	2024-11-08T23:00:00	7	Dirección del viento	3.22
124455	7	Sololá	704	Santa Lucía Utatlán 	7	Santa Rita 	10	Octubre	2023-10-21T00:00:00	2024-11-08T23:00:00	1	Precipitación	0.2
124456	7	Sololá	704	Santa Lucía Utatlán 	7	Santa Rita 	10	Octubre	2023-10-21T00:00:00	2024-11-08T23:00:00	8	Radiación solar	0
124457	7	Sololá	704	Santa Lucía Utatlán 	7	Santa Rita 	10	Octubre	2023-10-22T00:00:00	2024-11-08T00:00:00	2	Temperatura media	20.4
124458	7	Sololá	704	Santa Lucía Utatlán 	7	Santa Rita 	10	Octubre	2023-10-22T00:00:00	2024-11-08T00:00:00	4	Temperatura máxima	21.2
124459	7	Sololá	704	Santa Lucía Utatlán 	7	Santa Rita 	10	Octubre	2023-10-22T00:00:00	2024-11-08T00:00:00	3	Temperatura mínima	20.4
124460	7	Sololá	704	Santa Lucía Utatlán 	7	Santa Rita 	10	Octubre	2023-10-22T00:00:00	2024-11-08T00:00:00	5	Humedad	92
124461	7	Sololá	704	Santa Lucía Utatlán 	7	Santa Rita 	10	Octubre	2023-10-22T00:00:00	2024-11-08T00:00:00	6	Velocidad del viento	1.6
124462	7	Sololá	704	Santa Lucía Utatlán 	7	Santa Rita 	10	Octubre	2023-10-22T00:00:00	2024-11-08T00:00:00	7	Dirección del viento	1.61
124463	7	Sololá	704	Santa Lucía Utatlán 	7	Santa Rita 	10	Octubre	2023-10-22T00:00:00	2024-11-08T00:00:00	1	Precipitación	0
124464	7	Sololá	704	Santa Lucía Utatlán 	7	Santa Rita 	10	Octubre	2023-10-22T00:00:00	2024-11-08T00:00:00	8	Radiación solar	0
124465	7	Sololá	704	Santa Lucía Utatlán 	7	Santa Rita 	10	Octubre	2023-10-22T00:00:00	2024-11-08T01:00:00	2	Temperatura media	19.6
124466	7	Sololá	704	Santa Lucía Utatlán 	7	Santa Rita 	10	Octubre	2023-10-22T00:00:00	2024-11-08T01:00:00	4	Temperatura máxima	20.4
124467	7	Sololá	704	Santa Lucía Utatlán 	7	Santa Rita 	10	Octubre	2023-10-22T00:00:00	2024-11-08T01:00:00	3	Temperatura mínima	19.6
124468	7	Sololá	704	Santa Lucía Utatlán 	7	Santa Rita 	10	Octubre	2023-10-22T00:00:00	2024-11-08T01:00:00	5	Humedad	94
124469	7	Sololá	704	Santa Lucía Utatlán 	7	Santa Rita 	10	Octubre	2023-10-22T00:00:00	2024-11-08T01:00:00	6	Velocidad del viento	1.6
124470	7	Sololá	704	Santa Lucía Utatlán 	7	Santa Rita 	10	Octubre	2023-10-22T00:00:00	2024-11-08T01:00:00	7	Dirección del viento	1.61
124471	7	Sololá	704	Santa Lucía Utatlán 	7	Santa Rita 	10	Octubre	2023-10-22T00:00:00	2024-11-08T01:00:00	1	Precipitación	0.4
124472	7	Sololá	704	Santa Lucía Utatlán 	7	Santa Rita 	10	Octubre	2023-10-22T00:00:00	2024-11-08T01:00:00	8	Radiación solar	0
124473	7	Sololá	704	Santa Lucía Utatlán 	7	Santa Rita 	10	Octubre	2023-10-22T00:00:00	2024-11-08T02:00:00	2	Temperatura media	19.1
124474	7	Sololá	704	Santa Lucía Utatlán 	7	Santa Rita 	10	Octubre	2023-10-22T00:00:00	2024-11-08T02:00:00	4	Temperatura máxima	19.6
124475	7	Sololá	704	Santa Lucía Utatlán 	7	Santa Rita 	10	Octubre	2023-10-22T00:00:00	2024-11-08T02:00:00	3	Temperatura mínima	19.1
124476	7	Sololá	704	Santa Lucía Utatlán 	7	Santa Rita 	10	Octubre	2023-10-22T00:00:00	2024-11-08T02:00:00	5	Humedad	96
124477	7	Sololá	704	Santa Lucía Utatlán 	7	Santa Rita 	10	Octubre	2023-10-22T00:00:00	2024-11-08T02:00:00	6	Velocidad del viento	0
124478	7	Sololá	704	Santa Lucía Utatlán 	7	Santa Rita 	10	Octubre	2023-10-22T00:00:00	2024-11-08T02:00:00	7	Dirección del viento	0
124479	7	Sololá	704	Santa Lucía Utatlán 	7	Santa Rita 	10	Octubre	2023-10-22T00:00:00	2024-11-08T02:00:00	1	Precipitación	0.8
124480	7	Sololá	704	Santa Lucía Utatlán 	7	Santa Rita 	10	Octubre	2023-10-22T00:00:00	2024-11-08T02:00:00	8	Radiación solar	0
124481	7	Sololá	704	Santa Lucía Utatlán 	7	Santa Rita 	10	Octubre	2023-10-22T00:00:00	2024-11-08T03:00:00	2	Temperatura media	18.9
124482	7	Sololá	704	Santa Lucía Utatlán 	7	Santa Rita 	10	Octubre	2023-10-22T00:00:00	2024-11-08T03:00:00	4	Temperatura máxima	19.1
124483	7	Sololá	704	Santa Lucía Utatlán 	7	Santa Rita 	10	Octubre	2023-10-22T00:00:00	2024-11-08T03:00:00	3	Temperatura mínima	18.8
124484	7	Sololá	704	Santa Lucía Utatlán 	7	Santa Rita 	10	Octubre	2023-10-22T00:00:00	2024-11-08T03:00:00	5	Humedad	96
124485	7	Sololá	704	Santa Lucía Utatlán 	7	Santa Rita 	10	Octubre	2023-10-22T00:00:00	2024-11-08T03:00:00	6	Velocidad del viento	1.6
124486	7	Sololá	704	Santa Lucía Utatlán 	7	Santa Rita 	10	Octubre	2023-10-22T00:00:00	2024-11-08T03:00:00	7	Dirección del viento	1.61
124487	7	Sololá	704	Santa Lucía Utatlán 	7	Santa Rita 	10	Octubre	2023-10-22T00:00:00	2024-11-08T03:00:00	1	Precipitación	0
124488	7	Sololá	704	Santa Lucía Utatlán 	7	Santa Rita 	10	Octubre	2023-10-22T00:00:00	2024-11-08T03:00:00	8	Radiación solar	0
124489	7	Sololá	704	Santa Lucía Utatlán 	7	Santa Rita 	10	Octubre	2023-10-22T00:00:00	2024-11-08T04:00:00	2	Temperatura media	18.4
124490	7	Sololá	704	Santa Lucía Utatlán 	7	Santa Rita 	10	Octubre	2023-10-22T00:00:00	2024-11-08T04:00:00	4	Temperatura máxima	18.9
124491	7	Sololá	704	Santa Lucía Utatlán 	7	Santa Rita 	10	Octubre	2023-10-22T00:00:00	2024-11-08T04:00:00	3	Temperatura mínima	18.3
124492	7	Sololá	704	Santa Lucía Utatlán 	7	Santa Rita 	10	Octubre	2023-10-22T00:00:00	2024-11-08T04:00:00	5	Humedad	95
124493	7	Sololá	704	Santa Lucía Utatlán 	7	Santa Rita 	10	Octubre	2023-10-22T00:00:00	2024-11-08T04:00:00	6	Velocidad del viento	1.6
124494	7	Sololá	704	Santa Lucía Utatlán 	7	Santa Rita 	10	Octubre	2023-10-22T00:00:00	2024-11-08T04:00:00	7	Dirección del viento	1.61
124495	7	Sololá	704	Santa Lucía Utatlán 	7	Santa Rita 	10	Octubre	2023-10-22T00:00:00	2024-11-08T04:00:00	1	Precipitación	0
124496	7	Sololá	704	Santa Lucía Utatlán 	7	Santa Rita 	10	Octubre	2023-10-22T00:00:00	2024-11-08T04:00:00	8	Radiación solar	0
124497	7	Sololá	704	Santa Lucía Utatlán 	7	Santa Rita 	10	Octubre	2023-10-22T00:00:00	2024-11-08T05:00:00	2	Temperatura media	18.1
124498	7	Sololá	704	Santa Lucía Utatlán 	7	Santa Rita 	10	Octubre	2023-10-22T00:00:00	2024-11-08T05:00:00	4	Temperatura máxima	18.4
124499	7	Sololá	704	Santa Lucía Utatlán 	7	Santa Rita 	10	Octubre	2023-10-22T00:00:00	2024-11-08T05:00:00	3	Temperatura mínima	18.1
124500	7	Sololá	704	Santa Lucía Utatlán 	7	Santa Rita 	10	Octubre	2023-10-22T00:00:00	2024-11-08T05:00:00	5	Humedad	96
124501	7	Sololá	704	Santa Lucía Utatlán 	7	Santa Rita 	10	Octubre	2023-10-22T00:00:00	2024-11-08T05:00:00	6	Velocidad del viento	1.6
124502	7	Sololá	704	Santa Lucía Utatlán 	7	Santa Rita 	10	Octubre	2023-10-22T00:00:00	2024-11-08T05:00:00	7	Dirección del viento	1.61
124503	7	Sololá	704	Santa Lucía Utatlán 	7	Santa Rita 	10	Octubre	2023-10-22T00:00:00	2024-11-08T05:00:00	1	Precipitación	0
124504	7	Sololá	704	Santa Lucía Utatlán 	7	Santa Rita 	10	Octubre	2023-10-22T00:00:00	2024-11-08T05:00:00	8	Radiación solar	0
124505	7	Sololá	704	Santa Lucía Utatlán 	7	Santa Rita 	10	Octubre	2023-10-22T00:00:00	2024-11-08T06:00:00	2	Temperatura media	17.7
124506	7	Sololá	704	Santa Lucía Utatlán 	7	Santa Rita 	10	Octubre	2023-10-22T00:00:00	2024-11-08T06:00:00	4	Temperatura máxima	18.2
124507	7	Sololá	704	Santa Lucía Utatlán 	7	Santa Rita 	10	Octubre	2023-10-22T00:00:00	2024-11-08T06:00:00	3	Temperatura mínima	17.6
124508	7	Sololá	704	Santa Lucía Utatlán 	7	Santa Rita 	10	Octubre	2023-10-22T00:00:00	2024-11-08T06:00:00	5	Humedad	96
124509	7	Sololá	704	Santa Lucía Utatlán 	7	Santa Rita 	10	Octubre	2023-10-22T00:00:00	2024-11-08T06:00:00	6	Velocidad del viento	3.2
124510	7	Sololá	704	Santa Lucía Utatlán 	7	Santa Rita 	10	Octubre	2023-10-22T00:00:00	2024-11-08T06:00:00	7	Dirección del viento	3.22
124511	7	Sololá	704	Santa Lucía Utatlán 	7	Santa Rita 	10	Octubre	2023-10-22T00:00:00	2024-11-08T06:00:00	1	Precipitación	0
124512	7	Sololá	704	Santa Lucía Utatlán 	7	Santa Rita 	10	Octubre	2023-10-22T00:00:00	2024-11-08T06:00:00	8	Radiación solar	0
124513	7	Sololá	704	Santa Lucía Utatlán 	7	Santa Rita 	10	Octubre	2023-10-22T00:00:00	2024-11-08T07:00:00	2	Temperatura media	17.1
124514	7	Sololá	704	Santa Lucía Utatlán 	7	Santa Rita 	10	Octubre	2023-10-22T00:00:00	2024-11-08T07:00:00	4	Temperatura máxima	17.8
124515	7	Sololá	704	Santa Lucía Utatlán 	7	Santa Rita 	10	Octubre	2023-10-22T00:00:00	2024-11-08T07:00:00	3	Temperatura mínima	17.1
124516	7	Sololá	704	Santa Lucía Utatlán 	7	Santa Rita 	10	Octubre	2023-10-22T00:00:00	2024-11-08T07:00:00	5	Humedad	96
124517	7	Sololá	704	Santa Lucía Utatlán 	7	Santa Rita 	10	Octubre	2023-10-22T00:00:00	2024-11-08T07:00:00	6	Velocidad del viento	1.6
124518	7	Sololá	704	Santa Lucía Utatlán 	7	Santa Rita 	10	Octubre	2023-10-22T00:00:00	2024-11-08T07:00:00	7	Dirección del viento	1.61
124519	7	Sololá	704	Santa Lucía Utatlán 	7	Santa Rita 	10	Octubre	2023-10-22T00:00:00	2024-11-08T07:00:00	1	Precipitación	0
124520	7	Sololá	704	Santa Lucía Utatlán 	7	Santa Rita 	10	Octubre	2023-10-22T00:00:00	2024-11-08T07:00:00	8	Radiación solar	123
124521	7	Sololá	704	Santa Lucía Utatlán 	7	Santa Rita 	10	Octubre	2023-10-22T00:00:00	2024-11-08T08:00:00	2	Temperatura media	17.2
124522	7	Sololá	704	Santa Lucía Utatlán 	7	Santa Rita 	10	Octubre	2023-10-22T00:00:00	2024-11-08T08:00:00	4	Temperatura máxima	17.3
124523	7	Sololá	704	Santa Lucía Utatlán 	7	Santa Rita 	10	Octubre	2023-10-22T00:00:00	2024-11-08T08:00:00	3	Temperatura mínima	17.1
124524	7	Sololá	704	Santa Lucía Utatlán 	7	Santa Rita 	10	Octubre	2023-10-22T00:00:00	2024-11-08T08:00:00	5	Humedad	96
124525	7	Sololá	704	Santa Lucía Utatlán 	7	Santa Rita 	10	Octubre	2023-10-22T00:00:00	2024-11-08T08:00:00	6	Velocidad del viento	3.2
124526	7	Sololá	704	Santa Lucía Utatlán 	7	Santa Rita 	10	Octubre	2023-10-22T00:00:00	2024-11-08T08:00:00	7	Dirección del viento	3.22
124527	7	Sololá	704	Santa Lucía Utatlán 	7	Santa Rita 	10	Octubre	2023-10-22T00:00:00	2024-11-08T08:00:00	1	Precipitación	0.2
124528	7	Sololá	704	Santa Lucía Utatlán 	7	Santa Rita 	10	Octubre	2023-10-22T00:00:00	2024-11-08T08:00:00	8	Radiación solar	349
124529	7	Sololá	704	Santa Lucía Utatlán 	7	Santa Rita 	10	Octubre	2023-10-22T00:00:00	2024-11-08T09:00:00	2	Temperatura media	16.7
124530	7	Sololá	704	Santa Lucía Utatlán 	7	Santa Rita 	10	Octubre	2023-10-22T00:00:00	2024-11-08T09:00:00	4	Temperatura máxima	17.2
124531	7	Sololá	704	Santa Lucía Utatlán 	7	Santa Rita 	10	Octubre	2023-10-22T00:00:00	2024-11-08T09:00:00	3	Temperatura mínima	16.7
124532	7	Sololá	704	Santa Lucía Utatlán 	7	Santa Rita 	10	Octubre	2023-10-22T00:00:00	2024-11-08T09:00:00	5	Humedad	95
124533	7	Sololá	704	Santa Lucía Utatlán 	7	Santa Rita 	10	Octubre	2023-10-22T00:00:00	2024-11-08T09:00:00	6	Velocidad del viento	3.2
124534	7	Sololá	704	Santa Lucía Utatlán 	7	Santa Rita 	10	Octubre	2023-10-22T00:00:00	2024-11-08T09:00:00	7	Dirección del viento	3.22
124535	7	Sololá	704	Santa Lucía Utatlán 	7	Santa Rita 	10	Octubre	2023-10-22T00:00:00	2024-11-08T09:00:00	1	Precipitación	0
124536	7	Sololá	704	Santa Lucía Utatlán 	7	Santa Rita 	10	Octubre	2023-10-22T00:00:00	2024-11-08T09:00:00	8	Radiación solar	443
124537	7	Sololá	704	Santa Lucía Utatlán 	7	Santa Rita 	10	Octubre	2023-10-22T00:00:00	2024-11-08T10:00:00	2	Temperatura media	16.7
124538	7	Sololá	704	Santa Lucía Utatlán 	7	Santa Rita 	10	Octubre	2023-10-22T00:00:00	2024-11-08T10:00:00	4	Temperatura máxima	16.7
124539	7	Sololá	704	Santa Lucía Utatlán 	7	Santa Rita 	10	Octubre	2023-10-22T00:00:00	2024-11-08T10:00:00	3	Temperatura mínima	16.6
124540	7	Sololá	704	Santa Lucía Utatlán 	7	Santa Rita 	10	Octubre	2023-10-22T00:00:00	2024-11-08T10:00:00	5	Humedad	96
124541	7	Sololá	704	Santa Lucía Utatlán 	7	Santa Rita 	10	Octubre	2023-10-22T00:00:00	2024-11-08T10:00:00	6	Velocidad del viento	3.2
124542	7	Sololá	704	Santa Lucía Utatlán 	7	Santa Rita 	10	Octubre	2023-10-22T00:00:00	2024-11-08T10:00:00	7	Dirección del viento	3.22
124543	7	Sololá	704	Santa Lucía Utatlán 	7	Santa Rita 	10	Octubre	2023-10-22T00:00:00	2024-11-08T10:00:00	1	Precipitación	0
124544	7	Sololá	704	Santa Lucía Utatlán 	7	Santa Rita 	10	Octubre	2023-10-22T00:00:00	2024-11-08T10:00:00	8	Radiación solar	647
124545	7	Sololá	704	Santa Lucía Utatlán 	7	Santa Rita 	10	Octubre	2023-10-22T00:00:00	2024-11-08T11:00:00	2	Temperatura media	16.4
124546	7	Sololá	704	Santa Lucía Utatlán 	7	Santa Rita 	10	Octubre	2023-10-22T00:00:00	2024-11-08T11:00:00	4	Temperatura máxima	16.7
124547	7	Sololá	704	Santa Lucía Utatlán 	7	Santa Rita 	10	Octubre	2023-10-22T00:00:00	2024-11-08T11:00:00	3	Temperatura mínima	16.4
124548	7	Sololá	704	Santa Lucía Utatlán 	7	Santa Rita 	10	Octubre	2023-10-22T00:00:00	2024-11-08T11:00:00	5	Humedad	96
124549	7	Sololá	704	Santa Lucía Utatlán 	7	Santa Rita 	10	Octubre	2023-10-22T00:00:00	2024-11-08T11:00:00	6	Velocidad del viento	3.2
124550	7	Sololá	704	Santa Lucía Utatlán 	7	Santa Rita 	10	Octubre	2023-10-22T00:00:00	2024-11-08T11:00:00	7	Dirección del viento	3.22
124551	7	Sololá	704	Santa Lucía Utatlán 	7	Santa Rita 	10	Octubre	2023-10-22T00:00:00	2024-11-08T11:00:00	1	Precipitación	0
124552	7	Sololá	704	Santa Lucía Utatlán 	7	Santa Rita 	10	Octubre	2023-10-22T00:00:00	2024-11-08T11:00:00	8	Radiación solar	587
124553	7	Sololá	704	Santa Lucía Utatlán 	7	Santa Rita 	10	Octubre	2023-10-22T00:00:00	2024-11-08T12:00:00	2	Temperatura media	24.1
124554	7	Sololá	704	Santa Lucía Utatlán 	7	Santa Rita 	10	Octubre	2023-10-22T00:00:00	2024-11-08T12:00:00	4	Temperatura máxima	24.8
124555	7	Sololá	704	Santa Lucía Utatlán 	7	Santa Rita 	10	Octubre	2023-10-22T00:00:00	2024-11-08T12:00:00	3	Temperatura mínima	23.9
124556	7	Sololá	704	Santa Lucía Utatlán 	7	Santa Rita 	10	Octubre	2023-10-22T00:00:00	2024-11-08T12:00:00	5	Humedad	65
124557	7	Sololá	704	Santa Lucía Utatlán 	7	Santa Rita 	10	Octubre	2023-10-22T00:00:00	2024-11-08T12:00:00	6	Velocidad del viento	9.7
124558	7	Sololá	704	Santa Lucía Utatlán 	7	Santa Rita 	10	Octubre	2023-10-22T00:00:00	2024-11-08T12:00:00	7	Dirección del viento	9.66
124559	7	Sololá	704	Santa Lucía Utatlán 	7	Santa Rita 	10	Octubre	2023-10-22T00:00:00	2024-11-08T12:00:00	1	Precipitación	0
124560	7	Sololá	704	Santa Lucía Utatlán 	7	Santa Rita 	10	Octubre	2023-10-22T00:00:00	2024-11-08T12:00:00	8	Radiación solar	775
124561	7	Sololá	704	Santa Lucía Utatlán 	7	Santa Rita 	10	Octubre	2023-10-22T00:00:00	2024-11-08T13:00:00	2	Temperatura media	22.7
124562	7	Sololá	704	Santa Lucía Utatlán 	7	Santa Rita 	10	Octubre	2023-10-22T00:00:00	2024-11-08T13:00:00	4	Temperatura máxima	24.5
124563	7	Sololá	704	Santa Lucía Utatlán 	7	Santa Rita 	10	Octubre	2023-10-22T00:00:00	2024-11-08T13:00:00	3	Temperatura mínima	22.7
124564	7	Sololá	704	Santa Lucía Utatlán 	7	Santa Rita 	10	Octubre	2023-10-22T00:00:00	2024-11-08T13:00:00	5	Humedad	80
124565	7	Sololá	704	Santa Lucía Utatlán 	7	Santa Rita 	10	Octubre	2023-10-22T00:00:00	2024-11-08T13:00:00	6	Velocidad del viento	6.4
124566	7	Sololá	704	Santa Lucía Utatlán 	7	Santa Rita 	10	Octubre	2023-10-22T00:00:00	2024-11-08T13:00:00	7	Dirección del viento	6.44
124567	7	Sololá	704	Santa Lucía Utatlán 	7	Santa Rita 	10	Octubre	2023-10-22T00:00:00	2024-11-08T13:00:00	1	Precipitación	0
124568	7	Sololá	704	Santa Lucía Utatlán 	7	Santa Rita 	10	Octubre	2023-10-22T00:00:00	2024-11-08T13:00:00	8	Radiación solar	545
124569	7	Sololá	704	Santa Lucía Utatlán 	7	Santa Rita 	10	Octubre	2023-10-22T00:00:00	2024-11-08T14:00:00	2	Temperatura media	19.5
124570	7	Sololá	704	Santa Lucía Utatlán 	7	Santa Rita 	10	Octubre	2023-10-22T00:00:00	2024-11-08T14:00:00	4	Temperatura máxima	19.5
124571	7	Sololá	704	Santa Lucía Utatlán 	7	Santa Rita 	10	Octubre	2023-10-22T00:00:00	2024-11-08T14:00:00	3	Temperatura mínima	16.6
124572	7	Sololá	704	Santa Lucía Utatlán 	7	Santa Rita 	10	Octubre	2023-10-22T00:00:00	2024-11-08T14:00:00	5	Humedad	89
124573	7	Sololá	704	Santa Lucía Utatlán 	7	Santa Rita 	10	Octubre	2023-10-22T00:00:00	2024-11-08T14:00:00	6	Velocidad del viento	1.6
124574	7	Sololá	704	Santa Lucía Utatlán 	7	Santa Rita 	10	Octubre	2023-10-22T00:00:00	2024-11-08T14:00:00	7	Dirección del viento	1.61
124575	7	Sololá	704	Santa Lucía Utatlán 	7	Santa Rita 	10	Octubre	2023-10-22T00:00:00	2024-11-08T14:00:00	1	Precipitación	0
124576	7	Sololá	704	Santa Lucía Utatlán 	7	Santa Rita 	10	Octubre	2023-10-22T00:00:00	2024-11-08T14:00:00	8	Radiación solar	192
124577	7	Sololá	704	Santa Lucía Utatlán 	7	Santa Rita 	10	Octubre	2023-10-22T00:00:00	2024-11-08T15:00:00	2	Temperatura media	21.2
124578	7	Sololá	704	Santa Lucía Utatlán 	7	Santa Rita 	10	Octubre	2023-10-22T00:00:00	2024-11-08T15:00:00	4	Temperatura máxima	21.6
124579	7	Sololá	704	Santa Lucía Utatlán 	7	Santa Rita 	10	Octubre	2023-10-22T00:00:00	2024-11-08T15:00:00	3	Temperatura mínima	19.6
124580	7	Sololá	704	Santa Lucía Utatlán 	7	Santa Rita 	10	Octubre	2023-10-22T00:00:00	2024-11-08T15:00:00	5	Humedad	85
124581	7	Sololá	704	Santa Lucía Utatlán 	7	Santa Rita 	10	Octubre	2023-10-22T00:00:00	2024-11-08T15:00:00	6	Velocidad del viento	3.2
124582	7	Sololá	704	Santa Lucía Utatlán 	7	Santa Rita 	10	Octubre	2023-10-22T00:00:00	2024-11-08T15:00:00	7	Dirección del viento	3.22
124583	7	Sololá	704	Santa Lucía Utatlán 	7	Santa Rita 	10	Octubre	2023-10-22T00:00:00	2024-11-08T15:00:00	1	Precipitación	0
124584	7	Sololá	704	Santa Lucía Utatlán 	7	Santa Rita 	10	Octubre	2023-10-22T00:00:00	2024-11-08T15:00:00	8	Radiación solar	148
124585	7	Sololá	704	Santa Lucía Utatlán 	7	Santa Rita 	10	Octubre	2023-10-22T00:00:00	2024-11-08T16:00:00	2	Temperatura media	22.4
124586	7	Sololá	704	Santa Lucía Utatlán 	7	Santa Rita 	10	Octubre	2023-10-22T00:00:00	2024-11-08T16:00:00	4	Temperatura máxima	22.7
124587	7	Sololá	704	Santa Lucía Utatlán 	7	Santa Rita 	10	Octubre	2023-10-22T00:00:00	2024-11-08T16:00:00	3	Temperatura mínima	21.2
124588	7	Sololá	704	Santa Lucía Utatlán 	7	Santa Rita 	10	Octubre	2023-10-22T00:00:00	2024-11-08T16:00:00	5	Humedad	80
124589	7	Sololá	704	Santa Lucía Utatlán 	7	Santa Rita 	10	Octubre	2023-10-22T00:00:00	2024-11-08T16:00:00	6	Velocidad del viento	3.2
124590	7	Sololá	704	Santa Lucía Utatlán 	7	Santa Rita 	10	Octubre	2023-10-22T00:00:00	2024-11-08T16:00:00	7	Dirección del viento	3.22
124591	7	Sololá	704	Santa Lucía Utatlán 	7	Santa Rita 	10	Octubre	2023-10-22T00:00:00	2024-11-08T16:00:00	1	Precipitación	0
124592	7	Sololá	704	Santa Lucía Utatlán 	7	Santa Rita 	10	Octubre	2023-10-22T00:00:00	2024-11-08T16:00:00	8	Radiación solar	240
124593	7	Sololá	704	Santa Lucía Utatlán 	7	Santa Rita 	10	Octubre	2023-10-22T00:00:00	2024-11-08T17:00:00	2	Temperatura media	24.1
124594	7	Sololá	704	Santa Lucía Utatlán 	7	Santa Rita 	10	Octubre	2023-10-22T00:00:00	2024-11-08T17:00:00	4	Temperatura máxima	24.2
124595	7	Sololá	704	Santa Lucía Utatlán 	7	Santa Rita 	10	Octubre	2023-10-22T00:00:00	2024-11-08T17:00:00	3	Temperatura mínima	22.3
124596	7	Sololá	704	Santa Lucía Utatlán 	7	Santa Rita 	10	Octubre	2023-10-22T00:00:00	2024-11-08T17:00:00	5	Humedad	75
124597	7	Sololá	704	Santa Lucía Utatlán 	7	Santa Rita 	10	Octubre	2023-10-22T00:00:00	2024-11-08T17:00:00	6	Velocidad del viento	4.8
124598	7	Sololá	704	Santa Lucía Utatlán 	7	Santa Rita 	10	Octubre	2023-10-22T00:00:00	2024-11-08T17:00:00	7	Dirección del viento	4.83
124599	7	Sololá	704	Santa Lucía Utatlán 	7	Santa Rita 	10	Octubre	2023-10-22T00:00:00	2024-11-08T17:00:00	1	Precipitación	0
124600	7	Sololá	704	Santa Lucía Utatlán 	7	Santa Rita 	10	Octubre	2023-10-22T00:00:00	2024-11-08T17:00:00	8	Radiación solar	0
124601	7	Sololá	704	Santa Lucía Utatlán 	7	Santa Rita 	10	Octubre	2023-10-22T00:00:00	2024-11-08T18:00:00	2	Temperatura media	24.3
124602	7	Sololá	704	Santa Lucía Utatlán 	7	Santa Rita 	10	Octubre	2023-10-22T00:00:00	2024-11-08T18:00:00	4	Temperatura máxima	24.3
124603	7	Sololá	704	Santa Lucía Utatlán 	7	Santa Rita 	10	Octubre	2023-10-22T00:00:00	2024-11-08T18:00:00	3	Temperatura mínima	22.9
124604	7	Sololá	704	Santa Lucía Utatlán 	7	Santa Rita 	10	Octubre	2023-10-22T00:00:00	2024-11-08T18:00:00	5	Humedad	73
124605	7	Sololá	704	Santa Lucía Utatlán 	7	Santa Rita 	10	Octubre	2023-10-22T00:00:00	2024-11-08T18:00:00	6	Velocidad del viento	6.4
124606	7	Sololá	704	Santa Lucía Utatlán 	7	Santa Rita 	10	Octubre	2023-10-22T00:00:00	2024-11-08T18:00:00	7	Dirección del viento	6.44
124607	7	Sololá	704	Santa Lucía Utatlán 	7	Santa Rita 	10	Octubre	2023-10-22T00:00:00	2024-11-08T18:00:00	1	Precipitación	0
124608	7	Sololá	704	Santa Lucía Utatlán 	7	Santa Rita 	10	Octubre	2023-10-22T00:00:00	2024-11-08T18:00:00	8	Radiación solar	0
124609	7	Sololá	704	Santa Lucía Utatlán 	7	Santa Rita 	10	Octubre	2023-10-22T00:00:00	2024-11-08T19:00:00	2	Temperatura media	24.7
124610	7	Sololá	704	Santa Lucía Utatlán 	7	Santa Rita 	10	Octubre	2023-10-22T00:00:00	2024-11-08T19:00:00	4	Temperatura máxima	25.1
124611	7	Sololá	704	Santa Lucía Utatlán 	7	Santa Rita 	10	Octubre	2023-10-22T00:00:00	2024-11-08T19:00:00	3	Temperatura mínima	24.2
124612	7	Sololá	704	Santa Lucía Utatlán 	7	Santa Rita 	10	Octubre	2023-10-22T00:00:00	2024-11-08T19:00:00	5	Humedad	70
124613	7	Sololá	704	Santa Lucía Utatlán 	7	Santa Rita 	10	Octubre	2023-10-22T00:00:00	2024-11-08T19:00:00	6	Velocidad del viento	6.4
124614	7	Sololá	704	Santa Lucía Utatlán 	7	Santa Rita 	10	Octubre	2023-10-22T00:00:00	2024-11-08T19:00:00	7	Dirección del viento	6.44
124615	7	Sololá	704	Santa Lucía Utatlán 	7	Santa Rita 	10	Octubre	2023-10-22T00:00:00	2024-11-08T19:00:00	1	Precipitación	0
124616	7	Sololá	704	Santa Lucía Utatlán 	7	Santa Rita 	10	Octubre	2023-10-22T00:00:00	2024-11-08T19:00:00	8	Radiación solar	0
124617	7	Sololá	704	Santa Lucía Utatlán 	7	Santa Rita 	10	Octubre	2023-10-22T00:00:00	2024-11-08T20:00:00	2	Temperatura media	24.3
124618	7	Sololá	704	Santa Lucía Utatlán 	7	Santa Rita 	10	Octubre	2023-10-22T00:00:00	2024-11-08T20:00:00	4	Temperatura máxima	25.6
124619	7	Sololá	704	Santa Lucía Utatlán 	7	Santa Rita 	10	Octubre	2023-10-22T00:00:00	2024-11-08T20:00:00	3	Temperatura mínima	24.3
124620	7	Sololá	704	Santa Lucía Utatlán 	7	Santa Rita 	10	Octubre	2023-10-22T00:00:00	2024-11-08T20:00:00	5	Humedad	76
124621	7	Sololá	704	Santa Lucía Utatlán 	7	Santa Rita 	10	Octubre	2023-10-22T00:00:00	2024-11-08T20:00:00	6	Velocidad del viento	4.8
124622	7	Sololá	704	Santa Lucía Utatlán 	7	Santa Rita 	10	Octubre	2023-10-22T00:00:00	2024-11-08T20:00:00	7	Dirección del viento	4.83
124623	7	Sololá	704	Santa Lucía Utatlán 	7	Santa Rita 	10	Octubre	2023-10-22T00:00:00	2024-11-08T20:00:00	1	Precipitación	0
124624	7	Sololá	704	Santa Lucía Utatlán 	7	Santa Rita 	10	Octubre	2023-10-22T00:00:00	2024-11-08T20:00:00	8	Radiación solar	0
124625	7	Sololá	704	Santa Lucía Utatlán 	7	Santa Rita 	10	Octubre	2023-10-22T00:00:00	2024-11-08T21:00:00	2	Temperatura media	22.6
124626	7	Sololá	704	Santa Lucía Utatlán 	7	Santa Rita 	10	Octubre	2023-10-22T00:00:00	2024-11-08T21:00:00	4	Temperatura máxima	24.3
124627	7	Sololá	704	Santa Lucía Utatlán 	7	Santa Rita 	10	Octubre	2023-10-22T00:00:00	2024-11-08T21:00:00	3	Temperatura mínima	22.6
124628	7	Sololá	704	Santa Lucía Utatlán 	7	Santa Rita 	10	Octubre	2023-10-22T00:00:00	2024-11-08T21:00:00	5	Humedad	82
124629	7	Sololá	704	Santa Lucía Utatlán 	7	Santa Rita 	10	Octubre	2023-10-22T00:00:00	2024-11-08T21:00:00	6	Velocidad del viento	6.4
124630	7	Sololá	704	Santa Lucía Utatlán 	7	Santa Rita 	10	Octubre	2023-10-22T00:00:00	2024-11-08T21:00:00	7	Dirección del viento	6.44
124631	7	Sololá	704	Santa Lucía Utatlán 	7	Santa Rita 	10	Octubre	2023-10-22T00:00:00	2024-11-08T21:00:00	1	Precipitación	0
124632	7	Sololá	704	Santa Lucía Utatlán 	7	Santa Rita 	10	Octubre	2023-10-22T00:00:00	2024-11-08T21:00:00	8	Radiación solar	0
124633	7	Sololá	704	Santa Lucía Utatlán 	7	Santa Rita 	10	Octubre	2023-10-22T00:00:00	2024-11-08T22:00:00	2	Temperatura media	22.4
124634	7	Sololá	704	Santa Lucía Utatlán 	7	Santa Rita 	10	Octubre	2023-10-22T00:00:00	2024-11-08T22:00:00	4	Temperatura máxima	22.6
124635	7	Sololá	704	Santa Lucía Utatlán 	7	Santa Rita 	10	Octubre	2023-10-22T00:00:00	2024-11-08T22:00:00	3	Temperatura mínima	21.9
124636	7	Sololá	704	Santa Lucía Utatlán 	7	Santa Rita 	10	Octubre	2023-10-22T00:00:00	2024-11-08T22:00:00	5	Humedad	81
124637	7	Sololá	704	Santa Lucía Utatlán 	7	Santa Rita 	10	Octubre	2023-10-22T00:00:00	2024-11-08T22:00:00	6	Velocidad del viento	4.8
124638	7	Sololá	704	Santa Lucía Utatlán 	7	Santa Rita 	10	Octubre	2023-10-22T00:00:00	2024-11-08T22:00:00	7	Dirección del viento	4.83
124639	7	Sololá	704	Santa Lucía Utatlán 	7	Santa Rita 	10	Octubre	2023-10-22T00:00:00	2024-11-08T22:00:00	1	Precipitación	0
124640	7	Sololá	704	Santa Lucía Utatlán 	7	Santa Rita 	10	Octubre	2023-10-22T00:00:00	2024-11-08T22:00:00	8	Radiación solar	0
124641	7	Sololá	704	Santa Lucía Utatlán 	7	Santa Rita 	10	Octubre	2023-10-22T00:00:00	2024-11-08T23:00:00	2	Temperatura media	21.4
124642	7	Sololá	704	Santa Lucía Utatlán 	7	Santa Rita 	10	Octubre	2023-10-22T00:00:00	2024-11-08T23:00:00	4	Temperatura máxima	23
124643	7	Sololá	704	Santa Lucía Utatlán 	7	Santa Rita 	10	Octubre	2023-10-22T00:00:00	2024-11-08T23:00:00	3	Temperatura mínima	21.4
124644	7	Sololá	704	Santa Lucía Utatlán 	7	Santa Rita 	10	Octubre	2023-10-22T00:00:00	2024-11-08T23:00:00	5	Humedad	88
124645	7	Sololá	704	Santa Lucía Utatlán 	7	Santa Rita 	10	Octubre	2023-10-22T00:00:00	2024-11-08T23:00:00	6	Velocidad del viento	6.4
124646	7	Sololá	704	Santa Lucía Utatlán 	7	Santa Rita 	10	Octubre	2023-10-22T00:00:00	2024-11-08T23:00:00	7	Dirección del viento	6.44
124647	7	Sololá	704	Santa Lucía Utatlán 	7	Santa Rita 	10	Octubre	2023-10-22T00:00:00	2024-11-08T23:00:00	1	Precipitación	0
124648	7	Sololá	704	Santa Lucía Utatlán 	7	Santa Rita 	10	Octubre	2023-10-22T00:00:00	2024-11-08T23:00:00	8	Radiación solar	0
124649	7	Sololá	704	Santa Lucía Utatlán 	7	Santa Rita 	10	Octubre	2023-10-23T00:00:00	2024-11-08T00:00:00	2	Temperatura media	16
124650	7	Sololá	704	Santa Lucía Utatlán 	7	Santa Rita 	10	Octubre	2023-10-23T00:00:00	2024-11-08T00:00:00	4	Temperatura máxima	17.4
124651	7	Sololá	704	Santa Lucía Utatlán 	7	Santa Rita 	10	Octubre	2023-10-23T00:00:00	2024-11-08T00:00:00	3	Temperatura mínima	15.7
124652	7	Sololá	704	Santa Lucía Utatlán 	7	Santa Rita 	10	Octubre	2023-10-23T00:00:00	2024-11-08T00:00:00	5	Humedad	74
124653	7	Sololá	704	Santa Lucía Utatlán 	7	Santa Rita 	10	Octubre	2023-10-23T00:00:00	2024-11-08T00:00:00	6	Velocidad del viento	3.2
124654	7	Sololá	704	Santa Lucía Utatlán 	7	Santa Rita 	10	Octubre	2023-10-23T00:00:00	2024-11-08T00:00:00	7	Dirección del viento	3.22
124655	7	Sololá	704	Santa Lucía Utatlán 	7	Santa Rita 	10	Octubre	2023-10-23T00:00:00	2024-11-08T00:00:00	1	Precipitación	0
124656	7	Sololá	704	Santa Lucía Utatlán 	7	Santa Rita 	10	Octubre	2023-10-23T00:00:00	2024-11-08T00:00:00	8	Radiación solar	0
124657	7	Sololá	704	Santa Lucía Utatlán 	7	Santa Rita 	10	Octubre	2023-10-23T00:00:00	2024-11-08T01:00:00	2	Temperatura media	16.1
124658	7	Sololá	704	Santa Lucía Utatlán 	7	Santa Rita 	10	Octubre	2023-10-23T00:00:00	2024-11-08T01:00:00	4	Temperatura máxima	16.5
124659	7	Sololá	704	Santa Lucía Utatlán 	7	Santa Rita 	10	Octubre	2023-10-23T00:00:00	2024-11-08T01:00:00	3	Temperatura mínima	16
124660	7	Sololá	704	Santa Lucía Utatlán 	7	Santa Rita 	10	Octubre	2023-10-23T00:00:00	2024-11-08T01:00:00	5	Humedad	77
124661	7	Sololá	704	Santa Lucía Utatlán 	7	Santa Rita 	10	Octubre	2023-10-23T00:00:00	2024-11-08T01:00:00	6	Velocidad del viento	1.6
124662	7	Sololá	704	Santa Lucía Utatlán 	7	Santa Rita 	10	Octubre	2023-10-23T00:00:00	2024-11-08T01:00:00	7	Dirección del viento	1.61
124663	7	Sololá	704	Santa Lucía Utatlán 	7	Santa Rita 	10	Octubre	2023-10-23T00:00:00	2024-11-08T01:00:00	1	Precipitación	0
124664	7	Sololá	704	Santa Lucía Utatlán 	7	Santa Rita 	10	Octubre	2023-10-23T00:00:00	2024-11-08T01:00:00	8	Radiación solar	0
124665	7	Sololá	704	Santa Lucía Utatlán 	7	Santa Rita 	10	Octubre	2023-10-23T00:00:00	2024-11-08T02:00:00	2	Temperatura media	19.7
124666	7	Sololá	704	Santa Lucía Utatlán 	7	Santa Rita 	10	Octubre	2023-10-23T00:00:00	2024-11-08T02:00:00	4	Temperatura máxima	19.8
124667	7	Sololá	704	Santa Lucía Utatlán 	7	Santa Rita 	10	Octubre	2023-10-23T00:00:00	2024-11-08T02:00:00	3	Temperatura mínima	19.6
124668	7	Sololá	704	Santa Lucía Utatlán 	7	Santa Rita 	10	Octubre	2023-10-23T00:00:00	2024-11-08T02:00:00	5	Humedad	95
124669	7	Sololá	704	Santa Lucía Utatlán 	7	Santa Rita 	10	Octubre	2023-10-23T00:00:00	2024-11-08T02:00:00	6	Velocidad del viento	0
124670	7	Sololá	704	Santa Lucía Utatlán 	7	Santa Rita 	10	Octubre	2023-10-23T00:00:00	2024-11-08T02:00:00	7	Dirección del viento	0
124671	7	Sololá	704	Santa Lucía Utatlán 	7	Santa Rita 	10	Octubre	2023-10-23T00:00:00	2024-11-08T02:00:00	1	Precipitación	0
124672	7	Sololá	704	Santa Lucía Utatlán 	7	Santa Rita 	10	Octubre	2023-10-23T00:00:00	2024-11-08T02:00:00	8	Radiación solar	0
124673	7	Sololá	704	Santa Lucía Utatlán 	7	Santa Rita 	10	Octubre	2023-10-23T00:00:00	2024-11-08T03:00:00	2	Temperatura media	19.9
124674	7	Sololá	704	Santa Lucía Utatlán 	7	Santa Rita 	10	Octubre	2023-10-23T00:00:00	2024-11-08T03:00:00	4	Temperatura máxima	19.9
124675	7	Sololá	704	Santa Lucía Utatlán 	7	Santa Rita 	10	Octubre	2023-10-23T00:00:00	2024-11-08T03:00:00	3	Temperatura mínima	19.7
124676	7	Sololá	704	Santa Lucía Utatlán 	7	Santa Rita 	10	Octubre	2023-10-23T00:00:00	2024-11-08T03:00:00	5	Humedad	96
124677	7	Sololá	704	Santa Lucía Utatlán 	7	Santa Rita 	10	Octubre	2023-10-23T00:00:00	2024-11-08T03:00:00	6	Velocidad del viento	1.6
124678	7	Sololá	704	Santa Lucía Utatlán 	7	Santa Rita 	10	Octubre	2023-10-23T00:00:00	2024-11-08T03:00:00	7	Dirección del viento	1.61
124679	7	Sololá	704	Santa Lucía Utatlán 	7	Santa Rita 	10	Octubre	2023-10-23T00:00:00	2024-11-08T03:00:00	1	Precipitación	0
124680	7	Sololá	704	Santa Lucía Utatlán 	7	Santa Rita 	10	Octubre	2023-10-23T00:00:00	2024-11-08T03:00:00	8	Radiación solar	0
124681	7	Sololá	704	Santa Lucía Utatlán 	7	Santa Rita 	10	Octubre	2023-10-23T00:00:00	2024-11-08T04:00:00	2	Temperatura media	19.7
124682	7	Sololá	704	Santa Lucía Utatlán 	7	Santa Rita 	10	Octubre	2023-10-23T00:00:00	2024-11-08T04:00:00	4	Temperatura máxima	19.9
124683	7	Sololá	704	Santa Lucía Utatlán 	7	Santa Rita 	10	Octubre	2023-10-23T00:00:00	2024-11-08T04:00:00	3	Temperatura mínima	19.6
124684	7	Sololá	704	Santa Lucía Utatlán 	7	Santa Rita 	10	Octubre	2023-10-23T00:00:00	2024-11-08T04:00:00	5	Humedad	96
124685	7	Sololá	704	Santa Lucía Utatlán 	7	Santa Rita 	10	Octubre	2023-10-23T00:00:00	2024-11-08T04:00:00	6	Velocidad del viento	0
124686	7	Sololá	704	Santa Lucía Utatlán 	7	Santa Rita 	10	Octubre	2023-10-23T00:00:00	2024-11-08T04:00:00	7	Dirección del viento	0
124687	7	Sololá	704	Santa Lucía Utatlán 	7	Santa Rita 	10	Octubre	2023-10-23T00:00:00	2024-11-08T04:00:00	1	Precipitación	2.6
124688	7	Sololá	704	Santa Lucía Utatlán 	7	Santa Rita 	10	Octubre	2023-10-23T00:00:00	2024-11-08T04:00:00	8	Radiación solar	0
124689	7	Sololá	704	Santa Lucía Utatlán 	7	Santa Rita 	10	Octubre	2023-10-23T00:00:00	2024-11-08T05:00:00	2	Temperatura media	19.3
124690	7	Sololá	704	Santa Lucía Utatlán 	7	Santa Rita 	10	Octubre	2023-10-23T00:00:00	2024-11-08T05:00:00	4	Temperatura máxima	19.7
124691	7	Sololá	704	Santa Lucía Utatlán 	7	Santa Rita 	10	Octubre	2023-10-23T00:00:00	2024-11-08T05:00:00	3	Temperatura mínima	19.3
124692	7	Sololá	704	Santa Lucía Utatlán 	7	Santa Rita 	10	Octubre	2023-10-23T00:00:00	2024-11-08T05:00:00	5	Humedad	97
124693	7	Sololá	704	Santa Lucía Utatlán 	7	Santa Rita 	10	Octubre	2023-10-23T00:00:00	2024-11-08T05:00:00	6	Velocidad del viento	0
124694	7	Sololá	704	Santa Lucía Utatlán 	7	Santa Rita 	10	Octubre	2023-10-23T00:00:00	2024-11-08T05:00:00	7	Dirección del viento	0
124695	7	Sololá	704	Santa Lucía Utatlán 	7	Santa Rita 	10	Octubre	2023-10-23T00:00:00	2024-11-08T05:00:00	1	Precipitación	2
124696	7	Sololá	704	Santa Lucía Utatlán 	7	Santa Rita 	10	Octubre	2023-10-23T00:00:00	2024-11-08T05:00:00	8	Radiación solar	0
124697	7	Sololá	704	Santa Lucía Utatlán 	7	Santa Rita 	10	Octubre	2023-10-23T00:00:00	2024-11-08T06:00:00	2	Temperatura media	18.8
124698	7	Sololá	704	Santa Lucía Utatlán 	7	Santa Rita 	10	Octubre	2023-10-23T00:00:00	2024-11-08T06:00:00	4	Temperatura máxima	19.3
124699	7	Sololá	704	Santa Lucía Utatlán 	7	Santa Rita 	10	Octubre	2023-10-23T00:00:00	2024-11-08T06:00:00	3	Temperatura mínima	18.8
124700	7	Sololá	704	Santa Lucía Utatlán 	7	Santa Rita 	10	Octubre	2023-10-23T00:00:00	2024-11-08T06:00:00	5	Humedad	96
124701	7	Sololá	704	Santa Lucía Utatlán 	7	Santa Rita 	10	Octubre	2023-10-23T00:00:00	2024-11-08T06:00:00	6	Velocidad del viento	0
124702	7	Sololá	704	Santa Lucía Utatlán 	7	Santa Rita 	10	Octubre	2023-10-23T00:00:00	2024-11-08T06:00:00	7	Dirección del viento	0
124703	7	Sololá	704	Santa Lucía Utatlán 	7	Santa Rita 	10	Octubre	2023-10-23T00:00:00	2024-11-08T06:00:00	1	Precipitación	1.2
124704	7	Sololá	704	Santa Lucía Utatlán 	7	Santa Rita 	10	Octubre	2023-10-23T00:00:00	2024-11-08T06:00:00	8	Radiación solar	4
124705	7	Sololá	704	Santa Lucía Utatlán 	7	Santa Rita 	10	Octubre	2023-10-23T00:00:00	2024-11-08T07:00:00	2	Temperatura media	18.3
124706	7	Sololá	704	Santa Lucía Utatlán 	7	Santa Rita 	10	Octubre	2023-10-23T00:00:00	2024-11-08T07:00:00	4	Temperatura máxima	18.8
124707	7	Sololá	704	Santa Lucía Utatlán 	7	Santa Rita 	10	Octubre	2023-10-23T00:00:00	2024-11-08T07:00:00	3	Temperatura mínima	18.3
124708	7	Sololá	704	Santa Lucía Utatlán 	7	Santa Rita 	10	Octubre	2023-10-23T00:00:00	2024-11-08T07:00:00	5	Humedad	96
124709	7	Sololá	704	Santa Lucía Utatlán 	7	Santa Rita 	10	Octubre	2023-10-23T00:00:00	2024-11-08T07:00:00	6	Velocidad del viento	1.6
124710	7	Sololá	704	Santa Lucía Utatlán 	7	Santa Rita 	10	Octubre	2023-10-23T00:00:00	2024-11-08T07:00:00	7	Dirección del viento	1.61
124711	7	Sololá	704	Santa Lucía Utatlán 	7	Santa Rita 	10	Octubre	2023-10-23T00:00:00	2024-11-08T07:00:00	1	Precipitación	0.2
124712	7	Sololá	704	Santa Lucía Utatlán 	7	Santa Rita 	10	Octubre	2023-10-23T00:00:00	2024-11-08T07:00:00	8	Radiación solar	135
124713	7	Sololá	704	Santa Lucía Utatlán 	7	Santa Rita 	10	Octubre	2023-10-23T00:00:00	2024-11-08T08:00:00	2	Temperatura media	18.4
124714	7	Sololá	704	Santa Lucía Utatlán 	7	Santa Rita 	10	Octubre	2023-10-23T00:00:00	2024-11-08T08:00:00	4	Temperatura máxima	18.4
124715	7	Sololá	704	Santa Lucía Utatlán 	7	Santa Rita 	10	Octubre	2023-10-23T00:00:00	2024-11-08T08:00:00	3	Temperatura mínima	18.2
124716	7	Sololá	704	Santa Lucía Utatlán 	7	Santa Rita 	10	Octubre	2023-10-23T00:00:00	2024-11-08T08:00:00	5	Humedad	96
124717	7	Sololá	704	Santa Lucía Utatlán 	7	Santa Rita 	10	Octubre	2023-10-23T00:00:00	2024-11-08T08:00:00	6	Velocidad del viento	1.6
124718	7	Sololá	704	Santa Lucía Utatlán 	7	Santa Rita 	10	Octubre	2023-10-23T00:00:00	2024-11-08T08:00:00	7	Dirección del viento	1.61
124719	7	Sololá	704	Santa Lucía Utatlán 	7	Santa Rita 	10	Octubre	2023-10-23T00:00:00	2024-11-08T08:00:00	1	Precipitación	0
124720	7	Sololá	704	Santa Lucía Utatlán 	7	Santa Rita 	10	Octubre	2023-10-23T00:00:00	2024-11-08T08:00:00	8	Radiación solar	350
124721	7	Sololá	704	Santa Lucía Utatlán 	7	Santa Rita 	10	Octubre	2023-10-23T00:00:00	2024-11-08T09:00:00	2	Temperatura media	18
124722	7	Sololá	704	Santa Lucía Utatlán 	7	Santa Rita 	10	Octubre	2023-10-23T00:00:00	2024-11-08T09:00:00	4	Temperatura máxima	18.4
124723	7	Sololá	704	Santa Lucía Utatlán 	7	Santa Rita 	10	Octubre	2023-10-23T00:00:00	2024-11-08T09:00:00	3	Temperatura mínima	17.9
124724	7	Sololá	704	Santa Lucía Utatlán 	7	Santa Rita 	10	Octubre	2023-10-23T00:00:00	2024-11-08T09:00:00	5	Humedad	96
124725	7	Sololá	704	Santa Lucía Utatlán 	7	Santa Rita 	10	Octubre	2023-10-23T00:00:00	2024-11-08T09:00:00	6	Velocidad del viento	1.6
124726	7	Sololá	704	Santa Lucía Utatlán 	7	Santa Rita 	10	Octubre	2023-10-23T00:00:00	2024-11-08T09:00:00	7	Dirección del viento	1.61
124727	7	Sololá	704	Santa Lucía Utatlán 	7	Santa Rita 	10	Octubre	2023-10-23T00:00:00	2024-11-08T09:00:00	1	Precipitación	0
124728	7	Sololá	704	Santa Lucía Utatlán 	7	Santa Rita 	10	Octubre	2023-10-23T00:00:00	2024-11-08T09:00:00	8	Radiación solar	569
124729	7	Sololá	704	Santa Lucía Utatlán 	7	Santa Rita 	10	Octubre	2023-10-23T00:00:00	2024-11-08T10:00:00	2	Temperatura media	17.3
124730	7	Sololá	704	Santa Lucía Utatlán 	7	Santa Rita 	10	Octubre	2023-10-23T00:00:00	2024-11-08T10:00:00	4	Temperatura máxima	18.1
124731	7	Sololá	704	Santa Lucía Utatlán 	7	Santa Rita 	10	Octubre	2023-10-23T00:00:00	2024-11-08T10:00:00	3	Temperatura mínima	17.3
124732	7	Sololá	704	Santa Lucía Utatlán 	7	Santa Rita 	10	Octubre	2023-10-23T00:00:00	2024-11-08T10:00:00	5	Humedad	96
124733	7	Sololá	704	Santa Lucía Utatlán 	7	Santa Rita 	10	Octubre	2023-10-23T00:00:00	2024-11-08T10:00:00	6	Velocidad del viento	3.2
124734	7	Sololá	704	Santa Lucía Utatlán 	7	Santa Rita 	10	Octubre	2023-10-23T00:00:00	2024-11-08T10:00:00	7	Dirección del viento	3.22
124735	7	Sololá	704	Santa Lucía Utatlán 	7	Santa Rita 	10	Octubre	2023-10-23T00:00:00	2024-11-08T10:00:00	1	Precipitación	0
124736	7	Sololá	704	Santa Lucía Utatlán 	7	Santa Rita 	10	Octubre	2023-10-23T00:00:00	2024-11-08T10:00:00	8	Radiación solar	804
124737	7	Sololá	704	Santa Lucía Utatlán 	7	Santa Rita 	10	Octubre	2023-10-23T00:00:00	2024-11-08T11:00:00	2	Temperatura media	17.6
124738	7	Sololá	704	Santa Lucía Utatlán 	7	Santa Rita 	10	Octubre	2023-10-23T00:00:00	2024-11-08T11:00:00	4	Temperatura máxima	17.7
124739	7	Sololá	704	Santa Lucía Utatlán 	7	Santa Rita 	10	Octubre	2023-10-23T00:00:00	2024-11-08T11:00:00	3	Temperatura mínima	17.3
124740	7	Sololá	704	Santa Lucía Utatlán 	7	Santa Rita 	10	Octubre	2023-10-23T00:00:00	2024-11-08T11:00:00	5	Humedad	95
124741	7	Sololá	704	Santa Lucía Utatlán 	7	Santa Rita 	10	Octubre	2023-10-23T00:00:00	2024-11-08T11:00:00	6	Velocidad del viento	3.2
124742	7	Sololá	704	Santa Lucía Utatlán 	7	Santa Rita 	10	Octubre	2023-10-23T00:00:00	2024-11-08T11:00:00	7	Dirección del viento	3.22
124743	7	Sololá	704	Santa Lucía Utatlán 	7	Santa Rita 	10	Octubre	2023-10-23T00:00:00	2024-11-08T11:00:00	1	Precipitación	0
124744	7	Sololá	704	Santa Lucía Utatlán 	7	Santa Rita 	10	Octubre	2023-10-23T00:00:00	2024-11-08T11:00:00	8	Radiación solar	641
124745	7	Sololá	704	Santa Lucía Utatlán 	7	Santa Rita 	10	Octubre	2023-10-23T00:00:00	2024-11-08T12:00:00	2	Temperatura media	17.4
124746	7	Sololá	704	Santa Lucía Utatlán 	7	Santa Rita 	10	Octubre	2023-10-23T00:00:00	2024-11-08T12:00:00	4	Temperatura máxima	17.6
124747	7	Sololá	704	Santa Lucía Utatlán 	7	Santa Rita 	10	Octubre	2023-10-23T00:00:00	2024-11-08T12:00:00	3	Temperatura mínima	17.2
124748	7	Sololá	704	Santa Lucía Utatlán 	7	Santa Rita 	10	Octubre	2023-10-23T00:00:00	2024-11-08T12:00:00	5	Humedad	96
124749	7	Sololá	704	Santa Lucía Utatlán 	7	Santa Rita 	10	Octubre	2023-10-23T00:00:00	2024-11-08T12:00:00	6	Velocidad del viento	1.6
124750	7	Sololá	704	Santa Lucía Utatlán 	7	Santa Rita 	10	Octubre	2023-10-23T00:00:00	2024-11-08T12:00:00	7	Dirección del viento	1.61
124751	7	Sololá	704	Santa Lucía Utatlán 	7	Santa Rita 	10	Octubre	2023-10-23T00:00:00	2024-11-08T12:00:00	1	Precipitación	0
124752	7	Sololá	704	Santa Lucía Utatlán 	7	Santa Rita 	10	Octubre	2023-10-23T00:00:00	2024-11-08T12:00:00	8	Radiación solar	502
124753	7	Sololá	704	Santa Lucía Utatlán 	7	Santa Rita 	10	Octubre	2023-10-23T00:00:00	2024-11-08T13:00:00	2	Temperatura media	20.4
124754	7	Sololá	704	Santa Lucía Utatlán 	7	Santa Rita 	10	Octubre	2023-10-23T00:00:00	2024-11-08T13:00:00	4	Temperatura máxima	20.4
124755	7	Sololá	704	Santa Lucía Utatlán 	7	Santa Rita 	10	Octubre	2023-10-23T00:00:00	2024-11-08T13:00:00	3	Temperatura mínima	17.4
124756	7	Sololá	704	Santa Lucía Utatlán 	7	Santa Rita 	10	Octubre	2023-10-23T00:00:00	2024-11-08T13:00:00	5	Humedad	89
124757	7	Sololá	704	Santa Lucía Utatlán 	7	Santa Rita 	10	Octubre	2023-10-23T00:00:00	2024-11-08T13:00:00	6	Velocidad del viento	1.6
124758	7	Sololá	704	Santa Lucía Utatlán 	7	Santa Rita 	10	Octubre	2023-10-23T00:00:00	2024-11-08T13:00:00	7	Dirección del viento	1.61
124759	7	Sololá	704	Santa Lucía Utatlán 	7	Santa Rita 	10	Octubre	2023-10-23T00:00:00	2024-11-08T13:00:00	1	Precipitación	0
124760	7	Sololá	704	Santa Lucía Utatlán 	7	Santa Rita 	10	Octubre	2023-10-23T00:00:00	2024-11-08T13:00:00	8	Radiación solar	113
124761	7	Sololá	704	Santa Lucía Utatlán 	7	Santa Rita 	10	Octubre	2023-10-23T00:00:00	2024-11-08T14:00:00	2	Temperatura media	22.3
124762	7	Sololá	704	Santa Lucía Utatlán 	7	Santa Rita 	10	Octubre	2023-10-23T00:00:00	2024-11-08T14:00:00	4	Temperatura máxima	22.3
124763	7	Sololá	704	Santa Lucía Utatlán 	7	Santa Rita 	10	Octubre	2023-10-23T00:00:00	2024-11-08T14:00:00	3	Temperatura mínima	20.4
124764	7	Sololá	704	Santa Lucía Utatlán 	7	Santa Rita 	10	Octubre	2023-10-23T00:00:00	2024-11-08T14:00:00	5	Humedad	80
124765	7	Sololá	704	Santa Lucía Utatlán 	7	Santa Rita 	10	Octubre	2023-10-23T00:00:00	2024-11-08T14:00:00	6	Velocidad del viento	3.2
124766	7	Sololá	704	Santa Lucía Utatlán 	7	Santa Rita 	10	Octubre	2023-10-23T00:00:00	2024-11-08T14:00:00	7	Dirección del viento	3.22
124767	7	Sololá	704	Santa Lucía Utatlán 	7	Santa Rita 	10	Octubre	2023-10-23T00:00:00	2024-11-08T14:00:00	1	Precipitación	0
124768	7	Sololá	704	Santa Lucía Utatlán 	7	Santa Rita 	10	Octubre	2023-10-23T00:00:00	2024-11-08T14:00:00	8	Radiación solar	38
124769	7	Sololá	704	Santa Lucía Utatlán 	7	Santa Rita 	10	Octubre	2023-10-23T00:00:00	2024-11-08T15:00:00	2	Temperatura media	24.3
124770	7	Sololá	704	Santa Lucía Utatlán 	7	Santa Rita 	10	Octubre	2023-10-23T00:00:00	2024-11-08T15:00:00	4	Temperatura máxima	24.3
124771	7	Sololá	704	Santa Lucía Utatlán 	7	Santa Rita 	10	Octubre	2023-10-23T00:00:00	2024-11-08T15:00:00	3	Temperatura mínima	22.4
124772	7	Sololá	704	Santa Lucía Utatlán 	7	Santa Rita 	10	Octubre	2023-10-23T00:00:00	2024-11-08T15:00:00	5	Humedad	79
124773	7	Sololá	704	Santa Lucía Utatlán 	7	Santa Rita 	10	Octubre	2023-10-23T00:00:00	2024-11-08T15:00:00	6	Velocidad del viento	3.2
124774	7	Sololá	704	Santa Lucía Utatlán 	7	Santa Rita 	10	Octubre	2023-10-23T00:00:00	2024-11-08T15:00:00	7	Dirección del viento	3.22
124775	7	Sololá	704	Santa Lucía Utatlán 	7	Santa Rita 	10	Octubre	2023-10-23T00:00:00	2024-11-08T15:00:00	1	Precipitación	0
124776	7	Sololá	704	Santa Lucía Utatlán 	7	Santa Rita 	10	Octubre	2023-10-23T00:00:00	2024-11-08T15:00:00	8	Radiación solar	91
124777	7	Sololá	704	Santa Lucía Utatlán 	7	Santa Rita 	10	Octubre	2023-10-23T00:00:00	2024-11-08T16:00:00	2	Temperatura media	25.7
124778	7	Sololá	704	Santa Lucía Utatlán 	7	Santa Rita 	10	Octubre	2023-10-23T00:00:00	2024-11-08T16:00:00	4	Temperatura máxima	25.9
124779	7	Sololá	704	Santa Lucía Utatlán 	7	Santa Rita 	10	Octubre	2023-10-23T00:00:00	2024-11-08T16:00:00	3	Temperatura mínima	24.3
124780	7	Sololá	704	Santa Lucía Utatlán 	7	Santa Rita 	10	Octubre	2023-10-23T00:00:00	2024-11-08T16:00:00	5	Humedad	74
124781	7	Sololá	704	Santa Lucía Utatlán 	7	Santa Rita 	10	Octubre	2023-10-23T00:00:00	2024-11-08T16:00:00	6	Velocidad del viento	6.4
124782	7	Sololá	704	Santa Lucía Utatlán 	7	Santa Rita 	10	Octubre	2023-10-23T00:00:00	2024-11-08T16:00:00	7	Dirección del viento	6.44
124783	7	Sololá	704	Santa Lucía Utatlán 	7	Santa Rita 	10	Octubre	2023-10-23T00:00:00	2024-11-08T16:00:00	1	Precipitación	0
124784	7	Sololá	704	Santa Lucía Utatlán 	7	Santa Rita 	10	Octubre	2023-10-23T00:00:00	2024-11-08T16:00:00	8	Radiación solar	0
124785	7	Sololá	704	Santa Lucía Utatlán 	7	Santa Rita 	10	Octubre	2023-10-23T00:00:00	2024-11-08T17:00:00	2	Temperatura media	24.7
124786	7	Sololá	704	Santa Lucía Utatlán 	7	Santa Rita 	10	Octubre	2023-10-23T00:00:00	2024-11-08T17:00:00	4	Temperatura máxima	26
124787	7	Sololá	704	Santa Lucía Utatlán 	7	Santa Rita 	10	Octubre	2023-10-23T00:00:00	2024-11-08T17:00:00	3	Temperatura mínima	24.7
124788	7	Sololá	704	Santa Lucía Utatlán 	7	Santa Rita 	10	Octubre	2023-10-23T00:00:00	2024-11-08T17:00:00	5	Humedad	74
124789	7	Sololá	704	Santa Lucía Utatlán 	7	Santa Rita 	10	Octubre	2023-10-23T00:00:00	2024-11-08T17:00:00	6	Velocidad del viento	9.7
124790	7	Sololá	704	Santa Lucía Utatlán 	7	Santa Rita 	10	Octubre	2023-10-23T00:00:00	2024-11-08T17:00:00	7	Dirección del viento	9.66
124791	7	Sololá	704	Santa Lucía Utatlán 	7	Santa Rita 	10	Octubre	2023-10-23T00:00:00	2024-11-08T17:00:00	1	Precipitación	0
124792	7	Sololá	704	Santa Lucía Utatlán 	7	Santa Rita 	10	Octubre	2023-10-23T00:00:00	2024-11-08T17:00:00	8	Radiación solar	0
124793	7	Sololá	704	Santa Lucía Utatlán 	7	Santa Rita 	10	Octubre	2023-10-23T00:00:00	2024-11-08T18:00:00	2	Temperatura media	23.9
124794	7	Sololá	704	Santa Lucía Utatlán 	7	Santa Rita 	10	Octubre	2023-10-23T00:00:00	2024-11-08T18:00:00	4	Temperatura máxima	25.9
124795	7	Sololá	704	Santa Lucía Utatlán 	7	Santa Rita 	10	Octubre	2023-10-23T00:00:00	2024-11-08T18:00:00	3	Temperatura mínima	23.9
124796	7	Sololá	704	Santa Lucía Utatlán 	7	Santa Rita 	10	Octubre	2023-10-23T00:00:00	2024-11-08T18:00:00	5	Humedad	83
124797	7	Sololá	704	Santa Lucía Utatlán 	7	Santa Rita 	10	Octubre	2023-10-23T00:00:00	2024-11-08T18:00:00	6	Velocidad del viento	8
124798	7	Sololá	704	Santa Lucía Utatlán 	7	Santa Rita 	10	Octubre	2023-10-23T00:00:00	2024-11-08T18:00:00	7	Dirección del viento	8.05
124799	7	Sololá	704	Santa Lucía Utatlán 	7	Santa Rita 	10	Octubre	2023-10-23T00:00:00	2024-11-08T18:00:00	1	Precipitación	0
124800	7	Sololá	704	Santa Lucía Utatlán 	7	Santa Rita 	10	Octubre	2023-10-23T00:00:00	2024-11-08T18:00:00	8	Radiación solar	0
124801	7	Sololá	704	Santa Lucía Utatlán 	7	Santa Rita 	10	Octubre	2023-10-23T00:00:00	2024-11-08T19:00:00	2	Temperatura media	22.1
124802	7	Sololá	704	Santa Lucía Utatlán 	7	Santa Rita 	10	Octubre	2023-10-23T00:00:00	2024-11-08T19:00:00	4	Temperatura máxima	24.1
124803	7	Sololá	704	Santa Lucía Utatlán 	7	Santa Rita 	10	Octubre	2023-10-23T00:00:00	2024-11-08T19:00:00	3	Temperatura mínima	22.1
124804	7	Sololá	704	Santa Lucía Utatlán 	7	Santa Rita 	10	Octubre	2023-10-23T00:00:00	2024-11-08T19:00:00	5	Humedad	87
124805	7	Sololá	704	Santa Lucía Utatlán 	7	Santa Rita 	10	Octubre	2023-10-23T00:00:00	2024-11-08T19:00:00	6	Velocidad del viento	4.8
124806	7	Sololá	704	Santa Lucía Utatlán 	7	Santa Rita 	10	Octubre	2023-10-23T00:00:00	2024-11-08T19:00:00	7	Dirección del viento	4.83
124807	7	Sololá	704	Santa Lucía Utatlán 	7	Santa Rita 	10	Octubre	2023-10-23T00:00:00	2024-11-08T19:00:00	1	Precipitación	0
124808	7	Sololá	704	Santa Lucía Utatlán 	7	Santa Rita 	10	Octubre	2023-10-23T00:00:00	2024-11-08T19:00:00	8	Radiación solar	0
124809	7	Sololá	704	Santa Lucía Utatlán 	7	Santa Rita 	10	Octubre	2023-10-23T00:00:00	2024-11-08T20:00:00	2	Temperatura media	19.8
124810	7	Sololá	704	Santa Lucía Utatlán 	7	Santa Rita 	10	Octubre	2023-10-23T00:00:00	2024-11-08T20:00:00	4	Temperatura máxima	22.1
124811	7	Sololá	704	Santa Lucía Utatlán 	7	Santa Rita 	10	Octubre	2023-10-23T00:00:00	2024-11-08T20:00:00	3	Temperatura mínima	19.4
124812	7	Sololá	704	Santa Lucía Utatlán 	7	Santa Rita 	10	Octubre	2023-10-23T00:00:00	2024-11-08T20:00:00	5	Humedad	96
124813	7	Sololá	704	Santa Lucía Utatlán 	7	Santa Rita 	10	Octubre	2023-10-23T00:00:00	2024-11-08T20:00:00	6	Velocidad del viento	4.8
124814	7	Sololá	704	Santa Lucía Utatlán 	7	Santa Rita 	10	Octubre	2023-10-23T00:00:00	2024-11-08T20:00:00	7	Dirección del viento	4.83
124815	7	Sololá	704	Santa Lucía Utatlán 	7	Santa Rita 	10	Octubre	2023-10-23T00:00:00	2024-11-08T20:00:00	1	Precipitación	42.2
124816	7	Sololá	704	Santa Lucía Utatlán 	7	Santa Rita 	10	Octubre	2023-10-23T00:00:00	2024-11-08T20:00:00	8	Radiación solar	0
124817	7	Sololá	704	Santa Lucía Utatlán 	7	Santa Rita 	10	Octubre	2023-10-23T00:00:00	2024-11-08T21:00:00	2	Temperatura media	20.1
124818	7	Sololá	704	Santa Lucía Utatlán 	7	Santa Rita 	10	Octubre	2023-10-23T00:00:00	2024-11-08T21:00:00	4	Temperatura máxima	20.1
124819	7	Sololá	704	Santa Lucía Utatlán 	7	Santa Rita 	10	Octubre	2023-10-23T00:00:00	2024-11-08T21:00:00	3	Temperatura mínima	19.6
124820	7	Sololá	704	Santa Lucía Utatlán 	7	Santa Rita 	10	Octubre	2023-10-23T00:00:00	2024-11-08T21:00:00	5	Humedad	95
124821	7	Sololá	704	Santa Lucía Utatlán 	7	Santa Rita 	10	Octubre	2023-10-23T00:00:00	2024-11-08T21:00:00	6	Velocidad del viento	1.6
124822	7	Sololá	704	Santa Lucía Utatlán 	7	Santa Rita 	10	Octubre	2023-10-23T00:00:00	2024-11-08T21:00:00	7	Dirección del viento	1.61
124823	7	Sololá	704	Santa Lucía Utatlán 	7	Santa Rita 	10	Octubre	2023-10-23T00:00:00	2024-11-08T21:00:00	1	Precipitación	3.8
124824	7	Sololá	704	Santa Lucía Utatlán 	7	Santa Rita 	10	Octubre	2023-10-23T00:00:00	2024-11-08T21:00:00	8	Radiación solar	0
124825	7	Sololá	704	Santa Lucía Utatlán 	7	Santa Rita 	10	Octubre	2023-10-23T00:00:00	2024-11-08T22:00:00	2	Temperatura media	17.8
124826	7	Sololá	704	Santa Lucía Utatlán 	7	Santa Rita 	10	Octubre	2023-10-23T00:00:00	2024-11-08T22:00:00	4	Temperatura máxima	18.6
124827	7	Sololá	704	Santa Lucía Utatlán 	7	Santa Rita 	10	Octubre	2023-10-23T00:00:00	2024-11-08T22:00:00	3	Temperatura mínima	17.8
124828	7	Sololá	704	Santa Lucía Utatlán 	7	Santa Rita 	10	Octubre	2023-10-23T00:00:00	2024-11-08T22:00:00	5	Humedad	89
124829	7	Sololá	704	Santa Lucía Utatlán 	7	Santa Rita 	10	Octubre	2023-10-23T00:00:00	2024-11-08T22:00:00	6	Velocidad del viento	1.6
124830	7	Sololá	704	Santa Lucía Utatlán 	7	Santa Rita 	10	Octubre	2023-10-23T00:00:00	2024-11-08T22:00:00	7	Dirección del viento	1.61
124831	7	Sololá	704	Santa Lucía Utatlán 	7	Santa Rita 	10	Octubre	2023-10-23T00:00:00	2024-11-08T22:00:00	1	Precipitación	0
124832	7	Sololá	704	Santa Lucía Utatlán 	7	Santa Rita 	10	Octubre	2023-10-23T00:00:00	2024-11-08T22:00:00	8	Radiación solar	0
124833	7	Sololá	704	Santa Lucía Utatlán 	7	Santa Rita 	10	Octubre	2023-10-23T00:00:00	2024-11-08T23:00:00	2	Temperatura media	17.5
124834	7	Sololá	704	Santa Lucía Utatlán 	7	Santa Rita 	10	Octubre	2023-10-23T00:00:00	2024-11-08T23:00:00	4	Temperatura máxima	18
124835	7	Sololá	704	Santa Lucía Utatlán 	7	Santa Rita 	10	Octubre	2023-10-23T00:00:00	2024-11-08T23:00:00	3	Temperatura mínima	17.5
124836	7	Sololá	704	Santa Lucía Utatlán 	7	Santa Rita 	10	Octubre	2023-10-23T00:00:00	2024-11-08T23:00:00	5	Humedad	91
124837	7	Sololá	704	Santa Lucía Utatlán 	7	Santa Rita 	10	Octubre	2023-10-23T00:00:00	2024-11-08T23:00:00	6	Velocidad del viento	1.6
124838	7	Sololá	704	Santa Lucía Utatlán 	7	Santa Rita 	10	Octubre	2023-10-23T00:00:00	2024-11-08T23:00:00	7	Dirección del viento	1.61
124839	7	Sololá	704	Santa Lucía Utatlán 	7	Santa Rita 	10	Octubre	2023-10-23T00:00:00	2024-11-08T23:00:00	1	Precipitación	0
124840	7	Sololá	704	Santa Lucía Utatlán 	7	Santa Rita 	10	Octubre	2023-10-23T00:00:00	2024-11-08T23:00:00	8	Radiación solar	0
124841	7	Sololá	704	Santa Lucía Utatlán 	7	Santa Rita 	10	Octubre	2023-10-24T00:00:00	2024-11-08T00:00:00	2	Temperatura media	16.7
124842	7	Sololá	704	Santa Lucía Utatlán 	7	Santa Rita 	10	Octubre	2023-10-24T00:00:00	2024-11-08T00:00:00	4	Temperatura máxima	17.6
124843	7	Sololá	704	Santa Lucía Utatlán 	7	Santa Rita 	10	Octubre	2023-10-24T00:00:00	2024-11-08T00:00:00	3	Temperatura mínima	16.7
124844	7	Sololá	704	Santa Lucía Utatlán 	7	Santa Rita 	10	Octubre	2023-10-24T00:00:00	2024-11-08T00:00:00	5	Humedad	92
124845	7	Sololá	704	Santa Lucía Utatlán 	7	Santa Rita 	10	Octubre	2023-10-24T00:00:00	2024-11-08T00:00:00	6	Velocidad del viento	1.6
124846	7	Sololá	704	Santa Lucía Utatlán 	7	Santa Rita 	10	Octubre	2023-10-24T00:00:00	2024-11-08T00:00:00	7	Dirección del viento	1.61
124847	7	Sololá	704	Santa Lucía Utatlán 	7	Santa Rita 	10	Octubre	2023-10-24T00:00:00	2024-11-08T00:00:00	1	Precipitación	0
124848	7	Sololá	704	Santa Lucía Utatlán 	7	Santa Rita 	10	Octubre	2023-10-24T00:00:00	2024-11-08T00:00:00	8	Radiación solar	0
124849	7	Sololá	704	Santa Lucía Utatlán 	7	Santa Rita 	10	Octubre	2023-10-24T00:00:00	2024-11-08T01:00:00	2	Temperatura media	16.8
124850	7	Sololá	704	Santa Lucía Utatlán 	7	Santa Rita 	10	Octubre	2023-10-24T00:00:00	2024-11-08T01:00:00	4	Temperatura máxima	16.8
124851	7	Sololá	704	Santa Lucía Utatlán 	7	Santa Rita 	10	Octubre	2023-10-24T00:00:00	2024-11-08T01:00:00	3	Temperatura mínima	16.6
124852	7	Sololá	704	Santa Lucía Utatlán 	7	Santa Rita 	10	Octubre	2023-10-24T00:00:00	2024-11-08T01:00:00	5	Humedad	91
124853	7	Sololá	704	Santa Lucía Utatlán 	7	Santa Rita 	10	Octubre	2023-10-24T00:00:00	2024-11-08T01:00:00	6	Velocidad del viento	1.6
124854	7	Sololá	704	Santa Lucía Utatlán 	7	Santa Rita 	10	Octubre	2023-10-24T00:00:00	2024-11-08T01:00:00	7	Dirección del viento	1.61
124855	7	Sololá	704	Santa Lucía Utatlán 	7	Santa Rita 	10	Octubre	2023-10-24T00:00:00	2024-11-08T01:00:00	1	Precipitación	0
124856	7	Sololá	704	Santa Lucía Utatlán 	7	Santa Rita 	10	Octubre	2023-10-24T00:00:00	2024-11-08T01:00:00	8	Radiación solar	0
124857	7	Sololá	704	Santa Lucía Utatlán 	7	Santa Rita 	10	Octubre	2023-10-24T00:00:00	2024-11-08T02:00:00	2	Temperatura media	18.7
124858	7	Sololá	704	Santa Lucía Utatlán 	7	Santa Rita 	10	Octubre	2023-10-24T00:00:00	2024-11-08T02:00:00	4	Temperatura máxima	19.7
124859	7	Sololá	704	Santa Lucía Utatlán 	7	Santa Rita 	10	Octubre	2023-10-24T00:00:00	2024-11-08T02:00:00	3	Temperatura mínima	18.5
124860	7	Sololá	704	Santa Lucía Utatlán 	7	Santa Rita 	10	Octubre	2023-10-24T00:00:00	2024-11-08T02:00:00	5	Humedad	91
124861	7	Sololá	704	Santa Lucía Utatlán 	7	Santa Rita 	10	Octubre	2023-10-24T00:00:00	2024-11-08T02:00:00	6	Velocidad del viento	3.2
124862	7	Sololá	704	Santa Lucía Utatlán 	7	Santa Rita 	10	Octubre	2023-10-24T00:00:00	2024-11-08T02:00:00	7	Dirección del viento	3.22
124863	7	Sololá	704	Santa Lucía Utatlán 	7	Santa Rita 	10	Octubre	2023-10-24T00:00:00	2024-11-08T02:00:00	1	Precipitación	0
124864	7	Sololá	704	Santa Lucía Utatlán 	7	Santa Rita 	10	Octubre	2023-10-24T00:00:00	2024-11-08T02:00:00	8	Radiación solar	0
124865	7	Sololá	704	Santa Lucía Utatlán 	7	Santa Rita 	10	Octubre	2023-10-24T00:00:00	2024-11-08T03:00:00	2	Temperatura media	18.2
124866	7	Sololá	704	Santa Lucía Utatlán 	7	Santa Rita 	10	Octubre	2023-10-24T00:00:00	2024-11-08T03:00:00	4	Temperatura máxima	19.3
124867	7	Sololá	704	Santa Lucía Utatlán 	7	Santa Rita 	10	Octubre	2023-10-24T00:00:00	2024-11-08T03:00:00	3	Temperatura mínima	18.1
124868	7	Sololá	704	Santa Lucía Utatlán 	7	Santa Rita 	10	Octubre	2023-10-24T00:00:00	2024-11-08T03:00:00	5	Humedad	94
124869	7	Sololá	704	Santa Lucía Utatlán 	7	Santa Rita 	10	Octubre	2023-10-24T00:00:00	2024-11-08T03:00:00	6	Velocidad del viento	3.2
124870	7	Sololá	704	Santa Lucía Utatlán 	7	Santa Rita 	10	Octubre	2023-10-24T00:00:00	2024-11-08T03:00:00	7	Dirección del viento	3.22
124871	7	Sololá	704	Santa Lucía Utatlán 	7	Santa Rita 	10	Octubre	2023-10-24T00:00:00	2024-11-08T03:00:00	1	Precipitación	0
124872	7	Sololá	704	Santa Lucía Utatlán 	7	Santa Rita 	10	Octubre	2023-10-24T00:00:00	2024-11-08T03:00:00	8	Radiación solar	0
124873	7	Sololá	704	Santa Lucía Utatlán 	7	Santa Rita 	10	Octubre	2023-10-24T00:00:00	2024-11-08T04:00:00	2	Temperatura media	18.2
124874	7	Sololá	704	Santa Lucía Utatlán 	7	Santa Rita 	10	Octubre	2023-10-24T00:00:00	2024-11-08T04:00:00	4	Temperatura máxima	18.6
124875	7	Sololá	704	Santa Lucía Utatlán 	7	Santa Rita 	10	Octubre	2023-10-24T00:00:00	2024-11-08T04:00:00	3	Temperatura mínima	17.9
124876	7	Sololá	704	Santa Lucía Utatlán 	7	Santa Rita 	10	Octubre	2023-10-24T00:00:00	2024-11-08T04:00:00	5	Humedad	95
124877	7	Sololá	704	Santa Lucía Utatlán 	7	Santa Rita 	10	Octubre	2023-10-24T00:00:00	2024-11-08T04:00:00	6	Velocidad del viento	1.6
124878	7	Sololá	704	Santa Lucía Utatlán 	7	Santa Rita 	10	Octubre	2023-10-24T00:00:00	2024-11-08T04:00:00	7	Dirección del viento	1.61
124879	7	Sololá	704	Santa Lucía Utatlán 	7	Santa Rita 	10	Octubre	2023-10-24T00:00:00	2024-11-08T04:00:00	1	Precipitación	0
124880	7	Sololá	704	Santa Lucía Utatlán 	7	Santa Rita 	10	Octubre	2023-10-24T00:00:00	2024-11-08T04:00:00	8	Radiación solar	0
124881	7	Sololá	704	Santa Lucía Utatlán 	7	Santa Rita 	10	Octubre	2023-10-24T00:00:00	2024-11-08T05:00:00	2	Temperatura media	19.6
124882	7	Sololá	704	Santa Lucía Utatlán 	7	Santa Rita 	10	Octubre	2023-10-24T00:00:00	2024-11-08T05:00:00	4	Temperatura máxima	19.6
124883	7	Sololá	704	Santa Lucía Utatlán 	7	Santa Rita 	10	Octubre	2023-10-24T00:00:00	2024-11-08T05:00:00	3	Temperatura mínima	18.2
124884	7	Sololá	704	Santa Lucía Utatlán 	7	Santa Rita 	10	Octubre	2023-10-24T00:00:00	2024-11-08T05:00:00	5	Humedad	88
124885	7	Sololá	704	Santa Lucía Utatlán 	7	Santa Rita 	10	Octubre	2023-10-24T00:00:00	2024-11-08T05:00:00	6	Velocidad del viento	3.2
124886	7	Sololá	704	Santa Lucía Utatlán 	7	Santa Rita 	10	Octubre	2023-10-24T00:00:00	2024-11-08T05:00:00	7	Dirección del viento	3.22
124887	7	Sololá	704	Santa Lucía Utatlán 	7	Santa Rita 	10	Octubre	2023-10-24T00:00:00	2024-11-08T05:00:00	1	Precipitación	0
124888	7	Sololá	704	Santa Lucía Utatlán 	7	Santa Rita 	10	Octubre	2023-10-24T00:00:00	2024-11-08T05:00:00	8	Radiación solar	0
124889	7	Sololá	704	Santa Lucía Utatlán 	7	Santa Rita 	10	Octubre	2023-10-24T00:00:00	2024-11-08T06:00:00	2	Temperatura media	17.9
124890	7	Sololá	704	Santa Lucía Utatlán 	7	Santa Rita 	10	Octubre	2023-10-24T00:00:00	2024-11-08T06:00:00	4	Temperatura máxima	20.6
124891	7	Sololá	704	Santa Lucía Utatlán 	7	Santa Rita 	10	Octubre	2023-10-24T00:00:00	2024-11-08T06:00:00	3	Temperatura mínima	17.9
124892	7	Sololá	704	Santa Lucía Utatlán 	7	Santa Rita 	10	Octubre	2023-10-24T00:00:00	2024-11-08T06:00:00	5	Humedad	92
124893	7	Sololá	704	Santa Lucía Utatlán 	7	Santa Rita 	10	Octubre	2023-10-24T00:00:00	2024-11-08T06:00:00	6	Velocidad del viento	4.8
124894	7	Sololá	704	Santa Lucía Utatlán 	7	Santa Rita 	10	Octubre	2023-10-24T00:00:00	2024-11-08T06:00:00	7	Dirección del viento	4.83
124895	7	Sololá	704	Santa Lucía Utatlán 	7	Santa Rita 	10	Octubre	2023-10-24T00:00:00	2024-11-08T06:00:00	1	Precipitación	0
124896	7	Sololá	704	Santa Lucía Utatlán 	7	Santa Rita 	10	Octubre	2023-10-24T00:00:00	2024-11-08T06:00:00	8	Radiación solar	0
124897	7	Sololá	704	Santa Lucía Utatlán 	7	Santa Rita 	10	Octubre	2023-10-24T00:00:00	2024-11-08T07:00:00	2	Temperatura media	17.7
124898	7	Sololá	704	Santa Lucía Utatlán 	7	Santa Rita 	10	Octubre	2023-10-24T00:00:00	2024-11-08T07:00:00	4	Temperatura máxima	17.9
124899	7	Sololá	704	Santa Lucía Utatlán 	7	Santa Rita 	10	Octubre	2023-10-24T00:00:00	2024-11-08T07:00:00	3	Temperatura mínima	17.4
124900	7	Sololá	704	Santa Lucía Utatlán 	7	Santa Rita 	10	Octubre	2023-10-24T00:00:00	2024-11-08T07:00:00	5	Humedad	94
124901	7	Sololá	704	Santa Lucía Utatlán 	7	Santa Rita 	10	Octubre	2023-10-24T00:00:00	2024-11-08T07:00:00	6	Velocidad del viento	3.2
124902	7	Sololá	704	Santa Lucía Utatlán 	7	Santa Rita 	10	Octubre	2023-10-24T00:00:00	2024-11-08T07:00:00	7	Dirección del viento	3.22
124903	7	Sololá	704	Santa Lucía Utatlán 	7	Santa Rita 	10	Octubre	2023-10-24T00:00:00	2024-11-08T07:00:00	1	Precipitación	0
124904	7	Sololá	704	Santa Lucía Utatlán 	7	Santa Rita 	10	Octubre	2023-10-24T00:00:00	2024-11-08T07:00:00	8	Radiación solar	17
124905	7	Sololá	704	Santa Lucía Utatlán 	7	Santa Rita 	10	Octubre	2023-10-24T00:00:00	2024-11-08T08:00:00	2	Temperatura media	19.4
124906	7	Sololá	704	Santa Lucía Utatlán 	7	Santa Rita 	10	Octubre	2023-10-24T00:00:00	2024-11-08T08:00:00	4	Temperatura máxima	19.8
124907	7	Sololá	704	Santa Lucía Utatlán 	7	Santa Rita 	10	Octubre	2023-10-24T00:00:00	2024-11-08T08:00:00	3	Temperatura mínima	17.4
124908	7	Sololá	704	Santa Lucía Utatlán 	7	Santa Rita 	10	Octubre	2023-10-24T00:00:00	2024-11-08T08:00:00	5	Humedad	83
124909	7	Sololá	704	Santa Lucía Utatlán 	7	Santa Rita 	10	Octubre	2023-10-24T00:00:00	2024-11-08T08:00:00	6	Velocidad del viento	3.2
124910	7	Sololá	704	Santa Lucía Utatlán 	7	Santa Rita 	10	Octubre	2023-10-24T00:00:00	2024-11-08T08:00:00	7	Dirección del viento	3.22
124911	7	Sololá	704	Santa Lucía Utatlán 	7	Santa Rita 	10	Octubre	2023-10-24T00:00:00	2024-11-08T08:00:00	1	Precipitación	0
124912	7	Sololá	704	Santa Lucía Utatlán 	7	Santa Rita 	10	Octubre	2023-10-24T00:00:00	2024-11-08T08:00:00	8	Radiación solar	96
124913	7	Sololá	704	Santa Lucía Utatlán 	7	Santa Rita 	10	Octubre	2023-10-24T00:00:00	2024-11-08T09:00:00	2	Temperatura media	17.9
124914	7	Sololá	704	Santa Lucía Utatlán 	7	Santa Rita 	10	Octubre	2023-10-24T00:00:00	2024-11-08T09:00:00	4	Temperatura máxima	19.4
124915	7	Sololá	704	Santa Lucía Utatlán 	7	Santa Rita 	10	Octubre	2023-10-24T00:00:00	2024-11-08T09:00:00	3	Temperatura mínima	17.6
124916	7	Sololá	704	Santa Lucía Utatlán 	7	Santa Rita 	10	Octubre	2023-10-24T00:00:00	2024-11-08T09:00:00	5	Humedad	89
124917	7	Sololá	704	Santa Lucía Utatlán 	7	Santa Rita 	10	Octubre	2023-10-24T00:00:00	2024-11-08T09:00:00	6	Velocidad del viento	3.2
124918	7	Sololá	704	Santa Lucía Utatlán 	7	Santa Rita 	10	Octubre	2023-10-24T00:00:00	2024-11-08T09:00:00	7	Dirección del viento	3.22
124919	7	Sololá	704	Santa Lucía Utatlán 	7	Santa Rita 	10	Octubre	2023-10-24T00:00:00	2024-11-08T09:00:00	1	Precipitación	0
124920	7	Sololá	704	Santa Lucía Utatlán 	7	Santa Rita 	10	Octubre	2023-10-24T00:00:00	2024-11-08T09:00:00	8	Radiación solar	289
124921	7	Sololá	704	Santa Lucía Utatlán 	7	Santa Rita 	10	Octubre	2023-10-24T00:00:00	2024-11-08T10:00:00	2	Temperatura media	19.4
124922	7	Sololá	704	Santa Lucía Utatlán 	7	Santa Rita 	10	Octubre	2023-10-24T00:00:00	2024-11-08T10:00:00	4	Temperatura máxima	19.6
124923	7	Sololá	704	Santa Lucía Utatlán 	7	Santa Rita 	10	Octubre	2023-10-24T00:00:00	2024-11-08T10:00:00	3	Temperatura mínima	17.5
124924	7	Sololá	704	Santa Lucía Utatlán 	7	Santa Rita 	10	Octubre	2023-10-24T00:00:00	2024-11-08T10:00:00	5	Humedad	85
124925	7	Sololá	704	Santa Lucía Utatlán 	7	Santa Rita 	10	Octubre	2023-10-24T00:00:00	2024-11-08T10:00:00	6	Velocidad del viento	3.2
124926	7	Sololá	704	Santa Lucía Utatlán 	7	Santa Rita 	10	Octubre	2023-10-24T00:00:00	2024-11-08T10:00:00	7	Dirección del viento	3.22
124927	7	Sololá	704	Santa Lucía Utatlán 	7	Santa Rita 	10	Octubre	2023-10-24T00:00:00	2024-11-08T10:00:00	1	Precipitación	0
124928	7	Sololá	704	Santa Lucía Utatlán 	7	Santa Rita 	10	Octubre	2023-10-24T00:00:00	2024-11-08T10:00:00	8	Radiación solar	419
124929	7	Sololá	704	Santa Lucía Utatlán 	7	Santa Rita 	10	Octubre	2023-10-24T00:00:00	2024-11-08T11:00:00	2	Temperatura media	19.6
124930	7	Sololá	704	Santa Lucía Utatlán 	7	Santa Rita 	10	Octubre	2023-10-24T00:00:00	2024-11-08T11:00:00	4	Temperatura máxima	19.7
124931	7	Sololá	704	Santa Lucía Utatlán 	7	Santa Rita 	10	Octubre	2023-10-24T00:00:00	2024-11-08T11:00:00	3	Temperatura mínima	19.2
124932	7	Sololá	704	Santa Lucía Utatlán 	7	Santa Rita 	10	Octubre	2023-10-24T00:00:00	2024-11-08T11:00:00	5	Humedad	88
124933	7	Sololá	704	Santa Lucía Utatlán 	7	Santa Rita 	10	Octubre	2023-10-24T00:00:00	2024-11-08T11:00:00	6	Velocidad del viento	3.2
124934	7	Sololá	704	Santa Lucía Utatlán 	7	Santa Rita 	10	Octubre	2023-10-24T00:00:00	2024-11-08T11:00:00	7	Dirección del viento	3.22
124935	7	Sololá	704	Santa Lucía Utatlán 	7	Santa Rita 	10	Octubre	2023-10-24T00:00:00	2024-11-08T11:00:00	1	Precipitación	0
124936	7	Sololá	704	Santa Lucía Utatlán 	7	Santa Rita 	10	Octubre	2023-10-24T00:00:00	2024-11-08T11:00:00	8	Radiación solar	543
124937	7	Sololá	704	Santa Lucía Utatlán 	7	Santa Rita 	10	Octubre	2023-10-24T00:00:00	2024-11-08T12:00:00	2	Temperatura media	21.8
124938	7	Sololá	704	Santa Lucía Utatlán 	7	Santa Rita 	10	Octubre	2023-10-24T00:00:00	2024-11-08T12:00:00	4	Temperatura máxima	21.8
124939	7	Sololá	704	Santa Lucía Utatlán 	7	Santa Rita 	10	Octubre	2023-10-24T00:00:00	2024-11-08T12:00:00	3	Temperatura mínima	19.6
124940	7	Sololá	704	Santa Lucía Utatlán 	7	Santa Rita 	10	Octubre	2023-10-24T00:00:00	2024-11-08T12:00:00	5	Humedad	80
124941	7	Sololá	704	Santa Lucía Utatlán 	7	Santa Rita 	10	Octubre	2023-10-24T00:00:00	2024-11-08T12:00:00	6	Velocidad del viento	3.2
124942	7	Sololá	704	Santa Lucía Utatlán 	7	Santa Rita 	10	Octubre	2023-10-24T00:00:00	2024-11-08T12:00:00	7	Dirección del viento	3.22
124943	7	Sololá	704	Santa Lucía Utatlán 	7	Santa Rita 	10	Octubre	2023-10-24T00:00:00	2024-11-08T12:00:00	1	Precipitación	0
124944	7	Sololá	704	Santa Lucía Utatlán 	7	Santa Rita 	10	Octubre	2023-10-24T00:00:00	2024-11-08T12:00:00	8	Radiación solar	426
124945	7	Sololá	704	Santa Lucía Utatlán 	7	Santa Rita 	10	Octubre	2023-10-24T00:00:00	2024-11-08T13:00:00	2	Temperatura media	23.8
124946	7	Sololá	704	Santa Lucía Utatlán 	7	Santa Rita 	10	Octubre	2023-10-24T00:00:00	2024-11-08T13:00:00	4	Temperatura máxima	23.8
124947	7	Sololá	704	Santa Lucía Utatlán 	7	Santa Rita 	10	Octubre	2023-10-24T00:00:00	2024-11-08T13:00:00	3	Temperatura mínima	21.8
124948	7	Sololá	704	Santa Lucía Utatlán 	7	Santa Rita 	10	Octubre	2023-10-24T00:00:00	2024-11-08T13:00:00	5	Humedad	77
124949	7	Sololá	704	Santa Lucía Utatlán 	7	Santa Rita 	10	Octubre	2023-10-24T00:00:00	2024-11-08T13:00:00	6	Velocidad del viento	3.2
124950	7	Sololá	704	Santa Lucía Utatlán 	7	Santa Rita 	10	Octubre	2023-10-24T00:00:00	2024-11-08T13:00:00	7	Dirección del viento	3.22
124951	7	Sololá	704	Santa Lucía Utatlán 	7	Santa Rita 	10	Octubre	2023-10-24T00:00:00	2024-11-08T13:00:00	1	Precipitación	0
124952	7	Sololá	704	Santa Lucía Utatlán 	7	Santa Rita 	10	Octubre	2023-10-24T00:00:00	2024-11-08T13:00:00	8	Radiación solar	404
124953	7	Sololá	704	Santa Lucía Utatlán 	7	Santa Rita 	10	Octubre	2023-10-24T00:00:00	2024-11-08T14:00:00	2	Temperatura media	23.1
124954	7	Sololá	704	Santa Lucía Utatlán 	7	Santa Rita 	10	Octubre	2023-10-24T00:00:00	2024-11-08T14:00:00	4	Temperatura máxima	23.9
124955	7	Sololá	704	Santa Lucía Utatlán 	7	Santa Rita 	10	Octubre	2023-10-24T00:00:00	2024-11-08T14:00:00	3	Temperatura mínima	22.9
124956	7	Sololá	704	Santa Lucía Utatlán 	7	Santa Rita 	10	Octubre	2023-10-24T00:00:00	2024-11-08T14:00:00	5	Humedad	75
124957	7	Sololá	704	Santa Lucía Utatlán 	7	Santa Rita 	10	Octubre	2023-10-24T00:00:00	2024-11-08T14:00:00	6	Velocidad del viento	8
124958	7	Sololá	704	Santa Lucía Utatlán 	7	Santa Rita 	10	Octubre	2023-10-24T00:00:00	2024-11-08T14:00:00	7	Dirección del viento	8.05
124959	7	Sololá	704	Santa Lucía Utatlán 	7	Santa Rita 	10	Octubre	2023-10-24T00:00:00	2024-11-08T14:00:00	1	Precipitación	0
124960	7	Sololá	704	Santa Lucía Utatlán 	7	Santa Rita 	10	Octubre	2023-10-24T00:00:00	2024-11-08T14:00:00	8	Radiación solar	647
124961	7	Sololá	704	Santa Lucía Utatlán 	7	Santa Rita 	10	Octubre	2023-10-24T00:00:00	2024-11-08T15:00:00	2	Temperatura media	22.6
124962	7	Sololá	704	Santa Lucía Utatlán 	7	Santa Rita 	10	Octubre	2023-10-24T00:00:00	2024-11-08T15:00:00	4	Temperatura máxima	23.2
124963	7	Sololá	704	Santa Lucía Utatlán 	7	Santa Rita 	10	Octubre	2023-10-24T00:00:00	2024-11-08T15:00:00	3	Temperatura mínima	22.4
124964	7	Sololá	704	Santa Lucía Utatlán 	7	Santa Rita 	10	Octubre	2023-10-24T00:00:00	2024-11-08T15:00:00	5	Humedad	76
124965	7	Sololá	704	Santa Lucía Utatlán 	7	Santa Rita 	10	Octubre	2023-10-24T00:00:00	2024-11-08T15:00:00	6	Velocidad del viento	11.3
124966	7	Sololá	704	Santa Lucía Utatlán 	7	Santa Rita 	10	Octubre	2023-10-24T00:00:00	2024-11-08T15:00:00	7	Dirección del viento	11.27
124967	7	Sololá	704	Santa Lucía Utatlán 	7	Santa Rita 	10	Octubre	2023-10-24T00:00:00	2024-11-08T15:00:00	1	Precipitación	0
124968	7	Sololá	704	Santa Lucía Utatlán 	7	Santa Rita 	10	Octubre	2023-10-24T00:00:00	2024-11-08T15:00:00	8	Radiación solar	480
124969	7	Sololá	704	Santa Lucía Utatlán 	7	Santa Rita 	10	Octubre	2023-10-24T00:00:00	2024-11-08T16:00:00	2	Temperatura media	23.7
124970	7	Sololá	704	Santa Lucía Utatlán 	7	Santa Rita 	10	Octubre	2023-10-24T00:00:00	2024-11-08T16:00:00	4	Temperatura máxima	23.7
124971	7	Sololá	704	Santa Lucía Utatlán 	7	Santa Rita 	10	Octubre	2023-10-24T00:00:00	2024-11-08T16:00:00	3	Temperatura mínima	22.4
124972	7	Sololá	704	Santa Lucía Utatlán 	7	Santa Rita 	10	Octubre	2023-10-24T00:00:00	2024-11-08T16:00:00	5	Humedad	75
124973	7	Sololá	704	Santa Lucía Utatlán 	7	Santa Rita 	10	Octubre	2023-10-24T00:00:00	2024-11-08T16:00:00	6	Velocidad del viento	8
124974	7	Sololá	704	Santa Lucía Utatlán 	7	Santa Rita 	10	Octubre	2023-10-24T00:00:00	2024-11-08T16:00:00	7	Dirección del viento	8.05
124975	7	Sololá	704	Santa Lucía Utatlán 	7	Santa Rita 	10	Octubre	2023-10-24T00:00:00	2024-11-08T16:00:00	1	Precipitación	0
124976	7	Sololá	704	Santa Lucía Utatlán 	7	Santa Rita 	10	Octubre	2023-10-24T00:00:00	2024-11-08T16:00:00	8	Radiación solar	156
124977	7	Sololá	704	Santa Lucía Utatlán 	7	Santa Rita 	10	Octubre	2023-10-24T00:00:00	2024-11-08T17:00:00	2	Temperatura media	24.7
124978	7	Sololá	704	Santa Lucía Utatlán 	7	Santa Rita 	10	Octubre	2023-10-24T00:00:00	2024-11-08T17:00:00	4	Temperatura máxima	24.7
124979	7	Sololá	704	Santa Lucía Utatlán 	7	Santa Rita 	10	Octubre	2023-10-24T00:00:00	2024-11-08T17:00:00	3	Temperatura mínima	23.3
124980	7	Sololá	704	Santa Lucía Utatlán 	7	Santa Rita 	10	Octubre	2023-10-24T00:00:00	2024-11-08T17:00:00	5	Humedad	70
124981	7	Sololá	704	Santa Lucía Utatlán 	7	Santa Rita 	10	Octubre	2023-10-24T00:00:00	2024-11-08T17:00:00	6	Velocidad del viento	11.3
124982	7	Sololá	704	Santa Lucía Utatlán 	7	Santa Rita 	10	Octubre	2023-10-24T00:00:00	2024-11-08T17:00:00	7	Dirección del viento	11.27
124983	7	Sololá	704	Santa Lucía Utatlán 	7	Santa Rita 	10	Octubre	2023-10-24T00:00:00	2024-11-08T17:00:00	1	Precipitación	0
124984	7	Sololá	704	Santa Lucía Utatlán 	7	Santa Rita 	10	Octubre	2023-10-24T00:00:00	2024-11-08T17:00:00	8	Radiación solar	82
124985	7	Sololá	704	Santa Lucía Utatlán 	7	Santa Rita 	10	Octubre	2023-10-24T00:00:00	2024-11-08T18:00:00	2	Temperatura media	23.9
124986	7	Sololá	704	Santa Lucía Utatlán 	7	Santa Rita 	10	Octubre	2023-10-24T00:00:00	2024-11-08T18:00:00	4	Temperatura máxima	25.1
124987	7	Sololá	704	Santa Lucía Utatlán 	7	Santa Rita 	10	Octubre	2023-10-24T00:00:00	2024-11-08T18:00:00	3	Temperatura mínima	23.8
124988	7	Sololá	704	Santa Lucía Utatlán 	7	Santa Rita 	10	Octubre	2023-10-24T00:00:00	2024-11-08T18:00:00	5	Humedad	72
124989	7	Sololá	704	Santa Lucía Utatlán 	7	Santa Rita 	10	Octubre	2023-10-24T00:00:00	2024-11-08T18:00:00	6	Velocidad del viento	9.7
124990	7	Sololá	704	Santa Lucía Utatlán 	7	Santa Rita 	10	Octubre	2023-10-24T00:00:00	2024-11-08T18:00:00	7	Dirección del viento	9.66
124991	7	Sololá	704	Santa Lucía Utatlán 	7	Santa Rita 	10	Octubre	2023-10-24T00:00:00	2024-11-08T18:00:00	1	Precipitación	0
124992	7	Sololá	704	Santa Lucía Utatlán 	7	Santa Rita 	10	Octubre	2023-10-24T00:00:00	2024-11-08T18:00:00	8	Radiación solar	27
124993	7	Sololá	704	Santa Lucía Utatlán 	7	Santa Rita 	10	Octubre	2023-10-24T00:00:00	2024-11-08T19:00:00	2	Temperatura media	22.8
124994	7	Sololá	704	Santa Lucía Utatlán 	7	Santa Rita 	10	Octubre	2023-10-24T00:00:00	2024-11-08T19:00:00	4	Temperatura máxima	23.9
124995	7	Sololá	704	Santa Lucía Utatlán 	7	Santa Rita 	10	Octubre	2023-10-24T00:00:00	2024-11-08T19:00:00	3	Temperatura mínima	22.8
124996	7	Sololá	704	Santa Lucía Utatlán 	7	Santa Rita 	10	Octubre	2023-10-24T00:00:00	2024-11-08T19:00:00	5	Humedad	77
124997	7	Sololá	704	Santa Lucía Utatlán 	7	Santa Rita 	10	Octubre	2023-10-24T00:00:00	2024-11-08T19:00:00	6	Velocidad del viento	6.4
124998	7	Sololá	704	Santa Lucía Utatlán 	7	Santa Rita 	10	Octubre	2023-10-24T00:00:00	2024-11-08T19:00:00	7	Dirección del viento	6.44
124999	7	Sololá	704	Santa Lucía Utatlán 	7	Santa Rita 	10	Octubre	2023-10-24T00:00:00	2024-11-08T19:00:00	1	Precipitación	0
125000	7	Sololá	704	Santa Lucía Utatlán 	7	Santa Rita 	10	Octubre	2023-10-24T00:00:00	2024-11-08T19:00:00	8	Radiación solar	0
125001	7	Sololá	704	Santa Lucía Utatlán 	7	Santa Rita 	10	Octubre	2023-10-24T00:00:00	2024-11-08T20:00:00	2	Temperatura media	22
125002	7	Sololá	704	Santa Lucía Utatlán 	7	Santa Rita 	10	Octubre	2023-10-24T00:00:00	2024-11-08T20:00:00	4	Temperatura máxima	22.8
125003	7	Sololá	704	Santa Lucía Utatlán 	7	Santa Rita 	10	Octubre	2023-10-24T00:00:00	2024-11-08T20:00:00	3	Temperatura mínima	22
125004	7	Sololá	704	Santa Lucía Utatlán 	7	Santa Rita 	10	Octubre	2023-10-24T00:00:00	2024-11-08T20:00:00	5	Humedad	77
125005	7	Sololá	704	Santa Lucía Utatlán 	7	Santa Rita 	10	Octubre	2023-10-24T00:00:00	2024-11-08T20:00:00	6	Velocidad del viento	6.4
125006	7	Sololá	704	Santa Lucía Utatlán 	7	Santa Rita 	10	Octubre	2023-10-24T00:00:00	2024-11-08T20:00:00	7	Dirección del viento	6.44
125007	7	Sololá	704	Santa Lucía Utatlán 	7	Santa Rita 	10	Octubre	2023-10-24T00:00:00	2024-11-08T20:00:00	1	Precipitación	0
125008	7	Sololá	704	Santa Lucía Utatlán 	7	Santa Rita 	10	Octubre	2023-10-24T00:00:00	2024-11-08T20:00:00	8	Radiación solar	0
125009	7	Sololá	704	Santa Lucía Utatlán 	7	Santa Rita 	10	Octubre	2023-10-24T00:00:00	2024-11-08T21:00:00	2	Temperatura media	20.8
125010	7	Sololá	704	Santa Lucía Utatlán 	7	Santa Rita 	10	Octubre	2023-10-24T00:00:00	2024-11-08T21:00:00	4	Temperatura máxima	22.1
125011	7	Sololá	704	Santa Lucía Utatlán 	7	Santa Rita 	10	Octubre	2023-10-24T00:00:00	2024-11-08T21:00:00	3	Temperatura mínima	20.8
125012	7	Sololá	704	Santa Lucía Utatlán 	7	Santa Rita 	10	Octubre	2023-10-24T00:00:00	2024-11-08T21:00:00	5	Humedad	85
125013	7	Sololá	704	Santa Lucía Utatlán 	7	Santa Rita 	10	Octubre	2023-10-24T00:00:00	2024-11-08T21:00:00	6	Velocidad del viento	3.2
125014	7	Sololá	704	Santa Lucía Utatlán 	7	Santa Rita 	10	Octubre	2023-10-24T00:00:00	2024-11-08T21:00:00	7	Dirección del viento	3.22
125015	7	Sololá	704	Santa Lucía Utatlán 	7	Santa Rita 	10	Octubre	2023-10-24T00:00:00	2024-11-08T21:00:00	1	Precipitación	0
125016	7	Sololá	704	Santa Lucía Utatlán 	7	Santa Rita 	10	Octubre	2023-10-24T00:00:00	2024-11-08T21:00:00	8	Radiación solar	0
125017	7	Sololá	704	Santa Lucía Utatlán 	7	Santa Rita 	10	Octubre	2023-10-24T00:00:00	2024-11-08T22:00:00	2	Temperatura media	16.4
125018	7	Sololá	704	Santa Lucía Utatlán 	7	Santa Rita 	10	Octubre	2023-10-24T00:00:00	2024-11-08T22:00:00	4	Temperatura máxima	16.7
125019	7	Sololá	704	Santa Lucía Utatlán 	7	Santa Rita 	10	Octubre	2023-10-24T00:00:00	2024-11-08T22:00:00	3	Temperatura mínima	16.4
125020	7	Sololá	704	Santa Lucía Utatlán 	7	Santa Rita 	10	Octubre	2023-10-24T00:00:00	2024-11-08T22:00:00	5	Humedad	95
125021	7	Sololá	704	Santa Lucía Utatlán 	7	Santa Rita 	10	Octubre	2023-10-24T00:00:00	2024-11-08T22:00:00	6	Velocidad del viento	3.2
125022	7	Sololá	704	Santa Lucía Utatlán 	7	Santa Rita 	10	Octubre	2023-10-24T00:00:00	2024-11-08T22:00:00	7	Dirección del viento	3.22
125023	7	Sololá	704	Santa Lucía Utatlán 	7	Santa Rita 	10	Octubre	2023-10-24T00:00:00	2024-11-08T22:00:00	1	Precipitación	0
125024	7	Sololá	704	Santa Lucía Utatlán 	7	Santa Rita 	10	Octubre	2023-10-24T00:00:00	2024-11-08T22:00:00	8	Radiación solar	0
125025	7	Sololá	704	Santa Lucía Utatlán 	7	Santa Rita 	10	Octubre	2023-10-24T00:00:00	2024-11-08T23:00:00	2	Temperatura media	19
125026	7	Sololá	704	Santa Lucía Utatlán 	7	Santa Rita 	10	Octubre	2023-10-24T00:00:00	2024-11-08T23:00:00	4	Temperatura máxima	19.5
125027	7	Sololá	704	Santa Lucía Utatlán 	7	Santa Rita 	10	Octubre	2023-10-24T00:00:00	2024-11-08T23:00:00	3	Temperatura mínima	18.9
125028	7	Sololá	704	Santa Lucía Utatlán 	7	Santa Rita 	10	Octubre	2023-10-24T00:00:00	2024-11-08T23:00:00	5	Humedad	93
125029	7	Sololá	704	Santa Lucía Utatlán 	7	Santa Rita 	10	Octubre	2023-10-24T00:00:00	2024-11-08T23:00:00	6	Velocidad del viento	1.6
125030	7	Sololá	704	Santa Lucía Utatlán 	7	Santa Rita 	10	Octubre	2023-10-24T00:00:00	2024-11-08T23:00:00	7	Dirección del viento	1.61
125031	7	Sololá	704	Santa Lucía Utatlán 	7	Santa Rita 	10	Octubre	2023-10-24T00:00:00	2024-11-08T23:00:00	1	Precipitación	0
125032	7	Sololá	704	Santa Lucía Utatlán 	7	Santa Rita 	10	Octubre	2023-10-24T00:00:00	2024-11-08T23:00:00	8	Radiación solar	0
125033	7	Sololá	704	Santa Lucía Utatlán 	7	Santa Rita 	10	Octubre	2023-10-25T00:00:00	2024-11-08T00:00:00	2	Temperatura media	18.2
125034	7	Sololá	704	Santa Lucía Utatlán 	7	Santa Rita 	10	Octubre	2023-10-25T00:00:00	2024-11-08T00:00:00	4	Temperatura máxima	18.9
125035	7	Sololá	704	Santa Lucía Utatlán 	7	Santa Rita 	10	Octubre	2023-10-25T00:00:00	2024-11-08T00:00:00	3	Temperatura mínima	18.2
125036	7	Sololá	704	Santa Lucía Utatlán 	7	Santa Rita 	10	Octubre	2023-10-25T00:00:00	2024-11-08T00:00:00	5	Humedad	91
125037	7	Sololá	704	Santa Lucía Utatlán 	7	Santa Rita 	10	Octubre	2023-10-25T00:00:00	2024-11-08T00:00:00	6	Velocidad del viento	3.2
125038	7	Sololá	704	Santa Lucía Utatlán 	7	Santa Rita 	10	Octubre	2023-10-25T00:00:00	2024-11-08T00:00:00	7	Dirección del viento	3.22
125039	7	Sololá	704	Santa Lucía Utatlán 	7	Santa Rita 	10	Octubre	2023-10-25T00:00:00	2024-11-08T00:00:00	1	Precipitación	0
125040	7	Sololá	704	Santa Lucía Utatlán 	7	Santa Rita 	10	Octubre	2023-10-25T00:00:00	2024-11-08T00:00:00	8	Radiación solar	0
125041	7	Sololá	704	Santa Lucía Utatlán 	7	Santa Rita 	10	Octubre	2023-10-25T00:00:00	2024-11-08T01:00:00	2	Temperatura media	18.2
125042	7	Sololá	704	Santa Lucía Utatlán 	7	Santa Rita 	10	Octubre	2023-10-25T00:00:00	2024-11-08T01:00:00	4	Temperatura máxima	18.2
125043	7	Sololá	704	Santa Lucía Utatlán 	7	Santa Rita 	10	Octubre	2023-10-25T00:00:00	2024-11-08T01:00:00	3	Temperatura mínima	17.8
125044	7	Sololá	704	Santa Lucía Utatlán 	7	Santa Rita 	10	Octubre	2023-10-25T00:00:00	2024-11-08T01:00:00	5	Humedad	93
125045	7	Sololá	704	Santa Lucía Utatlán 	7	Santa Rita 	10	Octubre	2023-10-25T00:00:00	2024-11-08T01:00:00	6	Velocidad del viento	1.6
125046	7	Sololá	704	Santa Lucía Utatlán 	7	Santa Rita 	10	Octubre	2023-10-25T00:00:00	2024-11-08T01:00:00	7	Dirección del viento	1.61
125047	7	Sololá	704	Santa Lucía Utatlán 	7	Santa Rita 	10	Octubre	2023-10-25T00:00:00	2024-11-08T01:00:00	1	Precipitación	0
125048	7	Sololá	704	Santa Lucía Utatlán 	7	Santa Rita 	10	Octubre	2023-10-25T00:00:00	2024-11-08T01:00:00	8	Radiación solar	0
125049	7	Sololá	704	Santa Lucía Utatlán 	7	Santa Rita 	10	Octubre	2023-10-25T00:00:00	2024-11-08T02:00:00	2	Temperatura media	17.6
125050	7	Sololá	704	Santa Lucía Utatlán 	7	Santa Rita 	10	Octubre	2023-10-25T00:00:00	2024-11-08T02:00:00	4	Temperatura máxima	18.2
125051	7	Sololá	704	Santa Lucía Utatlán 	7	Santa Rita 	10	Octubre	2023-10-25T00:00:00	2024-11-08T02:00:00	3	Temperatura mínima	17.6
125052	7	Sololá	704	Santa Lucía Utatlán 	7	Santa Rita 	10	Octubre	2023-10-25T00:00:00	2024-11-08T02:00:00	5	Humedad	92
125053	7	Sololá	704	Santa Lucía Utatlán 	7	Santa Rita 	10	Octubre	2023-10-25T00:00:00	2024-11-08T02:00:00	6	Velocidad del viento	3.2
125054	7	Sololá	704	Santa Lucía Utatlán 	7	Santa Rita 	10	Octubre	2023-10-25T00:00:00	2024-11-08T02:00:00	7	Dirección del viento	3.22
125055	7	Sololá	704	Santa Lucía Utatlán 	7	Santa Rita 	10	Octubre	2023-10-25T00:00:00	2024-11-08T02:00:00	1	Precipitación	0
125056	7	Sololá	704	Santa Lucía Utatlán 	7	Santa Rita 	10	Octubre	2023-10-25T00:00:00	2024-11-08T02:00:00	8	Radiación solar	0
125057	7	Sololá	704	Santa Lucía Utatlán 	7	Santa Rita 	10	Octubre	2023-10-25T00:00:00	2024-11-08T03:00:00	2	Temperatura media	17.2
125058	7	Sololá	704	Santa Lucía Utatlán 	7	Santa Rita 	10	Octubre	2023-10-25T00:00:00	2024-11-08T03:00:00	4	Temperatura máxima	17.7
125059	7	Sololá	704	Santa Lucía Utatlán 	7	Santa Rita 	10	Octubre	2023-10-25T00:00:00	2024-11-08T03:00:00	3	Temperatura mínima	17.2
125060	7	Sololá	704	Santa Lucía Utatlán 	7	Santa Rita 	10	Octubre	2023-10-25T00:00:00	2024-11-08T03:00:00	5	Humedad	93
125061	7	Sololá	704	Santa Lucía Utatlán 	7	Santa Rita 	10	Octubre	2023-10-25T00:00:00	2024-11-08T03:00:00	6	Velocidad del viento	4.8
125062	7	Sololá	704	Santa Lucía Utatlán 	7	Santa Rita 	10	Octubre	2023-10-25T00:00:00	2024-11-08T03:00:00	7	Dirección del viento	4.83
125063	7	Sololá	704	Santa Lucía Utatlán 	7	Santa Rita 	10	Octubre	2023-10-25T00:00:00	2024-11-08T03:00:00	1	Precipitación	0
125064	7	Sololá	704	Santa Lucía Utatlán 	7	Santa Rita 	10	Octubre	2023-10-25T00:00:00	2024-11-08T03:00:00	8	Radiación solar	0
125065	7	Sololá	704	Santa Lucía Utatlán 	7	Santa Rita 	10	Octubre	2023-10-25T00:00:00	2024-11-08T04:00:00	2	Temperatura media	17
125066	7	Sololá	704	Santa Lucía Utatlán 	7	Santa Rita 	10	Octubre	2023-10-25T00:00:00	2024-11-08T04:00:00	4	Temperatura máxima	17.3
125067	7	Sololá	704	Santa Lucía Utatlán 	7	Santa Rita 	10	Octubre	2023-10-25T00:00:00	2024-11-08T04:00:00	3	Temperatura mínima	17
125068	7	Sololá	704	Santa Lucía Utatlán 	7	Santa Rita 	10	Octubre	2023-10-25T00:00:00	2024-11-08T04:00:00	5	Humedad	93
125069	7	Sololá	704	Santa Lucía Utatlán 	7	Santa Rita 	10	Octubre	2023-10-25T00:00:00	2024-11-08T04:00:00	6	Velocidad del viento	3.2
125070	7	Sololá	704	Santa Lucía Utatlán 	7	Santa Rita 	10	Octubre	2023-10-25T00:00:00	2024-11-08T04:00:00	7	Dirección del viento	3.22
125071	7	Sololá	704	Santa Lucía Utatlán 	7	Santa Rita 	10	Octubre	2023-10-25T00:00:00	2024-11-08T04:00:00	1	Precipitación	0
125072	7	Sololá	704	Santa Lucía Utatlán 	7	Santa Rita 	10	Octubre	2023-10-25T00:00:00	2024-11-08T04:00:00	8	Radiación solar	0
125073	7	Sololá	704	Santa Lucía Utatlán 	7	Santa Rita 	10	Octubre	2023-10-25T00:00:00	2024-11-08T05:00:00	2	Temperatura media	19.3
125074	7	Sololá	704	Santa Lucía Utatlán 	7	Santa Rita 	10	Octubre	2023-10-25T00:00:00	2024-11-08T05:00:00	4	Temperatura máxima	19.8
125075	7	Sololá	704	Santa Lucía Utatlán 	7	Santa Rita 	10	Octubre	2023-10-25T00:00:00	2024-11-08T05:00:00	3	Temperatura mínima	16.8
125076	7	Sololá	704	Santa Lucía Utatlán 	7	Santa Rita 	10	Octubre	2023-10-25T00:00:00	2024-11-08T05:00:00	5	Humedad	83
125077	7	Sololá	704	Santa Lucía Utatlán 	7	Santa Rita 	10	Octubre	2023-10-25T00:00:00	2024-11-08T05:00:00	6	Velocidad del viento	3.2
125078	7	Sololá	704	Santa Lucía Utatlán 	7	Santa Rita 	10	Octubre	2023-10-25T00:00:00	2024-11-08T05:00:00	7	Dirección del viento	3.22
125079	7	Sololá	704	Santa Lucía Utatlán 	7	Santa Rita 	10	Octubre	2023-10-25T00:00:00	2024-11-08T05:00:00	1	Precipitación	0
125080	7	Sololá	704	Santa Lucía Utatlán 	7	Santa Rita 	10	Octubre	2023-10-25T00:00:00	2024-11-08T05:00:00	8	Radiación solar	0
125081	7	Sololá	704	Santa Lucía Utatlán 	7	Santa Rita 	10	Octubre	2023-10-25T00:00:00	2024-11-08T06:00:00	2	Temperatura media	18.2
125082	7	Sololá	704	Santa Lucía Utatlán 	7	Santa Rita 	10	Octubre	2023-10-25T00:00:00	2024-11-08T06:00:00	4	Temperatura máxima	19.3
125083	7	Sololá	704	Santa Lucía Utatlán 	7	Santa Rita 	10	Octubre	2023-10-25T00:00:00	2024-11-08T06:00:00	3	Temperatura mínima	18.2
125084	7	Sololá	704	Santa Lucía Utatlán 	7	Santa Rita 	10	Octubre	2023-10-25T00:00:00	2024-11-08T06:00:00	5	Humedad	86
125085	7	Sololá	704	Santa Lucía Utatlán 	7	Santa Rita 	10	Octubre	2023-10-25T00:00:00	2024-11-08T06:00:00	6	Velocidad del viento	3.2
125086	7	Sololá	704	Santa Lucía Utatlán 	7	Santa Rita 	10	Octubre	2023-10-25T00:00:00	2024-11-08T06:00:00	7	Dirección del viento	3.22
125087	7	Sololá	704	Santa Lucía Utatlán 	7	Santa Rita 	10	Octubre	2023-10-25T00:00:00	2024-11-08T06:00:00	1	Precipitación	0
125088	7	Sololá	704	Santa Lucía Utatlán 	7	Santa Rita 	10	Octubre	2023-10-25T00:00:00	2024-11-08T06:00:00	8	Radiación solar	0
125089	7	Sololá	704	Santa Lucía Utatlán 	7	Santa Rita 	10	Octubre	2023-10-25T00:00:00	2024-11-08T07:00:00	2	Temperatura media	17.1
125090	7	Sololá	704	Santa Lucía Utatlán 	7	Santa Rita 	10	Octubre	2023-10-25T00:00:00	2024-11-08T07:00:00	4	Temperatura máxima	18.4
125091	7	Sololá	704	Santa Lucía Utatlán 	7	Santa Rita 	10	Octubre	2023-10-25T00:00:00	2024-11-08T07:00:00	3	Temperatura mínima	17
125092	7	Sololá	704	Santa Lucía Utatlán 	7	Santa Rita 	10	Octubre	2023-10-25T00:00:00	2024-11-08T07:00:00	5	Humedad	90
125093	7	Sololá	704	Santa Lucía Utatlán 	7	Santa Rita 	10	Octubre	2023-10-25T00:00:00	2024-11-08T07:00:00	6	Velocidad del viento	3.2
125094	7	Sololá	704	Santa Lucía Utatlán 	7	Santa Rita 	10	Octubre	2023-10-25T00:00:00	2024-11-08T07:00:00	7	Dirección del viento	3.22
125095	7	Sololá	704	Santa Lucía Utatlán 	7	Santa Rita 	10	Octubre	2023-10-25T00:00:00	2024-11-08T07:00:00	1	Precipitación	0
125096	7	Sololá	704	Santa Lucía Utatlán 	7	Santa Rita 	10	Octubre	2023-10-25T00:00:00	2024-11-08T07:00:00	8	Radiación solar	19
125097	7	Sololá	704	Santa Lucía Utatlán 	7	Santa Rita 	10	Octubre	2023-10-25T00:00:00	2024-11-08T08:00:00	2	Temperatura media	17.1
125098	7	Sololá	704	Santa Lucía Utatlán 	7	Santa Rita 	10	Octubre	2023-10-25T00:00:00	2024-11-08T08:00:00	4	Temperatura máxima	17.3
125099	7	Sololá	704	Santa Lucía Utatlán 	7	Santa Rita 	10	Octubre	2023-10-25T00:00:00	2024-11-08T08:00:00	3	Temperatura mínima	16.8
125100	7	Sololá	704	Santa Lucía Utatlán 	7	Santa Rita 	10	Octubre	2023-10-25T00:00:00	2024-11-08T08:00:00	5	Humedad	91
125101	7	Sololá	704	Santa Lucía Utatlán 	7	Santa Rita 	10	Octubre	2023-10-25T00:00:00	2024-11-08T08:00:00	6	Velocidad del viento	3.2
125102	7	Sololá	704	Santa Lucía Utatlán 	7	Santa Rita 	10	Octubre	2023-10-25T00:00:00	2024-11-08T08:00:00	7	Dirección del viento	3.22
125103	7	Sololá	704	Santa Lucía Utatlán 	7	Santa Rita 	10	Octubre	2023-10-25T00:00:00	2024-11-08T08:00:00	1	Precipitación	0
125104	7	Sololá	704	Santa Lucía Utatlán 	7	Santa Rita 	10	Octubre	2023-10-25T00:00:00	2024-11-08T08:00:00	8	Radiación solar	190
125105	7	Sololá	704	Santa Lucía Utatlán 	7	Santa Rita 	10	Octubre	2023-10-25T00:00:00	2024-11-08T09:00:00	2	Temperatura media	21.3
125106	7	Sololá	704	Santa Lucía Utatlán 	7	Santa Rita 	10	Octubre	2023-10-25T00:00:00	2024-11-08T09:00:00	4	Temperatura máxima	21.3
125107	7	Sololá	704	Santa Lucía Utatlán 	7	Santa Rita 	10	Octubre	2023-10-25T00:00:00	2024-11-08T09:00:00	3	Temperatura mínima	17.1
125108	7	Sololá	704	Santa Lucía Utatlán 	7	Santa Rita 	10	Octubre	2023-10-25T00:00:00	2024-11-08T09:00:00	5	Humedad	78
125109	7	Sololá	704	Santa Lucía Utatlán 	7	Santa Rita 	10	Octubre	2023-10-25T00:00:00	2024-11-08T09:00:00	6	Velocidad del viento	3.2
125110	7	Sololá	704	Santa Lucía Utatlán 	7	Santa Rita 	10	Octubre	2023-10-25T00:00:00	2024-11-08T09:00:00	7	Dirección del viento	3.22
125111	7	Sololá	704	Santa Lucía Utatlán 	7	Santa Rita 	10	Octubre	2023-10-25T00:00:00	2024-11-08T09:00:00	1	Precipitación	0
125112	7	Sololá	704	Santa Lucía Utatlán 	7	Santa Rita 	10	Octubre	2023-10-25T00:00:00	2024-11-08T09:00:00	8	Radiación solar	439
125113	7	Sololá	704	Santa Lucía Utatlán 	7	Santa Rita 	10	Octubre	2023-10-25T00:00:00	2024-11-08T10:00:00	2	Temperatura media	23.5
125114	7	Sololá	704	Santa Lucía Utatlán 	7	Santa Rita 	10	Octubre	2023-10-25T00:00:00	2024-11-08T10:00:00	4	Temperatura máxima	23.5
125115	7	Sololá	704	Santa Lucía Utatlán 	7	Santa Rita 	10	Octubre	2023-10-25T00:00:00	2024-11-08T10:00:00	3	Temperatura mínima	21.3
125116	7	Sololá	704	Santa Lucía Utatlán 	7	Santa Rita 	10	Octubre	2023-10-25T00:00:00	2024-11-08T10:00:00	5	Humedad	72
125117	7	Sololá	704	Santa Lucía Utatlán 	7	Santa Rita 	10	Octubre	2023-10-25T00:00:00	2024-11-08T10:00:00	6	Velocidad del viento	6.4
125118	7	Sololá	704	Santa Lucía Utatlán 	7	Santa Rita 	10	Octubre	2023-10-25T00:00:00	2024-11-08T10:00:00	7	Dirección del viento	6.44
125119	7	Sololá	704	Santa Lucía Utatlán 	7	Santa Rita 	10	Octubre	2023-10-25T00:00:00	2024-11-08T10:00:00	1	Precipitación	0
125120	7	Sololá	704	Santa Lucía Utatlán 	7	Santa Rita 	10	Octubre	2023-10-25T00:00:00	2024-11-08T10:00:00	8	Radiación solar	493
125121	7	Sololá	704	Santa Lucía Utatlán 	7	Santa Rita 	10	Octubre	2023-10-25T00:00:00	2024-11-08T11:00:00	2	Temperatura media	22.3
125122	7	Sololá	704	Santa Lucía Utatlán 	7	Santa Rita 	10	Octubre	2023-10-25T00:00:00	2024-11-08T11:00:00	4	Temperatura máxima	23.7
125123	7	Sololá	704	Santa Lucía Utatlán 	7	Santa Rita 	10	Octubre	2023-10-25T00:00:00	2024-11-08T11:00:00	3	Temperatura mínima	22.2
125124	7	Sololá	704	Santa Lucía Utatlán 	7	Santa Rita 	10	Octubre	2023-10-25T00:00:00	2024-11-08T11:00:00	5	Humedad	74
125125	7	Sololá	704	Santa Lucía Utatlán 	7	Santa Rita 	10	Octubre	2023-10-25T00:00:00	2024-11-08T11:00:00	6	Velocidad del viento	14.5
125126	7	Sololá	704	Santa Lucía Utatlán 	7	Santa Rita 	10	Octubre	2023-10-25T00:00:00	2024-11-08T11:00:00	7	Dirección del viento	14.48
125127	7	Sololá	704	Santa Lucía Utatlán 	7	Santa Rita 	10	Octubre	2023-10-25T00:00:00	2024-11-08T11:00:00	1	Precipitación	0
125128	7	Sololá	704	Santa Lucía Utatlán 	7	Santa Rita 	10	Octubre	2023-10-25T00:00:00	2024-11-08T11:00:00	8	Radiación solar	549
125129	7	Sololá	704	Santa Lucía Utatlán 	7	Santa Rita 	10	Octubre	2023-10-25T00:00:00	2024-11-08T12:00:00	2	Temperatura media	22.8
125130	7	Sololá	704	Santa Lucía Utatlán 	7	Santa Rita 	10	Octubre	2023-10-25T00:00:00	2024-11-08T12:00:00	4	Temperatura máxima	23.4
125131	7	Sololá	704	Santa Lucía Utatlán 	7	Santa Rita 	10	Octubre	2023-10-25T00:00:00	2024-11-08T12:00:00	3	Temperatura mínima	22.3
125132	7	Sololá	704	Santa Lucía Utatlán 	7	Santa Rita 	10	Octubre	2023-10-25T00:00:00	2024-11-08T12:00:00	5	Humedad	77
125133	7	Sololá	704	Santa Lucía Utatlán 	7	Santa Rita 	10	Octubre	2023-10-25T00:00:00	2024-11-08T12:00:00	6	Velocidad del viento	9.7
125134	7	Sololá	704	Santa Lucía Utatlán 	7	Santa Rita 	10	Octubre	2023-10-25T00:00:00	2024-11-08T12:00:00	7	Dirección del viento	9.66
125135	7	Sololá	704	Santa Lucía Utatlán 	7	Santa Rita 	10	Octubre	2023-10-25T00:00:00	2024-11-08T12:00:00	1	Precipitación	0
125136	7	Sololá	704	Santa Lucía Utatlán 	7	Santa Rita 	10	Octubre	2023-10-25T00:00:00	2024-11-08T12:00:00	8	Radiación solar	643
125137	7	Sololá	704	Santa Lucía Utatlán 	7	Santa Rita 	10	Octubre	2023-10-25T00:00:00	2024-11-08T13:00:00	2	Temperatura media	23.8
125138	7	Sololá	704	Santa Lucía Utatlán 	7	Santa Rita 	10	Octubre	2023-10-25T00:00:00	2024-11-08T13:00:00	4	Temperatura máxima	23.8
125139	7	Sololá	704	Santa Lucía Utatlán 	7	Santa Rita 	10	Octubre	2023-10-25T00:00:00	2024-11-08T13:00:00	3	Temperatura mínima	22.7
125140	7	Sololá	704	Santa Lucía Utatlán 	7	Santa Rita 	10	Octubre	2023-10-25T00:00:00	2024-11-08T13:00:00	5	Humedad	72
125141	7	Sololá	704	Santa Lucía Utatlán 	7	Santa Rita 	10	Octubre	2023-10-25T00:00:00	2024-11-08T13:00:00	6	Velocidad del viento	11.3
125142	7	Sololá	704	Santa Lucía Utatlán 	7	Santa Rita 	10	Octubre	2023-10-25T00:00:00	2024-11-08T13:00:00	7	Dirección del viento	11.27
125143	7	Sololá	704	Santa Lucía Utatlán 	7	Santa Rita 	10	Octubre	2023-10-25T00:00:00	2024-11-08T13:00:00	1	Precipitación	0
125144	7	Sololá	704	Santa Lucía Utatlán 	7	Santa Rita 	10	Octubre	2023-10-25T00:00:00	2024-11-08T13:00:00	8	Radiación solar	671
125145	7	Sololá	704	Santa Lucía Utatlán 	7	Santa Rita 	10	Octubre	2023-10-25T00:00:00	2024-11-08T14:00:00	2	Temperatura media	24
125146	7	Sololá	704	Santa Lucía Utatlán 	7	Santa Rita 	10	Octubre	2023-10-25T00:00:00	2024-11-08T14:00:00	4	Temperatura máxima	24.5
125147	7	Sololá	704	Santa Lucía Utatlán 	7	Santa Rita 	10	Octubre	2023-10-25T00:00:00	2024-11-08T14:00:00	3	Temperatura mínima	23.6
125148	7	Sololá	704	Santa Lucía Utatlán 	7	Santa Rita 	10	Octubre	2023-10-25T00:00:00	2024-11-08T14:00:00	5	Humedad	70
125149	7	Sololá	704	Santa Lucía Utatlán 	7	Santa Rita 	10	Octubre	2023-10-25T00:00:00	2024-11-08T14:00:00	6	Velocidad del viento	9.7
125150	7	Sololá	704	Santa Lucía Utatlán 	7	Santa Rita 	10	Octubre	2023-10-25T00:00:00	2024-11-08T14:00:00	7	Dirección del viento	9.66
125151	7	Sololá	704	Santa Lucía Utatlán 	7	Santa Rita 	10	Octubre	2023-10-25T00:00:00	2024-11-08T14:00:00	1	Precipitación	0
125152	7	Sololá	704	Santa Lucía Utatlán 	7	Santa Rita 	10	Octubre	2023-10-25T00:00:00	2024-11-08T14:00:00	8	Radiación solar	578
125153	7	Sololá	704	Santa Lucía Utatlán 	7	Santa Rita 	10	Octubre	2023-10-25T00:00:00	2024-11-08T15:00:00	2	Temperatura media	24.6
125154	7	Sololá	704	Santa Lucía Utatlán 	7	Santa Rita 	10	Octubre	2023-10-25T00:00:00	2024-11-08T15:00:00	4	Temperatura máxima	24.8
125155	7	Sololá	704	Santa Lucía Utatlán 	7	Santa Rita 	10	Octubre	2023-10-25T00:00:00	2024-11-08T15:00:00	3	Temperatura mínima	23.6
125156	7	Sololá	704	Santa Lucía Utatlán 	7	Santa Rita 	10	Octubre	2023-10-25T00:00:00	2024-11-08T15:00:00	5	Humedad	69
125157	7	Sololá	704	Santa Lucía Utatlán 	7	Santa Rita 	10	Octubre	2023-10-25T00:00:00	2024-11-08T15:00:00	6	Velocidad del viento	9.7
125158	7	Sololá	704	Santa Lucía Utatlán 	7	Santa Rita 	10	Octubre	2023-10-25T00:00:00	2024-11-08T15:00:00	7	Dirección del viento	9.66
125159	7	Sololá	704	Santa Lucía Utatlán 	7	Santa Rita 	10	Octubre	2023-10-25T00:00:00	2024-11-08T15:00:00	1	Precipitación	0
125160	7	Sololá	704	Santa Lucía Utatlán 	7	Santa Rita 	10	Octubre	2023-10-25T00:00:00	2024-11-08T15:00:00	8	Radiación solar	264
125161	7	Sololá	704	Santa Lucía Utatlán 	7	Santa Rita 	10	Octubre	2023-10-25T00:00:00	2024-11-08T16:00:00	2	Temperatura media	23.8
125162	7	Sololá	704	Santa Lucía Utatlán 	7	Santa Rita 	10	Octubre	2023-10-25T00:00:00	2024-11-08T16:00:00	4	Temperatura máxima	24.7
125163	7	Sololá	704	Santa Lucía Utatlán 	7	Santa Rita 	10	Octubre	2023-10-25T00:00:00	2024-11-08T16:00:00	3	Temperatura mínima	23.6
125164	7	Sololá	704	Santa Lucía Utatlán 	7	Santa Rita 	10	Octubre	2023-10-25T00:00:00	2024-11-08T16:00:00	5	Humedad	71
125165	7	Sololá	704	Santa Lucía Utatlán 	7	Santa Rita 	10	Octubre	2023-10-25T00:00:00	2024-11-08T16:00:00	6	Velocidad del viento	8
125166	7	Sololá	704	Santa Lucía Utatlán 	7	Santa Rita 	10	Octubre	2023-10-25T00:00:00	2024-11-08T16:00:00	7	Dirección del viento	8.05
125167	7	Sololá	704	Santa Lucía Utatlán 	7	Santa Rita 	10	Octubre	2023-10-25T00:00:00	2024-11-08T16:00:00	1	Precipitación	0
125168	7	Sololá	704	Santa Lucía Utatlán 	7	Santa Rita 	10	Octubre	2023-10-25T00:00:00	2024-11-08T16:00:00	8	Radiación solar	351
125169	7	Sololá	704	Santa Lucía Utatlán 	7	Santa Rita 	10	Octubre	2023-10-25T00:00:00	2024-11-08T17:00:00	2	Temperatura media	24.3
125170	7	Sololá	704	Santa Lucía Utatlán 	7	Santa Rita 	10	Octubre	2023-10-25T00:00:00	2024-11-08T17:00:00	4	Temperatura máxima	24.5
125171	7	Sololá	704	Santa Lucía Utatlán 	7	Santa Rita 	10	Octubre	2023-10-25T00:00:00	2024-11-08T17:00:00	3	Temperatura mínima	23.5
125172	7	Sololá	704	Santa Lucía Utatlán 	7	Santa Rita 	10	Octubre	2023-10-25T00:00:00	2024-11-08T17:00:00	5	Humedad	69
125173	7	Sololá	704	Santa Lucía Utatlán 	7	Santa Rita 	10	Octubre	2023-10-25T00:00:00	2024-11-08T17:00:00	6	Velocidad del viento	9.7
125174	7	Sololá	704	Santa Lucía Utatlán 	7	Santa Rita 	10	Octubre	2023-10-25T00:00:00	2024-11-08T17:00:00	7	Dirección del viento	9.66
125175	7	Sololá	704	Santa Lucía Utatlán 	7	Santa Rita 	10	Octubre	2023-10-25T00:00:00	2024-11-08T17:00:00	1	Precipitación	0
125176	7	Sololá	704	Santa Lucía Utatlán 	7	Santa Rita 	10	Octubre	2023-10-25T00:00:00	2024-11-08T17:00:00	8	Radiación solar	258
125177	7	Sololá	704	Santa Lucía Utatlán 	7	Santa Rita 	10	Octubre	2023-10-25T00:00:00	2024-11-08T18:00:00	2	Temperatura media	23.9
125178	7	Sololá	704	Santa Lucía Utatlán 	7	Santa Rita 	10	Octubre	2023-10-25T00:00:00	2024-11-08T18:00:00	4	Temperatura máxima	24.6
125179	7	Sololá	704	Santa Lucía Utatlán 	7	Santa Rita 	10	Octubre	2023-10-25T00:00:00	2024-11-08T18:00:00	3	Temperatura mínima	23.8
125180	7	Sololá	704	Santa Lucía Utatlán 	7	Santa Rita 	10	Octubre	2023-10-25T00:00:00	2024-11-08T18:00:00	5	Humedad	70
125181	7	Sololá	704	Santa Lucía Utatlán 	7	Santa Rita 	10	Octubre	2023-10-25T00:00:00	2024-11-08T18:00:00	6	Velocidad del viento	6.4
125182	7	Sololá	704	Santa Lucía Utatlán 	7	Santa Rita 	10	Octubre	2023-10-25T00:00:00	2024-11-08T18:00:00	7	Dirección del viento	6.44
125183	7	Sololá	704	Santa Lucía Utatlán 	7	Santa Rita 	10	Octubre	2023-10-25T00:00:00	2024-11-08T18:00:00	1	Precipitación	0
125184	7	Sololá	704	Santa Lucía Utatlán 	7	Santa Rita 	10	Octubre	2023-10-25T00:00:00	2024-11-08T18:00:00	8	Radiación solar	0
125185	7	Sololá	704	Santa Lucía Utatlán 	7	Santa Rita 	10	Octubre	2023-10-25T00:00:00	2024-11-08T19:00:00	2	Temperatura media	18.8
125186	7	Sololá	704	Santa Lucía Utatlán 	7	Santa Rita 	10	Octubre	2023-10-25T00:00:00	2024-11-08T19:00:00	4	Temperatura máxima	19.1
125187	7	Sololá	704	Santa Lucía Utatlán 	7	Santa Rita 	10	Octubre	2023-10-25T00:00:00	2024-11-08T19:00:00	3	Temperatura mínima	18.6
125188	7	Sololá	704	Santa Lucía Utatlán 	7	Santa Rita 	10	Octubre	2023-10-25T00:00:00	2024-11-08T19:00:00	5	Humedad	95
125189	7	Sololá	704	Santa Lucía Utatlán 	7	Santa Rita 	10	Octubre	2023-10-25T00:00:00	2024-11-08T19:00:00	6	Velocidad del viento	1.6
125190	7	Sololá	704	Santa Lucía Utatlán 	7	Santa Rita 	10	Octubre	2023-10-25T00:00:00	2024-11-08T19:00:00	7	Dirección del viento	1.61
125191	7	Sololá	704	Santa Lucía Utatlán 	7	Santa Rita 	10	Octubre	2023-10-25T00:00:00	2024-11-08T19:00:00	1	Precipitación	0
125192	7	Sololá	704	Santa Lucía Utatlán 	7	Santa Rita 	10	Octubre	2023-10-25T00:00:00	2024-11-08T19:00:00	8	Radiación solar	0
125193	7	Sololá	704	Santa Lucía Utatlán 	7	Santa Rita 	10	Octubre	2023-10-25T00:00:00	2024-11-08T20:00:00	2	Temperatura media	18.2
125194	7	Sololá	704	Santa Lucía Utatlán 	7	Santa Rita 	10	Octubre	2023-10-25T00:00:00	2024-11-08T20:00:00	4	Temperatura máxima	18.8
125195	7	Sololá	704	Santa Lucía Utatlán 	7	Santa Rita 	10	Octubre	2023-10-25T00:00:00	2024-11-08T20:00:00	3	Temperatura mínima	18.1
125196	7	Sololá	704	Santa Lucía Utatlán 	7	Santa Rita 	10	Octubre	2023-10-25T00:00:00	2024-11-08T20:00:00	5	Humedad	95
125197	7	Sololá	704	Santa Lucía Utatlán 	7	Santa Rita 	10	Octubre	2023-10-25T00:00:00	2024-11-08T20:00:00	6	Velocidad del viento	3.2
125198	7	Sololá	704	Santa Lucía Utatlán 	7	Santa Rita 	10	Octubre	2023-10-25T00:00:00	2024-11-08T20:00:00	7	Dirección del viento	3.22
125199	7	Sololá	704	Santa Lucía Utatlán 	7	Santa Rita 	10	Octubre	2023-10-25T00:00:00	2024-11-08T20:00:00	1	Precipitación	0
125200	7	Sololá	704	Santa Lucía Utatlán 	7	Santa Rita 	10	Octubre	2023-10-25T00:00:00	2024-11-08T20:00:00	8	Radiación solar	0
125201	7	Sololá	704	Santa Lucía Utatlán 	7	Santa Rita 	10	Octubre	2023-10-25T00:00:00	2024-11-08T21:00:00	2	Temperatura media	17.8
125202	7	Sololá	704	Santa Lucía Utatlán 	7	Santa Rita 	10	Octubre	2023-10-25T00:00:00	2024-11-08T21:00:00	4	Temperatura máxima	18.3
125203	7	Sololá	704	Santa Lucía Utatlán 	7	Santa Rita 	10	Octubre	2023-10-25T00:00:00	2024-11-08T21:00:00	3	Temperatura mínima	17.7
125204	7	Sololá	704	Santa Lucía Utatlán 	7	Santa Rita 	10	Octubre	2023-10-25T00:00:00	2024-11-08T21:00:00	5	Humedad	94
125205	7	Sololá	704	Santa Lucía Utatlán 	7	Santa Rita 	10	Octubre	2023-10-25T00:00:00	2024-11-08T21:00:00	6	Velocidad del viento	3.2
125206	7	Sololá	704	Santa Lucía Utatlán 	7	Santa Rita 	10	Octubre	2023-10-25T00:00:00	2024-11-08T21:00:00	7	Dirección del viento	3.22
125207	7	Sololá	704	Santa Lucía Utatlán 	7	Santa Rita 	10	Octubre	2023-10-25T00:00:00	2024-11-08T21:00:00	1	Precipitación	0
125208	7	Sololá	704	Santa Lucía Utatlán 	7	Santa Rita 	10	Octubre	2023-10-25T00:00:00	2024-11-08T21:00:00	8	Radiación solar	0
125209	7	Sololá	704	Santa Lucía Utatlán 	7	Santa Rita 	10	Octubre	2023-10-25T00:00:00	2024-11-08T22:00:00	2	Temperatura media	17.4
125210	7	Sololá	704	Santa Lucía Utatlán 	7	Santa Rita 	10	Octubre	2023-10-25T00:00:00	2024-11-08T22:00:00	4	Temperatura máxima	18
125211	7	Sololá	704	Santa Lucía Utatlán 	7	Santa Rita 	10	Octubre	2023-10-25T00:00:00	2024-11-08T22:00:00	3	Temperatura mínima	17.4
125212	7	Sololá	704	Santa Lucía Utatlán 	7	Santa Rita 	10	Octubre	2023-10-25T00:00:00	2024-11-08T22:00:00	5	Humedad	94
125213	7	Sololá	704	Santa Lucía Utatlán 	7	Santa Rita 	10	Octubre	2023-10-25T00:00:00	2024-11-08T22:00:00	6	Velocidad del viento	1.6
125214	7	Sololá	704	Santa Lucía Utatlán 	7	Santa Rita 	10	Octubre	2023-10-25T00:00:00	2024-11-08T22:00:00	7	Dirección del viento	1.61
125215	7	Sololá	704	Santa Lucía Utatlán 	7	Santa Rita 	10	Octubre	2023-10-25T00:00:00	2024-11-08T22:00:00	1	Precipitación	0
125216	7	Sololá	704	Santa Lucía Utatlán 	7	Santa Rita 	10	Octubre	2023-10-25T00:00:00	2024-11-08T22:00:00	8	Radiación solar	0
125217	7	Sololá	704	Santa Lucía Utatlán 	7	Santa Rita 	10	Octubre	2023-10-25T00:00:00	2024-11-08T23:00:00	2	Temperatura media	17.5
125218	7	Sololá	704	Santa Lucía Utatlán 	7	Santa Rita 	10	Octubre	2023-10-25T00:00:00	2024-11-08T23:00:00	4	Temperatura máxima	17.6
125219	7	Sololá	704	Santa Lucía Utatlán 	7	Santa Rita 	10	Octubre	2023-10-25T00:00:00	2024-11-08T23:00:00	3	Temperatura mínima	17.3
125220	7	Sololá	704	Santa Lucía Utatlán 	7	Santa Rita 	10	Octubre	2023-10-25T00:00:00	2024-11-08T23:00:00	5	Humedad	94
125221	7	Sololá	704	Santa Lucía Utatlán 	7	Santa Rita 	10	Octubre	2023-10-25T00:00:00	2024-11-08T23:00:00	6	Velocidad del viento	3.2
125222	7	Sololá	704	Santa Lucía Utatlán 	7	Santa Rita 	10	Octubre	2023-10-25T00:00:00	2024-11-08T23:00:00	7	Dirección del viento	3.22
125223	7	Sololá	704	Santa Lucía Utatlán 	7	Santa Rita 	10	Octubre	2023-10-25T00:00:00	2024-11-08T23:00:00	1	Precipitación	0
125224	7	Sololá	704	Santa Lucía Utatlán 	7	Santa Rita 	10	Octubre	2023-10-25T00:00:00	2024-11-08T23:00:00	8	Radiación solar	0
125225	7	Sololá	704	Santa Lucía Utatlán 	7	Santa Rita 	10	Octubre	2023-10-26T00:00:00	2024-11-08T00:00:00	2	Temperatura media	18.7
125226	7	Sololá	704	Santa Lucía Utatlán 	7	Santa Rita 	10	Octubre	2023-10-26T00:00:00	2024-11-08T00:00:00	4	Temperatura máxima	20.4
125227	7	Sololá	704	Santa Lucía Utatlán 	7	Santa Rita 	10	Octubre	2023-10-26T00:00:00	2024-11-08T00:00:00	3	Temperatura mínima	18.6
125228	7	Sololá	704	Santa Lucía Utatlán 	7	Santa Rita 	10	Octubre	2023-10-26T00:00:00	2024-11-08T00:00:00	5	Humedad	86
125229	7	Sololá	704	Santa Lucía Utatlán 	7	Santa Rita 	10	Octubre	2023-10-26T00:00:00	2024-11-08T00:00:00	6	Velocidad del viento	3.2
125230	7	Sololá	704	Santa Lucía Utatlán 	7	Santa Rita 	10	Octubre	2023-10-26T00:00:00	2024-11-08T00:00:00	7	Dirección del viento	3.22
125231	7	Sololá	704	Santa Lucía Utatlán 	7	Santa Rita 	10	Octubre	2023-10-26T00:00:00	2024-11-08T00:00:00	1	Precipitación	0
125232	7	Sololá	704	Santa Lucía Utatlán 	7	Santa Rita 	10	Octubre	2023-10-26T00:00:00	2024-11-08T00:00:00	8	Radiación solar	0
125233	7	Sololá	704	Santa Lucía Utatlán 	7	Santa Rita 	10	Octubre	2023-10-26T00:00:00	2024-11-08T01:00:00	2	Temperatura media	18
125234	7	Sololá	704	Santa Lucía Utatlán 	7	Santa Rita 	10	Octubre	2023-10-26T00:00:00	2024-11-08T01:00:00	4	Temperatura máxima	18.7
125235	7	Sololá	704	Santa Lucía Utatlán 	7	Santa Rita 	10	Octubre	2023-10-26T00:00:00	2024-11-08T01:00:00	3	Temperatura mínima	17.9
125236	7	Sololá	704	Santa Lucía Utatlán 	7	Santa Rita 	10	Octubre	2023-10-26T00:00:00	2024-11-08T01:00:00	5	Humedad	91
125237	7	Sololá	704	Santa Lucía Utatlán 	7	Santa Rita 	10	Octubre	2023-10-26T00:00:00	2024-11-08T01:00:00	6	Velocidad del viento	3.2
125238	7	Sololá	704	Santa Lucía Utatlán 	7	Santa Rita 	10	Octubre	2023-10-26T00:00:00	2024-11-08T01:00:00	7	Dirección del viento	3.22
125239	7	Sololá	704	Santa Lucía Utatlán 	7	Santa Rita 	10	Octubre	2023-10-26T00:00:00	2024-11-08T01:00:00	1	Precipitación	0
125240	7	Sololá	704	Santa Lucía Utatlán 	7	Santa Rita 	10	Octubre	2023-10-26T00:00:00	2024-11-08T01:00:00	8	Radiación solar	0
125241	7	Sololá	704	Santa Lucía Utatlán 	7	Santa Rita 	10	Octubre	2023-10-26T00:00:00	2024-11-08T02:00:00	2	Temperatura media	20.1
125242	7	Sololá	704	Santa Lucía Utatlán 	7	Santa Rita 	10	Octubre	2023-10-26T00:00:00	2024-11-08T02:00:00	4	Temperatura máxima	20.1
125243	7	Sololá	704	Santa Lucía Utatlán 	7	Santa Rita 	10	Octubre	2023-10-26T00:00:00	2024-11-08T02:00:00	3	Temperatura mínima	17.9
125244	7	Sololá	704	Santa Lucía Utatlán 	7	Santa Rita 	10	Octubre	2023-10-26T00:00:00	2024-11-08T02:00:00	5	Humedad	87
125245	7	Sololá	704	Santa Lucía Utatlán 	7	Santa Rita 	10	Octubre	2023-10-26T00:00:00	2024-11-08T02:00:00	6	Velocidad del viento	1.6
125246	7	Sololá	704	Santa Lucía Utatlán 	7	Santa Rita 	10	Octubre	2023-10-26T00:00:00	2024-11-08T02:00:00	7	Dirección del viento	1.61
125247	7	Sololá	704	Santa Lucía Utatlán 	7	Santa Rita 	10	Octubre	2023-10-26T00:00:00	2024-11-08T02:00:00	1	Precipitación	0
125248	7	Sololá	704	Santa Lucía Utatlán 	7	Santa Rita 	10	Octubre	2023-10-26T00:00:00	2024-11-08T02:00:00	8	Radiación solar	0
125249	7	Sololá	704	Santa Lucía Utatlán 	7	Santa Rita 	10	Octubre	2023-10-26T00:00:00	2024-11-08T03:00:00	2	Temperatura media	21.9
125250	7	Sololá	704	Santa Lucía Utatlán 	7	Santa Rita 	10	Octubre	2023-10-26T00:00:00	2024-11-08T03:00:00	4	Temperatura máxima	22.4
125251	7	Sololá	704	Santa Lucía Utatlán 	7	Santa Rita 	10	Octubre	2023-10-26T00:00:00	2024-11-08T03:00:00	3	Temperatura mínima	20.1
125252	7	Sololá	704	Santa Lucía Utatlán 	7	Santa Rita 	10	Octubre	2023-10-26T00:00:00	2024-11-08T03:00:00	5	Humedad	80
125253	7	Sololá	704	Santa Lucía Utatlán 	7	Santa Rita 	10	Octubre	2023-10-26T00:00:00	2024-11-08T03:00:00	6	Velocidad del viento	4.8
125254	7	Sololá	704	Santa Lucía Utatlán 	7	Santa Rita 	10	Octubre	2023-10-26T00:00:00	2024-11-08T03:00:00	7	Dirección del viento	4.83
125255	7	Sololá	704	Santa Lucía Utatlán 	7	Santa Rita 	10	Octubre	2023-10-26T00:00:00	2024-11-08T03:00:00	1	Precipitación	0
125256	7	Sololá	704	Santa Lucía Utatlán 	7	Santa Rita 	10	Octubre	2023-10-26T00:00:00	2024-11-08T03:00:00	8	Radiación solar	0
125257	7	Sololá	704	Santa Lucía Utatlán 	7	Santa Rita 	10	Octubre	2023-10-26T00:00:00	2024-11-08T04:00:00	2	Temperatura media	21.8
125258	7	Sololá	704	Santa Lucía Utatlán 	7	Santa Rita 	10	Octubre	2023-10-26T00:00:00	2024-11-08T04:00:00	4	Temperatura máxima	22.1
125259	7	Sololá	704	Santa Lucía Utatlán 	7	Santa Rita 	10	Octubre	2023-10-26T00:00:00	2024-11-08T04:00:00	3	Temperatura mínima	21.4
125260	7	Sololá	704	Santa Lucía Utatlán 	7	Santa Rita 	10	Octubre	2023-10-26T00:00:00	2024-11-08T04:00:00	5	Humedad	80
125261	7	Sololá	704	Santa Lucía Utatlán 	7	Santa Rita 	10	Octubre	2023-10-26T00:00:00	2024-11-08T04:00:00	6	Velocidad del viento	6.4
125262	7	Sololá	704	Santa Lucía Utatlán 	7	Santa Rita 	10	Octubre	2023-10-26T00:00:00	2024-11-08T04:00:00	7	Dirección del viento	6.44
125263	7	Sololá	704	Santa Lucía Utatlán 	7	Santa Rita 	10	Octubre	2023-10-26T00:00:00	2024-11-08T04:00:00	1	Precipitación	0
125264	7	Sololá	704	Santa Lucía Utatlán 	7	Santa Rita 	10	Octubre	2023-10-26T00:00:00	2024-11-08T04:00:00	8	Radiación solar	0
125265	7	Sololá	704	Santa Lucía Utatlán 	7	Santa Rita 	10	Octubre	2023-10-26T00:00:00	2024-11-08T05:00:00	2	Temperatura media	21.8
125266	7	Sololá	704	Santa Lucía Utatlán 	7	Santa Rita 	10	Octubre	2023-10-26T00:00:00	2024-11-08T05:00:00	4	Temperatura máxima	22.1
125267	7	Sololá	704	Santa Lucía Utatlán 	7	Santa Rita 	10	Octubre	2023-10-26T00:00:00	2024-11-08T05:00:00	3	Temperatura mínima	21.6
125268	7	Sololá	704	Santa Lucía Utatlán 	7	Santa Rita 	10	Octubre	2023-10-26T00:00:00	2024-11-08T05:00:00	5	Humedad	82
125269	7	Sololá	704	Santa Lucía Utatlán 	7	Santa Rita 	10	Octubre	2023-10-26T00:00:00	2024-11-08T05:00:00	6	Velocidad del viento	3.2
125270	7	Sololá	704	Santa Lucía Utatlán 	7	Santa Rita 	10	Octubre	2023-10-26T00:00:00	2024-11-08T05:00:00	7	Dirección del viento	3.22
125271	7	Sololá	704	Santa Lucía Utatlán 	7	Santa Rita 	10	Octubre	2023-10-26T00:00:00	2024-11-08T05:00:00	1	Precipitación	0
125272	7	Sololá	704	Santa Lucía Utatlán 	7	Santa Rita 	10	Octubre	2023-10-26T00:00:00	2024-11-08T05:00:00	8	Radiación solar	0
125273	7	Sololá	704	Santa Lucía Utatlán 	7	Santa Rita 	10	Octubre	2023-10-26T00:00:00	2024-11-08T06:00:00	2	Temperatura media	22.6
125274	7	Sololá	704	Santa Lucía Utatlán 	7	Santa Rita 	10	Octubre	2023-10-26T00:00:00	2024-11-08T06:00:00	4	Temperatura máxima	22.6
125275	7	Sololá	704	Santa Lucía Utatlán 	7	Santa Rita 	10	Octubre	2023-10-26T00:00:00	2024-11-08T06:00:00	3	Temperatura mínima	21.4
125276	7	Sololá	704	Santa Lucía Utatlán 	7	Santa Rita 	10	Octubre	2023-10-26T00:00:00	2024-11-08T06:00:00	5	Humedad	70
125277	7	Sololá	704	Santa Lucía Utatlán 	7	Santa Rita 	10	Octubre	2023-10-26T00:00:00	2024-11-08T06:00:00	6	Velocidad del viento	4.8
125278	7	Sololá	704	Santa Lucía Utatlán 	7	Santa Rita 	10	Octubre	2023-10-26T00:00:00	2024-11-08T06:00:00	7	Dirección del viento	4.83
125279	7	Sololá	704	Santa Lucía Utatlán 	7	Santa Rita 	10	Octubre	2023-10-26T00:00:00	2024-11-08T06:00:00	1	Precipitación	0
125280	7	Sololá	704	Santa Lucía Utatlán 	7	Santa Rita 	10	Octubre	2023-10-26T00:00:00	2024-11-08T06:00:00	8	Radiación solar	4
125281	7	Sololá	704	Santa Lucía Utatlán 	7	Santa Rita 	10	Octubre	2023-10-26T00:00:00	2024-11-08T07:00:00	2	Temperatura media	23.3
125282	7	Sololá	704	Santa Lucía Utatlán 	7	Santa Rita 	10	Octubre	2023-10-26T00:00:00	2024-11-08T07:00:00	4	Temperatura máxima	23.7
125283	7	Sololá	704	Santa Lucía Utatlán 	7	Santa Rita 	10	Octubre	2023-10-26T00:00:00	2024-11-08T07:00:00	3	Temperatura mínima	22.6
125284	7	Sololá	704	Santa Lucía Utatlán 	7	Santa Rita 	10	Octubre	2023-10-26T00:00:00	2024-11-08T07:00:00	5	Humedad	69
125285	7	Sololá	704	Santa Lucía Utatlán 	7	Santa Rita 	10	Octubre	2023-10-26T00:00:00	2024-11-08T07:00:00	6	Velocidad del viento	4.8
125286	7	Sololá	704	Santa Lucía Utatlán 	7	Santa Rita 	10	Octubre	2023-10-26T00:00:00	2024-11-08T07:00:00	7	Dirección del viento	4.83
125287	7	Sololá	704	Santa Lucía Utatlán 	7	Santa Rita 	10	Octubre	2023-10-26T00:00:00	2024-11-08T07:00:00	1	Precipitación	0
125288	7	Sololá	704	Santa Lucía Utatlán 	7	Santa Rita 	10	Octubre	2023-10-26T00:00:00	2024-11-08T07:00:00	8	Radiación solar	60
125289	7	Sololá	704	Santa Lucía Utatlán 	7	Santa Rita 	10	Octubre	2023-10-26T00:00:00	2024-11-08T08:00:00	2	Temperatura media	20.8
125290	7	Sololá	704	Santa Lucía Utatlán 	7	Santa Rita 	10	Octubre	2023-10-26T00:00:00	2024-11-08T08:00:00	4	Temperatura máxima	23.3
125291	7	Sololá	704	Santa Lucía Utatlán 	7	Santa Rita 	10	Octubre	2023-10-26T00:00:00	2024-11-08T08:00:00	3	Temperatura mínima	20.8
125292	7	Sololá	704	Santa Lucía Utatlán 	7	Santa Rita 	10	Octubre	2023-10-26T00:00:00	2024-11-08T08:00:00	5	Humedad	81
125293	7	Sololá	704	Santa Lucía Utatlán 	7	Santa Rita 	10	Octubre	2023-10-26T00:00:00	2024-11-08T08:00:00	6	Velocidad del viento	4.8
125294	7	Sololá	704	Santa Lucía Utatlán 	7	Santa Rita 	10	Octubre	2023-10-26T00:00:00	2024-11-08T08:00:00	7	Dirección del viento	4.83
125295	7	Sololá	704	Santa Lucía Utatlán 	7	Santa Rita 	10	Octubre	2023-10-26T00:00:00	2024-11-08T08:00:00	1	Precipitación	1
125296	7	Sololá	704	Santa Lucía Utatlán 	7	Santa Rita 	10	Octubre	2023-10-26T00:00:00	2024-11-08T08:00:00	8	Radiación solar	203
125297	7	Sololá	704	Santa Lucía Utatlán 	7	Santa Rita 	10	Octubre	2023-10-26T00:00:00	2024-11-08T09:00:00	2	Temperatura media	20.4
125298	7	Sololá	704	Santa Lucía Utatlán 	7	Santa Rita 	10	Octubre	2023-10-26T00:00:00	2024-11-08T09:00:00	4	Temperatura máxima	21.7
125299	7	Sololá	704	Santa Lucía Utatlán 	7	Santa Rita 	10	Octubre	2023-10-26T00:00:00	2024-11-08T09:00:00	3	Temperatura mínima	20.4
125300	7	Sololá	704	Santa Lucía Utatlán 	7	Santa Rita 	10	Octubre	2023-10-26T00:00:00	2024-11-08T09:00:00	5	Humedad	82
125301	7	Sololá	704	Santa Lucía Utatlán 	7	Santa Rita 	10	Octubre	2023-10-26T00:00:00	2024-11-08T09:00:00	6	Velocidad del viento	4.8
125302	7	Sololá	704	Santa Lucía Utatlán 	7	Santa Rita 	10	Octubre	2023-10-26T00:00:00	2024-11-08T09:00:00	7	Dirección del viento	4.83
125303	7	Sololá	704	Santa Lucía Utatlán 	7	Santa Rita 	10	Octubre	2023-10-26T00:00:00	2024-11-08T09:00:00	1	Precipitación	0.4
125304	7	Sololá	704	Santa Lucía Utatlán 	7	Santa Rita 	10	Octubre	2023-10-26T00:00:00	2024-11-08T09:00:00	8	Radiación solar	195
125305	7	Sololá	704	Santa Lucía Utatlán 	7	Santa Rita 	10	Octubre	2023-10-26T00:00:00	2024-11-08T10:00:00	2	Temperatura media	23.9
125306	7	Sololá	704	Santa Lucía Utatlán 	7	Santa Rita 	10	Octubre	2023-10-26T00:00:00	2024-11-08T10:00:00	4	Temperatura máxima	25.6
125307	7	Sololá	704	Santa Lucía Utatlán 	7	Santa Rita 	10	Octubre	2023-10-26T00:00:00	2024-11-08T10:00:00	3	Temperatura mínima	23.7
125308	7	Sololá	704	Santa Lucía Utatlán 	7	Santa Rita 	10	Octubre	2023-10-26T00:00:00	2024-11-08T10:00:00	5	Humedad	78
125309	7	Sololá	704	Santa Lucía Utatlán 	7	Santa Rita 	10	Octubre	2023-10-26T00:00:00	2024-11-08T10:00:00	6	Velocidad del viento	8
125310	7	Sololá	704	Santa Lucía Utatlán 	7	Santa Rita 	10	Octubre	2023-10-26T00:00:00	2024-11-08T10:00:00	7	Dirección del viento	8.05
125311	7	Sololá	704	Santa Lucía Utatlán 	7	Santa Rita 	10	Octubre	2023-10-26T00:00:00	2024-11-08T10:00:00	1	Precipitación	0
125312	7	Sololá	704	Santa Lucía Utatlán 	7	Santa Rita 	10	Octubre	2023-10-26T00:00:00	2024-11-08T10:00:00	8	Radiación solar	209
125313	7	Sololá	704	Santa Lucía Utatlán 	7	Santa Rita 	10	Octubre	2023-10-26T00:00:00	2024-11-08T11:00:00	2	Temperatura media	23.2
125314	7	Sololá	704	Santa Lucía Utatlán 	7	Santa Rita 	10	Octubre	2023-10-26T00:00:00	2024-11-08T11:00:00	4	Temperatura máxima	23.9
125315	7	Sololá	704	Santa Lucía Utatlán 	7	Santa Rita 	10	Octubre	2023-10-26T00:00:00	2024-11-08T11:00:00	3	Temperatura mínima	23.1
125316	7	Sololá	704	Santa Lucía Utatlán 	7	Santa Rita 	10	Octubre	2023-10-26T00:00:00	2024-11-08T11:00:00	5	Humedad	79
125317	7	Sololá	704	Santa Lucía Utatlán 	7	Santa Rita 	10	Octubre	2023-10-26T00:00:00	2024-11-08T11:00:00	6	Velocidad del viento	8
125318	7	Sololá	704	Santa Lucía Utatlán 	7	Santa Rita 	10	Octubre	2023-10-26T00:00:00	2024-11-08T11:00:00	7	Dirección del viento	8.05
125319	7	Sololá	704	Santa Lucía Utatlán 	7	Santa Rita 	10	Octubre	2023-10-26T00:00:00	2024-11-08T11:00:00	1	Precipitación	0
125320	7	Sololá	704	Santa Lucía Utatlán 	7	Santa Rita 	10	Octubre	2023-10-26T00:00:00	2024-11-08T11:00:00	8	Radiación solar	271
125321	7	Sololá	704	Santa Lucía Utatlán 	7	Santa Rita 	10	Octubre	2023-10-26T00:00:00	2024-11-08T12:00:00	2	Temperatura media	23.4
125322	7	Sololá	704	Santa Lucía Utatlán 	7	Santa Rita 	10	Octubre	2023-10-26T00:00:00	2024-11-08T12:00:00	4	Temperatura máxima	23.4
125323	7	Sololá	704	Santa Lucía Utatlán 	7	Santa Rita 	10	Octubre	2023-10-26T00:00:00	2024-11-08T12:00:00	3	Temperatura mínima	23.1
125324	7	Sololá	704	Santa Lucía Utatlán 	7	Santa Rita 	10	Octubre	2023-10-26T00:00:00	2024-11-08T12:00:00	5	Humedad	79
125325	7	Sololá	704	Santa Lucía Utatlán 	7	Santa Rita 	10	Octubre	2023-10-26T00:00:00	2024-11-08T12:00:00	6	Velocidad del viento	6.4
125326	7	Sololá	704	Santa Lucía Utatlán 	7	Santa Rita 	10	Octubre	2023-10-26T00:00:00	2024-11-08T12:00:00	7	Dirección del viento	6.44
125327	7	Sololá	704	Santa Lucía Utatlán 	7	Santa Rita 	10	Octubre	2023-10-26T00:00:00	2024-11-08T12:00:00	1	Precipitación	0
125328	7	Sololá	704	Santa Lucía Utatlán 	7	Santa Rita 	10	Octubre	2023-10-26T00:00:00	2024-11-08T12:00:00	8	Radiación solar	363
125329	7	Sololá	704	Santa Lucía Utatlán 	7	Santa Rita 	10	Octubre	2023-10-26T00:00:00	2024-11-08T13:00:00	2	Temperatura media	22.4
125330	7	Sololá	704	Santa Lucía Utatlán 	7	Santa Rita 	10	Octubre	2023-10-26T00:00:00	2024-11-08T13:00:00	4	Temperatura máxima	23.3
125331	7	Sololá	704	Santa Lucía Utatlán 	7	Santa Rita 	10	Octubre	2023-10-26T00:00:00	2024-11-08T13:00:00	3	Temperatura mínima	22.4
125332	7	Sololá	704	Santa Lucía Utatlán 	7	Santa Rita 	10	Octubre	2023-10-26T00:00:00	2024-11-08T13:00:00	5	Humedad	82
125333	7	Sololá	704	Santa Lucía Utatlán 	7	Santa Rita 	10	Octubre	2023-10-26T00:00:00	2024-11-08T13:00:00	6	Velocidad del viento	3.2
125334	7	Sololá	704	Santa Lucía Utatlán 	7	Santa Rita 	10	Octubre	2023-10-26T00:00:00	2024-11-08T13:00:00	7	Dirección del viento	3.22
125335	7	Sololá	704	Santa Lucía Utatlán 	7	Santa Rita 	10	Octubre	2023-10-26T00:00:00	2024-11-08T13:00:00	1	Precipitación	0
125336	7	Sololá	704	Santa Lucía Utatlán 	7	Santa Rita 	10	Octubre	2023-10-26T00:00:00	2024-11-08T13:00:00	8	Radiación solar	220
125337	7	Sololá	704	Santa Lucía Utatlán 	7	Santa Rita 	10	Octubre	2023-10-26T00:00:00	2024-11-08T14:00:00	2	Temperatura media	19.4
125338	7	Sololá	704	Santa Lucía Utatlán 	7	Santa Rita 	10	Octubre	2023-10-26T00:00:00	2024-11-08T14:00:00	4	Temperatura máxima	20.1
125339	7	Sololá	704	Santa Lucía Utatlán 	7	Santa Rita 	10	Octubre	2023-10-26T00:00:00	2024-11-08T14:00:00	3	Temperatura mínima	19.4
125340	7	Sololá	704	Santa Lucía Utatlán 	7	Santa Rita 	10	Octubre	2023-10-26T00:00:00	2024-11-08T14:00:00	5	Humedad	90
125341	7	Sololá	704	Santa Lucía Utatlán 	7	Santa Rita 	10	Octubre	2023-10-26T00:00:00	2024-11-08T14:00:00	6	Velocidad del viento	3.2
125342	7	Sololá	704	Santa Lucía Utatlán 	7	Santa Rita 	10	Octubre	2023-10-26T00:00:00	2024-11-08T14:00:00	7	Dirección del viento	3.22
125343	7	Sololá	704	Santa Lucía Utatlán 	7	Santa Rita 	10	Octubre	2023-10-26T00:00:00	2024-11-08T14:00:00	1	Precipitación	0
125344	7	Sololá	704	Santa Lucía Utatlán 	7	Santa Rita 	10	Octubre	2023-10-26T00:00:00	2024-11-08T14:00:00	8	Radiación solar	229
125345	7	Sololá	704	Santa Lucía Utatlán 	7	Santa Rita 	10	Octubre	2023-10-26T00:00:00	2024-11-08T15:00:00	2	Temperatura media	19
125346	7	Sololá	704	Santa Lucía Utatlán 	7	Santa Rita 	10	Octubre	2023-10-26T00:00:00	2024-11-08T15:00:00	4	Temperatura máxima	19.4
125347	7	Sololá	704	Santa Lucía Utatlán 	7	Santa Rita 	10	Octubre	2023-10-26T00:00:00	2024-11-08T15:00:00	3	Temperatura mínima	18.9
125348	7	Sololá	704	Santa Lucía Utatlán 	7	Santa Rita 	10	Octubre	2023-10-26T00:00:00	2024-11-08T15:00:00	5	Humedad	93
125349	7	Sololá	704	Santa Lucía Utatlán 	7	Santa Rita 	10	Octubre	2023-10-26T00:00:00	2024-11-08T15:00:00	6	Velocidad del viento	1.6
125350	7	Sololá	704	Santa Lucía Utatlán 	7	Santa Rita 	10	Octubre	2023-10-26T00:00:00	2024-11-08T15:00:00	7	Dirección del viento	1.61
125351	7	Sololá	704	Santa Lucía Utatlán 	7	Santa Rita 	10	Octubre	2023-10-26T00:00:00	2024-11-08T15:00:00	1	Precipitación	0.2
125352	7	Sololá	704	Santa Lucía Utatlán 	7	Santa Rita 	10	Octubre	2023-10-26T00:00:00	2024-11-08T15:00:00	8	Radiación solar	826
125353	7	Sololá	704	Santa Lucía Utatlán 	7	Santa Rita 	10	Octubre	2023-10-26T00:00:00	2024-11-08T16:00:00	2	Temperatura media	19.1
125354	7	Sololá	704	Santa Lucía Utatlán 	7	Santa Rita 	10	Octubre	2023-10-26T00:00:00	2024-11-08T16:00:00	4	Temperatura máxima	19.2
125355	7	Sololá	704	Santa Lucía Utatlán 	7	Santa Rita 	10	Octubre	2023-10-26T00:00:00	2024-11-08T16:00:00	3	Temperatura mínima	18.9
125356	7	Sololá	704	Santa Lucía Utatlán 	7	Santa Rita 	10	Octubre	2023-10-26T00:00:00	2024-11-08T16:00:00	5	Humedad	92
125357	7	Sololá	704	Santa Lucía Utatlán 	7	Santa Rita 	10	Octubre	2023-10-26T00:00:00	2024-11-08T16:00:00	6	Velocidad del viento	1.6
125358	7	Sololá	704	Santa Lucía Utatlán 	7	Santa Rita 	10	Octubre	2023-10-26T00:00:00	2024-11-08T16:00:00	7	Dirección del viento	1.61
125359	7	Sololá	704	Santa Lucía Utatlán 	7	Santa Rita 	10	Octubre	2023-10-26T00:00:00	2024-11-08T16:00:00	1	Precipitación	0
125360	7	Sololá	704	Santa Lucía Utatlán 	7	Santa Rita 	10	Octubre	2023-10-26T00:00:00	2024-11-08T16:00:00	8	Radiación solar	733
125361	7	Sololá	704	Santa Lucía Utatlán 	7	Santa Rita 	10	Octubre	2023-10-26T00:00:00	2024-11-08T17:00:00	2	Temperatura media	18.9
125362	7	Sololá	704	Santa Lucía Utatlán 	7	Santa Rita 	10	Octubre	2023-10-26T00:00:00	2024-11-08T17:00:00	4	Temperatura máxima	19.2
125363	7	Sololá	704	Santa Lucía Utatlán 	7	Santa Rita 	10	Octubre	2023-10-26T00:00:00	2024-11-08T17:00:00	3	Temperatura mínima	18.9
125364	7	Sololá	704	Santa Lucía Utatlán 	7	Santa Rita 	10	Octubre	2023-10-26T00:00:00	2024-11-08T17:00:00	5	Humedad	93
125365	7	Sololá	704	Santa Lucía Utatlán 	7	Santa Rita 	10	Octubre	2023-10-26T00:00:00	2024-11-08T17:00:00	6	Velocidad del viento	1.6
125366	7	Sololá	704	Santa Lucía Utatlán 	7	Santa Rita 	10	Octubre	2023-10-26T00:00:00	2024-11-08T17:00:00	7	Dirección del viento	1.61
125367	7	Sololá	704	Santa Lucía Utatlán 	7	Santa Rita 	10	Octubre	2023-10-26T00:00:00	2024-11-08T17:00:00	1	Precipitación	0
125368	7	Sololá	704	Santa Lucía Utatlán 	7	Santa Rita 	10	Octubre	2023-10-26T00:00:00	2024-11-08T17:00:00	8	Radiación solar	486
125369	7	Sololá	704	Santa Lucía Utatlán 	7	Santa Rita 	10	Octubre	2023-10-26T00:00:00	2024-11-08T18:00:00	2	Temperatura media	18.6
125370	7	Sololá	704	Santa Lucía Utatlán 	7	Santa Rita 	10	Octubre	2023-10-26T00:00:00	2024-11-08T18:00:00	4	Temperatura máxima	18.9
125371	7	Sololá	704	Santa Lucía Utatlán 	7	Santa Rita 	10	Octubre	2023-10-26T00:00:00	2024-11-08T18:00:00	3	Temperatura mínima	18.6
125372	7	Sololá	704	Santa Lucía Utatlán 	7	Santa Rita 	10	Octubre	2023-10-26T00:00:00	2024-11-08T18:00:00	5	Humedad	96
125373	7	Sololá	704	Santa Lucía Utatlán 	7	Santa Rita 	10	Octubre	2023-10-26T00:00:00	2024-11-08T18:00:00	6	Velocidad del viento	1.6
125374	7	Sololá	704	Santa Lucía Utatlán 	7	Santa Rita 	10	Octubre	2023-10-26T00:00:00	2024-11-08T18:00:00	7	Dirección del viento	1.61
125375	7	Sololá	704	Santa Lucía Utatlán 	7	Santa Rita 	10	Octubre	2023-10-26T00:00:00	2024-11-08T18:00:00	1	Precipitación	1
125376	7	Sololá	704	Santa Lucía Utatlán 	7	Santa Rita 	10	Octubre	2023-10-26T00:00:00	2024-11-08T18:00:00	8	Radiación solar	914
125377	7	Sololá	704	Santa Lucía Utatlán 	7	Santa Rita 	10	Octubre	2023-10-26T00:00:00	2024-11-08T19:00:00	2	Temperatura media	18.4
125378	7	Sololá	704	Santa Lucía Utatlán 	7	Santa Rita 	10	Octubre	2023-10-26T00:00:00	2024-11-08T19:00:00	4	Temperatura máxima	18.6
125379	7	Sololá	704	Santa Lucía Utatlán 	7	Santa Rita 	10	Octubre	2023-10-26T00:00:00	2024-11-08T19:00:00	3	Temperatura mínima	18.4
125380	7	Sololá	704	Santa Lucía Utatlán 	7	Santa Rita 	10	Octubre	2023-10-26T00:00:00	2024-11-08T19:00:00	5	Humedad	95
125381	7	Sololá	704	Santa Lucía Utatlán 	7	Santa Rita 	10	Octubre	2023-10-26T00:00:00	2024-11-08T19:00:00	6	Velocidad del viento	1.6
125382	7	Sololá	704	Santa Lucía Utatlán 	7	Santa Rita 	10	Octubre	2023-10-26T00:00:00	2024-11-08T19:00:00	7	Dirección del viento	1.61
125383	7	Sololá	704	Santa Lucía Utatlán 	7	Santa Rita 	10	Octubre	2023-10-26T00:00:00	2024-11-08T19:00:00	1	Precipitación	0.4
125384	7	Sololá	704	Santa Lucía Utatlán 	7	Santa Rita 	10	Octubre	2023-10-26T00:00:00	2024-11-08T19:00:00	8	Radiación solar	0
125385	7	Sololá	704	Santa Lucía Utatlán 	7	Santa Rita 	10	Octubre	2023-10-26T00:00:00	2024-11-08T20:00:00	2	Temperatura media	18.1
125386	7	Sololá	704	Santa Lucía Utatlán 	7	Santa Rita 	10	Octubre	2023-10-26T00:00:00	2024-11-08T20:00:00	4	Temperatura máxima	18.4
125387	7	Sololá	704	Santa Lucía Utatlán 	7	Santa Rita 	10	Octubre	2023-10-26T00:00:00	2024-11-08T20:00:00	3	Temperatura mínima	18
125388	7	Sololá	704	Santa Lucía Utatlán 	7	Santa Rita 	10	Octubre	2023-10-26T00:00:00	2024-11-08T20:00:00	5	Humedad	96
125389	7	Sololá	704	Santa Lucía Utatlán 	7	Santa Rita 	10	Octubre	2023-10-26T00:00:00	2024-11-08T20:00:00	6	Velocidad del viento	1.6
125390	7	Sololá	704	Santa Lucía Utatlán 	7	Santa Rita 	10	Octubre	2023-10-26T00:00:00	2024-11-08T20:00:00	7	Dirección del viento	1.61
125391	7	Sololá	704	Santa Lucía Utatlán 	7	Santa Rita 	10	Octubre	2023-10-26T00:00:00	2024-11-08T20:00:00	1	Precipitación	0
125392	7	Sololá	704	Santa Lucía Utatlán 	7	Santa Rita 	10	Octubre	2023-10-26T00:00:00	2024-11-08T20:00:00	8	Radiación solar	0
125393	7	Sololá	704	Santa Lucía Utatlán 	7	Santa Rita 	10	Octubre	2023-10-26T00:00:00	2024-11-08T21:00:00	2	Temperatura media	19.1
125394	7	Sololá	704	Santa Lucía Utatlán 	7	Santa Rita 	10	Octubre	2023-10-26T00:00:00	2024-11-08T21:00:00	4	Temperatura máxima	19.1
125395	7	Sololá	704	Santa Lucía Utatlán 	7	Santa Rita 	10	Octubre	2023-10-26T00:00:00	2024-11-08T21:00:00	3	Temperatura mínima	17.7
125396	7	Sololá	704	Santa Lucía Utatlán 	7	Santa Rita 	10	Octubre	2023-10-26T00:00:00	2024-11-08T21:00:00	5	Humedad	87
125397	7	Sololá	704	Santa Lucía Utatlán 	7	Santa Rita 	10	Octubre	2023-10-26T00:00:00	2024-11-08T21:00:00	6	Velocidad del viento	4.8
125398	7	Sololá	704	Santa Lucía Utatlán 	7	Santa Rita 	10	Octubre	2023-10-26T00:00:00	2024-11-08T21:00:00	7	Dirección del viento	4.83
125399	7	Sololá	704	Santa Lucía Utatlán 	7	Santa Rita 	10	Octubre	2023-10-26T00:00:00	2024-11-08T21:00:00	1	Precipitación	0
125400	7	Sololá	704	Santa Lucía Utatlán 	7	Santa Rita 	10	Octubre	2023-10-26T00:00:00	2024-11-08T21:00:00	8	Radiación solar	0
125401	7	Sololá	704	Santa Lucía Utatlán 	7	Santa Rita 	10	Octubre	2023-10-26T00:00:00	2024-11-08T22:00:00	2	Temperatura media	19.1
125402	7	Sololá	704	Santa Lucía Utatlán 	7	Santa Rita 	10	Octubre	2023-10-26T00:00:00	2024-11-08T22:00:00	4	Temperatura máxima	19.1
125403	7	Sololá	704	Santa Lucía Utatlán 	7	Santa Rita 	10	Octubre	2023-10-26T00:00:00	2024-11-08T22:00:00	3	Temperatura mínima	18.2
125404	7	Sololá	704	Santa Lucía Utatlán 	7	Santa Rita 	10	Octubre	2023-10-26T00:00:00	2024-11-08T22:00:00	5	Humedad	86
125405	7	Sololá	704	Santa Lucía Utatlán 	7	Santa Rita 	10	Octubre	2023-10-26T00:00:00	2024-11-08T22:00:00	6	Velocidad del viento	4.8
125406	7	Sololá	704	Santa Lucía Utatlán 	7	Santa Rita 	10	Octubre	2023-10-26T00:00:00	2024-11-08T22:00:00	7	Dirección del viento	4.83
125407	7	Sololá	704	Santa Lucía Utatlán 	7	Santa Rita 	10	Octubre	2023-10-26T00:00:00	2024-11-08T22:00:00	1	Precipitación	0
125408	7	Sololá	704	Santa Lucía Utatlán 	7	Santa Rita 	10	Octubre	2023-10-26T00:00:00	2024-11-08T22:00:00	8	Radiación solar	0
125409	7	Sololá	704	Santa Lucía Utatlán 	7	Santa Rita 	10	Octubre	2023-10-26T00:00:00	2024-11-08T23:00:00	2	Temperatura media	19.7
125410	7	Sololá	704	Santa Lucía Utatlán 	7	Santa Rita 	10	Octubre	2023-10-26T00:00:00	2024-11-08T23:00:00	4	Temperatura máxima	20.2
125411	7	Sololá	704	Santa Lucía Utatlán 	7	Santa Rita 	10	Octubre	2023-10-26T00:00:00	2024-11-08T23:00:00	3	Temperatura mínima	18.4
125412	7	Sololá	704	Santa Lucía Utatlán 	7	Santa Rita 	10	Octubre	2023-10-26T00:00:00	2024-11-08T23:00:00	5	Humedad	81
125413	7	Sololá	704	Santa Lucía Utatlán 	7	Santa Rita 	10	Octubre	2023-10-26T00:00:00	2024-11-08T23:00:00	6	Velocidad del viento	8
125414	7	Sololá	704	Santa Lucía Utatlán 	7	Santa Rita 	10	Octubre	2023-10-26T00:00:00	2024-11-08T23:00:00	7	Dirección del viento	8.05
125415	7	Sololá	704	Santa Lucía Utatlán 	7	Santa Rita 	10	Octubre	2023-10-26T00:00:00	2024-11-08T23:00:00	1	Precipitación	0
125416	7	Sololá	704	Santa Lucía Utatlán 	7	Santa Rita 	10	Octubre	2023-10-26T00:00:00	2024-11-08T23:00:00	8	Radiación solar	0
125417	7	Sololá	704	Santa Lucía Utatlán 	7	Santa Rita 	10	Octubre	2023-10-27T00:00:00	2024-11-08T00:00:00	2	Temperatura media	19.2
125418	7	Sololá	704	Santa Lucía Utatlán 	7	Santa Rita 	10	Octubre	2023-10-27T00:00:00	2024-11-08T00:00:00	4	Temperatura máxima	19.9
125419	7	Sololá	704	Santa Lucía Utatlán 	7	Santa Rita 	10	Octubre	2023-10-27T00:00:00	2024-11-08T00:00:00	3	Temperatura mínima	18.8
125420	7	Sololá	704	Santa Lucía Utatlán 	7	Santa Rita 	10	Octubre	2023-10-27T00:00:00	2024-11-08T00:00:00	5	Humedad	70
125421	7	Sololá	704	Santa Lucía Utatlán 	7	Santa Rita 	10	Octubre	2023-10-27T00:00:00	2024-11-08T00:00:00	6	Velocidad del viento	8
125422	7	Sololá	704	Santa Lucía Utatlán 	7	Santa Rita 	10	Octubre	2023-10-27T00:00:00	2024-11-08T00:00:00	7	Dirección del viento	8.05
125423	7	Sololá	704	Santa Lucía Utatlán 	7	Santa Rita 	10	Octubre	2023-10-27T00:00:00	2024-11-08T00:00:00	1	Precipitación	0
125424	7	Sololá	704	Santa Lucía Utatlán 	7	Santa Rita 	10	Octubre	2023-10-27T00:00:00	2024-11-08T00:00:00	8	Radiación solar	0
125425	7	Sololá	704	Santa Lucía Utatlán 	7	Santa Rita 	10	Octubre	2023-10-27T00:00:00	2024-11-08T01:00:00	2	Temperatura media	19.7
125426	7	Sololá	704	Santa Lucía Utatlán 	7	Santa Rita 	10	Octubre	2023-10-27T00:00:00	2024-11-08T01:00:00	4	Temperatura máxima	20.2
125427	7	Sololá	704	Santa Lucía Utatlán 	7	Santa Rita 	10	Octubre	2023-10-27T00:00:00	2024-11-08T01:00:00	3	Temperatura mínima	19.1
125428	7	Sololá	704	Santa Lucía Utatlán 	7	Santa Rita 	10	Octubre	2023-10-27T00:00:00	2024-11-08T01:00:00	5	Humedad	74
125429	7	Sololá	704	Santa Lucía Utatlán 	7	Santa Rita 	10	Octubre	2023-10-27T00:00:00	2024-11-08T01:00:00	6	Velocidad del viento	6.4
125430	7	Sololá	704	Santa Lucía Utatlán 	7	Santa Rita 	10	Octubre	2023-10-27T00:00:00	2024-11-08T01:00:00	7	Dirección del viento	6.44
125431	7	Sololá	704	Santa Lucía Utatlán 	7	Santa Rita 	10	Octubre	2023-10-27T00:00:00	2024-11-08T01:00:00	1	Precipitación	0
125432	7	Sololá	704	Santa Lucía Utatlán 	7	Santa Rita 	10	Octubre	2023-10-27T00:00:00	2024-11-08T01:00:00	8	Radiación solar	0
125433	7	Sololá	704	Santa Lucía Utatlán 	7	Santa Rita 	10	Octubre	2023-10-27T00:00:00	2024-11-08T02:00:00	2	Temperatura media	22.3
125434	7	Sololá	704	Santa Lucía Utatlán 	7	Santa Rita 	10	Octubre	2023-10-27T00:00:00	2024-11-08T02:00:00	4	Temperatura máxima	22.3
125435	7	Sololá	704	Santa Lucía Utatlán 	7	Santa Rita 	10	Octubre	2023-10-27T00:00:00	2024-11-08T02:00:00	3	Temperatura mínima	19.2
125436	7	Sololá	704	Santa Lucía Utatlán 	7	Santa Rita 	10	Octubre	2023-10-27T00:00:00	2024-11-08T02:00:00	5	Humedad	68
125437	7	Sololá	704	Santa Lucía Utatlán 	7	Santa Rita 	10	Octubre	2023-10-27T00:00:00	2024-11-08T02:00:00	6	Velocidad del viento	4.8
125438	7	Sololá	704	Santa Lucía Utatlán 	7	Santa Rita 	10	Octubre	2023-10-27T00:00:00	2024-11-08T02:00:00	7	Dirección del viento	4.83
125439	7	Sololá	704	Santa Lucía Utatlán 	7	Santa Rita 	10	Octubre	2023-10-27T00:00:00	2024-11-08T02:00:00	1	Precipitación	0
125440	7	Sololá	704	Santa Lucía Utatlán 	7	Santa Rita 	10	Octubre	2023-10-27T00:00:00	2024-11-08T02:00:00	8	Radiación solar	0
125441	7	Sololá	704	Santa Lucía Utatlán 	7	Santa Rita 	10	Octubre	2023-10-27T00:00:00	2024-11-08T03:00:00	2	Temperatura media	24.2
125442	7	Sololá	704	Santa Lucía Utatlán 	7	Santa Rita 	10	Octubre	2023-10-27T00:00:00	2024-11-08T03:00:00	4	Temperatura máxima	24.2
125443	7	Sololá	704	Santa Lucía Utatlán 	7	Santa Rita 	10	Octubre	2023-10-27T00:00:00	2024-11-08T03:00:00	3	Temperatura mínima	21.9
125444	7	Sololá	704	Santa Lucía Utatlán 	7	Santa Rita 	10	Octubre	2023-10-27T00:00:00	2024-11-08T03:00:00	5	Humedad	65
125445	7	Sololá	704	Santa Lucía Utatlán 	7	Santa Rita 	10	Octubre	2023-10-27T00:00:00	2024-11-08T03:00:00	6	Velocidad del viento	6.4
125446	7	Sololá	704	Santa Lucía Utatlán 	7	Santa Rita 	10	Octubre	2023-10-27T00:00:00	2024-11-08T03:00:00	7	Dirección del viento	6.44
125447	7	Sololá	704	Santa Lucía Utatlán 	7	Santa Rita 	10	Octubre	2023-10-27T00:00:00	2024-11-08T03:00:00	1	Precipitación	0
125448	7	Sololá	704	Santa Lucía Utatlán 	7	Santa Rita 	10	Octubre	2023-10-27T00:00:00	2024-11-08T03:00:00	8	Radiación solar	0
125449	7	Sololá	704	Santa Lucía Utatlán 	7	Santa Rita 	10	Octubre	2023-10-27T00:00:00	2024-11-08T04:00:00	2	Temperatura media	22.6
125450	7	Sololá	704	Santa Lucía Utatlán 	7	Santa Rita 	10	Octubre	2023-10-27T00:00:00	2024-11-08T04:00:00	4	Temperatura máxima	24.3
125451	7	Sololá	704	Santa Lucía Utatlán 	7	Santa Rita 	10	Octubre	2023-10-27T00:00:00	2024-11-08T04:00:00	3	Temperatura mínima	22.6
125452	7	Sololá	704	Santa Lucía Utatlán 	7	Santa Rita 	10	Octubre	2023-10-27T00:00:00	2024-11-08T04:00:00	5	Humedad	70
125453	7	Sololá	704	Santa Lucía Utatlán 	7	Santa Rita 	10	Octubre	2023-10-27T00:00:00	2024-11-08T04:00:00	6	Velocidad del viento	9.7
125454	7	Sololá	704	Santa Lucía Utatlán 	7	Santa Rita 	10	Octubre	2023-10-27T00:00:00	2024-11-08T04:00:00	7	Dirección del viento	9.66
125455	7	Sololá	704	Santa Lucía Utatlán 	7	Santa Rita 	10	Octubre	2023-10-27T00:00:00	2024-11-08T04:00:00	1	Precipitación	0
125456	7	Sololá	704	Santa Lucía Utatlán 	7	Santa Rita 	10	Octubre	2023-10-27T00:00:00	2024-11-08T04:00:00	8	Radiación solar	0
125457	7	Sololá	704	Santa Lucía Utatlán 	7	Santa Rita 	10	Octubre	2023-10-27T00:00:00	2024-11-08T05:00:00	2	Temperatura media	23.5
125458	7	Sololá	704	Santa Lucía Utatlán 	7	Santa Rita 	10	Octubre	2023-10-27T00:00:00	2024-11-08T05:00:00	4	Temperatura máxima	23.6
125459	7	Sololá	704	Santa Lucía Utatlán 	7	Santa Rita 	10	Octubre	2023-10-27T00:00:00	2024-11-08T05:00:00	3	Temperatura mínima	22.6
125460	7	Sololá	704	Santa Lucía Utatlán 	7	Santa Rita 	10	Octubre	2023-10-27T00:00:00	2024-11-08T05:00:00	5	Humedad	69
125461	7	Sololá	704	Santa Lucía Utatlán 	7	Santa Rita 	10	Octubre	2023-10-27T00:00:00	2024-11-08T05:00:00	6	Velocidad del viento	11.3
125462	7	Sololá	704	Santa Lucía Utatlán 	7	Santa Rita 	10	Octubre	2023-10-27T00:00:00	2024-11-08T05:00:00	7	Dirección del viento	11.27
125463	7	Sololá	704	Santa Lucía Utatlán 	7	Santa Rita 	10	Octubre	2023-10-27T00:00:00	2024-11-08T05:00:00	1	Precipitación	0
125464	7	Sololá	704	Santa Lucía Utatlán 	7	Santa Rita 	10	Octubre	2023-10-27T00:00:00	2024-11-08T05:00:00	8	Radiación solar	0
125465	7	Sololá	704	Santa Lucía Utatlán 	7	Santa Rita 	10	Octubre	2023-10-27T00:00:00	2024-11-08T06:00:00	2	Temperatura media	24.1
125466	7	Sololá	704	Santa Lucía Utatlán 	7	Santa Rita 	10	Octubre	2023-10-27T00:00:00	2024-11-08T06:00:00	4	Temperatura máxima	24.3
125467	7	Sololá	704	Santa Lucía Utatlán 	7	Santa Rita 	10	Octubre	2023-10-27T00:00:00	2024-11-08T06:00:00	3	Temperatura mínima	23.4
125468	7	Sololá	704	Santa Lucía Utatlán 	7	Santa Rita 	10	Octubre	2023-10-27T00:00:00	2024-11-08T06:00:00	5	Humedad	68
125469	7	Sololá	704	Santa Lucía Utatlán 	7	Santa Rita 	10	Octubre	2023-10-27T00:00:00	2024-11-08T06:00:00	6	Velocidad del viento	9.7
125470	7	Sololá	704	Santa Lucía Utatlán 	7	Santa Rita 	10	Octubre	2023-10-27T00:00:00	2024-11-08T06:00:00	7	Dirección del viento	9.66
125471	7	Sololá	704	Santa Lucía Utatlán 	7	Santa Rita 	10	Octubre	2023-10-27T00:00:00	2024-11-08T06:00:00	1	Precipitación	0
125472	7	Sololá	704	Santa Lucía Utatlán 	7	Santa Rita 	10	Octubre	2023-10-27T00:00:00	2024-11-08T06:00:00	8	Radiación solar	0
125473	7	Sololá	704	Santa Lucía Utatlán 	7	Santa Rita 	10	Octubre	2023-10-27T00:00:00	2024-11-08T07:00:00	2	Temperatura media	25.5
125474	7	Sololá	704	Santa Lucía Utatlán 	7	Santa Rita 	10	Octubre	2023-10-27T00:00:00	2024-11-08T07:00:00	4	Temperatura máxima	25.8
125475	7	Sololá	704	Santa Lucía Utatlán 	7	Santa Rita 	10	Octubre	2023-10-27T00:00:00	2024-11-08T07:00:00	3	Temperatura mínima	24.1
125476	7	Sololá	704	Santa Lucía Utatlán 	7	Santa Rita 	10	Octubre	2023-10-27T00:00:00	2024-11-08T07:00:00	5	Humedad	62
125477	7	Sololá	704	Santa Lucía Utatlán 	7	Santa Rita 	10	Octubre	2023-10-27T00:00:00	2024-11-08T07:00:00	6	Velocidad del viento	8
125478	7	Sololá	704	Santa Lucía Utatlán 	7	Santa Rita 	10	Octubre	2023-10-27T00:00:00	2024-11-08T07:00:00	7	Dirección del viento	8.05
125479	7	Sololá	704	Santa Lucía Utatlán 	7	Santa Rita 	10	Octubre	2023-10-27T00:00:00	2024-11-08T07:00:00	1	Precipitación	0
125480	7	Sololá	704	Santa Lucía Utatlán 	7	Santa Rita 	10	Octubre	2023-10-27T00:00:00	2024-11-08T07:00:00	8	Radiación solar	25
125481	7	Sololá	704	Santa Lucía Utatlán 	7	Santa Rita 	10	Octubre	2023-10-27T00:00:00	2024-11-08T08:00:00	2	Temperatura media	23.8
125482	7	Sololá	704	Santa Lucía Utatlán 	7	Santa Rita 	10	Octubre	2023-10-27T00:00:00	2024-11-08T08:00:00	4	Temperatura máxima	25.5
125483	7	Sololá	704	Santa Lucía Utatlán 	7	Santa Rita 	10	Octubre	2023-10-27T00:00:00	2024-11-08T08:00:00	3	Temperatura mínima	23.7
125484	7	Sololá	704	Santa Lucía Utatlán 	7	Santa Rita 	10	Octubre	2023-10-27T00:00:00	2024-11-08T08:00:00	5	Humedad	69
125485	7	Sololá	704	Santa Lucía Utatlán 	7	Santa Rita 	10	Octubre	2023-10-27T00:00:00	2024-11-08T08:00:00	6	Velocidad del viento	12.9
125486	7	Sololá	704	Santa Lucía Utatlán 	7	Santa Rita 	10	Octubre	2023-10-27T00:00:00	2024-11-08T08:00:00	7	Dirección del viento	12.87
125487	7	Sololá	704	Santa Lucía Utatlán 	7	Santa Rita 	10	Octubre	2023-10-27T00:00:00	2024-11-08T08:00:00	1	Precipitación	0
125488	7	Sololá	704	Santa Lucía Utatlán 	7	Santa Rita 	10	Octubre	2023-10-27T00:00:00	2024-11-08T08:00:00	8	Radiación solar	245
125489	7	Sololá	704	Santa Lucía Utatlán 	7	Santa Rita 	10	Octubre	2023-10-27T00:00:00	2024-11-08T09:00:00	2	Temperatura media	23.8
125490	7	Sololá	704	Santa Lucía Utatlán 	7	Santa Rita 	10	Octubre	2023-10-27T00:00:00	2024-11-08T09:00:00	4	Temperatura máxima	24.6
125491	7	Sololá	704	Santa Lucía Utatlán 	7	Santa Rita 	10	Octubre	2023-10-27T00:00:00	2024-11-08T09:00:00	3	Temperatura mínima	23.7
125492	7	Sololá	704	Santa Lucía Utatlán 	7	Santa Rita 	10	Octubre	2023-10-27T00:00:00	2024-11-08T09:00:00	5	Humedad	70
125493	7	Sololá	704	Santa Lucía Utatlán 	7	Santa Rita 	10	Octubre	2023-10-27T00:00:00	2024-11-08T09:00:00	6	Velocidad del viento	9.7
125494	7	Sololá	704	Santa Lucía Utatlán 	7	Santa Rita 	10	Octubre	2023-10-27T00:00:00	2024-11-08T09:00:00	7	Dirección del viento	9.66
125495	7	Sololá	704	Santa Lucía Utatlán 	7	Santa Rita 	10	Octubre	2023-10-27T00:00:00	2024-11-08T09:00:00	1	Precipitación	0
125496	7	Sololá	704	Santa Lucía Utatlán 	7	Santa Rita 	10	Octubre	2023-10-27T00:00:00	2024-11-08T09:00:00	8	Radiación solar	487
125497	7	Sololá	704	Santa Lucía Utatlán 	7	Santa Rita 	10	Octubre	2023-10-27T00:00:00	2024-11-08T10:00:00	2	Temperatura media	23.1
125498	7	Sololá	704	Santa Lucía Utatlán 	7	Santa Rita 	10	Octubre	2023-10-27T00:00:00	2024-11-08T10:00:00	4	Temperatura máxima	23.6
125499	7	Sololá	704	Santa Lucía Utatlán 	7	Santa Rita 	10	Octubre	2023-10-27T00:00:00	2024-11-08T10:00:00	3	Temperatura mínima	23
125500	7	Sololá	704	Santa Lucía Utatlán 	7	Santa Rita 	10	Octubre	2023-10-27T00:00:00	2024-11-08T10:00:00	5	Humedad	81
125501	7	Sololá	704	Santa Lucía Utatlán 	7	Santa Rita 	10	Octubre	2023-10-27T00:00:00	2024-11-08T10:00:00	6	Velocidad del viento	6.4
125502	7	Sololá	704	Santa Lucía Utatlán 	7	Santa Rita 	10	Octubre	2023-10-27T00:00:00	2024-11-08T10:00:00	7	Dirección del viento	6.44
125503	7	Sololá	704	Santa Lucía Utatlán 	7	Santa Rita 	10	Octubre	2023-10-27T00:00:00	2024-11-08T10:00:00	1	Precipitación	0
125504	7	Sololá	704	Santa Lucía Utatlán 	7	Santa Rita 	10	Octubre	2023-10-27T00:00:00	2024-11-08T10:00:00	8	Radiación solar	653
125505	7	Sololá	704	Santa Lucía Utatlán 	7	Santa Rita 	10	Octubre	2023-10-27T00:00:00	2024-11-08T11:00:00	2	Temperatura media	22.9
125506	7	Sololá	704	Santa Lucía Utatlán 	7	Santa Rita 	10	Octubre	2023-10-27T00:00:00	2024-11-08T11:00:00	4	Temperatura máxima	23.6
125507	7	Sololá	704	Santa Lucía Utatlán 	7	Santa Rita 	10	Octubre	2023-10-27T00:00:00	2024-11-08T11:00:00	3	Temperatura mínima	22.9
125508	7	Sololá	704	Santa Lucía Utatlán 	7	Santa Rita 	10	Octubre	2023-10-27T00:00:00	2024-11-08T11:00:00	5	Humedad	80
125509	7	Sololá	704	Santa Lucía Utatlán 	7	Santa Rita 	10	Octubre	2023-10-27T00:00:00	2024-11-08T11:00:00	6	Velocidad del viento	6.4
125510	7	Sololá	704	Santa Lucía Utatlán 	7	Santa Rita 	10	Octubre	2023-10-27T00:00:00	2024-11-08T11:00:00	7	Dirección del viento	6.44
125511	7	Sololá	704	Santa Lucía Utatlán 	7	Santa Rita 	10	Octubre	2023-10-27T00:00:00	2024-11-08T11:00:00	1	Precipitación	0
125512	7	Sololá	704	Santa Lucía Utatlán 	7	Santa Rita 	10	Octubre	2023-10-27T00:00:00	2024-11-08T11:00:00	8	Radiación solar	883
125513	7	Sololá	704	Santa Lucía Utatlán 	7	Santa Rita 	10	Octubre	2023-10-27T00:00:00	2024-11-08T12:00:00	2	Temperatura media	22.4
125514	7	Sololá	704	Santa Lucía Utatlán 	7	Santa Rita 	10	Octubre	2023-10-27T00:00:00	2024-11-08T12:00:00	4	Temperatura máxima	22.9
125515	7	Sololá	704	Santa Lucía Utatlán 	7	Santa Rita 	10	Octubre	2023-10-27T00:00:00	2024-11-08T12:00:00	3	Temperatura mínima	22.1
125516	7	Sololá	704	Santa Lucía Utatlán 	7	Santa Rita 	10	Octubre	2023-10-27T00:00:00	2024-11-08T12:00:00	5	Humedad	83
125517	7	Sololá	704	Santa Lucía Utatlán 	7	Santa Rita 	10	Octubre	2023-10-27T00:00:00	2024-11-08T12:00:00	6	Velocidad del viento	4.8
125518	7	Sololá	704	Santa Lucía Utatlán 	7	Santa Rita 	10	Octubre	2023-10-27T00:00:00	2024-11-08T12:00:00	7	Dirección del viento	4.83
125519	7	Sololá	704	Santa Lucía Utatlán 	7	Santa Rita 	10	Octubre	2023-10-27T00:00:00	2024-11-08T12:00:00	1	Precipitación	0
125520	7	Sololá	704	Santa Lucía Utatlán 	7	Santa Rita 	10	Octubre	2023-10-27T00:00:00	2024-11-08T12:00:00	8	Radiación solar	967
125521	7	Sololá	704	Santa Lucía Utatlán 	7	Santa Rita 	10	Octubre	2023-10-27T00:00:00	2024-11-08T13:00:00	2	Temperatura media	18.9
125522	7	Sololá	704	Santa Lucía Utatlán 	7	Santa Rita 	10	Octubre	2023-10-27T00:00:00	2024-11-08T13:00:00	4	Temperatura máxima	20.8
125523	7	Sololá	704	Santa Lucía Utatlán 	7	Santa Rita 	10	Octubre	2023-10-27T00:00:00	2024-11-08T13:00:00	3	Temperatura mínima	18.8
125524	7	Sololá	704	Santa Lucía Utatlán 	7	Santa Rita 	10	Octubre	2023-10-27T00:00:00	2024-11-08T13:00:00	5	Humedad	90
125525	7	Sololá	704	Santa Lucía Utatlán 	7	Santa Rita 	10	Octubre	2023-10-27T00:00:00	2024-11-08T13:00:00	6	Velocidad del viento	3.2
125526	7	Sololá	704	Santa Lucía Utatlán 	7	Santa Rita 	10	Octubre	2023-10-27T00:00:00	2024-11-08T13:00:00	7	Dirección del viento	3.22
125527	7	Sololá	704	Santa Lucía Utatlán 	7	Santa Rita 	10	Octubre	2023-10-27T00:00:00	2024-11-08T13:00:00	1	Precipitación	0
125528	7	Sololá	704	Santa Lucía Utatlán 	7	Santa Rita 	10	Octubre	2023-10-27T00:00:00	2024-11-08T13:00:00	8	Radiación solar	940
125529	7	Sololá	704	Santa Lucía Utatlán 	7	Santa Rita 	10	Octubre	2023-10-27T00:00:00	2024-11-08T14:00:00	2	Temperatura media	18.6
125530	7	Sololá	704	Santa Lucía Utatlán 	7	Santa Rita 	10	Octubre	2023-10-27T00:00:00	2024-11-08T14:00:00	4	Temperatura máxima	19
125531	7	Sololá	704	Santa Lucía Utatlán 	7	Santa Rita 	10	Octubre	2023-10-27T00:00:00	2024-11-08T14:00:00	3	Temperatura mínima	18.6
125532	7	Sololá	704	Santa Lucía Utatlán 	7	Santa Rita 	10	Octubre	2023-10-27T00:00:00	2024-11-08T14:00:00	5	Humedad	94
125533	7	Sololá	704	Santa Lucía Utatlán 	7	Santa Rita 	10	Octubre	2023-10-27T00:00:00	2024-11-08T14:00:00	6	Velocidad del viento	1.6
125534	7	Sololá	704	Santa Lucía Utatlán 	7	Santa Rita 	10	Octubre	2023-10-27T00:00:00	2024-11-08T14:00:00	7	Dirección del viento	1.61
125535	7	Sololá	704	Santa Lucía Utatlán 	7	Santa Rita 	10	Octubre	2023-10-27T00:00:00	2024-11-08T14:00:00	1	Precipitación	0
125536	7	Sololá	704	Santa Lucía Utatlán 	7	Santa Rita 	10	Octubre	2023-10-27T00:00:00	2024-11-08T14:00:00	8	Radiación solar	877
125537	7	Sololá	704	Santa Lucía Utatlán 	7	Santa Rita 	10	Octubre	2023-10-27T00:00:00	2024-11-08T15:00:00	2	Temperatura media	18.6
125538	7	Sololá	704	Santa Lucía Utatlán 	7	Santa Rita 	10	Octubre	2023-10-27T00:00:00	2024-11-08T15:00:00	4	Temperatura máxima	18.7
125539	7	Sololá	704	Santa Lucía Utatlán 	7	Santa Rita 	10	Octubre	2023-10-27T00:00:00	2024-11-08T15:00:00	3	Temperatura mínima	18.4
125540	7	Sololá	704	Santa Lucía Utatlán 	7	Santa Rita 	10	Octubre	2023-10-27T00:00:00	2024-11-08T15:00:00	5	Humedad	93
125541	7	Sololá	704	Santa Lucía Utatlán 	7	Santa Rita 	10	Octubre	2023-10-27T00:00:00	2024-11-08T15:00:00	6	Velocidad del viento	1.6
125542	7	Sololá	704	Santa Lucía Utatlán 	7	Santa Rita 	10	Octubre	2023-10-27T00:00:00	2024-11-08T15:00:00	7	Dirección del viento	1.61
125543	7	Sololá	704	Santa Lucía Utatlán 	7	Santa Rita 	10	Octubre	2023-10-27T00:00:00	2024-11-08T15:00:00	1	Precipitación	0
125544	7	Sololá	704	Santa Lucía Utatlán 	7	Santa Rita 	10	Octubre	2023-10-27T00:00:00	2024-11-08T15:00:00	8	Radiación solar	573
125545	7	Sololá	704	Santa Lucía Utatlán 	7	Santa Rita 	10	Octubre	2023-10-27T00:00:00	2024-11-08T16:00:00	2	Temperatura media	19
125546	7	Sololá	704	Santa Lucía Utatlán 	7	Santa Rita 	10	Octubre	2023-10-27T00:00:00	2024-11-08T16:00:00	4	Temperatura máxima	19
125547	7	Sololá	704	Santa Lucía Utatlán 	7	Santa Rita 	10	Octubre	2023-10-27T00:00:00	2024-11-08T16:00:00	3	Temperatura mínima	18.6
125548	7	Sololá	704	Santa Lucía Utatlán 	7	Santa Rita 	10	Octubre	2023-10-27T00:00:00	2024-11-08T16:00:00	5	Humedad	90
125549	7	Sololá	704	Santa Lucía Utatlán 	7	Santa Rita 	10	Octubre	2023-10-27T00:00:00	2024-11-08T16:00:00	6	Velocidad del viento	3.2
125550	7	Sololá	704	Santa Lucía Utatlán 	7	Santa Rita 	10	Octubre	2023-10-27T00:00:00	2024-11-08T16:00:00	7	Dirección del viento	3.22
125551	7	Sololá	704	Santa Lucía Utatlán 	7	Santa Rita 	10	Octubre	2023-10-27T00:00:00	2024-11-08T16:00:00	1	Precipitación	0
125552	7	Sololá	704	Santa Lucía Utatlán 	7	Santa Rita 	10	Octubre	2023-10-27T00:00:00	2024-11-08T16:00:00	8	Radiación solar	813
125553	7	Sololá	704	Santa Lucía Utatlán 	7	Santa Rita 	10	Octubre	2023-10-27T00:00:00	2024-11-08T17:00:00	2	Temperatura media	18.8
125554	7	Sololá	704	Santa Lucía Utatlán 	7	Santa Rita 	10	Octubre	2023-10-27T00:00:00	2024-11-08T17:00:00	4	Temperatura máxima	19
125555	7	Sololá	704	Santa Lucía Utatlán 	7	Santa Rita 	10	Octubre	2023-10-27T00:00:00	2024-11-08T17:00:00	3	Temperatura mínima	18.6
125556	7	Sololá	704	Santa Lucía Utatlán 	7	Santa Rita 	10	Octubre	2023-10-27T00:00:00	2024-11-08T17:00:00	5	Humedad	90
125557	7	Sololá	704	Santa Lucía Utatlán 	7	Santa Rita 	10	Octubre	2023-10-27T00:00:00	2024-11-08T17:00:00	6	Velocidad del viento	3.2
125558	7	Sololá	704	Santa Lucía Utatlán 	7	Santa Rita 	10	Octubre	2023-10-27T00:00:00	2024-11-08T17:00:00	7	Dirección del viento	3.22
125559	7	Sololá	704	Santa Lucía Utatlán 	7	Santa Rita 	10	Octubre	2023-10-27T00:00:00	2024-11-08T17:00:00	1	Precipitación	0
125560	7	Sololá	704	Santa Lucía Utatlán 	7	Santa Rita 	10	Octubre	2023-10-27T00:00:00	2024-11-08T17:00:00	8	Radiación solar	974
125561	7	Sololá	704	Santa Lucía Utatlán 	7	Santa Rita 	10	Octubre	2023-10-27T00:00:00	2024-11-08T18:00:00	2	Temperatura media	17.5
125562	7	Sololá	704	Santa Lucía Utatlán 	7	Santa Rita 	10	Octubre	2023-10-27T00:00:00	2024-11-08T18:00:00	4	Temperatura máxima	18.8
125563	7	Sololá	704	Santa Lucía Utatlán 	7	Santa Rita 	10	Octubre	2023-10-27T00:00:00	2024-11-08T18:00:00	3	Temperatura mínima	17.4
125564	7	Sololá	704	Santa Lucía Utatlán 	7	Santa Rita 	10	Octubre	2023-10-27T00:00:00	2024-11-08T18:00:00	5	Humedad	94
125565	7	Sololá	704	Santa Lucía Utatlán 	7	Santa Rita 	10	Octubre	2023-10-27T00:00:00	2024-11-08T18:00:00	6	Velocidad del viento	1.6
125566	7	Sololá	704	Santa Lucía Utatlán 	7	Santa Rita 	10	Octubre	2023-10-27T00:00:00	2024-11-08T18:00:00	7	Dirección del viento	1.61
125567	7	Sololá	704	Santa Lucía Utatlán 	7	Santa Rita 	10	Octubre	2023-10-27T00:00:00	2024-11-08T18:00:00	1	Precipitación	0
125568	7	Sololá	704	Santa Lucía Utatlán 	7	Santa Rita 	10	Octubre	2023-10-27T00:00:00	2024-11-08T18:00:00	8	Radiación solar	1115
125569	7	Sololá	704	Santa Lucía Utatlán 	7	Santa Rita 	10	Octubre	2023-10-27T00:00:00	2024-11-08T19:00:00	2	Temperatura media	17.2
125570	7	Sololá	704	Santa Lucía Utatlán 	7	Santa Rita 	10	Octubre	2023-10-27T00:00:00	2024-11-08T19:00:00	4	Temperatura máxima	17.5
125571	7	Sololá	704	Santa Lucía Utatlán 	7	Santa Rita 	10	Octubre	2023-10-27T00:00:00	2024-11-08T19:00:00	3	Temperatura mínima	17.2
125572	7	Sololá	704	Santa Lucía Utatlán 	7	Santa Rita 	10	Octubre	2023-10-27T00:00:00	2024-11-08T19:00:00	5	Humedad	95
125573	7	Sololá	704	Santa Lucía Utatlán 	7	Santa Rita 	10	Octubre	2023-10-27T00:00:00	2024-11-08T19:00:00	6	Velocidad del viento	1.6
125574	7	Sololá	704	Santa Lucía Utatlán 	7	Santa Rita 	10	Octubre	2023-10-27T00:00:00	2024-11-08T19:00:00	7	Dirección del viento	1.61
125575	7	Sololá	704	Santa Lucía Utatlán 	7	Santa Rita 	10	Octubre	2023-10-27T00:00:00	2024-11-08T19:00:00	1	Precipitación	0
125576	7	Sololá	704	Santa Lucía Utatlán 	7	Santa Rita 	10	Octubre	2023-10-27T00:00:00	2024-11-08T19:00:00	8	Radiación solar	0
125577	7	Sololá	704	Santa Lucía Utatlán 	7	Santa Rita 	10	Octubre	2023-10-27T00:00:00	2024-11-08T20:00:00	2	Temperatura media	17
125578	7	Sololá	704	Santa Lucía Utatlán 	7	Santa Rita 	10	Octubre	2023-10-27T00:00:00	2024-11-08T20:00:00	4	Temperatura máxima	17.2
125579	7	Sololá	704	Santa Lucía Utatlán 	7	Santa Rita 	10	Octubre	2023-10-27T00:00:00	2024-11-08T20:00:00	3	Temperatura mínima	16.9
125580	7	Sololá	704	Santa Lucía Utatlán 	7	Santa Rita 	10	Octubre	2023-10-27T00:00:00	2024-11-08T20:00:00	5	Humedad	95
125581	7	Sololá	704	Santa Lucía Utatlán 	7	Santa Rita 	10	Octubre	2023-10-27T00:00:00	2024-11-08T20:00:00	6	Velocidad del viento	1.6
125582	7	Sololá	704	Santa Lucía Utatlán 	7	Santa Rita 	10	Octubre	2023-10-27T00:00:00	2024-11-08T20:00:00	7	Dirección del viento	1.61
125583	7	Sololá	704	Santa Lucía Utatlán 	7	Santa Rita 	10	Octubre	2023-10-27T00:00:00	2024-11-08T20:00:00	1	Precipitación	0
125584	7	Sololá	704	Santa Lucía Utatlán 	7	Santa Rita 	10	Octubre	2023-10-27T00:00:00	2024-11-08T20:00:00	8	Radiación solar	0
125585	7	Sololá	704	Santa Lucía Utatlán 	7	Santa Rita 	10	Octubre	2023-10-27T00:00:00	2024-11-08T21:00:00	2	Temperatura media	16.8
125586	7	Sololá	704	Santa Lucía Utatlán 	7	Santa Rita 	10	Octubre	2023-10-27T00:00:00	2024-11-08T21:00:00	4	Temperatura máxima	17
125587	7	Sololá	704	Santa Lucía Utatlán 	7	Santa Rita 	10	Octubre	2023-10-27T00:00:00	2024-11-08T21:00:00	3	Temperatura mínima	16.7
125588	7	Sololá	704	Santa Lucía Utatlán 	7	Santa Rita 	10	Octubre	2023-10-27T00:00:00	2024-11-08T21:00:00	5	Humedad	94
125589	7	Sololá	704	Santa Lucía Utatlán 	7	Santa Rita 	10	Octubre	2023-10-27T00:00:00	2024-11-08T21:00:00	6	Velocidad del viento	3.2
125590	7	Sololá	704	Santa Lucía Utatlán 	7	Santa Rita 	10	Octubre	2023-10-27T00:00:00	2024-11-08T21:00:00	7	Dirección del viento	3.22
125591	7	Sololá	704	Santa Lucía Utatlán 	7	Santa Rita 	10	Octubre	2023-10-27T00:00:00	2024-11-08T21:00:00	1	Precipitación	0
125592	7	Sololá	704	Santa Lucía Utatlán 	7	Santa Rita 	10	Octubre	2023-10-27T00:00:00	2024-11-08T21:00:00	8	Radiación solar	0
125593	7	Sololá	704	Santa Lucía Utatlán 	7	Santa Rita 	10	Octubre	2023-10-27T00:00:00	2024-11-08T22:00:00	2	Temperatura media	17.3
125594	7	Sololá	704	Santa Lucía Utatlán 	7	Santa Rita 	10	Octubre	2023-10-27T00:00:00	2024-11-08T22:00:00	4	Temperatura máxima	17.3
125595	7	Sololá	704	Santa Lucía Utatlán 	7	Santa Rita 	10	Octubre	2023-10-27T00:00:00	2024-11-08T22:00:00	3	Temperatura mínima	16.7
125596	7	Sololá	704	Santa Lucía Utatlán 	7	Santa Rita 	10	Octubre	2023-10-27T00:00:00	2024-11-08T22:00:00	5	Humedad	94
125597	7	Sololá	704	Santa Lucía Utatlán 	7	Santa Rita 	10	Octubre	2023-10-27T00:00:00	2024-11-08T22:00:00	6	Velocidad del viento	3.2
125598	7	Sololá	704	Santa Lucía Utatlán 	7	Santa Rita 	10	Octubre	2023-10-27T00:00:00	2024-11-08T22:00:00	7	Dirección del viento	3.22
125599	7	Sololá	704	Santa Lucía Utatlán 	7	Santa Rita 	10	Octubre	2023-10-27T00:00:00	2024-11-08T22:00:00	1	Precipitación	0
125600	7	Sololá	704	Santa Lucía Utatlán 	7	Santa Rita 	10	Octubre	2023-10-27T00:00:00	2024-11-08T22:00:00	8	Radiación solar	0
125601	7	Sololá	704	Santa Lucía Utatlán 	7	Santa Rita 	10	Octubre	2023-10-27T00:00:00	2024-11-08T23:00:00	2	Temperatura media	17.4
125602	7	Sololá	704	Santa Lucía Utatlán 	7	Santa Rita 	10	Octubre	2023-10-27T00:00:00	2024-11-08T23:00:00	4	Temperatura máxima	17.4
125603	7	Sololá	704	Santa Lucía Utatlán 	7	Santa Rita 	10	Octubre	2023-10-27T00:00:00	2024-11-08T23:00:00	3	Temperatura mínima	17.2
125604	7	Sololá	704	Santa Lucía Utatlán 	7	Santa Rita 	10	Octubre	2023-10-27T00:00:00	2024-11-08T23:00:00	5	Humedad	92
125605	7	Sololá	704	Santa Lucía Utatlán 	7	Santa Rita 	10	Octubre	2023-10-27T00:00:00	2024-11-08T23:00:00	6	Velocidad del viento	3.2
125606	7	Sololá	704	Santa Lucía Utatlán 	7	Santa Rita 	10	Octubre	2023-10-27T00:00:00	2024-11-08T23:00:00	7	Dirección del viento	3.22
125607	7	Sololá	704	Santa Lucía Utatlán 	7	Santa Rita 	10	Octubre	2023-10-27T00:00:00	2024-11-08T23:00:00	1	Precipitación	0
125608	7	Sololá	704	Santa Lucía Utatlán 	7	Santa Rita 	10	Octubre	2023-10-27T00:00:00	2024-11-08T23:00:00	8	Radiación solar	0
125609	7	Sololá	704	Santa Lucía Utatlán 	7	Santa Rita 	10	Octubre	2023-10-28T00:00:00	2024-11-08T00:00:00	2	Temperatura media	20
125610	7	Sololá	704	Santa Lucía Utatlán 	7	Santa Rita 	10	Octubre	2023-10-28T00:00:00	2024-11-08T00:00:00	4	Temperatura máxima	20
125611	7	Sololá	704	Santa Lucía Utatlán 	7	Santa Rita 	10	Octubre	2023-10-28T00:00:00	2024-11-08T00:00:00	3	Temperatura mínima	17.4
125612	7	Sololá	704	Santa Lucía Utatlán 	7	Santa Rita 	10	Octubre	2023-10-28T00:00:00	2024-11-08T00:00:00	5	Humedad	84
125613	7	Sololá	704	Santa Lucía Utatlán 	7	Santa Rita 	10	Octubre	2023-10-28T00:00:00	2024-11-08T00:00:00	6	Velocidad del viento	3.2
125614	7	Sololá	704	Santa Lucía Utatlán 	7	Santa Rita 	10	Octubre	2023-10-28T00:00:00	2024-11-08T00:00:00	7	Dirección del viento	3.22
125615	7	Sololá	704	Santa Lucía Utatlán 	7	Santa Rita 	10	Octubre	2023-10-28T00:00:00	2024-11-08T00:00:00	1	Precipitación	0
125616	7	Sololá	704	Santa Lucía Utatlán 	7	Santa Rita 	10	Octubre	2023-10-28T00:00:00	2024-11-08T00:00:00	8	Radiación solar	0
125617	7	Sololá	704	Santa Lucía Utatlán 	7	Santa Rita 	10	Octubre	2023-10-28T00:00:00	2024-11-08T01:00:00	2	Temperatura media	22.1
125618	7	Sololá	704	Santa Lucía Utatlán 	7	Santa Rita 	10	Octubre	2023-10-28T00:00:00	2024-11-08T01:00:00	4	Temperatura máxima	22.2
125619	7	Sololá	704	Santa Lucía Utatlán 	7	Santa Rita 	10	Octubre	2023-10-28T00:00:00	2024-11-08T01:00:00	3	Temperatura mínima	20
125620	7	Sololá	704	Santa Lucía Utatlán 	7	Santa Rita 	10	Octubre	2023-10-28T00:00:00	2024-11-08T01:00:00	5	Humedad	77
125621	7	Sololá	704	Santa Lucía Utatlán 	7	Santa Rita 	10	Octubre	2023-10-28T00:00:00	2024-11-08T01:00:00	6	Velocidad del viento	4.8
125622	7	Sololá	704	Santa Lucía Utatlán 	7	Santa Rita 	10	Octubre	2023-10-28T00:00:00	2024-11-08T01:00:00	7	Dirección del viento	4.83
125623	7	Sololá	704	Santa Lucía Utatlán 	7	Santa Rita 	10	Octubre	2023-10-28T00:00:00	2024-11-08T01:00:00	1	Precipitación	0
125624	7	Sololá	704	Santa Lucía Utatlán 	7	Santa Rita 	10	Octubre	2023-10-28T00:00:00	2024-11-08T01:00:00	8	Radiación solar	0
125625	7	Sololá	704	Santa Lucía Utatlán 	7	Santa Rita 	10	Octubre	2023-10-28T00:00:00	2024-11-08T02:00:00	2	Temperatura media	23.9
125626	7	Sololá	704	Santa Lucía Utatlán 	7	Santa Rita 	10	Octubre	2023-10-28T00:00:00	2024-11-08T02:00:00	4	Temperatura máxima	24.1
125627	7	Sololá	704	Santa Lucía Utatlán 	7	Santa Rita 	10	Octubre	2023-10-28T00:00:00	2024-11-08T02:00:00	3	Temperatura mínima	22
125628	7	Sololá	704	Santa Lucía Utatlán 	7	Santa Rita 	10	Octubre	2023-10-28T00:00:00	2024-11-08T02:00:00	5	Humedad	66
125629	7	Sololá	704	Santa Lucía Utatlán 	7	Santa Rita 	10	Octubre	2023-10-28T00:00:00	2024-11-08T02:00:00	6	Velocidad del viento	4.8
125630	7	Sololá	704	Santa Lucía Utatlán 	7	Santa Rita 	10	Octubre	2023-10-28T00:00:00	2024-11-08T02:00:00	7	Dirección del viento	4.83
125631	7	Sololá	704	Santa Lucía Utatlán 	7	Santa Rita 	10	Octubre	2023-10-28T00:00:00	2024-11-08T02:00:00	1	Precipitación	0
125632	7	Sololá	704	Santa Lucía Utatlán 	7	Santa Rita 	10	Octubre	2023-10-28T00:00:00	2024-11-08T02:00:00	8	Radiación solar	0
125633	7	Sololá	704	Santa Lucía Utatlán 	7	Santa Rita 	10	Octubre	2023-10-28T00:00:00	2024-11-08T03:00:00	2	Temperatura media	23.4
125634	7	Sololá	704	Santa Lucía Utatlán 	7	Santa Rita 	10	Octubre	2023-10-28T00:00:00	2024-11-08T03:00:00	4	Temperatura máxima	24.1
125635	7	Sololá	704	Santa Lucía Utatlán 	7	Santa Rita 	10	Octubre	2023-10-28T00:00:00	2024-11-08T03:00:00	3	Temperatura mínima	23.1
125636	7	Sololá	704	Santa Lucía Utatlán 	7	Santa Rita 	10	Octubre	2023-10-28T00:00:00	2024-11-08T03:00:00	5	Humedad	69
125637	7	Sololá	704	Santa Lucía Utatlán 	7	Santa Rita 	10	Octubre	2023-10-28T00:00:00	2024-11-08T03:00:00	6	Velocidad del viento	9.7
125638	7	Sololá	704	Santa Lucía Utatlán 	7	Santa Rita 	10	Octubre	2023-10-28T00:00:00	2024-11-08T03:00:00	7	Dirección del viento	9.66
125639	7	Sololá	704	Santa Lucía Utatlán 	7	Santa Rita 	10	Octubre	2023-10-28T00:00:00	2024-11-08T03:00:00	1	Precipitación	0
125640	7	Sololá	704	Santa Lucía Utatlán 	7	Santa Rita 	10	Octubre	2023-10-28T00:00:00	2024-11-08T03:00:00	8	Radiación solar	0
125641	7	Sololá	704	Santa Lucía Utatlán 	7	Santa Rita 	10	Octubre	2023-10-28T00:00:00	2024-11-08T04:00:00	2	Temperatura media	23.6
125642	7	Sololá	704	Santa Lucía Utatlán 	7	Santa Rita 	10	Octubre	2023-10-28T00:00:00	2024-11-08T04:00:00	4	Temperatura máxima	24.2
125643	7	Sololá	704	Santa Lucía Utatlán 	7	Santa Rita 	10	Octubre	2023-10-28T00:00:00	2024-11-08T04:00:00	3	Temperatura mínima	23.2
125644	7	Sololá	704	Santa Lucía Utatlán 	7	Santa Rita 	10	Octubre	2023-10-28T00:00:00	2024-11-08T04:00:00	5	Humedad	70
125645	7	Sololá	704	Santa Lucía Utatlán 	7	Santa Rita 	10	Octubre	2023-10-28T00:00:00	2024-11-08T04:00:00	6	Velocidad del viento	12.9
125646	7	Sololá	704	Santa Lucía Utatlán 	7	Santa Rita 	10	Octubre	2023-10-28T00:00:00	2024-11-08T04:00:00	7	Dirección del viento	12.87
125647	7	Sololá	704	Santa Lucía Utatlán 	7	Santa Rita 	10	Octubre	2023-10-28T00:00:00	2024-11-08T04:00:00	1	Precipitación	0
125648	7	Sololá	704	Santa Lucía Utatlán 	7	Santa Rita 	10	Octubre	2023-10-28T00:00:00	2024-11-08T04:00:00	8	Radiación solar	0
125649	7	Sololá	704	Santa Lucía Utatlán 	7	Santa Rita 	10	Octubre	2023-10-28T00:00:00	2024-11-08T05:00:00	2	Temperatura media	23.8
125650	7	Sololá	704	Santa Lucía Utatlán 	7	Santa Rita 	10	Octubre	2023-10-28T00:00:00	2024-11-08T05:00:00	4	Temperatura máxima	24.2
125651	7	Sololá	704	Santa Lucía Utatlán 	7	Santa Rita 	10	Octubre	2023-10-28T00:00:00	2024-11-08T05:00:00	3	Temperatura mínima	23.2
125652	7	Sololá	704	Santa Lucía Utatlán 	7	Santa Rita 	10	Octubre	2023-10-28T00:00:00	2024-11-08T05:00:00	5	Humedad	71
125653	7	Sololá	704	Santa Lucía Utatlán 	7	Santa Rita 	10	Octubre	2023-10-28T00:00:00	2024-11-08T05:00:00	6	Velocidad del viento	12.9
125654	7	Sololá	704	Santa Lucía Utatlán 	7	Santa Rita 	10	Octubre	2023-10-28T00:00:00	2024-11-08T05:00:00	7	Dirección del viento	12.87
125655	7	Sololá	704	Santa Lucía Utatlán 	7	Santa Rita 	10	Octubre	2023-10-28T00:00:00	2024-11-08T05:00:00	1	Precipitación	0
125656	7	Sololá	704	Santa Lucía Utatlán 	7	Santa Rita 	10	Octubre	2023-10-28T00:00:00	2024-11-08T05:00:00	8	Radiación solar	0
125657	7	Sololá	704	Santa Lucía Utatlán 	7	Santa Rita 	10	Octubre	2023-10-28T00:00:00	2024-11-08T06:00:00	2	Temperatura media	23.4
125658	7	Sololá	704	Santa Lucía Utatlán 	7	Santa Rita 	10	Octubre	2023-10-28T00:00:00	2024-11-08T06:00:00	4	Temperatura máxima	23.9
125659	7	Sololá	704	Santa Lucía Utatlán 	7	Santa Rita 	10	Octubre	2023-10-28T00:00:00	2024-11-08T06:00:00	3	Temperatura mínima	23.4
125660	7	Sololá	704	Santa Lucía Utatlán 	7	Santa Rita 	10	Octubre	2023-10-28T00:00:00	2024-11-08T06:00:00	5	Humedad	73
125661	7	Sololá	704	Santa Lucía Utatlán 	7	Santa Rita 	10	Octubre	2023-10-28T00:00:00	2024-11-08T06:00:00	6	Velocidad del viento	8
125662	7	Sololá	704	Santa Lucía Utatlán 	7	Santa Rita 	10	Octubre	2023-10-28T00:00:00	2024-11-08T06:00:00	7	Dirección del viento	8.05
125663	7	Sololá	704	Santa Lucía Utatlán 	7	Santa Rita 	10	Octubre	2023-10-28T00:00:00	2024-11-08T06:00:00	1	Precipitación	0
125664	7	Sololá	704	Santa Lucía Utatlán 	7	Santa Rita 	10	Octubre	2023-10-28T00:00:00	2024-11-08T06:00:00	8	Radiación solar	0
125665	7	Sololá	704	Santa Lucía Utatlán 	7	Santa Rita 	10	Octubre	2023-10-28T00:00:00	2024-11-08T07:00:00	2	Temperatura media	22.8
125666	7	Sololá	704	Santa Lucía Utatlán 	7	Santa Rita 	10	Octubre	2023-10-28T00:00:00	2024-11-08T07:00:00	4	Temperatura máxima	23.4
125667	7	Sololá	704	Santa Lucía Utatlán 	7	Santa Rita 	10	Octubre	2023-10-28T00:00:00	2024-11-08T07:00:00	3	Temperatura mínima	22.7
125668	7	Sololá	704	Santa Lucía Utatlán 	7	Santa Rita 	10	Octubre	2023-10-28T00:00:00	2024-11-08T07:00:00	5	Humedad	77
125669	7	Sololá	704	Santa Lucía Utatlán 	7	Santa Rita 	10	Octubre	2023-10-28T00:00:00	2024-11-08T07:00:00	6	Velocidad del viento	8
125670	7	Sololá	704	Santa Lucía Utatlán 	7	Santa Rita 	10	Octubre	2023-10-28T00:00:00	2024-11-08T07:00:00	7	Dirección del viento	8.05
125671	7	Sololá	704	Santa Lucía Utatlán 	7	Santa Rita 	10	Octubre	2023-10-28T00:00:00	2024-11-08T07:00:00	1	Precipitación	0
125672	7	Sololá	704	Santa Lucía Utatlán 	7	Santa Rita 	10	Octubre	2023-10-28T00:00:00	2024-11-08T07:00:00	8	Radiación solar	7
125673	7	Sololá	704	Santa Lucía Utatlán 	7	Santa Rita 	10	Octubre	2023-10-28T00:00:00	2024-11-08T08:00:00	2	Temperatura media	21.8
125674	7	Sololá	704	Santa Lucía Utatlán 	7	Santa Rita 	10	Octubre	2023-10-28T00:00:00	2024-11-08T08:00:00	4	Temperatura máxima	23.3
125675	7	Sololá	704	Santa Lucía Utatlán 	7	Santa Rita 	10	Octubre	2023-10-28T00:00:00	2024-11-08T08:00:00	3	Temperatura mínima	21.8
125676	7	Sololá	704	Santa Lucía Utatlán 	7	Santa Rita 	10	Octubre	2023-10-28T00:00:00	2024-11-08T08:00:00	5	Humedad	78
125677	7	Sololá	704	Santa Lucía Utatlán 	7	Santa Rita 	10	Octubre	2023-10-28T00:00:00	2024-11-08T08:00:00	6	Velocidad del viento	6.4
125678	7	Sololá	704	Santa Lucía Utatlán 	7	Santa Rita 	10	Octubre	2023-10-28T00:00:00	2024-11-08T08:00:00	7	Dirección del viento	6.44
125679	7	Sololá	704	Santa Lucía Utatlán 	7	Santa Rita 	10	Octubre	2023-10-28T00:00:00	2024-11-08T08:00:00	1	Precipitación	0
125680	7	Sololá	704	Santa Lucía Utatlán 	7	Santa Rita 	10	Octubre	2023-10-28T00:00:00	2024-11-08T08:00:00	8	Radiación solar	130
125681	7	Sololá	704	Santa Lucía Utatlán 	7	Santa Rita 	10	Octubre	2023-10-28T00:00:00	2024-11-08T09:00:00	2	Temperatura media	22.1
125682	7	Sololá	704	Santa Lucía Utatlán 	7	Santa Rita 	10	Octubre	2023-10-28T00:00:00	2024-11-08T09:00:00	4	Temperatura máxima	23.5
125683	7	Sololá	704	Santa Lucía Utatlán 	7	Santa Rita 	10	Octubre	2023-10-28T00:00:00	2024-11-08T09:00:00	3	Temperatura mínima	22.1
125684	7	Sololá	704	Santa Lucía Utatlán 	7	Santa Rita 	10	Octubre	2023-10-28T00:00:00	2024-11-08T09:00:00	5	Humedad	84
125685	7	Sololá	704	Santa Lucía Utatlán 	7	Santa Rita 	10	Octubre	2023-10-28T00:00:00	2024-11-08T09:00:00	6	Velocidad del viento	4.8
125686	7	Sololá	704	Santa Lucía Utatlán 	7	Santa Rita 	10	Octubre	2023-10-28T00:00:00	2024-11-08T09:00:00	7	Dirección del viento	4.83
125687	7	Sololá	704	Santa Lucía Utatlán 	7	Santa Rita 	10	Octubre	2023-10-28T00:00:00	2024-11-08T09:00:00	1	Precipitación	0
125688	7	Sololá	704	Santa Lucía Utatlán 	7	Santa Rita 	10	Octubre	2023-10-28T00:00:00	2024-11-08T09:00:00	8	Radiación solar	362
125689	7	Sololá	704	Santa Lucía Utatlán 	7	Santa Rita 	10	Octubre	2023-10-28T00:00:00	2024-11-08T10:00:00	2	Temperatura media	20.1
125690	7	Sololá	704	Santa Lucía Utatlán 	7	Santa Rita 	10	Octubre	2023-10-28T00:00:00	2024-11-08T10:00:00	4	Temperatura máxima	20.6
125691	7	Sololá	704	Santa Lucía Utatlán 	7	Santa Rita 	10	Octubre	2023-10-28T00:00:00	2024-11-08T10:00:00	3	Temperatura mínima	20.1
125692	7	Sololá	704	Santa Lucía Utatlán 	7	Santa Rita 	10	Octubre	2023-10-28T00:00:00	2024-11-08T10:00:00	5	Humedad	84
125693	7	Sololá	704	Santa Lucía Utatlán 	7	Santa Rita 	10	Octubre	2023-10-28T00:00:00	2024-11-08T10:00:00	6	Velocidad del viento	1.6
125694	7	Sololá	704	Santa Lucía Utatlán 	7	Santa Rita 	10	Octubre	2023-10-28T00:00:00	2024-11-08T10:00:00	7	Dirección del viento	1.61
125695	7	Sololá	704	Santa Lucía Utatlán 	7	Santa Rita 	10	Octubre	2023-10-28T00:00:00	2024-11-08T10:00:00	1	Precipitación	0
125696	7	Sololá	704	Santa Lucía Utatlán 	7	Santa Rita 	10	Octubre	2023-10-28T00:00:00	2024-11-08T10:00:00	8	Radiación solar	668
125697	7	Sololá	704	Santa Lucía Utatlán 	7	Santa Rita 	10	Octubre	2023-10-28T00:00:00	2024-11-08T11:00:00	2	Temperatura media	19.4
125698	7	Sololá	704	Santa Lucía Utatlán 	7	Santa Rita 	10	Octubre	2023-10-28T00:00:00	2024-11-08T11:00:00	4	Temperatura máxima	20.1
125699	7	Sololá	704	Santa Lucía Utatlán 	7	Santa Rita 	10	Octubre	2023-10-28T00:00:00	2024-11-08T11:00:00	3	Temperatura mínima	19.4
125700	7	Sololá	704	Santa Lucía Utatlán 	7	Santa Rita 	10	Octubre	2023-10-28T00:00:00	2024-11-08T11:00:00	5	Humedad	88
125701	7	Sololá	704	Santa Lucía Utatlán 	7	Santa Rita 	10	Octubre	2023-10-28T00:00:00	2024-11-08T11:00:00	6	Velocidad del viento	1.6
125702	7	Sololá	704	Santa Lucía Utatlán 	7	Santa Rita 	10	Octubre	2023-10-28T00:00:00	2024-11-08T11:00:00	7	Dirección del viento	1.61
125703	7	Sololá	704	Santa Lucía Utatlán 	7	Santa Rita 	10	Octubre	2023-10-28T00:00:00	2024-11-08T11:00:00	1	Precipitación	0
125704	7	Sololá	704	Santa Lucía Utatlán 	7	Santa Rita 	10	Octubre	2023-10-28T00:00:00	2024-11-08T11:00:00	8	Radiación solar	614
125705	7	Sololá	704	Santa Lucía Utatlán 	7	Santa Rita 	10	Octubre	2023-10-28T00:00:00	2024-11-08T12:00:00	2	Temperatura media	18.9
125706	7	Sololá	704	Santa Lucía Utatlán 	7	Santa Rita 	10	Octubre	2023-10-28T00:00:00	2024-11-08T12:00:00	4	Temperatura máxima	19.5
125707	7	Sololá	704	Santa Lucía Utatlán 	7	Santa Rita 	10	Octubre	2023-10-28T00:00:00	2024-11-08T12:00:00	3	Temperatura mínima	18.8
125708	7	Sololá	704	Santa Lucía Utatlán 	7	Santa Rita 	10	Octubre	2023-10-28T00:00:00	2024-11-08T12:00:00	5	Humedad	90
125709	7	Sololá	704	Santa Lucía Utatlán 	7	Santa Rita 	10	Octubre	2023-10-28T00:00:00	2024-11-08T12:00:00	6	Velocidad del viento	1.6
125710	7	Sololá	704	Santa Lucía Utatlán 	7	Santa Rita 	10	Octubre	2023-10-28T00:00:00	2024-11-08T12:00:00	7	Dirección del viento	1.61
125711	7	Sololá	704	Santa Lucía Utatlán 	7	Santa Rita 	10	Octubre	2023-10-28T00:00:00	2024-11-08T12:00:00	1	Precipitación	0
125712	7	Sololá	704	Santa Lucía Utatlán 	7	Santa Rita 	10	Octubre	2023-10-28T00:00:00	2024-11-08T12:00:00	8	Radiación solar	743
125713	7	Sololá	704	Santa Lucía Utatlán 	7	Santa Rita 	10	Octubre	2023-10-28T00:00:00	2024-11-08T13:00:00	2	Temperatura media	19.2
125714	7	Sololá	704	Santa Lucía Utatlán 	7	Santa Rita 	10	Octubre	2023-10-28T00:00:00	2024-11-08T13:00:00	4	Temperatura máxima	19.4
125715	7	Sololá	704	Santa Lucía Utatlán 	7	Santa Rita 	10	Octubre	2023-10-28T00:00:00	2024-11-08T13:00:00	3	Temperatura mínima	18.7
125716	7	Sololá	704	Santa Lucía Utatlán 	7	Santa Rita 	10	Octubre	2023-10-28T00:00:00	2024-11-08T13:00:00	5	Humedad	89
125717	7	Sololá	704	Santa Lucía Utatlán 	7	Santa Rita 	10	Octubre	2023-10-28T00:00:00	2024-11-08T13:00:00	6	Velocidad del viento	1.6
125718	7	Sololá	704	Santa Lucía Utatlán 	7	Santa Rita 	10	Octubre	2023-10-28T00:00:00	2024-11-08T13:00:00	7	Dirección del viento	1.61
125719	7	Sololá	704	Santa Lucía Utatlán 	7	Santa Rita 	10	Octubre	2023-10-28T00:00:00	2024-11-08T13:00:00	1	Precipitación	0
125720	7	Sololá	704	Santa Lucía Utatlán 	7	Santa Rita 	10	Octubre	2023-10-28T00:00:00	2024-11-08T13:00:00	8	Radiación solar	817
125721	7	Sololá	704	Santa Lucía Utatlán 	7	Santa Rita 	10	Octubre	2023-10-28T00:00:00	2024-11-08T14:00:00	2	Temperatura media	20.3
125722	7	Sololá	704	Santa Lucía Utatlán 	7	Santa Rita 	10	Octubre	2023-10-28T00:00:00	2024-11-08T14:00:00	4	Temperatura máxima	20.4
125723	7	Sololá	704	Santa Lucía Utatlán 	7	Santa Rita 	10	Octubre	2023-10-28T00:00:00	2024-11-08T14:00:00	3	Temperatura mínima	19.1
125724	7	Sololá	704	Santa Lucía Utatlán 	7	Santa Rita 	10	Octubre	2023-10-28T00:00:00	2024-11-08T14:00:00	5	Humedad	81
125725	7	Sololá	704	Santa Lucía Utatlán 	7	Santa Rita 	10	Octubre	2023-10-28T00:00:00	2024-11-08T14:00:00	6	Velocidad del viento	3.2
125726	7	Sololá	704	Santa Lucía Utatlán 	7	Santa Rita 	10	Octubre	2023-10-28T00:00:00	2024-11-08T14:00:00	7	Dirección del viento	3.22
125727	7	Sololá	704	Santa Lucía Utatlán 	7	Santa Rita 	10	Octubre	2023-10-28T00:00:00	2024-11-08T14:00:00	1	Precipitación	0
125728	7	Sololá	704	Santa Lucía Utatlán 	7	Santa Rita 	10	Octubre	2023-10-28T00:00:00	2024-11-08T14:00:00	8	Radiación solar	452
125729	7	Sololá	704	Santa Lucía Utatlán 	7	Santa Rita 	10	Octubre	2023-10-28T00:00:00	2024-11-08T15:00:00	2	Temperatura media	18.9
125730	7	Sololá	704	Santa Lucía Utatlán 	7	Santa Rita 	10	Octubre	2023-10-28T00:00:00	2024-11-08T15:00:00	4	Temperatura máxima	20.4
125731	7	Sololá	704	Santa Lucía Utatlán 	7	Santa Rita 	10	Octubre	2023-10-28T00:00:00	2024-11-08T15:00:00	3	Temperatura mínima	18.9
125732	7	Sololá	704	Santa Lucía Utatlán 	7	Santa Rita 	10	Octubre	2023-10-28T00:00:00	2024-11-08T15:00:00	5	Humedad	89
125733	7	Sololá	704	Santa Lucía Utatlán 	7	Santa Rita 	10	Octubre	2023-10-28T00:00:00	2024-11-08T15:00:00	6	Velocidad del viento	1.6
125734	7	Sololá	704	Santa Lucía Utatlán 	7	Santa Rita 	10	Octubre	2023-10-28T00:00:00	2024-11-08T15:00:00	7	Dirección del viento	1.61
125735	7	Sololá	704	Santa Lucía Utatlán 	7	Santa Rita 	10	Octubre	2023-10-28T00:00:00	2024-11-08T15:00:00	1	Precipitación	0
125736	7	Sololá	704	Santa Lucía Utatlán 	7	Santa Rita 	10	Octubre	2023-10-28T00:00:00	2024-11-08T15:00:00	8	Radiación solar	357
125737	7	Sololá	704	Santa Lucía Utatlán 	7	Santa Rita 	10	Octubre	2023-10-28T00:00:00	2024-11-08T16:00:00	2	Temperatura media	18.6
125738	7	Sololá	704	Santa Lucía Utatlán 	7	Santa Rita 	10	Octubre	2023-10-28T00:00:00	2024-11-08T16:00:00	4	Temperatura máxima	18.9
125739	7	Sololá	704	Santa Lucía Utatlán 	7	Santa Rita 	10	Octubre	2023-10-28T00:00:00	2024-11-08T16:00:00	3	Temperatura mínima	18.6
125740	7	Sololá	704	Santa Lucía Utatlán 	7	Santa Rita 	10	Octubre	2023-10-28T00:00:00	2024-11-08T16:00:00	5	Humedad	91
125741	7	Sololá	704	Santa Lucía Utatlán 	7	Santa Rita 	10	Octubre	2023-10-28T00:00:00	2024-11-08T16:00:00	6	Velocidad del viento	1.6
125742	7	Sololá	704	Santa Lucía Utatlán 	7	Santa Rita 	10	Octubre	2023-10-28T00:00:00	2024-11-08T16:00:00	7	Dirección del viento	1.61
125743	7	Sololá	704	Santa Lucía Utatlán 	7	Santa Rita 	10	Octubre	2023-10-28T00:00:00	2024-11-08T16:00:00	1	Precipitación	0
125744	7	Sololá	704	Santa Lucía Utatlán 	7	Santa Rita 	10	Octubre	2023-10-28T00:00:00	2024-11-08T16:00:00	8	Radiación solar	333
125745	7	Sololá	704	Santa Lucía Utatlán 	7	Santa Rita 	10	Octubre	2023-10-28T00:00:00	2024-11-08T17:00:00	2	Temperatura media	18.4
125746	7	Sololá	704	Santa Lucía Utatlán 	7	Santa Rita 	10	Octubre	2023-10-28T00:00:00	2024-11-08T17:00:00	4	Temperatura máxima	18.6
125747	7	Sololá	704	Santa Lucía Utatlán 	7	Santa Rita 	10	Octubre	2023-10-28T00:00:00	2024-11-08T17:00:00	3	Temperatura mínima	18.3
125748	7	Sololá	704	Santa Lucía Utatlán 	7	Santa Rita 	10	Octubre	2023-10-28T00:00:00	2024-11-08T17:00:00	5	Humedad	92
125749	7	Sololá	704	Santa Lucía Utatlán 	7	Santa Rita 	10	Octubre	2023-10-28T00:00:00	2024-11-08T17:00:00	6	Velocidad del viento	1.6
125750	7	Sololá	704	Santa Lucía Utatlán 	7	Santa Rita 	10	Octubre	2023-10-28T00:00:00	2024-11-08T17:00:00	7	Dirección del viento	1.61
125751	7	Sololá	704	Santa Lucía Utatlán 	7	Santa Rita 	10	Octubre	2023-10-28T00:00:00	2024-11-08T17:00:00	1	Precipitación	0
125752	7	Sololá	704	Santa Lucía Utatlán 	7	Santa Rita 	10	Octubre	2023-10-28T00:00:00	2024-11-08T17:00:00	8	Radiación solar	489
125753	7	Sololá	704	Santa Lucía Utatlán 	7	Santa Rita 	10	Octubre	2023-10-28T00:00:00	2024-11-08T18:00:00	2	Temperatura media	20.1
125754	7	Sololá	704	Santa Lucía Utatlán 	7	Santa Rita 	10	Octubre	2023-10-28T00:00:00	2024-11-08T18:00:00	4	Temperatura máxima	20.1
125755	7	Sololá	704	Santa Lucía Utatlán 	7	Santa Rita 	10	Octubre	2023-10-28T00:00:00	2024-11-08T18:00:00	3	Temperatura mínima	18.3
125756	7	Sololá	704	Santa Lucía Utatlán 	7	Santa Rita 	10	Octubre	2023-10-28T00:00:00	2024-11-08T18:00:00	5	Humedad	82
125757	7	Sololá	704	Santa Lucía Utatlán 	7	Santa Rita 	10	Octubre	2023-10-28T00:00:00	2024-11-08T18:00:00	6	Velocidad del viento	4.8
125758	7	Sololá	704	Santa Lucía Utatlán 	7	Santa Rita 	10	Octubre	2023-10-28T00:00:00	2024-11-08T18:00:00	7	Dirección del viento	4.83
125759	7	Sololá	704	Santa Lucía Utatlán 	7	Santa Rita 	10	Octubre	2023-10-28T00:00:00	2024-11-08T18:00:00	1	Precipitación	0
125760	7	Sololá	704	Santa Lucía Utatlán 	7	Santa Rita 	10	Octubre	2023-10-28T00:00:00	2024-11-08T18:00:00	8	Radiación solar	0
125761	7	Sololá	704	Santa Lucía Utatlán 	7	Santa Rita 	10	Octubre	2023-10-28T00:00:00	2024-11-08T19:00:00	2	Temperatura media	19.6
125762	7	Sololá	704	Santa Lucía Utatlán 	7	Santa Rita 	10	Octubre	2023-10-28T00:00:00	2024-11-08T19:00:00	4	Temperatura máxima	20.2
125763	7	Sololá	704	Santa Lucía Utatlán 	7	Santa Rita 	10	Octubre	2023-10-28T00:00:00	2024-11-08T19:00:00	3	Temperatura mínima	19.6
125764	7	Sololá	704	Santa Lucía Utatlán 	7	Santa Rita 	10	Octubre	2023-10-28T00:00:00	2024-11-08T19:00:00	5	Humedad	84
125765	7	Sololá	704	Santa Lucía Utatlán 	7	Santa Rita 	10	Octubre	2023-10-28T00:00:00	2024-11-08T19:00:00	6	Velocidad del viento	4.8
125766	7	Sololá	704	Santa Lucía Utatlán 	7	Santa Rita 	10	Octubre	2023-10-28T00:00:00	2024-11-08T19:00:00	7	Dirección del viento	4.83
125767	7	Sololá	704	Santa Lucía Utatlán 	7	Santa Rita 	10	Octubre	2023-10-28T00:00:00	2024-11-08T19:00:00	1	Precipitación	0
125768	7	Sololá	704	Santa Lucía Utatlán 	7	Santa Rita 	10	Octubre	2023-10-28T00:00:00	2024-11-08T19:00:00	8	Radiación solar	0
125769	7	Sololá	704	Santa Lucía Utatlán 	7	Santa Rita 	10	Octubre	2023-10-28T00:00:00	2024-11-08T20:00:00	2	Temperatura media	17.5
125770	7	Sololá	704	Santa Lucía Utatlán 	7	Santa Rita 	10	Octubre	2023-10-28T00:00:00	2024-11-08T20:00:00	4	Temperatura máxima	19.6
125771	7	Sololá	704	Santa Lucía Utatlán 	7	Santa Rita 	10	Octubre	2023-10-28T00:00:00	2024-11-08T20:00:00	3	Temperatura mínima	17.5
125772	7	Sololá	704	Santa Lucía Utatlán 	7	Santa Rita 	10	Octubre	2023-10-28T00:00:00	2024-11-08T20:00:00	5	Humedad	91
125773	7	Sololá	704	Santa Lucía Utatlán 	7	Santa Rita 	10	Octubre	2023-10-28T00:00:00	2024-11-08T20:00:00	6	Velocidad del viento	1.6
125774	7	Sololá	704	Santa Lucía Utatlán 	7	Santa Rita 	10	Octubre	2023-10-28T00:00:00	2024-11-08T20:00:00	7	Dirección del viento	1.61
125775	7	Sololá	704	Santa Lucía Utatlán 	7	Santa Rita 	10	Octubre	2023-10-28T00:00:00	2024-11-08T20:00:00	1	Precipitación	0
125776	7	Sololá	704	Santa Lucía Utatlán 	7	Santa Rita 	10	Octubre	2023-10-28T00:00:00	2024-11-08T20:00:00	8	Radiación solar	0
125777	7	Sololá	704	Santa Lucía Utatlán 	7	Santa Rita 	10	Octubre	2023-10-28T00:00:00	2024-11-08T21:00:00	2	Temperatura media	17
125778	7	Sololá	704	Santa Lucía Utatlán 	7	Santa Rita 	10	Octubre	2023-10-28T00:00:00	2024-11-08T21:00:00	4	Temperatura máxima	17.5
125779	7	Sololá	704	Santa Lucía Utatlán 	7	Santa Rita 	10	Octubre	2023-10-28T00:00:00	2024-11-08T21:00:00	3	Temperatura mínima	16.9
125780	7	Sololá	704	Santa Lucía Utatlán 	7	Santa Rita 	10	Octubre	2023-10-28T00:00:00	2024-11-08T21:00:00	5	Humedad	93
125781	7	Sololá	704	Santa Lucía Utatlán 	7	Santa Rita 	10	Octubre	2023-10-28T00:00:00	2024-11-08T21:00:00	6	Velocidad del viento	3.2
125782	7	Sololá	704	Santa Lucía Utatlán 	7	Santa Rita 	10	Octubre	2023-10-28T00:00:00	2024-11-08T21:00:00	7	Dirección del viento	3.22
125783	7	Sololá	704	Santa Lucía Utatlán 	7	Santa Rita 	10	Octubre	2023-10-28T00:00:00	2024-11-08T21:00:00	1	Precipitación	0
125784	7	Sololá	704	Santa Lucía Utatlán 	7	Santa Rita 	10	Octubre	2023-10-28T00:00:00	2024-11-08T21:00:00	8	Radiación solar	0
125785	7	Sololá	704	Santa Lucía Utatlán 	7	Santa Rita 	10	Octubre	2023-10-28T00:00:00	2024-11-08T22:00:00	2	Temperatura media	17.2
125786	7	Sololá	704	Santa Lucía Utatlán 	7	Santa Rita 	10	Octubre	2023-10-28T00:00:00	2024-11-08T22:00:00	4	Temperatura máxima	17.3
125787	7	Sololá	704	Santa Lucía Utatlán 	7	Santa Rita 	10	Octubre	2023-10-28T00:00:00	2024-11-08T22:00:00	3	Temperatura mínima	17
125788	7	Sololá	704	Santa Lucía Utatlán 	7	Santa Rita 	10	Octubre	2023-10-28T00:00:00	2024-11-08T22:00:00	5	Humedad	92
125789	7	Sololá	704	Santa Lucía Utatlán 	7	Santa Rita 	10	Octubre	2023-10-28T00:00:00	2024-11-08T22:00:00	6	Velocidad del viento	3.2
125790	7	Sololá	704	Santa Lucía Utatlán 	7	Santa Rita 	10	Octubre	2023-10-28T00:00:00	2024-11-08T22:00:00	7	Dirección del viento	3.22
125791	7	Sololá	704	Santa Lucía Utatlán 	7	Santa Rita 	10	Octubre	2023-10-28T00:00:00	2024-11-08T22:00:00	1	Precipitación	0
125792	7	Sololá	704	Santa Lucía Utatlán 	7	Santa Rita 	10	Octubre	2023-10-28T00:00:00	2024-11-08T22:00:00	8	Radiación solar	0
125793	7	Sololá	704	Santa Lucía Utatlán 	7	Santa Rita 	10	Octubre	2023-10-28T00:00:00	2024-11-08T23:00:00	2	Temperatura media	20.6
125794	7	Sololá	704	Santa Lucía Utatlán 	7	Santa Rita 	10	Octubre	2023-10-28T00:00:00	2024-11-08T23:00:00	4	Temperatura máxima	20.6
125795	7	Sololá	704	Santa Lucía Utatlán 	7	Santa Rita 	10	Octubre	2023-10-28T00:00:00	2024-11-08T23:00:00	3	Temperatura mínima	17.2
125796	7	Sololá	704	Santa Lucía Utatlán 	7	Santa Rita 	10	Octubre	2023-10-28T00:00:00	2024-11-08T23:00:00	5	Humedad	83
125797	7	Sololá	704	Santa Lucía Utatlán 	7	Santa Rita 	10	Octubre	2023-10-28T00:00:00	2024-11-08T23:00:00	6	Velocidad del viento	3.2
125798	7	Sololá	704	Santa Lucía Utatlán 	7	Santa Rita 	10	Octubre	2023-10-28T00:00:00	2024-11-08T23:00:00	7	Dirección del viento	3.22
125799	7	Sololá	704	Santa Lucía Utatlán 	7	Santa Rita 	10	Octubre	2023-10-28T00:00:00	2024-11-08T23:00:00	1	Precipitación	0
125800	7	Sololá	704	Santa Lucía Utatlán 	7	Santa Rita 	10	Octubre	2023-10-28T00:00:00	2024-11-08T23:00:00	8	Radiación solar	0
125801	7	Sololá	704	Santa Lucía Utatlán 	7	Santa Rita 	10	Octubre	2023-10-29T00:00:00	2024-11-08T00:00:00	2	Temperatura media	22.6
125802	7	Sololá	704	Santa Lucía Utatlán 	7	Santa Rita 	10	Octubre	2023-10-29T00:00:00	2024-11-08T00:00:00	4	Temperatura máxima	22.7
125803	7	Sololá	704	Santa Lucía Utatlán 	7	Santa Rita 	10	Octubre	2023-10-29T00:00:00	2024-11-08T00:00:00	3	Temperatura mínima	20.6
125804	7	Sololá	704	Santa Lucía Utatlán 	7	Santa Rita 	10	Octubre	2023-10-29T00:00:00	2024-11-08T00:00:00	5	Humedad	70
125805	7	Sololá	704	Santa Lucía Utatlán 	7	Santa Rita 	10	Octubre	2023-10-29T00:00:00	2024-11-08T00:00:00	6	Velocidad del viento	6.4
125806	7	Sololá	704	Santa Lucía Utatlán 	7	Santa Rita 	10	Octubre	2023-10-29T00:00:00	2024-11-08T00:00:00	7	Dirección del viento	6.44
125807	7	Sololá	704	Santa Lucía Utatlán 	7	Santa Rita 	10	Octubre	2023-10-29T00:00:00	2024-11-08T00:00:00	1	Precipitación	0
125808	7	Sololá	704	Santa Lucía Utatlán 	7	Santa Rita 	10	Octubre	2023-10-29T00:00:00	2024-11-08T00:00:00	8	Radiación solar	0
125809	7	Sololá	704	Santa Lucía Utatlán 	7	Santa Rita 	10	Octubre	2023-10-29T00:00:00	2024-11-08T01:00:00	2	Temperatura media	23.2
125810	7	Sololá	704	Santa Lucía Utatlán 	7	Santa Rita 	10	Octubre	2023-10-29T00:00:00	2024-11-08T01:00:00	4	Temperatura máxima	23.4
125811	7	Sololá	704	Santa Lucía Utatlán 	7	Santa Rita 	10	Octubre	2023-10-29T00:00:00	2024-11-08T01:00:00	3	Temperatura mínima	22.3
125812	7	Sololá	704	Santa Lucía Utatlán 	7	Santa Rita 	10	Octubre	2023-10-29T00:00:00	2024-11-08T01:00:00	5	Humedad	66
125813	7	Sololá	704	Santa Lucía Utatlán 	7	Santa Rita 	10	Octubre	2023-10-29T00:00:00	2024-11-08T01:00:00	6	Velocidad del viento	8
125814	7	Sololá	704	Santa Lucía Utatlán 	7	Santa Rita 	10	Octubre	2023-10-29T00:00:00	2024-11-08T01:00:00	7	Dirección del viento	8.05
125815	7	Sololá	704	Santa Lucía Utatlán 	7	Santa Rita 	10	Octubre	2023-10-29T00:00:00	2024-11-08T01:00:00	1	Precipitación	0
125816	7	Sololá	704	Santa Lucía Utatlán 	7	Santa Rita 	10	Octubre	2023-10-29T00:00:00	2024-11-08T01:00:00	8	Radiación solar	0
125817	7	Sololá	704	Santa Lucía Utatlán 	7	Santa Rita 	10	Octubre	2023-10-29T00:00:00	2024-11-08T02:00:00	2	Temperatura media	23.6
125818	7	Sololá	704	Santa Lucía Utatlán 	7	Santa Rita 	10	Octubre	2023-10-29T00:00:00	2024-11-08T02:00:00	4	Temperatura máxima	24.1
125819	7	Sololá	704	Santa Lucía Utatlán 	7	Santa Rita 	10	Octubre	2023-10-29T00:00:00	2024-11-08T02:00:00	3	Temperatura mínima	23.1
125820	7	Sololá	704	Santa Lucía Utatlán 	7	Santa Rita 	10	Octubre	2023-10-29T00:00:00	2024-11-08T02:00:00	5	Humedad	65
125821	7	Sololá	704	Santa Lucía Utatlán 	7	Santa Rita 	10	Octubre	2023-10-29T00:00:00	2024-11-08T02:00:00	6	Velocidad del viento	8
125822	7	Sololá	704	Santa Lucía Utatlán 	7	Santa Rita 	10	Octubre	2023-10-29T00:00:00	2024-11-08T02:00:00	7	Dirección del viento	8.05
125823	7	Sololá	704	Santa Lucía Utatlán 	7	Santa Rita 	10	Octubre	2023-10-29T00:00:00	2024-11-08T02:00:00	1	Precipitación	0
125824	7	Sololá	704	Santa Lucía Utatlán 	7	Santa Rita 	10	Octubre	2023-10-29T00:00:00	2024-11-08T02:00:00	8	Radiación solar	0
125825	7	Sololá	704	Santa Lucía Utatlán 	7	Santa Rita 	10	Octubre	2023-10-29T00:00:00	2024-11-08T03:00:00	2	Temperatura media	23.6
125826	7	Sololá	704	Santa Lucía Utatlán 	7	Santa Rita 	10	Octubre	2023-10-29T00:00:00	2024-11-08T03:00:00	4	Temperatura máxima	24.6
125827	7	Sololá	704	Santa Lucía Utatlán 	7	Santa Rita 	10	Octubre	2023-10-29T00:00:00	2024-11-08T03:00:00	3	Temperatura mínima	23.2
125828	7	Sololá	704	Santa Lucía Utatlán 	7	Santa Rita 	10	Octubre	2023-10-29T00:00:00	2024-11-08T03:00:00	5	Humedad	61
125829	7	Sololá	704	Santa Lucía Utatlán 	7	Santa Rita 	10	Octubre	2023-10-29T00:00:00	2024-11-08T03:00:00	6	Velocidad del viento	9.7
125830	7	Sololá	704	Santa Lucía Utatlán 	7	Santa Rita 	10	Octubre	2023-10-29T00:00:00	2024-11-08T03:00:00	7	Dirección del viento	9.66
125831	7	Sololá	704	Santa Lucía Utatlán 	7	Santa Rita 	10	Octubre	2023-10-29T00:00:00	2024-11-08T03:00:00	1	Precipitación	0
125832	7	Sololá	704	Santa Lucía Utatlán 	7	Santa Rita 	10	Octubre	2023-10-29T00:00:00	2024-11-08T03:00:00	8	Radiación solar	0
125833	7	Sololá	704	Santa Lucía Utatlán 	7	Santa Rita 	10	Octubre	2023-10-29T00:00:00	2024-11-08T04:00:00	2	Temperatura media	24.1
125834	7	Sololá	704	Santa Lucía Utatlán 	7	Santa Rita 	10	Octubre	2023-10-29T00:00:00	2024-11-08T04:00:00	4	Temperatura máxima	25.1
125835	7	Sololá	704	Santa Lucía Utatlán 	7	Santa Rita 	10	Octubre	2023-10-29T00:00:00	2024-11-08T04:00:00	3	Temperatura mínima	23.4
125836	7	Sololá	704	Santa Lucía Utatlán 	7	Santa Rita 	10	Octubre	2023-10-29T00:00:00	2024-11-08T04:00:00	5	Humedad	58
125837	7	Sololá	704	Santa Lucía Utatlán 	7	Santa Rita 	10	Octubre	2023-10-29T00:00:00	2024-11-08T04:00:00	6	Velocidad del viento	8
125838	7	Sololá	704	Santa Lucía Utatlán 	7	Santa Rita 	10	Octubre	2023-10-29T00:00:00	2024-11-08T04:00:00	7	Dirección del viento	8.05
125839	7	Sololá	704	Santa Lucía Utatlán 	7	Santa Rita 	10	Octubre	2023-10-29T00:00:00	2024-11-08T04:00:00	1	Precipitación	0
125840	7	Sololá	704	Santa Lucía Utatlán 	7	Santa Rita 	10	Octubre	2023-10-29T00:00:00	2024-11-08T04:00:00	8	Radiación solar	0
125841	7	Sololá	704	Santa Lucía Utatlán 	7	Santa Rita 	10	Octubre	2023-10-29T00:00:00	2024-11-08T05:00:00	2	Temperatura media	24.6
125842	7	Sololá	704	Santa Lucía Utatlán 	7	Santa Rita 	10	Octubre	2023-10-29T00:00:00	2024-11-08T05:00:00	4	Temperatura máxima	25.5
125843	7	Sololá	704	Santa Lucía Utatlán 	7	Santa Rita 	10	Octubre	2023-10-29T00:00:00	2024-11-08T05:00:00	3	Temperatura mínima	24.1
125844	7	Sololá	704	Santa Lucía Utatlán 	7	Santa Rita 	10	Octubre	2023-10-29T00:00:00	2024-11-08T05:00:00	5	Humedad	55
125845	7	Sololá	704	Santa Lucía Utatlán 	7	Santa Rita 	10	Octubre	2023-10-29T00:00:00	2024-11-08T05:00:00	6	Velocidad del viento	8
125846	7	Sololá	704	Santa Lucía Utatlán 	7	Santa Rita 	10	Octubre	2023-10-29T00:00:00	2024-11-08T05:00:00	7	Dirección del viento	8.05
125847	7	Sololá	704	Santa Lucía Utatlán 	7	Santa Rita 	10	Octubre	2023-10-29T00:00:00	2024-11-08T05:00:00	1	Precipitación	0
125848	7	Sololá	704	Santa Lucía Utatlán 	7	Santa Rita 	10	Octubre	2023-10-29T00:00:00	2024-11-08T05:00:00	8	Radiación solar	0
125849	7	Sololá	704	Santa Lucía Utatlán 	7	Santa Rita 	10	Octubre	2023-10-29T00:00:00	2024-11-08T06:00:00	2	Temperatura media	24.4
125850	7	Sololá	704	Santa Lucía Utatlán 	7	Santa Rita 	10	Octubre	2023-10-29T00:00:00	2024-11-08T06:00:00	4	Temperatura máxima	25.4
125851	7	Sololá	704	Santa Lucía Utatlán 	7	Santa Rita 	10	Octubre	2023-10-29T00:00:00	2024-11-08T06:00:00	3	Temperatura mínima	23.8
125852	7	Sololá	704	Santa Lucía Utatlán 	7	Santa Rita 	10	Octubre	2023-10-29T00:00:00	2024-11-08T06:00:00	5	Humedad	80
125853	7	Sololá	704	Santa Lucía Utatlán 	7	Santa Rita 	10	Octubre	2023-10-29T00:00:00	2024-11-08T06:00:00	6	Velocidad del viento	6.4
125854	7	Sololá	704	Santa Lucía Utatlán 	7	Santa Rita 	10	Octubre	2023-10-29T00:00:00	2024-11-08T06:00:00	7	Dirección del viento	6.44
125855	7	Sololá	704	Santa Lucía Utatlán 	7	Santa Rita 	10	Octubre	2023-10-29T00:00:00	2024-11-08T06:00:00	1	Precipitación	0
125856	7	Sololá	704	Santa Lucía Utatlán 	7	Santa Rita 	10	Octubre	2023-10-29T00:00:00	2024-11-08T06:00:00	8	Radiación solar	2
125857	7	Sololá	704	Santa Lucía Utatlán 	7	Santa Rita 	10	Octubre	2023-10-29T00:00:00	2024-11-08T07:00:00	2	Temperatura media	22.5
125858	7	Sololá	704	Santa Lucía Utatlán 	7	Santa Rita 	10	Octubre	2023-10-29T00:00:00	2024-11-08T07:00:00	4	Temperatura máxima	24.4
125859	7	Sololá	704	Santa Lucía Utatlán 	7	Santa Rita 	10	Octubre	2023-10-29T00:00:00	2024-11-08T07:00:00	3	Temperatura mínima	22.5
125860	7	Sololá	704	Santa Lucía Utatlán 	7	Santa Rita 	10	Octubre	2023-10-29T00:00:00	2024-11-08T07:00:00	5	Humedad	83
125861	7	Sololá	704	Santa Lucía Utatlán 	7	Santa Rita 	10	Octubre	2023-10-29T00:00:00	2024-11-08T07:00:00	6	Velocidad del viento	6.4
125862	7	Sololá	704	Santa Lucía Utatlán 	7	Santa Rita 	10	Octubre	2023-10-29T00:00:00	2024-11-08T07:00:00	7	Dirección del viento	6.44
125863	7	Sololá	704	Santa Lucía Utatlán 	7	Santa Rita 	10	Octubre	2023-10-29T00:00:00	2024-11-08T07:00:00	1	Precipitación	0
125864	7	Sololá	704	Santa Lucía Utatlán 	7	Santa Rita 	10	Octubre	2023-10-29T00:00:00	2024-11-08T07:00:00	8	Radiación solar	63
125865	7	Sololá	704	Santa Lucía Utatlán 	7	Santa Rita 	10	Octubre	2023-10-29T00:00:00	2024-11-08T08:00:00	2	Temperatura media	21.4
125866	7	Sololá	704	Santa Lucía Utatlán 	7	Santa Rita 	10	Octubre	2023-10-29T00:00:00	2024-11-08T08:00:00	4	Temperatura máxima	22.5
125867	7	Sololá	704	Santa Lucía Utatlán 	7	Santa Rita 	10	Octubre	2023-10-29T00:00:00	2024-11-08T08:00:00	3	Temperatura mínima	21.4
125868	7	Sololá	704	Santa Lucía Utatlán 	7	Santa Rita 	10	Octubre	2023-10-29T00:00:00	2024-11-08T08:00:00	5	Humedad	88
125869	7	Sololá	704	Santa Lucía Utatlán 	7	Santa Rita 	10	Octubre	2023-10-29T00:00:00	2024-11-08T08:00:00	6	Velocidad del viento	6.4
125870	7	Sololá	704	Santa Lucía Utatlán 	7	Santa Rita 	10	Octubre	2023-10-29T00:00:00	2024-11-08T08:00:00	7	Dirección del viento	6.44
125871	7	Sololá	704	Santa Lucía Utatlán 	7	Santa Rita 	10	Octubre	2023-10-29T00:00:00	2024-11-08T08:00:00	1	Precipitación	0
125872	7	Sololá	704	Santa Lucía Utatlán 	7	Santa Rita 	10	Octubre	2023-10-29T00:00:00	2024-11-08T08:00:00	8	Radiación solar	179
125873	7	Sololá	704	Santa Lucía Utatlán 	7	Santa Rita 	10	Octubre	2023-10-29T00:00:00	2024-11-08T09:00:00	2	Temperatura media	21.9
125874	7	Sololá	704	Santa Lucía Utatlán 	7	Santa Rita 	10	Octubre	2023-10-29T00:00:00	2024-11-08T09:00:00	4	Temperatura máxima	22.2
125875	7	Sololá	704	Santa Lucía Utatlán 	7	Santa Rita 	10	Octubre	2023-10-29T00:00:00	2024-11-08T09:00:00	3	Temperatura mínima	21.4
125876	7	Sololá	704	Santa Lucía Utatlán 	7	Santa Rita 	10	Octubre	2023-10-29T00:00:00	2024-11-08T09:00:00	5	Humedad	86
125877	7	Sololá	704	Santa Lucía Utatlán 	7	Santa Rita 	10	Octubre	2023-10-29T00:00:00	2024-11-08T09:00:00	6	Velocidad del viento	3.2
125878	7	Sololá	704	Santa Lucía Utatlán 	7	Santa Rita 	10	Octubre	2023-10-29T00:00:00	2024-11-08T09:00:00	7	Dirección del viento	3.22
125879	7	Sololá	704	Santa Lucía Utatlán 	7	Santa Rita 	10	Octubre	2023-10-29T00:00:00	2024-11-08T09:00:00	1	Precipitación	0
125880	7	Sololá	704	Santa Lucía Utatlán 	7	Santa Rita 	10	Octubre	2023-10-29T00:00:00	2024-11-08T09:00:00	8	Radiación solar	463
125881	7	Sololá	704	Santa Lucía Utatlán 	7	Santa Rita 	10	Octubre	2023-10-29T00:00:00	2024-11-08T10:00:00	2	Temperatura media	21.1
125882	7	Sololá	704	Santa Lucía Utatlán 	7	Santa Rita 	10	Octubre	2023-10-29T00:00:00	2024-11-08T10:00:00	4	Temperatura máxima	22
125883	7	Sololá	704	Santa Lucía Utatlán 	7	Santa Rita 	10	Octubre	2023-10-29T00:00:00	2024-11-08T10:00:00	3	Temperatura mínima	20.8
125884	7	Sololá	704	Santa Lucía Utatlán 	7	Santa Rita 	10	Octubre	2023-10-29T00:00:00	2024-11-08T10:00:00	5	Humedad	87
125885	7	Sololá	704	Santa Lucía Utatlán 	7	Santa Rita 	10	Octubre	2023-10-29T00:00:00	2024-11-08T10:00:00	6	Velocidad del viento	4.8
125886	7	Sololá	704	Santa Lucía Utatlán 	7	Santa Rita 	10	Octubre	2023-10-29T00:00:00	2024-11-08T10:00:00	7	Dirección del viento	4.83
125887	7	Sololá	704	Santa Lucía Utatlán 	7	Santa Rita 	10	Octubre	2023-10-29T00:00:00	2024-11-08T10:00:00	1	Precipitación	0
125888	7	Sololá	704	Santa Lucía Utatlán 	7	Santa Rita 	10	Octubre	2023-10-29T00:00:00	2024-11-08T10:00:00	8	Radiación solar	789
125889	7	Sololá	704	Santa Lucía Utatlán 	7	Santa Rita 	10	Octubre	2023-10-29T00:00:00	2024-11-08T11:00:00	2	Temperatura media	21.1
125890	7	Sololá	704	Santa Lucía Utatlán 	7	Santa Rita 	10	Octubre	2023-10-29T00:00:00	2024-11-08T11:00:00	4	Temperatura máxima	21.3
125891	7	Sololá	704	Santa Lucía Utatlán 	7	Santa Rita 	10	Octubre	2023-10-29T00:00:00	2024-11-08T11:00:00	3	Temperatura mínima	21.1
125892	7	Sololá	704	Santa Lucía Utatlán 	7	Santa Rita 	10	Octubre	2023-10-29T00:00:00	2024-11-08T11:00:00	5	Humedad	88
125893	7	Sololá	704	Santa Lucía Utatlán 	7	Santa Rita 	10	Octubre	2023-10-29T00:00:00	2024-11-08T11:00:00	6	Velocidad del viento	1.6
125894	7	Sololá	704	Santa Lucía Utatlán 	7	Santa Rita 	10	Octubre	2023-10-29T00:00:00	2024-11-08T11:00:00	7	Dirección del viento	1.61
125895	7	Sololá	704	Santa Lucía Utatlán 	7	Santa Rita 	10	Octubre	2023-10-29T00:00:00	2024-11-08T11:00:00	1	Precipitación	0
125896	7	Sololá	704	Santa Lucía Utatlán 	7	Santa Rita 	10	Octubre	2023-10-29T00:00:00	2024-11-08T11:00:00	8	Radiación solar	730
125897	7	Sololá	704	Santa Lucía Utatlán 	7	Santa Rita 	10	Octubre	2023-10-29T00:00:00	2024-11-08T12:00:00	2	Temperatura media	20.6
125898	7	Sololá	704	Santa Lucía Utatlán 	7	Santa Rita 	10	Octubre	2023-10-29T00:00:00	2024-11-08T12:00:00	4	Temperatura máxima	21.1
125899	7	Sololá	704	Santa Lucía Utatlán 	7	Santa Rita 	10	Octubre	2023-10-29T00:00:00	2024-11-08T12:00:00	3	Temperatura mínima	20.6
125900	7	Sololá	704	Santa Lucía Utatlán 	7	Santa Rita 	10	Octubre	2023-10-29T00:00:00	2024-11-08T12:00:00	5	Humedad	89
125901	7	Sololá	704	Santa Lucía Utatlán 	7	Santa Rita 	10	Octubre	2023-10-29T00:00:00	2024-11-08T12:00:00	6	Velocidad del viento	1.6
125902	7	Sololá	704	Santa Lucía Utatlán 	7	Santa Rita 	10	Octubre	2023-10-29T00:00:00	2024-11-08T12:00:00	7	Dirección del viento	1.61
125903	7	Sololá	704	Santa Lucía Utatlán 	7	Santa Rita 	10	Octubre	2023-10-29T00:00:00	2024-11-08T12:00:00	1	Precipitación	0
125904	7	Sololá	704	Santa Lucía Utatlán 	7	Santa Rita 	10	Octubre	2023-10-29T00:00:00	2024-11-08T12:00:00	8	Radiación solar	181
125905	7	Sololá	704	Santa Lucía Utatlán 	7	Santa Rita 	10	Octubre	2023-10-29T00:00:00	2024-11-08T13:00:00	2	Temperatura media	20.2
125906	7	Sololá	704	Santa Lucía Utatlán 	7	Santa Rita 	10	Octubre	2023-10-29T00:00:00	2024-11-08T13:00:00	4	Temperatura máxima	20.7
125907	7	Sololá	704	Santa Lucía Utatlán 	7	Santa Rita 	10	Octubre	2023-10-29T00:00:00	2024-11-08T13:00:00	3	Temperatura mínima	20.2
125908	7	Sololá	704	Santa Lucía Utatlán 	7	Santa Rita 	10	Octubre	2023-10-29T00:00:00	2024-11-08T13:00:00	5	Humedad	93
125909	7	Sololá	704	Santa Lucía Utatlán 	7	Santa Rita 	10	Octubre	2023-10-29T00:00:00	2024-11-08T13:00:00	6	Velocidad del viento	1.6
125910	7	Sololá	704	Santa Lucía Utatlán 	7	Santa Rita 	10	Octubre	2023-10-29T00:00:00	2024-11-08T13:00:00	7	Dirección del viento	1.61
125911	7	Sololá	704	Santa Lucía Utatlán 	7	Santa Rita 	10	Octubre	2023-10-29T00:00:00	2024-11-08T13:00:00	1	Precipitación	0
125912	7	Sololá	704	Santa Lucía Utatlán 	7	Santa Rita 	10	Octubre	2023-10-29T00:00:00	2024-11-08T13:00:00	8	Radiación solar	186
125913	7	Sololá	704	Santa Lucía Utatlán 	7	Santa Rita 	10	Octubre	2023-10-29T00:00:00	2024-11-08T14:00:00	2	Temperatura media	19.7
125914	7	Sololá	704	Santa Lucía Utatlán 	7	Santa Rita 	10	Octubre	2023-10-29T00:00:00	2024-11-08T14:00:00	4	Temperatura máxima	20.3
125915	7	Sololá	704	Santa Lucía Utatlán 	7	Santa Rita 	10	Octubre	2023-10-29T00:00:00	2024-11-08T14:00:00	3	Temperatura mínima	19.7
125916	7	Sololá	704	Santa Lucía Utatlán 	7	Santa Rita 	10	Octubre	2023-10-29T00:00:00	2024-11-08T14:00:00	5	Humedad	95
125917	7	Sololá	704	Santa Lucía Utatlán 	7	Santa Rita 	10	Octubre	2023-10-29T00:00:00	2024-11-08T14:00:00	6	Velocidad del viento	0
125918	7	Sololá	704	Santa Lucía Utatlán 	7	Santa Rita 	10	Octubre	2023-10-29T00:00:00	2024-11-08T14:00:00	7	Dirección del viento	0
125919	7	Sololá	704	Santa Lucía Utatlán 	7	Santa Rita 	10	Octubre	2023-10-29T00:00:00	2024-11-08T14:00:00	1	Precipitación	0
125920	7	Sololá	704	Santa Lucía Utatlán 	7	Santa Rita 	10	Octubre	2023-10-29T00:00:00	2024-11-08T14:00:00	8	Radiación solar	160
125921	7	Sololá	704	Santa Lucía Utatlán 	7	Santa Rita 	10	Octubre	2023-10-29T00:00:00	2024-11-08T15:00:00	2	Temperatura media	19.9
125922	7	Sololá	704	Santa Lucía Utatlán 	7	Santa Rita 	10	Octubre	2023-10-29T00:00:00	2024-11-08T15:00:00	4	Temperatura máxima	19.9
125923	7	Sololá	704	Santa Lucía Utatlán 	7	Santa Rita 	10	Octubre	2023-10-29T00:00:00	2024-11-08T15:00:00	3	Temperatura mínima	19.2
125924	7	Sololá	704	Santa Lucía Utatlán 	7	Santa Rita 	10	Octubre	2023-10-29T00:00:00	2024-11-08T15:00:00	5	Humedad	67
125925	7	Sololá	704	Santa Lucía Utatlán 	7	Santa Rita 	10	Octubre	2023-10-29T00:00:00	2024-11-08T15:00:00	6	Velocidad del viento	9.7
125926	7	Sololá	704	Santa Lucía Utatlán 	7	Santa Rita 	10	Octubre	2023-10-29T00:00:00	2024-11-08T15:00:00	7	Dirección del viento	9.66
125927	7	Sololá	704	Santa Lucía Utatlán 	7	Santa Rita 	10	Octubre	2023-10-29T00:00:00	2024-11-08T15:00:00	1	Precipitación	0
125928	7	Sololá	704	Santa Lucía Utatlán 	7	Santa Rita 	10	Octubre	2023-10-29T00:00:00	2024-11-08T15:00:00	8	Radiación solar	63
125929	7	Sololá	704	Santa Lucía Utatlán 	7	Santa Rita 	10	Octubre	2023-10-29T00:00:00	2024-11-08T16:00:00	2	Temperatura media	20.3
125930	7	Sololá	704	Santa Lucía Utatlán 	7	Santa Rita 	10	Octubre	2023-10-29T00:00:00	2024-11-08T16:00:00	4	Temperatura máxima	20.6
125931	7	Sololá	704	Santa Lucía Utatlán 	7	Santa Rita 	10	Octubre	2023-10-29T00:00:00	2024-11-08T16:00:00	3	Temperatura mínima	19.9
125932	7	Sololá	704	Santa Lucía Utatlán 	7	Santa Rita 	10	Octubre	2023-10-29T00:00:00	2024-11-08T16:00:00	5	Humedad	65
125933	7	Sololá	704	Santa Lucía Utatlán 	7	Santa Rita 	10	Octubre	2023-10-29T00:00:00	2024-11-08T16:00:00	6	Velocidad del viento	11.3
125934	7	Sololá	704	Santa Lucía Utatlán 	7	Santa Rita 	10	Octubre	2023-10-29T00:00:00	2024-11-08T16:00:00	7	Dirección del viento	11.27
125935	7	Sololá	704	Santa Lucía Utatlán 	7	Santa Rita 	10	Octubre	2023-10-29T00:00:00	2024-11-08T16:00:00	1	Precipitación	0
125936	7	Sololá	704	Santa Lucía Utatlán 	7	Santa Rita 	10	Octubre	2023-10-29T00:00:00	2024-11-08T16:00:00	8	Radiación solar	182
125937	7	Sololá	704	Santa Lucía Utatlán 	7	Santa Rita 	10	Octubre	2023-10-29T00:00:00	2024-11-08T17:00:00	2	Temperatura media	20.3
125938	7	Sololá	704	Santa Lucía Utatlán 	7	Santa Rita 	10	Octubre	2023-10-29T00:00:00	2024-11-08T17:00:00	4	Temperatura máxima	20.5
125939	7	Sololá	704	Santa Lucía Utatlán 	7	Santa Rita 	10	Octubre	2023-10-29T00:00:00	2024-11-08T17:00:00	3	Temperatura mínima	20.1
125940	7	Sololá	704	Santa Lucía Utatlán 	7	Santa Rita 	10	Octubre	2023-10-29T00:00:00	2024-11-08T17:00:00	5	Humedad	68
125941	7	Sololá	704	Santa Lucía Utatlán 	7	Santa Rita 	10	Octubre	2023-10-29T00:00:00	2024-11-08T17:00:00	6	Velocidad del viento	11.3
125942	7	Sololá	704	Santa Lucía Utatlán 	7	Santa Rita 	10	Octubre	2023-10-29T00:00:00	2024-11-08T17:00:00	7	Dirección del viento	11.27
125943	7	Sololá	704	Santa Lucía Utatlán 	7	Santa Rita 	10	Octubre	2023-10-29T00:00:00	2024-11-08T17:00:00	1	Precipitación	0
125944	7	Sololá	704	Santa Lucía Utatlán 	7	Santa Rita 	10	Octubre	2023-10-29T00:00:00	2024-11-08T17:00:00	8	Radiación solar	169
125945	7	Sololá	704	Santa Lucía Utatlán 	7	Santa Rita 	10	Octubre	2023-10-29T00:00:00	2024-11-08T18:00:00	2	Temperatura media	20.9
125946	7	Sololá	704	Santa Lucía Utatlán 	7	Santa Rita 	10	Octubre	2023-10-29T00:00:00	2024-11-08T18:00:00	4	Temperatura máxima	21
125947	7	Sololá	704	Santa Lucía Utatlán 	7	Santa Rita 	10	Octubre	2023-10-29T00:00:00	2024-11-08T18:00:00	3	Temperatura mínima	20.3
125948	7	Sololá	704	Santa Lucía Utatlán 	7	Santa Rita 	10	Octubre	2023-10-29T00:00:00	2024-11-08T18:00:00	5	Humedad	68
125949	7	Sololá	704	Santa Lucía Utatlán 	7	Santa Rita 	10	Octubre	2023-10-29T00:00:00	2024-11-08T18:00:00	6	Velocidad del viento	9.7
125950	7	Sololá	704	Santa Lucía Utatlán 	7	Santa Rita 	10	Octubre	2023-10-29T00:00:00	2024-11-08T18:00:00	7	Dirección del viento	9.66
125951	7	Sololá	704	Santa Lucía Utatlán 	7	Santa Rita 	10	Octubre	2023-10-29T00:00:00	2024-11-08T18:00:00	1	Precipitación	0
125952	7	Sololá	704	Santa Lucía Utatlán 	7	Santa Rita 	10	Octubre	2023-10-29T00:00:00	2024-11-08T18:00:00	8	Radiación solar	202
125953	7	Sololá	704	Santa Lucía Utatlán 	7	Santa Rita 	10	Octubre	2023-10-29T00:00:00	2024-11-08T19:00:00	2	Temperatura media	20.7
125954	7	Sololá	704	Santa Lucía Utatlán 	7	Santa Rita 	10	Octubre	2023-10-29T00:00:00	2024-11-08T19:00:00	4	Temperatura máxima	21.3
125955	7	Sololá	704	Santa Lucía Utatlán 	7	Santa Rita 	10	Octubre	2023-10-29T00:00:00	2024-11-08T19:00:00	3	Temperatura mínima	20.6
125956	7	Sololá	704	Santa Lucía Utatlán 	7	Santa Rita 	10	Octubre	2023-10-29T00:00:00	2024-11-08T19:00:00	5	Humedad	70
125957	7	Sololá	704	Santa Lucía Utatlán 	7	Santa Rita 	10	Octubre	2023-10-29T00:00:00	2024-11-08T19:00:00	6	Velocidad del viento	11.3
125958	7	Sololá	704	Santa Lucía Utatlán 	7	Santa Rita 	10	Octubre	2023-10-29T00:00:00	2024-11-08T19:00:00	7	Dirección del viento	11.27
125959	7	Sololá	704	Santa Lucía Utatlán 	7	Santa Rita 	10	Octubre	2023-10-29T00:00:00	2024-11-08T19:00:00	1	Precipitación	0
125960	7	Sololá	704	Santa Lucía Utatlán 	7	Santa Rita 	10	Octubre	2023-10-29T00:00:00	2024-11-08T19:00:00	8	Radiación solar	0
125961	7	Sololá	704	Santa Lucía Utatlán 	7	Santa Rita 	10	Octubre	2023-10-29T00:00:00	2024-11-08T20:00:00	2	Temperatura media	18.8
125962	7	Sololá	704	Santa Lucía Utatlán 	7	Santa Rita 	10	Octubre	2023-10-29T00:00:00	2024-11-08T20:00:00	4	Temperatura máxima	19.3
125963	7	Sololá	704	Santa Lucía Utatlán 	7	Santa Rita 	10	Octubre	2023-10-29T00:00:00	2024-11-08T20:00:00	3	Temperatura mínima	18.8
125964	7	Sololá	704	Santa Lucía Utatlán 	7	Santa Rita 	10	Octubre	2023-10-29T00:00:00	2024-11-08T20:00:00	5	Humedad	94
125965	7	Sololá	704	Santa Lucía Utatlán 	7	Santa Rita 	10	Octubre	2023-10-29T00:00:00	2024-11-08T20:00:00	6	Velocidad del viento	3.2
125966	7	Sololá	704	Santa Lucía Utatlán 	7	Santa Rita 	10	Octubre	2023-10-29T00:00:00	2024-11-08T20:00:00	7	Dirección del viento	3.22
125967	7	Sololá	704	Santa Lucía Utatlán 	7	Santa Rita 	10	Octubre	2023-10-29T00:00:00	2024-11-08T20:00:00	1	Precipitación	0.4
125968	7	Sololá	704	Santa Lucía Utatlán 	7	Santa Rita 	10	Octubre	2023-10-29T00:00:00	2024-11-08T20:00:00	8	Radiación solar	0
125969	7	Sololá	704	Santa Lucía Utatlán 	7	Santa Rita 	10	Octubre	2023-10-29T00:00:00	2024-11-08T21:00:00	2	Temperatura media	18.6
125970	7	Sololá	704	Santa Lucía Utatlán 	7	Santa Rita 	10	Octubre	2023-10-29T00:00:00	2024-11-08T21:00:00	4	Temperatura máxima	18.8
125971	7	Sololá	704	Santa Lucía Utatlán 	7	Santa Rita 	10	Octubre	2023-10-29T00:00:00	2024-11-08T21:00:00	3	Temperatura mínima	18.6
125972	7	Sololá	704	Santa Lucía Utatlán 	7	Santa Rita 	10	Octubre	2023-10-29T00:00:00	2024-11-08T21:00:00	5	Humedad	95
125973	7	Sololá	704	Santa Lucía Utatlán 	7	Santa Rita 	10	Octubre	2023-10-29T00:00:00	2024-11-08T21:00:00	6	Velocidad del viento	3.2
125974	7	Sololá	704	Santa Lucía Utatlán 	7	Santa Rita 	10	Octubre	2023-10-29T00:00:00	2024-11-08T21:00:00	7	Dirección del viento	3.22
125975	7	Sololá	704	Santa Lucía Utatlán 	7	Santa Rita 	10	Octubre	2023-10-29T00:00:00	2024-11-08T21:00:00	1	Precipitación	0.4
125976	7	Sololá	704	Santa Lucía Utatlán 	7	Santa Rita 	10	Octubre	2023-10-29T00:00:00	2024-11-08T21:00:00	8	Radiación solar	0
125977	7	Sololá	704	Santa Lucía Utatlán 	7	Santa Rita 	10	Octubre	2023-10-29T00:00:00	2024-11-08T22:00:00	2	Temperatura media	18.6
125978	7	Sololá	704	Santa Lucía Utatlán 	7	Santa Rita 	10	Octubre	2023-10-29T00:00:00	2024-11-08T22:00:00	4	Temperatura máxima	18.6
125979	7	Sololá	704	Santa Lucía Utatlán 	7	Santa Rita 	10	Octubre	2023-10-29T00:00:00	2024-11-08T22:00:00	3	Temperatura mínima	18.4
125980	7	Sololá	704	Santa Lucía Utatlán 	7	Santa Rita 	10	Octubre	2023-10-29T00:00:00	2024-11-08T22:00:00	5	Humedad	95
125981	7	Sololá	704	Santa Lucía Utatlán 	7	Santa Rita 	10	Octubre	2023-10-29T00:00:00	2024-11-08T22:00:00	6	Velocidad del viento	1.6
125982	7	Sololá	704	Santa Lucía Utatlán 	7	Santa Rita 	10	Octubre	2023-10-29T00:00:00	2024-11-08T22:00:00	7	Dirección del viento	1.61
125983	7	Sololá	704	Santa Lucía Utatlán 	7	Santa Rita 	10	Octubre	2023-10-29T00:00:00	2024-11-08T22:00:00	1	Precipitación	0.8
125984	7	Sololá	704	Santa Lucía Utatlán 	7	Santa Rita 	10	Octubre	2023-10-29T00:00:00	2024-11-08T22:00:00	8	Radiación solar	0
125985	7	Sololá	704	Santa Lucía Utatlán 	7	Santa Rita 	10	Octubre	2023-10-29T00:00:00	2024-11-08T23:00:00	2	Temperatura media	18.5
125986	7	Sololá	704	Santa Lucía Utatlán 	7	Santa Rita 	10	Octubre	2023-10-29T00:00:00	2024-11-08T23:00:00	4	Temperatura máxima	18.7
125987	7	Sololá	704	Santa Lucía Utatlán 	7	Santa Rita 	10	Octubre	2023-10-29T00:00:00	2024-11-08T23:00:00	3	Temperatura mínima	18.4
125988	7	Sololá	704	Santa Lucía Utatlán 	7	Santa Rita 	10	Octubre	2023-10-29T00:00:00	2024-11-08T23:00:00	5	Humedad	95
125989	7	Sololá	704	Santa Lucía Utatlán 	7	Santa Rita 	10	Octubre	2023-10-29T00:00:00	2024-11-08T23:00:00	6	Velocidad del viento	3.2
125990	7	Sololá	704	Santa Lucía Utatlán 	7	Santa Rita 	10	Octubre	2023-10-29T00:00:00	2024-11-08T23:00:00	7	Dirección del viento	3.22
125991	7	Sololá	704	Santa Lucía Utatlán 	7	Santa Rita 	10	Octubre	2023-10-29T00:00:00	2024-11-08T23:00:00	1	Precipitación	0.4
125992	7	Sololá	704	Santa Lucía Utatlán 	7	Santa Rita 	10	Octubre	2023-10-29T00:00:00	2024-11-08T23:00:00	8	Radiación solar	0
125993	7	Sololá	704	Santa Lucía Utatlán 	7	Santa Rita 	10	Octubre	2023-10-30T00:00:00	2024-11-08T00:00:00	2	Temperatura media	18.3
125994	7	Sololá	704	Santa Lucía Utatlán 	7	Santa Rita 	10	Octubre	2023-10-30T00:00:00	2024-11-08T00:00:00	4	Temperatura máxima	18.8
125995	7	Sololá	704	Santa Lucía Utatlán 	7	Santa Rita 	10	Octubre	2023-10-30T00:00:00	2024-11-08T00:00:00	3	Temperatura mínima	18.3
125996	7	Sololá	704	Santa Lucía Utatlán 	7	Santa Rita 	10	Octubre	2023-10-30T00:00:00	2024-11-08T00:00:00	5	Humedad	92
125997	7	Sololá	704	Santa Lucía Utatlán 	7	Santa Rita 	10	Octubre	2023-10-30T00:00:00	2024-11-08T00:00:00	6	Velocidad del viento	4.8
125998	7	Sololá	704	Santa Lucía Utatlán 	7	Santa Rita 	10	Octubre	2023-10-30T00:00:00	2024-11-08T00:00:00	7	Dirección del viento	4.83
125999	7	Sololá	704	Santa Lucía Utatlán 	7	Santa Rita 	10	Octubre	2023-10-30T00:00:00	2024-11-08T00:00:00	1	Precipitación	0
126000	7	Sololá	704	Santa Lucía Utatlán 	7	Santa Rita 	10	Octubre	2023-10-30T00:00:00	2024-11-08T00:00:00	8	Radiación solar	0
126001	7	Sololá	704	Santa Lucía Utatlán 	7	Santa Rita 	10	Octubre	2023-10-30T00:00:00	2024-11-08T01:00:00	2	Temperatura media	18.6
126002	7	Sololá	704	Santa Lucía Utatlán 	7	Santa Rita 	10	Octubre	2023-10-30T00:00:00	2024-11-08T01:00:00	4	Temperatura máxima	18.7
126003	7	Sololá	704	Santa Lucía Utatlán 	7	Santa Rita 	10	Octubre	2023-10-30T00:00:00	2024-11-08T01:00:00	3	Temperatura mínima	18.2
126004	7	Sololá	704	Santa Lucía Utatlán 	7	Santa Rita 	10	Octubre	2023-10-30T00:00:00	2024-11-08T01:00:00	5	Humedad	92
126005	7	Sololá	704	Santa Lucía Utatlán 	7	Santa Rita 	10	Octubre	2023-10-30T00:00:00	2024-11-08T01:00:00	6	Velocidad del viento	3.2
126006	7	Sololá	704	Santa Lucía Utatlán 	7	Santa Rita 	10	Octubre	2023-10-30T00:00:00	2024-11-08T01:00:00	7	Dirección del viento	3.22
126007	7	Sololá	704	Santa Lucía Utatlán 	7	Santa Rita 	10	Octubre	2023-10-30T00:00:00	2024-11-08T01:00:00	1	Precipitación	0
126008	7	Sololá	704	Santa Lucía Utatlán 	7	Santa Rita 	10	Octubre	2023-10-30T00:00:00	2024-11-08T01:00:00	8	Radiación solar	0
126009	7	Sololá	704	Santa Lucía Utatlán 	7	Santa Rita 	10	Octubre	2023-10-30T00:00:00	2024-11-08T02:00:00	2	Temperatura media	18.7
126010	7	Sololá	704	Santa Lucía Utatlán 	7	Santa Rita 	10	Octubre	2023-10-30T00:00:00	2024-11-08T02:00:00	4	Temperatura máxima	19
126011	7	Sololá	704	Santa Lucía Utatlán 	7	Santa Rita 	10	Octubre	2023-10-30T00:00:00	2024-11-08T02:00:00	3	Temperatura mínima	18.5
126012	7	Sololá	704	Santa Lucía Utatlán 	7	Santa Rita 	10	Octubre	2023-10-30T00:00:00	2024-11-08T02:00:00	5	Humedad	79
126013	7	Sololá	704	Santa Lucía Utatlán 	7	Santa Rita 	10	Octubre	2023-10-30T00:00:00	2024-11-08T02:00:00	6	Velocidad del viento	8
126014	7	Sololá	704	Santa Lucía Utatlán 	7	Santa Rita 	10	Octubre	2023-10-30T00:00:00	2024-11-08T02:00:00	7	Dirección del viento	8.05
126015	7	Sololá	704	Santa Lucía Utatlán 	7	Santa Rita 	10	Octubre	2023-10-30T00:00:00	2024-11-08T02:00:00	1	Precipitación	0.2
126016	7	Sololá	704	Santa Lucía Utatlán 	7	Santa Rita 	10	Octubre	2023-10-30T00:00:00	2024-11-08T02:00:00	8	Radiación solar	0
126017	7	Sololá	704	Santa Lucía Utatlán 	7	Santa Rita 	10	Octubre	2023-10-30T00:00:00	2024-11-08T03:00:00	2	Temperatura media	18.4
126018	7	Sololá	704	Santa Lucía Utatlán 	7	Santa Rita 	10	Octubre	2023-10-30T00:00:00	2024-11-08T03:00:00	4	Temperatura máxima	19
126019	7	Sololá	704	Santa Lucía Utatlán 	7	Santa Rita 	10	Octubre	2023-10-30T00:00:00	2024-11-08T03:00:00	3	Temperatura mínima	18.3
126020	7	Sololá	704	Santa Lucía Utatlán 	7	Santa Rita 	10	Octubre	2023-10-30T00:00:00	2024-11-08T03:00:00	5	Humedad	78
126021	7	Sololá	704	Santa Lucía Utatlán 	7	Santa Rita 	10	Octubre	2023-10-30T00:00:00	2024-11-08T03:00:00	6	Velocidad del viento	12.9
126022	7	Sololá	704	Santa Lucía Utatlán 	7	Santa Rita 	10	Octubre	2023-10-30T00:00:00	2024-11-08T03:00:00	7	Dirección del viento	12.87
126023	7	Sololá	704	Santa Lucía Utatlán 	7	Santa Rita 	10	Octubre	2023-10-30T00:00:00	2024-11-08T03:00:00	1	Precipitación	0
126024	7	Sololá	704	Santa Lucía Utatlán 	7	Santa Rita 	10	Octubre	2023-10-30T00:00:00	2024-11-08T03:00:00	8	Radiación solar	0
126025	7	Sololá	704	Santa Lucía Utatlán 	7	Santa Rita 	10	Octubre	2023-10-30T00:00:00	2024-11-08T04:00:00	2	Temperatura media	17.8
126026	7	Sololá	704	Santa Lucía Utatlán 	7	Santa Rita 	10	Octubre	2023-10-30T00:00:00	2024-11-08T04:00:00	4	Temperatura máxima	18.4
126027	7	Sololá	704	Santa Lucía Utatlán 	7	Santa Rita 	10	Octubre	2023-10-30T00:00:00	2024-11-08T04:00:00	3	Temperatura mínima	17.7
126028	7	Sololá	704	Santa Lucía Utatlán 	7	Santa Rita 	10	Octubre	2023-10-30T00:00:00	2024-11-08T04:00:00	5	Humedad	80
126029	7	Sololá	704	Santa Lucía Utatlán 	7	Santa Rita 	10	Octubre	2023-10-30T00:00:00	2024-11-08T04:00:00	6	Velocidad del viento	12.9
126030	7	Sololá	704	Santa Lucía Utatlán 	7	Santa Rita 	10	Octubre	2023-10-30T00:00:00	2024-11-08T04:00:00	7	Dirección del viento	12.87
126031	7	Sololá	704	Santa Lucía Utatlán 	7	Santa Rita 	10	Octubre	2023-10-30T00:00:00	2024-11-08T04:00:00	1	Precipitación	0.4
126032	7	Sololá	704	Santa Lucía Utatlán 	7	Santa Rita 	10	Octubre	2023-10-30T00:00:00	2024-11-08T04:00:00	8	Radiación solar	0
126033	7	Sololá	704	Santa Lucía Utatlán 	7	Santa Rita 	10	Octubre	2023-10-30T00:00:00	2024-11-08T05:00:00	2	Temperatura media	18.1
126034	7	Sololá	704	Santa Lucía Utatlán 	7	Santa Rita 	10	Octubre	2023-10-30T00:00:00	2024-11-08T05:00:00	4	Temperatura máxima	18.3
126035	7	Sololá	704	Santa Lucía Utatlán 	7	Santa Rita 	10	Octubre	2023-10-30T00:00:00	2024-11-08T05:00:00	3	Temperatura mínima	17.8
126036	7	Sololá	704	Santa Lucía Utatlán 	7	Santa Rita 	10	Octubre	2023-10-30T00:00:00	2024-11-08T05:00:00	5	Humedad	80
126037	7	Sololá	704	Santa Lucía Utatlán 	7	Santa Rita 	10	Octubre	2023-10-30T00:00:00	2024-11-08T05:00:00	6	Velocidad del viento	9.7
126038	7	Sololá	704	Santa Lucía Utatlán 	7	Santa Rita 	10	Octubre	2023-10-30T00:00:00	2024-11-08T05:00:00	7	Dirección del viento	9.66
126039	7	Sololá	704	Santa Lucía Utatlán 	7	Santa Rita 	10	Octubre	2023-10-30T00:00:00	2024-11-08T05:00:00	1	Precipitación	0
126040	7	Sololá	704	Santa Lucía Utatlán 	7	Santa Rita 	10	Octubre	2023-10-30T00:00:00	2024-11-08T05:00:00	8	Radiación solar	0
126041	7	Sololá	704	Santa Lucía Utatlán 	7	Santa Rita 	10	Octubre	2023-10-30T00:00:00	2024-11-08T06:00:00	2	Temperatura media	18.4
126042	7	Sololá	704	Santa Lucía Utatlán 	7	Santa Rita 	10	Octubre	2023-10-30T00:00:00	2024-11-08T06:00:00	4	Temperatura máxima	18.6
126043	7	Sololá	704	Santa Lucía Utatlán 	7	Santa Rita 	10	Octubre	2023-10-30T00:00:00	2024-11-08T06:00:00	3	Temperatura mínima	18
126044	7	Sololá	704	Santa Lucía Utatlán 	7	Santa Rita 	10	Octubre	2023-10-30T00:00:00	2024-11-08T06:00:00	5	Humedad	80
126045	7	Sololá	704	Santa Lucía Utatlán 	7	Santa Rita 	10	Octubre	2023-10-30T00:00:00	2024-11-08T06:00:00	6	Velocidad del viento	4.8
126046	7	Sololá	704	Santa Lucía Utatlán 	7	Santa Rita 	10	Octubre	2023-10-30T00:00:00	2024-11-08T06:00:00	7	Dirección del viento	4.83
126047	7	Sololá	704	Santa Lucía Utatlán 	7	Santa Rita 	10	Octubre	2023-10-30T00:00:00	2024-11-08T06:00:00	1	Precipitación	0
126048	7	Sololá	704	Santa Lucía Utatlán 	7	Santa Rita 	10	Octubre	2023-10-30T00:00:00	2024-11-08T06:00:00	8	Radiación solar	0
126049	7	Sololá	704	Santa Lucía Utatlán 	7	Santa Rita 	10	Octubre	2023-10-30T00:00:00	2024-11-08T07:00:00	2	Temperatura media	24.4
126050	7	Sololá	704	Santa Lucía Utatlán 	7	Santa Rita 	10	Octubre	2023-10-30T00:00:00	2024-11-08T07:00:00	4	Temperatura máxima	24.8
126051	7	Sololá	704	Santa Lucía Utatlán 	7	Santa Rita 	10	Octubre	2023-10-30T00:00:00	2024-11-08T07:00:00	3	Temperatura mínima	23.6
126052	7	Sololá	704	Santa Lucía Utatlán 	7	Santa Rita 	10	Octubre	2023-10-30T00:00:00	2024-11-08T07:00:00	5	Humedad	79
126053	7	Sololá	704	Santa Lucía Utatlán 	7	Santa Rita 	10	Octubre	2023-10-30T00:00:00	2024-11-08T07:00:00	6	Velocidad del viento	6.4
126054	7	Sololá	704	Santa Lucía Utatlán 	7	Santa Rita 	10	Octubre	2023-10-30T00:00:00	2024-11-08T07:00:00	7	Dirección del viento	6.44
126055	7	Sololá	704	Santa Lucía Utatlán 	7	Santa Rita 	10	Octubre	2023-10-30T00:00:00	2024-11-08T07:00:00	1	Precipitación	0
126056	7	Sololá	704	Santa Lucía Utatlán 	7	Santa Rita 	10	Octubre	2023-10-30T00:00:00	2024-11-08T07:00:00	8	Radiación solar	39
126057	7	Sololá	704	Santa Lucía Utatlán 	7	Santa Rita 	10	Octubre	2023-10-30T00:00:00	2024-11-08T08:00:00	2	Temperatura media	24.2
126058	7	Sololá	704	Santa Lucía Utatlán 	7	Santa Rita 	10	Octubre	2023-10-30T00:00:00	2024-11-08T08:00:00	4	Temperatura máxima	24.7
126059	7	Sololá	704	Santa Lucía Utatlán 	7	Santa Rita 	10	Octubre	2023-10-30T00:00:00	2024-11-08T08:00:00	3	Temperatura mínima	23.6
126060	7	Sololá	704	Santa Lucía Utatlán 	7	Santa Rita 	10	Octubre	2023-10-30T00:00:00	2024-11-08T08:00:00	5	Humedad	77
126061	7	Sololá	704	Santa Lucía Utatlán 	7	Santa Rita 	10	Octubre	2023-10-30T00:00:00	2024-11-08T08:00:00	6	Velocidad del viento	8
126062	7	Sololá	704	Santa Lucía Utatlán 	7	Santa Rita 	10	Octubre	2023-10-30T00:00:00	2024-11-08T08:00:00	7	Dirección del viento	8.05
126063	7	Sololá	704	Santa Lucía Utatlán 	7	Santa Rita 	10	Octubre	2023-10-30T00:00:00	2024-11-08T08:00:00	1	Precipitación	0
126064	7	Sololá	704	Santa Lucía Utatlán 	7	Santa Rita 	10	Octubre	2023-10-30T00:00:00	2024-11-08T08:00:00	8	Radiación solar	159
126065	7	Sololá	704	Santa Lucía Utatlán 	7	Santa Rita 	10	Octubre	2023-10-30T00:00:00	2024-11-08T09:00:00	2	Temperatura media	24.1
126066	7	Sololá	704	Santa Lucía Utatlán 	7	Santa Rita 	10	Octubre	2023-10-30T00:00:00	2024-11-08T09:00:00	4	Temperatura máxima	24.3
126067	7	Sololá	704	Santa Lucía Utatlán 	7	Santa Rita 	10	Octubre	2023-10-30T00:00:00	2024-11-08T09:00:00	3	Temperatura mínima	23.6
126068	7	Sololá	704	Santa Lucía Utatlán 	7	Santa Rita 	10	Octubre	2023-10-30T00:00:00	2024-11-08T09:00:00	5	Humedad	78
126069	7	Sololá	704	Santa Lucía Utatlán 	7	Santa Rita 	10	Octubre	2023-10-30T00:00:00	2024-11-08T09:00:00	6	Velocidad del viento	6.4
126070	7	Sololá	704	Santa Lucía Utatlán 	7	Santa Rita 	10	Octubre	2023-10-30T00:00:00	2024-11-08T09:00:00	7	Dirección del viento	6.44
126071	7	Sololá	704	Santa Lucía Utatlán 	7	Santa Rita 	10	Octubre	2023-10-30T00:00:00	2024-11-08T09:00:00	1	Precipitación	0
126072	7	Sololá	704	Santa Lucía Utatlán 	7	Santa Rita 	10	Octubre	2023-10-30T00:00:00	2024-11-08T09:00:00	8	Radiación solar	296
126073	7	Sololá	704	Santa Lucía Utatlán 	7	Santa Rita 	10	Octubre	2023-10-30T00:00:00	2024-11-08T10:00:00	2	Temperatura media	21.8
126074	7	Sololá	704	Santa Lucía Utatlán 	7	Santa Rita 	10	Octubre	2023-10-30T00:00:00	2024-11-08T10:00:00	4	Temperatura máxima	24.2
126075	7	Sololá	704	Santa Lucía Utatlán 	7	Santa Rita 	10	Octubre	2023-10-30T00:00:00	2024-11-08T10:00:00	3	Temperatura mínima	21.8
126076	7	Sololá	704	Santa Lucía Utatlán 	7	Santa Rita 	10	Octubre	2023-10-30T00:00:00	2024-11-08T10:00:00	5	Humedad	90
126077	7	Sololá	704	Santa Lucía Utatlán 	7	Santa Rita 	10	Octubre	2023-10-30T00:00:00	2024-11-08T10:00:00	6	Velocidad del viento	4.8
126078	7	Sololá	704	Santa Lucía Utatlán 	7	Santa Rita 	10	Octubre	2023-10-30T00:00:00	2024-11-08T10:00:00	7	Dirección del viento	4.83
126079	7	Sololá	704	Santa Lucía Utatlán 	7	Santa Rita 	10	Octubre	2023-10-30T00:00:00	2024-11-08T10:00:00	1	Precipitación	0.2
126080	7	Sololá	704	Santa Lucía Utatlán 	7	Santa Rita 	10	Octubre	2023-10-30T00:00:00	2024-11-08T10:00:00	8	Radiación solar	562
126081	7	Sololá	704	Santa Lucía Utatlán 	7	Santa Rita 	10	Octubre	2023-10-30T00:00:00	2024-11-08T11:00:00	2	Temperatura media	19.3
126082	7	Sololá	704	Santa Lucía Utatlán 	7	Santa Rita 	10	Octubre	2023-10-30T00:00:00	2024-11-08T11:00:00	4	Temperatura máxima	19.5
126083	7	Sololá	704	Santa Lucía Utatlán 	7	Santa Rita 	10	Octubre	2023-10-30T00:00:00	2024-11-08T11:00:00	3	Temperatura mínima	19.1
126084	7	Sololá	704	Santa Lucía Utatlán 	7	Santa Rita 	10	Octubre	2023-10-30T00:00:00	2024-11-08T11:00:00	5	Humedad	80
126085	7	Sololá	704	Santa Lucía Utatlán 	7	Santa Rita 	10	Octubre	2023-10-30T00:00:00	2024-11-08T11:00:00	6	Velocidad del viento	11.3
126086	7	Sololá	704	Santa Lucía Utatlán 	7	Santa Rita 	10	Octubre	2023-10-30T00:00:00	2024-11-08T11:00:00	7	Dirección del viento	11.27
126087	7	Sololá	704	Santa Lucía Utatlán 	7	Santa Rita 	10	Octubre	2023-10-30T00:00:00	2024-11-08T11:00:00	1	Precipitación	0
126088	7	Sololá	704	Santa Lucía Utatlán 	7	Santa Rita 	10	Octubre	2023-10-30T00:00:00	2024-11-08T11:00:00	8	Radiación solar	125
126089	7	Sololá	704	Santa Lucía Utatlán 	7	Santa Rita 	10	Octubre	2023-10-30T00:00:00	2024-11-08T12:00:00	2	Temperatura media	19.3
126090	7	Sololá	704	Santa Lucía Utatlán 	7	Santa Rita 	10	Octubre	2023-10-30T00:00:00	2024-11-08T12:00:00	4	Temperatura máxima	19.6
126091	7	Sololá	704	Santa Lucía Utatlán 	7	Santa Rita 	10	Octubre	2023-10-30T00:00:00	2024-11-08T12:00:00	3	Temperatura mínima	19.1
126092	7	Sololá	704	Santa Lucía Utatlán 	7	Santa Rita 	10	Octubre	2023-10-30T00:00:00	2024-11-08T12:00:00	5	Humedad	80
126093	7	Sololá	704	Santa Lucía Utatlán 	7	Santa Rita 	10	Octubre	2023-10-30T00:00:00	2024-11-08T12:00:00	6	Velocidad del viento	14.5
126094	7	Sololá	704	Santa Lucía Utatlán 	7	Santa Rita 	10	Octubre	2023-10-30T00:00:00	2024-11-08T12:00:00	7	Dirección del viento	14.48
126095	7	Sololá	704	Santa Lucía Utatlán 	7	Santa Rita 	10	Octubre	2023-10-30T00:00:00	2024-11-08T12:00:00	1	Precipitación	0
126096	7	Sololá	704	Santa Lucía Utatlán 	7	Santa Rita 	10	Octubre	2023-10-30T00:00:00	2024-11-08T12:00:00	8	Radiación solar	219
126097	7	Sololá	704	Santa Lucía Utatlán 	7	Santa Rita 	10	Octubre	2023-10-30T00:00:00	2024-11-08T13:00:00	2	Temperatura media	20.3
126098	7	Sololá	704	Santa Lucía Utatlán 	7	Santa Rita 	10	Octubre	2023-10-30T00:00:00	2024-11-08T13:00:00	4	Temperatura máxima	20.3
126099	7	Sololá	704	Santa Lucía Utatlán 	7	Santa Rita 	10	Octubre	2023-10-30T00:00:00	2024-11-08T13:00:00	3	Temperatura mínima	19.2
126100	7	Sololá	704	Santa Lucía Utatlán 	7	Santa Rita 	10	Octubre	2023-10-30T00:00:00	2024-11-08T13:00:00	5	Humedad	76
126101	7	Sololá	704	Santa Lucía Utatlán 	7	Santa Rita 	10	Octubre	2023-10-30T00:00:00	2024-11-08T13:00:00	6	Velocidad del viento	11.3
126102	7	Sololá	704	Santa Lucía Utatlán 	7	Santa Rita 	10	Octubre	2023-10-30T00:00:00	2024-11-08T13:00:00	7	Dirección del viento	11.27
126103	7	Sololá	704	Santa Lucía Utatlán 	7	Santa Rita 	10	Octubre	2023-10-30T00:00:00	2024-11-08T13:00:00	1	Precipitación	0
126104	7	Sololá	704	Santa Lucía Utatlán 	7	Santa Rita 	10	Octubre	2023-10-30T00:00:00	2024-11-08T13:00:00	8	Radiación solar	213
126105	7	Sololá	704	Santa Lucía Utatlán 	7	Santa Rita 	10	Octubre	2023-10-30T00:00:00	2024-11-08T14:00:00	2	Temperatura media	20.7
126106	7	Sololá	704	Santa Lucía Utatlán 	7	Santa Rita 	10	Octubre	2023-10-30T00:00:00	2024-11-08T14:00:00	4	Temperatura máxima	21.2
126107	7	Sololá	704	Santa Lucía Utatlán 	7	Santa Rita 	10	Octubre	2023-10-30T00:00:00	2024-11-08T14:00:00	3	Temperatura mínima	20.3
126108	7	Sololá	704	Santa Lucía Utatlán 	7	Santa Rita 	10	Octubre	2023-10-30T00:00:00	2024-11-08T14:00:00	5	Humedad	76
126109	7	Sololá	704	Santa Lucía Utatlán 	7	Santa Rita 	10	Octubre	2023-10-30T00:00:00	2024-11-08T14:00:00	6	Velocidad del viento	9.7
126110	7	Sololá	704	Santa Lucía Utatlán 	7	Santa Rita 	10	Octubre	2023-10-30T00:00:00	2024-11-08T14:00:00	7	Dirección del viento	9.66
126111	7	Sololá	704	Santa Lucía Utatlán 	7	Santa Rita 	10	Octubre	2023-10-30T00:00:00	2024-11-08T14:00:00	1	Precipitación	0
126112	7	Sololá	704	Santa Lucía Utatlán 	7	Santa Rita 	10	Octubre	2023-10-30T00:00:00	2024-11-08T14:00:00	8	Radiación solar	327
126113	7	Sololá	704	Santa Lucía Utatlán 	7	Santa Rita 	10	Octubre	2023-10-30T00:00:00	2024-11-08T15:00:00	2	Temperatura media	19.4
126114	7	Sololá	704	Santa Lucía Utatlán 	7	Santa Rita 	10	Octubre	2023-10-30T00:00:00	2024-11-08T15:00:00	4	Temperatura máxima	20.9
126115	7	Sololá	704	Santa Lucía Utatlán 	7	Santa Rita 	10	Octubre	2023-10-30T00:00:00	2024-11-08T15:00:00	3	Temperatura mínima	19.3
126116	7	Sololá	704	Santa Lucía Utatlán 	7	Santa Rita 	10	Octubre	2023-10-30T00:00:00	2024-11-08T15:00:00	5	Humedad	83
126117	7	Sololá	704	Santa Lucía Utatlán 	7	Santa Rita 	10	Octubre	2023-10-30T00:00:00	2024-11-08T15:00:00	6	Velocidad del viento	11.3
126118	7	Sololá	704	Santa Lucía Utatlán 	7	Santa Rita 	10	Octubre	2023-10-30T00:00:00	2024-11-08T15:00:00	7	Dirección del viento	11.27
126119	7	Sololá	704	Santa Lucía Utatlán 	7	Santa Rita 	10	Octubre	2023-10-30T00:00:00	2024-11-08T15:00:00	1	Precipitación	0
126120	7	Sololá	704	Santa Lucía Utatlán 	7	Santa Rita 	10	Octubre	2023-10-30T00:00:00	2024-11-08T15:00:00	8	Radiación solar	284
126121	7	Sololá	704	Santa Lucía Utatlán 	7	Santa Rita 	10	Octubre	2023-10-30T00:00:00	2024-11-08T16:00:00	2	Temperatura media	19.3
126122	7	Sololá	704	Santa Lucía Utatlán 	7	Santa Rita 	10	Octubre	2023-10-30T00:00:00	2024-11-08T16:00:00	4	Temperatura máxima	19.5
126123	7	Sololá	704	Santa Lucía Utatlán 	7	Santa Rita 	10	Octubre	2023-10-30T00:00:00	2024-11-08T16:00:00	3	Temperatura mínima	19.3
126124	7	Sololá	704	Santa Lucía Utatlán 	7	Santa Rita 	10	Octubre	2023-10-30T00:00:00	2024-11-08T16:00:00	5	Humedad	93
126125	7	Sololá	704	Santa Lucía Utatlán 	7	Santa Rita 	10	Octubre	2023-10-30T00:00:00	2024-11-08T16:00:00	6	Velocidad del viento	3.2
126126	7	Sololá	704	Santa Lucía Utatlán 	7	Santa Rita 	10	Octubre	2023-10-30T00:00:00	2024-11-08T16:00:00	7	Dirección del viento	3.22
126127	7	Sololá	704	Santa Lucía Utatlán 	7	Santa Rita 	10	Octubre	2023-10-30T00:00:00	2024-11-08T16:00:00	1	Precipitación	0
126128	7	Sololá	704	Santa Lucía Utatlán 	7	Santa Rita 	10	Octubre	2023-10-30T00:00:00	2024-11-08T16:00:00	8	Radiación solar	108
126129	7	Sololá	704	Santa Lucía Utatlán 	7	Santa Rita 	10	Octubre	2023-10-30T00:00:00	2024-11-08T17:00:00	2	Temperatura media	19.3
126130	7	Sololá	704	Santa Lucía Utatlán 	7	Santa Rita 	10	Octubre	2023-10-30T00:00:00	2024-11-08T17:00:00	4	Temperatura máxima	19.4
126131	7	Sololá	704	Santa Lucía Utatlán 	7	Santa Rita 	10	Octubre	2023-10-30T00:00:00	2024-11-08T17:00:00	3	Temperatura mínima	19.3
126132	7	Sololá	704	Santa Lucía Utatlán 	7	Santa Rita 	10	Octubre	2023-10-30T00:00:00	2024-11-08T17:00:00	5	Humedad	92
126133	7	Sololá	704	Santa Lucía Utatlán 	7	Santa Rita 	10	Octubre	2023-10-30T00:00:00	2024-11-08T17:00:00	6	Velocidad del viento	3.2
126134	7	Sololá	704	Santa Lucía Utatlán 	7	Santa Rita 	10	Octubre	2023-10-30T00:00:00	2024-11-08T17:00:00	7	Dirección del viento	3.22
126135	7	Sololá	704	Santa Lucía Utatlán 	7	Santa Rita 	10	Octubre	2023-10-30T00:00:00	2024-11-08T17:00:00	1	Precipitación	0
126136	7	Sololá	704	Santa Lucía Utatlán 	7	Santa Rita 	10	Octubre	2023-10-30T00:00:00	2024-11-08T17:00:00	8	Radiación solar	33
126137	7	Sololá	704	Santa Lucía Utatlán 	7	Santa Rita 	10	Octubre	2023-10-30T00:00:00	2024-11-08T18:00:00	2	Temperatura media	19
126138	7	Sololá	704	Santa Lucía Utatlán 	7	Santa Rita 	10	Octubre	2023-10-30T00:00:00	2024-11-08T18:00:00	4	Temperatura máxima	19.3
126139	7	Sololá	704	Santa Lucía Utatlán 	7	Santa Rita 	10	Octubre	2023-10-30T00:00:00	2024-11-08T18:00:00	3	Temperatura mínima	18.8
126140	7	Sololá	704	Santa Lucía Utatlán 	7	Santa Rita 	10	Octubre	2023-10-30T00:00:00	2024-11-08T18:00:00	5	Humedad	93
126141	7	Sololá	704	Santa Lucía Utatlán 	7	Santa Rita 	10	Octubre	2023-10-30T00:00:00	2024-11-08T18:00:00	6	Velocidad del viento	3.2
126142	7	Sololá	704	Santa Lucía Utatlán 	7	Santa Rita 	10	Octubre	2023-10-30T00:00:00	2024-11-08T18:00:00	7	Dirección del viento	3.22
126143	7	Sololá	704	Santa Lucía Utatlán 	7	Santa Rita 	10	Octubre	2023-10-30T00:00:00	2024-11-08T18:00:00	1	Precipitación	0
126144	7	Sololá	704	Santa Lucía Utatlán 	7	Santa Rita 	10	Octubre	2023-10-30T00:00:00	2024-11-08T18:00:00	8	Radiación solar	7
126145	7	Sololá	704	Santa Lucía Utatlán 	7	Santa Rita 	10	Octubre	2023-10-30T00:00:00	2024-11-08T19:00:00	2	Temperatura media	19.2
126146	7	Sololá	704	Santa Lucía Utatlán 	7	Santa Rita 	10	Octubre	2023-10-30T00:00:00	2024-11-08T19:00:00	4	Temperatura máxima	19.3
126147	7	Sololá	704	Santa Lucía Utatlán 	7	Santa Rita 	10	Octubre	2023-10-30T00:00:00	2024-11-08T19:00:00	3	Temperatura mínima	19
126148	7	Sololá	704	Santa Lucía Utatlán 	7	Santa Rita 	10	Octubre	2023-10-30T00:00:00	2024-11-08T19:00:00	5	Humedad	92
126149	7	Sololá	704	Santa Lucía Utatlán 	7	Santa Rita 	10	Octubre	2023-10-30T00:00:00	2024-11-08T19:00:00	6	Velocidad del viento	3.2
126150	7	Sololá	704	Santa Lucía Utatlán 	7	Santa Rita 	10	Octubre	2023-10-30T00:00:00	2024-11-08T19:00:00	7	Dirección del viento	3.22
126151	7	Sololá	704	Santa Lucía Utatlán 	7	Santa Rita 	10	Octubre	2023-10-30T00:00:00	2024-11-08T19:00:00	1	Precipitación	0
126152	7	Sololá	704	Santa Lucía Utatlán 	7	Santa Rita 	10	Octubre	2023-10-30T00:00:00	2024-11-08T19:00:00	8	Radiación solar	0
126153	7	Sololá	704	Santa Lucía Utatlán 	7	Santa Rita 	10	Octubre	2023-10-30T00:00:00	2024-11-08T20:00:00	2	Temperatura media	19.1
126154	7	Sololá	704	Santa Lucía Utatlán 	7	Santa Rita 	10	Octubre	2023-10-30T00:00:00	2024-11-08T20:00:00	4	Temperatura máxima	19.3
126155	7	Sololá	704	Santa Lucía Utatlán 	7	Santa Rita 	10	Octubre	2023-10-30T00:00:00	2024-11-08T20:00:00	3	Temperatura mínima	19.1
126156	7	Sololá	704	Santa Lucía Utatlán 	7	Santa Rita 	10	Octubre	2023-10-30T00:00:00	2024-11-08T20:00:00	5	Humedad	90
126157	7	Sololá	704	Santa Lucía Utatlán 	7	Santa Rita 	10	Octubre	2023-10-30T00:00:00	2024-11-08T20:00:00	6	Velocidad del viento	4.8
126158	7	Sololá	704	Santa Lucía Utatlán 	7	Santa Rita 	10	Octubre	2023-10-30T00:00:00	2024-11-08T20:00:00	7	Dirección del viento	4.83
126159	7	Sololá	704	Santa Lucía Utatlán 	7	Santa Rita 	10	Octubre	2023-10-30T00:00:00	2024-11-08T20:00:00	1	Precipitación	0
126160	7	Sololá	704	Santa Lucía Utatlán 	7	Santa Rita 	10	Octubre	2023-10-30T00:00:00	2024-11-08T20:00:00	8	Radiación solar	0
126161	7	Sololá	704	Santa Lucía Utatlán 	7	Santa Rita 	10	Octubre	2023-10-30T00:00:00	2024-11-08T21:00:00	2	Temperatura media	18.7
126162	7	Sololá	704	Santa Lucía Utatlán 	7	Santa Rita 	10	Octubre	2023-10-30T00:00:00	2024-11-08T21:00:00	4	Temperatura máxima	19.1
126163	7	Sololá	704	Santa Lucía Utatlán 	7	Santa Rita 	10	Octubre	2023-10-30T00:00:00	2024-11-08T21:00:00	3	Temperatura mínima	18.6
126164	7	Sololá	704	Santa Lucía Utatlán 	7	Santa Rita 	10	Octubre	2023-10-30T00:00:00	2024-11-08T21:00:00	5	Humedad	91
126165	7	Sololá	704	Santa Lucía Utatlán 	7	Santa Rita 	10	Octubre	2023-10-30T00:00:00	2024-11-08T21:00:00	6	Velocidad del viento	3.2
126166	7	Sololá	704	Santa Lucía Utatlán 	7	Santa Rita 	10	Octubre	2023-10-30T00:00:00	2024-11-08T21:00:00	7	Dirección del viento	3.22
126167	7	Sololá	704	Santa Lucía Utatlán 	7	Santa Rita 	10	Octubre	2023-10-30T00:00:00	2024-11-08T21:00:00	1	Precipitación	0
126168	7	Sololá	704	Santa Lucía Utatlán 	7	Santa Rita 	10	Octubre	2023-10-30T00:00:00	2024-11-08T21:00:00	8	Radiación solar	0
126169	7	Sololá	704	Santa Lucía Utatlán 	7	Santa Rita 	10	Octubre	2023-10-30T00:00:00	2024-11-08T22:00:00	2	Temperatura media	18.9
126170	7	Sololá	704	Santa Lucía Utatlán 	7	Santa Rita 	10	Octubre	2023-10-30T00:00:00	2024-11-08T22:00:00	4	Temperatura máxima	19.7
126171	7	Sololá	704	Santa Lucía Utatlán 	7	Santa Rita 	10	Octubre	2023-10-30T00:00:00	2024-11-08T22:00:00	3	Temperatura mínima	18.9
126172	7	Sololá	704	Santa Lucía Utatlán 	7	Santa Rita 	10	Octubre	2023-10-30T00:00:00	2024-11-08T22:00:00	5	Humedad	79
126173	7	Sololá	704	Santa Lucía Utatlán 	7	Santa Rita 	10	Octubre	2023-10-30T00:00:00	2024-11-08T22:00:00	6	Velocidad del viento	9.7
126174	7	Sololá	704	Santa Lucía Utatlán 	7	Santa Rita 	10	Octubre	2023-10-30T00:00:00	2024-11-08T22:00:00	7	Dirección del viento	9.66
126175	7	Sololá	704	Santa Lucía Utatlán 	7	Santa Rita 	10	Octubre	2023-10-30T00:00:00	2024-11-08T22:00:00	1	Precipitación	0
126176	7	Sololá	704	Santa Lucía Utatlán 	7	Santa Rita 	10	Octubre	2023-10-30T00:00:00	2024-11-08T22:00:00	8	Radiación solar	0
126177	7	Sololá	704	Santa Lucía Utatlán 	7	Santa Rita 	10	Octubre	2023-10-30T00:00:00	2024-11-08T23:00:00	2	Temperatura media	19.5
126178	7	Sololá	704	Santa Lucía Utatlán 	7	Santa Rita 	10	Octubre	2023-10-30T00:00:00	2024-11-08T23:00:00	4	Temperatura máxima	19.6
126179	7	Sololá	704	Santa Lucía Utatlán 	7	Santa Rita 	10	Octubre	2023-10-30T00:00:00	2024-11-08T23:00:00	3	Temperatura mínima	18.9
126180	7	Sololá	704	Santa Lucía Utatlán 	7	Santa Rita 	10	Octubre	2023-10-30T00:00:00	2024-11-08T23:00:00	5	Humedad	73
126181	7	Sololá	704	Santa Lucía Utatlán 	7	Santa Rita 	10	Octubre	2023-10-30T00:00:00	2024-11-08T23:00:00	6	Velocidad del viento	8
126182	7	Sololá	704	Santa Lucía Utatlán 	7	Santa Rita 	10	Octubre	2023-10-30T00:00:00	2024-11-08T23:00:00	7	Dirección del viento	8.05
126183	7	Sololá	704	Santa Lucía Utatlán 	7	Santa Rita 	10	Octubre	2023-10-30T00:00:00	2024-11-08T23:00:00	1	Precipitación	0
126184	7	Sololá	704	Santa Lucía Utatlán 	7	Santa Rita 	10	Octubre	2023-10-30T00:00:00	2024-11-08T23:00:00	8	Radiación solar	0
126185	7	Sololá	704	Santa Lucía Utatlán 	7	Santa Rita 	10	Octubre	2023-10-31T00:00:00	2024-11-08T00:00:00	2	Temperatura media	19.6
126186	7	Sololá	704	Santa Lucía Utatlán 	7	Santa Rita 	10	Octubre	2023-10-31T00:00:00	2024-11-08T00:00:00	4	Temperatura máxima	19.6
126187	7	Sololá	704	Santa Lucía Utatlán 	7	Santa Rita 	10	Octubre	2023-10-31T00:00:00	2024-11-08T00:00:00	3	Temperatura mínima	19.3
126188	7	Sololá	704	Santa Lucía Utatlán 	7	Santa Rita 	10	Octubre	2023-10-31T00:00:00	2024-11-08T00:00:00	5	Humedad	76
126189	7	Sololá	704	Santa Lucía Utatlán 	7	Santa Rita 	10	Octubre	2023-10-31T00:00:00	2024-11-08T00:00:00	6	Velocidad del viento	8
126190	7	Sololá	704	Santa Lucía Utatlán 	7	Santa Rita 	10	Octubre	2023-10-31T00:00:00	2024-11-08T00:00:00	7	Dirección del viento	8.05
126191	7	Sololá	704	Santa Lucía Utatlán 	7	Santa Rita 	10	Octubre	2023-10-31T00:00:00	2024-11-08T00:00:00	1	Precipitación	0
126192	7	Sololá	704	Santa Lucía Utatlán 	7	Santa Rita 	10	Octubre	2023-10-31T00:00:00	2024-11-08T00:00:00	8	Radiación solar	0
126193	7	Sololá	704	Santa Lucía Utatlán 	7	Santa Rita 	10	Octubre	2023-10-31T00:00:00	2024-11-08T01:00:00	2	Temperatura media	19.5
126194	7	Sololá	704	Santa Lucía Utatlán 	7	Santa Rita 	10	Octubre	2023-10-31T00:00:00	2024-11-08T01:00:00	4	Temperatura máxima	19.6
126195	7	Sololá	704	Santa Lucía Utatlán 	7	Santa Rita 	10	Octubre	2023-10-31T00:00:00	2024-11-08T01:00:00	3	Temperatura mínima	19.3
126196	7	Sololá	704	Santa Lucía Utatlán 	7	Santa Rita 	10	Octubre	2023-10-31T00:00:00	2024-11-08T01:00:00	5	Humedad	81
126197	7	Sololá	704	Santa Lucía Utatlán 	7	Santa Rita 	10	Octubre	2023-10-31T00:00:00	2024-11-08T01:00:00	6	Velocidad del viento	8
126198	7	Sololá	704	Santa Lucía Utatlán 	7	Santa Rita 	10	Octubre	2023-10-31T00:00:00	2024-11-08T01:00:00	7	Dirección del viento	8.05
126199	7	Sololá	704	Santa Lucía Utatlán 	7	Santa Rita 	10	Octubre	2023-10-31T00:00:00	2024-11-08T01:00:00	1	Precipitación	0
126200	7	Sololá	704	Santa Lucía Utatlán 	7	Santa Rita 	10	Octubre	2023-10-31T00:00:00	2024-11-08T01:00:00	8	Radiación solar	0
126201	7	Sololá	704	Santa Lucía Utatlán 	7	Santa Rita 	10	Octubre	2023-10-31T00:00:00	2024-11-08T02:00:00	2	Temperatura media	19.5
126202	7	Sololá	704	Santa Lucía Utatlán 	7	Santa Rita 	10	Octubre	2023-10-31T00:00:00	2024-11-08T02:00:00	4	Temperatura máxima	19.6
126203	7	Sololá	704	Santa Lucía Utatlán 	7	Santa Rita 	10	Octubre	2023-10-31T00:00:00	2024-11-08T02:00:00	3	Temperatura mínima	19
126204	7	Sololá	704	Santa Lucía Utatlán 	7	Santa Rita 	10	Octubre	2023-10-31T00:00:00	2024-11-08T02:00:00	5	Humedad	81
126205	7	Sololá	704	Santa Lucía Utatlán 	7	Santa Rita 	10	Octubre	2023-10-31T00:00:00	2024-11-08T02:00:00	6	Velocidad del viento	11.3
126206	7	Sololá	704	Santa Lucía Utatlán 	7	Santa Rita 	10	Octubre	2023-10-31T00:00:00	2024-11-08T02:00:00	7	Dirección del viento	11.27
126207	7	Sololá	704	Santa Lucía Utatlán 	7	Santa Rita 	10	Octubre	2023-10-31T00:00:00	2024-11-08T02:00:00	1	Precipitación	0
126208	7	Sololá	704	Santa Lucía Utatlán 	7	Santa Rita 	10	Octubre	2023-10-31T00:00:00	2024-11-08T02:00:00	8	Radiación solar	0
126209	7	Sololá	704	Santa Lucía Utatlán 	7	Santa Rita 	10	Octubre	2023-10-31T00:00:00	2024-11-08T03:00:00	2	Temperatura media	19.4
126210	7	Sololá	704	Santa Lucía Utatlán 	7	Santa Rita 	10	Octubre	2023-10-31T00:00:00	2024-11-08T03:00:00	4	Temperatura máxima	19.7
126211	7	Sololá	704	Santa Lucía Utatlán 	7	Santa Rita 	10	Octubre	2023-10-31T00:00:00	2024-11-08T03:00:00	3	Temperatura mínima	19.1
126212	7	Sololá	704	Santa Lucía Utatlán 	7	Santa Rita 	10	Octubre	2023-10-31T00:00:00	2024-11-08T03:00:00	5	Humedad	81
126213	7	Sololá	704	Santa Lucía Utatlán 	7	Santa Rita 	10	Octubre	2023-10-31T00:00:00	2024-11-08T03:00:00	6	Velocidad del viento	8
126214	7	Sololá	704	Santa Lucía Utatlán 	7	Santa Rita 	10	Octubre	2023-10-31T00:00:00	2024-11-08T03:00:00	7	Dirección del viento	8.05
126215	7	Sololá	704	Santa Lucía Utatlán 	7	Santa Rita 	10	Octubre	2023-10-31T00:00:00	2024-11-08T03:00:00	1	Precipitación	0
126216	7	Sololá	704	Santa Lucía Utatlán 	7	Santa Rita 	10	Octubre	2023-10-31T00:00:00	2024-11-08T03:00:00	8	Radiación solar	0
126217	7	Sololá	704	Santa Lucía Utatlán 	7	Santa Rita 	10	Octubre	2023-10-31T00:00:00	2024-11-08T04:00:00	2	Temperatura media	19.7
126218	7	Sololá	704	Santa Lucía Utatlán 	7	Santa Rita 	10	Octubre	2023-10-31T00:00:00	2024-11-08T04:00:00	4	Temperatura máxima	19.7
126219	7	Sololá	704	Santa Lucía Utatlán 	7	Santa Rita 	10	Octubre	2023-10-31T00:00:00	2024-11-08T04:00:00	3	Temperatura mínima	19.1
126220	7	Sololá	704	Santa Lucía Utatlán 	7	Santa Rita 	10	Octubre	2023-10-31T00:00:00	2024-11-08T04:00:00	5	Humedad	80
126221	7	Sololá	704	Santa Lucía Utatlán 	7	Santa Rita 	10	Octubre	2023-10-31T00:00:00	2024-11-08T04:00:00	6	Velocidad del viento	4.8
126222	7	Sololá	704	Santa Lucía Utatlán 	7	Santa Rita 	10	Octubre	2023-10-31T00:00:00	2024-11-08T04:00:00	7	Dirección del viento	4.83
126223	7	Sololá	704	Santa Lucía Utatlán 	7	Santa Rita 	10	Octubre	2023-10-31T00:00:00	2024-11-08T04:00:00	1	Precipitación	0
126224	7	Sololá	704	Santa Lucía Utatlán 	7	Santa Rita 	10	Octubre	2023-10-31T00:00:00	2024-11-08T04:00:00	8	Radiación solar	0
126225	7	Sololá	704	Santa Lucía Utatlán 	7	Santa Rita 	10	Octubre	2023-10-31T00:00:00	2024-11-08T05:00:00	2	Temperatura media	19.1
126226	7	Sololá	704	Santa Lucía Utatlán 	7	Santa Rita 	10	Octubre	2023-10-31T00:00:00	2024-11-08T05:00:00	4	Temperatura máxima	19.8
126227	7	Sololá	704	Santa Lucía Utatlán 	7	Santa Rita 	10	Octubre	2023-10-31T00:00:00	2024-11-08T05:00:00	3	Temperatura mínima	19
126228	7	Sololá	704	Santa Lucía Utatlán 	7	Santa Rita 	10	Octubre	2023-10-31T00:00:00	2024-11-08T05:00:00	5	Humedad	84
126229	7	Sololá	704	Santa Lucía Utatlán 	7	Santa Rita 	10	Octubre	2023-10-31T00:00:00	2024-11-08T05:00:00	6	Velocidad del viento	6.4
126230	7	Sololá	704	Santa Lucía Utatlán 	7	Santa Rita 	10	Octubre	2023-10-31T00:00:00	2024-11-08T05:00:00	7	Dirección del viento	6.44
126231	7	Sololá	704	Santa Lucía Utatlán 	7	Santa Rita 	10	Octubre	2023-10-31T00:00:00	2024-11-08T05:00:00	1	Precipitación	0
126232	7	Sololá	704	Santa Lucía Utatlán 	7	Santa Rita 	10	Octubre	2023-10-31T00:00:00	2024-11-08T05:00:00	8	Radiación solar	0
126233	7	Sololá	704	Santa Lucía Utatlán 	7	Santa Rita 	10	Octubre	2023-10-31T00:00:00	2024-11-08T06:00:00	2	Temperatura media	19.6
126234	7	Sololá	704	Santa Lucía Utatlán 	7	Santa Rita 	10	Octubre	2023-10-31T00:00:00	2024-11-08T06:00:00	4	Temperatura máxima	19.6
126235	7	Sololá	704	Santa Lucía Utatlán 	7	Santa Rita 	10	Octubre	2023-10-31T00:00:00	2024-11-08T06:00:00	3	Temperatura mínima	18.9
126236	7	Sololá	704	Santa Lucía Utatlán 	7	Santa Rita 	10	Octubre	2023-10-31T00:00:00	2024-11-08T06:00:00	5	Humedad	82
126237	7	Sololá	704	Santa Lucía Utatlán 	7	Santa Rita 	10	Octubre	2023-10-31T00:00:00	2024-11-08T06:00:00	6	Velocidad del viento	4.8
126238	7	Sololá	704	Santa Lucía Utatlán 	7	Santa Rita 	10	Octubre	2023-10-31T00:00:00	2024-11-08T06:00:00	7	Dirección del viento	4.83
126239	7	Sololá	704	Santa Lucía Utatlán 	7	Santa Rita 	10	Octubre	2023-10-31T00:00:00	2024-11-08T06:00:00	1	Precipitación	0
126240	7	Sololá	704	Santa Lucía Utatlán 	7	Santa Rita 	10	Octubre	2023-10-31T00:00:00	2024-11-08T06:00:00	8	Radiación solar	10
126241	7	Sololá	704	Santa Lucía Utatlán 	7	Santa Rita 	10	Octubre	2023-10-31T00:00:00	2024-11-08T07:00:00	2	Temperatura media	20.1
126242	7	Sololá	704	Santa Lucía Utatlán 	7	Santa Rita 	10	Octubre	2023-10-31T00:00:00	2024-11-08T07:00:00	4	Temperatura máxima	20.2
126243	7	Sololá	704	Santa Lucía Utatlán 	7	Santa Rita 	10	Octubre	2023-10-31T00:00:00	2024-11-08T07:00:00	3	Temperatura mínima	19.5
126244	7	Sololá	704	Santa Lucía Utatlán 	7	Santa Rita 	10	Octubre	2023-10-31T00:00:00	2024-11-08T07:00:00	5	Humedad	81
126245	7	Sololá	704	Santa Lucía Utatlán 	7	Santa Rita 	10	Octubre	2023-10-31T00:00:00	2024-11-08T07:00:00	6	Velocidad del viento	9.7
126246	7	Sololá	704	Santa Lucía Utatlán 	7	Santa Rita 	10	Octubre	2023-10-31T00:00:00	2024-11-08T07:00:00	7	Dirección del viento	9.66
126247	7	Sololá	704	Santa Lucía Utatlán 	7	Santa Rita 	10	Octubre	2023-10-31T00:00:00	2024-11-08T07:00:00	1	Precipitación	0
126248	7	Sololá	704	Santa Lucía Utatlán 	7	Santa Rita 	10	Octubre	2023-10-31T00:00:00	2024-11-08T07:00:00	8	Radiación solar	107
126249	7	Sololá	704	Santa Lucía Utatlán 	7	Santa Rita 	10	Octubre	2023-10-31T00:00:00	2024-11-08T08:00:00	2	Temperatura media	24.1
126250	7	Sololá	704	Santa Lucía Utatlán 	7	Santa Rita 	10	Octubre	2023-10-31T00:00:00	2024-11-08T08:00:00	4	Temperatura máxima	26.6
126251	7	Sololá	704	Santa Lucía Utatlán 	7	Santa Rita 	10	Octubre	2023-10-31T00:00:00	2024-11-08T08:00:00	3	Temperatura mínima	24.1
126252	7	Sololá	704	Santa Lucía Utatlán 	7	Santa Rita 	10	Octubre	2023-10-31T00:00:00	2024-11-08T08:00:00	5	Humedad	81
126253	7	Sololá	704	Santa Lucía Utatlán 	7	Santa Rita 	10	Octubre	2023-10-31T00:00:00	2024-11-08T08:00:00	6	Velocidad del viento	8
126254	7	Sololá	704	Santa Lucía Utatlán 	7	Santa Rita 	10	Octubre	2023-10-31T00:00:00	2024-11-08T08:00:00	7	Dirección del viento	8.05
126255	7	Sololá	704	Santa Lucía Utatlán 	7	Santa Rita 	10	Octubre	2023-10-31T00:00:00	2024-11-08T08:00:00	1	Precipitación	0
126256	7	Sololá	704	Santa Lucía Utatlán 	7	Santa Rita 	10	Octubre	2023-10-31T00:00:00	2024-11-08T08:00:00	8	Radiación solar	375
126257	7	Sololá	704	Santa Lucía Utatlán 	7	Santa Rita 	10	Octubre	2023-10-31T00:00:00	2024-11-08T09:00:00	2	Temperatura media	21
126258	7	Sololá	704	Santa Lucía Utatlán 	7	Santa Rita 	10	Octubre	2023-10-31T00:00:00	2024-11-08T09:00:00	4	Temperatura máxima	21.1
126259	7	Sololá	704	Santa Lucía Utatlán 	7	Santa Rita 	10	Octubre	2023-10-31T00:00:00	2024-11-08T09:00:00	3	Temperatura mínima	20.4
126260	7	Sololá	704	Santa Lucía Utatlán 	7	Santa Rita 	10	Octubre	2023-10-31T00:00:00	2024-11-08T09:00:00	5	Humedad	78
126261	7	Sololá	704	Santa Lucía Utatlán 	7	Santa Rita 	10	Octubre	2023-10-31T00:00:00	2024-11-08T09:00:00	6	Velocidad del viento	8
126262	7	Sololá	704	Santa Lucía Utatlán 	7	Santa Rita 	10	Octubre	2023-10-31T00:00:00	2024-11-08T09:00:00	7	Dirección del viento	8.05
126263	7	Sololá	704	Santa Lucía Utatlán 	7	Santa Rita 	10	Octubre	2023-10-31T00:00:00	2024-11-08T09:00:00	1	Precipitación	0
126264	7	Sololá	704	Santa Lucía Utatlán 	7	Santa Rita 	10	Octubre	2023-10-31T00:00:00	2024-11-08T09:00:00	8	Radiación solar	170
126265	7	Sololá	704	Santa Lucía Utatlán 	7	Santa Rita 	10	Octubre	2023-10-31T00:00:00	2024-11-08T10:00:00	2	Temperatura media	21.1
126266	7	Sololá	704	Santa Lucía Utatlán 	7	Santa Rita 	10	Octubre	2023-10-31T00:00:00	2024-11-08T10:00:00	4	Temperatura máxima	21.2
126267	7	Sololá	704	Santa Lucía Utatlán 	7	Santa Rita 	10	Octubre	2023-10-31T00:00:00	2024-11-08T10:00:00	3	Temperatura mínima	20.9
126268	7	Sololá	704	Santa Lucía Utatlán 	7	Santa Rita 	10	Octubre	2023-10-31T00:00:00	2024-11-08T10:00:00	5	Humedad	78
126269	7	Sololá	704	Santa Lucía Utatlán 	7	Santa Rita 	10	Octubre	2023-10-31T00:00:00	2024-11-08T10:00:00	6	Velocidad del viento	4.8
126270	7	Sololá	704	Santa Lucía Utatlán 	7	Santa Rita 	10	Octubre	2023-10-31T00:00:00	2024-11-08T10:00:00	7	Dirección del viento	4.83
126271	7	Sololá	704	Santa Lucía Utatlán 	7	Santa Rita 	10	Octubre	2023-10-31T00:00:00	2024-11-08T10:00:00	1	Precipitación	0
126272	7	Sololá	704	Santa Lucía Utatlán 	7	Santa Rita 	10	Octubre	2023-10-31T00:00:00	2024-11-08T10:00:00	8	Radiación solar	155
126273	7	Sololá	704	Santa Lucía Utatlán 	7	Santa Rita 	10	Octubre	2023-10-31T00:00:00	2024-11-08T11:00:00	2	Temperatura media	21.1
126274	7	Sololá	704	Santa Lucía Utatlán 	7	Santa Rita 	10	Octubre	2023-10-31T00:00:00	2024-11-08T11:00:00	4	Temperatura máxima	21.2
126275	7	Sololá	704	Santa Lucía Utatlán 	7	Santa Rita 	10	Octubre	2023-10-31T00:00:00	2024-11-08T11:00:00	3	Temperatura mínima	20.9
126276	7	Sololá	704	Santa Lucía Utatlán 	7	Santa Rita 	10	Octubre	2023-10-31T00:00:00	2024-11-08T11:00:00	5	Humedad	78
126277	7	Sololá	704	Santa Lucía Utatlán 	7	Santa Rita 	10	Octubre	2023-10-31T00:00:00	2024-11-08T11:00:00	6	Velocidad del viento	9.7
126278	7	Sololá	704	Santa Lucía Utatlán 	7	Santa Rita 	10	Octubre	2023-10-31T00:00:00	2024-11-08T11:00:00	7	Dirección del viento	9.66
126279	7	Sololá	704	Santa Lucía Utatlán 	7	Santa Rita 	10	Octubre	2023-10-31T00:00:00	2024-11-08T11:00:00	1	Precipitación	0
126280	7	Sololá	704	Santa Lucía Utatlán 	7	Santa Rita 	10	Octubre	2023-10-31T00:00:00	2024-11-08T11:00:00	8	Radiación solar	192
126281	7	Sololá	704	Santa Lucía Utatlán 	7	Santa Rita 	10	Octubre	2023-10-31T00:00:00	2024-11-08T12:00:00	2	Temperatura media	21.9
126282	7	Sololá	704	Santa Lucía Utatlán 	7	Santa Rita 	10	Octubre	2023-10-31T00:00:00	2024-11-08T12:00:00	4	Temperatura máxima	22.1
126283	7	Sololá	704	Santa Lucía Utatlán 	7	Santa Rita 	10	Octubre	2023-10-31T00:00:00	2024-11-08T12:00:00	3	Temperatura mínima	20.9
126284	7	Sololá	704	Santa Lucía Utatlán 	7	Santa Rita 	10	Octubre	2023-10-31T00:00:00	2024-11-08T12:00:00	5	Humedad	75
126285	7	Sololá	704	Santa Lucía Utatlán 	7	Santa Rita 	10	Octubre	2023-10-31T00:00:00	2024-11-08T12:00:00	6	Velocidad del viento	8
126286	7	Sololá	704	Santa Lucía Utatlán 	7	Santa Rita 	10	Octubre	2023-10-31T00:00:00	2024-11-08T12:00:00	7	Dirección del viento	8.05
126287	7	Sololá	704	Santa Lucía Utatlán 	7	Santa Rita 	10	Octubre	2023-10-31T00:00:00	2024-11-08T12:00:00	1	Precipitación	0
126288	7	Sololá	704	Santa Lucía Utatlán 	7	Santa Rita 	10	Octubre	2023-10-31T00:00:00	2024-11-08T12:00:00	8	Radiación solar	317
126289	7	Sololá	704	Santa Lucía Utatlán 	7	Santa Rita 	10	Octubre	2023-10-31T00:00:00	2024-11-08T13:00:00	2	Temperatura media	21.4
126290	7	Sololá	704	Santa Lucía Utatlán 	7	Santa Rita 	10	Octubre	2023-10-31T00:00:00	2024-11-08T13:00:00	4	Temperatura máxima	22
126291	7	Sololá	704	Santa Lucía Utatlán 	7	Santa Rita 	10	Octubre	2023-10-31T00:00:00	2024-11-08T13:00:00	3	Temperatura mínima	21.1
126292	7	Sololá	704	Santa Lucía Utatlán 	7	Santa Rita 	10	Octubre	2023-10-31T00:00:00	2024-11-08T13:00:00	5	Humedad	77
126293	7	Sololá	704	Santa Lucía Utatlán 	7	Santa Rita 	10	Octubre	2023-10-31T00:00:00	2024-11-08T13:00:00	6	Velocidad del viento	12.9
126294	7	Sololá	704	Santa Lucía Utatlán 	7	Santa Rita 	10	Octubre	2023-10-31T00:00:00	2024-11-08T13:00:00	7	Dirección del viento	12.87
126295	7	Sololá	704	Santa Lucía Utatlán 	7	Santa Rita 	10	Octubre	2023-10-31T00:00:00	2024-11-08T13:00:00	1	Precipitación	0
126296	7	Sololá	704	Santa Lucía Utatlán 	7	Santa Rita 	10	Octubre	2023-10-31T00:00:00	2024-11-08T13:00:00	8	Radiación solar	301
126297	7	Sololá	704	Santa Lucía Utatlán 	7	Santa Rita 	10	Octubre	2023-10-31T00:00:00	2024-11-08T14:00:00	2	Temperatura media	18.5
126298	7	Sololá	704	Santa Lucía Utatlán 	7	Santa Rita 	10	Octubre	2023-10-31T00:00:00	2024-11-08T14:00:00	4	Temperatura máxima	18.7
126299	7	Sololá	704	Santa Lucía Utatlán 	7	Santa Rita 	10	Octubre	2023-10-31T00:00:00	2024-11-08T14:00:00	3	Temperatura mínima	18.4
126300	7	Sololá	704	Santa Lucía Utatlán 	7	Santa Rita 	10	Octubre	2023-10-31T00:00:00	2024-11-08T14:00:00	5	Humedad	93
126301	7	Sololá	704	Santa Lucía Utatlán 	7	Santa Rita 	10	Octubre	2023-10-31T00:00:00	2024-11-08T14:00:00	6	Velocidad del viento	3.2
126302	7	Sololá	704	Santa Lucía Utatlán 	7	Santa Rita 	10	Octubre	2023-10-31T00:00:00	2024-11-08T14:00:00	7	Dirección del viento	3.22
126303	7	Sololá	704	Santa Lucía Utatlán 	7	Santa Rita 	10	Octubre	2023-10-31T00:00:00	2024-11-08T14:00:00	1	Precipitación	0
126304	7	Sololá	704	Santa Lucía Utatlán 	7	Santa Rita 	10	Octubre	2023-10-31T00:00:00	2024-11-08T14:00:00	8	Radiación solar	182
126305	7	Sololá	704	Santa Lucía Utatlán 	7	Santa Rita 	10	Octubre	2023-10-31T00:00:00	2024-11-08T15:00:00	2	Temperatura media	18.4
126306	7	Sololá	704	Santa Lucía Utatlán 	7	Santa Rita 	10	Octubre	2023-10-31T00:00:00	2024-11-08T15:00:00	4	Temperatura máxima	18.6
126307	7	Sololá	704	Santa Lucía Utatlán 	7	Santa Rita 	10	Octubre	2023-10-31T00:00:00	2024-11-08T15:00:00	3	Temperatura mínima	18.4
126308	7	Sololá	704	Santa Lucía Utatlán 	7	Santa Rita 	10	Octubre	2023-10-31T00:00:00	2024-11-08T15:00:00	5	Humedad	92
126309	7	Sololá	704	Santa Lucía Utatlán 	7	Santa Rita 	10	Octubre	2023-10-31T00:00:00	2024-11-08T15:00:00	6	Velocidad del viento	3.2
126310	7	Sololá	704	Santa Lucía Utatlán 	7	Santa Rita 	10	Octubre	2023-10-31T00:00:00	2024-11-08T15:00:00	7	Dirección del viento	3.22
126311	7	Sololá	704	Santa Lucía Utatlán 	7	Santa Rita 	10	Octubre	2023-10-31T00:00:00	2024-11-08T15:00:00	1	Precipitación	1.6
126312	7	Sololá	704	Santa Lucía Utatlán 	7	Santa Rita 	10	Octubre	2023-10-31T00:00:00	2024-11-08T15:00:00	8	Radiación solar	23
126313	7	Sololá	704	Santa Lucía Utatlán 	7	Santa Rita 	10	Octubre	2023-10-31T00:00:00	2024-11-08T16:00:00	2	Temperatura media	17.9
126314	7	Sololá	704	Santa Lucía Utatlán 	7	Santa Rita 	10	Octubre	2023-10-31T00:00:00	2024-11-08T16:00:00	4	Temperatura máxima	18.4
126315	7	Sololá	704	Santa Lucía Utatlán 	7	Santa Rita 	10	Octubre	2023-10-31T00:00:00	2024-11-08T16:00:00	3	Temperatura mínima	17.9
126316	7	Sololá	704	Santa Lucía Utatlán 	7	Santa Rita 	10	Octubre	2023-10-31T00:00:00	2024-11-08T16:00:00	5	Humedad	92
126317	7	Sololá	704	Santa Lucía Utatlán 	7	Santa Rita 	10	Octubre	2023-10-31T00:00:00	2024-11-08T16:00:00	6	Velocidad del viento	3.2
126318	7	Sololá	704	Santa Lucía Utatlán 	7	Santa Rita 	10	Octubre	2023-10-31T00:00:00	2024-11-08T16:00:00	7	Dirección del viento	3.22
126319	7	Sololá	704	Santa Lucía Utatlán 	7	Santa Rita 	10	Octubre	2023-10-31T00:00:00	2024-11-08T16:00:00	1	Precipitación	0.4
126320	7	Sololá	704	Santa Lucía Utatlán 	7	Santa Rita 	10	Octubre	2023-10-31T00:00:00	2024-11-08T16:00:00	8	Radiación solar	39
126321	7	Sololá	704	Santa Lucía Utatlán 	7	Santa Rita 	10	Octubre	2023-10-31T00:00:00	2024-11-08T17:00:00	2	Temperatura media	17.6
126322	7	Sololá	704	Santa Lucía Utatlán 	7	Santa Rita 	10	Octubre	2023-10-31T00:00:00	2024-11-08T17:00:00	4	Temperatura máxima	17.9
126323	7	Sololá	704	Santa Lucía Utatlán 	7	Santa Rita 	10	Octubre	2023-10-31T00:00:00	2024-11-08T17:00:00	3	Temperatura mínima	17.5
126324	7	Sololá	704	Santa Lucía Utatlán 	7	Santa Rita 	10	Octubre	2023-10-31T00:00:00	2024-11-08T17:00:00	5	Humedad	94
126325	7	Sololá	704	Santa Lucía Utatlán 	7	Santa Rita 	10	Octubre	2023-10-31T00:00:00	2024-11-08T17:00:00	6	Velocidad del viento	3.2
126326	7	Sololá	704	Santa Lucía Utatlán 	7	Santa Rita 	10	Octubre	2023-10-31T00:00:00	2024-11-08T17:00:00	7	Dirección del viento	3.22
126327	7	Sololá	704	Santa Lucía Utatlán 	7	Santa Rita 	10	Octubre	2023-10-31T00:00:00	2024-11-08T17:00:00	1	Precipitación	0
126328	7	Sololá	704	Santa Lucía Utatlán 	7	Santa Rita 	10	Octubre	2023-10-31T00:00:00	2024-11-08T17:00:00	8	Radiación solar	31
126329	7	Sololá	704	Santa Lucía Utatlán 	7	Santa Rita 	10	Octubre	2023-10-31T00:00:00	2024-11-08T18:00:00	2	Temperatura media	17.8
126330	7	Sololá	704	Santa Lucía Utatlán 	7	Santa Rita 	10	Octubre	2023-10-31T00:00:00	2024-11-08T18:00:00	4	Temperatura máxima	17.8
126331	7	Sololá	704	Santa Lucía Utatlán 	7	Santa Rita 	10	Octubre	2023-10-31T00:00:00	2024-11-08T18:00:00	3	Temperatura mínima	17.4
126332	7	Sololá	704	Santa Lucía Utatlán 	7	Santa Rita 	10	Octubre	2023-10-31T00:00:00	2024-11-08T18:00:00	5	Humedad	94
126333	7	Sololá	704	Santa Lucía Utatlán 	7	Santa Rita 	10	Octubre	2023-10-31T00:00:00	2024-11-08T18:00:00	6	Velocidad del viento	3.2
126334	7	Sololá	704	Santa Lucía Utatlán 	7	Santa Rita 	10	Octubre	2023-10-31T00:00:00	2024-11-08T18:00:00	7	Dirección del viento	3.22
126335	7	Sololá	704	Santa Lucía Utatlán 	7	Santa Rita 	10	Octubre	2023-10-31T00:00:00	2024-11-08T18:00:00	1	Precipitación	0
126336	7	Sololá	704	Santa Lucía Utatlán 	7	Santa Rita 	10	Octubre	2023-10-31T00:00:00	2024-11-08T18:00:00	8	Radiación solar	1
126337	7	Sololá	704	Santa Lucía Utatlán 	7	Santa Rita 	10	Octubre	2023-10-31T00:00:00	2024-11-08T19:00:00	2	Temperatura media	19.5
126338	7	Sololá	704	Santa Lucía Utatlán 	7	Santa Rita 	10	Octubre	2023-10-31T00:00:00	2024-11-08T19:00:00	4	Temperatura máxima	20.1
126339	7	Sololá	704	Santa Lucía Utatlán 	7	Santa Rita 	10	Octubre	2023-10-31T00:00:00	2024-11-08T19:00:00	3	Temperatura mínima	19.4
126340	7	Sololá	704	Santa Lucía Utatlán 	7	Santa Rita 	10	Octubre	2023-10-31T00:00:00	2024-11-08T19:00:00	5	Humedad	81
126341	7	Sololá	704	Santa Lucía Utatlán 	7	Santa Rita 	10	Octubre	2023-10-31T00:00:00	2024-11-08T19:00:00	6	Velocidad del viento	8
126342	7	Sololá	704	Santa Lucía Utatlán 	7	Santa Rita 	10	Octubre	2023-10-31T00:00:00	2024-11-08T19:00:00	7	Dirección del viento	8.05
126343	7	Sololá	704	Santa Lucía Utatlán 	7	Santa Rita 	10	Octubre	2023-10-31T00:00:00	2024-11-08T19:00:00	1	Precipitación	0
126344	7	Sololá	704	Santa Lucía Utatlán 	7	Santa Rita 	10	Octubre	2023-10-31T00:00:00	2024-11-08T19:00:00	8	Radiación solar	0
126345	7	Sololá	704	Santa Lucía Utatlán 	7	Santa Rita 	10	Octubre	2023-10-31T00:00:00	2024-11-08T20:00:00	2	Temperatura media	19.4
126346	7	Sololá	704	Santa Lucía Utatlán 	7	Santa Rita 	10	Octubre	2023-10-31T00:00:00	2024-11-08T20:00:00	4	Temperatura máxima	19.5
126347	7	Sololá	704	Santa Lucía Utatlán 	7	Santa Rita 	10	Octubre	2023-10-31T00:00:00	2024-11-08T20:00:00	3	Temperatura mínima	19.3
126348	7	Sololá	704	Santa Lucía Utatlán 	7	Santa Rita 	10	Octubre	2023-10-31T00:00:00	2024-11-08T20:00:00	5	Humedad	80
126349	7	Sololá	704	Santa Lucía Utatlán 	7	Santa Rita 	10	Octubre	2023-10-31T00:00:00	2024-11-08T20:00:00	6	Velocidad del viento	8
126350	7	Sololá	704	Santa Lucía Utatlán 	7	Santa Rita 	10	Octubre	2023-10-31T00:00:00	2024-11-08T20:00:00	7	Dirección del viento	8.05
126351	7	Sololá	704	Santa Lucía Utatlán 	7	Santa Rita 	10	Octubre	2023-10-31T00:00:00	2024-11-08T20:00:00	1	Precipitación	0
126352	7	Sololá	704	Santa Lucía Utatlán 	7	Santa Rita 	10	Octubre	2023-10-31T00:00:00	2024-11-08T20:00:00	8	Radiación solar	0
126353	7	Sololá	704	Santa Lucía Utatlán 	7	Santa Rita 	10	Octubre	2023-10-31T00:00:00	2024-11-08T21:00:00	2	Temperatura media	19.7
126354	7	Sololá	704	Santa Lucía Utatlán 	7	Santa Rita 	10	Octubre	2023-10-31T00:00:00	2024-11-08T21:00:00	4	Temperatura máxima	19.7
126355	7	Sololá	704	Santa Lucía Utatlán 	7	Santa Rita 	10	Octubre	2023-10-31T00:00:00	2024-11-08T21:00:00	3	Temperatura mínima	19.2
126356	7	Sololá	704	Santa Lucía Utatlán 	7	Santa Rita 	10	Octubre	2023-10-31T00:00:00	2024-11-08T21:00:00	5	Humedad	77
126357	7	Sololá	704	Santa Lucía Utatlán 	7	Santa Rita 	10	Octubre	2023-10-31T00:00:00	2024-11-08T21:00:00	6	Velocidad del viento	8
126358	7	Sololá	704	Santa Lucía Utatlán 	7	Santa Rita 	10	Octubre	2023-10-31T00:00:00	2024-11-08T21:00:00	7	Dirección del viento	8.05
126359	7	Sololá	704	Santa Lucía Utatlán 	7	Santa Rita 	10	Octubre	2023-10-31T00:00:00	2024-11-08T21:00:00	1	Precipitación	0
126360	7	Sololá	704	Santa Lucía Utatlán 	7	Santa Rita 	10	Octubre	2023-10-31T00:00:00	2024-11-08T21:00:00	8	Radiación solar	0
126361	7	Sololá	704	Santa Lucía Utatlán 	7	Santa Rita 	10	Octubre	2023-10-31T00:00:00	2024-11-08T22:00:00	2	Temperatura media	19.1
126362	7	Sololá	704	Santa Lucía Utatlán 	7	Santa Rita 	10	Octubre	2023-10-31T00:00:00	2024-11-08T22:00:00	4	Temperatura máxima	19.7
126363	7	Sololá	704	Santa Lucía Utatlán 	7	Santa Rita 	10	Octubre	2023-10-31T00:00:00	2024-11-08T22:00:00	3	Temperatura mínima	18.9
126364	7	Sololá	704	Santa Lucía Utatlán 	7	Santa Rita 	10	Octubre	2023-10-31T00:00:00	2024-11-08T22:00:00	5	Humedad	78
126365	7	Sololá	704	Santa Lucía Utatlán 	7	Santa Rita 	10	Octubre	2023-10-31T00:00:00	2024-11-08T22:00:00	6	Velocidad del viento	9.7
126366	7	Sololá	704	Santa Lucía Utatlán 	7	Santa Rita 	10	Octubre	2023-10-31T00:00:00	2024-11-08T22:00:00	7	Dirección del viento	9.66
126367	7	Sololá	704	Santa Lucía Utatlán 	7	Santa Rita 	10	Octubre	2023-10-31T00:00:00	2024-11-08T22:00:00	1	Precipitación	0
126368	7	Sololá	704	Santa Lucía Utatlán 	7	Santa Rita 	10	Octubre	2023-10-31T00:00:00	2024-11-08T22:00:00	8	Radiación solar	0
126369	7	Sololá	704	Santa Lucía Utatlán 	7	Santa Rita 	10	Octubre	2023-10-31T00:00:00	2024-11-08T23:00:00	2	Temperatura media	18.6
126370	7	Sololá	704	Santa Lucía Utatlán 	7	Santa Rita 	10	Octubre	2023-10-31T00:00:00	2024-11-08T23:00:00	4	Temperatura máxima	19.3
126371	7	Sololá	704	Santa Lucía Utatlán 	7	Santa Rita 	10	Octubre	2023-10-31T00:00:00	2024-11-08T23:00:00	3	Temperatura mínima	18.5
126372	7	Sololá	704	Santa Lucía Utatlán 	7	Santa Rita 	10	Octubre	2023-10-31T00:00:00	2024-11-08T23:00:00	5	Humedad	77
126373	7	Sololá	704	Santa Lucía Utatlán 	7	Santa Rita 	10	Octubre	2023-10-31T00:00:00	2024-11-08T23:00:00	6	Velocidad del viento	6.4
126374	7	Sololá	704	Santa Lucía Utatlán 	7	Santa Rita 	10	Octubre	2023-10-31T00:00:00	2024-11-08T23:00:00	7	Dirección del viento	6.44
126375	7	Sololá	704	Santa Lucía Utatlán 	7	Santa Rita 	10	Octubre	2023-10-31T00:00:00	2024-11-08T23:00:00	1	Precipitación	0
126376	7	Sololá	704	Santa Lucía Utatlán 	7	Santa Rita 	10	Octubre	2023-10-31T00:00:00	2024-11-08T23:00:00	8	Radiación solar	0
126377	7	Sololá	704	Santa Lucía Utatlán 	7	Santa Rita 	11	Noviembre	2023-01-11T00:00:00	2024-11-08T00:00:00	2	Temperatura media	19.1
126378	7	Sololá	704	Santa Lucía Utatlán 	7	Santa Rita 	11	Noviembre	2023-01-11T00:00:00	2024-11-08T00:00:00	4	Temperatura máxima	19.2
126379	7	Sololá	704	Santa Lucía Utatlán 	7	Santa Rita 	11	Noviembre	2023-01-11T00:00:00	2024-11-08T00:00:00	3	Temperatura mínima	18.6
126380	7	Sololá	704	Santa Lucía Utatlán 	7	Santa Rita 	11	Noviembre	2023-01-11T00:00:00	2024-11-08T00:00:00	5	Humedad	74
126381	7	Sololá	704	Santa Lucía Utatlán 	7	Santa Rita 	11	Noviembre	2023-01-11T00:00:00	2024-11-08T00:00:00	6	Velocidad del viento	6.4
126382	7	Sololá	704	Santa Lucía Utatlán 	7	Santa Rita 	11	Noviembre	2023-01-11T00:00:00	2024-11-08T00:00:00	7	Dirección del viento	6.44
126383	7	Sololá	704	Santa Lucía Utatlán 	7	Santa Rita 	11	Noviembre	2023-01-11T00:00:00	2024-11-08T00:00:00	1	Precipitación	0
126384	7	Sololá	704	Santa Lucía Utatlán 	7	Santa Rita 	11	Noviembre	2023-01-11T00:00:00	2024-11-08T00:00:00	8	Radiación solar	0
126385	7	Sololá	704	Santa Lucía Utatlán 	7	Santa Rita 	11	Noviembre	2023-01-11T00:00:00	2024-11-08T01:00:00	2	Temperatura media	18.8
126386	7	Sololá	704	Santa Lucía Utatlán 	7	Santa Rita 	11	Noviembre	2023-01-11T00:00:00	2024-11-08T01:00:00	4	Temperatura máxima	19.1
126387	7	Sololá	704	Santa Lucía Utatlán 	7	Santa Rita 	11	Noviembre	2023-01-11T00:00:00	2024-11-08T01:00:00	3	Temperatura mínima	18.4
126388	7	Sololá	704	Santa Lucía Utatlán 	7	Santa Rita 	11	Noviembre	2023-01-11T00:00:00	2024-11-08T01:00:00	5	Humedad	73
126389	7	Sololá	704	Santa Lucía Utatlán 	7	Santa Rita 	11	Noviembre	2023-01-11T00:00:00	2024-11-08T01:00:00	6	Velocidad del viento	6.4
126390	7	Sololá	704	Santa Lucía Utatlán 	7	Santa Rita 	11	Noviembre	2023-01-11T00:00:00	2024-11-08T01:00:00	7	Dirección del viento	6.44
126391	7	Sololá	704	Santa Lucía Utatlán 	7	Santa Rita 	11	Noviembre	2023-01-11T00:00:00	2024-11-08T01:00:00	1	Precipitación	0
126392	7	Sololá	704	Santa Lucía Utatlán 	7	Santa Rita 	11	Noviembre	2023-01-11T00:00:00	2024-11-08T01:00:00	8	Radiación solar	0
126393	7	Sololá	704	Santa Lucía Utatlán 	7	Santa Rita 	11	Noviembre	2023-01-11T00:00:00	2024-11-08T02:00:00	2	Temperatura media	18.9
126394	7	Sololá	704	Santa Lucía Utatlán 	7	Santa Rita 	11	Noviembre	2023-01-11T00:00:00	2024-11-08T02:00:00	4	Temperatura máxima	19
126395	7	Sololá	704	Santa Lucía Utatlán 	7	Santa Rita 	11	Noviembre	2023-01-11T00:00:00	2024-11-08T02:00:00	3	Temperatura mínima	18.8
126396	7	Sololá	704	Santa Lucía Utatlán 	7	Santa Rita 	11	Noviembre	2023-01-11T00:00:00	2024-11-08T02:00:00	5	Humedad	72
126397	7	Sololá	704	Santa Lucía Utatlán 	7	Santa Rita 	11	Noviembre	2023-01-11T00:00:00	2024-11-08T02:00:00	6	Velocidad del viento	6.4
126398	7	Sololá	704	Santa Lucía Utatlán 	7	Santa Rita 	11	Noviembre	2023-01-11T00:00:00	2024-11-08T02:00:00	7	Dirección del viento	6.44
126399	7	Sololá	704	Santa Lucía Utatlán 	7	Santa Rita 	11	Noviembre	2023-01-11T00:00:00	2024-11-08T02:00:00	1	Precipitación	0
126400	7	Sololá	704	Santa Lucía Utatlán 	7	Santa Rita 	11	Noviembre	2023-01-11T00:00:00	2024-11-08T02:00:00	8	Radiación solar	0
126401	7	Sololá	704	Santa Lucía Utatlán 	7	Santa Rita 	11	Noviembre	2023-01-11T00:00:00	2024-11-08T03:00:00	2	Temperatura media	20.2
126402	7	Sololá	704	Santa Lucía Utatlán 	7	Santa Rita 	11	Noviembre	2023-01-11T00:00:00	2024-11-08T03:00:00	4	Temperatura máxima	20.3
126403	7	Sololá	704	Santa Lucía Utatlán 	7	Santa Rita 	11	Noviembre	2023-01-11T00:00:00	2024-11-08T03:00:00	3	Temperatura mínima	18.7
126404	7	Sololá	704	Santa Lucía Utatlán 	7	Santa Rita 	11	Noviembre	2023-01-11T00:00:00	2024-11-08T03:00:00	5	Humedad	67
126405	7	Sololá	704	Santa Lucía Utatlán 	7	Santa Rita 	11	Noviembre	2023-01-11T00:00:00	2024-11-08T03:00:00	6	Velocidad del viento	8
126406	7	Sololá	704	Santa Lucía Utatlán 	7	Santa Rita 	11	Noviembre	2023-01-11T00:00:00	2024-11-08T03:00:00	7	Dirección del viento	8.05
126407	7	Sololá	704	Santa Lucía Utatlán 	7	Santa Rita 	11	Noviembre	2023-01-11T00:00:00	2024-11-08T03:00:00	1	Precipitación	0
126408	7	Sololá	704	Santa Lucía Utatlán 	7	Santa Rita 	11	Noviembre	2023-01-11T00:00:00	2024-11-08T03:00:00	8	Radiación solar	0
126409	7	Sololá	704	Santa Lucía Utatlán 	7	Santa Rita 	11	Noviembre	2023-01-11T00:00:00	2024-11-08T04:00:00	2	Temperatura media	19.3
126410	7	Sololá	704	Santa Lucía Utatlán 	7	Santa Rita 	11	Noviembre	2023-01-11T00:00:00	2024-11-08T04:00:00	4	Temperatura máxima	20.3
126411	7	Sololá	704	Santa Lucía Utatlán 	7	Santa Rita 	11	Noviembre	2023-01-11T00:00:00	2024-11-08T04:00:00	3	Temperatura mínima	18.7
126412	7	Sololá	704	Santa Lucía Utatlán 	7	Santa Rita 	11	Noviembre	2023-01-11T00:00:00	2024-11-08T04:00:00	5	Humedad	72
126413	7	Sololá	704	Santa Lucía Utatlán 	7	Santa Rita 	11	Noviembre	2023-01-11T00:00:00	2024-11-08T04:00:00	6	Velocidad del viento	4.8
126414	7	Sololá	704	Santa Lucía Utatlán 	7	Santa Rita 	11	Noviembre	2023-01-11T00:00:00	2024-11-08T04:00:00	7	Dirección del viento	4.83
126415	7	Sololá	704	Santa Lucía Utatlán 	7	Santa Rita 	11	Noviembre	2023-01-11T00:00:00	2024-11-08T04:00:00	1	Precipitación	0
126416	7	Sololá	704	Santa Lucía Utatlán 	7	Santa Rita 	11	Noviembre	2023-01-11T00:00:00	2024-11-08T04:00:00	8	Radiación solar	0
126417	7	Sololá	704	Santa Lucía Utatlán 	7	Santa Rita 	11	Noviembre	2023-01-11T00:00:00	2024-11-08T05:00:00	2	Temperatura media	21
126418	7	Sololá	704	Santa Lucía Utatlán 	7	Santa Rita 	11	Noviembre	2023-01-11T00:00:00	2024-11-08T05:00:00	4	Temperatura máxima	21.1
126419	7	Sololá	704	Santa Lucía Utatlán 	7	Santa Rita 	11	Noviembre	2023-01-11T00:00:00	2024-11-08T05:00:00	3	Temperatura mínima	19.3
126420	7	Sololá	704	Santa Lucía Utatlán 	7	Santa Rita 	11	Noviembre	2023-01-11T00:00:00	2024-11-08T05:00:00	5	Humedad	69
126421	7	Sololá	704	Santa Lucía Utatlán 	7	Santa Rita 	11	Noviembre	2023-01-11T00:00:00	2024-11-08T05:00:00	6	Velocidad del viento	4.8
126422	7	Sololá	704	Santa Lucía Utatlán 	7	Santa Rita 	11	Noviembre	2023-01-11T00:00:00	2024-11-08T05:00:00	7	Dirección del viento	4.83
126423	7	Sololá	704	Santa Lucía Utatlán 	7	Santa Rita 	11	Noviembre	2023-01-11T00:00:00	2024-11-08T05:00:00	1	Precipitación	0
126424	7	Sololá	704	Santa Lucía Utatlán 	7	Santa Rita 	11	Noviembre	2023-01-11T00:00:00	2024-11-08T05:00:00	8	Radiación solar	0
126425	7	Sololá	704	Santa Lucía Utatlán 	7	Santa Rita 	11	Noviembre	2023-01-11T00:00:00	2024-11-08T06:00:00	2	Temperatura media	21.2
126426	7	Sololá	704	Santa Lucía Utatlán 	7	Santa Rita 	11	Noviembre	2023-01-11T00:00:00	2024-11-08T06:00:00	4	Temperatura máxima	21.8
126427	7	Sololá	704	Santa Lucía Utatlán 	7	Santa Rita 	11	Noviembre	2023-01-11T00:00:00	2024-11-08T06:00:00	3	Temperatura mínima	20.9
126428	7	Sololá	704	Santa Lucía Utatlán 	7	Santa Rita 	11	Noviembre	2023-01-11T00:00:00	2024-11-08T06:00:00	5	Humedad	71
126429	7	Sololá	704	Santa Lucía Utatlán 	7	Santa Rita 	11	Noviembre	2023-01-11T00:00:00	2024-11-08T06:00:00	6	Velocidad del viento	8
126430	7	Sololá	704	Santa Lucía Utatlán 	7	Santa Rita 	11	Noviembre	2023-01-11T00:00:00	2024-11-08T06:00:00	7	Dirección del viento	8.05
126431	7	Sololá	704	Santa Lucía Utatlán 	7	Santa Rita 	11	Noviembre	2023-01-11T00:00:00	2024-11-08T06:00:00	1	Precipitación	0
126432	7	Sololá	704	Santa Lucía Utatlán 	7	Santa Rita 	11	Noviembre	2023-01-11T00:00:00	2024-11-08T06:00:00	8	Radiación solar	1
126433	7	Sololá	704	Santa Lucía Utatlán 	7	Santa Rita 	11	Noviembre	2023-01-11T00:00:00	2024-11-08T07:00:00	2	Temperatura media	21.2
126434	7	Sololá	704	Santa Lucía Utatlán 	7	Santa Rita 	11	Noviembre	2023-01-11T00:00:00	2024-11-08T07:00:00	4	Temperatura máxima	21.6
126435	7	Sololá	704	Santa Lucía Utatlán 	7	Santa Rita 	11	Noviembre	2023-01-11T00:00:00	2024-11-08T07:00:00	3	Temperatura mínima	21.2
126436	7	Sololá	704	Santa Lucía Utatlán 	7	Santa Rita 	11	Noviembre	2023-01-11T00:00:00	2024-11-08T07:00:00	5	Humedad	72
126437	7	Sololá	704	Santa Lucía Utatlán 	7	Santa Rita 	11	Noviembre	2023-01-11T00:00:00	2024-11-08T07:00:00	6	Velocidad del viento	9.7
126438	7	Sololá	704	Santa Lucía Utatlán 	7	Santa Rita 	11	Noviembre	2023-01-11T00:00:00	2024-11-08T07:00:00	7	Dirección del viento	9.66
126439	7	Sololá	704	Santa Lucía Utatlán 	7	Santa Rita 	11	Noviembre	2023-01-11T00:00:00	2024-11-08T07:00:00	1	Precipitación	0
126440	7	Sololá	704	Santa Lucía Utatlán 	7	Santa Rita 	11	Noviembre	2023-01-11T00:00:00	2024-11-08T07:00:00	8	Radiación solar	29
126441	7	Sololá	704	Santa Lucía Utatlán 	7	Santa Rita 	11	Noviembre	2023-01-11T00:00:00	2024-11-08T08:00:00	2	Temperatura media	22.1
126442	7	Sololá	704	Santa Lucía Utatlán 	7	Santa Rita 	11	Noviembre	2023-01-11T00:00:00	2024-11-08T08:00:00	4	Temperatura máxima	22.1
126443	7	Sololá	704	Santa Lucía Utatlán 	7	Santa Rita 	11	Noviembre	2023-01-11T00:00:00	2024-11-08T08:00:00	3	Temperatura mínima	21.1
126444	7	Sololá	704	Santa Lucía Utatlán 	7	Santa Rita 	11	Noviembre	2023-01-11T00:00:00	2024-11-08T08:00:00	5	Humedad	71
126445	7	Sololá	704	Santa Lucía Utatlán 	7	Santa Rita 	11	Noviembre	2023-01-11T00:00:00	2024-11-08T08:00:00	6	Velocidad del viento	14.5
126446	7	Sololá	704	Santa Lucía Utatlán 	7	Santa Rita 	11	Noviembre	2023-01-11T00:00:00	2024-11-08T08:00:00	7	Dirección del viento	14.48
126447	7	Sololá	704	Santa Lucía Utatlán 	7	Santa Rita 	11	Noviembre	2023-01-11T00:00:00	2024-11-08T08:00:00	1	Precipitación	0
126448	7	Sololá	704	Santa Lucía Utatlán 	7	Santa Rita 	11	Noviembre	2023-01-11T00:00:00	2024-11-08T08:00:00	8	Radiación solar	152
126449	7	Sololá	704	Santa Lucía Utatlán 	7	Santa Rita 	11	Noviembre	2023-01-11T00:00:00	2024-11-08T09:00:00	2	Temperatura media	22.4
126450	7	Sololá	704	Santa Lucía Utatlán 	7	Santa Rita 	11	Noviembre	2023-01-11T00:00:00	2024-11-08T09:00:00	4	Temperatura máxima	22.6
126451	7	Sololá	704	Santa Lucía Utatlán 	7	Santa Rita 	11	Noviembre	2023-01-11T00:00:00	2024-11-08T09:00:00	3	Temperatura mínima	22.1
126452	7	Sololá	704	Santa Lucía Utatlán 	7	Santa Rita 	11	Noviembre	2023-01-11T00:00:00	2024-11-08T09:00:00	5	Humedad	70
126453	7	Sololá	704	Santa Lucía Utatlán 	7	Santa Rita 	11	Noviembre	2023-01-11T00:00:00	2024-11-08T09:00:00	6	Velocidad del viento	17.7
126454	7	Sololá	704	Santa Lucía Utatlán 	7	Santa Rita 	11	Noviembre	2023-01-11T00:00:00	2024-11-08T09:00:00	7	Dirección del viento	17.7
126455	7	Sololá	704	Santa Lucía Utatlán 	7	Santa Rita 	11	Noviembre	2023-01-11T00:00:00	2024-11-08T09:00:00	1	Precipitación	0
126456	7	Sololá	704	Santa Lucía Utatlán 	7	Santa Rita 	11	Noviembre	2023-01-11T00:00:00	2024-11-08T09:00:00	8	Radiación solar	309
126457	7	Sololá	704	Santa Lucía Utatlán 	7	Santa Rita 	11	Noviembre	2023-01-11T00:00:00	2024-11-08T10:00:00	2	Temperatura media	19.9
126458	7	Sololá	704	Santa Lucía Utatlán 	7	Santa Rita 	11	Noviembre	2023-01-11T00:00:00	2024-11-08T10:00:00	4	Temperatura máxima	20.2
126459	7	Sololá	704	Santa Lucía Utatlán 	7	Santa Rita 	11	Noviembre	2023-01-11T00:00:00	2024-11-08T10:00:00	3	Temperatura mínima	19.8
126460	7	Sololá	704	Santa Lucía Utatlán 	7	Santa Rita 	11	Noviembre	2023-01-11T00:00:00	2024-11-08T10:00:00	5	Humedad	87
126461	7	Sololá	704	Santa Lucía Utatlán 	7	Santa Rita 	11	Noviembre	2023-01-11T00:00:00	2024-11-08T10:00:00	6	Velocidad del viento	9.7
126462	7	Sololá	704	Santa Lucía Utatlán 	7	Santa Rita 	11	Noviembre	2023-01-11T00:00:00	2024-11-08T10:00:00	7	Dirección del viento	9.66
126463	7	Sololá	704	Santa Lucía Utatlán 	7	Santa Rita 	11	Noviembre	2023-01-11T00:00:00	2024-11-08T10:00:00	1	Precipitación	0
126464	7	Sololá	704	Santa Lucía Utatlán 	7	Santa Rita 	11	Noviembre	2023-01-11T00:00:00	2024-11-08T10:00:00	8	Radiación solar	322
126465	7	Sololá	704	Santa Lucía Utatlán 	7	Santa Rita 	11	Noviembre	2023-01-11T00:00:00	2024-11-08T11:00:00	2	Temperatura media	20.1
126466	7	Sololá	704	Santa Lucía Utatlán 	7	Santa Rita 	11	Noviembre	2023-01-11T00:00:00	2024-11-08T11:00:00	4	Temperatura máxima	20.1
126467	7	Sololá	704	Santa Lucía Utatlán 	7	Santa Rita 	11	Noviembre	2023-01-11T00:00:00	2024-11-08T11:00:00	3	Temperatura mínima	19.7
126468	7	Sololá	704	Santa Lucía Utatlán 	7	Santa Rita 	11	Noviembre	2023-01-11T00:00:00	2024-11-08T11:00:00	5	Humedad	85
126469	7	Sololá	704	Santa Lucía Utatlán 	7	Santa Rita 	11	Noviembre	2023-01-11T00:00:00	2024-11-08T11:00:00	6	Velocidad del viento	6.4
126470	7	Sololá	704	Santa Lucía Utatlán 	7	Santa Rita 	11	Noviembre	2023-01-11T00:00:00	2024-11-08T11:00:00	7	Dirección del viento	6.44
126471	7	Sololá	704	Santa Lucía Utatlán 	7	Santa Rita 	11	Noviembre	2023-01-11T00:00:00	2024-11-08T11:00:00	1	Precipitación	0
126472	7	Sololá	704	Santa Lucía Utatlán 	7	Santa Rita 	11	Noviembre	2023-01-11T00:00:00	2024-11-08T11:00:00	8	Radiación solar	392
126473	7	Sololá	704	Santa Lucía Utatlán 	7	Santa Rita 	11	Noviembre	2023-01-11T00:00:00	2024-11-08T12:00:00	2	Temperatura media	19.3
126474	7	Sololá	704	Santa Lucía Utatlán 	7	Santa Rita 	11	Noviembre	2023-01-11T00:00:00	2024-11-08T12:00:00	4	Temperatura máxima	20.2
126475	7	Sololá	704	Santa Lucía Utatlán 	7	Santa Rita 	11	Noviembre	2023-01-11T00:00:00	2024-11-08T12:00:00	3	Temperatura mínima	19.2
126476	7	Sololá	704	Santa Lucía Utatlán 	7	Santa Rita 	11	Noviembre	2023-01-11T00:00:00	2024-11-08T12:00:00	5	Humedad	89
126477	7	Sololá	704	Santa Lucía Utatlán 	7	Santa Rita 	11	Noviembre	2023-01-11T00:00:00	2024-11-08T12:00:00	6	Velocidad del viento	8
126478	7	Sololá	704	Santa Lucía Utatlán 	7	Santa Rita 	11	Noviembre	2023-01-11T00:00:00	2024-11-08T12:00:00	7	Dirección del viento	8.05
126479	7	Sololá	704	Santa Lucía Utatlán 	7	Santa Rita 	11	Noviembre	2023-01-11T00:00:00	2024-11-08T12:00:00	1	Precipitación	0.8
126480	7	Sololá	704	Santa Lucía Utatlán 	7	Santa Rita 	11	Noviembre	2023-01-11T00:00:00	2024-11-08T12:00:00	8	Radiación solar	596
126481	7	Sololá	704	Santa Lucía Utatlán 	7	Santa Rita 	11	Noviembre	2023-01-11T00:00:00	2024-11-08T13:00:00	2	Temperatura media	19.3
126482	7	Sololá	704	Santa Lucía Utatlán 	7	Santa Rita 	11	Noviembre	2023-01-11T00:00:00	2024-11-08T13:00:00	4	Temperatura máxima	19.8
126483	7	Sololá	704	Santa Lucía Utatlán 	7	Santa Rita 	11	Noviembre	2023-01-11T00:00:00	2024-11-08T13:00:00	3	Temperatura mínima	19.3
126484	7	Sololá	704	Santa Lucía Utatlán 	7	Santa Rita 	11	Noviembre	2023-01-11T00:00:00	2024-11-08T13:00:00	5	Humedad	89
126485	7	Sololá	704	Santa Lucía Utatlán 	7	Santa Rita 	11	Noviembre	2023-01-11T00:00:00	2024-11-08T13:00:00	6	Velocidad del viento	6.4
126486	7	Sololá	704	Santa Lucía Utatlán 	7	Santa Rita 	11	Noviembre	2023-01-11T00:00:00	2024-11-08T13:00:00	7	Dirección del viento	6.44
126487	7	Sololá	704	Santa Lucía Utatlán 	7	Santa Rita 	11	Noviembre	2023-01-11T00:00:00	2024-11-08T13:00:00	1	Precipitación	0.2
126488	7	Sololá	704	Santa Lucía Utatlán 	7	Santa Rita 	11	Noviembre	2023-01-11T00:00:00	2024-11-08T13:00:00	8	Radiación solar	644
126489	7	Sololá	704	Santa Lucía Utatlán 	7	Santa Rita 	11	Noviembre	2023-01-11T00:00:00	2024-11-08T14:00:00	2	Temperatura media	19.7
126490	7	Sololá	704	Santa Lucía Utatlán 	7	Santa Rita 	11	Noviembre	2023-01-11T00:00:00	2024-11-08T14:00:00	4	Temperatura máxima	19.8
126491	7	Sololá	704	Santa Lucía Utatlán 	7	Santa Rita 	11	Noviembre	2023-01-11T00:00:00	2024-11-08T14:00:00	3	Temperatura mínima	18.6
126492	7	Sololá	704	Santa Lucía Utatlán 	7	Santa Rita 	11	Noviembre	2023-01-11T00:00:00	2024-11-08T14:00:00	5	Humedad	85
126493	7	Sololá	704	Santa Lucía Utatlán 	7	Santa Rita 	11	Noviembre	2023-01-11T00:00:00	2024-11-08T14:00:00	6	Velocidad del viento	4.8
126494	7	Sololá	704	Santa Lucía Utatlán 	7	Santa Rita 	11	Noviembre	2023-01-11T00:00:00	2024-11-08T14:00:00	7	Dirección del viento	4.83
126495	7	Sololá	704	Santa Lucía Utatlán 	7	Santa Rita 	11	Noviembre	2023-01-11T00:00:00	2024-11-08T14:00:00	1	Precipitación	0
126496	7	Sololá	704	Santa Lucía Utatlán 	7	Santa Rita 	11	Noviembre	2023-01-11T00:00:00	2024-11-08T14:00:00	8	Radiación solar	322
126497	7	Sololá	704	Santa Lucía Utatlán 	7	Santa Rita 	11	Noviembre	2023-01-11T00:00:00	2024-11-08T15:00:00	2	Temperatura media	18.7
126498	7	Sololá	704	Santa Lucía Utatlán 	7	Santa Rita 	11	Noviembre	2023-01-11T00:00:00	2024-11-08T15:00:00	4	Temperatura máxima	19.3
126499	7	Sololá	704	Santa Lucía Utatlán 	7	Santa Rita 	11	Noviembre	2023-01-11T00:00:00	2024-11-08T15:00:00	3	Temperatura mínima	17.7
126500	7	Sololá	704	Santa Lucía Utatlán 	7	Santa Rita 	11	Noviembre	2023-01-11T00:00:00	2024-11-08T15:00:00	5	Humedad	94
126501	7	Sololá	704	Santa Lucía Utatlán 	7	Santa Rita 	11	Noviembre	2023-01-11T00:00:00	2024-11-08T15:00:00	6	Velocidad del viento	4.8
126502	7	Sololá	704	Santa Lucía Utatlán 	7	Santa Rita 	11	Noviembre	2023-01-11T00:00:00	2024-11-08T15:00:00	7	Dirección del viento	4.83
126503	7	Sololá	704	Santa Lucía Utatlán 	7	Santa Rita 	11	Noviembre	2023-01-11T00:00:00	2024-11-08T15:00:00	1	Precipitación	10.8
126504	7	Sololá	704	Santa Lucía Utatlán 	7	Santa Rita 	11	Noviembre	2023-01-11T00:00:00	2024-11-08T15:00:00	8	Radiación solar	229
126505	7	Sololá	704	Santa Lucía Utatlán 	7	Santa Rita 	11	Noviembre	2023-01-11T00:00:00	2024-11-08T16:00:00	2	Temperatura media	18.7
126506	7	Sololá	704	Santa Lucía Utatlán 	7	Santa Rita 	11	Noviembre	2023-01-11T00:00:00	2024-11-08T16:00:00	4	Temperatura máxima	18.8
126507	7	Sololá	704	Santa Lucía Utatlán 	7	Santa Rita 	11	Noviembre	2023-01-11T00:00:00	2024-11-08T16:00:00	3	Temperatura mínima	18.7
126508	7	Sololá	704	Santa Lucía Utatlán 	7	Santa Rita 	11	Noviembre	2023-01-11T00:00:00	2024-11-08T16:00:00	5	Humedad	94
126509	7	Sololá	704	Santa Lucía Utatlán 	7	Santa Rita 	11	Noviembre	2023-01-11T00:00:00	2024-11-08T16:00:00	6	Velocidad del viento	3.2
126510	7	Sololá	704	Santa Lucía Utatlán 	7	Santa Rita 	11	Noviembre	2023-01-11T00:00:00	2024-11-08T16:00:00	7	Dirección del viento	3.22
126511	7	Sololá	704	Santa Lucía Utatlán 	7	Santa Rita 	11	Noviembre	2023-01-11T00:00:00	2024-11-08T16:00:00	1	Precipitación	2
126512	7	Sololá	704	Santa Lucía Utatlán 	7	Santa Rita 	11	Noviembre	2023-01-11T00:00:00	2024-11-08T16:00:00	8	Radiación solar	56
126513	7	Sololá	704	Santa Lucía Utatlán 	7	Santa Rita 	11	Noviembre	2023-01-11T00:00:00	2024-11-08T17:00:00	2	Temperatura media	18
126514	7	Sololá	704	Santa Lucía Utatlán 	7	Santa Rita 	11	Noviembre	2023-01-11T00:00:00	2024-11-08T17:00:00	4	Temperatura máxima	18.7
126515	7	Sololá	704	Santa Lucía Utatlán 	7	Santa Rita 	11	Noviembre	2023-01-11T00:00:00	2024-11-08T17:00:00	3	Temperatura mínima	18
126516	7	Sololá	704	Santa Lucía Utatlán 	7	Santa Rita 	11	Noviembre	2023-01-11T00:00:00	2024-11-08T17:00:00	5	Humedad	95
126517	7	Sololá	704	Santa Lucía Utatlán 	7	Santa Rita 	11	Noviembre	2023-01-11T00:00:00	2024-11-08T17:00:00	6	Velocidad del viento	1.6
126518	7	Sololá	704	Santa Lucía Utatlán 	7	Santa Rita 	11	Noviembre	2023-01-11T00:00:00	2024-11-08T17:00:00	7	Dirección del viento	1.61
126519	7	Sololá	704	Santa Lucía Utatlán 	7	Santa Rita 	11	Noviembre	2023-01-11T00:00:00	2024-11-08T17:00:00	1	Precipitación	0
126520	7	Sololá	704	Santa Lucía Utatlán 	7	Santa Rita 	11	Noviembre	2023-01-11T00:00:00	2024-11-08T17:00:00	8	Radiación solar	0
126521	7	Sololá	704	Santa Lucía Utatlán 	7	Santa Rita 	11	Noviembre	2023-01-11T00:00:00	2024-11-08T18:00:00	2	Temperatura media	20.3
126522	7	Sololá	704	Santa Lucía Utatlán 	7	Santa Rita 	11	Noviembre	2023-01-11T00:00:00	2024-11-08T18:00:00	4	Temperatura máxima	20.9
126523	7	Sololá	704	Santa Lucía Utatlán 	7	Santa Rita 	11	Noviembre	2023-01-11T00:00:00	2024-11-08T18:00:00	3	Temperatura mínima	20.3
126524	7	Sololá	704	Santa Lucía Utatlán 	7	Santa Rita 	11	Noviembre	2023-01-11T00:00:00	2024-11-08T18:00:00	5	Humedad	84
126525	7	Sololá	704	Santa Lucía Utatlán 	7	Santa Rita 	11	Noviembre	2023-01-11T00:00:00	2024-11-08T18:00:00	6	Velocidad del viento	8
126526	7	Sololá	704	Santa Lucía Utatlán 	7	Santa Rita 	11	Noviembre	2023-01-11T00:00:00	2024-11-08T18:00:00	7	Dirección del viento	8.05
126527	7	Sololá	704	Santa Lucía Utatlán 	7	Santa Rita 	11	Noviembre	2023-01-11T00:00:00	2024-11-08T18:00:00	1	Precipitación	0.2
126528	7	Sololá	704	Santa Lucía Utatlán 	7	Santa Rita 	11	Noviembre	2023-01-11T00:00:00	2024-11-08T18:00:00	8	Radiación solar	0
126529	7	Sololá	704	Santa Lucía Utatlán 	7	Santa Rita 	11	Noviembre	2023-01-11T00:00:00	2024-11-08T19:00:00	2	Temperatura media	19.1
126530	7	Sololá	704	Santa Lucía Utatlán 	7	Santa Rita 	11	Noviembre	2023-01-11T00:00:00	2024-11-08T19:00:00	4	Temperatura máxima	20.3
126531	7	Sololá	704	Santa Lucía Utatlán 	7	Santa Rita 	11	Noviembre	2023-01-11T00:00:00	2024-11-08T19:00:00	3	Temperatura mínima	19.1
126532	7	Sololá	704	Santa Lucía Utatlán 	7	Santa Rita 	11	Noviembre	2023-01-11T00:00:00	2024-11-08T19:00:00	5	Humedad	90
126533	7	Sololá	704	Santa Lucía Utatlán 	7	Santa Rita 	11	Noviembre	2023-01-11T00:00:00	2024-11-08T19:00:00	6	Velocidad del viento	4.8
126534	7	Sololá	704	Santa Lucía Utatlán 	7	Santa Rita 	11	Noviembre	2023-01-11T00:00:00	2024-11-08T19:00:00	7	Dirección del viento	4.83
126535	7	Sololá	704	Santa Lucía Utatlán 	7	Santa Rita 	11	Noviembre	2023-01-11T00:00:00	2024-11-08T19:00:00	1	Precipitación	0.2
126536	7	Sololá	704	Santa Lucía Utatlán 	7	Santa Rita 	11	Noviembre	2023-01-11T00:00:00	2024-11-08T19:00:00	8	Radiación solar	0
126537	7	Sololá	704	Santa Lucía Utatlán 	7	Santa Rita 	11	Noviembre	2023-01-11T00:00:00	2024-11-08T20:00:00	2	Temperatura media	19
126538	7	Sololá	704	Santa Lucía Utatlán 	7	Santa Rita 	11	Noviembre	2023-01-11T00:00:00	2024-11-08T20:00:00	4	Temperatura máxima	19.2
126539	7	Sololá	704	Santa Lucía Utatlán 	7	Santa Rita 	11	Noviembre	2023-01-11T00:00:00	2024-11-08T20:00:00	3	Temperatura mínima	18.7
126540	7	Sololá	704	Santa Lucía Utatlán 	7	Santa Rita 	11	Noviembre	2023-01-11T00:00:00	2024-11-08T20:00:00	5	Humedad	91
126541	7	Sololá	704	Santa Lucía Utatlán 	7	Santa Rita 	11	Noviembre	2023-01-11T00:00:00	2024-11-08T20:00:00	6	Velocidad del viento	3.2
126542	7	Sololá	704	Santa Lucía Utatlán 	7	Santa Rita 	11	Noviembre	2023-01-11T00:00:00	2024-11-08T20:00:00	7	Dirección del viento	3.22
126543	7	Sololá	704	Santa Lucía Utatlán 	7	Santa Rita 	11	Noviembre	2023-01-11T00:00:00	2024-11-08T20:00:00	1	Precipitación	0.4
126544	7	Sololá	704	Santa Lucía Utatlán 	7	Santa Rita 	11	Noviembre	2023-01-11T00:00:00	2024-11-08T20:00:00	8	Radiación solar	0
126545	7	Sololá	704	Santa Lucía Utatlán 	7	Santa Rita 	11	Noviembre	2023-01-11T00:00:00	2024-11-08T21:00:00	2	Temperatura media	19.9
126546	7	Sololá	704	Santa Lucía Utatlán 	7	Santa Rita 	11	Noviembre	2023-01-11T00:00:00	2024-11-08T21:00:00	4	Temperatura máxima	19.9
126547	7	Sololá	704	Santa Lucía Utatlán 	7	Santa Rita 	11	Noviembre	2023-01-11T00:00:00	2024-11-08T21:00:00	3	Temperatura mínima	19
126548	7	Sololá	704	Santa Lucía Utatlán 	7	Santa Rita 	11	Noviembre	2023-01-11T00:00:00	2024-11-08T21:00:00	5	Humedad	85
126549	7	Sololá	704	Santa Lucía Utatlán 	7	Santa Rita 	11	Noviembre	2023-01-11T00:00:00	2024-11-08T21:00:00	6	Velocidad del viento	4.8
126550	7	Sololá	704	Santa Lucía Utatlán 	7	Santa Rita 	11	Noviembre	2023-01-11T00:00:00	2024-11-08T21:00:00	7	Dirección del viento	4.83
126551	7	Sololá	704	Santa Lucía Utatlán 	7	Santa Rita 	11	Noviembre	2023-01-11T00:00:00	2024-11-08T21:00:00	1	Precipitación	0
126552	7	Sololá	704	Santa Lucía Utatlán 	7	Santa Rita 	11	Noviembre	2023-01-11T00:00:00	2024-11-08T21:00:00	8	Radiación solar	0
126553	7	Sololá	704	Santa Lucía Utatlán 	7	Santa Rita 	11	Noviembre	2023-01-11T00:00:00	2024-11-08T22:00:00	2	Temperatura media	20.7
126554	7	Sololá	704	Santa Lucía Utatlán 	7	Santa Rita 	11	Noviembre	2023-01-11T00:00:00	2024-11-08T22:00:00	4	Temperatura máxima	20.8
126555	7	Sololá	704	Santa Lucía Utatlán 	7	Santa Rita 	11	Noviembre	2023-01-11T00:00:00	2024-11-08T22:00:00	3	Temperatura mínima	20
126556	7	Sololá	704	Santa Lucía Utatlán 	7	Santa Rita 	11	Noviembre	2023-01-11T00:00:00	2024-11-08T22:00:00	5	Humedad	83
126557	7	Sololá	704	Santa Lucía Utatlán 	7	Santa Rita 	11	Noviembre	2023-01-11T00:00:00	2024-11-08T22:00:00	6	Velocidad del viento	8
126558	7	Sololá	704	Santa Lucía Utatlán 	7	Santa Rita 	11	Noviembre	2023-01-11T00:00:00	2024-11-08T22:00:00	7	Dirección del viento	8.05
126559	7	Sololá	704	Santa Lucía Utatlán 	7	Santa Rita 	11	Noviembre	2023-01-11T00:00:00	2024-11-08T22:00:00	1	Precipitación	0
126560	7	Sololá	704	Santa Lucía Utatlán 	7	Santa Rita 	11	Noviembre	2023-01-11T00:00:00	2024-11-08T22:00:00	8	Radiación solar	0
126561	7	Sololá	704	Santa Lucía Utatlán 	7	Santa Rita 	11	Noviembre	2023-01-11T00:00:00	2024-11-08T23:00:00	2	Temperatura media	17.9
126562	7	Sololá	704	Santa Lucía Utatlán 	7	Santa Rita 	11	Noviembre	2023-01-11T00:00:00	2024-11-08T23:00:00	4	Temperatura máxima	19.7
126563	7	Sololá	704	Santa Lucía Utatlán 	7	Santa Rita 	11	Noviembre	2023-01-11T00:00:00	2024-11-08T23:00:00	3	Temperatura mínima	17.7
126564	7	Sololá	704	Santa Lucía Utatlán 	7	Santa Rita 	11	Noviembre	2023-01-11T00:00:00	2024-11-08T23:00:00	5	Humedad	86
126565	7	Sololá	704	Santa Lucía Utatlán 	7	Santa Rita 	11	Noviembre	2023-01-11T00:00:00	2024-11-08T23:00:00	6	Velocidad del viento	4.8
126566	7	Sololá	704	Santa Lucía Utatlán 	7	Santa Rita 	11	Noviembre	2023-01-11T00:00:00	2024-11-08T23:00:00	7	Dirección del viento	4.83
126567	7	Sololá	704	Santa Lucía Utatlán 	7	Santa Rita 	11	Noviembre	2023-01-11T00:00:00	2024-11-08T23:00:00	1	Precipitación	0
126568	7	Sololá	704	Santa Lucía Utatlán 	7	Santa Rita 	11	Noviembre	2023-01-11T00:00:00	2024-11-08T23:00:00	8	Radiación solar	0
126569	7	Sololá	704	Santa Lucía Utatlán 	7	Santa Rita 	11	Noviembre	2023-02-11T00:00:00	2024-11-08T00:00:00	2	Temperatura media	21.4
126570	7	Sololá	704	Santa Lucía Utatlán 	7	Santa Rita 	11	Noviembre	2023-02-11T00:00:00	2024-11-08T00:00:00	4	Temperatura máxima	21.4
126571	7	Sololá	704	Santa Lucía Utatlán 	7	Santa Rita 	11	Noviembre	2023-02-11T00:00:00	2024-11-08T00:00:00	3	Temperatura mínima	19.8
126572	7	Sololá	704	Santa Lucía Utatlán 	7	Santa Rita 	11	Noviembre	2023-02-11T00:00:00	2024-11-08T00:00:00	5	Humedad	82
126573	7	Sololá	704	Santa Lucía Utatlán 	7	Santa Rita 	11	Noviembre	2023-02-11T00:00:00	2024-11-08T00:00:00	6	Velocidad del viento	6.4
126574	7	Sololá	704	Santa Lucía Utatlán 	7	Santa Rita 	11	Noviembre	2023-02-11T00:00:00	2024-11-08T00:00:00	7	Dirección del viento	6.44
126575	7	Sololá	704	Santa Lucía Utatlán 	7	Santa Rita 	11	Noviembre	2023-02-11T00:00:00	2024-11-08T00:00:00	1	Precipitación	0
126576	7	Sololá	704	Santa Lucía Utatlán 	7	Santa Rita 	11	Noviembre	2023-02-11T00:00:00	2024-11-08T00:00:00	8	Radiación solar	0
126577	7	Sololá	704	Santa Lucía Utatlán 	7	Santa Rita 	11	Noviembre	2023-02-11T00:00:00	2024-11-08T01:00:00	2	Temperatura media	21.6
126578	7	Sololá	704	Santa Lucía Utatlán 	7	Santa Rita 	11	Noviembre	2023-02-11T00:00:00	2024-11-08T01:00:00	4	Temperatura máxima	21.7
126579	7	Sololá	704	Santa Lucía Utatlán 	7	Santa Rita 	11	Noviembre	2023-02-11T00:00:00	2024-11-08T01:00:00	3	Temperatura mínima	21.2
126580	7	Sololá	704	Santa Lucía Utatlán 	7	Santa Rita 	11	Noviembre	2023-02-11T00:00:00	2024-11-08T01:00:00	5	Humedad	82
126581	7	Sololá	704	Santa Lucía Utatlán 	7	Santa Rita 	11	Noviembre	2023-02-11T00:00:00	2024-11-08T01:00:00	6	Velocidad del viento	8
126582	7	Sololá	704	Santa Lucía Utatlán 	7	Santa Rita 	11	Noviembre	2023-02-11T00:00:00	2024-11-08T01:00:00	7	Dirección del viento	8.05
126583	7	Sololá	704	Santa Lucía Utatlán 	7	Santa Rita 	11	Noviembre	2023-02-11T00:00:00	2024-11-08T01:00:00	1	Precipitación	0
126584	7	Sololá	704	Santa Lucía Utatlán 	7	Santa Rita 	11	Noviembre	2023-02-11T00:00:00	2024-11-08T01:00:00	8	Radiación solar	0
126585	7	Sololá	704	Santa Lucía Utatlán 	7	Santa Rita 	11	Noviembre	2023-02-11T00:00:00	2024-11-08T02:00:00	2	Temperatura media	21.7
126586	7	Sololá	704	Santa Lucía Utatlán 	7	Santa Rita 	11	Noviembre	2023-02-11T00:00:00	2024-11-08T02:00:00	4	Temperatura máxima	21.7
126587	7	Sololá	704	Santa Lucía Utatlán 	7	Santa Rita 	11	Noviembre	2023-02-11T00:00:00	2024-11-08T02:00:00	3	Temperatura mínima	21.1
126588	7	Sololá	704	Santa Lucía Utatlán 	7	Santa Rita 	11	Noviembre	2023-02-11T00:00:00	2024-11-08T02:00:00	5	Humedad	81
126589	7	Sololá	704	Santa Lucía Utatlán 	7	Santa Rita 	11	Noviembre	2023-02-11T00:00:00	2024-11-08T02:00:00	6	Velocidad del viento	4.8
126590	7	Sololá	704	Santa Lucía Utatlán 	7	Santa Rita 	11	Noviembre	2023-02-11T00:00:00	2024-11-08T02:00:00	7	Dirección del viento	4.83
126591	7	Sololá	704	Santa Lucía Utatlán 	7	Santa Rita 	11	Noviembre	2023-02-11T00:00:00	2024-11-08T02:00:00	1	Precipitación	0
126592	7	Sololá	704	Santa Lucía Utatlán 	7	Santa Rita 	11	Noviembre	2023-02-11T00:00:00	2024-11-08T02:00:00	8	Radiación solar	0
126593	7	Sololá	704	Santa Lucía Utatlán 	7	Santa Rita 	11	Noviembre	2023-02-11T00:00:00	2024-11-08T03:00:00	2	Temperatura media	21.9
126594	7	Sololá	704	Santa Lucía Utatlán 	7	Santa Rita 	11	Noviembre	2023-02-11T00:00:00	2024-11-08T03:00:00	4	Temperatura máxima	22.3
126595	7	Sololá	704	Santa Lucía Utatlán 	7	Santa Rita 	11	Noviembre	2023-02-11T00:00:00	2024-11-08T03:00:00	3	Temperatura mínima	21.7
126596	7	Sololá	704	Santa Lucía Utatlán 	7	Santa Rita 	11	Noviembre	2023-02-11T00:00:00	2024-11-08T03:00:00	5	Humedad	79
126597	7	Sololá	704	Santa Lucía Utatlán 	7	Santa Rita 	11	Noviembre	2023-02-11T00:00:00	2024-11-08T03:00:00	6	Velocidad del viento	8
126598	7	Sololá	704	Santa Lucía Utatlán 	7	Santa Rita 	11	Noviembre	2023-02-11T00:00:00	2024-11-08T03:00:00	7	Dirección del viento	8.05
126599	7	Sololá	704	Santa Lucía Utatlán 	7	Santa Rita 	11	Noviembre	2023-02-11T00:00:00	2024-11-08T03:00:00	1	Precipitación	0
126600	7	Sololá	704	Santa Lucía Utatlán 	7	Santa Rita 	11	Noviembre	2023-02-11T00:00:00	2024-11-08T03:00:00	8	Radiación solar	0
126601	7	Sololá	704	Santa Lucía Utatlán 	7	Santa Rita 	11	Noviembre	2023-02-11T00:00:00	2024-11-08T04:00:00	2	Temperatura media	22
126602	7	Sololá	704	Santa Lucía Utatlán 	7	Santa Rita 	11	Noviembre	2023-02-11T00:00:00	2024-11-08T04:00:00	4	Temperatura máxima	22.1
126603	7	Sololá	704	Santa Lucía Utatlán 	7	Santa Rita 	11	Noviembre	2023-02-11T00:00:00	2024-11-08T04:00:00	3	Temperatura mínima	21.8
126604	7	Sololá	704	Santa Lucía Utatlán 	7	Santa Rita 	11	Noviembre	2023-02-11T00:00:00	2024-11-08T04:00:00	5	Humedad	81
126605	7	Sololá	704	Santa Lucía Utatlán 	7	Santa Rita 	11	Noviembre	2023-02-11T00:00:00	2024-11-08T04:00:00	6	Velocidad del viento	6.4
126606	7	Sololá	704	Santa Lucía Utatlán 	7	Santa Rita 	11	Noviembre	2023-02-11T00:00:00	2024-11-08T04:00:00	7	Dirección del viento	6.44
126607	7	Sololá	704	Santa Lucía Utatlán 	7	Santa Rita 	11	Noviembre	2023-02-11T00:00:00	2024-11-08T04:00:00	1	Precipitación	0
126608	7	Sololá	704	Santa Lucía Utatlán 	7	Santa Rita 	11	Noviembre	2023-02-11T00:00:00	2024-11-08T04:00:00	8	Radiación solar	0
126609	7	Sololá	704	Santa Lucía Utatlán 	7	Santa Rita 	11	Noviembre	2023-02-11T00:00:00	2024-11-08T05:00:00	2	Temperatura media	21.7
126610	7	Sololá	704	Santa Lucía Utatlán 	7	Santa Rita 	11	Noviembre	2023-02-11T00:00:00	2024-11-08T05:00:00	4	Temperatura máxima	22.3
126611	7	Sololá	704	Santa Lucía Utatlán 	7	Santa Rita 	11	Noviembre	2023-02-11T00:00:00	2024-11-08T05:00:00	3	Temperatura mínima	21.7
126612	7	Sololá	704	Santa Lucía Utatlán 	7	Santa Rita 	11	Noviembre	2023-02-11T00:00:00	2024-11-08T05:00:00	5	Humedad	83
126613	7	Sololá	704	Santa Lucía Utatlán 	7	Santa Rita 	11	Noviembre	2023-02-11T00:00:00	2024-11-08T05:00:00	6	Velocidad del viento	4.8
126614	7	Sololá	704	Santa Lucía Utatlán 	7	Santa Rita 	11	Noviembre	2023-02-11T00:00:00	2024-11-08T05:00:00	7	Dirección del viento	4.83
126615	7	Sololá	704	Santa Lucía Utatlán 	7	Santa Rita 	11	Noviembre	2023-02-11T00:00:00	2024-11-08T05:00:00	1	Precipitación	0.4
126616	7	Sololá	704	Santa Lucía Utatlán 	7	Santa Rita 	11	Noviembre	2023-02-11T00:00:00	2024-11-08T05:00:00	8	Radiación solar	0
126617	7	Sololá	704	Santa Lucía Utatlán 	7	Santa Rita 	11	Noviembre	2023-02-11T00:00:00	2024-11-08T06:00:00	2	Temperatura media	21.1
126618	7	Sololá	704	Santa Lucía Utatlán 	7	Santa Rita 	11	Noviembre	2023-02-11T00:00:00	2024-11-08T06:00:00	4	Temperatura máxima	21.8
126619	7	Sololá	704	Santa Lucía Utatlán 	7	Santa Rita 	11	Noviembre	2023-02-11T00:00:00	2024-11-08T06:00:00	3	Temperatura mínima	21.1
126620	7	Sololá	704	Santa Lucía Utatlán 	7	Santa Rita 	11	Noviembre	2023-02-11T00:00:00	2024-11-08T06:00:00	5	Humedad	90
126621	7	Sololá	704	Santa Lucía Utatlán 	7	Santa Rita 	11	Noviembre	2023-02-11T00:00:00	2024-11-08T06:00:00	6	Velocidad del viento	3.2
126622	7	Sololá	704	Santa Lucía Utatlán 	7	Santa Rita 	11	Noviembre	2023-02-11T00:00:00	2024-11-08T06:00:00	7	Dirección del viento	3.22
126623	7	Sololá	704	Santa Lucía Utatlán 	7	Santa Rita 	11	Noviembre	2023-02-11T00:00:00	2024-11-08T06:00:00	1	Precipitación	0.2
126624	7	Sololá	704	Santa Lucía Utatlán 	7	Santa Rita 	11	Noviembre	2023-02-11T00:00:00	2024-11-08T06:00:00	8	Radiación solar	0
126625	7	Sololá	704	Santa Lucía Utatlán 	7	Santa Rita 	11	Noviembre	2023-02-11T00:00:00	2024-11-08T07:00:00	2	Temperatura media	20.6
126626	7	Sololá	704	Santa Lucía Utatlán 	7	Santa Rita 	11	Noviembre	2023-02-11T00:00:00	2024-11-08T07:00:00	4	Temperatura máxima	21.2
126627	7	Sololá	704	Santa Lucía Utatlán 	7	Santa Rita 	11	Noviembre	2023-02-11T00:00:00	2024-11-08T07:00:00	3	Temperatura mínima	20.4
126628	7	Sololá	704	Santa Lucía Utatlán 	7	Santa Rita 	11	Noviembre	2023-02-11T00:00:00	2024-11-08T07:00:00	5	Humedad	87
126629	7	Sololá	704	Santa Lucía Utatlán 	7	Santa Rita 	11	Noviembre	2023-02-11T00:00:00	2024-11-08T07:00:00	6	Velocidad del viento	4.8
126630	7	Sololá	704	Santa Lucía Utatlán 	7	Santa Rita 	11	Noviembre	2023-02-11T00:00:00	2024-11-08T07:00:00	7	Dirección del viento	4.83
126631	7	Sololá	704	Santa Lucía Utatlán 	7	Santa Rita 	11	Noviembre	2023-02-11T00:00:00	2024-11-08T07:00:00	1	Precipitación	0
126632	7	Sololá	704	Santa Lucía Utatlán 	7	Santa Rita 	11	Noviembre	2023-02-11T00:00:00	2024-11-08T07:00:00	8	Radiación solar	0
126633	7	Sololá	704	Santa Lucía Utatlán 	7	Santa Rita 	11	Noviembre	2023-02-11T00:00:00	2024-11-08T08:00:00	2	Temperatura media	20.2
126634	7	Sololá	704	Santa Lucía Utatlán 	7	Santa Rita 	11	Noviembre	2023-02-11T00:00:00	2024-11-08T08:00:00	4	Temperatura máxima	20.6
126635	7	Sololá	704	Santa Lucía Utatlán 	7	Santa Rita 	11	Noviembre	2023-02-11T00:00:00	2024-11-08T08:00:00	3	Temperatura mínima	19.8
126636	7	Sololá	704	Santa Lucía Utatlán 	7	Santa Rita 	11	Noviembre	2023-02-11T00:00:00	2024-11-08T08:00:00	5	Humedad	88
126637	7	Sololá	704	Santa Lucía Utatlán 	7	Santa Rita 	11	Noviembre	2023-02-11T00:00:00	2024-11-08T08:00:00	6	Velocidad del viento	3.2
126638	7	Sololá	704	Santa Lucía Utatlán 	7	Santa Rita 	11	Noviembre	2023-02-11T00:00:00	2024-11-08T08:00:00	7	Dirección del viento	3.22
126639	7	Sololá	704	Santa Lucía Utatlán 	7	Santa Rita 	11	Noviembre	2023-02-11T00:00:00	2024-11-08T08:00:00	1	Precipitación	0.2
126640	7	Sololá	704	Santa Lucía Utatlán 	7	Santa Rita 	11	Noviembre	2023-02-11T00:00:00	2024-11-08T08:00:00	8	Radiación solar	166
126641	7	Sololá	704	Santa Lucía Utatlán 	7	Santa Rita 	11	Noviembre	2023-02-11T00:00:00	2024-11-08T09:00:00	2	Temperatura media	19.8
126642	7	Sololá	704	Santa Lucía Utatlán 	7	Santa Rita 	11	Noviembre	2023-02-11T00:00:00	2024-11-08T09:00:00	4	Temperatura máxima	20.2
126643	7	Sololá	704	Santa Lucía Utatlán 	7	Santa Rita 	11	Noviembre	2023-02-11T00:00:00	2024-11-08T09:00:00	3	Temperatura mínima	19.2
126644	7	Sololá	704	Santa Lucía Utatlán 	7	Santa Rita 	11	Noviembre	2023-02-11T00:00:00	2024-11-08T09:00:00	5	Humedad	91
126645	7	Sololá	704	Santa Lucía Utatlán 	7	Santa Rita 	11	Noviembre	2023-02-11T00:00:00	2024-11-08T09:00:00	6	Velocidad del viento	4.8
126646	7	Sololá	704	Santa Lucía Utatlán 	7	Santa Rita 	11	Noviembre	2023-02-11T00:00:00	2024-11-08T09:00:00	7	Dirección del viento	4.83
126647	7	Sololá	704	Santa Lucía Utatlán 	7	Santa Rita 	11	Noviembre	2023-02-11T00:00:00	2024-11-08T09:00:00	1	Precipitación	0.8
126648	7	Sololá	704	Santa Lucía Utatlán 	7	Santa Rita 	11	Noviembre	2023-02-11T00:00:00	2024-11-08T09:00:00	8	Radiación solar	184
126649	7	Sololá	704	Santa Lucía Utatlán 	7	Santa Rita 	11	Noviembre	2023-02-11T00:00:00	2024-11-08T10:00:00	2	Temperatura media	18.9
126650	7	Sololá	704	Santa Lucía Utatlán 	7	Santa Rita 	11	Noviembre	2023-02-11T00:00:00	2024-11-08T10:00:00	4	Temperatura máxima	19.8
126651	7	Sololá	704	Santa Lucía Utatlán 	7	Santa Rita 	11	Noviembre	2023-02-11T00:00:00	2024-11-08T10:00:00	3	Temperatura mínima	18.9
126652	7	Sololá	704	Santa Lucía Utatlán 	7	Santa Rita 	11	Noviembre	2023-02-11T00:00:00	2024-11-08T10:00:00	5	Humedad	95
126653	7	Sololá	704	Santa Lucía Utatlán 	7	Santa Rita 	11	Noviembre	2023-02-11T00:00:00	2024-11-08T10:00:00	6	Velocidad del viento	1.6
126654	7	Sololá	704	Santa Lucía Utatlán 	7	Santa Rita 	11	Noviembre	2023-02-11T00:00:00	2024-11-08T10:00:00	7	Dirección del viento	1.61
126655	7	Sololá	704	Santa Lucía Utatlán 	7	Santa Rita 	11	Noviembre	2023-02-11T00:00:00	2024-11-08T10:00:00	1	Precipitación	0.8
126656	7	Sololá	704	Santa Lucía Utatlán 	7	Santa Rita 	11	Noviembre	2023-02-11T00:00:00	2024-11-08T10:00:00	8	Radiación solar	141
126657	7	Sololá	704	Santa Lucía Utatlán 	7	Santa Rita 	11	Noviembre	2023-02-11T00:00:00	2024-11-08T11:00:00	2	Temperatura media	19.1
126658	7	Sololá	704	Santa Lucía Utatlán 	7	Santa Rita 	11	Noviembre	2023-02-11T00:00:00	2024-11-08T11:00:00	4	Temperatura máxima	19.2
126659	7	Sololá	704	Santa Lucía Utatlán 	7	Santa Rita 	11	Noviembre	2023-02-11T00:00:00	2024-11-08T11:00:00	3	Temperatura mínima	18.9
126660	7	Sololá	704	Santa Lucía Utatlán 	7	Santa Rita 	11	Noviembre	2023-02-11T00:00:00	2024-11-08T11:00:00	5	Humedad	95
126661	7	Sololá	704	Santa Lucía Utatlán 	7	Santa Rita 	11	Noviembre	2023-02-11T00:00:00	2024-11-08T11:00:00	6	Velocidad del viento	3.2
126662	7	Sololá	704	Santa Lucía Utatlán 	7	Santa Rita 	11	Noviembre	2023-02-11T00:00:00	2024-11-08T11:00:00	7	Dirección del viento	3.22
126663	7	Sololá	704	Santa Lucía Utatlán 	7	Santa Rita 	11	Noviembre	2023-02-11T00:00:00	2024-11-08T11:00:00	1	Precipitación	0.8
126664	7	Sololá	704	Santa Lucía Utatlán 	7	Santa Rita 	11	Noviembre	2023-02-11T00:00:00	2024-11-08T11:00:00	8	Radiación solar	261
126665	7	Sololá	704	Santa Lucía Utatlán 	7	Santa Rita 	11	Noviembre	2023-02-11T00:00:00	2024-11-08T12:00:00	2	Temperatura media	19.1
126666	7	Sololá	704	Santa Lucía Utatlán 	7	Santa Rita 	11	Noviembre	2023-02-11T00:00:00	2024-11-08T12:00:00	4	Temperatura máxima	19.1
126667	7	Sololá	704	Santa Lucía Utatlán 	7	Santa Rita 	11	Noviembre	2023-02-11T00:00:00	2024-11-08T12:00:00	3	Temperatura mínima	18.7
126668	7	Sololá	704	Santa Lucía Utatlán 	7	Santa Rita 	11	Noviembre	2023-02-11T00:00:00	2024-11-08T12:00:00	5	Humedad	90
126669	7	Sololá	704	Santa Lucía Utatlán 	7	Santa Rita 	11	Noviembre	2023-02-11T00:00:00	2024-11-08T12:00:00	6	Velocidad del viento	4.8
126670	7	Sololá	704	Santa Lucía Utatlán 	7	Santa Rita 	11	Noviembre	2023-02-11T00:00:00	2024-11-08T12:00:00	7	Dirección del viento	4.83
126671	7	Sololá	704	Santa Lucía Utatlán 	7	Santa Rita 	11	Noviembre	2023-02-11T00:00:00	2024-11-08T12:00:00	1	Precipitación	0.4
126672	7	Sololá	704	Santa Lucía Utatlán 	7	Santa Rita 	11	Noviembre	2023-02-11T00:00:00	2024-11-08T12:00:00	8	Radiación solar	199
126673	7	Sololá	704	Santa Lucía Utatlán 	7	Santa Rita 	11	Noviembre	2023-02-11T00:00:00	2024-11-08T13:00:00	2	Temperatura media	19
126674	7	Sololá	704	Santa Lucía Utatlán 	7	Santa Rita 	11	Noviembre	2023-02-11T00:00:00	2024-11-08T13:00:00	4	Temperatura máxima	19.6
126675	7	Sololá	704	Santa Lucía Utatlán 	7	Santa Rita 	11	Noviembre	2023-02-11T00:00:00	2024-11-08T13:00:00	3	Temperatura mínima	19
126676	7	Sololá	704	Santa Lucía Utatlán 	7	Santa Rita 	11	Noviembre	2023-02-11T00:00:00	2024-11-08T13:00:00	5	Humedad	91
126677	7	Sololá	704	Santa Lucía Utatlán 	7	Santa Rita 	11	Noviembre	2023-02-11T00:00:00	2024-11-08T13:00:00	6	Velocidad del viento	4.8
126678	7	Sololá	704	Santa Lucía Utatlán 	7	Santa Rita 	11	Noviembre	2023-02-11T00:00:00	2024-11-08T13:00:00	7	Dirección del viento	4.83
126679	7	Sololá	704	Santa Lucía Utatlán 	7	Santa Rita 	11	Noviembre	2023-02-11T00:00:00	2024-11-08T13:00:00	1	Precipitación	1
126680	7	Sololá	704	Santa Lucía Utatlán 	7	Santa Rita 	11	Noviembre	2023-02-11T00:00:00	2024-11-08T13:00:00	8	Radiación solar	166
126681	7	Sololá	704	Santa Lucía Utatlán 	7	Santa Rita 	11	Noviembre	2023-02-11T00:00:00	2024-11-08T14:00:00	2	Temperatura media	18.6
126682	7	Sololá	704	Santa Lucía Utatlán 	7	Santa Rita 	11	Noviembre	2023-02-11T00:00:00	2024-11-08T14:00:00	4	Temperatura máxima	19
126683	7	Sololá	704	Santa Lucía Utatlán 	7	Santa Rita 	11	Noviembre	2023-02-11T00:00:00	2024-11-08T14:00:00	3	Temperatura mínima	18.6
126684	7	Sololá	704	Santa Lucía Utatlán 	7	Santa Rita 	11	Noviembre	2023-02-11T00:00:00	2024-11-08T14:00:00	5	Humedad	95
126685	7	Sololá	704	Santa Lucía Utatlán 	7	Santa Rita 	11	Noviembre	2023-02-11T00:00:00	2024-11-08T14:00:00	6	Velocidad del viento	3.2
126686	7	Sololá	704	Santa Lucía Utatlán 	7	Santa Rita 	11	Noviembre	2023-02-11T00:00:00	2024-11-08T14:00:00	7	Dirección del viento	3.22
126687	7	Sololá	704	Santa Lucía Utatlán 	7	Santa Rita 	11	Noviembre	2023-02-11T00:00:00	2024-11-08T14:00:00	1	Precipitación	0
126688	7	Sololá	704	Santa Lucía Utatlán 	7	Santa Rita 	11	Noviembre	2023-02-11T00:00:00	2024-11-08T14:00:00	8	Radiación solar	94
126689	7	Sololá	704	Santa Lucía Utatlán 	7	Santa Rita 	11	Noviembre	2023-02-11T00:00:00	2024-11-08T15:00:00	2	Temperatura media	20.6
126690	7	Sololá	704	Santa Lucía Utatlán 	7	Santa Rita 	11	Noviembre	2023-02-11T00:00:00	2024-11-08T15:00:00	4	Temperatura máxima	21
126691	7	Sololá	704	Santa Lucía Utatlán 	7	Santa Rita 	11	Noviembre	2023-02-11T00:00:00	2024-11-08T15:00:00	3	Temperatura mínima	20.6
126692	7	Sololá	704	Santa Lucía Utatlán 	7	Santa Rita 	11	Noviembre	2023-02-11T00:00:00	2024-11-08T15:00:00	5	Humedad	83
126693	7	Sololá	704	Santa Lucía Utatlán 	7	Santa Rita 	11	Noviembre	2023-02-11T00:00:00	2024-11-08T15:00:00	6	Velocidad del viento	6.4
126694	7	Sololá	704	Santa Lucía Utatlán 	7	Santa Rita 	11	Noviembre	2023-02-11T00:00:00	2024-11-08T15:00:00	7	Dirección del viento	6.44
126695	7	Sololá	704	Santa Lucía Utatlán 	7	Santa Rita 	11	Noviembre	2023-02-11T00:00:00	2024-11-08T15:00:00	1	Precipitación	0.2
126696	7	Sololá	704	Santa Lucía Utatlán 	7	Santa Rita 	11	Noviembre	2023-02-11T00:00:00	2024-11-08T15:00:00	8	Radiación solar	20
126697	7	Sololá	704	Santa Lucía Utatlán 	7	Santa Rita 	11	Noviembre	2023-02-11T00:00:00	2024-11-08T16:00:00	2	Temperatura media	18.8
126698	7	Sololá	704	Santa Lucía Utatlán 	7	Santa Rita 	11	Noviembre	2023-02-11T00:00:00	2024-11-08T16:00:00	4	Temperatura máxima	20.6
126699	7	Sololá	704	Santa Lucía Utatlán 	7	Santa Rita 	11	Noviembre	2023-02-11T00:00:00	2024-11-08T16:00:00	3	Temperatura mínima	18.8
126700	7	Sololá	704	Santa Lucía Utatlán 	7	Santa Rita 	11	Noviembre	2023-02-11T00:00:00	2024-11-08T16:00:00	5	Humedad	90
126701	7	Sololá	704	Santa Lucía Utatlán 	7	Santa Rita 	11	Noviembre	2023-02-11T00:00:00	2024-11-08T16:00:00	6	Velocidad del viento	1.6
126702	7	Sololá	704	Santa Lucía Utatlán 	7	Santa Rita 	11	Noviembre	2023-02-11T00:00:00	2024-11-08T16:00:00	7	Dirección del viento	1.61
126703	7	Sololá	704	Santa Lucía Utatlán 	7	Santa Rita 	11	Noviembre	2023-02-11T00:00:00	2024-11-08T16:00:00	1	Precipitación	0.2
126704	7	Sololá	704	Santa Lucía Utatlán 	7	Santa Rita 	11	Noviembre	2023-02-11T00:00:00	2024-11-08T16:00:00	8	Radiación solar	2
126705	7	Sololá	704	Santa Lucía Utatlán 	7	Santa Rita 	11	Noviembre	2023-02-11T00:00:00	2024-11-08T17:00:00	2	Temperatura media	20.2
126706	7	Sololá	704	Santa Lucía Utatlán 	7	Santa Rita 	11	Noviembre	2023-02-11T00:00:00	2024-11-08T17:00:00	4	Temperatura máxima	20.3
126707	7	Sololá	704	Santa Lucía Utatlán 	7	Santa Rita 	11	Noviembre	2023-02-11T00:00:00	2024-11-08T17:00:00	3	Temperatura mínima	19.6
126708	7	Sololá	704	Santa Lucía Utatlán 	7	Santa Rita 	11	Noviembre	2023-02-11T00:00:00	2024-11-08T17:00:00	5	Humedad	85
126709	7	Sololá	704	Santa Lucía Utatlán 	7	Santa Rita 	11	Noviembre	2023-02-11T00:00:00	2024-11-08T17:00:00	6	Velocidad del viento	6.4
126710	7	Sololá	704	Santa Lucía Utatlán 	7	Santa Rita 	11	Noviembre	2023-02-11T00:00:00	2024-11-08T17:00:00	7	Dirección del viento	6.44
126711	7	Sololá	704	Santa Lucía Utatlán 	7	Santa Rita 	11	Noviembre	2023-02-11T00:00:00	2024-11-08T17:00:00	1	Precipitación	0
126712	7	Sololá	704	Santa Lucía Utatlán 	7	Santa Rita 	11	Noviembre	2023-02-11T00:00:00	2024-11-08T17:00:00	8	Radiación solar	0
126713	7	Sololá	704	Santa Lucía Utatlán 	7	Santa Rita 	11	Noviembre	2023-02-11T00:00:00	2024-11-08T18:00:00	2	Temperatura media	19.6
126714	7	Sololá	704	Santa Lucía Utatlán 	7	Santa Rita 	11	Noviembre	2023-02-11T00:00:00	2024-11-08T18:00:00	4	Temperatura máxima	20.2
126715	7	Sololá	704	Santa Lucía Utatlán 	7	Santa Rita 	11	Noviembre	2023-02-11T00:00:00	2024-11-08T18:00:00	3	Temperatura mínima	19.6
126716	7	Sololá	704	Santa Lucía Utatlán 	7	Santa Rita 	11	Noviembre	2023-02-11T00:00:00	2024-11-08T18:00:00	5	Humedad	90
126717	7	Sololá	704	Santa Lucía Utatlán 	7	Santa Rita 	11	Noviembre	2023-02-11T00:00:00	2024-11-08T18:00:00	6	Velocidad del viento	4.8
126718	7	Sololá	704	Santa Lucía Utatlán 	7	Santa Rita 	11	Noviembre	2023-02-11T00:00:00	2024-11-08T18:00:00	7	Dirección del viento	4.83
126719	7	Sololá	704	Santa Lucía Utatlán 	7	Santa Rita 	11	Noviembre	2023-02-11T00:00:00	2024-11-08T18:00:00	1	Precipitación	0
126720	7	Sololá	704	Santa Lucía Utatlán 	7	Santa Rita 	11	Noviembre	2023-02-11T00:00:00	2024-11-08T18:00:00	8	Radiación solar	0
126721	7	Sololá	704	Santa Lucía Utatlán 	7	Santa Rita 	11	Noviembre	2023-02-11T00:00:00	2024-11-08T19:00:00	2	Temperatura media	19
126722	7	Sololá	704	Santa Lucía Utatlán 	7	Santa Rita 	11	Noviembre	2023-02-11T00:00:00	2024-11-08T19:00:00	4	Temperatura máxima	19.6
126723	7	Sololá	704	Santa Lucía Utatlán 	7	Santa Rita 	11	Noviembre	2023-02-11T00:00:00	2024-11-08T19:00:00	3	Temperatura mínima	18.9
126724	7	Sololá	704	Santa Lucía Utatlán 	7	Santa Rita 	11	Noviembre	2023-02-11T00:00:00	2024-11-08T19:00:00	5	Humedad	93
126725	7	Sololá	704	Santa Lucía Utatlán 	7	Santa Rita 	11	Noviembre	2023-02-11T00:00:00	2024-11-08T19:00:00	6	Velocidad del viento	3.2
126726	7	Sololá	704	Santa Lucía Utatlán 	7	Santa Rita 	11	Noviembre	2023-02-11T00:00:00	2024-11-08T19:00:00	7	Dirección del viento	3.22
126727	7	Sololá	704	Santa Lucía Utatlán 	7	Santa Rita 	11	Noviembre	2023-02-11T00:00:00	2024-11-08T19:00:00	1	Precipitación	0
126728	7	Sololá	704	Santa Lucía Utatlán 	7	Santa Rita 	11	Noviembre	2023-02-11T00:00:00	2024-11-08T19:00:00	8	Radiación solar	0
126729	7	Sololá	704	Santa Lucía Utatlán 	7	Santa Rita 	11	Noviembre	2023-02-11T00:00:00	2024-11-08T20:00:00	2	Temperatura media	19.8
126730	7	Sololá	704	Santa Lucía Utatlán 	7	Santa Rita 	11	Noviembre	2023-02-11T00:00:00	2024-11-08T20:00:00	4	Temperatura máxima	19.8
126731	7	Sololá	704	Santa Lucía Utatlán 	7	Santa Rita 	11	Noviembre	2023-02-11T00:00:00	2024-11-08T20:00:00	3	Temperatura mínima	18.9
126732	7	Sololá	704	Santa Lucía Utatlán 	7	Santa Rita 	11	Noviembre	2023-02-11T00:00:00	2024-11-08T20:00:00	5	Humedad	88
126733	7	Sololá	704	Santa Lucía Utatlán 	7	Santa Rita 	11	Noviembre	2023-02-11T00:00:00	2024-11-08T20:00:00	6	Velocidad del viento	4.8
126734	7	Sololá	704	Santa Lucía Utatlán 	7	Santa Rita 	11	Noviembre	2023-02-11T00:00:00	2024-11-08T20:00:00	7	Dirección del viento	4.83
126735	7	Sololá	704	Santa Lucía Utatlán 	7	Santa Rita 	11	Noviembre	2023-02-11T00:00:00	2024-11-08T20:00:00	1	Precipitación	0
126736	7	Sololá	704	Santa Lucía Utatlán 	7	Santa Rita 	11	Noviembre	2023-02-11T00:00:00	2024-11-08T20:00:00	8	Radiación solar	0
126737	7	Sololá	704	Santa Lucía Utatlán 	7	Santa Rita 	11	Noviembre	2023-02-11T00:00:00	2024-11-08T21:00:00	2	Temperatura media	20.6
126738	7	Sololá	704	Santa Lucía Utatlán 	7	Santa Rita 	11	Noviembre	2023-02-11T00:00:00	2024-11-08T21:00:00	4	Temperatura máxima	20.6
126739	7	Sololá	704	Santa Lucía Utatlán 	7	Santa Rita 	11	Noviembre	2023-02-11T00:00:00	2024-11-08T21:00:00	3	Temperatura mínima	19.7
126740	7	Sololá	704	Santa Lucía Utatlán 	7	Santa Rita 	11	Noviembre	2023-02-11T00:00:00	2024-11-08T21:00:00	5	Humedad	82
126741	7	Sololá	704	Santa Lucía Utatlán 	7	Santa Rita 	11	Noviembre	2023-02-11T00:00:00	2024-11-08T21:00:00	6	Velocidad del viento	6.4
126742	7	Sololá	704	Santa Lucía Utatlán 	7	Santa Rita 	11	Noviembre	2023-02-11T00:00:00	2024-11-08T21:00:00	7	Dirección del viento	6.44
126743	7	Sololá	704	Santa Lucía Utatlán 	7	Santa Rita 	11	Noviembre	2023-02-11T00:00:00	2024-11-08T21:00:00	1	Precipitación	0
126744	7	Sololá	704	Santa Lucía Utatlán 	7	Santa Rita 	11	Noviembre	2023-02-11T00:00:00	2024-11-08T21:00:00	8	Radiación solar	0
126745	7	Sololá	704	Santa Lucía Utatlán 	7	Santa Rita 	11	Noviembre	2023-02-11T00:00:00	2024-11-08T22:00:00	2	Temperatura media	21.5
126746	7	Sololá	704	Santa Lucía Utatlán 	7	Santa Rita 	11	Noviembre	2023-02-11T00:00:00	2024-11-08T22:00:00	4	Temperatura máxima	21.5
126747	7	Sololá	704	Santa Lucía Utatlán 	7	Santa Rita 	11	Noviembre	2023-02-11T00:00:00	2024-11-08T22:00:00	3	Temperatura mínima	20.6
126748	7	Sololá	704	Santa Lucía Utatlán 	7	Santa Rita 	11	Noviembre	2023-02-11T00:00:00	2024-11-08T22:00:00	5	Humedad	80
126749	7	Sololá	704	Santa Lucía Utatlán 	7	Santa Rita 	11	Noviembre	2023-02-11T00:00:00	2024-11-08T22:00:00	6	Velocidad del viento	6.4
126750	7	Sololá	704	Santa Lucía Utatlán 	7	Santa Rita 	11	Noviembre	2023-02-11T00:00:00	2024-11-08T22:00:00	7	Dirección del viento	6.44
126751	7	Sololá	704	Santa Lucía Utatlán 	7	Santa Rita 	11	Noviembre	2023-02-11T00:00:00	2024-11-08T22:00:00	1	Precipitación	0
126752	7	Sololá	704	Santa Lucía Utatlán 	7	Santa Rita 	11	Noviembre	2023-02-11T00:00:00	2024-11-08T22:00:00	8	Radiación solar	0
126753	7	Sololá	704	Santa Lucía Utatlán 	7	Santa Rita 	11	Noviembre	2023-02-11T00:00:00	2024-11-08T23:00:00	2	Temperatura media	23.3
126754	7	Sololá	704	Santa Lucía Utatlán 	7	Santa Rita 	11	Noviembre	2023-02-11T00:00:00	2024-11-08T23:00:00	4	Temperatura máxima	23.3
126755	7	Sololá	704	Santa Lucía Utatlán 	7	Santa Rita 	11	Noviembre	2023-02-11T00:00:00	2024-11-08T23:00:00	3	Temperatura mínima	21.3
126756	7	Sololá	704	Santa Lucía Utatlán 	7	Santa Rita 	11	Noviembre	2023-02-11T00:00:00	2024-11-08T23:00:00	5	Humedad	76
126757	7	Sololá	704	Santa Lucía Utatlán 	7	Santa Rita 	11	Noviembre	2023-02-11T00:00:00	2024-11-08T23:00:00	6	Velocidad del viento	8
126758	7	Sololá	704	Santa Lucía Utatlán 	7	Santa Rita 	11	Noviembre	2023-02-11T00:00:00	2024-11-08T23:00:00	7	Dirección del viento	8.05
126759	7	Sololá	704	Santa Lucía Utatlán 	7	Santa Rita 	11	Noviembre	2023-02-11T00:00:00	2024-11-08T23:00:00	1	Precipitación	0
126760	7	Sololá	704	Santa Lucía Utatlán 	7	Santa Rita 	11	Noviembre	2023-02-11T00:00:00	2024-11-08T23:00:00	8	Radiación solar	0
126761	7	Sololá	704	Santa Lucía Utatlán 	7	Santa Rita 	11	Noviembre	2023-03-11T00:00:00	2024-11-08T00:00:00	2	Temperatura media	22.8
126762	7	Sololá	704	Santa Lucía Utatlán 	7	Santa Rita 	11	Noviembre	2023-03-11T00:00:00	2024-11-08T00:00:00	4	Temperatura máxima	23.9
126763	7	Sololá	704	Santa Lucía Utatlán 	7	Santa Rita 	11	Noviembre	2023-03-11T00:00:00	2024-11-08T00:00:00	3	Temperatura mínima	22.4
126764	7	Sololá	704	Santa Lucía Utatlán 	7	Santa Rita 	11	Noviembre	2023-03-11T00:00:00	2024-11-08T00:00:00	5	Humedad	79
126765	7	Sololá	704	Santa Lucía Utatlán 	7	Santa Rita 	11	Noviembre	2023-03-11T00:00:00	2024-11-08T00:00:00	6	Velocidad del viento	9.7
126766	7	Sololá	704	Santa Lucía Utatlán 	7	Santa Rita 	11	Noviembre	2023-03-11T00:00:00	2024-11-08T00:00:00	7	Dirección del viento	9.66
126767	7	Sololá	704	Santa Lucía Utatlán 	7	Santa Rita 	11	Noviembre	2023-03-11T00:00:00	2024-11-08T00:00:00	1	Precipitación	0
126768	7	Sololá	704	Santa Lucía Utatlán 	7	Santa Rita 	11	Noviembre	2023-03-11T00:00:00	2024-11-08T00:00:00	8	Radiación solar	0
126769	7	Sololá	704	Santa Lucía Utatlán 	7	Santa Rita 	11	Noviembre	2023-03-11T00:00:00	2024-11-08T01:00:00	2	Temperatura media	21.9
126770	7	Sololá	704	Santa Lucía Utatlán 	7	Santa Rita 	11	Noviembre	2023-03-11T00:00:00	2024-11-08T01:00:00	4	Temperatura máxima	23.3
126771	7	Sololá	704	Santa Lucía Utatlán 	7	Santa Rita 	11	Noviembre	2023-03-11T00:00:00	2024-11-08T01:00:00	3	Temperatura mínima	21.9
126772	7	Sololá	704	Santa Lucía Utatlán 	7	Santa Rita 	11	Noviembre	2023-03-11T00:00:00	2024-11-08T01:00:00	5	Humedad	82
126773	7	Sololá	704	Santa Lucía Utatlán 	7	Santa Rita 	11	Noviembre	2023-03-11T00:00:00	2024-11-08T01:00:00	6	Velocidad del viento	8
126774	7	Sololá	704	Santa Lucía Utatlán 	7	Santa Rita 	11	Noviembre	2023-03-11T00:00:00	2024-11-08T01:00:00	7	Dirección del viento	8.05
126775	7	Sololá	704	Santa Lucía Utatlán 	7	Santa Rita 	11	Noviembre	2023-03-11T00:00:00	2024-11-08T01:00:00	1	Precipitación	0
126776	7	Sololá	704	Santa Lucía Utatlán 	7	Santa Rita 	11	Noviembre	2023-03-11T00:00:00	2024-11-08T01:00:00	8	Radiación solar	0
126777	7	Sololá	704	Santa Lucía Utatlán 	7	Santa Rita 	11	Noviembre	2023-03-11T00:00:00	2024-11-08T02:00:00	2	Temperatura media	22.8
126778	7	Sololá	704	Santa Lucía Utatlán 	7	Santa Rita 	11	Noviembre	2023-03-11T00:00:00	2024-11-08T02:00:00	4	Temperatura máxima	22.9
126779	7	Sololá	704	Santa Lucía Utatlán 	7	Santa Rita 	11	Noviembre	2023-03-11T00:00:00	2024-11-08T02:00:00	3	Temperatura mínima	21.6
126780	7	Sololá	704	Santa Lucía Utatlán 	7	Santa Rita 	11	Noviembre	2023-03-11T00:00:00	2024-11-08T02:00:00	5	Humedad	79
126781	7	Sololá	704	Santa Lucía Utatlán 	7	Santa Rita 	11	Noviembre	2023-03-11T00:00:00	2024-11-08T02:00:00	6	Velocidad del viento	9.7
126782	7	Sololá	704	Santa Lucía Utatlán 	7	Santa Rita 	11	Noviembre	2023-03-11T00:00:00	2024-11-08T02:00:00	7	Dirección del viento	9.66
126783	7	Sololá	704	Santa Lucía Utatlán 	7	Santa Rita 	11	Noviembre	2023-03-11T00:00:00	2024-11-08T02:00:00	1	Precipitación	0
126784	7	Sololá	704	Santa Lucía Utatlán 	7	Santa Rita 	11	Noviembre	2023-03-11T00:00:00	2024-11-08T02:00:00	8	Radiación solar	0
126785	7	Sololá	704	Santa Lucía Utatlán 	7	Santa Rita 	11	Noviembre	2023-03-11T00:00:00	2024-11-08T03:00:00	2	Temperatura media	22.5
126786	7	Sololá	704	Santa Lucía Utatlán 	7	Santa Rita 	11	Noviembre	2023-03-11T00:00:00	2024-11-08T03:00:00	4	Temperatura máxima	23.1
126787	7	Sololá	704	Santa Lucía Utatlán 	7	Santa Rita 	11	Noviembre	2023-03-11T00:00:00	2024-11-08T03:00:00	3	Temperatura mínima	22.2
126788	7	Sololá	704	Santa Lucía Utatlán 	7	Santa Rita 	11	Noviembre	2023-03-11T00:00:00	2024-11-08T03:00:00	5	Humedad	79
126789	7	Sololá	704	Santa Lucía Utatlán 	7	Santa Rita 	11	Noviembre	2023-03-11T00:00:00	2024-11-08T03:00:00	6	Velocidad del viento	8
126790	7	Sololá	704	Santa Lucía Utatlán 	7	Santa Rita 	11	Noviembre	2023-03-11T00:00:00	2024-11-08T03:00:00	7	Dirección del viento	8.05
126791	7	Sololá	704	Santa Lucía Utatlán 	7	Santa Rita 	11	Noviembre	2023-03-11T00:00:00	2024-11-08T03:00:00	1	Precipitación	0
126792	7	Sololá	704	Santa Lucía Utatlán 	7	Santa Rita 	11	Noviembre	2023-03-11T00:00:00	2024-11-08T03:00:00	8	Radiación solar	0
126793	7	Sololá	704	Santa Lucía Utatlán 	7	Santa Rita 	11	Noviembre	2023-03-11T00:00:00	2024-11-08T04:00:00	2	Temperatura media	22.2
126794	7	Sololá	704	Santa Lucía Utatlán 	7	Santa Rita 	11	Noviembre	2023-03-11T00:00:00	2024-11-08T04:00:00	4	Temperatura máxima	22.8
126795	7	Sololá	704	Santa Lucía Utatlán 	7	Santa Rita 	11	Noviembre	2023-03-11T00:00:00	2024-11-08T04:00:00	3	Temperatura mínima	22.2
126796	7	Sololá	704	Santa Lucía Utatlán 	7	Santa Rita 	11	Noviembre	2023-03-11T00:00:00	2024-11-08T04:00:00	5	Humedad	81
126797	7	Sololá	704	Santa Lucía Utatlán 	7	Santa Rita 	11	Noviembre	2023-03-11T00:00:00	2024-11-08T04:00:00	6	Velocidad del viento	8
126798	7	Sololá	704	Santa Lucía Utatlán 	7	Santa Rita 	11	Noviembre	2023-03-11T00:00:00	2024-11-08T04:00:00	7	Dirección del viento	8.05
126799	7	Sololá	704	Santa Lucía Utatlán 	7	Santa Rita 	11	Noviembre	2023-03-11T00:00:00	2024-11-08T04:00:00	1	Precipitación	0
126800	7	Sololá	704	Santa Lucía Utatlán 	7	Santa Rita 	11	Noviembre	2023-03-11T00:00:00	2024-11-08T04:00:00	8	Radiación solar	0
126801	7	Sololá	704	Santa Lucía Utatlán 	7	Santa Rita 	11	Noviembre	2023-03-11T00:00:00	2024-11-08T05:00:00	2	Temperatura media	22.4
126802	7	Sololá	704	Santa Lucía Utatlán 	7	Santa Rita 	11	Noviembre	2023-03-11T00:00:00	2024-11-08T05:00:00	4	Temperatura máxima	23.1
126803	7	Sololá	704	Santa Lucía Utatlán 	7	Santa Rita 	11	Noviembre	2023-03-11T00:00:00	2024-11-08T05:00:00	3	Temperatura mínima	22.1
126804	7	Sololá	704	Santa Lucía Utatlán 	7	Santa Rita 	11	Noviembre	2023-03-11T00:00:00	2024-11-08T05:00:00	5	Humedad	78
126805	7	Sololá	704	Santa Lucía Utatlán 	7	Santa Rita 	11	Noviembre	2023-03-11T00:00:00	2024-11-08T05:00:00	6	Velocidad del viento	9.7
126806	7	Sololá	704	Santa Lucía Utatlán 	7	Santa Rita 	11	Noviembre	2023-03-11T00:00:00	2024-11-08T05:00:00	7	Dirección del viento	9.66
126807	7	Sololá	704	Santa Lucía Utatlán 	7	Santa Rita 	11	Noviembre	2023-03-11T00:00:00	2024-11-08T05:00:00	1	Precipitación	0
126808	7	Sololá	704	Santa Lucía Utatlán 	7	Santa Rita 	11	Noviembre	2023-03-11T00:00:00	2024-11-08T05:00:00	8	Radiación solar	0
126809	7	Sololá	704	Santa Lucía Utatlán 	7	Santa Rita 	11	Noviembre	2023-03-11T00:00:00	2024-11-08T06:00:00	2	Temperatura media	21.4
126810	7	Sololá	704	Santa Lucía Utatlán 	7	Santa Rita 	11	Noviembre	2023-03-11T00:00:00	2024-11-08T06:00:00	4	Temperatura máxima	22.4
126811	7	Sololá	704	Santa Lucía Utatlán 	7	Santa Rita 	11	Noviembre	2023-03-11T00:00:00	2024-11-08T06:00:00	3	Temperatura mínima	21.4
126812	7	Sololá	704	Santa Lucía Utatlán 	7	Santa Rita 	11	Noviembre	2023-03-11T00:00:00	2024-11-08T06:00:00	5	Humedad	83
126813	7	Sololá	704	Santa Lucía Utatlán 	7	Santa Rita 	11	Noviembre	2023-03-11T00:00:00	2024-11-08T06:00:00	6	Velocidad del viento	6.4
126814	7	Sololá	704	Santa Lucía Utatlán 	7	Santa Rita 	11	Noviembre	2023-03-11T00:00:00	2024-11-08T06:00:00	7	Dirección del viento	6.44
126815	7	Sololá	704	Santa Lucía Utatlán 	7	Santa Rita 	11	Noviembre	2023-03-11T00:00:00	2024-11-08T06:00:00	1	Precipitación	0
126816	7	Sololá	704	Santa Lucía Utatlán 	7	Santa Rita 	11	Noviembre	2023-03-11T00:00:00	2024-11-08T06:00:00	8	Radiación solar	1
126817	7	Sololá	704	Santa Lucía Utatlán 	7	Santa Rita 	11	Noviembre	2023-03-11T00:00:00	2024-11-08T07:00:00	2	Temperatura media	20.8
126818	7	Sololá	704	Santa Lucía Utatlán 	7	Santa Rita 	11	Noviembre	2023-03-11T00:00:00	2024-11-08T07:00:00	4	Temperatura máxima	21.4
126819	7	Sololá	704	Santa Lucía Utatlán 	7	Santa Rita 	11	Noviembre	2023-03-11T00:00:00	2024-11-08T07:00:00	3	Temperatura mínima	20.7
126820	7	Sololá	704	Santa Lucía Utatlán 	7	Santa Rita 	11	Noviembre	2023-03-11T00:00:00	2024-11-08T07:00:00	5	Humedad	85
126821	7	Sololá	704	Santa Lucía Utatlán 	7	Santa Rita 	11	Noviembre	2023-03-11T00:00:00	2024-11-08T07:00:00	6	Velocidad del viento	4.8
126822	7	Sololá	704	Santa Lucía Utatlán 	7	Santa Rita 	11	Noviembre	2023-03-11T00:00:00	2024-11-08T07:00:00	7	Dirección del viento	4.83
126823	7	Sololá	704	Santa Lucía Utatlán 	7	Santa Rita 	11	Noviembre	2023-03-11T00:00:00	2024-11-08T07:00:00	1	Precipitación	0
126824	7	Sololá	704	Santa Lucía Utatlán 	7	Santa Rita 	11	Noviembre	2023-03-11T00:00:00	2024-11-08T07:00:00	8	Radiación solar	35
126825	7	Sololá	704	Santa Lucía Utatlán 	7	Santa Rita 	11	Noviembre	2023-03-11T00:00:00	2024-11-08T08:00:00	2	Temperatura media	21.2
126826	7	Sololá	704	Santa Lucía Utatlán 	7	Santa Rita 	11	Noviembre	2023-03-11T00:00:00	2024-11-08T08:00:00	4	Temperatura máxima	21.2
126827	7	Sololá	704	Santa Lucía Utatlán 	7	Santa Rita 	11	Noviembre	2023-03-11T00:00:00	2024-11-08T08:00:00	3	Temperatura mínima	20.8
126828	7	Sololá	704	Santa Lucía Utatlán 	7	Santa Rita 	11	Noviembre	2023-03-11T00:00:00	2024-11-08T08:00:00	5	Humedad	81
126829	7	Sololá	704	Santa Lucía Utatlán 	7	Santa Rita 	11	Noviembre	2023-03-11T00:00:00	2024-11-08T08:00:00	6	Velocidad del viento	4.8
126830	7	Sololá	704	Santa Lucía Utatlán 	7	Santa Rita 	11	Noviembre	2023-03-11T00:00:00	2024-11-08T08:00:00	7	Dirección del viento	4.83
126831	7	Sololá	704	Santa Lucía Utatlán 	7	Santa Rita 	11	Noviembre	2023-03-11T00:00:00	2024-11-08T08:00:00	1	Precipitación	0
126832	7	Sololá	704	Santa Lucía Utatlán 	7	Santa Rita 	11	Noviembre	2023-03-11T00:00:00	2024-11-08T08:00:00	8	Radiación solar	93
126833	7	Sololá	704	Santa Lucía Utatlán 	7	Santa Rita 	11	Noviembre	2023-03-11T00:00:00	2024-11-08T09:00:00	2	Temperatura media	20.8
126834	7	Sololá	704	Santa Lucía Utatlán 	7	Santa Rita 	11	Noviembre	2023-03-11T00:00:00	2024-11-08T09:00:00	4	Temperatura máxima	21.4
126835	7	Sololá	704	Santa Lucía Utatlán 	7	Santa Rita 	11	Noviembre	2023-03-11T00:00:00	2024-11-08T09:00:00	3	Temperatura mínima	20.8
126836	7	Sololá	704	Santa Lucía Utatlán 	7	Santa Rita 	11	Noviembre	2023-03-11T00:00:00	2024-11-08T09:00:00	5	Humedad	84
126837	7	Sololá	704	Santa Lucía Utatlán 	7	Santa Rita 	11	Noviembre	2023-03-11T00:00:00	2024-11-08T09:00:00	6	Velocidad del viento	4.8
126838	7	Sololá	704	Santa Lucía Utatlán 	7	Santa Rita 	11	Noviembre	2023-03-11T00:00:00	2024-11-08T09:00:00	7	Dirección del viento	4.83
126839	7	Sololá	704	Santa Lucía Utatlán 	7	Santa Rita 	11	Noviembre	2023-03-11T00:00:00	2024-11-08T09:00:00	1	Precipitación	0
126840	7	Sololá	704	Santa Lucía Utatlán 	7	Santa Rita 	11	Noviembre	2023-03-11T00:00:00	2024-11-08T09:00:00	8	Radiación solar	183
126841	7	Sololá	704	Santa Lucía Utatlán 	7	Santa Rita 	11	Noviembre	2023-03-11T00:00:00	2024-11-08T10:00:00	2	Temperatura media	19.9
126842	7	Sololá	704	Santa Lucía Utatlán 	7	Santa Rita 	11	Noviembre	2023-03-11T00:00:00	2024-11-08T10:00:00	4	Temperatura máxima	20.9
126843	7	Sololá	704	Santa Lucía Utatlán 	7	Santa Rita 	11	Noviembre	2023-03-11T00:00:00	2024-11-08T10:00:00	3	Temperatura mínima	19.8
126844	7	Sololá	704	Santa Lucía Utatlán 	7	Santa Rita 	11	Noviembre	2023-03-11T00:00:00	2024-11-08T10:00:00	5	Humedad	89
126845	7	Sololá	704	Santa Lucía Utatlán 	7	Santa Rita 	11	Noviembre	2023-03-11T00:00:00	2024-11-08T10:00:00	6	Velocidad del viento	1.6
126846	7	Sololá	704	Santa Lucía Utatlán 	7	Santa Rita 	11	Noviembre	2023-03-11T00:00:00	2024-11-08T10:00:00	7	Dirección del viento	1.61
126847	7	Sololá	704	Santa Lucía Utatlán 	7	Santa Rita 	11	Noviembre	2023-03-11T00:00:00	2024-11-08T10:00:00	1	Precipitación	0
126848	7	Sololá	704	Santa Lucía Utatlán 	7	Santa Rita 	11	Noviembre	2023-03-11T00:00:00	2024-11-08T10:00:00	8	Radiación solar	421
126849	7	Sololá	704	Santa Lucía Utatlán 	7	Santa Rita 	11	Noviembre	2023-03-11T00:00:00	2024-11-08T11:00:00	2	Temperatura media	20.2
126850	7	Sololá	704	Santa Lucía Utatlán 	7	Santa Rita 	11	Noviembre	2023-03-11T00:00:00	2024-11-08T11:00:00	4	Temperatura máxima	20.2
126851	7	Sololá	704	Santa Lucía Utatlán 	7	Santa Rita 	11	Noviembre	2023-03-11T00:00:00	2024-11-08T11:00:00	3	Temperatura mínima	19.8
126852	7	Sololá	704	Santa Lucía Utatlán 	7	Santa Rita 	11	Noviembre	2023-03-11T00:00:00	2024-11-08T11:00:00	5	Humedad	85
126853	7	Sololá	704	Santa Lucía Utatlán 	7	Santa Rita 	11	Noviembre	2023-03-11T00:00:00	2024-11-08T11:00:00	6	Velocidad del viento	3.2
126854	7	Sololá	704	Santa Lucía Utatlán 	7	Santa Rita 	11	Noviembre	2023-03-11T00:00:00	2024-11-08T11:00:00	7	Dirección del viento	3.22
126855	7	Sololá	704	Santa Lucía Utatlán 	7	Santa Rita 	11	Noviembre	2023-03-11T00:00:00	2024-11-08T11:00:00	1	Precipitación	0
126856	7	Sololá	704	Santa Lucía Utatlán 	7	Santa Rita 	11	Noviembre	2023-03-11T00:00:00	2024-11-08T11:00:00	8	Radiación solar	512
126857	7	Sololá	704	Santa Lucía Utatlán 	7	Santa Rita 	11	Noviembre	2023-03-11T00:00:00	2024-11-08T12:00:00	2	Temperatura media	19.7
126858	7	Sololá	704	Santa Lucía Utatlán 	7	Santa Rita 	11	Noviembre	2023-03-11T00:00:00	2024-11-08T12:00:00	4	Temperatura máxima	20.4
126859	7	Sololá	704	Santa Lucía Utatlán 	7	Santa Rita 	11	Noviembre	2023-03-11T00:00:00	2024-11-08T12:00:00	3	Temperatura mínima	19.7
126860	7	Sololá	704	Santa Lucía Utatlán 	7	Santa Rita 	11	Noviembre	2023-03-11T00:00:00	2024-11-08T12:00:00	5	Humedad	88
126861	7	Sololá	704	Santa Lucía Utatlán 	7	Santa Rita 	11	Noviembre	2023-03-11T00:00:00	2024-11-08T12:00:00	6	Velocidad del viento	3.2
126862	7	Sololá	704	Santa Lucía Utatlán 	7	Santa Rita 	11	Noviembre	2023-03-11T00:00:00	2024-11-08T12:00:00	7	Dirección del viento	3.22
126863	7	Sololá	704	Santa Lucía Utatlán 	7	Santa Rita 	11	Noviembre	2023-03-11T00:00:00	2024-11-08T12:00:00	1	Precipitación	0
126864	7	Sololá	704	Santa Lucía Utatlán 	7	Santa Rita 	11	Noviembre	2023-03-11T00:00:00	2024-11-08T12:00:00	8	Radiación solar	324
126865	7	Sololá	704	Santa Lucía Utatlán 	7	Santa Rita 	11	Noviembre	2023-03-11T00:00:00	2024-11-08T13:00:00	2	Temperatura media	19.4
126866	7	Sololá	704	Santa Lucía Utatlán 	7	Santa Rita 	11	Noviembre	2023-03-11T00:00:00	2024-11-08T13:00:00	4	Temperatura máxima	19.7
126867	7	Sololá	704	Santa Lucía Utatlán 	7	Santa Rita 	11	Noviembre	2023-03-11T00:00:00	2024-11-08T13:00:00	3	Temperatura mínima	18.9
126868	7	Sololá	704	Santa Lucía Utatlán 	7	Santa Rita 	11	Noviembre	2023-03-11T00:00:00	2024-11-08T13:00:00	5	Humedad	91
126869	7	Sololá	704	Santa Lucía Utatlán 	7	Santa Rita 	11	Noviembre	2023-03-11T00:00:00	2024-11-08T13:00:00	6	Velocidad del viento	3.2
126870	7	Sololá	704	Santa Lucía Utatlán 	7	Santa Rita 	11	Noviembre	2023-03-11T00:00:00	2024-11-08T13:00:00	7	Dirección del viento	3.22
126871	7	Sololá	704	Santa Lucía Utatlán 	7	Santa Rita 	11	Noviembre	2023-03-11T00:00:00	2024-11-08T13:00:00	1	Precipitación	0
126872	7	Sololá	704	Santa Lucía Utatlán 	7	Santa Rita 	11	Noviembre	2023-03-11T00:00:00	2024-11-08T13:00:00	8	Radiación solar	240
126873	7	Sololá	704	Santa Lucía Utatlán 	7	Santa Rita 	11	Noviembre	2023-03-11T00:00:00	2024-11-08T14:00:00	2	Temperatura media	19.1
126874	7	Sololá	704	Santa Lucía Utatlán 	7	Santa Rita 	11	Noviembre	2023-03-11T00:00:00	2024-11-08T14:00:00	4	Temperatura máxima	19.7
126875	7	Sololá	704	Santa Lucía Utatlán 	7	Santa Rita 	11	Noviembre	2023-03-11T00:00:00	2024-11-08T14:00:00	3	Temperatura mínima	19.1
126876	7	Sololá	704	Santa Lucía Utatlán 	7	Santa Rita 	11	Noviembre	2023-03-11T00:00:00	2024-11-08T14:00:00	5	Humedad	90
126877	7	Sololá	704	Santa Lucía Utatlán 	7	Santa Rita 	11	Noviembre	2023-03-11T00:00:00	2024-11-08T14:00:00	6	Velocidad del viento	1.6
126878	7	Sololá	704	Santa Lucía Utatlán 	7	Santa Rita 	11	Noviembre	2023-03-11T00:00:00	2024-11-08T14:00:00	7	Dirección del viento	1.61
126879	7	Sololá	704	Santa Lucía Utatlán 	7	Santa Rita 	11	Noviembre	2023-03-11T00:00:00	2024-11-08T14:00:00	1	Precipitación	0
126880	7	Sololá	704	Santa Lucía Utatlán 	7	Santa Rita 	11	Noviembre	2023-03-11T00:00:00	2024-11-08T14:00:00	8	Radiación solar	289
126881	7	Sololá	704	Santa Lucía Utatlán 	7	Santa Rita 	11	Noviembre	2023-03-11T00:00:00	2024-11-08T15:00:00	2	Temperatura media	20.1
126882	7	Sololá	704	Santa Lucía Utatlán 	7	Santa Rita 	11	Noviembre	2023-03-11T00:00:00	2024-11-08T15:00:00	4	Temperatura máxima	20.1
126883	7	Sololá	704	Santa Lucía Utatlán 	7	Santa Rita 	11	Noviembre	2023-03-11T00:00:00	2024-11-08T15:00:00	3	Temperatura mínima	18.9
126884	7	Sololá	704	Santa Lucía Utatlán 	7	Santa Rita 	11	Noviembre	2023-03-11T00:00:00	2024-11-08T15:00:00	5	Humedad	84
126885	7	Sololá	704	Santa Lucía Utatlán 	7	Santa Rita 	11	Noviembre	2023-03-11T00:00:00	2024-11-08T15:00:00	6	Velocidad del viento	3.2
126886	7	Sololá	704	Santa Lucía Utatlán 	7	Santa Rita 	11	Noviembre	2023-03-11T00:00:00	2024-11-08T15:00:00	7	Dirección del viento	3.22
126887	7	Sololá	704	Santa Lucía Utatlán 	7	Santa Rita 	11	Noviembre	2023-03-11T00:00:00	2024-11-08T15:00:00	1	Precipitación	0
126888	7	Sololá	704	Santa Lucía Utatlán 	7	Santa Rita 	11	Noviembre	2023-03-11T00:00:00	2024-11-08T15:00:00	8	Radiación solar	223
126889	7	Sololá	704	Santa Lucía Utatlán 	7	Santa Rita 	11	Noviembre	2023-03-11T00:00:00	2024-11-08T16:00:00	2	Temperatura media	18.7
126890	7	Sololá	704	Santa Lucía Utatlán 	7	Santa Rita 	11	Noviembre	2023-03-11T00:00:00	2024-11-08T16:00:00	4	Temperatura máxima	20.9
126891	7	Sololá	704	Santa Lucía Utatlán 	7	Santa Rita 	11	Noviembre	2023-03-11T00:00:00	2024-11-08T16:00:00	3	Temperatura mínima	18.7
126892	7	Sololá	704	Santa Lucía Utatlán 	7	Santa Rita 	11	Noviembre	2023-03-11T00:00:00	2024-11-08T16:00:00	5	Humedad	88
126893	7	Sololá	704	Santa Lucía Utatlán 	7	Santa Rita 	11	Noviembre	2023-03-11T00:00:00	2024-11-08T16:00:00	6	Velocidad del viento	4.8
126894	7	Sololá	704	Santa Lucía Utatlán 	7	Santa Rita 	11	Noviembre	2023-03-11T00:00:00	2024-11-08T16:00:00	7	Dirección del viento	4.83
126895	7	Sololá	704	Santa Lucía Utatlán 	7	Santa Rita 	11	Noviembre	2023-03-11T00:00:00	2024-11-08T16:00:00	1	Precipitación	0
126896	7	Sololá	704	Santa Lucía Utatlán 	7	Santa Rita 	11	Noviembre	2023-03-11T00:00:00	2024-11-08T16:00:00	8	Radiación solar	284
126897	7	Sololá	704	Santa Lucía Utatlán 	7	Santa Rita 	11	Noviembre	2023-03-11T00:00:00	2024-11-08T17:00:00	2	Temperatura media	20.8
126898	7	Sololá	704	Santa Lucía Utatlán 	7	Santa Rita 	11	Noviembre	2023-03-11T00:00:00	2024-11-08T17:00:00	4	Temperatura máxima	21.1
126899	7	Sololá	704	Santa Lucía Utatlán 	7	Santa Rita 	11	Noviembre	2023-03-11T00:00:00	2024-11-08T17:00:00	3	Temperatura mínima	18.4
126900	7	Sololá	704	Santa Lucía Utatlán 	7	Santa Rita 	11	Noviembre	2023-03-11T00:00:00	2024-11-08T17:00:00	5	Humedad	79
126901	7	Sololá	704	Santa Lucía Utatlán 	7	Santa Rita 	11	Noviembre	2023-03-11T00:00:00	2024-11-08T17:00:00	6	Velocidad del viento	6.4
126902	7	Sololá	704	Santa Lucía Utatlán 	7	Santa Rita 	11	Noviembre	2023-03-11T00:00:00	2024-11-08T17:00:00	7	Dirección del viento	6.44
126903	7	Sololá	704	Santa Lucía Utatlán 	7	Santa Rita 	11	Noviembre	2023-03-11T00:00:00	2024-11-08T17:00:00	1	Precipitación	0
126904	7	Sololá	704	Santa Lucía Utatlán 	7	Santa Rita 	11	Noviembre	2023-03-11T00:00:00	2024-11-08T17:00:00	8	Radiación solar	28
126905	7	Sololá	704	Santa Lucía Utatlán 	7	Santa Rita 	11	Noviembre	2023-03-11T00:00:00	2024-11-08T18:00:00	2	Temperatura media	18.3
126906	7	Sololá	704	Santa Lucía Utatlán 	7	Santa Rita 	11	Noviembre	2023-03-11T00:00:00	2024-11-08T18:00:00	4	Temperatura máxima	18.9
126907	7	Sololá	704	Santa Lucía Utatlán 	7	Santa Rita 	11	Noviembre	2023-03-11T00:00:00	2024-11-08T18:00:00	3	Temperatura mínima	18.3
126908	7	Sololá	704	Santa Lucía Utatlán 	7	Santa Rita 	11	Noviembre	2023-03-11T00:00:00	2024-11-08T18:00:00	5	Humedad	92
126909	7	Sololá	704	Santa Lucía Utatlán 	7	Santa Rita 	11	Noviembre	2023-03-11T00:00:00	2024-11-08T18:00:00	6	Velocidad del viento	3.2
126910	7	Sololá	704	Santa Lucía Utatlán 	7	Santa Rita 	11	Noviembre	2023-03-11T00:00:00	2024-11-08T18:00:00	7	Dirección del viento	3.22
126911	7	Sololá	704	Santa Lucía Utatlán 	7	Santa Rita 	11	Noviembre	2023-03-11T00:00:00	2024-11-08T18:00:00	1	Precipitación	2.4
126912	7	Sololá	704	Santa Lucía Utatlán 	7	Santa Rita 	11	Noviembre	2023-03-11T00:00:00	2024-11-08T18:00:00	8	Radiación solar	0
126913	7	Sololá	704	Santa Lucía Utatlán 	7	Santa Rita 	11	Noviembre	2023-03-11T00:00:00	2024-11-08T19:00:00	2	Temperatura media	18.2
126914	7	Sololá	704	Santa Lucía Utatlán 	7	Santa Rita 	11	Noviembre	2023-03-11T00:00:00	2024-11-08T19:00:00	4	Temperatura máxima	18.3
126915	7	Sololá	704	Santa Lucía Utatlán 	7	Santa Rita 	11	Noviembre	2023-03-11T00:00:00	2024-11-08T19:00:00	3	Temperatura mínima	18.1
126916	7	Sololá	704	Santa Lucía Utatlán 	7	Santa Rita 	11	Noviembre	2023-03-11T00:00:00	2024-11-08T19:00:00	5	Humedad	95
126917	7	Sololá	704	Santa Lucía Utatlán 	7	Santa Rita 	11	Noviembre	2023-03-11T00:00:00	2024-11-08T19:00:00	6	Velocidad del viento	1.6
126918	7	Sololá	704	Santa Lucía Utatlán 	7	Santa Rita 	11	Noviembre	2023-03-11T00:00:00	2024-11-08T19:00:00	7	Dirección del viento	1.61
126919	7	Sololá	704	Santa Lucía Utatlán 	7	Santa Rita 	11	Noviembre	2023-03-11T00:00:00	2024-11-08T19:00:00	1	Precipitación	0.2
126920	7	Sololá	704	Santa Lucía Utatlán 	7	Santa Rita 	11	Noviembre	2023-03-11T00:00:00	2024-11-08T19:00:00	8	Radiación solar	0
126921	7	Sololá	704	Santa Lucía Utatlán 	7	Santa Rita 	11	Noviembre	2023-03-11T00:00:00	2024-11-08T20:00:00	2	Temperatura media	18.2
126922	7	Sololá	704	Santa Lucía Utatlán 	7	Santa Rita 	11	Noviembre	2023-03-11T00:00:00	2024-11-08T20:00:00	4	Temperatura máxima	18.2
126923	7	Sololá	704	Santa Lucía Utatlán 	7	Santa Rita 	11	Noviembre	2023-03-11T00:00:00	2024-11-08T20:00:00	3	Temperatura mínima	17.9
126924	7	Sololá	704	Santa Lucía Utatlán 	7	Santa Rita 	11	Noviembre	2023-03-11T00:00:00	2024-11-08T20:00:00	5	Humedad	95
126925	7	Sololá	704	Santa Lucía Utatlán 	7	Santa Rita 	11	Noviembre	2023-03-11T00:00:00	2024-11-08T20:00:00	6	Velocidad del viento	1.6
126926	7	Sololá	704	Santa Lucía Utatlán 	7	Santa Rita 	11	Noviembre	2023-03-11T00:00:00	2024-11-08T20:00:00	7	Dirección del viento	1.61
126927	7	Sololá	704	Santa Lucía Utatlán 	7	Santa Rita 	11	Noviembre	2023-03-11T00:00:00	2024-11-08T20:00:00	1	Precipitación	0.2
126928	7	Sololá	704	Santa Lucía Utatlán 	7	Santa Rita 	11	Noviembre	2023-03-11T00:00:00	2024-11-08T20:00:00	8	Radiación solar	0
126929	7	Sololá	704	Santa Lucía Utatlán 	7	Santa Rita 	11	Noviembre	2023-03-11T00:00:00	2024-11-08T21:00:00	2	Temperatura media	22.5
126930	7	Sololá	704	Santa Lucía Utatlán 	7	Santa Rita 	11	Noviembre	2023-03-11T00:00:00	2024-11-08T21:00:00	4	Temperatura máxima	22.5
126931	7	Sololá	704	Santa Lucía Utatlán 	7	Santa Rita 	11	Noviembre	2023-03-11T00:00:00	2024-11-08T21:00:00	3	Temperatura mínima	20.8
126932	7	Sololá	704	Santa Lucía Utatlán 	7	Santa Rita 	11	Noviembre	2023-03-11T00:00:00	2024-11-08T21:00:00	5	Humedad	78
126933	7	Sololá	704	Santa Lucía Utatlán 	7	Santa Rita 	11	Noviembre	2023-03-11T00:00:00	2024-11-08T21:00:00	6	Velocidad del viento	9.7
126934	7	Sololá	704	Santa Lucía Utatlán 	7	Santa Rita 	11	Noviembre	2023-03-11T00:00:00	2024-11-08T21:00:00	7	Dirección del viento	9.66
126935	7	Sololá	704	Santa Lucía Utatlán 	7	Santa Rita 	11	Noviembre	2023-03-11T00:00:00	2024-11-08T21:00:00	1	Precipitación	0
126936	7	Sololá	704	Santa Lucía Utatlán 	7	Santa Rita 	11	Noviembre	2023-03-11T00:00:00	2024-11-08T21:00:00	8	Radiación solar	0
126937	7	Sololá	704	Santa Lucía Utatlán 	7	Santa Rita 	11	Noviembre	2023-03-11T00:00:00	2024-11-08T22:00:00	2	Temperatura media	23.1
126938	7	Sololá	704	Santa Lucía Utatlán 	7	Santa Rita 	11	Noviembre	2023-03-11T00:00:00	2024-11-08T22:00:00	4	Temperatura máxima	23.3
126939	7	Sololá	704	Santa Lucía Utatlán 	7	Santa Rita 	11	Noviembre	2023-03-11T00:00:00	2024-11-08T22:00:00	3	Temperatura mínima	22.4
126940	7	Sololá	704	Santa Lucía Utatlán 	7	Santa Rita 	11	Noviembre	2023-03-11T00:00:00	2024-11-08T22:00:00	5	Humedad	77
126941	7	Sololá	704	Santa Lucía Utatlán 	7	Santa Rita 	11	Noviembre	2023-03-11T00:00:00	2024-11-08T22:00:00	6	Velocidad del viento	9.7
126942	7	Sololá	704	Santa Lucía Utatlán 	7	Santa Rita 	11	Noviembre	2023-03-11T00:00:00	2024-11-08T22:00:00	7	Dirección del viento	9.66
126943	7	Sololá	704	Santa Lucía Utatlán 	7	Santa Rita 	11	Noviembre	2023-03-11T00:00:00	2024-11-08T22:00:00	1	Precipitación	0
126944	7	Sololá	704	Santa Lucía Utatlán 	7	Santa Rita 	11	Noviembre	2023-03-11T00:00:00	2024-11-08T22:00:00	8	Radiación solar	0
126945	7	Sololá	704	Santa Lucía Utatlán 	7	Santa Rita 	11	Noviembre	2023-03-11T00:00:00	2024-11-08T23:00:00	2	Temperatura media	23.6
126946	7	Sololá	704	Santa Lucía Utatlán 	7	Santa Rita 	11	Noviembre	2023-03-11T00:00:00	2024-11-08T23:00:00	4	Temperatura máxima	24.1
126947	7	Sololá	704	Santa Lucía Utatlán 	7	Santa Rita 	11	Noviembre	2023-03-11T00:00:00	2024-11-08T23:00:00	3	Temperatura mínima	22.8
126948	7	Sololá	704	Santa Lucía Utatlán 	7	Santa Rita 	11	Noviembre	2023-03-11T00:00:00	2024-11-08T23:00:00	5	Humedad	75
126949	7	Sololá	704	Santa Lucía Utatlán 	7	Santa Rita 	11	Noviembre	2023-03-11T00:00:00	2024-11-08T23:00:00	6	Velocidad del viento	9.7
126950	7	Sololá	704	Santa Lucía Utatlán 	7	Santa Rita 	11	Noviembre	2023-03-11T00:00:00	2024-11-08T23:00:00	7	Dirección del viento	9.66
126951	7	Sololá	704	Santa Lucía Utatlán 	7	Santa Rita 	11	Noviembre	2023-03-11T00:00:00	2024-11-08T23:00:00	1	Precipitación	0
126952	7	Sololá	704	Santa Lucía Utatlán 	7	Santa Rita 	11	Noviembre	2023-03-11T00:00:00	2024-11-08T23:00:00	8	Radiación solar	0
126953	7	Sololá	704	Santa Lucía Utatlán 	7	Santa Rita 	11	Noviembre	2023-04-11T00:00:00	2024-11-08T00:00:00	2	Temperatura media	25.4
126954	7	Sololá	704	Santa Lucía Utatlán 	7	Santa Rita 	11	Noviembre	2023-04-11T00:00:00	2024-11-08T00:00:00	4	Temperatura máxima	25.8
126955	7	Sololá	704	Santa Lucía Utatlán 	7	Santa Rita 	11	Noviembre	2023-04-11T00:00:00	2024-11-08T00:00:00	3	Temperatura mínima	23.4
126956	7	Sololá	704	Santa Lucía Utatlán 	7	Santa Rita 	11	Noviembre	2023-04-11T00:00:00	2024-11-08T00:00:00	5	Humedad	72
126957	7	Sololá	704	Santa Lucía Utatlán 	7	Santa Rita 	11	Noviembre	2023-04-11T00:00:00	2024-11-08T00:00:00	6	Velocidad del viento	6.4
126958	7	Sololá	704	Santa Lucía Utatlán 	7	Santa Rita 	11	Noviembre	2023-04-11T00:00:00	2024-11-08T00:00:00	7	Dirección del viento	6.44
126959	7	Sololá	704	Santa Lucía Utatlán 	7	Santa Rita 	11	Noviembre	2023-04-11T00:00:00	2024-11-08T00:00:00	1	Precipitación	0
126960	7	Sololá	704	Santa Lucía Utatlán 	7	Santa Rita 	11	Noviembre	2023-04-11T00:00:00	2024-11-08T00:00:00	8	Radiación solar	0
126961	7	Sololá	704	Santa Lucía Utatlán 	7	Santa Rita 	11	Noviembre	2023-04-11T00:00:00	2024-11-08T01:00:00	2	Temperatura media	24.8
126962	7	Sololá	704	Santa Lucía Utatlán 	7	Santa Rita 	11	Noviembre	2023-04-11T00:00:00	2024-11-08T01:00:00	4	Temperatura máxima	25.6
126963	7	Sololá	704	Santa Lucía Utatlán 	7	Santa Rita 	11	Noviembre	2023-04-11T00:00:00	2024-11-08T01:00:00	3	Temperatura mínima	24.3
126964	7	Sololá	704	Santa Lucía Utatlán 	7	Santa Rita 	11	Noviembre	2023-04-11T00:00:00	2024-11-08T01:00:00	5	Humedad	70
126965	7	Sololá	704	Santa Lucía Utatlán 	7	Santa Rita 	11	Noviembre	2023-04-11T00:00:00	2024-11-08T01:00:00	6	Velocidad del viento	8
126966	7	Sololá	704	Santa Lucía Utatlán 	7	Santa Rita 	11	Noviembre	2023-04-11T00:00:00	2024-11-08T01:00:00	7	Dirección del viento	8.05
126967	7	Sololá	704	Santa Lucía Utatlán 	7	Santa Rita 	11	Noviembre	2023-04-11T00:00:00	2024-11-08T01:00:00	1	Precipitación	0
126968	7	Sololá	704	Santa Lucía Utatlán 	7	Santa Rita 	11	Noviembre	2023-04-11T00:00:00	2024-11-08T01:00:00	8	Radiación solar	0
126969	7	Sololá	704	Santa Lucía Utatlán 	7	Santa Rita 	11	Noviembre	2023-04-11T00:00:00	2024-11-08T02:00:00	2	Temperatura media	23.8
126970	7	Sololá	704	Santa Lucía Utatlán 	7	Santa Rita 	11	Noviembre	2023-04-11T00:00:00	2024-11-08T02:00:00	4	Temperatura máxima	25.3
126971	7	Sololá	704	Santa Lucía Utatlán 	7	Santa Rita 	11	Noviembre	2023-04-11T00:00:00	2024-11-08T02:00:00	3	Temperatura mínima	23.8
126972	7	Sololá	704	Santa Lucía Utatlán 	7	Santa Rita 	11	Noviembre	2023-04-11T00:00:00	2024-11-08T02:00:00	5	Humedad	73
126973	7	Sololá	704	Santa Lucía Utatlán 	7	Santa Rita 	11	Noviembre	2023-04-11T00:00:00	2024-11-08T02:00:00	6	Velocidad del viento	6.4
126974	7	Sololá	704	Santa Lucía Utatlán 	7	Santa Rita 	11	Noviembre	2023-04-11T00:00:00	2024-11-08T02:00:00	7	Dirección del viento	6.44
126975	7	Sololá	704	Santa Lucía Utatlán 	7	Santa Rita 	11	Noviembre	2023-04-11T00:00:00	2024-11-08T02:00:00	1	Precipitación	0
126976	7	Sololá	704	Santa Lucía Utatlán 	7	Santa Rita 	11	Noviembre	2023-04-11T00:00:00	2024-11-08T02:00:00	8	Radiación solar	0
126977	7	Sololá	704	Santa Lucía Utatlán 	7	Santa Rita 	11	Noviembre	2023-04-11T00:00:00	2024-11-08T03:00:00	2	Temperatura media	23.9
126978	7	Sololá	704	Santa Lucía Utatlán 	7	Santa Rita 	11	Noviembre	2023-04-11T00:00:00	2024-11-08T03:00:00	4	Temperatura máxima	24.2
126979	7	Sololá	704	Santa Lucía Utatlán 	7	Santa Rita 	11	Noviembre	2023-04-11T00:00:00	2024-11-08T03:00:00	3	Temperatura mínima	23.4
126980	7	Sololá	704	Santa Lucía Utatlán 	7	Santa Rita 	11	Noviembre	2023-04-11T00:00:00	2024-11-08T03:00:00	5	Humedad	72
126981	7	Sololá	704	Santa Lucía Utatlán 	7	Santa Rita 	11	Noviembre	2023-04-11T00:00:00	2024-11-08T03:00:00	6	Velocidad del viento	6.4
126982	7	Sololá	704	Santa Lucía Utatlán 	7	Santa Rita 	11	Noviembre	2023-04-11T00:00:00	2024-11-08T03:00:00	7	Dirección del viento	6.44
126983	7	Sololá	704	Santa Lucía Utatlán 	7	Santa Rita 	11	Noviembre	2023-04-11T00:00:00	2024-11-08T03:00:00	1	Precipitación	0
126984	7	Sololá	704	Santa Lucía Utatlán 	7	Santa Rita 	11	Noviembre	2023-04-11T00:00:00	2024-11-08T03:00:00	8	Radiación solar	0
126985	7	Sololá	704	Santa Lucía Utatlán 	7	Santa Rita 	11	Noviembre	2023-04-11T00:00:00	2024-11-08T04:00:00	2	Temperatura media	24.4
126986	7	Sololá	704	Santa Lucía Utatlán 	7	Santa Rita 	11	Noviembre	2023-04-11T00:00:00	2024-11-08T04:00:00	4	Temperatura máxima	24.6
126987	7	Sololá	704	Santa Lucía Utatlán 	7	Santa Rita 	11	Noviembre	2023-04-11T00:00:00	2024-11-08T04:00:00	3	Temperatura mínima	23.4
126988	7	Sololá	704	Santa Lucía Utatlán 	7	Santa Rita 	11	Noviembre	2023-04-11T00:00:00	2024-11-08T04:00:00	5	Humedad	72
126989	7	Sololá	704	Santa Lucía Utatlán 	7	Santa Rita 	11	Noviembre	2023-04-11T00:00:00	2024-11-08T04:00:00	6	Velocidad del viento	4.8
126990	7	Sololá	704	Santa Lucía Utatlán 	7	Santa Rita 	11	Noviembre	2023-04-11T00:00:00	2024-11-08T04:00:00	7	Dirección del viento	4.83
126991	7	Sololá	704	Santa Lucía Utatlán 	7	Santa Rita 	11	Noviembre	2023-04-11T00:00:00	2024-11-08T04:00:00	1	Precipitación	0
126992	7	Sololá	704	Santa Lucía Utatlán 	7	Santa Rita 	11	Noviembre	2023-04-11T00:00:00	2024-11-08T04:00:00	8	Radiación solar	0
126993	7	Sololá	704	Santa Lucía Utatlán 	7	Santa Rita 	11	Noviembre	2023-04-11T00:00:00	2024-11-08T05:00:00	2	Temperatura media	24.1
126994	7	Sololá	704	Santa Lucía Utatlán 	7	Santa Rita 	11	Noviembre	2023-04-11T00:00:00	2024-11-08T05:00:00	4	Temperatura máxima	25.1
126995	7	Sololá	704	Santa Lucía Utatlán 	7	Santa Rita 	11	Noviembre	2023-04-11T00:00:00	2024-11-08T05:00:00	3	Temperatura mínima	23.2
126996	7	Sololá	704	Santa Lucía Utatlán 	7	Santa Rita 	11	Noviembre	2023-04-11T00:00:00	2024-11-08T05:00:00	5	Humedad	71
126997	7	Sololá	704	Santa Lucía Utatlán 	7	Santa Rita 	11	Noviembre	2023-04-11T00:00:00	2024-11-08T05:00:00	6	Velocidad del viento	9.7
126998	7	Sololá	704	Santa Lucía Utatlán 	7	Santa Rita 	11	Noviembre	2023-04-11T00:00:00	2024-11-08T05:00:00	7	Dirección del viento	9.66
126999	7	Sololá	704	Santa Lucía Utatlán 	7	Santa Rita 	11	Noviembre	2023-04-11T00:00:00	2024-11-08T05:00:00	1	Precipitación	0
127000	7	Sololá	704	Santa Lucía Utatlán 	7	Santa Rita 	11	Noviembre	2023-04-11T00:00:00	2024-11-08T05:00:00	8	Radiación solar	0
127001	7	Sololá	704	Santa Lucía Utatlán 	7	Santa Rita 	11	Noviembre	2023-04-11T00:00:00	2024-11-08T06:00:00	2	Temperatura media	21.9
127002	7	Sololá	704	Santa Lucía Utatlán 	7	Santa Rita 	11	Noviembre	2023-04-11T00:00:00	2024-11-08T06:00:00	4	Temperatura máxima	24.6
127003	7	Sololá	704	Santa Lucía Utatlán 	7	Santa Rita 	11	Noviembre	2023-04-11T00:00:00	2024-11-08T06:00:00	3	Temperatura mínima	21.9
127004	7	Sololá	704	Santa Lucía Utatlán 	7	Santa Rita 	11	Noviembre	2023-04-11T00:00:00	2024-11-08T06:00:00	5	Humedad	76
127005	7	Sololá	704	Santa Lucía Utatlán 	7	Santa Rita 	11	Noviembre	2023-04-11T00:00:00	2024-11-08T06:00:00	6	Velocidad del viento	4.8
127006	7	Sololá	704	Santa Lucía Utatlán 	7	Santa Rita 	11	Noviembre	2023-04-11T00:00:00	2024-11-08T06:00:00	7	Dirección del viento	4.83
127007	7	Sololá	704	Santa Lucía Utatlán 	7	Santa Rita 	11	Noviembre	2023-04-11T00:00:00	2024-11-08T06:00:00	1	Precipitación	0
127008	7	Sololá	704	Santa Lucía Utatlán 	7	Santa Rita 	11	Noviembre	2023-04-11T00:00:00	2024-11-08T06:00:00	8	Radiación solar	0
127009	7	Sololá	704	Santa Lucía Utatlán 	7	Santa Rita 	11	Noviembre	2023-04-11T00:00:00	2024-11-08T07:00:00	2	Temperatura media	25.2
127010	7	Sololá	704	Santa Lucía Utatlán 	7	Santa Rita 	11	Noviembre	2023-04-11T00:00:00	2024-11-08T07:00:00	4	Temperatura máxima	25.3
127011	7	Sololá	704	Santa Lucía Utatlán 	7	Santa Rita 	11	Noviembre	2023-04-11T00:00:00	2024-11-08T07:00:00	3	Temperatura mínima	24.6
127012	7	Sololá	704	Santa Lucía Utatlán 	7	Santa Rita 	11	Noviembre	2023-04-11T00:00:00	2024-11-08T07:00:00	5	Humedad	62
127013	7	Sololá	704	Santa Lucía Utatlán 	7	Santa Rita 	11	Noviembre	2023-04-11T00:00:00	2024-11-08T07:00:00	6	Velocidad del viento	9.7
127014	7	Sololá	704	Santa Lucía Utatlán 	7	Santa Rita 	11	Noviembre	2023-04-11T00:00:00	2024-11-08T07:00:00	7	Dirección del viento	9.66
127015	7	Sololá	704	Santa Lucía Utatlán 	7	Santa Rita 	11	Noviembre	2023-04-11T00:00:00	2024-11-08T07:00:00	1	Precipitación	0
127016	7	Sololá	704	Santa Lucía Utatlán 	7	Santa Rita 	11	Noviembre	2023-04-11T00:00:00	2024-11-08T07:00:00	8	Radiación solar	42
127017	7	Sololá	704	Santa Lucía Utatlán 	7	Santa Rita 	11	Noviembre	2023-04-11T00:00:00	2024-11-08T08:00:00	2	Temperatura media	19.6
127018	7	Sololá	704	Santa Lucía Utatlán 	7	Santa Rita 	11	Noviembre	2023-04-11T00:00:00	2024-11-08T08:00:00	4	Temperatura máxima	20.9
127019	7	Sololá	704	Santa Lucía Utatlán 	7	Santa Rita 	11	Noviembre	2023-04-11T00:00:00	2024-11-08T08:00:00	3	Temperatura mínima	19.6
127020	7	Sololá	704	Santa Lucía Utatlán 	7	Santa Rita 	11	Noviembre	2023-04-11T00:00:00	2024-11-08T08:00:00	5	Humedad	87
127021	7	Sololá	704	Santa Lucía Utatlán 	7	Santa Rita 	11	Noviembre	2023-04-11T00:00:00	2024-11-08T08:00:00	6	Velocidad del viento	4.8
127022	7	Sololá	704	Santa Lucía Utatlán 	7	Santa Rita 	11	Noviembre	2023-04-11T00:00:00	2024-11-08T08:00:00	7	Dirección del viento	4.83
127023	7	Sololá	704	Santa Lucía Utatlán 	7	Santa Rita 	11	Noviembre	2023-04-11T00:00:00	2024-11-08T08:00:00	1	Precipitación	0
127024	7	Sololá	704	Santa Lucía Utatlán 	7	Santa Rita 	11	Noviembre	2023-04-11T00:00:00	2024-11-08T08:00:00	8	Radiación solar	323
127025	7	Sololá	704	Santa Lucía Utatlán 	7	Santa Rita 	11	Noviembre	2023-04-11T00:00:00	2024-11-08T09:00:00	2	Temperatura media	21.1
127026	7	Sololá	704	Santa Lucía Utatlán 	7	Santa Rita 	11	Noviembre	2023-04-11T00:00:00	2024-11-08T09:00:00	4	Temperatura máxima	21.2
127027	7	Sololá	704	Santa Lucía Utatlán 	7	Santa Rita 	11	Noviembre	2023-04-11T00:00:00	2024-11-08T09:00:00	3	Temperatura mínima	19.5
127028	7	Sololá	704	Santa Lucía Utatlán 	7	Santa Rita 	11	Noviembre	2023-04-11T00:00:00	2024-11-08T09:00:00	5	Humedad	80
127029	7	Sololá	704	Santa Lucía Utatlán 	7	Santa Rita 	11	Noviembre	2023-04-11T00:00:00	2024-11-08T09:00:00	6	Velocidad del viento	6.4
127030	7	Sololá	704	Santa Lucía Utatlán 	7	Santa Rita 	11	Noviembre	2023-04-11T00:00:00	2024-11-08T09:00:00	7	Dirección del viento	6.44
127031	7	Sololá	704	Santa Lucía Utatlán 	7	Santa Rita 	11	Noviembre	2023-04-11T00:00:00	2024-11-08T09:00:00	1	Precipitación	0
127032	7	Sololá	704	Santa Lucía Utatlán 	7	Santa Rita 	11	Noviembre	2023-04-11T00:00:00	2024-11-08T09:00:00	8	Radiación solar	545
127033	7	Sololá	704	Santa Lucía Utatlán 	7	Santa Rita 	11	Noviembre	2023-04-11T00:00:00	2024-11-08T10:00:00	2	Temperatura media	20.9
127034	7	Sololá	704	Santa Lucía Utatlán 	7	Santa Rita 	11	Noviembre	2023-04-11T00:00:00	2024-11-08T10:00:00	4	Temperatura máxima	21.2
127035	7	Sololá	704	Santa Lucía Utatlán 	7	Santa Rita 	11	Noviembre	2023-04-11T00:00:00	2024-11-08T10:00:00	3	Temperatura mínima	20.8
127036	7	Sololá	704	Santa Lucía Utatlán 	7	Santa Rita 	11	Noviembre	2023-04-11T00:00:00	2024-11-08T10:00:00	5	Humedad	81
127037	7	Sololá	704	Santa Lucía Utatlán 	7	Santa Rita 	11	Noviembre	2023-04-11T00:00:00	2024-11-08T10:00:00	6	Velocidad del viento	6.4
127038	7	Sololá	704	Santa Lucía Utatlán 	7	Santa Rita 	11	Noviembre	2023-04-11T00:00:00	2024-11-08T10:00:00	7	Dirección del viento	6.44
127039	7	Sololá	704	Santa Lucía Utatlán 	7	Santa Rita 	11	Noviembre	2023-04-11T00:00:00	2024-11-08T10:00:00	1	Precipitación	0
127040	7	Sololá	704	Santa Lucía Utatlán 	7	Santa Rita 	11	Noviembre	2023-04-11T00:00:00	2024-11-08T10:00:00	8	Radiación solar	700
127041	7	Sololá	704	Santa Lucía Utatlán 	7	Santa Rita 	11	Noviembre	2023-04-11T00:00:00	2024-11-08T11:00:00	2	Temperatura media	21.3
127042	7	Sololá	704	Santa Lucía Utatlán 	7	Santa Rita 	11	Noviembre	2023-04-11T00:00:00	2024-11-08T11:00:00	4	Temperatura máxima	21.5
127043	7	Sololá	704	Santa Lucía Utatlán 	7	Santa Rita 	11	Noviembre	2023-04-11T00:00:00	2024-11-08T11:00:00	3	Temperatura mínima	20.8
127044	7	Sololá	704	Santa Lucía Utatlán 	7	Santa Rita 	11	Noviembre	2023-04-11T00:00:00	2024-11-08T11:00:00	5	Humedad	79
127045	7	Sololá	704	Santa Lucía Utatlán 	7	Santa Rita 	11	Noviembre	2023-04-11T00:00:00	2024-11-08T11:00:00	6	Velocidad del viento	4.8
127046	7	Sololá	704	Santa Lucía Utatlán 	7	Santa Rita 	11	Noviembre	2023-04-11T00:00:00	2024-11-08T11:00:00	7	Dirección del viento	4.83
127047	7	Sololá	704	Santa Lucía Utatlán 	7	Santa Rita 	11	Noviembre	2023-04-11T00:00:00	2024-11-08T11:00:00	1	Precipitación	0
127048	7	Sololá	704	Santa Lucía Utatlán 	7	Santa Rita 	11	Noviembre	2023-04-11T00:00:00	2024-11-08T11:00:00	8	Radiación solar	975
127049	7	Sololá	704	Santa Lucía Utatlán 	7	Santa Rita 	11	Noviembre	2023-04-11T00:00:00	2024-11-08T12:00:00	2	Temperatura media	21.6
127050	7	Sololá	704	Santa Lucía Utatlán 	7	Santa Rita 	11	Noviembre	2023-04-11T00:00:00	2024-11-08T12:00:00	4	Temperatura máxima	21.7
127051	7	Sololá	704	Santa Lucía Utatlán 	7	Santa Rita 	11	Noviembre	2023-04-11T00:00:00	2024-11-08T12:00:00	3	Temperatura mínima	20.9
127052	7	Sololá	704	Santa Lucía Utatlán 	7	Santa Rita 	11	Noviembre	2023-04-11T00:00:00	2024-11-08T12:00:00	5	Humedad	75
127053	7	Sololá	704	Santa Lucía Utatlán 	7	Santa Rita 	11	Noviembre	2023-04-11T00:00:00	2024-11-08T12:00:00	6	Velocidad del viento	4.8
127054	7	Sololá	704	Santa Lucía Utatlán 	7	Santa Rita 	11	Noviembre	2023-04-11T00:00:00	2024-11-08T12:00:00	7	Dirección del viento	4.83
127055	7	Sololá	704	Santa Lucía Utatlán 	7	Santa Rita 	11	Noviembre	2023-04-11T00:00:00	2024-11-08T12:00:00	1	Precipitación	0
127056	7	Sololá	704	Santa Lucía Utatlán 	7	Santa Rita 	11	Noviembre	2023-04-11T00:00:00	2024-11-08T12:00:00	8	Radiación solar	969
127057	7	Sololá	704	Santa Lucía Utatlán 	7	Santa Rita 	11	Noviembre	2023-04-11T00:00:00	2024-11-08T13:00:00	2	Temperatura media	21.1
127058	7	Sololá	704	Santa Lucía Utatlán 	7	Santa Rita 	11	Noviembre	2023-04-11T00:00:00	2024-11-08T13:00:00	4	Temperatura máxima	21.7
127059	7	Sololá	704	Santa Lucía Utatlán 	7	Santa Rita 	11	Noviembre	2023-04-11T00:00:00	2024-11-08T13:00:00	3	Temperatura mínima	21
127060	7	Sololá	704	Santa Lucía Utatlán 	7	Santa Rita 	11	Noviembre	2023-04-11T00:00:00	2024-11-08T13:00:00	5	Humedad	80
127061	7	Sololá	704	Santa Lucía Utatlán 	7	Santa Rita 	11	Noviembre	2023-04-11T00:00:00	2024-11-08T13:00:00	6	Velocidad del viento	8
127062	7	Sololá	704	Santa Lucía Utatlán 	7	Santa Rita 	11	Noviembre	2023-04-11T00:00:00	2024-11-08T13:00:00	7	Dirección del viento	8.05
127063	7	Sololá	704	Santa Lucía Utatlán 	7	Santa Rita 	11	Noviembre	2023-04-11T00:00:00	2024-11-08T13:00:00	1	Precipitación	0
127064	7	Sololá	704	Santa Lucía Utatlán 	7	Santa Rita 	11	Noviembre	2023-04-11T00:00:00	2024-11-08T13:00:00	8	Radiación solar	318
127065	7	Sololá	704	Santa Lucía Utatlán 	7	Santa Rita 	11	Noviembre	2023-04-11T00:00:00	2024-11-08T14:00:00	2	Temperatura media	19.7
127066	7	Sololá	704	Santa Lucía Utatlán 	7	Santa Rita 	11	Noviembre	2023-04-11T00:00:00	2024-11-08T14:00:00	4	Temperatura máxima	21.1
127067	7	Sololá	704	Santa Lucía Utatlán 	7	Santa Rita 	11	Noviembre	2023-04-11T00:00:00	2024-11-08T14:00:00	3	Temperatura mínima	19.7
127068	7	Sololá	704	Santa Lucía Utatlán 	7	Santa Rita 	11	Noviembre	2023-04-11T00:00:00	2024-11-08T14:00:00	5	Humedad	85
127069	7	Sololá	704	Santa Lucía Utatlán 	7	Santa Rita 	11	Noviembre	2023-04-11T00:00:00	2024-11-08T14:00:00	6	Velocidad del viento	4.8
127070	7	Sololá	704	Santa Lucía Utatlán 	7	Santa Rita 	11	Noviembre	2023-04-11T00:00:00	2024-11-08T14:00:00	7	Dirección del viento	4.83
127071	7	Sololá	704	Santa Lucía Utatlán 	7	Santa Rita 	11	Noviembre	2023-04-11T00:00:00	2024-11-08T14:00:00	1	Precipitación	0
127072	7	Sololá	704	Santa Lucía Utatlán 	7	Santa Rita 	11	Noviembre	2023-04-11T00:00:00	2024-11-08T14:00:00	8	Radiación solar	217
127073	7	Sololá	704	Santa Lucía Utatlán 	7	Santa Rita 	11	Noviembre	2023-04-11T00:00:00	2024-11-08T15:00:00	2	Temperatura media	21.9
127074	7	Sololá	704	Santa Lucía Utatlán 	7	Santa Rita 	11	Noviembre	2023-04-11T00:00:00	2024-11-08T15:00:00	4	Temperatura máxima	22.3
127075	7	Sololá	704	Santa Lucía Utatlán 	7	Santa Rita 	11	Noviembre	2023-04-11T00:00:00	2024-11-08T15:00:00	3	Temperatura mínima	19.7
127076	7	Sololá	704	Santa Lucía Utatlán 	7	Santa Rita 	11	Noviembre	2023-04-11T00:00:00	2024-11-08T15:00:00	5	Humedad	68
127077	7	Sololá	704	Santa Lucía Utatlán 	7	Santa Rita 	11	Noviembre	2023-04-11T00:00:00	2024-11-08T15:00:00	6	Velocidad del viento	6.4
127078	7	Sololá	704	Santa Lucía Utatlán 	7	Santa Rita 	11	Noviembre	2023-04-11T00:00:00	2024-11-08T15:00:00	7	Dirección del viento	6.44
127079	7	Sololá	704	Santa Lucía Utatlán 	7	Santa Rita 	11	Noviembre	2023-04-11T00:00:00	2024-11-08T15:00:00	1	Precipitación	0
127080	7	Sololá	704	Santa Lucía Utatlán 	7	Santa Rita 	11	Noviembre	2023-04-11T00:00:00	2024-11-08T15:00:00	8	Radiación solar	271
127081	7	Sololá	704	Santa Lucía Utatlán 	7	Santa Rita 	11	Noviembre	2023-04-11T00:00:00	2024-11-08T16:00:00	2	Temperatura media	20.9
127082	7	Sololá	704	Santa Lucía Utatlán 	7	Santa Rita 	11	Noviembre	2023-04-11T00:00:00	2024-11-08T16:00:00	4	Temperatura máxima	21.9
127083	7	Sololá	704	Santa Lucía Utatlán 	7	Santa Rita 	11	Noviembre	2023-04-11T00:00:00	2024-11-08T16:00:00	3	Temperatura mínima	20.1
127084	7	Sololá	704	Santa Lucía Utatlán 	7	Santa Rita 	11	Noviembre	2023-04-11T00:00:00	2024-11-08T16:00:00	5	Humedad	73
127085	7	Sololá	704	Santa Lucía Utatlán 	7	Santa Rita 	11	Noviembre	2023-04-11T00:00:00	2024-11-08T16:00:00	6	Velocidad del viento	4.8
127086	7	Sololá	704	Santa Lucía Utatlán 	7	Santa Rita 	11	Noviembre	2023-04-11T00:00:00	2024-11-08T16:00:00	7	Dirección del viento	4.83
127087	7	Sololá	704	Santa Lucía Utatlán 	7	Santa Rita 	11	Noviembre	2023-04-11T00:00:00	2024-11-08T16:00:00	1	Precipitación	0
127088	7	Sololá	704	Santa Lucía Utatlán 	7	Santa Rita 	11	Noviembre	2023-04-11T00:00:00	2024-11-08T16:00:00	8	Radiación solar	310
127089	7	Sololá	704	Santa Lucía Utatlán 	7	Santa Rita 	11	Noviembre	2023-04-11T00:00:00	2024-11-08T17:00:00	2	Temperatura media	18.9
127090	7	Sololá	704	Santa Lucía Utatlán 	7	Santa Rita 	11	Noviembre	2023-04-11T00:00:00	2024-11-08T17:00:00	4	Temperatura máxima	20.9
127091	7	Sololá	704	Santa Lucía Utatlán 	7	Santa Rita 	11	Noviembre	2023-04-11T00:00:00	2024-11-08T17:00:00	3	Temperatura mínima	18.9
127092	7	Sololá	704	Santa Lucía Utatlán 	7	Santa Rita 	11	Noviembre	2023-04-11T00:00:00	2024-11-08T17:00:00	5	Humedad	81
127093	7	Sololá	704	Santa Lucía Utatlán 	7	Santa Rita 	11	Noviembre	2023-04-11T00:00:00	2024-11-08T17:00:00	6	Velocidad del viento	4.8
127094	7	Sololá	704	Santa Lucía Utatlán 	7	Santa Rita 	11	Noviembre	2023-04-11T00:00:00	2024-11-08T17:00:00	7	Dirección del viento	4.83
127095	7	Sololá	704	Santa Lucía Utatlán 	7	Santa Rita 	11	Noviembre	2023-04-11T00:00:00	2024-11-08T17:00:00	1	Precipitación	0
127096	7	Sololá	704	Santa Lucía Utatlán 	7	Santa Rita 	11	Noviembre	2023-04-11T00:00:00	2024-11-08T17:00:00	8	Radiación solar	67
127097	7	Sololá	704	Santa Lucía Utatlán 	7	Santa Rita 	11	Noviembre	2023-04-11T00:00:00	2024-11-08T18:00:00	2	Temperatura media	18.2
127098	7	Sololá	704	Santa Lucía Utatlán 	7	Santa Rita 	11	Noviembre	2023-04-11T00:00:00	2024-11-08T18:00:00	4	Temperatura máxima	19
127099	7	Sololá	704	Santa Lucía Utatlán 	7	Santa Rita 	11	Noviembre	2023-04-11T00:00:00	2024-11-08T18:00:00	3	Temperatura mínima	18
127100	7	Sololá	704	Santa Lucía Utatlán 	7	Santa Rita 	11	Noviembre	2023-04-11T00:00:00	2024-11-08T18:00:00	5	Humedad	85
127101	7	Sololá	704	Santa Lucía Utatlán 	7	Santa Rita 	11	Noviembre	2023-04-11T00:00:00	2024-11-08T18:00:00	6	Velocidad del viento	3.2
127102	7	Sololá	704	Santa Lucía Utatlán 	7	Santa Rita 	11	Noviembre	2023-04-11T00:00:00	2024-11-08T18:00:00	7	Dirección del viento	3.22
127103	7	Sololá	704	Santa Lucía Utatlán 	7	Santa Rita 	11	Noviembre	2023-04-11T00:00:00	2024-11-08T18:00:00	1	Precipitación	0
127104	7	Sololá	704	Santa Lucía Utatlán 	7	Santa Rita 	11	Noviembre	2023-04-11T00:00:00	2024-11-08T18:00:00	8	Radiación solar	97
127105	7	Sololá	704	Santa Lucía Utatlán 	7	Santa Rita 	11	Noviembre	2023-04-11T00:00:00	2024-11-08T19:00:00	2	Temperatura media	18.3
127106	7	Sololá	704	Santa Lucía Utatlán 	7	Santa Rita 	11	Noviembre	2023-04-11T00:00:00	2024-11-08T19:00:00	4	Temperatura máxima	18.4
127107	7	Sololá	704	Santa Lucía Utatlán 	7	Santa Rita 	11	Noviembre	2023-04-11T00:00:00	2024-11-08T19:00:00	3	Temperatura mínima	18.1
127108	7	Sololá	704	Santa Lucía Utatlán 	7	Santa Rita 	11	Noviembre	2023-04-11T00:00:00	2024-11-08T19:00:00	5	Humedad	89
127109	7	Sololá	704	Santa Lucía Utatlán 	7	Santa Rita 	11	Noviembre	2023-04-11T00:00:00	2024-11-08T19:00:00	6	Velocidad del viento	1.6
127110	7	Sololá	704	Santa Lucía Utatlán 	7	Santa Rita 	11	Noviembre	2023-04-11T00:00:00	2024-11-08T19:00:00	7	Dirección del viento	1.61
127111	7	Sololá	704	Santa Lucía Utatlán 	7	Santa Rita 	11	Noviembre	2023-04-11T00:00:00	2024-11-08T19:00:00	1	Precipitación	0
127112	7	Sololá	704	Santa Lucía Utatlán 	7	Santa Rita 	11	Noviembre	2023-04-11T00:00:00	2024-11-08T19:00:00	8	Radiación solar	0
127113	7	Sololá	704	Santa Lucía Utatlán 	7	Santa Rita 	11	Noviembre	2023-04-11T00:00:00	2024-11-08T20:00:00	2	Temperatura media	19.4
127114	7	Sololá	704	Santa Lucía Utatlán 	7	Santa Rita 	11	Noviembre	2023-04-11T00:00:00	2024-11-08T20:00:00	4	Temperatura máxima	19.5
127115	7	Sololá	704	Santa Lucía Utatlán 	7	Santa Rita 	11	Noviembre	2023-04-11T00:00:00	2024-11-08T20:00:00	3	Temperatura mínima	18.3
127116	7	Sololá	704	Santa Lucía Utatlán 	7	Santa Rita 	11	Noviembre	2023-04-11T00:00:00	2024-11-08T20:00:00	5	Humedad	86
127117	7	Sololá	704	Santa Lucía Utatlán 	7	Santa Rita 	11	Noviembre	2023-04-11T00:00:00	2024-11-08T20:00:00	6	Velocidad del viento	1.6
127118	7	Sololá	704	Santa Lucía Utatlán 	7	Santa Rita 	11	Noviembre	2023-04-11T00:00:00	2024-11-08T20:00:00	7	Dirección del viento	1.61
127119	7	Sololá	704	Santa Lucía Utatlán 	7	Santa Rita 	11	Noviembre	2023-04-11T00:00:00	2024-11-08T20:00:00	1	Precipitación	0
127120	7	Sololá	704	Santa Lucía Utatlán 	7	Santa Rita 	11	Noviembre	2023-04-11T00:00:00	2024-11-08T20:00:00	8	Radiación solar	0
127121	7	Sololá	704	Santa Lucía Utatlán 	7	Santa Rita 	11	Noviembre	2023-04-11T00:00:00	2024-11-08T21:00:00	2	Temperatura media	23.2
127122	7	Sololá	704	Santa Lucía Utatlán 	7	Santa Rita 	11	Noviembre	2023-04-11T00:00:00	2024-11-08T21:00:00	4	Temperatura máxima	23.2
127123	7	Sololá	704	Santa Lucía Utatlán 	7	Santa Rita 	11	Noviembre	2023-04-11T00:00:00	2024-11-08T21:00:00	3	Temperatura mínima	19.5
127124	7	Sololá	704	Santa Lucía Utatlán 	7	Santa Rita 	11	Noviembre	2023-04-11T00:00:00	2024-11-08T21:00:00	5	Humedad	73
127125	7	Sololá	704	Santa Lucía Utatlán 	7	Santa Rita 	11	Noviembre	2023-04-11T00:00:00	2024-11-08T21:00:00	6	Velocidad del viento	3.2
127126	7	Sololá	704	Santa Lucía Utatlán 	7	Santa Rita 	11	Noviembre	2023-04-11T00:00:00	2024-11-08T21:00:00	7	Dirección del viento	3.22
127127	7	Sololá	704	Santa Lucía Utatlán 	7	Santa Rita 	11	Noviembre	2023-04-11T00:00:00	2024-11-08T21:00:00	1	Precipitación	0
127128	7	Sololá	704	Santa Lucía Utatlán 	7	Santa Rita 	11	Noviembre	2023-04-11T00:00:00	2024-11-08T21:00:00	8	Radiación solar	0
127129	7	Sololá	704	Santa Lucía Utatlán 	7	Santa Rita 	11	Noviembre	2023-04-11T00:00:00	2024-11-08T22:00:00	2	Temperatura media	24.7
127130	7	Sololá	704	Santa Lucía Utatlán 	7	Santa Rita 	11	Noviembre	2023-04-11T00:00:00	2024-11-08T22:00:00	4	Temperatura máxima	24.9
127131	7	Sololá	704	Santa Lucía Utatlán 	7	Santa Rita 	11	Noviembre	2023-04-11T00:00:00	2024-11-08T22:00:00	3	Temperatura mínima	23.2
127132	7	Sololá	704	Santa Lucía Utatlán 	7	Santa Rita 	11	Noviembre	2023-04-11T00:00:00	2024-11-08T22:00:00	5	Humedad	67
127133	7	Sololá	704	Santa Lucía Utatlán 	7	Santa Rita 	11	Noviembre	2023-04-11T00:00:00	2024-11-08T22:00:00	6	Velocidad del viento	6.4
127134	7	Sololá	704	Santa Lucía Utatlán 	7	Santa Rita 	11	Noviembre	2023-04-11T00:00:00	2024-11-08T22:00:00	7	Dirección del viento	6.44
127135	7	Sololá	704	Santa Lucía Utatlán 	7	Santa Rita 	11	Noviembre	2023-04-11T00:00:00	2024-11-08T22:00:00	1	Precipitación	0
127136	7	Sololá	704	Santa Lucía Utatlán 	7	Santa Rita 	11	Noviembre	2023-04-11T00:00:00	2024-11-08T22:00:00	8	Radiación solar	0
127137	7	Sololá	704	Santa Lucía Utatlán 	7	Santa Rita 	11	Noviembre	2023-04-11T00:00:00	2024-11-08T23:00:00	2	Temperatura media	24.7
127138	7	Sololá	704	Santa Lucía Utatlán 	7	Santa Rita 	11	Noviembre	2023-04-11T00:00:00	2024-11-08T23:00:00	4	Temperatura máxima	25.1
127139	7	Sololá	704	Santa Lucía Utatlán 	7	Santa Rita 	11	Noviembre	2023-04-11T00:00:00	2024-11-08T23:00:00	3	Temperatura mínima	24.4
127140	7	Sololá	704	Santa Lucía Utatlán 	7	Santa Rita 	11	Noviembre	2023-04-11T00:00:00	2024-11-08T23:00:00	5	Humedad	64
127141	7	Sololá	704	Santa Lucía Utatlán 	7	Santa Rita 	11	Noviembre	2023-04-11T00:00:00	2024-11-08T23:00:00	6	Velocidad del viento	9.7
127142	7	Sololá	704	Santa Lucía Utatlán 	7	Santa Rita 	11	Noviembre	2023-04-11T00:00:00	2024-11-08T23:00:00	7	Dirección del viento	9.66
127143	7	Sololá	704	Santa Lucía Utatlán 	7	Santa Rita 	11	Noviembre	2023-04-11T00:00:00	2024-11-08T23:00:00	1	Precipitación	0
127144	7	Sololá	704	Santa Lucía Utatlán 	7	Santa Rita 	11	Noviembre	2023-04-11T00:00:00	2024-11-08T23:00:00	8	Radiación solar	0
127145	7	Sololá	704	Santa Lucía Utatlán 	7	Santa Rita 	11	Noviembre	2023-05-11T00:00:00	2024-11-08T00:00:00	2	Temperatura media	24.8
127146	7	Sololá	704	Santa Lucía Utatlán 	7	Santa Rita 	11	Noviembre	2023-05-11T00:00:00	2024-11-08T00:00:00	4	Temperatura máxima	25.3
127147	7	Sololá	704	Santa Lucía Utatlán 	7	Santa Rita 	11	Noviembre	2023-05-11T00:00:00	2024-11-08T00:00:00	3	Temperatura mínima	24.2
127148	7	Sololá	704	Santa Lucía Utatlán 	7	Santa Rita 	11	Noviembre	2023-05-11T00:00:00	2024-11-08T00:00:00	5	Humedad	70
127149	7	Sololá	704	Santa Lucía Utatlán 	7	Santa Rita 	11	Noviembre	2023-05-11T00:00:00	2024-11-08T00:00:00	6	Velocidad del viento	9.7
127150	7	Sololá	704	Santa Lucía Utatlán 	7	Santa Rita 	11	Noviembre	2023-05-11T00:00:00	2024-11-08T00:00:00	7	Dirección del viento	9.66
127151	7	Sololá	704	Santa Lucía Utatlán 	7	Santa Rita 	11	Noviembre	2023-05-11T00:00:00	2024-11-08T00:00:00	1	Precipitación	0
127152	7	Sololá	704	Santa Lucía Utatlán 	7	Santa Rita 	11	Noviembre	2023-05-11T00:00:00	2024-11-08T00:00:00	8	Radiación solar	0
127153	7	Sololá	704	Santa Lucía Utatlán 	7	Santa Rita 	11	Noviembre	2023-05-11T00:00:00	2024-11-08T01:00:00	2	Temperatura media	24.3
127154	7	Sololá	704	Santa Lucía Utatlán 	7	Santa Rita 	11	Noviembre	2023-05-11T00:00:00	2024-11-08T01:00:00	4	Temperatura máxima	24.9
127155	7	Sololá	704	Santa Lucía Utatlán 	7	Santa Rita 	11	Noviembre	2023-05-11T00:00:00	2024-11-08T01:00:00	3	Temperatura mínima	24.2
127156	7	Sololá	704	Santa Lucía Utatlán 	7	Santa Rita 	11	Noviembre	2023-05-11T00:00:00	2024-11-08T01:00:00	5	Humedad	69
127157	7	Sololá	704	Santa Lucía Utatlán 	7	Santa Rita 	11	Noviembre	2023-05-11T00:00:00	2024-11-08T01:00:00	6	Velocidad del viento	11.3
127158	7	Sololá	704	Santa Lucía Utatlán 	7	Santa Rita 	11	Noviembre	2023-05-11T00:00:00	2024-11-08T01:00:00	7	Dirección del viento	11.27
127159	7	Sololá	704	Santa Lucía Utatlán 	7	Santa Rita 	11	Noviembre	2023-05-11T00:00:00	2024-11-08T01:00:00	1	Precipitación	0
127160	7	Sololá	704	Santa Lucía Utatlán 	7	Santa Rita 	11	Noviembre	2023-05-11T00:00:00	2024-11-08T01:00:00	8	Radiación solar	0
127161	7	Sololá	704	Santa Lucía Utatlán 	7	Santa Rita 	11	Noviembre	2023-05-11T00:00:00	2024-11-08T02:00:00	2	Temperatura media	24.1
127162	7	Sololá	704	Santa Lucía Utatlán 	7	Santa Rita 	11	Noviembre	2023-05-11T00:00:00	2024-11-08T02:00:00	4	Temperatura máxima	25.3
127163	7	Sololá	704	Santa Lucía Utatlán 	7	Santa Rita 	11	Noviembre	2023-05-11T00:00:00	2024-11-08T02:00:00	3	Temperatura mínima	24.1
127164	7	Sololá	704	Santa Lucía Utatlán 	7	Santa Rita 	11	Noviembre	2023-05-11T00:00:00	2024-11-08T02:00:00	5	Humedad	73
127165	7	Sololá	704	Santa Lucía Utatlán 	7	Santa Rita 	11	Noviembre	2023-05-11T00:00:00	2024-11-08T02:00:00	6	Velocidad del viento	9.7
127166	7	Sololá	704	Santa Lucía Utatlán 	7	Santa Rita 	11	Noviembre	2023-05-11T00:00:00	2024-11-08T02:00:00	7	Dirección del viento	9.66
127167	7	Sololá	704	Santa Lucía Utatlán 	7	Santa Rita 	11	Noviembre	2023-05-11T00:00:00	2024-11-08T02:00:00	1	Precipitación	0
127168	7	Sololá	704	Santa Lucía Utatlán 	7	Santa Rita 	11	Noviembre	2023-05-11T00:00:00	2024-11-08T02:00:00	8	Radiación solar	0
127169	7	Sololá	704	Santa Lucía Utatlán 	7	Santa Rita 	11	Noviembre	2023-05-11T00:00:00	2024-11-08T03:00:00	2	Temperatura media	23.8
127170	7	Sololá	704	Santa Lucía Utatlán 	7	Santa Rita 	11	Noviembre	2023-05-11T00:00:00	2024-11-08T03:00:00	4	Temperatura máxima	24.4
127171	7	Sololá	704	Santa Lucía Utatlán 	7	Santa Rita 	11	Noviembre	2023-05-11T00:00:00	2024-11-08T03:00:00	3	Temperatura mínima	23.6
127172	7	Sololá	704	Santa Lucía Utatlán 	7	Santa Rita 	11	Noviembre	2023-05-11T00:00:00	2024-11-08T03:00:00	5	Humedad	74
127173	7	Sololá	704	Santa Lucía Utatlán 	7	Santa Rita 	11	Noviembre	2023-05-11T00:00:00	2024-11-08T03:00:00	6	Velocidad del viento	8
127174	7	Sololá	704	Santa Lucía Utatlán 	7	Santa Rita 	11	Noviembre	2023-05-11T00:00:00	2024-11-08T03:00:00	7	Dirección del viento	8.05
127175	7	Sololá	704	Santa Lucía Utatlán 	7	Santa Rita 	11	Noviembre	2023-05-11T00:00:00	2024-11-08T03:00:00	1	Precipitación	0
127176	7	Sololá	704	Santa Lucía Utatlán 	7	Santa Rita 	11	Noviembre	2023-05-11T00:00:00	2024-11-08T03:00:00	8	Radiación solar	0
127177	7	Sololá	704	Santa Lucía Utatlán 	7	Santa Rita 	11	Noviembre	2023-05-11T00:00:00	2024-11-08T04:00:00	2	Temperatura media	23.2
127178	7	Sololá	704	Santa Lucía Utatlán 	7	Santa Rita 	11	Noviembre	2023-05-11T00:00:00	2024-11-08T04:00:00	4	Temperatura máxima	24.3
127179	7	Sololá	704	Santa Lucía Utatlán 	7	Santa Rita 	11	Noviembre	2023-05-11T00:00:00	2024-11-08T04:00:00	3	Temperatura mínima	23.2
127180	7	Sololá	704	Santa Lucía Utatlán 	7	Santa Rita 	11	Noviembre	2023-05-11T00:00:00	2024-11-08T04:00:00	5	Humedad	73
127181	7	Sololá	704	Santa Lucía Utatlán 	7	Santa Rita 	11	Noviembre	2023-05-11T00:00:00	2024-11-08T04:00:00	6	Velocidad del viento	6.4
127182	7	Sololá	704	Santa Lucía Utatlán 	7	Santa Rita 	11	Noviembre	2023-05-11T00:00:00	2024-11-08T04:00:00	7	Dirección del viento	6.44
127183	7	Sololá	704	Santa Lucía Utatlán 	7	Santa Rita 	11	Noviembre	2023-05-11T00:00:00	2024-11-08T04:00:00	1	Precipitación	0
127184	7	Sololá	704	Santa Lucía Utatlán 	7	Santa Rita 	11	Noviembre	2023-05-11T00:00:00	2024-11-08T04:00:00	8	Radiación solar	0
127185	7	Sololá	704	Santa Lucía Utatlán 	7	Santa Rita 	11	Noviembre	2023-05-11T00:00:00	2024-11-08T05:00:00	2	Temperatura media	21.9
127186	7	Sololá	704	Santa Lucía Utatlán 	7	Santa Rita 	11	Noviembre	2023-05-11T00:00:00	2024-11-08T05:00:00	4	Temperatura máxima	23.3
127187	7	Sololá	704	Santa Lucía Utatlán 	7	Santa Rita 	11	Noviembre	2023-05-11T00:00:00	2024-11-08T05:00:00	3	Temperatura mínima	21.8
127188	7	Sololá	704	Santa Lucía Utatlán 	7	Santa Rita 	11	Noviembre	2023-05-11T00:00:00	2024-11-08T05:00:00	5	Humedad	80
127189	7	Sololá	704	Santa Lucía Utatlán 	7	Santa Rita 	11	Noviembre	2023-05-11T00:00:00	2024-11-08T05:00:00	6	Velocidad del viento	3.2
127190	7	Sololá	704	Santa Lucía Utatlán 	7	Santa Rita 	11	Noviembre	2023-05-11T00:00:00	2024-11-08T05:00:00	7	Dirección del viento	3.22
127191	7	Sololá	704	Santa Lucía Utatlán 	7	Santa Rita 	11	Noviembre	2023-05-11T00:00:00	2024-11-08T05:00:00	1	Precipitación	0
127192	7	Sololá	704	Santa Lucía Utatlán 	7	Santa Rita 	11	Noviembre	2023-05-11T00:00:00	2024-11-08T05:00:00	8	Radiación solar	0
127193	7	Sololá	704	Santa Lucía Utatlán 	7	Santa Rita 	11	Noviembre	2023-05-11T00:00:00	2024-11-08T06:00:00	2	Temperatura media	20.4
127194	7	Sololá	704	Santa Lucía Utatlán 	7	Santa Rita 	11	Noviembre	2023-05-11T00:00:00	2024-11-08T06:00:00	4	Temperatura máxima	21.9
127195	7	Sololá	704	Santa Lucía Utatlán 	7	Santa Rita 	11	Noviembre	2023-05-11T00:00:00	2024-11-08T06:00:00	3	Temperatura mínima	20.4
127196	7	Sololá	704	Santa Lucía Utatlán 	7	Santa Rita 	11	Noviembre	2023-05-11T00:00:00	2024-11-08T06:00:00	5	Humedad	87
127197	7	Sololá	704	Santa Lucía Utatlán 	7	Santa Rita 	11	Noviembre	2023-05-11T00:00:00	2024-11-08T06:00:00	6	Velocidad del viento	1.6
127198	7	Sololá	704	Santa Lucía Utatlán 	7	Santa Rita 	11	Noviembre	2023-05-11T00:00:00	2024-11-08T06:00:00	7	Dirección del viento	1.61
127199	7	Sololá	704	Santa Lucía Utatlán 	7	Santa Rita 	11	Noviembre	2023-05-11T00:00:00	2024-11-08T06:00:00	1	Precipitación	0
127200	7	Sololá	704	Santa Lucía Utatlán 	7	Santa Rita 	11	Noviembre	2023-05-11T00:00:00	2024-11-08T06:00:00	8	Radiación solar	18
127201	7	Sololá	704	Santa Lucía Utatlán 	7	Santa Rita 	11	Noviembre	2023-05-11T00:00:00	2024-11-08T07:00:00	2	Temperatura media	19.7
127202	7	Sololá	704	Santa Lucía Utatlán 	7	Santa Rita 	11	Noviembre	2023-05-11T00:00:00	2024-11-08T07:00:00	4	Temperatura máxima	20.4
127203	7	Sololá	704	Santa Lucía Utatlán 	7	Santa Rita 	11	Noviembre	2023-05-11T00:00:00	2024-11-08T07:00:00	3	Temperatura mínima	19.7
127204	7	Sololá	704	Santa Lucía Utatlán 	7	Santa Rita 	11	Noviembre	2023-05-11T00:00:00	2024-11-08T07:00:00	5	Humedad	90
127205	7	Sololá	704	Santa Lucía Utatlán 	7	Santa Rita 	11	Noviembre	2023-05-11T00:00:00	2024-11-08T07:00:00	6	Velocidad del viento	1.6
127206	7	Sololá	704	Santa Lucía Utatlán 	7	Santa Rita 	11	Noviembre	2023-05-11T00:00:00	2024-11-08T07:00:00	7	Dirección del viento	1.61
127207	7	Sololá	704	Santa Lucía Utatlán 	7	Santa Rita 	11	Noviembre	2023-05-11T00:00:00	2024-11-08T07:00:00	1	Precipitación	0
127208	7	Sololá	704	Santa Lucía Utatlán 	7	Santa Rita 	11	Noviembre	2023-05-11T00:00:00	2024-11-08T07:00:00	8	Radiación solar	94
127209	7	Sololá	704	Santa Lucía Utatlán 	7	Santa Rita 	11	Noviembre	2023-05-11T00:00:00	2024-11-08T08:00:00	2	Temperatura media	19.1
127210	7	Sololá	704	Santa Lucía Utatlán 	7	Santa Rita 	11	Noviembre	2023-05-11T00:00:00	2024-11-08T08:00:00	4	Temperatura máxima	19.8
127211	7	Sololá	704	Santa Lucía Utatlán 	7	Santa Rita 	11	Noviembre	2023-05-11T00:00:00	2024-11-08T08:00:00	3	Temperatura mínima	18.8
127212	7	Sololá	704	Santa Lucía Utatlán 	7	Santa Rita 	11	Noviembre	2023-05-11T00:00:00	2024-11-08T08:00:00	5	Humedad	91
127213	7	Sololá	704	Santa Lucía Utatlán 	7	Santa Rita 	11	Noviembre	2023-05-11T00:00:00	2024-11-08T08:00:00	6	Velocidad del viento	1.6
127214	7	Sololá	704	Santa Lucía Utatlán 	7	Santa Rita 	11	Noviembre	2023-05-11T00:00:00	2024-11-08T08:00:00	7	Dirección del viento	1.61
127215	7	Sololá	704	Santa Lucía Utatlán 	7	Santa Rita 	11	Noviembre	2023-05-11T00:00:00	2024-11-08T08:00:00	1	Precipitación	0
127216	7	Sololá	704	Santa Lucía Utatlán 	7	Santa Rita 	11	Noviembre	2023-05-11T00:00:00	2024-11-08T08:00:00	8	Radiación solar	247
127217	7	Sololá	704	Santa Lucía Utatlán 	7	Santa Rita 	11	Noviembre	2023-05-11T00:00:00	2024-11-08T09:00:00	2	Temperatura media	18.3
127218	7	Sololá	704	Santa Lucía Utatlán 	7	Santa Rita 	11	Noviembre	2023-05-11T00:00:00	2024-11-08T09:00:00	4	Temperatura máxima	19.1
127219	7	Sololá	704	Santa Lucía Utatlán 	7	Santa Rita 	11	Noviembre	2023-05-11T00:00:00	2024-11-08T09:00:00	3	Temperatura mínima	18.3
127220	7	Sololá	704	Santa Lucía Utatlán 	7	Santa Rita 	11	Noviembre	2023-05-11T00:00:00	2024-11-08T09:00:00	5	Humedad	93
127221	7	Sololá	704	Santa Lucía Utatlán 	7	Santa Rita 	11	Noviembre	2023-05-11T00:00:00	2024-11-08T09:00:00	6	Velocidad del viento	3.2
127222	7	Sololá	704	Santa Lucía Utatlán 	7	Santa Rita 	11	Noviembre	2023-05-11T00:00:00	2024-11-08T09:00:00	7	Dirección del viento	3.22
127223	7	Sololá	704	Santa Lucía Utatlán 	7	Santa Rita 	11	Noviembre	2023-05-11T00:00:00	2024-11-08T09:00:00	1	Precipitación	0
127224	7	Sololá	704	Santa Lucía Utatlán 	7	Santa Rita 	11	Noviembre	2023-05-11T00:00:00	2024-11-08T09:00:00	8	Radiación solar	660
127225	7	Sololá	704	Santa Lucía Utatlán 	7	Santa Rita 	11	Noviembre	2023-05-11T00:00:00	2024-11-08T10:00:00	2	Temperatura media	17.9
127226	7	Sololá	704	Santa Lucía Utatlán 	7	Santa Rita 	11	Noviembre	2023-05-11T00:00:00	2024-11-08T10:00:00	4	Temperatura máxima	18.3
127227	7	Sololá	704	Santa Lucía Utatlán 	7	Santa Rita 	11	Noviembre	2023-05-11T00:00:00	2024-11-08T10:00:00	3	Temperatura mínima	17.8
127228	7	Sololá	704	Santa Lucía Utatlán 	7	Santa Rita 	11	Noviembre	2023-05-11T00:00:00	2024-11-08T10:00:00	5	Humedad	93
127229	7	Sololá	704	Santa Lucía Utatlán 	7	Santa Rita 	11	Noviembre	2023-05-11T00:00:00	2024-11-08T10:00:00	6	Velocidad del viento	3.2
127230	7	Sololá	704	Santa Lucía Utatlán 	7	Santa Rita 	11	Noviembre	2023-05-11T00:00:00	2024-11-08T10:00:00	7	Dirección del viento	3.22
127231	7	Sololá	704	Santa Lucía Utatlán 	7	Santa Rita 	11	Noviembre	2023-05-11T00:00:00	2024-11-08T10:00:00	1	Precipitación	0
127232	7	Sololá	704	Santa Lucía Utatlán 	7	Santa Rita 	11	Noviembre	2023-05-11T00:00:00	2024-11-08T10:00:00	8	Radiación solar	713
127233	7	Sololá	704	Santa Lucía Utatlán 	7	Santa Rita 	11	Noviembre	2023-05-11T00:00:00	2024-11-08T11:00:00	2	Temperatura media	17.6
127234	7	Sololá	704	Santa Lucía Utatlán 	7	Santa Rita 	11	Noviembre	2023-05-11T00:00:00	2024-11-08T11:00:00	4	Temperatura máxima	17.9
127235	7	Sololá	704	Santa Lucía Utatlán 	7	Santa Rita 	11	Noviembre	2023-05-11T00:00:00	2024-11-08T11:00:00	3	Temperatura mínima	17.6
127236	7	Sololá	704	Santa Lucía Utatlán 	7	Santa Rita 	11	Noviembre	2023-05-11T00:00:00	2024-11-08T11:00:00	5	Humedad	92
127237	7	Sololá	704	Santa Lucía Utatlán 	7	Santa Rita 	11	Noviembre	2023-05-11T00:00:00	2024-11-08T11:00:00	6	Velocidad del viento	4.8
127238	7	Sololá	704	Santa Lucía Utatlán 	7	Santa Rita 	11	Noviembre	2023-05-11T00:00:00	2024-11-08T11:00:00	7	Dirección del viento	4.83
127239	7	Sololá	704	Santa Lucía Utatlán 	7	Santa Rita 	11	Noviembre	2023-05-11T00:00:00	2024-11-08T11:00:00	1	Precipitación	0
127240	7	Sololá	704	Santa Lucía Utatlán 	7	Santa Rita 	11	Noviembre	2023-05-11T00:00:00	2024-11-08T11:00:00	8	Radiación solar	767
127241	7	Sololá	704	Santa Lucía Utatlán 	7	Santa Rita 	11	Noviembre	2023-05-11T00:00:00	2024-11-08T12:00:00	2	Temperatura media	17.4
127242	7	Sololá	704	Santa Lucía Utatlán 	7	Santa Rita 	11	Noviembre	2023-05-11T00:00:00	2024-11-08T12:00:00	4	Temperatura máxima	17.8
127243	7	Sololá	704	Santa Lucía Utatlán 	7	Santa Rita 	11	Noviembre	2023-05-11T00:00:00	2024-11-08T12:00:00	3	Temperatura mínima	17.4
127244	7	Sololá	704	Santa Lucía Utatlán 	7	Santa Rita 	11	Noviembre	2023-05-11T00:00:00	2024-11-08T12:00:00	5	Humedad	92
127245	7	Sololá	704	Santa Lucía Utatlán 	7	Santa Rita 	11	Noviembre	2023-05-11T00:00:00	2024-11-08T12:00:00	6	Velocidad del viento	3.2
127246	7	Sololá	704	Santa Lucía Utatlán 	7	Santa Rita 	11	Noviembre	2023-05-11T00:00:00	2024-11-08T12:00:00	7	Dirección del viento	3.22
127247	7	Sololá	704	Santa Lucía Utatlán 	7	Santa Rita 	11	Noviembre	2023-05-11T00:00:00	2024-11-08T12:00:00	1	Precipitación	0
127248	7	Sololá	704	Santa Lucía Utatlán 	7	Santa Rita 	11	Noviembre	2023-05-11T00:00:00	2024-11-08T12:00:00	8	Radiación solar	589
127249	7	Sololá	704	Santa Lucía Utatlán 	7	Santa Rita 	11	Noviembre	2023-05-11T00:00:00	2024-11-08T13:00:00	2	Temperatura media	17.1
127250	7	Sololá	704	Santa Lucía Utatlán 	7	Santa Rita 	11	Noviembre	2023-05-11T00:00:00	2024-11-08T13:00:00	4	Temperatura máxima	17.5
127251	7	Sololá	704	Santa Lucía Utatlán 	7	Santa Rita 	11	Noviembre	2023-05-11T00:00:00	2024-11-08T13:00:00	3	Temperatura mínima	17.1
127252	7	Sololá	704	Santa Lucía Utatlán 	7	Santa Rita 	11	Noviembre	2023-05-11T00:00:00	2024-11-08T13:00:00	5	Humedad	92
127253	7	Sololá	704	Santa Lucía Utatlán 	7	Santa Rita 	11	Noviembre	2023-05-11T00:00:00	2024-11-08T13:00:00	6	Velocidad del viento	3.2
127254	7	Sololá	704	Santa Lucía Utatlán 	7	Santa Rita 	11	Noviembre	2023-05-11T00:00:00	2024-11-08T13:00:00	7	Dirección del viento	3.22
127255	7	Sololá	704	Santa Lucía Utatlán 	7	Santa Rita 	11	Noviembre	2023-05-11T00:00:00	2024-11-08T13:00:00	1	Precipitación	0
127256	7	Sololá	704	Santa Lucía Utatlán 	7	Santa Rita 	11	Noviembre	2023-05-11T00:00:00	2024-11-08T13:00:00	8	Radiación solar	276
127257	7	Sololá	704	Santa Lucía Utatlán 	7	Santa Rita 	11	Noviembre	2023-05-11T00:00:00	2024-11-08T14:00:00	2	Temperatura media	16.9
127258	7	Sololá	704	Santa Lucía Utatlán 	7	Santa Rita 	11	Noviembre	2023-05-11T00:00:00	2024-11-08T14:00:00	4	Temperatura máxima	17.2
127259	7	Sololá	704	Santa Lucía Utatlán 	7	Santa Rita 	11	Noviembre	2023-05-11T00:00:00	2024-11-08T14:00:00	3	Temperatura mínima	16.9
127260	7	Sololá	704	Santa Lucía Utatlán 	7	Santa Rita 	11	Noviembre	2023-05-11T00:00:00	2024-11-08T14:00:00	5	Humedad	92
127261	7	Sololá	704	Santa Lucía Utatlán 	7	Santa Rita 	11	Noviembre	2023-05-11T00:00:00	2024-11-08T14:00:00	6	Velocidad del viento	4.8
127262	7	Sololá	704	Santa Lucía Utatlán 	7	Santa Rita 	11	Noviembre	2023-05-11T00:00:00	2024-11-08T14:00:00	7	Dirección del viento	4.83
127263	7	Sololá	704	Santa Lucía Utatlán 	7	Santa Rita 	11	Noviembre	2023-05-11T00:00:00	2024-11-08T14:00:00	1	Precipitación	0
127264	7	Sololá	704	Santa Lucía Utatlán 	7	Santa Rita 	11	Noviembre	2023-05-11T00:00:00	2024-11-08T14:00:00	8	Radiación solar	234
127265	7	Sololá	704	Santa Lucía Utatlán 	7	Santa Rita 	11	Noviembre	2023-05-11T00:00:00	2024-11-08T15:00:00	2	Temperatura media	16.4
127266	7	Sololá	704	Santa Lucía Utatlán 	7	Santa Rita 	11	Noviembre	2023-05-11T00:00:00	2024-11-08T15:00:00	4	Temperatura máxima	17.1
127267	7	Sololá	704	Santa Lucía Utatlán 	7	Santa Rita 	11	Noviembre	2023-05-11T00:00:00	2024-11-08T15:00:00	3	Temperatura mínima	16.4
127268	7	Sololá	704	Santa Lucía Utatlán 	7	Santa Rita 	11	Noviembre	2023-05-11T00:00:00	2024-11-08T15:00:00	5	Humedad	90
127269	7	Sololá	704	Santa Lucía Utatlán 	7	Santa Rita 	11	Noviembre	2023-05-11T00:00:00	2024-11-08T15:00:00	6	Velocidad del viento	4.8
127270	7	Sololá	704	Santa Lucía Utatlán 	7	Santa Rita 	11	Noviembre	2023-05-11T00:00:00	2024-11-08T15:00:00	7	Dirección del viento	4.83
127271	7	Sololá	704	Santa Lucía Utatlán 	7	Santa Rita 	11	Noviembre	2023-05-11T00:00:00	2024-11-08T15:00:00	1	Precipitación	0
127272	7	Sololá	704	Santa Lucía Utatlán 	7	Santa Rita 	11	Noviembre	2023-05-11T00:00:00	2024-11-08T15:00:00	8	Radiación solar	134
127273	7	Sololá	704	Santa Lucía Utatlán 	7	Santa Rita 	11	Noviembre	2023-05-11T00:00:00	2024-11-08T16:00:00	2	Temperatura media	16.7
127274	7	Sololá	704	Santa Lucía Utatlán 	7	Santa Rita 	11	Noviembre	2023-05-11T00:00:00	2024-11-08T16:00:00	4	Temperatura máxima	16.7
127275	7	Sololá	704	Santa Lucía Utatlán 	7	Santa Rita 	11	Noviembre	2023-05-11T00:00:00	2024-11-08T16:00:00	3	Temperatura mínima	16.2
127276	7	Sololá	704	Santa Lucía Utatlán 	7	Santa Rita 	11	Noviembre	2023-05-11T00:00:00	2024-11-08T16:00:00	5	Humedad	78
127277	7	Sololá	704	Santa Lucía Utatlán 	7	Santa Rita 	11	Noviembre	2023-05-11T00:00:00	2024-11-08T16:00:00	6	Velocidad del viento	6.4
127278	7	Sololá	704	Santa Lucía Utatlán 	7	Santa Rita 	11	Noviembre	2023-05-11T00:00:00	2024-11-08T16:00:00	7	Dirección del viento	6.44
127279	7	Sololá	704	Santa Lucía Utatlán 	7	Santa Rita 	11	Noviembre	2023-05-11T00:00:00	2024-11-08T16:00:00	1	Precipitación	0
127280	7	Sololá	704	Santa Lucía Utatlán 	7	Santa Rita 	11	Noviembre	2023-05-11T00:00:00	2024-11-08T16:00:00	8	Radiación solar	21
127281	7	Sololá	704	Santa Lucía Utatlán 	7	Santa Rita 	11	Noviembre	2023-05-11T00:00:00	2024-11-08T17:00:00	2	Temperatura media	17.3
127282	7	Sololá	704	Santa Lucía Utatlán 	7	Santa Rita 	11	Noviembre	2023-05-11T00:00:00	2024-11-08T17:00:00	4	Temperatura máxima	17.4
127283	7	Sololá	704	Santa Lucía Utatlán 	7	Santa Rita 	11	Noviembre	2023-05-11T00:00:00	2024-11-08T17:00:00	3	Temperatura mínima	16.7
127284	7	Sololá	704	Santa Lucía Utatlán 	7	Santa Rita 	11	Noviembre	2023-05-11T00:00:00	2024-11-08T17:00:00	5	Humedad	75
127285	7	Sololá	704	Santa Lucía Utatlán 	7	Santa Rita 	11	Noviembre	2023-05-11T00:00:00	2024-11-08T17:00:00	6	Velocidad del viento	6.4
127286	7	Sololá	704	Santa Lucía Utatlán 	7	Santa Rita 	11	Noviembre	2023-05-11T00:00:00	2024-11-08T17:00:00	7	Dirección del viento	6.44
127287	7	Sololá	704	Santa Lucía Utatlán 	7	Santa Rita 	11	Noviembre	2023-05-11T00:00:00	2024-11-08T17:00:00	1	Precipitación	0
127288	7	Sololá	704	Santa Lucía Utatlán 	7	Santa Rita 	11	Noviembre	2023-05-11T00:00:00	2024-11-08T17:00:00	8	Radiación solar	0
127289	7	Sololá	704	Santa Lucía Utatlán 	7	Santa Rita 	11	Noviembre	2023-05-11T00:00:00	2024-11-08T18:00:00	2	Temperatura media	18.1
127290	7	Sololá	704	Santa Lucía Utatlán 	7	Santa Rita 	11	Noviembre	2023-05-11T00:00:00	2024-11-08T18:00:00	4	Temperatura máxima	18.2
127291	7	Sololá	704	Santa Lucía Utatlán 	7	Santa Rita 	11	Noviembre	2023-05-11T00:00:00	2024-11-08T18:00:00	3	Temperatura mínima	17.2
127292	7	Sololá	704	Santa Lucía Utatlán 	7	Santa Rita 	11	Noviembre	2023-05-11T00:00:00	2024-11-08T18:00:00	5	Humedad	75
127293	7	Sololá	704	Santa Lucía Utatlán 	7	Santa Rita 	11	Noviembre	2023-05-11T00:00:00	2024-11-08T18:00:00	6	Velocidad del viento	6.4
127294	7	Sololá	704	Santa Lucía Utatlán 	7	Santa Rita 	11	Noviembre	2023-05-11T00:00:00	2024-11-08T18:00:00	7	Dirección del viento	6.44
127295	7	Sololá	704	Santa Lucía Utatlán 	7	Santa Rita 	11	Noviembre	2023-05-11T00:00:00	2024-11-08T18:00:00	1	Precipitación	0
127296	7	Sololá	704	Santa Lucía Utatlán 	7	Santa Rita 	11	Noviembre	2023-05-11T00:00:00	2024-11-08T18:00:00	8	Radiación solar	0
127297	7	Sololá	704	Santa Lucía Utatlán 	7	Santa Rita 	11	Noviembre	2023-05-11T00:00:00	2024-11-08T19:00:00	2	Temperatura media	21.7
127298	7	Sololá	704	Santa Lucía Utatlán 	7	Santa Rita 	11	Noviembre	2023-05-11T00:00:00	2024-11-08T19:00:00	4	Temperatura máxima	21.7
127299	7	Sololá	704	Santa Lucía Utatlán 	7	Santa Rita 	11	Noviembre	2023-05-11T00:00:00	2024-11-08T19:00:00	3	Temperatura mínima	18.2
127300	7	Sololá	704	Santa Lucía Utatlán 	7	Santa Rita 	11	Noviembre	2023-05-11T00:00:00	2024-11-08T19:00:00	5	Humedad	70
127301	7	Sololá	704	Santa Lucía Utatlán 	7	Santa Rita 	11	Noviembre	2023-05-11T00:00:00	2024-11-08T19:00:00	6	Velocidad del viento	3.2
127302	7	Sololá	704	Santa Lucía Utatlán 	7	Santa Rita 	11	Noviembre	2023-05-11T00:00:00	2024-11-08T19:00:00	7	Dirección del viento	3.22
127303	7	Sololá	704	Santa Lucía Utatlán 	7	Santa Rita 	11	Noviembre	2023-05-11T00:00:00	2024-11-08T19:00:00	1	Precipitación	0
127304	7	Sololá	704	Santa Lucía Utatlán 	7	Santa Rita 	11	Noviembre	2023-05-11T00:00:00	2024-11-08T19:00:00	8	Radiación solar	0
127305	7	Sololá	704	Santa Lucía Utatlán 	7	Santa Rita 	11	Noviembre	2023-05-11T00:00:00	2024-11-08T20:00:00	2	Temperatura media	23.8
127306	7	Sololá	704	Santa Lucía Utatlán 	7	Santa Rita 	11	Noviembre	2023-05-11T00:00:00	2024-11-08T20:00:00	4	Temperatura máxima	24.1
127307	7	Sololá	704	Santa Lucía Utatlán 	7	Santa Rita 	11	Noviembre	2023-05-11T00:00:00	2024-11-08T20:00:00	3	Temperatura mínima	21.7
127308	7	Sololá	704	Santa Lucía Utatlán 	7	Santa Rita 	11	Noviembre	2023-05-11T00:00:00	2024-11-08T20:00:00	5	Humedad	62
127309	7	Sololá	704	Santa Lucía Utatlán 	7	Santa Rita 	11	Noviembre	2023-05-11T00:00:00	2024-11-08T20:00:00	6	Velocidad del viento	3.2
127310	7	Sololá	704	Santa Lucía Utatlán 	7	Santa Rita 	11	Noviembre	2023-05-11T00:00:00	2024-11-08T20:00:00	7	Dirección del viento	3.22
127311	7	Sololá	704	Santa Lucía Utatlán 	7	Santa Rita 	11	Noviembre	2023-05-11T00:00:00	2024-11-08T20:00:00	1	Precipitación	0
127312	7	Sololá	704	Santa Lucía Utatlán 	7	Santa Rita 	11	Noviembre	2023-05-11T00:00:00	2024-11-08T20:00:00	8	Radiación solar	0
127313	7	Sololá	704	Santa Lucía Utatlán 	7	Santa Rita 	11	Noviembre	2023-05-11T00:00:00	2024-11-08T21:00:00	2	Temperatura media	25.1
127314	7	Sololá	704	Santa Lucía Utatlán 	7	Santa Rita 	11	Noviembre	2023-05-11T00:00:00	2024-11-08T21:00:00	4	Temperatura máxima	25.1
127315	7	Sololá	704	Santa Lucía Utatlán 	7	Santa Rita 	11	Noviembre	2023-05-11T00:00:00	2024-11-08T21:00:00	3	Temperatura mínima	23.7
127316	7	Sololá	704	Santa Lucía Utatlán 	7	Santa Rita 	11	Noviembre	2023-05-11T00:00:00	2024-11-08T21:00:00	5	Humedad	66
127317	7	Sololá	704	Santa Lucía Utatlán 	7	Santa Rita 	11	Noviembre	2023-05-11T00:00:00	2024-11-08T21:00:00	6	Velocidad del viento	4.8
127318	7	Sololá	704	Santa Lucía Utatlán 	7	Santa Rita 	11	Noviembre	2023-05-11T00:00:00	2024-11-08T21:00:00	7	Dirección del viento	4.83
127319	7	Sololá	704	Santa Lucía Utatlán 	7	Santa Rita 	11	Noviembre	2023-05-11T00:00:00	2024-11-08T21:00:00	1	Precipitación	0
127320	7	Sololá	704	Santa Lucía Utatlán 	7	Santa Rita 	11	Noviembre	2023-05-11T00:00:00	2024-11-08T21:00:00	8	Radiación solar	0
127321	7	Sololá	704	Santa Lucía Utatlán 	7	Santa Rita 	11	Noviembre	2023-05-11T00:00:00	2024-11-08T22:00:00	2	Temperatura media	24.5
127322	7	Sololá	704	Santa Lucía Utatlán 	7	Santa Rita 	11	Noviembre	2023-05-11T00:00:00	2024-11-08T22:00:00	4	Temperatura máxima	25.1
127323	7	Sololá	704	Santa Lucía Utatlán 	7	Santa Rita 	11	Noviembre	2023-05-11T00:00:00	2024-11-08T22:00:00	3	Temperatura mínima	24.3
127324	7	Sololá	704	Santa Lucía Utatlán 	7	Santa Rita 	11	Noviembre	2023-05-11T00:00:00	2024-11-08T22:00:00	5	Humedad	69
127325	7	Sololá	704	Santa Lucía Utatlán 	7	Santa Rita 	11	Noviembre	2023-05-11T00:00:00	2024-11-08T22:00:00	6	Velocidad del viento	8
127326	7	Sololá	704	Santa Lucía Utatlán 	7	Santa Rita 	11	Noviembre	2023-05-11T00:00:00	2024-11-08T22:00:00	7	Dirección del viento	8.05
127327	7	Sololá	704	Santa Lucía Utatlán 	7	Santa Rita 	11	Noviembre	2023-05-11T00:00:00	2024-11-08T22:00:00	1	Precipitación	0
127328	7	Sololá	704	Santa Lucía Utatlán 	7	Santa Rita 	11	Noviembre	2023-05-11T00:00:00	2024-11-08T22:00:00	8	Radiación solar	0
127329	7	Sololá	704	Santa Lucía Utatlán 	7	Santa Rita 	11	Noviembre	2023-05-11T00:00:00	2024-11-08T23:00:00	2	Temperatura media	25.7
127330	7	Sololá	704	Santa Lucía Utatlán 	7	Santa Rita 	11	Noviembre	2023-05-11T00:00:00	2024-11-08T23:00:00	4	Temperatura máxima	25.7
127331	7	Sololá	704	Santa Lucía Utatlán 	7	Santa Rita 	11	Noviembre	2023-05-11T00:00:00	2024-11-08T23:00:00	3	Temperatura mínima	24.3
127332	7	Sololá	704	Santa Lucía Utatlán 	7	Santa Rita 	11	Noviembre	2023-05-11T00:00:00	2024-11-08T23:00:00	5	Humedad	73
127333	7	Sololá	704	Santa Lucía Utatlán 	7	Santa Rita 	11	Noviembre	2023-05-11T00:00:00	2024-11-08T23:00:00	6	Velocidad del viento	6.4
127334	7	Sololá	704	Santa Lucía Utatlán 	7	Santa Rita 	11	Noviembre	2023-05-11T00:00:00	2024-11-08T23:00:00	7	Dirección del viento	6.44
127335	7	Sololá	704	Santa Lucía Utatlán 	7	Santa Rita 	11	Noviembre	2023-05-11T00:00:00	2024-11-08T23:00:00	1	Precipitación	0
127336	7	Sololá	704	Santa Lucía Utatlán 	7	Santa Rita 	11	Noviembre	2023-05-11T00:00:00	2024-11-08T23:00:00	8	Radiación solar	0
127337	7	Sololá	704	Santa Lucía Utatlán 	7	Santa Rita 	11	Noviembre	2023-06-11T00:00:00	2024-11-08T00:00:00	2	Temperatura media	25.2
127338	7	Sololá	704	Santa Lucía Utatlán 	7	Santa Rita 	11	Noviembre	2023-06-11T00:00:00	2024-11-08T00:00:00	4	Temperatura máxima	25.7
127339	7	Sololá	704	Santa Lucía Utatlán 	7	Santa Rita 	11	Noviembre	2023-06-11T00:00:00	2024-11-08T00:00:00	3	Temperatura mínima	24.7
127340	7	Sololá	704	Santa Lucía Utatlán 	7	Santa Rita 	11	Noviembre	2023-06-11T00:00:00	2024-11-08T00:00:00	5	Humedad	72
127341	7	Sololá	704	Santa Lucía Utatlán 	7	Santa Rita 	11	Noviembre	2023-06-11T00:00:00	2024-11-08T00:00:00	6	Velocidad del viento	6.4
127342	7	Sololá	704	Santa Lucía Utatlán 	7	Santa Rita 	11	Noviembre	2023-06-11T00:00:00	2024-11-08T00:00:00	7	Dirección del viento	6.44
127343	7	Sololá	704	Santa Lucía Utatlán 	7	Santa Rita 	11	Noviembre	2023-06-11T00:00:00	2024-11-08T00:00:00	1	Precipitación	0
127344	7	Sololá	704	Santa Lucía Utatlán 	7	Santa Rita 	11	Noviembre	2023-06-11T00:00:00	2024-11-08T00:00:00	8	Radiación solar	0
127345	7	Sololá	704	Santa Lucía Utatlán 	7	Santa Rita 	11	Noviembre	2023-06-11T00:00:00	2024-11-08T01:00:00	2	Temperatura media	25.8
127346	7	Sololá	704	Santa Lucía Utatlán 	7	Santa Rita 	11	Noviembre	2023-06-11T00:00:00	2024-11-08T01:00:00	4	Temperatura máxima	25.9
127347	7	Sololá	704	Santa Lucía Utatlán 	7	Santa Rita 	11	Noviembre	2023-06-11T00:00:00	2024-11-08T01:00:00	3	Temperatura mínima	25.2
127348	7	Sololá	704	Santa Lucía Utatlán 	7	Santa Rita 	11	Noviembre	2023-06-11T00:00:00	2024-11-08T01:00:00	5	Humedad	67
127349	7	Sololá	704	Santa Lucía Utatlán 	7	Santa Rita 	11	Noviembre	2023-06-11T00:00:00	2024-11-08T01:00:00	6	Velocidad del viento	8
127350	7	Sololá	704	Santa Lucía Utatlán 	7	Santa Rita 	11	Noviembre	2023-06-11T00:00:00	2024-11-08T01:00:00	7	Dirección del viento	8.05
127351	7	Sololá	704	Santa Lucía Utatlán 	7	Santa Rita 	11	Noviembre	2023-06-11T00:00:00	2024-11-08T01:00:00	1	Precipitación	0
127352	7	Sololá	704	Santa Lucía Utatlán 	7	Santa Rita 	11	Noviembre	2023-06-11T00:00:00	2024-11-08T01:00:00	8	Radiación solar	0
127353	7	Sololá	704	Santa Lucía Utatlán 	7	Santa Rita 	11	Noviembre	2023-06-11T00:00:00	2024-11-08T02:00:00	2	Temperatura media	25.4
127354	7	Sololá	704	Santa Lucía Utatlán 	7	Santa Rita 	11	Noviembre	2023-06-11T00:00:00	2024-11-08T02:00:00	4	Temperatura máxima	25.9
127355	7	Sololá	704	Santa Lucía Utatlán 	7	Santa Rita 	11	Noviembre	2023-06-11T00:00:00	2024-11-08T02:00:00	3	Temperatura mínima	25.1
127356	7	Sololá	704	Santa Lucía Utatlán 	7	Santa Rita 	11	Noviembre	2023-06-11T00:00:00	2024-11-08T02:00:00	5	Humedad	72
127357	7	Sololá	704	Santa Lucía Utatlán 	7	Santa Rita 	11	Noviembre	2023-06-11T00:00:00	2024-11-08T02:00:00	6	Velocidad del viento	8
127358	7	Sololá	704	Santa Lucía Utatlán 	7	Santa Rita 	11	Noviembre	2023-06-11T00:00:00	2024-11-08T02:00:00	7	Dirección del viento	8.05
127359	7	Sololá	704	Santa Lucía Utatlán 	7	Santa Rita 	11	Noviembre	2023-06-11T00:00:00	2024-11-08T02:00:00	1	Precipitación	0
127360	7	Sololá	704	Santa Lucía Utatlán 	7	Santa Rita 	11	Noviembre	2023-06-11T00:00:00	2024-11-08T02:00:00	8	Radiación solar	0
127361	7	Sololá	704	Santa Lucía Utatlán 	7	Santa Rita 	11	Noviembre	2023-06-11T00:00:00	2024-11-08T03:00:00	2	Temperatura media	24.2
127362	7	Sololá	704	Santa Lucía Utatlán 	7	Santa Rita 	11	Noviembre	2023-06-11T00:00:00	2024-11-08T03:00:00	4	Temperatura máxima	25.4
127363	7	Sololá	704	Santa Lucía Utatlán 	7	Santa Rita 	11	Noviembre	2023-06-11T00:00:00	2024-11-08T03:00:00	3	Temperatura mínima	23.6
127364	7	Sololá	704	Santa Lucía Utatlán 	7	Santa Rita 	11	Noviembre	2023-06-11T00:00:00	2024-11-08T03:00:00	5	Humedad	79
127365	7	Sololá	704	Santa Lucía Utatlán 	7	Santa Rita 	11	Noviembre	2023-06-11T00:00:00	2024-11-08T03:00:00	6	Velocidad del viento	4.8
127366	7	Sololá	704	Santa Lucía Utatlán 	7	Santa Rita 	11	Noviembre	2023-06-11T00:00:00	2024-11-08T03:00:00	7	Dirección del viento	4.83
127367	7	Sololá	704	Santa Lucía Utatlán 	7	Santa Rita 	11	Noviembre	2023-06-11T00:00:00	2024-11-08T03:00:00	1	Precipitación	0
127368	7	Sololá	704	Santa Lucía Utatlán 	7	Santa Rita 	11	Noviembre	2023-06-11T00:00:00	2024-11-08T03:00:00	8	Radiación solar	0
127369	7	Sololá	704	Santa Lucía Utatlán 	7	Santa Rita 	11	Noviembre	2023-06-11T00:00:00	2024-11-08T04:00:00	2	Temperatura media	22.9
127370	7	Sololá	704	Santa Lucía Utatlán 	7	Santa Rita 	11	Noviembre	2023-06-11T00:00:00	2024-11-08T04:00:00	4	Temperatura máxima	24.2
127371	7	Sololá	704	Santa Lucía Utatlán 	7	Santa Rita 	11	Noviembre	2023-06-11T00:00:00	2024-11-08T04:00:00	3	Temperatura mínima	22.9
127372	7	Sololá	704	Santa Lucía Utatlán 	7	Santa Rita 	11	Noviembre	2023-06-11T00:00:00	2024-11-08T04:00:00	5	Humedad	84
127373	7	Sololá	704	Santa Lucía Utatlán 	7	Santa Rita 	11	Noviembre	2023-06-11T00:00:00	2024-11-08T04:00:00	6	Velocidad del viento	3.2
127374	7	Sololá	704	Santa Lucía Utatlán 	7	Santa Rita 	11	Noviembre	2023-06-11T00:00:00	2024-11-08T04:00:00	7	Dirección del viento	3.22
127375	7	Sololá	704	Santa Lucía Utatlán 	7	Santa Rita 	11	Noviembre	2023-06-11T00:00:00	2024-11-08T04:00:00	1	Precipitación	0
127376	7	Sololá	704	Santa Lucía Utatlán 	7	Santa Rita 	11	Noviembre	2023-06-11T00:00:00	2024-11-08T04:00:00	8	Radiación solar	0
127377	7	Sololá	704	Santa Lucía Utatlán 	7	Santa Rita 	11	Noviembre	2023-06-11T00:00:00	2024-11-08T05:00:00	2	Temperatura media	20.4
127378	7	Sololá	704	Santa Lucía Utatlán 	7	Santa Rita 	11	Noviembre	2023-06-11T00:00:00	2024-11-08T05:00:00	4	Temperatura máxima	22.9
127379	7	Sololá	704	Santa Lucía Utatlán 	7	Santa Rita 	11	Noviembre	2023-06-11T00:00:00	2024-11-08T05:00:00	3	Temperatura mínima	20.4
127380	7	Sololá	704	Santa Lucía Utatlán 	7	Santa Rita 	11	Noviembre	2023-06-11T00:00:00	2024-11-08T05:00:00	5	Humedad	89
127381	7	Sololá	704	Santa Lucía Utatlán 	7	Santa Rita 	11	Noviembre	2023-06-11T00:00:00	2024-11-08T05:00:00	6	Velocidad del viento	1.6
127382	7	Sololá	704	Santa Lucía Utatlán 	7	Santa Rita 	11	Noviembre	2023-06-11T00:00:00	2024-11-08T05:00:00	7	Dirección del viento	1.61
127383	7	Sololá	704	Santa Lucía Utatlán 	7	Santa Rita 	11	Noviembre	2023-06-11T00:00:00	2024-11-08T05:00:00	1	Precipitación	0
127384	7	Sololá	704	Santa Lucía Utatlán 	7	Santa Rita 	11	Noviembre	2023-06-11T00:00:00	2024-11-08T05:00:00	8	Radiación solar	0
127385	7	Sololá	704	Santa Lucía Utatlán 	7	Santa Rita 	11	Noviembre	2023-06-11T00:00:00	2024-11-08T06:00:00	2	Temperatura media	18.9
127386	7	Sololá	704	Santa Lucía Utatlán 	7	Santa Rita 	11	Noviembre	2023-06-11T00:00:00	2024-11-08T06:00:00	4	Temperatura máxima	20.4
127387	7	Sololá	704	Santa Lucía Utatlán 	7	Santa Rita 	11	Noviembre	2023-06-11T00:00:00	2024-11-08T06:00:00	3	Temperatura mínima	18.9
127388	7	Sololá	704	Santa Lucía Utatlán 	7	Santa Rita 	11	Noviembre	2023-06-11T00:00:00	2024-11-08T06:00:00	5	Humedad	90
127389	7	Sololá	704	Santa Lucía Utatlán 	7	Santa Rita 	11	Noviembre	2023-06-11T00:00:00	2024-11-08T06:00:00	6	Velocidad del viento	3.2
127390	7	Sololá	704	Santa Lucía Utatlán 	7	Santa Rita 	11	Noviembre	2023-06-11T00:00:00	2024-11-08T06:00:00	7	Dirección del viento	3.22
127391	7	Sololá	704	Santa Lucía Utatlán 	7	Santa Rita 	11	Noviembre	2023-06-11T00:00:00	2024-11-08T06:00:00	1	Precipitación	0
127392	7	Sololá	704	Santa Lucía Utatlán 	7	Santa Rita 	11	Noviembre	2023-06-11T00:00:00	2024-11-08T06:00:00	8	Radiación solar	12
127393	7	Sololá	704	Santa Lucía Utatlán 	7	Santa Rita 	11	Noviembre	2023-06-11T00:00:00	2024-11-08T07:00:00	2	Temperatura media	17.7
127394	7	Sololá	704	Santa Lucía Utatlán 	7	Santa Rita 	11	Noviembre	2023-06-11T00:00:00	2024-11-08T07:00:00	4	Temperatura máxima	19
127395	7	Sololá	704	Santa Lucía Utatlán 	7	Santa Rita 	11	Noviembre	2023-06-11T00:00:00	2024-11-08T07:00:00	3	Temperatura mínima	17.7
127396	7	Sololá	704	Santa Lucía Utatlán 	7	Santa Rita 	11	Noviembre	2023-06-11T00:00:00	2024-11-08T07:00:00	5	Humedad	90
127397	7	Sololá	704	Santa Lucía Utatlán 	7	Santa Rita 	11	Noviembre	2023-06-11T00:00:00	2024-11-08T07:00:00	6	Velocidad del viento	4.8
127398	7	Sololá	704	Santa Lucía Utatlán 	7	Santa Rita 	11	Noviembre	2023-06-11T00:00:00	2024-11-08T07:00:00	7	Dirección del viento	4.83
127399	7	Sololá	704	Santa Lucía Utatlán 	7	Santa Rita 	11	Noviembre	2023-06-11T00:00:00	2024-11-08T07:00:00	1	Precipitación	0
127400	7	Sololá	704	Santa Lucía Utatlán 	7	Santa Rita 	11	Noviembre	2023-06-11T00:00:00	2024-11-08T07:00:00	8	Radiación solar	207
127401	7	Sololá	704	Santa Lucía Utatlán 	7	Santa Rita 	11	Noviembre	2023-06-11T00:00:00	2024-11-08T08:00:00	2	Temperatura media	16.5
127402	7	Sololá	704	Santa Lucía Utatlán 	7	Santa Rita 	11	Noviembre	2023-06-11T00:00:00	2024-11-08T08:00:00	4	Temperatura máxima	17.8
127403	7	Sololá	704	Santa Lucía Utatlán 	7	Santa Rita 	11	Noviembre	2023-06-11T00:00:00	2024-11-08T08:00:00	3	Temperatura mínima	16.5
127404	7	Sololá	704	Santa Lucía Utatlán 	7	Santa Rita 	11	Noviembre	2023-06-11T00:00:00	2024-11-08T08:00:00	5	Humedad	87
127405	7	Sololá	704	Santa Lucía Utatlán 	7	Santa Rita 	11	Noviembre	2023-06-11T00:00:00	2024-11-08T08:00:00	6	Velocidad del viento	4.8
127406	7	Sololá	704	Santa Lucía Utatlán 	7	Santa Rita 	11	Noviembre	2023-06-11T00:00:00	2024-11-08T08:00:00	7	Dirección del viento	4.83
127407	7	Sololá	704	Santa Lucía Utatlán 	7	Santa Rita 	11	Noviembre	2023-06-11T00:00:00	2024-11-08T08:00:00	1	Precipitación	0
127408	7	Sololá	704	Santa Lucía Utatlán 	7	Santa Rita 	11	Noviembre	2023-06-11T00:00:00	2024-11-08T08:00:00	8	Radiación solar	455
127409	7	Sololá	704	Santa Lucía Utatlán 	7	Santa Rita 	11	Noviembre	2023-06-11T00:00:00	2024-11-08T09:00:00	2	Temperatura media	16.6
127410	7	Sololá	704	Santa Lucía Utatlán 	7	Santa Rita 	11	Noviembre	2023-06-11T00:00:00	2024-11-08T09:00:00	4	Temperatura máxima	16.9
127411	7	Sololá	704	Santa Lucía Utatlán 	7	Santa Rita 	11	Noviembre	2023-06-11T00:00:00	2024-11-08T09:00:00	3	Temperatura mínima	16.4
127412	7	Sololá	704	Santa Lucía Utatlán 	7	Santa Rita 	11	Noviembre	2023-06-11T00:00:00	2024-11-08T09:00:00	5	Humedad	90
127413	7	Sololá	704	Santa Lucía Utatlán 	7	Santa Rita 	11	Noviembre	2023-06-11T00:00:00	2024-11-08T09:00:00	6	Velocidad del viento	4.8
127414	7	Sololá	704	Santa Lucía Utatlán 	7	Santa Rita 	11	Noviembre	2023-06-11T00:00:00	2024-11-08T09:00:00	7	Dirección del viento	4.83
127415	7	Sololá	704	Santa Lucía Utatlán 	7	Santa Rita 	11	Noviembre	2023-06-11T00:00:00	2024-11-08T09:00:00	1	Precipitación	0
127416	7	Sololá	704	Santa Lucía Utatlán 	7	Santa Rita 	11	Noviembre	2023-06-11T00:00:00	2024-11-08T09:00:00	8	Radiación solar	649
127417	7	Sololá	704	Santa Lucía Utatlán 	7	Santa Rita 	11	Noviembre	2023-06-11T00:00:00	2024-11-08T10:00:00	2	Temperatura media	16
127418	7	Sololá	704	Santa Lucía Utatlán 	7	Santa Rita 	11	Noviembre	2023-06-11T00:00:00	2024-11-08T10:00:00	4	Temperatura máxima	16.7
127419	7	Sololá	704	Santa Lucía Utatlán 	7	Santa Rita 	11	Noviembre	2023-06-11T00:00:00	2024-11-08T10:00:00	3	Temperatura mínima	16
127420	7	Sololá	704	Santa Lucía Utatlán 	7	Santa Rita 	11	Noviembre	2023-06-11T00:00:00	2024-11-08T10:00:00	5	Humedad	87
127421	7	Sololá	704	Santa Lucía Utatlán 	7	Santa Rita 	11	Noviembre	2023-06-11T00:00:00	2024-11-08T10:00:00	6	Velocidad del viento	4.8
127422	7	Sololá	704	Santa Lucía Utatlán 	7	Santa Rita 	11	Noviembre	2023-06-11T00:00:00	2024-11-08T10:00:00	7	Dirección del viento	4.83
127423	7	Sololá	704	Santa Lucía Utatlán 	7	Santa Rita 	11	Noviembre	2023-06-11T00:00:00	2024-11-08T10:00:00	1	Precipitación	0
127424	7	Sololá	704	Santa Lucía Utatlán 	7	Santa Rita 	11	Noviembre	2023-06-11T00:00:00	2024-11-08T10:00:00	8	Radiación solar	690
127425	7	Sololá	704	Santa Lucía Utatlán 	7	Santa Rita 	11	Noviembre	2023-06-11T00:00:00	2024-11-08T11:00:00	2	Temperatura media	15.3
127426	7	Sololá	704	Santa Lucía Utatlán 	7	Santa Rita 	11	Noviembre	2023-06-11T00:00:00	2024-11-08T11:00:00	4	Temperatura máxima	16.1
127427	7	Sololá	704	Santa Lucía Utatlán 	7	Santa Rita 	11	Noviembre	2023-06-11T00:00:00	2024-11-08T11:00:00	3	Temperatura mínima	15.3
127428	7	Sololá	704	Santa Lucía Utatlán 	7	Santa Rita 	11	Noviembre	2023-06-11T00:00:00	2024-11-08T11:00:00	5	Humedad	87
127429	7	Sololá	704	Santa Lucía Utatlán 	7	Santa Rita 	11	Noviembre	2023-06-11T00:00:00	2024-11-08T11:00:00	6	Velocidad del viento	4.8
127430	7	Sololá	704	Santa Lucía Utatlán 	7	Santa Rita 	11	Noviembre	2023-06-11T00:00:00	2024-11-08T11:00:00	7	Dirección del viento	4.83
127431	7	Sololá	704	Santa Lucía Utatlán 	7	Santa Rita 	11	Noviembre	2023-06-11T00:00:00	2024-11-08T11:00:00	1	Precipitación	0
127432	7	Sololá	704	Santa Lucía Utatlán 	7	Santa Rita 	11	Noviembre	2023-06-11T00:00:00	2024-11-08T11:00:00	8	Radiación solar	965
127433	7	Sololá	704	Santa Lucía Utatlán 	7	Santa Rita 	11	Noviembre	2023-06-11T00:00:00	2024-11-08T12:00:00	2	Temperatura media	14.9
127434	7	Sololá	704	Santa Lucía Utatlán 	7	Santa Rita 	11	Noviembre	2023-06-11T00:00:00	2024-11-08T12:00:00	4	Temperatura máxima	15.4
127435	7	Sololá	704	Santa Lucía Utatlán 	7	Santa Rita 	11	Noviembre	2023-06-11T00:00:00	2024-11-08T12:00:00	3	Temperatura mínima	14.9
127436	7	Sololá	704	Santa Lucía Utatlán 	7	Santa Rita 	11	Noviembre	2023-06-11T00:00:00	2024-11-08T12:00:00	5	Humedad	85
127437	7	Sololá	704	Santa Lucía Utatlán 	7	Santa Rita 	11	Noviembre	2023-06-11T00:00:00	2024-11-08T12:00:00	6	Velocidad del viento	4.8
127438	7	Sololá	704	Santa Lucía Utatlán 	7	Santa Rita 	11	Noviembre	2023-06-11T00:00:00	2024-11-08T12:00:00	7	Dirección del viento	4.83
127439	7	Sololá	704	Santa Lucía Utatlán 	7	Santa Rita 	11	Noviembre	2023-06-11T00:00:00	2024-11-08T12:00:00	1	Precipitación	0
127440	7	Sololá	704	Santa Lucía Utatlán 	7	Santa Rita 	11	Noviembre	2023-06-11T00:00:00	2024-11-08T12:00:00	8	Radiación solar	705
127441	7	Sololá	704	Santa Lucía Utatlán 	7	Santa Rita 	11	Noviembre	2023-06-11T00:00:00	2024-11-08T13:00:00	2	Temperatura media	14.3
127442	7	Sololá	704	Santa Lucía Utatlán 	7	Santa Rita 	11	Noviembre	2023-06-11T00:00:00	2024-11-08T13:00:00	4	Temperatura máxima	14.9
127443	7	Sololá	704	Santa Lucía Utatlán 	7	Santa Rita 	11	Noviembre	2023-06-11T00:00:00	2024-11-08T13:00:00	3	Temperatura mínima	14.2
127444	7	Sololá	704	Santa Lucía Utatlán 	7	Santa Rita 	11	Noviembre	2023-06-11T00:00:00	2024-11-08T13:00:00	5	Humedad	86
127445	7	Sololá	704	Santa Lucía Utatlán 	7	Santa Rita 	11	Noviembre	2023-06-11T00:00:00	2024-11-08T13:00:00	6	Velocidad del viento	4.8
127446	7	Sololá	704	Santa Lucía Utatlán 	7	Santa Rita 	11	Noviembre	2023-06-11T00:00:00	2024-11-08T13:00:00	7	Dirección del viento	4.83
127447	7	Sololá	704	Santa Lucía Utatlán 	7	Santa Rita 	11	Noviembre	2023-06-11T00:00:00	2024-11-08T13:00:00	1	Precipitación	0
127448	7	Sololá	704	Santa Lucía Utatlán 	7	Santa Rita 	11	Noviembre	2023-06-11T00:00:00	2024-11-08T13:00:00	8	Radiación solar	803
127449	7	Sololá	704	Santa Lucía Utatlán 	7	Santa Rita 	11	Noviembre	2023-06-11T00:00:00	2024-11-08T14:00:00	2	Temperatura media	13.9
127450	7	Sololá	704	Santa Lucía Utatlán 	7	Santa Rita 	11	Noviembre	2023-06-11T00:00:00	2024-11-08T14:00:00	4	Temperatura máxima	14.3
127451	7	Sololá	704	Santa Lucía Utatlán 	7	Santa Rita 	11	Noviembre	2023-06-11T00:00:00	2024-11-08T14:00:00	3	Temperatura mínima	13.9
127452	7	Sololá	704	Santa Lucía Utatlán 	7	Santa Rita 	11	Noviembre	2023-06-11T00:00:00	2024-11-08T14:00:00	5	Humedad	85
127453	7	Sololá	704	Santa Lucía Utatlán 	7	Santa Rita 	11	Noviembre	2023-06-11T00:00:00	2024-11-08T14:00:00	6	Velocidad del viento	6.4
127454	7	Sololá	704	Santa Lucía Utatlán 	7	Santa Rita 	11	Noviembre	2023-06-11T00:00:00	2024-11-08T14:00:00	7	Dirección del viento	6.44
127455	7	Sololá	704	Santa Lucía Utatlán 	7	Santa Rita 	11	Noviembre	2023-06-11T00:00:00	2024-11-08T14:00:00	1	Precipitación	0
127456	7	Sololá	704	Santa Lucía Utatlán 	7	Santa Rita 	11	Noviembre	2023-06-11T00:00:00	2024-11-08T14:00:00	8	Radiación solar	675
127457	7	Sololá	704	Santa Lucía Utatlán 	7	Santa Rita 	11	Noviembre	2023-06-11T00:00:00	2024-11-08T15:00:00	2	Temperatura media	13.2
127458	7	Sololá	704	Santa Lucía Utatlán 	7	Santa Rita 	11	Noviembre	2023-06-11T00:00:00	2024-11-08T15:00:00	4	Temperatura máxima	13.9
127459	7	Sololá	704	Santa Lucía Utatlán 	7	Santa Rita 	11	Noviembre	2023-06-11T00:00:00	2024-11-08T15:00:00	3	Temperatura mínima	13.2
127460	7	Sololá	704	Santa Lucía Utatlán 	7	Santa Rita 	11	Noviembre	2023-06-11T00:00:00	2024-11-08T15:00:00	5	Humedad	79
127461	7	Sololá	704	Santa Lucía Utatlán 	7	Santa Rita 	11	Noviembre	2023-06-11T00:00:00	2024-11-08T15:00:00	6	Velocidad del viento	4.8
127462	7	Sololá	704	Santa Lucía Utatlán 	7	Santa Rita 	11	Noviembre	2023-06-11T00:00:00	2024-11-08T15:00:00	7	Dirección del viento	4.83
127463	7	Sololá	704	Santa Lucía Utatlán 	7	Santa Rita 	11	Noviembre	2023-06-11T00:00:00	2024-11-08T15:00:00	1	Precipitación	0
127464	7	Sololá	704	Santa Lucía Utatlán 	7	Santa Rita 	11	Noviembre	2023-06-11T00:00:00	2024-11-08T15:00:00	8	Radiación solar	300
127465	7	Sololá	704	Santa Lucía Utatlán 	7	Santa Rita 	11	Noviembre	2023-06-11T00:00:00	2024-11-08T16:00:00	2	Temperatura media	13.1
127466	7	Sololá	704	Santa Lucía Utatlán 	7	Santa Rita 	11	Noviembre	2023-06-11T00:00:00	2024-11-08T16:00:00	4	Temperatura máxima	13.4
127467	7	Sololá	704	Santa Lucía Utatlán 	7	Santa Rita 	11	Noviembre	2023-06-11T00:00:00	2024-11-08T16:00:00	3	Temperatura mínima	12.8
127468	7	Sololá	704	Santa Lucía Utatlán 	7	Santa Rita 	11	Noviembre	2023-06-11T00:00:00	2024-11-08T16:00:00	5	Humedad	68
127469	7	Sololá	704	Santa Lucía Utatlán 	7	Santa Rita 	11	Noviembre	2023-06-11T00:00:00	2024-11-08T16:00:00	6	Velocidad del viento	6.4
127470	7	Sololá	704	Santa Lucía Utatlán 	7	Santa Rita 	11	Noviembre	2023-06-11T00:00:00	2024-11-08T16:00:00	7	Dirección del viento	6.44
127471	7	Sololá	704	Santa Lucía Utatlán 	7	Santa Rita 	11	Noviembre	2023-06-11T00:00:00	2024-11-08T16:00:00	1	Precipitación	0
127472	7	Sololá	704	Santa Lucía Utatlán 	7	Santa Rita 	11	Noviembre	2023-06-11T00:00:00	2024-11-08T16:00:00	8	Radiación solar	129
127473	7	Sololá	704	Santa Lucía Utatlán 	7	Santa Rita 	11	Noviembre	2023-06-11T00:00:00	2024-11-08T17:00:00	2	Temperatura media	12.6
127474	7	Sololá	704	Santa Lucía Utatlán 	7	Santa Rita 	11	Noviembre	2023-06-11T00:00:00	2024-11-08T17:00:00	4	Temperatura máxima	13.1
127475	7	Sololá	704	Santa Lucía Utatlán 	7	Santa Rita 	11	Noviembre	2023-06-11T00:00:00	2024-11-08T17:00:00	3	Temperatura mínima	12.5
127476	7	Sololá	704	Santa Lucía Utatlán 	7	Santa Rita 	11	Noviembre	2023-06-11T00:00:00	2024-11-08T17:00:00	5	Humedad	63
127477	7	Sololá	704	Santa Lucía Utatlán 	7	Santa Rita 	11	Noviembre	2023-06-11T00:00:00	2024-11-08T17:00:00	6	Velocidad del viento	8
127478	7	Sololá	704	Santa Lucía Utatlán 	7	Santa Rita 	11	Noviembre	2023-06-11T00:00:00	2024-11-08T17:00:00	7	Dirección del viento	8.05
127479	7	Sololá	704	Santa Lucía Utatlán 	7	Santa Rita 	11	Noviembre	2023-06-11T00:00:00	2024-11-08T17:00:00	1	Precipitación	0
127480	7	Sololá	704	Santa Lucía Utatlán 	7	Santa Rita 	11	Noviembre	2023-06-11T00:00:00	2024-11-08T17:00:00	8	Radiación solar	15
127481	7	Sololá	704	Santa Lucía Utatlán 	7	Santa Rita 	11	Noviembre	2023-06-11T00:00:00	2024-11-08T18:00:00	2	Temperatura media	15.8
127482	7	Sololá	704	Santa Lucía Utatlán 	7	Santa Rita 	11	Noviembre	2023-06-11T00:00:00	2024-11-08T18:00:00	4	Temperatura máxima	15.8
127483	7	Sololá	704	Santa Lucía Utatlán 	7	Santa Rita 	11	Noviembre	2023-06-11T00:00:00	2024-11-08T18:00:00	3	Temperatura mínima	12.6
127484	7	Sololá	704	Santa Lucía Utatlán 	7	Santa Rita 	11	Noviembre	2023-06-11T00:00:00	2024-11-08T18:00:00	5	Humedad	51
127485	7	Sololá	704	Santa Lucía Utatlán 	7	Santa Rita 	11	Noviembre	2023-06-11T00:00:00	2024-11-08T18:00:00	6	Velocidad del viento	6.4
127486	7	Sololá	704	Santa Lucía Utatlán 	7	Santa Rita 	11	Noviembre	2023-06-11T00:00:00	2024-11-08T18:00:00	7	Dirección del viento	6.44
127487	7	Sololá	704	Santa Lucía Utatlán 	7	Santa Rita 	11	Noviembre	2023-06-11T00:00:00	2024-11-08T18:00:00	1	Precipitación	0
127488	7	Sololá	704	Santa Lucía Utatlán 	7	Santa Rita 	11	Noviembre	2023-06-11T00:00:00	2024-11-08T18:00:00	8	Radiación solar	0
127489	7	Sololá	704	Santa Lucía Utatlán 	7	Santa Rita 	11	Noviembre	2023-06-11T00:00:00	2024-11-08T19:00:00	2	Temperatura media	19
127490	7	Sololá	704	Santa Lucía Utatlán 	7	Santa Rita 	11	Noviembre	2023-06-11T00:00:00	2024-11-08T19:00:00	4	Temperatura máxima	19
127491	7	Sololá	704	Santa Lucía Utatlán 	7	Santa Rita 	11	Noviembre	2023-06-11T00:00:00	2024-11-08T19:00:00	3	Temperatura mínima	15.8
127492	7	Sololá	704	Santa Lucía Utatlán 	7	Santa Rita 	11	Noviembre	2023-06-11T00:00:00	2024-11-08T19:00:00	5	Humedad	53
127493	7	Sololá	704	Santa Lucía Utatlán 	7	Santa Rita 	11	Noviembre	2023-06-11T00:00:00	2024-11-08T19:00:00	6	Velocidad del viento	3.2
127494	7	Sololá	704	Santa Lucía Utatlán 	7	Santa Rita 	11	Noviembre	2023-06-11T00:00:00	2024-11-08T19:00:00	7	Dirección del viento	3.22
127495	7	Sololá	704	Santa Lucía Utatlán 	7	Santa Rita 	11	Noviembre	2023-06-11T00:00:00	2024-11-08T19:00:00	1	Precipitación	0
127496	7	Sololá	704	Santa Lucía Utatlán 	7	Santa Rita 	11	Noviembre	2023-06-11T00:00:00	2024-11-08T19:00:00	8	Radiación solar	0
127497	7	Sololá	704	Santa Lucía Utatlán 	7	Santa Rita 	11	Noviembre	2023-06-11T00:00:00	2024-11-08T20:00:00	2	Temperatura media	23.6
127498	7	Sololá	704	Santa Lucía Utatlán 	7	Santa Rita 	11	Noviembre	2023-06-11T00:00:00	2024-11-08T20:00:00	4	Temperatura máxima	23.6
127499	7	Sololá	704	Santa Lucía Utatlán 	7	Santa Rita 	11	Noviembre	2023-06-11T00:00:00	2024-11-08T20:00:00	3	Temperatura mínima	19
127500	7	Sololá	704	Santa Lucía Utatlán 	7	Santa Rita 	11	Noviembre	2023-06-11T00:00:00	2024-11-08T20:00:00	5	Humedad	37
127501	7	Sololá	704	Santa Lucía Utatlán 	7	Santa Rita 	11	Noviembre	2023-06-11T00:00:00	2024-11-08T20:00:00	6	Velocidad del viento	1.6
127502	7	Sololá	704	Santa Lucía Utatlán 	7	Santa Rita 	11	Noviembre	2023-06-11T00:00:00	2024-11-08T20:00:00	7	Dirección del viento	1.61
127503	7	Sololá	704	Santa Lucía Utatlán 	7	Santa Rita 	11	Noviembre	2023-06-11T00:00:00	2024-11-08T20:00:00	1	Precipitación	0
127504	7	Sololá	704	Santa Lucía Utatlán 	7	Santa Rita 	11	Noviembre	2023-06-11T00:00:00	2024-11-08T20:00:00	8	Radiación solar	0
127505	7	Sololá	704	Santa Lucía Utatlán 	7	Santa Rita 	11	Noviembre	2023-06-11T00:00:00	2024-11-08T21:00:00	2	Temperatura media	25.3
127506	7	Sololá	704	Santa Lucía Utatlán 	7	Santa Rita 	11	Noviembre	2023-06-11T00:00:00	2024-11-08T21:00:00	4	Temperatura máxima	25.6
127507	7	Sololá	704	Santa Lucía Utatlán 	7	Santa Rita 	11	Noviembre	2023-06-11T00:00:00	2024-11-08T21:00:00	3	Temperatura mínima	23.7
127508	7	Sololá	704	Santa Lucía Utatlán 	7	Santa Rita 	11	Noviembre	2023-06-11T00:00:00	2024-11-08T21:00:00	5	Humedad	35
127509	7	Sololá	704	Santa Lucía Utatlán 	7	Santa Rita 	11	Noviembre	2023-06-11T00:00:00	2024-11-08T21:00:00	6	Velocidad del viento	4.8
127510	7	Sololá	704	Santa Lucía Utatlán 	7	Santa Rita 	11	Noviembre	2023-06-11T00:00:00	2024-11-08T21:00:00	7	Dirección del viento	4.83
127511	7	Sololá	704	Santa Lucía Utatlán 	7	Santa Rita 	11	Noviembre	2023-06-11T00:00:00	2024-11-08T21:00:00	1	Precipitación	0
127512	7	Sololá	704	Santa Lucía Utatlán 	7	Santa Rita 	11	Noviembre	2023-06-11T00:00:00	2024-11-08T21:00:00	8	Radiación solar	0
127513	7	Sololá	704	Santa Lucía Utatlán 	7	Santa Rita 	11	Noviembre	2023-06-11T00:00:00	2024-11-08T22:00:00	2	Temperatura media	25.6
127514	7	Sololá	704	Santa Lucía Utatlán 	7	Santa Rita 	11	Noviembre	2023-06-11T00:00:00	2024-11-08T22:00:00	4	Temperatura máxima	25.7
127515	7	Sololá	704	Santa Lucía Utatlán 	7	Santa Rita 	11	Noviembre	2023-06-11T00:00:00	2024-11-08T22:00:00	3	Temperatura mínima	25.2
127516	7	Sololá	704	Santa Lucía Utatlán 	7	Santa Rita 	11	Noviembre	2023-06-11T00:00:00	2024-11-08T22:00:00	5	Humedad	48
127517	7	Sololá	704	Santa Lucía Utatlán 	7	Santa Rita 	11	Noviembre	2023-06-11T00:00:00	2024-11-08T22:00:00	6	Velocidad del viento	6.4
127518	7	Sololá	704	Santa Lucía Utatlán 	7	Santa Rita 	11	Noviembre	2023-06-11T00:00:00	2024-11-08T22:00:00	7	Dirección del viento	6.44
127519	7	Sololá	704	Santa Lucía Utatlán 	7	Santa Rita 	11	Noviembre	2023-06-11T00:00:00	2024-11-08T22:00:00	1	Precipitación	0
127520	7	Sololá	704	Santa Lucía Utatlán 	7	Santa Rita 	11	Noviembre	2023-06-11T00:00:00	2024-11-08T22:00:00	8	Radiación solar	0
127521	7	Sololá	704	Santa Lucía Utatlán 	7	Santa Rita 	11	Noviembre	2023-06-11T00:00:00	2024-11-08T23:00:00	2	Temperatura media	25.6
127522	7	Sololá	704	Santa Lucía Utatlán 	7	Santa Rita 	11	Noviembre	2023-06-11T00:00:00	2024-11-08T23:00:00	4	Temperatura máxima	26.1
127523	7	Sololá	704	Santa Lucía Utatlán 	7	Santa Rita 	11	Noviembre	2023-06-11T00:00:00	2024-11-08T23:00:00	3	Temperatura mínima	25.2
127524	7	Sololá	704	Santa Lucía Utatlán 	7	Santa Rita 	11	Noviembre	2023-06-11T00:00:00	2024-11-08T23:00:00	5	Humedad	52
127525	7	Sololá	704	Santa Lucía Utatlán 	7	Santa Rita 	11	Noviembre	2023-06-11T00:00:00	2024-11-08T23:00:00	6	Velocidad del viento	8
127526	7	Sololá	704	Santa Lucía Utatlán 	7	Santa Rita 	11	Noviembre	2023-06-11T00:00:00	2024-11-08T23:00:00	7	Dirección del viento	8.05
127527	7	Sololá	704	Santa Lucía Utatlán 	7	Santa Rita 	11	Noviembre	2023-06-11T00:00:00	2024-11-08T23:00:00	1	Precipitación	0
127528	7	Sololá	704	Santa Lucía Utatlán 	7	Santa Rita 	11	Noviembre	2023-06-11T00:00:00	2024-11-08T23:00:00	8	Radiación solar	0
127529	7	Sololá	704	Santa Lucía Utatlán 	7	Santa Rita 	11	Noviembre	2023-07-11T00:00:00	2024-11-08T00:00:00	2	Temperatura media	25.2
127530	7	Sololá	704	Santa Lucía Utatlán 	7	Santa Rita 	11	Noviembre	2023-07-11T00:00:00	2024-11-08T00:00:00	4	Temperatura máxima	25.8
127531	7	Sololá	704	Santa Lucía Utatlán 	7	Santa Rita 	11	Noviembre	2023-07-11T00:00:00	2024-11-08T00:00:00	3	Temperatura mínima	25.2
127532	7	Sololá	704	Santa Lucía Utatlán 	7	Santa Rita 	11	Noviembre	2023-07-11T00:00:00	2024-11-08T00:00:00	5	Humedad	53
127533	7	Sololá	704	Santa Lucía Utatlán 	7	Santa Rita 	11	Noviembre	2023-07-11T00:00:00	2024-11-08T00:00:00	6	Velocidad del viento	9.7
127534	7	Sololá	704	Santa Lucía Utatlán 	7	Santa Rita 	11	Noviembre	2023-07-11T00:00:00	2024-11-08T00:00:00	7	Dirección del viento	9.66
127535	7	Sololá	704	Santa Lucía Utatlán 	7	Santa Rita 	11	Noviembre	2023-07-11T00:00:00	2024-11-08T00:00:00	1	Precipitación	0
127536	7	Sololá	704	Santa Lucía Utatlán 	7	Santa Rita 	11	Noviembre	2023-07-11T00:00:00	2024-11-08T00:00:00	8	Radiación solar	0
127537	7	Sololá	704	Santa Lucía Utatlán 	7	Santa Rita 	11	Noviembre	2023-07-11T00:00:00	2024-11-08T01:00:00	2	Temperatura media	25.9
127538	7	Sololá	704	Santa Lucía Utatlán 	7	Santa Rita 	11	Noviembre	2023-07-11T00:00:00	2024-11-08T01:00:00	4	Temperatura máxima	26.1
127539	7	Sololá	704	Santa Lucía Utatlán 	7	Santa Rita 	11	Noviembre	2023-07-11T00:00:00	2024-11-08T01:00:00	3	Temperatura mínima	25.1
127540	7	Sololá	704	Santa Lucía Utatlán 	7	Santa Rita 	11	Noviembre	2023-07-11T00:00:00	2024-11-08T01:00:00	5	Humedad	56
127541	7	Sololá	704	Santa Lucía Utatlán 	7	Santa Rita 	11	Noviembre	2023-07-11T00:00:00	2024-11-08T01:00:00	6	Velocidad del viento	8
127542	7	Sololá	704	Santa Lucía Utatlán 	7	Santa Rita 	11	Noviembre	2023-07-11T00:00:00	2024-11-08T01:00:00	7	Dirección del viento	8.05
127543	7	Sololá	704	Santa Lucía Utatlán 	7	Santa Rita 	11	Noviembre	2023-07-11T00:00:00	2024-11-08T01:00:00	1	Precipitación	0
127544	7	Sololá	704	Santa Lucía Utatlán 	7	Santa Rita 	11	Noviembre	2023-07-11T00:00:00	2024-11-08T01:00:00	8	Radiación solar	0
127545	7	Sololá	704	Santa Lucía Utatlán 	7	Santa Rita 	11	Noviembre	2023-07-11T00:00:00	2024-11-08T02:00:00	2	Temperatura media	25.8
127546	7	Sololá	704	Santa Lucía Utatlán 	7	Santa Rita 	11	Noviembre	2023-07-11T00:00:00	2024-11-08T02:00:00	4	Temperatura máxima	26
127547	7	Sololá	704	Santa Lucía Utatlán 	7	Santa Rita 	11	Noviembre	2023-07-11T00:00:00	2024-11-08T02:00:00	3	Temperatura mínima	25.6
127548	7	Sololá	704	Santa Lucía Utatlán 	7	Santa Rita 	11	Noviembre	2023-07-11T00:00:00	2024-11-08T02:00:00	5	Humedad	62
127549	7	Sololá	704	Santa Lucía Utatlán 	7	Santa Rita 	11	Noviembre	2023-07-11T00:00:00	2024-11-08T02:00:00	6	Velocidad del viento	8
127550	7	Sololá	704	Santa Lucía Utatlán 	7	Santa Rita 	11	Noviembre	2023-07-11T00:00:00	2024-11-08T02:00:00	7	Dirección del viento	8.05
127551	7	Sololá	704	Santa Lucía Utatlán 	7	Santa Rita 	11	Noviembre	2023-07-11T00:00:00	2024-11-08T02:00:00	1	Precipitación	0
127552	7	Sololá	704	Santa Lucía Utatlán 	7	Santa Rita 	11	Noviembre	2023-07-11T00:00:00	2024-11-08T02:00:00	8	Radiación solar	0
127553	7	Sololá	704	Santa Lucía Utatlán 	7	Santa Rita 	11	Noviembre	2023-07-11T00:00:00	2024-11-08T03:00:00	2	Temperatura media	24.6
127554	7	Sololá	704	Santa Lucía Utatlán 	7	Santa Rita 	11	Noviembre	2023-07-11T00:00:00	2024-11-08T03:00:00	4	Temperatura máxima	25.8
127555	7	Sololá	704	Santa Lucía Utatlán 	7	Santa Rita 	11	Noviembre	2023-07-11T00:00:00	2024-11-08T03:00:00	3	Temperatura mínima	24.6
127556	7	Sololá	704	Santa Lucía Utatlán 	7	Santa Rita 	11	Noviembre	2023-07-11T00:00:00	2024-11-08T03:00:00	5	Humedad	72
127557	7	Sololá	704	Santa Lucía Utatlán 	7	Santa Rita 	11	Noviembre	2023-07-11T00:00:00	2024-11-08T03:00:00	6	Velocidad del viento	9.7
127558	7	Sololá	704	Santa Lucía Utatlán 	7	Santa Rita 	11	Noviembre	2023-07-11T00:00:00	2024-11-08T03:00:00	7	Dirección del viento	9.66
127559	7	Sololá	704	Santa Lucía Utatlán 	7	Santa Rita 	11	Noviembre	2023-07-11T00:00:00	2024-11-08T03:00:00	1	Precipitación	0
127560	7	Sololá	704	Santa Lucía Utatlán 	7	Santa Rita 	11	Noviembre	2023-07-11T00:00:00	2024-11-08T03:00:00	8	Radiación solar	0
127561	7	Sololá	704	Santa Lucía Utatlán 	7	Santa Rita 	11	Noviembre	2023-07-11T00:00:00	2024-11-08T04:00:00	2	Temperatura media	23.4
127562	7	Sololá	704	Santa Lucía Utatlán 	7	Santa Rita 	11	Noviembre	2023-07-11T00:00:00	2024-11-08T04:00:00	4	Temperatura máxima	24.7
127563	7	Sololá	704	Santa Lucía Utatlán 	7	Santa Rita 	11	Noviembre	2023-07-11T00:00:00	2024-11-08T04:00:00	3	Temperatura mínima	23.4
127564	7	Sololá	704	Santa Lucía Utatlán 	7	Santa Rita 	11	Noviembre	2023-07-11T00:00:00	2024-11-08T04:00:00	5	Humedad	79
127565	7	Sololá	704	Santa Lucía Utatlán 	7	Santa Rita 	11	Noviembre	2023-07-11T00:00:00	2024-11-08T04:00:00	6	Velocidad del viento	6.4
127566	7	Sololá	704	Santa Lucía Utatlán 	7	Santa Rita 	11	Noviembre	2023-07-11T00:00:00	2024-11-08T04:00:00	7	Dirección del viento	6.44
127567	7	Sololá	704	Santa Lucía Utatlán 	7	Santa Rita 	11	Noviembre	2023-07-11T00:00:00	2024-11-08T04:00:00	1	Precipitación	0
127568	7	Sololá	704	Santa Lucía Utatlán 	7	Santa Rita 	11	Noviembre	2023-07-11T00:00:00	2024-11-08T04:00:00	8	Radiación solar	0
127569	7	Sololá	704	Santa Lucía Utatlán 	7	Santa Rita 	11	Noviembre	2023-07-11T00:00:00	2024-11-08T05:00:00	2	Temperatura media	21.8
127570	7	Sololá	704	Santa Lucía Utatlán 	7	Santa Rita 	11	Noviembre	2023-07-11T00:00:00	2024-11-08T05:00:00	4	Temperatura máxima	23.4
127571	7	Sololá	704	Santa Lucía Utatlán 	7	Santa Rita 	11	Noviembre	2023-07-11T00:00:00	2024-11-08T05:00:00	3	Temperatura mínima	21.8
127572	7	Sololá	704	Santa Lucía Utatlán 	7	Santa Rita 	11	Noviembre	2023-07-11T00:00:00	2024-11-08T05:00:00	5	Humedad	73
127573	7	Sololá	704	Santa Lucía Utatlán 	7	Santa Rita 	11	Noviembre	2023-07-11T00:00:00	2024-11-08T05:00:00	6	Velocidad del viento	4.8
127574	7	Sololá	704	Santa Lucía Utatlán 	7	Santa Rita 	11	Noviembre	2023-07-11T00:00:00	2024-11-08T05:00:00	7	Dirección del viento	4.83
127575	7	Sololá	704	Santa Lucía Utatlán 	7	Santa Rita 	11	Noviembre	2023-07-11T00:00:00	2024-11-08T05:00:00	1	Precipitación	0
127576	7	Sololá	704	Santa Lucía Utatlán 	7	Santa Rita 	11	Noviembre	2023-07-11T00:00:00	2024-11-08T05:00:00	8	Radiación solar	0
127577	7	Sololá	704	Santa Lucía Utatlán 	7	Santa Rita 	11	Noviembre	2023-07-11T00:00:00	2024-11-08T06:00:00	2	Temperatura media	20.4
127578	7	Sololá	704	Santa Lucía Utatlán 	7	Santa Rita 	11	Noviembre	2023-07-11T00:00:00	2024-11-08T06:00:00	4	Temperatura máxima	21.8
127579	7	Sololá	704	Santa Lucía Utatlán 	7	Santa Rita 	11	Noviembre	2023-07-11T00:00:00	2024-11-08T06:00:00	3	Temperatura mínima	19.4
127580	7	Sololá	704	Santa Lucía Utatlán 	7	Santa Rita 	11	Noviembre	2023-07-11T00:00:00	2024-11-08T06:00:00	5	Humedad	80
127581	7	Sololá	704	Santa Lucía Utatlán 	7	Santa Rita 	11	Noviembre	2023-07-11T00:00:00	2024-11-08T06:00:00	6	Velocidad del viento	4.8
127582	7	Sololá	704	Santa Lucía Utatlán 	7	Santa Rita 	11	Noviembre	2023-07-11T00:00:00	2024-11-08T06:00:00	7	Dirección del viento	4.83
127583	7	Sololá	704	Santa Lucía Utatlán 	7	Santa Rita 	11	Noviembre	2023-07-11T00:00:00	2024-11-08T06:00:00	1	Precipitación	0
127584	7	Sololá	704	Santa Lucía Utatlán 	7	Santa Rita 	11	Noviembre	2023-07-11T00:00:00	2024-11-08T06:00:00	8	Radiación solar	20
127585	7	Sololá	704	Santa Lucía Utatlán 	7	Santa Rita 	11	Noviembre	2023-07-11T00:00:00	2024-11-08T07:00:00	2	Temperatura media	20.1
127586	7	Sololá	704	Santa Lucía Utatlán 	7	Santa Rita 	11	Noviembre	2023-07-11T00:00:00	2024-11-08T07:00:00	4	Temperatura máxima	21.3
127587	7	Sololá	704	Santa Lucía Utatlán 	7	Santa Rita 	11	Noviembre	2023-07-11T00:00:00	2024-11-08T07:00:00	3	Temperatura mínima	20.1
127588	7	Sololá	704	Santa Lucía Utatlán 	7	Santa Rita 	11	Noviembre	2023-07-11T00:00:00	2024-11-08T07:00:00	5	Humedad	81
127589	7	Sololá	704	Santa Lucía Utatlán 	7	Santa Rita 	11	Noviembre	2023-07-11T00:00:00	2024-11-08T07:00:00	6	Velocidad del viento	3.2
127590	7	Sololá	704	Santa Lucía Utatlán 	7	Santa Rita 	11	Noviembre	2023-07-11T00:00:00	2024-11-08T07:00:00	7	Dirección del viento	3.22
127591	7	Sololá	704	Santa Lucía Utatlán 	7	Santa Rita 	11	Noviembre	2023-07-11T00:00:00	2024-11-08T07:00:00	1	Precipitación	0
127592	7	Sololá	704	Santa Lucía Utatlán 	7	Santa Rita 	11	Noviembre	2023-07-11T00:00:00	2024-11-08T07:00:00	8	Radiación solar	230
127593	7	Sololá	704	Santa Lucía Utatlán 	7	Santa Rita 	11	Noviembre	2023-07-11T00:00:00	2024-11-08T08:00:00	2	Temperatura media	22.3
127594	7	Sololá	704	Santa Lucía Utatlán 	7	Santa Rita 	11	Noviembre	2023-07-11T00:00:00	2024-11-08T08:00:00	4	Temperatura máxima	22.3
127595	7	Sololá	704	Santa Lucía Utatlán 	7	Santa Rita 	11	Noviembre	2023-07-11T00:00:00	2024-11-08T08:00:00	3	Temperatura mínima	18.9
127596	7	Sololá	704	Santa Lucía Utatlán 	7	Santa Rita 	11	Noviembre	2023-07-11T00:00:00	2024-11-08T08:00:00	5	Humedad	71
127597	7	Sololá	704	Santa Lucía Utatlán 	7	Santa Rita 	11	Noviembre	2023-07-11T00:00:00	2024-11-08T08:00:00	6	Velocidad del viento	4.8
127598	7	Sololá	704	Santa Lucía Utatlán 	7	Santa Rita 	11	Noviembre	2023-07-11T00:00:00	2024-11-08T08:00:00	7	Dirección del viento	4.83
127599	7	Sololá	704	Santa Lucía Utatlán 	7	Santa Rita 	11	Noviembre	2023-07-11T00:00:00	2024-11-08T08:00:00	1	Precipitación	0
127600	7	Sololá	704	Santa Lucía Utatlán 	7	Santa Rita 	11	Noviembre	2023-07-11T00:00:00	2024-11-08T08:00:00	8	Radiación solar	469
127601	7	Sololá	704	Santa Lucía Utatlán 	7	Santa Rita 	11	Noviembre	2023-07-11T00:00:00	2024-11-08T09:00:00	2	Temperatura media	22.4
127602	7	Sololá	704	Santa Lucía Utatlán 	7	Santa Rita 	11	Noviembre	2023-07-11T00:00:00	2024-11-08T09:00:00	4	Temperatura máxima	22.5
127603	7	Sololá	704	Santa Lucía Utatlán 	7	Santa Rita 	11	Noviembre	2023-07-11T00:00:00	2024-11-08T09:00:00	3	Temperatura mínima	20.5
127604	7	Sololá	704	Santa Lucía Utatlán 	7	Santa Rita 	11	Noviembre	2023-07-11T00:00:00	2024-11-08T09:00:00	5	Humedad	72
127605	7	Sololá	704	Santa Lucía Utatlán 	7	Santa Rita 	11	Noviembre	2023-07-11T00:00:00	2024-11-08T09:00:00	6	Velocidad del viento	6.4
127606	7	Sololá	704	Santa Lucía Utatlán 	7	Santa Rita 	11	Noviembre	2023-07-11T00:00:00	2024-11-08T09:00:00	7	Dirección del viento	6.44
127607	7	Sololá	704	Santa Lucía Utatlán 	7	Santa Rita 	11	Noviembre	2023-07-11T00:00:00	2024-11-08T09:00:00	1	Precipitación	0
127608	7	Sololá	704	Santa Lucía Utatlán 	7	Santa Rita 	11	Noviembre	2023-07-11T00:00:00	2024-11-08T09:00:00	8	Radiación solar	662
127609	7	Sololá	704	Santa Lucía Utatlán 	7	Santa Rita 	11	Noviembre	2023-07-11T00:00:00	2024-11-08T10:00:00	2	Temperatura media	21.2
127610	7	Sololá	704	Santa Lucía Utatlán 	7	Santa Rita 	11	Noviembre	2023-07-11T00:00:00	2024-11-08T10:00:00	4	Temperatura máxima	22.6
127611	7	Sololá	704	Santa Lucía Utatlán 	7	Santa Rita 	11	Noviembre	2023-07-11T00:00:00	2024-11-08T10:00:00	3	Temperatura mínima	21.2
127612	7	Sololá	704	Santa Lucía Utatlán 	7	Santa Rita 	11	Noviembre	2023-07-11T00:00:00	2024-11-08T10:00:00	5	Humedad	78
127613	7	Sololá	704	Santa Lucía Utatlán 	7	Santa Rita 	11	Noviembre	2023-07-11T00:00:00	2024-11-08T10:00:00	6	Velocidad del viento	6.4
127614	7	Sololá	704	Santa Lucía Utatlán 	7	Santa Rita 	11	Noviembre	2023-07-11T00:00:00	2024-11-08T10:00:00	7	Dirección del viento	6.44
127615	7	Sololá	704	Santa Lucía Utatlán 	7	Santa Rita 	11	Noviembre	2023-07-11T00:00:00	2024-11-08T10:00:00	1	Precipitación	0
127616	7	Sololá	704	Santa Lucía Utatlán 	7	Santa Rita 	11	Noviembre	2023-07-11T00:00:00	2024-11-08T10:00:00	8	Radiación solar	794
127617	7	Sololá	704	Santa Lucía Utatlán 	7	Santa Rita 	11	Noviembre	2023-07-11T00:00:00	2024-11-08T11:00:00	2	Temperatura media	18.9
127618	7	Sololá	704	Santa Lucía Utatlán 	7	Santa Rita 	11	Noviembre	2023-07-11T00:00:00	2024-11-08T11:00:00	4	Temperatura máxima	21.2
127619	7	Sololá	704	Santa Lucía Utatlán 	7	Santa Rita 	11	Noviembre	2023-07-11T00:00:00	2024-11-08T11:00:00	3	Temperatura mínima	18.9
127620	7	Sololá	704	Santa Lucía Utatlán 	7	Santa Rita 	11	Noviembre	2023-07-11T00:00:00	2024-11-08T11:00:00	5	Humedad	87
127621	7	Sololá	704	Santa Lucía Utatlán 	7	Santa Rita 	11	Noviembre	2023-07-11T00:00:00	2024-11-08T11:00:00	6	Velocidad del viento	3.2
127622	7	Sololá	704	Santa Lucía Utatlán 	7	Santa Rita 	11	Noviembre	2023-07-11T00:00:00	2024-11-08T11:00:00	7	Dirección del viento	3.22
127623	7	Sololá	704	Santa Lucía Utatlán 	7	Santa Rita 	11	Noviembre	2023-07-11T00:00:00	2024-11-08T11:00:00	1	Precipitación	0
127624	7	Sololá	704	Santa Lucía Utatlán 	7	Santa Rita 	11	Noviembre	2023-07-11T00:00:00	2024-11-08T11:00:00	8	Radiación solar	859
127625	7	Sololá	704	Santa Lucía Utatlán 	7	Santa Rita 	11	Noviembre	2023-07-11T00:00:00	2024-11-08T12:00:00	2	Temperatura media	18.8
127626	7	Sololá	704	Santa Lucía Utatlán 	7	Santa Rita 	11	Noviembre	2023-07-11T00:00:00	2024-11-08T12:00:00	4	Temperatura máxima	19.1
127627	7	Sololá	704	Santa Lucía Utatlán 	7	Santa Rita 	11	Noviembre	2023-07-11T00:00:00	2024-11-08T12:00:00	3	Temperatura mínima	18.6
127628	7	Sololá	704	Santa Lucía Utatlán 	7	Santa Rita 	11	Noviembre	2023-07-11T00:00:00	2024-11-08T12:00:00	5	Humedad	88
127629	7	Sololá	704	Santa Lucía Utatlán 	7	Santa Rita 	11	Noviembre	2023-07-11T00:00:00	2024-11-08T12:00:00	6	Velocidad del viento	3.2
127630	7	Sololá	704	Santa Lucía Utatlán 	7	Santa Rita 	11	Noviembre	2023-07-11T00:00:00	2024-11-08T12:00:00	7	Dirección del viento	3.22
127631	7	Sololá	704	Santa Lucía Utatlán 	7	Santa Rita 	11	Noviembre	2023-07-11T00:00:00	2024-11-08T12:00:00	1	Precipitación	0
127632	7	Sololá	704	Santa Lucía Utatlán 	7	Santa Rita 	11	Noviembre	2023-07-11T00:00:00	2024-11-08T12:00:00	8	Radiación solar	850
127633	7	Sololá	704	Santa Lucía Utatlán 	7	Santa Rita 	11	Noviembre	2023-07-11T00:00:00	2024-11-08T13:00:00	2	Temperatura media	18.3
127634	7	Sololá	704	Santa Lucía Utatlán 	7	Santa Rita 	11	Noviembre	2023-07-11T00:00:00	2024-11-08T13:00:00	4	Temperatura máxima	18.8
127635	7	Sololá	704	Santa Lucía Utatlán 	7	Santa Rita 	11	Noviembre	2023-07-11T00:00:00	2024-11-08T13:00:00	3	Temperatura mínima	18.1
127636	7	Sololá	704	Santa Lucía Utatlán 	7	Santa Rita 	11	Noviembre	2023-07-11T00:00:00	2024-11-08T13:00:00	5	Humedad	88
127637	7	Sololá	704	Santa Lucía Utatlán 	7	Santa Rita 	11	Noviembre	2023-07-11T00:00:00	2024-11-08T13:00:00	6	Velocidad del viento	3.2
127638	7	Sololá	704	Santa Lucía Utatlán 	7	Santa Rita 	11	Noviembre	2023-07-11T00:00:00	2024-11-08T13:00:00	7	Dirección del viento	3.22
127639	7	Sololá	704	Santa Lucía Utatlán 	7	Santa Rita 	11	Noviembre	2023-07-11T00:00:00	2024-11-08T13:00:00	1	Precipitación	0
127640	7	Sololá	704	Santa Lucía Utatlán 	7	Santa Rita 	11	Noviembre	2023-07-11T00:00:00	2024-11-08T13:00:00	8	Radiación solar	774
127641	7	Sololá	704	Santa Lucía Utatlán 	7	Santa Rita 	11	Noviembre	2023-07-11T00:00:00	2024-11-08T14:00:00	2	Temperatura media	17.8
127642	7	Sololá	704	Santa Lucía Utatlán 	7	Santa Rita 	11	Noviembre	2023-07-11T00:00:00	2024-11-08T14:00:00	4	Temperatura máxima	18.8
127643	7	Sololá	704	Santa Lucía Utatlán 	7	Santa Rita 	11	Noviembre	2023-07-11T00:00:00	2024-11-08T14:00:00	3	Temperatura mínima	17.7
127644	7	Sololá	704	Santa Lucía Utatlán 	7	Santa Rita 	11	Noviembre	2023-07-11T00:00:00	2024-11-08T14:00:00	5	Humedad	88
127645	7	Sololá	704	Santa Lucía Utatlán 	7	Santa Rita 	11	Noviembre	2023-07-11T00:00:00	2024-11-08T14:00:00	6	Velocidad del viento	3.2
127646	7	Sololá	704	Santa Lucía Utatlán 	7	Santa Rita 	11	Noviembre	2023-07-11T00:00:00	2024-11-08T14:00:00	7	Dirección del viento	3.22
127647	7	Sololá	704	Santa Lucía Utatlán 	7	Santa Rita 	11	Noviembre	2023-07-11T00:00:00	2024-11-08T14:00:00	1	Precipitación	0
127648	7	Sololá	704	Santa Lucía Utatlán 	7	Santa Rita 	11	Noviembre	2023-07-11T00:00:00	2024-11-08T14:00:00	8	Radiación solar	631
127649	7	Sololá	704	Santa Lucía Utatlán 	7	Santa Rita 	11	Noviembre	2023-07-11T00:00:00	2024-11-08T15:00:00	2	Temperatura media	18.4
127650	7	Sololá	704	Santa Lucía Utatlán 	7	Santa Rita 	11	Noviembre	2023-07-11T00:00:00	2024-11-08T15:00:00	4	Temperatura máxima	18.9
127651	7	Sololá	704	Santa Lucía Utatlán 	7	Santa Rita 	11	Noviembre	2023-07-11T00:00:00	2024-11-08T15:00:00	3	Temperatura mínima	17.8
127652	7	Sololá	704	Santa Lucía Utatlán 	7	Santa Rita 	11	Noviembre	2023-07-11T00:00:00	2024-11-08T15:00:00	5	Humedad	84
127653	7	Sololá	704	Santa Lucía Utatlán 	7	Santa Rita 	11	Noviembre	2023-07-11T00:00:00	2024-11-08T15:00:00	6	Velocidad del viento	3.2
127654	7	Sololá	704	Santa Lucía Utatlán 	7	Santa Rita 	11	Noviembre	2023-07-11T00:00:00	2024-11-08T15:00:00	7	Dirección del viento	3.22
127655	7	Sololá	704	Santa Lucía Utatlán 	7	Santa Rita 	11	Noviembre	2023-07-11T00:00:00	2024-11-08T15:00:00	1	Precipitación	0
127656	7	Sololá	704	Santa Lucía Utatlán 	7	Santa Rita 	11	Noviembre	2023-07-11T00:00:00	2024-11-08T15:00:00	8	Radiación solar	482
127657	7	Sololá	704	Santa Lucía Utatlán 	7	Santa Rita 	11	Noviembre	2023-07-11T00:00:00	2024-11-08T16:00:00	2	Temperatura media	17.7
127658	7	Sololá	704	Santa Lucía Utatlán 	7	Santa Rita 	11	Noviembre	2023-07-11T00:00:00	2024-11-08T16:00:00	4	Temperatura máxima	18.5
127659	7	Sololá	704	Santa Lucía Utatlán 	7	Santa Rita 	11	Noviembre	2023-07-11T00:00:00	2024-11-08T16:00:00	3	Temperatura mínima	17.6
127660	7	Sololá	704	Santa Lucía Utatlán 	7	Santa Rita 	11	Noviembre	2023-07-11T00:00:00	2024-11-08T16:00:00	5	Humedad	88
127661	7	Sololá	704	Santa Lucía Utatlán 	7	Santa Rita 	11	Noviembre	2023-07-11T00:00:00	2024-11-08T16:00:00	6	Velocidad del viento	3.2
127662	7	Sololá	704	Santa Lucía Utatlán 	7	Santa Rita 	11	Noviembre	2023-07-11T00:00:00	2024-11-08T16:00:00	7	Dirección del viento	3.22
127663	7	Sololá	704	Santa Lucía Utatlán 	7	Santa Rita 	11	Noviembre	2023-07-11T00:00:00	2024-11-08T16:00:00	1	Precipitación	0
127664	7	Sololá	704	Santa Lucía Utatlán 	7	Santa Rita 	11	Noviembre	2023-07-11T00:00:00	2024-11-08T16:00:00	8	Radiación solar	210
127665	7	Sololá	704	Santa Lucía Utatlán 	7	Santa Rita 	11	Noviembre	2023-07-11T00:00:00	2024-11-08T17:00:00	2	Temperatura media	17.3
127666	7	Sololá	704	Santa Lucía Utatlán 	7	Santa Rita 	11	Noviembre	2023-07-11T00:00:00	2024-11-08T17:00:00	4	Temperatura máxima	17.8
127667	7	Sololá	704	Santa Lucía Utatlán 	7	Santa Rita 	11	Noviembre	2023-07-11T00:00:00	2024-11-08T17:00:00	3	Temperatura mínima	17.3
127668	7	Sololá	704	Santa Lucía Utatlán 	7	Santa Rita 	11	Noviembre	2023-07-11T00:00:00	2024-11-08T17:00:00	5	Humedad	90
127669	7	Sololá	704	Santa Lucía Utatlán 	7	Santa Rita 	11	Noviembre	2023-07-11T00:00:00	2024-11-08T17:00:00	6	Velocidad del viento	4.8
127670	7	Sololá	704	Santa Lucía Utatlán 	7	Santa Rita 	11	Noviembre	2023-07-11T00:00:00	2024-11-08T17:00:00	7	Dirección del viento	4.83
127671	7	Sololá	704	Santa Lucía Utatlán 	7	Santa Rita 	11	Noviembre	2023-07-11T00:00:00	2024-11-08T17:00:00	1	Precipitación	0
127672	7	Sololá	704	Santa Lucía Utatlán 	7	Santa Rita 	11	Noviembre	2023-07-11T00:00:00	2024-11-08T17:00:00	8	Radiación solar	9
127673	7	Sololá	704	Santa Lucía Utatlán 	7	Santa Rita 	11	Noviembre	2023-07-11T00:00:00	2024-11-08T18:00:00	2	Temperatura media	18.6
127674	7	Sololá	704	Santa Lucía Utatlán 	7	Santa Rita 	11	Noviembre	2023-07-11T00:00:00	2024-11-08T18:00:00	4	Temperatura máxima	18.6
127675	7	Sololá	704	Santa Lucía Utatlán 	7	Santa Rita 	11	Noviembre	2023-07-11T00:00:00	2024-11-08T18:00:00	3	Temperatura mínima	16.9
127676	7	Sololá	704	Santa Lucía Utatlán 	7	Santa Rita 	11	Noviembre	2023-07-11T00:00:00	2024-11-08T18:00:00	5	Humedad	89
127677	7	Sololá	704	Santa Lucía Utatlán 	7	Santa Rita 	11	Noviembre	2023-07-11T00:00:00	2024-11-08T18:00:00	6	Velocidad del viento	3.2
127678	7	Sololá	704	Santa Lucía Utatlán 	7	Santa Rita 	11	Noviembre	2023-07-11T00:00:00	2024-11-08T18:00:00	7	Dirección del viento	3.22
127679	7	Sololá	704	Santa Lucía Utatlán 	7	Santa Rita 	11	Noviembre	2023-07-11T00:00:00	2024-11-08T18:00:00	1	Precipitación	0
127680	7	Sololá	704	Santa Lucía Utatlán 	7	Santa Rita 	11	Noviembre	2023-07-11T00:00:00	2024-11-08T18:00:00	8	Radiación solar	0
127681	7	Sololá	704	Santa Lucía Utatlán 	7	Santa Rita 	11	Noviembre	2023-07-11T00:00:00	2024-11-08T19:00:00	2	Temperatura media	23.1
127682	7	Sololá	704	Santa Lucía Utatlán 	7	Santa Rita 	11	Noviembre	2023-07-11T00:00:00	2024-11-08T19:00:00	4	Temperatura máxima	23.1
127683	7	Sololá	704	Santa Lucía Utatlán 	7	Santa Rita 	11	Noviembre	2023-07-11T00:00:00	2024-11-08T19:00:00	3	Temperatura mínima	18.6
127684	7	Sololá	704	Santa Lucía Utatlán 	7	Santa Rita 	11	Noviembre	2023-07-11T00:00:00	2024-11-08T19:00:00	5	Humedad	68
127685	7	Sololá	704	Santa Lucía Utatlán 	7	Santa Rita 	11	Noviembre	2023-07-11T00:00:00	2024-11-08T19:00:00	6	Velocidad del viento	4.8
127686	7	Sololá	704	Santa Lucía Utatlán 	7	Santa Rita 	11	Noviembre	2023-07-11T00:00:00	2024-11-08T19:00:00	7	Dirección del viento	4.83
127687	7	Sololá	704	Santa Lucía Utatlán 	7	Santa Rita 	11	Noviembre	2023-07-11T00:00:00	2024-11-08T19:00:00	1	Precipitación	0
127688	7	Sololá	704	Santa Lucía Utatlán 	7	Santa Rita 	11	Noviembre	2023-07-11T00:00:00	2024-11-08T19:00:00	8	Radiación solar	0
127689	7	Sololá	704	Santa Lucía Utatlán 	7	Santa Rita 	11	Noviembre	2023-07-11T00:00:00	2024-11-08T20:00:00	2	Temperatura media	25.4
127690	7	Sololá	704	Santa Lucía Utatlán 	7	Santa Rita 	11	Noviembre	2023-07-11T00:00:00	2024-11-08T20:00:00	4	Temperatura máxima	25.5
127691	7	Sololá	704	Santa Lucía Utatlán 	7	Santa Rita 	11	Noviembre	2023-07-11T00:00:00	2024-11-08T20:00:00	3	Temperatura mínima	23.1
127692	7	Sololá	704	Santa Lucía Utatlán 	7	Santa Rita 	11	Noviembre	2023-07-11T00:00:00	2024-11-08T20:00:00	5	Humedad	58
127693	7	Sololá	704	Santa Lucía Utatlán 	7	Santa Rita 	11	Noviembre	2023-07-11T00:00:00	2024-11-08T20:00:00	6	Velocidad del viento	8
127694	7	Sololá	704	Santa Lucía Utatlán 	7	Santa Rita 	11	Noviembre	2023-07-11T00:00:00	2024-11-08T20:00:00	7	Dirección del viento	8.05
127695	7	Sololá	704	Santa Lucía Utatlán 	7	Santa Rita 	11	Noviembre	2023-07-11T00:00:00	2024-11-08T20:00:00	1	Precipitación	0
127696	7	Sololá	704	Santa Lucía Utatlán 	7	Santa Rita 	11	Noviembre	2023-07-11T00:00:00	2024-11-08T20:00:00	8	Radiación solar	0
127697	7	Sololá	704	Santa Lucía Utatlán 	7	Santa Rita 	11	Noviembre	2023-07-11T00:00:00	2024-11-08T21:00:00	2	Temperatura media	23.9
127698	7	Sololá	704	Santa Lucía Utatlán 	7	Santa Rita 	11	Noviembre	2023-07-11T00:00:00	2024-11-08T21:00:00	4	Temperatura máxima	25.6
127699	7	Sololá	704	Santa Lucía Utatlán 	7	Santa Rita 	11	Noviembre	2023-07-11T00:00:00	2024-11-08T21:00:00	3	Temperatura mínima	23.9
127700	7	Sololá	704	Santa Lucía Utatlán 	7	Santa Rita 	11	Noviembre	2023-07-11T00:00:00	2024-11-08T21:00:00	5	Humedad	68
127701	7	Sololá	704	Santa Lucía Utatlán 	7	Santa Rita 	11	Noviembre	2023-07-11T00:00:00	2024-11-08T21:00:00	6	Velocidad del viento	11.3
127702	7	Sololá	704	Santa Lucía Utatlán 	7	Santa Rita 	11	Noviembre	2023-07-11T00:00:00	2024-11-08T21:00:00	7	Dirección del viento	11.27
127703	7	Sololá	704	Santa Lucía Utatlán 	7	Santa Rita 	11	Noviembre	2023-07-11T00:00:00	2024-11-08T21:00:00	1	Precipitación	0
127704	7	Sololá	704	Santa Lucía Utatlán 	7	Santa Rita 	11	Noviembre	2023-07-11T00:00:00	2024-11-08T21:00:00	8	Radiación solar	0
127705	7	Sololá	704	Santa Lucía Utatlán 	7	Santa Rita 	11	Noviembre	2023-07-11T00:00:00	2024-11-08T22:00:00	2	Temperatura media	24.6
127706	7	Sololá	704	Santa Lucía Utatlán 	7	Santa Rita 	11	Noviembre	2023-07-11T00:00:00	2024-11-08T22:00:00	4	Temperatura máxima	25.2
127707	7	Sololá	704	Santa Lucía Utatlán 	7	Santa Rita 	11	Noviembre	2023-07-11T00:00:00	2024-11-08T22:00:00	3	Temperatura mínima	23.3
127708	7	Sololá	704	Santa Lucía Utatlán 	7	Santa Rita 	11	Noviembre	2023-07-11T00:00:00	2024-11-08T22:00:00	5	Humedad	66
127709	7	Sololá	704	Santa Lucía Utatlán 	7	Santa Rita 	11	Noviembre	2023-07-11T00:00:00	2024-11-08T22:00:00	6	Velocidad del viento	9.7
127710	7	Sololá	704	Santa Lucía Utatlán 	7	Santa Rita 	11	Noviembre	2023-07-11T00:00:00	2024-11-08T22:00:00	7	Dirección del viento	9.66
127711	7	Sololá	704	Santa Lucía Utatlán 	7	Santa Rita 	11	Noviembre	2023-07-11T00:00:00	2024-11-08T22:00:00	1	Precipitación	0
127712	7	Sololá	704	Santa Lucía Utatlán 	7	Santa Rita 	11	Noviembre	2023-07-11T00:00:00	2024-11-08T22:00:00	8	Radiación solar	0
127713	7	Sololá	704	Santa Lucía Utatlán 	7	Santa Rita 	11	Noviembre	2023-07-11T00:00:00	2024-11-08T23:00:00	2	Temperatura media	24.5
127714	7	Sololá	704	Santa Lucía Utatlán 	7	Santa Rita 	11	Noviembre	2023-07-11T00:00:00	2024-11-08T23:00:00	4	Temperatura máxima	24.6
127715	7	Sololá	704	Santa Lucía Utatlán 	7	Santa Rita 	11	Noviembre	2023-07-11T00:00:00	2024-11-08T23:00:00	3	Temperatura mínima	23.6
127716	7	Sololá	704	Santa Lucía Utatlán 	7	Santa Rita 	11	Noviembre	2023-07-11T00:00:00	2024-11-08T23:00:00	5	Humedad	68
127717	7	Sololá	704	Santa Lucía Utatlán 	7	Santa Rita 	11	Noviembre	2023-07-11T00:00:00	2024-11-08T23:00:00	6	Velocidad del viento	9.7
127718	7	Sololá	704	Santa Lucía Utatlán 	7	Santa Rita 	11	Noviembre	2023-07-11T00:00:00	2024-11-08T23:00:00	7	Dirección del viento	9.66
127719	7	Sololá	704	Santa Lucía Utatlán 	7	Santa Rita 	11	Noviembre	2023-07-11T00:00:00	2024-11-08T23:00:00	1	Precipitación	0
127720	7	Sololá	704	Santa Lucía Utatlán 	7	Santa Rita 	11	Noviembre	2023-07-11T00:00:00	2024-11-08T23:00:00	8	Radiación solar	0
127721	7	Sololá	704	Santa Lucía Utatlán 	7	Santa Rita 	11	Noviembre	2023-08-11T00:00:00	2024-11-08T00:00:00	2	Temperatura media	23.6
127722	7	Sololá	704	Santa Lucía Utatlán 	7	Santa Rita 	11	Noviembre	2023-08-11T00:00:00	2024-11-08T00:00:00	4	Temperatura máxima	24.6
127723	7	Sololá	704	Santa Lucía Utatlán 	7	Santa Rita 	11	Noviembre	2023-08-11T00:00:00	2024-11-08T00:00:00	3	Temperatura mínima	23.4
127724	7	Sololá	704	Santa Lucía Utatlán 	7	Santa Rita 	11	Noviembre	2023-08-11T00:00:00	2024-11-08T00:00:00	5	Humedad	71
127725	7	Sololá	704	Santa Lucía Utatlán 	7	Santa Rita 	11	Noviembre	2023-08-11T00:00:00	2024-11-08T00:00:00	6	Velocidad del viento	9.7
127726	7	Sololá	704	Santa Lucía Utatlán 	7	Santa Rita 	11	Noviembre	2023-08-11T00:00:00	2024-11-08T00:00:00	7	Dirección del viento	9.66
127727	7	Sololá	704	Santa Lucía Utatlán 	7	Santa Rita 	11	Noviembre	2023-08-11T00:00:00	2024-11-08T00:00:00	1	Precipitación	0
127728	7	Sololá	704	Santa Lucía Utatlán 	7	Santa Rita 	11	Noviembre	2023-08-11T00:00:00	2024-11-08T00:00:00	8	Radiación solar	0
127729	7	Sololá	704	Santa Lucía Utatlán 	7	Santa Rita 	11	Noviembre	2023-08-11T00:00:00	2024-11-08T01:00:00	2	Temperatura media	23.9
127730	7	Sololá	704	Santa Lucía Utatlán 	7	Santa Rita 	11	Noviembre	2023-08-11T00:00:00	2024-11-08T01:00:00	4	Temperatura máxima	24.7
127731	7	Sololá	704	Santa Lucía Utatlán 	7	Santa Rita 	11	Noviembre	2023-08-11T00:00:00	2024-11-08T01:00:00	3	Temperatura mínima	23.6
127732	7	Sololá	704	Santa Lucía Utatlán 	7	Santa Rita 	11	Noviembre	2023-08-11T00:00:00	2024-11-08T01:00:00	5	Humedad	71
127733	7	Sololá	704	Santa Lucía Utatlán 	7	Santa Rita 	11	Noviembre	2023-08-11T00:00:00	2024-11-08T01:00:00	6	Velocidad del viento	9.7
127734	7	Sololá	704	Santa Lucía Utatlán 	7	Santa Rita 	11	Noviembre	2023-08-11T00:00:00	2024-11-08T01:00:00	7	Dirección del viento	9.66
127735	7	Sololá	704	Santa Lucía Utatlán 	7	Santa Rita 	11	Noviembre	2023-08-11T00:00:00	2024-11-08T01:00:00	1	Precipitación	0
127736	7	Sololá	704	Santa Lucía Utatlán 	7	Santa Rita 	11	Noviembre	2023-08-11T00:00:00	2024-11-08T01:00:00	8	Radiación solar	0
127737	7	Sololá	704	Santa Lucía Utatlán 	7	Santa Rita 	11	Noviembre	2023-08-11T00:00:00	2024-11-08T02:00:00	2	Temperatura media	24.7
127738	7	Sololá	704	Santa Lucía Utatlán 	7	Santa Rita 	11	Noviembre	2023-08-11T00:00:00	2024-11-08T02:00:00	4	Temperatura máxima	25.1
127739	7	Sololá	704	Santa Lucía Utatlán 	7	Santa Rita 	11	Noviembre	2023-08-11T00:00:00	2024-11-08T02:00:00	3	Temperatura mínima	23.9
127740	7	Sololá	704	Santa Lucía Utatlán 	7	Santa Rita 	11	Noviembre	2023-08-11T00:00:00	2024-11-08T02:00:00	5	Humedad	67
127741	7	Sololá	704	Santa Lucía Utatlán 	7	Santa Rita 	11	Noviembre	2023-08-11T00:00:00	2024-11-08T02:00:00	6	Velocidad del viento	8
127742	7	Sololá	704	Santa Lucía Utatlán 	7	Santa Rita 	11	Noviembre	2023-08-11T00:00:00	2024-11-08T02:00:00	7	Dirección del viento	8.05
127743	7	Sololá	704	Santa Lucía Utatlán 	7	Santa Rita 	11	Noviembre	2023-08-11T00:00:00	2024-11-08T02:00:00	1	Precipitación	0
127744	7	Sololá	704	Santa Lucía Utatlán 	7	Santa Rita 	11	Noviembre	2023-08-11T00:00:00	2024-11-08T02:00:00	8	Radiación solar	0
127745	7	Sololá	704	Santa Lucía Utatlán 	7	Santa Rita 	11	Noviembre	2023-08-11T00:00:00	2024-11-08T03:00:00	2	Temperatura media	24.5
127746	7	Sololá	704	Santa Lucía Utatlán 	7	Santa Rita 	11	Noviembre	2023-08-11T00:00:00	2024-11-08T03:00:00	4	Temperatura máxima	25.2
127747	7	Sololá	704	Santa Lucía Utatlán 	7	Santa Rita 	11	Noviembre	2023-08-11T00:00:00	2024-11-08T03:00:00	3	Temperatura mínima	23.7
127748	7	Sololá	704	Santa Lucía Utatlán 	7	Santa Rita 	11	Noviembre	2023-08-11T00:00:00	2024-11-08T03:00:00	5	Humedad	68
127749	7	Sololá	704	Santa Lucía Utatlán 	7	Santa Rita 	11	Noviembre	2023-08-11T00:00:00	2024-11-08T03:00:00	6	Velocidad del viento	8
127750	7	Sololá	704	Santa Lucía Utatlán 	7	Santa Rita 	11	Noviembre	2023-08-11T00:00:00	2024-11-08T03:00:00	7	Dirección del viento	8.05
127751	7	Sololá	704	Santa Lucía Utatlán 	7	Santa Rita 	11	Noviembre	2023-08-11T00:00:00	2024-11-08T03:00:00	1	Precipitación	0
127752	7	Sololá	704	Santa Lucía Utatlán 	7	Santa Rita 	11	Noviembre	2023-08-11T00:00:00	2024-11-08T03:00:00	8	Radiación solar	0
127753	7	Sololá	704	Santa Lucía Utatlán 	7	Santa Rita 	11	Noviembre	2023-08-11T00:00:00	2024-11-08T04:00:00	2	Temperatura media	22.3
127754	7	Sololá	704	Santa Lucía Utatlán 	7	Santa Rita 	11	Noviembre	2023-08-11T00:00:00	2024-11-08T04:00:00	4	Temperatura máxima	24.6
127755	7	Sololá	704	Santa Lucía Utatlán 	7	Santa Rita 	11	Noviembre	2023-08-11T00:00:00	2024-11-08T04:00:00	3	Temperatura mínima	22.3
127756	7	Sololá	704	Santa Lucía Utatlán 	7	Santa Rita 	11	Noviembre	2023-08-11T00:00:00	2024-11-08T04:00:00	5	Humedad	72
127757	7	Sololá	704	Santa Lucía Utatlán 	7	Santa Rita 	11	Noviembre	2023-08-11T00:00:00	2024-11-08T04:00:00	6	Velocidad del viento	8
127758	7	Sololá	704	Santa Lucía Utatlán 	7	Santa Rita 	11	Noviembre	2023-08-11T00:00:00	2024-11-08T04:00:00	7	Dirección del viento	8.05
127759	7	Sololá	704	Santa Lucía Utatlán 	7	Santa Rita 	11	Noviembre	2023-08-11T00:00:00	2024-11-08T04:00:00	1	Precipitación	0
127760	7	Sololá	704	Santa Lucía Utatlán 	7	Santa Rita 	11	Noviembre	2023-08-11T00:00:00	2024-11-08T04:00:00	8	Radiación solar	0
127761	7	Sololá	704	Santa Lucía Utatlán 	7	Santa Rita 	11	Noviembre	2023-08-11T00:00:00	2024-11-08T05:00:00	2	Temperatura media	20.4
127762	7	Sololá	704	Santa Lucía Utatlán 	7	Santa Rita 	11	Noviembre	2023-08-11T00:00:00	2024-11-08T05:00:00	4	Temperatura máxima	22.3
127763	7	Sololá	704	Santa Lucía Utatlán 	7	Santa Rita 	11	Noviembre	2023-08-11T00:00:00	2024-11-08T05:00:00	3	Temperatura mínima	20.4
127764	7	Sololá	704	Santa Lucía Utatlán 	7	Santa Rita 	11	Noviembre	2023-08-11T00:00:00	2024-11-08T05:00:00	5	Humedad	80
127765	7	Sololá	704	Santa Lucía Utatlán 	7	Santa Rita 	11	Noviembre	2023-08-11T00:00:00	2024-11-08T05:00:00	6	Velocidad del viento	4.8
127766	7	Sololá	704	Santa Lucía Utatlán 	7	Santa Rita 	11	Noviembre	2023-08-11T00:00:00	2024-11-08T05:00:00	7	Dirección del viento	4.83
127767	7	Sololá	704	Santa Lucía Utatlán 	7	Santa Rita 	11	Noviembre	2023-08-11T00:00:00	2024-11-08T05:00:00	1	Precipitación	0
127768	7	Sololá	704	Santa Lucía Utatlán 	7	Santa Rita 	11	Noviembre	2023-08-11T00:00:00	2024-11-08T05:00:00	8	Radiación solar	0
127769	7	Sololá	704	Santa Lucía Utatlán 	7	Santa Rita 	11	Noviembre	2023-08-11T00:00:00	2024-11-08T06:00:00	2	Temperatura media	21.5
127770	7	Sololá	704	Santa Lucía Utatlán 	7	Santa Rita 	11	Noviembre	2023-08-11T00:00:00	2024-11-08T06:00:00	4	Temperatura máxima	21.6
127771	7	Sololá	704	Santa Lucía Utatlán 	7	Santa Rita 	11	Noviembre	2023-08-11T00:00:00	2024-11-08T06:00:00	3	Temperatura mínima	20.4
127772	7	Sololá	704	Santa Lucía Utatlán 	7	Santa Rita 	11	Noviembre	2023-08-11T00:00:00	2024-11-08T06:00:00	5	Humedad	77
127773	7	Sololá	704	Santa Lucía Utatlán 	7	Santa Rita 	11	Noviembre	2023-08-11T00:00:00	2024-11-08T06:00:00	6	Velocidad del viento	3.2
127774	7	Sololá	704	Santa Lucía Utatlán 	7	Santa Rita 	11	Noviembre	2023-08-11T00:00:00	2024-11-08T06:00:00	7	Dirección del viento	3.22
127775	7	Sololá	704	Santa Lucía Utatlán 	7	Santa Rita 	11	Noviembre	2023-08-11T00:00:00	2024-11-08T06:00:00	1	Precipitación	0
127776	7	Sololá	704	Santa Lucía Utatlán 	7	Santa Rita 	11	Noviembre	2023-08-11T00:00:00	2024-11-08T06:00:00	8	Radiación solar	22
127777	7	Sololá	704	Santa Lucía Utatlán 	7	Santa Rita 	11	Noviembre	2023-08-11T00:00:00	2024-11-08T07:00:00	2	Temperatura media	21.8
127778	7	Sololá	704	Santa Lucía Utatlán 	7	Santa Rita 	11	Noviembre	2023-08-11T00:00:00	2024-11-08T07:00:00	4	Temperatura máxima	21.8
127779	7	Sololá	704	Santa Lucía Utatlán 	7	Santa Rita 	11	Noviembre	2023-08-11T00:00:00	2024-11-08T07:00:00	3	Temperatura mínima	20.6
127780	7	Sololá	704	Santa Lucía Utatlán 	7	Santa Rita 	11	Noviembre	2023-08-11T00:00:00	2024-11-08T07:00:00	5	Humedad	70
127781	7	Sololá	704	Santa Lucía Utatlán 	7	Santa Rita 	11	Noviembre	2023-08-11T00:00:00	2024-11-08T07:00:00	6	Velocidad del viento	6.4
127782	7	Sololá	704	Santa Lucía Utatlán 	7	Santa Rita 	11	Noviembre	2023-08-11T00:00:00	2024-11-08T07:00:00	7	Dirección del viento	6.44
127783	7	Sololá	704	Santa Lucía Utatlán 	7	Santa Rita 	11	Noviembre	2023-08-11T00:00:00	2024-11-08T07:00:00	1	Precipitación	0
127784	7	Sololá	704	Santa Lucía Utatlán 	7	Santa Rita 	11	Noviembre	2023-08-11T00:00:00	2024-11-08T07:00:00	8	Radiación solar	214
127785	7	Sololá	704	Santa Lucía Utatlán 	7	Santa Rita 	11	Noviembre	2023-08-11T00:00:00	2024-11-08T08:00:00	2	Temperatura media	21.1
127786	7	Sololá	704	Santa Lucía Utatlán 	7	Santa Rita 	11	Noviembre	2023-08-11T00:00:00	2024-11-08T08:00:00	4	Temperatura máxima	21.8
127787	7	Sololá	704	Santa Lucía Utatlán 	7	Santa Rita 	11	Noviembre	2023-08-11T00:00:00	2024-11-08T08:00:00	3	Temperatura mínima	21.1
127788	7	Sololá	704	Santa Lucía Utatlán 	7	Santa Rita 	11	Noviembre	2023-08-11T00:00:00	2024-11-08T08:00:00	5	Humedad	76
127789	7	Sololá	704	Santa Lucía Utatlán 	7	Santa Rita 	11	Noviembre	2023-08-11T00:00:00	2024-11-08T08:00:00	6	Velocidad del viento	8
127790	7	Sololá	704	Santa Lucía Utatlán 	7	Santa Rita 	11	Noviembre	2023-08-11T00:00:00	2024-11-08T08:00:00	7	Dirección del viento	8.05
127791	7	Sololá	704	Santa Lucía Utatlán 	7	Santa Rita 	11	Noviembre	2023-08-11T00:00:00	2024-11-08T08:00:00	1	Precipitación	0
127792	7	Sololá	704	Santa Lucía Utatlán 	7	Santa Rita 	11	Noviembre	2023-08-11T00:00:00	2024-11-08T08:00:00	8	Radiación solar	453
127793	7	Sololá	704	Santa Lucía Utatlán 	7	Santa Rita 	11	Noviembre	2023-08-11T00:00:00	2024-11-08T09:00:00	2	Temperatura media	20
127794	7	Sololá	704	Santa Lucía Utatlán 	7	Santa Rita 	11	Noviembre	2023-08-11T00:00:00	2024-11-08T09:00:00	4	Temperatura máxima	21.3
127795	7	Sololá	704	Santa Lucía Utatlán 	7	Santa Rita 	11	Noviembre	2023-08-11T00:00:00	2024-11-08T09:00:00	3	Temperatura mínima	20
127796	7	Sololá	704	Santa Lucía Utatlán 	7	Santa Rita 	11	Noviembre	2023-08-11T00:00:00	2024-11-08T09:00:00	5	Humedad	80
127797	7	Sololá	704	Santa Lucía Utatlán 	7	Santa Rita 	11	Noviembre	2023-08-11T00:00:00	2024-11-08T09:00:00	6	Velocidad del viento	6.4
127798	7	Sololá	704	Santa Lucía Utatlán 	7	Santa Rita 	11	Noviembre	2023-08-11T00:00:00	2024-11-08T09:00:00	7	Dirección del viento	6.44
127799	7	Sololá	704	Santa Lucía Utatlán 	7	Santa Rita 	11	Noviembre	2023-08-11T00:00:00	2024-11-08T09:00:00	1	Precipitación	0
127800	7	Sololá	704	Santa Lucía Utatlán 	7	Santa Rita 	11	Noviembre	2023-08-11T00:00:00	2024-11-08T09:00:00	8	Radiación solar	569
127801	7	Sololá	704	Santa Lucía Utatlán 	7	Santa Rita 	11	Noviembre	2023-08-11T00:00:00	2024-11-08T10:00:00	2	Temperatura media	20.6
127802	7	Sololá	704	Santa Lucía Utatlán 	7	Santa Rita 	11	Noviembre	2023-08-11T00:00:00	2024-11-08T10:00:00	4	Temperatura máxima	21.1
127803	7	Sololá	704	Santa Lucía Utatlán 	7	Santa Rita 	11	Noviembre	2023-08-11T00:00:00	2024-11-08T10:00:00	3	Temperatura mínima	19.4
127804	7	Sololá	704	Santa Lucía Utatlán 	7	Santa Rita 	11	Noviembre	2023-08-11T00:00:00	2024-11-08T10:00:00	5	Humedad	79
127805	7	Sololá	704	Santa Lucía Utatlán 	7	Santa Rita 	11	Noviembre	2023-08-11T00:00:00	2024-11-08T10:00:00	6	Velocidad del viento	4.8
127806	7	Sololá	704	Santa Lucía Utatlán 	7	Santa Rita 	11	Noviembre	2023-08-11T00:00:00	2024-11-08T10:00:00	7	Dirección del viento	4.83
127807	7	Sololá	704	Santa Lucía Utatlán 	7	Santa Rita 	11	Noviembre	2023-08-11T00:00:00	2024-11-08T10:00:00	1	Precipitación	0
127808	7	Sololá	704	Santa Lucía Utatlán 	7	Santa Rita 	11	Noviembre	2023-08-11T00:00:00	2024-11-08T10:00:00	8	Radiación solar	588
127809	7	Sololá	704	Santa Lucía Utatlán 	7	Santa Rita 	11	Noviembre	2023-08-11T00:00:00	2024-11-08T11:00:00	2	Temperatura media	20.1
127810	7	Sololá	704	Santa Lucía Utatlán 	7	Santa Rita 	11	Noviembre	2023-08-11T00:00:00	2024-11-08T11:00:00	4	Temperatura máxima	20.6
127811	7	Sololá	704	Santa Lucía Utatlán 	7	Santa Rita 	11	Noviembre	2023-08-11T00:00:00	2024-11-08T11:00:00	3	Temperatura mínima	19.5
127812	7	Sololá	704	Santa Lucía Utatlán 	7	Santa Rita 	11	Noviembre	2023-08-11T00:00:00	2024-11-08T11:00:00	5	Humedad	83
127813	7	Sololá	704	Santa Lucía Utatlán 	7	Santa Rita 	11	Noviembre	2023-08-11T00:00:00	2024-11-08T11:00:00	6	Velocidad del viento	3.2
127814	7	Sololá	704	Santa Lucía Utatlán 	7	Santa Rita 	11	Noviembre	2023-08-11T00:00:00	2024-11-08T11:00:00	7	Dirección del viento	3.22
127815	7	Sololá	704	Santa Lucía Utatlán 	7	Santa Rita 	11	Noviembre	2023-08-11T00:00:00	2024-11-08T11:00:00	1	Precipitación	0
127816	7	Sololá	704	Santa Lucía Utatlán 	7	Santa Rita 	11	Noviembre	2023-08-11T00:00:00	2024-11-08T11:00:00	8	Radiación solar	424
127817	7	Sololá	704	Santa Lucía Utatlán 	7	Santa Rita 	11	Noviembre	2023-08-11T00:00:00	2024-11-08T12:00:00	2	Temperatura media	20.3
127818	7	Sololá	704	Santa Lucía Utatlán 	7	Santa Rita 	11	Noviembre	2023-08-11T00:00:00	2024-11-08T12:00:00	4	Temperatura máxima	20.3
127819	7	Sololá	704	Santa Lucía Utatlán 	7	Santa Rita 	11	Noviembre	2023-08-11T00:00:00	2024-11-08T12:00:00	3	Temperatura mínima	19.7
127820	7	Sololá	704	Santa Lucía Utatlán 	7	Santa Rita 	11	Noviembre	2023-08-11T00:00:00	2024-11-08T12:00:00	5	Humedad	84
127821	7	Sololá	704	Santa Lucía Utatlán 	7	Santa Rita 	11	Noviembre	2023-08-11T00:00:00	2024-11-08T12:00:00	6	Velocidad del viento	4.8
127822	7	Sololá	704	Santa Lucía Utatlán 	7	Santa Rita 	11	Noviembre	2023-08-11T00:00:00	2024-11-08T12:00:00	7	Dirección del viento	4.83
127823	7	Sololá	704	Santa Lucía Utatlán 	7	Santa Rita 	11	Noviembre	2023-08-11T00:00:00	2024-11-08T12:00:00	1	Precipitación	0
127824	7	Sololá	704	Santa Lucía Utatlán 	7	Santa Rita 	11	Noviembre	2023-08-11T00:00:00	2024-11-08T12:00:00	8	Radiación solar	362
127825	7	Sololá	704	Santa Lucía Utatlán 	7	Santa Rita 	11	Noviembre	2023-08-11T00:00:00	2024-11-08T13:00:00	2	Temperatura media	20.2
127826	7	Sololá	704	Santa Lucía Utatlán 	7	Santa Rita 	11	Noviembre	2023-08-11T00:00:00	2024-11-08T13:00:00	4	Temperatura máxima	20.6
127827	7	Sololá	704	Santa Lucía Utatlán 	7	Santa Rita 	11	Noviembre	2023-08-11T00:00:00	2024-11-08T13:00:00	3	Temperatura mínima	20.2
127828	7	Sololá	704	Santa Lucía Utatlán 	7	Santa Rita 	11	Noviembre	2023-08-11T00:00:00	2024-11-08T13:00:00	5	Humedad	84
127829	7	Sololá	704	Santa Lucía Utatlán 	7	Santa Rita 	11	Noviembre	2023-08-11T00:00:00	2024-11-08T13:00:00	6	Velocidad del viento	4.8
127830	7	Sololá	704	Santa Lucía Utatlán 	7	Santa Rita 	11	Noviembre	2023-08-11T00:00:00	2024-11-08T13:00:00	7	Dirección del viento	4.83
127831	7	Sololá	704	Santa Lucía Utatlán 	7	Santa Rita 	11	Noviembre	2023-08-11T00:00:00	2024-11-08T13:00:00	1	Precipitación	0
127832	7	Sololá	704	Santa Lucía Utatlán 	7	Santa Rita 	11	Noviembre	2023-08-11T00:00:00	2024-11-08T13:00:00	8	Radiación solar	563
127833	7	Sololá	704	Santa Lucía Utatlán 	7	Santa Rita 	11	Noviembre	2023-08-11T00:00:00	2024-11-08T14:00:00	2	Temperatura media	20.4
127834	7	Sololá	704	Santa Lucía Utatlán 	7	Santa Rita 	11	Noviembre	2023-08-11T00:00:00	2024-11-08T14:00:00	4	Temperatura máxima	20.4
127835	7	Sololá	704	Santa Lucía Utatlán 	7	Santa Rita 	11	Noviembre	2023-08-11T00:00:00	2024-11-08T14:00:00	3	Temperatura mínima	19.9
127836	7	Sololá	704	Santa Lucía Utatlán 	7	Santa Rita 	11	Noviembre	2023-08-11T00:00:00	2024-11-08T14:00:00	5	Humedad	83
127837	7	Sololá	704	Santa Lucía Utatlán 	7	Santa Rita 	11	Noviembre	2023-08-11T00:00:00	2024-11-08T14:00:00	6	Velocidad del viento	4.8
127838	7	Sololá	704	Santa Lucía Utatlán 	7	Santa Rita 	11	Noviembre	2023-08-11T00:00:00	2024-11-08T14:00:00	7	Dirección del viento	4.83
127839	7	Sololá	704	Santa Lucía Utatlán 	7	Santa Rita 	11	Noviembre	2023-08-11T00:00:00	2024-11-08T14:00:00	1	Precipitación	0
127840	7	Sololá	704	Santa Lucía Utatlán 	7	Santa Rita 	11	Noviembre	2023-08-11T00:00:00	2024-11-08T14:00:00	8	Radiación solar	562
127841	7	Sololá	704	Santa Lucía Utatlán 	7	Santa Rita 	11	Noviembre	2023-08-11T00:00:00	2024-11-08T15:00:00	2	Temperatura media	19.1
127842	7	Sololá	704	Santa Lucía Utatlán 	7	Santa Rita 	11	Noviembre	2023-08-11T00:00:00	2024-11-08T15:00:00	4	Temperatura máxima	20.4
127843	7	Sololá	704	Santa Lucía Utatlán 	7	Santa Rita 	11	Noviembre	2023-08-11T00:00:00	2024-11-08T15:00:00	3	Temperatura mínima	19.1
127844	7	Sololá	704	Santa Lucía Utatlán 	7	Santa Rita 	11	Noviembre	2023-08-11T00:00:00	2024-11-08T15:00:00	5	Humedad	89
127845	7	Sololá	704	Santa Lucía Utatlán 	7	Santa Rita 	11	Noviembre	2023-08-11T00:00:00	2024-11-08T15:00:00	6	Velocidad del viento	3.2
127846	7	Sololá	704	Santa Lucía Utatlán 	7	Santa Rita 	11	Noviembre	2023-08-11T00:00:00	2024-11-08T15:00:00	7	Dirección del viento	3.22
127847	7	Sololá	704	Santa Lucía Utatlán 	7	Santa Rita 	11	Noviembre	2023-08-11T00:00:00	2024-11-08T15:00:00	1	Precipitación	0
127848	7	Sololá	704	Santa Lucía Utatlán 	7	Santa Rita 	11	Noviembre	2023-08-11T00:00:00	2024-11-08T15:00:00	8	Radiación solar	323
127849	7	Sololá	704	Santa Lucía Utatlán 	7	Santa Rita 	11	Noviembre	2023-08-11T00:00:00	2024-11-08T16:00:00	2	Temperatura media	19.5
127850	7	Sololá	704	Santa Lucía Utatlán 	7	Santa Rita 	11	Noviembre	2023-08-11T00:00:00	2024-11-08T16:00:00	4	Temperatura máxima	19.9
127851	7	Sololá	704	Santa Lucía Utatlán 	7	Santa Rita 	11	Noviembre	2023-08-11T00:00:00	2024-11-08T16:00:00	3	Temperatura mínima	19.2
127852	7	Sololá	704	Santa Lucía Utatlán 	7	Santa Rita 	11	Noviembre	2023-08-11T00:00:00	2024-11-08T16:00:00	5	Humedad	86
127853	7	Sololá	704	Santa Lucía Utatlán 	7	Santa Rita 	11	Noviembre	2023-08-11T00:00:00	2024-11-08T16:00:00	6	Velocidad del viento	3.2
127854	7	Sololá	704	Santa Lucía Utatlán 	7	Santa Rita 	11	Noviembre	2023-08-11T00:00:00	2024-11-08T16:00:00	7	Dirección del viento	3.22
127855	7	Sololá	704	Santa Lucía Utatlán 	7	Santa Rita 	11	Noviembre	2023-08-11T00:00:00	2024-11-08T16:00:00	1	Precipitación	0
127856	7	Sololá	704	Santa Lucía Utatlán 	7	Santa Rita 	11	Noviembre	2023-08-11T00:00:00	2024-11-08T16:00:00	8	Radiación solar	151
127857	7	Sololá	704	Santa Lucía Utatlán 	7	Santa Rita 	11	Noviembre	2023-08-11T00:00:00	2024-11-08T17:00:00	2	Temperatura media	20.2
127858	7	Sololá	704	Santa Lucía Utatlán 	7	Santa Rita 	11	Noviembre	2023-08-11T00:00:00	2024-11-08T17:00:00	4	Temperatura máxima	20.3
127859	7	Sololá	704	Santa Lucía Utatlán 	7	Santa Rita 	11	Noviembre	2023-08-11T00:00:00	2024-11-08T17:00:00	3	Temperatura mínima	19.5
127860	7	Sololá	704	Santa Lucía Utatlán 	7	Santa Rita 	11	Noviembre	2023-08-11T00:00:00	2024-11-08T17:00:00	5	Humedad	82
127861	7	Sololá	704	Santa Lucía Utatlán 	7	Santa Rita 	11	Noviembre	2023-08-11T00:00:00	2024-11-08T17:00:00	6	Velocidad del viento	4.8
127862	7	Sololá	704	Santa Lucía Utatlán 	7	Santa Rita 	11	Noviembre	2023-08-11T00:00:00	2024-11-08T17:00:00	7	Dirección del viento	4.83
127863	7	Sololá	704	Santa Lucía Utatlán 	7	Santa Rita 	11	Noviembre	2023-08-11T00:00:00	2024-11-08T17:00:00	1	Precipitación	0
127864	7	Sololá	704	Santa Lucía Utatlán 	7	Santa Rita 	11	Noviembre	2023-08-11T00:00:00	2024-11-08T17:00:00	8	Radiación solar	7
127865	7	Sololá	704	Santa Lucía Utatlán 	7	Santa Rita 	11	Noviembre	2023-08-11T00:00:00	2024-11-08T18:00:00	2	Temperatura media	20.6
127866	7	Sololá	704	Santa Lucía Utatlán 	7	Santa Rita 	11	Noviembre	2023-08-11T00:00:00	2024-11-08T18:00:00	4	Temperatura máxima	20.6
127867	7	Sololá	704	Santa Lucía Utatlán 	7	Santa Rita 	11	Noviembre	2023-08-11T00:00:00	2024-11-08T18:00:00	3	Temperatura mínima	19.1
127868	7	Sololá	704	Santa Lucía Utatlán 	7	Santa Rita 	11	Noviembre	2023-08-11T00:00:00	2024-11-08T18:00:00	5	Humedad	80
127869	7	Sololá	704	Santa Lucía Utatlán 	7	Santa Rita 	11	Noviembre	2023-08-11T00:00:00	2024-11-08T18:00:00	6	Velocidad del viento	6.4
127870	7	Sololá	704	Santa Lucía Utatlán 	7	Santa Rita 	11	Noviembre	2023-08-11T00:00:00	2024-11-08T18:00:00	7	Dirección del viento	6.44
127871	7	Sololá	704	Santa Lucía Utatlán 	7	Santa Rita 	11	Noviembre	2023-08-11T00:00:00	2024-11-08T18:00:00	1	Precipitación	0
127872	7	Sololá	704	Santa Lucía Utatlán 	7	Santa Rita 	11	Noviembre	2023-08-11T00:00:00	2024-11-08T18:00:00	8	Radiación solar	0
127873	7	Sololá	704	Santa Lucía Utatlán 	7	Santa Rita 	11	Noviembre	2023-08-11T00:00:00	2024-11-08T19:00:00	2	Temperatura media	22.9
127874	7	Sololá	704	Santa Lucía Utatlán 	7	Santa Rita 	11	Noviembre	2023-08-11T00:00:00	2024-11-08T19:00:00	4	Temperatura máxima	22.9
127875	7	Sololá	704	Santa Lucía Utatlán 	7	Santa Rita 	11	Noviembre	2023-08-11T00:00:00	2024-11-08T19:00:00	3	Temperatura mínima	20.6
127876	7	Sololá	704	Santa Lucía Utatlán 	7	Santa Rita 	11	Noviembre	2023-08-11T00:00:00	2024-11-08T19:00:00	5	Humedad	72
127877	7	Sololá	704	Santa Lucía Utatlán 	7	Santa Rita 	11	Noviembre	2023-08-11T00:00:00	2024-11-08T19:00:00	6	Velocidad del viento	4.8
127878	7	Sololá	704	Santa Lucía Utatlán 	7	Santa Rita 	11	Noviembre	2023-08-11T00:00:00	2024-11-08T19:00:00	7	Dirección del viento	4.83
127879	7	Sololá	704	Santa Lucía Utatlán 	7	Santa Rita 	11	Noviembre	2023-08-11T00:00:00	2024-11-08T19:00:00	1	Precipitación	0
127880	7	Sololá	704	Santa Lucía Utatlán 	7	Santa Rita 	11	Noviembre	2023-08-11T00:00:00	2024-11-08T19:00:00	8	Radiación solar	0
127881	7	Sololá	704	Santa Lucía Utatlán 	7	Santa Rita 	11	Noviembre	2023-08-11T00:00:00	2024-11-08T20:00:00	2	Temperatura media	23.8
127882	7	Sololá	704	Santa Lucía Utatlán 	7	Santa Rita 	11	Noviembre	2023-08-11T00:00:00	2024-11-08T20:00:00	4	Temperatura máxima	24.1
127883	7	Sololá	704	Santa Lucía Utatlán 	7	Santa Rita 	11	Noviembre	2023-08-11T00:00:00	2024-11-08T20:00:00	3	Temperatura mínima	22.9
127884	7	Sololá	704	Santa Lucía Utatlán 	7	Santa Rita 	11	Noviembre	2023-08-11T00:00:00	2024-11-08T20:00:00	5	Humedad	59
127885	7	Sololá	704	Santa Lucía Utatlán 	7	Santa Rita 	11	Noviembre	2023-08-11T00:00:00	2024-11-08T20:00:00	6	Velocidad del viento	8
127886	7	Sololá	704	Santa Lucía Utatlán 	7	Santa Rita 	11	Noviembre	2023-08-11T00:00:00	2024-11-08T20:00:00	7	Dirección del viento	8.05
127887	7	Sololá	704	Santa Lucía Utatlán 	7	Santa Rita 	11	Noviembre	2023-08-11T00:00:00	2024-11-08T20:00:00	1	Precipitación	0
127888	7	Sololá	704	Santa Lucía Utatlán 	7	Santa Rita 	11	Noviembre	2023-08-11T00:00:00	2024-11-08T20:00:00	8	Radiación solar	0
127889	7	Sololá	704	Santa Lucía Utatlán 	7	Santa Rita 	11	Noviembre	2023-08-11T00:00:00	2024-11-08T21:00:00	2	Temperatura media	22.3
127890	7	Sololá	704	Santa Lucía Utatlán 	7	Santa Rita 	11	Noviembre	2023-08-11T00:00:00	2024-11-08T21:00:00	4	Temperatura máxima	23.8
127891	7	Sololá	704	Santa Lucía Utatlán 	7	Santa Rita 	11	Noviembre	2023-08-11T00:00:00	2024-11-08T21:00:00	3	Temperatura mínima	22
127892	7	Sololá	704	Santa Lucía Utatlán 	7	Santa Rita 	11	Noviembre	2023-08-11T00:00:00	2024-11-08T21:00:00	5	Humedad	73
127893	7	Sololá	704	Santa Lucía Utatlán 	7	Santa Rita 	11	Noviembre	2023-08-11T00:00:00	2024-11-08T21:00:00	6	Velocidad del viento	12.9
127894	7	Sololá	704	Santa Lucía Utatlán 	7	Santa Rita 	11	Noviembre	2023-08-11T00:00:00	2024-11-08T21:00:00	7	Dirección del viento	12.87
127895	7	Sololá	704	Santa Lucía Utatlán 	7	Santa Rita 	11	Noviembre	2023-08-11T00:00:00	2024-11-08T21:00:00	1	Precipitación	0
127896	7	Sololá	704	Santa Lucía Utatlán 	7	Santa Rita 	11	Noviembre	2023-08-11T00:00:00	2024-11-08T21:00:00	8	Radiación solar	0
127897	7	Sololá	704	Santa Lucía Utatlán 	7	Santa Rita 	11	Noviembre	2023-08-11T00:00:00	2024-11-08T22:00:00	2	Temperatura media	23.9
127898	7	Sololá	704	Santa Lucía Utatlán 	7	Santa Rita 	11	Noviembre	2023-08-11T00:00:00	2024-11-08T22:00:00	4	Temperatura máxima	23.9
127899	7	Sololá	704	Santa Lucía Utatlán 	7	Santa Rita 	11	Noviembre	2023-08-11T00:00:00	2024-11-08T22:00:00	3	Temperatura mínima	22.3
127900	7	Sololá	704	Santa Lucía Utatlán 	7	Santa Rita 	11	Noviembre	2023-08-11T00:00:00	2024-11-08T22:00:00	5	Humedad	65
127901	7	Sololá	704	Santa Lucía Utatlán 	7	Santa Rita 	11	Noviembre	2023-08-11T00:00:00	2024-11-08T22:00:00	6	Velocidad del viento	11.3
127902	7	Sololá	704	Santa Lucía Utatlán 	7	Santa Rita 	11	Noviembre	2023-08-11T00:00:00	2024-11-08T22:00:00	7	Dirección del viento	11.27
127903	7	Sololá	704	Santa Lucía Utatlán 	7	Santa Rita 	11	Noviembre	2023-08-11T00:00:00	2024-11-08T22:00:00	1	Precipitación	0
127904	7	Sololá	704	Santa Lucía Utatlán 	7	Santa Rita 	11	Noviembre	2023-08-11T00:00:00	2024-11-08T22:00:00	8	Radiación solar	0
127905	7	Sololá	704	Santa Lucía Utatlán 	7	Santa Rita 	11	Noviembre	2023-08-11T00:00:00	2024-11-08T23:00:00	2	Temperatura media	24
127906	7	Sololá	704	Santa Lucía Utatlán 	7	Santa Rita 	11	Noviembre	2023-08-11T00:00:00	2024-11-08T23:00:00	4	Temperatura máxima	24.6
127907	7	Sololá	704	Santa Lucía Utatlán 	7	Santa Rita 	11	Noviembre	2023-08-11T00:00:00	2024-11-08T23:00:00	3	Temperatura mínima	23.5
127908	7	Sololá	704	Santa Lucía Utatlán 	7	Santa Rita 	11	Noviembre	2023-08-11T00:00:00	2024-11-08T23:00:00	5	Humedad	65
127909	7	Sololá	704	Santa Lucía Utatlán 	7	Santa Rita 	11	Noviembre	2023-08-11T00:00:00	2024-11-08T23:00:00	6	Velocidad del viento	11.3
127910	7	Sololá	704	Santa Lucía Utatlán 	7	Santa Rita 	11	Noviembre	2023-08-11T00:00:00	2024-11-08T23:00:00	7	Dirección del viento	11.27
127911	7	Sololá	704	Santa Lucía Utatlán 	7	Santa Rita 	11	Noviembre	2023-08-11T00:00:00	2024-11-08T23:00:00	1	Precipitación	0
127912	7	Sololá	704	Santa Lucía Utatlán 	7	Santa Rita 	11	Noviembre	2023-08-11T00:00:00	2024-11-08T23:00:00	8	Radiación solar	0
127913	7	Sololá	704	Santa Lucía Utatlán 	7	Santa Rita 	11	Noviembre	2023-09-11T00:00:00	2024-11-08T00:00:00	2	Temperatura media	24.4
127914	7	Sololá	704	Santa Lucía Utatlán 	7	Santa Rita 	11	Noviembre	2023-09-11T00:00:00	2024-11-08T00:00:00	4	Temperatura máxima	24.6
127915	7	Sololá	704	Santa Lucía Utatlán 	7	Santa Rita 	11	Noviembre	2023-09-11T00:00:00	2024-11-08T00:00:00	3	Temperatura mínima	23.9
127916	7	Sololá	704	Santa Lucía Utatlán 	7	Santa Rita 	11	Noviembre	2023-09-11T00:00:00	2024-11-08T00:00:00	5	Humedad	64
127917	7	Sololá	704	Santa Lucía Utatlán 	7	Santa Rita 	11	Noviembre	2023-09-11T00:00:00	2024-11-08T00:00:00	6	Velocidad del viento	11.3
127918	7	Sololá	704	Santa Lucía Utatlán 	7	Santa Rita 	11	Noviembre	2023-09-11T00:00:00	2024-11-08T00:00:00	7	Dirección del viento	11.27
127919	7	Sololá	704	Santa Lucía Utatlán 	7	Santa Rita 	11	Noviembre	2023-09-11T00:00:00	2024-11-08T00:00:00	1	Precipitación	0
127920	7	Sololá	704	Santa Lucía Utatlán 	7	Santa Rita 	11	Noviembre	2023-09-11T00:00:00	2024-11-08T00:00:00	8	Radiación solar	0
127921	7	Sololá	704	Santa Lucía Utatlán 	7	Santa Rita 	11	Noviembre	2023-09-11T00:00:00	2024-11-08T01:00:00	2	Temperatura media	24.1
127922	7	Sololá	704	Santa Lucía Utatlán 	7	Santa Rita 	11	Noviembre	2023-09-11T00:00:00	2024-11-08T01:00:00	4	Temperatura máxima	24.9
127923	7	Sololá	704	Santa Lucía Utatlán 	7	Santa Rita 	11	Noviembre	2023-09-11T00:00:00	2024-11-08T01:00:00	3	Temperatura mínima	23.9
127924	7	Sololá	704	Santa Lucía Utatlán 	7	Santa Rita 	11	Noviembre	2023-09-11T00:00:00	2024-11-08T01:00:00	5	Humedad	63
127925	7	Sololá	704	Santa Lucía Utatlán 	7	Santa Rita 	11	Noviembre	2023-09-11T00:00:00	2024-11-08T01:00:00	6	Velocidad del viento	11.3
127926	7	Sololá	704	Santa Lucía Utatlán 	7	Santa Rita 	11	Noviembre	2023-09-11T00:00:00	2024-11-08T01:00:00	7	Dirección del viento	11.27
127927	7	Sololá	704	Santa Lucía Utatlán 	7	Santa Rita 	11	Noviembre	2023-09-11T00:00:00	2024-11-08T01:00:00	1	Precipitación	0
127928	7	Sololá	704	Santa Lucía Utatlán 	7	Santa Rita 	11	Noviembre	2023-09-11T00:00:00	2024-11-08T01:00:00	8	Radiación solar	0
127929	7	Sololá	704	Santa Lucía Utatlán 	7	Santa Rita 	11	Noviembre	2023-09-11T00:00:00	2024-11-08T02:00:00	2	Temperatura media	24.5
127930	7	Sololá	704	Santa Lucía Utatlán 	7	Santa Rita 	11	Noviembre	2023-09-11T00:00:00	2024-11-08T02:00:00	4	Temperatura máxima	24.6
127931	7	Sololá	704	Santa Lucía Utatlán 	7	Santa Rita 	11	Noviembre	2023-09-11T00:00:00	2024-11-08T02:00:00	3	Temperatura mínima	23.8
127932	7	Sololá	704	Santa Lucía Utatlán 	7	Santa Rita 	11	Noviembre	2023-09-11T00:00:00	2024-11-08T02:00:00	5	Humedad	64
127933	7	Sololá	704	Santa Lucía Utatlán 	7	Santa Rita 	11	Noviembre	2023-09-11T00:00:00	2024-11-08T02:00:00	6	Velocidad del viento	9.7
127934	7	Sololá	704	Santa Lucía Utatlán 	7	Santa Rita 	11	Noviembre	2023-09-11T00:00:00	2024-11-08T02:00:00	7	Dirección del viento	9.66
127935	7	Sololá	704	Santa Lucía Utatlán 	7	Santa Rita 	11	Noviembre	2023-09-11T00:00:00	2024-11-08T02:00:00	1	Precipitación	0
127936	7	Sololá	704	Santa Lucía Utatlán 	7	Santa Rita 	11	Noviembre	2023-09-11T00:00:00	2024-11-08T02:00:00	8	Radiación solar	0
127937	7	Sololá	704	Santa Lucía Utatlán 	7	Santa Rita 	11	Noviembre	2023-09-11T00:00:00	2024-11-08T03:00:00	2	Temperatura media	23
127938	7	Sololá	704	Santa Lucía Utatlán 	7	Santa Rita 	11	Noviembre	2023-09-11T00:00:00	2024-11-08T03:00:00	4	Temperatura máxima	25.1
127939	7	Sololá	704	Santa Lucía Utatlán 	7	Santa Rita 	11	Noviembre	2023-09-11T00:00:00	2024-11-08T03:00:00	3	Temperatura mínima	23
127940	7	Sololá	704	Santa Lucía Utatlán 	7	Santa Rita 	11	Noviembre	2023-09-11T00:00:00	2024-11-08T03:00:00	5	Humedad	73
127941	7	Sololá	704	Santa Lucía Utatlán 	7	Santa Rita 	11	Noviembre	2023-09-11T00:00:00	2024-11-08T03:00:00	6	Velocidad del viento	9.7
127942	7	Sololá	704	Santa Lucía Utatlán 	7	Santa Rita 	11	Noviembre	2023-09-11T00:00:00	2024-11-08T03:00:00	7	Dirección del viento	9.66
127943	7	Sololá	704	Santa Lucía Utatlán 	7	Santa Rita 	11	Noviembre	2023-09-11T00:00:00	2024-11-08T03:00:00	1	Precipitación	0
127944	7	Sololá	704	Santa Lucía Utatlán 	7	Santa Rita 	11	Noviembre	2023-09-11T00:00:00	2024-11-08T03:00:00	8	Radiación solar	0
127945	7	Sololá	704	Santa Lucía Utatlán 	7	Santa Rita 	11	Noviembre	2023-09-11T00:00:00	2024-11-08T04:00:00	2	Temperatura media	22.3
127946	7	Sololá	704	Santa Lucía Utatlán 	7	Santa Rita 	11	Noviembre	2023-09-11T00:00:00	2024-11-08T04:00:00	4	Temperatura máxima	22.9
127947	7	Sololá	704	Santa Lucía Utatlán 	7	Santa Rita 	11	Noviembre	2023-09-11T00:00:00	2024-11-08T04:00:00	3	Temperatura mínima	22.1
127948	7	Sololá	704	Santa Lucía Utatlán 	7	Santa Rita 	11	Noviembre	2023-09-11T00:00:00	2024-11-08T04:00:00	5	Humedad	70
127949	7	Sololá	704	Santa Lucía Utatlán 	7	Santa Rita 	11	Noviembre	2023-09-11T00:00:00	2024-11-08T04:00:00	6	Velocidad del viento	8
127950	7	Sololá	704	Santa Lucía Utatlán 	7	Santa Rita 	11	Noviembre	2023-09-11T00:00:00	2024-11-08T04:00:00	7	Dirección del viento	8.05
127951	7	Sololá	704	Santa Lucía Utatlán 	7	Santa Rita 	11	Noviembre	2023-09-11T00:00:00	2024-11-08T04:00:00	1	Precipitación	0
127952	7	Sololá	704	Santa Lucía Utatlán 	7	Santa Rita 	11	Noviembre	2023-09-11T00:00:00	2024-11-08T04:00:00	8	Radiación solar	0
127953	7	Sololá	704	Santa Lucía Utatlán 	7	Santa Rita 	11	Noviembre	2023-09-11T00:00:00	2024-11-08T05:00:00	2	Temperatura media	21.7
127954	7	Sololá	704	Santa Lucía Utatlán 	7	Santa Rita 	11	Noviembre	2023-09-11T00:00:00	2024-11-08T05:00:00	4	Temperatura máxima	22.3
127955	7	Sololá	704	Santa Lucía Utatlán 	7	Santa Rita 	11	Noviembre	2023-09-11T00:00:00	2024-11-08T05:00:00	3	Temperatura mínima	21.6
127956	7	Sololá	704	Santa Lucía Utatlán 	7	Santa Rita 	11	Noviembre	2023-09-11T00:00:00	2024-11-08T05:00:00	5	Humedad	77
127957	7	Sololá	704	Santa Lucía Utatlán 	7	Santa Rita 	11	Noviembre	2023-09-11T00:00:00	2024-11-08T05:00:00	6	Velocidad del viento	6.4
127958	7	Sololá	704	Santa Lucía Utatlán 	7	Santa Rita 	11	Noviembre	2023-09-11T00:00:00	2024-11-08T05:00:00	7	Dirección del viento	6.44
127959	7	Sololá	704	Santa Lucía Utatlán 	7	Santa Rita 	11	Noviembre	2023-09-11T00:00:00	2024-11-08T05:00:00	1	Precipitación	0
127960	7	Sololá	704	Santa Lucía Utatlán 	7	Santa Rita 	11	Noviembre	2023-09-11T00:00:00	2024-11-08T05:00:00	8	Radiación solar	0
127961	7	Sololá	704	Santa Lucía Utatlán 	7	Santa Rita 	11	Noviembre	2023-09-11T00:00:00	2024-11-08T06:00:00	2	Temperatura media	21.2
127962	7	Sololá	704	Santa Lucía Utatlán 	7	Santa Rita 	11	Noviembre	2023-09-11T00:00:00	2024-11-08T06:00:00	4	Temperatura máxima	21.8
127963	7	Sololá	704	Santa Lucía Utatlán 	7	Santa Rita 	11	Noviembre	2023-09-11T00:00:00	2024-11-08T06:00:00	3	Temperatura mínima	21.1
127964	7	Sololá	704	Santa Lucía Utatlán 	7	Santa Rita 	11	Noviembre	2023-09-11T00:00:00	2024-11-08T06:00:00	5	Humedad	75
127965	7	Sololá	704	Santa Lucía Utatlán 	7	Santa Rita 	11	Noviembre	2023-09-11T00:00:00	2024-11-08T06:00:00	6	Velocidad del viento	4.8
127966	7	Sololá	704	Santa Lucía Utatlán 	7	Santa Rita 	11	Noviembre	2023-09-11T00:00:00	2024-11-08T06:00:00	7	Dirección del viento	4.83
127967	7	Sololá	704	Santa Lucía Utatlán 	7	Santa Rita 	11	Noviembre	2023-09-11T00:00:00	2024-11-08T06:00:00	1	Precipitación	0
127968	7	Sololá	704	Santa Lucía Utatlán 	7	Santa Rita 	11	Noviembre	2023-09-11T00:00:00	2024-11-08T06:00:00	8	Radiación solar	26
127969	7	Sololá	704	Santa Lucía Utatlán 	7	Santa Rita 	11	Noviembre	2023-09-11T00:00:00	2024-11-08T07:00:00	2	Temperatura media	20.8
127970	7	Sololá	704	Santa Lucía Utatlán 	7	Santa Rita 	11	Noviembre	2023-09-11T00:00:00	2024-11-08T07:00:00	4	Temperatura máxima	21.2
127971	7	Sololá	704	Santa Lucía Utatlán 	7	Santa Rita 	11	Noviembre	2023-09-11T00:00:00	2024-11-08T07:00:00	3	Temperatura mínima	20.7
127972	7	Sololá	704	Santa Lucía Utatlán 	7	Santa Rita 	11	Noviembre	2023-09-11T00:00:00	2024-11-08T07:00:00	5	Humedad	74
127973	7	Sololá	704	Santa Lucía Utatlán 	7	Santa Rita 	11	Noviembre	2023-09-11T00:00:00	2024-11-08T07:00:00	6	Velocidad del viento	6.4
127974	7	Sololá	704	Santa Lucía Utatlán 	7	Santa Rita 	11	Noviembre	2023-09-11T00:00:00	2024-11-08T07:00:00	7	Dirección del viento	6.44
127975	7	Sololá	704	Santa Lucía Utatlán 	7	Santa Rita 	11	Noviembre	2023-09-11T00:00:00	2024-11-08T07:00:00	1	Precipitación	0
127976	7	Sololá	704	Santa Lucía Utatlán 	7	Santa Rita 	11	Noviembre	2023-09-11T00:00:00	2024-11-08T07:00:00	8	Radiación solar	211
127977	7	Sololá	704	Santa Lucía Utatlán 	7	Santa Rita 	11	Noviembre	2023-09-11T00:00:00	2024-11-08T08:00:00	2	Temperatura media	20.4
127978	7	Sololá	704	Santa Lucía Utatlán 	7	Santa Rita 	11	Noviembre	2023-09-11T00:00:00	2024-11-08T08:00:00	4	Temperatura máxima	20.8
127979	7	Sololá	704	Santa Lucía Utatlán 	7	Santa Rita 	11	Noviembre	2023-09-11T00:00:00	2024-11-08T08:00:00	3	Temperatura mínima	19.9
127980	7	Sololá	704	Santa Lucía Utatlán 	7	Santa Rita 	11	Noviembre	2023-09-11T00:00:00	2024-11-08T08:00:00	5	Humedad	77
127981	7	Sololá	704	Santa Lucía Utatlán 	7	Santa Rita 	11	Noviembre	2023-09-11T00:00:00	2024-11-08T08:00:00	6	Velocidad del viento	4.8
127982	7	Sololá	704	Santa Lucía Utatlán 	7	Santa Rita 	11	Noviembre	2023-09-11T00:00:00	2024-11-08T08:00:00	7	Dirección del viento	4.83
127983	7	Sololá	704	Santa Lucía Utatlán 	7	Santa Rita 	11	Noviembre	2023-09-11T00:00:00	2024-11-08T08:00:00	1	Precipitación	0
127984	7	Sololá	704	Santa Lucía Utatlán 	7	Santa Rita 	11	Noviembre	2023-09-11T00:00:00	2024-11-08T08:00:00	8	Radiación solar	451
127985	7	Sololá	704	Santa Lucía Utatlán 	7	Santa Rita 	11	Noviembre	2023-09-11T00:00:00	2024-11-08T09:00:00	2	Temperatura media	20
127986	7	Sololá	704	Santa Lucía Utatlán 	7	Santa Rita 	11	Noviembre	2023-09-11T00:00:00	2024-11-08T09:00:00	4	Temperatura máxima	20.4
127987	7	Sololá	704	Santa Lucía Utatlán 	7	Santa Rita 	11	Noviembre	2023-09-11T00:00:00	2024-11-08T09:00:00	3	Temperatura mínima	19.9
127988	7	Sololá	704	Santa Lucía Utatlán 	7	Santa Rita 	11	Noviembre	2023-09-11T00:00:00	2024-11-08T09:00:00	5	Humedad	82
127989	7	Sololá	704	Santa Lucía Utatlán 	7	Santa Rita 	11	Noviembre	2023-09-11T00:00:00	2024-11-08T09:00:00	6	Velocidad del viento	8
127990	7	Sololá	704	Santa Lucía Utatlán 	7	Santa Rita 	11	Noviembre	2023-09-11T00:00:00	2024-11-08T09:00:00	7	Dirección del viento	8.05
127991	7	Sololá	704	Santa Lucía Utatlán 	7	Santa Rita 	11	Noviembre	2023-09-11T00:00:00	2024-11-08T09:00:00	1	Precipitación	0
127992	7	Sololá	704	Santa Lucía Utatlán 	7	Santa Rita 	11	Noviembre	2023-09-11T00:00:00	2024-11-08T09:00:00	8	Radiación solar	427
127993	7	Sololá	704	Santa Lucía Utatlán 	7	Santa Rita 	11	Noviembre	2023-09-11T00:00:00	2024-11-08T10:00:00	2	Temperatura media	19.9
127994	7	Sololá	704	Santa Lucía Utatlán 	7	Santa Rita 	11	Noviembre	2023-09-11T00:00:00	2024-11-08T10:00:00	4	Temperatura máxima	20.2
127995	7	Sololá	704	Santa Lucía Utatlán 	7	Santa Rita 	11	Noviembre	2023-09-11T00:00:00	2024-11-08T10:00:00	3	Temperatura mínima	19.8
127996	7	Sololá	704	Santa Lucía Utatlán 	7	Santa Rita 	11	Noviembre	2023-09-11T00:00:00	2024-11-08T10:00:00	5	Humedad	80
127997	7	Sololá	704	Santa Lucía Utatlán 	7	Santa Rita 	11	Noviembre	2023-09-11T00:00:00	2024-11-08T10:00:00	6	Velocidad del viento	9.7
127998	7	Sololá	704	Santa Lucía Utatlán 	7	Santa Rita 	11	Noviembre	2023-09-11T00:00:00	2024-11-08T10:00:00	7	Dirección del viento	9.66
127999	7	Sololá	704	Santa Lucía Utatlán 	7	Santa Rita 	11	Noviembre	2023-09-11T00:00:00	2024-11-08T10:00:00	1	Precipitación	0
128000	7	Sololá	704	Santa Lucía Utatlán 	7	Santa Rita 	11	Noviembre	2023-09-11T00:00:00	2024-11-08T10:00:00	8	Radiación solar	713
128001	7	Sololá	704	Santa Lucía Utatlán 	7	Santa Rita 	11	Noviembre	2023-09-11T00:00:00	2024-11-08T11:00:00	2	Temperatura media	20.1
128002	7	Sololá	704	Santa Lucía Utatlán 	7	Santa Rita 	11	Noviembre	2023-09-11T00:00:00	2024-11-08T11:00:00	4	Temperatura máxima	20.3
128003	7	Sololá	704	Santa Lucía Utatlán 	7	Santa Rita 	11	Noviembre	2023-09-11T00:00:00	2024-11-08T11:00:00	3	Temperatura mínima	19.9
128004	7	Sololá	704	Santa Lucía Utatlán 	7	Santa Rita 	11	Noviembre	2023-09-11T00:00:00	2024-11-08T11:00:00	5	Humedad	80
128005	7	Sololá	704	Santa Lucía Utatlán 	7	Santa Rita 	11	Noviembre	2023-09-11T00:00:00	2024-11-08T11:00:00	6	Velocidad del viento	8
128006	7	Sololá	704	Santa Lucía Utatlán 	7	Santa Rita 	11	Noviembre	2023-09-11T00:00:00	2024-11-08T11:00:00	7	Dirección del viento	8.05
128007	7	Sololá	704	Santa Lucía Utatlán 	7	Santa Rita 	11	Noviembre	2023-09-11T00:00:00	2024-11-08T11:00:00	1	Precipitación	0
128008	7	Sololá	704	Santa Lucía Utatlán 	7	Santa Rita 	11	Noviembre	2023-09-11T00:00:00	2024-11-08T11:00:00	8	Radiación solar	810
128009	7	Sololá	704	Santa Lucía Utatlán 	7	Santa Rita 	11	Noviembre	2023-09-11T00:00:00	2024-11-08T12:00:00	2	Temperatura media	19.8
128010	7	Sololá	704	Santa Lucía Utatlán 	7	Santa Rita 	11	Noviembre	2023-09-11T00:00:00	2024-11-08T12:00:00	4	Temperatura máxima	20.2
128011	7	Sololá	704	Santa Lucía Utatlán 	7	Santa Rita 	11	Noviembre	2023-09-11T00:00:00	2024-11-08T12:00:00	3	Temperatura mínima	19.8
128012	7	Sololá	704	Santa Lucía Utatlán 	7	Santa Rita 	11	Noviembre	2023-09-11T00:00:00	2024-11-08T12:00:00	5	Humedad	80
128013	7	Sololá	704	Santa Lucía Utatlán 	7	Santa Rita 	11	Noviembre	2023-09-11T00:00:00	2024-11-08T12:00:00	6	Velocidad del viento	11.3
128014	7	Sololá	704	Santa Lucía Utatlán 	7	Santa Rita 	11	Noviembre	2023-09-11T00:00:00	2024-11-08T12:00:00	7	Dirección del viento	11.27
128015	7	Sololá	704	Santa Lucía Utatlán 	7	Santa Rita 	11	Noviembre	2023-09-11T00:00:00	2024-11-08T12:00:00	1	Precipitación	0
128016	7	Sololá	704	Santa Lucía Utatlán 	7	Santa Rita 	11	Noviembre	2023-09-11T00:00:00	2024-11-08T12:00:00	8	Radiación solar	694
128017	7	Sololá	704	Santa Lucía Utatlán 	7	Santa Rita 	11	Noviembre	2023-09-11T00:00:00	2024-11-08T13:00:00	2	Temperatura media	19.4
128018	7	Sololá	704	Santa Lucía Utatlán 	7	Santa Rita 	11	Noviembre	2023-09-11T00:00:00	2024-11-08T13:00:00	4	Temperatura máxima	19.9
128019	7	Sololá	704	Santa Lucía Utatlán 	7	Santa Rita 	11	Noviembre	2023-09-11T00:00:00	2024-11-08T13:00:00	3	Temperatura mínima	19.4
128020	7	Sololá	704	Santa Lucía Utatlán 	7	Santa Rita 	11	Noviembre	2023-09-11T00:00:00	2024-11-08T13:00:00	5	Humedad	80
128021	7	Sololá	704	Santa Lucía Utatlán 	7	Santa Rita 	11	Noviembre	2023-09-11T00:00:00	2024-11-08T13:00:00	6	Velocidad del viento	9.7
128022	7	Sololá	704	Santa Lucía Utatlán 	7	Santa Rita 	11	Noviembre	2023-09-11T00:00:00	2024-11-08T13:00:00	7	Dirección del viento	9.66
128023	7	Sololá	704	Santa Lucía Utatlán 	7	Santa Rita 	11	Noviembre	2023-09-11T00:00:00	2024-11-08T13:00:00	1	Precipitación	0
128024	7	Sololá	704	Santa Lucía Utatlán 	7	Santa Rita 	11	Noviembre	2023-09-11T00:00:00	2024-11-08T13:00:00	8	Radiación solar	804
128025	7	Sololá	704	Santa Lucía Utatlán 	7	Santa Rita 	11	Noviembre	2023-09-11T00:00:00	2024-11-08T14:00:00	2	Temperatura media	19.6
128026	7	Sololá	704	Santa Lucía Utatlán 	7	Santa Rita 	11	Noviembre	2023-09-11T00:00:00	2024-11-08T14:00:00	4	Temperatura máxima	19.8
128027	7	Sololá	704	Santa Lucía Utatlán 	7	Santa Rita 	11	Noviembre	2023-09-11T00:00:00	2024-11-08T14:00:00	3	Temperatura mínima	19.4
128028	7	Sololá	704	Santa Lucía Utatlán 	7	Santa Rita 	11	Noviembre	2023-09-11T00:00:00	2024-11-08T14:00:00	5	Humedad	74
128029	7	Sololá	704	Santa Lucía Utatlán 	7	Santa Rita 	11	Noviembre	2023-09-11T00:00:00	2024-11-08T14:00:00	6	Velocidad del viento	9.7
128030	7	Sololá	704	Santa Lucía Utatlán 	7	Santa Rita 	11	Noviembre	2023-09-11T00:00:00	2024-11-08T14:00:00	7	Dirección del viento	9.66
128031	7	Sololá	704	Santa Lucía Utatlán 	7	Santa Rita 	11	Noviembre	2023-09-11T00:00:00	2024-11-08T14:00:00	1	Precipitación	0
128032	7	Sololá	704	Santa Lucía Utatlán 	7	Santa Rita 	11	Noviembre	2023-09-11T00:00:00	2024-11-08T14:00:00	8	Radiación solar	593
128033	7	Sololá	704	Santa Lucía Utatlán 	7	Santa Rita 	11	Noviembre	2023-09-11T00:00:00	2024-11-08T15:00:00	2	Temperatura media	19.9
128034	7	Sololá	704	Santa Lucía Utatlán 	7	Santa Rita 	11	Noviembre	2023-09-11T00:00:00	2024-11-08T15:00:00	4	Temperatura máxima	19.9
128035	7	Sololá	704	Santa Lucía Utatlán 	7	Santa Rita 	11	Noviembre	2023-09-11T00:00:00	2024-11-08T15:00:00	3	Temperatura mínima	18.6
128036	7	Sololá	704	Santa Lucía Utatlán 	7	Santa Rita 	11	Noviembre	2023-09-11T00:00:00	2024-11-08T15:00:00	5	Humedad	69
128037	7	Sololá	704	Santa Lucía Utatlán 	7	Santa Rita 	11	Noviembre	2023-09-11T00:00:00	2024-11-08T15:00:00	6	Velocidad del viento	8
128038	7	Sololá	704	Santa Lucía Utatlán 	7	Santa Rita 	11	Noviembre	2023-09-11T00:00:00	2024-11-08T15:00:00	7	Dirección del viento	8.05
128039	7	Sololá	704	Santa Lucía Utatlán 	7	Santa Rita 	11	Noviembre	2023-09-11T00:00:00	2024-11-08T15:00:00	1	Precipitación	0
128040	7	Sololá	704	Santa Lucía Utatlán 	7	Santa Rita 	11	Noviembre	2023-09-11T00:00:00	2024-11-08T15:00:00	8	Radiación solar	276
128041	7	Sololá	704	Santa Lucía Utatlán 	7	Santa Rita 	11	Noviembre	2023-09-11T00:00:00	2024-11-08T16:00:00	2	Temperatura media	19.7
128042	7	Sololá	704	Santa Lucía Utatlán 	7	Santa Rita 	11	Noviembre	2023-09-11T00:00:00	2024-11-08T16:00:00	4	Temperatura máxima	20.1
128043	7	Sololá	704	Santa Lucía Utatlán 	7	Santa Rita 	11	Noviembre	2023-09-11T00:00:00	2024-11-08T16:00:00	3	Temperatura mínima	19.7
128044	7	Sololá	704	Santa Lucía Utatlán 	7	Santa Rita 	11	Noviembre	2023-09-11T00:00:00	2024-11-08T16:00:00	5	Humedad	79
128045	7	Sololá	704	Santa Lucía Utatlán 	7	Santa Rita 	11	Noviembre	2023-09-11T00:00:00	2024-11-08T16:00:00	6	Velocidad del viento	8
128046	7	Sololá	704	Santa Lucía Utatlán 	7	Santa Rita 	11	Noviembre	2023-09-11T00:00:00	2024-11-08T16:00:00	7	Dirección del viento	8.05
128047	7	Sololá	704	Santa Lucía Utatlán 	7	Santa Rita 	11	Noviembre	2023-09-11T00:00:00	2024-11-08T16:00:00	1	Precipitación	0
128048	7	Sololá	704	Santa Lucía Utatlán 	7	Santa Rita 	11	Noviembre	2023-09-11T00:00:00	2024-11-08T16:00:00	8	Radiación solar	97
128049	7	Sololá	704	Santa Lucía Utatlán 	7	Santa Rita 	11	Noviembre	2023-09-11T00:00:00	2024-11-08T17:00:00	2	Temperatura media	19.8
128050	7	Sololá	704	Santa Lucía Utatlán 	7	Santa Rita 	11	Noviembre	2023-09-11T00:00:00	2024-11-08T17:00:00	4	Temperatura máxima	19.8
128051	7	Sololá	704	Santa Lucía Utatlán 	7	Santa Rita 	11	Noviembre	2023-09-11T00:00:00	2024-11-08T17:00:00	3	Temperatura mínima	18.6
128052	7	Sololá	704	Santa Lucía Utatlán 	7	Santa Rita 	11	Noviembre	2023-09-11T00:00:00	2024-11-08T17:00:00	5	Humedad	81
128053	7	Sololá	704	Santa Lucía Utatlán 	7	Santa Rita 	11	Noviembre	2023-09-11T00:00:00	2024-11-08T17:00:00	6	Velocidad del viento	4.8
128054	7	Sololá	704	Santa Lucía Utatlán 	7	Santa Rita 	11	Noviembre	2023-09-11T00:00:00	2024-11-08T17:00:00	7	Dirección del viento	4.83
128055	7	Sololá	704	Santa Lucía Utatlán 	7	Santa Rita 	11	Noviembre	2023-09-11T00:00:00	2024-11-08T17:00:00	1	Precipitación	0
128056	7	Sololá	704	Santa Lucía Utatlán 	7	Santa Rita 	11	Noviembre	2023-09-11T00:00:00	2024-11-08T17:00:00	8	Radiación solar	21
128057	7	Sololá	704	Santa Lucía Utatlán 	7	Santa Rita 	11	Noviembre	2023-09-11T00:00:00	2024-11-08T18:00:00	2	Temperatura media	21.3
128058	7	Sololá	704	Santa Lucía Utatlán 	7	Santa Rita 	11	Noviembre	2023-09-11T00:00:00	2024-11-08T18:00:00	4	Temperatura máxima	21.3
128059	7	Sololá	704	Santa Lucía Utatlán 	7	Santa Rita 	11	Noviembre	2023-09-11T00:00:00	2024-11-08T18:00:00	3	Temperatura mínima	19.7
128060	7	Sololá	704	Santa Lucía Utatlán 	7	Santa Rita 	11	Noviembre	2023-09-11T00:00:00	2024-11-08T18:00:00	5	Humedad	76
128061	7	Sololá	704	Santa Lucía Utatlán 	7	Santa Rita 	11	Noviembre	2023-09-11T00:00:00	2024-11-08T18:00:00	6	Velocidad del viento	11.3
128062	7	Sololá	704	Santa Lucía Utatlán 	7	Santa Rita 	11	Noviembre	2023-09-11T00:00:00	2024-11-08T18:00:00	7	Dirección del viento	11.27
128063	7	Sololá	704	Santa Lucía Utatlán 	7	Santa Rita 	11	Noviembre	2023-09-11T00:00:00	2024-11-08T18:00:00	1	Precipitación	0
128064	7	Sololá	704	Santa Lucía Utatlán 	7	Santa Rita 	11	Noviembre	2023-09-11T00:00:00	2024-11-08T18:00:00	8	Radiación solar	0
128065	7	Sololá	704	Santa Lucía Utatlán 	7	Santa Rita 	11	Noviembre	2023-09-11T00:00:00	2024-11-08T19:00:00	2	Temperatura media	22.3
128066	7	Sololá	704	Santa Lucía Utatlán 	7	Santa Rita 	11	Noviembre	2023-09-11T00:00:00	2024-11-08T19:00:00	4	Temperatura máxima	22.3
128067	7	Sololá	704	Santa Lucía Utatlán 	7	Santa Rita 	11	Noviembre	2023-09-11T00:00:00	2024-11-08T19:00:00	3	Temperatura mínima	21.3
128068	7	Sololá	704	Santa Lucía Utatlán 	7	Santa Rita 	11	Noviembre	2023-09-11T00:00:00	2024-11-08T19:00:00	5	Humedad	74
128069	7	Sololá	704	Santa Lucía Utatlán 	7	Santa Rita 	11	Noviembre	2023-09-11T00:00:00	2024-11-08T19:00:00	6	Velocidad del viento	12.9
128070	7	Sololá	704	Santa Lucía Utatlán 	7	Santa Rita 	11	Noviembre	2023-09-11T00:00:00	2024-11-08T19:00:00	7	Dirección del viento	12.87
128071	7	Sololá	704	Santa Lucía Utatlán 	7	Santa Rita 	11	Noviembre	2023-09-11T00:00:00	2024-11-08T19:00:00	1	Precipitación	0
128072	7	Sololá	704	Santa Lucía Utatlán 	7	Santa Rita 	11	Noviembre	2023-09-11T00:00:00	2024-11-08T19:00:00	8	Radiación solar	0
128073	7	Sololá	704	Santa Lucía Utatlán 	7	Santa Rita 	11	Noviembre	2023-09-11T00:00:00	2024-11-08T20:00:00	2	Temperatura media	24.3
128074	7	Sololá	704	Santa Lucía Utatlán 	7	Santa Rita 	11	Noviembre	2023-09-11T00:00:00	2024-11-08T20:00:00	4	Temperatura máxima	24.4
128075	7	Sololá	704	Santa Lucía Utatlán 	7	Santa Rita 	11	Noviembre	2023-09-11T00:00:00	2024-11-08T20:00:00	3	Temperatura mínima	22.3
128076	7	Sololá	704	Santa Lucía Utatlán 	7	Santa Rita 	11	Noviembre	2023-09-11T00:00:00	2024-11-08T20:00:00	5	Humedad	64
128077	7	Sololá	704	Santa Lucía Utatlán 	7	Santa Rita 	11	Noviembre	2023-09-11T00:00:00	2024-11-08T20:00:00	6	Velocidad del viento	6.4
128078	7	Sololá	704	Santa Lucía Utatlán 	7	Santa Rita 	11	Noviembre	2023-09-11T00:00:00	2024-11-08T20:00:00	7	Dirección del viento	6.44
128079	7	Sololá	704	Santa Lucía Utatlán 	7	Santa Rita 	11	Noviembre	2023-09-11T00:00:00	2024-11-08T20:00:00	1	Precipitación	0
128080	7	Sololá	704	Santa Lucía Utatlán 	7	Santa Rita 	11	Noviembre	2023-09-11T00:00:00	2024-11-08T20:00:00	8	Radiación solar	0
128081	7	Sololá	704	Santa Lucía Utatlán 	7	Santa Rita 	11	Noviembre	2023-09-11T00:00:00	2024-11-08T21:00:00	2	Temperatura media	24.6
128082	7	Sololá	704	Santa Lucía Utatlán 	7	Santa Rita 	11	Noviembre	2023-09-11T00:00:00	2024-11-08T21:00:00	4	Temperatura máxima	25
128083	7	Sololá	704	Santa Lucía Utatlán 	7	Santa Rita 	11	Noviembre	2023-09-11T00:00:00	2024-11-08T21:00:00	3	Temperatura mínima	23.7
128084	7	Sololá	704	Santa Lucía Utatlán 	7	Santa Rita 	11	Noviembre	2023-09-11T00:00:00	2024-11-08T21:00:00	5	Humedad	65
128085	7	Sololá	704	Santa Lucía Utatlán 	7	Santa Rita 	11	Noviembre	2023-09-11T00:00:00	2024-11-08T21:00:00	6	Velocidad del viento	6.4
128086	7	Sololá	704	Santa Lucía Utatlán 	7	Santa Rita 	11	Noviembre	2023-09-11T00:00:00	2024-11-08T21:00:00	7	Dirección del viento	6.44
128087	7	Sololá	704	Santa Lucía Utatlán 	7	Santa Rita 	11	Noviembre	2023-09-11T00:00:00	2024-11-08T21:00:00	1	Precipitación	0
128088	7	Sololá	704	Santa Lucía Utatlán 	7	Santa Rita 	11	Noviembre	2023-09-11T00:00:00	2024-11-08T21:00:00	8	Radiación solar	0
128089	7	Sololá	704	Santa Lucía Utatlán 	7	Santa Rita 	11	Noviembre	2023-09-11T00:00:00	2024-11-08T22:00:00	2	Temperatura media	24.6
128090	7	Sololá	704	Santa Lucía Utatlán 	7	Santa Rita 	11	Noviembre	2023-09-11T00:00:00	2024-11-08T22:00:00	4	Temperatura máxima	25.1
128091	7	Sololá	704	Santa Lucía Utatlán 	7	Santa Rita 	11	Noviembre	2023-09-11T00:00:00	2024-11-08T22:00:00	3	Temperatura mínima	24
128092	7	Sololá	704	Santa Lucía Utatlán 	7	Santa Rita 	11	Noviembre	2023-09-11T00:00:00	2024-11-08T22:00:00	5	Humedad	69
128093	7	Sololá	704	Santa Lucía Utatlán 	7	Santa Rita 	11	Noviembre	2023-09-11T00:00:00	2024-11-08T22:00:00	6	Velocidad del viento	9.7
128094	7	Sololá	704	Santa Lucía Utatlán 	7	Santa Rita 	11	Noviembre	2023-09-11T00:00:00	2024-11-08T22:00:00	7	Dirección del viento	9.66
128095	7	Sololá	704	Santa Lucía Utatlán 	7	Santa Rita 	11	Noviembre	2023-09-11T00:00:00	2024-11-08T22:00:00	1	Precipitación	0
128096	7	Sololá	704	Santa Lucía Utatlán 	7	Santa Rita 	11	Noviembre	2023-09-11T00:00:00	2024-11-08T22:00:00	8	Radiación solar	0
128097	7	Sololá	704	Santa Lucía Utatlán 	7	Santa Rita 	11	Noviembre	2023-09-11T00:00:00	2024-11-08T23:00:00	2	Temperatura media	25.4
128098	7	Sololá	704	Santa Lucía Utatlán 	7	Santa Rita 	11	Noviembre	2023-09-11T00:00:00	2024-11-08T23:00:00	4	Temperatura máxima	26.3
128099	7	Sololá	704	Santa Lucía Utatlán 	7	Santa Rita 	11	Noviembre	2023-09-11T00:00:00	2024-11-08T23:00:00	3	Temperatura mínima	24.5
128100	7	Sololá	704	Santa Lucía Utatlán 	7	Santa Rita 	11	Noviembre	2023-09-11T00:00:00	2024-11-08T23:00:00	5	Humedad	64
128101	7	Sololá	704	Santa Lucía Utatlán 	7	Santa Rita 	11	Noviembre	2023-09-11T00:00:00	2024-11-08T23:00:00	6	Velocidad del viento	8
128102	7	Sololá	704	Santa Lucía Utatlán 	7	Santa Rita 	11	Noviembre	2023-09-11T00:00:00	2024-11-08T23:00:00	7	Dirección del viento	8.05
128103	7	Sololá	704	Santa Lucía Utatlán 	7	Santa Rita 	11	Noviembre	2023-09-11T00:00:00	2024-11-08T23:00:00	1	Precipitación	0
128104	7	Sololá	704	Santa Lucía Utatlán 	7	Santa Rita 	11	Noviembre	2023-09-11T00:00:00	2024-11-08T23:00:00	8	Radiación solar	0
128105	7	Sololá	704	Santa Lucía Utatlán 	7	Santa Rita 	11	Noviembre	2023-10-11T00:00:00	2024-11-08T00:00:00	2	Temperatura media	25.4
128106	7	Sololá	704	Santa Lucía Utatlán 	7	Santa Rita 	11	Noviembre	2023-10-11T00:00:00	2024-11-08T00:00:00	4	Temperatura máxima	26.6
128107	7	Sololá	704	Santa Lucía Utatlán 	7	Santa Rita 	11	Noviembre	2023-10-11T00:00:00	2024-11-08T00:00:00	3	Temperatura mínima	24.9
128108	7	Sololá	704	Santa Lucía Utatlán 	7	Santa Rita 	11	Noviembre	2023-10-11T00:00:00	2024-11-08T00:00:00	5	Humedad	65
128109	7	Sololá	704	Santa Lucía Utatlán 	7	Santa Rita 	11	Noviembre	2023-10-11T00:00:00	2024-11-08T00:00:00	6	Velocidad del viento	8
128110	7	Sololá	704	Santa Lucía Utatlán 	7	Santa Rita 	11	Noviembre	2023-10-11T00:00:00	2024-11-08T00:00:00	7	Dirección del viento	8.05
128111	7	Sololá	704	Santa Lucía Utatlán 	7	Santa Rita 	11	Noviembre	2023-10-11T00:00:00	2024-11-08T00:00:00	1	Precipitación	0
128112	7	Sololá	704	Santa Lucía Utatlán 	7	Santa Rita 	11	Noviembre	2023-10-11T00:00:00	2024-11-08T00:00:00	8	Radiación solar	0
128113	7	Sololá	704	Santa Lucía Utatlán 	7	Santa Rita 	11	Noviembre	2023-10-11T00:00:00	2024-11-08T01:00:00	2	Temperatura media	24.6
128114	7	Sololá	704	Santa Lucía Utatlán 	7	Santa Rita 	11	Noviembre	2023-10-11T00:00:00	2024-11-08T01:00:00	4	Temperatura máxima	25.9
128115	7	Sololá	704	Santa Lucía Utatlán 	7	Santa Rita 	11	Noviembre	2023-10-11T00:00:00	2024-11-08T01:00:00	3	Temperatura mínima	24.6
128116	7	Sololá	704	Santa Lucía Utatlán 	7	Santa Rita 	11	Noviembre	2023-10-11T00:00:00	2024-11-08T01:00:00	5	Humedad	67
128117	7	Sololá	704	Santa Lucía Utatlán 	7	Santa Rita 	11	Noviembre	2023-10-11T00:00:00	2024-11-08T01:00:00	6	Velocidad del viento	6.4
128118	7	Sololá	704	Santa Lucía Utatlán 	7	Santa Rita 	11	Noviembre	2023-10-11T00:00:00	2024-11-08T01:00:00	7	Dirección del viento	6.44
128119	7	Sololá	704	Santa Lucía Utatlán 	7	Santa Rita 	11	Noviembre	2023-10-11T00:00:00	2024-11-08T01:00:00	1	Precipitación	0
128120	7	Sololá	704	Santa Lucía Utatlán 	7	Santa Rita 	11	Noviembre	2023-10-11T00:00:00	2024-11-08T01:00:00	8	Radiación solar	0
128121	7	Sololá	704	Santa Lucía Utatlán 	7	Santa Rita 	11	Noviembre	2023-10-11T00:00:00	2024-11-08T02:00:00	2	Temperatura media	24.6
128122	7	Sololá	704	Santa Lucía Utatlán 	7	Santa Rita 	11	Noviembre	2023-10-11T00:00:00	2024-11-08T02:00:00	4	Temperatura máxima	25.1
128123	7	Sololá	704	Santa Lucía Utatlán 	7	Santa Rita 	11	Noviembre	2023-10-11T00:00:00	2024-11-08T02:00:00	3	Temperatura mínima	24.3
128124	7	Sololá	704	Santa Lucía Utatlán 	7	Santa Rita 	11	Noviembre	2023-10-11T00:00:00	2024-11-08T02:00:00	5	Humedad	70
128125	7	Sololá	704	Santa Lucía Utatlán 	7	Santa Rita 	11	Noviembre	2023-10-11T00:00:00	2024-11-08T02:00:00	6	Velocidad del viento	9.7
128126	7	Sololá	704	Santa Lucía Utatlán 	7	Santa Rita 	11	Noviembre	2023-10-11T00:00:00	2024-11-08T02:00:00	7	Dirección del viento	9.66
128127	7	Sololá	704	Santa Lucía Utatlán 	7	Santa Rita 	11	Noviembre	2023-10-11T00:00:00	2024-11-08T02:00:00	1	Precipitación	0
128128	7	Sololá	704	Santa Lucía Utatlán 	7	Santa Rita 	11	Noviembre	2023-10-11T00:00:00	2024-11-08T02:00:00	8	Radiación solar	0
128129	7	Sololá	704	Santa Lucía Utatlán 	7	Santa Rita 	11	Noviembre	2023-10-11T00:00:00	2024-11-08T03:00:00	2	Temperatura media	23.9
128130	7	Sololá	704	Santa Lucía Utatlán 	7	Santa Rita 	11	Noviembre	2023-10-11T00:00:00	2024-11-08T03:00:00	4	Temperatura máxima	25.3
128131	7	Sololá	704	Santa Lucía Utatlán 	7	Santa Rita 	11	Noviembre	2023-10-11T00:00:00	2024-11-08T03:00:00	3	Temperatura mínima	23.9
128132	7	Sololá	704	Santa Lucía Utatlán 	7	Santa Rita 	11	Noviembre	2023-10-11T00:00:00	2024-11-08T03:00:00	5	Humedad	70
128133	7	Sololá	704	Santa Lucía Utatlán 	7	Santa Rita 	11	Noviembre	2023-10-11T00:00:00	2024-11-08T03:00:00	6	Velocidad del viento	8
128134	7	Sololá	704	Santa Lucía Utatlán 	7	Santa Rita 	11	Noviembre	2023-10-11T00:00:00	2024-11-08T03:00:00	7	Dirección del viento	8.05
128135	7	Sololá	704	Santa Lucía Utatlán 	7	Santa Rita 	11	Noviembre	2023-10-11T00:00:00	2024-11-08T03:00:00	1	Precipitación	0
128136	7	Sololá	704	Santa Lucía Utatlán 	7	Santa Rita 	11	Noviembre	2023-10-11T00:00:00	2024-11-08T03:00:00	8	Radiación solar	0
128137	7	Sololá	704	Santa Lucía Utatlán 	7	Santa Rita 	11	Noviembre	2023-10-11T00:00:00	2024-11-08T04:00:00	2	Temperatura media	22.7
128138	7	Sololá	704	Santa Lucía Utatlán 	7	Santa Rita 	11	Noviembre	2023-10-11T00:00:00	2024-11-08T04:00:00	4	Temperatura máxima	23.9
128139	7	Sololá	704	Santa Lucía Utatlán 	7	Santa Rita 	11	Noviembre	2023-10-11T00:00:00	2024-11-08T04:00:00	3	Temperatura mínima	22.7
128140	7	Sololá	704	Santa Lucía Utatlán 	7	Santa Rita 	11	Noviembre	2023-10-11T00:00:00	2024-11-08T04:00:00	5	Humedad	75
128141	7	Sololá	704	Santa Lucía Utatlán 	7	Santa Rita 	11	Noviembre	2023-10-11T00:00:00	2024-11-08T04:00:00	6	Velocidad del viento	3.2
128142	7	Sololá	704	Santa Lucía Utatlán 	7	Santa Rita 	11	Noviembre	2023-10-11T00:00:00	2024-11-08T04:00:00	7	Dirección del viento	3.22
128143	7	Sololá	704	Santa Lucía Utatlán 	7	Santa Rita 	11	Noviembre	2023-10-11T00:00:00	2024-11-08T04:00:00	1	Precipitación	0
128144	7	Sololá	704	Santa Lucía Utatlán 	7	Santa Rita 	11	Noviembre	2023-10-11T00:00:00	2024-11-08T04:00:00	8	Radiación solar	0
128145	7	Sololá	704	Santa Lucía Utatlán 	7	Santa Rita 	11	Noviembre	2023-10-11T00:00:00	2024-11-08T05:00:00	2	Temperatura media	21.6
128146	7	Sololá	704	Santa Lucía Utatlán 	7	Santa Rita 	11	Noviembre	2023-10-11T00:00:00	2024-11-08T05:00:00	4	Temperatura máxima	22.7
128147	7	Sololá	704	Santa Lucía Utatlán 	7	Santa Rita 	11	Noviembre	2023-10-11T00:00:00	2024-11-08T05:00:00	3	Temperatura mínima	21.6
128148	7	Sololá	704	Santa Lucía Utatlán 	7	Santa Rita 	11	Noviembre	2023-10-11T00:00:00	2024-11-08T05:00:00	5	Humedad	82
128149	7	Sololá	704	Santa Lucía Utatlán 	7	Santa Rita 	11	Noviembre	2023-10-11T00:00:00	2024-11-08T05:00:00	6	Velocidad del viento	4.8
128150	7	Sololá	704	Santa Lucía Utatlán 	7	Santa Rita 	11	Noviembre	2023-10-11T00:00:00	2024-11-08T05:00:00	7	Dirección del viento	4.83
128151	7	Sololá	704	Santa Lucía Utatlán 	7	Santa Rita 	11	Noviembre	2023-10-11T00:00:00	2024-11-08T05:00:00	1	Precipitación	0
128152	7	Sololá	704	Santa Lucía Utatlán 	7	Santa Rita 	11	Noviembre	2023-10-11T00:00:00	2024-11-08T05:00:00	8	Radiación solar	0
128153	7	Sololá	704	Santa Lucía Utatlán 	7	Santa Rita 	11	Noviembre	2023-10-11T00:00:00	2024-11-08T06:00:00	2	Temperatura media	21
128154	7	Sololá	704	Santa Lucía Utatlán 	7	Santa Rita 	11	Noviembre	2023-10-11T00:00:00	2024-11-08T06:00:00	4	Temperatura máxima	21.6
128155	7	Sololá	704	Santa Lucía Utatlán 	7	Santa Rita 	11	Noviembre	2023-10-11T00:00:00	2024-11-08T06:00:00	3	Temperatura mínima	21
128156	7	Sololá	704	Santa Lucía Utatlán 	7	Santa Rita 	11	Noviembre	2023-10-11T00:00:00	2024-11-08T06:00:00	5	Humedad	85
128157	7	Sololá	704	Santa Lucía Utatlán 	7	Santa Rita 	11	Noviembre	2023-10-11T00:00:00	2024-11-08T06:00:00	6	Velocidad del viento	3.2
128158	7	Sololá	704	Santa Lucía Utatlán 	7	Santa Rita 	11	Noviembre	2023-10-11T00:00:00	2024-11-08T06:00:00	7	Dirección del viento	3.22
128159	7	Sololá	704	Santa Lucía Utatlán 	7	Santa Rita 	11	Noviembre	2023-10-11T00:00:00	2024-11-08T06:00:00	1	Precipitación	0
128160	7	Sololá	704	Santa Lucía Utatlán 	7	Santa Rita 	11	Noviembre	2023-10-11T00:00:00	2024-11-08T06:00:00	8	Radiación solar	25
128161	7	Sololá	704	Santa Lucía Utatlán 	7	Santa Rita 	11	Noviembre	2023-10-11T00:00:00	2024-11-08T07:00:00	2	Temperatura media	21.4
128162	7	Sololá	704	Santa Lucía Utatlán 	7	Santa Rita 	11	Noviembre	2023-10-11T00:00:00	2024-11-08T07:00:00	4	Temperatura máxima	21.4
128163	7	Sololá	704	Santa Lucía Utatlán 	7	Santa Rita 	11	Noviembre	2023-10-11T00:00:00	2024-11-08T07:00:00	3	Temperatura mínima	20.9
128164	7	Sololá	704	Santa Lucía Utatlán 	7	Santa Rita 	11	Noviembre	2023-10-11T00:00:00	2024-11-08T07:00:00	5	Humedad	79
128165	7	Sololá	704	Santa Lucía Utatlán 	7	Santa Rita 	11	Noviembre	2023-10-11T00:00:00	2024-11-08T07:00:00	6	Velocidad del viento	4.8
128166	7	Sololá	704	Santa Lucía Utatlán 	7	Santa Rita 	11	Noviembre	2023-10-11T00:00:00	2024-11-08T07:00:00	7	Dirección del viento	4.83
128167	7	Sololá	704	Santa Lucía Utatlán 	7	Santa Rita 	11	Noviembre	2023-10-11T00:00:00	2024-11-08T07:00:00	1	Precipitación	0
128168	7	Sololá	704	Santa Lucía Utatlán 	7	Santa Rita 	11	Noviembre	2023-10-11T00:00:00	2024-11-08T07:00:00	8	Radiación solar	239
128169	7	Sololá	704	Santa Lucía Utatlán 	7	Santa Rita 	11	Noviembre	2023-10-11T00:00:00	2024-11-08T08:00:00	2	Temperatura media	21.1
128170	7	Sololá	704	Santa Lucía Utatlán 	7	Santa Rita 	11	Noviembre	2023-10-11T00:00:00	2024-11-08T08:00:00	4	Temperatura máxima	21.4
128171	7	Sololá	704	Santa Lucía Utatlán 	7	Santa Rita 	11	Noviembre	2023-10-11T00:00:00	2024-11-08T08:00:00	3	Temperatura mínima	21.1
128172	7	Sololá	704	Santa Lucía Utatlán 	7	Santa Rita 	11	Noviembre	2023-10-11T00:00:00	2024-11-08T08:00:00	5	Humedad	82
128173	7	Sololá	704	Santa Lucía Utatlán 	7	Santa Rita 	11	Noviembre	2023-10-11T00:00:00	2024-11-08T08:00:00	6	Velocidad del viento	4.8
128174	7	Sololá	704	Santa Lucía Utatlán 	7	Santa Rita 	11	Noviembre	2023-10-11T00:00:00	2024-11-08T08:00:00	7	Dirección del viento	4.83
128175	7	Sololá	704	Santa Lucía Utatlán 	7	Santa Rita 	11	Noviembre	2023-10-11T00:00:00	2024-11-08T08:00:00	1	Precipitación	0
128176	7	Sololá	704	Santa Lucía Utatlán 	7	Santa Rita 	11	Noviembre	2023-10-11T00:00:00	2024-11-08T08:00:00	8	Radiación solar	468
128177	7	Sololá	704	Santa Lucía Utatlán 	7	Santa Rita 	11	Noviembre	2023-10-11T00:00:00	2024-11-08T09:00:00	2	Temperatura media	20.8
128178	7	Sololá	704	Santa Lucía Utatlán 	7	Santa Rita 	11	Noviembre	2023-10-11T00:00:00	2024-11-08T09:00:00	4	Temperatura máxima	21.1
128179	7	Sololá	704	Santa Lucía Utatlán 	7	Santa Rita 	11	Noviembre	2023-10-11T00:00:00	2024-11-08T09:00:00	3	Temperatura mínima	20.8
128180	7	Sololá	704	Santa Lucía Utatlán 	7	Santa Rita 	11	Noviembre	2023-10-11T00:00:00	2024-11-08T09:00:00	5	Humedad	84
128181	7	Sololá	704	Santa Lucía Utatlán 	7	Santa Rita 	11	Noviembre	2023-10-11T00:00:00	2024-11-08T09:00:00	6	Velocidad del viento	3.2
128182	7	Sololá	704	Santa Lucía Utatlán 	7	Santa Rita 	11	Noviembre	2023-10-11T00:00:00	2024-11-08T09:00:00	7	Dirección del viento	3.22
128183	7	Sololá	704	Santa Lucía Utatlán 	7	Santa Rita 	11	Noviembre	2023-10-11T00:00:00	2024-11-08T09:00:00	1	Precipitación	0
128184	7	Sololá	704	Santa Lucía Utatlán 	7	Santa Rita 	11	Noviembre	2023-10-11T00:00:00	2024-11-08T09:00:00	8	Radiación solar	703
128185	7	Sololá	704	Santa Lucía Utatlán 	7	Santa Rita 	11	Noviembre	2023-10-11T00:00:00	2024-11-08T10:00:00	2	Temperatura media	20.1
128186	7	Sololá	704	Santa Lucía Utatlán 	7	Santa Rita 	11	Noviembre	2023-10-11T00:00:00	2024-11-08T10:00:00	4	Temperatura máxima	20.8
128187	7	Sololá	704	Santa Lucía Utatlán 	7	Santa Rita 	11	Noviembre	2023-10-11T00:00:00	2024-11-08T10:00:00	3	Temperatura mínima	20
128188	7	Sololá	704	Santa Lucía Utatlán 	7	Santa Rita 	11	Noviembre	2023-10-11T00:00:00	2024-11-08T10:00:00	5	Humedad	89
128189	7	Sololá	704	Santa Lucía Utatlán 	7	Santa Rita 	11	Noviembre	2023-10-11T00:00:00	2024-11-08T10:00:00	6	Velocidad del viento	1.6
128190	7	Sololá	704	Santa Lucía Utatlán 	7	Santa Rita 	11	Noviembre	2023-10-11T00:00:00	2024-11-08T10:00:00	7	Dirección del viento	1.61
128191	7	Sololá	704	Santa Lucía Utatlán 	7	Santa Rita 	11	Noviembre	2023-10-11T00:00:00	2024-11-08T10:00:00	1	Precipitación	0
128192	7	Sololá	704	Santa Lucía Utatlán 	7	Santa Rita 	11	Noviembre	2023-10-11T00:00:00	2024-11-08T10:00:00	8	Radiación solar	854
128193	7	Sololá	704	Santa Lucía Utatlán 	7	Santa Rita 	11	Noviembre	2023-10-11T00:00:00	2024-11-08T11:00:00	2	Temperatura media	19.7
128194	7	Sololá	704	Santa Lucía Utatlán 	7	Santa Rita 	11	Noviembre	2023-10-11T00:00:00	2024-11-08T11:00:00	4	Temperatura máxima	20.1
128195	7	Sololá	704	Santa Lucía Utatlán 	7	Santa Rita 	11	Noviembre	2023-10-11T00:00:00	2024-11-08T11:00:00	3	Temperatura mínima	19.7
128196	7	Sololá	704	Santa Lucía Utatlán 	7	Santa Rita 	11	Noviembre	2023-10-11T00:00:00	2024-11-08T11:00:00	5	Humedad	92
128197	7	Sololá	704	Santa Lucía Utatlán 	7	Santa Rita 	11	Noviembre	2023-10-11T00:00:00	2024-11-08T11:00:00	6	Velocidad del viento	1.6
128198	7	Sololá	704	Santa Lucía Utatlán 	7	Santa Rita 	11	Noviembre	2023-10-11T00:00:00	2024-11-08T11:00:00	7	Dirección del viento	1.61
128199	7	Sololá	704	Santa Lucía Utatlán 	7	Santa Rita 	11	Noviembre	2023-10-11T00:00:00	2024-11-08T11:00:00	1	Precipitación	0
128200	7	Sololá	704	Santa Lucía Utatlán 	7	Santa Rita 	11	Noviembre	2023-10-11T00:00:00	2024-11-08T11:00:00	8	Radiación solar	872
128201	7	Sololá	704	Santa Lucía Utatlán 	7	Santa Rita 	11	Noviembre	2023-10-11T00:00:00	2024-11-08T12:00:00	2	Temperatura media	19.1
128202	7	Sololá	704	Santa Lucía Utatlán 	7	Santa Rita 	11	Noviembre	2023-10-11T00:00:00	2024-11-08T12:00:00	4	Temperatura máxima	19.7
128203	7	Sololá	704	Santa Lucía Utatlán 	7	Santa Rita 	11	Noviembre	2023-10-11T00:00:00	2024-11-08T12:00:00	3	Temperatura mínima	19.1
128204	7	Sololá	704	Santa Lucía Utatlán 	7	Santa Rita 	11	Noviembre	2023-10-11T00:00:00	2024-11-08T12:00:00	5	Humedad	94
128205	7	Sololá	704	Santa Lucía Utatlán 	7	Santa Rita 	11	Noviembre	2023-10-11T00:00:00	2024-11-08T12:00:00	6	Velocidad del viento	1.6
128206	7	Sololá	704	Santa Lucía Utatlán 	7	Santa Rita 	11	Noviembre	2023-10-11T00:00:00	2024-11-08T12:00:00	7	Dirección del viento	1.61
128207	7	Sololá	704	Santa Lucía Utatlán 	7	Santa Rita 	11	Noviembre	2023-10-11T00:00:00	2024-11-08T12:00:00	1	Precipitación	0
128208	7	Sololá	704	Santa Lucía Utatlán 	7	Santa Rita 	11	Noviembre	2023-10-11T00:00:00	2024-11-08T12:00:00	8	Radiación solar	491
128209	7	Sololá	704	Santa Lucía Utatlán 	7	Santa Rita 	11	Noviembre	2023-10-11T00:00:00	2024-11-08T13:00:00	2	Temperatura media	19
128210	7	Sololá	704	Santa Lucía Utatlán 	7	Santa Rita 	11	Noviembre	2023-10-11T00:00:00	2024-11-08T13:00:00	4	Temperatura máxima	19.4
128211	7	Sololá	704	Santa Lucía Utatlán 	7	Santa Rita 	11	Noviembre	2023-10-11T00:00:00	2024-11-08T13:00:00	3	Temperatura mínima	19
128212	7	Sololá	704	Santa Lucía Utatlán 	7	Santa Rita 	11	Noviembre	2023-10-11T00:00:00	2024-11-08T13:00:00	5	Humedad	94
128213	7	Sololá	704	Santa Lucía Utatlán 	7	Santa Rita 	11	Noviembre	2023-10-11T00:00:00	2024-11-08T13:00:00	6	Velocidad del viento	1.6
128214	7	Sololá	704	Santa Lucía Utatlán 	7	Santa Rita 	11	Noviembre	2023-10-11T00:00:00	2024-11-08T13:00:00	7	Dirección del viento	1.61
128215	7	Sololá	704	Santa Lucía Utatlán 	7	Santa Rita 	11	Noviembre	2023-10-11T00:00:00	2024-11-08T13:00:00	1	Precipitación	0
128216	7	Sololá	704	Santa Lucía Utatlán 	7	Santa Rita 	11	Noviembre	2023-10-11T00:00:00	2024-11-08T13:00:00	8	Radiación solar	305
128217	7	Sololá	704	Santa Lucía Utatlán 	7	Santa Rita 	11	Noviembre	2023-10-11T00:00:00	2024-11-08T14:00:00	2	Temperatura media	19.2
128218	7	Sololá	704	Santa Lucía Utatlán 	7	Santa Rita 	11	Noviembre	2023-10-11T00:00:00	2024-11-08T14:00:00	4	Temperatura máxima	19.2
128219	7	Sololá	704	Santa Lucía Utatlán 	7	Santa Rita 	11	Noviembre	2023-10-11T00:00:00	2024-11-08T14:00:00	3	Temperatura mínima	18.7
128220	7	Sololá	704	Santa Lucía Utatlán 	7	Santa Rita 	11	Noviembre	2023-10-11T00:00:00	2024-11-08T14:00:00	5	Humedad	91
128221	7	Sololá	704	Santa Lucía Utatlán 	7	Santa Rita 	11	Noviembre	2023-10-11T00:00:00	2024-11-08T14:00:00	6	Velocidad del viento	3.2
128222	7	Sololá	704	Santa Lucía Utatlán 	7	Santa Rita 	11	Noviembre	2023-10-11T00:00:00	2024-11-08T14:00:00	7	Dirección del viento	3.22
128223	7	Sololá	704	Santa Lucía Utatlán 	7	Santa Rita 	11	Noviembre	2023-10-11T00:00:00	2024-11-08T14:00:00	1	Precipitación	0
128224	7	Sololá	704	Santa Lucía Utatlán 	7	Santa Rita 	11	Noviembre	2023-10-11T00:00:00	2024-11-08T14:00:00	8	Radiación solar	275
128225	7	Sololá	704	Santa Lucía Utatlán 	7	Santa Rita 	11	Noviembre	2023-10-11T00:00:00	2024-11-08T15:00:00	2	Temperatura media	18.7
128226	7	Sololá	704	Santa Lucía Utatlán 	7	Santa Rita 	11	Noviembre	2023-10-11T00:00:00	2024-11-08T15:00:00	4	Temperatura máxima	19.2
128227	7	Sololá	704	Santa Lucía Utatlán 	7	Santa Rita 	11	Noviembre	2023-10-11T00:00:00	2024-11-08T15:00:00	3	Temperatura mínima	18.6
128228	7	Sololá	704	Santa Lucía Utatlán 	7	Santa Rita 	11	Noviembre	2023-10-11T00:00:00	2024-11-08T15:00:00	5	Humedad	91
128229	7	Sololá	704	Santa Lucía Utatlán 	7	Santa Rita 	11	Noviembre	2023-10-11T00:00:00	2024-11-08T15:00:00	6	Velocidad del viento	1.6
128230	7	Sololá	704	Santa Lucía Utatlán 	7	Santa Rita 	11	Noviembre	2023-10-11T00:00:00	2024-11-08T15:00:00	7	Dirección del viento	1.61
128231	7	Sololá	704	Santa Lucía Utatlán 	7	Santa Rita 	11	Noviembre	2023-10-11T00:00:00	2024-11-08T15:00:00	1	Precipitación	0
128232	7	Sololá	704	Santa Lucía Utatlán 	7	Santa Rita 	11	Noviembre	2023-10-11T00:00:00	2024-11-08T15:00:00	8	Radiación solar	261
128233	7	Sololá	704	Santa Lucía Utatlán 	7	Santa Rita 	11	Noviembre	2023-10-11T00:00:00	2024-11-08T16:00:00	2	Temperatura media	20.8
128234	7	Sololá	704	Santa Lucía Utatlán 	7	Santa Rita 	11	Noviembre	2023-10-11T00:00:00	2024-11-08T16:00:00	4	Temperatura máxima	20.8
128235	7	Sololá	704	Santa Lucía Utatlán 	7	Santa Rita 	11	Noviembre	2023-10-11T00:00:00	2024-11-08T16:00:00	3	Temperatura mínima	18.7
128236	7	Sololá	704	Santa Lucía Utatlán 	7	Santa Rita 	11	Noviembre	2023-10-11T00:00:00	2024-11-08T16:00:00	5	Humedad	80
128237	7	Sololá	704	Santa Lucía Utatlán 	7	Santa Rita 	11	Noviembre	2023-10-11T00:00:00	2024-11-08T16:00:00	6	Velocidad del viento	8
128238	7	Sololá	704	Santa Lucía Utatlán 	7	Santa Rita 	11	Noviembre	2023-10-11T00:00:00	2024-11-08T16:00:00	7	Dirección del viento	8.05
128239	7	Sololá	704	Santa Lucía Utatlán 	7	Santa Rita 	11	Noviembre	2023-10-11T00:00:00	2024-11-08T16:00:00	1	Precipitación	0
128240	7	Sololá	704	Santa Lucía Utatlán 	7	Santa Rita 	11	Noviembre	2023-10-11T00:00:00	2024-11-08T16:00:00	8	Radiación solar	35
128241	7	Sololá	704	Santa Lucía Utatlán 	7	Santa Rita 	11	Noviembre	2023-10-11T00:00:00	2024-11-08T17:00:00	2	Temperatura media	20.6
128242	7	Sololá	704	Santa Lucía Utatlán 	7	Santa Rita 	11	Noviembre	2023-10-11T00:00:00	2024-11-08T17:00:00	4	Temperatura máxima	20.8
128243	7	Sololá	704	Santa Lucía Utatlán 	7	Santa Rita 	11	Noviembre	2023-10-11T00:00:00	2024-11-08T17:00:00	3	Temperatura mínima	20.4
128244	7	Sololá	704	Santa Lucía Utatlán 	7	Santa Rita 	11	Noviembre	2023-10-11T00:00:00	2024-11-08T17:00:00	5	Humedad	79
128245	7	Sololá	704	Santa Lucía Utatlán 	7	Santa Rita 	11	Noviembre	2023-10-11T00:00:00	2024-11-08T17:00:00	6	Velocidad del viento	6.4
128246	7	Sololá	704	Santa Lucía Utatlán 	7	Santa Rita 	11	Noviembre	2023-10-11T00:00:00	2024-11-08T17:00:00	7	Dirección del viento	6.44
128247	7	Sololá	704	Santa Lucía Utatlán 	7	Santa Rita 	11	Noviembre	2023-10-11T00:00:00	2024-11-08T17:00:00	1	Precipitación	0
128248	7	Sololá	704	Santa Lucía Utatlán 	7	Santa Rita 	11	Noviembre	2023-10-11T00:00:00	2024-11-08T17:00:00	8	Radiación solar	7
128249	7	Sololá	704	Santa Lucía Utatlán 	7	Santa Rita 	11	Noviembre	2023-10-11T00:00:00	2024-11-08T18:00:00	2	Temperatura media	20
128250	7	Sololá	704	Santa Lucía Utatlán 	7	Santa Rita 	11	Noviembre	2023-10-11T00:00:00	2024-11-08T18:00:00	4	Temperatura máxima	20.6
128251	7	Sololá	704	Santa Lucía Utatlán 	7	Santa Rita 	11	Noviembre	2023-10-11T00:00:00	2024-11-08T18:00:00	3	Temperatura mínima	18.7
128252	7	Sololá	704	Santa Lucía Utatlán 	7	Santa Rita 	11	Noviembre	2023-10-11T00:00:00	2024-11-08T18:00:00	5	Humedad	81
128253	7	Sololá	704	Santa Lucía Utatlán 	7	Santa Rita 	11	Noviembre	2023-10-11T00:00:00	2024-11-08T18:00:00	6	Velocidad del viento	3.2
128254	7	Sololá	704	Santa Lucía Utatlán 	7	Santa Rita 	11	Noviembre	2023-10-11T00:00:00	2024-11-08T18:00:00	7	Dirección del viento	3.22
128255	7	Sololá	704	Santa Lucía Utatlán 	7	Santa Rita 	11	Noviembre	2023-10-11T00:00:00	2024-11-08T18:00:00	1	Precipitación	0
128256	7	Sololá	704	Santa Lucía Utatlán 	7	Santa Rita 	11	Noviembre	2023-10-11T00:00:00	2024-11-08T18:00:00	8	Radiación solar	0
128257	7	Sololá	704	Santa Lucía Utatlán 	7	Santa Rita 	11	Noviembre	2023-10-11T00:00:00	2024-11-08T19:00:00	2	Temperatura media	21.8
128258	7	Sololá	704	Santa Lucía Utatlán 	7	Santa Rita 	11	Noviembre	2023-10-11T00:00:00	2024-11-08T19:00:00	4	Temperatura máxima	21.9
128259	7	Sololá	704	Santa Lucía Utatlán 	7	Santa Rita 	11	Noviembre	2023-10-11T00:00:00	2024-11-08T19:00:00	3	Temperatura mínima	20.1
128260	7	Sololá	704	Santa Lucía Utatlán 	7	Santa Rita 	11	Noviembre	2023-10-11T00:00:00	2024-11-08T19:00:00	5	Humedad	78
128261	7	Sololá	704	Santa Lucía Utatlán 	7	Santa Rita 	11	Noviembre	2023-10-11T00:00:00	2024-11-08T19:00:00	6	Velocidad del viento	6.4
128262	7	Sololá	704	Santa Lucía Utatlán 	7	Santa Rita 	11	Noviembre	2023-10-11T00:00:00	2024-11-08T19:00:00	7	Dirección del viento	6.44
128263	7	Sololá	704	Santa Lucía Utatlán 	7	Santa Rita 	11	Noviembre	2023-10-11T00:00:00	2024-11-08T19:00:00	1	Precipitación	0
128264	7	Sololá	704	Santa Lucía Utatlán 	7	Santa Rita 	11	Noviembre	2023-10-11T00:00:00	2024-11-08T19:00:00	8	Radiación solar	0
128265	7	Sololá	704	Santa Lucía Utatlán 	7	Santa Rita 	11	Noviembre	2023-10-11T00:00:00	2024-11-08T20:00:00	2	Temperatura media	23.3
128266	7	Sololá	704	Santa Lucía Utatlán 	7	Santa Rita 	11	Noviembre	2023-10-11T00:00:00	2024-11-08T20:00:00	4	Temperatura máxima	23.4
128267	7	Sololá	704	Santa Lucía Utatlán 	7	Santa Rita 	11	Noviembre	2023-10-11T00:00:00	2024-11-08T20:00:00	3	Temperatura mínima	21.8
128268	7	Sololá	704	Santa Lucía Utatlán 	7	Santa Rita 	11	Noviembre	2023-10-11T00:00:00	2024-11-08T20:00:00	5	Humedad	72
128269	7	Sololá	704	Santa Lucía Utatlán 	7	Santa Rita 	11	Noviembre	2023-10-11T00:00:00	2024-11-08T20:00:00	6	Velocidad del viento	8
128270	7	Sololá	704	Santa Lucía Utatlán 	7	Santa Rita 	11	Noviembre	2023-10-11T00:00:00	2024-11-08T20:00:00	7	Dirección del viento	8.05
128271	7	Sololá	704	Santa Lucía Utatlán 	7	Santa Rita 	11	Noviembre	2023-10-11T00:00:00	2024-11-08T20:00:00	1	Precipitación	0
128272	7	Sololá	704	Santa Lucía Utatlán 	7	Santa Rita 	11	Noviembre	2023-10-11T00:00:00	2024-11-08T20:00:00	8	Radiación solar	0
128273	7	Sololá	704	Santa Lucía Utatlán 	7	Santa Rita 	11	Noviembre	2023-10-11T00:00:00	2024-11-08T21:00:00	2	Temperatura media	23.6
128274	7	Sololá	704	Santa Lucía Utatlán 	7	Santa Rita 	11	Noviembre	2023-10-11T00:00:00	2024-11-08T21:00:00	4	Temperatura máxima	23.7
128275	7	Sololá	704	Santa Lucía Utatlán 	7	Santa Rita 	11	Noviembre	2023-10-11T00:00:00	2024-11-08T21:00:00	3	Temperatura mínima	23.1
128276	7	Sololá	704	Santa Lucía Utatlán 	7	Santa Rita 	11	Noviembre	2023-10-11T00:00:00	2024-11-08T21:00:00	5	Humedad	69
128277	7	Sololá	704	Santa Lucía Utatlán 	7	Santa Rita 	11	Noviembre	2023-10-11T00:00:00	2024-11-08T21:00:00	6	Velocidad del viento	9.7
128278	7	Sololá	704	Santa Lucía Utatlán 	7	Santa Rita 	11	Noviembre	2023-10-11T00:00:00	2024-11-08T21:00:00	7	Dirección del viento	9.66
128279	7	Sololá	704	Santa Lucía Utatlán 	7	Santa Rita 	11	Noviembre	2023-10-11T00:00:00	2024-11-08T21:00:00	1	Precipitación	0
128280	7	Sololá	704	Santa Lucía Utatlán 	7	Santa Rita 	11	Noviembre	2023-10-11T00:00:00	2024-11-08T21:00:00	8	Radiación solar	0
128281	7	Sololá	704	Santa Lucía Utatlán 	7	Santa Rita 	11	Noviembre	2023-10-11T00:00:00	2024-11-08T22:00:00	2	Temperatura media	24.3
128282	7	Sololá	704	Santa Lucía Utatlán 	7	Santa Rita 	11	Noviembre	2023-10-11T00:00:00	2024-11-08T22:00:00	4	Temperatura máxima	24.3
128283	7	Sololá	704	Santa Lucía Utatlán 	7	Santa Rita 	11	Noviembre	2023-10-11T00:00:00	2024-11-08T22:00:00	3	Temperatura mínima	23.6
128284	7	Sololá	704	Santa Lucía Utatlán 	7	Santa Rita 	11	Noviembre	2023-10-11T00:00:00	2024-11-08T22:00:00	5	Humedad	68
128285	7	Sololá	704	Santa Lucía Utatlán 	7	Santa Rita 	11	Noviembre	2023-10-11T00:00:00	2024-11-08T22:00:00	6	Velocidad del viento	8
128286	7	Sololá	704	Santa Lucía Utatlán 	7	Santa Rita 	11	Noviembre	2023-10-11T00:00:00	2024-11-08T22:00:00	7	Dirección del viento	8.05
128287	7	Sololá	704	Santa Lucía Utatlán 	7	Santa Rita 	11	Noviembre	2023-10-11T00:00:00	2024-11-08T22:00:00	1	Precipitación	0
128288	7	Sololá	704	Santa Lucía Utatlán 	7	Santa Rita 	11	Noviembre	2023-10-11T00:00:00	2024-11-08T22:00:00	8	Radiación solar	0
128289	7	Sololá	704	Santa Lucía Utatlán 	7	Santa Rita 	11	Noviembre	2023-10-11T00:00:00	2024-11-08T23:00:00	2	Temperatura media	25.7
128290	7	Sololá	704	Santa Lucía Utatlán 	7	Santa Rita 	11	Noviembre	2023-10-11T00:00:00	2024-11-08T23:00:00	4	Temperatura máxima	25.7
128291	7	Sololá	704	Santa Lucía Utatlán 	7	Santa Rita 	11	Noviembre	2023-10-11T00:00:00	2024-11-08T23:00:00	3	Temperatura mínima	24
128292	7	Sololá	704	Santa Lucía Utatlán 	7	Santa Rita 	11	Noviembre	2023-10-11T00:00:00	2024-11-08T23:00:00	5	Humedad	64
128293	7	Sololá	704	Santa Lucía Utatlán 	7	Santa Rita 	11	Noviembre	2023-10-11T00:00:00	2024-11-08T23:00:00	6	Velocidad del viento	6.4
128294	7	Sololá	704	Santa Lucía Utatlán 	7	Santa Rita 	11	Noviembre	2023-10-11T00:00:00	2024-11-08T23:00:00	7	Dirección del viento	6.44
128295	7	Sololá	704	Santa Lucía Utatlán 	7	Santa Rita 	11	Noviembre	2023-10-11T00:00:00	2024-11-08T23:00:00	1	Precipitación	0
128296	7	Sololá	704	Santa Lucía Utatlán 	7	Santa Rita 	11	Noviembre	2023-10-11T00:00:00	2024-11-08T23:00:00	8	Radiación solar	0
128297	7	Sololá	704	Santa Lucía Utatlán 	7	Santa Rita 	11	Noviembre	2023-11-11T00:00:00	2024-11-08T00:00:00	2	Temperatura media	24.1
128298	7	Sololá	704	Santa Lucía Utatlán 	7	Santa Rita 	11	Noviembre	2023-11-11T00:00:00	2024-11-08T00:00:00	4	Temperatura máxima	25.8
128299	7	Sololá	704	Santa Lucía Utatlán 	7	Santa Rita 	11	Noviembre	2023-11-11T00:00:00	2024-11-08T00:00:00	3	Temperatura mínima	24.1
128300	7	Sololá	704	Santa Lucía Utatlán 	7	Santa Rita 	11	Noviembre	2023-11-11T00:00:00	2024-11-08T00:00:00	5	Humedad	69
128301	7	Sololá	704	Santa Lucía Utatlán 	7	Santa Rita 	11	Noviembre	2023-11-11T00:00:00	2024-11-08T00:00:00	6	Velocidad del viento	6.4
128302	7	Sololá	704	Santa Lucía Utatlán 	7	Santa Rita 	11	Noviembre	2023-11-11T00:00:00	2024-11-08T00:00:00	7	Dirección del viento	6.44
128303	7	Sololá	704	Santa Lucía Utatlán 	7	Santa Rita 	11	Noviembre	2023-11-11T00:00:00	2024-11-08T00:00:00	1	Precipitación	0
128304	7	Sololá	704	Santa Lucía Utatlán 	7	Santa Rita 	11	Noviembre	2023-11-11T00:00:00	2024-11-08T00:00:00	8	Radiación solar	0
128305	7	Sololá	704	Santa Lucía Utatlán 	7	Santa Rita 	11	Noviembre	2023-11-11T00:00:00	2024-11-08T01:00:00	2	Temperatura media	24.2
128306	7	Sololá	704	Santa Lucía Utatlán 	7	Santa Rita 	11	Noviembre	2023-11-11T00:00:00	2024-11-08T01:00:00	4	Temperatura máxima	24.4
128307	7	Sololá	704	Santa Lucía Utatlán 	7	Santa Rita 	11	Noviembre	2023-11-11T00:00:00	2024-11-08T01:00:00	3	Temperatura mínima	23.8
128308	7	Sololá	704	Santa Lucía Utatlán 	7	Santa Rita 	11	Noviembre	2023-11-11T00:00:00	2024-11-08T01:00:00	5	Humedad	68
128309	7	Sololá	704	Santa Lucía Utatlán 	7	Santa Rita 	11	Noviembre	2023-11-11T00:00:00	2024-11-08T01:00:00	6	Velocidad del viento	4.8
128310	7	Sololá	704	Santa Lucía Utatlán 	7	Santa Rita 	11	Noviembre	2023-11-11T00:00:00	2024-11-08T01:00:00	7	Dirección del viento	4.83
128311	7	Sololá	704	Santa Lucía Utatlán 	7	Santa Rita 	11	Noviembre	2023-11-11T00:00:00	2024-11-08T01:00:00	1	Precipitación	0
128312	7	Sololá	704	Santa Lucía Utatlán 	7	Santa Rita 	11	Noviembre	2023-11-11T00:00:00	2024-11-08T01:00:00	8	Radiación solar	0
128313	7	Sololá	704	Santa Lucía Utatlán 	7	Santa Rita 	11	Noviembre	2023-11-11T00:00:00	2024-11-08T02:00:00	2	Temperatura media	22.6
128314	7	Sololá	704	Santa Lucía Utatlán 	7	Santa Rita 	11	Noviembre	2023-11-11T00:00:00	2024-11-08T02:00:00	4	Temperatura máxima	24.3
128315	7	Sololá	704	Santa Lucía Utatlán 	7	Santa Rita 	11	Noviembre	2023-11-11T00:00:00	2024-11-08T02:00:00	3	Temperatura mínima	22.6
128316	7	Sololá	704	Santa Lucía Utatlán 	7	Santa Rita 	11	Noviembre	2023-11-11T00:00:00	2024-11-08T02:00:00	5	Humedad	77
128317	7	Sololá	704	Santa Lucía Utatlán 	7	Santa Rita 	11	Noviembre	2023-11-11T00:00:00	2024-11-08T02:00:00	6	Velocidad del viento	4.8
128318	7	Sololá	704	Santa Lucía Utatlán 	7	Santa Rita 	11	Noviembre	2023-11-11T00:00:00	2024-11-08T02:00:00	7	Dirección del viento	4.83
128319	7	Sololá	704	Santa Lucía Utatlán 	7	Santa Rita 	11	Noviembre	2023-11-11T00:00:00	2024-11-08T02:00:00	1	Precipitación	0
128320	7	Sololá	704	Santa Lucía Utatlán 	7	Santa Rita 	11	Noviembre	2023-11-11T00:00:00	2024-11-08T02:00:00	8	Radiación solar	0
128321	7	Sololá	704	Santa Lucía Utatlán 	7	Santa Rita 	11	Noviembre	2023-11-11T00:00:00	2024-11-08T03:00:00	2	Temperatura media	22
128322	7	Sololá	704	Santa Lucía Utatlán 	7	Santa Rita 	11	Noviembre	2023-11-11T00:00:00	2024-11-08T03:00:00	4	Temperatura máxima	22.6
128323	7	Sololá	704	Santa Lucía Utatlán 	7	Santa Rita 	11	Noviembre	2023-11-11T00:00:00	2024-11-08T03:00:00	3	Temperatura mínima	21.8
128324	7	Sololá	704	Santa Lucía Utatlán 	7	Santa Rita 	11	Noviembre	2023-11-11T00:00:00	2024-11-08T03:00:00	5	Humedad	80
128325	7	Sololá	704	Santa Lucía Utatlán 	7	Santa Rita 	11	Noviembre	2023-11-11T00:00:00	2024-11-08T03:00:00	6	Velocidad del viento	3.2
128326	7	Sololá	704	Santa Lucía Utatlán 	7	Santa Rita 	11	Noviembre	2023-11-11T00:00:00	2024-11-08T03:00:00	7	Dirección del viento	3.22
128327	7	Sololá	704	Santa Lucía Utatlán 	7	Santa Rita 	11	Noviembre	2023-11-11T00:00:00	2024-11-08T03:00:00	1	Precipitación	0
128328	7	Sololá	704	Santa Lucía Utatlán 	7	Santa Rita 	11	Noviembre	2023-11-11T00:00:00	2024-11-08T03:00:00	8	Radiación solar	0
128329	7	Sololá	704	Santa Lucía Utatlán 	7	Santa Rita 	11	Noviembre	2023-11-11T00:00:00	2024-11-08T04:00:00	2	Temperatura media	21.1
128330	7	Sololá	704	Santa Lucía Utatlán 	7	Santa Rita 	11	Noviembre	2023-11-11T00:00:00	2024-11-08T04:00:00	4	Temperatura máxima	22
128331	7	Sololá	704	Santa Lucía Utatlán 	7	Santa Rita 	11	Noviembre	2023-11-11T00:00:00	2024-11-08T04:00:00	3	Temperatura mínima	21
128332	7	Sololá	704	Santa Lucía Utatlán 	7	Santa Rita 	11	Noviembre	2023-11-11T00:00:00	2024-11-08T04:00:00	5	Humedad	88
128333	7	Sololá	704	Santa Lucía Utatlán 	7	Santa Rita 	11	Noviembre	2023-11-11T00:00:00	2024-11-08T04:00:00	6	Velocidad del viento	3.2
128334	7	Sololá	704	Santa Lucía Utatlán 	7	Santa Rita 	11	Noviembre	2023-11-11T00:00:00	2024-11-08T04:00:00	7	Dirección del viento	3.22
128335	7	Sololá	704	Santa Lucía Utatlán 	7	Santa Rita 	11	Noviembre	2023-11-11T00:00:00	2024-11-08T04:00:00	1	Precipitación	0
128336	7	Sololá	704	Santa Lucía Utatlán 	7	Santa Rita 	11	Noviembre	2023-11-11T00:00:00	2024-11-08T04:00:00	8	Radiación solar	0
128337	7	Sololá	704	Santa Lucía Utatlán 	7	Santa Rita 	11	Noviembre	2023-11-11T00:00:00	2024-11-08T05:00:00	2	Temperatura media	20.6
128338	7	Sololá	704	Santa Lucía Utatlán 	7	Santa Rita 	11	Noviembre	2023-11-11T00:00:00	2024-11-08T05:00:00	4	Temperatura máxima	21.1
128339	7	Sololá	704	Santa Lucía Utatlán 	7	Santa Rita 	11	Noviembre	2023-11-11T00:00:00	2024-11-08T05:00:00	3	Temperatura mínima	20.4
128340	7	Sololá	704	Santa Lucía Utatlán 	7	Santa Rita 	11	Noviembre	2023-11-11T00:00:00	2024-11-08T05:00:00	5	Humedad	84
128341	7	Sololá	704	Santa Lucía Utatlán 	7	Santa Rita 	11	Noviembre	2023-11-11T00:00:00	2024-11-08T05:00:00	6	Velocidad del viento	3.2
128342	7	Sololá	704	Santa Lucía Utatlán 	7	Santa Rita 	11	Noviembre	2023-11-11T00:00:00	2024-11-08T05:00:00	7	Dirección del viento	3.22
128343	7	Sololá	704	Santa Lucía Utatlán 	7	Santa Rita 	11	Noviembre	2023-11-11T00:00:00	2024-11-08T05:00:00	1	Precipitación	0.2
128344	7	Sololá	704	Santa Lucía Utatlán 	7	Santa Rita 	11	Noviembre	2023-11-11T00:00:00	2024-11-08T05:00:00	8	Radiación solar	0
128345	7	Sololá	704	Santa Lucía Utatlán 	7	Santa Rita 	11	Noviembre	2023-11-11T00:00:00	2024-11-08T06:00:00	2	Temperatura media	20.9
128346	7	Sololá	704	Santa Lucía Utatlán 	7	Santa Rita 	11	Noviembre	2023-11-11T00:00:00	2024-11-08T06:00:00	4	Temperatura máxima	20.9
128347	7	Sololá	704	Santa Lucía Utatlán 	7	Santa Rita 	11	Noviembre	2023-11-11T00:00:00	2024-11-08T06:00:00	3	Temperatura mínima	20.3
128348	7	Sololá	704	Santa Lucía Utatlán 	7	Santa Rita 	11	Noviembre	2023-11-11T00:00:00	2024-11-08T06:00:00	5	Humedad	80
128349	7	Sololá	704	Santa Lucía Utatlán 	7	Santa Rita 	11	Noviembre	2023-11-11T00:00:00	2024-11-08T06:00:00	6	Velocidad del viento	4.8
128350	7	Sololá	704	Santa Lucía Utatlán 	7	Santa Rita 	11	Noviembre	2023-11-11T00:00:00	2024-11-08T06:00:00	7	Dirección del viento	4.83
128351	7	Sololá	704	Santa Lucía Utatlán 	7	Santa Rita 	11	Noviembre	2023-11-11T00:00:00	2024-11-08T06:00:00	1	Precipitación	0
128352	7	Sololá	704	Santa Lucía Utatlán 	7	Santa Rita 	11	Noviembre	2023-11-11T00:00:00	2024-11-08T06:00:00	8	Radiación solar	13
128353	7	Sololá	704	Santa Lucía Utatlán 	7	Santa Rita 	11	Noviembre	2023-11-11T00:00:00	2024-11-08T07:00:00	2	Temperatura media	20.9
128354	7	Sololá	704	Santa Lucía Utatlán 	7	Santa Rita 	11	Noviembre	2023-11-11T00:00:00	2024-11-08T07:00:00	4	Temperatura máxima	21.1
128355	7	Sololá	704	Santa Lucía Utatlán 	7	Santa Rita 	11	Noviembre	2023-11-11T00:00:00	2024-11-08T07:00:00	3	Temperatura mínima	20.9
128356	7	Sololá	704	Santa Lucía Utatlán 	7	Santa Rita 	11	Noviembre	2023-11-11T00:00:00	2024-11-08T07:00:00	5	Humedad	79
128357	7	Sololá	704	Santa Lucía Utatlán 	7	Santa Rita 	11	Noviembre	2023-11-11T00:00:00	2024-11-08T07:00:00	6	Velocidad del viento	6.4
128358	7	Sololá	704	Santa Lucía Utatlán 	7	Santa Rita 	11	Noviembre	2023-11-11T00:00:00	2024-11-08T07:00:00	7	Dirección del viento	6.44
128359	7	Sololá	704	Santa Lucía Utatlán 	7	Santa Rita 	11	Noviembre	2023-11-11T00:00:00	2024-11-08T07:00:00	1	Precipitación	0
128360	7	Sololá	704	Santa Lucía Utatlán 	7	Santa Rita 	11	Noviembre	2023-11-11T00:00:00	2024-11-08T07:00:00	8	Radiación solar	106
128361	7	Sololá	704	Santa Lucía Utatlán 	7	Santa Rita 	11	Noviembre	2023-11-11T00:00:00	2024-11-08T08:00:00	2	Temperatura media	21
128362	7	Sololá	704	Santa Lucía Utatlán 	7	Santa Rita 	11	Noviembre	2023-11-11T00:00:00	2024-11-08T08:00:00	4	Temperatura máxima	21.1
128363	7	Sololá	704	Santa Lucía Utatlán 	7	Santa Rita 	11	Noviembre	2023-11-11T00:00:00	2024-11-08T08:00:00	3	Temperatura mínima	20.8
128364	7	Sololá	704	Santa Lucía Utatlán 	7	Santa Rita 	11	Noviembre	2023-11-11T00:00:00	2024-11-08T08:00:00	5	Humedad	79
128365	7	Sololá	704	Santa Lucía Utatlán 	7	Santa Rita 	11	Noviembre	2023-11-11T00:00:00	2024-11-08T08:00:00	6	Velocidad del viento	8
128366	7	Sololá	704	Santa Lucía Utatlán 	7	Santa Rita 	11	Noviembre	2023-11-11T00:00:00	2024-11-08T08:00:00	7	Dirección del viento	8.05
128367	7	Sololá	704	Santa Lucía Utatlán 	7	Santa Rita 	11	Noviembre	2023-11-11T00:00:00	2024-11-08T08:00:00	1	Precipitación	0
128368	7	Sololá	704	Santa Lucía Utatlán 	7	Santa Rita 	11	Noviembre	2023-11-11T00:00:00	2024-11-08T08:00:00	8	Radiación solar	434
128369	7	Sololá	704	Santa Lucía Utatlán 	7	Santa Rita 	11	Noviembre	2023-11-11T00:00:00	2024-11-08T09:00:00	2	Temperatura media	20.8
128370	7	Sololá	704	Santa Lucía Utatlán 	7	Santa Rita 	11	Noviembre	2023-11-11T00:00:00	2024-11-08T09:00:00	4	Temperatura máxima	21.1
128371	7	Sololá	704	Santa Lucía Utatlán 	7	Santa Rita 	11	Noviembre	2023-11-11T00:00:00	2024-11-08T09:00:00	3	Temperatura mínima	20.8
128372	7	Sololá	704	Santa Lucía Utatlán 	7	Santa Rita 	11	Noviembre	2023-11-11T00:00:00	2024-11-08T09:00:00	5	Humedad	78
128373	7	Sololá	704	Santa Lucía Utatlán 	7	Santa Rita 	11	Noviembre	2023-11-11T00:00:00	2024-11-08T09:00:00	6	Velocidad del viento	8
128374	7	Sololá	704	Santa Lucía Utatlán 	7	Santa Rita 	11	Noviembre	2023-11-11T00:00:00	2024-11-08T09:00:00	7	Dirección del viento	8.05
128375	7	Sololá	704	Santa Lucía Utatlán 	7	Santa Rita 	11	Noviembre	2023-11-11T00:00:00	2024-11-08T09:00:00	1	Precipitación	0
128376	7	Sololá	704	Santa Lucía Utatlán 	7	Santa Rita 	11	Noviembre	2023-11-11T00:00:00	2024-11-08T09:00:00	8	Radiación solar	355
128377	7	Sololá	704	Santa Lucía Utatlán 	7	Santa Rita 	11	Noviembre	2023-11-11T00:00:00	2024-11-08T10:00:00	2	Temperatura media	20.8
128378	7	Sololá	704	Santa Lucía Utatlán 	7	Santa Rita 	11	Noviembre	2023-11-11T00:00:00	2024-11-08T10:00:00	4	Temperatura máxima	20.8
128379	7	Sololá	704	Santa Lucía Utatlán 	7	Santa Rita 	11	Noviembre	2023-11-11T00:00:00	2024-11-08T10:00:00	3	Temperatura mínima	20.7
128380	7	Sololá	704	Santa Lucía Utatlán 	7	Santa Rita 	11	Noviembre	2023-11-11T00:00:00	2024-11-08T10:00:00	5	Humedad	77
128381	7	Sololá	704	Santa Lucía Utatlán 	7	Santa Rita 	11	Noviembre	2023-11-11T00:00:00	2024-11-08T10:00:00	6	Velocidad del viento	9.7
128382	7	Sololá	704	Santa Lucía Utatlán 	7	Santa Rita 	11	Noviembre	2023-11-11T00:00:00	2024-11-08T10:00:00	7	Dirección del viento	9.66
128383	7	Sololá	704	Santa Lucía Utatlán 	7	Santa Rita 	11	Noviembre	2023-11-11T00:00:00	2024-11-08T10:00:00	1	Precipitación	0
128384	7	Sololá	704	Santa Lucía Utatlán 	7	Santa Rita 	11	Noviembre	2023-11-11T00:00:00	2024-11-08T10:00:00	8	Radiación solar	418
128385	7	Sololá	704	Santa Lucía Utatlán 	7	Santa Rita 	11	Noviembre	2023-11-11T00:00:00	2024-11-08T11:00:00	2	Temperatura media	20.3
128386	7	Sololá	704	Santa Lucía Utatlán 	7	Santa Rita 	11	Noviembre	2023-11-11T00:00:00	2024-11-08T11:00:00	4	Temperatura máxima	20.9
128387	7	Sololá	704	Santa Lucía Utatlán 	7	Santa Rita 	11	Noviembre	2023-11-11T00:00:00	2024-11-08T11:00:00	3	Temperatura mínima	20.3
128388	7	Sololá	704	Santa Lucía Utatlán 	7	Santa Rita 	11	Noviembre	2023-11-11T00:00:00	2024-11-08T11:00:00	5	Humedad	81
128389	7	Sololá	704	Santa Lucía Utatlán 	7	Santa Rita 	11	Noviembre	2023-11-11T00:00:00	2024-11-08T11:00:00	6	Velocidad del viento	4.8
128390	7	Sololá	704	Santa Lucía Utatlán 	7	Santa Rita 	11	Noviembre	2023-11-11T00:00:00	2024-11-08T11:00:00	7	Dirección del viento	4.83
128391	7	Sololá	704	Santa Lucía Utatlán 	7	Santa Rita 	11	Noviembre	2023-11-11T00:00:00	2024-11-08T11:00:00	1	Precipitación	0
128392	7	Sololá	704	Santa Lucía Utatlán 	7	Santa Rita 	11	Noviembre	2023-11-11T00:00:00	2024-11-08T11:00:00	8	Radiación solar	423
128393	7	Sololá	704	Santa Lucía Utatlán 	7	Santa Rita 	11	Noviembre	2023-11-11T00:00:00	2024-11-08T12:00:00	2	Temperatura media	20.4
128394	7	Sololá	704	Santa Lucía Utatlán 	7	Santa Rita 	11	Noviembre	2023-11-11T00:00:00	2024-11-08T12:00:00	4	Temperatura máxima	20.4
128395	7	Sololá	704	Santa Lucía Utatlán 	7	Santa Rita 	11	Noviembre	2023-11-11T00:00:00	2024-11-08T12:00:00	3	Temperatura mínima	19.7
128396	7	Sololá	704	Santa Lucía Utatlán 	7	Santa Rita 	11	Noviembre	2023-11-11T00:00:00	2024-11-08T12:00:00	5	Humedad	79
128397	7	Sololá	704	Santa Lucía Utatlán 	7	Santa Rita 	11	Noviembre	2023-11-11T00:00:00	2024-11-08T12:00:00	6	Velocidad del viento	3.2
128398	7	Sololá	704	Santa Lucía Utatlán 	7	Santa Rita 	11	Noviembre	2023-11-11T00:00:00	2024-11-08T12:00:00	7	Dirección del viento	3.22
128399	7	Sololá	704	Santa Lucía Utatlán 	7	Santa Rita 	11	Noviembre	2023-11-11T00:00:00	2024-11-08T12:00:00	1	Precipitación	0
128400	7	Sololá	704	Santa Lucía Utatlán 	7	Santa Rita 	11	Noviembre	2023-11-11T00:00:00	2024-11-08T12:00:00	8	Radiación solar	317
128401	7	Sololá	704	Santa Lucía Utatlán 	7	Santa Rita 	11	Noviembre	2023-11-11T00:00:00	2024-11-08T13:00:00	2	Temperatura media	21
128402	7	Sololá	704	Santa Lucía Utatlán 	7	Santa Rita 	11	Noviembre	2023-11-11T00:00:00	2024-11-08T13:00:00	4	Temperatura máxima	21.1
128403	7	Sololá	704	Santa Lucía Utatlán 	7	Santa Rita 	11	Noviembre	2023-11-11T00:00:00	2024-11-08T13:00:00	3	Temperatura mínima	20.3
128404	7	Sololá	704	Santa Lucía Utatlán 	7	Santa Rita 	11	Noviembre	2023-11-11T00:00:00	2024-11-08T13:00:00	5	Humedad	77
128405	7	Sololá	704	Santa Lucía Utatlán 	7	Santa Rita 	11	Noviembre	2023-11-11T00:00:00	2024-11-08T13:00:00	6	Velocidad del viento	6.4
128406	7	Sololá	704	Santa Lucía Utatlán 	7	Santa Rita 	11	Noviembre	2023-11-11T00:00:00	2024-11-08T13:00:00	7	Dirección del viento	6.44
128407	7	Sololá	704	Santa Lucía Utatlán 	7	Santa Rita 	11	Noviembre	2023-11-11T00:00:00	2024-11-08T13:00:00	1	Precipitación	0
128408	7	Sololá	704	Santa Lucía Utatlán 	7	Santa Rita 	11	Noviembre	2023-11-11T00:00:00	2024-11-08T13:00:00	8	Radiación solar	241
128409	7	Sololá	704	Santa Lucía Utatlán 	7	Santa Rita 	11	Noviembre	2023-11-11T00:00:00	2024-11-08T14:00:00	2	Temperatura media	20.8
128410	7	Sololá	704	Santa Lucía Utatlán 	7	Santa Rita 	11	Noviembre	2023-11-11T00:00:00	2024-11-08T14:00:00	4	Temperatura máxima	21
128411	7	Sololá	704	Santa Lucía Utatlán 	7	Santa Rita 	11	Noviembre	2023-11-11T00:00:00	2024-11-08T14:00:00	3	Temperatura mínima	20.6
128412	7	Sololá	704	Santa Lucía Utatlán 	7	Santa Rita 	11	Noviembre	2023-11-11T00:00:00	2024-11-08T14:00:00	5	Humedad	79
128413	7	Sololá	704	Santa Lucía Utatlán 	7	Santa Rita 	11	Noviembre	2023-11-11T00:00:00	2024-11-08T14:00:00	6	Velocidad del viento	6.4
128414	7	Sololá	704	Santa Lucía Utatlán 	7	Santa Rita 	11	Noviembre	2023-11-11T00:00:00	2024-11-08T14:00:00	7	Dirección del viento	6.44
128415	7	Sololá	704	Santa Lucía Utatlán 	7	Santa Rita 	11	Noviembre	2023-11-11T00:00:00	2024-11-08T14:00:00	1	Precipitación	0
128416	7	Sololá	704	Santa Lucía Utatlán 	7	Santa Rita 	11	Noviembre	2023-11-11T00:00:00	2024-11-08T14:00:00	8	Radiación solar	93
128417	7	Sololá	704	Santa Lucía Utatlán 	7	Santa Rita 	11	Noviembre	2023-11-11T00:00:00	2024-11-08T15:00:00	2	Temperatura media	20.7
128418	7	Sololá	704	Santa Lucía Utatlán 	7	Santa Rita 	11	Noviembre	2023-11-11T00:00:00	2024-11-08T15:00:00	4	Temperatura máxima	20.8
128419	7	Sololá	704	Santa Lucía Utatlán 	7	Santa Rita 	11	Noviembre	2023-11-11T00:00:00	2024-11-08T15:00:00	3	Temperatura mínima	20.6
128420	7	Sololá	704	Santa Lucía Utatlán 	7	Santa Rita 	11	Noviembre	2023-11-11T00:00:00	2024-11-08T15:00:00	5	Humedad	78
128421	7	Sololá	704	Santa Lucía Utatlán 	7	Santa Rita 	11	Noviembre	2023-11-11T00:00:00	2024-11-08T15:00:00	6	Velocidad del viento	8
128422	7	Sololá	704	Santa Lucía Utatlán 	7	Santa Rita 	11	Noviembre	2023-11-11T00:00:00	2024-11-08T15:00:00	7	Dirección del viento	8.05
128423	7	Sololá	704	Santa Lucía Utatlán 	7	Santa Rita 	11	Noviembre	2023-11-11T00:00:00	2024-11-08T15:00:00	1	Precipitación	0
128424	7	Sololá	704	Santa Lucía Utatlán 	7	Santa Rita 	11	Noviembre	2023-11-11T00:00:00	2024-11-08T15:00:00	8	Radiación solar	60
128425	7	Sololá	704	Santa Lucía Utatlán 	7	Santa Rita 	11	Noviembre	2023-11-11T00:00:00	2024-11-08T16:00:00	2	Temperatura media	20.8
128426	7	Sololá	704	Santa Lucía Utatlán 	7	Santa Rita 	11	Noviembre	2023-11-11T00:00:00	2024-11-08T16:00:00	4	Temperatura máxima	20.8
128427	7	Sololá	704	Santa Lucía Utatlán 	7	Santa Rita 	11	Noviembre	2023-11-11T00:00:00	2024-11-08T16:00:00	3	Temperatura mínima	20.4
128428	7	Sololá	704	Santa Lucía Utatlán 	7	Santa Rita 	11	Noviembre	2023-11-11T00:00:00	2024-11-08T16:00:00	5	Humedad	77
128429	7	Sololá	704	Santa Lucía Utatlán 	7	Santa Rita 	11	Noviembre	2023-11-11T00:00:00	2024-11-08T16:00:00	6	Velocidad del viento	6.4
128430	7	Sololá	704	Santa Lucía Utatlán 	7	Santa Rita 	11	Noviembre	2023-11-11T00:00:00	2024-11-08T16:00:00	7	Dirección del viento	6.44
128431	7	Sololá	704	Santa Lucía Utatlán 	7	Santa Rita 	11	Noviembre	2023-11-11T00:00:00	2024-11-08T16:00:00	1	Precipitación	0
128432	7	Sololá	704	Santa Lucía Utatlán 	7	Santa Rita 	11	Noviembre	2023-11-11T00:00:00	2024-11-08T16:00:00	8	Radiación solar	56
128433	7	Sololá	704	Santa Lucía Utatlán 	7	Santa Rita 	11	Noviembre	2023-11-11T00:00:00	2024-11-08T17:00:00	2	Temperatura media	20.4
128434	7	Sololá	704	Santa Lucía Utatlán 	7	Santa Rita 	11	Noviembre	2023-11-11T00:00:00	2024-11-08T17:00:00	4	Temperatura máxima	20.8
128435	7	Sololá	704	Santa Lucía Utatlán 	7	Santa Rita 	11	Noviembre	2023-11-11T00:00:00	2024-11-08T17:00:00	3	Temperatura mínima	20.4
128436	7	Sololá	704	Santa Lucía Utatlán 	7	Santa Rita 	11	Noviembre	2023-11-11T00:00:00	2024-11-08T17:00:00	5	Humedad	80
128437	7	Sololá	704	Santa Lucía Utatlán 	7	Santa Rita 	11	Noviembre	2023-11-11T00:00:00	2024-11-08T17:00:00	6	Velocidad del viento	6.4
128438	7	Sololá	704	Santa Lucía Utatlán 	7	Santa Rita 	11	Noviembre	2023-11-11T00:00:00	2024-11-08T17:00:00	7	Dirección del viento	6.44
128439	7	Sololá	704	Santa Lucía Utatlán 	7	Santa Rita 	11	Noviembre	2023-11-11T00:00:00	2024-11-08T17:00:00	1	Precipitación	0
128440	7	Sololá	704	Santa Lucía Utatlán 	7	Santa Rita 	11	Noviembre	2023-11-11T00:00:00	2024-11-08T17:00:00	8	Radiación solar	6
128441	7	Sololá	704	Santa Lucía Utatlán 	7	Santa Rita 	11	Noviembre	2023-11-11T00:00:00	2024-11-08T18:00:00	2	Temperatura media	21
128442	7	Sololá	704	Santa Lucía Utatlán 	7	Santa Rita 	11	Noviembre	2023-11-11T00:00:00	2024-11-08T18:00:00	4	Temperatura máxima	21.1
128443	7	Sololá	704	Santa Lucía Utatlán 	7	Santa Rita 	11	Noviembre	2023-11-11T00:00:00	2024-11-08T18:00:00	3	Temperatura mínima	20.3
128444	7	Sololá	704	Santa Lucía Utatlán 	7	Santa Rita 	11	Noviembre	2023-11-11T00:00:00	2024-11-08T18:00:00	5	Humedad	76
128445	7	Sololá	704	Santa Lucía Utatlán 	7	Santa Rita 	11	Noviembre	2023-11-11T00:00:00	2024-11-08T18:00:00	6	Velocidad del viento	8
128446	7	Sololá	704	Santa Lucía Utatlán 	7	Santa Rita 	11	Noviembre	2023-11-11T00:00:00	2024-11-08T18:00:00	7	Dirección del viento	8.05
128447	7	Sololá	704	Santa Lucía Utatlán 	7	Santa Rita 	11	Noviembre	2023-11-11T00:00:00	2024-11-08T18:00:00	1	Precipitación	0
128448	7	Sololá	704	Santa Lucía Utatlán 	7	Santa Rita 	11	Noviembre	2023-11-11T00:00:00	2024-11-08T18:00:00	8	Radiación solar	0
128449	7	Sololá	704	Santa Lucía Utatlán 	7	Santa Rita 	11	Noviembre	2023-11-11T00:00:00	2024-11-08T19:00:00	2	Temperatura media	22.2
128450	7	Sololá	704	Santa Lucía Utatlán 	7	Santa Rita 	11	Noviembre	2023-11-11T00:00:00	2024-11-08T19:00:00	4	Temperatura máxima	22.3
128451	7	Sololá	704	Santa Lucía Utatlán 	7	Santa Rita 	11	Noviembre	2023-11-11T00:00:00	2024-11-08T19:00:00	3	Temperatura mínima	21
128452	7	Sololá	704	Santa Lucía Utatlán 	7	Santa Rita 	11	Noviembre	2023-11-11T00:00:00	2024-11-08T19:00:00	5	Humedad	72
128453	7	Sololá	704	Santa Lucía Utatlán 	7	Santa Rita 	11	Noviembre	2023-11-11T00:00:00	2024-11-08T19:00:00	6	Velocidad del viento	9.7
128454	7	Sololá	704	Santa Lucía Utatlán 	7	Santa Rita 	11	Noviembre	2023-11-11T00:00:00	2024-11-08T19:00:00	7	Dirección del viento	9.66
128455	7	Sololá	704	Santa Lucía Utatlán 	7	Santa Rita 	11	Noviembre	2023-11-11T00:00:00	2024-11-08T19:00:00	1	Precipitación	0
128456	7	Sololá	704	Santa Lucía Utatlán 	7	Santa Rita 	11	Noviembre	2023-11-11T00:00:00	2024-11-08T19:00:00	8	Radiación solar	0
128457	7	Sololá	704	Santa Lucía Utatlán 	7	Santa Rita 	11	Noviembre	2023-11-11T00:00:00	2024-11-08T20:00:00	2	Temperatura media	23.8
128458	7	Sololá	704	Santa Lucía Utatlán 	7	Santa Rita 	11	Noviembre	2023-11-11T00:00:00	2024-11-08T20:00:00	4	Temperatura máxima	23.8
128459	7	Sololá	704	Santa Lucía Utatlán 	7	Santa Rita 	11	Noviembre	2023-11-11T00:00:00	2024-11-08T20:00:00	3	Temperatura mínima	22
128460	7	Sololá	704	Santa Lucía Utatlán 	7	Santa Rita 	11	Noviembre	2023-11-11T00:00:00	2024-11-08T20:00:00	5	Humedad	68
128461	7	Sololá	704	Santa Lucía Utatlán 	7	Santa Rita 	11	Noviembre	2023-11-11T00:00:00	2024-11-08T20:00:00	6	Velocidad del viento	9.7
128462	7	Sololá	704	Santa Lucía Utatlán 	7	Santa Rita 	11	Noviembre	2023-11-11T00:00:00	2024-11-08T20:00:00	7	Dirección del viento	9.66
128463	7	Sololá	704	Santa Lucía Utatlán 	7	Santa Rita 	11	Noviembre	2023-11-11T00:00:00	2024-11-08T20:00:00	1	Precipitación	0
128464	7	Sololá	704	Santa Lucía Utatlán 	7	Santa Rita 	11	Noviembre	2023-11-11T00:00:00	2024-11-08T20:00:00	8	Radiación solar	0
128465	7	Sololá	704	Santa Lucía Utatlán 	7	Santa Rita 	11	Noviembre	2023-11-11T00:00:00	2024-11-08T21:00:00	2	Temperatura media	23.3
128466	7	Sololá	704	Santa Lucía Utatlán 	7	Santa Rita 	11	Noviembre	2023-11-11T00:00:00	2024-11-08T21:00:00	4	Temperatura máxima	23.8
128467	7	Sololá	704	Santa Lucía Utatlán 	7	Santa Rita 	11	Noviembre	2023-11-11T00:00:00	2024-11-08T21:00:00	3	Temperatura mínima	23.3
128468	7	Sololá	704	Santa Lucía Utatlán 	7	Santa Rita 	11	Noviembre	2023-11-11T00:00:00	2024-11-08T21:00:00	5	Humedad	69
128469	7	Sololá	704	Santa Lucía Utatlán 	7	Santa Rita 	11	Noviembre	2023-11-11T00:00:00	2024-11-08T21:00:00	6	Velocidad del viento	12.9
128470	7	Sololá	704	Santa Lucía Utatlán 	7	Santa Rita 	11	Noviembre	2023-11-11T00:00:00	2024-11-08T21:00:00	7	Dirección del viento	12.87
128471	7	Sololá	704	Santa Lucía Utatlán 	7	Santa Rita 	11	Noviembre	2023-11-11T00:00:00	2024-11-08T21:00:00	1	Precipitación	0
128472	7	Sololá	704	Santa Lucía Utatlán 	7	Santa Rita 	11	Noviembre	2023-11-11T00:00:00	2024-11-08T21:00:00	8	Radiación solar	0
128473	7	Sololá	704	Santa Lucía Utatlán 	7	Santa Rita 	11	Noviembre	2023-11-11T00:00:00	2024-11-08T22:00:00	2	Temperatura media	24
128474	7	Sololá	704	Santa Lucía Utatlán 	7	Santa Rita 	11	Noviembre	2023-11-11T00:00:00	2024-11-08T22:00:00	4	Temperatura máxima	24.2
128475	7	Sololá	704	Santa Lucía Utatlán 	7	Santa Rita 	11	Noviembre	2023-11-11T00:00:00	2024-11-08T22:00:00	3	Temperatura mínima	22.7
128476	7	Sololá	704	Santa Lucía Utatlán 	7	Santa Rita 	11	Noviembre	2023-11-11T00:00:00	2024-11-08T22:00:00	5	Humedad	67
128477	7	Sololá	704	Santa Lucía Utatlán 	7	Santa Rita 	11	Noviembre	2023-11-11T00:00:00	2024-11-08T22:00:00	6	Velocidad del viento	12.9
128478	7	Sololá	704	Santa Lucía Utatlán 	7	Santa Rita 	11	Noviembre	2023-11-11T00:00:00	2024-11-08T22:00:00	7	Dirección del viento	12.87
128479	7	Sololá	704	Santa Lucía Utatlán 	7	Santa Rita 	11	Noviembre	2023-11-11T00:00:00	2024-11-08T22:00:00	1	Precipitación	0
128480	7	Sololá	704	Santa Lucía Utatlán 	7	Santa Rita 	11	Noviembre	2023-11-11T00:00:00	2024-11-08T22:00:00	8	Radiación solar	0
128481	7	Sololá	704	Santa Lucía Utatlán 	7	Santa Rita 	11	Noviembre	2023-11-11T00:00:00	2024-11-08T23:00:00	2	Temperatura media	24.1
128482	7	Sololá	704	Santa Lucía Utatlán 	7	Santa Rita 	11	Noviembre	2023-11-11T00:00:00	2024-11-08T23:00:00	4	Temperatura máxima	24.4
128483	7	Sololá	704	Santa Lucía Utatlán 	7	Santa Rita 	11	Noviembre	2023-11-11T00:00:00	2024-11-08T23:00:00	3	Temperatura mínima	23.6
128484	7	Sololá	704	Santa Lucía Utatlán 	7	Santa Rita 	11	Noviembre	2023-11-11T00:00:00	2024-11-08T23:00:00	5	Humedad	67
128485	7	Sololá	704	Santa Lucía Utatlán 	7	Santa Rita 	11	Noviembre	2023-11-11T00:00:00	2024-11-08T23:00:00	6	Velocidad del viento	12.9
128486	7	Sololá	704	Santa Lucía Utatlán 	7	Santa Rita 	11	Noviembre	2023-11-11T00:00:00	2024-11-08T23:00:00	7	Dirección del viento	12.87
128487	7	Sololá	704	Santa Lucía Utatlán 	7	Santa Rita 	11	Noviembre	2023-11-11T00:00:00	2024-11-08T23:00:00	1	Precipitación	0
128488	7	Sololá	704	Santa Lucía Utatlán 	7	Santa Rita 	11	Noviembre	2023-11-11T00:00:00	2024-11-08T23:00:00	8	Radiación solar	0
128489	7	Sololá	704	Santa Lucía Utatlán 	7	Santa Rita 	11	Noviembre	2023-12-11T00:00:00	2024-11-08T00:00:00	2	Temperatura media	24.8
128490	7	Sololá	704	Santa Lucía Utatlán 	7	Santa Rita 	11	Noviembre	2023-12-11T00:00:00	2024-11-08T00:00:00	4	Temperatura máxima	25.6
128491	7	Sololá	704	Santa Lucía Utatlán 	7	Santa Rita 	11	Noviembre	2023-12-11T00:00:00	2024-11-08T00:00:00	3	Temperatura mínima	23.9
128492	7	Sololá	704	Santa Lucía Utatlán 	7	Santa Rita 	11	Noviembre	2023-12-11T00:00:00	2024-11-08T00:00:00	5	Humedad	64
128493	7	Sololá	704	Santa Lucía Utatlán 	7	Santa Rita 	11	Noviembre	2023-12-11T00:00:00	2024-11-08T00:00:00	6	Velocidad del viento	12.9
128494	7	Sololá	704	Santa Lucía Utatlán 	7	Santa Rita 	11	Noviembre	2023-12-11T00:00:00	2024-11-08T00:00:00	7	Dirección del viento	12.87
128495	7	Sololá	704	Santa Lucía Utatlán 	7	Santa Rita 	11	Noviembre	2023-12-11T00:00:00	2024-11-08T00:00:00	1	Precipitación	0
128496	7	Sololá	704	Santa Lucía Utatlán 	7	Santa Rita 	11	Noviembre	2023-12-11T00:00:00	2024-11-08T00:00:00	8	Radiación solar	0
128497	7	Sololá	704	Santa Lucía Utatlán 	7	Santa Rita 	11	Noviembre	2023-12-11T00:00:00	2024-11-08T01:00:00	2	Temperatura media	25.6
128498	7	Sololá	704	Santa Lucía Utatlán 	7	Santa Rita 	11	Noviembre	2023-12-11T00:00:00	2024-11-08T01:00:00	4	Temperatura máxima	25.8
128499	7	Sololá	704	Santa Lucía Utatlán 	7	Santa Rita 	11	Noviembre	2023-12-11T00:00:00	2024-11-08T01:00:00	3	Temperatura mínima	24.7
128500	7	Sololá	704	Santa Lucía Utatlán 	7	Santa Rita 	11	Noviembre	2023-12-11T00:00:00	2024-11-08T01:00:00	5	Humedad	62
128501	7	Sololá	704	Santa Lucía Utatlán 	7	Santa Rita 	11	Noviembre	2023-12-11T00:00:00	2024-11-08T01:00:00	6	Velocidad del viento	12.9
128502	7	Sololá	704	Santa Lucía Utatlán 	7	Santa Rita 	11	Noviembre	2023-12-11T00:00:00	2024-11-08T01:00:00	7	Dirección del viento	12.87
128503	7	Sololá	704	Santa Lucía Utatlán 	7	Santa Rita 	11	Noviembre	2023-12-11T00:00:00	2024-11-08T01:00:00	1	Precipitación	0
128504	7	Sololá	704	Santa Lucía Utatlán 	7	Santa Rita 	11	Noviembre	2023-12-11T00:00:00	2024-11-08T01:00:00	8	Radiación solar	0
128505	7	Sololá	704	Santa Lucía Utatlán 	7	Santa Rita 	11	Noviembre	2023-12-11T00:00:00	2024-11-08T02:00:00	2	Temperatura media	25.3
128506	7	Sololá	704	Santa Lucía Utatlán 	7	Santa Rita 	11	Noviembre	2023-12-11T00:00:00	2024-11-08T02:00:00	4	Temperatura máxima	26.3
128507	7	Sololá	704	Santa Lucía Utatlán 	7	Santa Rita 	11	Noviembre	2023-12-11T00:00:00	2024-11-08T02:00:00	3	Temperatura mínima	25.3
128508	7	Sololá	704	Santa Lucía Utatlán 	7	Santa Rita 	11	Noviembre	2023-12-11T00:00:00	2024-11-08T02:00:00	5	Humedad	62
128509	7	Sololá	704	Santa Lucía Utatlán 	7	Santa Rita 	11	Noviembre	2023-12-11T00:00:00	2024-11-08T02:00:00	6	Velocidad del viento	8
128510	7	Sololá	704	Santa Lucía Utatlán 	7	Santa Rita 	11	Noviembre	2023-12-11T00:00:00	2024-11-08T02:00:00	7	Dirección del viento	8.05
128511	7	Sololá	704	Santa Lucía Utatlán 	7	Santa Rita 	11	Noviembre	2023-12-11T00:00:00	2024-11-08T02:00:00	1	Precipitación	0
128512	7	Sololá	704	Santa Lucía Utatlán 	7	Santa Rita 	11	Noviembre	2023-12-11T00:00:00	2024-11-08T02:00:00	8	Radiación solar	0
128513	7	Sololá	704	Santa Lucía Utatlán 	7	Santa Rita 	11	Noviembre	2023-12-11T00:00:00	2024-11-08T03:00:00	2	Temperatura media	25.4
128514	7	Sololá	704	Santa Lucía Utatlán 	7	Santa Rita 	11	Noviembre	2023-12-11T00:00:00	2024-11-08T03:00:00	4	Temperatura máxima	25.8
128515	7	Sololá	704	Santa Lucía Utatlán 	7	Santa Rita 	11	Noviembre	2023-12-11T00:00:00	2024-11-08T03:00:00	3	Temperatura mínima	24.6
128516	7	Sololá	704	Santa Lucía Utatlán 	7	Santa Rita 	11	Noviembre	2023-12-11T00:00:00	2024-11-08T03:00:00	5	Humedad	62
128517	7	Sololá	704	Santa Lucía Utatlán 	7	Santa Rita 	11	Noviembre	2023-12-11T00:00:00	2024-11-08T03:00:00	6	Velocidad del viento	9.7
128518	7	Sololá	704	Santa Lucía Utatlán 	7	Santa Rita 	11	Noviembre	2023-12-11T00:00:00	2024-11-08T03:00:00	7	Dirección del viento	9.66
128519	7	Sololá	704	Santa Lucía Utatlán 	7	Santa Rita 	11	Noviembre	2023-12-11T00:00:00	2024-11-08T03:00:00	1	Precipitación	0
128520	7	Sololá	704	Santa Lucía Utatlán 	7	Santa Rita 	11	Noviembre	2023-12-11T00:00:00	2024-11-08T03:00:00	8	Radiación solar	0
128521	7	Sololá	704	Santa Lucía Utatlán 	7	Santa Rita 	11	Noviembre	2023-12-11T00:00:00	2024-11-08T04:00:00	2	Temperatura media	23.4
128522	7	Sololá	704	Santa Lucía Utatlán 	7	Santa Rita 	11	Noviembre	2023-12-11T00:00:00	2024-11-08T04:00:00	4	Temperatura máxima	25.4
128523	7	Sololá	704	Santa Lucía Utatlán 	7	Santa Rita 	11	Noviembre	2023-12-11T00:00:00	2024-11-08T04:00:00	3	Temperatura mínima	23.4
128524	7	Sololá	704	Santa Lucía Utatlán 	7	Santa Rita 	11	Noviembre	2023-12-11T00:00:00	2024-11-08T04:00:00	5	Humedad	70
128525	7	Sololá	704	Santa Lucía Utatlán 	7	Santa Rita 	11	Noviembre	2023-12-11T00:00:00	2024-11-08T04:00:00	6	Velocidad del viento	6.4
128526	7	Sololá	704	Santa Lucía Utatlán 	7	Santa Rita 	11	Noviembre	2023-12-11T00:00:00	2024-11-08T04:00:00	7	Dirección del viento	6.44
128527	7	Sololá	704	Santa Lucía Utatlán 	7	Santa Rita 	11	Noviembre	2023-12-11T00:00:00	2024-11-08T04:00:00	1	Precipitación	0
128528	7	Sololá	704	Santa Lucía Utatlán 	7	Santa Rita 	11	Noviembre	2023-12-11T00:00:00	2024-11-08T04:00:00	8	Radiación solar	0
128529	7	Sololá	704	Santa Lucía Utatlán 	7	Santa Rita 	11	Noviembre	2023-12-11T00:00:00	2024-11-08T05:00:00	2	Temperatura media	22.2
128530	7	Sololá	704	Santa Lucía Utatlán 	7	Santa Rita 	11	Noviembre	2023-12-11T00:00:00	2024-11-08T05:00:00	4	Temperatura máxima	23.4
128531	7	Sololá	704	Santa Lucía Utatlán 	7	Santa Rita 	11	Noviembre	2023-12-11T00:00:00	2024-11-08T05:00:00	3	Temperatura mínima	22.2
128532	7	Sololá	704	Santa Lucía Utatlán 	7	Santa Rita 	11	Noviembre	2023-12-11T00:00:00	2024-11-08T05:00:00	5	Humedad	72
128533	7	Sololá	704	Santa Lucía Utatlán 	7	Santa Rita 	11	Noviembre	2023-12-11T00:00:00	2024-11-08T05:00:00	6	Velocidad del viento	6.4
128534	7	Sololá	704	Santa Lucía Utatlán 	7	Santa Rita 	11	Noviembre	2023-12-11T00:00:00	2024-11-08T05:00:00	7	Dirección del viento	6.44
128535	7	Sololá	704	Santa Lucía Utatlán 	7	Santa Rita 	11	Noviembre	2023-12-11T00:00:00	2024-11-08T05:00:00	1	Precipitación	0
128536	7	Sololá	704	Santa Lucía Utatlán 	7	Santa Rita 	11	Noviembre	2023-12-11T00:00:00	2024-11-08T05:00:00	8	Radiación solar	0
128537	7	Sololá	704	Santa Lucía Utatlán 	7	Santa Rita 	11	Noviembre	2023-12-11T00:00:00	2024-11-08T06:00:00	2	Temperatura media	21.2
128538	7	Sololá	704	Santa Lucía Utatlán 	7	Santa Rita 	11	Noviembre	2023-12-11T00:00:00	2024-11-08T06:00:00	4	Temperatura máxima	22.2
128539	7	Sololá	704	Santa Lucía Utatlán 	7	Santa Rita 	11	Noviembre	2023-12-11T00:00:00	2024-11-08T06:00:00	3	Temperatura mínima	21.2
128540	7	Sololá	704	Santa Lucía Utatlán 	7	Santa Rita 	11	Noviembre	2023-12-11T00:00:00	2024-11-08T06:00:00	5	Humedad	74
128541	7	Sololá	704	Santa Lucía Utatlán 	7	Santa Rita 	11	Noviembre	2023-12-11T00:00:00	2024-11-08T06:00:00	6	Velocidad del viento	8
128542	7	Sololá	704	Santa Lucía Utatlán 	7	Santa Rita 	11	Noviembre	2023-12-11T00:00:00	2024-11-08T06:00:00	7	Dirección del viento	8.05
128543	7	Sololá	704	Santa Lucía Utatlán 	7	Santa Rita 	11	Noviembre	2023-12-11T00:00:00	2024-11-08T06:00:00	1	Precipitación	0
128544	7	Sololá	704	Santa Lucía Utatlán 	7	Santa Rita 	11	Noviembre	2023-12-11T00:00:00	2024-11-08T06:00:00	8	Radiación solar	24
128545	7	Sololá	704	Santa Lucía Utatlán 	7	Santa Rita 	11	Noviembre	2023-12-11T00:00:00	2024-11-08T07:00:00	2	Temperatura media	21.2
128546	7	Sololá	704	Santa Lucía Utatlán 	7	Santa Rita 	11	Noviembre	2023-12-11T00:00:00	2024-11-08T07:00:00	4	Temperatura máxima	21.3
128547	7	Sololá	704	Santa Lucía Utatlán 	7	Santa Rita 	11	Noviembre	2023-12-11T00:00:00	2024-11-08T07:00:00	3	Temperatura mínima	21.1
128548	7	Sololá	704	Santa Lucía Utatlán 	7	Santa Rita 	11	Noviembre	2023-12-11T00:00:00	2024-11-08T07:00:00	5	Humedad	74
128549	7	Sololá	704	Santa Lucía Utatlán 	7	Santa Rita 	11	Noviembre	2023-12-11T00:00:00	2024-11-08T07:00:00	6	Velocidad del viento	9.7
128550	7	Sololá	704	Santa Lucía Utatlán 	7	Santa Rita 	11	Noviembre	2023-12-11T00:00:00	2024-11-08T07:00:00	7	Dirección del viento	9.66
128551	7	Sololá	704	Santa Lucía Utatlán 	7	Santa Rita 	11	Noviembre	2023-12-11T00:00:00	2024-11-08T07:00:00	1	Precipitación	0
128552	7	Sololá	704	Santa Lucía Utatlán 	7	Santa Rita 	11	Noviembre	2023-12-11T00:00:00	2024-11-08T07:00:00	8	Radiación solar	201
128553	7	Sololá	704	Santa Lucía Utatlán 	7	Santa Rita 	11	Noviembre	2023-12-11T00:00:00	2024-11-08T08:00:00	2	Temperatura media	20.7
128554	7	Sololá	704	Santa Lucía Utatlán 	7	Santa Rita 	11	Noviembre	2023-12-11T00:00:00	2024-11-08T08:00:00	4	Temperatura máxima	21.2
128555	7	Sololá	704	Santa Lucía Utatlán 	7	Santa Rita 	11	Noviembre	2023-12-11T00:00:00	2024-11-08T08:00:00	3	Temperatura mínima	20.7
128556	7	Sololá	704	Santa Lucía Utatlán 	7	Santa Rita 	11	Noviembre	2023-12-11T00:00:00	2024-11-08T08:00:00	5	Humedad	74
128557	7	Sololá	704	Santa Lucía Utatlán 	7	Santa Rita 	11	Noviembre	2023-12-11T00:00:00	2024-11-08T08:00:00	6	Velocidad del viento	11.3
128558	7	Sololá	704	Santa Lucía Utatlán 	7	Santa Rita 	11	Noviembre	2023-12-11T00:00:00	2024-11-08T08:00:00	7	Dirección del viento	11.27
128559	7	Sololá	704	Santa Lucía Utatlán 	7	Santa Rita 	11	Noviembre	2023-12-11T00:00:00	2024-11-08T08:00:00	1	Precipitación	0
128560	7	Sololá	704	Santa Lucía Utatlán 	7	Santa Rita 	11	Noviembre	2023-12-11T00:00:00	2024-11-08T08:00:00	8	Radiación solar	433
128561	7	Sololá	704	Santa Lucía Utatlán 	7	Santa Rita 	11	Noviembre	2023-12-11T00:00:00	2024-11-08T09:00:00	2	Temperatura media	20
128562	7	Sololá	704	Santa Lucía Utatlán 	7	Santa Rita 	11	Noviembre	2023-12-11T00:00:00	2024-11-08T09:00:00	4	Temperatura máxima	20.7
128563	7	Sololá	704	Santa Lucía Utatlán 	7	Santa Rita 	11	Noviembre	2023-12-11T00:00:00	2024-11-08T09:00:00	3	Temperatura mínima	20
128564	7	Sololá	704	Santa Lucía Utatlán 	7	Santa Rita 	11	Noviembre	2023-12-11T00:00:00	2024-11-08T09:00:00	5	Humedad	75
128565	7	Sololá	704	Santa Lucía Utatlán 	7	Santa Rita 	11	Noviembre	2023-12-11T00:00:00	2024-11-08T09:00:00	6	Velocidad del viento	8
128566	7	Sololá	704	Santa Lucía Utatlán 	7	Santa Rita 	11	Noviembre	2023-12-11T00:00:00	2024-11-08T09:00:00	7	Dirección del viento	8.05
128567	7	Sololá	704	Santa Lucía Utatlán 	7	Santa Rita 	11	Noviembre	2023-12-11T00:00:00	2024-11-08T09:00:00	1	Precipitación	0
128568	7	Sololá	704	Santa Lucía Utatlán 	7	Santa Rita 	11	Noviembre	2023-12-11T00:00:00	2024-11-08T09:00:00	8	Radiación solar	618
128569	7	Sololá	704	Santa Lucía Utatlán 	7	Santa Rita 	11	Noviembre	2023-12-11T00:00:00	2024-11-08T10:00:00	2	Temperatura media	19.7
128570	7	Sololá	704	Santa Lucía Utatlán 	7	Santa Rita 	11	Noviembre	2023-12-11T00:00:00	2024-11-08T10:00:00	4	Temperatura máxima	20.2
128571	7	Sololá	704	Santa Lucía Utatlán 	7	Santa Rita 	11	Noviembre	2023-12-11T00:00:00	2024-11-08T10:00:00	3	Temperatura mínima	19.6
128572	7	Sololá	704	Santa Lucía Utatlán 	7	Santa Rita 	11	Noviembre	2023-12-11T00:00:00	2024-11-08T10:00:00	5	Humedad	74
128573	7	Sololá	704	Santa Lucía Utatlán 	7	Santa Rita 	11	Noviembre	2023-12-11T00:00:00	2024-11-08T10:00:00	6	Velocidad del viento	6.4
128574	7	Sololá	704	Santa Lucía Utatlán 	7	Santa Rita 	11	Noviembre	2023-12-11T00:00:00	2024-11-08T10:00:00	7	Dirección del viento	6.44
128575	7	Sololá	704	Santa Lucía Utatlán 	7	Santa Rita 	11	Noviembre	2023-12-11T00:00:00	2024-11-08T10:00:00	1	Precipitación	0
128576	7	Sololá	704	Santa Lucía Utatlán 	7	Santa Rita 	11	Noviembre	2023-12-11T00:00:00	2024-11-08T10:00:00	8	Radiación solar	721
128577	7	Sololá	704	Santa Lucía Utatlán 	7	Santa Rita 	11	Noviembre	2023-12-11T00:00:00	2024-11-08T11:00:00	2	Temperatura media	19.7
128578	7	Sololá	704	Santa Lucía Utatlán 	7	Santa Rita 	11	Noviembre	2023-12-11T00:00:00	2024-11-08T11:00:00	4	Temperatura máxima	19.8
128579	7	Sololá	704	Santa Lucía Utatlán 	7	Santa Rita 	11	Noviembre	2023-12-11T00:00:00	2024-11-08T11:00:00	3	Temperatura mínima	19.3
128580	7	Sololá	704	Santa Lucía Utatlán 	7	Santa Rita 	11	Noviembre	2023-12-11T00:00:00	2024-11-08T11:00:00	5	Humedad	74
128581	7	Sololá	704	Santa Lucía Utatlán 	7	Santa Rita 	11	Noviembre	2023-12-11T00:00:00	2024-11-08T11:00:00	6	Velocidad del viento	8
128582	7	Sololá	704	Santa Lucía Utatlán 	7	Santa Rita 	11	Noviembre	2023-12-11T00:00:00	2024-11-08T11:00:00	7	Dirección del viento	8.05
128583	7	Sololá	704	Santa Lucía Utatlán 	7	Santa Rita 	11	Noviembre	2023-12-11T00:00:00	2024-11-08T11:00:00	1	Precipitación	0
128584	7	Sololá	704	Santa Lucía Utatlán 	7	Santa Rita 	11	Noviembre	2023-12-11T00:00:00	2024-11-08T11:00:00	8	Radiación solar	773
128585	7	Sololá	704	Santa Lucía Utatlán 	7	Santa Rita 	11	Noviembre	2023-12-11T00:00:00	2024-11-08T12:00:00	2	Temperatura media	19.7
128586	7	Sololá	704	Santa Lucía Utatlán 	7	Santa Rita 	11	Noviembre	2023-12-11T00:00:00	2024-11-08T12:00:00	4	Temperatura máxima	19.8
128587	7	Sololá	704	Santa Lucía Utatlán 	7	Santa Rita 	11	Noviembre	2023-12-11T00:00:00	2024-11-08T12:00:00	3	Temperatura mínima	18.4
128588	7	Sololá	704	Santa Lucía Utatlán 	7	Santa Rita 	11	Noviembre	2023-12-11T00:00:00	2024-11-08T12:00:00	5	Humedad	74
128589	7	Sololá	704	Santa Lucía Utatlán 	7	Santa Rita 	11	Noviembre	2023-12-11T00:00:00	2024-11-08T12:00:00	6	Velocidad del viento	9.7
128590	7	Sololá	704	Santa Lucía Utatlán 	7	Santa Rita 	11	Noviembre	2023-12-11T00:00:00	2024-11-08T12:00:00	7	Dirección del viento	9.66
128591	7	Sololá	704	Santa Lucía Utatlán 	7	Santa Rita 	11	Noviembre	2023-12-11T00:00:00	2024-11-08T12:00:00	1	Precipitación	0
128592	7	Sololá	704	Santa Lucía Utatlán 	7	Santa Rita 	11	Noviembre	2023-12-11T00:00:00	2024-11-08T12:00:00	8	Radiación solar	716
128593	7	Sololá	704	Santa Lucía Utatlán 	7	Santa Rita 	11	Noviembre	2023-12-11T00:00:00	2024-11-08T13:00:00	2	Temperatura media	19.2
128594	7	Sololá	704	Santa Lucía Utatlán 	7	Santa Rita 	11	Noviembre	2023-12-11T00:00:00	2024-11-08T13:00:00	4	Temperatura máxima	19.9
128595	7	Sololá	704	Santa Lucía Utatlán 	7	Santa Rita 	11	Noviembre	2023-12-11T00:00:00	2024-11-08T13:00:00	3	Temperatura mínima	19.2
128596	7	Sololá	704	Santa Lucía Utatlán 	7	Santa Rita 	11	Noviembre	2023-12-11T00:00:00	2024-11-08T13:00:00	5	Humedad	72
128597	7	Sololá	704	Santa Lucía Utatlán 	7	Santa Rita 	11	Noviembre	2023-12-11T00:00:00	2024-11-08T13:00:00	6	Velocidad del viento	8
128598	7	Sololá	704	Santa Lucía Utatlán 	7	Santa Rita 	11	Noviembre	2023-12-11T00:00:00	2024-11-08T13:00:00	7	Dirección del viento	8.05
128599	7	Sololá	704	Santa Lucía Utatlán 	7	Santa Rita 	11	Noviembre	2023-12-11T00:00:00	2024-11-08T13:00:00	1	Precipitación	0
128600	7	Sololá	704	Santa Lucía Utatlán 	7	Santa Rita 	11	Noviembre	2023-12-11T00:00:00	2024-11-08T13:00:00	8	Radiación solar	728
128601	7	Sololá	704	Santa Lucía Utatlán 	7	Santa Rita 	11	Noviembre	2023-12-11T00:00:00	2024-11-08T14:00:00	2	Temperatura media	19.8
128602	7	Sololá	704	Santa Lucía Utatlán 	7	Santa Rita 	11	Noviembre	2023-12-11T00:00:00	2024-11-08T14:00:00	4	Temperatura máxima	19.8
128603	7	Sololá	704	Santa Lucía Utatlán 	7	Santa Rita 	11	Noviembre	2023-12-11T00:00:00	2024-11-08T14:00:00	3	Temperatura mínima	18.8
128604	7	Sololá	704	Santa Lucía Utatlán 	7	Santa Rita 	11	Noviembre	2023-12-11T00:00:00	2024-11-08T14:00:00	5	Humedad	74
128605	7	Sololá	704	Santa Lucía Utatlán 	7	Santa Rita 	11	Noviembre	2023-12-11T00:00:00	2024-11-08T14:00:00	6	Velocidad del viento	8
128606	7	Sololá	704	Santa Lucía Utatlán 	7	Santa Rita 	11	Noviembre	2023-12-11T00:00:00	2024-11-08T14:00:00	7	Dirección del viento	8.05
128607	7	Sololá	704	Santa Lucía Utatlán 	7	Santa Rita 	11	Noviembre	2023-12-11T00:00:00	2024-11-08T14:00:00	1	Precipitación	0
128608	7	Sololá	704	Santa Lucía Utatlán 	7	Santa Rita 	11	Noviembre	2023-12-11T00:00:00	2024-11-08T14:00:00	8	Radiación solar	516
128609	7	Sololá	704	Santa Lucía Utatlán 	7	Santa Rita 	11	Noviembre	2023-12-11T00:00:00	2024-11-08T15:00:00	2	Temperatura media	19.6
128610	7	Sololá	704	Santa Lucía Utatlán 	7	Santa Rita 	11	Noviembre	2023-12-11T00:00:00	2024-11-08T15:00:00	4	Temperatura máxima	19.8
128611	7	Sololá	704	Santa Lucía Utatlán 	7	Santa Rita 	11	Noviembre	2023-12-11T00:00:00	2024-11-08T15:00:00	3	Temperatura mínima	19.6
128612	7	Sololá	704	Santa Lucía Utatlán 	7	Santa Rita 	11	Noviembre	2023-12-11T00:00:00	2024-11-08T15:00:00	5	Humedad	75
128613	7	Sololá	704	Santa Lucía Utatlán 	7	Santa Rita 	11	Noviembre	2023-12-11T00:00:00	2024-11-08T15:00:00	6	Velocidad del viento	11.3
128614	7	Sololá	704	Santa Lucía Utatlán 	7	Santa Rita 	11	Noviembre	2023-12-11T00:00:00	2024-11-08T15:00:00	7	Dirección del viento	11.27
128615	7	Sololá	704	Santa Lucía Utatlán 	7	Santa Rita 	11	Noviembre	2023-12-11T00:00:00	2024-11-08T15:00:00	1	Precipitación	0
128616	7	Sololá	704	Santa Lucía Utatlán 	7	Santa Rita 	11	Noviembre	2023-12-11T00:00:00	2024-11-08T15:00:00	8	Radiación solar	330
128617	7	Sololá	704	Santa Lucía Utatlán 	7	Santa Rita 	11	Noviembre	2023-12-11T00:00:00	2024-11-08T16:00:00	2	Temperatura media	19.7
128618	7	Sololá	704	Santa Lucía Utatlán 	7	Santa Rita 	11	Noviembre	2023-12-11T00:00:00	2024-11-08T16:00:00	4	Temperatura máxima	19.7
128619	7	Sololá	704	Santa Lucía Utatlán 	7	Santa Rita 	11	Noviembre	2023-12-11T00:00:00	2024-11-08T16:00:00	3	Temperatura mínima	19.5
128620	7	Sololá	704	Santa Lucía Utatlán 	7	Santa Rita 	11	Noviembre	2023-12-11T00:00:00	2024-11-08T16:00:00	5	Humedad	74
128621	7	Sololá	704	Santa Lucía Utatlán 	7	Santa Rita 	11	Noviembre	2023-12-11T00:00:00	2024-11-08T16:00:00	6	Velocidad del viento	11.3
128622	7	Sololá	704	Santa Lucía Utatlán 	7	Santa Rita 	11	Noviembre	2023-12-11T00:00:00	2024-11-08T16:00:00	7	Dirección del viento	11.27
128623	7	Sololá	704	Santa Lucía Utatlán 	7	Santa Rita 	11	Noviembre	2023-12-11T00:00:00	2024-11-08T16:00:00	1	Precipitación	0
128624	7	Sololá	704	Santa Lucía Utatlán 	7	Santa Rita 	11	Noviembre	2023-12-11T00:00:00	2024-11-08T16:00:00	8	Radiación solar	154
128625	7	Sololá	704	Santa Lucía Utatlán 	7	Santa Rita 	11	Noviembre	2023-12-11T00:00:00	2024-11-08T17:00:00	2	Temperatura media	20.2
128626	7	Sololá	704	Santa Lucía Utatlán 	7	Santa Rita 	11	Noviembre	2023-12-11T00:00:00	2024-11-08T17:00:00	4	Temperatura máxima	20.4
128627	7	Sololá	704	Santa Lucía Utatlán 	7	Santa Rita 	11	Noviembre	2023-12-11T00:00:00	2024-11-08T17:00:00	3	Temperatura mínima	19.5
128628	7	Sololá	704	Santa Lucía Utatlán 	7	Santa Rita 	11	Noviembre	2023-12-11T00:00:00	2024-11-08T17:00:00	5	Humedad	67
128629	7	Sololá	704	Santa Lucía Utatlán 	7	Santa Rita 	11	Noviembre	2023-12-11T00:00:00	2024-11-08T17:00:00	6	Velocidad del viento	9.7
128630	7	Sololá	704	Santa Lucía Utatlán 	7	Santa Rita 	11	Noviembre	2023-12-11T00:00:00	2024-11-08T17:00:00	7	Dirección del viento	9.66
128631	7	Sololá	704	Santa Lucía Utatlán 	7	Santa Rita 	11	Noviembre	2023-12-11T00:00:00	2024-11-08T17:00:00	1	Precipitación	0
128632	7	Sololá	704	Santa Lucía Utatlán 	7	Santa Rita 	11	Noviembre	2023-12-11T00:00:00	2024-11-08T17:00:00	8	Radiación solar	20
128633	7	Sololá	704	Santa Lucía Utatlán 	7	Santa Rita 	11	Noviembre	2023-12-11T00:00:00	2024-11-08T18:00:00	2	Temperatura media	21.6
128634	7	Sololá	704	Santa Lucía Utatlán 	7	Santa Rita 	11	Noviembre	2023-12-11T00:00:00	2024-11-08T18:00:00	4	Temperatura máxima	21.6
128635	7	Sololá	704	Santa Lucía Utatlán 	7	Santa Rita 	11	Noviembre	2023-12-11T00:00:00	2024-11-08T18:00:00	3	Temperatura mínima	20.1
128636	7	Sololá	704	Santa Lucía Utatlán 	7	Santa Rita 	11	Noviembre	2023-12-11T00:00:00	2024-11-08T18:00:00	5	Humedad	61
128637	7	Sololá	704	Santa Lucía Utatlán 	7	Santa Rita 	11	Noviembre	2023-12-11T00:00:00	2024-11-08T18:00:00	6	Velocidad del viento	11.3
128638	7	Sololá	704	Santa Lucía Utatlán 	7	Santa Rita 	11	Noviembre	2023-12-11T00:00:00	2024-11-08T18:00:00	7	Dirección del viento	11.27
128639	7	Sololá	704	Santa Lucía Utatlán 	7	Santa Rita 	11	Noviembre	2023-12-11T00:00:00	2024-11-08T18:00:00	1	Precipitación	0
128640	7	Sololá	704	Santa Lucía Utatlán 	7	Santa Rita 	11	Noviembre	2023-12-11T00:00:00	2024-11-08T18:00:00	8	Radiación solar	0
128641	7	Sololá	704	Santa Lucía Utatlán 	7	Santa Rita 	11	Noviembre	2023-12-11T00:00:00	2024-11-08T19:00:00	2	Temperatura media	22.2
128642	7	Sololá	704	Santa Lucía Utatlán 	7	Santa Rita 	11	Noviembre	2023-12-11T00:00:00	2024-11-08T19:00:00	4	Temperatura máxima	22.2
128643	7	Sololá	704	Santa Lucía Utatlán 	7	Santa Rita 	11	Noviembre	2023-12-11T00:00:00	2024-11-08T19:00:00	3	Temperatura mínima	21.3
128644	7	Sololá	704	Santa Lucía Utatlán 	7	Santa Rita 	11	Noviembre	2023-12-11T00:00:00	2024-11-08T19:00:00	5	Humedad	62
128645	7	Sololá	704	Santa Lucía Utatlán 	7	Santa Rita 	11	Noviembre	2023-12-11T00:00:00	2024-11-08T19:00:00	6	Velocidad del viento	14.5
128646	7	Sololá	704	Santa Lucía Utatlán 	7	Santa Rita 	11	Noviembre	2023-12-11T00:00:00	2024-11-08T19:00:00	7	Dirección del viento	14.48
128647	7	Sololá	704	Santa Lucía Utatlán 	7	Santa Rita 	11	Noviembre	2023-12-11T00:00:00	2024-11-08T19:00:00	1	Precipitación	0
128648	7	Sololá	704	Santa Lucía Utatlán 	7	Santa Rita 	11	Noviembre	2023-12-11T00:00:00	2024-11-08T19:00:00	8	Radiación solar	0
128649	7	Sololá	704	Santa Lucía Utatlán 	7	Santa Rita 	11	Noviembre	2023-12-11T00:00:00	2024-11-08T20:00:00	2	Temperatura media	24
128650	7	Sololá	704	Santa Lucía Utatlán 	7	Santa Rita 	11	Noviembre	2023-12-11T00:00:00	2024-11-08T20:00:00	4	Temperatura máxima	24
128651	7	Sololá	704	Santa Lucía Utatlán 	7	Santa Rita 	11	Noviembre	2023-12-11T00:00:00	2024-11-08T20:00:00	3	Temperatura mínima	22.2
128652	7	Sololá	704	Santa Lucía Utatlán 	7	Santa Rita 	11	Noviembre	2023-12-11T00:00:00	2024-11-08T20:00:00	5	Humedad	53
128653	7	Sololá	704	Santa Lucía Utatlán 	7	Santa Rita 	11	Noviembre	2023-12-11T00:00:00	2024-11-08T20:00:00	6	Velocidad del viento	11.3
128654	7	Sololá	704	Santa Lucía Utatlán 	7	Santa Rita 	11	Noviembre	2023-12-11T00:00:00	2024-11-08T20:00:00	7	Dirección del viento	11.27
128655	7	Sololá	704	Santa Lucía Utatlán 	7	Santa Rita 	11	Noviembre	2023-12-11T00:00:00	2024-11-08T20:00:00	1	Precipitación	0
128656	7	Sololá	704	Santa Lucía Utatlán 	7	Santa Rita 	11	Noviembre	2023-12-11T00:00:00	2024-11-08T20:00:00	8	Radiación solar	0
128657	7	Sololá	704	Santa Lucía Utatlán 	7	Santa Rita 	11	Noviembre	2023-12-11T00:00:00	2024-11-08T21:00:00	2	Temperatura media	25.3
128658	7	Sololá	704	Santa Lucía Utatlán 	7	Santa Rita 	11	Noviembre	2023-12-11T00:00:00	2024-11-08T21:00:00	4	Temperatura máxima	25.4
128659	7	Sololá	704	Santa Lucía Utatlán 	7	Santa Rita 	11	Noviembre	2023-12-11T00:00:00	2024-11-08T21:00:00	3	Temperatura mínima	23.9
128660	7	Sololá	704	Santa Lucía Utatlán 	7	Santa Rita 	11	Noviembre	2023-12-11T00:00:00	2024-11-08T21:00:00	5	Humedad	51
128661	7	Sololá	704	Santa Lucía Utatlán 	7	Santa Rita 	11	Noviembre	2023-12-11T00:00:00	2024-11-08T21:00:00	6	Velocidad del viento	8
128662	7	Sololá	704	Santa Lucía Utatlán 	7	Santa Rita 	11	Noviembre	2023-12-11T00:00:00	2024-11-08T21:00:00	7	Dirección del viento	8.05
128663	7	Sololá	704	Santa Lucía Utatlán 	7	Santa Rita 	11	Noviembre	2023-12-11T00:00:00	2024-11-08T21:00:00	1	Precipitación	0
128664	7	Sololá	704	Santa Lucía Utatlán 	7	Santa Rita 	11	Noviembre	2023-12-11T00:00:00	2024-11-08T21:00:00	8	Radiación solar	0
128665	7	Sololá	704	Santa Lucía Utatlán 	7	Santa Rita 	11	Noviembre	2023-12-11T00:00:00	2024-11-08T22:00:00	2	Temperatura media	26.4
128666	7	Sololá	704	Santa Lucía Utatlán 	7	Santa Rita 	11	Noviembre	2023-12-11T00:00:00	2024-11-08T22:00:00	4	Temperatura máxima	27.1
128667	7	Sololá	704	Santa Lucía Utatlán 	7	Santa Rita 	11	Noviembre	2023-12-11T00:00:00	2024-11-08T22:00:00	3	Temperatura mínima	25.3
128668	7	Sololá	704	Santa Lucía Utatlán 	7	Santa Rita 	11	Noviembre	2023-12-11T00:00:00	2024-11-08T22:00:00	5	Humedad	58
128669	7	Sololá	704	Santa Lucía Utatlán 	7	Santa Rita 	11	Noviembre	2023-12-11T00:00:00	2024-11-08T22:00:00	6	Velocidad del viento	6.4
128670	7	Sololá	704	Santa Lucía Utatlán 	7	Santa Rita 	11	Noviembre	2023-12-11T00:00:00	2024-11-08T22:00:00	7	Dirección del viento	6.44
128671	7	Sololá	704	Santa Lucía Utatlán 	7	Santa Rita 	11	Noviembre	2023-12-11T00:00:00	2024-11-08T22:00:00	1	Precipitación	0
128672	7	Sololá	704	Santa Lucía Utatlán 	7	Santa Rita 	11	Noviembre	2023-12-11T00:00:00	2024-11-08T22:00:00	8	Radiación solar	0
128673	7	Sololá	704	Santa Lucía Utatlán 	7	Santa Rita 	11	Noviembre	2023-12-11T00:00:00	2024-11-08T23:00:00	2	Temperatura media	27
128674	7	Sololá	704	Santa Lucía Utatlán 	7	Santa Rita 	11	Noviembre	2023-12-11T00:00:00	2024-11-08T23:00:00	4	Temperatura máxima	28.8
128675	7	Sololá	704	Santa Lucía Utatlán 	7	Santa Rita 	11	Noviembre	2023-12-11T00:00:00	2024-11-08T23:00:00	3	Temperatura mínima	26.3
128676	7	Sololá	704	Santa Lucía Utatlán 	7	Santa Rita 	11	Noviembre	2023-12-11T00:00:00	2024-11-08T23:00:00	5	Humedad	56
128677	7	Sololá	704	Santa Lucía Utatlán 	7	Santa Rita 	11	Noviembre	2023-12-11T00:00:00	2024-11-08T23:00:00	6	Velocidad del viento	4.8
128678	7	Sololá	704	Santa Lucía Utatlán 	7	Santa Rita 	11	Noviembre	2023-12-11T00:00:00	2024-11-08T23:00:00	7	Dirección del viento	4.83
128679	7	Sololá	704	Santa Lucía Utatlán 	7	Santa Rita 	11	Noviembre	2023-12-11T00:00:00	2024-11-08T23:00:00	1	Precipitación	0
128680	7	Sololá	704	Santa Lucía Utatlán 	7	Santa Rita 	11	Noviembre	2023-12-11T00:00:00	2024-11-08T23:00:00	8	Radiación solar	0
128681	7	Sololá	704	Santa Lucía Utatlán 	7	Santa Rita 	11	Noviembre	2023-11-13T00:00:00	2024-11-08T00:00:00	2	Temperatura media	17.6
128682	7	Sololá	704	Santa Lucía Utatlán 	7	Santa Rita 	11	Noviembre	2023-11-13T00:00:00	2024-11-08T00:00:00	4	Temperatura máxima	18
128683	7	Sololá	704	Santa Lucía Utatlán 	7	Santa Rita 	11	Noviembre	2023-11-13T00:00:00	2024-11-08T00:00:00	3	Temperatura mínima	17.6
128684	7	Sololá	704	Santa Lucía Utatlán 	7	Santa Rita 	11	Noviembre	2023-11-13T00:00:00	2024-11-08T00:00:00	5	Humedad	94
128685	7	Sololá	704	Santa Lucía Utatlán 	7	Santa Rita 	11	Noviembre	2023-11-13T00:00:00	2024-11-08T00:00:00	6	Velocidad del viento	1.6
128686	7	Sololá	704	Santa Lucía Utatlán 	7	Santa Rita 	11	Noviembre	2023-11-13T00:00:00	2024-11-08T00:00:00	7	Dirección del viento	1.61
128687	7	Sololá	704	Santa Lucía Utatlán 	7	Santa Rita 	11	Noviembre	2023-11-13T00:00:00	2024-11-08T00:00:00	1	Precipitación	0
128688	7	Sololá	704	Santa Lucía Utatlán 	7	Santa Rita 	11	Noviembre	2023-11-13T00:00:00	2024-11-08T00:00:00	8	Radiación solar	0
128689	7	Sololá	704	Santa Lucía Utatlán 	7	Santa Rita 	11	Noviembre	2023-11-13T00:00:00	2024-11-08T01:00:00	2	Temperatura media	19.6
128690	7	Sololá	704	Santa Lucía Utatlán 	7	Santa Rita 	11	Noviembre	2023-11-13T00:00:00	2024-11-08T01:00:00	4	Temperatura máxima	19.8
128691	7	Sololá	704	Santa Lucía Utatlán 	7	Santa Rita 	11	Noviembre	2023-11-13T00:00:00	2024-11-08T01:00:00	3	Temperatura mínima	17.5
128692	7	Sololá	704	Santa Lucía Utatlán 	7	Santa Rita 	11	Noviembre	2023-11-13T00:00:00	2024-11-08T01:00:00	5	Humedad	83
128693	7	Sololá	704	Santa Lucía Utatlán 	7	Santa Rita 	11	Noviembre	2023-11-13T00:00:00	2024-11-08T01:00:00	6	Velocidad del viento	3.2
128694	7	Sololá	704	Santa Lucía Utatlán 	7	Santa Rita 	11	Noviembre	2023-11-13T00:00:00	2024-11-08T01:00:00	7	Dirección del viento	3.22
128695	7	Sololá	704	Santa Lucía Utatlán 	7	Santa Rita 	11	Noviembre	2023-11-13T00:00:00	2024-11-08T01:00:00	1	Precipitación	0
128696	7	Sololá	704	Santa Lucía Utatlán 	7	Santa Rita 	11	Noviembre	2023-11-13T00:00:00	2024-11-08T01:00:00	8	Radiación solar	0
128697	7	Sololá	704	Santa Lucía Utatlán 	7	Santa Rita 	11	Noviembre	2023-11-13T00:00:00	2024-11-08T02:00:00	2	Temperatura media	18.9
128698	7	Sololá	704	Santa Lucía Utatlán 	7	Santa Rita 	11	Noviembre	2023-11-13T00:00:00	2024-11-08T02:00:00	4	Temperatura máxima	19.6
128699	7	Sololá	704	Santa Lucía Utatlán 	7	Santa Rita 	11	Noviembre	2023-11-13T00:00:00	2024-11-08T02:00:00	3	Temperatura mínima	17.9
128700	7	Sololá	704	Santa Lucía Utatlán 	7	Santa Rita 	11	Noviembre	2023-11-13T00:00:00	2024-11-08T02:00:00	5	Humedad	92
128701	7	Sololá	704	Santa Lucía Utatlán 	7	Santa Rita 	11	Noviembre	2023-11-13T00:00:00	2024-11-08T02:00:00	6	Velocidad del viento	1.6
128702	7	Sololá	704	Santa Lucía Utatlán 	7	Santa Rita 	11	Noviembre	2023-11-13T00:00:00	2024-11-08T02:00:00	7	Dirección del viento	1.61
128703	7	Sololá	704	Santa Lucía Utatlán 	7	Santa Rita 	11	Noviembre	2023-11-13T00:00:00	2024-11-08T02:00:00	1	Precipitación	0
128704	7	Sololá	704	Santa Lucía Utatlán 	7	Santa Rita 	11	Noviembre	2023-11-13T00:00:00	2024-11-08T02:00:00	8	Radiación solar	0
128705	7	Sololá	704	Santa Lucía Utatlán 	7	Santa Rita 	11	Noviembre	2023-11-13T00:00:00	2024-11-08T03:00:00	2	Temperatura media	21.3
128706	7	Sololá	704	Santa Lucía Utatlán 	7	Santa Rita 	11	Noviembre	2023-11-13T00:00:00	2024-11-08T03:00:00	4	Temperatura máxima	21.3
128707	7	Sololá	704	Santa Lucía Utatlán 	7	Santa Rita 	11	Noviembre	2023-11-13T00:00:00	2024-11-08T03:00:00	3	Temperatura mínima	18.9
128708	7	Sololá	704	Santa Lucía Utatlán 	7	Santa Rita 	11	Noviembre	2023-11-13T00:00:00	2024-11-08T03:00:00	5	Humedad	86
128709	7	Sololá	704	Santa Lucía Utatlán 	7	Santa Rita 	11	Noviembre	2023-11-13T00:00:00	2024-11-08T03:00:00	6	Velocidad del viento	1.6
128710	7	Sololá	704	Santa Lucía Utatlán 	7	Santa Rita 	11	Noviembre	2023-11-13T00:00:00	2024-11-08T03:00:00	7	Dirección del viento	1.61
128711	7	Sololá	704	Santa Lucía Utatlán 	7	Santa Rita 	11	Noviembre	2023-11-13T00:00:00	2024-11-08T03:00:00	1	Precipitación	0
128712	7	Sololá	704	Santa Lucía Utatlán 	7	Santa Rita 	11	Noviembre	2023-11-13T00:00:00	2024-11-08T03:00:00	8	Radiación solar	0
128713	7	Sololá	704	Santa Lucía Utatlán 	7	Santa Rita 	11	Noviembre	2023-11-13T00:00:00	2024-11-08T04:00:00	2	Temperatura media	25.5
128714	7	Sololá	704	Santa Lucía Utatlán 	7	Santa Rita 	11	Noviembre	2023-11-13T00:00:00	2024-11-08T04:00:00	4	Temperatura máxima	25.6
128715	7	Sololá	704	Santa Lucía Utatlán 	7	Santa Rita 	11	Noviembre	2023-11-13T00:00:00	2024-11-08T04:00:00	3	Temperatura mínima	21.3
128716	7	Sololá	704	Santa Lucía Utatlán 	7	Santa Rita 	11	Noviembre	2023-11-13T00:00:00	2024-11-08T04:00:00	5	Humedad	73
128717	7	Sololá	704	Santa Lucía Utatlán 	7	Santa Rita 	11	Noviembre	2023-11-13T00:00:00	2024-11-08T04:00:00	6	Velocidad del viento	3.2
128718	7	Sololá	704	Santa Lucía Utatlán 	7	Santa Rita 	11	Noviembre	2023-11-13T00:00:00	2024-11-08T04:00:00	7	Dirección del viento	3.22
128719	7	Sololá	704	Santa Lucía Utatlán 	7	Santa Rita 	11	Noviembre	2023-11-13T00:00:00	2024-11-08T04:00:00	1	Precipitación	0
128720	7	Sololá	704	Santa Lucía Utatlán 	7	Santa Rita 	11	Noviembre	2023-11-13T00:00:00	2024-11-08T04:00:00	8	Radiación solar	0
128721	7	Sololá	704	Santa Lucía Utatlán 	7	Santa Rita 	11	Noviembre	2023-11-13T00:00:00	2024-11-08T05:00:00	2	Temperatura media	25.3
128722	7	Sololá	704	Santa Lucía Utatlán 	7	Santa Rita 	11	Noviembre	2023-11-13T00:00:00	2024-11-08T05:00:00	4	Temperatura máxima	26.1
128723	7	Sololá	704	Santa Lucía Utatlán 	7	Santa Rita 	11	Noviembre	2023-11-13T00:00:00	2024-11-08T05:00:00	3	Temperatura mínima	25.1
128724	7	Sololá	704	Santa Lucía Utatlán 	7	Santa Rita 	11	Noviembre	2023-11-13T00:00:00	2024-11-08T05:00:00	5	Humedad	71
128725	7	Sololá	704	Santa Lucía Utatlán 	7	Santa Rita 	11	Noviembre	2023-11-13T00:00:00	2024-11-08T05:00:00	6	Velocidad del viento	6.4
128726	7	Sololá	704	Santa Lucía Utatlán 	7	Santa Rita 	11	Noviembre	2023-11-13T00:00:00	2024-11-08T05:00:00	7	Dirección del viento	6.44
128727	7	Sololá	704	Santa Lucía Utatlán 	7	Santa Rita 	11	Noviembre	2023-11-13T00:00:00	2024-11-08T05:00:00	1	Precipitación	0
128728	7	Sololá	704	Santa Lucía Utatlán 	7	Santa Rita 	11	Noviembre	2023-11-13T00:00:00	2024-11-08T05:00:00	8	Radiación solar	0
128729	7	Sololá	704	Santa Lucía Utatlán 	7	Santa Rita 	11	Noviembre	2023-11-13T00:00:00	2024-11-08T06:00:00	2	Temperatura media	24.8
128730	7	Sololá	704	Santa Lucía Utatlán 	7	Santa Rita 	11	Noviembre	2023-11-13T00:00:00	2024-11-08T06:00:00	4	Temperatura máxima	25.9
128731	7	Sololá	704	Santa Lucía Utatlán 	7	Santa Rita 	11	Noviembre	2023-11-13T00:00:00	2024-11-08T06:00:00	3	Temperatura mínima	24.7
128732	7	Sololá	704	Santa Lucía Utatlán 	7	Santa Rita 	11	Noviembre	2023-11-13T00:00:00	2024-11-08T06:00:00	5	Humedad	73
128733	7	Sololá	704	Santa Lucía Utatlán 	7	Santa Rita 	11	Noviembre	2023-11-13T00:00:00	2024-11-08T06:00:00	6	Velocidad del viento	8
128734	7	Sololá	704	Santa Lucía Utatlán 	7	Santa Rita 	11	Noviembre	2023-11-13T00:00:00	2024-11-08T06:00:00	7	Dirección del viento	8.05
128735	7	Sololá	704	Santa Lucía Utatlán 	7	Santa Rita 	11	Noviembre	2023-11-13T00:00:00	2024-11-08T06:00:00	1	Precipitación	0
128736	7	Sololá	704	Santa Lucía Utatlán 	7	Santa Rita 	11	Noviembre	2023-11-13T00:00:00	2024-11-08T06:00:00	8	Radiación solar	2
128737	7	Sololá	704	Santa Lucía Utatlán 	7	Santa Rita 	11	Noviembre	2023-11-13T00:00:00	2024-11-08T07:00:00	2	Temperatura media	26.1
128738	7	Sololá	704	Santa Lucía Utatlán 	7	Santa Rita 	11	Noviembre	2023-11-13T00:00:00	2024-11-08T07:00:00	4	Temperatura máxima	26.3
128739	7	Sololá	704	Santa Lucía Utatlán 	7	Santa Rita 	11	Noviembre	2023-11-13T00:00:00	2024-11-08T07:00:00	3	Temperatura mínima	24.8
128740	7	Sololá	704	Santa Lucía Utatlán 	7	Santa Rita 	11	Noviembre	2023-11-13T00:00:00	2024-11-08T07:00:00	5	Humedad	71
128741	7	Sololá	704	Santa Lucía Utatlán 	7	Santa Rita 	11	Noviembre	2023-11-13T00:00:00	2024-11-08T07:00:00	6	Velocidad del viento	9.7
128742	7	Sololá	704	Santa Lucía Utatlán 	7	Santa Rita 	11	Noviembre	2023-11-13T00:00:00	2024-11-08T07:00:00	7	Dirección del viento	9.66
128743	7	Sololá	704	Santa Lucía Utatlán 	7	Santa Rita 	11	Noviembre	2023-11-13T00:00:00	2024-11-08T07:00:00	1	Precipitación	0
128744	7	Sololá	704	Santa Lucía Utatlán 	7	Santa Rita 	11	Noviembre	2023-11-13T00:00:00	2024-11-08T07:00:00	8	Radiación solar	73
128745	7	Sololá	704	Santa Lucía Utatlán 	7	Santa Rita 	11	Noviembre	2023-11-13T00:00:00	2024-11-08T08:00:00	2	Temperatura media	25.8
128746	7	Sololá	704	Santa Lucía Utatlán 	7	Santa Rita 	11	Noviembre	2023-11-13T00:00:00	2024-11-08T08:00:00	4	Temperatura máxima	26.1
128747	7	Sololá	704	Santa Lucía Utatlán 	7	Santa Rita 	11	Noviembre	2023-11-13T00:00:00	2024-11-08T08:00:00	3	Temperatura mínima	25.1
128748	7	Sololá	704	Santa Lucía Utatlán 	7	Santa Rita 	11	Noviembre	2023-11-13T00:00:00	2024-11-08T08:00:00	5	Humedad	76
128749	7	Sololá	704	Santa Lucía Utatlán 	7	Santa Rita 	11	Noviembre	2023-11-13T00:00:00	2024-11-08T08:00:00	6	Velocidad del viento	9.7
128750	7	Sololá	704	Santa Lucía Utatlán 	7	Santa Rita 	11	Noviembre	2023-11-13T00:00:00	2024-11-08T08:00:00	7	Dirección del viento	9.66
128751	7	Sololá	704	Santa Lucía Utatlán 	7	Santa Rita 	11	Noviembre	2023-11-13T00:00:00	2024-11-08T08:00:00	1	Precipitación	0
128752	7	Sololá	704	Santa Lucía Utatlán 	7	Santa Rita 	11	Noviembre	2023-11-13T00:00:00	2024-11-08T08:00:00	8	Radiación solar	153
128753	7	Sololá	704	Santa Lucía Utatlán 	7	Santa Rita 	11	Noviembre	2023-11-13T00:00:00	2024-11-08T09:00:00	2	Temperatura media	23.5
128754	7	Sololá	704	Santa Lucía Utatlán 	7	Santa Rita 	11	Noviembre	2023-11-13T00:00:00	2024-11-08T09:00:00	4	Temperatura máxima	25.9
128755	7	Sololá	704	Santa Lucía Utatlán 	7	Santa Rita 	11	Noviembre	2023-11-13T00:00:00	2024-11-08T09:00:00	3	Temperatura mínima	23.5
128756	7	Sololá	704	Santa Lucía Utatlán 	7	Santa Rita 	11	Noviembre	2023-11-13T00:00:00	2024-11-08T09:00:00	5	Humedad	85
128757	7	Sololá	704	Santa Lucía Utatlán 	7	Santa Rita 	11	Noviembre	2023-11-13T00:00:00	2024-11-08T09:00:00	6	Velocidad del viento	8
128758	7	Sololá	704	Santa Lucía Utatlán 	7	Santa Rita 	11	Noviembre	2023-11-13T00:00:00	2024-11-08T09:00:00	7	Dirección del viento	8.05
128759	7	Sololá	704	Santa Lucía Utatlán 	7	Santa Rita 	11	Noviembre	2023-11-13T00:00:00	2024-11-08T09:00:00	1	Precipitación	0
128760	7	Sololá	704	Santa Lucía Utatlán 	7	Santa Rita 	11	Noviembre	2023-11-13T00:00:00	2024-11-08T09:00:00	8	Radiación solar	638
128761	7	Sololá	704	Santa Lucía Utatlán 	7	Santa Rita 	11	Noviembre	2023-11-13T00:00:00	2024-11-08T10:00:00	2	Temperatura media	22.6
128762	7	Sololá	704	Santa Lucía Utatlán 	7	Santa Rita 	11	Noviembre	2023-11-13T00:00:00	2024-11-08T10:00:00	4	Temperatura máxima	23.5
128763	7	Sololá	704	Santa Lucía Utatlán 	7	Santa Rita 	11	Noviembre	2023-11-13T00:00:00	2024-11-08T10:00:00	3	Temperatura mínima	22.2
128764	7	Sololá	704	Santa Lucía Utatlán 	7	Santa Rita 	11	Noviembre	2023-11-13T00:00:00	2024-11-08T10:00:00	5	Humedad	84
128765	7	Sololá	704	Santa Lucía Utatlán 	7	Santa Rita 	11	Noviembre	2023-11-13T00:00:00	2024-11-08T10:00:00	6	Velocidad del viento	3.2
128766	7	Sololá	704	Santa Lucía Utatlán 	7	Santa Rita 	11	Noviembre	2023-11-13T00:00:00	2024-11-08T10:00:00	7	Dirección del viento	3.22
128767	7	Sololá	704	Santa Lucía Utatlán 	7	Santa Rita 	11	Noviembre	2023-11-13T00:00:00	2024-11-08T10:00:00	1	Precipitación	0
128768	7	Sololá	704	Santa Lucía Utatlán 	7	Santa Rita 	11	Noviembre	2023-11-13T00:00:00	2024-11-08T10:00:00	8	Radiación solar	837
128769	7	Sololá	704	Santa Lucía Utatlán 	7	Santa Rita 	11	Noviembre	2023-11-13T00:00:00	2024-11-08T11:00:00	2	Temperatura media	21.4
128770	7	Sololá	704	Santa Lucía Utatlán 	7	Santa Rita 	11	Noviembre	2023-11-13T00:00:00	2024-11-08T11:00:00	4	Temperatura máxima	22.6
128771	7	Sololá	704	Santa Lucía Utatlán 	7	Santa Rita 	11	Noviembre	2023-11-13T00:00:00	2024-11-08T11:00:00	3	Temperatura mínima	21.4
128772	7	Sololá	704	Santa Lucía Utatlán 	7	Santa Rita 	11	Noviembre	2023-11-13T00:00:00	2024-11-08T11:00:00	5	Humedad	89
128773	7	Sololá	704	Santa Lucía Utatlán 	7	Santa Rita 	11	Noviembre	2023-11-13T00:00:00	2024-11-08T11:00:00	6	Velocidad del viento	3.2
128774	7	Sololá	704	Santa Lucía Utatlán 	7	Santa Rita 	11	Noviembre	2023-11-13T00:00:00	2024-11-08T11:00:00	7	Dirección del viento	3.22
128775	7	Sololá	704	Santa Lucía Utatlán 	7	Santa Rita 	11	Noviembre	2023-11-13T00:00:00	2024-11-08T11:00:00	1	Precipitación	0.4
128776	7	Sololá	704	Santa Lucía Utatlán 	7	Santa Rita 	11	Noviembre	2023-11-13T00:00:00	2024-11-08T11:00:00	8	Radiación solar	918
128777	7	Sololá	704	Santa Lucía Utatlán 	7	Santa Rita 	11	Noviembre	2023-11-13T00:00:00	2024-11-08T12:00:00	2	Temperatura media	22.4
128778	7	Sololá	704	Santa Lucía Utatlán 	7	Santa Rita 	11	Noviembre	2023-11-13T00:00:00	2024-11-08T12:00:00	4	Temperatura máxima	22.4
128779	7	Sololá	704	Santa Lucía Utatlán 	7	Santa Rita 	11	Noviembre	2023-11-13T00:00:00	2024-11-08T12:00:00	3	Temperatura mínima	21.4
128780	7	Sololá	704	Santa Lucía Utatlán 	7	Santa Rita 	11	Noviembre	2023-11-13T00:00:00	2024-11-08T12:00:00	5	Humedad	86
128781	7	Sololá	704	Santa Lucía Utatlán 	7	Santa Rita 	11	Noviembre	2023-11-13T00:00:00	2024-11-08T12:00:00	6	Velocidad del viento	1.6
128782	7	Sololá	704	Santa Lucía Utatlán 	7	Santa Rita 	11	Noviembre	2023-11-13T00:00:00	2024-11-08T12:00:00	7	Dirección del viento	1.61
128783	7	Sololá	704	Santa Lucía Utatlán 	7	Santa Rita 	11	Noviembre	2023-11-13T00:00:00	2024-11-08T12:00:00	1	Precipitación	0
128784	7	Sololá	704	Santa Lucía Utatlán 	7	Santa Rita 	11	Noviembre	2023-11-13T00:00:00	2024-11-08T12:00:00	8	Radiación solar	1083
128785	7	Sololá	704	Santa Lucía Utatlán 	7	Santa Rita 	11	Noviembre	2023-11-13T00:00:00	2024-11-08T13:00:00	2	Temperatura media	21.3
128786	7	Sololá	704	Santa Lucía Utatlán 	7	Santa Rita 	11	Noviembre	2023-11-13T00:00:00	2024-11-08T13:00:00	4	Temperatura máxima	22.4
128787	7	Sololá	704	Santa Lucía Utatlán 	7	Santa Rita 	11	Noviembre	2023-11-13T00:00:00	2024-11-08T13:00:00	3	Temperatura mínima	21.3
128788	7	Sololá	704	Santa Lucía Utatlán 	7	Santa Rita 	11	Noviembre	2023-11-13T00:00:00	2024-11-08T13:00:00	5	Humedad	93
128789	7	Sololá	704	Santa Lucía Utatlán 	7	Santa Rita 	11	Noviembre	2023-11-13T00:00:00	2024-11-08T13:00:00	6	Velocidad del viento	1.6
128790	7	Sololá	704	Santa Lucía Utatlán 	7	Santa Rita 	11	Noviembre	2023-11-13T00:00:00	2024-11-08T13:00:00	7	Dirección del viento	1.61
128791	7	Sololá	704	Santa Lucía Utatlán 	7	Santa Rita 	11	Noviembre	2023-11-13T00:00:00	2024-11-08T13:00:00	1	Precipitación	0.4
128792	7	Sololá	704	Santa Lucía Utatlán 	7	Santa Rita 	11	Noviembre	2023-11-13T00:00:00	2024-11-08T13:00:00	8	Radiación solar	951
128793	7	Sololá	704	Santa Lucía Utatlán 	7	Santa Rita 	11	Noviembre	2023-11-13T00:00:00	2024-11-08T14:00:00	2	Temperatura media	20.8
128794	7	Sololá	704	Santa Lucía Utatlán 	7	Santa Rita 	11	Noviembre	2023-11-13T00:00:00	2024-11-08T14:00:00	4	Temperatura máxima	21.3
128795	7	Sololá	704	Santa Lucía Utatlán 	7	Santa Rita 	11	Noviembre	2023-11-13T00:00:00	2024-11-08T14:00:00	3	Temperatura mínima	20.8
128796	7	Sololá	704	Santa Lucía Utatlán 	7	Santa Rita 	11	Noviembre	2023-11-13T00:00:00	2024-11-08T14:00:00	5	Humedad	93
128797	7	Sololá	704	Santa Lucía Utatlán 	7	Santa Rita 	11	Noviembre	2023-11-13T00:00:00	2024-11-08T14:00:00	6	Velocidad del viento	1.6
128798	7	Sololá	704	Santa Lucía Utatlán 	7	Santa Rita 	11	Noviembre	2023-11-13T00:00:00	2024-11-08T14:00:00	7	Dirección del viento	1.61
128799	7	Sololá	704	Santa Lucía Utatlán 	7	Santa Rita 	11	Noviembre	2023-11-13T00:00:00	2024-11-08T14:00:00	1	Precipitación	0.4
128800	7	Sololá	704	Santa Lucía Utatlán 	7	Santa Rita 	11	Noviembre	2023-11-13T00:00:00	2024-11-08T14:00:00	8	Radiación solar	253
128801	7	Sololá	704	Santa Lucía Utatlán 	7	Santa Rita 	11	Noviembre	2023-11-13T00:00:00	2024-11-08T15:00:00	2	Temperatura media	19.9
128802	7	Sololá	704	Santa Lucía Utatlán 	7	Santa Rita 	11	Noviembre	2023-11-13T00:00:00	2024-11-08T15:00:00	4	Temperatura máxima	20.9
128803	7	Sololá	704	Santa Lucía Utatlán 	7	Santa Rita 	11	Noviembre	2023-11-13T00:00:00	2024-11-08T15:00:00	3	Temperatura mínima	19.9
128804	7	Sololá	704	Santa Lucía Utatlán 	7	Santa Rita 	11	Noviembre	2023-11-13T00:00:00	2024-11-08T15:00:00	5	Humedad	94
128805	7	Sololá	704	Santa Lucía Utatlán 	7	Santa Rita 	11	Noviembre	2023-11-13T00:00:00	2024-11-08T15:00:00	6	Velocidad del viento	1.6
128806	7	Sololá	704	Santa Lucía Utatlán 	7	Santa Rita 	11	Noviembre	2023-11-13T00:00:00	2024-11-08T15:00:00	7	Dirección del viento	1.61
128807	7	Sololá	704	Santa Lucía Utatlán 	7	Santa Rita 	11	Noviembre	2023-11-13T00:00:00	2024-11-08T15:00:00	1	Precipitación	2.8
128808	7	Sololá	704	Santa Lucía Utatlán 	7	Santa Rita 	11	Noviembre	2023-11-13T00:00:00	2024-11-08T15:00:00	8	Radiación solar	63
128809	7	Sololá	704	Santa Lucía Utatlán 	7	Santa Rita 	11	Noviembre	2023-11-13T00:00:00	2024-11-08T16:00:00	2	Temperatura media	19.9
128810	7	Sololá	704	Santa Lucía Utatlán 	7	Santa Rita 	11	Noviembre	2023-11-13T00:00:00	2024-11-08T16:00:00	4	Temperatura máxima	20
128811	7	Sololá	704	Santa Lucía Utatlán 	7	Santa Rita 	11	Noviembre	2023-11-13T00:00:00	2024-11-08T16:00:00	3	Temperatura mínima	19.8
128812	7	Sololá	704	Santa Lucía Utatlán 	7	Santa Rita 	11	Noviembre	2023-11-13T00:00:00	2024-11-08T16:00:00	5	Humedad	96
128813	7	Sololá	704	Santa Lucía Utatlán 	7	Santa Rita 	11	Noviembre	2023-11-13T00:00:00	2024-11-08T16:00:00	6	Velocidad del viento	0
128814	7	Sololá	704	Santa Lucía Utatlán 	7	Santa Rita 	11	Noviembre	2023-11-13T00:00:00	2024-11-08T16:00:00	7	Dirección del viento	0
128815	7	Sololá	704	Santa Lucía Utatlán 	7	Santa Rita 	11	Noviembre	2023-11-13T00:00:00	2024-11-08T16:00:00	1	Precipitación	0.2
128816	7	Sololá	704	Santa Lucía Utatlán 	7	Santa Rita 	11	Noviembre	2023-11-13T00:00:00	2024-11-08T16:00:00	8	Radiación solar	59
128817	7	Sololá	704	Santa Lucía Utatlán 	7	Santa Rita 	11	Noviembre	2023-11-13T00:00:00	2024-11-08T17:00:00	2	Temperatura media	19.9
128818	7	Sololá	704	Santa Lucía Utatlán 	7	Santa Rita 	11	Noviembre	2023-11-13T00:00:00	2024-11-08T17:00:00	4	Temperatura máxima	19.9
128819	7	Sololá	704	Santa Lucía Utatlán 	7	Santa Rita 	11	Noviembre	2023-11-13T00:00:00	2024-11-08T17:00:00	3	Temperatura mínima	19.6
128820	7	Sololá	704	Santa Lucía Utatlán 	7	Santa Rita 	11	Noviembre	2023-11-13T00:00:00	2024-11-08T17:00:00	5	Humedad	91
128821	7	Sololá	704	Santa Lucía Utatlán 	7	Santa Rita 	11	Noviembre	2023-11-13T00:00:00	2024-11-08T17:00:00	6	Velocidad del viento	1.6
128822	7	Sololá	704	Santa Lucía Utatlán 	7	Santa Rita 	11	Noviembre	2023-11-13T00:00:00	2024-11-08T17:00:00	7	Dirección del viento	1.61
128823	7	Sololá	704	Santa Lucía Utatlán 	7	Santa Rita 	11	Noviembre	2023-11-13T00:00:00	2024-11-08T17:00:00	1	Precipitación	0
128824	7	Sololá	704	Santa Lucía Utatlán 	7	Santa Rita 	11	Noviembre	2023-11-13T00:00:00	2024-11-08T17:00:00	8	Radiación solar	173
128825	7	Sololá	704	Santa Lucía Utatlán 	7	Santa Rita 	11	Noviembre	2023-11-13T00:00:00	2024-11-08T18:00:00	2	Temperatura media	19.9
128826	7	Sololá	704	Santa Lucía Utatlán 	7	Santa Rita 	11	Noviembre	2023-11-13T00:00:00	2024-11-08T18:00:00	4	Temperatura máxima	20.3
128827	7	Sololá	704	Santa Lucía Utatlán 	7	Santa Rita 	11	Noviembre	2023-11-13T00:00:00	2024-11-08T18:00:00	3	Temperatura mínima	19.8
128828	7	Sololá	704	Santa Lucía Utatlán 	7	Santa Rita 	11	Noviembre	2023-11-13T00:00:00	2024-11-08T18:00:00	5	Humedad	87
128829	7	Sololá	704	Santa Lucía Utatlán 	7	Santa Rita 	11	Noviembre	2023-11-13T00:00:00	2024-11-08T18:00:00	6	Velocidad del viento	4.8
128830	7	Sololá	704	Santa Lucía Utatlán 	7	Santa Rita 	11	Noviembre	2023-11-13T00:00:00	2024-11-08T18:00:00	7	Dirección del viento	4.83
128831	7	Sololá	704	Santa Lucía Utatlán 	7	Santa Rita 	11	Noviembre	2023-11-13T00:00:00	2024-11-08T18:00:00	1	Precipitación	0.2
128832	7	Sololá	704	Santa Lucía Utatlán 	7	Santa Rita 	11	Noviembre	2023-11-13T00:00:00	2024-11-08T18:00:00	8	Radiación solar	50
128833	7	Sololá	704	Santa Lucía Utatlán 	7	Santa Rita 	11	Noviembre	2023-11-13T00:00:00	2024-11-08T19:00:00	2	Temperatura media	18.9
128834	7	Sololá	704	Santa Lucía Utatlán 	7	Santa Rita 	11	Noviembre	2023-11-13T00:00:00	2024-11-08T19:00:00	4	Temperatura máxima	19.8
128835	7	Sololá	704	Santa Lucía Utatlán 	7	Santa Rita 	11	Noviembre	2023-11-13T00:00:00	2024-11-08T19:00:00	3	Temperatura mínima	18.9
128836	7	Sololá	704	Santa Lucía Utatlán 	7	Santa Rita 	11	Noviembre	2023-11-13T00:00:00	2024-11-08T19:00:00	5	Humedad	93
128837	7	Sololá	704	Santa Lucía Utatlán 	7	Santa Rita 	11	Noviembre	2023-11-13T00:00:00	2024-11-08T19:00:00	6	Velocidad del viento	1.6
128838	7	Sololá	704	Santa Lucía Utatlán 	7	Santa Rita 	11	Noviembre	2023-11-13T00:00:00	2024-11-08T19:00:00	7	Dirección del viento	1.61
128839	7	Sololá	704	Santa Lucía Utatlán 	7	Santa Rita 	11	Noviembre	2023-11-13T00:00:00	2024-11-08T19:00:00	1	Precipitación	0
128840	7	Sololá	704	Santa Lucía Utatlán 	7	Santa Rita 	11	Noviembre	2023-11-13T00:00:00	2024-11-08T19:00:00	8	Radiación solar	0
128841	7	Sololá	704	Santa Lucía Utatlán 	7	Santa Rita 	11	Noviembre	2023-11-13T00:00:00	2024-11-08T20:00:00	2	Temperatura media	18.9
128842	7	Sololá	704	Santa Lucía Utatlán 	7	Santa Rita 	11	Noviembre	2023-11-13T00:00:00	2024-11-08T20:00:00	4	Temperatura máxima	19.1
128843	7	Sololá	704	Santa Lucía Utatlán 	7	Santa Rita 	11	Noviembre	2023-11-13T00:00:00	2024-11-08T20:00:00	3	Temperatura mínima	18.8
128844	7	Sololá	704	Santa Lucía Utatlán 	7	Santa Rita 	11	Noviembre	2023-11-13T00:00:00	2024-11-08T20:00:00	5	Humedad	92
128845	7	Sololá	704	Santa Lucía Utatlán 	7	Santa Rita 	11	Noviembre	2023-11-13T00:00:00	2024-11-08T20:00:00	6	Velocidad del viento	1.6
128846	7	Sololá	704	Santa Lucía Utatlán 	7	Santa Rita 	11	Noviembre	2023-11-13T00:00:00	2024-11-08T20:00:00	7	Dirección del viento	1.61
128847	7	Sololá	704	Santa Lucía Utatlán 	7	Santa Rita 	11	Noviembre	2023-11-13T00:00:00	2024-11-08T20:00:00	1	Precipitación	0
128848	7	Sololá	704	Santa Lucía Utatlán 	7	Santa Rita 	11	Noviembre	2023-11-13T00:00:00	2024-11-08T20:00:00	8	Radiación solar	0
128849	7	Sololá	704	Santa Lucía Utatlán 	7	Santa Rita 	11	Noviembre	2023-11-13T00:00:00	2024-11-08T21:00:00	2	Temperatura media	18.1
128850	7	Sololá	704	Santa Lucía Utatlán 	7	Santa Rita 	11	Noviembre	2023-11-13T00:00:00	2024-11-08T21:00:00	4	Temperatura máxima	18.9
128851	7	Sololá	704	Santa Lucía Utatlán 	7	Santa Rita 	11	Noviembre	2023-11-13T00:00:00	2024-11-08T21:00:00	3	Temperatura mínima	18.1
128852	7	Sololá	704	Santa Lucía Utatlán 	7	Santa Rita 	11	Noviembre	2023-11-13T00:00:00	2024-11-08T21:00:00	5	Humedad	93
128853	7	Sololá	704	Santa Lucía Utatlán 	7	Santa Rita 	11	Noviembre	2023-11-13T00:00:00	2024-11-08T21:00:00	6	Velocidad del viento	1.6
128854	7	Sololá	704	Santa Lucía Utatlán 	7	Santa Rita 	11	Noviembre	2023-11-13T00:00:00	2024-11-08T21:00:00	7	Dirección del viento	1.61
128855	7	Sololá	704	Santa Lucía Utatlán 	7	Santa Rita 	11	Noviembre	2023-11-13T00:00:00	2024-11-08T21:00:00	1	Precipitación	0
128856	7	Sololá	704	Santa Lucía Utatlán 	7	Santa Rita 	11	Noviembre	2023-11-13T00:00:00	2024-11-08T21:00:00	8	Radiación solar	0
128857	7	Sololá	704	Santa Lucía Utatlán 	7	Santa Rita 	11	Noviembre	2023-11-13T00:00:00	2024-11-08T22:00:00	2	Temperatura media	17.2
128858	7	Sololá	704	Santa Lucía Utatlán 	7	Santa Rita 	11	Noviembre	2023-11-13T00:00:00	2024-11-08T22:00:00	4	Temperatura máxima	18.1
128859	7	Sololá	704	Santa Lucía Utatlán 	7	Santa Rita 	11	Noviembre	2023-11-13T00:00:00	2024-11-08T22:00:00	3	Temperatura mínima	17.1
128860	7	Sololá	704	Santa Lucía Utatlán 	7	Santa Rita 	11	Noviembre	2023-11-13T00:00:00	2024-11-08T22:00:00	5	Humedad	91
128861	7	Sololá	704	Santa Lucía Utatlán 	7	Santa Rita 	11	Noviembre	2023-11-13T00:00:00	2024-11-08T22:00:00	6	Velocidad del viento	3.2
128862	7	Sololá	704	Santa Lucía Utatlán 	7	Santa Rita 	11	Noviembre	2023-11-13T00:00:00	2024-11-08T22:00:00	7	Dirección del viento	3.22
128863	7	Sololá	704	Santa Lucía Utatlán 	7	Santa Rita 	11	Noviembre	2023-11-13T00:00:00	2024-11-08T22:00:00	1	Precipitación	0
128864	7	Sololá	704	Santa Lucía Utatlán 	7	Santa Rita 	11	Noviembre	2023-11-13T00:00:00	2024-11-08T22:00:00	8	Radiación solar	0
128865	7	Sololá	704	Santa Lucía Utatlán 	7	Santa Rita 	11	Noviembre	2023-11-13T00:00:00	2024-11-08T23:00:00	2	Temperatura media	17
128866	7	Sololá	704	Santa Lucía Utatlán 	7	Santa Rita 	11	Noviembre	2023-11-13T00:00:00	2024-11-08T23:00:00	4	Temperatura máxima	17.2
128867	7	Sololá	704	Santa Lucía Utatlán 	7	Santa Rita 	11	Noviembre	2023-11-13T00:00:00	2024-11-08T23:00:00	3	Temperatura mínima	16.8
128868	7	Sololá	704	Santa Lucía Utatlán 	7	Santa Rita 	11	Noviembre	2023-11-13T00:00:00	2024-11-08T23:00:00	5	Humedad	93
128869	7	Sololá	704	Santa Lucía Utatlán 	7	Santa Rita 	11	Noviembre	2023-11-13T00:00:00	2024-11-08T23:00:00	6	Velocidad del viento	3.2
128870	7	Sololá	704	Santa Lucía Utatlán 	7	Santa Rita 	11	Noviembre	2023-11-13T00:00:00	2024-11-08T23:00:00	7	Dirección del viento	3.22
128871	7	Sololá	704	Santa Lucía Utatlán 	7	Santa Rita 	11	Noviembre	2023-11-13T00:00:00	2024-11-08T23:00:00	1	Precipitación	0
128872	7	Sololá	704	Santa Lucía Utatlán 	7	Santa Rita 	11	Noviembre	2023-11-13T00:00:00	2024-11-08T23:00:00	8	Radiación solar	0
128873	7	Sololá	704	Santa Lucía Utatlán 	7	Santa Rita 	11	Noviembre	2023-11-14T00:00:00	2024-11-08T00:00:00	2	Temperatura media	16.7
128874	7	Sololá	704	Santa Lucía Utatlán 	7	Santa Rita 	11	Noviembre	2023-11-14T00:00:00	2024-11-08T00:00:00	4	Temperatura máxima	17
128875	7	Sololá	704	Santa Lucía Utatlán 	7	Santa Rita 	11	Noviembre	2023-11-14T00:00:00	2024-11-08T00:00:00	3	Temperatura mínima	16.6
128876	7	Sololá	704	Santa Lucía Utatlán 	7	Santa Rita 	11	Noviembre	2023-11-14T00:00:00	2024-11-08T00:00:00	5	Humedad	94
128877	7	Sololá	704	Santa Lucía Utatlán 	7	Santa Rita 	11	Noviembre	2023-11-14T00:00:00	2024-11-08T00:00:00	6	Velocidad del viento	1.6
128878	7	Sololá	704	Santa Lucía Utatlán 	7	Santa Rita 	11	Noviembre	2023-11-14T00:00:00	2024-11-08T00:00:00	7	Dirección del viento	1.61
128879	7	Sololá	704	Santa Lucía Utatlán 	7	Santa Rita 	11	Noviembre	2023-11-14T00:00:00	2024-11-08T00:00:00	1	Precipitación	0
128880	7	Sololá	704	Santa Lucía Utatlán 	7	Santa Rita 	11	Noviembre	2023-11-14T00:00:00	2024-11-08T00:00:00	8	Radiación solar	0
128881	7	Sololá	704	Santa Lucía Utatlán 	7	Santa Rita 	11	Noviembre	2023-11-14T00:00:00	2024-11-08T01:00:00	2	Temperatura media	16.8
128882	7	Sololá	704	Santa Lucía Utatlán 	7	Santa Rita 	11	Noviembre	2023-11-14T00:00:00	2024-11-08T01:00:00	4	Temperatura máxima	17.3
128883	7	Sololá	704	Santa Lucía Utatlán 	7	Santa Rita 	11	Noviembre	2023-11-14T00:00:00	2024-11-08T01:00:00	3	Temperatura mínima	16.6
128884	7	Sololá	704	Santa Lucía Utatlán 	7	Santa Rita 	11	Noviembre	2023-11-14T00:00:00	2024-11-08T01:00:00	5	Humedad	94
128885	7	Sololá	704	Santa Lucía Utatlán 	7	Santa Rita 	11	Noviembre	2023-11-14T00:00:00	2024-11-08T01:00:00	6	Velocidad del viento	3.2
128886	7	Sololá	704	Santa Lucía Utatlán 	7	Santa Rita 	11	Noviembre	2023-11-14T00:00:00	2024-11-08T01:00:00	7	Dirección del viento	3.22
128887	7	Sololá	704	Santa Lucía Utatlán 	7	Santa Rita 	11	Noviembre	2023-11-14T00:00:00	2024-11-08T01:00:00	1	Precipitación	0
128888	7	Sololá	704	Santa Lucía Utatlán 	7	Santa Rita 	11	Noviembre	2023-11-14T00:00:00	2024-11-08T01:00:00	8	Radiación solar	0
128889	7	Sololá	704	Santa Lucía Utatlán 	7	Santa Rita 	11	Noviembre	2023-11-14T00:00:00	2024-11-08T02:00:00	2	Temperatura media	18.9
128890	7	Sololá	704	Santa Lucía Utatlán 	7	Santa Rita 	11	Noviembre	2023-11-14T00:00:00	2024-11-08T02:00:00	4	Temperatura máxima	18.9
128891	7	Sololá	704	Santa Lucía Utatlán 	7	Santa Rita 	11	Noviembre	2023-11-14T00:00:00	2024-11-08T02:00:00	3	Temperatura mínima	16.8
128892	7	Sololá	704	Santa Lucía Utatlán 	7	Santa Rita 	11	Noviembre	2023-11-14T00:00:00	2024-11-08T02:00:00	5	Humedad	90
128893	7	Sololá	704	Santa Lucía Utatlán 	7	Santa Rita 	11	Noviembre	2023-11-14T00:00:00	2024-11-08T02:00:00	6	Velocidad del viento	3.2
128894	7	Sololá	704	Santa Lucía Utatlán 	7	Santa Rita 	11	Noviembre	2023-11-14T00:00:00	2024-11-08T02:00:00	7	Dirección del viento	3.22
128895	7	Sololá	704	Santa Lucía Utatlán 	7	Santa Rita 	11	Noviembre	2023-11-14T00:00:00	2024-11-08T02:00:00	1	Precipitación	0
128896	7	Sololá	704	Santa Lucía Utatlán 	7	Santa Rita 	11	Noviembre	2023-11-14T00:00:00	2024-11-08T02:00:00	8	Radiación solar	0
128897	7	Sololá	704	Santa Lucía Utatlán 	7	Santa Rita 	11	Noviembre	2023-11-14T00:00:00	2024-11-08T03:00:00	2	Temperatura media	19.3
128898	7	Sololá	704	Santa Lucía Utatlán 	7	Santa Rita 	11	Noviembre	2023-11-14T00:00:00	2024-11-08T03:00:00	4	Temperatura máxima	19.3
128899	7	Sololá	704	Santa Lucía Utatlán 	7	Santa Rita 	11	Noviembre	2023-11-14T00:00:00	2024-11-08T03:00:00	3	Temperatura mínima	18.7
128900	7	Sololá	704	Santa Lucía Utatlán 	7	Santa Rita 	11	Noviembre	2023-11-14T00:00:00	2024-11-08T03:00:00	5	Humedad	90
128901	7	Sololá	704	Santa Lucía Utatlán 	7	Santa Rita 	11	Noviembre	2023-11-14T00:00:00	2024-11-08T03:00:00	6	Velocidad del viento	1.6
128902	7	Sololá	704	Santa Lucía Utatlán 	7	Santa Rita 	11	Noviembre	2023-11-14T00:00:00	2024-11-08T03:00:00	7	Dirección del viento	1.61
128903	7	Sololá	704	Santa Lucía Utatlán 	7	Santa Rita 	11	Noviembre	2023-11-14T00:00:00	2024-11-08T03:00:00	1	Precipitación	0
128904	7	Sololá	704	Santa Lucía Utatlán 	7	Santa Rita 	11	Noviembre	2023-11-14T00:00:00	2024-11-08T03:00:00	8	Radiación solar	0
128905	7	Sololá	704	Santa Lucía Utatlán 	7	Santa Rita 	11	Noviembre	2023-11-14T00:00:00	2024-11-08T04:00:00	2	Temperatura media	21.2
128906	7	Sololá	704	Santa Lucía Utatlán 	7	Santa Rita 	11	Noviembre	2023-11-14T00:00:00	2024-11-08T04:00:00	4	Temperatura máxima	21.2
128907	7	Sololá	704	Santa Lucía Utatlán 	7	Santa Rita 	11	Noviembre	2023-11-14T00:00:00	2024-11-08T04:00:00	3	Temperatura mínima	19.3
128908	7	Sololá	704	Santa Lucía Utatlán 	7	Santa Rita 	11	Noviembre	2023-11-14T00:00:00	2024-11-08T04:00:00	5	Humedad	79
128909	7	Sololá	704	Santa Lucía Utatlán 	7	Santa Rita 	11	Noviembre	2023-11-14T00:00:00	2024-11-08T04:00:00	6	Velocidad del viento	1.6
128910	7	Sololá	704	Santa Lucía Utatlán 	7	Santa Rita 	11	Noviembre	2023-11-14T00:00:00	2024-11-08T04:00:00	7	Dirección del viento	1.61
128911	7	Sololá	704	Santa Lucía Utatlán 	7	Santa Rita 	11	Noviembre	2023-11-14T00:00:00	2024-11-08T04:00:00	1	Precipitación	0
128912	7	Sololá	704	Santa Lucía Utatlán 	7	Santa Rita 	11	Noviembre	2023-11-14T00:00:00	2024-11-08T04:00:00	8	Radiación solar	0
128913	7	Sololá	704	Santa Lucía Utatlán 	7	Santa Rita 	11	Noviembre	2023-11-14T00:00:00	2024-11-08T05:00:00	2	Temperatura media	23.3
128914	7	Sololá	704	Santa Lucía Utatlán 	7	Santa Rita 	11	Noviembre	2023-11-14T00:00:00	2024-11-08T05:00:00	4	Temperatura máxima	23.3
128915	7	Sololá	704	Santa Lucía Utatlán 	7	Santa Rita 	11	Noviembre	2023-11-14T00:00:00	2024-11-08T05:00:00	3	Temperatura mínima	21.2
128916	7	Sololá	704	Santa Lucía Utatlán 	7	Santa Rita 	11	Noviembre	2023-11-14T00:00:00	2024-11-08T05:00:00	5	Humedad	73
128917	7	Sololá	704	Santa Lucía Utatlán 	7	Santa Rita 	11	Noviembre	2023-11-14T00:00:00	2024-11-08T05:00:00	6	Velocidad del viento	4.8
128918	7	Sololá	704	Santa Lucía Utatlán 	7	Santa Rita 	11	Noviembre	2023-11-14T00:00:00	2024-11-08T05:00:00	7	Dirección del viento	4.83
128919	7	Sololá	704	Santa Lucía Utatlán 	7	Santa Rita 	11	Noviembre	2023-11-14T00:00:00	2024-11-08T05:00:00	1	Precipitación	0
128920	7	Sololá	704	Santa Lucía Utatlán 	7	Santa Rita 	11	Noviembre	2023-11-14T00:00:00	2024-11-08T05:00:00	8	Radiación solar	0
128921	7	Sololá	704	Santa Lucía Utatlán 	7	Santa Rita 	11	Noviembre	2023-11-14T00:00:00	2024-11-08T06:00:00	2	Temperatura media	24.6
128922	7	Sololá	704	Santa Lucía Utatlán 	7	Santa Rita 	11	Noviembre	2023-11-14T00:00:00	2024-11-08T06:00:00	4	Temperatura máxima	24.9
128923	7	Sololá	704	Santa Lucía Utatlán 	7	Santa Rita 	11	Noviembre	2023-11-14T00:00:00	2024-11-08T06:00:00	3	Temperatura mínima	23.4
128924	7	Sololá	704	Santa Lucía Utatlán 	7	Santa Rita 	11	Noviembre	2023-11-14T00:00:00	2024-11-08T06:00:00	5	Humedad	68
128925	7	Sololá	704	Santa Lucía Utatlán 	7	Santa Rita 	11	Noviembre	2023-11-14T00:00:00	2024-11-08T06:00:00	6	Velocidad del viento	6.4
128926	7	Sololá	704	Santa Lucía Utatlán 	7	Santa Rita 	11	Noviembre	2023-11-14T00:00:00	2024-11-08T06:00:00	7	Dirección del viento	6.44
128927	7	Sololá	704	Santa Lucía Utatlán 	7	Santa Rita 	11	Noviembre	2023-11-14T00:00:00	2024-11-08T06:00:00	1	Precipitación	0
128928	7	Sololá	704	Santa Lucía Utatlán 	7	Santa Rita 	11	Noviembre	2023-11-14T00:00:00	2024-11-08T06:00:00	8	Radiación solar	2
128929	7	Sololá	704	Santa Lucía Utatlán 	7	Santa Rita 	11	Noviembre	2023-11-14T00:00:00	2024-11-08T07:00:00	2	Temperatura media	24.7
128930	7	Sololá	704	Santa Lucía Utatlán 	7	Santa Rita 	11	Noviembre	2023-11-14T00:00:00	2024-11-08T07:00:00	4	Temperatura máxima	25.1
128931	7	Sololá	704	Santa Lucía Utatlán 	7	Santa Rita 	11	Noviembre	2023-11-14T00:00:00	2024-11-08T07:00:00	3	Temperatura mínima	24.4
128932	7	Sololá	704	Santa Lucía Utatlán 	7	Santa Rita 	11	Noviembre	2023-11-14T00:00:00	2024-11-08T07:00:00	5	Humedad	74
128933	7	Sololá	704	Santa Lucía Utatlán 	7	Santa Rita 	11	Noviembre	2023-11-14T00:00:00	2024-11-08T07:00:00	6	Velocidad del viento	8
128934	7	Sololá	704	Santa Lucía Utatlán 	7	Santa Rita 	11	Noviembre	2023-11-14T00:00:00	2024-11-08T07:00:00	7	Dirección del viento	8.05
128935	7	Sololá	704	Santa Lucía Utatlán 	7	Santa Rita 	11	Noviembre	2023-11-14T00:00:00	2024-11-08T07:00:00	1	Precipitación	0
128936	7	Sololá	704	Santa Lucía Utatlán 	7	Santa Rita 	11	Noviembre	2023-11-14T00:00:00	2024-11-08T07:00:00	8	Radiación solar	91
128937	7	Sololá	704	Santa Lucía Utatlán 	7	Santa Rita 	11	Noviembre	2023-11-14T00:00:00	2024-11-08T08:00:00	2	Temperatura media	25.9
128938	7	Sololá	704	Santa Lucía Utatlán 	7	Santa Rita 	11	Noviembre	2023-11-14T00:00:00	2024-11-08T08:00:00	4	Temperatura máxima	25.9
128939	7	Sololá	704	Santa Lucía Utatlán 	7	Santa Rita 	11	Noviembre	2023-11-14T00:00:00	2024-11-08T08:00:00	3	Temperatura mínima	24.7
128940	7	Sololá	704	Santa Lucía Utatlán 	7	Santa Rita 	11	Noviembre	2023-11-14T00:00:00	2024-11-08T08:00:00	5	Humedad	67
128941	7	Sololá	704	Santa Lucía Utatlán 	7	Santa Rita 	11	Noviembre	2023-11-14T00:00:00	2024-11-08T08:00:00	6	Velocidad del viento	9.7
128942	7	Sololá	704	Santa Lucía Utatlán 	7	Santa Rita 	11	Noviembre	2023-11-14T00:00:00	2024-11-08T08:00:00	7	Dirección del viento	9.66
128943	7	Sololá	704	Santa Lucía Utatlán 	7	Santa Rita 	11	Noviembre	2023-11-14T00:00:00	2024-11-08T08:00:00	1	Precipitación	0
128944	7	Sololá	704	Santa Lucía Utatlán 	7	Santa Rita 	11	Noviembre	2023-11-14T00:00:00	2024-11-08T08:00:00	8	Radiación solar	123
128945	7	Sololá	704	Santa Lucía Utatlán 	7	Santa Rita 	11	Noviembre	2023-11-14T00:00:00	2024-11-08T09:00:00	2	Temperatura media	25.8
128946	7	Sololá	704	Santa Lucía Utatlán 	7	Santa Rita 	11	Noviembre	2023-11-14T00:00:00	2024-11-08T09:00:00	4	Temperatura máxima	26.2
128947	7	Sololá	704	Santa Lucía Utatlán 	7	Santa Rita 	11	Noviembre	2023-11-14T00:00:00	2024-11-08T09:00:00	3	Temperatura mínima	24.9
128948	7	Sololá	704	Santa Lucía Utatlán 	7	Santa Rita 	11	Noviembre	2023-11-14T00:00:00	2024-11-08T09:00:00	5	Humedad	70
128949	7	Sololá	704	Santa Lucía Utatlán 	7	Santa Rita 	11	Noviembre	2023-11-14T00:00:00	2024-11-08T09:00:00	6	Velocidad del viento	9.7
128950	7	Sololá	704	Santa Lucía Utatlán 	7	Santa Rita 	11	Noviembre	2023-11-14T00:00:00	2024-11-08T09:00:00	7	Dirección del viento	9.66
128951	7	Sololá	704	Santa Lucía Utatlán 	7	Santa Rita 	11	Noviembre	2023-11-14T00:00:00	2024-11-08T09:00:00	1	Precipitación	0
128952	7	Sololá	704	Santa Lucía Utatlán 	7	Santa Rita 	11	Noviembre	2023-11-14T00:00:00	2024-11-08T09:00:00	8	Radiación solar	266
128953	7	Sololá	704	Santa Lucía Utatlán 	7	Santa Rita 	11	Noviembre	2023-11-14T00:00:00	2024-11-08T10:00:00	2	Temperatura media	25
128954	7	Sololá	704	Santa Lucía Utatlán 	7	Santa Rita 	11	Noviembre	2023-11-14T00:00:00	2024-11-08T10:00:00	4	Temperatura máxima	25.7
128955	7	Sololá	704	Santa Lucía Utatlán 	7	Santa Rita 	11	Noviembre	2023-11-14T00:00:00	2024-11-08T10:00:00	3	Temperatura mínima	24.5
128956	7	Sololá	704	Santa Lucía Utatlán 	7	Santa Rita 	11	Noviembre	2023-11-14T00:00:00	2024-11-08T10:00:00	5	Humedad	77
128957	7	Sololá	704	Santa Lucía Utatlán 	7	Santa Rita 	11	Noviembre	2023-11-14T00:00:00	2024-11-08T10:00:00	6	Velocidad del viento	9.7
128958	7	Sololá	704	Santa Lucía Utatlán 	7	Santa Rita 	11	Noviembre	2023-11-14T00:00:00	2024-11-08T10:00:00	7	Dirección del viento	9.66
128959	7	Sololá	704	Santa Lucía Utatlán 	7	Santa Rita 	11	Noviembre	2023-11-14T00:00:00	2024-11-08T10:00:00	1	Precipitación	0
128960	7	Sololá	704	Santa Lucía Utatlán 	7	Santa Rita 	11	Noviembre	2023-11-14T00:00:00	2024-11-08T10:00:00	8	Radiación solar	573
128961	7	Sololá	704	Santa Lucía Utatlán 	7	Santa Rita 	11	Noviembre	2023-11-14T00:00:00	2024-11-08T11:00:00	2	Temperatura media	23.8
128962	7	Sololá	704	Santa Lucía Utatlán 	7	Santa Rita 	11	Noviembre	2023-11-14T00:00:00	2024-11-08T11:00:00	4	Temperatura máxima	25.1
128963	7	Sololá	704	Santa Lucía Utatlán 	7	Santa Rita 	11	Noviembre	2023-11-14T00:00:00	2024-11-08T11:00:00	3	Temperatura mínima	23.8
128964	7	Sololá	704	Santa Lucía Utatlán 	7	Santa Rita 	11	Noviembre	2023-11-14T00:00:00	2024-11-08T11:00:00	5	Humedad	84
128965	7	Sololá	704	Santa Lucía Utatlán 	7	Santa Rita 	11	Noviembre	2023-11-14T00:00:00	2024-11-08T11:00:00	6	Velocidad del viento	6.4
128966	7	Sololá	704	Santa Lucía Utatlán 	7	Santa Rita 	11	Noviembre	2023-11-14T00:00:00	2024-11-08T11:00:00	7	Dirección del viento	6.44
128967	7	Sololá	704	Santa Lucía Utatlán 	7	Santa Rita 	11	Noviembre	2023-11-14T00:00:00	2024-11-08T11:00:00	1	Precipitación	0
128968	7	Sololá	704	Santa Lucía Utatlán 	7	Santa Rita 	11	Noviembre	2023-11-14T00:00:00	2024-11-08T11:00:00	8	Radiación solar	909
128969	7	Sololá	704	Santa Lucía Utatlán 	7	Santa Rita 	11	Noviembre	2023-11-14T00:00:00	2024-11-08T12:00:00	2	Temperatura media	22.4
128970	7	Sololá	704	Santa Lucía Utatlán 	7	Santa Rita 	11	Noviembre	2023-11-14T00:00:00	2024-11-08T12:00:00	4	Temperatura máxima	23.8
128971	7	Sololá	704	Santa Lucía Utatlán 	7	Santa Rita 	11	Noviembre	2023-11-14T00:00:00	2024-11-08T12:00:00	3	Temperatura mínima	22.4
128972	7	Sololá	704	Santa Lucía Utatlán 	7	Santa Rita 	11	Noviembre	2023-11-14T00:00:00	2024-11-08T12:00:00	5	Humedad	88
128973	7	Sololá	704	Santa Lucía Utatlán 	7	Santa Rita 	11	Noviembre	2023-11-14T00:00:00	2024-11-08T12:00:00	6	Velocidad del viento	4.8
128974	7	Sololá	704	Santa Lucía Utatlán 	7	Santa Rita 	11	Noviembre	2023-11-14T00:00:00	2024-11-08T12:00:00	7	Dirección del viento	4.83
128975	7	Sololá	704	Santa Lucía Utatlán 	7	Santa Rita 	11	Noviembre	2023-11-14T00:00:00	2024-11-08T12:00:00	1	Precipitación	0
128976	7	Sololá	704	Santa Lucía Utatlán 	7	Santa Rita 	11	Noviembre	2023-11-14T00:00:00	2024-11-08T12:00:00	8	Radiación solar	876
128977	7	Sololá	704	Santa Lucía Utatlán 	7	Santa Rita 	11	Noviembre	2023-11-14T00:00:00	2024-11-08T13:00:00	2	Temperatura media	21.5
128978	7	Sololá	704	Santa Lucía Utatlán 	7	Santa Rita 	11	Noviembre	2023-11-14T00:00:00	2024-11-08T13:00:00	4	Temperatura máxima	22.4
128979	7	Sololá	704	Santa Lucía Utatlán 	7	Santa Rita 	11	Noviembre	2023-11-14T00:00:00	2024-11-08T13:00:00	3	Temperatura mínima	21.5
128980	7	Sololá	704	Santa Lucía Utatlán 	7	Santa Rita 	11	Noviembre	2023-11-14T00:00:00	2024-11-08T13:00:00	5	Humedad	91
128981	7	Sololá	704	Santa Lucía Utatlán 	7	Santa Rita 	11	Noviembre	2023-11-14T00:00:00	2024-11-08T13:00:00	6	Velocidad del viento	3.2
128982	7	Sololá	704	Santa Lucía Utatlán 	7	Santa Rita 	11	Noviembre	2023-11-14T00:00:00	2024-11-08T13:00:00	7	Dirección del viento	3.22
128983	7	Sololá	704	Santa Lucía Utatlán 	7	Santa Rita 	11	Noviembre	2023-11-14T00:00:00	2024-11-08T13:00:00	1	Precipitación	0
128984	7	Sololá	704	Santa Lucía Utatlán 	7	Santa Rita 	11	Noviembre	2023-11-14T00:00:00	2024-11-08T13:00:00	8	Radiación solar	1058
128985	7	Sololá	704	Santa Lucía Utatlán 	7	Santa Rita 	11	Noviembre	2023-11-14T00:00:00	2024-11-08T14:00:00	2	Temperatura media	20.6
128986	7	Sololá	704	Santa Lucía Utatlán 	7	Santa Rita 	11	Noviembre	2023-11-14T00:00:00	2024-11-08T14:00:00	4	Temperatura máxima	21.6
128987	7	Sololá	704	Santa Lucía Utatlán 	7	Santa Rita 	11	Noviembre	2023-11-14T00:00:00	2024-11-08T14:00:00	3	Temperatura mínima	20.6
128988	7	Sololá	704	Santa Lucía Utatlán 	7	Santa Rita 	11	Noviembre	2023-11-14T00:00:00	2024-11-08T14:00:00	5	Humedad	91
128989	7	Sololá	704	Santa Lucía Utatlán 	7	Santa Rita 	11	Noviembre	2023-11-14T00:00:00	2024-11-08T14:00:00	6	Velocidad del viento	1.6
128990	7	Sololá	704	Santa Lucía Utatlán 	7	Santa Rita 	11	Noviembre	2023-11-14T00:00:00	2024-11-08T14:00:00	7	Dirección del viento	1.61
128991	7	Sololá	704	Santa Lucía Utatlán 	7	Santa Rita 	11	Noviembre	2023-11-14T00:00:00	2024-11-08T14:00:00	1	Precipitación	0
128992	7	Sololá	704	Santa Lucía Utatlán 	7	Santa Rita 	11	Noviembre	2023-11-14T00:00:00	2024-11-08T14:00:00	8	Radiación solar	843
128993	7	Sololá	704	Santa Lucía Utatlán 	7	Santa Rita 	11	Noviembre	2023-11-14T00:00:00	2024-11-08T15:00:00	2	Temperatura media	19.2
128994	7	Sololá	704	Santa Lucía Utatlán 	7	Santa Rita 	11	Noviembre	2023-11-14T00:00:00	2024-11-08T15:00:00	4	Temperatura máxima	20.6
128995	7	Sololá	704	Santa Lucía Utatlán 	7	Santa Rita 	11	Noviembre	2023-11-14T00:00:00	2024-11-08T15:00:00	3	Temperatura mínima	19.2
128996	7	Sololá	704	Santa Lucía Utatlán 	7	Santa Rita 	11	Noviembre	2023-11-14T00:00:00	2024-11-08T15:00:00	5	Humedad	92
128997	7	Sololá	704	Santa Lucía Utatlán 	7	Santa Rita 	11	Noviembre	2023-11-14T00:00:00	2024-11-08T15:00:00	6	Velocidad del viento	3.2
128998	7	Sololá	704	Santa Lucía Utatlán 	7	Santa Rita 	11	Noviembre	2023-11-14T00:00:00	2024-11-08T15:00:00	7	Dirección del viento	3.22
128999	7	Sololá	704	Santa Lucía Utatlán 	7	Santa Rita 	11	Noviembre	2023-11-14T00:00:00	2024-11-08T15:00:00	1	Precipitación	0
129000	7	Sololá	704	Santa Lucía Utatlán 	7	Santa Rita 	11	Noviembre	2023-11-14T00:00:00	2024-11-08T15:00:00	8	Radiación solar	698
129001	7	Sololá	704	Santa Lucía Utatlán 	7	Santa Rita 	11	Noviembre	2023-11-14T00:00:00	2024-11-08T16:00:00	2	Temperatura media	18.7
129002	7	Sololá	704	Santa Lucía Utatlán 	7	Santa Rita 	11	Noviembre	2023-11-14T00:00:00	2024-11-08T16:00:00	4	Temperatura máxima	19.3
129003	7	Sololá	704	Santa Lucía Utatlán 	7	Santa Rita 	11	Noviembre	2023-11-14T00:00:00	2024-11-08T16:00:00	3	Temperatura mínima	18.6
129004	7	Sololá	704	Santa Lucía Utatlán 	7	Santa Rita 	11	Noviembre	2023-11-14T00:00:00	2024-11-08T16:00:00	5	Humedad	91
129005	7	Sololá	704	Santa Lucía Utatlán 	7	Santa Rita 	11	Noviembre	2023-11-14T00:00:00	2024-11-08T16:00:00	6	Velocidad del viento	3.2
129006	7	Sololá	704	Santa Lucía Utatlán 	7	Santa Rita 	11	Noviembre	2023-11-14T00:00:00	2024-11-08T16:00:00	7	Dirección del viento	3.22
129007	7	Sololá	704	Santa Lucía Utatlán 	7	Santa Rita 	11	Noviembre	2023-11-14T00:00:00	2024-11-08T16:00:00	1	Precipitación	0
129008	7	Sololá	704	Santa Lucía Utatlán 	7	Santa Rita 	11	Noviembre	2023-11-14T00:00:00	2024-11-08T16:00:00	8	Radiación solar	163
129009	7	Sololá	704	Santa Lucía Utatlán 	7	Santa Rita 	11	Noviembre	2023-11-14T00:00:00	2024-11-08T17:00:00	2	Temperatura media	19.4
129010	7	Sololá	704	Santa Lucía Utatlán 	7	Santa Rita 	11	Noviembre	2023-11-14T00:00:00	2024-11-08T17:00:00	4	Temperatura máxima	19.4
129011	7	Sololá	704	Santa Lucía Utatlán 	7	Santa Rita 	11	Noviembre	2023-11-14T00:00:00	2024-11-08T17:00:00	3	Temperatura mínima	18.7
129012	7	Sololá	704	Santa Lucía Utatlán 	7	Santa Rita 	11	Noviembre	2023-11-14T00:00:00	2024-11-08T17:00:00	5	Humedad	93
129013	7	Sololá	704	Santa Lucía Utatlán 	7	Santa Rita 	11	Noviembre	2023-11-14T00:00:00	2024-11-08T17:00:00	6	Velocidad del viento	1.6
129014	7	Sololá	704	Santa Lucía Utatlán 	7	Santa Rita 	11	Noviembre	2023-11-14T00:00:00	2024-11-08T17:00:00	7	Dirección del viento	1.61
129015	7	Sololá	704	Santa Lucía Utatlán 	7	Santa Rita 	11	Noviembre	2023-11-14T00:00:00	2024-11-08T17:00:00	1	Precipitación	0
129016	7	Sololá	704	Santa Lucía Utatlán 	7	Santa Rita 	11	Noviembre	2023-11-14T00:00:00	2024-11-08T17:00:00	8	Radiación solar	146
129017	7	Sololá	704	Santa Lucía Utatlán 	7	Santa Rita 	11	Noviembre	2023-11-14T00:00:00	2024-11-08T18:00:00	2	Temperatura media	19.3
129018	7	Sololá	704	Santa Lucía Utatlán 	7	Santa Rita 	11	Noviembre	2023-11-14T00:00:00	2024-11-08T18:00:00	4	Temperatura máxima	19.4
129019	7	Sololá	704	Santa Lucía Utatlán 	7	Santa Rita 	11	Noviembre	2023-11-14T00:00:00	2024-11-08T18:00:00	3	Temperatura mínima	19.3
129020	7	Sololá	704	Santa Lucía Utatlán 	7	Santa Rita 	11	Noviembre	2023-11-14T00:00:00	2024-11-08T18:00:00	5	Humedad	94
129021	7	Sololá	704	Santa Lucía Utatlán 	7	Santa Rita 	11	Noviembre	2023-11-14T00:00:00	2024-11-08T18:00:00	6	Velocidad del viento	1.6
129022	7	Sololá	704	Santa Lucía Utatlán 	7	Santa Rita 	11	Noviembre	2023-11-14T00:00:00	2024-11-08T18:00:00	7	Dirección del viento	1.61
129023	7	Sololá	704	Santa Lucía Utatlán 	7	Santa Rita 	11	Noviembre	2023-11-14T00:00:00	2024-11-08T18:00:00	1	Precipitación	0
129024	7	Sololá	704	Santa Lucía Utatlán 	7	Santa Rita 	11	Noviembre	2023-11-14T00:00:00	2024-11-08T18:00:00	8	Radiación solar	34
129025	7	Sololá	704	Santa Lucía Utatlán 	7	Santa Rita 	11	Noviembre	2023-11-14T00:00:00	2024-11-08T19:00:00	2	Temperatura media	18.6
129026	7	Sololá	704	Santa Lucía Utatlán 	7	Santa Rita 	11	Noviembre	2023-11-14T00:00:00	2024-11-08T19:00:00	4	Temperatura máxima	19.4
129027	7	Sololá	704	Santa Lucía Utatlán 	7	Santa Rita 	11	Noviembre	2023-11-14T00:00:00	2024-11-08T19:00:00	3	Temperatura mínima	18.6
129028	7	Sololá	704	Santa Lucía Utatlán 	7	Santa Rita 	11	Noviembre	2023-11-14T00:00:00	2024-11-08T19:00:00	5	Humedad	94
129029	7	Sololá	704	Santa Lucía Utatlán 	7	Santa Rita 	11	Noviembre	2023-11-14T00:00:00	2024-11-08T19:00:00	6	Velocidad del viento	1.6
129030	7	Sololá	704	Santa Lucía Utatlán 	7	Santa Rita 	11	Noviembre	2023-11-14T00:00:00	2024-11-08T19:00:00	7	Dirección del viento	1.61
129031	7	Sololá	704	Santa Lucía Utatlán 	7	Santa Rita 	11	Noviembre	2023-11-14T00:00:00	2024-11-08T19:00:00	1	Precipitación	0
129032	7	Sololá	704	Santa Lucía Utatlán 	7	Santa Rita 	11	Noviembre	2023-11-14T00:00:00	2024-11-08T19:00:00	8	Radiación solar	0
129033	7	Sololá	704	Santa Lucía Utatlán 	7	Santa Rita 	11	Noviembre	2023-11-14T00:00:00	2024-11-08T20:00:00	2	Temperatura media	20.3
129034	7	Sololá	704	Santa Lucía Utatlán 	7	Santa Rita 	11	Noviembre	2023-11-14T00:00:00	2024-11-08T20:00:00	4	Temperatura máxima	21.6
129035	7	Sololá	704	Santa Lucía Utatlán 	7	Santa Rita 	11	Noviembre	2023-11-14T00:00:00	2024-11-08T20:00:00	3	Temperatura mínima	20.3
129036	7	Sololá	704	Santa Lucía Utatlán 	7	Santa Rita 	11	Noviembre	2023-11-14T00:00:00	2024-11-08T20:00:00	5	Humedad	68
129037	7	Sololá	704	Santa Lucía Utatlán 	7	Santa Rita 	11	Noviembre	2023-11-14T00:00:00	2024-11-08T20:00:00	6	Velocidad del viento	4.8
129038	7	Sololá	704	Santa Lucía Utatlán 	7	Santa Rita 	11	Noviembre	2023-11-14T00:00:00	2024-11-08T20:00:00	7	Dirección del viento	4.83
129039	7	Sololá	704	Santa Lucía Utatlán 	7	Santa Rita 	11	Noviembre	2023-11-14T00:00:00	2024-11-08T20:00:00	1	Precipitación	0
129040	7	Sololá	704	Santa Lucía Utatlán 	7	Santa Rita 	11	Noviembre	2023-11-14T00:00:00	2024-11-08T20:00:00	8	Radiación solar	0
129041	7	Sololá	704	Santa Lucía Utatlán 	7	Santa Rita 	11	Noviembre	2023-11-14T00:00:00	2024-11-08T21:00:00	2	Temperatura media	19
129042	7	Sololá	704	Santa Lucía Utatlán 	7	Santa Rita 	11	Noviembre	2023-11-14T00:00:00	2024-11-08T21:00:00	4	Temperatura máxima	20.3
129043	7	Sololá	704	Santa Lucía Utatlán 	7	Santa Rita 	11	Noviembre	2023-11-14T00:00:00	2024-11-08T21:00:00	3	Temperatura mínima	18.9
129044	7	Sololá	704	Santa Lucía Utatlán 	7	Santa Rita 	11	Noviembre	2023-11-14T00:00:00	2024-11-08T21:00:00	5	Humedad	85
129045	7	Sololá	704	Santa Lucía Utatlán 	7	Santa Rita 	11	Noviembre	2023-11-14T00:00:00	2024-11-08T21:00:00	6	Velocidad del viento	3.2
129046	7	Sololá	704	Santa Lucía Utatlán 	7	Santa Rita 	11	Noviembre	2023-11-14T00:00:00	2024-11-08T21:00:00	7	Dirección del viento	3.22
129047	7	Sololá	704	Santa Lucía Utatlán 	7	Santa Rita 	11	Noviembre	2023-11-14T00:00:00	2024-11-08T21:00:00	1	Precipitación	0
129048	7	Sololá	704	Santa Lucía Utatlán 	7	Santa Rita 	11	Noviembre	2023-11-14T00:00:00	2024-11-08T21:00:00	8	Radiación solar	0
129049	7	Sololá	704	Santa Lucía Utatlán 	7	Santa Rita 	11	Noviembre	2023-11-14T00:00:00	2024-11-08T22:00:00	2	Temperatura media	18.9
129050	7	Sololá	704	Santa Lucía Utatlán 	7	Santa Rita 	11	Noviembre	2023-11-14T00:00:00	2024-11-08T22:00:00	4	Temperatura máxima	19.1
129051	7	Sololá	704	Santa Lucía Utatlán 	7	Santa Rita 	11	Noviembre	2023-11-14T00:00:00	2024-11-08T22:00:00	3	Temperatura mínima	18.7
129052	7	Sololá	704	Santa Lucía Utatlán 	7	Santa Rita 	11	Noviembre	2023-11-14T00:00:00	2024-11-08T22:00:00	5	Humedad	88
129053	7	Sololá	704	Santa Lucía Utatlán 	7	Santa Rita 	11	Noviembre	2023-11-14T00:00:00	2024-11-08T22:00:00	6	Velocidad del viento	3.2
129054	7	Sololá	704	Santa Lucía Utatlán 	7	Santa Rita 	11	Noviembre	2023-11-14T00:00:00	2024-11-08T22:00:00	7	Dirección del viento	3.22
129055	7	Sololá	704	Santa Lucía Utatlán 	7	Santa Rita 	11	Noviembre	2023-11-14T00:00:00	2024-11-08T22:00:00	1	Precipitación	0
129056	7	Sololá	704	Santa Lucía Utatlán 	7	Santa Rita 	11	Noviembre	2023-11-14T00:00:00	2024-11-08T22:00:00	8	Radiación solar	0
129057	7	Sololá	704	Santa Lucía Utatlán 	7	Santa Rita 	11	Noviembre	2023-11-14T00:00:00	2024-11-08T23:00:00	2	Temperatura media	16.6
129058	7	Sololá	704	Santa Lucía Utatlán 	7	Santa Rita 	11	Noviembre	2023-11-14T00:00:00	2024-11-08T23:00:00	4	Temperatura máxima	17.1
129059	7	Sololá	704	Santa Lucía Utatlán 	7	Santa Rita 	11	Noviembre	2023-11-14T00:00:00	2024-11-08T23:00:00	3	Temperatura mínima	16.6
129060	7	Sololá	704	Santa Lucía Utatlán 	7	Santa Rita 	11	Noviembre	2023-11-14T00:00:00	2024-11-08T23:00:00	5	Humedad	92
129061	7	Sololá	704	Santa Lucía Utatlán 	7	Santa Rita 	11	Noviembre	2023-11-14T00:00:00	2024-11-08T23:00:00	6	Velocidad del viento	3.2
129062	7	Sololá	704	Santa Lucía Utatlán 	7	Santa Rita 	11	Noviembre	2023-11-14T00:00:00	2024-11-08T23:00:00	7	Dirección del viento	3.22
129063	7	Sololá	704	Santa Lucía Utatlán 	7	Santa Rita 	11	Noviembre	2023-11-14T00:00:00	2024-11-08T23:00:00	1	Precipitación	0
129064	7	Sololá	704	Santa Lucía Utatlán 	7	Santa Rita 	11	Noviembre	2023-11-14T00:00:00	2024-11-08T23:00:00	8	Radiación solar	0
129065	7	Sololá	704	Santa Lucía Utatlán 	7	Santa Rita 	11	Noviembre	2023-11-15T00:00:00	2024-11-08T00:00:00	2	Temperatura media	16.3
129066	7	Sololá	704	Santa Lucía Utatlán 	7	Santa Rita 	11	Noviembre	2023-11-15T00:00:00	2024-11-08T00:00:00	4	Temperatura máxima	16.6
129067	7	Sololá	704	Santa Lucía Utatlán 	7	Santa Rita 	11	Noviembre	2023-11-15T00:00:00	2024-11-08T00:00:00	3	Temperatura mínima	16.2
129068	7	Sololá	704	Santa Lucía Utatlán 	7	Santa Rita 	11	Noviembre	2023-11-15T00:00:00	2024-11-08T00:00:00	5	Humedad	92
129069	7	Sololá	704	Santa Lucía Utatlán 	7	Santa Rita 	11	Noviembre	2023-11-15T00:00:00	2024-11-08T00:00:00	6	Velocidad del viento	3.2
129070	7	Sololá	704	Santa Lucía Utatlán 	7	Santa Rita 	11	Noviembre	2023-11-15T00:00:00	2024-11-08T00:00:00	7	Dirección del viento	3.22
129071	7	Sololá	704	Santa Lucía Utatlán 	7	Santa Rita 	11	Noviembre	2023-11-15T00:00:00	2024-11-08T00:00:00	1	Precipitación	0
129072	7	Sololá	704	Santa Lucía Utatlán 	7	Santa Rita 	11	Noviembre	2023-11-15T00:00:00	2024-11-08T00:00:00	8	Radiación solar	0
129073	7	Sololá	704	Santa Lucía Utatlán 	7	Santa Rita 	11	Noviembre	2023-11-15T00:00:00	2024-11-08T01:00:00	2	Temperatura media	16.6
129074	7	Sololá	704	Santa Lucía Utatlán 	7	Santa Rita 	11	Noviembre	2023-11-15T00:00:00	2024-11-08T01:00:00	4	Temperatura máxima	16.6
129075	7	Sololá	704	Santa Lucía Utatlán 	7	Santa Rita 	11	Noviembre	2023-11-15T00:00:00	2024-11-08T01:00:00	3	Temperatura mínima	16.1
129076	7	Sololá	704	Santa Lucía Utatlán 	7	Santa Rita 	11	Noviembre	2023-11-15T00:00:00	2024-11-08T01:00:00	5	Humedad	93
129077	7	Sololá	704	Santa Lucía Utatlán 	7	Santa Rita 	11	Noviembre	2023-11-15T00:00:00	2024-11-08T01:00:00	6	Velocidad del viento	4.8
129078	7	Sololá	704	Santa Lucía Utatlán 	7	Santa Rita 	11	Noviembre	2023-11-15T00:00:00	2024-11-08T01:00:00	7	Dirección del viento	4.83
129079	7	Sololá	704	Santa Lucía Utatlán 	7	Santa Rita 	11	Noviembre	2023-11-15T00:00:00	2024-11-08T01:00:00	1	Precipitación	0
129080	7	Sololá	704	Santa Lucía Utatlán 	7	Santa Rita 	11	Noviembre	2023-11-15T00:00:00	2024-11-08T01:00:00	8	Radiación solar	0
129081	7	Sololá	704	Santa Lucía Utatlán 	7	Santa Rita 	11	Noviembre	2023-11-15T00:00:00	2024-11-08T02:00:00	2	Temperatura media	19.5
129082	7	Sololá	704	Santa Lucía Utatlán 	7	Santa Rita 	11	Noviembre	2023-11-15T00:00:00	2024-11-08T02:00:00	4	Temperatura máxima	19.5
129083	7	Sololá	704	Santa Lucía Utatlán 	7	Santa Rita 	11	Noviembre	2023-11-15T00:00:00	2024-11-08T02:00:00	3	Temperatura mínima	16.6
129084	7	Sololá	704	Santa Lucía Utatlán 	7	Santa Rita 	11	Noviembre	2023-11-15T00:00:00	2024-11-08T02:00:00	5	Humedad	89
129085	7	Sololá	704	Santa Lucía Utatlán 	7	Santa Rita 	11	Noviembre	2023-11-15T00:00:00	2024-11-08T02:00:00	6	Velocidad del viento	1.6
129086	7	Sololá	704	Santa Lucía Utatlán 	7	Santa Rita 	11	Noviembre	2023-11-15T00:00:00	2024-11-08T02:00:00	7	Dirección del viento	1.61
129087	7	Sololá	704	Santa Lucía Utatlán 	7	Santa Rita 	11	Noviembre	2023-11-15T00:00:00	2024-11-08T02:00:00	1	Precipitación	0
129088	7	Sololá	704	Santa Lucía Utatlán 	7	Santa Rita 	11	Noviembre	2023-11-15T00:00:00	2024-11-08T02:00:00	8	Radiación solar	0
129089	7	Sololá	704	Santa Lucía Utatlán 	7	Santa Rita 	11	Noviembre	2023-11-15T00:00:00	2024-11-08T03:00:00	2	Temperatura media	22.4
129090	7	Sololá	704	Santa Lucía Utatlán 	7	Santa Rita 	11	Noviembre	2023-11-15T00:00:00	2024-11-08T03:00:00	4	Temperatura máxima	22.4
129091	7	Sololá	704	Santa Lucía Utatlán 	7	Santa Rita 	11	Noviembre	2023-11-15T00:00:00	2024-11-08T03:00:00	3	Temperatura mínima	19.5
129092	7	Sololá	704	Santa Lucía Utatlán 	7	Santa Rita 	11	Noviembre	2023-11-15T00:00:00	2024-11-08T03:00:00	5	Humedad	76
129093	7	Sololá	704	Santa Lucía Utatlán 	7	Santa Rita 	11	Noviembre	2023-11-15T00:00:00	2024-11-08T03:00:00	6	Velocidad del viento	3.2
129094	7	Sololá	704	Santa Lucía Utatlán 	7	Santa Rita 	11	Noviembre	2023-11-15T00:00:00	2024-11-08T03:00:00	7	Dirección del viento	3.22
129095	7	Sololá	704	Santa Lucía Utatlán 	7	Santa Rita 	11	Noviembre	2023-11-15T00:00:00	2024-11-08T03:00:00	1	Precipitación	0
129096	7	Sololá	704	Santa Lucía Utatlán 	7	Santa Rita 	11	Noviembre	2023-11-15T00:00:00	2024-11-08T03:00:00	8	Radiación solar	0
129097	7	Sololá	704	Santa Lucía Utatlán 	7	Santa Rita 	11	Noviembre	2023-11-15T00:00:00	2024-11-08T04:00:00	2	Temperatura media	24
129098	7	Sololá	704	Santa Lucía Utatlán 	7	Santa Rita 	11	Noviembre	2023-11-15T00:00:00	2024-11-08T04:00:00	4	Temperatura máxima	24
129099	7	Sololá	704	Santa Lucía Utatlán 	7	Santa Rita 	11	Noviembre	2023-11-15T00:00:00	2024-11-08T04:00:00	3	Temperatura mínima	22.4
129100	7	Sololá	704	Santa Lucía Utatlán 	7	Santa Rita 	11	Noviembre	2023-11-15T00:00:00	2024-11-08T04:00:00	5	Humedad	69
129101	7	Sololá	704	Santa Lucía Utatlán 	7	Santa Rita 	11	Noviembre	2023-11-15T00:00:00	2024-11-08T04:00:00	6	Velocidad del viento	4.8
129102	7	Sololá	704	Santa Lucía Utatlán 	7	Santa Rita 	11	Noviembre	2023-11-15T00:00:00	2024-11-08T04:00:00	7	Dirección del viento	4.83
129103	7	Sololá	704	Santa Lucía Utatlán 	7	Santa Rita 	11	Noviembre	2023-11-15T00:00:00	2024-11-08T04:00:00	1	Precipitación	0
129104	7	Sololá	704	Santa Lucía Utatlán 	7	Santa Rita 	11	Noviembre	2023-11-15T00:00:00	2024-11-08T04:00:00	8	Radiación solar	0
129105	7	Sololá	704	Santa Lucía Utatlán 	7	Santa Rita 	11	Noviembre	2023-11-15T00:00:00	2024-11-08T05:00:00	2	Temperatura media	24.6
129106	7	Sololá	704	Santa Lucía Utatlán 	7	Santa Rita 	11	Noviembre	2023-11-15T00:00:00	2024-11-08T05:00:00	4	Temperatura máxima	24.8
129107	7	Sololá	704	Santa Lucía Utatlán 	7	Santa Rita 	11	Noviembre	2023-11-15T00:00:00	2024-11-08T05:00:00	3	Temperatura mínima	23.7
129108	7	Sololá	704	Santa Lucía Utatlán 	7	Santa Rita 	11	Noviembre	2023-11-15T00:00:00	2024-11-08T05:00:00	5	Humedad	67
129109	7	Sololá	704	Santa Lucía Utatlán 	7	Santa Rita 	11	Noviembre	2023-11-15T00:00:00	2024-11-08T05:00:00	6	Velocidad del viento	8
129110	7	Sololá	704	Santa Lucía Utatlán 	7	Santa Rita 	11	Noviembre	2023-11-15T00:00:00	2024-11-08T05:00:00	7	Dirección del viento	8.05
129111	7	Sololá	704	Santa Lucía Utatlán 	7	Santa Rita 	11	Noviembre	2023-11-15T00:00:00	2024-11-08T05:00:00	1	Precipitación	0
129112	7	Sololá	704	Santa Lucía Utatlán 	7	Santa Rita 	11	Noviembre	2023-11-15T00:00:00	2024-11-08T05:00:00	8	Radiación solar	0
129113	7	Sololá	704	Santa Lucía Utatlán 	7	Santa Rita 	11	Noviembre	2023-11-15T00:00:00	2024-11-08T06:00:00	2	Temperatura media	25.5
129114	7	Sololá	704	Santa Lucía Utatlán 	7	Santa Rita 	11	Noviembre	2023-11-15T00:00:00	2024-11-08T06:00:00	4	Temperatura máxima	25.5
129115	7	Sololá	704	Santa Lucía Utatlán 	7	Santa Rita 	11	Noviembre	2023-11-15T00:00:00	2024-11-08T06:00:00	3	Temperatura mínima	24.4
129116	7	Sololá	704	Santa Lucía Utatlán 	7	Santa Rita 	11	Noviembre	2023-11-15T00:00:00	2024-11-08T06:00:00	5	Humedad	63
129117	7	Sololá	704	Santa Lucía Utatlán 	7	Santa Rita 	11	Noviembre	2023-11-15T00:00:00	2024-11-08T06:00:00	6	Velocidad del viento	9.7
129118	7	Sololá	704	Santa Lucía Utatlán 	7	Santa Rita 	11	Noviembre	2023-11-15T00:00:00	2024-11-08T06:00:00	7	Dirección del viento	9.66
129119	7	Sololá	704	Santa Lucía Utatlán 	7	Santa Rita 	11	Noviembre	2023-11-15T00:00:00	2024-11-08T06:00:00	1	Precipitación	0
129120	7	Sololá	704	Santa Lucía Utatlán 	7	Santa Rita 	11	Noviembre	2023-11-15T00:00:00	2024-11-08T06:00:00	8	Radiación solar	8
129121	7	Sololá	704	Santa Lucía Utatlán 	7	Santa Rita 	11	Noviembre	2023-11-15T00:00:00	2024-11-08T07:00:00	2	Temperatura media	26.4
129122	7	Sololá	704	Santa Lucía Utatlán 	7	Santa Rita 	11	Noviembre	2023-11-15T00:00:00	2024-11-08T07:00:00	4	Temperatura máxima	26.4
129123	7	Sololá	704	Santa Lucía Utatlán 	7	Santa Rita 	11	Noviembre	2023-11-15T00:00:00	2024-11-08T07:00:00	3	Temperatura mínima	25.4
129124	7	Sololá	704	Santa Lucía Utatlán 	7	Santa Rita 	11	Noviembre	2023-11-15T00:00:00	2024-11-08T07:00:00	5	Humedad	54
129125	7	Sololá	704	Santa Lucía Utatlán 	7	Santa Rita 	11	Noviembre	2023-11-15T00:00:00	2024-11-08T07:00:00	6	Velocidad del viento	9.7
129126	7	Sololá	704	Santa Lucía Utatlán 	7	Santa Rita 	11	Noviembre	2023-11-15T00:00:00	2024-11-08T07:00:00	7	Dirección del viento	9.66
129127	7	Sololá	704	Santa Lucía Utatlán 	7	Santa Rita 	11	Noviembre	2023-11-15T00:00:00	2024-11-08T07:00:00	1	Precipitación	0
129128	7	Sololá	704	Santa Lucía Utatlán 	7	Santa Rita 	11	Noviembre	2023-11-15T00:00:00	2024-11-08T07:00:00	8	Radiación solar	129
129129	7	Sololá	704	Santa Lucía Utatlán 	7	Santa Rita 	11	Noviembre	2023-11-15T00:00:00	2024-11-08T08:00:00	2	Temperatura media	26.1
129130	7	Sololá	704	Santa Lucía Utatlán 	7	Santa Rita 	11	Noviembre	2023-11-15T00:00:00	2024-11-08T08:00:00	4	Temperatura máxima	26.4
129131	7	Sololá	704	Santa Lucía Utatlán 	7	Santa Rita 	11	Noviembre	2023-11-15T00:00:00	2024-11-08T08:00:00	3	Temperatura mínima	25.8
129132	7	Sololá	704	Santa Lucía Utatlán 	7	Santa Rita 	11	Noviembre	2023-11-15T00:00:00	2024-11-08T08:00:00	5	Humedad	51
129133	7	Sololá	704	Santa Lucía Utatlán 	7	Santa Rita 	11	Noviembre	2023-11-15T00:00:00	2024-11-08T08:00:00	6	Velocidad del viento	9.7
129134	7	Sololá	704	Santa Lucía Utatlán 	7	Santa Rita 	11	Noviembre	2023-11-15T00:00:00	2024-11-08T08:00:00	7	Dirección del viento	9.66
129135	7	Sololá	704	Santa Lucía Utatlán 	7	Santa Rita 	11	Noviembre	2023-11-15T00:00:00	2024-11-08T08:00:00	1	Precipitación	0
129136	7	Sololá	704	Santa Lucía Utatlán 	7	Santa Rita 	11	Noviembre	2023-11-15T00:00:00	2024-11-08T08:00:00	8	Radiación solar	407
129137	7	Sololá	704	Santa Lucía Utatlán 	7	Santa Rita 	11	Noviembre	2023-11-15T00:00:00	2024-11-08T09:00:00	2	Temperatura media	23.6
129138	7	Sololá	704	Santa Lucía Utatlán 	7	Santa Rita 	11	Noviembre	2023-11-15T00:00:00	2024-11-08T09:00:00	4	Temperatura máxima	26.1
129139	7	Sololá	704	Santa Lucía Utatlán 	7	Santa Rita 	11	Noviembre	2023-11-15T00:00:00	2024-11-08T09:00:00	3	Temperatura mínima	23.6
129140	7	Sololá	704	Santa Lucía Utatlán 	7	Santa Rita 	11	Noviembre	2023-11-15T00:00:00	2024-11-08T09:00:00	5	Humedad	79
129141	7	Sololá	704	Santa Lucía Utatlán 	7	Santa Rita 	11	Noviembre	2023-11-15T00:00:00	2024-11-08T09:00:00	6	Velocidad del viento	9.7
129142	7	Sololá	704	Santa Lucía Utatlán 	7	Santa Rita 	11	Noviembre	2023-11-15T00:00:00	2024-11-08T09:00:00	7	Dirección del viento	9.66
129143	7	Sololá	704	Santa Lucía Utatlán 	7	Santa Rita 	11	Noviembre	2023-11-15T00:00:00	2024-11-08T09:00:00	1	Precipitación	0
129144	7	Sololá	704	Santa Lucía Utatlán 	7	Santa Rita 	11	Noviembre	2023-11-15T00:00:00	2024-11-08T09:00:00	8	Radiación solar	703
129145	7	Sololá	704	Santa Lucía Utatlán 	7	Santa Rita 	11	Noviembre	2023-11-15T00:00:00	2024-11-08T10:00:00	2	Temperatura media	23.9
129146	7	Sololá	704	Santa Lucía Utatlán 	7	Santa Rita 	11	Noviembre	2023-11-15T00:00:00	2024-11-08T10:00:00	4	Temperatura máxima	24
129147	7	Sololá	704	Santa Lucía Utatlán 	7	Santa Rita 	11	Noviembre	2023-11-15T00:00:00	2024-11-08T10:00:00	3	Temperatura mínima	22.8
129148	7	Sololá	704	Santa Lucía Utatlán 	7	Santa Rita 	11	Noviembre	2023-11-15T00:00:00	2024-11-08T10:00:00	5	Humedad	73
129149	7	Sololá	704	Santa Lucía Utatlán 	7	Santa Rita 	11	Noviembre	2023-11-15T00:00:00	2024-11-08T10:00:00	6	Velocidad del viento	9.7
129150	7	Sololá	704	Santa Lucía Utatlán 	7	Santa Rita 	11	Noviembre	2023-11-15T00:00:00	2024-11-08T10:00:00	7	Dirección del viento	9.66
129151	7	Sololá	704	Santa Lucía Utatlán 	7	Santa Rita 	11	Noviembre	2023-11-15T00:00:00	2024-11-08T10:00:00	1	Precipitación	0
129152	7	Sololá	704	Santa Lucía Utatlán 	7	Santa Rita 	11	Noviembre	2023-11-15T00:00:00	2024-11-08T10:00:00	8	Radiación solar	844
129153	7	Sololá	704	Santa Lucía Utatlán 	7	Santa Rita 	11	Noviembre	2023-11-15T00:00:00	2024-11-08T11:00:00	2	Temperatura media	22.2
129154	7	Sololá	704	Santa Lucía Utatlán 	7	Santa Rita 	11	Noviembre	2023-11-15T00:00:00	2024-11-08T11:00:00	4	Temperatura máxima	24
129155	7	Sololá	704	Santa Lucía Utatlán 	7	Santa Rita 	11	Noviembre	2023-11-15T00:00:00	2024-11-08T11:00:00	3	Temperatura mínima	22.2
129156	7	Sololá	704	Santa Lucía Utatlán 	7	Santa Rita 	11	Noviembre	2023-11-15T00:00:00	2024-11-08T11:00:00	5	Humedad	84
129157	7	Sololá	704	Santa Lucía Utatlán 	7	Santa Rita 	11	Noviembre	2023-11-15T00:00:00	2024-11-08T11:00:00	6	Velocidad del viento	9.7
129158	7	Sololá	704	Santa Lucía Utatlán 	7	Santa Rita 	11	Noviembre	2023-11-15T00:00:00	2024-11-08T11:00:00	7	Dirección del viento	9.66
129159	7	Sololá	704	Santa Lucía Utatlán 	7	Santa Rita 	11	Noviembre	2023-11-15T00:00:00	2024-11-08T11:00:00	1	Precipitación	0
129160	7	Sololá	704	Santa Lucía Utatlán 	7	Santa Rita 	11	Noviembre	2023-11-15T00:00:00	2024-11-08T11:00:00	8	Radiación solar	974
129161	7	Sololá	704	Santa Lucía Utatlán 	7	Santa Rita 	11	Noviembre	2023-11-15T00:00:00	2024-11-08T12:00:00	2	Temperatura media	21.8
129162	7	Sololá	704	Santa Lucía Utatlán 	7	Santa Rita 	11	Noviembre	2023-11-15T00:00:00	2024-11-08T12:00:00	4	Temperatura máxima	22.3
129163	7	Sololá	704	Santa Lucía Utatlán 	7	Santa Rita 	11	Noviembre	2023-11-15T00:00:00	2024-11-08T12:00:00	3	Temperatura mínima	21.7
129164	7	Sololá	704	Santa Lucía Utatlán 	7	Santa Rita 	11	Noviembre	2023-11-15T00:00:00	2024-11-08T12:00:00	5	Humedad	86
129165	7	Sololá	704	Santa Lucía Utatlán 	7	Santa Rita 	11	Noviembre	2023-11-15T00:00:00	2024-11-08T12:00:00	6	Velocidad del viento	4.8
129166	7	Sololá	704	Santa Lucía Utatlán 	7	Santa Rita 	11	Noviembre	2023-11-15T00:00:00	2024-11-08T12:00:00	7	Dirección del viento	4.83
129167	7	Sololá	704	Santa Lucía Utatlán 	7	Santa Rita 	11	Noviembre	2023-11-15T00:00:00	2024-11-08T12:00:00	1	Precipitación	0
129168	7	Sololá	704	Santa Lucía Utatlán 	7	Santa Rita 	11	Noviembre	2023-11-15T00:00:00	2024-11-08T12:00:00	8	Radiación solar	1043
129169	7	Sololá	704	Santa Lucía Utatlán 	7	Santa Rita 	11	Noviembre	2023-11-15T00:00:00	2024-11-08T13:00:00	2	Temperatura media	20.9
129170	7	Sololá	704	Santa Lucía Utatlán 	7	Santa Rita 	11	Noviembre	2023-11-15T00:00:00	2024-11-08T13:00:00	4	Temperatura máxima	21.8
129171	7	Sololá	704	Santa Lucía Utatlán 	7	Santa Rita 	11	Noviembre	2023-11-15T00:00:00	2024-11-08T13:00:00	3	Temperatura mínima	20.9
129172	7	Sololá	704	Santa Lucía Utatlán 	7	Santa Rita 	11	Noviembre	2023-11-15T00:00:00	2024-11-08T13:00:00	5	Humedad	83
129173	7	Sololá	704	Santa Lucía Utatlán 	7	Santa Rita 	11	Noviembre	2023-11-15T00:00:00	2024-11-08T13:00:00	6	Velocidad del viento	3.2
129174	7	Sololá	704	Santa Lucía Utatlán 	7	Santa Rita 	11	Noviembre	2023-11-15T00:00:00	2024-11-08T13:00:00	7	Dirección del viento	3.22
129175	7	Sololá	704	Santa Lucía Utatlán 	7	Santa Rita 	11	Noviembre	2023-11-15T00:00:00	2024-11-08T13:00:00	1	Precipitación	0
129176	7	Sololá	704	Santa Lucía Utatlán 	7	Santa Rita 	11	Noviembre	2023-11-15T00:00:00	2024-11-08T13:00:00	8	Radiación solar	711
129177	7	Sololá	704	Santa Lucía Utatlán 	7	Santa Rita 	11	Noviembre	2023-11-15T00:00:00	2024-11-08T14:00:00	2	Temperatura media	20.6
129178	7	Sololá	704	Santa Lucía Utatlán 	7	Santa Rita 	11	Noviembre	2023-11-15T00:00:00	2024-11-08T14:00:00	4	Temperatura máxima	20.9
129179	7	Sololá	704	Santa Lucía Utatlán 	7	Santa Rita 	11	Noviembre	2023-11-15T00:00:00	2024-11-08T14:00:00	3	Temperatura mínima	20.3
129180	7	Sololá	704	Santa Lucía Utatlán 	7	Santa Rita 	11	Noviembre	2023-11-15T00:00:00	2024-11-08T14:00:00	5	Humedad	82
129181	7	Sololá	704	Santa Lucía Utatlán 	7	Santa Rita 	11	Noviembre	2023-11-15T00:00:00	2024-11-08T14:00:00	6	Velocidad del viento	1.6
129182	7	Sololá	704	Santa Lucía Utatlán 	7	Santa Rita 	11	Noviembre	2023-11-15T00:00:00	2024-11-08T14:00:00	7	Dirección del viento	1.61
129183	7	Sololá	704	Santa Lucía Utatlán 	7	Santa Rita 	11	Noviembre	2023-11-15T00:00:00	2024-11-08T14:00:00	1	Precipitación	0
129184	7	Sololá	704	Santa Lucía Utatlán 	7	Santa Rita 	11	Noviembre	2023-11-15T00:00:00	2024-11-08T14:00:00	8	Radiación solar	296
129185	7	Sololá	704	Santa Lucía Utatlán 	7	Santa Rita 	11	Noviembre	2023-11-15T00:00:00	2024-11-08T15:00:00	2	Temperatura media	19.7
129186	7	Sololá	704	Santa Lucía Utatlán 	7	Santa Rita 	11	Noviembre	2023-11-15T00:00:00	2024-11-08T15:00:00	4	Temperatura máxima	20.7
129187	7	Sololá	704	Santa Lucía Utatlán 	7	Santa Rita 	11	Noviembre	2023-11-15T00:00:00	2024-11-08T15:00:00	3	Temperatura mínima	19.7
129188	7	Sololá	704	Santa Lucía Utatlán 	7	Santa Rita 	11	Noviembre	2023-11-15T00:00:00	2024-11-08T15:00:00	5	Humedad	88
129189	7	Sololá	704	Santa Lucía Utatlán 	7	Santa Rita 	11	Noviembre	2023-11-15T00:00:00	2024-11-08T15:00:00	6	Velocidad del viento	1.6
129190	7	Sololá	704	Santa Lucía Utatlán 	7	Santa Rita 	11	Noviembre	2023-11-15T00:00:00	2024-11-08T15:00:00	7	Dirección del viento	1.61
129191	7	Sololá	704	Santa Lucía Utatlán 	7	Santa Rita 	11	Noviembre	2023-11-15T00:00:00	2024-11-08T15:00:00	1	Precipitación	0
129192	7	Sololá	704	Santa Lucía Utatlán 	7	Santa Rita 	11	Noviembre	2023-11-15T00:00:00	2024-11-08T15:00:00	8	Radiación solar	343
129193	7	Sololá	704	Santa Lucía Utatlán 	7	Santa Rita 	11	Noviembre	2023-11-15T00:00:00	2024-11-08T16:00:00	2	Temperatura media	19.2
129194	7	Sololá	704	Santa Lucía Utatlán 	7	Santa Rita 	11	Noviembre	2023-11-15T00:00:00	2024-11-08T16:00:00	4	Temperatura máxima	19.7
129195	7	Sololá	704	Santa Lucía Utatlán 	7	Santa Rita 	11	Noviembre	2023-11-15T00:00:00	2024-11-08T16:00:00	3	Temperatura mínima	18.9
129196	7	Sololá	704	Santa Lucía Utatlán 	7	Santa Rita 	11	Noviembre	2023-11-15T00:00:00	2024-11-08T16:00:00	5	Humedad	87
129197	7	Sololá	704	Santa Lucía Utatlán 	7	Santa Rita 	11	Noviembre	2023-11-15T00:00:00	2024-11-08T16:00:00	6	Velocidad del viento	3.2
129198	7	Sololá	704	Santa Lucía Utatlán 	7	Santa Rita 	11	Noviembre	2023-11-15T00:00:00	2024-11-08T16:00:00	7	Dirección del viento	3.22
129199	7	Sololá	704	Santa Lucía Utatlán 	7	Santa Rita 	11	Noviembre	2023-11-15T00:00:00	2024-11-08T16:00:00	1	Precipitación	0
129200	7	Sololá	704	Santa Lucía Utatlán 	7	Santa Rita 	11	Noviembre	2023-11-15T00:00:00	2024-11-08T16:00:00	8	Radiación solar	233
129201	7	Sololá	704	Santa Lucía Utatlán 	7	Santa Rita 	11	Noviembre	2023-11-15T00:00:00	2024-11-08T17:00:00	2	Temperatura media	18
129202	7	Sololá	704	Santa Lucía Utatlán 	7	Santa Rita 	11	Noviembre	2023-11-15T00:00:00	2024-11-08T17:00:00	4	Temperatura máxima	19.2
129203	7	Sololá	704	Santa Lucía Utatlán 	7	Santa Rita 	11	Noviembre	2023-11-15T00:00:00	2024-11-08T17:00:00	3	Temperatura mínima	17.8
129204	7	Sololá	704	Santa Lucía Utatlán 	7	Santa Rita 	11	Noviembre	2023-11-15T00:00:00	2024-11-08T17:00:00	5	Humedad	92
129205	7	Sololá	704	Santa Lucía Utatlán 	7	Santa Rita 	11	Noviembre	2023-11-15T00:00:00	2024-11-08T17:00:00	6	Velocidad del viento	3.2
129206	7	Sololá	704	Santa Lucía Utatlán 	7	Santa Rita 	11	Noviembre	2023-11-15T00:00:00	2024-11-08T17:00:00	7	Dirección del viento	3.22
129207	7	Sololá	704	Santa Lucía Utatlán 	7	Santa Rita 	11	Noviembre	2023-11-15T00:00:00	2024-11-08T17:00:00	1	Precipitación	0
129208	7	Sololá	704	Santa Lucía Utatlán 	7	Santa Rita 	11	Noviembre	2023-11-15T00:00:00	2024-11-08T17:00:00	8	Radiación solar	88
129209	7	Sololá	704	Santa Lucía Utatlán 	7	Santa Rita 	11	Noviembre	2023-11-15T00:00:00	2024-11-08T18:00:00	2	Temperatura media	17.3
129210	7	Sololá	704	Santa Lucía Utatlán 	7	Santa Rita 	11	Noviembre	2023-11-15T00:00:00	2024-11-08T18:00:00	4	Temperatura máxima	18
129211	7	Sololá	704	Santa Lucía Utatlán 	7	Santa Rita 	11	Noviembre	2023-11-15T00:00:00	2024-11-08T18:00:00	3	Temperatura mínima	17.3
129212	7	Sololá	704	Santa Lucía Utatlán 	7	Santa Rita 	11	Noviembre	2023-11-15T00:00:00	2024-11-08T18:00:00	5	Humedad	92
129213	7	Sololá	704	Santa Lucía Utatlán 	7	Santa Rita 	11	Noviembre	2023-11-15T00:00:00	2024-11-08T18:00:00	6	Velocidad del viento	3.2
129214	7	Sololá	704	Santa Lucía Utatlán 	7	Santa Rita 	11	Noviembre	2023-11-15T00:00:00	2024-11-08T18:00:00	7	Dirección del viento	3.22
129215	7	Sololá	704	Santa Lucía Utatlán 	7	Santa Rita 	11	Noviembre	2023-11-15T00:00:00	2024-11-08T18:00:00	1	Precipitación	0
129216	7	Sololá	704	Santa Lucía Utatlán 	7	Santa Rita 	11	Noviembre	2023-11-15T00:00:00	2024-11-08T18:00:00	8	Radiación solar	14
129217	7	Sololá	704	Santa Lucía Utatlán 	7	Santa Rita 	11	Noviembre	2023-11-15T00:00:00	2024-11-08T19:00:00	2	Temperatura media	16.4
129218	7	Sololá	704	Santa Lucía Utatlán 	7	Santa Rita 	11	Noviembre	2023-11-15T00:00:00	2024-11-08T19:00:00	4	Temperatura máxima	17.3
129219	7	Sololá	704	Santa Lucía Utatlán 	7	Santa Rita 	11	Noviembre	2023-11-15T00:00:00	2024-11-08T19:00:00	3	Temperatura mínima	16.3
129220	7	Sololá	704	Santa Lucía Utatlán 	7	Santa Rita 	11	Noviembre	2023-11-15T00:00:00	2024-11-08T19:00:00	5	Humedad	89
129221	7	Sololá	704	Santa Lucía Utatlán 	7	Santa Rita 	11	Noviembre	2023-11-15T00:00:00	2024-11-08T19:00:00	6	Velocidad del viento	4.8
129222	7	Sololá	704	Santa Lucía Utatlán 	7	Santa Rita 	11	Noviembre	2023-11-15T00:00:00	2024-11-08T19:00:00	7	Dirección del viento	4.83
129223	7	Sololá	704	Santa Lucía Utatlán 	7	Santa Rita 	11	Noviembre	2023-11-15T00:00:00	2024-11-08T19:00:00	1	Precipitación	0
129224	7	Sololá	704	Santa Lucía Utatlán 	7	Santa Rita 	11	Noviembre	2023-11-15T00:00:00	2024-11-08T19:00:00	8	Radiación solar	0
129225	7	Sololá	704	Santa Lucía Utatlán 	7	Santa Rita 	11	Noviembre	2023-11-15T00:00:00	2024-11-08T20:00:00	2	Temperatura media	16.1
129226	7	Sololá	704	Santa Lucía Utatlán 	7	Santa Rita 	11	Noviembre	2023-11-15T00:00:00	2024-11-08T20:00:00	4	Temperatura máxima	16.6
129227	7	Sololá	704	Santa Lucía Utatlán 	7	Santa Rita 	11	Noviembre	2023-11-15T00:00:00	2024-11-08T20:00:00	3	Temperatura mínima	16.1
129228	7	Sololá	704	Santa Lucía Utatlán 	7	Santa Rita 	11	Noviembre	2023-11-15T00:00:00	2024-11-08T20:00:00	5	Humedad	85
129229	7	Sololá	704	Santa Lucía Utatlán 	7	Santa Rita 	11	Noviembre	2023-11-15T00:00:00	2024-11-08T20:00:00	6	Velocidad del viento	4.8
129230	7	Sololá	704	Santa Lucía Utatlán 	7	Santa Rita 	11	Noviembre	2023-11-15T00:00:00	2024-11-08T20:00:00	7	Dirección del viento	4.83
129231	7	Sololá	704	Santa Lucía Utatlán 	7	Santa Rita 	11	Noviembre	2023-11-15T00:00:00	2024-11-08T20:00:00	1	Precipitación	0
129232	7	Sololá	704	Santa Lucía Utatlán 	7	Santa Rita 	11	Noviembre	2023-11-15T00:00:00	2024-11-08T20:00:00	8	Radiación solar	0
129233	7	Sololá	704	Santa Lucía Utatlán 	7	Santa Rita 	11	Noviembre	2023-11-15T00:00:00	2024-11-08T21:00:00	2	Temperatura media	15.8
129234	7	Sololá	704	Santa Lucía Utatlán 	7	Santa Rita 	11	Noviembre	2023-11-15T00:00:00	2024-11-08T21:00:00	4	Temperatura máxima	16.1
129235	7	Sololá	704	Santa Lucía Utatlán 	7	Santa Rita 	11	Noviembre	2023-11-15T00:00:00	2024-11-08T21:00:00	3	Temperatura mínima	15.7
129236	7	Sololá	704	Santa Lucía Utatlán 	7	Santa Rita 	11	Noviembre	2023-11-15T00:00:00	2024-11-08T21:00:00	5	Humedad	87
129237	7	Sololá	704	Santa Lucía Utatlán 	7	Santa Rita 	11	Noviembre	2023-11-15T00:00:00	2024-11-08T21:00:00	6	Velocidad del viento	4.8
129238	7	Sololá	704	Santa Lucía Utatlán 	7	Santa Rita 	11	Noviembre	2023-11-15T00:00:00	2024-11-08T21:00:00	7	Dirección del viento	4.83
129239	7	Sololá	704	Santa Lucía Utatlán 	7	Santa Rita 	11	Noviembre	2023-11-15T00:00:00	2024-11-08T21:00:00	1	Precipitación	0
129240	7	Sololá	704	Santa Lucía Utatlán 	7	Santa Rita 	11	Noviembre	2023-11-15T00:00:00	2024-11-08T21:00:00	8	Radiación solar	0
129241	7	Sololá	704	Santa Lucía Utatlán 	7	Santa Rita 	11	Noviembre	2023-11-15T00:00:00	2024-11-08T22:00:00	2	Temperatura media	15.6
129242	7	Sololá	704	Santa Lucía Utatlán 	7	Santa Rita 	11	Noviembre	2023-11-15T00:00:00	2024-11-08T22:00:00	4	Temperatura máxima	15.9
129243	7	Sololá	704	Santa Lucía Utatlán 	7	Santa Rita 	11	Noviembre	2023-11-15T00:00:00	2024-11-08T22:00:00	3	Temperatura mínima	15.4
129244	7	Sololá	704	Santa Lucía Utatlán 	7	Santa Rita 	11	Noviembre	2023-11-15T00:00:00	2024-11-08T22:00:00	5	Humedad	85
129245	7	Sololá	704	Santa Lucía Utatlán 	7	Santa Rita 	11	Noviembre	2023-11-15T00:00:00	2024-11-08T22:00:00	6	Velocidad del viento	4.8
129246	7	Sololá	704	Santa Lucía Utatlán 	7	Santa Rita 	11	Noviembre	2023-11-15T00:00:00	2024-11-08T22:00:00	7	Dirección del viento	4.83
129247	7	Sololá	704	Santa Lucía Utatlán 	7	Santa Rita 	11	Noviembre	2023-11-15T00:00:00	2024-11-08T22:00:00	1	Precipitación	0
129248	7	Sololá	704	Santa Lucía Utatlán 	7	Santa Rita 	11	Noviembre	2023-11-15T00:00:00	2024-11-08T22:00:00	8	Radiación solar	0
129249	7	Sololá	704	Santa Lucía Utatlán 	7	Santa Rita 	11	Noviembre	2023-11-15T00:00:00	2024-11-08T23:00:00	2	Temperatura media	16.1
129250	7	Sololá	704	Santa Lucía Utatlán 	7	Santa Rita 	11	Noviembre	2023-11-15T00:00:00	2024-11-08T23:00:00	4	Temperatura máxima	17.1
129251	7	Sololá	704	Santa Lucía Utatlán 	7	Santa Rita 	11	Noviembre	2023-11-15T00:00:00	2024-11-08T23:00:00	3	Temperatura mínima	15.6
129252	7	Sololá	704	Santa Lucía Utatlán 	7	Santa Rita 	11	Noviembre	2023-11-15T00:00:00	2024-11-08T23:00:00	5	Humedad	85
129253	7	Sololá	704	Santa Lucía Utatlán 	7	Santa Rita 	11	Noviembre	2023-11-15T00:00:00	2024-11-08T23:00:00	6	Velocidad del viento	1.6
129254	7	Sololá	704	Santa Lucía Utatlán 	7	Santa Rita 	11	Noviembre	2023-11-15T00:00:00	2024-11-08T23:00:00	7	Dirección del viento	1.61
129255	7	Sololá	704	Santa Lucía Utatlán 	7	Santa Rita 	11	Noviembre	2023-11-15T00:00:00	2024-11-08T23:00:00	1	Precipitación	0
129256	7	Sololá	704	Santa Lucía Utatlán 	7	Santa Rita 	11	Noviembre	2023-11-15T00:00:00	2024-11-08T23:00:00	8	Radiación solar	0
129257	7	Sololá	704	Santa Lucía Utatlán 	7	Santa Rita 	11	Noviembre	2023-11-16T00:00:00	2024-11-08T00:00:00	2	Temperatura media	16.1
129258	7	Sololá	704	Santa Lucía Utatlán 	7	Santa Rita 	11	Noviembre	2023-11-16T00:00:00	2024-11-08T00:00:00	4	Temperatura máxima	16.1
129259	7	Sololá	704	Santa Lucía Utatlán 	7	Santa Rita 	11	Noviembre	2023-11-16T00:00:00	2024-11-08T00:00:00	3	Temperatura mínima	15.5
129260	7	Sololá	704	Santa Lucía Utatlán 	7	Santa Rita 	11	Noviembre	2023-11-16T00:00:00	2024-11-08T00:00:00	5	Humedad	89
129261	7	Sololá	704	Santa Lucía Utatlán 	7	Santa Rita 	11	Noviembre	2023-11-16T00:00:00	2024-11-08T00:00:00	6	Velocidad del viento	1.6
129262	7	Sololá	704	Santa Lucía Utatlán 	7	Santa Rita 	11	Noviembre	2023-11-16T00:00:00	2024-11-08T00:00:00	7	Dirección del viento	1.61
129263	7	Sololá	704	Santa Lucía Utatlán 	7	Santa Rita 	11	Noviembre	2023-11-16T00:00:00	2024-11-08T00:00:00	1	Precipitación	0
129264	7	Sololá	704	Santa Lucía Utatlán 	7	Santa Rita 	11	Noviembre	2023-11-16T00:00:00	2024-11-08T00:00:00	8	Radiación solar	0
129265	7	Sololá	704	Santa Lucía Utatlán 	7	Santa Rita 	11	Noviembre	2023-11-16T00:00:00	2024-11-08T01:00:00	2	Temperatura media	16.3
129266	7	Sololá	704	Santa Lucía Utatlán 	7	Santa Rita 	11	Noviembre	2023-11-16T00:00:00	2024-11-08T01:00:00	4	Temperatura máxima	16.3
129267	7	Sololá	704	Santa Lucía Utatlán 	7	Santa Rita 	11	Noviembre	2023-11-16T00:00:00	2024-11-08T01:00:00	3	Temperatura mínima	15.8
129268	7	Sololá	704	Santa Lucía Utatlán 	7	Santa Rita 	11	Noviembre	2023-11-16T00:00:00	2024-11-08T01:00:00	5	Humedad	88
129269	7	Sololá	704	Santa Lucía Utatlán 	7	Santa Rita 	11	Noviembre	2023-11-16T00:00:00	2024-11-08T01:00:00	6	Velocidad del viento	3.2
129270	7	Sololá	704	Santa Lucía Utatlán 	7	Santa Rita 	11	Noviembre	2023-11-16T00:00:00	2024-11-08T01:00:00	7	Dirección del viento	3.22
129271	7	Sololá	704	Santa Lucía Utatlán 	7	Santa Rita 	11	Noviembre	2023-11-16T00:00:00	2024-11-08T01:00:00	1	Precipitación	0
129272	7	Sololá	704	Santa Lucía Utatlán 	7	Santa Rita 	11	Noviembre	2023-11-16T00:00:00	2024-11-08T01:00:00	8	Radiación solar	0
129273	7	Sololá	704	Santa Lucía Utatlán 	7	Santa Rita 	11	Noviembre	2023-11-16T00:00:00	2024-11-08T02:00:00	2	Temperatura media	19.6
129274	7	Sololá	704	Santa Lucía Utatlán 	7	Santa Rita 	11	Noviembre	2023-11-16T00:00:00	2024-11-08T02:00:00	4	Temperatura máxima	19.6
129275	7	Sololá	704	Santa Lucía Utatlán 	7	Santa Rita 	11	Noviembre	2023-11-16T00:00:00	2024-11-08T02:00:00	3	Temperatura mínima	16.2
129276	7	Sololá	704	Santa Lucía Utatlán 	7	Santa Rita 	11	Noviembre	2023-11-16T00:00:00	2024-11-08T02:00:00	5	Humedad	81
129277	7	Sololá	704	Santa Lucía Utatlán 	7	Santa Rita 	11	Noviembre	2023-11-16T00:00:00	2024-11-08T02:00:00	6	Velocidad del viento	1.6
129278	7	Sololá	704	Santa Lucía Utatlán 	7	Santa Rita 	11	Noviembre	2023-11-16T00:00:00	2024-11-08T02:00:00	7	Dirección del viento	1.61
129279	7	Sololá	704	Santa Lucía Utatlán 	7	Santa Rita 	11	Noviembre	2023-11-16T00:00:00	2024-11-08T02:00:00	1	Precipitación	0
129280	7	Sololá	704	Santa Lucía Utatlán 	7	Santa Rita 	11	Noviembre	2023-11-16T00:00:00	2024-11-08T02:00:00	8	Radiación solar	0
129281	7	Sololá	704	Santa Lucía Utatlán 	7	Santa Rita 	11	Noviembre	2023-11-16T00:00:00	2024-11-08T03:00:00	2	Temperatura media	23.2
129282	7	Sololá	704	Santa Lucía Utatlán 	7	Santa Rita 	11	Noviembre	2023-11-16T00:00:00	2024-11-08T03:00:00	4	Temperatura máxima	23.2
129283	7	Sololá	704	Santa Lucía Utatlán 	7	Santa Rita 	11	Noviembre	2023-11-16T00:00:00	2024-11-08T03:00:00	3	Temperatura mínima	19.6
129284	7	Sololá	704	Santa Lucía Utatlán 	7	Santa Rita 	11	Noviembre	2023-11-16T00:00:00	2024-11-08T03:00:00	5	Humedad	66
129285	7	Sololá	704	Santa Lucía Utatlán 	7	Santa Rita 	11	Noviembre	2023-11-16T00:00:00	2024-11-08T03:00:00	6	Velocidad del viento	3.2
129286	7	Sololá	704	Santa Lucía Utatlán 	7	Santa Rita 	11	Noviembre	2023-11-16T00:00:00	2024-11-08T03:00:00	7	Dirección del viento	3.22
129287	7	Sololá	704	Santa Lucía Utatlán 	7	Santa Rita 	11	Noviembre	2023-11-16T00:00:00	2024-11-08T03:00:00	1	Precipitación	0
129288	7	Sololá	704	Santa Lucía Utatlán 	7	Santa Rita 	11	Noviembre	2023-11-16T00:00:00	2024-11-08T03:00:00	8	Radiación solar	0
129289	7	Sololá	704	Santa Lucía Utatlán 	7	Santa Rita 	11	Noviembre	2023-11-16T00:00:00	2024-11-08T04:00:00	2	Temperatura media	25.1
129290	7	Sololá	704	Santa Lucía Utatlán 	7	Santa Rita 	11	Noviembre	2023-11-16T00:00:00	2024-11-08T04:00:00	4	Temperatura máxima	25.1
129291	7	Sololá	704	Santa Lucía Utatlán 	7	Santa Rita 	11	Noviembre	2023-11-16T00:00:00	2024-11-08T04:00:00	3	Temperatura mínima	23.2
129292	7	Sololá	704	Santa Lucía Utatlán 	7	Santa Rita 	11	Noviembre	2023-11-16T00:00:00	2024-11-08T04:00:00	5	Humedad	60
129293	7	Sololá	704	Santa Lucía Utatlán 	7	Santa Rita 	11	Noviembre	2023-11-16T00:00:00	2024-11-08T04:00:00	6	Velocidad del viento	4.8
129294	7	Sololá	704	Santa Lucía Utatlán 	7	Santa Rita 	11	Noviembre	2023-11-16T00:00:00	2024-11-08T04:00:00	7	Dirección del viento	4.83
129295	7	Sololá	704	Santa Lucía Utatlán 	7	Santa Rita 	11	Noviembre	2023-11-16T00:00:00	2024-11-08T04:00:00	1	Precipitación	0
129296	7	Sololá	704	Santa Lucía Utatlán 	7	Santa Rita 	11	Noviembre	2023-11-16T00:00:00	2024-11-08T04:00:00	8	Radiación solar	0
129297	7	Sololá	704	Santa Lucía Utatlán 	7	Santa Rita 	11	Noviembre	2023-11-16T00:00:00	2024-11-08T05:00:00	2	Temperatura media	25.8
129298	7	Sololá	704	Santa Lucía Utatlán 	7	Santa Rita 	11	Noviembre	2023-11-16T00:00:00	2024-11-08T05:00:00	4	Temperatura máxima	26.2
129299	7	Sololá	704	Santa Lucía Utatlán 	7	Santa Rita 	11	Noviembre	2023-11-16T00:00:00	2024-11-08T05:00:00	3	Temperatura mínima	25.1
129300	7	Sololá	704	Santa Lucía Utatlán 	7	Santa Rita 	11	Noviembre	2023-11-16T00:00:00	2024-11-08T05:00:00	5	Humedad	58
129301	7	Sololá	704	Santa Lucía Utatlán 	7	Santa Rita 	11	Noviembre	2023-11-16T00:00:00	2024-11-08T05:00:00	6	Velocidad del viento	4.8
129302	7	Sololá	704	Santa Lucía Utatlán 	7	Santa Rita 	11	Noviembre	2023-11-16T00:00:00	2024-11-08T05:00:00	7	Dirección del viento	4.83
129303	7	Sololá	704	Santa Lucía Utatlán 	7	Santa Rita 	11	Noviembre	2023-11-16T00:00:00	2024-11-08T05:00:00	1	Precipitación	0
129304	7	Sololá	704	Santa Lucía Utatlán 	7	Santa Rita 	11	Noviembre	2023-11-16T00:00:00	2024-11-08T05:00:00	8	Radiación solar	0
129305	7	Sololá	704	Santa Lucía Utatlán 	7	Santa Rita 	11	Noviembre	2023-11-16T00:00:00	2024-11-08T06:00:00	2	Temperatura media	25.6
129306	7	Sololá	704	Santa Lucía Utatlán 	7	Santa Rita 	11	Noviembre	2023-11-16T00:00:00	2024-11-08T06:00:00	4	Temperatura máxima	25.9
129307	7	Sololá	704	Santa Lucía Utatlán 	7	Santa Rita 	11	Noviembre	2023-11-16T00:00:00	2024-11-08T06:00:00	3	Temperatura mínima	25.2
129308	7	Sololá	704	Santa Lucía Utatlán 	7	Santa Rita 	11	Noviembre	2023-11-16T00:00:00	2024-11-08T06:00:00	5	Humedad	62
129309	7	Sololá	704	Santa Lucía Utatlán 	7	Santa Rita 	11	Noviembre	2023-11-16T00:00:00	2024-11-08T06:00:00	6	Velocidad del viento	11.3
129310	7	Sololá	704	Santa Lucía Utatlán 	7	Santa Rita 	11	Noviembre	2023-11-16T00:00:00	2024-11-08T06:00:00	7	Dirección del viento	11.27
129311	7	Sololá	704	Santa Lucía Utatlán 	7	Santa Rita 	11	Noviembre	2023-11-16T00:00:00	2024-11-08T06:00:00	1	Precipitación	0
129312	7	Sololá	704	Santa Lucía Utatlán 	7	Santa Rita 	11	Noviembre	2023-11-16T00:00:00	2024-11-08T06:00:00	8	Radiación solar	8
129313	7	Sololá	704	Santa Lucía Utatlán 	7	Santa Rita 	11	Noviembre	2023-11-16T00:00:00	2024-11-08T07:00:00	2	Temperatura media	24.9
129314	7	Sololá	704	Santa Lucía Utatlán 	7	Santa Rita 	11	Noviembre	2023-11-16T00:00:00	2024-11-08T07:00:00	4	Temperatura máxima	26
129315	7	Sololá	704	Santa Lucía Utatlán 	7	Santa Rita 	11	Noviembre	2023-11-16T00:00:00	2024-11-08T07:00:00	3	Temperatura mínima	24.9
129316	7	Sololá	704	Santa Lucía Utatlán 	7	Santa Rita 	11	Noviembre	2023-11-16T00:00:00	2024-11-08T07:00:00	5	Humedad	59
129317	7	Sololá	704	Santa Lucía Utatlán 	7	Santa Rita 	11	Noviembre	2023-11-16T00:00:00	2024-11-08T07:00:00	6	Velocidad del viento	11.3
129318	7	Sololá	704	Santa Lucía Utatlán 	7	Santa Rita 	11	Noviembre	2023-11-16T00:00:00	2024-11-08T07:00:00	7	Dirección del viento	11.27
129319	7	Sololá	704	Santa Lucía Utatlán 	7	Santa Rita 	11	Noviembre	2023-11-16T00:00:00	2024-11-08T07:00:00	1	Precipitación	0
129320	7	Sololá	704	Santa Lucía Utatlán 	7	Santa Rita 	11	Noviembre	2023-11-16T00:00:00	2024-11-08T07:00:00	8	Radiación solar	177
129321	7	Sololá	704	Santa Lucía Utatlán 	7	Santa Rita 	11	Noviembre	2023-11-16T00:00:00	2024-11-08T08:00:00	2	Temperatura media	25.2
129322	7	Sololá	704	Santa Lucía Utatlán 	7	Santa Rita 	11	Noviembre	2023-11-16T00:00:00	2024-11-08T08:00:00	4	Temperatura máxima	25.7
129323	7	Sololá	704	Santa Lucía Utatlán 	7	Santa Rita 	11	Noviembre	2023-11-16T00:00:00	2024-11-08T08:00:00	3	Temperatura mínima	24.8
129324	7	Sololá	704	Santa Lucía Utatlán 	7	Santa Rita 	11	Noviembre	2023-11-16T00:00:00	2024-11-08T08:00:00	5	Humedad	59
129325	7	Sololá	704	Santa Lucía Utatlán 	7	Santa Rita 	11	Noviembre	2023-11-16T00:00:00	2024-11-08T08:00:00	6	Velocidad del viento	14.5
129326	7	Sololá	704	Santa Lucía Utatlán 	7	Santa Rita 	11	Noviembre	2023-11-16T00:00:00	2024-11-08T08:00:00	7	Dirección del viento	14.48
129327	7	Sololá	704	Santa Lucía Utatlán 	7	Santa Rita 	11	Noviembre	2023-11-16T00:00:00	2024-11-08T08:00:00	1	Precipitación	0
129328	7	Sololá	704	Santa Lucía Utatlán 	7	Santa Rita 	11	Noviembre	2023-11-16T00:00:00	2024-11-08T08:00:00	8	Radiación solar	450
129329	7	Sololá	704	Santa Lucía Utatlán 	7	Santa Rita 	11	Noviembre	2023-11-16T00:00:00	2024-11-08T09:00:00	2	Temperatura media	25.8
129330	7	Sololá	704	Santa Lucía Utatlán 	7	Santa Rita 	11	Noviembre	2023-11-16T00:00:00	2024-11-08T09:00:00	4	Temperatura máxima	26.1
129331	7	Sololá	704	Santa Lucía Utatlán 	7	Santa Rita 	11	Noviembre	2023-11-16T00:00:00	2024-11-08T09:00:00	3	Temperatura mínima	25
129332	7	Sololá	704	Santa Lucía Utatlán 	7	Santa Rita 	11	Noviembre	2023-11-16T00:00:00	2024-11-08T09:00:00	5	Humedad	59
129333	7	Sololá	704	Santa Lucía Utatlán 	7	Santa Rita 	11	Noviembre	2023-11-16T00:00:00	2024-11-08T09:00:00	6	Velocidad del viento	11.3
129334	7	Sololá	704	Santa Lucía Utatlán 	7	Santa Rita 	11	Noviembre	2023-11-16T00:00:00	2024-11-08T09:00:00	7	Dirección del viento	11.27
129335	7	Sololá	704	Santa Lucía Utatlán 	7	Santa Rita 	11	Noviembre	2023-11-16T00:00:00	2024-11-08T09:00:00	1	Precipitación	0
129336	7	Sololá	704	Santa Lucía Utatlán 	7	Santa Rita 	11	Noviembre	2023-11-16T00:00:00	2024-11-08T09:00:00	8	Radiación solar	678
129337	7	Sololá	704	Santa Lucía Utatlán 	7	Santa Rita 	11	Noviembre	2023-11-16T00:00:00	2024-11-08T10:00:00	2	Temperatura media	25.6
129338	7	Sololá	704	Santa Lucía Utatlán 	7	Santa Rita 	11	Noviembre	2023-11-16T00:00:00	2024-11-08T10:00:00	4	Temperatura máxima	26.1
129339	7	Sololá	704	Santa Lucía Utatlán 	7	Santa Rita 	11	Noviembre	2023-11-16T00:00:00	2024-11-08T10:00:00	3	Temperatura mínima	25.1
129340	7	Sololá	704	Santa Lucía Utatlán 	7	Santa Rita 	11	Noviembre	2023-11-16T00:00:00	2024-11-08T10:00:00	5	Humedad	55
129341	7	Sololá	704	Santa Lucía Utatlán 	7	Santa Rita 	11	Noviembre	2023-11-16T00:00:00	2024-11-08T10:00:00	6	Velocidad del viento	9.7
129342	7	Sololá	704	Santa Lucía Utatlán 	7	Santa Rita 	11	Noviembre	2023-11-16T00:00:00	2024-11-08T10:00:00	7	Dirección del viento	9.66
129343	7	Sololá	704	Santa Lucía Utatlán 	7	Santa Rita 	11	Noviembre	2023-11-16T00:00:00	2024-11-08T10:00:00	1	Precipitación	0
129344	7	Sololá	704	Santa Lucía Utatlán 	7	Santa Rita 	11	Noviembre	2023-11-16T00:00:00	2024-11-08T10:00:00	8	Radiación solar	852
129345	7	Sololá	704	Santa Lucía Utatlán 	7	Santa Rita 	11	Noviembre	2023-11-16T00:00:00	2024-11-08T11:00:00	2	Temperatura media	24.2
129346	7	Sololá	704	Santa Lucía Utatlán 	7	Santa Rita 	11	Noviembre	2023-11-16T00:00:00	2024-11-08T11:00:00	4	Temperatura máxima	26
129347	7	Sololá	704	Santa Lucía Utatlán 	7	Santa Rita 	11	Noviembre	2023-11-16T00:00:00	2024-11-08T11:00:00	3	Temperatura mínima	24.2
129348	7	Sololá	704	Santa Lucía Utatlán 	7	Santa Rita 	11	Noviembre	2023-11-16T00:00:00	2024-11-08T11:00:00	5	Humedad	72
129349	7	Sololá	704	Santa Lucía Utatlán 	7	Santa Rita 	11	Noviembre	2023-11-16T00:00:00	2024-11-08T11:00:00	6	Velocidad del viento	9.7
129350	7	Sololá	704	Santa Lucía Utatlán 	7	Santa Rita 	11	Noviembre	2023-11-16T00:00:00	2024-11-08T11:00:00	7	Dirección del viento	9.66
129351	7	Sololá	704	Santa Lucía Utatlán 	7	Santa Rita 	11	Noviembre	2023-11-16T00:00:00	2024-11-08T11:00:00	1	Precipitación	0
129352	7	Sololá	704	Santa Lucía Utatlán 	7	Santa Rita 	11	Noviembre	2023-11-16T00:00:00	2024-11-08T11:00:00	8	Radiación solar	972
129353	7	Sololá	704	Santa Lucía Utatlán 	7	Santa Rita 	11	Noviembre	2023-11-16T00:00:00	2024-11-08T12:00:00	2	Temperatura media	26.6
129354	7	Sololá	704	Santa Lucía Utatlán 	7	Santa Rita 	11	Noviembre	2023-11-16T00:00:00	2024-11-08T12:00:00	4	Temperatura máxima	26.6
129355	7	Sololá	704	Santa Lucía Utatlán 	7	Santa Rita 	11	Noviembre	2023-11-16T00:00:00	2024-11-08T12:00:00	3	Temperatura mínima	26.6
129356	7	Sololá	704	Santa Lucía Utatlán 	7	Santa Rita 	11	Noviembre	2023-11-16T00:00:00	2024-11-08T12:00:00	5	Humedad	58
129357	7	Sololá	704	Santa Lucía Utatlán 	7	Santa Rita 	11	Noviembre	2023-11-16T00:00:00	2024-11-08T12:00:00	6	Velocidad del viento	9.7
129358	7	Sololá	704	Santa Lucía Utatlán 	7	Santa Rita 	11	Noviembre	2023-11-16T00:00:00	2024-11-08T12:00:00	7	Dirección del viento	0.16
129359	7	Sololá	704	Santa Lucía Utatlán 	7	Santa Rita 	11	Noviembre	2023-11-16T00:00:00	2024-11-08T12:00:00	1	Precipitación	0
129360	7	Sololá	704	Santa Lucía Utatlán 	7	Santa Rita 	11	Noviembre	2023-11-16T00:00:00	2024-11-08T12:00:00	8	Radiación solar	900
129361	7	Sololá	704	Santa Lucía Utatlán 	7	Santa Rita 	11	Noviembre	2023-11-16T00:00:00	2024-11-08T13:00:00	2	Temperatura media	26.4
129362	7	Sololá	704	Santa Lucía Utatlán 	7	Santa Rita 	11	Noviembre	2023-11-16T00:00:00	2024-11-08T13:00:00	4	Temperatura máxima	27.5
129363	7	Sololá	704	Santa Lucía Utatlán 	7	Santa Rita 	11	Noviembre	2023-11-16T00:00:00	2024-11-08T13:00:00	3	Temperatura mínima	26.3
129364	7	Sololá	704	Santa Lucía Utatlán 	7	Santa Rita 	11	Noviembre	2023-11-16T00:00:00	2024-11-08T13:00:00	5	Humedad	59
129365	7	Sololá	704	Santa Lucía Utatlán 	7	Santa Rita 	11	Noviembre	2023-11-16T00:00:00	2024-11-08T13:00:00	6	Velocidad del viento	6.4
129366	7	Sololá	704	Santa Lucía Utatlán 	7	Santa Rita 	11	Noviembre	2023-11-16T00:00:00	2024-11-08T13:00:00	7	Dirección del viento	6.44
129367	7	Sololá	704	Santa Lucía Utatlán 	7	Santa Rita 	11	Noviembre	2023-11-16T00:00:00	2024-11-08T13:00:00	1	Precipitación	0
129368	7	Sololá	704	Santa Lucía Utatlán 	7	Santa Rita 	11	Noviembre	2023-11-16T00:00:00	2024-11-08T13:00:00	8	Radiación solar	968
129369	7	Sololá	704	Santa Lucía Utatlán 	7	Santa Rita 	11	Noviembre	2023-11-16T00:00:00	2024-11-08T14:00:00	2	Temperatura media	26.1
129370	7	Sololá	704	Santa Lucía Utatlán 	7	Santa Rita 	11	Noviembre	2023-11-16T00:00:00	2024-11-08T14:00:00	4	Temperatura máxima	27.1
129371	7	Sololá	704	Santa Lucía Utatlán 	7	Santa Rita 	11	Noviembre	2023-11-16T00:00:00	2024-11-08T14:00:00	3	Temperatura mínima	25.5
129372	7	Sololá	704	Santa Lucía Utatlán 	7	Santa Rita 	11	Noviembre	2023-11-16T00:00:00	2024-11-08T14:00:00	5	Humedad	61
129373	7	Sololá	704	Santa Lucía Utatlán 	7	Santa Rita 	11	Noviembre	2023-11-16T00:00:00	2024-11-08T14:00:00	6	Velocidad del viento	8
129374	7	Sololá	704	Santa Lucía Utatlán 	7	Santa Rita 	11	Noviembre	2023-11-16T00:00:00	2024-11-08T14:00:00	7	Dirección del viento	8.05
129375	7	Sololá	704	Santa Lucía Utatlán 	7	Santa Rita 	11	Noviembre	2023-11-16T00:00:00	2024-11-08T14:00:00	1	Precipitación	0
129376	7	Sololá	704	Santa Lucía Utatlán 	7	Santa Rita 	11	Noviembre	2023-11-16T00:00:00	2024-11-08T14:00:00	8	Radiación solar	787
129377	7	Sololá	704	Santa Lucía Utatlán 	7	Santa Rita 	11	Noviembre	2023-11-16T00:00:00	2024-11-08T15:00:00	2	Temperatura media	25.2
129378	7	Sololá	704	Santa Lucía Utatlán 	7	Santa Rita 	11	Noviembre	2023-11-16T00:00:00	2024-11-08T15:00:00	4	Temperatura máxima	26.6
129379	7	Sololá	704	Santa Lucía Utatlán 	7	Santa Rita 	11	Noviembre	2023-11-16T00:00:00	2024-11-08T15:00:00	3	Temperatura mínima	25.2
129380	7	Sololá	704	Santa Lucía Utatlán 	7	Santa Rita 	11	Noviembre	2023-11-16T00:00:00	2024-11-08T15:00:00	5	Humedad	73
129381	7	Sololá	704	Santa Lucía Utatlán 	7	Santa Rita 	11	Noviembre	2023-11-16T00:00:00	2024-11-08T15:00:00	6	Velocidad del viento	8
129382	7	Sololá	704	Santa Lucía Utatlán 	7	Santa Rita 	11	Noviembre	2023-11-16T00:00:00	2024-11-08T15:00:00	7	Dirección del viento	8.05
129383	7	Sololá	704	Santa Lucía Utatlán 	7	Santa Rita 	11	Noviembre	2023-11-16T00:00:00	2024-11-08T15:00:00	1	Precipitación	0
129384	7	Sololá	704	Santa Lucía Utatlán 	7	Santa Rita 	11	Noviembre	2023-11-16T00:00:00	2024-11-08T15:00:00	8	Radiación solar	723
129385	7	Sololá	704	Santa Lucía Utatlán 	7	Santa Rita 	11	Noviembre	2023-11-16T00:00:00	2024-11-08T16:00:00	2	Temperatura media	23.1
129386	7	Sololá	704	Santa Lucía Utatlán 	7	Santa Rita 	11	Noviembre	2023-11-16T00:00:00	2024-11-08T16:00:00	4	Temperatura máxima	25.2
129387	7	Sololá	704	Santa Lucía Utatlán 	7	Santa Rita 	11	Noviembre	2023-11-16T00:00:00	2024-11-08T16:00:00	3	Temperatura mínima	22.9
129388	7	Sololá	704	Santa Lucía Utatlán 	7	Santa Rita 	11	Noviembre	2023-11-16T00:00:00	2024-11-08T16:00:00	5	Humedad	78
129389	7	Sololá	704	Santa Lucía Utatlán 	7	Santa Rita 	11	Noviembre	2023-11-16T00:00:00	2024-11-08T16:00:00	6	Velocidad del viento	6.4
129390	7	Sololá	704	Santa Lucía Utatlán 	7	Santa Rita 	11	Noviembre	2023-11-16T00:00:00	2024-11-08T16:00:00	7	Dirección del viento	6.44
129391	7	Sololá	704	Santa Lucía Utatlán 	7	Santa Rita 	11	Noviembre	2023-11-16T00:00:00	2024-11-08T16:00:00	1	Precipitación	0
129392	7	Sololá	704	Santa Lucía Utatlán 	7	Santa Rita 	11	Noviembre	2023-11-16T00:00:00	2024-11-08T16:00:00	8	Radiación solar	157
129393	7	Sololá	704	Santa Lucía Utatlán 	7	Santa Rita 	11	Noviembre	2023-11-16T00:00:00	2024-11-08T17:00:00	2	Temperatura media	22.6
129394	7	Sololá	704	Santa Lucía Utatlán 	7	Santa Rita 	11	Noviembre	2023-11-16T00:00:00	2024-11-08T17:00:00	4	Temperatura máxima	23.1
129395	7	Sololá	704	Santa Lucía Utatlán 	7	Santa Rita 	11	Noviembre	2023-11-16T00:00:00	2024-11-08T17:00:00	3	Temperatura mínima	22.4
129396	7	Sololá	704	Santa Lucía Utatlán 	7	Santa Rita 	11	Noviembre	2023-11-16T00:00:00	2024-11-08T17:00:00	5	Humedad	76
129397	7	Sololá	704	Santa Lucía Utatlán 	7	Santa Rita 	11	Noviembre	2023-11-16T00:00:00	2024-11-08T17:00:00	6	Velocidad del viento	4.8
129398	7	Sololá	704	Santa Lucía Utatlán 	7	Santa Rita 	11	Noviembre	2023-11-16T00:00:00	2024-11-08T17:00:00	7	Dirección del viento	4.83
129399	7	Sololá	704	Santa Lucía Utatlán 	7	Santa Rita 	11	Noviembre	2023-11-16T00:00:00	2024-11-08T17:00:00	1	Precipitación	0
129400	7	Sololá	704	Santa Lucía Utatlán 	7	Santa Rita 	11	Noviembre	2023-11-16T00:00:00	2024-11-08T17:00:00	8	Radiación solar	58
129401	7	Sololá	704	Santa Lucía Utatlán 	7	Santa Rita 	11	Noviembre	2023-11-16T00:00:00	2024-11-08T18:00:00	2	Temperatura media	21.2
129402	7	Sololá	704	Santa Lucía Utatlán 	7	Santa Rita 	11	Noviembre	2023-11-16T00:00:00	2024-11-08T18:00:00	4	Temperatura máxima	22.6
129403	7	Sololá	704	Santa Lucía Utatlán 	7	Santa Rita 	11	Noviembre	2023-11-16T00:00:00	2024-11-08T18:00:00	3	Temperatura mínima	21.2
129404	7	Sololá	704	Santa Lucía Utatlán 	7	Santa Rita 	11	Noviembre	2023-11-16T00:00:00	2024-11-08T18:00:00	5	Humedad	84
129405	7	Sololá	704	Santa Lucía Utatlán 	7	Santa Rita 	11	Noviembre	2023-11-16T00:00:00	2024-11-08T18:00:00	6	Velocidad del viento	4.8
129406	7	Sololá	704	Santa Lucía Utatlán 	7	Santa Rita 	11	Noviembre	2023-11-16T00:00:00	2024-11-08T18:00:00	7	Dirección del viento	4.83
129407	7	Sololá	704	Santa Lucía Utatlán 	7	Santa Rita 	11	Noviembre	2023-11-16T00:00:00	2024-11-08T18:00:00	1	Precipitación	0
129408	7	Sololá	704	Santa Lucía Utatlán 	7	Santa Rita 	11	Noviembre	2023-11-16T00:00:00	2024-11-08T18:00:00	8	Radiación solar	7
129409	7	Sololá	704	Santa Lucía Utatlán 	7	Santa Rita 	11	Noviembre	2023-11-16T00:00:00	2024-11-08T19:00:00	2	Temperatura media	20.7
129410	7	Sololá	704	Santa Lucía Utatlán 	7	Santa Rita 	11	Noviembre	2023-11-16T00:00:00	2024-11-08T19:00:00	4	Temperatura máxima	21.2
129411	7	Sololá	704	Santa Lucía Utatlán 	7	Santa Rita 	11	Noviembre	2023-11-16T00:00:00	2024-11-08T19:00:00	3	Temperatura mínima	20.6
129412	7	Sololá	704	Santa Lucía Utatlán 	7	Santa Rita 	11	Noviembre	2023-11-16T00:00:00	2024-11-08T19:00:00	5	Humedad	88
129413	7	Sololá	704	Santa Lucía Utatlán 	7	Santa Rita 	11	Noviembre	2023-11-16T00:00:00	2024-11-08T19:00:00	6	Velocidad del viento	1.6
129414	7	Sololá	704	Santa Lucía Utatlán 	7	Santa Rita 	11	Noviembre	2023-11-16T00:00:00	2024-11-08T19:00:00	7	Dirección del viento	1.61
129415	7	Sololá	704	Santa Lucía Utatlán 	7	Santa Rita 	11	Noviembre	2023-11-16T00:00:00	2024-11-08T19:00:00	1	Precipitación	0
129416	7	Sololá	704	Santa Lucía Utatlán 	7	Santa Rita 	11	Noviembre	2023-11-16T00:00:00	2024-11-08T19:00:00	8	Radiación solar	0
129417	7	Sololá	704	Santa Lucía Utatlán 	7	Santa Rita 	11	Noviembre	2023-11-16T00:00:00	2024-11-08T20:00:00	2	Temperatura media	19.1
129418	7	Sololá	704	Santa Lucía Utatlán 	7	Santa Rita 	11	Noviembre	2023-11-16T00:00:00	2024-11-08T20:00:00	4	Temperatura máxima	20.7
129419	7	Sololá	704	Santa Lucía Utatlán 	7	Santa Rita 	11	Noviembre	2023-11-16T00:00:00	2024-11-08T20:00:00	3	Temperatura mínima	19.1
129420	7	Sololá	704	Santa Lucía Utatlán 	7	Santa Rita 	11	Noviembre	2023-11-16T00:00:00	2024-11-08T20:00:00	5	Humedad	91
129421	7	Sololá	704	Santa Lucía Utatlán 	7	Santa Rita 	11	Noviembre	2023-11-16T00:00:00	2024-11-08T20:00:00	6	Velocidad del viento	0
129422	7	Sololá	704	Santa Lucía Utatlán 	7	Santa Rita 	11	Noviembre	2023-11-16T00:00:00	2024-11-08T20:00:00	7	Dirección del viento	0
129423	7	Sololá	704	Santa Lucía Utatlán 	7	Santa Rita 	11	Noviembre	2023-11-16T00:00:00	2024-11-08T20:00:00	1	Precipitación	0
129424	7	Sololá	704	Santa Lucía Utatlán 	7	Santa Rita 	11	Noviembre	2023-11-16T00:00:00	2024-11-08T20:00:00	8	Radiación solar	0
129425	7	Sololá	704	Santa Lucía Utatlán 	7	Santa Rita 	11	Noviembre	2023-11-16T00:00:00	2024-11-08T21:00:00	2	Temperatura media	18.2
129426	7	Sololá	704	Santa Lucía Utatlán 	7	Santa Rita 	11	Noviembre	2023-11-16T00:00:00	2024-11-08T21:00:00	4	Temperatura máxima	19.1
129427	7	Sololá	704	Santa Lucía Utatlán 	7	Santa Rita 	11	Noviembre	2023-11-16T00:00:00	2024-11-08T21:00:00	3	Temperatura mínima	18.2
129428	7	Sololá	704	Santa Lucía Utatlán 	7	Santa Rita 	11	Noviembre	2023-11-16T00:00:00	2024-11-08T21:00:00	5	Humedad	88
129429	7	Sololá	704	Santa Lucía Utatlán 	7	Santa Rita 	11	Noviembre	2023-11-16T00:00:00	2024-11-08T21:00:00	6	Velocidad del viento	3.2
129430	7	Sololá	704	Santa Lucía Utatlán 	7	Santa Rita 	11	Noviembre	2023-11-16T00:00:00	2024-11-08T21:00:00	7	Dirección del viento	3.22
129431	7	Sololá	704	Santa Lucía Utatlán 	7	Santa Rita 	11	Noviembre	2023-11-16T00:00:00	2024-11-08T21:00:00	1	Precipitación	0
129432	7	Sololá	704	Santa Lucía Utatlán 	7	Santa Rita 	11	Noviembre	2023-11-16T00:00:00	2024-11-08T21:00:00	8	Radiación solar	0
129433	7	Sololá	704	Santa Lucía Utatlán 	7	Santa Rita 	11	Noviembre	2023-11-16T00:00:00	2024-11-08T22:00:00	2	Temperatura media	18.2
129434	7	Sololá	704	Santa Lucía Utatlán 	7	Santa Rita 	11	Noviembre	2023-11-16T00:00:00	2024-11-08T22:00:00	4	Temperatura máxima	18.3
129435	7	Sololá	704	Santa Lucía Utatlán 	7	Santa Rita 	11	Noviembre	2023-11-16T00:00:00	2024-11-08T22:00:00	3	Temperatura mínima	17.9
129436	7	Sololá	704	Santa Lucía Utatlán 	7	Santa Rita 	11	Noviembre	2023-11-16T00:00:00	2024-11-08T22:00:00	5	Humedad	90
129437	7	Sololá	704	Santa Lucía Utatlán 	7	Santa Rita 	11	Noviembre	2023-11-16T00:00:00	2024-11-08T22:00:00	6	Velocidad del viento	1.6
129438	7	Sololá	704	Santa Lucía Utatlán 	7	Santa Rita 	11	Noviembre	2023-11-16T00:00:00	2024-11-08T22:00:00	7	Dirección del viento	1.61
129439	7	Sololá	704	Santa Lucía Utatlán 	7	Santa Rita 	11	Noviembre	2023-11-16T00:00:00	2024-11-08T22:00:00	1	Precipitación	0
129440	7	Sololá	704	Santa Lucía Utatlán 	7	Santa Rita 	11	Noviembre	2023-11-16T00:00:00	2024-11-08T22:00:00	8	Radiación solar	0
129441	7	Sololá	704	Santa Lucía Utatlán 	7	Santa Rita 	11	Noviembre	2023-11-16T00:00:00	2024-11-08T23:00:00	2	Temperatura media	18.3
129442	7	Sololá	704	Santa Lucía Utatlán 	7	Santa Rita 	11	Noviembre	2023-11-16T00:00:00	2024-11-08T23:00:00	4	Temperatura máxima	18.4
129443	7	Sololá	704	Santa Lucía Utatlán 	7	Santa Rita 	11	Noviembre	2023-11-16T00:00:00	2024-11-08T23:00:00	3	Temperatura mínima	17.9
129444	7	Sololá	704	Santa Lucía Utatlán 	7	Santa Rita 	11	Noviembre	2023-11-16T00:00:00	2024-11-08T23:00:00	5	Humedad	92
129445	7	Sololá	704	Santa Lucía Utatlán 	7	Santa Rita 	11	Noviembre	2023-11-16T00:00:00	2024-11-08T23:00:00	6	Velocidad del viento	0
129446	7	Sololá	704	Santa Lucía Utatlán 	7	Santa Rita 	11	Noviembre	2023-11-16T00:00:00	2024-11-08T23:00:00	7	Dirección del viento	0
129447	7	Sololá	704	Santa Lucía Utatlán 	7	Santa Rita 	11	Noviembre	2023-11-16T00:00:00	2024-11-08T23:00:00	1	Precipitación	0
129448	7	Sololá	704	Santa Lucía Utatlán 	7	Santa Rita 	11	Noviembre	2023-11-16T00:00:00	2024-11-08T23:00:00	8	Radiación solar	0
129449	7	Sololá	704	Santa Lucía Utatlán 	7	Santa Rita 	11	Noviembre	2023-11-17T00:00:00	2024-11-08T00:00:00	2	Temperatura media	18.7
129450	7	Sololá	704	Santa Lucía Utatlán 	7	Santa Rita 	11	Noviembre	2023-11-17T00:00:00	2024-11-08T00:00:00	4	Temperatura máxima	18.9
129451	7	Sololá	704	Santa Lucía Utatlán 	7	Santa Rita 	11	Noviembre	2023-11-17T00:00:00	2024-11-08T00:00:00	3	Temperatura mínima	18.3
129452	7	Sololá	704	Santa Lucía Utatlán 	7	Santa Rita 	11	Noviembre	2023-11-17T00:00:00	2024-11-08T00:00:00	5	Humedad	92
129453	7	Sololá	704	Santa Lucía Utatlán 	7	Santa Rita 	11	Noviembre	2023-11-17T00:00:00	2024-11-08T00:00:00	6	Velocidad del viento	0
129454	7	Sololá	704	Santa Lucía Utatlán 	7	Santa Rita 	11	Noviembre	2023-11-17T00:00:00	2024-11-08T00:00:00	7	Dirección del viento	0
129455	7	Sololá	704	Santa Lucía Utatlán 	7	Santa Rita 	11	Noviembre	2023-11-17T00:00:00	2024-11-08T00:00:00	1	Precipitación	0
129456	7	Sololá	704	Santa Lucía Utatlán 	7	Santa Rita 	11	Noviembre	2023-11-17T00:00:00	2024-11-08T00:00:00	8	Radiación solar	0
129457	7	Sololá	704	Santa Lucía Utatlán 	7	Santa Rita 	11	Noviembre	2023-11-17T00:00:00	2024-11-08T01:00:00	2	Temperatura media	18.4
129458	7	Sololá	704	Santa Lucía Utatlán 	7	Santa Rita 	11	Noviembre	2023-11-17T00:00:00	2024-11-08T01:00:00	4	Temperatura máxima	18.8
129459	7	Sololá	704	Santa Lucía Utatlán 	7	Santa Rita 	11	Noviembre	2023-11-17T00:00:00	2024-11-08T01:00:00	3	Temperatura mínima	18.4
129460	7	Sololá	704	Santa Lucía Utatlán 	7	Santa Rita 	11	Noviembre	2023-11-17T00:00:00	2024-11-08T01:00:00	5	Humedad	94
129461	7	Sololá	704	Santa Lucía Utatlán 	7	Santa Rita 	11	Noviembre	2023-11-17T00:00:00	2024-11-08T01:00:00	6	Velocidad del viento	0
129462	7	Sololá	704	Santa Lucía Utatlán 	7	Santa Rita 	11	Noviembre	2023-11-17T00:00:00	2024-11-08T01:00:00	7	Dirección del viento	0
129463	7	Sololá	704	Santa Lucía Utatlán 	7	Santa Rita 	11	Noviembre	2023-11-17T00:00:00	2024-11-08T01:00:00	1	Precipitación	0
129464	7	Sololá	704	Santa Lucía Utatlán 	7	Santa Rita 	11	Noviembre	2023-11-17T00:00:00	2024-11-08T01:00:00	8	Radiación solar	0
129465	7	Sololá	704	Santa Lucía Utatlán 	7	Santa Rita 	11	Noviembre	2023-11-17T00:00:00	2024-11-08T02:00:00	2	Temperatura media	18.1
129466	7	Sololá	704	Santa Lucía Utatlán 	7	Santa Rita 	11	Noviembre	2023-11-17T00:00:00	2024-11-08T02:00:00	4	Temperatura máxima	18.4
129467	7	Sololá	704	Santa Lucía Utatlán 	7	Santa Rita 	11	Noviembre	2023-11-17T00:00:00	2024-11-08T02:00:00	3	Temperatura mínima	18
129468	7	Sololá	704	Santa Lucía Utatlán 	7	Santa Rita 	11	Noviembre	2023-11-17T00:00:00	2024-11-08T02:00:00	5	Humedad	95
129469	7	Sololá	704	Santa Lucía Utatlán 	7	Santa Rita 	11	Noviembre	2023-11-17T00:00:00	2024-11-08T02:00:00	6	Velocidad del viento	0
129470	7	Sololá	704	Santa Lucía Utatlán 	7	Santa Rita 	11	Noviembre	2023-11-17T00:00:00	2024-11-08T02:00:00	7	Dirección del viento	0
129471	7	Sololá	704	Santa Lucía Utatlán 	7	Santa Rita 	11	Noviembre	2023-11-17T00:00:00	2024-11-08T02:00:00	1	Precipitación	0
129472	7	Sololá	704	Santa Lucía Utatlán 	7	Santa Rita 	11	Noviembre	2023-11-17T00:00:00	2024-11-08T02:00:00	8	Radiación solar	0
129473	7	Sololá	704	Santa Lucía Utatlán 	7	Santa Rita 	11	Noviembre	2023-11-17T00:00:00	2024-11-08T03:00:00	2	Temperatura media	16.6
129474	7	Sololá	704	Santa Lucía Utatlán 	7	Santa Rita 	11	Noviembre	2023-11-17T00:00:00	2024-11-08T03:00:00	4	Temperatura máxima	18.1
129475	7	Sololá	704	Santa Lucía Utatlán 	7	Santa Rita 	11	Noviembre	2023-11-17T00:00:00	2024-11-08T03:00:00	3	Temperatura mínima	16.6
129476	7	Sololá	704	Santa Lucía Utatlán 	7	Santa Rita 	11	Noviembre	2023-11-17T00:00:00	2024-11-08T03:00:00	5	Humedad	92
129477	7	Sololá	704	Santa Lucía Utatlán 	7	Santa Rita 	11	Noviembre	2023-11-17T00:00:00	2024-11-08T03:00:00	6	Velocidad del viento	3.2
129478	7	Sololá	704	Santa Lucía Utatlán 	7	Santa Rita 	11	Noviembre	2023-11-17T00:00:00	2024-11-08T03:00:00	7	Dirección del viento	3.22
129479	7	Sololá	704	Santa Lucía Utatlán 	7	Santa Rita 	11	Noviembre	2023-11-17T00:00:00	2024-11-08T03:00:00	1	Precipitación	0
129480	7	Sololá	704	Santa Lucía Utatlán 	7	Santa Rita 	11	Noviembre	2023-11-17T00:00:00	2024-11-08T03:00:00	8	Radiación solar	0
129481	7	Sololá	704	Santa Lucía Utatlán 	7	Santa Rita 	11	Noviembre	2023-11-17T00:00:00	2024-11-08T04:00:00	2	Temperatura media	15.9
129482	7	Sololá	704	Santa Lucía Utatlán 	7	Santa Rita 	11	Noviembre	2023-11-17T00:00:00	2024-11-08T04:00:00	4	Temperatura máxima	16.6
129483	7	Sololá	704	Santa Lucía Utatlán 	7	Santa Rita 	11	Noviembre	2023-11-17T00:00:00	2024-11-08T04:00:00	3	Temperatura mínima	15.9
129484	7	Sololá	704	Santa Lucía Utatlán 	7	Santa Rita 	11	Noviembre	2023-11-17T00:00:00	2024-11-08T04:00:00	5	Humedad	94
129485	7	Sololá	704	Santa Lucía Utatlán 	7	Santa Rita 	11	Noviembre	2023-11-17T00:00:00	2024-11-08T04:00:00	6	Velocidad del viento	3.2
129486	7	Sololá	704	Santa Lucía Utatlán 	7	Santa Rita 	11	Noviembre	2023-11-17T00:00:00	2024-11-08T04:00:00	7	Dirección del viento	3.22
129487	7	Sololá	704	Santa Lucía Utatlán 	7	Santa Rita 	11	Noviembre	2023-11-17T00:00:00	2024-11-08T04:00:00	1	Precipitación	0
129488	7	Sololá	704	Santa Lucía Utatlán 	7	Santa Rita 	11	Noviembre	2023-11-17T00:00:00	2024-11-08T04:00:00	8	Radiación solar	0
129489	7	Sololá	704	Santa Lucía Utatlán 	7	Santa Rita 	11	Noviembre	2023-11-17T00:00:00	2024-11-08T05:00:00	2	Temperatura media	15.4
129490	7	Sololá	704	Santa Lucía Utatlán 	7	Santa Rita 	11	Noviembre	2023-11-17T00:00:00	2024-11-08T05:00:00	4	Temperatura máxima	15.9
129491	7	Sololá	704	Santa Lucía Utatlán 	7	Santa Rita 	11	Noviembre	2023-11-17T00:00:00	2024-11-08T05:00:00	3	Temperatura mínima	15.4
129492	7	Sololá	704	Santa Lucía Utatlán 	7	Santa Rita 	11	Noviembre	2023-11-17T00:00:00	2024-11-08T05:00:00	5	Humedad	91
129493	7	Sololá	704	Santa Lucía Utatlán 	7	Santa Rita 	11	Noviembre	2023-11-17T00:00:00	2024-11-08T05:00:00	6	Velocidad del viento	3.2
129494	7	Sololá	704	Santa Lucía Utatlán 	7	Santa Rita 	11	Noviembre	2023-11-17T00:00:00	2024-11-08T05:00:00	7	Dirección del viento	3.22
129495	7	Sololá	704	Santa Lucía Utatlán 	7	Santa Rita 	11	Noviembre	2023-11-17T00:00:00	2024-11-08T05:00:00	1	Precipitación	0
129496	7	Sololá	704	Santa Lucía Utatlán 	7	Santa Rita 	11	Noviembre	2023-11-17T00:00:00	2024-11-08T05:00:00	8	Radiación solar	0
129497	7	Sololá	704	Santa Lucía Utatlán 	7	Santa Rita 	11	Noviembre	2023-11-17T00:00:00	2024-11-08T06:00:00	2	Temperatura media	15
129498	7	Sololá	704	Santa Lucía Utatlán 	7	Santa Rita 	11	Noviembre	2023-11-17T00:00:00	2024-11-08T06:00:00	4	Temperatura máxima	15.4
129499	7	Sololá	704	Santa Lucía Utatlán 	7	Santa Rita 	11	Noviembre	2023-11-17T00:00:00	2024-11-08T06:00:00	3	Temperatura mínima	15
129500	7	Sololá	704	Santa Lucía Utatlán 	7	Santa Rita 	11	Noviembre	2023-11-17T00:00:00	2024-11-08T06:00:00	5	Humedad	90
129501	7	Sololá	704	Santa Lucía Utatlán 	7	Santa Rita 	11	Noviembre	2023-11-17T00:00:00	2024-11-08T06:00:00	6	Velocidad del viento	3.2
129502	7	Sololá	704	Santa Lucía Utatlán 	7	Santa Rita 	11	Noviembre	2023-11-17T00:00:00	2024-11-08T06:00:00	7	Dirección del viento	3.22
129503	7	Sololá	704	Santa Lucía Utatlán 	7	Santa Rita 	11	Noviembre	2023-11-17T00:00:00	2024-11-08T06:00:00	1	Precipitación	0
129504	7	Sololá	704	Santa Lucía Utatlán 	7	Santa Rita 	11	Noviembre	2023-11-17T00:00:00	2024-11-08T06:00:00	8	Radiación solar	0
129505	7	Sololá	704	Santa Lucía Utatlán 	7	Santa Rita 	11	Noviembre	2023-11-17T00:00:00	2024-11-08T07:00:00	2	Temperatura media	18.2
129506	7	Sololá	704	Santa Lucía Utatlán 	7	Santa Rita 	11	Noviembre	2023-11-17T00:00:00	2024-11-08T07:00:00	4	Temperatura máxima	18.2
129507	7	Sololá	704	Santa Lucía Utatlán 	7	Santa Rita 	11	Noviembre	2023-11-17T00:00:00	2024-11-08T07:00:00	3	Temperatura mínima	15
129508	7	Sololá	704	Santa Lucía Utatlán 	7	Santa Rita 	11	Noviembre	2023-11-17T00:00:00	2024-11-08T07:00:00	5	Humedad	82
129509	7	Sololá	704	Santa Lucía Utatlán 	7	Santa Rita 	11	Noviembre	2023-11-17T00:00:00	2024-11-08T07:00:00	6	Velocidad del viento	1.6
129510	7	Sololá	704	Santa Lucía Utatlán 	7	Santa Rita 	11	Noviembre	2023-11-17T00:00:00	2024-11-08T07:00:00	7	Dirección del viento	1.61
129511	7	Sololá	704	Santa Lucía Utatlán 	7	Santa Rita 	11	Noviembre	2023-11-17T00:00:00	2024-11-08T07:00:00	1	Precipitación	0
129512	7	Sololá	704	Santa Lucía Utatlán 	7	Santa Rita 	11	Noviembre	2023-11-17T00:00:00	2024-11-08T07:00:00	8	Radiación solar	45
129513	7	Sololá	704	Santa Lucía Utatlán 	7	Santa Rita 	11	Noviembre	2023-11-17T00:00:00	2024-11-08T08:00:00	2	Temperatura media	21.5
129514	7	Sololá	704	Santa Lucía Utatlán 	7	Santa Rita 	11	Noviembre	2023-11-17T00:00:00	2024-11-08T08:00:00	4	Temperatura máxima	21.5
129515	7	Sololá	704	Santa Lucía Utatlán 	7	Santa Rita 	11	Noviembre	2023-11-17T00:00:00	2024-11-08T08:00:00	3	Temperatura mínima	18.2
129516	7	Sololá	704	Santa Lucía Utatlán 	7	Santa Rita 	11	Noviembre	2023-11-17T00:00:00	2024-11-08T08:00:00	5	Humedad	75
129517	7	Sololá	704	Santa Lucía Utatlán 	7	Santa Rita 	11	Noviembre	2023-11-17T00:00:00	2024-11-08T08:00:00	6	Velocidad del viento	1.6
129518	7	Sololá	704	Santa Lucía Utatlán 	7	Santa Rita 	11	Noviembre	2023-11-17T00:00:00	2024-11-08T08:00:00	7	Dirección del viento	1.61
129519	7	Sololá	704	Santa Lucía Utatlán 	7	Santa Rita 	11	Noviembre	2023-11-17T00:00:00	2024-11-08T08:00:00	1	Precipitación	0
129520	7	Sololá	704	Santa Lucía Utatlán 	7	Santa Rita 	11	Noviembre	2023-11-17T00:00:00	2024-11-08T08:00:00	8	Radiación solar	274
129521	7	Sololá	704	Santa Lucía Utatlán 	7	Santa Rita 	11	Noviembre	2023-11-17T00:00:00	2024-11-08T09:00:00	2	Temperatura media	23
129522	7	Sololá	704	Santa Lucía Utatlán 	7	Santa Rita 	11	Noviembre	2023-11-17T00:00:00	2024-11-08T09:00:00	4	Temperatura máxima	23
129523	7	Sololá	704	Santa Lucía Utatlán 	7	Santa Rita 	11	Noviembre	2023-11-17T00:00:00	2024-11-08T09:00:00	3	Temperatura mínima	21.5
129524	7	Sololá	704	Santa Lucía Utatlán 	7	Santa Rita 	11	Noviembre	2023-11-17T00:00:00	2024-11-08T09:00:00	5	Humedad	74
129525	7	Sololá	704	Santa Lucía Utatlán 	7	Santa Rita 	11	Noviembre	2023-11-17T00:00:00	2024-11-08T09:00:00	6	Velocidad del viento	3.2
129526	7	Sololá	704	Santa Lucía Utatlán 	7	Santa Rita 	11	Noviembre	2023-11-17T00:00:00	2024-11-08T09:00:00	7	Dirección del viento	3.22
129527	7	Sololá	704	Santa Lucía Utatlán 	7	Santa Rita 	11	Noviembre	2023-11-17T00:00:00	2024-11-08T09:00:00	1	Precipitación	0
129528	7	Sololá	704	Santa Lucía Utatlán 	7	Santa Rita 	11	Noviembre	2023-11-17T00:00:00	2024-11-08T09:00:00	8	Radiación solar	495
129529	7	Sololá	704	Santa Lucía Utatlán 	7	Santa Rita 	11	Noviembre	2023-11-17T00:00:00	2024-11-08T10:00:00	2	Temperatura media	24.3
129530	7	Sololá	704	Santa Lucía Utatlán 	7	Santa Rita 	11	Noviembre	2023-11-17T00:00:00	2024-11-08T10:00:00	4	Temperatura máxima	24.4
129531	7	Sololá	704	Santa Lucía Utatlán 	7	Santa Rita 	11	Noviembre	2023-11-17T00:00:00	2024-11-08T10:00:00	3	Temperatura mínima	23
129532	7	Sololá	704	Santa Lucía Utatlán 	7	Santa Rita 	11	Noviembre	2023-11-17T00:00:00	2024-11-08T10:00:00	5	Humedad	73
129533	7	Sololá	704	Santa Lucía Utatlán 	7	Santa Rita 	11	Noviembre	2023-11-17T00:00:00	2024-11-08T10:00:00	6	Velocidad del viento	4.8
129534	7	Sololá	704	Santa Lucía Utatlán 	7	Santa Rita 	11	Noviembre	2023-11-17T00:00:00	2024-11-08T10:00:00	7	Dirección del viento	4.83
129535	7	Sololá	704	Santa Lucía Utatlán 	7	Santa Rita 	11	Noviembre	2023-11-17T00:00:00	2024-11-08T10:00:00	1	Precipitación	0
129536	7	Sololá	704	Santa Lucía Utatlán 	7	Santa Rita 	11	Noviembre	2023-11-17T00:00:00	2024-11-08T10:00:00	8	Radiación solar	676
129537	7	Sololá	704	Santa Lucía Utatlán 	7	Santa Rita 	11	Noviembre	2023-11-17T00:00:00	2024-11-08T11:00:00	2	Temperatura media	23.5
129538	7	Sololá	704	Santa Lucía Utatlán 	7	Santa Rita 	11	Noviembre	2023-11-17T00:00:00	2024-11-08T11:00:00	4	Temperatura máxima	24.6
129539	7	Sololá	704	Santa Lucía Utatlán 	7	Santa Rita 	11	Noviembre	2023-11-17T00:00:00	2024-11-08T11:00:00	3	Temperatura mínima	23.4
129540	7	Sololá	704	Santa Lucía Utatlán 	7	Santa Rita 	11	Noviembre	2023-11-17T00:00:00	2024-11-08T11:00:00	5	Humedad	77
129541	7	Sololá	704	Santa Lucía Utatlán 	7	Santa Rita 	11	Noviembre	2023-11-17T00:00:00	2024-11-08T11:00:00	6	Velocidad del viento	6.4
129542	7	Sololá	704	Santa Lucía Utatlán 	7	Santa Rita 	11	Noviembre	2023-11-17T00:00:00	2024-11-08T11:00:00	7	Dirección del viento	6.44
129543	7	Sololá	704	Santa Lucía Utatlán 	7	Santa Rita 	11	Noviembre	2023-11-17T00:00:00	2024-11-08T11:00:00	1	Precipitación	0
129544	7	Sololá	704	Santa Lucía Utatlán 	7	Santa Rita 	11	Noviembre	2023-11-17T00:00:00	2024-11-08T11:00:00	8	Radiación solar	745
129545	7	Sololá	704	Santa Lucía Utatlán 	7	Santa Rita 	11	Noviembre	2023-11-17T00:00:00	2024-11-08T12:00:00	2	Temperatura media	23.7
129546	7	Sololá	704	Santa Lucía Utatlán 	7	Santa Rita 	11	Noviembre	2023-11-17T00:00:00	2024-11-08T12:00:00	4	Temperatura máxima	24.5
129547	7	Sololá	704	Santa Lucía Utatlán 	7	Santa Rita 	11	Noviembre	2023-11-17T00:00:00	2024-11-08T12:00:00	3	Temperatura mínima	23.2
129548	7	Sololá	704	Santa Lucía Utatlán 	7	Santa Rita 	11	Noviembre	2023-11-17T00:00:00	2024-11-08T12:00:00	5	Humedad	78
129549	7	Sololá	704	Santa Lucía Utatlán 	7	Santa Rita 	11	Noviembre	2023-11-17T00:00:00	2024-11-08T12:00:00	6	Velocidad del viento	6.4
129550	7	Sololá	704	Santa Lucía Utatlán 	7	Santa Rita 	11	Noviembre	2023-11-17T00:00:00	2024-11-08T12:00:00	7	Dirección del viento	6.44
129551	7	Sololá	704	Santa Lucía Utatlán 	7	Santa Rita 	11	Noviembre	2023-11-17T00:00:00	2024-11-08T12:00:00	1	Precipitación	0
129552	7	Sololá	704	Santa Lucía Utatlán 	7	Santa Rita 	11	Noviembre	2023-11-17T00:00:00	2024-11-08T12:00:00	8	Radiación solar	483
129553	7	Sololá	704	Santa Lucía Utatlán 	7	Santa Rita 	11	Noviembre	2023-11-17T00:00:00	2024-11-08T13:00:00	2	Temperatura media	22.2
129554	7	Sololá	704	Santa Lucía Utatlán 	7	Santa Rita 	11	Noviembre	2023-11-17T00:00:00	2024-11-08T13:00:00	4	Temperatura máxima	23.7
129555	7	Sololá	704	Santa Lucía Utatlán 	7	Santa Rita 	11	Noviembre	2023-11-17T00:00:00	2024-11-08T13:00:00	3	Temperatura mínima	22.2
129556	7	Sololá	704	Santa Lucía Utatlán 	7	Santa Rita 	11	Noviembre	2023-11-17T00:00:00	2024-11-08T13:00:00	5	Humedad	84
129557	7	Sololá	704	Santa Lucía Utatlán 	7	Santa Rita 	11	Noviembre	2023-11-17T00:00:00	2024-11-08T13:00:00	6	Velocidad del viento	8
129558	7	Sololá	704	Santa Lucía Utatlán 	7	Santa Rita 	11	Noviembre	2023-11-17T00:00:00	2024-11-08T13:00:00	7	Dirección del viento	8.05
129559	7	Sololá	704	Santa Lucía Utatlán 	7	Santa Rita 	11	Noviembre	2023-11-17T00:00:00	2024-11-08T13:00:00	1	Precipitación	0
129560	7	Sololá	704	Santa Lucía Utatlán 	7	Santa Rita 	11	Noviembre	2023-11-17T00:00:00	2024-11-08T13:00:00	8	Radiación solar	286
129561	7	Sololá	704	Santa Lucía Utatlán 	7	Santa Rita 	11	Noviembre	2023-11-17T00:00:00	2024-11-08T14:00:00	2	Temperatura media	22.2
129562	7	Sololá	704	Santa Lucía Utatlán 	7	Santa Rita 	11	Noviembre	2023-11-17T00:00:00	2024-11-08T14:00:00	4	Temperatura máxima	22.2
129563	7	Sololá	704	Santa Lucía Utatlán 	7	Santa Rita 	11	Noviembre	2023-11-17T00:00:00	2024-11-08T14:00:00	3	Temperatura mínima	21.8
129564	7	Sololá	704	Santa Lucía Utatlán 	7	Santa Rita 	11	Noviembre	2023-11-17T00:00:00	2024-11-08T14:00:00	5	Humedad	81
129565	7	Sololá	704	Santa Lucía Utatlán 	7	Santa Rita 	11	Noviembre	2023-11-17T00:00:00	2024-11-08T14:00:00	6	Velocidad del viento	6.4
129566	7	Sololá	704	Santa Lucía Utatlán 	7	Santa Rita 	11	Noviembre	2023-11-17T00:00:00	2024-11-08T14:00:00	7	Dirección del viento	6.44
129567	7	Sololá	704	Santa Lucía Utatlán 	7	Santa Rita 	11	Noviembre	2023-11-17T00:00:00	2024-11-08T14:00:00	1	Precipitación	0
129568	7	Sololá	704	Santa Lucía Utatlán 	7	Santa Rita 	11	Noviembre	2023-11-17T00:00:00	2024-11-08T14:00:00	8	Radiación solar	232
129569	7	Sololá	704	Santa Lucía Utatlán 	7	Santa Rita 	11	Noviembre	2023-11-17T00:00:00	2024-11-08T15:00:00	2	Temperatura media	21.2
129570	7	Sololá	704	Santa Lucía Utatlán 	7	Santa Rita 	11	Noviembre	2023-11-17T00:00:00	2024-11-08T15:00:00	4	Temperatura máxima	22.2
129571	7	Sololá	704	Santa Lucía Utatlán 	7	Santa Rita 	11	Noviembre	2023-11-17T00:00:00	2024-11-08T15:00:00	3	Temperatura mínima	21.2
129572	7	Sololá	704	Santa Lucía Utatlán 	7	Santa Rita 	11	Noviembre	2023-11-17T00:00:00	2024-11-08T15:00:00	5	Humedad	85
129573	7	Sololá	704	Santa Lucía Utatlán 	7	Santa Rita 	11	Noviembre	2023-11-17T00:00:00	2024-11-08T15:00:00	6	Velocidad del viento	6.4
129574	7	Sololá	704	Santa Lucía Utatlán 	7	Santa Rita 	11	Noviembre	2023-11-17T00:00:00	2024-11-08T15:00:00	7	Dirección del viento	6.44
129575	7	Sololá	704	Santa Lucía Utatlán 	7	Santa Rita 	11	Noviembre	2023-11-17T00:00:00	2024-11-08T15:00:00	1	Precipitación	0
129576	7	Sololá	704	Santa Lucía Utatlán 	7	Santa Rita 	11	Noviembre	2023-11-17T00:00:00	2024-11-08T15:00:00	8	Radiación solar	158
129577	7	Sololá	704	Santa Lucía Utatlán 	7	Santa Rita 	11	Noviembre	2023-11-17T00:00:00	2024-11-08T16:00:00	2	Temperatura media	20.9
129578	7	Sololá	704	Santa Lucía Utatlán 	7	Santa Rita 	11	Noviembre	2023-11-17T00:00:00	2024-11-08T16:00:00	4	Temperatura máxima	21.2
129579	7	Sololá	704	Santa Lucía Utatlán 	7	Santa Rita 	11	Noviembre	2023-11-17T00:00:00	2024-11-08T16:00:00	3	Temperatura mínima	20.9
129580	7	Sololá	704	Santa Lucía Utatlán 	7	Santa Rita 	11	Noviembre	2023-11-17T00:00:00	2024-11-08T16:00:00	5	Humedad	87
129581	7	Sololá	704	Santa Lucía Utatlán 	7	Santa Rita 	11	Noviembre	2023-11-17T00:00:00	2024-11-08T16:00:00	6	Velocidad del viento	4.8
129582	7	Sololá	704	Santa Lucía Utatlán 	7	Santa Rita 	11	Noviembre	2023-11-17T00:00:00	2024-11-08T16:00:00	7	Dirección del viento	4.83
129583	7	Sololá	704	Santa Lucía Utatlán 	7	Santa Rita 	11	Noviembre	2023-11-17T00:00:00	2024-11-08T16:00:00	1	Precipitación	0
129584	7	Sololá	704	Santa Lucía Utatlán 	7	Santa Rita 	11	Noviembre	2023-11-17T00:00:00	2024-11-08T16:00:00	8	Radiación solar	89
129585	7	Sololá	704	Santa Lucía Utatlán 	7	Santa Rita 	11	Noviembre	2023-11-17T00:00:00	2024-11-08T17:00:00	2	Temperatura media	20.7
129586	7	Sololá	704	Santa Lucía Utatlán 	7	Santa Rita 	11	Noviembre	2023-11-17T00:00:00	2024-11-08T17:00:00	4	Temperatura máxima	20.9
129587	7	Sololá	704	Santa Lucía Utatlán 	7	Santa Rita 	11	Noviembre	2023-11-17T00:00:00	2024-11-08T17:00:00	3	Temperatura mínima	20.6
129588	7	Sololá	704	Santa Lucía Utatlán 	7	Santa Rita 	11	Noviembre	2023-11-17T00:00:00	2024-11-08T17:00:00	5	Humedad	89
129589	7	Sololá	704	Santa Lucía Utatlán 	7	Santa Rita 	11	Noviembre	2023-11-17T00:00:00	2024-11-08T17:00:00	6	Velocidad del viento	3.2
129590	7	Sololá	704	Santa Lucía Utatlán 	7	Santa Rita 	11	Noviembre	2023-11-17T00:00:00	2024-11-08T17:00:00	7	Dirección del viento	3.22
129591	7	Sololá	704	Santa Lucía Utatlán 	7	Santa Rita 	11	Noviembre	2023-11-17T00:00:00	2024-11-08T17:00:00	1	Precipitación	0
129592	7	Sololá	704	Santa Lucía Utatlán 	7	Santa Rita 	11	Noviembre	2023-11-17T00:00:00	2024-11-08T17:00:00	8	Radiación solar	35
129593	7	Sololá	704	Santa Lucía Utatlán 	7	Santa Rita 	11	Noviembre	2023-11-17T00:00:00	2024-11-08T18:00:00	2	Temperatura media	19.4
129594	7	Sololá	704	Santa Lucía Utatlán 	7	Santa Rita 	11	Noviembre	2023-11-17T00:00:00	2024-11-08T18:00:00	4	Temperatura máxima	20.7
129595	7	Sololá	704	Santa Lucía Utatlán 	7	Santa Rita 	11	Noviembre	2023-11-17T00:00:00	2024-11-08T18:00:00	3	Temperatura mínima	19.4
129596	7	Sololá	704	Santa Lucía Utatlán 	7	Santa Rita 	11	Noviembre	2023-11-17T00:00:00	2024-11-08T18:00:00	5	Humedad	91
129597	7	Sololá	704	Santa Lucía Utatlán 	7	Santa Rita 	11	Noviembre	2023-11-17T00:00:00	2024-11-08T18:00:00	6	Velocidad del viento	1.6
129598	7	Sololá	704	Santa Lucía Utatlán 	7	Santa Rita 	11	Noviembre	2023-11-17T00:00:00	2024-11-08T18:00:00	7	Dirección del viento	1.61
129599	7	Sololá	704	Santa Lucía Utatlán 	7	Santa Rita 	11	Noviembre	2023-11-17T00:00:00	2024-11-08T18:00:00	1	Precipitación	0
129600	7	Sololá	704	Santa Lucía Utatlán 	7	Santa Rita 	11	Noviembre	2023-11-17T00:00:00	2024-11-08T18:00:00	8	Radiación solar	7
129601	7	Sololá	704	Santa Lucía Utatlán 	7	Santa Rita 	11	Noviembre	2023-11-17T00:00:00	2024-11-08T19:00:00	2	Temperatura media	19.1
129602	7	Sololá	704	Santa Lucía Utatlán 	7	Santa Rita 	11	Noviembre	2023-11-17T00:00:00	2024-11-08T19:00:00	4	Temperatura máxima	19.4
129603	7	Sololá	704	Santa Lucía Utatlán 	7	Santa Rita 	11	Noviembre	2023-11-17T00:00:00	2024-11-08T19:00:00	3	Temperatura mínima	18.7
129604	7	Sololá	704	Santa Lucía Utatlán 	7	Santa Rita 	11	Noviembre	2023-11-17T00:00:00	2024-11-08T19:00:00	5	Humedad	93
129605	7	Sololá	704	Santa Lucía Utatlán 	7	Santa Rita 	11	Noviembre	2023-11-17T00:00:00	2024-11-08T19:00:00	6	Velocidad del viento	1.6
129606	7	Sololá	704	Santa Lucía Utatlán 	7	Santa Rita 	11	Noviembre	2023-11-17T00:00:00	2024-11-08T19:00:00	7	Dirección del viento	1.61
129607	7	Sololá	704	Santa Lucía Utatlán 	7	Santa Rita 	11	Noviembre	2023-11-17T00:00:00	2024-11-08T19:00:00	1	Precipitación	0
129608	7	Sololá	704	Santa Lucía Utatlán 	7	Santa Rita 	11	Noviembre	2023-11-17T00:00:00	2024-11-08T19:00:00	8	Radiación solar	0
129609	7	Sololá	704	Santa Lucía Utatlán 	7	Santa Rita 	11	Noviembre	2023-11-17T00:00:00	2024-11-08T20:00:00	2	Temperatura media	19.6
129610	7	Sololá	704	Santa Lucía Utatlán 	7	Santa Rita 	11	Noviembre	2023-11-17T00:00:00	2024-11-08T20:00:00	4	Temperatura máxima	19.6
129611	7	Sololá	704	Santa Lucía Utatlán 	7	Santa Rita 	11	Noviembre	2023-11-17T00:00:00	2024-11-08T20:00:00	3	Temperatura mínima	19.1
129612	7	Sololá	704	Santa Lucía Utatlán 	7	Santa Rita 	11	Noviembre	2023-11-17T00:00:00	2024-11-08T20:00:00	5	Humedad	93
129613	7	Sololá	704	Santa Lucía Utatlán 	7	Santa Rita 	11	Noviembre	2023-11-17T00:00:00	2024-11-08T20:00:00	6	Velocidad del viento	0
129614	7	Sololá	704	Santa Lucía Utatlán 	7	Santa Rita 	11	Noviembre	2023-11-17T00:00:00	2024-11-08T20:00:00	7	Dirección del viento	0
129615	7	Sololá	704	Santa Lucía Utatlán 	7	Santa Rita 	11	Noviembre	2023-11-17T00:00:00	2024-11-08T20:00:00	1	Precipitación	0.2
129616	7	Sololá	704	Santa Lucía Utatlán 	7	Santa Rita 	11	Noviembre	2023-11-17T00:00:00	2024-11-08T20:00:00	8	Radiación solar	0
129617	7	Sololá	704	Santa Lucía Utatlán 	7	Santa Rita 	11	Noviembre	2023-11-17T00:00:00	2024-11-08T21:00:00	2	Temperatura media	19.3
129618	7	Sololá	704	Santa Lucía Utatlán 	7	Santa Rita 	11	Noviembre	2023-11-17T00:00:00	2024-11-08T21:00:00	4	Temperatura máxima	19.6
129619	7	Sololá	704	Santa Lucía Utatlán 	7	Santa Rita 	11	Noviembre	2023-11-17T00:00:00	2024-11-08T21:00:00	3	Temperatura mínima	19.3
129620	7	Sololá	704	Santa Lucía Utatlán 	7	Santa Rita 	11	Noviembre	2023-11-17T00:00:00	2024-11-08T21:00:00	5	Humedad	95
129621	7	Sololá	704	Santa Lucía Utatlán 	7	Santa Rita 	11	Noviembre	2023-11-17T00:00:00	2024-11-08T21:00:00	6	Velocidad del viento	0
129622	7	Sololá	704	Santa Lucía Utatlán 	7	Santa Rita 	11	Noviembre	2023-11-17T00:00:00	2024-11-08T21:00:00	7	Dirección del viento	0
129623	7	Sololá	704	Santa Lucía Utatlán 	7	Santa Rita 	11	Noviembre	2023-11-17T00:00:00	2024-11-08T21:00:00	1	Precipitación	0.2
129624	7	Sololá	704	Santa Lucía Utatlán 	7	Santa Rita 	11	Noviembre	2023-11-17T00:00:00	2024-11-08T21:00:00	8	Radiación solar	0
129625	7	Sololá	704	Santa Lucía Utatlán 	7	Santa Rita 	11	Noviembre	2023-11-17T00:00:00	2024-11-08T22:00:00	2	Temperatura media	19.3
129626	7	Sololá	704	Santa Lucía Utatlán 	7	Santa Rita 	11	Noviembre	2023-11-17T00:00:00	2024-11-08T22:00:00	4	Temperatura máxima	19.4
129627	7	Sololá	704	Santa Lucía Utatlán 	7	Santa Rita 	11	Noviembre	2023-11-17T00:00:00	2024-11-08T22:00:00	3	Temperatura mínima	19.2
129628	7	Sololá	704	Santa Lucía Utatlán 	7	Santa Rita 	11	Noviembre	2023-11-17T00:00:00	2024-11-08T22:00:00	5	Humedad	95
129629	7	Sololá	704	Santa Lucía Utatlán 	7	Santa Rita 	11	Noviembre	2023-11-17T00:00:00	2024-11-08T22:00:00	6	Velocidad del viento	0
129630	7	Sololá	704	Santa Lucía Utatlán 	7	Santa Rita 	11	Noviembre	2023-11-17T00:00:00	2024-11-08T22:00:00	7	Dirección del viento	0
129631	7	Sololá	704	Santa Lucía Utatlán 	7	Santa Rita 	11	Noviembre	2023-11-17T00:00:00	2024-11-08T22:00:00	1	Precipitación	0
129632	7	Sololá	704	Santa Lucía Utatlán 	7	Santa Rita 	11	Noviembre	2023-11-17T00:00:00	2024-11-08T22:00:00	8	Radiación solar	0
129633	7	Sololá	704	Santa Lucía Utatlán 	7	Santa Rita 	11	Noviembre	2023-11-17T00:00:00	2024-11-08T23:00:00	2	Temperatura media	19.1
129634	7	Sololá	704	Santa Lucía Utatlán 	7	Santa Rita 	11	Noviembre	2023-11-17T00:00:00	2024-11-08T23:00:00	4	Temperatura máxima	19.4
129635	7	Sololá	704	Santa Lucía Utatlán 	7	Santa Rita 	11	Noviembre	2023-11-17T00:00:00	2024-11-08T23:00:00	3	Temperatura mínima	19.1
129636	7	Sololá	704	Santa Lucía Utatlán 	7	Santa Rita 	11	Noviembre	2023-11-17T00:00:00	2024-11-08T23:00:00	5	Humedad	96
129637	7	Sololá	704	Santa Lucía Utatlán 	7	Santa Rita 	11	Noviembre	2023-11-17T00:00:00	2024-11-08T23:00:00	6	Velocidad del viento	1.6
129638	7	Sololá	704	Santa Lucía Utatlán 	7	Santa Rita 	11	Noviembre	2023-11-17T00:00:00	2024-11-08T23:00:00	7	Dirección del viento	1.61
129639	7	Sololá	704	Santa Lucía Utatlán 	7	Santa Rita 	11	Noviembre	2023-11-17T00:00:00	2024-11-08T23:00:00	1	Precipitación	0.2
129640	7	Sololá	704	Santa Lucía Utatlán 	7	Santa Rita 	11	Noviembre	2023-11-17T00:00:00	2024-11-08T23:00:00	8	Radiación solar	0
129641	7	Sololá	704	Santa Lucía Utatlán 	7	Santa Rita 	11	Noviembre	2023-11-18T00:00:00	2024-11-08T00:00:00	2	Temperatura media	19
129642	7	Sololá	704	Santa Lucía Utatlán 	7	Santa Rita 	11	Noviembre	2023-11-18T00:00:00	2024-11-08T00:00:00	4	Temperatura máxima	19.2
129643	7	Sololá	704	Santa Lucía Utatlán 	7	Santa Rita 	11	Noviembre	2023-11-18T00:00:00	2024-11-08T00:00:00	3	Temperatura mínima	19
129644	7	Sololá	704	Santa Lucía Utatlán 	7	Santa Rita 	11	Noviembre	2023-11-18T00:00:00	2024-11-08T00:00:00	5	Humedad	97
129645	7	Sololá	704	Santa Lucía Utatlán 	7	Santa Rita 	11	Noviembre	2023-11-18T00:00:00	2024-11-08T00:00:00	6	Velocidad del viento	0
129646	7	Sololá	704	Santa Lucía Utatlán 	7	Santa Rita 	11	Noviembre	2023-11-18T00:00:00	2024-11-08T00:00:00	7	Dirección del viento	0
129647	7	Sololá	704	Santa Lucía Utatlán 	7	Santa Rita 	11	Noviembre	2023-11-18T00:00:00	2024-11-08T00:00:00	1	Precipitación	0
129648	7	Sololá	704	Santa Lucía Utatlán 	7	Santa Rita 	11	Noviembre	2023-11-18T00:00:00	2024-11-08T00:00:00	8	Radiación solar	0
129649	7	Sololá	704	Santa Lucía Utatlán 	7	Santa Rita 	11	Noviembre	2023-11-18T00:00:00	2024-11-08T01:00:00	2	Temperatura media	18.9
129650	7	Sololá	704	Santa Lucía Utatlán 	7	Santa Rita 	11	Noviembre	2023-11-18T00:00:00	2024-11-08T01:00:00	4	Temperatura máxima	19.1
129651	7	Sololá	704	Santa Lucía Utatlán 	7	Santa Rita 	11	Noviembre	2023-11-18T00:00:00	2024-11-08T01:00:00	3	Temperatura mínima	18.9
129652	7	Sololá	704	Santa Lucía Utatlán 	7	Santa Rita 	11	Noviembre	2023-11-18T00:00:00	2024-11-08T01:00:00	5	Humedad	97
129653	7	Sololá	704	Santa Lucía Utatlán 	7	Santa Rita 	11	Noviembre	2023-11-18T00:00:00	2024-11-08T01:00:00	6	Velocidad del viento	0
129654	7	Sololá	704	Santa Lucía Utatlán 	7	Santa Rita 	11	Noviembre	2023-11-18T00:00:00	2024-11-08T01:00:00	7	Dirección del viento	0
129655	7	Sololá	704	Santa Lucía Utatlán 	7	Santa Rita 	11	Noviembre	2023-11-18T00:00:00	2024-11-08T01:00:00	1	Precipitación	0
129656	7	Sololá	704	Santa Lucía Utatlán 	7	Santa Rita 	11	Noviembre	2023-11-18T00:00:00	2024-11-08T01:00:00	8	Radiación solar	0
129657	7	Sololá	704	Santa Lucía Utatlán 	7	Santa Rita 	11	Noviembre	2023-11-18T00:00:00	2024-11-08T02:00:00	2	Temperatura media	18.8
129658	7	Sololá	704	Santa Lucía Utatlán 	7	Santa Rita 	11	Noviembre	2023-11-18T00:00:00	2024-11-08T02:00:00	4	Temperatura máxima	19.1
129659	7	Sololá	704	Santa Lucía Utatlán 	7	Santa Rita 	11	Noviembre	2023-11-18T00:00:00	2024-11-08T02:00:00	3	Temperatura mínima	18.8
129660	7	Sololá	704	Santa Lucía Utatlán 	7	Santa Rita 	11	Noviembre	2023-11-18T00:00:00	2024-11-08T02:00:00	5	Humedad	97
129661	7	Sololá	704	Santa Lucía Utatlán 	7	Santa Rita 	11	Noviembre	2023-11-18T00:00:00	2024-11-08T02:00:00	6	Velocidad del viento	0
129662	7	Sololá	704	Santa Lucía Utatlán 	7	Santa Rita 	11	Noviembre	2023-11-18T00:00:00	2024-11-08T02:00:00	7	Dirección del viento	0
129663	7	Sololá	704	Santa Lucía Utatlán 	7	Santa Rita 	11	Noviembre	2023-11-18T00:00:00	2024-11-08T02:00:00	1	Precipitación	0
129664	7	Sololá	704	Santa Lucía Utatlán 	7	Santa Rita 	11	Noviembre	2023-11-18T00:00:00	2024-11-08T02:00:00	8	Radiación solar	0
129665	7	Sololá	704	Santa Lucía Utatlán 	7	Santa Rita 	11	Noviembre	2023-11-18T00:00:00	2024-11-08T03:00:00	2	Temperatura media	18.4
129666	7	Sololá	704	Santa Lucía Utatlán 	7	Santa Rita 	11	Noviembre	2023-11-18T00:00:00	2024-11-08T03:00:00	4	Temperatura máxima	18.8
129667	7	Sololá	704	Santa Lucía Utatlán 	7	Santa Rita 	11	Noviembre	2023-11-18T00:00:00	2024-11-08T03:00:00	3	Temperatura mínima	18.3
129668	7	Sololá	704	Santa Lucía Utatlán 	7	Santa Rita 	11	Noviembre	2023-11-18T00:00:00	2024-11-08T03:00:00	5	Humedad	96
129669	7	Sololá	704	Santa Lucía Utatlán 	7	Santa Rita 	11	Noviembre	2023-11-18T00:00:00	2024-11-08T03:00:00	6	Velocidad del viento	0
129670	7	Sololá	704	Santa Lucía Utatlán 	7	Santa Rita 	11	Noviembre	2023-11-18T00:00:00	2024-11-08T03:00:00	7	Dirección del viento	0
129671	7	Sololá	704	Santa Lucía Utatlán 	7	Santa Rita 	11	Noviembre	2023-11-18T00:00:00	2024-11-08T03:00:00	1	Precipitación	0
129672	7	Sololá	704	Santa Lucía Utatlán 	7	Santa Rita 	11	Noviembre	2023-11-18T00:00:00	2024-11-08T03:00:00	8	Radiación solar	0
129673	7	Sololá	704	Santa Lucía Utatlán 	7	Santa Rita 	11	Noviembre	2023-11-18T00:00:00	2024-11-08T04:00:00	2	Temperatura media	17.2
129674	7	Sololá	704	Santa Lucía Utatlán 	7	Santa Rita 	11	Noviembre	2023-11-18T00:00:00	2024-11-08T04:00:00	4	Temperatura máxima	18.3
129675	7	Sololá	704	Santa Lucía Utatlán 	7	Santa Rita 	11	Noviembre	2023-11-18T00:00:00	2024-11-08T04:00:00	3	Temperatura mínima	17.2
129676	7	Sololá	704	Santa Lucía Utatlán 	7	Santa Rita 	11	Noviembre	2023-11-18T00:00:00	2024-11-08T04:00:00	5	Humedad	94
129677	7	Sololá	704	Santa Lucía Utatlán 	7	Santa Rita 	11	Noviembre	2023-11-18T00:00:00	2024-11-08T04:00:00	6	Velocidad del viento	1.6
129678	7	Sololá	704	Santa Lucía Utatlán 	7	Santa Rita 	11	Noviembre	2023-11-18T00:00:00	2024-11-08T04:00:00	7	Dirección del viento	1.61
129679	7	Sololá	704	Santa Lucía Utatlán 	7	Santa Rita 	11	Noviembre	2023-11-18T00:00:00	2024-11-08T04:00:00	1	Precipitación	0
129680	7	Sololá	704	Santa Lucía Utatlán 	7	Santa Rita 	11	Noviembre	2023-11-18T00:00:00	2024-11-08T04:00:00	8	Radiación solar	0
129681	7	Sololá	704	Santa Lucía Utatlán 	7	Santa Rita 	11	Noviembre	2023-11-18T00:00:00	2024-11-08T05:00:00	2	Temperatura media	16.2
129682	7	Sololá	704	Santa Lucía Utatlán 	7	Santa Rita 	11	Noviembre	2023-11-18T00:00:00	2024-11-08T05:00:00	4	Temperatura máxima	17.2
129683	7	Sololá	704	Santa Lucía Utatlán 	7	Santa Rita 	11	Noviembre	2023-11-18T00:00:00	2024-11-08T05:00:00	3	Temperatura mínima	16.2
129684	7	Sololá	704	Santa Lucía Utatlán 	7	Santa Rita 	11	Noviembre	2023-11-18T00:00:00	2024-11-08T05:00:00	5	Humedad	96
129685	7	Sololá	704	Santa Lucía Utatlán 	7	Santa Rita 	11	Noviembre	2023-11-18T00:00:00	2024-11-08T05:00:00	6	Velocidad del viento	1.6
129686	7	Sololá	704	Santa Lucía Utatlán 	7	Santa Rita 	11	Noviembre	2023-11-18T00:00:00	2024-11-08T05:00:00	7	Dirección del viento	1.61
129687	7	Sololá	704	Santa Lucía Utatlán 	7	Santa Rita 	11	Noviembre	2023-11-18T00:00:00	2024-11-08T05:00:00	1	Precipitación	0
129688	7	Sololá	704	Santa Lucía Utatlán 	7	Santa Rita 	11	Noviembre	2023-11-18T00:00:00	2024-11-08T05:00:00	8	Radiación solar	0
129689	7	Sololá	704	Santa Lucía Utatlán 	7	Santa Rita 	11	Noviembre	2023-11-18T00:00:00	2024-11-08T06:00:00	2	Temperatura media	15.7
129690	7	Sololá	704	Santa Lucía Utatlán 	7	Santa Rita 	11	Noviembre	2023-11-18T00:00:00	2024-11-08T06:00:00	4	Temperatura máxima	16.3
129691	7	Sololá	704	Santa Lucía Utatlán 	7	Santa Rita 	11	Noviembre	2023-11-18T00:00:00	2024-11-08T06:00:00	3	Temperatura mínima	15.6
129692	7	Sololá	704	Santa Lucía Utatlán 	7	Santa Rita 	11	Noviembre	2023-11-18T00:00:00	2024-11-08T06:00:00	5	Humedad	96
129693	7	Sololá	704	Santa Lucía Utatlán 	7	Santa Rita 	11	Noviembre	2023-11-18T00:00:00	2024-11-08T06:00:00	6	Velocidad del viento	1.6
129694	7	Sololá	704	Santa Lucía Utatlán 	7	Santa Rita 	11	Noviembre	2023-11-18T00:00:00	2024-11-08T06:00:00	7	Dirección del viento	1.61
129695	7	Sololá	704	Santa Lucía Utatlán 	7	Santa Rita 	11	Noviembre	2023-11-18T00:00:00	2024-11-08T06:00:00	1	Precipitación	0
129696	7	Sololá	704	Santa Lucía Utatlán 	7	Santa Rita 	11	Noviembre	2023-11-18T00:00:00	2024-11-08T06:00:00	8	Radiación solar	0
129697	7	Sololá	704	Santa Lucía Utatlán 	7	Santa Rita 	11	Noviembre	2023-11-18T00:00:00	2024-11-08T07:00:00	2	Temperatura media	16.1
129698	7	Sololá	704	Santa Lucía Utatlán 	7	Santa Rita 	11	Noviembre	2023-11-18T00:00:00	2024-11-08T07:00:00	4	Temperatura máxima	16.1
129699	7	Sololá	704	Santa Lucía Utatlán 	7	Santa Rita 	11	Noviembre	2023-11-18T00:00:00	2024-11-08T07:00:00	3	Temperatura mínima	15.6
129700	7	Sololá	704	Santa Lucía Utatlán 	7	Santa Rita 	11	Noviembre	2023-11-18T00:00:00	2024-11-08T07:00:00	5	Humedad	97
129701	7	Sololá	704	Santa Lucía Utatlán 	7	Santa Rita 	11	Noviembre	2023-11-18T00:00:00	2024-11-08T07:00:00	6	Velocidad del viento	0
129702	7	Sololá	704	Santa Lucía Utatlán 	7	Santa Rita 	11	Noviembre	2023-11-18T00:00:00	2024-11-08T07:00:00	7	Dirección del viento	0
129703	7	Sololá	704	Santa Lucía Utatlán 	7	Santa Rita 	11	Noviembre	2023-11-18T00:00:00	2024-11-08T07:00:00	1	Precipitación	0
129704	7	Sololá	704	Santa Lucía Utatlán 	7	Santa Rita 	11	Noviembre	2023-11-18T00:00:00	2024-11-08T07:00:00	8	Radiación solar	25
129705	7	Sololá	704	Santa Lucía Utatlán 	7	Santa Rita 	11	Noviembre	2023-11-18T00:00:00	2024-11-08T08:00:00	2	Temperatura media	16.8
129706	7	Sololá	704	Santa Lucía Utatlán 	7	Santa Rita 	11	Noviembre	2023-11-18T00:00:00	2024-11-08T08:00:00	4	Temperatura máxima	16.8
129707	7	Sololá	704	Santa Lucía Utatlán 	7	Santa Rita 	11	Noviembre	2023-11-18T00:00:00	2024-11-08T08:00:00	3	Temperatura mínima	16.1
129708	7	Sololá	704	Santa Lucía Utatlán 	7	Santa Rita 	11	Noviembre	2023-11-18T00:00:00	2024-11-08T08:00:00	5	Humedad	98
129709	7	Sololá	704	Santa Lucía Utatlán 	7	Santa Rita 	11	Noviembre	2023-11-18T00:00:00	2024-11-08T08:00:00	6	Velocidad del viento	0
129710	7	Sololá	704	Santa Lucía Utatlán 	7	Santa Rita 	11	Noviembre	2023-11-18T00:00:00	2024-11-08T08:00:00	7	Dirección del viento	0
129711	7	Sololá	704	Santa Lucía Utatlán 	7	Santa Rita 	11	Noviembre	2023-11-18T00:00:00	2024-11-08T08:00:00	1	Precipitación	0.2
129712	7	Sololá	704	Santa Lucía Utatlán 	7	Santa Rita 	11	Noviembre	2023-11-18T00:00:00	2024-11-08T08:00:00	8	Radiación solar	93
129713	7	Sololá	704	Santa Lucía Utatlán 	7	Santa Rita 	11	Noviembre	2023-11-18T00:00:00	2024-11-08T09:00:00	2	Temperatura media	17.6
129714	7	Sololá	704	Santa Lucía Utatlán 	7	Santa Rita 	11	Noviembre	2023-11-18T00:00:00	2024-11-08T09:00:00	4	Temperatura máxima	17.6
129715	7	Sololá	704	Santa Lucía Utatlán 	7	Santa Rita 	11	Noviembre	2023-11-18T00:00:00	2024-11-08T09:00:00	3	Temperatura mínima	16.7
129716	7	Sololá	704	Santa Lucía Utatlán 	7	Santa Rita 	11	Noviembre	2023-11-18T00:00:00	2024-11-08T09:00:00	5	Humedad	97
129717	7	Sololá	704	Santa Lucía Utatlán 	7	Santa Rita 	11	Noviembre	2023-11-18T00:00:00	2024-11-08T09:00:00	6	Velocidad del viento	1.6
129718	7	Sololá	704	Santa Lucía Utatlán 	7	Santa Rita 	11	Noviembre	2023-11-18T00:00:00	2024-11-08T09:00:00	7	Dirección del viento	1.61
129719	7	Sololá	704	Santa Lucía Utatlán 	7	Santa Rita 	11	Noviembre	2023-11-18T00:00:00	2024-11-08T09:00:00	1	Precipitación	0
129720	7	Sololá	704	Santa Lucía Utatlán 	7	Santa Rita 	11	Noviembre	2023-11-18T00:00:00	2024-11-08T09:00:00	8	Radiación solar	206
129721	7	Sololá	704	Santa Lucía Utatlán 	7	Santa Rita 	11	Noviembre	2023-11-18T00:00:00	2024-11-08T10:00:00	2	Temperatura media	21.6
129722	7	Sololá	704	Santa Lucía Utatlán 	7	Santa Rita 	11	Noviembre	2023-11-18T00:00:00	2024-11-08T10:00:00	4	Temperatura máxima	21.6
129723	7	Sololá	704	Santa Lucía Utatlán 	7	Santa Rita 	11	Noviembre	2023-11-18T00:00:00	2024-11-08T10:00:00	3	Temperatura mínima	17.6
129724	7	Sololá	704	Santa Lucía Utatlán 	7	Santa Rita 	11	Noviembre	2023-11-18T00:00:00	2024-11-08T10:00:00	5	Humedad	82
129725	7	Sololá	704	Santa Lucía Utatlán 	7	Santa Rita 	11	Noviembre	2023-11-18T00:00:00	2024-11-08T10:00:00	6	Velocidad del viento	3.2
129726	7	Sololá	704	Santa Lucía Utatlán 	7	Santa Rita 	11	Noviembre	2023-11-18T00:00:00	2024-11-08T10:00:00	7	Dirección del viento	3.22
129727	7	Sololá	704	Santa Lucía Utatlán 	7	Santa Rita 	11	Noviembre	2023-11-18T00:00:00	2024-11-08T10:00:00	1	Precipitación	0
129728	7	Sololá	704	Santa Lucía Utatlán 	7	Santa Rita 	11	Noviembre	2023-11-18T00:00:00	2024-11-08T10:00:00	8	Radiación solar	639
129729	7	Sololá	704	Santa Lucía Utatlán 	7	Santa Rita 	11	Noviembre	2023-11-18T00:00:00	2024-11-08T11:00:00	2	Temperatura media	23.6
129730	7	Sololá	704	Santa Lucía Utatlán 	7	Santa Rita 	11	Noviembre	2023-11-18T00:00:00	2024-11-08T11:00:00	4	Temperatura máxima	23.6
129731	7	Sololá	704	Santa Lucía Utatlán 	7	Santa Rita 	11	Noviembre	2023-11-18T00:00:00	2024-11-08T11:00:00	3	Temperatura mínima	21.6
129732	7	Sololá	704	Santa Lucía Utatlán 	7	Santa Rita 	11	Noviembre	2023-11-18T00:00:00	2024-11-08T11:00:00	5	Humedad	74
129733	7	Sololá	704	Santa Lucía Utatlán 	7	Santa Rita 	11	Noviembre	2023-11-18T00:00:00	2024-11-08T11:00:00	6	Velocidad del viento	4.8
129734	7	Sololá	704	Santa Lucía Utatlán 	7	Santa Rita 	11	Noviembre	2023-11-18T00:00:00	2024-11-08T11:00:00	7	Dirección del viento	4.83
129735	7	Sololá	704	Santa Lucía Utatlán 	7	Santa Rita 	11	Noviembre	2023-11-18T00:00:00	2024-11-08T11:00:00	1	Precipitación	0
129736	7	Sololá	704	Santa Lucía Utatlán 	7	Santa Rita 	11	Noviembre	2023-11-18T00:00:00	2024-11-08T11:00:00	8	Radiación solar	821
129737	7	Sololá	704	Santa Lucía Utatlán 	7	Santa Rita 	11	Noviembre	2023-11-18T00:00:00	2024-11-08T12:00:00	2	Temperatura media	22.9
129738	7	Sololá	704	Santa Lucía Utatlán 	7	Santa Rita 	11	Noviembre	2023-11-18T00:00:00	2024-11-08T12:00:00	4	Temperatura máxima	23.7
129739	7	Sololá	704	Santa Lucía Utatlán 	7	Santa Rita 	11	Noviembre	2023-11-18T00:00:00	2024-11-08T12:00:00	3	Temperatura mínima	22.8
129740	7	Sololá	704	Santa Lucía Utatlán 	7	Santa Rita 	11	Noviembre	2023-11-18T00:00:00	2024-11-08T12:00:00	5	Humedad	78
129741	7	Sololá	704	Santa Lucía Utatlán 	7	Santa Rita 	11	Noviembre	2023-11-18T00:00:00	2024-11-08T12:00:00	6	Velocidad del viento	6.4
129742	7	Sololá	704	Santa Lucía Utatlán 	7	Santa Rita 	11	Noviembre	2023-11-18T00:00:00	2024-11-08T12:00:00	7	Dirección del viento	6.44
129743	7	Sololá	704	Santa Lucía Utatlán 	7	Santa Rita 	11	Noviembre	2023-11-18T00:00:00	2024-11-08T12:00:00	1	Precipitación	0
129744	7	Sololá	704	Santa Lucía Utatlán 	7	Santa Rita 	11	Noviembre	2023-11-18T00:00:00	2024-11-08T12:00:00	8	Radiación solar	579
129745	7	Sololá	704	Santa Lucía Utatlán 	7	Santa Rita 	11	Noviembre	2023-11-18T00:00:00	2024-11-08T13:00:00	2	Temperatura media	22.9
129746	7	Sololá	704	Santa Lucía Utatlán 	7	Santa Rita 	11	Noviembre	2023-11-18T00:00:00	2024-11-08T13:00:00	4	Temperatura máxima	23.3
129747	7	Sololá	704	Santa Lucía Utatlán 	7	Santa Rita 	11	Noviembre	2023-11-18T00:00:00	2024-11-08T13:00:00	3	Temperatura mínima	22.7
129748	7	Sololá	704	Santa Lucía Utatlán 	7	Santa Rita 	11	Noviembre	2023-11-18T00:00:00	2024-11-08T13:00:00	5	Humedad	79
129749	7	Sololá	704	Santa Lucía Utatlán 	7	Santa Rita 	11	Noviembre	2023-11-18T00:00:00	2024-11-08T13:00:00	6	Velocidad del viento	4.8
129750	7	Sololá	704	Santa Lucía Utatlán 	7	Santa Rita 	11	Noviembre	2023-11-18T00:00:00	2024-11-08T13:00:00	7	Dirección del viento	4.83
129751	7	Sololá	704	Santa Lucía Utatlán 	7	Santa Rita 	11	Noviembre	2023-11-18T00:00:00	2024-11-08T13:00:00	1	Precipitación	0
129752	7	Sololá	704	Santa Lucía Utatlán 	7	Santa Rita 	11	Noviembre	2023-11-18T00:00:00	2024-11-08T13:00:00	8	Radiación solar	365
129753	7	Sololá	704	Santa Lucía Utatlán 	7	Santa Rita 	11	Noviembre	2023-11-18T00:00:00	2024-11-08T14:00:00	2	Temperatura media	23.6
129754	7	Sololá	704	Santa Lucía Utatlán 	7	Santa Rita 	11	Noviembre	2023-11-18T00:00:00	2024-11-08T14:00:00	4	Temperatura máxima	23.7
129755	7	Sololá	704	Santa Lucía Utatlán 	7	Santa Rita 	11	Noviembre	2023-11-18T00:00:00	2024-11-08T14:00:00	3	Temperatura mínima	22.9
129756	7	Sololá	704	Santa Lucía Utatlán 	7	Santa Rita 	11	Noviembre	2023-11-18T00:00:00	2024-11-08T14:00:00	5	Humedad	78
129757	7	Sololá	704	Santa Lucía Utatlán 	7	Santa Rita 	11	Noviembre	2023-11-18T00:00:00	2024-11-08T14:00:00	6	Velocidad del viento	6.4
129758	7	Sololá	704	Santa Lucía Utatlán 	7	Santa Rita 	11	Noviembre	2023-11-18T00:00:00	2024-11-08T14:00:00	7	Dirección del viento	6.44
129759	7	Sololá	704	Santa Lucía Utatlán 	7	Santa Rita 	11	Noviembre	2023-11-18T00:00:00	2024-11-08T14:00:00	1	Precipitación	0
129760	7	Sololá	704	Santa Lucía Utatlán 	7	Santa Rita 	11	Noviembre	2023-11-18T00:00:00	2024-11-08T14:00:00	8	Radiación solar	540
129761	7	Sololá	704	Santa Lucía Utatlán 	7	Santa Rita 	11	Noviembre	2023-11-18T00:00:00	2024-11-08T15:00:00	2	Temperatura media	22.5
129762	7	Sololá	704	Santa Lucía Utatlán 	7	Santa Rita 	11	Noviembre	2023-11-18T00:00:00	2024-11-08T15:00:00	4	Temperatura máxima	23.6
129763	7	Sololá	704	Santa Lucía Utatlán 	7	Santa Rita 	11	Noviembre	2023-11-18T00:00:00	2024-11-08T15:00:00	3	Temperatura mínima	22.2
129764	7	Sololá	704	Santa Lucía Utatlán 	7	Santa Rita 	11	Noviembre	2023-11-18T00:00:00	2024-11-08T15:00:00	5	Humedad	82
129765	7	Sololá	704	Santa Lucía Utatlán 	7	Santa Rita 	11	Noviembre	2023-11-18T00:00:00	2024-11-08T15:00:00	6	Velocidad del viento	3.2
129766	7	Sololá	704	Santa Lucía Utatlán 	7	Santa Rita 	11	Noviembre	2023-11-18T00:00:00	2024-11-08T15:00:00	7	Dirección del viento	3.22
129767	7	Sololá	704	Santa Lucía Utatlán 	7	Santa Rita 	11	Noviembre	2023-11-18T00:00:00	2024-11-08T15:00:00	1	Precipitación	0
129768	7	Sololá	704	Santa Lucía Utatlán 	7	Santa Rita 	11	Noviembre	2023-11-18T00:00:00	2024-11-08T15:00:00	8	Radiación solar	144
129769	7	Sololá	704	Santa Lucía Utatlán 	7	Santa Rita 	11	Noviembre	2023-11-18T00:00:00	2024-11-08T16:00:00	2	Temperatura media	21.9
129770	7	Sololá	704	Santa Lucía Utatlán 	7	Santa Rita 	11	Noviembre	2023-11-18T00:00:00	2024-11-08T16:00:00	4	Temperatura máxima	22.7
129771	7	Sololá	704	Santa Lucía Utatlán 	7	Santa Rita 	11	Noviembre	2023-11-18T00:00:00	2024-11-08T16:00:00	3	Temperatura mínima	21.9
129772	7	Sololá	704	Santa Lucía Utatlán 	7	Santa Rita 	11	Noviembre	2023-11-18T00:00:00	2024-11-08T16:00:00	5	Humedad	85
129773	7	Sololá	704	Santa Lucía Utatlán 	7	Santa Rita 	11	Noviembre	2023-11-18T00:00:00	2024-11-08T16:00:00	6	Velocidad del viento	4.8
129774	7	Sololá	704	Santa Lucía Utatlán 	7	Santa Rita 	11	Noviembre	2023-11-18T00:00:00	2024-11-08T16:00:00	7	Dirección del viento	4.83
129775	7	Sololá	704	Santa Lucía Utatlán 	7	Santa Rita 	11	Noviembre	2023-11-18T00:00:00	2024-11-08T16:00:00	1	Precipitación	0
129776	7	Sololá	704	Santa Lucía Utatlán 	7	Santa Rita 	11	Noviembre	2023-11-18T00:00:00	2024-11-08T16:00:00	8	Radiación solar	217
129777	7	Sololá	704	Santa Lucía Utatlán 	7	Santa Rita 	11	Noviembre	2023-11-18T00:00:00	2024-11-08T17:00:00	2	Temperatura media	20.5
129778	7	Sololá	704	Santa Lucía Utatlán 	7	Santa Rita 	11	Noviembre	2023-11-18T00:00:00	2024-11-08T17:00:00	4	Temperatura máxima	21.9
129779	7	Sololá	704	Santa Lucía Utatlán 	7	Santa Rita 	11	Noviembre	2023-11-18T00:00:00	2024-11-08T17:00:00	3	Temperatura mínima	20.5
129780	7	Sololá	704	Santa Lucía Utatlán 	7	Santa Rita 	11	Noviembre	2023-11-18T00:00:00	2024-11-08T17:00:00	5	Humedad	90
129781	7	Sololá	704	Santa Lucía Utatlán 	7	Santa Rita 	11	Noviembre	2023-11-18T00:00:00	2024-11-08T17:00:00	6	Velocidad del viento	4.8
129782	7	Sololá	704	Santa Lucía Utatlán 	7	Santa Rita 	11	Noviembre	2023-11-18T00:00:00	2024-11-08T17:00:00	7	Dirección del viento	4.83
129783	7	Sololá	704	Santa Lucía Utatlán 	7	Santa Rita 	11	Noviembre	2023-11-18T00:00:00	2024-11-08T17:00:00	1	Precipitación	0
129784	7	Sololá	704	Santa Lucía Utatlán 	7	Santa Rita 	11	Noviembre	2023-11-18T00:00:00	2024-11-08T17:00:00	8	Radiación solar	70
129785	7	Sololá	704	Santa Lucía Utatlán 	7	Santa Rita 	11	Noviembre	2023-11-18T00:00:00	2024-11-08T18:00:00	2	Temperatura media	20
129786	7	Sololá	704	Santa Lucía Utatlán 	7	Santa Rita 	11	Noviembre	2023-11-18T00:00:00	2024-11-08T18:00:00	4	Temperatura máxima	20.6
129787	7	Sololá	704	Santa Lucía Utatlán 	7	Santa Rita 	11	Noviembre	2023-11-18T00:00:00	2024-11-08T18:00:00	3	Temperatura mínima	20
129788	7	Sololá	704	Santa Lucía Utatlán 	7	Santa Rita 	11	Noviembre	2023-11-18T00:00:00	2024-11-08T18:00:00	5	Humedad	92
129789	7	Sololá	704	Santa Lucía Utatlán 	7	Santa Rita 	11	Noviembre	2023-11-18T00:00:00	2024-11-08T18:00:00	6	Velocidad del viento	1.6
129790	7	Sololá	704	Santa Lucía Utatlán 	7	Santa Rita 	11	Noviembre	2023-11-18T00:00:00	2024-11-08T18:00:00	7	Dirección del viento	1.61
129791	7	Sololá	704	Santa Lucía Utatlán 	7	Santa Rita 	11	Noviembre	2023-11-18T00:00:00	2024-11-08T18:00:00	1	Precipitación	0
129792	7	Sololá	704	Santa Lucía Utatlán 	7	Santa Rita 	11	Noviembre	2023-11-18T00:00:00	2024-11-08T18:00:00	8	Radiación solar	5
129793	7	Sololá	704	Santa Lucía Utatlán 	7	Santa Rita 	11	Noviembre	2023-11-18T00:00:00	2024-11-08T19:00:00	2	Temperatura media	19.4
129794	7	Sololá	704	Santa Lucía Utatlán 	7	Santa Rita 	11	Noviembre	2023-11-18T00:00:00	2024-11-08T19:00:00	4	Temperatura máxima	20
129795	7	Sololá	704	Santa Lucía Utatlán 	7	Santa Rita 	11	Noviembre	2023-11-18T00:00:00	2024-11-08T19:00:00	3	Temperatura mínima	19.4
129796	7	Sololá	704	Santa Lucía Utatlán 	7	Santa Rita 	11	Noviembre	2023-11-18T00:00:00	2024-11-08T19:00:00	5	Humedad	92
129797	7	Sololá	704	Santa Lucía Utatlán 	7	Santa Rita 	11	Noviembre	2023-11-18T00:00:00	2024-11-08T19:00:00	6	Velocidad del viento	0
129798	7	Sololá	704	Santa Lucía Utatlán 	7	Santa Rita 	11	Noviembre	2023-11-18T00:00:00	2024-11-08T19:00:00	7	Dirección del viento	0
129799	7	Sololá	704	Santa Lucía Utatlán 	7	Santa Rita 	11	Noviembre	2023-11-18T00:00:00	2024-11-08T19:00:00	1	Precipitación	0
129800	7	Sololá	704	Santa Lucía Utatlán 	7	Santa Rita 	11	Noviembre	2023-11-18T00:00:00	2024-11-08T19:00:00	8	Radiación solar	0
129801	7	Sololá	704	Santa Lucía Utatlán 	7	Santa Rita 	11	Noviembre	2023-11-18T00:00:00	2024-11-08T20:00:00	2	Temperatura media	17.2
129802	7	Sololá	704	Santa Lucía Utatlán 	7	Santa Rita 	11	Noviembre	2023-11-18T00:00:00	2024-11-08T20:00:00	4	Temperatura máxima	19.4
129803	7	Sololá	704	Santa Lucía Utatlán 	7	Santa Rita 	11	Noviembre	2023-11-18T00:00:00	2024-11-08T20:00:00	3	Temperatura mínima	17.2
129804	7	Sololá	704	Santa Lucía Utatlán 	7	Santa Rita 	11	Noviembre	2023-11-18T00:00:00	2024-11-08T20:00:00	5	Humedad	91
129805	7	Sololá	704	Santa Lucía Utatlán 	7	Santa Rita 	11	Noviembre	2023-11-18T00:00:00	2024-11-08T20:00:00	6	Velocidad del viento	1.6
129806	7	Sololá	704	Santa Lucía Utatlán 	7	Santa Rita 	11	Noviembre	2023-11-18T00:00:00	2024-11-08T20:00:00	7	Dirección del viento	1.61
129807	7	Sololá	704	Santa Lucía Utatlán 	7	Santa Rita 	11	Noviembre	2023-11-18T00:00:00	2024-11-08T20:00:00	1	Precipitación	0
129808	7	Sololá	704	Santa Lucía Utatlán 	7	Santa Rita 	11	Noviembre	2023-11-18T00:00:00	2024-11-08T20:00:00	8	Radiación solar	0
129809	7	Sololá	704	Santa Lucía Utatlán 	7	Santa Rita 	11	Noviembre	2023-11-18T00:00:00	2024-11-08T21:00:00	2	Temperatura media	17.2
129810	7	Sololá	704	Santa Lucía Utatlán 	7	Santa Rita 	11	Noviembre	2023-11-18T00:00:00	2024-11-08T21:00:00	4	Temperatura máxima	17.3
129811	7	Sololá	704	Santa Lucía Utatlán 	7	Santa Rita 	11	Noviembre	2023-11-18T00:00:00	2024-11-08T21:00:00	3	Temperatura mínima	16.9
129812	7	Sololá	704	Santa Lucía Utatlán 	7	Santa Rita 	11	Noviembre	2023-11-18T00:00:00	2024-11-08T21:00:00	5	Humedad	94
129813	7	Sololá	704	Santa Lucía Utatlán 	7	Santa Rita 	11	Noviembre	2023-11-18T00:00:00	2024-11-08T21:00:00	6	Velocidad del viento	3.2
129814	7	Sololá	704	Santa Lucía Utatlán 	7	Santa Rita 	11	Noviembre	2023-11-18T00:00:00	2024-11-08T21:00:00	7	Dirección del viento	3.22
129815	7	Sololá	704	Santa Lucía Utatlán 	7	Santa Rita 	11	Noviembre	2023-11-18T00:00:00	2024-11-08T21:00:00	1	Precipitación	0
129816	7	Sololá	704	Santa Lucía Utatlán 	7	Santa Rita 	11	Noviembre	2023-11-18T00:00:00	2024-11-08T21:00:00	8	Radiación solar	0
129817	7	Sololá	704	Santa Lucía Utatlán 	7	Santa Rita 	11	Noviembre	2023-11-18T00:00:00	2024-11-08T22:00:00	2	Temperatura media	16.1
129818	7	Sololá	704	Santa Lucía Utatlán 	7	Santa Rita 	11	Noviembre	2023-11-18T00:00:00	2024-11-08T22:00:00	4	Temperatura máxima	17.2
129819	7	Sololá	704	Santa Lucía Utatlán 	7	Santa Rita 	11	Noviembre	2023-11-18T00:00:00	2024-11-08T22:00:00	3	Temperatura mínima	16.1
129820	7	Sololá	704	Santa Lucía Utatlán 	7	Santa Rita 	11	Noviembre	2023-11-18T00:00:00	2024-11-08T22:00:00	5	Humedad	93
129821	7	Sololá	704	Santa Lucía Utatlán 	7	Santa Rita 	11	Noviembre	2023-11-18T00:00:00	2024-11-08T22:00:00	6	Velocidad del viento	3.2
129822	7	Sololá	704	Santa Lucía Utatlán 	7	Santa Rita 	11	Noviembre	2023-11-18T00:00:00	2024-11-08T22:00:00	7	Dirección del viento	3.22
129823	7	Sololá	704	Santa Lucía Utatlán 	7	Santa Rita 	11	Noviembre	2023-11-18T00:00:00	2024-11-08T22:00:00	1	Precipitación	0
129824	7	Sololá	704	Santa Lucía Utatlán 	7	Santa Rita 	11	Noviembre	2023-11-18T00:00:00	2024-11-08T22:00:00	8	Radiación solar	0
129825	7	Sololá	704	Santa Lucía Utatlán 	7	Santa Rita 	11	Noviembre	2023-11-18T00:00:00	2024-11-08T23:00:00	2	Temperatura media	14.8
129826	7	Sololá	704	Santa Lucía Utatlán 	7	Santa Rita 	11	Noviembre	2023-11-18T00:00:00	2024-11-08T23:00:00	4	Temperatura máxima	16.1
129827	7	Sololá	704	Santa Lucía Utatlán 	7	Santa Rita 	11	Noviembre	2023-11-18T00:00:00	2024-11-08T23:00:00	3	Temperatura mínima	14.7
129828	7	Sololá	704	Santa Lucía Utatlán 	7	Santa Rita 	11	Noviembre	2023-11-18T00:00:00	2024-11-08T23:00:00	5	Humedad	91
129829	7	Sololá	704	Santa Lucía Utatlán 	7	Santa Rita 	11	Noviembre	2023-11-18T00:00:00	2024-11-08T23:00:00	6	Velocidad del viento	1.6
129830	7	Sololá	704	Santa Lucía Utatlán 	7	Santa Rita 	11	Noviembre	2023-11-18T00:00:00	2024-11-08T23:00:00	7	Dirección del viento	1.61
129831	7	Sololá	704	Santa Lucía Utatlán 	7	Santa Rita 	11	Noviembre	2023-11-18T00:00:00	2024-11-08T23:00:00	1	Precipitación	0
129832	7	Sololá	704	Santa Lucía Utatlán 	7	Santa Rita 	11	Noviembre	2023-11-18T00:00:00	2024-11-08T23:00:00	8	Radiación solar	0
129833	7	Sololá	704	Santa Lucía Utatlán 	7	Santa Rita 	11	Noviembre	2023-11-19T00:00:00	2024-11-08T00:00:00	2	Temperatura media	14.2
129834	7	Sololá	704	Santa Lucía Utatlán 	7	Santa Rita 	11	Noviembre	2023-11-19T00:00:00	2024-11-08T00:00:00	4	Temperatura máxima	14.8
129835	7	Sololá	704	Santa Lucía Utatlán 	7	Santa Rita 	11	Noviembre	2023-11-19T00:00:00	2024-11-08T00:00:00	3	Temperatura mínima	14.1
129836	7	Sololá	704	Santa Lucía Utatlán 	7	Santa Rita 	11	Noviembre	2023-11-19T00:00:00	2024-11-08T00:00:00	5	Humedad	80
129837	7	Sololá	704	Santa Lucía Utatlán 	7	Santa Rita 	11	Noviembre	2023-11-19T00:00:00	2024-11-08T00:00:00	6	Velocidad del viento	6.4
129838	7	Sololá	704	Santa Lucía Utatlán 	7	Santa Rita 	11	Noviembre	2023-11-19T00:00:00	2024-11-08T00:00:00	7	Dirección del viento	6.44
129839	7	Sololá	704	Santa Lucía Utatlán 	7	Santa Rita 	11	Noviembre	2023-11-19T00:00:00	2024-11-08T00:00:00	1	Precipitación	0
129840	7	Sololá	704	Santa Lucía Utatlán 	7	Santa Rita 	11	Noviembre	2023-11-19T00:00:00	2024-11-08T00:00:00	8	Radiación solar	0
129841	7	Sololá	704	Santa Lucía Utatlán 	7	Santa Rita 	11	Noviembre	2023-11-19T00:00:00	2024-11-08T01:00:00	2	Temperatura media	14.7
129842	7	Sololá	704	Santa Lucía Utatlán 	7	Santa Rita 	11	Noviembre	2023-11-19T00:00:00	2024-11-08T01:00:00	4	Temperatura máxima	14.8
129843	7	Sololá	704	Santa Lucía Utatlán 	7	Santa Rita 	11	Noviembre	2023-11-19T00:00:00	2024-11-08T01:00:00	3	Temperatura mínima	14.1
129844	7	Sololá	704	Santa Lucía Utatlán 	7	Santa Rita 	11	Noviembre	2023-11-19T00:00:00	2024-11-08T01:00:00	5	Humedad	90
129845	7	Sololá	704	Santa Lucía Utatlán 	7	Santa Rita 	11	Noviembre	2023-11-19T00:00:00	2024-11-08T01:00:00	6	Velocidad del viento	3.2
129846	7	Sololá	704	Santa Lucía Utatlán 	7	Santa Rita 	11	Noviembre	2023-11-19T00:00:00	2024-11-08T01:00:00	7	Dirección del viento	3.22
129847	7	Sololá	704	Santa Lucía Utatlán 	7	Santa Rita 	11	Noviembre	2023-11-19T00:00:00	2024-11-08T01:00:00	1	Precipitación	0
129848	7	Sololá	704	Santa Lucía Utatlán 	7	Santa Rita 	11	Noviembre	2023-11-19T00:00:00	2024-11-08T01:00:00	8	Radiación solar	0
129849	7	Sololá	704	Santa Lucía Utatlán 	7	Santa Rita 	11	Noviembre	2023-11-19T00:00:00	2024-11-08T02:00:00	2	Temperatura media	14.9
129850	7	Sololá	704	Santa Lucía Utatlán 	7	Santa Rita 	11	Noviembre	2023-11-19T00:00:00	2024-11-08T02:00:00	4	Temperatura máxima	14.9
129851	7	Sololá	704	Santa Lucía Utatlán 	7	Santa Rita 	11	Noviembre	2023-11-19T00:00:00	2024-11-08T02:00:00	3	Temperatura mínima	14.6
129852	7	Sololá	704	Santa Lucía Utatlán 	7	Santa Rita 	11	Noviembre	2023-11-19T00:00:00	2024-11-08T02:00:00	5	Humedad	83
129853	7	Sololá	704	Santa Lucía Utatlán 	7	Santa Rita 	11	Noviembre	2023-11-19T00:00:00	2024-11-08T02:00:00	6	Velocidad del viento	4.8
129854	7	Sololá	704	Santa Lucía Utatlán 	7	Santa Rita 	11	Noviembre	2023-11-19T00:00:00	2024-11-08T02:00:00	7	Dirección del viento	4.83
129855	7	Sololá	704	Santa Lucía Utatlán 	7	Santa Rita 	11	Noviembre	2023-11-19T00:00:00	2024-11-08T02:00:00	1	Precipitación	0
129856	7	Sololá	704	Santa Lucía Utatlán 	7	Santa Rita 	11	Noviembre	2023-11-19T00:00:00	2024-11-08T02:00:00	8	Radiación solar	0
129857	7	Sololá	704	Santa Lucía Utatlán 	7	Santa Rita 	11	Noviembre	2023-11-19T00:00:00	2024-11-08T03:00:00	2	Temperatura media	15
129858	7	Sololá	704	Santa Lucía Utatlán 	7	Santa Rita 	11	Noviembre	2023-11-19T00:00:00	2024-11-08T03:00:00	4	Temperatura máxima	15.2
129859	7	Sololá	704	Santa Lucía Utatlán 	7	Santa Rita 	11	Noviembre	2023-11-19T00:00:00	2024-11-08T03:00:00	3	Temperatura mínima	14.7
129860	7	Sololá	704	Santa Lucía Utatlán 	7	Santa Rita 	11	Noviembre	2023-11-19T00:00:00	2024-11-08T03:00:00	5	Humedad	82
129861	7	Sololá	704	Santa Lucía Utatlán 	7	Santa Rita 	11	Noviembre	2023-11-19T00:00:00	2024-11-08T03:00:00	6	Velocidad del viento	6.4
129862	7	Sololá	704	Santa Lucía Utatlán 	7	Santa Rita 	11	Noviembre	2023-11-19T00:00:00	2024-11-08T03:00:00	7	Dirección del viento	6.44
129863	7	Sololá	704	Santa Lucía Utatlán 	7	Santa Rita 	11	Noviembre	2023-11-19T00:00:00	2024-11-08T03:00:00	1	Precipitación	0
129864	7	Sololá	704	Santa Lucía Utatlán 	7	Santa Rita 	11	Noviembre	2023-11-19T00:00:00	2024-11-08T03:00:00	8	Radiación solar	0
129865	7	Sololá	704	Santa Lucía Utatlán 	7	Santa Rita 	11	Noviembre	2023-11-19T00:00:00	2024-11-08T04:00:00	2	Temperatura media	14.3
129866	7	Sololá	704	Santa Lucía Utatlán 	7	Santa Rita 	11	Noviembre	2023-11-19T00:00:00	2024-11-08T04:00:00	4	Temperatura máxima	15
129867	7	Sololá	704	Santa Lucía Utatlán 	7	Santa Rita 	11	Noviembre	2023-11-19T00:00:00	2024-11-08T04:00:00	3	Temperatura mínima	14
129868	7	Sololá	704	Santa Lucía Utatlán 	7	Santa Rita 	11	Noviembre	2023-11-19T00:00:00	2024-11-08T04:00:00	5	Humedad	74
129869	7	Sololá	704	Santa Lucía Utatlán 	7	Santa Rita 	11	Noviembre	2023-11-19T00:00:00	2024-11-08T04:00:00	6	Velocidad del viento	4.8
129870	7	Sololá	704	Santa Lucía Utatlán 	7	Santa Rita 	11	Noviembre	2023-11-19T00:00:00	2024-11-08T04:00:00	7	Dirección del viento	4.83
129871	7	Sololá	704	Santa Lucía Utatlán 	7	Santa Rita 	11	Noviembre	2023-11-19T00:00:00	2024-11-08T04:00:00	1	Precipitación	0
129872	7	Sololá	704	Santa Lucía Utatlán 	7	Santa Rita 	11	Noviembre	2023-11-19T00:00:00	2024-11-08T04:00:00	8	Radiación solar	0
129873	7	Sololá	704	Santa Lucía Utatlán 	7	Santa Rita 	11	Noviembre	2023-11-19T00:00:00	2024-11-08T05:00:00	2	Temperatura media	14.4
129874	7	Sololá	704	Santa Lucía Utatlán 	7	Santa Rita 	11	Noviembre	2023-11-19T00:00:00	2024-11-08T05:00:00	4	Temperatura máxima	14.6
129875	7	Sololá	704	Santa Lucía Utatlán 	7	Santa Rita 	11	Noviembre	2023-11-19T00:00:00	2024-11-08T05:00:00	3	Temperatura mínima	13.9
129876	7	Sololá	704	Santa Lucía Utatlán 	7	Santa Rita 	11	Noviembre	2023-11-19T00:00:00	2024-11-08T05:00:00	5	Humedad	73
129877	7	Sololá	704	Santa Lucía Utatlán 	7	Santa Rita 	11	Noviembre	2023-11-19T00:00:00	2024-11-08T05:00:00	6	Velocidad del viento	6.4
129878	7	Sololá	704	Santa Lucía Utatlán 	7	Santa Rita 	11	Noviembre	2023-11-19T00:00:00	2024-11-08T05:00:00	7	Dirección del viento	6.44
129879	7	Sololá	704	Santa Lucía Utatlán 	7	Santa Rita 	11	Noviembre	2023-11-19T00:00:00	2024-11-08T05:00:00	1	Precipitación	0
129880	7	Sololá	704	Santa Lucía Utatlán 	7	Santa Rita 	11	Noviembre	2023-11-19T00:00:00	2024-11-08T05:00:00	8	Radiación solar	0
129881	7	Sololá	704	Santa Lucía Utatlán 	7	Santa Rita 	11	Noviembre	2023-11-19T00:00:00	2024-11-08T06:00:00	2	Temperatura media	14
129882	7	Sololá	704	Santa Lucía Utatlán 	7	Santa Rita 	11	Noviembre	2023-11-19T00:00:00	2024-11-08T06:00:00	4	Temperatura máxima	14.4
129883	7	Sololá	704	Santa Lucía Utatlán 	7	Santa Rita 	11	Noviembre	2023-11-19T00:00:00	2024-11-08T06:00:00	3	Temperatura mínima	13.9
129884	7	Sololá	704	Santa Lucía Utatlán 	7	Santa Rita 	11	Noviembre	2023-11-19T00:00:00	2024-11-08T06:00:00	5	Humedad	62
129885	7	Sololá	704	Santa Lucía Utatlán 	7	Santa Rita 	11	Noviembre	2023-11-19T00:00:00	2024-11-08T06:00:00	6	Velocidad del viento	8
129886	7	Sololá	704	Santa Lucía Utatlán 	7	Santa Rita 	11	Noviembre	2023-11-19T00:00:00	2024-11-08T06:00:00	7	Dirección del viento	8.05
129887	7	Sololá	704	Santa Lucía Utatlán 	7	Santa Rita 	11	Noviembre	2023-11-19T00:00:00	2024-11-08T06:00:00	1	Precipitación	0
129888	7	Sololá	704	Santa Lucía Utatlán 	7	Santa Rita 	11	Noviembre	2023-11-19T00:00:00	2024-11-08T06:00:00	8	Radiación solar	0
129889	7	Sololá	704	Santa Lucía Utatlán 	7	Santa Rita 	11	Noviembre	2023-11-19T00:00:00	2024-11-08T07:00:00	2	Temperatura media	16.3
129890	7	Sololá	704	Santa Lucía Utatlán 	7	Santa Rita 	11	Noviembre	2023-11-19T00:00:00	2024-11-08T07:00:00	4	Temperatura máxima	16.3
129891	7	Sololá	704	Santa Lucía Utatlán 	7	Santa Rita 	11	Noviembre	2023-11-19T00:00:00	2024-11-08T07:00:00	3	Temperatura mínima	13.8
129892	7	Sololá	704	Santa Lucía Utatlán 	7	Santa Rita 	11	Noviembre	2023-11-19T00:00:00	2024-11-08T07:00:00	5	Humedad	55
129893	7	Sololá	704	Santa Lucía Utatlán 	7	Santa Rita 	11	Noviembre	2023-11-19T00:00:00	2024-11-08T07:00:00	6	Velocidad del viento	4.8
129894	7	Sololá	704	Santa Lucía Utatlán 	7	Santa Rita 	11	Noviembre	2023-11-19T00:00:00	2024-11-08T07:00:00	7	Dirección del viento	4.83
129895	7	Sololá	704	Santa Lucía Utatlán 	7	Santa Rita 	11	Noviembre	2023-11-19T00:00:00	2024-11-08T07:00:00	1	Precipitación	0
129896	7	Sololá	704	Santa Lucía Utatlán 	7	Santa Rita 	11	Noviembre	2023-11-19T00:00:00	2024-11-08T07:00:00	8	Radiación solar	38
129897	7	Sololá	704	Santa Lucía Utatlán 	7	Santa Rita 	11	Noviembre	2023-11-19T00:00:00	2024-11-08T08:00:00	2	Temperatura media	20.1
129898	7	Sololá	704	Santa Lucía Utatlán 	7	Santa Rita 	11	Noviembre	2023-11-19T00:00:00	2024-11-08T08:00:00	4	Temperatura máxima	20.1
129899	7	Sololá	704	Santa Lucía Utatlán 	7	Santa Rita 	11	Noviembre	2023-11-19T00:00:00	2024-11-08T08:00:00	3	Temperatura mínima	16.3
129900	7	Sololá	704	Santa Lucía Utatlán 	7	Santa Rita 	11	Noviembre	2023-11-19T00:00:00	2024-11-08T08:00:00	5	Humedad	57
129901	7	Sololá	704	Santa Lucía Utatlán 	7	Santa Rita 	11	Noviembre	2023-11-19T00:00:00	2024-11-08T08:00:00	6	Velocidad del viento	1.6
129902	7	Sololá	704	Santa Lucía Utatlán 	7	Santa Rita 	11	Noviembre	2023-11-19T00:00:00	2024-11-08T08:00:00	7	Dirección del viento	1.61
129903	7	Sololá	704	Santa Lucía Utatlán 	7	Santa Rita 	11	Noviembre	2023-11-19T00:00:00	2024-11-08T08:00:00	1	Precipitación	0
129904	7	Sololá	704	Santa Lucía Utatlán 	7	Santa Rita 	11	Noviembre	2023-11-19T00:00:00	2024-11-08T08:00:00	8	Radiación solar	271
129905	7	Sololá	704	Santa Lucía Utatlán 	7	Santa Rita 	11	Noviembre	2023-11-19T00:00:00	2024-11-08T09:00:00	2	Temperatura media	22.1
129906	7	Sololá	704	Santa Lucía Utatlán 	7	Santa Rita 	11	Noviembre	2023-11-19T00:00:00	2024-11-08T09:00:00	4	Temperatura máxima	22.1
129907	7	Sololá	704	Santa Lucía Utatlán 	7	Santa Rita 	11	Noviembre	2023-11-19T00:00:00	2024-11-08T09:00:00	3	Temperatura mínima	20.2
129908	7	Sololá	704	Santa Lucía Utatlán 	7	Santa Rita 	11	Noviembre	2023-11-19T00:00:00	2024-11-08T09:00:00	5	Humedad	66
129909	7	Sololá	704	Santa Lucía Utatlán 	7	Santa Rita 	11	Noviembre	2023-11-19T00:00:00	2024-11-08T09:00:00	6	Velocidad del viento	3.2
129910	7	Sololá	704	Santa Lucía Utatlán 	7	Santa Rita 	11	Noviembre	2023-11-19T00:00:00	2024-11-08T09:00:00	7	Dirección del viento	3.22
129911	7	Sololá	704	Santa Lucía Utatlán 	7	Santa Rita 	11	Noviembre	2023-11-19T00:00:00	2024-11-08T09:00:00	1	Precipitación	0
129912	7	Sololá	704	Santa Lucía Utatlán 	7	Santa Rita 	11	Noviembre	2023-11-19T00:00:00	2024-11-08T09:00:00	8	Radiación solar	499
129913	7	Sololá	704	Santa Lucía Utatlán 	7	Santa Rita 	11	Noviembre	2023-11-19T00:00:00	2024-11-08T10:00:00	2	Temperatura media	23.6
129914	7	Sololá	704	Santa Lucía Utatlán 	7	Santa Rita 	11	Noviembre	2023-11-19T00:00:00	2024-11-08T10:00:00	4	Temperatura máxima	23.7
129915	7	Sololá	704	Santa Lucía Utatlán 	7	Santa Rita 	11	Noviembre	2023-11-19T00:00:00	2024-11-08T10:00:00	3	Temperatura mínima	22.1
129916	7	Sololá	704	Santa Lucía Utatlán 	7	Santa Rita 	11	Noviembre	2023-11-19T00:00:00	2024-11-08T10:00:00	5	Humedad	64
129917	7	Sololá	704	Santa Lucía Utatlán 	7	Santa Rita 	11	Noviembre	2023-11-19T00:00:00	2024-11-08T10:00:00	6	Velocidad del viento	4.8
129918	7	Sololá	704	Santa Lucía Utatlán 	7	Santa Rita 	11	Noviembre	2023-11-19T00:00:00	2024-11-08T10:00:00	7	Dirección del viento	4.83
129919	7	Sololá	704	Santa Lucía Utatlán 	7	Santa Rita 	11	Noviembre	2023-11-19T00:00:00	2024-11-08T10:00:00	1	Precipitación	0
129920	7	Sololá	704	Santa Lucía Utatlán 	7	Santa Rita 	11	Noviembre	2023-11-19T00:00:00	2024-11-08T10:00:00	8	Radiación solar	675
129921	7	Sololá	704	Santa Lucía Utatlán 	7	Santa Rita 	11	Noviembre	2023-11-19T00:00:00	2024-11-08T11:00:00	2	Temperatura media	24.2
129922	7	Sololá	704	Santa Lucía Utatlán 	7	Santa Rita 	11	Noviembre	2023-11-19T00:00:00	2024-11-08T11:00:00	4	Temperatura máxima	24.4
129923	7	Sololá	704	Santa Lucía Utatlán 	7	Santa Rita 	11	Noviembre	2023-11-19T00:00:00	2024-11-08T11:00:00	3	Temperatura mínima	23.6
129924	7	Sololá	704	Santa Lucía Utatlán 	7	Santa Rita 	11	Noviembre	2023-11-19T00:00:00	2024-11-08T11:00:00	5	Humedad	71
129925	7	Sololá	704	Santa Lucía Utatlán 	7	Santa Rita 	11	Noviembre	2023-11-19T00:00:00	2024-11-08T11:00:00	6	Velocidad del viento	6.4
129926	7	Sololá	704	Santa Lucía Utatlán 	7	Santa Rita 	11	Noviembre	2023-11-19T00:00:00	2024-11-08T11:00:00	7	Dirección del viento	6.44
129927	7	Sololá	704	Santa Lucía Utatlán 	7	Santa Rita 	11	Noviembre	2023-11-19T00:00:00	2024-11-08T11:00:00	1	Precipitación	0
129928	7	Sololá	704	Santa Lucía Utatlán 	7	Santa Rita 	11	Noviembre	2023-11-19T00:00:00	2024-11-08T11:00:00	8	Radiación solar	788
129929	7	Sololá	704	Santa Lucía Utatlán 	7	Santa Rita 	11	Noviembre	2023-11-19T00:00:00	2024-11-08T12:00:00	2	Temperatura media	24.8
129930	7	Sololá	704	Santa Lucía Utatlán 	7	Santa Rita 	11	Noviembre	2023-11-19T00:00:00	2024-11-08T12:00:00	4	Temperatura máxima	24.8
129931	7	Sololá	704	Santa Lucía Utatlán 	7	Santa Rita 	11	Noviembre	2023-11-19T00:00:00	2024-11-08T12:00:00	3	Temperatura mínima	23.8
129932	7	Sololá	704	Santa Lucía Utatlán 	7	Santa Rita 	11	Noviembre	2023-11-19T00:00:00	2024-11-08T12:00:00	5	Humedad	69
129933	7	Sololá	704	Santa Lucía Utatlán 	7	Santa Rita 	11	Noviembre	2023-11-19T00:00:00	2024-11-08T12:00:00	6	Velocidad del viento	6.4
129934	7	Sololá	704	Santa Lucía Utatlán 	7	Santa Rita 	11	Noviembre	2023-11-19T00:00:00	2024-11-08T12:00:00	7	Dirección del viento	6.44
129935	7	Sololá	704	Santa Lucía Utatlán 	7	Santa Rita 	11	Noviembre	2023-11-19T00:00:00	2024-11-08T12:00:00	1	Precipitación	0
129936	7	Sololá	704	Santa Lucía Utatlán 	7	Santa Rita 	11	Noviembre	2023-11-19T00:00:00	2024-11-08T12:00:00	8	Radiación solar	862
129937	7	Sololá	704	Santa Lucía Utatlán 	7	Santa Rita 	11	Noviembre	2023-11-19T00:00:00	2024-11-08T13:00:00	2	Temperatura media	22.6
129938	7	Sololá	704	Santa Lucía Utatlán 	7	Santa Rita 	11	Noviembre	2023-11-19T00:00:00	2024-11-08T13:00:00	4	Temperatura máxima	24.8
129939	7	Sololá	704	Santa Lucía Utatlán 	7	Santa Rita 	11	Noviembre	2023-11-19T00:00:00	2024-11-08T13:00:00	3	Temperatura mínima	22.6
129940	7	Sololá	704	Santa Lucía Utatlán 	7	Santa Rita 	11	Noviembre	2023-11-19T00:00:00	2024-11-08T13:00:00	5	Humedad	79
129941	7	Sololá	704	Santa Lucía Utatlán 	7	Santa Rita 	11	Noviembre	2023-11-19T00:00:00	2024-11-08T13:00:00	6	Velocidad del viento	8
129942	7	Sololá	704	Santa Lucía Utatlán 	7	Santa Rita 	11	Noviembre	2023-11-19T00:00:00	2024-11-08T13:00:00	7	Dirección del viento	8.05
129943	7	Sololá	704	Santa Lucía Utatlán 	7	Santa Rita 	11	Noviembre	2023-11-19T00:00:00	2024-11-08T13:00:00	1	Precipitación	0
129944	7	Sololá	704	Santa Lucía Utatlán 	7	Santa Rita 	11	Noviembre	2023-11-19T00:00:00	2024-11-08T13:00:00	8	Radiación solar	383
129945	7	Sololá	704	Santa Lucía Utatlán 	7	Santa Rita 	11	Noviembre	2023-11-19T00:00:00	2024-11-08T14:00:00	2	Temperatura media	21.6
129946	7	Sololá	704	Santa Lucía Utatlán 	7	Santa Rita 	11	Noviembre	2023-11-19T00:00:00	2024-11-08T14:00:00	4	Temperatura máxima	23
129947	7	Sololá	704	Santa Lucía Utatlán 	7	Santa Rita 	11	Noviembre	2023-11-19T00:00:00	2024-11-08T14:00:00	3	Temperatura mínima	21.5
129948	7	Sololá	704	Santa Lucía Utatlán 	7	Santa Rita 	11	Noviembre	2023-11-19T00:00:00	2024-11-08T14:00:00	5	Humedad	85
129949	7	Sololá	704	Santa Lucía Utatlán 	7	Santa Rita 	11	Noviembre	2023-11-19T00:00:00	2024-11-08T14:00:00	6	Velocidad del viento	4.8
129950	7	Sololá	704	Santa Lucía Utatlán 	7	Santa Rita 	11	Noviembre	2023-11-19T00:00:00	2024-11-08T14:00:00	7	Dirección del viento	4.83
129951	7	Sololá	704	Santa Lucía Utatlán 	7	Santa Rita 	11	Noviembre	2023-11-19T00:00:00	2024-11-08T14:00:00	1	Precipitación	0
129952	7	Sololá	704	Santa Lucía Utatlán 	7	Santa Rita 	11	Noviembre	2023-11-19T00:00:00	2024-11-08T14:00:00	8	Radiación solar	192
129953	7	Sololá	704	Santa Lucía Utatlán 	7	Santa Rita 	11	Noviembre	2023-11-19T00:00:00	2024-11-08T15:00:00	2	Temperatura media	20.4
129954	7	Sololá	704	Santa Lucía Utatlán 	7	Santa Rita 	11	Noviembre	2023-11-19T00:00:00	2024-11-08T15:00:00	4	Temperatura máxima	21.5
129955	7	Sololá	704	Santa Lucía Utatlán 	7	Santa Rita 	11	Noviembre	2023-11-19T00:00:00	2024-11-08T15:00:00	3	Temperatura mínima	20.3
129956	7	Sololá	704	Santa Lucía Utatlán 	7	Santa Rita 	11	Noviembre	2023-11-19T00:00:00	2024-11-08T15:00:00	5	Humedad	91
129957	7	Sololá	704	Santa Lucía Utatlán 	7	Santa Rita 	11	Noviembre	2023-11-19T00:00:00	2024-11-08T15:00:00	6	Velocidad del viento	3.2
129958	7	Sololá	704	Santa Lucía Utatlán 	7	Santa Rita 	11	Noviembre	2023-11-19T00:00:00	2024-11-08T15:00:00	7	Dirección del viento	3.22
129959	7	Sololá	704	Santa Lucía Utatlán 	7	Santa Rita 	11	Noviembre	2023-11-19T00:00:00	2024-11-08T15:00:00	1	Precipitación	0
129960	7	Sololá	704	Santa Lucía Utatlán 	7	Santa Rita 	11	Noviembre	2023-11-19T00:00:00	2024-11-08T15:00:00	8	Radiación solar	55
129961	7	Sololá	704	Santa Lucía Utatlán 	7	Santa Rita 	11	Noviembre	2023-11-19T00:00:00	2024-11-08T16:00:00	2	Temperatura media	20.2
129962	7	Sololá	704	Santa Lucía Utatlán 	7	Santa Rita 	11	Noviembre	2023-11-19T00:00:00	2024-11-08T16:00:00	4	Temperatura máxima	20.4
129963	7	Sololá	704	Santa Lucía Utatlán 	7	Santa Rita 	11	Noviembre	2023-11-19T00:00:00	2024-11-08T16:00:00	3	Temperatura mínima	19.9
129964	7	Sololá	704	Santa Lucía Utatlán 	7	Santa Rita 	11	Noviembre	2023-11-19T00:00:00	2024-11-08T16:00:00	5	Humedad	90
129965	7	Sololá	704	Santa Lucía Utatlán 	7	Santa Rita 	11	Noviembre	2023-11-19T00:00:00	2024-11-08T16:00:00	6	Velocidad del viento	3.2
129966	7	Sololá	704	Santa Lucía Utatlán 	7	Santa Rita 	11	Noviembre	2023-11-19T00:00:00	2024-11-08T16:00:00	7	Dirección del viento	3.22
129967	7	Sololá	704	Santa Lucía Utatlán 	7	Santa Rita 	11	Noviembre	2023-11-19T00:00:00	2024-11-08T16:00:00	1	Precipitación	0
129968	7	Sololá	704	Santa Lucía Utatlán 	7	Santa Rita 	11	Noviembre	2023-11-19T00:00:00	2024-11-08T16:00:00	8	Radiación solar	58
129969	7	Sololá	704	Santa Lucía Utatlán 	7	Santa Rita 	11	Noviembre	2023-11-19T00:00:00	2024-11-08T17:00:00	2	Temperatura media	19.7
129970	7	Sololá	704	Santa Lucía Utatlán 	7	Santa Rita 	11	Noviembre	2023-11-19T00:00:00	2024-11-08T17:00:00	4	Temperatura máxima	20.5
129971	7	Sololá	704	Santa Lucía Utatlán 	7	Santa Rita 	11	Noviembre	2023-11-19T00:00:00	2024-11-08T17:00:00	3	Temperatura mínima	19.7
129972	7	Sololá	704	Santa Lucía Utatlán 	7	Santa Rita 	11	Noviembre	2023-11-19T00:00:00	2024-11-08T17:00:00	5	Humedad	90
129973	7	Sololá	704	Santa Lucía Utatlán 	7	Santa Rita 	11	Noviembre	2023-11-19T00:00:00	2024-11-08T17:00:00	6	Velocidad del viento	1.6
129974	7	Sololá	704	Santa Lucía Utatlán 	7	Santa Rita 	11	Noviembre	2023-11-19T00:00:00	2024-11-08T17:00:00	7	Dirección del viento	1.61
129975	7	Sololá	704	Santa Lucía Utatlán 	7	Santa Rita 	11	Noviembre	2023-11-19T00:00:00	2024-11-08T17:00:00	1	Precipitación	0
129976	7	Sololá	704	Santa Lucía Utatlán 	7	Santa Rita 	11	Noviembre	2023-11-19T00:00:00	2024-11-08T17:00:00	8	Radiación solar	56
129977	7	Sololá	704	Santa Lucía Utatlán 	7	Santa Rita 	11	Noviembre	2023-11-19T00:00:00	2024-11-08T18:00:00	2	Temperatura media	19.1
129978	7	Sololá	704	Santa Lucía Utatlán 	7	Santa Rita 	11	Noviembre	2023-11-19T00:00:00	2024-11-08T18:00:00	4	Temperatura máxima	19.7
129979	7	Sololá	704	Santa Lucía Utatlán 	7	Santa Rita 	11	Noviembre	2023-11-19T00:00:00	2024-11-08T18:00:00	3	Temperatura mínima	19
129980	7	Sololá	704	Santa Lucía Utatlán 	7	Santa Rita 	11	Noviembre	2023-11-19T00:00:00	2024-11-08T18:00:00	5	Humedad	93
129981	7	Sololá	704	Santa Lucía Utatlán 	7	Santa Rita 	11	Noviembre	2023-11-19T00:00:00	2024-11-08T18:00:00	6	Velocidad del viento	1.6
129982	7	Sololá	704	Santa Lucía Utatlán 	7	Santa Rita 	11	Noviembre	2023-11-19T00:00:00	2024-11-08T18:00:00	7	Dirección del viento	1.61
129983	7	Sololá	704	Santa Lucía Utatlán 	7	Santa Rita 	11	Noviembre	2023-11-19T00:00:00	2024-11-08T18:00:00	1	Precipitación	0
129984	7	Sololá	704	Santa Lucía Utatlán 	7	Santa Rita 	11	Noviembre	2023-11-19T00:00:00	2024-11-08T18:00:00	8	Radiación solar	4
129985	7	Sololá	704	Santa Lucía Utatlán 	7	Santa Rita 	11	Noviembre	2023-11-19T00:00:00	2024-11-08T19:00:00	2	Temperatura media	19
129986	7	Sololá	704	Santa Lucía Utatlán 	7	Santa Rita 	11	Noviembre	2023-11-19T00:00:00	2024-11-08T19:00:00	4	Temperatura máxima	19.2
129987	7	Sololá	704	Santa Lucía Utatlán 	7	Santa Rita 	11	Noviembre	2023-11-19T00:00:00	2024-11-08T19:00:00	3	Temperatura mínima	18.9
129988	7	Sololá	704	Santa Lucía Utatlán 	7	Santa Rita 	11	Noviembre	2023-11-19T00:00:00	2024-11-08T19:00:00	5	Humedad	93
129989	7	Sololá	704	Santa Lucía Utatlán 	7	Santa Rita 	11	Noviembre	2023-11-19T00:00:00	2024-11-08T19:00:00	6	Velocidad del viento	0
129990	7	Sololá	704	Santa Lucía Utatlán 	7	Santa Rita 	11	Noviembre	2023-11-19T00:00:00	2024-11-08T19:00:00	7	Dirección del viento	0
129991	7	Sololá	704	Santa Lucía Utatlán 	7	Santa Rita 	11	Noviembre	2023-11-19T00:00:00	2024-11-08T19:00:00	1	Precipitación	0
129992	7	Sololá	704	Santa Lucía Utatlán 	7	Santa Rita 	11	Noviembre	2023-11-19T00:00:00	2024-11-08T19:00:00	8	Radiación solar	0
129993	7	Sololá	704	Santa Lucía Utatlán 	7	Santa Rita 	11	Noviembre	2023-11-19T00:00:00	2024-11-08T20:00:00	2	Temperatura media	18.7
129994	7	Sololá	704	Santa Lucía Utatlán 	7	Santa Rita 	11	Noviembre	2023-11-19T00:00:00	2024-11-08T20:00:00	4	Temperatura máxima	19.1
129995	7	Sololá	704	Santa Lucía Utatlán 	7	Santa Rita 	11	Noviembre	2023-11-19T00:00:00	2024-11-08T20:00:00	3	Temperatura mínima	18.6
129996	7	Sololá	704	Santa Lucía Utatlán 	7	Santa Rita 	11	Noviembre	2023-11-19T00:00:00	2024-11-08T20:00:00	5	Humedad	94
129997	7	Sololá	704	Santa Lucía Utatlán 	7	Santa Rita 	11	Noviembre	2023-11-19T00:00:00	2024-11-08T20:00:00	6	Velocidad del viento	0
129998	7	Sololá	704	Santa Lucía Utatlán 	7	Santa Rita 	11	Noviembre	2023-11-19T00:00:00	2024-11-08T20:00:00	7	Dirección del viento	0
129999	7	Sololá	704	Santa Lucía Utatlán 	7	Santa Rita 	11	Noviembre	2023-11-19T00:00:00	2024-11-08T20:00:00	1	Precipitación	0
130000	7	Sololá	704	Santa Lucía Utatlán 	7	Santa Rita 	11	Noviembre	2023-11-19T00:00:00	2024-11-08T20:00:00	8	Radiación solar	0
130001	7	Sololá	704	Santa Lucía Utatlán 	7	Santa Rita 	11	Noviembre	2023-11-19T00:00:00	2024-11-08T21:00:00	2	Temperatura media	18.1
130002	7	Sololá	704	Santa Lucía Utatlán 	7	Santa Rita 	11	Noviembre	2023-11-19T00:00:00	2024-11-08T21:00:00	4	Temperatura máxima	18.7
130003	7	Sololá	704	Santa Lucía Utatlán 	7	Santa Rita 	11	Noviembre	2023-11-19T00:00:00	2024-11-08T21:00:00	3	Temperatura mínima	18
130004	7	Sololá	704	Santa Lucía Utatlán 	7	Santa Rita 	11	Noviembre	2023-11-19T00:00:00	2024-11-08T21:00:00	5	Humedad	92
130005	7	Sololá	704	Santa Lucía Utatlán 	7	Santa Rita 	11	Noviembre	2023-11-19T00:00:00	2024-11-08T21:00:00	6	Velocidad del viento	0
130006	7	Sololá	704	Santa Lucía Utatlán 	7	Santa Rita 	11	Noviembre	2023-11-19T00:00:00	2024-11-08T21:00:00	7	Dirección del viento	0
130007	7	Sololá	704	Santa Lucía Utatlán 	7	Santa Rita 	11	Noviembre	2023-11-19T00:00:00	2024-11-08T21:00:00	1	Precipitación	0
130008	7	Sololá	704	Santa Lucía Utatlán 	7	Santa Rita 	11	Noviembre	2023-11-19T00:00:00	2024-11-08T21:00:00	8	Radiación solar	0
130009	7	Sololá	704	Santa Lucía Utatlán 	7	Santa Rita 	11	Noviembre	2023-11-19T00:00:00	2024-11-08T22:00:00	2	Temperatura media	18.1
130010	7	Sololá	704	Santa Lucía Utatlán 	7	Santa Rita 	11	Noviembre	2023-11-19T00:00:00	2024-11-08T22:00:00	4	Temperatura máxima	18.3
130011	7	Sololá	704	Santa Lucía Utatlán 	7	Santa Rita 	11	Noviembre	2023-11-19T00:00:00	2024-11-08T22:00:00	3	Temperatura mínima	18
130012	7	Sololá	704	Santa Lucía Utatlán 	7	Santa Rita 	11	Noviembre	2023-11-19T00:00:00	2024-11-08T22:00:00	5	Humedad	95
130013	7	Sololá	704	Santa Lucía Utatlán 	7	Santa Rita 	11	Noviembre	2023-11-19T00:00:00	2024-11-08T22:00:00	6	Velocidad del viento	0
130014	7	Sololá	704	Santa Lucía Utatlán 	7	Santa Rita 	11	Noviembre	2023-11-19T00:00:00	2024-11-08T22:00:00	7	Dirección del viento	0
130015	7	Sololá	704	Santa Lucía Utatlán 	7	Santa Rita 	11	Noviembre	2023-11-19T00:00:00	2024-11-08T22:00:00	1	Precipitación	0
130016	7	Sololá	704	Santa Lucía Utatlán 	7	Santa Rita 	11	Noviembre	2023-11-19T00:00:00	2024-11-08T22:00:00	8	Radiación solar	0
130017	7	Sololá	704	Santa Lucía Utatlán 	7	Santa Rita 	11	Noviembre	2023-11-19T00:00:00	2024-11-08T23:00:00	2	Temperatura media	17.5
130018	7	Sololá	704	Santa Lucía Utatlán 	7	Santa Rita 	11	Noviembre	2023-11-19T00:00:00	2024-11-08T23:00:00	4	Temperatura máxima	18.1
130019	7	Sololá	704	Santa Lucía Utatlán 	7	Santa Rita 	11	Noviembre	2023-11-19T00:00:00	2024-11-08T23:00:00	3	Temperatura mínima	17.5
130020	7	Sololá	704	Santa Lucía Utatlán 	7	Santa Rita 	11	Noviembre	2023-11-19T00:00:00	2024-11-08T23:00:00	5	Humedad	93
130021	7	Sololá	704	Santa Lucía Utatlán 	7	Santa Rita 	11	Noviembre	2023-11-19T00:00:00	2024-11-08T23:00:00	6	Velocidad del viento	0
130022	7	Sololá	704	Santa Lucía Utatlán 	7	Santa Rita 	11	Noviembre	2023-11-19T00:00:00	2024-11-08T23:00:00	7	Dirección del viento	0
130023	7	Sololá	704	Santa Lucía Utatlán 	7	Santa Rita 	11	Noviembre	2023-11-19T00:00:00	2024-11-08T23:00:00	1	Precipitación	0
130024	7	Sololá	704	Santa Lucía Utatlán 	7	Santa Rita 	11	Noviembre	2023-11-19T00:00:00	2024-11-08T23:00:00	8	Radiación solar	0
130025	7	Sololá	704	Santa Lucía Utatlán 	7	Santa Rita 	11	Noviembre	2023-11-20T00:00:00	2024-11-08T00:00:00	2	Temperatura media	17.3
130026	7	Sololá	704	Santa Lucía Utatlán 	7	Santa Rita 	11	Noviembre	2023-11-20T00:00:00	2024-11-08T00:00:00	4	Temperatura máxima	17.5
130027	7	Sololá	704	Santa Lucía Utatlán 	7	Santa Rita 	11	Noviembre	2023-11-20T00:00:00	2024-11-08T00:00:00	3	Temperatura mínima	17.2
130028	7	Sololá	704	Santa Lucía Utatlán 	7	Santa Rita 	11	Noviembre	2023-11-20T00:00:00	2024-11-08T00:00:00	5	Humedad	93
130029	7	Sololá	704	Santa Lucía Utatlán 	7	Santa Rita 	11	Noviembre	2023-11-20T00:00:00	2024-11-08T00:00:00	6	Velocidad del viento	0
130030	7	Sololá	704	Santa Lucía Utatlán 	7	Santa Rita 	11	Noviembre	2023-11-20T00:00:00	2024-11-08T00:00:00	7	Dirección del viento	0
130031	7	Sololá	704	Santa Lucía Utatlán 	7	Santa Rita 	11	Noviembre	2023-11-20T00:00:00	2024-11-08T00:00:00	1	Precipitación	0
130032	7	Sololá	704	Santa Lucía Utatlán 	7	Santa Rita 	11	Noviembre	2023-11-20T00:00:00	2024-11-08T00:00:00	8	Radiación solar	0
130033	7	Sololá	704	Santa Lucía Utatlán 	7	Santa Rita 	11	Noviembre	2023-11-20T00:00:00	2024-11-08T01:00:00	2	Temperatura media	15.6
130034	7	Sololá	704	Santa Lucía Utatlán 	7	Santa Rita 	11	Noviembre	2023-11-20T00:00:00	2024-11-08T01:00:00	4	Temperatura máxima	17.3
130035	7	Sololá	704	Santa Lucía Utatlán 	7	Santa Rita 	11	Noviembre	2023-11-20T00:00:00	2024-11-08T01:00:00	3	Temperatura mínima	15.6
130036	7	Sololá	704	Santa Lucía Utatlán 	7	Santa Rita 	11	Noviembre	2023-11-20T00:00:00	2024-11-08T01:00:00	5	Humedad	90
130037	7	Sololá	704	Santa Lucía Utatlán 	7	Santa Rita 	11	Noviembre	2023-11-20T00:00:00	2024-11-08T01:00:00	6	Velocidad del viento	1.6
130038	7	Sololá	704	Santa Lucía Utatlán 	7	Santa Rita 	11	Noviembre	2023-11-20T00:00:00	2024-11-08T01:00:00	7	Dirección del viento	1.61
130039	7	Sololá	704	Santa Lucía Utatlán 	7	Santa Rita 	11	Noviembre	2023-11-20T00:00:00	2024-11-08T01:00:00	1	Precipitación	0
130040	7	Sololá	704	Santa Lucía Utatlán 	7	Santa Rita 	11	Noviembre	2023-11-20T00:00:00	2024-11-08T01:00:00	8	Radiación solar	0
130041	7	Sololá	704	Santa Lucía Utatlán 	7	Santa Rita 	11	Noviembre	2023-11-20T00:00:00	2024-11-08T02:00:00	2	Temperatura media	14.2
130042	7	Sololá	704	Santa Lucía Utatlán 	7	Santa Rita 	11	Noviembre	2023-11-20T00:00:00	2024-11-08T02:00:00	4	Temperatura máxima	15.6
130043	7	Sololá	704	Santa Lucía Utatlán 	7	Santa Rita 	11	Noviembre	2023-11-20T00:00:00	2024-11-08T02:00:00	3	Temperatura mínima	14.2
130044	7	Sololá	704	Santa Lucía Utatlán 	7	Santa Rita 	11	Noviembre	2023-11-20T00:00:00	2024-11-08T02:00:00	5	Humedad	91
130045	7	Sololá	704	Santa Lucía Utatlán 	7	Santa Rita 	11	Noviembre	2023-11-20T00:00:00	2024-11-08T02:00:00	6	Velocidad del viento	3.2
130046	7	Sololá	704	Santa Lucía Utatlán 	7	Santa Rita 	11	Noviembre	2023-11-20T00:00:00	2024-11-08T02:00:00	7	Dirección del viento	3.22
130047	7	Sololá	704	Santa Lucía Utatlán 	7	Santa Rita 	11	Noviembre	2023-11-20T00:00:00	2024-11-08T02:00:00	1	Precipitación	0
130048	7	Sololá	704	Santa Lucía Utatlán 	7	Santa Rita 	11	Noviembre	2023-11-20T00:00:00	2024-11-08T02:00:00	8	Radiación solar	0
130049	7	Sololá	704	Santa Lucía Utatlán 	7	Santa Rita 	11	Noviembre	2023-11-20T00:00:00	2024-11-08T03:00:00	2	Temperatura media	13.6
130050	7	Sololá	704	Santa Lucía Utatlán 	7	Santa Rita 	11	Noviembre	2023-11-20T00:00:00	2024-11-08T03:00:00	4	Temperatura máxima	14.6
130051	7	Sololá	704	Santa Lucía Utatlán 	7	Santa Rita 	11	Noviembre	2023-11-20T00:00:00	2024-11-08T03:00:00	3	Temperatura mínima	13.6
130052	7	Sololá	704	Santa Lucía Utatlán 	7	Santa Rita 	11	Noviembre	2023-11-20T00:00:00	2024-11-08T03:00:00	5	Humedad	83
130053	7	Sololá	704	Santa Lucía Utatlán 	7	Santa Rita 	11	Noviembre	2023-11-20T00:00:00	2024-11-08T03:00:00	6	Velocidad del viento	4.8
130054	7	Sololá	704	Santa Lucía Utatlán 	7	Santa Rita 	11	Noviembre	2023-11-20T00:00:00	2024-11-08T03:00:00	7	Dirección del viento	4.83
130055	7	Sololá	704	Santa Lucía Utatlán 	7	Santa Rita 	11	Noviembre	2023-11-20T00:00:00	2024-11-08T03:00:00	1	Precipitación	0
130056	7	Sololá	704	Santa Lucía Utatlán 	7	Santa Rita 	11	Noviembre	2023-11-20T00:00:00	2024-11-08T03:00:00	8	Radiación solar	0
130057	7	Sololá	704	Santa Lucía Utatlán 	7	Santa Rita 	11	Noviembre	2023-11-20T00:00:00	2024-11-08T04:00:00	2	Temperatura media	12.8
130058	7	Sololá	704	Santa Lucía Utatlán 	7	Santa Rita 	11	Noviembre	2023-11-20T00:00:00	2024-11-08T04:00:00	4	Temperatura máxima	13.6
130059	7	Sololá	704	Santa Lucía Utatlán 	7	Santa Rita 	11	Noviembre	2023-11-20T00:00:00	2024-11-08T04:00:00	3	Temperatura mínima	12.6
130060	7	Sololá	704	Santa Lucía Utatlán 	7	Santa Rita 	11	Noviembre	2023-11-20T00:00:00	2024-11-08T04:00:00	5	Humedad	81
130061	7	Sololá	704	Santa Lucía Utatlán 	7	Santa Rita 	11	Noviembre	2023-11-20T00:00:00	2024-11-08T04:00:00	6	Velocidad del viento	6.4
130062	7	Sololá	704	Santa Lucía Utatlán 	7	Santa Rita 	11	Noviembre	2023-11-20T00:00:00	2024-11-08T04:00:00	7	Dirección del viento	6.44
130063	7	Sololá	704	Santa Lucía Utatlán 	7	Santa Rita 	11	Noviembre	2023-11-20T00:00:00	2024-11-08T04:00:00	1	Precipitación	0
130064	7	Sololá	704	Santa Lucía Utatlán 	7	Santa Rita 	11	Noviembre	2023-11-20T00:00:00	2024-11-08T04:00:00	8	Radiación solar	0
130065	7	Sololá	704	Santa Lucía Utatlán 	7	Santa Rita 	11	Noviembre	2023-11-20T00:00:00	2024-11-08T05:00:00	2	Temperatura media	13.2
130066	7	Sololá	704	Santa Lucía Utatlán 	7	Santa Rita 	11	Noviembre	2023-11-20T00:00:00	2024-11-08T05:00:00	4	Temperatura máxima	13.2
130067	7	Sololá	704	Santa Lucía Utatlán 	7	Santa Rita 	11	Noviembre	2023-11-20T00:00:00	2024-11-08T05:00:00	3	Temperatura mínima	12.7
130068	7	Sololá	704	Santa Lucía Utatlán 	7	Santa Rita 	11	Noviembre	2023-11-20T00:00:00	2024-11-08T05:00:00	5	Humedad	67
130069	7	Sololá	704	Santa Lucía Utatlán 	7	Santa Rita 	11	Noviembre	2023-11-20T00:00:00	2024-11-08T05:00:00	6	Velocidad del viento	6.4
130070	7	Sololá	704	Santa Lucía Utatlán 	7	Santa Rita 	11	Noviembre	2023-11-20T00:00:00	2024-11-08T05:00:00	7	Dirección del viento	6.44
130071	7	Sololá	704	Santa Lucía Utatlán 	7	Santa Rita 	11	Noviembre	2023-11-20T00:00:00	2024-11-08T05:00:00	1	Precipitación	0
130072	7	Sololá	704	Santa Lucía Utatlán 	7	Santa Rita 	11	Noviembre	2023-11-20T00:00:00	2024-11-08T05:00:00	8	Radiación solar	0
130073	7	Sololá	704	Santa Lucía Utatlán 	7	Santa Rita 	11	Noviembre	2023-11-20T00:00:00	2024-11-08T06:00:00	2	Temperatura media	14.6
130074	7	Sololá	704	Santa Lucía Utatlán 	7	Santa Rita 	11	Noviembre	2023-11-20T00:00:00	2024-11-08T06:00:00	4	Temperatura máxima	14.6
130075	7	Sololá	704	Santa Lucía Utatlán 	7	Santa Rita 	11	Noviembre	2023-11-20T00:00:00	2024-11-08T06:00:00	3	Temperatura mínima	13.1
130076	7	Sololá	704	Santa Lucía Utatlán 	7	Santa Rita 	11	Noviembre	2023-11-20T00:00:00	2024-11-08T06:00:00	5	Humedad	54
130077	7	Sololá	704	Santa Lucía Utatlán 	7	Santa Rita 	11	Noviembre	2023-11-20T00:00:00	2024-11-08T06:00:00	6	Velocidad del viento	6.4
130078	7	Sololá	704	Santa Lucía Utatlán 	7	Santa Rita 	11	Noviembre	2023-11-20T00:00:00	2024-11-08T06:00:00	7	Dirección del viento	6.44
130079	7	Sololá	704	Santa Lucía Utatlán 	7	Santa Rita 	11	Noviembre	2023-11-20T00:00:00	2024-11-08T06:00:00	1	Precipitación	0
130080	7	Sololá	704	Santa Lucía Utatlán 	7	Santa Rita 	11	Noviembre	2023-11-20T00:00:00	2024-11-08T06:00:00	8	Radiación solar	0
130081	7	Sololá	704	Santa Lucía Utatlán 	7	Santa Rita 	11	Noviembre	2023-11-20T00:00:00	2024-11-08T07:00:00	2	Temperatura media	17.7
130082	7	Sololá	704	Santa Lucía Utatlán 	7	Santa Rita 	11	Noviembre	2023-11-20T00:00:00	2024-11-08T07:00:00	4	Temperatura máxima	17.7
130083	7	Sololá	704	Santa Lucía Utatlán 	7	Santa Rita 	11	Noviembre	2023-11-20T00:00:00	2024-11-08T07:00:00	3	Temperatura mínima	14.5
130084	7	Sololá	704	Santa Lucía Utatlán 	7	Santa Rita 	11	Noviembre	2023-11-20T00:00:00	2024-11-08T07:00:00	5	Humedad	46
130085	7	Sololá	704	Santa Lucía Utatlán 	7	Santa Rita 	11	Noviembre	2023-11-20T00:00:00	2024-11-08T07:00:00	6	Velocidad del viento	4.8
130086	7	Sololá	704	Santa Lucía Utatlán 	7	Santa Rita 	11	Noviembre	2023-11-20T00:00:00	2024-11-08T07:00:00	7	Dirección del viento	4.83
130087	7	Sololá	704	Santa Lucía Utatlán 	7	Santa Rita 	11	Noviembre	2023-11-20T00:00:00	2024-11-08T07:00:00	1	Precipitación	0
130088	7	Sololá	704	Santa Lucía Utatlán 	7	Santa Rita 	11	Noviembre	2023-11-20T00:00:00	2024-11-08T07:00:00	8	Radiación solar	37
130089	7	Sololá	704	Santa Lucía Utatlán 	7	Santa Rita 	11	Noviembre	2023-11-20T00:00:00	2024-11-08T08:00:00	2	Temperatura media	20.8
130090	7	Sololá	704	Santa Lucía Utatlán 	7	Santa Rita 	11	Noviembre	2023-11-20T00:00:00	2024-11-08T08:00:00	4	Temperatura máxima	20.8
130091	7	Sololá	704	Santa Lucía Utatlán 	7	Santa Rita 	11	Noviembre	2023-11-20T00:00:00	2024-11-08T08:00:00	3	Temperatura mínima	17.7
130092	7	Sololá	704	Santa Lucía Utatlán 	7	Santa Rita 	11	Noviembre	2023-11-20T00:00:00	2024-11-08T08:00:00	5	Humedad	50
130093	7	Sololá	704	Santa Lucía Utatlán 	7	Santa Rita 	11	Noviembre	2023-11-20T00:00:00	2024-11-08T08:00:00	6	Velocidad del viento	3.2
130094	7	Sololá	704	Santa Lucía Utatlán 	7	Santa Rita 	11	Noviembre	2023-11-20T00:00:00	2024-11-08T08:00:00	7	Dirección del viento	3.22
130095	7	Sololá	704	Santa Lucía Utatlán 	7	Santa Rita 	11	Noviembre	2023-11-20T00:00:00	2024-11-08T08:00:00	1	Precipitación	0
130096	7	Sololá	704	Santa Lucía Utatlán 	7	Santa Rita 	11	Noviembre	2023-11-20T00:00:00	2024-11-08T08:00:00	8	Radiación solar	267
130097	7	Sololá	704	Santa Lucía Utatlán 	7	Santa Rita 	11	Noviembre	2023-11-20T00:00:00	2024-11-08T09:00:00	2	Temperatura media	23.9
130098	7	Sololá	704	Santa Lucía Utatlán 	7	Santa Rita 	11	Noviembre	2023-11-20T00:00:00	2024-11-08T09:00:00	4	Temperatura máxima	23.9
130099	7	Sololá	704	Santa Lucía Utatlán 	7	Santa Rita 	11	Noviembre	2023-11-20T00:00:00	2024-11-08T09:00:00	3	Temperatura mínima	20.8
130100	7	Sololá	704	Santa Lucía Utatlán 	7	Santa Rita 	11	Noviembre	2023-11-20T00:00:00	2024-11-08T09:00:00	5	Humedad	41
130101	7	Sololá	704	Santa Lucía Utatlán 	7	Santa Rita 	11	Noviembre	2023-11-20T00:00:00	2024-11-08T09:00:00	6	Velocidad del viento	1.6
130102	7	Sololá	704	Santa Lucía Utatlán 	7	Santa Rita 	11	Noviembre	2023-11-20T00:00:00	2024-11-08T09:00:00	7	Dirección del viento	1.61
130103	7	Sololá	704	Santa Lucía Utatlán 	7	Santa Rita 	11	Noviembre	2023-11-20T00:00:00	2024-11-08T09:00:00	1	Precipitación	0
130104	7	Sololá	704	Santa Lucía Utatlán 	7	Santa Rita 	11	Noviembre	2023-11-20T00:00:00	2024-11-08T09:00:00	8	Radiación solar	499
130105	7	Sololá	704	Santa Lucía Utatlán 	7	Santa Rita 	11	Noviembre	2023-11-20T00:00:00	2024-11-08T10:00:00	2	Temperatura media	25.9
130106	7	Sololá	704	Santa Lucía Utatlán 	7	Santa Rita 	11	Noviembre	2023-11-20T00:00:00	2024-11-08T10:00:00	4	Temperatura máxima	25.9
130107	7	Sololá	704	Santa Lucía Utatlán 	7	Santa Rita 	11	Noviembre	2023-11-20T00:00:00	2024-11-08T10:00:00	3	Temperatura mínima	24
130108	7	Sololá	704	Santa Lucía Utatlán 	7	Santa Rita 	11	Noviembre	2023-11-20T00:00:00	2024-11-08T10:00:00	5	Humedad	50
130109	7	Sololá	704	Santa Lucía Utatlán 	7	Santa Rita 	11	Noviembre	2023-11-20T00:00:00	2024-11-08T10:00:00	6	Velocidad del viento	4.8
130110	7	Sololá	704	Santa Lucía Utatlán 	7	Santa Rita 	11	Noviembre	2023-11-20T00:00:00	2024-11-08T10:00:00	7	Dirección del viento	4.83
130111	7	Sololá	704	Santa Lucía Utatlán 	7	Santa Rita 	11	Noviembre	2023-11-20T00:00:00	2024-11-08T10:00:00	1	Precipitación	0
130112	7	Sololá	704	Santa Lucía Utatlán 	7	Santa Rita 	11	Noviembre	2023-11-20T00:00:00	2024-11-08T10:00:00	8	Radiación solar	676
130113	7	Sololá	704	Santa Lucía Utatlán 	7	Santa Rita 	11	Noviembre	2023-11-20T00:00:00	2024-11-08T11:00:00	2	Temperatura media	25.8
130114	7	Sololá	704	Santa Lucía Utatlán 	7	Santa Rita 	11	Noviembre	2023-11-20T00:00:00	2024-11-08T11:00:00	4	Temperatura máxima	26
130115	7	Sololá	704	Santa Lucía Utatlán 	7	Santa Rita 	11	Noviembre	2023-11-20T00:00:00	2024-11-08T11:00:00	3	Temperatura mínima	25.4
130116	7	Sololá	704	Santa Lucía Utatlán 	7	Santa Rita 	11	Noviembre	2023-11-20T00:00:00	2024-11-08T11:00:00	5	Humedad	53
130117	7	Sololá	704	Santa Lucía Utatlán 	7	Santa Rita 	11	Noviembre	2023-11-20T00:00:00	2024-11-08T11:00:00	6	Velocidad del viento	6.4
130118	7	Sololá	704	Santa Lucía Utatlán 	7	Santa Rita 	11	Noviembre	2023-11-20T00:00:00	2024-11-08T11:00:00	7	Dirección del viento	6.44
130119	7	Sololá	704	Santa Lucía Utatlán 	7	Santa Rita 	11	Noviembre	2023-11-20T00:00:00	2024-11-08T11:00:00	1	Precipitación	0
130120	7	Sololá	704	Santa Lucía Utatlán 	7	Santa Rita 	11	Noviembre	2023-11-20T00:00:00	2024-11-08T11:00:00	8	Radiación solar	790
130121	7	Sololá	704	Santa Lucía Utatlán 	7	Santa Rita 	11	Noviembre	2023-11-20T00:00:00	2024-11-08T12:00:00	2	Temperatura media	25.8
130122	7	Sololá	704	Santa Lucía Utatlán 	7	Santa Rita 	11	Noviembre	2023-11-20T00:00:00	2024-11-08T12:00:00	4	Temperatura máxima	26.1
130123	7	Sololá	704	Santa Lucía Utatlán 	7	Santa Rita 	11	Noviembre	2023-11-20T00:00:00	2024-11-08T12:00:00	3	Temperatura mínima	25.3
130124	7	Sololá	704	Santa Lucía Utatlán 	7	Santa Rita 	11	Noviembre	2023-11-20T00:00:00	2024-11-08T12:00:00	5	Humedad	58
130125	7	Sololá	704	Santa Lucía Utatlán 	7	Santa Rita 	11	Noviembre	2023-11-20T00:00:00	2024-11-08T12:00:00	6	Velocidad del viento	6.4
130126	7	Sololá	704	Santa Lucía Utatlán 	7	Santa Rita 	11	Noviembre	2023-11-20T00:00:00	2024-11-08T12:00:00	7	Dirección del viento	6.44
130127	7	Sololá	704	Santa Lucía Utatlán 	7	Santa Rita 	11	Noviembre	2023-11-20T00:00:00	2024-11-08T12:00:00	1	Precipitación	0
130128	7	Sololá	704	Santa Lucía Utatlán 	7	Santa Rita 	11	Noviembre	2023-11-20T00:00:00	2024-11-08T12:00:00	8	Radiación solar	837
130129	7	Sololá	704	Santa Lucía Utatlán 	7	Santa Rita 	11	Noviembre	2023-11-20T00:00:00	2024-11-08T13:00:00	2	Temperatura media	24.7
130130	7	Sololá	704	Santa Lucía Utatlán 	7	Santa Rita 	11	Noviembre	2023-11-20T00:00:00	2024-11-08T13:00:00	4	Temperatura máxima	25.9
130131	7	Sololá	704	Santa Lucía Utatlán 	7	Santa Rita 	11	Noviembre	2023-11-20T00:00:00	2024-11-08T13:00:00	3	Temperatura mínima	24.7
130132	7	Sololá	704	Santa Lucía Utatlán 	7	Santa Rita 	11	Noviembre	2023-11-20T00:00:00	2024-11-08T13:00:00	5	Humedad	67
130133	7	Sololá	704	Santa Lucía Utatlán 	7	Santa Rita 	11	Noviembre	2023-11-20T00:00:00	2024-11-08T13:00:00	6	Velocidad del viento	8
130134	7	Sololá	704	Santa Lucía Utatlán 	7	Santa Rita 	11	Noviembre	2023-11-20T00:00:00	2024-11-08T13:00:00	7	Dirección del viento	8.05
130135	7	Sololá	704	Santa Lucía Utatlán 	7	Santa Rita 	11	Noviembre	2023-11-20T00:00:00	2024-11-08T13:00:00	1	Precipitación	0
130136	7	Sololá	704	Santa Lucía Utatlán 	7	Santa Rita 	11	Noviembre	2023-11-20T00:00:00	2024-11-08T13:00:00	8	Radiación solar	816
130137	7	Sololá	704	Santa Lucía Utatlán 	7	Santa Rita 	11	Noviembre	2023-11-20T00:00:00	2024-11-08T14:00:00	2	Temperatura media	24.4
130138	7	Sololá	704	Santa Lucía Utatlán 	7	Santa Rita 	11	Noviembre	2023-11-20T00:00:00	2024-11-08T14:00:00	4	Temperatura máxima	24.9
130139	7	Sololá	704	Santa Lucía Utatlán 	7	Santa Rita 	11	Noviembre	2023-11-20T00:00:00	2024-11-08T14:00:00	3	Temperatura mínima	24.1
130140	7	Sololá	704	Santa Lucía Utatlán 	7	Santa Rita 	11	Noviembre	2023-11-20T00:00:00	2024-11-08T14:00:00	5	Humedad	72
130141	7	Sololá	704	Santa Lucía Utatlán 	7	Santa Rita 	11	Noviembre	2023-11-20T00:00:00	2024-11-08T14:00:00	6	Velocidad del viento	8
130142	7	Sololá	704	Santa Lucía Utatlán 	7	Santa Rita 	11	Noviembre	2023-11-20T00:00:00	2024-11-08T14:00:00	7	Dirección del viento	8.05
130143	7	Sololá	704	Santa Lucía Utatlán 	7	Santa Rita 	11	Noviembre	2023-11-20T00:00:00	2024-11-08T14:00:00	1	Precipitación	0
130144	7	Sololá	704	Santa Lucía Utatlán 	7	Santa Rita 	11	Noviembre	2023-11-20T00:00:00	2024-11-08T14:00:00	8	Radiación solar	725
130145	7	Sololá	704	Santa Lucía Utatlán 	7	Santa Rita 	11	Noviembre	2023-11-20T00:00:00	2024-11-08T15:00:00	2	Temperatura media	22.8
130146	7	Sololá	704	Santa Lucía Utatlán 	7	Santa Rita 	11	Noviembre	2023-11-20T00:00:00	2024-11-08T15:00:00	4	Temperatura máxima	24.6
130147	7	Sololá	704	Santa Lucía Utatlán 	7	Santa Rita 	11	Noviembre	2023-11-20T00:00:00	2024-11-08T15:00:00	3	Temperatura mínima	22.8
130148	7	Sololá	704	Santa Lucía Utatlán 	7	Santa Rita 	11	Noviembre	2023-11-20T00:00:00	2024-11-08T15:00:00	5	Humedad	79
130149	7	Sololá	704	Santa Lucía Utatlán 	7	Santa Rita 	11	Noviembre	2023-11-20T00:00:00	2024-11-08T15:00:00	6	Velocidad del viento	6.4
130150	7	Sololá	704	Santa Lucía Utatlán 	7	Santa Rita 	11	Noviembre	2023-11-20T00:00:00	2024-11-08T15:00:00	7	Dirección del viento	6.44
130151	7	Sololá	704	Santa Lucía Utatlán 	7	Santa Rita 	11	Noviembre	2023-11-20T00:00:00	2024-11-08T15:00:00	1	Precipitación	0
130152	7	Sololá	704	Santa Lucía Utatlán 	7	Santa Rita 	11	Noviembre	2023-11-20T00:00:00	2024-11-08T15:00:00	8	Radiación solar	526
130153	7	Sololá	704	Santa Lucía Utatlán 	7	Santa Rita 	11	Noviembre	2023-11-20T00:00:00	2024-11-08T16:00:00	2	Temperatura media	21.4
130154	7	Sololá	704	Santa Lucía Utatlán 	7	Santa Rita 	11	Noviembre	2023-11-20T00:00:00	2024-11-08T16:00:00	4	Temperatura máxima	22.8
130155	7	Sololá	704	Santa Lucía Utatlán 	7	Santa Rita 	11	Noviembre	2023-11-20T00:00:00	2024-11-08T16:00:00	3	Temperatura mínima	21.4
130156	7	Sololá	704	Santa Lucía Utatlán 	7	Santa Rita 	11	Noviembre	2023-11-20T00:00:00	2024-11-08T16:00:00	5	Humedad	86
130157	7	Sololá	704	Santa Lucía Utatlán 	7	Santa Rita 	11	Noviembre	2023-11-20T00:00:00	2024-11-08T16:00:00	6	Velocidad del viento	4.8
130158	7	Sololá	704	Santa Lucía Utatlán 	7	Santa Rita 	11	Noviembre	2023-11-20T00:00:00	2024-11-08T16:00:00	7	Dirección del viento	4.83
130159	7	Sololá	704	Santa Lucía Utatlán 	7	Santa Rita 	11	Noviembre	2023-11-20T00:00:00	2024-11-08T16:00:00	1	Precipitación	0
130160	7	Sololá	704	Santa Lucía Utatlán 	7	Santa Rita 	11	Noviembre	2023-11-20T00:00:00	2024-11-08T16:00:00	8	Radiación solar	154
130161	7	Sololá	704	Santa Lucía Utatlán 	7	Santa Rita 	11	Noviembre	2023-11-20T00:00:00	2024-11-08T17:00:00	2	Temperatura media	20.4
130162	7	Sololá	704	Santa Lucía Utatlán 	7	Santa Rita 	11	Noviembre	2023-11-20T00:00:00	2024-11-08T17:00:00	4	Temperatura máxima	21.4
130163	7	Sololá	704	Santa Lucía Utatlán 	7	Santa Rita 	11	Noviembre	2023-11-20T00:00:00	2024-11-08T17:00:00	3	Temperatura mínima	20.4
130164	7	Sololá	704	Santa Lucía Utatlán 	7	Santa Rita 	11	Noviembre	2023-11-20T00:00:00	2024-11-08T17:00:00	5	Humedad	92
130165	7	Sololá	704	Santa Lucía Utatlán 	7	Santa Rita 	11	Noviembre	2023-11-20T00:00:00	2024-11-08T17:00:00	6	Velocidad del viento	3.2
130166	7	Sololá	704	Santa Lucía Utatlán 	7	Santa Rita 	11	Noviembre	2023-11-20T00:00:00	2024-11-08T17:00:00	7	Dirección del viento	3.22
130167	7	Sololá	704	Santa Lucía Utatlán 	7	Santa Rita 	11	Noviembre	2023-11-20T00:00:00	2024-11-08T17:00:00	1	Precipitación	0
130168	7	Sololá	704	Santa Lucía Utatlán 	7	Santa Rita 	11	Noviembre	2023-11-20T00:00:00	2024-11-08T17:00:00	8	Radiación solar	38
130169	7	Sololá	704	Santa Lucía Utatlán 	7	Santa Rita 	11	Noviembre	2023-11-20T00:00:00	2024-11-08T18:00:00	2	Temperatura media	20.4
130170	7	Sololá	704	Santa Lucía Utatlán 	7	Santa Rita 	11	Noviembre	2023-11-20T00:00:00	2024-11-08T18:00:00	4	Temperatura máxima	20.4
130171	7	Sololá	704	Santa Lucía Utatlán 	7	Santa Rita 	11	Noviembre	2023-11-20T00:00:00	2024-11-08T18:00:00	3	Temperatura mínima	20.2
130172	7	Sololá	704	Santa Lucía Utatlán 	7	Santa Rita 	11	Noviembre	2023-11-20T00:00:00	2024-11-08T18:00:00	5	Humedad	90
130173	7	Sololá	704	Santa Lucía Utatlán 	7	Santa Rita 	11	Noviembre	2023-11-20T00:00:00	2024-11-08T18:00:00	6	Velocidad del viento	1.6
130174	7	Sololá	704	Santa Lucía Utatlán 	7	Santa Rita 	11	Noviembre	2023-11-20T00:00:00	2024-11-08T18:00:00	7	Dirección del viento	1.61
130175	7	Sololá	704	Santa Lucía Utatlán 	7	Santa Rita 	11	Noviembre	2023-11-20T00:00:00	2024-11-08T18:00:00	1	Precipitación	0
130176	7	Sololá	704	Santa Lucía Utatlán 	7	Santa Rita 	11	Noviembre	2023-11-20T00:00:00	2024-11-08T18:00:00	8	Radiación solar	4
130177	7	Sololá	704	Santa Lucía Utatlán 	7	Santa Rita 	11	Noviembre	2023-11-20T00:00:00	2024-11-08T19:00:00	2	Temperatura media	19.3
130178	7	Sololá	704	Santa Lucía Utatlán 	7	Santa Rita 	11	Noviembre	2023-11-20T00:00:00	2024-11-08T19:00:00	4	Temperatura máxima	20.4
130179	7	Sololá	704	Santa Lucía Utatlán 	7	Santa Rita 	11	Noviembre	2023-11-20T00:00:00	2024-11-08T19:00:00	3	Temperatura mínima	19.2
130180	7	Sololá	704	Santa Lucía Utatlán 	7	Santa Rita 	11	Noviembre	2023-11-20T00:00:00	2024-11-08T19:00:00	5	Humedad	92
130181	7	Sololá	704	Santa Lucía Utatlán 	7	Santa Rita 	11	Noviembre	2023-11-20T00:00:00	2024-11-08T19:00:00	6	Velocidad del viento	1.6
130182	7	Sololá	704	Santa Lucía Utatlán 	7	Santa Rita 	11	Noviembre	2023-11-20T00:00:00	2024-11-08T19:00:00	7	Dirección del viento	1.61
130183	7	Sololá	704	Santa Lucía Utatlán 	7	Santa Rita 	11	Noviembre	2023-11-20T00:00:00	2024-11-08T19:00:00	1	Precipitación	0
130184	7	Sololá	704	Santa Lucía Utatlán 	7	Santa Rita 	11	Noviembre	2023-11-20T00:00:00	2024-11-08T19:00:00	8	Radiación solar	0
130185	7	Sololá	704	Santa Lucía Utatlán 	7	Santa Rita 	11	Noviembre	2023-11-20T00:00:00	2024-11-08T20:00:00	2	Temperatura media	18.6
130186	7	Sololá	704	Santa Lucía Utatlán 	7	Santa Rita 	11	Noviembre	2023-11-20T00:00:00	2024-11-08T20:00:00	4	Temperatura máxima	19.3
130187	7	Sololá	704	Santa Lucía Utatlán 	7	Santa Rita 	11	Noviembre	2023-11-20T00:00:00	2024-11-08T20:00:00	3	Temperatura mínima	18.6
130188	7	Sololá	704	Santa Lucía Utatlán 	7	Santa Rita 	11	Noviembre	2023-11-20T00:00:00	2024-11-08T20:00:00	5	Humedad	94
130189	7	Sololá	704	Santa Lucía Utatlán 	7	Santa Rita 	11	Noviembre	2023-11-20T00:00:00	2024-11-08T20:00:00	6	Velocidad del viento	1.6
130190	7	Sololá	704	Santa Lucía Utatlán 	7	Santa Rita 	11	Noviembre	2023-11-20T00:00:00	2024-11-08T20:00:00	7	Dirección del viento	1.61
130191	7	Sololá	704	Santa Lucía Utatlán 	7	Santa Rita 	11	Noviembre	2023-11-20T00:00:00	2024-11-08T20:00:00	1	Precipitación	0
130192	7	Sololá	704	Santa Lucía Utatlán 	7	Santa Rita 	11	Noviembre	2023-11-20T00:00:00	2024-11-08T20:00:00	8	Radiación solar	0
130193	7	Sololá	704	Santa Lucía Utatlán 	7	Santa Rita 	11	Noviembre	2023-11-20T00:00:00	2024-11-08T21:00:00	2	Temperatura media	18.2
130194	7	Sololá	704	Santa Lucía Utatlán 	7	Santa Rita 	11	Noviembre	2023-11-20T00:00:00	2024-11-08T21:00:00	4	Temperatura máxima	18.6
130195	7	Sololá	704	Santa Lucía Utatlán 	7	Santa Rita 	11	Noviembre	2023-11-20T00:00:00	2024-11-08T21:00:00	3	Temperatura mínima	17.5
130196	7	Sololá	704	Santa Lucía Utatlán 	7	Santa Rita 	11	Noviembre	2023-11-20T00:00:00	2024-11-08T21:00:00	5	Humedad	92
130197	7	Sololá	704	Santa Lucía Utatlán 	7	Santa Rita 	11	Noviembre	2023-11-20T00:00:00	2024-11-08T21:00:00	6	Velocidad del viento	1.6
130198	7	Sololá	704	Santa Lucía Utatlán 	7	Santa Rita 	11	Noviembre	2023-11-20T00:00:00	2024-11-08T21:00:00	7	Dirección del viento	1.61
130199	7	Sololá	704	Santa Lucía Utatlán 	7	Santa Rita 	11	Noviembre	2023-11-20T00:00:00	2024-11-08T21:00:00	1	Precipitación	0
130200	7	Sololá	704	Santa Lucía Utatlán 	7	Santa Rita 	11	Noviembre	2023-11-20T00:00:00	2024-11-08T21:00:00	8	Radiación solar	0
130201	7	Sololá	704	Santa Lucía Utatlán 	7	Santa Rita 	11	Noviembre	2023-11-20T00:00:00	2024-11-08T22:00:00	2	Temperatura media	17.3
130202	7	Sololá	704	Santa Lucía Utatlán 	7	Santa Rita 	11	Noviembre	2023-11-20T00:00:00	2024-11-08T22:00:00	4	Temperatura máxima	18.3
130203	7	Sololá	704	Santa Lucía Utatlán 	7	Santa Rita 	11	Noviembre	2023-11-20T00:00:00	2024-11-08T22:00:00	3	Temperatura mínima	17.3
130204	7	Sololá	704	Santa Lucía Utatlán 	7	Santa Rita 	11	Noviembre	2023-11-20T00:00:00	2024-11-08T22:00:00	5	Humedad	88
130205	7	Sololá	704	Santa Lucía Utatlán 	7	Santa Rita 	11	Noviembre	2023-11-20T00:00:00	2024-11-08T22:00:00	6	Velocidad del viento	3.2
130206	7	Sololá	704	Santa Lucía Utatlán 	7	Santa Rita 	11	Noviembre	2023-11-20T00:00:00	2024-11-08T22:00:00	7	Dirección del viento	3.22
130207	7	Sololá	704	Santa Lucía Utatlán 	7	Santa Rita 	11	Noviembre	2023-11-20T00:00:00	2024-11-08T22:00:00	1	Precipitación	0
130208	7	Sololá	704	Santa Lucía Utatlán 	7	Santa Rita 	11	Noviembre	2023-11-20T00:00:00	2024-11-08T22:00:00	8	Radiación solar	0
130209	7	Sololá	704	Santa Lucía Utatlán 	7	Santa Rita 	11	Noviembre	2023-11-20T00:00:00	2024-11-08T23:00:00	2	Temperatura media	17.5
130210	7	Sololá	704	Santa Lucía Utatlán 	7	Santa Rita 	11	Noviembre	2023-11-20T00:00:00	2024-11-08T23:00:00	4	Temperatura máxima	17.6
130211	7	Sololá	704	Santa Lucía Utatlán 	7	Santa Rita 	11	Noviembre	2023-11-20T00:00:00	2024-11-08T23:00:00	3	Temperatura mínima	16.9
130212	7	Sololá	704	Santa Lucía Utatlán 	7	Santa Rita 	11	Noviembre	2023-11-20T00:00:00	2024-11-08T23:00:00	5	Humedad	89
130213	7	Sololá	704	Santa Lucía Utatlán 	7	Santa Rita 	11	Noviembre	2023-11-20T00:00:00	2024-11-08T23:00:00	6	Velocidad del viento	4.8
130214	7	Sololá	704	Santa Lucía Utatlán 	7	Santa Rita 	11	Noviembre	2023-11-20T00:00:00	2024-11-08T23:00:00	7	Dirección del viento	4.83
130215	7	Sololá	704	Santa Lucía Utatlán 	7	Santa Rita 	11	Noviembre	2023-11-20T00:00:00	2024-11-08T23:00:00	1	Precipitación	0
130216	7	Sololá	704	Santa Lucía Utatlán 	7	Santa Rita 	11	Noviembre	2023-11-20T00:00:00	2024-11-08T23:00:00	8	Radiación solar	0
130217	7	Sololá	704	Santa Lucía Utatlán 	7	Santa Rita 	11	Noviembre	2023-11-21T00:00:00	2024-11-08T00:00:00	2	Temperatura media	16.4
130218	7	Sololá	704	Santa Lucía Utatlán 	7	Santa Rita 	11	Noviembre	2023-11-21T00:00:00	2024-11-08T00:00:00	4	Temperatura máxima	17.6
130219	7	Sololá	704	Santa Lucía Utatlán 	7	Santa Rita 	11	Noviembre	2023-11-21T00:00:00	2024-11-08T00:00:00	3	Temperatura mínima	16.4
130220	7	Sololá	704	Santa Lucía Utatlán 	7	Santa Rita 	11	Noviembre	2023-11-21T00:00:00	2024-11-08T00:00:00	5	Humedad	87
130221	7	Sololá	704	Santa Lucía Utatlán 	7	Santa Rita 	11	Noviembre	2023-11-21T00:00:00	2024-11-08T00:00:00	6	Velocidad del viento	3.2
130222	7	Sololá	704	Santa Lucía Utatlán 	7	Santa Rita 	11	Noviembre	2023-11-21T00:00:00	2024-11-08T00:00:00	7	Dirección del viento	3.22
130223	7	Sololá	704	Santa Lucía Utatlán 	7	Santa Rita 	11	Noviembre	2023-11-21T00:00:00	2024-11-08T00:00:00	1	Precipitación	0
130224	7	Sololá	704	Santa Lucía Utatlán 	7	Santa Rita 	11	Noviembre	2023-11-21T00:00:00	2024-11-08T00:00:00	8	Radiación solar	0
130225	7	Sololá	704	Santa Lucía Utatlán 	7	Santa Rita 	11	Noviembre	2023-11-21T00:00:00	2024-11-08T01:00:00	2	Temperatura media	14.7
130226	7	Sololá	704	Santa Lucía Utatlán 	7	Santa Rita 	11	Noviembre	2023-11-21T00:00:00	2024-11-08T01:00:00	4	Temperatura máxima	16.4
130227	7	Sololá	704	Santa Lucía Utatlán 	7	Santa Rita 	11	Noviembre	2023-11-21T00:00:00	2024-11-08T01:00:00	3	Temperatura mínima	14.7
130228	7	Sololá	704	Santa Lucía Utatlán 	7	Santa Rita 	11	Noviembre	2023-11-21T00:00:00	2024-11-08T01:00:00	5	Humedad	85
130229	7	Sololá	704	Santa Lucía Utatlán 	7	Santa Rita 	11	Noviembre	2023-11-21T00:00:00	2024-11-08T01:00:00	6	Velocidad del viento	6.4
130230	7	Sololá	704	Santa Lucía Utatlán 	7	Santa Rita 	11	Noviembre	2023-11-21T00:00:00	2024-11-08T01:00:00	7	Dirección del viento	6.44
130231	7	Sololá	704	Santa Lucía Utatlán 	7	Santa Rita 	11	Noviembre	2023-11-21T00:00:00	2024-11-08T01:00:00	1	Precipitación	0
130232	7	Sololá	704	Santa Lucía Utatlán 	7	Santa Rita 	11	Noviembre	2023-11-21T00:00:00	2024-11-08T01:00:00	8	Radiación solar	0
130233	7	Sololá	704	Santa Lucía Utatlán 	7	Santa Rita 	11	Noviembre	2023-11-21T00:00:00	2024-11-08T02:00:00	2	Temperatura media	14.7
130234	7	Sololá	704	Santa Lucía Utatlán 	7	Santa Rita 	11	Noviembre	2023-11-21T00:00:00	2024-11-08T02:00:00	4	Temperatura máxima	14.7
130235	7	Sololá	704	Santa Lucía Utatlán 	7	Santa Rita 	11	Noviembre	2023-11-21T00:00:00	2024-11-08T02:00:00	3	Temperatura mínima	14
130236	7	Sololá	704	Santa Lucía Utatlán 	7	Santa Rita 	11	Noviembre	2023-11-21T00:00:00	2024-11-08T02:00:00	5	Humedad	78
130237	7	Sololá	704	Santa Lucía Utatlán 	7	Santa Rita 	11	Noviembre	2023-11-21T00:00:00	2024-11-08T02:00:00	6	Velocidad del viento	4.8
130238	7	Sololá	704	Santa Lucía Utatlán 	7	Santa Rita 	11	Noviembre	2023-11-21T00:00:00	2024-11-08T02:00:00	7	Dirección del viento	4.83
130239	7	Sololá	704	Santa Lucía Utatlán 	7	Santa Rita 	11	Noviembre	2023-11-21T00:00:00	2024-11-08T02:00:00	1	Precipitación	0
130240	7	Sololá	704	Santa Lucía Utatlán 	7	Santa Rita 	11	Noviembre	2023-11-21T00:00:00	2024-11-08T02:00:00	8	Radiación solar	0
130241	7	Sololá	704	Santa Lucía Utatlán 	7	Santa Rita 	11	Noviembre	2023-11-21T00:00:00	2024-11-08T03:00:00	2	Temperatura media	14.7
130242	7	Sololá	704	Santa Lucía Utatlán 	7	Santa Rita 	11	Noviembre	2023-11-21T00:00:00	2024-11-08T03:00:00	4	Temperatura máxima	14.8
130243	7	Sololá	704	Santa Lucía Utatlán 	7	Santa Rita 	11	Noviembre	2023-11-21T00:00:00	2024-11-08T03:00:00	3	Temperatura mínima	14.6
130244	7	Sololá	704	Santa Lucía Utatlán 	7	Santa Rita 	11	Noviembre	2023-11-21T00:00:00	2024-11-08T03:00:00	5	Humedad	77
130245	7	Sololá	704	Santa Lucía Utatlán 	7	Santa Rita 	11	Noviembre	2023-11-21T00:00:00	2024-11-08T03:00:00	6	Velocidad del viento	6.4
130246	7	Sololá	704	Santa Lucía Utatlán 	7	Santa Rita 	11	Noviembre	2023-11-21T00:00:00	2024-11-08T03:00:00	7	Dirección del viento	6.44
130247	7	Sololá	704	Santa Lucía Utatlán 	7	Santa Rita 	11	Noviembre	2023-11-21T00:00:00	2024-11-08T03:00:00	1	Precipitación	0
130248	7	Sololá	704	Santa Lucía Utatlán 	7	Santa Rita 	11	Noviembre	2023-11-21T00:00:00	2024-11-08T03:00:00	8	Radiación solar	0
130249	7	Sololá	704	Santa Lucía Utatlán 	7	Santa Rita 	11	Noviembre	2023-11-21T00:00:00	2024-11-08T04:00:00	2	Temperatura media	16.8
130250	7	Sololá	704	Santa Lucía Utatlán 	7	Santa Rita 	11	Noviembre	2023-11-21T00:00:00	2024-11-08T04:00:00	4	Temperatura máxima	16.8
130251	7	Sololá	704	Santa Lucía Utatlán 	7	Santa Rita 	11	Noviembre	2023-11-21T00:00:00	2024-11-08T04:00:00	3	Temperatura mínima	14.4
130252	7	Sololá	704	Santa Lucía Utatlán 	7	Santa Rita 	11	Noviembre	2023-11-21T00:00:00	2024-11-08T04:00:00	5	Humedad	61
130253	7	Sololá	704	Santa Lucía Utatlán 	7	Santa Rita 	11	Noviembre	2023-11-21T00:00:00	2024-11-08T04:00:00	6	Velocidad del viento	6.4
130254	7	Sololá	704	Santa Lucía Utatlán 	7	Santa Rita 	11	Noviembre	2023-11-21T00:00:00	2024-11-08T04:00:00	7	Dirección del viento	6.44
130255	7	Sololá	704	Santa Lucía Utatlán 	7	Santa Rita 	11	Noviembre	2023-11-21T00:00:00	2024-11-08T04:00:00	1	Precipitación	0
130256	7	Sololá	704	Santa Lucía Utatlán 	7	Santa Rita 	11	Noviembre	2023-11-21T00:00:00	2024-11-08T04:00:00	8	Radiación solar	0
130257	7	Sololá	704	Santa Lucía Utatlán 	7	Santa Rita 	11	Noviembre	2023-11-21T00:00:00	2024-11-08T05:00:00	2	Temperatura media	17
130258	7	Sololá	704	Santa Lucía Utatlán 	7	Santa Rita 	11	Noviembre	2023-11-21T00:00:00	2024-11-08T05:00:00	4	Temperatura máxima	17.3
130259	7	Sololá	704	Santa Lucía Utatlán 	7	Santa Rita 	11	Noviembre	2023-11-21T00:00:00	2024-11-08T05:00:00	3	Temperatura mínima	16.7
130260	7	Sololá	704	Santa Lucía Utatlán 	7	Santa Rita 	11	Noviembre	2023-11-21T00:00:00	2024-11-08T05:00:00	5	Humedad	58
130261	7	Sololá	704	Santa Lucía Utatlán 	7	Santa Rita 	11	Noviembre	2023-11-21T00:00:00	2024-11-08T05:00:00	6	Velocidad del viento	8
130262	7	Sololá	704	Santa Lucía Utatlán 	7	Santa Rita 	11	Noviembre	2023-11-21T00:00:00	2024-11-08T05:00:00	7	Dirección del viento	8.05
130263	7	Sololá	704	Santa Lucía Utatlán 	7	Santa Rita 	11	Noviembre	2023-11-21T00:00:00	2024-11-08T05:00:00	1	Precipitación	0
130264	7	Sololá	704	Santa Lucía Utatlán 	7	Santa Rita 	11	Noviembre	2023-11-21T00:00:00	2024-11-08T05:00:00	8	Radiación solar	0
130265	7	Sololá	704	Santa Lucía Utatlán 	7	Santa Rita 	11	Noviembre	2023-11-21T00:00:00	2024-11-08T06:00:00	2	Temperatura media	17.8
130266	7	Sololá	704	Santa Lucía Utatlán 	7	Santa Rita 	11	Noviembre	2023-11-21T00:00:00	2024-11-08T06:00:00	4	Temperatura máxima	18.1
130267	7	Sololá	704	Santa Lucía Utatlán 	7	Santa Rita 	11	Noviembre	2023-11-21T00:00:00	2024-11-08T06:00:00	3	Temperatura mínima	17
130268	7	Sololá	704	Santa Lucía Utatlán 	7	Santa Rita 	11	Noviembre	2023-11-21T00:00:00	2024-11-08T06:00:00	5	Humedad	54
130269	7	Sololá	704	Santa Lucía Utatlán 	7	Santa Rita 	11	Noviembre	2023-11-21T00:00:00	2024-11-08T06:00:00	6	Velocidad del viento	8
130270	7	Sololá	704	Santa Lucía Utatlán 	7	Santa Rita 	11	Noviembre	2023-11-21T00:00:00	2024-11-08T06:00:00	7	Dirección del viento	8.05
130271	7	Sololá	704	Santa Lucía Utatlán 	7	Santa Rita 	11	Noviembre	2023-11-21T00:00:00	2024-11-08T06:00:00	1	Precipitación	0
130272	7	Sololá	704	Santa Lucía Utatlán 	7	Santa Rita 	11	Noviembre	2023-11-21T00:00:00	2024-11-08T06:00:00	8	Radiación solar	0
130273	7	Sololá	704	Santa Lucía Utatlán 	7	Santa Rita 	11	Noviembre	2023-11-21T00:00:00	2024-11-08T07:00:00	2	Temperatura media	20.2
130274	7	Sololá	704	Santa Lucía Utatlán 	7	Santa Rita 	11	Noviembre	2023-11-21T00:00:00	2024-11-08T07:00:00	4	Temperatura máxima	20.2
130275	7	Sololá	704	Santa Lucía Utatlán 	7	Santa Rita 	11	Noviembre	2023-11-21T00:00:00	2024-11-08T07:00:00	3	Temperatura mínima	17.8
130276	7	Sololá	704	Santa Lucía Utatlán 	7	Santa Rita 	11	Noviembre	2023-11-21T00:00:00	2024-11-08T07:00:00	5	Humedad	51
130277	7	Sololá	704	Santa Lucía Utatlán 	7	Santa Rita 	11	Noviembre	2023-11-21T00:00:00	2024-11-08T07:00:00	6	Velocidad del viento	4.8
130278	7	Sololá	704	Santa Lucía Utatlán 	7	Santa Rita 	11	Noviembre	2023-11-21T00:00:00	2024-11-08T07:00:00	7	Dirección del viento	4.83
130279	7	Sololá	704	Santa Lucía Utatlán 	7	Santa Rita 	11	Noviembre	2023-11-21T00:00:00	2024-11-08T07:00:00	1	Precipitación	0
130280	7	Sololá	704	Santa Lucía Utatlán 	7	Santa Rita 	11	Noviembre	2023-11-21T00:00:00	2024-11-08T07:00:00	8	Radiación solar	35
130281	7	Sololá	704	Santa Lucía Utatlán 	7	Santa Rita 	11	Noviembre	2023-11-21T00:00:00	2024-11-08T08:00:00	2	Temperatura media	22.9
130282	7	Sololá	704	Santa Lucía Utatlán 	7	Santa Rita 	11	Noviembre	2023-11-21T00:00:00	2024-11-08T08:00:00	4	Temperatura máxima	22.9
130283	7	Sololá	704	Santa Lucía Utatlán 	7	Santa Rita 	11	Noviembre	2023-11-21T00:00:00	2024-11-08T08:00:00	3	Temperatura mínima	20.2
130284	7	Sololá	704	Santa Lucía Utatlán 	7	Santa Rita 	11	Noviembre	2023-11-21T00:00:00	2024-11-08T08:00:00	5	Humedad	49
130285	7	Sololá	704	Santa Lucía Utatlán 	7	Santa Rita 	11	Noviembre	2023-11-21T00:00:00	2024-11-08T08:00:00	6	Velocidad del viento	3.2
130286	7	Sololá	704	Santa Lucía Utatlán 	7	Santa Rita 	11	Noviembre	2023-11-21T00:00:00	2024-11-08T08:00:00	7	Dirección del viento	3.22
130287	7	Sololá	704	Santa Lucía Utatlán 	7	Santa Rita 	11	Noviembre	2023-11-21T00:00:00	2024-11-08T08:00:00	1	Precipitación	0
130288	7	Sololá	704	Santa Lucía Utatlán 	7	Santa Rita 	11	Noviembre	2023-11-21T00:00:00	2024-11-08T08:00:00	8	Radiación solar	262
130289	7	Sololá	704	Santa Lucía Utatlán 	7	Santa Rita 	11	Noviembre	2023-11-21T00:00:00	2024-11-08T09:00:00	2	Temperatura media	27.6
130290	7	Sololá	704	Santa Lucía Utatlán 	7	Santa Rita 	11	Noviembre	2023-11-21T00:00:00	2024-11-08T09:00:00	4	Temperatura máxima	27.6
130291	7	Sololá	704	Santa Lucía Utatlán 	7	Santa Rita 	11	Noviembre	2023-11-21T00:00:00	2024-11-08T09:00:00	3	Temperatura mínima	22.9
130292	7	Sololá	704	Santa Lucía Utatlán 	7	Santa Rita 	11	Noviembre	2023-11-21T00:00:00	2024-11-08T09:00:00	5	Humedad	36
130293	7	Sololá	704	Santa Lucía Utatlán 	7	Santa Rita 	11	Noviembre	2023-11-21T00:00:00	2024-11-08T09:00:00	6	Velocidad del viento	3.2
130294	7	Sololá	704	Santa Lucía Utatlán 	7	Santa Rita 	11	Noviembre	2023-11-21T00:00:00	2024-11-08T09:00:00	7	Dirección del viento	3.22
130295	7	Sololá	704	Santa Lucía Utatlán 	7	Santa Rita 	11	Noviembre	2023-11-21T00:00:00	2024-11-08T09:00:00	1	Precipitación	0
130296	7	Sololá	704	Santa Lucía Utatlán 	7	Santa Rita 	11	Noviembre	2023-11-21T00:00:00	2024-11-08T09:00:00	8	Radiación solar	497
130297	7	Sololá	704	Santa Lucía Utatlán 	7	Santa Rita 	11	Noviembre	2023-11-21T00:00:00	2024-11-08T10:00:00	2	Temperatura media	27.9
130298	7	Sololá	704	Santa Lucía Utatlán 	7	Santa Rita 	11	Noviembre	2023-11-21T00:00:00	2024-11-08T10:00:00	4	Temperatura máxima	28.1
130299	7	Sololá	704	Santa Lucía Utatlán 	7	Santa Rita 	11	Noviembre	2023-11-21T00:00:00	2024-11-08T10:00:00	3	Temperatura mínima	27.4
130300	7	Sololá	704	Santa Lucía Utatlán 	7	Santa Rita 	11	Noviembre	2023-11-21T00:00:00	2024-11-08T10:00:00	5	Humedad	18
130301	7	Sololá	704	Santa Lucía Utatlán 	7	Santa Rita 	11	Noviembre	2023-11-21T00:00:00	2024-11-08T10:00:00	6	Velocidad del viento	6.4
130302	7	Sololá	704	Santa Lucía Utatlán 	7	Santa Rita 	11	Noviembre	2023-11-21T00:00:00	2024-11-08T10:00:00	7	Dirección del viento	6.44
130303	7	Sololá	704	Santa Lucía Utatlán 	7	Santa Rita 	11	Noviembre	2023-11-21T00:00:00	2024-11-08T10:00:00	1	Precipitación	0
130304	7	Sololá	704	Santa Lucía Utatlán 	7	Santa Rita 	11	Noviembre	2023-11-21T00:00:00	2024-11-08T10:00:00	8	Radiación solar	684
130305	7	Sololá	704	Santa Lucía Utatlán 	7	Santa Rita 	11	Noviembre	2023-11-21T00:00:00	2024-11-08T11:00:00	2	Temperatura media	28.1
130306	7	Sololá	704	Santa Lucía Utatlán 	7	Santa Rita 	11	Noviembre	2023-11-21T00:00:00	2024-11-08T11:00:00	4	Temperatura máxima	28.8
130307	7	Sololá	704	Santa Lucía Utatlán 	7	Santa Rita 	11	Noviembre	2023-11-21T00:00:00	2024-11-08T11:00:00	3	Temperatura mínima	27.7
130308	7	Sololá	704	Santa Lucía Utatlán 	7	Santa Rita 	11	Noviembre	2023-11-21T00:00:00	2024-11-08T11:00:00	5	Humedad	17
130309	7	Sololá	704	Santa Lucía Utatlán 	7	Santa Rita 	11	Noviembre	2023-11-21T00:00:00	2024-11-08T11:00:00	6	Velocidad del viento	8
130310	7	Sololá	704	Santa Lucía Utatlán 	7	Santa Rita 	11	Noviembre	2023-11-21T00:00:00	2024-11-08T11:00:00	7	Dirección del viento	8.05
130311	7	Sololá	704	Santa Lucía Utatlán 	7	Santa Rita 	11	Noviembre	2023-11-21T00:00:00	2024-11-08T11:00:00	1	Precipitación	0
130312	7	Sololá	704	Santa Lucía Utatlán 	7	Santa Rita 	11	Noviembre	2023-11-21T00:00:00	2024-11-08T11:00:00	8	Radiación solar	806
130313	7	Sololá	704	Santa Lucía Utatlán 	7	Santa Rita 	11	Noviembre	2023-11-21T00:00:00	2024-11-08T12:00:00	2	Temperatura media	27.7
130314	7	Sololá	704	Santa Lucía Utatlán 	7	Santa Rita 	11	Noviembre	2023-11-21T00:00:00	2024-11-08T12:00:00	4	Temperatura máxima	28.1
130315	7	Sololá	704	Santa Lucía Utatlán 	7	Santa Rita 	11	Noviembre	2023-11-21T00:00:00	2024-11-08T12:00:00	3	Temperatura mínima	27.4
130316	7	Sololá	704	Santa Lucía Utatlán 	7	Santa Rita 	11	Noviembre	2023-11-21T00:00:00	2024-11-08T12:00:00	5	Humedad	27
130317	7	Sololá	704	Santa Lucía Utatlán 	7	Santa Rita 	11	Noviembre	2023-11-21T00:00:00	2024-11-08T12:00:00	6	Velocidad del viento	12.9
130318	7	Sololá	704	Santa Lucía Utatlán 	7	Santa Rita 	11	Noviembre	2023-11-21T00:00:00	2024-11-08T12:00:00	7	Dirección del viento	12.87
130319	7	Sololá	704	Santa Lucía Utatlán 	7	Santa Rita 	11	Noviembre	2023-11-21T00:00:00	2024-11-08T12:00:00	1	Precipitación	0
130320	7	Sololá	704	Santa Lucía Utatlán 	7	Santa Rita 	11	Noviembre	2023-11-21T00:00:00	2024-11-08T12:00:00	8	Radiación solar	856
130321	7	Sololá	704	Santa Lucía Utatlán 	7	Santa Rita 	11	Noviembre	2023-11-21T00:00:00	2024-11-08T13:00:00	2	Temperatura media	27.7
130322	7	Sololá	704	Santa Lucía Utatlán 	7	Santa Rita 	11	Noviembre	2023-11-21T00:00:00	2024-11-08T13:00:00	4	Temperatura máxima	28.1
130323	7	Sololá	704	Santa Lucía Utatlán 	7	Santa Rita 	11	Noviembre	2023-11-21T00:00:00	2024-11-08T13:00:00	3	Temperatura mínima	27.5
130324	7	Sololá	704	Santa Lucía Utatlán 	7	Santa Rita 	11	Noviembre	2023-11-21T00:00:00	2024-11-08T13:00:00	5	Humedad	33
130325	7	Sololá	704	Santa Lucía Utatlán 	7	Santa Rita 	11	Noviembre	2023-11-21T00:00:00	2024-11-08T13:00:00	6	Velocidad del viento	11.3
130326	7	Sololá	704	Santa Lucía Utatlán 	7	Santa Rita 	11	Noviembre	2023-11-21T00:00:00	2024-11-08T13:00:00	7	Dirección del viento	11.27
130327	7	Sololá	704	Santa Lucía Utatlán 	7	Santa Rita 	11	Noviembre	2023-11-21T00:00:00	2024-11-08T13:00:00	1	Precipitación	0
130328	7	Sololá	704	Santa Lucía Utatlán 	7	Santa Rita 	11	Noviembre	2023-11-21T00:00:00	2024-11-08T13:00:00	8	Radiación solar	829
130329	7	Sololá	704	Santa Lucía Utatlán 	7	Santa Rita 	11	Noviembre	2023-11-21T00:00:00	2024-11-08T14:00:00	2	Temperatura media	27.2
130330	7	Sololá	704	Santa Lucía Utatlán 	7	Santa Rita 	11	Noviembre	2023-11-21T00:00:00	2024-11-08T14:00:00	4	Temperatura máxima	27.7
130331	7	Sololá	704	Santa Lucía Utatlán 	7	Santa Rita 	11	Noviembre	2023-11-21T00:00:00	2024-11-08T14:00:00	3	Temperatura mínima	26.9
130332	7	Sololá	704	Santa Lucía Utatlán 	7	Santa Rita 	11	Noviembre	2023-11-21T00:00:00	2024-11-08T14:00:00	5	Humedad	34
130333	7	Sololá	704	Santa Lucía Utatlán 	7	Santa Rita 	11	Noviembre	2023-11-21T00:00:00	2024-11-08T14:00:00	6	Velocidad del viento	12.9
130334	7	Sololá	704	Santa Lucía Utatlán 	7	Santa Rita 	11	Noviembre	2023-11-21T00:00:00	2024-11-08T14:00:00	7	Dirección del viento	12.87
130335	7	Sololá	704	Santa Lucía Utatlán 	7	Santa Rita 	11	Noviembre	2023-11-21T00:00:00	2024-11-08T14:00:00	1	Precipitación	0
130336	7	Sololá	704	Santa Lucía Utatlán 	7	Santa Rita 	11	Noviembre	2023-11-21T00:00:00	2024-11-08T14:00:00	8	Radiación solar	736
130337	7	Sololá	704	Santa Lucía Utatlán 	7	Santa Rita 	11	Noviembre	2023-11-21T00:00:00	2024-11-08T15:00:00	2	Temperatura media	26.9
130338	7	Sololá	704	Santa Lucía Utatlán 	7	Santa Rita 	11	Noviembre	2023-11-21T00:00:00	2024-11-08T15:00:00	4	Temperatura máxima	27.3
130339	7	Sololá	704	Santa Lucía Utatlán 	7	Santa Rita 	11	Noviembre	2023-11-21T00:00:00	2024-11-08T15:00:00	3	Temperatura mínima	26.4
130340	7	Sololá	704	Santa Lucía Utatlán 	7	Santa Rita 	11	Noviembre	2023-11-21T00:00:00	2024-11-08T15:00:00	5	Humedad	38
130341	7	Sololá	704	Santa Lucía Utatlán 	7	Santa Rita 	11	Noviembre	2023-11-21T00:00:00	2024-11-08T15:00:00	6	Velocidad del viento	11.3
130342	7	Sololá	704	Santa Lucía Utatlán 	7	Santa Rita 	11	Noviembre	2023-11-21T00:00:00	2024-11-08T15:00:00	7	Dirección del viento	11.27
130343	7	Sololá	704	Santa Lucía Utatlán 	7	Santa Rita 	11	Noviembre	2023-11-21T00:00:00	2024-11-08T15:00:00	1	Precipitación	0
130344	7	Sololá	704	Santa Lucía Utatlán 	7	Santa Rita 	11	Noviembre	2023-11-21T00:00:00	2024-11-08T15:00:00	8	Radiación solar	586
130345	7	Sololá	704	Santa Lucía Utatlán 	7	Santa Rita 	11	Noviembre	2023-11-21T00:00:00	2024-11-08T16:00:00	2	Temperatura media	25.9
130346	7	Sololá	704	Santa Lucía Utatlán 	7	Santa Rita 	11	Noviembre	2023-11-21T00:00:00	2024-11-08T16:00:00	4	Temperatura máxima	27.2
130347	7	Sololá	704	Santa Lucía Utatlán 	7	Santa Rita 	11	Noviembre	2023-11-21T00:00:00	2024-11-08T16:00:00	3	Temperatura mínima	25.8
130348	7	Sololá	704	Santa Lucía Utatlán 	7	Santa Rita 	11	Noviembre	2023-11-21T00:00:00	2024-11-08T16:00:00	5	Humedad	46
130349	7	Sololá	704	Santa Lucía Utatlán 	7	Santa Rita 	11	Noviembre	2023-11-21T00:00:00	2024-11-08T16:00:00	6	Velocidad del viento	6.4
130350	7	Sololá	704	Santa Lucía Utatlán 	7	Santa Rita 	11	Noviembre	2023-11-21T00:00:00	2024-11-08T16:00:00	7	Dirección del viento	6.44
130351	7	Sololá	704	Santa Lucía Utatlán 	7	Santa Rita 	11	Noviembre	2023-11-21T00:00:00	2024-11-08T16:00:00	1	Precipitación	0
130352	7	Sololá	704	Santa Lucía Utatlán 	7	Santa Rita 	11	Noviembre	2023-11-21T00:00:00	2024-11-08T16:00:00	8	Radiación solar	383
130353	7	Sololá	704	Santa Lucía Utatlán 	7	Santa Rita 	11	Noviembre	2023-11-21T00:00:00	2024-11-08T17:00:00	2	Temperatura media	23
130354	7	Sololá	704	Santa Lucía Utatlán 	7	Santa Rita 	11	Noviembre	2023-11-21T00:00:00	2024-11-08T17:00:00	4	Temperatura máxima	25.9
130355	7	Sololá	704	Santa Lucía Utatlán 	7	Santa Rita 	11	Noviembre	2023-11-21T00:00:00	2024-11-08T17:00:00	3	Temperatura mínima	23
130356	7	Sololá	704	Santa Lucía Utatlán 	7	Santa Rita 	11	Noviembre	2023-11-21T00:00:00	2024-11-08T17:00:00	5	Humedad	46
130357	7	Sololá	704	Santa Lucía Utatlán 	7	Santa Rita 	11	Noviembre	2023-11-21T00:00:00	2024-11-08T17:00:00	6	Velocidad del viento	6.4
130358	7	Sololá	704	Santa Lucía Utatlán 	7	Santa Rita 	11	Noviembre	2023-11-21T00:00:00	2024-11-08T17:00:00	7	Dirección del viento	6.44
130359	7	Sololá	704	Santa Lucía Utatlán 	7	Santa Rita 	11	Noviembre	2023-11-21T00:00:00	2024-11-08T17:00:00	1	Precipitación	0
130360	7	Sololá	704	Santa Lucía Utatlán 	7	Santa Rita 	11	Noviembre	2023-11-21T00:00:00	2024-11-08T17:00:00	8	Radiación solar	130
130361	7	Sololá	704	Santa Lucía Utatlán 	7	Santa Rita 	11	Noviembre	2023-11-21T00:00:00	2024-11-08T18:00:00	2	Temperatura media	20.9
130362	7	Sololá	704	Santa Lucía Utatlán 	7	Santa Rita 	11	Noviembre	2023-11-21T00:00:00	2024-11-08T18:00:00	4	Temperatura máxima	23
130363	7	Sololá	704	Santa Lucía Utatlán 	7	Santa Rita 	11	Noviembre	2023-11-21T00:00:00	2024-11-08T18:00:00	3	Temperatura mínima	20.9
130364	7	Sololá	704	Santa Lucía Utatlán 	7	Santa Rita 	11	Noviembre	2023-11-21T00:00:00	2024-11-08T18:00:00	5	Humedad	61
130365	7	Sololá	704	Santa Lucía Utatlán 	7	Santa Rita 	11	Noviembre	2023-11-21T00:00:00	2024-11-08T18:00:00	6	Velocidad del viento	9.7
130366	7	Sololá	704	Santa Lucía Utatlán 	7	Santa Rita 	11	Noviembre	2023-11-21T00:00:00	2024-11-08T18:00:00	7	Dirección del viento	9.66
130367	7	Sololá	704	Santa Lucía Utatlán 	7	Santa Rita 	11	Noviembre	2023-11-21T00:00:00	2024-11-08T18:00:00	1	Precipitación	0
130368	7	Sololá	704	Santa Lucía Utatlán 	7	Santa Rita 	11	Noviembre	2023-11-21T00:00:00	2024-11-08T18:00:00	8	Radiación solar	5
130369	7	Sololá	704	Santa Lucía Utatlán 	7	Santa Rita 	11	Noviembre	2023-11-21T00:00:00	2024-11-08T19:00:00	2	Temperatura media	20.6
130370	7	Sololá	704	Santa Lucía Utatlán 	7	Santa Rita 	11	Noviembre	2023-11-21T00:00:00	2024-11-08T19:00:00	4	Temperatura máxima	20.9
130371	7	Sololá	704	Santa Lucía Utatlán 	7	Santa Rita 	11	Noviembre	2023-11-21T00:00:00	2024-11-08T19:00:00	3	Temperatura mínima	19.5
130372	7	Sololá	704	Santa Lucía Utatlán 	7	Santa Rita 	11	Noviembre	2023-11-21T00:00:00	2024-11-08T19:00:00	5	Humedad	58
130373	7	Sololá	704	Santa Lucía Utatlán 	7	Santa Rita 	11	Noviembre	2023-11-21T00:00:00	2024-11-08T19:00:00	6	Velocidad del viento	4.8
130374	7	Sololá	704	Santa Lucía Utatlán 	7	Santa Rita 	11	Noviembre	2023-11-21T00:00:00	2024-11-08T19:00:00	7	Dirección del viento	4.83
130375	7	Sololá	704	Santa Lucía Utatlán 	7	Santa Rita 	11	Noviembre	2023-11-21T00:00:00	2024-11-08T19:00:00	1	Precipitación	0
130376	7	Sololá	704	Santa Lucía Utatlán 	7	Santa Rita 	11	Noviembre	2023-11-21T00:00:00	2024-11-08T19:00:00	8	Radiación solar	0
130377	7	Sololá	704	Santa Lucía Utatlán 	7	Santa Rita 	11	Noviembre	2023-11-21T00:00:00	2024-11-08T20:00:00	2	Temperatura media	19.9
130378	7	Sololá	704	Santa Lucía Utatlán 	7	Santa Rita 	11	Noviembre	2023-11-21T00:00:00	2024-11-08T20:00:00	4	Temperatura máxima	20.6
130379	7	Sololá	704	Santa Lucía Utatlán 	7	Santa Rita 	11	Noviembre	2023-11-21T00:00:00	2024-11-08T20:00:00	3	Temperatura mínima	17.3
130380	7	Sololá	704	Santa Lucía Utatlán 	7	Santa Rita 	11	Noviembre	2023-11-21T00:00:00	2024-11-08T20:00:00	5	Humedad	56
130381	7	Sololá	704	Santa Lucía Utatlán 	7	Santa Rita 	11	Noviembre	2023-11-21T00:00:00	2024-11-08T20:00:00	6	Velocidad del viento	4.8
130382	7	Sololá	704	Santa Lucía Utatlán 	7	Santa Rita 	11	Noviembre	2023-11-21T00:00:00	2024-11-08T20:00:00	7	Dirección del viento	4.83
130383	7	Sololá	704	Santa Lucía Utatlán 	7	Santa Rita 	11	Noviembre	2023-11-21T00:00:00	2024-11-08T20:00:00	1	Precipitación	0
130384	7	Sololá	704	Santa Lucía Utatlán 	7	Santa Rita 	11	Noviembre	2023-11-21T00:00:00	2024-11-08T20:00:00	8	Radiación solar	0
130385	7	Sololá	704	Santa Lucía Utatlán 	7	Santa Rita 	11	Noviembre	2023-11-21T00:00:00	2024-11-08T21:00:00	2	Temperatura media	19.8
130386	7	Sololá	704	Santa Lucía Utatlán 	7	Santa Rita 	11	Noviembre	2023-11-21T00:00:00	2024-11-08T21:00:00	4	Temperatura máxima	20.2
130387	7	Sololá	704	Santa Lucía Utatlán 	7	Santa Rita 	11	Noviembre	2023-11-21T00:00:00	2024-11-08T21:00:00	3	Temperatura mínima	19.4
130388	7	Sololá	704	Santa Lucía Utatlán 	7	Santa Rita 	11	Noviembre	2023-11-21T00:00:00	2024-11-08T21:00:00	5	Humedad	55
130389	7	Sololá	704	Santa Lucía Utatlán 	7	Santa Rita 	11	Noviembre	2023-11-21T00:00:00	2024-11-08T21:00:00	6	Velocidad del viento	11.3
130390	7	Sololá	704	Santa Lucía Utatlán 	7	Santa Rita 	11	Noviembre	2023-11-21T00:00:00	2024-11-08T21:00:00	7	Dirección del viento	11.27
130391	7	Sololá	704	Santa Lucía Utatlán 	7	Santa Rita 	11	Noviembre	2023-11-21T00:00:00	2024-11-08T21:00:00	1	Precipitación	0
130392	7	Sololá	704	Santa Lucía Utatlán 	7	Santa Rita 	11	Noviembre	2023-11-21T00:00:00	2024-11-08T21:00:00	8	Radiación solar	0
130393	7	Sololá	704	Santa Lucía Utatlán 	7	Santa Rita 	11	Noviembre	2023-11-21T00:00:00	2024-11-08T22:00:00	2	Temperatura media	20.9
130394	7	Sololá	704	Santa Lucía Utatlán 	7	Santa Rita 	11	Noviembre	2023-11-21T00:00:00	2024-11-08T22:00:00	4	Temperatura máxima	20.9
130395	7	Sololá	704	Santa Lucía Utatlán 	7	Santa Rita 	11	Noviembre	2023-11-21T00:00:00	2024-11-08T22:00:00	3	Temperatura mínima	18.8
130396	7	Sololá	704	Santa Lucía Utatlán 	7	Santa Rita 	11	Noviembre	2023-11-21T00:00:00	2024-11-08T22:00:00	5	Humedad	46
130397	7	Sololá	704	Santa Lucía Utatlán 	7	Santa Rita 	11	Noviembre	2023-11-21T00:00:00	2024-11-08T22:00:00	6	Velocidad del viento	8
130398	7	Sololá	704	Santa Lucía Utatlán 	7	Santa Rita 	11	Noviembre	2023-11-21T00:00:00	2024-11-08T22:00:00	7	Dirección del viento	8.05
130399	7	Sololá	704	Santa Lucía Utatlán 	7	Santa Rita 	11	Noviembre	2023-11-21T00:00:00	2024-11-08T22:00:00	1	Precipitación	0
130400	7	Sololá	704	Santa Lucía Utatlán 	7	Santa Rita 	11	Noviembre	2023-11-21T00:00:00	2024-11-08T22:00:00	8	Radiación solar	0
130401	7	Sololá	704	Santa Lucía Utatlán 	7	Santa Rita 	11	Noviembre	2023-11-21T00:00:00	2024-11-08T23:00:00	2	Temperatura media	19.2
130402	7	Sololá	704	Santa Lucía Utatlán 	7	Santa Rita 	11	Noviembre	2023-11-21T00:00:00	2024-11-08T23:00:00	4	Temperatura máxima	19.5
130403	7	Sololá	704	Santa Lucía Utatlán 	7	Santa Rita 	11	Noviembre	2023-11-21T00:00:00	2024-11-08T23:00:00	3	Temperatura mínima	19.2
130404	7	Sololá	704	Santa Lucía Utatlán 	7	Santa Rita 	11	Noviembre	2023-11-21T00:00:00	2024-11-08T23:00:00	5	Humedad	96
130405	7	Sololá	704	Santa Lucía Utatlán 	7	Santa Rita 	11	Noviembre	2023-11-21T00:00:00	2024-11-08T23:00:00	6	Velocidad del viento	1.6
130406	7	Sololá	704	Santa Lucía Utatlán 	7	Santa Rita 	11	Noviembre	2023-11-21T00:00:00	2024-11-08T23:00:00	7	Dirección del viento	1.61
130407	7	Sololá	704	Santa Lucía Utatlán 	7	Santa Rita 	11	Noviembre	2023-11-21T00:00:00	2024-11-08T23:00:00	1	Precipitación	8
130408	7	Sololá	704	Santa Lucía Utatlán 	7	Santa Rita 	11	Noviembre	2023-11-21T00:00:00	2024-11-08T23:00:00	8	Radiación solar	0
130409	7	Sololá	704	Santa Lucía Utatlán 	7	Santa Rita 	11	Noviembre	2023-11-22T00:00:00	2024-11-08T00:00:00	2	Temperatura media	18.8
130410	7	Sololá	704	Santa Lucía Utatlán 	7	Santa Rita 	11	Noviembre	2023-11-22T00:00:00	2024-11-08T00:00:00	4	Temperatura máxima	19.4
130411	7	Sololá	704	Santa Lucía Utatlán 	7	Santa Rita 	11	Noviembre	2023-11-22T00:00:00	2024-11-08T00:00:00	3	Temperatura mínima	18.8
130412	7	Sololá	704	Santa Lucía Utatlán 	7	Santa Rita 	11	Noviembre	2023-11-22T00:00:00	2024-11-08T00:00:00	5	Humedad	95
130413	7	Sololá	704	Santa Lucía Utatlán 	7	Santa Rita 	11	Noviembre	2023-11-22T00:00:00	2024-11-08T00:00:00	6	Velocidad del viento	3.2
130414	7	Sololá	704	Santa Lucía Utatlán 	7	Santa Rita 	11	Noviembre	2023-11-22T00:00:00	2024-11-08T00:00:00	7	Dirección del viento	3.22
130415	7	Sololá	704	Santa Lucía Utatlán 	7	Santa Rita 	11	Noviembre	2023-11-22T00:00:00	2024-11-08T00:00:00	1	Precipitación	0
130416	7	Sololá	704	Santa Lucía Utatlán 	7	Santa Rita 	11	Noviembre	2023-11-22T00:00:00	2024-11-08T00:00:00	8	Radiación solar	0
130417	7	Sololá	704	Santa Lucía Utatlán 	7	Santa Rita 	11	Noviembre	2023-11-22T00:00:00	2024-11-08T01:00:00	2	Temperatura media	18.8
130418	7	Sololá	704	Santa Lucía Utatlán 	7	Santa Rita 	11	Noviembre	2023-11-22T00:00:00	2024-11-08T01:00:00	4	Temperatura máxima	18.8
130419	7	Sololá	704	Santa Lucía Utatlán 	7	Santa Rita 	11	Noviembre	2023-11-22T00:00:00	2024-11-08T01:00:00	3	Temperatura mínima	18.7
130420	7	Sololá	704	Santa Lucía Utatlán 	7	Santa Rita 	11	Noviembre	2023-11-22T00:00:00	2024-11-08T01:00:00	5	Humedad	94
130421	7	Sololá	704	Santa Lucía Utatlán 	7	Santa Rita 	11	Noviembre	2023-11-22T00:00:00	2024-11-08T01:00:00	6	Velocidad del viento	1.6
130422	7	Sololá	704	Santa Lucía Utatlán 	7	Santa Rita 	11	Noviembre	2023-11-22T00:00:00	2024-11-08T01:00:00	7	Dirección del viento	1.61
130423	7	Sololá	704	Santa Lucía Utatlán 	7	Santa Rita 	11	Noviembre	2023-11-22T00:00:00	2024-11-08T01:00:00	1	Precipitación	0
130424	7	Sololá	704	Santa Lucía Utatlán 	7	Santa Rita 	11	Noviembre	2023-11-22T00:00:00	2024-11-08T01:00:00	8	Radiación solar	0
130425	7	Sololá	704	Santa Lucía Utatlán 	7	Santa Rita 	11	Noviembre	2023-11-22T00:00:00	2024-11-08T02:00:00	2	Temperatura media	18.6
130426	7	Sololá	704	Santa Lucía Utatlán 	7	Santa Rita 	11	Noviembre	2023-11-22T00:00:00	2024-11-08T02:00:00	4	Temperatura máxima	19.1
130427	7	Sololá	704	Santa Lucía Utatlán 	7	Santa Rita 	11	Noviembre	2023-11-22T00:00:00	2024-11-08T02:00:00	3	Temperatura mínima	18.4
130428	7	Sololá	704	Santa Lucía Utatlán 	7	Santa Rita 	11	Noviembre	2023-11-22T00:00:00	2024-11-08T02:00:00	5	Humedad	96
130429	7	Sololá	704	Santa Lucía Utatlán 	7	Santa Rita 	11	Noviembre	2023-11-22T00:00:00	2024-11-08T02:00:00	6	Velocidad del viento	3.2
130430	7	Sololá	704	Santa Lucía Utatlán 	7	Santa Rita 	11	Noviembre	2023-11-22T00:00:00	2024-11-08T02:00:00	7	Dirección del viento	3.22
130431	7	Sololá	704	Santa Lucía Utatlán 	7	Santa Rita 	11	Noviembre	2023-11-22T00:00:00	2024-11-08T02:00:00	1	Precipitación	0.2
130432	7	Sololá	704	Santa Lucía Utatlán 	7	Santa Rita 	11	Noviembre	2023-11-22T00:00:00	2024-11-08T02:00:00	8	Radiación solar	0
130433	7	Sololá	704	Santa Lucía Utatlán 	7	Santa Rita 	11	Noviembre	2023-11-22T00:00:00	2024-11-08T03:00:00	2	Temperatura media	18.6
130434	7	Sololá	704	Santa Lucía Utatlán 	7	Santa Rita 	11	Noviembre	2023-11-22T00:00:00	2024-11-08T03:00:00	4	Temperatura máxima	19.1
130435	7	Sololá	704	Santa Lucía Utatlán 	7	Santa Rita 	11	Noviembre	2023-11-22T00:00:00	2024-11-08T03:00:00	3	Temperatura mínima	18.4
130436	7	Sololá	704	Santa Lucía Utatlán 	7	Santa Rita 	11	Noviembre	2023-11-22T00:00:00	2024-11-08T03:00:00	5	Humedad	95
130437	7	Sololá	704	Santa Lucía Utatlán 	7	Santa Rita 	11	Noviembre	2023-11-22T00:00:00	2024-11-08T03:00:00	6	Velocidad del viento	1.6
130438	7	Sololá	704	Santa Lucía Utatlán 	7	Santa Rita 	11	Noviembre	2023-11-22T00:00:00	2024-11-08T03:00:00	7	Dirección del viento	1.61
130439	7	Sololá	704	Santa Lucía Utatlán 	7	Santa Rita 	11	Noviembre	2023-11-22T00:00:00	2024-11-08T03:00:00	1	Precipitación	0
130440	7	Sololá	704	Santa Lucía Utatlán 	7	Santa Rita 	11	Noviembre	2023-11-22T00:00:00	2024-11-08T03:00:00	8	Radiación solar	0
130441	7	Sololá	704	Santa Lucía Utatlán 	7	Santa Rita 	11	Noviembre	2023-11-22T00:00:00	2024-11-08T04:00:00	2	Temperatura media	19.7
130442	7	Sololá	704	Santa Lucía Utatlán 	7	Santa Rita 	11	Noviembre	2023-11-22T00:00:00	2024-11-08T04:00:00	4	Temperatura máxima	19.8
130443	7	Sololá	704	Santa Lucía Utatlán 	7	Santa Rita 	11	Noviembre	2023-11-22T00:00:00	2024-11-08T04:00:00	3	Temperatura mínima	18.1
130444	7	Sololá	704	Santa Lucía Utatlán 	7	Santa Rita 	11	Noviembre	2023-11-22T00:00:00	2024-11-08T04:00:00	5	Humedad	85
130445	7	Sololá	704	Santa Lucía Utatlán 	7	Santa Rita 	11	Noviembre	2023-11-22T00:00:00	2024-11-08T04:00:00	6	Velocidad del viento	4.8
130446	7	Sololá	704	Santa Lucía Utatlán 	7	Santa Rita 	11	Noviembre	2023-11-22T00:00:00	2024-11-08T04:00:00	7	Dirección del viento	4.83
130447	7	Sololá	704	Santa Lucía Utatlán 	7	Santa Rita 	11	Noviembre	2023-11-22T00:00:00	2024-11-08T04:00:00	1	Precipitación	0
130448	7	Sololá	704	Santa Lucía Utatlán 	7	Santa Rita 	11	Noviembre	2023-11-22T00:00:00	2024-11-08T04:00:00	8	Radiación solar	0
130449	7	Sololá	704	Santa Lucía Utatlán 	7	Santa Rita 	11	Noviembre	2023-11-22T00:00:00	2024-11-08T05:00:00	2	Temperatura media	22.1
130450	7	Sololá	704	Santa Lucía Utatlán 	7	Santa Rita 	11	Noviembre	2023-11-22T00:00:00	2024-11-08T05:00:00	4	Temperatura máxima	22.1
130451	7	Sololá	704	Santa Lucía Utatlán 	7	Santa Rita 	11	Noviembre	2023-11-22T00:00:00	2024-11-08T05:00:00	3	Temperatura mínima	19.1
130452	7	Sololá	704	Santa Lucía Utatlán 	7	Santa Rita 	11	Noviembre	2023-11-22T00:00:00	2024-11-08T05:00:00	5	Humedad	66
130453	7	Sololá	704	Santa Lucía Utatlán 	7	Santa Rita 	11	Noviembre	2023-11-22T00:00:00	2024-11-08T05:00:00	6	Velocidad del viento	6.4
130454	7	Sololá	704	Santa Lucía Utatlán 	7	Santa Rita 	11	Noviembre	2023-11-22T00:00:00	2024-11-08T05:00:00	7	Dirección del viento	6.44
130455	7	Sololá	704	Santa Lucía Utatlán 	7	Santa Rita 	11	Noviembre	2023-11-22T00:00:00	2024-11-08T05:00:00	1	Precipitación	0
130456	7	Sololá	704	Santa Lucía Utatlán 	7	Santa Rita 	11	Noviembre	2023-11-22T00:00:00	2024-11-08T05:00:00	8	Radiación solar	0
130457	7	Sololá	704	Santa Lucía Utatlán 	7	Santa Rita 	11	Noviembre	2023-11-22T00:00:00	2024-11-08T06:00:00	2	Temperatura media	22.9
130458	7	Sololá	704	Santa Lucía Utatlán 	7	Santa Rita 	11	Noviembre	2023-11-22T00:00:00	2024-11-08T06:00:00	4	Temperatura máxima	23.1
130459	7	Sololá	704	Santa Lucía Utatlán 	7	Santa Rita 	11	Noviembre	2023-11-22T00:00:00	2024-11-08T06:00:00	3	Temperatura mínima	22
130460	7	Sololá	704	Santa Lucía Utatlán 	7	Santa Rita 	11	Noviembre	2023-11-22T00:00:00	2024-11-08T06:00:00	5	Humedad	65
130461	7	Sololá	704	Santa Lucía Utatlán 	7	Santa Rita 	11	Noviembre	2023-11-22T00:00:00	2024-11-08T06:00:00	6	Velocidad del viento	11.3
130462	7	Sololá	704	Santa Lucía Utatlán 	7	Santa Rita 	11	Noviembre	2023-11-22T00:00:00	2024-11-08T06:00:00	7	Dirección del viento	11.27
130463	7	Sololá	704	Santa Lucía Utatlán 	7	Santa Rita 	11	Noviembre	2023-11-22T00:00:00	2024-11-08T06:00:00	1	Precipitación	0
130464	7	Sololá	704	Santa Lucía Utatlán 	7	Santa Rita 	11	Noviembre	2023-11-22T00:00:00	2024-11-08T06:00:00	8	Radiación solar	0
130465	7	Sololá	704	Santa Lucía Utatlán 	7	Santa Rita 	11	Noviembre	2023-11-22T00:00:00	2024-11-08T07:00:00	2	Temperatura media	23.2
130466	7	Sololá	704	Santa Lucía Utatlán 	7	Santa Rita 	11	Noviembre	2023-11-22T00:00:00	2024-11-08T07:00:00	4	Temperatura máxima	23.4
130467	7	Sololá	704	Santa Lucía Utatlán 	7	Santa Rita 	11	Noviembre	2023-11-22T00:00:00	2024-11-08T07:00:00	3	Temperatura mínima	22.8
130468	7	Sololá	704	Santa Lucía Utatlán 	7	Santa Rita 	11	Noviembre	2023-11-22T00:00:00	2024-11-08T07:00:00	5	Humedad	65
130469	7	Sololá	704	Santa Lucía Utatlán 	7	Santa Rita 	11	Noviembre	2023-11-22T00:00:00	2024-11-08T07:00:00	6	Velocidad del viento	11.3
130470	7	Sololá	704	Santa Lucía Utatlán 	7	Santa Rita 	11	Noviembre	2023-11-22T00:00:00	2024-11-08T07:00:00	7	Dirección del viento	11.27
130471	7	Sololá	704	Santa Lucía Utatlán 	7	Santa Rita 	11	Noviembre	2023-11-22T00:00:00	2024-11-08T07:00:00	1	Precipitación	0
130472	7	Sololá	704	Santa Lucía Utatlán 	7	Santa Rita 	11	Noviembre	2023-11-22T00:00:00	2024-11-08T07:00:00	8	Radiación solar	82
130473	7	Sololá	704	Santa Lucía Utatlán 	7	Santa Rita 	11	Noviembre	2023-11-22T00:00:00	2024-11-08T08:00:00	2	Temperatura media	24.1
130474	7	Sololá	704	Santa Lucía Utatlán 	7	Santa Rita 	11	Noviembre	2023-11-22T00:00:00	2024-11-08T08:00:00	4	Temperatura máxima	24.1
130475	7	Sololá	704	Santa Lucía Utatlán 	7	Santa Rita 	11	Noviembre	2023-11-22T00:00:00	2024-11-08T08:00:00	3	Temperatura mínima	23.2
130476	7	Sololá	704	Santa Lucía Utatlán 	7	Santa Rita 	11	Noviembre	2023-11-22T00:00:00	2024-11-08T08:00:00	5	Humedad	63
130477	7	Sololá	704	Santa Lucía Utatlán 	7	Santa Rita 	11	Noviembre	2023-11-22T00:00:00	2024-11-08T08:00:00	6	Velocidad del viento	9.7
130478	7	Sololá	704	Santa Lucía Utatlán 	7	Santa Rita 	11	Noviembre	2023-11-22T00:00:00	2024-11-08T08:00:00	7	Dirección del viento	9.66
130479	7	Sololá	704	Santa Lucía Utatlán 	7	Santa Rita 	11	Noviembre	2023-11-22T00:00:00	2024-11-08T08:00:00	1	Precipitación	0
130480	7	Sololá	704	Santa Lucía Utatlán 	7	Santa Rita 	11	Noviembre	2023-11-22T00:00:00	2024-11-08T08:00:00	8	Radiación solar	320
130481	7	Sololá	704	Santa Lucía Utatlán 	7	Santa Rita 	11	Noviembre	2023-11-22T00:00:00	2024-11-08T09:00:00	2	Temperatura media	24.2
130482	7	Sololá	704	Santa Lucía Utatlán 	7	Santa Rita 	11	Noviembre	2023-11-22T00:00:00	2024-11-08T09:00:00	4	Temperatura máxima	24.7
130483	7	Sololá	704	Santa Lucía Utatlán 	7	Santa Rita 	11	Noviembre	2023-11-22T00:00:00	2024-11-08T09:00:00	3	Temperatura mínima	23
130484	7	Sololá	704	Santa Lucía Utatlán 	7	Santa Rita 	11	Noviembre	2023-11-22T00:00:00	2024-11-08T09:00:00	5	Humedad	66
130485	7	Sololá	704	Santa Lucía Utatlán 	7	Santa Rita 	11	Noviembre	2023-11-22T00:00:00	2024-11-08T09:00:00	6	Velocidad del viento	11.3
130486	7	Sololá	704	Santa Lucía Utatlán 	7	Santa Rita 	11	Noviembre	2023-11-22T00:00:00	2024-11-08T09:00:00	7	Dirección del viento	11.27
130487	7	Sololá	704	Santa Lucía Utatlán 	7	Santa Rita 	11	Noviembre	2023-11-22T00:00:00	2024-11-08T09:00:00	1	Precipitación	0
130488	7	Sololá	704	Santa Lucía Utatlán 	7	Santa Rita 	11	Noviembre	2023-11-22T00:00:00	2024-11-08T09:00:00	8	Radiación solar	525
130489	7	Sololá	704	Santa Lucía Utatlán 	7	Santa Rita 	11	Noviembre	2023-11-22T00:00:00	2024-11-08T10:00:00	2	Temperatura media	23.6
130490	7	Sololá	704	Santa Lucía Utatlán 	7	Santa Rita 	11	Noviembre	2023-11-22T00:00:00	2024-11-08T10:00:00	4	Temperatura máxima	24.2
130491	7	Sololá	704	Santa Lucía Utatlán 	7	Santa Rita 	11	Noviembre	2023-11-22T00:00:00	2024-11-08T10:00:00	3	Temperatura mínima	22.6
130492	7	Sololá	704	Santa Lucía Utatlán 	7	Santa Rita 	11	Noviembre	2023-11-22T00:00:00	2024-11-08T10:00:00	5	Humedad	64
130493	7	Sololá	704	Santa Lucía Utatlán 	7	Santa Rita 	11	Noviembre	2023-11-22T00:00:00	2024-11-08T10:00:00	6	Velocidad del viento	12.9
130494	7	Sololá	704	Santa Lucía Utatlán 	7	Santa Rita 	11	Noviembre	2023-11-22T00:00:00	2024-11-08T10:00:00	7	Dirección del viento	12.87
130495	7	Sololá	704	Santa Lucía Utatlán 	7	Santa Rita 	11	Noviembre	2023-11-22T00:00:00	2024-11-08T10:00:00	1	Precipitación	0
130496	7	Sololá	704	Santa Lucía Utatlán 	7	Santa Rita 	11	Noviembre	2023-11-22T00:00:00	2024-11-08T10:00:00	8	Radiación solar	707
130497	7	Sololá	704	Santa Lucía Utatlán 	7	Santa Rita 	11	Noviembre	2023-11-22T00:00:00	2024-11-08T11:00:00	2	Temperatura media	23.7
130498	7	Sololá	704	Santa Lucía Utatlán 	7	Santa Rita 	11	Noviembre	2023-11-22T00:00:00	2024-11-08T11:00:00	4	Temperatura máxima	24.5
130499	7	Sololá	704	Santa Lucía Utatlán 	7	Santa Rita 	11	Noviembre	2023-11-22T00:00:00	2024-11-08T11:00:00	3	Temperatura mínima	23.4
130500	7	Sololá	704	Santa Lucía Utatlán 	7	Santa Rita 	11	Noviembre	2023-11-22T00:00:00	2024-11-08T11:00:00	5	Humedad	64
130501	7	Sololá	704	Santa Lucía Utatlán 	7	Santa Rita 	11	Noviembre	2023-11-22T00:00:00	2024-11-08T11:00:00	6	Velocidad del viento	11.3
130502	7	Sololá	704	Santa Lucía Utatlán 	7	Santa Rita 	11	Noviembre	2023-11-22T00:00:00	2024-11-08T11:00:00	7	Dirección del viento	11.27
130503	7	Sololá	704	Santa Lucía Utatlán 	7	Santa Rita 	11	Noviembre	2023-11-22T00:00:00	2024-11-08T11:00:00	1	Precipitación	0
130504	7	Sololá	704	Santa Lucía Utatlán 	7	Santa Rita 	11	Noviembre	2023-11-22T00:00:00	2024-11-08T11:00:00	8	Radiación solar	798
130505	7	Sololá	704	Santa Lucía Utatlán 	7	Santa Rita 	11	Noviembre	2023-11-22T00:00:00	2024-11-08T12:00:00	2	Temperatura media	23.1
130506	7	Sololá	704	Santa Lucía Utatlán 	7	Santa Rita 	11	Noviembre	2023-11-22T00:00:00	2024-11-08T12:00:00	4	Temperatura máxima	23.7
130507	7	Sololá	704	Santa Lucía Utatlán 	7	Santa Rita 	11	Noviembre	2023-11-22T00:00:00	2024-11-08T12:00:00	3	Temperatura mínima	23
130508	7	Sololá	704	Santa Lucía Utatlán 	7	Santa Rita 	11	Noviembre	2023-11-22T00:00:00	2024-11-08T12:00:00	5	Humedad	65
130509	7	Sololá	704	Santa Lucía Utatlán 	7	Santa Rita 	11	Noviembre	2023-11-22T00:00:00	2024-11-08T12:00:00	6	Velocidad del viento	12.9
130510	7	Sololá	704	Santa Lucía Utatlán 	7	Santa Rita 	11	Noviembre	2023-11-22T00:00:00	2024-11-08T12:00:00	7	Dirección del viento	12.87
130511	7	Sololá	704	Santa Lucía Utatlán 	7	Santa Rita 	11	Noviembre	2023-11-22T00:00:00	2024-11-08T12:00:00	1	Precipitación	0
130512	7	Sololá	704	Santa Lucía Utatlán 	7	Santa Rita 	11	Noviembre	2023-11-22T00:00:00	2024-11-08T12:00:00	8	Radiación solar	832
130513	7	Sololá	704	Santa Lucía Utatlán 	7	Santa Rita 	11	Noviembre	2023-11-22T00:00:00	2024-11-08T13:00:00	2	Temperatura media	23.2
130514	7	Sololá	704	Santa Lucía Utatlán 	7	Santa Rita 	11	Noviembre	2023-11-22T00:00:00	2024-11-08T13:00:00	4	Temperatura máxima	23.3
130515	7	Sololá	704	Santa Lucía Utatlán 	7	Santa Rita 	11	Noviembre	2023-11-22T00:00:00	2024-11-08T13:00:00	3	Temperatura mínima	22.6
130516	7	Sololá	704	Santa Lucía Utatlán 	7	Santa Rita 	11	Noviembre	2023-11-22T00:00:00	2024-11-08T13:00:00	5	Humedad	67
130517	7	Sololá	704	Santa Lucía Utatlán 	7	Santa Rita 	11	Noviembre	2023-11-22T00:00:00	2024-11-08T13:00:00	6	Velocidad del viento	12.9
130518	7	Sololá	704	Santa Lucía Utatlán 	7	Santa Rita 	11	Noviembre	2023-11-22T00:00:00	2024-11-08T13:00:00	7	Dirección del viento	12.87
130519	7	Sololá	704	Santa Lucía Utatlán 	7	Santa Rita 	11	Noviembre	2023-11-22T00:00:00	2024-11-08T13:00:00	1	Precipitación	0
130520	7	Sololá	704	Santa Lucía Utatlán 	7	Santa Rita 	11	Noviembre	2023-11-22T00:00:00	2024-11-08T13:00:00	8	Radiación solar	808
130521	7	Sololá	704	Santa Lucía Utatlán 	7	Santa Rita 	11	Noviembre	2023-11-22T00:00:00	2024-11-08T14:00:00	2	Temperatura media	22.2
130522	7	Sololá	704	Santa Lucía Utatlán 	7	Santa Rita 	11	Noviembre	2023-11-22T00:00:00	2024-11-08T14:00:00	4	Temperatura máxima	23.3
130523	7	Sololá	704	Santa Lucía Utatlán 	7	Santa Rita 	11	Noviembre	2023-11-22T00:00:00	2024-11-08T14:00:00	3	Temperatura mínima	21.9
130524	7	Sololá	704	Santa Lucía Utatlán 	7	Santa Rita 	11	Noviembre	2023-11-22T00:00:00	2024-11-08T14:00:00	5	Humedad	70
130525	7	Sololá	704	Santa Lucía Utatlán 	7	Santa Rita 	11	Noviembre	2023-11-22T00:00:00	2024-11-08T14:00:00	6	Velocidad del viento	11.3
130526	7	Sololá	704	Santa Lucía Utatlán 	7	Santa Rita 	11	Noviembre	2023-11-22T00:00:00	2024-11-08T14:00:00	7	Dirección del viento	11.27
130527	7	Sololá	704	Santa Lucía Utatlán 	7	Santa Rita 	11	Noviembre	2023-11-22T00:00:00	2024-11-08T14:00:00	1	Precipitación	0
130528	7	Sololá	704	Santa Lucía Utatlán 	7	Santa Rita 	11	Noviembre	2023-11-22T00:00:00	2024-11-08T14:00:00	8	Radiación solar	716
130529	7	Sololá	704	Santa Lucía Utatlán 	7	Santa Rita 	11	Noviembre	2023-11-22T00:00:00	2024-11-08T15:00:00	2	Temperatura media	20
130530	7	Sololá	704	Santa Lucía Utatlán 	7	Santa Rita 	11	Noviembre	2023-11-22T00:00:00	2024-11-08T15:00:00	4	Temperatura máxima	22.3
130531	7	Sololá	704	Santa Lucía Utatlán 	7	Santa Rita 	11	Noviembre	2023-11-22T00:00:00	2024-11-08T15:00:00	3	Temperatura mínima	20
130532	7	Sololá	704	Santa Lucía Utatlán 	7	Santa Rita 	11	Noviembre	2023-11-22T00:00:00	2024-11-08T15:00:00	5	Humedad	79
130533	7	Sololá	704	Santa Lucía Utatlán 	7	Santa Rita 	11	Noviembre	2023-11-22T00:00:00	2024-11-08T15:00:00	6	Velocidad del viento	9.7
130534	7	Sololá	704	Santa Lucía Utatlán 	7	Santa Rita 	11	Noviembre	2023-11-22T00:00:00	2024-11-08T15:00:00	7	Dirección del viento	9.66
130535	7	Sololá	704	Santa Lucía Utatlán 	7	Santa Rita 	11	Noviembre	2023-11-22T00:00:00	2024-11-08T15:00:00	1	Precipitación	0
130536	7	Sololá	704	Santa Lucía Utatlán 	7	Santa Rita 	11	Noviembre	2023-11-22T00:00:00	2024-11-08T15:00:00	8	Radiación solar	550
130537	7	Sololá	704	Santa Lucía Utatlán 	7	Santa Rita 	11	Noviembre	2023-11-22T00:00:00	2024-11-08T16:00:00	2	Temperatura media	19.9
130538	7	Sololá	704	Santa Lucía Utatlán 	7	Santa Rita 	11	Noviembre	2023-11-22T00:00:00	2024-11-08T16:00:00	4	Temperatura máxima	20.1
130539	7	Sololá	704	Santa Lucía Utatlán 	7	Santa Rita 	11	Noviembre	2023-11-22T00:00:00	2024-11-08T16:00:00	3	Temperatura mínima	19.5
130540	7	Sololá	704	Santa Lucía Utatlán 	7	Santa Rita 	11	Noviembre	2023-11-22T00:00:00	2024-11-08T16:00:00	5	Humedad	77
130541	7	Sololá	704	Santa Lucía Utatlán 	7	Santa Rita 	11	Noviembre	2023-11-22T00:00:00	2024-11-08T16:00:00	6	Velocidad del viento	16.1
130542	7	Sololá	704	Santa Lucía Utatlán 	7	Santa Rita 	11	Noviembre	2023-11-22T00:00:00	2024-11-08T16:00:00	7	Dirección del viento	16.09
130543	7	Sololá	704	Santa Lucía Utatlán 	7	Santa Rita 	11	Noviembre	2023-11-22T00:00:00	2024-11-08T16:00:00	1	Precipitación	0
130544	7	Sololá	704	Santa Lucía Utatlán 	7	Santa Rita 	11	Noviembre	2023-11-22T00:00:00	2024-11-08T16:00:00	8	Radiación solar	327
130545	7	Sololá	704	Santa Lucía Utatlán 	7	Santa Rita 	11	Noviembre	2023-11-22T00:00:00	2024-11-08T17:00:00	2	Temperatura media	20
130546	7	Sololá	704	Santa Lucía Utatlán 	7	Santa Rita 	11	Noviembre	2023-11-22T00:00:00	2024-11-08T17:00:00	4	Temperatura máxima	20.1
130547	7	Sololá	704	Santa Lucía Utatlán 	7	Santa Rita 	11	Noviembre	2023-11-22T00:00:00	2024-11-08T17:00:00	3	Temperatura mínima	19.7
130548	7	Sololá	704	Santa Lucía Utatlán 	7	Santa Rita 	11	Noviembre	2023-11-22T00:00:00	2024-11-08T17:00:00	5	Humedad	75
130549	7	Sololá	704	Santa Lucía Utatlán 	7	Santa Rita 	11	Noviembre	2023-11-22T00:00:00	2024-11-08T17:00:00	6	Velocidad del viento	11.3
130550	7	Sololá	704	Santa Lucía Utatlán 	7	Santa Rita 	11	Noviembre	2023-11-22T00:00:00	2024-11-08T17:00:00	7	Dirección del viento	11.27
130551	7	Sololá	704	Santa Lucía Utatlán 	7	Santa Rita 	11	Noviembre	2023-11-22T00:00:00	2024-11-08T17:00:00	1	Precipitación	0
130552	7	Sololá	704	Santa Lucía Utatlán 	7	Santa Rita 	11	Noviembre	2023-11-22T00:00:00	2024-11-08T17:00:00	8	Radiación solar	86
130553	7	Sololá	704	Santa Lucía Utatlán 	7	Santa Rita 	11	Noviembre	2023-11-22T00:00:00	2024-11-08T18:00:00	2	Temperatura media	20.1
130554	7	Sololá	704	Santa Lucía Utatlán 	7	Santa Rita 	11	Noviembre	2023-11-22T00:00:00	2024-11-08T18:00:00	4	Temperatura máxima	20.3
130555	7	Sololá	704	Santa Lucía Utatlán 	7	Santa Rita 	11	Noviembre	2023-11-22T00:00:00	2024-11-08T18:00:00	3	Temperatura mínima	19.8
130556	7	Sololá	704	Santa Lucía Utatlán 	7	Santa Rita 	11	Noviembre	2023-11-22T00:00:00	2024-11-08T18:00:00	5	Humedad	74
130557	7	Sololá	704	Santa Lucía Utatlán 	7	Santa Rita 	11	Noviembre	2023-11-22T00:00:00	2024-11-08T18:00:00	6	Velocidad del viento	9.7
130558	7	Sololá	704	Santa Lucía Utatlán 	7	Santa Rita 	11	Noviembre	2023-11-22T00:00:00	2024-11-08T18:00:00	7	Dirección del viento	9.66
130559	7	Sololá	704	Santa Lucía Utatlán 	7	Santa Rita 	11	Noviembre	2023-11-22T00:00:00	2024-11-08T18:00:00	1	Precipitación	0
130560	7	Sololá	704	Santa Lucía Utatlán 	7	Santa Rita 	11	Noviembre	2023-11-22T00:00:00	2024-11-08T18:00:00	8	Radiación solar	2
130561	7	Sololá	704	Santa Lucía Utatlán 	7	Santa Rita 	11	Noviembre	2023-11-22T00:00:00	2024-11-08T19:00:00	2	Temperatura media	20.4
130562	7	Sololá	704	Santa Lucía Utatlán 	7	Santa Rita 	11	Noviembre	2023-11-22T00:00:00	2024-11-08T19:00:00	4	Temperatura máxima	20.6
130563	7	Sololá	704	Santa Lucía Utatlán 	7	Santa Rita 	11	Noviembre	2023-11-22T00:00:00	2024-11-08T19:00:00	3	Temperatura mínima	20.1
130564	7	Sololá	704	Santa Lucía Utatlán 	7	Santa Rita 	11	Noviembre	2023-11-22T00:00:00	2024-11-08T19:00:00	5	Humedad	72
130565	7	Sololá	704	Santa Lucía Utatlán 	7	Santa Rita 	11	Noviembre	2023-11-22T00:00:00	2024-11-08T19:00:00	6	Velocidad del viento	8
130566	7	Sololá	704	Santa Lucía Utatlán 	7	Santa Rita 	11	Noviembre	2023-11-22T00:00:00	2024-11-08T19:00:00	7	Dirección del viento	8.05
130567	7	Sololá	704	Santa Lucía Utatlán 	7	Santa Rita 	11	Noviembre	2023-11-22T00:00:00	2024-11-08T19:00:00	1	Precipitación	0
130568	7	Sololá	704	Santa Lucía Utatlán 	7	Santa Rita 	11	Noviembre	2023-11-22T00:00:00	2024-11-08T19:00:00	8	Radiación solar	0
130569	7	Sololá	704	Santa Lucía Utatlán 	7	Santa Rita 	11	Noviembre	2023-11-22T00:00:00	2024-11-08T20:00:00	2	Temperatura media	19.3
130570	7	Sololá	704	Santa Lucía Utatlán 	7	Santa Rita 	11	Noviembre	2023-11-22T00:00:00	2024-11-08T20:00:00	4	Temperatura máxima	20.6
130571	7	Sololá	704	Santa Lucía Utatlán 	7	Santa Rita 	11	Noviembre	2023-11-22T00:00:00	2024-11-08T20:00:00	3	Temperatura mínima	19.3
130572	7	Sololá	704	Santa Lucía Utatlán 	7	Santa Rita 	11	Noviembre	2023-11-22T00:00:00	2024-11-08T20:00:00	5	Humedad	78
130573	7	Sololá	704	Santa Lucía Utatlán 	7	Santa Rita 	11	Noviembre	2023-11-22T00:00:00	2024-11-08T20:00:00	6	Velocidad del viento	6.4
130574	7	Sololá	704	Santa Lucía Utatlán 	7	Santa Rita 	11	Noviembre	2023-11-22T00:00:00	2024-11-08T20:00:00	7	Dirección del viento	6.44
130575	7	Sololá	704	Santa Lucía Utatlán 	7	Santa Rita 	11	Noviembre	2023-11-22T00:00:00	2024-11-08T20:00:00	1	Precipitación	0
130576	7	Sololá	704	Santa Lucía Utatlán 	7	Santa Rita 	11	Noviembre	2023-11-22T00:00:00	2024-11-08T20:00:00	8	Radiación solar	0
130577	7	Sololá	704	Santa Lucía Utatlán 	7	Santa Rita 	11	Noviembre	2023-11-22T00:00:00	2024-11-08T21:00:00	2	Temperatura media	18.6
130578	7	Sololá	704	Santa Lucía Utatlán 	7	Santa Rita 	11	Noviembre	2023-11-22T00:00:00	2024-11-08T21:00:00	4	Temperatura máxima	19.3
130579	7	Sololá	704	Santa Lucía Utatlán 	7	Santa Rita 	11	Noviembre	2023-11-22T00:00:00	2024-11-08T21:00:00	3	Temperatura mínima	18.1
130580	7	Sololá	704	Santa Lucía Utatlán 	7	Santa Rita 	11	Noviembre	2023-11-22T00:00:00	2024-11-08T21:00:00	5	Humedad	82
130581	7	Sololá	704	Santa Lucía Utatlán 	7	Santa Rita 	11	Noviembre	2023-11-22T00:00:00	2024-11-08T21:00:00	6	Velocidad del viento	3.2
130582	7	Sololá	704	Santa Lucía Utatlán 	7	Santa Rita 	11	Noviembre	2023-11-22T00:00:00	2024-11-08T21:00:00	7	Dirección del viento	3.22
130583	7	Sololá	704	Santa Lucía Utatlán 	7	Santa Rita 	11	Noviembre	2023-11-22T00:00:00	2024-11-08T21:00:00	1	Precipitación	0
130584	7	Sololá	704	Santa Lucía Utatlán 	7	Santa Rita 	11	Noviembre	2023-11-22T00:00:00	2024-11-08T21:00:00	8	Radiación solar	0
130585	7	Sololá	704	Santa Lucía Utatlán 	7	Santa Rita 	11	Noviembre	2023-11-22T00:00:00	2024-11-08T22:00:00	2	Temperatura media	17.8
130586	7	Sololá	704	Santa Lucía Utatlán 	7	Santa Rita 	11	Noviembre	2023-11-22T00:00:00	2024-11-08T22:00:00	4	Temperatura máxima	19.2
130587	7	Sololá	704	Santa Lucía Utatlán 	7	Santa Rita 	11	Noviembre	2023-11-22T00:00:00	2024-11-08T22:00:00	3	Temperatura mínima	17.8
130588	7	Sololá	704	Santa Lucía Utatlán 	7	Santa Rita 	11	Noviembre	2023-11-22T00:00:00	2024-11-08T22:00:00	5	Humedad	87
130589	7	Sololá	704	Santa Lucía Utatlán 	7	Santa Rita 	11	Noviembre	2023-11-22T00:00:00	2024-11-08T22:00:00	6	Velocidad del viento	3.2
130590	7	Sololá	704	Santa Lucía Utatlán 	7	Santa Rita 	11	Noviembre	2023-11-22T00:00:00	2024-11-08T22:00:00	7	Dirección del viento	3.22
130591	7	Sololá	704	Santa Lucía Utatlán 	7	Santa Rita 	11	Noviembre	2023-11-22T00:00:00	2024-11-08T22:00:00	1	Precipitación	0
130592	7	Sololá	704	Santa Lucía Utatlán 	7	Santa Rita 	11	Noviembre	2023-11-22T00:00:00	2024-11-08T22:00:00	8	Radiación solar	0
130593	7	Sololá	704	Santa Lucía Utatlán 	7	Santa Rita 	11	Noviembre	2023-11-22T00:00:00	2024-11-08T23:00:00	2	Temperatura media	17.6
130594	7	Sololá	704	Santa Lucía Utatlán 	7	Santa Rita 	11	Noviembre	2023-11-22T00:00:00	2024-11-08T23:00:00	4	Temperatura máxima	17.8
130595	7	Sololá	704	Santa Lucía Utatlán 	7	Santa Rita 	11	Noviembre	2023-11-22T00:00:00	2024-11-08T23:00:00	3	Temperatura mínima	17.4
130596	7	Sololá	704	Santa Lucía Utatlán 	7	Santa Rita 	11	Noviembre	2023-11-22T00:00:00	2024-11-08T23:00:00	5	Humedad	88
130597	7	Sololá	704	Santa Lucía Utatlán 	7	Santa Rita 	11	Noviembre	2023-11-22T00:00:00	2024-11-08T23:00:00	6	Velocidad del viento	1.6
130598	7	Sololá	704	Santa Lucía Utatlán 	7	Santa Rita 	11	Noviembre	2023-11-22T00:00:00	2024-11-08T23:00:00	7	Dirección del viento	1.61
130599	7	Sololá	704	Santa Lucía Utatlán 	7	Santa Rita 	11	Noviembre	2023-11-22T00:00:00	2024-11-08T23:00:00	1	Precipitación	0
130600	7	Sololá	704	Santa Lucía Utatlán 	7	Santa Rita 	11	Noviembre	2023-11-22T00:00:00	2024-11-08T23:00:00	8	Radiación solar	0
130601	7	Sololá	704	Santa Lucía Utatlán 	7	Santa Rita 	11	Noviembre	2023-11-23T00:00:00	2024-11-08T00:00:00	2	Temperatura media	17.3
130602	7	Sololá	704	Santa Lucía Utatlán 	7	Santa Rita 	11	Noviembre	2023-11-23T00:00:00	2024-11-08T00:00:00	4	Temperatura máxima	17.9
130603	7	Sololá	704	Santa Lucía Utatlán 	7	Santa Rita 	11	Noviembre	2023-11-23T00:00:00	2024-11-08T00:00:00	3	Temperatura mínima	17.3
130604	7	Sololá	704	Santa Lucía Utatlán 	7	Santa Rita 	11	Noviembre	2023-11-23T00:00:00	2024-11-08T00:00:00	5	Humedad	86
130605	7	Sololá	704	Santa Lucía Utatlán 	7	Santa Rita 	11	Noviembre	2023-11-23T00:00:00	2024-11-08T00:00:00	6	Velocidad del viento	1.6
130606	7	Sololá	704	Santa Lucía Utatlán 	7	Santa Rita 	11	Noviembre	2023-11-23T00:00:00	2024-11-08T00:00:00	7	Dirección del viento	1.61
130607	7	Sololá	704	Santa Lucía Utatlán 	7	Santa Rita 	11	Noviembre	2023-11-23T00:00:00	2024-11-08T00:00:00	1	Precipitación	0
130608	7	Sololá	704	Santa Lucía Utatlán 	7	Santa Rita 	11	Noviembre	2023-11-23T00:00:00	2024-11-08T00:00:00	8	Radiación solar	0
130609	7	Sololá	704	Santa Lucía Utatlán 	7	Santa Rita 	11	Noviembre	2023-11-23T00:00:00	2024-11-08T01:00:00	2	Temperatura media	16.7
130610	7	Sololá	704	Santa Lucía Utatlán 	7	Santa Rita 	11	Noviembre	2023-11-23T00:00:00	2024-11-08T01:00:00	4	Temperatura máxima	17.3
130611	7	Sololá	704	Santa Lucía Utatlán 	7	Santa Rita 	11	Noviembre	2023-11-23T00:00:00	2024-11-08T01:00:00	3	Temperatura mínima	16.6
130612	7	Sololá	704	Santa Lucía Utatlán 	7	Santa Rita 	11	Noviembre	2023-11-23T00:00:00	2024-11-08T01:00:00	5	Humedad	84
130613	7	Sololá	704	Santa Lucía Utatlán 	7	Santa Rita 	11	Noviembre	2023-11-23T00:00:00	2024-11-08T01:00:00	6	Velocidad del viento	4.8
130614	7	Sololá	704	Santa Lucía Utatlán 	7	Santa Rita 	11	Noviembre	2023-11-23T00:00:00	2024-11-08T01:00:00	7	Dirección del viento	4.83
130615	7	Sololá	704	Santa Lucía Utatlán 	7	Santa Rita 	11	Noviembre	2023-11-23T00:00:00	2024-11-08T01:00:00	1	Precipitación	0
130616	7	Sololá	704	Santa Lucía Utatlán 	7	Santa Rita 	11	Noviembre	2023-11-23T00:00:00	2024-11-08T01:00:00	8	Radiación solar	0
130617	7	Sololá	704	Santa Lucía Utatlán 	7	Santa Rita 	11	Noviembre	2023-11-23T00:00:00	2024-11-08T02:00:00	2	Temperatura media	16.5
130618	7	Sololá	704	Santa Lucía Utatlán 	7	Santa Rita 	11	Noviembre	2023-11-23T00:00:00	2024-11-08T02:00:00	4	Temperatura máxima	16.7
130619	7	Sololá	704	Santa Lucía Utatlán 	7	Santa Rita 	11	Noviembre	2023-11-23T00:00:00	2024-11-08T02:00:00	3	Temperatura mínima	16.3
130620	7	Sololá	704	Santa Lucía Utatlán 	7	Santa Rita 	11	Noviembre	2023-11-23T00:00:00	2024-11-08T02:00:00	5	Humedad	83
130621	7	Sololá	704	Santa Lucía Utatlán 	7	Santa Rita 	11	Noviembre	2023-11-23T00:00:00	2024-11-08T02:00:00	6	Velocidad del viento	3.2
130622	7	Sololá	704	Santa Lucía Utatlán 	7	Santa Rita 	11	Noviembre	2023-11-23T00:00:00	2024-11-08T02:00:00	7	Dirección del viento	3.22
130623	7	Sololá	704	Santa Lucía Utatlán 	7	Santa Rita 	11	Noviembre	2023-11-23T00:00:00	2024-11-08T02:00:00	1	Precipitación	0
130624	7	Sololá	704	Santa Lucía Utatlán 	7	Santa Rita 	11	Noviembre	2023-11-23T00:00:00	2024-11-08T02:00:00	8	Radiación solar	0
130625	7	Sololá	704	Santa Lucía Utatlán 	7	Santa Rita 	11	Noviembre	2023-11-23T00:00:00	2024-11-08T03:00:00	2	Temperatura media	16.4
130626	7	Sololá	704	Santa Lucía Utatlán 	7	Santa Rita 	11	Noviembre	2023-11-23T00:00:00	2024-11-08T03:00:00	4	Temperatura máxima	16.7
130627	7	Sololá	704	Santa Lucía Utatlán 	7	Santa Rita 	11	Noviembre	2023-11-23T00:00:00	2024-11-08T03:00:00	3	Temperatura mínima	16.3
130628	7	Sololá	704	Santa Lucía Utatlán 	7	Santa Rita 	11	Noviembre	2023-11-23T00:00:00	2024-11-08T03:00:00	5	Humedad	81
130629	7	Sololá	704	Santa Lucía Utatlán 	7	Santa Rita 	11	Noviembre	2023-11-23T00:00:00	2024-11-08T03:00:00	6	Velocidad del viento	4.8
130630	7	Sololá	704	Santa Lucía Utatlán 	7	Santa Rita 	11	Noviembre	2023-11-23T00:00:00	2024-11-08T03:00:00	7	Dirección del viento	4.83
130631	7	Sololá	704	Santa Lucía Utatlán 	7	Santa Rita 	11	Noviembre	2023-11-23T00:00:00	2024-11-08T03:00:00	1	Precipitación	0
130632	7	Sololá	704	Santa Lucía Utatlán 	7	Santa Rita 	11	Noviembre	2023-11-23T00:00:00	2024-11-08T03:00:00	8	Radiación solar	0
130633	7	Sololá	704	Santa Lucía Utatlán 	7	Santa Rita 	11	Noviembre	2023-11-23T00:00:00	2024-11-08T04:00:00	2	Temperatura media	16.4
130634	7	Sololá	704	Santa Lucía Utatlán 	7	Santa Rita 	11	Noviembre	2023-11-23T00:00:00	2024-11-08T04:00:00	4	Temperatura máxima	16.6
130635	7	Sololá	704	Santa Lucía Utatlán 	7	Santa Rita 	11	Noviembre	2023-11-23T00:00:00	2024-11-08T04:00:00	3	Temperatura mínima	16.3
130636	7	Sololá	704	Santa Lucía Utatlán 	7	Santa Rita 	11	Noviembre	2023-11-23T00:00:00	2024-11-08T04:00:00	5	Humedad	82
130637	7	Sololá	704	Santa Lucía Utatlán 	7	Santa Rita 	11	Noviembre	2023-11-23T00:00:00	2024-11-08T04:00:00	6	Velocidad del viento	6.4
130638	7	Sololá	704	Santa Lucía Utatlán 	7	Santa Rita 	11	Noviembre	2023-11-23T00:00:00	2024-11-08T04:00:00	7	Dirección del viento	6.44
130639	7	Sololá	704	Santa Lucía Utatlán 	7	Santa Rita 	11	Noviembre	2023-11-23T00:00:00	2024-11-08T04:00:00	1	Precipitación	0
130640	7	Sololá	704	Santa Lucía Utatlán 	7	Santa Rita 	11	Noviembre	2023-11-23T00:00:00	2024-11-08T04:00:00	8	Radiación solar	0
130641	7	Sololá	704	Santa Lucía Utatlán 	7	Santa Rita 	11	Noviembre	2023-11-23T00:00:00	2024-11-08T05:00:00	2	Temperatura media	19.4
130642	7	Sololá	704	Santa Lucía Utatlán 	7	Santa Rita 	11	Noviembre	2023-11-23T00:00:00	2024-11-08T05:00:00	4	Temperatura máxima	19.4
130643	7	Sololá	704	Santa Lucía Utatlán 	7	Santa Rita 	11	Noviembre	2023-11-23T00:00:00	2024-11-08T05:00:00	3	Temperatura mínima	16.4
130644	7	Sololá	704	Santa Lucía Utatlán 	7	Santa Rita 	11	Noviembre	2023-11-23T00:00:00	2024-11-08T05:00:00	5	Humedad	79
130645	7	Sololá	704	Santa Lucía Utatlán 	7	Santa Rita 	11	Noviembre	2023-11-23T00:00:00	2024-11-08T05:00:00	6	Velocidad del viento	3.2
130646	7	Sololá	704	Santa Lucía Utatlán 	7	Santa Rita 	11	Noviembre	2023-11-23T00:00:00	2024-11-08T05:00:00	7	Dirección del viento	3.22
130647	7	Sololá	704	Santa Lucía Utatlán 	7	Santa Rita 	11	Noviembre	2023-11-23T00:00:00	2024-11-08T05:00:00	1	Precipitación	0
130648	7	Sololá	704	Santa Lucía Utatlán 	7	Santa Rita 	11	Noviembre	2023-11-23T00:00:00	2024-11-08T05:00:00	8	Radiación solar	0
130649	7	Sololá	704	Santa Lucía Utatlán 	7	Santa Rita 	11	Noviembre	2023-11-23T00:00:00	2024-11-08T06:00:00	2	Temperatura media	22.3
130650	7	Sololá	704	Santa Lucía Utatlán 	7	Santa Rita 	11	Noviembre	2023-11-23T00:00:00	2024-11-08T06:00:00	4	Temperatura máxima	22.4
130651	7	Sololá	704	Santa Lucía Utatlán 	7	Santa Rita 	11	Noviembre	2023-11-23T00:00:00	2024-11-08T06:00:00	3	Temperatura mínima	19.4
130652	7	Sololá	704	Santa Lucía Utatlán 	7	Santa Rita 	11	Noviembre	2023-11-23T00:00:00	2024-11-08T06:00:00	5	Humedad	65
130653	7	Sololá	704	Santa Lucía Utatlán 	7	Santa Rita 	11	Noviembre	2023-11-23T00:00:00	2024-11-08T06:00:00	6	Velocidad del viento	3.2
130654	7	Sololá	704	Santa Lucía Utatlán 	7	Santa Rita 	11	Noviembre	2023-11-23T00:00:00	2024-11-08T06:00:00	7	Dirección del viento	3.22
130655	7	Sololá	704	Santa Lucía Utatlán 	7	Santa Rita 	11	Noviembre	2023-11-23T00:00:00	2024-11-08T06:00:00	1	Precipitación	0
130656	7	Sololá	704	Santa Lucía Utatlán 	7	Santa Rita 	11	Noviembre	2023-11-23T00:00:00	2024-11-08T06:00:00	8	Radiación solar	1
130657	7	Sololá	704	Santa Lucía Utatlán 	7	Santa Rita 	11	Noviembre	2023-11-23T00:00:00	2024-11-08T07:00:00	2	Temperatura media	23.4
130658	7	Sololá	704	Santa Lucía Utatlán 	7	Santa Rita 	11	Noviembre	2023-11-23T00:00:00	2024-11-08T07:00:00	4	Temperatura máxima	23.4
130659	7	Sololá	704	Santa Lucía Utatlán 	7	Santa Rita 	11	Noviembre	2023-11-23T00:00:00	2024-11-08T07:00:00	3	Temperatura mínima	22.3
130660	7	Sololá	704	Santa Lucía Utatlán 	7	Santa Rita 	11	Noviembre	2023-11-23T00:00:00	2024-11-08T07:00:00	5	Humedad	69
130661	7	Sololá	704	Santa Lucía Utatlán 	7	Santa Rita 	11	Noviembre	2023-11-23T00:00:00	2024-11-08T07:00:00	6	Velocidad del viento	6.4
130662	7	Sololá	704	Santa Lucía Utatlán 	7	Santa Rita 	11	Noviembre	2023-11-23T00:00:00	2024-11-08T07:00:00	7	Dirección del viento	6.44
130663	7	Sololá	704	Santa Lucía Utatlán 	7	Santa Rita 	11	Noviembre	2023-11-23T00:00:00	2024-11-08T07:00:00	1	Precipitación	0
130664	7	Sololá	704	Santa Lucía Utatlán 	7	Santa Rita 	11	Noviembre	2023-11-23T00:00:00	2024-11-08T07:00:00	8	Radiación solar	77
130665	7	Sololá	704	Santa Lucía Utatlán 	7	Santa Rita 	11	Noviembre	2023-11-23T00:00:00	2024-11-08T08:00:00	2	Temperatura media	23.3
130666	7	Sololá	704	Santa Lucía Utatlán 	7	Santa Rita 	11	Noviembre	2023-11-23T00:00:00	2024-11-08T08:00:00	4	Temperatura máxima	23.9
130667	7	Sololá	704	Santa Lucía Utatlán 	7	Santa Rita 	11	Noviembre	2023-11-23T00:00:00	2024-11-08T08:00:00	3	Temperatura mínima	23.3
130668	7	Sololá	704	Santa Lucía Utatlán 	7	Santa Rita 	11	Noviembre	2023-11-23T00:00:00	2024-11-08T08:00:00	5	Humedad	69
130669	7	Sololá	704	Santa Lucía Utatlán 	7	Santa Rita 	11	Noviembre	2023-11-23T00:00:00	2024-11-08T08:00:00	6	Velocidad del viento	8
130670	7	Sololá	704	Santa Lucía Utatlán 	7	Santa Rita 	11	Noviembre	2023-11-23T00:00:00	2024-11-08T08:00:00	7	Dirección del viento	8.05
130671	7	Sololá	704	Santa Lucía Utatlán 	7	Santa Rita 	11	Noviembre	2023-11-23T00:00:00	2024-11-08T08:00:00	1	Precipitación	0
130672	7	Sololá	704	Santa Lucía Utatlán 	7	Santa Rita 	11	Noviembre	2023-11-23T00:00:00	2024-11-08T08:00:00	8	Radiación solar	316
130673	7	Sololá	704	Santa Lucía Utatlán 	7	Santa Rita 	11	Noviembre	2023-11-23T00:00:00	2024-11-08T09:00:00	2	Temperatura media	24.1
130674	7	Sololá	704	Santa Lucía Utatlán 	7	Santa Rita 	11	Noviembre	2023-11-23T00:00:00	2024-11-08T09:00:00	4	Temperatura máxima	24.1
130675	7	Sololá	704	Santa Lucía Utatlán 	7	Santa Rita 	11	Noviembre	2023-11-23T00:00:00	2024-11-08T09:00:00	3	Temperatura mínima	22.9
130676	7	Sololá	704	Santa Lucía Utatlán 	7	Santa Rita 	11	Noviembre	2023-11-23T00:00:00	2024-11-08T09:00:00	5	Humedad	67
130677	7	Sololá	704	Santa Lucía Utatlán 	7	Santa Rita 	11	Noviembre	2023-11-23T00:00:00	2024-11-08T09:00:00	6	Velocidad del viento	8
130678	7	Sololá	704	Santa Lucía Utatlán 	7	Santa Rita 	11	Noviembre	2023-11-23T00:00:00	2024-11-08T09:00:00	7	Dirección del viento	8.05
130679	7	Sololá	704	Santa Lucía Utatlán 	7	Santa Rita 	11	Noviembre	2023-11-23T00:00:00	2024-11-08T09:00:00	1	Precipitación	0
130680	7	Sololá	704	Santa Lucía Utatlán 	7	Santa Rita 	11	Noviembre	2023-11-23T00:00:00	2024-11-08T09:00:00	8	Radiación solar	524
130681	7	Sololá	704	Santa Lucía Utatlán 	7	Santa Rita 	11	Noviembre	2023-11-23T00:00:00	2024-11-08T10:00:00	2	Temperatura media	24.1
130682	7	Sololá	704	Santa Lucía Utatlán 	7	Santa Rita 	11	Noviembre	2023-11-23T00:00:00	2024-11-08T10:00:00	4	Temperatura máxima	24.2
130683	7	Sololá	704	Santa Lucía Utatlán 	7	Santa Rita 	11	Noviembre	2023-11-23T00:00:00	2024-11-08T10:00:00	3	Temperatura mínima	23.5
130684	7	Sololá	704	Santa Lucía Utatlán 	7	Santa Rita 	11	Noviembre	2023-11-23T00:00:00	2024-11-08T10:00:00	5	Humedad	69
130685	7	Sololá	704	Santa Lucía Utatlán 	7	Santa Rita 	11	Noviembre	2023-11-23T00:00:00	2024-11-08T10:00:00	6	Velocidad del viento	8
130686	7	Sololá	704	Santa Lucía Utatlán 	7	Santa Rita 	11	Noviembre	2023-11-23T00:00:00	2024-11-08T10:00:00	7	Dirección del viento	8.05
130687	7	Sololá	704	Santa Lucía Utatlán 	7	Santa Rita 	11	Noviembre	2023-11-23T00:00:00	2024-11-08T10:00:00	1	Precipitación	0
130688	7	Sololá	704	Santa Lucía Utatlán 	7	Santa Rita 	11	Noviembre	2023-11-23T00:00:00	2024-11-08T10:00:00	8	Radiación solar	708
130689	7	Sololá	704	Santa Lucía Utatlán 	7	Santa Rita 	11	Noviembre	2023-11-23T00:00:00	2024-11-08T11:00:00	2	Temperatura media	24.3
130690	7	Sololá	704	Santa Lucía Utatlán 	7	Santa Rita 	11	Noviembre	2023-11-23T00:00:00	2024-11-08T11:00:00	4	Temperatura máxima	24.4
130691	7	Sololá	704	Santa Lucía Utatlán 	7	Santa Rita 	11	Noviembre	2023-11-23T00:00:00	2024-11-08T11:00:00	3	Temperatura mínima	23.4
130692	7	Sololá	704	Santa Lucía Utatlán 	7	Santa Rita 	11	Noviembre	2023-11-23T00:00:00	2024-11-08T11:00:00	5	Humedad	68
130693	7	Sololá	704	Santa Lucía Utatlán 	7	Santa Rita 	11	Noviembre	2023-11-23T00:00:00	2024-11-08T11:00:00	6	Velocidad del viento	8
130694	7	Sololá	704	Santa Lucía Utatlán 	7	Santa Rita 	11	Noviembre	2023-11-23T00:00:00	2024-11-08T11:00:00	7	Dirección del viento	8.05
130695	7	Sololá	704	Santa Lucía Utatlán 	7	Santa Rita 	11	Noviembre	2023-11-23T00:00:00	2024-11-08T11:00:00	1	Precipitación	0
130696	7	Sololá	704	Santa Lucía Utatlán 	7	Santa Rita 	11	Noviembre	2023-11-23T00:00:00	2024-11-08T11:00:00	8	Radiación solar	793
130697	7	Sololá	704	Santa Lucía Utatlán 	7	Santa Rita 	11	Noviembre	2023-11-23T00:00:00	2024-11-08T12:00:00	2	Temperatura media	22.6
130698	7	Sololá	704	Santa Lucía Utatlán 	7	Santa Rita 	11	Noviembre	2023-11-23T00:00:00	2024-11-08T12:00:00	4	Temperatura máxima	24.3
130699	7	Sololá	704	Santa Lucía Utatlán 	7	Santa Rita 	11	Noviembre	2023-11-23T00:00:00	2024-11-08T12:00:00	3	Temperatura mínima	22.6
130700	7	Sololá	704	Santa Lucía Utatlán 	7	Santa Rita 	11	Noviembre	2023-11-23T00:00:00	2024-11-08T12:00:00	5	Humedad	78
130701	7	Sololá	704	Santa Lucía Utatlán 	7	Santa Rita 	11	Noviembre	2023-11-23T00:00:00	2024-11-08T12:00:00	6	Velocidad del viento	8
130702	7	Sololá	704	Santa Lucía Utatlán 	7	Santa Rita 	11	Noviembre	2023-11-23T00:00:00	2024-11-08T12:00:00	7	Dirección del viento	8.05
130703	7	Sololá	704	Santa Lucía Utatlán 	7	Santa Rita 	11	Noviembre	2023-11-23T00:00:00	2024-11-08T12:00:00	1	Precipitación	0
130704	7	Sololá	704	Santa Lucía Utatlán 	7	Santa Rita 	11	Noviembre	2023-11-23T00:00:00	2024-11-08T12:00:00	8	Radiación solar	737
130705	7	Sololá	704	Santa Lucía Utatlán 	7	Santa Rita 	11	Noviembre	2023-11-23T00:00:00	2024-11-08T13:00:00	2	Temperatura media	22.3
130706	7	Sololá	704	Santa Lucía Utatlán 	7	Santa Rita 	11	Noviembre	2023-11-23T00:00:00	2024-11-08T13:00:00	4	Temperatura máxima	22.6
130707	7	Sololá	704	Santa Lucía Utatlán 	7	Santa Rita 	11	Noviembre	2023-11-23T00:00:00	2024-11-08T13:00:00	3	Temperatura mínima	21.6
130708	7	Sololá	704	Santa Lucía Utatlán 	7	Santa Rita 	11	Noviembre	2023-11-23T00:00:00	2024-11-08T13:00:00	5	Humedad	78
130709	7	Sololá	704	Santa Lucía Utatlán 	7	Santa Rita 	11	Noviembre	2023-11-23T00:00:00	2024-11-08T13:00:00	6	Velocidad del viento	6.4
130710	7	Sololá	704	Santa Lucía Utatlán 	7	Santa Rita 	11	Noviembre	2023-11-23T00:00:00	2024-11-08T13:00:00	7	Dirección del viento	6.44
130711	7	Sololá	704	Santa Lucía Utatlán 	7	Santa Rita 	11	Noviembre	2023-11-23T00:00:00	2024-11-08T13:00:00	1	Precipitación	0
130712	7	Sololá	704	Santa Lucía Utatlán 	7	Santa Rita 	11	Noviembre	2023-11-23T00:00:00	2024-11-08T13:00:00	8	Radiación solar	661
130713	7	Sololá	704	Santa Lucía Utatlán 	7	Santa Rita 	11	Noviembre	2023-11-23T00:00:00	2024-11-08T14:00:00	2	Temperatura media	21.2
130714	7	Sololá	704	Santa Lucía Utatlán 	7	Santa Rita 	11	Noviembre	2023-11-23T00:00:00	2024-11-08T14:00:00	4	Temperatura máxima	22.6
130715	7	Sololá	704	Santa Lucía Utatlán 	7	Santa Rita 	11	Noviembre	2023-11-23T00:00:00	2024-11-08T14:00:00	3	Temperatura mínima	21.2
130716	7	Sololá	704	Santa Lucía Utatlán 	7	Santa Rita 	11	Noviembre	2023-11-23T00:00:00	2024-11-08T14:00:00	5	Humedad	84
130717	7	Sololá	704	Santa Lucía Utatlán 	7	Santa Rita 	11	Noviembre	2023-11-23T00:00:00	2024-11-08T14:00:00	6	Velocidad del viento	4.8
130718	7	Sololá	704	Santa Lucía Utatlán 	7	Santa Rita 	11	Noviembre	2023-11-23T00:00:00	2024-11-08T14:00:00	7	Dirección del viento	4.83
130719	7	Sololá	704	Santa Lucía Utatlán 	7	Santa Rita 	11	Noviembre	2023-11-23T00:00:00	2024-11-08T14:00:00	1	Precipitación	0
130720	7	Sololá	704	Santa Lucía Utatlán 	7	Santa Rita 	11	Noviembre	2023-11-23T00:00:00	2024-11-08T14:00:00	8	Radiación solar	255
130721	7	Sololá	704	Santa Lucía Utatlán 	7	Santa Rita 	11	Noviembre	2023-11-23T00:00:00	2024-11-08T15:00:00	2	Temperatura media	20.4
130722	7	Sololá	704	Santa Lucía Utatlán 	7	Santa Rita 	11	Noviembre	2023-11-23T00:00:00	2024-11-08T15:00:00	4	Temperatura máxima	21.2
130723	7	Sololá	704	Santa Lucía Utatlán 	7	Santa Rita 	11	Noviembre	2023-11-23T00:00:00	2024-11-08T15:00:00	3	Temperatura mínima	20.4
130724	7	Sololá	704	Santa Lucía Utatlán 	7	Santa Rita 	11	Noviembre	2023-11-23T00:00:00	2024-11-08T15:00:00	5	Humedad	87
130725	7	Sololá	704	Santa Lucía Utatlán 	7	Santa Rita 	11	Noviembre	2023-11-23T00:00:00	2024-11-08T15:00:00	6	Velocidad del viento	1.6
130726	7	Sololá	704	Santa Lucía Utatlán 	7	Santa Rita 	11	Noviembre	2023-11-23T00:00:00	2024-11-08T15:00:00	7	Dirección del viento	1.61
130727	7	Sololá	704	Santa Lucía Utatlán 	7	Santa Rita 	11	Noviembre	2023-11-23T00:00:00	2024-11-08T15:00:00	1	Precipitación	0
130728	7	Sololá	704	Santa Lucía Utatlán 	7	Santa Rita 	11	Noviembre	2023-11-23T00:00:00	2024-11-08T15:00:00	8	Radiación solar	174
130729	7	Sololá	704	Santa Lucía Utatlán 	7	Santa Rita 	11	Noviembre	2023-11-23T00:00:00	2024-11-08T16:00:00	2	Temperatura media	19.9
130730	7	Sololá	704	Santa Lucía Utatlán 	7	Santa Rita 	11	Noviembre	2023-11-23T00:00:00	2024-11-08T16:00:00	4	Temperatura máxima	20.4
130731	7	Sololá	704	Santa Lucía Utatlán 	7	Santa Rita 	11	Noviembre	2023-11-23T00:00:00	2024-11-08T16:00:00	3	Temperatura mínima	19.7
130732	7	Sololá	704	Santa Lucía Utatlán 	7	Santa Rita 	11	Noviembre	2023-11-23T00:00:00	2024-11-08T16:00:00	5	Humedad	88
130733	7	Sololá	704	Santa Lucía Utatlán 	7	Santa Rita 	11	Noviembre	2023-11-23T00:00:00	2024-11-08T16:00:00	6	Velocidad del viento	1.6
130734	7	Sololá	704	Santa Lucía Utatlán 	7	Santa Rita 	11	Noviembre	2023-11-23T00:00:00	2024-11-08T16:00:00	7	Dirección del viento	1.61
130735	7	Sololá	704	Santa Lucía Utatlán 	7	Santa Rita 	11	Noviembre	2023-11-23T00:00:00	2024-11-08T16:00:00	1	Precipitación	0
130736	7	Sololá	704	Santa Lucía Utatlán 	7	Santa Rita 	11	Noviembre	2023-11-23T00:00:00	2024-11-08T16:00:00	8	Radiación solar	129
130737	7	Sololá	704	Santa Lucía Utatlán 	7	Santa Rita 	11	Noviembre	2023-11-23T00:00:00	2024-11-08T17:00:00	2	Temperatura media	19.3
130738	7	Sololá	704	Santa Lucía Utatlán 	7	Santa Rita 	11	Noviembre	2023-11-23T00:00:00	2024-11-08T17:00:00	4	Temperatura máxima	19.9
130739	7	Sololá	704	Santa Lucía Utatlán 	7	Santa Rita 	11	Noviembre	2023-11-23T00:00:00	2024-11-08T17:00:00	3	Temperatura mínima	19.3
130740	7	Sololá	704	Santa Lucía Utatlán 	7	Santa Rita 	11	Noviembre	2023-11-23T00:00:00	2024-11-08T17:00:00	5	Humedad	88
130741	7	Sololá	704	Santa Lucía Utatlán 	7	Santa Rita 	11	Noviembre	2023-11-23T00:00:00	2024-11-08T17:00:00	6	Velocidad del viento	1.6
130742	7	Sololá	704	Santa Lucía Utatlán 	7	Santa Rita 	11	Noviembre	2023-11-23T00:00:00	2024-11-08T17:00:00	7	Dirección del viento	1.61
130743	7	Sololá	704	Santa Lucía Utatlán 	7	Santa Rita 	11	Noviembre	2023-11-23T00:00:00	2024-11-08T17:00:00	1	Precipitación	0
130744	7	Sololá	704	Santa Lucía Utatlán 	7	Santa Rita 	11	Noviembre	2023-11-23T00:00:00	2024-11-08T17:00:00	8	Radiación solar	37
130745	7	Sololá	704	Santa Lucía Utatlán 	7	Santa Rita 	11	Noviembre	2023-11-23T00:00:00	2024-11-08T18:00:00	2	Temperatura media	17.5
130746	7	Sololá	704	Santa Lucía Utatlán 	7	Santa Rita 	11	Noviembre	2023-11-23T00:00:00	2024-11-08T18:00:00	4	Temperatura máxima	19.3
130747	7	Sololá	704	Santa Lucía Utatlán 	7	Santa Rita 	11	Noviembre	2023-11-23T00:00:00	2024-11-08T18:00:00	3	Temperatura mínima	17.5
130748	7	Sololá	704	Santa Lucía Utatlán 	7	Santa Rita 	11	Noviembre	2023-11-23T00:00:00	2024-11-08T18:00:00	5	Humedad	91
130749	7	Sololá	704	Santa Lucía Utatlán 	7	Santa Rita 	11	Noviembre	2023-11-23T00:00:00	2024-11-08T18:00:00	6	Velocidad del viento	3.2
130750	7	Sololá	704	Santa Lucía Utatlán 	7	Santa Rita 	11	Noviembre	2023-11-23T00:00:00	2024-11-08T18:00:00	7	Dirección del viento	3.22
130751	7	Sololá	704	Santa Lucía Utatlán 	7	Santa Rita 	11	Noviembre	2023-11-23T00:00:00	2024-11-08T18:00:00	1	Precipitación	0
130752	7	Sololá	704	Santa Lucía Utatlán 	7	Santa Rita 	11	Noviembre	2023-11-23T00:00:00	2024-11-08T18:00:00	8	Radiación solar	1
130753	7	Sololá	704	Santa Lucía Utatlán 	7	Santa Rita 	11	Noviembre	2023-11-23T00:00:00	2024-11-08T19:00:00	2	Temperatura media	17.3
130754	7	Sololá	704	Santa Lucía Utatlán 	7	Santa Rita 	11	Noviembre	2023-11-23T00:00:00	2024-11-08T19:00:00	4	Temperatura máxima	17.6
130755	7	Sololá	704	Santa Lucía Utatlán 	7	Santa Rita 	11	Noviembre	2023-11-23T00:00:00	2024-11-08T19:00:00	3	Temperatura mínima	17.2
130756	7	Sololá	704	Santa Lucía Utatlán 	7	Santa Rita 	11	Noviembre	2023-11-23T00:00:00	2024-11-08T19:00:00	5	Humedad	92
130757	7	Sololá	704	Santa Lucía Utatlán 	7	Santa Rita 	11	Noviembre	2023-11-23T00:00:00	2024-11-08T19:00:00	6	Velocidad del viento	4.8
130758	7	Sololá	704	Santa Lucía Utatlán 	7	Santa Rita 	11	Noviembre	2023-11-23T00:00:00	2024-11-08T19:00:00	7	Dirección del viento	4.83
130759	7	Sololá	704	Santa Lucía Utatlán 	7	Santa Rita 	11	Noviembre	2023-11-23T00:00:00	2024-11-08T19:00:00	1	Precipitación	0
130760	7	Sololá	704	Santa Lucía Utatlán 	7	Santa Rita 	11	Noviembre	2023-11-23T00:00:00	2024-11-08T19:00:00	8	Radiación solar	0
130761	7	Sololá	704	Santa Lucía Utatlán 	7	Santa Rita 	11	Noviembre	2023-11-23T00:00:00	2024-11-08T20:00:00	2	Temperatura media	17.2
130762	7	Sololá	704	Santa Lucía Utatlán 	7	Santa Rita 	11	Noviembre	2023-11-23T00:00:00	2024-11-08T20:00:00	4	Temperatura máxima	17.3
130763	7	Sololá	704	Santa Lucía Utatlán 	7	Santa Rita 	11	Noviembre	2023-11-23T00:00:00	2024-11-08T20:00:00	3	Temperatura mínima	17.1
130764	7	Sololá	704	Santa Lucía Utatlán 	7	Santa Rita 	11	Noviembre	2023-11-23T00:00:00	2024-11-08T20:00:00	5	Humedad	91
130765	7	Sololá	704	Santa Lucía Utatlán 	7	Santa Rita 	11	Noviembre	2023-11-23T00:00:00	2024-11-08T20:00:00	6	Velocidad del viento	4.8
130766	7	Sololá	704	Santa Lucía Utatlán 	7	Santa Rita 	11	Noviembre	2023-11-23T00:00:00	2024-11-08T20:00:00	7	Dirección del viento	4.83
130767	7	Sololá	704	Santa Lucía Utatlán 	7	Santa Rita 	11	Noviembre	2023-11-23T00:00:00	2024-11-08T20:00:00	1	Precipitación	0
130768	7	Sololá	704	Santa Lucía Utatlán 	7	Santa Rita 	11	Noviembre	2023-11-23T00:00:00	2024-11-08T20:00:00	8	Radiación solar	0
130769	7	Sololá	704	Santa Lucía Utatlán 	7	Santa Rita 	11	Noviembre	2023-11-23T00:00:00	2024-11-08T21:00:00	2	Temperatura media	17.3
130770	7	Sololá	704	Santa Lucía Utatlán 	7	Santa Rita 	11	Noviembre	2023-11-23T00:00:00	2024-11-08T21:00:00	4	Temperatura máxima	17.3
130771	7	Sololá	704	Santa Lucía Utatlán 	7	Santa Rita 	11	Noviembre	2023-11-23T00:00:00	2024-11-08T21:00:00	3	Temperatura mínima	17.1
130772	7	Sololá	704	Santa Lucía Utatlán 	7	Santa Rita 	11	Noviembre	2023-11-23T00:00:00	2024-11-08T21:00:00	5	Humedad	90
130773	7	Sololá	704	Santa Lucía Utatlán 	7	Santa Rita 	11	Noviembre	2023-11-23T00:00:00	2024-11-08T21:00:00	6	Velocidad del viento	4.8
130774	7	Sololá	704	Santa Lucía Utatlán 	7	Santa Rita 	11	Noviembre	2023-11-23T00:00:00	2024-11-08T21:00:00	7	Dirección del viento	4.83
130775	7	Sololá	704	Santa Lucía Utatlán 	7	Santa Rita 	11	Noviembre	2023-11-23T00:00:00	2024-11-08T21:00:00	1	Precipitación	0
130776	7	Sololá	704	Santa Lucía Utatlán 	7	Santa Rita 	11	Noviembre	2023-11-23T00:00:00	2024-11-08T21:00:00	8	Radiación solar	0
130777	7	Sololá	704	Santa Lucía Utatlán 	7	Santa Rita 	11	Noviembre	2023-11-23T00:00:00	2024-11-08T22:00:00	2	Temperatura media	17.3
130778	7	Sololá	704	Santa Lucía Utatlán 	7	Santa Rita 	11	Noviembre	2023-11-23T00:00:00	2024-11-08T22:00:00	4	Temperatura máxima	17.4
130779	7	Sololá	704	Santa Lucía Utatlán 	7	Santa Rita 	11	Noviembre	2023-11-23T00:00:00	2024-11-08T22:00:00	3	Temperatura mínima	17.2
130780	7	Sololá	704	Santa Lucía Utatlán 	7	Santa Rita 	11	Noviembre	2023-11-23T00:00:00	2024-11-08T22:00:00	5	Humedad	90
130781	7	Sololá	704	Santa Lucía Utatlán 	7	Santa Rita 	11	Noviembre	2023-11-23T00:00:00	2024-11-08T22:00:00	6	Velocidad del viento	4.8
130782	7	Sololá	704	Santa Lucía Utatlán 	7	Santa Rita 	11	Noviembre	2023-11-23T00:00:00	2024-11-08T22:00:00	7	Dirección del viento	4.83
130783	7	Sololá	704	Santa Lucía Utatlán 	7	Santa Rita 	11	Noviembre	2023-11-23T00:00:00	2024-11-08T22:00:00	1	Precipitación	0
130784	7	Sololá	704	Santa Lucía Utatlán 	7	Santa Rita 	11	Noviembre	2023-11-23T00:00:00	2024-11-08T22:00:00	8	Radiación solar	0
130785	7	Sololá	704	Santa Lucía Utatlán 	7	Santa Rita 	11	Noviembre	2023-11-23T00:00:00	2024-11-08T23:00:00	2	Temperatura media	17.1
130786	7	Sololá	704	Santa Lucía Utatlán 	7	Santa Rita 	11	Noviembre	2023-11-23T00:00:00	2024-11-08T23:00:00	4	Temperatura máxima	17.4
130787	7	Sololá	704	Santa Lucía Utatlán 	7	Santa Rita 	11	Noviembre	2023-11-23T00:00:00	2024-11-08T23:00:00	3	Temperatura mínima	17.1
130788	7	Sololá	704	Santa Lucía Utatlán 	7	Santa Rita 	11	Noviembre	2023-11-23T00:00:00	2024-11-08T23:00:00	5	Humedad	89
130789	7	Sololá	704	Santa Lucía Utatlán 	7	Santa Rita 	11	Noviembre	2023-11-23T00:00:00	2024-11-08T23:00:00	6	Velocidad del viento	4.8
130790	7	Sololá	704	Santa Lucía Utatlán 	7	Santa Rita 	11	Noviembre	2023-11-23T00:00:00	2024-11-08T23:00:00	7	Dirección del viento	4.83
130791	7	Sololá	704	Santa Lucía Utatlán 	7	Santa Rita 	11	Noviembre	2023-11-23T00:00:00	2024-11-08T23:00:00	1	Precipitación	0
130792	7	Sololá	704	Santa Lucía Utatlán 	7	Santa Rita 	11	Noviembre	2023-11-23T00:00:00	2024-11-08T23:00:00	8	Radiación solar	0
130793	7	Sololá	704	Santa Lucía Utatlán 	7	Santa Rita 	11	Noviembre	2023-11-24T00:00:00	2024-11-08T00:00:00	2	Temperatura media	16.8
130794	7	Sololá	704	Santa Lucía Utatlán 	7	Santa Rita 	11	Noviembre	2023-11-24T00:00:00	2024-11-08T00:00:00	4	Temperatura máxima	17.2
130795	7	Sololá	704	Santa Lucía Utatlán 	7	Santa Rita 	11	Noviembre	2023-11-24T00:00:00	2024-11-08T00:00:00	3	Temperatura mínima	16.8
130796	7	Sololá	704	Santa Lucía Utatlán 	7	Santa Rita 	11	Noviembre	2023-11-24T00:00:00	2024-11-08T00:00:00	5	Humedad	88
130797	7	Sololá	704	Santa Lucía Utatlán 	7	Santa Rita 	11	Noviembre	2023-11-24T00:00:00	2024-11-08T00:00:00	6	Velocidad del viento	4.8
130798	7	Sololá	704	Santa Lucía Utatlán 	7	Santa Rita 	11	Noviembre	2023-11-24T00:00:00	2024-11-08T00:00:00	7	Dirección del viento	4.83
130799	7	Sololá	704	Santa Lucía Utatlán 	7	Santa Rita 	11	Noviembre	2023-11-24T00:00:00	2024-11-08T00:00:00	1	Precipitación	0
130800	7	Sololá	704	Santa Lucía Utatlán 	7	Santa Rita 	11	Noviembre	2023-11-24T00:00:00	2024-11-08T00:00:00	8	Radiación solar	0
130801	7	Sololá	704	Santa Lucía Utatlán 	7	Santa Rita 	11	Noviembre	2023-11-24T00:00:00	2024-11-08T01:00:00	2	Temperatura media	16.6
130802	7	Sololá	704	Santa Lucía Utatlán 	7	Santa Rita 	11	Noviembre	2023-11-24T00:00:00	2024-11-08T01:00:00	4	Temperatura máxima	16.9
130803	7	Sololá	704	Santa Lucía Utatlán 	7	Santa Rita 	11	Noviembre	2023-11-24T00:00:00	2024-11-08T01:00:00	3	Temperatura mínima	16.6
130804	7	Sololá	704	Santa Lucía Utatlán 	7	Santa Rita 	11	Noviembre	2023-11-24T00:00:00	2024-11-08T01:00:00	5	Humedad	88
130805	7	Sololá	704	Santa Lucía Utatlán 	7	Santa Rita 	11	Noviembre	2023-11-24T00:00:00	2024-11-08T01:00:00	6	Velocidad del viento	4.8
130806	7	Sololá	704	Santa Lucía Utatlán 	7	Santa Rita 	11	Noviembre	2023-11-24T00:00:00	2024-11-08T01:00:00	7	Dirección del viento	4.83
130807	7	Sololá	704	Santa Lucía Utatlán 	7	Santa Rita 	11	Noviembre	2023-11-24T00:00:00	2024-11-08T01:00:00	1	Precipitación	0
130808	7	Sololá	704	Santa Lucía Utatlán 	7	Santa Rita 	11	Noviembre	2023-11-24T00:00:00	2024-11-08T01:00:00	8	Radiación solar	0
130809	7	Sololá	704	Santa Lucía Utatlán 	7	Santa Rita 	11	Noviembre	2023-11-24T00:00:00	2024-11-08T02:00:00	2	Temperatura media	16.1
130810	7	Sololá	704	Santa Lucía Utatlán 	7	Santa Rita 	11	Noviembre	2023-11-24T00:00:00	2024-11-08T02:00:00	4	Temperatura máxima	16.6
130811	7	Sololá	704	Santa Lucía Utatlán 	7	Santa Rita 	11	Noviembre	2023-11-24T00:00:00	2024-11-08T02:00:00	3	Temperatura mínima	16.1
130812	7	Sololá	704	Santa Lucía Utatlán 	7	Santa Rita 	11	Noviembre	2023-11-24T00:00:00	2024-11-08T02:00:00	5	Humedad	88
130813	7	Sololá	704	Santa Lucía Utatlán 	7	Santa Rita 	11	Noviembre	2023-11-24T00:00:00	2024-11-08T02:00:00	6	Velocidad del viento	4.8
130814	7	Sololá	704	Santa Lucía Utatlán 	7	Santa Rita 	11	Noviembre	2023-11-24T00:00:00	2024-11-08T02:00:00	7	Dirección del viento	4.83
130815	7	Sololá	704	Santa Lucía Utatlán 	7	Santa Rita 	11	Noviembre	2023-11-24T00:00:00	2024-11-08T02:00:00	1	Precipitación	0
130816	7	Sololá	704	Santa Lucía Utatlán 	7	Santa Rita 	11	Noviembre	2023-11-24T00:00:00	2024-11-08T02:00:00	8	Radiación solar	0
130817	7	Sololá	704	Santa Lucía Utatlán 	7	Santa Rita 	11	Noviembre	2023-11-24T00:00:00	2024-11-08T03:00:00	2	Temperatura media	15.6
130818	7	Sololá	704	Santa Lucía Utatlán 	7	Santa Rita 	11	Noviembre	2023-11-24T00:00:00	2024-11-08T03:00:00	4	Temperatura máxima	16.1
130819	7	Sololá	704	Santa Lucía Utatlán 	7	Santa Rita 	11	Noviembre	2023-11-24T00:00:00	2024-11-08T03:00:00	3	Temperatura mínima	15.6
130820	7	Sololá	704	Santa Lucía Utatlán 	7	Santa Rita 	11	Noviembre	2023-11-24T00:00:00	2024-11-08T03:00:00	5	Humedad	90
130821	7	Sololá	704	Santa Lucía Utatlán 	7	Santa Rita 	11	Noviembre	2023-11-24T00:00:00	2024-11-08T03:00:00	6	Velocidad del viento	3.2
130822	7	Sololá	704	Santa Lucía Utatlán 	7	Santa Rita 	11	Noviembre	2023-11-24T00:00:00	2024-11-08T03:00:00	7	Dirección del viento	3.22
130823	7	Sololá	704	Santa Lucía Utatlán 	7	Santa Rita 	11	Noviembre	2023-11-24T00:00:00	2024-11-08T03:00:00	1	Precipitación	0
130824	7	Sololá	704	Santa Lucía Utatlán 	7	Santa Rita 	11	Noviembre	2023-11-24T00:00:00	2024-11-08T03:00:00	8	Radiación solar	0
130825	7	Sololá	704	Santa Lucía Utatlán 	7	Santa Rita 	11	Noviembre	2023-11-24T00:00:00	2024-11-08T04:00:00	2	Temperatura media	15.7
130826	7	Sololá	704	Santa Lucía Utatlán 	7	Santa Rita 	11	Noviembre	2023-11-24T00:00:00	2024-11-08T04:00:00	4	Temperatura máxima	15.8
130827	7	Sololá	704	Santa Lucía Utatlán 	7	Santa Rita 	11	Noviembre	2023-11-24T00:00:00	2024-11-08T04:00:00	3	Temperatura mínima	15.3
130828	7	Sololá	704	Santa Lucía Utatlán 	7	Santa Rita 	11	Noviembre	2023-11-24T00:00:00	2024-11-08T04:00:00	5	Humedad	90
130829	7	Sololá	704	Santa Lucía Utatlán 	7	Santa Rita 	11	Noviembre	2023-11-24T00:00:00	2024-11-08T04:00:00	6	Velocidad del viento	4.8
130830	7	Sololá	704	Santa Lucía Utatlán 	7	Santa Rita 	11	Noviembre	2023-11-24T00:00:00	2024-11-08T04:00:00	7	Dirección del viento	4.83
130831	7	Sololá	704	Santa Lucía Utatlán 	7	Santa Rita 	11	Noviembre	2023-11-24T00:00:00	2024-11-08T04:00:00	1	Precipitación	0
130832	7	Sololá	704	Santa Lucía Utatlán 	7	Santa Rita 	11	Noviembre	2023-11-24T00:00:00	2024-11-08T04:00:00	8	Radiación solar	0
130833	7	Sololá	704	Santa Lucía Utatlán 	7	Santa Rita 	11	Noviembre	2023-11-24T00:00:00	2024-11-08T05:00:00	2	Temperatura media	19.4
130834	7	Sololá	704	Santa Lucía Utatlán 	7	Santa Rita 	11	Noviembre	2023-11-24T00:00:00	2024-11-08T05:00:00	4	Temperatura máxima	19.4
130835	7	Sololá	704	Santa Lucía Utatlán 	7	Santa Rita 	11	Noviembre	2023-11-24T00:00:00	2024-11-08T05:00:00	3	Temperatura mínima	15.7
130836	7	Sololá	704	Santa Lucía Utatlán 	7	Santa Rita 	11	Noviembre	2023-11-24T00:00:00	2024-11-08T05:00:00	5	Humedad	85
130837	7	Sololá	704	Santa Lucía Utatlán 	7	Santa Rita 	11	Noviembre	2023-11-24T00:00:00	2024-11-08T05:00:00	6	Velocidad del viento	1.6
130838	7	Sololá	704	Santa Lucía Utatlán 	7	Santa Rita 	11	Noviembre	2023-11-24T00:00:00	2024-11-08T05:00:00	7	Dirección del viento	1.61
130839	7	Sololá	704	Santa Lucía Utatlán 	7	Santa Rita 	11	Noviembre	2023-11-24T00:00:00	2024-11-08T05:00:00	1	Precipitación	0
130840	7	Sololá	704	Santa Lucía Utatlán 	7	Santa Rita 	11	Noviembre	2023-11-24T00:00:00	2024-11-08T05:00:00	8	Radiación solar	0
130841	7	Sololá	704	Santa Lucía Utatlán 	7	Santa Rita 	11	Noviembre	2023-11-24T00:00:00	2024-11-08T06:00:00	2	Temperatura media	23.5
130842	7	Sololá	704	Santa Lucía Utatlán 	7	Santa Rita 	11	Noviembre	2023-11-24T00:00:00	2024-11-08T06:00:00	4	Temperatura máxima	23.5
130843	7	Sololá	704	Santa Lucía Utatlán 	7	Santa Rita 	11	Noviembre	2023-11-24T00:00:00	2024-11-08T06:00:00	3	Temperatura mínima	19.4
130844	7	Sololá	704	Santa Lucía Utatlán 	7	Santa Rita 	11	Noviembre	2023-11-24T00:00:00	2024-11-08T06:00:00	5	Humedad	73
130845	7	Sololá	704	Santa Lucía Utatlán 	7	Santa Rita 	11	Noviembre	2023-11-24T00:00:00	2024-11-08T06:00:00	6	Velocidad del viento	1.6
130846	7	Sololá	704	Santa Lucía Utatlán 	7	Santa Rita 	11	Noviembre	2023-11-24T00:00:00	2024-11-08T06:00:00	7	Dirección del viento	1.61
130847	7	Sololá	704	Santa Lucía Utatlán 	7	Santa Rita 	11	Noviembre	2023-11-24T00:00:00	2024-11-08T06:00:00	1	Precipitación	0
130848	7	Sololá	704	Santa Lucía Utatlán 	7	Santa Rita 	11	Noviembre	2023-11-24T00:00:00	2024-11-08T06:00:00	8	Radiación solar	2
130849	7	Sololá	704	Santa Lucía Utatlán 	7	Santa Rita 	11	Noviembre	2023-11-24T00:00:00	2024-11-08T07:00:00	2	Temperatura media	25.2
130850	7	Sololá	704	Santa Lucía Utatlán 	7	Santa Rita 	11	Noviembre	2023-11-24T00:00:00	2024-11-08T07:00:00	4	Temperatura máxima	25.3
130851	7	Sololá	704	Santa Lucía Utatlán 	7	Santa Rita 	11	Noviembre	2023-11-24T00:00:00	2024-11-08T07:00:00	3	Temperatura mínima	23.5
130852	7	Sololá	704	Santa Lucía Utatlán 	7	Santa Rita 	11	Noviembre	2023-11-24T00:00:00	2024-11-08T07:00:00	5	Humedad	63
130853	7	Sololá	704	Santa Lucía Utatlán 	7	Santa Rita 	11	Noviembre	2023-11-24T00:00:00	2024-11-08T07:00:00	6	Velocidad del viento	4.8
130854	7	Sololá	704	Santa Lucía Utatlán 	7	Santa Rita 	11	Noviembre	2023-11-24T00:00:00	2024-11-08T07:00:00	7	Dirección del viento	4.83
130855	7	Sololá	704	Santa Lucía Utatlán 	7	Santa Rita 	11	Noviembre	2023-11-24T00:00:00	2024-11-08T07:00:00	1	Precipitación	0
130856	7	Sololá	704	Santa Lucía Utatlán 	7	Santa Rita 	11	Noviembre	2023-11-24T00:00:00	2024-11-08T07:00:00	8	Radiación solar	74
130857	7	Sololá	704	Santa Lucía Utatlán 	7	Santa Rita 	11	Noviembre	2023-11-24T00:00:00	2024-11-08T08:00:00	2	Temperatura media	25.9
130858	7	Sololá	704	Santa Lucía Utatlán 	7	Santa Rita 	11	Noviembre	2023-11-24T00:00:00	2024-11-08T08:00:00	4	Temperatura máxima	25.9
130859	7	Sololá	704	Santa Lucía Utatlán 	7	Santa Rita 	11	Noviembre	2023-11-24T00:00:00	2024-11-08T08:00:00	3	Temperatura mínima	24.9
130860	7	Sololá	704	Santa Lucía Utatlán 	7	Santa Rita 	11	Noviembre	2023-11-24T00:00:00	2024-11-08T08:00:00	5	Humedad	59
130861	7	Sololá	704	Santa Lucía Utatlán 	7	Santa Rita 	11	Noviembre	2023-11-24T00:00:00	2024-11-08T08:00:00	6	Velocidad del viento	4.8
130862	7	Sololá	704	Santa Lucía Utatlán 	7	Santa Rita 	11	Noviembre	2023-11-24T00:00:00	2024-11-08T08:00:00	7	Dirección del viento	4.83
130863	7	Sololá	704	Santa Lucía Utatlán 	7	Santa Rita 	11	Noviembre	2023-11-24T00:00:00	2024-11-08T08:00:00	1	Precipitación	0
130864	7	Sololá	704	Santa Lucía Utatlán 	7	Santa Rita 	11	Noviembre	2023-11-24T00:00:00	2024-11-08T08:00:00	8	Radiación solar	314
130865	7	Sololá	704	Santa Lucía Utatlán 	7	Santa Rita 	11	Noviembre	2023-11-24T00:00:00	2024-11-08T09:00:00	2	Temperatura media	26
130866	7	Sololá	704	Santa Lucía Utatlán 	7	Santa Rita 	11	Noviembre	2023-11-24T00:00:00	2024-11-08T09:00:00	4	Temperatura máxima	26.8
130867	7	Sololá	704	Santa Lucía Utatlán 	7	Santa Rita 	11	Noviembre	2023-11-24T00:00:00	2024-11-08T09:00:00	3	Temperatura mínima	25.7
130868	7	Sololá	704	Santa Lucía Utatlán 	7	Santa Rita 	11	Noviembre	2023-11-24T00:00:00	2024-11-08T09:00:00	5	Humedad	56
130869	7	Sololá	704	Santa Lucía Utatlán 	7	Santa Rita 	11	Noviembre	2023-11-24T00:00:00	2024-11-08T09:00:00	6	Velocidad del viento	8
130870	7	Sololá	704	Santa Lucía Utatlán 	7	Santa Rita 	11	Noviembre	2023-11-24T00:00:00	2024-11-08T09:00:00	7	Dirección del viento	8.05
130871	7	Sololá	704	Santa Lucía Utatlán 	7	Santa Rita 	11	Noviembre	2023-11-24T00:00:00	2024-11-08T09:00:00	1	Precipitación	0
130872	7	Sololá	704	Santa Lucía Utatlán 	7	Santa Rita 	11	Noviembre	2023-11-24T00:00:00	2024-11-08T09:00:00	8	Radiación solar	521
130873	7	Sololá	704	Santa Lucía Utatlán 	7	Santa Rita 	11	Noviembre	2023-11-24T00:00:00	2024-11-08T10:00:00	2	Temperatura media	25.9
130874	7	Sololá	704	Santa Lucía Utatlán 	7	Santa Rita 	11	Noviembre	2023-11-24T00:00:00	2024-11-08T10:00:00	4	Temperatura máxima	26.3
130875	7	Sololá	704	Santa Lucía Utatlán 	7	Santa Rita 	11	Noviembre	2023-11-24T00:00:00	2024-11-08T10:00:00	3	Temperatura mínima	25.6
130876	7	Sololá	704	Santa Lucía Utatlán 	7	Santa Rita 	11	Noviembre	2023-11-24T00:00:00	2024-11-08T10:00:00	5	Humedad	58
130877	7	Sololá	704	Santa Lucía Utatlán 	7	Santa Rita 	11	Noviembre	2023-11-24T00:00:00	2024-11-08T10:00:00	6	Velocidad del viento	9.7
130878	7	Sololá	704	Santa Lucía Utatlán 	7	Santa Rita 	11	Noviembre	2023-11-24T00:00:00	2024-11-08T10:00:00	7	Dirección del viento	9.66
130879	7	Sololá	704	Santa Lucía Utatlán 	7	Santa Rita 	11	Noviembre	2023-11-24T00:00:00	2024-11-08T10:00:00	1	Precipitación	0
130880	7	Sololá	704	Santa Lucía Utatlán 	7	Santa Rita 	11	Noviembre	2023-11-24T00:00:00	2024-11-08T10:00:00	8	Radiación solar	683
130881	7	Sololá	704	Santa Lucía Utatlán 	7	Santa Rita 	11	Noviembre	2023-11-24T00:00:00	2024-11-08T11:00:00	2	Temperatura media	24.8
130882	7	Sololá	704	Santa Lucía Utatlán 	7	Santa Rita 	11	Noviembre	2023-11-24T00:00:00	2024-11-08T11:00:00	4	Temperatura máxima	25.9
130883	7	Sololá	704	Santa Lucía Utatlán 	7	Santa Rita 	11	Noviembre	2023-11-24T00:00:00	2024-11-08T11:00:00	3	Temperatura mínima	24.8
130884	7	Sololá	704	Santa Lucía Utatlán 	7	Santa Rita 	11	Noviembre	2023-11-24T00:00:00	2024-11-08T11:00:00	5	Humedad	68
130885	7	Sololá	704	Santa Lucía Utatlán 	7	Santa Rita 	11	Noviembre	2023-11-24T00:00:00	2024-11-08T11:00:00	6	Velocidad del viento	8
130886	7	Sololá	704	Santa Lucía Utatlán 	7	Santa Rita 	11	Noviembre	2023-11-24T00:00:00	2024-11-08T11:00:00	7	Dirección del viento	8.05
130887	7	Sololá	704	Santa Lucía Utatlán 	7	Santa Rita 	11	Noviembre	2023-11-24T00:00:00	2024-11-08T11:00:00	1	Precipitación	0
130888	7	Sololá	704	Santa Lucía Utatlán 	7	Santa Rita 	11	Noviembre	2023-11-24T00:00:00	2024-11-08T11:00:00	8	Radiación solar	805
130889	7	Sololá	704	Santa Lucía Utatlán 	7	Santa Rita 	11	Noviembre	2023-11-24T00:00:00	2024-11-08T12:00:00	2	Temperatura media	23.1
130890	7	Sololá	704	Santa Lucía Utatlán 	7	Santa Rita 	11	Noviembre	2023-11-24T00:00:00	2024-11-08T12:00:00	4	Temperatura máxima	24.9
130891	7	Sololá	704	Santa Lucía Utatlán 	7	Santa Rita 	11	Noviembre	2023-11-24T00:00:00	2024-11-08T12:00:00	3	Temperatura mínima	23
130892	7	Sololá	704	Santa Lucía Utatlán 	7	Santa Rita 	11	Noviembre	2023-11-24T00:00:00	2024-11-08T12:00:00	5	Humedad	82
130893	7	Sololá	704	Santa Lucía Utatlán 	7	Santa Rita 	11	Noviembre	2023-11-24T00:00:00	2024-11-08T12:00:00	6	Velocidad del viento	6.4
130894	7	Sololá	704	Santa Lucía Utatlán 	7	Santa Rita 	11	Noviembre	2023-11-24T00:00:00	2024-11-08T12:00:00	7	Dirección del viento	6.44
130895	7	Sololá	704	Santa Lucía Utatlán 	7	Santa Rita 	11	Noviembre	2023-11-24T00:00:00	2024-11-08T12:00:00	1	Precipitación	0
130896	7	Sololá	704	Santa Lucía Utatlán 	7	Santa Rita 	11	Noviembre	2023-11-24T00:00:00	2024-11-08T12:00:00	8	Radiación solar	833
130897	7	Sololá	704	Santa Lucía Utatlán 	7	Santa Rita 	11	Noviembre	2023-11-24T00:00:00	2024-11-08T13:00:00	2	Temperatura media	23.2
130898	7	Sololá	704	Santa Lucía Utatlán 	7	Santa Rita 	11	Noviembre	2023-11-24T00:00:00	2024-11-08T13:00:00	4	Temperatura máxima	23.4
130899	7	Sololá	704	Santa Lucía Utatlán 	7	Santa Rita 	11	Noviembre	2023-11-24T00:00:00	2024-11-08T13:00:00	3	Temperatura mínima	22.5
130900	7	Sololá	704	Santa Lucía Utatlán 	7	Santa Rita 	11	Noviembre	2023-11-24T00:00:00	2024-11-08T13:00:00	5	Humedad	80
130901	7	Sololá	704	Santa Lucía Utatlán 	7	Santa Rita 	11	Noviembre	2023-11-24T00:00:00	2024-11-08T13:00:00	6	Velocidad del viento	6.4
130902	7	Sololá	704	Santa Lucía Utatlán 	7	Santa Rita 	11	Noviembre	2023-11-24T00:00:00	2024-11-08T13:00:00	7	Dirección del viento	6.44
130903	7	Sololá	704	Santa Lucía Utatlán 	7	Santa Rita 	11	Noviembre	2023-11-24T00:00:00	2024-11-08T13:00:00	1	Precipitación	0
130904	7	Sololá	704	Santa Lucía Utatlán 	7	Santa Rita 	11	Noviembre	2023-11-24T00:00:00	2024-11-08T13:00:00	8	Radiación solar	663
130905	7	Sololá	704	Santa Lucía Utatlán 	7	Santa Rita 	11	Noviembre	2023-11-24T00:00:00	2024-11-08T14:00:00	2	Temperatura media	22.3
130906	7	Sololá	704	Santa Lucía Utatlán 	7	Santa Rita 	11	Noviembre	2023-11-24T00:00:00	2024-11-08T14:00:00	4	Temperatura máxima	23.2
130907	7	Sololá	704	Santa Lucía Utatlán 	7	Santa Rita 	11	Noviembre	2023-11-24T00:00:00	2024-11-08T14:00:00	3	Temperatura mínima	22.2
130908	7	Sololá	704	Santa Lucía Utatlán 	7	Santa Rita 	11	Noviembre	2023-11-24T00:00:00	2024-11-08T14:00:00	5	Humedad	83
130909	7	Sololá	704	Santa Lucía Utatlán 	7	Santa Rita 	11	Noviembre	2023-11-24T00:00:00	2024-11-08T14:00:00	6	Velocidad del viento	4.8
130910	7	Sololá	704	Santa Lucía Utatlán 	7	Santa Rita 	11	Noviembre	2023-11-24T00:00:00	2024-11-08T14:00:00	7	Dirección del viento	4.83
130911	7	Sololá	704	Santa Lucía Utatlán 	7	Santa Rita 	11	Noviembre	2023-11-24T00:00:00	2024-11-08T14:00:00	1	Precipitación	0
130912	7	Sololá	704	Santa Lucía Utatlán 	7	Santa Rita 	11	Noviembre	2023-11-24T00:00:00	2024-11-08T14:00:00	8	Radiación solar	127
130913	7	Sololá	704	Santa Lucía Utatlán 	7	Santa Rita 	11	Noviembre	2023-11-24T00:00:00	2024-11-08T15:00:00	2	Temperatura media	20.9
130914	7	Sololá	704	Santa Lucía Utatlán 	7	Santa Rita 	11	Noviembre	2023-11-24T00:00:00	2024-11-08T15:00:00	4	Temperatura máxima	22.3
130915	7	Sololá	704	Santa Lucía Utatlán 	7	Santa Rita 	11	Noviembre	2023-11-24T00:00:00	2024-11-08T15:00:00	3	Temperatura mínima	20.9
130916	7	Sololá	704	Santa Lucía Utatlán 	7	Santa Rita 	11	Noviembre	2023-11-24T00:00:00	2024-11-08T15:00:00	5	Humedad	89
130917	7	Sololá	704	Santa Lucía Utatlán 	7	Santa Rita 	11	Noviembre	2023-11-24T00:00:00	2024-11-08T15:00:00	6	Velocidad del viento	4.8
130918	7	Sololá	704	Santa Lucía Utatlán 	7	Santa Rita 	11	Noviembre	2023-11-24T00:00:00	2024-11-08T15:00:00	7	Dirección del viento	4.83
130919	7	Sololá	704	Santa Lucía Utatlán 	7	Santa Rita 	11	Noviembre	2023-11-24T00:00:00	2024-11-08T15:00:00	1	Precipitación	0
130920	7	Sololá	704	Santa Lucía Utatlán 	7	Santa Rita 	11	Noviembre	2023-11-24T00:00:00	2024-11-08T15:00:00	8	Radiación solar	139
130921	7	Sololá	704	Santa Lucía Utatlán 	7	Santa Rita 	11	Noviembre	2023-11-24T00:00:00	2024-11-08T16:00:00	2	Temperatura media	20.6
130922	7	Sololá	704	Santa Lucía Utatlán 	7	Santa Rita 	11	Noviembre	2023-11-24T00:00:00	2024-11-08T16:00:00	4	Temperatura máxima	21.1
130923	7	Sololá	704	Santa Lucía Utatlán 	7	Santa Rita 	11	Noviembre	2023-11-24T00:00:00	2024-11-08T16:00:00	3	Temperatura mínima	20.6
130924	7	Sololá	704	Santa Lucía Utatlán 	7	Santa Rita 	11	Noviembre	2023-11-24T00:00:00	2024-11-08T16:00:00	5	Humedad	91
130925	7	Sololá	704	Santa Lucía Utatlán 	7	Santa Rita 	11	Noviembre	2023-11-24T00:00:00	2024-11-08T16:00:00	6	Velocidad del viento	1.6
130926	7	Sololá	704	Santa Lucía Utatlán 	7	Santa Rita 	11	Noviembre	2023-11-24T00:00:00	2024-11-08T16:00:00	7	Dirección del viento	1.61
130927	7	Sololá	704	Santa Lucía Utatlán 	7	Santa Rita 	11	Noviembre	2023-11-24T00:00:00	2024-11-08T16:00:00	1	Precipitación	0
130928	7	Sololá	704	Santa Lucía Utatlán 	7	Santa Rita 	11	Noviembre	2023-11-24T00:00:00	2024-11-08T16:00:00	8	Radiación solar	128
130929	7	Sololá	704	Santa Lucía Utatlán 	7	Santa Rita 	11	Noviembre	2023-11-24T00:00:00	2024-11-08T17:00:00	2	Temperatura media	19.5
130930	7	Sololá	704	Santa Lucía Utatlán 	7	Santa Rita 	11	Noviembre	2023-11-24T00:00:00	2024-11-08T17:00:00	4	Temperatura máxima	20.6
130931	7	Sololá	704	Santa Lucía Utatlán 	7	Santa Rita 	11	Noviembre	2023-11-24T00:00:00	2024-11-08T17:00:00	3	Temperatura mínima	19.5
130932	7	Sololá	704	Santa Lucía Utatlán 	7	Santa Rita 	11	Noviembre	2023-11-24T00:00:00	2024-11-08T17:00:00	5	Humedad	91
130933	7	Sololá	704	Santa Lucía Utatlán 	7	Santa Rita 	11	Noviembre	2023-11-24T00:00:00	2024-11-08T17:00:00	6	Velocidad del viento	1.6
130934	7	Sololá	704	Santa Lucía Utatlán 	7	Santa Rita 	11	Noviembre	2023-11-24T00:00:00	2024-11-08T17:00:00	7	Dirección del viento	1.61
130935	7	Sololá	704	Santa Lucía Utatlán 	7	Santa Rita 	11	Noviembre	2023-11-24T00:00:00	2024-11-08T17:00:00	1	Precipitación	0
130936	7	Sololá	704	Santa Lucía Utatlán 	7	Santa Rita 	11	Noviembre	2023-11-24T00:00:00	2024-11-08T17:00:00	8	Radiación solar	43
130937	7	Sololá	704	Santa Lucía Utatlán 	7	Santa Rita 	11	Noviembre	2023-11-24T00:00:00	2024-11-08T18:00:00	2	Temperatura media	19.1
130938	7	Sololá	704	Santa Lucía Utatlán 	7	Santa Rita 	11	Noviembre	2023-11-24T00:00:00	2024-11-08T18:00:00	4	Temperatura máxima	19.5
130939	7	Sololá	704	Santa Lucía Utatlán 	7	Santa Rita 	11	Noviembre	2023-11-24T00:00:00	2024-11-08T18:00:00	3	Temperatura mínima	18.9
130940	7	Sololá	704	Santa Lucía Utatlán 	7	Santa Rita 	11	Noviembre	2023-11-24T00:00:00	2024-11-08T18:00:00	5	Humedad	93
130941	7	Sololá	704	Santa Lucía Utatlán 	7	Santa Rita 	11	Noviembre	2023-11-24T00:00:00	2024-11-08T18:00:00	6	Velocidad del viento	1.6
130942	7	Sololá	704	Santa Lucía Utatlán 	7	Santa Rita 	11	Noviembre	2023-11-24T00:00:00	2024-11-08T18:00:00	7	Dirección del viento	1.61
130943	7	Sololá	704	Santa Lucía Utatlán 	7	Santa Rita 	11	Noviembre	2023-11-24T00:00:00	2024-11-08T18:00:00	1	Precipitación	0
130944	7	Sololá	704	Santa Lucía Utatlán 	7	Santa Rita 	11	Noviembre	2023-11-24T00:00:00	2024-11-08T18:00:00	8	Radiación solar	10
130945	7	Sololá	704	Santa Lucía Utatlán 	7	Santa Rita 	11	Noviembre	2023-11-24T00:00:00	2024-11-08T19:00:00	2	Temperatura media	19.4
130946	7	Sololá	704	Santa Lucía Utatlán 	7	Santa Rita 	11	Noviembre	2023-11-24T00:00:00	2024-11-08T19:00:00	4	Temperatura máxima	19.4
130947	7	Sololá	704	Santa Lucía Utatlán 	7	Santa Rita 	11	Noviembre	2023-11-24T00:00:00	2024-11-08T19:00:00	3	Temperatura mínima	19.1
130948	7	Sololá	704	Santa Lucía Utatlán 	7	Santa Rita 	11	Noviembre	2023-11-24T00:00:00	2024-11-08T19:00:00	5	Humedad	92
130949	7	Sololá	704	Santa Lucía Utatlán 	7	Santa Rita 	11	Noviembre	2023-11-24T00:00:00	2024-11-08T19:00:00	6	Velocidad del viento	1.6
130950	7	Sololá	704	Santa Lucía Utatlán 	7	Santa Rita 	11	Noviembre	2023-11-24T00:00:00	2024-11-08T19:00:00	7	Dirección del viento	1.61
130951	7	Sololá	704	Santa Lucía Utatlán 	7	Santa Rita 	11	Noviembre	2023-11-24T00:00:00	2024-11-08T19:00:00	1	Precipitación	0
130952	7	Sololá	704	Santa Lucía Utatlán 	7	Santa Rita 	11	Noviembre	2023-11-24T00:00:00	2024-11-08T19:00:00	8	Radiación solar	0
130953	7	Sololá	704	Santa Lucía Utatlán 	7	Santa Rita 	11	Noviembre	2023-11-24T00:00:00	2024-11-08T20:00:00	2	Temperatura media	18.5
130954	7	Sololá	704	Santa Lucía Utatlán 	7	Santa Rita 	11	Noviembre	2023-11-24T00:00:00	2024-11-08T20:00:00	4	Temperatura máxima	19.4
130955	7	Sololá	704	Santa Lucía Utatlán 	7	Santa Rita 	11	Noviembre	2023-11-24T00:00:00	2024-11-08T20:00:00	3	Temperatura mínima	18.4
130956	7	Sololá	704	Santa Lucía Utatlán 	7	Santa Rita 	11	Noviembre	2023-11-24T00:00:00	2024-11-08T20:00:00	5	Humedad	92
130957	7	Sololá	704	Santa Lucía Utatlán 	7	Santa Rita 	11	Noviembre	2023-11-24T00:00:00	2024-11-08T20:00:00	6	Velocidad del viento	1.6
130958	7	Sololá	704	Santa Lucía Utatlán 	7	Santa Rita 	11	Noviembre	2023-11-24T00:00:00	2024-11-08T20:00:00	7	Dirección del viento	1.61
130959	7	Sololá	704	Santa Lucía Utatlán 	7	Santa Rita 	11	Noviembre	2023-11-24T00:00:00	2024-11-08T20:00:00	1	Precipitación	0
130960	7	Sololá	704	Santa Lucía Utatlán 	7	Santa Rita 	11	Noviembre	2023-11-24T00:00:00	2024-11-08T20:00:00	8	Radiación solar	0
130961	7	Sololá	704	Santa Lucía Utatlán 	7	Santa Rita 	11	Noviembre	2023-11-24T00:00:00	2024-11-08T21:00:00	2	Temperatura media	18.4
130962	7	Sololá	704	Santa Lucía Utatlán 	7	Santa Rita 	11	Noviembre	2023-11-24T00:00:00	2024-11-08T21:00:00	4	Temperatura máxima	18.7
130963	7	Sololá	704	Santa Lucía Utatlán 	7	Santa Rita 	11	Noviembre	2023-11-24T00:00:00	2024-11-08T21:00:00	3	Temperatura mínima	18.3
130964	7	Sololá	704	Santa Lucía Utatlán 	7	Santa Rita 	11	Noviembre	2023-11-24T00:00:00	2024-11-08T21:00:00	5	Humedad	93
130965	7	Sololá	704	Santa Lucía Utatlán 	7	Santa Rita 	11	Noviembre	2023-11-24T00:00:00	2024-11-08T21:00:00	6	Velocidad del viento	3.2
130966	7	Sololá	704	Santa Lucía Utatlán 	7	Santa Rita 	11	Noviembre	2023-11-24T00:00:00	2024-11-08T21:00:00	7	Dirección del viento	3.22
130967	7	Sololá	704	Santa Lucía Utatlán 	7	Santa Rita 	11	Noviembre	2023-11-24T00:00:00	2024-11-08T21:00:00	1	Precipitación	0
130968	7	Sololá	704	Santa Lucía Utatlán 	7	Santa Rita 	11	Noviembre	2023-11-24T00:00:00	2024-11-08T21:00:00	8	Radiación solar	0
130969	7	Sololá	704	Santa Lucía Utatlán 	7	Santa Rita 	11	Noviembre	2023-11-24T00:00:00	2024-11-08T22:00:00	2	Temperatura media	17.6
130970	7	Sololá	704	Santa Lucía Utatlán 	7	Santa Rita 	11	Noviembre	2023-11-24T00:00:00	2024-11-08T22:00:00	4	Temperatura máxima	18.6
130971	7	Sololá	704	Santa Lucía Utatlán 	7	Santa Rita 	11	Noviembre	2023-11-24T00:00:00	2024-11-08T22:00:00	3	Temperatura mínima	17.6
130972	7	Sololá	704	Santa Lucía Utatlán 	7	Santa Rita 	11	Noviembre	2023-11-24T00:00:00	2024-11-08T22:00:00	5	Humedad	92
130973	7	Sololá	704	Santa Lucía Utatlán 	7	Santa Rita 	11	Noviembre	2023-11-24T00:00:00	2024-11-08T22:00:00	6	Velocidad del viento	3.2
130974	7	Sololá	704	Santa Lucía Utatlán 	7	Santa Rita 	11	Noviembre	2023-11-24T00:00:00	2024-11-08T22:00:00	7	Dirección del viento	3.22
130975	7	Sololá	704	Santa Lucía Utatlán 	7	Santa Rita 	11	Noviembre	2023-11-24T00:00:00	2024-11-08T22:00:00	1	Precipitación	0
130976	7	Sololá	704	Santa Lucía Utatlán 	7	Santa Rita 	11	Noviembre	2023-11-24T00:00:00	2024-11-08T22:00:00	8	Radiación solar	0
130977	7	Sololá	704	Santa Lucía Utatlán 	7	Santa Rita 	11	Noviembre	2023-11-24T00:00:00	2024-11-08T23:00:00	2	Temperatura media	17.6
130978	7	Sololá	704	Santa Lucía Utatlán 	7	Santa Rita 	11	Noviembre	2023-11-24T00:00:00	2024-11-08T23:00:00	4	Temperatura máxima	17.7
130979	7	Sololá	704	Santa Lucía Utatlán 	7	Santa Rita 	11	Noviembre	2023-11-24T00:00:00	2024-11-08T23:00:00	3	Temperatura mínima	17.6
130980	7	Sololá	704	Santa Lucía Utatlán 	7	Santa Rita 	11	Noviembre	2023-11-24T00:00:00	2024-11-08T23:00:00	5	Humedad	91
130981	7	Sololá	704	Santa Lucía Utatlán 	7	Santa Rita 	11	Noviembre	2023-11-24T00:00:00	2024-11-08T23:00:00	6	Velocidad del viento	4.8
130982	7	Sololá	704	Santa Lucía Utatlán 	7	Santa Rita 	11	Noviembre	2023-11-24T00:00:00	2024-11-08T23:00:00	7	Dirección del viento	4.83
130983	7	Sololá	704	Santa Lucía Utatlán 	7	Santa Rita 	11	Noviembre	2023-11-24T00:00:00	2024-11-08T23:00:00	1	Precipitación	0
130984	7	Sololá	704	Santa Lucía Utatlán 	7	Santa Rita 	11	Noviembre	2023-11-24T00:00:00	2024-11-08T23:00:00	8	Radiación solar	0
130985	7	Sololá	704	Santa Lucía Utatlán 	7	Santa Rita 	11	Noviembre	2023-11-25T00:00:00	2024-11-08T00:00:00	2	Temperatura media	17.1
130986	7	Sololá	704	Santa Lucía Utatlán 	7	Santa Rita 	11	Noviembre	2023-11-25T00:00:00	2024-11-08T00:00:00	4	Temperatura máxima	17.6
130987	7	Sololá	704	Santa Lucía Utatlán 	7	Santa Rita 	11	Noviembre	2023-11-25T00:00:00	2024-11-08T00:00:00	3	Temperatura mínima	17
130988	7	Sololá	704	Santa Lucía Utatlán 	7	Santa Rita 	11	Noviembre	2023-11-25T00:00:00	2024-11-08T00:00:00	5	Humedad	92
130989	7	Sololá	704	Santa Lucía Utatlán 	7	Santa Rita 	11	Noviembre	2023-11-25T00:00:00	2024-11-08T00:00:00	6	Velocidad del viento	3.2
130990	7	Sololá	704	Santa Lucía Utatlán 	7	Santa Rita 	11	Noviembre	2023-11-25T00:00:00	2024-11-08T00:00:00	7	Dirección del viento	3.22
130991	7	Sololá	704	Santa Lucía Utatlán 	7	Santa Rita 	11	Noviembre	2023-11-25T00:00:00	2024-11-08T00:00:00	1	Precipitación	0
130992	7	Sololá	704	Santa Lucía Utatlán 	7	Santa Rita 	11	Noviembre	2023-11-25T00:00:00	2024-11-08T00:00:00	8	Radiación solar	0
130993	7	Sololá	704	Santa Lucía Utatlán 	7	Santa Rita 	11	Noviembre	2023-11-25T00:00:00	2024-11-08T01:00:00	2	Temperatura media	17.8
130994	7	Sololá	704	Santa Lucía Utatlán 	7	Santa Rita 	11	Noviembre	2023-11-25T00:00:00	2024-11-08T01:00:00	4	Temperatura máxima	17.8
130995	7	Sololá	704	Santa Lucía Utatlán 	7	Santa Rita 	11	Noviembre	2023-11-25T00:00:00	2024-11-08T01:00:00	3	Temperatura mínima	17
130996	7	Sololá	704	Santa Lucía Utatlán 	7	Santa Rita 	11	Noviembre	2023-11-25T00:00:00	2024-11-08T01:00:00	5	Humedad	91
130997	7	Sololá	704	Santa Lucía Utatlán 	7	Santa Rita 	11	Noviembre	2023-11-25T00:00:00	2024-11-08T01:00:00	6	Velocidad del viento	3.2
130998	7	Sololá	704	Santa Lucía Utatlán 	7	Santa Rita 	11	Noviembre	2023-11-25T00:00:00	2024-11-08T01:00:00	7	Dirección del viento	3.22
130999	7	Sololá	704	Santa Lucía Utatlán 	7	Santa Rita 	11	Noviembre	2023-11-25T00:00:00	2024-11-08T01:00:00	1	Precipitación	0
131000	7	Sololá	704	Santa Lucía Utatlán 	7	Santa Rita 	11	Noviembre	2023-11-25T00:00:00	2024-11-08T01:00:00	8	Radiación solar	0
131001	7	Sololá	704	Santa Lucía Utatlán 	7	Santa Rita 	11	Noviembre	2023-11-25T00:00:00	2024-11-08T02:00:00	2	Temperatura media	18.4
131002	7	Sololá	704	Santa Lucía Utatlán 	7	Santa Rita 	11	Noviembre	2023-11-25T00:00:00	2024-11-08T02:00:00	4	Temperatura máxima	18.6
131003	7	Sololá	704	Santa Lucía Utatlán 	7	Santa Rita 	11	Noviembre	2023-11-25T00:00:00	2024-11-08T02:00:00	3	Temperatura mínima	17.8
131004	7	Sololá	704	Santa Lucía Utatlán 	7	Santa Rita 	11	Noviembre	2023-11-25T00:00:00	2024-11-08T02:00:00	5	Humedad	88
131005	7	Sololá	704	Santa Lucía Utatlán 	7	Santa Rita 	11	Noviembre	2023-11-25T00:00:00	2024-11-08T02:00:00	6	Velocidad del viento	1.6
131006	7	Sololá	704	Santa Lucía Utatlán 	7	Santa Rita 	11	Noviembre	2023-11-25T00:00:00	2024-11-08T02:00:00	7	Dirección del viento	1.61
131007	7	Sololá	704	Santa Lucía Utatlán 	7	Santa Rita 	11	Noviembre	2023-11-25T00:00:00	2024-11-08T02:00:00	1	Precipitación	0
131008	7	Sololá	704	Santa Lucía Utatlán 	7	Santa Rita 	11	Noviembre	2023-11-25T00:00:00	2024-11-08T02:00:00	8	Radiación solar	0
131009	7	Sololá	704	Santa Lucía Utatlán 	7	Santa Rita 	11	Noviembre	2023-11-25T00:00:00	2024-11-08T03:00:00	2	Temperatura media	17.4
131010	7	Sololá	704	Santa Lucía Utatlán 	7	Santa Rita 	11	Noviembre	2023-11-25T00:00:00	2024-11-08T03:00:00	4	Temperatura máxima	18.5
131011	7	Sololá	704	Santa Lucía Utatlán 	7	Santa Rita 	11	Noviembre	2023-11-25T00:00:00	2024-11-08T03:00:00	3	Temperatura mínima	17.4
131012	7	Sololá	704	Santa Lucía Utatlán 	7	Santa Rita 	11	Noviembre	2023-11-25T00:00:00	2024-11-08T03:00:00	5	Humedad	89
131013	7	Sololá	704	Santa Lucía Utatlán 	7	Santa Rita 	11	Noviembre	2023-11-25T00:00:00	2024-11-08T03:00:00	6	Velocidad del viento	1.6
131014	7	Sololá	704	Santa Lucía Utatlán 	7	Santa Rita 	11	Noviembre	2023-11-25T00:00:00	2024-11-08T03:00:00	7	Dirección del viento	1.61
131015	7	Sololá	704	Santa Lucía Utatlán 	7	Santa Rita 	11	Noviembre	2023-11-25T00:00:00	2024-11-08T03:00:00	1	Precipitación	0
131016	7	Sololá	704	Santa Lucía Utatlán 	7	Santa Rita 	11	Noviembre	2023-11-25T00:00:00	2024-11-08T03:00:00	8	Radiación solar	0
131017	7	Sololá	704	Santa Lucía Utatlán 	7	Santa Rita 	11	Noviembre	2023-11-25T00:00:00	2024-11-08T04:00:00	2	Temperatura media	17.7
131018	7	Sololá	704	Santa Lucía Utatlán 	7	Santa Rita 	11	Noviembre	2023-11-25T00:00:00	2024-11-08T04:00:00	4	Temperatura máxima	17.7
131019	7	Sololá	704	Santa Lucía Utatlán 	7	Santa Rita 	11	Noviembre	2023-11-25T00:00:00	2024-11-08T04:00:00	3	Temperatura mínima	17.3
131020	7	Sololá	704	Santa Lucía Utatlán 	7	Santa Rita 	11	Noviembre	2023-11-25T00:00:00	2024-11-08T04:00:00	5	Humedad	87
131021	7	Sololá	704	Santa Lucía Utatlán 	7	Santa Rita 	11	Noviembre	2023-11-25T00:00:00	2024-11-08T04:00:00	6	Velocidad del viento	1.6
131022	7	Sololá	704	Santa Lucía Utatlán 	7	Santa Rita 	11	Noviembre	2023-11-25T00:00:00	2024-11-08T04:00:00	7	Dirección del viento	1.61
131023	7	Sololá	704	Santa Lucía Utatlán 	7	Santa Rita 	11	Noviembre	2023-11-25T00:00:00	2024-11-08T04:00:00	1	Precipitación	0
131024	7	Sololá	704	Santa Lucía Utatlán 	7	Santa Rita 	11	Noviembre	2023-11-25T00:00:00	2024-11-08T04:00:00	8	Radiación solar	0
131025	7	Sololá	704	Santa Lucía Utatlán 	7	Santa Rita 	11	Noviembre	2023-11-25T00:00:00	2024-11-08T05:00:00	2	Temperatura media	18.1
131026	7	Sololá	704	Santa Lucía Utatlán 	7	Santa Rita 	11	Noviembre	2023-11-25T00:00:00	2024-11-08T05:00:00	4	Temperatura máxima	18.1
131027	7	Sololá	704	Santa Lucía Utatlán 	7	Santa Rita 	11	Noviembre	2023-11-25T00:00:00	2024-11-08T05:00:00	3	Temperatura mínima	16.9
131028	7	Sololá	704	Santa Lucía Utatlán 	7	Santa Rita 	11	Noviembre	2023-11-25T00:00:00	2024-11-08T05:00:00	5	Humedad	90
131029	7	Sololá	704	Santa Lucía Utatlán 	7	Santa Rita 	11	Noviembre	2023-11-25T00:00:00	2024-11-08T05:00:00	6	Velocidad del viento	1.6
131030	7	Sololá	704	Santa Lucía Utatlán 	7	Santa Rita 	11	Noviembre	2023-11-25T00:00:00	2024-11-08T05:00:00	7	Dirección del viento	1.61
131031	7	Sololá	704	Santa Lucía Utatlán 	7	Santa Rita 	11	Noviembre	2023-11-25T00:00:00	2024-11-08T05:00:00	1	Precipitación	0
131032	7	Sololá	704	Santa Lucía Utatlán 	7	Santa Rita 	11	Noviembre	2023-11-25T00:00:00	2024-11-08T05:00:00	8	Radiación solar	0
131033	7	Sololá	704	Santa Lucía Utatlán 	7	Santa Rita 	11	Noviembre	2023-11-25T00:00:00	2024-11-08T06:00:00	2	Temperatura media	19.7
131034	7	Sololá	704	Santa Lucía Utatlán 	7	Santa Rita 	11	Noviembre	2023-11-25T00:00:00	2024-11-08T06:00:00	4	Temperatura máxima	19.7
131035	7	Sololá	704	Santa Lucía Utatlán 	7	Santa Rita 	11	Noviembre	2023-11-25T00:00:00	2024-11-08T06:00:00	3	Temperatura mínima	18.1
131036	7	Sololá	704	Santa Lucía Utatlán 	7	Santa Rita 	11	Noviembre	2023-11-25T00:00:00	2024-11-08T06:00:00	5	Humedad	87
131037	7	Sololá	704	Santa Lucía Utatlán 	7	Santa Rita 	11	Noviembre	2023-11-25T00:00:00	2024-11-08T06:00:00	6	Velocidad del viento	0
131038	7	Sololá	704	Santa Lucía Utatlán 	7	Santa Rita 	11	Noviembre	2023-11-25T00:00:00	2024-11-08T06:00:00	7	Dirección del viento	0
131039	7	Sololá	704	Santa Lucía Utatlán 	7	Santa Rita 	11	Noviembre	2023-11-25T00:00:00	2024-11-08T06:00:00	1	Precipitación	0
131040	7	Sololá	704	Santa Lucía Utatlán 	7	Santa Rita 	11	Noviembre	2023-11-25T00:00:00	2024-11-08T06:00:00	8	Radiación solar	0
131041	7	Sololá	704	Santa Lucía Utatlán 	7	Santa Rita 	11	Noviembre	2023-11-25T00:00:00	2024-11-08T07:00:00	2	Temperatura media	23.6
131042	7	Sololá	704	Santa Lucía Utatlán 	7	Santa Rita 	11	Noviembre	2023-11-25T00:00:00	2024-11-08T07:00:00	4	Temperatura máxima	23.6
131043	7	Sololá	704	Santa Lucía Utatlán 	7	Santa Rita 	11	Noviembre	2023-11-25T00:00:00	2024-11-08T07:00:00	3	Temperatura mínima	19.7
131044	7	Sololá	704	Santa Lucía Utatlán 	7	Santa Rita 	11	Noviembre	2023-11-25T00:00:00	2024-11-08T07:00:00	5	Humedad	70
131045	7	Sololá	704	Santa Lucía Utatlán 	7	Santa Rita 	11	Noviembre	2023-11-25T00:00:00	2024-11-08T07:00:00	6	Velocidad del viento	3.2
131046	7	Sololá	704	Santa Lucía Utatlán 	7	Santa Rita 	11	Noviembre	2023-11-25T00:00:00	2024-11-08T07:00:00	7	Dirección del viento	3.22
131047	7	Sololá	704	Santa Lucía Utatlán 	7	Santa Rita 	11	Noviembre	2023-11-25T00:00:00	2024-11-08T07:00:00	1	Precipitación	0
131048	7	Sololá	704	Santa Lucía Utatlán 	7	Santa Rita 	11	Noviembre	2023-11-25T00:00:00	2024-11-08T07:00:00	8	Radiación solar	34
131049	7	Sololá	704	Santa Lucía Utatlán 	7	Santa Rita 	11	Noviembre	2023-11-25T00:00:00	2024-11-08T08:00:00	2	Temperatura media	24.9
131050	7	Sololá	704	Santa Lucía Utatlán 	7	Santa Rita 	11	Noviembre	2023-11-25T00:00:00	2024-11-08T08:00:00	4	Temperatura máxima	25.1
131051	7	Sololá	704	Santa Lucía Utatlán 	7	Santa Rita 	11	Noviembre	2023-11-25T00:00:00	2024-11-08T08:00:00	3	Temperatura mínima	23.6
131052	7	Sololá	704	Santa Lucía Utatlán 	7	Santa Rita 	11	Noviembre	2023-11-25T00:00:00	2024-11-08T08:00:00	5	Humedad	68
131053	7	Sololá	704	Santa Lucía Utatlán 	7	Santa Rita 	11	Noviembre	2023-11-25T00:00:00	2024-11-08T08:00:00	6	Velocidad del viento	6.4
131054	7	Sololá	704	Santa Lucía Utatlán 	7	Santa Rita 	11	Noviembre	2023-11-25T00:00:00	2024-11-08T08:00:00	7	Dirección del viento	6.44
131055	7	Sololá	704	Santa Lucía Utatlán 	7	Santa Rita 	11	Noviembre	2023-11-25T00:00:00	2024-11-08T08:00:00	1	Precipitación	0
131056	7	Sololá	704	Santa Lucía Utatlán 	7	Santa Rita 	11	Noviembre	2023-11-25T00:00:00	2024-11-08T08:00:00	8	Radiación solar	119
131057	7	Sololá	704	Santa Lucía Utatlán 	7	Santa Rita 	11	Noviembre	2023-11-25T00:00:00	2024-11-08T09:00:00	2	Temperatura media	25.5
131058	7	Sololá	704	Santa Lucía Utatlán 	7	Santa Rita 	11	Noviembre	2023-11-25T00:00:00	2024-11-08T09:00:00	4	Temperatura máxima	25.6
131059	7	Sololá	704	Santa Lucía Utatlán 	7	Santa Rita 	11	Noviembre	2023-11-25T00:00:00	2024-11-08T09:00:00	3	Temperatura mínima	24.9
131060	7	Sololá	704	Santa Lucía Utatlán 	7	Santa Rita 	11	Noviembre	2023-11-25T00:00:00	2024-11-08T09:00:00	5	Humedad	59
131061	7	Sololá	704	Santa Lucía Utatlán 	7	Santa Rita 	11	Noviembre	2023-11-25T00:00:00	2024-11-08T09:00:00	6	Velocidad del viento	9.7
131062	7	Sololá	704	Santa Lucía Utatlán 	7	Santa Rita 	11	Noviembre	2023-11-25T00:00:00	2024-11-08T09:00:00	7	Dirección del viento	9.66
131063	7	Sololá	704	Santa Lucía Utatlán 	7	Santa Rita 	11	Noviembre	2023-11-25T00:00:00	2024-11-08T09:00:00	1	Precipitación	0
131064	7	Sololá	704	Santa Lucía Utatlán 	7	Santa Rita 	11	Noviembre	2023-11-25T00:00:00	2024-11-08T09:00:00	8	Radiación solar	465
131065	7	Sololá	704	Santa Lucía Utatlán 	7	Santa Rita 	11	Noviembre	2023-11-25T00:00:00	2024-11-08T10:00:00	2	Temperatura media	25.8
131066	7	Sololá	704	Santa Lucía Utatlán 	7	Santa Rita 	11	Noviembre	2023-11-25T00:00:00	2024-11-08T10:00:00	4	Temperatura máxima	25.8
131067	7	Sololá	704	Santa Lucía Utatlán 	7	Santa Rita 	11	Noviembre	2023-11-25T00:00:00	2024-11-08T10:00:00	3	Temperatura mínima	25.3
131068	7	Sololá	704	Santa Lucía Utatlán 	7	Santa Rita 	11	Noviembre	2023-11-25T00:00:00	2024-11-08T10:00:00	5	Humedad	60
131069	7	Sololá	704	Santa Lucía Utatlán 	7	Santa Rita 	11	Noviembre	2023-11-25T00:00:00	2024-11-08T10:00:00	6	Velocidad del viento	11.3
131070	7	Sololá	704	Santa Lucía Utatlán 	7	Santa Rita 	11	Noviembre	2023-11-25T00:00:00	2024-11-08T10:00:00	7	Dirección del viento	11.27
131071	7	Sololá	704	Santa Lucía Utatlán 	7	Santa Rita 	11	Noviembre	2023-11-25T00:00:00	2024-11-08T10:00:00	1	Precipitación	0
131072	7	Sololá	704	Santa Lucía Utatlán 	7	Santa Rita 	11	Noviembre	2023-11-25T00:00:00	2024-11-08T10:00:00	8	Radiación solar	688
131073	7	Sololá	704	Santa Lucía Utatlán 	7	Santa Rita 	11	Noviembre	2023-11-25T00:00:00	2024-11-08T11:00:00	2	Temperatura media	25.9
131074	7	Sololá	704	Santa Lucía Utatlán 	7	Santa Rita 	11	Noviembre	2023-11-25T00:00:00	2024-11-08T11:00:00	4	Temperatura máxima	26.1
131075	7	Sololá	704	Santa Lucía Utatlán 	7	Santa Rita 	11	Noviembre	2023-11-25T00:00:00	2024-11-08T11:00:00	3	Temperatura mínima	25.4
131076	7	Sololá	704	Santa Lucía Utatlán 	7	Santa Rita 	11	Noviembre	2023-11-25T00:00:00	2024-11-08T11:00:00	5	Humedad	61
131077	7	Sololá	704	Santa Lucía Utatlán 	7	Santa Rita 	11	Noviembre	2023-11-25T00:00:00	2024-11-08T11:00:00	6	Velocidad del viento	9.7
131078	7	Sololá	704	Santa Lucía Utatlán 	7	Santa Rita 	11	Noviembre	2023-11-25T00:00:00	2024-11-08T11:00:00	7	Dirección del viento	9.66
131079	7	Sololá	704	Santa Lucía Utatlán 	7	Santa Rita 	11	Noviembre	2023-11-25T00:00:00	2024-11-08T11:00:00	1	Precipitación	0
131080	7	Sololá	704	Santa Lucía Utatlán 	7	Santa Rita 	11	Noviembre	2023-11-25T00:00:00	2024-11-08T11:00:00	8	Radiación solar	801
131081	7	Sololá	704	Santa Lucía Utatlán 	7	Santa Rita 	11	Noviembre	2023-11-25T00:00:00	2024-11-08T12:00:00	2	Temperatura media	25
131082	7	Sololá	704	Santa Lucía Utatlán 	7	Santa Rita 	11	Noviembre	2023-11-25T00:00:00	2024-11-08T12:00:00	4	Temperatura máxima	25.9
131083	7	Sololá	704	Santa Lucía Utatlán 	7	Santa Rita 	11	Noviembre	2023-11-25T00:00:00	2024-11-08T12:00:00	3	Temperatura mínima	24.5
131084	7	Sololá	704	Santa Lucía Utatlán 	7	Santa Rita 	11	Noviembre	2023-11-25T00:00:00	2024-11-08T12:00:00	5	Humedad	70
131085	7	Sololá	704	Santa Lucía Utatlán 	7	Santa Rita 	11	Noviembre	2023-11-25T00:00:00	2024-11-08T12:00:00	6	Velocidad del viento	11.3
131086	7	Sololá	704	Santa Lucía Utatlán 	7	Santa Rita 	11	Noviembre	2023-11-25T00:00:00	2024-11-08T12:00:00	7	Dirección del viento	11.27
131087	7	Sololá	704	Santa Lucía Utatlán 	7	Santa Rita 	11	Noviembre	2023-11-25T00:00:00	2024-11-08T12:00:00	1	Precipitación	0
131088	7	Sololá	704	Santa Lucía Utatlán 	7	Santa Rita 	11	Noviembre	2023-11-25T00:00:00	2024-11-08T12:00:00	8	Radiación solar	835
131089	7	Sololá	704	Santa Lucía Utatlán 	7	Santa Rita 	11	Noviembre	2023-11-25T00:00:00	2024-11-08T13:00:00	2	Temperatura media	23.7
131090	7	Sololá	704	Santa Lucía Utatlán 	7	Santa Rita 	11	Noviembre	2023-11-25T00:00:00	2024-11-08T13:00:00	4	Temperatura máxima	25.2
131091	7	Sololá	704	Santa Lucía Utatlán 	7	Santa Rita 	11	Noviembre	2023-11-25T00:00:00	2024-11-08T13:00:00	3	Temperatura mínima	23.3
131092	7	Sololá	704	Santa Lucía Utatlán 	7	Santa Rita 	11	Noviembre	2023-11-25T00:00:00	2024-11-08T13:00:00	5	Humedad	79
131093	7	Sololá	704	Santa Lucía Utatlán 	7	Santa Rita 	11	Noviembre	2023-11-25T00:00:00	2024-11-08T13:00:00	6	Velocidad del viento	9.7
131094	7	Sololá	704	Santa Lucía Utatlán 	7	Santa Rita 	11	Noviembre	2023-11-25T00:00:00	2024-11-08T13:00:00	7	Dirección del viento	9.66
131095	7	Sololá	704	Santa Lucía Utatlán 	7	Santa Rita 	11	Noviembre	2023-11-25T00:00:00	2024-11-08T13:00:00	1	Precipitación	0
131096	7	Sololá	704	Santa Lucía Utatlán 	7	Santa Rita 	11	Noviembre	2023-11-25T00:00:00	2024-11-08T13:00:00	8	Radiación solar	830
131097	7	Sololá	704	Santa Lucía Utatlán 	7	Santa Rita 	11	Noviembre	2023-11-25T00:00:00	2024-11-08T14:00:00	2	Temperatura media	23.2
131098	7	Sololá	704	Santa Lucía Utatlán 	7	Santa Rita 	11	Noviembre	2023-11-25T00:00:00	2024-11-08T14:00:00	4	Temperatura máxima	23.7
131099	7	Sololá	704	Santa Lucía Utatlán 	7	Santa Rita 	11	Noviembre	2023-11-25T00:00:00	2024-11-08T14:00:00	3	Temperatura mínima	23
131100	7	Sololá	704	Santa Lucía Utatlán 	7	Santa Rita 	11	Noviembre	2023-11-25T00:00:00	2024-11-08T14:00:00	5	Humedad	82
131101	7	Sololá	704	Santa Lucía Utatlán 	7	Santa Rita 	11	Noviembre	2023-11-25T00:00:00	2024-11-08T14:00:00	6	Velocidad del viento	8
131102	7	Sololá	704	Santa Lucía Utatlán 	7	Santa Rita 	11	Noviembre	2023-11-25T00:00:00	2024-11-08T14:00:00	7	Dirección del viento	8.05
131103	7	Sololá	704	Santa Lucía Utatlán 	7	Santa Rita 	11	Noviembre	2023-11-25T00:00:00	2024-11-08T14:00:00	1	Precipitación	0
131104	7	Sololá	704	Santa Lucía Utatlán 	7	Santa Rita 	11	Noviembre	2023-11-25T00:00:00	2024-11-08T14:00:00	8	Radiación solar	537
131105	7	Sololá	704	Santa Lucía Utatlán 	7	Santa Rita 	11	Noviembre	2023-11-25T00:00:00	2024-11-08T15:00:00	2	Temperatura media	21.3
131106	7	Sololá	704	Santa Lucía Utatlán 	7	Santa Rita 	11	Noviembre	2023-11-25T00:00:00	2024-11-08T15:00:00	4	Temperatura máxima	23.3
131107	7	Sololá	704	Santa Lucía Utatlán 	7	Santa Rita 	11	Noviembre	2023-11-25T00:00:00	2024-11-08T15:00:00	3	Temperatura mínima	21.3
131108	7	Sololá	704	Santa Lucía Utatlán 	7	Santa Rita 	11	Noviembre	2023-11-25T00:00:00	2024-11-08T15:00:00	5	Humedad	89
131109	7	Sololá	704	Santa Lucía Utatlán 	7	Santa Rita 	11	Noviembre	2023-11-25T00:00:00	2024-11-08T15:00:00	6	Velocidad del viento	4.8
131110	7	Sololá	704	Santa Lucía Utatlán 	7	Santa Rita 	11	Noviembre	2023-11-25T00:00:00	2024-11-08T15:00:00	7	Dirección del viento	4.83
131111	7	Sololá	704	Santa Lucía Utatlán 	7	Santa Rita 	11	Noviembre	2023-11-25T00:00:00	2024-11-08T15:00:00	1	Precipitación	0
131112	7	Sololá	704	Santa Lucía Utatlán 	7	Santa Rita 	11	Noviembre	2023-11-25T00:00:00	2024-11-08T15:00:00	8	Radiación solar	344
131113	7	Sololá	704	Santa Lucía Utatlán 	7	Santa Rita 	11	Noviembre	2023-11-25T00:00:00	2024-11-08T16:00:00	2	Temperatura media	19.3
131114	7	Sololá	704	Santa Lucía Utatlán 	7	Santa Rita 	11	Noviembre	2023-11-25T00:00:00	2024-11-08T16:00:00	4	Temperatura máxima	21.3
131115	7	Sololá	704	Santa Lucía Utatlán 	7	Santa Rita 	11	Noviembre	2023-11-25T00:00:00	2024-11-08T16:00:00	3	Temperatura mínima	19.3
131116	7	Sololá	704	Santa Lucía Utatlán 	7	Santa Rita 	11	Noviembre	2023-11-25T00:00:00	2024-11-08T16:00:00	5	Humedad	82
131117	7	Sololá	704	Santa Lucía Utatlán 	7	Santa Rita 	11	Noviembre	2023-11-25T00:00:00	2024-11-08T16:00:00	6	Velocidad del viento	1.6
131118	7	Sololá	704	Santa Lucía Utatlán 	7	Santa Rita 	11	Noviembre	2023-11-25T00:00:00	2024-11-08T16:00:00	7	Dirección del viento	1.61
131119	7	Sololá	704	Santa Lucía Utatlán 	7	Santa Rita 	11	Noviembre	2023-11-25T00:00:00	2024-11-08T16:00:00	1	Precipitación	0
131120	7	Sololá	704	Santa Lucía Utatlán 	7	Santa Rita 	11	Noviembre	2023-11-25T00:00:00	2024-11-08T16:00:00	8	Radiación solar	266
131121	7	Sololá	704	Santa Lucía Utatlán 	7	Santa Rita 	11	Noviembre	2023-11-25T00:00:00	2024-11-08T17:00:00	2	Temperatura media	18.9
131122	7	Sololá	704	Santa Lucía Utatlán 	7	Santa Rita 	11	Noviembre	2023-11-25T00:00:00	2024-11-08T17:00:00	4	Temperatura máxima	20.3
131123	7	Sololá	704	Santa Lucía Utatlán 	7	Santa Rita 	11	Noviembre	2023-11-25T00:00:00	2024-11-08T17:00:00	3	Temperatura mínima	18.9
131124	7	Sololá	704	Santa Lucía Utatlán 	7	Santa Rita 	11	Noviembre	2023-11-25T00:00:00	2024-11-08T17:00:00	5	Humedad	83
131125	7	Sololá	704	Santa Lucía Utatlán 	7	Santa Rita 	11	Noviembre	2023-11-25T00:00:00	2024-11-08T17:00:00	6	Velocidad del viento	3.2
131126	7	Sololá	704	Santa Lucía Utatlán 	7	Santa Rita 	11	Noviembre	2023-11-25T00:00:00	2024-11-08T17:00:00	7	Dirección del viento	3.22
131127	7	Sololá	704	Santa Lucía Utatlán 	7	Santa Rita 	11	Noviembre	2023-11-25T00:00:00	2024-11-08T17:00:00	1	Precipitación	0
131128	7	Sololá	704	Santa Lucía Utatlán 	7	Santa Rita 	11	Noviembre	2023-11-25T00:00:00	2024-11-08T17:00:00	8	Radiación solar	40
131129	7	Sololá	704	Santa Lucía Utatlán 	7	Santa Rita 	11	Noviembre	2023-11-25T00:00:00	2024-11-08T18:00:00	2	Temperatura media	18.6
131130	7	Sololá	704	Santa Lucía Utatlán 	7	Santa Rita 	11	Noviembre	2023-11-25T00:00:00	2024-11-08T18:00:00	4	Temperatura máxima	18.9
131131	7	Sololá	704	Santa Lucía Utatlán 	7	Santa Rita 	11	Noviembre	2023-11-25T00:00:00	2024-11-08T18:00:00	3	Temperatura mínima	17.9
131132	7	Sololá	704	Santa Lucía Utatlán 	7	Santa Rita 	11	Noviembre	2023-11-25T00:00:00	2024-11-08T18:00:00	5	Humedad	85
131133	7	Sololá	704	Santa Lucía Utatlán 	7	Santa Rita 	11	Noviembre	2023-11-25T00:00:00	2024-11-08T18:00:00	6	Velocidad del viento	3.2
131134	7	Sololá	704	Santa Lucía Utatlán 	7	Santa Rita 	11	Noviembre	2023-11-25T00:00:00	2024-11-08T18:00:00	7	Dirección del viento	3.22
131135	7	Sololá	704	Santa Lucía Utatlán 	7	Santa Rita 	11	Noviembre	2023-11-25T00:00:00	2024-11-08T18:00:00	1	Precipitación	0
131136	7	Sololá	704	Santa Lucía Utatlán 	7	Santa Rita 	11	Noviembre	2023-11-25T00:00:00	2024-11-08T18:00:00	8	Radiación solar	1
131137	7	Sololá	704	Santa Lucía Utatlán 	7	Santa Rita 	11	Noviembre	2023-11-25T00:00:00	2024-11-08T19:00:00	2	Temperatura media	17
131138	7	Sololá	704	Santa Lucía Utatlán 	7	Santa Rita 	11	Noviembre	2023-11-25T00:00:00	2024-11-08T19:00:00	4	Temperatura máxima	18.6
131139	7	Sololá	704	Santa Lucía Utatlán 	7	Santa Rita 	11	Noviembre	2023-11-25T00:00:00	2024-11-08T19:00:00	3	Temperatura mínima	17
131140	7	Sololá	704	Santa Lucía Utatlán 	7	Santa Rita 	11	Noviembre	2023-11-25T00:00:00	2024-11-08T19:00:00	5	Humedad	87
131141	7	Sololá	704	Santa Lucía Utatlán 	7	Santa Rita 	11	Noviembre	2023-11-25T00:00:00	2024-11-08T19:00:00	6	Velocidad del viento	4.8
131142	7	Sololá	704	Santa Lucía Utatlán 	7	Santa Rita 	11	Noviembre	2023-11-25T00:00:00	2024-11-08T19:00:00	7	Dirección del viento	4.83
131143	7	Sololá	704	Santa Lucía Utatlán 	7	Santa Rita 	11	Noviembre	2023-11-25T00:00:00	2024-11-08T19:00:00	1	Precipitación	0
131144	7	Sololá	704	Santa Lucía Utatlán 	7	Santa Rita 	11	Noviembre	2023-11-25T00:00:00	2024-11-08T19:00:00	8	Radiación solar	0
131145	7	Sololá	704	Santa Lucía Utatlán 	7	Santa Rita 	11	Noviembre	2023-11-25T00:00:00	2024-11-08T20:00:00	2	Temperatura media	16.7
131146	7	Sololá	704	Santa Lucía Utatlán 	7	Santa Rita 	11	Noviembre	2023-11-25T00:00:00	2024-11-08T20:00:00	4	Temperatura máxima	17.1
131147	7	Sololá	704	Santa Lucía Utatlán 	7	Santa Rita 	11	Noviembre	2023-11-25T00:00:00	2024-11-08T20:00:00	3	Temperatura mínima	16.7
131148	7	Sololá	704	Santa Lucía Utatlán 	7	Santa Rita 	11	Noviembre	2023-11-25T00:00:00	2024-11-08T20:00:00	5	Humedad	87
131149	7	Sololá	704	Santa Lucía Utatlán 	7	Santa Rita 	11	Noviembre	2023-11-25T00:00:00	2024-11-08T20:00:00	6	Velocidad del viento	4.8
131150	7	Sololá	704	Santa Lucía Utatlán 	7	Santa Rita 	11	Noviembre	2023-11-25T00:00:00	2024-11-08T20:00:00	7	Dirección del viento	4.83
131151	7	Sololá	704	Santa Lucía Utatlán 	7	Santa Rita 	11	Noviembre	2023-11-25T00:00:00	2024-11-08T20:00:00	1	Precipitación	0
131152	7	Sololá	704	Santa Lucía Utatlán 	7	Santa Rita 	11	Noviembre	2023-11-25T00:00:00	2024-11-08T20:00:00	8	Radiación solar	0
131153	7	Sololá	704	Santa Lucía Utatlán 	7	Santa Rita 	11	Noviembre	2023-11-25T00:00:00	2024-11-08T21:00:00	2	Temperatura media	16.4
131154	7	Sololá	704	Santa Lucía Utatlán 	7	Santa Rita 	11	Noviembre	2023-11-25T00:00:00	2024-11-08T21:00:00	4	Temperatura máxima	16.8
131155	7	Sololá	704	Santa Lucía Utatlán 	7	Santa Rita 	11	Noviembre	2023-11-25T00:00:00	2024-11-08T21:00:00	3	Temperatura mínima	16.4
131156	7	Sololá	704	Santa Lucía Utatlán 	7	Santa Rita 	11	Noviembre	2023-11-25T00:00:00	2024-11-08T21:00:00	5	Humedad	87
131157	7	Sololá	704	Santa Lucía Utatlán 	7	Santa Rita 	11	Noviembre	2023-11-25T00:00:00	2024-11-08T21:00:00	6	Velocidad del viento	3.2
131158	7	Sololá	704	Santa Lucía Utatlán 	7	Santa Rita 	11	Noviembre	2023-11-25T00:00:00	2024-11-08T21:00:00	7	Dirección del viento	3.22
131159	7	Sololá	704	Santa Lucía Utatlán 	7	Santa Rita 	11	Noviembre	2023-11-25T00:00:00	2024-11-08T21:00:00	1	Precipitación	0
131160	7	Sololá	704	Santa Lucía Utatlán 	7	Santa Rita 	11	Noviembre	2023-11-25T00:00:00	2024-11-08T21:00:00	8	Radiación solar	0
131161	7	Sololá	704	Santa Lucía Utatlán 	7	Santa Rita 	11	Noviembre	2023-11-25T00:00:00	2024-11-08T22:00:00	2	Temperatura media	16.7
131162	7	Sololá	704	Santa Lucía Utatlán 	7	Santa Rita 	11	Noviembre	2023-11-25T00:00:00	2024-11-08T22:00:00	4	Temperatura máxima	16.8
131163	7	Sololá	704	Santa Lucía Utatlán 	7	Santa Rita 	11	Noviembre	2023-11-25T00:00:00	2024-11-08T22:00:00	3	Temperatura mínima	16.3
131164	7	Sololá	704	Santa Lucía Utatlán 	7	Santa Rita 	11	Noviembre	2023-11-25T00:00:00	2024-11-08T22:00:00	5	Humedad	85
131165	7	Sololá	704	Santa Lucía Utatlán 	7	Santa Rita 	11	Noviembre	2023-11-25T00:00:00	2024-11-08T22:00:00	6	Velocidad del viento	3.2
131166	7	Sololá	704	Santa Lucía Utatlán 	7	Santa Rita 	11	Noviembre	2023-11-25T00:00:00	2024-11-08T22:00:00	7	Dirección del viento	3.22
131167	7	Sololá	704	Santa Lucía Utatlán 	7	Santa Rita 	11	Noviembre	2023-11-25T00:00:00	2024-11-08T22:00:00	1	Precipitación	0
131168	7	Sololá	704	Santa Lucía Utatlán 	7	Santa Rita 	11	Noviembre	2023-11-25T00:00:00	2024-11-08T22:00:00	8	Radiación solar	0
131169	7	Sololá	704	Santa Lucía Utatlán 	7	Santa Rita 	11	Noviembre	2023-11-25T00:00:00	2024-11-08T23:00:00	2	Temperatura media	16.9
131170	7	Sololá	704	Santa Lucía Utatlán 	7	Santa Rita 	11	Noviembre	2023-11-25T00:00:00	2024-11-08T23:00:00	4	Temperatura máxima	17.3
131171	7	Sololá	704	Santa Lucía Utatlán 	7	Santa Rita 	11	Noviembre	2023-11-25T00:00:00	2024-11-08T23:00:00	3	Temperatura mínima	16.6
131172	7	Sololá	704	Santa Lucía Utatlán 	7	Santa Rita 	11	Noviembre	2023-11-25T00:00:00	2024-11-08T23:00:00	5	Humedad	85
131173	7	Sololá	704	Santa Lucía Utatlán 	7	Santa Rita 	11	Noviembre	2023-11-25T00:00:00	2024-11-08T23:00:00	6	Velocidad del viento	4.8
131174	7	Sololá	704	Santa Lucía Utatlán 	7	Santa Rita 	11	Noviembre	2023-11-25T00:00:00	2024-11-08T23:00:00	7	Dirección del viento	4.83
131175	7	Sololá	704	Santa Lucía Utatlán 	7	Santa Rita 	11	Noviembre	2023-11-25T00:00:00	2024-11-08T23:00:00	1	Precipitación	0
131176	7	Sololá	704	Santa Lucía Utatlán 	7	Santa Rita 	11	Noviembre	2023-11-25T00:00:00	2024-11-08T23:00:00	8	Radiación solar	0
131177	7	Sololá	704	Santa Lucía Utatlán 	7	Santa Rita 	11	Noviembre	2023-11-26T00:00:00	2024-11-08T00:00:00	2	Temperatura media	16.6
131178	7	Sololá	704	Santa Lucía Utatlán 	7	Santa Rita 	11	Noviembre	2023-11-26T00:00:00	2024-11-08T00:00:00	4	Temperatura máxima	17.1
131179	7	Sololá	704	Santa Lucía Utatlán 	7	Santa Rita 	11	Noviembre	2023-11-26T00:00:00	2024-11-08T00:00:00	3	Temperatura mínima	16.6
131180	7	Sololá	704	Santa Lucía Utatlán 	7	Santa Rita 	11	Noviembre	2023-11-26T00:00:00	2024-11-08T00:00:00	5	Humedad	84
131181	7	Sololá	704	Santa Lucía Utatlán 	7	Santa Rita 	11	Noviembre	2023-11-26T00:00:00	2024-11-08T00:00:00	6	Velocidad del viento	4.8
131182	7	Sololá	704	Santa Lucía Utatlán 	7	Santa Rita 	11	Noviembre	2023-11-26T00:00:00	2024-11-08T00:00:00	7	Dirección del viento	4.83
131183	7	Sololá	704	Santa Lucía Utatlán 	7	Santa Rita 	11	Noviembre	2023-11-26T00:00:00	2024-11-08T00:00:00	1	Precipitación	0
131184	7	Sololá	704	Santa Lucía Utatlán 	7	Santa Rita 	11	Noviembre	2023-11-26T00:00:00	2024-11-08T00:00:00	8	Radiación solar	0
131185	7	Sololá	704	Santa Lucía Utatlán 	7	Santa Rita 	11	Noviembre	2023-11-26T00:00:00	2024-11-08T01:00:00	2	Temperatura media	17.2
131186	7	Sololá	704	Santa Lucía Utatlán 	7	Santa Rita 	11	Noviembre	2023-11-26T00:00:00	2024-11-08T01:00:00	4	Temperatura máxima	17.2
131187	7	Sololá	704	Santa Lucía Utatlán 	7	Santa Rita 	11	Noviembre	2023-11-26T00:00:00	2024-11-08T01:00:00	3	Temperatura mínima	16.1
131188	7	Sololá	704	Santa Lucía Utatlán 	7	Santa Rita 	11	Noviembre	2023-11-26T00:00:00	2024-11-08T01:00:00	5	Humedad	83
131189	7	Sololá	704	Santa Lucía Utatlán 	7	Santa Rita 	11	Noviembre	2023-11-26T00:00:00	2024-11-08T01:00:00	6	Velocidad del viento	4.8
131190	7	Sololá	704	Santa Lucía Utatlán 	7	Santa Rita 	11	Noviembre	2023-11-26T00:00:00	2024-11-08T01:00:00	7	Dirección del viento	4.83
131191	7	Sololá	704	Santa Lucía Utatlán 	7	Santa Rita 	11	Noviembre	2023-11-26T00:00:00	2024-11-08T01:00:00	1	Precipitación	0
131192	7	Sololá	704	Santa Lucía Utatlán 	7	Santa Rita 	11	Noviembre	2023-11-26T00:00:00	2024-11-08T01:00:00	8	Radiación solar	0
131193	7	Sololá	704	Santa Lucía Utatlán 	7	Santa Rita 	11	Noviembre	2023-11-26T00:00:00	2024-11-08T02:00:00	2	Temperatura media	16.1
131194	7	Sololá	704	Santa Lucía Utatlán 	7	Santa Rita 	11	Noviembre	2023-11-26T00:00:00	2024-11-08T02:00:00	4	Temperatura máxima	17.2
131195	7	Sololá	704	Santa Lucía Utatlán 	7	Santa Rita 	11	Noviembre	2023-11-26T00:00:00	2024-11-08T02:00:00	3	Temperatura mínima	15.8
131196	7	Sololá	704	Santa Lucía Utatlán 	7	Santa Rita 	11	Noviembre	2023-11-26T00:00:00	2024-11-08T02:00:00	5	Humedad	87
131197	7	Sololá	704	Santa Lucía Utatlán 	7	Santa Rita 	11	Noviembre	2023-11-26T00:00:00	2024-11-08T02:00:00	6	Velocidad del viento	3.2
131198	7	Sololá	704	Santa Lucía Utatlán 	7	Santa Rita 	11	Noviembre	2023-11-26T00:00:00	2024-11-08T02:00:00	7	Dirección del viento	3.22
131199	7	Sololá	704	Santa Lucía Utatlán 	7	Santa Rita 	11	Noviembre	2023-11-26T00:00:00	2024-11-08T02:00:00	1	Precipitación	0
131200	7	Sololá	704	Santa Lucía Utatlán 	7	Santa Rita 	11	Noviembre	2023-11-26T00:00:00	2024-11-08T02:00:00	8	Radiación solar	0
131201	7	Sololá	704	Santa Lucía Utatlán 	7	Santa Rita 	11	Noviembre	2023-11-26T00:00:00	2024-11-08T03:00:00	2	Temperatura media	15.6
131202	7	Sololá	704	Santa Lucía Utatlán 	7	Santa Rita 	11	Noviembre	2023-11-26T00:00:00	2024-11-08T03:00:00	4	Temperatura máxima	16.1
131203	7	Sololá	704	Santa Lucía Utatlán 	7	Santa Rita 	11	Noviembre	2023-11-26T00:00:00	2024-11-08T03:00:00	3	Temperatura mínima	15.3
131204	7	Sololá	704	Santa Lucía Utatlán 	7	Santa Rita 	11	Noviembre	2023-11-26T00:00:00	2024-11-08T03:00:00	5	Humedad	88
131205	7	Sololá	704	Santa Lucía Utatlán 	7	Santa Rita 	11	Noviembre	2023-11-26T00:00:00	2024-11-08T03:00:00	6	Velocidad del viento	3.2
131206	7	Sololá	704	Santa Lucía Utatlán 	7	Santa Rita 	11	Noviembre	2023-11-26T00:00:00	2024-11-08T03:00:00	7	Dirección del viento	3.22
131207	7	Sololá	704	Santa Lucía Utatlán 	7	Santa Rita 	11	Noviembre	2023-11-26T00:00:00	2024-11-08T03:00:00	1	Precipitación	0
131208	7	Sololá	704	Santa Lucía Utatlán 	7	Santa Rita 	11	Noviembre	2023-11-26T00:00:00	2024-11-08T03:00:00	8	Radiación solar	0
131209	7	Sololá	704	Santa Lucía Utatlán 	7	Santa Rita 	11	Noviembre	2023-11-26T00:00:00	2024-11-08T04:00:00	2	Temperatura media	15.1
131210	7	Sololá	704	Santa Lucía Utatlán 	7	Santa Rita 	11	Noviembre	2023-11-26T00:00:00	2024-11-08T04:00:00	4	Temperatura máxima	15.6
131211	7	Sololá	704	Santa Lucía Utatlán 	7	Santa Rita 	11	Noviembre	2023-11-26T00:00:00	2024-11-08T04:00:00	3	Temperatura mínima	14.9
131212	7	Sololá	704	Santa Lucía Utatlán 	7	Santa Rita 	11	Noviembre	2023-11-26T00:00:00	2024-11-08T04:00:00	5	Humedad	89
131213	7	Sololá	704	Santa Lucía Utatlán 	7	Santa Rita 	11	Noviembre	2023-11-26T00:00:00	2024-11-08T04:00:00	6	Velocidad del viento	4.8
131214	7	Sololá	704	Santa Lucía Utatlán 	7	Santa Rita 	11	Noviembre	2023-11-26T00:00:00	2024-11-08T04:00:00	7	Dirección del viento	4.83
131215	7	Sololá	704	Santa Lucía Utatlán 	7	Santa Rita 	11	Noviembre	2023-11-26T00:00:00	2024-11-08T04:00:00	1	Precipitación	0
131216	7	Sololá	704	Santa Lucía Utatlán 	7	Santa Rita 	11	Noviembre	2023-11-26T00:00:00	2024-11-08T04:00:00	8	Radiación solar	0
131217	7	Sololá	704	Santa Lucía Utatlán 	7	Santa Rita 	11	Noviembre	2023-11-26T00:00:00	2024-11-08T05:00:00	2	Temperatura media	17.6
131218	7	Sololá	704	Santa Lucía Utatlán 	7	Santa Rita 	11	Noviembre	2023-11-26T00:00:00	2024-11-08T05:00:00	4	Temperatura máxima	17.6
131219	7	Sololá	704	Santa Lucía Utatlán 	7	Santa Rita 	11	Noviembre	2023-11-26T00:00:00	2024-11-08T05:00:00	3	Temperatura mínima	15.1
131220	7	Sololá	704	Santa Lucía Utatlán 	7	Santa Rita 	11	Noviembre	2023-11-26T00:00:00	2024-11-08T05:00:00	5	Humedad	81
131221	7	Sololá	704	Santa Lucía Utatlán 	7	Santa Rita 	11	Noviembre	2023-11-26T00:00:00	2024-11-08T05:00:00	6	Velocidad del viento	3.2
131222	7	Sololá	704	Santa Lucía Utatlán 	7	Santa Rita 	11	Noviembre	2023-11-26T00:00:00	2024-11-08T05:00:00	7	Dirección del viento	3.22
131223	7	Sololá	704	Santa Lucía Utatlán 	7	Santa Rita 	11	Noviembre	2023-11-26T00:00:00	2024-11-08T05:00:00	1	Precipitación	0
131224	7	Sololá	704	Santa Lucía Utatlán 	7	Santa Rita 	11	Noviembre	2023-11-26T00:00:00	2024-11-08T05:00:00	8	Radiación solar	0
131225	7	Sololá	704	Santa Lucía Utatlán 	7	Santa Rita 	11	Noviembre	2023-11-26T00:00:00	2024-11-08T06:00:00	2	Temperatura media	21.7
131226	7	Sololá	704	Santa Lucía Utatlán 	7	Santa Rita 	11	Noviembre	2023-11-26T00:00:00	2024-11-08T06:00:00	4	Temperatura máxima	21.7
131227	7	Sololá	704	Santa Lucía Utatlán 	7	Santa Rita 	11	Noviembre	2023-11-26T00:00:00	2024-11-08T06:00:00	3	Temperatura mínima	17.6
131228	7	Sololá	704	Santa Lucía Utatlán 	7	Santa Rita 	11	Noviembre	2023-11-26T00:00:00	2024-11-08T06:00:00	5	Humedad	67
131229	7	Sololá	704	Santa Lucía Utatlán 	7	Santa Rita 	11	Noviembre	2023-11-26T00:00:00	2024-11-08T06:00:00	6	Velocidad del viento	1.6
131230	7	Sololá	704	Santa Lucía Utatlán 	7	Santa Rita 	11	Noviembre	2023-11-26T00:00:00	2024-11-08T06:00:00	7	Dirección del viento	1.61
131231	7	Sololá	704	Santa Lucía Utatlán 	7	Santa Rita 	11	Noviembre	2023-11-26T00:00:00	2024-11-08T06:00:00	1	Precipitación	0
131232	7	Sololá	704	Santa Lucía Utatlán 	7	Santa Rita 	11	Noviembre	2023-11-26T00:00:00	2024-11-08T06:00:00	8	Radiación solar	1
131233	7	Sololá	704	Santa Lucía Utatlán 	7	Santa Rita 	11	Noviembre	2023-11-26T00:00:00	2024-11-08T07:00:00	2	Temperatura media	23.8
131234	7	Sololá	704	Santa Lucía Utatlán 	7	Santa Rita 	11	Noviembre	2023-11-26T00:00:00	2024-11-08T07:00:00	4	Temperatura máxima	23.8
131235	7	Sololá	704	Santa Lucía Utatlán 	7	Santa Rita 	11	Noviembre	2023-11-26T00:00:00	2024-11-08T07:00:00	3	Temperatura mínima	21.8
131236	7	Sololá	704	Santa Lucía Utatlán 	7	Santa Rita 	11	Noviembre	2023-11-26T00:00:00	2024-11-08T07:00:00	5	Humedad	55
131237	7	Sololá	704	Santa Lucía Utatlán 	7	Santa Rita 	11	Noviembre	2023-11-26T00:00:00	2024-11-08T07:00:00	6	Velocidad del viento	4.8
131238	7	Sololá	704	Santa Lucía Utatlán 	7	Santa Rita 	11	Noviembre	2023-11-26T00:00:00	2024-11-08T07:00:00	7	Dirección del viento	4.83
131239	7	Sololá	704	Santa Lucía Utatlán 	7	Santa Rita 	11	Noviembre	2023-11-26T00:00:00	2024-11-08T07:00:00	1	Precipitación	0
131240	7	Sololá	704	Santa Lucía Utatlán 	7	Santa Rita 	11	Noviembre	2023-11-26T00:00:00	2024-11-08T07:00:00	8	Radiación solar	74
131241	7	Sololá	704	Santa Lucía Utatlán 	7	Santa Rita 	11	Noviembre	2023-11-26T00:00:00	2024-11-08T08:00:00	2	Temperatura media	24.6
131242	7	Sololá	704	Santa Lucía Utatlán 	7	Santa Rita 	11	Noviembre	2023-11-26T00:00:00	2024-11-08T08:00:00	4	Temperatura máxima	24.6
131243	7	Sololá	704	Santa Lucía Utatlán 	7	Santa Rita 	11	Noviembre	2023-11-26T00:00:00	2024-11-08T08:00:00	3	Temperatura mínima	23.4
131244	7	Sololá	704	Santa Lucía Utatlán 	7	Santa Rita 	11	Noviembre	2023-11-26T00:00:00	2024-11-08T08:00:00	5	Humedad	51
131245	7	Sololá	704	Santa Lucía Utatlán 	7	Santa Rita 	11	Noviembre	2023-11-26T00:00:00	2024-11-08T08:00:00	6	Velocidad del viento	11.3
131246	7	Sololá	704	Santa Lucía Utatlán 	7	Santa Rita 	11	Noviembre	2023-11-26T00:00:00	2024-11-08T08:00:00	7	Dirección del viento	11.27
131247	7	Sololá	704	Santa Lucía Utatlán 	7	Santa Rita 	11	Noviembre	2023-11-26T00:00:00	2024-11-08T08:00:00	1	Precipitación	0
131248	7	Sololá	704	Santa Lucía Utatlán 	7	Santa Rita 	11	Noviembre	2023-11-26T00:00:00	2024-11-08T08:00:00	8	Radiación solar	311
131249	7	Sololá	704	Santa Lucía Utatlán 	7	Santa Rita 	11	Noviembre	2023-11-26T00:00:00	2024-11-08T09:00:00	2	Temperatura media	24.7
131250	7	Sololá	704	Santa Lucía Utatlán 	7	Santa Rita 	11	Noviembre	2023-11-26T00:00:00	2024-11-08T09:00:00	4	Temperatura máxima	24.8
131251	7	Sololá	704	Santa Lucía Utatlán 	7	Santa Rita 	11	Noviembre	2023-11-26T00:00:00	2024-11-08T09:00:00	3	Temperatura mínima	24.2
131252	7	Sololá	704	Santa Lucía Utatlán 	7	Santa Rita 	11	Noviembre	2023-11-26T00:00:00	2024-11-08T09:00:00	5	Humedad	49
131253	7	Sololá	704	Santa Lucía Utatlán 	7	Santa Rita 	11	Noviembre	2023-11-26T00:00:00	2024-11-08T09:00:00	6	Velocidad del viento	11.3
131254	7	Sololá	704	Santa Lucía Utatlán 	7	Santa Rita 	11	Noviembre	2023-11-26T00:00:00	2024-11-08T09:00:00	7	Dirección del viento	11.27
131255	7	Sololá	704	Santa Lucía Utatlán 	7	Santa Rita 	11	Noviembre	2023-11-26T00:00:00	2024-11-08T09:00:00	1	Precipitación	0
131256	7	Sololá	704	Santa Lucía Utatlán 	7	Santa Rita 	11	Noviembre	2023-11-26T00:00:00	2024-11-08T09:00:00	8	Radiación solar	524
131257	7	Sololá	704	Santa Lucía Utatlán 	7	Santa Rita 	11	Noviembre	2023-11-26T00:00:00	2024-11-08T10:00:00	2	Temperatura media	25.1
131258	7	Sololá	704	Santa Lucía Utatlán 	7	Santa Rita 	11	Noviembre	2023-11-26T00:00:00	2024-11-08T10:00:00	4	Temperatura máxima	25.2
131259	7	Sololá	704	Santa Lucía Utatlán 	7	Santa Rita 	11	Noviembre	2023-11-26T00:00:00	2024-11-08T10:00:00	3	Temperatura mínima	24.3
131260	7	Sololá	704	Santa Lucía Utatlán 	7	Santa Rita 	11	Noviembre	2023-11-26T00:00:00	2024-11-08T10:00:00	5	Humedad	48
131261	7	Sololá	704	Santa Lucía Utatlán 	7	Santa Rita 	11	Noviembre	2023-11-26T00:00:00	2024-11-08T10:00:00	6	Velocidad del viento	11.3
131262	7	Sololá	704	Santa Lucía Utatlán 	7	Santa Rita 	11	Noviembre	2023-11-26T00:00:00	2024-11-08T10:00:00	7	Dirección del viento	11.27
131263	7	Sololá	704	Santa Lucía Utatlán 	7	Santa Rita 	11	Noviembre	2023-11-26T00:00:00	2024-11-08T10:00:00	1	Precipitación	0
131264	7	Sololá	704	Santa Lucía Utatlán 	7	Santa Rita 	11	Noviembre	2023-11-26T00:00:00	2024-11-08T10:00:00	8	Radiación solar	690
131265	7	Sololá	704	Santa Lucía Utatlán 	7	Santa Rita 	11	Noviembre	2023-11-26T00:00:00	2024-11-08T11:00:00	2	Temperatura media	24.7
131266	7	Sololá	704	Santa Lucía Utatlán 	7	Santa Rita 	11	Noviembre	2023-11-26T00:00:00	2024-11-08T11:00:00	4	Temperatura máxima	25.4
131267	7	Sololá	704	Santa Lucía Utatlán 	7	Santa Rita 	11	Noviembre	2023-11-26T00:00:00	2024-11-08T11:00:00	3	Temperatura mínima	24.7
131268	7	Sololá	704	Santa Lucía Utatlán 	7	Santa Rita 	11	Noviembre	2023-11-26T00:00:00	2024-11-08T11:00:00	5	Humedad	63
131269	7	Sololá	704	Santa Lucía Utatlán 	7	Santa Rita 	11	Noviembre	2023-11-26T00:00:00	2024-11-08T11:00:00	6	Velocidad del viento	9.7
131270	7	Sololá	704	Santa Lucía Utatlán 	7	Santa Rita 	11	Noviembre	2023-11-26T00:00:00	2024-11-08T11:00:00	7	Dirección del viento	9.66
131271	7	Sololá	704	Santa Lucía Utatlán 	7	Santa Rita 	11	Noviembre	2023-11-26T00:00:00	2024-11-08T11:00:00	1	Precipitación	0
131272	7	Sololá	704	Santa Lucía Utatlán 	7	Santa Rita 	11	Noviembre	2023-11-26T00:00:00	2024-11-08T11:00:00	8	Radiación solar	786
131273	7	Sololá	704	Santa Lucía Utatlán 	7	Santa Rita 	11	Noviembre	2023-11-26T00:00:00	2024-11-08T12:00:00	2	Temperatura media	24.7
131274	7	Sololá	704	Santa Lucía Utatlán 	7	Santa Rita 	11	Noviembre	2023-11-26T00:00:00	2024-11-08T12:00:00	4	Temperatura máxima	24.7
131275	7	Sololá	704	Santa Lucía Utatlán 	7	Santa Rita 	11	Noviembre	2023-11-26T00:00:00	2024-11-08T12:00:00	3	Temperatura mínima	24
131276	7	Sololá	704	Santa Lucía Utatlán 	7	Santa Rita 	11	Noviembre	2023-11-26T00:00:00	2024-11-08T12:00:00	5	Humedad	59
131277	7	Sololá	704	Santa Lucía Utatlán 	7	Santa Rita 	11	Noviembre	2023-11-26T00:00:00	2024-11-08T12:00:00	6	Velocidad del viento	8
131278	7	Sololá	704	Santa Lucía Utatlán 	7	Santa Rita 	11	Noviembre	2023-11-26T00:00:00	2024-11-08T12:00:00	7	Dirección del viento	8.05
131279	7	Sololá	704	Santa Lucía Utatlán 	7	Santa Rita 	11	Noviembre	2023-11-26T00:00:00	2024-11-08T12:00:00	1	Precipitación	0
131280	7	Sololá	704	Santa Lucía Utatlán 	7	Santa Rita 	11	Noviembre	2023-11-26T00:00:00	2024-11-08T12:00:00	8	Radiación solar	828
131281	7	Sololá	704	Santa Lucía Utatlán 	7	Santa Rita 	11	Noviembre	2023-11-26T00:00:00	2024-11-08T13:00:00	2	Temperatura media	23.9
131282	7	Sololá	704	Santa Lucía Utatlán 	7	Santa Rita 	11	Noviembre	2023-11-26T00:00:00	2024-11-08T13:00:00	4	Temperatura máxima	25
131283	7	Sololá	704	Santa Lucía Utatlán 	7	Santa Rita 	11	Noviembre	2023-11-26T00:00:00	2024-11-08T13:00:00	3	Temperatura mínima	23.9
131284	7	Sololá	704	Santa Lucía Utatlán 	7	Santa Rita 	11	Noviembre	2023-11-26T00:00:00	2024-11-08T13:00:00	5	Humedad	59
131285	7	Sololá	704	Santa Lucía Utatlán 	7	Santa Rita 	11	Noviembre	2023-11-26T00:00:00	2024-11-08T13:00:00	6	Velocidad del viento	9.7
131286	7	Sololá	704	Santa Lucía Utatlán 	7	Santa Rita 	11	Noviembre	2023-11-26T00:00:00	2024-11-08T13:00:00	7	Dirección del viento	9.66
131287	7	Sololá	704	Santa Lucía Utatlán 	7	Santa Rita 	11	Noviembre	2023-11-26T00:00:00	2024-11-08T13:00:00	1	Precipitación	0
131288	7	Sololá	704	Santa Lucía Utatlán 	7	Santa Rita 	11	Noviembre	2023-11-26T00:00:00	2024-11-08T13:00:00	8	Radiación solar	813
131289	7	Sololá	704	Santa Lucía Utatlán 	7	Santa Rita 	11	Noviembre	2023-11-26T00:00:00	2024-11-08T14:00:00	2	Temperatura media	23.6
131290	7	Sololá	704	Santa Lucía Utatlán 	7	Santa Rita 	11	Noviembre	2023-11-26T00:00:00	2024-11-08T14:00:00	4	Temperatura máxima	24.2
131291	7	Sololá	704	Santa Lucía Utatlán 	7	Santa Rita 	11	Noviembre	2023-11-26T00:00:00	2024-11-08T14:00:00	3	Temperatura mínima	23.6
131292	7	Sololá	704	Santa Lucía Utatlán 	7	Santa Rita 	11	Noviembre	2023-11-26T00:00:00	2024-11-08T14:00:00	5	Humedad	57
131293	7	Sololá	704	Santa Lucía Utatlán 	7	Santa Rita 	11	Noviembre	2023-11-26T00:00:00	2024-11-08T14:00:00	6	Velocidad del viento	9.7
131294	7	Sololá	704	Santa Lucía Utatlán 	7	Santa Rita 	11	Noviembre	2023-11-26T00:00:00	2024-11-08T14:00:00	7	Dirección del viento	9.66
131295	7	Sololá	704	Santa Lucía Utatlán 	7	Santa Rita 	11	Noviembre	2023-11-26T00:00:00	2024-11-08T14:00:00	1	Precipitación	0
131296	7	Sololá	704	Santa Lucía Utatlán 	7	Santa Rita 	11	Noviembre	2023-11-26T00:00:00	2024-11-08T14:00:00	8	Radiación solar	620
131297	7	Sololá	704	Santa Lucía Utatlán 	7	Santa Rita 	11	Noviembre	2023-11-26T00:00:00	2024-11-08T15:00:00	2	Temperatura media	21.1
131298	7	Sololá	704	Santa Lucía Utatlán 	7	Santa Rita 	11	Noviembre	2023-11-26T00:00:00	2024-11-08T15:00:00	4	Temperatura máxima	23.6
131299	7	Sololá	704	Santa Lucía Utatlán 	7	Santa Rita 	11	Noviembre	2023-11-26T00:00:00	2024-11-08T15:00:00	3	Temperatura mínima	21.1
131300	7	Sololá	704	Santa Lucía Utatlán 	7	Santa Rita 	11	Noviembre	2023-11-26T00:00:00	2024-11-08T15:00:00	5	Humedad	69
131301	7	Sololá	704	Santa Lucía Utatlán 	7	Santa Rita 	11	Noviembre	2023-11-26T00:00:00	2024-11-08T15:00:00	6	Velocidad del viento	6.4
131302	7	Sololá	704	Santa Lucía Utatlán 	7	Santa Rita 	11	Noviembre	2023-11-26T00:00:00	2024-11-08T15:00:00	7	Dirección del viento	6.44
131303	7	Sololá	704	Santa Lucía Utatlán 	7	Santa Rita 	11	Noviembre	2023-11-26T00:00:00	2024-11-08T15:00:00	1	Precipitación	0
131304	7	Sololá	704	Santa Lucía Utatlán 	7	Santa Rita 	11	Noviembre	2023-11-26T00:00:00	2024-11-08T15:00:00	8	Radiación solar	534
131305	7	Sololá	704	Santa Lucía Utatlán 	7	Santa Rita 	11	Noviembre	2023-11-26T00:00:00	2024-11-08T16:00:00	2	Temperatura media	18.8
131306	7	Sololá	704	Santa Lucía Utatlán 	7	Santa Rita 	11	Noviembre	2023-11-26T00:00:00	2024-11-08T16:00:00	4	Temperatura máxima	21
131307	7	Sololá	704	Santa Lucía Utatlán 	7	Santa Rita 	11	Noviembre	2023-11-26T00:00:00	2024-11-08T16:00:00	3	Temperatura mínima	18.7
131308	7	Sololá	704	Santa Lucía Utatlán 	7	Santa Rita 	11	Noviembre	2023-11-26T00:00:00	2024-11-08T16:00:00	5	Humedad	79
131309	7	Sololá	704	Santa Lucía Utatlán 	7	Santa Rita 	11	Noviembre	2023-11-26T00:00:00	2024-11-08T16:00:00	6	Velocidad del viento	4.8
131310	7	Sololá	704	Santa Lucía Utatlán 	7	Santa Rita 	11	Noviembre	2023-11-26T00:00:00	2024-11-08T16:00:00	7	Dirección del viento	4.83
131311	7	Sololá	704	Santa Lucía Utatlán 	7	Santa Rita 	11	Noviembre	2023-11-26T00:00:00	2024-11-08T16:00:00	1	Precipitación	0
131312	7	Sololá	704	Santa Lucía Utatlán 	7	Santa Rita 	11	Noviembre	2023-11-26T00:00:00	2024-11-08T16:00:00	8	Radiación solar	317
131313	7	Sololá	704	Santa Lucía Utatlán 	7	Santa Rita 	11	Noviembre	2023-11-26T00:00:00	2024-11-08T17:00:00	2	Temperatura media	20.7
131314	7	Sololá	704	Santa Lucía Utatlán 	7	Santa Rita 	11	Noviembre	2023-11-26T00:00:00	2024-11-08T17:00:00	4	Temperatura máxima	20.7
131315	7	Sololá	704	Santa Lucía Utatlán 	7	Santa Rita 	11	Noviembre	2023-11-26T00:00:00	2024-11-08T17:00:00	3	Temperatura mínima	18.2
131316	7	Sololá	704	Santa Lucía Utatlán 	7	Santa Rita 	11	Noviembre	2023-11-26T00:00:00	2024-11-08T17:00:00	5	Humedad	73
131317	7	Sololá	704	Santa Lucía Utatlán 	7	Santa Rita 	11	Noviembre	2023-11-26T00:00:00	2024-11-08T17:00:00	6	Velocidad del viento	4.8
131318	7	Sololá	704	Santa Lucía Utatlán 	7	Santa Rita 	11	Noviembre	2023-11-26T00:00:00	2024-11-08T17:00:00	7	Dirección del viento	4.83
131319	7	Sololá	704	Santa Lucía Utatlán 	7	Santa Rita 	11	Noviembre	2023-11-26T00:00:00	2024-11-08T17:00:00	1	Precipitación	0
131320	7	Sololá	704	Santa Lucía Utatlán 	7	Santa Rita 	11	Noviembre	2023-11-26T00:00:00	2024-11-08T17:00:00	8	Radiación solar	73
131321	7	Sololá	704	Santa Lucía Utatlán 	7	Santa Rita 	11	Noviembre	2023-11-26T00:00:00	2024-11-08T18:00:00	2	Temperatura media	19.9
131322	7	Sololá	704	Santa Lucía Utatlán 	7	Santa Rita 	11	Noviembre	2023-11-26T00:00:00	2024-11-08T18:00:00	4	Temperatura máxima	20.8
131323	7	Sololá	704	Santa Lucía Utatlán 	7	Santa Rita 	11	Noviembre	2023-11-26T00:00:00	2024-11-08T18:00:00	3	Temperatura mínima	18.2
131324	7	Sololá	704	Santa Lucía Utatlán 	7	Santa Rita 	11	Noviembre	2023-11-26T00:00:00	2024-11-08T18:00:00	5	Humedad	76
131325	7	Sololá	704	Santa Lucía Utatlán 	7	Santa Rita 	11	Noviembre	2023-11-26T00:00:00	2024-11-08T18:00:00	6	Velocidad del viento	3.2
131326	7	Sololá	704	Santa Lucía Utatlán 	7	Santa Rita 	11	Noviembre	2023-11-26T00:00:00	2024-11-08T18:00:00	7	Dirección del viento	3.22
131327	7	Sololá	704	Santa Lucía Utatlán 	7	Santa Rita 	11	Noviembre	2023-11-26T00:00:00	2024-11-08T18:00:00	1	Precipitación	0
131328	7	Sololá	704	Santa Lucía Utatlán 	7	Santa Rita 	11	Noviembre	2023-11-26T00:00:00	2024-11-08T18:00:00	8	Radiación solar	3
131329	7	Sololá	704	Santa Lucía Utatlán 	7	Santa Rita 	11	Noviembre	2023-11-26T00:00:00	2024-11-08T19:00:00	2	Temperatura media	21.6
131330	7	Sololá	704	Santa Lucía Utatlán 	7	Santa Rita 	11	Noviembre	2023-11-26T00:00:00	2024-11-08T19:00:00	4	Temperatura máxima	22.6
131331	7	Sololá	704	Santa Lucía Utatlán 	7	Santa Rita 	11	Noviembre	2023-11-26T00:00:00	2024-11-08T19:00:00	3	Temperatura mínima	21.6
131332	7	Sololá	704	Santa Lucía Utatlán 	7	Santa Rita 	11	Noviembre	2023-11-26T00:00:00	2024-11-08T19:00:00	5	Humedad	84
131333	7	Sololá	704	Santa Lucía Utatlán 	7	Santa Rita 	11	Noviembre	2023-11-26T00:00:00	2024-11-08T19:00:00	6	Velocidad del viento	3.2
131334	7	Sololá	704	Santa Lucía Utatlán 	7	Santa Rita 	11	Noviembre	2023-11-26T00:00:00	2024-11-08T19:00:00	7	Dirección del viento	3.22
131335	7	Sololá	704	Santa Lucía Utatlán 	7	Santa Rita 	11	Noviembre	2023-11-26T00:00:00	2024-11-08T19:00:00	1	Precipitación	0
131336	7	Sololá	704	Santa Lucía Utatlán 	7	Santa Rita 	11	Noviembre	2023-11-26T00:00:00	2024-11-08T19:00:00	8	Radiación solar	0
131337	7	Sololá	704	Santa Lucía Utatlán 	7	Santa Rita 	11	Noviembre	2023-11-26T00:00:00	2024-11-08T20:00:00	2	Temperatura media	20.6
131338	7	Sololá	704	Santa Lucía Utatlán 	7	Santa Rita 	11	Noviembre	2023-11-26T00:00:00	2024-11-08T20:00:00	4	Temperatura máxima	21.6
131339	7	Sololá	704	Santa Lucía Utatlán 	7	Santa Rita 	11	Noviembre	2023-11-26T00:00:00	2024-11-08T20:00:00	3	Temperatura mínima	20.6
131340	7	Sololá	704	Santa Lucía Utatlán 	7	Santa Rita 	11	Noviembre	2023-11-26T00:00:00	2024-11-08T20:00:00	5	Humedad	92
131341	7	Sololá	704	Santa Lucía Utatlán 	7	Santa Rita 	11	Noviembre	2023-11-26T00:00:00	2024-11-08T20:00:00	6	Velocidad del viento	1.6
131342	7	Sololá	704	Santa Lucía Utatlán 	7	Santa Rita 	11	Noviembre	2023-11-26T00:00:00	2024-11-08T20:00:00	7	Dirección del viento	1.61
131343	7	Sololá	704	Santa Lucía Utatlán 	7	Santa Rita 	11	Noviembre	2023-11-26T00:00:00	2024-11-08T20:00:00	1	Precipitación	0.4
131344	7	Sololá	704	Santa Lucía Utatlán 	7	Santa Rita 	11	Noviembre	2023-11-26T00:00:00	2024-11-08T20:00:00	8	Radiación solar	0
131345	7	Sololá	704	Santa Lucía Utatlán 	7	Santa Rita 	11	Noviembre	2023-11-26T00:00:00	2024-11-08T21:00:00	2	Temperatura media	20
131346	7	Sololá	704	Santa Lucía Utatlán 	7	Santa Rita 	11	Noviembre	2023-11-26T00:00:00	2024-11-08T21:00:00	4	Temperatura máxima	20.6
131347	7	Sololá	704	Santa Lucía Utatlán 	7	Santa Rita 	11	Noviembre	2023-11-26T00:00:00	2024-11-08T21:00:00	3	Temperatura mínima	19.9
131348	7	Sololá	704	Santa Lucía Utatlán 	7	Santa Rita 	11	Noviembre	2023-11-26T00:00:00	2024-11-08T21:00:00	5	Humedad	92
131349	7	Sololá	704	Santa Lucía Utatlán 	7	Santa Rita 	11	Noviembre	2023-11-26T00:00:00	2024-11-08T21:00:00	6	Velocidad del viento	1.6
131350	7	Sololá	704	Santa Lucía Utatlán 	7	Santa Rita 	11	Noviembre	2023-11-26T00:00:00	2024-11-08T21:00:00	7	Dirección del viento	1.61
131351	7	Sololá	704	Santa Lucía Utatlán 	7	Santa Rita 	11	Noviembre	2023-11-26T00:00:00	2024-11-08T21:00:00	1	Precipitación	0.2
131352	7	Sololá	704	Santa Lucía Utatlán 	7	Santa Rita 	11	Noviembre	2023-11-26T00:00:00	2024-11-08T21:00:00	8	Radiación solar	0
131353	7	Sololá	704	Santa Lucía Utatlán 	7	Santa Rita 	11	Noviembre	2023-11-26T00:00:00	2024-11-08T22:00:00	2	Temperatura media	19.7
131354	7	Sololá	704	Santa Lucía Utatlán 	7	Santa Rita 	11	Noviembre	2023-11-26T00:00:00	2024-11-08T22:00:00	4	Temperatura máxima	19.9
131355	7	Sololá	704	Santa Lucía Utatlán 	7	Santa Rita 	11	Noviembre	2023-11-26T00:00:00	2024-11-08T22:00:00	3	Temperatura mínima	19.6
131356	7	Sololá	704	Santa Lucía Utatlán 	7	Santa Rita 	11	Noviembre	2023-11-26T00:00:00	2024-11-08T22:00:00	5	Humedad	92
131357	7	Sololá	704	Santa Lucía Utatlán 	7	Santa Rita 	11	Noviembre	2023-11-26T00:00:00	2024-11-08T22:00:00	6	Velocidad del viento	4.8
131358	7	Sololá	704	Santa Lucía Utatlán 	7	Santa Rita 	11	Noviembre	2023-11-26T00:00:00	2024-11-08T22:00:00	7	Dirección del viento	4.83
131359	7	Sololá	704	Santa Lucía Utatlán 	7	Santa Rita 	11	Noviembre	2023-11-26T00:00:00	2024-11-08T22:00:00	1	Precipitación	0
131360	7	Sololá	704	Santa Lucía Utatlán 	7	Santa Rita 	11	Noviembre	2023-11-26T00:00:00	2024-11-08T22:00:00	8	Radiación solar	0
131361	7	Sololá	704	Santa Lucía Utatlán 	7	Santa Rita 	11	Noviembre	2023-11-26T00:00:00	2024-11-08T23:00:00	2	Temperatura media	18.7
131362	7	Sololá	704	Santa Lucía Utatlán 	7	Santa Rita 	11	Noviembre	2023-11-26T00:00:00	2024-11-08T23:00:00	4	Temperatura máxima	19.7
131363	7	Sololá	704	Santa Lucía Utatlán 	7	Santa Rita 	11	Noviembre	2023-11-26T00:00:00	2024-11-08T23:00:00	3	Temperatura mínima	18.6
131364	7	Sololá	704	Santa Lucía Utatlán 	7	Santa Rita 	11	Noviembre	2023-11-26T00:00:00	2024-11-08T23:00:00	5	Humedad	94
131365	7	Sololá	704	Santa Lucía Utatlán 	7	Santa Rita 	11	Noviembre	2023-11-26T00:00:00	2024-11-08T23:00:00	6	Velocidad del viento	1.6
131366	7	Sololá	704	Santa Lucía Utatlán 	7	Santa Rita 	11	Noviembre	2023-11-26T00:00:00	2024-11-08T23:00:00	7	Dirección del viento	1.61
131367	7	Sololá	704	Santa Lucía Utatlán 	7	Santa Rita 	11	Noviembre	2023-11-26T00:00:00	2024-11-08T23:00:00	1	Precipitación	0
131368	7	Sololá	704	Santa Lucía Utatlán 	7	Santa Rita 	11	Noviembre	2023-11-26T00:00:00	2024-11-08T23:00:00	8	Radiación solar	0
131369	7	Sololá	704	Santa Lucía Utatlán 	7	Santa Rita 	11	Noviembre	2023-11-27T00:00:00	2024-11-08T00:00:00	2	Temperatura media	20.4
131370	7	Sololá	704	Santa Lucía Utatlán 	7	Santa Rita 	11	Noviembre	2023-11-27T00:00:00	2024-11-08T00:00:00	4	Temperatura máxima	20.4
131371	7	Sololá	704	Santa Lucía Utatlán 	7	Santa Rita 	11	Noviembre	2023-11-27T00:00:00	2024-11-08T00:00:00	3	Temperatura mínima	19.8
131372	7	Sololá	704	Santa Lucía Utatlán 	7	Santa Rita 	11	Noviembre	2023-11-27T00:00:00	2024-11-08T00:00:00	5	Humedad	44
131373	7	Sololá	704	Santa Lucía Utatlán 	7	Santa Rita 	11	Noviembre	2023-11-27T00:00:00	2024-11-08T00:00:00	6	Velocidad del viento	8
131374	7	Sololá	704	Santa Lucía Utatlán 	7	Santa Rita 	11	Noviembre	2023-11-27T00:00:00	2024-11-08T00:00:00	7	Dirección del viento	8.05
131375	7	Sololá	704	Santa Lucía Utatlán 	7	Santa Rita 	11	Noviembre	2023-11-27T00:00:00	2024-11-08T00:00:00	1	Precipitación	0
131376	7	Sololá	704	Santa Lucía Utatlán 	7	Santa Rita 	11	Noviembre	2023-11-27T00:00:00	2024-11-08T00:00:00	8	Radiación solar	0
131377	7	Sololá	704	Santa Lucía Utatlán 	7	Santa Rita 	11	Noviembre	2023-11-27T00:00:00	2024-11-08T01:00:00	2	Temperatura media	20.1
131378	7	Sololá	704	Santa Lucía Utatlán 	7	Santa Rita 	11	Noviembre	2023-11-27T00:00:00	2024-11-08T01:00:00	4	Temperatura máxima	20.5
131379	7	Sololá	704	Santa Lucía Utatlán 	7	Santa Rita 	11	Noviembre	2023-11-27T00:00:00	2024-11-08T01:00:00	3	Temperatura mínima	19.9
131380	7	Sololá	704	Santa Lucía Utatlán 	7	Santa Rita 	11	Noviembre	2023-11-27T00:00:00	2024-11-08T01:00:00	5	Humedad	47
131381	7	Sololá	704	Santa Lucía Utatlán 	7	Santa Rita 	11	Noviembre	2023-11-27T00:00:00	2024-11-08T01:00:00	6	Velocidad del viento	8
131382	7	Sololá	704	Santa Lucía Utatlán 	7	Santa Rita 	11	Noviembre	2023-11-27T00:00:00	2024-11-08T01:00:00	7	Dirección del viento	8.05
131383	7	Sololá	704	Santa Lucía Utatlán 	7	Santa Rita 	11	Noviembre	2023-11-27T00:00:00	2024-11-08T01:00:00	1	Precipitación	0
131384	7	Sololá	704	Santa Lucía Utatlán 	7	Santa Rita 	11	Noviembre	2023-11-27T00:00:00	2024-11-08T01:00:00	8	Radiación solar	0
131385	7	Sololá	704	Santa Lucía Utatlán 	7	Santa Rita 	11	Noviembre	2023-11-27T00:00:00	2024-11-08T02:00:00	2	Temperatura media	19.8
131386	7	Sololá	704	Santa Lucía Utatlán 	7	Santa Rita 	11	Noviembre	2023-11-27T00:00:00	2024-11-08T02:00:00	4	Temperatura máxima	20.2
131387	7	Sololá	704	Santa Lucía Utatlán 	7	Santa Rita 	11	Noviembre	2023-11-27T00:00:00	2024-11-08T02:00:00	3	Temperatura mínima	19.7
131388	7	Sololá	704	Santa Lucía Utatlán 	7	Santa Rita 	11	Noviembre	2023-11-27T00:00:00	2024-11-08T02:00:00	5	Humedad	54
131389	7	Sololá	704	Santa Lucía Utatlán 	7	Santa Rita 	11	Noviembre	2023-11-27T00:00:00	2024-11-08T02:00:00	6	Velocidad del viento	9.7
131390	7	Sololá	704	Santa Lucía Utatlán 	7	Santa Rita 	11	Noviembre	2023-11-27T00:00:00	2024-11-08T02:00:00	7	Dirección del viento	9.66
131391	7	Sololá	704	Santa Lucía Utatlán 	7	Santa Rita 	11	Noviembre	2023-11-27T00:00:00	2024-11-08T02:00:00	1	Precipitación	0
131392	7	Sololá	704	Santa Lucía Utatlán 	7	Santa Rita 	11	Noviembre	2023-11-27T00:00:00	2024-11-08T02:00:00	8	Radiación solar	0
131393	7	Sololá	704	Santa Lucía Utatlán 	7	Santa Rita 	11	Noviembre	2023-11-27T00:00:00	2024-11-08T03:00:00	2	Temperatura media	19.8
131394	7	Sololá	704	Santa Lucía Utatlán 	7	Santa Rita 	11	Noviembre	2023-11-27T00:00:00	2024-11-08T03:00:00	4	Temperatura máxima	20.1
131395	7	Sololá	704	Santa Lucía Utatlán 	7	Santa Rita 	11	Noviembre	2023-11-27T00:00:00	2024-11-08T03:00:00	3	Temperatura mínima	19.4
131396	7	Sololá	704	Santa Lucía Utatlán 	7	Santa Rita 	11	Noviembre	2023-11-27T00:00:00	2024-11-08T03:00:00	5	Humedad	67
131397	7	Sololá	704	Santa Lucía Utatlán 	7	Santa Rita 	11	Noviembre	2023-11-27T00:00:00	2024-11-08T03:00:00	6	Velocidad del viento	9.7
131398	7	Sololá	704	Santa Lucía Utatlán 	7	Santa Rita 	11	Noviembre	2023-11-27T00:00:00	2024-11-08T03:00:00	7	Dirección del viento	9.66
131399	7	Sololá	704	Santa Lucía Utatlán 	7	Santa Rita 	11	Noviembre	2023-11-27T00:00:00	2024-11-08T03:00:00	1	Precipitación	0
131400	7	Sololá	704	Santa Lucía Utatlán 	7	Santa Rita 	11	Noviembre	2023-11-27T00:00:00	2024-11-08T03:00:00	8	Radiación solar	0
131401	7	Sololá	704	Santa Lucía Utatlán 	7	Santa Rita 	11	Noviembre	2023-11-27T00:00:00	2024-11-08T04:00:00	2	Temperatura media	22.6
131402	7	Sololá	704	Santa Lucía Utatlán 	7	Santa Rita 	11	Noviembre	2023-11-27T00:00:00	2024-11-08T04:00:00	4	Temperatura máxima	22.6
131403	7	Sololá	704	Santa Lucía Utatlán 	7	Santa Rita 	11	Noviembre	2023-11-27T00:00:00	2024-11-08T04:00:00	3	Temperatura mínima	19.6
131404	7	Sololá	704	Santa Lucía Utatlán 	7	Santa Rita 	11	Noviembre	2023-11-27T00:00:00	2024-11-08T04:00:00	5	Humedad	57
131405	7	Sololá	704	Santa Lucía Utatlán 	7	Santa Rita 	11	Noviembre	2023-11-27T00:00:00	2024-11-08T04:00:00	6	Velocidad del viento	9.7
131406	7	Sololá	704	Santa Lucía Utatlán 	7	Santa Rita 	11	Noviembre	2023-11-27T00:00:00	2024-11-08T04:00:00	7	Dirección del viento	9.66
131407	7	Sololá	704	Santa Lucía Utatlán 	7	Santa Rita 	11	Noviembre	2023-11-27T00:00:00	2024-11-08T04:00:00	1	Precipitación	0
131408	7	Sololá	704	Santa Lucía Utatlán 	7	Santa Rita 	11	Noviembre	2023-11-27T00:00:00	2024-11-08T04:00:00	8	Radiación solar	0
131409	7	Sololá	704	Santa Lucía Utatlán 	7	Santa Rita 	11	Noviembre	2023-11-27T00:00:00	2024-11-08T05:00:00	2	Temperatura media	24.9
131410	7	Sololá	704	Santa Lucía Utatlán 	7	Santa Rita 	11	Noviembre	2023-11-27T00:00:00	2024-11-08T05:00:00	4	Temperatura máxima	24.9
131411	7	Sololá	704	Santa Lucía Utatlán 	7	Santa Rita 	11	Noviembre	2023-11-27T00:00:00	2024-11-08T05:00:00	3	Temperatura mínima	22.6
131412	7	Sololá	704	Santa Lucía Utatlán 	7	Santa Rita 	11	Noviembre	2023-11-27T00:00:00	2024-11-08T05:00:00	5	Humedad	55
131413	7	Sololá	704	Santa Lucía Utatlán 	7	Santa Rita 	11	Noviembre	2023-11-27T00:00:00	2024-11-08T05:00:00	6	Velocidad del viento	4.8
131414	7	Sololá	704	Santa Lucía Utatlán 	7	Santa Rita 	11	Noviembre	2023-11-27T00:00:00	2024-11-08T05:00:00	7	Dirección del viento	4.83
131415	7	Sololá	704	Santa Lucía Utatlán 	7	Santa Rita 	11	Noviembre	2023-11-27T00:00:00	2024-11-08T05:00:00	1	Precipitación	0
131416	7	Sololá	704	Santa Lucía Utatlán 	7	Santa Rita 	11	Noviembre	2023-11-27T00:00:00	2024-11-08T05:00:00	8	Radiación solar	0
131417	7	Sololá	704	Santa Lucía Utatlán 	7	Santa Rita 	11	Noviembre	2023-11-27T00:00:00	2024-11-08T06:00:00	2	Temperatura media	24.4
131418	7	Sololá	704	Santa Lucía Utatlán 	7	Santa Rita 	11	Noviembre	2023-11-27T00:00:00	2024-11-08T06:00:00	4	Temperatura máxima	24.9
131419	7	Sololá	704	Santa Lucía Utatlán 	7	Santa Rita 	11	Noviembre	2023-11-27T00:00:00	2024-11-08T06:00:00	3	Temperatura mínima	23.8
131420	7	Sololá	704	Santa Lucía Utatlán 	7	Santa Rita 	11	Noviembre	2023-11-27T00:00:00	2024-11-08T06:00:00	5	Humedad	59
131421	7	Sololá	704	Santa Lucía Utatlán 	7	Santa Rita 	11	Noviembre	2023-11-27T00:00:00	2024-11-08T06:00:00	6	Velocidad del viento	8
131422	7	Sololá	704	Santa Lucía Utatlán 	7	Santa Rita 	11	Noviembre	2023-11-27T00:00:00	2024-11-08T06:00:00	7	Dirección del viento	8.05
131423	7	Sololá	704	Santa Lucía Utatlán 	7	Santa Rita 	11	Noviembre	2023-11-27T00:00:00	2024-11-08T06:00:00	1	Precipitación	0
131424	7	Sololá	704	Santa Lucía Utatlán 	7	Santa Rita 	11	Noviembre	2023-11-27T00:00:00	2024-11-08T06:00:00	8	Radiación solar	0
131425	7	Sololá	704	Santa Lucía Utatlán 	7	Santa Rita 	11	Noviembre	2023-11-27T00:00:00	2024-11-08T07:00:00	2	Temperatura media	24.9
131426	7	Sololá	704	Santa Lucía Utatlán 	7	Santa Rita 	11	Noviembre	2023-11-27T00:00:00	2024-11-08T07:00:00	4	Temperatura máxima	25.4
131427	7	Sololá	704	Santa Lucía Utatlán 	7	Santa Rita 	11	Noviembre	2023-11-27T00:00:00	2024-11-08T07:00:00	3	Temperatura mínima	24.4
131428	7	Sololá	704	Santa Lucía Utatlán 	7	Santa Rita 	11	Noviembre	2023-11-27T00:00:00	2024-11-08T07:00:00	5	Humedad	60
131429	7	Sololá	704	Santa Lucía Utatlán 	7	Santa Rita 	11	Noviembre	2023-11-27T00:00:00	2024-11-08T07:00:00	6	Velocidad del viento	8
131430	7	Sololá	704	Santa Lucía Utatlán 	7	Santa Rita 	11	Noviembre	2023-11-27T00:00:00	2024-11-08T07:00:00	7	Dirección del viento	8.05
131431	7	Sololá	704	Santa Lucía Utatlán 	7	Santa Rita 	11	Noviembre	2023-11-27T00:00:00	2024-11-08T07:00:00	1	Precipitación	0
131432	7	Sololá	704	Santa Lucía Utatlán 	7	Santa Rita 	11	Noviembre	2023-11-27T00:00:00	2024-11-08T07:00:00	8	Radiación solar	48
131433	7	Sololá	704	Santa Lucía Utatlán 	7	Santa Rita 	11	Noviembre	2023-11-27T00:00:00	2024-11-08T08:00:00	2	Temperatura media	24.7
131434	7	Sololá	704	Santa Lucía Utatlán 	7	Santa Rita 	11	Noviembre	2023-11-27T00:00:00	2024-11-08T08:00:00	4	Temperatura máxima	25.5
131435	7	Sololá	704	Santa Lucía Utatlán 	7	Santa Rita 	11	Noviembre	2023-11-27T00:00:00	2024-11-08T08:00:00	3	Temperatura mínima	24.4
131436	7	Sololá	704	Santa Lucía Utatlán 	7	Santa Rita 	11	Noviembre	2023-11-27T00:00:00	2024-11-08T08:00:00	5	Humedad	64
131437	7	Sololá	704	Santa Lucía Utatlán 	7	Santa Rita 	11	Noviembre	2023-11-27T00:00:00	2024-11-08T08:00:00	6	Velocidad del viento	8
131438	7	Sololá	704	Santa Lucía Utatlán 	7	Santa Rita 	11	Noviembre	2023-11-27T00:00:00	2024-11-08T08:00:00	7	Dirección del viento	8.05
131439	7	Sololá	704	Santa Lucía Utatlán 	7	Santa Rita 	11	Noviembre	2023-11-27T00:00:00	2024-11-08T08:00:00	1	Precipitación	0
131440	7	Sololá	704	Santa Lucía Utatlán 	7	Santa Rita 	11	Noviembre	2023-11-27T00:00:00	2024-11-08T08:00:00	8	Radiación solar	273
131441	7	Sololá	704	Santa Lucía Utatlán 	7	Santa Rita 	11	Noviembre	2023-11-27T00:00:00	2024-11-08T09:00:00	2	Temperatura media	25.1
131442	7	Sololá	704	Santa Lucía Utatlán 	7	Santa Rita 	11	Noviembre	2023-11-27T00:00:00	2024-11-08T09:00:00	4	Temperatura máxima	25.1
131443	7	Sololá	704	Santa Lucía Utatlán 	7	Santa Rita 	11	Noviembre	2023-11-27T00:00:00	2024-11-08T09:00:00	3	Temperatura mínima	24.2
131444	7	Sololá	704	Santa Lucía Utatlán 	7	Santa Rita 	11	Noviembre	2023-11-27T00:00:00	2024-11-08T09:00:00	5	Humedad	62
131445	7	Sololá	704	Santa Lucía Utatlán 	7	Santa Rita 	11	Noviembre	2023-11-27T00:00:00	2024-11-08T09:00:00	6	Velocidad del viento	9.7
131446	7	Sololá	704	Santa Lucía Utatlán 	7	Santa Rita 	11	Noviembre	2023-11-27T00:00:00	2024-11-08T09:00:00	7	Dirección del viento	9.66
131447	7	Sololá	704	Santa Lucía Utatlán 	7	Santa Rita 	11	Noviembre	2023-11-27T00:00:00	2024-11-08T09:00:00	1	Precipitación	0
131448	7	Sololá	704	Santa Lucía Utatlán 	7	Santa Rita 	11	Noviembre	2023-11-27T00:00:00	2024-11-08T09:00:00	8	Radiación solar	487
131449	7	Sololá	704	Santa Lucía Utatlán 	7	Santa Rita 	11	Noviembre	2023-11-27T00:00:00	2024-11-08T10:00:00	2	Temperatura media	23.9
131450	7	Sololá	704	Santa Lucía Utatlán 	7	Santa Rita 	11	Noviembre	2023-11-27T00:00:00	2024-11-08T10:00:00	4	Temperatura máxima	25.2
131451	7	Sololá	704	Santa Lucía Utatlán 	7	Santa Rita 	11	Noviembre	2023-11-27T00:00:00	2024-11-08T10:00:00	3	Temperatura mínima	23.9
131452	7	Sololá	704	Santa Lucía Utatlán 	7	Santa Rita 	11	Noviembre	2023-11-27T00:00:00	2024-11-08T10:00:00	5	Humedad	63
131453	7	Sololá	704	Santa Lucía Utatlán 	7	Santa Rita 	11	Noviembre	2023-11-27T00:00:00	2024-11-08T10:00:00	6	Velocidad del viento	8
131454	7	Sololá	704	Santa Lucía Utatlán 	7	Santa Rita 	11	Noviembre	2023-11-27T00:00:00	2024-11-08T10:00:00	7	Dirección del viento	8.05
131455	7	Sololá	704	Santa Lucía Utatlán 	7	Santa Rita 	11	Noviembre	2023-11-27T00:00:00	2024-11-08T10:00:00	1	Precipitación	0
131456	7	Sololá	704	Santa Lucía Utatlán 	7	Santa Rita 	11	Noviembre	2023-11-27T00:00:00	2024-11-08T10:00:00	8	Radiación solar	659
131457	7	Sololá	704	Santa Lucía Utatlán 	7	Santa Rita 	11	Noviembre	2023-11-27T00:00:00	2024-11-08T11:00:00	2	Temperatura media	24.2
131458	7	Sololá	704	Santa Lucía Utatlán 	7	Santa Rita 	11	Noviembre	2023-11-27T00:00:00	2024-11-08T11:00:00	4	Temperatura máxima	24.4
131459	7	Sololá	704	Santa Lucía Utatlán 	7	Santa Rita 	11	Noviembre	2023-11-27T00:00:00	2024-11-08T11:00:00	3	Temperatura mínima	23.3
131460	7	Sololá	704	Santa Lucía Utatlán 	7	Santa Rita 	11	Noviembre	2023-11-27T00:00:00	2024-11-08T11:00:00	5	Humedad	62
131461	7	Sololá	704	Santa Lucía Utatlán 	7	Santa Rita 	11	Noviembre	2023-11-27T00:00:00	2024-11-08T11:00:00	6	Velocidad del viento	8
131462	7	Sololá	704	Santa Lucía Utatlán 	7	Santa Rita 	11	Noviembre	2023-11-27T00:00:00	2024-11-08T11:00:00	7	Dirección del viento	8.05
131463	7	Sololá	704	Santa Lucía Utatlán 	7	Santa Rita 	11	Noviembre	2023-11-27T00:00:00	2024-11-08T11:00:00	1	Precipitación	0
131464	7	Sololá	704	Santa Lucía Utatlán 	7	Santa Rita 	11	Noviembre	2023-11-27T00:00:00	2024-11-08T11:00:00	8	Radiación solar	773
131465	7	Sololá	704	Santa Lucía Utatlán 	7	Santa Rita 	11	Noviembre	2023-11-27T00:00:00	2024-11-08T12:00:00	2	Temperatura media	22.7
131466	7	Sololá	704	Santa Lucía Utatlán 	7	Santa Rita 	11	Noviembre	2023-11-27T00:00:00	2024-11-08T12:00:00	4	Temperatura máxima	24.2
131467	7	Sololá	704	Santa Lucía Utatlán 	7	Santa Rita 	11	Noviembre	2023-11-27T00:00:00	2024-11-08T12:00:00	3	Temperatura mínima	22.7
131468	7	Sololá	704	Santa Lucía Utatlán 	7	Santa Rita 	11	Noviembre	2023-11-27T00:00:00	2024-11-08T12:00:00	5	Humedad	63
131469	7	Sololá	704	Santa Lucía Utatlán 	7	Santa Rita 	11	Noviembre	2023-11-27T00:00:00	2024-11-08T12:00:00	6	Velocidad del viento	8
131470	7	Sololá	704	Santa Lucía Utatlán 	7	Santa Rita 	11	Noviembre	2023-11-27T00:00:00	2024-11-08T12:00:00	7	Dirección del viento	8.05
131471	7	Sololá	704	Santa Lucía Utatlán 	7	Santa Rita 	11	Noviembre	2023-11-27T00:00:00	2024-11-08T12:00:00	1	Precipitación	0
131472	7	Sololá	704	Santa Lucía Utatlán 	7	Santa Rita 	11	Noviembre	2023-11-27T00:00:00	2024-11-08T12:00:00	8	Radiación solar	851
131473	7	Sololá	704	Santa Lucía Utatlán 	7	Santa Rita 	11	Noviembre	2023-11-27T00:00:00	2024-11-08T13:00:00	2	Temperatura media	20.6
131474	7	Sololá	704	Santa Lucía Utatlán 	7	Santa Rita 	11	Noviembre	2023-11-27T00:00:00	2024-11-08T13:00:00	4	Temperatura máxima	22.8
131475	7	Sololá	704	Santa Lucía Utatlán 	7	Santa Rita 	11	Noviembre	2023-11-27T00:00:00	2024-11-08T13:00:00	3	Temperatura mínima	20.6
131476	7	Sololá	704	Santa Lucía Utatlán 	7	Santa Rita 	11	Noviembre	2023-11-27T00:00:00	2024-11-08T13:00:00	5	Humedad	70
131477	7	Sololá	704	Santa Lucía Utatlán 	7	Santa Rita 	11	Noviembre	2023-11-27T00:00:00	2024-11-08T13:00:00	6	Velocidad del viento	6.4
131478	7	Sololá	704	Santa Lucía Utatlán 	7	Santa Rita 	11	Noviembre	2023-11-27T00:00:00	2024-11-08T13:00:00	7	Dirección del viento	6.44
131479	7	Sololá	704	Santa Lucía Utatlán 	7	Santa Rita 	11	Noviembre	2023-11-27T00:00:00	2024-11-08T13:00:00	1	Precipitación	0
131480	7	Sololá	704	Santa Lucía Utatlán 	7	Santa Rita 	11	Noviembre	2023-11-27T00:00:00	2024-11-08T13:00:00	8	Radiación solar	832
131481	7	Sololá	704	Santa Lucía Utatlán 	7	Santa Rita 	11	Noviembre	2023-11-27T00:00:00	2024-11-08T14:00:00	2	Temperatura media	18.1
131482	7	Sololá	704	Santa Lucía Utatlán 	7	Santa Rita 	11	Noviembre	2023-11-27T00:00:00	2024-11-08T14:00:00	4	Temperatura máxima	20.6
131483	7	Sololá	704	Santa Lucía Utatlán 	7	Santa Rita 	11	Noviembre	2023-11-27T00:00:00	2024-11-08T14:00:00	3	Temperatura mínima	18.1
131484	7	Sololá	704	Santa Lucía Utatlán 	7	Santa Rita 	11	Noviembre	2023-11-27T00:00:00	2024-11-08T14:00:00	5	Humedad	78
131485	7	Sololá	704	Santa Lucía Utatlán 	7	Santa Rita 	11	Noviembre	2023-11-27T00:00:00	2024-11-08T14:00:00	6	Velocidad del viento	3.2
131486	7	Sololá	704	Santa Lucía Utatlán 	7	Santa Rita 	11	Noviembre	2023-11-27T00:00:00	2024-11-08T14:00:00	7	Dirección del viento	3.22
131487	7	Sololá	704	Santa Lucía Utatlán 	7	Santa Rita 	11	Noviembre	2023-11-27T00:00:00	2024-11-08T14:00:00	1	Precipitación	0
131488	7	Sololá	704	Santa Lucía Utatlán 	7	Santa Rita 	11	Noviembre	2023-11-27T00:00:00	2024-11-08T14:00:00	8	Radiación solar	718
131489	7	Sololá	704	Santa Lucía Utatlán 	7	Santa Rita 	11	Noviembre	2023-11-27T00:00:00	2024-11-08T15:00:00	2	Temperatura media	17.2
131490	7	Sololá	704	Santa Lucía Utatlán 	7	Santa Rita 	11	Noviembre	2023-11-27T00:00:00	2024-11-08T15:00:00	4	Temperatura máxima	18.1
131491	7	Sololá	704	Santa Lucía Utatlán 	7	Santa Rita 	11	Noviembre	2023-11-27T00:00:00	2024-11-08T15:00:00	3	Temperatura mínima	17.2
131492	7	Sololá	704	Santa Lucía Utatlán 	7	Santa Rita 	11	Noviembre	2023-11-27T00:00:00	2024-11-08T15:00:00	5	Humedad	80
131493	7	Sololá	704	Santa Lucía Utatlán 	7	Santa Rita 	11	Noviembre	2023-11-27T00:00:00	2024-11-08T15:00:00	6	Velocidad del viento	4.8
131494	7	Sololá	704	Santa Lucía Utatlán 	7	Santa Rita 	11	Noviembre	2023-11-27T00:00:00	2024-11-08T15:00:00	7	Dirección del viento	4.83
131495	7	Sololá	704	Santa Lucía Utatlán 	7	Santa Rita 	11	Noviembre	2023-11-27T00:00:00	2024-11-08T15:00:00	1	Precipitación	0
131496	7	Sololá	704	Santa Lucía Utatlán 	7	Santa Rita 	11	Noviembre	2023-11-27T00:00:00	2024-11-08T15:00:00	8	Radiación solar	588
131497	7	Sololá	704	Santa Lucía Utatlán 	7	Santa Rita 	11	Noviembre	2023-11-27T00:00:00	2024-11-08T16:00:00	2	Temperatura media	18.8
131498	7	Sololá	704	Santa Lucía Utatlán 	7	Santa Rita 	11	Noviembre	2023-11-27T00:00:00	2024-11-08T16:00:00	4	Temperatura máxima	18.8
131499	7	Sololá	704	Santa Lucía Utatlán 	7	Santa Rita 	11	Noviembre	2023-11-27T00:00:00	2024-11-08T16:00:00	3	Temperatura mínima	16.9
131500	7	Sololá	704	Santa Lucía Utatlán 	7	Santa Rita 	11	Noviembre	2023-11-27T00:00:00	2024-11-08T16:00:00	5	Humedad	76
131501	7	Sololá	704	Santa Lucía Utatlán 	7	Santa Rita 	11	Noviembre	2023-11-27T00:00:00	2024-11-08T16:00:00	6	Velocidad del viento	3.2
131502	7	Sololá	704	Santa Lucía Utatlán 	7	Santa Rita 	11	Noviembre	2023-11-27T00:00:00	2024-11-08T16:00:00	7	Dirección del viento	3.22
131503	7	Sololá	704	Santa Lucía Utatlán 	7	Santa Rita 	11	Noviembre	2023-11-27T00:00:00	2024-11-08T16:00:00	1	Precipitación	0
131504	7	Sololá	704	Santa Lucía Utatlán 	7	Santa Rita 	11	Noviembre	2023-11-27T00:00:00	2024-11-08T16:00:00	8	Radiación solar	299
131505	7	Sololá	704	Santa Lucía Utatlán 	7	Santa Rita 	11	Noviembre	2023-11-27T00:00:00	2024-11-08T17:00:00	2	Temperatura media	17.2
131506	7	Sololá	704	Santa Lucía Utatlán 	7	Santa Rita 	11	Noviembre	2023-11-27T00:00:00	2024-11-08T17:00:00	4	Temperatura máxima	19.4
131507	7	Sololá	704	Santa Lucía Utatlán 	7	Santa Rita 	11	Noviembre	2023-11-27T00:00:00	2024-11-08T17:00:00	3	Temperatura mínima	17.2
131508	7	Sololá	704	Santa Lucía Utatlán 	7	Santa Rita 	11	Noviembre	2023-11-27T00:00:00	2024-11-08T17:00:00	5	Humedad	81
131509	7	Sololá	704	Santa Lucía Utatlán 	7	Santa Rita 	11	Noviembre	2023-11-27T00:00:00	2024-11-08T17:00:00	6	Velocidad del viento	3.2
131510	7	Sololá	704	Santa Lucía Utatlán 	7	Santa Rita 	11	Noviembre	2023-11-27T00:00:00	2024-11-08T17:00:00	7	Dirección del viento	3.22
131511	7	Sololá	704	Santa Lucía Utatlán 	7	Santa Rita 	11	Noviembre	2023-11-27T00:00:00	2024-11-08T17:00:00	1	Precipitación	0
131512	7	Sololá	704	Santa Lucía Utatlán 	7	Santa Rita 	11	Noviembre	2023-11-27T00:00:00	2024-11-08T17:00:00	8	Radiación solar	88
131513	7	Sololá	704	Santa Lucía Utatlán 	7	Santa Rita 	11	Noviembre	2023-11-27T00:00:00	2024-11-08T18:00:00	2	Temperatura media	16.8
131514	7	Sololá	704	Santa Lucía Utatlán 	7	Santa Rita 	11	Noviembre	2023-11-27T00:00:00	2024-11-08T18:00:00	4	Temperatura máxima	17.2
131515	7	Sololá	704	Santa Lucía Utatlán 	7	Santa Rita 	11	Noviembre	2023-11-27T00:00:00	2024-11-08T18:00:00	3	Temperatura mínima	16.7
131516	7	Sololá	704	Santa Lucía Utatlán 	7	Santa Rita 	11	Noviembre	2023-11-27T00:00:00	2024-11-08T18:00:00	5	Humedad	79
131517	7	Sololá	704	Santa Lucía Utatlán 	7	Santa Rita 	11	Noviembre	2023-11-27T00:00:00	2024-11-08T18:00:00	6	Velocidad del viento	3.2
131518	7	Sololá	704	Santa Lucía Utatlán 	7	Santa Rita 	11	Noviembre	2023-11-27T00:00:00	2024-11-08T18:00:00	7	Dirección del viento	3.22
131519	7	Sololá	704	Santa Lucía Utatlán 	7	Santa Rita 	11	Noviembre	2023-11-27T00:00:00	2024-11-08T18:00:00	1	Precipitación	0
131520	7	Sololá	704	Santa Lucía Utatlán 	7	Santa Rita 	11	Noviembre	2023-11-27T00:00:00	2024-11-08T18:00:00	8	Radiación solar	3
131521	7	Sololá	704	Santa Lucía Utatlán 	7	Santa Rita 	11	Noviembre	2023-11-27T00:00:00	2024-11-08T19:00:00	2	Temperatura media	16.3
131522	7	Sololá	704	Santa Lucía Utatlán 	7	Santa Rita 	11	Noviembre	2023-11-27T00:00:00	2024-11-08T19:00:00	4	Temperatura máxima	16.9
131523	7	Sololá	704	Santa Lucía Utatlán 	7	Santa Rita 	11	Noviembre	2023-11-27T00:00:00	2024-11-08T19:00:00	3	Temperatura mínima	16.3
131524	7	Sololá	704	Santa Lucía Utatlán 	7	Santa Rita 	11	Noviembre	2023-11-27T00:00:00	2024-11-08T19:00:00	5	Humedad	81
131525	7	Sololá	704	Santa Lucía Utatlán 	7	Santa Rita 	11	Noviembre	2023-11-27T00:00:00	2024-11-08T19:00:00	6	Velocidad del viento	1.6
131526	7	Sololá	704	Santa Lucía Utatlán 	7	Santa Rita 	11	Noviembre	2023-11-27T00:00:00	2024-11-08T19:00:00	7	Dirección del viento	1.61
131527	7	Sololá	704	Santa Lucía Utatlán 	7	Santa Rita 	11	Noviembre	2023-11-27T00:00:00	2024-11-08T19:00:00	1	Precipitación	0
131528	7	Sololá	704	Santa Lucía Utatlán 	7	Santa Rita 	11	Noviembre	2023-11-27T00:00:00	2024-11-08T19:00:00	8	Radiación solar	0
131529	7	Sololá	704	Santa Lucía Utatlán 	7	Santa Rita 	11	Noviembre	2023-11-27T00:00:00	2024-11-08T20:00:00	2	Temperatura media	16.6
131530	7	Sololá	704	Santa Lucía Utatlán 	7	Santa Rita 	11	Noviembre	2023-11-27T00:00:00	2024-11-08T20:00:00	4	Temperatura máxima	16.7
131531	7	Sololá	704	Santa Lucía Utatlán 	7	Santa Rita 	11	Noviembre	2023-11-27T00:00:00	2024-11-08T20:00:00	3	Temperatura mínima	16.3
131532	7	Sololá	704	Santa Lucía Utatlán 	7	Santa Rita 	11	Noviembre	2023-11-27T00:00:00	2024-11-08T20:00:00	5	Humedad	83
131533	7	Sololá	704	Santa Lucía Utatlán 	7	Santa Rita 	11	Noviembre	2023-11-27T00:00:00	2024-11-08T20:00:00	6	Velocidad del viento	1.6
131534	7	Sololá	704	Santa Lucía Utatlán 	7	Santa Rita 	11	Noviembre	2023-11-27T00:00:00	2024-11-08T20:00:00	7	Dirección del viento	1.61
131535	7	Sololá	704	Santa Lucía Utatlán 	7	Santa Rita 	11	Noviembre	2023-11-27T00:00:00	2024-11-08T20:00:00	1	Precipitación	0
131536	7	Sololá	704	Santa Lucía Utatlán 	7	Santa Rita 	11	Noviembre	2023-11-27T00:00:00	2024-11-08T20:00:00	8	Radiación solar	0
131537	7	Sololá	704	Santa Lucía Utatlán 	7	Santa Rita 	11	Noviembre	2023-11-27T00:00:00	2024-11-08T21:00:00	2	Temperatura media	16.3
131538	7	Sololá	704	Santa Lucía Utatlán 	7	Santa Rita 	11	Noviembre	2023-11-27T00:00:00	2024-11-08T21:00:00	4	Temperatura máxima	18.7
131539	7	Sololá	704	Santa Lucía Utatlán 	7	Santa Rita 	11	Noviembre	2023-11-27T00:00:00	2024-11-08T21:00:00	3	Temperatura mínima	16.3
131540	7	Sololá	704	Santa Lucía Utatlán 	7	Santa Rita 	11	Noviembre	2023-11-27T00:00:00	2024-11-08T21:00:00	5	Humedad	83
131541	7	Sololá	704	Santa Lucía Utatlán 	7	Santa Rita 	11	Noviembre	2023-11-27T00:00:00	2024-11-08T21:00:00	6	Velocidad del viento	4.8
131542	7	Sololá	704	Santa Lucía Utatlán 	7	Santa Rita 	11	Noviembre	2023-11-27T00:00:00	2024-11-08T21:00:00	7	Dirección del viento	4.83
131543	7	Sololá	704	Santa Lucía Utatlán 	7	Santa Rita 	11	Noviembre	2023-11-27T00:00:00	2024-11-08T21:00:00	1	Precipitación	0
131544	7	Sololá	704	Santa Lucía Utatlán 	7	Santa Rita 	11	Noviembre	2023-11-27T00:00:00	2024-11-08T21:00:00	8	Radiación solar	0
131545	7	Sololá	704	Santa Lucía Utatlán 	7	Santa Rita 	11	Noviembre	2023-11-27T00:00:00	2024-11-08T22:00:00	2	Temperatura media	15.7
131546	7	Sololá	704	Santa Lucía Utatlán 	7	Santa Rita 	11	Noviembre	2023-11-27T00:00:00	2024-11-08T22:00:00	4	Temperatura máxima	16.3
131547	7	Sololá	704	Santa Lucía Utatlán 	7	Santa Rita 	11	Noviembre	2023-11-27T00:00:00	2024-11-08T22:00:00	3	Temperatura mínima	15.6
131548	7	Sololá	704	Santa Lucía Utatlán 	7	Santa Rita 	11	Noviembre	2023-11-27T00:00:00	2024-11-08T22:00:00	5	Humedad	85
131549	7	Sololá	704	Santa Lucía Utatlán 	7	Santa Rita 	11	Noviembre	2023-11-27T00:00:00	2024-11-08T22:00:00	6	Velocidad del viento	3.2
131550	7	Sololá	704	Santa Lucía Utatlán 	7	Santa Rita 	11	Noviembre	2023-11-27T00:00:00	2024-11-08T22:00:00	7	Dirección del viento	3.22
131551	7	Sololá	704	Santa Lucía Utatlán 	7	Santa Rita 	11	Noviembre	2023-11-27T00:00:00	2024-11-08T22:00:00	1	Precipitación	0
131552	7	Sololá	704	Santa Lucía Utatlán 	7	Santa Rita 	11	Noviembre	2023-11-27T00:00:00	2024-11-08T22:00:00	8	Radiación solar	0
131553	7	Sololá	704	Santa Lucía Utatlán 	7	Santa Rita 	11	Noviembre	2023-11-27T00:00:00	2024-11-08T23:00:00	2	Temperatura media	15.9
131554	7	Sololá	704	Santa Lucía Utatlán 	7	Santa Rita 	11	Noviembre	2023-11-27T00:00:00	2024-11-08T23:00:00	4	Temperatura máxima	15.9
131555	7	Sololá	704	Santa Lucía Utatlán 	7	Santa Rita 	11	Noviembre	2023-11-27T00:00:00	2024-11-08T23:00:00	3	Temperatura mínima	15.5
131556	7	Sololá	704	Santa Lucía Utatlán 	7	Santa Rita 	11	Noviembre	2023-11-27T00:00:00	2024-11-08T23:00:00	5	Humedad	87
131557	7	Sololá	704	Santa Lucía Utatlán 	7	Santa Rita 	11	Noviembre	2023-11-27T00:00:00	2024-11-08T23:00:00	6	Velocidad del viento	3.2
131558	7	Sololá	704	Santa Lucía Utatlán 	7	Santa Rita 	11	Noviembre	2023-11-27T00:00:00	2024-11-08T23:00:00	7	Dirección del viento	3.22
131559	7	Sololá	704	Santa Lucía Utatlán 	7	Santa Rita 	11	Noviembre	2023-11-27T00:00:00	2024-11-08T23:00:00	1	Precipitación	0
131560	7	Sololá	704	Santa Lucía Utatlán 	7	Santa Rita 	11	Noviembre	2023-11-27T00:00:00	2024-11-08T23:00:00	8	Radiación solar	0
131561	7	Sololá	704	Santa Lucía Utatlán 	7	Santa Rita 	11	Noviembre	2023-11-28T00:00:00	2024-11-08T00:00:00	2	Temperatura media	16.4
131562	7	Sololá	704	Santa Lucía Utatlán 	7	Santa Rita 	11	Noviembre	2023-11-28T00:00:00	2024-11-08T00:00:00	4	Temperatura máxima	16.4
131563	7	Sololá	704	Santa Lucía Utatlán 	7	Santa Rita 	11	Noviembre	2023-11-28T00:00:00	2024-11-08T00:00:00	3	Temperatura mínima	15.9
131564	7	Sololá	704	Santa Lucía Utatlán 	7	Santa Rita 	11	Noviembre	2023-11-28T00:00:00	2024-11-08T00:00:00	5	Humedad	86
131565	7	Sololá	704	Santa Lucía Utatlán 	7	Santa Rita 	11	Noviembre	2023-11-28T00:00:00	2024-11-08T00:00:00	6	Velocidad del viento	3.2
131566	7	Sololá	704	Santa Lucía Utatlán 	7	Santa Rita 	11	Noviembre	2023-11-28T00:00:00	2024-11-08T00:00:00	7	Dirección del viento	3.22
131567	7	Sololá	704	Santa Lucía Utatlán 	7	Santa Rita 	11	Noviembre	2023-11-28T00:00:00	2024-11-08T00:00:00	1	Precipitación	0
131568	7	Sololá	704	Santa Lucía Utatlán 	7	Santa Rita 	11	Noviembre	2023-11-28T00:00:00	2024-11-08T00:00:00	8	Radiación solar	0
131569	7	Sololá	704	Santa Lucía Utatlán 	7	Santa Rita 	11	Noviembre	2023-11-28T00:00:00	2024-11-08T01:00:00	2	Temperatura media	16.2
131570	7	Sololá	704	Santa Lucía Utatlán 	7	Santa Rita 	11	Noviembre	2023-11-28T00:00:00	2024-11-08T01:00:00	4	Temperatura máxima	17
131571	7	Sololá	704	Santa Lucía Utatlán 	7	Santa Rita 	11	Noviembre	2023-11-28T00:00:00	2024-11-08T01:00:00	3	Temperatura mínima	16.1
131572	7	Sololá	704	Santa Lucía Utatlán 	7	Santa Rita 	11	Noviembre	2023-11-28T00:00:00	2024-11-08T01:00:00	5	Humedad	88
131573	7	Sololá	704	Santa Lucía Utatlán 	7	Santa Rita 	11	Noviembre	2023-11-28T00:00:00	2024-11-08T01:00:00	6	Velocidad del viento	3.2
131574	7	Sololá	704	Santa Lucía Utatlán 	7	Santa Rita 	11	Noviembre	2023-11-28T00:00:00	2024-11-08T01:00:00	7	Dirección del viento	3.22
131575	7	Sololá	704	Santa Lucía Utatlán 	7	Santa Rita 	11	Noviembre	2023-11-28T00:00:00	2024-11-08T01:00:00	1	Precipitación	0
131576	7	Sololá	704	Santa Lucía Utatlán 	7	Santa Rita 	11	Noviembre	2023-11-28T00:00:00	2024-11-08T01:00:00	8	Radiación solar	0
131577	7	Sololá	704	Santa Lucía Utatlán 	7	Santa Rita 	11	Noviembre	2023-11-28T00:00:00	2024-11-08T02:00:00	2	Temperatura media	17.2
131578	7	Sololá	704	Santa Lucía Utatlán 	7	Santa Rita 	11	Noviembre	2023-11-28T00:00:00	2024-11-08T02:00:00	4	Temperatura máxima	17.4
131579	7	Sololá	704	Santa Lucía Utatlán 	7	Santa Rita 	11	Noviembre	2023-11-28T00:00:00	2024-11-08T02:00:00	3	Temperatura mínima	16
131580	7	Sololá	704	Santa Lucía Utatlán 	7	Santa Rita 	11	Noviembre	2023-11-28T00:00:00	2024-11-08T02:00:00	5	Humedad	88
131581	7	Sololá	704	Santa Lucía Utatlán 	7	Santa Rita 	11	Noviembre	2023-11-28T00:00:00	2024-11-08T02:00:00	6	Velocidad del viento	3.2
131582	7	Sololá	704	Santa Lucía Utatlán 	7	Santa Rita 	11	Noviembre	2023-11-28T00:00:00	2024-11-08T02:00:00	7	Dirección del viento	3.22
131583	7	Sololá	704	Santa Lucía Utatlán 	7	Santa Rita 	11	Noviembre	2023-11-28T00:00:00	2024-11-08T02:00:00	1	Precipitación	0
131584	7	Sololá	704	Santa Lucía Utatlán 	7	Santa Rita 	11	Noviembre	2023-11-28T00:00:00	2024-11-08T02:00:00	8	Radiación solar	0
131585	7	Sololá	704	Santa Lucía Utatlán 	7	Santa Rita 	11	Noviembre	2023-11-28T00:00:00	2024-11-08T03:00:00	2	Temperatura media	21.3
131586	7	Sololá	704	Santa Lucía Utatlán 	7	Santa Rita 	11	Noviembre	2023-11-28T00:00:00	2024-11-08T03:00:00	4	Temperatura máxima	21.3
131587	7	Sololá	704	Santa Lucía Utatlán 	7	Santa Rita 	11	Noviembre	2023-11-28T00:00:00	2024-11-08T03:00:00	3	Temperatura mínima	17.2
131588	7	Sololá	704	Santa Lucía Utatlán 	7	Santa Rita 	11	Noviembre	2023-11-28T00:00:00	2024-11-08T03:00:00	5	Humedad	75
131589	7	Sololá	704	Santa Lucía Utatlán 	7	Santa Rita 	11	Noviembre	2023-11-28T00:00:00	2024-11-08T03:00:00	6	Velocidad del viento	3.2
131590	7	Sololá	704	Santa Lucía Utatlán 	7	Santa Rita 	11	Noviembre	2023-11-28T00:00:00	2024-11-08T03:00:00	7	Dirección del viento	3.22
131591	7	Sololá	704	Santa Lucía Utatlán 	7	Santa Rita 	11	Noviembre	2023-11-28T00:00:00	2024-11-08T03:00:00	1	Precipitación	0
131592	7	Sololá	704	Santa Lucía Utatlán 	7	Santa Rita 	11	Noviembre	2023-11-28T00:00:00	2024-11-08T03:00:00	8	Radiación solar	0
131593	7	Sololá	704	Santa Lucía Utatlán 	7	Santa Rita 	11	Noviembre	2023-11-28T00:00:00	2024-11-08T04:00:00	2	Temperatura media	22.8
131594	7	Sololá	704	Santa Lucía Utatlán 	7	Santa Rita 	11	Noviembre	2023-11-28T00:00:00	2024-11-08T04:00:00	4	Temperatura máxima	22.8
131595	7	Sololá	704	Santa Lucía Utatlán 	7	Santa Rita 	11	Noviembre	2023-11-28T00:00:00	2024-11-08T04:00:00	3	Temperatura mínima	21.3
131596	7	Sololá	704	Santa Lucía Utatlán 	7	Santa Rita 	11	Noviembre	2023-11-28T00:00:00	2024-11-08T04:00:00	5	Humedad	71
131597	7	Sololá	704	Santa Lucía Utatlán 	7	Santa Rita 	11	Noviembre	2023-11-28T00:00:00	2024-11-08T04:00:00	6	Velocidad del viento	6.4
131598	7	Sololá	704	Santa Lucía Utatlán 	7	Santa Rita 	11	Noviembre	2023-11-28T00:00:00	2024-11-08T04:00:00	7	Dirección del viento	6.44
131599	7	Sololá	704	Santa Lucía Utatlán 	7	Santa Rita 	11	Noviembre	2023-11-28T00:00:00	2024-11-08T04:00:00	1	Precipitación	0
131600	7	Sololá	704	Santa Lucía Utatlán 	7	Santa Rita 	11	Noviembre	2023-11-28T00:00:00	2024-11-08T04:00:00	8	Radiación solar	0
131601	7	Sololá	704	Santa Lucía Utatlán 	7	Santa Rita 	11	Noviembre	2023-11-28T00:00:00	2024-11-08T05:00:00	2	Temperatura media	22.8
131602	7	Sololá	704	Santa Lucía Utatlán 	7	Santa Rita 	11	Noviembre	2023-11-28T00:00:00	2024-11-08T05:00:00	4	Temperatura máxima	23.6
131603	7	Sololá	704	Santa Lucía Utatlán 	7	Santa Rita 	11	Noviembre	2023-11-28T00:00:00	2024-11-08T05:00:00	3	Temperatura mínima	22.7
131604	7	Sololá	704	Santa Lucía Utatlán 	7	Santa Rita 	11	Noviembre	2023-11-28T00:00:00	2024-11-08T05:00:00	5	Humedad	70
131605	7	Sololá	704	Santa Lucía Utatlán 	7	Santa Rita 	11	Noviembre	2023-11-28T00:00:00	2024-11-08T05:00:00	6	Velocidad del viento	6.4
131606	7	Sololá	704	Santa Lucía Utatlán 	7	Santa Rita 	11	Noviembre	2023-11-28T00:00:00	2024-11-08T05:00:00	7	Dirección del viento	6.44
131607	7	Sololá	704	Santa Lucía Utatlán 	7	Santa Rita 	11	Noviembre	2023-11-28T00:00:00	2024-11-08T05:00:00	1	Precipitación	0
131608	7	Sololá	704	Santa Lucía Utatlán 	7	Santa Rita 	11	Noviembre	2023-11-28T00:00:00	2024-11-08T05:00:00	8	Radiación solar	0
131609	7	Sololá	704	Santa Lucía Utatlán 	7	Santa Rita 	11	Noviembre	2023-11-28T00:00:00	2024-11-08T06:00:00	2	Temperatura media	24.7
131610	7	Sololá	704	Santa Lucía Utatlán 	7	Santa Rita 	11	Noviembre	2023-11-28T00:00:00	2024-11-08T06:00:00	4	Temperatura máxima	25.1
131611	7	Sololá	704	Santa Lucía Utatlán 	7	Santa Rita 	11	Noviembre	2023-11-28T00:00:00	2024-11-08T06:00:00	3	Temperatura mínima	22.9
131612	7	Sololá	704	Santa Lucía Utatlán 	7	Santa Rita 	11	Noviembre	2023-11-28T00:00:00	2024-11-08T06:00:00	5	Humedad	65
131613	7	Sololá	704	Santa Lucía Utatlán 	7	Santa Rita 	11	Noviembre	2023-11-28T00:00:00	2024-11-08T06:00:00	6	Velocidad del viento	8
131614	7	Sololá	704	Santa Lucía Utatlán 	7	Santa Rita 	11	Noviembre	2023-11-28T00:00:00	2024-11-08T06:00:00	7	Dirección del viento	8.05
131615	7	Sololá	704	Santa Lucía Utatlán 	7	Santa Rita 	11	Noviembre	2023-11-28T00:00:00	2024-11-08T06:00:00	1	Precipitación	0
131616	7	Sololá	704	Santa Lucía Utatlán 	7	Santa Rita 	11	Noviembre	2023-11-28T00:00:00	2024-11-08T06:00:00	8	Radiación solar	1
131617	7	Sololá	704	Santa Lucía Utatlán 	7	Santa Rita 	11	Noviembre	2023-11-28T00:00:00	2024-11-08T07:00:00	2	Temperatura media	24.7
131618	7	Sololá	704	Santa Lucía Utatlán 	7	Santa Rita 	11	Noviembre	2023-11-28T00:00:00	2024-11-08T07:00:00	4	Temperatura máxima	25.2
131619	7	Sololá	704	Santa Lucía Utatlán 	7	Santa Rita 	11	Noviembre	2023-11-28T00:00:00	2024-11-08T07:00:00	3	Temperatura mínima	24.4
131620	7	Sololá	704	Santa Lucía Utatlán 	7	Santa Rita 	11	Noviembre	2023-11-28T00:00:00	2024-11-08T07:00:00	5	Humedad	65
131621	7	Sololá	704	Santa Lucía Utatlán 	7	Santa Rita 	11	Noviembre	2023-11-28T00:00:00	2024-11-08T07:00:00	6	Velocidad del viento	9.7
131622	7	Sololá	704	Santa Lucía Utatlán 	7	Santa Rita 	11	Noviembre	2023-11-28T00:00:00	2024-11-08T07:00:00	7	Dirección del viento	9.66
131623	7	Sololá	704	Santa Lucía Utatlán 	7	Santa Rita 	11	Noviembre	2023-11-28T00:00:00	2024-11-08T07:00:00	1	Precipitación	0
131624	7	Sololá	704	Santa Lucía Utatlán 	7	Santa Rita 	11	Noviembre	2023-11-28T00:00:00	2024-11-08T07:00:00	8	Radiación solar	81
131625	7	Sololá	704	Santa Lucía Utatlán 	7	Santa Rita 	11	Noviembre	2023-11-28T00:00:00	2024-11-08T08:00:00	2	Temperatura media	24.8
131626	7	Sololá	704	Santa Lucía Utatlán 	7	Santa Rita 	11	Noviembre	2023-11-28T00:00:00	2024-11-08T08:00:00	4	Temperatura máxima	24.9
131627	7	Sololá	704	Santa Lucía Utatlán 	7	Santa Rita 	11	Noviembre	2023-11-28T00:00:00	2024-11-08T08:00:00	3	Temperatura mínima	23.8
131628	7	Sololá	704	Santa Lucía Utatlán 	7	Santa Rita 	11	Noviembre	2023-11-28T00:00:00	2024-11-08T08:00:00	5	Humedad	66
131629	7	Sololá	704	Santa Lucía Utatlán 	7	Santa Rita 	11	Noviembre	2023-11-28T00:00:00	2024-11-08T08:00:00	6	Velocidad del viento	12.9
131630	7	Sololá	704	Santa Lucía Utatlán 	7	Santa Rita 	11	Noviembre	2023-11-28T00:00:00	2024-11-08T08:00:00	7	Dirección del viento	12.87
131631	7	Sololá	704	Santa Lucía Utatlán 	7	Santa Rita 	11	Noviembre	2023-11-28T00:00:00	2024-11-08T08:00:00	1	Precipitación	0
131632	7	Sololá	704	Santa Lucía Utatlán 	7	Santa Rita 	11	Noviembre	2023-11-28T00:00:00	2024-11-08T08:00:00	8	Radiación solar	283
131633	7	Sololá	704	Santa Lucía Utatlán 	7	Santa Rita 	11	Noviembre	2023-11-28T00:00:00	2024-11-08T09:00:00	2	Temperatura media	24.3
131634	7	Sololá	704	Santa Lucía Utatlán 	7	Santa Rita 	11	Noviembre	2023-11-28T00:00:00	2024-11-08T09:00:00	4	Temperatura máxima	25.2
131635	7	Sololá	704	Santa Lucía Utatlán 	7	Santa Rita 	11	Noviembre	2023-11-28T00:00:00	2024-11-08T09:00:00	3	Temperatura mínima	23.9
131636	7	Sololá	704	Santa Lucía Utatlán 	7	Santa Rita 	11	Noviembre	2023-11-28T00:00:00	2024-11-08T09:00:00	5	Humedad	67
131637	7	Sololá	704	Santa Lucía Utatlán 	7	Santa Rita 	11	Noviembre	2023-11-28T00:00:00	2024-11-08T09:00:00	6	Velocidad del viento	9.7
131638	7	Sololá	704	Santa Lucía Utatlán 	7	Santa Rita 	11	Noviembre	2023-11-28T00:00:00	2024-11-08T09:00:00	7	Dirección del viento	9.66
131639	7	Sololá	704	Santa Lucía Utatlán 	7	Santa Rita 	11	Noviembre	2023-11-28T00:00:00	2024-11-08T09:00:00	1	Precipitación	0
131640	7	Sololá	704	Santa Lucía Utatlán 	7	Santa Rita 	11	Noviembre	2023-11-28T00:00:00	2024-11-08T09:00:00	8	Radiación solar	462
131641	7	Sololá	704	Santa Lucía Utatlán 	7	Santa Rita 	11	Noviembre	2023-11-28T00:00:00	2024-11-08T10:00:00	2	Temperatura media	24
131642	7	Sololá	704	Santa Lucía Utatlán 	7	Santa Rita 	11	Noviembre	2023-11-28T00:00:00	2024-11-08T10:00:00	4	Temperatura máxima	24.6
131643	7	Sololá	704	Santa Lucía Utatlán 	7	Santa Rita 	11	Noviembre	2023-11-28T00:00:00	2024-11-08T10:00:00	3	Temperatura mínima	23.7
131644	7	Sololá	704	Santa Lucía Utatlán 	7	Santa Rita 	11	Noviembre	2023-11-28T00:00:00	2024-11-08T10:00:00	5	Humedad	67
131645	7	Sololá	704	Santa Lucía Utatlán 	7	Santa Rita 	11	Noviembre	2023-11-28T00:00:00	2024-11-08T10:00:00	6	Velocidad del viento	6.4
131646	7	Sololá	704	Santa Lucía Utatlán 	7	Santa Rita 	11	Noviembre	2023-11-28T00:00:00	2024-11-08T10:00:00	7	Dirección del viento	6.44
131647	7	Sololá	704	Santa Lucía Utatlán 	7	Santa Rita 	11	Noviembre	2023-11-28T00:00:00	2024-11-08T10:00:00	1	Precipitación	0
131648	7	Sololá	704	Santa Lucía Utatlán 	7	Santa Rita 	11	Noviembre	2023-11-28T00:00:00	2024-11-08T10:00:00	8	Radiación solar	679
131649	7	Sololá	704	Santa Lucía Utatlán 	7	Santa Rita 	11	Noviembre	2023-11-28T00:00:00	2024-11-08T11:00:00	2	Temperatura media	23.6
131650	7	Sololá	704	Santa Lucía Utatlán 	7	Santa Rita 	11	Noviembre	2023-11-28T00:00:00	2024-11-08T11:00:00	4	Temperatura máxima	24.4
131651	7	Sololá	704	Santa Lucía Utatlán 	7	Santa Rita 	11	Noviembre	2023-11-28T00:00:00	2024-11-08T11:00:00	3	Temperatura mínima	23.3
131652	7	Sololá	704	Santa Lucía Utatlán 	7	Santa Rita 	11	Noviembre	2023-11-28T00:00:00	2024-11-08T11:00:00	5	Humedad	69
131653	7	Sololá	704	Santa Lucía Utatlán 	7	Santa Rita 	11	Noviembre	2023-11-28T00:00:00	2024-11-08T11:00:00	6	Velocidad del viento	8
131654	7	Sololá	704	Santa Lucía Utatlán 	7	Santa Rita 	11	Noviembre	2023-11-28T00:00:00	2024-11-08T11:00:00	7	Dirección del viento	8.05
131655	7	Sololá	704	Santa Lucía Utatlán 	7	Santa Rita 	11	Noviembre	2023-11-28T00:00:00	2024-11-08T11:00:00	1	Precipitación	0
131656	7	Sololá	704	Santa Lucía Utatlán 	7	Santa Rita 	11	Noviembre	2023-11-28T00:00:00	2024-11-08T11:00:00	8	Radiación solar	826
131657	7	Sololá	704	Santa Lucía Utatlán 	7	Santa Rita 	11	Noviembre	2023-11-28T00:00:00	2024-11-08T12:00:00	2	Temperatura media	22.9
131658	7	Sololá	704	Santa Lucía Utatlán 	7	Santa Rita 	11	Noviembre	2023-11-28T00:00:00	2024-11-08T12:00:00	4	Temperatura máxima	23.6
131659	7	Sololá	704	Santa Lucía Utatlán 	7	Santa Rita 	11	Noviembre	2023-11-28T00:00:00	2024-11-08T12:00:00	3	Temperatura mínima	22.6
131660	7	Sololá	704	Santa Lucía Utatlán 	7	Santa Rita 	11	Noviembre	2023-11-28T00:00:00	2024-11-08T12:00:00	5	Humedad	71
131661	7	Sololá	704	Santa Lucía Utatlán 	7	Santa Rita 	11	Noviembre	2023-11-28T00:00:00	2024-11-08T12:00:00	6	Velocidad del viento	4.8
131662	7	Sololá	704	Santa Lucía Utatlán 	7	Santa Rita 	11	Noviembre	2023-11-28T00:00:00	2024-11-08T12:00:00	7	Dirección del viento	4.83
131663	7	Sololá	704	Santa Lucía Utatlán 	7	Santa Rita 	11	Noviembre	2023-11-28T00:00:00	2024-11-08T12:00:00	1	Precipitación	0
131664	7	Sololá	704	Santa Lucía Utatlán 	7	Santa Rita 	11	Noviembre	2023-11-28T00:00:00	2024-11-08T12:00:00	8	Radiación solar	917
131665	7	Sololá	704	Santa Lucía Utatlán 	7	Santa Rita 	11	Noviembre	2023-11-28T00:00:00	2024-11-08T13:00:00	2	Temperatura media	21.6
131666	7	Sololá	704	Santa Lucía Utatlán 	7	Santa Rita 	11	Noviembre	2023-11-28T00:00:00	2024-11-08T13:00:00	4	Temperatura máxima	22.9
131667	7	Sololá	704	Santa Lucía Utatlán 	7	Santa Rita 	11	Noviembre	2023-11-28T00:00:00	2024-11-08T13:00:00	3	Temperatura mínima	21.6
131668	7	Sololá	704	Santa Lucía Utatlán 	7	Santa Rita 	11	Noviembre	2023-11-28T00:00:00	2024-11-08T13:00:00	5	Humedad	73
131669	7	Sololá	704	Santa Lucía Utatlán 	7	Santa Rita 	11	Noviembre	2023-11-28T00:00:00	2024-11-08T13:00:00	6	Velocidad del viento	6.4
131670	7	Sololá	704	Santa Lucía Utatlán 	7	Santa Rita 	11	Noviembre	2023-11-28T00:00:00	2024-11-08T13:00:00	7	Dirección del viento	6.44
131671	7	Sololá	704	Santa Lucía Utatlán 	7	Santa Rita 	11	Noviembre	2023-11-28T00:00:00	2024-11-08T13:00:00	1	Precipitación	0
131672	7	Sololá	704	Santa Lucía Utatlán 	7	Santa Rita 	11	Noviembre	2023-11-28T00:00:00	2024-11-08T13:00:00	8	Radiación solar	796
131673	7	Sololá	704	Santa Lucía Utatlán 	7	Santa Rita 	11	Noviembre	2023-11-28T00:00:00	2024-11-08T14:00:00	2	Temperatura media	21.1
131674	7	Sololá	704	Santa Lucía Utatlán 	7	Santa Rita 	11	Noviembre	2023-11-28T00:00:00	2024-11-08T14:00:00	4	Temperatura máxima	21.7
131675	7	Sololá	704	Santa Lucía Utatlán 	7	Santa Rita 	11	Noviembre	2023-11-28T00:00:00	2024-11-08T14:00:00	3	Temperatura mínima	20.9
131676	7	Sololá	704	Santa Lucía Utatlán 	7	Santa Rita 	11	Noviembre	2023-11-28T00:00:00	2024-11-08T14:00:00	5	Humedad	69
131677	7	Sololá	704	Santa Lucía Utatlán 	7	Santa Rita 	11	Noviembre	2023-11-28T00:00:00	2024-11-08T14:00:00	6	Velocidad del viento	9.7
131678	7	Sololá	704	Santa Lucía Utatlán 	7	Santa Rita 	11	Noviembre	2023-11-28T00:00:00	2024-11-08T14:00:00	7	Dirección del viento	9.66
131679	7	Sololá	704	Santa Lucía Utatlán 	7	Santa Rita 	11	Noviembre	2023-11-28T00:00:00	2024-11-08T14:00:00	1	Precipitación	0
131680	7	Sololá	704	Santa Lucía Utatlán 	7	Santa Rita 	11	Noviembre	2023-11-28T00:00:00	2024-11-08T14:00:00	8	Radiación solar	284
131681	7	Sololá	704	Santa Lucía Utatlán 	7	Santa Rita 	11	Noviembre	2023-11-28T00:00:00	2024-11-08T15:00:00	2	Temperatura media	20.8
131682	7	Sololá	704	Santa Lucía Utatlán 	7	Santa Rita 	11	Noviembre	2023-11-28T00:00:00	2024-11-08T15:00:00	4	Temperatura máxima	21.1
131683	7	Sololá	704	Santa Lucía Utatlán 	7	Santa Rita 	11	Noviembre	2023-11-28T00:00:00	2024-11-08T15:00:00	3	Temperatura mínima	20.7
131684	7	Sololá	704	Santa Lucía Utatlán 	7	Santa Rita 	11	Noviembre	2023-11-28T00:00:00	2024-11-08T15:00:00	5	Humedad	73
131685	7	Sololá	704	Santa Lucía Utatlán 	7	Santa Rita 	11	Noviembre	2023-11-28T00:00:00	2024-11-08T15:00:00	6	Velocidad del viento	9.7
131686	7	Sololá	704	Santa Lucía Utatlán 	7	Santa Rita 	11	Noviembre	2023-11-28T00:00:00	2024-11-08T15:00:00	7	Dirección del viento	9.66
131687	7	Sololá	704	Santa Lucía Utatlán 	7	Santa Rita 	11	Noviembre	2023-11-28T00:00:00	2024-11-08T15:00:00	1	Precipitación	0
131688	7	Sololá	704	Santa Lucía Utatlán 	7	Santa Rita 	11	Noviembre	2023-11-28T00:00:00	2024-11-08T15:00:00	8	Radiación solar	264
131689	7	Sololá	704	Santa Lucía Utatlán 	7	Santa Rita 	11	Noviembre	2023-11-28T00:00:00	2024-11-08T16:00:00	2	Temperatura media	19.5
131690	7	Sololá	704	Santa Lucía Utatlán 	7	Santa Rita 	11	Noviembre	2023-11-28T00:00:00	2024-11-08T16:00:00	4	Temperatura máxima	19.7
131691	7	Sololá	704	Santa Lucía Utatlán 	7	Santa Rita 	11	Noviembre	2023-11-28T00:00:00	2024-11-08T16:00:00	3	Temperatura mínima	19.4
131692	7	Sololá	704	Santa Lucía Utatlán 	7	Santa Rita 	11	Noviembre	2023-11-28T00:00:00	2024-11-08T16:00:00	5	Humedad	95
131693	7	Sololá	704	Santa Lucía Utatlán 	7	Santa Rita 	11	Noviembre	2023-11-28T00:00:00	2024-11-08T16:00:00	6	Velocidad del viento	1.6
131694	7	Sololá	704	Santa Lucía Utatlán 	7	Santa Rita 	11	Noviembre	2023-11-28T00:00:00	2024-11-08T16:00:00	7	Dirección del viento	1.61
131695	7	Sololá	704	Santa Lucía Utatlán 	7	Santa Rita 	11	Noviembre	2023-11-28T00:00:00	2024-11-08T16:00:00	1	Precipitación	0
131696	7	Sololá	704	Santa Lucía Utatlán 	7	Santa Rita 	11	Noviembre	2023-11-28T00:00:00	2024-11-08T16:00:00	8	Radiación solar	193
131697	7	Sololá	704	Santa Lucía Utatlán 	7	Santa Rita 	11	Noviembre	2023-11-28T00:00:00	2024-11-08T17:00:00	2	Temperatura media	19.4
131698	7	Sololá	704	Santa Lucía Utatlán 	7	Santa Rita 	11	Noviembre	2023-11-28T00:00:00	2024-11-08T17:00:00	4	Temperatura máxima	19.9
131699	7	Sololá	704	Santa Lucía Utatlán 	7	Santa Rita 	11	Noviembre	2023-11-28T00:00:00	2024-11-08T17:00:00	3	Temperatura mínima	19.4
131700	7	Sololá	704	Santa Lucía Utatlán 	7	Santa Rita 	11	Noviembre	2023-11-28T00:00:00	2024-11-08T17:00:00	5	Humedad	71
131701	7	Sololá	704	Santa Lucía Utatlán 	7	Santa Rita 	11	Noviembre	2023-11-28T00:00:00	2024-11-08T17:00:00	6	Velocidad del viento	9.7
131702	7	Sololá	704	Santa Lucía Utatlán 	7	Santa Rita 	11	Noviembre	2023-11-28T00:00:00	2024-11-08T17:00:00	7	Dirección del viento	9.66
131703	7	Sololá	704	Santa Lucía Utatlán 	7	Santa Rita 	11	Noviembre	2023-11-28T00:00:00	2024-11-08T17:00:00	1	Precipitación	0
131704	7	Sololá	704	Santa Lucía Utatlán 	7	Santa Rita 	11	Noviembre	2023-11-28T00:00:00	2024-11-08T17:00:00	8	Radiación solar	79
131705	7	Sololá	704	Santa Lucía Utatlán 	7	Santa Rita 	11	Noviembre	2023-11-28T00:00:00	2024-11-08T18:00:00	2	Temperatura media	19.3
131706	7	Sololá	704	Santa Lucía Utatlán 	7	Santa Rita 	11	Noviembre	2023-11-28T00:00:00	2024-11-08T18:00:00	4	Temperatura máxima	19.8
131707	7	Sololá	704	Santa Lucía Utatlán 	7	Santa Rita 	11	Noviembre	2023-11-28T00:00:00	2024-11-08T18:00:00	3	Temperatura mínima	19.3
131708	7	Sololá	704	Santa Lucía Utatlán 	7	Santa Rita 	11	Noviembre	2023-11-28T00:00:00	2024-11-08T18:00:00	5	Humedad	70
131709	7	Sololá	704	Santa Lucía Utatlán 	7	Santa Rita 	11	Noviembre	2023-11-28T00:00:00	2024-11-08T18:00:00	6	Velocidad del viento	8
131710	7	Sololá	704	Santa Lucía Utatlán 	7	Santa Rita 	11	Noviembre	2023-11-28T00:00:00	2024-11-08T18:00:00	7	Dirección del viento	8.05
131711	7	Sololá	704	Santa Lucía Utatlán 	7	Santa Rita 	11	Noviembre	2023-11-28T00:00:00	2024-11-08T18:00:00	1	Precipitación	0
131712	7	Sololá	704	Santa Lucía Utatlán 	7	Santa Rita 	11	Noviembre	2023-11-28T00:00:00	2024-11-08T18:00:00	8	Radiación solar	8
131713	7	Sololá	704	Santa Lucía Utatlán 	7	Santa Rita 	11	Noviembre	2023-11-28T00:00:00	2024-11-08T19:00:00	2	Temperatura media	19.3
131714	7	Sololá	704	Santa Lucía Utatlán 	7	Santa Rita 	11	Noviembre	2023-11-28T00:00:00	2024-11-08T19:00:00	4	Temperatura máxima	19.4
131715	7	Sololá	704	Santa Lucía Utatlán 	7	Santa Rita 	11	Noviembre	2023-11-28T00:00:00	2024-11-08T19:00:00	3	Temperatura mínima	18.8
131716	7	Sololá	704	Santa Lucía Utatlán 	7	Santa Rita 	11	Noviembre	2023-11-28T00:00:00	2024-11-08T19:00:00	5	Humedad	67
131717	7	Sololá	704	Santa Lucía Utatlán 	7	Santa Rita 	11	Noviembre	2023-11-28T00:00:00	2024-11-08T19:00:00	6	Velocidad del viento	8
131718	7	Sololá	704	Santa Lucía Utatlán 	7	Santa Rita 	11	Noviembre	2023-11-28T00:00:00	2024-11-08T19:00:00	7	Dirección del viento	8.05
131719	7	Sololá	704	Santa Lucía Utatlán 	7	Santa Rita 	11	Noviembre	2023-11-28T00:00:00	2024-11-08T19:00:00	1	Precipitación	0
131720	7	Sololá	704	Santa Lucía Utatlán 	7	Santa Rita 	11	Noviembre	2023-11-28T00:00:00	2024-11-08T19:00:00	8	Radiación solar	0
131721	7	Sololá	704	Santa Lucía Utatlán 	7	Santa Rita 	11	Noviembre	2023-11-28T00:00:00	2024-11-08T20:00:00	2	Temperatura media	16.3
131722	7	Sololá	704	Santa Lucía Utatlán 	7	Santa Rita 	11	Noviembre	2023-11-28T00:00:00	2024-11-08T20:00:00	4	Temperatura máxima	19.3
131723	7	Sololá	704	Santa Lucía Utatlán 	7	Santa Rita 	11	Noviembre	2023-11-28T00:00:00	2024-11-08T20:00:00	3	Temperatura mínima	16.3
131724	7	Sololá	704	Santa Lucía Utatlán 	7	Santa Rita 	11	Noviembre	2023-11-28T00:00:00	2024-11-08T20:00:00	5	Humedad	79
131725	7	Sololá	704	Santa Lucía Utatlán 	7	Santa Rita 	11	Noviembre	2023-11-28T00:00:00	2024-11-08T20:00:00	6	Velocidad del viento	4.8
131726	7	Sololá	704	Santa Lucía Utatlán 	7	Santa Rita 	11	Noviembre	2023-11-28T00:00:00	2024-11-08T20:00:00	7	Dirección del viento	4.83
131727	7	Sololá	704	Santa Lucía Utatlán 	7	Santa Rita 	11	Noviembre	2023-11-28T00:00:00	2024-11-08T20:00:00	1	Precipitación	0
131728	7	Sololá	704	Santa Lucía Utatlán 	7	Santa Rita 	11	Noviembre	2023-11-28T00:00:00	2024-11-08T20:00:00	8	Radiación solar	0
131729	7	Sololá	704	Santa Lucía Utatlán 	7	Santa Rita 	11	Noviembre	2023-11-28T00:00:00	2024-11-08T21:00:00	2	Temperatura media	15.6
131730	7	Sololá	704	Santa Lucía Utatlán 	7	Santa Rita 	11	Noviembre	2023-11-28T00:00:00	2024-11-08T21:00:00	4	Temperatura máxima	16.3
131731	7	Sololá	704	Santa Lucía Utatlán 	7	Santa Rita 	11	Noviembre	2023-11-28T00:00:00	2024-11-08T21:00:00	3	Temperatura mínima	15.6
131732	7	Sololá	704	Santa Lucía Utatlán 	7	Santa Rita 	11	Noviembre	2023-11-28T00:00:00	2024-11-08T21:00:00	5	Humedad	82
131733	7	Sololá	704	Santa Lucía Utatlán 	7	Santa Rita 	11	Noviembre	2023-11-28T00:00:00	2024-11-08T21:00:00	6	Velocidad del viento	3.2
131734	7	Sololá	704	Santa Lucía Utatlán 	7	Santa Rita 	11	Noviembre	2023-11-28T00:00:00	2024-11-08T21:00:00	7	Dirección del viento	3.22
131735	7	Sololá	704	Santa Lucía Utatlán 	7	Santa Rita 	11	Noviembre	2023-11-28T00:00:00	2024-11-08T21:00:00	1	Precipitación	0
131736	7	Sololá	704	Santa Lucía Utatlán 	7	Santa Rita 	11	Noviembre	2023-11-28T00:00:00	2024-11-08T21:00:00	8	Radiación solar	0
131737	7	Sololá	704	Santa Lucía Utatlán 	7	Santa Rita 	11	Noviembre	2023-11-28T00:00:00	2024-11-08T22:00:00	2	Temperatura media	15.3
131738	7	Sololá	704	Santa Lucía Utatlán 	7	Santa Rita 	11	Noviembre	2023-11-28T00:00:00	2024-11-08T22:00:00	4	Temperatura máxima	15.8
131739	7	Sololá	704	Santa Lucía Utatlán 	7	Santa Rita 	11	Noviembre	2023-11-28T00:00:00	2024-11-08T22:00:00	3	Temperatura mínima	15.1
131740	7	Sololá	704	Santa Lucía Utatlán 	7	Santa Rita 	11	Noviembre	2023-11-28T00:00:00	2024-11-08T22:00:00	5	Humedad	83
131741	7	Sololá	704	Santa Lucía Utatlán 	7	Santa Rita 	11	Noviembre	2023-11-28T00:00:00	2024-11-08T22:00:00	6	Velocidad del viento	3.2
131742	7	Sololá	704	Santa Lucía Utatlán 	7	Santa Rita 	11	Noviembre	2023-11-28T00:00:00	2024-11-08T22:00:00	7	Dirección del viento	3.22
131743	7	Sololá	704	Santa Lucía Utatlán 	7	Santa Rita 	11	Noviembre	2023-11-28T00:00:00	2024-11-08T22:00:00	1	Precipitación	0
131744	7	Sololá	704	Santa Lucía Utatlán 	7	Santa Rita 	11	Noviembre	2023-11-28T00:00:00	2024-11-08T22:00:00	8	Radiación solar	0
131745	7	Sololá	704	Santa Lucía Utatlán 	7	Santa Rita 	11	Noviembre	2023-11-28T00:00:00	2024-11-08T23:00:00	2	Temperatura media	15.2
131746	7	Sololá	704	Santa Lucía Utatlán 	7	Santa Rita 	11	Noviembre	2023-11-28T00:00:00	2024-11-08T23:00:00	4	Temperatura máxima	15.3
131747	7	Sololá	704	Santa Lucía Utatlán 	7	Santa Rita 	11	Noviembre	2023-11-28T00:00:00	2024-11-08T23:00:00	3	Temperatura mínima	14.9
131748	7	Sololá	704	Santa Lucía Utatlán 	7	Santa Rita 	11	Noviembre	2023-11-28T00:00:00	2024-11-08T23:00:00	5	Humedad	83
131749	7	Sololá	704	Santa Lucía Utatlán 	7	Santa Rita 	11	Noviembre	2023-11-28T00:00:00	2024-11-08T23:00:00	6	Velocidad del viento	3.2
131750	7	Sololá	704	Santa Lucía Utatlán 	7	Santa Rita 	11	Noviembre	2023-11-28T00:00:00	2024-11-08T23:00:00	7	Dirección del viento	3.22
131751	7	Sololá	704	Santa Lucía Utatlán 	7	Santa Rita 	11	Noviembre	2023-11-28T00:00:00	2024-11-08T23:00:00	1	Precipitación	0
131752	7	Sololá	704	Santa Lucía Utatlán 	7	Santa Rita 	11	Noviembre	2023-11-28T00:00:00	2024-11-08T23:00:00	8	Radiación solar	0
131753	7	Sololá	704	Santa Lucía Utatlán 	7	Santa Rita 	11	Noviembre	2023-11-29T00:00:00	2024-11-08T00:00:00	2	Temperatura media	16.9
131754	7	Sololá	704	Santa Lucía Utatlán 	7	Santa Rita 	11	Noviembre	2023-11-29T00:00:00	2024-11-08T00:00:00	4	Temperatura máxima	16.9
131755	7	Sololá	704	Santa Lucía Utatlán 	7	Santa Rita 	11	Noviembre	2023-11-29T00:00:00	2024-11-08T00:00:00	3	Temperatura mínima	15.2
131756	7	Sololá	704	Santa Lucía Utatlán 	7	Santa Rita 	11	Noviembre	2023-11-29T00:00:00	2024-11-08T00:00:00	5	Humedad	72
131757	7	Sololá	704	Santa Lucía Utatlán 	7	Santa Rita 	11	Noviembre	2023-11-29T00:00:00	2024-11-08T00:00:00	6	Velocidad del viento	3.2
131758	7	Sololá	704	Santa Lucía Utatlán 	7	Santa Rita 	11	Noviembre	2023-11-29T00:00:00	2024-11-08T00:00:00	7	Dirección del viento	3.22
131759	7	Sololá	704	Santa Lucía Utatlán 	7	Santa Rita 	11	Noviembre	2023-11-29T00:00:00	2024-11-08T00:00:00	1	Precipitación	0
131760	7	Sololá	704	Santa Lucía Utatlán 	7	Santa Rita 	11	Noviembre	2023-11-29T00:00:00	2024-11-08T00:00:00	8	Radiación solar	0
131761	7	Sololá	704	Santa Lucía Utatlán 	7	Santa Rita 	11	Noviembre	2023-11-29T00:00:00	2024-11-08T01:00:00	2	Temperatura media	20.3
131762	7	Sololá	704	Santa Lucía Utatlán 	7	Santa Rita 	11	Noviembre	2023-11-29T00:00:00	2024-11-08T01:00:00	4	Temperatura máxima	20.3
131763	7	Sololá	704	Santa Lucía Utatlán 	7	Santa Rita 	11	Noviembre	2023-11-29T00:00:00	2024-11-08T01:00:00	3	Temperatura mínima	16.9
131764	7	Sololá	704	Santa Lucía Utatlán 	7	Santa Rita 	11	Noviembre	2023-11-29T00:00:00	2024-11-08T01:00:00	5	Humedad	60
131765	7	Sololá	704	Santa Lucía Utatlán 	7	Santa Rita 	11	Noviembre	2023-11-29T00:00:00	2024-11-08T01:00:00	6	Velocidad del viento	3.2
131766	7	Sololá	704	Santa Lucía Utatlán 	7	Santa Rita 	11	Noviembre	2023-11-29T00:00:00	2024-11-08T01:00:00	7	Dirección del viento	3.22
131767	7	Sololá	704	Santa Lucía Utatlán 	7	Santa Rita 	11	Noviembre	2023-11-29T00:00:00	2024-11-08T01:00:00	1	Precipitación	0
131768	7	Sololá	704	Santa Lucía Utatlán 	7	Santa Rita 	11	Noviembre	2023-11-29T00:00:00	2024-11-08T01:00:00	8	Radiación solar	0
131769	7	Sololá	704	Santa Lucía Utatlán 	7	Santa Rita 	11	Noviembre	2023-11-29T00:00:00	2024-11-08T02:00:00	2	Temperatura media	22.1
131770	7	Sololá	704	Santa Lucía Utatlán 	7	Santa Rita 	11	Noviembre	2023-11-29T00:00:00	2024-11-08T02:00:00	4	Temperatura máxima	22.2
131771	7	Sololá	704	Santa Lucía Utatlán 	7	Santa Rita 	11	Noviembre	2023-11-29T00:00:00	2024-11-08T02:00:00	3	Temperatura mínima	20.3
131772	7	Sololá	704	Santa Lucía Utatlán 	7	Santa Rita 	11	Noviembre	2023-11-29T00:00:00	2024-11-08T02:00:00	5	Humedad	47
131773	7	Sololá	704	Santa Lucía Utatlán 	7	Santa Rita 	11	Noviembre	2023-11-29T00:00:00	2024-11-08T02:00:00	6	Velocidad del viento	6.4
131774	7	Sololá	704	Santa Lucía Utatlán 	7	Santa Rita 	11	Noviembre	2023-11-29T00:00:00	2024-11-08T02:00:00	7	Dirección del viento	6.44
131775	7	Sololá	704	Santa Lucía Utatlán 	7	Santa Rita 	11	Noviembre	2023-11-29T00:00:00	2024-11-08T02:00:00	1	Precipitación	0
131776	7	Sololá	704	Santa Lucía Utatlán 	7	Santa Rita 	11	Noviembre	2023-11-29T00:00:00	2024-11-08T02:00:00	8	Radiación solar	0
131777	7	Sololá	704	Santa Lucía Utatlán 	7	Santa Rita 	11	Noviembre	2023-11-29T00:00:00	2024-11-08T03:00:00	2	Temperatura media	22.8
131778	7	Sololá	704	Santa Lucía Utatlán 	7	Santa Rita 	11	Noviembre	2023-11-29T00:00:00	2024-11-08T03:00:00	4	Temperatura máxima	23
131779	7	Sololá	704	Santa Lucía Utatlán 	7	Santa Rita 	11	Noviembre	2023-11-29T00:00:00	2024-11-08T03:00:00	3	Temperatura mínima	22.1
131780	7	Sololá	704	Santa Lucía Utatlán 	7	Santa Rita 	11	Noviembre	2023-11-29T00:00:00	2024-11-08T03:00:00	5	Humedad	48
131781	7	Sololá	704	Santa Lucía Utatlán 	7	Santa Rita 	11	Noviembre	2023-11-29T00:00:00	2024-11-08T03:00:00	6	Velocidad del viento	6.4
131782	7	Sololá	704	Santa Lucía Utatlán 	7	Santa Rita 	11	Noviembre	2023-11-29T00:00:00	2024-11-08T03:00:00	7	Dirección del viento	6.44
131783	7	Sololá	704	Santa Lucía Utatlán 	7	Santa Rita 	11	Noviembre	2023-11-29T00:00:00	2024-11-08T03:00:00	1	Precipitación	0
131784	7	Sololá	704	Santa Lucía Utatlán 	7	Santa Rita 	11	Noviembre	2023-11-29T00:00:00	2024-11-08T03:00:00	8	Radiación solar	0
131785	7	Sololá	704	Santa Lucía Utatlán 	7	Santa Rita 	11	Noviembre	2023-11-29T00:00:00	2024-11-08T04:00:00	2	Temperatura media	23.7
131786	7	Sololá	704	Santa Lucía Utatlán 	7	Santa Rita 	11	Noviembre	2023-11-29T00:00:00	2024-11-08T04:00:00	4	Temperatura máxima	24.1
131787	7	Sololá	704	Santa Lucía Utatlán 	7	Santa Rita 	11	Noviembre	2023-11-29T00:00:00	2024-11-08T04:00:00	3	Temperatura mínima	22.8
131788	7	Sololá	704	Santa Lucía Utatlán 	7	Santa Rita 	11	Noviembre	2023-11-29T00:00:00	2024-11-08T04:00:00	5	Humedad	54
131789	7	Sololá	704	Santa Lucía Utatlán 	7	Santa Rita 	11	Noviembre	2023-11-29T00:00:00	2024-11-08T04:00:00	6	Velocidad del viento	6.4
131790	7	Sololá	704	Santa Lucía Utatlán 	7	Santa Rita 	11	Noviembre	2023-11-29T00:00:00	2024-11-08T04:00:00	7	Dirección del viento	6.44
131791	7	Sololá	704	Santa Lucía Utatlán 	7	Santa Rita 	11	Noviembre	2023-11-29T00:00:00	2024-11-08T04:00:00	1	Precipitación	0
131792	7	Sololá	704	Santa Lucía Utatlán 	7	Santa Rita 	11	Noviembre	2023-11-29T00:00:00	2024-11-08T04:00:00	8	Radiación solar	0
131793	7	Sololá	704	Santa Lucía Utatlán 	7	Santa Rita 	11	Noviembre	2023-11-29T00:00:00	2024-11-08T05:00:00	2	Temperatura media	23.7
131794	7	Sololá	704	Santa Lucía Utatlán 	7	Santa Rita 	11	Noviembre	2023-11-29T00:00:00	2024-11-08T05:00:00	4	Temperatura máxima	23.9
131795	7	Sololá	704	Santa Lucía Utatlán 	7	Santa Rita 	11	Noviembre	2023-11-29T00:00:00	2024-11-08T05:00:00	3	Temperatura mínima	22.9
131796	7	Sololá	704	Santa Lucía Utatlán 	7	Santa Rita 	11	Noviembre	2023-11-29T00:00:00	2024-11-08T05:00:00	5	Humedad	49
131797	7	Sololá	704	Santa Lucía Utatlán 	7	Santa Rita 	11	Noviembre	2023-11-29T00:00:00	2024-11-08T05:00:00	6	Velocidad del viento	11.3
131798	7	Sololá	704	Santa Lucía Utatlán 	7	Santa Rita 	11	Noviembre	2023-11-29T00:00:00	2024-11-08T05:00:00	7	Dirección del viento	11.27
131799	7	Sololá	704	Santa Lucía Utatlán 	7	Santa Rita 	11	Noviembre	2023-11-29T00:00:00	2024-11-08T05:00:00	1	Precipitación	0
131800	7	Sololá	704	Santa Lucía Utatlán 	7	Santa Rita 	11	Noviembre	2023-11-29T00:00:00	2024-11-08T05:00:00	8	Radiación solar	0
131801	7	Sololá	704	Santa Lucía Utatlán 	7	Santa Rita 	11	Noviembre	2023-11-29T00:00:00	2024-11-08T06:00:00	2	Temperatura media	24.8
131802	7	Sololá	704	Santa Lucía Utatlán 	7	Santa Rita 	11	Noviembre	2023-11-29T00:00:00	2024-11-08T06:00:00	4	Temperatura máxima	25.1
131803	7	Sololá	704	Santa Lucía Utatlán 	7	Santa Rita 	11	Noviembre	2023-11-29T00:00:00	2024-11-08T06:00:00	3	Temperatura mínima	23.5
131804	7	Sololá	704	Santa Lucía Utatlán 	7	Santa Rita 	11	Noviembre	2023-11-29T00:00:00	2024-11-08T06:00:00	5	Humedad	53
131805	7	Sololá	704	Santa Lucía Utatlán 	7	Santa Rita 	11	Noviembre	2023-11-29T00:00:00	2024-11-08T06:00:00	6	Velocidad del viento	9.7
131806	7	Sololá	704	Santa Lucía Utatlán 	7	Santa Rita 	11	Noviembre	2023-11-29T00:00:00	2024-11-08T06:00:00	7	Dirección del viento	9.66
131807	7	Sololá	704	Santa Lucía Utatlán 	7	Santa Rita 	11	Noviembre	2023-11-29T00:00:00	2024-11-08T06:00:00	1	Precipitación	0
131808	7	Sololá	704	Santa Lucía Utatlán 	7	Santa Rita 	11	Noviembre	2023-11-29T00:00:00	2024-11-08T06:00:00	8	Radiación solar	0
131809	7	Sololá	704	Santa Lucía Utatlán 	7	Santa Rita 	11	Noviembre	2023-11-29T00:00:00	2024-11-08T07:00:00	2	Temperatura media	24.3
131810	7	Sololá	704	Santa Lucía Utatlán 	7	Santa Rita 	11	Noviembre	2023-11-29T00:00:00	2024-11-08T07:00:00	4	Temperatura máxima	25.2
131811	7	Sololá	704	Santa Lucía Utatlán 	7	Santa Rita 	11	Noviembre	2023-11-29T00:00:00	2024-11-08T07:00:00	3	Temperatura mínima	24.2
131812	7	Sololá	704	Santa Lucía Utatlán 	7	Santa Rita 	11	Noviembre	2023-11-29T00:00:00	2024-11-08T07:00:00	5	Humedad	59
131813	7	Sololá	704	Santa Lucía Utatlán 	7	Santa Rita 	11	Noviembre	2023-11-29T00:00:00	2024-11-08T07:00:00	6	Velocidad del viento	11.3
131814	7	Sololá	704	Santa Lucía Utatlán 	7	Santa Rita 	11	Noviembre	2023-11-29T00:00:00	2024-11-08T07:00:00	7	Dirección del viento	11.27
131815	7	Sololá	704	Santa Lucía Utatlán 	7	Santa Rita 	11	Noviembre	2023-11-29T00:00:00	2024-11-08T07:00:00	1	Precipitación	0
131816	7	Sololá	704	Santa Lucía Utatlán 	7	Santa Rita 	11	Noviembre	2023-11-29T00:00:00	2024-11-08T07:00:00	8	Radiación solar	50
131817	7	Sololá	704	Santa Lucía Utatlán 	7	Santa Rita 	11	Noviembre	2023-11-29T00:00:00	2024-11-08T08:00:00	2	Temperatura media	23.8
131818	7	Sololá	704	Santa Lucía Utatlán 	7	Santa Rita 	11	Noviembre	2023-11-29T00:00:00	2024-11-08T08:00:00	4	Temperatura máxima	24.5
131819	7	Sololá	704	Santa Lucía Utatlán 	7	Santa Rita 	11	Noviembre	2023-11-29T00:00:00	2024-11-08T08:00:00	3	Temperatura mínima	23.2
131820	7	Sololá	704	Santa Lucía Utatlán 	7	Santa Rita 	11	Noviembre	2023-11-29T00:00:00	2024-11-08T08:00:00	5	Humedad	60
131821	7	Sololá	704	Santa Lucía Utatlán 	7	Santa Rita 	11	Noviembre	2023-11-29T00:00:00	2024-11-08T08:00:00	6	Velocidad del viento	12.9
131822	7	Sololá	704	Santa Lucía Utatlán 	7	Santa Rita 	11	Noviembre	2023-11-29T00:00:00	2024-11-08T08:00:00	7	Dirección del viento	12.87
131823	7	Sololá	704	Santa Lucía Utatlán 	7	Santa Rita 	11	Noviembre	2023-11-29T00:00:00	2024-11-08T08:00:00	1	Precipitación	0
131824	7	Sololá	704	Santa Lucía Utatlán 	7	Santa Rita 	11	Noviembre	2023-11-29T00:00:00	2024-11-08T08:00:00	8	Radiación solar	269
131825	7	Sololá	704	Santa Lucía Utatlán 	7	Santa Rita 	11	Noviembre	2023-11-29T00:00:00	2024-11-08T09:00:00	2	Temperatura media	23.1
131826	7	Sololá	704	Santa Lucía Utatlán 	7	Santa Rita 	11	Noviembre	2023-11-29T00:00:00	2024-11-08T09:00:00	4	Temperatura máxima	24.1
131827	7	Sololá	704	Santa Lucía Utatlán 	7	Santa Rita 	11	Noviembre	2023-11-29T00:00:00	2024-11-08T09:00:00	3	Temperatura mínima	22.8
131828	7	Sololá	704	Santa Lucía Utatlán 	7	Santa Rita 	11	Noviembre	2023-11-29T00:00:00	2024-11-08T09:00:00	5	Humedad	60
131829	7	Sololá	704	Santa Lucía Utatlán 	7	Santa Rita 	11	Noviembre	2023-11-29T00:00:00	2024-11-08T09:00:00	6	Velocidad del viento	12.9
131830	7	Sololá	704	Santa Lucía Utatlán 	7	Santa Rita 	11	Noviembre	2023-11-29T00:00:00	2024-11-08T09:00:00	7	Dirección del viento	12.87
131831	7	Sololá	704	Santa Lucía Utatlán 	7	Santa Rita 	11	Noviembre	2023-11-29T00:00:00	2024-11-08T09:00:00	1	Precipitación	0
131832	7	Sololá	704	Santa Lucía Utatlán 	7	Santa Rita 	11	Noviembre	2023-11-29T00:00:00	2024-11-08T09:00:00	8	Radiación solar	455
131833	7	Sololá	704	Santa Lucía Utatlán 	7	Santa Rita 	11	Noviembre	2023-11-29T00:00:00	2024-11-08T10:00:00	2	Temperatura media	22.6
131834	7	Sololá	704	Santa Lucía Utatlán 	7	Santa Rita 	11	Noviembre	2023-11-29T00:00:00	2024-11-08T10:00:00	4	Temperatura máxima	23.1
131835	7	Sololá	704	Santa Lucía Utatlán 	7	Santa Rita 	11	Noviembre	2023-11-29T00:00:00	2024-11-08T10:00:00	3	Temperatura mínima	22.4
131836	7	Sololá	704	Santa Lucía Utatlán 	7	Santa Rita 	11	Noviembre	2023-11-29T00:00:00	2024-11-08T10:00:00	5	Humedad	59
131837	7	Sololá	704	Santa Lucía Utatlán 	7	Santa Rita 	11	Noviembre	2023-11-29T00:00:00	2024-11-08T10:00:00	6	Velocidad del viento	9.7
131838	7	Sololá	704	Santa Lucía Utatlán 	7	Santa Rita 	11	Noviembre	2023-11-29T00:00:00	2024-11-08T10:00:00	7	Dirección del viento	9.66
131839	7	Sololá	704	Santa Lucía Utatlán 	7	Santa Rita 	11	Noviembre	2023-11-29T00:00:00	2024-11-08T10:00:00	1	Precipitación	0
131840	7	Sololá	704	Santa Lucía Utatlán 	7	Santa Rita 	11	Noviembre	2023-11-29T00:00:00	2024-11-08T10:00:00	8	Radiación solar	646
131841	7	Sololá	704	Santa Lucía Utatlán 	7	Santa Rita 	11	Noviembre	2023-11-29T00:00:00	2024-11-08T11:00:00	2	Temperatura media	20.7
131842	7	Sololá	704	Santa Lucía Utatlán 	7	Santa Rita 	11	Noviembre	2023-11-29T00:00:00	2024-11-08T11:00:00	4	Temperatura máxima	22.6
131843	7	Sololá	704	Santa Lucía Utatlán 	7	Santa Rita 	11	Noviembre	2023-11-29T00:00:00	2024-11-08T11:00:00	3	Temperatura mínima	20.7
131844	7	Sololá	704	Santa Lucía Utatlán 	7	Santa Rita 	11	Noviembre	2023-11-29T00:00:00	2024-11-08T11:00:00	5	Humedad	67
131845	7	Sololá	704	Santa Lucía Utatlán 	7	Santa Rita 	11	Noviembre	2023-11-29T00:00:00	2024-11-08T11:00:00	6	Velocidad del viento	9.7
131846	7	Sololá	704	Santa Lucía Utatlán 	7	Santa Rita 	11	Noviembre	2023-11-29T00:00:00	2024-11-08T11:00:00	7	Dirección del viento	9.66
131847	7	Sololá	704	Santa Lucía Utatlán 	7	Santa Rita 	11	Noviembre	2023-11-29T00:00:00	2024-11-08T11:00:00	1	Precipitación	0
131848	7	Sololá	704	Santa Lucía Utatlán 	7	Santa Rita 	11	Noviembre	2023-11-29T00:00:00	2024-11-08T11:00:00	8	Radiación solar	737
131849	7	Sololá	704	Santa Lucía Utatlán 	7	Santa Rita 	11	Noviembre	2023-11-29T00:00:00	2024-11-08T12:00:00	2	Temperatura media	18.7
131850	7	Sololá	704	Santa Lucía Utatlán 	7	Santa Rita 	11	Noviembre	2023-11-29T00:00:00	2024-11-08T12:00:00	4	Temperatura máxima	20.7
131851	7	Sololá	704	Santa Lucía Utatlán 	7	Santa Rita 	11	Noviembre	2023-11-29T00:00:00	2024-11-08T12:00:00	3	Temperatura mínima	18.7
131852	7	Sololá	704	Santa Lucía Utatlán 	7	Santa Rita 	11	Noviembre	2023-11-29T00:00:00	2024-11-08T12:00:00	5	Humedad	74
131853	7	Sololá	704	Santa Lucía Utatlán 	7	Santa Rita 	11	Noviembre	2023-11-29T00:00:00	2024-11-08T12:00:00	6	Velocidad del viento	3.2
131854	7	Sololá	704	Santa Lucía Utatlán 	7	Santa Rita 	11	Noviembre	2023-11-29T00:00:00	2024-11-08T12:00:00	7	Dirección del viento	3.22
131855	7	Sololá	704	Santa Lucía Utatlán 	7	Santa Rita 	11	Noviembre	2023-11-29T00:00:00	2024-11-08T12:00:00	1	Precipitación	0
131856	7	Sololá	704	Santa Lucía Utatlán 	7	Santa Rita 	11	Noviembre	2023-11-29T00:00:00	2024-11-08T12:00:00	8	Radiación solar	807
131857	7	Sololá	704	Santa Lucía Utatlán 	7	Santa Rita 	11	Noviembre	2023-11-29T00:00:00	2024-11-08T13:00:00	2	Temperatura media	16.6
131858	7	Sololá	704	Santa Lucía Utatlán 	7	Santa Rita 	11	Noviembre	2023-11-29T00:00:00	2024-11-08T13:00:00	4	Temperatura máxima	18.7
131859	7	Sololá	704	Santa Lucía Utatlán 	7	Santa Rita 	11	Noviembre	2023-11-29T00:00:00	2024-11-08T13:00:00	3	Temperatura mínima	16.6
131860	7	Sololá	704	Santa Lucía Utatlán 	7	Santa Rita 	11	Noviembre	2023-11-29T00:00:00	2024-11-08T13:00:00	5	Humedad	79
131861	7	Sololá	704	Santa Lucía Utatlán 	7	Santa Rita 	11	Noviembre	2023-11-29T00:00:00	2024-11-08T13:00:00	6	Velocidad del viento	3.2
131862	7	Sololá	704	Santa Lucía Utatlán 	7	Santa Rita 	11	Noviembre	2023-11-29T00:00:00	2024-11-08T13:00:00	7	Dirección del viento	3.22
131863	7	Sololá	704	Santa Lucía Utatlán 	7	Santa Rita 	11	Noviembre	2023-11-29T00:00:00	2024-11-08T13:00:00	1	Precipitación	0
131864	7	Sololá	704	Santa Lucía Utatlán 	7	Santa Rita 	11	Noviembre	2023-11-29T00:00:00	2024-11-08T13:00:00	8	Radiación solar	790
131865	7	Sololá	704	Santa Lucía Utatlán 	7	Santa Rita 	11	Noviembre	2023-11-29T00:00:00	2024-11-08T14:00:00	2	Temperatura media	16.6
131866	7	Sololá	704	Santa Lucía Utatlán 	7	Santa Rita 	11	Noviembre	2023-11-29T00:00:00	2024-11-08T14:00:00	4	Temperatura máxima	17.2
131867	7	Sololá	704	Santa Lucía Utatlán 	7	Santa Rita 	11	Noviembre	2023-11-29T00:00:00	2024-11-08T14:00:00	3	Temperatura mínima	16.5
131868	7	Sololá	704	Santa Lucía Utatlán 	7	Santa Rita 	11	Noviembre	2023-11-29T00:00:00	2024-11-08T14:00:00	5	Humedad	81
131869	7	Sololá	704	Santa Lucía Utatlán 	7	Santa Rita 	11	Noviembre	2023-11-29T00:00:00	2024-11-08T14:00:00	6	Velocidad del viento	3.2
131870	7	Sololá	704	Santa Lucía Utatlán 	7	Santa Rita 	11	Noviembre	2023-11-29T00:00:00	2024-11-08T14:00:00	7	Dirección del viento	3.22
131871	7	Sololá	704	Santa Lucía Utatlán 	7	Santa Rita 	11	Noviembre	2023-11-29T00:00:00	2024-11-08T14:00:00	1	Precipitación	0
131872	7	Sololá	704	Santa Lucía Utatlán 	7	Santa Rita 	11	Noviembre	2023-11-29T00:00:00	2024-11-08T14:00:00	8	Radiación solar	693
131873	7	Sololá	704	Santa Lucía Utatlán 	7	Santa Rita 	11	Noviembre	2023-11-29T00:00:00	2024-11-08T15:00:00	2	Temperatura media	15.9
131874	7	Sololá	704	Santa Lucía Utatlán 	7	Santa Rita 	11	Noviembre	2023-11-29T00:00:00	2024-11-08T15:00:00	4	Temperatura máxima	16.6
131875	7	Sololá	704	Santa Lucía Utatlán 	7	Santa Rita 	11	Noviembre	2023-11-29T00:00:00	2024-11-08T15:00:00	3	Temperatura mínima	15.8
131876	7	Sololá	704	Santa Lucía Utatlán 	7	Santa Rita 	11	Noviembre	2023-11-29T00:00:00	2024-11-08T15:00:00	5	Humedad	83
131877	7	Sololá	704	Santa Lucía Utatlán 	7	Santa Rita 	11	Noviembre	2023-11-29T00:00:00	2024-11-08T15:00:00	6	Velocidad del viento	3.2
131878	7	Sololá	704	Santa Lucía Utatlán 	7	Santa Rita 	11	Noviembre	2023-11-29T00:00:00	2024-11-08T15:00:00	7	Dirección del viento	3.22
131879	7	Sololá	704	Santa Lucía Utatlán 	7	Santa Rita 	11	Noviembre	2023-11-29T00:00:00	2024-11-08T15:00:00	1	Precipitación	0
131880	7	Sololá	704	Santa Lucía Utatlán 	7	Santa Rita 	11	Noviembre	2023-11-29T00:00:00	2024-11-08T15:00:00	8	Radiación solar	554
131881	7	Sololá	704	Santa Lucía Utatlán 	7	Santa Rita 	11	Noviembre	2023-11-29T00:00:00	2024-11-08T16:00:00	2	Temperatura media	15.8
131882	7	Sololá	704	Santa Lucía Utatlán 	7	Santa Rita 	11	Noviembre	2023-11-29T00:00:00	2024-11-08T16:00:00	4	Temperatura máxima	15.9
131883	7	Sololá	704	Santa Lucía Utatlán 	7	Santa Rita 	11	Noviembre	2023-11-29T00:00:00	2024-11-08T16:00:00	3	Temperatura mínima	15.6
131884	7	Sololá	704	Santa Lucía Utatlán 	7	Santa Rita 	11	Noviembre	2023-11-29T00:00:00	2024-11-08T16:00:00	5	Humedad	84
131885	7	Sololá	704	Santa Lucía Utatlán 	7	Santa Rita 	11	Noviembre	2023-11-29T00:00:00	2024-11-08T16:00:00	6	Velocidad del viento	3.2
131886	7	Sololá	704	Santa Lucía Utatlán 	7	Santa Rita 	11	Noviembre	2023-11-29T00:00:00	2024-11-08T16:00:00	7	Dirección del viento	3.22
131887	7	Sololá	704	Santa Lucía Utatlán 	7	Santa Rita 	11	Noviembre	2023-11-29T00:00:00	2024-11-08T16:00:00	1	Precipitación	0
131888	7	Sololá	704	Santa Lucía Utatlán 	7	Santa Rita 	11	Noviembre	2023-11-29T00:00:00	2024-11-08T16:00:00	8	Radiación solar	302
131889	7	Sololá	704	Santa Lucía Utatlán 	7	Santa Rita 	11	Noviembre	2023-11-29T00:00:00	2024-11-08T17:00:00	2	Temperatura media	15.8
131890	7	Sololá	704	Santa Lucía Utatlán 	7	Santa Rita 	11	Noviembre	2023-11-29T00:00:00	2024-11-08T17:00:00	4	Temperatura máxima	15.8
131891	7	Sololá	704	Santa Lucía Utatlán 	7	Santa Rita 	11	Noviembre	2023-11-29T00:00:00	2024-11-08T17:00:00	3	Temperatura mínima	15.5
131892	7	Sololá	704	Santa Lucía Utatlán 	7	Santa Rita 	11	Noviembre	2023-11-29T00:00:00	2024-11-08T17:00:00	5	Humedad	83
131893	7	Sololá	704	Santa Lucía Utatlán 	7	Santa Rita 	11	Noviembre	2023-11-29T00:00:00	2024-11-08T17:00:00	6	Velocidad del viento	3.2
131894	7	Sololá	704	Santa Lucía Utatlán 	7	Santa Rita 	11	Noviembre	2023-11-29T00:00:00	2024-11-08T17:00:00	7	Dirección del viento	3.22
131895	7	Sololá	704	Santa Lucía Utatlán 	7	Santa Rita 	11	Noviembre	2023-11-29T00:00:00	2024-11-08T17:00:00	1	Precipitación	0
131896	7	Sololá	704	Santa Lucía Utatlán 	7	Santa Rita 	11	Noviembre	2023-11-29T00:00:00	2024-11-08T17:00:00	8	Radiación solar	98
131897	7	Sololá	704	Santa Lucía Utatlán 	7	Santa Rita 	11	Noviembre	2023-11-29T00:00:00	2024-11-08T18:00:00	2	Temperatura media	16.1
131898	7	Sololá	704	Santa Lucía Utatlán 	7	Santa Rita 	11	Noviembre	2023-11-29T00:00:00	2024-11-08T18:00:00	4	Temperatura máxima	16.1
131899	7	Sololá	704	Santa Lucía Utatlán 	7	Santa Rita 	11	Noviembre	2023-11-29T00:00:00	2024-11-08T18:00:00	3	Temperatura mínima	15.7
131900	7	Sololá	704	Santa Lucía Utatlán 	7	Santa Rita 	11	Noviembre	2023-11-29T00:00:00	2024-11-08T18:00:00	5	Humedad	81
131901	7	Sololá	704	Santa Lucía Utatlán 	7	Santa Rita 	11	Noviembre	2023-11-29T00:00:00	2024-11-08T18:00:00	6	Velocidad del viento	3.2
131902	7	Sololá	704	Santa Lucía Utatlán 	7	Santa Rita 	11	Noviembre	2023-11-29T00:00:00	2024-11-08T18:00:00	7	Dirección del viento	3.22
131903	7	Sololá	704	Santa Lucía Utatlán 	7	Santa Rita 	11	Noviembre	2023-11-29T00:00:00	2024-11-08T18:00:00	1	Precipitación	0
131904	7	Sololá	704	Santa Lucía Utatlán 	7	Santa Rita 	11	Noviembre	2023-11-29T00:00:00	2024-11-08T18:00:00	8	Radiación solar	4
131905	7	Sololá	704	Santa Lucía Utatlán 	7	Santa Rita 	11	Noviembre	2023-11-29T00:00:00	2024-11-08T19:00:00	2	Temperatura media	15.5
131906	7	Sololá	704	Santa Lucía Utatlán 	7	Santa Rita 	11	Noviembre	2023-11-29T00:00:00	2024-11-08T19:00:00	4	Temperatura máxima	16.1
131907	7	Sololá	704	Santa Lucía Utatlán 	7	Santa Rita 	11	Noviembre	2023-11-29T00:00:00	2024-11-08T19:00:00	3	Temperatura mínima	15.5
131908	7	Sololá	704	Santa Lucía Utatlán 	7	Santa Rita 	11	Noviembre	2023-11-29T00:00:00	2024-11-08T19:00:00	5	Humedad	84
131909	7	Sololá	704	Santa Lucía Utatlán 	7	Santa Rita 	11	Noviembre	2023-11-29T00:00:00	2024-11-08T19:00:00	6	Velocidad del viento	1.6
131910	7	Sololá	704	Santa Lucía Utatlán 	7	Santa Rita 	11	Noviembre	2023-11-29T00:00:00	2024-11-08T19:00:00	7	Dirección del viento	1.61
131911	7	Sololá	704	Santa Lucía Utatlán 	7	Santa Rita 	11	Noviembre	2023-11-29T00:00:00	2024-11-08T19:00:00	1	Precipitación	0
131912	7	Sololá	704	Santa Lucía Utatlán 	7	Santa Rita 	11	Noviembre	2023-11-29T00:00:00	2024-11-08T19:00:00	8	Radiación solar	0
131913	7	Sololá	704	Santa Lucía Utatlán 	7	Santa Rita 	11	Noviembre	2023-11-29T00:00:00	2024-11-08T20:00:00	2	Temperatura media	15.8
131914	7	Sololá	704	Santa Lucía Utatlán 	7	Santa Rita 	11	Noviembre	2023-11-29T00:00:00	2024-11-08T20:00:00	4	Temperatura máxima	16.4
131915	7	Sololá	704	Santa Lucía Utatlán 	7	Santa Rita 	11	Noviembre	2023-11-29T00:00:00	2024-11-08T20:00:00	3	Temperatura mínima	15.5
131916	7	Sololá	704	Santa Lucía Utatlán 	7	Santa Rita 	11	Noviembre	2023-11-29T00:00:00	2024-11-08T20:00:00	5	Humedad	84
131917	7	Sololá	704	Santa Lucía Utatlán 	7	Santa Rita 	11	Noviembre	2023-11-29T00:00:00	2024-11-08T20:00:00	6	Velocidad del viento	3.2
131918	7	Sololá	704	Santa Lucía Utatlán 	7	Santa Rita 	11	Noviembre	2023-11-29T00:00:00	2024-11-08T20:00:00	7	Dirección del viento	3.22
131919	7	Sololá	704	Santa Lucía Utatlán 	7	Santa Rita 	11	Noviembre	2023-11-29T00:00:00	2024-11-08T20:00:00	1	Precipitación	0
131920	7	Sololá	704	Santa Lucía Utatlán 	7	Santa Rita 	11	Noviembre	2023-11-29T00:00:00	2024-11-08T20:00:00	8	Radiación solar	0
131921	7	Sololá	704	Santa Lucía Utatlán 	7	Santa Rita 	11	Noviembre	2023-11-29T00:00:00	2024-11-08T21:00:00	2	Temperatura media	16
131922	7	Sololá	704	Santa Lucía Utatlán 	7	Santa Rita 	11	Noviembre	2023-11-29T00:00:00	2024-11-08T21:00:00	4	Temperatura máxima	16.2
131923	7	Sololá	704	Santa Lucía Utatlán 	7	Santa Rita 	11	Noviembre	2023-11-29T00:00:00	2024-11-08T21:00:00	3	Temperatura mínima	15.4
131924	7	Sololá	704	Santa Lucía Utatlán 	7	Santa Rita 	11	Noviembre	2023-11-29T00:00:00	2024-11-08T21:00:00	5	Humedad	87
131925	7	Sololá	704	Santa Lucía Utatlán 	7	Santa Rita 	11	Noviembre	2023-11-29T00:00:00	2024-11-08T21:00:00	6	Velocidad del viento	3.2
131926	7	Sololá	704	Santa Lucía Utatlán 	7	Santa Rita 	11	Noviembre	2023-11-29T00:00:00	2024-11-08T21:00:00	7	Dirección del viento	3.22
131927	7	Sololá	704	Santa Lucía Utatlán 	7	Santa Rita 	11	Noviembre	2023-11-29T00:00:00	2024-11-08T21:00:00	1	Precipitación	0
131928	7	Sololá	704	Santa Lucía Utatlán 	7	Santa Rita 	11	Noviembre	2023-11-29T00:00:00	2024-11-08T21:00:00	8	Radiación solar	0
131929	7	Sololá	704	Santa Lucía Utatlán 	7	Santa Rita 	11	Noviembre	2023-11-29T00:00:00	2024-11-08T22:00:00	2	Temperatura media	16.3
131930	7	Sololá	704	Santa Lucía Utatlán 	7	Santa Rita 	11	Noviembre	2023-11-29T00:00:00	2024-11-08T22:00:00	4	Temperatura máxima	16.3
131931	7	Sololá	704	Santa Lucía Utatlán 	7	Santa Rita 	11	Noviembre	2023-11-29T00:00:00	2024-11-08T22:00:00	3	Temperatura mínima	15.8
131932	7	Sololá	704	Santa Lucía Utatlán 	7	Santa Rita 	11	Noviembre	2023-11-29T00:00:00	2024-11-08T22:00:00	5	Humedad	86
131933	7	Sololá	704	Santa Lucía Utatlán 	7	Santa Rita 	11	Noviembre	2023-11-29T00:00:00	2024-11-08T22:00:00	6	Velocidad del viento	3.2
131934	7	Sololá	704	Santa Lucía Utatlán 	7	Santa Rita 	11	Noviembre	2023-11-29T00:00:00	2024-11-08T22:00:00	7	Dirección del viento	3.22
131935	7	Sololá	704	Santa Lucía Utatlán 	7	Santa Rita 	11	Noviembre	2023-11-29T00:00:00	2024-11-08T22:00:00	1	Precipitación	0
131936	7	Sololá	704	Santa Lucía Utatlán 	7	Santa Rita 	11	Noviembre	2023-11-29T00:00:00	2024-11-08T22:00:00	8	Radiación solar	0
131937	7	Sololá	704	Santa Lucía Utatlán 	7	Santa Rita 	11	Noviembre	2023-11-29T00:00:00	2024-11-08T23:00:00	2	Temperatura media	17.4
131938	7	Sololá	704	Santa Lucía Utatlán 	7	Santa Rita 	11	Noviembre	2023-11-29T00:00:00	2024-11-08T23:00:00	4	Temperatura máxima	17.4
131939	7	Sololá	704	Santa Lucía Utatlán 	7	Santa Rita 	11	Noviembre	2023-11-29T00:00:00	2024-11-08T23:00:00	3	Temperatura mínima	16
131940	7	Sololá	704	Santa Lucía Utatlán 	7	Santa Rita 	11	Noviembre	2023-11-29T00:00:00	2024-11-08T23:00:00	5	Humedad	79
131941	7	Sololá	704	Santa Lucía Utatlán 	7	Santa Rita 	11	Noviembre	2023-11-29T00:00:00	2024-11-08T23:00:00	6	Velocidad del viento	4.8
131942	7	Sololá	704	Santa Lucía Utatlán 	7	Santa Rita 	11	Noviembre	2023-11-29T00:00:00	2024-11-08T23:00:00	7	Dirección del viento	4.83
131943	7	Sololá	704	Santa Lucía Utatlán 	7	Santa Rita 	11	Noviembre	2023-11-29T00:00:00	2024-11-08T23:00:00	1	Precipitación	0
131944	7	Sololá	704	Santa Lucía Utatlán 	7	Santa Rita 	11	Noviembre	2023-11-29T00:00:00	2024-11-08T23:00:00	8	Radiación solar	0
131945	7	Sololá	704	Santa Lucía Utatlán 	7	Santa Rita 	11	Noviembre	2023-11-30T00:00:00	2024-11-08T00:00:00	2	Temperatura media	16.9
131946	7	Sololá	704	Santa Lucía Utatlán 	7	Santa Rita 	11	Noviembre	2023-11-30T00:00:00	2024-11-08T00:00:00	4	Temperatura máxima	18.9
131947	7	Sololá	704	Santa Lucía Utatlán 	7	Santa Rita 	11	Noviembre	2023-11-30T00:00:00	2024-11-08T00:00:00	3	Temperatura mínima	16.8
131948	7	Sololá	704	Santa Lucía Utatlán 	7	Santa Rita 	11	Noviembre	2023-11-30T00:00:00	2024-11-08T00:00:00	5	Humedad	83
131949	7	Sololá	704	Santa Lucía Utatlán 	7	Santa Rita 	11	Noviembre	2023-11-30T00:00:00	2024-11-08T00:00:00	6	Velocidad del viento	6.4
131950	7	Sololá	704	Santa Lucía Utatlán 	7	Santa Rita 	11	Noviembre	2023-11-30T00:00:00	2024-11-08T00:00:00	7	Dirección del viento	6.44
131951	7	Sololá	704	Santa Lucía Utatlán 	7	Santa Rita 	11	Noviembre	2023-11-30T00:00:00	2024-11-08T00:00:00	1	Precipitación	0
131952	7	Sololá	704	Santa Lucía Utatlán 	7	Santa Rita 	11	Noviembre	2023-11-30T00:00:00	2024-11-08T00:00:00	8	Radiación solar	0
131953	7	Sololá	704	Santa Lucía Utatlán 	7	Santa Rita 	11	Noviembre	2023-11-30T00:00:00	2024-11-08T01:00:00	2	Temperatura media	19
131954	7	Sololá	704	Santa Lucía Utatlán 	7	Santa Rita 	11	Noviembre	2023-11-30T00:00:00	2024-11-08T01:00:00	4	Temperatura máxima	19
131955	7	Sololá	704	Santa Lucía Utatlán 	7	Santa Rita 	11	Noviembre	2023-11-30T00:00:00	2024-11-08T01:00:00	3	Temperatura mínima	16.8
131956	7	Sololá	704	Santa Lucía Utatlán 	7	Santa Rita 	11	Noviembre	2023-11-30T00:00:00	2024-11-08T01:00:00	5	Humedad	80
131957	7	Sololá	704	Santa Lucía Utatlán 	7	Santa Rita 	11	Noviembre	2023-11-30T00:00:00	2024-11-08T01:00:00	6	Velocidad del viento	1.6
131958	7	Sololá	704	Santa Lucía Utatlán 	7	Santa Rita 	11	Noviembre	2023-11-30T00:00:00	2024-11-08T01:00:00	7	Dirección del viento	1.61
131959	7	Sololá	704	Santa Lucía Utatlán 	7	Santa Rita 	11	Noviembre	2023-11-30T00:00:00	2024-11-08T01:00:00	1	Precipitación	0
131960	7	Sololá	704	Santa Lucía Utatlán 	7	Santa Rita 	11	Noviembre	2023-11-30T00:00:00	2024-11-08T01:00:00	8	Radiación solar	0
131961	7	Sololá	704	Santa Lucía Utatlán 	7	Santa Rita 	11	Noviembre	2023-11-30T00:00:00	2024-11-08T02:00:00	2	Temperatura media	21.8
131962	7	Sololá	704	Santa Lucía Utatlán 	7	Santa Rita 	11	Noviembre	2023-11-30T00:00:00	2024-11-08T02:00:00	4	Temperatura máxima	21.8
131963	7	Sololá	704	Santa Lucía Utatlán 	7	Santa Rita 	11	Noviembre	2023-11-30T00:00:00	2024-11-08T02:00:00	3	Temperatura mínima	19
131964	7	Sololá	704	Santa Lucía Utatlán 	7	Santa Rita 	11	Noviembre	2023-11-30T00:00:00	2024-11-08T02:00:00	5	Humedad	71
131965	7	Sololá	704	Santa Lucía Utatlán 	7	Santa Rita 	11	Noviembre	2023-11-30T00:00:00	2024-11-08T02:00:00	6	Velocidad del viento	1.6
131966	7	Sololá	704	Santa Lucía Utatlán 	7	Santa Rita 	11	Noviembre	2023-11-30T00:00:00	2024-11-08T02:00:00	7	Dirección del viento	1.61
131967	7	Sololá	704	Santa Lucía Utatlán 	7	Santa Rita 	11	Noviembre	2023-11-30T00:00:00	2024-11-08T02:00:00	1	Precipitación	0
131968	7	Sololá	704	Santa Lucía Utatlán 	7	Santa Rita 	11	Noviembre	2023-11-30T00:00:00	2024-11-08T02:00:00	8	Radiación solar	0
131969	7	Sololá	704	Santa Lucía Utatlán 	7	Santa Rita 	11	Noviembre	2023-11-30T00:00:00	2024-11-08T03:00:00	2	Temperatura media	22.6
131970	7	Sololá	704	Santa Lucía Utatlán 	7	Santa Rita 	11	Noviembre	2023-11-30T00:00:00	2024-11-08T03:00:00	4	Temperatura máxima	22.7
131971	7	Sololá	704	Santa Lucía Utatlán 	7	Santa Rita 	11	Noviembre	2023-11-30T00:00:00	2024-11-08T03:00:00	3	Temperatura mínima	21.8
131972	7	Sololá	704	Santa Lucía Utatlán 	7	Santa Rita 	11	Noviembre	2023-11-30T00:00:00	2024-11-08T03:00:00	5	Humedad	66
131973	7	Sololá	704	Santa Lucía Utatlán 	7	Santa Rita 	11	Noviembre	2023-11-30T00:00:00	2024-11-08T03:00:00	6	Velocidad del viento	6.4
131974	7	Sololá	704	Santa Lucía Utatlán 	7	Santa Rita 	11	Noviembre	2023-11-30T00:00:00	2024-11-08T03:00:00	7	Dirección del viento	6.44
131975	7	Sololá	704	Santa Lucía Utatlán 	7	Santa Rita 	11	Noviembre	2023-11-30T00:00:00	2024-11-08T03:00:00	1	Precipitación	0
131976	7	Sololá	704	Santa Lucía Utatlán 	7	Santa Rita 	11	Noviembre	2023-11-30T00:00:00	2024-11-08T03:00:00	8	Radiación solar	0
131977	7	Sololá	704	Santa Lucía Utatlán 	7	Santa Rita 	11	Noviembre	2023-11-30T00:00:00	2024-11-08T04:00:00	2	Temperatura media	23.2
131978	7	Sololá	704	Santa Lucía Utatlán 	7	Santa Rita 	11	Noviembre	2023-11-30T00:00:00	2024-11-08T04:00:00	4	Temperatura máxima	23.4
131979	7	Sololá	704	Santa Lucía Utatlán 	7	Santa Rita 	11	Noviembre	2023-11-30T00:00:00	2024-11-08T04:00:00	3	Temperatura mínima	22.5
131980	7	Sololá	704	Santa Lucía Utatlán 	7	Santa Rita 	11	Noviembre	2023-11-30T00:00:00	2024-11-08T04:00:00	5	Humedad	64
131981	7	Sololá	704	Santa Lucía Utatlán 	7	Santa Rita 	11	Noviembre	2023-11-30T00:00:00	2024-11-08T04:00:00	6	Velocidad del viento	8
131982	7	Sololá	704	Santa Lucía Utatlán 	7	Santa Rita 	11	Noviembre	2023-11-30T00:00:00	2024-11-08T04:00:00	7	Dirección del viento	8.05
131983	7	Sololá	704	Santa Lucía Utatlán 	7	Santa Rita 	11	Noviembre	2023-11-30T00:00:00	2024-11-08T04:00:00	1	Precipitación	0
131984	7	Sololá	704	Santa Lucía Utatlán 	7	Santa Rita 	11	Noviembre	2023-11-30T00:00:00	2024-11-08T04:00:00	8	Radiación solar	0
131985	7	Sololá	704	Santa Lucía Utatlán 	7	Santa Rita 	11	Noviembre	2023-11-30T00:00:00	2024-11-08T05:00:00	2	Temperatura media	24.4
131986	7	Sololá	704	Santa Lucía Utatlán 	7	Santa Rita 	11	Noviembre	2023-11-30T00:00:00	2024-11-08T05:00:00	4	Temperatura máxima	24.7
131987	7	Sololá	704	Santa Lucía Utatlán 	7	Santa Rita 	11	Noviembre	2023-11-30T00:00:00	2024-11-08T05:00:00	3	Temperatura mínima	23.2
131988	7	Sololá	704	Santa Lucía Utatlán 	7	Santa Rita 	11	Noviembre	2023-11-30T00:00:00	2024-11-08T05:00:00	5	Humedad	60
131989	7	Sololá	704	Santa Lucía Utatlán 	7	Santa Rita 	11	Noviembre	2023-11-30T00:00:00	2024-11-08T05:00:00	6	Velocidad del viento	8
131990	7	Sololá	704	Santa Lucía Utatlán 	7	Santa Rita 	11	Noviembre	2023-11-30T00:00:00	2024-11-08T05:00:00	7	Dirección del viento	8.05
131991	7	Sololá	704	Santa Lucía Utatlán 	7	Santa Rita 	11	Noviembre	2023-11-30T00:00:00	2024-11-08T05:00:00	1	Precipitación	0
131992	7	Sololá	704	Santa Lucía Utatlán 	7	Santa Rita 	11	Noviembre	2023-11-30T00:00:00	2024-11-08T05:00:00	8	Radiación solar	0
131993	7	Sololá	704	Santa Lucía Utatlán 	7	Santa Rita 	11	Noviembre	2023-11-30T00:00:00	2024-11-08T06:00:00	2	Temperatura media	25.5
131994	7	Sololá	704	Santa Lucía Utatlán 	7	Santa Rita 	11	Noviembre	2023-11-30T00:00:00	2024-11-08T06:00:00	4	Temperatura máxima	25.5
131995	7	Sololá	704	Santa Lucía Utatlán 	7	Santa Rita 	11	Noviembre	2023-11-30T00:00:00	2024-11-08T06:00:00	3	Temperatura mínima	24
131996	7	Sololá	704	Santa Lucía Utatlán 	7	Santa Rita 	11	Noviembre	2023-11-30T00:00:00	2024-11-08T06:00:00	5	Humedad	63
131997	7	Sololá	704	Santa Lucía Utatlán 	7	Santa Rita 	11	Noviembre	2023-11-30T00:00:00	2024-11-08T06:00:00	6	Velocidad del viento	8
131998	7	Sololá	704	Santa Lucía Utatlán 	7	Santa Rita 	11	Noviembre	2023-11-30T00:00:00	2024-11-08T06:00:00	7	Dirección del viento	8.05
131999	7	Sololá	704	Santa Lucía Utatlán 	7	Santa Rita 	11	Noviembre	2023-11-30T00:00:00	2024-11-08T06:00:00	1	Precipitación	0
132000	7	Sololá	704	Santa Lucía Utatlán 	7	Santa Rita 	11	Noviembre	2023-11-30T00:00:00	2024-11-08T06:00:00	8	Radiación solar	0
132001	7	Sololá	704	Santa Lucía Utatlán 	7	Santa Rita 	11	Noviembre	2023-11-30T00:00:00	2024-11-08T07:00:00	2	Temperatura media	24.2
132002	7	Sololá	704	Santa Lucía Utatlán 	7	Santa Rita 	11	Noviembre	2023-11-30T00:00:00	2024-11-08T07:00:00	4	Temperatura máxima	25.5
132003	7	Sololá	704	Santa Lucía Utatlán 	7	Santa Rita 	11	Noviembre	2023-11-30T00:00:00	2024-11-08T07:00:00	3	Temperatura mínima	24.2
132004	7	Sololá	704	Santa Lucía Utatlán 	7	Santa Rita 	11	Noviembre	2023-11-30T00:00:00	2024-11-08T07:00:00	5	Humedad	65
132005	7	Sololá	704	Santa Lucía Utatlán 	7	Santa Rita 	11	Noviembre	2023-11-30T00:00:00	2024-11-08T07:00:00	6	Velocidad del viento	8
132006	7	Sololá	704	Santa Lucía Utatlán 	7	Santa Rita 	11	Noviembre	2023-11-30T00:00:00	2024-11-08T07:00:00	7	Dirección del viento	8.05
132007	7	Sololá	704	Santa Lucía Utatlán 	7	Santa Rita 	11	Noviembre	2023-11-30T00:00:00	2024-11-08T07:00:00	1	Precipitación	0
132008	7	Sololá	704	Santa Lucía Utatlán 	7	Santa Rita 	11	Noviembre	2023-11-30T00:00:00	2024-11-08T07:00:00	8	Radiación solar	45
132009	7	Sololá	704	Santa Lucía Utatlán 	7	Santa Rita 	11	Noviembre	2023-11-30T00:00:00	2024-11-08T08:00:00	2	Temperatura media	24.1
132010	7	Sololá	704	Santa Lucía Utatlán 	7	Santa Rita 	11	Noviembre	2023-11-30T00:00:00	2024-11-08T08:00:00	4	Temperatura máxima	24.6
132011	7	Sololá	704	Santa Lucía Utatlán 	7	Santa Rita 	11	Noviembre	2023-11-30T00:00:00	2024-11-08T08:00:00	3	Temperatura mínima	23.6
132012	7	Sololá	704	Santa Lucía Utatlán 	7	Santa Rita 	11	Noviembre	2023-11-30T00:00:00	2024-11-08T08:00:00	5	Humedad	68
132013	7	Sololá	704	Santa Lucía Utatlán 	7	Santa Rita 	11	Noviembre	2023-11-30T00:00:00	2024-11-08T08:00:00	6	Velocidad del viento	8
132014	7	Sololá	704	Santa Lucía Utatlán 	7	Santa Rita 	11	Noviembre	2023-11-30T00:00:00	2024-11-08T08:00:00	7	Dirección del viento	8.05
132015	7	Sololá	704	Santa Lucía Utatlán 	7	Santa Rita 	11	Noviembre	2023-11-30T00:00:00	2024-11-08T08:00:00	1	Precipitación	0
132016	7	Sololá	704	Santa Lucía Utatlán 	7	Santa Rita 	11	Noviembre	2023-11-30T00:00:00	2024-11-08T08:00:00	8	Radiación solar	267
132017	7	Sololá	704	Santa Lucía Utatlán 	7	Santa Rita 	11	Noviembre	2023-11-30T00:00:00	2024-11-08T09:00:00	2	Temperatura media	23.6
132018	7	Sololá	704	Santa Lucía Utatlán 	7	Santa Rita 	11	Noviembre	2023-11-30T00:00:00	2024-11-08T09:00:00	4	Temperatura máxima	24.7
132019	7	Sololá	704	Santa Lucía Utatlán 	7	Santa Rita 	11	Noviembre	2023-11-30T00:00:00	2024-11-08T09:00:00	3	Temperatura mínima	23.3
132020	7	Sololá	704	Santa Lucía Utatlán 	7	Santa Rita 	11	Noviembre	2023-11-30T00:00:00	2024-11-08T09:00:00	5	Humedad	74
132021	7	Sololá	704	Santa Lucía Utatlán 	7	Santa Rita 	11	Noviembre	2023-11-30T00:00:00	2024-11-08T09:00:00	6	Velocidad del viento	8
132022	7	Sololá	704	Santa Lucía Utatlán 	7	Santa Rita 	11	Noviembre	2023-11-30T00:00:00	2024-11-08T09:00:00	7	Dirección del viento	8.05
132023	7	Sololá	704	Santa Lucía Utatlán 	7	Santa Rita 	11	Noviembre	2023-11-30T00:00:00	2024-11-08T09:00:00	1	Precipitación	0
132024	7	Sololá	704	Santa Lucía Utatlán 	7	Santa Rita 	11	Noviembre	2023-11-30T00:00:00	2024-11-08T09:00:00	8	Radiación solar	469
132025	7	Sololá	704	Santa Lucía Utatlán 	7	Santa Rita 	11	Noviembre	2023-11-30T00:00:00	2024-11-08T10:00:00	2	Temperatura media	22.6
132026	7	Sololá	704	Santa Lucía Utatlán 	7	Santa Rita 	11	Noviembre	2023-11-30T00:00:00	2024-11-08T10:00:00	4	Temperatura máxima	23.7
132027	7	Sololá	704	Santa Lucía Utatlán 	7	Santa Rita 	11	Noviembre	2023-11-30T00:00:00	2024-11-08T10:00:00	3	Temperatura mínima	22.6
132028	7	Sololá	704	Santa Lucía Utatlán 	7	Santa Rita 	11	Noviembre	2023-11-30T00:00:00	2024-11-08T10:00:00	5	Humedad	72
132029	7	Sololá	704	Santa Lucía Utatlán 	7	Santa Rita 	11	Noviembre	2023-11-30T00:00:00	2024-11-08T10:00:00	6	Velocidad del viento	8
132030	7	Sololá	704	Santa Lucía Utatlán 	7	Santa Rita 	11	Noviembre	2023-11-30T00:00:00	2024-11-08T10:00:00	7	Dirección del viento	8.05
132031	7	Sololá	704	Santa Lucía Utatlán 	7	Santa Rita 	11	Noviembre	2023-11-30T00:00:00	2024-11-08T10:00:00	1	Precipitación	0
132032	7	Sololá	704	Santa Lucía Utatlán 	7	Santa Rita 	11	Noviembre	2023-11-30T00:00:00	2024-11-08T10:00:00	8	Radiación solar	637
132033	7	Sololá	704	Santa Lucía Utatlán 	7	Santa Rita 	11	Noviembre	2023-11-30T00:00:00	2024-11-08T11:00:00	2	Temperatura media	21.3
132034	7	Sololá	704	Santa Lucía Utatlán 	7	Santa Rita 	11	Noviembre	2023-11-30T00:00:00	2024-11-08T11:00:00	4	Temperatura máxima	22.7
132035	7	Sololá	704	Santa Lucía Utatlán 	7	Santa Rita 	11	Noviembre	2023-11-30T00:00:00	2024-11-08T11:00:00	3	Temperatura mínima	21.3
132036	7	Sololá	704	Santa Lucía Utatlán 	7	Santa Rita 	11	Noviembre	2023-11-30T00:00:00	2024-11-08T11:00:00	5	Humedad	81
132037	7	Sololá	704	Santa Lucía Utatlán 	7	Santa Rita 	11	Noviembre	2023-11-30T00:00:00	2024-11-08T11:00:00	6	Velocidad del viento	3.2
132038	7	Sololá	704	Santa Lucía Utatlán 	7	Santa Rita 	11	Noviembre	2023-11-30T00:00:00	2024-11-08T11:00:00	7	Dirección del viento	3.22
132039	7	Sololá	704	Santa Lucía Utatlán 	7	Santa Rita 	11	Noviembre	2023-11-30T00:00:00	2024-11-08T11:00:00	1	Precipitación	0
132040	7	Sololá	704	Santa Lucía Utatlán 	7	Santa Rita 	11	Noviembre	2023-11-30T00:00:00	2024-11-08T11:00:00	8	Radiación solar	764
132041	7	Sololá	704	Santa Lucía Utatlán 	7	Santa Rita 	11	Noviembre	2023-11-30T00:00:00	2024-11-08T12:00:00	2	Temperatura media	19.4
132042	7	Sololá	704	Santa Lucía Utatlán 	7	Santa Rita 	11	Noviembre	2023-11-30T00:00:00	2024-11-08T12:00:00	4	Temperatura máxima	21.3
132043	7	Sololá	704	Santa Lucía Utatlán 	7	Santa Rita 	11	Noviembre	2023-11-30T00:00:00	2024-11-08T12:00:00	3	Temperatura mínima	19.4
132044	7	Sololá	704	Santa Lucía Utatlán 	7	Santa Rita 	11	Noviembre	2023-11-30T00:00:00	2024-11-08T12:00:00	5	Humedad	88
132045	7	Sololá	704	Santa Lucía Utatlán 	7	Santa Rita 	11	Noviembre	2023-11-30T00:00:00	2024-11-08T12:00:00	6	Velocidad del viento	1.6
132046	7	Sololá	704	Santa Lucía Utatlán 	7	Santa Rita 	11	Noviembre	2023-11-30T00:00:00	2024-11-08T12:00:00	7	Dirección del viento	1.61
132047	7	Sololá	704	Santa Lucía Utatlán 	7	Santa Rita 	11	Noviembre	2023-11-30T00:00:00	2024-11-08T12:00:00	1	Precipitación	0
132048	7	Sololá	704	Santa Lucía Utatlán 	7	Santa Rita 	11	Noviembre	2023-11-30T00:00:00	2024-11-08T12:00:00	8	Radiación solar	636
132049	7	Sololá	704	Santa Lucía Utatlán 	7	Santa Rita 	11	Noviembre	2023-11-30T00:00:00	2024-11-08T13:00:00	2	Temperatura media	18.3
132050	7	Sololá	704	Santa Lucía Utatlán 	7	Santa Rita 	11	Noviembre	2023-11-30T00:00:00	2024-11-08T13:00:00	4	Temperatura máxima	19.4
132051	7	Sololá	704	Santa Lucía Utatlán 	7	Santa Rita 	11	Noviembre	2023-11-30T00:00:00	2024-11-08T13:00:00	3	Temperatura mínima	18.3
132052	7	Sololá	704	Santa Lucía Utatlán 	7	Santa Rita 	11	Noviembre	2023-11-30T00:00:00	2024-11-08T13:00:00	5	Humedad	90
132053	7	Sololá	704	Santa Lucía Utatlán 	7	Santa Rita 	11	Noviembre	2023-11-30T00:00:00	2024-11-08T13:00:00	6	Velocidad del viento	3.2
132054	7	Sololá	704	Santa Lucía Utatlán 	7	Santa Rita 	11	Noviembre	2023-11-30T00:00:00	2024-11-08T13:00:00	7	Dirección del viento	3.22
132055	7	Sololá	704	Santa Lucía Utatlán 	7	Santa Rita 	11	Noviembre	2023-11-30T00:00:00	2024-11-08T13:00:00	1	Precipitación	0
132056	7	Sololá	704	Santa Lucía Utatlán 	7	Santa Rita 	11	Noviembre	2023-11-30T00:00:00	2024-11-08T13:00:00	8	Radiación solar	729
132057	7	Sololá	704	Santa Lucía Utatlán 	7	Santa Rita 	11	Noviembre	2023-11-30T00:00:00	2024-11-08T14:00:00	2	Temperatura media	17.8
132058	7	Sololá	704	Santa Lucía Utatlán 	7	Santa Rita 	11	Noviembre	2023-11-30T00:00:00	2024-11-08T14:00:00	4	Temperatura máxima	18.3
132059	7	Sololá	704	Santa Lucía Utatlán 	7	Santa Rita 	11	Noviembre	2023-11-30T00:00:00	2024-11-08T14:00:00	3	Temperatura mínima	17.7
132060	7	Sololá	704	Santa Lucía Utatlán 	7	Santa Rita 	11	Noviembre	2023-11-30T00:00:00	2024-11-08T14:00:00	5	Humedad	91
132061	7	Sololá	704	Santa Lucía Utatlán 	7	Santa Rita 	11	Noviembre	2023-11-30T00:00:00	2024-11-08T14:00:00	6	Velocidad del viento	3.2
132062	7	Sololá	704	Santa Lucía Utatlán 	7	Santa Rita 	11	Noviembre	2023-11-30T00:00:00	2024-11-08T14:00:00	7	Dirección del viento	3.22
132063	7	Sololá	704	Santa Lucía Utatlán 	7	Santa Rita 	11	Noviembre	2023-11-30T00:00:00	2024-11-08T14:00:00	1	Precipitación	0
132064	7	Sololá	704	Santa Lucía Utatlán 	7	Santa Rita 	11	Noviembre	2023-11-30T00:00:00	2024-11-08T14:00:00	8	Radiación solar	549
132065	7	Sololá	704	Santa Lucía Utatlán 	7	Santa Rita 	11	Noviembre	2023-11-30T00:00:00	2024-11-08T15:00:00	2	Temperatura media	17.2
132066	7	Sololá	704	Santa Lucía Utatlán 	7	Santa Rita 	11	Noviembre	2023-11-30T00:00:00	2024-11-08T15:00:00	4	Temperatura máxima	17.8
132067	7	Sololá	704	Santa Lucía Utatlán 	7	Santa Rita 	11	Noviembre	2023-11-30T00:00:00	2024-11-08T15:00:00	3	Temperatura mínima	17.1
132068	7	Sololá	704	Santa Lucía Utatlán 	7	Santa Rita 	11	Noviembre	2023-11-30T00:00:00	2024-11-08T15:00:00	5	Humedad	91
132069	7	Sololá	704	Santa Lucía Utatlán 	7	Santa Rita 	11	Noviembre	2023-11-30T00:00:00	2024-11-08T15:00:00	6	Velocidad del viento	3.2
132070	7	Sololá	704	Santa Lucía Utatlán 	7	Santa Rita 	11	Noviembre	2023-11-30T00:00:00	2024-11-08T15:00:00	7	Dirección del viento	3.22
132071	7	Sololá	704	Santa Lucía Utatlán 	7	Santa Rita 	11	Noviembre	2023-11-30T00:00:00	2024-11-08T15:00:00	1	Precipitación	0
132072	7	Sololá	704	Santa Lucía Utatlán 	7	Santa Rita 	11	Noviembre	2023-11-30T00:00:00	2024-11-08T15:00:00	8	Radiación solar	572
132073	7	Sololá	704	Santa Lucía Utatlán 	7	Santa Rita 	11	Noviembre	2023-11-30T00:00:00	2024-11-08T16:00:00	2	Temperatura media	17.2
132074	7	Sololá	704	Santa Lucía Utatlán 	7	Santa Rita 	11	Noviembre	2023-11-30T00:00:00	2024-11-08T16:00:00	4	Temperatura máxima	17.5
132075	7	Sololá	704	Santa Lucía Utatlán 	7	Santa Rita 	11	Noviembre	2023-11-30T00:00:00	2024-11-08T16:00:00	3	Temperatura mínima	17.1
132076	7	Sololá	704	Santa Lucía Utatlán 	7	Santa Rita 	11	Noviembre	2023-11-30T00:00:00	2024-11-08T16:00:00	5	Humedad	89
132077	7	Sololá	704	Santa Lucía Utatlán 	7	Santa Rita 	11	Noviembre	2023-11-30T00:00:00	2024-11-08T16:00:00	6	Velocidad del viento	3.2
132078	7	Sololá	704	Santa Lucía Utatlán 	7	Santa Rita 	11	Noviembre	2023-11-30T00:00:00	2024-11-08T16:00:00	7	Dirección del viento	3.22
132079	7	Sololá	704	Santa Lucía Utatlán 	7	Santa Rita 	11	Noviembre	2023-11-30T00:00:00	2024-11-08T16:00:00	1	Precipitación	0
132080	7	Sololá	704	Santa Lucía Utatlán 	7	Santa Rita 	11	Noviembre	2023-11-30T00:00:00	2024-11-08T16:00:00	8	Radiación solar	380
132081	7	Sololá	704	Santa Lucía Utatlán 	7	Santa Rita 	11	Noviembre	2023-11-30T00:00:00	2024-11-08T17:00:00	2	Temperatura media	16.8
132082	7	Sololá	704	Santa Lucía Utatlán 	7	Santa Rita 	11	Noviembre	2023-11-30T00:00:00	2024-11-08T17:00:00	4	Temperatura máxima	17.2
132083	7	Sololá	704	Santa Lucía Utatlán 	7	Santa Rita 	11	Noviembre	2023-11-30T00:00:00	2024-11-08T17:00:00	3	Temperatura mínima	16.8
132084	7	Sololá	704	Santa Lucía Utatlán 	7	Santa Rita 	11	Noviembre	2023-11-30T00:00:00	2024-11-08T17:00:00	5	Humedad	88
132085	7	Sololá	704	Santa Lucía Utatlán 	7	Santa Rita 	11	Noviembre	2023-11-30T00:00:00	2024-11-08T17:00:00	6	Velocidad del viento	4.8
132086	7	Sololá	704	Santa Lucía Utatlán 	7	Santa Rita 	11	Noviembre	2023-11-30T00:00:00	2024-11-08T17:00:00	7	Dirección del viento	4.83
132087	7	Sololá	704	Santa Lucía Utatlán 	7	Santa Rita 	11	Noviembre	2023-11-30T00:00:00	2024-11-08T17:00:00	1	Precipitación	0
132088	7	Sololá	704	Santa Lucía Utatlán 	7	Santa Rita 	11	Noviembre	2023-11-30T00:00:00	2024-11-08T17:00:00	8	Radiación solar	77
132089	7	Sololá	704	Santa Lucía Utatlán 	7	Santa Rita 	11	Noviembre	2023-11-30T00:00:00	2024-11-08T18:00:00	2	Temperatura media	16.3
132090	7	Sololá	704	Santa Lucía Utatlán 	7	Santa Rita 	11	Noviembre	2023-11-30T00:00:00	2024-11-08T18:00:00	4	Temperatura máxima	16.8
132091	7	Sololá	704	Santa Lucía Utatlán 	7	Santa Rita 	11	Noviembre	2023-11-30T00:00:00	2024-11-08T18:00:00	3	Temperatura mínima	16.3
132092	7	Sololá	704	Santa Lucía Utatlán 	7	Santa Rita 	11	Noviembre	2023-11-30T00:00:00	2024-11-08T18:00:00	5	Humedad	79
132093	7	Sololá	704	Santa Lucía Utatlán 	7	Santa Rita 	11	Noviembre	2023-11-30T00:00:00	2024-11-08T18:00:00	6	Velocidad del viento	4.8
132094	7	Sololá	704	Santa Lucía Utatlán 	7	Santa Rita 	11	Noviembre	2023-11-30T00:00:00	2024-11-08T18:00:00	7	Dirección del viento	4.83
132095	7	Sololá	704	Santa Lucía Utatlán 	7	Santa Rita 	11	Noviembre	2023-11-30T00:00:00	2024-11-08T18:00:00	1	Precipitación	0
132096	7	Sololá	704	Santa Lucía Utatlán 	7	Santa Rita 	11	Noviembre	2023-11-30T00:00:00	2024-11-08T18:00:00	8	Radiación solar	5
132097	7	Sololá	704	Santa Lucía Utatlán 	7	Santa Rita 	11	Noviembre	2023-11-30T00:00:00	2024-11-08T19:00:00	2	Temperatura media	16.2
132098	7	Sololá	704	Santa Lucía Utatlán 	7	Santa Rita 	11	Noviembre	2023-11-30T00:00:00	2024-11-08T19:00:00	4	Temperatura máxima	16.3
132099	7	Sololá	704	Santa Lucía Utatlán 	7	Santa Rita 	11	Noviembre	2023-11-30T00:00:00	2024-11-08T19:00:00	3	Temperatura mínima	15.7
132100	7	Sololá	704	Santa Lucía Utatlán 	7	Santa Rita 	11	Noviembre	2023-11-30T00:00:00	2024-11-08T19:00:00	5	Humedad	82
132101	7	Sololá	704	Santa Lucía Utatlán 	7	Santa Rita 	11	Noviembre	2023-11-30T00:00:00	2024-11-08T19:00:00	6	Velocidad del viento	6.4
132102	7	Sololá	704	Santa Lucía Utatlán 	7	Santa Rita 	11	Noviembre	2023-11-30T00:00:00	2024-11-08T19:00:00	7	Dirección del viento	6.44
132103	7	Sololá	704	Santa Lucía Utatlán 	7	Santa Rita 	11	Noviembre	2023-11-30T00:00:00	2024-11-08T19:00:00	1	Precipitación	0
132104	7	Sololá	704	Santa Lucía Utatlán 	7	Santa Rita 	11	Noviembre	2023-11-30T00:00:00	2024-11-08T19:00:00	8	Radiación solar	0
132105	7	Sololá	704	Santa Lucía Utatlán 	7	Santa Rita 	11	Noviembre	2023-11-30T00:00:00	2024-11-08T20:00:00	2	Temperatura media	15.7
132106	7	Sololá	704	Santa Lucía Utatlán 	7	Santa Rita 	11	Noviembre	2023-11-30T00:00:00	2024-11-08T20:00:00	4	Temperatura máxima	16.3
132107	7	Sololá	704	Santa Lucía Utatlán 	7	Santa Rita 	11	Noviembre	2023-11-30T00:00:00	2024-11-08T20:00:00	3	Temperatura mínima	15.7
132108	7	Sololá	704	Santa Lucía Utatlán 	7	Santa Rita 	11	Noviembre	2023-11-30T00:00:00	2024-11-08T20:00:00	5	Humedad	73
132109	7	Sololá	704	Santa Lucía Utatlán 	7	Santa Rita 	11	Noviembre	2023-11-30T00:00:00	2024-11-08T20:00:00	6	Velocidad del viento	6.4
132110	7	Sololá	704	Santa Lucía Utatlán 	7	Santa Rita 	11	Noviembre	2023-11-30T00:00:00	2024-11-08T20:00:00	7	Dirección del viento	6.44
132111	7	Sololá	704	Santa Lucía Utatlán 	7	Santa Rita 	11	Noviembre	2023-11-30T00:00:00	2024-11-08T20:00:00	1	Precipitación	0
132112	7	Sololá	704	Santa Lucía Utatlán 	7	Santa Rita 	11	Noviembre	2023-11-30T00:00:00	2024-11-08T20:00:00	8	Radiación solar	0
132113	7	Sololá	704	Santa Lucía Utatlán 	7	Santa Rita 	11	Noviembre	2023-11-30T00:00:00	2024-11-08T21:00:00	2	Temperatura media	15.9
132114	7	Sololá	704	Santa Lucía Utatlán 	7	Santa Rita 	11	Noviembre	2023-11-30T00:00:00	2024-11-08T21:00:00	4	Temperatura máxima	15.9
132115	7	Sololá	704	Santa Lucía Utatlán 	7	Santa Rita 	11	Noviembre	2023-11-30T00:00:00	2024-11-08T21:00:00	3	Temperatura mínima	15.3
132116	7	Sololá	704	Santa Lucía Utatlán 	7	Santa Rita 	11	Noviembre	2023-11-30T00:00:00	2024-11-08T21:00:00	5	Humedad	68
132117	7	Sololá	704	Santa Lucía Utatlán 	7	Santa Rita 	11	Noviembre	2023-11-30T00:00:00	2024-11-08T21:00:00	6	Velocidad del viento	6.4
132118	7	Sololá	704	Santa Lucía Utatlán 	7	Santa Rita 	11	Noviembre	2023-11-30T00:00:00	2024-11-08T21:00:00	7	Dirección del viento	6.44
132119	7	Sololá	704	Santa Lucía Utatlán 	7	Santa Rita 	11	Noviembre	2023-11-30T00:00:00	2024-11-08T21:00:00	1	Precipitación	0
132120	7	Sololá	704	Santa Lucía Utatlán 	7	Santa Rita 	11	Noviembre	2023-11-30T00:00:00	2024-11-08T21:00:00	8	Radiación solar	0
132121	7	Sololá	704	Santa Lucía Utatlán 	7	Santa Rita 	11	Noviembre	2023-11-30T00:00:00	2024-11-08T22:00:00	2	Temperatura media	15.9
132122	7	Sololá	704	Santa Lucía Utatlán 	7	Santa Rita 	11	Noviembre	2023-11-30T00:00:00	2024-11-08T22:00:00	4	Temperatura máxima	16
132123	7	Sololá	704	Santa Lucía Utatlán 	7	Santa Rita 	11	Noviembre	2023-11-30T00:00:00	2024-11-08T22:00:00	3	Temperatura mínima	15.7
132124	7	Sololá	704	Santa Lucía Utatlán 	7	Santa Rita 	11	Noviembre	2023-11-30T00:00:00	2024-11-08T22:00:00	5	Humedad	66
132125	7	Sololá	704	Santa Lucía Utatlán 	7	Santa Rita 	11	Noviembre	2023-11-30T00:00:00	2024-11-08T22:00:00	6	Velocidad del viento	4.8
132126	7	Sololá	704	Santa Lucía Utatlán 	7	Santa Rita 	11	Noviembre	2023-11-30T00:00:00	2024-11-08T22:00:00	7	Dirección del viento	4.83
132127	7	Sololá	704	Santa Lucía Utatlán 	7	Santa Rita 	11	Noviembre	2023-11-30T00:00:00	2024-11-08T22:00:00	1	Precipitación	0
132128	7	Sololá	704	Santa Lucía Utatlán 	7	Santa Rita 	11	Noviembre	2023-11-30T00:00:00	2024-11-08T22:00:00	8	Radiación solar	0
132129	7	Sololá	704	Santa Lucía Utatlán 	7	Santa Rita 	11	Noviembre	2023-11-30T00:00:00	2024-11-08T23:00:00	2	Temperatura media	16.2
132130	7	Sololá	704	Santa Lucía Utatlán 	7	Santa Rita 	11	Noviembre	2023-11-30T00:00:00	2024-11-08T23:00:00	4	Temperatura máxima	16.3
132131	7	Sololá	704	Santa Lucía Utatlán 	7	Santa Rita 	11	Noviembre	2023-11-30T00:00:00	2024-11-08T23:00:00	3	Temperatura mínima	15.9
132132	7	Sololá	704	Santa Lucía Utatlán 	7	Santa Rita 	11	Noviembre	2023-11-30T00:00:00	2024-11-08T23:00:00	5	Humedad	66
132133	7	Sololá	704	Santa Lucía Utatlán 	7	Santa Rita 	11	Noviembre	2023-11-30T00:00:00	2024-11-08T23:00:00	6	Velocidad del viento	6.4
132134	7	Sololá	704	Santa Lucía Utatlán 	7	Santa Rita 	11	Noviembre	2023-11-30T00:00:00	2024-11-08T23:00:00	7	Dirección del viento	6.44
132135	7	Sololá	704	Santa Lucía Utatlán 	7	Santa Rita 	11	Noviembre	2023-11-30T00:00:00	2024-11-08T23:00:00	1	Precipitación	0
132136	7	Sololá	704	Santa Lucía Utatlán 	7	Santa Rita 	11	Noviembre	2023-11-30T00:00:00	2024-11-08T23:00:00	8	Radiación solar	0
132137	7	Sololá	719	Santiago Atitlán	14	Cerro de Oro	2	Febrero	2023-02-16T00:00:00	2024-11-08T12:00:00	2	Temperatura media	21.2
132138	7	Sololá	719	Santiago Atitlán	14	Cerro de Oro	2	Febrero	2023-02-16T00:00:00	2024-11-08T12:00:00	4	Temperatura máxima	21.2
132139	7	Sololá	719	Santiago Atitlán	14	Cerro de Oro	2	Febrero	2023-02-16T00:00:00	2024-11-08T12:00:00	3	Temperatura mínima	21.2
132140	7	Sololá	719	Santiago Atitlán	14	Cerro de Oro	2	Febrero	2023-02-16T00:00:00	2024-11-08T12:00:00	5	Humedad	70
132141	7	Sololá	719	Santiago Atitlán	14	Cerro de Oro	2	Febrero	2023-02-16T00:00:00	2024-11-08T12:00:00	6	Velocidad del viento	14.5
132142	7	Sololá	719	Santiago Atitlán	14	Cerro de Oro	2	Febrero	2023-02-16T00:00:00	2024-11-08T12:00:00	7	Dirección del viento	0.24
132143	7	Sololá	719	Santiago Atitlán	14	Cerro de Oro	2	Febrero	2023-02-16T00:00:00	2024-11-08T12:00:00	1	Precipitación	0
132144	7	Sololá	719	Santiago Atitlán	14	Cerro de Oro	2	Febrero	2023-02-16T00:00:00	2024-11-08T12:00:00	8	Radiación solar	877
132145	7	Sololá	719	Santiago Atitlán	14	Cerro de Oro	2	Febrero	2023-02-16T00:00:00	2024-11-08T13:00:00	2	Temperatura media	20.7
132146	7	Sololá	719	Santiago Atitlán	14	Cerro de Oro	2	Febrero	2023-02-16T00:00:00	2024-11-08T13:00:00	4	Temperatura máxima	21.3
132147	7	Sololá	719	Santiago Atitlán	14	Cerro de Oro	2	Febrero	2023-02-16T00:00:00	2024-11-08T13:00:00	3	Temperatura mínima	20.4
132148	7	Sololá	719	Santiago Atitlán	14	Cerro de Oro	2	Febrero	2023-02-16T00:00:00	2024-11-08T13:00:00	5	Humedad	72
132149	7	Sololá	719	Santiago Atitlán	14	Cerro de Oro	2	Febrero	2023-02-16T00:00:00	2024-11-08T13:00:00	6	Velocidad del viento	14.5
132150	7	Sololá	719	Santiago Atitlán	14	Cerro de Oro	2	Febrero	2023-02-16T00:00:00	2024-11-08T13:00:00	7	Dirección del viento	14.48
132151	7	Sololá	719	Santiago Atitlán	14	Cerro de Oro	2	Febrero	2023-02-16T00:00:00	2024-11-08T13:00:00	1	Precipitación	0
132152	7	Sololá	719	Santiago Atitlán	14	Cerro de Oro	2	Febrero	2023-02-16T00:00:00	2024-11-08T13:00:00	8	Radiación solar	869
132153	7	Sololá	719	Santiago Atitlán	14	Cerro de Oro	2	Febrero	2023-02-16T00:00:00	2024-11-08T14:00:00	2	Temperatura media	20.1
132154	7	Sololá	719	Santiago Atitlán	14	Cerro de Oro	2	Febrero	2023-02-16T00:00:00	2024-11-08T14:00:00	4	Temperatura máxima	20.8
132155	7	Sololá	719	Santiago Atitlán	14	Cerro de Oro	2	Febrero	2023-02-16T00:00:00	2024-11-08T14:00:00	3	Temperatura mínima	20.1
132156	7	Sololá	719	Santiago Atitlán	14	Cerro de Oro	2	Febrero	2023-02-16T00:00:00	2024-11-08T14:00:00	5	Humedad	75
132157	7	Sololá	719	Santiago Atitlán	14	Cerro de Oro	2	Febrero	2023-02-16T00:00:00	2024-11-08T14:00:00	6	Velocidad del viento	14.5
132158	7	Sololá	719	Santiago Atitlán	14	Cerro de Oro	2	Febrero	2023-02-16T00:00:00	2024-11-08T14:00:00	7	Dirección del viento	14.48
132159	7	Sololá	719	Santiago Atitlán	14	Cerro de Oro	2	Febrero	2023-02-16T00:00:00	2024-11-08T14:00:00	1	Precipitación	0
132160	7	Sololá	719	Santiago Atitlán	14	Cerro de Oro	2	Febrero	2023-02-16T00:00:00	2024-11-08T14:00:00	8	Radiación solar	828
132161	7	Sololá	719	Santiago Atitlán	14	Cerro de Oro	2	Febrero	2023-02-16T00:00:00	2024-11-08T15:00:00	2	Temperatura media	19.9
132162	7	Sololá	719	Santiago Atitlán	14	Cerro de Oro	2	Febrero	2023-02-16T00:00:00	2024-11-08T15:00:00	4	Temperatura máxima	20.5
132163	7	Sololá	719	Santiago Atitlán	14	Cerro de Oro	2	Febrero	2023-02-16T00:00:00	2024-11-08T15:00:00	3	Temperatura mínima	19.8
132164	7	Sololá	719	Santiago Atitlán	14	Cerro de Oro	2	Febrero	2023-02-16T00:00:00	2024-11-08T15:00:00	5	Humedad	76
132165	7	Sololá	719	Santiago Atitlán	14	Cerro de Oro	2	Febrero	2023-02-16T00:00:00	2024-11-08T15:00:00	6	Velocidad del viento	11.3
132166	7	Sololá	719	Santiago Atitlán	14	Cerro de Oro	2	Febrero	2023-02-16T00:00:00	2024-11-08T15:00:00	7	Dirección del viento	11.27
132167	7	Sololá	719	Santiago Atitlán	14	Cerro de Oro	2	Febrero	2023-02-16T00:00:00	2024-11-08T15:00:00	1	Precipitación	0
132168	7	Sololá	719	Santiago Atitlán	14	Cerro de Oro	2	Febrero	2023-02-16T00:00:00	2024-11-08T15:00:00	8	Radiación solar	454
132169	7	Sololá	719	Santiago Atitlán	14	Cerro de Oro	2	Febrero	2023-02-16T00:00:00	2024-11-08T16:00:00	2	Temperatura media	18.7
132170	7	Sololá	719	Santiago Atitlán	14	Cerro de Oro	2	Febrero	2023-02-16T00:00:00	2024-11-08T16:00:00	4	Temperatura máxima	19.9
132171	7	Sololá	719	Santiago Atitlán	14	Cerro de Oro	2	Febrero	2023-02-16T00:00:00	2024-11-08T16:00:00	3	Temperatura mínima	18.7
132172	7	Sololá	719	Santiago Atitlán	14	Cerro de Oro	2	Febrero	2023-02-16T00:00:00	2024-11-08T16:00:00	5	Humedad	81
132173	7	Sololá	719	Santiago Atitlán	14	Cerro de Oro	2	Febrero	2023-02-16T00:00:00	2024-11-08T16:00:00	6	Velocidad del viento	11.3
132174	7	Sololá	719	Santiago Atitlán	14	Cerro de Oro	2	Febrero	2023-02-16T00:00:00	2024-11-08T16:00:00	7	Dirección del viento	11.27
132175	7	Sololá	719	Santiago Atitlán	14	Cerro de Oro	2	Febrero	2023-02-16T00:00:00	2024-11-08T16:00:00	1	Precipitación	0
132176	7	Sololá	719	Santiago Atitlán	14	Cerro de Oro	2	Febrero	2023-02-16T00:00:00	2024-11-08T16:00:00	8	Radiación solar	293
132177	7	Sololá	719	Santiago Atitlán	14	Cerro de Oro	2	Febrero	2023-02-16T00:00:00	2024-11-08T17:00:00	2	Temperatura media	19.4
132178	7	Sololá	719	Santiago Atitlán	14	Cerro de Oro	2	Febrero	2023-02-16T00:00:00	2024-11-08T17:00:00	4	Temperatura máxima	19.4
132179	7	Sololá	719	Santiago Atitlán	14	Cerro de Oro	2	Febrero	2023-02-16T00:00:00	2024-11-08T17:00:00	3	Temperatura mínima	18.6
132180	7	Sololá	719	Santiago Atitlán	14	Cerro de Oro	2	Febrero	2023-02-16T00:00:00	2024-11-08T17:00:00	5	Humedad	79
132181	7	Sololá	719	Santiago Atitlán	14	Cerro de Oro	2	Febrero	2023-02-16T00:00:00	2024-11-08T17:00:00	6	Velocidad del viento	6.4
132182	7	Sololá	719	Santiago Atitlán	14	Cerro de Oro	2	Febrero	2023-02-16T00:00:00	2024-11-08T17:00:00	7	Dirección del viento	6.44
132183	7	Sololá	719	Santiago Atitlán	14	Cerro de Oro	2	Febrero	2023-02-16T00:00:00	2024-11-08T17:00:00	1	Precipitación	0
132184	7	Sololá	719	Santiago Atitlán	14	Cerro de Oro	2	Febrero	2023-02-16T00:00:00	2024-11-08T17:00:00	8	Radiación solar	107
132185	7	Sololá	719	Santiago Atitlán	14	Cerro de Oro	2	Febrero	2023-02-16T00:00:00	2024-11-08T18:00:00	2	Temperatura media	18.8
132186	7	Sololá	719	Santiago Atitlán	14	Cerro de Oro	2	Febrero	2023-02-16T00:00:00	2024-11-08T18:00:00	4	Temperatura máxima	19.4
132187	7	Sololá	719	Santiago Atitlán	14	Cerro de Oro	2	Febrero	2023-02-16T00:00:00	2024-11-08T18:00:00	3	Temperatura mínima	18.8
132188	7	Sololá	719	Santiago Atitlán	14	Cerro de Oro	2	Febrero	2023-02-16T00:00:00	2024-11-08T18:00:00	5	Humedad	80
132189	7	Sololá	719	Santiago Atitlán	14	Cerro de Oro	2	Febrero	2023-02-16T00:00:00	2024-11-08T18:00:00	6	Velocidad del viento	1.6
132190	7	Sololá	719	Santiago Atitlán	14	Cerro de Oro	2	Febrero	2023-02-16T00:00:00	2024-11-08T18:00:00	7	Dirección del viento	1.61
132191	7	Sololá	719	Santiago Atitlán	14	Cerro de Oro	2	Febrero	2023-02-16T00:00:00	2024-11-08T18:00:00	1	Precipitación	0
132192	7	Sololá	719	Santiago Atitlán	14	Cerro de Oro	2	Febrero	2023-02-16T00:00:00	2024-11-08T18:00:00	8	Radiación solar	43
132193	7	Sololá	719	Santiago Atitlán	14	Cerro de Oro	2	Febrero	2023-02-16T00:00:00	2024-11-08T19:00:00	2	Temperatura media	17.7
132194	7	Sololá	719	Santiago Atitlán	14	Cerro de Oro	2	Febrero	2023-02-16T00:00:00	2024-11-08T19:00:00	4	Temperatura máxima	18.8
132195	7	Sololá	719	Santiago Atitlán	14	Cerro de Oro	2	Febrero	2023-02-16T00:00:00	2024-11-08T19:00:00	3	Temperatura mínima	17.7
132196	7	Sololá	719	Santiago Atitlán	14	Cerro de Oro	2	Febrero	2023-02-16T00:00:00	2024-11-08T19:00:00	5	Humedad	83
132197	7	Sololá	719	Santiago Atitlán	14	Cerro de Oro	2	Febrero	2023-02-16T00:00:00	2024-11-08T19:00:00	6	Velocidad del viento	3.2
132198	7	Sololá	719	Santiago Atitlán	14	Cerro de Oro	2	Febrero	2023-02-16T00:00:00	2024-11-08T19:00:00	7	Dirección del viento	3.22
132199	7	Sololá	719	Santiago Atitlán	14	Cerro de Oro	2	Febrero	2023-02-16T00:00:00	2024-11-08T19:00:00	1	Precipitación	0
132200	7	Sololá	719	Santiago Atitlán	14	Cerro de Oro	2	Febrero	2023-02-16T00:00:00	2024-11-08T19:00:00	8	Radiación solar	0
132201	7	Sololá	719	Santiago Atitlán	14	Cerro de Oro	2	Febrero	2023-02-16T00:00:00	2024-11-08T20:00:00	2	Temperatura media	17.3
132202	7	Sololá	719	Santiago Atitlán	14	Cerro de Oro	2	Febrero	2023-02-16T00:00:00	2024-11-08T20:00:00	4	Temperatura máxima	17.9
132203	7	Sololá	719	Santiago Atitlán	14	Cerro de Oro	2	Febrero	2023-02-16T00:00:00	2024-11-08T20:00:00	3	Temperatura mínima	17.3
132204	7	Sololá	719	Santiago Atitlán	14	Cerro de Oro	2	Febrero	2023-02-16T00:00:00	2024-11-08T20:00:00	5	Humedad	84
132205	7	Sololá	719	Santiago Atitlán	14	Cerro de Oro	2	Febrero	2023-02-16T00:00:00	2024-11-08T20:00:00	6	Velocidad del viento	3.2
132206	7	Sololá	719	Santiago Atitlán	14	Cerro de Oro	2	Febrero	2023-02-16T00:00:00	2024-11-08T20:00:00	7	Dirección del viento	3.22
132207	7	Sololá	719	Santiago Atitlán	14	Cerro de Oro	2	Febrero	2023-02-16T00:00:00	2024-11-08T20:00:00	1	Precipitación	0
132208	7	Sololá	719	Santiago Atitlán	14	Cerro de Oro	2	Febrero	2023-02-16T00:00:00	2024-11-08T20:00:00	8	Radiación solar	0
132209	7	Sololá	719	Santiago Atitlán	14	Cerro de Oro	2	Febrero	2023-02-16T00:00:00	2024-11-08T21:00:00	2	Temperatura media	16.9
132210	7	Sololá	719	Santiago Atitlán	14	Cerro de Oro	2	Febrero	2023-02-16T00:00:00	2024-11-08T21:00:00	4	Temperatura máxima	17.5
132211	7	Sololá	719	Santiago Atitlán	14	Cerro de Oro	2	Febrero	2023-02-16T00:00:00	2024-11-08T21:00:00	3	Temperatura mínima	16.9
132212	7	Sololá	719	Santiago Atitlán	14	Cerro de Oro	2	Febrero	2023-02-16T00:00:00	2024-11-08T21:00:00	5	Humedad	85
132213	7	Sololá	719	Santiago Atitlán	14	Cerro de Oro	2	Febrero	2023-02-16T00:00:00	2024-11-08T21:00:00	6	Velocidad del viento	3.2
132214	7	Sololá	719	Santiago Atitlán	14	Cerro de Oro	2	Febrero	2023-02-16T00:00:00	2024-11-08T21:00:00	7	Dirección del viento	3.22
132215	7	Sololá	719	Santiago Atitlán	14	Cerro de Oro	2	Febrero	2023-02-16T00:00:00	2024-11-08T21:00:00	1	Precipitación	0
132216	7	Sololá	719	Santiago Atitlán	14	Cerro de Oro	2	Febrero	2023-02-16T00:00:00	2024-11-08T21:00:00	8	Radiación solar	0
132217	7	Sololá	719	Santiago Atitlán	14	Cerro de Oro	2	Febrero	2023-02-16T00:00:00	2024-11-08T22:00:00	2	Temperatura media	16.6
132218	7	Sololá	719	Santiago Atitlán	14	Cerro de Oro	2	Febrero	2023-02-16T00:00:00	2024-11-08T22:00:00	4	Temperatura máxima	17.1
132219	7	Sololá	719	Santiago Atitlán	14	Cerro de Oro	2	Febrero	2023-02-16T00:00:00	2024-11-08T22:00:00	3	Temperatura mínima	16.3
132220	7	Sololá	719	Santiago Atitlán	14	Cerro de Oro	2	Febrero	2023-02-16T00:00:00	2024-11-08T22:00:00	5	Humedad	88
132221	7	Sololá	719	Santiago Atitlán	14	Cerro de Oro	2	Febrero	2023-02-16T00:00:00	2024-11-08T22:00:00	6	Velocidad del viento	3.2
132222	7	Sololá	719	Santiago Atitlán	14	Cerro de Oro	2	Febrero	2023-02-16T00:00:00	2024-11-08T22:00:00	7	Dirección del viento	3.22
132223	7	Sololá	719	Santiago Atitlán	14	Cerro de Oro	2	Febrero	2023-02-16T00:00:00	2024-11-08T22:00:00	1	Precipitación	0
132224	7	Sololá	719	Santiago Atitlán	14	Cerro de Oro	2	Febrero	2023-02-16T00:00:00	2024-11-08T22:00:00	8	Radiación solar	0
132225	7	Sololá	719	Santiago Atitlán	14	Cerro de Oro	2	Febrero	2023-02-16T00:00:00	2024-11-08T23:00:00	2	Temperatura media	15.8
132226	7	Sololá	719	Santiago Atitlán	14	Cerro de Oro	2	Febrero	2023-02-16T00:00:00	2024-11-08T23:00:00	4	Temperatura máxima	16.7
132227	7	Sololá	719	Santiago Atitlán	14	Cerro de Oro	2	Febrero	2023-02-16T00:00:00	2024-11-08T23:00:00	3	Temperatura mínima	15.8
132228	7	Sololá	719	Santiago Atitlán	14	Cerro de Oro	2	Febrero	2023-02-16T00:00:00	2024-11-08T23:00:00	5	Humedad	90
132229	7	Sololá	719	Santiago Atitlán	14	Cerro de Oro	2	Febrero	2023-02-16T00:00:00	2024-11-08T23:00:00	6	Velocidad del viento	4.8
132230	7	Sololá	719	Santiago Atitlán	14	Cerro de Oro	2	Febrero	2023-02-16T00:00:00	2024-11-08T23:00:00	7	Dirección del viento	4.83
132231	7	Sololá	719	Santiago Atitlán	14	Cerro de Oro	2	Febrero	2023-02-16T00:00:00	2024-11-08T23:00:00	1	Precipitación	0
132232	7	Sololá	719	Santiago Atitlán	14	Cerro de Oro	2	Febrero	2023-02-16T00:00:00	2024-11-08T23:00:00	8	Radiación solar	0
132233	7	Sololá	719	Santiago Atitlán	14	Cerro de Oro	2	Febrero	2023-02-17T00:00:00	2024-11-08T00:00:00	2	Temperatura media	15.5
132234	7	Sololá	719	Santiago Atitlán	14	Cerro de Oro	2	Febrero	2023-02-17T00:00:00	2024-11-08T00:00:00	4	Temperatura máxima	16.2
132235	7	Sololá	719	Santiago Atitlán	14	Cerro de Oro	2	Febrero	2023-02-17T00:00:00	2024-11-08T00:00:00	3	Temperatura mínima	15.4
132236	7	Sololá	719	Santiago Atitlán	14	Cerro de Oro	2	Febrero	2023-02-17T00:00:00	2024-11-08T00:00:00	5	Humedad	91
132237	7	Sololá	719	Santiago Atitlán	14	Cerro de Oro	2	Febrero	2023-02-17T00:00:00	2024-11-08T00:00:00	6	Velocidad del viento	4.8
132238	7	Sololá	719	Santiago Atitlán	14	Cerro de Oro	2	Febrero	2023-02-17T00:00:00	2024-11-08T00:00:00	7	Dirección del viento	4.83
132239	7	Sololá	719	Santiago Atitlán	14	Cerro de Oro	2	Febrero	2023-02-17T00:00:00	2024-11-08T00:00:00	1	Precipitación	0
132240	7	Sololá	719	Santiago Atitlán	14	Cerro de Oro	2	Febrero	2023-02-17T00:00:00	2024-11-08T00:00:00	8	Radiación solar	0
132241	7	Sololá	719	Santiago Atitlán	14	Cerro de Oro	2	Febrero	2023-02-17T00:00:00	2024-11-08T01:00:00	2	Temperatura media	16.1
132242	7	Sololá	719	Santiago Atitlán	14	Cerro de Oro	2	Febrero	2023-02-17T00:00:00	2024-11-08T01:00:00	4	Temperatura máxima	16.3
132243	7	Sololá	719	Santiago Atitlán	14	Cerro de Oro	2	Febrero	2023-02-17T00:00:00	2024-11-08T01:00:00	3	Temperatura mínima	15.5
132244	7	Sololá	719	Santiago Atitlán	14	Cerro de Oro	2	Febrero	2023-02-17T00:00:00	2024-11-08T01:00:00	5	Humedad	88
132245	7	Sololá	719	Santiago Atitlán	14	Cerro de Oro	2	Febrero	2023-02-17T00:00:00	2024-11-08T01:00:00	6	Velocidad del viento	4.8
132246	7	Sololá	719	Santiago Atitlán	14	Cerro de Oro	2	Febrero	2023-02-17T00:00:00	2024-11-08T01:00:00	7	Dirección del viento	4.83
132247	7	Sololá	719	Santiago Atitlán	14	Cerro de Oro	2	Febrero	2023-02-17T00:00:00	2024-11-08T01:00:00	1	Precipitación	0
132248	7	Sololá	719	Santiago Atitlán	14	Cerro de Oro	2	Febrero	2023-02-17T00:00:00	2024-11-08T01:00:00	8	Radiación solar	0
132249	7	Sololá	719	Santiago Atitlán	14	Cerro de Oro	2	Febrero	2023-02-17T00:00:00	2024-11-08T02:00:00	2	Temperatura media	15.4
132250	7	Sololá	719	Santiago Atitlán	14	Cerro de Oro	2	Febrero	2023-02-17T00:00:00	2024-11-08T02:00:00	4	Temperatura máxima	16.1
132251	7	Sololá	719	Santiago Atitlán	14	Cerro de Oro	2	Febrero	2023-02-17T00:00:00	2024-11-08T02:00:00	3	Temperatura mínima	15.4
132252	7	Sololá	719	Santiago Atitlán	14	Cerro de Oro	2	Febrero	2023-02-17T00:00:00	2024-11-08T02:00:00	5	Humedad	87
132253	7	Sololá	719	Santiago Atitlán	14	Cerro de Oro	2	Febrero	2023-02-17T00:00:00	2024-11-08T02:00:00	6	Velocidad del viento	3.2
132254	7	Sololá	719	Santiago Atitlán	14	Cerro de Oro	2	Febrero	2023-02-17T00:00:00	2024-11-08T02:00:00	7	Dirección del viento	3.22
132255	7	Sololá	719	Santiago Atitlán	14	Cerro de Oro	2	Febrero	2023-02-17T00:00:00	2024-11-08T02:00:00	1	Precipitación	0
132256	7	Sololá	719	Santiago Atitlán	14	Cerro de Oro	2	Febrero	2023-02-17T00:00:00	2024-11-08T02:00:00	8	Radiación solar	0
132257	7	Sololá	719	Santiago Atitlán	14	Cerro de Oro	2	Febrero	2023-02-17T00:00:00	2024-11-08T03:00:00	2	Temperatura media	15.3
132258	7	Sololá	719	Santiago Atitlán	14	Cerro de Oro	2	Febrero	2023-02-17T00:00:00	2024-11-08T03:00:00	4	Temperatura máxima	15.7
132259	7	Sololá	719	Santiago Atitlán	14	Cerro de Oro	2	Febrero	2023-02-17T00:00:00	2024-11-08T03:00:00	3	Temperatura mínima	15.3
132260	7	Sololá	719	Santiago Atitlán	14	Cerro de Oro	2	Febrero	2023-02-17T00:00:00	2024-11-08T03:00:00	5	Humedad	85
132261	7	Sololá	719	Santiago Atitlán	14	Cerro de Oro	2	Febrero	2023-02-17T00:00:00	2024-11-08T03:00:00	6	Velocidad del viento	3.2
132262	7	Sololá	719	Santiago Atitlán	14	Cerro de Oro	2	Febrero	2023-02-17T00:00:00	2024-11-08T03:00:00	7	Dirección del viento	3.22
132263	7	Sololá	719	Santiago Atitlán	14	Cerro de Oro	2	Febrero	2023-02-17T00:00:00	2024-11-08T03:00:00	1	Precipitación	0
132264	7	Sololá	719	Santiago Atitlán	14	Cerro de Oro	2	Febrero	2023-02-17T00:00:00	2024-11-08T03:00:00	8	Radiación solar	0
132265	7	Sololá	719	Santiago Atitlán	14	Cerro de Oro	2	Febrero	2023-02-17T00:00:00	2024-11-08T04:00:00	2	Temperatura media	15
132266	7	Sololá	719	Santiago Atitlán	14	Cerro de Oro	2	Febrero	2023-02-17T00:00:00	2024-11-08T04:00:00	4	Temperatura máxima	15.3
132267	7	Sololá	719	Santiago Atitlán	14	Cerro de Oro	2	Febrero	2023-02-17T00:00:00	2024-11-08T04:00:00	3	Temperatura mínima	14.9
132268	7	Sololá	719	Santiago Atitlán	14	Cerro de Oro	2	Febrero	2023-02-17T00:00:00	2024-11-08T04:00:00	5	Humedad	83
132269	7	Sololá	719	Santiago Atitlán	14	Cerro de Oro	2	Febrero	2023-02-17T00:00:00	2024-11-08T04:00:00	6	Velocidad del viento	4.8
132270	7	Sololá	719	Santiago Atitlán	14	Cerro de Oro	2	Febrero	2023-02-17T00:00:00	2024-11-08T04:00:00	7	Dirección del viento	4.83
132271	7	Sololá	719	Santiago Atitlán	14	Cerro de Oro	2	Febrero	2023-02-17T00:00:00	2024-11-08T04:00:00	1	Precipitación	0
132272	7	Sololá	719	Santiago Atitlán	14	Cerro de Oro	2	Febrero	2023-02-17T00:00:00	2024-11-08T04:00:00	8	Radiación solar	0
132273	7	Sololá	719	Santiago Atitlán	14	Cerro de Oro	2	Febrero	2023-02-17T00:00:00	2024-11-08T05:00:00	2	Temperatura media	14.2
132274	7	Sololá	719	Santiago Atitlán	14	Cerro de Oro	2	Febrero	2023-02-17T00:00:00	2024-11-08T05:00:00	4	Temperatura máxima	15
132275	7	Sololá	719	Santiago Atitlán	14	Cerro de Oro	2	Febrero	2023-02-17T00:00:00	2024-11-08T05:00:00	3	Temperatura mínima	14.1
132276	7	Sololá	719	Santiago Atitlán	14	Cerro de Oro	2	Febrero	2023-02-17T00:00:00	2024-11-08T05:00:00	5	Humedad	84
132277	7	Sololá	719	Santiago Atitlán	14	Cerro de Oro	2	Febrero	2023-02-17T00:00:00	2024-11-08T05:00:00	6	Velocidad del viento	3.2
132278	7	Sololá	719	Santiago Atitlán	14	Cerro de Oro	2	Febrero	2023-02-17T00:00:00	2024-11-08T05:00:00	7	Dirección del viento	3.22
132279	7	Sololá	719	Santiago Atitlán	14	Cerro de Oro	2	Febrero	2023-02-17T00:00:00	2024-11-08T05:00:00	1	Precipitación	0
132280	7	Sololá	719	Santiago Atitlán	14	Cerro de Oro	2	Febrero	2023-02-17T00:00:00	2024-11-08T05:00:00	8	Radiación solar	0
132281	7	Sololá	719	Santiago Atitlán	14	Cerro de Oro	2	Febrero	2023-02-17T00:00:00	2024-11-08T06:00:00	2	Temperatura media	14.2
132282	7	Sololá	719	Santiago Atitlán	14	Cerro de Oro	2	Febrero	2023-02-17T00:00:00	2024-11-08T06:00:00	4	Temperatura máxima	14.5
132283	7	Sololá	719	Santiago Atitlán	14	Cerro de Oro	2	Febrero	2023-02-17T00:00:00	2024-11-08T06:00:00	3	Temperatura mínima	14.1
132284	7	Sololá	719	Santiago Atitlán	14	Cerro de Oro	2	Febrero	2023-02-17T00:00:00	2024-11-08T06:00:00	5	Humedad	84
132285	7	Sololá	719	Santiago Atitlán	14	Cerro de Oro	2	Febrero	2023-02-17T00:00:00	2024-11-08T06:00:00	6	Velocidad del viento	4.8
132286	7	Sololá	719	Santiago Atitlán	14	Cerro de Oro	2	Febrero	2023-02-17T00:00:00	2024-11-08T06:00:00	7	Dirección del viento	4.83
132287	7	Sololá	719	Santiago Atitlán	14	Cerro de Oro	2	Febrero	2023-02-17T00:00:00	2024-11-08T06:00:00	1	Precipitación	0
132288	7	Sololá	719	Santiago Atitlán	14	Cerro de Oro	2	Febrero	2023-02-17T00:00:00	2024-11-08T06:00:00	8	Radiación solar	0
132289	7	Sololá	719	Santiago Atitlán	14	Cerro de Oro	2	Febrero	2023-02-17T00:00:00	2024-11-08T07:00:00	2	Temperatura media	14.6
132290	7	Sololá	719	Santiago Atitlán	14	Cerro de Oro	2	Febrero	2023-02-17T00:00:00	2024-11-08T07:00:00	4	Temperatura máxima	14.6
132291	7	Sololá	719	Santiago Atitlán	14	Cerro de Oro	2	Febrero	2023-02-17T00:00:00	2024-11-08T07:00:00	3	Temperatura mínima	14.1
132292	7	Sololá	719	Santiago Atitlán	14	Cerro de Oro	2	Febrero	2023-02-17T00:00:00	2024-11-08T07:00:00	5	Humedad	82
132293	7	Sololá	719	Santiago Atitlán	14	Cerro de Oro	2	Febrero	2023-02-17T00:00:00	2024-11-08T07:00:00	6	Velocidad del viento	4.8
132294	7	Sololá	719	Santiago Atitlán	14	Cerro de Oro	2	Febrero	2023-02-17T00:00:00	2024-11-08T07:00:00	7	Dirección del viento	4.83
132295	7	Sololá	719	Santiago Atitlán	14	Cerro de Oro	2	Febrero	2023-02-17T00:00:00	2024-11-08T07:00:00	1	Precipitación	0
132296	7	Sololá	719	Santiago Atitlán	14	Cerro de Oro	2	Febrero	2023-02-17T00:00:00	2024-11-08T07:00:00	8	Radiación solar	16
132297	7	Sololá	719	Santiago Atitlán	14	Cerro de Oro	2	Febrero	2023-02-17T00:00:00	2024-11-08T08:00:00	2	Temperatura media	17
132298	7	Sololá	719	Santiago Atitlán	14	Cerro de Oro	2	Febrero	2023-02-17T00:00:00	2024-11-08T08:00:00	4	Temperatura máxima	17
132299	7	Sololá	719	Santiago Atitlán	14	Cerro de Oro	2	Febrero	2023-02-17T00:00:00	2024-11-08T08:00:00	3	Temperatura mínima	14.6
132300	7	Sololá	719	Santiago Atitlán	14	Cerro de Oro	2	Febrero	2023-02-17T00:00:00	2024-11-08T08:00:00	5	Humedad	78
132301	7	Sololá	719	Santiago Atitlán	14	Cerro de Oro	2	Febrero	2023-02-17T00:00:00	2024-11-08T08:00:00	6	Velocidad del viento	3.2
132302	7	Sololá	719	Santiago Atitlán	14	Cerro de Oro	2	Febrero	2023-02-17T00:00:00	2024-11-08T08:00:00	7	Dirección del viento	3.22
132303	7	Sololá	719	Santiago Atitlán	14	Cerro de Oro	2	Febrero	2023-02-17T00:00:00	2024-11-08T08:00:00	1	Precipitación	0
132304	7	Sololá	719	Santiago Atitlán	14	Cerro de Oro	2	Febrero	2023-02-17T00:00:00	2024-11-08T08:00:00	8	Radiación solar	170
132305	7	Sololá	719	Santiago Atitlán	14	Cerro de Oro	2	Febrero	2023-02-17T00:00:00	2024-11-08T09:00:00	2	Temperatura media	17.7
132306	7	Sololá	719	Santiago Atitlán	14	Cerro de Oro	2	Febrero	2023-02-17T00:00:00	2024-11-08T09:00:00	4	Temperatura máxima	17.7
132307	7	Sololá	719	Santiago Atitlán	14	Cerro de Oro	2	Febrero	2023-02-17T00:00:00	2024-11-08T09:00:00	3	Temperatura mínima	16.9
132308	7	Sololá	719	Santiago Atitlán	14	Cerro de Oro	2	Febrero	2023-02-17T00:00:00	2024-11-08T09:00:00	5	Humedad	77
132309	7	Sololá	719	Santiago Atitlán	14	Cerro de Oro	2	Febrero	2023-02-17T00:00:00	2024-11-08T09:00:00	6	Velocidad del viento	3.2
132310	7	Sololá	719	Santiago Atitlán	14	Cerro de Oro	2	Febrero	2023-02-17T00:00:00	2024-11-08T09:00:00	7	Dirección del viento	3.22
132311	7	Sololá	719	Santiago Atitlán	14	Cerro de Oro	2	Febrero	2023-02-17T00:00:00	2024-11-08T09:00:00	1	Precipitación	0
132312	7	Sololá	719	Santiago Atitlán	14	Cerro de Oro	2	Febrero	2023-02-17T00:00:00	2024-11-08T09:00:00	8	Radiación solar	390
132313	7	Sololá	719	Santiago Atitlán	14	Cerro de Oro	2	Febrero	2023-02-17T00:00:00	2024-11-08T10:00:00	2	Temperatura media	18.4
132314	7	Sololá	719	Santiago Atitlán	14	Cerro de Oro	2	Febrero	2023-02-17T00:00:00	2024-11-08T10:00:00	4	Temperatura máxima	18.4
132315	7	Sololá	719	Santiago Atitlán	14	Cerro de Oro	2	Febrero	2023-02-17T00:00:00	2024-11-08T10:00:00	3	Temperatura mínima	17.5
132316	7	Sololá	719	Santiago Atitlán	14	Cerro de Oro	2	Febrero	2023-02-17T00:00:00	2024-11-08T10:00:00	5	Humedad	77
132317	7	Sololá	719	Santiago Atitlán	14	Cerro de Oro	2	Febrero	2023-02-17T00:00:00	2024-11-08T10:00:00	6	Velocidad del viento	4.8
132318	7	Sololá	719	Santiago Atitlán	14	Cerro de Oro	2	Febrero	2023-02-17T00:00:00	2024-11-08T10:00:00	7	Dirección del viento	4.83
132319	7	Sololá	719	Santiago Atitlán	14	Cerro de Oro	2	Febrero	2023-02-17T00:00:00	2024-11-08T10:00:00	1	Precipitación	0
132320	7	Sololá	719	Santiago Atitlán	14	Cerro de Oro	2	Febrero	2023-02-17T00:00:00	2024-11-08T10:00:00	8	Radiación solar	589
132321	7	Sololá	719	Santiago Atitlán	14	Cerro de Oro	2	Febrero	2023-02-17T00:00:00	2024-11-08T11:00:00	2	Temperatura media	21.7
132322	7	Sololá	719	Santiago Atitlán	14	Cerro de Oro	2	Febrero	2023-02-17T00:00:00	2024-11-08T11:00:00	4	Temperatura máxima	21.8
132323	7	Sololá	719	Santiago Atitlán	14	Cerro de Oro	2	Febrero	2023-02-17T00:00:00	2024-11-08T11:00:00	3	Temperatura mínima	18.4
132324	7	Sololá	719	Santiago Atitlán	14	Cerro de Oro	2	Febrero	2023-02-17T00:00:00	2024-11-08T11:00:00	5	Humedad	63
132325	7	Sololá	719	Santiago Atitlán	14	Cerro de Oro	2	Febrero	2023-02-17T00:00:00	2024-11-08T11:00:00	6	Velocidad del viento	4.8
132326	7	Sololá	719	Santiago Atitlán	14	Cerro de Oro	2	Febrero	2023-02-17T00:00:00	2024-11-08T11:00:00	7	Dirección del viento	4.83
132327	7	Sololá	719	Santiago Atitlán	14	Cerro de Oro	2	Febrero	2023-02-17T00:00:00	2024-11-08T11:00:00	1	Precipitación	0
132328	7	Sololá	719	Santiago Atitlán	14	Cerro de Oro	2	Febrero	2023-02-17T00:00:00	2024-11-08T11:00:00	8	Radiación solar	746
132329	7	Sololá	719	Santiago Atitlán	14	Cerro de Oro	2	Febrero	2023-02-17T00:00:00	2024-11-08T12:00:00	2	Temperatura media	23.9
132330	7	Sololá	719	Santiago Atitlán	14	Cerro de Oro	2	Febrero	2023-02-17T00:00:00	2024-11-08T12:00:00	4	Temperatura máxima	24
132331	7	Sololá	719	Santiago Atitlán	14	Cerro de Oro	2	Febrero	2023-02-17T00:00:00	2024-11-08T12:00:00	3	Temperatura mínima	21.7
132332	7	Sololá	719	Santiago Atitlán	14	Cerro de Oro	2	Febrero	2023-02-17T00:00:00	2024-11-08T12:00:00	5	Humedad	45
132333	7	Sololá	719	Santiago Atitlán	14	Cerro de Oro	2	Febrero	2023-02-17T00:00:00	2024-11-08T12:00:00	6	Velocidad del viento	4.8
132334	7	Sololá	719	Santiago Atitlán	14	Cerro de Oro	2	Febrero	2023-02-17T00:00:00	2024-11-08T12:00:00	7	Dirección del viento	4.83
132335	7	Sololá	719	Santiago Atitlán	14	Cerro de Oro	2	Febrero	2023-02-17T00:00:00	2024-11-08T12:00:00	1	Precipitación	0
132336	7	Sololá	719	Santiago Atitlán	14	Cerro de Oro	2	Febrero	2023-02-17T00:00:00	2024-11-08T12:00:00	8	Radiación solar	849
132337	7	Sololá	719	Santiago Atitlán	14	Cerro de Oro	2	Febrero	2023-02-17T00:00:00	2024-11-08T13:00:00	2	Temperatura media	24.2
132338	7	Sololá	719	Santiago Atitlán	14	Cerro de Oro	2	Febrero	2023-02-17T00:00:00	2024-11-08T13:00:00	4	Temperatura máxima	24.2
132339	7	Sololá	719	Santiago Atitlán	14	Cerro de Oro	2	Febrero	2023-02-17T00:00:00	2024-11-08T13:00:00	3	Temperatura mínima	23.5
132340	7	Sololá	719	Santiago Atitlán	14	Cerro de Oro	2	Febrero	2023-02-17T00:00:00	2024-11-08T13:00:00	5	Humedad	45
132341	7	Sololá	719	Santiago Atitlán	14	Cerro de Oro	2	Febrero	2023-02-17T00:00:00	2024-11-08T13:00:00	6	Velocidad del viento	20.9
132342	7	Sololá	719	Santiago Atitlán	14	Cerro de Oro	2	Febrero	2023-02-17T00:00:00	2024-11-08T13:00:00	7	Dirección del viento	20.92
132343	7	Sololá	719	Santiago Atitlán	14	Cerro de Oro	2	Febrero	2023-02-17T00:00:00	2024-11-08T13:00:00	1	Precipitación	0
132344	7	Sololá	719	Santiago Atitlán	14	Cerro de Oro	2	Febrero	2023-02-17T00:00:00	2024-11-08T13:00:00	8	Radiación solar	880
132345	7	Sololá	719	Santiago Atitlán	14	Cerro de Oro	2	Febrero	2023-02-17T00:00:00	2024-11-08T14:00:00	2	Temperatura media	23.6
132346	7	Sololá	719	Santiago Atitlán	14	Cerro de Oro	2	Febrero	2023-02-17T00:00:00	2024-11-08T14:00:00	4	Temperatura máxima	24.3
132347	7	Sololá	719	Santiago Atitlán	14	Cerro de Oro	2	Febrero	2023-02-17T00:00:00	2024-11-08T14:00:00	3	Temperatura mínima	23.6
132348	7	Sololá	719	Santiago Atitlán	14	Cerro de Oro	2	Febrero	2023-02-17T00:00:00	2024-11-08T14:00:00	5	Humedad	46
132349	7	Sololá	719	Santiago Atitlán	14	Cerro de Oro	2	Febrero	2023-02-17T00:00:00	2024-11-08T14:00:00	6	Velocidad del viento	17.7
132350	7	Sololá	719	Santiago Atitlán	14	Cerro de Oro	2	Febrero	2023-02-17T00:00:00	2024-11-08T14:00:00	7	Dirección del viento	17.7
132351	7	Sololá	719	Santiago Atitlán	14	Cerro de Oro	2	Febrero	2023-02-17T00:00:00	2024-11-08T14:00:00	1	Precipitación	0
132352	7	Sololá	719	Santiago Atitlán	14	Cerro de Oro	2	Febrero	2023-02-17T00:00:00	2024-11-08T14:00:00	8	Radiación solar	777
132353	7	Sololá	719	Santiago Atitlán	14	Cerro de Oro	2	Febrero	2023-02-17T00:00:00	2024-11-08T15:00:00	2	Temperatura media	23.4
132354	7	Sololá	719	Santiago Atitlán	14	Cerro de Oro	2	Febrero	2023-02-17T00:00:00	2024-11-08T15:00:00	4	Temperatura máxima	23.8
132355	7	Sololá	719	Santiago Atitlán	14	Cerro de Oro	2	Febrero	2023-02-17T00:00:00	2024-11-08T15:00:00	3	Temperatura mínima	23.3
132356	7	Sololá	719	Santiago Atitlán	14	Cerro de Oro	2	Febrero	2023-02-17T00:00:00	2024-11-08T15:00:00	5	Humedad	45
132357	7	Sololá	719	Santiago Atitlán	14	Cerro de Oro	2	Febrero	2023-02-17T00:00:00	2024-11-08T15:00:00	6	Velocidad del viento	17.7
132358	7	Sololá	719	Santiago Atitlán	14	Cerro de Oro	2	Febrero	2023-02-17T00:00:00	2024-11-08T15:00:00	7	Dirección del viento	17.7
132359	7	Sololá	719	Santiago Atitlán	14	Cerro de Oro	2	Febrero	2023-02-17T00:00:00	2024-11-08T15:00:00	1	Precipitación	0
132360	7	Sololá	719	Santiago Atitlán	14	Cerro de Oro	2	Febrero	2023-02-17T00:00:00	2024-11-08T15:00:00	8	Radiación solar	643
132361	7	Sololá	719	Santiago Atitlán	14	Cerro de Oro	2	Febrero	2023-02-17T00:00:00	2024-11-08T16:00:00	2	Temperatura media	22.3
132362	7	Sololá	719	Santiago Atitlán	14	Cerro de Oro	2	Febrero	2023-02-17T00:00:00	2024-11-08T16:00:00	4	Temperatura máxima	23.4
132363	7	Sololá	719	Santiago Atitlán	14	Cerro de Oro	2	Febrero	2023-02-17T00:00:00	2024-11-08T16:00:00	3	Temperatura mínima	22.3
132364	7	Sololá	719	Santiago Atitlán	14	Cerro de Oro	2	Febrero	2023-02-17T00:00:00	2024-11-08T16:00:00	5	Humedad	50
132365	7	Sololá	719	Santiago Atitlán	14	Cerro de Oro	2	Febrero	2023-02-17T00:00:00	2024-11-08T16:00:00	6	Velocidad del viento	17.7
132366	7	Sololá	719	Santiago Atitlán	14	Cerro de Oro	2	Febrero	2023-02-17T00:00:00	2024-11-08T16:00:00	7	Dirección del viento	17.7
132367	7	Sololá	719	Santiago Atitlán	14	Cerro de Oro	2	Febrero	2023-02-17T00:00:00	2024-11-08T16:00:00	1	Precipitación	0
132368	7	Sololá	719	Santiago Atitlán	14	Cerro de Oro	2	Febrero	2023-02-17T00:00:00	2024-11-08T16:00:00	8	Radiación solar	433
132369	7	Sololá	719	Santiago Atitlán	14	Cerro de Oro	2	Febrero	2023-02-17T00:00:00	2024-11-08T17:00:00	2	Temperatura media	21.9
132370	7	Sololá	719	Santiago Atitlán	14	Cerro de Oro	2	Febrero	2023-02-17T00:00:00	2024-11-08T17:00:00	4	Temperatura máxima	22.5
132371	7	Sololá	719	Santiago Atitlán	14	Cerro de Oro	2	Febrero	2023-02-17T00:00:00	2024-11-08T17:00:00	3	Temperatura mínima	21.9
132372	7	Sololá	719	Santiago Atitlán	14	Cerro de Oro	2	Febrero	2023-02-17T00:00:00	2024-11-08T17:00:00	5	Humedad	51
132373	7	Sololá	719	Santiago Atitlán	14	Cerro de Oro	2	Febrero	2023-02-17T00:00:00	2024-11-08T17:00:00	6	Velocidad del viento	16.1
132374	7	Sololá	719	Santiago Atitlán	14	Cerro de Oro	2	Febrero	2023-02-17T00:00:00	2024-11-08T17:00:00	7	Dirección del viento	16.09
132375	7	Sololá	719	Santiago Atitlán	14	Cerro de Oro	2	Febrero	2023-02-17T00:00:00	2024-11-08T17:00:00	1	Precipitación	0
132376	7	Sololá	719	Santiago Atitlán	14	Cerro de Oro	2	Febrero	2023-02-17T00:00:00	2024-11-08T17:00:00	8	Radiación solar	324
132377	7	Sololá	719	Santiago Atitlán	14	Cerro de Oro	2	Febrero	2023-02-17T00:00:00	2024-11-08T18:00:00	2	Temperatura media	20.6
132378	7	Sololá	719	Santiago Atitlán	14	Cerro de Oro	2	Febrero	2023-02-17T00:00:00	2024-11-08T18:00:00	4	Temperatura máxima	21.9
132379	7	Sololá	719	Santiago Atitlán	14	Cerro de Oro	2	Febrero	2023-02-17T00:00:00	2024-11-08T18:00:00	3	Temperatura mínima	20.5
132380	7	Sololá	719	Santiago Atitlán	14	Cerro de Oro	2	Febrero	2023-02-17T00:00:00	2024-11-08T18:00:00	5	Humedad	55
132381	7	Sololá	719	Santiago Atitlán	14	Cerro de Oro	2	Febrero	2023-02-17T00:00:00	2024-11-08T18:00:00	6	Velocidad del viento	17.7
132382	7	Sololá	719	Santiago Atitlán	14	Cerro de Oro	2	Febrero	2023-02-17T00:00:00	2024-11-08T18:00:00	7	Dirección del viento	17.7
132383	7	Sololá	719	Santiago Atitlán	14	Cerro de Oro	2	Febrero	2023-02-17T00:00:00	2024-11-08T18:00:00	1	Precipitación	0
132384	7	Sololá	719	Santiago Atitlán	14	Cerro de Oro	2	Febrero	2023-02-17T00:00:00	2024-11-08T18:00:00	8	Radiación solar	64
132385	7	Sololá	719	Santiago Atitlán	14	Cerro de Oro	2	Febrero	2023-02-17T00:00:00	2024-11-08T19:00:00	2	Temperatura media	19.3
132386	7	Sololá	719	Santiago Atitlán	14	Cerro de Oro	2	Febrero	2023-02-17T00:00:00	2024-11-08T19:00:00	4	Temperatura máxima	20.5
132387	7	Sololá	719	Santiago Atitlán	14	Cerro de Oro	2	Febrero	2023-02-17T00:00:00	2024-11-08T19:00:00	3	Temperatura mínima	19.3
132388	7	Sololá	719	Santiago Atitlán	14	Cerro de Oro	2	Febrero	2023-02-17T00:00:00	2024-11-08T19:00:00	5	Humedad	58
132389	7	Sololá	719	Santiago Atitlán	14	Cerro de Oro	2	Febrero	2023-02-17T00:00:00	2024-11-08T19:00:00	6	Velocidad del viento	17.7
132390	7	Sololá	719	Santiago Atitlán	14	Cerro de Oro	2	Febrero	2023-02-17T00:00:00	2024-11-08T19:00:00	7	Dirección del viento	17.7
132391	7	Sololá	719	Santiago Atitlán	14	Cerro de Oro	2	Febrero	2023-02-17T00:00:00	2024-11-08T19:00:00	1	Precipitación	0
132392	7	Sololá	719	Santiago Atitlán	14	Cerro de Oro	2	Febrero	2023-02-17T00:00:00	2024-11-08T19:00:00	8	Radiación solar	0
132393	7	Sololá	719	Santiago Atitlán	14	Cerro de Oro	2	Febrero	2023-02-17T00:00:00	2024-11-08T20:00:00	2	Temperatura media	19.3
132394	7	Sololá	719	Santiago Atitlán	14	Cerro de Oro	2	Febrero	2023-02-17T00:00:00	2024-11-08T20:00:00	4	Temperatura máxima	19.3
132395	7	Sololá	719	Santiago Atitlán	14	Cerro de Oro	2	Febrero	2023-02-17T00:00:00	2024-11-08T20:00:00	3	Temperatura mínima	19.1
132396	7	Sololá	719	Santiago Atitlán	14	Cerro de Oro	2	Febrero	2023-02-17T00:00:00	2024-11-08T20:00:00	5	Humedad	59
132397	7	Sololá	719	Santiago Atitlán	14	Cerro de Oro	2	Febrero	2023-02-17T00:00:00	2024-11-08T20:00:00	6	Velocidad del viento	11.3
132398	7	Sololá	719	Santiago Atitlán	14	Cerro de Oro	2	Febrero	2023-02-17T00:00:00	2024-11-08T20:00:00	7	Dirección del viento	11.27
132399	7	Sololá	719	Santiago Atitlán	14	Cerro de Oro	2	Febrero	2023-02-17T00:00:00	2024-11-08T20:00:00	1	Precipitación	0
132400	7	Sololá	719	Santiago Atitlán	14	Cerro de Oro	2	Febrero	2023-02-17T00:00:00	2024-11-08T20:00:00	8	Radiación solar	0
132401	7	Sololá	719	Santiago Atitlán	14	Cerro de Oro	2	Febrero	2023-02-17T00:00:00	2024-11-08T21:00:00	2	Temperatura media	18.7
132402	7	Sololá	719	Santiago Atitlán	14	Cerro de Oro	2	Febrero	2023-02-17T00:00:00	2024-11-08T21:00:00	4	Temperatura máxima	19.3
132403	7	Sololá	719	Santiago Atitlán	14	Cerro de Oro	2	Febrero	2023-02-17T00:00:00	2024-11-08T21:00:00	3	Temperatura mínima	18.7
132404	7	Sololá	719	Santiago Atitlán	14	Cerro de Oro	2	Febrero	2023-02-17T00:00:00	2024-11-08T21:00:00	5	Humedad	62
132405	7	Sololá	719	Santiago Atitlán	14	Cerro de Oro	2	Febrero	2023-02-17T00:00:00	2024-11-08T21:00:00	6	Velocidad del viento	9.7
132406	7	Sololá	719	Santiago Atitlán	14	Cerro de Oro	2	Febrero	2023-02-17T00:00:00	2024-11-08T21:00:00	7	Dirección del viento	9.66
132407	7	Sololá	719	Santiago Atitlán	14	Cerro de Oro	2	Febrero	2023-02-17T00:00:00	2024-11-08T21:00:00	1	Precipitación	0
132408	7	Sololá	719	Santiago Atitlán	14	Cerro de Oro	2	Febrero	2023-02-17T00:00:00	2024-11-08T21:00:00	8	Radiación solar	0
132409	7	Sololá	719	Santiago Atitlán	14	Cerro de Oro	2	Febrero	2023-02-17T00:00:00	2024-11-08T22:00:00	2	Temperatura media	18.8
132410	7	Sololá	719	Santiago Atitlán	14	Cerro de Oro	2	Febrero	2023-02-17T00:00:00	2024-11-08T22:00:00	4	Temperatura máxima	18.8
132411	7	Sololá	719	Santiago Atitlán	14	Cerro de Oro	2	Febrero	2023-02-17T00:00:00	2024-11-08T22:00:00	3	Temperatura mínima	18.6
132412	7	Sololá	719	Santiago Atitlán	14	Cerro de Oro	2	Febrero	2023-02-17T00:00:00	2024-11-08T22:00:00	5	Humedad	62
132413	7	Sololá	719	Santiago Atitlán	14	Cerro de Oro	2	Febrero	2023-02-17T00:00:00	2024-11-08T22:00:00	6	Velocidad del viento	9.7
132414	7	Sololá	719	Santiago Atitlán	14	Cerro de Oro	2	Febrero	2023-02-17T00:00:00	2024-11-08T22:00:00	7	Dirección del viento	9.66
132415	7	Sololá	719	Santiago Atitlán	14	Cerro de Oro	2	Febrero	2023-02-17T00:00:00	2024-11-08T22:00:00	1	Precipitación	0
132416	7	Sololá	719	Santiago Atitlán	14	Cerro de Oro	2	Febrero	2023-02-17T00:00:00	2024-11-08T22:00:00	8	Radiación solar	0
132417	7	Sololá	719	Santiago Atitlán	14	Cerro de Oro	2	Febrero	2023-02-17T00:00:00	2024-11-08T23:00:00	2	Temperatura media	19
132418	7	Sololá	719	Santiago Atitlán	14	Cerro de Oro	2	Febrero	2023-02-17T00:00:00	2024-11-08T23:00:00	4	Temperatura máxima	19.1
132419	7	Sololá	719	Santiago Atitlán	14	Cerro de Oro	2	Febrero	2023-02-17T00:00:00	2024-11-08T23:00:00	3	Temperatura mínima	18.7
132420	7	Sololá	719	Santiago Atitlán	14	Cerro de Oro	2	Febrero	2023-02-17T00:00:00	2024-11-08T23:00:00	5	Humedad	64
132421	7	Sololá	719	Santiago Atitlán	14	Cerro de Oro	2	Febrero	2023-02-17T00:00:00	2024-11-08T23:00:00	6	Velocidad del viento	8
132422	7	Sololá	719	Santiago Atitlán	14	Cerro de Oro	2	Febrero	2023-02-17T00:00:00	2024-11-08T23:00:00	7	Dirección del viento	8.05
132423	7	Sololá	719	Santiago Atitlán	14	Cerro de Oro	2	Febrero	2023-02-17T00:00:00	2024-11-08T23:00:00	1	Precipitación	0
132424	7	Sololá	719	Santiago Atitlán	14	Cerro de Oro	2	Febrero	2023-02-17T00:00:00	2024-11-08T23:00:00	8	Radiación solar	0
132425	7	Sololá	719	Santiago Atitlán	14	Cerro de Oro	2	Febrero	2023-02-18T00:00:00	2024-11-08T00:00:00	2	Temperatura media	18.9
132426	7	Sololá	719	Santiago Atitlán	14	Cerro de Oro	2	Febrero	2023-02-18T00:00:00	2024-11-08T00:00:00	4	Temperatura máxima	19.1
132427	7	Sololá	719	Santiago Atitlán	14	Cerro de Oro	2	Febrero	2023-02-18T00:00:00	2024-11-08T00:00:00	3	Temperatura mínima	18.8
132428	7	Sololá	719	Santiago Atitlán	14	Cerro de Oro	2	Febrero	2023-02-18T00:00:00	2024-11-08T00:00:00	5	Humedad	65
132429	7	Sololá	719	Santiago Atitlán	14	Cerro de Oro	2	Febrero	2023-02-18T00:00:00	2024-11-08T00:00:00	6	Velocidad del viento	8
132430	7	Sololá	719	Santiago Atitlán	14	Cerro de Oro	2	Febrero	2023-02-18T00:00:00	2024-11-08T00:00:00	7	Dirección del viento	8.05
132431	7	Sololá	719	Santiago Atitlán	14	Cerro de Oro	2	Febrero	2023-02-18T00:00:00	2024-11-08T00:00:00	1	Precipitación	0
132432	7	Sololá	719	Santiago Atitlán	14	Cerro de Oro	2	Febrero	2023-02-18T00:00:00	2024-11-08T00:00:00	8	Radiación solar	0
132433	7	Sololá	719	Santiago Atitlán	14	Cerro de Oro	2	Febrero	2023-02-18T00:00:00	2024-11-08T01:00:00	2	Temperatura media	19
132434	7	Sololá	719	Santiago Atitlán	14	Cerro de Oro	2	Febrero	2023-02-18T00:00:00	2024-11-08T01:00:00	4	Temperatura máxima	19.2
132435	7	Sololá	719	Santiago Atitlán	14	Cerro de Oro	2	Febrero	2023-02-18T00:00:00	2024-11-08T01:00:00	3	Temperatura mínima	18.9
132436	7	Sololá	719	Santiago Atitlán	14	Cerro de Oro	2	Febrero	2023-02-18T00:00:00	2024-11-08T01:00:00	5	Humedad	65
132437	7	Sololá	719	Santiago Atitlán	14	Cerro de Oro	2	Febrero	2023-02-18T00:00:00	2024-11-08T01:00:00	6	Velocidad del viento	9.7
132438	7	Sololá	719	Santiago Atitlán	14	Cerro de Oro	2	Febrero	2023-02-18T00:00:00	2024-11-08T01:00:00	7	Dirección del viento	9.66
132439	7	Sololá	719	Santiago Atitlán	14	Cerro de Oro	2	Febrero	2023-02-18T00:00:00	2024-11-08T01:00:00	1	Precipitación	0
132440	7	Sololá	719	Santiago Atitlán	14	Cerro de Oro	2	Febrero	2023-02-18T00:00:00	2024-11-08T01:00:00	8	Radiación solar	0
132441	7	Sololá	719	Santiago Atitlán	14	Cerro de Oro	2	Febrero	2023-02-18T00:00:00	2024-11-08T02:00:00	2	Temperatura media	18.7
132442	7	Sololá	719	Santiago Atitlán	14	Cerro de Oro	2	Febrero	2023-02-18T00:00:00	2024-11-08T02:00:00	4	Temperatura máxima	19
132443	7	Sololá	719	Santiago Atitlán	14	Cerro de Oro	2	Febrero	2023-02-18T00:00:00	2024-11-08T02:00:00	3	Temperatura mínima	18.7
132444	7	Sololá	719	Santiago Atitlán	14	Cerro de Oro	2	Febrero	2023-02-18T00:00:00	2024-11-08T02:00:00	5	Humedad	68
132445	7	Sololá	719	Santiago Atitlán	14	Cerro de Oro	2	Febrero	2023-02-18T00:00:00	2024-11-08T02:00:00	6	Velocidad del viento	8
132446	7	Sololá	719	Santiago Atitlán	14	Cerro de Oro	2	Febrero	2023-02-18T00:00:00	2024-11-08T02:00:00	7	Dirección del viento	8.05
132447	7	Sololá	719	Santiago Atitlán	14	Cerro de Oro	2	Febrero	2023-02-18T00:00:00	2024-11-08T02:00:00	1	Precipitación	0
132448	7	Sololá	719	Santiago Atitlán	14	Cerro de Oro	2	Febrero	2023-02-18T00:00:00	2024-11-08T02:00:00	8	Radiación solar	0
132449	7	Sololá	719	Santiago Atitlán	14	Cerro de Oro	2	Febrero	2023-02-18T00:00:00	2024-11-08T03:00:00	2	Temperatura media	18.4
132450	7	Sololá	719	Santiago Atitlán	14	Cerro de Oro	2	Febrero	2023-02-18T00:00:00	2024-11-08T03:00:00	4	Temperatura máxima	18.7
132451	7	Sololá	719	Santiago Atitlán	14	Cerro de Oro	2	Febrero	2023-02-18T00:00:00	2024-11-08T03:00:00	3	Temperatura mínima	18.2
132452	7	Sololá	719	Santiago Atitlán	14	Cerro de Oro	2	Febrero	2023-02-18T00:00:00	2024-11-08T03:00:00	5	Humedad	66
132453	7	Sololá	719	Santiago Atitlán	14	Cerro de Oro	2	Febrero	2023-02-18T00:00:00	2024-11-08T03:00:00	6	Velocidad del viento	8
132454	7	Sololá	719	Santiago Atitlán	14	Cerro de Oro	2	Febrero	2023-02-18T00:00:00	2024-11-08T03:00:00	7	Dirección del viento	8.05
132455	7	Sololá	719	Santiago Atitlán	14	Cerro de Oro	2	Febrero	2023-02-18T00:00:00	2024-11-08T03:00:00	1	Precipitación	0
132456	7	Sololá	719	Santiago Atitlán	14	Cerro de Oro	2	Febrero	2023-02-18T00:00:00	2024-11-08T03:00:00	8	Radiación solar	0
132457	7	Sololá	719	Santiago Atitlán	14	Cerro de Oro	2	Febrero	2023-02-18T00:00:00	2024-11-08T04:00:00	2	Temperatura media	18.1
132458	7	Sololá	719	Santiago Atitlán	14	Cerro de Oro	2	Febrero	2023-02-18T00:00:00	2024-11-08T04:00:00	4	Temperatura máxima	18.6
132459	7	Sololá	719	Santiago Atitlán	14	Cerro de Oro	2	Febrero	2023-02-18T00:00:00	2024-11-08T04:00:00	3	Temperatura mínima	17.9
132460	7	Sololá	719	Santiago Atitlán	14	Cerro de Oro	2	Febrero	2023-02-18T00:00:00	2024-11-08T04:00:00	5	Humedad	58
132461	7	Sololá	719	Santiago Atitlán	14	Cerro de Oro	2	Febrero	2023-02-18T00:00:00	2024-11-08T04:00:00	6	Velocidad del viento	14.5
132462	7	Sololá	719	Santiago Atitlán	14	Cerro de Oro	2	Febrero	2023-02-18T00:00:00	2024-11-08T04:00:00	7	Dirección del viento	14.48
132463	7	Sololá	719	Santiago Atitlán	14	Cerro de Oro	2	Febrero	2023-02-18T00:00:00	2024-11-08T04:00:00	1	Precipitación	0
132464	7	Sololá	719	Santiago Atitlán	14	Cerro de Oro	2	Febrero	2023-02-18T00:00:00	2024-11-08T04:00:00	8	Radiación solar	0
132465	7	Sololá	719	Santiago Atitlán	14	Cerro de Oro	2	Febrero	2023-02-18T00:00:00	2024-11-08T05:00:00	2	Temperatura media	17.4
132466	7	Sololá	719	Santiago Atitlán	14	Cerro de Oro	2	Febrero	2023-02-18T00:00:00	2024-11-08T05:00:00	4	Temperatura máxima	18.1
132467	7	Sololá	719	Santiago Atitlán	14	Cerro de Oro	2	Febrero	2023-02-18T00:00:00	2024-11-08T05:00:00	3	Temperatura mínima	17.4
132468	7	Sololá	719	Santiago Atitlán	14	Cerro de Oro	2	Febrero	2023-02-18T00:00:00	2024-11-08T05:00:00	5	Humedad	60
132469	7	Sololá	719	Santiago Atitlán	14	Cerro de Oro	2	Febrero	2023-02-18T00:00:00	2024-11-08T05:00:00	6	Velocidad del viento	14.5
132470	7	Sololá	719	Santiago Atitlán	14	Cerro de Oro	2	Febrero	2023-02-18T00:00:00	2024-11-08T05:00:00	7	Dirección del viento	14.48
132471	7	Sololá	719	Santiago Atitlán	14	Cerro de Oro	2	Febrero	2023-02-18T00:00:00	2024-11-08T05:00:00	1	Precipitación	0
132472	7	Sololá	719	Santiago Atitlán	14	Cerro de Oro	2	Febrero	2023-02-18T00:00:00	2024-11-08T05:00:00	8	Radiación solar	0
132473	7	Sololá	719	Santiago Atitlán	14	Cerro de Oro	2	Febrero	2023-02-18T00:00:00	2024-11-08T06:00:00	2	Temperatura media	17.1
132474	7	Sololá	719	Santiago Atitlán	14	Cerro de Oro	2	Febrero	2023-02-18T00:00:00	2024-11-08T06:00:00	4	Temperatura máxima	17.4
132475	7	Sololá	719	Santiago Atitlán	14	Cerro de Oro	2	Febrero	2023-02-18T00:00:00	2024-11-08T06:00:00	3	Temperatura mínima	17.1
132476	7	Sololá	719	Santiago Atitlán	14	Cerro de Oro	2	Febrero	2023-02-18T00:00:00	2024-11-08T06:00:00	5	Humedad	61
132477	7	Sololá	719	Santiago Atitlán	14	Cerro de Oro	2	Febrero	2023-02-18T00:00:00	2024-11-08T06:00:00	6	Velocidad del viento	11.3
132478	7	Sololá	719	Santiago Atitlán	14	Cerro de Oro	2	Febrero	2023-02-18T00:00:00	2024-11-08T06:00:00	7	Dirección del viento	11.27
132479	7	Sololá	719	Santiago Atitlán	14	Cerro de Oro	2	Febrero	2023-02-18T00:00:00	2024-11-08T06:00:00	1	Precipitación	0
132480	7	Sololá	719	Santiago Atitlán	14	Cerro de Oro	2	Febrero	2023-02-18T00:00:00	2024-11-08T06:00:00	8	Radiación solar	0
132481	7	Sololá	719	Santiago Atitlán	14	Cerro de Oro	2	Febrero	2023-02-18T00:00:00	2024-11-08T07:00:00	2	Temperatura media	17.1
132482	7	Sololá	719	Santiago Atitlán	14	Cerro de Oro	2	Febrero	2023-02-18T00:00:00	2024-11-08T07:00:00	4	Temperatura máxima	17.2
132483	7	Sololá	719	Santiago Atitlán	14	Cerro de Oro	2	Febrero	2023-02-18T00:00:00	2024-11-08T07:00:00	3	Temperatura mínima	16.8
132484	7	Sololá	719	Santiago Atitlán	14	Cerro de Oro	2	Febrero	2023-02-18T00:00:00	2024-11-08T07:00:00	5	Humedad	58
132485	7	Sololá	719	Santiago Atitlán	14	Cerro de Oro	2	Febrero	2023-02-18T00:00:00	2024-11-08T07:00:00	6	Velocidad del viento	11.3
132486	7	Sololá	719	Santiago Atitlán	14	Cerro de Oro	2	Febrero	2023-02-18T00:00:00	2024-11-08T07:00:00	7	Dirección del viento	11.27
132487	7	Sololá	719	Santiago Atitlán	14	Cerro de Oro	2	Febrero	2023-02-18T00:00:00	2024-11-08T07:00:00	1	Precipitación	0
132488	7	Sololá	719	Santiago Atitlán	14	Cerro de Oro	2	Febrero	2023-02-18T00:00:00	2024-11-08T07:00:00	8	Radiación solar	11
132489	7	Sololá	719	Santiago Atitlán	14	Cerro de Oro	2	Febrero	2023-02-18T00:00:00	2024-11-08T08:00:00	2	Temperatura media	18
132490	7	Sololá	719	Santiago Atitlán	14	Cerro de Oro	2	Febrero	2023-02-18T00:00:00	2024-11-08T08:00:00	4	Temperatura máxima	18.1
132491	7	Sololá	719	Santiago Atitlán	14	Cerro de Oro	2	Febrero	2023-02-18T00:00:00	2024-11-08T08:00:00	3	Temperatura mínima	17.1
132492	7	Sololá	719	Santiago Atitlán	14	Cerro de Oro	2	Febrero	2023-02-18T00:00:00	2024-11-08T08:00:00	5	Humedad	57
132493	7	Sololá	719	Santiago Atitlán	14	Cerro de Oro	2	Febrero	2023-02-18T00:00:00	2024-11-08T08:00:00	6	Velocidad del viento	9.7
132494	7	Sololá	719	Santiago Atitlán	14	Cerro de Oro	2	Febrero	2023-02-18T00:00:00	2024-11-08T08:00:00	7	Dirección del viento	9.66
132495	7	Sololá	719	Santiago Atitlán	14	Cerro de Oro	2	Febrero	2023-02-18T00:00:00	2024-11-08T08:00:00	1	Precipitación	0
132496	7	Sololá	719	Santiago Atitlán	14	Cerro de Oro	2	Febrero	2023-02-18T00:00:00	2024-11-08T08:00:00	8	Radiación solar	175
132497	7	Sololá	719	Santiago Atitlán	14	Cerro de Oro	2	Febrero	2023-02-18T00:00:00	2024-11-08T09:00:00	2	Temperatura media	19
132498	7	Sololá	719	Santiago Atitlán	14	Cerro de Oro	2	Febrero	2023-02-18T00:00:00	2024-11-08T09:00:00	4	Temperatura máxima	19.1
132499	7	Sololá	719	Santiago Atitlán	14	Cerro de Oro	2	Febrero	2023-02-18T00:00:00	2024-11-08T09:00:00	3	Temperatura mínima	18
132500	7	Sololá	719	Santiago Atitlán	14	Cerro de Oro	2	Febrero	2023-02-18T00:00:00	2024-11-08T09:00:00	5	Humedad	55
132501	7	Sololá	719	Santiago Atitlán	14	Cerro de Oro	2	Febrero	2023-02-18T00:00:00	2024-11-08T09:00:00	6	Velocidad del viento	12.9
132502	7	Sololá	719	Santiago Atitlán	14	Cerro de Oro	2	Febrero	2023-02-18T00:00:00	2024-11-08T09:00:00	7	Dirección del viento	12.87
132503	7	Sololá	719	Santiago Atitlán	14	Cerro de Oro	2	Febrero	2023-02-18T00:00:00	2024-11-08T09:00:00	1	Precipitación	0
132504	7	Sololá	719	Santiago Atitlán	14	Cerro de Oro	2	Febrero	2023-02-18T00:00:00	2024-11-08T09:00:00	8	Radiación solar	417
132505	7	Sololá	719	Santiago Atitlán	14	Cerro de Oro	2	Febrero	2023-02-18T00:00:00	2024-11-08T10:00:00	2	Temperatura media	19.4
132506	7	Sololá	719	Santiago Atitlán	14	Cerro de Oro	2	Febrero	2023-02-18T00:00:00	2024-11-08T10:00:00	4	Temperatura máxima	19.7
132507	7	Sololá	719	Santiago Atitlán	14	Cerro de Oro	2	Febrero	2023-02-18T00:00:00	2024-11-08T10:00:00	3	Temperatura mínima	18.9
132508	7	Sololá	719	Santiago Atitlán	14	Cerro de Oro	2	Febrero	2023-02-18T00:00:00	2024-11-08T10:00:00	5	Humedad	58
132509	7	Sololá	719	Santiago Atitlán	14	Cerro de Oro	2	Febrero	2023-02-18T00:00:00	2024-11-08T10:00:00	6	Velocidad del viento	16.1
132510	7	Sololá	719	Santiago Atitlán	14	Cerro de Oro	2	Febrero	2023-02-18T00:00:00	2024-11-08T10:00:00	7	Dirección del viento	16.09
132511	7	Sololá	719	Santiago Atitlán	14	Cerro de Oro	2	Febrero	2023-02-18T00:00:00	2024-11-08T10:00:00	1	Precipitación	0
132512	7	Sololá	719	Santiago Atitlán	14	Cerro de Oro	2	Febrero	2023-02-18T00:00:00	2024-11-08T10:00:00	8	Radiación solar	630
132513	7	Sololá	719	Santiago Atitlán	14	Cerro de Oro	2	Febrero	2023-02-18T00:00:00	2024-11-08T11:00:00	2	Temperatura media	20.2
132514	7	Sololá	719	Santiago Atitlán	14	Cerro de Oro	2	Febrero	2023-02-18T00:00:00	2024-11-08T11:00:00	4	Temperatura máxima	20.2
132515	7	Sololá	719	Santiago Atitlán	14	Cerro de Oro	2	Febrero	2023-02-18T00:00:00	2024-11-08T11:00:00	3	Temperatura mínima	19.4
132516	7	Sololá	719	Santiago Atitlán	14	Cerro de Oro	2	Febrero	2023-02-18T00:00:00	2024-11-08T11:00:00	5	Humedad	60
132517	7	Sololá	719	Santiago Atitlán	14	Cerro de Oro	2	Febrero	2023-02-18T00:00:00	2024-11-08T11:00:00	6	Velocidad del viento	16.1
132518	7	Sololá	719	Santiago Atitlán	14	Cerro de Oro	2	Febrero	2023-02-18T00:00:00	2024-11-08T11:00:00	7	Dirección del viento	16.09
132519	7	Sololá	719	Santiago Atitlán	14	Cerro de Oro	2	Febrero	2023-02-18T00:00:00	2024-11-08T11:00:00	1	Precipitación	0
132520	7	Sololá	719	Santiago Atitlán	14	Cerro de Oro	2	Febrero	2023-02-18T00:00:00	2024-11-08T11:00:00	8	Radiación solar	792
132521	7	Sololá	719	Santiago Atitlán	14	Cerro de Oro	2	Febrero	2023-02-18T00:00:00	2024-11-08T12:00:00	2	Temperatura media	20.9
132522	7	Sololá	719	Santiago Atitlán	14	Cerro de Oro	2	Febrero	2023-02-18T00:00:00	2024-11-08T12:00:00	4	Temperatura máxima	20.9
132523	7	Sololá	719	Santiago Atitlán	14	Cerro de Oro	2	Febrero	2023-02-18T00:00:00	2024-11-08T12:00:00	3	Temperatura mínima	20.3
132524	7	Sololá	719	Santiago Atitlán	14	Cerro de Oro	2	Febrero	2023-02-18T00:00:00	2024-11-08T12:00:00	5	Humedad	60
132525	7	Sololá	719	Santiago Atitlán	14	Cerro de Oro	2	Febrero	2023-02-18T00:00:00	2024-11-08T12:00:00	6	Velocidad del viento	17.7
132526	7	Sololá	719	Santiago Atitlán	14	Cerro de Oro	2	Febrero	2023-02-18T00:00:00	2024-11-08T12:00:00	7	Dirección del viento	17.7
132527	7	Sololá	719	Santiago Atitlán	14	Cerro de Oro	2	Febrero	2023-02-18T00:00:00	2024-11-08T12:00:00	1	Precipitación	0
132528	7	Sololá	719	Santiago Atitlán	14	Cerro de Oro	2	Febrero	2023-02-18T00:00:00	2024-11-08T12:00:00	8	Radiación solar	918
132529	7	Sololá	719	Santiago Atitlán	14	Cerro de Oro	2	Febrero	2023-02-18T00:00:00	2024-11-08T13:00:00	2	Temperatura media	20.6
132530	7	Sololá	719	Santiago Atitlán	14	Cerro de Oro	2	Febrero	2023-02-18T00:00:00	2024-11-08T13:00:00	4	Temperatura máxima	21.5
132531	7	Sololá	719	Santiago Atitlán	14	Cerro de Oro	2	Febrero	2023-02-18T00:00:00	2024-11-08T13:00:00	3	Temperatura mínima	20.6
132532	7	Sololá	719	Santiago Atitlán	14	Cerro de Oro	2	Febrero	2023-02-18T00:00:00	2024-11-08T13:00:00	5	Humedad	59
132533	7	Sololá	719	Santiago Atitlán	14	Cerro de Oro	2	Febrero	2023-02-18T00:00:00	2024-11-08T13:00:00	6	Velocidad del viento	19.3
132534	7	Sololá	719	Santiago Atitlán	14	Cerro de Oro	2	Febrero	2023-02-18T00:00:00	2024-11-08T13:00:00	7	Dirección del viento	19.31
132535	7	Sololá	719	Santiago Atitlán	14	Cerro de Oro	2	Febrero	2023-02-18T00:00:00	2024-11-08T13:00:00	1	Precipitación	0
132536	7	Sololá	719	Santiago Atitlán	14	Cerro de Oro	2	Febrero	2023-02-18T00:00:00	2024-11-08T13:00:00	8	Radiación solar	980
132537	7	Sololá	719	Santiago Atitlán	14	Cerro de Oro	2	Febrero	2023-02-18T00:00:00	2024-11-08T14:00:00	2	Temperatura media	20.5
132538	7	Sololá	719	Santiago Atitlán	14	Cerro de Oro	2	Febrero	2023-02-18T00:00:00	2024-11-08T14:00:00	4	Temperatura máxima	21.2
132539	7	Sololá	719	Santiago Atitlán	14	Cerro de Oro	2	Febrero	2023-02-18T00:00:00	2024-11-08T14:00:00	3	Temperatura mínima	20.4
132540	7	Sololá	719	Santiago Atitlán	14	Cerro de Oro	2	Febrero	2023-02-18T00:00:00	2024-11-08T14:00:00	5	Humedad	61
132541	7	Sololá	719	Santiago Atitlán	14	Cerro de Oro	2	Febrero	2023-02-18T00:00:00	2024-11-08T14:00:00	6	Velocidad del viento	19.3
132542	7	Sololá	719	Santiago Atitlán	14	Cerro de Oro	2	Febrero	2023-02-18T00:00:00	2024-11-08T14:00:00	7	Dirección del viento	19.31
132543	7	Sololá	719	Santiago Atitlán	14	Cerro de Oro	2	Febrero	2023-02-18T00:00:00	2024-11-08T14:00:00	1	Precipitación	0
132544	7	Sololá	719	Santiago Atitlán	14	Cerro de Oro	2	Febrero	2023-02-18T00:00:00	2024-11-08T14:00:00	8	Radiación solar	865
132545	7	Sololá	719	Santiago Atitlán	14	Cerro de Oro	2	Febrero	2023-02-18T00:00:00	2024-11-08T15:00:00	2	Temperatura media	20.1
132546	7	Sololá	719	Santiago Atitlán	14	Cerro de Oro	2	Febrero	2023-02-18T00:00:00	2024-11-08T15:00:00	4	Temperatura máxima	20.6
132547	7	Sololá	719	Santiago Atitlán	14	Cerro de Oro	2	Febrero	2023-02-18T00:00:00	2024-11-08T15:00:00	3	Temperatura mínima	20.1
132548	7	Sololá	719	Santiago Atitlán	14	Cerro de Oro	2	Febrero	2023-02-18T00:00:00	2024-11-08T15:00:00	5	Humedad	62
132549	7	Sololá	719	Santiago Atitlán	14	Cerro de Oro	2	Febrero	2023-02-18T00:00:00	2024-11-08T15:00:00	6	Velocidad del viento	17.7
132550	7	Sololá	719	Santiago Atitlán	14	Cerro de Oro	2	Febrero	2023-02-18T00:00:00	2024-11-08T15:00:00	7	Dirección del viento	17.7
132551	7	Sololá	719	Santiago Atitlán	14	Cerro de Oro	2	Febrero	2023-02-18T00:00:00	2024-11-08T15:00:00	1	Precipitación	0
132552	7	Sololá	719	Santiago Atitlán	14	Cerro de Oro	2	Febrero	2023-02-18T00:00:00	2024-11-08T15:00:00	8	Radiación solar	335
132553	7	Sololá	719	Santiago Atitlán	14	Cerro de Oro	2	Febrero	2023-02-18T00:00:00	2024-11-08T16:00:00	2	Temperatura media	19.8
132554	7	Sololá	719	Santiago Atitlán	14	Cerro de Oro	2	Febrero	2023-02-18T00:00:00	2024-11-08T16:00:00	4	Temperatura máxima	20.7
132555	7	Sololá	719	Santiago Atitlán	14	Cerro de Oro	2	Febrero	2023-02-18T00:00:00	2024-11-08T16:00:00	3	Temperatura mínima	19.8
132556	7	Sololá	719	Santiago Atitlán	14	Cerro de Oro	2	Febrero	2023-02-18T00:00:00	2024-11-08T16:00:00	5	Humedad	64
132557	7	Sololá	719	Santiago Atitlán	14	Cerro de Oro	2	Febrero	2023-02-18T00:00:00	2024-11-08T16:00:00	6	Velocidad del viento	16.1
132558	7	Sololá	719	Santiago Atitlán	14	Cerro de Oro	2	Febrero	2023-02-18T00:00:00	2024-11-08T16:00:00	7	Dirección del viento	16.09
132559	7	Sololá	719	Santiago Atitlán	14	Cerro de Oro	2	Febrero	2023-02-18T00:00:00	2024-11-08T16:00:00	1	Precipitación	0
132560	7	Sololá	719	Santiago Atitlán	14	Cerro de Oro	2	Febrero	2023-02-18T00:00:00	2024-11-08T16:00:00	8	Radiación solar	272
132561	7	Sololá	719	Santiago Atitlán	14	Cerro de Oro	2	Febrero	2023-02-18T00:00:00	2024-11-08T17:00:00	2	Temperatura media	19.5
132562	7	Sololá	719	Santiago Atitlán	14	Cerro de Oro	2	Febrero	2023-02-18T00:00:00	2024-11-08T17:00:00	4	Temperatura máxima	19.9
132563	7	Sololá	719	Santiago Atitlán	14	Cerro de Oro	2	Febrero	2023-02-18T00:00:00	2024-11-08T17:00:00	3	Temperatura mínima	19.3
132564	7	Sololá	719	Santiago Atitlán	14	Cerro de Oro	2	Febrero	2023-02-18T00:00:00	2024-11-08T17:00:00	5	Humedad	63
132565	7	Sololá	719	Santiago Atitlán	14	Cerro de Oro	2	Febrero	2023-02-18T00:00:00	2024-11-08T17:00:00	6	Velocidad del viento	14.5
132566	7	Sololá	719	Santiago Atitlán	14	Cerro de Oro	2	Febrero	2023-02-18T00:00:00	2024-11-08T17:00:00	7	Dirección del viento	14.48
132567	7	Sololá	719	Santiago Atitlán	14	Cerro de Oro	2	Febrero	2023-02-18T00:00:00	2024-11-08T17:00:00	1	Precipitación	0
132568	7	Sololá	719	Santiago Atitlán	14	Cerro de Oro	2	Febrero	2023-02-18T00:00:00	2024-11-08T17:00:00	8	Radiación solar	200
132569	7	Sololá	719	Santiago Atitlán	14	Cerro de Oro	2	Febrero	2023-02-18T00:00:00	2024-11-08T18:00:00	2	Temperatura media	18.9
132570	7	Sololá	719	Santiago Atitlán	14	Cerro de Oro	2	Febrero	2023-02-18T00:00:00	2024-11-08T18:00:00	4	Temperatura máxima	19.7
132571	7	Sololá	719	Santiago Atitlán	14	Cerro de Oro	2	Febrero	2023-02-18T00:00:00	2024-11-08T18:00:00	3	Temperatura mínima	18.8
132572	7	Sololá	719	Santiago Atitlán	14	Cerro de Oro	2	Febrero	2023-02-18T00:00:00	2024-11-08T18:00:00	5	Humedad	64
132573	7	Sololá	719	Santiago Atitlán	14	Cerro de Oro	2	Febrero	2023-02-18T00:00:00	2024-11-08T18:00:00	6	Velocidad del viento	14.5
132574	7	Sololá	719	Santiago Atitlán	14	Cerro de Oro	2	Febrero	2023-02-18T00:00:00	2024-11-08T18:00:00	7	Dirección del viento	14.48
132575	7	Sololá	719	Santiago Atitlán	14	Cerro de Oro	2	Febrero	2023-02-18T00:00:00	2024-11-08T18:00:00	1	Precipitación	0
132576	7	Sololá	719	Santiago Atitlán	14	Cerro de Oro	2	Febrero	2023-02-18T00:00:00	2024-11-08T18:00:00	8	Radiación solar	52
132577	7	Sololá	719	Santiago Atitlán	14	Cerro de Oro	2	Febrero	2023-02-18T00:00:00	2024-11-08T19:00:00	2	Temperatura media	18.3
132578	7	Sololá	719	Santiago Atitlán	14	Cerro de Oro	2	Febrero	2023-02-18T00:00:00	2024-11-08T19:00:00	4	Temperatura máxima	18.9
132579	7	Sololá	719	Santiago Atitlán	14	Cerro de Oro	2	Febrero	2023-02-18T00:00:00	2024-11-08T19:00:00	3	Temperatura mínima	18.2
132580	7	Sololá	719	Santiago Atitlán	14	Cerro de Oro	2	Febrero	2023-02-18T00:00:00	2024-11-08T19:00:00	5	Humedad	57
132581	7	Sololá	719	Santiago Atitlán	14	Cerro de Oro	2	Febrero	2023-02-18T00:00:00	2024-11-08T19:00:00	6	Velocidad del viento	9.7
132582	7	Sololá	719	Santiago Atitlán	14	Cerro de Oro	2	Febrero	2023-02-18T00:00:00	2024-11-08T19:00:00	7	Dirección del viento	9.66
132583	7	Sololá	719	Santiago Atitlán	14	Cerro de Oro	2	Febrero	2023-02-18T00:00:00	2024-11-08T19:00:00	1	Precipitación	0
132584	7	Sololá	719	Santiago Atitlán	14	Cerro de Oro	2	Febrero	2023-02-18T00:00:00	2024-11-08T19:00:00	8	Radiación solar	0
132585	7	Sololá	719	Santiago Atitlán	14	Cerro de Oro	2	Febrero	2023-02-18T00:00:00	2024-11-08T20:00:00	2	Temperatura media	18
132586	7	Sololá	719	Santiago Atitlán	14	Cerro de Oro	2	Febrero	2023-02-18T00:00:00	2024-11-08T20:00:00	4	Temperatura máxima	18.3
132587	7	Sololá	719	Santiago Atitlán	14	Cerro de Oro	2	Febrero	2023-02-18T00:00:00	2024-11-08T20:00:00	3	Temperatura mínima	18
132588	7	Sololá	719	Santiago Atitlán	14	Cerro de Oro	2	Febrero	2023-02-18T00:00:00	2024-11-08T20:00:00	5	Humedad	64
132589	7	Sololá	719	Santiago Atitlán	14	Cerro de Oro	2	Febrero	2023-02-18T00:00:00	2024-11-08T20:00:00	6	Velocidad del viento	9.7
132590	7	Sololá	719	Santiago Atitlán	14	Cerro de Oro	2	Febrero	2023-02-18T00:00:00	2024-11-08T20:00:00	7	Dirección del viento	9.66
132591	7	Sololá	719	Santiago Atitlán	14	Cerro de Oro	2	Febrero	2023-02-18T00:00:00	2024-11-08T20:00:00	1	Precipitación	0
132592	7	Sololá	719	Santiago Atitlán	14	Cerro de Oro	2	Febrero	2023-02-18T00:00:00	2024-11-08T20:00:00	8	Radiación solar	0
132593	7	Sololá	719	Santiago Atitlán	14	Cerro de Oro	2	Febrero	2023-02-18T00:00:00	2024-11-08T21:00:00	2	Temperatura media	17.5
132594	7	Sololá	719	Santiago Atitlán	14	Cerro de Oro	2	Febrero	2023-02-18T00:00:00	2024-11-08T21:00:00	4	Temperatura máxima	18
132595	7	Sololá	719	Santiago Atitlán	14	Cerro de Oro	2	Febrero	2023-02-18T00:00:00	2024-11-08T21:00:00	3	Temperatura mínima	17.5
132596	7	Sololá	719	Santiago Atitlán	14	Cerro de Oro	2	Febrero	2023-02-18T00:00:00	2024-11-08T21:00:00	5	Humedad	64
132597	7	Sololá	719	Santiago Atitlán	14	Cerro de Oro	2	Febrero	2023-02-18T00:00:00	2024-11-08T21:00:00	6	Velocidad del viento	12.9
132598	7	Sololá	719	Santiago Atitlán	14	Cerro de Oro	2	Febrero	2023-02-18T00:00:00	2024-11-08T21:00:00	7	Dirección del viento	12.87
132599	7	Sololá	719	Santiago Atitlán	14	Cerro de Oro	2	Febrero	2023-02-18T00:00:00	2024-11-08T21:00:00	1	Precipitación	0
132600	7	Sololá	719	Santiago Atitlán	14	Cerro de Oro	2	Febrero	2023-02-18T00:00:00	2024-11-08T21:00:00	8	Radiación solar	0
132601	7	Sololá	719	Santiago Atitlán	14	Cerro de Oro	2	Febrero	2023-02-18T00:00:00	2024-11-08T22:00:00	2	Temperatura media	17.2
132602	7	Sololá	719	Santiago Atitlán	14	Cerro de Oro	2	Febrero	2023-02-18T00:00:00	2024-11-08T22:00:00	4	Temperatura máxima	17.6
132603	7	Sololá	719	Santiago Atitlán	14	Cerro de Oro	2	Febrero	2023-02-18T00:00:00	2024-11-08T22:00:00	3	Temperatura mínima	17.2
132604	7	Sololá	719	Santiago Atitlán	14	Cerro de Oro	2	Febrero	2023-02-18T00:00:00	2024-11-08T22:00:00	5	Humedad	69
132605	7	Sololá	719	Santiago Atitlán	14	Cerro de Oro	2	Febrero	2023-02-18T00:00:00	2024-11-08T22:00:00	6	Velocidad del viento	16.1
132606	7	Sololá	719	Santiago Atitlán	14	Cerro de Oro	2	Febrero	2023-02-18T00:00:00	2024-11-08T22:00:00	7	Dirección del viento	16.09
132607	7	Sololá	719	Santiago Atitlán	14	Cerro de Oro	2	Febrero	2023-02-18T00:00:00	2024-11-08T22:00:00	1	Precipitación	0
132608	7	Sololá	719	Santiago Atitlán	14	Cerro de Oro	2	Febrero	2023-02-18T00:00:00	2024-11-08T22:00:00	8	Radiación solar	0
132609	7	Sololá	719	Santiago Atitlán	14	Cerro de Oro	2	Febrero	2023-02-18T00:00:00	2024-11-08T23:00:00	2	Temperatura media	17.3
132610	7	Sololá	719	Santiago Atitlán	14	Cerro de Oro	2	Febrero	2023-02-18T00:00:00	2024-11-08T23:00:00	4	Temperatura máxima	17.5
132611	7	Sololá	719	Santiago Atitlán	14	Cerro de Oro	2	Febrero	2023-02-18T00:00:00	2024-11-08T23:00:00	3	Temperatura mínima	17
132612	7	Sololá	719	Santiago Atitlán	14	Cerro de Oro	2	Febrero	2023-02-18T00:00:00	2024-11-08T23:00:00	5	Humedad	69
132613	7	Sololá	719	Santiago Atitlán	14	Cerro de Oro	2	Febrero	2023-02-18T00:00:00	2024-11-08T23:00:00	6	Velocidad del viento	16.1
132614	7	Sololá	719	Santiago Atitlán	14	Cerro de Oro	2	Febrero	2023-02-18T00:00:00	2024-11-08T23:00:00	7	Dirección del viento	16.09
132615	7	Sololá	719	Santiago Atitlán	14	Cerro de Oro	2	Febrero	2023-02-18T00:00:00	2024-11-08T23:00:00	1	Precipitación	0
132616	7	Sololá	719	Santiago Atitlán	14	Cerro de Oro	2	Febrero	2023-02-18T00:00:00	2024-11-08T23:00:00	8	Radiación solar	0
132617	7	Sololá	719	Santiago Atitlán	14	Cerro de Oro	2	Febrero	2023-02-19T00:00:00	2024-11-08T00:00:00	2	Temperatura media	17.5
132618	7	Sololá	719	Santiago Atitlán	14	Cerro de Oro	2	Febrero	2023-02-19T00:00:00	2024-11-08T00:00:00	4	Temperatura máxima	17.5
132619	7	Sololá	719	Santiago Atitlán	14	Cerro de Oro	2	Febrero	2023-02-19T00:00:00	2024-11-08T00:00:00	3	Temperatura mínima	17.2
132620	7	Sololá	719	Santiago Atitlán	14	Cerro de Oro	2	Febrero	2023-02-19T00:00:00	2024-11-08T00:00:00	5	Humedad	70
132621	7	Sololá	719	Santiago Atitlán	14	Cerro de Oro	2	Febrero	2023-02-19T00:00:00	2024-11-08T00:00:00	6	Velocidad del viento	16.1
132622	7	Sololá	719	Santiago Atitlán	14	Cerro de Oro	2	Febrero	2023-02-19T00:00:00	2024-11-08T00:00:00	7	Dirección del viento	16.09
132623	7	Sololá	719	Santiago Atitlán	14	Cerro de Oro	2	Febrero	2023-02-19T00:00:00	2024-11-08T00:00:00	1	Precipitación	0
132624	7	Sololá	719	Santiago Atitlán	14	Cerro de Oro	2	Febrero	2023-02-19T00:00:00	2024-11-08T00:00:00	8	Radiación solar	0
132625	7	Sololá	719	Santiago Atitlán	14	Cerro de Oro	2	Febrero	2023-02-19T00:00:00	2024-11-08T01:00:00	2	Temperatura media	16.9
132626	7	Sololá	719	Santiago Atitlán	14	Cerro de Oro	2	Febrero	2023-02-19T00:00:00	2024-11-08T01:00:00	4	Temperatura máxima	17.7
132627	7	Sololá	719	Santiago Atitlán	14	Cerro de Oro	2	Febrero	2023-02-19T00:00:00	2024-11-08T01:00:00	3	Temperatura mínima	16.9
132628	7	Sololá	719	Santiago Atitlán	14	Cerro de Oro	2	Febrero	2023-02-19T00:00:00	2024-11-08T01:00:00	5	Humedad	70
132629	7	Sololá	719	Santiago Atitlán	14	Cerro de Oro	2	Febrero	2023-02-19T00:00:00	2024-11-08T01:00:00	6	Velocidad del viento	14.5
132630	7	Sololá	719	Santiago Atitlán	14	Cerro de Oro	2	Febrero	2023-02-19T00:00:00	2024-11-08T01:00:00	7	Dirección del viento	14.48
132631	7	Sololá	719	Santiago Atitlán	14	Cerro de Oro	2	Febrero	2023-02-19T00:00:00	2024-11-08T01:00:00	1	Precipitación	0
132632	7	Sololá	719	Santiago Atitlán	14	Cerro de Oro	2	Febrero	2023-02-19T00:00:00	2024-11-08T01:00:00	8	Radiación solar	0
132633	7	Sololá	719	Santiago Atitlán	14	Cerro de Oro	2	Febrero	2023-02-19T00:00:00	2024-11-08T02:00:00	2	Temperatura media	17.2
132634	7	Sololá	719	Santiago Atitlán	14	Cerro de Oro	2	Febrero	2023-02-19T00:00:00	2024-11-08T02:00:00	4	Temperatura máxima	17.4
132635	7	Sololá	719	Santiago Atitlán	14	Cerro de Oro	2	Febrero	2023-02-19T00:00:00	2024-11-08T02:00:00	3	Temperatura mínima	16.8
132636	7	Sololá	719	Santiago Atitlán	14	Cerro de Oro	2	Febrero	2023-02-19T00:00:00	2024-11-08T02:00:00	5	Humedad	72
132637	7	Sololá	719	Santiago Atitlán	14	Cerro de Oro	2	Febrero	2023-02-19T00:00:00	2024-11-08T02:00:00	6	Velocidad del viento	16.1
132638	7	Sololá	719	Santiago Atitlán	14	Cerro de Oro	2	Febrero	2023-02-19T00:00:00	2024-11-08T02:00:00	7	Dirección del viento	16.09
132639	7	Sololá	719	Santiago Atitlán	14	Cerro de Oro	2	Febrero	2023-02-19T00:00:00	2024-11-08T02:00:00	1	Precipitación	0
132640	7	Sololá	719	Santiago Atitlán	14	Cerro de Oro	2	Febrero	2023-02-19T00:00:00	2024-11-08T02:00:00	8	Radiación solar	0
132641	7	Sololá	719	Santiago Atitlán	14	Cerro de Oro	2	Febrero	2023-02-19T00:00:00	2024-11-08T03:00:00	2	Temperatura media	16.8
132642	7	Sololá	719	Santiago Atitlán	14	Cerro de Oro	2	Febrero	2023-02-19T00:00:00	2024-11-08T03:00:00	4	Temperatura máxima	17.3
132643	7	Sololá	719	Santiago Atitlán	14	Cerro de Oro	2	Febrero	2023-02-19T00:00:00	2024-11-08T03:00:00	3	Temperatura mínima	16.8
132644	7	Sololá	719	Santiago Atitlán	14	Cerro de Oro	2	Febrero	2023-02-19T00:00:00	2024-11-08T03:00:00	5	Humedad	70
132645	7	Sololá	719	Santiago Atitlán	14	Cerro de Oro	2	Febrero	2023-02-19T00:00:00	2024-11-08T03:00:00	6	Velocidad del viento	16.1
132646	7	Sololá	719	Santiago Atitlán	14	Cerro de Oro	2	Febrero	2023-02-19T00:00:00	2024-11-08T03:00:00	7	Dirección del viento	16.09
132647	7	Sololá	719	Santiago Atitlán	14	Cerro de Oro	2	Febrero	2023-02-19T00:00:00	2024-11-08T03:00:00	1	Precipitación	0
132648	7	Sololá	719	Santiago Atitlán	14	Cerro de Oro	2	Febrero	2023-02-19T00:00:00	2024-11-08T03:00:00	8	Radiación solar	0
132649	7	Sololá	719	Santiago Atitlán	14	Cerro de Oro	2	Febrero	2023-02-19T00:00:00	2024-11-08T04:00:00	2	Temperatura media	16.4
132650	7	Sololá	719	Santiago Atitlán	14	Cerro de Oro	2	Febrero	2023-02-19T00:00:00	2024-11-08T04:00:00	4	Temperatura máxima	16.9
132651	7	Sololá	719	Santiago Atitlán	14	Cerro de Oro	2	Febrero	2023-02-19T00:00:00	2024-11-08T04:00:00	3	Temperatura mínima	16.4
132652	7	Sololá	719	Santiago Atitlán	14	Cerro de Oro	2	Febrero	2023-02-19T00:00:00	2024-11-08T04:00:00	5	Humedad	74
132653	7	Sololá	719	Santiago Atitlán	14	Cerro de Oro	2	Febrero	2023-02-19T00:00:00	2024-11-08T04:00:00	6	Velocidad del viento	16.1
132654	7	Sololá	719	Santiago Atitlán	14	Cerro de Oro	2	Febrero	2023-02-19T00:00:00	2024-11-08T04:00:00	7	Dirección del viento	16.09
132655	7	Sololá	719	Santiago Atitlán	14	Cerro de Oro	2	Febrero	2023-02-19T00:00:00	2024-11-08T04:00:00	1	Precipitación	0
132656	7	Sololá	719	Santiago Atitlán	14	Cerro de Oro	2	Febrero	2023-02-19T00:00:00	2024-11-08T04:00:00	8	Radiación solar	0
132657	7	Sololá	719	Santiago Atitlán	14	Cerro de Oro	2	Febrero	2023-02-19T00:00:00	2024-11-08T05:00:00	2	Temperatura media	16.6
132658	7	Sololá	719	Santiago Atitlán	14	Cerro de Oro	2	Febrero	2023-02-19T00:00:00	2024-11-08T05:00:00	4	Temperatura máxima	16.7
132659	7	Sololá	719	Santiago Atitlán	14	Cerro de Oro	2	Febrero	2023-02-19T00:00:00	2024-11-08T05:00:00	3	Temperatura mínima	16.3
132660	7	Sololá	719	Santiago Atitlán	14	Cerro de Oro	2	Febrero	2023-02-19T00:00:00	2024-11-08T05:00:00	5	Humedad	73
132661	7	Sololá	719	Santiago Atitlán	14	Cerro de Oro	2	Febrero	2023-02-19T00:00:00	2024-11-08T05:00:00	6	Velocidad del viento	16.1
132662	7	Sololá	719	Santiago Atitlán	14	Cerro de Oro	2	Febrero	2023-02-19T00:00:00	2024-11-08T05:00:00	7	Dirección del viento	16.09
132663	7	Sololá	719	Santiago Atitlán	14	Cerro de Oro	2	Febrero	2023-02-19T00:00:00	2024-11-08T05:00:00	1	Precipitación	0
132664	7	Sololá	719	Santiago Atitlán	14	Cerro de Oro	2	Febrero	2023-02-19T00:00:00	2024-11-08T05:00:00	8	Radiación solar	0
132665	7	Sololá	719	Santiago Atitlán	14	Cerro de Oro	2	Febrero	2023-02-19T00:00:00	2024-11-08T06:00:00	2	Temperatura media	16.5
132666	7	Sololá	719	Santiago Atitlán	14	Cerro de Oro	2	Febrero	2023-02-19T00:00:00	2024-11-08T06:00:00	4	Temperatura máxima	16.8
132667	7	Sololá	719	Santiago Atitlán	14	Cerro de Oro	2	Febrero	2023-02-19T00:00:00	2024-11-08T06:00:00	3	Temperatura mínima	16.4
132668	7	Sololá	719	Santiago Atitlán	14	Cerro de Oro	2	Febrero	2023-02-19T00:00:00	2024-11-08T06:00:00	5	Humedad	75
132669	7	Sololá	719	Santiago Atitlán	14	Cerro de Oro	2	Febrero	2023-02-19T00:00:00	2024-11-08T06:00:00	6	Velocidad del viento	17.7
132670	7	Sololá	719	Santiago Atitlán	14	Cerro de Oro	2	Febrero	2023-02-19T00:00:00	2024-11-08T06:00:00	7	Dirección del viento	17.7
132671	7	Sololá	719	Santiago Atitlán	14	Cerro de Oro	2	Febrero	2023-02-19T00:00:00	2024-11-08T06:00:00	1	Precipitación	0
132672	7	Sololá	719	Santiago Atitlán	14	Cerro de Oro	2	Febrero	2023-02-19T00:00:00	2024-11-08T06:00:00	8	Radiación solar	0
132673	7	Sololá	719	Santiago Atitlán	14	Cerro de Oro	2	Febrero	2023-02-19T00:00:00	2024-11-08T07:00:00	2	Temperatura media	16.8
132674	7	Sololá	719	Santiago Atitlán	14	Cerro de Oro	2	Febrero	2023-02-19T00:00:00	2024-11-08T07:00:00	4	Temperatura máxima	17
132675	7	Sololá	719	Santiago Atitlán	14	Cerro de Oro	2	Febrero	2023-02-19T00:00:00	2024-11-08T07:00:00	3	Temperatura mínima	16.5
132676	7	Sololá	719	Santiago Atitlán	14	Cerro de Oro	2	Febrero	2023-02-19T00:00:00	2024-11-08T07:00:00	5	Humedad	74
132677	7	Sololá	719	Santiago Atitlán	14	Cerro de Oro	2	Febrero	2023-02-19T00:00:00	2024-11-08T07:00:00	6	Velocidad del viento	17.7
132678	7	Sololá	719	Santiago Atitlán	14	Cerro de Oro	2	Febrero	2023-02-19T00:00:00	2024-11-08T07:00:00	7	Dirección del viento	17.7
132679	7	Sololá	719	Santiago Atitlán	14	Cerro de Oro	2	Febrero	2023-02-19T00:00:00	2024-11-08T07:00:00	1	Precipitación	0
132680	7	Sololá	719	Santiago Atitlán	14	Cerro de Oro	2	Febrero	2023-02-19T00:00:00	2024-11-08T07:00:00	8	Radiación solar	10
132681	7	Sololá	719	Santiago Atitlán	14	Cerro de Oro	2	Febrero	2023-02-19T00:00:00	2024-11-08T08:00:00	2	Temperatura media	18.1
132682	7	Sololá	719	Santiago Atitlán	14	Cerro de Oro	2	Febrero	2023-02-19T00:00:00	2024-11-08T08:00:00	4	Temperatura máxima	18.2
132683	7	Sololá	719	Santiago Atitlán	14	Cerro de Oro	2	Febrero	2023-02-19T00:00:00	2024-11-08T08:00:00	3	Temperatura mínima	16.8
132684	7	Sololá	719	Santiago Atitlán	14	Cerro de Oro	2	Febrero	2023-02-19T00:00:00	2024-11-08T08:00:00	5	Humedad	66
132685	7	Sololá	719	Santiago Atitlán	14	Cerro de Oro	2	Febrero	2023-02-19T00:00:00	2024-11-08T08:00:00	6	Velocidad del viento	12.9
132686	7	Sololá	719	Santiago Atitlán	14	Cerro de Oro	2	Febrero	2023-02-19T00:00:00	2024-11-08T08:00:00	7	Dirección del viento	12.87
132687	7	Sololá	719	Santiago Atitlán	14	Cerro de Oro	2	Febrero	2023-02-19T00:00:00	2024-11-08T08:00:00	1	Precipitación	0
132688	7	Sololá	719	Santiago Atitlán	14	Cerro de Oro	2	Febrero	2023-02-19T00:00:00	2024-11-08T08:00:00	8	Radiación solar	200
132689	7	Sololá	719	Santiago Atitlán	14	Cerro de Oro	2	Febrero	2023-02-19T00:00:00	2024-11-08T09:00:00	2	Temperatura media	18.9
132690	7	Sololá	719	Santiago Atitlán	14	Cerro de Oro	2	Febrero	2023-02-19T00:00:00	2024-11-08T09:00:00	4	Temperatura máxima	19
132691	7	Sololá	719	Santiago Atitlán	14	Cerro de Oro	2	Febrero	2023-02-19T00:00:00	2024-11-08T09:00:00	3	Temperatura mínima	18
132692	7	Sololá	719	Santiago Atitlán	14	Cerro de Oro	2	Febrero	2023-02-19T00:00:00	2024-11-08T09:00:00	5	Humedad	65
132693	7	Sololá	719	Santiago Atitlán	14	Cerro de Oro	2	Febrero	2023-02-19T00:00:00	2024-11-08T09:00:00	6	Velocidad del viento	17.7
132694	7	Sololá	719	Santiago Atitlán	14	Cerro de Oro	2	Febrero	2023-02-19T00:00:00	2024-11-08T09:00:00	7	Dirección del viento	17.7
132695	7	Sololá	719	Santiago Atitlán	14	Cerro de Oro	2	Febrero	2023-02-19T00:00:00	2024-11-08T09:00:00	1	Precipitación	0
132696	7	Sololá	719	Santiago Atitlán	14	Cerro de Oro	2	Febrero	2023-02-19T00:00:00	2024-11-08T09:00:00	8	Radiación solar	440
132697	7	Sololá	719	Santiago Atitlán	14	Cerro de Oro	2	Febrero	2023-02-19T00:00:00	2024-11-08T10:00:00	2	Temperatura media	19.4
132698	7	Sololá	719	Santiago Atitlán	14	Cerro de Oro	2	Febrero	2023-02-19T00:00:00	2024-11-08T10:00:00	4	Temperatura máxima	19.4
132699	7	Sololá	719	Santiago Atitlán	14	Cerro de Oro	2	Febrero	2023-02-19T00:00:00	2024-11-08T10:00:00	3	Temperatura mínima	18.2
132700	7	Sololá	719	Santiago Atitlán	14	Cerro de Oro	2	Febrero	2023-02-19T00:00:00	2024-11-08T10:00:00	5	Humedad	65
132701	7	Sololá	719	Santiago Atitlán	14	Cerro de Oro	2	Febrero	2023-02-19T00:00:00	2024-11-08T10:00:00	6	Velocidad del viento	25.7
132702	7	Sololá	719	Santiago Atitlán	14	Cerro de Oro	2	Febrero	2023-02-19T00:00:00	2024-11-08T10:00:00	7	Dirección del viento	25.75
132703	7	Sololá	719	Santiago Atitlán	14	Cerro de Oro	2	Febrero	2023-02-19T00:00:00	2024-11-08T10:00:00	1	Precipitación	0
132704	7	Sololá	719	Santiago Atitlán	14	Cerro de Oro	2	Febrero	2023-02-19T00:00:00	2024-11-08T10:00:00	8	Radiación solar	629
132705	7	Sololá	719	Santiago Atitlán	14	Cerro de Oro	2	Febrero	2023-02-19T00:00:00	2024-11-08T11:00:00	2	Temperatura media	18.9
132706	7	Sololá	719	Santiago Atitlán	14	Cerro de Oro	2	Febrero	2023-02-19T00:00:00	2024-11-08T11:00:00	4	Temperatura máxima	19.4
132707	7	Sololá	719	Santiago Atitlán	14	Cerro de Oro	2	Febrero	2023-02-19T00:00:00	2024-11-08T11:00:00	3	Temperatura mínima	18.6
132708	7	Sololá	719	Santiago Atitlán	14	Cerro de Oro	2	Febrero	2023-02-19T00:00:00	2024-11-08T11:00:00	5	Humedad	66
132709	7	Sololá	719	Santiago Atitlán	14	Cerro de Oro	2	Febrero	2023-02-19T00:00:00	2024-11-08T11:00:00	6	Velocidad del viento	20.9
132710	7	Sololá	719	Santiago Atitlán	14	Cerro de Oro	2	Febrero	2023-02-19T00:00:00	2024-11-08T11:00:00	7	Dirección del viento	20.92
132711	7	Sololá	719	Santiago Atitlán	14	Cerro de Oro	2	Febrero	2023-02-19T00:00:00	2024-11-08T11:00:00	1	Precipitación	0
132712	7	Sololá	719	Santiago Atitlán	14	Cerro de Oro	2	Febrero	2023-02-19T00:00:00	2024-11-08T11:00:00	8	Radiación solar	774
132713	7	Sololá	719	Santiago Atitlán	14	Cerro de Oro	2	Febrero	2023-02-19T00:00:00	2024-11-08T12:00:00	2	Temperatura media	18.8
132714	7	Sololá	719	Santiago Atitlán	14	Cerro de Oro	2	Febrero	2023-02-19T00:00:00	2024-11-08T12:00:00	4	Temperatura máxima	19.2
132715	7	Sololá	719	Santiago Atitlán	14	Cerro de Oro	2	Febrero	2023-02-19T00:00:00	2024-11-08T12:00:00	3	Temperatura mínima	18.8
132716	7	Sololá	719	Santiago Atitlán	14	Cerro de Oro	2	Febrero	2023-02-19T00:00:00	2024-11-08T12:00:00	5	Humedad	68
132717	7	Sololá	719	Santiago Atitlán	14	Cerro de Oro	2	Febrero	2023-02-19T00:00:00	2024-11-08T12:00:00	6	Velocidad del viento	19.3
132718	7	Sololá	719	Santiago Atitlán	14	Cerro de Oro	2	Febrero	2023-02-19T00:00:00	2024-11-08T12:00:00	7	Dirección del viento	19.31
132719	7	Sololá	719	Santiago Atitlán	14	Cerro de Oro	2	Febrero	2023-02-19T00:00:00	2024-11-08T12:00:00	1	Precipitación	0
132720	7	Sololá	719	Santiago Atitlán	14	Cerro de Oro	2	Febrero	2023-02-19T00:00:00	2024-11-08T12:00:00	8	Radiación solar	881
132721	7	Sololá	719	Santiago Atitlán	14	Cerro de Oro	2	Febrero	2023-02-19T00:00:00	2024-11-08T13:00:00	2	Temperatura media	18.8
132722	7	Sololá	719	Santiago Atitlán	14	Cerro de Oro	2	Febrero	2023-02-19T00:00:00	2024-11-08T13:00:00	4	Temperatura máxima	18.9
132723	7	Sololá	719	Santiago Atitlán	14	Cerro de Oro	2	Febrero	2023-02-19T00:00:00	2024-11-08T13:00:00	3	Temperatura mínima	18.2
132724	7	Sololá	719	Santiago Atitlán	14	Cerro de Oro	2	Febrero	2023-02-19T00:00:00	2024-11-08T13:00:00	5	Humedad	67
132725	7	Sololá	719	Santiago Atitlán	14	Cerro de Oro	2	Febrero	2023-02-19T00:00:00	2024-11-08T13:00:00	6	Velocidad del viento	17.7
132726	7	Sololá	719	Santiago Atitlán	14	Cerro de Oro	2	Febrero	2023-02-19T00:00:00	2024-11-08T13:00:00	7	Dirección del viento	17.7
132727	7	Sololá	719	Santiago Atitlán	14	Cerro de Oro	2	Febrero	2023-02-19T00:00:00	2024-11-08T13:00:00	1	Precipitación	0
132728	7	Sololá	719	Santiago Atitlán	14	Cerro de Oro	2	Febrero	2023-02-19T00:00:00	2024-11-08T13:00:00	8	Radiación solar	370
132729	7	Sololá	719	Santiago Atitlán	14	Cerro de Oro	2	Febrero	2023-02-19T00:00:00	2024-11-08T14:00:00	2	Temperatura media	19.6
132730	7	Sololá	719	Santiago Atitlán	14	Cerro de Oro	2	Febrero	2023-02-19T00:00:00	2024-11-08T14:00:00	4	Temperatura máxima	19.8
132731	7	Sololá	719	Santiago Atitlán	14	Cerro de Oro	2	Febrero	2023-02-19T00:00:00	2024-11-08T14:00:00	3	Temperatura mínima	18.8
132732	7	Sololá	719	Santiago Atitlán	14	Cerro de Oro	2	Febrero	2023-02-19T00:00:00	2024-11-08T14:00:00	5	Humedad	64
132733	7	Sololá	719	Santiago Atitlán	14	Cerro de Oro	2	Febrero	2023-02-19T00:00:00	2024-11-08T14:00:00	6	Velocidad del viento	19.3
132734	7	Sololá	719	Santiago Atitlán	14	Cerro de Oro	2	Febrero	2023-02-19T00:00:00	2024-11-08T14:00:00	7	Dirección del viento	19.31
132735	7	Sololá	719	Santiago Atitlán	14	Cerro de Oro	2	Febrero	2023-02-19T00:00:00	2024-11-08T14:00:00	1	Precipitación	0
132736	7	Sololá	719	Santiago Atitlán	14	Cerro de Oro	2	Febrero	2023-02-19T00:00:00	2024-11-08T14:00:00	8	Radiación solar	877
132737	7	Sololá	719	Santiago Atitlán	14	Cerro de Oro	2	Febrero	2023-02-19T00:00:00	2024-11-08T15:00:00	2	Temperatura media	20.3
132738	7	Sololá	719	Santiago Atitlán	14	Cerro de Oro	2	Febrero	2023-02-19T00:00:00	2024-11-08T15:00:00	4	Temperatura máxima	20.3
132739	7	Sololá	719	Santiago Atitlán	14	Cerro de Oro	2	Febrero	2023-02-19T00:00:00	2024-11-08T15:00:00	3	Temperatura mínima	19.6
132740	7	Sololá	719	Santiago Atitlán	14	Cerro de Oro	2	Febrero	2023-02-19T00:00:00	2024-11-08T15:00:00	5	Humedad	62
132741	7	Sololá	719	Santiago Atitlán	14	Cerro de Oro	2	Febrero	2023-02-19T00:00:00	2024-11-08T15:00:00	6	Velocidad del viento	17.7
132742	7	Sololá	719	Santiago Atitlán	14	Cerro de Oro	2	Febrero	2023-02-19T00:00:00	2024-11-08T15:00:00	7	Dirección del viento	17.7
132743	7	Sololá	719	Santiago Atitlán	14	Cerro de Oro	2	Febrero	2023-02-19T00:00:00	2024-11-08T15:00:00	1	Precipitación	0
132744	7	Sololá	719	Santiago Atitlán	14	Cerro de Oro	2	Febrero	2023-02-19T00:00:00	2024-11-08T15:00:00	8	Radiación solar	522
132745	7	Sololá	719	Santiago Atitlán	14	Cerro de Oro	2	Febrero	2023-02-19T00:00:00	2024-11-08T16:00:00	2	Temperatura media	21.4
132746	7	Sololá	719	Santiago Atitlán	14	Cerro de Oro	2	Febrero	2023-02-19T00:00:00	2024-11-08T16:00:00	4	Temperatura máxima	21.5
132747	7	Sololá	719	Santiago Atitlán	14	Cerro de Oro	2	Febrero	2023-02-19T00:00:00	2024-11-08T16:00:00	3	Temperatura mínima	20.1
132748	7	Sololá	719	Santiago Atitlán	14	Cerro de Oro	2	Febrero	2023-02-19T00:00:00	2024-11-08T16:00:00	5	Humedad	56
132749	7	Sololá	719	Santiago Atitlán	14	Cerro de Oro	2	Febrero	2023-02-19T00:00:00	2024-11-08T16:00:00	6	Velocidad del viento	12.9
132750	7	Sololá	719	Santiago Atitlán	14	Cerro de Oro	2	Febrero	2023-02-19T00:00:00	2024-11-08T16:00:00	7	Dirección del viento	12.87
132751	7	Sololá	719	Santiago Atitlán	14	Cerro de Oro	2	Febrero	2023-02-19T00:00:00	2024-11-08T16:00:00	1	Precipitación	0
132752	7	Sololá	719	Santiago Atitlán	14	Cerro de Oro	2	Febrero	2023-02-19T00:00:00	2024-11-08T16:00:00	8	Radiación solar	232
132753	7	Sololá	719	Santiago Atitlán	14	Cerro de Oro	2	Febrero	2023-02-19T00:00:00	2024-11-08T17:00:00	2	Temperatura media	20.7
132754	7	Sololá	719	Santiago Atitlán	14	Cerro de Oro	2	Febrero	2023-02-19T00:00:00	2024-11-08T17:00:00	4	Temperatura máxima	21.4
132755	7	Sololá	719	Santiago Atitlán	14	Cerro de Oro	2	Febrero	2023-02-19T00:00:00	2024-11-08T17:00:00	3	Temperatura mínima	20.7
132756	7	Sololá	719	Santiago Atitlán	14	Cerro de Oro	2	Febrero	2023-02-19T00:00:00	2024-11-08T17:00:00	5	Humedad	59
132757	7	Sololá	719	Santiago Atitlán	14	Cerro de Oro	2	Febrero	2023-02-19T00:00:00	2024-11-08T17:00:00	6	Velocidad del viento	11.3
132758	7	Sololá	719	Santiago Atitlán	14	Cerro de Oro	2	Febrero	2023-02-19T00:00:00	2024-11-08T17:00:00	7	Dirección del viento	11.27
132759	7	Sololá	719	Santiago Atitlán	14	Cerro de Oro	2	Febrero	2023-02-19T00:00:00	2024-11-08T17:00:00	1	Precipitación	0
132760	7	Sololá	719	Santiago Atitlán	14	Cerro de Oro	2	Febrero	2023-02-19T00:00:00	2024-11-08T17:00:00	8	Radiación solar	99
132761	7	Sololá	719	Santiago Atitlán	14	Cerro de Oro	2	Febrero	2023-02-19T00:00:00	2024-11-08T18:00:00	2	Temperatura media	19.9
132762	7	Sololá	719	Santiago Atitlán	14	Cerro de Oro	2	Febrero	2023-02-19T00:00:00	2024-11-08T18:00:00	4	Temperatura máxima	20.7
132763	7	Sololá	719	Santiago Atitlán	14	Cerro de Oro	2	Febrero	2023-02-19T00:00:00	2024-11-08T18:00:00	3	Temperatura mínima	19.9
132764	7	Sololá	719	Santiago Atitlán	14	Cerro de Oro	2	Febrero	2023-02-19T00:00:00	2024-11-08T18:00:00	5	Humedad	64
132765	7	Sololá	719	Santiago Atitlán	14	Cerro de Oro	2	Febrero	2023-02-19T00:00:00	2024-11-08T18:00:00	6	Velocidad del viento	12.9
132766	7	Sololá	719	Santiago Atitlán	14	Cerro de Oro	2	Febrero	2023-02-19T00:00:00	2024-11-08T18:00:00	7	Dirección del viento	12.87
132767	7	Sololá	719	Santiago Atitlán	14	Cerro de Oro	2	Febrero	2023-02-19T00:00:00	2024-11-08T18:00:00	1	Precipitación	0
132768	7	Sololá	719	Santiago Atitlán	14	Cerro de Oro	2	Febrero	2023-02-19T00:00:00	2024-11-08T18:00:00	8	Radiación solar	41
132769	7	Sololá	719	Santiago Atitlán	14	Cerro de Oro	2	Febrero	2023-02-19T00:00:00	2024-11-08T19:00:00	2	Temperatura media	18.8
132770	7	Sololá	719	Santiago Atitlán	14	Cerro de Oro	2	Febrero	2023-02-19T00:00:00	2024-11-08T19:00:00	4	Temperatura máxima	19.9
132771	7	Sololá	719	Santiago Atitlán	14	Cerro de Oro	2	Febrero	2023-02-19T00:00:00	2024-11-08T19:00:00	3	Temperatura mínima	18.8
132772	7	Sololá	719	Santiago Atitlán	14	Cerro de Oro	2	Febrero	2023-02-19T00:00:00	2024-11-08T19:00:00	5	Humedad	64
132773	7	Sololá	719	Santiago Atitlán	14	Cerro de Oro	2	Febrero	2023-02-19T00:00:00	2024-11-08T19:00:00	6	Velocidad del viento	11.3
132774	7	Sololá	719	Santiago Atitlán	14	Cerro de Oro	2	Febrero	2023-02-19T00:00:00	2024-11-08T19:00:00	7	Dirección del viento	11.27
132775	7	Sololá	719	Santiago Atitlán	14	Cerro de Oro	2	Febrero	2023-02-19T00:00:00	2024-11-08T19:00:00	1	Precipitación	0
132776	7	Sololá	719	Santiago Atitlán	14	Cerro de Oro	2	Febrero	2023-02-19T00:00:00	2024-11-08T19:00:00	8	Radiación solar	0
132777	7	Sololá	719	Santiago Atitlán	14	Cerro de Oro	2	Febrero	2023-02-19T00:00:00	2024-11-08T20:00:00	2	Temperatura media	18.5
132778	7	Sololá	719	Santiago Atitlán	14	Cerro de Oro	2	Febrero	2023-02-19T00:00:00	2024-11-08T20:00:00	4	Temperatura máxima	18.8
132779	7	Sololá	719	Santiago Atitlán	14	Cerro de Oro	2	Febrero	2023-02-19T00:00:00	2024-11-08T20:00:00	3	Temperatura mínima	18.3
132780	7	Sololá	719	Santiago Atitlán	14	Cerro de Oro	2	Febrero	2023-02-19T00:00:00	2024-11-08T20:00:00	5	Humedad	63
132781	7	Sololá	719	Santiago Atitlán	14	Cerro de Oro	2	Febrero	2023-02-19T00:00:00	2024-11-08T20:00:00	6	Velocidad del viento	8
132782	7	Sololá	719	Santiago Atitlán	14	Cerro de Oro	2	Febrero	2023-02-19T00:00:00	2024-11-08T20:00:00	7	Dirección del viento	8.05
132783	7	Sololá	719	Santiago Atitlán	14	Cerro de Oro	2	Febrero	2023-02-19T00:00:00	2024-11-08T20:00:00	1	Precipitación	0
132784	7	Sololá	719	Santiago Atitlán	14	Cerro de Oro	2	Febrero	2023-02-19T00:00:00	2024-11-08T20:00:00	8	Radiación solar	0
132785	7	Sololá	719	Santiago Atitlán	14	Cerro de Oro	2	Febrero	2023-02-19T00:00:00	2024-11-08T21:00:00	2	Temperatura media	17.3
132786	7	Sololá	719	Santiago Atitlán	14	Cerro de Oro	2	Febrero	2023-02-19T00:00:00	2024-11-08T21:00:00	4	Temperatura máxima	18.4
132787	7	Sololá	719	Santiago Atitlán	14	Cerro de Oro	2	Febrero	2023-02-19T00:00:00	2024-11-08T21:00:00	3	Temperatura mínima	17.1
132788	7	Sololá	719	Santiago Atitlán	14	Cerro de Oro	2	Febrero	2023-02-19T00:00:00	2024-11-08T21:00:00	5	Humedad	66
132789	7	Sololá	719	Santiago Atitlán	14	Cerro de Oro	2	Febrero	2023-02-19T00:00:00	2024-11-08T21:00:00	6	Velocidad del viento	3.2
132790	7	Sololá	719	Santiago Atitlán	14	Cerro de Oro	2	Febrero	2023-02-19T00:00:00	2024-11-08T21:00:00	7	Dirección del viento	3.22
132791	7	Sololá	719	Santiago Atitlán	14	Cerro de Oro	2	Febrero	2023-02-19T00:00:00	2024-11-08T21:00:00	1	Precipitación	0
132792	7	Sololá	719	Santiago Atitlán	14	Cerro de Oro	2	Febrero	2023-02-19T00:00:00	2024-11-08T21:00:00	8	Radiación solar	0
132793	7	Sololá	719	Santiago Atitlán	14	Cerro de Oro	2	Febrero	2023-02-19T00:00:00	2024-11-08T22:00:00	2	Temperatura media	16.6
132794	7	Sololá	719	Santiago Atitlán	14	Cerro de Oro	2	Febrero	2023-02-19T00:00:00	2024-11-08T22:00:00	4	Temperatura máxima	17.3
132795	7	Sololá	719	Santiago Atitlán	14	Cerro de Oro	2	Febrero	2023-02-19T00:00:00	2024-11-08T22:00:00	3	Temperatura mínima	16.6
132796	7	Sololá	719	Santiago Atitlán	14	Cerro de Oro	2	Febrero	2023-02-19T00:00:00	2024-11-08T22:00:00	5	Humedad	66
132797	7	Sololá	719	Santiago Atitlán	14	Cerro de Oro	2	Febrero	2023-02-19T00:00:00	2024-11-08T22:00:00	6	Velocidad del viento	4.8
132798	7	Sololá	719	Santiago Atitlán	14	Cerro de Oro	2	Febrero	2023-02-19T00:00:00	2024-11-08T22:00:00	7	Dirección del viento	4.83
132799	7	Sololá	719	Santiago Atitlán	14	Cerro de Oro	2	Febrero	2023-02-19T00:00:00	2024-11-08T22:00:00	1	Precipitación	0
132800	7	Sololá	719	Santiago Atitlán	14	Cerro de Oro	2	Febrero	2023-02-19T00:00:00	2024-11-08T22:00:00	8	Radiación solar	0
132801	7	Sololá	719	Santiago Atitlán	14	Cerro de Oro	2	Febrero	2023-02-19T00:00:00	2024-11-08T23:00:00	2	Temperatura media	16.9
132802	7	Sololá	719	Santiago Atitlán	14	Cerro de Oro	2	Febrero	2023-02-19T00:00:00	2024-11-08T23:00:00	4	Temperatura máxima	17.6
132803	7	Sololá	719	Santiago Atitlán	14	Cerro de Oro	2	Febrero	2023-02-19T00:00:00	2024-11-08T23:00:00	3	Temperatura mínima	16.6
132804	7	Sololá	719	Santiago Atitlán	14	Cerro de Oro	2	Febrero	2023-02-19T00:00:00	2024-11-08T23:00:00	5	Humedad	63
132805	7	Sololá	719	Santiago Atitlán	14	Cerro de Oro	2	Febrero	2023-02-19T00:00:00	2024-11-08T23:00:00	6	Velocidad del viento	8
132806	7	Sololá	719	Santiago Atitlán	14	Cerro de Oro	2	Febrero	2023-02-19T00:00:00	2024-11-08T23:00:00	7	Dirección del viento	8.05
132807	7	Sololá	719	Santiago Atitlán	14	Cerro de Oro	2	Febrero	2023-02-19T00:00:00	2024-11-08T23:00:00	1	Precipitación	0
132808	7	Sololá	719	Santiago Atitlán	14	Cerro de Oro	2	Febrero	2023-02-19T00:00:00	2024-11-08T23:00:00	8	Radiación solar	0
132809	7	Sololá	719	Santiago Atitlán	14	Cerro de Oro	2	Febrero	2023-02-20T00:00:00	2024-11-08T00:00:00	2	Temperatura media	16.8
132810	7	Sololá	719	Santiago Atitlán	14	Cerro de Oro	2	Febrero	2023-02-20T00:00:00	2024-11-08T00:00:00	4	Temperatura máxima	17.1
132811	7	Sololá	719	Santiago Atitlán	14	Cerro de Oro	2	Febrero	2023-02-20T00:00:00	2024-11-08T00:00:00	3	Temperatura mínima	16.7
132812	7	Sololá	719	Santiago Atitlán	14	Cerro de Oro	2	Febrero	2023-02-20T00:00:00	2024-11-08T00:00:00	5	Humedad	62
132813	7	Sololá	719	Santiago Atitlán	14	Cerro de Oro	2	Febrero	2023-02-20T00:00:00	2024-11-08T00:00:00	6	Velocidad del viento	8
132814	7	Sololá	719	Santiago Atitlán	14	Cerro de Oro	2	Febrero	2023-02-20T00:00:00	2024-11-08T00:00:00	7	Dirección del viento	8.05
132815	7	Sololá	719	Santiago Atitlán	14	Cerro de Oro	2	Febrero	2023-02-20T00:00:00	2024-11-08T00:00:00	1	Precipitación	0
132816	7	Sololá	719	Santiago Atitlán	14	Cerro de Oro	2	Febrero	2023-02-20T00:00:00	2024-11-08T00:00:00	8	Radiación solar	0
132817	7	Sololá	719	Santiago Atitlán	14	Cerro de Oro	2	Febrero	2023-02-20T00:00:00	2024-11-08T01:00:00	2	Temperatura media	15.8
132818	7	Sololá	719	Santiago Atitlán	14	Cerro de Oro	2	Febrero	2023-02-20T00:00:00	2024-11-08T01:00:00	4	Temperatura máxima	16.8
132819	7	Sololá	719	Santiago Atitlán	14	Cerro de Oro	2	Febrero	2023-02-20T00:00:00	2024-11-08T01:00:00	3	Temperatura mínima	15.7
132820	7	Sololá	719	Santiago Atitlán	14	Cerro de Oro	2	Febrero	2023-02-20T00:00:00	2024-11-08T01:00:00	5	Humedad	63
132821	7	Sololá	719	Santiago Atitlán	14	Cerro de Oro	2	Febrero	2023-02-20T00:00:00	2024-11-08T01:00:00	6	Velocidad del viento	9.7
132822	7	Sololá	719	Santiago Atitlán	14	Cerro de Oro	2	Febrero	2023-02-20T00:00:00	2024-11-08T01:00:00	7	Dirección del viento	9.66
132823	7	Sololá	719	Santiago Atitlán	14	Cerro de Oro	2	Febrero	2023-02-20T00:00:00	2024-11-08T01:00:00	1	Precipitación	0
132824	7	Sololá	719	Santiago Atitlán	14	Cerro de Oro	2	Febrero	2023-02-20T00:00:00	2024-11-08T01:00:00	8	Radiación solar	0
132825	7	Sololá	719	Santiago Atitlán	14	Cerro de Oro	2	Febrero	2023-02-20T00:00:00	2024-11-08T02:00:00	2	Temperatura media	15.4
132826	7	Sololá	719	Santiago Atitlán	14	Cerro de Oro	2	Febrero	2023-02-20T00:00:00	2024-11-08T02:00:00	4	Temperatura máxima	16.1
132827	7	Sololá	719	Santiago Atitlán	14	Cerro de Oro	2	Febrero	2023-02-20T00:00:00	2024-11-08T02:00:00	3	Temperatura mínima	15.3
132828	7	Sololá	719	Santiago Atitlán	14	Cerro de Oro	2	Febrero	2023-02-20T00:00:00	2024-11-08T02:00:00	5	Humedad	66
132829	7	Sololá	719	Santiago Atitlán	14	Cerro de Oro	2	Febrero	2023-02-20T00:00:00	2024-11-08T02:00:00	6	Velocidad del viento	8
132830	7	Sololá	719	Santiago Atitlán	14	Cerro de Oro	2	Febrero	2023-02-20T00:00:00	2024-11-08T02:00:00	7	Dirección del viento	8.05
132831	7	Sololá	719	Santiago Atitlán	14	Cerro de Oro	2	Febrero	2023-02-20T00:00:00	2024-11-08T02:00:00	1	Precipitación	0
132832	7	Sololá	719	Santiago Atitlán	14	Cerro de Oro	2	Febrero	2023-02-20T00:00:00	2024-11-08T02:00:00	8	Radiación solar	0
132833	7	Sololá	719	Santiago Atitlán	14	Cerro de Oro	2	Febrero	2023-02-20T00:00:00	2024-11-08T03:00:00	2	Temperatura media	16.5
132834	7	Sololá	719	Santiago Atitlán	14	Cerro de Oro	2	Febrero	2023-02-20T00:00:00	2024-11-08T03:00:00	4	Temperatura máxima	16.6
132835	7	Sololá	719	Santiago Atitlán	14	Cerro de Oro	2	Febrero	2023-02-20T00:00:00	2024-11-08T03:00:00	3	Temperatura mínima	15.4
132836	7	Sololá	719	Santiago Atitlán	14	Cerro de Oro	2	Febrero	2023-02-20T00:00:00	2024-11-08T03:00:00	5	Humedad	60
132837	7	Sololá	719	Santiago Atitlán	14	Cerro de Oro	2	Febrero	2023-02-20T00:00:00	2024-11-08T03:00:00	6	Velocidad del viento	9.7
132838	7	Sololá	719	Santiago Atitlán	14	Cerro de Oro	2	Febrero	2023-02-20T00:00:00	2024-11-08T03:00:00	7	Dirección del viento	9.66
132839	7	Sololá	719	Santiago Atitlán	14	Cerro de Oro	2	Febrero	2023-02-20T00:00:00	2024-11-08T03:00:00	1	Precipitación	0
132840	7	Sololá	719	Santiago Atitlán	14	Cerro de Oro	2	Febrero	2023-02-20T00:00:00	2024-11-08T03:00:00	8	Radiación solar	0
132841	7	Sololá	719	Santiago Atitlán	14	Cerro de Oro	2	Febrero	2023-02-20T00:00:00	2024-11-08T04:00:00	2	Temperatura media	15.7
132842	7	Sololá	719	Santiago Atitlán	14	Cerro de Oro	2	Febrero	2023-02-20T00:00:00	2024-11-08T04:00:00	4	Temperatura máxima	16.7
132843	7	Sololá	719	Santiago Atitlán	14	Cerro de Oro	2	Febrero	2023-02-20T00:00:00	2024-11-08T04:00:00	3	Temperatura mínima	15.6
132844	7	Sololá	719	Santiago Atitlán	14	Cerro de Oro	2	Febrero	2023-02-20T00:00:00	2024-11-08T04:00:00	5	Humedad	64
132845	7	Sololá	719	Santiago Atitlán	14	Cerro de Oro	2	Febrero	2023-02-20T00:00:00	2024-11-08T04:00:00	6	Velocidad del viento	8
132846	7	Sololá	719	Santiago Atitlán	14	Cerro de Oro	2	Febrero	2023-02-20T00:00:00	2024-11-08T04:00:00	7	Dirección del viento	8.05
132847	7	Sololá	719	Santiago Atitlán	14	Cerro de Oro	2	Febrero	2023-02-20T00:00:00	2024-11-08T04:00:00	1	Precipitación	0
132848	7	Sololá	719	Santiago Atitlán	14	Cerro de Oro	2	Febrero	2023-02-20T00:00:00	2024-11-08T04:00:00	8	Radiación solar	0
132849	7	Sololá	719	Santiago Atitlán	14	Cerro de Oro	2	Febrero	2023-02-20T00:00:00	2024-11-08T05:00:00	2	Temperatura media	15.4
132850	7	Sololá	719	Santiago Atitlán	14	Cerro de Oro	2	Febrero	2023-02-20T00:00:00	2024-11-08T05:00:00	4	Temperatura máxima	15.9
132851	7	Sololá	719	Santiago Atitlán	14	Cerro de Oro	2	Febrero	2023-02-20T00:00:00	2024-11-08T05:00:00	3	Temperatura mínima	15.1
132852	7	Sololá	719	Santiago Atitlán	14	Cerro de Oro	2	Febrero	2023-02-20T00:00:00	2024-11-08T05:00:00	5	Humedad	66
132853	7	Sololá	719	Santiago Atitlán	14	Cerro de Oro	2	Febrero	2023-02-20T00:00:00	2024-11-08T05:00:00	6	Velocidad del viento	4.8
132854	7	Sololá	719	Santiago Atitlán	14	Cerro de Oro	2	Febrero	2023-02-20T00:00:00	2024-11-08T05:00:00	7	Dirección del viento	4.83
132855	7	Sololá	719	Santiago Atitlán	14	Cerro de Oro	2	Febrero	2023-02-20T00:00:00	2024-11-08T05:00:00	1	Precipitación	0
132856	7	Sololá	719	Santiago Atitlán	14	Cerro de Oro	2	Febrero	2023-02-20T00:00:00	2024-11-08T05:00:00	8	Radiación solar	0
132857	7	Sololá	719	Santiago Atitlán	14	Cerro de Oro	2	Febrero	2023-02-20T00:00:00	2024-11-08T06:00:00	2	Temperatura media	15.9
132858	7	Sololá	719	Santiago Atitlán	14	Cerro de Oro	2	Febrero	2023-02-20T00:00:00	2024-11-08T06:00:00	4	Temperatura máxima	15.9
132859	7	Sololá	719	Santiago Atitlán	14	Cerro de Oro	2	Febrero	2023-02-20T00:00:00	2024-11-08T06:00:00	3	Temperatura mínima	15.4
132860	7	Sololá	719	Santiago Atitlán	14	Cerro de Oro	2	Febrero	2023-02-20T00:00:00	2024-11-08T06:00:00	5	Humedad	65
132861	7	Sololá	719	Santiago Atitlán	14	Cerro de Oro	2	Febrero	2023-02-20T00:00:00	2024-11-08T06:00:00	6	Velocidad del viento	4.8
132862	7	Sololá	719	Santiago Atitlán	14	Cerro de Oro	2	Febrero	2023-02-20T00:00:00	2024-11-08T06:00:00	7	Dirección del viento	4.83
132863	7	Sololá	719	Santiago Atitlán	14	Cerro de Oro	2	Febrero	2023-02-20T00:00:00	2024-11-08T06:00:00	1	Precipitación	0
132864	7	Sololá	719	Santiago Atitlán	14	Cerro de Oro	2	Febrero	2023-02-20T00:00:00	2024-11-08T06:00:00	8	Radiación solar	0
132865	7	Sololá	719	Santiago Atitlán	14	Cerro de Oro	2	Febrero	2023-02-20T00:00:00	2024-11-08T07:00:00	2	Temperatura media	15.1
132866	7	Sololá	719	Santiago Atitlán	14	Cerro de Oro	2	Febrero	2023-02-20T00:00:00	2024-11-08T07:00:00	4	Temperatura máxima	16.4
132867	7	Sololá	719	Santiago Atitlán	14	Cerro de Oro	2	Febrero	2023-02-20T00:00:00	2024-11-08T07:00:00	3	Temperatura mínima	15.1
132868	7	Sololá	719	Santiago Atitlán	14	Cerro de Oro	2	Febrero	2023-02-20T00:00:00	2024-11-08T07:00:00	5	Humedad	64
132869	7	Sololá	719	Santiago Atitlán	14	Cerro de Oro	2	Febrero	2023-02-20T00:00:00	2024-11-08T07:00:00	6	Velocidad del viento	6.4
132870	7	Sololá	719	Santiago Atitlán	14	Cerro de Oro	2	Febrero	2023-02-20T00:00:00	2024-11-08T07:00:00	7	Dirección del viento	6.44
132871	7	Sololá	719	Santiago Atitlán	14	Cerro de Oro	2	Febrero	2023-02-20T00:00:00	2024-11-08T07:00:00	1	Precipitación	0
132872	7	Sololá	719	Santiago Atitlán	14	Cerro de Oro	2	Febrero	2023-02-20T00:00:00	2024-11-08T07:00:00	8	Radiación solar	12
132873	7	Sololá	719	Santiago Atitlán	14	Cerro de Oro	2	Febrero	2023-02-20T00:00:00	2024-11-08T08:00:00	2	Temperatura media	18.4
132874	7	Sololá	719	Santiago Atitlán	14	Cerro de Oro	2	Febrero	2023-02-20T00:00:00	2024-11-08T08:00:00	4	Temperatura máxima	18.4
132875	7	Sololá	719	Santiago Atitlán	14	Cerro de Oro	2	Febrero	2023-02-20T00:00:00	2024-11-08T08:00:00	3	Temperatura mínima	15.2
132876	7	Sololá	719	Santiago Atitlán	14	Cerro de Oro	2	Febrero	2023-02-20T00:00:00	2024-11-08T08:00:00	5	Humedad	57
132877	7	Sololá	719	Santiago Atitlán	14	Cerro de Oro	2	Febrero	2023-02-20T00:00:00	2024-11-08T08:00:00	6	Velocidad del viento	4.8
132878	7	Sololá	719	Santiago Atitlán	14	Cerro de Oro	2	Febrero	2023-02-20T00:00:00	2024-11-08T08:00:00	7	Dirección del viento	4.83
132879	7	Sololá	719	Santiago Atitlán	14	Cerro de Oro	2	Febrero	2023-02-20T00:00:00	2024-11-08T08:00:00	1	Precipitación	0
132880	7	Sololá	719	Santiago Atitlán	14	Cerro de Oro	2	Febrero	2023-02-20T00:00:00	2024-11-08T08:00:00	8	Radiación solar	180
132881	7	Sololá	719	Santiago Atitlán	14	Cerro de Oro	2	Febrero	2023-02-20T00:00:00	2024-11-08T09:00:00	2	Temperatura media	19.8
132882	7	Sololá	719	Santiago Atitlán	14	Cerro de Oro	2	Febrero	2023-02-20T00:00:00	2024-11-08T09:00:00	4	Temperatura máxima	19.9
132883	7	Sololá	719	Santiago Atitlán	14	Cerro de Oro	2	Febrero	2023-02-20T00:00:00	2024-11-08T09:00:00	3	Temperatura mínima	18.4
132884	7	Sololá	719	Santiago Atitlán	14	Cerro de Oro	2	Febrero	2023-02-20T00:00:00	2024-11-08T09:00:00	5	Humedad	47
132885	7	Sololá	719	Santiago Atitlán	14	Cerro de Oro	2	Febrero	2023-02-20T00:00:00	2024-11-08T09:00:00	6	Velocidad del viento	6.4
132886	7	Sololá	719	Santiago Atitlán	14	Cerro de Oro	2	Febrero	2023-02-20T00:00:00	2024-11-08T09:00:00	7	Dirección del viento	6.44
132887	7	Sololá	719	Santiago Atitlán	14	Cerro de Oro	2	Febrero	2023-02-20T00:00:00	2024-11-08T09:00:00	1	Precipitación	0
132888	7	Sololá	719	Santiago Atitlán	14	Cerro de Oro	2	Febrero	2023-02-20T00:00:00	2024-11-08T09:00:00	8	Radiación solar	419
132889	7	Sololá	719	Santiago Atitlán	14	Cerro de Oro	2	Febrero	2023-02-20T00:00:00	2024-11-08T10:00:00	2	Temperatura media	21
132890	7	Sololá	719	Santiago Atitlán	14	Cerro de Oro	2	Febrero	2023-02-20T00:00:00	2024-11-08T10:00:00	4	Temperatura máxima	21.1
132891	7	Sololá	719	Santiago Atitlán	14	Cerro de Oro	2	Febrero	2023-02-20T00:00:00	2024-11-08T10:00:00	3	Temperatura mínima	19.7
132892	7	Sololá	719	Santiago Atitlán	14	Cerro de Oro	2	Febrero	2023-02-20T00:00:00	2024-11-08T10:00:00	5	Humedad	46
132893	7	Sololá	719	Santiago Atitlán	14	Cerro de Oro	2	Febrero	2023-02-20T00:00:00	2024-11-08T10:00:00	6	Velocidad del viento	11.3
132894	7	Sololá	719	Santiago Atitlán	14	Cerro de Oro	2	Febrero	2023-02-20T00:00:00	2024-11-08T10:00:00	7	Dirección del viento	11.27
132895	7	Sololá	719	Santiago Atitlán	14	Cerro de Oro	2	Febrero	2023-02-20T00:00:00	2024-11-08T10:00:00	1	Precipitación	0
132896	7	Sololá	719	Santiago Atitlán	14	Cerro de Oro	2	Febrero	2023-02-20T00:00:00	2024-11-08T10:00:00	8	Radiación solar	627
132897	7	Sololá	719	Santiago Atitlán	14	Cerro de Oro	2	Febrero	2023-02-20T00:00:00	2024-11-08T11:00:00	2	Temperatura media	21.6
132898	7	Sololá	719	Santiago Atitlán	14	Cerro de Oro	2	Febrero	2023-02-20T00:00:00	2024-11-08T11:00:00	4	Temperatura máxima	22.3
132899	7	Sololá	719	Santiago Atitlán	14	Cerro de Oro	2	Febrero	2023-02-20T00:00:00	2024-11-08T11:00:00	3	Temperatura mínima	21
132900	7	Sololá	719	Santiago Atitlán	14	Cerro de Oro	2	Febrero	2023-02-20T00:00:00	2024-11-08T11:00:00	5	Humedad	47
132901	7	Sololá	719	Santiago Atitlán	14	Cerro de Oro	2	Febrero	2023-02-20T00:00:00	2024-11-08T11:00:00	6	Velocidad del viento	16.1
132902	7	Sololá	719	Santiago Atitlán	14	Cerro de Oro	2	Febrero	2023-02-20T00:00:00	2024-11-08T11:00:00	7	Dirección del viento	16.09
132903	7	Sololá	719	Santiago Atitlán	14	Cerro de Oro	2	Febrero	2023-02-20T00:00:00	2024-11-08T11:00:00	1	Precipitación	0
132904	7	Sololá	719	Santiago Atitlán	14	Cerro de Oro	2	Febrero	2023-02-20T00:00:00	2024-11-08T11:00:00	8	Radiación solar	779
132905	7	Sololá	719	Santiago Atitlán	14	Cerro de Oro	2	Febrero	2023-02-20T00:00:00	2024-11-08T12:00:00	2	Temperatura media	22.8
132906	7	Sololá	719	Santiago Atitlán	14	Cerro de Oro	2	Febrero	2023-02-20T00:00:00	2024-11-08T12:00:00	4	Temperatura máxima	22.9
132907	7	Sololá	719	Santiago Atitlán	14	Cerro de Oro	2	Febrero	2023-02-20T00:00:00	2024-11-08T12:00:00	3	Temperatura mínima	21.6
132908	7	Sololá	719	Santiago Atitlán	14	Cerro de Oro	2	Febrero	2023-02-20T00:00:00	2024-11-08T12:00:00	5	Humedad	40
132909	7	Sololá	719	Santiago Atitlán	14	Cerro de Oro	2	Febrero	2023-02-20T00:00:00	2024-11-08T12:00:00	6	Velocidad del viento	17.7
132910	7	Sololá	719	Santiago Atitlán	14	Cerro de Oro	2	Febrero	2023-02-20T00:00:00	2024-11-08T12:00:00	7	Dirección del viento	17.7
132911	7	Sololá	719	Santiago Atitlán	14	Cerro de Oro	2	Febrero	2023-02-20T00:00:00	2024-11-08T12:00:00	1	Precipitación	0
132912	7	Sololá	719	Santiago Atitlán	14	Cerro de Oro	2	Febrero	2023-02-20T00:00:00	2024-11-08T12:00:00	8	Radiación solar	874
132913	7	Sololá	719	Santiago Atitlán	14	Cerro de Oro	2	Febrero	2023-02-20T00:00:00	2024-11-08T13:00:00	2	Temperatura media	22.8
132914	7	Sololá	719	Santiago Atitlán	14	Cerro de Oro	2	Febrero	2023-02-20T00:00:00	2024-11-08T13:00:00	4	Temperatura máxima	23.4
132915	7	Sololá	719	Santiago Atitlán	14	Cerro de Oro	2	Febrero	2023-02-20T00:00:00	2024-11-08T13:00:00	3	Temperatura mínima	22.8
132916	7	Sololá	719	Santiago Atitlán	14	Cerro de Oro	2	Febrero	2023-02-20T00:00:00	2024-11-08T13:00:00	5	Humedad	43
132917	7	Sololá	719	Santiago Atitlán	14	Cerro de Oro	2	Febrero	2023-02-20T00:00:00	2024-11-08T13:00:00	6	Velocidad del viento	16.1
132918	7	Sololá	719	Santiago Atitlán	14	Cerro de Oro	2	Febrero	2023-02-20T00:00:00	2024-11-08T13:00:00	7	Dirección del viento	16.09
132919	7	Sololá	719	Santiago Atitlán	14	Cerro de Oro	2	Febrero	2023-02-20T00:00:00	2024-11-08T13:00:00	1	Precipitación	0
132920	7	Sololá	719	Santiago Atitlán	14	Cerro de Oro	2	Febrero	2023-02-20T00:00:00	2024-11-08T13:00:00	8	Radiación solar	895
132921	7	Sololá	719	Santiago Atitlán	14	Cerro de Oro	2	Febrero	2023-02-20T00:00:00	2024-11-08T14:00:00	2	Temperatura media	22.6
132922	7	Sololá	719	Santiago Atitlán	14	Cerro de Oro	2	Febrero	2023-02-20T00:00:00	2024-11-08T14:00:00	4	Temperatura máxima	22.8
132923	7	Sololá	719	Santiago Atitlán	14	Cerro de Oro	2	Febrero	2023-02-20T00:00:00	2024-11-08T14:00:00	3	Temperatura mínima	22.4
132924	7	Sololá	719	Santiago Atitlán	14	Cerro de Oro	2	Febrero	2023-02-20T00:00:00	2024-11-08T14:00:00	5	Humedad	47
132925	7	Sololá	719	Santiago Atitlán	14	Cerro de Oro	2	Febrero	2023-02-20T00:00:00	2024-11-08T14:00:00	6	Velocidad del viento	20.9
132926	7	Sololá	719	Santiago Atitlán	14	Cerro de Oro	2	Febrero	2023-02-20T00:00:00	2024-11-08T14:00:00	7	Dirección del viento	20.92
132927	7	Sololá	719	Santiago Atitlán	14	Cerro de Oro	2	Febrero	2023-02-20T00:00:00	2024-11-08T14:00:00	1	Precipitación	0
132928	7	Sololá	719	Santiago Atitlán	14	Cerro de Oro	2	Febrero	2023-02-20T00:00:00	2024-11-08T14:00:00	8	Radiación solar	841
132929	7	Sololá	719	Santiago Atitlán	14	Cerro de Oro	2	Febrero	2023-02-20T00:00:00	2024-11-08T15:00:00	2	Temperatura media	22.9
132930	7	Sololá	719	Santiago Atitlán	14	Cerro de Oro	2	Febrero	2023-02-20T00:00:00	2024-11-08T15:00:00	4	Temperatura máxima	23
132931	7	Sololá	719	Santiago Atitlán	14	Cerro de Oro	2	Febrero	2023-02-20T00:00:00	2024-11-08T15:00:00	3	Temperatura mínima	22.6
132932	7	Sololá	719	Santiago Atitlán	14	Cerro de Oro	2	Febrero	2023-02-20T00:00:00	2024-11-08T15:00:00	5	Humedad	47
132933	7	Sololá	719	Santiago Atitlán	14	Cerro de Oro	2	Febrero	2023-02-20T00:00:00	2024-11-08T15:00:00	6	Velocidad del viento	19.3
132934	7	Sololá	719	Santiago Atitlán	14	Cerro de Oro	2	Febrero	2023-02-20T00:00:00	2024-11-08T15:00:00	7	Dirección del viento	19.31
132935	7	Sololá	719	Santiago Atitlán	14	Cerro de Oro	2	Febrero	2023-02-20T00:00:00	2024-11-08T15:00:00	1	Precipitación	0
132936	7	Sololá	719	Santiago Atitlán	14	Cerro de Oro	2	Febrero	2023-02-20T00:00:00	2024-11-08T15:00:00	8	Radiación solar	718
132937	7	Sololá	719	Santiago Atitlán	14	Cerro de Oro	2	Febrero	2023-02-20T00:00:00	2024-11-08T16:00:00	2	Temperatura media	22.6
132938	7	Sololá	719	Santiago Atitlán	14	Cerro de Oro	2	Febrero	2023-02-20T00:00:00	2024-11-08T16:00:00	4	Temperatura máxima	22.9
132939	7	Sololá	719	Santiago Atitlán	14	Cerro de Oro	2	Febrero	2023-02-20T00:00:00	2024-11-08T16:00:00	3	Temperatura mínima	22.5
132940	7	Sololá	719	Santiago Atitlán	14	Cerro de Oro	2	Febrero	2023-02-20T00:00:00	2024-11-08T16:00:00	5	Humedad	45
132941	7	Sololá	719	Santiago Atitlán	14	Cerro de Oro	2	Febrero	2023-02-20T00:00:00	2024-11-08T16:00:00	6	Velocidad del viento	19.3
132942	7	Sololá	719	Santiago Atitlán	14	Cerro de Oro	2	Febrero	2023-02-20T00:00:00	2024-11-08T16:00:00	7	Dirección del viento	19.31
132943	7	Sololá	719	Santiago Atitlán	14	Cerro de Oro	2	Febrero	2023-02-20T00:00:00	2024-11-08T16:00:00	1	Precipitación	0
132944	7	Sololá	719	Santiago Atitlán	14	Cerro de Oro	2	Febrero	2023-02-20T00:00:00	2024-11-08T16:00:00	8	Radiación solar	543
132945	7	Sololá	719	Santiago Atitlán	14	Cerro de Oro	2	Febrero	2023-02-20T00:00:00	2024-11-08T17:00:00	2	Temperatura media	21.8
132946	7	Sololá	719	Santiago Atitlán	14	Cerro de Oro	2	Febrero	2023-02-20T00:00:00	2024-11-08T17:00:00	4	Temperatura máxima	22.6
132947	7	Sololá	719	Santiago Atitlán	14	Cerro de Oro	2	Febrero	2023-02-20T00:00:00	2024-11-08T17:00:00	3	Temperatura mínima	21.8
132948	7	Sololá	719	Santiago Atitlán	14	Cerro de Oro	2	Febrero	2023-02-20T00:00:00	2024-11-08T17:00:00	5	Humedad	50
132949	7	Sololá	719	Santiago Atitlán	14	Cerro de Oro	2	Febrero	2023-02-20T00:00:00	2024-11-08T17:00:00	6	Velocidad del viento	19.3
132950	7	Sololá	719	Santiago Atitlán	14	Cerro de Oro	2	Febrero	2023-02-20T00:00:00	2024-11-08T17:00:00	7	Dirección del viento	19.31
132951	7	Sololá	719	Santiago Atitlán	14	Cerro de Oro	2	Febrero	2023-02-20T00:00:00	2024-11-08T17:00:00	1	Precipitación	0
132952	7	Sololá	719	Santiago Atitlán	14	Cerro de Oro	2	Febrero	2023-02-20T00:00:00	2024-11-08T17:00:00	8	Radiación solar	322
132953	7	Sololá	719	Santiago Atitlán	14	Cerro de Oro	2	Febrero	2023-02-20T00:00:00	2024-11-08T18:00:00	2	Temperatura media	20.5
132954	7	Sololá	719	Santiago Atitlán	14	Cerro de Oro	2	Febrero	2023-02-20T00:00:00	2024-11-08T18:00:00	4	Temperatura máxima	21.9
132955	7	Sololá	719	Santiago Atitlán	14	Cerro de Oro	2	Febrero	2023-02-20T00:00:00	2024-11-08T18:00:00	3	Temperatura mínima	20.5
132956	7	Sololá	719	Santiago Atitlán	14	Cerro de Oro	2	Febrero	2023-02-20T00:00:00	2024-11-08T18:00:00	5	Humedad	55
132957	7	Sololá	719	Santiago Atitlán	14	Cerro de Oro	2	Febrero	2023-02-20T00:00:00	2024-11-08T18:00:00	6	Velocidad del viento	17.7
132958	7	Sololá	719	Santiago Atitlán	14	Cerro de Oro	2	Febrero	2023-02-20T00:00:00	2024-11-08T18:00:00	7	Dirección del viento	17.7
132959	7	Sololá	719	Santiago Atitlán	14	Cerro de Oro	2	Febrero	2023-02-20T00:00:00	2024-11-08T18:00:00	1	Precipitación	0
132960	7	Sololá	719	Santiago Atitlán	14	Cerro de Oro	2	Febrero	2023-02-20T00:00:00	2024-11-08T18:00:00	8	Radiación solar	59
132961	7	Sololá	719	Santiago Atitlán	14	Cerro de Oro	2	Febrero	2023-02-20T00:00:00	2024-11-08T19:00:00	2	Temperatura media	19.2
132962	7	Sololá	719	Santiago Atitlán	14	Cerro de Oro	2	Febrero	2023-02-20T00:00:00	2024-11-08T19:00:00	4	Temperatura máxima	20.5
132963	7	Sololá	719	Santiago Atitlán	14	Cerro de Oro	2	Febrero	2023-02-20T00:00:00	2024-11-08T19:00:00	3	Temperatura mínima	19.2
132964	7	Sololá	719	Santiago Atitlán	14	Cerro de Oro	2	Febrero	2023-02-20T00:00:00	2024-11-08T19:00:00	5	Humedad	61
132965	7	Sololá	719	Santiago Atitlán	14	Cerro de Oro	2	Febrero	2023-02-20T00:00:00	2024-11-08T19:00:00	6	Velocidad del viento	16.1
132966	7	Sololá	719	Santiago Atitlán	14	Cerro de Oro	2	Febrero	2023-02-20T00:00:00	2024-11-08T19:00:00	7	Dirección del viento	16.09
132967	7	Sololá	719	Santiago Atitlán	14	Cerro de Oro	2	Febrero	2023-02-20T00:00:00	2024-11-08T19:00:00	1	Precipitación	0
132968	7	Sololá	719	Santiago Atitlán	14	Cerro de Oro	2	Febrero	2023-02-20T00:00:00	2024-11-08T19:00:00	8	Radiación solar	0
132969	7	Sololá	719	Santiago Atitlán	14	Cerro de Oro	2	Febrero	2023-02-20T00:00:00	2024-11-08T20:00:00	2	Temperatura media	18.2
132970	7	Sololá	719	Santiago Atitlán	14	Cerro de Oro	2	Febrero	2023-02-20T00:00:00	2024-11-08T20:00:00	4	Temperatura máxima	19.2
132971	7	Sololá	719	Santiago Atitlán	14	Cerro de Oro	2	Febrero	2023-02-20T00:00:00	2024-11-08T20:00:00	3	Temperatura mínima	18.2
132972	7	Sololá	719	Santiago Atitlán	14	Cerro de Oro	2	Febrero	2023-02-20T00:00:00	2024-11-08T20:00:00	5	Humedad	65
132973	7	Sololá	719	Santiago Atitlán	14	Cerro de Oro	2	Febrero	2023-02-20T00:00:00	2024-11-08T20:00:00	6	Velocidad del viento	12.9
132974	7	Sololá	719	Santiago Atitlán	14	Cerro de Oro	2	Febrero	2023-02-20T00:00:00	2024-11-08T20:00:00	7	Dirección del viento	12.87
132975	7	Sololá	719	Santiago Atitlán	14	Cerro de Oro	2	Febrero	2023-02-20T00:00:00	2024-11-08T20:00:00	1	Precipitación	0
132976	7	Sololá	719	Santiago Atitlán	14	Cerro de Oro	2	Febrero	2023-02-20T00:00:00	2024-11-08T20:00:00	8	Radiación solar	0
132977	7	Sololá	719	Santiago Atitlán	14	Cerro de Oro	2	Febrero	2023-02-20T00:00:00	2024-11-08T21:00:00	2	Temperatura media	17.9
132978	7	Sololá	719	Santiago Atitlán	14	Cerro de Oro	2	Febrero	2023-02-20T00:00:00	2024-11-08T21:00:00	4	Temperatura máxima	18.3
132979	7	Sololá	719	Santiago Atitlán	14	Cerro de Oro	2	Febrero	2023-02-20T00:00:00	2024-11-08T21:00:00	3	Temperatura mínima	17.8
132980	7	Sololá	719	Santiago Atitlán	14	Cerro de Oro	2	Febrero	2023-02-20T00:00:00	2024-11-08T21:00:00	5	Humedad	65
132981	7	Sololá	719	Santiago Atitlán	14	Cerro de Oro	2	Febrero	2023-02-20T00:00:00	2024-11-08T21:00:00	6	Velocidad del viento	12.9
132982	7	Sololá	719	Santiago Atitlán	14	Cerro de Oro	2	Febrero	2023-02-20T00:00:00	2024-11-08T21:00:00	7	Dirección del viento	12.87
132983	7	Sololá	719	Santiago Atitlán	14	Cerro de Oro	2	Febrero	2023-02-20T00:00:00	2024-11-08T21:00:00	1	Precipitación	0
132984	7	Sololá	719	Santiago Atitlán	14	Cerro de Oro	2	Febrero	2023-02-20T00:00:00	2024-11-08T21:00:00	8	Radiación solar	0
132985	7	Sololá	719	Santiago Atitlán	14	Cerro de Oro	2	Febrero	2023-02-20T00:00:00	2024-11-08T22:00:00	2	Temperatura media	17
132986	7	Sololá	719	Santiago Atitlán	14	Cerro de Oro	2	Febrero	2023-02-20T00:00:00	2024-11-08T22:00:00	4	Temperatura máxima	18
132987	7	Sololá	719	Santiago Atitlán	14	Cerro de Oro	2	Febrero	2023-02-20T00:00:00	2024-11-08T22:00:00	3	Temperatura mínima	17
132988	7	Sololá	719	Santiago Atitlán	14	Cerro de Oro	2	Febrero	2023-02-20T00:00:00	2024-11-08T22:00:00	5	Humedad	67
132989	7	Sololá	719	Santiago Atitlán	14	Cerro de Oro	2	Febrero	2023-02-20T00:00:00	2024-11-08T22:00:00	6	Velocidad del viento	8
132990	7	Sololá	719	Santiago Atitlán	14	Cerro de Oro	2	Febrero	2023-02-20T00:00:00	2024-11-08T22:00:00	7	Dirección del viento	8.05
132991	7	Sololá	719	Santiago Atitlán	14	Cerro de Oro	2	Febrero	2023-02-20T00:00:00	2024-11-08T22:00:00	1	Precipitación	0
132992	7	Sololá	719	Santiago Atitlán	14	Cerro de Oro	2	Febrero	2023-02-20T00:00:00	2024-11-08T22:00:00	8	Radiación solar	0
132993	7	Sololá	719	Santiago Atitlán	14	Cerro de Oro	2	Febrero	2023-02-20T00:00:00	2024-11-08T23:00:00	2	Temperatura media	16.2
132994	7	Sololá	719	Santiago Atitlán	14	Cerro de Oro	2	Febrero	2023-02-20T00:00:00	2024-11-08T23:00:00	4	Temperatura máxima	17
132995	7	Sololá	719	Santiago Atitlán	14	Cerro de Oro	2	Febrero	2023-02-20T00:00:00	2024-11-08T23:00:00	3	Temperatura mínima	16.1
132996	7	Sololá	719	Santiago Atitlán	14	Cerro de Oro	2	Febrero	2023-02-20T00:00:00	2024-11-08T23:00:00	5	Humedad	68
132997	7	Sololá	719	Santiago Atitlán	14	Cerro de Oro	2	Febrero	2023-02-20T00:00:00	2024-11-08T23:00:00	6	Velocidad del viento	4.8
132998	7	Sololá	719	Santiago Atitlán	14	Cerro de Oro	2	Febrero	2023-02-20T00:00:00	2024-11-08T23:00:00	7	Dirección del viento	4.83
132999	7	Sololá	719	Santiago Atitlán	14	Cerro de Oro	2	Febrero	2023-02-20T00:00:00	2024-11-08T23:00:00	1	Precipitación	0
133000	7	Sololá	719	Santiago Atitlán	14	Cerro de Oro	2	Febrero	2023-02-20T00:00:00	2024-11-08T23:00:00	8	Radiación solar	0
133001	7	Sololá	719	Santiago Atitlán	14	Cerro de Oro	2	Febrero	2023-02-21T00:00:00	2024-11-08T00:00:00	2	Temperatura media	16.6
133002	7	Sololá	719	Santiago Atitlán	14	Cerro de Oro	2	Febrero	2023-02-21T00:00:00	2024-11-08T00:00:00	4	Temperatura máxima	16.9
133003	7	Sololá	719	Santiago Atitlán	14	Cerro de Oro	2	Febrero	2023-02-21T00:00:00	2024-11-08T00:00:00	3	Temperatura mínima	16.2
133004	7	Sololá	719	Santiago Atitlán	14	Cerro de Oro	2	Febrero	2023-02-21T00:00:00	2024-11-08T00:00:00	5	Humedad	65
133005	7	Sololá	719	Santiago Atitlán	14	Cerro de Oro	2	Febrero	2023-02-21T00:00:00	2024-11-08T00:00:00	6	Velocidad del viento	3.2
133006	7	Sololá	719	Santiago Atitlán	14	Cerro de Oro	2	Febrero	2023-02-21T00:00:00	2024-11-08T00:00:00	7	Dirección del viento	3.22
133007	7	Sololá	719	Santiago Atitlán	14	Cerro de Oro	2	Febrero	2023-02-21T00:00:00	2024-11-08T00:00:00	1	Precipitación	0
133008	7	Sololá	719	Santiago Atitlán	14	Cerro de Oro	2	Febrero	2023-02-21T00:00:00	2024-11-08T00:00:00	8	Radiación solar	0
133009	7	Sololá	719	Santiago Atitlán	14	Cerro de Oro	2	Febrero	2023-02-21T00:00:00	2024-11-08T01:00:00	2	Temperatura media	16.8
133010	7	Sololá	719	Santiago Atitlán	14	Cerro de Oro	2	Febrero	2023-02-21T00:00:00	2024-11-08T01:00:00	4	Temperatura máxima	16.9
133011	7	Sololá	719	Santiago Atitlán	14	Cerro de Oro	2	Febrero	2023-02-21T00:00:00	2024-11-08T01:00:00	3	Temperatura mínima	16.1
133012	7	Sololá	719	Santiago Atitlán	14	Cerro de Oro	2	Febrero	2023-02-21T00:00:00	2024-11-08T01:00:00	5	Humedad	67
133013	7	Sololá	719	Santiago Atitlán	14	Cerro de Oro	2	Febrero	2023-02-21T00:00:00	2024-11-08T01:00:00	6	Velocidad del viento	4.8
133014	7	Sololá	719	Santiago Atitlán	14	Cerro de Oro	2	Febrero	2023-02-21T00:00:00	2024-11-08T01:00:00	7	Dirección del viento	4.83
133015	7	Sololá	719	Santiago Atitlán	14	Cerro de Oro	2	Febrero	2023-02-21T00:00:00	2024-11-08T01:00:00	1	Precipitación	0
133016	7	Sololá	719	Santiago Atitlán	14	Cerro de Oro	2	Febrero	2023-02-21T00:00:00	2024-11-08T01:00:00	8	Radiación solar	0
133017	7	Sololá	719	Santiago Atitlán	14	Cerro de Oro	2	Febrero	2023-02-21T00:00:00	2024-11-08T02:00:00	2	Temperatura media	16.6
133018	7	Sololá	719	Santiago Atitlán	14	Cerro de Oro	2	Febrero	2023-02-21T00:00:00	2024-11-08T02:00:00	4	Temperatura máxima	16.8
133019	7	Sololá	719	Santiago Atitlán	14	Cerro de Oro	2	Febrero	2023-02-21T00:00:00	2024-11-08T02:00:00	3	Temperatura mínima	15.6
133020	7	Sololá	719	Santiago Atitlán	14	Cerro de Oro	2	Febrero	2023-02-21T00:00:00	2024-11-08T02:00:00	5	Humedad	69
133021	7	Sololá	719	Santiago Atitlán	14	Cerro de Oro	2	Febrero	2023-02-21T00:00:00	2024-11-08T02:00:00	6	Velocidad del viento	4.8
133022	7	Sololá	719	Santiago Atitlán	14	Cerro de Oro	2	Febrero	2023-02-21T00:00:00	2024-11-08T02:00:00	7	Dirección del viento	4.83
133023	7	Sololá	719	Santiago Atitlán	14	Cerro de Oro	2	Febrero	2023-02-21T00:00:00	2024-11-08T02:00:00	1	Precipitación	0
133024	7	Sololá	719	Santiago Atitlán	14	Cerro de Oro	2	Febrero	2023-02-21T00:00:00	2024-11-08T02:00:00	8	Radiación solar	0
133025	7	Sololá	719	Santiago Atitlán	14	Cerro de Oro	2	Febrero	2023-02-21T00:00:00	2024-11-08T03:00:00	2	Temperatura media	16.5
133026	7	Sololá	719	Santiago Atitlán	14	Cerro de Oro	2	Febrero	2023-02-21T00:00:00	2024-11-08T03:00:00	4	Temperatura máxima	16.7
133027	7	Sololá	719	Santiago Atitlán	14	Cerro de Oro	2	Febrero	2023-02-21T00:00:00	2024-11-08T03:00:00	3	Temperatura mínima	15.2
133028	7	Sololá	719	Santiago Atitlán	14	Cerro de Oro	2	Febrero	2023-02-21T00:00:00	2024-11-08T03:00:00	5	Humedad	68
133029	7	Sololá	719	Santiago Atitlán	14	Cerro de Oro	2	Febrero	2023-02-21T00:00:00	2024-11-08T03:00:00	6	Velocidad del viento	6.4
133030	7	Sololá	719	Santiago Atitlán	14	Cerro de Oro	2	Febrero	2023-02-21T00:00:00	2024-11-08T03:00:00	7	Dirección del viento	6.44
133031	7	Sololá	719	Santiago Atitlán	14	Cerro de Oro	2	Febrero	2023-02-21T00:00:00	2024-11-08T03:00:00	1	Precipitación	0
133032	7	Sololá	719	Santiago Atitlán	14	Cerro de Oro	2	Febrero	2023-02-21T00:00:00	2024-11-08T03:00:00	8	Radiación solar	0
133033	7	Sololá	719	Santiago Atitlán	14	Cerro de Oro	2	Febrero	2023-02-21T00:00:00	2024-11-08T04:00:00	2	Temperatura media	14.9
133034	7	Sololá	719	Santiago Atitlán	14	Cerro de Oro	2	Febrero	2023-02-21T00:00:00	2024-11-08T04:00:00	4	Temperatura máxima	16.5
133035	7	Sololá	719	Santiago Atitlán	14	Cerro de Oro	2	Febrero	2023-02-21T00:00:00	2024-11-08T04:00:00	3	Temperatura mínima	14.9
133036	7	Sololá	719	Santiago Atitlán	14	Cerro de Oro	2	Febrero	2023-02-21T00:00:00	2024-11-08T04:00:00	5	Humedad	71
133037	7	Sololá	719	Santiago Atitlán	14	Cerro de Oro	2	Febrero	2023-02-21T00:00:00	2024-11-08T04:00:00	6	Velocidad del viento	3.2
133038	7	Sololá	719	Santiago Atitlán	14	Cerro de Oro	2	Febrero	2023-02-21T00:00:00	2024-11-08T04:00:00	7	Dirección del viento	3.22
133039	7	Sololá	719	Santiago Atitlán	14	Cerro de Oro	2	Febrero	2023-02-21T00:00:00	2024-11-08T04:00:00	1	Precipitación	0
133040	7	Sololá	719	Santiago Atitlán	14	Cerro de Oro	2	Febrero	2023-02-21T00:00:00	2024-11-08T04:00:00	8	Radiación solar	0
133041	7	Sololá	719	Santiago Atitlán	14	Cerro de Oro	2	Febrero	2023-02-21T00:00:00	2024-11-08T05:00:00	2	Temperatura media	14.9
133042	7	Sololá	719	Santiago Atitlán	14	Cerro de Oro	2	Febrero	2023-02-21T00:00:00	2024-11-08T05:00:00	4	Temperatura máxima	15.1
133043	7	Sololá	719	Santiago Atitlán	14	Cerro de Oro	2	Febrero	2023-02-21T00:00:00	2024-11-08T05:00:00	3	Temperatura mínima	14.9
133044	7	Sololá	719	Santiago Atitlán	14	Cerro de Oro	2	Febrero	2023-02-21T00:00:00	2024-11-08T05:00:00	5	Humedad	71
133045	7	Sololá	719	Santiago Atitlán	14	Cerro de Oro	2	Febrero	2023-02-21T00:00:00	2024-11-08T05:00:00	6	Velocidad del viento	3.2
133046	7	Sololá	719	Santiago Atitlán	14	Cerro de Oro	2	Febrero	2023-02-21T00:00:00	2024-11-08T05:00:00	7	Dirección del viento	3.22
133047	7	Sololá	719	Santiago Atitlán	14	Cerro de Oro	2	Febrero	2023-02-21T00:00:00	2024-11-08T05:00:00	1	Precipitación	0
133048	7	Sololá	719	Santiago Atitlán	14	Cerro de Oro	2	Febrero	2023-02-21T00:00:00	2024-11-08T05:00:00	8	Radiación solar	0
133049	7	Sololá	719	Santiago Atitlán	14	Cerro de Oro	2	Febrero	2023-02-21T00:00:00	2024-11-08T06:00:00	2	Temperatura media	15
133050	7	Sololá	719	Santiago Atitlán	14	Cerro de Oro	2	Febrero	2023-02-21T00:00:00	2024-11-08T06:00:00	4	Temperatura máxima	15.2
133051	7	Sololá	719	Santiago Atitlán	14	Cerro de Oro	2	Febrero	2023-02-21T00:00:00	2024-11-08T06:00:00	3	Temperatura mínima	14.9
133052	7	Sololá	719	Santiago Atitlán	14	Cerro de Oro	2	Febrero	2023-02-21T00:00:00	2024-11-08T06:00:00	5	Humedad	72
133053	7	Sololá	719	Santiago Atitlán	14	Cerro de Oro	2	Febrero	2023-02-21T00:00:00	2024-11-08T06:00:00	6	Velocidad del viento	3.2
133054	7	Sololá	719	Santiago Atitlán	14	Cerro de Oro	2	Febrero	2023-02-21T00:00:00	2024-11-08T06:00:00	7	Dirección del viento	3.22
133055	7	Sololá	719	Santiago Atitlán	14	Cerro de Oro	2	Febrero	2023-02-21T00:00:00	2024-11-08T06:00:00	1	Precipitación	0
133056	7	Sololá	719	Santiago Atitlán	14	Cerro de Oro	2	Febrero	2023-02-21T00:00:00	2024-11-08T06:00:00	8	Radiación solar	0
133057	7	Sololá	719	Santiago Atitlán	14	Cerro de Oro	2	Febrero	2023-02-21T00:00:00	2024-11-08T07:00:00	2	Temperatura media	15.7
133058	7	Sololá	719	Santiago Atitlán	14	Cerro de Oro	2	Febrero	2023-02-21T00:00:00	2024-11-08T07:00:00	4	Temperatura máxima	15.7
133059	7	Sololá	719	Santiago Atitlán	14	Cerro de Oro	2	Febrero	2023-02-21T00:00:00	2024-11-08T07:00:00	3	Temperatura mínima	14.8
133060	7	Sololá	719	Santiago Atitlán	14	Cerro de Oro	2	Febrero	2023-02-21T00:00:00	2024-11-08T07:00:00	5	Humedad	72
133061	7	Sololá	719	Santiago Atitlán	14	Cerro de Oro	2	Febrero	2023-02-21T00:00:00	2024-11-08T07:00:00	6	Velocidad del viento	4.8
133062	7	Sololá	719	Santiago Atitlán	14	Cerro de Oro	2	Febrero	2023-02-21T00:00:00	2024-11-08T07:00:00	7	Dirección del viento	4.83
133063	7	Sololá	719	Santiago Atitlán	14	Cerro de Oro	2	Febrero	2023-02-21T00:00:00	2024-11-08T07:00:00	1	Precipitación	0
133064	7	Sololá	719	Santiago Atitlán	14	Cerro de Oro	2	Febrero	2023-02-21T00:00:00	2024-11-08T07:00:00	8	Radiación solar	21
133065	7	Sololá	719	Santiago Atitlán	14	Cerro de Oro	2	Febrero	2023-02-21T00:00:00	2024-11-08T08:00:00	2	Temperatura media	16.9
133066	7	Sololá	719	Santiago Atitlán	14	Cerro de Oro	2	Febrero	2023-02-21T00:00:00	2024-11-08T08:00:00	4	Temperatura máxima	16.9
133067	7	Sololá	719	Santiago Atitlán	14	Cerro de Oro	2	Febrero	2023-02-21T00:00:00	2024-11-08T08:00:00	3	Temperatura mínima	15.7
133068	7	Sololá	719	Santiago Atitlán	14	Cerro de Oro	2	Febrero	2023-02-21T00:00:00	2024-11-08T08:00:00	5	Humedad	70
133069	7	Sololá	719	Santiago Atitlán	14	Cerro de Oro	2	Febrero	2023-02-21T00:00:00	2024-11-08T08:00:00	6	Velocidad del viento	3.2
133070	7	Sololá	719	Santiago Atitlán	14	Cerro de Oro	2	Febrero	2023-02-21T00:00:00	2024-11-08T08:00:00	7	Dirección del viento	3.22
133071	7	Sololá	719	Santiago Atitlán	14	Cerro de Oro	2	Febrero	2023-02-21T00:00:00	2024-11-08T08:00:00	1	Precipitación	0
133072	7	Sololá	719	Santiago Atitlán	14	Cerro de Oro	2	Febrero	2023-02-21T00:00:00	2024-11-08T08:00:00	8	Radiación solar	115
133073	7	Sololá	719	Santiago Atitlán	14	Cerro de Oro	2	Febrero	2023-02-21T00:00:00	2024-11-08T09:00:00	2	Temperatura media	19.5
133074	7	Sololá	719	Santiago Atitlán	14	Cerro de Oro	2	Febrero	2023-02-21T00:00:00	2024-11-08T09:00:00	4	Temperatura máxima	19.5
133075	7	Sololá	719	Santiago Atitlán	14	Cerro de Oro	2	Febrero	2023-02-21T00:00:00	2024-11-08T09:00:00	3	Temperatura mínima	16.9
133076	7	Sololá	719	Santiago Atitlán	14	Cerro de Oro	2	Febrero	2023-02-21T00:00:00	2024-11-08T09:00:00	5	Humedad	63
133077	7	Sololá	719	Santiago Atitlán	14	Cerro de Oro	2	Febrero	2023-02-21T00:00:00	2024-11-08T09:00:00	6	Velocidad del viento	1.6
133078	7	Sololá	719	Santiago Atitlán	14	Cerro de Oro	2	Febrero	2023-02-21T00:00:00	2024-11-08T09:00:00	7	Dirección del viento	1.61
133079	7	Sololá	719	Santiago Atitlán	14	Cerro de Oro	2	Febrero	2023-02-21T00:00:00	2024-11-08T09:00:00	1	Precipitación	0
133080	7	Sololá	719	Santiago Atitlán	14	Cerro de Oro	2	Febrero	2023-02-21T00:00:00	2024-11-08T09:00:00	8	Radiación solar	331
133081	7	Sololá	719	Santiago Atitlán	14	Cerro de Oro	2	Febrero	2023-02-21T00:00:00	2024-11-08T10:00:00	2	Temperatura media	20.6
133082	7	Sololá	719	Santiago Atitlán	14	Cerro de Oro	2	Febrero	2023-02-21T00:00:00	2024-11-08T10:00:00	4	Temperatura máxima	20.8
133083	7	Sololá	719	Santiago Atitlán	14	Cerro de Oro	2	Febrero	2023-02-21T00:00:00	2024-11-08T10:00:00	3	Temperatura mínima	19.4
133084	7	Sololá	719	Santiago Atitlán	14	Cerro de Oro	2	Febrero	2023-02-21T00:00:00	2024-11-08T10:00:00	5	Humedad	60
133085	7	Sololá	719	Santiago Atitlán	14	Cerro de Oro	2	Febrero	2023-02-21T00:00:00	2024-11-08T10:00:00	6	Velocidad del viento	3.2
133086	7	Sololá	719	Santiago Atitlán	14	Cerro de Oro	2	Febrero	2023-02-21T00:00:00	2024-11-08T10:00:00	7	Dirección del viento	3.22
133087	7	Sololá	719	Santiago Atitlán	14	Cerro de Oro	2	Febrero	2023-02-21T00:00:00	2024-11-08T10:00:00	1	Precipitación	0
133088	7	Sololá	719	Santiago Atitlán	14	Cerro de Oro	2	Febrero	2023-02-21T00:00:00	2024-11-08T10:00:00	8	Radiación solar	497
133089	7	Sololá	719	Santiago Atitlán	14	Cerro de Oro	2	Febrero	2023-02-21T00:00:00	2024-11-08T11:00:00	2	Temperatura media	20.5
133090	7	Sololá	719	Santiago Atitlán	14	Cerro de Oro	2	Febrero	2023-02-21T00:00:00	2024-11-08T11:00:00	4	Temperatura máxima	20.6
133091	7	Sololá	719	Santiago Atitlán	14	Cerro de Oro	2	Febrero	2023-02-21T00:00:00	2024-11-08T11:00:00	3	Temperatura mínima	19.8
133092	7	Sololá	719	Santiago Atitlán	14	Cerro de Oro	2	Febrero	2023-02-21T00:00:00	2024-11-08T11:00:00	5	Humedad	63
133093	7	Sololá	719	Santiago Atitlán	14	Cerro de Oro	2	Febrero	2023-02-21T00:00:00	2024-11-08T11:00:00	6	Velocidad del viento	4.8
133094	7	Sololá	719	Santiago Atitlán	14	Cerro de Oro	2	Febrero	2023-02-21T00:00:00	2024-11-08T11:00:00	7	Dirección del viento	4.83
133095	7	Sololá	719	Santiago Atitlán	14	Cerro de Oro	2	Febrero	2023-02-21T00:00:00	2024-11-08T11:00:00	1	Precipitación	0
133096	7	Sololá	719	Santiago Atitlán	14	Cerro de Oro	2	Febrero	2023-02-21T00:00:00	2024-11-08T11:00:00	8	Radiación solar	659
133097	7	Sololá	719	Santiago Atitlán	14	Cerro de Oro	2	Febrero	2023-02-21T00:00:00	2024-11-08T12:00:00	2	Temperatura media	22.4
133098	7	Sololá	719	Santiago Atitlán	14	Cerro de Oro	2	Febrero	2023-02-21T00:00:00	2024-11-08T12:00:00	4	Temperatura máxima	22.4
133099	7	Sololá	719	Santiago Atitlán	14	Cerro de Oro	2	Febrero	2023-02-21T00:00:00	2024-11-08T12:00:00	3	Temperatura mínima	20.5
133100	7	Sololá	719	Santiago Atitlán	14	Cerro de Oro	2	Febrero	2023-02-21T00:00:00	2024-11-08T12:00:00	5	Humedad	59
133101	7	Sololá	719	Santiago Atitlán	14	Cerro de Oro	2	Febrero	2023-02-21T00:00:00	2024-11-08T12:00:00	6	Velocidad del viento	4.8
133102	7	Sololá	719	Santiago Atitlán	14	Cerro de Oro	2	Febrero	2023-02-21T00:00:00	2024-11-08T12:00:00	7	Dirección del viento	4.83
133103	7	Sololá	719	Santiago Atitlán	14	Cerro de Oro	2	Febrero	2023-02-21T00:00:00	2024-11-08T12:00:00	1	Precipitación	0
133104	7	Sololá	719	Santiago Atitlán	14	Cerro de Oro	2	Febrero	2023-02-21T00:00:00	2024-11-08T12:00:00	8	Radiación solar	828
133105	7	Sololá	719	Santiago Atitlán	14	Cerro de Oro	2	Febrero	2023-02-21T00:00:00	2024-11-08T13:00:00	2	Temperatura media	24
133106	7	Sololá	719	Santiago Atitlán	14	Cerro de Oro	2	Febrero	2023-02-21T00:00:00	2024-11-08T13:00:00	4	Temperatura máxima	24.4
133107	7	Sololá	719	Santiago Atitlán	14	Cerro de Oro	2	Febrero	2023-02-21T00:00:00	2024-11-08T13:00:00	3	Temperatura mínima	22.4
133108	7	Sololá	719	Santiago Atitlán	14	Cerro de Oro	2	Febrero	2023-02-21T00:00:00	2024-11-08T13:00:00	5	Humedad	54
133109	7	Sololá	719	Santiago Atitlán	14	Cerro de Oro	2	Febrero	2023-02-21T00:00:00	2024-11-08T13:00:00	6	Velocidad del viento	6.4
133110	7	Sololá	719	Santiago Atitlán	14	Cerro de Oro	2	Febrero	2023-02-21T00:00:00	2024-11-08T13:00:00	7	Dirección del viento	6.44
133111	7	Sololá	719	Santiago Atitlán	14	Cerro de Oro	2	Febrero	2023-02-21T00:00:00	2024-11-08T13:00:00	1	Precipitación	0
133112	7	Sololá	719	Santiago Atitlán	14	Cerro de Oro	2	Febrero	2023-02-21T00:00:00	2024-11-08T13:00:00	8	Radiación solar	883
133113	7	Sololá	719	Santiago Atitlán	14	Cerro de Oro	2	Febrero	2023-02-21T00:00:00	2024-11-08T14:00:00	2	Temperatura media	23.6
133114	7	Sololá	719	Santiago Atitlán	14	Cerro de Oro	2	Febrero	2023-02-21T00:00:00	2024-11-08T14:00:00	4	Temperatura máxima	24.2
133115	7	Sololá	719	Santiago Atitlán	14	Cerro de Oro	2	Febrero	2023-02-21T00:00:00	2024-11-08T14:00:00	3	Temperatura mínima	23.6
133116	7	Sololá	719	Santiago Atitlán	14	Cerro de Oro	2	Febrero	2023-02-21T00:00:00	2024-11-08T14:00:00	5	Humedad	56
133117	7	Sololá	719	Santiago Atitlán	14	Cerro de Oro	2	Febrero	2023-02-21T00:00:00	2024-11-08T14:00:00	6	Velocidad del viento	12.9
133118	7	Sololá	719	Santiago Atitlán	14	Cerro de Oro	2	Febrero	2023-02-21T00:00:00	2024-11-08T14:00:00	7	Dirección del viento	12.87
133119	7	Sololá	719	Santiago Atitlán	14	Cerro de Oro	2	Febrero	2023-02-21T00:00:00	2024-11-08T14:00:00	1	Precipitación	0
133120	7	Sololá	719	Santiago Atitlán	14	Cerro de Oro	2	Febrero	2023-02-21T00:00:00	2024-11-08T14:00:00	8	Radiación solar	826
133121	7	Sololá	719	Santiago Atitlán	14	Cerro de Oro	2	Febrero	2023-02-21T00:00:00	2024-11-08T15:00:00	2	Temperatura media	23
133122	7	Sololá	719	Santiago Atitlán	14	Cerro de Oro	2	Febrero	2023-02-21T00:00:00	2024-11-08T15:00:00	4	Temperatura máxima	23.6
133123	7	Sololá	719	Santiago Atitlán	14	Cerro de Oro	2	Febrero	2023-02-21T00:00:00	2024-11-08T15:00:00	3	Temperatura mínima	22.8
133124	7	Sololá	719	Santiago Atitlán	14	Cerro de Oro	2	Febrero	2023-02-21T00:00:00	2024-11-08T15:00:00	5	Humedad	59
133125	7	Sololá	719	Santiago Atitlán	14	Cerro de Oro	2	Febrero	2023-02-21T00:00:00	2024-11-08T15:00:00	6	Velocidad del viento	12.9
133126	7	Sololá	719	Santiago Atitlán	14	Cerro de Oro	2	Febrero	2023-02-21T00:00:00	2024-11-08T15:00:00	7	Dirección del viento	12.87
133127	7	Sololá	719	Santiago Atitlán	14	Cerro de Oro	2	Febrero	2023-02-21T00:00:00	2024-11-08T15:00:00	1	Precipitación	0
133128	7	Sololá	719	Santiago Atitlán	14	Cerro de Oro	2	Febrero	2023-02-21T00:00:00	2024-11-08T15:00:00	8	Radiación solar	621
133129	7	Sololá	719	Santiago Atitlán	14	Cerro de Oro	2	Febrero	2023-02-21T00:00:00	2024-11-08T16:00:00	2	Temperatura media	21.7
133130	7	Sololá	719	Santiago Atitlán	14	Cerro de Oro	2	Febrero	2023-02-21T00:00:00	2024-11-08T16:00:00	4	Temperatura máxima	23.1
133131	7	Sololá	719	Santiago Atitlán	14	Cerro de Oro	2	Febrero	2023-02-21T00:00:00	2024-11-08T16:00:00	3	Temperatura mínima	21.7
133132	7	Sololá	719	Santiago Atitlán	14	Cerro de Oro	2	Febrero	2023-02-21T00:00:00	2024-11-08T16:00:00	5	Humedad	68
133133	7	Sololá	719	Santiago Atitlán	14	Cerro de Oro	2	Febrero	2023-02-21T00:00:00	2024-11-08T16:00:00	6	Velocidad del viento	9.7
133134	7	Sololá	719	Santiago Atitlán	14	Cerro de Oro	2	Febrero	2023-02-21T00:00:00	2024-11-08T16:00:00	7	Dirección del viento	9.66
133135	7	Sololá	719	Santiago Atitlán	14	Cerro de Oro	2	Febrero	2023-02-21T00:00:00	2024-11-08T16:00:00	1	Precipitación	0
133136	7	Sololá	719	Santiago Atitlán	14	Cerro de Oro	2	Febrero	2023-02-21T00:00:00	2024-11-08T16:00:00	8	Radiación solar	151
133137	7	Sololá	719	Santiago Atitlán	14	Cerro de Oro	2	Febrero	2023-02-21T00:00:00	2024-11-08T17:00:00	2	Temperatura media	20.4
133138	7	Sololá	719	Santiago Atitlán	14	Cerro de Oro	2	Febrero	2023-02-21T00:00:00	2024-11-08T17:00:00	4	Temperatura máxima	21.7
133139	7	Sololá	719	Santiago Atitlán	14	Cerro de Oro	2	Febrero	2023-02-21T00:00:00	2024-11-08T17:00:00	3	Temperatura mínima	20.4
133140	7	Sololá	719	Santiago Atitlán	14	Cerro de Oro	2	Febrero	2023-02-21T00:00:00	2024-11-08T17:00:00	5	Humedad	76
133141	7	Sololá	719	Santiago Atitlán	14	Cerro de Oro	2	Febrero	2023-02-21T00:00:00	2024-11-08T17:00:00	6	Velocidad del viento	11.3
133142	7	Sololá	719	Santiago Atitlán	14	Cerro de Oro	2	Febrero	2023-02-21T00:00:00	2024-11-08T17:00:00	7	Dirección del viento	11.27
133143	7	Sololá	719	Santiago Atitlán	14	Cerro de Oro	2	Febrero	2023-02-21T00:00:00	2024-11-08T17:00:00	1	Precipitación	0
133144	7	Sololá	719	Santiago Atitlán	14	Cerro de Oro	2	Febrero	2023-02-21T00:00:00	2024-11-08T17:00:00	8	Radiación solar	162
133145	7	Sololá	719	Santiago Atitlán	14	Cerro de Oro	2	Febrero	2023-02-21T00:00:00	2024-11-08T18:00:00	2	Temperatura media	18.6
133146	7	Sololá	719	Santiago Atitlán	14	Cerro de Oro	2	Febrero	2023-02-21T00:00:00	2024-11-08T18:00:00	4	Temperatura máxima	20.4
133147	7	Sololá	719	Santiago Atitlán	14	Cerro de Oro	2	Febrero	2023-02-21T00:00:00	2024-11-08T18:00:00	3	Temperatura mínima	18.6
133148	7	Sololá	719	Santiago Atitlán	14	Cerro de Oro	2	Febrero	2023-02-21T00:00:00	2024-11-08T18:00:00	5	Humedad	82
133149	7	Sololá	719	Santiago Atitlán	14	Cerro de Oro	2	Febrero	2023-02-21T00:00:00	2024-11-08T18:00:00	6	Velocidad del viento	11.3
133150	7	Sololá	719	Santiago Atitlán	14	Cerro de Oro	2	Febrero	2023-02-21T00:00:00	2024-11-08T18:00:00	7	Dirección del viento	11.27
133151	7	Sololá	719	Santiago Atitlán	14	Cerro de Oro	2	Febrero	2023-02-21T00:00:00	2024-11-08T18:00:00	1	Precipitación	0
133152	7	Sololá	719	Santiago Atitlán	14	Cerro de Oro	2	Febrero	2023-02-21T00:00:00	2024-11-08T18:00:00	8	Radiación solar	48
133153	7	Sololá	719	Santiago Atitlán	14	Cerro de Oro	2	Febrero	2023-02-21T00:00:00	2024-11-08T19:00:00	2	Temperatura media	17.8
133154	7	Sololá	719	Santiago Atitlán	14	Cerro de Oro	2	Febrero	2023-02-21T00:00:00	2024-11-08T19:00:00	4	Temperatura máxima	18.6
133155	7	Sololá	719	Santiago Atitlán	14	Cerro de Oro	2	Febrero	2023-02-21T00:00:00	2024-11-08T19:00:00	3	Temperatura mínima	17.8
133156	7	Sololá	719	Santiago Atitlán	14	Cerro de Oro	2	Febrero	2023-02-21T00:00:00	2024-11-08T19:00:00	5	Humedad	85
133157	7	Sololá	719	Santiago Atitlán	14	Cerro de Oro	2	Febrero	2023-02-21T00:00:00	2024-11-08T19:00:00	6	Velocidad del viento	11.3
133158	7	Sololá	719	Santiago Atitlán	14	Cerro de Oro	2	Febrero	2023-02-21T00:00:00	2024-11-08T19:00:00	7	Dirección del viento	11.27
133159	7	Sololá	719	Santiago Atitlán	14	Cerro de Oro	2	Febrero	2023-02-21T00:00:00	2024-11-08T19:00:00	1	Precipitación	0
133160	7	Sololá	719	Santiago Atitlán	14	Cerro de Oro	2	Febrero	2023-02-21T00:00:00	2024-11-08T19:00:00	8	Radiación solar	0
133161	7	Sololá	719	Santiago Atitlán	14	Cerro de Oro	2	Febrero	2023-02-21T00:00:00	2024-11-08T20:00:00	2	Temperatura media	17.1
133162	7	Sololá	719	Santiago Atitlán	14	Cerro de Oro	2	Febrero	2023-02-21T00:00:00	2024-11-08T20:00:00	4	Temperatura máxima	17.8
133163	7	Sololá	719	Santiago Atitlán	14	Cerro de Oro	2	Febrero	2023-02-21T00:00:00	2024-11-08T20:00:00	3	Temperatura mínima	17.1
133164	7	Sololá	719	Santiago Atitlán	14	Cerro de Oro	2	Febrero	2023-02-21T00:00:00	2024-11-08T20:00:00	5	Humedad	86
133165	7	Sololá	719	Santiago Atitlán	14	Cerro de Oro	2	Febrero	2023-02-21T00:00:00	2024-11-08T20:00:00	6	Velocidad del viento	4.8
133166	7	Sololá	719	Santiago Atitlán	14	Cerro de Oro	2	Febrero	2023-02-21T00:00:00	2024-11-08T20:00:00	7	Dirección del viento	4.83
133167	7	Sololá	719	Santiago Atitlán	14	Cerro de Oro	2	Febrero	2023-02-21T00:00:00	2024-11-08T20:00:00	1	Precipitación	0
133168	7	Sololá	719	Santiago Atitlán	14	Cerro de Oro	2	Febrero	2023-02-21T00:00:00	2024-11-08T20:00:00	8	Radiación solar	0
133169	7	Sololá	719	Santiago Atitlán	14	Cerro de Oro	2	Febrero	2023-02-21T00:00:00	2024-11-08T21:00:00	2	Temperatura media	17.4
133170	7	Sololá	719	Santiago Atitlán	14	Cerro de Oro	2	Febrero	2023-02-21T00:00:00	2024-11-08T21:00:00	4	Temperatura máxima	17.4
133171	7	Sololá	719	Santiago Atitlán	14	Cerro de Oro	2	Febrero	2023-02-21T00:00:00	2024-11-08T21:00:00	3	Temperatura mínima	17
133172	7	Sololá	719	Santiago Atitlán	14	Cerro de Oro	2	Febrero	2023-02-21T00:00:00	2024-11-08T21:00:00	5	Humedad	85
133173	7	Sololá	719	Santiago Atitlán	14	Cerro de Oro	2	Febrero	2023-02-21T00:00:00	2024-11-08T21:00:00	6	Velocidad del viento	4.8
133174	7	Sololá	719	Santiago Atitlán	14	Cerro de Oro	2	Febrero	2023-02-21T00:00:00	2024-11-08T21:00:00	7	Dirección del viento	4.83
133175	7	Sololá	719	Santiago Atitlán	14	Cerro de Oro	2	Febrero	2023-02-21T00:00:00	2024-11-08T21:00:00	1	Precipitación	0
133176	7	Sololá	719	Santiago Atitlán	14	Cerro de Oro	2	Febrero	2023-02-21T00:00:00	2024-11-08T21:00:00	8	Radiación solar	0
133177	7	Sololá	719	Santiago Atitlán	14	Cerro de Oro	2	Febrero	2023-02-21T00:00:00	2024-11-08T22:00:00	2	Temperatura media	17.5
133178	7	Sololá	719	Santiago Atitlán	14	Cerro de Oro	2	Febrero	2023-02-21T00:00:00	2024-11-08T22:00:00	4	Temperatura máxima	17.5
133179	7	Sololá	719	Santiago Atitlán	14	Cerro de Oro	2	Febrero	2023-02-21T00:00:00	2024-11-08T22:00:00	3	Temperatura mínima	17.2
133180	7	Sololá	719	Santiago Atitlán	14	Cerro de Oro	2	Febrero	2023-02-21T00:00:00	2024-11-08T22:00:00	5	Humedad	86
133181	7	Sololá	719	Santiago Atitlán	14	Cerro de Oro	2	Febrero	2023-02-21T00:00:00	2024-11-08T22:00:00	6	Velocidad del viento	1.6
133182	7	Sololá	719	Santiago Atitlán	14	Cerro de Oro	2	Febrero	2023-02-21T00:00:00	2024-11-08T22:00:00	7	Dirección del viento	1.61
133183	7	Sololá	719	Santiago Atitlán	14	Cerro de Oro	2	Febrero	2023-02-21T00:00:00	2024-11-08T22:00:00	1	Precipitación	0
133184	7	Sololá	719	Santiago Atitlán	14	Cerro de Oro	2	Febrero	2023-02-21T00:00:00	2024-11-08T22:00:00	8	Radiación solar	0
133185	7	Sololá	719	Santiago Atitlán	14	Cerro de Oro	2	Febrero	2023-02-21T00:00:00	2024-11-08T23:00:00	2	Temperatura media	16.8
133186	7	Sololá	719	Santiago Atitlán	14	Cerro de Oro	2	Febrero	2023-02-21T00:00:00	2024-11-08T23:00:00	4	Temperatura máxima	17.5
133187	7	Sololá	719	Santiago Atitlán	14	Cerro de Oro	2	Febrero	2023-02-21T00:00:00	2024-11-08T23:00:00	3	Temperatura mínima	16.7
133188	7	Sololá	719	Santiago Atitlán	14	Cerro de Oro	2	Febrero	2023-02-21T00:00:00	2024-11-08T23:00:00	5	Humedad	89
133189	7	Sololá	719	Santiago Atitlán	14	Cerro de Oro	2	Febrero	2023-02-21T00:00:00	2024-11-08T23:00:00	6	Velocidad del viento	3.2
133190	7	Sololá	719	Santiago Atitlán	14	Cerro de Oro	2	Febrero	2023-02-21T00:00:00	2024-11-08T23:00:00	7	Dirección del viento	3.22
133191	7	Sololá	719	Santiago Atitlán	14	Cerro de Oro	2	Febrero	2023-02-21T00:00:00	2024-11-08T23:00:00	1	Precipitación	0
133192	7	Sololá	719	Santiago Atitlán	14	Cerro de Oro	2	Febrero	2023-02-21T00:00:00	2024-11-08T23:00:00	8	Radiación solar	0
133193	7	Sololá	719	Santiago Atitlán	14	Cerro de Oro	2	Febrero	2023-02-22T00:00:00	2024-11-08T00:00:00	2	Temperatura media	16.8
133194	7	Sololá	719	Santiago Atitlán	14	Cerro de Oro	2	Febrero	2023-02-22T00:00:00	2024-11-08T00:00:00	4	Temperatura máxima	17.1
133195	7	Sololá	719	Santiago Atitlán	14	Cerro de Oro	2	Febrero	2023-02-22T00:00:00	2024-11-08T00:00:00	3	Temperatura mínima	16.8
133196	7	Sololá	719	Santiago Atitlán	14	Cerro de Oro	2	Febrero	2023-02-22T00:00:00	2024-11-08T00:00:00	5	Humedad	84
133197	7	Sololá	719	Santiago Atitlán	14	Cerro de Oro	2	Febrero	2023-02-22T00:00:00	2024-11-08T00:00:00	6	Velocidad del viento	1.6
133198	7	Sololá	719	Santiago Atitlán	14	Cerro de Oro	2	Febrero	2023-02-22T00:00:00	2024-11-08T00:00:00	7	Dirección del viento	1.61
133199	7	Sololá	719	Santiago Atitlán	14	Cerro de Oro	2	Febrero	2023-02-22T00:00:00	2024-11-08T00:00:00	1	Precipitación	0
133200	7	Sololá	719	Santiago Atitlán	14	Cerro de Oro	2	Febrero	2023-02-22T00:00:00	2024-11-08T00:00:00	8	Radiación solar	0
133201	7	Sololá	719	Santiago Atitlán	14	Cerro de Oro	2	Febrero	2023-02-22T00:00:00	2024-11-08T01:00:00	2	Temperatura media	16.6
133202	7	Sololá	719	Santiago Atitlán	14	Cerro de Oro	2	Febrero	2023-02-22T00:00:00	2024-11-08T01:00:00	4	Temperatura máxima	16.8
133203	7	Sololá	719	Santiago Atitlán	14	Cerro de Oro	2	Febrero	2023-02-22T00:00:00	2024-11-08T01:00:00	3	Temperatura mínima	16.5
133204	7	Sololá	719	Santiago Atitlán	14	Cerro de Oro	2	Febrero	2023-02-22T00:00:00	2024-11-08T01:00:00	5	Humedad	85
133205	7	Sololá	719	Santiago Atitlán	14	Cerro de Oro	2	Febrero	2023-02-22T00:00:00	2024-11-08T01:00:00	6	Velocidad del viento	3.2
133206	7	Sololá	719	Santiago Atitlán	14	Cerro de Oro	2	Febrero	2023-02-22T00:00:00	2024-11-08T01:00:00	7	Dirección del viento	3.22
133207	7	Sololá	719	Santiago Atitlán	14	Cerro de Oro	2	Febrero	2023-02-22T00:00:00	2024-11-08T01:00:00	1	Precipitación	0
133208	7	Sololá	719	Santiago Atitlán	14	Cerro de Oro	2	Febrero	2023-02-22T00:00:00	2024-11-08T01:00:00	8	Radiación solar	0
133209	7	Sololá	719	Santiago Atitlán	14	Cerro de Oro	2	Febrero	2023-02-22T00:00:00	2024-11-08T02:00:00	2	Temperatura media	16.7
133210	7	Sololá	719	Santiago Atitlán	14	Cerro de Oro	2	Febrero	2023-02-22T00:00:00	2024-11-08T02:00:00	4	Temperatura máxima	16.8
133211	7	Sololá	719	Santiago Atitlán	14	Cerro de Oro	2	Febrero	2023-02-22T00:00:00	2024-11-08T02:00:00	3	Temperatura mínima	16.5
133212	7	Sololá	719	Santiago Atitlán	14	Cerro de Oro	2	Febrero	2023-02-22T00:00:00	2024-11-08T02:00:00	5	Humedad	87
133213	7	Sololá	719	Santiago Atitlán	14	Cerro de Oro	2	Febrero	2023-02-22T00:00:00	2024-11-08T02:00:00	6	Velocidad del viento	3.2
133214	7	Sololá	719	Santiago Atitlán	14	Cerro de Oro	2	Febrero	2023-02-22T00:00:00	2024-11-08T02:00:00	7	Dirección del viento	3.22
133215	7	Sololá	719	Santiago Atitlán	14	Cerro de Oro	2	Febrero	2023-02-22T00:00:00	2024-11-08T02:00:00	1	Precipitación	0
133216	7	Sololá	719	Santiago Atitlán	14	Cerro de Oro	2	Febrero	2023-02-22T00:00:00	2024-11-08T02:00:00	8	Radiación solar	0
133217	7	Sololá	719	Santiago Atitlán	14	Cerro de Oro	2	Febrero	2023-02-22T00:00:00	2024-11-08T03:00:00	2	Temperatura media	16.6
133218	7	Sololá	719	Santiago Atitlán	14	Cerro de Oro	2	Febrero	2023-02-22T00:00:00	2024-11-08T03:00:00	4	Temperatura máxima	16.7
133219	7	Sololá	719	Santiago Atitlán	14	Cerro de Oro	2	Febrero	2023-02-22T00:00:00	2024-11-08T03:00:00	3	Temperatura mínima	16.4
133220	7	Sololá	719	Santiago Atitlán	14	Cerro de Oro	2	Febrero	2023-02-22T00:00:00	2024-11-08T03:00:00	5	Humedad	87
133221	7	Sololá	719	Santiago Atitlán	14	Cerro de Oro	2	Febrero	2023-02-22T00:00:00	2024-11-08T03:00:00	6	Velocidad del viento	3.2
133222	7	Sololá	719	Santiago Atitlán	14	Cerro de Oro	2	Febrero	2023-02-22T00:00:00	2024-11-08T03:00:00	7	Dirección del viento	3.22
133223	7	Sololá	719	Santiago Atitlán	14	Cerro de Oro	2	Febrero	2023-02-22T00:00:00	2024-11-08T03:00:00	1	Precipitación	0
133224	7	Sololá	719	Santiago Atitlán	14	Cerro de Oro	2	Febrero	2023-02-22T00:00:00	2024-11-08T03:00:00	8	Radiación solar	0
133225	7	Sololá	719	Santiago Atitlán	14	Cerro de Oro	2	Febrero	2023-02-22T00:00:00	2024-11-08T04:00:00	2	Temperatura media	16.5
133226	7	Sololá	719	Santiago Atitlán	14	Cerro de Oro	2	Febrero	2023-02-22T00:00:00	2024-11-08T04:00:00	4	Temperatura máxima	16.8
133227	7	Sololá	719	Santiago Atitlán	14	Cerro de Oro	2	Febrero	2023-02-22T00:00:00	2024-11-08T04:00:00	3	Temperatura mínima	16.4
133228	7	Sololá	719	Santiago Atitlán	14	Cerro de Oro	2	Febrero	2023-02-22T00:00:00	2024-11-08T04:00:00	5	Humedad	88
133229	7	Sololá	719	Santiago Atitlán	14	Cerro de Oro	2	Febrero	2023-02-22T00:00:00	2024-11-08T04:00:00	6	Velocidad del viento	3.2
133230	7	Sololá	719	Santiago Atitlán	14	Cerro de Oro	2	Febrero	2023-02-22T00:00:00	2024-11-08T04:00:00	7	Dirección del viento	3.22
133231	7	Sololá	719	Santiago Atitlán	14	Cerro de Oro	2	Febrero	2023-02-22T00:00:00	2024-11-08T04:00:00	1	Precipitación	0
133232	7	Sololá	719	Santiago Atitlán	14	Cerro de Oro	2	Febrero	2023-02-22T00:00:00	2024-11-08T04:00:00	8	Radiación solar	0
133233	7	Sololá	719	Santiago Atitlán	14	Cerro de Oro	2	Febrero	2023-02-22T00:00:00	2024-11-08T05:00:00	2	Temperatura media	16.5
133234	7	Sololá	719	Santiago Atitlán	14	Cerro de Oro	2	Febrero	2023-02-22T00:00:00	2024-11-08T05:00:00	4	Temperatura máxima	16.6
133235	7	Sololá	719	Santiago Atitlán	14	Cerro de Oro	2	Febrero	2023-02-22T00:00:00	2024-11-08T05:00:00	3	Temperatura mínima	16.2
133236	7	Sololá	719	Santiago Atitlán	14	Cerro de Oro	2	Febrero	2023-02-22T00:00:00	2024-11-08T05:00:00	5	Humedad	87
133237	7	Sololá	719	Santiago Atitlán	14	Cerro de Oro	2	Febrero	2023-02-22T00:00:00	2024-11-08T05:00:00	6	Velocidad del viento	3.2
133238	7	Sololá	719	Santiago Atitlán	14	Cerro de Oro	2	Febrero	2023-02-22T00:00:00	2024-11-08T05:00:00	7	Dirección del viento	3.22
133239	7	Sololá	719	Santiago Atitlán	14	Cerro de Oro	2	Febrero	2023-02-22T00:00:00	2024-11-08T05:00:00	1	Precipitación	0
133240	7	Sololá	719	Santiago Atitlán	14	Cerro de Oro	2	Febrero	2023-02-22T00:00:00	2024-11-08T05:00:00	8	Radiación solar	0
133241	7	Sololá	719	Santiago Atitlán	14	Cerro de Oro	2	Febrero	2023-02-22T00:00:00	2024-11-08T06:00:00	2	Temperatura media	16.3
133242	7	Sololá	719	Santiago Atitlán	14	Cerro de Oro	2	Febrero	2023-02-22T00:00:00	2024-11-08T06:00:00	4	Temperatura máxima	16.5
133243	7	Sololá	719	Santiago Atitlán	14	Cerro de Oro	2	Febrero	2023-02-22T00:00:00	2024-11-08T06:00:00	3	Temperatura mínima	16
133244	7	Sololá	719	Santiago Atitlán	14	Cerro de Oro	2	Febrero	2023-02-22T00:00:00	2024-11-08T06:00:00	5	Humedad	88
133245	7	Sololá	719	Santiago Atitlán	14	Cerro de Oro	2	Febrero	2023-02-22T00:00:00	2024-11-08T06:00:00	6	Velocidad del viento	3.2
133246	7	Sololá	719	Santiago Atitlán	14	Cerro de Oro	2	Febrero	2023-02-22T00:00:00	2024-11-08T06:00:00	7	Dirección del viento	3.22
133247	7	Sololá	719	Santiago Atitlán	14	Cerro de Oro	2	Febrero	2023-02-22T00:00:00	2024-11-08T06:00:00	1	Precipitación	0
133248	7	Sololá	719	Santiago Atitlán	14	Cerro de Oro	2	Febrero	2023-02-22T00:00:00	2024-11-08T06:00:00	8	Radiación solar	0
133249	7	Sololá	719	Santiago Atitlán	14	Cerro de Oro	2	Febrero	2023-02-22T00:00:00	2024-11-08T07:00:00	2	Temperatura media	16.6
133250	7	Sololá	719	Santiago Atitlán	14	Cerro de Oro	2	Febrero	2023-02-22T00:00:00	2024-11-08T07:00:00	4	Temperatura máxima	16.6
133251	7	Sololá	719	Santiago Atitlán	14	Cerro de Oro	2	Febrero	2023-02-22T00:00:00	2024-11-08T07:00:00	3	Temperatura mínima	16.3
133252	7	Sololá	719	Santiago Atitlán	14	Cerro de Oro	2	Febrero	2023-02-22T00:00:00	2024-11-08T07:00:00	5	Humedad	87
133253	7	Sololá	719	Santiago Atitlán	14	Cerro de Oro	2	Febrero	2023-02-22T00:00:00	2024-11-08T07:00:00	6	Velocidad del viento	3.2
133254	7	Sololá	719	Santiago Atitlán	14	Cerro de Oro	2	Febrero	2023-02-22T00:00:00	2024-11-08T07:00:00	7	Dirección del viento	3.22
133255	7	Sololá	719	Santiago Atitlán	14	Cerro de Oro	2	Febrero	2023-02-22T00:00:00	2024-11-08T07:00:00	1	Precipitación	0
133256	7	Sololá	719	Santiago Atitlán	14	Cerro de Oro	2	Febrero	2023-02-22T00:00:00	2024-11-08T07:00:00	8	Radiación solar	13
133257	7	Sololá	719	Santiago Atitlán	14	Cerro de Oro	2	Febrero	2023-02-22T00:00:00	2024-11-08T08:00:00	2	Temperatura media	17.8
133258	7	Sololá	719	Santiago Atitlán	14	Cerro de Oro	2	Febrero	2023-02-22T00:00:00	2024-11-08T08:00:00	4	Temperatura máxima	17.9
133259	7	Sololá	719	Santiago Atitlán	14	Cerro de Oro	2	Febrero	2023-02-22T00:00:00	2024-11-08T08:00:00	3	Temperatura mínima	16.6
133260	7	Sololá	719	Santiago Atitlán	14	Cerro de Oro	2	Febrero	2023-02-22T00:00:00	2024-11-08T08:00:00	5	Humedad	84
133261	7	Sololá	719	Santiago Atitlán	14	Cerro de Oro	2	Febrero	2023-02-22T00:00:00	2024-11-08T08:00:00	6	Velocidad del viento	1.6
133262	7	Sololá	719	Santiago Atitlán	14	Cerro de Oro	2	Febrero	2023-02-22T00:00:00	2024-11-08T08:00:00	7	Dirección del viento	1.61
133263	7	Sololá	719	Santiago Atitlán	14	Cerro de Oro	2	Febrero	2023-02-22T00:00:00	2024-11-08T08:00:00	1	Precipitación	0
133264	7	Sololá	719	Santiago Atitlán	14	Cerro de Oro	2	Febrero	2023-02-22T00:00:00	2024-11-08T08:00:00	8	Radiación solar	92
133265	7	Sololá	719	Santiago Atitlán	14	Cerro de Oro	2	Febrero	2023-02-22T00:00:00	2024-11-08T09:00:00	2	Temperatura media	19.3
133266	7	Sololá	719	Santiago Atitlán	14	Cerro de Oro	2	Febrero	2023-02-22T00:00:00	2024-11-08T09:00:00	4	Temperatura máxima	19.3
133267	7	Sololá	719	Santiago Atitlán	14	Cerro de Oro	2	Febrero	2023-02-22T00:00:00	2024-11-08T09:00:00	3	Temperatura mínima	17.8
133268	7	Sololá	719	Santiago Atitlán	14	Cerro de Oro	2	Febrero	2023-02-22T00:00:00	2024-11-08T09:00:00	5	Humedad	80
133269	7	Sololá	719	Santiago Atitlán	14	Cerro de Oro	2	Febrero	2023-02-22T00:00:00	2024-11-08T09:00:00	6	Velocidad del viento	3.2
133270	7	Sololá	719	Santiago Atitlán	14	Cerro de Oro	2	Febrero	2023-02-22T00:00:00	2024-11-08T09:00:00	7	Dirección del viento	3.22
133271	7	Sololá	719	Santiago Atitlán	14	Cerro de Oro	2	Febrero	2023-02-22T00:00:00	2024-11-08T09:00:00	1	Precipitación	0
133272	7	Sololá	719	Santiago Atitlán	14	Cerro de Oro	2	Febrero	2023-02-22T00:00:00	2024-11-08T09:00:00	8	Radiación solar	353
133273	7	Sololá	719	Santiago Atitlán	14	Cerro de Oro	2	Febrero	2023-02-22T00:00:00	2024-11-08T10:00:00	2	Temperatura media	20.6
133274	7	Sololá	719	Santiago Atitlán	14	Cerro de Oro	2	Febrero	2023-02-22T00:00:00	2024-11-08T10:00:00	4	Temperatura máxima	20.6
133275	7	Sololá	719	Santiago Atitlán	14	Cerro de Oro	2	Febrero	2023-02-22T00:00:00	2024-11-08T10:00:00	3	Temperatura mínima	19.3
133276	7	Sololá	719	Santiago Atitlán	14	Cerro de Oro	2	Febrero	2023-02-22T00:00:00	2024-11-08T10:00:00	5	Humedad	72
133277	7	Sololá	719	Santiago Atitlán	14	Cerro de Oro	2	Febrero	2023-02-22T00:00:00	2024-11-08T10:00:00	6	Velocidad del viento	8
133278	7	Sololá	719	Santiago Atitlán	14	Cerro de Oro	2	Febrero	2023-02-22T00:00:00	2024-11-08T10:00:00	7	Dirección del viento	8.05
133279	7	Sololá	719	Santiago Atitlán	14	Cerro de Oro	2	Febrero	2023-02-22T00:00:00	2024-11-08T10:00:00	1	Precipitación	0
133280	7	Sololá	719	Santiago Atitlán	14	Cerro de Oro	2	Febrero	2023-02-22T00:00:00	2024-11-08T10:00:00	8	Radiación solar	541
133281	7	Sololá	719	Santiago Atitlán	14	Cerro de Oro	2	Febrero	2023-02-22T00:00:00	2024-11-08T11:00:00	2	Temperatura media	21.4
133282	7	Sololá	719	Santiago Atitlán	14	Cerro de Oro	2	Febrero	2023-02-22T00:00:00	2024-11-08T11:00:00	4	Temperatura máxima	21.9
133283	7	Sololá	719	Santiago Atitlán	14	Cerro de Oro	2	Febrero	2023-02-22T00:00:00	2024-11-08T11:00:00	3	Temperatura mínima	20.6
133284	7	Sololá	719	Santiago Atitlán	14	Cerro de Oro	2	Febrero	2023-02-22T00:00:00	2024-11-08T11:00:00	5	Humedad	69
133285	7	Sololá	719	Santiago Atitlán	14	Cerro de Oro	2	Febrero	2023-02-22T00:00:00	2024-11-08T11:00:00	6	Velocidad del viento	6.4
133286	7	Sololá	719	Santiago Atitlán	14	Cerro de Oro	2	Febrero	2023-02-22T00:00:00	2024-11-08T11:00:00	7	Dirección del viento	6.44
133287	7	Sololá	719	Santiago Atitlán	14	Cerro de Oro	2	Febrero	2023-02-22T00:00:00	2024-11-08T11:00:00	1	Precipitación	0
133288	7	Sololá	719	Santiago Atitlán	14	Cerro de Oro	2	Febrero	2023-02-22T00:00:00	2024-11-08T11:00:00	8	Radiación solar	795
133289	7	Sololá	719	Santiago Atitlán	14	Cerro de Oro	2	Febrero	2023-02-22T00:00:00	2024-11-08T12:00:00	2	Temperatura media	22.4
133290	7	Sololá	719	Santiago Atitlán	14	Cerro de Oro	2	Febrero	2023-02-22T00:00:00	2024-11-08T12:00:00	4	Temperatura máxima	22.4
133291	7	Sololá	719	Santiago Atitlán	14	Cerro de Oro	2	Febrero	2023-02-22T00:00:00	2024-11-08T12:00:00	3	Temperatura mínima	21.3
133292	7	Sololá	719	Santiago Atitlán	14	Cerro de Oro	2	Febrero	2023-02-22T00:00:00	2024-11-08T12:00:00	5	Humedad	65
133293	7	Sololá	719	Santiago Atitlán	14	Cerro de Oro	2	Febrero	2023-02-22T00:00:00	2024-11-08T12:00:00	6	Velocidad del viento	6.4
133294	7	Sololá	719	Santiago Atitlán	14	Cerro de Oro	2	Febrero	2023-02-22T00:00:00	2024-11-08T12:00:00	7	Dirección del viento	6.44
133295	7	Sololá	719	Santiago Atitlán	14	Cerro de Oro	2	Febrero	2023-02-22T00:00:00	2024-11-08T12:00:00	1	Precipitación	0
133296	7	Sololá	719	Santiago Atitlán	14	Cerro de Oro	2	Febrero	2023-02-22T00:00:00	2024-11-08T12:00:00	8	Radiación solar	877
133297	7	Sololá	719	Santiago Atitlán	14	Cerro de Oro	2	Febrero	2023-02-22T00:00:00	2024-11-08T13:00:00	2	Temperatura media	22.6
133298	7	Sololá	719	Santiago Atitlán	14	Cerro de Oro	2	Febrero	2023-02-22T00:00:00	2024-11-08T13:00:00	4	Temperatura máxima	23.1
133299	7	Sololá	719	Santiago Atitlán	14	Cerro de Oro	2	Febrero	2023-02-22T00:00:00	2024-11-08T13:00:00	3	Temperatura mínima	22.4
133300	7	Sololá	719	Santiago Atitlán	14	Cerro de Oro	2	Febrero	2023-02-22T00:00:00	2024-11-08T13:00:00	5	Humedad	64
133301	7	Sololá	719	Santiago Atitlán	14	Cerro de Oro	2	Febrero	2023-02-22T00:00:00	2024-11-08T13:00:00	6	Velocidad del viento	11.3
133302	7	Sololá	719	Santiago Atitlán	14	Cerro de Oro	2	Febrero	2023-02-22T00:00:00	2024-11-08T13:00:00	7	Dirección del viento	11.27
133303	7	Sololá	719	Santiago Atitlán	14	Cerro de Oro	2	Febrero	2023-02-22T00:00:00	2024-11-08T13:00:00	1	Precipitación	0
133304	7	Sololá	719	Santiago Atitlán	14	Cerro de Oro	2	Febrero	2023-02-22T00:00:00	2024-11-08T13:00:00	8	Radiación solar	965
133305	7	Sololá	719	Santiago Atitlán	14	Cerro de Oro	2	Febrero	2023-02-22T00:00:00	2024-11-08T14:00:00	2	Temperatura media	22.6
133306	7	Sololá	719	Santiago Atitlán	14	Cerro de Oro	2	Febrero	2023-02-22T00:00:00	2024-11-08T14:00:00	4	Temperatura máxima	23.2
133307	7	Sololá	719	Santiago Atitlán	14	Cerro de Oro	2	Febrero	2023-02-22T00:00:00	2024-11-08T14:00:00	3	Temperatura mínima	22.4
133308	7	Sololá	719	Santiago Atitlán	14	Cerro de Oro	2	Febrero	2023-02-22T00:00:00	2024-11-08T14:00:00	5	Humedad	64
133309	7	Sololá	719	Santiago Atitlán	14	Cerro de Oro	2	Febrero	2023-02-22T00:00:00	2024-11-08T14:00:00	6	Velocidad del viento	11.3
133310	7	Sololá	719	Santiago Atitlán	14	Cerro de Oro	2	Febrero	2023-02-22T00:00:00	2024-11-08T14:00:00	7	Dirección del viento	11.27
133311	7	Sololá	719	Santiago Atitlán	14	Cerro de Oro	2	Febrero	2023-02-22T00:00:00	2024-11-08T14:00:00	1	Precipitación	0
133312	7	Sololá	719	Santiago Atitlán	14	Cerro de Oro	2	Febrero	2023-02-22T00:00:00	2024-11-08T14:00:00	8	Radiación solar	790
133313	7	Sololá	719	Santiago Atitlán	14	Cerro de Oro	2	Febrero	2023-02-22T00:00:00	2024-11-08T15:00:00	2	Temperatura media	21.6
133314	7	Sololá	719	Santiago Atitlán	14	Cerro de Oro	2	Febrero	2023-02-22T00:00:00	2024-11-08T15:00:00	4	Temperatura máxima	22.6
133315	7	Sololá	719	Santiago Atitlán	14	Cerro de Oro	2	Febrero	2023-02-22T00:00:00	2024-11-08T15:00:00	3	Temperatura mínima	21.6
133316	7	Sololá	719	Santiago Atitlán	14	Cerro de Oro	2	Febrero	2023-02-22T00:00:00	2024-11-08T15:00:00	5	Humedad	67
133317	7	Sololá	719	Santiago Atitlán	14	Cerro de Oro	2	Febrero	2023-02-22T00:00:00	2024-11-08T15:00:00	6	Velocidad del viento	12.9
133318	7	Sololá	719	Santiago Atitlán	14	Cerro de Oro	2	Febrero	2023-02-22T00:00:00	2024-11-08T15:00:00	7	Dirección del viento	12.87
133319	7	Sololá	719	Santiago Atitlán	14	Cerro de Oro	2	Febrero	2023-02-22T00:00:00	2024-11-08T15:00:00	1	Precipitación	0
133320	7	Sololá	719	Santiago Atitlán	14	Cerro de Oro	2	Febrero	2023-02-22T00:00:00	2024-11-08T15:00:00	8	Radiación solar	461
133321	7	Sololá	719	Santiago Atitlán	14	Cerro de Oro	2	Febrero	2023-02-22T00:00:00	2024-11-08T16:00:00	2	Temperatura media	20.3
133322	7	Sololá	719	Santiago Atitlán	14	Cerro de Oro	2	Febrero	2023-02-22T00:00:00	2024-11-08T16:00:00	4	Temperatura máxima	21.7
133323	7	Sololá	719	Santiago Atitlán	14	Cerro de Oro	2	Febrero	2023-02-22T00:00:00	2024-11-08T16:00:00	3	Temperatura mínima	20.3
133324	7	Sololá	719	Santiago Atitlán	14	Cerro de Oro	2	Febrero	2023-02-22T00:00:00	2024-11-08T16:00:00	5	Humedad	74
133325	7	Sololá	719	Santiago Atitlán	14	Cerro de Oro	2	Febrero	2023-02-22T00:00:00	2024-11-08T16:00:00	6	Velocidad del viento	12.9
133326	7	Sololá	719	Santiago Atitlán	14	Cerro de Oro	2	Febrero	2023-02-22T00:00:00	2024-11-08T16:00:00	7	Dirección del viento	12.87
133327	7	Sololá	719	Santiago Atitlán	14	Cerro de Oro	2	Febrero	2023-02-22T00:00:00	2024-11-08T16:00:00	1	Precipitación	0
133328	7	Sololá	719	Santiago Atitlán	14	Cerro de Oro	2	Febrero	2023-02-22T00:00:00	2024-11-08T16:00:00	8	Radiación solar	171
133329	7	Sololá	719	Santiago Atitlán	14	Cerro de Oro	2	Febrero	2023-02-22T00:00:00	2024-11-08T17:00:00	2	Temperatura media	20.3
133330	7	Sololá	719	Santiago Atitlán	14	Cerro de Oro	2	Febrero	2023-02-22T00:00:00	2024-11-08T17:00:00	4	Temperatura máxima	20.4
133331	7	Sololá	719	Santiago Atitlán	14	Cerro de Oro	2	Febrero	2023-02-22T00:00:00	2024-11-08T17:00:00	3	Temperatura mínima	20.2
133332	7	Sololá	719	Santiago Atitlán	14	Cerro de Oro	2	Febrero	2023-02-22T00:00:00	2024-11-08T17:00:00	5	Humedad	74
133333	7	Sololá	719	Santiago Atitlán	14	Cerro de Oro	2	Febrero	2023-02-22T00:00:00	2024-11-08T17:00:00	6	Velocidad del viento	9.7
133334	7	Sololá	719	Santiago Atitlán	14	Cerro de Oro	2	Febrero	2023-02-22T00:00:00	2024-11-08T17:00:00	7	Dirección del viento	9.66
133335	7	Sololá	719	Santiago Atitlán	14	Cerro de Oro	2	Febrero	2023-02-22T00:00:00	2024-11-08T17:00:00	1	Precipitación	0
133336	7	Sololá	719	Santiago Atitlán	14	Cerro de Oro	2	Febrero	2023-02-22T00:00:00	2024-11-08T17:00:00	8	Radiación solar	136
133337	7	Sololá	719	Santiago Atitlán	14	Cerro de Oro	2	Febrero	2023-02-22T00:00:00	2024-11-08T18:00:00	2	Temperatura media	19.4
133338	7	Sololá	719	Santiago Atitlán	14	Cerro de Oro	2	Febrero	2023-02-22T00:00:00	2024-11-08T18:00:00	4	Temperatura máxima	20.6
133339	7	Sololá	719	Santiago Atitlán	14	Cerro de Oro	2	Febrero	2023-02-22T00:00:00	2024-11-08T18:00:00	3	Temperatura mínima	19.4
133340	7	Sololá	719	Santiago Atitlán	14	Cerro de Oro	2	Febrero	2023-02-22T00:00:00	2024-11-08T18:00:00	5	Humedad	79
133341	7	Sololá	719	Santiago Atitlán	14	Cerro de Oro	2	Febrero	2023-02-22T00:00:00	2024-11-08T18:00:00	6	Velocidad del viento	4.8
133342	7	Sololá	719	Santiago Atitlán	14	Cerro de Oro	2	Febrero	2023-02-22T00:00:00	2024-11-08T18:00:00	7	Dirección del viento	4.83
133343	7	Sololá	719	Santiago Atitlán	14	Cerro de Oro	2	Febrero	2023-02-22T00:00:00	2024-11-08T18:00:00	1	Precipitación	0
133344	7	Sololá	719	Santiago Atitlán	14	Cerro de Oro	2	Febrero	2023-02-22T00:00:00	2024-11-08T18:00:00	8	Radiación solar	48
133345	7	Sololá	719	Santiago Atitlán	14	Cerro de Oro	2	Febrero	2023-02-22T00:00:00	2024-11-08T19:00:00	2	Temperatura media	18.3
133346	7	Sololá	719	Santiago Atitlán	14	Cerro de Oro	2	Febrero	2023-02-22T00:00:00	2024-11-08T19:00:00	4	Temperatura máxima	19.4
133347	7	Sololá	719	Santiago Atitlán	14	Cerro de Oro	2	Febrero	2023-02-22T00:00:00	2024-11-08T19:00:00	3	Temperatura mínima	18.2
133348	7	Sololá	719	Santiago Atitlán	14	Cerro de Oro	2	Febrero	2023-02-22T00:00:00	2024-11-08T19:00:00	5	Humedad	84
133349	7	Sololá	719	Santiago Atitlán	14	Cerro de Oro	2	Febrero	2023-02-22T00:00:00	2024-11-08T19:00:00	6	Velocidad del viento	1.6
133350	7	Sololá	719	Santiago Atitlán	14	Cerro de Oro	2	Febrero	2023-02-22T00:00:00	2024-11-08T19:00:00	7	Dirección del viento	1.61
133351	7	Sololá	719	Santiago Atitlán	14	Cerro de Oro	2	Febrero	2023-02-22T00:00:00	2024-11-08T19:00:00	1	Precipitación	0
133352	7	Sololá	719	Santiago Atitlán	14	Cerro de Oro	2	Febrero	2023-02-22T00:00:00	2024-11-08T19:00:00	8	Radiación solar	0
133353	7	Sololá	719	Santiago Atitlán	14	Cerro de Oro	2	Febrero	2023-02-22T00:00:00	2024-11-08T20:00:00	2	Temperatura media	18.3
133354	7	Sololá	719	Santiago Atitlán	14	Cerro de Oro	2	Febrero	2023-02-22T00:00:00	2024-11-08T20:00:00	4	Temperatura máxima	18.6
133355	7	Sololá	719	Santiago Atitlán	14	Cerro de Oro	2	Febrero	2023-02-22T00:00:00	2024-11-08T20:00:00	3	Temperatura mínima	18.2
133356	7	Sololá	719	Santiago Atitlán	14	Cerro de Oro	2	Febrero	2023-02-22T00:00:00	2024-11-08T20:00:00	5	Humedad	85
133357	7	Sololá	719	Santiago Atitlán	14	Cerro de Oro	2	Febrero	2023-02-22T00:00:00	2024-11-08T20:00:00	6	Velocidad del viento	3.2
133358	7	Sololá	719	Santiago Atitlán	14	Cerro de Oro	2	Febrero	2023-02-22T00:00:00	2024-11-08T20:00:00	7	Dirección del viento	3.22
133359	7	Sololá	719	Santiago Atitlán	14	Cerro de Oro	2	Febrero	2023-02-22T00:00:00	2024-11-08T20:00:00	1	Precipitación	0
133360	7	Sololá	719	Santiago Atitlán	14	Cerro de Oro	2	Febrero	2023-02-22T00:00:00	2024-11-08T20:00:00	8	Radiación solar	0
133361	7	Sololá	719	Santiago Atitlán	14	Cerro de Oro	2	Febrero	2023-02-22T00:00:00	2024-11-08T21:00:00	2	Temperatura media	17.5
133362	7	Sololá	719	Santiago Atitlán	14	Cerro de Oro	2	Febrero	2023-02-22T00:00:00	2024-11-08T21:00:00	4	Temperatura máxima	18.3
133363	7	Sololá	719	Santiago Atitlán	14	Cerro de Oro	2	Febrero	2023-02-22T00:00:00	2024-11-08T21:00:00	3	Temperatura mínima	17.4
133364	7	Sololá	719	Santiago Atitlán	14	Cerro de Oro	2	Febrero	2023-02-22T00:00:00	2024-11-08T21:00:00	5	Humedad	89
133365	7	Sololá	719	Santiago Atitlán	14	Cerro de Oro	2	Febrero	2023-02-22T00:00:00	2024-11-08T21:00:00	6	Velocidad del viento	6.4
133366	7	Sololá	719	Santiago Atitlán	14	Cerro de Oro	2	Febrero	2023-02-22T00:00:00	2024-11-08T21:00:00	7	Dirección del viento	6.44
133367	7	Sololá	719	Santiago Atitlán	14	Cerro de Oro	2	Febrero	2023-02-22T00:00:00	2024-11-08T21:00:00	1	Precipitación	0
133368	7	Sololá	719	Santiago Atitlán	14	Cerro de Oro	2	Febrero	2023-02-22T00:00:00	2024-11-08T21:00:00	8	Radiación solar	0
133369	7	Sololá	719	Santiago Atitlán	14	Cerro de Oro	2	Febrero	2023-02-22T00:00:00	2024-11-08T22:00:00	2	Temperatura media	17.3
133370	7	Sololá	719	Santiago Atitlán	14	Cerro de Oro	2	Febrero	2023-02-22T00:00:00	2024-11-08T22:00:00	4	Temperatura máxima	17.5
133371	7	Sololá	719	Santiago Atitlán	14	Cerro de Oro	2	Febrero	2023-02-22T00:00:00	2024-11-08T22:00:00	3	Temperatura mínima	17.2
133372	7	Sololá	719	Santiago Atitlán	14	Cerro de Oro	2	Febrero	2023-02-22T00:00:00	2024-11-08T22:00:00	5	Humedad	88
133373	7	Sololá	719	Santiago Atitlán	14	Cerro de Oro	2	Febrero	2023-02-22T00:00:00	2024-11-08T22:00:00	6	Velocidad del viento	3.2
133374	7	Sololá	719	Santiago Atitlán	14	Cerro de Oro	2	Febrero	2023-02-22T00:00:00	2024-11-08T22:00:00	7	Dirección del viento	3.22
133375	7	Sololá	719	Santiago Atitlán	14	Cerro de Oro	2	Febrero	2023-02-22T00:00:00	2024-11-08T22:00:00	1	Precipitación	0
133376	7	Sololá	719	Santiago Atitlán	14	Cerro de Oro	2	Febrero	2023-02-22T00:00:00	2024-11-08T22:00:00	8	Radiación solar	0
133377	7	Sololá	719	Santiago Atitlán	14	Cerro de Oro	2	Febrero	2023-02-22T00:00:00	2024-11-08T23:00:00	2	Temperatura media	16.8
133378	7	Sololá	719	Santiago Atitlán	14	Cerro de Oro	2	Febrero	2023-02-22T00:00:00	2024-11-08T23:00:00	4	Temperatura máxima	17.3
133379	7	Sololá	719	Santiago Atitlán	14	Cerro de Oro	2	Febrero	2023-02-22T00:00:00	2024-11-08T23:00:00	3	Temperatura mínima	16.7
133380	7	Sololá	719	Santiago Atitlán	14	Cerro de Oro	2	Febrero	2023-02-22T00:00:00	2024-11-08T23:00:00	5	Humedad	90
133381	7	Sololá	719	Santiago Atitlán	14	Cerro de Oro	2	Febrero	2023-02-22T00:00:00	2024-11-08T23:00:00	6	Velocidad del viento	3.2
133382	7	Sololá	719	Santiago Atitlán	14	Cerro de Oro	2	Febrero	2023-02-22T00:00:00	2024-11-08T23:00:00	7	Dirección del viento	3.22
133383	7	Sololá	719	Santiago Atitlán	14	Cerro de Oro	2	Febrero	2023-02-22T00:00:00	2024-11-08T23:00:00	1	Precipitación	0
133384	7	Sololá	719	Santiago Atitlán	14	Cerro de Oro	2	Febrero	2023-02-22T00:00:00	2024-11-08T23:00:00	8	Radiación solar	0
133385	7	Sololá	719	Santiago Atitlán	14	Cerro de Oro	2	Febrero	2023-02-23T00:00:00	2024-11-08T00:00:00	2	Temperatura media	16.7
133386	7	Sololá	719	Santiago Atitlán	14	Cerro de Oro	2	Febrero	2023-02-23T00:00:00	2024-11-08T00:00:00	4	Temperatura máxima	17
133387	7	Sololá	719	Santiago Atitlán	14	Cerro de Oro	2	Febrero	2023-02-23T00:00:00	2024-11-08T00:00:00	3	Temperatura mínima	16.6
133388	7	Sololá	719	Santiago Atitlán	14	Cerro de Oro	2	Febrero	2023-02-23T00:00:00	2024-11-08T00:00:00	5	Humedad	90
133389	7	Sololá	719	Santiago Atitlán	14	Cerro de Oro	2	Febrero	2023-02-23T00:00:00	2024-11-08T00:00:00	6	Velocidad del viento	3.2
133390	7	Sololá	719	Santiago Atitlán	14	Cerro de Oro	2	Febrero	2023-02-23T00:00:00	2024-11-08T00:00:00	7	Dirección del viento	3.22
133391	7	Sololá	719	Santiago Atitlán	14	Cerro de Oro	2	Febrero	2023-02-23T00:00:00	2024-11-08T00:00:00	1	Precipitación	0
133392	7	Sololá	719	Santiago Atitlán	14	Cerro de Oro	2	Febrero	2023-02-23T00:00:00	2024-11-08T00:00:00	8	Radiación solar	0
133393	7	Sololá	719	Santiago Atitlán	14	Cerro de Oro	2	Febrero	2023-02-23T00:00:00	2024-11-08T01:00:00	2	Temperatura media	16.8
133394	7	Sololá	719	Santiago Atitlán	14	Cerro de Oro	2	Febrero	2023-02-23T00:00:00	2024-11-08T01:00:00	4	Temperatura máxima	16.9
133395	7	Sololá	719	Santiago Atitlán	14	Cerro de Oro	2	Febrero	2023-02-23T00:00:00	2024-11-08T01:00:00	3	Temperatura mínima	16.7
133396	7	Sololá	719	Santiago Atitlán	14	Cerro de Oro	2	Febrero	2023-02-23T00:00:00	2024-11-08T01:00:00	5	Humedad	90
133397	7	Sololá	719	Santiago Atitlán	14	Cerro de Oro	2	Febrero	2023-02-23T00:00:00	2024-11-08T01:00:00	6	Velocidad del viento	3.2
133398	7	Sololá	719	Santiago Atitlán	14	Cerro de Oro	2	Febrero	2023-02-23T00:00:00	2024-11-08T01:00:00	7	Dirección del viento	3.22
133399	7	Sololá	719	Santiago Atitlán	14	Cerro de Oro	2	Febrero	2023-02-23T00:00:00	2024-11-08T01:00:00	1	Precipitación	0
133400	7	Sololá	719	Santiago Atitlán	14	Cerro de Oro	2	Febrero	2023-02-23T00:00:00	2024-11-08T01:00:00	8	Radiación solar	0
133401	7	Sololá	719	Santiago Atitlán	14	Cerro de Oro	2	Febrero	2023-02-23T00:00:00	2024-11-08T02:00:00	2	Temperatura media	16.6
133402	7	Sololá	719	Santiago Atitlán	14	Cerro de Oro	2	Febrero	2023-02-23T00:00:00	2024-11-08T02:00:00	4	Temperatura máxima	16.8
133403	7	Sololá	719	Santiago Atitlán	14	Cerro de Oro	2	Febrero	2023-02-23T00:00:00	2024-11-08T02:00:00	3	Temperatura mínima	16.4
133404	7	Sololá	719	Santiago Atitlán	14	Cerro de Oro	2	Febrero	2023-02-23T00:00:00	2024-11-08T02:00:00	5	Humedad	91
133405	7	Sololá	719	Santiago Atitlán	14	Cerro de Oro	2	Febrero	2023-02-23T00:00:00	2024-11-08T02:00:00	6	Velocidad del viento	3.2
133406	7	Sololá	719	Santiago Atitlán	14	Cerro de Oro	2	Febrero	2023-02-23T00:00:00	2024-11-08T02:00:00	7	Dirección del viento	3.22
133407	7	Sololá	719	Santiago Atitlán	14	Cerro de Oro	2	Febrero	2023-02-23T00:00:00	2024-11-08T02:00:00	1	Precipitación	0
133408	7	Sololá	719	Santiago Atitlán	14	Cerro de Oro	2	Febrero	2023-02-23T00:00:00	2024-11-08T02:00:00	8	Radiación solar	0
133409	7	Sololá	719	Santiago Atitlán	14	Cerro de Oro	2	Febrero	2023-02-23T00:00:00	2024-11-08T03:00:00	2	Temperatura media	15.9
133410	7	Sololá	719	Santiago Atitlán	14	Cerro de Oro	2	Febrero	2023-02-23T00:00:00	2024-11-08T03:00:00	4	Temperatura máxima	16.7
133411	7	Sololá	719	Santiago Atitlán	14	Cerro de Oro	2	Febrero	2023-02-23T00:00:00	2024-11-08T03:00:00	3	Temperatura mínima	15.9
133412	7	Sololá	719	Santiago Atitlán	14	Cerro de Oro	2	Febrero	2023-02-23T00:00:00	2024-11-08T03:00:00	5	Humedad	88
133413	7	Sololá	719	Santiago Atitlán	14	Cerro de Oro	2	Febrero	2023-02-23T00:00:00	2024-11-08T03:00:00	6	Velocidad del viento	9.7
133414	7	Sololá	719	Santiago Atitlán	14	Cerro de Oro	2	Febrero	2023-02-23T00:00:00	2024-11-08T03:00:00	7	Dirección del viento	9.66
133415	7	Sololá	719	Santiago Atitlán	14	Cerro de Oro	2	Febrero	2023-02-23T00:00:00	2024-11-08T03:00:00	1	Precipitación	0
133416	7	Sololá	719	Santiago Atitlán	14	Cerro de Oro	2	Febrero	2023-02-23T00:00:00	2024-11-08T03:00:00	8	Radiación solar	0
133417	7	Sololá	719	Santiago Atitlán	14	Cerro de Oro	2	Febrero	2023-02-23T00:00:00	2024-11-08T04:00:00	2	Temperatura media	15.7
133418	7	Sololá	719	Santiago Atitlán	14	Cerro de Oro	2	Febrero	2023-02-23T00:00:00	2024-11-08T04:00:00	4	Temperatura máxima	15.9
133419	7	Sololá	719	Santiago Atitlán	14	Cerro de Oro	2	Febrero	2023-02-23T00:00:00	2024-11-08T04:00:00	3	Temperatura mínima	15.6
133420	7	Sololá	719	Santiago Atitlán	14	Cerro de Oro	2	Febrero	2023-02-23T00:00:00	2024-11-08T04:00:00	5	Humedad	87
133421	7	Sololá	719	Santiago Atitlán	14	Cerro de Oro	2	Febrero	2023-02-23T00:00:00	2024-11-08T04:00:00	6	Velocidad del viento	6.4
133422	7	Sololá	719	Santiago Atitlán	14	Cerro de Oro	2	Febrero	2023-02-23T00:00:00	2024-11-08T04:00:00	7	Dirección del viento	6.44
133423	7	Sololá	719	Santiago Atitlán	14	Cerro de Oro	2	Febrero	2023-02-23T00:00:00	2024-11-08T04:00:00	1	Precipitación	0
133424	7	Sololá	719	Santiago Atitlán	14	Cerro de Oro	2	Febrero	2023-02-23T00:00:00	2024-11-08T04:00:00	8	Radiación solar	0
133425	7	Sololá	719	Santiago Atitlán	14	Cerro de Oro	2	Febrero	2023-02-23T00:00:00	2024-11-08T05:00:00	2	Temperatura media	15.7
133426	7	Sololá	719	Santiago Atitlán	14	Cerro de Oro	2	Febrero	2023-02-23T00:00:00	2024-11-08T05:00:00	4	Temperatura máxima	16
133427	7	Sololá	719	Santiago Atitlán	14	Cerro de Oro	2	Febrero	2023-02-23T00:00:00	2024-11-08T05:00:00	3	Temperatura mínima	15.6
133428	7	Sololá	719	Santiago Atitlán	14	Cerro de Oro	2	Febrero	2023-02-23T00:00:00	2024-11-08T05:00:00	5	Humedad	75
133429	7	Sololá	719	Santiago Atitlán	14	Cerro de Oro	2	Febrero	2023-02-23T00:00:00	2024-11-08T05:00:00	6	Velocidad del viento	8
133430	7	Sololá	719	Santiago Atitlán	14	Cerro de Oro	2	Febrero	2023-02-23T00:00:00	2024-11-08T05:00:00	7	Dirección del viento	8.05
133431	7	Sololá	719	Santiago Atitlán	14	Cerro de Oro	2	Febrero	2023-02-23T00:00:00	2024-11-08T05:00:00	1	Precipitación	0
133432	7	Sololá	719	Santiago Atitlán	14	Cerro de Oro	2	Febrero	2023-02-23T00:00:00	2024-11-08T05:00:00	8	Radiación solar	0
133433	7	Sololá	719	Santiago Atitlán	14	Cerro de Oro	2	Febrero	2023-02-23T00:00:00	2024-11-08T06:00:00	2	Temperatura media	15.7
133434	7	Sololá	719	Santiago Atitlán	14	Cerro de Oro	2	Febrero	2023-02-23T00:00:00	2024-11-08T06:00:00	4	Temperatura máxima	15.8
133435	7	Sololá	719	Santiago Atitlán	14	Cerro de Oro	2	Febrero	2023-02-23T00:00:00	2024-11-08T06:00:00	3	Temperatura mínima	15.6
133436	7	Sololá	719	Santiago Atitlán	14	Cerro de Oro	2	Febrero	2023-02-23T00:00:00	2024-11-08T06:00:00	5	Humedad	72
133437	7	Sololá	719	Santiago Atitlán	14	Cerro de Oro	2	Febrero	2023-02-23T00:00:00	2024-11-08T06:00:00	6	Velocidad del viento	8
133438	7	Sololá	719	Santiago Atitlán	14	Cerro de Oro	2	Febrero	2023-02-23T00:00:00	2024-11-08T06:00:00	7	Dirección del viento	8.05
133439	7	Sololá	719	Santiago Atitlán	14	Cerro de Oro	2	Febrero	2023-02-23T00:00:00	2024-11-08T06:00:00	1	Precipitación	0
133440	7	Sololá	719	Santiago Atitlán	14	Cerro de Oro	2	Febrero	2023-02-23T00:00:00	2024-11-08T06:00:00	8	Radiación solar	0
133441	7	Sololá	719	Santiago Atitlán	14	Cerro de Oro	2	Febrero	2023-02-23T00:00:00	2024-11-08T07:00:00	2	Temperatura media	16.1
133442	7	Sololá	719	Santiago Atitlán	14	Cerro de Oro	2	Febrero	2023-02-23T00:00:00	2024-11-08T07:00:00	4	Temperatura máxima	16.1
133443	7	Sololá	719	Santiago Atitlán	14	Cerro de Oro	2	Febrero	2023-02-23T00:00:00	2024-11-08T07:00:00	3	Temperatura mínima	15.7
133444	7	Sololá	719	Santiago Atitlán	14	Cerro de Oro	2	Febrero	2023-02-23T00:00:00	2024-11-08T07:00:00	5	Humedad	73
133445	7	Sololá	719	Santiago Atitlán	14	Cerro de Oro	2	Febrero	2023-02-23T00:00:00	2024-11-08T07:00:00	6	Velocidad del viento	8
133446	7	Sololá	719	Santiago Atitlán	14	Cerro de Oro	2	Febrero	2023-02-23T00:00:00	2024-11-08T07:00:00	7	Dirección del viento	8.05
133447	7	Sololá	719	Santiago Atitlán	14	Cerro de Oro	2	Febrero	2023-02-23T00:00:00	2024-11-08T07:00:00	1	Precipitación	0
133448	7	Sololá	719	Santiago Atitlán	14	Cerro de Oro	2	Febrero	2023-02-23T00:00:00	2024-11-08T07:00:00	8	Radiación solar	8
133449	7	Sololá	719	Santiago Atitlán	14	Cerro de Oro	2	Febrero	2023-02-23T00:00:00	2024-11-08T08:00:00	2	Temperatura media	17.3
133450	7	Sololá	719	Santiago Atitlán	14	Cerro de Oro	2	Febrero	2023-02-23T00:00:00	2024-11-08T08:00:00	4	Temperatura máxima	17.3
133451	7	Sololá	719	Santiago Atitlán	14	Cerro de Oro	2	Febrero	2023-02-23T00:00:00	2024-11-08T08:00:00	3	Temperatura mínima	15.9
133452	7	Sololá	719	Santiago Atitlán	14	Cerro de Oro	2	Febrero	2023-02-23T00:00:00	2024-11-08T08:00:00	5	Humedad	71
133453	7	Sololá	719	Santiago Atitlán	14	Cerro de Oro	2	Febrero	2023-02-23T00:00:00	2024-11-08T08:00:00	6	Velocidad del viento	6.4
133454	7	Sololá	719	Santiago Atitlán	14	Cerro de Oro	2	Febrero	2023-02-23T00:00:00	2024-11-08T08:00:00	7	Dirección del viento	6.44
133455	7	Sololá	719	Santiago Atitlán	14	Cerro de Oro	2	Febrero	2023-02-23T00:00:00	2024-11-08T08:00:00	1	Precipitación	0
133456	7	Sololá	719	Santiago Atitlán	14	Cerro de Oro	2	Febrero	2023-02-23T00:00:00	2024-11-08T08:00:00	8	Radiación solar	102
133457	7	Sololá	719	Santiago Atitlán	14	Cerro de Oro	2	Febrero	2023-02-23T00:00:00	2024-11-08T09:00:00	2	Temperatura media	18.7
133458	7	Sololá	719	Santiago Atitlán	14	Cerro de Oro	2	Febrero	2023-02-23T00:00:00	2024-11-08T09:00:00	4	Temperatura máxima	18.7
133459	7	Sololá	719	Santiago Atitlán	14	Cerro de Oro	2	Febrero	2023-02-23T00:00:00	2024-11-08T09:00:00	3	Temperatura mínima	17.3
133460	7	Sololá	719	Santiago Atitlán	14	Cerro de Oro	2	Febrero	2023-02-23T00:00:00	2024-11-08T09:00:00	5	Humedad	68
133461	7	Sololá	719	Santiago Atitlán	14	Cerro de Oro	2	Febrero	2023-02-23T00:00:00	2024-11-08T09:00:00	6	Velocidad del viento	6.4
133462	7	Sololá	719	Santiago Atitlán	14	Cerro de Oro	2	Febrero	2023-02-23T00:00:00	2024-11-08T09:00:00	7	Dirección del viento	6.44
133463	7	Sololá	719	Santiago Atitlán	14	Cerro de Oro	2	Febrero	2023-02-23T00:00:00	2024-11-08T09:00:00	1	Precipitación	0
133464	7	Sololá	719	Santiago Atitlán	14	Cerro de Oro	2	Febrero	2023-02-23T00:00:00	2024-11-08T09:00:00	8	Radiación solar	403
133465	7	Sololá	719	Santiago Atitlán	14	Cerro de Oro	2	Febrero	2023-02-23T00:00:00	2024-11-08T10:00:00	2	Temperatura media	19.6
133466	7	Sololá	719	Santiago Atitlán	14	Cerro de Oro	2	Febrero	2023-02-23T00:00:00	2024-11-08T10:00:00	4	Temperatura máxima	19.7
133467	7	Sololá	719	Santiago Atitlán	14	Cerro de Oro	2	Febrero	2023-02-23T00:00:00	2024-11-08T10:00:00	3	Temperatura mínima	18.4
133468	7	Sololá	719	Santiago Atitlán	14	Cerro de Oro	2	Febrero	2023-02-23T00:00:00	2024-11-08T10:00:00	5	Humedad	65
133469	7	Sololá	719	Santiago Atitlán	14	Cerro de Oro	2	Febrero	2023-02-23T00:00:00	2024-11-08T10:00:00	6	Velocidad del viento	6.4
133470	7	Sololá	719	Santiago Atitlán	14	Cerro de Oro	2	Febrero	2023-02-23T00:00:00	2024-11-08T10:00:00	7	Dirección del viento	6.44
133471	7	Sololá	719	Santiago Atitlán	14	Cerro de Oro	2	Febrero	2023-02-23T00:00:00	2024-11-08T10:00:00	1	Precipitación	0
133472	7	Sololá	719	Santiago Atitlán	14	Cerro de Oro	2	Febrero	2023-02-23T00:00:00	2024-11-08T10:00:00	8	Radiación solar	601
133473	7	Sololá	719	Santiago Atitlán	14	Cerro de Oro	2	Febrero	2023-02-23T00:00:00	2024-11-08T11:00:00	2	Temperatura media	19.9
133474	7	Sololá	719	Santiago Atitlán	14	Cerro de Oro	2	Febrero	2023-02-23T00:00:00	2024-11-08T11:00:00	4	Temperatura máxima	20.1
133475	7	Sololá	719	Santiago Atitlán	14	Cerro de Oro	2	Febrero	2023-02-23T00:00:00	2024-11-08T11:00:00	3	Temperatura mínima	19.4
133476	7	Sololá	719	Santiago Atitlán	14	Cerro de Oro	2	Febrero	2023-02-23T00:00:00	2024-11-08T11:00:00	5	Humedad	64
133477	7	Sololá	719	Santiago Atitlán	14	Cerro de Oro	2	Febrero	2023-02-23T00:00:00	2024-11-08T11:00:00	6	Velocidad del viento	6.4
133478	7	Sololá	719	Santiago Atitlán	14	Cerro de Oro	2	Febrero	2023-02-23T00:00:00	2024-11-08T11:00:00	7	Dirección del viento	6.44
133479	7	Sololá	719	Santiago Atitlán	14	Cerro de Oro	2	Febrero	2023-02-23T00:00:00	2024-11-08T11:00:00	1	Precipitación	0
133480	7	Sololá	719	Santiago Atitlán	14	Cerro de Oro	2	Febrero	2023-02-23T00:00:00	2024-11-08T11:00:00	8	Radiación solar	764
133481	7	Sololá	719	Santiago Atitlán	14	Cerro de Oro	2	Febrero	2023-02-23T00:00:00	2024-11-08T12:00:00	2	Temperatura media	21.5
133482	7	Sololá	719	Santiago Atitlán	14	Cerro de Oro	2	Febrero	2023-02-23T00:00:00	2024-11-08T12:00:00	4	Temperatura máxima	21.5
133483	7	Sololá	719	Santiago Atitlán	14	Cerro de Oro	2	Febrero	2023-02-23T00:00:00	2024-11-08T12:00:00	3	Temperatura mínima	19.7
133484	7	Sololá	719	Santiago Atitlán	14	Cerro de Oro	2	Febrero	2023-02-23T00:00:00	2024-11-08T12:00:00	5	Humedad	67
133485	7	Sololá	719	Santiago Atitlán	14	Cerro de Oro	2	Febrero	2023-02-23T00:00:00	2024-11-08T12:00:00	6	Velocidad del viento	6.4
133486	7	Sololá	719	Santiago Atitlán	14	Cerro de Oro	2	Febrero	2023-02-23T00:00:00	2024-11-08T12:00:00	7	Dirección del viento	6.44
133487	7	Sololá	719	Santiago Atitlán	14	Cerro de Oro	2	Febrero	2023-02-23T00:00:00	2024-11-08T12:00:00	1	Precipitación	0
133488	7	Sololá	719	Santiago Atitlán	14	Cerro de Oro	2	Febrero	2023-02-23T00:00:00	2024-11-08T12:00:00	8	Radiación solar	850
133489	7	Sololá	719	Santiago Atitlán	14	Cerro de Oro	2	Febrero	2023-02-23T00:00:00	2024-11-08T13:00:00	2	Temperatura media	21.7
133490	7	Sololá	719	Santiago Atitlán	14	Cerro de Oro	2	Febrero	2023-02-23T00:00:00	2024-11-08T13:00:00	4	Temperatura máxima	21.8
133491	7	Sololá	719	Santiago Atitlán	14	Cerro de Oro	2	Febrero	2023-02-23T00:00:00	2024-11-08T13:00:00	3	Temperatura mínima	20.8
133492	7	Sololá	719	Santiago Atitlán	14	Cerro de Oro	2	Febrero	2023-02-23T00:00:00	2024-11-08T13:00:00	5	Humedad	67
133493	7	Sololá	719	Santiago Atitlán	14	Cerro de Oro	2	Febrero	2023-02-23T00:00:00	2024-11-08T13:00:00	6	Velocidad del viento	16.1
133494	7	Sololá	719	Santiago Atitlán	14	Cerro de Oro	2	Febrero	2023-02-23T00:00:00	2024-11-08T13:00:00	7	Dirección del viento	16.09
133495	7	Sololá	719	Santiago Atitlán	14	Cerro de Oro	2	Febrero	2023-02-23T00:00:00	2024-11-08T13:00:00	1	Precipitación	0
133496	7	Sololá	719	Santiago Atitlán	14	Cerro de Oro	2	Febrero	2023-02-23T00:00:00	2024-11-08T13:00:00	8	Radiación solar	865
133497	7	Sololá	719	Santiago Atitlán	14	Cerro de Oro	2	Febrero	2023-02-23T00:00:00	2024-11-08T14:00:00	2	Temperatura media	21.2
133498	7	Sololá	719	Santiago Atitlán	14	Cerro de Oro	2	Febrero	2023-02-23T00:00:00	2024-11-08T14:00:00	4	Temperatura máxima	21.8
133499	7	Sololá	719	Santiago Atitlán	14	Cerro de Oro	2	Febrero	2023-02-23T00:00:00	2024-11-08T14:00:00	3	Temperatura mínima	21.1
133500	7	Sololá	719	Santiago Atitlán	14	Cerro de Oro	2	Febrero	2023-02-23T00:00:00	2024-11-08T14:00:00	5	Humedad	73
133501	7	Sololá	719	Santiago Atitlán	14	Cerro de Oro	2	Febrero	2023-02-23T00:00:00	2024-11-08T14:00:00	6	Velocidad del viento	14.5
133502	7	Sololá	719	Santiago Atitlán	14	Cerro de Oro	2	Febrero	2023-02-23T00:00:00	2024-11-08T14:00:00	7	Dirección del viento	14.48
133503	7	Sololá	719	Santiago Atitlán	14	Cerro de Oro	2	Febrero	2023-02-23T00:00:00	2024-11-08T14:00:00	1	Precipitación	0
133504	7	Sololá	719	Santiago Atitlán	14	Cerro de Oro	2	Febrero	2023-02-23T00:00:00	2024-11-08T14:00:00	8	Radiación solar	799
133505	7	Sololá	719	Santiago Atitlán	14	Cerro de Oro	2	Febrero	2023-02-23T00:00:00	2024-11-08T15:00:00	2	Temperatura media	20.4
133506	7	Sololá	719	Santiago Atitlán	14	Cerro de Oro	2	Febrero	2023-02-23T00:00:00	2024-11-08T15:00:00	4	Temperatura máxima	21.6
133507	7	Sololá	719	Santiago Atitlán	14	Cerro de Oro	2	Febrero	2023-02-23T00:00:00	2024-11-08T15:00:00	3	Temperatura mínima	20.4
133508	7	Sololá	719	Santiago Atitlán	14	Cerro de Oro	2	Febrero	2023-02-23T00:00:00	2024-11-08T15:00:00	5	Humedad	75
133509	7	Sololá	719	Santiago Atitlán	14	Cerro de Oro	2	Febrero	2023-02-23T00:00:00	2024-11-08T15:00:00	6	Velocidad del viento	12.9
133510	7	Sololá	719	Santiago Atitlán	14	Cerro de Oro	2	Febrero	2023-02-23T00:00:00	2024-11-08T15:00:00	7	Dirección del viento	12.87
133511	7	Sololá	719	Santiago Atitlán	14	Cerro de Oro	2	Febrero	2023-02-23T00:00:00	2024-11-08T15:00:00	1	Precipitación	0
133512	7	Sololá	719	Santiago Atitlán	14	Cerro de Oro	2	Febrero	2023-02-23T00:00:00	2024-11-08T15:00:00	8	Radiación solar	541
133513	7	Sololá	719	Santiago Atitlán	14	Cerro de Oro	2	Febrero	2023-02-23T00:00:00	2024-11-08T16:00:00	2	Temperatura media	19.7
133514	7	Sololá	719	Santiago Atitlán	14	Cerro de Oro	2	Febrero	2023-02-23T00:00:00	2024-11-08T16:00:00	4	Temperatura máxima	20.6
133515	7	Sololá	719	Santiago Atitlán	14	Cerro de Oro	2	Febrero	2023-02-23T00:00:00	2024-11-08T16:00:00	3	Temperatura mínima	19.6
133516	7	Sololá	719	Santiago Atitlán	14	Cerro de Oro	2	Febrero	2023-02-23T00:00:00	2024-11-08T16:00:00	5	Humedad	80
133517	7	Sololá	719	Santiago Atitlán	14	Cerro de Oro	2	Febrero	2023-02-23T00:00:00	2024-11-08T16:00:00	6	Velocidad del viento	11.3
133518	7	Sololá	719	Santiago Atitlán	14	Cerro de Oro	2	Febrero	2023-02-23T00:00:00	2024-11-08T16:00:00	7	Dirección del viento	11.27
133519	7	Sololá	719	Santiago Atitlán	14	Cerro de Oro	2	Febrero	2023-02-23T00:00:00	2024-11-08T16:00:00	1	Precipitación	0
133520	7	Sololá	719	Santiago Atitlán	14	Cerro de Oro	2	Febrero	2023-02-23T00:00:00	2024-11-08T16:00:00	8	Radiación solar	151
133521	7	Sololá	719	Santiago Atitlán	14	Cerro de Oro	2	Febrero	2023-02-23T00:00:00	2024-11-08T17:00:00	2	Temperatura media	19.3
133522	7	Sololá	719	Santiago Atitlán	14	Cerro de Oro	2	Febrero	2023-02-23T00:00:00	2024-11-08T17:00:00	4	Temperatura máxima	19.7
133523	7	Sololá	719	Santiago Atitlán	14	Cerro de Oro	2	Febrero	2023-02-23T00:00:00	2024-11-08T17:00:00	3	Temperatura mínima	19.2
133524	7	Sololá	719	Santiago Atitlán	14	Cerro de Oro	2	Febrero	2023-02-23T00:00:00	2024-11-08T17:00:00	5	Humedad	82
133525	7	Sololá	719	Santiago Atitlán	14	Cerro de Oro	2	Febrero	2023-02-23T00:00:00	2024-11-08T17:00:00	6	Velocidad del viento	9.7
133526	7	Sololá	719	Santiago Atitlán	14	Cerro de Oro	2	Febrero	2023-02-23T00:00:00	2024-11-08T17:00:00	7	Dirección del viento	9.66
133527	7	Sololá	719	Santiago Atitlán	14	Cerro de Oro	2	Febrero	2023-02-23T00:00:00	2024-11-08T17:00:00	1	Precipitación	0
133528	7	Sololá	719	Santiago Atitlán	14	Cerro de Oro	2	Febrero	2023-02-23T00:00:00	2024-11-08T17:00:00	8	Radiación solar	117
133529	7	Sololá	719	Santiago Atitlán	14	Cerro de Oro	2	Febrero	2023-02-23T00:00:00	2024-11-08T18:00:00	2	Temperatura media	18.2
133530	7	Sololá	719	Santiago Atitlán	14	Cerro de Oro	2	Febrero	2023-02-23T00:00:00	2024-11-08T18:00:00	4	Temperatura máxima	19.2
133531	7	Sololá	719	Santiago Atitlán	14	Cerro de Oro	2	Febrero	2023-02-23T00:00:00	2024-11-08T18:00:00	3	Temperatura mínima	18.2
133532	7	Sololá	719	Santiago Atitlán	14	Cerro de Oro	2	Febrero	2023-02-23T00:00:00	2024-11-08T18:00:00	5	Humedad	85
133533	7	Sololá	719	Santiago Atitlán	14	Cerro de Oro	2	Febrero	2023-02-23T00:00:00	2024-11-08T18:00:00	6	Velocidad del viento	8
133534	7	Sololá	719	Santiago Atitlán	14	Cerro de Oro	2	Febrero	2023-02-23T00:00:00	2024-11-08T18:00:00	7	Dirección del viento	8.05
133535	7	Sololá	719	Santiago Atitlán	14	Cerro de Oro	2	Febrero	2023-02-23T00:00:00	2024-11-08T18:00:00	1	Precipitación	0
133536	7	Sololá	719	Santiago Atitlán	14	Cerro de Oro	2	Febrero	2023-02-23T00:00:00	2024-11-08T18:00:00	8	Radiación solar	36
133537	7	Sololá	719	Santiago Atitlán	14	Cerro de Oro	2	Febrero	2023-02-23T00:00:00	2024-11-08T19:00:00	2	Temperatura media	17.8
133538	7	Sololá	719	Santiago Atitlán	14	Cerro de Oro	2	Febrero	2023-02-23T00:00:00	2024-11-08T19:00:00	4	Temperatura máxima	18.2
133539	7	Sololá	719	Santiago Atitlán	14	Cerro de Oro	2	Febrero	2023-02-23T00:00:00	2024-11-08T19:00:00	3	Temperatura mínima	17.7
133540	7	Sololá	719	Santiago Atitlán	14	Cerro de Oro	2	Febrero	2023-02-23T00:00:00	2024-11-08T19:00:00	5	Humedad	85
133541	7	Sololá	719	Santiago Atitlán	14	Cerro de Oro	2	Febrero	2023-02-23T00:00:00	2024-11-08T19:00:00	6	Velocidad del viento	8
133542	7	Sololá	719	Santiago Atitlán	14	Cerro de Oro	2	Febrero	2023-02-23T00:00:00	2024-11-08T19:00:00	7	Dirección del viento	8.05
133543	7	Sololá	719	Santiago Atitlán	14	Cerro de Oro	2	Febrero	2023-02-23T00:00:00	2024-11-08T19:00:00	1	Precipitación	0
133544	7	Sololá	719	Santiago Atitlán	14	Cerro de Oro	2	Febrero	2023-02-23T00:00:00	2024-11-08T19:00:00	8	Radiación solar	0
133545	7	Sololá	719	Santiago Atitlán	14	Cerro de Oro	2	Febrero	2023-02-23T00:00:00	2024-11-08T20:00:00	2	Temperatura media	18
133546	7	Sololá	719	Santiago Atitlán	14	Cerro de Oro	2	Febrero	2023-02-23T00:00:00	2024-11-08T20:00:00	4	Temperatura máxima	18.2
133547	7	Sololá	719	Santiago Atitlán	14	Cerro de Oro	2	Febrero	2023-02-23T00:00:00	2024-11-08T20:00:00	3	Temperatura mínima	17.7
133548	7	Sololá	719	Santiago Atitlán	14	Cerro de Oro	2	Febrero	2023-02-23T00:00:00	2024-11-08T20:00:00	5	Humedad	83
133549	7	Sololá	719	Santiago Atitlán	14	Cerro de Oro	2	Febrero	2023-02-23T00:00:00	2024-11-08T20:00:00	6	Velocidad del viento	8
133550	7	Sololá	719	Santiago Atitlán	14	Cerro de Oro	2	Febrero	2023-02-23T00:00:00	2024-11-08T20:00:00	7	Dirección del viento	8.05
133551	7	Sololá	719	Santiago Atitlán	14	Cerro de Oro	2	Febrero	2023-02-23T00:00:00	2024-11-08T20:00:00	1	Precipitación	0
133552	7	Sololá	719	Santiago Atitlán	14	Cerro de Oro	2	Febrero	2023-02-23T00:00:00	2024-11-08T20:00:00	8	Radiación solar	0
133553	7	Sololá	719	Santiago Atitlán	14	Cerro de Oro	2	Febrero	2023-02-23T00:00:00	2024-11-08T21:00:00	2	Temperatura media	17.8
133554	7	Sololá	719	Santiago Atitlán	14	Cerro de Oro	2	Febrero	2023-02-23T00:00:00	2024-11-08T21:00:00	4	Temperatura máxima	18
133555	7	Sololá	719	Santiago Atitlán	14	Cerro de Oro	2	Febrero	2023-02-23T00:00:00	2024-11-08T21:00:00	3	Temperatura mínima	17.7
133556	7	Sololá	719	Santiago Atitlán	14	Cerro de Oro	2	Febrero	2023-02-23T00:00:00	2024-11-08T21:00:00	5	Humedad	84
133557	7	Sololá	719	Santiago Atitlán	14	Cerro de Oro	2	Febrero	2023-02-23T00:00:00	2024-11-08T21:00:00	6	Velocidad del viento	3.2
133558	7	Sololá	719	Santiago Atitlán	14	Cerro de Oro	2	Febrero	2023-02-23T00:00:00	2024-11-08T21:00:00	7	Dirección del viento	3.22
133559	7	Sololá	719	Santiago Atitlán	14	Cerro de Oro	2	Febrero	2023-02-23T00:00:00	2024-11-08T21:00:00	1	Precipitación	0
133560	7	Sololá	719	Santiago Atitlán	14	Cerro de Oro	2	Febrero	2023-02-23T00:00:00	2024-11-08T21:00:00	8	Radiación solar	0
133561	7	Sololá	719	Santiago Atitlán	14	Cerro de Oro	2	Febrero	2023-02-23T00:00:00	2024-11-08T22:00:00	2	Temperatura media	16.8
133562	7	Sololá	719	Santiago Atitlán	14	Cerro de Oro	2	Febrero	2023-02-23T00:00:00	2024-11-08T22:00:00	4	Temperatura máxima	17.7
133563	7	Sololá	719	Santiago Atitlán	14	Cerro de Oro	2	Febrero	2023-02-23T00:00:00	2024-11-08T22:00:00	3	Temperatura mínima	16.8
133564	7	Sololá	719	Santiago Atitlán	14	Cerro de Oro	2	Febrero	2023-02-23T00:00:00	2024-11-08T22:00:00	5	Humedad	85
133565	7	Sololá	719	Santiago Atitlán	14	Cerro de Oro	2	Febrero	2023-02-23T00:00:00	2024-11-08T22:00:00	6	Velocidad del viento	3.2
133566	7	Sololá	719	Santiago Atitlán	14	Cerro de Oro	2	Febrero	2023-02-23T00:00:00	2024-11-08T22:00:00	7	Dirección del viento	3.22
133567	7	Sololá	719	Santiago Atitlán	14	Cerro de Oro	2	Febrero	2023-02-23T00:00:00	2024-11-08T22:00:00	1	Precipitación	0
133568	7	Sololá	719	Santiago Atitlán	14	Cerro de Oro	2	Febrero	2023-02-23T00:00:00	2024-11-08T22:00:00	8	Radiación solar	0
133569	7	Sololá	719	Santiago Atitlán	14	Cerro de Oro	2	Febrero	2023-02-23T00:00:00	2024-11-08T23:00:00	2	Temperatura media	17.8
133570	7	Sololá	719	Santiago Atitlán	14	Cerro de Oro	2	Febrero	2023-02-23T00:00:00	2024-11-08T23:00:00	4	Temperatura máxima	17.8
133571	7	Sololá	719	Santiago Atitlán	14	Cerro de Oro	2	Febrero	2023-02-23T00:00:00	2024-11-08T23:00:00	3	Temperatura mínima	16.4
133572	7	Sololá	719	Santiago Atitlán	14	Cerro de Oro	2	Febrero	2023-02-23T00:00:00	2024-11-08T23:00:00	5	Humedad	74
133573	7	Sololá	719	Santiago Atitlán	14	Cerro de Oro	2	Febrero	2023-02-23T00:00:00	2024-11-08T23:00:00	6	Velocidad del viento	6.4
133574	7	Sololá	719	Santiago Atitlán	14	Cerro de Oro	2	Febrero	2023-02-23T00:00:00	2024-11-08T23:00:00	7	Dirección del viento	6.44
133575	7	Sololá	719	Santiago Atitlán	14	Cerro de Oro	2	Febrero	2023-02-23T00:00:00	2024-11-08T23:00:00	1	Precipitación	0
133576	7	Sololá	719	Santiago Atitlán	14	Cerro de Oro	2	Febrero	2023-02-23T00:00:00	2024-11-08T23:00:00	8	Radiación solar	0
133577	7	Sololá	719	Santiago Atitlán	14	Cerro de Oro	2	Febrero	2023-02-24T00:00:00	2024-11-08T00:00:00	2	Temperatura media	17.7
133578	7	Sololá	719	Santiago Atitlán	14	Cerro de Oro	2	Febrero	2023-02-24T00:00:00	2024-11-08T00:00:00	4	Temperatura máxima	18.1
133579	7	Sololá	719	Santiago Atitlán	14	Cerro de Oro	2	Febrero	2023-02-24T00:00:00	2024-11-08T00:00:00	3	Temperatura mínima	17.6
133580	7	Sololá	719	Santiago Atitlán	14	Cerro de Oro	2	Febrero	2023-02-24T00:00:00	2024-11-08T00:00:00	5	Humedad	73
133581	7	Sololá	719	Santiago Atitlán	14	Cerro de Oro	2	Febrero	2023-02-24T00:00:00	2024-11-08T00:00:00	6	Velocidad del viento	6.4
133582	7	Sololá	719	Santiago Atitlán	14	Cerro de Oro	2	Febrero	2023-02-24T00:00:00	2024-11-08T00:00:00	7	Dirección del viento	6.44
133583	7	Sololá	719	Santiago Atitlán	14	Cerro de Oro	2	Febrero	2023-02-24T00:00:00	2024-11-08T00:00:00	1	Precipitación	0
133584	7	Sololá	719	Santiago Atitlán	14	Cerro de Oro	2	Febrero	2023-02-24T00:00:00	2024-11-08T00:00:00	8	Radiación solar	0
133585	7	Sololá	719	Santiago Atitlán	14	Cerro de Oro	2	Febrero	2023-02-24T00:00:00	2024-11-08T01:00:00	2	Temperatura media	16.2
133586	7	Sololá	719	Santiago Atitlán	14	Cerro de Oro	2	Febrero	2023-02-24T00:00:00	2024-11-08T01:00:00	4	Temperatura máxima	17.8
133587	7	Sololá	719	Santiago Atitlán	14	Cerro de Oro	2	Febrero	2023-02-24T00:00:00	2024-11-08T01:00:00	3	Temperatura mínima	16.2
133588	7	Sololá	719	Santiago Atitlán	14	Cerro de Oro	2	Febrero	2023-02-24T00:00:00	2024-11-08T01:00:00	5	Humedad	76
133589	7	Sololá	719	Santiago Atitlán	14	Cerro de Oro	2	Febrero	2023-02-24T00:00:00	2024-11-08T01:00:00	6	Velocidad del viento	6.4
133590	7	Sololá	719	Santiago Atitlán	14	Cerro de Oro	2	Febrero	2023-02-24T00:00:00	2024-11-08T01:00:00	7	Dirección del viento	6.44
133591	7	Sololá	719	Santiago Atitlán	14	Cerro de Oro	2	Febrero	2023-02-24T00:00:00	2024-11-08T01:00:00	1	Precipitación	0
133592	7	Sololá	719	Santiago Atitlán	14	Cerro de Oro	2	Febrero	2023-02-24T00:00:00	2024-11-08T01:00:00	8	Radiación solar	0
133593	7	Sololá	719	Santiago Atitlán	14	Cerro de Oro	2	Febrero	2023-02-24T00:00:00	2024-11-08T02:00:00	2	Temperatura media	16.4
133594	7	Sololá	719	Santiago Atitlán	14	Cerro de Oro	2	Febrero	2023-02-24T00:00:00	2024-11-08T02:00:00	4	Temperatura máxima	16.4
133595	7	Sololá	719	Santiago Atitlán	14	Cerro de Oro	2	Febrero	2023-02-24T00:00:00	2024-11-08T02:00:00	3	Temperatura mínima	15.9
133596	7	Sololá	719	Santiago Atitlán	14	Cerro de Oro	2	Febrero	2023-02-24T00:00:00	2024-11-08T02:00:00	5	Humedad	76
133597	7	Sololá	719	Santiago Atitlán	14	Cerro de Oro	2	Febrero	2023-02-24T00:00:00	2024-11-08T02:00:00	6	Velocidad del viento	6.4
133598	7	Sololá	719	Santiago Atitlán	14	Cerro de Oro	2	Febrero	2023-02-24T00:00:00	2024-11-08T02:00:00	7	Dirección del viento	6.44
133599	7	Sololá	719	Santiago Atitlán	14	Cerro de Oro	2	Febrero	2023-02-24T00:00:00	2024-11-08T02:00:00	1	Precipitación	0
133600	7	Sololá	719	Santiago Atitlán	14	Cerro de Oro	2	Febrero	2023-02-24T00:00:00	2024-11-08T02:00:00	8	Radiación solar	0
133601	7	Sololá	719	Santiago Atitlán	14	Cerro de Oro	2	Febrero	2023-02-24T00:00:00	2024-11-08T03:00:00	2	Temperatura media	17.1
133602	7	Sololá	719	Santiago Atitlán	14	Cerro de Oro	2	Febrero	2023-02-24T00:00:00	2024-11-08T03:00:00	4	Temperatura máxima	17.6
133603	7	Sololá	719	Santiago Atitlán	14	Cerro de Oro	2	Febrero	2023-02-24T00:00:00	2024-11-08T03:00:00	3	Temperatura mínima	16.4
133604	7	Sololá	719	Santiago Atitlán	14	Cerro de Oro	2	Febrero	2023-02-24T00:00:00	2024-11-08T03:00:00	5	Humedad	73
133605	7	Sololá	719	Santiago Atitlán	14	Cerro de Oro	2	Febrero	2023-02-24T00:00:00	2024-11-08T03:00:00	6	Velocidad del viento	6.4
133606	7	Sololá	719	Santiago Atitlán	14	Cerro de Oro	2	Febrero	2023-02-24T00:00:00	2024-11-08T03:00:00	7	Dirección del viento	6.44
133607	7	Sololá	719	Santiago Atitlán	14	Cerro de Oro	2	Febrero	2023-02-24T00:00:00	2024-11-08T03:00:00	1	Precipitación	0
133608	7	Sololá	719	Santiago Atitlán	14	Cerro de Oro	2	Febrero	2023-02-24T00:00:00	2024-11-08T03:00:00	8	Radiación solar	0
133609	7	Sololá	719	Santiago Atitlán	14	Cerro de Oro	2	Febrero	2023-02-24T00:00:00	2024-11-08T04:00:00	2	Temperatura media	17.6
133610	7	Sololá	719	Santiago Atitlán	14	Cerro de Oro	2	Febrero	2023-02-24T00:00:00	2024-11-08T04:00:00	4	Temperatura máxima	17.8
133611	7	Sololá	719	Santiago Atitlán	14	Cerro de Oro	2	Febrero	2023-02-24T00:00:00	2024-11-08T04:00:00	3	Temperatura mínima	16.7
133612	7	Sololá	719	Santiago Atitlán	14	Cerro de Oro	2	Febrero	2023-02-24T00:00:00	2024-11-08T04:00:00	5	Humedad	69
133613	7	Sololá	719	Santiago Atitlán	14	Cerro de Oro	2	Febrero	2023-02-24T00:00:00	2024-11-08T04:00:00	6	Velocidad del viento	11.3
133614	7	Sololá	719	Santiago Atitlán	14	Cerro de Oro	2	Febrero	2023-02-24T00:00:00	2024-11-08T04:00:00	7	Dirección del viento	11.27
133615	7	Sololá	719	Santiago Atitlán	14	Cerro de Oro	2	Febrero	2023-02-24T00:00:00	2024-11-08T04:00:00	1	Precipitación	0
133616	7	Sololá	719	Santiago Atitlán	14	Cerro de Oro	2	Febrero	2023-02-24T00:00:00	2024-11-08T04:00:00	8	Radiación solar	0
133617	7	Sololá	719	Santiago Atitlán	14	Cerro de Oro	2	Febrero	2023-02-24T00:00:00	2024-11-08T05:00:00	2	Temperatura media	16.9
133618	7	Sololá	719	Santiago Atitlán	14	Cerro de Oro	2	Febrero	2023-02-24T00:00:00	2024-11-08T05:00:00	4	Temperatura máxima	17.6
133619	7	Sololá	719	Santiago Atitlán	14	Cerro de Oro	2	Febrero	2023-02-24T00:00:00	2024-11-08T05:00:00	3	Temperatura mínima	16.9
133620	7	Sololá	719	Santiago Atitlán	14	Cerro de Oro	2	Febrero	2023-02-24T00:00:00	2024-11-08T05:00:00	5	Humedad	71
133621	7	Sololá	719	Santiago Atitlán	14	Cerro de Oro	2	Febrero	2023-02-24T00:00:00	2024-11-08T05:00:00	6	Velocidad del viento	9.7
133622	7	Sololá	719	Santiago Atitlán	14	Cerro de Oro	2	Febrero	2023-02-24T00:00:00	2024-11-08T05:00:00	7	Dirección del viento	9.66
133623	7	Sololá	719	Santiago Atitlán	14	Cerro de Oro	2	Febrero	2023-02-24T00:00:00	2024-11-08T05:00:00	1	Precipitación	0
133624	7	Sololá	719	Santiago Atitlán	14	Cerro de Oro	2	Febrero	2023-02-24T00:00:00	2024-11-08T05:00:00	8	Radiación solar	0
133625	7	Sololá	719	Santiago Atitlán	14	Cerro de Oro	2	Febrero	2023-02-24T00:00:00	2024-11-08T06:00:00	2	Temperatura media	14.7
133626	7	Sololá	719	Santiago Atitlán	14	Cerro de Oro	2	Febrero	2023-02-24T00:00:00	2024-11-08T06:00:00	4	Temperatura máxima	16.9
133627	7	Sololá	719	Santiago Atitlán	14	Cerro de Oro	2	Febrero	2023-02-24T00:00:00	2024-11-08T06:00:00	3	Temperatura mínima	14.7
133628	7	Sololá	719	Santiago Atitlán	14	Cerro de Oro	2	Febrero	2023-02-24T00:00:00	2024-11-08T06:00:00	5	Humedad	74
133629	7	Sololá	719	Santiago Atitlán	14	Cerro de Oro	2	Febrero	2023-02-24T00:00:00	2024-11-08T06:00:00	6	Velocidad del viento	6.4
133630	7	Sololá	719	Santiago Atitlán	14	Cerro de Oro	2	Febrero	2023-02-24T00:00:00	2024-11-08T06:00:00	7	Dirección del viento	6.44
133631	7	Sololá	719	Santiago Atitlán	14	Cerro de Oro	2	Febrero	2023-02-24T00:00:00	2024-11-08T06:00:00	1	Precipitación	0
133632	7	Sololá	719	Santiago Atitlán	14	Cerro de Oro	2	Febrero	2023-02-24T00:00:00	2024-11-08T06:00:00	8	Radiación solar	0
133633	7	Sololá	719	Santiago Atitlán	14	Cerro de Oro	2	Febrero	2023-02-24T00:00:00	2024-11-08T07:00:00	2	Temperatura media	16.3
133634	7	Sololá	719	Santiago Atitlán	14	Cerro de Oro	2	Febrero	2023-02-24T00:00:00	2024-11-08T07:00:00	4	Temperatura máxima	16.3
133635	7	Sololá	719	Santiago Atitlán	14	Cerro de Oro	2	Febrero	2023-02-24T00:00:00	2024-11-08T07:00:00	3	Temperatura mínima	14.7
133636	7	Sololá	719	Santiago Atitlán	14	Cerro de Oro	2	Febrero	2023-02-24T00:00:00	2024-11-08T07:00:00	5	Humedad	66
133637	7	Sololá	719	Santiago Atitlán	14	Cerro de Oro	2	Febrero	2023-02-24T00:00:00	2024-11-08T07:00:00	6	Velocidad del viento	6.4
133638	7	Sololá	719	Santiago Atitlán	14	Cerro de Oro	2	Febrero	2023-02-24T00:00:00	2024-11-08T07:00:00	7	Dirección del viento	6.44
133639	7	Sololá	719	Santiago Atitlán	14	Cerro de Oro	2	Febrero	2023-02-24T00:00:00	2024-11-08T07:00:00	1	Precipitación	0
133640	7	Sololá	719	Santiago Atitlán	14	Cerro de Oro	2	Febrero	2023-02-24T00:00:00	2024-11-08T07:00:00	8	Radiación solar	15
133641	7	Sololá	719	Santiago Atitlán	14	Cerro de Oro	2	Febrero	2023-02-24T00:00:00	2024-11-08T08:00:00	2	Temperatura media	18.9
133642	7	Sololá	719	Santiago Atitlán	14	Cerro de Oro	2	Febrero	2023-02-24T00:00:00	2024-11-08T08:00:00	4	Temperatura máxima	18.9
133643	7	Sololá	719	Santiago Atitlán	14	Cerro de Oro	2	Febrero	2023-02-24T00:00:00	2024-11-08T08:00:00	3	Temperatura mínima	16.3
133644	7	Sololá	719	Santiago Atitlán	14	Cerro de Oro	2	Febrero	2023-02-24T00:00:00	2024-11-08T08:00:00	5	Humedad	58
133645	7	Sololá	719	Santiago Atitlán	14	Cerro de Oro	2	Febrero	2023-02-24T00:00:00	2024-11-08T08:00:00	6	Velocidad del viento	6.4
133646	7	Sololá	719	Santiago Atitlán	14	Cerro de Oro	2	Febrero	2023-02-24T00:00:00	2024-11-08T08:00:00	7	Dirección del viento	6.44
133647	7	Sololá	719	Santiago Atitlán	14	Cerro de Oro	2	Febrero	2023-02-24T00:00:00	2024-11-08T08:00:00	1	Precipitación	0
133648	7	Sololá	719	Santiago Atitlán	14	Cerro de Oro	2	Febrero	2023-02-24T00:00:00	2024-11-08T08:00:00	8	Radiación solar	174
133649	7	Sololá	719	Santiago Atitlán	14	Cerro de Oro	2	Febrero	2023-02-24T00:00:00	2024-11-08T09:00:00	2	Temperatura media	20.7
133650	7	Sololá	719	Santiago Atitlán	14	Cerro de Oro	2	Febrero	2023-02-24T00:00:00	2024-11-08T09:00:00	4	Temperatura máxima	20.7
133651	7	Sololá	719	Santiago Atitlán	14	Cerro de Oro	2	Febrero	2023-02-24T00:00:00	2024-11-08T09:00:00	3	Temperatura mínima	18.9
133652	7	Sololá	719	Santiago Atitlán	14	Cerro de Oro	2	Febrero	2023-02-24T00:00:00	2024-11-08T09:00:00	5	Humedad	49
133653	7	Sololá	719	Santiago Atitlán	14	Cerro de Oro	2	Febrero	2023-02-24T00:00:00	2024-11-08T09:00:00	6	Velocidad del viento	9.7
133654	7	Sololá	719	Santiago Atitlán	14	Cerro de Oro	2	Febrero	2023-02-24T00:00:00	2024-11-08T09:00:00	7	Dirección del viento	9.66
133655	7	Sololá	719	Santiago Atitlán	14	Cerro de Oro	2	Febrero	2023-02-24T00:00:00	2024-11-08T09:00:00	1	Precipitación	0
133656	7	Sololá	719	Santiago Atitlán	14	Cerro de Oro	2	Febrero	2023-02-24T00:00:00	2024-11-08T09:00:00	8	Radiación solar	411
133657	7	Sololá	719	Santiago Atitlán	14	Cerro de Oro	2	Febrero	2023-02-24T00:00:00	2024-11-08T10:00:00	2	Temperatura media	22.6
133658	7	Sololá	719	Santiago Atitlán	14	Cerro de Oro	2	Febrero	2023-02-24T00:00:00	2024-11-08T10:00:00	4	Temperatura máxima	22.6
133659	7	Sololá	719	Santiago Atitlán	14	Cerro de Oro	2	Febrero	2023-02-24T00:00:00	2024-11-08T10:00:00	3	Temperatura mínima	20.6
133660	7	Sololá	719	Santiago Atitlán	14	Cerro de Oro	2	Febrero	2023-02-24T00:00:00	2024-11-08T10:00:00	5	Humedad	45
133661	7	Sololá	719	Santiago Atitlán	14	Cerro de Oro	2	Febrero	2023-02-24T00:00:00	2024-11-08T10:00:00	6	Velocidad del viento	9.7
133662	7	Sololá	719	Santiago Atitlán	14	Cerro de Oro	2	Febrero	2023-02-24T00:00:00	2024-11-08T10:00:00	7	Dirección del viento	9.66
133663	7	Sololá	719	Santiago Atitlán	14	Cerro de Oro	2	Febrero	2023-02-24T00:00:00	2024-11-08T10:00:00	1	Precipitación	0
133664	7	Sololá	719	Santiago Atitlán	14	Cerro de Oro	2	Febrero	2023-02-24T00:00:00	2024-11-08T10:00:00	8	Radiación solar	618
133665	7	Sololá	719	Santiago Atitlán	14	Cerro de Oro	2	Febrero	2023-02-24T00:00:00	2024-11-08T11:00:00	2	Temperatura media	23.5
133666	7	Sololá	719	Santiago Atitlán	14	Cerro de Oro	2	Febrero	2023-02-24T00:00:00	2024-11-08T11:00:00	4	Temperatura máxima	23.7
133667	7	Sololá	719	Santiago Atitlán	14	Cerro de Oro	2	Febrero	2023-02-24T00:00:00	2024-11-08T11:00:00	3	Temperatura mínima	22.5
133668	7	Sololá	719	Santiago Atitlán	14	Cerro de Oro	2	Febrero	2023-02-24T00:00:00	2024-11-08T11:00:00	5	Humedad	49
133669	7	Sololá	719	Santiago Atitlán	14	Cerro de Oro	2	Febrero	2023-02-24T00:00:00	2024-11-08T11:00:00	6	Velocidad del viento	8
133670	7	Sololá	719	Santiago Atitlán	14	Cerro de Oro	2	Febrero	2023-02-24T00:00:00	2024-11-08T11:00:00	7	Dirección del viento	8.05
133671	7	Sololá	719	Santiago Atitlán	14	Cerro de Oro	2	Febrero	2023-02-24T00:00:00	2024-11-08T11:00:00	1	Precipitación	0
133672	7	Sololá	719	Santiago Atitlán	14	Cerro de Oro	2	Febrero	2023-02-24T00:00:00	2024-11-08T11:00:00	8	Radiación solar	767
133673	7	Sololá	719	Santiago Atitlán	14	Cerro de Oro	2	Febrero	2023-02-24T00:00:00	2024-11-08T12:00:00	2	Temperatura media	22.9
133674	7	Sololá	719	Santiago Atitlán	14	Cerro de Oro	2	Febrero	2023-02-24T00:00:00	2024-11-08T12:00:00	4	Temperatura máxima	24.1
133675	7	Sololá	719	Santiago Atitlán	14	Cerro de Oro	2	Febrero	2023-02-24T00:00:00	2024-11-08T12:00:00	3	Temperatura mínima	22.9
133676	7	Sololá	719	Santiago Atitlán	14	Cerro de Oro	2	Febrero	2023-02-24T00:00:00	2024-11-08T12:00:00	5	Humedad	59
133677	7	Sololá	719	Santiago Atitlán	14	Cerro de Oro	2	Febrero	2023-02-24T00:00:00	2024-11-08T12:00:00	6	Velocidad del viento	12.9
133678	7	Sololá	719	Santiago Atitlán	14	Cerro de Oro	2	Febrero	2023-02-24T00:00:00	2024-11-08T12:00:00	7	Dirección del viento	12.87
133679	7	Sololá	719	Santiago Atitlán	14	Cerro de Oro	2	Febrero	2023-02-24T00:00:00	2024-11-08T12:00:00	1	Precipitación	0
133680	7	Sololá	719	Santiago Atitlán	14	Cerro de Oro	2	Febrero	2023-02-24T00:00:00	2024-11-08T12:00:00	8	Radiación solar	849
133681	7	Sololá	719	Santiago Atitlán	14	Cerro de Oro	2	Febrero	2023-02-24T00:00:00	2024-11-08T13:00:00	2	Temperatura media	22.2
133682	7	Sololá	719	Santiago Atitlán	14	Cerro de Oro	2	Febrero	2023-02-24T00:00:00	2024-11-08T13:00:00	4	Temperatura máxima	22.9
133683	7	Sololá	719	Santiago Atitlán	14	Cerro de Oro	2	Febrero	2023-02-24T00:00:00	2024-11-08T13:00:00	3	Temperatura mínima	22.1
133684	7	Sololá	719	Santiago Atitlán	14	Cerro de Oro	2	Febrero	2023-02-24T00:00:00	2024-11-08T13:00:00	5	Humedad	67
133685	7	Sololá	719	Santiago Atitlán	14	Cerro de Oro	2	Febrero	2023-02-24T00:00:00	2024-11-08T13:00:00	6	Velocidad del viento	14.5
133686	7	Sololá	719	Santiago Atitlán	14	Cerro de Oro	2	Febrero	2023-02-24T00:00:00	2024-11-08T13:00:00	7	Dirección del viento	14.48
133687	7	Sololá	719	Santiago Atitlán	14	Cerro de Oro	2	Febrero	2023-02-24T00:00:00	2024-11-08T13:00:00	1	Precipitación	0
133688	7	Sololá	719	Santiago Atitlán	14	Cerro de Oro	2	Febrero	2023-02-24T00:00:00	2024-11-08T13:00:00	8	Radiación solar	859
133689	7	Sololá	719	Santiago Atitlán	14	Cerro de Oro	2	Febrero	2023-02-24T00:00:00	2024-11-08T14:00:00	2	Temperatura media	22.2
133690	7	Sololá	719	Santiago Atitlán	14	Cerro de Oro	2	Febrero	2023-02-24T00:00:00	2024-11-08T14:00:00	4	Temperatura máxima	22.6
133691	7	Sololá	719	Santiago Atitlán	14	Cerro de Oro	2	Febrero	2023-02-24T00:00:00	2024-11-08T14:00:00	3	Temperatura mínima	22
133692	7	Sololá	719	Santiago Atitlán	14	Cerro de Oro	2	Febrero	2023-02-24T00:00:00	2024-11-08T14:00:00	5	Humedad	67
133693	7	Sololá	719	Santiago Atitlán	14	Cerro de Oro	2	Febrero	2023-02-24T00:00:00	2024-11-08T14:00:00	6	Velocidad del viento	14.5
133694	7	Sololá	719	Santiago Atitlán	14	Cerro de Oro	2	Febrero	2023-02-24T00:00:00	2024-11-08T14:00:00	7	Dirección del viento	14.48
133695	7	Sololá	719	Santiago Atitlán	14	Cerro de Oro	2	Febrero	2023-02-24T00:00:00	2024-11-08T14:00:00	1	Precipitación	0
133696	7	Sololá	719	Santiago Atitlán	14	Cerro de Oro	2	Febrero	2023-02-24T00:00:00	2024-11-08T14:00:00	8	Radiación solar	815
133697	7	Sololá	719	Santiago Atitlán	14	Cerro de Oro	2	Febrero	2023-02-24T00:00:00	2024-11-08T15:00:00	2	Temperatura media	21.9
133698	7	Sololá	719	Santiago Atitlán	14	Cerro de Oro	2	Febrero	2023-02-24T00:00:00	2024-11-08T15:00:00	4	Temperatura máxima	22.7
133699	7	Sololá	719	Santiago Atitlán	14	Cerro de Oro	2	Febrero	2023-02-24T00:00:00	2024-11-08T15:00:00	3	Temperatura mínima	21.9
133700	7	Sololá	719	Santiago Atitlán	14	Cerro de Oro	2	Febrero	2023-02-24T00:00:00	2024-11-08T15:00:00	5	Humedad	68
133701	7	Sololá	719	Santiago Atitlán	14	Cerro de Oro	2	Febrero	2023-02-24T00:00:00	2024-11-08T15:00:00	6	Velocidad del viento	12.9
133702	7	Sololá	719	Santiago Atitlán	14	Cerro de Oro	2	Febrero	2023-02-24T00:00:00	2024-11-08T15:00:00	7	Dirección del viento	12.87
133703	7	Sololá	719	Santiago Atitlán	14	Cerro de Oro	2	Febrero	2023-02-24T00:00:00	2024-11-08T15:00:00	1	Precipitación	0
133704	7	Sololá	719	Santiago Atitlán	14	Cerro de Oro	2	Febrero	2023-02-24T00:00:00	2024-11-08T15:00:00	8	Radiación solar	692
133705	7	Sololá	719	Santiago Atitlán	14	Cerro de Oro	2	Febrero	2023-02-24T00:00:00	2024-11-08T16:00:00	2	Temperatura media	20.6
133706	7	Sololá	719	Santiago Atitlán	14	Cerro de Oro	2	Febrero	2023-02-24T00:00:00	2024-11-08T16:00:00	4	Temperatura máxima	22.1
133707	7	Sololá	719	Santiago Atitlán	14	Cerro de Oro	2	Febrero	2023-02-24T00:00:00	2024-11-08T16:00:00	3	Temperatura mínima	20.6
133708	7	Sololá	719	Santiago Atitlán	14	Cerro de Oro	2	Febrero	2023-02-24T00:00:00	2024-11-08T16:00:00	5	Humedad	74
133709	7	Sololá	719	Santiago Atitlán	14	Cerro de Oro	2	Febrero	2023-02-24T00:00:00	2024-11-08T16:00:00	6	Velocidad del viento	12.9
133710	7	Sololá	719	Santiago Atitlán	14	Cerro de Oro	2	Febrero	2023-02-24T00:00:00	2024-11-08T16:00:00	7	Dirección del viento	12.87
133711	7	Sololá	719	Santiago Atitlán	14	Cerro de Oro	2	Febrero	2023-02-24T00:00:00	2024-11-08T16:00:00	1	Precipitación	0
133712	7	Sololá	719	Santiago Atitlán	14	Cerro de Oro	2	Febrero	2023-02-24T00:00:00	2024-11-08T16:00:00	8	Radiación solar	166
133713	7	Sololá	719	Santiago Atitlán	14	Cerro de Oro	2	Febrero	2023-02-24T00:00:00	2024-11-08T17:00:00	2	Temperatura media	20.3
133714	7	Sololá	719	Santiago Atitlán	14	Cerro de Oro	2	Febrero	2023-02-24T00:00:00	2024-11-08T17:00:00	4	Temperatura máxima	20.8
133715	7	Sololá	719	Santiago Atitlán	14	Cerro de Oro	2	Febrero	2023-02-24T00:00:00	2024-11-08T17:00:00	3	Temperatura mínima	20.3
133716	7	Sololá	719	Santiago Atitlán	14	Cerro de Oro	2	Febrero	2023-02-24T00:00:00	2024-11-08T17:00:00	5	Humedad	77
133717	7	Sololá	719	Santiago Atitlán	14	Cerro de Oro	2	Febrero	2023-02-24T00:00:00	2024-11-08T17:00:00	6	Velocidad del viento	11.3
133718	7	Sololá	719	Santiago Atitlán	14	Cerro de Oro	2	Febrero	2023-02-24T00:00:00	2024-11-08T17:00:00	7	Dirección del viento	11.27
133719	7	Sololá	719	Santiago Atitlán	14	Cerro de Oro	2	Febrero	2023-02-24T00:00:00	2024-11-08T17:00:00	1	Precipitación	0
133720	7	Sololá	719	Santiago Atitlán	14	Cerro de Oro	2	Febrero	2023-02-24T00:00:00	2024-11-08T17:00:00	8	Radiación solar	142
133721	7	Sololá	719	Santiago Atitlán	14	Cerro de Oro	2	Febrero	2023-02-24T00:00:00	2024-11-08T18:00:00	2	Temperatura media	19.3
133722	7	Sololá	719	Santiago Atitlán	14	Cerro de Oro	2	Febrero	2023-02-24T00:00:00	2024-11-08T18:00:00	4	Temperatura máxima	20.3
133723	7	Sololá	719	Santiago Atitlán	14	Cerro de Oro	2	Febrero	2023-02-24T00:00:00	2024-11-08T18:00:00	3	Temperatura mínima	19.3
133724	7	Sololá	719	Santiago Atitlán	14	Cerro de Oro	2	Febrero	2023-02-24T00:00:00	2024-11-08T18:00:00	5	Humedad	82
133725	7	Sololá	719	Santiago Atitlán	14	Cerro de Oro	2	Febrero	2023-02-24T00:00:00	2024-11-08T18:00:00	6	Velocidad del viento	8
133726	7	Sololá	719	Santiago Atitlán	14	Cerro de Oro	2	Febrero	2023-02-24T00:00:00	2024-11-08T18:00:00	7	Dirección del viento	8.05
133727	7	Sololá	719	Santiago Atitlán	14	Cerro de Oro	2	Febrero	2023-02-24T00:00:00	2024-11-08T18:00:00	1	Precipitación	0
133728	7	Sololá	719	Santiago Atitlán	14	Cerro de Oro	2	Febrero	2023-02-24T00:00:00	2024-11-08T18:00:00	8	Radiación solar	59
133729	7	Sololá	719	Santiago Atitlán	14	Cerro de Oro	2	Febrero	2023-02-24T00:00:00	2024-11-08T19:00:00	2	Temperatura media	18.3
133730	7	Sololá	719	Santiago Atitlán	14	Cerro de Oro	2	Febrero	2023-02-24T00:00:00	2024-11-08T19:00:00	4	Temperatura máxima	19.3
133731	7	Sololá	719	Santiago Atitlán	14	Cerro de Oro	2	Febrero	2023-02-24T00:00:00	2024-11-08T19:00:00	3	Temperatura mínima	18.1
133732	7	Sololá	719	Santiago Atitlán	14	Cerro de Oro	2	Febrero	2023-02-24T00:00:00	2024-11-08T19:00:00	5	Humedad	81
133733	7	Sololá	719	Santiago Atitlán	14	Cerro de Oro	2	Febrero	2023-02-24T00:00:00	2024-11-08T19:00:00	6	Velocidad del viento	3.2
133734	7	Sololá	719	Santiago Atitlán	14	Cerro de Oro	2	Febrero	2023-02-24T00:00:00	2024-11-08T19:00:00	7	Dirección del viento	3.22
133735	7	Sololá	719	Santiago Atitlán	14	Cerro de Oro	2	Febrero	2023-02-24T00:00:00	2024-11-08T19:00:00	1	Precipitación	0
133736	7	Sololá	719	Santiago Atitlán	14	Cerro de Oro	2	Febrero	2023-02-24T00:00:00	2024-11-08T19:00:00	8	Radiación solar	0
133737	7	Sololá	719	Santiago Atitlán	14	Cerro de Oro	2	Febrero	2023-02-24T00:00:00	2024-11-08T20:00:00	2	Temperatura media	17.8
133738	7	Sololá	719	Santiago Atitlán	14	Cerro de Oro	2	Febrero	2023-02-24T00:00:00	2024-11-08T20:00:00	4	Temperatura máxima	18.4
133739	7	Sololá	719	Santiago Atitlán	14	Cerro de Oro	2	Febrero	2023-02-24T00:00:00	2024-11-08T20:00:00	3	Temperatura mínima	17.7
133740	7	Sololá	719	Santiago Atitlán	14	Cerro de Oro	2	Febrero	2023-02-24T00:00:00	2024-11-08T20:00:00	5	Humedad	82
133741	7	Sololá	719	Santiago Atitlán	14	Cerro de Oro	2	Febrero	2023-02-24T00:00:00	2024-11-08T20:00:00	6	Velocidad del viento	3.2
133742	7	Sololá	719	Santiago Atitlán	14	Cerro de Oro	2	Febrero	2023-02-24T00:00:00	2024-11-08T20:00:00	7	Dirección del viento	3.22
133743	7	Sololá	719	Santiago Atitlán	14	Cerro de Oro	2	Febrero	2023-02-24T00:00:00	2024-11-08T20:00:00	1	Precipitación	0
133744	7	Sololá	719	Santiago Atitlán	14	Cerro de Oro	2	Febrero	2023-02-24T00:00:00	2024-11-08T20:00:00	8	Radiación solar	0
133745	7	Sololá	719	Santiago Atitlán	14	Cerro de Oro	2	Febrero	2023-02-24T00:00:00	2024-11-08T21:00:00	2	Temperatura media	18.9
133746	7	Sololá	719	Santiago Atitlán	14	Cerro de Oro	2	Febrero	2023-02-24T00:00:00	2024-11-08T21:00:00	4	Temperatura máxima	19.1
133747	7	Sololá	719	Santiago Atitlán	14	Cerro de Oro	2	Febrero	2023-02-24T00:00:00	2024-11-08T21:00:00	3	Temperatura mínima	17.8
133748	7	Sololá	719	Santiago Atitlán	14	Cerro de Oro	2	Febrero	2023-02-24T00:00:00	2024-11-08T21:00:00	5	Humedad	73
133749	7	Sololá	719	Santiago Atitlán	14	Cerro de Oro	2	Febrero	2023-02-24T00:00:00	2024-11-08T21:00:00	6	Velocidad del viento	4.8
133750	7	Sololá	719	Santiago Atitlán	14	Cerro de Oro	2	Febrero	2023-02-24T00:00:00	2024-11-08T21:00:00	7	Dirección del viento	4.83
133751	7	Sololá	719	Santiago Atitlán	14	Cerro de Oro	2	Febrero	2023-02-24T00:00:00	2024-11-08T21:00:00	1	Precipitación	0
133752	7	Sololá	719	Santiago Atitlán	14	Cerro de Oro	2	Febrero	2023-02-24T00:00:00	2024-11-08T21:00:00	8	Radiación solar	0
133753	7	Sololá	719	Santiago Atitlán	14	Cerro de Oro	2	Febrero	2023-02-24T00:00:00	2024-11-08T22:00:00	2	Temperatura media	18.3
133754	7	Sololá	719	Santiago Atitlán	14	Cerro de Oro	2	Febrero	2023-02-24T00:00:00	2024-11-08T22:00:00	4	Temperatura máxima	19.1
133755	7	Sololá	719	Santiago Atitlán	14	Cerro de Oro	2	Febrero	2023-02-24T00:00:00	2024-11-08T22:00:00	3	Temperatura mínima	18.3
133756	7	Sololá	719	Santiago Atitlán	14	Cerro de Oro	2	Febrero	2023-02-24T00:00:00	2024-11-08T22:00:00	5	Humedad	72
133757	7	Sololá	719	Santiago Atitlán	14	Cerro de Oro	2	Febrero	2023-02-24T00:00:00	2024-11-08T22:00:00	6	Velocidad del viento	6.4
133758	7	Sololá	719	Santiago Atitlán	14	Cerro de Oro	2	Febrero	2023-02-24T00:00:00	2024-11-08T22:00:00	7	Dirección del viento	6.44
133759	7	Sololá	719	Santiago Atitlán	14	Cerro de Oro	2	Febrero	2023-02-24T00:00:00	2024-11-08T22:00:00	1	Precipitación	0
133760	7	Sololá	719	Santiago Atitlán	14	Cerro de Oro	2	Febrero	2023-02-24T00:00:00	2024-11-08T22:00:00	8	Radiación solar	0
133761	7	Sololá	719	Santiago Atitlán	14	Cerro de Oro	2	Febrero	2023-02-24T00:00:00	2024-11-08T23:00:00	2	Temperatura media	18
133762	7	Sololá	719	Santiago Atitlán	14	Cerro de Oro	2	Febrero	2023-02-24T00:00:00	2024-11-08T23:00:00	4	Temperatura máxima	18.3
133763	7	Sololá	719	Santiago Atitlán	14	Cerro de Oro	2	Febrero	2023-02-24T00:00:00	2024-11-08T23:00:00	3	Temperatura mínima	17.6
133764	7	Sololá	719	Santiago Atitlán	14	Cerro de Oro	2	Febrero	2023-02-24T00:00:00	2024-11-08T23:00:00	5	Humedad	72
133765	7	Sololá	719	Santiago Atitlán	14	Cerro de Oro	2	Febrero	2023-02-24T00:00:00	2024-11-08T23:00:00	6	Velocidad del viento	4.8
133766	7	Sololá	719	Santiago Atitlán	14	Cerro de Oro	2	Febrero	2023-02-24T00:00:00	2024-11-08T23:00:00	7	Dirección del viento	4.83
133767	7	Sololá	719	Santiago Atitlán	14	Cerro de Oro	2	Febrero	2023-02-24T00:00:00	2024-11-08T23:00:00	1	Precipitación	0
133768	7	Sololá	719	Santiago Atitlán	14	Cerro de Oro	2	Febrero	2023-02-24T00:00:00	2024-11-08T23:00:00	8	Radiación solar	0
133769	7	Sololá	719	Santiago Atitlán	14	Cerro de Oro	2	Febrero	2023-02-25T00:00:00	2024-11-08T00:00:00	2	Temperatura media	17.2
133770	7	Sololá	719	Santiago Atitlán	14	Cerro de Oro	2	Febrero	2023-02-25T00:00:00	2024-11-08T00:00:00	4	Temperatura máxima	18
133771	7	Sololá	719	Santiago Atitlán	14	Cerro de Oro	2	Febrero	2023-02-25T00:00:00	2024-11-08T00:00:00	3	Temperatura mínima	17.1
133772	7	Sololá	719	Santiago Atitlán	14	Cerro de Oro	2	Febrero	2023-02-25T00:00:00	2024-11-08T00:00:00	5	Humedad	73
133773	7	Sololá	719	Santiago Atitlán	14	Cerro de Oro	2	Febrero	2023-02-25T00:00:00	2024-11-08T00:00:00	6	Velocidad del viento	4.8
133774	7	Sololá	719	Santiago Atitlán	14	Cerro de Oro	2	Febrero	2023-02-25T00:00:00	2024-11-08T00:00:00	7	Dirección del viento	4.83
133775	7	Sololá	719	Santiago Atitlán	14	Cerro de Oro	2	Febrero	2023-02-25T00:00:00	2024-11-08T00:00:00	1	Precipitación	0
133776	7	Sololá	719	Santiago Atitlán	14	Cerro de Oro	2	Febrero	2023-02-25T00:00:00	2024-11-08T00:00:00	8	Radiación solar	0
133777	7	Sololá	719	Santiago Atitlán	14	Cerro de Oro	2	Febrero	2023-02-25T00:00:00	2024-11-08T01:00:00	2	Temperatura media	16.8
133778	7	Sololá	719	Santiago Atitlán	14	Cerro de Oro	2	Febrero	2023-02-25T00:00:00	2024-11-08T01:00:00	4	Temperatura máxima	17.2
133779	7	Sololá	719	Santiago Atitlán	14	Cerro de Oro	2	Febrero	2023-02-25T00:00:00	2024-11-08T01:00:00	3	Temperatura mínima	16.4
133780	7	Sololá	719	Santiago Atitlán	14	Cerro de Oro	2	Febrero	2023-02-25T00:00:00	2024-11-08T01:00:00	5	Humedad	73
133781	7	Sololá	719	Santiago Atitlán	14	Cerro de Oro	2	Febrero	2023-02-25T00:00:00	2024-11-08T01:00:00	6	Velocidad del viento	4.8
133782	7	Sololá	719	Santiago Atitlán	14	Cerro de Oro	2	Febrero	2023-02-25T00:00:00	2024-11-08T01:00:00	7	Dirección del viento	4.83
133783	7	Sololá	719	Santiago Atitlán	14	Cerro de Oro	2	Febrero	2023-02-25T00:00:00	2024-11-08T01:00:00	1	Precipitación	0
133784	7	Sololá	719	Santiago Atitlán	14	Cerro de Oro	2	Febrero	2023-02-25T00:00:00	2024-11-08T01:00:00	8	Radiación solar	0
133785	7	Sololá	719	Santiago Atitlán	14	Cerro de Oro	2	Febrero	2023-02-25T00:00:00	2024-11-08T02:00:00	2	Temperatura media	16.6
133786	7	Sololá	719	Santiago Atitlán	14	Cerro de Oro	2	Febrero	2023-02-25T00:00:00	2024-11-08T02:00:00	4	Temperatura máxima	16.8
133787	7	Sololá	719	Santiago Atitlán	14	Cerro de Oro	2	Febrero	2023-02-25T00:00:00	2024-11-08T02:00:00	3	Temperatura mínima	15.9
133788	7	Sololá	719	Santiago Atitlán	14	Cerro de Oro	2	Febrero	2023-02-25T00:00:00	2024-11-08T02:00:00	5	Humedad	73
133789	7	Sololá	719	Santiago Atitlán	14	Cerro de Oro	2	Febrero	2023-02-25T00:00:00	2024-11-08T02:00:00	6	Velocidad del viento	6.4
133790	7	Sololá	719	Santiago Atitlán	14	Cerro de Oro	2	Febrero	2023-02-25T00:00:00	2024-11-08T02:00:00	7	Dirección del viento	6.44
133791	7	Sololá	719	Santiago Atitlán	14	Cerro de Oro	2	Febrero	2023-02-25T00:00:00	2024-11-08T02:00:00	1	Precipitación	0
133792	7	Sololá	719	Santiago Atitlán	14	Cerro de Oro	2	Febrero	2023-02-25T00:00:00	2024-11-08T02:00:00	8	Radiación solar	0
133793	7	Sololá	719	Santiago Atitlán	14	Cerro de Oro	2	Febrero	2023-02-25T00:00:00	2024-11-08T03:00:00	2	Temperatura media	16.1
133794	7	Sololá	719	Santiago Atitlán	14	Cerro de Oro	2	Febrero	2023-02-25T00:00:00	2024-11-08T03:00:00	4	Temperatura máxima	16.6
133795	7	Sololá	719	Santiago Atitlán	14	Cerro de Oro	2	Febrero	2023-02-25T00:00:00	2024-11-08T03:00:00	3	Temperatura mínima	16
133796	7	Sololá	719	Santiago Atitlán	14	Cerro de Oro	2	Febrero	2023-02-25T00:00:00	2024-11-08T03:00:00	5	Humedad	74
133797	7	Sololá	719	Santiago Atitlán	14	Cerro de Oro	2	Febrero	2023-02-25T00:00:00	2024-11-08T03:00:00	6	Velocidad del viento	6.4
133798	7	Sololá	719	Santiago Atitlán	14	Cerro de Oro	2	Febrero	2023-02-25T00:00:00	2024-11-08T03:00:00	7	Dirección del viento	6.44
133799	7	Sololá	719	Santiago Atitlán	14	Cerro de Oro	2	Febrero	2023-02-25T00:00:00	2024-11-08T03:00:00	1	Precipitación	0
133800	7	Sololá	719	Santiago Atitlán	14	Cerro de Oro	2	Febrero	2023-02-25T00:00:00	2024-11-08T03:00:00	8	Radiación solar	0
133801	7	Sololá	719	Santiago Atitlán	14	Cerro de Oro	2	Febrero	2023-02-25T00:00:00	2024-11-08T04:00:00	2	Temperatura media	15.7
133802	7	Sololá	719	Santiago Atitlán	14	Cerro de Oro	2	Febrero	2023-02-25T00:00:00	2024-11-08T04:00:00	4	Temperatura máxima	16.1
133803	7	Sololá	719	Santiago Atitlán	14	Cerro de Oro	2	Febrero	2023-02-25T00:00:00	2024-11-08T04:00:00	3	Temperatura mínima	15.3
133804	7	Sololá	719	Santiago Atitlán	14	Cerro de Oro	2	Febrero	2023-02-25T00:00:00	2024-11-08T04:00:00	5	Humedad	74
133805	7	Sololá	719	Santiago Atitlán	14	Cerro de Oro	2	Febrero	2023-02-25T00:00:00	2024-11-08T04:00:00	6	Velocidad del viento	6.4
133806	7	Sololá	719	Santiago Atitlán	14	Cerro de Oro	2	Febrero	2023-02-25T00:00:00	2024-11-08T04:00:00	7	Dirección del viento	6.44
133807	7	Sololá	719	Santiago Atitlán	14	Cerro de Oro	2	Febrero	2023-02-25T00:00:00	2024-11-08T04:00:00	1	Precipitación	0
133808	7	Sololá	719	Santiago Atitlán	14	Cerro de Oro	2	Febrero	2023-02-25T00:00:00	2024-11-08T04:00:00	8	Radiación solar	0
133809	7	Sololá	719	Santiago Atitlán	14	Cerro de Oro	2	Febrero	2023-02-25T00:00:00	2024-11-08T05:00:00	2	Temperatura media	15.4
133810	7	Sololá	719	Santiago Atitlán	14	Cerro de Oro	2	Febrero	2023-02-25T00:00:00	2024-11-08T05:00:00	4	Temperatura máxima	17
133811	7	Sololá	719	Santiago Atitlán	14	Cerro de Oro	2	Febrero	2023-02-25T00:00:00	2024-11-08T05:00:00	3	Temperatura mínima	15.4
133812	7	Sololá	719	Santiago Atitlán	14	Cerro de Oro	2	Febrero	2023-02-25T00:00:00	2024-11-08T05:00:00	5	Humedad	74
133813	7	Sololá	719	Santiago Atitlán	14	Cerro de Oro	2	Febrero	2023-02-25T00:00:00	2024-11-08T05:00:00	6	Velocidad del viento	6.4
133814	7	Sololá	719	Santiago Atitlán	14	Cerro de Oro	2	Febrero	2023-02-25T00:00:00	2024-11-08T05:00:00	7	Dirección del viento	6.44
133815	7	Sololá	719	Santiago Atitlán	14	Cerro de Oro	2	Febrero	2023-02-25T00:00:00	2024-11-08T05:00:00	1	Precipitación	0
133816	7	Sololá	719	Santiago Atitlán	14	Cerro de Oro	2	Febrero	2023-02-25T00:00:00	2024-11-08T05:00:00	8	Radiación solar	0
133817	7	Sololá	719	Santiago Atitlán	14	Cerro de Oro	2	Febrero	2023-02-25T00:00:00	2024-11-08T06:00:00	2	Temperatura media	15.2
133818	7	Sololá	719	Santiago Atitlán	14	Cerro de Oro	2	Febrero	2023-02-25T00:00:00	2024-11-08T06:00:00	4	Temperatura máxima	16.9
133819	7	Sololá	719	Santiago Atitlán	14	Cerro de Oro	2	Febrero	2023-02-25T00:00:00	2024-11-08T06:00:00	3	Temperatura mínima	15.2
133820	7	Sololá	719	Santiago Atitlán	14	Cerro de Oro	2	Febrero	2023-02-25T00:00:00	2024-11-08T06:00:00	5	Humedad	75
133821	7	Sololá	719	Santiago Atitlán	14	Cerro de Oro	2	Febrero	2023-02-25T00:00:00	2024-11-08T06:00:00	6	Velocidad del viento	6.4
133822	7	Sololá	719	Santiago Atitlán	14	Cerro de Oro	2	Febrero	2023-02-25T00:00:00	2024-11-08T06:00:00	7	Dirección del viento	6.44
133823	7	Sololá	719	Santiago Atitlán	14	Cerro de Oro	2	Febrero	2023-02-25T00:00:00	2024-11-08T06:00:00	1	Precipitación	0
133824	7	Sololá	719	Santiago Atitlán	14	Cerro de Oro	2	Febrero	2023-02-25T00:00:00	2024-11-08T06:00:00	8	Radiación solar	0
133825	7	Sololá	719	Santiago Atitlán	14	Cerro de Oro	2	Febrero	2023-02-25T00:00:00	2024-11-08T07:00:00	2	Temperatura media	16.3
133826	7	Sololá	719	Santiago Atitlán	14	Cerro de Oro	2	Febrero	2023-02-25T00:00:00	2024-11-08T07:00:00	4	Temperatura máxima	16.3
133827	7	Sololá	719	Santiago Atitlán	14	Cerro de Oro	2	Febrero	2023-02-25T00:00:00	2024-11-08T07:00:00	3	Temperatura mínima	15.2
133828	7	Sololá	719	Santiago Atitlán	14	Cerro de Oro	2	Febrero	2023-02-25T00:00:00	2024-11-08T07:00:00	5	Humedad	70
133829	7	Sololá	719	Santiago Atitlán	14	Cerro de Oro	2	Febrero	2023-02-25T00:00:00	2024-11-08T07:00:00	6	Velocidad del viento	4.8
133830	7	Sololá	719	Santiago Atitlán	14	Cerro de Oro	2	Febrero	2023-02-25T00:00:00	2024-11-08T07:00:00	7	Dirección del viento	4.83
133831	7	Sololá	719	Santiago Atitlán	14	Cerro de Oro	2	Febrero	2023-02-25T00:00:00	2024-11-08T07:00:00	1	Precipitación	0
133832	7	Sololá	719	Santiago Atitlán	14	Cerro de Oro	2	Febrero	2023-02-25T00:00:00	2024-11-08T07:00:00	8	Radiación solar	14
133833	7	Sololá	719	Santiago Atitlán	14	Cerro de Oro	2	Febrero	2023-02-25T00:00:00	2024-11-08T08:00:00	2	Temperatura media	18.9
133834	7	Sololá	719	Santiago Atitlán	14	Cerro de Oro	2	Febrero	2023-02-25T00:00:00	2024-11-08T08:00:00	4	Temperatura máxima	18.9
133835	7	Sololá	719	Santiago Atitlán	14	Cerro de Oro	2	Febrero	2023-02-25T00:00:00	2024-11-08T08:00:00	3	Temperatura mínima	16.3
133836	7	Sololá	719	Santiago Atitlán	14	Cerro de Oro	2	Febrero	2023-02-25T00:00:00	2024-11-08T08:00:00	5	Humedad	62
133837	7	Sololá	719	Santiago Atitlán	14	Cerro de Oro	2	Febrero	2023-02-25T00:00:00	2024-11-08T08:00:00	6	Velocidad del viento	6.4
133838	7	Sololá	719	Santiago Atitlán	14	Cerro de Oro	2	Febrero	2023-02-25T00:00:00	2024-11-08T08:00:00	7	Dirección del viento	6.44
133839	7	Sololá	719	Santiago Atitlán	14	Cerro de Oro	2	Febrero	2023-02-25T00:00:00	2024-11-08T08:00:00	1	Precipitación	0
133840	7	Sololá	719	Santiago Atitlán	14	Cerro de Oro	2	Febrero	2023-02-25T00:00:00	2024-11-08T08:00:00	8	Radiación solar	183
133841	7	Sololá	719	Santiago Atitlán	14	Cerro de Oro	2	Febrero	2023-02-25T00:00:00	2024-11-08T09:00:00	2	Temperatura media	20.3
133842	7	Sololá	719	Santiago Atitlán	14	Cerro de Oro	2	Febrero	2023-02-25T00:00:00	2024-11-08T09:00:00	4	Temperatura máxima	20.3
133843	7	Sololá	719	Santiago Atitlán	14	Cerro de Oro	2	Febrero	2023-02-25T00:00:00	2024-11-08T09:00:00	3	Temperatura mínima	18.9
133844	7	Sololá	719	Santiago Atitlán	14	Cerro de Oro	2	Febrero	2023-02-25T00:00:00	2024-11-08T09:00:00	5	Humedad	56
133845	7	Sololá	719	Santiago Atitlán	14	Cerro de Oro	2	Febrero	2023-02-25T00:00:00	2024-11-08T09:00:00	6	Velocidad del viento	4.8
133846	7	Sololá	719	Santiago Atitlán	14	Cerro de Oro	2	Febrero	2023-02-25T00:00:00	2024-11-08T09:00:00	7	Dirección del viento	4.83
133847	7	Sololá	719	Santiago Atitlán	14	Cerro de Oro	2	Febrero	2023-02-25T00:00:00	2024-11-08T09:00:00	1	Precipitación	0
133848	7	Sololá	719	Santiago Atitlán	14	Cerro de Oro	2	Febrero	2023-02-25T00:00:00	2024-11-08T09:00:00	8	Radiación solar	420
133849	7	Sololá	719	Santiago Atitlán	14	Cerro de Oro	2	Febrero	2023-02-25T00:00:00	2024-11-08T10:00:00	2	Temperatura media	21.9
133850	7	Sololá	719	Santiago Atitlán	14	Cerro de Oro	2	Febrero	2023-02-25T00:00:00	2024-11-08T10:00:00	4	Temperatura máxima	21.9
133851	7	Sololá	719	Santiago Atitlán	14	Cerro de Oro	2	Febrero	2023-02-25T00:00:00	2024-11-08T10:00:00	3	Temperatura mínima	20.3
133852	7	Sololá	719	Santiago Atitlán	14	Cerro de Oro	2	Febrero	2023-02-25T00:00:00	2024-11-08T10:00:00	5	Humedad	59
133853	7	Sololá	719	Santiago Atitlán	14	Cerro de Oro	2	Febrero	2023-02-25T00:00:00	2024-11-08T10:00:00	6	Velocidad del viento	3.2
133854	7	Sololá	719	Santiago Atitlán	14	Cerro de Oro	2	Febrero	2023-02-25T00:00:00	2024-11-08T10:00:00	7	Dirección del viento	3.22
133855	7	Sololá	719	Santiago Atitlán	14	Cerro de Oro	2	Febrero	2023-02-25T00:00:00	2024-11-08T10:00:00	1	Precipitación	0
133856	7	Sololá	719	Santiago Atitlán	14	Cerro de Oro	2	Febrero	2023-02-25T00:00:00	2024-11-08T10:00:00	8	Radiación solar	618
133857	7	Sololá	719	Santiago Atitlán	14	Cerro de Oro	2	Febrero	2023-02-25T00:00:00	2024-11-08T11:00:00	2	Temperatura media	22.8
133858	7	Sololá	719	Santiago Atitlán	14	Cerro de Oro	2	Febrero	2023-02-25T00:00:00	2024-11-08T11:00:00	4	Temperatura máxima	22.9
133859	7	Sololá	719	Santiago Atitlán	14	Cerro de Oro	2	Febrero	2023-02-25T00:00:00	2024-11-08T11:00:00	3	Temperatura mínima	21.2
133860	7	Sololá	719	Santiago Atitlán	14	Cerro de Oro	2	Febrero	2023-02-25T00:00:00	2024-11-08T11:00:00	5	Humedad	57
133861	7	Sololá	719	Santiago Atitlán	14	Cerro de Oro	2	Febrero	2023-02-25T00:00:00	2024-11-08T11:00:00	6	Velocidad del viento	4.8
133862	7	Sololá	719	Santiago Atitlán	14	Cerro de Oro	2	Febrero	2023-02-25T00:00:00	2024-11-08T11:00:00	7	Dirección del viento	4.83
133863	7	Sololá	719	Santiago Atitlán	14	Cerro de Oro	2	Febrero	2023-02-25T00:00:00	2024-11-08T11:00:00	1	Precipitación	0
133864	7	Sololá	719	Santiago Atitlán	14	Cerro de Oro	2	Febrero	2023-02-25T00:00:00	2024-11-08T11:00:00	8	Radiación solar	777
133865	7	Sololá	719	Santiago Atitlán	14	Cerro de Oro	2	Febrero	2023-02-25T00:00:00	2024-11-08T12:00:00	2	Temperatura media	22.9
133866	7	Sololá	719	Santiago Atitlán	14	Cerro de Oro	2	Febrero	2023-02-25T00:00:00	2024-11-08T12:00:00	4	Temperatura máxima	23
133867	7	Sololá	719	Santiago Atitlán	14	Cerro de Oro	2	Febrero	2023-02-25T00:00:00	2024-11-08T12:00:00	3	Temperatura mínima	21.9
133868	7	Sololá	719	Santiago Atitlán	14	Cerro de Oro	2	Febrero	2023-02-25T00:00:00	2024-11-08T12:00:00	5	Humedad	53
133869	7	Sololá	719	Santiago Atitlán	14	Cerro de Oro	2	Febrero	2023-02-25T00:00:00	2024-11-08T12:00:00	6	Velocidad del viento	4.8
133870	7	Sololá	719	Santiago Atitlán	14	Cerro de Oro	2	Febrero	2023-02-25T00:00:00	2024-11-08T12:00:00	7	Dirección del viento	4.83
133871	7	Sololá	719	Santiago Atitlán	14	Cerro de Oro	2	Febrero	2023-02-25T00:00:00	2024-11-08T12:00:00	1	Precipitación	0
133872	7	Sololá	719	Santiago Atitlán	14	Cerro de Oro	2	Febrero	2023-02-25T00:00:00	2024-11-08T12:00:00	8	Radiación solar	868
133873	7	Sololá	719	Santiago Atitlán	14	Cerro de Oro	2	Febrero	2023-02-25T00:00:00	2024-11-08T13:00:00	2	Temperatura media	24.6
133874	7	Sololá	719	Santiago Atitlán	14	Cerro de Oro	2	Febrero	2023-02-25T00:00:00	2024-11-08T13:00:00	4	Temperatura máxima	25.6
133875	7	Sololá	719	Santiago Atitlán	14	Cerro de Oro	2	Febrero	2023-02-25T00:00:00	2024-11-08T13:00:00	3	Temperatura mínima	22.8
133876	7	Sololá	719	Santiago Atitlán	14	Cerro de Oro	2	Febrero	2023-02-25T00:00:00	2024-11-08T13:00:00	5	Humedad	64
133877	7	Sololá	719	Santiago Atitlán	14	Cerro de Oro	2	Febrero	2023-02-25T00:00:00	2024-11-08T13:00:00	6	Velocidad del viento	9.7
133878	7	Sololá	719	Santiago Atitlán	14	Cerro de Oro	2	Febrero	2023-02-25T00:00:00	2024-11-08T13:00:00	7	Dirección del viento	9.66
133879	7	Sololá	719	Santiago Atitlán	14	Cerro de Oro	2	Febrero	2023-02-25T00:00:00	2024-11-08T13:00:00	1	Precipitación	0
133880	7	Sololá	719	Santiago Atitlán	14	Cerro de Oro	2	Febrero	2023-02-25T00:00:00	2024-11-08T13:00:00	8	Radiación solar	881
133881	7	Sololá	719	Santiago Atitlán	14	Cerro de Oro	2	Febrero	2023-02-25T00:00:00	2024-11-08T14:00:00	2	Temperatura media	23.8
133882	7	Sololá	719	Santiago Atitlán	14	Cerro de Oro	2	Febrero	2023-02-25T00:00:00	2024-11-08T14:00:00	4	Temperatura máxima	24.6
133883	7	Sololá	719	Santiago Atitlán	14	Cerro de Oro	2	Febrero	2023-02-25T00:00:00	2024-11-08T14:00:00	3	Temperatura mínima	23.6
133884	7	Sololá	719	Santiago Atitlán	14	Cerro de Oro	2	Febrero	2023-02-25T00:00:00	2024-11-08T14:00:00	5	Humedad	63
133885	7	Sololá	719	Santiago Atitlán	14	Cerro de Oro	2	Febrero	2023-02-25T00:00:00	2024-11-08T14:00:00	6	Velocidad del viento	14.5
133886	7	Sololá	719	Santiago Atitlán	14	Cerro de Oro	2	Febrero	2023-02-25T00:00:00	2024-11-08T14:00:00	7	Dirección del viento	14.48
133887	7	Sololá	719	Santiago Atitlán	14	Cerro de Oro	2	Febrero	2023-02-25T00:00:00	2024-11-08T14:00:00	1	Precipitación	0
133888	7	Sololá	719	Santiago Atitlán	14	Cerro de Oro	2	Febrero	2023-02-25T00:00:00	2024-11-08T14:00:00	8	Radiación solar	820
133889	7	Sololá	719	Santiago Atitlán	14	Cerro de Oro	2	Febrero	2023-02-25T00:00:00	2024-11-08T15:00:00	2	Temperatura media	23.6
133890	7	Sololá	719	Santiago Atitlán	14	Cerro de Oro	2	Febrero	2023-02-25T00:00:00	2024-11-08T15:00:00	4	Temperatura máxima	24.4
133891	7	Sololá	719	Santiago Atitlán	14	Cerro de Oro	2	Febrero	2023-02-25T00:00:00	2024-11-08T15:00:00	3	Temperatura mínima	23.6
133892	7	Sololá	719	Santiago Atitlán	14	Cerro de Oro	2	Febrero	2023-02-25T00:00:00	2024-11-08T15:00:00	5	Humedad	66
133893	7	Sololá	719	Santiago Atitlán	14	Cerro de Oro	2	Febrero	2023-02-25T00:00:00	2024-11-08T15:00:00	6	Velocidad del viento	14.5
133894	7	Sololá	719	Santiago Atitlán	14	Cerro de Oro	2	Febrero	2023-02-25T00:00:00	2024-11-08T15:00:00	7	Dirección del viento	14.48
133895	7	Sololá	719	Santiago Atitlán	14	Cerro de Oro	2	Febrero	2023-02-25T00:00:00	2024-11-08T15:00:00	1	Precipitación	0
133896	7	Sololá	719	Santiago Atitlán	14	Cerro de Oro	2	Febrero	2023-02-25T00:00:00	2024-11-08T15:00:00	8	Radiación solar	697
133897	7	Sololá	719	Santiago Atitlán	14	Cerro de Oro	2	Febrero	2023-02-25T00:00:00	2024-11-08T16:00:00	2	Temperatura media	23.3
133898	7	Sololá	719	Santiago Atitlán	14	Cerro de Oro	2	Febrero	2023-02-25T00:00:00	2024-11-08T16:00:00	4	Temperatura máxima	23.8
133899	7	Sololá	719	Santiago Atitlán	14	Cerro de Oro	2	Febrero	2023-02-25T00:00:00	2024-11-08T16:00:00	3	Temperatura mínima	23.3
133900	7	Sololá	719	Santiago Atitlán	14	Cerro de Oro	2	Febrero	2023-02-25T00:00:00	2024-11-08T16:00:00	5	Humedad	68
133901	7	Sololá	719	Santiago Atitlán	14	Cerro de Oro	2	Febrero	2023-02-25T00:00:00	2024-11-08T16:00:00	6	Velocidad del viento	12.9
133902	7	Sololá	719	Santiago Atitlán	14	Cerro de Oro	2	Febrero	2023-02-25T00:00:00	2024-11-08T16:00:00	7	Dirección del viento	12.87
133903	7	Sololá	719	Santiago Atitlán	14	Cerro de Oro	2	Febrero	2023-02-25T00:00:00	2024-11-08T16:00:00	1	Precipitación	0
133904	7	Sololá	719	Santiago Atitlán	14	Cerro de Oro	2	Febrero	2023-02-25T00:00:00	2024-11-08T16:00:00	8	Radiación solar	515
133905	7	Sololá	719	Santiago Atitlán	14	Cerro de Oro	2	Febrero	2023-02-25T00:00:00	2024-11-08T17:00:00	2	Temperatura media	21.8
133906	7	Sololá	719	Santiago Atitlán	14	Cerro de Oro	2	Febrero	2023-02-25T00:00:00	2024-11-08T17:00:00	4	Temperatura máxima	23.3
133907	7	Sololá	719	Santiago Atitlán	14	Cerro de Oro	2	Febrero	2023-02-25T00:00:00	2024-11-08T17:00:00	3	Temperatura mínima	21.8
133908	7	Sololá	719	Santiago Atitlán	14	Cerro de Oro	2	Febrero	2023-02-25T00:00:00	2024-11-08T17:00:00	5	Humedad	74
133909	7	Sololá	719	Santiago Atitlán	14	Cerro de Oro	2	Febrero	2023-02-25T00:00:00	2024-11-08T17:00:00	6	Velocidad del viento	11.3
133910	7	Sololá	719	Santiago Atitlán	14	Cerro de Oro	2	Febrero	2023-02-25T00:00:00	2024-11-08T17:00:00	7	Dirección del viento	11.27
133911	7	Sololá	719	Santiago Atitlán	14	Cerro de Oro	2	Febrero	2023-02-25T00:00:00	2024-11-08T17:00:00	1	Precipitación	0
133912	7	Sololá	719	Santiago Atitlán	14	Cerro de Oro	2	Febrero	2023-02-25T00:00:00	2024-11-08T17:00:00	8	Radiación solar	261
133913	7	Sololá	719	Santiago Atitlán	14	Cerro de Oro	2	Febrero	2023-02-25T00:00:00	2024-11-08T18:00:00	2	Temperatura media	19.8
133914	7	Sololá	719	Santiago Atitlán	14	Cerro de Oro	2	Febrero	2023-02-25T00:00:00	2024-11-08T18:00:00	4	Temperatura máxima	21.8
133915	7	Sololá	719	Santiago Atitlán	14	Cerro de Oro	2	Febrero	2023-02-25T00:00:00	2024-11-08T18:00:00	3	Temperatura mínima	19.8
133916	7	Sololá	719	Santiago Atitlán	14	Cerro de Oro	2	Febrero	2023-02-25T00:00:00	2024-11-08T18:00:00	5	Humedad	81
133917	7	Sololá	719	Santiago Atitlán	14	Cerro de Oro	2	Febrero	2023-02-25T00:00:00	2024-11-08T18:00:00	6	Velocidad del viento	8
133918	7	Sololá	719	Santiago Atitlán	14	Cerro de Oro	2	Febrero	2023-02-25T00:00:00	2024-11-08T18:00:00	7	Dirección del viento	8.05
133919	7	Sololá	719	Santiago Atitlán	14	Cerro de Oro	2	Febrero	2023-02-25T00:00:00	2024-11-08T18:00:00	1	Precipitación	0
133920	7	Sololá	719	Santiago Atitlán	14	Cerro de Oro	2	Febrero	2023-02-25T00:00:00	2024-11-08T18:00:00	8	Radiación solar	51
133921	7	Sololá	719	Santiago Atitlán	14	Cerro de Oro	2	Febrero	2023-02-25T00:00:00	2024-11-08T19:00:00	2	Temperatura media	20.4
133922	7	Sololá	719	Santiago Atitlán	14	Cerro de Oro	2	Febrero	2023-02-25T00:00:00	2024-11-08T19:00:00	4	Temperatura máxima	20.4
133923	7	Sololá	719	Santiago Atitlán	14	Cerro de Oro	2	Febrero	2023-02-25T00:00:00	2024-11-08T19:00:00	3	Temperatura mínima	19.3
133924	7	Sololá	719	Santiago Atitlán	14	Cerro de Oro	2	Febrero	2023-02-25T00:00:00	2024-11-08T19:00:00	5	Humedad	68
133925	7	Sololá	719	Santiago Atitlán	14	Cerro de Oro	2	Febrero	2023-02-25T00:00:00	2024-11-08T19:00:00	6	Velocidad del viento	4.8
133926	7	Sololá	719	Santiago Atitlán	14	Cerro de Oro	2	Febrero	2023-02-25T00:00:00	2024-11-08T19:00:00	7	Dirección del viento	4.83
133927	7	Sololá	719	Santiago Atitlán	14	Cerro de Oro	2	Febrero	2023-02-25T00:00:00	2024-11-08T19:00:00	1	Precipitación	0
133928	7	Sololá	719	Santiago Atitlán	14	Cerro de Oro	2	Febrero	2023-02-25T00:00:00	2024-11-08T19:00:00	8	Radiación solar	0
133929	7	Sololá	719	Santiago Atitlán	14	Cerro de Oro	2	Febrero	2023-02-25T00:00:00	2024-11-08T20:00:00	2	Temperatura media	19.8
133930	7	Sololá	719	Santiago Atitlán	14	Cerro de Oro	2	Febrero	2023-02-25T00:00:00	2024-11-08T20:00:00	4	Temperatura máxima	20.4
133931	7	Sololá	719	Santiago Atitlán	14	Cerro de Oro	2	Febrero	2023-02-25T00:00:00	2024-11-08T20:00:00	3	Temperatura mínima	19.8
133932	7	Sololá	719	Santiago Atitlán	14	Cerro de Oro	2	Febrero	2023-02-25T00:00:00	2024-11-08T20:00:00	5	Humedad	64
133933	7	Sololá	719	Santiago Atitlán	14	Cerro de Oro	2	Febrero	2023-02-25T00:00:00	2024-11-08T20:00:00	6	Velocidad del viento	6.4
133934	7	Sololá	719	Santiago Atitlán	14	Cerro de Oro	2	Febrero	2023-02-25T00:00:00	2024-11-08T20:00:00	7	Dirección del viento	6.44
133935	7	Sololá	719	Santiago Atitlán	14	Cerro de Oro	2	Febrero	2023-02-25T00:00:00	2024-11-08T20:00:00	1	Precipitación	0
133936	7	Sololá	719	Santiago Atitlán	14	Cerro de Oro	2	Febrero	2023-02-25T00:00:00	2024-11-08T20:00:00	8	Radiación solar	0
133937	7	Sololá	719	Santiago Atitlán	14	Cerro de Oro	2	Febrero	2023-02-25T00:00:00	2024-11-08T21:00:00	2	Temperatura media	19.5
133938	7	Sololá	719	Santiago Atitlán	14	Cerro de Oro	2	Febrero	2023-02-25T00:00:00	2024-11-08T21:00:00	4	Temperatura máxima	19.8
133939	7	Sololá	719	Santiago Atitlán	14	Cerro de Oro	2	Febrero	2023-02-25T00:00:00	2024-11-08T21:00:00	3	Temperatura mínima	18.4
133940	7	Sololá	719	Santiago Atitlán	14	Cerro de Oro	2	Febrero	2023-02-25T00:00:00	2024-11-08T21:00:00	5	Humedad	65
133941	7	Sololá	719	Santiago Atitlán	14	Cerro de Oro	2	Febrero	2023-02-25T00:00:00	2024-11-08T21:00:00	6	Velocidad del viento	8
133942	7	Sololá	719	Santiago Atitlán	14	Cerro de Oro	2	Febrero	2023-02-25T00:00:00	2024-11-08T21:00:00	7	Dirección del viento	8.05
133943	7	Sololá	719	Santiago Atitlán	14	Cerro de Oro	2	Febrero	2023-02-25T00:00:00	2024-11-08T21:00:00	1	Precipitación	0
133944	7	Sololá	719	Santiago Atitlán	14	Cerro de Oro	2	Febrero	2023-02-25T00:00:00	2024-11-08T21:00:00	8	Radiación solar	0
133945	7	Sololá	719	Santiago Atitlán	14	Cerro de Oro	2	Febrero	2023-02-25T00:00:00	2024-11-08T22:00:00	2	Temperatura media	18.8
133946	7	Sololá	719	Santiago Atitlán	14	Cerro de Oro	2	Febrero	2023-02-25T00:00:00	2024-11-08T22:00:00	4	Temperatura máxima	19.5
133947	7	Sololá	719	Santiago Atitlán	14	Cerro de Oro	2	Febrero	2023-02-25T00:00:00	2024-11-08T22:00:00	3	Temperatura mínima	18.7
133948	7	Sololá	719	Santiago Atitlán	14	Cerro de Oro	2	Febrero	2023-02-25T00:00:00	2024-11-08T22:00:00	5	Humedad	68
133949	7	Sololá	719	Santiago Atitlán	14	Cerro de Oro	2	Febrero	2023-02-25T00:00:00	2024-11-08T22:00:00	6	Velocidad del viento	9.7
133950	7	Sololá	719	Santiago Atitlán	14	Cerro de Oro	2	Febrero	2023-02-25T00:00:00	2024-11-08T22:00:00	7	Dirección del viento	9.66
133951	7	Sololá	719	Santiago Atitlán	14	Cerro de Oro	2	Febrero	2023-02-25T00:00:00	2024-11-08T22:00:00	1	Precipitación	0
133952	7	Sololá	719	Santiago Atitlán	14	Cerro de Oro	2	Febrero	2023-02-25T00:00:00	2024-11-08T22:00:00	8	Radiación solar	0
133953	7	Sololá	719	Santiago Atitlán	14	Cerro de Oro	2	Febrero	2023-02-25T00:00:00	2024-11-08T23:00:00	2	Temperatura media	17.8
133954	7	Sololá	719	Santiago Atitlán	14	Cerro de Oro	2	Febrero	2023-02-25T00:00:00	2024-11-08T23:00:00	4	Temperatura máxima	18.8
133955	7	Sololá	719	Santiago Atitlán	14	Cerro de Oro	2	Febrero	2023-02-25T00:00:00	2024-11-08T23:00:00	3	Temperatura mínima	17.8
133956	7	Sololá	719	Santiago Atitlán	14	Cerro de Oro	2	Febrero	2023-02-25T00:00:00	2024-11-08T23:00:00	5	Humedad	68
133957	7	Sololá	719	Santiago Atitlán	14	Cerro de Oro	2	Febrero	2023-02-25T00:00:00	2024-11-08T23:00:00	6	Velocidad del viento	6.4
133958	7	Sololá	719	Santiago Atitlán	14	Cerro de Oro	2	Febrero	2023-02-25T00:00:00	2024-11-08T23:00:00	7	Dirección del viento	6.44
133959	7	Sololá	719	Santiago Atitlán	14	Cerro de Oro	2	Febrero	2023-02-25T00:00:00	2024-11-08T23:00:00	1	Precipitación	0
133960	7	Sololá	719	Santiago Atitlán	14	Cerro de Oro	2	Febrero	2023-02-25T00:00:00	2024-11-08T23:00:00	8	Radiación solar	0
133961	7	Sololá	719	Santiago Atitlán	14	Cerro de Oro	2	Febrero	2023-02-26T00:00:00	2024-11-08T00:00:00	2	Temperatura media	17.6
133962	7	Sololá	719	Santiago Atitlán	14	Cerro de Oro	2	Febrero	2023-02-26T00:00:00	2024-11-08T00:00:00	4	Temperatura máxima	17.8
133963	7	Sololá	719	Santiago Atitlán	14	Cerro de Oro	2	Febrero	2023-02-26T00:00:00	2024-11-08T00:00:00	3	Temperatura mínima	16.4
133964	7	Sololá	719	Santiago Atitlán	14	Cerro de Oro	2	Febrero	2023-02-26T00:00:00	2024-11-08T00:00:00	5	Humedad	70
133965	7	Sololá	719	Santiago Atitlán	14	Cerro de Oro	2	Febrero	2023-02-26T00:00:00	2024-11-08T00:00:00	6	Velocidad del viento	6.4
133966	7	Sololá	719	Santiago Atitlán	14	Cerro de Oro	2	Febrero	2023-02-26T00:00:00	2024-11-08T00:00:00	7	Dirección del viento	6.44
133967	7	Sololá	719	Santiago Atitlán	14	Cerro de Oro	2	Febrero	2023-02-26T00:00:00	2024-11-08T00:00:00	1	Precipitación	0
133968	7	Sololá	719	Santiago Atitlán	14	Cerro de Oro	2	Febrero	2023-02-26T00:00:00	2024-11-08T00:00:00	8	Radiación solar	0
133969	7	Sololá	719	Santiago Atitlán	14	Cerro de Oro	2	Febrero	2023-02-26T00:00:00	2024-11-08T01:00:00	2	Temperatura media	17.4
133970	7	Sololá	719	Santiago Atitlán	14	Cerro de Oro	2	Febrero	2023-02-26T00:00:00	2024-11-08T01:00:00	4	Temperatura máxima	17.7
133971	7	Sololá	719	Santiago Atitlán	14	Cerro de Oro	2	Febrero	2023-02-26T00:00:00	2024-11-08T01:00:00	3	Temperatura mínima	17.4
133972	7	Sololá	719	Santiago Atitlán	14	Cerro de Oro	2	Febrero	2023-02-26T00:00:00	2024-11-08T01:00:00	5	Humedad	70
133973	7	Sololá	719	Santiago Atitlán	14	Cerro de Oro	2	Febrero	2023-02-26T00:00:00	2024-11-08T01:00:00	6	Velocidad del viento	9.7
133974	7	Sololá	719	Santiago Atitlán	14	Cerro de Oro	2	Febrero	2023-02-26T00:00:00	2024-11-08T01:00:00	7	Dirección del viento	9.66
133975	7	Sololá	719	Santiago Atitlán	14	Cerro de Oro	2	Febrero	2023-02-26T00:00:00	2024-11-08T01:00:00	1	Precipitación	0
133976	7	Sololá	719	Santiago Atitlán	14	Cerro de Oro	2	Febrero	2023-02-26T00:00:00	2024-11-08T01:00:00	8	Radiación solar	0
133977	7	Sololá	719	Santiago Atitlán	14	Cerro de Oro	2	Febrero	2023-02-26T00:00:00	2024-11-08T02:00:00	2	Temperatura media	15.5
133978	7	Sololá	719	Santiago Atitlán	14	Cerro de Oro	2	Febrero	2023-02-26T00:00:00	2024-11-08T02:00:00	4	Temperatura máxima	17.4
133979	7	Sololá	719	Santiago Atitlán	14	Cerro de Oro	2	Febrero	2023-02-26T00:00:00	2024-11-08T02:00:00	3	Temperatura mínima	15.4
133980	7	Sololá	719	Santiago Atitlán	14	Cerro de Oro	2	Febrero	2023-02-26T00:00:00	2024-11-08T02:00:00	5	Humedad	71
133981	7	Sololá	719	Santiago Atitlán	14	Cerro de Oro	2	Febrero	2023-02-26T00:00:00	2024-11-08T02:00:00	6	Velocidad del viento	4.8
133982	7	Sololá	719	Santiago Atitlán	14	Cerro de Oro	2	Febrero	2023-02-26T00:00:00	2024-11-08T02:00:00	7	Dirección del viento	4.83
133983	7	Sololá	719	Santiago Atitlán	14	Cerro de Oro	2	Febrero	2023-02-26T00:00:00	2024-11-08T02:00:00	1	Precipitación	0
133984	7	Sololá	719	Santiago Atitlán	14	Cerro de Oro	2	Febrero	2023-02-26T00:00:00	2024-11-08T02:00:00	8	Radiación solar	0
133985	7	Sololá	719	Santiago Atitlán	14	Cerro de Oro	2	Febrero	2023-02-26T00:00:00	2024-11-08T03:00:00	2	Temperatura media	16.1
133986	7	Sololá	719	Santiago Atitlán	14	Cerro de Oro	2	Febrero	2023-02-26T00:00:00	2024-11-08T03:00:00	4	Temperatura máxima	16.1
133987	7	Sololá	719	Santiago Atitlán	14	Cerro de Oro	2	Febrero	2023-02-26T00:00:00	2024-11-08T03:00:00	3	Temperatura mínima	15
133988	7	Sololá	719	Santiago Atitlán	14	Cerro de Oro	2	Febrero	2023-02-26T00:00:00	2024-11-08T03:00:00	5	Humedad	72
133989	7	Sololá	719	Santiago Atitlán	14	Cerro de Oro	2	Febrero	2023-02-26T00:00:00	2024-11-08T03:00:00	6	Velocidad del viento	4.8
133990	7	Sololá	719	Santiago Atitlán	14	Cerro de Oro	2	Febrero	2023-02-26T00:00:00	2024-11-08T03:00:00	7	Dirección del viento	4.83
133991	7	Sololá	719	Santiago Atitlán	14	Cerro de Oro	2	Febrero	2023-02-26T00:00:00	2024-11-08T03:00:00	1	Precipitación	0
133992	7	Sololá	719	Santiago Atitlán	14	Cerro de Oro	2	Febrero	2023-02-26T00:00:00	2024-11-08T03:00:00	8	Radiación solar	0
133993	7	Sololá	719	Santiago Atitlán	14	Cerro de Oro	2	Febrero	2023-02-26T00:00:00	2024-11-08T04:00:00	2	Temperatura media	16.7
133994	7	Sololá	719	Santiago Atitlán	14	Cerro de Oro	2	Febrero	2023-02-26T00:00:00	2024-11-08T04:00:00	4	Temperatura máxima	16.8
133995	7	Sololá	719	Santiago Atitlán	14	Cerro de Oro	2	Febrero	2023-02-26T00:00:00	2024-11-08T04:00:00	3	Temperatura mínima	16.1
133996	7	Sololá	719	Santiago Atitlán	14	Cerro de Oro	2	Febrero	2023-02-26T00:00:00	2024-11-08T04:00:00	5	Humedad	70
133997	7	Sololá	719	Santiago Atitlán	14	Cerro de Oro	2	Febrero	2023-02-26T00:00:00	2024-11-08T04:00:00	6	Velocidad del viento	9.7
133998	7	Sololá	719	Santiago Atitlán	14	Cerro de Oro	2	Febrero	2023-02-26T00:00:00	2024-11-08T04:00:00	7	Dirección del viento	9.66
133999	7	Sololá	719	Santiago Atitlán	14	Cerro de Oro	2	Febrero	2023-02-26T00:00:00	2024-11-08T04:00:00	1	Precipitación	0
134000	7	Sololá	719	Santiago Atitlán	14	Cerro de Oro	2	Febrero	2023-02-26T00:00:00	2024-11-08T04:00:00	8	Radiación solar	0
134001	7	Sololá	719	Santiago Atitlán	14	Cerro de Oro	2	Febrero	2023-02-26T00:00:00	2024-11-08T05:00:00	2	Temperatura media	14.9
134002	7	Sololá	719	Santiago Atitlán	14	Cerro de Oro	2	Febrero	2023-02-26T00:00:00	2024-11-08T05:00:00	4	Temperatura máxima	16.7
134003	7	Sololá	719	Santiago Atitlán	14	Cerro de Oro	2	Febrero	2023-02-26T00:00:00	2024-11-08T05:00:00	3	Temperatura mínima	14.9
134004	7	Sololá	719	Santiago Atitlán	14	Cerro de Oro	2	Febrero	2023-02-26T00:00:00	2024-11-08T05:00:00	5	Humedad	70
134005	7	Sololá	719	Santiago Atitlán	14	Cerro de Oro	2	Febrero	2023-02-26T00:00:00	2024-11-08T05:00:00	6	Velocidad del viento	4.8
134006	7	Sololá	719	Santiago Atitlán	14	Cerro de Oro	2	Febrero	2023-02-26T00:00:00	2024-11-08T05:00:00	7	Dirección del viento	4.83
134007	7	Sololá	719	Santiago Atitlán	14	Cerro de Oro	2	Febrero	2023-02-26T00:00:00	2024-11-08T05:00:00	1	Precipitación	0
134008	7	Sololá	719	Santiago Atitlán	14	Cerro de Oro	2	Febrero	2023-02-26T00:00:00	2024-11-08T05:00:00	8	Radiación solar	0
134009	7	Sololá	719	Santiago Atitlán	14	Cerro de Oro	2	Febrero	2023-02-26T00:00:00	2024-11-08T06:00:00	2	Temperatura media	14.5
134010	7	Sololá	719	Santiago Atitlán	14	Cerro de Oro	2	Febrero	2023-02-26T00:00:00	2024-11-08T06:00:00	4	Temperatura máxima	15
134011	7	Sololá	719	Santiago Atitlán	14	Cerro de Oro	2	Febrero	2023-02-26T00:00:00	2024-11-08T06:00:00	3	Temperatura mínima	14.4
134012	7	Sololá	719	Santiago Atitlán	14	Cerro de Oro	2	Febrero	2023-02-26T00:00:00	2024-11-08T06:00:00	5	Humedad	69
134013	7	Sololá	719	Santiago Atitlán	14	Cerro de Oro	2	Febrero	2023-02-26T00:00:00	2024-11-08T06:00:00	6	Velocidad del viento	4.8
134014	7	Sololá	719	Santiago Atitlán	14	Cerro de Oro	2	Febrero	2023-02-26T00:00:00	2024-11-08T06:00:00	7	Dirección del viento	4.83
134015	7	Sololá	719	Santiago Atitlán	14	Cerro de Oro	2	Febrero	2023-02-26T00:00:00	2024-11-08T06:00:00	1	Precipitación	0
134016	7	Sololá	719	Santiago Atitlán	14	Cerro de Oro	2	Febrero	2023-02-26T00:00:00	2024-11-08T06:00:00	8	Radiación solar	0
134017	7	Sololá	719	Santiago Atitlán	14	Cerro de Oro	2	Febrero	2023-02-26T00:00:00	2024-11-08T07:00:00	2	Temperatura media	15.8
134018	7	Sololá	719	Santiago Atitlán	14	Cerro de Oro	2	Febrero	2023-02-26T00:00:00	2024-11-08T07:00:00	4	Temperatura máxima	15.8
134019	7	Sololá	719	Santiago Atitlán	14	Cerro de Oro	2	Febrero	2023-02-26T00:00:00	2024-11-08T07:00:00	3	Temperatura mínima	14.3
134020	7	Sololá	719	Santiago Atitlán	14	Cerro de Oro	2	Febrero	2023-02-26T00:00:00	2024-11-08T07:00:00	5	Humedad	66
134021	7	Sololá	719	Santiago Atitlán	14	Cerro de Oro	2	Febrero	2023-02-26T00:00:00	2024-11-08T07:00:00	6	Velocidad del viento	4.8
134022	7	Sololá	719	Santiago Atitlán	14	Cerro de Oro	2	Febrero	2023-02-26T00:00:00	2024-11-08T07:00:00	7	Dirección del viento	4.83
134023	7	Sololá	719	Santiago Atitlán	14	Cerro de Oro	2	Febrero	2023-02-26T00:00:00	2024-11-08T07:00:00	1	Precipitación	0
134024	7	Sololá	719	Santiago Atitlán	14	Cerro de Oro	2	Febrero	2023-02-26T00:00:00	2024-11-08T07:00:00	8	Radiación solar	15
134025	7	Sololá	719	Santiago Atitlán	14	Cerro de Oro	2	Febrero	2023-02-26T00:00:00	2024-11-08T08:00:00	2	Temperatura media	18.2
134026	7	Sololá	719	Santiago Atitlán	14	Cerro de Oro	2	Febrero	2023-02-26T00:00:00	2024-11-08T08:00:00	4	Temperatura máxima	18.4
134027	7	Sololá	719	Santiago Atitlán	14	Cerro de Oro	2	Febrero	2023-02-26T00:00:00	2024-11-08T08:00:00	3	Temperatura mínima	15.8
134028	7	Sololá	719	Santiago Atitlán	14	Cerro de Oro	2	Febrero	2023-02-26T00:00:00	2024-11-08T08:00:00	5	Humedad	60
134029	7	Sololá	719	Santiago Atitlán	14	Cerro de Oro	2	Febrero	2023-02-26T00:00:00	2024-11-08T08:00:00	6	Velocidad del viento	3.2
134030	7	Sololá	719	Santiago Atitlán	14	Cerro de Oro	2	Febrero	2023-02-26T00:00:00	2024-11-08T08:00:00	7	Dirección del viento	3.22
134031	7	Sololá	719	Santiago Atitlán	14	Cerro de Oro	2	Febrero	2023-02-26T00:00:00	2024-11-08T08:00:00	1	Precipitación	0
134032	7	Sololá	719	Santiago Atitlán	14	Cerro de Oro	2	Febrero	2023-02-26T00:00:00	2024-11-08T08:00:00	8	Radiación solar	185
134033	7	Sololá	719	Santiago Atitlán	14	Cerro de Oro	2	Febrero	2023-02-26T00:00:00	2024-11-08T09:00:00	2	Temperatura media	19.7
134034	7	Sololá	719	Santiago Atitlán	14	Cerro de Oro	2	Febrero	2023-02-26T00:00:00	2024-11-08T09:00:00	4	Temperatura máxima	19.7
134035	7	Sololá	719	Santiago Atitlán	14	Cerro de Oro	2	Febrero	2023-02-26T00:00:00	2024-11-08T09:00:00	3	Temperatura mínima	18.2
134036	7	Sololá	719	Santiago Atitlán	14	Cerro de Oro	2	Febrero	2023-02-26T00:00:00	2024-11-08T09:00:00	5	Humedad	54
134037	7	Sololá	719	Santiago Atitlán	14	Cerro de Oro	2	Febrero	2023-02-26T00:00:00	2024-11-08T09:00:00	6	Velocidad del viento	3.2
134038	7	Sololá	719	Santiago Atitlán	14	Cerro de Oro	2	Febrero	2023-02-26T00:00:00	2024-11-08T09:00:00	7	Dirección del viento	3.22
134039	7	Sololá	719	Santiago Atitlán	14	Cerro de Oro	2	Febrero	2023-02-26T00:00:00	2024-11-08T09:00:00	1	Precipitación	0
134040	7	Sololá	719	Santiago Atitlán	14	Cerro de Oro	2	Febrero	2023-02-26T00:00:00	2024-11-08T09:00:00	8	Radiación solar	425
134041	7	Sololá	719	Santiago Atitlán	14	Cerro de Oro	2	Febrero	2023-02-26T00:00:00	2024-11-08T10:00:00	2	Temperatura media	21.3
134042	7	Sololá	719	Santiago Atitlán	14	Cerro de Oro	2	Febrero	2023-02-26T00:00:00	2024-11-08T10:00:00	4	Temperatura máxima	21.3
134043	7	Sololá	719	Santiago Atitlán	14	Cerro de Oro	2	Febrero	2023-02-26T00:00:00	2024-11-08T10:00:00	3	Temperatura mínima	19.8
134044	7	Sololá	719	Santiago Atitlán	14	Cerro de Oro	2	Febrero	2023-02-26T00:00:00	2024-11-08T10:00:00	5	Humedad	50
134045	7	Sololá	719	Santiago Atitlán	14	Cerro de Oro	2	Febrero	2023-02-26T00:00:00	2024-11-08T10:00:00	6	Velocidad del viento	3.2
134046	7	Sololá	719	Santiago Atitlán	14	Cerro de Oro	2	Febrero	2023-02-26T00:00:00	2024-11-08T10:00:00	7	Dirección del viento	3.22
134047	7	Sololá	719	Santiago Atitlán	14	Cerro de Oro	2	Febrero	2023-02-26T00:00:00	2024-11-08T10:00:00	1	Precipitación	0
134048	7	Sololá	719	Santiago Atitlán	14	Cerro de Oro	2	Febrero	2023-02-26T00:00:00	2024-11-08T10:00:00	8	Radiación solar	632
134049	7	Sololá	719	Santiago Atitlán	14	Cerro de Oro	2	Febrero	2023-02-26T00:00:00	2024-11-08T11:00:00	2	Temperatura media	22.1
134050	7	Sololá	719	Santiago Atitlán	14	Cerro de Oro	2	Febrero	2023-02-26T00:00:00	2024-11-08T11:00:00	4	Temperatura máxima	22.3
134051	7	Sololá	719	Santiago Atitlán	14	Cerro de Oro	2	Febrero	2023-02-26T00:00:00	2024-11-08T11:00:00	3	Temperatura mínima	21.3
134052	7	Sololá	719	Santiago Atitlán	14	Cerro de Oro	2	Febrero	2023-02-26T00:00:00	2024-11-08T11:00:00	5	Humedad	54
134053	7	Sololá	719	Santiago Atitlán	14	Cerro de Oro	2	Febrero	2023-02-26T00:00:00	2024-11-08T11:00:00	6	Velocidad del viento	4.8
134054	7	Sololá	719	Santiago Atitlán	14	Cerro de Oro	2	Febrero	2023-02-26T00:00:00	2024-11-08T11:00:00	7	Dirección del viento	4.83
134055	7	Sololá	719	Santiago Atitlán	14	Cerro de Oro	2	Febrero	2023-02-26T00:00:00	2024-11-08T11:00:00	1	Precipitación	0
134056	7	Sololá	719	Santiago Atitlán	14	Cerro de Oro	2	Febrero	2023-02-26T00:00:00	2024-11-08T11:00:00	8	Radiación solar	783
134057	7	Sololá	719	Santiago Atitlán	14	Cerro de Oro	2	Febrero	2023-02-26T00:00:00	2024-11-08T12:00:00	2	Temperatura media	24.1
134058	7	Sololá	719	Santiago Atitlán	14	Cerro de Oro	2	Febrero	2023-02-26T00:00:00	2024-11-08T12:00:00	4	Temperatura máxima	24.4
134059	7	Sololá	719	Santiago Atitlán	14	Cerro de Oro	2	Febrero	2023-02-26T00:00:00	2024-11-08T12:00:00	3	Temperatura mínima	22
134060	7	Sololá	719	Santiago Atitlán	14	Cerro de Oro	2	Febrero	2023-02-26T00:00:00	2024-11-08T12:00:00	5	Humedad	58
134061	7	Sololá	719	Santiago Atitlán	14	Cerro de Oro	2	Febrero	2023-02-26T00:00:00	2024-11-08T12:00:00	6	Velocidad del viento	6.4
134062	7	Sololá	719	Santiago Atitlán	14	Cerro de Oro	2	Febrero	2023-02-26T00:00:00	2024-11-08T12:00:00	7	Dirección del viento	6.44
134063	7	Sololá	719	Santiago Atitlán	14	Cerro de Oro	2	Febrero	2023-02-26T00:00:00	2024-11-08T12:00:00	1	Precipitación	0
134064	7	Sololá	719	Santiago Atitlán	14	Cerro de Oro	2	Febrero	2023-02-26T00:00:00	2024-11-08T12:00:00	8	Radiación solar	871
134065	7	Sololá	719	Santiago Atitlán	14	Cerro de Oro	2	Febrero	2023-02-26T00:00:00	2024-11-08T13:00:00	2	Temperatura media	23.7
134066	7	Sololá	719	Santiago Atitlán	14	Cerro de Oro	2	Febrero	2023-02-26T00:00:00	2024-11-08T13:00:00	4	Temperatura máxima	24.2
134067	7	Sololá	719	Santiago Atitlán	14	Cerro de Oro	2	Febrero	2023-02-26T00:00:00	2024-11-08T13:00:00	3	Temperatura mínima	23.6
134068	7	Sololá	719	Santiago Atitlán	14	Cerro de Oro	2	Febrero	2023-02-26T00:00:00	2024-11-08T13:00:00	5	Humedad	62
134069	7	Sololá	719	Santiago Atitlán	14	Cerro de Oro	2	Febrero	2023-02-26T00:00:00	2024-11-08T13:00:00	6	Velocidad del viento	11.3
134070	7	Sololá	719	Santiago Atitlán	14	Cerro de Oro	2	Febrero	2023-02-26T00:00:00	2024-11-08T13:00:00	7	Dirección del viento	11.27
134071	7	Sololá	719	Santiago Atitlán	14	Cerro de Oro	2	Febrero	2023-02-26T00:00:00	2024-11-08T13:00:00	1	Precipitación	0
134072	7	Sololá	719	Santiago Atitlán	14	Cerro de Oro	2	Febrero	2023-02-26T00:00:00	2024-11-08T13:00:00	8	Radiación solar	885
134073	7	Sololá	719	Santiago Atitlán	14	Cerro de Oro	2	Febrero	2023-02-26T00:00:00	2024-11-08T14:00:00	2	Temperatura media	22.6
134074	7	Sololá	719	Santiago Atitlán	14	Cerro de Oro	2	Febrero	2023-02-26T00:00:00	2024-11-08T14:00:00	4	Temperatura máxima	23.7
134075	7	Sololá	719	Santiago Atitlán	14	Cerro de Oro	2	Febrero	2023-02-26T00:00:00	2024-11-08T14:00:00	3	Temperatura mínima	22.5
134076	7	Sololá	719	Santiago Atitlán	14	Cerro de Oro	2	Febrero	2023-02-26T00:00:00	2024-11-08T14:00:00	5	Humedad	67
134077	7	Sololá	719	Santiago Atitlán	14	Cerro de Oro	2	Febrero	2023-02-26T00:00:00	2024-11-08T14:00:00	6	Velocidad del viento	14.5
134078	7	Sololá	719	Santiago Atitlán	14	Cerro de Oro	2	Febrero	2023-02-26T00:00:00	2024-11-08T14:00:00	7	Dirección del viento	14.48
134079	7	Sololá	719	Santiago Atitlán	14	Cerro de Oro	2	Febrero	2023-02-26T00:00:00	2024-11-08T14:00:00	1	Precipitación	0
134080	7	Sololá	719	Santiago Atitlán	14	Cerro de Oro	2	Febrero	2023-02-26T00:00:00	2024-11-08T14:00:00	8	Radiación solar	830
134081	7	Sololá	719	Santiago Atitlán	14	Cerro de Oro	2	Febrero	2023-02-26T00:00:00	2024-11-08T15:00:00	2	Temperatura media	22.8
134082	7	Sololá	719	Santiago Atitlán	14	Cerro de Oro	2	Febrero	2023-02-26T00:00:00	2024-11-08T15:00:00	4	Temperatura máxima	23.2
134083	7	Sololá	719	Santiago Atitlán	14	Cerro de Oro	2	Febrero	2023-02-26T00:00:00	2024-11-08T15:00:00	3	Temperatura mínima	22.6
134084	7	Sololá	719	Santiago Atitlán	14	Cerro de Oro	2	Febrero	2023-02-26T00:00:00	2024-11-08T15:00:00	5	Humedad	66
134085	7	Sololá	719	Santiago Atitlán	14	Cerro de Oro	2	Febrero	2023-02-26T00:00:00	2024-11-08T15:00:00	6	Velocidad del viento	12.9
134086	7	Sololá	719	Santiago Atitlán	14	Cerro de Oro	2	Febrero	2023-02-26T00:00:00	2024-11-08T15:00:00	7	Dirección del viento	12.87
134087	7	Sololá	719	Santiago Atitlán	14	Cerro de Oro	2	Febrero	2023-02-26T00:00:00	2024-11-08T15:00:00	1	Precipitación	0
134088	7	Sololá	719	Santiago Atitlán	14	Cerro de Oro	2	Febrero	2023-02-26T00:00:00	2024-11-08T15:00:00	8	Radiación solar	717
134089	7	Sololá	719	Santiago Atitlán	14	Cerro de Oro	2	Febrero	2023-02-26T00:00:00	2024-11-08T16:00:00	2	Temperatura media	21.2
134090	7	Sololá	719	Santiago Atitlán	14	Cerro de Oro	2	Febrero	2023-02-26T00:00:00	2024-11-08T16:00:00	4	Temperatura máxima	22.7
134091	7	Sololá	719	Santiago Atitlán	14	Cerro de Oro	2	Febrero	2023-02-26T00:00:00	2024-11-08T16:00:00	3	Temperatura mínima	21.2
134092	7	Sololá	719	Santiago Atitlán	14	Cerro de Oro	2	Febrero	2023-02-26T00:00:00	2024-11-08T16:00:00	5	Humedad	71
134093	7	Sololá	719	Santiago Atitlán	14	Cerro de Oro	2	Febrero	2023-02-26T00:00:00	2024-11-08T16:00:00	6	Velocidad del viento	14.5
134094	7	Sololá	719	Santiago Atitlán	14	Cerro de Oro	2	Febrero	2023-02-26T00:00:00	2024-11-08T16:00:00	7	Dirección del viento	14.48
134095	7	Sololá	719	Santiago Atitlán	14	Cerro de Oro	2	Febrero	2023-02-26T00:00:00	2024-11-08T16:00:00	1	Precipitación	0
134096	7	Sololá	719	Santiago Atitlán	14	Cerro de Oro	2	Febrero	2023-02-26T00:00:00	2024-11-08T16:00:00	8	Radiación solar	413
134097	7	Sololá	719	Santiago Atitlán	14	Cerro de Oro	2	Febrero	2023-02-26T00:00:00	2024-11-08T17:00:00	2	Temperatura media	19.8
134098	7	Sololá	719	Santiago Atitlán	14	Cerro de Oro	2	Febrero	2023-02-26T00:00:00	2024-11-08T17:00:00	4	Temperatura máxima	21.3
134099	7	Sololá	719	Santiago Atitlán	14	Cerro de Oro	2	Febrero	2023-02-26T00:00:00	2024-11-08T17:00:00	3	Temperatura mínima	19.4
134100	7	Sololá	719	Santiago Atitlán	14	Cerro de Oro	2	Febrero	2023-02-26T00:00:00	2024-11-08T17:00:00	5	Humedad	80
134101	7	Sololá	719	Santiago Atitlán	14	Cerro de Oro	2	Febrero	2023-02-26T00:00:00	2024-11-08T17:00:00	6	Velocidad del viento	14.5
134102	7	Sololá	719	Santiago Atitlán	14	Cerro de Oro	2	Febrero	2023-02-26T00:00:00	2024-11-08T17:00:00	7	Dirección del viento	14.48
134103	7	Sololá	719	Santiago Atitlán	14	Cerro de Oro	2	Febrero	2023-02-26T00:00:00	2024-11-08T17:00:00	1	Precipitación	0
134104	7	Sololá	719	Santiago Atitlán	14	Cerro de Oro	2	Febrero	2023-02-26T00:00:00	2024-11-08T17:00:00	8	Radiación solar	119
134105	7	Sololá	719	Santiago Atitlán	14	Cerro de Oro	2	Febrero	2023-02-26T00:00:00	2024-11-08T18:00:00	2	Temperatura media	18.3
134106	7	Sololá	719	Santiago Atitlán	14	Cerro de Oro	2	Febrero	2023-02-26T00:00:00	2024-11-08T18:00:00	4	Temperatura máxima	19.8
134107	7	Sololá	719	Santiago Atitlán	14	Cerro de Oro	2	Febrero	2023-02-26T00:00:00	2024-11-08T18:00:00	3	Temperatura mínima	18.3
134108	7	Sololá	719	Santiago Atitlán	14	Cerro de Oro	2	Febrero	2023-02-26T00:00:00	2024-11-08T18:00:00	5	Humedad	84
134109	7	Sololá	719	Santiago Atitlán	14	Cerro de Oro	2	Febrero	2023-02-26T00:00:00	2024-11-08T18:00:00	6	Velocidad del viento	9.7
134110	7	Sololá	719	Santiago Atitlán	14	Cerro de Oro	2	Febrero	2023-02-26T00:00:00	2024-11-08T18:00:00	7	Dirección del viento	9.66
134111	7	Sololá	719	Santiago Atitlán	14	Cerro de Oro	2	Febrero	2023-02-26T00:00:00	2024-11-08T18:00:00	1	Precipitación	0
134112	7	Sololá	719	Santiago Atitlán	14	Cerro de Oro	2	Febrero	2023-02-26T00:00:00	2024-11-08T18:00:00	8	Radiación solar	49
134113	7	Sololá	719	Santiago Atitlán	14	Cerro de Oro	2	Febrero	2023-02-26T00:00:00	2024-11-08T19:00:00	2	Temperatura media	17.7
134114	7	Sololá	719	Santiago Atitlán	14	Cerro de Oro	2	Febrero	2023-02-26T00:00:00	2024-11-08T19:00:00	4	Temperatura máxima	18.4
134115	7	Sololá	719	Santiago Atitlán	14	Cerro de Oro	2	Febrero	2023-02-26T00:00:00	2024-11-08T19:00:00	3	Temperatura mínima	17.7
134116	7	Sololá	719	Santiago Atitlán	14	Cerro de Oro	2	Febrero	2023-02-26T00:00:00	2024-11-08T19:00:00	5	Humedad	86
134117	7	Sololá	719	Santiago Atitlán	14	Cerro de Oro	2	Febrero	2023-02-26T00:00:00	2024-11-08T19:00:00	6	Velocidad del viento	8
134118	7	Sololá	719	Santiago Atitlán	14	Cerro de Oro	2	Febrero	2023-02-26T00:00:00	2024-11-08T19:00:00	7	Dirección del viento	8.05
134119	7	Sololá	719	Santiago Atitlán	14	Cerro de Oro	2	Febrero	2023-02-26T00:00:00	2024-11-08T19:00:00	1	Precipitación	0
134120	7	Sololá	719	Santiago Atitlán	14	Cerro de Oro	2	Febrero	2023-02-26T00:00:00	2024-11-08T19:00:00	8	Radiación solar	0
134121	7	Sololá	719	Santiago Atitlán	14	Cerro de Oro	2	Febrero	2023-02-26T00:00:00	2024-11-08T20:00:00	2	Temperatura media	17.2
134122	7	Sololá	719	Santiago Atitlán	14	Cerro de Oro	2	Febrero	2023-02-26T00:00:00	2024-11-08T20:00:00	4	Temperatura máxima	17.7
134123	7	Sololá	719	Santiago Atitlán	14	Cerro de Oro	2	Febrero	2023-02-26T00:00:00	2024-11-08T20:00:00	3	Temperatura mínima	17.2
134124	7	Sololá	719	Santiago Atitlán	14	Cerro de Oro	2	Febrero	2023-02-26T00:00:00	2024-11-08T20:00:00	5	Humedad	84
134125	7	Sololá	719	Santiago Atitlán	14	Cerro de Oro	2	Febrero	2023-02-26T00:00:00	2024-11-08T20:00:00	6	Velocidad del viento	6.4
134126	7	Sololá	719	Santiago Atitlán	14	Cerro de Oro	2	Febrero	2023-02-26T00:00:00	2024-11-08T20:00:00	7	Dirección del viento	6.44
134127	7	Sololá	719	Santiago Atitlán	14	Cerro de Oro	2	Febrero	2023-02-26T00:00:00	2024-11-08T20:00:00	1	Precipitación	0
134128	7	Sololá	719	Santiago Atitlán	14	Cerro de Oro	2	Febrero	2023-02-26T00:00:00	2024-11-08T20:00:00	8	Radiación solar	0
134129	7	Sololá	719	Santiago Atitlán	14	Cerro de Oro	2	Febrero	2023-02-26T00:00:00	2024-11-08T21:00:00	2	Temperatura media	16.9
134130	7	Sololá	719	Santiago Atitlán	14	Cerro de Oro	2	Febrero	2023-02-26T00:00:00	2024-11-08T21:00:00	4	Temperatura máxima	17.2
134131	7	Sololá	719	Santiago Atitlán	14	Cerro de Oro	2	Febrero	2023-02-26T00:00:00	2024-11-08T21:00:00	3	Temperatura mínima	16.4
134132	7	Sololá	719	Santiago Atitlán	14	Cerro de Oro	2	Febrero	2023-02-26T00:00:00	2024-11-08T21:00:00	5	Humedad	78
134133	7	Sololá	719	Santiago Atitlán	14	Cerro de Oro	2	Febrero	2023-02-26T00:00:00	2024-11-08T21:00:00	6	Velocidad del viento	3.2
134134	7	Sololá	719	Santiago Atitlán	14	Cerro de Oro	2	Febrero	2023-02-26T00:00:00	2024-11-08T21:00:00	7	Dirección del viento	3.22
134135	7	Sololá	719	Santiago Atitlán	14	Cerro de Oro	2	Febrero	2023-02-26T00:00:00	2024-11-08T21:00:00	1	Precipitación	0
134136	7	Sololá	719	Santiago Atitlán	14	Cerro de Oro	2	Febrero	2023-02-26T00:00:00	2024-11-08T21:00:00	8	Radiación solar	0
134137	7	Sololá	719	Santiago Atitlán	14	Cerro de Oro	2	Febrero	2023-02-26T00:00:00	2024-11-08T22:00:00	2	Temperatura media	16.7
134138	7	Sololá	719	Santiago Atitlán	14	Cerro de Oro	2	Febrero	2023-02-26T00:00:00	2024-11-08T22:00:00	4	Temperatura máxima	17
134139	7	Sololá	719	Santiago Atitlán	14	Cerro de Oro	2	Febrero	2023-02-26T00:00:00	2024-11-08T22:00:00	3	Temperatura mínima	16.6
134140	7	Sololá	719	Santiago Atitlán	14	Cerro de Oro	2	Febrero	2023-02-26T00:00:00	2024-11-08T22:00:00	5	Humedad	74
134141	7	Sololá	719	Santiago Atitlán	14	Cerro de Oro	2	Febrero	2023-02-26T00:00:00	2024-11-08T22:00:00	6	Velocidad del viento	4.8
134142	7	Sololá	719	Santiago Atitlán	14	Cerro de Oro	2	Febrero	2023-02-26T00:00:00	2024-11-08T22:00:00	7	Dirección del viento	4.83
134143	7	Sololá	719	Santiago Atitlán	14	Cerro de Oro	2	Febrero	2023-02-26T00:00:00	2024-11-08T22:00:00	1	Precipitación	0
134144	7	Sololá	719	Santiago Atitlán	14	Cerro de Oro	2	Febrero	2023-02-26T00:00:00	2024-11-08T22:00:00	8	Radiación solar	0
134145	7	Sololá	719	Santiago Atitlán	14	Cerro de Oro	2	Febrero	2023-02-26T00:00:00	2024-11-08T23:00:00	2	Temperatura media	17.3
134146	7	Sololá	719	Santiago Atitlán	14	Cerro de Oro	2	Febrero	2023-02-26T00:00:00	2024-11-08T23:00:00	4	Temperatura máxima	17.3
134147	7	Sololá	719	Santiago Atitlán	14	Cerro de Oro	2	Febrero	2023-02-26T00:00:00	2024-11-08T23:00:00	3	Temperatura mínima	16.6
134148	7	Sololá	719	Santiago Atitlán	14	Cerro de Oro	2	Febrero	2023-02-26T00:00:00	2024-11-08T23:00:00	5	Humedad	71
134149	7	Sololá	719	Santiago Atitlán	14	Cerro de Oro	2	Febrero	2023-02-26T00:00:00	2024-11-08T23:00:00	6	Velocidad del viento	6.4
134150	7	Sololá	719	Santiago Atitlán	14	Cerro de Oro	2	Febrero	2023-02-26T00:00:00	2024-11-08T23:00:00	7	Dirección del viento	6.44
134151	7	Sololá	719	Santiago Atitlán	14	Cerro de Oro	2	Febrero	2023-02-26T00:00:00	2024-11-08T23:00:00	1	Precipitación	0
134152	7	Sololá	719	Santiago Atitlán	14	Cerro de Oro	2	Febrero	2023-02-26T00:00:00	2024-11-08T23:00:00	8	Radiación solar	0
134153	7	Sololá	719	Santiago Atitlán	14	Cerro de Oro	2	Febrero	2023-02-27T00:00:00	2024-11-08T00:00:00	2	Temperatura media	16.8
134154	7	Sololá	719	Santiago Atitlán	14	Cerro de Oro	2	Febrero	2023-02-27T00:00:00	2024-11-08T00:00:00	4	Temperatura máxima	17.3
134155	7	Sololá	719	Santiago Atitlán	14	Cerro de Oro	2	Febrero	2023-02-27T00:00:00	2024-11-08T00:00:00	3	Temperatura mínima	16.6
134156	7	Sololá	719	Santiago Atitlán	14	Cerro de Oro	2	Febrero	2023-02-27T00:00:00	2024-11-08T00:00:00	5	Humedad	73
134157	7	Sololá	719	Santiago Atitlán	14	Cerro de Oro	2	Febrero	2023-02-27T00:00:00	2024-11-08T00:00:00	6	Velocidad del viento	8
134158	7	Sololá	719	Santiago Atitlán	14	Cerro de Oro	2	Febrero	2023-02-27T00:00:00	2024-11-08T00:00:00	7	Dirección del viento	8.05
134159	7	Sololá	719	Santiago Atitlán	14	Cerro de Oro	2	Febrero	2023-02-27T00:00:00	2024-11-08T00:00:00	1	Precipitación	0
134160	7	Sololá	719	Santiago Atitlán	14	Cerro de Oro	2	Febrero	2023-02-27T00:00:00	2024-11-08T00:00:00	8	Radiación solar	0
134161	7	Sololá	719	Santiago Atitlán	14	Cerro de Oro	2	Febrero	2023-02-27T00:00:00	2024-11-08T01:00:00	2	Temperatura media	15.5
134162	7	Sololá	719	Santiago Atitlán	14	Cerro de Oro	2	Febrero	2023-02-27T00:00:00	2024-11-08T01:00:00	4	Temperatura máxima	16.8
134163	7	Sololá	719	Santiago Atitlán	14	Cerro de Oro	2	Febrero	2023-02-27T00:00:00	2024-11-08T01:00:00	3	Temperatura mínima	15.4
134164	7	Sololá	719	Santiago Atitlán	14	Cerro de Oro	2	Febrero	2023-02-27T00:00:00	2024-11-08T01:00:00	5	Humedad	74
134165	7	Sololá	719	Santiago Atitlán	14	Cerro de Oro	2	Febrero	2023-02-27T00:00:00	2024-11-08T01:00:00	6	Velocidad del viento	6.4
134166	7	Sololá	719	Santiago Atitlán	14	Cerro de Oro	2	Febrero	2023-02-27T00:00:00	2024-11-08T01:00:00	7	Dirección del viento	6.44
134167	7	Sololá	719	Santiago Atitlán	14	Cerro de Oro	2	Febrero	2023-02-27T00:00:00	2024-11-08T01:00:00	1	Precipitación	0
134168	7	Sololá	719	Santiago Atitlán	14	Cerro de Oro	2	Febrero	2023-02-27T00:00:00	2024-11-08T01:00:00	8	Radiación solar	0
134169	7	Sololá	719	Santiago Atitlán	14	Cerro de Oro	2	Febrero	2023-02-27T00:00:00	2024-11-08T02:00:00	2	Temperatura media	15.2
134170	7	Sololá	719	Santiago Atitlán	14	Cerro de Oro	2	Febrero	2023-02-27T00:00:00	2024-11-08T02:00:00	4	Temperatura máxima	15.5
134171	7	Sololá	719	Santiago Atitlán	14	Cerro de Oro	2	Febrero	2023-02-27T00:00:00	2024-11-08T02:00:00	3	Temperatura mínima	14.9
134172	7	Sololá	719	Santiago Atitlán	14	Cerro de Oro	2	Febrero	2023-02-27T00:00:00	2024-11-08T02:00:00	5	Humedad	71
134173	7	Sololá	719	Santiago Atitlán	14	Cerro de Oro	2	Febrero	2023-02-27T00:00:00	2024-11-08T02:00:00	6	Velocidad del viento	4.8
134174	7	Sololá	719	Santiago Atitlán	14	Cerro de Oro	2	Febrero	2023-02-27T00:00:00	2024-11-08T02:00:00	7	Dirección del viento	4.83
134175	7	Sololá	719	Santiago Atitlán	14	Cerro de Oro	2	Febrero	2023-02-27T00:00:00	2024-11-08T02:00:00	1	Precipitación	0
134176	7	Sololá	719	Santiago Atitlán	14	Cerro de Oro	2	Febrero	2023-02-27T00:00:00	2024-11-08T02:00:00	8	Radiación solar	0
134177	7	Sololá	719	Santiago Atitlán	14	Cerro de Oro	2	Febrero	2023-02-27T00:00:00	2024-11-08T03:00:00	2	Temperatura media	14.8
134178	7	Sololá	719	Santiago Atitlán	14	Cerro de Oro	2	Febrero	2023-02-27T00:00:00	2024-11-08T03:00:00	4	Temperatura máxima	15.2
134179	7	Sololá	719	Santiago Atitlán	14	Cerro de Oro	2	Febrero	2023-02-27T00:00:00	2024-11-08T03:00:00	3	Temperatura mínima	14.6
134180	7	Sololá	719	Santiago Atitlán	14	Cerro de Oro	2	Febrero	2023-02-27T00:00:00	2024-11-08T03:00:00	5	Humedad	74
134181	7	Sololá	719	Santiago Atitlán	14	Cerro de Oro	2	Febrero	2023-02-27T00:00:00	2024-11-08T03:00:00	6	Velocidad del viento	3.2
134182	7	Sololá	719	Santiago Atitlán	14	Cerro de Oro	2	Febrero	2023-02-27T00:00:00	2024-11-08T03:00:00	7	Dirección del viento	3.22
134183	7	Sololá	719	Santiago Atitlán	14	Cerro de Oro	2	Febrero	2023-02-27T00:00:00	2024-11-08T03:00:00	1	Precipitación	0
134184	7	Sololá	719	Santiago Atitlán	14	Cerro de Oro	2	Febrero	2023-02-27T00:00:00	2024-11-08T03:00:00	8	Radiación solar	0
134185	7	Sololá	719	Santiago Atitlán	14	Cerro de Oro	2	Febrero	2023-02-27T00:00:00	2024-11-08T04:00:00	2	Temperatura media	14.4
134186	7	Sololá	719	Santiago Atitlán	14	Cerro de Oro	2	Febrero	2023-02-27T00:00:00	2024-11-08T04:00:00	4	Temperatura máxima	14.8
134187	7	Sololá	719	Santiago Atitlán	14	Cerro de Oro	2	Febrero	2023-02-27T00:00:00	2024-11-08T04:00:00	3	Temperatura mínima	14.1
134188	7	Sololá	719	Santiago Atitlán	14	Cerro de Oro	2	Febrero	2023-02-27T00:00:00	2024-11-08T04:00:00	5	Humedad	75
134189	7	Sololá	719	Santiago Atitlán	14	Cerro de Oro	2	Febrero	2023-02-27T00:00:00	2024-11-08T04:00:00	6	Velocidad del viento	3.2
134190	7	Sololá	719	Santiago Atitlán	14	Cerro de Oro	2	Febrero	2023-02-27T00:00:00	2024-11-08T04:00:00	7	Dirección del viento	3.22
134191	7	Sololá	719	Santiago Atitlán	14	Cerro de Oro	2	Febrero	2023-02-27T00:00:00	2024-11-08T04:00:00	1	Precipitación	0
134192	7	Sololá	719	Santiago Atitlán	14	Cerro de Oro	2	Febrero	2023-02-27T00:00:00	2024-11-08T04:00:00	8	Radiación solar	0
134193	7	Sololá	719	Santiago Atitlán	14	Cerro de Oro	2	Febrero	2023-02-27T00:00:00	2024-11-08T05:00:00	2	Temperatura media	14.1
134194	7	Sololá	719	Santiago Atitlán	14	Cerro de Oro	2	Febrero	2023-02-27T00:00:00	2024-11-08T05:00:00	4	Temperatura máxima	14.6
134195	7	Sololá	719	Santiago Atitlán	14	Cerro de Oro	2	Febrero	2023-02-27T00:00:00	2024-11-08T05:00:00	3	Temperatura mínima	13.9
134196	7	Sololá	719	Santiago Atitlán	14	Cerro de Oro	2	Febrero	2023-02-27T00:00:00	2024-11-08T05:00:00	5	Humedad	70
134197	7	Sololá	719	Santiago Atitlán	14	Cerro de Oro	2	Febrero	2023-02-27T00:00:00	2024-11-08T05:00:00	6	Velocidad del viento	3.2
134198	7	Sololá	719	Santiago Atitlán	14	Cerro de Oro	2	Febrero	2023-02-27T00:00:00	2024-11-08T05:00:00	7	Dirección del viento	3.22
134199	7	Sololá	719	Santiago Atitlán	14	Cerro de Oro	2	Febrero	2023-02-27T00:00:00	2024-11-08T05:00:00	1	Precipitación	0
134200	7	Sololá	719	Santiago Atitlán	14	Cerro de Oro	2	Febrero	2023-02-27T00:00:00	2024-11-08T05:00:00	8	Radiación solar	0
134201	7	Sololá	719	Santiago Atitlán	14	Cerro de Oro	2	Febrero	2023-02-27T00:00:00	2024-11-08T06:00:00	2	Temperatura media	14.3
134202	7	Sololá	719	Santiago Atitlán	14	Cerro de Oro	2	Febrero	2023-02-27T00:00:00	2024-11-08T06:00:00	4	Temperatura máxima	14.5
134203	7	Sololá	719	Santiago Atitlán	14	Cerro de Oro	2	Febrero	2023-02-27T00:00:00	2024-11-08T06:00:00	3	Temperatura mínima	13.8
134204	7	Sololá	719	Santiago Atitlán	14	Cerro de Oro	2	Febrero	2023-02-27T00:00:00	2024-11-08T06:00:00	5	Humedad	70
134205	7	Sololá	719	Santiago Atitlán	14	Cerro de Oro	2	Febrero	2023-02-27T00:00:00	2024-11-08T06:00:00	6	Velocidad del viento	4.8
134206	7	Sololá	719	Santiago Atitlán	14	Cerro de Oro	2	Febrero	2023-02-27T00:00:00	2024-11-08T06:00:00	7	Dirección del viento	4.83
134207	7	Sololá	719	Santiago Atitlán	14	Cerro de Oro	2	Febrero	2023-02-27T00:00:00	2024-11-08T06:00:00	1	Precipitación	0
134208	7	Sololá	719	Santiago Atitlán	14	Cerro de Oro	2	Febrero	2023-02-27T00:00:00	2024-11-08T06:00:00	8	Radiación solar	0
134209	7	Sololá	719	Santiago Atitlán	14	Cerro de Oro	2	Febrero	2023-02-27T00:00:00	2024-11-08T07:00:00	2	Temperatura media	14.6
134210	7	Sololá	719	Santiago Atitlán	14	Cerro de Oro	2	Febrero	2023-02-27T00:00:00	2024-11-08T07:00:00	4	Temperatura máxima	14.6
134211	7	Sololá	719	Santiago Atitlán	14	Cerro de Oro	2	Febrero	2023-02-27T00:00:00	2024-11-08T07:00:00	3	Temperatura mínima	14.2
134212	7	Sololá	719	Santiago Atitlán	14	Cerro de Oro	2	Febrero	2023-02-27T00:00:00	2024-11-08T07:00:00	5	Humedad	73
134213	7	Sololá	719	Santiago Atitlán	14	Cerro de Oro	2	Febrero	2023-02-27T00:00:00	2024-11-08T07:00:00	6	Velocidad del viento	3.2
134214	7	Sololá	719	Santiago Atitlán	14	Cerro de Oro	2	Febrero	2023-02-27T00:00:00	2024-11-08T07:00:00	7	Dirección del viento	3.22
134215	7	Sololá	719	Santiago Atitlán	14	Cerro de Oro	2	Febrero	2023-02-27T00:00:00	2024-11-08T07:00:00	1	Precipitación	0
134216	7	Sololá	719	Santiago Atitlán	14	Cerro de Oro	2	Febrero	2023-02-27T00:00:00	2024-11-08T07:00:00	8	Radiación solar	18
134217	7	Sololá	719	Santiago Atitlán	14	Cerro de Oro	2	Febrero	2023-02-27T00:00:00	2024-11-08T08:00:00	2	Temperatura media	16.8
134218	7	Sololá	719	Santiago Atitlán	14	Cerro de Oro	2	Febrero	2023-02-27T00:00:00	2024-11-08T08:00:00	4	Temperatura máxima	16.8
134219	7	Sololá	719	Santiago Atitlán	14	Cerro de Oro	2	Febrero	2023-02-27T00:00:00	2024-11-08T08:00:00	3	Temperatura mínima	14.6
134220	7	Sololá	719	Santiago Atitlán	14	Cerro de Oro	2	Febrero	2023-02-27T00:00:00	2024-11-08T08:00:00	5	Humedad	69
134221	7	Sololá	719	Santiago Atitlán	14	Cerro de Oro	2	Febrero	2023-02-27T00:00:00	2024-11-08T08:00:00	6	Velocidad del viento	3.2
134222	7	Sololá	719	Santiago Atitlán	14	Cerro de Oro	2	Febrero	2023-02-27T00:00:00	2024-11-08T08:00:00	7	Dirección del viento	3.22
134223	7	Sololá	719	Santiago Atitlán	14	Cerro de Oro	2	Febrero	2023-02-27T00:00:00	2024-11-08T08:00:00	1	Precipitación	0
134224	7	Sololá	719	Santiago Atitlán	14	Cerro de Oro	2	Febrero	2023-02-27T00:00:00	2024-11-08T08:00:00	8	Radiación solar	181
134225	7	Sololá	719	Santiago Atitlán	14	Cerro de Oro	2	Febrero	2023-02-27T00:00:00	2024-11-08T09:00:00	2	Temperatura media	17.8
134226	7	Sololá	719	Santiago Atitlán	14	Cerro de Oro	2	Febrero	2023-02-27T00:00:00	2024-11-08T09:00:00	4	Temperatura máxima	17.9
134227	7	Sololá	719	Santiago Atitlán	14	Cerro de Oro	2	Febrero	2023-02-27T00:00:00	2024-11-08T09:00:00	3	Temperatura mínima	16.8
134228	7	Sololá	719	Santiago Atitlán	14	Cerro de Oro	2	Febrero	2023-02-27T00:00:00	2024-11-08T09:00:00	5	Humedad	67
134229	7	Sololá	719	Santiago Atitlán	14	Cerro de Oro	2	Febrero	2023-02-27T00:00:00	2024-11-08T09:00:00	6	Velocidad del viento	4.8
134230	7	Sololá	719	Santiago Atitlán	14	Cerro de Oro	2	Febrero	2023-02-27T00:00:00	2024-11-08T09:00:00	7	Dirección del viento	4.83
134231	7	Sololá	719	Santiago Atitlán	14	Cerro de Oro	2	Febrero	2023-02-27T00:00:00	2024-11-08T09:00:00	1	Precipitación	0
134232	7	Sololá	719	Santiago Atitlán	14	Cerro de Oro	2	Febrero	2023-02-27T00:00:00	2024-11-08T09:00:00	8	Radiación solar	415
134233	7	Sololá	719	Santiago Atitlán	14	Cerro de Oro	2	Febrero	2023-02-27T00:00:00	2024-11-08T10:00:00	2	Temperatura media	19.1
134234	7	Sololá	719	Santiago Atitlán	14	Cerro de Oro	2	Febrero	2023-02-27T00:00:00	2024-11-08T10:00:00	4	Temperatura máxima	19.1
134235	7	Sololá	719	Santiago Atitlán	14	Cerro de Oro	2	Febrero	2023-02-27T00:00:00	2024-11-08T10:00:00	3	Temperatura mínima	17.5
134236	7	Sololá	719	Santiago Atitlán	14	Cerro de Oro	2	Febrero	2023-02-27T00:00:00	2024-11-08T10:00:00	5	Humedad	62
134237	7	Sololá	719	Santiago Atitlán	14	Cerro de Oro	2	Febrero	2023-02-27T00:00:00	2024-11-08T10:00:00	6	Velocidad del viento	4.8
134238	7	Sololá	719	Santiago Atitlán	14	Cerro de Oro	2	Febrero	2023-02-27T00:00:00	2024-11-08T10:00:00	7	Dirección del viento	4.83
134239	7	Sololá	719	Santiago Atitlán	14	Cerro de Oro	2	Febrero	2023-02-27T00:00:00	2024-11-08T10:00:00	1	Precipitación	0
134240	7	Sololá	719	Santiago Atitlán	14	Cerro de Oro	2	Febrero	2023-02-27T00:00:00	2024-11-08T10:00:00	8	Radiación solar	612
134241	7	Sololá	719	Santiago Atitlán	14	Cerro de Oro	2	Febrero	2023-02-27T00:00:00	2024-11-08T11:00:00	2	Temperatura media	20.6
134242	7	Sololá	719	Santiago Atitlán	14	Cerro de Oro	2	Febrero	2023-02-27T00:00:00	2024-11-08T11:00:00	4	Temperatura máxima	20.6
134243	7	Sololá	719	Santiago Atitlán	14	Cerro de Oro	2	Febrero	2023-02-27T00:00:00	2024-11-08T11:00:00	3	Temperatura mínima	19.1
134244	7	Sololá	719	Santiago Atitlán	14	Cerro de Oro	2	Febrero	2023-02-27T00:00:00	2024-11-08T11:00:00	5	Humedad	61
134245	7	Sololá	719	Santiago Atitlán	14	Cerro de Oro	2	Febrero	2023-02-27T00:00:00	2024-11-08T11:00:00	6	Velocidad del viento	4.8
134246	7	Sololá	719	Santiago Atitlán	14	Cerro de Oro	2	Febrero	2023-02-27T00:00:00	2024-11-08T11:00:00	7	Dirección del viento	4.83
134247	7	Sololá	719	Santiago Atitlán	14	Cerro de Oro	2	Febrero	2023-02-27T00:00:00	2024-11-08T11:00:00	1	Precipitación	0
134248	7	Sololá	719	Santiago Atitlán	14	Cerro de Oro	2	Febrero	2023-02-27T00:00:00	2024-11-08T11:00:00	8	Radiación solar	747
134249	7	Sololá	719	Santiago Atitlán	14	Cerro de Oro	2	Febrero	2023-02-27T00:00:00	2024-11-08T12:00:00	2	Temperatura media	22
134250	7	Sololá	719	Santiago Atitlán	14	Cerro de Oro	2	Febrero	2023-02-27T00:00:00	2024-11-08T12:00:00	4	Temperatura máxima	22.3
134251	7	Sololá	719	Santiago Atitlán	14	Cerro de Oro	2	Febrero	2023-02-27T00:00:00	2024-11-08T12:00:00	3	Temperatura mínima	20.6
134252	7	Sololá	719	Santiago Atitlán	14	Cerro de Oro	2	Febrero	2023-02-27T00:00:00	2024-11-08T12:00:00	5	Humedad	58
134253	7	Sololá	719	Santiago Atitlán	14	Cerro de Oro	2	Febrero	2023-02-27T00:00:00	2024-11-08T12:00:00	6	Velocidad del viento	4.8
134254	7	Sololá	719	Santiago Atitlán	14	Cerro de Oro	2	Febrero	2023-02-27T00:00:00	2024-11-08T12:00:00	7	Dirección del viento	4.83
134255	7	Sololá	719	Santiago Atitlán	14	Cerro de Oro	2	Febrero	2023-02-27T00:00:00	2024-11-08T12:00:00	1	Precipitación	0
134256	7	Sololá	719	Santiago Atitlán	14	Cerro de Oro	2	Febrero	2023-02-27T00:00:00	2024-11-08T12:00:00	8	Radiación solar	805
134257	7	Sololá	719	Santiago Atitlán	14	Cerro de Oro	2	Febrero	2023-02-27T00:00:00	2024-11-08T13:00:00	2	Temperatura media	22.9
134258	7	Sololá	719	Santiago Atitlán	14	Cerro de Oro	2	Febrero	2023-02-27T00:00:00	2024-11-08T13:00:00	4	Temperatura máxima	23.1
134259	7	Sololá	719	Santiago Atitlán	14	Cerro de Oro	2	Febrero	2023-02-27T00:00:00	2024-11-08T13:00:00	3	Temperatura mínima	21.8
134260	7	Sololá	719	Santiago Atitlán	14	Cerro de Oro	2	Febrero	2023-02-27T00:00:00	2024-11-08T13:00:00	5	Humedad	59
134261	7	Sololá	719	Santiago Atitlán	14	Cerro de Oro	2	Febrero	2023-02-27T00:00:00	2024-11-08T13:00:00	6	Velocidad del viento	8
134262	7	Sololá	719	Santiago Atitlán	14	Cerro de Oro	2	Febrero	2023-02-27T00:00:00	2024-11-08T13:00:00	7	Dirección del viento	8.05
134263	7	Sololá	719	Santiago Atitlán	14	Cerro de Oro	2	Febrero	2023-02-27T00:00:00	2024-11-08T13:00:00	1	Precipitación	0
134264	7	Sololá	719	Santiago Atitlán	14	Cerro de Oro	2	Febrero	2023-02-27T00:00:00	2024-11-08T13:00:00	8	Radiación solar	888
134265	7	Sololá	719	Santiago Atitlán	14	Cerro de Oro	2	Febrero	2023-02-27T00:00:00	2024-11-08T14:00:00	2	Temperatura media	22.9
134266	7	Sololá	719	Santiago Atitlán	14	Cerro de Oro	2	Febrero	2023-02-27T00:00:00	2024-11-08T14:00:00	4	Temperatura máxima	23.1
134267	7	Sololá	719	Santiago Atitlán	14	Cerro de Oro	2	Febrero	2023-02-27T00:00:00	2024-11-08T14:00:00	3	Temperatura mínima	22.5
134268	7	Sololá	719	Santiago Atitlán	14	Cerro de Oro	2	Febrero	2023-02-27T00:00:00	2024-11-08T14:00:00	5	Humedad	62
134269	7	Sololá	719	Santiago Atitlán	14	Cerro de Oro	2	Febrero	2023-02-27T00:00:00	2024-11-08T14:00:00	6	Velocidad del viento	12.9
134270	7	Sololá	719	Santiago Atitlán	14	Cerro de Oro	2	Febrero	2023-02-27T00:00:00	2024-11-08T14:00:00	7	Dirección del viento	12.87
134271	7	Sololá	719	Santiago Atitlán	14	Cerro de Oro	2	Febrero	2023-02-27T00:00:00	2024-11-08T14:00:00	1	Precipitación	0
134272	7	Sololá	719	Santiago Atitlán	14	Cerro de Oro	2	Febrero	2023-02-27T00:00:00	2024-11-08T14:00:00	8	Radiación solar	859
134273	7	Sololá	719	Santiago Atitlán	14	Cerro de Oro	2	Febrero	2023-02-27T00:00:00	2024-11-08T15:00:00	2	Temperatura media	21.7
134274	7	Sololá	719	Santiago Atitlán	14	Cerro de Oro	2	Febrero	2023-02-27T00:00:00	2024-11-08T15:00:00	4	Temperatura máxima	23
134275	7	Sololá	719	Santiago Atitlán	14	Cerro de Oro	2	Febrero	2023-02-27T00:00:00	2024-11-08T15:00:00	3	Temperatura mínima	21.7
134276	7	Sololá	719	Santiago Atitlán	14	Cerro de Oro	2	Febrero	2023-02-27T00:00:00	2024-11-08T15:00:00	5	Humedad	65
134277	7	Sololá	719	Santiago Atitlán	14	Cerro de Oro	2	Febrero	2023-02-27T00:00:00	2024-11-08T15:00:00	6	Velocidad del viento	11.3
134278	7	Sololá	719	Santiago Atitlán	14	Cerro de Oro	2	Febrero	2023-02-27T00:00:00	2024-11-08T15:00:00	7	Dirección del viento	11.27
134279	7	Sololá	719	Santiago Atitlán	14	Cerro de Oro	2	Febrero	2023-02-27T00:00:00	2024-11-08T15:00:00	1	Precipitación	0
134280	7	Sololá	719	Santiago Atitlán	14	Cerro de Oro	2	Febrero	2023-02-27T00:00:00	2024-11-08T15:00:00	8	Radiación solar	444
134281	7	Sololá	719	Santiago Atitlán	14	Cerro de Oro	2	Febrero	2023-02-27T00:00:00	2024-11-08T16:00:00	2	Temperatura media	20.9
134282	7	Sololá	719	Santiago Atitlán	14	Cerro de Oro	2	Febrero	2023-02-27T00:00:00	2024-11-08T16:00:00	4	Temperatura máxima	21.7
134283	7	Sololá	719	Santiago Atitlán	14	Cerro de Oro	2	Febrero	2023-02-27T00:00:00	2024-11-08T16:00:00	3	Temperatura mínima	20.9
134284	7	Sololá	719	Santiago Atitlán	14	Cerro de Oro	2	Febrero	2023-02-27T00:00:00	2024-11-08T16:00:00	5	Humedad	68
134285	7	Sololá	719	Santiago Atitlán	14	Cerro de Oro	2	Febrero	2023-02-27T00:00:00	2024-11-08T16:00:00	6	Velocidad del viento	11.3
134286	7	Sololá	719	Santiago Atitlán	14	Cerro de Oro	2	Febrero	2023-02-27T00:00:00	2024-11-08T16:00:00	7	Dirección del viento	11.27
134287	7	Sololá	719	Santiago Atitlán	14	Cerro de Oro	2	Febrero	2023-02-27T00:00:00	2024-11-08T16:00:00	1	Precipitación	0
134288	7	Sololá	719	Santiago Atitlán	14	Cerro de Oro	2	Febrero	2023-02-27T00:00:00	2024-11-08T16:00:00	8	Radiación solar	143
134289	7	Sololá	719	Santiago Atitlán	14	Cerro de Oro	2	Febrero	2023-02-27T00:00:00	2024-11-08T17:00:00	2	Temperatura media	20.3
134290	7	Sololá	719	Santiago Atitlán	14	Cerro de Oro	2	Febrero	2023-02-27T00:00:00	2024-11-08T17:00:00	4	Temperatura máxima	21
134291	7	Sololá	719	Santiago Atitlán	14	Cerro de Oro	2	Febrero	2023-02-27T00:00:00	2024-11-08T17:00:00	3	Temperatura mínima	20.3
134292	7	Sololá	719	Santiago Atitlán	14	Cerro de Oro	2	Febrero	2023-02-27T00:00:00	2024-11-08T17:00:00	5	Humedad	78
134293	7	Sololá	719	Santiago Atitlán	14	Cerro de Oro	2	Febrero	2023-02-27T00:00:00	2024-11-08T17:00:00	6	Velocidad del viento	9.7
134294	7	Sololá	719	Santiago Atitlán	14	Cerro de Oro	2	Febrero	2023-02-27T00:00:00	2024-11-08T17:00:00	7	Dirección del viento	9.66
134295	7	Sololá	719	Santiago Atitlán	14	Cerro de Oro	2	Febrero	2023-02-27T00:00:00	2024-11-08T17:00:00	1	Precipitación	0
134296	7	Sololá	719	Santiago Atitlán	14	Cerro de Oro	2	Febrero	2023-02-27T00:00:00	2024-11-08T17:00:00	8	Radiación solar	110
134297	7	Sololá	719	Santiago Atitlán	14	Cerro de Oro	2	Febrero	2023-02-27T00:00:00	2024-11-08T18:00:00	2	Temperatura media	19.8
134298	7	Sololá	719	Santiago Atitlán	14	Cerro de Oro	2	Febrero	2023-02-27T00:00:00	2024-11-08T18:00:00	4	Temperatura máxima	20.5
134299	7	Sololá	719	Santiago Atitlán	14	Cerro de Oro	2	Febrero	2023-02-27T00:00:00	2024-11-08T18:00:00	3	Temperatura mínima	19.7
134300	7	Sololá	719	Santiago Atitlán	14	Cerro de Oro	2	Febrero	2023-02-27T00:00:00	2024-11-08T18:00:00	5	Humedad	74
134301	7	Sololá	719	Santiago Atitlán	14	Cerro de Oro	2	Febrero	2023-02-27T00:00:00	2024-11-08T18:00:00	6	Velocidad del viento	4.8
134302	7	Sololá	719	Santiago Atitlán	14	Cerro de Oro	2	Febrero	2023-02-27T00:00:00	2024-11-08T18:00:00	7	Dirección del viento	4.83
134303	7	Sololá	719	Santiago Atitlán	14	Cerro de Oro	2	Febrero	2023-02-27T00:00:00	2024-11-08T18:00:00	1	Precipitación	0
134304	7	Sololá	719	Santiago Atitlán	14	Cerro de Oro	2	Febrero	2023-02-27T00:00:00	2024-11-08T18:00:00	8	Radiación solar	47
134305	7	Sololá	719	Santiago Atitlán	14	Cerro de Oro	2	Febrero	2023-02-27T00:00:00	2024-11-08T19:00:00	2	Temperatura media	17.9
134306	7	Sololá	719	Santiago Atitlán	14	Cerro de Oro	2	Febrero	2023-02-27T00:00:00	2024-11-08T19:00:00	4	Temperatura máxima	19.8
134307	7	Sololá	719	Santiago Atitlán	14	Cerro de Oro	2	Febrero	2023-02-27T00:00:00	2024-11-08T19:00:00	3	Temperatura mínima	17.9
134308	7	Sololá	719	Santiago Atitlán	14	Cerro de Oro	2	Febrero	2023-02-27T00:00:00	2024-11-08T19:00:00	5	Humedad	81
134309	7	Sololá	719	Santiago Atitlán	14	Cerro de Oro	2	Febrero	2023-02-27T00:00:00	2024-11-08T19:00:00	6	Velocidad del viento	3.2
134310	7	Sololá	719	Santiago Atitlán	14	Cerro de Oro	2	Febrero	2023-02-27T00:00:00	2024-11-08T19:00:00	7	Dirección del viento	3.22
134311	7	Sololá	719	Santiago Atitlán	14	Cerro de Oro	2	Febrero	2023-02-27T00:00:00	2024-11-08T19:00:00	1	Precipitación	0
134312	7	Sololá	719	Santiago Atitlán	14	Cerro de Oro	2	Febrero	2023-02-27T00:00:00	2024-11-08T19:00:00	8	Radiación solar	0
134313	7	Sololá	719	Santiago Atitlán	14	Cerro de Oro	2	Febrero	2023-02-27T00:00:00	2024-11-08T20:00:00	2	Temperatura media	18
134314	7	Sololá	719	Santiago Atitlán	14	Cerro de Oro	2	Febrero	2023-02-27T00:00:00	2024-11-08T20:00:00	4	Temperatura máxima	18.3
134315	7	Sololá	719	Santiago Atitlán	14	Cerro de Oro	2	Febrero	2023-02-27T00:00:00	2024-11-08T20:00:00	3	Temperatura mínima	17.8
134316	7	Sololá	719	Santiago Atitlán	14	Cerro de Oro	2	Febrero	2023-02-27T00:00:00	2024-11-08T20:00:00	5	Humedad	84
134317	7	Sololá	719	Santiago Atitlán	14	Cerro de Oro	2	Febrero	2023-02-27T00:00:00	2024-11-08T20:00:00	6	Velocidad del viento	6.4
134318	7	Sololá	719	Santiago Atitlán	14	Cerro de Oro	2	Febrero	2023-02-27T00:00:00	2024-11-08T20:00:00	7	Dirección del viento	6.44
134319	7	Sololá	719	Santiago Atitlán	14	Cerro de Oro	2	Febrero	2023-02-27T00:00:00	2024-11-08T20:00:00	1	Precipitación	0
134320	7	Sololá	719	Santiago Atitlán	14	Cerro de Oro	2	Febrero	2023-02-27T00:00:00	2024-11-08T20:00:00	8	Radiación solar	0
134321	7	Sololá	719	Santiago Atitlán	14	Cerro de Oro	2	Febrero	2023-02-27T00:00:00	2024-11-08T21:00:00	2	Temperatura media	17.3
134322	7	Sololá	719	Santiago Atitlán	14	Cerro de Oro	2	Febrero	2023-02-27T00:00:00	2024-11-08T21:00:00	4	Temperatura máxima	18
134323	7	Sololá	719	Santiago Atitlán	14	Cerro de Oro	2	Febrero	2023-02-27T00:00:00	2024-11-08T21:00:00	3	Temperatura mínima	17.3
134324	7	Sololá	719	Santiago Atitlán	14	Cerro de Oro	2	Febrero	2023-02-27T00:00:00	2024-11-08T21:00:00	5	Humedad	81
134325	7	Sololá	719	Santiago Atitlán	14	Cerro de Oro	2	Febrero	2023-02-27T00:00:00	2024-11-08T21:00:00	6	Velocidad del viento	3.2
134326	7	Sololá	719	Santiago Atitlán	14	Cerro de Oro	2	Febrero	2023-02-27T00:00:00	2024-11-08T21:00:00	7	Dirección del viento	3.22
134327	7	Sololá	719	Santiago Atitlán	14	Cerro de Oro	2	Febrero	2023-02-27T00:00:00	2024-11-08T21:00:00	1	Precipitación	0
134328	7	Sololá	719	Santiago Atitlán	14	Cerro de Oro	2	Febrero	2023-02-27T00:00:00	2024-11-08T21:00:00	8	Radiación solar	0
134329	7	Sololá	719	Santiago Atitlán	14	Cerro de Oro	2	Febrero	2023-02-27T00:00:00	2024-11-08T22:00:00	2	Temperatura media	17.6
134330	7	Sololá	719	Santiago Atitlán	14	Cerro de Oro	2	Febrero	2023-02-27T00:00:00	2024-11-08T22:00:00	4	Temperatura máxima	17.6
134331	7	Sololá	719	Santiago Atitlán	14	Cerro de Oro	2	Febrero	2023-02-27T00:00:00	2024-11-08T22:00:00	3	Temperatura mínima	16.9
134332	7	Sololá	719	Santiago Atitlán	14	Cerro de Oro	2	Febrero	2023-02-27T00:00:00	2024-11-08T22:00:00	5	Humedad	83
134333	7	Sololá	719	Santiago Atitlán	14	Cerro de Oro	2	Febrero	2023-02-27T00:00:00	2024-11-08T22:00:00	6	Velocidad del viento	4.8
134334	7	Sololá	719	Santiago Atitlán	14	Cerro de Oro	2	Febrero	2023-02-27T00:00:00	2024-11-08T22:00:00	7	Dirección del viento	4.83
134335	7	Sololá	719	Santiago Atitlán	14	Cerro de Oro	2	Febrero	2023-02-27T00:00:00	2024-11-08T22:00:00	1	Precipitación	0
134336	7	Sololá	719	Santiago Atitlán	14	Cerro de Oro	2	Febrero	2023-02-27T00:00:00	2024-11-08T22:00:00	8	Radiación solar	0
134337	7	Sololá	719	Santiago Atitlán	14	Cerro de Oro	2	Febrero	2023-02-27T00:00:00	2024-11-08T23:00:00	2	Temperatura media	16.7
134338	7	Sololá	719	Santiago Atitlán	14	Cerro de Oro	2	Febrero	2023-02-27T00:00:00	2024-11-08T23:00:00	4	Temperatura máxima	17.6
134339	7	Sololá	719	Santiago Atitlán	14	Cerro de Oro	2	Febrero	2023-02-27T00:00:00	2024-11-08T23:00:00	3	Temperatura mínima	16.7
134340	7	Sololá	719	Santiago Atitlán	14	Cerro de Oro	2	Febrero	2023-02-27T00:00:00	2024-11-08T23:00:00	5	Humedad	85
134341	7	Sololá	719	Santiago Atitlán	14	Cerro de Oro	2	Febrero	2023-02-27T00:00:00	2024-11-08T23:00:00	6	Velocidad del viento	4.8
134342	7	Sololá	719	Santiago Atitlán	14	Cerro de Oro	2	Febrero	2023-02-27T00:00:00	2024-11-08T23:00:00	7	Dirección del viento	4.83
134343	7	Sololá	719	Santiago Atitlán	14	Cerro de Oro	2	Febrero	2023-02-27T00:00:00	2024-11-08T23:00:00	1	Precipitación	0
134344	7	Sololá	719	Santiago Atitlán	14	Cerro de Oro	2	Febrero	2023-02-27T00:00:00	2024-11-08T23:00:00	8	Radiación solar	0
134345	7	Sololá	719	Santiago Atitlán	14	Cerro de Oro	2	Febrero	2023-02-28T00:00:00	2024-11-08T00:00:00	2	Temperatura media	16.4
134346	7	Sololá	719	Santiago Atitlán	14	Cerro de Oro	2	Febrero	2023-02-28T00:00:00	2024-11-08T00:00:00	4	Temperatura máxima	16.7
134347	7	Sololá	719	Santiago Atitlán	14	Cerro de Oro	2	Febrero	2023-02-28T00:00:00	2024-11-08T00:00:00	3	Temperatura mínima	16.4
134348	7	Sololá	719	Santiago Atitlán	14	Cerro de Oro	2	Febrero	2023-02-28T00:00:00	2024-11-08T00:00:00	5	Humedad	81
134349	7	Sololá	719	Santiago Atitlán	14	Cerro de Oro	2	Febrero	2023-02-28T00:00:00	2024-11-08T00:00:00	6	Velocidad del viento	3.2
134350	7	Sololá	719	Santiago Atitlán	14	Cerro de Oro	2	Febrero	2023-02-28T00:00:00	2024-11-08T00:00:00	7	Dirección del viento	3.22
134351	7	Sololá	719	Santiago Atitlán	14	Cerro de Oro	2	Febrero	2023-02-28T00:00:00	2024-11-08T00:00:00	1	Precipitación	0
134352	7	Sololá	719	Santiago Atitlán	14	Cerro de Oro	2	Febrero	2023-02-28T00:00:00	2024-11-08T00:00:00	8	Radiación solar	0
134353	7	Sololá	719	Santiago Atitlán	14	Cerro de Oro	2	Febrero	2023-02-28T00:00:00	2024-11-08T01:00:00	2	Temperatura media	15.7
134354	7	Sololá	719	Santiago Atitlán	14	Cerro de Oro	2	Febrero	2023-02-28T00:00:00	2024-11-08T01:00:00	4	Temperatura máxima	16.5
134355	7	Sololá	719	Santiago Atitlán	14	Cerro de Oro	2	Febrero	2023-02-28T00:00:00	2024-11-08T01:00:00	3	Temperatura mínima	15.6
134356	7	Sololá	719	Santiago Atitlán	14	Cerro de Oro	2	Febrero	2023-02-28T00:00:00	2024-11-08T01:00:00	5	Humedad	84
134357	7	Sololá	719	Santiago Atitlán	14	Cerro de Oro	2	Febrero	2023-02-28T00:00:00	2024-11-08T01:00:00	6	Velocidad del viento	4.8
134358	7	Sololá	719	Santiago Atitlán	14	Cerro de Oro	2	Febrero	2023-02-28T00:00:00	2024-11-08T01:00:00	7	Dirección del viento	4.83
134359	7	Sololá	719	Santiago Atitlán	14	Cerro de Oro	2	Febrero	2023-02-28T00:00:00	2024-11-08T01:00:00	1	Precipitación	0
134360	7	Sololá	719	Santiago Atitlán	14	Cerro de Oro	2	Febrero	2023-02-28T00:00:00	2024-11-08T01:00:00	8	Radiación solar	0
134361	7	Sololá	719	Santiago Atitlán	14	Cerro de Oro	2	Febrero	2023-02-28T00:00:00	2024-11-08T02:00:00	2	Temperatura media	15.7
134362	7	Sololá	719	Santiago Atitlán	14	Cerro de Oro	2	Febrero	2023-02-28T00:00:00	2024-11-08T02:00:00	4	Temperatura máxima	16.5
134363	7	Sololá	719	Santiago Atitlán	14	Cerro de Oro	2	Febrero	2023-02-28T00:00:00	2024-11-08T02:00:00	3	Temperatura mínima	15.6
134364	7	Sololá	719	Santiago Atitlán	14	Cerro de Oro	2	Febrero	2023-02-28T00:00:00	2024-11-08T02:00:00	5	Humedad	80
134365	7	Sololá	719	Santiago Atitlán	14	Cerro de Oro	2	Febrero	2023-02-28T00:00:00	2024-11-08T02:00:00	6	Velocidad del viento	3.2
134366	7	Sololá	719	Santiago Atitlán	14	Cerro de Oro	2	Febrero	2023-02-28T00:00:00	2024-11-08T02:00:00	7	Dirección del viento	3.22
134367	7	Sololá	719	Santiago Atitlán	14	Cerro de Oro	2	Febrero	2023-02-28T00:00:00	2024-11-08T02:00:00	1	Precipitación	0
134368	7	Sololá	719	Santiago Atitlán	14	Cerro de Oro	2	Febrero	2023-02-28T00:00:00	2024-11-08T02:00:00	8	Radiación solar	0
134369	7	Sololá	719	Santiago Atitlán	14	Cerro de Oro	2	Febrero	2023-02-28T00:00:00	2024-11-08T03:00:00	2	Temperatura media	15.4
134370	7	Sololá	719	Santiago Atitlán	14	Cerro de Oro	2	Febrero	2023-02-28T00:00:00	2024-11-08T03:00:00	4	Temperatura máxima	15.8
134371	7	Sololá	719	Santiago Atitlán	14	Cerro de Oro	2	Febrero	2023-02-28T00:00:00	2024-11-08T03:00:00	3	Temperatura mínima	15.4
134372	7	Sololá	719	Santiago Atitlán	14	Cerro de Oro	2	Febrero	2023-02-28T00:00:00	2024-11-08T03:00:00	5	Humedad	79
134373	7	Sololá	719	Santiago Atitlán	14	Cerro de Oro	2	Febrero	2023-02-28T00:00:00	2024-11-08T03:00:00	6	Velocidad del viento	3.2
134374	7	Sololá	719	Santiago Atitlán	14	Cerro de Oro	2	Febrero	2023-02-28T00:00:00	2024-11-08T03:00:00	7	Dirección del viento	3.22
134375	7	Sololá	719	Santiago Atitlán	14	Cerro de Oro	2	Febrero	2023-02-28T00:00:00	2024-11-08T03:00:00	1	Precipitación	0
134376	7	Sololá	719	Santiago Atitlán	14	Cerro de Oro	2	Febrero	2023-02-28T00:00:00	2024-11-08T03:00:00	8	Radiación solar	0
134377	7	Sololá	719	Santiago Atitlán	14	Cerro de Oro	2	Febrero	2023-02-28T00:00:00	2024-11-08T04:00:00	2	Temperatura media	15.2
134378	7	Sololá	719	Santiago Atitlán	14	Cerro de Oro	2	Febrero	2023-02-28T00:00:00	2024-11-08T04:00:00	4	Temperatura máxima	15.4
134379	7	Sololá	719	Santiago Atitlán	14	Cerro de Oro	2	Febrero	2023-02-28T00:00:00	2024-11-08T04:00:00	3	Temperatura mínima	15.2
134380	7	Sololá	719	Santiago Atitlán	14	Cerro de Oro	2	Febrero	2023-02-28T00:00:00	2024-11-08T04:00:00	5	Humedad	79
134381	7	Sololá	719	Santiago Atitlán	14	Cerro de Oro	2	Febrero	2023-02-28T00:00:00	2024-11-08T04:00:00	6	Velocidad del viento	3.2
134382	7	Sololá	719	Santiago Atitlán	14	Cerro de Oro	2	Febrero	2023-02-28T00:00:00	2024-11-08T04:00:00	7	Dirección del viento	3.22
134383	7	Sololá	719	Santiago Atitlán	14	Cerro de Oro	2	Febrero	2023-02-28T00:00:00	2024-11-08T04:00:00	1	Precipitación	0
134384	7	Sololá	719	Santiago Atitlán	14	Cerro de Oro	2	Febrero	2023-02-28T00:00:00	2024-11-08T04:00:00	8	Radiación solar	0
134385	7	Sololá	719	Santiago Atitlán	14	Cerro de Oro	2	Febrero	2023-02-28T00:00:00	2024-11-08T05:00:00	2	Temperatura media	15.1
134386	7	Sololá	719	Santiago Atitlán	14	Cerro de Oro	2	Febrero	2023-02-28T00:00:00	2024-11-08T05:00:00	4	Temperatura máxima	15.3
134387	7	Sololá	719	Santiago Atitlán	14	Cerro de Oro	2	Febrero	2023-02-28T00:00:00	2024-11-08T05:00:00	3	Temperatura mínima	15
134388	7	Sololá	719	Santiago Atitlán	14	Cerro de Oro	2	Febrero	2023-02-28T00:00:00	2024-11-08T05:00:00	5	Humedad	76
134389	7	Sololá	719	Santiago Atitlán	14	Cerro de Oro	2	Febrero	2023-02-28T00:00:00	2024-11-08T05:00:00	6	Velocidad del viento	4.8
134390	7	Sololá	719	Santiago Atitlán	14	Cerro de Oro	2	Febrero	2023-02-28T00:00:00	2024-11-08T05:00:00	7	Dirección del viento	4.83
134391	7	Sololá	719	Santiago Atitlán	14	Cerro de Oro	2	Febrero	2023-02-28T00:00:00	2024-11-08T05:00:00	1	Precipitación	0
134392	7	Sololá	719	Santiago Atitlán	14	Cerro de Oro	2	Febrero	2023-02-28T00:00:00	2024-11-08T05:00:00	8	Radiación solar	0
134393	7	Sololá	719	Santiago Atitlán	14	Cerro de Oro	2	Febrero	2023-02-28T00:00:00	2024-11-08T06:00:00	2	Temperatura media	15.2
134394	7	Sololá	719	Santiago Atitlán	14	Cerro de Oro	2	Febrero	2023-02-28T00:00:00	2024-11-08T06:00:00	4	Temperatura máxima	15.4
134395	7	Sololá	719	Santiago Atitlán	14	Cerro de Oro	2	Febrero	2023-02-28T00:00:00	2024-11-08T06:00:00	3	Temperatura mínima	14.7
134396	7	Sololá	719	Santiago Atitlán	14	Cerro de Oro	2	Febrero	2023-02-28T00:00:00	2024-11-08T06:00:00	5	Humedad	75
134397	7	Sololá	719	Santiago Atitlán	14	Cerro de Oro	2	Febrero	2023-02-28T00:00:00	2024-11-08T06:00:00	6	Velocidad del viento	4.8
134398	7	Sololá	719	Santiago Atitlán	14	Cerro de Oro	2	Febrero	2023-02-28T00:00:00	2024-11-08T06:00:00	7	Dirección del viento	4.83
134399	7	Sololá	719	Santiago Atitlán	14	Cerro de Oro	2	Febrero	2023-02-28T00:00:00	2024-11-08T06:00:00	1	Precipitación	0
134400	7	Sololá	719	Santiago Atitlán	14	Cerro de Oro	2	Febrero	2023-02-28T00:00:00	2024-11-08T06:00:00	8	Radiación solar	0
134401	7	Sololá	719	Santiago Atitlán	14	Cerro de Oro	2	Febrero	2023-02-28T00:00:00	2024-11-08T07:00:00	2	Temperatura media	15.2
134402	7	Sololá	719	Santiago Atitlán	14	Cerro de Oro	2	Febrero	2023-02-28T00:00:00	2024-11-08T07:00:00	4	Temperatura máxima	15.2
134403	7	Sololá	719	Santiago Atitlán	14	Cerro de Oro	2	Febrero	2023-02-28T00:00:00	2024-11-08T07:00:00	3	Temperatura mínima	14.6
134404	7	Sololá	719	Santiago Atitlán	14	Cerro de Oro	2	Febrero	2023-02-28T00:00:00	2024-11-08T07:00:00	5	Humedad	75
134405	7	Sololá	719	Santiago Atitlán	14	Cerro de Oro	2	Febrero	2023-02-28T00:00:00	2024-11-08T07:00:00	6	Velocidad del viento	4.8
134406	7	Sololá	719	Santiago Atitlán	14	Cerro de Oro	2	Febrero	2023-02-28T00:00:00	2024-11-08T07:00:00	7	Dirección del viento	4.83
134407	7	Sololá	719	Santiago Atitlán	14	Cerro de Oro	2	Febrero	2023-02-28T00:00:00	2024-11-08T07:00:00	1	Precipitación	0
134408	7	Sololá	719	Santiago Atitlán	14	Cerro de Oro	2	Febrero	2023-02-28T00:00:00	2024-11-08T07:00:00	8	Radiación solar	15
134409	7	Sololá	719	Santiago Atitlán	14	Cerro de Oro	2	Febrero	2023-02-28T00:00:00	2024-11-08T08:00:00	2	Temperatura media	17.3
134410	7	Sololá	719	Santiago Atitlán	14	Cerro de Oro	2	Febrero	2023-02-28T00:00:00	2024-11-08T08:00:00	4	Temperatura máxima	17.3
134411	7	Sololá	719	Santiago Atitlán	14	Cerro de Oro	2	Febrero	2023-02-28T00:00:00	2024-11-08T08:00:00	3	Temperatura mínima	15.2
134412	7	Sololá	719	Santiago Atitlán	14	Cerro de Oro	2	Febrero	2023-02-28T00:00:00	2024-11-08T08:00:00	5	Humedad	73
134413	7	Sololá	719	Santiago Atitlán	14	Cerro de Oro	2	Febrero	2023-02-28T00:00:00	2024-11-08T08:00:00	6	Velocidad del viento	3.2
134414	7	Sololá	719	Santiago Atitlán	14	Cerro de Oro	2	Febrero	2023-02-28T00:00:00	2024-11-08T08:00:00	7	Dirección del viento	3.22
134415	7	Sololá	719	Santiago Atitlán	14	Cerro de Oro	2	Febrero	2023-02-28T00:00:00	2024-11-08T08:00:00	1	Precipitación	0
134416	7	Sololá	719	Santiago Atitlán	14	Cerro de Oro	2	Febrero	2023-02-28T00:00:00	2024-11-08T08:00:00	8	Radiación solar	172
134417	7	Sololá	719	Santiago Atitlán	14	Cerro de Oro	2	Febrero	2023-02-28T00:00:00	2024-11-08T09:00:00	2	Temperatura media	18
134418	7	Sololá	719	Santiago Atitlán	14	Cerro de Oro	2	Febrero	2023-02-28T00:00:00	2024-11-08T09:00:00	4	Temperatura máxima	18.1
134419	7	Sololá	719	Santiago Atitlán	14	Cerro de Oro	2	Febrero	2023-02-28T00:00:00	2024-11-08T09:00:00	3	Temperatura mínima	17.3
134420	7	Sololá	719	Santiago Atitlán	14	Cerro de Oro	2	Febrero	2023-02-28T00:00:00	2024-11-08T09:00:00	5	Humedad	74
134421	7	Sololá	719	Santiago Atitlán	14	Cerro de Oro	2	Febrero	2023-02-28T00:00:00	2024-11-08T09:00:00	6	Velocidad del viento	3.2
134422	7	Sololá	719	Santiago Atitlán	14	Cerro de Oro	2	Febrero	2023-02-28T00:00:00	2024-11-08T09:00:00	7	Dirección del viento	3.22
134423	7	Sololá	719	Santiago Atitlán	14	Cerro de Oro	2	Febrero	2023-02-28T00:00:00	2024-11-08T09:00:00	1	Precipitación	0
134424	7	Sololá	719	Santiago Atitlán	14	Cerro de Oro	2	Febrero	2023-02-28T00:00:00	2024-11-08T09:00:00	8	Radiación solar	408
134425	7	Sololá	719	Santiago Atitlán	14	Cerro de Oro	2	Febrero	2023-02-28T00:00:00	2024-11-08T10:00:00	2	Temperatura media	19.6
134426	7	Sololá	719	Santiago Atitlán	14	Cerro de Oro	2	Febrero	2023-02-28T00:00:00	2024-11-08T10:00:00	4	Temperatura máxima	19.6
134427	7	Sololá	719	Santiago Atitlán	14	Cerro de Oro	2	Febrero	2023-02-28T00:00:00	2024-11-08T10:00:00	3	Temperatura mínima	18
134428	7	Sololá	719	Santiago Atitlán	14	Cerro de Oro	2	Febrero	2023-02-28T00:00:00	2024-11-08T10:00:00	5	Humedad	72
134429	7	Sololá	719	Santiago Atitlán	14	Cerro de Oro	2	Febrero	2023-02-28T00:00:00	2024-11-08T10:00:00	6	Velocidad del viento	4.8
134430	7	Sololá	719	Santiago Atitlán	14	Cerro de Oro	2	Febrero	2023-02-28T00:00:00	2024-11-08T10:00:00	7	Dirección del viento	4.83
134431	7	Sololá	719	Santiago Atitlán	14	Cerro de Oro	2	Febrero	2023-02-28T00:00:00	2024-11-08T10:00:00	1	Precipitación	0
134432	7	Sololá	719	Santiago Atitlán	14	Cerro de Oro	2	Febrero	2023-02-28T00:00:00	2024-11-08T10:00:00	8	Radiación solar	621
134433	7	Sololá	719	Santiago Atitlán	14	Cerro de Oro	2	Febrero	2023-02-28T00:00:00	2024-11-08T11:00:00	2	Temperatura media	21
134434	7	Sololá	719	Santiago Atitlán	14	Cerro de Oro	2	Febrero	2023-02-28T00:00:00	2024-11-08T11:00:00	4	Temperatura máxima	21
134435	7	Sololá	719	Santiago Atitlán	14	Cerro de Oro	2	Febrero	2023-02-28T00:00:00	2024-11-08T11:00:00	3	Temperatura mínima	19.6
134436	7	Sololá	719	Santiago Atitlán	14	Cerro de Oro	2	Febrero	2023-02-28T00:00:00	2024-11-08T11:00:00	5	Humedad	66
134437	7	Sololá	719	Santiago Atitlán	14	Cerro de Oro	2	Febrero	2023-02-28T00:00:00	2024-11-08T11:00:00	6	Velocidad del viento	4.8
134438	7	Sololá	719	Santiago Atitlán	14	Cerro de Oro	2	Febrero	2023-02-28T00:00:00	2024-11-08T11:00:00	7	Dirección del viento	4.83
134439	7	Sololá	719	Santiago Atitlán	14	Cerro de Oro	2	Febrero	2023-02-28T00:00:00	2024-11-08T11:00:00	1	Precipitación	0
134440	7	Sololá	719	Santiago Atitlán	14	Cerro de Oro	2	Febrero	2023-02-28T00:00:00	2024-11-08T11:00:00	8	Radiación solar	778
134441	7	Sololá	719	Santiago Atitlán	14	Cerro de Oro	2	Febrero	2023-02-28T00:00:00	2024-11-08T12:00:00	2	Temperatura media	22.9
134442	7	Sololá	719	Santiago Atitlán	14	Cerro de Oro	2	Febrero	2023-02-28T00:00:00	2024-11-08T12:00:00	4	Temperatura máxima	22.9
134443	7	Sololá	719	Santiago Atitlán	14	Cerro de Oro	2	Febrero	2023-02-28T00:00:00	2024-11-08T12:00:00	3	Temperatura mínima	20.8
134444	7	Sololá	719	Santiago Atitlán	14	Cerro de Oro	2	Febrero	2023-02-28T00:00:00	2024-11-08T12:00:00	5	Humedad	65
134445	7	Sololá	719	Santiago Atitlán	14	Cerro de Oro	2	Febrero	2023-02-28T00:00:00	2024-11-08T12:00:00	6	Velocidad del viento	6.4
134446	7	Sololá	719	Santiago Atitlán	14	Cerro de Oro	2	Febrero	2023-02-28T00:00:00	2024-11-08T12:00:00	7	Dirección del viento	6.44
134447	7	Sololá	719	Santiago Atitlán	14	Cerro de Oro	2	Febrero	2023-02-28T00:00:00	2024-11-08T12:00:00	1	Precipitación	0
134448	7	Sololá	719	Santiago Atitlán	14	Cerro de Oro	2	Febrero	2023-02-28T00:00:00	2024-11-08T12:00:00	8	Radiación solar	866
134449	7	Sololá	719	Santiago Atitlán	14	Cerro de Oro	2	Febrero	2023-02-28T00:00:00	2024-11-08T13:00:00	2	Temperatura media	22.7
134450	7	Sololá	719	Santiago Atitlán	14	Cerro de Oro	2	Febrero	2023-02-28T00:00:00	2024-11-08T13:00:00	4	Temperatura máxima	22.9
134451	7	Sololá	719	Santiago Atitlán	14	Cerro de Oro	2	Febrero	2023-02-28T00:00:00	2024-11-08T13:00:00	3	Temperatura mínima	22.1
134452	7	Sololá	719	Santiago Atitlán	14	Cerro de Oro	2	Febrero	2023-02-28T00:00:00	2024-11-08T13:00:00	5	Humedad	68
134453	7	Sololá	719	Santiago Atitlán	14	Cerro de Oro	2	Febrero	2023-02-28T00:00:00	2024-11-08T13:00:00	6	Velocidad del viento	11.3
134454	7	Sololá	719	Santiago Atitlán	14	Cerro de Oro	2	Febrero	2023-02-28T00:00:00	2024-11-08T13:00:00	7	Dirección del viento	11.27
134455	7	Sololá	719	Santiago Atitlán	14	Cerro de Oro	2	Febrero	2023-02-28T00:00:00	2024-11-08T13:00:00	1	Precipitación	0
134456	7	Sololá	719	Santiago Atitlán	14	Cerro de Oro	2	Febrero	2023-02-28T00:00:00	2024-11-08T13:00:00	8	Radiación solar	862
134457	7	Sololá	719	Santiago Atitlán	14	Cerro de Oro	2	Febrero	2023-02-28T00:00:00	2024-11-08T14:00:00	2	Temperatura media	22.8
134458	7	Sololá	719	Santiago Atitlán	14	Cerro de Oro	2	Febrero	2023-02-28T00:00:00	2024-11-08T14:00:00	4	Temperatura máxima	23.1
134459	7	Sololá	719	Santiago Atitlán	14	Cerro de Oro	2	Febrero	2023-02-28T00:00:00	2024-11-08T14:00:00	3	Temperatura mínima	22.7
134460	7	Sololá	719	Santiago Atitlán	14	Cerro de Oro	2	Febrero	2023-02-28T00:00:00	2024-11-08T14:00:00	5	Humedad	70
134461	7	Sololá	719	Santiago Atitlán	14	Cerro de Oro	2	Febrero	2023-02-28T00:00:00	2024-11-08T14:00:00	6	Velocidad del viento	12.9
134462	7	Sololá	719	Santiago Atitlán	14	Cerro de Oro	2	Febrero	2023-02-28T00:00:00	2024-11-08T14:00:00	7	Dirección del viento	12.87
134463	7	Sololá	719	Santiago Atitlán	14	Cerro de Oro	2	Febrero	2023-02-28T00:00:00	2024-11-08T14:00:00	1	Precipitación	0
134464	7	Sololá	719	Santiago Atitlán	14	Cerro de Oro	2	Febrero	2023-02-28T00:00:00	2024-11-08T14:00:00	8	Radiación solar	802
134465	7	Sololá	719	Santiago Atitlán	14	Cerro de Oro	2	Febrero	2023-02-28T00:00:00	2024-11-08T15:00:00	2	Temperatura media	21.9
134466	7	Sololá	719	Santiago Atitlán	14	Cerro de Oro	2	Febrero	2023-02-28T00:00:00	2024-11-08T15:00:00	4	Temperatura máxima	23
134467	7	Sololá	719	Santiago Atitlán	14	Cerro de Oro	2	Febrero	2023-02-28T00:00:00	2024-11-08T15:00:00	3	Temperatura mínima	21.9
134468	7	Sololá	719	Santiago Atitlán	14	Cerro de Oro	2	Febrero	2023-02-28T00:00:00	2024-11-08T15:00:00	5	Humedad	74
134469	7	Sololá	719	Santiago Atitlán	14	Cerro de Oro	2	Febrero	2023-02-28T00:00:00	2024-11-08T15:00:00	6	Velocidad del viento	12.9
134470	7	Sololá	719	Santiago Atitlán	14	Cerro de Oro	2	Febrero	2023-02-28T00:00:00	2024-11-08T15:00:00	7	Dirección del viento	12.87
134471	7	Sololá	719	Santiago Atitlán	14	Cerro de Oro	2	Febrero	2023-02-28T00:00:00	2024-11-08T15:00:00	1	Precipitación	0
134472	7	Sololá	719	Santiago Atitlán	14	Cerro de Oro	2	Febrero	2023-02-28T00:00:00	2024-11-08T15:00:00	8	Radiación solar	624
134473	7	Sololá	719	Santiago Atitlán	14	Cerro de Oro	2	Febrero	2023-02-28T00:00:00	2024-11-08T16:00:00	2	Temperatura media	20.7
134474	7	Sololá	719	Santiago Atitlán	14	Cerro de Oro	2	Febrero	2023-02-28T00:00:00	2024-11-08T16:00:00	4	Temperatura máxima	21.9
134475	7	Sololá	719	Santiago Atitlán	14	Cerro de Oro	2	Febrero	2023-02-28T00:00:00	2024-11-08T16:00:00	3	Temperatura mínima	20.7
134476	7	Sololá	719	Santiago Atitlán	14	Cerro de Oro	2	Febrero	2023-02-28T00:00:00	2024-11-08T16:00:00	5	Humedad	80
134477	7	Sololá	719	Santiago Atitlán	14	Cerro de Oro	2	Febrero	2023-02-28T00:00:00	2024-11-08T16:00:00	6	Velocidad del viento	11.3
134478	7	Sololá	719	Santiago Atitlán	14	Cerro de Oro	2	Febrero	2023-02-28T00:00:00	2024-11-08T16:00:00	7	Dirección del viento	11.27
134479	7	Sololá	719	Santiago Atitlán	14	Cerro de Oro	2	Febrero	2023-02-28T00:00:00	2024-11-08T16:00:00	1	Precipitación	0
134480	7	Sololá	719	Santiago Atitlán	14	Cerro de Oro	2	Febrero	2023-02-28T00:00:00	2024-11-08T16:00:00	8	Radiación solar	167
134481	7	Sololá	719	Santiago Atitlán	14	Cerro de Oro	2	Febrero	2023-02-28T00:00:00	2024-11-08T17:00:00	2	Temperatura media	20.5
134482	7	Sololá	719	Santiago Atitlán	14	Cerro de Oro	2	Febrero	2023-02-28T00:00:00	2024-11-08T17:00:00	4	Temperatura máxima	20.7
134483	7	Sololá	719	Santiago Atitlán	14	Cerro de Oro	2	Febrero	2023-02-28T00:00:00	2024-11-08T17:00:00	3	Temperatura mínima	20.5
134484	7	Sololá	719	Santiago Atitlán	14	Cerro de Oro	2	Febrero	2023-02-28T00:00:00	2024-11-08T17:00:00	5	Humedad	81
134485	7	Sololá	719	Santiago Atitlán	14	Cerro de Oro	2	Febrero	2023-02-28T00:00:00	2024-11-08T17:00:00	6	Velocidad del viento	8
134486	7	Sololá	719	Santiago Atitlán	14	Cerro de Oro	2	Febrero	2023-02-28T00:00:00	2024-11-08T17:00:00	7	Dirección del viento	8.05
134487	7	Sololá	719	Santiago Atitlán	14	Cerro de Oro	2	Febrero	2023-02-28T00:00:00	2024-11-08T17:00:00	1	Precipitación	0
134488	7	Sololá	719	Santiago Atitlán	14	Cerro de Oro	2	Febrero	2023-02-28T00:00:00	2024-11-08T17:00:00	8	Radiación solar	83
134489	7	Sololá	719	Santiago Atitlán	14	Cerro de Oro	2	Febrero	2023-02-28T00:00:00	2024-11-08T18:00:00	2	Temperatura media	19.8
134490	7	Sololá	719	Santiago Atitlán	14	Cerro de Oro	2	Febrero	2023-02-28T00:00:00	2024-11-08T18:00:00	4	Temperatura máxima	20.5
134491	7	Sololá	719	Santiago Atitlán	14	Cerro de Oro	2	Febrero	2023-02-28T00:00:00	2024-11-08T18:00:00	3	Temperatura mínima	19.8
134492	7	Sololá	719	Santiago Atitlán	14	Cerro de Oro	2	Febrero	2023-02-28T00:00:00	2024-11-08T18:00:00	5	Humedad	84
134493	7	Sololá	719	Santiago Atitlán	14	Cerro de Oro	2	Febrero	2023-02-28T00:00:00	2024-11-08T18:00:00	6	Velocidad del viento	6.4
134494	7	Sololá	719	Santiago Atitlán	14	Cerro de Oro	2	Febrero	2023-02-28T00:00:00	2024-11-08T18:00:00	7	Dirección del viento	6.44
134495	7	Sololá	719	Santiago Atitlán	14	Cerro de Oro	2	Febrero	2023-02-28T00:00:00	2024-11-08T18:00:00	1	Precipitación	0
134496	7	Sololá	719	Santiago Atitlán	14	Cerro de Oro	2	Febrero	2023-02-28T00:00:00	2024-11-08T18:00:00	8	Radiación solar	29
134497	7	Sololá	719	Santiago Atitlán	14	Cerro de Oro	2	Febrero	2023-02-28T00:00:00	2024-11-08T19:00:00	2	Temperatura media	19.1
134498	7	Sololá	719	Santiago Atitlán	14	Cerro de Oro	2	Febrero	2023-02-28T00:00:00	2024-11-08T19:00:00	4	Temperatura máxima	19.8
134499	7	Sololá	719	Santiago Atitlán	14	Cerro de Oro	2	Febrero	2023-02-28T00:00:00	2024-11-08T19:00:00	3	Temperatura mínima	19.1
134500	7	Sololá	719	Santiago Atitlán	14	Cerro de Oro	2	Febrero	2023-02-28T00:00:00	2024-11-08T19:00:00	5	Humedad	85
134501	7	Sololá	719	Santiago Atitlán	14	Cerro de Oro	2	Febrero	2023-02-28T00:00:00	2024-11-08T19:00:00	6	Velocidad del viento	3.2
134502	7	Sololá	719	Santiago Atitlán	14	Cerro de Oro	2	Febrero	2023-02-28T00:00:00	2024-11-08T19:00:00	7	Dirección del viento	3.22
134503	7	Sololá	719	Santiago Atitlán	14	Cerro de Oro	2	Febrero	2023-02-28T00:00:00	2024-11-08T19:00:00	1	Precipitación	0
134504	7	Sololá	719	Santiago Atitlán	14	Cerro de Oro	2	Febrero	2023-02-28T00:00:00	2024-11-08T19:00:00	8	Radiación solar	0
134505	7	Sololá	719	Santiago Atitlán	14	Cerro de Oro	2	Febrero	2023-02-28T00:00:00	2024-11-08T20:00:00	2	Temperatura media	18.9
134506	7	Sololá	719	Santiago Atitlán	14	Cerro de Oro	2	Febrero	2023-02-28T00:00:00	2024-11-08T20:00:00	4	Temperatura máxima	19.2
134507	7	Sololá	719	Santiago Atitlán	14	Cerro de Oro	2	Febrero	2023-02-28T00:00:00	2024-11-08T20:00:00	3	Temperatura mínima	18.6
134508	7	Sololá	719	Santiago Atitlán	14	Cerro de Oro	2	Febrero	2023-02-28T00:00:00	2024-11-08T20:00:00	5	Humedad	84
134509	7	Sololá	719	Santiago Atitlán	14	Cerro de Oro	2	Febrero	2023-02-28T00:00:00	2024-11-08T20:00:00	6	Velocidad del viento	3.2
134510	7	Sololá	719	Santiago Atitlán	14	Cerro de Oro	2	Febrero	2023-02-28T00:00:00	2024-11-08T20:00:00	7	Dirección del viento	3.22
134511	7	Sololá	719	Santiago Atitlán	14	Cerro de Oro	2	Febrero	2023-02-28T00:00:00	2024-11-08T20:00:00	1	Precipitación	0
134512	7	Sololá	719	Santiago Atitlán	14	Cerro de Oro	2	Febrero	2023-02-28T00:00:00	2024-11-08T20:00:00	8	Radiación solar	0
134513	7	Sololá	719	Santiago Atitlán	14	Cerro de Oro	2	Febrero	2023-02-28T00:00:00	2024-11-08T21:00:00	2	Temperatura media	17.8
134514	7	Sololá	719	Santiago Atitlán	14	Cerro de Oro	2	Febrero	2023-02-28T00:00:00	2024-11-08T21:00:00	4	Temperatura máxima	18.9
134515	7	Sololá	719	Santiago Atitlán	14	Cerro de Oro	2	Febrero	2023-02-28T00:00:00	2024-11-08T21:00:00	3	Temperatura mínima	17.8
134516	7	Sololá	719	Santiago Atitlán	14	Cerro de Oro	2	Febrero	2023-02-28T00:00:00	2024-11-08T21:00:00	5	Humedad	86
134517	7	Sololá	719	Santiago Atitlán	14	Cerro de Oro	2	Febrero	2023-02-28T00:00:00	2024-11-08T21:00:00	6	Velocidad del viento	4.8
134518	7	Sololá	719	Santiago Atitlán	14	Cerro de Oro	2	Febrero	2023-02-28T00:00:00	2024-11-08T21:00:00	7	Dirección del viento	4.83
134519	7	Sololá	719	Santiago Atitlán	14	Cerro de Oro	2	Febrero	2023-02-28T00:00:00	2024-11-08T21:00:00	1	Precipitación	0
134520	7	Sololá	719	Santiago Atitlán	14	Cerro de Oro	2	Febrero	2023-02-28T00:00:00	2024-11-08T21:00:00	8	Radiación solar	0
134521	7	Sololá	719	Santiago Atitlán	14	Cerro de Oro	2	Febrero	2023-02-28T00:00:00	2024-11-08T22:00:00	2	Temperatura media	18.3
134522	7	Sololá	719	Santiago Atitlán	14	Cerro de Oro	2	Febrero	2023-02-28T00:00:00	2024-11-08T22:00:00	4	Temperatura máxima	18.4
134523	7	Sololá	719	Santiago Atitlán	14	Cerro de Oro	2	Febrero	2023-02-28T00:00:00	2024-11-08T22:00:00	3	Temperatura mínima	17.4
134524	7	Sololá	719	Santiago Atitlán	14	Cerro de Oro	2	Febrero	2023-02-28T00:00:00	2024-11-08T22:00:00	5	Humedad	88
134525	7	Sololá	719	Santiago Atitlán	14	Cerro de Oro	2	Febrero	2023-02-28T00:00:00	2024-11-08T22:00:00	6	Velocidad del viento	3.2
134526	7	Sololá	719	Santiago Atitlán	14	Cerro de Oro	2	Febrero	2023-02-28T00:00:00	2024-11-08T22:00:00	7	Dirección del viento	3.22
134527	7	Sololá	719	Santiago Atitlán	14	Cerro de Oro	2	Febrero	2023-02-28T00:00:00	2024-11-08T22:00:00	1	Precipitación	0
134528	7	Sololá	719	Santiago Atitlán	14	Cerro de Oro	2	Febrero	2023-02-28T00:00:00	2024-11-08T22:00:00	8	Radiación solar	0
134529	7	Sololá	719	Santiago Atitlán	14	Cerro de Oro	2	Febrero	2023-02-28T00:00:00	2024-11-08T23:00:00	2	Temperatura media	17.7
134530	7	Sololá	719	Santiago Atitlán	14	Cerro de Oro	2	Febrero	2023-02-28T00:00:00	2024-11-08T23:00:00	4	Temperatura máxima	18.3
134531	7	Sololá	719	Santiago Atitlán	14	Cerro de Oro	2	Febrero	2023-02-28T00:00:00	2024-11-08T23:00:00	3	Temperatura mínima	17.7
134532	7	Sololá	719	Santiago Atitlán	14	Cerro de Oro	2	Febrero	2023-02-28T00:00:00	2024-11-08T23:00:00	5	Humedad	80
134533	7	Sololá	719	Santiago Atitlán	14	Cerro de Oro	2	Febrero	2023-02-28T00:00:00	2024-11-08T23:00:00	6	Velocidad del viento	4.8
134534	7	Sololá	719	Santiago Atitlán	14	Cerro de Oro	2	Febrero	2023-02-28T00:00:00	2024-11-08T23:00:00	7	Dirección del viento	4.83
134535	7	Sololá	719	Santiago Atitlán	14	Cerro de Oro	2	Febrero	2023-02-28T00:00:00	2024-11-08T23:00:00	1	Precipitación	0
134536	7	Sololá	719	Santiago Atitlán	14	Cerro de Oro	2	Febrero	2023-02-28T00:00:00	2024-11-08T23:00:00	8	Radiación solar	0
134537	7	Sololá	719	Santiago Atitlán	14	Cerro de Oro	3	Marzo	2023-01-03T00:00:00	2024-11-08T00:00:00	2	Temperatura media	17.3
134538	7	Sololá	719	Santiago Atitlán	14	Cerro de Oro	3	Marzo	2023-01-03T00:00:00	2024-11-08T00:00:00	4	Temperatura máxima	17.8
134539	7	Sololá	719	Santiago Atitlán	14	Cerro de Oro	3	Marzo	2023-01-03T00:00:00	2024-11-08T00:00:00	3	Temperatura mínima	16.9
134540	7	Sololá	719	Santiago Atitlán	14	Cerro de Oro	3	Marzo	2023-01-03T00:00:00	2024-11-08T00:00:00	5	Humedad	71
134541	7	Sololá	719	Santiago Atitlán	14	Cerro de Oro	3	Marzo	2023-01-03T00:00:00	2024-11-08T00:00:00	6	Velocidad del viento	4.8
134542	7	Sololá	719	Santiago Atitlán	14	Cerro de Oro	3	Marzo	2023-01-03T00:00:00	2024-11-08T00:00:00	7	Dirección del viento	4.83
134543	7	Sololá	719	Santiago Atitlán	14	Cerro de Oro	3	Marzo	2023-01-03T00:00:00	2024-11-08T00:00:00	1	Precipitación	0
134544	7	Sololá	719	Santiago Atitlán	14	Cerro de Oro	3	Marzo	2023-01-03T00:00:00	2024-11-08T00:00:00	8	Radiación solar	0
134545	7	Sololá	719	Santiago Atitlán	14	Cerro de Oro	3	Marzo	2023-01-03T00:00:00	2024-11-08T01:00:00	2	Temperatura media	16.7
134546	7	Sololá	719	Santiago Atitlán	14	Cerro de Oro	3	Marzo	2023-01-03T00:00:00	2024-11-08T01:00:00	4	Temperatura máxima	17.6
134547	7	Sololá	719	Santiago Atitlán	14	Cerro de Oro	3	Marzo	2023-01-03T00:00:00	2024-11-08T01:00:00	3	Temperatura mínima	16.6
134548	7	Sololá	719	Santiago Atitlán	14	Cerro de Oro	3	Marzo	2023-01-03T00:00:00	2024-11-08T01:00:00	5	Humedad	69
134549	7	Sololá	719	Santiago Atitlán	14	Cerro de Oro	3	Marzo	2023-01-03T00:00:00	2024-11-08T01:00:00	6	Velocidad del viento	3.2
134550	7	Sololá	719	Santiago Atitlán	14	Cerro de Oro	3	Marzo	2023-01-03T00:00:00	2024-11-08T01:00:00	7	Dirección del viento	3.22
134551	7	Sololá	719	Santiago Atitlán	14	Cerro de Oro	3	Marzo	2023-01-03T00:00:00	2024-11-08T01:00:00	1	Precipitación	0
134552	7	Sololá	719	Santiago Atitlán	14	Cerro de Oro	3	Marzo	2023-01-03T00:00:00	2024-11-08T01:00:00	8	Radiación solar	0
134553	7	Sololá	719	Santiago Atitlán	14	Cerro de Oro	3	Marzo	2023-01-03T00:00:00	2024-11-08T02:00:00	2	Temperatura media	16.8
134554	7	Sololá	719	Santiago Atitlán	14	Cerro de Oro	3	Marzo	2023-01-03T00:00:00	2024-11-08T02:00:00	4	Temperatura máxima	16.9
134555	7	Sololá	719	Santiago Atitlán	14	Cerro de Oro	3	Marzo	2023-01-03T00:00:00	2024-11-08T02:00:00	3	Temperatura mínima	16.6
134556	7	Sololá	719	Santiago Atitlán	14	Cerro de Oro	3	Marzo	2023-01-03T00:00:00	2024-11-08T02:00:00	5	Humedad	66
134557	7	Sololá	719	Santiago Atitlán	14	Cerro de Oro	3	Marzo	2023-01-03T00:00:00	2024-11-08T02:00:00	6	Velocidad del viento	4.8
134558	7	Sololá	719	Santiago Atitlán	14	Cerro de Oro	3	Marzo	2023-01-03T00:00:00	2024-11-08T02:00:00	7	Dirección del viento	4.83
134559	7	Sololá	719	Santiago Atitlán	14	Cerro de Oro	3	Marzo	2023-01-03T00:00:00	2024-11-08T02:00:00	1	Precipitación	0
134560	7	Sololá	719	Santiago Atitlán	14	Cerro de Oro	3	Marzo	2023-01-03T00:00:00	2024-11-08T02:00:00	8	Radiación solar	0
134561	7	Sololá	719	Santiago Atitlán	14	Cerro de Oro	3	Marzo	2023-01-03T00:00:00	2024-11-08T03:00:00	2	Temperatura media	16.1
134562	7	Sololá	719	Santiago Atitlán	14	Cerro de Oro	3	Marzo	2023-01-03T00:00:00	2024-11-08T03:00:00	4	Temperatura máxima	16.8
134563	7	Sololá	719	Santiago Atitlán	14	Cerro de Oro	3	Marzo	2023-01-03T00:00:00	2024-11-08T03:00:00	3	Temperatura mínima	16.1
134564	7	Sololá	719	Santiago Atitlán	14	Cerro de Oro	3	Marzo	2023-01-03T00:00:00	2024-11-08T03:00:00	5	Humedad	65
134565	7	Sololá	719	Santiago Atitlán	14	Cerro de Oro	3	Marzo	2023-01-03T00:00:00	2024-11-08T03:00:00	6	Velocidad del viento	4.8
134566	7	Sololá	719	Santiago Atitlán	14	Cerro de Oro	3	Marzo	2023-01-03T00:00:00	2024-11-08T03:00:00	7	Dirección del viento	4.83
134567	7	Sololá	719	Santiago Atitlán	14	Cerro de Oro	3	Marzo	2023-01-03T00:00:00	2024-11-08T03:00:00	1	Precipitación	0
134568	7	Sololá	719	Santiago Atitlán	14	Cerro de Oro	3	Marzo	2023-01-03T00:00:00	2024-11-08T03:00:00	8	Radiación solar	0
134569	7	Sololá	719	Santiago Atitlán	14	Cerro de Oro	3	Marzo	2023-01-03T00:00:00	2024-11-08T04:00:00	2	Temperatura media	16.1
134570	7	Sololá	719	Santiago Atitlán	14	Cerro de Oro	3	Marzo	2023-01-03T00:00:00	2024-11-08T04:00:00	4	Temperatura máxima	16.2
134571	7	Sololá	719	Santiago Atitlán	14	Cerro de Oro	3	Marzo	2023-01-03T00:00:00	2024-11-08T04:00:00	3	Temperatura mínima	15.5
134572	7	Sololá	719	Santiago Atitlán	14	Cerro de Oro	3	Marzo	2023-01-03T00:00:00	2024-11-08T04:00:00	5	Humedad	64
134573	7	Sololá	719	Santiago Atitlán	14	Cerro de Oro	3	Marzo	2023-01-03T00:00:00	2024-11-08T04:00:00	6	Velocidad del viento	4.8
134574	7	Sololá	719	Santiago Atitlán	14	Cerro de Oro	3	Marzo	2023-01-03T00:00:00	2024-11-08T04:00:00	7	Dirección del viento	4.83
134575	7	Sololá	719	Santiago Atitlán	14	Cerro de Oro	3	Marzo	2023-01-03T00:00:00	2024-11-08T04:00:00	1	Precipitación	0
134576	7	Sololá	719	Santiago Atitlán	14	Cerro de Oro	3	Marzo	2023-01-03T00:00:00	2024-11-08T04:00:00	8	Radiación solar	0
134577	7	Sololá	719	Santiago Atitlán	14	Cerro de Oro	3	Marzo	2023-01-03T00:00:00	2024-11-08T05:00:00	2	Temperatura media	15.3
134578	7	Sololá	719	Santiago Atitlán	14	Cerro de Oro	3	Marzo	2023-01-03T00:00:00	2024-11-08T05:00:00	4	Temperatura máxima	16.1
134579	7	Sololá	719	Santiago Atitlán	14	Cerro de Oro	3	Marzo	2023-01-03T00:00:00	2024-11-08T05:00:00	3	Temperatura mínima	15.3
134580	7	Sololá	719	Santiago Atitlán	14	Cerro de Oro	3	Marzo	2023-01-03T00:00:00	2024-11-08T05:00:00	5	Humedad	68
134581	7	Sololá	719	Santiago Atitlán	14	Cerro de Oro	3	Marzo	2023-01-03T00:00:00	2024-11-08T05:00:00	6	Velocidad del viento	4.8
134582	7	Sololá	719	Santiago Atitlán	14	Cerro de Oro	3	Marzo	2023-01-03T00:00:00	2024-11-08T05:00:00	7	Dirección del viento	4.83
134583	7	Sololá	719	Santiago Atitlán	14	Cerro de Oro	3	Marzo	2023-01-03T00:00:00	2024-11-08T05:00:00	1	Precipitación	0
134584	7	Sololá	719	Santiago Atitlán	14	Cerro de Oro	3	Marzo	2023-01-03T00:00:00	2024-11-08T05:00:00	8	Radiación solar	0
134585	7	Sololá	719	Santiago Atitlán	14	Cerro de Oro	3	Marzo	2023-01-03T00:00:00	2024-11-08T06:00:00	2	Temperatura media	15.5
134586	7	Sololá	719	Santiago Atitlán	14	Cerro de Oro	3	Marzo	2023-01-03T00:00:00	2024-11-08T06:00:00	4	Temperatura máxima	15.7
134587	7	Sololá	719	Santiago Atitlán	14	Cerro de Oro	3	Marzo	2023-01-03T00:00:00	2024-11-08T06:00:00	3	Temperatura mínima	15.2
134588	7	Sololá	719	Santiago Atitlán	14	Cerro de Oro	3	Marzo	2023-01-03T00:00:00	2024-11-08T06:00:00	5	Humedad	65
134589	7	Sololá	719	Santiago Atitlán	14	Cerro de Oro	3	Marzo	2023-01-03T00:00:00	2024-11-08T06:00:00	6	Velocidad del viento	4.8
134590	7	Sololá	719	Santiago Atitlán	14	Cerro de Oro	3	Marzo	2023-01-03T00:00:00	2024-11-08T06:00:00	7	Dirección del viento	4.83
134591	7	Sololá	719	Santiago Atitlán	14	Cerro de Oro	3	Marzo	2023-01-03T00:00:00	2024-11-08T06:00:00	1	Precipitación	0
134592	7	Sololá	719	Santiago Atitlán	14	Cerro de Oro	3	Marzo	2023-01-03T00:00:00	2024-11-08T06:00:00	8	Radiación solar	0
134593	7	Sololá	719	Santiago Atitlán	14	Cerro de Oro	3	Marzo	2023-01-03T00:00:00	2024-11-08T07:00:00	2	Temperatura media	16.1
134594	7	Sololá	719	Santiago Atitlán	14	Cerro de Oro	3	Marzo	2023-01-03T00:00:00	2024-11-08T07:00:00	4	Temperatura máxima	16.1
134595	7	Sololá	719	Santiago Atitlán	14	Cerro de Oro	3	Marzo	2023-01-03T00:00:00	2024-11-08T07:00:00	3	Temperatura mínima	15.3
134596	7	Sololá	719	Santiago Atitlán	14	Cerro de Oro	3	Marzo	2023-01-03T00:00:00	2024-11-08T07:00:00	5	Humedad	63
134597	7	Sololá	719	Santiago Atitlán	14	Cerro de Oro	3	Marzo	2023-01-03T00:00:00	2024-11-08T07:00:00	6	Velocidad del viento	6.4
134598	7	Sololá	719	Santiago Atitlán	14	Cerro de Oro	3	Marzo	2023-01-03T00:00:00	2024-11-08T07:00:00	7	Dirección del viento	6.44
134599	7	Sololá	719	Santiago Atitlán	14	Cerro de Oro	3	Marzo	2023-01-03T00:00:00	2024-11-08T07:00:00	1	Precipitación	0
134600	7	Sololá	719	Santiago Atitlán	14	Cerro de Oro	3	Marzo	2023-01-03T00:00:00	2024-11-08T07:00:00	8	Radiación solar	16
134601	7	Sololá	719	Santiago Atitlán	14	Cerro de Oro	3	Marzo	2023-01-03T00:00:00	2024-11-08T08:00:00	2	Temperatura media	17.6
134602	7	Sololá	719	Santiago Atitlán	14	Cerro de Oro	3	Marzo	2023-01-03T00:00:00	2024-11-08T08:00:00	4	Temperatura máxima	17.7
134603	7	Sololá	719	Santiago Atitlán	14	Cerro de Oro	3	Marzo	2023-01-03T00:00:00	2024-11-08T08:00:00	3	Temperatura mínima	16.1
134604	7	Sololá	719	Santiago Atitlán	14	Cerro de Oro	3	Marzo	2023-01-03T00:00:00	2024-11-08T08:00:00	5	Humedad	62
134605	7	Sololá	719	Santiago Atitlán	14	Cerro de Oro	3	Marzo	2023-01-03T00:00:00	2024-11-08T08:00:00	6	Velocidad del viento	4.8
134606	7	Sololá	719	Santiago Atitlán	14	Cerro de Oro	3	Marzo	2023-01-03T00:00:00	2024-11-08T08:00:00	7	Dirección del viento	4.83
134607	7	Sololá	719	Santiago Atitlán	14	Cerro de Oro	3	Marzo	2023-01-03T00:00:00	2024-11-08T08:00:00	1	Precipitación	0
134608	7	Sololá	719	Santiago Atitlán	14	Cerro de Oro	3	Marzo	2023-01-03T00:00:00	2024-11-08T08:00:00	8	Radiación solar	183
134609	7	Sololá	719	Santiago Atitlán	14	Cerro de Oro	3	Marzo	2023-01-03T00:00:00	2024-11-08T09:00:00	2	Temperatura media	18.3
134610	7	Sololá	719	Santiago Atitlán	14	Cerro de Oro	3	Marzo	2023-01-03T00:00:00	2024-11-08T09:00:00	4	Temperatura máxima	18.7
134611	7	Sololá	719	Santiago Atitlán	14	Cerro de Oro	3	Marzo	2023-01-03T00:00:00	2024-11-08T09:00:00	3	Temperatura mínima	17.7
134612	7	Sololá	719	Santiago Atitlán	14	Cerro de Oro	3	Marzo	2023-01-03T00:00:00	2024-11-08T09:00:00	5	Humedad	72
134613	7	Sololá	719	Santiago Atitlán	14	Cerro de Oro	3	Marzo	2023-01-03T00:00:00	2024-11-08T09:00:00	6	Velocidad del viento	4.8
134614	7	Sololá	719	Santiago Atitlán	14	Cerro de Oro	3	Marzo	2023-01-03T00:00:00	2024-11-08T09:00:00	7	Dirección del viento	4.83
134615	7	Sololá	719	Santiago Atitlán	14	Cerro de Oro	3	Marzo	2023-01-03T00:00:00	2024-11-08T09:00:00	1	Precipitación	0
134616	7	Sololá	719	Santiago Atitlán	14	Cerro de Oro	3	Marzo	2023-01-03T00:00:00	2024-11-08T09:00:00	8	Radiación solar	428
134617	7	Sololá	719	Santiago Atitlán	14	Cerro de Oro	3	Marzo	2023-01-03T00:00:00	2024-11-08T10:00:00	2	Temperatura media	19.8
134618	7	Sololá	719	Santiago Atitlán	14	Cerro de Oro	3	Marzo	2023-01-03T00:00:00	2024-11-08T10:00:00	4	Temperatura máxima	19.8
134619	7	Sololá	719	Santiago Atitlán	14	Cerro de Oro	3	Marzo	2023-01-03T00:00:00	2024-11-08T10:00:00	3	Temperatura mínima	18.3
134620	7	Sololá	719	Santiago Atitlán	14	Cerro de Oro	3	Marzo	2023-01-03T00:00:00	2024-11-08T10:00:00	5	Humedad	67
134621	7	Sololá	719	Santiago Atitlán	14	Cerro de Oro	3	Marzo	2023-01-03T00:00:00	2024-11-08T10:00:00	6	Velocidad del viento	4.8
134622	7	Sololá	719	Santiago Atitlán	14	Cerro de Oro	3	Marzo	2023-01-03T00:00:00	2024-11-08T10:00:00	7	Dirección del viento	4.83
134623	7	Sololá	719	Santiago Atitlán	14	Cerro de Oro	3	Marzo	2023-01-03T00:00:00	2024-11-08T10:00:00	1	Precipitación	0
134624	7	Sololá	719	Santiago Atitlán	14	Cerro de Oro	3	Marzo	2023-01-03T00:00:00	2024-11-08T10:00:00	8	Radiación solar	624
134625	7	Sololá	719	Santiago Atitlán	14	Cerro de Oro	3	Marzo	2023-01-03T00:00:00	2024-11-08T11:00:00	2	Temperatura media	21.4
134626	7	Sololá	719	Santiago Atitlán	14	Cerro de Oro	3	Marzo	2023-01-03T00:00:00	2024-11-08T11:00:00	4	Temperatura máxima	21.4
134627	7	Sololá	719	Santiago Atitlán	14	Cerro de Oro	3	Marzo	2023-01-03T00:00:00	2024-11-08T11:00:00	3	Temperatura mínima	19.6
134628	7	Sololá	719	Santiago Atitlán	14	Cerro de Oro	3	Marzo	2023-01-03T00:00:00	2024-11-08T11:00:00	5	Humedad	64
134629	7	Sololá	719	Santiago Atitlán	14	Cerro de Oro	3	Marzo	2023-01-03T00:00:00	2024-11-08T11:00:00	6	Velocidad del viento	6.4
134630	7	Sololá	719	Santiago Atitlán	14	Cerro de Oro	3	Marzo	2023-01-03T00:00:00	2024-11-08T11:00:00	7	Dirección del viento	6.44
134631	7	Sololá	719	Santiago Atitlán	14	Cerro de Oro	3	Marzo	2023-01-03T00:00:00	2024-11-08T11:00:00	1	Precipitación	0
134632	7	Sololá	719	Santiago Atitlán	14	Cerro de Oro	3	Marzo	2023-01-03T00:00:00	2024-11-08T11:00:00	8	Radiación solar	775
134633	7	Sololá	719	Santiago Atitlán	14	Cerro de Oro	3	Marzo	2023-01-03T00:00:00	2024-11-08T12:00:00	2	Temperatura media	22
134634	7	Sololá	719	Santiago Atitlán	14	Cerro de Oro	3	Marzo	2023-01-03T00:00:00	2024-11-08T12:00:00	4	Temperatura máxima	23.2
134635	7	Sololá	719	Santiago Atitlán	14	Cerro de Oro	3	Marzo	2023-01-03T00:00:00	2024-11-08T12:00:00	3	Temperatura mínima	21.4
134636	7	Sololá	719	Santiago Atitlán	14	Cerro de Oro	3	Marzo	2023-01-03T00:00:00	2024-11-08T12:00:00	5	Humedad	70
134637	7	Sololá	719	Santiago Atitlán	14	Cerro de Oro	3	Marzo	2023-01-03T00:00:00	2024-11-08T12:00:00	6	Velocidad del viento	11.3
134638	7	Sololá	719	Santiago Atitlán	14	Cerro de Oro	3	Marzo	2023-01-03T00:00:00	2024-11-08T12:00:00	7	Dirección del viento	11.27
134639	7	Sololá	719	Santiago Atitlán	14	Cerro de Oro	3	Marzo	2023-01-03T00:00:00	2024-11-08T12:00:00	1	Precipitación	0
134640	7	Sololá	719	Santiago Atitlán	14	Cerro de Oro	3	Marzo	2023-01-03T00:00:00	2024-11-08T12:00:00	8	Radiación solar	855
134641	7	Sololá	719	Santiago Atitlán	14	Cerro de Oro	3	Marzo	2023-01-03T00:00:00	2024-11-08T13:00:00	2	Temperatura media	22.8
134642	7	Sololá	719	Santiago Atitlán	14	Cerro de Oro	3	Marzo	2023-01-03T00:00:00	2024-11-08T13:00:00	4	Temperatura máxima	23
134643	7	Sololá	719	Santiago Atitlán	14	Cerro de Oro	3	Marzo	2023-01-03T00:00:00	2024-11-08T13:00:00	3	Temperatura mínima	21.8
134644	7	Sololá	719	Santiago Atitlán	14	Cerro de Oro	3	Marzo	2023-01-03T00:00:00	2024-11-08T13:00:00	5	Humedad	68
134645	7	Sololá	719	Santiago Atitlán	14	Cerro de Oro	3	Marzo	2023-01-03T00:00:00	2024-11-08T13:00:00	6	Velocidad del viento	12.9
134646	7	Sololá	719	Santiago Atitlán	14	Cerro de Oro	3	Marzo	2023-01-03T00:00:00	2024-11-08T13:00:00	7	Dirección del viento	12.87
134647	7	Sololá	719	Santiago Atitlán	14	Cerro de Oro	3	Marzo	2023-01-03T00:00:00	2024-11-08T13:00:00	1	Precipitación	0
134648	7	Sololá	719	Santiago Atitlán	14	Cerro de Oro	3	Marzo	2023-01-03T00:00:00	2024-11-08T13:00:00	8	Radiación solar	866
134649	7	Sololá	719	Santiago Atitlán	14	Cerro de Oro	3	Marzo	2023-01-03T00:00:00	2024-11-08T14:00:00	2	Temperatura media	22.7
134650	7	Sololá	719	Santiago Atitlán	14	Cerro de Oro	3	Marzo	2023-01-03T00:00:00	2024-11-08T14:00:00	4	Temperatura máxima	23.2
134651	7	Sololá	719	Santiago Atitlán	14	Cerro de Oro	3	Marzo	2023-01-03T00:00:00	2024-11-08T14:00:00	3	Temperatura mínima	22.3
134652	7	Sololá	719	Santiago Atitlán	14	Cerro de Oro	3	Marzo	2023-01-03T00:00:00	2024-11-08T14:00:00	5	Humedad	71
134653	7	Sololá	719	Santiago Atitlán	14	Cerro de Oro	3	Marzo	2023-01-03T00:00:00	2024-11-08T14:00:00	6	Velocidad del viento	11.3
134654	7	Sololá	719	Santiago Atitlán	14	Cerro de Oro	3	Marzo	2023-01-03T00:00:00	2024-11-08T14:00:00	7	Dirección del viento	11.27
134655	7	Sololá	719	Santiago Atitlán	14	Cerro de Oro	3	Marzo	2023-01-03T00:00:00	2024-11-08T14:00:00	1	Precipitación	0
134656	7	Sololá	719	Santiago Atitlán	14	Cerro de Oro	3	Marzo	2023-01-03T00:00:00	2024-11-08T14:00:00	8	Radiación solar	735
134657	7	Sololá	719	Santiago Atitlán	14	Cerro de Oro	3	Marzo	2023-01-03T00:00:00	2024-11-08T15:00:00	2	Temperatura media	21.4
134658	7	Sololá	719	Santiago Atitlán	14	Cerro de Oro	3	Marzo	2023-01-03T00:00:00	2024-11-08T15:00:00	4	Temperatura máxima	22.7
134659	7	Sololá	719	Santiago Atitlán	14	Cerro de Oro	3	Marzo	2023-01-03T00:00:00	2024-11-08T15:00:00	3	Temperatura mínima	21.4
134660	7	Sololá	719	Santiago Atitlán	14	Cerro de Oro	3	Marzo	2023-01-03T00:00:00	2024-11-08T15:00:00	5	Humedad	76
134661	7	Sololá	719	Santiago Atitlán	14	Cerro de Oro	3	Marzo	2023-01-03T00:00:00	2024-11-08T15:00:00	6	Velocidad del viento	9.7
134662	7	Sololá	719	Santiago Atitlán	14	Cerro de Oro	3	Marzo	2023-01-03T00:00:00	2024-11-08T15:00:00	7	Dirección del viento	9.66
134663	7	Sololá	719	Santiago Atitlán	14	Cerro de Oro	3	Marzo	2023-01-03T00:00:00	2024-11-08T15:00:00	1	Precipitación	0
134664	7	Sololá	719	Santiago Atitlán	14	Cerro de Oro	3	Marzo	2023-01-03T00:00:00	2024-11-08T15:00:00	8	Radiación solar	228
134665	7	Sololá	719	Santiago Atitlán	14	Cerro de Oro	3	Marzo	2023-01-03T00:00:00	2024-11-08T16:00:00	2	Temperatura media	20.9
134666	7	Sololá	719	Santiago Atitlán	14	Cerro de Oro	3	Marzo	2023-01-03T00:00:00	2024-11-08T16:00:00	4	Temperatura máxima	21.4
134667	7	Sololá	719	Santiago Atitlán	14	Cerro de Oro	3	Marzo	2023-01-03T00:00:00	2024-11-08T16:00:00	3	Temperatura mínima	20.8
134668	7	Sololá	719	Santiago Atitlán	14	Cerro de Oro	3	Marzo	2023-01-03T00:00:00	2024-11-08T16:00:00	5	Humedad	79
134669	7	Sololá	719	Santiago Atitlán	14	Cerro de Oro	3	Marzo	2023-01-03T00:00:00	2024-11-08T16:00:00	6	Velocidad del viento	9.7
134670	7	Sololá	719	Santiago Atitlán	14	Cerro de Oro	3	Marzo	2023-01-03T00:00:00	2024-11-08T16:00:00	7	Dirección del viento	9.66
134671	7	Sololá	719	Santiago Atitlán	14	Cerro de Oro	3	Marzo	2023-01-03T00:00:00	2024-11-08T16:00:00	1	Precipitación	0
134672	7	Sololá	719	Santiago Atitlán	14	Cerro de Oro	3	Marzo	2023-01-03T00:00:00	2024-11-08T16:00:00	8	Radiación solar	150
134673	7	Sololá	719	Santiago Atitlán	14	Cerro de Oro	3	Marzo	2023-01-03T00:00:00	2024-11-08T17:00:00	2	Temperatura media	20.1
134674	7	Sololá	719	Santiago Atitlán	14	Cerro de Oro	3	Marzo	2023-01-03T00:00:00	2024-11-08T17:00:00	4	Temperatura máxima	20.9
134675	7	Sololá	719	Santiago Atitlán	14	Cerro de Oro	3	Marzo	2023-01-03T00:00:00	2024-11-08T17:00:00	3	Temperatura mínima	20
134676	7	Sololá	719	Santiago Atitlán	14	Cerro de Oro	3	Marzo	2023-01-03T00:00:00	2024-11-08T17:00:00	5	Humedad	83
134677	7	Sololá	719	Santiago Atitlán	14	Cerro de Oro	3	Marzo	2023-01-03T00:00:00	2024-11-08T17:00:00	6	Velocidad del viento	9.7
134678	7	Sololá	719	Santiago Atitlán	14	Cerro de Oro	3	Marzo	2023-01-03T00:00:00	2024-11-08T17:00:00	7	Dirección del viento	9.66
134679	7	Sololá	719	Santiago Atitlán	14	Cerro de Oro	3	Marzo	2023-01-03T00:00:00	2024-11-08T17:00:00	1	Precipitación	0
134680	7	Sololá	719	Santiago Atitlán	14	Cerro de Oro	3	Marzo	2023-01-03T00:00:00	2024-11-08T17:00:00	8	Radiación solar	88
134681	7	Sololá	719	Santiago Atitlán	14	Cerro de Oro	3	Marzo	2023-01-03T00:00:00	2024-11-08T18:00:00	2	Temperatura media	19.8
134682	7	Sololá	719	Santiago Atitlán	14	Cerro de Oro	3	Marzo	2023-01-03T00:00:00	2024-11-08T18:00:00	4	Temperatura máxima	20.1
134683	7	Sololá	719	Santiago Atitlán	14	Cerro de Oro	3	Marzo	2023-01-03T00:00:00	2024-11-08T18:00:00	3	Temperatura mínima	19.8
134684	7	Sololá	719	Santiago Atitlán	14	Cerro de Oro	3	Marzo	2023-01-03T00:00:00	2024-11-08T18:00:00	5	Humedad	85
134685	7	Sololá	719	Santiago Atitlán	14	Cerro de Oro	3	Marzo	2023-01-03T00:00:00	2024-11-08T18:00:00	6	Velocidad del viento	4.8
134686	7	Sololá	719	Santiago Atitlán	14	Cerro de Oro	3	Marzo	2023-01-03T00:00:00	2024-11-08T18:00:00	7	Dirección del viento	4.83
134687	7	Sololá	719	Santiago Atitlán	14	Cerro de Oro	3	Marzo	2023-01-03T00:00:00	2024-11-08T18:00:00	1	Precipitación	0
134688	7	Sololá	719	Santiago Atitlán	14	Cerro de Oro	3	Marzo	2023-01-03T00:00:00	2024-11-08T18:00:00	8	Radiación solar	24
134689	7	Sololá	719	Santiago Atitlán	14	Cerro de Oro	3	Marzo	2023-01-03T00:00:00	2024-11-08T19:00:00	2	Temperatura media	19.2
134690	7	Sololá	719	Santiago Atitlán	14	Cerro de Oro	3	Marzo	2023-01-03T00:00:00	2024-11-08T19:00:00	4	Temperatura máxima	19.8
134691	7	Sololá	719	Santiago Atitlán	14	Cerro de Oro	3	Marzo	2023-01-03T00:00:00	2024-11-08T19:00:00	3	Temperatura mínima	19.2
134692	7	Sololá	719	Santiago Atitlán	14	Cerro de Oro	3	Marzo	2023-01-03T00:00:00	2024-11-08T19:00:00	5	Humedad	87
134693	7	Sololá	719	Santiago Atitlán	14	Cerro de Oro	3	Marzo	2023-01-03T00:00:00	2024-11-08T19:00:00	6	Velocidad del viento	4.8
134694	7	Sololá	719	Santiago Atitlán	14	Cerro de Oro	3	Marzo	2023-01-03T00:00:00	2024-11-08T19:00:00	7	Dirección del viento	4.83
134695	7	Sololá	719	Santiago Atitlán	14	Cerro de Oro	3	Marzo	2023-01-03T00:00:00	2024-11-08T19:00:00	1	Precipitación	0
134696	7	Sololá	719	Santiago Atitlán	14	Cerro de Oro	3	Marzo	2023-01-03T00:00:00	2024-11-08T19:00:00	8	Radiación solar	0
134697	7	Sololá	719	Santiago Atitlán	14	Cerro de Oro	3	Marzo	2023-01-03T00:00:00	2024-11-08T20:00:00	2	Temperatura media	18.3
134698	7	Sololá	719	Santiago Atitlán	14	Cerro de Oro	3	Marzo	2023-01-03T00:00:00	2024-11-08T20:00:00	4	Temperatura máxima	19.3
134699	7	Sololá	719	Santiago Atitlán	14	Cerro de Oro	3	Marzo	2023-01-03T00:00:00	2024-11-08T20:00:00	3	Temperatura mínima	18.3
134700	7	Sololá	719	Santiago Atitlán	14	Cerro de Oro	3	Marzo	2023-01-03T00:00:00	2024-11-08T20:00:00	5	Humedad	90
134701	7	Sololá	719	Santiago Atitlán	14	Cerro de Oro	3	Marzo	2023-01-03T00:00:00	2024-11-08T20:00:00	6	Velocidad del viento	4.8
134702	7	Sololá	719	Santiago Atitlán	14	Cerro de Oro	3	Marzo	2023-01-03T00:00:00	2024-11-08T20:00:00	7	Dirección del viento	4.83
134703	7	Sololá	719	Santiago Atitlán	14	Cerro de Oro	3	Marzo	2023-01-03T00:00:00	2024-11-08T20:00:00	1	Precipitación	0
134704	7	Sololá	719	Santiago Atitlán	14	Cerro de Oro	3	Marzo	2023-01-03T00:00:00	2024-11-08T20:00:00	8	Radiación solar	0
134705	7	Sololá	719	Santiago Atitlán	14	Cerro de Oro	3	Marzo	2023-01-03T00:00:00	2024-11-08T21:00:00	2	Temperatura media	18
134706	7	Sololá	719	Santiago Atitlán	14	Cerro de Oro	3	Marzo	2023-01-03T00:00:00	2024-11-08T21:00:00	4	Temperatura máxima	18.3
134707	7	Sololá	719	Santiago Atitlán	14	Cerro de Oro	3	Marzo	2023-01-03T00:00:00	2024-11-08T21:00:00	3	Temperatura mínima	17.8
134708	7	Sololá	719	Santiago Atitlán	14	Cerro de Oro	3	Marzo	2023-01-03T00:00:00	2024-11-08T21:00:00	5	Humedad	90
134709	7	Sololá	719	Santiago Atitlán	14	Cerro de Oro	3	Marzo	2023-01-03T00:00:00	2024-11-08T21:00:00	6	Velocidad del viento	1.6
134710	7	Sololá	719	Santiago Atitlán	14	Cerro de Oro	3	Marzo	2023-01-03T00:00:00	2024-11-08T21:00:00	7	Dirección del viento	1.61
134711	7	Sololá	719	Santiago Atitlán	14	Cerro de Oro	3	Marzo	2023-01-03T00:00:00	2024-11-08T21:00:00	1	Precipitación	0
134712	7	Sololá	719	Santiago Atitlán	14	Cerro de Oro	3	Marzo	2023-01-03T00:00:00	2024-11-08T21:00:00	8	Radiación solar	0
134713	7	Sololá	719	Santiago Atitlán	14	Cerro de Oro	3	Marzo	2023-01-03T00:00:00	2024-11-08T22:00:00	2	Temperatura media	18.2
134714	7	Sololá	719	Santiago Atitlán	14	Cerro de Oro	3	Marzo	2023-01-03T00:00:00	2024-11-08T22:00:00	4	Temperatura máxima	18.5
134715	7	Sololá	719	Santiago Atitlán	14	Cerro de Oro	3	Marzo	2023-01-03T00:00:00	2024-11-08T22:00:00	3	Temperatura mínima	18
134716	7	Sololá	719	Santiago Atitlán	14	Cerro de Oro	3	Marzo	2023-01-03T00:00:00	2024-11-08T22:00:00	5	Humedad	89
134717	7	Sololá	719	Santiago Atitlán	14	Cerro de Oro	3	Marzo	2023-01-03T00:00:00	2024-11-08T22:00:00	6	Velocidad del viento	3.2
134718	7	Sololá	719	Santiago Atitlán	14	Cerro de Oro	3	Marzo	2023-01-03T00:00:00	2024-11-08T22:00:00	7	Dirección del viento	3.22
134719	7	Sololá	719	Santiago Atitlán	14	Cerro de Oro	3	Marzo	2023-01-03T00:00:00	2024-11-08T22:00:00	1	Precipitación	0
134720	7	Sololá	719	Santiago Atitlán	14	Cerro de Oro	3	Marzo	2023-01-03T00:00:00	2024-11-08T22:00:00	8	Radiación solar	0
134721	7	Sololá	719	Santiago Atitlán	14	Cerro de Oro	3	Marzo	2023-01-03T00:00:00	2024-11-08T23:00:00	2	Temperatura media	17.9
134722	7	Sololá	719	Santiago Atitlán	14	Cerro de Oro	3	Marzo	2023-01-03T00:00:00	2024-11-08T23:00:00	4	Temperatura máxima	18.3
134723	7	Sololá	719	Santiago Atitlán	14	Cerro de Oro	3	Marzo	2023-01-03T00:00:00	2024-11-08T23:00:00	3	Temperatura mínima	17.7
134724	7	Sololá	719	Santiago Atitlán	14	Cerro de Oro	3	Marzo	2023-01-03T00:00:00	2024-11-08T23:00:00	5	Humedad	88
134725	7	Sololá	719	Santiago Atitlán	14	Cerro de Oro	3	Marzo	2023-01-03T00:00:00	2024-11-08T23:00:00	6	Velocidad del viento	6.4
134726	7	Sololá	719	Santiago Atitlán	14	Cerro de Oro	3	Marzo	2023-01-03T00:00:00	2024-11-08T23:00:00	7	Dirección del viento	6.44
134727	7	Sololá	719	Santiago Atitlán	14	Cerro de Oro	3	Marzo	2023-01-03T00:00:00	2024-11-08T23:00:00	1	Precipitación	0
134728	7	Sololá	719	Santiago Atitlán	14	Cerro de Oro	3	Marzo	2023-01-03T00:00:00	2024-11-08T23:00:00	8	Radiación solar	0
134729	7	Sololá	719	Santiago Atitlán	14	Cerro de Oro	3	Marzo	2023-02-03T00:00:00	2024-11-08T00:00:00	2	Temperatura media	17.4
134730	7	Sololá	719	Santiago Atitlán	14	Cerro de Oro	3	Marzo	2023-02-03T00:00:00	2024-11-08T00:00:00	4	Temperatura máxima	18
134731	7	Sololá	719	Santiago Atitlán	14	Cerro de Oro	3	Marzo	2023-02-03T00:00:00	2024-11-08T00:00:00	3	Temperatura mínima	16.9
134732	7	Sololá	719	Santiago Atitlán	14	Cerro de Oro	3	Marzo	2023-02-03T00:00:00	2024-11-08T00:00:00	5	Humedad	86
134733	7	Sololá	719	Santiago Atitlán	14	Cerro de Oro	3	Marzo	2023-02-03T00:00:00	2024-11-08T00:00:00	6	Velocidad del viento	4.8
134734	7	Sololá	719	Santiago Atitlán	14	Cerro de Oro	3	Marzo	2023-02-03T00:00:00	2024-11-08T00:00:00	7	Dirección del viento	4.83
134735	7	Sololá	719	Santiago Atitlán	14	Cerro de Oro	3	Marzo	2023-02-03T00:00:00	2024-11-08T00:00:00	1	Precipitación	0
134736	7	Sololá	719	Santiago Atitlán	14	Cerro de Oro	3	Marzo	2023-02-03T00:00:00	2024-11-08T00:00:00	8	Radiación solar	0
134737	7	Sololá	719	Santiago Atitlán	14	Cerro de Oro	3	Marzo	2023-02-03T00:00:00	2024-11-08T01:00:00	2	Temperatura media	17.7
134738	7	Sololá	719	Santiago Atitlán	14	Cerro de Oro	3	Marzo	2023-02-03T00:00:00	2024-11-08T01:00:00	4	Temperatura máxima	17.8
134739	7	Sololá	719	Santiago Atitlán	14	Cerro de Oro	3	Marzo	2023-02-03T00:00:00	2024-11-08T01:00:00	3	Temperatura mínima	17.4
134740	7	Sololá	719	Santiago Atitlán	14	Cerro de Oro	3	Marzo	2023-02-03T00:00:00	2024-11-08T01:00:00	5	Humedad	86
134741	7	Sololá	719	Santiago Atitlán	14	Cerro de Oro	3	Marzo	2023-02-03T00:00:00	2024-11-08T01:00:00	6	Velocidad del viento	3.2
134742	7	Sololá	719	Santiago Atitlán	14	Cerro de Oro	3	Marzo	2023-02-03T00:00:00	2024-11-08T01:00:00	7	Dirección del viento	3.22
134743	7	Sololá	719	Santiago Atitlán	14	Cerro de Oro	3	Marzo	2023-02-03T00:00:00	2024-11-08T01:00:00	1	Precipitación	0
134744	7	Sololá	719	Santiago Atitlán	14	Cerro de Oro	3	Marzo	2023-02-03T00:00:00	2024-11-08T01:00:00	8	Radiación solar	0
134745	7	Sololá	719	Santiago Atitlán	14	Cerro de Oro	3	Marzo	2023-02-03T00:00:00	2024-11-08T02:00:00	2	Temperatura media	17.8
134746	7	Sololá	719	Santiago Atitlán	14	Cerro de Oro	3	Marzo	2023-02-03T00:00:00	2024-11-08T02:00:00	4	Temperatura máxima	17.8
134747	7	Sololá	719	Santiago Atitlán	14	Cerro de Oro	3	Marzo	2023-02-03T00:00:00	2024-11-08T02:00:00	3	Temperatura mínima	17.6
134748	7	Sololá	719	Santiago Atitlán	14	Cerro de Oro	3	Marzo	2023-02-03T00:00:00	2024-11-08T02:00:00	5	Humedad	82
134749	7	Sololá	719	Santiago Atitlán	14	Cerro de Oro	3	Marzo	2023-02-03T00:00:00	2024-11-08T02:00:00	6	Velocidad del viento	3.2
134750	7	Sololá	719	Santiago Atitlán	14	Cerro de Oro	3	Marzo	2023-02-03T00:00:00	2024-11-08T02:00:00	7	Dirección del viento	3.22
134751	7	Sololá	719	Santiago Atitlán	14	Cerro de Oro	3	Marzo	2023-02-03T00:00:00	2024-11-08T02:00:00	1	Precipitación	0
134752	7	Sololá	719	Santiago Atitlán	14	Cerro de Oro	3	Marzo	2023-02-03T00:00:00	2024-11-08T02:00:00	8	Radiación solar	0
134753	7	Sololá	719	Santiago Atitlán	14	Cerro de Oro	3	Marzo	2023-02-03T00:00:00	2024-11-08T03:00:00	2	Temperatura media	17.6
134754	7	Sololá	719	Santiago Atitlán	14	Cerro de Oro	3	Marzo	2023-02-03T00:00:00	2024-11-08T03:00:00	4	Temperatura máxima	17.8
134755	7	Sololá	719	Santiago Atitlán	14	Cerro de Oro	3	Marzo	2023-02-03T00:00:00	2024-11-08T03:00:00	3	Temperatura mínima	17.6
134756	7	Sololá	719	Santiago Atitlán	14	Cerro de Oro	3	Marzo	2023-02-03T00:00:00	2024-11-08T03:00:00	5	Humedad	80
134757	7	Sololá	719	Santiago Atitlán	14	Cerro de Oro	3	Marzo	2023-02-03T00:00:00	2024-11-08T03:00:00	6	Velocidad del viento	3.2
134758	7	Sololá	719	Santiago Atitlán	14	Cerro de Oro	3	Marzo	2023-02-03T00:00:00	2024-11-08T03:00:00	7	Dirección del viento	3.22
134759	7	Sololá	719	Santiago Atitlán	14	Cerro de Oro	3	Marzo	2023-02-03T00:00:00	2024-11-08T03:00:00	1	Precipitación	0
134760	7	Sololá	719	Santiago Atitlán	14	Cerro de Oro	3	Marzo	2023-02-03T00:00:00	2024-11-08T03:00:00	8	Radiación solar	0
134761	7	Sololá	719	Santiago Atitlán	14	Cerro de Oro	3	Marzo	2023-02-03T00:00:00	2024-11-08T04:00:00	2	Temperatura media	17.1
134762	7	Sololá	719	Santiago Atitlán	14	Cerro de Oro	3	Marzo	2023-02-03T00:00:00	2024-11-08T04:00:00	4	Temperatura máxima	17.5
134763	7	Sololá	719	Santiago Atitlán	14	Cerro de Oro	3	Marzo	2023-02-03T00:00:00	2024-11-08T04:00:00	3	Temperatura mínima	16.9
134764	7	Sololá	719	Santiago Atitlán	14	Cerro de Oro	3	Marzo	2023-02-03T00:00:00	2024-11-08T04:00:00	5	Humedad	83
134765	7	Sololá	719	Santiago Atitlán	14	Cerro de Oro	3	Marzo	2023-02-03T00:00:00	2024-11-08T04:00:00	6	Velocidad del viento	3.2
134766	7	Sololá	719	Santiago Atitlán	14	Cerro de Oro	3	Marzo	2023-02-03T00:00:00	2024-11-08T04:00:00	7	Dirección del viento	3.22
134767	7	Sololá	719	Santiago Atitlán	14	Cerro de Oro	3	Marzo	2023-02-03T00:00:00	2024-11-08T04:00:00	1	Precipitación	0
134768	7	Sololá	719	Santiago Atitlán	14	Cerro de Oro	3	Marzo	2023-02-03T00:00:00	2024-11-08T04:00:00	8	Radiación solar	0
134769	7	Sololá	719	Santiago Atitlán	14	Cerro de Oro	3	Marzo	2023-02-03T00:00:00	2024-11-08T05:00:00	2	Temperatura media	16.8
134770	7	Sololá	719	Santiago Atitlán	14	Cerro de Oro	3	Marzo	2023-02-03T00:00:00	2024-11-08T05:00:00	4	Temperatura máxima	17.2
134771	7	Sololá	719	Santiago Atitlán	14	Cerro de Oro	3	Marzo	2023-02-03T00:00:00	2024-11-08T05:00:00	3	Temperatura mínima	16.7
134772	7	Sololá	719	Santiago Atitlán	14	Cerro de Oro	3	Marzo	2023-02-03T00:00:00	2024-11-08T05:00:00	5	Humedad	82
134773	7	Sololá	719	Santiago Atitlán	14	Cerro de Oro	3	Marzo	2023-02-03T00:00:00	2024-11-08T05:00:00	6	Velocidad del viento	3.2
134774	7	Sololá	719	Santiago Atitlán	14	Cerro de Oro	3	Marzo	2023-02-03T00:00:00	2024-11-08T05:00:00	7	Dirección del viento	3.22
134775	7	Sololá	719	Santiago Atitlán	14	Cerro de Oro	3	Marzo	2023-02-03T00:00:00	2024-11-08T05:00:00	1	Precipitación	0
134776	7	Sololá	719	Santiago Atitlán	14	Cerro de Oro	3	Marzo	2023-02-03T00:00:00	2024-11-08T05:00:00	8	Radiación solar	0
134777	7	Sololá	719	Santiago Atitlán	14	Cerro de Oro	3	Marzo	2023-02-03T00:00:00	2024-11-08T06:00:00	2	Temperatura media	16.6
134778	7	Sololá	719	Santiago Atitlán	14	Cerro de Oro	3	Marzo	2023-02-03T00:00:00	2024-11-08T06:00:00	4	Temperatura máxima	16.8
134779	7	Sololá	719	Santiago Atitlán	14	Cerro de Oro	3	Marzo	2023-02-03T00:00:00	2024-11-08T06:00:00	3	Temperatura mínima	16.6
134780	7	Sololá	719	Santiago Atitlán	14	Cerro de Oro	3	Marzo	2023-02-03T00:00:00	2024-11-08T06:00:00	5	Humedad	82
134781	7	Sololá	719	Santiago Atitlán	14	Cerro de Oro	3	Marzo	2023-02-03T00:00:00	2024-11-08T06:00:00	6	Velocidad del viento	3.2
134782	7	Sololá	719	Santiago Atitlán	14	Cerro de Oro	3	Marzo	2023-02-03T00:00:00	2024-11-08T06:00:00	7	Dirección del viento	3.22
134783	7	Sololá	719	Santiago Atitlán	14	Cerro de Oro	3	Marzo	2023-02-03T00:00:00	2024-11-08T06:00:00	1	Precipitación	0
134784	7	Sololá	719	Santiago Atitlán	14	Cerro de Oro	3	Marzo	2023-02-03T00:00:00	2024-11-08T06:00:00	8	Radiación solar	0
134785	7	Sololá	719	Santiago Atitlán	14	Cerro de Oro	3	Marzo	2023-02-03T00:00:00	2024-11-08T07:00:00	2	Temperatura media	16.7
134786	7	Sololá	719	Santiago Atitlán	14	Cerro de Oro	3	Marzo	2023-02-03T00:00:00	2024-11-08T07:00:00	4	Temperatura máxima	16.8
134787	7	Sololá	719	Santiago Atitlán	14	Cerro de Oro	3	Marzo	2023-02-03T00:00:00	2024-11-08T07:00:00	3	Temperatura mínima	16.3
134788	7	Sololá	719	Santiago Atitlán	14	Cerro de Oro	3	Marzo	2023-02-03T00:00:00	2024-11-08T07:00:00	5	Humedad	80
134789	7	Sololá	719	Santiago Atitlán	14	Cerro de Oro	3	Marzo	2023-02-03T00:00:00	2024-11-08T07:00:00	6	Velocidad del viento	3.2
134790	7	Sololá	719	Santiago Atitlán	14	Cerro de Oro	3	Marzo	2023-02-03T00:00:00	2024-11-08T07:00:00	7	Dirección del viento	3.22
134791	7	Sololá	719	Santiago Atitlán	14	Cerro de Oro	3	Marzo	2023-02-03T00:00:00	2024-11-08T07:00:00	1	Precipitación	0
134792	7	Sololá	719	Santiago Atitlán	14	Cerro de Oro	3	Marzo	2023-02-03T00:00:00	2024-11-08T07:00:00	8	Radiación solar	17
134793	7	Sololá	719	Santiago Atitlán	14	Cerro de Oro	3	Marzo	2023-02-03T00:00:00	2024-11-08T08:00:00	2	Temperatura media	18.4
134794	7	Sololá	719	Santiago Atitlán	14	Cerro de Oro	3	Marzo	2023-02-03T00:00:00	2024-11-08T08:00:00	4	Temperatura máxima	18.4
134795	7	Sololá	719	Santiago Atitlán	14	Cerro de Oro	3	Marzo	2023-02-03T00:00:00	2024-11-08T08:00:00	3	Temperatura mínima	16.7
134796	7	Sololá	719	Santiago Atitlán	14	Cerro de Oro	3	Marzo	2023-02-03T00:00:00	2024-11-08T08:00:00	5	Humedad	79
134797	7	Sololá	719	Santiago Atitlán	14	Cerro de Oro	3	Marzo	2023-02-03T00:00:00	2024-11-08T08:00:00	6	Velocidad del viento	3.2
134798	7	Sololá	719	Santiago Atitlán	14	Cerro de Oro	3	Marzo	2023-02-03T00:00:00	2024-11-08T08:00:00	7	Dirección del viento	3.22
134799	7	Sololá	719	Santiago Atitlán	14	Cerro de Oro	3	Marzo	2023-02-03T00:00:00	2024-11-08T08:00:00	1	Precipitación	0
134800	7	Sololá	719	Santiago Atitlán	14	Cerro de Oro	3	Marzo	2023-02-03T00:00:00	2024-11-08T08:00:00	8	Radiación solar	152
134801	7	Sololá	719	Santiago Atitlán	14	Cerro de Oro	3	Marzo	2023-02-03T00:00:00	2024-11-08T09:00:00	2	Temperatura media	19.5
134802	7	Sololá	719	Santiago Atitlán	14	Cerro de Oro	3	Marzo	2023-02-03T00:00:00	2024-11-08T09:00:00	4	Temperatura máxima	19.5
134803	7	Sololá	719	Santiago Atitlán	14	Cerro de Oro	3	Marzo	2023-02-03T00:00:00	2024-11-08T09:00:00	3	Temperatura mínima	18.4
134804	7	Sololá	719	Santiago Atitlán	14	Cerro de Oro	3	Marzo	2023-02-03T00:00:00	2024-11-08T09:00:00	5	Humedad	75
134805	7	Sololá	719	Santiago Atitlán	14	Cerro de Oro	3	Marzo	2023-02-03T00:00:00	2024-11-08T09:00:00	6	Velocidad del viento	4.8
134806	7	Sololá	719	Santiago Atitlán	14	Cerro de Oro	3	Marzo	2023-02-03T00:00:00	2024-11-08T09:00:00	7	Dirección del viento	4.83
134807	7	Sololá	719	Santiago Atitlán	14	Cerro de Oro	3	Marzo	2023-02-03T00:00:00	2024-11-08T09:00:00	1	Precipitación	0
134808	7	Sololá	719	Santiago Atitlán	14	Cerro de Oro	3	Marzo	2023-02-03T00:00:00	2024-11-08T09:00:00	8	Radiación solar	404
134809	7	Sololá	719	Santiago Atitlán	14	Cerro de Oro	3	Marzo	2023-02-03T00:00:00	2024-11-08T10:00:00	2	Temperatura media	20.4
134810	7	Sololá	719	Santiago Atitlán	14	Cerro de Oro	3	Marzo	2023-02-03T00:00:00	2024-11-08T10:00:00	4	Temperatura máxima	20.4
134811	7	Sololá	719	Santiago Atitlán	14	Cerro de Oro	3	Marzo	2023-02-03T00:00:00	2024-11-08T10:00:00	3	Temperatura mínima	19.4
134812	7	Sololá	719	Santiago Atitlán	14	Cerro de Oro	3	Marzo	2023-02-03T00:00:00	2024-11-08T10:00:00	5	Humedad	73
134813	7	Sololá	719	Santiago Atitlán	14	Cerro de Oro	3	Marzo	2023-02-03T00:00:00	2024-11-08T10:00:00	6	Velocidad del viento	6.4
134814	7	Sololá	719	Santiago Atitlán	14	Cerro de Oro	3	Marzo	2023-02-03T00:00:00	2024-11-08T10:00:00	7	Dirección del viento	6.44
134815	7	Sololá	719	Santiago Atitlán	14	Cerro de Oro	3	Marzo	2023-02-03T00:00:00	2024-11-08T10:00:00	1	Precipitación	0
134816	7	Sololá	719	Santiago Atitlán	14	Cerro de Oro	3	Marzo	2023-02-03T00:00:00	2024-11-08T10:00:00	8	Radiación solar	641
134817	7	Sololá	719	Santiago Atitlán	14	Cerro de Oro	3	Marzo	2023-02-03T00:00:00	2024-11-08T11:00:00	2	Temperatura media	21.7
134818	7	Sololá	719	Santiago Atitlán	14	Cerro de Oro	3	Marzo	2023-02-03T00:00:00	2024-11-08T11:00:00	4	Temperatura máxima	21.7
134819	7	Sololá	719	Santiago Atitlán	14	Cerro de Oro	3	Marzo	2023-02-03T00:00:00	2024-11-08T11:00:00	3	Temperatura mínima	20.4
134820	7	Sololá	719	Santiago Atitlán	14	Cerro de Oro	3	Marzo	2023-02-03T00:00:00	2024-11-08T11:00:00	5	Humedad	66
134821	7	Sololá	719	Santiago Atitlán	14	Cerro de Oro	3	Marzo	2023-02-03T00:00:00	2024-11-08T11:00:00	6	Velocidad del viento	8
134822	7	Sololá	719	Santiago Atitlán	14	Cerro de Oro	3	Marzo	2023-02-03T00:00:00	2024-11-08T11:00:00	7	Dirección del viento	8.05
134823	7	Sololá	719	Santiago Atitlán	14	Cerro de Oro	3	Marzo	2023-02-03T00:00:00	2024-11-08T11:00:00	1	Precipitación	0
134824	7	Sololá	719	Santiago Atitlán	14	Cerro de Oro	3	Marzo	2023-02-03T00:00:00	2024-11-08T11:00:00	8	Radiación solar	820
134825	7	Sololá	719	Santiago Atitlán	14	Cerro de Oro	3	Marzo	2023-02-03T00:00:00	2024-11-08T12:00:00	2	Temperatura media	24
134826	7	Sololá	719	Santiago Atitlán	14	Cerro de Oro	3	Marzo	2023-02-03T00:00:00	2024-11-08T12:00:00	4	Temperatura máxima	24.2
134827	7	Sololá	719	Santiago Atitlán	14	Cerro de Oro	3	Marzo	2023-02-03T00:00:00	2024-11-08T12:00:00	3	Temperatura mínima	21.7
134828	7	Sololá	719	Santiago Atitlán	14	Cerro de Oro	3	Marzo	2023-02-03T00:00:00	2024-11-08T12:00:00	5	Humedad	45
134829	7	Sololá	719	Santiago Atitlán	14	Cerro de Oro	3	Marzo	2023-02-03T00:00:00	2024-11-08T12:00:00	6	Velocidad del viento	8
134830	7	Sololá	719	Santiago Atitlán	14	Cerro de Oro	3	Marzo	2023-02-03T00:00:00	2024-11-08T12:00:00	7	Dirección del viento	8.05
134831	7	Sololá	719	Santiago Atitlán	14	Cerro de Oro	3	Marzo	2023-02-03T00:00:00	2024-11-08T12:00:00	1	Precipitación	0
134832	7	Sololá	719	Santiago Atitlán	14	Cerro de Oro	3	Marzo	2023-02-03T00:00:00	2024-11-08T12:00:00	8	Radiación solar	870
134833	7	Sololá	719	Santiago Atitlán	14	Cerro de Oro	3	Marzo	2023-02-03T00:00:00	2024-11-08T13:00:00	2	Temperatura media	23.9
134834	7	Sololá	719	Santiago Atitlán	14	Cerro de Oro	3	Marzo	2023-02-03T00:00:00	2024-11-08T13:00:00	4	Temperatura máxima	24.6
134835	7	Sololá	719	Santiago Atitlán	14	Cerro de Oro	3	Marzo	2023-02-03T00:00:00	2024-11-08T13:00:00	3	Temperatura mínima	23.7
134836	7	Sololá	719	Santiago Atitlán	14	Cerro de Oro	3	Marzo	2023-02-03T00:00:00	2024-11-08T13:00:00	5	Humedad	48
134837	7	Sololá	719	Santiago Atitlán	14	Cerro de Oro	3	Marzo	2023-02-03T00:00:00	2024-11-08T13:00:00	6	Velocidad del viento	11.3
134838	7	Sololá	719	Santiago Atitlán	14	Cerro de Oro	3	Marzo	2023-02-03T00:00:00	2024-11-08T13:00:00	7	Dirección del viento	11.27
134839	7	Sololá	719	Santiago Atitlán	14	Cerro de Oro	3	Marzo	2023-02-03T00:00:00	2024-11-08T13:00:00	1	Precipitación	0
134840	7	Sololá	719	Santiago Atitlán	14	Cerro de Oro	3	Marzo	2023-02-03T00:00:00	2024-11-08T13:00:00	8	Radiación solar	868
134841	7	Sololá	719	Santiago Atitlán	14	Cerro de Oro	3	Marzo	2023-02-03T00:00:00	2024-11-08T14:00:00	2	Temperatura media	23.2
134842	7	Sololá	719	Santiago Atitlán	14	Cerro de Oro	3	Marzo	2023-02-03T00:00:00	2024-11-08T14:00:00	4	Temperatura máxima	24
134843	7	Sololá	719	Santiago Atitlán	14	Cerro de Oro	3	Marzo	2023-02-03T00:00:00	2024-11-08T14:00:00	3	Temperatura mínima	23.1
134844	7	Sololá	719	Santiago Atitlán	14	Cerro de Oro	3	Marzo	2023-02-03T00:00:00	2024-11-08T14:00:00	5	Humedad	64
134845	7	Sololá	719	Santiago Atitlán	14	Cerro de Oro	3	Marzo	2023-02-03T00:00:00	2024-11-08T14:00:00	6	Velocidad del viento	12.9
134846	7	Sololá	719	Santiago Atitlán	14	Cerro de Oro	3	Marzo	2023-02-03T00:00:00	2024-11-08T14:00:00	7	Dirección del viento	12.87
134847	7	Sololá	719	Santiago Atitlán	14	Cerro de Oro	3	Marzo	2023-02-03T00:00:00	2024-11-08T14:00:00	1	Precipitación	0
134848	7	Sololá	719	Santiago Atitlán	14	Cerro de Oro	3	Marzo	2023-02-03T00:00:00	2024-11-08T14:00:00	8	Radiación solar	838
134849	7	Sololá	719	Santiago Atitlán	14	Cerro de Oro	3	Marzo	2023-02-03T00:00:00	2024-11-08T15:00:00	2	Temperatura media	22.2
134850	7	Sololá	719	Santiago Atitlán	14	Cerro de Oro	3	Marzo	2023-02-03T00:00:00	2024-11-08T15:00:00	4	Temperatura máxima	23.3
134851	7	Sololá	719	Santiago Atitlán	14	Cerro de Oro	3	Marzo	2023-02-03T00:00:00	2024-11-08T15:00:00	3	Temperatura mínima	21.9
134852	7	Sololá	719	Santiago Atitlán	14	Cerro de Oro	3	Marzo	2023-02-03T00:00:00	2024-11-08T15:00:00	5	Humedad	68
134853	7	Sololá	719	Santiago Atitlán	14	Cerro de Oro	3	Marzo	2023-02-03T00:00:00	2024-11-08T15:00:00	6	Velocidad del viento	12.9
134854	7	Sololá	719	Santiago Atitlán	14	Cerro de Oro	3	Marzo	2023-02-03T00:00:00	2024-11-08T15:00:00	7	Dirección del viento	12.87
134855	7	Sololá	719	Santiago Atitlán	14	Cerro de Oro	3	Marzo	2023-02-03T00:00:00	2024-11-08T15:00:00	1	Precipitación	0
134856	7	Sololá	719	Santiago Atitlán	14	Cerro de Oro	3	Marzo	2023-02-03T00:00:00	2024-11-08T15:00:00	8	Radiación solar	470
134857	7	Sololá	719	Santiago Atitlán	14	Cerro de Oro	3	Marzo	2023-02-03T00:00:00	2024-11-08T16:00:00	2	Temperatura media	21.7
134858	7	Sololá	719	Santiago Atitlán	14	Cerro de Oro	3	Marzo	2023-02-03T00:00:00	2024-11-08T16:00:00	4	Temperatura máxima	22.3
134859	7	Sololá	719	Santiago Atitlán	14	Cerro de Oro	3	Marzo	2023-02-03T00:00:00	2024-11-08T16:00:00	3	Temperatura mínima	21.6
134860	7	Sololá	719	Santiago Atitlán	14	Cerro de Oro	3	Marzo	2023-02-03T00:00:00	2024-11-08T16:00:00	5	Humedad	69
134861	7	Sololá	719	Santiago Atitlán	14	Cerro de Oro	3	Marzo	2023-02-03T00:00:00	2024-11-08T16:00:00	6	Velocidad del viento	12.9
134862	7	Sololá	719	Santiago Atitlán	14	Cerro de Oro	3	Marzo	2023-02-03T00:00:00	2024-11-08T16:00:00	7	Dirección del viento	12.87
134863	7	Sololá	719	Santiago Atitlán	14	Cerro de Oro	3	Marzo	2023-02-03T00:00:00	2024-11-08T16:00:00	1	Precipitación	0
134864	7	Sololá	719	Santiago Atitlán	14	Cerro de Oro	3	Marzo	2023-02-03T00:00:00	2024-11-08T16:00:00	8	Radiación solar	355
134865	7	Sololá	719	Santiago Atitlán	14	Cerro de Oro	3	Marzo	2023-02-03T00:00:00	2024-11-08T17:00:00	2	Temperatura media	21.1
134866	7	Sololá	719	Santiago Atitlán	14	Cerro de Oro	3	Marzo	2023-02-03T00:00:00	2024-11-08T17:00:00	4	Temperatura máxima	21.8
134867	7	Sololá	719	Santiago Atitlán	14	Cerro de Oro	3	Marzo	2023-02-03T00:00:00	2024-11-08T17:00:00	3	Temperatura mínima	20.8
134868	7	Sololá	719	Santiago Atitlán	14	Cerro de Oro	3	Marzo	2023-02-03T00:00:00	2024-11-08T17:00:00	5	Humedad	75
134869	7	Sololá	719	Santiago Atitlán	14	Cerro de Oro	3	Marzo	2023-02-03T00:00:00	2024-11-08T17:00:00	6	Velocidad del viento	11.3
134870	7	Sololá	719	Santiago Atitlán	14	Cerro de Oro	3	Marzo	2023-02-03T00:00:00	2024-11-08T17:00:00	7	Dirección del viento	11.27
134871	7	Sololá	719	Santiago Atitlán	14	Cerro de Oro	3	Marzo	2023-02-03T00:00:00	2024-11-08T17:00:00	1	Precipitación	0
134872	7	Sololá	719	Santiago Atitlán	14	Cerro de Oro	3	Marzo	2023-02-03T00:00:00	2024-11-08T17:00:00	8	Radiación solar	190
134873	7	Sololá	719	Santiago Atitlán	14	Cerro de Oro	3	Marzo	2023-02-03T00:00:00	2024-11-08T18:00:00	2	Temperatura media	19.3
134874	7	Sololá	719	Santiago Atitlán	14	Cerro de Oro	3	Marzo	2023-02-03T00:00:00	2024-11-08T18:00:00	4	Temperatura máxima	21.1
134875	7	Sololá	719	Santiago Atitlán	14	Cerro de Oro	3	Marzo	2023-02-03T00:00:00	2024-11-08T18:00:00	3	Temperatura mínima	19.3
134876	7	Sololá	719	Santiago Atitlán	14	Cerro de Oro	3	Marzo	2023-02-03T00:00:00	2024-11-08T18:00:00	5	Humedad	83
134877	7	Sololá	719	Santiago Atitlán	14	Cerro de Oro	3	Marzo	2023-02-03T00:00:00	2024-11-08T18:00:00	6	Velocidad del viento	8
134878	7	Sololá	719	Santiago Atitlán	14	Cerro de Oro	3	Marzo	2023-02-03T00:00:00	2024-11-08T18:00:00	7	Dirección del viento	8.05
134879	7	Sololá	719	Santiago Atitlán	14	Cerro de Oro	3	Marzo	2023-02-03T00:00:00	2024-11-08T18:00:00	1	Precipitación	0
134880	7	Sololá	719	Santiago Atitlán	14	Cerro de Oro	3	Marzo	2023-02-03T00:00:00	2024-11-08T18:00:00	8	Radiación solar	71
134881	7	Sololá	719	Santiago Atitlán	14	Cerro de Oro	3	Marzo	2023-02-03T00:00:00	2024-11-08T19:00:00	2	Temperatura media	17.8
134882	7	Sololá	719	Santiago Atitlán	14	Cerro de Oro	3	Marzo	2023-02-03T00:00:00	2024-11-08T19:00:00	4	Temperatura máxima	19.3
134883	7	Sololá	719	Santiago Atitlán	14	Cerro de Oro	3	Marzo	2023-02-03T00:00:00	2024-11-08T19:00:00	3	Temperatura mínima	17.8
134884	7	Sololá	719	Santiago Atitlán	14	Cerro de Oro	3	Marzo	2023-02-03T00:00:00	2024-11-08T19:00:00	5	Humedad	84
134885	7	Sololá	719	Santiago Atitlán	14	Cerro de Oro	3	Marzo	2023-02-03T00:00:00	2024-11-08T19:00:00	6	Velocidad del viento	9.7
134886	7	Sololá	719	Santiago Atitlán	14	Cerro de Oro	3	Marzo	2023-02-03T00:00:00	2024-11-08T19:00:00	7	Dirección del viento	9.66
134887	7	Sololá	719	Santiago Atitlán	14	Cerro de Oro	3	Marzo	2023-02-03T00:00:00	2024-11-08T19:00:00	1	Precipitación	0
134888	7	Sololá	719	Santiago Atitlán	14	Cerro de Oro	3	Marzo	2023-02-03T00:00:00	2024-11-08T19:00:00	8	Radiación solar	0
134889	7	Sololá	719	Santiago Atitlán	14	Cerro de Oro	3	Marzo	2023-02-03T00:00:00	2024-11-08T20:00:00	2	Temperatura media	17.3
134890	7	Sololá	719	Santiago Atitlán	14	Cerro de Oro	3	Marzo	2023-02-03T00:00:00	2024-11-08T20:00:00	4	Temperatura máxima	17.8
134891	7	Sololá	719	Santiago Atitlán	14	Cerro de Oro	3	Marzo	2023-02-03T00:00:00	2024-11-08T20:00:00	3	Temperatura mínima	17.3
134892	7	Sololá	719	Santiago Atitlán	14	Cerro de Oro	3	Marzo	2023-02-03T00:00:00	2024-11-08T20:00:00	5	Humedad	83
134893	7	Sololá	719	Santiago Atitlán	14	Cerro de Oro	3	Marzo	2023-02-03T00:00:00	2024-11-08T20:00:00	6	Velocidad del viento	8
134894	7	Sololá	719	Santiago Atitlán	14	Cerro de Oro	3	Marzo	2023-02-03T00:00:00	2024-11-08T20:00:00	7	Dirección del viento	8.05
134895	7	Sololá	719	Santiago Atitlán	14	Cerro de Oro	3	Marzo	2023-02-03T00:00:00	2024-11-08T20:00:00	1	Precipitación	0
134896	7	Sololá	719	Santiago Atitlán	14	Cerro de Oro	3	Marzo	2023-02-03T00:00:00	2024-11-08T20:00:00	8	Radiación solar	0
134897	7	Sololá	719	Santiago Atitlán	14	Cerro de Oro	3	Marzo	2023-02-03T00:00:00	2024-11-08T21:00:00	2	Temperatura media	16.7
134898	7	Sololá	719	Santiago Atitlán	14	Cerro de Oro	3	Marzo	2023-02-03T00:00:00	2024-11-08T21:00:00	4	Temperatura máxima	17.3
134899	7	Sololá	719	Santiago Atitlán	14	Cerro de Oro	3	Marzo	2023-02-03T00:00:00	2024-11-08T21:00:00	3	Temperatura mínima	16.7
134900	7	Sololá	719	Santiago Atitlán	14	Cerro de Oro	3	Marzo	2023-02-03T00:00:00	2024-11-08T21:00:00	5	Humedad	81
134901	7	Sololá	719	Santiago Atitlán	14	Cerro de Oro	3	Marzo	2023-02-03T00:00:00	2024-11-08T21:00:00	6	Velocidad del viento	3.2
134902	7	Sololá	719	Santiago Atitlán	14	Cerro de Oro	3	Marzo	2023-02-03T00:00:00	2024-11-08T21:00:00	7	Dirección del viento	3.22
134903	7	Sololá	719	Santiago Atitlán	14	Cerro de Oro	3	Marzo	2023-02-03T00:00:00	2024-11-08T21:00:00	1	Precipitación	0
134904	7	Sololá	719	Santiago Atitlán	14	Cerro de Oro	3	Marzo	2023-02-03T00:00:00	2024-11-08T21:00:00	8	Radiación solar	0
134905	7	Sololá	719	Santiago Atitlán	14	Cerro de Oro	3	Marzo	2023-02-03T00:00:00	2024-11-08T22:00:00	2	Temperatura media	16.1
134906	7	Sololá	719	Santiago Atitlán	14	Cerro de Oro	3	Marzo	2023-02-03T00:00:00	2024-11-08T22:00:00	4	Temperatura máxima	16.7
134907	7	Sololá	719	Santiago Atitlán	14	Cerro de Oro	3	Marzo	2023-02-03T00:00:00	2024-11-08T22:00:00	3	Temperatura mínima	15.9
134908	7	Sololá	719	Santiago Atitlán	14	Cerro de Oro	3	Marzo	2023-02-03T00:00:00	2024-11-08T22:00:00	5	Humedad	84
134909	7	Sololá	719	Santiago Atitlán	14	Cerro de Oro	3	Marzo	2023-02-03T00:00:00	2024-11-08T22:00:00	6	Velocidad del viento	3.2
134910	7	Sololá	719	Santiago Atitlán	14	Cerro de Oro	3	Marzo	2023-02-03T00:00:00	2024-11-08T22:00:00	7	Dirección del viento	3.22
134911	7	Sololá	719	Santiago Atitlán	14	Cerro de Oro	3	Marzo	2023-02-03T00:00:00	2024-11-08T22:00:00	1	Precipitación	0
134912	7	Sololá	719	Santiago Atitlán	14	Cerro de Oro	3	Marzo	2023-02-03T00:00:00	2024-11-08T22:00:00	8	Radiación solar	0
134913	7	Sololá	719	Santiago Atitlán	14	Cerro de Oro	3	Marzo	2023-02-03T00:00:00	2024-11-08T23:00:00	2	Temperatura media	15.9
134914	7	Sololá	719	Santiago Atitlán	14	Cerro de Oro	3	Marzo	2023-02-03T00:00:00	2024-11-08T23:00:00	4	Temperatura máxima	16.3
134915	7	Sololá	719	Santiago Atitlán	14	Cerro de Oro	3	Marzo	2023-02-03T00:00:00	2024-11-08T23:00:00	3	Temperatura mínima	15.9
134916	7	Sololá	719	Santiago Atitlán	14	Cerro de Oro	3	Marzo	2023-02-03T00:00:00	2024-11-08T23:00:00	5	Humedad	84
134917	7	Sololá	719	Santiago Atitlán	14	Cerro de Oro	3	Marzo	2023-02-03T00:00:00	2024-11-08T23:00:00	6	Velocidad del viento	4.8
134918	7	Sololá	719	Santiago Atitlán	14	Cerro de Oro	3	Marzo	2023-02-03T00:00:00	2024-11-08T23:00:00	7	Dirección del viento	4.83
134919	7	Sololá	719	Santiago Atitlán	14	Cerro de Oro	3	Marzo	2023-02-03T00:00:00	2024-11-08T23:00:00	1	Precipitación	0
134920	7	Sololá	719	Santiago Atitlán	14	Cerro de Oro	3	Marzo	2023-02-03T00:00:00	2024-11-08T23:00:00	8	Radiación solar	0
134921	7	Sololá	719	Santiago Atitlán	14	Cerro de Oro	3	Marzo	2023-03-03T00:00:00	2024-11-08T00:00:00	2	Temperatura media	15.9
134922	7	Sololá	719	Santiago Atitlán	14	Cerro de Oro	3	Marzo	2023-03-03T00:00:00	2024-11-08T00:00:00	4	Temperatura máxima	16.2
134923	7	Sololá	719	Santiago Atitlán	14	Cerro de Oro	3	Marzo	2023-03-03T00:00:00	2024-11-08T00:00:00	3	Temperatura mínima	15.8
134924	7	Sololá	719	Santiago Atitlán	14	Cerro de Oro	3	Marzo	2023-03-03T00:00:00	2024-11-08T00:00:00	5	Humedad	77
134925	7	Sololá	719	Santiago Atitlán	14	Cerro de Oro	3	Marzo	2023-03-03T00:00:00	2024-11-08T00:00:00	6	Velocidad del viento	4.8
134926	7	Sololá	719	Santiago Atitlán	14	Cerro de Oro	3	Marzo	2023-03-03T00:00:00	2024-11-08T00:00:00	7	Dirección del viento	4.83
134927	7	Sololá	719	Santiago Atitlán	14	Cerro de Oro	3	Marzo	2023-03-03T00:00:00	2024-11-08T00:00:00	1	Precipitación	0
134928	7	Sololá	719	Santiago Atitlán	14	Cerro de Oro	3	Marzo	2023-03-03T00:00:00	2024-11-08T00:00:00	8	Radiación solar	0
134929	7	Sololá	719	Santiago Atitlán	14	Cerro de Oro	3	Marzo	2023-03-03T00:00:00	2024-11-08T01:00:00	2	Temperatura media	14.7
134930	7	Sololá	719	Santiago Atitlán	14	Cerro de Oro	3	Marzo	2023-03-03T00:00:00	2024-11-08T01:00:00	4	Temperatura máxima	15.9
134931	7	Sololá	719	Santiago Atitlán	14	Cerro de Oro	3	Marzo	2023-03-03T00:00:00	2024-11-08T01:00:00	3	Temperatura mínima	14.7
134932	7	Sololá	719	Santiago Atitlán	14	Cerro de Oro	3	Marzo	2023-03-03T00:00:00	2024-11-08T01:00:00	5	Humedad	78
134933	7	Sololá	719	Santiago Atitlán	14	Cerro de Oro	3	Marzo	2023-03-03T00:00:00	2024-11-08T01:00:00	6	Velocidad del viento	4.8
134934	7	Sololá	719	Santiago Atitlán	14	Cerro de Oro	3	Marzo	2023-03-03T00:00:00	2024-11-08T01:00:00	7	Dirección del viento	4.83
134935	7	Sololá	719	Santiago Atitlán	14	Cerro de Oro	3	Marzo	2023-03-03T00:00:00	2024-11-08T01:00:00	1	Precipitación	0
134936	7	Sololá	719	Santiago Atitlán	14	Cerro de Oro	3	Marzo	2023-03-03T00:00:00	2024-11-08T01:00:00	8	Radiación solar	0
134937	7	Sololá	719	Santiago Atitlán	14	Cerro de Oro	3	Marzo	2023-03-03T00:00:00	2024-11-08T02:00:00	2	Temperatura media	14.2
134938	7	Sololá	719	Santiago Atitlán	14	Cerro de Oro	3	Marzo	2023-03-03T00:00:00	2024-11-08T02:00:00	4	Temperatura máxima	15.2
134939	7	Sololá	719	Santiago Atitlán	14	Cerro de Oro	3	Marzo	2023-03-03T00:00:00	2024-11-08T02:00:00	3	Temperatura mínima	14.2
134940	7	Sololá	719	Santiago Atitlán	14	Cerro de Oro	3	Marzo	2023-03-03T00:00:00	2024-11-08T02:00:00	5	Humedad	79
134941	7	Sololá	719	Santiago Atitlán	14	Cerro de Oro	3	Marzo	2023-03-03T00:00:00	2024-11-08T02:00:00	6	Velocidad del viento	4.8
134942	7	Sololá	719	Santiago Atitlán	14	Cerro de Oro	3	Marzo	2023-03-03T00:00:00	2024-11-08T02:00:00	7	Dirección del viento	4.83
134943	7	Sololá	719	Santiago Atitlán	14	Cerro de Oro	3	Marzo	2023-03-03T00:00:00	2024-11-08T02:00:00	1	Precipitación	0
134944	7	Sololá	719	Santiago Atitlán	14	Cerro de Oro	3	Marzo	2023-03-03T00:00:00	2024-11-08T02:00:00	8	Radiación solar	0
134945	7	Sololá	719	Santiago Atitlán	14	Cerro de Oro	3	Marzo	2023-03-03T00:00:00	2024-11-08T03:00:00	2	Temperatura media	14
134946	7	Sololá	719	Santiago Atitlán	14	Cerro de Oro	3	Marzo	2023-03-03T00:00:00	2024-11-08T03:00:00	4	Temperatura máxima	14.8
134947	7	Sololá	719	Santiago Atitlán	14	Cerro de Oro	3	Marzo	2023-03-03T00:00:00	2024-11-08T03:00:00	3	Temperatura mínima	13.9
134948	7	Sololá	719	Santiago Atitlán	14	Cerro de Oro	3	Marzo	2023-03-03T00:00:00	2024-11-08T03:00:00	5	Humedad	79
134949	7	Sololá	719	Santiago Atitlán	14	Cerro de Oro	3	Marzo	2023-03-03T00:00:00	2024-11-08T03:00:00	6	Velocidad del viento	4.8
134950	7	Sololá	719	Santiago Atitlán	14	Cerro de Oro	3	Marzo	2023-03-03T00:00:00	2024-11-08T03:00:00	7	Dirección del viento	4.83
134951	7	Sololá	719	Santiago Atitlán	14	Cerro de Oro	3	Marzo	2023-03-03T00:00:00	2024-11-08T03:00:00	1	Precipitación	0
134952	7	Sololá	719	Santiago Atitlán	14	Cerro de Oro	3	Marzo	2023-03-03T00:00:00	2024-11-08T03:00:00	8	Radiación solar	0
134953	7	Sololá	719	Santiago Atitlán	14	Cerro de Oro	3	Marzo	2023-03-03T00:00:00	2024-11-08T04:00:00	2	Temperatura media	14.3
134954	7	Sololá	719	Santiago Atitlán	14	Cerro de Oro	3	Marzo	2023-03-03T00:00:00	2024-11-08T04:00:00	4	Temperatura máxima	14.4
134955	7	Sololá	719	Santiago Atitlán	14	Cerro de Oro	3	Marzo	2023-03-03T00:00:00	2024-11-08T04:00:00	3	Temperatura mínima	13.9
134956	7	Sololá	719	Santiago Atitlán	14	Cerro de Oro	3	Marzo	2023-03-03T00:00:00	2024-11-08T04:00:00	5	Humedad	77
134957	7	Sololá	719	Santiago Atitlán	14	Cerro de Oro	3	Marzo	2023-03-03T00:00:00	2024-11-08T04:00:00	6	Velocidad del viento	4.8
134958	7	Sololá	719	Santiago Atitlán	14	Cerro de Oro	3	Marzo	2023-03-03T00:00:00	2024-11-08T04:00:00	7	Dirección del viento	4.83
134959	7	Sololá	719	Santiago Atitlán	14	Cerro de Oro	3	Marzo	2023-03-03T00:00:00	2024-11-08T04:00:00	1	Precipitación	0
134960	7	Sololá	719	Santiago Atitlán	14	Cerro de Oro	3	Marzo	2023-03-03T00:00:00	2024-11-08T04:00:00	8	Radiación solar	0
134961	7	Sololá	719	Santiago Atitlán	14	Cerro de Oro	3	Marzo	2023-03-03T00:00:00	2024-11-08T05:00:00	2	Temperatura media	13.8
134962	7	Sololá	719	Santiago Atitlán	14	Cerro de Oro	3	Marzo	2023-03-03T00:00:00	2024-11-08T05:00:00	4	Temperatura máxima	14.4
134963	7	Sololá	719	Santiago Atitlán	14	Cerro de Oro	3	Marzo	2023-03-03T00:00:00	2024-11-08T05:00:00	3	Temperatura mínima	13.7
134964	7	Sololá	719	Santiago Atitlán	14	Cerro de Oro	3	Marzo	2023-03-03T00:00:00	2024-11-08T05:00:00	5	Humedad	83
134965	7	Sololá	719	Santiago Atitlán	14	Cerro de Oro	3	Marzo	2023-03-03T00:00:00	2024-11-08T05:00:00	6	Velocidad del viento	4.8
134966	7	Sololá	719	Santiago Atitlán	14	Cerro de Oro	3	Marzo	2023-03-03T00:00:00	2024-11-08T05:00:00	7	Dirección del viento	4.83
134967	7	Sololá	719	Santiago Atitlán	14	Cerro de Oro	3	Marzo	2023-03-03T00:00:00	2024-11-08T05:00:00	1	Precipitación	0
134968	7	Sololá	719	Santiago Atitlán	14	Cerro de Oro	3	Marzo	2023-03-03T00:00:00	2024-11-08T05:00:00	8	Radiación solar	0
134969	7	Sololá	719	Santiago Atitlán	14	Cerro de Oro	3	Marzo	2023-03-03T00:00:00	2024-11-08T06:00:00	2	Temperatura media	13.8
134970	7	Sololá	719	Santiago Atitlán	14	Cerro de Oro	3	Marzo	2023-03-03T00:00:00	2024-11-08T06:00:00	4	Temperatura máxima	14.1
134971	7	Sololá	719	Santiago Atitlán	14	Cerro de Oro	3	Marzo	2023-03-03T00:00:00	2024-11-08T06:00:00	3	Temperatura mínima	13.7
134972	7	Sololá	719	Santiago Atitlán	14	Cerro de Oro	3	Marzo	2023-03-03T00:00:00	2024-11-08T06:00:00	5	Humedad	84
134973	7	Sololá	719	Santiago Atitlán	14	Cerro de Oro	3	Marzo	2023-03-03T00:00:00	2024-11-08T06:00:00	6	Velocidad del viento	4.8
134974	7	Sololá	719	Santiago Atitlán	14	Cerro de Oro	3	Marzo	2023-03-03T00:00:00	2024-11-08T06:00:00	7	Dirección del viento	4.83
134975	7	Sololá	719	Santiago Atitlán	14	Cerro de Oro	3	Marzo	2023-03-03T00:00:00	2024-11-08T06:00:00	1	Precipitación	0
134976	7	Sololá	719	Santiago Atitlán	14	Cerro de Oro	3	Marzo	2023-03-03T00:00:00	2024-11-08T06:00:00	8	Radiación solar	0
134977	7	Sololá	719	Santiago Atitlán	14	Cerro de Oro	3	Marzo	2023-03-03T00:00:00	2024-11-08T07:00:00	2	Temperatura media	14.9
134978	7	Sololá	719	Santiago Atitlán	14	Cerro de Oro	3	Marzo	2023-03-03T00:00:00	2024-11-08T07:00:00	4	Temperatura máxima	14.9
134979	7	Sololá	719	Santiago Atitlán	14	Cerro de Oro	3	Marzo	2023-03-03T00:00:00	2024-11-08T07:00:00	3	Temperatura mínima	13.8
134980	7	Sololá	719	Santiago Atitlán	14	Cerro de Oro	3	Marzo	2023-03-03T00:00:00	2024-11-08T07:00:00	5	Humedad	81
134981	7	Sololá	719	Santiago Atitlán	14	Cerro de Oro	3	Marzo	2023-03-03T00:00:00	2024-11-08T07:00:00	6	Velocidad del viento	3.2
134982	7	Sololá	719	Santiago Atitlán	14	Cerro de Oro	3	Marzo	2023-03-03T00:00:00	2024-11-08T07:00:00	7	Dirección del viento	3.22
134983	7	Sololá	719	Santiago Atitlán	14	Cerro de Oro	3	Marzo	2023-03-03T00:00:00	2024-11-08T07:00:00	1	Precipitación	0
134984	7	Sololá	719	Santiago Atitlán	14	Cerro de Oro	3	Marzo	2023-03-03T00:00:00	2024-11-08T07:00:00	8	Radiación solar	16
134985	7	Sololá	719	Santiago Atitlán	14	Cerro de Oro	3	Marzo	2023-03-03T00:00:00	2024-11-08T08:00:00	2	Temperatura media	17.5
134986	7	Sololá	719	Santiago Atitlán	14	Cerro de Oro	3	Marzo	2023-03-03T00:00:00	2024-11-08T08:00:00	4	Temperatura máxima	17.6
134987	7	Sololá	719	Santiago Atitlán	14	Cerro de Oro	3	Marzo	2023-03-03T00:00:00	2024-11-08T08:00:00	3	Temperatura mínima	14.9
134988	7	Sololá	719	Santiago Atitlán	14	Cerro de Oro	3	Marzo	2023-03-03T00:00:00	2024-11-08T08:00:00	5	Humedad	75
134989	7	Sololá	719	Santiago Atitlán	14	Cerro de Oro	3	Marzo	2023-03-03T00:00:00	2024-11-08T08:00:00	6	Velocidad del viento	1.6
134990	7	Sololá	719	Santiago Atitlán	14	Cerro de Oro	3	Marzo	2023-03-03T00:00:00	2024-11-08T08:00:00	7	Dirección del viento	1.61
134991	7	Sololá	719	Santiago Atitlán	14	Cerro de Oro	3	Marzo	2023-03-03T00:00:00	2024-11-08T08:00:00	1	Precipitación	0
134992	7	Sololá	719	Santiago Atitlán	14	Cerro de Oro	3	Marzo	2023-03-03T00:00:00	2024-11-08T08:00:00	8	Radiación solar	180
134993	7	Sololá	719	Santiago Atitlán	14	Cerro de Oro	3	Marzo	2023-03-03T00:00:00	2024-11-08T09:00:00	2	Temperatura media	18.2
134994	7	Sololá	719	Santiago Atitlán	14	Cerro de Oro	3	Marzo	2023-03-03T00:00:00	2024-11-08T09:00:00	4	Temperatura máxima	18.2
134995	7	Sololá	719	Santiago Atitlán	14	Cerro de Oro	3	Marzo	2023-03-03T00:00:00	2024-11-08T09:00:00	3	Temperatura mínima	17.4
134996	7	Sololá	719	Santiago Atitlán	14	Cerro de Oro	3	Marzo	2023-03-03T00:00:00	2024-11-08T09:00:00	5	Humedad	67
134997	7	Sololá	719	Santiago Atitlán	14	Cerro de Oro	3	Marzo	2023-03-03T00:00:00	2024-11-08T09:00:00	6	Velocidad del viento	4.8
134998	7	Sololá	719	Santiago Atitlán	14	Cerro de Oro	3	Marzo	2023-03-03T00:00:00	2024-11-08T09:00:00	7	Dirección del viento	4.83
134999	7	Sololá	719	Santiago Atitlán	14	Cerro de Oro	3	Marzo	2023-03-03T00:00:00	2024-11-08T09:00:00	1	Precipitación	0
135000	7	Sololá	719	Santiago Atitlán	14	Cerro de Oro	3	Marzo	2023-03-03T00:00:00	2024-11-08T09:00:00	8	Radiación solar	438
135001	7	Sololá	719	Santiago Atitlán	14	Cerro de Oro	3	Marzo	2023-03-03T00:00:00	2024-11-08T10:00:00	2	Temperatura media	19.6
135002	7	Sololá	719	Santiago Atitlán	14	Cerro de Oro	3	Marzo	2023-03-03T00:00:00	2024-11-08T10:00:00	4	Temperatura máxima	19.6
135003	7	Sololá	719	Santiago Atitlán	14	Cerro de Oro	3	Marzo	2023-03-03T00:00:00	2024-11-08T10:00:00	3	Temperatura mínima	18.2
135004	7	Sololá	719	Santiago Atitlán	14	Cerro de Oro	3	Marzo	2023-03-03T00:00:00	2024-11-08T10:00:00	5	Humedad	65
135005	7	Sololá	719	Santiago Atitlán	14	Cerro de Oro	3	Marzo	2023-03-03T00:00:00	2024-11-08T10:00:00	6	Velocidad del viento	4.8
135006	7	Sololá	719	Santiago Atitlán	14	Cerro de Oro	3	Marzo	2023-03-03T00:00:00	2024-11-08T10:00:00	7	Dirección del viento	4.83
135007	7	Sololá	719	Santiago Atitlán	14	Cerro de Oro	3	Marzo	2023-03-03T00:00:00	2024-11-08T10:00:00	1	Precipitación	0
135008	7	Sololá	719	Santiago Atitlán	14	Cerro de Oro	3	Marzo	2023-03-03T00:00:00	2024-11-08T10:00:00	8	Radiación solar	640
135009	7	Sololá	719	Santiago Atitlán	14	Cerro de Oro	3	Marzo	2023-03-03T00:00:00	2024-11-08T11:00:00	2	Temperatura media	22.5
135010	7	Sololá	719	Santiago Atitlán	14	Cerro de Oro	3	Marzo	2023-03-03T00:00:00	2024-11-08T11:00:00	4	Temperatura máxima	22.6
135011	7	Sololá	719	Santiago Atitlán	14	Cerro de Oro	3	Marzo	2023-03-03T00:00:00	2024-11-08T11:00:00	3	Temperatura mínima	19.6
135012	7	Sololá	719	Santiago Atitlán	14	Cerro de Oro	3	Marzo	2023-03-03T00:00:00	2024-11-08T11:00:00	5	Humedad	57
135013	7	Sololá	719	Santiago Atitlán	14	Cerro de Oro	3	Marzo	2023-03-03T00:00:00	2024-11-08T11:00:00	6	Velocidad del viento	8
135014	7	Sololá	719	Santiago Atitlán	14	Cerro de Oro	3	Marzo	2023-03-03T00:00:00	2024-11-08T11:00:00	7	Dirección del viento	8.05
135015	7	Sololá	719	Santiago Atitlán	14	Cerro de Oro	3	Marzo	2023-03-03T00:00:00	2024-11-08T11:00:00	1	Precipitación	0
135016	7	Sololá	719	Santiago Atitlán	14	Cerro de Oro	3	Marzo	2023-03-03T00:00:00	2024-11-08T11:00:00	8	Radiación solar	790
135017	7	Sololá	719	Santiago Atitlán	14	Cerro de Oro	3	Marzo	2023-03-03T00:00:00	2024-11-08T12:00:00	2	Temperatura media	22
135018	7	Sololá	719	Santiago Atitlán	14	Cerro de Oro	3	Marzo	2023-03-03T00:00:00	2024-11-08T12:00:00	4	Temperatura máxima	22.5
135019	7	Sololá	719	Santiago Atitlán	14	Cerro de Oro	3	Marzo	2023-03-03T00:00:00	2024-11-08T12:00:00	3	Temperatura mínima	21.9
135020	7	Sololá	719	Santiago Atitlán	14	Cerro de Oro	3	Marzo	2023-03-03T00:00:00	2024-11-08T12:00:00	5	Humedad	67
135021	7	Sololá	719	Santiago Atitlán	14	Cerro de Oro	3	Marzo	2023-03-03T00:00:00	2024-11-08T12:00:00	6	Velocidad del viento	14.5
135022	7	Sololá	719	Santiago Atitlán	14	Cerro de Oro	3	Marzo	2023-03-03T00:00:00	2024-11-08T12:00:00	7	Dirección del viento	14.48
135023	7	Sololá	719	Santiago Atitlán	14	Cerro de Oro	3	Marzo	2023-03-03T00:00:00	2024-11-08T12:00:00	1	Precipitación	0
135024	7	Sololá	719	Santiago Atitlán	14	Cerro de Oro	3	Marzo	2023-03-03T00:00:00	2024-11-08T12:00:00	8	Radiación solar	871
135025	7	Sololá	719	Santiago Atitlán	14	Cerro de Oro	3	Marzo	2023-03-03T00:00:00	2024-11-08T13:00:00	2	Temperatura media	22.6
135026	7	Sololá	719	Santiago Atitlán	14	Cerro de Oro	3	Marzo	2023-03-03T00:00:00	2024-11-08T13:00:00	4	Temperatura máxima	22.6
135027	7	Sololá	719	Santiago Atitlán	14	Cerro de Oro	3	Marzo	2023-03-03T00:00:00	2024-11-08T13:00:00	3	Temperatura mínima	21.9
135028	7	Sololá	719	Santiago Atitlán	14	Cerro de Oro	3	Marzo	2023-03-03T00:00:00	2024-11-08T13:00:00	5	Humedad	67
135029	7	Sololá	719	Santiago Atitlán	14	Cerro de Oro	3	Marzo	2023-03-03T00:00:00	2024-11-08T13:00:00	6	Velocidad del viento	12.9
135030	7	Sololá	719	Santiago Atitlán	14	Cerro de Oro	3	Marzo	2023-03-03T00:00:00	2024-11-08T13:00:00	7	Dirección del viento	12.87
135031	7	Sololá	719	Santiago Atitlán	14	Cerro de Oro	3	Marzo	2023-03-03T00:00:00	2024-11-08T13:00:00	1	Precipitación	0
135032	7	Sololá	719	Santiago Atitlán	14	Cerro de Oro	3	Marzo	2023-03-03T00:00:00	2024-11-08T13:00:00	8	Radiación solar	887
135033	7	Sololá	719	Santiago Atitlán	14	Cerro de Oro	3	Marzo	2023-03-03T00:00:00	2024-11-08T14:00:00	2	Temperatura media	22.2
135034	7	Sololá	719	Santiago Atitlán	14	Cerro de Oro	3	Marzo	2023-03-03T00:00:00	2024-11-08T14:00:00	4	Temperatura máxima	22.7
135035	7	Sololá	719	Santiago Atitlán	14	Cerro de Oro	3	Marzo	2023-03-03T00:00:00	2024-11-08T14:00:00	3	Temperatura mínima	22
135036	7	Sololá	719	Santiago Atitlán	14	Cerro de Oro	3	Marzo	2023-03-03T00:00:00	2024-11-08T14:00:00	5	Humedad	68
135037	7	Sololá	719	Santiago Atitlán	14	Cerro de Oro	3	Marzo	2023-03-03T00:00:00	2024-11-08T14:00:00	6	Velocidad del viento	16.1
135038	7	Sololá	719	Santiago Atitlán	14	Cerro de Oro	3	Marzo	2023-03-03T00:00:00	2024-11-08T14:00:00	7	Dirección del viento	16.09
135039	7	Sololá	719	Santiago Atitlán	14	Cerro de Oro	3	Marzo	2023-03-03T00:00:00	2024-11-08T14:00:00	1	Precipitación	0
135040	7	Sololá	719	Santiago Atitlán	14	Cerro de Oro	3	Marzo	2023-03-03T00:00:00	2024-11-08T14:00:00	8	Radiación solar	824
135041	7	Sololá	719	Santiago Atitlán	14	Cerro de Oro	3	Marzo	2023-03-03T00:00:00	2024-11-08T15:00:00	2	Temperatura media	22.1
135042	7	Sololá	719	Santiago Atitlán	14	Cerro de Oro	3	Marzo	2023-03-03T00:00:00	2024-11-08T15:00:00	4	Temperatura máxima	22.3
135043	7	Sololá	719	Santiago Atitlán	14	Cerro de Oro	3	Marzo	2023-03-03T00:00:00	2024-11-08T15:00:00	3	Temperatura mínima	21.9
135044	7	Sololá	719	Santiago Atitlán	14	Cerro de Oro	3	Marzo	2023-03-03T00:00:00	2024-11-08T15:00:00	5	Humedad	67
135045	7	Sololá	719	Santiago Atitlán	14	Cerro de Oro	3	Marzo	2023-03-03T00:00:00	2024-11-08T15:00:00	6	Velocidad del viento	14.5
135046	7	Sololá	719	Santiago Atitlán	14	Cerro de Oro	3	Marzo	2023-03-03T00:00:00	2024-11-08T15:00:00	7	Dirección del viento	14.48
135047	7	Sololá	719	Santiago Atitlán	14	Cerro de Oro	3	Marzo	2023-03-03T00:00:00	2024-11-08T15:00:00	1	Precipitación	0
135048	7	Sololá	719	Santiago Atitlán	14	Cerro de Oro	3	Marzo	2023-03-03T00:00:00	2024-11-08T15:00:00	8	Radiación solar	713
135049	7	Sololá	719	Santiago Atitlán	14	Cerro de Oro	3	Marzo	2023-03-03T00:00:00	2024-11-08T16:00:00	2	Temperatura media	21.6
135050	7	Sololá	719	Santiago Atitlán	14	Cerro de Oro	3	Marzo	2023-03-03T00:00:00	2024-11-08T16:00:00	4	Temperatura máxima	22.1
135051	7	Sololá	719	Santiago Atitlán	14	Cerro de Oro	3	Marzo	2023-03-03T00:00:00	2024-11-08T16:00:00	3	Temperatura mínima	21.4
135052	7	Sololá	719	Santiago Atitlán	14	Cerro de Oro	3	Marzo	2023-03-03T00:00:00	2024-11-08T16:00:00	5	Humedad	68
135053	7	Sololá	719	Santiago Atitlán	14	Cerro de Oro	3	Marzo	2023-03-03T00:00:00	2024-11-08T16:00:00	6	Velocidad del viento	12.9
135054	7	Sololá	719	Santiago Atitlán	14	Cerro de Oro	3	Marzo	2023-03-03T00:00:00	2024-11-08T16:00:00	7	Dirección del viento	12.87
135055	7	Sololá	719	Santiago Atitlán	14	Cerro de Oro	3	Marzo	2023-03-03T00:00:00	2024-11-08T16:00:00	1	Precipitación	0
135056	7	Sololá	719	Santiago Atitlán	14	Cerro de Oro	3	Marzo	2023-03-03T00:00:00	2024-11-08T16:00:00	8	Radiación solar	471
135057	7	Sololá	719	Santiago Atitlán	14	Cerro de Oro	3	Marzo	2023-03-03T00:00:00	2024-11-08T17:00:00	2	Temperatura media	21.1
135058	7	Sololá	719	Santiago Atitlán	14	Cerro de Oro	3	Marzo	2023-03-03T00:00:00	2024-11-08T17:00:00	4	Temperatura máxima	21.8
135059	7	Sololá	719	Santiago Atitlán	14	Cerro de Oro	3	Marzo	2023-03-03T00:00:00	2024-11-08T17:00:00	3	Temperatura mínima	20.9
135060	7	Sololá	719	Santiago Atitlán	14	Cerro de Oro	3	Marzo	2023-03-03T00:00:00	2024-11-08T17:00:00	5	Humedad	73
135061	7	Sololá	719	Santiago Atitlán	14	Cerro de Oro	3	Marzo	2023-03-03T00:00:00	2024-11-08T17:00:00	6	Velocidad del viento	9.7
135062	7	Sololá	719	Santiago Atitlán	14	Cerro de Oro	3	Marzo	2023-03-03T00:00:00	2024-11-08T17:00:00	7	Dirección del viento	9.66
135063	7	Sololá	719	Santiago Atitlán	14	Cerro de Oro	3	Marzo	2023-03-03T00:00:00	2024-11-08T17:00:00	1	Precipitación	0
135064	7	Sololá	719	Santiago Atitlán	14	Cerro de Oro	3	Marzo	2023-03-03T00:00:00	2024-11-08T17:00:00	8	Radiación solar	320
135065	7	Sololá	719	Santiago Atitlán	14	Cerro de Oro	3	Marzo	2023-03-03T00:00:00	2024-11-08T18:00:00	2	Temperatura media	19.3
135066	7	Sololá	719	Santiago Atitlán	14	Cerro de Oro	3	Marzo	2023-03-03T00:00:00	2024-11-08T18:00:00	4	Temperatura máxima	21.2
135067	7	Sololá	719	Santiago Atitlán	14	Cerro de Oro	3	Marzo	2023-03-03T00:00:00	2024-11-08T18:00:00	3	Temperatura mínima	19.3
135068	7	Sololá	719	Santiago Atitlán	14	Cerro de Oro	3	Marzo	2023-03-03T00:00:00	2024-11-08T18:00:00	5	Humedad	81
135069	7	Sololá	719	Santiago Atitlán	14	Cerro de Oro	3	Marzo	2023-03-03T00:00:00	2024-11-08T18:00:00	6	Velocidad del viento	8
135070	7	Sololá	719	Santiago Atitlán	14	Cerro de Oro	3	Marzo	2023-03-03T00:00:00	2024-11-08T18:00:00	7	Dirección del viento	8.05
135071	7	Sololá	719	Santiago Atitlán	14	Cerro de Oro	3	Marzo	2023-03-03T00:00:00	2024-11-08T18:00:00	1	Precipitación	0
135072	7	Sololá	719	Santiago Atitlán	14	Cerro de Oro	3	Marzo	2023-03-03T00:00:00	2024-11-08T18:00:00	8	Radiación solar	101
135073	7	Sololá	719	Santiago Atitlán	14	Cerro de Oro	3	Marzo	2023-03-03T00:00:00	2024-11-08T19:00:00	2	Temperatura media	18.7
135074	7	Sololá	719	Santiago Atitlán	14	Cerro de Oro	3	Marzo	2023-03-03T00:00:00	2024-11-08T19:00:00	4	Temperatura máxima	19.4
135075	7	Sololá	719	Santiago Atitlán	14	Cerro de Oro	3	Marzo	2023-03-03T00:00:00	2024-11-08T19:00:00	3	Temperatura mínima	18.7
135076	7	Sololá	719	Santiago Atitlán	14	Cerro de Oro	3	Marzo	2023-03-03T00:00:00	2024-11-08T19:00:00	5	Humedad	83
135077	7	Sololá	719	Santiago Atitlán	14	Cerro de Oro	3	Marzo	2023-03-03T00:00:00	2024-11-08T19:00:00	6	Velocidad del viento	3.2
135078	7	Sololá	719	Santiago Atitlán	14	Cerro de Oro	3	Marzo	2023-03-03T00:00:00	2024-11-08T19:00:00	7	Dirección del viento	3.22
135079	7	Sololá	719	Santiago Atitlán	14	Cerro de Oro	3	Marzo	2023-03-03T00:00:00	2024-11-08T19:00:00	1	Precipitación	0
135080	7	Sololá	719	Santiago Atitlán	14	Cerro de Oro	3	Marzo	2023-03-03T00:00:00	2024-11-08T19:00:00	8	Radiación solar	0
135081	7	Sololá	719	Santiago Atitlán	14	Cerro de Oro	3	Marzo	2023-03-03T00:00:00	2024-11-08T20:00:00	2	Temperatura media	17.7
135082	7	Sololá	719	Santiago Atitlán	14	Cerro de Oro	3	Marzo	2023-03-03T00:00:00	2024-11-08T20:00:00	4	Temperatura máxima	18.7
135083	7	Sololá	719	Santiago Atitlán	14	Cerro de Oro	3	Marzo	2023-03-03T00:00:00	2024-11-08T20:00:00	3	Temperatura mínima	17.7
135084	7	Sololá	719	Santiago Atitlán	14	Cerro de Oro	3	Marzo	2023-03-03T00:00:00	2024-11-08T20:00:00	5	Humedad	82
135085	7	Sololá	719	Santiago Atitlán	14	Cerro de Oro	3	Marzo	2023-03-03T00:00:00	2024-11-08T20:00:00	6	Velocidad del viento	3.2
135086	7	Sololá	719	Santiago Atitlán	14	Cerro de Oro	3	Marzo	2023-03-03T00:00:00	2024-11-08T20:00:00	7	Dirección del viento	3.22
135087	7	Sololá	719	Santiago Atitlán	14	Cerro de Oro	3	Marzo	2023-03-03T00:00:00	2024-11-08T20:00:00	1	Precipitación	0
135088	7	Sololá	719	Santiago Atitlán	14	Cerro de Oro	3	Marzo	2023-03-03T00:00:00	2024-11-08T20:00:00	8	Radiación solar	0
135089	7	Sololá	719	Santiago Atitlán	14	Cerro de Oro	3	Marzo	2023-03-03T00:00:00	2024-11-08T21:00:00	2	Temperatura media	17.7
135090	7	Sololá	719	Santiago Atitlán	14	Cerro de Oro	3	Marzo	2023-03-03T00:00:00	2024-11-08T21:00:00	4	Temperatura máxima	18.1
135091	7	Sololá	719	Santiago Atitlán	14	Cerro de Oro	3	Marzo	2023-03-03T00:00:00	2024-11-08T21:00:00	3	Temperatura mínima	17.7
135092	7	Sololá	719	Santiago Atitlán	14	Cerro de Oro	3	Marzo	2023-03-03T00:00:00	2024-11-08T21:00:00	5	Humedad	84
135093	7	Sololá	719	Santiago Atitlán	14	Cerro de Oro	3	Marzo	2023-03-03T00:00:00	2024-11-08T21:00:00	6	Velocidad del viento	4.8
135094	7	Sololá	719	Santiago Atitlán	14	Cerro de Oro	3	Marzo	2023-03-03T00:00:00	2024-11-08T21:00:00	7	Dirección del viento	4.83
135095	7	Sololá	719	Santiago Atitlán	14	Cerro de Oro	3	Marzo	2023-03-03T00:00:00	2024-11-08T21:00:00	1	Precipitación	0
135096	7	Sololá	719	Santiago Atitlán	14	Cerro de Oro	3	Marzo	2023-03-03T00:00:00	2024-11-08T21:00:00	8	Radiación solar	0
135097	7	Sololá	719	Santiago Atitlán	14	Cerro de Oro	3	Marzo	2023-03-03T00:00:00	2024-11-08T22:00:00	2	Temperatura media	16.3
135098	7	Sololá	719	Santiago Atitlán	14	Cerro de Oro	3	Marzo	2023-03-03T00:00:00	2024-11-08T22:00:00	4	Temperatura máxima	17.7
135099	7	Sololá	719	Santiago Atitlán	14	Cerro de Oro	3	Marzo	2023-03-03T00:00:00	2024-11-08T22:00:00	3	Temperatura mínima	16.3
135100	7	Sololá	719	Santiago Atitlán	14	Cerro de Oro	3	Marzo	2023-03-03T00:00:00	2024-11-08T22:00:00	5	Humedad	85
135101	7	Sololá	719	Santiago Atitlán	14	Cerro de Oro	3	Marzo	2023-03-03T00:00:00	2024-11-08T22:00:00	6	Velocidad del viento	4.8
135102	7	Sololá	719	Santiago Atitlán	14	Cerro de Oro	3	Marzo	2023-03-03T00:00:00	2024-11-08T22:00:00	7	Dirección del viento	4.83
135103	7	Sololá	719	Santiago Atitlán	14	Cerro de Oro	3	Marzo	2023-03-03T00:00:00	2024-11-08T22:00:00	1	Precipitación	0
135104	7	Sololá	719	Santiago Atitlán	14	Cerro de Oro	3	Marzo	2023-03-03T00:00:00	2024-11-08T22:00:00	8	Radiación solar	0
135105	7	Sololá	719	Santiago Atitlán	14	Cerro de Oro	3	Marzo	2023-03-03T00:00:00	2024-11-08T23:00:00	2	Temperatura media	15.7
135106	7	Sololá	719	Santiago Atitlán	14	Cerro de Oro	3	Marzo	2023-03-03T00:00:00	2024-11-08T23:00:00	4	Temperatura máxima	16.3
135107	7	Sololá	719	Santiago Atitlán	14	Cerro de Oro	3	Marzo	2023-03-03T00:00:00	2024-11-08T23:00:00	3	Temperatura mínima	15.7
135108	7	Sololá	719	Santiago Atitlán	14	Cerro de Oro	3	Marzo	2023-03-03T00:00:00	2024-11-08T23:00:00	5	Humedad	87
135109	7	Sololá	719	Santiago Atitlán	14	Cerro de Oro	3	Marzo	2023-03-03T00:00:00	2024-11-08T23:00:00	6	Velocidad del viento	4.8
135110	7	Sololá	719	Santiago Atitlán	14	Cerro de Oro	3	Marzo	2023-03-03T00:00:00	2024-11-08T23:00:00	7	Dirección del viento	4.83
135111	7	Sololá	719	Santiago Atitlán	14	Cerro de Oro	3	Marzo	2023-03-03T00:00:00	2024-11-08T23:00:00	1	Precipitación	0
135112	7	Sololá	719	Santiago Atitlán	14	Cerro de Oro	3	Marzo	2023-03-03T00:00:00	2024-11-08T23:00:00	8	Radiación solar	0
135113	7	Sololá	719	Santiago Atitlán	14	Cerro de Oro	3	Marzo	2023-04-03T00:00:00	2024-11-08T00:00:00	2	Temperatura media	16.6
135114	7	Sololá	719	Santiago Atitlán	14	Cerro de Oro	3	Marzo	2023-04-03T00:00:00	2024-11-08T00:00:00	4	Temperatura máxima	16.6
135115	7	Sololá	719	Santiago Atitlán	14	Cerro de Oro	3	Marzo	2023-04-03T00:00:00	2024-11-08T00:00:00	3	Temperatura mínima	15.7
135116	7	Sololá	719	Santiago Atitlán	14	Cerro de Oro	3	Marzo	2023-04-03T00:00:00	2024-11-08T00:00:00	5	Humedad	87
135117	7	Sololá	719	Santiago Atitlán	14	Cerro de Oro	3	Marzo	2023-04-03T00:00:00	2024-11-08T00:00:00	6	Velocidad del viento	3.2
135118	7	Sololá	719	Santiago Atitlán	14	Cerro de Oro	3	Marzo	2023-04-03T00:00:00	2024-11-08T00:00:00	7	Dirección del viento	3.22
135119	7	Sololá	719	Santiago Atitlán	14	Cerro de Oro	3	Marzo	2023-04-03T00:00:00	2024-11-08T00:00:00	1	Precipitación	0
135120	7	Sololá	719	Santiago Atitlán	14	Cerro de Oro	3	Marzo	2023-04-03T00:00:00	2024-11-08T00:00:00	8	Radiación solar	0
135121	7	Sololá	719	Santiago Atitlán	14	Cerro de Oro	3	Marzo	2023-04-03T00:00:00	2024-11-08T01:00:00	2	Temperatura media	17.1
135122	7	Sololá	719	Santiago Atitlán	14	Cerro de Oro	3	Marzo	2023-04-03T00:00:00	2024-11-08T01:00:00	4	Temperatura máxima	17.1
135123	7	Sololá	719	Santiago Atitlán	14	Cerro de Oro	3	Marzo	2023-04-03T00:00:00	2024-11-08T01:00:00	3	Temperatura mínima	16.6
135124	7	Sololá	719	Santiago Atitlán	14	Cerro de Oro	3	Marzo	2023-04-03T00:00:00	2024-11-08T01:00:00	5	Humedad	87
135125	7	Sololá	719	Santiago Atitlán	14	Cerro de Oro	3	Marzo	2023-04-03T00:00:00	2024-11-08T01:00:00	6	Velocidad del viento	1.6
135126	7	Sololá	719	Santiago Atitlán	14	Cerro de Oro	3	Marzo	2023-04-03T00:00:00	2024-11-08T01:00:00	7	Dirección del viento	1.61
135127	7	Sololá	719	Santiago Atitlán	14	Cerro de Oro	3	Marzo	2023-04-03T00:00:00	2024-11-08T01:00:00	1	Precipitación	0
135128	7	Sololá	719	Santiago Atitlán	14	Cerro de Oro	3	Marzo	2023-04-03T00:00:00	2024-11-08T01:00:00	8	Radiación solar	0
135129	7	Sololá	719	Santiago Atitlán	14	Cerro de Oro	3	Marzo	2023-04-03T00:00:00	2024-11-08T02:00:00	2	Temperatura media	16.2
135130	7	Sololá	719	Santiago Atitlán	14	Cerro de Oro	3	Marzo	2023-04-03T00:00:00	2024-11-08T02:00:00	4	Temperatura máxima	17.1
135131	7	Sololá	719	Santiago Atitlán	14	Cerro de Oro	3	Marzo	2023-04-03T00:00:00	2024-11-08T02:00:00	3	Temperatura mínima	16.1
135132	7	Sololá	719	Santiago Atitlán	14	Cerro de Oro	3	Marzo	2023-04-03T00:00:00	2024-11-08T02:00:00	5	Humedad	87
135133	7	Sololá	719	Santiago Atitlán	14	Cerro de Oro	3	Marzo	2023-04-03T00:00:00	2024-11-08T02:00:00	6	Velocidad del viento	3.2
135134	7	Sololá	719	Santiago Atitlán	14	Cerro de Oro	3	Marzo	2023-04-03T00:00:00	2024-11-08T02:00:00	7	Dirección del viento	3.22
135135	7	Sololá	719	Santiago Atitlán	14	Cerro de Oro	3	Marzo	2023-04-03T00:00:00	2024-11-08T02:00:00	1	Precipitación	0
135136	7	Sololá	719	Santiago Atitlán	14	Cerro de Oro	3	Marzo	2023-04-03T00:00:00	2024-11-08T02:00:00	8	Radiación solar	0
135137	7	Sololá	719	Santiago Atitlán	14	Cerro de Oro	3	Marzo	2023-04-03T00:00:00	2024-11-08T03:00:00	2	Temperatura media	15.9
135138	7	Sololá	719	Santiago Atitlán	14	Cerro de Oro	3	Marzo	2023-04-03T00:00:00	2024-11-08T03:00:00	4	Temperatura máxima	16.2
135139	7	Sololá	719	Santiago Atitlán	14	Cerro de Oro	3	Marzo	2023-04-03T00:00:00	2024-11-08T03:00:00	3	Temperatura mínima	15.4
135140	7	Sololá	719	Santiago Atitlán	14	Cerro de Oro	3	Marzo	2023-04-03T00:00:00	2024-11-08T03:00:00	5	Humedad	88
135141	7	Sololá	719	Santiago Atitlán	14	Cerro de Oro	3	Marzo	2023-04-03T00:00:00	2024-11-08T03:00:00	6	Velocidad del viento	4.8
135142	7	Sololá	719	Santiago Atitlán	14	Cerro de Oro	3	Marzo	2023-04-03T00:00:00	2024-11-08T03:00:00	7	Dirección del viento	4.83
135143	7	Sololá	719	Santiago Atitlán	14	Cerro de Oro	3	Marzo	2023-04-03T00:00:00	2024-11-08T03:00:00	1	Precipitación	0
135144	7	Sololá	719	Santiago Atitlán	14	Cerro de Oro	3	Marzo	2023-04-03T00:00:00	2024-11-08T03:00:00	8	Radiación solar	0
135145	7	Sololá	719	Santiago Atitlán	14	Cerro de Oro	3	Marzo	2023-04-03T00:00:00	2024-11-08T04:00:00	2	Temperatura media	15.2
135146	7	Sololá	719	Santiago Atitlán	14	Cerro de Oro	3	Marzo	2023-04-03T00:00:00	2024-11-08T04:00:00	4	Temperatura máxima	16
135147	7	Sololá	719	Santiago Atitlán	14	Cerro de Oro	3	Marzo	2023-04-03T00:00:00	2024-11-08T04:00:00	3	Temperatura mínima	15
135148	7	Sololá	719	Santiago Atitlán	14	Cerro de Oro	3	Marzo	2023-04-03T00:00:00	2024-11-08T04:00:00	5	Humedad	89
135149	7	Sololá	719	Santiago Atitlán	14	Cerro de Oro	3	Marzo	2023-04-03T00:00:00	2024-11-08T04:00:00	6	Velocidad del viento	3.2
135150	7	Sololá	719	Santiago Atitlán	14	Cerro de Oro	3	Marzo	2023-04-03T00:00:00	2024-11-08T04:00:00	7	Dirección del viento	3.22
135151	7	Sololá	719	Santiago Atitlán	14	Cerro de Oro	3	Marzo	2023-04-03T00:00:00	2024-11-08T04:00:00	1	Precipitación	0
135152	7	Sololá	719	Santiago Atitlán	14	Cerro de Oro	3	Marzo	2023-04-03T00:00:00	2024-11-08T04:00:00	8	Radiación solar	0
135153	7	Sololá	719	Santiago Atitlán	14	Cerro de Oro	3	Marzo	2023-04-03T00:00:00	2024-11-08T05:00:00	2	Temperatura media	15.9
135154	7	Sololá	719	Santiago Atitlán	14	Cerro de Oro	3	Marzo	2023-04-03T00:00:00	2024-11-08T05:00:00	4	Temperatura máxima	15.9
135155	7	Sololá	719	Santiago Atitlán	14	Cerro de Oro	3	Marzo	2023-04-03T00:00:00	2024-11-08T05:00:00	3	Temperatura mínima	15.2
135156	7	Sololá	719	Santiago Atitlán	14	Cerro de Oro	3	Marzo	2023-04-03T00:00:00	2024-11-08T05:00:00	5	Humedad	88
135157	7	Sololá	719	Santiago Atitlán	14	Cerro de Oro	3	Marzo	2023-04-03T00:00:00	2024-11-08T05:00:00	6	Velocidad del viento	4.8
135158	7	Sololá	719	Santiago Atitlán	14	Cerro de Oro	3	Marzo	2023-04-03T00:00:00	2024-11-08T05:00:00	7	Dirección del viento	4.83
135159	7	Sololá	719	Santiago Atitlán	14	Cerro de Oro	3	Marzo	2023-04-03T00:00:00	2024-11-08T05:00:00	1	Precipitación	0
135160	7	Sololá	719	Santiago Atitlán	14	Cerro de Oro	3	Marzo	2023-04-03T00:00:00	2024-11-08T05:00:00	8	Radiación solar	0
135161	7	Sololá	719	Santiago Atitlán	14	Cerro de Oro	3	Marzo	2023-04-03T00:00:00	2024-11-08T06:00:00	2	Temperatura media	15.7
135162	7	Sololá	719	Santiago Atitlán	14	Cerro de Oro	3	Marzo	2023-04-03T00:00:00	2024-11-08T06:00:00	4	Temperatura máxima	15.9
135163	7	Sololá	719	Santiago Atitlán	14	Cerro de Oro	3	Marzo	2023-04-03T00:00:00	2024-11-08T06:00:00	3	Temperatura mínima	15.7
135164	7	Sololá	719	Santiago Atitlán	14	Cerro de Oro	3	Marzo	2023-04-03T00:00:00	2024-11-08T06:00:00	5	Humedad	87
135165	7	Sololá	719	Santiago Atitlán	14	Cerro de Oro	3	Marzo	2023-04-03T00:00:00	2024-11-08T06:00:00	6	Velocidad del viento	4.8
135166	7	Sololá	719	Santiago Atitlán	14	Cerro de Oro	3	Marzo	2023-04-03T00:00:00	2024-11-08T06:00:00	7	Dirección del viento	4.83
135167	7	Sololá	719	Santiago Atitlán	14	Cerro de Oro	3	Marzo	2023-04-03T00:00:00	2024-11-08T06:00:00	1	Precipitación	0
135168	7	Sololá	719	Santiago Atitlán	14	Cerro de Oro	3	Marzo	2023-04-03T00:00:00	2024-11-08T06:00:00	8	Radiación solar	0
135169	7	Sololá	719	Santiago Atitlán	14	Cerro de Oro	3	Marzo	2023-04-03T00:00:00	2024-11-08T07:00:00	2	Temperatura media	16.1
135170	7	Sololá	719	Santiago Atitlán	14	Cerro de Oro	3	Marzo	2023-04-03T00:00:00	2024-11-08T07:00:00	4	Temperatura máxima	16.1
135171	7	Sololá	719	Santiago Atitlán	14	Cerro de Oro	3	Marzo	2023-04-03T00:00:00	2024-11-08T07:00:00	3	Temperatura mínima	15.5
135172	7	Sololá	719	Santiago Atitlán	14	Cerro de Oro	3	Marzo	2023-04-03T00:00:00	2024-11-08T07:00:00	5	Humedad	85
135173	7	Sololá	719	Santiago Atitlán	14	Cerro de Oro	3	Marzo	2023-04-03T00:00:00	2024-11-08T07:00:00	6	Velocidad del viento	4.8
135174	7	Sololá	719	Santiago Atitlán	14	Cerro de Oro	3	Marzo	2023-04-03T00:00:00	2024-11-08T07:00:00	7	Dirección del viento	4.83
135175	7	Sololá	719	Santiago Atitlán	14	Cerro de Oro	3	Marzo	2023-04-03T00:00:00	2024-11-08T07:00:00	1	Precipitación	0
135176	7	Sololá	719	Santiago Atitlán	14	Cerro de Oro	3	Marzo	2023-04-03T00:00:00	2024-11-08T07:00:00	8	Radiación solar	17
135177	7	Sololá	719	Santiago Atitlán	14	Cerro de Oro	3	Marzo	2023-04-03T00:00:00	2024-11-08T08:00:00	2	Temperatura media	18.2
135178	7	Sololá	719	Santiago Atitlán	14	Cerro de Oro	3	Marzo	2023-04-03T00:00:00	2024-11-08T08:00:00	4	Temperatura máxima	18.2
135179	7	Sololá	719	Santiago Atitlán	14	Cerro de Oro	3	Marzo	2023-04-03T00:00:00	2024-11-08T08:00:00	3	Temperatura mínima	16.1
135180	7	Sololá	719	Santiago Atitlán	14	Cerro de Oro	3	Marzo	2023-04-03T00:00:00	2024-11-08T08:00:00	5	Humedad	78
135181	7	Sololá	719	Santiago Atitlán	14	Cerro de Oro	3	Marzo	2023-04-03T00:00:00	2024-11-08T08:00:00	6	Velocidad del viento	3.2
135182	7	Sololá	719	Santiago Atitlán	14	Cerro de Oro	3	Marzo	2023-04-03T00:00:00	2024-11-08T08:00:00	7	Dirección del viento	3.22
135183	7	Sololá	719	Santiago Atitlán	14	Cerro de Oro	3	Marzo	2023-04-03T00:00:00	2024-11-08T08:00:00	1	Precipitación	0
135184	7	Sololá	719	Santiago Atitlán	14	Cerro de Oro	3	Marzo	2023-04-03T00:00:00	2024-11-08T08:00:00	8	Radiación solar	157
135185	7	Sololá	719	Santiago Atitlán	14	Cerro de Oro	3	Marzo	2023-04-03T00:00:00	2024-11-08T09:00:00	2	Temperatura media	19.3
135186	7	Sololá	719	Santiago Atitlán	14	Cerro de Oro	3	Marzo	2023-04-03T00:00:00	2024-11-08T09:00:00	4	Temperatura máxima	19.3
135187	7	Sololá	719	Santiago Atitlán	14	Cerro de Oro	3	Marzo	2023-04-03T00:00:00	2024-11-08T09:00:00	3	Temperatura mínima	18.2
135188	7	Sololá	719	Santiago Atitlán	14	Cerro de Oro	3	Marzo	2023-04-03T00:00:00	2024-11-08T09:00:00	5	Humedad	72
135189	7	Sololá	719	Santiago Atitlán	14	Cerro de Oro	3	Marzo	2023-04-03T00:00:00	2024-11-08T09:00:00	6	Velocidad del viento	4.8
135190	7	Sololá	719	Santiago Atitlán	14	Cerro de Oro	3	Marzo	2023-04-03T00:00:00	2024-11-08T09:00:00	7	Dirección del viento	4.83
135191	7	Sololá	719	Santiago Atitlán	14	Cerro de Oro	3	Marzo	2023-04-03T00:00:00	2024-11-08T09:00:00	1	Precipitación	0
135192	7	Sololá	719	Santiago Atitlán	14	Cerro de Oro	3	Marzo	2023-04-03T00:00:00	2024-11-08T09:00:00	8	Radiación solar	401
135193	7	Sololá	719	Santiago Atitlán	14	Cerro de Oro	3	Marzo	2023-04-03T00:00:00	2024-11-08T10:00:00	2	Temperatura media	20.3
135194	7	Sololá	719	Santiago Atitlán	14	Cerro de Oro	3	Marzo	2023-04-03T00:00:00	2024-11-08T10:00:00	4	Temperatura máxima	20.3
135195	7	Sololá	719	Santiago Atitlán	14	Cerro de Oro	3	Marzo	2023-04-03T00:00:00	2024-11-08T10:00:00	3	Temperatura mínima	19.1
135196	7	Sololá	719	Santiago Atitlán	14	Cerro de Oro	3	Marzo	2023-04-03T00:00:00	2024-11-08T10:00:00	5	Humedad	72
135197	7	Sololá	719	Santiago Atitlán	14	Cerro de Oro	3	Marzo	2023-04-03T00:00:00	2024-11-08T10:00:00	6	Velocidad del viento	4.8
135198	7	Sololá	719	Santiago Atitlán	14	Cerro de Oro	3	Marzo	2023-04-03T00:00:00	2024-11-08T10:00:00	7	Dirección del viento	4.83
135199	7	Sololá	719	Santiago Atitlán	14	Cerro de Oro	3	Marzo	2023-04-03T00:00:00	2024-11-08T10:00:00	1	Precipitación	0
135200	7	Sololá	719	Santiago Atitlán	14	Cerro de Oro	3	Marzo	2023-04-03T00:00:00	2024-11-08T10:00:00	8	Radiación solar	610
135201	7	Sololá	719	Santiago Atitlán	14	Cerro de Oro	3	Marzo	2023-04-03T00:00:00	2024-11-08T11:00:00	2	Temperatura media	23.2
135202	7	Sololá	719	Santiago Atitlán	14	Cerro de Oro	3	Marzo	2023-04-03T00:00:00	2024-11-08T11:00:00	4	Temperatura máxima	23.2
135203	7	Sololá	719	Santiago Atitlán	14	Cerro de Oro	3	Marzo	2023-04-03T00:00:00	2024-11-08T11:00:00	3	Temperatura mínima	20.1
135204	7	Sololá	719	Santiago Atitlán	14	Cerro de Oro	3	Marzo	2023-04-03T00:00:00	2024-11-08T11:00:00	5	Humedad	65
135205	7	Sololá	719	Santiago Atitlán	14	Cerro de Oro	3	Marzo	2023-04-03T00:00:00	2024-11-08T11:00:00	6	Velocidad del viento	9.7
135206	7	Sololá	719	Santiago Atitlán	14	Cerro de Oro	3	Marzo	2023-04-03T00:00:00	2024-11-08T11:00:00	7	Dirección del viento	9.66
135207	7	Sololá	719	Santiago Atitlán	14	Cerro de Oro	3	Marzo	2023-04-03T00:00:00	2024-11-08T11:00:00	1	Precipitación	0
135208	7	Sololá	719	Santiago Atitlán	14	Cerro de Oro	3	Marzo	2023-04-03T00:00:00	2024-11-08T11:00:00	8	Radiación solar	736
135209	7	Sololá	719	Santiago Atitlán	14	Cerro de Oro	3	Marzo	2023-04-03T00:00:00	2024-11-08T12:00:00	2	Temperatura media	23.5
135210	7	Sololá	719	Santiago Atitlán	14	Cerro de Oro	3	Marzo	2023-04-03T00:00:00	2024-11-08T12:00:00	4	Temperatura máxima	24.2
135211	7	Sololá	719	Santiago Atitlán	14	Cerro de Oro	3	Marzo	2023-04-03T00:00:00	2024-11-08T12:00:00	3	Temperatura mínima	23.2
135212	7	Sololá	719	Santiago Atitlán	14	Cerro de Oro	3	Marzo	2023-04-03T00:00:00	2024-11-08T12:00:00	5	Humedad	65
135213	7	Sololá	719	Santiago Atitlán	14	Cerro de Oro	3	Marzo	2023-04-03T00:00:00	2024-11-08T12:00:00	6	Velocidad del viento	12.9
135214	7	Sololá	719	Santiago Atitlán	14	Cerro de Oro	3	Marzo	2023-04-03T00:00:00	2024-11-08T12:00:00	7	Dirección del viento	12.87
135215	7	Sololá	719	Santiago Atitlán	14	Cerro de Oro	3	Marzo	2023-04-03T00:00:00	2024-11-08T12:00:00	1	Precipitación	0
135216	7	Sololá	719	Santiago Atitlán	14	Cerro de Oro	3	Marzo	2023-04-03T00:00:00	2024-11-08T12:00:00	8	Radiación solar	847
135217	7	Sololá	719	Santiago Atitlán	14	Cerro de Oro	3	Marzo	2023-04-03T00:00:00	2024-11-08T13:00:00	2	Temperatura media	23.2
135218	7	Sololá	719	Santiago Atitlán	14	Cerro de Oro	3	Marzo	2023-04-03T00:00:00	2024-11-08T13:00:00	4	Temperatura máxima	23.6
135219	7	Sololá	719	Santiago Atitlán	14	Cerro de Oro	3	Marzo	2023-04-03T00:00:00	2024-11-08T13:00:00	3	Temperatura mínima	22.8
135220	7	Sololá	719	Santiago Atitlán	14	Cerro de Oro	3	Marzo	2023-04-03T00:00:00	2024-11-08T13:00:00	5	Humedad	67
135221	7	Sololá	719	Santiago Atitlán	14	Cerro de Oro	3	Marzo	2023-04-03T00:00:00	2024-11-08T13:00:00	6	Velocidad del viento	16.1
135222	7	Sololá	719	Santiago Atitlán	14	Cerro de Oro	3	Marzo	2023-04-03T00:00:00	2024-11-08T13:00:00	7	Dirección del viento	16.09
135223	7	Sololá	719	Santiago Atitlán	14	Cerro de Oro	3	Marzo	2023-04-03T00:00:00	2024-11-08T13:00:00	1	Precipitación	0
135224	7	Sololá	719	Santiago Atitlán	14	Cerro de Oro	3	Marzo	2023-04-03T00:00:00	2024-11-08T13:00:00	8	Radiación solar	872
135225	7	Sololá	719	Santiago Atitlán	14	Cerro de Oro	3	Marzo	2023-04-03T00:00:00	2024-11-08T14:00:00	2	Temperatura media	23.6
135226	7	Sololá	719	Santiago Atitlán	14	Cerro de Oro	3	Marzo	2023-04-03T00:00:00	2024-11-08T14:00:00	4	Temperatura máxima	24.3
135227	7	Sololá	719	Santiago Atitlán	14	Cerro de Oro	3	Marzo	2023-04-03T00:00:00	2024-11-08T14:00:00	3	Temperatura mínima	23.2
135228	7	Sololá	719	Santiago Atitlán	14	Cerro de Oro	3	Marzo	2023-04-03T00:00:00	2024-11-08T14:00:00	5	Humedad	64
135229	7	Sololá	719	Santiago Atitlán	14	Cerro de Oro	3	Marzo	2023-04-03T00:00:00	2024-11-08T14:00:00	6	Velocidad del viento	12.9
135230	7	Sololá	719	Santiago Atitlán	14	Cerro de Oro	3	Marzo	2023-04-03T00:00:00	2024-11-08T14:00:00	7	Dirección del viento	12.87
135231	7	Sololá	719	Santiago Atitlán	14	Cerro de Oro	3	Marzo	2023-04-03T00:00:00	2024-11-08T14:00:00	1	Precipitación	0
135232	7	Sololá	719	Santiago Atitlán	14	Cerro de Oro	3	Marzo	2023-04-03T00:00:00	2024-11-08T14:00:00	8	Radiación solar	823
135233	7	Sololá	719	Santiago Atitlán	14	Cerro de Oro	3	Marzo	2023-04-03T00:00:00	2024-11-08T15:00:00	2	Temperatura media	22.6
135234	7	Sololá	719	Santiago Atitlán	14	Cerro de Oro	3	Marzo	2023-04-03T00:00:00	2024-11-08T15:00:00	4	Temperatura máxima	23.8
135235	7	Sololá	719	Santiago Atitlán	14	Cerro de Oro	3	Marzo	2023-04-03T00:00:00	2024-11-08T15:00:00	3	Temperatura mínima	22.5
135236	7	Sololá	719	Santiago Atitlán	14	Cerro de Oro	3	Marzo	2023-04-03T00:00:00	2024-11-08T15:00:00	5	Humedad	70
135237	7	Sololá	719	Santiago Atitlán	14	Cerro de Oro	3	Marzo	2023-04-03T00:00:00	2024-11-08T15:00:00	6	Velocidad del viento	12.9
135238	7	Sololá	719	Santiago Atitlán	14	Cerro de Oro	3	Marzo	2023-04-03T00:00:00	2024-11-08T15:00:00	7	Dirección del viento	12.87
135239	7	Sololá	719	Santiago Atitlán	14	Cerro de Oro	3	Marzo	2023-04-03T00:00:00	2024-11-08T15:00:00	1	Precipitación	0
135240	7	Sololá	719	Santiago Atitlán	14	Cerro de Oro	3	Marzo	2023-04-03T00:00:00	2024-11-08T15:00:00	8	Radiación solar	513
135241	7	Sololá	719	Santiago Atitlán	14	Cerro de Oro	3	Marzo	2023-04-03T00:00:00	2024-11-08T16:00:00	2	Temperatura media	22.5
135242	7	Sololá	719	Santiago Atitlán	14	Cerro de Oro	3	Marzo	2023-04-03T00:00:00	2024-11-08T16:00:00	4	Temperatura máxima	22.8
135243	7	Sololá	719	Santiago Atitlán	14	Cerro de Oro	3	Marzo	2023-04-03T00:00:00	2024-11-08T16:00:00	3	Temperatura mínima	22.4
135244	7	Sololá	719	Santiago Atitlán	14	Cerro de Oro	3	Marzo	2023-04-03T00:00:00	2024-11-08T16:00:00	5	Humedad	70
135245	7	Sololá	719	Santiago Atitlán	14	Cerro de Oro	3	Marzo	2023-04-03T00:00:00	2024-11-08T16:00:00	6	Velocidad del viento	11.3
135246	7	Sololá	719	Santiago Atitlán	14	Cerro de Oro	3	Marzo	2023-04-03T00:00:00	2024-11-08T16:00:00	7	Dirección del viento	11.27
135247	7	Sololá	719	Santiago Atitlán	14	Cerro de Oro	3	Marzo	2023-04-03T00:00:00	2024-11-08T16:00:00	1	Precipitación	0
135248	7	Sololá	719	Santiago Atitlán	14	Cerro de Oro	3	Marzo	2023-04-03T00:00:00	2024-11-08T16:00:00	8	Radiación solar	269
135249	7	Sololá	719	Santiago Atitlán	14	Cerro de Oro	3	Marzo	2023-04-03T00:00:00	2024-11-08T17:00:00	2	Temperatura media	21.3
135250	7	Sololá	719	Santiago Atitlán	14	Cerro de Oro	3	Marzo	2023-04-03T00:00:00	2024-11-08T17:00:00	4	Temperatura máxima	22.5
135251	7	Sololá	719	Santiago Atitlán	14	Cerro de Oro	3	Marzo	2023-04-03T00:00:00	2024-11-08T17:00:00	3	Temperatura mínima	21.3
135252	7	Sololá	719	Santiago Atitlán	14	Cerro de Oro	3	Marzo	2023-04-03T00:00:00	2024-11-08T17:00:00	5	Humedad	74
135253	7	Sololá	719	Santiago Atitlán	14	Cerro de Oro	3	Marzo	2023-04-03T00:00:00	2024-11-08T17:00:00	6	Velocidad del viento	9.7
135254	7	Sololá	719	Santiago Atitlán	14	Cerro de Oro	3	Marzo	2023-04-03T00:00:00	2024-11-08T17:00:00	7	Dirección del viento	9.66
135255	7	Sololá	719	Santiago Atitlán	14	Cerro de Oro	3	Marzo	2023-04-03T00:00:00	2024-11-08T17:00:00	1	Precipitación	0
135256	7	Sololá	719	Santiago Atitlán	14	Cerro de Oro	3	Marzo	2023-04-03T00:00:00	2024-11-08T17:00:00	8	Radiación solar	141
135257	7	Sololá	719	Santiago Atitlán	14	Cerro de Oro	3	Marzo	2023-04-03T00:00:00	2024-11-08T18:00:00	2	Temperatura media	20.4
135258	7	Sololá	719	Santiago Atitlán	14	Cerro de Oro	3	Marzo	2023-04-03T00:00:00	2024-11-08T18:00:00	4	Temperatura máxima	21.4
135259	7	Sololá	719	Santiago Atitlán	14	Cerro de Oro	3	Marzo	2023-04-03T00:00:00	2024-11-08T18:00:00	3	Temperatura mínima	20.4
135260	7	Sololá	719	Santiago Atitlán	14	Cerro de Oro	3	Marzo	2023-04-03T00:00:00	2024-11-08T18:00:00	5	Humedad	79
135261	7	Sololá	719	Santiago Atitlán	14	Cerro de Oro	3	Marzo	2023-04-03T00:00:00	2024-11-08T18:00:00	6	Velocidad del viento	6.4
135262	7	Sololá	719	Santiago Atitlán	14	Cerro de Oro	3	Marzo	2023-04-03T00:00:00	2024-11-08T18:00:00	7	Dirección del viento	6.44
135263	7	Sololá	719	Santiago Atitlán	14	Cerro de Oro	3	Marzo	2023-04-03T00:00:00	2024-11-08T18:00:00	1	Precipitación	0
135264	7	Sololá	719	Santiago Atitlán	14	Cerro de Oro	3	Marzo	2023-04-03T00:00:00	2024-11-08T18:00:00	8	Radiación solar	54
135265	7	Sololá	719	Santiago Atitlán	14	Cerro de Oro	3	Marzo	2023-04-03T00:00:00	2024-11-08T19:00:00	2	Temperatura media	19
135266	7	Sololá	719	Santiago Atitlán	14	Cerro de Oro	3	Marzo	2023-04-03T00:00:00	2024-11-08T19:00:00	4	Temperatura máxima	20.4
135267	7	Sololá	719	Santiago Atitlán	14	Cerro de Oro	3	Marzo	2023-04-03T00:00:00	2024-11-08T19:00:00	3	Temperatura mínima	18.9
135268	7	Sololá	719	Santiago Atitlán	14	Cerro de Oro	3	Marzo	2023-04-03T00:00:00	2024-11-08T19:00:00	5	Humedad	83
135269	7	Sololá	719	Santiago Atitlán	14	Cerro de Oro	3	Marzo	2023-04-03T00:00:00	2024-11-08T19:00:00	6	Velocidad del viento	3.2
135270	7	Sololá	719	Santiago Atitlán	14	Cerro de Oro	3	Marzo	2023-04-03T00:00:00	2024-11-08T19:00:00	7	Dirección del viento	3.22
135271	7	Sololá	719	Santiago Atitlán	14	Cerro de Oro	3	Marzo	2023-04-03T00:00:00	2024-11-08T19:00:00	1	Precipitación	0
135272	7	Sololá	719	Santiago Atitlán	14	Cerro de Oro	3	Marzo	2023-04-03T00:00:00	2024-11-08T19:00:00	8	Radiación solar	0
135273	7	Sololá	719	Santiago Atitlán	14	Cerro de Oro	3	Marzo	2023-04-03T00:00:00	2024-11-08T20:00:00	2	Temperatura media	19.5
135274	7	Sololá	719	Santiago Atitlán	14	Cerro de Oro	3	Marzo	2023-04-03T00:00:00	2024-11-08T20:00:00	4	Temperatura máxima	19.6
135275	7	Sololá	719	Santiago Atitlán	14	Cerro de Oro	3	Marzo	2023-04-03T00:00:00	2024-11-08T20:00:00	3	Temperatura mínima	19
135276	7	Sololá	719	Santiago Atitlán	14	Cerro de Oro	3	Marzo	2023-04-03T00:00:00	2024-11-08T20:00:00	5	Humedad	82
135277	7	Sololá	719	Santiago Atitlán	14	Cerro de Oro	3	Marzo	2023-04-03T00:00:00	2024-11-08T20:00:00	6	Velocidad del viento	1.6
135278	7	Sololá	719	Santiago Atitlán	14	Cerro de Oro	3	Marzo	2023-04-03T00:00:00	2024-11-08T20:00:00	7	Dirección del viento	1.61
135279	7	Sololá	719	Santiago Atitlán	14	Cerro de Oro	3	Marzo	2023-04-03T00:00:00	2024-11-08T20:00:00	1	Precipitación	0
135280	7	Sololá	719	Santiago Atitlán	14	Cerro de Oro	3	Marzo	2023-04-03T00:00:00	2024-11-08T20:00:00	8	Radiación solar	0
135281	7	Sololá	719	Santiago Atitlán	14	Cerro de Oro	3	Marzo	2023-04-03T00:00:00	2024-11-08T21:00:00	2	Temperatura media	19.4
135282	7	Sololá	719	Santiago Atitlán	14	Cerro de Oro	3	Marzo	2023-04-03T00:00:00	2024-11-08T21:00:00	4	Temperatura máxima	19.7
135283	7	Sololá	719	Santiago Atitlán	14	Cerro de Oro	3	Marzo	2023-04-03T00:00:00	2024-11-08T21:00:00	3	Temperatura mínima	19.2
135284	7	Sololá	719	Santiago Atitlán	14	Cerro de Oro	3	Marzo	2023-04-03T00:00:00	2024-11-08T21:00:00	5	Humedad	82
135285	7	Sololá	719	Santiago Atitlán	14	Cerro de Oro	3	Marzo	2023-04-03T00:00:00	2024-11-08T21:00:00	6	Velocidad del viento	3.2
135286	7	Sololá	719	Santiago Atitlán	14	Cerro de Oro	3	Marzo	2023-04-03T00:00:00	2024-11-08T21:00:00	7	Dirección del viento	3.22
135287	7	Sololá	719	Santiago Atitlán	14	Cerro de Oro	3	Marzo	2023-04-03T00:00:00	2024-11-08T21:00:00	1	Precipitación	0
135288	7	Sololá	719	Santiago Atitlán	14	Cerro de Oro	3	Marzo	2023-04-03T00:00:00	2024-11-08T21:00:00	8	Radiación solar	0
135289	7	Sololá	719	Santiago Atitlán	14	Cerro de Oro	3	Marzo	2023-04-03T00:00:00	2024-11-08T22:00:00	2	Temperatura media	20.4
135290	7	Sololá	719	Santiago Atitlán	14	Cerro de Oro	3	Marzo	2023-04-03T00:00:00	2024-11-08T22:00:00	4	Temperatura máxima	20.6
135291	7	Sololá	719	Santiago Atitlán	14	Cerro de Oro	3	Marzo	2023-04-03T00:00:00	2024-11-08T22:00:00	3	Temperatura mínima	19.3
135292	7	Sololá	719	Santiago Atitlán	14	Cerro de Oro	3	Marzo	2023-04-03T00:00:00	2024-11-08T22:00:00	5	Humedad	74
135293	7	Sololá	719	Santiago Atitlán	14	Cerro de Oro	3	Marzo	2023-04-03T00:00:00	2024-11-08T22:00:00	6	Velocidad del viento	3.2
135294	7	Sololá	719	Santiago Atitlán	14	Cerro de Oro	3	Marzo	2023-04-03T00:00:00	2024-11-08T22:00:00	7	Dirección del viento	3.22
135295	7	Sololá	719	Santiago Atitlán	14	Cerro de Oro	3	Marzo	2023-04-03T00:00:00	2024-11-08T22:00:00	1	Precipitación	0
135296	7	Sololá	719	Santiago Atitlán	14	Cerro de Oro	3	Marzo	2023-04-03T00:00:00	2024-11-08T22:00:00	8	Radiación solar	0
135297	7	Sololá	719	Santiago Atitlán	14	Cerro de Oro	3	Marzo	2023-04-03T00:00:00	2024-11-08T23:00:00	2	Temperatura media	20.2
135298	7	Sololá	719	Santiago Atitlán	14	Cerro de Oro	3	Marzo	2023-04-03T00:00:00	2024-11-08T23:00:00	4	Temperatura máxima	20.4
135299	7	Sololá	719	Santiago Atitlán	14	Cerro de Oro	3	Marzo	2023-04-03T00:00:00	2024-11-08T23:00:00	3	Temperatura mínima	19.7
135300	7	Sololá	719	Santiago Atitlán	14	Cerro de Oro	3	Marzo	2023-04-03T00:00:00	2024-11-08T23:00:00	5	Humedad	74
135301	7	Sololá	719	Santiago Atitlán	14	Cerro de Oro	3	Marzo	2023-04-03T00:00:00	2024-11-08T23:00:00	6	Velocidad del viento	4.8
135302	7	Sololá	719	Santiago Atitlán	14	Cerro de Oro	3	Marzo	2023-04-03T00:00:00	2024-11-08T23:00:00	7	Dirección del viento	4.83
135303	7	Sololá	719	Santiago Atitlán	14	Cerro de Oro	3	Marzo	2023-04-03T00:00:00	2024-11-08T23:00:00	1	Precipitación	0
135304	7	Sololá	719	Santiago Atitlán	14	Cerro de Oro	3	Marzo	2023-04-03T00:00:00	2024-11-08T23:00:00	8	Radiación solar	0
135305	7	Sololá	719	Santiago Atitlán	14	Cerro de Oro	3	Marzo	2023-05-03T00:00:00	2024-11-08T00:00:00	2	Temperatura media	19.7
135306	7	Sololá	719	Santiago Atitlán	14	Cerro de Oro	3	Marzo	2023-05-03T00:00:00	2024-11-08T00:00:00	4	Temperatura máxima	20.3
135307	7	Sololá	719	Santiago Atitlán	14	Cerro de Oro	3	Marzo	2023-05-03T00:00:00	2024-11-08T00:00:00	3	Temperatura mínima	19.7
135308	7	Sololá	719	Santiago Atitlán	14	Cerro de Oro	3	Marzo	2023-05-03T00:00:00	2024-11-08T00:00:00	5	Humedad	75
135309	7	Sololá	719	Santiago Atitlán	14	Cerro de Oro	3	Marzo	2023-05-03T00:00:00	2024-11-08T00:00:00	6	Velocidad del viento	6.4
135310	7	Sololá	719	Santiago Atitlán	14	Cerro de Oro	3	Marzo	2023-05-03T00:00:00	2024-11-08T00:00:00	7	Dirección del viento	6.44
135311	7	Sololá	719	Santiago Atitlán	14	Cerro de Oro	3	Marzo	2023-05-03T00:00:00	2024-11-08T00:00:00	1	Precipitación	0
135312	7	Sololá	719	Santiago Atitlán	14	Cerro de Oro	3	Marzo	2023-05-03T00:00:00	2024-11-08T00:00:00	8	Radiación solar	0
135313	7	Sololá	719	Santiago Atitlán	14	Cerro de Oro	3	Marzo	2023-05-03T00:00:00	2024-11-08T01:00:00	2	Temperatura media	19.4
135314	7	Sololá	719	Santiago Atitlán	14	Cerro de Oro	3	Marzo	2023-05-03T00:00:00	2024-11-08T01:00:00	4	Temperatura máxima	19.8
135315	7	Sololá	719	Santiago Atitlán	14	Cerro de Oro	3	Marzo	2023-05-03T00:00:00	2024-11-08T01:00:00	3	Temperatura mínima	18.7
135316	7	Sololá	719	Santiago Atitlán	14	Cerro de Oro	3	Marzo	2023-05-03T00:00:00	2024-11-08T01:00:00	5	Humedad	76
135317	7	Sololá	719	Santiago Atitlán	14	Cerro de Oro	3	Marzo	2023-05-03T00:00:00	2024-11-08T01:00:00	6	Velocidad del viento	6.4
135318	7	Sololá	719	Santiago Atitlán	14	Cerro de Oro	3	Marzo	2023-05-03T00:00:00	2024-11-08T01:00:00	7	Dirección del viento	6.44
135319	7	Sololá	719	Santiago Atitlán	14	Cerro de Oro	3	Marzo	2023-05-03T00:00:00	2024-11-08T01:00:00	1	Precipitación	0
135320	7	Sololá	719	Santiago Atitlán	14	Cerro de Oro	3	Marzo	2023-05-03T00:00:00	2024-11-08T01:00:00	8	Radiación solar	0
135321	7	Sololá	719	Santiago Atitlán	14	Cerro de Oro	3	Marzo	2023-05-03T00:00:00	2024-11-08T02:00:00	2	Temperatura media	19.3
135322	7	Sololá	719	Santiago Atitlán	14	Cerro de Oro	3	Marzo	2023-05-03T00:00:00	2024-11-08T02:00:00	4	Temperatura máxima	19.6
135323	7	Sololá	719	Santiago Atitlán	14	Cerro de Oro	3	Marzo	2023-05-03T00:00:00	2024-11-08T02:00:00	3	Temperatura mínima	19.1
135324	7	Sololá	719	Santiago Atitlán	14	Cerro de Oro	3	Marzo	2023-05-03T00:00:00	2024-11-08T02:00:00	5	Humedad	73
135325	7	Sololá	719	Santiago Atitlán	14	Cerro de Oro	3	Marzo	2023-05-03T00:00:00	2024-11-08T02:00:00	6	Velocidad del viento	8
135326	7	Sololá	719	Santiago Atitlán	14	Cerro de Oro	3	Marzo	2023-05-03T00:00:00	2024-11-08T02:00:00	7	Dirección del viento	8.05
135327	7	Sololá	719	Santiago Atitlán	14	Cerro de Oro	3	Marzo	2023-05-03T00:00:00	2024-11-08T02:00:00	1	Precipitación	0
135328	7	Sololá	719	Santiago Atitlán	14	Cerro de Oro	3	Marzo	2023-05-03T00:00:00	2024-11-08T02:00:00	8	Radiación solar	0
135329	7	Sololá	719	Santiago Atitlán	14	Cerro de Oro	3	Marzo	2023-05-03T00:00:00	2024-11-08T03:00:00	2	Temperatura media	18.8
135330	7	Sololá	719	Santiago Atitlán	14	Cerro de Oro	3	Marzo	2023-05-03T00:00:00	2024-11-08T03:00:00	4	Temperatura máxima	19.4
135331	7	Sololá	719	Santiago Atitlán	14	Cerro de Oro	3	Marzo	2023-05-03T00:00:00	2024-11-08T03:00:00	3	Temperatura mínima	18.3
135332	7	Sololá	719	Santiago Atitlán	14	Cerro de Oro	3	Marzo	2023-05-03T00:00:00	2024-11-08T03:00:00	5	Humedad	74
135333	7	Sololá	719	Santiago Atitlán	14	Cerro de Oro	3	Marzo	2023-05-03T00:00:00	2024-11-08T03:00:00	6	Velocidad del viento	6.4
135334	7	Sololá	719	Santiago Atitlán	14	Cerro de Oro	3	Marzo	2023-05-03T00:00:00	2024-11-08T03:00:00	7	Dirección del viento	6.44
135335	7	Sololá	719	Santiago Atitlán	14	Cerro de Oro	3	Marzo	2023-05-03T00:00:00	2024-11-08T03:00:00	1	Precipitación	0
135336	7	Sololá	719	Santiago Atitlán	14	Cerro de Oro	3	Marzo	2023-05-03T00:00:00	2024-11-08T03:00:00	8	Radiación solar	0
135337	7	Sololá	719	Santiago Atitlán	14	Cerro de Oro	3	Marzo	2023-05-03T00:00:00	2024-11-08T04:00:00	2	Temperatura media	17.6
135338	7	Sololá	719	Santiago Atitlán	14	Cerro de Oro	3	Marzo	2023-05-03T00:00:00	2024-11-08T04:00:00	4	Temperatura máxima	18.8
135339	7	Sololá	719	Santiago Atitlán	14	Cerro de Oro	3	Marzo	2023-05-03T00:00:00	2024-11-08T04:00:00	3	Temperatura mínima	17
135340	7	Sololá	719	Santiago Atitlán	14	Cerro de Oro	3	Marzo	2023-05-03T00:00:00	2024-11-08T04:00:00	5	Humedad	76
135341	7	Sololá	719	Santiago Atitlán	14	Cerro de Oro	3	Marzo	2023-05-03T00:00:00	2024-11-08T04:00:00	6	Velocidad del viento	3.2
135342	7	Sololá	719	Santiago Atitlán	14	Cerro de Oro	3	Marzo	2023-05-03T00:00:00	2024-11-08T04:00:00	7	Dirección del viento	3.22
135343	7	Sololá	719	Santiago Atitlán	14	Cerro de Oro	3	Marzo	2023-05-03T00:00:00	2024-11-08T04:00:00	1	Precipitación	0
135344	7	Sololá	719	Santiago Atitlán	14	Cerro de Oro	3	Marzo	2023-05-03T00:00:00	2024-11-08T04:00:00	8	Radiación solar	0
135345	7	Sololá	719	Santiago Atitlán	14	Cerro de Oro	3	Marzo	2023-05-03T00:00:00	2024-11-08T05:00:00	2	Temperatura media	17.6
135346	7	Sololá	719	Santiago Atitlán	14	Cerro de Oro	3	Marzo	2023-05-03T00:00:00	2024-11-08T05:00:00	4	Temperatura máxima	18.1
135347	7	Sololá	719	Santiago Atitlán	14	Cerro de Oro	3	Marzo	2023-05-03T00:00:00	2024-11-08T05:00:00	3	Temperatura mínima	17.5
135348	7	Sololá	719	Santiago Atitlán	14	Cerro de Oro	3	Marzo	2023-05-03T00:00:00	2024-11-08T05:00:00	5	Humedad	76
135349	7	Sololá	719	Santiago Atitlán	14	Cerro de Oro	3	Marzo	2023-05-03T00:00:00	2024-11-08T05:00:00	6	Velocidad del viento	3.2
135350	7	Sololá	719	Santiago Atitlán	14	Cerro de Oro	3	Marzo	2023-05-03T00:00:00	2024-11-08T05:00:00	7	Dirección del viento	3.22
135351	7	Sololá	719	Santiago Atitlán	14	Cerro de Oro	3	Marzo	2023-05-03T00:00:00	2024-11-08T05:00:00	1	Precipitación	0
135352	7	Sololá	719	Santiago Atitlán	14	Cerro de Oro	3	Marzo	2023-05-03T00:00:00	2024-11-08T05:00:00	8	Radiación solar	0
135353	7	Sololá	719	Santiago Atitlán	14	Cerro de Oro	3	Marzo	2023-05-03T00:00:00	2024-11-08T06:00:00	2	Temperatura media	17.2
135354	7	Sololá	719	Santiago Atitlán	14	Cerro de Oro	3	Marzo	2023-05-03T00:00:00	2024-11-08T06:00:00	4	Temperatura máxima	17.7
135355	7	Sololá	719	Santiago Atitlán	14	Cerro de Oro	3	Marzo	2023-05-03T00:00:00	2024-11-08T06:00:00	3	Temperatura mínima	17
135356	7	Sololá	719	Santiago Atitlán	14	Cerro de Oro	3	Marzo	2023-05-03T00:00:00	2024-11-08T06:00:00	5	Humedad	74
135357	7	Sololá	719	Santiago Atitlán	14	Cerro de Oro	3	Marzo	2023-05-03T00:00:00	2024-11-08T06:00:00	6	Velocidad del viento	4.8
135358	7	Sololá	719	Santiago Atitlán	14	Cerro de Oro	3	Marzo	2023-05-03T00:00:00	2024-11-08T06:00:00	7	Dirección del viento	4.83
135359	7	Sololá	719	Santiago Atitlán	14	Cerro de Oro	3	Marzo	2023-05-03T00:00:00	2024-11-08T06:00:00	1	Precipitación	0
135360	7	Sololá	719	Santiago Atitlán	14	Cerro de Oro	3	Marzo	2023-05-03T00:00:00	2024-11-08T06:00:00	8	Radiación solar	0
135361	7	Sololá	719	Santiago Atitlán	14	Cerro de Oro	3	Marzo	2023-05-03T00:00:00	2024-11-08T07:00:00	2	Temperatura media	17.6
135362	7	Sololá	719	Santiago Atitlán	14	Cerro de Oro	3	Marzo	2023-05-03T00:00:00	2024-11-08T07:00:00	4	Temperatura máxima	17.6
135363	7	Sololá	719	Santiago Atitlán	14	Cerro de Oro	3	Marzo	2023-05-03T00:00:00	2024-11-08T07:00:00	3	Temperatura mínima	16.9
135364	7	Sololá	719	Santiago Atitlán	14	Cerro de Oro	3	Marzo	2023-05-03T00:00:00	2024-11-08T07:00:00	5	Humedad	72
135365	7	Sololá	719	Santiago Atitlán	14	Cerro de Oro	3	Marzo	2023-05-03T00:00:00	2024-11-08T07:00:00	6	Velocidad del viento	4.8
135366	7	Sololá	719	Santiago Atitlán	14	Cerro de Oro	3	Marzo	2023-05-03T00:00:00	2024-11-08T07:00:00	7	Dirección del viento	4.83
135367	7	Sololá	719	Santiago Atitlán	14	Cerro de Oro	3	Marzo	2023-05-03T00:00:00	2024-11-08T07:00:00	1	Precipitación	0
135368	7	Sololá	719	Santiago Atitlán	14	Cerro de Oro	3	Marzo	2023-05-03T00:00:00	2024-11-08T07:00:00	8	Radiación solar	20
135369	7	Sololá	719	Santiago Atitlán	14	Cerro de Oro	3	Marzo	2023-05-03T00:00:00	2024-11-08T08:00:00	2	Temperatura media	19.9
135370	7	Sololá	719	Santiago Atitlán	14	Cerro de Oro	3	Marzo	2023-05-03T00:00:00	2024-11-08T08:00:00	4	Temperatura máxima	19.9
135371	7	Sololá	719	Santiago Atitlán	14	Cerro de Oro	3	Marzo	2023-05-03T00:00:00	2024-11-08T08:00:00	3	Temperatura mínima	17.6
135372	7	Sololá	719	Santiago Atitlán	14	Cerro de Oro	3	Marzo	2023-05-03T00:00:00	2024-11-08T08:00:00	5	Humedad	67
135373	7	Sololá	719	Santiago Atitlán	14	Cerro de Oro	3	Marzo	2023-05-03T00:00:00	2024-11-08T08:00:00	6	Velocidad del viento	3.2
135374	7	Sololá	719	Santiago Atitlán	14	Cerro de Oro	3	Marzo	2023-05-03T00:00:00	2024-11-08T08:00:00	7	Dirección del viento	3.22
135375	7	Sololá	719	Santiago Atitlán	14	Cerro de Oro	3	Marzo	2023-05-03T00:00:00	2024-11-08T08:00:00	1	Precipitación	0
135376	7	Sololá	719	Santiago Atitlán	14	Cerro de Oro	3	Marzo	2023-05-03T00:00:00	2024-11-08T08:00:00	8	Radiación solar	164
135377	7	Sololá	719	Santiago Atitlán	14	Cerro de Oro	3	Marzo	2023-05-03T00:00:00	2024-11-08T09:00:00	2	Temperatura media	21.1
135378	7	Sololá	719	Santiago Atitlán	14	Cerro de Oro	3	Marzo	2023-05-03T00:00:00	2024-11-08T09:00:00	4	Temperatura máxima	21.1
135379	7	Sololá	719	Santiago Atitlán	14	Cerro de Oro	3	Marzo	2023-05-03T00:00:00	2024-11-08T09:00:00	3	Temperatura mínima	19.9
135380	7	Sololá	719	Santiago Atitlán	14	Cerro de Oro	3	Marzo	2023-05-03T00:00:00	2024-11-08T09:00:00	5	Humedad	64
135381	7	Sololá	719	Santiago Atitlán	14	Cerro de Oro	3	Marzo	2023-05-03T00:00:00	2024-11-08T09:00:00	6	Velocidad del viento	4.8
135382	7	Sololá	719	Santiago Atitlán	14	Cerro de Oro	3	Marzo	2023-05-03T00:00:00	2024-11-08T09:00:00	7	Dirección del viento	4.83
135383	7	Sololá	719	Santiago Atitlán	14	Cerro de Oro	3	Marzo	2023-05-03T00:00:00	2024-11-08T09:00:00	1	Precipitación	0
135384	7	Sololá	719	Santiago Atitlán	14	Cerro de Oro	3	Marzo	2023-05-03T00:00:00	2024-11-08T09:00:00	8	Radiación solar	418
135385	7	Sololá	719	Santiago Atitlán	14	Cerro de Oro	3	Marzo	2023-05-03T00:00:00	2024-11-08T10:00:00	2	Temperatura media	21.5
135386	7	Sololá	719	Santiago Atitlán	14	Cerro de Oro	3	Marzo	2023-05-03T00:00:00	2024-11-08T10:00:00	4	Temperatura máxima	21.6
135387	7	Sololá	719	Santiago Atitlán	14	Cerro de Oro	3	Marzo	2023-05-03T00:00:00	2024-11-08T10:00:00	3	Temperatura mínima	21.1
135388	7	Sololá	719	Santiago Atitlán	14	Cerro de Oro	3	Marzo	2023-05-03T00:00:00	2024-11-08T10:00:00	5	Humedad	67
135389	7	Sololá	719	Santiago Atitlán	14	Cerro de Oro	3	Marzo	2023-05-03T00:00:00	2024-11-08T10:00:00	6	Velocidad del viento	4.8
135390	7	Sololá	719	Santiago Atitlán	14	Cerro de Oro	3	Marzo	2023-05-03T00:00:00	2024-11-08T10:00:00	7	Dirección del viento	4.83
135391	7	Sololá	719	Santiago Atitlán	14	Cerro de Oro	3	Marzo	2023-05-03T00:00:00	2024-11-08T10:00:00	1	Precipitación	0
135392	7	Sololá	719	Santiago Atitlán	14	Cerro de Oro	3	Marzo	2023-05-03T00:00:00	2024-11-08T10:00:00	8	Radiación solar	628
135393	7	Sololá	719	Santiago Atitlán	14	Cerro de Oro	3	Marzo	2023-05-03T00:00:00	2024-11-08T11:00:00	2	Temperatura media	22.4
135394	7	Sololá	719	Santiago Atitlán	14	Cerro de Oro	3	Marzo	2023-05-03T00:00:00	2024-11-08T11:00:00	4	Temperatura máxima	22.6
135395	7	Sololá	719	Santiago Atitlán	14	Cerro de Oro	3	Marzo	2023-05-03T00:00:00	2024-11-08T11:00:00	3	Temperatura mínima	21.5
135396	7	Sololá	719	Santiago Atitlán	14	Cerro de Oro	3	Marzo	2023-05-03T00:00:00	2024-11-08T11:00:00	5	Humedad	64
135397	7	Sololá	719	Santiago Atitlán	14	Cerro de Oro	3	Marzo	2023-05-03T00:00:00	2024-11-08T11:00:00	6	Velocidad del viento	4.8
135398	7	Sololá	719	Santiago Atitlán	14	Cerro de Oro	3	Marzo	2023-05-03T00:00:00	2024-11-08T11:00:00	7	Dirección del viento	4.83
135399	7	Sololá	719	Santiago Atitlán	14	Cerro de Oro	3	Marzo	2023-05-03T00:00:00	2024-11-08T11:00:00	1	Precipitación	0
135400	7	Sololá	719	Santiago Atitlán	14	Cerro de Oro	3	Marzo	2023-05-03T00:00:00	2024-11-08T11:00:00	8	Radiación solar	770
135401	7	Sololá	719	Santiago Atitlán	14	Cerro de Oro	3	Marzo	2023-05-03T00:00:00	2024-11-08T12:00:00	2	Temperatura media	24.1
135402	7	Sololá	719	Santiago Atitlán	14	Cerro de Oro	3	Marzo	2023-05-03T00:00:00	2024-11-08T12:00:00	4	Temperatura máxima	24.3
135403	7	Sololá	719	Santiago Atitlán	14	Cerro de Oro	3	Marzo	2023-05-03T00:00:00	2024-11-08T12:00:00	3	Temperatura mínima	22.4
135404	7	Sololá	719	Santiago Atitlán	14	Cerro de Oro	3	Marzo	2023-05-03T00:00:00	2024-11-08T12:00:00	5	Humedad	70
135405	7	Sololá	719	Santiago Atitlán	14	Cerro de Oro	3	Marzo	2023-05-03T00:00:00	2024-11-08T12:00:00	6	Velocidad del viento	8
135406	7	Sololá	719	Santiago Atitlán	14	Cerro de Oro	3	Marzo	2023-05-03T00:00:00	2024-11-08T12:00:00	7	Dirección del viento	8.05
135407	7	Sololá	719	Santiago Atitlán	14	Cerro de Oro	3	Marzo	2023-05-03T00:00:00	2024-11-08T12:00:00	1	Precipitación	0
135408	7	Sololá	719	Santiago Atitlán	14	Cerro de Oro	3	Marzo	2023-05-03T00:00:00	2024-11-08T12:00:00	8	Radiación solar	847
135409	7	Sololá	719	Santiago Atitlán	14	Cerro de Oro	3	Marzo	2023-05-03T00:00:00	2024-11-08T13:00:00	2	Temperatura media	24.3
135410	7	Sololá	719	Santiago Atitlán	14	Cerro de Oro	3	Marzo	2023-05-03T00:00:00	2024-11-08T13:00:00	4	Temperatura máxima	24.4
135411	7	Sololá	719	Santiago Atitlán	14	Cerro de Oro	3	Marzo	2023-05-03T00:00:00	2024-11-08T13:00:00	3	Temperatura mínima	23.8
135412	7	Sololá	719	Santiago Atitlán	14	Cerro de Oro	3	Marzo	2023-05-03T00:00:00	2024-11-08T13:00:00	5	Humedad	68
135413	7	Sololá	719	Santiago Atitlán	14	Cerro de Oro	3	Marzo	2023-05-03T00:00:00	2024-11-08T13:00:00	6	Velocidad del viento	14.5
135414	7	Sololá	719	Santiago Atitlán	14	Cerro de Oro	3	Marzo	2023-05-03T00:00:00	2024-11-08T13:00:00	7	Dirección del viento	14.48
135415	7	Sololá	719	Santiago Atitlán	14	Cerro de Oro	3	Marzo	2023-05-03T00:00:00	2024-11-08T13:00:00	1	Precipitación	0
135416	7	Sololá	719	Santiago Atitlán	14	Cerro de Oro	3	Marzo	2023-05-03T00:00:00	2024-11-08T13:00:00	8	Radiación solar	862
135417	7	Sololá	719	Santiago Atitlán	14	Cerro de Oro	3	Marzo	2023-05-03T00:00:00	2024-11-08T14:00:00	2	Temperatura media	24.2
135418	7	Sololá	719	Santiago Atitlán	14	Cerro de Oro	3	Marzo	2023-05-03T00:00:00	2024-11-08T14:00:00	4	Temperatura máxima	24.6
135419	7	Sololá	719	Santiago Atitlán	14	Cerro de Oro	3	Marzo	2023-05-03T00:00:00	2024-11-08T14:00:00	3	Temperatura mínima	24.1
135420	7	Sololá	719	Santiago Atitlán	14	Cerro de Oro	3	Marzo	2023-05-03T00:00:00	2024-11-08T14:00:00	5	Humedad	68
135421	7	Sololá	719	Santiago Atitlán	14	Cerro de Oro	3	Marzo	2023-05-03T00:00:00	2024-11-08T14:00:00	6	Velocidad del viento	14.5
135422	7	Sololá	719	Santiago Atitlán	14	Cerro de Oro	3	Marzo	2023-05-03T00:00:00	2024-11-08T14:00:00	7	Dirección del viento	14.48
135423	7	Sololá	719	Santiago Atitlán	14	Cerro de Oro	3	Marzo	2023-05-03T00:00:00	2024-11-08T14:00:00	1	Precipitación	0
135424	7	Sololá	719	Santiago Atitlán	14	Cerro de Oro	3	Marzo	2023-05-03T00:00:00	2024-11-08T14:00:00	8	Radiación solar	819
135425	7	Sololá	719	Santiago Atitlán	14	Cerro de Oro	3	Marzo	2023-05-03T00:00:00	2024-11-08T15:00:00	2	Temperatura media	23.1
135426	7	Sololá	719	Santiago Atitlán	14	Cerro de Oro	3	Marzo	2023-05-03T00:00:00	2024-11-08T15:00:00	4	Temperatura máxima	24.2
135427	7	Sololá	719	Santiago Atitlán	14	Cerro de Oro	3	Marzo	2023-05-03T00:00:00	2024-11-08T15:00:00	3	Temperatura mínima	22.8
135428	7	Sololá	719	Santiago Atitlán	14	Cerro de Oro	3	Marzo	2023-05-03T00:00:00	2024-11-08T15:00:00	5	Humedad	73
135429	7	Sololá	719	Santiago Atitlán	14	Cerro de Oro	3	Marzo	2023-05-03T00:00:00	2024-11-08T15:00:00	6	Velocidad del viento	14.5
135430	7	Sololá	719	Santiago Atitlán	14	Cerro de Oro	3	Marzo	2023-05-03T00:00:00	2024-11-08T15:00:00	7	Dirección del viento	14.48
135431	7	Sololá	719	Santiago Atitlán	14	Cerro de Oro	3	Marzo	2023-05-03T00:00:00	2024-11-08T15:00:00	1	Precipitación	0
135432	7	Sololá	719	Santiago Atitlán	14	Cerro de Oro	3	Marzo	2023-05-03T00:00:00	2024-11-08T15:00:00	8	Radiación solar	571
135433	7	Sololá	719	Santiago Atitlán	14	Cerro de Oro	3	Marzo	2023-05-03T00:00:00	2024-11-08T16:00:00	2	Temperatura media	22.1
135434	7	Sololá	719	Santiago Atitlán	14	Cerro de Oro	3	Marzo	2023-05-03T00:00:00	2024-11-08T16:00:00	4	Temperatura máxima	23.2
135435	7	Sololá	719	Santiago Atitlán	14	Cerro de Oro	3	Marzo	2023-05-03T00:00:00	2024-11-08T16:00:00	3	Temperatura mínima	22.1
135436	7	Sololá	719	Santiago Atitlán	14	Cerro de Oro	3	Marzo	2023-05-03T00:00:00	2024-11-08T16:00:00	5	Humedad	77
135437	7	Sololá	719	Santiago Atitlán	14	Cerro de Oro	3	Marzo	2023-05-03T00:00:00	2024-11-08T16:00:00	6	Velocidad del viento	12.9
135438	7	Sololá	719	Santiago Atitlán	14	Cerro de Oro	3	Marzo	2023-05-03T00:00:00	2024-11-08T16:00:00	7	Dirección del viento	12.87
135439	7	Sololá	719	Santiago Atitlán	14	Cerro de Oro	3	Marzo	2023-05-03T00:00:00	2024-11-08T16:00:00	1	Precipitación	0
135440	7	Sololá	719	Santiago Atitlán	14	Cerro de Oro	3	Marzo	2023-05-03T00:00:00	2024-11-08T16:00:00	8	Radiación solar	301
135441	7	Sololá	719	Santiago Atitlán	14	Cerro de Oro	3	Marzo	2023-05-03T00:00:00	2024-11-08T17:00:00	2	Temperatura media	20.6
135442	7	Sololá	719	Santiago Atitlán	14	Cerro de Oro	3	Marzo	2023-05-03T00:00:00	2024-11-08T17:00:00	4	Temperatura máxima	22.1
135443	7	Sololá	719	Santiago Atitlán	14	Cerro de Oro	3	Marzo	2023-05-03T00:00:00	2024-11-08T17:00:00	3	Temperatura mínima	20.6
135444	7	Sololá	719	Santiago Atitlán	14	Cerro de Oro	3	Marzo	2023-05-03T00:00:00	2024-11-08T17:00:00	5	Humedad	81
135445	7	Sololá	719	Santiago Atitlán	14	Cerro de Oro	3	Marzo	2023-05-03T00:00:00	2024-11-08T17:00:00	6	Velocidad del viento	12.9
135446	7	Sololá	719	Santiago Atitlán	14	Cerro de Oro	3	Marzo	2023-05-03T00:00:00	2024-11-08T17:00:00	7	Dirección del viento	12.87
135447	7	Sololá	719	Santiago Atitlán	14	Cerro de Oro	3	Marzo	2023-05-03T00:00:00	2024-11-08T17:00:00	1	Precipitación	0
135448	7	Sololá	719	Santiago Atitlán	14	Cerro de Oro	3	Marzo	2023-05-03T00:00:00	2024-11-08T17:00:00	8	Radiación solar	126
135449	7	Sololá	719	Santiago Atitlán	14	Cerro de Oro	3	Marzo	2023-05-03T00:00:00	2024-11-08T18:00:00	2	Temperatura media	18.8
135450	7	Sololá	719	Santiago Atitlán	14	Cerro de Oro	3	Marzo	2023-05-03T00:00:00	2024-11-08T18:00:00	4	Temperatura máxima	20.6
135451	7	Sololá	719	Santiago Atitlán	14	Cerro de Oro	3	Marzo	2023-05-03T00:00:00	2024-11-08T18:00:00	3	Temperatura mínima	18.8
135452	7	Sololá	719	Santiago Atitlán	14	Cerro de Oro	3	Marzo	2023-05-03T00:00:00	2024-11-08T18:00:00	5	Humedad	86
135453	7	Sololá	719	Santiago Atitlán	14	Cerro de Oro	3	Marzo	2023-05-03T00:00:00	2024-11-08T18:00:00	6	Velocidad del viento	11.3
135454	7	Sololá	719	Santiago Atitlán	14	Cerro de Oro	3	Marzo	2023-05-03T00:00:00	2024-11-08T18:00:00	7	Dirección del viento	11.27
135455	7	Sololá	719	Santiago Atitlán	14	Cerro de Oro	3	Marzo	2023-05-03T00:00:00	2024-11-08T18:00:00	1	Precipitación	0
135456	7	Sololá	719	Santiago Atitlán	14	Cerro de Oro	3	Marzo	2023-05-03T00:00:00	2024-11-08T18:00:00	8	Radiación solar	55
135457	7	Sololá	719	Santiago Atitlán	14	Cerro de Oro	3	Marzo	2023-05-03T00:00:00	2024-11-08T19:00:00	2	Temperatura media	18.1
135458	7	Sololá	719	Santiago Atitlán	14	Cerro de Oro	3	Marzo	2023-05-03T00:00:00	2024-11-08T19:00:00	4	Temperatura máxima	18.8
135459	7	Sololá	719	Santiago Atitlán	14	Cerro de Oro	3	Marzo	2023-05-03T00:00:00	2024-11-08T19:00:00	3	Temperatura mínima	18
135460	7	Sololá	719	Santiago Atitlán	14	Cerro de Oro	3	Marzo	2023-05-03T00:00:00	2024-11-08T19:00:00	5	Humedad	86
135461	7	Sololá	719	Santiago Atitlán	14	Cerro de Oro	3	Marzo	2023-05-03T00:00:00	2024-11-08T19:00:00	6	Velocidad del viento	9.7
135462	7	Sololá	719	Santiago Atitlán	14	Cerro de Oro	3	Marzo	2023-05-03T00:00:00	2024-11-08T19:00:00	7	Dirección del viento	9.66
135463	7	Sololá	719	Santiago Atitlán	14	Cerro de Oro	3	Marzo	2023-05-03T00:00:00	2024-11-08T19:00:00	1	Precipitación	0
135464	7	Sololá	719	Santiago Atitlán	14	Cerro de Oro	3	Marzo	2023-05-03T00:00:00	2024-11-08T19:00:00	8	Radiación solar	0
135465	7	Sololá	719	Santiago Atitlán	14	Cerro de Oro	3	Marzo	2023-05-03T00:00:00	2024-11-08T20:00:00	2	Temperatura media	17.6
135466	7	Sololá	719	Santiago Atitlán	14	Cerro de Oro	3	Marzo	2023-05-03T00:00:00	2024-11-08T20:00:00	4	Temperatura máxima	18.1
135467	7	Sololá	719	Santiago Atitlán	14	Cerro de Oro	3	Marzo	2023-05-03T00:00:00	2024-11-08T20:00:00	3	Temperatura mínima	17.4
135468	7	Sololá	719	Santiago Atitlán	14	Cerro de Oro	3	Marzo	2023-05-03T00:00:00	2024-11-08T20:00:00	5	Humedad	88
135469	7	Sololá	719	Santiago Atitlán	14	Cerro de Oro	3	Marzo	2023-05-03T00:00:00	2024-11-08T20:00:00	6	Velocidad del viento	8
135470	7	Sololá	719	Santiago Atitlán	14	Cerro de Oro	3	Marzo	2023-05-03T00:00:00	2024-11-08T20:00:00	7	Dirección del viento	8.05
135471	7	Sololá	719	Santiago Atitlán	14	Cerro de Oro	3	Marzo	2023-05-03T00:00:00	2024-11-08T20:00:00	1	Precipitación	0
135472	7	Sololá	719	Santiago Atitlán	14	Cerro de Oro	3	Marzo	2023-05-03T00:00:00	2024-11-08T20:00:00	8	Radiación solar	0
135473	7	Sololá	719	Santiago Atitlán	14	Cerro de Oro	3	Marzo	2023-05-03T00:00:00	2024-11-08T21:00:00	2	Temperatura media	17.5
135474	7	Sololá	719	Santiago Atitlán	14	Cerro de Oro	3	Marzo	2023-05-03T00:00:00	2024-11-08T21:00:00	4	Temperatura máxima	17.8
135475	7	Sololá	719	Santiago Atitlán	14	Cerro de Oro	3	Marzo	2023-05-03T00:00:00	2024-11-08T21:00:00	3	Temperatura mínima	17.4
135476	7	Sololá	719	Santiago Atitlán	14	Cerro de Oro	3	Marzo	2023-05-03T00:00:00	2024-11-08T21:00:00	5	Humedad	88
135477	7	Sololá	719	Santiago Atitlán	14	Cerro de Oro	3	Marzo	2023-05-03T00:00:00	2024-11-08T21:00:00	6	Velocidad del viento	3.2
135478	7	Sololá	719	Santiago Atitlán	14	Cerro de Oro	3	Marzo	2023-05-03T00:00:00	2024-11-08T21:00:00	7	Dirección del viento	3.22
135479	7	Sololá	719	Santiago Atitlán	14	Cerro de Oro	3	Marzo	2023-05-03T00:00:00	2024-11-08T21:00:00	1	Precipitación	0
135480	7	Sololá	719	Santiago Atitlán	14	Cerro de Oro	3	Marzo	2023-05-03T00:00:00	2024-11-08T21:00:00	8	Radiación solar	0
135481	7	Sololá	719	Santiago Atitlán	14	Cerro de Oro	3	Marzo	2023-05-03T00:00:00	2024-11-08T22:00:00	2	Temperatura media	17.6
135482	7	Sololá	719	Santiago Atitlán	14	Cerro de Oro	3	Marzo	2023-05-03T00:00:00	2024-11-08T22:00:00	4	Temperatura máxima	17.6
135483	7	Sololá	719	Santiago Atitlán	14	Cerro de Oro	3	Marzo	2023-05-03T00:00:00	2024-11-08T22:00:00	3	Temperatura mínima	17.3
135484	7	Sololá	719	Santiago Atitlán	14	Cerro de Oro	3	Marzo	2023-05-03T00:00:00	2024-11-08T22:00:00	5	Humedad	84
135485	7	Sololá	719	Santiago Atitlán	14	Cerro de Oro	3	Marzo	2023-05-03T00:00:00	2024-11-08T22:00:00	6	Velocidad del viento	4.8
135486	7	Sololá	719	Santiago Atitlán	14	Cerro de Oro	3	Marzo	2023-05-03T00:00:00	2024-11-08T22:00:00	7	Dirección del viento	4.83
135487	7	Sololá	719	Santiago Atitlán	14	Cerro de Oro	3	Marzo	2023-05-03T00:00:00	2024-11-08T22:00:00	1	Precipitación	0
135488	7	Sololá	719	Santiago Atitlán	14	Cerro de Oro	3	Marzo	2023-05-03T00:00:00	2024-11-08T22:00:00	8	Radiación solar	0
135489	7	Sololá	719	Santiago Atitlán	14	Cerro de Oro	3	Marzo	2023-05-03T00:00:00	2024-11-08T23:00:00	2	Temperatura media	17.9
135490	7	Sololá	719	Santiago Atitlán	14	Cerro de Oro	3	Marzo	2023-05-03T00:00:00	2024-11-08T23:00:00	4	Temperatura máxima	17.9
135491	7	Sololá	719	Santiago Atitlán	14	Cerro de Oro	3	Marzo	2023-05-03T00:00:00	2024-11-08T23:00:00	3	Temperatura mínima	17.4
135492	7	Sololá	719	Santiago Atitlán	14	Cerro de Oro	3	Marzo	2023-05-03T00:00:00	2024-11-08T23:00:00	5	Humedad	76
135493	7	Sololá	719	Santiago Atitlán	14	Cerro de Oro	3	Marzo	2023-05-03T00:00:00	2024-11-08T23:00:00	6	Velocidad del viento	4.8
135494	7	Sololá	719	Santiago Atitlán	14	Cerro de Oro	3	Marzo	2023-05-03T00:00:00	2024-11-08T23:00:00	7	Dirección del viento	4.83
135495	7	Sololá	719	Santiago Atitlán	14	Cerro de Oro	3	Marzo	2023-05-03T00:00:00	2024-11-08T23:00:00	1	Precipitación	0
135496	7	Sololá	719	Santiago Atitlán	14	Cerro de Oro	3	Marzo	2023-05-03T00:00:00	2024-11-08T23:00:00	8	Radiación solar	0
135497	7	Sololá	719	Santiago Atitlán	14	Cerro de Oro	3	Marzo	2023-06-03T00:00:00	2024-11-08T00:00:00	2	Temperatura media	18
135498	7	Sololá	719	Santiago Atitlán	14	Cerro de Oro	3	Marzo	2023-06-03T00:00:00	2024-11-08T00:00:00	4	Temperatura máxima	18.2
135499	7	Sololá	719	Santiago Atitlán	14	Cerro de Oro	3	Marzo	2023-06-03T00:00:00	2024-11-08T00:00:00	3	Temperatura mínima	17.8
135500	7	Sololá	719	Santiago Atitlán	14	Cerro de Oro	3	Marzo	2023-06-03T00:00:00	2024-11-08T00:00:00	5	Humedad	75
135501	7	Sololá	719	Santiago Atitlán	14	Cerro de Oro	3	Marzo	2023-06-03T00:00:00	2024-11-08T00:00:00	6	Velocidad del viento	4.8
135502	7	Sololá	719	Santiago Atitlán	14	Cerro de Oro	3	Marzo	2023-06-03T00:00:00	2024-11-08T00:00:00	7	Dirección del viento	4.83
135503	7	Sololá	719	Santiago Atitlán	14	Cerro de Oro	3	Marzo	2023-06-03T00:00:00	2024-11-08T00:00:00	1	Precipitación	0
135504	7	Sololá	719	Santiago Atitlán	14	Cerro de Oro	3	Marzo	2023-06-03T00:00:00	2024-11-08T00:00:00	8	Radiación solar	0
135505	7	Sololá	719	Santiago Atitlán	14	Cerro de Oro	3	Marzo	2023-06-03T00:00:00	2024-11-08T01:00:00	2	Temperatura media	17.1
135506	7	Sololá	719	Santiago Atitlán	14	Cerro de Oro	3	Marzo	2023-06-03T00:00:00	2024-11-08T01:00:00	4	Temperatura máxima	18
135507	7	Sololá	719	Santiago Atitlán	14	Cerro de Oro	3	Marzo	2023-06-03T00:00:00	2024-11-08T01:00:00	3	Temperatura mínima	17.1
135508	7	Sololá	719	Santiago Atitlán	14	Cerro de Oro	3	Marzo	2023-06-03T00:00:00	2024-11-08T01:00:00	5	Humedad	76
135509	7	Sololá	719	Santiago Atitlán	14	Cerro de Oro	3	Marzo	2023-06-03T00:00:00	2024-11-08T01:00:00	6	Velocidad del viento	6.4
135510	7	Sololá	719	Santiago Atitlán	14	Cerro de Oro	3	Marzo	2023-06-03T00:00:00	2024-11-08T01:00:00	7	Dirección del viento	6.44
135511	7	Sololá	719	Santiago Atitlán	14	Cerro de Oro	3	Marzo	2023-06-03T00:00:00	2024-11-08T01:00:00	1	Precipitación	0
135512	7	Sololá	719	Santiago Atitlán	14	Cerro de Oro	3	Marzo	2023-06-03T00:00:00	2024-11-08T01:00:00	8	Radiación solar	0
135513	7	Sololá	719	Santiago Atitlán	14	Cerro de Oro	3	Marzo	2023-06-03T00:00:00	2024-11-08T02:00:00	2	Temperatura media	17.2
135514	7	Sololá	719	Santiago Atitlán	14	Cerro de Oro	3	Marzo	2023-06-03T00:00:00	2024-11-08T02:00:00	4	Temperatura máxima	17.5
135515	7	Sololá	719	Santiago Atitlán	14	Cerro de Oro	3	Marzo	2023-06-03T00:00:00	2024-11-08T02:00:00	3	Temperatura mínima	17.1
135516	7	Sololá	719	Santiago Atitlán	14	Cerro de Oro	3	Marzo	2023-06-03T00:00:00	2024-11-08T02:00:00	5	Humedad	75
135517	7	Sololá	719	Santiago Atitlán	14	Cerro de Oro	3	Marzo	2023-06-03T00:00:00	2024-11-08T02:00:00	6	Velocidad del viento	6.4
135518	7	Sololá	719	Santiago Atitlán	14	Cerro de Oro	3	Marzo	2023-06-03T00:00:00	2024-11-08T02:00:00	7	Dirección del viento	6.44
135519	7	Sololá	719	Santiago Atitlán	14	Cerro de Oro	3	Marzo	2023-06-03T00:00:00	2024-11-08T02:00:00	1	Precipitación	0
135520	7	Sololá	719	Santiago Atitlán	14	Cerro de Oro	3	Marzo	2023-06-03T00:00:00	2024-11-08T02:00:00	8	Radiación solar	0
135521	7	Sololá	719	Santiago Atitlán	14	Cerro de Oro	3	Marzo	2023-06-03T00:00:00	2024-11-08T03:00:00	2	Temperatura media	17.1
135522	7	Sololá	719	Santiago Atitlán	14	Cerro de Oro	3	Marzo	2023-06-03T00:00:00	2024-11-08T03:00:00	4	Temperatura máxima	17.3
135523	7	Sololá	719	Santiago Atitlán	14	Cerro de Oro	3	Marzo	2023-06-03T00:00:00	2024-11-08T03:00:00	3	Temperatura mínima	16.8
135524	7	Sololá	719	Santiago Atitlán	14	Cerro de Oro	3	Marzo	2023-06-03T00:00:00	2024-11-08T03:00:00	5	Humedad	73
135525	7	Sololá	719	Santiago Atitlán	14	Cerro de Oro	3	Marzo	2023-06-03T00:00:00	2024-11-08T03:00:00	6	Velocidad del viento	4.8
135526	7	Sololá	719	Santiago Atitlán	14	Cerro de Oro	3	Marzo	2023-06-03T00:00:00	2024-11-08T03:00:00	7	Dirección del viento	4.83
135527	7	Sololá	719	Santiago Atitlán	14	Cerro de Oro	3	Marzo	2023-06-03T00:00:00	2024-11-08T03:00:00	1	Precipitación	0
135528	7	Sololá	719	Santiago Atitlán	14	Cerro de Oro	3	Marzo	2023-06-03T00:00:00	2024-11-08T03:00:00	8	Radiación solar	0
135529	7	Sololá	719	Santiago Atitlán	14	Cerro de Oro	3	Marzo	2023-06-03T00:00:00	2024-11-08T04:00:00	2	Temperatura media	16.8
135530	7	Sololá	719	Santiago Atitlán	14	Cerro de Oro	3	Marzo	2023-06-03T00:00:00	2024-11-08T04:00:00	4	Temperatura máxima	17.2
135531	7	Sololá	719	Santiago Atitlán	14	Cerro de Oro	3	Marzo	2023-06-03T00:00:00	2024-11-08T04:00:00	3	Temperatura mínima	16.7
135532	7	Sololá	719	Santiago Atitlán	14	Cerro de Oro	3	Marzo	2023-06-03T00:00:00	2024-11-08T04:00:00	5	Humedad	74
135533	7	Sololá	719	Santiago Atitlán	14	Cerro de Oro	3	Marzo	2023-06-03T00:00:00	2024-11-08T04:00:00	6	Velocidad del viento	4.8
135534	7	Sololá	719	Santiago Atitlán	14	Cerro de Oro	3	Marzo	2023-06-03T00:00:00	2024-11-08T04:00:00	7	Dirección del viento	4.83
135535	7	Sololá	719	Santiago Atitlán	14	Cerro de Oro	3	Marzo	2023-06-03T00:00:00	2024-11-08T04:00:00	1	Precipitación	0
135536	7	Sololá	719	Santiago Atitlán	14	Cerro de Oro	3	Marzo	2023-06-03T00:00:00	2024-11-08T04:00:00	8	Radiación solar	0
135537	7	Sololá	719	Santiago Atitlán	14	Cerro de Oro	3	Marzo	2023-06-03T00:00:00	2024-11-08T05:00:00	2	Temperatura media	16.1
135538	7	Sololá	719	Santiago Atitlán	14	Cerro de Oro	3	Marzo	2023-06-03T00:00:00	2024-11-08T05:00:00	4	Temperatura máxima	16.9
135539	7	Sololá	719	Santiago Atitlán	14	Cerro de Oro	3	Marzo	2023-06-03T00:00:00	2024-11-08T05:00:00	3	Temperatura mínima	16.1
135540	7	Sololá	719	Santiago Atitlán	14	Cerro de Oro	3	Marzo	2023-06-03T00:00:00	2024-11-08T05:00:00	5	Humedad	75
135541	7	Sololá	719	Santiago Atitlán	14	Cerro de Oro	3	Marzo	2023-06-03T00:00:00	2024-11-08T05:00:00	6	Velocidad del viento	3.2
135542	7	Sololá	719	Santiago Atitlán	14	Cerro de Oro	3	Marzo	2023-06-03T00:00:00	2024-11-08T05:00:00	7	Dirección del viento	3.22
135543	7	Sololá	719	Santiago Atitlán	14	Cerro de Oro	3	Marzo	2023-06-03T00:00:00	2024-11-08T05:00:00	1	Precipitación	0
135544	7	Sololá	719	Santiago Atitlán	14	Cerro de Oro	3	Marzo	2023-06-03T00:00:00	2024-11-08T05:00:00	8	Radiación solar	0
135545	7	Sololá	719	Santiago Atitlán	14	Cerro de Oro	3	Marzo	2023-06-03T00:00:00	2024-11-08T06:00:00	2	Temperatura media	16.3
135546	7	Sololá	719	Santiago Atitlán	14	Cerro de Oro	3	Marzo	2023-06-03T00:00:00	2024-11-08T06:00:00	4	Temperatura máxima	16.4
135547	7	Sololá	719	Santiago Atitlán	14	Cerro de Oro	3	Marzo	2023-06-03T00:00:00	2024-11-08T06:00:00	3	Temperatura mínima	15.7
135548	7	Sololá	719	Santiago Atitlán	14	Cerro de Oro	3	Marzo	2023-06-03T00:00:00	2024-11-08T06:00:00	5	Humedad	71
135549	7	Sololá	719	Santiago Atitlán	14	Cerro de Oro	3	Marzo	2023-06-03T00:00:00	2024-11-08T06:00:00	6	Velocidad del viento	4.8
135550	7	Sololá	719	Santiago Atitlán	14	Cerro de Oro	3	Marzo	2023-06-03T00:00:00	2024-11-08T06:00:00	7	Dirección del viento	4.83
135551	7	Sololá	719	Santiago Atitlán	14	Cerro de Oro	3	Marzo	2023-06-03T00:00:00	2024-11-08T06:00:00	1	Precipitación	0
135552	7	Sololá	719	Santiago Atitlán	14	Cerro de Oro	3	Marzo	2023-06-03T00:00:00	2024-11-08T06:00:00	8	Radiación solar	0
135553	7	Sololá	719	Santiago Atitlán	14	Cerro de Oro	3	Marzo	2023-06-03T00:00:00	2024-11-08T07:00:00	2	Temperatura media	16.8
135554	7	Sololá	719	Santiago Atitlán	14	Cerro de Oro	3	Marzo	2023-06-03T00:00:00	2024-11-08T07:00:00	4	Temperatura máxima	16.8
135555	7	Sololá	719	Santiago Atitlán	14	Cerro de Oro	3	Marzo	2023-06-03T00:00:00	2024-11-08T07:00:00	3	Temperatura mínima	16.1
135556	7	Sololá	719	Santiago Atitlán	14	Cerro de Oro	3	Marzo	2023-06-03T00:00:00	2024-11-08T07:00:00	5	Humedad	70
135557	7	Sololá	719	Santiago Atitlán	14	Cerro de Oro	3	Marzo	2023-06-03T00:00:00	2024-11-08T07:00:00	6	Velocidad del viento	3.2
135558	7	Sololá	719	Santiago Atitlán	14	Cerro de Oro	3	Marzo	2023-06-03T00:00:00	2024-11-08T07:00:00	7	Dirección del viento	3.22
135559	7	Sololá	719	Santiago Atitlán	14	Cerro de Oro	3	Marzo	2023-06-03T00:00:00	2024-11-08T07:00:00	1	Precipitación	0
135560	7	Sololá	719	Santiago Atitlán	14	Cerro de Oro	3	Marzo	2023-06-03T00:00:00	2024-11-08T07:00:00	8	Radiación solar	20
135561	7	Sololá	719	Santiago Atitlán	14	Cerro de Oro	3	Marzo	2023-06-03T00:00:00	2024-11-08T08:00:00	2	Temperatura media	18.9
135562	7	Sololá	719	Santiago Atitlán	14	Cerro de Oro	3	Marzo	2023-06-03T00:00:00	2024-11-08T08:00:00	4	Temperatura máxima	18.9
135563	7	Sololá	719	Santiago Atitlán	14	Cerro de Oro	3	Marzo	2023-06-03T00:00:00	2024-11-08T08:00:00	3	Temperatura mínima	16.8
135564	7	Sololá	719	Santiago Atitlán	14	Cerro de Oro	3	Marzo	2023-06-03T00:00:00	2024-11-08T08:00:00	5	Humedad	67
135565	7	Sololá	719	Santiago Atitlán	14	Cerro de Oro	3	Marzo	2023-06-03T00:00:00	2024-11-08T08:00:00	6	Velocidad del viento	3.2
135566	7	Sololá	719	Santiago Atitlán	14	Cerro de Oro	3	Marzo	2023-06-03T00:00:00	2024-11-08T08:00:00	7	Dirección del viento	3.22
135567	7	Sololá	719	Santiago Atitlán	14	Cerro de Oro	3	Marzo	2023-06-03T00:00:00	2024-11-08T08:00:00	1	Precipitación	0
135568	7	Sololá	719	Santiago Atitlán	14	Cerro de Oro	3	Marzo	2023-06-03T00:00:00	2024-11-08T08:00:00	8	Radiación solar	168
135569	7	Sololá	719	Santiago Atitlán	14	Cerro de Oro	3	Marzo	2023-06-03T00:00:00	2024-11-08T09:00:00	2	Temperatura media	20.2
135570	7	Sololá	719	Santiago Atitlán	14	Cerro de Oro	3	Marzo	2023-06-03T00:00:00	2024-11-08T09:00:00	4	Temperatura máxima	20.2
135571	7	Sololá	719	Santiago Atitlán	14	Cerro de Oro	3	Marzo	2023-06-03T00:00:00	2024-11-08T09:00:00	3	Temperatura mínima	18.8
135572	7	Sololá	719	Santiago Atitlán	14	Cerro de Oro	3	Marzo	2023-06-03T00:00:00	2024-11-08T09:00:00	5	Humedad	61
135573	7	Sololá	719	Santiago Atitlán	14	Cerro de Oro	3	Marzo	2023-06-03T00:00:00	2024-11-08T09:00:00	6	Velocidad del viento	4.8
135574	7	Sololá	719	Santiago Atitlán	14	Cerro de Oro	3	Marzo	2023-06-03T00:00:00	2024-11-08T09:00:00	7	Dirección del viento	4.83
135575	7	Sololá	719	Santiago Atitlán	14	Cerro de Oro	3	Marzo	2023-06-03T00:00:00	2024-11-08T09:00:00	1	Precipitación	0
135576	7	Sololá	719	Santiago Atitlán	14	Cerro de Oro	3	Marzo	2023-06-03T00:00:00	2024-11-08T09:00:00	8	Radiación solar	417
135577	7	Sololá	719	Santiago Atitlán	14	Cerro de Oro	3	Marzo	2023-06-03T00:00:00	2024-11-08T10:00:00	2	Temperatura media	20.3
135578	7	Sololá	719	Santiago Atitlán	14	Cerro de Oro	3	Marzo	2023-06-03T00:00:00	2024-11-08T10:00:00	4	Temperatura máxima	20.6
135579	7	Sololá	719	Santiago Atitlán	14	Cerro de Oro	3	Marzo	2023-06-03T00:00:00	2024-11-08T10:00:00	3	Temperatura mínima	19.7
135580	7	Sololá	719	Santiago Atitlán	14	Cerro de Oro	3	Marzo	2023-06-03T00:00:00	2024-11-08T10:00:00	5	Humedad	64
135581	7	Sololá	719	Santiago Atitlán	14	Cerro de Oro	3	Marzo	2023-06-03T00:00:00	2024-11-08T10:00:00	6	Velocidad del viento	4.8
135582	7	Sololá	719	Santiago Atitlán	14	Cerro de Oro	3	Marzo	2023-06-03T00:00:00	2024-11-08T10:00:00	7	Dirección del viento	4.83
135583	7	Sololá	719	Santiago Atitlán	14	Cerro de Oro	3	Marzo	2023-06-03T00:00:00	2024-11-08T10:00:00	1	Precipitación	0
135584	7	Sololá	719	Santiago Atitlán	14	Cerro de Oro	3	Marzo	2023-06-03T00:00:00	2024-11-08T10:00:00	8	Radiación solar	631
135585	7	Sololá	719	Santiago Atitlán	14	Cerro de Oro	3	Marzo	2023-06-03T00:00:00	2024-11-08T11:00:00	2	Temperatura media	22
135586	7	Sololá	719	Santiago Atitlán	14	Cerro de Oro	3	Marzo	2023-06-03T00:00:00	2024-11-08T11:00:00	4	Temperatura máxima	22.1
135587	7	Sololá	719	Santiago Atitlán	14	Cerro de Oro	3	Marzo	2023-06-03T00:00:00	2024-11-08T11:00:00	3	Temperatura mínima	20.3
135588	7	Sololá	719	Santiago Atitlán	14	Cerro de Oro	3	Marzo	2023-06-03T00:00:00	2024-11-08T11:00:00	5	Humedad	59
135589	7	Sololá	719	Santiago Atitlán	14	Cerro de Oro	3	Marzo	2023-06-03T00:00:00	2024-11-08T11:00:00	6	Velocidad del viento	4.8
135590	7	Sololá	719	Santiago Atitlán	14	Cerro de Oro	3	Marzo	2023-06-03T00:00:00	2024-11-08T11:00:00	7	Dirección del viento	4.83
135591	7	Sololá	719	Santiago Atitlán	14	Cerro de Oro	3	Marzo	2023-06-03T00:00:00	2024-11-08T11:00:00	1	Precipitación	0
135592	7	Sololá	719	Santiago Atitlán	14	Cerro de Oro	3	Marzo	2023-06-03T00:00:00	2024-11-08T11:00:00	8	Radiación solar	739
135593	7	Sololá	719	Santiago Atitlán	14	Cerro de Oro	3	Marzo	2023-06-03T00:00:00	2024-11-08T12:00:00	2	Temperatura media	23.8
135594	7	Sololá	719	Santiago Atitlán	14	Cerro de Oro	3	Marzo	2023-06-03T00:00:00	2024-11-08T12:00:00	4	Temperatura máxima	24.1
135595	7	Sololá	719	Santiago Atitlán	14	Cerro de Oro	3	Marzo	2023-06-03T00:00:00	2024-11-08T12:00:00	3	Temperatura mínima	21.9
135596	7	Sololá	719	Santiago Atitlán	14	Cerro de Oro	3	Marzo	2023-06-03T00:00:00	2024-11-08T12:00:00	5	Humedad	63
135597	7	Sololá	719	Santiago Atitlán	14	Cerro de Oro	3	Marzo	2023-06-03T00:00:00	2024-11-08T12:00:00	6	Velocidad del viento	8
135598	7	Sololá	719	Santiago Atitlán	14	Cerro de Oro	3	Marzo	2023-06-03T00:00:00	2024-11-08T12:00:00	7	Dirección del viento	8.05
135599	7	Sololá	719	Santiago Atitlán	14	Cerro de Oro	3	Marzo	2023-06-03T00:00:00	2024-11-08T12:00:00	1	Precipitación	0
135600	7	Sololá	719	Santiago Atitlán	14	Cerro de Oro	3	Marzo	2023-06-03T00:00:00	2024-11-08T12:00:00	8	Radiación solar	846
135601	7	Sololá	719	Santiago Atitlán	14	Cerro de Oro	3	Marzo	2023-06-03T00:00:00	2024-11-08T13:00:00	2	Temperatura media	23.8
135602	7	Sololá	719	Santiago Atitlán	14	Cerro de Oro	3	Marzo	2023-06-03T00:00:00	2024-11-08T13:00:00	4	Temperatura máxima	24
135603	7	Sololá	719	Santiago Atitlán	14	Cerro de Oro	3	Marzo	2023-06-03T00:00:00	2024-11-08T13:00:00	3	Temperatura mínima	23.6
135604	7	Sololá	719	Santiago Atitlán	14	Cerro de Oro	3	Marzo	2023-06-03T00:00:00	2024-11-08T13:00:00	5	Humedad	64
135605	7	Sololá	719	Santiago Atitlán	14	Cerro de Oro	3	Marzo	2023-06-03T00:00:00	2024-11-08T13:00:00	6	Velocidad del viento	12.9
135606	7	Sololá	719	Santiago Atitlán	14	Cerro de Oro	3	Marzo	2023-06-03T00:00:00	2024-11-08T13:00:00	7	Dirección del viento	12.87
135607	7	Sololá	719	Santiago Atitlán	14	Cerro de Oro	3	Marzo	2023-06-03T00:00:00	2024-11-08T13:00:00	1	Precipitación	0
135608	7	Sololá	719	Santiago Atitlán	14	Cerro de Oro	3	Marzo	2023-06-03T00:00:00	2024-11-08T13:00:00	8	Radiación solar	861
135609	7	Sololá	719	Santiago Atitlán	14	Cerro de Oro	3	Marzo	2023-06-03T00:00:00	2024-11-08T14:00:00	2	Temperatura media	23.9
135610	7	Sololá	719	Santiago Atitlán	14	Cerro de Oro	3	Marzo	2023-06-03T00:00:00	2024-11-08T14:00:00	4	Temperatura máxima	24.4
135611	7	Sololá	719	Santiago Atitlán	14	Cerro de Oro	3	Marzo	2023-06-03T00:00:00	2024-11-08T14:00:00	3	Temperatura mínima	23.7
135612	7	Sololá	719	Santiago Atitlán	14	Cerro de Oro	3	Marzo	2023-06-03T00:00:00	2024-11-08T14:00:00	5	Humedad	65
135613	7	Sololá	719	Santiago Atitlán	14	Cerro de Oro	3	Marzo	2023-06-03T00:00:00	2024-11-08T14:00:00	6	Velocidad del viento	12.9
135614	7	Sololá	719	Santiago Atitlán	14	Cerro de Oro	3	Marzo	2023-06-03T00:00:00	2024-11-08T14:00:00	7	Dirección del viento	12.87
135615	7	Sololá	719	Santiago Atitlán	14	Cerro de Oro	3	Marzo	2023-06-03T00:00:00	2024-11-08T14:00:00	1	Precipitación	0
135616	7	Sololá	719	Santiago Atitlán	14	Cerro de Oro	3	Marzo	2023-06-03T00:00:00	2024-11-08T14:00:00	8	Radiación solar	819
135617	7	Sololá	719	Santiago Atitlán	14	Cerro de Oro	3	Marzo	2023-06-03T00:00:00	2024-11-08T15:00:00	2	Temperatura media	23.8
135618	7	Sololá	719	Santiago Atitlán	14	Cerro de Oro	3	Marzo	2023-06-03T00:00:00	2024-11-08T15:00:00	4	Temperatura máxima	23.9
135619	7	Sololá	719	Santiago Atitlán	14	Cerro de Oro	3	Marzo	2023-06-03T00:00:00	2024-11-08T15:00:00	3	Temperatura mínima	23.2
135620	7	Sololá	719	Santiago Atitlán	14	Cerro de Oro	3	Marzo	2023-06-03T00:00:00	2024-11-08T15:00:00	5	Humedad	64
135621	7	Sololá	719	Santiago Atitlán	14	Cerro de Oro	3	Marzo	2023-06-03T00:00:00	2024-11-08T15:00:00	6	Velocidad del viento	12.9
135622	7	Sololá	719	Santiago Atitlán	14	Cerro de Oro	3	Marzo	2023-06-03T00:00:00	2024-11-08T15:00:00	7	Dirección del viento	12.87
135623	7	Sololá	719	Santiago Atitlán	14	Cerro de Oro	3	Marzo	2023-06-03T00:00:00	2024-11-08T15:00:00	1	Precipitación	0
135624	7	Sololá	719	Santiago Atitlán	14	Cerro de Oro	3	Marzo	2023-06-03T00:00:00	2024-11-08T15:00:00	8	Radiación solar	674
135625	7	Sololá	719	Santiago Atitlán	14	Cerro de Oro	3	Marzo	2023-06-03T00:00:00	2024-11-08T16:00:00	2	Temperatura media	23.2
135626	7	Sololá	719	Santiago Atitlán	14	Cerro de Oro	3	Marzo	2023-06-03T00:00:00	2024-11-08T16:00:00	4	Temperatura máxima	23.9
135627	7	Sololá	719	Santiago Atitlán	14	Cerro de Oro	3	Marzo	2023-06-03T00:00:00	2024-11-08T16:00:00	3	Temperatura mínima	23.2
135628	7	Sololá	719	Santiago Atitlán	14	Cerro de Oro	3	Marzo	2023-06-03T00:00:00	2024-11-08T16:00:00	5	Humedad	66
135629	7	Sololá	719	Santiago Atitlán	14	Cerro de Oro	3	Marzo	2023-06-03T00:00:00	2024-11-08T16:00:00	6	Velocidad del viento	11.3
135630	7	Sololá	719	Santiago Atitlán	14	Cerro de Oro	3	Marzo	2023-06-03T00:00:00	2024-11-08T16:00:00	7	Dirección del viento	11.27
135631	7	Sololá	719	Santiago Atitlán	14	Cerro de Oro	3	Marzo	2023-06-03T00:00:00	2024-11-08T16:00:00	1	Precipitación	0
135632	7	Sololá	719	Santiago Atitlán	14	Cerro de Oro	3	Marzo	2023-06-03T00:00:00	2024-11-08T16:00:00	8	Radiación solar	489
135633	7	Sololá	719	Santiago Atitlán	14	Cerro de Oro	3	Marzo	2023-06-03T00:00:00	2024-11-08T17:00:00	2	Temperatura media	21.3
135634	7	Sololá	719	Santiago Atitlán	14	Cerro de Oro	3	Marzo	2023-06-03T00:00:00	2024-11-08T17:00:00	4	Temperatura máxima	23.2
135635	7	Sololá	719	Santiago Atitlán	14	Cerro de Oro	3	Marzo	2023-06-03T00:00:00	2024-11-08T17:00:00	3	Temperatura mínima	21.3
135636	7	Sololá	719	Santiago Atitlán	14	Cerro de Oro	3	Marzo	2023-06-03T00:00:00	2024-11-08T17:00:00	5	Humedad	78
135637	7	Sololá	719	Santiago Atitlán	14	Cerro de Oro	3	Marzo	2023-06-03T00:00:00	2024-11-08T17:00:00	6	Velocidad del viento	11.3
135638	7	Sololá	719	Santiago Atitlán	14	Cerro de Oro	3	Marzo	2023-06-03T00:00:00	2024-11-08T17:00:00	7	Dirección del viento	11.27
135639	7	Sololá	719	Santiago Atitlán	14	Cerro de Oro	3	Marzo	2023-06-03T00:00:00	2024-11-08T17:00:00	1	Precipitación	0
135640	7	Sololá	719	Santiago Atitlán	14	Cerro de Oro	3	Marzo	2023-06-03T00:00:00	2024-11-08T17:00:00	8	Radiación solar	169
135641	7	Sololá	719	Santiago Atitlán	14	Cerro de Oro	3	Marzo	2023-06-03T00:00:00	2024-11-08T18:00:00	2	Temperatura media	19.4
135642	7	Sololá	719	Santiago Atitlán	14	Cerro de Oro	3	Marzo	2023-06-03T00:00:00	2024-11-08T18:00:00	4	Temperatura máxima	21.3
135643	7	Sololá	719	Santiago Atitlán	14	Cerro de Oro	3	Marzo	2023-06-03T00:00:00	2024-11-08T18:00:00	3	Temperatura mínima	19.4
135644	7	Sololá	719	Santiago Atitlán	14	Cerro de Oro	3	Marzo	2023-06-03T00:00:00	2024-11-08T18:00:00	5	Humedad	83
135645	7	Sololá	719	Santiago Atitlán	14	Cerro de Oro	3	Marzo	2023-06-03T00:00:00	2024-11-08T18:00:00	6	Velocidad del viento	11.3
135646	7	Sololá	719	Santiago Atitlán	14	Cerro de Oro	3	Marzo	2023-06-03T00:00:00	2024-11-08T18:00:00	7	Dirección del viento	11.27
135647	7	Sololá	719	Santiago Atitlán	14	Cerro de Oro	3	Marzo	2023-06-03T00:00:00	2024-11-08T18:00:00	1	Precipitación	0
135648	7	Sololá	719	Santiago Atitlán	14	Cerro de Oro	3	Marzo	2023-06-03T00:00:00	2024-11-08T18:00:00	8	Radiación solar	69
135649	7	Sololá	719	Santiago Atitlán	14	Cerro de Oro	3	Marzo	2023-06-03T00:00:00	2024-11-08T19:00:00	2	Temperatura media	18.7
135650	7	Sololá	719	Santiago Atitlán	14	Cerro de Oro	3	Marzo	2023-06-03T00:00:00	2024-11-08T19:00:00	4	Temperatura máxima	19.4
135651	7	Sololá	719	Santiago Atitlán	14	Cerro de Oro	3	Marzo	2023-06-03T00:00:00	2024-11-08T19:00:00	3	Temperatura mínima	18.6
135652	7	Sololá	719	Santiago Atitlán	14	Cerro de Oro	3	Marzo	2023-06-03T00:00:00	2024-11-08T19:00:00	5	Humedad	84
135653	7	Sololá	719	Santiago Atitlán	14	Cerro de Oro	3	Marzo	2023-06-03T00:00:00	2024-11-08T19:00:00	6	Velocidad del viento	9.7
135654	7	Sololá	719	Santiago Atitlán	14	Cerro de Oro	3	Marzo	2023-06-03T00:00:00	2024-11-08T19:00:00	7	Dirección del viento	9.66
135655	7	Sololá	719	Santiago Atitlán	14	Cerro de Oro	3	Marzo	2023-06-03T00:00:00	2024-11-08T19:00:00	1	Precipitación	0
135656	7	Sololá	719	Santiago Atitlán	14	Cerro de Oro	3	Marzo	2023-06-03T00:00:00	2024-11-08T19:00:00	8	Radiación solar	0
135657	7	Sololá	719	Santiago Atitlán	14	Cerro de Oro	3	Marzo	2023-06-03T00:00:00	2024-11-08T20:00:00	2	Temperatura media	18.2
135658	7	Sololá	719	Santiago Atitlán	14	Cerro de Oro	3	Marzo	2023-06-03T00:00:00	2024-11-08T20:00:00	4	Temperatura máxima	18.7
135659	7	Sololá	719	Santiago Atitlán	14	Cerro de Oro	3	Marzo	2023-06-03T00:00:00	2024-11-08T20:00:00	3	Temperatura mínima	18.1
135660	7	Sololá	719	Santiago Atitlán	14	Cerro de Oro	3	Marzo	2023-06-03T00:00:00	2024-11-08T20:00:00	5	Humedad	83
135661	7	Sololá	719	Santiago Atitlán	14	Cerro de Oro	3	Marzo	2023-06-03T00:00:00	2024-11-08T20:00:00	6	Velocidad del viento	4.8
135662	7	Sololá	719	Santiago Atitlán	14	Cerro de Oro	3	Marzo	2023-06-03T00:00:00	2024-11-08T20:00:00	7	Dirección del viento	4.83
135663	7	Sololá	719	Santiago Atitlán	14	Cerro de Oro	3	Marzo	2023-06-03T00:00:00	2024-11-08T20:00:00	1	Precipitación	0
135664	7	Sololá	719	Santiago Atitlán	14	Cerro de Oro	3	Marzo	2023-06-03T00:00:00	2024-11-08T20:00:00	8	Radiación solar	0
135665	7	Sololá	719	Santiago Atitlán	14	Cerro de Oro	3	Marzo	2023-06-03T00:00:00	2024-11-08T21:00:00	2	Temperatura media	18.2
135666	7	Sololá	719	Santiago Atitlán	14	Cerro de Oro	3	Marzo	2023-06-03T00:00:00	2024-11-08T21:00:00	4	Temperatura máxima	18.4
135667	7	Sololá	719	Santiago Atitlán	14	Cerro de Oro	3	Marzo	2023-06-03T00:00:00	2024-11-08T21:00:00	3	Temperatura mínima	18.1
135668	7	Sololá	719	Santiago Atitlán	14	Cerro de Oro	3	Marzo	2023-06-03T00:00:00	2024-11-08T21:00:00	5	Humedad	83
135669	7	Sololá	719	Santiago Atitlán	14	Cerro de Oro	3	Marzo	2023-06-03T00:00:00	2024-11-08T21:00:00	6	Velocidad del viento	3.2
135670	7	Sololá	719	Santiago Atitlán	14	Cerro de Oro	3	Marzo	2023-06-03T00:00:00	2024-11-08T21:00:00	7	Dirección del viento	3.22
135671	7	Sololá	719	Santiago Atitlán	14	Cerro de Oro	3	Marzo	2023-06-03T00:00:00	2024-11-08T21:00:00	1	Precipitación	0
135672	7	Sololá	719	Santiago Atitlán	14	Cerro de Oro	3	Marzo	2023-06-03T00:00:00	2024-11-08T21:00:00	8	Radiación solar	0
135673	7	Sololá	719	Santiago Atitlán	14	Cerro de Oro	3	Marzo	2023-06-03T00:00:00	2024-11-08T22:00:00	2	Temperatura media	17.6
135674	7	Sololá	719	Santiago Atitlán	14	Cerro de Oro	3	Marzo	2023-06-03T00:00:00	2024-11-08T22:00:00	4	Temperatura máxima	18.2
135675	7	Sololá	719	Santiago Atitlán	14	Cerro de Oro	3	Marzo	2023-06-03T00:00:00	2024-11-08T22:00:00	3	Temperatura mínima	17.4
135676	7	Sololá	719	Santiago Atitlán	14	Cerro de Oro	3	Marzo	2023-06-03T00:00:00	2024-11-08T22:00:00	5	Humedad	77
135677	7	Sololá	719	Santiago Atitlán	14	Cerro de Oro	3	Marzo	2023-06-03T00:00:00	2024-11-08T22:00:00	6	Velocidad del viento	6.4
135678	7	Sololá	719	Santiago Atitlán	14	Cerro de Oro	3	Marzo	2023-06-03T00:00:00	2024-11-08T22:00:00	7	Dirección del viento	6.44
135679	7	Sololá	719	Santiago Atitlán	14	Cerro de Oro	3	Marzo	2023-06-03T00:00:00	2024-11-08T22:00:00	1	Precipitación	0
135680	7	Sololá	719	Santiago Atitlán	14	Cerro de Oro	3	Marzo	2023-06-03T00:00:00	2024-11-08T22:00:00	8	Radiación solar	0
135681	7	Sololá	719	Santiago Atitlán	14	Cerro de Oro	3	Marzo	2023-06-03T00:00:00	2024-11-08T23:00:00	2	Temperatura media	17.7
135682	7	Sololá	719	Santiago Atitlán	14	Cerro de Oro	3	Marzo	2023-06-03T00:00:00	2024-11-08T23:00:00	4	Temperatura máxima	18.3
135683	7	Sololá	719	Santiago Atitlán	14	Cerro de Oro	3	Marzo	2023-06-03T00:00:00	2024-11-08T23:00:00	3	Temperatura mínima	17.5
135684	7	Sololá	719	Santiago Atitlán	14	Cerro de Oro	3	Marzo	2023-06-03T00:00:00	2024-11-08T23:00:00	5	Humedad	74
135685	7	Sololá	719	Santiago Atitlán	14	Cerro de Oro	3	Marzo	2023-06-03T00:00:00	2024-11-08T23:00:00	6	Velocidad del viento	4.8
135686	7	Sololá	719	Santiago Atitlán	14	Cerro de Oro	3	Marzo	2023-06-03T00:00:00	2024-11-08T23:00:00	7	Dirección del viento	4.83
135687	7	Sololá	719	Santiago Atitlán	14	Cerro de Oro	3	Marzo	2023-06-03T00:00:00	2024-11-08T23:00:00	1	Precipitación	0
135688	7	Sololá	719	Santiago Atitlán	14	Cerro de Oro	3	Marzo	2023-06-03T00:00:00	2024-11-08T23:00:00	8	Radiación solar	0
135689	7	Sololá	719	Santiago Atitlán	14	Cerro de Oro	3	Marzo	2023-07-03T00:00:00	2024-11-08T00:00:00	2	Temperatura media	16.3
135690	7	Sololá	719	Santiago Atitlán	14	Cerro de Oro	3	Marzo	2023-07-03T00:00:00	2024-11-08T00:00:00	4	Temperatura máxima	17.7
135691	7	Sololá	719	Santiago Atitlán	14	Cerro de Oro	3	Marzo	2023-07-03T00:00:00	2024-11-08T00:00:00	3	Temperatura mínima	16.3
135692	7	Sololá	719	Santiago Atitlán	14	Cerro de Oro	3	Marzo	2023-07-03T00:00:00	2024-11-08T00:00:00	5	Humedad	76
135693	7	Sololá	719	Santiago Atitlán	14	Cerro de Oro	3	Marzo	2023-07-03T00:00:00	2024-11-08T00:00:00	6	Velocidad del viento	4.8
135694	7	Sololá	719	Santiago Atitlán	14	Cerro de Oro	3	Marzo	2023-07-03T00:00:00	2024-11-08T00:00:00	7	Dirección del viento	4.83
135695	7	Sololá	719	Santiago Atitlán	14	Cerro de Oro	3	Marzo	2023-07-03T00:00:00	2024-11-08T00:00:00	1	Precipitación	0
135696	7	Sololá	719	Santiago Atitlán	14	Cerro de Oro	3	Marzo	2023-07-03T00:00:00	2024-11-08T00:00:00	8	Radiación solar	0
135697	7	Sololá	719	Santiago Atitlán	14	Cerro de Oro	3	Marzo	2023-07-03T00:00:00	2024-11-08T01:00:00	2	Temperatura media	16.8
135698	7	Sololá	719	Santiago Atitlán	14	Cerro de Oro	3	Marzo	2023-07-03T00:00:00	2024-11-08T01:00:00	4	Temperatura máxima	16.9
135699	7	Sololá	719	Santiago Atitlán	14	Cerro de Oro	3	Marzo	2023-07-03T00:00:00	2024-11-08T01:00:00	3	Temperatura mínima	16.2
135700	7	Sololá	719	Santiago Atitlán	14	Cerro de Oro	3	Marzo	2023-07-03T00:00:00	2024-11-08T01:00:00	5	Humedad	75
135701	7	Sololá	719	Santiago Atitlán	14	Cerro de Oro	3	Marzo	2023-07-03T00:00:00	2024-11-08T01:00:00	6	Velocidad del viento	3.2
135702	7	Sololá	719	Santiago Atitlán	14	Cerro de Oro	3	Marzo	2023-07-03T00:00:00	2024-11-08T01:00:00	7	Dirección del viento	3.22
135703	7	Sololá	719	Santiago Atitlán	14	Cerro de Oro	3	Marzo	2023-07-03T00:00:00	2024-11-08T01:00:00	1	Precipitación	0
135704	7	Sololá	719	Santiago Atitlán	14	Cerro de Oro	3	Marzo	2023-07-03T00:00:00	2024-11-08T01:00:00	8	Radiación solar	0
135705	7	Sololá	719	Santiago Atitlán	14	Cerro de Oro	3	Marzo	2023-07-03T00:00:00	2024-11-08T02:00:00	2	Temperatura media	16.7
135706	7	Sololá	719	Santiago Atitlán	14	Cerro de Oro	3	Marzo	2023-07-03T00:00:00	2024-11-08T02:00:00	4	Temperatura máxima	16.8
135707	7	Sololá	719	Santiago Atitlán	14	Cerro de Oro	3	Marzo	2023-07-03T00:00:00	2024-11-08T02:00:00	3	Temperatura mínima	16.1
135708	7	Sololá	719	Santiago Atitlán	14	Cerro de Oro	3	Marzo	2023-07-03T00:00:00	2024-11-08T02:00:00	5	Humedad	73
135709	7	Sololá	719	Santiago Atitlán	14	Cerro de Oro	3	Marzo	2023-07-03T00:00:00	2024-11-08T02:00:00	6	Velocidad del viento	4.8
135710	7	Sololá	719	Santiago Atitlán	14	Cerro de Oro	3	Marzo	2023-07-03T00:00:00	2024-11-08T02:00:00	7	Dirección del viento	4.83
135711	7	Sololá	719	Santiago Atitlán	14	Cerro de Oro	3	Marzo	2023-07-03T00:00:00	2024-11-08T02:00:00	1	Precipitación	0
135712	7	Sololá	719	Santiago Atitlán	14	Cerro de Oro	3	Marzo	2023-07-03T00:00:00	2024-11-08T02:00:00	8	Radiación solar	0
135713	7	Sololá	719	Santiago Atitlán	14	Cerro de Oro	3	Marzo	2023-07-03T00:00:00	2024-11-08T03:00:00	2	Temperatura media	15.7
135714	7	Sololá	719	Santiago Atitlán	14	Cerro de Oro	3	Marzo	2023-07-03T00:00:00	2024-11-08T03:00:00	4	Temperatura máxima	16.7
135715	7	Sololá	719	Santiago Atitlán	14	Cerro de Oro	3	Marzo	2023-07-03T00:00:00	2024-11-08T03:00:00	3	Temperatura mínima	15.7
135716	7	Sololá	719	Santiago Atitlán	14	Cerro de Oro	3	Marzo	2023-07-03T00:00:00	2024-11-08T03:00:00	5	Humedad	80
135717	7	Sololá	719	Santiago Atitlán	14	Cerro de Oro	3	Marzo	2023-07-03T00:00:00	2024-11-08T03:00:00	6	Velocidad del viento	4.8
135718	7	Sololá	719	Santiago Atitlán	14	Cerro de Oro	3	Marzo	2023-07-03T00:00:00	2024-11-08T03:00:00	7	Dirección del viento	4.83
135719	7	Sololá	719	Santiago Atitlán	14	Cerro de Oro	3	Marzo	2023-07-03T00:00:00	2024-11-08T03:00:00	1	Precipitación	0
135720	7	Sololá	719	Santiago Atitlán	14	Cerro de Oro	3	Marzo	2023-07-03T00:00:00	2024-11-08T03:00:00	8	Radiación solar	0
135721	7	Sololá	719	Santiago Atitlán	14	Cerro de Oro	3	Marzo	2023-07-03T00:00:00	2024-11-08T04:00:00	2	Temperatura media	15.4
135722	7	Sololá	719	Santiago Atitlán	14	Cerro de Oro	3	Marzo	2023-07-03T00:00:00	2024-11-08T04:00:00	4	Temperatura máxima	16
135723	7	Sololá	719	Santiago Atitlán	14	Cerro de Oro	3	Marzo	2023-07-03T00:00:00	2024-11-08T04:00:00	3	Temperatura mínima	15.3
135724	7	Sololá	719	Santiago Atitlán	14	Cerro de Oro	3	Marzo	2023-07-03T00:00:00	2024-11-08T04:00:00	5	Humedad	81
135725	7	Sololá	719	Santiago Atitlán	14	Cerro de Oro	3	Marzo	2023-07-03T00:00:00	2024-11-08T04:00:00	6	Velocidad del viento	3.2
135726	7	Sololá	719	Santiago Atitlán	14	Cerro de Oro	3	Marzo	2023-07-03T00:00:00	2024-11-08T04:00:00	7	Dirección del viento	3.22
135727	7	Sololá	719	Santiago Atitlán	14	Cerro de Oro	3	Marzo	2023-07-03T00:00:00	2024-11-08T04:00:00	1	Precipitación	0
135728	7	Sololá	719	Santiago Atitlán	14	Cerro de Oro	3	Marzo	2023-07-03T00:00:00	2024-11-08T04:00:00	8	Radiación solar	0
135729	7	Sololá	719	Santiago Atitlán	14	Cerro de Oro	3	Marzo	2023-07-03T00:00:00	2024-11-08T05:00:00	2	Temperatura media	15.9
135730	7	Sololá	719	Santiago Atitlán	14	Cerro de Oro	3	Marzo	2023-07-03T00:00:00	2024-11-08T05:00:00	4	Temperatura máxima	15.9
135731	7	Sololá	719	Santiago Atitlán	14	Cerro de Oro	3	Marzo	2023-07-03T00:00:00	2024-11-08T05:00:00	3	Temperatura mínima	15.3
135732	7	Sololá	719	Santiago Atitlán	14	Cerro de Oro	3	Marzo	2023-07-03T00:00:00	2024-11-08T05:00:00	5	Humedad	75
135733	7	Sololá	719	Santiago Atitlán	14	Cerro de Oro	3	Marzo	2023-07-03T00:00:00	2024-11-08T05:00:00	6	Velocidad del viento	6.4
135734	7	Sololá	719	Santiago Atitlán	14	Cerro de Oro	3	Marzo	2023-07-03T00:00:00	2024-11-08T05:00:00	7	Dirección del viento	6.44
135735	7	Sololá	719	Santiago Atitlán	14	Cerro de Oro	3	Marzo	2023-07-03T00:00:00	2024-11-08T05:00:00	1	Precipitación	0
135736	7	Sololá	719	Santiago Atitlán	14	Cerro de Oro	3	Marzo	2023-07-03T00:00:00	2024-11-08T05:00:00	8	Radiación solar	0
135737	7	Sololá	719	Santiago Atitlán	14	Cerro de Oro	3	Marzo	2023-07-03T00:00:00	2024-11-08T06:00:00	2	Temperatura media	15.5
135738	7	Sololá	719	Santiago Atitlán	14	Cerro de Oro	3	Marzo	2023-07-03T00:00:00	2024-11-08T06:00:00	4	Temperatura máxima	15.9
135739	7	Sololá	719	Santiago Atitlán	14	Cerro de Oro	3	Marzo	2023-07-03T00:00:00	2024-11-08T06:00:00	3	Temperatura mínima	15.4
135740	7	Sololá	719	Santiago Atitlán	14	Cerro de Oro	3	Marzo	2023-07-03T00:00:00	2024-11-08T06:00:00	5	Humedad	75
135741	7	Sololá	719	Santiago Atitlán	14	Cerro de Oro	3	Marzo	2023-07-03T00:00:00	2024-11-08T06:00:00	6	Velocidad del viento	4.8
135742	7	Sololá	719	Santiago Atitlán	14	Cerro de Oro	3	Marzo	2023-07-03T00:00:00	2024-11-08T06:00:00	7	Dirección del viento	4.83
135743	7	Sololá	719	Santiago Atitlán	14	Cerro de Oro	3	Marzo	2023-07-03T00:00:00	2024-11-08T06:00:00	1	Precipitación	0
135744	7	Sololá	719	Santiago Atitlán	14	Cerro de Oro	3	Marzo	2023-07-03T00:00:00	2024-11-08T06:00:00	8	Radiación solar	0
135745	7	Sololá	719	Santiago Atitlán	14	Cerro de Oro	3	Marzo	2023-07-03T00:00:00	2024-11-08T07:00:00	2	Temperatura media	15.6
135746	7	Sololá	719	Santiago Atitlán	14	Cerro de Oro	3	Marzo	2023-07-03T00:00:00	2024-11-08T07:00:00	4	Temperatura máxima	15.6
135747	7	Sololá	719	Santiago Atitlán	14	Cerro de Oro	3	Marzo	2023-07-03T00:00:00	2024-11-08T07:00:00	3	Temperatura mínima	15.3
135748	7	Sololá	719	Santiago Atitlán	14	Cerro de Oro	3	Marzo	2023-07-03T00:00:00	2024-11-08T07:00:00	5	Humedad	75
135749	7	Sololá	719	Santiago Atitlán	14	Cerro de Oro	3	Marzo	2023-07-03T00:00:00	2024-11-08T07:00:00	6	Velocidad del viento	3.2
135750	7	Sololá	719	Santiago Atitlán	14	Cerro de Oro	3	Marzo	2023-07-03T00:00:00	2024-11-08T07:00:00	7	Dirección del viento	3.22
135751	7	Sololá	719	Santiago Atitlán	14	Cerro de Oro	3	Marzo	2023-07-03T00:00:00	2024-11-08T07:00:00	1	Precipitación	0
135752	7	Sololá	719	Santiago Atitlán	14	Cerro de Oro	3	Marzo	2023-07-03T00:00:00	2024-11-08T07:00:00	8	Radiación solar	19
135753	7	Sololá	719	Santiago Atitlán	14	Cerro de Oro	3	Marzo	2023-07-03T00:00:00	2024-11-08T08:00:00	2	Temperatura media	17.4
135754	7	Sololá	719	Santiago Atitlán	14	Cerro de Oro	3	Marzo	2023-07-03T00:00:00	2024-11-08T08:00:00	4	Temperatura máxima	17.4
135755	7	Sololá	719	Santiago Atitlán	14	Cerro de Oro	3	Marzo	2023-07-03T00:00:00	2024-11-08T08:00:00	3	Temperatura mínima	15.6
135756	7	Sololá	719	Santiago Atitlán	14	Cerro de Oro	3	Marzo	2023-07-03T00:00:00	2024-11-08T08:00:00	5	Humedad	71
135757	7	Sololá	719	Santiago Atitlán	14	Cerro de Oro	3	Marzo	2023-07-03T00:00:00	2024-11-08T08:00:00	6	Velocidad del viento	1.6
135758	7	Sololá	719	Santiago Atitlán	14	Cerro de Oro	3	Marzo	2023-07-03T00:00:00	2024-11-08T08:00:00	7	Dirección del viento	1.61
135759	7	Sololá	719	Santiago Atitlán	14	Cerro de Oro	3	Marzo	2023-07-03T00:00:00	2024-11-08T08:00:00	1	Precipitación	0
135760	7	Sololá	719	Santiago Atitlán	14	Cerro de Oro	3	Marzo	2023-07-03T00:00:00	2024-11-08T08:00:00	8	Radiación solar	131
135761	7	Sololá	719	Santiago Atitlán	14	Cerro de Oro	3	Marzo	2023-07-03T00:00:00	2024-11-08T09:00:00	2	Temperatura media	18.8
135762	7	Sololá	719	Santiago Atitlán	14	Cerro de Oro	3	Marzo	2023-07-03T00:00:00	2024-11-08T09:00:00	4	Temperatura máxima	18.9
135763	7	Sololá	719	Santiago Atitlán	14	Cerro de Oro	3	Marzo	2023-07-03T00:00:00	2024-11-08T09:00:00	3	Temperatura mínima	17.3
135764	7	Sololá	719	Santiago Atitlán	14	Cerro de Oro	3	Marzo	2023-07-03T00:00:00	2024-11-08T09:00:00	5	Humedad	69
135765	7	Sololá	719	Santiago Atitlán	14	Cerro de Oro	3	Marzo	2023-07-03T00:00:00	2024-11-08T09:00:00	6	Velocidad del viento	3.2
135766	7	Sololá	719	Santiago Atitlán	14	Cerro de Oro	3	Marzo	2023-07-03T00:00:00	2024-11-08T09:00:00	7	Dirección del viento	3.22
135767	7	Sololá	719	Santiago Atitlán	14	Cerro de Oro	3	Marzo	2023-07-03T00:00:00	2024-11-08T09:00:00	1	Precipitación	0
135768	7	Sololá	719	Santiago Atitlán	14	Cerro de Oro	3	Marzo	2023-07-03T00:00:00	2024-11-08T09:00:00	8	Radiación solar	340
135769	7	Sololá	719	Santiago Atitlán	14	Cerro de Oro	3	Marzo	2023-07-03T00:00:00	2024-11-08T10:00:00	2	Temperatura media	19.7
135770	7	Sololá	719	Santiago Atitlán	14	Cerro de Oro	3	Marzo	2023-07-03T00:00:00	2024-11-08T10:00:00	4	Temperatura máxima	20
135771	7	Sololá	719	Santiago Atitlán	14	Cerro de Oro	3	Marzo	2023-07-03T00:00:00	2024-11-08T10:00:00	3	Temperatura mínima	18.7
135772	7	Sololá	719	Santiago Atitlán	14	Cerro de Oro	3	Marzo	2023-07-03T00:00:00	2024-11-08T10:00:00	5	Humedad	68
135773	7	Sololá	719	Santiago Atitlán	14	Cerro de Oro	3	Marzo	2023-07-03T00:00:00	2024-11-08T10:00:00	6	Velocidad del viento	4.8
135774	7	Sololá	719	Santiago Atitlán	14	Cerro de Oro	3	Marzo	2023-07-03T00:00:00	2024-11-08T10:00:00	7	Dirección del viento	4.83
135775	7	Sololá	719	Santiago Atitlán	14	Cerro de Oro	3	Marzo	2023-07-03T00:00:00	2024-11-08T10:00:00	1	Precipitación	0
135776	7	Sololá	719	Santiago Atitlán	14	Cerro de Oro	3	Marzo	2023-07-03T00:00:00	2024-11-08T10:00:00	8	Radiación solar	599
135777	7	Sololá	719	Santiago Atitlán	14	Cerro de Oro	3	Marzo	2023-07-03T00:00:00	2024-11-08T11:00:00	2	Temperatura media	21.8
135778	7	Sololá	719	Santiago Atitlán	14	Cerro de Oro	3	Marzo	2023-07-03T00:00:00	2024-11-08T11:00:00	4	Temperatura máxima	21.8
135779	7	Sololá	719	Santiago Atitlán	14	Cerro de Oro	3	Marzo	2023-07-03T00:00:00	2024-11-08T11:00:00	3	Temperatura mínima	19.4
135780	7	Sololá	719	Santiago Atitlán	14	Cerro de Oro	3	Marzo	2023-07-03T00:00:00	2024-11-08T11:00:00	5	Humedad	64
135781	7	Sololá	719	Santiago Atitlán	14	Cerro de Oro	3	Marzo	2023-07-03T00:00:00	2024-11-08T11:00:00	6	Velocidad del viento	4.8
135782	7	Sololá	719	Santiago Atitlán	14	Cerro de Oro	3	Marzo	2023-07-03T00:00:00	2024-11-08T11:00:00	7	Dirección del viento	4.83
135783	7	Sololá	719	Santiago Atitlán	14	Cerro de Oro	3	Marzo	2023-07-03T00:00:00	2024-11-08T11:00:00	1	Precipitación	0
135784	7	Sololá	719	Santiago Atitlán	14	Cerro de Oro	3	Marzo	2023-07-03T00:00:00	2024-11-08T11:00:00	8	Radiación solar	703
135785	7	Sololá	719	Santiago Atitlán	14	Cerro de Oro	3	Marzo	2023-07-03T00:00:00	2024-11-08T12:00:00	2	Temperatura media	21.3
135786	7	Sololá	719	Santiago Atitlán	14	Cerro de Oro	3	Marzo	2023-07-03T00:00:00	2024-11-08T12:00:00	4	Temperatura máxima	22.3
135787	7	Sololá	719	Santiago Atitlán	14	Cerro de Oro	3	Marzo	2023-07-03T00:00:00	2024-11-08T12:00:00	3	Temperatura mínima	21.1
135788	7	Sololá	719	Santiago Atitlán	14	Cerro de Oro	3	Marzo	2023-07-03T00:00:00	2024-11-08T12:00:00	5	Humedad	65
135789	7	Sololá	719	Santiago Atitlán	14	Cerro de Oro	3	Marzo	2023-07-03T00:00:00	2024-11-08T12:00:00	6	Velocidad del viento	9.7
135790	7	Sololá	719	Santiago Atitlán	14	Cerro de Oro	3	Marzo	2023-07-03T00:00:00	2024-11-08T12:00:00	7	Dirección del viento	9.66
135791	7	Sololá	719	Santiago Atitlán	14	Cerro de Oro	3	Marzo	2023-07-03T00:00:00	2024-11-08T12:00:00	1	Precipitación	0
135792	7	Sololá	719	Santiago Atitlán	14	Cerro de Oro	3	Marzo	2023-07-03T00:00:00	2024-11-08T12:00:00	8	Radiación solar	587
135793	7	Sololá	719	Santiago Atitlán	14	Cerro de Oro	3	Marzo	2023-07-03T00:00:00	2024-11-08T13:00:00	2	Temperatura media	21.6
135794	7	Sololá	719	Santiago Atitlán	14	Cerro de Oro	3	Marzo	2023-07-03T00:00:00	2024-11-08T13:00:00	4	Temperatura máxima	22.3
135795	7	Sololá	719	Santiago Atitlán	14	Cerro de Oro	3	Marzo	2023-07-03T00:00:00	2024-11-08T13:00:00	3	Temperatura mínima	21.3
135796	7	Sololá	719	Santiago Atitlán	14	Cerro de Oro	3	Marzo	2023-07-03T00:00:00	2024-11-08T13:00:00	5	Humedad	68
135797	7	Sololá	719	Santiago Atitlán	14	Cerro de Oro	3	Marzo	2023-07-03T00:00:00	2024-11-08T13:00:00	6	Velocidad del viento	9.7
135798	7	Sololá	719	Santiago Atitlán	14	Cerro de Oro	3	Marzo	2023-07-03T00:00:00	2024-11-08T13:00:00	7	Dirección del viento	9.66
135799	7	Sololá	719	Santiago Atitlán	14	Cerro de Oro	3	Marzo	2023-07-03T00:00:00	2024-11-08T13:00:00	1	Precipitación	0
135800	7	Sololá	719	Santiago Atitlán	14	Cerro de Oro	3	Marzo	2023-07-03T00:00:00	2024-11-08T13:00:00	8	Radiación solar	627
135801	7	Sololá	719	Santiago Atitlán	14	Cerro de Oro	3	Marzo	2023-07-03T00:00:00	2024-11-08T14:00:00	2	Temperatura media	21.2
135802	7	Sololá	719	Santiago Atitlán	14	Cerro de Oro	3	Marzo	2023-07-03T00:00:00	2024-11-08T14:00:00	4	Temperatura máxima	22
135803	7	Sololá	719	Santiago Atitlán	14	Cerro de Oro	3	Marzo	2023-07-03T00:00:00	2024-11-08T14:00:00	3	Temperatura mínima	21.2
135804	7	Sololá	719	Santiago Atitlán	14	Cerro de Oro	3	Marzo	2023-07-03T00:00:00	2024-11-08T14:00:00	5	Humedad	72
135805	7	Sololá	719	Santiago Atitlán	14	Cerro de Oro	3	Marzo	2023-07-03T00:00:00	2024-11-08T14:00:00	6	Velocidad del viento	11.3
135806	7	Sololá	719	Santiago Atitlán	14	Cerro de Oro	3	Marzo	2023-07-03T00:00:00	2024-11-08T14:00:00	7	Dirección del viento	11.27
135807	7	Sololá	719	Santiago Atitlán	14	Cerro de Oro	3	Marzo	2023-07-03T00:00:00	2024-11-08T14:00:00	1	Precipitación	0
135808	7	Sololá	719	Santiago Atitlán	14	Cerro de Oro	3	Marzo	2023-07-03T00:00:00	2024-11-08T14:00:00	8	Radiación solar	497
135809	7	Sololá	719	Santiago Atitlán	14	Cerro de Oro	3	Marzo	2023-07-03T00:00:00	2024-11-08T15:00:00	2	Temperatura media	20.4
135810	7	Sololá	719	Santiago Atitlán	14	Cerro de Oro	3	Marzo	2023-07-03T00:00:00	2024-11-08T15:00:00	4	Temperatura máxima	21.2
135811	7	Sololá	719	Santiago Atitlán	14	Cerro de Oro	3	Marzo	2023-07-03T00:00:00	2024-11-08T15:00:00	3	Temperatura mínima	20.4
135812	7	Sololá	719	Santiago Atitlán	14	Cerro de Oro	3	Marzo	2023-07-03T00:00:00	2024-11-08T15:00:00	5	Humedad	77
135813	7	Sololá	719	Santiago Atitlán	14	Cerro de Oro	3	Marzo	2023-07-03T00:00:00	2024-11-08T15:00:00	6	Velocidad del viento	12.9
135814	7	Sololá	719	Santiago Atitlán	14	Cerro de Oro	3	Marzo	2023-07-03T00:00:00	2024-11-08T15:00:00	7	Dirección del viento	12.87
135815	7	Sololá	719	Santiago Atitlán	14	Cerro de Oro	3	Marzo	2023-07-03T00:00:00	2024-11-08T15:00:00	1	Precipitación	0
135816	7	Sololá	719	Santiago Atitlán	14	Cerro de Oro	3	Marzo	2023-07-03T00:00:00	2024-11-08T15:00:00	8	Radiación solar	330
135817	7	Sololá	719	Santiago Atitlán	14	Cerro de Oro	3	Marzo	2023-07-03T00:00:00	2024-11-08T16:00:00	2	Temperatura media	19.7
135818	7	Sololá	719	Santiago Atitlán	14	Cerro de Oro	3	Marzo	2023-07-03T00:00:00	2024-11-08T16:00:00	4	Temperatura máxima	20.6
135819	7	Sololá	719	Santiago Atitlán	14	Cerro de Oro	3	Marzo	2023-07-03T00:00:00	2024-11-08T16:00:00	3	Temperatura mínima	19.6
135820	7	Sololá	719	Santiago Atitlán	14	Cerro de Oro	3	Marzo	2023-07-03T00:00:00	2024-11-08T16:00:00	5	Humedad	81
135821	7	Sololá	719	Santiago Atitlán	14	Cerro de Oro	3	Marzo	2023-07-03T00:00:00	2024-11-08T16:00:00	6	Velocidad del viento	11.3
135822	7	Sololá	719	Santiago Atitlán	14	Cerro de Oro	3	Marzo	2023-07-03T00:00:00	2024-11-08T16:00:00	7	Dirección del viento	11.27
135823	7	Sololá	719	Santiago Atitlán	14	Cerro de Oro	3	Marzo	2023-07-03T00:00:00	2024-11-08T16:00:00	1	Precipitación	0
135824	7	Sololá	719	Santiago Atitlán	14	Cerro de Oro	3	Marzo	2023-07-03T00:00:00	2024-11-08T16:00:00	8	Radiación solar	207
135825	7	Sololá	719	Santiago Atitlán	14	Cerro de Oro	3	Marzo	2023-07-03T00:00:00	2024-11-08T17:00:00	2	Temperatura media	19.5
135826	7	Sololá	719	Santiago Atitlán	14	Cerro de Oro	3	Marzo	2023-07-03T00:00:00	2024-11-08T17:00:00	4	Temperatura máxima	19.7
135827	7	Sololá	719	Santiago Atitlán	14	Cerro de Oro	3	Marzo	2023-07-03T00:00:00	2024-11-08T17:00:00	3	Temperatura mínima	19.3
135828	7	Sololá	719	Santiago Atitlán	14	Cerro de Oro	3	Marzo	2023-07-03T00:00:00	2024-11-08T17:00:00	5	Humedad	82
135829	7	Sololá	719	Santiago Atitlán	14	Cerro de Oro	3	Marzo	2023-07-03T00:00:00	2024-11-08T17:00:00	6	Velocidad del viento	8
135830	7	Sololá	719	Santiago Atitlán	14	Cerro de Oro	3	Marzo	2023-07-03T00:00:00	2024-11-08T17:00:00	7	Dirección del viento	8.05
135831	7	Sololá	719	Santiago Atitlán	14	Cerro de Oro	3	Marzo	2023-07-03T00:00:00	2024-11-08T17:00:00	1	Precipitación	0
135832	7	Sololá	719	Santiago Atitlán	14	Cerro de Oro	3	Marzo	2023-07-03T00:00:00	2024-11-08T17:00:00	8	Radiación solar	73
135833	7	Sololá	719	Santiago Atitlán	14	Cerro de Oro	3	Marzo	2023-07-03T00:00:00	2024-11-08T18:00:00	2	Temperatura media	18.9
135834	7	Sololá	719	Santiago Atitlán	14	Cerro de Oro	3	Marzo	2023-07-03T00:00:00	2024-11-08T18:00:00	4	Temperatura máxima	19.5
135835	7	Sololá	719	Santiago Atitlán	14	Cerro de Oro	3	Marzo	2023-07-03T00:00:00	2024-11-08T18:00:00	3	Temperatura mínima	18.8
135836	7	Sololá	719	Santiago Atitlán	14	Cerro de Oro	3	Marzo	2023-07-03T00:00:00	2024-11-08T18:00:00	5	Humedad	84
135837	7	Sololá	719	Santiago Atitlán	14	Cerro de Oro	3	Marzo	2023-07-03T00:00:00	2024-11-08T18:00:00	6	Velocidad del viento	8
135838	7	Sololá	719	Santiago Atitlán	14	Cerro de Oro	3	Marzo	2023-07-03T00:00:00	2024-11-08T18:00:00	7	Dirección del viento	8.05
135839	7	Sololá	719	Santiago Atitlán	14	Cerro de Oro	3	Marzo	2023-07-03T00:00:00	2024-11-08T18:00:00	1	Precipitación	0
135840	7	Sololá	719	Santiago Atitlán	14	Cerro de Oro	3	Marzo	2023-07-03T00:00:00	2024-11-08T18:00:00	8	Radiación solar	58
135841	7	Sololá	719	Santiago Atitlán	14	Cerro de Oro	3	Marzo	2023-07-03T00:00:00	2024-11-08T19:00:00	2	Temperatura media	18.5
135842	7	Sololá	719	Santiago Atitlán	14	Cerro de Oro	3	Marzo	2023-07-03T00:00:00	2024-11-08T19:00:00	4	Temperatura máxima	19
135843	7	Sololá	719	Santiago Atitlán	14	Cerro de Oro	3	Marzo	2023-07-03T00:00:00	2024-11-08T19:00:00	3	Temperatura mínima	18.4
135844	7	Sololá	719	Santiago Atitlán	14	Cerro de Oro	3	Marzo	2023-07-03T00:00:00	2024-11-08T19:00:00	5	Humedad	85
135845	7	Sololá	719	Santiago Atitlán	14	Cerro de Oro	3	Marzo	2023-07-03T00:00:00	2024-11-08T19:00:00	6	Velocidad del viento	3.2
135846	7	Sololá	719	Santiago Atitlán	14	Cerro de Oro	3	Marzo	2023-07-03T00:00:00	2024-11-08T19:00:00	7	Dirección del viento	3.22
135847	7	Sololá	719	Santiago Atitlán	14	Cerro de Oro	3	Marzo	2023-07-03T00:00:00	2024-11-08T19:00:00	1	Precipitación	0
135848	7	Sololá	719	Santiago Atitlán	14	Cerro de Oro	3	Marzo	2023-07-03T00:00:00	2024-11-08T19:00:00	8	Radiación solar	0
135849	7	Sololá	719	Santiago Atitlán	14	Cerro de Oro	3	Marzo	2023-07-03T00:00:00	2024-11-08T20:00:00	2	Temperatura media	17.8
135850	7	Sololá	719	Santiago Atitlán	14	Cerro de Oro	3	Marzo	2023-07-03T00:00:00	2024-11-08T20:00:00	4	Temperatura máxima	18.6
135851	7	Sololá	719	Santiago Atitlán	14	Cerro de Oro	3	Marzo	2023-07-03T00:00:00	2024-11-08T20:00:00	3	Temperatura mínima	17.8
135852	7	Sololá	719	Santiago Atitlán	14	Cerro de Oro	3	Marzo	2023-07-03T00:00:00	2024-11-08T20:00:00	5	Humedad	88
135853	7	Sololá	719	Santiago Atitlán	14	Cerro de Oro	3	Marzo	2023-07-03T00:00:00	2024-11-08T20:00:00	6	Velocidad del viento	6.4
135854	7	Sololá	719	Santiago Atitlán	14	Cerro de Oro	3	Marzo	2023-07-03T00:00:00	2024-11-08T20:00:00	7	Dirección del viento	6.44
135855	7	Sololá	719	Santiago Atitlán	14	Cerro de Oro	3	Marzo	2023-07-03T00:00:00	2024-11-08T20:00:00	1	Precipitación	0
135856	7	Sololá	719	Santiago Atitlán	14	Cerro de Oro	3	Marzo	2023-07-03T00:00:00	2024-11-08T20:00:00	8	Radiación solar	0
135857	7	Sololá	719	Santiago Atitlán	14	Cerro de Oro	3	Marzo	2023-07-03T00:00:00	2024-11-08T21:00:00	2	Temperatura media	18.1
135858	7	Sololá	719	Santiago Atitlán	14	Cerro de Oro	3	Marzo	2023-07-03T00:00:00	2024-11-08T21:00:00	4	Temperatura máxima	18.2
135859	7	Sololá	719	Santiago Atitlán	14	Cerro de Oro	3	Marzo	2023-07-03T00:00:00	2024-11-08T21:00:00	3	Temperatura mínima	17.7
135860	7	Sololá	719	Santiago Atitlán	14	Cerro de Oro	3	Marzo	2023-07-03T00:00:00	2024-11-08T21:00:00	5	Humedad	78
135861	7	Sololá	719	Santiago Atitlán	14	Cerro de Oro	3	Marzo	2023-07-03T00:00:00	2024-11-08T21:00:00	6	Velocidad del viento	3.2
135862	7	Sololá	719	Santiago Atitlán	14	Cerro de Oro	3	Marzo	2023-07-03T00:00:00	2024-11-08T21:00:00	7	Dirección del viento	3.22
135863	7	Sololá	719	Santiago Atitlán	14	Cerro de Oro	3	Marzo	2023-07-03T00:00:00	2024-11-08T21:00:00	1	Precipitación	0
135864	7	Sololá	719	Santiago Atitlán	14	Cerro de Oro	3	Marzo	2023-07-03T00:00:00	2024-11-08T21:00:00	8	Radiación solar	0
135865	7	Sololá	719	Santiago Atitlán	14	Cerro de Oro	3	Marzo	2023-07-03T00:00:00	2024-11-08T22:00:00	2	Temperatura media	19.1
135866	7	Sololá	719	Santiago Atitlán	14	Cerro de Oro	3	Marzo	2023-07-03T00:00:00	2024-11-08T22:00:00	4	Temperatura máxima	19.2
135867	7	Sololá	719	Santiago Atitlán	14	Cerro de Oro	3	Marzo	2023-07-03T00:00:00	2024-11-08T22:00:00	3	Temperatura mínima	18.1
135868	7	Sololá	719	Santiago Atitlán	14	Cerro de Oro	3	Marzo	2023-07-03T00:00:00	2024-11-08T22:00:00	5	Humedad	73
135869	7	Sololá	719	Santiago Atitlán	14	Cerro de Oro	3	Marzo	2023-07-03T00:00:00	2024-11-08T22:00:00	6	Velocidad del viento	6.4
135870	7	Sololá	719	Santiago Atitlán	14	Cerro de Oro	3	Marzo	2023-07-03T00:00:00	2024-11-08T22:00:00	7	Dirección del viento	6.44
135871	7	Sololá	719	Santiago Atitlán	14	Cerro de Oro	3	Marzo	2023-07-03T00:00:00	2024-11-08T22:00:00	1	Precipitación	0
135872	7	Sololá	719	Santiago Atitlán	14	Cerro de Oro	3	Marzo	2023-07-03T00:00:00	2024-11-08T22:00:00	8	Radiación solar	0
135873	7	Sololá	719	Santiago Atitlán	14	Cerro de Oro	3	Marzo	2023-07-03T00:00:00	2024-11-08T23:00:00	2	Temperatura media	18.3
135874	7	Sololá	719	Santiago Atitlán	14	Cerro de Oro	3	Marzo	2023-07-03T00:00:00	2024-11-08T23:00:00	4	Temperatura máxima	19.2
135875	7	Sololá	719	Santiago Atitlán	14	Cerro de Oro	3	Marzo	2023-07-03T00:00:00	2024-11-08T23:00:00	3	Temperatura mínima	18.3
135876	7	Sololá	719	Santiago Atitlán	14	Cerro de Oro	3	Marzo	2023-07-03T00:00:00	2024-11-08T23:00:00	5	Humedad	72
135877	7	Sololá	719	Santiago Atitlán	14	Cerro de Oro	3	Marzo	2023-07-03T00:00:00	2024-11-08T23:00:00	6	Velocidad del viento	4.8
135878	7	Sololá	719	Santiago Atitlán	14	Cerro de Oro	3	Marzo	2023-07-03T00:00:00	2024-11-08T23:00:00	7	Dirección del viento	4.83
135879	7	Sololá	719	Santiago Atitlán	14	Cerro de Oro	3	Marzo	2023-07-03T00:00:00	2024-11-08T23:00:00	1	Precipitación	0
135880	7	Sololá	719	Santiago Atitlán	14	Cerro de Oro	3	Marzo	2023-07-03T00:00:00	2024-11-08T23:00:00	8	Radiación solar	0
135881	7	Sololá	719	Santiago Atitlán	14	Cerro de Oro	3	Marzo	2023-08-03T00:00:00	2024-11-08T00:00:00	2	Temperatura media	17.2
135882	7	Sololá	719	Santiago Atitlán	14	Cerro de Oro	3	Marzo	2023-08-03T00:00:00	2024-11-08T00:00:00	4	Temperatura máxima	18.3
135883	7	Sololá	719	Santiago Atitlán	14	Cerro de Oro	3	Marzo	2023-08-03T00:00:00	2024-11-08T00:00:00	3	Temperatura mínima	17.1
135884	7	Sololá	719	Santiago Atitlán	14	Cerro de Oro	3	Marzo	2023-08-03T00:00:00	2024-11-08T00:00:00	5	Humedad	75
135885	7	Sololá	719	Santiago Atitlán	14	Cerro de Oro	3	Marzo	2023-08-03T00:00:00	2024-11-08T00:00:00	6	Velocidad del viento	4.8
135886	7	Sololá	719	Santiago Atitlán	14	Cerro de Oro	3	Marzo	2023-08-03T00:00:00	2024-11-08T00:00:00	7	Dirección del viento	4.83
135887	7	Sololá	719	Santiago Atitlán	14	Cerro de Oro	3	Marzo	2023-08-03T00:00:00	2024-11-08T00:00:00	1	Precipitación	0
135888	7	Sololá	719	Santiago Atitlán	14	Cerro de Oro	3	Marzo	2023-08-03T00:00:00	2024-11-08T00:00:00	8	Radiación solar	0
135889	7	Sololá	719	Santiago Atitlán	14	Cerro de Oro	3	Marzo	2023-08-03T00:00:00	2024-11-08T01:00:00	2	Temperatura media	17.3
135890	7	Sololá	719	Santiago Atitlán	14	Cerro de Oro	3	Marzo	2023-08-03T00:00:00	2024-11-08T01:00:00	4	Temperatura máxima	17.3
135891	7	Sololá	719	Santiago Atitlán	14	Cerro de Oro	3	Marzo	2023-08-03T00:00:00	2024-11-08T01:00:00	3	Temperatura mínima	17
135892	7	Sololá	719	Santiago Atitlán	14	Cerro de Oro	3	Marzo	2023-08-03T00:00:00	2024-11-08T01:00:00	5	Humedad	74
135893	7	Sololá	719	Santiago Atitlán	14	Cerro de Oro	3	Marzo	2023-08-03T00:00:00	2024-11-08T01:00:00	6	Velocidad del viento	4.8
135894	7	Sololá	719	Santiago Atitlán	14	Cerro de Oro	3	Marzo	2023-08-03T00:00:00	2024-11-08T01:00:00	7	Dirección del viento	4.83
135895	7	Sololá	719	Santiago Atitlán	14	Cerro de Oro	3	Marzo	2023-08-03T00:00:00	2024-11-08T01:00:00	1	Precipitación	0
135896	7	Sololá	719	Santiago Atitlán	14	Cerro de Oro	3	Marzo	2023-08-03T00:00:00	2024-11-08T01:00:00	8	Radiación solar	0
135897	7	Sololá	719	Santiago Atitlán	14	Cerro de Oro	3	Marzo	2023-08-03T00:00:00	2024-11-08T02:00:00	2	Temperatura media	16.6
135898	7	Sololá	719	Santiago Atitlán	14	Cerro de Oro	3	Marzo	2023-08-03T00:00:00	2024-11-08T02:00:00	4	Temperatura máxima	17.3
135899	7	Sololá	719	Santiago Atitlán	14	Cerro de Oro	3	Marzo	2023-08-03T00:00:00	2024-11-08T02:00:00	3	Temperatura mínima	16.5
135900	7	Sololá	719	Santiago Atitlán	14	Cerro de Oro	3	Marzo	2023-08-03T00:00:00	2024-11-08T02:00:00	5	Humedad	78
135901	7	Sololá	719	Santiago Atitlán	14	Cerro de Oro	3	Marzo	2023-08-03T00:00:00	2024-11-08T02:00:00	6	Velocidad del viento	4.8
135902	7	Sololá	719	Santiago Atitlán	14	Cerro de Oro	3	Marzo	2023-08-03T00:00:00	2024-11-08T02:00:00	7	Dirección del viento	4.83
135903	7	Sololá	719	Santiago Atitlán	14	Cerro de Oro	3	Marzo	2023-08-03T00:00:00	2024-11-08T02:00:00	1	Precipitación	0
135904	7	Sololá	719	Santiago Atitlán	14	Cerro de Oro	3	Marzo	2023-08-03T00:00:00	2024-11-08T02:00:00	8	Radiación solar	0
135905	7	Sololá	719	Santiago Atitlán	14	Cerro de Oro	3	Marzo	2023-08-03T00:00:00	2024-11-08T03:00:00	2	Temperatura media	16.4
135906	7	Sololá	719	Santiago Atitlán	14	Cerro de Oro	3	Marzo	2023-08-03T00:00:00	2024-11-08T03:00:00	4	Temperatura máxima	16.6
135907	7	Sololá	719	Santiago Atitlán	14	Cerro de Oro	3	Marzo	2023-08-03T00:00:00	2024-11-08T03:00:00	3	Temperatura mínima	16.3
135908	7	Sololá	719	Santiago Atitlán	14	Cerro de Oro	3	Marzo	2023-08-03T00:00:00	2024-11-08T03:00:00	5	Humedad	80
135909	7	Sololá	719	Santiago Atitlán	14	Cerro de Oro	3	Marzo	2023-08-03T00:00:00	2024-11-08T03:00:00	6	Velocidad del viento	3.2
135910	7	Sololá	719	Santiago Atitlán	14	Cerro de Oro	3	Marzo	2023-08-03T00:00:00	2024-11-08T03:00:00	7	Dirección del viento	3.22
135911	7	Sololá	719	Santiago Atitlán	14	Cerro de Oro	3	Marzo	2023-08-03T00:00:00	2024-11-08T03:00:00	1	Precipitación	0
135912	7	Sololá	719	Santiago Atitlán	14	Cerro de Oro	3	Marzo	2023-08-03T00:00:00	2024-11-08T03:00:00	8	Radiación solar	0
135913	7	Sololá	719	Santiago Atitlán	14	Cerro de Oro	3	Marzo	2023-08-03T00:00:00	2024-11-08T04:00:00	2	Temperatura media	16.7
135914	7	Sololá	719	Santiago Atitlán	14	Cerro de Oro	3	Marzo	2023-08-03T00:00:00	2024-11-08T04:00:00	4	Temperatura máxima	16.7
135915	7	Sololá	719	Santiago Atitlán	14	Cerro de Oro	3	Marzo	2023-08-03T00:00:00	2024-11-08T04:00:00	3	Temperatura mínima	16.3
135916	7	Sololá	719	Santiago Atitlán	14	Cerro de Oro	3	Marzo	2023-08-03T00:00:00	2024-11-08T04:00:00	5	Humedad	81
135917	7	Sololá	719	Santiago Atitlán	14	Cerro de Oro	3	Marzo	2023-08-03T00:00:00	2024-11-08T04:00:00	6	Velocidad del viento	3.2
135918	7	Sololá	719	Santiago Atitlán	14	Cerro de Oro	3	Marzo	2023-08-03T00:00:00	2024-11-08T04:00:00	7	Dirección del viento	3.22
135919	7	Sololá	719	Santiago Atitlán	14	Cerro de Oro	3	Marzo	2023-08-03T00:00:00	2024-11-08T04:00:00	1	Precipitación	0
135920	7	Sololá	719	Santiago Atitlán	14	Cerro de Oro	3	Marzo	2023-08-03T00:00:00	2024-11-08T04:00:00	8	Radiación solar	0
135921	7	Sololá	719	Santiago Atitlán	14	Cerro de Oro	3	Marzo	2023-08-03T00:00:00	2024-11-08T05:00:00	2	Temperatura media	16.2
135922	7	Sololá	719	Santiago Atitlán	14	Cerro de Oro	3	Marzo	2023-08-03T00:00:00	2024-11-08T05:00:00	4	Temperatura máxima	16.7
135923	7	Sololá	719	Santiago Atitlán	14	Cerro de Oro	3	Marzo	2023-08-03T00:00:00	2024-11-08T05:00:00	3	Temperatura mínima	15.8
135924	7	Sololá	719	Santiago Atitlán	14	Cerro de Oro	3	Marzo	2023-08-03T00:00:00	2024-11-08T05:00:00	5	Humedad	82
135925	7	Sololá	719	Santiago Atitlán	14	Cerro de Oro	3	Marzo	2023-08-03T00:00:00	2024-11-08T05:00:00	6	Velocidad del viento	4.8
135926	7	Sololá	719	Santiago Atitlán	14	Cerro de Oro	3	Marzo	2023-08-03T00:00:00	2024-11-08T05:00:00	7	Dirección del viento	4.83
135927	7	Sololá	719	Santiago Atitlán	14	Cerro de Oro	3	Marzo	2023-08-03T00:00:00	2024-11-08T05:00:00	1	Precipitación	0
135928	7	Sololá	719	Santiago Atitlán	14	Cerro de Oro	3	Marzo	2023-08-03T00:00:00	2024-11-08T05:00:00	8	Radiación solar	0
135929	7	Sololá	719	Santiago Atitlán	14	Cerro de Oro	3	Marzo	2023-08-03T00:00:00	2024-11-08T06:00:00	2	Temperatura media	16.3
135930	7	Sololá	719	Santiago Atitlán	14	Cerro de Oro	3	Marzo	2023-08-03T00:00:00	2024-11-08T06:00:00	4	Temperatura máxima	16.3
135931	7	Sololá	719	Santiago Atitlán	14	Cerro de Oro	3	Marzo	2023-08-03T00:00:00	2024-11-08T06:00:00	3	Temperatura mínima	16.1
135932	7	Sololá	719	Santiago Atitlán	14	Cerro de Oro	3	Marzo	2023-08-03T00:00:00	2024-11-08T06:00:00	5	Humedad	81
135933	7	Sololá	719	Santiago Atitlán	14	Cerro de Oro	3	Marzo	2023-08-03T00:00:00	2024-11-08T06:00:00	6	Velocidad del viento	3.2
135934	7	Sololá	719	Santiago Atitlán	14	Cerro de Oro	3	Marzo	2023-08-03T00:00:00	2024-11-08T06:00:00	7	Dirección del viento	3.22
135935	7	Sololá	719	Santiago Atitlán	14	Cerro de Oro	3	Marzo	2023-08-03T00:00:00	2024-11-08T06:00:00	1	Precipitación	0
135936	7	Sololá	719	Santiago Atitlán	14	Cerro de Oro	3	Marzo	2023-08-03T00:00:00	2024-11-08T06:00:00	8	Radiación solar	0
135937	7	Sololá	719	Santiago Atitlán	14	Cerro de Oro	3	Marzo	2023-08-03T00:00:00	2024-11-08T07:00:00	2	Temperatura media	16.2
135938	7	Sololá	719	Santiago Atitlán	14	Cerro de Oro	3	Marzo	2023-08-03T00:00:00	2024-11-08T07:00:00	4	Temperatura máxima	16.3
135939	7	Sololá	719	Santiago Atitlán	14	Cerro de Oro	3	Marzo	2023-08-03T00:00:00	2024-11-08T07:00:00	3	Temperatura mínima	15.7
135940	7	Sololá	719	Santiago Atitlán	14	Cerro de Oro	3	Marzo	2023-08-03T00:00:00	2024-11-08T07:00:00	5	Humedad	83
135941	7	Sololá	719	Santiago Atitlán	14	Cerro de Oro	3	Marzo	2023-08-03T00:00:00	2024-11-08T07:00:00	6	Velocidad del viento	4.8
135942	7	Sololá	719	Santiago Atitlán	14	Cerro de Oro	3	Marzo	2023-08-03T00:00:00	2024-11-08T07:00:00	7	Dirección del viento	4.83
135943	7	Sololá	719	Santiago Atitlán	14	Cerro de Oro	3	Marzo	2023-08-03T00:00:00	2024-11-08T07:00:00	1	Precipitación	0
135944	7	Sololá	719	Santiago Atitlán	14	Cerro de Oro	3	Marzo	2023-08-03T00:00:00	2024-11-08T07:00:00	8	Radiación solar	10
135945	7	Sololá	719	Santiago Atitlán	14	Cerro de Oro	3	Marzo	2023-08-03T00:00:00	2024-11-08T08:00:00	2	Temperatura media	18.1
135946	7	Sololá	719	Santiago Atitlán	14	Cerro de Oro	3	Marzo	2023-08-03T00:00:00	2024-11-08T08:00:00	4	Temperatura máxima	18.1
135947	7	Sololá	719	Santiago Atitlán	14	Cerro de Oro	3	Marzo	2023-08-03T00:00:00	2024-11-08T08:00:00	3	Temperatura mínima	16.2
135948	7	Sololá	719	Santiago Atitlán	14	Cerro de Oro	3	Marzo	2023-08-03T00:00:00	2024-11-08T08:00:00	5	Humedad	81
135949	7	Sololá	719	Santiago Atitlán	14	Cerro de Oro	3	Marzo	2023-08-03T00:00:00	2024-11-08T08:00:00	6	Velocidad del viento	3.2
135950	7	Sololá	719	Santiago Atitlán	14	Cerro de Oro	3	Marzo	2023-08-03T00:00:00	2024-11-08T08:00:00	7	Dirección del viento	3.22
135951	7	Sololá	719	Santiago Atitlán	14	Cerro de Oro	3	Marzo	2023-08-03T00:00:00	2024-11-08T08:00:00	1	Precipitación	0
135952	7	Sololá	719	Santiago Atitlán	14	Cerro de Oro	3	Marzo	2023-08-03T00:00:00	2024-11-08T08:00:00	8	Radiación solar	122
135953	7	Sololá	719	Santiago Atitlán	14	Cerro de Oro	3	Marzo	2023-08-03T00:00:00	2024-11-08T09:00:00	2	Temperatura media	19.3
135954	7	Sololá	719	Santiago Atitlán	14	Cerro de Oro	3	Marzo	2023-08-03T00:00:00	2024-11-08T09:00:00	4	Temperatura máxima	19.3
135955	7	Sololá	719	Santiago Atitlán	14	Cerro de Oro	3	Marzo	2023-08-03T00:00:00	2024-11-08T09:00:00	3	Temperatura mínima	18.1
135956	7	Sololá	719	Santiago Atitlán	14	Cerro de Oro	3	Marzo	2023-08-03T00:00:00	2024-11-08T09:00:00	5	Humedad	74
135957	7	Sololá	719	Santiago Atitlán	14	Cerro de Oro	3	Marzo	2023-08-03T00:00:00	2024-11-08T09:00:00	6	Velocidad del viento	4.8
135958	7	Sololá	719	Santiago Atitlán	14	Cerro de Oro	3	Marzo	2023-08-03T00:00:00	2024-11-08T09:00:00	7	Dirección del viento	4.83
135959	7	Sololá	719	Santiago Atitlán	14	Cerro de Oro	3	Marzo	2023-08-03T00:00:00	2024-11-08T09:00:00	1	Precipitación	0
135960	7	Sololá	719	Santiago Atitlán	14	Cerro de Oro	3	Marzo	2023-08-03T00:00:00	2024-11-08T09:00:00	8	Radiación solar	304
135961	7	Sololá	719	Santiago Atitlán	14	Cerro de Oro	3	Marzo	2023-08-03T00:00:00	2024-11-08T10:00:00	2	Temperatura media	20.3
135962	7	Sololá	719	Santiago Atitlán	14	Cerro de Oro	3	Marzo	2023-08-03T00:00:00	2024-11-08T10:00:00	4	Temperatura máxima	20.3
135963	7	Sololá	719	Santiago Atitlán	14	Cerro de Oro	3	Marzo	2023-08-03T00:00:00	2024-11-08T10:00:00	3	Temperatura mínima	19.1
135964	7	Sololá	719	Santiago Atitlán	14	Cerro de Oro	3	Marzo	2023-08-03T00:00:00	2024-11-08T10:00:00	5	Humedad	72
135965	7	Sololá	719	Santiago Atitlán	14	Cerro de Oro	3	Marzo	2023-08-03T00:00:00	2024-11-08T10:00:00	6	Velocidad del viento	4.8
135966	7	Sololá	719	Santiago Atitlán	14	Cerro de Oro	3	Marzo	2023-08-03T00:00:00	2024-11-08T10:00:00	7	Dirección del viento	4.83
135967	7	Sololá	719	Santiago Atitlán	14	Cerro de Oro	3	Marzo	2023-08-03T00:00:00	2024-11-08T10:00:00	1	Precipitación	0
135968	7	Sololá	719	Santiago Atitlán	14	Cerro de Oro	3	Marzo	2023-08-03T00:00:00	2024-11-08T10:00:00	8	Radiación solar	275
135969	7	Sololá	719	Santiago Atitlán	14	Cerro de Oro	3	Marzo	2023-08-03T00:00:00	2024-11-08T11:00:00	2	Temperatura media	21.8
135970	7	Sololá	719	Santiago Atitlán	14	Cerro de Oro	3	Marzo	2023-08-03T00:00:00	2024-11-08T11:00:00	4	Temperatura máxima	22
135971	7	Sololá	719	Santiago Atitlán	14	Cerro de Oro	3	Marzo	2023-08-03T00:00:00	2024-11-08T11:00:00	3	Temperatura mínima	20.3
135972	7	Sololá	719	Santiago Atitlán	14	Cerro de Oro	3	Marzo	2023-08-03T00:00:00	2024-11-08T11:00:00	5	Humedad	68
135973	7	Sololá	719	Santiago Atitlán	14	Cerro de Oro	3	Marzo	2023-08-03T00:00:00	2024-11-08T11:00:00	6	Velocidad del viento	8
135974	7	Sololá	719	Santiago Atitlán	14	Cerro de Oro	3	Marzo	2023-08-03T00:00:00	2024-11-08T11:00:00	7	Dirección del viento	8.05
135975	7	Sololá	719	Santiago Atitlán	14	Cerro de Oro	3	Marzo	2023-08-03T00:00:00	2024-11-08T11:00:00	1	Precipitación	0
135976	7	Sololá	719	Santiago Atitlán	14	Cerro de Oro	3	Marzo	2023-08-03T00:00:00	2024-11-08T11:00:00	8	Radiación solar	683
135977	7	Sololá	719	Santiago Atitlán	14	Cerro de Oro	3	Marzo	2023-08-03T00:00:00	2024-11-08T12:00:00	2	Temperatura media	22.1
135978	7	Sololá	719	Santiago Atitlán	14	Cerro de Oro	3	Marzo	2023-08-03T00:00:00	2024-11-08T12:00:00	4	Temperatura máxima	22.1
135979	7	Sololá	719	Santiago Atitlán	14	Cerro de Oro	3	Marzo	2023-08-03T00:00:00	2024-11-08T12:00:00	3	Temperatura mínima	21.3
135980	7	Sololá	719	Santiago Atitlán	14	Cerro de Oro	3	Marzo	2023-08-03T00:00:00	2024-11-08T12:00:00	5	Humedad	63
135981	7	Sololá	719	Santiago Atitlán	14	Cerro de Oro	3	Marzo	2023-08-03T00:00:00	2024-11-08T12:00:00	6	Velocidad del viento	11.3
135982	7	Sololá	719	Santiago Atitlán	14	Cerro de Oro	3	Marzo	2023-08-03T00:00:00	2024-11-08T12:00:00	7	Dirección del viento	11.27
135983	7	Sololá	719	Santiago Atitlán	14	Cerro de Oro	3	Marzo	2023-08-03T00:00:00	2024-11-08T12:00:00	1	Precipitación	0
135984	7	Sololá	719	Santiago Atitlán	14	Cerro de Oro	3	Marzo	2023-08-03T00:00:00	2024-11-08T12:00:00	8	Radiación solar	810
135985	7	Sololá	719	Santiago Atitlán	14	Cerro de Oro	3	Marzo	2023-08-03T00:00:00	2024-11-08T13:00:00	2	Temperatura media	21.5
135986	7	Sololá	719	Santiago Atitlán	14	Cerro de Oro	3	Marzo	2023-08-03T00:00:00	2024-11-08T13:00:00	4	Temperatura máxima	21.9
135987	7	Sololá	719	Santiago Atitlán	14	Cerro de Oro	3	Marzo	2023-08-03T00:00:00	2024-11-08T13:00:00	3	Temperatura mínima	21.5
135988	7	Sololá	719	Santiago Atitlán	14	Cerro de Oro	3	Marzo	2023-08-03T00:00:00	2024-11-08T13:00:00	5	Humedad	66
135989	7	Sololá	719	Santiago Atitlán	14	Cerro de Oro	3	Marzo	2023-08-03T00:00:00	2024-11-08T13:00:00	6	Velocidad del viento	14.5
135990	7	Sololá	719	Santiago Atitlán	14	Cerro de Oro	3	Marzo	2023-08-03T00:00:00	2024-11-08T13:00:00	7	Dirección del viento	14.48
135991	7	Sololá	719	Santiago Atitlán	14	Cerro de Oro	3	Marzo	2023-08-03T00:00:00	2024-11-08T13:00:00	1	Precipitación	0
135992	7	Sololá	719	Santiago Atitlán	14	Cerro de Oro	3	Marzo	2023-08-03T00:00:00	2024-11-08T13:00:00	8	Radiación solar	760
135993	7	Sololá	719	Santiago Atitlán	14	Cerro de Oro	3	Marzo	2023-08-03T00:00:00	2024-11-08T14:00:00	2	Temperatura media	19.7
135994	7	Sololá	719	Santiago Atitlán	14	Cerro de Oro	3	Marzo	2023-08-03T00:00:00	2024-11-08T14:00:00	4	Temperatura máxima	21.5
135995	7	Sololá	719	Santiago Atitlán	14	Cerro de Oro	3	Marzo	2023-08-03T00:00:00	2024-11-08T14:00:00	3	Temperatura mínima	19.7
135996	7	Sololá	719	Santiago Atitlán	14	Cerro de Oro	3	Marzo	2023-08-03T00:00:00	2024-11-08T14:00:00	5	Humedad	72
135997	7	Sololá	719	Santiago Atitlán	14	Cerro de Oro	3	Marzo	2023-08-03T00:00:00	2024-11-08T14:00:00	6	Velocidad del viento	14.5
135998	7	Sololá	719	Santiago Atitlán	14	Cerro de Oro	3	Marzo	2023-08-03T00:00:00	2024-11-08T14:00:00	7	Dirección del viento	14.48
135999	7	Sololá	719	Santiago Atitlán	14	Cerro de Oro	3	Marzo	2023-08-03T00:00:00	2024-11-08T14:00:00	1	Precipitación	0
136000	7	Sololá	719	Santiago Atitlán	14	Cerro de Oro	3	Marzo	2023-08-03T00:00:00	2024-11-08T14:00:00	8	Radiación solar	335
136001	7	Sololá	719	Santiago Atitlán	14	Cerro de Oro	3	Marzo	2023-08-03T00:00:00	2024-11-08T15:00:00	2	Temperatura media	19.6
136002	7	Sololá	719	Santiago Atitlán	14	Cerro de Oro	3	Marzo	2023-08-03T00:00:00	2024-11-08T15:00:00	4	Temperatura máxima	20.1
136003	7	Sololá	719	Santiago Atitlán	14	Cerro de Oro	3	Marzo	2023-08-03T00:00:00	2024-11-08T15:00:00	3	Temperatura mínima	19.4
136004	7	Sololá	719	Santiago Atitlán	14	Cerro de Oro	3	Marzo	2023-08-03T00:00:00	2024-11-08T15:00:00	5	Humedad	74
136005	7	Sololá	719	Santiago Atitlán	14	Cerro de Oro	3	Marzo	2023-08-03T00:00:00	2024-11-08T15:00:00	6	Velocidad del viento	11.3
136006	7	Sololá	719	Santiago Atitlán	14	Cerro de Oro	3	Marzo	2023-08-03T00:00:00	2024-11-08T15:00:00	7	Dirección del viento	11.27
136007	7	Sololá	719	Santiago Atitlán	14	Cerro de Oro	3	Marzo	2023-08-03T00:00:00	2024-11-08T15:00:00	1	Precipitación	0
136008	7	Sololá	719	Santiago Atitlán	14	Cerro de Oro	3	Marzo	2023-08-03T00:00:00	2024-11-08T15:00:00	8	Radiación solar	215
136009	7	Sololá	719	Santiago Atitlán	14	Cerro de Oro	3	Marzo	2023-08-03T00:00:00	2024-11-08T16:00:00	2	Temperatura media	19.5
136010	7	Sololá	719	Santiago Atitlán	14	Cerro de Oro	3	Marzo	2023-08-03T00:00:00	2024-11-08T16:00:00	4	Temperatura máxima	19.8
136011	7	Sololá	719	Santiago Atitlán	14	Cerro de Oro	3	Marzo	2023-08-03T00:00:00	2024-11-08T16:00:00	3	Temperatura mínima	19.4
136012	7	Sololá	719	Santiago Atitlán	14	Cerro de Oro	3	Marzo	2023-08-03T00:00:00	2024-11-08T16:00:00	5	Humedad	77
136013	7	Sololá	719	Santiago Atitlán	14	Cerro de Oro	3	Marzo	2023-08-03T00:00:00	2024-11-08T16:00:00	6	Velocidad del viento	9.7
136014	7	Sololá	719	Santiago Atitlán	14	Cerro de Oro	3	Marzo	2023-08-03T00:00:00	2024-11-08T16:00:00	7	Dirección del viento	9.66
136015	7	Sololá	719	Santiago Atitlán	14	Cerro de Oro	3	Marzo	2023-08-03T00:00:00	2024-11-08T16:00:00	1	Precipitación	0
136016	7	Sololá	719	Santiago Atitlán	14	Cerro de Oro	3	Marzo	2023-08-03T00:00:00	2024-11-08T16:00:00	8	Radiación solar	144
136017	7	Sololá	719	Santiago Atitlán	14	Cerro de Oro	3	Marzo	2023-08-03T00:00:00	2024-11-08T17:00:00	2	Temperatura media	18.4
136018	7	Sololá	719	Santiago Atitlán	14	Cerro de Oro	3	Marzo	2023-08-03T00:00:00	2024-11-08T17:00:00	4	Temperatura máxima	19.4
136019	7	Sololá	719	Santiago Atitlán	14	Cerro de Oro	3	Marzo	2023-08-03T00:00:00	2024-11-08T17:00:00	3	Temperatura mínima	18.3
136020	7	Sololá	719	Santiago Atitlán	14	Cerro de Oro	3	Marzo	2023-08-03T00:00:00	2024-11-08T17:00:00	5	Humedad	82
136021	7	Sololá	719	Santiago Atitlán	14	Cerro de Oro	3	Marzo	2023-08-03T00:00:00	2024-11-08T17:00:00	6	Velocidad del viento	9.7
136022	7	Sololá	719	Santiago Atitlán	14	Cerro de Oro	3	Marzo	2023-08-03T00:00:00	2024-11-08T17:00:00	7	Dirección del viento	9.66
136023	7	Sololá	719	Santiago Atitlán	14	Cerro de Oro	3	Marzo	2023-08-03T00:00:00	2024-11-08T17:00:00	1	Precipitación	0
136024	7	Sololá	719	Santiago Atitlán	14	Cerro de Oro	3	Marzo	2023-08-03T00:00:00	2024-11-08T17:00:00	8	Radiación solar	83
136025	7	Sololá	719	Santiago Atitlán	14	Cerro de Oro	3	Marzo	2023-08-03T00:00:00	2024-11-08T18:00:00	2	Temperatura media	18.1
136026	7	Sololá	719	Santiago Atitlán	14	Cerro de Oro	3	Marzo	2023-08-03T00:00:00	2024-11-08T18:00:00	4	Temperatura máxima	18.6
136027	7	Sololá	719	Santiago Atitlán	14	Cerro de Oro	3	Marzo	2023-08-03T00:00:00	2024-11-08T18:00:00	3	Temperatura mínima	18.1
136028	7	Sololá	719	Santiago Atitlán	14	Cerro de Oro	3	Marzo	2023-08-03T00:00:00	2024-11-08T18:00:00	5	Humedad	83
136029	7	Sololá	719	Santiago Atitlán	14	Cerro de Oro	3	Marzo	2023-08-03T00:00:00	2024-11-08T18:00:00	6	Velocidad del viento	9.7
136030	7	Sololá	719	Santiago Atitlán	14	Cerro de Oro	3	Marzo	2023-08-03T00:00:00	2024-11-08T18:00:00	7	Dirección del viento	9.66
136031	7	Sololá	719	Santiago Atitlán	14	Cerro de Oro	3	Marzo	2023-08-03T00:00:00	2024-11-08T18:00:00	1	Precipitación	0
136032	7	Sololá	719	Santiago Atitlán	14	Cerro de Oro	3	Marzo	2023-08-03T00:00:00	2024-11-08T18:00:00	8	Radiación solar	52
136033	7	Sololá	719	Santiago Atitlán	14	Cerro de Oro	3	Marzo	2023-08-03T00:00:00	2024-11-08T19:00:00	2	Temperatura media	17.4
136034	7	Sololá	719	Santiago Atitlán	14	Cerro de Oro	3	Marzo	2023-08-03T00:00:00	2024-11-08T19:00:00	4	Temperatura máxima	18.1
136035	7	Sololá	719	Santiago Atitlán	14	Cerro de Oro	3	Marzo	2023-08-03T00:00:00	2024-11-08T19:00:00	3	Temperatura mínima	17.4
136036	7	Sololá	719	Santiago Atitlán	14	Cerro de Oro	3	Marzo	2023-08-03T00:00:00	2024-11-08T19:00:00	5	Humedad	87
136037	7	Sololá	719	Santiago Atitlán	14	Cerro de Oro	3	Marzo	2023-08-03T00:00:00	2024-11-08T19:00:00	6	Velocidad del viento	8
136038	7	Sololá	719	Santiago Atitlán	14	Cerro de Oro	3	Marzo	2023-08-03T00:00:00	2024-11-08T19:00:00	7	Dirección del viento	8.05
136039	7	Sololá	719	Santiago Atitlán	14	Cerro de Oro	3	Marzo	2023-08-03T00:00:00	2024-11-08T19:00:00	1	Precipitación	0
136040	7	Sololá	719	Santiago Atitlán	14	Cerro de Oro	3	Marzo	2023-08-03T00:00:00	2024-11-08T19:00:00	8	Radiación solar	0
136041	7	Sololá	719	Santiago Atitlán	14	Cerro de Oro	3	Marzo	2023-08-03T00:00:00	2024-11-08T20:00:00	2	Temperatura media	17.3
136042	7	Sololá	719	Santiago Atitlán	14	Cerro de Oro	3	Marzo	2023-08-03T00:00:00	2024-11-08T20:00:00	4	Temperatura máxima	17.4
136043	7	Sololá	719	Santiago Atitlán	14	Cerro de Oro	3	Marzo	2023-08-03T00:00:00	2024-11-08T20:00:00	3	Temperatura mínima	17.3
136044	7	Sololá	719	Santiago Atitlán	14	Cerro de Oro	3	Marzo	2023-08-03T00:00:00	2024-11-08T20:00:00	5	Humedad	86
136045	7	Sololá	719	Santiago Atitlán	14	Cerro de Oro	3	Marzo	2023-08-03T00:00:00	2024-11-08T20:00:00	6	Velocidad del viento	4.8
136046	7	Sololá	719	Santiago Atitlán	14	Cerro de Oro	3	Marzo	2023-08-03T00:00:00	2024-11-08T20:00:00	7	Dirección del viento	4.83
136047	7	Sololá	719	Santiago Atitlán	14	Cerro de Oro	3	Marzo	2023-08-03T00:00:00	2024-11-08T20:00:00	1	Precipitación	0
136048	7	Sololá	719	Santiago Atitlán	14	Cerro de Oro	3	Marzo	2023-08-03T00:00:00	2024-11-08T20:00:00	8	Radiación solar	0
136049	7	Sololá	719	Santiago Atitlán	14	Cerro de Oro	3	Marzo	2023-08-03T00:00:00	2024-11-08T21:00:00	2	Temperatura media	16.8
136050	7	Sololá	719	Santiago Atitlán	14	Cerro de Oro	3	Marzo	2023-08-03T00:00:00	2024-11-08T21:00:00	4	Temperatura máxima	17.3
136051	7	Sololá	719	Santiago Atitlán	14	Cerro de Oro	3	Marzo	2023-08-03T00:00:00	2024-11-08T21:00:00	3	Temperatura mínima	16.8
136052	7	Sololá	719	Santiago Atitlán	14	Cerro de Oro	3	Marzo	2023-08-03T00:00:00	2024-11-08T21:00:00	5	Humedad	88
136053	7	Sololá	719	Santiago Atitlán	14	Cerro de Oro	3	Marzo	2023-08-03T00:00:00	2024-11-08T21:00:00	6	Velocidad del viento	4.8
136054	7	Sololá	719	Santiago Atitlán	14	Cerro de Oro	3	Marzo	2023-08-03T00:00:00	2024-11-08T21:00:00	7	Dirección del viento	4.83
136055	7	Sololá	719	Santiago Atitlán	14	Cerro de Oro	3	Marzo	2023-08-03T00:00:00	2024-11-08T21:00:00	1	Precipitación	0
136056	7	Sololá	719	Santiago Atitlán	14	Cerro de Oro	3	Marzo	2023-08-03T00:00:00	2024-11-08T21:00:00	8	Radiación solar	0
136057	7	Sololá	719	Santiago Atitlán	14	Cerro de Oro	3	Marzo	2023-08-03T00:00:00	2024-11-08T22:00:00	2	Temperatura media	17.1
136058	7	Sololá	719	Santiago Atitlán	14	Cerro de Oro	3	Marzo	2023-08-03T00:00:00	2024-11-08T22:00:00	4	Temperatura máxima	17.2
136059	7	Sololá	719	Santiago Atitlán	14	Cerro de Oro	3	Marzo	2023-08-03T00:00:00	2024-11-08T22:00:00	3	Temperatura mínima	16.8
136060	7	Sololá	719	Santiago Atitlán	14	Cerro de Oro	3	Marzo	2023-08-03T00:00:00	2024-11-08T22:00:00	5	Humedad	84
136061	7	Sololá	719	Santiago Atitlán	14	Cerro de Oro	3	Marzo	2023-08-03T00:00:00	2024-11-08T22:00:00	6	Velocidad del viento	4.8
136062	7	Sololá	719	Santiago Atitlán	14	Cerro de Oro	3	Marzo	2023-08-03T00:00:00	2024-11-08T22:00:00	7	Dirección del viento	4.83
136063	7	Sololá	719	Santiago Atitlán	14	Cerro de Oro	3	Marzo	2023-08-03T00:00:00	2024-11-08T22:00:00	1	Precipitación	0
136064	7	Sololá	719	Santiago Atitlán	14	Cerro de Oro	3	Marzo	2023-08-03T00:00:00	2024-11-08T22:00:00	8	Radiación solar	0
136065	7	Sololá	719	Santiago Atitlán	14	Cerro de Oro	3	Marzo	2023-08-03T00:00:00	2024-11-08T23:00:00	2	Temperatura media	16.7
136066	7	Sololá	719	Santiago Atitlán	14	Cerro de Oro	3	Marzo	2023-08-03T00:00:00	2024-11-08T23:00:00	4	Temperatura máxima	17.2
136067	7	Sololá	719	Santiago Atitlán	14	Cerro de Oro	3	Marzo	2023-08-03T00:00:00	2024-11-08T23:00:00	3	Temperatura mínima	16.7
136068	7	Sololá	719	Santiago Atitlán	14	Cerro de Oro	3	Marzo	2023-08-03T00:00:00	2024-11-08T23:00:00	5	Humedad	85
136069	7	Sololá	719	Santiago Atitlán	14	Cerro de Oro	3	Marzo	2023-08-03T00:00:00	2024-11-08T23:00:00	6	Velocidad del viento	4.8
136070	7	Sololá	719	Santiago Atitlán	14	Cerro de Oro	3	Marzo	2023-08-03T00:00:00	2024-11-08T23:00:00	7	Dirección del viento	4.83
136071	7	Sololá	719	Santiago Atitlán	14	Cerro de Oro	3	Marzo	2023-08-03T00:00:00	2024-11-08T23:00:00	1	Precipitación	0
136072	7	Sololá	719	Santiago Atitlán	14	Cerro de Oro	3	Marzo	2023-08-03T00:00:00	2024-11-08T23:00:00	8	Radiación solar	0
136073	7	Sololá	719	Santiago Atitlán	14	Cerro de Oro	3	Marzo	2023-09-03T00:00:00	2024-11-08T00:00:00	2	Temperatura media	16.4
136074	7	Sololá	719	Santiago Atitlán	14	Cerro de Oro	3	Marzo	2023-09-03T00:00:00	2024-11-08T00:00:00	4	Temperatura máxima	17.2
136075	7	Sololá	719	Santiago Atitlán	14	Cerro de Oro	3	Marzo	2023-09-03T00:00:00	2024-11-08T00:00:00	3	Temperatura mínima	16.4
136076	7	Sololá	719	Santiago Atitlán	14	Cerro de Oro	3	Marzo	2023-09-03T00:00:00	2024-11-08T00:00:00	5	Humedad	83
136077	7	Sololá	719	Santiago Atitlán	14	Cerro de Oro	3	Marzo	2023-09-03T00:00:00	2024-11-08T00:00:00	6	Velocidad del viento	3.2
136078	7	Sololá	719	Santiago Atitlán	14	Cerro de Oro	3	Marzo	2023-09-03T00:00:00	2024-11-08T00:00:00	7	Dirección del viento	3.22
136079	7	Sololá	719	Santiago Atitlán	14	Cerro de Oro	3	Marzo	2023-09-03T00:00:00	2024-11-08T00:00:00	1	Precipitación	0
136080	7	Sololá	719	Santiago Atitlán	14	Cerro de Oro	3	Marzo	2023-09-03T00:00:00	2024-11-08T00:00:00	8	Radiación solar	0
136081	7	Sololá	719	Santiago Atitlán	14	Cerro de Oro	3	Marzo	2023-09-03T00:00:00	2024-11-08T01:00:00	2	Temperatura media	16.5
136082	7	Sololá	719	Santiago Atitlán	14	Cerro de Oro	3	Marzo	2023-09-03T00:00:00	2024-11-08T01:00:00	4	Temperatura máxima	16.8
136083	7	Sololá	719	Santiago Atitlán	14	Cerro de Oro	3	Marzo	2023-09-03T00:00:00	2024-11-08T01:00:00	3	Temperatura mínima	16.3
136084	7	Sololá	719	Santiago Atitlán	14	Cerro de Oro	3	Marzo	2023-09-03T00:00:00	2024-11-08T01:00:00	5	Humedad	79
136085	7	Sololá	719	Santiago Atitlán	14	Cerro de Oro	3	Marzo	2023-09-03T00:00:00	2024-11-08T01:00:00	6	Velocidad del viento	4.8
136086	7	Sololá	719	Santiago Atitlán	14	Cerro de Oro	3	Marzo	2023-09-03T00:00:00	2024-11-08T01:00:00	7	Dirección del viento	4.83
136087	7	Sololá	719	Santiago Atitlán	14	Cerro de Oro	3	Marzo	2023-09-03T00:00:00	2024-11-08T01:00:00	1	Precipitación	0
136088	7	Sololá	719	Santiago Atitlán	14	Cerro de Oro	3	Marzo	2023-09-03T00:00:00	2024-11-08T01:00:00	8	Radiación solar	0
136089	7	Sololá	719	Santiago Atitlán	14	Cerro de Oro	3	Marzo	2023-09-03T00:00:00	2024-11-08T02:00:00	2	Temperatura media	16.2
136090	7	Sololá	719	Santiago Atitlán	14	Cerro de Oro	3	Marzo	2023-09-03T00:00:00	2024-11-08T02:00:00	4	Temperatura máxima	16.7
136091	7	Sololá	719	Santiago Atitlán	14	Cerro de Oro	3	Marzo	2023-09-03T00:00:00	2024-11-08T02:00:00	3	Temperatura mínima	16.2
136092	7	Sololá	719	Santiago Atitlán	14	Cerro de Oro	3	Marzo	2023-09-03T00:00:00	2024-11-08T02:00:00	5	Humedad	73
136093	7	Sololá	719	Santiago Atitlán	14	Cerro de Oro	3	Marzo	2023-09-03T00:00:00	2024-11-08T02:00:00	6	Velocidad del viento	6.4
136094	7	Sololá	719	Santiago Atitlán	14	Cerro de Oro	3	Marzo	2023-09-03T00:00:00	2024-11-08T02:00:00	7	Dirección del viento	6.44
136095	7	Sololá	719	Santiago Atitlán	14	Cerro de Oro	3	Marzo	2023-09-03T00:00:00	2024-11-08T02:00:00	1	Precipitación	0
136096	7	Sololá	719	Santiago Atitlán	14	Cerro de Oro	3	Marzo	2023-09-03T00:00:00	2024-11-08T02:00:00	8	Radiación solar	0
136097	7	Sololá	719	Santiago Atitlán	14	Cerro de Oro	3	Marzo	2023-09-03T00:00:00	2024-11-08T03:00:00	2	Temperatura media	16.3
136098	7	Sololá	719	Santiago Atitlán	14	Cerro de Oro	3	Marzo	2023-09-03T00:00:00	2024-11-08T03:00:00	4	Temperatura máxima	16.3
136099	7	Sololá	719	Santiago Atitlán	14	Cerro de Oro	3	Marzo	2023-09-03T00:00:00	2024-11-08T03:00:00	3	Temperatura mínima	15.8
136100	7	Sololá	719	Santiago Atitlán	14	Cerro de Oro	3	Marzo	2023-09-03T00:00:00	2024-11-08T03:00:00	5	Humedad	74
136101	7	Sololá	719	Santiago Atitlán	14	Cerro de Oro	3	Marzo	2023-09-03T00:00:00	2024-11-08T03:00:00	6	Velocidad del viento	4.8
136102	7	Sololá	719	Santiago Atitlán	14	Cerro de Oro	3	Marzo	2023-09-03T00:00:00	2024-11-08T03:00:00	7	Dirección del viento	4.83
136103	7	Sololá	719	Santiago Atitlán	14	Cerro de Oro	3	Marzo	2023-09-03T00:00:00	2024-11-08T03:00:00	1	Precipitación	0
136104	7	Sololá	719	Santiago Atitlán	14	Cerro de Oro	3	Marzo	2023-09-03T00:00:00	2024-11-08T03:00:00	8	Radiación solar	0
136105	7	Sololá	719	Santiago Atitlán	14	Cerro de Oro	3	Marzo	2023-09-03T00:00:00	2024-11-08T04:00:00	2	Temperatura media	15.7
136106	7	Sololá	719	Santiago Atitlán	14	Cerro de Oro	3	Marzo	2023-09-03T00:00:00	2024-11-08T04:00:00	4	Temperatura máxima	16.3
136107	7	Sololá	719	Santiago Atitlán	14	Cerro de Oro	3	Marzo	2023-09-03T00:00:00	2024-11-08T04:00:00	3	Temperatura mínima	15.7
136108	7	Sololá	719	Santiago Atitlán	14	Cerro de Oro	3	Marzo	2023-09-03T00:00:00	2024-11-08T04:00:00	5	Humedad	78
136109	7	Sololá	719	Santiago Atitlán	14	Cerro de Oro	3	Marzo	2023-09-03T00:00:00	2024-11-08T04:00:00	6	Velocidad del viento	3.2
136110	7	Sololá	719	Santiago Atitlán	14	Cerro de Oro	3	Marzo	2023-09-03T00:00:00	2024-11-08T04:00:00	7	Dirección del viento	3.22
136111	7	Sololá	719	Santiago Atitlán	14	Cerro de Oro	3	Marzo	2023-09-03T00:00:00	2024-11-08T04:00:00	1	Precipitación	0
136112	7	Sololá	719	Santiago Atitlán	14	Cerro de Oro	3	Marzo	2023-09-03T00:00:00	2024-11-08T04:00:00	8	Radiación solar	0
136113	7	Sololá	719	Santiago Atitlán	14	Cerro de Oro	3	Marzo	2023-09-03T00:00:00	2024-11-08T05:00:00	2	Temperatura media	15.6
136114	7	Sololá	719	Santiago Atitlán	14	Cerro de Oro	3	Marzo	2023-09-03T00:00:00	2024-11-08T05:00:00	4	Temperatura máxima	16.2
136115	7	Sololá	719	Santiago Atitlán	14	Cerro de Oro	3	Marzo	2023-09-03T00:00:00	2024-11-08T05:00:00	3	Temperatura mínima	15.6
136116	7	Sololá	719	Santiago Atitlán	14	Cerro de Oro	3	Marzo	2023-09-03T00:00:00	2024-11-08T05:00:00	5	Humedad	77
136117	7	Sololá	719	Santiago Atitlán	14	Cerro de Oro	3	Marzo	2023-09-03T00:00:00	2024-11-08T05:00:00	6	Velocidad del viento	3.2
136118	7	Sololá	719	Santiago Atitlán	14	Cerro de Oro	3	Marzo	2023-09-03T00:00:00	2024-11-08T05:00:00	7	Dirección del viento	3.22
136119	7	Sololá	719	Santiago Atitlán	14	Cerro de Oro	3	Marzo	2023-09-03T00:00:00	2024-11-08T05:00:00	1	Precipitación	0
136120	7	Sololá	719	Santiago Atitlán	14	Cerro de Oro	3	Marzo	2023-09-03T00:00:00	2024-11-08T05:00:00	8	Radiación solar	0
136121	7	Sololá	719	Santiago Atitlán	14	Cerro de Oro	3	Marzo	2023-09-03T00:00:00	2024-11-08T06:00:00	2	Temperatura media	15.7
136122	7	Sololá	719	Santiago Atitlán	14	Cerro de Oro	3	Marzo	2023-09-03T00:00:00	2024-11-08T06:00:00	4	Temperatura máxima	15.9
136123	7	Sololá	719	Santiago Atitlán	14	Cerro de Oro	3	Marzo	2023-09-03T00:00:00	2024-11-08T06:00:00	3	Temperatura mínima	15.3
136124	7	Sololá	719	Santiago Atitlán	14	Cerro de Oro	3	Marzo	2023-09-03T00:00:00	2024-11-08T06:00:00	5	Humedad	75
136125	7	Sololá	719	Santiago Atitlán	14	Cerro de Oro	3	Marzo	2023-09-03T00:00:00	2024-11-08T06:00:00	6	Velocidad del viento	4.8
136126	7	Sololá	719	Santiago Atitlán	14	Cerro de Oro	3	Marzo	2023-09-03T00:00:00	2024-11-08T06:00:00	7	Dirección del viento	4.83
136127	7	Sololá	719	Santiago Atitlán	14	Cerro de Oro	3	Marzo	2023-09-03T00:00:00	2024-11-08T06:00:00	1	Precipitación	0
136128	7	Sololá	719	Santiago Atitlán	14	Cerro de Oro	3	Marzo	2023-09-03T00:00:00	2024-11-08T06:00:00	8	Radiación solar	0
136129	7	Sololá	719	Santiago Atitlán	14	Cerro de Oro	3	Marzo	2023-09-03T00:00:00	2024-11-08T07:00:00	2	Temperatura media	15.9
136130	7	Sololá	719	Santiago Atitlán	14	Cerro de Oro	3	Marzo	2023-09-03T00:00:00	2024-11-08T07:00:00	4	Temperatura máxima	15.9
136131	7	Sololá	719	Santiago Atitlán	14	Cerro de Oro	3	Marzo	2023-09-03T00:00:00	2024-11-08T07:00:00	3	Temperatura mínima	15.3
136132	7	Sololá	719	Santiago Atitlán	14	Cerro de Oro	3	Marzo	2023-09-03T00:00:00	2024-11-08T07:00:00	5	Humedad	74
136133	7	Sololá	719	Santiago Atitlán	14	Cerro de Oro	3	Marzo	2023-09-03T00:00:00	2024-11-08T07:00:00	6	Velocidad del viento	3.2
136134	7	Sololá	719	Santiago Atitlán	14	Cerro de Oro	3	Marzo	2023-09-03T00:00:00	2024-11-08T07:00:00	7	Dirección del viento	3.22
136135	7	Sololá	719	Santiago Atitlán	14	Cerro de Oro	3	Marzo	2023-09-03T00:00:00	2024-11-08T07:00:00	1	Precipitación	0
136136	7	Sololá	719	Santiago Atitlán	14	Cerro de Oro	3	Marzo	2023-09-03T00:00:00	2024-11-08T07:00:00	8	Radiación solar	28
136137	7	Sololá	719	Santiago Atitlán	14	Cerro de Oro	3	Marzo	2023-09-03T00:00:00	2024-11-08T08:00:00	2	Temperatura media	17.2
136138	7	Sololá	719	Santiago Atitlán	14	Cerro de Oro	3	Marzo	2023-09-03T00:00:00	2024-11-08T08:00:00	4	Temperatura máxima	17.2
136139	7	Sololá	719	Santiago Atitlán	14	Cerro de Oro	3	Marzo	2023-09-03T00:00:00	2024-11-08T08:00:00	3	Temperatura mínima	15.9
136140	7	Sololá	719	Santiago Atitlán	14	Cerro de Oro	3	Marzo	2023-09-03T00:00:00	2024-11-08T08:00:00	5	Humedad	72
136141	7	Sololá	719	Santiago Atitlán	14	Cerro de Oro	3	Marzo	2023-09-03T00:00:00	2024-11-08T08:00:00	6	Velocidad del viento	3.2
136142	7	Sololá	719	Santiago Atitlán	14	Cerro de Oro	3	Marzo	2023-09-03T00:00:00	2024-11-08T08:00:00	7	Dirección del viento	3.22
136143	7	Sololá	719	Santiago Atitlán	14	Cerro de Oro	3	Marzo	2023-09-03T00:00:00	2024-11-08T08:00:00	1	Precipitación	0
136144	7	Sololá	719	Santiago Atitlán	14	Cerro de Oro	3	Marzo	2023-09-03T00:00:00	2024-11-08T08:00:00	8	Radiación solar	113
136145	7	Sololá	719	Santiago Atitlán	14	Cerro de Oro	3	Marzo	2023-09-03T00:00:00	2024-11-08T09:00:00	2	Temperatura media	19.3
136146	7	Sololá	719	Santiago Atitlán	14	Cerro de Oro	3	Marzo	2023-09-03T00:00:00	2024-11-08T09:00:00	4	Temperatura máxima	19.3
136147	7	Sololá	719	Santiago Atitlán	14	Cerro de Oro	3	Marzo	2023-09-03T00:00:00	2024-11-08T09:00:00	3	Temperatura mínima	17.2
136148	7	Sololá	719	Santiago Atitlán	14	Cerro de Oro	3	Marzo	2023-09-03T00:00:00	2024-11-08T09:00:00	5	Humedad	67
136149	7	Sololá	719	Santiago Atitlán	14	Cerro de Oro	3	Marzo	2023-09-03T00:00:00	2024-11-08T09:00:00	6	Velocidad del viento	3.2
136150	7	Sololá	719	Santiago Atitlán	14	Cerro de Oro	3	Marzo	2023-09-03T00:00:00	2024-11-08T09:00:00	7	Dirección del viento	3.22
136151	7	Sololá	719	Santiago Atitlán	14	Cerro de Oro	3	Marzo	2023-09-03T00:00:00	2024-11-08T09:00:00	1	Precipitación	0
136152	7	Sololá	719	Santiago Atitlán	14	Cerro de Oro	3	Marzo	2023-09-03T00:00:00	2024-11-08T09:00:00	8	Radiación solar	359
136153	7	Sololá	719	Santiago Atitlán	14	Cerro de Oro	3	Marzo	2023-09-03T00:00:00	2024-11-08T10:00:00	2	Temperatura media	20.8
136154	7	Sololá	719	Santiago Atitlán	14	Cerro de Oro	3	Marzo	2023-09-03T00:00:00	2024-11-08T10:00:00	4	Temperatura máxima	20.8
136155	7	Sololá	719	Santiago Atitlán	14	Cerro de Oro	3	Marzo	2023-09-03T00:00:00	2024-11-08T10:00:00	3	Temperatura mínima	19.1
136156	7	Sololá	719	Santiago Atitlán	14	Cerro de Oro	3	Marzo	2023-09-03T00:00:00	2024-11-08T10:00:00	5	Humedad	65
136157	7	Sololá	719	Santiago Atitlán	14	Cerro de Oro	3	Marzo	2023-09-03T00:00:00	2024-11-08T10:00:00	6	Velocidad del viento	4.8
136158	7	Sololá	719	Santiago Atitlán	14	Cerro de Oro	3	Marzo	2023-09-03T00:00:00	2024-11-08T10:00:00	7	Dirección del viento	4.83
136159	7	Sololá	719	Santiago Atitlán	14	Cerro de Oro	3	Marzo	2023-09-03T00:00:00	2024-11-08T10:00:00	1	Precipitación	0
136160	7	Sololá	719	Santiago Atitlán	14	Cerro de Oro	3	Marzo	2023-09-03T00:00:00	2024-11-08T10:00:00	8	Radiación solar	618
136161	7	Sololá	719	Santiago Atitlán	14	Cerro de Oro	3	Marzo	2023-09-03T00:00:00	2024-11-08T11:00:00	2	Temperatura media	22.5
136162	7	Sololá	719	Santiago Atitlán	14	Cerro de Oro	3	Marzo	2023-09-03T00:00:00	2024-11-08T11:00:00	4	Temperatura máxima	22.5
136163	7	Sololá	719	Santiago Atitlán	14	Cerro de Oro	3	Marzo	2023-09-03T00:00:00	2024-11-08T11:00:00	3	Temperatura mínima	20.6
136164	7	Sololá	719	Santiago Atitlán	14	Cerro de Oro	3	Marzo	2023-09-03T00:00:00	2024-11-08T11:00:00	5	Humedad	63
136165	7	Sololá	719	Santiago Atitlán	14	Cerro de Oro	3	Marzo	2023-09-03T00:00:00	2024-11-08T11:00:00	6	Velocidad del viento	6.4
136166	7	Sololá	719	Santiago Atitlán	14	Cerro de Oro	3	Marzo	2023-09-03T00:00:00	2024-11-08T11:00:00	7	Dirección del viento	6.44
136167	7	Sololá	719	Santiago Atitlán	14	Cerro de Oro	3	Marzo	2023-09-03T00:00:00	2024-11-08T11:00:00	1	Precipitación	0
136168	7	Sololá	719	Santiago Atitlán	14	Cerro de Oro	3	Marzo	2023-09-03T00:00:00	2024-11-08T11:00:00	8	Radiación solar	764
136169	7	Sololá	719	Santiago Atitlán	14	Cerro de Oro	3	Marzo	2023-09-03T00:00:00	2024-11-08T12:00:00	2	Temperatura media	22
136170	7	Sololá	719	Santiago Atitlán	14	Cerro de Oro	3	Marzo	2023-09-03T00:00:00	2024-11-08T12:00:00	4	Temperatura máxima	22.6
136171	7	Sololá	719	Santiago Atitlán	14	Cerro de Oro	3	Marzo	2023-09-03T00:00:00	2024-11-08T12:00:00	3	Temperatura mínima	21.9
136172	7	Sololá	719	Santiago Atitlán	14	Cerro de Oro	3	Marzo	2023-09-03T00:00:00	2024-11-08T12:00:00	5	Humedad	68
136173	7	Sololá	719	Santiago Atitlán	14	Cerro de Oro	3	Marzo	2023-09-03T00:00:00	2024-11-08T12:00:00	6	Velocidad del viento	11.3
136174	7	Sololá	719	Santiago Atitlán	14	Cerro de Oro	3	Marzo	2023-09-03T00:00:00	2024-11-08T12:00:00	7	Dirección del viento	11.27
136175	7	Sololá	719	Santiago Atitlán	14	Cerro de Oro	3	Marzo	2023-09-03T00:00:00	2024-11-08T12:00:00	1	Precipitación	0
136176	7	Sololá	719	Santiago Atitlán	14	Cerro de Oro	3	Marzo	2023-09-03T00:00:00	2024-11-08T12:00:00	8	Radiación solar	865
136177	7	Sololá	719	Santiago Atitlán	14	Cerro de Oro	3	Marzo	2023-09-03T00:00:00	2024-11-08T13:00:00	2	Temperatura media	22.1
136178	7	Sololá	719	Santiago Atitlán	14	Cerro de Oro	3	Marzo	2023-09-03T00:00:00	2024-11-08T13:00:00	4	Temperatura máxima	22.1
136179	7	Sololá	719	Santiago Atitlán	14	Cerro de Oro	3	Marzo	2023-09-03T00:00:00	2024-11-08T13:00:00	3	Temperatura mínima	21.6
136180	7	Sololá	719	Santiago Atitlán	14	Cerro de Oro	3	Marzo	2023-09-03T00:00:00	2024-11-08T13:00:00	5	Humedad	69
136181	7	Sololá	719	Santiago Atitlán	14	Cerro de Oro	3	Marzo	2023-09-03T00:00:00	2024-11-08T13:00:00	6	Velocidad del viento	14.5
136182	7	Sololá	719	Santiago Atitlán	14	Cerro de Oro	3	Marzo	2023-09-03T00:00:00	2024-11-08T13:00:00	7	Dirección del viento	14.48
136183	7	Sololá	719	Santiago Atitlán	14	Cerro de Oro	3	Marzo	2023-09-03T00:00:00	2024-11-08T13:00:00	1	Precipitación	0
136184	7	Sololá	719	Santiago Atitlán	14	Cerro de Oro	3	Marzo	2023-09-03T00:00:00	2024-11-08T13:00:00	8	Radiación solar	881
136185	7	Sololá	719	Santiago Atitlán	14	Cerro de Oro	3	Marzo	2023-09-03T00:00:00	2024-11-08T14:00:00	2	Temperatura media	21.7
136186	7	Sololá	719	Santiago Atitlán	14	Cerro de Oro	3	Marzo	2023-09-03T00:00:00	2024-11-08T14:00:00	4	Temperatura máxima	22.1
136187	7	Sololá	719	Santiago Atitlán	14	Cerro de Oro	3	Marzo	2023-09-03T00:00:00	2024-11-08T14:00:00	3	Temperatura mínima	21.4
136188	7	Sololá	719	Santiago Atitlán	14	Cerro de Oro	3	Marzo	2023-09-03T00:00:00	2024-11-08T14:00:00	5	Humedad	72
136189	7	Sololá	719	Santiago Atitlán	14	Cerro de Oro	3	Marzo	2023-09-03T00:00:00	2024-11-08T14:00:00	6	Velocidad del viento	12.9
136190	7	Sololá	719	Santiago Atitlán	14	Cerro de Oro	3	Marzo	2023-09-03T00:00:00	2024-11-08T14:00:00	7	Dirección del viento	12.87
136191	7	Sololá	719	Santiago Atitlán	14	Cerro de Oro	3	Marzo	2023-09-03T00:00:00	2024-11-08T14:00:00	1	Precipitación	0
136192	7	Sololá	719	Santiago Atitlán	14	Cerro de Oro	3	Marzo	2023-09-03T00:00:00	2024-11-08T14:00:00	8	Radiación solar	761
136193	7	Sololá	719	Santiago Atitlán	14	Cerro de Oro	3	Marzo	2023-09-03T00:00:00	2024-11-08T15:00:00	2	Temperatura media	21.2
136194	7	Sololá	719	Santiago Atitlán	14	Cerro de Oro	3	Marzo	2023-09-03T00:00:00	2024-11-08T15:00:00	4	Temperatura máxima	22.1
136195	7	Sololá	719	Santiago Atitlán	14	Cerro de Oro	3	Marzo	2023-09-03T00:00:00	2024-11-08T15:00:00	3	Temperatura mínima	21.2
136196	7	Sololá	719	Santiago Atitlán	14	Cerro de Oro	3	Marzo	2023-09-03T00:00:00	2024-11-08T15:00:00	5	Humedad	73
136197	7	Sololá	719	Santiago Atitlán	14	Cerro de Oro	3	Marzo	2023-09-03T00:00:00	2024-11-08T15:00:00	6	Velocidad del viento	11.3
136198	7	Sololá	719	Santiago Atitlán	14	Cerro de Oro	3	Marzo	2023-09-03T00:00:00	2024-11-08T15:00:00	7	Dirección del viento	11.27
136199	7	Sololá	719	Santiago Atitlán	14	Cerro de Oro	3	Marzo	2023-09-03T00:00:00	2024-11-08T15:00:00	1	Precipitación	0
136200	7	Sololá	719	Santiago Atitlán	14	Cerro de Oro	3	Marzo	2023-09-03T00:00:00	2024-11-08T15:00:00	8	Radiación solar	584
136201	7	Sololá	719	Santiago Atitlán	14	Cerro de Oro	3	Marzo	2023-09-03T00:00:00	2024-11-08T16:00:00	2	Temperatura media	20.5
136202	7	Sololá	719	Santiago Atitlán	14	Cerro de Oro	3	Marzo	2023-09-03T00:00:00	2024-11-08T16:00:00	4	Temperatura máxima	21.2
136203	7	Sololá	719	Santiago Atitlán	14	Cerro de Oro	3	Marzo	2023-09-03T00:00:00	2024-11-08T16:00:00	3	Temperatura mínima	20.4
136204	7	Sololá	719	Santiago Atitlán	14	Cerro de Oro	3	Marzo	2023-09-03T00:00:00	2024-11-08T16:00:00	5	Humedad	78
136205	7	Sololá	719	Santiago Atitlán	14	Cerro de Oro	3	Marzo	2023-09-03T00:00:00	2024-11-08T16:00:00	6	Velocidad del viento	9.7
136206	7	Sololá	719	Santiago Atitlán	14	Cerro de Oro	3	Marzo	2023-09-03T00:00:00	2024-11-08T16:00:00	7	Dirección del viento	9.66
136207	7	Sololá	719	Santiago Atitlán	14	Cerro de Oro	3	Marzo	2023-09-03T00:00:00	2024-11-08T16:00:00	1	Precipitación	0
136208	7	Sololá	719	Santiago Atitlán	14	Cerro de Oro	3	Marzo	2023-09-03T00:00:00	2024-11-08T16:00:00	8	Radiación solar	228
136209	7	Sololá	719	Santiago Atitlán	14	Cerro de Oro	3	Marzo	2023-09-03T00:00:00	2024-11-08T17:00:00	2	Temperatura media	20.3
136210	7	Sololá	719	Santiago Atitlán	14	Cerro de Oro	3	Marzo	2023-09-03T00:00:00	2024-11-08T17:00:00	4	Temperatura máxima	20.7
136211	7	Sololá	719	Santiago Atitlán	14	Cerro de Oro	3	Marzo	2023-09-03T00:00:00	2024-11-08T17:00:00	3	Temperatura mínima	20.2
136212	7	Sololá	719	Santiago Atitlán	14	Cerro de Oro	3	Marzo	2023-09-03T00:00:00	2024-11-08T17:00:00	5	Humedad	81
136213	7	Sololá	719	Santiago Atitlán	14	Cerro de Oro	3	Marzo	2023-09-03T00:00:00	2024-11-08T17:00:00	6	Velocidad del viento	6.4
136214	7	Sololá	719	Santiago Atitlán	14	Cerro de Oro	3	Marzo	2023-09-03T00:00:00	2024-11-08T17:00:00	7	Dirección del viento	6.44
136215	7	Sololá	719	Santiago Atitlán	14	Cerro de Oro	3	Marzo	2023-09-03T00:00:00	2024-11-08T17:00:00	1	Precipitación	0
136216	7	Sololá	719	Santiago Atitlán	14	Cerro de Oro	3	Marzo	2023-09-03T00:00:00	2024-11-08T17:00:00	8	Radiación solar	113
136217	7	Sololá	719	Santiago Atitlán	14	Cerro de Oro	3	Marzo	2023-09-03T00:00:00	2024-11-08T18:00:00	2	Temperatura media	19.2
136218	7	Sololá	719	Santiago Atitlán	14	Cerro de Oro	3	Marzo	2023-09-03T00:00:00	2024-11-08T18:00:00	4	Temperatura máxima	20.4
136219	7	Sololá	719	Santiago Atitlán	14	Cerro de Oro	3	Marzo	2023-09-03T00:00:00	2024-11-08T18:00:00	3	Temperatura mínima	19.2
136220	7	Sololá	719	Santiago Atitlán	14	Cerro de Oro	3	Marzo	2023-09-03T00:00:00	2024-11-08T18:00:00	5	Humedad	84
136221	7	Sololá	719	Santiago Atitlán	14	Cerro de Oro	3	Marzo	2023-09-03T00:00:00	2024-11-08T18:00:00	6	Velocidad del viento	6.4
136222	7	Sololá	719	Santiago Atitlán	14	Cerro de Oro	3	Marzo	2023-09-03T00:00:00	2024-11-08T18:00:00	7	Dirección del viento	6.44
136223	7	Sololá	719	Santiago Atitlán	14	Cerro de Oro	3	Marzo	2023-09-03T00:00:00	2024-11-08T18:00:00	1	Precipitación	0
136224	7	Sololá	719	Santiago Atitlán	14	Cerro de Oro	3	Marzo	2023-09-03T00:00:00	2024-11-08T18:00:00	8	Radiación solar	42
136225	7	Sololá	719	Santiago Atitlán	14	Cerro de Oro	3	Marzo	2023-09-03T00:00:00	2024-11-08T19:00:00	2	Temperatura media	18.2
136226	7	Sololá	719	Santiago Atitlán	14	Cerro de Oro	3	Marzo	2023-09-03T00:00:00	2024-11-08T19:00:00	4	Temperatura máxima	19.2
136227	7	Sololá	719	Santiago Atitlán	14	Cerro de Oro	3	Marzo	2023-09-03T00:00:00	2024-11-08T19:00:00	3	Temperatura mínima	18.2
136228	7	Sololá	719	Santiago Atitlán	14	Cerro de Oro	3	Marzo	2023-09-03T00:00:00	2024-11-08T19:00:00	5	Humedad	88
136229	7	Sololá	719	Santiago Atitlán	14	Cerro de Oro	3	Marzo	2023-09-03T00:00:00	2024-11-08T19:00:00	6	Velocidad del viento	8
136230	7	Sololá	719	Santiago Atitlán	14	Cerro de Oro	3	Marzo	2023-09-03T00:00:00	2024-11-08T19:00:00	7	Dirección del viento	8.05
136231	7	Sololá	719	Santiago Atitlán	14	Cerro de Oro	3	Marzo	2023-09-03T00:00:00	2024-11-08T19:00:00	1	Precipitación	0
136232	7	Sololá	719	Santiago Atitlán	14	Cerro de Oro	3	Marzo	2023-09-03T00:00:00	2024-11-08T19:00:00	8	Radiación solar	0
136233	7	Sololá	719	Santiago Atitlán	14	Cerro de Oro	3	Marzo	2023-09-03T00:00:00	2024-11-08T20:00:00	2	Temperatura media	18.7
136234	7	Sololá	719	Santiago Atitlán	14	Cerro de Oro	3	Marzo	2023-09-03T00:00:00	2024-11-08T20:00:00	4	Temperatura máxima	18.7
136235	7	Sololá	719	Santiago Atitlán	14	Cerro de Oro	3	Marzo	2023-09-03T00:00:00	2024-11-08T20:00:00	3	Temperatura mínima	18.2
136236	7	Sololá	719	Santiago Atitlán	14	Cerro de Oro	3	Marzo	2023-09-03T00:00:00	2024-11-08T20:00:00	5	Humedad	82
136237	7	Sololá	719	Santiago Atitlán	14	Cerro de Oro	3	Marzo	2023-09-03T00:00:00	2024-11-08T20:00:00	6	Velocidad del viento	8
136238	7	Sololá	719	Santiago Atitlán	14	Cerro de Oro	3	Marzo	2023-09-03T00:00:00	2024-11-08T20:00:00	7	Dirección del viento	8.05
136239	7	Sololá	719	Santiago Atitlán	14	Cerro de Oro	3	Marzo	2023-09-03T00:00:00	2024-11-08T20:00:00	1	Precipitación	0
136240	7	Sololá	719	Santiago Atitlán	14	Cerro de Oro	3	Marzo	2023-09-03T00:00:00	2024-11-08T20:00:00	8	Radiación solar	0
136241	7	Sololá	719	Santiago Atitlán	14	Cerro de Oro	3	Marzo	2023-09-03T00:00:00	2024-11-08T21:00:00	2	Temperatura media	18.7
136242	7	Sololá	719	Santiago Atitlán	14	Cerro de Oro	3	Marzo	2023-09-03T00:00:00	2024-11-08T21:00:00	4	Temperatura máxima	18.7
136243	7	Sololá	719	Santiago Atitlán	14	Cerro de Oro	3	Marzo	2023-09-03T00:00:00	2024-11-08T21:00:00	3	Temperatura mínima	18.1
136244	7	Sololá	719	Santiago Atitlán	14	Cerro de Oro	3	Marzo	2023-09-03T00:00:00	2024-11-08T21:00:00	5	Humedad	79
136245	7	Sololá	719	Santiago Atitlán	14	Cerro de Oro	3	Marzo	2023-09-03T00:00:00	2024-11-08T21:00:00	6	Velocidad del viento	9.7
136246	7	Sololá	719	Santiago Atitlán	14	Cerro de Oro	3	Marzo	2023-09-03T00:00:00	2024-11-08T21:00:00	7	Dirección del viento	9.66
136247	7	Sololá	719	Santiago Atitlán	14	Cerro de Oro	3	Marzo	2023-09-03T00:00:00	2024-11-08T21:00:00	1	Precipitación	0
136248	7	Sololá	719	Santiago Atitlán	14	Cerro de Oro	3	Marzo	2023-09-03T00:00:00	2024-11-08T21:00:00	8	Radiación solar	0
136249	7	Sololá	719	Santiago Atitlán	14	Cerro de Oro	3	Marzo	2023-09-03T00:00:00	2024-11-08T22:00:00	2	Temperatura media	18.4
136250	7	Sololá	719	Santiago Atitlán	14	Cerro de Oro	3	Marzo	2023-09-03T00:00:00	2024-11-08T22:00:00	4	Temperatura máxima	18.9
136251	7	Sololá	719	Santiago Atitlán	14	Cerro de Oro	3	Marzo	2023-09-03T00:00:00	2024-11-08T22:00:00	3	Temperatura mínima	18.4
136252	7	Sololá	719	Santiago Atitlán	14	Cerro de Oro	3	Marzo	2023-09-03T00:00:00	2024-11-08T22:00:00	5	Humedad	79
136253	7	Sololá	719	Santiago Atitlán	14	Cerro de Oro	3	Marzo	2023-09-03T00:00:00	2024-11-08T22:00:00	6	Velocidad del viento	3.2
136254	7	Sololá	719	Santiago Atitlán	14	Cerro de Oro	3	Marzo	2023-09-03T00:00:00	2024-11-08T22:00:00	7	Dirección del viento	3.22
136255	7	Sololá	719	Santiago Atitlán	14	Cerro de Oro	3	Marzo	2023-09-03T00:00:00	2024-11-08T22:00:00	1	Precipitación	0
136256	7	Sololá	719	Santiago Atitlán	14	Cerro de Oro	3	Marzo	2023-09-03T00:00:00	2024-11-08T22:00:00	8	Radiación solar	0
136257	7	Sololá	719	Santiago Atitlán	14	Cerro de Oro	3	Marzo	2023-09-03T00:00:00	2024-11-08T23:00:00	2	Temperatura media	16.9
136258	7	Sololá	719	Santiago Atitlán	14	Cerro de Oro	3	Marzo	2023-09-03T00:00:00	2024-11-08T23:00:00	4	Temperatura máxima	18.4
136259	7	Sololá	719	Santiago Atitlán	14	Cerro de Oro	3	Marzo	2023-09-03T00:00:00	2024-11-08T23:00:00	3	Temperatura mínima	16.9
136260	7	Sololá	719	Santiago Atitlán	14	Cerro de Oro	3	Marzo	2023-09-03T00:00:00	2024-11-08T23:00:00	5	Humedad	79
136261	7	Sololá	719	Santiago Atitlán	14	Cerro de Oro	3	Marzo	2023-09-03T00:00:00	2024-11-08T23:00:00	6	Velocidad del viento	3.2
136262	7	Sololá	719	Santiago Atitlán	14	Cerro de Oro	3	Marzo	2023-09-03T00:00:00	2024-11-08T23:00:00	7	Dirección del viento	3.22
136263	7	Sololá	719	Santiago Atitlán	14	Cerro de Oro	3	Marzo	2023-09-03T00:00:00	2024-11-08T23:00:00	1	Precipitación	0
136264	7	Sololá	719	Santiago Atitlán	14	Cerro de Oro	3	Marzo	2023-09-03T00:00:00	2024-11-08T23:00:00	8	Radiación solar	0
136265	7	Sololá	719	Santiago Atitlán	14	Cerro de Oro	3	Marzo	2023-10-03T00:00:00	2024-11-08T00:00:00	2	Temperatura media	17.3
136266	7	Sololá	719	Santiago Atitlán	14	Cerro de Oro	3	Marzo	2023-10-03T00:00:00	2024-11-08T00:00:00	4	Temperatura máxima	17.4
136267	7	Sololá	719	Santiago Atitlán	14	Cerro de Oro	3	Marzo	2023-10-03T00:00:00	2024-11-08T00:00:00	3	Temperatura mínima	16.8
136268	7	Sololá	719	Santiago Atitlán	14	Cerro de Oro	3	Marzo	2023-10-03T00:00:00	2024-11-08T00:00:00	5	Humedad	78
136269	7	Sololá	719	Santiago Atitlán	14	Cerro de Oro	3	Marzo	2023-10-03T00:00:00	2024-11-08T00:00:00	6	Velocidad del viento	3.2
136270	7	Sololá	719	Santiago Atitlán	14	Cerro de Oro	3	Marzo	2023-10-03T00:00:00	2024-11-08T00:00:00	7	Dirección del viento	3.22
136271	7	Sololá	719	Santiago Atitlán	14	Cerro de Oro	3	Marzo	2023-10-03T00:00:00	2024-11-08T00:00:00	1	Precipitación	0
136272	7	Sololá	719	Santiago Atitlán	14	Cerro de Oro	3	Marzo	2023-10-03T00:00:00	2024-11-08T00:00:00	8	Radiación solar	0
136273	7	Sololá	719	Santiago Atitlán	14	Cerro de Oro	3	Marzo	2023-10-03T00:00:00	2024-11-08T01:00:00	2	Temperatura media	16.2
136274	7	Sololá	719	Santiago Atitlán	14	Cerro de Oro	3	Marzo	2023-10-03T00:00:00	2024-11-08T01:00:00	4	Temperatura máxima	17.4
136275	7	Sololá	719	Santiago Atitlán	14	Cerro de Oro	3	Marzo	2023-10-03T00:00:00	2024-11-08T01:00:00	3	Temperatura mínima	16.2
136276	7	Sololá	719	Santiago Atitlán	14	Cerro de Oro	3	Marzo	2023-10-03T00:00:00	2024-11-08T01:00:00	5	Humedad	81
136277	7	Sololá	719	Santiago Atitlán	14	Cerro de Oro	3	Marzo	2023-10-03T00:00:00	2024-11-08T01:00:00	6	Velocidad del viento	3.2
136278	7	Sololá	719	Santiago Atitlán	14	Cerro de Oro	3	Marzo	2023-10-03T00:00:00	2024-11-08T01:00:00	7	Dirección del viento	3.22
136279	7	Sololá	719	Santiago Atitlán	14	Cerro de Oro	3	Marzo	2023-10-03T00:00:00	2024-11-08T01:00:00	1	Precipitación	0
136280	7	Sololá	719	Santiago Atitlán	14	Cerro de Oro	3	Marzo	2023-10-03T00:00:00	2024-11-08T01:00:00	8	Radiación solar	0
136281	7	Sololá	719	Santiago Atitlán	14	Cerro de Oro	3	Marzo	2023-10-03T00:00:00	2024-11-08T02:00:00	2	Temperatura media	16.3
136282	7	Sololá	719	Santiago Atitlán	14	Cerro de Oro	3	Marzo	2023-10-03T00:00:00	2024-11-08T02:00:00	4	Temperatura máxima	16.3
136283	7	Sololá	719	Santiago Atitlán	14	Cerro de Oro	3	Marzo	2023-10-03T00:00:00	2024-11-08T02:00:00	3	Temperatura mínima	15.6
136284	7	Sololá	719	Santiago Atitlán	14	Cerro de Oro	3	Marzo	2023-10-03T00:00:00	2024-11-08T02:00:00	5	Humedad	81
136285	7	Sololá	719	Santiago Atitlán	14	Cerro de Oro	3	Marzo	2023-10-03T00:00:00	2024-11-08T02:00:00	6	Velocidad del viento	3.2
136286	7	Sololá	719	Santiago Atitlán	14	Cerro de Oro	3	Marzo	2023-10-03T00:00:00	2024-11-08T02:00:00	7	Dirección del viento	3.22
136287	7	Sololá	719	Santiago Atitlán	14	Cerro de Oro	3	Marzo	2023-10-03T00:00:00	2024-11-08T02:00:00	1	Precipitación	0
136288	7	Sololá	719	Santiago Atitlán	14	Cerro de Oro	3	Marzo	2023-10-03T00:00:00	2024-11-08T02:00:00	8	Radiación solar	0
136289	7	Sololá	719	Santiago Atitlán	14	Cerro de Oro	3	Marzo	2023-10-03T00:00:00	2024-11-08T03:00:00	2	Temperatura media	16.3
136290	7	Sololá	719	Santiago Atitlán	14	Cerro de Oro	3	Marzo	2023-10-03T00:00:00	2024-11-08T03:00:00	4	Temperatura máxima	16.6
136291	7	Sololá	719	Santiago Atitlán	14	Cerro de Oro	3	Marzo	2023-10-03T00:00:00	2024-11-08T03:00:00	3	Temperatura mínima	16.3
136292	7	Sololá	719	Santiago Atitlán	14	Cerro de Oro	3	Marzo	2023-10-03T00:00:00	2024-11-08T03:00:00	5	Humedad	82
136293	7	Sololá	719	Santiago Atitlán	14	Cerro de Oro	3	Marzo	2023-10-03T00:00:00	2024-11-08T03:00:00	6	Velocidad del viento	3.2
136294	7	Sololá	719	Santiago Atitlán	14	Cerro de Oro	3	Marzo	2023-10-03T00:00:00	2024-11-08T03:00:00	7	Dirección del viento	3.22
136295	7	Sololá	719	Santiago Atitlán	14	Cerro de Oro	3	Marzo	2023-10-03T00:00:00	2024-11-08T03:00:00	1	Precipitación	0
136296	7	Sololá	719	Santiago Atitlán	14	Cerro de Oro	3	Marzo	2023-10-03T00:00:00	2024-11-08T03:00:00	8	Radiación solar	0
136297	7	Sololá	719	Santiago Atitlán	14	Cerro de Oro	3	Marzo	2023-10-03T00:00:00	2024-11-08T04:00:00	2	Temperatura media	16.2
136298	7	Sololá	719	Santiago Atitlán	14	Cerro de Oro	3	Marzo	2023-10-03T00:00:00	2024-11-08T04:00:00	4	Temperatura máxima	16.5
136299	7	Sololá	719	Santiago Atitlán	14	Cerro de Oro	3	Marzo	2023-10-03T00:00:00	2024-11-08T04:00:00	3	Temperatura mínima	16.1
136300	7	Sololá	719	Santiago Atitlán	14	Cerro de Oro	3	Marzo	2023-10-03T00:00:00	2024-11-08T04:00:00	5	Humedad	81
136301	7	Sololá	719	Santiago Atitlán	14	Cerro de Oro	3	Marzo	2023-10-03T00:00:00	2024-11-08T04:00:00	6	Velocidad del viento	3.2
136302	7	Sololá	719	Santiago Atitlán	14	Cerro de Oro	3	Marzo	2023-10-03T00:00:00	2024-11-08T04:00:00	7	Dirección del viento	3.22
136303	7	Sololá	719	Santiago Atitlán	14	Cerro de Oro	3	Marzo	2023-10-03T00:00:00	2024-11-08T04:00:00	1	Precipitación	0
136304	7	Sololá	719	Santiago Atitlán	14	Cerro de Oro	3	Marzo	2023-10-03T00:00:00	2024-11-08T04:00:00	8	Radiación solar	0
136305	7	Sololá	719	Santiago Atitlán	14	Cerro de Oro	3	Marzo	2023-10-03T00:00:00	2024-11-08T05:00:00	2	Temperatura media	15.8
136306	7	Sololá	719	Santiago Atitlán	14	Cerro de Oro	3	Marzo	2023-10-03T00:00:00	2024-11-08T05:00:00	4	Temperatura máxima	16.3
136307	7	Sololá	719	Santiago Atitlán	14	Cerro de Oro	3	Marzo	2023-10-03T00:00:00	2024-11-08T05:00:00	3	Temperatura mínima	15.7
136308	7	Sololá	719	Santiago Atitlán	14	Cerro de Oro	3	Marzo	2023-10-03T00:00:00	2024-11-08T05:00:00	5	Humedad	83
136309	7	Sololá	719	Santiago Atitlán	14	Cerro de Oro	3	Marzo	2023-10-03T00:00:00	2024-11-08T05:00:00	6	Velocidad del viento	3.2
136310	7	Sololá	719	Santiago Atitlán	14	Cerro de Oro	3	Marzo	2023-10-03T00:00:00	2024-11-08T05:00:00	7	Dirección del viento	3.22
136311	7	Sololá	719	Santiago Atitlán	14	Cerro de Oro	3	Marzo	2023-10-03T00:00:00	2024-11-08T05:00:00	1	Precipitación	0
136312	7	Sololá	719	Santiago Atitlán	14	Cerro de Oro	3	Marzo	2023-10-03T00:00:00	2024-11-08T05:00:00	8	Radiación solar	0
136313	7	Sololá	719	Santiago Atitlán	14	Cerro de Oro	3	Marzo	2023-10-03T00:00:00	2024-11-08T06:00:00	2	Temperatura media	15.7
136314	7	Sololá	719	Santiago Atitlán	14	Cerro de Oro	3	Marzo	2023-10-03T00:00:00	2024-11-08T06:00:00	4	Temperatura máxima	16.3
136315	7	Sololá	719	Santiago Atitlán	14	Cerro de Oro	3	Marzo	2023-10-03T00:00:00	2024-11-08T06:00:00	3	Temperatura mínima	15.6
136316	7	Sololá	719	Santiago Atitlán	14	Cerro de Oro	3	Marzo	2023-10-03T00:00:00	2024-11-08T06:00:00	5	Humedad	84
136317	7	Sololá	719	Santiago Atitlán	14	Cerro de Oro	3	Marzo	2023-10-03T00:00:00	2024-11-08T06:00:00	6	Velocidad del viento	4.8
136318	7	Sololá	719	Santiago Atitlán	14	Cerro de Oro	3	Marzo	2023-10-03T00:00:00	2024-11-08T06:00:00	7	Dirección del viento	4.83
136319	7	Sololá	719	Santiago Atitlán	14	Cerro de Oro	3	Marzo	2023-10-03T00:00:00	2024-11-08T06:00:00	1	Precipitación	0
136320	7	Sololá	719	Santiago Atitlán	14	Cerro de Oro	3	Marzo	2023-10-03T00:00:00	2024-11-08T06:00:00	8	Radiación solar	0
136321	7	Sololá	719	Santiago Atitlán	14	Cerro de Oro	3	Marzo	2023-10-03T00:00:00	2024-11-08T07:00:00	2	Temperatura media	16.8
136322	7	Sololá	719	Santiago Atitlán	14	Cerro de Oro	3	Marzo	2023-10-03T00:00:00	2024-11-08T07:00:00	4	Temperatura máxima	16.8
136323	7	Sololá	719	Santiago Atitlán	14	Cerro de Oro	3	Marzo	2023-10-03T00:00:00	2024-11-08T07:00:00	3	Temperatura mínima	15.7
136324	7	Sololá	719	Santiago Atitlán	14	Cerro de Oro	3	Marzo	2023-10-03T00:00:00	2024-11-08T07:00:00	5	Humedad	76
136325	7	Sololá	719	Santiago Atitlán	14	Cerro de Oro	3	Marzo	2023-10-03T00:00:00	2024-11-08T07:00:00	6	Velocidad del viento	3.2
136326	7	Sololá	719	Santiago Atitlán	14	Cerro de Oro	3	Marzo	2023-10-03T00:00:00	2024-11-08T07:00:00	7	Dirección del viento	3.22
136327	7	Sololá	719	Santiago Atitlán	14	Cerro de Oro	3	Marzo	2023-10-03T00:00:00	2024-11-08T07:00:00	1	Precipitación	0
136328	7	Sololá	719	Santiago Atitlán	14	Cerro de Oro	3	Marzo	2023-10-03T00:00:00	2024-11-08T07:00:00	8	Radiación solar	15
136329	7	Sololá	719	Santiago Atitlán	14	Cerro de Oro	3	Marzo	2023-10-03T00:00:00	2024-11-08T08:00:00	2	Temperatura media	18.3
136330	7	Sololá	719	Santiago Atitlán	14	Cerro de Oro	3	Marzo	2023-10-03T00:00:00	2024-11-08T08:00:00	4	Temperatura máxima	18.3
136331	7	Sololá	719	Santiago Atitlán	14	Cerro de Oro	3	Marzo	2023-10-03T00:00:00	2024-11-08T08:00:00	3	Temperatura mínima	16.8
136332	7	Sololá	719	Santiago Atitlán	14	Cerro de Oro	3	Marzo	2023-10-03T00:00:00	2024-11-08T08:00:00	5	Humedad	75
136333	7	Sololá	719	Santiago Atitlán	14	Cerro de Oro	3	Marzo	2023-10-03T00:00:00	2024-11-08T08:00:00	6	Velocidad del viento	1.6
136334	7	Sololá	719	Santiago Atitlán	14	Cerro de Oro	3	Marzo	2023-10-03T00:00:00	2024-11-08T08:00:00	7	Dirección del viento	1.61
136335	7	Sololá	719	Santiago Atitlán	14	Cerro de Oro	3	Marzo	2023-10-03T00:00:00	2024-11-08T08:00:00	1	Precipitación	0
136336	7	Sololá	719	Santiago Atitlán	14	Cerro de Oro	3	Marzo	2023-10-03T00:00:00	2024-11-08T08:00:00	8	Radiación solar	141
136337	7	Sololá	719	Santiago Atitlán	14	Cerro de Oro	3	Marzo	2023-10-03T00:00:00	2024-11-08T09:00:00	2	Temperatura media	18
136338	7	Sololá	719	Santiago Atitlán	14	Cerro de Oro	3	Marzo	2023-10-03T00:00:00	2024-11-08T09:00:00	4	Temperatura máxima	18.3
136339	7	Sololá	719	Santiago Atitlán	14	Cerro de Oro	3	Marzo	2023-10-03T00:00:00	2024-11-08T09:00:00	3	Temperatura mínima	17.9
136340	7	Sololá	719	Santiago Atitlán	14	Cerro de Oro	3	Marzo	2023-10-03T00:00:00	2024-11-08T09:00:00	5	Humedad	74
136341	7	Sololá	719	Santiago Atitlán	14	Cerro de Oro	3	Marzo	2023-10-03T00:00:00	2024-11-08T09:00:00	6	Velocidad del viento	1.6
136342	7	Sololá	719	Santiago Atitlán	14	Cerro de Oro	3	Marzo	2023-10-03T00:00:00	2024-11-08T09:00:00	7	Dirección del viento	1.61
136343	7	Sololá	719	Santiago Atitlán	14	Cerro de Oro	3	Marzo	2023-10-03T00:00:00	2024-11-08T09:00:00	1	Precipitación	0
136344	7	Sololá	719	Santiago Atitlán	14	Cerro de Oro	3	Marzo	2023-10-03T00:00:00	2024-11-08T09:00:00	8	Radiación solar	106
136345	7	Sololá	719	Santiago Atitlán	14	Cerro de Oro	3	Marzo	2023-10-03T00:00:00	2024-11-08T10:00:00	2	Temperatura media	18.8
136346	7	Sololá	719	Santiago Atitlán	14	Cerro de Oro	3	Marzo	2023-10-03T00:00:00	2024-11-08T10:00:00	4	Temperatura máxima	18.9
136347	7	Sololá	719	Santiago Atitlán	14	Cerro de Oro	3	Marzo	2023-10-03T00:00:00	2024-11-08T10:00:00	3	Temperatura mínima	18
136348	7	Sololá	719	Santiago Atitlán	14	Cerro de Oro	3	Marzo	2023-10-03T00:00:00	2024-11-08T10:00:00	5	Humedad	71
136349	7	Sololá	719	Santiago Atitlán	14	Cerro de Oro	3	Marzo	2023-10-03T00:00:00	2024-11-08T10:00:00	6	Velocidad del viento	4.8
136350	7	Sololá	719	Santiago Atitlán	14	Cerro de Oro	3	Marzo	2023-10-03T00:00:00	2024-11-08T10:00:00	7	Dirección del viento	4.83
136351	7	Sololá	719	Santiago Atitlán	14	Cerro de Oro	3	Marzo	2023-10-03T00:00:00	2024-11-08T10:00:00	1	Precipitación	0
136352	7	Sololá	719	Santiago Atitlán	14	Cerro de Oro	3	Marzo	2023-10-03T00:00:00	2024-11-08T10:00:00	8	Radiación solar	216
136353	7	Sololá	719	Santiago Atitlán	14	Cerro de Oro	3	Marzo	2023-10-03T00:00:00	2024-11-08T11:00:00	2	Temperatura media	18.4
136354	7	Sololá	719	Santiago Atitlán	14	Cerro de Oro	3	Marzo	2023-10-03T00:00:00	2024-11-08T11:00:00	4	Temperatura máxima	19.3
136355	7	Sololá	719	Santiago Atitlán	14	Cerro de Oro	3	Marzo	2023-10-03T00:00:00	2024-11-08T11:00:00	3	Temperatura mínima	18.4
136356	7	Sololá	719	Santiago Atitlán	14	Cerro de Oro	3	Marzo	2023-10-03T00:00:00	2024-11-08T11:00:00	5	Humedad	73
136357	7	Sololá	719	Santiago Atitlán	14	Cerro de Oro	3	Marzo	2023-10-03T00:00:00	2024-11-08T11:00:00	6	Velocidad del viento	8
136358	7	Sololá	719	Santiago Atitlán	14	Cerro de Oro	3	Marzo	2023-10-03T00:00:00	2024-11-08T11:00:00	7	Dirección del viento	8.05
136359	7	Sololá	719	Santiago Atitlán	14	Cerro de Oro	3	Marzo	2023-10-03T00:00:00	2024-11-08T11:00:00	1	Precipitación	0
136360	7	Sololá	719	Santiago Atitlán	14	Cerro de Oro	3	Marzo	2023-10-03T00:00:00	2024-11-08T11:00:00	8	Radiación solar	228
136361	7	Sololá	719	Santiago Atitlán	14	Cerro de Oro	3	Marzo	2023-10-03T00:00:00	2024-11-08T12:00:00	2	Temperatura media	18.8
136362	7	Sololá	719	Santiago Atitlán	14	Cerro de Oro	3	Marzo	2023-10-03T00:00:00	2024-11-08T12:00:00	4	Temperatura máxima	18.8
136363	7	Sololá	719	Santiago Atitlán	14	Cerro de Oro	3	Marzo	2023-10-03T00:00:00	2024-11-08T12:00:00	3	Temperatura mínima	17.9
136364	7	Sololá	719	Santiago Atitlán	14	Cerro de Oro	3	Marzo	2023-10-03T00:00:00	2024-11-08T12:00:00	5	Humedad	76
136365	7	Sololá	719	Santiago Atitlán	14	Cerro de Oro	3	Marzo	2023-10-03T00:00:00	2024-11-08T12:00:00	6	Velocidad del viento	9.7
136366	7	Sololá	719	Santiago Atitlán	14	Cerro de Oro	3	Marzo	2023-10-03T00:00:00	2024-11-08T12:00:00	7	Dirección del viento	9.66
136367	7	Sololá	719	Santiago Atitlán	14	Cerro de Oro	3	Marzo	2023-10-03T00:00:00	2024-11-08T12:00:00	1	Precipitación	0
136368	7	Sololá	719	Santiago Atitlán	14	Cerro de Oro	3	Marzo	2023-10-03T00:00:00	2024-11-08T12:00:00	8	Radiación solar	172
136369	7	Sololá	719	Santiago Atitlán	14	Cerro de Oro	3	Marzo	2023-10-03T00:00:00	2024-11-08T13:00:00	2	Temperatura media	19.2
136370	7	Sololá	719	Santiago Atitlán	14	Cerro de Oro	3	Marzo	2023-10-03T00:00:00	2024-11-08T13:00:00	4	Temperatura máxima	20
136371	7	Sololá	719	Santiago Atitlán	14	Cerro de Oro	3	Marzo	2023-10-03T00:00:00	2024-11-08T13:00:00	3	Temperatura mínima	18.8
136372	7	Sololá	719	Santiago Atitlán	14	Cerro de Oro	3	Marzo	2023-10-03T00:00:00	2024-11-08T13:00:00	5	Humedad	74
136373	7	Sololá	719	Santiago Atitlán	14	Cerro de Oro	3	Marzo	2023-10-03T00:00:00	2024-11-08T13:00:00	6	Velocidad del viento	6.4
136374	7	Sololá	719	Santiago Atitlán	14	Cerro de Oro	3	Marzo	2023-10-03T00:00:00	2024-11-08T13:00:00	7	Dirección del viento	6.44
136375	7	Sololá	719	Santiago Atitlán	14	Cerro de Oro	3	Marzo	2023-10-03T00:00:00	2024-11-08T13:00:00	1	Precipitación	0
136376	7	Sololá	719	Santiago Atitlán	14	Cerro de Oro	3	Marzo	2023-10-03T00:00:00	2024-11-08T13:00:00	8	Radiación solar	275
136377	7	Sololá	719	Santiago Atitlán	14	Cerro de Oro	3	Marzo	2023-10-03T00:00:00	2024-11-08T14:00:00	2	Temperatura media	20.2
136378	7	Sololá	719	Santiago Atitlán	14	Cerro de Oro	3	Marzo	2023-10-03T00:00:00	2024-11-08T14:00:00	4	Temperatura máxima	20.8
136379	7	Sololá	719	Santiago Atitlán	14	Cerro de Oro	3	Marzo	2023-10-03T00:00:00	2024-11-08T14:00:00	3	Temperatura mínima	19
136380	7	Sololá	719	Santiago Atitlán	14	Cerro de Oro	3	Marzo	2023-10-03T00:00:00	2024-11-08T14:00:00	5	Humedad	72
136381	7	Sololá	719	Santiago Atitlán	14	Cerro de Oro	3	Marzo	2023-10-03T00:00:00	2024-11-08T14:00:00	6	Velocidad del viento	6.4
136382	7	Sololá	719	Santiago Atitlán	14	Cerro de Oro	3	Marzo	2023-10-03T00:00:00	2024-11-08T14:00:00	7	Dirección del viento	6.44
136383	7	Sololá	719	Santiago Atitlán	14	Cerro de Oro	3	Marzo	2023-10-03T00:00:00	2024-11-08T14:00:00	1	Precipitación	0
136384	7	Sololá	719	Santiago Atitlán	14	Cerro de Oro	3	Marzo	2023-10-03T00:00:00	2024-11-08T14:00:00	8	Radiación solar	445
136385	7	Sololá	719	Santiago Atitlán	14	Cerro de Oro	3	Marzo	2023-10-03T00:00:00	2024-11-08T15:00:00	2	Temperatura media	20.3
136386	7	Sololá	719	Santiago Atitlán	14	Cerro de Oro	3	Marzo	2023-10-03T00:00:00	2024-11-08T15:00:00	4	Temperatura máxima	20.6
136387	7	Sololá	719	Santiago Atitlán	14	Cerro de Oro	3	Marzo	2023-10-03T00:00:00	2024-11-08T15:00:00	3	Temperatura mínima	19.7
136388	7	Sololá	719	Santiago Atitlán	14	Cerro de Oro	3	Marzo	2023-10-03T00:00:00	2024-11-08T15:00:00	5	Humedad	75
136389	7	Sololá	719	Santiago Atitlán	14	Cerro de Oro	3	Marzo	2023-10-03T00:00:00	2024-11-08T15:00:00	6	Velocidad del viento	6.4
136390	7	Sololá	719	Santiago Atitlán	14	Cerro de Oro	3	Marzo	2023-10-03T00:00:00	2024-11-08T15:00:00	7	Dirección del viento	6.44
136391	7	Sololá	719	Santiago Atitlán	14	Cerro de Oro	3	Marzo	2023-10-03T00:00:00	2024-11-08T15:00:00	1	Precipitación	0
136392	7	Sololá	719	Santiago Atitlán	14	Cerro de Oro	3	Marzo	2023-10-03T00:00:00	2024-11-08T15:00:00	8	Radiación solar	321
136393	7	Sololá	719	Santiago Atitlán	14	Cerro de Oro	3	Marzo	2023-10-03T00:00:00	2024-11-08T16:00:00	2	Temperatura media	19.9
136394	7	Sololá	719	Santiago Atitlán	14	Cerro de Oro	3	Marzo	2023-10-03T00:00:00	2024-11-08T16:00:00	4	Temperatura máxima	20.3
136395	7	Sololá	719	Santiago Atitlán	14	Cerro de Oro	3	Marzo	2023-10-03T00:00:00	2024-11-08T16:00:00	3	Temperatura mínima	19.4
136396	7	Sololá	719	Santiago Atitlán	14	Cerro de Oro	3	Marzo	2023-10-03T00:00:00	2024-11-08T16:00:00	5	Humedad	75
136397	7	Sololá	719	Santiago Atitlán	14	Cerro de Oro	3	Marzo	2023-10-03T00:00:00	2024-11-08T16:00:00	6	Velocidad del viento	8
136398	7	Sololá	719	Santiago Atitlán	14	Cerro de Oro	3	Marzo	2023-10-03T00:00:00	2024-11-08T16:00:00	7	Dirección del viento	8.05
136399	7	Sololá	719	Santiago Atitlán	14	Cerro de Oro	3	Marzo	2023-10-03T00:00:00	2024-11-08T16:00:00	1	Precipitación	0
136400	7	Sololá	719	Santiago Atitlán	14	Cerro de Oro	3	Marzo	2023-10-03T00:00:00	2024-11-08T16:00:00	8	Radiación solar	204
136401	7	Sololá	719	Santiago Atitlán	14	Cerro de Oro	3	Marzo	2023-10-03T00:00:00	2024-11-08T17:00:00	2	Temperatura media	19.4
136402	7	Sololá	719	Santiago Atitlán	14	Cerro de Oro	3	Marzo	2023-10-03T00:00:00	2024-11-08T17:00:00	4	Temperatura máxima	19.9
136403	7	Sololá	719	Santiago Atitlán	14	Cerro de Oro	3	Marzo	2023-10-03T00:00:00	2024-11-08T17:00:00	3	Temperatura mínima	19.3
136404	7	Sololá	719	Santiago Atitlán	14	Cerro de Oro	3	Marzo	2023-10-03T00:00:00	2024-11-08T17:00:00	5	Humedad	79
136405	7	Sololá	719	Santiago Atitlán	14	Cerro de Oro	3	Marzo	2023-10-03T00:00:00	2024-11-08T17:00:00	6	Velocidad del viento	4.8
136406	7	Sololá	719	Santiago Atitlán	14	Cerro de Oro	3	Marzo	2023-10-03T00:00:00	2024-11-08T17:00:00	7	Dirección del viento	4.83
136407	7	Sololá	719	Santiago Atitlán	14	Cerro de Oro	3	Marzo	2023-10-03T00:00:00	2024-11-08T17:00:00	1	Precipitación	0
136408	7	Sololá	719	Santiago Atitlán	14	Cerro de Oro	3	Marzo	2023-10-03T00:00:00	2024-11-08T17:00:00	8	Radiación solar	109
136409	7	Sololá	719	Santiago Atitlán	14	Cerro de Oro	3	Marzo	2023-10-03T00:00:00	2024-11-08T18:00:00	2	Temperatura media	18.9
136410	7	Sololá	719	Santiago Atitlán	14	Cerro de Oro	3	Marzo	2023-10-03T00:00:00	2024-11-08T18:00:00	4	Temperatura máxima	19.5
136411	7	Sololá	719	Santiago Atitlán	14	Cerro de Oro	3	Marzo	2023-10-03T00:00:00	2024-11-08T18:00:00	3	Temperatura mínima	18.9
136412	7	Sololá	719	Santiago Atitlán	14	Cerro de Oro	3	Marzo	2023-10-03T00:00:00	2024-11-08T18:00:00	5	Humedad	82
136413	7	Sololá	719	Santiago Atitlán	14	Cerro de Oro	3	Marzo	2023-10-03T00:00:00	2024-11-08T18:00:00	6	Velocidad del viento	3.2
136414	7	Sololá	719	Santiago Atitlán	14	Cerro de Oro	3	Marzo	2023-10-03T00:00:00	2024-11-08T18:00:00	7	Dirección del viento	3.22
136415	7	Sololá	719	Santiago Atitlán	14	Cerro de Oro	3	Marzo	2023-10-03T00:00:00	2024-11-08T18:00:00	1	Precipitación	0
136416	7	Sololá	719	Santiago Atitlán	14	Cerro de Oro	3	Marzo	2023-10-03T00:00:00	2024-11-08T18:00:00	8	Radiación solar	46
136417	7	Sololá	719	Santiago Atitlán	14	Cerro de Oro	3	Marzo	2023-10-03T00:00:00	2024-11-08T19:00:00	2	Temperatura media	17.6
136418	7	Sololá	719	Santiago Atitlán	14	Cerro de Oro	3	Marzo	2023-10-03T00:00:00	2024-11-08T19:00:00	4	Temperatura máxima	18.9
136419	7	Sololá	719	Santiago Atitlán	14	Cerro de Oro	3	Marzo	2023-10-03T00:00:00	2024-11-08T19:00:00	3	Temperatura mínima	17.6
136420	7	Sololá	719	Santiago Atitlán	14	Cerro de Oro	3	Marzo	2023-10-03T00:00:00	2024-11-08T19:00:00	5	Humedad	82
136421	7	Sololá	719	Santiago Atitlán	14	Cerro de Oro	3	Marzo	2023-10-03T00:00:00	2024-11-08T19:00:00	6	Velocidad del viento	3.2
136422	7	Sololá	719	Santiago Atitlán	14	Cerro de Oro	3	Marzo	2023-10-03T00:00:00	2024-11-08T19:00:00	7	Dirección del viento	3.22
136423	7	Sololá	719	Santiago Atitlán	14	Cerro de Oro	3	Marzo	2023-10-03T00:00:00	2024-11-08T19:00:00	1	Precipitación	0
136424	7	Sololá	719	Santiago Atitlán	14	Cerro de Oro	3	Marzo	2023-10-03T00:00:00	2024-11-08T19:00:00	8	Radiación solar	0
136425	7	Sololá	719	Santiago Atitlán	14	Cerro de Oro	3	Marzo	2023-10-03T00:00:00	2024-11-08T20:00:00	2	Temperatura media	17.4
136426	7	Sololá	719	Santiago Atitlán	14	Cerro de Oro	3	Marzo	2023-10-03T00:00:00	2024-11-08T20:00:00	4	Temperatura máxima	17.6
136427	7	Sololá	719	Santiago Atitlán	14	Cerro de Oro	3	Marzo	2023-10-03T00:00:00	2024-11-08T20:00:00	3	Temperatura mínima	17.2
136428	7	Sololá	719	Santiago Atitlán	14	Cerro de Oro	3	Marzo	2023-10-03T00:00:00	2024-11-08T20:00:00	5	Humedad	83
136429	7	Sololá	719	Santiago Atitlán	14	Cerro de Oro	3	Marzo	2023-10-03T00:00:00	2024-11-08T20:00:00	6	Velocidad del viento	4.8
136430	7	Sololá	719	Santiago Atitlán	14	Cerro de Oro	3	Marzo	2023-10-03T00:00:00	2024-11-08T20:00:00	7	Dirección del viento	4.83
136431	7	Sololá	719	Santiago Atitlán	14	Cerro de Oro	3	Marzo	2023-10-03T00:00:00	2024-11-08T20:00:00	1	Precipitación	0
136432	7	Sololá	719	Santiago Atitlán	14	Cerro de Oro	3	Marzo	2023-10-03T00:00:00	2024-11-08T20:00:00	8	Radiación solar	0
136433	7	Sololá	719	Santiago Atitlán	14	Cerro de Oro	3	Marzo	2023-10-03T00:00:00	2024-11-08T21:00:00	2	Temperatura media	17.2
136434	7	Sololá	719	Santiago Atitlán	14	Cerro de Oro	3	Marzo	2023-10-03T00:00:00	2024-11-08T21:00:00	4	Temperatura máxima	17.6
136435	7	Sololá	719	Santiago Atitlán	14	Cerro de Oro	3	Marzo	2023-10-03T00:00:00	2024-11-08T21:00:00	3	Temperatura mínima	17.1
136436	7	Sololá	719	Santiago Atitlán	14	Cerro de Oro	3	Marzo	2023-10-03T00:00:00	2024-11-08T21:00:00	5	Humedad	85
136437	7	Sololá	719	Santiago Atitlán	14	Cerro de Oro	3	Marzo	2023-10-03T00:00:00	2024-11-08T21:00:00	6	Velocidad del viento	3.2
136438	7	Sololá	719	Santiago Atitlán	14	Cerro de Oro	3	Marzo	2023-10-03T00:00:00	2024-11-08T21:00:00	7	Dirección del viento	3.22
136439	7	Sololá	719	Santiago Atitlán	14	Cerro de Oro	3	Marzo	2023-10-03T00:00:00	2024-11-08T21:00:00	1	Precipitación	0
136440	7	Sololá	719	Santiago Atitlán	14	Cerro de Oro	3	Marzo	2023-10-03T00:00:00	2024-11-08T21:00:00	8	Radiación solar	0
136441	7	Sololá	719	Santiago Atitlán	14	Cerro de Oro	3	Marzo	2023-10-03T00:00:00	2024-11-08T22:00:00	2	Temperatura media	17.3
136442	7	Sololá	719	Santiago Atitlán	14	Cerro de Oro	3	Marzo	2023-10-03T00:00:00	2024-11-08T22:00:00	4	Temperatura máxima	17.5
136443	7	Sololá	719	Santiago Atitlán	14	Cerro de Oro	3	Marzo	2023-10-03T00:00:00	2024-11-08T22:00:00	3	Temperatura mínima	17.1
136444	7	Sololá	719	Santiago Atitlán	14	Cerro de Oro	3	Marzo	2023-10-03T00:00:00	2024-11-08T22:00:00	5	Humedad	87
136445	7	Sololá	719	Santiago Atitlán	14	Cerro de Oro	3	Marzo	2023-10-03T00:00:00	2024-11-08T22:00:00	6	Velocidad del viento	3.2
136446	7	Sololá	719	Santiago Atitlán	14	Cerro de Oro	3	Marzo	2023-10-03T00:00:00	2024-11-08T22:00:00	7	Dirección del viento	3.22
136447	7	Sololá	719	Santiago Atitlán	14	Cerro de Oro	3	Marzo	2023-10-03T00:00:00	2024-11-08T22:00:00	1	Precipitación	0
136448	7	Sololá	719	Santiago Atitlán	14	Cerro de Oro	3	Marzo	2023-10-03T00:00:00	2024-11-08T22:00:00	8	Radiación solar	0
136449	7	Sololá	719	Santiago Atitlán	14	Cerro de Oro	3	Marzo	2023-10-03T00:00:00	2024-11-08T23:00:00	2	Temperatura media	16.9
136450	7	Sololá	719	Santiago Atitlán	14	Cerro de Oro	3	Marzo	2023-10-03T00:00:00	2024-11-08T23:00:00	4	Temperatura máxima	17.3
136451	7	Sololá	719	Santiago Atitlán	14	Cerro de Oro	3	Marzo	2023-10-03T00:00:00	2024-11-08T23:00:00	3	Temperatura mínima	16.5
136452	7	Sololá	719	Santiago Atitlán	14	Cerro de Oro	3	Marzo	2023-10-03T00:00:00	2024-11-08T23:00:00	5	Humedad	86
136453	7	Sololá	719	Santiago Atitlán	14	Cerro de Oro	3	Marzo	2023-10-03T00:00:00	2024-11-08T23:00:00	6	Velocidad del viento	3.2
136454	7	Sololá	719	Santiago Atitlán	14	Cerro de Oro	3	Marzo	2023-10-03T00:00:00	2024-11-08T23:00:00	7	Dirección del viento	3.22
136455	7	Sololá	719	Santiago Atitlán	14	Cerro de Oro	3	Marzo	2023-10-03T00:00:00	2024-11-08T23:00:00	1	Precipitación	0
136456	7	Sololá	719	Santiago Atitlán	14	Cerro de Oro	3	Marzo	2023-10-03T00:00:00	2024-11-08T23:00:00	8	Radiación solar	0
136457	7	Sololá	719	Santiago Atitlán	14	Cerro de Oro	3	Marzo	2023-11-03T00:00:00	2024-11-08T00:00:00	2	Temperatura media	17.2
136458	7	Sololá	719	Santiago Atitlán	14	Cerro de Oro	3	Marzo	2023-11-03T00:00:00	2024-11-08T00:00:00	4	Temperatura máxima	17.2
136459	7	Sololá	719	Santiago Atitlán	14	Cerro de Oro	3	Marzo	2023-11-03T00:00:00	2024-11-08T00:00:00	3	Temperatura mínima	16.8
136460	7	Sololá	719	Santiago Atitlán	14	Cerro de Oro	3	Marzo	2023-11-03T00:00:00	2024-11-08T00:00:00	5	Humedad	85
136461	7	Sololá	719	Santiago Atitlán	14	Cerro de Oro	3	Marzo	2023-11-03T00:00:00	2024-11-08T00:00:00	6	Velocidad del viento	3.2
136462	7	Sololá	719	Santiago Atitlán	14	Cerro de Oro	3	Marzo	2023-11-03T00:00:00	2024-11-08T00:00:00	7	Dirección del viento	3.22
136463	7	Sololá	719	Santiago Atitlán	14	Cerro de Oro	3	Marzo	2023-11-03T00:00:00	2024-11-08T00:00:00	1	Precipitación	0
136464	7	Sololá	719	Santiago Atitlán	14	Cerro de Oro	3	Marzo	2023-11-03T00:00:00	2024-11-08T00:00:00	8	Radiación solar	0
136465	7	Sololá	719	Santiago Atitlán	14	Cerro de Oro	3	Marzo	2023-11-03T00:00:00	2024-11-08T01:00:00	2	Temperatura media	17.2
136466	7	Sololá	719	Santiago Atitlán	14	Cerro de Oro	3	Marzo	2023-11-03T00:00:00	2024-11-08T01:00:00	4	Temperatura máxima	17.2
136467	7	Sololá	719	Santiago Atitlán	14	Cerro de Oro	3	Marzo	2023-11-03T00:00:00	2024-11-08T01:00:00	3	Temperatura mínima	16.9
136468	7	Sololá	719	Santiago Atitlán	14	Cerro de Oro	3	Marzo	2023-11-03T00:00:00	2024-11-08T01:00:00	5	Humedad	86
136469	7	Sololá	719	Santiago Atitlán	14	Cerro de Oro	3	Marzo	2023-11-03T00:00:00	2024-11-08T01:00:00	6	Velocidad del viento	4.8
136470	7	Sololá	719	Santiago Atitlán	14	Cerro de Oro	3	Marzo	2023-11-03T00:00:00	2024-11-08T01:00:00	7	Dirección del viento	4.83
136471	7	Sololá	719	Santiago Atitlán	14	Cerro de Oro	3	Marzo	2023-11-03T00:00:00	2024-11-08T01:00:00	1	Precipitación	0
136472	7	Sololá	719	Santiago Atitlán	14	Cerro de Oro	3	Marzo	2023-11-03T00:00:00	2024-11-08T01:00:00	8	Radiación solar	0
136473	7	Sololá	719	Santiago Atitlán	14	Cerro de Oro	3	Marzo	2023-11-03T00:00:00	2024-11-08T02:00:00	2	Temperatura media	16.6
136474	7	Sololá	719	Santiago Atitlán	14	Cerro de Oro	3	Marzo	2023-11-03T00:00:00	2024-11-08T02:00:00	4	Temperatura máxima	17.3
136475	7	Sololá	719	Santiago Atitlán	14	Cerro de Oro	3	Marzo	2023-11-03T00:00:00	2024-11-08T02:00:00	3	Temperatura mínima	16.6
136476	7	Sololá	719	Santiago Atitlán	14	Cerro de Oro	3	Marzo	2023-11-03T00:00:00	2024-11-08T02:00:00	5	Humedad	87
136477	7	Sololá	719	Santiago Atitlán	14	Cerro de Oro	3	Marzo	2023-11-03T00:00:00	2024-11-08T02:00:00	6	Velocidad del viento	3.2
136478	7	Sololá	719	Santiago Atitlán	14	Cerro de Oro	3	Marzo	2023-11-03T00:00:00	2024-11-08T02:00:00	7	Dirección del viento	3.22
136479	7	Sololá	719	Santiago Atitlán	14	Cerro de Oro	3	Marzo	2023-11-03T00:00:00	2024-11-08T02:00:00	1	Precipitación	0
136480	7	Sololá	719	Santiago Atitlán	14	Cerro de Oro	3	Marzo	2023-11-03T00:00:00	2024-11-08T02:00:00	8	Radiación solar	0
136481	7	Sololá	719	Santiago Atitlán	14	Cerro de Oro	3	Marzo	2023-11-03T00:00:00	2024-11-08T03:00:00	2	Temperatura media	16.5
136482	7	Sololá	719	Santiago Atitlán	14	Cerro de Oro	3	Marzo	2023-11-03T00:00:00	2024-11-08T03:00:00	4	Temperatura máxima	16.8
136483	7	Sololá	719	Santiago Atitlán	14	Cerro de Oro	3	Marzo	2023-11-03T00:00:00	2024-11-08T03:00:00	3	Temperatura mínima	16.3
136484	7	Sololá	719	Santiago Atitlán	14	Cerro de Oro	3	Marzo	2023-11-03T00:00:00	2024-11-08T03:00:00	5	Humedad	86
136485	7	Sololá	719	Santiago Atitlán	14	Cerro de Oro	3	Marzo	2023-11-03T00:00:00	2024-11-08T03:00:00	6	Velocidad del viento	4.8
136486	7	Sololá	719	Santiago Atitlán	14	Cerro de Oro	3	Marzo	2023-11-03T00:00:00	2024-11-08T03:00:00	7	Dirección del viento	4.83
136487	7	Sololá	719	Santiago Atitlán	14	Cerro de Oro	3	Marzo	2023-11-03T00:00:00	2024-11-08T03:00:00	1	Precipitación	0
136488	7	Sololá	719	Santiago Atitlán	14	Cerro de Oro	3	Marzo	2023-11-03T00:00:00	2024-11-08T03:00:00	8	Radiación solar	0
136489	7	Sololá	719	Santiago Atitlán	14	Cerro de Oro	3	Marzo	2023-11-03T00:00:00	2024-11-08T04:00:00	2	Temperatura media	15.7
136490	7	Sololá	719	Santiago Atitlán	14	Cerro de Oro	3	Marzo	2023-11-03T00:00:00	2024-11-08T04:00:00	4	Temperatura máxima	16.8
136491	7	Sololá	719	Santiago Atitlán	14	Cerro de Oro	3	Marzo	2023-11-03T00:00:00	2024-11-08T04:00:00	3	Temperatura mínima	15.6
136492	7	Sololá	719	Santiago Atitlán	14	Cerro de Oro	3	Marzo	2023-11-03T00:00:00	2024-11-08T04:00:00	5	Humedad	88
136493	7	Sololá	719	Santiago Atitlán	14	Cerro de Oro	3	Marzo	2023-11-03T00:00:00	2024-11-08T04:00:00	6	Velocidad del viento	4.8
136494	7	Sololá	719	Santiago Atitlán	14	Cerro de Oro	3	Marzo	2023-11-03T00:00:00	2024-11-08T04:00:00	7	Dirección del viento	4.83
136495	7	Sololá	719	Santiago Atitlán	14	Cerro de Oro	3	Marzo	2023-11-03T00:00:00	2024-11-08T04:00:00	1	Precipitación	0
136496	7	Sololá	719	Santiago Atitlán	14	Cerro de Oro	3	Marzo	2023-11-03T00:00:00	2024-11-08T04:00:00	8	Radiación solar	0
136497	7	Sololá	719	Santiago Atitlán	14	Cerro de Oro	3	Marzo	2023-11-03T00:00:00	2024-11-08T05:00:00	2	Temperatura media	15.9
136498	7	Sololá	719	Santiago Atitlán	14	Cerro de Oro	3	Marzo	2023-11-03T00:00:00	2024-11-08T05:00:00	4	Temperatura máxima	16.1
136499	7	Sololá	719	Santiago Atitlán	14	Cerro de Oro	3	Marzo	2023-11-03T00:00:00	2024-11-08T05:00:00	3	Temperatura mínima	15.4
136500	7	Sololá	719	Santiago Atitlán	14	Cerro de Oro	3	Marzo	2023-11-03T00:00:00	2024-11-08T05:00:00	5	Humedad	87
136501	7	Sololá	719	Santiago Atitlán	14	Cerro de Oro	3	Marzo	2023-11-03T00:00:00	2024-11-08T05:00:00	6	Velocidad del viento	4.8
136502	7	Sololá	719	Santiago Atitlán	14	Cerro de Oro	3	Marzo	2023-11-03T00:00:00	2024-11-08T05:00:00	7	Dirección del viento	4.83
136503	7	Sololá	719	Santiago Atitlán	14	Cerro de Oro	3	Marzo	2023-11-03T00:00:00	2024-11-08T05:00:00	1	Precipitación	0
136504	7	Sololá	719	Santiago Atitlán	14	Cerro de Oro	3	Marzo	2023-11-03T00:00:00	2024-11-08T05:00:00	8	Radiación solar	0
136505	7	Sololá	719	Santiago Atitlán	14	Cerro de Oro	3	Marzo	2023-11-03T00:00:00	2024-11-08T06:00:00	2	Temperatura media	15.9
136506	7	Sololá	719	Santiago Atitlán	14	Cerro de Oro	3	Marzo	2023-11-03T00:00:00	2024-11-08T06:00:00	4	Temperatura máxima	16.7
136507	7	Sololá	719	Santiago Atitlán	14	Cerro de Oro	3	Marzo	2023-11-03T00:00:00	2024-11-08T06:00:00	3	Temperatura mínima	15.9
136508	7	Sololá	719	Santiago Atitlán	14	Cerro de Oro	3	Marzo	2023-11-03T00:00:00	2024-11-08T06:00:00	5	Humedad	86
136509	7	Sololá	719	Santiago Atitlán	14	Cerro de Oro	3	Marzo	2023-11-03T00:00:00	2024-11-08T06:00:00	6	Velocidad del viento	3.2
136510	7	Sololá	719	Santiago Atitlán	14	Cerro de Oro	3	Marzo	2023-11-03T00:00:00	2024-11-08T06:00:00	7	Dirección del viento	3.22
136511	7	Sololá	719	Santiago Atitlán	14	Cerro de Oro	3	Marzo	2023-11-03T00:00:00	2024-11-08T06:00:00	1	Precipitación	0
136512	7	Sololá	719	Santiago Atitlán	14	Cerro de Oro	3	Marzo	2023-11-03T00:00:00	2024-11-08T06:00:00	8	Radiación solar	0
136513	7	Sololá	719	Santiago Atitlán	14	Cerro de Oro	3	Marzo	2023-11-03T00:00:00	2024-11-08T07:00:00	2	Temperatura media	16.2
136514	7	Sololá	719	Santiago Atitlán	14	Cerro de Oro	3	Marzo	2023-11-03T00:00:00	2024-11-08T07:00:00	4	Temperatura máxima	16.2
136515	7	Sololá	719	Santiago Atitlán	14	Cerro de Oro	3	Marzo	2023-11-03T00:00:00	2024-11-08T07:00:00	3	Temperatura mínima	15.5
136516	7	Sololá	719	Santiago Atitlán	14	Cerro de Oro	3	Marzo	2023-11-03T00:00:00	2024-11-08T07:00:00	5	Humedad	86
136517	7	Sololá	719	Santiago Atitlán	14	Cerro de Oro	3	Marzo	2023-11-03T00:00:00	2024-11-08T07:00:00	6	Velocidad del viento	4.8
136518	7	Sololá	719	Santiago Atitlán	14	Cerro de Oro	3	Marzo	2023-11-03T00:00:00	2024-11-08T07:00:00	7	Dirección del viento	4.83
136519	7	Sololá	719	Santiago Atitlán	14	Cerro de Oro	3	Marzo	2023-11-03T00:00:00	2024-11-08T07:00:00	1	Precipitación	0
136520	7	Sololá	719	Santiago Atitlán	14	Cerro de Oro	3	Marzo	2023-11-03T00:00:00	2024-11-08T07:00:00	8	Radiación solar	16
136521	7	Sololá	719	Santiago Atitlán	14	Cerro de Oro	3	Marzo	2023-11-03T00:00:00	2024-11-08T08:00:00	2	Temperatura media	17.4
136522	7	Sololá	719	Santiago Atitlán	14	Cerro de Oro	3	Marzo	2023-11-03T00:00:00	2024-11-08T08:00:00	4	Temperatura máxima	17.4
136523	7	Sololá	719	Santiago Atitlán	14	Cerro de Oro	3	Marzo	2023-11-03T00:00:00	2024-11-08T08:00:00	3	Temperatura mínima	16.2
136524	7	Sololá	719	Santiago Atitlán	14	Cerro de Oro	3	Marzo	2023-11-03T00:00:00	2024-11-08T08:00:00	5	Humedad	81
136525	7	Sololá	719	Santiago Atitlán	14	Cerro de Oro	3	Marzo	2023-11-03T00:00:00	2024-11-08T08:00:00	6	Velocidad del viento	3.2
136526	7	Sololá	719	Santiago Atitlán	14	Cerro de Oro	3	Marzo	2023-11-03T00:00:00	2024-11-08T08:00:00	7	Dirección del viento	3.22
136527	7	Sololá	719	Santiago Atitlán	14	Cerro de Oro	3	Marzo	2023-11-03T00:00:00	2024-11-08T08:00:00	1	Precipitación	0
136528	7	Sololá	719	Santiago Atitlán	14	Cerro de Oro	3	Marzo	2023-11-03T00:00:00	2024-11-08T08:00:00	8	Radiación solar	64
136529	7	Sololá	719	Santiago Atitlán	14	Cerro de Oro	3	Marzo	2023-11-03T00:00:00	2024-11-08T09:00:00	2	Temperatura media	18.6
136530	7	Sololá	719	Santiago Atitlán	14	Cerro de Oro	3	Marzo	2023-11-03T00:00:00	2024-11-08T09:00:00	4	Temperatura máxima	18.9
136531	7	Sololá	719	Santiago Atitlán	14	Cerro de Oro	3	Marzo	2023-11-03T00:00:00	2024-11-08T09:00:00	3	Temperatura mínima	17.4
136532	7	Sololá	719	Santiago Atitlán	14	Cerro de Oro	3	Marzo	2023-11-03T00:00:00	2024-11-08T09:00:00	5	Humedad	79
136533	7	Sololá	719	Santiago Atitlán	14	Cerro de Oro	3	Marzo	2023-11-03T00:00:00	2024-11-08T09:00:00	6	Velocidad del viento	4.8
136534	7	Sololá	719	Santiago Atitlán	14	Cerro de Oro	3	Marzo	2023-11-03T00:00:00	2024-11-08T09:00:00	7	Dirección del viento	4.83
136535	7	Sololá	719	Santiago Atitlán	14	Cerro de Oro	3	Marzo	2023-11-03T00:00:00	2024-11-08T09:00:00	1	Precipitación	0
136536	7	Sololá	719	Santiago Atitlán	14	Cerro de Oro	3	Marzo	2023-11-03T00:00:00	2024-11-08T09:00:00	8	Radiación solar	250
136537	7	Sololá	719	Santiago Atitlán	14	Cerro de Oro	3	Marzo	2023-11-03T00:00:00	2024-11-08T10:00:00	2	Temperatura media	19.1
136538	7	Sololá	719	Santiago Atitlán	14	Cerro de Oro	3	Marzo	2023-11-03T00:00:00	2024-11-08T10:00:00	4	Temperatura máxima	19.1
136539	7	Sololá	719	Santiago Atitlán	14	Cerro de Oro	3	Marzo	2023-11-03T00:00:00	2024-11-08T10:00:00	3	Temperatura mínima	18.1
136540	7	Sololá	719	Santiago Atitlán	14	Cerro de Oro	3	Marzo	2023-11-03T00:00:00	2024-11-08T10:00:00	5	Humedad	76
136541	7	Sololá	719	Santiago Atitlán	14	Cerro de Oro	3	Marzo	2023-11-03T00:00:00	2024-11-08T10:00:00	6	Velocidad del viento	9.7
136542	7	Sololá	719	Santiago Atitlán	14	Cerro de Oro	3	Marzo	2023-11-03T00:00:00	2024-11-08T10:00:00	7	Dirección del viento	9.66
136543	7	Sololá	719	Santiago Atitlán	14	Cerro de Oro	3	Marzo	2023-11-03T00:00:00	2024-11-08T10:00:00	1	Precipitación	0
136544	7	Sololá	719	Santiago Atitlán	14	Cerro de Oro	3	Marzo	2023-11-03T00:00:00	2024-11-08T10:00:00	8	Radiación solar	292
136545	7	Sololá	719	Santiago Atitlán	14	Cerro de Oro	3	Marzo	2023-11-03T00:00:00	2024-11-08T11:00:00	2	Temperatura media	19.7
136546	7	Sololá	719	Santiago Atitlán	14	Cerro de Oro	3	Marzo	2023-11-03T00:00:00	2024-11-08T11:00:00	4	Temperatura máxima	20.6
136547	7	Sololá	719	Santiago Atitlán	14	Cerro de Oro	3	Marzo	2023-11-03T00:00:00	2024-11-08T11:00:00	3	Temperatura mínima	19.1
136548	7	Sololá	719	Santiago Atitlán	14	Cerro de Oro	3	Marzo	2023-11-03T00:00:00	2024-11-08T11:00:00	5	Humedad	74
136549	7	Sololá	719	Santiago Atitlán	14	Cerro de Oro	3	Marzo	2023-11-03T00:00:00	2024-11-08T11:00:00	6	Velocidad del viento	9.7
136550	7	Sololá	719	Santiago Atitlán	14	Cerro de Oro	3	Marzo	2023-11-03T00:00:00	2024-11-08T11:00:00	7	Dirección del viento	9.66
136551	7	Sololá	719	Santiago Atitlán	14	Cerro de Oro	3	Marzo	2023-11-03T00:00:00	2024-11-08T11:00:00	1	Precipitación	0
136552	7	Sololá	719	Santiago Atitlán	14	Cerro de Oro	3	Marzo	2023-11-03T00:00:00	2024-11-08T11:00:00	8	Radiación solar	530
136553	7	Sololá	719	Santiago Atitlán	14	Cerro de Oro	3	Marzo	2023-11-03T00:00:00	2024-11-08T12:00:00	2	Temperatura media	19.5
136554	7	Sololá	719	Santiago Atitlán	14	Cerro de Oro	3	Marzo	2023-11-03T00:00:00	2024-11-08T12:00:00	4	Temperatura máxima	19.9
136555	7	Sololá	719	Santiago Atitlán	14	Cerro de Oro	3	Marzo	2023-11-03T00:00:00	2024-11-08T12:00:00	3	Temperatura mínima	19.1
136556	7	Sololá	719	Santiago Atitlán	14	Cerro de Oro	3	Marzo	2023-11-03T00:00:00	2024-11-08T12:00:00	5	Humedad	75
136557	7	Sololá	719	Santiago Atitlán	14	Cerro de Oro	3	Marzo	2023-11-03T00:00:00	2024-11-08T12:00:00	6	Velocidad del viento	11.3
136558	7	Sololá	719	Santiago Atitlán	14	Cerro de Oro	3	Marzo	2023-11-03T00:00:00	2024-11-08T12:00:00	7	Dirección del viento	11.27
136559	7	Sololá	719	Santiago Atitlán	14	Cerro de Oro	3	Marzo	2023-11-03T00:00:00	2024-11-08T12:00:00	1	Precipitación	0
136560	7	Sololá	719	Santiago Atitlán	14	Cerro de Oro	3	Marzo	2023-11-03T00:00:00	2024-11-08T12:00:00	8	Radiación solar	281
136561	7	Sololá	719	Santiago Atitlán	14	Cerro de Oro	3	Marzo	2023-11-03T00:00:00	2024-11-08T13:00:00	2	Temperatura media	20
136562	7	Sololá	719	Santiago Atitlán	14	Cerro de Oro	3	Marzo	2023-11-03T00:00:00	2024-11-08T13:00:00	4	Temperatura máxima	20.3
136563	7	Sololá	719	Santiago Atitlán	14	Cerro de Oro	3	Marzo	2023-11-03T00:00:00	2024-11-08T13:00:00	3	Temperatura mínima	19.5
136564	7	Sololá	719	Santiago Atitlán	14	Cerro de Oro	3	Marzo	2023-11-03T00:00:00	2024-11-08T13:00:00	5	Humedad	74
136565	7	Sololá	719	Santiago Atitlán	14	Cerro de Oro	3	Marzo	2023-11-03T00:00:00	2024-11-08T13:00:00	6	Velocidad del viento	9.7
136566	7	Sololá	719	Santiago Atitlán	14	Cerro de Oro	3	Marzo	2023-11-03T00:00:00	2024-11-08T13:00:00	7	Dirección del viento	9.66
136567	7	Sololá	719	Santiago Atitlán	14	Cerro de Oro	3	Marzo	2023-11-03T00:00:00	2024-11-08T13:00:00	1	Precipitación	0
136568	7	Sololá	719	Santiago Atitlán	14	Cerro de Oro	3	Marzo	2023-11-03T00:00:00	2024-11-08T13:00:00	8	Radiación solar	245
136569	7	Sololá	719	Santiago Atitlán	14	Cerro de Oro	3	Marzo	2023-11-03T00:00:00	2024-11-08T14:00:00	2	Temperatura media	19.6
136570	7	Sololá	719	Santiago Atitlán	14	Cerro de Oro	3	Marzo	2023-11-03T00:00:00	2024-11-08T14:00:00	4	Temperatura máxima	20
136571	7	Sololá	719	Santiago Atitlán	14	Cerro de Oro	3	Marzo	2023-11-03T00:00:00	2024-11-08T14:00:00	3	Temperatura mínima	19.2
136572	7	Sololá	719	Santiago Atitlán	14	Cerro de Oro	3	Marzo	2023-11-03T00:00:00	2024-11-08T14:00:00	5	Humedad	78
136573	7	Sololá	719	Santiago Atitlán	14	Cerro de Oro	3	Marzo	2023-11-03T00:00:00	2024-11-08T14:00:00	6	Velocidad del viento	11.3
136574	7	Sololá	719	Santiago Atitlán	14	Cerro de Oro	3	Marzo	2023-11-03T00:00:00	2024-11-08T14:00:00	7	Dirección del viento	11.27
136575	7	Sololá	719	Santiago Atitlán	14	Cerro de Oro	3	Marzo	2023-11-03T00:00:00	2024-11-08T14:00:00	1	Precipitación	0
136576	7	Sololá	719	Santiago Atitlán	14	Cerro de Oro	3	Marzo	2023-11-03T00:00:00	2024-11-08T14:00:00	8	Radiación solar	179
136577	7	Sololá	719	Santiago Atitlán	14	Cerro de Oro	3	Marzo	2023-11-03T00:00:00	2024-11-08T15:00:00	2	Temperatura media	19.3
136578	7	Sololá	719	Santiago Atitlán	14	Cerro de Oro	3	Marzo	2023-11-03T00:00:00	2024-11-08T15:00:00	4	Temperatura máxima	19.6
136579	7	Sololá	719	Santiago Atitlán	14	Cerro de Oro	3	Marzo	2023-11-03T00:00:00	2024-11-08T15:00:00	3	Temperatura mínima	19.3
136580	7	Sololá	719	Santiago Atitlán	14	Cerro de Oro	3	Marzo	2023-11-03T00:00:00	2024-11-08T15:00:00	5	Humedad	81
136581	7	Sololá	719	Santiago Atitlán	14	Cerro de Oro	3	Marzo	2023-11-03T00:00:00	2024-11-08T15:00:00	6	Velocidad del viento	11.3
136582	7	Sololá	719	Santiago Atitlán	14	Cerro de Oro	3	Marzo	2023-11-03T00:00:00	2024-11-08T15:00:00	7	Dirección del viento	11.27
136583	7	Sololá	719	Santiago Atitlán	14	Cerro de Oro	3	Marzo	2023-11-03T00:00:00	2024-11-08T15:00:00	1	Precipitación	0
136584	7	Sololá	719	Santiago Atitlán	14	Cerro de Oro	3	Marzo	2023-11-03T00:00:00	2024-11-08T15:00:00	8	Radiación solar	197
136585	7	Sololá	719	Santiago Atitlán	14	Cerro de Oro	3	Marzo	2023-11-03T00:00:00	2024-11-08T16:00:00	2	Temperatura media	19.3
136586	7	Sololá	719	Santiago Atitlán	14	Cerro de Oro	3	Marzo	2023-11-03T00:00:00	2024-11-08T16:00:00	4	Temperatura máxima	19.6
136587	7	Sololá	719	Santiago Atitlán	14	Cerro de Oro	3	Marzo	2023-11-03T00:00:00	2024-11-08T16:00:00	3	Temperatura mínima	19.2
136588	7	Sololá	719	Santiago Atitlán	14	Cerro de Oro	3	Marzo	2023-11-03T00:00:00	2024-11-08T16:00:00	5	Humedad	80
136589	7	Sololá	719	Santiago Atitlán	14	Cerro de Oro	3	Marzo	2023-11-03T00:00:00	2024-11-08T16:00:00	6	Velocidad del viento	8
136590	7	Sololá	719	Santiago Atitlán	14	Cerro de Oro	3	Marzo	2023-11-03T00:00:00	2024-11-08T16:00:00	7	Dirección del viento	8.05
136591	7	Sololá	719	Santiago Atitlán	14	Cerro de Oro	3	Marzo	2023-11-03T00:00:00	2024-11-08T16:00:00	1	Precipitación	0
136592	7	Sololá	719	Santiago Atitlán	14	Cerro de Oro	3	Marzo	2023-11-03T00:00:00	2024-11-08T16:00:00	8	Radiación solar	165
136593	7	Sololá	719	Santiago Atitlán	14	Cerro de Oro	3	Marzo	2023-11-03T00:00:00	2024-11-08T17:00:00	2	Temperatura media	19.3
136594	7	Sololá	719	Santiago Atitlán	14	Cerro de Oro	3	Marzo	2023-11-03T00:00:00	2024-11-08T17:00:00	4	Temperatura máxima	20.1
136595	7	Sololá	719	Santiago Atitlán	14	Cerro de Oro	3	Marzo	2023-11-03T00:00:00	2024-11-08T17:00:00	3	Temperatura mínima	19.3
136596	7	Sololá	719	Santiago Atitlán	14	Cerro de Oro	3	Marzo	2023-11-03T00:00:00	2024-11-08T17:00:00	5	Humedad	81
136597	7	Sololá	719	Santiago Atitlán	14	Cerro de Oro	3	Marzo	2023-11-03T00:00:00	2024-11-08T17:00:00	6	Velocidad del viento	4.8
136598	7	Sololá	719	Santiago Atitlán	14	Cerro de Oro	3	Marzo	2023-11-03T00:00:00	2024-11-08T17:00:00	7	Dirección del viento	4.83
136599	7	Sololá	719	Santiago Atitlán	14	Cerro de Oro	3	Marzo	2023-11-03T00:00:00	2024-11-08T17:00:00	1	Precipitación	0
136600	7	Sololá	719	Santiago Atitlán	14	Cerro de Oro	3	Marzo	2023-11-03T00:00:00	2024-11-08T17:00:00	8	Radiación solar	187
136601	7	Sololá	719	Santiago Atitlán	14	Cerro de Oro	3	Marzo	2023-11-03T00:00:00	2024-11-08T18:00:00	2	Temperatura media	18.7
136602	7	Sololá	719	Santiago Atitlán	14	Cerro de Oro	3	Marzo	2023-11-03T00:00:00	2024-11-08T18:00:00	4	Temperatura máxima	19.3
136603	7	Sololá	719	Santiago Atitlán	14	Cerro de Oro	3	Marzo	2023-11-03T00:00:00	2024-11-08T18:00:00	3	Temperatura mínima	18.7
136604	7	Sololá	719	Santiago Atitlán	14	Cerro de Oro	3	Marzo	2023-11-03T00:00:00	2024-11-08T18:00:00	5	Humedad	84
136605	7	Sololá	719	Santiago Atitlán	14	Cerro de Oro	3	Marzo	2023-11-03T00:00:00	2024-11-08T18:00:00	6	Velocidad del viento	4.8
136606	7	Sololá	719	Santiago Atitlán	14	Cerro de Oro	3	Marzo	2023-11-03T00:00:00	2024-11-08T18:00:00	7	Dirección del viento	4.83
136607	7	Sololá	719	Santiago Atitlán	14	Cerro de Oro	3	Marzo	2023-11-03T00:00:00	2024-11-08T18:00:00	1	Precipitación	0
136608	7	Sololá	719	Santiago Atitlán	14	Cerro de Oro	3	Marzo	2023-11-03T00:00:00	2024-11-08T18:00:00	8	Radiación solar	34
136609	7	Sololá	719	Santiago Atitlán	14	Cerro de Oro	3	Marzo	2023-11-03T00:00:00	2024-11-08T19:00:00	2	Temperatura media	17.8
136610	7	Sololá	719	Santiago Atitlán	14	Cerro de Oro	3	Marzo	2023-11-03T00:00:00	2024-11-08T19:00:00	4	Temperatura máxima	18.7
136611	7	Sololá	719	Santiago Atitlán	14	Cerro de Oro	3	Marzo	2023-11-03T00:00:00	2024-11-08T19:00:00	3	Temperatura mínima	17.8
136612	7	Sololá	719	Santiago Atitlán	14	Cerro de Oro	3	Marzo	2023-11-03T00:00:00	2024-11-08T19:00:00	5	Humedad	88
136613	7	Sololá	719	Santiago Atitlán	14	Cerro de Oro	3	Marzo	2023-11-03T00:00:00	2024-11-08T19:00:00	6	Velocidad del viento	4.8
136614	7	Sololá	719	Santiago Atitlán	14	Cerro de Oro	3	Marzo	2023-11-03T00:00:00	2024-11-08T19:00:00	7	Dirección del viento	4.83
136615	7	Sololá	719	Santiago Atitlán	14	Cerro de Oro	3	Marzo	2023-11-03T00:00:00	2024-11-08T19:00:00	1	Precipitación	0
136616	7	Sololá	719	Santiago Atitlán	14	Cerro de Oro	3	Marzo	2023-11-03T00:00:00	2024-11-08T19:00:00	8	Radiación solar	0
136617	7	Sololá	719	Santiago Atitlán	14	Cerro de Oro	3	Marzo	2023-11-03T00:00:00	2024-11-08T20:00:00	2	Temperatura media	17.6
136618	7	Sololá	719	Santiago Atitlán	14	Cerro de Oro	3	Marzo	2023-11-03T00:00:00	2024-11-08T20:00:00	4	Temperatura máxima	17.8
136619	7	Sololá	719	Santiago Atitlán	14	Cerro de Oro	3	Marzo	2023-11-03T00:00:00	2024-11-08T20:00:00	3	Temperatura mínima	17.4
136620	7	Sololá	719	Santiago Atitlán	14	Cerro de Oro	3	Marzo	2023-11-03T00:00:00	2024-11-08T20:00:00	5	Humedad	87
136621	7	Sololá	719	Santiago Atitlán	14	Cerro de Oro	3	Marzo	2023-11-03T00:00:00	2024-11-08T20:00:00	6	Velocidad del viento	4.8
136622	7	Sololá	719	Santiago Atitlán	14	Cerro de Oro	3	Marzo	2023-11-03T00:00:00	2024-11-08T20:00:00	7	Dirección del viento	4.83
136623	7	Sololá	719	Santiago Atitlán	14	Cerro de Oro	3	Marzo	2023-11-03T00:00:00	2024-11-08T20:00:00	1	Precipitación	0
136624	7	Sololá	719	Santiago Atitlán	14	Cerro de Oro	3	Marzo	2023-11-03T00:00:00	2024-11-08T20:00:00	8	Radiación solar	0
136625	7	Sololá	719	Santiago Atitlán	14	Cerro de Oro	3	Marzo	2023-11-03T00:00:00	2024-11-08T21:00:00	2	Temperatura media	16.3
136626	7	Sololá	719	Santiago Atitlán	14	Cerro de Oro	3	Marzo	2023-11-03T00:00:00	2024-11-08T21:00:00	4	Temperatura máxima	17.6
136627	7	Sololá	719	Santiago Atitlán	14	Cerro de Oro	3	Marzo	2023-11-03T00:00:00	2024-11-08T21:00:00	3	Temperatura mínima	16.3
136628	7	Sololá	719	Santiago Atitlán	14	Cerro de Oro	3	Marzo	2023-11-03T00:00:00	2024-11-08T21:00:00	5	Humedad	94
136629	7	Sololá	719	Santiago Atitlán	14	Cerro de Oro	3	Marzo	2023-11-03T00:00:00	2024-11-08T21:00:00	6	Velocidad del viento	8
136630	7	Sololá	719	Santiago Atitlán	14	Cerro de Oro	3	Marzo	2023-11-03T00:00:00	2024-11-08T21:00:00	7	Dirección del viento	8.05
136631	7	Sololá	719	Santiago Atitlán	14	Cerro de Oro	3	Marzo	2023-11-03T00:00:00	2024-11-08T21:00:00	1	Precipitación	0
136632	7	Sololá	719	Santiago Atitlán	14	Cerro de Oro	3	Marzo	2023-11-03T00:00:00	2024-11-08T21:00:00	8	Radiación solar	0
136633	7	Sololá	719	Santiago Atitlán	14	Cerro de Oro	3	Marzo	2023-11-03T00:00:00	2024-11-08T22:00:00	2	Temperatura media	15.3
136634	7	Sololá	719	Santiago Atitlán	14	Cerro de Oro	3	Marzo	2023-11-03T00:00:00	2024-11-08T22:00:00	4	Temperatura máxima	16.3
136635	7	Sololá	719	Santiago Atitlán	14	Cerro de Oro	3	Marzo	2023-11-03T00:00:00	2024-11-08T22:00:00	3	Temperatura mínima	15.3
136636	7	Sololá	719	Santiago Atitlán	14	Cerro de Oro	3	Marzo	2023-11-03T00:00:00	2024-11-08T22:00:00	5	Humedad	94
136637	7	Sololá	719	Santiago Atitlán	14	Cerro de Oro	3	Marzo	2023-11-03T00:00:00	2024-11-08T22:00:00	6	Velocidad del viento	6.4
136638	7	Sololá	719	Santiago Atitlán	14	Cerro de Oro	3	Marzo	2023-11-03T00:00:00	2024-11-08T22:00:00	7	Dirección del viento	6.44
136639	7	Sololá	719	Santiago Atitlán	14	Cerro de Oro	3	Marzo	2023-11-03T00:00:00	2024-11-08T22:00:00	1	Precipitación	0
136640	7	Sololá	719	Santiago Atitlán	14	Cerro de Oro	3	Marzo	2023-11-03T00:00:00	2024-11-08T22:00:00	8	Radiación solar	0
136641	7	Sololá	719	Santiago Atitlán	14	Cerro de Oro	3	Marzo	2023-11-03T00:00:00	2024-11-08T23:00:00	2	Temperatura media	15.6
136642	7	Sololá	719	Santiago Atitlán	14	Cerro de Oro	3	Marzo	2023-11-03T00:00:00	2024-11-08T23:00:00	4	Temperatura máxima	15.6
136643	7	Sololá	719	Santiago Atitlán	14	Cerro de Oro	3	Marzo	2023-11-03T00:00:00	2024-11-08T23:00:00	3	Temperatura mínima	15.2
136644	7	Sololá	719	Santiago Atitlán	14	Cerro de Oro	3	Marzo	2023-11-03T00:00:00	2024-11-08T23:00:00	5	Humedad	92
136645	7	Sololá	719	Santiago Atitlán	14	Cerro de Oro	3	Marzo	2023-11-03T00:00:00	2024-11-08T23:00:00	6	Velocidad del viento	3.2
136646	7	Sololá	719	Santiago Atitlán	14	Cerro de Oro	3	Marzo	2023-11-03T00:00:00	2024-11-08T23:00:00	7	Dirección del viento	3.22
136647	7	Sololá	719	Santiago Atitlán	14	Cerro de Oro	3	Marzo	2023-11-03T00:00:00	2024-11-08T23:00:00	1	Precipitación	0
136648	7	Sololá	719	Santiago Atitlán	14	Cerro de Oro	3	Marzo	2023-11-03T00:00:00	2024-11-08T23:00:00	8	Radiación solar	0
136649	7	Sololá	719	Santiago Atitlán	14	Cerro de Oro	3	Marzo	2023-12-03T00:00:00	2024-11-08T00:00:00	2	Temperatura media	15.9
136650	7	Sololá	719	Santiago Atitlán	14	Cerro de Oro	3	Marzo	2023-12-03T00:00:00	2024-11-08T00:00:00	4	Temperatura máxima	15.9
136651	7	Sololá	719	Santiago Atitlán	14	Cerro de Oro	3	Marzo	2023-12-03T00:00:00	2024-11-08T00:00:00	3	Temperatura mínima	15.6
136652	7	Sololá	719	Santiago Atitlán	14	Cerro de Oro	3	Marzo	2023-12-03T00:00:00	2024-11-08T00:00:00	5	Humedad	92
136653	7	Sololá	719	Santiago Atitlán	14	Cerro de Oro	3	Marzo	2023-12-03T00:00:00	2024-11-08T00:00:00	6	Velocidad del viento	4.8
136654	7	Sololá	719	Santiago Atitlán	14	Cerro de Oro	3	Marzo	2023-12-03T00:00:00	2024-11-08T00:00:00	7	Dirección del viento	4.83
136655	7	Sololá	719	Santiago Atitlán	14	Cerro de Oro	3	Marzo	2023-12-03T00:00:00	2024-11-08T00:00:00	1	Precipitación	0
136656	7	Sololá	719	Santiago Atitlán	14	Cerro de Oro	3	Marzo	2023-12-03T00:00:00	2024-11-08T00:00:00	8	Radiación solar	0
136657	7	Sololá	719	Santiago Atitlán	14	Cerro de Oro	3	Marzo	2023-12-03T00:00:00	2024-11-08T01:00:00	2	Temperatura media	16.2
136658	7	Sololá	719	Santiago Atitlán	14	Cerro de Oro	3	Marzo	2023-12-03T00:00:00	2024-11-08T01:00:00	4	Temperatura máxima	16.3
136659	7	Sololá	719	Santiago Atitlán	14	Cerro de Oro	3	Marzo	2023-12-03T00:00:00	2024-11-08T01:00:00	3	Temperatura mínima	15.9
136660	7	Sololá	719	Santiago Atitlán	14	Cerro de Oro	3	Marzo	2023-12-03T00:00:00	2024-11-08T01:00:00	5	Humedad	89
136661	7	Sololá	719	Santiago Atitlán	14	Cerro de Oro	3	Marzo	2023-12-03T00:00:00	2024-11-08T01:00:00	6	Velocidad del viento	3.2
136662	7	Sololá	719	Santiago Atitlán	14	Cerro de Oro	3	Marzo	2023-12-03T00:00:00	2024-11-08T01:00:00	7	Dirección del viento	3.22
136663	7	Sololá	719	Santiago Atitlán	14	Cerro de Oro	3	Marzo	2023-12-03T00:00:00	2024-11-08T01:00:00	1	Precipitación	0
136664	7	Sololá	719	Santiago Atitlán	14	Cerro de Oro	3	Marzo	2023-12-03T00:00:00	2024-11-08T01:00:00	8	Radiación solar	0
136665	7	Sololá	719	Santiago Atitlán	14	Cerro de Oro	3	Marzo	2023-12-03T00:00:00	2024-11-08T02:00:00	2	Temperatura media	16.4
136666	7	Sololá	719	Santiago Atitlán	14	Cerro de Oro	3	Marzo	2023-12-03T00:00:00	2024-11-08T02:00:00	4	Temperatura máxima	16.6
136667	7	Sololá	719	Santiago Atitlán	14	Cerro de Oro	3	Marzo	2023-12-03T00:00:00	2024-11-08T02:00:00	3	Temperatura mínima	16.3
136668	7	Sololá	719	Santiago Atitlán	14	Cerro de Oro	3	Marzo	2023-12-03T00:00:00	2024-11-08T02:00:00	5	Humedad	90
136669	7	Sololá	719	Santiago Atitlán	14	Cerro de Oro	3	Marzo	2023-12-03T00:00:00	2024-11-08T02:00:00	6	Velocidad del viento	3.2
136670	7	Sololá	719	Santiago Atitlán	14	Cerro de Oro	3	Marzo	2023-12-03T00:00:00	2024-11-08T02:00:00	7	Dirección del viento	3.22
136671	7	Sololá	719	Santiago Atitlán	14	Cerro de Oro	3	Marzo	2023-12-03T00:00:00	2024-11-08T02:00:00	1	Precipitación	0
136672	7	Sololá	719	Santiago Atitlán	14	Cerro de Oro	3	Marzo	2023-12-03T00:00:00	2024-11-08T02:00:00	8	Radiación solar	0
136673	7	Sololá	719	Santiago Atitlán	14	Cerro de Oro	3	Marzo	2023-12-03T00:00:00	2024-11-08T03:00:00	2	Temperatura media	16.4
136674	7	Sololá	719	Santiago Atitlán	14	Cerro de Oro	3	Marzo	2023-12-03T00:00:00	2024-11-08T03:00:00	4	Temperatura máxima	16.5
136675	7	Sololá	719	Santiago Atitlán	14	Cerro de Oro	3	Marzo	2023-12-03T00:00:00	2024-11-08T03:00:00	3	Temperatura mínima	16.2
136676	7	Sololá	719	Santiago Atitlán	14	Cerro de Oro	3	Marzo	2023-12-03T00:00:00	2024-11-08T03:00:00	5	Humedad	89
136677	7	Sololá	719	Santiago Atitlán	14	Cerro de Oro	3	Marzo	2023-12-03T00:00:00	2024-11-08T03:00:00	6	Velocidad del viento	3.2
136678	7	Sololá	719	Santiago Atitlán	14	Cerro de Oro	3	Marzo	2023-12-03T00:00:00	2024-11-08T03:00:00	7	Dirección del viento	3.22
136679	7	Sololá	719	Santiago Atitlán	14	Cerro de Oro	3	Marzo	2023-12-03T00:00:00	2024-11-08T03:00:00	1	Precipitación	0
136680	7	Sololá	719	Santiago Atitlán	14	Cerro de Oro	3	Marzo	2023-12-03T00:00:00	2024-11-08T03:00:00	8	Radiación solar	0
136681	7	Sololá	719	Santiago Atitlán	14	Cerro de Oro	3	Marzo	2023-12-03T00:00:00	2024-11-08T04:00:00	2	Temperatura media	16.8
136682	7	Sololá	719	Santiago Atitlán	14	Cerro de Oro	3	Marzo	2023-12-03T00:00:00	2024-11-08T04:00:00	4	Temperatura máxima	16.8
136683	7	Sololá	719	Santiago Atitlán	14	Cerro de Oro	3	Marzo	2023-12-03T00:00:00	2024-11-08T04:00:00	3	Temperatura mínima	16.3
136684	7	Sololá	719	Santiago Atitlán	14	Cerro de Oro	3	Marzo	2023-12-03T00:00:00	2024-11-08T04:00:00	5	Humedad	86
136685	7	Sololá	719	Santiago Atitlán	14	Cerro de Oro	3	Marzo	2023-12-03T00:00:00	2024-11-08T04:00:00	6	Velocidad del viento	4.8
136686	7	Sololá	719	Santiago Atitlán	14	Cerro de Oro	3	Marzo	2023-12-03T00:00:00	2024-11-08T04:00:00	7	Dirección del viento	4.83
136687	7	Sololá	719	Santiago Atitlán	14	Cerro de Oro	3	Marzo	2023-12-03T00:00:00	2024-11-08T04:00:00	1	Precipitación	0
136688	7	Sololá	719	Santiago Atitlán	14	Cerro de Oro	3	Marzo	2023-12-03T00:00:00	2024-11-08T04:00:00	8	Radiación solar	0
136689	7	Sololá	719	Santiago Atitlán	14	Cerro de Oro	3	Marzo	2023-12-03T00:00:00	2024-11-08T05:00:00	2	Temperatura media	16.3
136690	7	Sololá	719	Santiago Atitlán	14	Cerro de Oro	3	Marzo	2023-12-03T00:00:00	2024-11-08T05:00:00	4	Temperatura máxima	16.8
136691	7	Sololá	719	Santiago Atitlán	14	Cerro de Oro	3	Marzo	2023-12-03T00:00:00	2024-11-08T05:00:00	3	Temperatura mínima	16.3
136692	7	Sololá	719	Santiago Atitlán	14	Cerro de Oro	3	Marzo	2023-12-03T00:00:00	2024-11-08T05:00:00	5	Humedad	88
136693	7	Sololá	719	Santiago Atitlán	14	Cerro de Oro	3	Marzo	2023-12-03T00:00:00	2024-11-08T05:00:00	6	Velocidad del viento	3.2
136694	7	Sololá	719	Santiago Atitlán	14	Cerro de Oro	3	Marzo	2023-12-03T00:00:00	2024-11-08T05:00:00	7	Dirección del viento	3.22
136695	7	Sololá	719	Santiago Atitlán	14	Cerro de Oro	3	Marzo	2023-12-03T00:00:00	2024-11-08T05:00:00	1	Precipitación	0
136696	7	Sololá	719	Santiago Atitlán	14	Cerro de Oro	3	Marzo	2023-12-03T00:00:00	2024-11-08T05:00:00	8	Radiación solar	0
136697	7	Sololá	719	Santiago Atitlán	14	Cerro de Oro	3	Marzo	2023-12-03T00:00:00	2024-11-08T06:00:00	2	Temperatura media	16.3
136698	7	Sololá	719	Santiago Atitlán	14	Cerro de Oro	3	Marzo	2023-12-03T00:00:00	2024-11-08T06:00:00	4	Temperatura máxima	16.8
136699	7	Sololá	719	Santiago Atitlán	14	Cerro de Oro	3	Marzo	2023-12-03T00:00:00	2024-11-08T06:00:00	3	Temperatura mínima	16.3
136700	7	Sololá	719	Santiago Atitlán	14	Cerro de Oro	3	Marzo	2023-12-03T00:00:00	2024-11-08T06:00:00	5	Humedad	87
136701	7	Sololá	719	Santiago Atitlán	14	Cerro de Oro	3	Marzo	2023-12-03T00:00:00	2024-11-08T06:00:00	6	Velocidad del viento	4.8
136702	7	Sololá	719	Santiago Atitlán	14	Cerro de Oro	3	Marzo	2023-12-03T00:00:00	2024-11-08T06:00:00	7	Dirección del viento	4.83
136703	7	Sololá	719	Santiago Atitlán	14	Cerro de Oro	3	Marzo	2023-12-03T00:00:00	2024-11-08T06:00:00	1	Precipitación	0
136704	7	Sololá	719	Santiago Atitlán	14	Cerro de Oro	3	Marzo	2023-12-03T00:00:00	2024-11-08T06:00:00	8	Radiación solar	0
136705	7	Sololá	719	Santiago Atitlán	14	Cerro de Oro	3	Marzo	2023-12-03T00:00:00	2024-11-08T07:00:00	2	Temperatura media	16.3
136706	7	Sololá	719	Santiago Atitlán	14	Cerro de Oro	3	Marzo	2023-12-03T00:00:00	2024-11-08T07:00:00	4	Temperatura máxima	16.4
136707	7	Sololá	719	Santiago Atitlán	14	Cerro de Oro	3	Marzo	2023-12-03T00:00:00	2024-11-08T07:00:00	3	Temperatura mínima	16.2
136708	7	Sololá	719	Santiago Atitlán	14	Cerro de Oro	3	Marzo	2023-12-03T00:00:00	2024-11-08T07:00:00	5	Humedad	87
136709	7	Sololá	719	Santiago Atitlán	14	Cerro de Oro	3	Marzo	2023-12-03T00:00:00	2024-11-08T07:00:00	6	Velocidad del viento	8
136710	7	Sololá	719	Santiago Atitlán	14	Cerro de Oro	3	Marzo	2023-12-03T00:00:00	2024-11-08T07:00:00	7	Dirección del viento	8.05
136711	7	Sololá	719	Santiago Atitlán	14	Cerro de Oro	3	Marzo	2023-12-03T00:00:00	2024-11-08T07:00:00	1	Precipitación	0
136712	7	Sololá	719	Santiago Atitlán	14	Cerro de Oro	3	Marzo	2023-12-03T00:00:00	2024-11-08T07:00:00	8	Radiación solar	0
136713	7	Sololá	719	Santiago Atitlán	14	Cerro de Oro	3	Marzo	2023-12-03T00:00:00	2024-11-08T08:00:00	2	Temperatura media	16.3
136714	7	Sololá	719	Santiago Atitlán	14	Cerro de Oro	3	Marzo	2023-12-03T00:00:00	2024-11-08T08:00:00	4	Temperatura máxima	16.3
136715	7	Sololá	719	Santiago Atitlán	14	Cerro de Oro	3	Marzo	2023-12-03T00:00:00	2024-11-08T08:00:00	3	Temperatura mínima	16.1
136716	7	Sololá	719	Santiago Atitlán	14	Cerro de Oro	3	Marzo	2023-12-03T00:00:00	2024-11-08T08:00:00	5	Humedad	86
136717	7	Sololá	719	Santiago Atitlán	14	Cerro de Oro	3	Marzo	2023-12-03T00:00:00	2024-11-08T08:00:00	6	Velocidad del viento	6.4
136718	7	Sololá	719	Santiago Atitlán	14	Cerro de Oro	3	Marzo	2023-12-03T00:00:00	2024-11-08T08:00:00	7	Dirección del viento	6.44
136719	7	Sololá	719	Santiago Atitlán	14	Cerro de Oro	3	Marzo	2023-12-03T00:00:00	2024-11-08T08:00:00	1	Precipitación	0
136720	7	Sololá	719	Santiago Atitlán	14	Cerro de Oro	3	Marzo	2023-12-03T00:00:00	2024-11-08T08:00:00	8	Radiación solar	8
136721	7	Sololá	719	Santiago Atitlán	14	Cerro de Oro	3	Marzo	2023-12-03T00:00:00	2024-11-08T09:00:00	2	Temperatura media	17.2
136722	7	Sololá	719	Santiago Atitlán	14	Cerro de Oro	3	Marzo	2023-12-03T00:00:00	2024-11-08T09:00:00	4	Temperatura máxima	17.2
136723	7	Sololá	719	Santiago Atitlán	14	Cerro de Oro	3	Marzo	2023-12-03T00:00:00	2024-11-08T09:00:00	3	Temperatura mínima	16.3
136724	7	Sololá	719	Santiago Atitlán	14	Cerro de Oro	3	Marzo	2023-12-03T00:00:00	2024-11-08T09:00:00	5	Humedad	82
136725	7	Sololá	719	Santiago Atitlán	14	Cerro de Oro	3	Marzo	2023-12-03T00:00:00	2024-11-08T09:00:00	6	Velocidad del viento	4.8
136726	7	Sololá	719	Santiago Atitlán	14	Cerro de Oro	3	Marzo	2023-12-03T00:00:00	2024-11-08T09:00:00	7	Dirección del viento	4.83
136727	7	Sololá	719	Santiago Atitlán	14	Cerro de Oro	3	Marzo	2023-12-03T00:00:00	2024-11-08T09:00:00	1	Precipitación	0
136728	7	Sololá	719	Santiago Atitlán	14	Cerro de Oro	3	Marzo	2023-12-03T00:00:00	2024-11-08T09:00:00	8	Radiación solar	80
136729	7	Sololá	719	Santiago Atitlán	14	Cerro de Oro	3	Marzo	2023-12-03T00:00:00	2024-11-08T10:00:00	2	Temperatura media	18.4
136730	7	Sololá	719	Santiago Atitlán	14	Cerro de Oro	3	Marzo	2023-12-03T00:00:00	2024-11-08T10:00:00	4	Temperatura máxima	18.4
136731	7	Sololá	719	Santiago Atitlán	14	Cerro de Oro	3	Marzo	2023-12-03T00:00:00	2024-11-08T10:00:00	3	Temperatura mínima	17.2
136732	7	Sololá	719	Santiago Atitlán	14	Cerro de Oro	3	Marzo	2023-12-03T00:00:00	2024-11-08T10:00:00	5	Humedad	78
136733	7	Sololá	719	Santiago Atitlán	14	Cerro de Oro	3	Marzo	2023-12-03T00:00:00	2024-11-08T10:00:00	6	Velocidad del viento	3.2
136734	7	Sololá	719	Santiago Atitlán	14	Cerro de Oro	3	Marzo	2023-12-03T00:00:00	2024-11-08T10:00:00	7	Dirección del viento	3.22
136735	7	Sololá	719	Santiago Atitlán	14	Cerro de Oro	3	Marzo	2023-12-03T00:00:00	2024-11-08T10:00:00	1	Precipitación	0
136736	7	Sololá	719	Santiago Atitlán	14	Cerro de Oro	3	Marzo	2023-12-03T00:00:00	2024-11-08T10:00:00	8	Radiación solar	186
136737	7	Sololá	719	Santiago Atitlán	14	Cerro de Oro	3	Marzo	2023-12-03T00:00:00	2024-11-08T11:00:00	2	Temperatura media	19
136738	7	Sololá	719	Santiago Atitlán	14	Cerro de Oro	3	Marzo	2023-12-03T00:00:00	2024-11-08T11:00:00	4	Temperatura máxima	19.4
136739	7	Sololá	719	Santiago Atitlán	14	Cerro de Oro	3	Marzo	2023-12-03T00:00:00	2024-11-08T11:00:00	3	Temperatura mínima	18.4
136740	7	Sololá	719	Santiago Atitlán	14	Cerro de Oro	3	Marzo	2023-12-03T00:00:00	2024-11-08T11:00:00	5	Humedad	76
136741	7	Sololá	719	Santiago Atitlán	14	Cerro de Oro	3	Marzo	2023-12-03T00:00:00	2024-11-08T11:00:00	6	Velocidad del viento	4.8
136742	7	Sololá	719	Santiago Atitlán	14	Cerro de Oro	3	Marzo	2023-12-03T00:00:00	2024-11-08T11:00:00	7	Dirección del viento	4.83
136743	7	Sololá	719	Santiago Atitlán	14	Cerro de Oro	3	Marzo	2023-12-03T00:00:00	2024-11-08T11:00:00	1	Precipitación	0
136744	7	Sololá	719	Santiago Atitlán	14	Cerro de Oro	3	Marzo	2023-12-03T00:00:00	2024-11-08T11:00:00	8	Radiación solar	375
136745	7	Sololá	719	Santiago Atitlán	14	Cerro de Oro	3	Marzo	2023-12-03T00:00:00	2024-11-08T12:00:00	2	Temperatura media	19.5
136746	7	Sololá	719	Santiago Atitlán	14	Cerro de Oro	3	Marzo	2023-12-03T00:00:00	2024-11-08T12:00:00	4	Temperatura máxima	19.9
136747	7	Sololá	719	Santiago Atitlán	14	Cerro de Oro	3	Marzo	2023-12-03T00:00:00	2024-11-08T12:00:00	3	Temperatura mínima	18.9
136748	7	Sololá	719	Santiago Atitlán	14	Cerro de Oro	3	Marzo	2023-12-03T00:00:00	2024-11-08T12:00:00	5	Humedad	75
136749	7	Sololá	719	Santiago Atitlán	14	Cerro de Oro	3	Marzo	2023-12-03T00:00:00	2024-11-08T12:00:00	6	Velocidad del viento	4.8
136750	7	Sololá	719	Santiago Atitlán	14	Cerro de Oro	3	Marzo	2023-12-03T00:00:00	2024-11-08T12:00:00	7	Dirección del viento	4.83
136751	7	Sololá	719	Santiago Atitlán	14	Cerro de Oro	3	Marzo	2023-12-03T00:00:00	2024-11-08T12:00:00	1	Precipitación	0
136752	7	Sololá	719	Santiago Atitlán	14	Cerro de Oro	3	Marzo	2023-12-03T00:00:00	2024-11-08T12:00:00	8	Radiación solar	339
136753	7	Sololá	719	Santiago Atitlán	14	Cerro de Oro	3	Marzo	2023-12-03T00:00:00	2024-11-08T13:00:00	2	Temperatura media	19.6
136754	7	Sololá	719	Santiago Atitlán	14	Cerro de Oro	3	Marzo	2023-12-03T00:00:00	2024-11-08T13:00:00	4	Temperatura máxima	20.2
136755	7	Sololá	719	Santiago Atitlán	14	Cerro de Oro	3	Marzo	2023-12-03T00:00:00	2024-11-08T13:00:00	3	Temperatura mínima	19.5
136756	7	Sololá	719	Santiago Atitlán	14	Cerro de Oro	3	Marzo	2023-12-03T00:00:00	2024-11-08T13:00:00	5	Humedad	77
136757	7	Sololá	719	Santiago Atitlán	14	Cerro de Oro	3	Marzo	2023-12-03T00:00:00	2024-11-08T13:00:00	6	Velocidad del viento	4.8
136758	7	Sololá	719	Santiago Atitlán	14	Cerro de Oro	3	Marzo	2023-12-03T00:00:00	2024-11-08T13:00:00	7	Dirección del viento	4.83
136759	7	Sololá	719	Santiago Atitlán	14	Cerro de Oro	3	Marzo	2023-12-03T00:00:00	2024-11-08T13:00:00	1	Precipitación	0
136760	7	Sololá	719	Santiago Atitlán	14	Cerro de Oro	3	Marzo	2023-12-03T00:00:00	2024-11-08T13:00:00	8	Radiación solar	227
136761	7	Sololá	719	Santiago Atitlán	14	Cerro de Oro	3	Marzo	2023-12-03T00:00:00	2024-11-08T14:00:00	2	Temperatura media	19.1
136762	7	Sololá	719	Santiago Atitlán	14	Cerro de Oro	3	Marzo	2023-12-03T00:00:00	2024-11-08T14:00:00	4	Temperatura máxima	19.9
136763	7	Sololá	719	Santiago Atitlán	14	Cerro de Oro	3	Marzo	2023-12-03T00:00:00	2024-11-08T14:00:00	3	Temperatura mínima	19
136764	7	Sololá	719	Santiago Atitlán	14	Cerro de Oro	3	Marzo	2023-12-03T00:00:00	2024-11-08T14:00:00	5	Humedad	81
136765	7	Sololá	719	Santiago Atitlán	14	Cerro de Oro	3	Marzo	2023-12-03T00:00:00	2024-11-08T14:00:00	6	Velocidad del viento	6.4
136766	7	Sololá	719	Santiago Atitlán	14	Cerro de Oro	3	Marzo	2023-12-03T00:00:00	2024-11-08T14:00:00	7	Dirección del viento	6.44
136767	7	Sololá	719	Santiago Atitlán	14	Cerro de Oro	3	Marzo	2023-12-03T00:00:00	2024-11-08T14:00:00	1	Precipitación	0
136768	7	Sololá	719	Santiago Atitlán	14	Cerro de Oro	3	Marzo	2023-12-03T00:00:00	2024-11-08T14:00:00	8	Radiación solar	211
136769	7	Sololá	719	Santiago Atitlán	14	Cerro de Oro	3	Marzo	2023-12-03T00:00:00	2024-11-08T15:00:00	2	Temperatura media	19.2
136770	7	Sololá	719	Santiago Atitlán	14	Cerro de Oro	3	Marzo	2023-12-03T00:00:00	2024-11-08T15:00:00	4	Temperatura máxima	19.2
136771	7	Sololá	719	Santiago Atitlán	14	Cerro de Oro	3	Marzo	2023-12-03T00:00:00	2024-11-08T15:00:00	3	Temperatura mínima	18.8
136772	7	Sololá	719	Santiago Atitlán	14	Cerro de Oro	3	Marzo	2023-12-03T00:00:00	2024-11-08T15:00:00	5	Humedad	82
136773	7	Sololá	719	Santiago Atitlán	14	Cerro de Oro	3	Marzo	2023-12-03T00:00:00	2024-11-08T15:00:00	6	Velocidad del viento	6.4
136774	7	Sololá	719	Santiago Atitlán	14	Cerro de Oro	3	Marzo	2023-12-03T00:00:00	2024-11-08T15:00:00	7	Dirección del viento	6.44
136775	7	Sololá	719	Santiago Atitlán	14	Cerro de Oro	3	Marzo	2023-12-03T00:00:00	2024-11-08T15:00:00	1	Precipitación	0
136776	7	Sololá	719	Santiago Atitlán	14	Cerro de Oro	3	Marzo	2023-12-03T00:00:00	2024-11-08T15:00:00	8	Radiación solar	212
136777	7	Sololá	719	Santiago Atitlán	14	Cerro de Oro	3	Marzo	2023-12-03T00:00:00	2024-11-08T16:00:00	2	Temperatura media	18.3
136778	7	Sololá	719	Santiago Atitlán	14	Cerro de Oro	3	Marzo	2023-12-03T00:00:00	2024-11-08T16:00:00	4	Temperatura máxima	19.5
136779	7	Sololá	719	Santiago Atitlán	14	Cerro de Oro	3	Marzo	2023-12-03T00:00:00	2024-11-08T16:00:00	3	Temperatura mínima	18.3
136780	7	Sololá	719	Santiago Atitlán	14	Cerro de Oro	3	Marzo	2023-12-03T00:00:00	2024-11-08T16:00:00	5	Humedad	83
136781	7	Sololá	719	Santiago Atitlán	14	Cerro de Oro	3	Marzo	2023-12-03T00:00:00	2024-11-08T16:00:00	6	Velocidad del viento	8
136782	7	Sololá	719	Santiago Atitlán	14	Cerro de Oro	3	Marzo	2023-12-03T00:00:00	2024-11-08T16:00:00	7	Dirección del viento	8.05
136783	7	Sololá	719	Santiago Atitlán	14	Cerro de Oro	3	Marzo	2023-12-03T00:00:00	2024-11-08T16:00:00	1	Precipitación	0
136784	7	Sololá	719	Santiago Atitlán	14	Cerro de Oro	3	Marzo	2023-12-03T00:00:00	2024-11-08T16:00:00	8	Radiación solar	157
136785	7	Sololá	719	Santiago Atitlán	14	Cerro de Oro	3	Marzo	2023-12-03T00:00:00	2024-11-08T17:00:00	2	Temperatura media	18.2
136786	7	Sololá	719	Santiago Atitlán	14	Cerro de Oro	3	Marzo	2023-12-03T00:00:00	2024-11-08T17:00:00	4	Temperatura máxima	18.4
136787	7	Sololá	719	Santiago Atitlán	14	Cerro de Oro	3	Marzo	2023-12-03T00:00:00	2024-11-08T17:00:00	3	Temperatura mínima	18.1
136788	7	Sololá	719	Santiago Atitlán	14	Cerro de Oro	3	Marzo	2023-12-03T00:00:00	2024-11-08T17:00:00	5	Humedad	85
136789	7	Sololá	719	Santiago Atitlán	14	Cerro de Oro	3	Marzo	2023-12-03T00:00:00	2024-11-08T17:00:00	6	Velocidad del viento	8
136790	7	Sololá	719	Santiago Atitlán	14	Cerro de Oro	3	Marzo	2023-12-03T00:00:00	2024-11-08T17:00:00	7	Dirección del viento	8.05
136791	7	Sololá	719	Santiago Atitlán	14	Cerro de Oro	3	Marzo	2023-12-03T00:00:00	2024-11-08T17:00:00	1	Precipitación	0
136792	7	Sololá	719	Santiago Atitlán	14	Cerro de Oro	3	Marzo	2023-12-03T00:00:00	2024-11-08T17:00:00	8	Radiación solar	67
136793	7	Sololá	719	Santiago Atitlán	14	Cerro de Oro	3	Marzo	2023-12-03T00:00:00	2024-11-08T18:00:00	2	Temperatura media	18.2
136794	7	Sololá	719	Santiago Atitlán	14	Cerro de Oro	3	Marzo	2023-12-03T00:00:00	2024-11-08T18:00:00	4	Temperatura máxima	18.3
136795	7	Sololá	719	Santiago Atitlán	14	Cerro de Oro	3	Marzo	2023-12-03T00:00:00	2024-11-08T18:00:00	3	Temperatura mínima	18.1
136796	7	Sololá	719	Santiago Atitlán	14	Cerro de Oro	3	Marzo	2023-12-03T00:00:00	2024-11-08T18:00:00	5	Humedad	85
136797	7	Sololá	719	Santiago Atitlán	14	Cerro de Oro	3	Marzo	2023-12-03T00:00:00	2024-11-08T18:00:00	6	Velocidad del viento	4.8
136798	7	Sololá	719	Santiago Atitlán	14	Cerro de Oro	3	Marzo	2023-12-03T00:00:00	2024-11-08T18:00:00	7	Dirección del viento	4.83
136799	7	Sololá	719	Santiago Atitlán	14	Cerro de Oro	3	Marzo	2023-12-03T00:00:00	2024-11-08T18:00:00	1	Precipitación	0
136800	7	Sololá	719	Santiago Atitlán	14	Cerro de Oro	3	Marzo	2023-12-03T00:00:00	2024-11-08T18:00:00	8	Radiación solar	33
136801	7	Sololá	719	Santiago Atitlán	14	Cerro de Oro	3	Marzo	2023-12-03T00:00:00	2024-11-08T19:00:00	2	Temperatura media	18.7
136802	7	Sololá	719	Santiago Atitlán	14	Cerro de Oro	3	Marzo	2023-12-03T00:00:00	2024-11-08T19:00:00	4	Temperatura máxima	18.7
136803	7	Sololá	719	Santiago Atitlán	14	Cerro de Oro	3	Marzo	2023-12-03T00:00:00	2024-11-08T19:00:00	3	Temperatura mínima	18.2
136804	7	Sololá	719	Santiago Atitlán	14	Cerro de Oro	3	Marzo	2023-12-03T00:00:00	2024-11-08T19:00:00	5	Humedad	82
136805	7	Sololá	719	Santiago Atitlán	14	Cerro de Oro	3	Marzo	2023-12-03T00:00:00	2024-11-08T19:00:00	6	Velocidad del viento	1.6
136806	7	Sololá	719	Santiago Atitlán	14	Cerro de Oro	3	Marzo	2023-12-03T00:00:00	2024-11-08T19:00:00	7	Dirección del viento	1.61
136807	7	Sololá	719	Santiago Atitlán	14	Cerro de Oro	3	Marzo	2023-12-03T00:00:00	2024-11-08T19:00:00	1	Precipitación	0
136808	7	Sololá	719	Santiago Atitlán	14	Cerro de Oro	3	Marzo	2023-12-03T00:00:00	2024-11-08T19:00:00	8	Radiación solar	0
136809	7	Sololá	719	Santiago Atitlán	14	Cerro de Oro	3	Marzo	2023-12-03T00:00:00	2024-11-08T20:00:00	2	Temperatura media	18.3
136810	7	Sololá	719	Santiago Atitlán	14	Cerro de Oro	3	Marzo	2023-12-03T00:00:00	2024-11-08T20:00:00	4	Temperatura máxima	18.8
136811	7	Sololá	719	Santiago Atitlán	14	Cerro de Oro	3	Marzo	2023-12-03T00:00:00	2024-11-08T20:00:00	3	Temperatura mínima	18.3
136812	7	Sololá	719	Santiago Atitlán	14	Cerro de Oro	3	Marzo	2023-12-03T00:00:00	2024-11-08T20:00:00	5	Humedad	83
136813	7	Sololá	719	Santiago Atitlán	14	Cerro de Oro	3	Marzo	2023-12-03T00:00:00	2024-11-08T20:00:00	6	Velocidad del viento	3.2
136814	7	Sololá	719	Santiago Atitlán	14	Cerro de Oro	3	Marzo	2023-12-03T00:00:00	2024-11-08T20:00:00	7	Dirección del viento	3.22
136815	7	Sololá	719	Santiago Atitlán	14	Cerro de Oro	3	Marzo	2023-12-03T00:00:00	2024-11-08T20:00:00	1	Precipitación	0
136816	7	Sololá	719	Santiago Atitlán	14	Cerro de Oro	3	Marzo	2023-12-03T00:00:00	2024-11-08T20:00:00	8	Radiación solar	0
136817	7	Sololá	719	Santiago Atitlán	14	Cerro de Oro	3	Marzo	2023-12-03T00:00:00	2024-11-08T21:00:00	2	Temperatura media	18.1
136818	7	Sololá	719	Santiago Atitlán	14	Cerro de Oro	3	Marzo	2023-12-03T00:00:00	2024-11-08T21:00:00	4	Temperatura máxima	18.5
136819	7	Sololá	719	Santiago Atitlán	14	Cerro de Oro	3	Marzo	2023-12-03T00:00:00	2024-11-08T21:00:00	3	Temperatura mínima	18.1
136820	7	Sololá	719	Santiago Atitlán	14	Cerro de Oro	3	Marzo	2023-12-03T00:00:00	2024-11-08T21:00:00	5	Humedad	86
136821	7	Sololá	719	Santiago Atitlán	14	Cerro de Oro	3	Marzo	2023-12-03T00:00:00	2024-11-08T21:00:00	6	Velocidad del viento	3.2
136822	7	Sololá	719	Santiago Atitlán	14	Cerro de Oro	3	Marzo	2023-12-03T00:00:00	2024-11-08T21:00:00	7	Dirección del viento	3.22
136823	7	Sololá	719	Santiago Atitlán	14	Cerro de Oro	3	Marzo	2023-12-03T00:00:00	2024-11-08T21:00:00	1	Precipitación	0
136824	7	Sololá	719	Santiago Atitlán	14	Cerro de Oro	3	Marzo	2023-12-03T00:00:00	2024-11-08T21:00:00	8	Radiación solar	0
136825	7	Sololá	719	Santiago Atitlán	14	Cerro de Oro	3	Marzo	2023-12-03T00:00:00	2024-11-08T22:00:00	2	Temperatura media	17.8
136826	7	Sololá	719	Santiago Atitlán	14	Cerro de Oro	3	Marzo	2023-12-03T00:00:00	2024-11-08T22:00:00	4	Temperatura máxima	18.1
136827	7	Sololá	719	Santiago Atitlán	14	Cerro de Oro	3	Marzo	2023-12-03T00:00:00	2024-11-08T22:00:00	3	Temperatura mínima	17.8
136828	7	Sololá	719	Santiago Atitlán	14	Cerro de Oro	3	Marzo	2023-12-03T00:00:00	2024-11-08T22:00:00	5	Humedad	86
136829	7	Sololá	719	Santiago Atitlán	14	Cerro de Oro	3	Marzo	2023-12-03T00:00:00	2024-11-08T22:00:00	6	Velocidad del viento	1.6
136830	7	Sololá	719	Santiago Atitlán	14	Cerro de Oro	3	Marzo	2023-12-03T00:00:00	2024-11-08T22:00:00	7	Dirección del viento	1.61
136831	7	Sololá	719	Santiago Atitlán	14	Cerro de Oro	3	Marzo	2023-12-03T00:00:00	2024-11-08T22:00:00	1	Precipitación	0
136832	7	Sololá	719	Santiago Atitlán	14	Cerro de Oro	3	Marzo	2023-12-03T00:00:00	2024-11-08T22:00:00	8	Radiación solar	0
136833	7	Sololá	719	Santiago Atitlán	14	Cerro de Oro	3	Marzo	2023-12-03T00:00:00	2024-11-08T23:00:00	2	Temperatura media	17
136834	7	Sololá	719	Santiago Atitlán	14	Cerro de Oro	3	Marzo	2023-12-03T00:00:00	2024-11-08T23:00:00	4	Temperatura máxima	17.8
136835	7	Sololá	719	Santiago Atitlán	14	Cerro de Oro	3	Marzo	2023-12-03T00:00:00	2024-11-08T23:00:00	3	Temperatura mínima	17
136836	7	Sololá	719	Santiago Atitlán	14	Cerro de Oro	3	Marzo	2023-12-03T00:00:00	2024-11-08T23:00:00	5	Humedad	87
136837	7	Sololá	719	Santiago Atitlán	14	Cerro de Oro	3	Marzo	2023-12-03T00:00:00	2024-11-08T23:00:00	6	Velocidad del viento	3.2
136838	7	Sololá	719	Santiago Atitlán	14	Cerro de Oro	3	Marzo	2023-12-03T00:00:00	2024-11-08T23:00:00	7	Dirección del viento	3.22
136839	7	Sololá	719	Santiago Atitlán	14	Cerro de Oro	3	Marzo	2023-12-03T00:00:00	2024-11-08T23:00:00	1	Precipitación	0
136840	7	Sololá	719	Santiago Atitlán	14	Cerro de Oro	3	Marzo	2023-12-03T00:00:00	2024-11-08T23:00:00	8	Radiación solar	0
136841	7	Sololá	719	Santiago Atitlán	14	Cerro de Oro	3	Marzo	2023-03-13T00:00:00	2024-11-08T00:00:00	2	Temperatura media	17.4
136842	7	Sololá	719	Santiago Atitlán	14	Cerro de Oro	3	Marzo	2023-03-13T00:00:00	2024-11-08T00:00:00	4	Temperatura máxima	17.4
136843	7	Sololá	719	Santiago Atitlán	14	Cerro de Oro	3	Marzo	2023-03-13T00:00:00	2024-11-08T00:00:00	3	Temperatura mínima	16.9
136844	7	Sololá	719	Santiago Atitlán	14	Cerro de Oro	3	Marzo	2023-03-13T00:00:00	2024-11-08T00:00:00	5	Humedad	87
136845	7	Sololá	719	Santiago Atitlán	14	Cerro de Oro	3	Marzo	2023-03-13T00:00:00	2024-11-08T00:00:00	6	Velocidad del viento	3.2
136846	7	Sololá	719	Santiago Atitlán	14	Cerro de Oro	3	Marzo	2023-03-13T00:00:00	2024-11-08T00:00:00	7	Dirección del viento	3.22
136847	7	Sololá	719	Santiago Atitlán	14	Cerro de Oro	3	Marzo	2023-03-13T00:00:00	2024-11-08T00:00:00	1	Precipitación	0
136848	7	Sololá	719	Santiago Atitlán	14	Cerro de Oro	3	Marzo	2023-03-13T00:00:00	2024-11-08T00:00:00	8	Radiación solar	0
136849	7	Sololá	719	Santiago Atitlán	14	Cerro de Oro	3	Marzo	2023-03-13T00:00:00	2024-11-08T01:00:00	2	Temperatura media	17.3
136850	7	Sololá	719	Santiago Atitlán	14	Cerro de Oro	3	Marzo	2023-03-13T00:00:00	2024-11-08T01:00:00	4	Temperatura máxima	17.4
136851	7	Sololá	719	Santiago Atitlán	14	Cerro de Oro	3	Marzo	2023-03-13T00:00:00	2024-11-08T01:00:00	3	Temperatura mínima	17.2
136852	7	Sololá	719	Santiago Atitlán	14	Cerro de Oro	3	Marzo	2023-03-13T00:00:00	2024-11-08T01:00:00	5	Humedad	86
136853	7	Sololá	719	Santiago Atitlán	14	Cerro de Oro	3	Marzo	2023-03-13T00:00:00	2024-11-08T01:00:00	6	Velocidad del viento	1.6
136854	7	Sololá	719	Santiago Atitlán	14	Cerro de Oro	3	Marzo	2023-03-13T00:00:00	2024-11-08T01:00:00	7	Dirección del viento	1.61
136855	7	Sololá	719	Santiago Atitlán	14	Cerro de Oro	3	Marzo	2023-03-13T00:00:00	2024-11-08T01:00:00	1	Precipitación	0
136856	7	Sololá	719	Santiago Atitlán	14	Cerro de Oro	3	Marzo	2023-03-13T00:00:00	2024-11-08T01:00:00	8	Radiación solar	0
136857	7	Sololá	719	Santiago Atitlán	14	Cerro de Oro	3	Marzo	2023-03-13T00:00:00	2024-11-08T02:00:00	2	Temperatura media	16.6
136858	7	Sololá	719	Santiago Atitlán	14	Cerro de Oro	3	Marzo	2023-03-13T00:00:00	2024-11-08T02:00:00	4	Temperatura máxima	17.3
136859	7	Sololá	719	Santiago Atitlán	14	Cerro de Oro	3	Marzo	2023-03-13T00:00:00	2024-11-08T02:00:00	3	Temperatura mínima	16.5
136860	7	Sololá	719	Santiago Atitlán	14	Cerro de Oro	3	Marzo	2023-03-13T00:00:00	2024-11-08T02:00:00	5	Humedad	89
136861	7	Sololá	719	Santiago Atitlán	14	Cerro de Oro	3	Marzo	2023-03-13T00:00:00	2024-11-08T02:00:00	6	Velocidad del viento	3.2
136862	7	Sololá	719	Santiago Atitlán	14	Cerro de Oro	3	Marzo	2023-03-13T00:00:00	2024-11-08T02:00:00	7	Dirección del viento	3.22
136863	7	Sololá	719	Santiago Atitlán	14	Cerro de Oro	3	Marzo	2023-03-13T00:00:00	2024-11-08T02:00:00	1	Precipitación	0
136864	7	Sololá	719	Santiago Atitlán	14	Cerro de Oro	3	Marzo	2023-03-13T00:00:00	2024-11-08T02:00:00	8	Radiación solar	0
136865	7	Sololá	719	Santiago Atitlán	14	Cerro de Oro	3	Marzo	2023-03-13T00:00:00	2024-11-08T03:00:00	2	Temperatura media	16.4
136866	7	Sololá	719	Santiago Atitlán	14	Cerro de Oro	3	Marzo	2023-03-13T00:00:00	2024-11-08T03:00:00	4	Temperatura máxima	16.7
136867	7	Sololá	719	Santiago Atitlán	14	Cerro de Oro	3	Marzo	2023-03-13T00:00:00	2024-11-08T03:00:00	3	Temperatura mínima	16.4
136868	7	Sololá	719	Santiago Atitlán	14	Cerro de Oro	3	Marzo	2023-03-13T00:00:00	2024-11-08T03:00:00	5	Humedad	87
136869	7	Sololá	719	Santiago Atitlán	14	Cerro de Oro	3	Marzo	2023-03-13T00:00:00	2024-11-08T03:00:00	6	Velocidad del viento	3.2
136870	7	Sololá	719	Santiago Atitlán	14	Cerro de Oro	3	Marzo	2023-03-13T00:00:00	2024-11-08T03:00:00	7	Dirección del viento	3.22
136871	7	Sololá	719	Santiago Atitlán	14	Cerro de Oro	3	Marzo	2023-03-13T00:00:00	2024-11-08T03:00:00	1	Precipitación	0
136872	7	Sololá	719	Santiago Atitlán	14	Cerro de Oro	3	Marzo	2023-03-13T00:00:00	2024-11-08T03:00:00	8	Radiación solar	0
136873	7	Sololá	719	Santiago Atitlán	14	Cerro de Oro	3	Marzo	2023-03-13T00:00:00	2024-11-08T04:00:00	2	Temperatura media	16.4
136874	7	Sololá	719	Santiago Atitlán	14	Cerro de Oro	3	Marzo	2023-03-13T00:00:00	2024-11-08T04:00:00	4	Temperatura máxima	16.7
136875	7	Sololá	719	Santiago Atitlán	14	Cerro de Oro	3	Marzo	2023-03-13T00:00:00	2024-11-08T04:00:00	3	Temperatura mínima	16.3
136876	7	Sololá	719	Santiago Atitlán	14	Cerro de Oro	3	Marzo	2023-03-13T00:00:00	2024-11-08T04:00:00	5	Humedad	85
136877	7	Sololá	719	Santiago Atitlán	14	Cerro de Oro	3	Marzo	2023-03-13T00:00:00	2024-11-08T04:00:00	6	Velocidad del viento	4.8
136878	7	Sololá	719	Santiago Atitlán	14	Cerro de Oro	3	Marzo	2023-03-13T00:00:00	2024-11-08T04:00:00	7	Dirección del viento	4.83
136879	7	Sololá	719	Santiago Atitlán	14	Cerro de Oro	3	Marzo	2023-03-13T00:00:00	2024-11-08T04:00:00	1	Precipitación	0
136880	7	Sololá	719	Santiago Atitlán	14	Cerro de Oro	3	Marzo	2023-03-13T00:00:00	2024-11-08T04:00:00	8	Radiación solar	0
136881	7	Sololá	719	Santiago Atitlán	14	Cerro de Oro	3	Marzo	2023-03-13T00:00:00	2024-11-08T05:00:00	2	Temperatura media	16.3
136882	7	Sololá	719	Santiago Atitlán	14	Cerro de Oro	3	Marzo	2023-03-13T00:00:00	2024-11-08T05:00:00	4	Temperatura máxima	16.6
136883	7	Sololá	719	Santiago Atitlán	14	Cerro de Oro	3	Marzo	2023-03-13T00:00:00	2024-11-08T05:00:00	3	Temperatura mínima	16.1
136884	7	Sololá	719	Santiago Atitlán	14	Cerro de Oro	3	Marzo	2023-03-13T00:00:00	2024-11-08T05:00:00	5	Humedad	84
136885	7	Sololá	719	Santiago Atitlán	14	Cerro de Oro	3	Marzo	2023-03-13T00:00:00	2024-11-08T05:00:00	6	Velocidad del viento	4.8
136886	7	Sololá	719	Santiago Atitlán	14	Cerro de Oro	3	Marzo	2023-03-13T00:00:00	2024-11-08T05:00:00	7	Dirección del viento	4.83
136887	7	Sololá	719	Santiago Atitlán	14	Cerro de Oro	3	Marzo	2023-03-13T00:00:00	2024-11-08T05:00:00	1	Precipitación	0
136888	7	Sololá	719	Santiago Atitlán	14	Cerro de Oro	3	Marzo	2023-03-13T00:00:00	2024-11-08T05:00:00	8	Radiación solar	0
136889	7	Sololá	719	Santiago Atitlán	14	Cerro de Oro	3	Marzo	2023-03-13T00:00:00	2024-11-08T06:00:00	2	Temperatura media	16
136890	7	Sololá	719	Santiago Atitlán	14	Cerro de Oro	3	Marzo	2023-03-13T00:00:00	2024-11-08T06:00:00	4	Temperatura máxima	16.3
136891	7	Sololá	719	Santiago Atitlán	14	Cerro de Oro	3	Marzo	2023-03-13T00:00:00	2024-11-08T06:00:00	3	Temperatura mínima	15.9
136892	7	Sololá	719	Santiago Atitlán	14	Cerro de Oro	3	Marzo	2023-03-13T00:00:00	2024-11-08T06:00:00	5	Humedad	86
136893	7	Sololá	719	Santiago Atitlán	14	Cerro de Oro	3	Marzo	2023-03-13T00:00:00	2024-11-08T06:00:00	6	Velocidad del viento	4.8
136894	7	Sololá	719	Santiago Atitlán	14	Cerro de Oro	3	Marzo	2023-03-13T00:00:00	2024-11-08T06:00:00	7	Dirección del viento	4.83
136895	7	Sololá	719	Santiago Atitlán	14	Cerro de Oro	3	Marzo	2023-03-13T00:00:00	2024-11-08T06:00:00	1	Precipitación	0
136896	7	Sololá	719	Santiago Atitlán	14	Cerro de Oro	3	Marzo	2023-03-13T00:00:00	2024-11-08T06:00:00	8	Radiación solar	0
136897	7	Sololá	719	Santiago Atitlán	14	Cerro de Oro	3	Marzo	2023-03-13T00:00:00	2024-11-08T07:00:00	2	Temperatura media	15.7
136898	7	Sololá	719	Santiago Atitlán	14	Cerro de Oro	3	Marzo	2023-03-13T00:00:00	2024-11-08T07:00:00	4	Temperatura máxima	16.2
136899	7	Sololá	719	Santiago Atitlán	14	Cerro de Oro	3	Marzo	2023-03-13T00:00:00	2024-11-08T07:00:00	3	Temperatura mínima	15.4
136900	7	Sololá	719	Santiago Atitlán	14	Cerro de Oro	3	Marzo	2023-03-13T00:00:00	2024-11-08T07:00:00	5	Humedad	85
136901	7	Sololá	719	Santiago Atitlán	14	Cerro de Oro	3	Marzo	2023-03-13T00:00:00	2024-11-08T07:00:00	6	Velocidad del viento	3.2
136902	7	Sololá	719	Santiago Atitlán	14	Cerro de Oro	3	Marzo	2023-03-13T00:00:00	2024-11-08T07:00:00	7	Dirección del viento	3.22
136903	7	Sololá	719	Santiago Atitlán	14	Cerro de Oro	3	Marzo	2023-03-13T00:00:00	2024-11-08T07:00:00	1	Precipitación	0
136904	7	Sololá	719	Santiago Atitlán	14	Cerro de Oro	3	Marzo	2023-03-13T00:00:00	2024-11-08T07:00:00	8	Radiación solar	0
136905	7	Sololá	719	Santiago Atitlán	14	Cerro de Oro	3	Marzo	2023-03-13T00:00:00	2024-11-08T08:00:00	2	Temperatura media	16.2
136906	7	Sololá	719	Santiago Atitlán	14	Cerro de Oro	3	Marzo	2023-03-13T00:00:00	2024-11-08T08:00:00	4	Temperatura máxima	16.2
136907	7	Sololá	719	Santiago Atitlán	14	Cerro de Oro	3	Marzo	2023-03-13T00:00:00	2024-11-08T08:00:00	3	Temperatura mínima	15.6
136908	7	Sololá	719	Santiago Atitlán	14	Cerro de Oro	3	Marzo	2023-03-13T00:00:00	2024-11-08T08:00:00	5	Humedad	86
136909	7	Sololá	719	Santiago Atitlán	14	Cerro de Oro	3	Marzo	2023-03-13T00:00:00	2024-11-08T08:00:00	6	Velocidad del viento	3.2
136910	7	Sololá	719	Santiago Atitlán	14	Cerro de Oro	3	Marzo	2023-03-13T00:00:00	2024-11-08T08:00:00	7	Dirección del viento	3.22
136911	7	Sololá	719	Santiago Atitlán	14	Cerro de Oro	3	Marzo	2023-03-13T00:00:00	2024-11-08T08:00:00	1	Precipitación	0
136912	7	Sololá	719	Santiago Atitlán	14	Cerro de Oro	3	Marzo	2023-03-13T00:00:00	2024-11-08T08:00:00	8	Radiación solar	26
136913	7	Sololá	719	Santiago Atitlán	14	Cerro de Oro	3	Marzo	2023-03-13T00:00:00	2024-11-08T09:00:00	2	Temperatura media	18.3
136914	7	Sololá	719	Santiago Atitlán	14	Cerro de Oro	3	Marzo	2023-03-13T00:00:00	2024-11-08T09:00:00	4	Temperatura máxima	18.3
136915	7	Sololá	719	Santiago Atitlán	14	Cerro de Oro	3	Marzo	2023-03-13T00:00:00	2024-11-08T09:00:00	3	Temperatura mínima	16.2
136916	7	Sololá	719	Santiago Atitlán	14	Cerro de Oro	3	Marzo	2023-03-13T00:00:00	2024-11-08T09:00:00	5	Humedad	79
136917	7	Sololá	719	Santiago Atitlán	14	Cerro de Oro	3	Marzo	2023-03-13T00:00:00	2024-11-08T09:00:00	6	Velocidad del viento	3.2
136918	7	Sololá	719	Santiago Atitlán	14	Cerro de Oro	3	Marzo	2023-03-13T00:00:00	2024-11-08T09:00:00	7	Dirección del viento	3.22
136919	7	Sololá	719	Santiago Atitlán	14	Cerro de Oro	3	Marzo	2023-03-13T00:00:00	2024-11-08T09:00:00	1	Precipitación	0
136920	7	Sololá	719	Santiago Atitlán	14	Cerro de Oro	3	Marzo	2023-03-13T00:00:00	2024-11-08T09:00:00	8	Radiación solar	195
136921	7	Sololá	719	Santiago Atitlán	14	Cerro de Oro	3	Marzo	2023-03-13T00:00:00	2024-11-08T10:00:00	2	Temperatura media	19.2
136922	7	Sololá	719	Santiago Atitlán	14	Cerro de Oro	3	Marzo	2023-03-13T00:00:00	2024-11-08T10:00:00	4	Temperatura máxima	19.2
136923	7	Sololá	719	Santiago Atitlán	14	Cerro de Oro	3	Marzo	2023-03-13T00:00:00	2024-11-08T10:00:00	3	Temperatura mínima	18.3
136924	7	Sololá	719	Santiago Atitlán	14	Cerro de Oro	3	Marzo	2023-03-13T00:00:00	2024-11-08T10:00:00	5	Humedad	79
136925	7	Sololá	719	Santiago Atitlán	14	Cerro de Oro	3	Marzo	2023-03-13T00:00:00	2024-11-08T10:00:00	6	Velocidad del viento	4.8
136926	7	Sololá	719	Santiago Atitlán	14	Cerro de Oro	3	Marzo	2023-03-13T00:00:00	2024-11-08T10:00:00	7	Dirección del viento	4.83
136927	7	Sololá	719	Santiago Atitlán	14	Cerro de Oro	3	Marzo	2023-03-13T00:00:00	2024-11-08T10:00:00	1	Precipitación	0
136928	7	Sololá	719	Santiago Atitlán	14	Cerro de Oro	3	Marzo	2023-03-13T00:00:00	2024-11-08T10:00:00	8	Radiación solar	431
136929	7	Sololá	719	Santiago Atitlán	14	Cerro de Oro	3	Marzo	2023-03-13T00:00:00	2024-11-08T11:00:00	2	Temperatura media	20.4
136930	7	Sololá	719	Santiago Atitlán	14	Cerro de Oro	3	Marzo	2023-03-13T00:00:00	2024-11-08T11:00:00	4	Temperatura máxima	20.6
136931	7	Sololá	719	Santiago Atitlán	14	Cerro de Oro	3	Marzo	2023-03-13T00:00:00	2024-11-08T11:00:00	3	Temperatura mínima	19.2
136932	7	Sololá	719	Santiago Atitlán	14	Cerro de Oro	3	Marzo	2023-03-13T00:00:00	2024-11-08T11:00:00	5	Humedad	74
136933	7	Sololá	719	Santiago Atitlán	14	Cerro de Oro	3	Marzo	2023-03-13T00:00:00	2024-11-08T11:00:00	6	Velocidad del viento	4.8
136934	7	Sololá	719	Santiago Atitlán	14	Cerro de Oro	3	Marzo	2023-03-13T00:00:00	2024-11-08T11:00:00	7	Dirección del viento	4.83
136935	7	Sololá	719	Santiago Atitlán	14	Cerro de Oro	3	Marzo	2023-03-13T00:00:00	2024-11-08T11:00:00	1	Precipitación	0
136936	7	Sololá	719	Santiago Atitlán	14	Cerro de Oro	3	Marzo	2023-03-13T00:00:00	2024-11-08T11:00:00	8	Radiación solar	658
136937	7	Sololá	719	Santiago Atitlán	14	Cerro de Oro	3	Marzo	2023-03-13T00:00:00	2024-11-08T12:00:00	2	Temperatura media	21.9
136938	7	Sololá	719	Santiago Atitlán	14	Cerro de Oro	3	Marzo	2023-03-13T00:00:00	2024-11-08T12:00:00	4	Temperatura máxima	22.2
136939	7	Sololá	719	Santiago Atitlán	14	Cerro de Oro	3	Marzo	2023-03-13T00:00:00	2024-11-08T12:00:00	3	Temperatura mínima	20.3
136940	7	Sololá	719	Santiago Atitlán	14	Cerro de Oro	3	Marzo	2023-03-13T00:00:00	2024-11-08T12:00:00	5	Humedad	72
136941	7	Sololá	719	Santiago Atitlán	14	Cerro de Oro	3	Marzo	2023-03-13T00:00:00	2024-11-08T12:00:00	6	Velocidad del viento	8
136942	7	Sololá	719	Santiago Atitlán	14	Cerro de Oro	3	Marzo	2023-03-13T00:00:00	2024-11-08T12:00:00	7	Dirección del viento	8.05
136943	7	Sololá	719	Santiago Atitlán	14	Cerro de Oro	3	Marzo	2023-03-13T00:00:00	2024-11-08T12:00:00	1	Precipitación	0
136944	7	Sololá	719	Santiago Atitlán	14	Cerro de Oro	3	Marzo	2023-03-13T00:00:00	2024-11-08T12:00:00	8	Radiación solar	828
136945	7	Sololá	719	Santiago Atitlán	14	Cerro de Oro	3	Marzo	2023-03-13T00:00:00	2024-11-08T13:00:00	2	Temperatura media	21.7
136946	7	Sololá	719	Santiago Atitlán	14	Cerro de Oro	3	Marzo	2023-03-13T00:00:00	2024-11-08T13:00:00	4	Temperatura máxima	22.3
136947	7	Sololá	719	Santiago Atitlán	14	Cerro de Oro	3	Marzo	2023-03-13T00:00:00	2024-11-08T13:00:00	3	Temperatura mínima	21
136948	7	Sololá	719	Santiago Atitlán	14	Cerro de Oro	3	Marzo	2023-03-13T00:00:00	2024-11-08T13:00:00	5	Humedad	74
136949	7	Sololá	719	Santiago Atitlán	14	Cerro de Oro	3	Marzo	2023-03-13T00:00:00	2024-11-08T13:00:00	6	Velocidad del viento	11.3
136950	7	Sololá	719	Santiago Atitlán	14	Cerro de Oro	3	Marzo	2023-03-13T00:00:00	2024-11-08T13:00:00	7	Dirección del viento	11.27
136951	7	Sololá	719	Santiago Atitlán	14	Cerro de Oro	3	Marzo	2023-03-13T00:00:00	2024-11-08T13:00:00	1	Precipitación	0
136952	7	Sololá	719	Santiago Atitlán	14	Cerro de Oro	3	Marzo	2023-03-13T00:00:00	2024-11-08T13:00:00	8	Radiación solar	667
136953	7	Sololá	719	Santiago Atitlán	14	Cerro de Oro	3	Marzo	2023-03-13T00:00:00	2024-11-08T14:00:00	2	Temperatura media	20.9
136954	7	Sololá	719	Santiago Atitlán	14	Cerro de Oro	3	Marzo	2023-03-13T00:00:00	2024-11-08T14:00:00	4	Temperatura máxima	21.7
136955	7	Sololá	719	Santiago Atitlán	14	Cerro de Oro	3	Marzo	2023-03-13T00:00:00	2024-11-08T14:00:00	3	Temperatura mínima	20.8
136956	7	Sololá	719	Santiago Atitlán	14	Cerro de Oro	3	Marzo	2023-03-13T00:00:00	2024-11-08T14:00:00	5	Humedad	75
136957	7	Sololá	719	Santiago Atitlán	14	Cerro de Oro	3	Marzo	2023-03-13T00:00:00	2024-11-08T14:00:00	6	Velocidad del viento	11.3
136958	7	Sololá	719	Santiago Atitlán	14	Cerro de Oro	3	Marzo	2023-03-13T00:00:00	2024-11-08T14:00:00	7	Dirección del viento	11.27
136959	7	Sololá	719	Santiago Atitlán	14	Cerro de Oro	3	Marzo	2023-03-13T00:00:00	2024-11-08T14:00:00	1	Precipitación	0
136960	7	Sololá	719	Santiago Atitlán	14	Cerro de Oro	3	Marzo	2023-03-13T00:00:00	2024-11-08T14:00:00	8	Radiación solar	400
136961	7	Sololá	719	Santiago Atitlán	14	Cerro de Oro	3	Marzo	2023-03-13T00:00:00	2024-11-08T15:00:00	2	Temperatura media	20.4
136962	7	Sololá	719	Santiago Atitlán	14	Cerro de Oro	3	Marzo	2023-03-13T00:00:00	2024-11-08T15:00:00	4	Temperatura máxima	21.2
136963	7	Sololá	719	Santiago Atitlán	14	Cerro de Oro	3	Marzo	2023-03-13T00:00:00	2024-11-08T15:00:00	3	Temperatura mínima	20.4
136964	7	Sololá	719	Santiago Atitlán	14	Cerro de Oro	3	Marzo	2023-03-13T00:00:00	2024-11-08T15:00:00	5	Humedad	79
136965	7	Sololá	719	Santiago Atitlán	14	Cerro de Oro	3	Marzo	2023-03-13T00:00:00	2024-11-08T15:00:00	6	Velocidad del viento	11.3
136966	7	Sololá	719	Santiago Atitlán	14	Cerro de Oro	3	Marzo	2023-03-13T00:00:00	2024-11-08T15:00:00	7	Dirección del viento	11.27
136967	7	Sololá	719	Santiago Atitlán	14	Cerro de Oro	3	Marzo	2023-03-13T00:00:00	2024-11-08T15:00:00	1	Precipitación	0
136968	7	Sololá	719	Santiago Atitlán	14	Cerro de Oro	3	Marzo	2023-03-13T00:00:00	2024-11-08T15:00:00	8	Radiación solar	280
136969	7	Sololá	719	Santiago Atitlán	14	Cerro de Oro	3	Marzo	2023-03-13T00:00:00	2024-11-08T16:00:00	2	Temperatura media	19.8
136970	7	Sololá	719	Santiago Atitlán	14	Cerro de Oro	3	Marzo	2023-03-13T00:00:00	2024-11-08T16:00:00	4	Temperatura máxima	20.6
136971	7	Sololá	719	Santiago Atitlán	14	Cerro de Oro	3	Marzo	2023-03-13T00:00:00	2024-11-08T16:00:00	3	Temperatura mínima	19.7
136972	7	Sololá	719	Santiago Atitlán	14	Cerro de Oro	3	Marzo	2023-03-13T00:00:00	2024-11-08T16:00:00	5	Humedad	82
136973	7	Sololá	719	Santiago Atitlán	14	Cerro de Oro	3	Marzo	2023-03-13T00:00:00	2024-11-08T16:00:00	6	Velocidad del viento	11.3
136974	7	Sololá	719	Santiago Atitlán	14	Cerro de Oro	3	Marzo	2023-03-13T00:00:00	2024-11-08T16:00:00	7	Dirección del viento	11.27
136975	7	Sololá	719	Santiago Atitlán	14	Cerro de Oro	3	Marzo	2023-03-13T00:00:00	2024-11-08T16:00:00	1	Precipitación	0
136976	7	Sololá	719	Santiago Atitlán	14	Cerro de Oro	3	Marzo	2023-03-13T00:00:00	2024-11-08T16:00:00	8	Radiación solar	115
136977	7	Sololá	719	Santiago Atitlán	14	Cerro de Oro	3	Marzo	2023-03-13T00:00:00	2024-11-08T17:00:00	2	Temperatura media	19.5
136978	7	Sololá	719	Santiago Atitlán	14	Cerro de Oro	3	Marzo	2023-03-13T00:00:00	2024-11-08T17:00:00	4	Temperatura máxima	19.9
136979	7	Sololá	719	Santiago Atitlán	14	Cerro de Oro	3	Marzo	2023-03-13T00:00:00	2024-11-08T17:00:00	3	Temperatura mínima	19.4
136980	7	Sololá	719	Santiago Atitlán	14	Cerro de Oro	3	Marzo	2023-03-13T00:00:00	2024-11-08T17:00:00	5	Humedad	83
136981	7	Sololá	719	Santiago Atitlán	14	Cerro de Oro	3	Marzo	2023-03-13T00:00:00	2024-11-08T17:00:00	6	Velocidad del viento	9.7
136982	7	Sololá	719	Santiago Atitlán	14	Cerro de Oro	3	Marzo	2023-03-13T00:00:00	2024-11-08T17:00:00	7	Dirección del viento	9.66
136983	7	Sololá	719	Santiago Atitlán	14	Cerro de Oro	3	Marzo	2023-03-13T00:00:00	2024-11-08T17:00:00	1	Precipitación	0
136984	7	Sololá	719	Santiago Atitlán	14	Cerro de Oro	3	Marzo	2023-03-13T00:00:00	2024-11-08T17:00:00	8	Radiación solar	127
136985	7	Sololá	719	Santiago Atitlán	14	Cerro de Oro	3	Marzo	2023-03-13T00:00:00	2024-11-08T18:00:00	2	Temperatura media	19.2
136986	7	Sololá	719	Santiago Atitlán	14	Cerro de Oro	3	Marzo	2023-03-13T00:00:00	2024-11-08T18:00:00	4	Temperatura máxima	19.5
136987	7	Sololá	719	Santiago Atitlán	14	Cerro de Oro	3	Marzo	2023-03-13T00:00:00	2024-11-08T18:00:00	3	Temperatura mínima	19.1
136988	7	Sololá	719	Santiago Atitlán	14	Cerro de Oro	3	Marzo	2023-03-13T00:00:00	2024-11-08T18:00:00	5	Humedad	83
136989	7	Sololá	719	Santiago Atitlán	14	Cerro de Oro	3	Marzo	2023-03-13T00:00:00	2024-11-08T18:00:00	6	Velocidad del viento	9.7
136990	7	Sololá	719	Santiago Atitlán	14	Cerro de Oro	3	Marzo	2023-03-13T00:00:00	2024-11-08T18:00:00	7	Dirección del viento	9.66
136991	7	Sololá	719	Santiago Atitlán	14	Cerro de Oro	3	Marzo	2023-03-13T00:00:00	2024-11-08T18:00:00	1	Precipitación	0
136992	7	Sololá	719	Santiago Atitlán	14	Cerro de Oro	3	Marzo	2023-03-13T00:00:00	2024-11-08T18:00:00	8	Radiación solar	68
136993	7	Sololá	719	Santiago Atitlán	14	Cerro de Oro	3	Marzo	2023-03-13T00:00:00	2024-11-08T19:00:00	2	Temperatura media	19.3
136994	7	Sololá	719	Santiago Atitlán	14	Cerro de Oro	3	Marzo	2023-03-13T00:00:00	2024-11-08T19:00:00	4	Temperatura máxima	19.3
136995	7	Sololá	719	Santiago Atitlán	14	Cerro de Oro	3	Marzo	2023-03-13T00:00:00	2024-11-08T19:00:00	3	Temperatura mínima	19.1
136996	7	Sololá	719	Santiago Atitlán	14	Cerro de Oro	3	Marzo	2023-03-13T00:00:00	2024-11-08T19:00:00	5	Humedad	84
136997	7	Sololá	719	Santiago Atitlán	14	Cerro de Oro	3	Marzo	2023-03-13T00:00:00	2024-11-08T19:00:00	6	Velocidad del viento	4.8
136998	7	Sololá	719	Santiago Atitlán	14	Cerro de Oro	3	Marzo	2023-03-13T00:00:00	2024-11-08T19:00:00	7	Dirección del viento	4.83
136999	7	Sololá	719	Santiago Atitlán	14	Cerro de Oro	3	Marzo	2023-03-13T00:00:00	2024-11-08T19:00:00	1	Precipitación	0
137000	7	Sololá	719	Santiago Atitlán	14	Cerro de Oro	3	Marzo	2023-03-13T00:00:00	2024-11-08T19:00:00	8	Radiación solar	0
137001	7	Sololá	719	Santiago Atitlán	14	Cerro de Oro	3	Marzo	2023-03-13T00:00:00	2024-11-08T20:00:00	2	Temperatura media	18.5
137002	7	Sololá	719	Santiago Atitlán	14	Cerro de Oro	3	Marzo	2023-03-13T00:00:00	2024-11-08T20:00:00	4	Temperatura máxima	19.4
137003	7	Sololá	719	Santiago Atitlán	14	Cerro de Oro	3	Marzo	2023-03-13T00:00:00	2024-11-08T20:00:00	3	Temperatura mínima	18.4
137004	7	Sololá	719	Santiago Atitlán	14	Cerro de Oro	3	Marzo	2023-03-13T00:00:00	2024-11-08T20:00:00	5	Humedad	87
137005	7	Sololá	719	Santiago Atitlán	14	Cerro de Oro	3	Marzo	2023-03-13T00:00:00	2024-11-08T20:00:00	6	Velocidad del viento	3.2
137006	7	Sololá	719	Santiago Atitlán	14	Cerro de Oro	3	Marzo	2023-03-13T00:00:00	2024-11-08T20:00:00	7	Dirección del viento	3.22
137007	7	Sololá	719	Santiago Atitlán	14	Cerro de Oro	3	Marzo	2023-03-13T00:00:00	2024-11-08T20:00:00	1	Precipitación	0
137008	7	Sololá	719	Santiago Atitlán	14	Cerro de Oro	3	Marzo	2023-03-13T00:00:00	2024-11-08T20:00:00	8	Radiación solar	0
137009	7	Sololá	719	Santiago Atitlán	14	Cerro de Oro	3	Marzo	2023-03-13T00:00:00	2024-11-08T21:00:00	2	Temperatura media	18.2
137010	7	Sololá	719	Santiago Atitlán	14	Cerro de Oro	3	Marzo	2023-03-13T00:00:00	2024-11-08T21:00:00	4	Temperatura máxima	18.5
137011	7	Sololá	719	Santiago Atitlán	14	Cerro de Oro	3	Marzo	2023-03-13T00:00:00	2024-11-08T21:00:00	3	Temperatura mínima	18.2
137012	7	Sololá	719	Santiago Atitlán	14	Cerro de Oro	3	Marzo	2023-03-13T00:00:00	2024-11-08T21:00:00	5	Humedad	87
137013	7	Sololá	719	Santiago Atitlán	14	Cerro de Oro	3	Marzo	2023-03-13T00:00:00	2024-11-08T21:00:00	6	Velocidad del viento	6.4
137014	7	Sololá	719	Santiago Atitlán	14	Cerro de Oro	3	Marzo	2023-03-13T00:00:00	2024-11-08T21:00:00	7	Dirección del viento	6.44
137015	7	Sololá	719	Santiago Atitlán	14	Cerro de Oro	3	Marzo	2023-03-13T00:00:00	2024-11-08T21:00:00	1	Precipitación	0
137016	7	Sololá	719	Santiago Atitlán	14	Cerro de Oro	3	Marzo	2023-03-13T00:00:00	2024-11-08T21:00:00	8	Radiación solar	0
137017	7	Sololá	719	Santiago Atitlán	14	Cerro de Oro	3	Marzo	2023-03-13T00:00:00	2024-11-08T22:00:00	2	Temperatura media	17.7
137018	7	Sololá	719	Santiago Atitlán	14	Cerro de Oro	3	Marzo	2023-03-13T00:00:00	2024-11-08T22:00:00	4	Temperatura máxima	18.2
137019	7	Sololá	719	Santiago Atitlán	14	Cerro de Oro	3	Marzo	2023-03-13T00:00:00	2024-11-08T22:00:00	3	Temperatura mínima	17.6
137020	7	Sololá	719	Santiago Atitlán	14	Cerro de Oro	3	Marzo	2023-03-13T00:00:00	2024-11-08T22:00:00	5	Humedad	90
137021	7	Sololá	719	Santiago Atitlán	14	Cerro de Oro	3	Marzo	2023-03-13T00:00:00	2024-11-08T22:00:00	6	Velocidad del viento	6.4
137022	7	Sololá	719	Santiago Atitlán	14	Cerro de Oro	3	Marzo	2023-03-13T00:00:00	2024-11-08T22:00:00	7	Dirección del viento	6.44
137023	7	Sololá	719	Santiago Atitlán	14	Cerro de Oro	3	Marzo	2023-03-13T00:00:00	2024-11-08T22:00:00	1	Precipitación	0
137024	7	Sololá	719	Santiago Atitlán	14	Cerro de Oro	3	Marzo	2023-03-13T00:00:00	2024-11-08T22:00:00	8	Radiación solar	0
137025	7	Sololá	719	Santiago Atitlán	14	Cerro de Oro	3	Marzo	2023-03-13T00:00:00	2024-11-08T23:00:00	2	Temperatura media	17.2
137026	7	Sololá	719	Santiago Atitlán	14	Cerro de Oro	3	Marzo	2023-03-13T00:00:00	2024-11-08T23:00:00	4	Temperatura máxima	17.8
137027	7	Sololá	719	Santiago Atitlán	14	Cerro de Oro	3	Marzo	2023-03-13T00:00:00	2024-11-08T23:00:00	3	Temperatura mínima	17.1
137028	7	Sololá	719	Santiago Atitlán	14	Cerro de Oro	3	Marzo	2023-03-13T00:00:00	2024-11-08T23:00:00	5	Humedad	91
137029	7	Sololá	719	Santiago Atitlán	14	Cerro de Oro	3	Marzo	2023-03-13T00:00:00	2024-11-08T23:00:00	6	Velocidad del viento	6.4
137030	7	Sololá	719	Santiago Atitlán	14	Cerro de Oro	3	Marzo	2023-03-13T00:00:00	2024-11-08T23:00:00	7	Dirección del viento	6.44
137031	7	Sololá	719	Santiago Atitlán	14	Cerro de Oro	3	Marzo	2023-03-13T00:00:00	2024-11-08T23:00:00	1	Precipitación	0
137032	7	Sololá	719	Santiago Atitlán	14	Cerro de Oro	3	Marzo	2023-03-13T00:00:00	2024-11-08T23:00:00	8	Radiación solar	0
137033	7	Sololá	719	Santiago Atitlán	14	Cerro de Oro	3	Marzo	2023-03-14T00:00:00	2024-11-08T00:00:00	2	Temperatura media	17.7
137034	7	Sololá	719	Santiago Atitlán	14	Cerro de Oro	3	Marzo	2023-03-14T00:00:00	2024-11-08T00:00:00	4	Temperatura máxima	17.7
137035	7	Sololá	719	Santiago Atitlán	14	Cerro de Oro	3	Marzo	2023-03-14T00:00:00	2024-11-08T00:00:00	3	Temperatura mínima	17.1
137036	7	Sololá	719	Santiago Atitlán	14	Cerro de Oro	3	Marzo	2023-03-14T00:00:00	2024-11-08T00:00:00	5	Humedad	87
137037	7	Sololá	719	Santiago Atitlán	14	Cerro de Oro	3	Marzo	2023-03-14T00:00:00	2024-11-08T00:00:00	6	Velocidad del viento	3.2
137038	7	Sololá	719	Santiago Atitlán	14	Cerro de Oro	3	Marzo	2023-03-14T00:00:00	2024-11-08T00:00:00	7	Dirección del viento	3.22
137039	7	Sololá	719	Santiago Atitlán	14	Cerro de Oro	3	Marzo	2023-03-14T00:00:00	2024-11-08T00:00:00	1	Precipitación	0
137040	7	Sololá	719	Santiago Atitlán	14	Cerro de Oro	3	Marzo	2023-03-14T00:00:00	2024-11-08T00:00:00	8	Radiación solar	0
137041	7	Sololá	719	Santiago Atitlán	14	Cerro de Oro	3	Marzo	2023-03-14T00:00:00	2024-11-08T01:00:00	2	Temperatura media	16.9
137042	7	Sololá	719	Santiago Atitlán	14	Cerro de Oro	3	Marzo	2023-03-14T00:00:00	2024-11-08T01:00:00	4	Temperatura máxima	17.8
137043	7	Sololá	719	Santiago Atitlán	14	Cerro de Oro	3	Marzo	2023-03-14T00:00:00	2024-11-08T01:00:00	3	Temperatura mínima	16.9
137044	7	Sololá	719	Santiago Atitlán	14	Cerro de Oro	3	Marzo	2023-03-14T00:00:00	2024-11-08T01:00:00	5	Humedad	90
137045	7	Sololá	719	Santiago Atitlán	14	Cerro de Oro	3	Marzo	2023-03-14T00:00:00	2024-11-08T01:00:00	6	Velocidad del viento	1.6
137046	7	Sololá	719	Santiago Atitlán	14	Cerro de Oro	3	Marzo	2023-03-14T00:00:00	2024-11-08T01:00:00	7	Dirección del viento	1.61
137047	7	Sololá	719	Santiago Atitlán	14	Cerro de Oro	3	Marzo	2023-03-14T00:00:00	2024-11-08T01:00:00	1	Precipitación	0
137048	7	Sololá	719	Santiago Atitlán	14	Cerro de Oro	3	Marzo	2023-03-14T00:00:00	2024-11-08T01:00:00	8	Radiación solar	0
137049	7	Sololá	719	Santiago Atitlán	14	Cerro de Oro	3	Marzo	2023-03-14T00:00:00	2024-11-08T02:00:00	2	Temperatura media	17.1
137050	7	Sololá	719	Santiago Atitlán	14	Cerro de Oro	3	Marzo	2023-03-14T00:00:00	2024-11-08T02:00:00	4	Temperatura máxima	17.3
137051	7	Sololá	719	Santiago Atitlán	14	Cerro de Oro	3	Marzo	2023-03-14T00:00:00	2024-11-08T02:00:00	3	Temperatura mínima	16.7
137052	7	Sololá	719	Santiago Atitlán	14	Cerro de Oro	3	Marzo	2023-03-14T00:00:00	2024-11-08T02:00:00	5	Humedad	88
137053	7	Sololá	719	Santiago Atitlán	14	Cerro de Oro	3	Marzo	2023-03-14T00:00:00	2024-11-08T02:00:00	6	Velocidad del viento	4.8
137054	7	Sololá	719	Santiago Atitlán	14	Cerro de Oro	3	Marzo	2023-03-14T00:00:00	2024-11-08T02:00:00	7	Dirección del viento	4.83
137055	7	Sololá	719	Santiago Atitlán	14	Cerro de Oro	3	Marzo	2023-03-14T00:00:00	2024-11-08T02:00:00	1	Precipitación	0
137056	7	Sololá	719	Santiago Atitlán	14	Cerro de Oro	3	Marzo	2023-03-14T00:00:00	2024-11-08T02:00:00	8	Radiación solar	0
137057	7	Sololá	719	Santiago Atitlán	14	Cerro de Oro	3	Marzo	2023-03-14T00:00:00	2024-11-08T03:00:00	2	Temperatura media	17
137058	7	Sololá	719	Santiago Atitlán	14	Cerro de Oro	3	Marzo	2023-03-14T00:00:00	2024-11-08T03:00:00	4	Temperatura máxima	17.2
137059	7	Sololá	719	Santiago Atitlán	14	Cerro de Oro	3	Marzo	2023-03-14T00:00:00	2024-11-08T03:00:00	3	Temperatura mínima	16.7
137060	7	Sololá	719	Santiago Atitlán	14	Cerro de Oro	3	Marzo	2023-03-14T00:00:00	2024-11-08T03:00:00	5	Humedad	84
137061	7	Sololá	719	Santiago Atitlán	14	Cerro de Oro	3	Marzo	2023-03-14T00:00:00	2024-11-08T03:00:00	6	Velocidad del viento	4.8
137062	7	Sololá	719	Santiago Atitlán	14	Cerro de Oro	3	Marzo	2023-03-14T00:00:00	2024-11-08T03:00:00	7	Dirección del viento	4.83
137063	7	Sololá	719	Santiago Atitlán	14	Cerro de Oro	3	Marzo	2023-03-14T00:00:00	2024-11-08T03:00:00	1	Precipitación	0
137064	7	Sololá	719	Santiago Atitlán	14	Cerro de Oro	3	Marzo	2023-03-14T00:00:00	2024-11-08T03:00:00	8	Radiación solar	0
137065	7	Sololá	719	Santiago Atitlán	14	Cerro de Oro	3	Marzo	2023-03-14T00:00:00	2024-11-08T04:00:00	2	Temperatura media	17
137066	7	Sololá	719	Santiago Atitlán	14	Cerro de Oro	3	Marzo	2023-03-14T00:00:00	2024-11-08T04:00:00	4	Temperatura máxima	17.1
137067	7	Sololá	719	Santiago Atitlán	14	Cerro de Oro	3	Marzo	2023-03-14T00:00:00	2024-11-08T04:00:00	3	Temperatura mínima	16.9
137068	7	Sololá	719	Santiago Atitlán	14	Cerro de Oro	3	Marzo	2023-03-14T00:00:00	2024-11-08T04:00:00	5	Humedad	87
137069	7	Sololá	719	Santiago Atitlán	14	Cerro de Oro	3	Marzo	2023-03-14T00:00:00	2024-11-08T04:00:00	6	Velocidad del viento	4.8
137070	7	Sololá	719	Santiago Atitlán	14	Cerro de Oro	3	Marzo	2023-03-14T00:00:00	2024-11-08T04:00:00	7	Dirección del viento	4.83
137071	7	Sololá	719	Santiago Atitlán	14	Cerro de Oro	3	Marzo	2023-03-14T00:00:00	2024-11-08T04:00:00	1	Precipitación	0
137072	7	Sololá	719	Santiago Atitlán	14	Cerro de Oro	3	Marzo	2023-03-14T00:00:00	2024-11-08T04:00:00	8	Radiación solar	0
137073	7	Sololá	719	Santiago Atitlán	14	Cerro de Oro	3	Marzo	2023-03-14T00:00:00	2024-11-08T05:00:00	2	Temperatura media	16.8
137074	7	Sololá	719	Santiago Atitlán	14	Cerro de Oro	3	Marzo	2023-03-14T00:00:00	2024-11-08T05:00:00	4	Temperatura máxima	17
137075	7	Sololá	719	Santiago Atitlán	14	Cerro de Oro	3	Marzo	2023-03-14T00:00:00	2024-11-08T05:00:00	3	Temperatura mínima	16.8
137076	7	Sololá	719	Santiago Atitlán	14	Cerro de Oro	3	Marzo	2023-03-14T00:00:00	2024-11-08T05:00:00	5	Humedad	88
137077	7	Sololá	719	Santiago Atitlán	14	Cerro de Oro	3	Marzo	2023-03-14T00:00:00	2024-11-08T05:00:00	6	Velocidad del viento	3.2
137078	7	Sololá	719	Santiago Atitlán	14	Cerro de Oro	3	Marzo	2023-03-14T00:00:00	2024-11-08T05:00:00	7	Dirección del viento	3.22
137079	7	Sololá	719	Santiago Atitlán	14	Cerro de Oro	3	Marzo	2023-03-14T00:00:00	2024-11-08T05:00:00	1	Precipitación	0
137080	7	Sololá	719	Santiago Atitlán	14	Cerro de Oro	3	Marzo	2023-03-14T00:00:00	2024-11-08T05:00:00	8	Radiación solar	0
137081	7	Sololá	719	Santiago Atitlán	14	Cerro de Oro	3	Marzo	2023-03-14T00:00:00	2024-11-08T06:00:00	2	Temperatura media	17.3
137082	7	Sololá	719	Santiago Atitlán	14	Cerro de Oro	3	Marzo	2023-03-14T00:00:00	2024-11-08T06:00:00	4	Temperatura máxima	17.3
137083	7	Sololá	719	Santiago Atitlán	14	Cerro de Oro	3	Marzo	2023-03-14T00:00:00	2024-11-08T06:00:00	3	Temperatura mínima	16.8
137084	7	Sololá	719	Santiago Atitlán	14	Cerro de Oro	3	Marzo	2023-03-14T00:00:00	2024-11-08T06:00:00	5	Humedad	88
137085	7	Sololá	719	Santiago Atitlán	14	Cerro de Oro	3	Marzo	2023-03-14T00:00:00	2024-11-08T06:00:00	6	Velocidad del viento	3.2
137086	7	Sololá	719	Santiago Atitlán	14	Cerro de Oro	3	Marzo	2023-03-14T00:00:00	2024-11-08T06:00:00	7	Dirección del viento	3.22
137087	7	Sololá	719	Santiago Atitlán	14	Cerro de Oro	3	Marzo	2023-03-14T00:00:00	2024-11-08T06:00:00	1	Precipitación	0
137088	7	Sololá	719	Santiago Atitlán	14	Cerro de Oro	3	Marzo	2023-03-14T00:00:00	2024-11-08T06:00:00	8	Radiación solar	0
137089	7	Sololá	719	Santiago Atitlán	14	Cerro de Oro	3	Marzo	2023-03-14T00:00:00	2024-11-08T07:00:00	2	Temperatura media	17
137090	7	Sololá	719	Santiago Atitlán	14	Cerro de Oro	3	Marzo	2023-03-14T00:00:00	2024-11-08T07:00:00	4	Temperatura máxima	17.4
137091	7	Sololá	719	Santiago Atitlán	14	Cerro de Oro	3	Marzo	2023-03-14T00:00:00	2024-11-08T07:00:00	3	Temperatura mínima	17
137092	7	Sololá	719	Santiago Atitlán	14	Cerro de Oro	3	Marzo	2023-03-14T00:00:00	2024-11-08T07:00:00	5	Humedad	86
137093	7	Sololá	719	Santiago Atitlán	14	Cerro de Oro	3	Marzo	2023-03-14T00:00:00	2024-11-08T07:00:00	6	Velocidad del viento	3.2
137094	7	Sololá	719	Santiago Atitlán	14	Cerro de Oro	3	Marzo	2023-03-14T00:00:00	2024-11-08T07:00:00	7	Dirección del viento	3.22
137095	7	Sololá	719	Santiago Atitlán	14	Cerro de Oro	3	Marzo	2023-03-14T00:00:00	2024-11-08T07:00:00	1	Precipitación	0
137096	7	Sololá	719	Santiago Atitlán	14	Cerro de Oro	3	Marzo	2023-03-14T00:00:00	2024-11-08T07:00:00	8	Radiación solar	22
137097	7	Sololá	719	Santiago Atitlán	14	Cerro de Oro	3	Marzo	2023-03-14T00:00:00	2024-11-08T08:00:00	2	Temperatura media	17.6
137098	7	Sololá	719	Santiago Atitlán	14	Cerro de Oro	3	Marzo	2023-03-14T00:00:00	2024-11-08T08:00:00	4	Temperatura máxima	17.6
137099	7	Sololá	719	Santiago Atitlán	14	Cerro de Oro	3	Marzo	2023-03-14T00:00:00	2024-11-08T08:00:00	3	Temperatura mínima	16.8
137100	7	Sololá	719	Santiago Atitlán	14	Cerro de Oro	3	Marzo	2023-03-14T00:00:00	2024-11-08T08:00:00	5	Humedad	86
137101	7	Sololá	719	Santiago Atitlán	14	Cerro de Oro	3	Marzo	2023-03-14T00:00:00	2024-11-08T08:00:00	6	Velocidad del viento	3.2
137102	7	Sololá	719	Santiago Atitlán	14	Cerro de Oro	3	Marzo	2023-03-14T00:00:00	2024-11-08T08:00:00	7	Dirección del viento	3.22
137103	7	Sololá	719	Santiago Atitlán	14	Cerro de Oro	3	Marzo	2023-03-14T00:00:00	2024-11-08T08:00:00	1	Precipitación	0
137104	7	Sololá	719	Santiago Atitlán	14	Cerro de Oro	3	Marzo	2023-03-14T00:00:00	2024-11-08T08:00:00	8	Radiación solar	159
137105	7	Sololá	719	Santiago Atitlán	14	Cerro de Oro	3	Marzo	2023-03-14T00:00:00	2024-11-08T09:00:00	2	Temperatura media	20.1
137106	7	Sololá	719	Santiago Atitlán	14	Cerro de Oro	3	Marzo	2023-03-14T00:00:00	2024-11-08T09:00:00	4	Temperatura máxima	20.1
137107	7	Sololá	719	Santiago Atitlán	14	Cerro de Oro	3	Marzo	2023-03-14T00:00:00	2024-11-08T09:00:00	3	Temperatura mínima	17.5
137108	7	Sololá	719	Santiago Atitlán	14	Cerro de Oro	3	Marzo	2023-03-14T00:00:00	2024-11-08T09:00:00	5	Humedad	73
137109	7	Sololá	719	Santiago Atitlán	14	Cerro de Oro	3	Marzo	2023-03-14T00:00:00	2024-11-08T09:00:00	6	Velocidad del viento	3.2
137110	7	Sololá	719	Santiago Atitlán	14	Cerro de Oro	3	Marzo	2023-03-14T00:00:00	2024-11-08T09:00:00	7	Dirección del viento	3.22
137111	7	Sololá	719	Santiago Atitlán	14	Cerro de Oro	3	Marzo	2023-03-14T00:00:00	2024-11-08T09:00:00	1	Precipitación	0
137112	7	Sololá	719	Santiago Atitlán	14	Cerro de Oro	3	Marzo	2023-03-14T00:00:00	2024-11-08T09:00:00	8	Radiación solar	409
137113	7	Sololá	719	Santiago Atitlán	14	Cerro de Oro	3	Marzo	2023-03-14T00:00:00	2024-11-08T10:00:00	2	Temperatura media	20.6
137114	7	Sololá	719	Santiago Atitlán	14	Cerro de Oro	3	Marzo	2023-03-14T00:00:00	2024-11-08T10:00:00	4	Temperatura máxima	20.7
137115	7	Sololá	719	Santiago Atitlán	14	Cerro de Oro	3	Marzo	2023-03-14T00:00:00	2024-11-08T10:00:00	3	Temperatura mínima	20.1
137116	7	Sololá	719	Santiago Atitlán	14	Cerro de Oro	3	Marzo	2023-03-14T00:00:00	2024-11-08T10:00:00	5	Humedad	77
137117	7	Sololá	719	Santiago Atitlán	14	Cerro de Oro	3	Marzo	2023-03-14T00:00:00	2024-11-08T10:00:00	6	Velocidad del viento	4.8
137118	7	Sololá	719	Santiago Atitlán	14	Cerro de Oro	3	Marzo	2023-03-14T00:00:00	2024-11-08T10:00:00	7	Dirección del viento	4.83
137119	7	Sololá	719	Santiago Atitlán	14	Cerro de Oro	3	Marzo	2023-03-14T00:00:00	2024-11-08T10:00:00	1	Precipitación	0
137120	7	Sololá	719	Santiago Atitlán	14	Cerro de Oro	3	Marzo	2023-03-14T00:00:00	2024-11-08T10:00:00	8	Radiación solar	645
137121	7	Sololá	719	Santiago Atitlán	14	Cerro de Oro	3	Marzo	2023-03-14T00:00:00	2024-11-08T11:00:00	2	Temperatura media	21.4
137122	7	Sololá	719	Santiago Atitlán	14	Cerro de Oro	3	Marzo	2023-03-14T00:00:00	2024-11-08T11:00:00	4	Temperatura máxima	21.4
137123	7	Sololá	719	Santiago Atitlán	14	Cerro de Oro	3	Marzo	2023-03-14T00:00:00	2024-11-08T11:00:00	3	Temperatura mínima	20.5
137124	7	Sololá	719	Santiago Atitlán	14	Cerro de Oro	3	Marzo	2023-03-14T00:00:00	2024-11-08T11:00:00	5	Humedad	74
137125	7	Sololá	719	Santiago Atitlán	14	Cerro de Oro	3	Marzo	2023-03-14T00:00:00	2024-11-08T11:00:00	6	Velocidad del viento	6.4
137126	7	Sololá	719	Santiago Atitlán	14	Cerro de Oro	3	Marzo	2023-03-14T00:00:00	2024-11-08T11:00:00	7	Dirección del viento	6.44
137127	7	Sololá	719	Santiago Atitlán	14	Cerro de Oro	3	Marzo	2023-03-14T00:00:00	2024-11-08T11:00:00	1	Precipitación	0
137128	7	Sololá	719	Santiago Atitlán	14	Cerro de Oro	3	Marzo	2023-03-14T00:00:00	2024-11-08T11:00:00	8	Radiación solar	802
137129	7	Sololá	719	Santiago Atitlán	14	Cerro de Oro	3	Marzo	2023-03-14T00:00:00	2024-11-08T12:00:00	2	Temperatura media	23.4
137130	7	Sololá	719	Santiago Atitlán	14	Cerro de Oro	3	Marzo	2023-03-14T00:00:00	2024-11-08T12:00:00	4	Temperatura máxima	23.5
137131	7	Sololá	719	Santiago Atitlán	14	Cerro de Oro	3	Marzo	2023-03-14T00:00:00	2024-11-08T12:00:00	3	Temperatura mínima	21.4
137132	7	Sololá	719	Santiago Atitlán	14	Cerro de Oro	3	Marzo	2023-03-14T00:00:00	2024-11-08T12:00:00	5	Humedad	70
137133	7	Sololá	719	Santiago Atitlán	14	Cerro de Oro	3	Marzo	2023-03-14T00:00:00	2024-11-08T12:00:00	6	Velocidad del viento	6.4
137134	7	Sololá	719	Santiago Atitlán	14	Cerro de Oro	3	Marzo	2023-03-14T00:00:00	2024-11-08T12:00:00	7	Dirección del viento	6.44
137135	7	Sololá	719	Santiago Atitlán	14	Cerro de Oro	3	Marzo	2023-03-14T00:00:00	2024-11-08T12:00:00	1	Precipitación	0
137136	7	Sololá	719	Santiago Atitlán	14	Cerro de Oro	3	Marzo	2023-03-14T00:00:00	2024-11-08T12:00:00	8	Radiación solar	854
137137	7	Sololá	719	Santiago Atitlán	14	Cerro de Oro	3	Marzo	2023-03-14T00:00:00	2024-11-08T13:00:00	2	Temperatura media	23.2
137138	7	Sololá	719	Santiago Atitlán	14	Cerro de Oro	3	Marzo	2023-03-14T00:00:00	2024-11-08T13:00:00	4	Temperatura máxima	23.6
137139	7	Sololá	719	Santiago Atitlán	14	Cerro de Oro	3	Marzo	2023-03-14T00:00:00	2024-11-08T13:00:00	3	Temperatura mínima	22.9
137140	7	Sololá	719	Santiago Atitlán	14	Cerro de Oro	3	Marzo	2023-03-14T00:00:00	2024-11-08T13:00:00	5	Humedad	72
137141	7	Sololá	719	Santiago Atitlán	14	Cerro de Oro	3	Marzo	2023-03-14T00:00:00	2024-11-08T13:00:00	6	Velocidad del viento	12.9
137142	7	Sololá	719	Santiago Atitlán	14	Cerro de Oro	3	Marzo	2023-03-14T00:00:00	2024-11-08T13:00:00	7	Dirección del viento	12.87
137143	7	Sololá	719	Santiago Atitlán	14	Cerro de Oro	3	Marzo	2023-03-14T00:00:00	2024-11-08T13:00:00	1	Precipitación	0
137144	7	Sololá	719	Santiago Atitlán	14	Cerro de Oro	3	Marzo	2023-03-14T00:00:00	2024-11-08T13:00:00	8	Radiación solar	871
137145	7	Sololá	719	Santiago Atitlán	14	Cerro de Oro	3	Marzo	2023-03-14T00:00:00	2024-11-08T14:00:00	2	Temperatura media	22.8
137146	7	Sololá	719	Santiago Atitlán	14	Cerro de Oro	3	Marzo	2023-03-14T00:00:00	2024-11-08T14:00:00	4	Temperatura máxima	23.8
137147	7	Sololá	719	Santiago Atitlán	14	Cerro de Oro	3	Marzo	2023-03-14T00:00:00	2024-11-08T14:00:00	3	Temperatura mínima	22.8
137148	7	Sololá	719	Santiago Atitlán	14	Cerro de Oro	3	Marzo	2023-03-14T00:00:00	2024-11-08T14:00:00	5	Humedad	70
137149	7	Sololá	719	Santiago Atitlán	14	Cerro de Oro	3	Marzo	2023-03-14T00:00:00	2024-11-08T14:00:00	6	Velocidad del viento	14.5
137150	7	Sololá	719	Santiago Atitlán	14	Cerro de Oro	3	Marzo	2023-03-14T00:00:00	2024-11-08T14:00:00	7	Dirección del viento	14.48
137151	7	Sololá	719	Santiago Atitlán	14	Cerro de Oro	3	Marzo	2023-03-14T00:00:00	2024-11-08T14:00:00	1	Precipitación	0
137152	7	Sololá	719	Santiago Atitlán	14	Cerro de Oro	3	Marzo	2023-03-14T00:00:00	2024-11-08T14:00:00	8	Radiación solar	368
137153	7	Sololá	719	Santiago Atitlán	14	Cerro de Oro	3	Marzo	2023-03-14T00:00:00	2024-11-08T15:00:00	2	Temperatura media	21.9
137154	7	Sololá	719	Santiago Atitlán	14	Cerro de Oro	3	Marzo	2023-03-14T00:00:00	2024-11-08T15:00:00	4	Temperatura máxima	23.1
137155	7	Sololá	719	Santiago Atitlán	14	Cerro de Oro	3	Marzo	2023-03-14T00:00:00	2024-11-08T15:00:00	3	Temperatura mínima	21.8
137156	7	Sololá	719	Santiago Atitlán	14	Cerro de Oro	3	Marzo	2023-03-14T00:00:00	2024-11-08T15:00:00	5	Humedad	75
137157	7	Sololá	719	Santiago Atitlán	14	Cerro de Oro	3	Marzo	2023-03-14T00:00:00	2024-11-08T15:00:00	6	Velocidad del viento	14.5
137158	7	Sololá	719	Santiago Atitlán	14	Cerro de Oro	3	Marzo	2023-03-14T00:00:00	2024-11-08T15:00:00	7	Dirección del viento	14.48
137159	7	Sololá	719	Santiago Atitlán	14	Cerro de Oro	3	Marzo	2023-03-14T00:00:00	2024-11-08T15:00:00	1	Precipitación	0
137160	7	Sololá	719	Santiago Atitlán	14	Cerro de Oro	3	Marzo	2023-03-14T00:00:00	2024-11-08T15:00:00	8	Radiación solar	236
137161	7	Sololá	719	Santiago Atitlán	14	Cerro de Oro	3	Marzo	2023-03-14T00:00:00	2024-11-08T16:00:00	2	Temperatura media	21
137162	7	Sololá	719	Santiago Atitlán	14	Cerro de Oro	3	Marzo	2023-03-14T00:00:00	2024-11-08T16:00:00	4	Temperatura máxima	22.6
137163	7	Sololá	719	Santiago Atitlán	14	Cerro de Oro	3	Marzo	2023-03-14T00:00:00	2024-11-08T16:00:00	3	Temperatura mínima	20.9
137164	7	Sololá	719	Santiago Atitlán	14	Cerro de Oro	3	Marzo	2023-03-14T00:00:00	2024-11-08T16:00:00	5	Humedad	80
137165	7	Sololá	719	Santiago Atitlán	14	Cerro de Oro	3	Marzo	2023-03-14T00:00:00	2024-11-08T16:00:00	6	Velocidad del viento	11.3
137166	7	Sololá	719	Santiago Atitlán	14	Cerro de Oro	3	Marzo	2023-03-14T00:00:00	2024-11-08T16:00:00	7	Dirección del viento	11.27
137167	7	Sololá	719	Santiago Atitlán	14	Cerro de Oro	3	Marzo	2023-03-14T00:00:00	2024-11-08T16:00:00	1	Precipitación	0
137168	7	Sololá	719	Santiago Atitlán	14	Cerro de Oro	3	Marzo	2023-03-14T00:00:00	2024-11-08T16:00:00	8	Radiación solar	132
137169	7	Sololá	719	Santiago Atitlán	14	Cerro de Oro	3	Marzo	2023-03-14T00:00:00	2024-11-08T17:00:00	2	Temperatura media	20.6
137170	7	Sololá	719	Santiago Atitlán	14	Cerro de Oro	3	Marzo	2023-03-14T00:00:00	2024-11-08T17:00:00	4	Temperatura máxima	21
137171	7	Sololá	719	Santiago Atitlán	14	Cerro de Oro	3	Marzo	2023-03-14T00:00:00	2024-11-08T17:00:00	3	Temperatura mínima	20.4
137172	7	Sololá	719	Santiago Atitlán	14	Cerro de Oro	3	Marzo	2023-03-14T00:00:00	2024-11-08T17:00:00	5	Humedad	81
137173	7	Sololá	719	Santiago Atitlán	14	Cerro de Oro	3	Marzo	2023-03-14T00:00:00	2024-11-08T17:00:00	6	Velocidad del viento	9.7
137174	7	Sololá	719	Santiago Atitlán	14	Cerro de Oro	3	Marzo	2023-03-14T00:00:00	2024-11-08T17:00:00	7	Dirección del viento	9.66
137175	7	Sololá	719	Santiago Atitlán	14	Cerro de Oro	3	Marzo	2023-03-14T00:00:00	2024-11-08T17:00:00	1	Precipitación	0
137176	7	Sololá	719	Santiago Atitlán	14	Cerro de Oro	3	Marzo	2023-03-14T00:00:00	2024-11-08T17:00:00	8	Radiación solar	174
137177	7	Sololá	719	Santiago Atitlán	14	Cerro de Oro	3	Marzo	2023-03-14T00:00:00	2024-11-08T18:00:00	2	Temperatura media	20.7
137178	7	Sololá	719	Santiago Atitlán	14	Cerro de Oro	3	Marzo	2023-03-14T00:00:00	2024-11-08T18:00:00	4	Temperatura máxima	21.2
137179	7	Sololá	719	Santiago Atitlán	14	Cerro de Oro	3	Marzo	2023-03-14T00:00:00	2024-11-08T18:00:00	3	Temperatura mínima	20.6
137180	7	Sololá	719	Santiago Atitlán	14	Cerro de Oro	3	Marzo	2023-03-14T00:00:00	2024-11-08T18:00:00	5	Humedad	82
137181	7	Sololá	719	Santiago Atitlán	14	Cerro de Oro	3	Marzo	2023-03-14T00:00:00	2024-11-08T18:00:00	6	Velocidad del viento	6.4
137182	7	Sololá	719	Santiago Atitlán	14	Cerro de Oro	3	Marzo	2023-03-14T00:00:00	2024-11-08T18:00:00	7	Dirección del viento	6.44
137183	7	Sololá	719	Santiago Atitlán	14	Cerro de Oro	3	Marzo	2023-03-14T00:00:00	2024-11-08T18:00:00	1	Precipitación	0
137184	7	Sololá	719	Santiago Atitlán	14	Cerro de Oro	3	Marzo	2023-03-14T00:00:00	2024-11-08T18:00:00	8	Radiación solar	46
137185	7	Sololá	719	Santiago Atitlán	14	Cerro de Oro	3	Marzo	2023-03-14T00:00:00	2024-11-08T19:00:00	2	Temperatura media	19.8
137186	7	Sololá	719	Santiago Atitlán	14	Cerro de Oro	3	Marzo	2023-03-14T00:00:00	2024-11-08T19:00:00	4	Temperatura máxima	20.7
137187	7	Sololá	719	Santiago Atitlán	14	Cerro de Oro	3	Marzo	2023-03-14T00:00:00	2024-11-08T19:00:00	3	Temperatura mínima	19.8
137188	7	Sololá	719	Santiago Atitlán	14	Cerro de Oro	3	Marzo	2023-03-14T00:00:00	2024-11-08T19:00:00	5	Humedad	85
137189	7	Sololá	719	Santiago Atitlán	14	Cerro de Oro	3	Marzo	2023-03-14T00:00:00	2024-11-08T19:00:00	6	Velocidad del viento	6.4
137190	7	Sololá	719	Santiago Atitlán	14	Cerro de Oro	3	Marzo	2023-03-14T00:00:00	2024-11-08T19:00:00	7	Dirección del viento	6.44
137191	7	Sololá	719	Santiago Atitlán	14	Cerro de Oro	3	Marzo	2023-03-14T00:00:00	2024-11-08T19:00:00	1	Precipitación	0
137192	7	Sololá	719	Santiago Atitlán	14	Cerro de Oro	3	Marzo	2023-03-14T00:00:00	2024-11-08T19:00:00	8	Radiación solar	0
137193	7	Sololá	719	Santiago Atitlán	14	Cerro de Oro	3	Marzo	2023-03-14T00:00:00	2024-11-08T20:00:00	2	Temperatura media	19.1
137194	7	Sololá	719	Santiago Atitlán	14	Cerro de Oro	3	Marzo	2023-03-14T00:00:00	2024-11-08T20:00:00	4	Temperatura máxima	19.8
137195	7	Sololá	719	Santiago Atitlán	14	Cerro de Oro	3	Marzo	2023-03-14T00:00:00	2024-11-08T20:00:00	3	Temperatura mínima	19.1
137196	7	Sololá	719	Santiago Atitlán	14	Cerro de Oro	3	Marzo	2023-03-14T00:00:00	2024-11-08T20:00:00	5	Humedad	87
137197	7	Sololá	719	Santiago Atitlán	14	Cerro de Oro	3	Marzo	2023-03-14T00:00:00	2024-11-08T20:00:00	6	Velocidad del viento	8
137198	7	Sololá	719	Santiago Atitlán	14	Cerro de Oro	3	Marzo	2023-03-14T00:00:00	2024-11-08T20:00:00	7	Dirección del viento	8.05
137199	7	Sololá	719	Santiago Atitlán	14	Cerro de Oro	3	Marzo	2023-03-14T00:00:00	2024-11-08T20:00:00	1	Precipitación	0
137200	7	Sololá	719	Santiago Atitlán	14	Cerro de Oro	3	Marzo	2023-03-14T00:00:00	2024-11-08T20:00:00	8	Radiación solar	0
137201	7	Sololá	719	Santiago Atitlán	14	Cerro de Oro	3	Marzo	2023-03-14T00:00:00	2024-11-08T21:00:00	2	Temperatura media	18.4
137202	7	Sololá	719	Santiago Atitlán	14	Cerro de Oro	3	Marzo	2023-03-14T00:00:00	2024-11-08T21:00:00	4	Temperatura máxima	19.1
137203	7	Sololá	719	Santiago Atitlán	14	Cerro de Oro	3	Marzo	2023-03-14T00:00:00	2024-11-08T21:00:00	3	Temperatura mínima	18.4
137204	7	Sololá	719	Santiago Atitlán	14	Cerro de Oro	3	Marzo	2023-03-14T00:00:00	2024-11-08T21:00:00	5	Humedad	89
137205	7	Sololá	719	Santiago Atitlán	14	Cerro de Oro	3	Marzo	2023-03-14T00:00:00	2024-11-08T21:00:00	6	Velocidad del viento	4.8
137206	7	Sololá	719	Santiago Atitlán	14	Cerro de Oro	3	Marzo	2023-03-14T00:00:00	2024-11-08T21:00:00	7	Dirección del viento	4.83
137207	7	Sololá	719	Santiago Atitlán	14	Cerro de Oro	3	Marzo	2023-03-14T00:00:00	2024-11-08T21:00:00	1	Precipitación	0
137208	7	Sololá	719	Santiago Atitlán	14	Cerro de Oro	3	Marzo	2023-03-14T00:00:00	2024-11-08T21:00:00	8	Radiación solar	0
137209	7	Sololá	719	Santiago Atitlán	14	Cerro de Oro	3	Marzo	2023-03-14T00:00:00	2024-11-08T22:00:00	2	Temperatura media	18.6
137210	7	Sololá	719	Santiago Atitlán	14	Cerro de Oro	3	Marzo	2023-03-14T00:00:00	2024-11-08T22:00:00	4	Temperatura máxima	18.7
137211	7	Sololá	719	Santiago Atitlán	14	Cerro de Oro	3	Marzo	2023-03-14T00:00:00	2024-11-08T22:00:00	3	Temperatura mínima	18.2
137212	7	Sololá	719	Santiago Atitlán	14	Cerro de Oro	3	Marzo	2023-03-14T00:00:00	2024-11-08T22:00:00	5	Humedad	85
137213	7	Sololá	719	Santiago Atitlán	14	Cerro de Oro	3	Marzo	2023-03-14T00:00:00	2024-11-08T22:00:00	6	Velocidad del viento	3.2
137214	7	Sololá	719	Santiago Atitlán	14	Cerro de Oro	3	Marzo	2023-03-14T00:00:00	2024-11-08T22:00:00	7	Dirección del viento	3.22
137215	7	Sololá	719	Santiago Atitlán	14	Cerro de Oro	3	Marzo	2023-03-14T00:00:00	2024-11-08T22:00:00	1	Precipitación	0
137216	7	Sololá	719	Santiago Atitlán	14	Cerro de Oro	3	Marzo	2023-03-14T00:00:00	2024-11-08T22:00:00	8	Radiación solar	0
137217	7	Sololá	719	Santiago Atitlán	14	Cerro de Oro	3	Marzo	2023-03-14T00:00:00	2024-11-08T23:00:00	2	Temperatura media	17.6
137218	7	Sololá	719	Santiago Atitlán	14	Cerro de Oro	3	Marzo	2023-03-14T00:00:00	2024-11-08T23:00:00	4	Temperatura máxima	18.6
137219	7	Sololá	719	Santiago Atitlán	14	Cerro de Oro	3	Marzo	2023-03-14T00:00:00	2024-11-08T23:00:00	3	Temperatura mínima	17.6
137220	7	Sololá	719	Santiago Atitlán	14	Cerro de Oro	3	Marzo	2023-03-14T00:00:00	2024-11-08T23:00:00	5	Humedad	88
137221	7	Sololá	719	Santiago Atitlán	14	Cerro de Oro	3	Marzo	2023-03-14T00:00:00	2024-11-08T23:00:00	6	Velocidad del viento	4.8
137222	7	Sololá	719	Santiago Atitlán	14	Cerro de Oro	3	Marzo	2023-03-14T00:00:00	2024-11-08T23:00:00	7	Dirección del viento	4.83
137223	7	Sololá	719	Santiago Atitlán	14	Cerro de Oro	3	Marzo	2023-03-14T00:00:00	2024-11-08T23:00:00	1	Precipitación	0
137224	7	Sololá	719	Santiago Atitlán	14	Cerro de Oro	3	Marzo	2023-03-14T00:00:00	2024-11-08T23:00:00	8	Radiación solar	0
137225	7	Sololá	719	Santiago Atitlán	14	Cerro de Oro	3	Marzo	2023-03-15T00:00:00	2024-11-08T00:00:00	2	Temperatura media	17.6
137226	7	Sololá	719	Santiago Atitlán	14	Cerro de Oro	3	Marzo	2023-03-15T00:00:00	2024-11-08T00:00:00	4	Temperatura máxima	18.1
137227	7	Sololá	719	Santiago Atitlán	14	Cerro de Oro	3	Marzo	2023-03-15T00:00:00	2024-11-08T00:00:00	3	Temperatura mínima	17.5
137228	7	Sololá	719	Santiago Atitlán	14	Cerro de Oro	3	Marzo	2023-03-15T00:00:00	2024-11-08T00:00:00	5	Humedad	90
137229	7	Sololá	719	Santiago Atitlán	14	Cerro de Oro	3	Marzo	2023-03-15T00:00:00	2024-11-08T00:00:00	6	Velocidad del viento	3.2
137230	7	Sololá	719	Santiago Atitlán	14	Cerro de Oro	3	Marzo	2023-03-15T00:00:00	2024-11-08T00:00:00	7	Dirección del viento	3.22
137231	7	Sololá	719	Santiago Atitlán	14	Cerro de Oro	3	Marzo	2023-03-15T00:00:00	2024-11-08T00:00:00	1	Precipitación	0
137232	7	Sololá	719	Santiago Atitlán	14	Cerro de Oro	3	Marzo	2023-03-15T00:00:00	2024-11-08T00:00:00	8	Radiación solar	0
137233	7	Sololá	719	Santiago Atitlán	14	Cerro de Oro	3	Marzo	2023-03-15T00:00:00	2024-11-08T01:00:00	2	Temperatura media	17.8
137234	7	Sololá	719	Santiago Atitlán	14	Cerro de Oro	3	Marzo	2023-03-15T00:00:00	2024-11-08T01:00:00	4	Temperatura máxima	17.9
137235	7	Sololá	719	Santiago Atitlán	14	Cerro de Oro	3	Marzo	2023-03-15T00:00:00	2024-11-08T01:00:00	3	Temperatura mínima	17.6
137236	7	Sololá	719	Santiago Atitlán	14	Cerro de Oro	3	Marzo	2023-03-15T00:00:00	2024-11-08T01:00:00	5	Humedad	81
137237	7	Sololá	719	Santiago Atitlán	14	Cerro de Oro	3	Marzo	2023-03-15T00:00:00	2024-11-08T01:00:00	6	Velocidad del viento	4.8
137238	7	Sololá	719	Santiago Atitlán	14	Cerro de Oro	3	Marzo	2023-03-15T00:00:00	2024-11-08T01:00:00	7	Dirección del viento	4.83
137239	7	Sololá	719	Santiago Atitlán	14	Cerro de Oro	3	Marzo	2023-03-15T00:00:00	2024-11-08T01:00:00	1	Precipitación	0
137240	7	Sololá	719	Santiago Atitlán	14	Cerro de Oro	3	Marzo	2023-03-15T00:00:00	2024-11-08T01:00:00	8	Radiación solar	0
137241	7	Sololá	719	Santiago Atitlán	14	Cerro de Oro	3	Marzo	2023-03-15T00:00:00	2024-11-08T02:00:00	2	Temperatura media	17.4
137242	7	Sololá	719	Santiago Atitlán	14	Cerro de Oro	3	Marzo	2023-03-15T00:00:00	2024-11-08T02:00:00	4	Temperatura máxima	17.9
137243	7	Sololá	719	Santiago Atitlán	14	Cerro de Oro	3	Marzo	2023-03-15T00:00:00	2024-11-08T02:00:00	3	Temperatura mínima	17.3
137244	7	Sololá	719	Santiago Atitlán	14	Cerro de Oro	3	Marzo	2023-03-15T00:00:00	2024-11-08T02:00:00	5	Humedad	84
137245	7	Sololá	719	Santiago Atitlán	14	Cerro de Oro	3	Marzo	2023-03-15T00:00:00	2024-11-08T02:00:00	6	Velocidad del viento	4.8
137246	7	Sololá	719	Santiago Atitlán	14	Cerro de Oro	3	Marzo	2023-03-15T00:00:00	2024-11-08T02:00:00	7	Dirección del viento	4.83
137247	7	Sololá	719	Santiago Atitlán	14	Cerro de Oro	3	Marzo	2023-03-15T00:00:00	2024-11-08T02:00:00	1	Precipitación	0
137248	7	Sololá	719	Santiago Atitlán	14	Cerro de Oro	3	Marzo	2023-03-15T00:00:00	2024-11-08T02:00:00	8	Radiación solar	0
137249	7	Sololá	719	Santiago Atitlán	14	Cerro de Oro	3	Marzo	2023-03-15T00:00:00	2024-11-08T03:00:00	2	Temperatura media	17.1
137250	7	Sololá	719	Santiago Atitlán	14	Cerro de Oro	3	Marzo	2023-03-15T00:00:00	2024-11-08T03:00:00	4	Temperatura máxima	17.4
137251	7	Sololá	719	Santiago Atitlán	14	Cerro de Oro	3	Marzo	2023-03-15T00:00:00	2024-11-08T03:00:00	3	Temperatura mínima	16.9
137252	7	Sololá	719	Santiago Atitlán	14	Cerro de Oro	3	Marzo	2023-03-15T00:00:00	2024-11-08T03:00:00	5	Humedad	81
137253	7	Sololá	719	Santiago Atitlán	14	Cerro de Oro	3	Marzo	2023-03-15T00:00:00	2024-11-08T03:00:00	6	Velocidad del viento	3.2
137254	7	Sololá	719	Santiago Atitlán	14	Cerro de Oro	3	Marzo	2023-03-15T00:00:00	2024-11-08T03:00:00	7	Dirección del viento	3.22
137255	7	Sololá	719	Santiago Atitlán	14	Cerro de Oro	3	Marzo	2023-03-15T00:00:00	2024-11-08T03:00:00	1	Precipitación	0
137256	7	Sololá	719	Santiago Atitlán	14	Cerro de Oro	3	Marzo	2023-03-15T00:00:00	2024-11-08T03:00:00	8	Radiación solar	0
137257	7	Sololá	719	Santiago Atitlán	14	Cerro de Oro	3	Marzo	2023-03-15T00:00:00	2024-11-08T04:00:00	2	Temperatura media	16.6
137258	7	Sololá	719	Santiago Atitlán	14	Cerro de Oro	3	Marzo	2023-03-15T00:00:00	2024-11-08T04:00:00	4	Temperatura máxima	17.2
137259	7	Sololá	719	Santiago Atitlán	14	Cerro de Oro	3	Marzo	2023-03-15T00:00:00	2024-11-08T04:00:00	3	Temperatura mínima	16.5
137260	7	Sololá	719	Santiago Atitlán	14	Cerro de Oro	3	Marzo	2023-03-15T00:00:00	2024-11-08T04:00:00	5	Humedad	79
137261	7	Sololá	719	Santiago Atitlán	14	Cerro de Oro	3	Marzo	2023-03-15T00:00:00	2024-11-08T04:00:00	6	Velocidad del viento	3.2
137262	7	Sololá	719	Santiago Atitlán	14	Cerro de Oro	3	Marzo	2023-03-15T00:00:00	2024-11-08T04:00:00	7	Dirección del viento	3.22
137263	7	Sololá	719	Santiago Atitlán	14	Cerro de Oro	3	Marzo	2023-03-15T00:00:00	2024-11-08T04:00:00	1	Precipitación	0
137264	7	Sololá	719	Santiago Atitlán	14	Cerro de Oro	3	Marzo	2023-03-15T00:00:00	2024-11-08T04:00:00	8	Radiación solar	0
137265	7	Sololá	719	Santiago Atitlán	14	Cerro de Oro	3	Marzo	2023-03-15T00:00:00	2024-11-08T05:00:00	2	Temperatura media	16.5
137266	7	Sololá	719	Santiago Atitlán	14	Cerro de Oro	3	Marzo	2023-03-15T00:00:00	2024-11-08T05:00:00	4	Temperatura máxima	16.9
137267	7	Sololá	719	Santiago Atitlán	14	Cerro de Oro	3	Marzo	2023-03-15T00:00:00	2024-11-08T05:00:00	3	Temperatura mínima	16.2
137268	7	Sololá	719	Santiago Atitlán	14	Cerro de Oro	3	Marzo	2023-03-15T00:00:00	2024-11-08T05:00:00	5	Humedad	84
137269	7	Sololá	719	Santiago Atitlán	14	Cerro de Oro	3	Marzo	2023-03-15T00:00:00	2024-11-08T05:00:00	6	Velocidad del viento	6.4
137270	7	Sololá	719	Santiago Atitlán	14	Cerro de Oro	3	Marzo	2023-03-15T00:00:00	2024-11-08T05:00:00	7	Dirección del viento	6.44
137271	7	Sololá	719	Santiago Atitlán	14	Cerro de Oro	3	Marzo	2023-03-15T00:00:00	2024-11-08T05:00:00	1	Precipitación	0
137272	7	Sololá	719	Santiago Atitlán	14	Cerro de Oro	3	Marzo	2023-03-15T00:00:00	2024-11-08T05:00:00	8	Radiación solar	0
137273	7	Sololá	719	Santiago Atitlán	14	Cerro de Oro	3	Marzo	2023-03-15T00:00:00	2024-11-08T06:00:00	2	Temperatura media	16.9
137274	7	Sololá	719	Santiago Atitlán	14	Cerro de Oro	3	Marzo	2023-03-15T00:00:00	2024-11-08T06:00:00	4	Temperatura máxima	17
137275	7	Sololá	719	Santiago Atitlán	14	Cerro de Oro	3	Marzo	2023-03-15T00:00:00	2024-11-08T06:00:00	3	Temperatura mínima	16.3
137276	7	Sololá	719	Santiago Atitlán	14	Cerro de Oro	3	Marzo	2023-03-15T00:00:00	2024-11-08T06:00:00	5	Humedad	81
137277	7	Sololá	719	Santiago Atitlán	14	Cerro de Oro	3	Marzo	2023-03-15T00:00:00	2024-11-08T06:00:00	6	Velocidad del viento	4.8
137278	7	Sololá	719	Santiago Atitlán	14	Cerro de Oro	3	Marzo	2023-03-15T00:00:00	2024-11-08T06:00:00	7	Dirección del viento	4.83
137279	7	Sololá	719	Santiago Atitlán	14	Cerro de Oro	3	Marzo	2023-03-15T00:00:00	2024-11-08T06:00:00	1	Precipitación	0
137280	7	Sololá	719	Santiago Atitlán	14	Cerro de Oro	3	Marzo	2023-03-15T00:00:00	2024-11-08T06:00:00	8	Radiación solar	0
137281	7	Sololá	719	Santiago Atitlán	14	Cerro de Oro	3	Marzo	2023-03-15T00:00:00	2024-11-08T07:00:00	2	Temperatura media	16.8
137282	7	Sololá	719	Santiago Atitlán	14	Cerro de Oro	3	Marzo	2023-03-15T00:00:00	2024-11-08T07:00:00	4	Temperatura máxima	17.1
137283	7	Sololá	719	Santiago Atitlán	14	Cerro de Oro	3	Marzo	2023-03-15T00:00:00	2024-11-08T07:00:00	3	Temperatura mínima	16.7
137284	7	Sololá	719	Santiago Atitlán	14	Cerro de Oro	3	Marzo	2023-03-15T00:00:00	2024-11-08T07:00:00	5	Humedad	81
137285	7	Sololá	719	Santiago Atitlán	14	Cerro de Oro	3	Marzo	2023-03-15T00:00:00	2024-11-08T07:00:00	6	Velocidad del viento	3.2
137286	7	Sololá	719	Santiago Atitlán	14	Cerro de Oro	3	Marzo	2023-03-15T00:00:00	2024-11-08T07:00:00	7	Dirección del viento	3.22
137287	7	Sololá	719	Santiago Atitlán	14	Cerro de Oro	3	Marzo	2023-03-15T00:00:00	2024-11-08T07:00:00	1	Precipitación	0
137288	7	Sololá	719	Santiago Atitlán	14	Cerro de Oro	3	Marzo	2023-03-15T00:00:00	2024-11-08T07:00:00	8	Radiación solar	28
137289	7	Sololá	719	Santiago Atitlán	14	Cerro de Oro	3	Marzo	2023-03-15T00:00:00	2024-11-08T08:00:00	2	Temperatura media	17.7
137290	7	Sololá	719	Santiago Atitlán	14	Cerro de Oro	3	Marzo	2023-03-15T00:00:00	2024-11-08T08:00:00	4	Temperatura máxima	17.7
137291	7	Sololá	719	Santiago Atitlán	14	Cerro de Oro	3	Marzo	2023-03-15T00:00:00	2024-11-08T08:00:00	3	Temperatura mínima	16.7
137292	7	Sololá	719	Santiago Atitlán	14	Cerro de Oro	3	Marzo	2023-03-15T00:00:00	2024-11-08T08:00:00	5	Humedad	80
137293	7	Sololá	719	Santiago Atitlán	14	Cerro de Oro	3	Marzo	2023-03-15T00:00:00	2024-11-08T08:00:00	6	Velocidad del viento	3.2
137294	7	Sololá	719	Santiago Atitlán	14	Cerro de Oro	3	Marzo	2023-03-15T00:00:00	2024-11-08T08:00:00	7	Dirección del viento	3.22
137295	7	Sololá	719	Santiago Atitlán	14	Cerro de Oro	3	Marzo	2023-03-15T00:00:00	2024-11-08T08:00:00	1	Precipitación	0
137296	7	Sololá	719	Santiago Atitlán	14	Cerro de Oro	3	Marzo	2023-03-15T00:00:00	2024-11-08T08:00:00	8	Radiación solar	176
137297	7	Sololá	719	Santiago Atitlán	14	Cerro de Oro	3	Marzo	2023-03-15T00:00:00	2024-11-08T09:00:00	2	Temperatura media	20.7
137298	7	Sololá	719	Santiago Atitlán	14	Cerro de Oro	3	Marzo	2023-03-15T00:00:00	2024-11-08T09:00:00	4	Temperatura máxima	20.7
137299	7	Sololá	719	Santiago Atitlán	14	Cerro de Oro	3	Marzo	2023-03-15T00:00:00	2024-11-08T09:00:00	3	Temperatura mínima	17.7
137300	7	Sololá	719	Santiago Atitlán	14	Cerro de Oro	3	Marzo	2023-03-15T00:00:00	2024-11-08T09:00:00	5	Humedad	67
137301	7	Sololá	719	Santiago Atitlán	14	Cerro de Oro	3	Marzo	2023-03-15T00:00:00	2024-11-08T09:00:00	6	Velocidad del viento	3.2
137302	7	Sololá	719	Santiago Atitlán	14	Cerro de Oro	3	Marzo	2023-03-15T00:00:00	2024-11-08T09:00:00	7	Dirección del viento	3.22
137303	7	Sololá	719	Santiago Atitlán	14	Cerro de Oro	3	Marzo	2023-03-15T00:00:00	2024-11-08T09:00:00	1	Precipitación	0
137304	7	Sololá	719	Santiago Atitlán	14	Cerro de Oro	3	Marzo	2023-03-15T00:00:00	2024-11-08T09:00:00	8	Radiación solar	414
137305	7	Sololá	719	Santiago Atitlán	14	Cerro de Oro	3	Marzo	2023-03-15T00:00:00	2024-11-08T10:00:00	2	Temperatura media	21.6
137306	7	Sololá	719	Santiago Atitlán	14	Cerro de Oro	3	Marzo	2023-03-15T00:00:00	2024-11-08T10:00:00	4	Temperatura máxima	21.7
137307	7	Sololá	719	Santiago Atitlán	14	Cerro de Oro	3	Marzo	2023-03-15T00:00:00	2024-11-08T10:00:00	3	Temperatura mínima	20.6
137308	7	Sololá	719	Santiago Atitlán	14	Cerro de Oro	3	Marzo	2023-03-15T00:00:00	2024-11-08T10:00:00	5	Humedad	64
137309	7	Sololá	719	Santiago Atitlán	14	Cerro de Oro	3	Marzo	2023-03-15T00:00:00	2024-11-08T10:00:00	6	Velocidad del viento	3.2
137310	7	Sololá	719	Santiago Atitlán	14	Cerro de Oro	3	Marzo	2023-03-15T00:00:00	2024-11-08T10:00:00	7	Dirección del viento	3.22
137311	7	Sololá	719	Santiago Atitlán	14	Cerro de Oro	3	Marzo	2023-03-15T00:00:00	2024-11-08T10:00:00	1	Precipitación	0
137312	7	Sololá	719	Santiago Atitlán	14	Cerro de Oro	3	Marzo	2023-03-15T00:00:00	2024-11-08T10:00:00	8	Radiación solar	675
137313	7	Sololá	719	Santiago Atitlán	14	Cerro de Oro	3	Marzo	2023-03-15T00:00:00	2024-11-08T11:00:00	2	Temperatura media	22.7
137314	7	Sololá	719	Santiago Atitlán	14	Cerro de Oro	3	Marzo	2023-03-15T00:00:00	2024-11-08T11:00:00	4	Temperatura máxima	22.7
137315	7	Sololá	719	Santiago Atitlán	14	Cerro de Oro	3	Marzo	2023-03-15T00:00:00	2024-11-08T11:00:00	3	Temperatura mínima	21.3
137316	7	Sololá	719	Santiago Atitlán	14	Cerro de Oro	3	Marzo	2023-03-15T00:00:00	2024-11-08T11:00:00	5	Humedad	59
137317	7	Sololá	719	Santiago Atitlán	14	Cerro de Oro	3	Marzo	2023-03-15T00:00:00	2024-11-08T11:00:00	6	Velocidad del viento	4.8
137318	7	Sololá	719	Santiago Atitlán	14	Cerro de Oro	3	Marzo	2023-03-15T00:00:00	2024-11-08T11:00:00	7	Dirección del viento	4.83
137319	7	Sololá	719	Santiago Atitlán	14	Cerro de Oro	3	Marzo	2023-03-15T00:00:00	2024-11-08T11:00:00	1	Precipitación	0
137320	7	Sololá	719	Santiago Atitlán	14	Cerro de Oro	3	Marzo	2023-03-15T00:00:00	2024-11-08T11:00:00	8	Radiación solar	858
137321	7	Sololá	719	Santiago Atitlán	14	Cerro de Oro	3	Marzo	2023-03-15T00:00:00	2024-11-08T12:00:00	2	Temperatura media	24.9
137322	7	Sololá	719	Santiago Atitlán	14	Cerro de Oro	3	Marzo	2023-03-15T00:00:00	2024-11-08T12:00:00	4	Temperatura máxima	25
137323	7	Sololá	719	Santiago Atitlán	14	Cerro de Oro	3	Marzo	2023-03-15T00:00:00	2024-11-08T12:00:00	3	Temperatura mínima	22.7
137324	7	Sololá	719	Santiago Atitlán	14	Cerro de Oro	3	Marzo	2023-03-15T00:00:00	2024-11-08T12:00:00	5	Humedad	48
137325	7	Sololá	719	Santiago Atitlán	14	Cerro de Oro	3	Marzo	2023-03-15T00:00:00	2024-11-08T12:00:00	6	Velocidad del viento	4.8
137326	7	Sololá	719	Santiago Atitlán	14	Cerro de Oro	3	Marzo	2023-03-15T00:00:00	2024-11-08T12:00:00	7	Dirección del viento	4.83
137327	7	Sololá	719	Santiago Atitlán	14	Cerro de Oro	3	Marzo	2023-03-15T00:00:00	2024-11-08T12:00:00	1	Precipitación	0
137328	7	Sololá	719	Santiago Atitlán	14	Cerro de Oro	3	Marzo	2023-03-15T00:00:00	2024-11-08T12:00:00	8	Radiación solar	957
137329	7	Sololá	719	Santiago Atitlán	14	Cerro de Oro	3	Marzo	2023-03-15T00:00:00	2024-11-08T13:00:00	2	Temperatura media	24.8
137330	7	Sololá	719	Santiago Atitlán	14	Cerro de Oro	3	Marzo	2023-03-15T00:00:00	2024-11-08T13:00:00	4	Temperatura máxima	25.4
137331	7	Sololá	719	Santiago Atitlán	14	Cerro de Oro	3	Marzo	2023-03-15T00:00:00	2024-11-08T13:00:00	3	Temperatura mínima	24.1
137332	7	Sololá	719	Santiago Atitlán	14	Cerro de Oro	3	Marzo	2023-03-15T00:00:00	2024-11-08T13:00:00	5	Humedad	66
137333	7	Sololá	719	Santiago Atitlán	14	Cerro de Oro	3	Marzo	2023-03-15T00:00:00	2024-11-08T13:00:00	6	Velocidad del viento	11.3
137334	7	Sololá	719	Santiago Atitlán	14	Cerro de Oro	3	Marzo	2023-03-15T00:00:00	2024-11-08T13:00:00	7	Dirección del viento	11.27
137335	7	Sololá	719	Santiago Atitlán	14	Cerro de Oro	3	Marzo	2023-03-15T00:00:00	2024-11-08T13:00:00	1	Precipitación	0
137336	7	Sololá	719	Santiago Atitlán	14	Cerro de Oro	3	Marzo	2023-03-15T00:00:00	2024-11-08T13:00:00	8	Radiación solar	944
137337	7	Sololá	719	Santiago Atitlán	14	Cerro de Oro	3	Marzo	2023-03-15T00:00:00	2024-11-08T14:00:00	2	Temperatura media	24.3
137338	7	Sololá	719	Santiago Atitlán	14	Cerro de Oro	3	Marzo	2023-03-15T00:00:00	2024-11-08T14:00:00	4	Temperatura máxima	24.9
137339	7	Sololá	719	Santiago Atitlán	14	Cerro de Oro	3	Marzo	2023-03-15T00:00:00	2024-11-08T14:00:00	3	Temperatura mínima	23.7
137340	7	Sololá	719	Santiago Atitlán	14	Cerro de Oro	3	Marzo	2023-03-15T00:00:00	2024-11-08T14:00:00	5	Humedad	68
137341	7	Sololá	719	Santiago Atitlán	14	Cerro de Oro	3	Marzo	2023-03-15T00:00:00	2024-11-08T14:00:00	6	Velocidad del viento	14.5
137342	7	Sololá	719	Santiago Atitlán	14	Cerro de Oro	3	Marzo	2023-03-15T00:00:00	2024-11-08T14:00:00	7	Dirección del viento	14.48
137343	7	Sololá	719	Santiago Atitlán	14	Cerro de Oro	3	Marzo	2023-03-15T00:00:00	2024-11-08T14:00:00	1	Precipitación	0
137344	7	Sololá	719	Santiago Atitlán	14	Cerro de Oro	3	Marzo	2023-03-15T00:00:00	2024-11-08T14:00:00	8	Radiación solar	485
137345	7	Sololá	719	Santiago Atitlán	14	Cerro de Oro	3	Marzo	2023-03-15T00:00:00	2024-11-08T15:00:00	2	Temperatura media	22.2
137346	7	Sololá	719	Santiago Atitlán	14	Cerro de Oro	3	Marzo	2023-03-15T00:00:00	2024-11-08T15:00:00	4	Temperatura máxima	24.4
137347	7	Sololá	719	Santiago Atitlán	14	Cerro de Oro	3	Marzo	2023-03-15T00:00:00	2024-11-08T15:00:00	3	Temperatura mínima	22.2
137348	7	Sololá	719	Santiago Atitlán	14	Cerro de Oro	3	Marzo	2023-03-15T00:00:00	2024-11-08T15:00:00	5	Humedad	75
137349	7	Sololá	719	Santiago Atitlán	14	Cerro de Oro	3	Marzo	2023-03-15T00:00:00	2024-11-08T15:00:00	6	Velocidad del viento	12.9
137350	7	Sololá	719	Santiago Atitlán	14	Cerro de Oro	3	Marzo	2023-03-15T00:00:00	2024-11-08T15:00:00	7	Dirección del viento	12.87
137351	7	Sololá	719	Santiago Atitlán	14	Cerro de Oro	3	Marzo	2023-03-15T00:00:00	2024-11-08T15:00:00	1	Precipitación	0
137352	7	Sololá	719	Santiago Atitlán	14	Cerro de Oro	3	Marzo	2023-03-15T00:00:00	2024-11-08T15:00:00	8	Radiación solar	248
137353	7	Sololá	719	Santiago Atitlán	14	Cerro de Oro	3	Marzo	2023-03-15T00:00:00	2024-11-08T16:00:00	2	Temperatura media	20.7
137354	7	Sololá	719	Santiago Atitlán	14	Cerro de Oro	3	Marzo	2023-03-15T00:00:00	2024-11-08T16:00:00	4	Temperatura máxima	22.2
137355	7	Sololá	719	Santiago Atitlán	14	Cerro de Oro	3	Marzo	2023-03-15T00:00:00	2024-11-08T16:00:00	3	Temperatura mínima	20.5
137356	7	Sololá	719	Santiago Atitlán	14	Cerro de Oro	3	Marzo	2023-03-15T00:00:00	2024-11-08T16:00:00	5	Humedad	85
137357	7	Sololá	719	Santiago Atitlán	14	Cerro de Oro	3	Marzo	2023-03-15T00:00:00	2024-11-08T16:00:00	6	Velocidad del viento	6.4
137358	7	Sololá	719	Santiago Atitlán	14	Cerro de Oro	3	Marzo	2023-03-15T00:00:00	2024-11-08T16:00:00	7	Dirección del viento	6.44
137359	7	Sololá	719	Santiago Atitlán	14	Cerro de Oro	3	Marzo	2023-03-15T00:00:00	2024-11-08T16:00:00	1	Precipitación	2.4
137360	7	Sololá	719	Santiago Atitlán	14	Cerro de Oro	3	Marzo	2023-03-15T00:00:00	2024-11-08T16:00:00	8	Radiación solar	111
137361	7	Sololá	719	Santiago Atitlán	14	Cerro de Oro	3	Marzo	2023-03-15T00:00:00	2024-11-08T17:00:00	2	Temperatura media	19.9
137362	7	Sololá	719	Santiago Atitlán	14	Cerro de Oro	3	Marzo	2023-03-15T00:00:00	2024-11-08T17:00:00	4	Temperatura máxima	20.7
137363	7	Sololá	719	Santiago Atitlán	14	Cerro de Oro	3	Marzo	2023-03-15T00:00:00	2024-11-08T17:00:00	3	Temperatura mínima	19.9
137364	7	Sololá	719	Santiago Atitlán	14	Cerro de Oro	3	Marzo	2023-03-15T00:00:00	2024-11-08T17:00:00	5	Humedad	83
137365	7	Sololá	719	Santiago Atitlán	14	Cerro de Oro	3	Marzo	2023-03-15T00:00:00	2024-11-08T17:00:00	6	Velocidad del viento	6.4
137366	7	Sololá	719	Santiago Atitlán	14	Cerro de Oro	3	Marzo	2023-03-15T00:00:00	2024-11-08T17:00:00	7	Dirección del viento	6.44
137367	7	Sololá	719	Santiago Atitlán	14	Cerro de Oro	3	Marzo	2023-03-15T00:00:00	2024-11-08T17:00:00	1	Precipitación	0
137368	7	Sololá	719	Santiago Atitlán	14	Cerro de Oro	3	Marzo	2023-03-15T00:00:00	2024-11-08T17:00:00	8	Radiación solar	25
137369	7	Sololá	719	Santiago Atitlán	14	Cerro de Oro	3	Marzo	2023-03-15T00:00:00	2024-11-08T18:00:00	2	Temperatura media	19.3
137370	7	Sololá	719	Santiago Atitlán	14	Cerro de Oro	3	Marzo	2023-03-15T00:00:00	2024-11-08T18:00:00	4	Temperatura máxima	20
137371	7	Sololá	719	Santiago Atitlán	14	Cerro de Oro	3	Marzo	2023-03-15T00:00:00	2024-11-08T18:00:00	3	Temperatura mínima	19.3
137372	7	Sololá	719	Santiago Atitlán	14	Cerro de Oro	3	Marzo	2023-03-15T00:00:00	2024-11-08T18:00:00	5	Humedad	87
137373	7	Sololá	719	Santiago Atitlán	14	Cerro de Oro	3	Marzo	2023-03-15T00:00:00	2024-11-08T18:00:00	6	Velocidad del viento	4.8
137374	7	Sololá	719	Santiago Atitlán	14	Cerro de Oro	3	Marzo	2023-03-15T00:00:00	2024-11-08T18:00:00	7	Dirección del viento	4.83
137375	7	Sololá	719	Santiago Atitlán	14	Cerro de Oro	3	Marzo	2023-03-15T00:00:00	2024-11-08T18:00:00	1	Precipitación	0
137376	7	Sololá	719	Santiago Atitlán	14	Cerro de Oro	3	Marzo	2023-03-15T00:00:00	2024-11-08T18:00:00	8	Radiación solar	12
137377	7	Sololá	719	Santiago Atitlán	14	Cerro de Oro	3	Marzo	2023-03-15T00:00:00	2024-11-08T19:00:00	2	Temperatura media	17.1
137378	7	Sololá	719	Santiago Atitlán	14	Cerro de Oro	3	Marzo	2023-03-15T00:00:00	2024-11-08T19:00:00	4	Temperatura máxima	19.3
137379	7	Sololá	719	Santiago Atitlán	14	Cerro de Oro	3	Marzo	2023-03-15T00:00:00	2024-11-08T19:00:00	3	Temperatura mínima	16.6
137380	7	Sololá	719	Santiago Atitlán	14	Cerro de Oro	3	Marzo	2023-03-15T00:00:00	2024-11-08T19:00:00	5	Humedad	90
137381	7	Sololá	719	Santiago Atitlán	14	Cerro de Oro	3	Marzo	2023-03-15T00:00:00	2024-11-08T19:00:00	6	Velocidad del viento	11.3
137382	7	Sololá	719	Santiago Atitlán	14	Cerro de Oro	3	Marzo	2023-03-15T00:00:00	2024-11-08T19:00:00	7	Dirección del viento	11.27
137383	7	Sololá	719	Santiago Atitlán	14	Cerro de Oro	3	Marzo	2023-03-15T00:00:00	2024-11-08T19:00:00	1	Precipitación	3.8
137384	7	Sololá	719	Santiago Atitlán	14	Cerro de Oro	3	Marzo	2023-03-15T00:00:00	2024-11-08T19:00:00	8	Radiación solar	0
137385	7	Sololá	719	Santiago Atitlán	14	Cerro de Oro	3	Marzo	2023-03-15T00:00:00	2024-11-08T20:00:00	2	Temperatura media	16.9
137386	7	Sololá	719	Santiago Atitlán	14	Cerro de Oro	3	Marzo	2023-03-15T00:00:00	2024-11-08T20:00:00	4	Temperatura máxima	17.5
137387	7	Sololá	719	Santiago Atitlán	14	Cerro de Oro	3	Marzo	2023-03-15T00:00:00	2024-11-08T20:00:00	3	Temperatura mínima	16.8
137388	7	Sololá	719	Santiago Atitlán	14	Cerro de Oro	3	Marzo	2023-03-15T00:00:00	2024-11-08T20:00:00	5	Humedad	90
137389	7	Sololá	719	Santiago Atitlán	14	Cerro de Oro	3	Marzo	2023-03-15T00:00:00	2024-11-08T20:00:00	6	Velocidad del viento	4.8
137390	7	Sololá	719	Santiago Atitlán	14	Cerro de Oro	3	Marzo	2023-03-15T00:00:00	2024-11-08T20:00:00	7	Dirección del viento	4.83
137391	7	Sololá	719	Santiago Atitlán	14	Cerro de Oro	3	Marzo	2023-03-15T00:00:00	2024-11-08T20:00:00	1	Precipitación	0.6
137392	7	Sololá	719	Santiago Atitlán	14	Cerro de Oro	3	Marzo	2023-03-15T00:00:00	2024-11-08T20:00:00	8	Radiación solar	0
137393	7	Sololá	719	Santiago Atitlán	14	Cerro de Oro	3	Marzo	2023-03-15T00:00:00	2024-11-08T21:00:00	2	Temperatura media	17.2
137394	7	Sololá	719	Santiago Atitlán	14	Cerro de Oro	3	Marzo	2023-03-15T00:00:00	2024-11-08T21:00:00	4	Temperatura máxima	17.4
137395	7	Sololá	719	Santiago Atitlán	14	Cerro de Oro	3	Marzo	2023-03-15T00:00:00	2024-11-08T21:00:00	3	Temperatura mínima	16.8
137396	7	Sololá	719	Santiago Atitlán	14	Cerro de Oro	3	Marzo	2023-03-15T00:00:00	2024-11-08T21:00:00	5	Humedad	88
137397	7	Sololá	719	Santiago Atitlán	14	Cerro de Oro	3	Marzo	2023-03-15T00:00:00	2024-11-08T21:00:00	6	Velocidad del viento	4.8
137398	7	Sololá	719	Santiago Atitlán	14	Cerro de Oro	3	Marzo	2023-03-15T00:00:00	2024-11-08T21:00:00	7	Dirección del viento	4.83
137399	7	Sololá	719	Santiago Atitlán	14	Cerro de Oro	3	Marzo	2023-03-15T00:00:00	2024-11-08T21:00:00	1	Precipitación	0
137400	7	Sololá	719	Santiago Atitlán	14	Cerro de Oro	3	Marzo	2023-03-15T00:00:00	2024-11-08T21:00:00	8	Radiación solar	0
137401	7	Sololá	719	Santiago Atitlán	14	Cerro de Oro	3	Marzo	2023-03-15T00:00:00	2024-11-08T22:00:00	2	Temperatura media	16.9
137402	7	Sololá	719	Santiago Atitlán	14	Cerro de Oro	3	Marzo	2023-03-15T00:00:00	2024-11-08T22:00:00	4	Temperatura máxima	17.1
137403	7	Sololá	719	Santiago Atitlán	14	Cerro de Oro	3	Marzo	2023-03-15T00:00:00	2024-11-08T22:00:00	3	Temperatura mínima	16.3
137404	7	Sololá	719	Santiago Atitlán	14	Cerro de Oro	3	Marzo	2023-03-15T00:00:00	2024-11-08T22:00:00	5	Humedad	85
137405	7	Sololá	719	Santiago Atitlán	14	Cerro de Oro	3	Marzo	2023-03-15T00:00:00	2024-11-08T22:00:00	6	Velocidad del viento	6.4
137406	7	Sololá	719	Santiago Atitlán	14	Cerro de Oro	3	Marzo	2023-03-15T00:00:00	2024-11-08T22:00:00	7	Dirección del viento	6.44
137407	7	Sololá	719	Santiago Atitlán	14	Cerro de Oro	3	Marzo	2023-03-15T00:00:00	2024-11-08T22:00:00	1	Precipitación	0
137408	7	Sololá	719	Santiago Atitlán	14	Cerro de Oro	3	Marzo	2023-03-15T00:00:00	2024-11-08T22:00:00	8	Radiación solar	0
137409	7	Sololá	719	Santiago Atitlán	14	Cerro de Oro	3	Marzo	2023-03-15T00:00:00	2024-11-08T23:00:00	2	Temperatura media	17.4
137410	7	Sololá	719	Santiago Atitlán	14	Cerro de Oro	3	Marzo	2023-03-15T00:00:00	2024-11-08T23:00:00	4	Temperatura máxima	17.8
137411	7	Sololá	719	Santiago Atitlán	14	Cerro de Oro	3	Marzo	2023-03-15T00:00:00	2024-11-08T23:00:00	3	Temperatura mínima	16.9
137412	7	Sololá	719	Santiago Atitlán	14	Cerro de Oro	3	Marzo	2023-03-15T00:00:00	2024-11-08T23:00:00	5	Humedad	78
137413	7	Sololá	719	Santiago Atitlán	14	Cerro de Oro	3	Marzo	2023-03-15T00:00:00	2024-11-08T23:00:00	6	Velocidad del viento	6.4
137414	7	Sololá	719	Santiago Atitlán	14	Cerro de Oro	3	Marzo	2023-03-15T00:00:00	2024-11-08T23:00:00	7	Dirección del viento	6.44
137415	7	Sololá	719	Santiago Atitlán	14	Cerro de Oro	3	Marzo	2023-03-15T00:00:00	2024-11-08T23:00:00	1	Precipitación	0
137416	7	Sololá	719	Santiago Atitlán	14	Cerro de Oro	3	Marzo	2023-03-15T00:00:00	2024-11-08T23:00:00	8	Radiación solar	0
137417	7	Sololá	719	Santiago Atitlán	14	Cerro de Oro	3	Marzo	2023-03-16T00:00:00	2024-11-08T00:00:00	2	Temperatura media	17.2
137418	7	Sololá	719	Santiago Atitlán	14	Cerro de Oro	3	Marzo	2023-03-16T00:00:00	2024-11-08T00:00:00	4	Temperatura máxima	17.6
137419	7	Sololá	719	Santiago Atitlán	14	Cerro de Oro	3	Marzo	2023-03-16T00:00:00	2024-11-08T00:00:00	3	Temperatura mínima	17
137420	7	Sololá	719	Santiago Atitlán	14	Cerro de Oro	3	Marzo	2023-03-16T00:00:00	2024-11-08T00:00:00	5	Humedad	78
137421	7	Sololá	719	Santiago Atitlán	14	Cerro de Oro	3	Marzo	2023-03-16T00:00:00	2024-11-08T00:00:00	6	Velocidad del viento	6.4
137422	7	Sololá	719	Santiago Atitlán	14	Cerro de Oro	3	Marzo	2023-03-16T00:00:00	2024-11-08T00:00:00	7	Dirección del viento	6.44
137423	7	Sololá	719	Santiago Atitlán	14	Cerro de Oro	3	Marzo	2023-03-16T00:00:00	2024-11-08T00:00:00	1	Precipitación	0
137424	7	Sololá	719	Santiago Atitlán	14	Cerro de Oro	3	Marzo	2023-03-16T00:00:00	2024-11-08T00:00:00	8	Radiación solar	0
137425	7	Sololá	719	Santiago Atitlán	14	Cerro de Oro	3	Marzo	2023-03-16T00:00:00	2024-11-08T01:00:00	2	Temperatura media	17.1
137426	7	Sololá	719	Santiago Atitlán	14	Cerro de Oro	3	Marzo	2023-03-16T00:00:00	2024-11-08T01:00:00	4	Temperatura máxima	17.3
137427	7	Sololá	719	Santiago Atitlán	14	Cerro de Oro	3	Marzo	2023-03-16T00:00:00	2024-11-08T01:00:00	3	Temperatura mínima	16.3
137428	7	Sololá	719	Santiago Atitlán	14	Cerro de Oro	3	Marzo	2023-03-16T00:00:00	2024-11-08T01:00:00	5	Humedad	76
137429	7	Sololá	719	Santiago Atitlán	14	Cerro de Oro	3	Marzo	2023-03-16T00:00:00	2024-11-08T01:00:00	6	Velocidad del viento	4.8
137430	7	Sololá	719	Santiago Atitlán	14	Cerro de Oro	3	Marzo	2023-03-16T00:00:00	2024-11-08T01:00:00	7	Dirección del viento	4.83
137431	7	Sololá	719	Santiago Atitlán	14	Cerro de Oro	3	Marzo	2023-03-16T00:00:00	2024-11-08T01:00:00	1	Precipitación	0
137432	7	Sololá	719	Santiago Atitlán	14	Cerro de Oro	3	Marzo	2023-03-16T00:00:00	2024-11-08T01:00:00	8	Radiación solar	0
137433	7	Sololá	719	Santiago Atitlán	14	Cerro de Oro	3	Marzo	2023-03-16T00:00:00	2024-11-08T02:00:00	2	Temperatura media	16.7
137434	7	Sololá	719	Santiago Atitlán	14	Cerro de Oro	3	Marzo	2023-03-16T00:00:00	2024-11-08T02:00:00	4	Temperatura máxima	17.1
137435	7	Sololá	719	Santiago Atitlán	14	Cerro de Oro	3	Marzo	2023-03-16T00:00:00	2024-11-08T02:00:00	3	Temperatura mínima	16.7
137436	7	Sololá	719	Santiago Atitlán	14	Cerro de Oro	3	Marzo	2023-03-16T00:00:00	2024-11-08T02:00:00	5	Humedad	79
137437	7	Sololá	719	Santiago Atitlán	14	Cerro de Oro	3	Marzo	2023-03-16T00:00:00	2024-11-08T02:00:00	6	Velocidad del viento	4.8
137438	7	Sololá	719	Santiago Atitlán	14	Cerro de Oro	3	Marzo	2023-03-16T00:00:00	2024-11-08T02:00:00	7	Dirección del viento	4.83
137439	7	Sololá	719	Santiago Atitlán	14	Cerro de Oro	3	Marzo	2023-03-16T00:00:00	2024-11-08T02:00:00	1	Precipitación	0
137440	7	Sololá	719	Santiago Atitlán	14	Cerro de Oro	3	Marzo	2023-03-16T00:00:00	2024-11-08T02:00:00	8	Radiación solar	0
137441	7	Sololá	719	Santiago Atitlán	14	Cerro de Oro	3	Marzo	2023-03-16T00:00:00	2024-11-08T03:00:00	2	Temperatura media	17.9
137442	7	Sololá	719	Santiago Atitlán	14	Cerro de Oro	3	Marzo	2023-03-16T00:00:00	2024-11-08T03:00:00	4	Temperatura máxima	17.9
137443	7	Sololá	719	Santiago Atitlán	14	Cerro de Oro	3	Marzo	2023-03-16T00:00:00	2024-11-08T03:00:00	3	Temperatura mínima	16.7
137444	7	Sololá	719	Santiago Atitlán	14	Cerro de Oro	3	Marzo	2023-03-16T00:00:00	2024-11-08T03:00:00	5	Humedad	71
137445	7	Sololá	719	Santiago Atitlán	14	Cerro de Oro	3	Marzo	2023-03-16T00:00:00	2024-11-08T03:00:00	6	Velocidad del viento	8
137446	7	Sololá	719	Santiago Atitlán	14	Cerro de Oro	3	Marzo	2023-03-16T00:00:00	2024-11-08T03:00:00	7	Dirección del viento	8.05
137447	7	Sololá	719	Santiago Atitlán	14	Cerro de Oro	3	Marzo	2023-03-16T00:00:00	2024-11-08T03:00:00	1	Precipitación	0
137448	7	Sololá	719	Santiago Atitlán	14	Cerro de Oro	3	Marzo	2023-03-16T00:00:00	2024-11-08T03:00:00	8	Radiación solar	0
137449	7	Sololá	719	Santiago Atitlán	14	Cerro de Oro	3	Marzo	2023-03-16T00:00:00	2024-11-08T04:00:00	2	Temperatura media	16.3
137450	7	Sololá	719	Santiago Atitlán	14	Cerro de Oro	3	Marzo	2023-03-16T00:00:00	2024-11-08T04:00:00	4	Temperatura máxima	18
137451	7	Sololá	719	Santiago Atitlán	14	Cerro de Oro	3	Marzo	2023-03-16T00:00:00	2024-11-08T04:00:00	3	Temperatura mínima	16.3
137452	7	Sololá	719	Santiago Atitlán	14	Cerro de Oro	3	Marzo	2023-03-16T00:00:00	2024-11-08T04:00:00	5	Humedad	78
137453	7	Sololá	719	Santiago Atitlán	14	Cerro de Oro	3	Marzo	2023-03-16T00:00:00	2024-11-08T04:00:00	6	Velocidad del viento	6.4
137454	7	Sololá	719	Santiago Atitlán	14	Cerro de Oro	3	Marzo	2023-03-16T00:00:00	2024-11-08T04:00:00	7	Dirección del viento	6.44
137455	7	Sololá	719	Santiago Atitlán	14	Cerro de Oro	3	Marzo	2023-03-16T00:00:00	2024-11-08T04:00:00	1	Precipitación	0
137456	7	Sololá	719	Santiago Atitlán	14	Cerro de Oro	3	Marzo	2023-03-16T00:00:00	2024-11-08T04:00:00	8	Radiación solar	0
137457	7	Sololá	719	Santiago Atitlán	14	Cerro de Oro	3	Marzo	2023-03-16T00:00:00	2024-11-08T05:00:00	2	Temperatura media	16.5
137458	7	Sololá	719	Santiago Atitlán	14	Cerro de Oro	3	Marzo	2023-03-16T00:00:00	2024-11-08T05:00:00	4	Temperatura máxima	16.8
137459	7	Sololá	719	Santiago Atitlán	14	Cerro de Oro	3	Marzo	2023-03-16T00:00:00	2024-11-08T05:00:00	3	Temperatura mínima	15.9
137460	7	Sololá	719	Santiago Atitlán	14	Cerro de Oro	3	Marzo	2023-03-16T00:00:00	2024-11-08T05:00:00	5	Humedad	75
137461	7	Sololá	719	Santiago Atitlán	14	Cerro de Oro	3	Marzo	2023-03-16T00:00:00	2024-11-08T05:00:00	6	Velocidad del viento	3.2
137462	7	Sololá	719	Santiago Atitlán	14	Cerro de Oro	3	Marzo	2023-03-16T00:00:00	2024-11-08T05:00:00	7	Dirección del viento	3.22
137463	7	Sololá	719	Santiago Atitlán	14	Cerro de Oro	3	Marzo	2023-03-16T00:00:00	2024-11-08T05:00:00	1	Precipitación	0
137464	7	Sololá	719	Santiago Atitlán	14	Cerro de Oro	3	Marzo	2023-03-16T00:00:00	2024-11-08T05:00:00	8	Radiación solar	0
137465	7	Sololá	719	Santiago Atitlán	14	Cerro de Oro	3	Marzo	2023-03-16T00:00:00	2024-11-08T06:00:00	2	Temperatura media	15.7
137466	7	Sololá	719	Santiago Atitlán	14	Cerro de Oro	3	Marzo	2023-03-16T00:00:00	2024-11-08T06:00:00	4	Temperatura máxima	16.5
137467	7	Sololá	719	Santiago Atitlán	14	Cerro de Oro	3	Marzo	2023-03-16T00:00:00	2024-11-08T06:00:00	3	Temperatura mínima	15.6
137468	7	Sololá	719	Santiago Atitlán	14	Cerro de Oro	3	Marzo	2023-03-16T00:00:00	2024-11-08T06:00:00	5	Humedad	81
137469	7	Sololá	719	Santiago Atitlán	14	Cerro de Oro	3	Marzo	2023-03-16T00:00:00	2024-11-08T06:00:00	6	Velocidad del viento	3.2
137470	7	Sololá	719	Santiago Atitlán	14	Cerro de Oro	3	Marzo	2023-03-16T00:00:00	2024-11-08T06:00:00	7	Dirección del viento	3.22
137471	7	Sololá	719	Santiago Atitlán	14	Cerro de Oro	3	Marzo	2023-03-16T00:00:00	2024-11-08T06:00:00	1	Precipitación	0
137472	7	Sololá	719	Santiago Atitlán	14	Cerro de Oro	3	Marzo	2023-03-16T00:00:00	2024-11-08T06:00:00	8	Radiación solar	0
137473	7	Sololá	719	Santiago Atitlán	14	Cerro de Oro	3	Marzo	2023-03-16T00:00:00	2024-11-08T07:00:00	2	Temperatura media	15.4
137474	7	Sololá	719	Santiago Atitlán	14	Cerro de Oro	3	Marzo	2023-03-16T00:00:00	2024-11-08T07:00:00	4	Temperatura máxima	15.8
137475	7	Sololá	719	Santiago Atitlán	14	Cerro de Oro	3	Marzo	2023-03-16T00:00:00	2024-11-08T07:00:00	3	Temperatura mínima	15.4
137476	7	Sololá	719	Santiago Atitlán	14	Cerro de Oro	3	Marzo	2023-03-16T00:00:00	2024-11-08T07:00:00	5	Humedad	84
137477	7	Sololá	719	Santiago Atitlán	14	Cerro de Oro	3	Marzo	2023-03-16T00:00:00	2024-11-08T07:00:00	6	Velocidad del viento	3.2
137478	7	Sololá	719	Santiago Atitlán	14	Cerro de Oro	3	Marzo	2023-03-16T00:00:00	2024-11-08T07:00:00	7	Dirección del viento	3.22
137479	7	Sololá	719	Santiago Atitlán	14	Cerro de Oro	3	Marzo	2023-03-16T00:00:00	2024-11-08T07:00:00	1	Precipitación	0
137480	7	Sololá	719	Santiago Atitlán	14	Cerro de Oro	3	Marzo	2023-03-16T00:00:00	2024-11-08T07:00:00	8	Radiación solar	32
137481	7	Sololá	719	Santiago Atitlán	14	Cerro de Oro	3	Marzo	2023-03-16T00:00:00	2024-11-08T08:00:00	2	Temperatura media	16.4
137482	7	Sololá	719	Santiago Atitlán	14	Cerro de Oro	3	Marzo	2023-03-16T00:00:00	2024-11-08T08:00:00	4	Temperatura máxima	16.4
137483	7	Sololá	719	Santiago Atitlán	14	Cerro de Oro	3	Marzo	2023-03-16T00:00:00	2024-11-08T08:00:00	3	Temperatura mínima	15.4
137484	7	Sololá	719	Santiago Atitlán	14	Cerro de Oro	3	Marzo	2023-03-16T00:00:00	2024-11-08T08:00:00	5	Humedad	83
137485	7	Sololá	719	Santiago Atitlán	14	Cerro de Oro	3	Marzo	2023-03-16T00:00:00	2024-11-08T08:00:00	6	Velocidad del viento	3.2
137486	7	Sololá	719	Santiago Atitlán	14	Cerro de Oro	3	Marzo	2023-03-16T00:00:00	2024-11-08T08:00:00	7	Dirección del viento	3.22
137487	7	Sololá	719	Santiago Atitlán	14	Cerro de Oro	3	Marzo	2023-03-16T00:00:00	2024-11-08T08:00:00	1	Precipitación	0
137488	7	Sololá	719	Santiago Atitlán	14	Cerro de Oro	3	Marzo	2023-03-16T00:00:00	2024-11-08T08:00:00	8	Radiación solar	185
137489	7	Sololá	719	Santiago Atitlán	14	Cerro de Oro	3	Marzo	2023-03-16T00:00:00	2024-11-08T09:00:00	2	Temperatura media	19.1
137490	7	Sololá	719	Santiago Atitlán	14	Cerro de Oro	3	Marzo	2023-03-16T00:00:00	2024-11-08T09:00:00	4	Temperatura máxima	19.1
137491	7	Sololá	719	Santiago Atitlán	14	Cerro de Oro	3	Marzo	2023-03-16T00:00:00	2024-11-08T09:00:00	3	Temperatura mínima	16.4
137492	7	Sololá	719	Santiago Atitlán	14	Cerro de Oro	3	Marzo	2023-03-16T00:00:00	2024-11-08T09:00:00	5	Humedad	70
137493	7	Sololá	719	Santiago Atitlán	14	Cerro de Oro	3	Marzo	2023-03-16T00:00:00	2024-11-08T09:00:00	6	Velocidad del viento	3.2
137494	7	Sololá	719	Santiago Atitlán	14	Cerro de Oro	3	Marzo	2023-03-16T00:00:00	2024-11-08T09:00:00	7	Dirección del viento	3.22
137495	7	Sololá	719	Santiago Atitlán	14	Cerro de Oro	3	Marzo	2023-03-16T00:00:00	2024-11-08T09:00:00	1	Precipitación	0
137496	7	Sololá	719	Santiago Atitlán	14	Cerro de Oro	3	Marzo	2023-03-16T00:00:00	2024-11-08T09:00:00	8	Radiación solar	413
137497	7	Sololá	719	Santiago Atitlán	14	Cerro de Oro	3	Marzo	2023-03-16T00:00:00	2024-11-08T10:00:00	2	Temperatura media	19.3
137498	7	Sololá	719	Santiago Atitlán	14	Cerro de Oro	3	Marzo	2023-03-16T00:00:00	2024-11-08T10:00:00	4	Temperatura máxima	19.6
137499	7	Sololá	719	Santiago Atitlán	14	Cerro de Oro	3	Marzo	2023-03-16T00:00:00	2024-11-08T10:00:00	3	Temperatura mínima	19.1
137500	7	Sololá	719	Santiago Atitlán	14	Cerro de Oro	3	Marzo	2023-03-16T00:00:00	2024-11-08T10:00:00	5	Humedad	71
137501	7	Sololá	719	Santiago Atitlán	14	Cerro de Oro	3	Marzo	2023-03-16T00:00:00	2024-11-08T10:00:00	6	Velocidad del viento	3.2
137502	7	Sololá	719	Santiago Atitlán	14	Cerro de Oro	3	Marzo	2023-03-16T00:00:00	2024-11-08T10:00:00	7	Dirección del viento	3.22
137503	7	Sololá	719	Santiago Atitlán	14	Cerro de Oro	3	Marzo	2023-03-16T00:00:00	2024-11-08T10:00:00	1	Precipitación	0
137504	7	Sololá	719	Santiago Atitlán	14	Cerro de Oro	3	Marzo	2023-03-16T00:00:00	2024-11-08T10:00:00	8	Radiación solar	662
137505	7	Sololá	719	Santiago Atitlán	14	Cerro de Oro	3	Marzo	2023-03-16T00:00:00	2024-11-08T11:00:00	2	Temperatura media	19.9
137506	7	Sololá	719	Santiago Atitlán	14	Cerro de Oro	3	Marzo	2023-03-16T00:00:00	2024-11-08T11:00:00	4	Temperatura máxima	20.2
137507	7	Sololá	719	Santiago Atitlán	14	Cerro de Oro	3	Marzo	2023-03-16T00:00:00	2024-11-08T11:00:00	3	Temperatura mínima	19.2
137508	7	Sololá	719	Santiago Atitlán	14	Cerro de Oro	3	Marzo	2023-03-16T00:00:00	2024-11-08T11:00:00	5	Humedad	75
137509	7	Sololá	719	Santiago Atitlán	14	Cerro de Oro	3	Marzo	2023-03-16T00:00:00	2024-11-08T11:00:00	6	Velocidad del viento	4.8
137510	7	Sololá	719	Santiago Atitlán	14	Cerro de Oro	3	Marzo	2023-03-16T00:00:00	2024-11-08T11:00:00	7	Dirección del viento	4.83
137511	7	Sololá	719	Santiago Atitlán	14	Cerro de Oro	3	Marzo	2023-03-16T00:00:00	2024-11-08T11:00:00	1	Precipitación	0
137512	7	Sololá	719	Santiago Atitlán	14	Cerro de Oro	3	Marzo	2023-03-16T00:00:00	2024-11-08T11:00:00	8	Radiación solar	830
137513	7	Sololá	719	Santiago Atitlán	14	Cerro de Oro	3	Marzo	2023-03-16T00:00:00	2024-11-08T12:00:00	2	Temperatura media	22.1
137514	7	Sololá	719	Santiago Atitlán	14	Cerro de Oro	3	Marzo	2023-03-16T00:00:00	2024-11-08T12:00:00	4	Temperatura máxima	22.1
137515	7	Sololá	719	Santiago Atitlán	14	Cerro de Oro	3	Marzo	2023-03-16T00:00:00	2024-11-08T12:00:00	3	Temperatura mínima	19.7
137516	7	Sololá	719	Santiago Atitlán	14	Cerro de Oro	3	Marzo	2023-03-16T00:00:00	2024-11-08T12:00:00	5	Humedad	72
137517	7	Sololá	719	Santiago Atitlán	14	Cerro de Oro	3	Marzo	2023-03-16T00:00:00	2024-11-08T12:00:00	6	Velocidad del viento	6.4
137518	7	Sololá	719	Santiago Atitlán	14	Cerro de Oro	3	Marzo	2023-03-16T00:00:00	2024-11-08T12:00:00	7	Dirección del viento	6.44
137519	7	Sololá	719	Santiago Atitlán	14	Cerro de Oro	3	Marzo	2023-03-16T00:00:00	2024-11-08T12:00:00	1	Precipitación	0
137520	7	Sololá	719	Santiago Atitlán	14	Cerro de Oro	3	Marzo	2023-03-16T00:00:00	2024-11-08T12:00:00	8	Radiación solar	935
137521	7	Sololá	719	Santiago Atitlán	14	Cerro de Oro	3	Marzo	2023-03-16T00:00:00	2024-11-08T13:00:00	2	Temperatura media	21.7
137522	7	Sololá	719	Santiago Atitlán	14	Cerro de Oro	3	Marzo	2023-03-16T00:00:00	2024-11-08T13:00:00	4	Temperatura máxima	22.3
137523	7	Sololá	719	Santiago Atitlán	14	Cerro de Oro	3	Marzo	2023-03-16T00:00:00	2024-11-08T13:00:00	3	Temperatura mínima	21.5
137524	7	Sololá	719	Santiago Atitlán	14	Cerro de Oro	3	Marzo	2023-03-16T00:00:00	2024-11-08T13:00:00	5	Humedad	71
137525	7	Sololá	719	Santiago Atitlán	14	Cerro de Oro	3	Marzo	2023-03-16T00:00:00	2024-11-08T13:00:00	6	Velocidad del viento	11.3
137526	7	Sololá	719	Santiago Atitlán	14	Cerro de Oro	3	Marzo	2023-03-16T00:00:00	2024-11-08T13:00:00	7	Dirección del viento	11.27
137527	7	Sololá	719	Santiago Atitlán	14	Cerro de Oro	3	Marzo	2023-03-16T00:00:00	2024-11-08T13:00:00	1	Precipitación	0
137528	7	Sololá	719	Santiago Atitlán	14	Cerro de Oro	3	Marzo	2023-03-16T00:00:00	2024-11-08T13:00:00	8	Radiación solar	794
137529	7	Sololá	719	Santiago Atitlán	14	Cerro de Oro	3	Marzo	2023-03-16T00:00:00	2024-11-08T14:00:00	2	Temperatura media	22.2
137530	7	Sololá	719	Santiago Atitlán	14	Cerro de Oro	3	Marzo	2023-03-16T00:00:00	2024-11-08T14:00:00	4	Temperatura máxima	22.2
137531	7	Sololá	719	Santiago Atitlán	14	Cerro de Oro	3	Marzo	2023-03-16T00:00:00	2024-11-08T14:00:00	3	Temperatura mínima	21.2
137532	7	Sololá	719	Santiago Atitlán	14	Cerro de Oro	3	Marzo	2023-03-16T00:00:00	2024-11-08T14:00:00	5	Humedad	71
137533	7	Sololá	719	Santiago Atitlán	14	Cerro de Oro	3	Marzo	2023-03-16T00:00:00	2024-11-08T14:00:00	6	Velocidad del viento	12.9
137534	7	Sololá	719	Santiago Atitlán	14	Cerro de Oro	3	Marzo	2023-03-16T00:00:00	2024-11-08T14:00:00	7	Dirección del viento	12.87
137535	7	Sololá	719	Santiago Atitlán	14	Cerro de Oro	3	Marzo	2023-03-16T00:00:00	2024-11-08T14:00:00	1	Precipitación	0
137536	7	Sololá	719	Santiago Atitlán	14	Cerro de Oro	3	Marzo	2023-03-16T00:00:00	2024-11-08T14:00:00	8	Radiación solar	500
137537	7	Sololá	719	Santiago Atitlán	14	Cerro de Oro	3	Marzo	2023-03-16T00:00:00	2024-11-08T15:00:00	2	Temperatura media	21.4
137538	7	Sololá	719	Santiago Atitlán	14	Cerro de Oro	3	Marzo	2023-03-16T00:00:00	2024-11-08T15:00:00	4	Temperatura máxima	22.6
137539	7	Sololá	719	Santiago Atitlán	14	Cerro de Oro	3	Marzo	2023-03-16T00:00:00	2024-11-08T15:00:00	3	Temperatura mínima	21.4
137540	7	Sololá	719	Santiago Atitlán	14	Cerro de Oro	3	Marzo	2023-03-16T00:00:00	2024-11-08T15:00:00	5	Humedad	74
137541	7	Sololá	719	Santiago Atitlán	14	Cerro de Oro	3	Marzo	2023-03-16T00:00:00	2024-11-08T15:00:00	6	Velocidad del viento	11.3
137542	7	Sololá	719	Santiago Atitlán	14	Cerro de Oro	3	Marzo	2023-03-16T00:00:00	2024-11-08T15:00:00	7	Dirección del viento	11.27
137543	7	Sololá	719	Santiago Atitlán	14	Cerro de Oro	3	Marzo	2023-03-16T00:00:00	2024-11-08T15:00:00	1	Precipitación	0
137544	7	Sololá	719	Santiago Atitlán	14	Cerro de Oro	3	Marzo	2023-03-16T00:00:00	2024-11-08T15:00:00	8	Radiación solar	159
137545	7	Sololá	719	Santiago Atitlán	14	Cerro de Oro	3	Marzo	2023-03-16T00:00:00	2024-11-08T16:00:00	2	Temperatura media	20.8
137546	7	Sololá	719	Santiago Atitlán	14	Cerro de Oro	3	Marzo	2023-03-16T00:00:00	2024-11-08T16:00:00	4	Temperatura máxima	21.4
137547	7	Sololá	719	Santiago Atitlán	14	Cerro de Oro	3	Marzo	2023-03-16T00:00:00	2024-11-08T16:00:00	3	Temperatura mínima	20.6
137548	7	Sololá	719	Santiago Atitlán	14	Cerro de Oro	3	Marzo	2023-03-16T00:00:00	2024-11-08T16:00:00	5	Humedad	77
137549	7	Sololá	719	Santiago Atitlán	14	Cerro de Oro	3	Marzo	2023-03-16T00:00:00	2024-11-08T16:00:00	6	Velocidad del viento	9.7
137550	7	Sololá	719	Santiago Atitlán	14	Cerro de Oro	3	Marzo	2023-03-16T00:00:00	2024-11-08T16:00:00	7	Dirección del viento	9.66
137551	7	Sololá	719	Santiago Atitlán	14	Cerro de Oro	3	Marzo	2023-03-16T00:00:00	2024-11-08T16:00:00	1	Precipitación	0
137552	7	Sololá	719	Santiago Atitlán	14	Cerro de Oro	3	Marzo	2023-03-16T00:00:00	2024-11-08T16:00:00	8	Radiación solar	162
137553	7	Sololá	719	Santiago Atitlán	14	Cerro de Oro	3	Marzo	2023-03-16T00:00:00	2024-11-08T17:00:00	2	Temperatura media	19.8
137554	7	Sololá	719	Santiago Atitlán	14	Cerro de Oro	3	Marzo	2023-03-16T00:00:00	2024-11-08T17:00:00	4	Temperatura máxima	21
137555	7	Sololá	719	Santiago Atitlán	14	Cerro de Oro	3	Marzo	2023-03-16T00:00:00	2024-11-08T17:00:00	3	Temperatura mínima	19.7
137556	7	Sololá	719	Santiago Atitlán	14	Cerro de Oro	3	Marzo	2023-03-16T00:00:00	2024-11-08T17:00:00	5	Humedad	82
137557	7	Sololá	719	Santiago Atitlán	14	Cerro de Oro	3	Marzo	2023-03-16T00:00:00	2024-11-08T17:00:00	6	Velocidad del viento	11.3
137558	7	Sololá	719	Santiago Atitlán	14	Cerro de Oro	3	Marzo	2023-03-16T00:00:00	2024-11-08T17:00:00	7	Dirección del viento	11.27
137559	7	Sololá	719	Santiago Atitlán	14	Cerro de Oro	3	Marzo	2023-03-16T00:00:00	2024-11-08T17:00:00	1	Precipitación	0
137560	7	Sololá	719	Santiago Atitlán	14	Cerro de Oro	3	Marzo	2023-03-16T00:00:00	2024-11-08T17:00:00	8	Radiación solar	109
137561	7	Sololá	719	Santiago Atitlán	14	Cerro de Oro	3	Marzo	2023-03-16T00:00:00	2024-11-08T18:00:00	2	Temperatura media	19.3
137562	7	Sololá	719	Santiago Atitlán	14	Cerro de Oro	3	Marzo	2023-03-16T00:00:00	2024-11-08T18:00:00	4	Temperatura máxima	20.1
137563	7	Sololá	719	Santiago Atitlán	14	Cerro de Oro	3	Marzo	2023-03-16T00:00:00	2024-11-08T18:00:00	3	Temperatura mínima	19.3
137564	7	Sololá	719	Santiago Atitlán	14	Cerro de Oro	3	Marzo	2023-03-16T00:00:00	2024-11-08T18:00:00	5	Humedad	84
137565	7	Sololá	719	Santiago Atitlán	14	Cerro de Oro	3	Marzo	2023-03-16T00:00:00	2024-11-08T18:00:00	6	Velocidad del viento	8
137566	7	Sololá	719	Santiago Atitlán	14	Cerro de Oro	3	Marzo	2023-03-16T00:00:00	2024-11-08T18:00:00	7	Dirección del viento	8.05
137567	7	Sololá	719	Santiago Atitlán	14	Cerro de Oro	3	Marzo	2023-03-16T00:00:00	2024-11-08T18:00:00	1	Precipitación	0
137568	7	Sololá	719	Santiago Atitlán	14	Cerro de Oro	3	Marzo	2023-03-16T00:00:00	2024-11-08T18:00:00	8	Radiación solar	16
137569	7	Sololá	719	Santiago Atitlán	14	Cerro de Oro	3	Marzo	2023-03-16T00:00:00	2024-11-08T19:00:00	2	Temperatura media	18.6
137570	7	Sololá	719	Santiago Atitlán	14	Cerro de Oro	3	Marzo	2023-03-16T00:00:00	2024-11-08T19:00:00	4	Temperatura máxima	19.3
137571	7	Sololá	719	Santiago Atitlán	14	Cerro de Oro	3	Marzo	2023-03-16T00:00:00	2024-11-08T19:00:00	3	Temperatura mínima	18.6
137572	7	Sololá	719	Santiago Atitlán	14	Cerro de Oro	3	Marzo	2023-03-16T00:00:00	2024-11-08T19:00:00	5	Humedad	89
137573	7	Sololá	719	Santiago Atitlán	14	Cerro de Oro	3	Marzo	2023-03-16T00:00:00	2024-11-08T19:00:00	6	Velocidad del viento	6.4
137574	7	Sololá	719	Santiago Atitlán	14	Cerro de Oro	3	Marzo	2023-03-16T00:00:00	2024-11-08T19:00:00	7	Dirección del viento	6.44
137575	7	Sololá	719	Santiago Atitlán	14	Cerro de Oro	3	Marzo	2023-03-16T00:00:00	2024-11-08T19:00:00	1	Precipitación	0.4
137576	7	Sololá	719	Santiago Atitlán	14	Cerro de Oro	3	Marzo	2023-03-16T00:00:00	2024-11-08T19:00:00	8	Radiación solar	0
137577	7	Sololá	719	Santiago Atitlán	14	Cerro de Oro	3	Marzo	2023-03-16T00:00:00	2024-11-08T20:00:00	2	Temperatura media	17.8
137578	7	Sololá	719	Santiago Atitlán	14	Cerro de Oro	3	Marzo	2023-03-16T00:00:00	2024-11-08T20:00:00	4	Temperatura máxima	18.6
137579	7	Sololá	719	Santiago Atitlán	14	Cerro de Oro	3	Marzo	2023-03-16T00:00:00	2024-11-08T20:00:00	3	Temperatura mínima	17.8
137580	7	Sololá	719	Santiago Atitlán	14	Cerro de Oro	3	Marzo	2023-03-16T00:00:00	2024-11-08T20:00:00	5	Humedad	91
137581	7	Sololá	719	Santiago Atitlán	14	Cerro de Oro	3	Marzo	2023-03-16T00:00:00	2024-11-08T20:00:00	6	Velocidad del viento	3.2
137582	7	Sololá	719	Santiago Atitlán	14	Cerro de Oro	3	Marzo	2023-03-16T00:00:00	2024-11-08T20:00:00	7	Dirección del viento	3.22
137583	7	Sololá	719	Santiago Atitlán	14	Cerro de Oro	3	Marzo	2023-03-16T00:00:00	2024-11-08T20:00:00	1	Precipitación	1.4
137584	7	Sololá	719	Santiago Atitlán	14	Cerro de Oro	3	Marzo	2023-03-16T00:00:00	2024-11-08T20:00:00	8	Radiación solar	0
137585	7	Sololá	719	Santiago Atitlán	14	Cerro de Oro	3	Marzo	2023-03-16T00:00:00	2024-11-08T21:00:00	2	Temperatura media	17.4
137586	7	Sololá	719	Santiago Atitlán	14	Cerro de Oro	3	Marzo	2023-03-16T00:00:00	2024-11-08T21:00:00	4	Temperatura máxima	17.8
137587	7	Sololá	719	Santiago Atitlán	14	Cerro de Oro	3	Marzo	2023-03-16T00:00:00	2024-11-08T21:00:00	3	Temperatura mínima	17.4
137588	7	Sololá	719	Santiago Atitlán	14	Cerro de Oro	3	Marzo	2023-03-16T00:00:00	2024-11-08T21:00:00	5	Humedad	92
137589	7	Sololá	719	Santiago Atitlán	14	Cerro de Oro	3	Marzo	2023-03-16T00:00:00	2024-11-08T21:00:00	6	Velocidad del viento	3.2
137590	7	Sololá	719	Santiago Atitlán	14	Cerro de Oro	3	Marzo	2023-03-16T00:00:00	2024-11-08T21:00:00	7	Dirección del viento	3.22
137591	7	Sololá	719	Santiago Atitlán	14	Cerro de Oro	3	Marzo	2023-03-16T00:00:00	2024-11-08T21:00:00	1	Precipitación	0
137592	7	Sololá	719	Santiago Atitlán	14	Cerro de Oro	3	Marzo	2023-03-16T00:00:00	2024-11-08T21:00:00	8	Radiación solar	0
137593	7	Sololá	719	Santiago Atitlán	14	Cerro de Oro	3	Marzo	2023-03-16T00:00:00	2024-11-08T22:00:00	2	Temperatura media	17.1
137594	7	Sololá	719	Santiago Atitlán	14	Cerro de Oro	3	Marzo	2023-03-16T00:00:00	2024-11-08T22:00:00	4	Temperatura máxima	17.4
137595	7	Sololá	719	Santiago Atitlán	14	Cerro de Oro	3	Marzo	2023-03-16T00:00:00	2024-11-08T22:00:00	3	Temperatura mínima	17.1
137596	7	Sololá	719	Santiago Atitlán	14	Cerro de Oro	3	Marzo	2023-03-16T00:00:00	2024-11-08T22:00:00	5	Humedad	91
137597	7	Sololá	719	Santiago Atitlán	14	Cerro de Oro	3	Marzo	2023-03-16T00:00:00	2024-11-08T22:00:00	6	Velocidad del viento	3.2
137598	7	Sololá	719	Santiago Atitlán	14	Cerro de Oro	3	Marzo	2023-03-16T00:00:00	2024-11-08T22:00:00	7	Dirección del viento	3.22
137599	7	Sololá	719	Santiago Atitlán	14	Cerro de Oro	3	Marzo	2023-03-16T00:00:00	2024-11-08T22:00:00	1	Precipitación	0
137600	7	Sololá	719	Santiago Atitlán	14	Cerro de Oro	3	Marzo	2023-03-16T00:00:00	2024-11-08T22:00:00	8	Radiación solar	0
137601	7	Sololá	719	Santiago Atitlán	14	Cerro de Oro	3	Marzo	2023-03-16T00:00:00	2024-11-08T23:00:00	2	Temperatura media	17.3
137602	7	Sololá	719	Santiago Atitlán	14	Cerro de Oro	3	Marzo	2023-03-16T00:00:00	2024-11-08T23:00:00	4	Temperatura máxima	17.4
137603	7	Sololá	719	Santiago Atitlán	14	Cerro de Oro	3	Marzo	2023-03-16T00:00:00	2024-11-08T23:00:00	3	Temperatura mínima	17.1
137604	7	Sololá	719	Santiago Atitlán	14	Cerro de Oro	3	Marzo	2023-03-16T00:00:00	2024-11-08T23:00:00	5	Humedad	86
137605	7	Sololá	719	Santiago Atitlán	14	Cerro de Oro	3	Marzo	2023-03-16T00:00:00	2024-11-08T23:00:00	6	Velocidad del viento	4.8
137606	7	Sololá	719	Santiago Atitlán	14	Cerro de Oro	3	Marzo	2023-03-16T00:00:00	2024-11-08T23:00:00	7	Dirección del viento	4.83
137607	7	Sololá	719	Santiago Atitlán	14	Cerro de Oro	3	Marzo	2023-03-16T00:00:00	2024-11-08T23:00:00	1	Precipitación	0
137608	7	Sololá	719	Santiago Atitlán	14	Cerro de Oro	3	Marzo	2023-03-16T00:00:00	2024-11-08T23:00:00	8	Radiación solar	0
137609	7	Sololá	719	Santiago Atitlán	14	Cerro de Oro	3	Marzo	2023-03-17T00:00:00	2024-11-08T00:00:00	2	Temperatura media	17.1
137610	7	Sololá	719	Santiago Atitlán	14	Cerro de Oro	3	Marzo	2023-03-17T00:00:00	2024-11-08T00:00:00	4	Temperatura máxima	17.4
137611	7	Sololá	719	Santiago Atitlán	14	Cerro de Oro	3	Marzo	2023-03-17T00:00:00	2024-11-08T00:00:00	3	Temperatura mínima	16.9
137612	7	Sololá	719	Santiago Atitlán	14	Cerro de Oro	3	Marzo	2023-03-17T00:00:00	2024-11-08T00:00:00	5	Humedad	85
137613	7	Sololá	719	Santiago Atitlán	14	Cerro de Oro	3	Marzo	2023-03-17T00:00:00	2024-11-08T00:00:00	6	Velocidad del viento	4.8
137614	7	Sololá	719	Santiago Atitlán	14	Cerro de Oro	3	Marzo	2023-03-17T00:00:00	2024-11-08T00:00:00	7	Dirección del viento	4.83
137615	7	Sololá	719	Santiago Atitlán	14	Cerro de Oro	3	Marzo	2023-03-17T00:00:00	2024-11-08T00:00:00	1	Precipitación	0
137616	7	Sololá	719	Santiago Atitlán	14	Cerro de Oro	3	Marzo	2023-03-17T00:00:00	2024-11-08T00:00:00	8	Radiación solar	0
137617	7	Sololá	719	Santiago Atitlán	14	Cerro de Oro	3	Marzo	2023-03-17T00:00:00	2024-11-08T01:00:00	2	Temperatura media	16.8
137618	7	Sololá	719	Santiago Atitlán	14	Cerro de Oro	3	Marzo	2023-03-17T00:00:00	2024-11-08T01:00:00	4	Temperatura máxima	17.1
137619	7	Sololá	719	Santiago Atitlán	14	Cerro de Oro	3	Marzo	2023-03-17T00:00:00	2024-11-08T01:00:00	3	Temperatura mínima	16.6
137620	7	Sololá	719	Santiago Atitlán	14	Cerro de Oro	3	Marzo	2023-03-17T00:00:00	2024-11-08T01:00:00	5	Humedad	88
137621	7	Sololá	719	Santiago Atitlán	14	Cerro de Oro	3	Marzo	2023-03-17T00:00:00	2024-11-08T01:00:00	6	Velocidad del viento	4.8
137622	7	Sololá	719	Santiago Atitlán	14	Cerro de Oro	3	Marzo	2023-03-17T00:00:00	2024-11-08T01:00:00	7	Dirección del viento	4.83
137623	7	Sololá	719	Santiago Atitlán	14	Cerro de Oro	3	Marzo	2023-03-17T00:00:00	2024-11-08T01:00:00	1	Precipitación	0
137624	7	Sololá	719	Santiago Atitlán	14	Cerro de Oro	3	Marzo	2023-03-17T00:00:00	2024-11-08T01:00:00	8	Radiación solar	0
137625	7	Sololá	719	Santiago Atitlán	14	Cerro de Oro	3	Marzo	2023-03-17T00:00:00	2024-11-08T02:00:00	2	Temperatura media	16.8
137626	7	Sololá	719	Santiago Atitlán	14	Cerro de Oro	3	Marzo	2023-03-17T00:00:00	2024-11-08T02:00:00	4	Temperatura máxima	16.9
137627	7	Sololá	719	Santiago Atitlán	14	Cerro de Oro	3	Marzo	2023-03-17T00:00:00	2024-11-08T02:00:00	3	Temperatura mínima	16.6
137628	7	Sololá	719	Santiago Atitlán	14	Cerro de Oro	3	Marzo	2023-03-17T00:00:00	2024-11-08T02:00:00	5	Humedad	86
137629	7	Sololá	719	Santiago Atitlán	14	Cerro de Oro	3	Marzo	2023-03-17T00:00:00	2024-11-08T02:00:00	6	Velocidad del viento	3.2
137630	7	Sololá	719	Santiago Atitlán	14	Cerro de Oro	3	Marzo	2023-03-17T00:00:00	2024-11-08T02:00:00	7	Dirección del viento	3.22
137631	7	Sololá	719	Santiago Atitlán	14	Cerro de Oro	3	Marzo	2023-03-17T00:00:00	2024-11-08T02:00:00	1	Precipitación	0
137632	7	Sololá	719	Santiago Atitlán	14	Cerro de Oro	3	Marzo	2023-03-17T00:00:00	2024-11-08T02:00:00	8	Radiación solar	0
137633	7	Sololá	719	Santiago Atitlán	14	Cerro de Oro	3	Marzo	2023-03-17T00:00:00	2024-11-08T03:00:00	2	Temperatura media	16.4
137634	7	Sololá	719	Santiago Atitlán	14	Cerro de Oro	3	Marzo	2023-03-17T00:00:00	2024-11-08T03:00:00	4	Temperatura máxima	16.8
137635	7	Sololá	719	Santiago Atitlán	14	Cerro de Oro	3	Marzo	2023-03-17T00:00:00	2024-11-08T03:00:00	3	Temperatura mínima	16.3
137636	7	Sololá	719	Santiago Atitlán	14	Cerro de Oro	3	Marzo	2023-03-17T00:00:00	2024-11-08T03:00:00	5	Humedad	89
137637	7	Sololá	719	Santiago Atitlán	14	Cerro de Oro	3	Marzo	2023-03-17T00:00:00	2024-11-08T03:00:00	6	Velocidad del viento	3.2
137638	7	Sololá	719	Santiago Atitlán	14	Cerro de Oro	3	Marzo	2023-03-17T00:00:00	2024-11-08T03:00:00	7	Dirección del viento	3.22
137639	7	Sololá	719	Santiago Atitlán	14	Cerro de Oro	3	Marzo	2023-03-17T00:00:00	2024-11-08T03:00:00	1	Precipitación	0
137640	7	Sololá	719	Santiago Atitlán	14	Cerro de Oro	3	Marzo	2023-03-17T00:00:00	2024-11-08T03:00:00	8	Radiación solar	0
137641	7	Sololá	719	Santiago Atitlán	14	Cerro de Oro	3	Marzo	2023-03-17T00:00:00	2024-11-08T04:00:00	2	Temperatura media	16.1
137642	7	Sololá	719	Santiago Atitlán	14	Cerro de Oro	3	Marzo	2023-03-17T00:00:00	2024-11-08T04:00:00	4	Temperatura máxima	16.6
137643	7	Sololá	719	Santiago Atitlán	14	Cerro de Oro	3	Marzo	2023-03-17T00:00:00	2024-11-08T04:00:00	3	Temperatura mínima	16.1
137644	7	Sololá	719	Santiago Atitlán	14	Cerro de Oro	3	Marzo	2023-03-17T00:00:00	2024-11-08T04:00:00	5	Humedad	90
137645	7	Sololá	719	Santiago Atitlán	14	Cerro de Oro	3	Marzo	2023-03-17T00:00:00	2024-11-08T04:00:00	6	Velocidad del viento	3.2
137646	7	Sololá	719	Santiago Atitlán	14	Cerro de Oro	3	Marzo	2023-03-17T00:00:00	2024-11-08T04:00:00	7	Dirección del viento	3.22
137647	7	Sololá	719	Santiago Atitlán	14	Cerro de Oro	3	Marzo	2023-03-17T00:00:00	2024-11-08T04:00:00	1	Precipitación	0
137648	7	Sololá	719	Santiago Atitlán	14	Cerro de Oro	3	Marzo	2023-03-17T00:00:00	2024-11-08T04:00:00	8	Radiación solar	0
137649	7	Sololá	719	Santiago Atitlán	14	Cerro de Oro	3	Marzo	2023-03-17T00:00:00	2024-11-08T05:00:00	2	Temperatura media	16.1
137650	7	Sololá	719	Santiago Atitlán	14	Cerro de Oro	3	Marzo	2023-03-17T00:00:00	2024-11-08T05:00:00	4	Temperatura máxima	16.2
137651	7	Sololá	719	Santiago Atitlán	14	Cerro de Oro	3	Marzo	2023-03-17T00:00:00	2024-11-08T05:00:00	3	Temperatura mínima	15.9
137652	7	Sololá	719	Santiago Atitlán	14	Cerro de Oro	3	Marzo	2023-03-17T00:00:00	2024-11-08T05:00:00	5	Humedad	90
137653	7	Sololá	719	Santiago Atitlán	14	Cerro de Oro	3	Marzo	2023-03-17T00:00:00	2024-11-08T05:00:00	6	Velocidad del viento	4.8
137654	7	Sololá	719	Santiago Atitlán	14	Cerro de Oro	3	Marzo	2023-03-17T00:00:00	2024-11-08T05:00:00	7	Dirección del viento	4.83
137655	7	Sololá	719	Santiago Atitlán	14	Cerro de Oro	3	Marzo	2023-03-17T00:00:00	2024-11-08T05:00:00	1	Precipitación	0
137656	7	Sololá	719	Santiago Atitlán	14	Cerro de Oro	3	Marzo	2023-03-17T00:00:00	2024-11-08T05:00:00	8	Radiación solar	0
137657	7	Sololá	719	Santiago Atitlán	14	Cerro de Oro	3	Marzo	2023-03-17T00:00:00	2024-11-08T06:00:00	2	Temperatura media	16.2
137658	7	Sololá	719	Santiago Atitlán	14	Cerro de Oro	3	Marzo	2023-03-17T00:00:00	2024-11-08T06:00:00	4	Temperatura máxima	16.3
137659	7	Sololá	719	Santiago Atitlán	14	Cerro de Oro	3	Marzo	2023-03-17T00:00:00	2024-11-08T06:00:00	3	Temperatura mínima	15.9
137660	7	Sololá	719	Santiago Atitlán	14	Cerro de Oro	3	Marzo	2023-03-17T00:00:00	2024-11-08T06:00:00	5	Humedad	87
137661	7	Sololá	719	Santiago Atitlán	14	Cerro de Oro	3	Marzo	2023-03-17T00:00:00	2024-11-08T06:00:00	6	Velocidad del viento	4.8
137662	7	Sololá	719	Santiago Atitlán	14	Cerro de Oro	3	Marzo	2023-03-17T00:00:00	2024-11-08T06:00:00	7	Dirección del viento	4.83
137663	7	Sololá	719	Santiago Atitlán	14	Cerro de Oro	3	Marzo	2023-03-17T00:00:00	2024-11-08T06:00:00	1	Precipitación	0
137664	7	Sololá	719	Santiago Atitlán	14	Cerro de Oro	3	Marzo	2023-03-17T00:00:00	2024-11-08T06:00:00	8	Radiación solar	0
137665	7	Sololá	719	Santiago Atitlán	14	Cerro de Oro	3	Marzo	2023-03-17T00:00:00	2024-11-08T07:00:00	2	Temperatura media	16.1
137666	7	Sololá	719	Santiago Atitlán	14	Cerro de Oro	3	Marzo	2023-03-17T00:00:00	2024-11-08T07:00:00	4	Temperatura máxima	16.3
137667	7	Sololá	719	Santiago Atitlán	14	Cerro de Oro	3	Marzo	2023-03-17T00:00:00	2024-11-08T07:00:00	3	Temperatura mínima	15.9
137668	7	Sololá	719	Santiago Atitlán	14	Cerro de Oro	3	Marzo	2023-03-17T00:00:00	2024-11-08T07:00:00	5	Humedad	87
137669	7	Sololá	719	Santiago Atitlán	14	Cerro de Oro	3	Marzo	2023-03-17T00:00:00	2024-11-08T07:00:00	6	Velocidad del viento	4.8
137670	7	Sololá	719	Santiago Atitlán	14	Cerro de Oro	3	Marzo	2023-03-17T00:00:00	2024-11-08T07:00:00	7	Dirección del viento	4.83
137671	7	Sololá	719	Santiago Atitlán	14	Cerro de Oro	3	Marzo	2023-03-17T00:00:00	2024-11-08T07:00:00	1	Precipitación	0
137672	7	Sololá	719	Santiago Atitlán	14	Cerro de Oro	3	Marzo	2023-03-17T00:00:00	2024-11-08T07:00:00	8	Radiación solar	51
137673	7	Sololá	719	Santiago Atitlán	14	Cerro de Oro	3	Marzo	2023-03-17T00:00:00	2024-11-08T08:00:00	2	Temperatura media	16.9
137674	7	Sololá	719	Santiago Atitlán	14	Cerro de Oro	3	Marzo	2023-03-17T00:00:00	2024-11-08T08:00:00	4	Temperatura máxima	16.9
137675	7	Sololá	719	Santiago Atitlán	14	Cerro de Oro	3	Marzo	2023-03-17T00:00:00	2024-11-08T08:00:00	3	Temperatura mínima	16
137676	7	Sololá	719	Santiago Atitlán	14	Cerro de Oro	3	Marzo	2023-03-17T00:00:00	2024-11-08T08:00:00	5	Humedad	82
137677	7	Sololá	719	Santiago Atitlán	14	Cerro de Oro	3	Marzo	2023-03-17T00:00:00	2024-11-08T08:00:00	6	Velocidad del viento	3.2
137678	7	Sololá	719	Santiago Atitlán	14	Cerro de Oro	3	Marzo	2023-03-17T00:00:00	2024-11-08T08:00:00	7	Dirección del viento	3.22
137679	7	Sololá	719	Santiago Atitlán	14	Cerro de Oro	3	Marzo	2023-03-17T00:00:00	2024-11-08T08:00:00	1	Precipitación	0
137680	7	Sololá	719	Santiago Atitlán	14	Cerro de Oro	3	Marzo	2023-03-17T00:00:00	2024-11-08T08:00:00	8	Radiación solar	169
137681	7	Sololá	719	Santiago Atitlán	14	Cerro de Oro	3	Marzo	2023-03-17T00:00:00	2024-11-08T09:00:00	2	Temperatura media	18.2
137682	7	Sololá	719	Santiago Atitlán	14	Cerro de Oro	3	Marzo	2023-03-17T00:00:00	2024-11-08T09:00:00	4	Temperatura máxima	18.3
137683	7	Sololá	719	Santiago Atitlán	14	Cerro de Oro	3	Marzo	2023-03-17T00:00:00	2024-11-08T09:00:00	3	Temperatura mínima	16.9
137684	7	Sololá	719	Santiago Atitlán	14	Cerro de Oro	3	Marzo	2023-03-17T00:00:00	2024-11-08T09:00:00	5	Humedad	79
137685	7	Sololá	719	Santiago Atitlán	14	Cerro de Oro	3	Marzo	2023-03-17T00:00:00	2024-11-08T09:00:00	6	Velocidad del viento	3.2
137686	7	Sololá	719	Santiago Atitlán	14	Cerro de Oro	3	Marzo	2023-03-17T00:00:00	2024-11-08T09:00:00	7	Dirección del viento	3.22
137687	7	Sololá	719	Santiago Atitlán	14	Cerro de Oro	3	Marzo	2023-03-17T00:00:00	2024-11-08T09:00:00	1	Precipitación	0
137688	7	Sololá	719	Santiago Atitlán	14	Cerro de Oro	3	Marzo	2023-03-17T00:00:00	2024-11-08T09:00:00	8	Radiación solar	382
137689	7	Sololá	719	Santiago Atitlán	14	Cerro de Oro	3	Marzo	2023-03-17T00:00:00	2024-11-08T10:00:00	2	Temperatura media	19.2
137690	7	Sololá	719	Santiago Atitlán	14	Cerro de Oro	3	Marzo	2023-03-17T00:00:00	2024-11-08T10:00:00	4	Temperatura máxima	19.2
137691	7	Sololá	719	Santiago Atitlán	14	Cerro de Oro	3	Marzo	2023-03-17T00:00:00	2024-11-08T10:00:00	3	Temperatura mínima	18.2
137692	7	Sololá	719	Santiago Atitlán	14	Cerro de Oro	3	Marzo	2023-03-17T00:00:00	2024-11-08T10:00:00	5	Humedad	77
137693	7	Sololá	719	Santiago Atitlán	14	Cerro de Oro	3	Marzo	2023-03-17T00:00:00	2024-11-08T10:00:00	6	Velocidad del viento	3.2
137694	7	Sololá	719	Santiago Atitlán	14	Cerro de Oro	3	Marzo	2023-03-17T00:00:00	2024-11-08T10:00:00	7	Dirección del viento	3.22
137695	7	Sololá	719	Santiago Atitlán	14	Cerro de Oro	3	Marzo	2023-03-17T00:00:00	2024-11-08T10:00:00	1	Precipitación	0
137696	7	Sololá	719	Santiago Atitlán	14	Cerro de Oro	3	Marzo	2023-03-17T00:00:00	2024-11-08T10:00:00	8	Radiación solar	514
137697	7	Sololá	719	Santiago Atitlán	14	Cerro de Oro	3	Marzo	2023-03-17T00:00:00	2024-11-08T11:00:00	2	Temperatura media	20.7
137698	7	Sololá	719	Santiago Atitlán	14	Cerro de Oro	3	Marzo	2023-03-17T00:00:00	2024-11-08T11:00:00	4	Temperatura máxima	20.7
137699	7	Sololá	719	Santiago Atitlán	14	Cerro de Oro	3	Marzo	2023-03-17T00:00:00	2024-11-08T11:00:00	3	Temperatura mínima	19.2
137700	7	Sololá	719	Santiago Atitlán	14	Cerro de Oro	3	Marzo	2023-03-17T00:00:00	2024-11-08T11:00:00	5	Humedad	74
137701	7	Sololá	719	Santiago Atitlán	14	Cerro de Oro	3	Marzo	2023-03-17T00:00:00	2024-11-08T11:00:00	6	Velocidad del viento	4.8
137702	7	Sololá	719	Santiago Atitlán	14	Cerro de Oro	3	Marzo	2023-03-17T00:00:00	2024-11-08T11:00:00	7	Dirección del viento	4.83
137703	7	Sololá	719	Santiago Atitlán	14	Cerro de Oro	3	Marzo	2023-03-17T00:00:00	2024-11-08T11:00:00	1	Precipitación	0
137704	7	Sololá	719	Santiago Atitlán	14	Cerro de Oro	3	Marzo	2023-03-17T00:00:00	2024-11-08T11:00:00	8	Radiación solar	642
137705	7	Sololá	719	Santiago Atitlán	14	Cerro de Oro	3	Marzo	2023-03-17T00:00:00	2024-11-08T12:00:00	2	Temperatura media	21.6
137706	7	Sololá	719	Santiago Atitlán	14	Cerro de Oro	3	Marzo	2023-03-17T00:00:00	2024-11-08T12:00:00	4	Temperatura máxima	21.8
137707	7	Sololá	719	Santiago Atitlán	14	Cerro de Oro	3	Marzo	2023-03-17T00:00:00	2024-11-08T12:00:00	3	Temperatura mínima	20.3
137708	7	Sololá	719	Santiago Atitlán	14	Cerro de Oro	3	Marzo	2023-03-17T00:00:00	2024-11-08T12:00:00	5	Humedad	73
137709	7	Sololá	719	Santiago Atitlán	14	Cerro de Oro	3	Marzo	2023-03-17T00:00:00	2024-11-08T12:00:00	6	Velocidad del viento	6.4
137710	7	Sololá	719	Santiago Atitlán	14	Cerro de Oro	3	Marzo	2023-03-17T00:00:00	2024-11-08T12:00:00	7	Dirección del viento	6.44
137711	7	Sololá	719	Santiago Atitlán	14	Cerro de Oro	3	Marzo	2023-03-17T00:00:00	2024-11-08T12:00:00	1	Precipitación	0
137712	7	Sololá	719	Santiago Atitlán	14	Cerro de Oro	3	Marzo	2023-03-17T00:00:00	2024-11-08T12:00:00	8	Radiación solar	422
137713	7	Sololá	719	Santiago Atitlán	14	Cerro de Oro	3	Marzo	2023-03-17T00:00:00	2024-11-08T13:00:00	2	Temperatura media	20.7
137714	7	Sololá	719	Santiago Atitlán	14	Cerro de Oro	3	Marzo	2023-03-17T00:00:00	2024-11-08T13:00:00	4	Temperatura máxima	22.1
137715	7	Sololá	719	Santiago Atitlán	14	Cerro de Oro	3	Marzo	2023-03-17T00:00:00	2024-11-08T13:00:00	3	Temperatura mínima	20.2
137716	7	Sololá	719	Santiago Atitlán	14	Cerro de Oro	3	Marzo	2023-03-17T00:00:00	2024-11-08T13:00:00	5	Humedad	78
137717	7	Sololá	719	Santiago Atitlán	14	Cerro de Oro	3	Marzo	2023-03-17T00:00:00	2024-11-08T13:00:00	6	Velocidad del viento	8
137718	7	Sololá	719	Santiago Atitlán	14	Cerro de Oro	3	Marzo	2023-03-17T00:00:00	2024-11-08T13:00:00	7	Dirección del viento	8.05
137719	7	Sololá	719	Santiago Atitlán	14	Cerro de Oro	3	Marzo	2023-03-17T00:00:00	2024-11-08T13:00:00	1	Precipitación	0
137720	7	Sololá	719	Santiago Atitlán	14	Cerro de Oro	3	Marzo	2023-03-17T00:00:00	2024-11-08T13:00:00	8	Radiación solar	533
137721	7	Sololá	719	Santiago Atitlán	14	Cerro de Oro	3	Marzo	2023-03-17T00:00:00	2024-11-08T14:00:00	2	Temperatura media	21.1
137722	7	Sololá	719	Santiago Atitlán	14	Cerro de Oro	3	Marzo	2023-03-17T00:00:00	2024-11-08T14:00:00	4	Temperatura máxima	21.9
137723	7	Sololá	719	Santiago Atitlán	14	Cerro de Oro	3	Marzo	2023-03-17T00:00:00	2024-11-08T14:00:00	3	Temperatura mínima	20.6
137724	7	Sololá	719	Santiago Atitlán	14	Cerro de Oro	3	Marzo	2023-03-17T00:00:00	2024-11-08T14:00:00	5	Humedad	76
137725	7	Sololá	719	Santiago Atitlán	14	Cerro de Oro	3	Marzo	2023-03-17T00:00:00	2024-11-08T14:00:00	6	Velocidad del viento	11.3
137726	7	Sololá	719	Santiago Atitlán	14	Cerro de Oro	3	Marzo	2023-03-17T00:00:00	2024-11-08T14:00:00	7	Dirección del viento	11.27
137727	7	Sololá	719	Santiago Atitlán	14	Cerro de Oro	3	Marzo	2023-03-17T00:00:00	2024-11-08T14:00:00	1	Precipitación	0
137728	7	Sololá	719	Santiago Atitlán	14	Cerro de Oro	3	Marzo	2023-03-17T00:00:00	2024-11-08T14:00:00	8	Radiación solar	214
137729	7	Sololá	719	Santiago Atitlán	14	Cerro de Oro	3	Marzo	2023-03-17T00:00:00	2024-11-08T15:00:00	2	Temperatura media	20.4
137730	7	Sololá	719	Santiago Atitlán	14	Cerro de Oro	3	Marzo	2023-03-17T00:00:00	2024-11-08T15:00:00	4	Temperatura máxima	21.1
137731	7	Sololá	719	Santiago Atitlán	14	Cerro de Oro	3	Marzo	2023-03-17T00:00:00	2024-11-08T15:00:00	3	Temperatura mínima	20.1
137732	7	Sololá	719	Santiago Atitlán	14	Cerro de Oro	3	Marzo	2023-03-17T00:00:00	2024-11-08T15:00:00	5	Humedad	81
137733	7	Sololá	719	Santiago Atitlán	14	Cerro de Oro	3	Marzo	2023-03-17T00:00:00	2024-11-08T15:00:00	6	Velocidad del viento	11.3
137734	7	Sololá	719	Santiago Atitlán	14	Cerro de Oro	3	Marzo	2023-03-17T00:00:00	2024-11-08T15:00:00	7	Dirección del viento	11.27
137735	7	Sololá	719	Santiago Atitlán	14	Cerro de Oro	3	Marzo	2023-03-17T00:00:00	2024-11-08T15:00:00	1	Precipitación	0
137736	7	Sololá	719	Santiago Atitlán	14	Cerro de Oro	3	Marzo	2023-03-17T00:00:00	2024-11-08T15:00:00	8	Radiación solar	190
137737	7	Sololá	719	Santiago Atitlán	14	Cerro de Oro	3	Marzo	2023-03-17T00:00:00	2024-11-08T16:00:00	2	Temperatura media	19.7
137738	7	Sololá	719	Santiago Atitlán	14	Cerro de Oro	3	Marzo	2023-03-17T00:00:00	2024-11-08T16:00:00	4	Temperatura máxima	20.4
137739	7	Sololá	719	Santiago Atitlán	14	Cerro de Oro	3	Marzo	2023-03-17T00:00:00	2024-11-08T16:00:00	3	Temperatura mínima	19.6
137740	7	Sololá	719	Santiago Atitlán	14	Cerro de Oro	3	Marzo	2023-03-17T00:00:00	2024-11-08T16:00:00	5	Humedad	86
137741	7	Sololá	719	Santiago Atitlán	14	Cerro de Oro	3	Marzo	2023-03-17T00:00:00	2024-11-08T16:00:00	6	Velocidad del viento	4.8
137742	7	Sololá	719	Santiago Atitlán	14	Cerro de Oro	3	Marzo	2023-03-17T00:00:00	2024-11-08T16:00:00	7	Dirección del viento	4.83
137743	7	Sololá	719	Santiago Atitlán	14	Cerro de Oro	3	Marzo	2023-03-17T00:00:00	2024-11-08T16:00:00	1	Precipitación	0.2
137744	7	Sololá	719	Santiago Atitlán	14	Cerro de Oro	3	Marzo	2023-03-17T00:00:00	2024-11-08T16:00:00	8	Radiación solar	151
137745	7	Sololá	719	Santiago Atitlán	14	Cerro de Oro	3	Marzo	2023-03-17T00:00:00	2024-11-08T17:00:00	2	Temperatura media	19.8
137746	7	Sololá	719	Santiago Atitlán	14	Cerro de Oro	3	Marzo	2023-03-17T00:00:00	2024-11-08T17:00:00	4	Temperatura máxima	19.8
137747	7	Sololá	719	Santiago Atitlán	14	Cerro de Oro	3	Marzo	2023-03-17T00:00:00	2024-11-08T17:00:00	3	Temperatura mínima	18.6
137748	7	Sololá	719	Santiago Atitlán	14	Cerro de Oro	3	Marzo	2023-03-17T00:00:00	2024-11-08T17:00:00	5	Humedad	79
137749	7	Sololá	719	Santiago Atitlán	14	Cerro de Oro	3	Marzo	2023-03-17T00:00:00	2024-11-08T17:00:00	6	Velocidad del viento	4.8
137750	7	Sololá	719	Santiago Atitlán	14	Cerro de Oro	3	Marzo	2023-03-17T00:00:00	2024-11-08T17:00:00	7	Dirección del viento	4.83
137751	7	Sololá	719	Santiago Atitlán	14	Cerro de Oro	3	Marzo	2023-03-17T00:00:00	2024-11-08T17:00:00	1	Precipitación	0
137752	7	Sololá	719	Santiago Atitlán	14	Cerro de Oro	3	Marzo	2023-03-17T00:00:00	2024-11-08T17:00:00	8	Radiación solar	44
137753	7	Sololá	719	Santiago Atitlán	14	Cerro de Oro	3	Marzo	2023-03-17T00:00:00	2024-11-08T18:00:00	2	Temperatura media	18.2
137754	7	Sololá	719	Santiago Atitlán	14	Cerro de Oro	3	Marzo	2023-03-17T00:00:00	2024-11-08T18:00:00	4	Temperatura máxima	19.8
137755	7	Sololá	719	Santiago Atitlán	14	Cerro de Oro	3	Marzo	2023-03-17T00:00:00	2024-11-08T18:00:00	3	Temperatura mínima	18.2
137756	7	Sololá	719	Santiago Atitlán	14	Cerro de Oro	3	Marzo	2023-03-17T00:00:00	2024-11-08T18:00:00	5	Humedad	88
137757	7	Sololá	719	Santiago Atitlán	14	Cerro de Oro	3	Marzo	2023-03-17T00:00:00	2024-11-08T18:00:00	6	Velocidad del viento	6.4
137758	7	Sololá	719	Santiago Atitlán	14	Cerro de Oro	3	Marzo	2023-03-17T00:00:00	2024-11-08T18:00:00	7	Dirección del viento	6.44
137759	7	Sololá	719	Santiago Atitlán	14	Cerro de Oro	3	Marzo	2023-03-17T00:00:00	2024-11-08T18:00:00	1	Precipitación	0
137760	7	Sololá	719	Santiago Atitlán	14	Cerro de Oro	3	Marzo	2023-03-17T00:00:00	2024-11-08T18:00:00	8	Radiación solar	48
137761	7	Sololá	719	Santiago Atitlán	14	Cerro de Oro	3	Marzo	2023-03-17T00:00:00	2024-11-08T19:00:00	2	Temperatura media	17.8
137762	7	Sololá	719	Santiago Atitlán	14	Cerro de Oro	3	Marzo	2023-03-17T00:00:00	2024-11-08T19:00:00	4	Temperatura máxima	18.4
137763	7	Sololá	719	Santiago Atitlán	14	Cerro de Oro	3	Marzo	2023-03-17T00:00:00	2024-11-08T19:00:00	3	Temperatura mínima	17.8
137764	7	Sololá	719	Santiago Atitlán	14	Cerro de Oro	3	Marzo	2023-03-17T00:00:00	2024-11-08T19:00:00	5	Humedad	88
137765	7	Sololá	719	Santiago Atitlán	14	Cerro de Oro	3	Marzo	2023-03-17T00:00:00	2024-11-08T19:00:00	6	Velocidad del viento	6.4
137766	7	Sololá	719	Santiago Atitlán	14	Cerro de Oro	3	Marzo	2023-03-17T00:00:00	2024-11-08T19:00:00	7	Dirección del viento	6.44
137767	7	Sololá	719	Santiago Atitlán	14	Cerro de Oro	3	Marzo	2023-03-17T00:00:00	2024-11-08T19:00:00	1	Precipitación	0
137768	7	Sololá	719	Santiago Atitlán	14	Cerro de Oro	3	Marzo	2023-03-17T00:00:00	2024-11-08T19:00:00	8	Radiación solar	0
137769	7	Sololá	719	Santiago Atitlán	14	Cerro de Oro	3	Marzo	2023-03-17T00:00:00	2024-11-08T20:00:00	2	Temperatura media	17.7
137770	7	Sololá	719	Santiago Atitlán	14	Cerro de Oro	3	Marzo	2023-03-17T00:00:00	2024-11-08T20:00:00	4	Temperatura máxima	17.9
137771	7	Sololá	719	Santiago Atitlán	14	Cerro de Oro	3	Marzo	2023-03-17T00:00:00	2024-11-08T20:00:00	3	Temperatura mínima	17.5
137772	7	Sololá	719	Santiago Atitlán	14	Cerro de Oro	3	Marzo	2023-03-17T00:00:00	2024-11-08T20:00:00	5	Humedad	87
137773	7	Sololá	719	Santiago Atitlán	14	Cerro de Oro	3	Marzo	2023-03-17T00:00:00	2024-11-08T20:00:00	6	Velocidad del viento	4.8
137774	7	Sololá	719	Santiago Atitlán	14	Cerro de Oro	3	Marzo	2023-03-17T00:00:00	2024-11-08T20:00:00	7	Dirección del viento	4.83
137775	7	Sololá	719	Santiago Atitlán	14	Cerro de Oro	3	Marzo	2023-03-17T00:00:00	2024-11-08T20:00:00	1	Precipitación	0
137776	7	Sololá	719	Santiago Atitlán	14	Cerro de Oro	3	Marzo	2023-03-17T00:00:00	2024-11-08T20:00:00	8	Radiación solar	0
137777	7	Sololá	719	Santiago Atitlán	14	Cerro de Oro	3	Marzo	2023-03-17T00:00:00	2024-11-08T21:00:00	2	Temperatura media	17.4
137778	7	Sololá	719	Santiago Atitlán	14	Cerro de Oro	3	Marzo	2023-03-17T00:00:00	2024-11-08T21:00:00	4	Temperatura máxima	17.8
137779	7	Sololá	719	Santiago Atitlán	14	Cerro de Oro	3	Marzo	2023-03-17T00:00:00	2024-11-08T21:00:00	3	Temperatura mínima	17.3
137780	7	Sololá	719	Santiago Atitlán	14	Cerro de Oro	3	Marzo	2023-03-17T00:00:00	2024-11-08T21:00:00	5	Humedad	87
137781	7	Sololá	719	Santiago Atitlán	14	Cerro de Oro	3	Marzo	2023-03-17T00:00:00	2024-11-08T21:00:00	6	Velocidad del viento	3.2
137782	7	Sololá	719	Santiago Atitlán	14	Cerro de Oro	3	Marzo	2023-03-17T00:00:00	2024-11-08T21:00:00	7	Dirección del viento	3.22
137783	7	Sololá	719	Santiago Atitlán	14	Cerro de Oro	3	Marzo	2023-03-17T00:00:00	2024-11-08T21:00:00	1	Precipitación	0
137784	7	Sololá	719	Santiago Atitlán	14	Cerro de Oro	3	Marzo	2023-03-17T00:00:00	2024-11-08T21:00:00	8	Radiación solar	0
137785	7	Sololá	719	Santiago Atitlán	14	Cerro de Oro	3	Marzo	2023-03-17T00:00:00	2024-11-08T22:00:00	2	Temperatura media	16.9
137786	7	Sololá	719	Santiago Atitlán	14	Cerro de Oro	3	Marzo	2023-03-17T00:00:00	2024-11-08T22:00:00	4	Temperatura máxima	17.4
137787	7	Sololá	719	Santiago Atitlán	14	Cerro de Oro	3	Marzo	2023-03-17T00:00:00	2024-11-08T22:00:00	3	Temperatura mínima	16.9
137788	7	Sololá	719	Santiago Atitlán	14	Cerro de Oro	3	Marzo	2023-03-17T00:00:00	2024-11-08T22:00:00	5	Humedad	88
137789	7	Sololá	719	Santiago Atitlán	14	Cerro de Oro	3	Marzo	2023-03-17T00:00:00	2024-11-08T22:00:00	6	Velocidad del viento	3.2
137790	7	Sololá	719	Santiago Atitlán	14	Cerro de Oro	3	Marzo	2023-03-17T00:00:00	2024-11-08T22:00:00	7	Dirección del viento	3.22
137791	7	Sololá	719	Santiago Atitlán	14	Cerro de Oro	3	Marzo	2023-03-17T00:00:00	2024-11-08T22:00:00	1	Precipitación	0
137792	7	Sololá	719	Santiago Atitlán	14	Cerro de Oro	3	Marzo	2023-03-17T00:00:00	2024-11-08T22:00:00	8	Radiación solar	0
137793	7	Sololá	719	Santiago Atitlán	14	Cerro de Oro	3	Marzo	2023-03-17T00:00:00	2024-11-08T23:00:00	2	Temperatura media	16.7
137794	7	Sololá	719	Santiago Atitlán	14	Cerro de Oro	3	Marzo	2023-03-17T00:00:00	2024-11-08T23:00:00	4	Temperatura máxima	17
137795	7	Sololá	719	Santiago Atitlán	14	Cerro de Oro	3	Marzo	2023-03-17T00:00:00	2024-11-08T23:00:00	3	Temperatura mínima	16.3
137796	7	Sololá	719	Santiago Atitlán	14	Cerro de Oro	3	Marzo	2023-03-17T00:00:00	2024-11-08T23:00:00	5	Humedad	88
137797	7	Sololá	719	Santiago Atitlán	14	Cerro de Oro	3	Marzo	2023-03-17T00:00:00	2024-11-08T23:00:00	6	Velocidad del viento	3.2
137798	7	Sololá	719	Santiago Atitlán	14	Cerro de Oro	3	Marzo	2023-03-17T00:00:00	2024-11-08T23:00:00	7	Dirección del viento	3.22
137799	7	Sololá	719	Santiago Atitlán	14	Cerro de Oro	3	Marzo	2023-03-17T00:00:00	2024-11-08T23:00:00	1	Precipitación	0
137800	7	Sololá	719	Santiago Atitlán	14	Cerro de Oro	3	Marzo	2023-03-17T00:00:00	2024-11-08T23:00:00	8	Radiación solar	0
137801	7	Sololá	719	Santiago Atitlán	14	Cerro de Oro	3	Marzo	2023-03-18T00:00:00	2024-11-08T00:00:00	2	Temperatura media	16.9
137802	7	Sololá	719	Santiago Atitlán	14	Cerro de Oro	3	Marzo	2023-03-18T00:00:00	2024-11-08T00:00:00	4	Temperatura máxima	16.9
137803	7	Sololá	719	Santiago Atitlán	14	Cerro de Oro	3	Marzo	2023-03-18T00:00:00	2024-11-08T00:00:00	3	Temperatura mínima	16.4
137804	7	Sololá	719	Santiago Atitlán	14	Cerro de Oro	3	Marzo	2023-03-18T00:00:00	2024-11-08T00:00:00	5	Humedad	87
137805	7	Sololá	719	Santiago Atitlán	14	Cerro de Oro	3	Marzo	2023-03-18T00:00:00	2024-11-08T00:00:00	6	Velocidad del viento	4.8
137806	7	Sololá	719	Santiago Atitlán	14	Cerro de Oro	3	Marzo	2023-03-18T00:00:00	2024-11-08T00:00:00	7	Dirección del viento	4.83
137807	7	Sololá	719	Santiago Atitlán	14	Cerro de Oro	3	Marzo	2023-03-18T00:00:00	2024-11-08T00:00:00	1	Precipitación	0
137808	7	Sololá	719	Santiago Atitlán	14	Cerro de Oro	3	Marzo	2023-03-18T00:00:00	2024-11-08T00:00:00	8	Radiación solar	0
137809	7	Sololá	719	Santiago Atitlán	14	Cerro de Oro	3	Marzo	2023-03-18T00:00:00	2024-11-08T01:00:00	2	Temperatura media	16.1
137810	7	Sololá	719	Santiago Atitlán	14	Cerro de Oro	3	Marzo	2023-03-18T00:00:00	2024-11-08T01:00:00	4	Temperatura máxima	16.9
137811	7	Sololá	719	Santiago Atitlán	14	Cerro de Oro	3	Marzo	2023-03-18T00:00:00	2024-11-08T01:00:00	3	Temperatura mínima	15.8
137812	7	Sololá	719	Santiago Atitlán	14	Cerro de Oro	3	Marzo	2023-03-18T00:00:00	2024-11-08T01:00:00	5	Humedad	89
137813	7	Sololá	719	Santiago Atitlán	14	Cerro de Oro	3	Marzo	2023-03-18T00:00:00	2024-11-08T01:00:00	6	Velocidad del viento	4.8
137814	7	Sololá	719	Santiago Atitlán	14	Cerro de Oro	3	Marzo	2023-03-18T00:00:00	2024-11-08T01:00:00	7	Dirección del viento	4.83
137815	7	Sololá	719	Santiago Atitlán	14	Cerro de Oro	3	Marzo	2023-03-18T00:00:00	2024-11-08T01:00:00	1	Precipitación	0
137816	7	Sololá	719	Santiago Atitlán	14	Cerro de Oro	3	Marzo	2023-03-18T00:00:00	2024-11-08T01:00:00	8	Radiación solar	0
137817	7	Sololá	719	Santiago Atitlán	14	Cerro de Oro	3	Marzo	2023-03-18T00:00:00	2024-11-08T02:00:00	2	Temperatura media	16.4
137818	7	Sololá	719	Santiago Atitlán	14	Cerro de Oro	3	Marzo	2023-03-18T00:00:00	2024-11-08T02:00:00	4	Temperatura máxima	16.7
137819	7	Sololá	719	Santiago Atitlán	14	Cerro de Oro	3	Marzo	2023-03-18T00:00:00	2024-11-08T02:00:00	3	Temperatura mínima	16.1
137820	7	Sololá	719	Santiago Atitlán	14	Cerro de Oro	3	Marzo	2023-03-18T00:00:00	2024-11-08T02:00:00	5	Humedad	89
137821	7	Sololá	719	Santiago Atitlán	14	Cerro de Oro	3	Marzo	2023-03-18T00:00:00	2024-11-08T02:00:00	6	Velocidad del viento	3.2
137822	7	Sololá	719	Santiago Atitlán	14	Cerro de Oro	3	Marzo	2023-03-18T00:00:00	2024-11-08T02:00:00	7	Dirección del viento	3.22
137823	7	Sololá	719	Santiago Atitlán	14	Cerro de Oro	3	Marzo	2023-03-18T00:00:00	2024-11-08T02:00:00	1	Precipitación	0
137824	7	Sololá	719	Santiago Atitlán	14	Cerro de Oro	3	Marzo	2023-03-18T00:00:00	2024-11-08T02:00:00	8	Radiación solar	0
137825	7	Sololá	719	Santiago Atitlán	14	Cerro de Oro	3	Marzo	2023-03-18T00:00:00	2024-11-08T03:00:00	2	Temperatura media	16.5
137826	7	Sololá	719	Santiago Atitlán	14	Cerro de Oro	3	Marzo	2023-03-18T00:00:00	2024-11-08T03:00:00	4	Temperatura máxima	16.6
137827	7	Sololá	719	Santiago Atitlán	14	Cerro de Oro	3	Marzo	2023-03-18T00:00:00	2024-11-08T03:00:00	3	Temperatura mínima	16.1
137828	7	Sololá	719	Santiago Atitlán	14	Cerro de Oro	3	Marzo	2023-03-18T00:00:00	2024-11-08T03:00:00	5	Humedad	86
137829	7	Sololá	719	Santiago Atitlán	14	Cerro de Oro	3	Marzo	2023-03-18T00:00:00	2024-11-08T03:00:00	6	Velocidad del viento	1.6
137830	7	Sololá	719	Santiago Atitlán	14	Cerro de Oro	3	Marzo	2023-03-18T00:00:00	2024-11-08T03:00:00	7	Dirección del viento	1.61
137831	7	Sololá	719	Santiago Atitlán	14	Cerro de Oro	3	Marzo	2023-03-18T00:00:00	2024-11-08T03:00:00	1	Precipitación	0
137832	7	Sololá	719	Santiago Atitlán	14	Cerro de Oro	3	Marzo	2023-03-18T00:00:00	2024-11-08T03:00:00	8	Radiación solar	0
137833	7	Sololá	719	Santiago Atitlán	14	Cerro de Oro	3	Marzo	2023-03-18T00:00:00	2024-11-08T04:00:00	2	Temperatura media	16.8
137834	7	Sololá	719	Santiago Atitlán	14	Cerro de Oro	3	Marzo	2023-03-18T00:00:00	2024-11-08T04:00:00	4	Temperatura máxima	16.9
137835	7	Sololá	719	Santiago Atitlán	14	Cerro de Oro	3	Marzo	2023-03-18T00:00:00	2024-11-08T04:00:00	3	Temperatura mínima	16.6
137836	7	Sololá	719	Santiago Atitlán	14	Cerro de Oro	3	Marzo	2023-03-18T00:00:00	2024-11-08T04:00:00	5	Humedad	82
137837	7	Sololá	719	Santiago Atitlán	14	Cerro de Oro	3	Marzo	2023-03-18T00:00:00	2024-11-08T04:00:00	6	Velocidad del viento	3.2
137838	7	Sololá	719	Santiago Atitlán	14	Cerro de Oro	3	Marzo	2023-03-18T00:00:00	2024-11-08T04:00:00	7	Dirección del viento	3.22
137839	7	Sololá	719	Santiago Atitlán	14	Cerro de Oro	3	Marzo	2023-03-18T00:00:00	2024-11-08T04:00:00	1	Precipitación	0
137840	7	Sololá	719	Santiago Atitlán	14	Cerro de Oro	3	Marzo	2023-03-18T00:00:00	2024-11-08T04:00:00	8	Radiación solar	0
137841	7	Sololá	719	Santiago Atitlán	14	Cerro de Oro	3	Marzo	2023-03-18T00:00:00	2024-11-08T05:00:00	2	Temperatura media	16.5
137842	7	Sololá	719	Santiago Atitlán	14	Cerro de Oro	3	Marzo	2023-03-18T00:00:00	2024-11-08T05:00:00	4	Temperatura máxima	16.8
137843	7	Sololá	719	Santiago Atitlán	14	Cerro de Oro	3	Marzo	2023-03-18T00:00:00	2024-11-08T05:00:00	3	Temperatura mínima	16.5
137844	7	Sololá	719	Santiago Atitlán	14	Cerro de Oro	3	Marzo	2023-03-18T00:00:00	2024-11-08T05:00:00	5	Humedad	82
137845	7	Sololá	719	Santiago Atitlán	14	Cerro de Oro	3	Marzo	2023-03-18T00:00:00	2024-11-08T05:00:00	6	Velocidad del viento	3.2
137846	7	Sololá	719	Santiago Atitlán	14	Cerro de Oro	3	Marzo	2023-03-18T00:00:00	2024-11-08T05:00:00	7	Dirección del viento	3.22
137847	7	Sololá	719	Santiago Atitlán	14	Cerro de Oro	3	Marzo	2023-03-18T00:00:00	2024-11-08T05:00:00	1	Precipitación	0
137848	7	Sololá	719	Santiago Atitlán	14	Cerro de Oro	3	Marzo	2023-03-18T00:00:00	2024-11-08T05:00:00	8	Radiación solar	0
137849	7	Sololá	719	Santiago Atitlán	14	Cerro de Oro	3	Marzo	2023-03-18T00:00:00	2024-11-08T06:00:00	2	Temperatura media	15.7
137850	7	Sololá	719	Santiago Atitlán	14	Cerro de Oro	3	Marzo	2023-03-18T00:00:00	2024-11-08T06:00:00	4	Temperatura máxima	16.5
137851	7	Sololá	719	Santiago Atitlán	14	Cerro de Oro	3	Marzo	2023-03-18T00:00:00	2024-11-08T06:00:00	3	Temperatura mínima	15.7
137852	7	Sololá	719	Santiago Atitlán	14	Cerro de Oro	3	Marzo	2023-03-18T00:00:00	2024-11-08T06:00:00	5	Humedad	80
137853	7	Sololá	719	Santiago Atitlán	14	Cerro de Oro	3	Marzo	2023-03-18T00:00:00	2024-11-08T06:00:00	6	Velocidad del viento	3.2
137854	7	Sololá	719	Santiago Atitlán	14	Cerro de Oro	3	Marzo	2023-03-18T00:00:00	2024-11-08T06:00:00	7	Dirección del viento	3.22
137855	7	Sololá	719	Santiago Atitlán	14	Cerro de Oro	3	Marzo	2023-03-18T00:00:00	2024-11-08T06:00:00	1	Precipitación	0
137856	7	Sololá	719	Santiago Atitlán	14	Cerro de Oro	3	Marzo	2023-03-18T00:00:00	2024-11-08T06:00:00	8	Radiación solar	0
137857	7	Sololá	719	Santiago Atitlán	14	Cerro de Oro	3	Marzo	2023-03-18T00:00:00	2024-11-08T07:00:00	2	Temperatura media	15.2
137858	7	Sololá	719	Santiago Atitlán	14	Cerro de Oro	3	Marzo	2023-03-18T00:00:00	2024-11-08T07:00:00	4	Temperatura máxima	15.7
137859	7	Sololá	719	Santiago Atitlán	14	Cerro de Oro	3	Marzo	2023-03-18T00:00:00	2024-11-08T07:00:00	3	Temperatura mínima	15.1
137860	7	Sololá	719	Santiago Atitlán	14	Cerro de Oro	3	Marzo	2023-03-18T00:00:00	2024-11-08T07:00:00	5	Humedad	80
137861	7	Sololá	719	Santiago Atitlán	14	Cerro de Oro	3	Marzo	2023-03-18T00:00:00	2024-11-08T07:00:00	6	Velocidad del viento	4.8
137862	7	Sololá	719	Santiago Atitlán	14	Cerro de Oro	3	Marzo	2023-03-18T00:00:00	2024-11-08T07:00:00	7	Dirección del viento	4.83
137863	7	Sololá	719	Santiago Atitlán	14	Cerro de Oro	3	Marzo	2023-03-18T00:00:00	2024-11-08T07:00:00	1	Precipitación	0
137864	7	Sololá	719	Santiago Atitlán	14	Cerro de Oro	3	Marzo	2023-03-18T00:00:00	2024-11-08T07:00:00	8	Radiación solar	30
137865	7	Sololá	719	Santiago Atitlán	14	Cerro de Oro	3	Marzo	2023-03-18T00:00:00	2024-11-08T08:00:00	2	Temperatura media	16.3
137866	7	Sololá	719	Santiago Atitlán	14	Cerro de Oro	3	Marzo	2023-03-18T00:00:00	2024-11-08T08:00:00	4	Temperatura máxima	16.4
137867	7	Sololá	719	Santiago Atitlán	14	Cerro de Oro	3	Marzo	2023-03-18T00:00:00	2024-11-08T08:00:00	3	Temperatura mínima	15.2
137868	7	Sololá	719	Santiago Atitlán	14	Cerro de Oro	3	Marzo	2023-03-18T00:00:00	2024-11-08T08:00:00	5	Humedad	76
137869	7	Sololá	719	Santiago Atitlán	14	Cerro de Oro	3	Marzo	2023-03-18T00:00:00	2024-11-08T08:00:00	6	Velocidad del viento	3.2
137870	7	Sololá	719	Santiago Atitlán	14	Cerro de Oro	3	Marzo	2023-03-18T00:00:00	2024-11-08T08:00:00	7	Dirección del viento	3.22
137871	7	Sololá	719	Santiago Atitlán	14	Cerro de Oro	3	Marzo	2023-03-18T00:00:00	2024-11-08T08:00:00	1	Precipitación	0
137872	7	Sololá	719	Santiago Atitlán	14	Cerro de Oro	3	Marzo	2023-03-18T00:00:00	2024-11-08T08:00:00	8	Radiación solar	191
137873	7	Sololá	719	Santiago Atitlán	14	Cerro de Oro	3	Marzo	2023-03-18T00:00:00	2024-11-08T09:00:00	2	Temperatura media	18.3
137874	7	Sololá	719	Santiago Atitlán	14	Cerro de Oro	3	Marzo	2023-03-18T00:00:00	2024-11-08T09:00:00	4	Temperatura máxima	18.4
137875	7	Sololá	719	Santiago Atitlán	14	Cerro de Oro	3	Marzo	2023-03-18T00:00:00	2024-11-08T09:00:00	3	Temperatura mínima	16.3
137876	7	Sololá	719	Santiago Atitlán	14	Cerro de Oro	3	Marzo	2023-03-18T00:00:00	2024-11-08T09:00:00	5	Humedad	74
137877	7	Sololá	719	Santiago Atitlán	14	Cerro de Oro	3	Marzo	2023-03-18T00:00:00	2024-11-08T09:00:00	6	Velocidad del viento	3.2
137878	7	Sololá	719	Santiago Atitlán	14	Cerro de Oro	3	Marzo	2023-03-18T00:00:00	2024-11-08T09:00:00	7	Dirección del viento	3.22
137879	7	Sololá	719	Santiago Atitlán	14	Cerro de Oro	3	Marzo	2023-03-18T00:00:00	2024-11-08T09:00:00	1	Precipitación	0
137880	7	Sololá	719	Santiago Atitlán	14	Cerro de Oro	3	Marzo	2023-03-18T00:00:00	2024-11-08T09:00:00	8	Radiación solar	402
137881	7	Sololá	719	Santiago Atitlán	14	Cerro de Oro	3	Marzo	2023-03-18T00:00:00	2024-11-08T10:00:00	2	Temperatura media	19.2
137882	7	Sololá	719	Santiago Atitlán	14	Cerro de Oro	3	Marzo	2023-03-18T00:00:00	2024-11-08T10:00:00	4	Temperatura máxima	19.3
137883	7	Sololá	719	Santiago Atitlán	14	Cerro de Oro	3	Marzo	2023-03-18T00:00:00	2024-11-08T10:00:00	3	Temperatura mínima	18.2
137884	7	Sololá	719	Santiago Atitlán	14	Cerro de Oro	3	Marzo	2023-03-18T00:00:00	2024-11-08T10:00:00	5	Humedad	72
137885	7	Sololá	719	Santiago Atitlán	14	Cerro de Oro	3	Marzo	2023-03-18T00:00:00	2024-11-08T10:00:00	6	Velocidad del viento	4.8
137886	7	Sololá	719	Santiago Atitlán	14	Cerro de Oro	3	Marzo	2023-03-18T00:00:00	2024-11-08T10:00:00	7	Dirección del viento	4.83
137887	7	Sololá	719	Santiago Atitlán	14	Cerro de Oro	3	Marzo	2023-03-18T00:00:00	2024-11-08T10:00:00	1	Precipitación	0
137888	7	Sololá	719	Santiago Atitlán	14	Cerro de Oro	3	Marzo	2023-03-18T00:00:00	2024-11-08T10:00:00	8	Radiación solar	658
137889	7	Sololá	719	Santiago Atitlán	14	Cerro de Oro	3	Marzo	2023-03-18T00:00:00	2024-11-08T11:00:00	2	Temperatura media	20.1
137890	7	Sololá	719	Santiago Atitlán	14	Cerro de Oro	3	Marzo	2023-03-18T00:00:00	2024-11-08T11:00:00	4	Temperatura máxima	20.1
137891	7	Sololá	719	Santiago Atitlán	14	Cerro de Oro	3	Marzo	2023-03-18T00:00:00	2024-11-08T11:00:00	3	Temperatura mínima	19.2
137892	7	Sololá	719	Santiago Atitlán	14	Cerro de Oro	3	Marzo	2023-03-18T00:00:00	2024-11-08T11:00:00	5	Humedad	70
137893	7	Sololá	719	Santiago Atitlán	14	Cerro de Oro	3	Marzo	2023-03-18T00:00:00	2024-11-08T11:00:00	6	Velocidad del viento	4.8
137894	7	Sololá	719	Santiago Atitlán	14	Cerro de Oro	3	Marzo	2023-03-18T00:00:00	2024-11-08T11:00:00	7	Dirección del viento	4.83
137895	7	Sololá	719	Santiago Atitlán	14	Cerro de Oro	3	Marzo	2023-03-18T00:00:00	2024-11-08T11:00:00	1	Precipitación	0
137896	7	Sololá	719	Santiago Atitlán	14	Cerro de Oro	3	Marzo	2023-03-18T00:00:00	2024-11-08T11:00:00	8	Radiación solar	812
137897	7	Sololá	719	Santiago Atitlán	14	Cerro de Oro	3	Marzo	2023-03-18T00:00:00	2024-11-08T12:00:00	2	Temperatura media	21.8
137898	7	Sololá	719	Santiago Atitlán	14	Cerro de Oro	3	Marzo	2023-03-18T00:00:00	2024-11-08T12:00:00	4	Temperatura máxima	21.8
137899	7	Sololá	719	Santiago Atitlán	14	Cerro de Oro	3	Marzo	2023-03-18T00:00:00	2024-11-08T12:00:00	3	Temperatura mínima	20.1
137900	7	Sololá	719	Santiago Atitlán	14	Cerro de Oro	3	Marzo	2023-03-18T00:00:00	2024-11-08T12:00:00	5	Humedad	73
137901	7	Sololá	719	Santiago Atitlán	14	Cerro de Oro	3	Marzo	2023-03-18T00:00:00	2024-11-08T12:00:00	6	Velocidad del viento	9.7
137902	7	Sololá	719	Santiago Atitlán	14	Cerro de Oro	3	Marzo	2023-03-18T00:00:00	2024-11-08T12:00:00	7	Dirección del viento	9.66
137903	7	Sololá	719	Santiago Atitlán	14	Cerro de Oro	3	Marzo	2023-03-18T00:00:00	2024-11-08T12:00:00	1	Precipitación	0
137904	7	Sololá	719	Santiago Atitlán	14	Cerro de Oro	3	Marzo	2023-03-18T00:00:00	2024-11-08T12:00:00	8	Radiación solar	968
137905	7	Sololá	719	Santiago Atitlán	14	Cerro de Oro	3	Marzo	2023-03-18T00:00:00	2024-11-08T13:00:00	2	Temperatura media	22.6
137906	7	Sololá	719	Santiago Atitlán	14	Cerro de Oro	3	Marzo	2023-03-18T00:00:00	2024-11-08T13:00:00	4	Temperatura máxima	22.7
137907	7	Sololá	719	Santiago Atitlán	14	Cerro de Oro	3	Marzo	2023-03-18T00:00:00	2024-11-08T13:00:00	3	Temperatura mínima	21.6
137908	7	Sololá	719	Santiago Atitlán	14	Cerro de Oro	3	Marzo	2023-03-18T00:00:00	2024-11-08T13:00:00	5	Humedad	70
137909	7	Sololá	719	Santiago Atitlán	14	Cerro de Oro	3	Marzo	2023-03-18T00:00:00	2024-11-08T13:00:00	6	Velocidad del viento	11.3
137910	7	Sololá	719	Santiago Atitlán	14	Cerro de Oro	3	Marzo	2023-03-18T00:00:00	2024-11-08T13:00:00	7	Dirección del viento	11.27
137911	7	Sololá	719	Santiago Atitlán	14	Cerro de Oro	3	Marzo	2023-03-18T00:00:00	2024-11-08T13:00:00	1	Precipitación	0
137912	7	Sololá	719	Santiago Atitlán	14	Cerro de Oro	3	Marzo	2023-03-18T00:00:00	2024-11-08T13:00:00	8	Radiación solar	783
137913	7	Sololá	719	Santiago Atitlán	14	Cerro de Oro	3	Marzo	2023-03-18T00:00:00	2024-11-08T14:00:00	2	Temperatura media	22
137914	7	Sololá	719	Santiago Atitlán	14	Cerro de Oro	3	Marzo	2023-03-18T00:00:00	2024-11-08T14:00:00	4	Temperatura máxima	22.7
137915	7	Sololá	719	Santiago Atitlán	14	Cerro de Oro	3	Marzo	2023-03-18T00:00:00	2024-11-08T14:00:00	3	Temperatura mínima	21.8
137916	7	Sololá	719	Santiago Atitlán	14	Cerro de Oro	3	Marzo	2023-03-18T00:00:00	2024-11-08T14:00:00	5	Humedad	74
137917	7	Sololá	719	Santiago Atitlán	14	Cerro de Oro	3	Marzo	2023-03-18T00:00:00	2024-11-08T14:00:00	6	Velocidad del viento	12.9
137918	7	Sololá	719	Santiago Atitlán	14	Cerro de Oro	3	Marzo	2023-03-18T00:00:00	2024-11-08T14:00:00	7	Dirección del viento	12.87
137919	7	Sololá	719	Santiago Atitlán	14	Cerro de Oro	3	Marzo	2023-03-18T00:00:00	2024-11-08T14:00:00	1	Precipitación	0
137920	7	Sololá	719	Santiago Atitlán	14	Cerro de Oro	3	Marzo	2023-03-18T00:00:00	2024-11-08T14:00:00	8	Radiación solar	217
137921	7	Sololá	719	Santiago Atitlán	14	Cerro de Oro	3	Marzo	2023-03-18T00:00:00	2024-11-08T15:00:00	2	Temperatura media	21.3
137922	7	Sololá	719	Santiago Atitlán	14	Cerro de Oro	3	Marzo	2023-03-18T00:00:00	2024-11-08T15:00:00	4	Temperatura máxima	22.4
137923	7	Sololá	719	Santiago Atitlán	14	Cerro de Oro	3	Marzo	2023-03-18T00:00:00	2024-11-08T15:00:00	3	Temperatura mínima	20.6
137924	7	Sololá	719	Santiago Atitlán	14	Cerro de Oro	3	Marzo	2023-03-18T00:00:00	2024-11-08T15:00:00	5	Humedad	75
137925	7	Sololá	719	Santiago Atitlán	14	Cerro de Oro	3	Marzo	2023-03-18T00:00:00	2024-11-08T15:00:00	6	Velocidad del viento	11.3
137926	7	Sololá	719	Santiago Atitlán	14	Cerro de Oro	3	Marzo	2023-03-18T00:00:00	2024-11-08T15:00:00	7	Dirección del viento	11.27
137927	7	Sololá	719	Santiago Atitlán	14	Cerro de Oro	3	Marzo	2023-03-18T00:00:00	2024-11-08T15:00:00	1	Precipitación	0
137928	7	Sololá	719	Santiago Atitlán	14	Cerro de Oro	3	Marzo	2023-03-18T00:00:00	2024-11-08T15:00:00	8	Radiación solar	199
137929	7	Sololá	719	Santiago Atitlán	14	Cerro de Oro	3	Marzo	2023-03-18T00:00:00	2024-11-08T16:00:00	2	Temperatura media	21
137930	7	Sololá	719	Santiago Atitlán	14	Cerro de Oro	3	Marzo	2023-03-18T00:00:00	2024-11-08T16:00:00	4	Temperatura máxima	21.3
137931	7	Sololá	719	Santiago Atitlán	14	Cerro de Oro	3	Marzo	2023-03-18T00:00:00	2024-11-08T16:00:00	3	Temperatura mínima	20.9
137932	7	Sololá	719	Santiago Atitlán	14	Cerro de Oro	3	Marzo	2023-03-18T00:00:00	2024-11-08T16:00:00	5	Humedad	77
137933	7	Sololá	719	Santiago Atitlán	14	Cerro de Oro	3	Marzo	2023-03-18T00:00:00	2024-11-08T16:00:00	6	Velocidad del viento	11.3
137934	7	Sololá	719	Santiago Atitlán	14	Cerro de Oro	3	Marzo	2023-03-18T00:00:00	2024-11-08T16:00:00	7	Dirección del viento	11.27
137935	7	Sololá	719	Santiago Atitlán	14	Cerro de Oro	3	Marzo	2023-03-18T00:00:00	2024-11-08T16:00:00	1	Precipitación	0
137936	7	Sololá	719	Santiago Atitlán	14	Cerro de Oro	3	Marzo	2023-03-18T00:00:00	2024-11-08T16:00:00	8	Radiación solar	149
137937	7	Sololá	719	Santiago Atitlán	14	Cerro de Oro	3	Marzo	2023-03-18T00:00:00	2024-11-08T17:00:00	2	Temperatura media	20.5
137938	7	Sololá	719	Santiago Atitlán	14	Cerro de Oro	3	Marzo	2023-03-18T00:00:00	2024-11-08T17:00:00	4	Temperatura máxima	21.1
137939	7	Sololá	719	Santiago Atitlán	14	Cerro de Oro	3	Marzo	2023-03-18T00:00:00	2024-11-08T17:00:00	3	Temperatura mínima	20.5
137940	7	Sololá	719	Santiago Atitlán	14	Cerro de Oro	3	Marzo	2023-03-18T00:00:00	2024-11-08T17:00:00	5	Humedad	80
137941	7	Sololá	719	Santiago Atitlán	14	Cerro de Oro	3	Marzo	2023-03-18T00:00:00	2024-11-08T17:00:00	6	Velocidad del viento	6.4
137942	7	Sololá	719	Santiago Atitlán	14	Cerro de Oro	3	Marzo	2023-03-18T00:00:00	2024-11-08T17:00:00	7	Dirección del viento	6.44
137943	7	Sololá	719	Santiago Atitlán	14	Cerro de Oro	3	Marzo	2023-03-18T00:00:00	2024-11-08T17:00:00	1	Precipitación	0
137944	7	Sololá	719	Santiago Atitlán	14	Cerro de Oro	3	Marzo	2023-03-18T00:00:00	2024-11-08T17:00:00	8	Radiación solar	44
137945	7	Sololá	719	Santiago Atitlán	14	Cerro de Oro	3	Marzo	2023-03-18T00:00:00	2024-11-08T18:00:00	2	Temperatura media	19
137946	7	Sololá	719	Santiago Atitlán	14	Cerro de Oro	3	Marzo	2023-03-18T00:00:00	2024-11-08T18:00:00	4	Temperatura máxima	20.6
137947	7	Sololá	719	Santiago Atitlán	14	Cerro de Oro	3	Marzo	2023-03-18T00:00:00	2024-11-08T18:00:00	3	Temperatura mínima	19
137948	7	Sololá	719	Santiago Atitlán	14	Cerro de Oro	3	Marzo	2023-03-18T00:00:00	2024-11-08T18:00:00	5	Humedad	85
137949	7	Sololá	719	Santiago Atitlán	14	Cerro de Oro	3	Marzo	2023-03-18T00:00:00	2024-11-08T18:00:00	6	Velocidad del viento	4.8
137950	7	Sololá	719	Santiago Atitlán	14	Cerro de Oro	3	Marzo	2023-03-18T00:00:00	2024-11-08T18:00:00	7	Dirección del viento	4.83
137951	7	Sololá	719	Santiago Atitlán	14	Cerro de Oro	3	Marzo	2023-03-18T00:00:00	2024-11-08T18:00:00	1	Precipitación	0.2
137952	7	Sololá	719	Santiago Atitlán	14	Cerro de Oro	3	Marzo	2023-03-18T00:00:00	2024-11-08T18:00:00	8	Radiación solar	26
137953	7	Sololá	719	Santiago Atitlán	14	Cerro de Oro	3	Marzo	2023-03-18T00:00:00	2024-11-08T19:00:00	2	Temperatura media	16.8
137954	7	Sololá	719	Santiago Atitlán	14	Cerro de Oro	3	Marzo	2023-03-18T00:00:00	2024-11-08T19:00:00	4	Temperatura máxima	19
137955	7	Sololá	719	Santiago Atitlán	14	Cerro de Oro	3	Marzo	2023-03-18T00:00:00	2024-11-08T19:00:00	3	Temperatura mínima	16.4
137956	7	Sololá	719	Santiago Atitlán	14	Cerro de Oro	3	Marzo	2023-03-18T00:00:00	2024-11-08T19:00:00	5	Humedad	80
137957	7	Sololá	719	Santiago Atitlán	14	Cerro de Oro	3	Marzo	2023-03-18T00:00:00	2024-11-08T19:00:00	6	Velocidad del viento	9.7
137958	7	Sololá	719	Santiago Atitlán	14	Cerro de Oro	3	Marzo	2023-03-18T00:00:00	2024-11-08T19:00:00	7	Dirección del viento	9.66
137959	7	Sololá	719	Santiago Atitlán	14	Cerro de Oro	3	Marzo	2023-03-18T00:00:00	2024-11-08T19:00:00	1	Precipitación	1.6
137960	7	Sololá	719	Santiago Atitlán	14	Cerro de Oro	3	Marzo	2023-03-18T00:00:00	2024-11-08T19:00:00	8	Radiación solar	0
137961	7	Sololá	719	Santiago Atitlán	14	Cerro de Oro	3	Marzo	2023-03-18T00:00:00	2024-11-08T20:00:00	2	Temperatura media	15.4
137962	7	Sololá	719	Santiago Atitlán	14	Cerro de Oro	3	Marzo	2023-03-18T00:00:00	2024-11-08T20:00:00	4	Temperatura máxima	16.8
137963	7	Sololá	719	Santiago Atitlán	14	Cerro de Oro	3	Marzo	2023-03-18T00:00:00	2024-11-08T20:00:00	3	Temperatura mínima	15.4
137964	7	Sololá	719	Santiago Atitlán	14	Cerro de Oro	3	Marzo	2023-03-18T00:00:00	2024-11-08T20:00:00	5	Humedad	87
137965	7	Sololá	719	Santiago Atitlán	14	Cerro de Oro	3	Marzo	2023-03-18T00:00:00	2024-11-08T20:00:00	6	Velocidad del viento	6.4
137966	7	Sololá	719	Santiago Atitlán	14	Cerro de Oro	3	Marzo	2023-03-18T00:00:00	2024-11-08T20:00:00	7	Dirección del viento	6.44
137967	7	Sololá	719	Santiago Atitlán	14	Cerro de Oro	3	Marzo	2023-03-18T00:00:00	2024-11-08T20:00:00	1	Precipitación	0
137968	7	Sololá	719	Santiago Atitlán	14	Cerro de Oro	3	Marzo	2023-03-18T00:00:00	2024-11-08T20:00:00	8	Radiación solar	0
137969	7	Sololá	719	Santiago Atitlán	14	Cerro de Oro	3	Marzo	2023-03-18T00:00:00	2024-11-08T21:00:00	2	Temperatura media	16
137970	7	Sololá	719	Santiago Atitlán	14	Cerro de Oro	3	Marzo	2023-03-18T00:00:00	2024-11-08T21:00:00	4	Temperatura máxima	16
137971	7	Sololá	719	Santiago Atitlán	14	Cerro de Oro	3	Marzo	2023-03-18T00:00:00	2024-11-08T21:00:00	3	Temperatura mínima	15.3
137972	7	Sololá	719	Santiago Atitlán	14	Cerro de Oro	3	Marzo	2023-03-18T00:00:00	2024-11-08T21:00:00	5	Humedad	86
137973	7	Sololá	719	Santiago Atitlán	14	Cerro de Oro	3	Marzo	2023-03-18T00:00:00	2024-11-08T21:00:00	6	Velocidad del viento	4.8
137974	7	Sololá	719	Santiago Atitlán	14	Cerro de Oro	3	Marzo	2023-03-18T00:00:00	2024-11-08T21:00:00	7	Dirección del viento	4.83
137975	7	Sololá	719	Santiago Atitlán	14	Cerro de Oro	3	Marzo	2023-03-18T00:00:00	2024-11-08T21:00:00	1	Precipitación	0
137976	7	Sololá	719	Santiago Atitlán	14	Cerro de Oro	3	Marzo	2023-03-18T00:00:00	2024-11-08T21:00:00	8	Radiación solar	0
137977	7	Sololá	719	Santiago Atitlán	14	Cerro de Oro	3	Marzo	2023-03-18T00:00:00	2024-11-08T22:00:00	2	Temperatura media	15.8
137978	7	Sololá	719	Santiago Atitlán	14	Cerro de Oro	3	Marzo	2023-03-18T00:00:00	2024-11-08T22:00:00	4	Temperatura máxima	16.1
137979	7	Sololá	719	Santiago Atitlán	14	Cerro de Oro	3	Marzo	2023-03-18T00:00:00	2024-11-08T22:00:00	3	Temperatura mínima	15.6
137980	7	Sololá	719	Santiago Atitlán	14	Cerro de Oro	3	Marzo	2023-03-18T00:00:00	2024-11-08T22:00:00	5	Humedad	87
137981	7	Sololá	719	Santiago Atitlán	14	Cerro de Oro	3	Marzo	2023-03-18T00:00:00	2024-11-08T22:00:00	6	Velocidad del viento	4.8
137982	7	Sololá	719	Santiago Atitlán	14	Cerro de Oro	3	Marzo	2023-03-18T00:00:00	2024-11-08T22:00:00	7	Dirección del viento	4.83
137983	7	Sololá	719	Santiago Atitlán	14	Cerro de Oro	3	Marzo	2023-03-18T00:00:00	2024-11-08T22:00:00	1	Precipitación	0
137984	7	Sololá	719	Santiago Atitlán	14	Cerro de Oro	3	Marzo	2023-03-18T00:00:00	2024-11-08T22:00:00	8	Radiación solar	0
137985	7	Sololá	719	Santiago Atitlán	14	Cerro de Oro	3	Marzo	2023-03-18T00:00:00	2024-11-08T23:00:00	2	Temperatura media	16.1
137986	7	Sololá	719	Santiago Atitlán	14	Cerro de Oro	3	Marzo	2023-03-18T00:00:00	2024-11-08T23:00:00	4	Temperatura máxima	16.1
137987	7	Sololá	719	Santiago Atitlán	14	Cerro de Oro	3	Marzo	2023-03-18T00:00:00	2024-11-08T23:00:00	3	Temperatura mínima	15.8
137988	7	Sololá	719	Santiago Atitlán	14	Cerro de Oro	3	Marzo	2023-03-18T00:00:00	2024-11-08T23:00:00	5	Humedad	90
137989	7	Sololá	719	Santiago Atitlán	14	Cerro de Oro	3	Marzo	2023-03-18T00:00:00	2024-11-08T23:00:00	6	Velocidad del viento	3.2
137990	7	Sololá	719	Santiago Atitlán	14	Cerro de Oro	3	Marzo	2023-03-18T00:00:00	2024-11-08T23:00:00	7	Dirección del viento	3.22
137991	7	Sololá	719	Santiago Atitlán	14	Cerro de Oro	3	Marzo	2023-03-18T00:00:00	2024-11-08T23:00:00	1	Precipitación	0
137992	7	Sololá	719	Santiago Atitlán	14	Cerro de Oro	3	Marzo	2023-03-18T00:00:00	2024-11-08T23:00:00	8	Radiación solar	0
137993	7	Sololá	719	Santiago Atitlán	14	Cerro de Oro	3	Marzo	2023-03-19T00:00:00	2024-11-08T00:00:00	2	Temperatura media	16.3
137994	7	Sololá	719	Santiago Atitlán	14	Cerro de Oro	3	Marzo	2023-03-19T00:00:00	2024-11-08T00:00:00	4	Temperatura máxima	16.4
137995	7	Sololá	719	Santiago Atitlán	14	Cerro de Oro	3	Marzo	2023-03-19T00:00:00	2024-11-08T00:00:00	3	Temperatura mínima	16.1
137996	7	Sololá	719	Santiago Atitlán	14	Cerro de Oro	3	Marzo	2023-03-19T00:00:00	2024-11-08T00:00:00	5	Humedad	90
137997	7	Sololá	719	Santiago Atitlán	14	Cerro de Oro	3	Marzo	2023-03-19T00:00:00	2024-11-08T00:00:00	6	Velocidad del viento	3.2
137998	7	Sololá	719	Santiago Atitlán	14	Cerro de Oro	3	Marzo	2023-03-19T00:00:00	2024-11-08T00:00:00	7	Dirección del viento	3.22
137999	7	Sololá	719	Santiago Atitlán	14	Cerro de Oro	3	Marzo	2023-03-19T00:00:00	2024-11-08T00:00:00	1	Precipitación	0
138000	7	Sololá	719	Santiago Atitlán	14	Cerro de Oro	3	Marzo	2023-03-19T00:00:00	2024-11-08T00:00:00	8	Radiación solar	0
138001	7	Sololá	719	Santiago Atitlán	14	Cerro de Oro	3	Marzo	2023-03-19T00:00:00	2024-11-08T01:00:00	2	Temperatura media	16.3
138002	7	Sololá	719	Santiago Atitlán	14	Cerro de Oro	3	Marzo	2023-03-19T00:00:00	2024-11-08T01:00:00	4	Temperatura máxima	16.5
138003	7	Sololá	719	Santiago Atitlán	14	Cerro de Oro	3	Marzo	2023-03-19T00:00:00	2024-11-08T01:00:00	3	Temperatura mínima	16.1
138004	7	Sololá	719	Santiago Atitlán	14	Cerro de Oro	3	Marzo	2023-03-19T00:00:00	2024-11-08T01:00:00	5	Humedad	91
138005	7	Sololá	719	Santiago Atitlán	14	Cerro de Oro	3	Marzo	2023-03-19T00:00:00	2024-11-08T01:00:00	6	Velocidad del viento	4.8
138006	7	Sololá	719	Santiago Atitlán	14	Cerro de Oro	3	Marzo	2023-03-19T00:00:00	2024-11-08T01:00:00	7	Dirección del viento	4.83
138007	7	Sololá	719	Santiago Atitlán	14	Cerro de Oro	3	Marzo	2023-03-19T00:00:00	2024-11-08T01:00:00	1	Precipitación	0
138008	7	Sololá	719	Santiago Atitlán	14	Cerro de Oro	3	Marzo	2023-03-19T00:00:00	2024-11-08T01:00:00	8	Radiación solar	0
138009	7	Sololá	719	Santiago Atitlán	14	Cerro de Oro	3	Marzo	2023-03-19T00:00:00	2024-11-08T02:00:00	2	Temperatura media	16.4
138010	7	Sololá	719	Santiago Atitlán	14	Cerro de Oro	3	Marzo	2023-03-19T00:00:00	2024-11-08T02:00:00	4	Temperatura máxima	16.6
138011	7	Sololá	719	Santiago Atitlán	14	Cerro de Oro	3	Marzo	2023-03-19T00:00:00	2024-11-08T02:00:00	3	Temperatura mínima	16.3
138012	7	Sololá	719	Santiago Atitlán	14	Cerro de Oro	3	Marzo	2023-03-19T00:00:00	2024-11-08T02:00:00	5	Humedad	90
138013	7	Sololá	719	Santiago Atitlán	14	Cerro de Oro	3	Marzo	2023-03-19T00:00:00	2024-11-08T02:00:00	6	Velocidad del viento	3.2
138014	7	Sololá	719	Santiago Atitlán	14	Cerro de Oro	3	Marzo	2023-03-19T00:00:00	2024-11-08T02:00:00	7	Dirección del viento	3.22
138015	7	Sololá	719	Santiago Atitlán	14	Cerro de Oro	3	Marzo	2023-03-19T00:00:00	2024-11-08T02:00:00	1	Precipitación	0
138016	7	Sololá	719	Santiago Atitlán	14	Cerro de Oro	3	Marzo	2023-03-19T00:00:00	2024-11-08T02:00:00	8	Radiación solar	0
138017	7	Sololá	719	Santiago Atitlán	14	Cerro de Oro	3	Marzo	2023-03-19T00:00:00	2024-11-08T03:00:00	2	Temperatura media	16.6
138018	7	Sololá	719	Santiago Atitlán	14	Cerro de Oro	3	Marzo	2023-03-19T00:00:00	2024-11-08T03:00:00	4	Temperatura máxima	16.6
138019	7	Sololá	719	Santiago Atitlán	14	Cerro de Oro	3	Marzo	2023-03-19T00:00:00	2024-11-08T03:00:00	3	Temperatura mínima	16.1
138020	7	Sololá	719	Santiago Atitlán	14	Cerro de Oro	3	Marzo	2023-03-19T00:00:00	2024-11-08T03:00:00	5	Humedad	89
138021	7	Sololá	719	Santiago Atitlán	14	Cerro de Oro	3	Marzo	2023-03-19T00:00:00	2024-11-08T03:00:00	6	Velocidad del viento	3.2
138022	7	Sololá	719	Santiago Atitlán	14	Cerro de Oro	3	Marzo	2023-03-19T00:00:00	2024-11-08T03:00:00	7	Dirección del viento	3.22
138023	7	Sololá	719	Santiago Atitlán	14	Cerro de Oro	3	Marzo	2023-03-19T00:00:00	2024-11-08T03:00:00	1	Precipitación	0
138024	7	Sololá	719	Santiago Atitlán	14	Cerro de Oro	3	Marzo	2023-03-19T00:00:00	2024-11-08T03:00:00	8	Radiación solar	0
138025	7	Sololá	719	Santiago Atitlán	14	Cerro de Oro	3	Marzo	2023-03-19T00:00:00	2024-11-08T04:00:00	2	Temperatura media	16.7
138026	7	Sololá	719	Santiago Atitlán	14	Cerro de Oro	3	Marzo	2023-03-19T00:00:00	2024-11-08T04:00:00	4	Temperatura máxima	16.8
138027	7	Sololá	719	Santiago Atitlán	14	Cerro de Oro	3	Marzo	2023-03-19T00:00:00	2024-11-08T04:00:00	3	Temperatura mínima	16.4
138028	7	Sololá	719	Santiago Atitlán	14	Cerro de Oro	3	Marzo	2023-03-19T00:00:00	2024-11-08T04:00:00	5	Humedad	89
138029	7	Sololá	719	Santiago Atitlán	14	Cerro de Oro	3	Marzo	2023-03-19T00:00:00	2024-11-08T04:00:00	6	Velocidad del viento	3.2
138030	7	Sololá	719	Santiago Atitlán	14	Cerro de Oro	3	Marzo	2023-03-19T00:00:00	2024-11-08T04:00:00	7	Dirección del viento	3.22
138031	7	Sololá	719	Santiago Atitlán	14	Cerro de Oro	3	Marzo	2023-03-19T00:00:00	2024-11-08T04:00:00	1	Precipitación	0
138032	7	Sololá	719	Santiago Atitlán	14	Cerro de Oro	3	Marzo	2023-03-19T00:00:00	2024-11-08T04:00:00	8	Radiación solar	0
138033	7	Sololá	719	Santiago Atitlán	14	Cerro de Oro	3	Marzo	2023-03-19T00:00:00	2024-11-08T05:00:00	2	Temperatura media	16.7
138034	7	Sololá	719	Santiago Atitlán	14	Cerro de Oro	3	Marzo	2023-03-19T00:00:00	2024-11-08T05:00:00	4	Temperatura máxima	16.7
138035	7	Sololá	719	Santiago Atitlán	14	Cerro de Oro	3	Marzo	2023-03-19T00:00:00	2024-11-08T05:00:00	3	Temperatura mínima	16.5
138036	7	Sololá	719	Santiago Atitlán	14	Cerro de Oro	3	Marzo	2023-03-19T00:00:00	2024-11-08T05:00:00	5	Humedad	91
138037	7	Sololá	719	Santiago Atitlán	14	Cerro de Oro	3	Marzo	2023-03-19T00:00:00	2024-11-08T05:00:00	6	Velocidad del viento	3.2
138038	7	Sololá	719	Santiago Atitlán	14	Cerro de Oro	3	Marzo	2023-03-19T00:00:00	2024-11-08T05:00:00	7	Dirección del viento	3.22
138039	7	Sololá	719	Santiago Atitlán	14	Cerro de Oro	3	Marzo	2023-03-19T00:00:00	2024-11-08T05:00:00	1	Precipitación	0
138040	7	Sololá	719	Santiago Atitlán	14	Cerro de Oro	3	Marzo	2023-03-19T00:00:00	2024-11-08T05:00:00	8	Radiación solar	0
138041	7	Sololá	719	Santiago Atitlán	14	Cerro de Oro	3	Marzo	2023-03-19T00:00:00	2024-11-08T06:00:00	2	Temperatura media	16.7
138042	7	Sololá	719	Santiago Atitlán	14	Cerro de Oro	3	Marzo	2023-03-19T00:00:00	2024-11-08T06:00:00	4	Temperatura máxima	16.7
138043	7	Sololá	719	Santiago Atitlán	14	Cerro de Oro	3	Marzo	2023-03-19T00:00:00	2024-11-08T06:00:00	3	Temperatura mínima	16.6
138044	7	Sololá	719	Santiago Atitlán	14	Cerro de Oro	3	Marzo	2023-03-19T00:00:00	2024-11-08T06:00:00	5	Humedad	90
138045	7	Sololá	719	Santiago Atitlán	14	Cerro de Oro	3	Marzo	2023-03-19T00:00:00	2024-11-08T06:00:00	6	Velocidad del viento	3.2
138046	7	Sololá	719	Santiago Atitlán	14	Cerro de Oro	3	Marzo	2023-03-19T00:00:00	2024-11-08T06:00:00	7	Dirección del viento	3.22
138047	7	Sololá	719	Santiago Atitlán	14	Cerro de Oro	3	Marzo	2023-03-19T00:00:00	2024-11-08T06:00:00	1	Precipitación	0
138048	7	Sololá	719	Santiago Atitlán	14	Cerro de Oro	3	Marzo	2023-03-19T00:00:00	2024-11-08T06:00:00	8	Radiación solar	0
138049	7	Sololá	719	Santiago Atitlán	14	Cerro de Oro	3	Marzo	2023-03-19T00:00:00	2024-11-08T07:00:00	2	Temperatura media	16.9
138050	7	Sololá	719	Santiago Atitlán	14	Cerro de Oro	3	Marzo	2023-03-19T00:00:00	2024-11-08T07:00:00	4	Temperatura máxima	16.9
138051	7	Sololá	719	Santiago Atitlán	14	Cerro de Oro	3	Marzo	2023-03-19T00:00:00	2024-11-08T07:00:00	3	Temperatura mínima	16.5
138052	7	Sololá	719	Santiago Atitlán	14	Cerro de Oro	3	Marzo	2023-03-19T00:00:00	2024-11-08T07:00:00	5	Humedad	90
138053	7	Sololá	719	Santiago Atitlán	14	Cerro de Oro	3	Marzo	2023-03-19T00:00:00	2024-11-08T07:00:00	6	Velocidad del viento	3.2
138054	7	Sololá	719	Santiago Atitlán	14	Cerro de Oro	3	Marzo	2023-03-19T00:00:00	2024-11-08T07:00:00	7	Dirección del viento	3.22
138055	7	Sololá	719	Santiago Atitlán	14	Cerro de Oro	3	Marzo	2023-03-19T00:00:00	2024-11-08T07:00:00	1	Precipitación	0
138056	7	Sololá	719	Santiago Atitlán	14	Cerro de Oro	3	Marzo	2023-03-19T00:00:00	2024-11-08T07:00:00	8	Radiación solar	35
138057	7	Sololá	719	Santiago Atitlán	14	Cerro de Oro	3	Marzo	2023-03-19T00:00:00	2024-11-08T08:00:00	2	Temperatura media	17.2
138058	7	Sololá	719	Santiago Atitlán	14	Cerro de Oro	3	Marzo	2023-03-19T00:00:00	2024-11-08T08:00:00	4	Temperatura máxima	17.2
138059	7	Sololá	719	Santiago Atitlán	14	Cerro de Oro	3	Marzo	2023-03-19T00:00:00	2024-11-08T08:00:00	3	Temperatura mínima	16.6
138060	7	Sololá	719	Santiago Atitlán	14	Cerro de Oro	3	Marzo	2023-03-19T00:00:00	2024-11-08T08:00:00	5	Humedad	90
138061	7	Sololá	719	Santiago Atitlán	14	Cerro de Oro	3	Marzo	2023-03-19T00:00:00	2024-11-08T08:00:00	6	Velocidad del viento	3.2
138062	7	Sololá	719	Santiago Atitlán	14	Cerro de Oro	3	Marzo	2023-03-19T00:00:00	2024-11-08T08:00:00	7	Dirección del viento	3.22
138063	7	Sololá	719	Santiago Atitlán	14	Cerro de Oro	3	Marzo	2023-03-19T00:00:00	2024-11-08T08:00:00	1	Precipitación	0
138064	7	Sololá	719	Santiago Atitlán	14	Cerro de Oro	3	Marzo	2023-03-19T00:00:00	2024-11-08T08:00:00	8	Radiación solar	183
138065	7	Sololá	719	Santiago Atitlán	14	Cerro de Oro	3	Marzo	2023-03-19T00:00:00	2024-11-08T09:00:00	2	Temperatura media	19.3
138066	7	Sololá	719	Santiago Atitlán	14	Cerro de Oro	3	Marzo	2023-03-19T00:00:00	2024-11-08T09:00:00	4	Temperatura máxima	19.4
138067	7	Sololá	719	Santiago Atitlán	14	Cerro de Oro	3	Marzo	2023-03-19T00:00:00	2024-11-08T09:00:00	3	Temperatura mínima	17.2
138068	7	Sololá	719	Santiago Atitlán	14	Cerro de Oro	3	Marzo	2023-03-19T00:00:00	2024-11-08T09:00:00	5	Humedad	80
138069	7	Sololá	719	Santiago Atitlán	14	Cerro de Oro	3	Marzo	2023-03-19T00:00:00	2024-11-08T09:00:00	6	Velocidad del viento	1.6
138070	7	Sololá	719	Santiago Atitlán	14	Cerro de Oro	3	Marzo	2023-03-19T00:00:00	2024-11-08T09:00:00	7	Dirección del viento	1.61
138071	7	Sololá	719	Santiago Atitlán	14	Cerro de Oro	3	Marzo	2023-03-19T00:00:00	2024-11-08T09:00:00	1	Precipitación	0
138072	7	Sololá	719	Santiago Atitlán	14	Cerro de Oro	3	Marzo	2023-03-19T00:00:00	2024-11-08T09:00:00	8	Radiación solar	388
138073	7	Sololá	719	Santiago Atitlán	14	Cerro de Oro	3	Marzo	2023-03-19T00:00:00	2024-11-08T10:00:00	2	Temperatura media	20.1
138074	7	Sololá	719	Santiago Atitlán	14	Cerro de Oro	3	Marzo	2023-03-19T00:00:00	2024-11-08T10:00:00	4	Temperatura máxima	20.2
138075	7	Sololá	719	Santiago Atitlán	14	Cerro de Oro	3	Marzo	2023-03-19T00:00:00	2024-11-08T10:00:00	3	Temperatura mínima	19.3
138076	7	Sololá	719	Santiago Atitlán	14	Cerro de Oro	3	Marzo	2023-03-19T00:00:00	2024-11-08T10:00:00	5	Humedad	79
138077	7	Sololá	719	Santiago Atitlán	14	Cerro de Oro	3	Marzo	2023-03-19T00:00:00	2024-11-08T10:00:00	6	Velocidad del viento	3.2
138078	7	Sololá	719	Santiago Atitlán	14	Cerro de Oro	3	Marzo	2023-03-19T00:00:00	2024-11-08T10:00:00	7	Dirección del viento	3.22
138079	7	Sololá	719	Santiago Atitlán	14	Cerro de Oro	3	Marzo	2023-03-19T00:00:00	2024-11-08T10:00:00	1	Precipitación	0
138080	7	Sololá	719	Santiago Atitlán	14	Cerro de Oro	3	Marzo	2023-03-19T00:00:00	2024-11-08T10:00:00	8	Radiación solar	664
138081	7	Sololá	719	Santiago Atitlán	14	Cerro de Oro	3	Marzo	2023-03-19T00:00:00	2024-11-08T11:00:00	2	Temperatura media	21
138082	7	Sololá	719	Santiago Atitlán	14	Cerro de Oro	3	Marzo	2023-03-19T00:00:00	2024-11-08T11:00:00	4	Temperatura máxima	21
138083	7	Sololá	719	Santiago Atitlán	14	Cerro de Oro	3	Marzo	2023-03-19T00:00:00	2024-11-08T11:00:00	3	Temperatura mínima	20.2
138084	7	Sololá	719	Santiago Atitlán	14	Cerro de Oro	3	Marzo	2023-03-19T00:00:00	2024-11-08T11:00:00	5	Humedad	74
138085	7	Sololá	719	Santiago Atitlán	14	Cerro de Oro	3	Marzo	2023-03-19T00:00:00	2024-11-08T11:00:00	6	Velocidad del viento	4.8
138086	7	Sololá	719	Santiago Atitlán	14	Cerro de Oro	3	Marzo	2023-03-19T00:00:00	2024-11-08T11:00:00	7	Dirección del viento	4.83
138087	7	Sololá	719	Santiago Atitlán	14	Cerro de Oro	3	Marzo	2023-03-19T00:00:00	2024-11-08T11:00:00	1	Precipitación	0
138088	7	Sololá	719	Santiago Atitlán	14	Cerro de Oro	3	Marzo	2023-03-19T00:00:00	2024-11-08T11:00:00	8	Radiación solar	824
138089	7	Sololá	719	Santiago Atitlán	14	Cerro de Oro	3	Marzo	2023-03-19T00:00:00	2024-11-08T12:00:00	2	Temperatura media	21.7
138090	7	Sololá	719	Santiago Atitlán	14	Cerro de Oro	3	Marzo	2023-03-19T00:00:00	2024-11-08T12:00:00	4	Temperatura máxima	22
138091	7	Sololá	719	Santiago Atitlán	14	Cerro de Oro	3	Marzo	2023-03-19T00:00:00	2024-11-08T12:00:00	3	Temperatura mínima	20.9
138092	7	Sololá	719	Santiago Atitlán	14	Cerro de Oro	3	Marzo	2023-03-19T00:00:00	2024-11-08T12:00:00	5	Humedad	73
138093	7	Sololá	719	Santiago Atitlán	14	Cerro de Oro	3	Marzo	2023-03-19T00:00:00	2024-11-08T12:00:00	6	Velocidad del viento	4.8
138094	7	Sololá	719	Santiago Atitlán	14	Cerro de Oro	3	Marzo	2023-03-19T00:00:00	2024-11-08T12:00:00	7	Dirección del viento	4.83
138095	7	Sololá	719	Santiago Atitlán	14	Cerro de Oro	3	Marzo	2023-03-19T00:00:00	2024-11-08T12:00:00	1	Precipitación	0
138096	7	Sololá	719	Santiago Atitlán	14	Cerro de Oro	3	Marzo	2023-03-19T00:00:00	2024-11-08T12:00:00	8	Radiación solar	708
138097	7	Sololá	719	Santiago Atitlán	14	Cerro de Oro	3	Marzo	2023-03-19T00:00:00	2024-11-08T13:00:00	2	Temperatura media	23.2
138098	7	Sololá	719	Santiago Atitlán	14	Cerro de Oro	3	Marzo	2023-03-19T00:00:00	2024-11-08T13:00:00	4	Temperatura máxima	23.2
138099	7	Sololá	719	Santiago Atitlán	14	Cerro de Oro	3	Marzo	2023-03-19T00:00:00	2024-11-08T13:00:00	3	Temperatura mínima	21.4
138100	7	Sololá	719	Santiago Atitlán	14	Cerro de Oro	3	Marzo	2023-03-19T00:00:00	2024-11-08T13:00:00	5	Humedad	71
138101	7	Sololá	719	Santiago Atitlán	14	Cerro de Oro	3	Marzo	2023-03-19T00:00:00	2024-11-08T13:00:00	6	Velocidad del viento	6.4
138102	7	Sololá	719	Santiago Atitlán	14	Cerro de Oro	3	Marzo	2023-03-19T00:00:00	2024-11-08T13:00:00	7	Dirección del viento	6.44
138103	7	Sololá	719	Santiago Atitlán	14	Cerro de Oro	3	Marzo	2023-03-19T00:00:00	2024-11-08T13:00:00	1	Precipitación	0
138104	7	Sololá	719	Santiago Atitlán	14	Cerro de Oro	3	Marzo	2023-03-19T00:00:00	2024-11-08T13:00:00	8	Radiación solar	320
138105	7	Sololá	719	Santiago Atitlán	14	Cerro de Oro	3	Marzo	2023-03-19T00:00:00	2024-11-08T14:00:00	2	Temperatura media	21.1
138106	7	Sololá	719	Santiago Atitlán	14	Cerro de Oro	3	Marzo	2023-03-19T00:00:00	2024-11-08T14:00:00	4	Temperatura máxima	23.6
138107	7	Sololá	719	Santiago Atitlán	14	Cerro de Oro	3	Marzo	2023-03-19T00:00:00	2024-11-08T14:00:00	3	Temperatura mínima	21.1
138108	7	Sololá	719	Santiago Atitlán	14	Cerro de Oro	3	Marzo	2023-03-19T00:00:00	2024-11-08T14:00:00	5	Humedad	80
138109	7	Sololá	719	Santiago Atitlán	14	Cerro de Oro	3	Marzo	2023-03-19T00:00:00	2024-11-08T14:00:00	6	Velocidad del viento	9.7
138110	7	Sololá	719	Santiago Atitlán	14	Cerro de Oro	3	Marzo	2023-03-19T00:00:00	2024-11-08T14:00:00	7	Dirección del viento	9.66
138111	7	Sololá	719	Santiago Atitlán	14	Cerro de Oro	3	Marzo	2023-03-19T00:00:00	2024-11-08T14:00:00	1	Precipitación	0
138112	7	Sololá	719	Santiago Atitlán	14	Cerro de Oro	3	Marzo	2023-03-19T00:00:00	2024-11-08T14:00:00	8	Radiación solar	172
138113	7	Sololá	719	Santiago Atitlán	14	Cerro de Oro	3	Marzo	2023-03-19T00:00:00	2024-11-08T15:00:00	2	Temperatura media	20.2
138114	7	Sololá	719	Santiago Atitlán	14	Cerro de Oro	3	Marzo	2023-03-19T00:00:00	2024-11-08T15:00:00	4	Temperatura máxima	21.4
138115	7	Sololá	719	Santiago Atitlán	14	Cerro de Oro	3	Marzo	2023-03-19T00:00:00	2024-11-08T15:00:00	3	Temperatura mínima	20.2
138116	7	Sololá	719	Santiago Atitlán	14	Cerro de Oro	3	Marzo	2023-03-19T00:00:00	2024-11-08T15:00:00	5	Humedad	78
138117	7	Sololá	719	Santiago Atitlán	14	Cerro de Oro	3	Marzo	2023-03-19T00:00:00	2024-11-08T15:00:00	6	Velocidad del viento	6.4
138118	7	Sololá	719	Santiago Atitlán	14	Cerro de Oro	3	Marzo	2023-03-19T00:00:00	2024-11-08T15:00:00	7	Dirección del viento	6.44
138119	7	Sololá	719	Santiago Atitlán	14	Cerro de Oro	3	Marzo	2023-03-19T00:00:00	2024-11-08T15:00:00	1	Precipitación	0.2
138120	7	Sololá	719	Santiago Atitlán	14	Cerro de Oro	3	Marzo	2023-03-19T00:00:00	2024-11-08T15:00:00	8	Radiación solar	322
138121	7	Sololá	719	Santiago Atitlán	14	Cerro de Oro	3	Marzo	2023-03-19T00:00:00	2024-11-08T16:00:00	2	Temperatura media	20.7
138122	7	Sololá	719	Santiago Atitlán	14	Cerro de Oro	3	Marzo	2023-03-19T00:00:00	2024-11-08T16:00:00	4	Temperatura máxima	21
138123	7	Sololá	719	Santiago Atitlán	14	Cerro de Oro	3	Marzo	2023-03-19T00:00:00	2024-11-08T16:00:00	3	Temperatura mínima	20.2
138124	7	Sololá	719	Santiago Atitlán	14	Cerro de Oro	3	Marzo	2023-03-19T00:00:00	2024-11-08T16:00:00	5	Humedad	73
138125	7	Sololá	719	Santiago Atitlán	14	Cerro de Oro	3	Marzo	2023-03-19T00:00:00	2024-11-08T16:00:00	6	Velocidad del viento	6.4
138126	7	Sololá	719	Santiago Atitlán	14	Cerro de Oro	3	Marzo	2023-03-19T00:00:00	2024-11-08T16:00:00	7	Dirección del viento	6.44
138127	7	Sololá	719	Santiago Atitlán	14	Cerro de Oro	3	Marzo	2023-03-19T00:00:00	2024-11-08T16:00:00	1	Precipitación	0
138128	7	Sololá	719	Santiago Atitlán	14	Cerro de Oro	3	Marzo	2023-03-19T00:00:00	2024-11-08T16:00:00	8	Radiación solar	120
138129	7	Sololá	719	Santiago Atitlán	14	Cerro de Oro	3	Marzo	2023-03-19T00:00:00	2024-11-08T17:00:00	2	Temperatura media	20.4
138130	7	Sololá	719	Santiago Atitlán	14	Cerro de Oro	3	Marzo	2023-03-19T00:00:00	2024-11-08T17:00:00	4	Temperatura máxima	20.8
138131	7	Sololá	719	Santiago Atitlán	14	Cerro de Oro	3	Marzo	2023-03-19T00:00:00	2024-11-08T17:00:00	3	Temperatura mínima	20.4
138132	7	Sololá	719	Santiago Atitlán	14	Cerro de Oro	3	Marzo	2023-03-19T00:00:00	2024-11-08T17:00:00	5	Humedad	77
138133	7	Sololá	719	Santiago Atitlán	14	Cerro de Oro	3	Marzo	2023-03-19T00:00:00	2024-11-08T17:00:00	6	Velocidad del viento	3.2
138134	7	Sololá	719	Santiago Atitlán	14	Cerro de Oro	3	Marzo	2023-03-19T00:00:00	2024-11-08T17:00:00	7	Dirección del viento	3.22
138135	7	Sololá	719	Santiago Atitlán	14	Cerro de Oro	3	Marzo	2023-03-19T00:00:00	2024-11-08T17:00:00	1	Precipitación	0
138136	7	Sololá	719	Santiago Atitlán	14	Cerro de Oro	3	Marzo	2023-03-19T00:00:00	2024-11-08T17:00:00	8	Radiación solar	117
138137	7	Sololá	719	Santiago Atitlán	14	Cerro de Oro	3	Marzo	2023-03-19T00:00:00	2024-11-08T18:00:00	2	Temperatura media	19.7
138138	7	Sololá	719	Santiago Atitlán	14	Cerro de Oro	3	Marzo	2023-03-19T00:00:00	2024-11-08T18:00:00	4	Temperatura máxima	20.4
138139	7	Sololá	719	Santiago Atitlán	14	Cerro de Oro	3	Marzo	2023-03-19T00:00:00	2024-11-08T18:00:00	3	Temperatura mínima	19.2
138140	7	Sololá	719	Santiago Atitlán	14	Cerro de Oro	3	Marzo	2023-03-19T00:00:00	2024-11-08T18:00:00	5	Humedad	83
138141	7	Sololá	719	Santiago Atitlán	14	Cerro de Oro	3	Marzo	2023-03-19T00:00:00	2024-11-08T18:00:00	6	Velocidad del viento	3.2
138142	7	Sololá	719	Santiago Atitlán	14	Cerro de Oro	3	Marzo	2023-03-19T00:00:00	2024-11-08T18:00:00	7	Dirección del viento	3.22
138143	7	Sololá	719	Santiago Atitlán	14	Cerro de Oro	3	Marzo	2023-03-19T00:00:00	2024-11-08T18:00:00	1	Precipitación	0
138144	7	Sololá	719	Santiago Atitlán	14	Cerro de Oro	3	Marzo	2023-03-19T00:00:00	2024-11-08T18:00:00	8	Radiación solar	71
138145	7	Sololá	719	Santiago Atitlán	14	Cerro de Oro	3	Marzo	2023-03-19T00:00:00	2024-11-08T19:00:00	2	Temperatura media	18.9
138146	7	Sololá	719	Santiago Atitlán	14	Cerro de Oro	3	Marzo	2023-03-19T00:00:00	2024-11-08T19:00:00	4	Temperatura máxima	19.7
138147	7	Sololá	719	Santiago Atitlán	14	Cerro de Oro	3	Marzo	2023-03-19T00:00:00	2024-11-08T19:00:00	3	Temperatura mínima	18.9
138148	7	Sololá	719	Santiago Atitlán	14	Cerro de Oro	3	Marzo	2023-03-19T00:00:00	2024-11-08T19:00:00	5	Humedad	84
138149	7	Sololá	719	Santiago Atitlán	14	Cerro de Oro	3	Marzo	2023-03-19T00:00:00	2024-11-08T19:00:00	6	Velocidad del viento	3.2
138150	7	Sololá	719	Santiago Atitlán	14	Cerro de Oro	3	Marzo	2023-03-19T00:00:00	2024-11-08T19:00:00	7	Dirección del viento	3.22
138151	7	Sololá	719	Santiago Atitlán	14	Cerro de Oro	3	Marzo	2023-03-19T00:00:00	2024-11-08T19:00:00	1	Precipitación	0
138152	7	Sololá	719	Santiago Atitlán	14	Cerro de Oro	3	Marzo	2023-03-19T00:00:00	2024-11-08T19:00:00	8	Radiación solar	0
138153	7	Sololá	719	Santiago Atitlán	14	Cerro de Oro	3	Marzo	2023-03-19T00:00:00	2024-11-08T20:00:00	2	Temperatura media	18.5
138154	7	Sololá	719	Santiago Atitlán	14	Cerro de Oro	3	Marzo	2023-03-19T00:00:00	2024-11-08T20:00:00	4	Temperatura máxima	18.9
138155	7	Sololá	719	Santiago Atitlán	14	Cerro de Oro	3	Marzo	2023-03-19T00:00:00	2024-11-08T20:00:00	3	Temperatura mínima	18.5
138156	7	Sololá	719	Santiago Atitlán	14	Cerro de Oro	3	Marzo	2023-03-19T00:00:00	2024-11-08T20:00:00	5	Humedad	86
138157	7	Sololá	719	Santiago Atitlán	14	Cerro de Oro	3	Marzo	2023-03-19T00:00:00	2024-11-08T20:00:00	6	Velocidad del viento	3.2
138158	7	Sololá	719	Santiago Atitlán	14	Cerro de Oro	3	Marzo	2023-03-19T00:00:00	2024-11-08T20:00:00	7	Dirección del viento	3.22
138159	7	Sololá	719	Santiago Atitlán	14	Cerro de Oro	3	Marzo	2023-03-19T00:00:00	2024-11-08T20:00:00	1	Precipitación	0
138160	7	Sololá	719	Santiago Atitlán	14	Cerro de Oro	3	Marzo	2023-03-19T00:00:00	2024-11-08T20:00:00	8	Radiación solar	0
138161	7	Sololá	719	Santiago Atitlán	14	Cerro de Oro	3	Marzo	2023-03-19T00:00:00	2024-11-08T21:00:00	2	Temperatura media	18.3
138162	7	Sololá	719	Santiago Atitlán	14	Cerro de Oro	3	Marzo	2023-03-19T00:00:00	2024-11-08T21:00:00	4	Temperatura máxima	18.5
138163	7	Sololá	719	Santiago Atitlán	14	Cerro de Oro	3	Marzo	2023-03-19T00:00:00	2024-11-08T21:00:00	3	Temperatura mínima	17.8
138164	7	Sololá	719	Santiago Atitlán	14	Cerro de Oro	3	Marzo	2023-03-19T00:00:00	2024-11-08T21:00:00	5	Humedad	79
138165	7	Sololá	719	Santiago Atitlán	14	Cerro de Oro	3	Marzo	2023-03-19T00:00:00	2024-11-08T21:00:00	6	Velocidad del viento	4.8
138166	7	Sololá	719	Santiago Atitlán	14	Cerro de Oro	3	Marzo	2023-03-19T00:00:00	2024-11-08T21:00:00	7	Dirección del viento	4.83
138167	7	Sololá	719	Santiago Atitlán	14	Cerro de Oro	3	Marzo	2023-03-19T00:00:00	2024-11-08T21:00:00	1	Precipitación	0
138168	7	Sololá	719	Santiago Atitlán	14	Cerro de Oro	3	Marzo	2023-03-19T00:00:00	2024-11-08T21:00:00	8	Radiación solar	0
138169	7	Sololá	719	Santiago Atitlán	14	Cerro de Oro	3	Marzo	2023-03-19T00:00:00	2024-11-08T22:00:00	2	Temperatura media	18.3
138170	7	Sololá	719	Santiago Atitlán	14	Cerro de Oro	3	Marzo	2023-03-19T00:00:00	2024-11-08T22:00:00	4	Temperatura máxima	18.8
138171	7	Sololá	719	Santiago Atitlán	14	Cerro de Oro	3	Marzo	2023-03-19T00:00:00	2024-11-08T22:00:00	3	Temperatura mínima	18.2
138172	7	Sololá	719	Santiago Atitlán	14	Cerro de Oro	3	Marzo	2023-03-19T00:00:00	2024-11-08T22:00:00	5	Humedad	79
138173	7	Sololá	719	Santiago Atitlán	14	Cerro de Oro	3	Marzo	2023-03-19T00:00:00	2024-11-08T22:00:00	6	Velocidad del viento	4.8
138174	7	Sololá	719	Santiago Atitlán	14	Cerro de Oro	3	Marzo	2023-03-19T00:00:00	2024-11-08T22:00:00	7	Dirección del viento	4.83
138175	7	Sololá	719	Santiago Atitlán	14	Cerro de Oro	3	Marzo	2023-03-19T00:00:00	2024-11-08T22:00:00	1	Precipitación	0
138176	7	Sololá	719	Santiago Atitlán	14	Cerro de Oro	3	Marzo	2023-03-19T00:00:00	2024-11-08T22:00:00	8	Radiación solar	0
138177	7	Sololá	719	Santiago Atitlán	14	Cerro de Oro	3	Marzo	2023-03-19T00:00:00	2024-11-08T23:00:00	2	Temperatura media	18.4
138178	7	Sololá	719	Santiago Atitlán	14	Cerro de Oro	3	Marzo	2023-03-19T00:00:00	2024-11-08T23:00:00	4	Temperatura máxima	18.4
138179	7	Sololá	719	Santiago Atitlán	14	Cerro de Oro	3	Marzo	2023-03-19T00:00:00	2024-11-08T23:00:00	3	Temperatura mínima	17.8
138180	7	Sololá	719	Santiago Atitlán	14	Cerro de Oro	3	Marzo	2023-03-19T00:00:00	2024-11-08T23:00:00	5	Humedad	77
138181	7	Sololá	719	Santiago Atitlán	14	Cerro de Oro	3	Marzo	2023-03-19T00:00:00	2024-11-08T23:00:00	6	Velocidad del viento	6.4
138182	7	Sololá	719	Santiago Atitlán	14	Cerro de Oro	3	Marzo	2023-03-19T00:00:00	2024-11-08T23:00:00	7	Dirección del viento	6.44
138183	7	Sololá	719	Santiago Atitlán	14	Cerro de Oro	3	Marzo	2023-03-19T00:00:00	2024-11-08T23:00:00	1	Precipitación	0
138184	7	Sololá	719	Santiago Atitlán	14	Cerro de Oro	3	Marzo	2023-03-19T00:00:00	2024-11-08T23:00:00	8	Radiación solar	0
138185	7	Sololá	719	Santiago Atitlán	14	Cerro de Oro	3	Marzo	2023-03-20T00:00:00	2024-11-08T00:00:00	2	Temperatura media	18.7
138186	7	Sololá	719	Santiago Atitlán	14	Cerro de Oro	3	Marzo	2023-03-20T00:00:00	2024-11-08T00:00:00	4	Temperatura máxima	18.9
138187	7	Sololá	719	Santiago Atitlán	14	Cerro de Oro	3	Marzo	2023-03-20T00:00:00	2024-11-08T00:00:00	3	Temperatura mínima	18.3
138188	7	Sololá	719	Santiago Atitlán	14	Cerro de Oro	3	Marzo	2023-03-20T00:00:00	2024-11-08T00:00:00	5	Humedad	74
138189	7	Sololá	719	Santiago Atitlán	14	Cerro de Oro	3	Marzo	2023-03-20T00:00:00	2024-11-08T00:00:00	6	Velocidad del viento	3.2
138190	7	Sololá	719	Santiago Atitlán	14	Cerro de Oro	3	Marzo	2023-03-20T00:00:00	2024-11-08T00:00:00	7	Dirección del viento	3.22
138191	7	Sololá	719	Santiago Atitlán	14	Cerro de Oro	3	Marzo	2023-03-20T00:00:00	2024-11-08T00:00:00	1	Precipitación	0
138192	7	Sololá	719	Santiago Atitlán	14	Cerro de Oro	3	Marzo	2023-03-20T00:00:00	2024-11-08T00:00:00	8	Radiación solar	0
138193	7	Sololá	719	Santiago Atitlán	14	Cerro de Oro	3	Marzo	2023-03-20T00:00:00	2024-11-08T01:00:00	2	Temperatura media	18.3
138194	7	Sololá	719	Santiago Atitlán	14	Cerro de Oro	3	Marzo	2023-03-20T00:00:00	2024-11-08T01:00:00	4	Temperatura máxima	18.8
138195	7	Sololá	719	Santiago Atitlán	14	Cerro de Oro	3	Marzo	2023-03-20T00:00:00	2024-11-08T01:00:00	3	Temperatura mínima	18.2
138196	7	Sololá	719	Santiago Atitlán	14	Cerro de Oro	3	Marzo	2023-03-20T00:00:00	2024-11-08T01:00:00	5	Humedad	74
138197	7	Sololá	719	Santiago Atitlán	14	Cerro de Oro	3	Marzo	2023-03-20T00:00:00	2024-11-08T01:00:00	6	Velocidad del viento	3.2
138198	7	Sololá	719	Santiago Atitlán	14	Cerro de Oro	3	Marzo	2023-03-20T00:00:00	2024-11-08T01:00:00	7	Dirección del viento	3.22
138199	7	Sololá	719	Santiago Atitlán	14	Cerro de Oro	3	Marzo	2023-03-20T00:00:00	2024-11-08T01:00:00	1	Precipitación	0
138200	7	Sololá	719	Santiago Atitlán	14	Cerro de Oro	3	Marzo	2023-03-20T00:00:00	2024-11-08T01:00:00	8	Radiación solar	0
138201	7	Sololá	719	Santiago Atitlán	14	Cerro de Oro	3	Marzo	2023-03-20T00:00:00	2024-11-08T02:00:00	2	Temperatura media	17.8
138202	7	Sololá	719	Santiago Atitlán	14	Cerro de Oro	3	Marzo	2023-03-20T00:00:00	2024-11-08T02:00:00	4	Temperatura máxima	18.4
138203	7	Sololá	719	Santiago Atitlán	14	Cerro de Oro	3	Marzo	2023-03-20T00:00:00	2024-11-08T02:00:00	3	Temperatura mínima	17.7
138204	7	Sololá	719	Santiago Atitlán	14	Cerro de Oro	3	Marzo	2023-03-20T00:00:00	2024-11-08T02:00:00	5	Humedad	75
138205	7	Sololá	719	Santiago Atitlán	14	Cerro de Oro	3	Marzo	2023-03-20T00:00:00	2024-11-08T02:00:00	6	Velocidad del viento	3.2
138206	7	Sololá	719	Santiago Atitlán	14	Cerro de Oro	3	Marzo	2023-03-20T00:00:00	2024-11-08T02:00:00	7	Dirección del viento	3.22
138207	7	Sololá	719	Santiago Atitlán	14	Cerro de Oro	3	Marzo	2023-03-20T00:00:00	2024-11-08T02:00:00	1	Precipitación	0
138208	7	Sololá	719	Santiago Atitlán	14	Cerro de Oro	3	Marzo	2023-03-20T00:00:00	2024-11-08T02:00:00	8	Radiación solar	0
138209	7	Sololá	719	Santiago Atitlán	14	Cerro de Oro	3	Marzo	2023-03-20T00:00:00	2024-11-08T03:00:00	2	Temperatura media	18.4
138210	7	Sololá	719	Santiago Atitlán	14	Cerro de Oro	3	Marzo	2023-03-20T00:00:00	2024-11-08T03:00:00	4	Temperatura máxima	18.5
138211	7	Sololá	719	Santiago Atitlán	14	Cerro de Oro	3	Marzo	2023-03-20T00:00:00	2024-11-08T03:00:00	3	Temperatura mínima	17.6
138212	7	Sololá	719	Santiago Atitlán	14	Cerro de Oro	3	Marzo	2023-03-20T00:00:00	2024-11-08T03:00:00	5	Humedad	74
138213	7	Sololá	719	Santiago Atitlán	14	Cerro de Oro	3	Marzo	2023-03-20T00:00:00	2024-11-08T03:00:00	6	Velocidad del viento	4.8
138214	7	Sololá	719	Santiago Atitlán	14	Cerro de Oro	3	Marzo	2023-03-20T00:00:00	2024-11-08T03:00:00	7	Dirección del viento	4.83
138215	7	Sololá	719	Santiago Atitlán	14	Cerro de Oro	3	Marzo	2023-03-20T00:00:00	2024-11-08T03:00:00	1	Precipitación	0
138216	7	Sololá	719	Santiago Atitlán	14	Cerro de Oro	3	Marzo	2023-03-20T00:00:00	2024-11-08T03:00:00	8	Radiación solar	0
138217	7	Sololá	719	Santiago Atitlán	14	Cerro de Oro	3	Marzo	2023-03-20T00:00:00	2024-11-08T04:00:00	2	Temperatura media	18.8
138218	7	Sololá	719	Santiago Atitlán	14	Cerro de Oro	3	Marzo	2023-03-20T00:00:00	2024-11-08T04:00:00	4	Temperatura máxima	19.1
138219	7	Sololá	719	Santiago Atitlán	14	Cerro de Oro	3	Marzo	2023-03-20T00:00:00	2024-11-08T04:00:00	3	Temperatura mínima	18.4
138220	7	Sololá	719	Santiago Atitlán	14	Cerro de Oro	3	Marzo	2023-03-20T00:00:00	2024-11-08T04:00:00	5	Humedad	71
138221	7	Sololá	719	Santiago Atitlán	14	Cerro de Oro	3	Marzo	2023-03-20T00:00:00	2024-11-08T04:00:00	6	Velocidad del viento	9.7
138222	7	Sololá	719	Santiago Atitlán	14	Cerro de Oro	3	Marzo	2023-03-20T00:00:00	2024-11-08T04:00:00	7	Dirección del viento	9.66
138223	7	Sololá	719	Santiago Atitlán	14	Cerro de Oro	3	Marzo	2023-03-20T00:00:00	2024-11-08T04:00:00	1	Precipitación	0
138224	7	Sololá	719	Santiago Atitlán	14	Cerro de Oro	3	Marzo	2023-03-20T00:00:00	2024-11-08T04:00:00	8	Radiación solar	0
138225	7	Sololá	719	Santiago Atitlán	14	Cerro de Oro	3	Marzo	2023-03-20T00:00:00	2024-11-08T05:00:00	2	Temperatura media	19.1
138226	7	Sololá	719	Santiago Atitlán	14	Cerro de Oro	3	Marzo	2023-03-20T00:00:00	2024-11-08T05:00:00	4	Temperatura máxima	19.2
138227	7	Sololá	719	Santiago Atitlán	14	Cerro de Oro	3	Marzo	2023-03-20T00:00:00	2024-11-08T05:00:00	3	Temperatura mínima	18.7
138228	7	Sololá	719	Santiago Atitlán	14	Cerro de Oro	3	Marzo	2023-03-20T00:00:00	2024-11-08T05:00:00	5	Humedad	70
138229	7	Sololá	719	Santiago Atitlán	14	Cerro de Oro	3	Marzo	2023-03-20T00:00:00	2024-11-08T05:00:00	6	Velocidad del viento	8
138230	7	Sololá	719	Santiago Atitlán	14	Cerro de Oro	3	Marzo	2023-03-20T00:00:00	2024-11-08T05:00:00	7	Dirección del viento	8.05
138231	7	Sololá	719	Santiago Atitlán	14	Cerro de Oro	3	Marzo	2023-03-20T00:00:00	2024-11-08T05:00:00	1	Precipitación	0
138232	7	Sololá	719	Santiago Atitlán	14	Cerro de Oro	3	Marzo	2023-03-20T00:00:00	2024-11-08T05:00:00	8	Radiación solar	0
138233	7	Sololá	719	Santiago Atitlán	14	Cerro de Oro	3	Marzo	2023-03-20T00:00:00	2024-11-08T06:00:00	2	Temperatura media	18.9
138234	7	Sololá	719	Santiago Atitlán	14	Cerro de Oro	3	Marzo	2023-03-20T00:00:00	2024-11-08T06:00:00	4	Temperatura máxima	19.2
138235	7	Sololá	719	Santiago Atitlán	14	Cerro de Oro	3	Marzo	2023-03-20T00:00:00	2024-11-08T06:00:00	3	Temperatura mínima	18.9
138236	7	Sololá	719	Santiago Atitlán	14	Cerro de Oro	3	Marzo	2023-03-20T00:00:00	2024-11-08T06:00:00	5	Humedad	68
138237	7	Sololá	719	Santiago Atitlán	14	Cerro de Oro	3	Marzo	2023-03-20T00:00:00	2024-11-08T06:00:00	6	Velocidad del viento	9.7
138238	7	Sololá	719	Santiago Atitlán	14	Cerro de Oro	3	Marzo	2023-03-20T00:00:00	2024-11-08T06:00:00	7	Dirección del viento	9.66
138239	7	Sololá	719	Santiago Atitlán	14	Cerro de Oro	3	Marzo	2023-03-20T00:00:00	2024-11-08T06:00:00	1	Precipitación	0
138240	7	Sololá	719	Santiago Atitlán	14	Cerro de Oro	3	Marzo	2023-03-20T00:00:00	2024-11-08T06:00:00	8	Radiación solar	0
138241	7	Sololá	719	Santiago Atitlán	14	Cerro de Oro	3	Marzo	2023-03-20T00:00:00	2024-11-08T07:00:00	2	Temperatura media	19.1
138242	7	Sololá	719	Santiago Atitlán	14	Cerro de Oro	3	Marzo	2023-03-20T00:00:00	2024-11-08T07:00:00	4	Temperatura máxima	19.2
138243	7	Sololá	719	Santiago Atitlán	14	Cerro de Oro	3	Marzo	2023-03-20T00:00:00	2024-11-08T07:00:00	3	Temperatura mínima	18.9
138244	7	Sololá	719	Santiago Atitlán	14	Cerro de Oro	3	Marzo	2023-03-20T00:00:00	2024-11-08T07:00:00	5	Humedad	70
138245	7	Sololá	719	Santiago Atitlán	14	Cerro de Oro	3	Marzo	2023-03-20T00:00:00	2024-11-08T07:00:00	6	Velocidad del viento	8
138246	7	Sololá	719	Santiago Atitlán	14	Cerro de Oro	3	Marzo	2023-03-20T00:00:00	2024-11-08T07:00:00	7	Dirección del viento	8.05
138247	7	Sololá	719	Santiago Atitlán	14	Cerro de Oro	3	Marzo	2023-03-20T00:00:00	2024-11-08T07:00:00	1	Precipitación	0
138248	7	Sololá	719	Santiago Atitlán	14	Cerro de Oro	3	Marzo	2023-03-20T00:00:00	2024-11-08T07:00:00	8	Radiación solar	30
138249	7	Sololá	719	Santiago Atitlán	14	Cerro de Oro	3	Marzo	2023-03-20T00:00:00	2024-11-08T08:00:00	2	Temperatura media	19.9
138250	7	Sololá	719	Santiago Atitlán	14	Cerro de Oro	3	Marzo	2023-03-20T00:00:00	2024-11-08T08:00:00	4	Temperatura máxima	19.9
138251	7	Sololá	719	Santiago Atitlán	14	Cerro de Oro	3	Marzo	2023-03-20T00:00:00	2024-11-08T08:00:00	3	Temperatura mínima	19.1
138252	7	Sololá	719	Santiago Atitlán	14	Cerro de Oro	3	Marzo	2023-03-20T00:00:00	2024-11-08T08:00:00	5	Humedad	64
138253	7	Sololá	719	Santiago Atitlán	14	Cerro de Oro	3	Marzo	2023-03-20T00:00:00	2024-11-08T08:00:00	6	Velocidad del viento	12.9
138254	7	Sololá	719	Santiago Atitlán	14	Cerro de Oro	3	Marzo	2023-03-20T00:00:00	2024-11-08T08:00:00	7	Dirección del viento	12.87
138255	7	Sololá	719	Santiago Atitlán	14	Cerro de Oro	3	Marzo	2023-03-20T00:00:00	2024-11-08T08:00:00	1	Precipitación	0
138256	7	Sololá	719	Santiago Atitlán	14	Cerro de Oro	3	Marzo	2023-03-20T00:00:00	2024-11-08T08:00:00	8	Radiación solar	197
138257	7	Sololá	719	Santiago Atitlán	14	Cerro de Oro	3	Marzo	2023-03-20T00:00:00	2024-11-08T09:00:00	2	Temperatura media	20.3
138258	7	Sololá	719	Santiago Atitlán	14	Cerro de Oro	3	Marzo	2023-03-20T00:00:00	2024-11-08T09:00:00	4	Temperatura máxima	20.6
138259	7	Sololá	719	Santiago Atitlán	14	Cerro de Oro	3	Marzo	2023-03-20T00:00:00	2024-11-08T09:00:00	3	Temperatura mínima	19.9
138260	7	Sololá	719	Santiago Atitlán	14	Cerro de Oro	3	Marzo	2023-03-20T00:00:00	2024-11-08T09:00:00	5	Humedad	62
138261	7	Sololá	719	Santiago Atitlán	14	Cerro de Oro	3	Marzo	2023-03-20T00:00:00	2024-11-08T09:00:00	6	Velocidad del viento	11.3
138262	7	Sololá	719	Santiago Atitlán	14	Cerro de Oro	3	Marzo	2023-03-20T00:00:00	2024-11-08T09:00:00	7	Dirección del viento	11.27
138263	7	Sololá	719	Santiago Atitlán	14	Cerro de Oro	3	Marzo	2023-03-20T00:00:00	2024-11-08T09:00:00	1	Precipitación	0
138264	7	Sololá	719	Santiago Atitlán	14	Cerro de Oro	3	Marzo	2023-03-20T00:00:00	2024-11-08T09:00:00	8	Radiación solar	398
138265	7	Sololá	719	Santiago Atitlán	14	Cerro de Oro	3	Marzo	2023-03-20T00:00:00	2024-11-08T10:00:00	2	Temperatura media	21.1
138266	7	Sololá	719	Santiago Atitlán	14	Cerro de Oro	3	Marzo	2023-03-20T00:00:00	2024-11-08T10:00:00	4	Temperatura máxima	21.2
138267	7	Sololá	719	Santiago Atitlán	14	Cerro de Oro	3	Marzo	2023-03-20T00:00:00	2024-11-08T10:00:00	3	Temperatura mínima	20.3
138268	7	Sololá	719	Santiago Atitlán	14	Cerro de Oro	3	Marzo	2023-03-20T00:00:00	2024-11-08T10:00:00	5	Humedad	61
138269	7	Sololá	719	Santiago Atitlán	14	Cerro de Oro	3	Marzo	2023-03-20T00:00:00	2024-11-08T10:00:00	6	Velocidad del viento	9.7
138270	7	Sololá	719	Santiago Atitlán	14	Cerro de Oro	3	Marzo	2023-03-20T00:00:00	2024-11-08T10:00:00	7	Dirección del viento	9.66
138271	7	Sololá	719	Santiago Atitlán	14	Cerro de Oro	3	Marzo	2023-03-20T00:00:00	2024-11-08T10:00:00	1	Precipitación	0
138272	7	Sololá	719	Santiago Atitlán	14	Cerro de Oro	3	Marzo	2023-03-20T00:00:00	2024-11-08T10:00:00	8	Radiación solar	691
138273	7	Sololá	719	Santiago Atitlán	14	Cerro de Oro	3	Marzo	2023-03-20T00:00:00	2024-11-08T11:00:00	2	Temperatura media	22.1
138274	7	Sololá	719	Santiago Atitlán	14	Cerro de Oro	3	Marzo	2023-03-20T00:00:00	2024-11-08T11:00:00	4	Temperatura máxima	22.1
138275	7	Sololá	719	Santiago Atitlán	14	Cerro de Oro	3	Marzo	2023-03-20T00:00:00	2024-11-08T11:00:00	3	Temperatura mínima	21
138276	7	Sololá	719	Santiago Atitlán	14	Cerro de Oro	3	Marzo	2023-03-20T00:00:00	2024-11-08T11:00:00	5	Humedad	59
138277	7	Sololá	719	Santiago Atitlán	14	Cerro de Oro	3	Marzo	2023-03-20T00:00:00	2024-11-08T11:00:00	6	Velocidad del viento	9.7
138278	7	Sololá	719	Santiago Atitlán	14	Cerro de Oro	3	Marzo	2023-03-20T00:00:00	2024-11-08T11:00:00	7	Dirección del viento	9.66
138279	7	Sololá	719	Santiago Atitlán	14	Cerro de Oro	3	Marzo	2023-03-20T00:00:00	2024-11-08T11:00:00	1	Precipitación	0
138280	7	Sololá	719	Santiago Atitlán	14	Cerro de Oro	3	Marzo	2023-03-20T00:00:00	2024-11-08T11:00:00	8	Radiación solar	879
138281	7	Sololá	719	Santiago Atitlán	14	Cerro de Oro	3	Marzo	2023-03-20T00:00:00	2024-11-08T12:00:00	2	Temperatura media	22.6
138282	7	Sololá	719	Santiago Atitlán	14	Cerro de Oro	3	Marzo	2023-03-20T00:00:00	2024-11-08T12:00:00	4	Temperatura máxima	22.6
138283	7	Sololá	719	Santiago Atitlán	14	Cerro de Oro	3	Marzo	2023-03-20T00:00:00	2024-11-08T12:00:00	3	Temperatura mínima	22.1
138284	7	Sololá	719	Santiago Atitlán	14	Cerro de Oro	3	Marzo	2023-03-20T00:00:00	2024-11-08T12:00:00	5	Humedad	59
138285	7	Sololá	719	Santiago Atitlán	14	Cerro de Oro	3	Marzo	2023-03-20T00:00:00	2024-11-08T12:00:00	6	Velocidad del viento	11.3
138286	7	Sololá	719	Santiago Atitlán	14	Cerro de Oro	3	Marzo	2023-03-20T00:00:00	2024-11-08T12:00:00	7	Dirección del viento	11.27
138287	7	Sololá	719	Santiago Atitlán	14	Cerro de Oro	3	Marzo	2023-03-20T00:00:00	2024-11-08T12:00:00	1	Precipitación	0
138288	7	Sololá	719	Santiago Atitlán	14	Cerro de Oro	3	Marzo	2023-03-20T00:00:00	2024-11-08T12:00:00	8	Radiación solar	951
138289	7	Sololá	719	Santiago Atitlán	14	Cerro de Oro	3	Marzo	2023-03-20T00:00:00	2024-11-08T13:00:00	2	Temperatura media	24.1
138290	7	Sololá	719	Santiago Atitlán	14	Cerro de Oro	3	Marzo	2023-03-20T00:00:00	2024-11-08T13:00:00	4	Temperatura máxima	24.2
138291	7	Sololá	719	Santiago Atitlán	14	Cerro de Oro	3	Marzo	2023-03-20T00:00:00	2024-11-08T13:00:00	3	Temperatura mínima	22.6
138292	7	Sololá	719	Santiago Atitlán	14	Cerro de Oro	3	Marzo	2023-03-20T00:00:00	2024-11-08T13:00:00	5	Humedad	56
138293	7	Sololá	719	Santiago Atitlán	14	Cerro de Oro	3	Marzo	2023-03-20T00:00:00	2024-11-08T13:00:00	6	Velocidad del viento	8
138294	7	Sololá	719	Santiago Atitlán	14	Cerro de Oro	3	Marzo	2023-03-20T00:00:00	2024-11-08T13:00:00	7	Dirección del viento	8.05
138295	7	Sololá	719	Santiago Atitlán	14	Cerro de Oro	3	Marzo	2023-03-20T00:00:00	2024-11-08T13:00:00	1	Precipitación	0
138296	7	Sololá	719	Santiago Atitlán	14	Cerro de Oro	3	Marzo	2023-03-20T00:00:00	2024-11-08T13:00:00	8	Radiación solar	990
138297	7	Sololá	719	Santiago Atitlán	14	Cerro de Oro	3	Marzo	2023-03-20T00:00:00	2024-11-08T14:00:00	2	Temperatura media	25.1
138298	7	Sololá	719	Santiago Atitlán	14	Cerro de Oro	3	Marzo	2023-03-20T00:00:00	2024-11-08T14:00:00	4	Temperatura máxima	25.5
138299	7	Sololá	719	Santiago Atitlán	14	Cerro de Oro	3	Marzo	2023-03-20T00:00:00	2024-11-08T14:00:00	3	Temperatura mínima	24.1
138300	7	Sololá	719	Santiago Atitlán	14	Cerro de Oro	3	Marzo	2023-03-20T00:00:00	2024-11-08T14:00:00	5	Humedad	60
138301	7	Sololá	719	Santiago Atitlán	14	Cerro de Oro	3	Marzo	2023-03-20T00:00:00	2024-11-08T14:00:00	6	Velocidad del viento	6.4
138302	7	Sololá	719	Santiago Atitlán	14	Cerro de Oro	3	Marzo	2023-03-20T00:00:00	2024-11-08T14:00:00	7	Dirección del viento	6.44
138303	7	Sololá	719	Santiago Atitlán	14	Cerro de Oro	3	Marzo	2023-03-20T00:00:00	2024-11-08T14:00:00	1	Precipitación	0
138304	7	Sololá	719	Santiago Atitlán	14	Cerro de Oro	3	Marzo	2023-03-20T00:00:00	2024-11-08T14:00:00	8	Radiación solar	913
138305	7	Sololá	719	Santiago Atitlán	14	Cerro de Oro	3	Marzo	2023-03-20T00:00:00	2024-11-08T15:00:00	2	Temperatura media	24.1
138306	7	Sololá	719	Santiago Atitlán	14	Cerro de Oro	3	Marzo	2023-03-20T00:00:00	2024-11-08T15:00:00	4	Temperatura máxima	25.2
138307	7	Sololá	719	Santiago Atitlán	14	Cerro de Oro	3	Marzo	2023-03-20T00:00:00	2024-11-08T15:00:00	3	Temperatura mínima	24
138308	7	Sololá	719	Santiago Atitlán	14	Cerro de Oro	3	Marzo	2023-03-20T00:00:00	2024-11-08T15:00:00	5	Humedad	62
138309	7	Sololá	719	Santiago Atitlán	14	Cerro de Oro	3	Marzo	2023-03-20T00:00:00	2024-11-08T15:00:00	6	Velocidad del viento	11.3
138310	7	Sololá	719	Santiago Atitlán	14	Cerro de Oro	3	Marzo	2023-03-20T00:00:00	2024-11-08T15:00:00	7	Dirección del viento	11.27
138311	7	Sololá	719	Santiago Atitlán	14	Cerro de Oro	3	Marzo	2023-03-20T00:00:00	2024-11-08T15:00:00	1	Precipitación	0
138312	7	Sololá	719	Santiago Atitlán	14	Cerro de Oro	3	Marzo	2023-03-20T00:00:00	2024-11-08T15:00:00	8	Radiación solar	644
138313	7	Sololá	719	Santiago Atitlán	14	Cerro de Oro	3	Marzo	2023-03-20T00:00:00	2024-11-08T16:00:00	2	Temperatura media	24.2
138314	7	Sololá	719	Santiago Atitlán	14	Cerro de Oro	3	Marzo	2023-03-20T00:00:00	2024-11-08T16:00:00	4	Temperatura máxima	24.5
138315	7	Sololá	719	Santiago Atitlán	14	Cerro de Oro	3	Marzo	2023-03-20T00:00:00	2024-11-08T16:00:00	3	Temperatura mínima	23.6
138316	7	Sololá	719	Santiago Atitlán	14	Cerro de Oro	3	Marzo	2023-03-20T00:00:00	2024-11-08T16:00:00	5	Humedad	67
138317	7	Sololá	719	Santiago Atitlán	14	Cerro de Oro	3	Marzo	2023-03-20T00:00:00	2024-11-08T16:00:00	6	Velocidad del viento	11.3
138318	7	Sololá	719	Santiago Atitlán	14	Cerro de Oro	3	Marzo	2023-03-20T00:00:00	2024-11-08T16:00:00	7	Dirección del viento	11.27
138319	7	Sololá	719	Santiago Atitlán	14	Cerro de Oro	3	Marzo	2023-03-20T00:00:00	2024-11-08T16:00:00	1	Precipitación	0
138320	7	Sololá	719	Santiago Atitlán	14	Cerro de Oro	3	Marzo	2023-03-20T00:00:00	2024-11-08T16:00:00	8	Radiación solar	153
138321	7	Sololá	719	Santiago Atitlán	14	Cerro de Oro	3	Marzo	2023-03-20T00:00:00	2024-11-08T17:00:00	2	Temperatura media	21.7
138322	7	Sololá	719	Santiago Atitlán	14	Cerro de Oro	3	Marzo	2023-03-20T00:00:00	2024-11-08T17:00:00	4	Temperatura máxima	24.3
138323	7	Sololá	719	Santiago Atitlán	14	Cerro de Oro	3	Marzo	2023-03-20T00:00:00	2024-11-08T17:00:00	3	Temperatura mínima	21.7
138324	7	Sololá	719	Santiago Atitlán	14	Cerro de Oro	3	Marzo	2023-03-20T00:00:00	2024-11-08T17:00:00	5	Humedad	76
138325	7	Sololá	719	Santiago Atitlán	14	Cerro de Oro	3	Marzo	2023-03-20T00:00:00	2024-11-08T17:00:00	6	Velocidad del viento	12.9
138326	7	Sololá	719	Santiago Atitlán	14	Cerro de Oro	3	Marzo	2023-03-20T00:00:00	2024-11-08T17:00:00	7	Dirección del viento	12.87
138327	7	Sololá	719	Santiago Atitlán	14	Cerro de Oro	3	Marzo	2023-03-20T00:00:00	2024-11-08T17:00:00	1	Precipitación	0
138328	7	Sololá	719	Santiago Atitlán	14	Cerro de Oro	3	Marzo	2023-03-20T00:00:00	2024-11-08T17:00:00	8	Radiación solar	14
138329	7	Sololá	719	Santiago Atitlán	14	Cerro de Oro	3	Marzo	2023-03-20T00:00:00	2024-11-08T18:00:00	2	Temperatura media	21.5
138330	7	Sololá	719	Santiago Atitlán	14	Cerro de Oro	3	Marzo	2023-03-20T00:00:00	2024-11-08T18:00:00	4	Temperatura máxima	21.8
138331	7	Sololá	719	Santiago Atitlán	14	Cerro de Oro	3	Marzo	2023-03-20T00:00:00	2024-11-08T18:00:00	3	Temperatura mínima	21.2
138332	7	Sololá	719	Santiago Atitlán	14	Cerro de Oro	3	Marzo	2023-03-20T00:00:00	2024-11-08T18:00:00	5	Humedad	63
138333	7	Sololá	719	Santiago Atitlán	14	Cerro de Oro	3	Marzo	2023-03-20T00:00:00	2024-11-08T18:00:00	6	Velocidad del viento	9.7
138334	7	Sololá	719	Santiago Atitlán	14	Cerro de Oro	3	Marzo	2023-03-20T00:00:00	2024-11-08T18:00:00	7	Dirección del viento	9.66
138335	7	Sololá	719	Santiago Atitlán	14	Cerro de Oro	3	Marzo	2023-03-20T00:00:00	2024-11-08T18:00:00	1	Precipitación	0
138336	7	Sololá	719	Santiago Atitlán	14	Cerro de Oro	3	Marzo	2023-03-20T00:00:00	2024-11-08T18:00:00	8	Radiación solar	11
138337	7	Sololá	719	Santiago Atitlán	14	Cerro de Oro	3	Marzo	2023-03-20T00:00:00	2024-11-08T19:00:00	2	Temperatura media	20.8
138338	7	Sololá	719	Santiago Atitlán	14	Cerro de Oro	3	Marzo	2023-03-20T00:00:00	2024-11-08T19:00:00	4	Temperatura máxima	21.5
138339	7	Sololá	719	Santiago Atitlán	14	Cerro de Oro	3	Marzo	2023-03-20T00:00:00	2024-11-08T19:00:00	3	Temperatura mínima	20.8
138340	7	Sololá	719	Santiago Atitlán	14	Cerro de Oro	3	Marzo	2023-03-20T00:00:00	2024-11-08T19:00:00	5	Humedad	67
138341	7	Sololá	719	Santiago Atitlán	14	Cerro de Oro	3	Marzo	2023-03-20T00:00:00	2024-11-08T19:00:00	6	Velocidad del viento	11.3
138342	7	Sololá	719	Santiago Atitlán	14	Cerro de Oro	3	Marzo	2023-03-20T00:00:00	2024-11-08T19:00:00	7	Dirección del viento	11.27
138343	7	Sololá	719	Santiago Atitlán	14	Cerro de Oro	3	Marzo	2023-03-20T00:00:00	2024-11-08T19:00:00	1	Precipitación	0
138344	7	Sololá	719	Santiago Atitlán	14	Cerro de Oro	3	Marzo	2023-03-20T00:00:00	2024-11-08T19:00:00	8	Radiación solar	0
138345	7	Sololá	719	Santiago Atitlán	14	Cerro de Oro	3	Marzo	2023-03-20T00:00:00	2024-11-08T20:00:00	2	Temperatura media	20.4
138346	7	Sololá	719	Santiago Atitlán	14	Cerro de Oro	3	Marzo	2023-03-20T00:00:00	2024-11-08T20:00:00	4	Temperatura máxima	20.8
138347	7	Sololá	719	Santiago Atitlán	14	Cerro de Oro	3	Marzo	2023-03-20T00:00:00	2024-11-08T20:00:00	3	Temperatura mínima	20.3
138348	7	Sololá	719	Santiago Atitlán	14	Cerro de Oro	3	Marzo	2023-03-20T00:00:00	2024-11-08T20:00:00	5	Humedad	64
138349	7	Sololá	719	Santiago Atitlán	14	Cerro de Oro	3	Marzo	2023-03-20T00:00:00	2024-11-08T20:00:00	6	Velocidad del viento	9.7
138350	7	Sololá	719	Santiago Atitlán	14	Cerro de Oro	3	Marzo	2023-03-20T00:00:00	2024-11-08T20:00:00	7	Dirección del viento	9.66
138351	7	Sololá	719	Santiago Atitlán	14	Cerro de Oro	3	Marzo	2023-03-20T00:00:00	2024-11-08T20:00:00	1	Precipitación	0
138352	7	Sololá	719	Santiago Atitlán	14	Cerro de Oro	3	Marzo	2023-03-20T00:00:00	2024-11-08T20:00:00	8	Radiación solar	0
138353	7	Sololá	719	Santiago Atitlán	14	Cerro de Oro	3	Marzo	2023-03-20T00:00:00	2024-11-08T21:00:00	2	Temperatura media	19.4
138354	7	Sololá	719	Santiago Atitlán	14	Cerro de Oro	3	Marzo	2023-03-20T00:00:00	2024-11-08T21:00:00	4	Temperatura máxima	20.4
138355	7	Sololá	719	Santiago Atitlán	14	Cerro de Oro	3	Marzo	2023-03-20T00:00:00	2024-11-08T21:00:00	3	Temperatura mínima	19.4
138356	7	Sololá	719	Santiago Atitlán	14	Cerro de Oro	3	Marzo	2023-03-20T00:00:00	2024-11-08T21:00:00	5	Humedad	69
138357	7	Sololá	719	Santiago Atitlán	14	Cerro de Oro	3	Marzo	2023-03-20T00:00:00	2024-11-08T21:00:00	6	Velocidad del viento	8
138358	7	Sololá	719	Santiago Atitlán	14	Cerro de Oro	3	Marzo	2023-03-20T00:00:00	2024-11-08T21:00:00	7	Dirección del viento	8.05
138359	7	Sololá	719	Santiago Atitlán	14	Cerro de Oro	3	Marzo	2023-03-20T00:00:00	2024-11-08T21:00:00	1	Precipitación	0
138360	7	Sololá	719	Santiago Atitlán	14	Cerro de Oro	3	Marzo	2023-03-20T00:00:00	2024-11-08T21:00:00	8	Radiación solar	0
138361	7	Sololá	719	Santiago Atitlán	14	Cerro de Oro	3	Marzo	2023-03-20T00:00:00	2024-11-08T22:00:00	2	Temperatura media	18.4
138362	7	Sololá	719	Santiago Atitlán	14	Cerro de Oro	3	Marzo	2023-03-20T00:00:00	2024-11-08T22:00:00	4	Temperatura máxima	19.4
138363	7	Sololá	719	Santiago Atitlán	14	Cerro de Oro	3	Marzo	2023-03-20T00:00:00	2024-11-08T22:00:00	3	Temperatura mínima	18.4
138364	7	Sololá	719	Santiago Atitlán	14	Cerro de Oro	3	Marzo	2023-03-20T00:00:00	2024-11-08T22:00:00	5	Humedad	70
138365	7	Sololá	719	Santiago Atitlán	14	Cerro de Oro	3	Marzo	2023-03-20T00:00:00	2024-11-08T22:00:00	6	Velocidad del viento	6.4
138366	7	Sololá	719	Santiago Atitlán	14	Cerro de Oro	3	Marzo	2023-03-20T00:00:00	2024-11-08T22:00:00	7	Dirección del viento	6.44
138367	7	Sololá	719	Santiago Atitlán	14	Cerro de Oro	3	Marzo	2023-03-20T00:00:00	2024-11-08T22:00:00	1	Precipitación	0
138368	7	Sololá	719	Santiago Atitlán	14	Cerro de Oro	3	Marzo	2023-03-20T00:00:00	2024-11-08T22:00:00	8	Radiación solar	0
138369	7	Sololá	719	Santiago Atitlán	14	Cerro de Oro	3	Marzo	2023-03-20T00:00:00	2024-11-08T23:00:00	2	Temperatura media	19
138370	7	Sololá	719	Santiago Atitlán	14	Cerro de Oro	3	Marzo	2023-03-20T00:00:00	2024-11-08T23:00:00	4	Temperatura máxima	19.1
138371	7	Sololá	719	Santiago Atitlán	14	Cerro de Oro	3	Marzo	2023-03-20T00:00:00	2024-11-08T23:00:00	3	Temperatura mínima	18.1
138372	7	Sololá	719	Santiago Atitlán	14	Cerro de Oro	3	Marzo	2023-03-20T00:00:00	2024-11-08T23:00:00	5	Humedad	69
138373	7	Sololá	719	Santiago Atitlán	14	Cerro de Oro	3	Marzo	2023-03-20T00:00:00	2024-11-08T23:00:00	6	Velocidad del viento	4.8
138374	7	Sololá	719	Santiago Atitlán	14	Cerro de Oro	3	Marzo	2023-03-20T00:00:00	2024-11-08T23:00:00	7	Dirección del viento	4.83
138375	7	Sololá	719	Santiago Atitlán	14	Cerro de Oro	3	Marzo	2023-03-20T00:00:00	2024-11-08T23:00:00	1	Precipitación	0
138376	7	Sololá	719	Santiago Atitlán	14	Cerro de Oro	3	Marzo	2023-03-20T00:00:00	2024-11-08T23:00:00	8	Radiación solar	0
138377	7	Sololá	719	Santiago Atitlán	14	Cerro de Oro	3	Marzo	2023-03-21T00:00:00	2024-11-08T00:00:00	2	Temperatura media	18.9
138378	7	Sololá	719	Santiago Atitlán	14	Cerro de Oro	3	Marzo	2023-03-21T00:00:00	2024-11-08T00:00:00	4	Temperatura máxima	19.1
138379	7	Sololá	719	Santiago Atitlán	14	Cerro de Oro	3	Marzo	2023-03-21T00:00:00	2024-11-08T00:00:00	3	Temperatura mínima	18.8
138380	7	Sololá	719	Santiago Atitlán	14	Cerro de Oro	3	Marzo	2023-03-21T00:00:00	2024-11-08T00:00:00	5	Humedad	70
138381	7	Sololá	719	Santiago Atitlán	14	Cerro de Oro	3	Marzo	2023-03-21T00:00:00	2024-11-08T00:00:00	6	Velocidad del viento	6.4
138382	7	Sololá	719	Santiago Atitlán	14	Cerro de Oro	3	Marzo	2023-03-21T00:00:00	2024-11-08T00:00:00	7	Dirección del viento	6.44
138383	7	Sololá	719	Santiago Atitlán	14	Cerro de Oro	3	Marzo	2023-03-21T00:00:00	2024-11-08T00:00:00	1	Precipitación	0
138384	7	Sololá	719	Santiago Atitlán	14	Cerro de Oro	3	Marzo	2023-03-21T00:00:00	2024-11-08T00:00:00	8	Radiación solar	0
138385	7	Sololá	719	Santiago Atitlán	14	Cerro de Oro	3	Marzo	2023-03-21T00:00:00	2024-11-08T01:00:00	2	Temperatura media	18.2
138386	7	Sololá	719	Santiago Atitlán	14	Cerro de Oro	3	Marzo	2023-03-21T00:00:00	2024-11-08T01:00:00	4	Temperatura máxima	18.8
138387	7	Sololá	719	Santiago Atitlán	14	Cerro de Oro	3	Marzo	2023-03-21T00:00:00	2024-11-08T01:00:00	3	Temperatura mínima	18
138388	7	Sololá	719	Santiago Atitlán	14	Cerro de Oro	3	Marzo	2023-03-21T00:00:00	2024-11-08T01:00:00	5	Humedad	70
138389	7	Sololá	719	Santiago Atitlán	14	Cerro de Oro	3	Marzo	2023-03-21T00:00:00	2024-11-08T01:00:00	6	Velocidad del viento	6.4
138390	7	Sololá	719	Santiago Atitlán	14	Cerro de Oro	3	Marzo	2023-03-21T00:00:00	2024-11-08T01:00:00	7	Dirección del viento	6.44
138391	7	Sololá	719	Santiago Atitlán	14	Cerro de Oro	3	Marzo	2023-03-21T00:00:00	2024-11-08T01:00:00	1	Precipitación	0
138392	7	Sololá	719	Santiago Atitlán	14	Cerro de Oro	3	Marzo	2023-03-21T00:00:00	2024-11-08T01:00:00	8	Radiación solar	0
138393	7	Sololá	719	Santiago Atitlán	14	Cerro de Oro	3	Marzo	2023-03-21T00:00:00	2024-11-08T02:00:00	2	Temperatura media	17.9
138394	7	Sololá	719	Santiago Atitlán	14	Cerro de Oro	3	Marzo	2023-03-21T00:00:00	2024-11-08T02:00:00	4	Temperatura máxima	18.6
138395	7	Sololá	719	Santiago Atitlán	14	Cerro de Oro	3	Marzo	2023-03-21T00:00:00	2024-11-08T02:00:00	3	Temperatura mínima	17.9
138396	7	Sololá	719	Santiago Atitlán	14	Cerro de Oro	3	Marzo	2023-03-21T00:00:00	2024-11-08T02:00:00	5	Humedad	71
138397	7	Sololá	719	Santiago Atitlán	14	Cerro de Oro	3	Marzo	2023-03-21T00:00:00	2024-11-08T02:00:00	6	Velocidad del viento	4.8
138398	7	Sololá	719	Santiago Atitlán	14	Cerro de Oro	3	Marzo	2023-03-21T00:00:00	2024-11-08T02:00:00	7	Dirección del viento	4.83
138399	7	Sololá	719	Santiago Atitlán	14	Cerro de Oro	3	Marzo	2023-03-21T00:00:00	2024-11-08T02:00:00	1	Precipitación	0
138400	7	Sololá	719	Santiago Atitlán	14	Cerro de Oro	3	Marzo	2023-03-21T00:00:00	2024-11-08T02:00:00	8	Radiación solar	0
138401	7	Sololá	719	Santiago Atitlán	14	Cerro de Oro	3	Marzo	2023-03-21T00:00:00	2024-11-08T03:00:00	2	Temperatura media	18.2
138402	7	Sololá	719	Santiago Atitlán	14	Cerro de Oro	3	Marzo	2023-03-21T00:00:00	2024-11-08T03:00:00	4	Temperatura máxima	18.2
138403	7	Sololá	719	Santiago Atitlán	14	Cerro de Oro	3	Marzo	2023-03-21T00:00:00	2024-11-08T03:00:00	3	Temperatura mínima	17.7
138404	7	Sololá	719	Santiago Atitlán	14	Cerro de Oro	3	Marzo	2023-03-21T00:00:00	2024-11-08T03:00:00	5	Humedad	71
138405	7	Sololá	719	Santiago Atitlán	14	Cerro de Oro	3	Marzo	2023-03-21T00:00:00	2024-11-08T03:00:00	6	Velocidad del viento	4.8
138406	7	Sololá	719	Santiago Atitlán	14	Cerro de Oro	3	Marzo	2023-03-21T00:00:00	2024-11-08T03:00:00	7	Dirección del viento	4.83
138407	7	Sololá	719	Santiago Atitlán	14	Cerro de Oro	3	Marzo	2023-03-21T00:00:00	2024-11-08T03:00:00	1	Precipitación	0
138408	7	Sololá	719	Santiago Atitlán	14	Cerro de Oro	3	Marzo	2023-03-21T00:00:00	2024-11-08T03:00:00	8	Radiación solar	0
138409	7	Sololá	719	Santiago Atitlán	14	Cerro de Oro	3	Marzo	2023-03-21T00:00:00	2024-11-08T04:00:00	2	Temperatura media	17.6
138410	7	Sololá	719	Santiago Atitlán	14	Cerro de Oro	3	Marzo	2023-03-21T00:00:00	2024-11-08T04:00:00	4	Temperatura máxima	18.2
138411	7	Sololá	719	Santiago Atitlán	14	Cerro de Oro	3	Marzo	2023-03-21T00:00:00	2024-11-08T04:00:00	3	Temperatura mínima	17.2
138412	7	Sololá	719	Santiago Atitlán	14	Cerro de Oro	3	Marzo	2023-03-21T00:00:00	2024-11-08T04:00:00	5	Humedad	74
138413	7	Sololá	719	Santiago Atitlán	14	Cerro de Oro	3	Marzo	2023-03-21T00:00:00	2024-11-08T04:00:00	6	Velocidad del viento	4.8
138414	7	Sololá	719	Santiago Atitlán	14	Cerro de Oro	3	Marzo	2023-03-21T00:00:00	2024-11-08T04:00:00	7	Dirección del viento	4.83
138415	7	Sololá	719	Santiago Atitlán	14	Cerro de Oro	3	Marzo	2023-03-21T00:00:00	2024-11-08T04:00:00	1	Precipitación	0
138416	7	Sololá	719	Santiago Atitlán	14	Cerro de Oro	3	Marzo	2023-03-21T00:00:00	2024-11-08T04:00:00	8	Radiación solar	0
138417	7	Sololá	719	Santiago Atitlán	14	Cerro de Oro	3	Marzo	2023-03-21T00:00:00	2024-11-08T05:00:00	2	Temperatura media	17.6
138418	7	Sololá	719	Santiago Atitlán	14	Cerro de Oro	3	Marzo	2023-03-21T00:00:00	2024-11-08T05:00:00	4	Temperatura máxima	18.6
138419	7	Sololá	719	Santiago Atitlán	14	Cerro de Oro	3	Marzo	2023-03-21T00:00:00	2024-11-08T05:00:00	3	Temperatura mínima	17.6
138420	7	Sololá	719	Santiago Atitlán	14	Cerro de Oro	3	Marzo	2023-03-21T00:00:00	2024-11-08T05:00:00	5	Humedad	74
138421	7	Sololá	719	Santiago Atitlán	14	Cerro de Oro	3	Marzo	2023-03-21T00:00:00	2024-11-08T05:00:00	6	Velocidad del viento	4.8
138422	7	Sololá	719	Santiago Atitlán	14	Cerro de Oro	3	Marzo	2023-03-21T00:00:00	2024-11-08T05:00:00	7	Dirección del viento	4.83
138423	7	Sololá	719	Santiago Atitlán	14	Cerro de Oro	3	Marzo	2023-03-21T00:00:00	2024-11-08T05:00:00	1	Precipitación	0
138424	7	Sololá	719	Santiago Atitlán	14	Cerro de Oro	3	Marzo	2023-03-21T00:00:00	2024-11-08T05:00:00	8	Radiación solar	0
138425	7	Sololá	719	Santiago Atitlán	14	Cerro de Oro	3	Marzo	2023-03-21T00:00:00	2024-11-08T06:00:00	2	Temperatura media	17.8
138426	7	Sololá	719	Santiago Atitlán	14	Cerro de Oro	3	Marzo	2023-03-21T00:00:00	2024-11-08T06:00:00	4	Temperatura máxima	17.9
138427	7	Sololá	719	Santiago Atitlán	14	Cerro de Oro	3	Marzo	2023-03-21T00:00:00	2024-11-08T06:00:00	3	Temperatura mínima	16.8
138428	7	Sololá	719	Santiago Atitlán	14	Cerro de Oro	3	Marzo	2023-03-21T00:00:00	2024-11-08T06:00:00	5	Humedad	71
138429	7	Sololá	719	Santiago Atitlán	14	Cerro de Oro	3	Marzo	2023-03-21T00:00:00	2024-11-08T06:00:00	6	Velocidad del viento	4.8
138430	7	Sololá	719	Santiago Atitlán	14	Cerro de Oro	3	Marzo	2023-03-21T00:00:00	2024-11-08T06:00:00	7	Dirección del viento	4.83
138431	7	Sololá	719	Santiago Atitlán	14	Cerro de Oro	3	Marzo	2023-03-21T00:00:00	2024-11-08T06:00:00	1	Precipitación	0
138432	7	Sololá	719	Santiago Atitlán	14	Cerro de Oro	3	Marzo	2023-03-21T00:00:00	2024-11-08T06:00:00	8	Radiación solar	0
138433	7	Sololá	719	Santiago Atitlán	14	Cerro de Oro	3	Marzo	2023-03-21T00:00:00	2024-11-08T07:00:00	2	Temperatura media	17.8
138434	7	Sololá	719	Santiago Atitlán	14	Cerro de Oro	3	Marzo	2023-03-21T00:00:00	2024-11-08T07:00:00	4	Temperatura máxima	18.2
138435	7	Sololá	719	Santiago Atitlán	14	Cerro de Oro	3	Marzo	2023-03-21T00:00:00	2024-11-08T07:00:00	3	Temperatura mínima	17.7
138436	7	Sololá	719	Santiago Atitlán	14	Cerro de Oro	3	Marzo	2023-03-21T00:00:00	2024-11-08T07:00:00	5	Humedad	72
138437	7	Sololá	719	Santiago Atitlán	14	Cerro de Oro	3	Marzo	2023-03-21T00:00:00	2024-11-08T07:00:00	6	Velocidad del viento	6.4
138438	7	Sololá	719	Santiago Atitlán	14	Cerro de Oro	3	Marzo	2023-03-21T00:00:00	2024-11-08T07:00:00	7	Dirección del viento	6.44
138439	7	Sololá	719	Santiago Atitlán	14	Cerro de Oro	3	Marzo	2023-03-21T00:00:00	2024-11-08T07:00:00	1	Precipitación	0
138440	7	Sololá	719	Santiago Atitlán	14	Cerro de Oro	3	Marzo	2023-03-21T00:00:00	2024-11-08T07:00:00	8	Radiación solar	36
138441	7	Sololá	719	Santiago Atitlán	14	Cerro de Oro	3	Marzo	2023-03-21T00:00:00	2024-11-08T08:00:00	2	Temperatura media	20
138442	7	Sololá	719	Santiago Atitlán	14	Cerro de Oro	3	Marzo	2023-03-21T00:00:00	2024-11-08T08:00:00	4	Temperatura máxima	20
138443	7	Sololá	719	Santiago Atitlán	14	Cerro de Oro	3	Marzo	2023-03-21T00:00:00	2024-11-08T08:00:00	3	Temperatura mínima	17.8
138444	7	Sololá	719	Santiago Atitlán	14	Cerro de Oro	3	Marzo	2023-03-21T00:00:00	2024-11-08T08:00:00	5	Humedad	67
138445	7	Sololá	719	Santiago Atitlán	14	Cerro de Oro	3	Marzo	2023-03-21T00:00:00	2024-11-08T08:00:00	6	Velocidad del viento	4.8
138446	7	Sololá	719	Santiago Atitlán	14	Cerro de Oro	3	Marzo	2023-03-21T00:00:00	2024-11-08T08:00:00	7	Dirección del viento	4.83
138447	7	Sololá	719	Santiago Atitlán	14	Cerro de Oro	3	Marzo	2023-03-21T00:00:00	2024-11-08T08:00:00	1	Precipitación	0
138448	7	Sololá	719	Santiago Atitlán	14	Cerro de Oro	3	Marzo	2023-03-21T00:00:00	2024-11-08T08:00:00	8	Radiación solar	198
138449	7	Sololá	719	Santiago Atitlán	14	Cerro de Oro	3	Marzo	2023-03-21T00:00:00	2024-11-08T09:00:00	2	Temperatura media	21.4
138450	7	Sololá	719	Santiago Atitlán	14	Cerro de Oro	3	Marzo	2023-03-21T00:00:00	2024-11-08T09:00:00	4	Temperatura máxima	21.4
138451	7	Sololá	719	Santiago Atitlán	14	Cerro de Oro	3	Marzo	2023-03-21T00:00:00	2024-11-08T09:00:00	3	Temperatura mínima	20.1
138452	7	Sololá	719	Santiago Atitlán	14	Cerro de Oro	3	Marzo	2023-03-21T00:00:00	2024-11-08T09:00:00	5	Humedad	61
138453	7	Sololá	719	Santiago Atitlán	14	Cerro de Oro	3	Marzo	2023-03-21T00:00:00	2024-11-08T09:00:00	6	Velocidad del viento	3.2
138454	7	Sololá	719	Santiago Atitlán	14	Cerro de Oro	3	Marzo	2023-03-21T00:00:00	2024-11-08T09:00:00	7	Dirección del viento	3.22
138455	7	Sololá	719	Santiago Atitlán	14	Cerro de Oro	3	Marzo	2023-03-21T00:00:00	2024-11-08T09:00:00	1	Precipitación	0
138456	7	Sololá	719	Santiago Atitlán	14	Cerro de Oro	3	Marzo	2023-03-21T00:00:00	2024-11-08T09:00:00	8	Radiación solar	414
138457	7	Sololá	719	Santiago Atitlán	14	Cerro de Oro	3	Marzo	2023-03-21T00:00:00	2024-11-08T10:00:00	2	Temperatura media	21.8
138458	7	Sololá	719	Santiago Atitlán	14	Cerro de Oro	3	Marzo	2023-03-21T00:00:00	2024-11-08T10:00:00	4	Temperatura máxima	21.9
138459	7	Sololá	719	Santiago Atitlán	14	Cerro de Oro	3	Marzo	2023-03-21T00:00:00	2024-11-08T10:00:00	3	Temperatura mínima	21.3
138460	7	Sololá	719	Santiago Atitlán	14	Cerro de Oro	3	Marzo	2023-03-21T00:00:00	2024-11-08T10:00:00	5	Humedad	64
138461	7	Sololá	719	Santiago Atitlán	14	Cerro de Oro	3	Marzo	2023-03-21T00:00:00	2024-11-08T10:00:00	6	Velocidad del viento	6.4
138462	7	Sololá	719	Santiago Atitlán	14	Cerro de Oro	3	Marzo	2023-03-21T00:00:00	2024-11-08T10:00:00	7	Dirección del viento	6.44
138463	7	Sololá	719	Santiago Atitlán	14	Cerro de Oro	3	Marzo	2023-03-21T00:00:00	2024-11-08T10:00:00	1	Precipitación	0
138464	7	Sololá	719	Santiago Atitlán	14	Cerro de Oro	3	Marzo	2023-03-21T00:00:00	2024-11-08T10:00:00	8	Radiación solar	713
138465	7	Sololá	719	Santiago Atitlán	14	Cerro de Oro	3	Marzo	2023-03-21T00:00:00	2024-11-08T11:00:00	2	Temperatura media	22.3
138466	7	Sololá	719	Santiago Atitlán	14	Cerro de Oro	3	Marzo	2023-03-21T00:00:00	2024-11-08T11:00:00	4	Temperatura máxima	22.4
138467	7	Sololá	719	Santiago Atitlán	14	Cerro de Oro	3	Marzo	2023-03-21T00:00:00	2024-11-08T11:00:00	3	Temperatura mínima	20.9
138468	7	Sololá	719	Santiago Atitlán	14	Cerro de Oro	3	Marzo	2023-03-21T00:00:00	2024-11-08T11:00:00	5	Humedad	60
138469	7	Sololá	719	Santiago Atitlán	14	Cerro de Oro	3	Marzo	2023-03-21T00:00:00	2024-11-08T11:00:00	6	Velocidad del viento	11.3
138470	7	Sololá	719	Santiago Atitlán	14	Cerro de Oro	3	Marzo	2023-03-21T00:00:00	2024-11-08T11:00:00	7	Dirección del viento	11.27
138471	7	Sololá	719	Santiago Atitlán	14	Cerro de Oro	3	Marzo	2023-03-21T00:00:00	2024-11-08T11:00:00	1	Precipitación	0
138472	7	Sololá	719	Santiago Atitlán	14	Cerro de Oro	3	Marzo	2023-03-21T00:00:00	2024-11-08T11:00:00	8	Radiación solar	480
138473	7	Sololá	719	Santiago Atitlán	14	Cerro de Oro	3	Marzo	2023-03-21T00:00:00	2024-11-08T12:00:00	2	Temperatura media	23.3
138474	7	Sololá	719	Santiago Atitlán	14	Cerro de Oro	3	Marzo	2023-03-21T00:00:00	2024-11-08T12:00:00	4	Temperatura máxima	23.4
138475	7	Sololá	719	Santiago Atitlán	14	Cerro de Oro	3	Marzo	2023-03-21T00:00:00	2024-11-08T12:00:00	3	Temperatura mínima	22.3
138476	7	Sololá	719	Santiago Atitlán	14	Cerro de Oro	3	Marzo	2023-03-21T00:00:00	2024-11-08T12:00:00	5	Humedad	57
138477	7	Sololá	719	Santiago Atitlán	14	Cerro de Oro	3	Marzo	2023-03-21T00:00:00	2024-11-08T12:00:00	6	Velocidad del viento	8
138478	7	Sololá	719	Santiago Atitlán	14	Cerro de Oro	3	Marzo	2023-03-21T00:00:00	2024-11-08T12:00:00	7	Dirección del viento	8.05
138479	7	Sololá	719	Santiago Atitlán	14	Cerro de Oro	3	Marzo	2023-03-21T00:00:00	2024-11-08T12:00:00	1	Precipitación	0
138480	7	Sololá	719	Santiago Atitlán	14	Cerro de Oro	3	Marzo	2023-03-21T00:00:00	2024-11-08T12:00:00	8	Radiación solar	412
138481	7	Sololá	719	Santiago Atitlán	14	Cerro de Oro	3	Marzo	2023-03-21T00:00:00	2024-11-08T13:00:00	2	Temperatura media	22.8
138482	7	Sololá	719	Santiago Atitlán	14	Cerro de Oro	3	Marzo	2023-03-21T00:00:00	2024-11-08T13:00:00	4	Temperatura máxima	23.6
138483	7	Sololá	719	Santiago Atitlán	14	Cerro de Oro	3	Marzo	2023-03-21T00:00:00	2024-11-08T13:00:00	3	Temperatura mínima	22.7
138484	7	Sololá	719	Santiago Atitlán	14	Cerro de Oro	3	Marzo	2023-03-21T00:00:00	2024-11-08T13:00:00	5	Humedad	54
138485	7	Sololá	719	Santiago Atitlán	14	Cerro de Oro	3	Marzo	2023-03-21T00:00:00	2024-11-08T13:00:00	6	Velocidad del viento	11.3
138486	7	Sololá	719	Santiago Atitlán	14	Cerro de Oro	3	Marzo	2023-03-21T00:00:00	2024-11-08T13:00:00	7	Dirección del viento	11.27
138487	7	Sololá	719	Santiago Atitlán	14	Cerro de Oro	3	Marzo	2023-03-21T00:00:00	2024-11-08T13:00:00	1	Precipitación	0
138488	7	Sololá	719	Santiago Atitlán	14	Cerro de Oro	3	Marzo	2023-03-21T00:00:00	2024-11-08T13:00:00	8	Radiación solar	794
138489	7	Sololá	719	Santiago Atitlán	14	Cerro de Oro	3	Marzo	2023-03-21T00:00:00	2024-11-08T14:00:00	2	Temperatura media	24.6
138490	7	Sololá	719	Santiago Atitlán	14	Cerro de Oro	3	Marzo	2023-03-21T00:00:00	2024-11-08T14:00:00	4	Temperatura máxima	24.7
138491	7	Sololá	719	Santiago Atitlán	14	Cerro de Oro	3	Marzo	2023-03-21T00:00:00	2024-11-08T14:00:00	3	Temperatura mínima	22.8
138492	7	Sololá	719	Santiago Atitlán	14	Cerro de Oro	3	Marzo	2023-03-21T00:00:00	2024-11-08T14:00:00	5	Humedad	49
138493	7	Sololá	719	Santiago Atitlán	14	Cerro de Oro	3	Marzo	2023-03-21T00:00:00	2024-11-08T14:00:00	6	Velocidad del viento	11.3
138494	7	Sololá	719	Santiago Atitlán	14	Cerro de Oro	3	Marzo	2023-03-21T00:00:00	2024-11-08T14:00:00	7	Dirección del viento	11.27
138495	7	Sololá	719	Santiago Atitlán	14	Cerro de Oro	3	Marzo	2023-03-21T00:00:00	2024-11-08T14:00:00	1	Precipitación	0
138496	7	Sololá	719	Santiago Atitlán	14	Cerro de Oro	3	Marzo	2023-03-21T00:00:00	2024-11-08T14:00:00	8	Radiación solar	364
138497	7	Sololá	719	Santiago Atitlán	14	Cerro de Oro	3	Marzo	2023-03-21T00:00:00	2024-11-08T15:00:00	2	Temperatura media	23.9
138498	7	Sololá	719	Santiago Atitlán	14	Cerro de Oro	3	Marzo	2023-03-21T00:00:00	2024-11-08T15:00:00	4	Temperatura máxima	24.6
138499	7	Sololá	719	Santiago Atitlán	14	Cerro de Oro	3	Marzo	2023-03-21T00:00:00	2024-11-08T15:00:00	3	Temperatura mínima	23.8
138500	7	Sololá	719	Santiago Atitlán	14	Cerro de Oro	3	Marzo	2023-03-21T00:00:00	2024-11-08T15:00:00	5	Humedad	51
138501	7	Sololá	719	Santiago Atitlán	14	Cerro de Oro	3	Marzo	2023-03-21T00:00:00	2024-11-08T15:00:00	6	Velocidad del viento	11.3
138502	7	Sololá	719	Santiago Atitlán	14	Cerro de Oro	3	Marzo	2023-03-21T00:00:00	2024-11-08T15:00:00	7	Dirección del viento	11.27
138503	7	Sololá	719	Santiago Atitlán	14	Cerro de Oro	3	Marzo	2023-03-21T00:00:00	2024-11-08T15:00:00	1	Precipitación	0
138504	7	Sololá	719	Santiago Atitlán	14	Cerro de Oro	3	Marzo	2023-03-21T00:00:00	2024-11-08T15:00:00	8	Radiación solar	236
138505	7	Sololá	719	Santiago Atitlán	14	Cerro de Oro	3	Marzo	2023-03-21T00:00:00	2024-11-08T16:00:00	2	Temperatura media	23.6
138506	7	Sololá	719	Santiago Atitlán	14	Cerro de Oro	3	Marzo	2023-03-21T00:00:00	2024-11-08T16:00:00	4	Temperatura máxima	24.2
138507	7	Sololá	719	Santiago Atitlán	14	Cerro de Oro	3	Marzo	2023-03-21T00:00:00	2024-11-08T16:00:00	3	Temperatura mínima	23.3
138508	7	Sololá	719	Santiago Atitlán	14	Cerro de Oro	3	Marzo	2023-03-21T00:00:00	2024-11-08T16:00:00	5	Humedad	58
138509	7	Sololá	719	Santiago Atitlán	14	Cerro de Oro	3	Marzo	2023-03-21T00:00:00	2024-11-08T16:00:00	6	Velocidad del viento	6.4
138510	7	Sololá	719	Santiago Atitlán	14	Cerro de Oro	3	Marzo	2023-03-21T00:00:00	2024-11-08T16:00:00	7	Dirección del viento	6.44
138511	7	Sololá	719	Santiago Atitlán	14	Cerro de Oro	3	Marzo	2023-03-21T00:00:00	2024-11-08T16:00:00	1	Precipitación	0
138512	7	Sololá	719	Santiago Atitlán	14	Cerro de Oro	3	Marzo	2023-03-21T00:00:00	2024-11-08T16:00:00	8	Radiación solar	328
138513	7	Sololá	719	Santiago Atitlán	14	Cerro de Oro	3	Marzo	2023-03-21T00:00:00	2024-11-08T17:00:00	2	Temperatura media	23.6
138514	7	Sololá	719	Santiago Atitlán	14	Cerro de Oro	3	Marzo	2023-03-21T00:00:00	2024-11-08T17:00:00	4	Temperatura máxima	23.9
138515	7	Sololá	719	Santiago Atitlán	14	Cerro de Oro	3	Marzo	2023-03-21T00:00:00	2024-11-08T17:00:00	3	Temperatura mínima	23.5
138516	7	Sololá	719	Santiago Atitlán	14	Cerro de Oro	3	Marzo	2023-03-21T00:00:00	2024-11-08T17:00:00	5	Humedad	58
138517	7	Sololá	719	Santiago Atitlán	14	Cerro de Oro	3	Marzo	2023-03-21T00:00:00	2024-11-08T17:00:00	6	Velocidad del viento	16.1
138518	7	Sololá	719	Santiago Atitlán	14	Cerro de Oro	3	Marzo	2023-03-21T00:00:00	2024-11-08T17:00:00	7	Dirección del viento	16.09
138519	7	Sololá	719	Santiago Atitlán	14	Cerro de Oro	3	Marzo	2023-03-21T00:00:00	2024-11-08T17:00:00	1	Precipitación	0
138520	7	Sololá	719	Santiago Atitlán	14	Cerro de Oro	3	Marzo	2023-03-21T00:00:00	2024-11-08T17:00:00	8	Radiación solar	422
138521	7	Sololá	719	Santiago Atitlán	14	Cerro de Oro	3	Marzo	2023-03-21T00:00:00	2024-11-08T18:00:00	2	Temperatura media	23.5
138522	7	Sololá	719	Santiago Atitlán	14	Cerro de Oro	3	Marzo	2023-03-21T00:00:00	2024-11-08T18:00:00	4	Temperatura máxima	24.2
138523	7	Sololá	719	Santiago Atitlán	14	Cerro de Oro	3	Marzo	2023-03-21T00:00:00	2024-11-08T18:00:00	3	Temperatura mínima	23.4
138524	7	Sololá	719	Santiago Atitlán	14	Cerro de Oro	3	Marzo	2023-03-21T00:00:00	2024-11-08T18:00:00	5	Humedad	53
138525	7	Sololá	719	Santiago Atitlán	14	Cerro de Oro	3	Marzo	2023-03-21T00:00:00	2024-11-08T18:00:00	6	Velocidad del viento	12.9
138526	7	Sololá	719	Santiago Atitlán	14	Cerro de Oro	3	Marzo	2023-03-21T00:00:00	2024-11-08T18:00:00	7	Dirección del viento	12.87
138527	7	Sololá	719	Santiago Atitlán	14	Cerro de Oro	3	Marzo	2023-03-21T00:00:00	2024-11-08T18:00:00	1	Precipitación	0
138528	7	Sololá	719	Santiago Atitlán	14	Cerro de Oro	3	Marzo	2023-03-21T00:00:00	2024-11-08T18:00:00	8	Radiación solar	63
138529	7	Sololá	719	Santiago Atitlán	14	Cerro de Oro	3	Marzo	2023-03-21T00:00:00	2024-11-08T19:00:00	2	Temperatura media	22.3
138530	7	Sololá	719	Santiago Atitlán	14	Cerro de Oro	3	Marzo	2023-03-21T00:00:00	2024-11-08T19:00:00	4	Temperatura máxima	23.5
138531	7	Sololá	719	Santiago Atitlán	14	Cerro de Oro	3	Marzo	2023-03-21T00:00:00	2024-11-08T19:00:00	3	Temperatura mínima	22.3
138532	7	Sololá	719	Santiago Atitlán	14	Cerro de Oro	3	Marzo	2023-03-21T00:00:00	2024-11-08T19:00:00	5	Humedad	63
138533	7	Sololá	719	Santiago Atitlán	14	Cerro de Oro	3	Marzo	2023-03-21T00:00:00	2024-11-08T19:00:00	6	Velocidad del viento	11.3
138534	7	Sololá	719	Santiago Atitlán	14	Cerro de Oro	3	Marzo	2023-03-21T00:00:00	2024-11-08T19:00:00	7	Dirección del viento	11.27
138535	7	Sololá	719	Santiago Atitlán	14	Cerro de Oro	3	Marzo	2023-03-21T00:00:00	2024-11-08T19:00:00	1	Precipitación	0
138536	7	Sololá	719	Santiago Atitlán	14	Cerro de Oro	3	Marzo	2023-03-21T00:00:00	2024-11-08T19:00:00	8	Radiación solar	0
138537	7	Sololá	719	Santiago Atitlán	14	Cerro de Oro	3	Marzo	2023-03-21T00:00:00	2024-11-08T20:00:00	2	Temperatura media	20.7
138538	7	Sololá	719	Santiago Atitlán	14	Cerro de Oro	3	Marzo	2023-03-21T00:00:00	2024-11-08T20:00:00	4	Temperatura máxima	22.3
138539	7	Sololá	719	Santiago Atitlán	14	Cerro de Oro	3	Marzo	2023-03-21T00:00:00	2024-11-08T20:00:00	3	Temperatura mínima	20.7
138540	7	Sololá	719	Santiago Atitlán	14	Cerro de Oro	3	Marzo	2023-03-21T00:00:00	2024-11-08T20:00:00	5	Humedad	68
138541	7	Sololá	719	Santiago Atitlán	14	Cerro de Oro	3	Marzo	2023-03-21T00:00:00	2024-11-08T20:00:00	6	Velocidad del viento	11.3
138542	7	Sololá	719	Santiago Atitlán	14	Cerro de Oro	3	Marzo	2023-03-21T00:00:00	2024-11-08T20:00:00	7	Dirección del viento	11.27
138543	7	Sololá	719	Santiago Atitlán	14	Cerro de Oro	3	Marzo	2023-03-21T00:00:00	2024-11-08T20:00:00	1	Precipitación	0
138544	7	Sololá	719	Santiago Atitlán	14	Cerro de Oro	3	Marzo	2023-03-21T00:00:00	2024-11-08T20:00:00	8	Radiación solar	0
138545	7	Sololá	719	Santiago Atitlán	14	Cerro de Oro	3	Marzo	2023-03-21T00:00:00	2024-11-08T21:00:00	2	Temperatura media	20.4
138546	7	Sololá	719	Santiago Atitlán	14	Cerro de Oro	3	Marzo	2023-03-21T00:00:00	2024-11-08T21:00:00	4	Temperatura máxima	20.7
138547	7	Sololá	719	Santiago Atitlán	14	Cerro de Oro	3	Marzo	2023-03-21T00:00:00	2024-11-08T21:00:00	3	Temperatura mínima	20.4
138548	7	Sololá	719	Santiago Atitlán	14	Cerro de Oro	3	Marzo	2023-03-21T00:00:00	2024-11-08T21:00:00	5	Humedad	70
138549	7	Sololá	719	Santiago Atitlán	14	Cerro de Oro	3	Marzo	2023-03-21T00:00:00	2024-11-08T21:00:00	6	Velocidad del viento	6.4
138550	7	Sololá	719	Santiago Atitlán	14	Cerro de Oro	3	Marzo	2023-03-21T00:00:00	2024-11-08T21:00:00	7	Dirección del viento	6.44
138551	7	Sololá	719	Santiago Atitlán	14	Cerro de Oro	3	Marzo	2023-03-21T00:00:00	2024-11-08T21:00:00	1	Precipitación	0
138552	7	Sololá	719	Santiago Atitlán	14	Cerro de Oro	3	Marzo	2023-03-21T00:00:00	2024-11-08T21:00:00	8	Radiación solar	0
138553	7	Sololá	719	Santiago Atitlán	14	Cerro de Oro	3	Marzo	2023-03-21T00:00:00	2024-11-08T22:00:00	2	Temperatura media	20.9
138554	7	Sololá	719	Santiago Atitlán	14	Cerro de Oro	3	Marzo	2023-03-21T00:00:00	2024-11-08T22:00:00	4	Temperatura máxima	20.9
138555	7	Sololá	719	Santiago Atitlán	14	Cerro de Oro	3	Marzo	2023-03-21T00:00:00	2024-11-08T22:00:00	3	Temperatura mínima	20.4
138556	7	Sololá	719	Santiago Atitlán	14	Cerro de Oro	3	Marzo	2023-03-21T00:00:00	2024-11-08T22:00:00	5	Humedad	66
138557	7	Sololá	719	Santiago Atitlán	14	Cerro de Oro	3	Marzo	2023-03-21T00:00:00	2024-11-08T22:00:00	6	Velocidad del viento	8
138558	7	Sololá	719	Santiago Atitlán	14	Cerro de Oro	3	Marzo	2023-03-21T00:00:00	2024-11-08T22:00:00	7	Dirección del viento	8.05
138559	7	Sololá	719	Santiago Atitlán	14	Cerro de Oro	3	Marzo	2023-03-21T00:00:00	2024-11-08T22:00:00	1	Precipitación	0
138560	7	Sololá	719	Santiago Atitlán	14	Cerro de Oro	3	Marzo	2023-03-21T00:00:00	2024-11-08T22:00:00	8	Radiación solar	0
138561	7	Sololá	719	Santiago Atitlán	14	Cerro de Oro	3	Marzo	2023-03-21T00:00:00	2024-11-08T23:00:00	2	Temperatura media	20.5
138562	7	Sololá	719	Santiago Atitlán	14	Cerro de Oro	3	Marzo	2023-03-21T00:00:00	2024-11-08T23:00:00	4	Temperatura máxima	21
138563	7	Sololá	719	Santiago Atitlán	14	Cerro de Oro	3	Marzo	2023-03-21T00:00:00	2024-11-08T23:00:00	3	Temperatura mínima	20.5
138564	7	Sololá	719	Santiago Atitlán	14	Cerro de Oro	3	Marzo	2023-03-21T00:00:00	2024-11-08T23:00:00	5	Humedad	67
138565	7	Sololá	719	Santiago Atitlán	14	Cerro de Oro	3	Marzo	2023-03-21T00:00:00	2024-11-08T23:00:00	6	Velocidad del viento	9.7
138566	7	Sololá	719	Santiago Atitlán	14	Cerro de Oro	3	Marzo	2023-03-21T00:00:00	2024-11-08T23:00:00	7	Dirección del viento	9.66
138567	7	Sololá	719	Santiago Atitlán	14	Cerro de Oro	3	Marzo	2023-03-21T00:00:00	2024-11-08T23:00:00	1	Precipitación	0
138568	7	Sololá	719	Santiago Atitlán	14	Cerro de Oro	3	Marzo	2023-03-21T00:00:00	2024-11-08T23:00:00	8	Radiación solar	0
138569	7	Sololá	719	Santiago Atitlán	14	Cerro de Oro	3	Marzo	2023-03-22T00:00:00	2024-11-08T00:00:00	2	Temperatura media	20.2
138570	7	Sololá	719	Santiago Atitlán	14	Cerro de Oro	3	Marzo	2023-03-22T00:00:00	2024-11-08T00:00:00	4	Temperatura máxima	20.6
138571	7	Sololá	719	Santiago Atitlán	14	Cerro de Oro	3	Marzo	2023-03-22T00:00:00	2024-11-08T00:00:00	3	Temperatura mínima	20.2
138572	7	Sololá	719	Santiago Atitlán	14	Cerro de Oro	3	Marzo	2023-03-22T00:00:00	2024-11-08T00:00:00	5	Humedad	67
138573	7	Sololá	719	Santiago Atitlán	14	Cerro de Oro	3	Marzo	2023-03-22T00:00:00	2024-11-08T00:00:00	6	Velocidad del viento	11.3
138574	7	Sololá	719	Santiago Atitlán	14	Cerro de Oro	3	Marzo	2023-03-22T00:00:00	2024-11-08T00:00:00	7	Dirección del viento	11.27
138575	7	Sololá	719	Santiago Atitlán	14	Cerro de Oro	3	Marzo	2023-03-22T00:00:00	2024-11-08T00:00:00	1	Precipitación	0
138576	7	Sololá	719	Santiago Atitlán	14	Cerro de Oro	3	Marzo	2023-03-22T00:00:00	2024-11-08T00:00:00	8	Radiación solar	0
138577	7	Sololá	719	Santiago Atitlán	14	Cerro de Oro	3	Marzo	2023-03-22T00:00:00	2024-11-08T01:00:00	2	Temperatura media	19.7
138578	7	Sololá	719	Santiago Atitlán	14	Cerro de Oro	3	Marzo	2023-03-22T00:00:00	2024-11-08T01:00:00	4	Temperatura máxima	20.4
138579	7	Sololá	719	Santiago Atitlán	14	Cerro de Oro	3	Marzo	2023-03-22T00:00:00	2024-11-08T01:00:00	3	Temperatura mínima	19.6
138580	7	Sololá	719	Santiago Atitlán	14	Cerro de Oro	3	Marzo	2023-03-22T00:00:00	2024-11-08T01:00:00	5	Humedad	68
138581	7	Sololá	719	Santiago Atitlán	14	Cerro de Oro	3	Marzo	2023-03-22T00:00:00	2024-11-08T01:00:00	6	Velocidad del viento	6.4
138582	7	Sololá	719	Santiago Atitlán	14	Cerro de Oro	3	Marzo	2023-03-22T00:00:00	2024-11-08T01:00:00	7	Dirección del viento	6.44
138583	7	Sololá	719	Santiago Atitlán	14	Cerro de Oro	3	Marzo	2023-03-22T00:00:00	2024-11-08T01:00:00	1	Precipitación	0
138584	7	Sololá	719	Santiago Atitlán	14	Cerro de Oro	3	Marzo	2023-03-22T00:00:00	2024-11-08T01:00:00	8	Radiación solar	0
138585	7	Sololá	719	Santiago Atitlán	14	Cerro de Oro	3	Marzo	2023-03-22T00:00:00	2024-11-08T02:00:00	2	Temperatura media	18.8
138586	7	Sololá	719	Santiago Atitlán	14	Cerro de Oro	3	Marzo	2023-03-22T00:00:00	2024-11-08T02:00:00	4	Temperatura máxima	19.6
138587	7	Sololá	719	Santiago Atitlán	14	Cerro de Oro	3	Marzo	2023-03-22T00:00:00	2024-11-08T02:00:00	3	Temperatura mínima	18.8
138588	7	Sololá	719	Santiago Atitlán	14	Cerro de Oro	3	Marzo	2023-03-22T00:00:00	2024-11-08T02:00:00	5	Humedad	68
138589	7	Sololá	719	Santiago Atitlán	14	Cerro de Oro	3	Marzo	2023-03-22T00:00:00	2024-11-08T02:00:00	6	Velocidad del viento	4.8
138590	7	Sololá	719	Santiago Atitlán	14	Cerro de Oro	3	Marzo	2023-03-22T00:00:00	2024-11-08T02:00:00	7	Dirección del viento	4.83
138591	7	Sololá	719	Santiago Atitlán	14	Cerro de Oro	3	Marzo	2023-03-22T00:00:00	2024-11-08T02:00:00	1	Precipitación	0
138592	7	Sololá	719	Santiago Atitlán	14	Cerro de Oro	3	Marzo	2023-03-22T00:00:00	2024-11-08T02:00:00	8	Radiación solar	0
138593	7	Sololá	719	Santiago Atitlán	14	Cerro de Oro	3	Marzo	2023-03-22T00:00:00	2024-11-08T03:00:00	2	Temperatura media	19.2
138594	7	Sololá	719	Santiago Atitlán	14	Cerro de Oro	3	Marzo	2023-03-22T00:00:00	2024-11-08T03:00:00	4	Temperatura máxima	19.3
138595	7	Sololá	719	Santiago Atitlán	14	Cerro de Oro	3	Marzo	2023-03-22T00:00:00	2024-11-08T03:00:00	3	Temperatura mínima	18.5
138596	7	Sololá	719	Santiago Atitlán	14	Cerro de Oro	3	Marzo	2023-03-22T00:00:00	2024-11-08T03:00:00	5	Humedad	66
138597	7	Sololá	719	Santiago Atitlán	14	Cerro de Oro	3	Marzo	2023-03-22T00:00:00	2024-11-08T03:00:00	6	Velocidad del viento	4.8
138598	7	Sololá	719	Santiago Atitlán	14	Cerro de Oro	3	Marzo	2023-03-22T00:00:00	2024-11-08T03:00:00	7	Dirección del viento	4.83
138599	7	Sololá	719	Santiago Atitlán	14	Cerro de Oro	3	Marzo	2023-03-22T00:00:00	2024-11-08T03:00:00	1	Precipitación	0
138600	7	Sololá	719	Santiago Atitlán	14	Cerro de Oro	3	Marzo	2023-03-22T00:00:00	2024-11-08T03:00:00	8	Radiación solar	0
138601	7	Sololá	719	Santiago Atitlán	14	Cerro de Oro	3	Marzo	2023-03-22T00:00:00	2024-11-08T04:00:00	2	Temperatura media	19.1
138602	7	Sololá	719	Santiago Atitlán	14	Cerro de Oro	3	Marzo	2023-03-22T00:00:00	2024-11-08T04:00:00	4	Temperatura máxima	19.2
138603	7	Sololá	719	Santiago Atitlán	14	Cerro de Oro	3	Marzo	2023-03-22T00:00:00	2024-11-08T04:00:00	3	Temperatura mínima	18.8
138604	7	Sololá	719	Santiago Atitlán	14	Cerro de Oro	3	Marzo	2023-03-22T00:00:00	2024-11-08T04:00:00	5	Humedad	72
138605	7	Sololá	719	Santiago Atitlán	14	Cerro de Oro	3	Marzo	2023-03-22T00:00:00	2024-11-08T04:00:00	6	Velocidad del viento	4.8
138606	7	Sololá	719	Santiago Atitlán	14	Cerro de Oro	3	Marzo	2023-03-22T00:00:00	2024-11-08T04:00:00	7	Dirección del viento	4.83
138607	7	Sololá	719	Santiago Atitlán	14	Cerro de Oro	3	Marzo	2023-03-22T00:00:00	2024-11-08T04:00:00	1	Precipitación	0
138608	7	Sololá	719	Santiago Atitlán	14	Cerro de Oro	3	Marzo	2023-03-22T00:00:00	2024-11-08T04:00:00	8	Radiación solar	0
138609	7	Sololá	719	Santiago Atitlán	14	Cerro de Oro	3	Marzo	2023-03-22T00:00:00	2024-11-08T05:00:00	2	Temperatura media	18.6
138610	7	Sololá	719	Santiago Atitlán	14	Cerro de Oro	3	Marzo	2023-03-22T00:00:00	2024-11-08T05:00:00	4	Temperatura máxima	19.1
138611	7	Sololá	719	Santiago Atitlán	14	Cerro de Oro	3	Marzo	2023-03-22T00:00:00	2024-11-08T05:00:00	3	Temperatura mínima	18.5
138612	7	Sololá	719	Santiago Atitlán	14	Cerro de Oro	3	Marzo	2023-03-22T00:00:00	2024-11-08T05:00:00	5	Humedad	74
138613	7	Sololá	719	Santiago Atitlán	14	Cerro de Oro	3	Marzo	2023-03-22T00:00:00	2024-11-08T05:00:00	6	Velocidad del viento	4.8
138614	7	Sololá	719	Santiago Atitlán	14	Cerro de Oro	3	Marzo	2023-03-22T00:00:00	2024-11-08T05:00:00	7	Dirección del viento	4.83
138615	7	Sololá	719	Santiago Atitlán	14	Cerro de Oro	3	Marzo	2023-03-22T00:00:00	2024-11-08T05:00:00	1	Precipitación	0
138616	7	Sololá	719	Santiago Atitlán	14	Cerro de Oro	3	Marzo	2023-03-22T00:00:00	2024-11-08T05:00:00	8	Radiación solar	0
138617	7	Sololá	719	Santiago Atitlán	14	Cerro de Oro	3	Marzo	2023-03-22T00:00:00	2024-11-08T06:00:00	2	Temperatura media	18.3
138618	7	Sololá	719	Santiago Atitlán	14	Cerro de Oro	3	Marzo	2023-03-22T00:00:00	2024-11-08T06:00:00	4	Temperatura máxima	19.1
138619	7	Sololá	719	Santiago Atitlán	14	Cerro de Oro	3	Marzo	2023-03-22T00:00:00	2024-11-08T06:00:00	3	Temperatura mínima	18.2
138620	7	Sololá	719	Santiago Atitlán	14	Cerro de Oro	3	Marzo	2023-03-22T00:00:00	2024-11-08T06:00:00	5	Humedad	74
138621	7	Sololá	719	Santiago Atitlán	14	Cerro de Oro	3	Marzo	2023-03-22T00:00:00	2024-11-08T06:00:00	6	Velocidad del viento	4.8
138622	7	Sololá	719	Santiago Atitlán	14	Cerro de Oro	3	Marzo	2023-03-22T00:00:00	2024-11-08T06:00:00	7	Dirección del viento	4.83
138623	7	Sololá	719	Santiago Atitlán	14	Cerro de Oro	3	Marzo	2023-03-22T00:00:00	2024-11-08T06:00:00	1	Precipitación	0
138624	7	Sololá	719	Santiago Atitlán	14	Cerro de Oro	3	Marzo	2023-03-22T00:00:00	2024-11-08T06:00:00	8	Radiación solar	0
138625	7	Sololá	719	Santiago Atitlán	14	Cerro de Oro	3	Marzo	2023-03-22T00:00:00	2024-11-08T07:00:00	2	Temperatura media	18.6
138626	7	Sololá	719	Santiago Atitlán	14	Cerro de Oro	3	Marzo	2023-03-22T00:00:00	2024-11-08T07:00:00	4	Temperatura máxima	18.6
138627	7	Sololá	719	Santiago Atitlán	14	Cerro de Oro	3	Marzo	2023-03-22T00:00:00	2024-11-08T07:00:00	3	Temperatura mínima	18.2
138628	7	Sololá	719	Santiago Atitlán	14	Cerro de Oro	3	Marzo	2023-03-22T00:00:00	2024-11-08T07:00:00	5	Humedad	73
138629	7	Sololá	719	Santiago Atitlán	14	Cerro de Oro	3	Marzo	2023-03-22T00:00:00	2024-11-08T07:00:00	6	Velocidad del viento	4.8
138630	7	Sololá	719	Santiago Atitlán	14	Cerro de Oro	3	Marzo	2023-03-22T00:00:00	2024-11-08T07:00:00	7	Dirección del viento	4.83
138631	7	Sololá	719	Santiago Atitlán	14	Cerro de Oro	3	Marzo	2023-03-22T00:00:00	2024-11-08T07:00:00	1	Precipitación	0
138632	7	Sololá	719	Santiago Atitlán	14	Cerro de Oro	3	Marzo	2023-03-22T00:00:00	2024-11-08T07:00:00	8	Radiación solar	25
138633	7	Sololá	719	Santiago Atitlán	14	Cerro de Oro	3	Marzo	2023-03-22T00:00:00	2024-11-08T08:00:00	2	Temperatura media	19
138634	7	Sololá	719	Santiago Atitlán	14	Cerro de Oro	3	Marzo	2023-03-22T00:00:00	2024-11-08T08:00:00	4	Temperatura máxima	19
138635	7	Sololá	719	Santiago Atitlán	14	Cerro de Oro	3	Marzo	2023-03-22T00:00:00	2024-11-08T08:00:00	3	Temperatura mínima	18.5
138636	7	Sololá	719	Santiago Atitlán	14	Cerro de Oro	3	Marzo	2023-03-22T00:00:00	2024-11-08T08:00:00	5	Humedad	73
138637	7	Sololá	719	Santiago Atitlán	14	Cerro de Oro	3	Marzo	2023-03-22T00:00:00	2024-11-08T08:00:00	6	Velocidad del viento	3.2
138638	7	Sololá	719	Santiago Atitlán	14	Cerro de Oro	3	Marzo	2023-03-22T00:00:00	2024-11-08T08:00:00	7	Dirección del viento	3.22
138639	7	Sololá	719	Santiago Atitlán	14	Cerro de Oro	3	Marzo	2023-03-22T00:00:00	2024-11-08T08:00:00	1	Precipitación	0
138640	7	Sololá	719	Santiago Atitlán	14	Cerro de Oro	3	Marzo	2023-03-22T00:00:00	2024-11-08T08:00:00	8	Radiación solar	150
138641	7	Sololá	719	Santiago Atitlán	14	Cerro de Oro	3	Marzo	2023-03-22T00:00:00	2024-11-08T09:00:00	2	Temperatura media	20.5
138642	7	Sololá	719	Santiago Atitlán	14	Cerro de Oro	3	Marzo	2023-03-22T00:00:00	2024-11-08T09:00:00	4	Temperatura máxima	20.6
138643	7	Sololá	719	Santiago Atitlán	14	Cerro de Oro	3	Marzo	2023-03-22T00:00:00	2024-11-08T09:00:00	3	Temperatura mínima	19
138644	7	Sololá	719	Santiago Atitlán	14	Cerro de Oro	3	Marzo	2023-03-22T00:00:00	2024-11-08T09:00:00	5	Humedad	69
138645	7	Sololá	719	Santiago Atitlán	14	Cerro de Oro	3	Marzo	2023-03-22T00:00:00	2024-11-08T09:00:00	6	Velocidad del viento	4.8
138646	7	Sololá	719	Santiago Atitlán	14	Cerro de Oro	3	Marzo	2023-03-22T00:00:00	2024-11-08T09:00:00	7	Dirección del viento	4.83
138647	7	Sololá	719	Santiago Atitlán	14	Cerro de Oro	3	Marzo	2023-03-22T00:00:00	2024-11-08T09:00:00	1	Precipitación	0
138648	7	Sololá	719	Santiago Atitlán	14	Cerro de Oro	3	Marzo	2023-03-22T00:00:00	2024-11-08T09:00:00	8	Radiación solar	250
138649	7	Sololá	719	Santiago Atitlán	14	Cerro de Oro	3	Marzo	2023-03-22T00:00:00	2024-11-08T10:00:00	2	Temperatura media	21.6
138650	7	Sololá	719	Santiago Atitlán	14	Cerro de Oro	3	Marzo	2023-03-22T00:00:00	2024-11-08T10:00:00	4	Temperatura máxima	21.8
138651	7	Sololá	719	Santiago Atitlán	14	Cerro de Oro	3	Marzo	2023-03-22T00:00:00	2024-11-08T10:00:00	3	Temperatura mínima	20.3
138652	7	Sololá	719	Santiago Atitlán	14	Cerro de Oro	3	Marzo	2023-03-22T00:00:00	2024-11-08T10:00:00	5	Humedad	67
138653	7	Sololá	719	Santiago Atitlán	14	Cerro de Oro	3	Marzo	2023-03-22T00:00:00	2024-11-08T10:00:00	6	Velocidad del viento	3.2
138654	7	Sololá	719	Santiago Atitlán	14	Cerro de Oro	3	Marzo	2023-03-22T00:00:00	2024-11-08T10:00:00	7	Dirección del viento	3.22
138655	7	Sololá	719	Santiago Atitlán	14	Cerro de Oro	3	Marzo	2023-03-22T00:00:00	2024-11-08T10:00:00	1	Precipitación	0
138656	7	Sololá	719	Santiago Atitlán	14	Cerro de Oro	3	Marzo	2023-03-22T00:00:00	2024-11-08T10:00:00	8	Radiación solar	673
138657	7	Sololá	719	Santiago Atitlán	14	Cerro de Oro	3	Marzo	2023-03-22T00:00:00	2024-11-08T11:00:00	2	Temperatura media	23.4
138658	7	Sololá	719	Santiago Atitlán	14	Cerro de Oro	3	Marzo	2023-03-22T00:00:00	2024-11-08T11:00:00	4	Temperatura máxima	23.7
138659	7	Sololá	719	Santiago Atitlán	14	Cerro de Oro	3	Marzo	2023-03-22T00:00:00	2024-11-08T11:00:00	3	Temperatura mínima	21.6
138660	7	Sololá	719	Santiago Atitlán	14	Cerro de Oro	3	Marzo	2023-03-22T00:00:00	2024-11-08T11:00:00	5	Humedad	57
138661	7	Sololá	719	Santiago Atitlán	14	Cerro de Oro	3	Marzo	2023-03-22T00:00:00	2024-11-08T11:00:00	6	Velocidad del viento	4.8
138662	7	Sololá	719	Santiago Atitlán	14	Cerro de Oro	3	Marzo	2023-03-22T00:00:00	2024-11-08T11:00:00	7	Dirección del viento	4.83
138663	7	Sololá	719	Santiago Atitlán	14	Cerro de Oro	3	Marzo	2023-03-22T00:00:00	2024-11-08T11:00:00	1	Precipitación	0
138664	7	Sololá	719	Santiago Atitlán	14	Cerro de Oro	3	Marzo	2023-03-22T00:00:00	2024-11-08T11:00:00	8	Radiación solar	532
138665	7	Sololá	719	Santiago Atitlán	14	Cerro de Oro	3	Marzo	2023-03-22T00:00:00	2024-11-08T12:00:00	2	Temperatura media	24
138666	7	Sololá	719	Santiago Atitlán	14	Cerro de Oro	3	Marzo	2023-03-22T00:00:00	2024-11-08T12:00:00	4	Temperatura máxima	24
138667	7	Sololá	719	Santiago Atitlán	14	Cerro de Oro	3	Marzo	2023-03-22T00:00:00	2024-11-08T12:00:00	3	Temperatura mínima	22.7
138668	7	Sololá	719	Santiago Atitlán	14	Cerro de Oro	3	Marzo	2023-03-22T00:00:00	2024-11-08T12:00:00	5	Humedad	55
138669	7	Sololá	719	Santiago Atitlán	14	Cerro de Oro	3	Marzo	2023-03-22T00:00:00	2024-11-08T12:00:00	6	Velocidad del viento	9.7
138670	7	Sololá	719	Santiago Atitlán	14	Cerro de Oro	3	Marzo	2023-03-22T00:00:00	2024-11-08T12:00:00	7	Dirección del viento	9.66
138671	7	Sololá	719	Santiago Atitlán	14	Cerro de Oro	3	Marzo	2023-03-22T00:00:00	2024-11-08T12:00:00	1	Precipitación	0
138672	7	Sololá	719	Santiago Atitlán	14	Cerro de Oro	3	Marzo	2023-03-22T00:00:00	2024-11-08T12:00:00	8	Radiación solar	502
138673	7	Sololá	719	Santiago Atitlán	14	Cerro de Oro	3	Marzo	2023-03-22T00:00:00	2024-11-08T13:00:00	2	Temperatura media	24.5
138674	7	Sololá	719	Santiago Atitlán	14	Cerro de Oro	3	Marzo	2023-03-22T00:00:00	2024-11-08T13:00:00	4	Temperatura máxima	24.7
138675	7	Sololá	719	Santiago Atitlán	14	Cerro de Oro	3	Marzo	2023-03-22T00:00:00	2024-11-08T13:00:00	3	Temperatura mínima	23.4
138676	7	Sololá	719	Santiago Atitlán	14	Cerro de Oro	3	Marzo	2023-03-22T00:00:00	2024-11-08T13:00:00	5	Humedad	52
138677	7	Sololá	719	Santiago Atitlán	14	Cerro de Oro	3	Marzo	2023-03-22T00:00:00	2024-11-08T13:00:00	6	Velocidad del viento	4.8
138678	7	Sololá	719	Santiago Atitlán	14	Cerro de Oro	3	Marzo	2023-03-22T00:00:00	2024-11-08T13:00:00	7	Dirección del viento	4.83
138679	7	Sololá	719	Santiago Atitlán	14	Cerro de Oro	3	Marzo	2023-03-22T00:00:00	2024-11-08T13:00:00	1	Precipitación	0
138680	7	Sololá	719	Santiago Atitlán	14	Cerro de Oro	3	Marzo	2023-03-22T00:00:00	2024-11-08T13:00:00	8	Radiación solar	386
138681	7	Sololá	719	Santiago Atitlán	14	Cerro de Oro	3	Marzo	2023-03-22T00:00:00	2024-11-08T14:00:00	2	Temperatura media	23.9
138682	7	Sololá	719	Santiago Atitlán	14	Cerro de Oro	3	Marzo	2023-03-22T00:00:00	2024-11-08T14:00:00	4	Temperatura máxima	24.4
138683	7	Sololá	719	Santiago Atitlán	14	Cerro de Oro	3	Marzo	2023-03-22T00:00:00	2024-11-08T14:00:00	3	Temperatura mínima	23.3
138684	7	Sololá	719	Santiago Atitlán	14	Cerro de Oro	3	Marzo	2023-03-22T00:00:00	2024-11-08T14:00:00	5	Humedad	56
138685	7	Sololá	719	Santiago Atitlán	14	Cerro de Oro	3	Marzo	2023-03-22T00:00:00	2024-11-08T14:00:00	6	Velocidad del viento	20.9
138686	7	Sololá	719	Santiago Atitlán	14	Cerro de Oro	3	Marzo	2023-03-22T00:00:00	2024-11-08T14:00:00	7	Dirección del viento	20.92
138687	7	Sololá	719	Santiago Atitlán	14	Cerro de Oro	3	Marzo	2023-03-22T00:00:00	2024-11-08T14:00:00	1	Precipitación	0
138688	7	Sololá	719	Santiago Atitlán	14	Cerro de Oro	3	Marzo	2023-03-22T00:00:00	2024-11-08T14:00:00	8	Radiación solar	692
138689	7	Sololá	719	Santiago Atitlán	14	Cerro de Oro	3	Marzo	2023-03-22T00:00:00	2024-11-08T15:00:00	2	Temperatura media	25.2
138690	7	Sololá	719	Santiago Atitlán	14	Cerro de Oro	3	Marzo	2023-03-22T00:00:00	2024-11-08T15:00:00	4	Temperatura máxima	25.2
138691	7	Sololá	719	Santiago Atitlán	14	Cerro de Oro	3	Marzo	2023-03-22T00:00:00	2024-11-08T15:00:00	3	Temperatura mínima	23.7
138692	7	Sololá	719	Santiago Atitlán	14	Cerro de Oro	3	Marzo	2023-03-22T00:00:00	2024-11-08T15:00:00	5	Humedad	51
138693	7	Sololá	719	Santiago Atitlán	14	Cerro de Oro	3	Marzo	2023-03-22T00:00:00	2024-11-08T15:00:00	6	Velocidad del viento	17.7
138694	7	Sololá	719	Santiago Atitlán	14	Cerro de Oro	3	Marzo	2023-03-22T00:00:00	2024-11-08T15:00:00	7	Dirección del viento	17.7
138695	7	Sololá	719	Santiago Atitlán	14	Cerro de Oro	3	Marzo	2023-03-22T00:00:00	2024-11-08T15:00:00	1	Precipitación	0
138696	7	Sololá	719	Santiago Atitlán	14	Cerro de Oro	3	Marzo	2023-03-22T00:00:00	2024-11-08T15:00:00	8	Radiación solar	765
138697	7	Sololá	719	Santiago Atitlán	14	Cerro de Oro	3	Marzo	2023-03-22T00:00:00	2024-11-08T16:00:00	2	Temperatura media	25.4
138698	7	Sololá	719	Santiago Atitlán	14	Cerro de Oro	3	Marzo	2023-03-22T00:00:00	2024-11-08T16:00:00	4	Temperatura máxima	25.4
138699	7	Sololá	719	Santiago Atitlán	14	Cerro de Oro	3	Marzo	2023-03-22T00:00:00	2024-11-08T16:00:00	3	Temperatura mínima	24.7
138700	7	Sololá	719	Santiago Atitlán	14	Cerro de Oro	3	Marzo	2023-03-22T00:00:00	2024-11-08T16:00:00	5	Humedad	49
138701	7	Sololá	719	Santiago Atitlán	14	Cerro de Oro	3	Marzo	2023-03-22T00:00:00	2024-11-08T16:00:00	6	Velocidad del viento	16.1
138702	7	Sololá	719	Santiago Atitlán	14	Cerro de Oro	3	Marzo	2023-03-22T00:00:00	2024-11-08T16:00:00	7	Dirección del viento	16.09
138703	7	Sololá	719	Santiago Atitlán	14	Cerro de Oro	3	Marzo	2023-03-22T00:00:00	2024-11-08T16:00:00	1	Precipitación	0
138704	7	Sololá	719	Santiago Atitlán	14	Cerro de Oro	3	Marzo	2023-03-22T00:00:00	2024-11-08T16:00:00	8	Radiación solar	397
138705	7	Sololá	719	Santiago Atitlán	14	Cerro de Oro	3	Marzo	2023-03-22T00:00:00	2024-11-08T17:00:00	2	Temperatura media	24.3
138706	7	Sololá	719	Santiago Atitlán	14	Cerro de Oro	3	Marzo	2023-03-22T00:00:00	2024-11-08T17:00:00	4	Temperatura máxima	25.5
138707	7	Sololá	719	Santiago Atitlán	14	Cerro de Oro	3	Marzo	2023-03-22T00:00:00	2024-11-08T17:00:00	3	Temperatura mínima	24.3
138708	7	Sololá	719	Santiago Atitlán	14	Cerro de Oro	3	Marzo	2023-03-22T00:00:00	2024-11-08T17:00:00	5	Humedad	48
138709	7	Sololá	719	Santiago Atitlán	14	Cerro de Oro	3	Marzo	2023-03-22T00:00:00	2024-11-08T17:00:00	6	Velocidad del viento	14.5
138710	7	Sololá	719	Santiago Atitlán	14	Cerro de Oro	3	Marzo	2023-03-22T00:00:00	2024-11-08T17:00:00	7	Dirección del viento	14.48
138711	7	Sololá	719	Santiago Atitlán	14	Cerro de Oro	3	Marzo	2023-03-22T00:00:00	2024-11-08T17:00:00	1	Precipitación	0
138712	7	Sololá	719	Santiago Atitlán	14	Cerro de Oro	3	Marzo	2023-03-22T00:00:00	2024-11-08T17:00:00	8	Radiación solar	260
138713	7	Sololá	719	Santiago Atitlán	14	Cerro de Oro	3	Marzo	2023-03-22T00:00:00	2024-11-08T18:00:00	2	Temperatura media	23.9
138714	7	Sololá	719	Santiago Atitlán	14	Cerro de Oro	3	Marzo	2023-03-22T00:00:00	2024-11-08T18:00:00	4	Temperatura máxima	24.3
138715	7	Sololá	719	Santiago Atitlán	14	Cerro de Oro	3	Marzo	2023-03-22T00:00:00	2024-11-08T18:00:00	3	Temperatura mínima	22.6
138716	7	Sololá	719	Santiago Atitlán	14	Cerro de Oro	3	Marzo	2023-03-22T00:00:00	2024-11-08T18:00:00	5	Humedad	53
138717	7	Sololá	719	Santiago Atitlán	14	Cerro de Oro	3	Marzo	2023-03-22T00:00:00	2024-11-08T18:00:00	6	Velocidad del viento	12.9
138718	7	Sololá	719	Santiago Atitlán	14	Cerro de Oro	3	Marzo	2023-03-22T00:00:00	2024-11-08T18:00:00	7	Dirección del viento	12.87
138719	7	Sololá	719	Santiago Atitlán	14	Cerro de Oro	3	Marzo	2023-03-22T00:00:00	2024-11-08T18:00:00	1	Precipitación	0
138720	7	Sololá	719	Santiago Atitlán	14	Cerro de Oro	3	Marzo	2023-03-22T00:00:00	2024-11-08T18:00:00	8	Radiación solar	127
138721	7	Sololá	719	Santiago Atitlán	14	Cerro de Oro	3	Marzo	2023-03-22T00:00:00	2024-11-08T19:00:00	2	Temperatura media	22.1
138722	7	Sololá	719	Santiago Atitlán	14	Cerro de Oro	3	Marzo	2023-03-22T00:00:00	2024-11-08T19:00:00	4	Temperatura máxima	23.9
138723	7	Sololá	719	Santiago Atitlán	14	Cerro de Oro	3	Marzo	2023-03-22T00:00:00	2024-11-08T19:00:00	3	Temperatura mínima	22.1
138724	7	Sololá	719	Santiago Atitlán	14	Cerro de Oro	3	Marzo	2023-03-22T00:00:00	2024-11-08T19:00:00	5	Humedad	64
138725	7	Sololá	719	Santiago Atitlán	14	Cerro de Oro	3	Marzo	2023-03-22T00:00:00	2024-11-08T19:00:00	6	Velocidad del viento	9.7
138726	7	Sololá	719	Santiago Atitlán	14	Cerro de Oro	3	Marzo	2023-03-22T00:00:00	2024-11-08T19:00:00	7	Dirección del viento	9.66
138727	7	Sololá	719	Santiago Atitlán	14	Cerro de Oro	3	Marzo	2023-03-22T00:00:00	2024-11-08T19:00:00	1	Precipitación	0
138728	7	Sololá	719	Santiago Atitlán	14	Cerro de Oro	3	Marzo	2023-03-22T00:00:00	2024-11-08T19:00:00	8	Radiación solar	0
138729	7	Sololá	719	Santiago Atitlán	14	Cerro de Oro	3	Marzo	2023-03-22T00:00:00	2024-11-08T20:00:00	2	Temperatura media	21.7
138730	7	Sololá	719	Santiago Atitlán	14	Cerro de Oro	3	Marzo	2023-03-22T00:00:00	2024-11-08T20:00:00	4	Temperatura máxima	22.5
138731	7	Sololá	719	Santiago Atitlán	14	Cerro de Oro	3	Marzo	2023-03-22T00:00:00	2024-11-08T20:00:00	3	Temperatura mínima	21.7
138732	7	Sololá	719	Santiago Atitlán	14	Cerro de Oro	3	Marzo	2023-03-22T00:00:00	2024-11-08T20:00:00	5	Humedad	59
138733	7	Sololá	719	Santiago Atitlán	14	Cerro de Oro	3	Marzo	2023-03-22T00:00:00	2024-11-08T20:00:00	6	Velocidad del viento	16.1
138734	7	Sololá	719	Santiago Atitlán	14	Cerro de Oro	3	Marzo	2023-03-22T00:00:00	2024-11-08T20:00:00	7	Dirección del viento	16.09
138735	7	Sololá	719	Santiago Atitlán	14	Cerro de Oro	3	Marzo	2023-03-22T00:00:00	2024-11-08T20:00:00	1	Precipitación	0
138736	7	Sololá	719	Santiago Atitlán	14	Cerro de Oro	3	Marzo	2023-03-22T00:00:00	2024-11-08T20:00:00	8	Radiación solar	0
138737	7	Sololá	719	Santiago Atitlán	14	Cerro de Oro	3	Marzo	2023-03-22T00:00:00	2024-11-08T21:00:00	2	Temperatura media	20.6
138738	7	Sololá	719	Santiago Atitlán	14	Cerro de Oro	3	Marzo	2023-03-22T00:00:00	2024-11-08T21:00:00	4	Temperatura máxima	21.7
138739	7	Sololá	719	Santiago Atitlán	14	Cerro de Oro	3	Marzo	2023-03-22T00:00:00	2024-11-08T21:00:00	3	Temperatura mínima	20.6
138740	7	Sololá	719	Santiago Atitlán	14	Cerro de Oro	3	Marzo	2023-03-22T00:00:00	2024-11-08T21:00:00	5	Humedad	64
138741	7	Sololá	719	Santiago Atitlán	14	Cerro de Oro	3	Marzo	2023-03-22T00:00:00	2024-11-08T21:00:00	6	Velocidad del viento	12.9
138742	7	Sololá	719	Santiago Atitlán	14	Cerro de Oro	3	Marzo	2023-03-22T00:00:00	2024-11-08T21:00:00	7	Dirección del viento	12.87
138743	7	Sololá	719	Santiago Atitlán	14	Cerro de Oro	3	Marzo	2023-03-22T00:00:00	2024-11-08T21:00:00	1	Precipitación	0
138744	7	Sololá	719	Santiago Atitlán	14	Cerro de Oro	3	Marzo	2023-03-22T00:00:00	2024-11-08T21:00:00	8	Radiación solar	0
138745	7	Sololá	719	Santiago Atitlán	14	Cerro de Oro	3	Marzo	2023-03-22T00:00:00	2024-11-08T22:00:00	2	Temperatura media	19.9
138746	7	Sololá	719	Santiago Atitlán	14	Cerro de Oro	3	Marzo	2023-03-22T00:00:00	2024-11-08T22:00:00	4	Temperatura máxima	20.6
138747	7	Sololá	719	Santiago Atitlán	14	Cerro de Oro	3	Marzo	2023-03-22T00:00:00	2024-11-08T22:00:00	3	Temperatura mínima	19.8
138748	7	Sololá	719	Santiago Atitlán	14	Cerro de Oro	3	Marzo	2023-03-22T00:00:00	2024-11-08T22:00:00	5	Humedad	66
138749	7	Sololá	719	Santiago Atitlán	14	Cerro de Oro	3	Marzo	2023-03-22T00:00:00	2024-11-08T22:00:00	6	Velocidad del viento	12.9
138750	7	Sololá	719	Santiago Atitlán	14	Cerro de Oro	3	Marzo	2023-03-22T00:00:00	2024-11-08T22:00:00	7	Dirección del viento	12.87
138751	7	Sololá	719	Santiago Atitlán	14	Cerro de Oro	3	Marzo	2023-03-22T00:00:00	2024-11-08T22:00:00	1	Precipitación	0
138752	7	Sololá	719	Santiago Atitlán	14	Cerro de Oro	3	Marzo	2023-03-22T00:00:00	2024-11-08T22:00:00	8	Radiación solar	0
138753	7	Sololá	719	Santiago Atitlán	14	Cerro de Oro	3	Marzo	2023-03-22T00:00:00	2024-11-08T23:00:00	2	Temperatura media	19.8
138754	7	Sololá	719	Santiago Atitlán	14	Cerro de Oro	3	Marzo	2023-03-22T00:00:00	2024-11-08T23:00:00	4	Temperatura máxima	19.9
138755	7	Sololá	719	Santiago Atitlán	14	Cerro de Oro	3	Marzo	2023-03-22T00:00:00	2024-11-08T23:00:00	3	Temperatura mínima	19.6
138756	7	Sololá	719	Santiago Atitlán	14	Cerro de Oro	3	Marzo	2023-03-22T00:00:00	2024-11-08T23:00:00	5	Humedad	68
138757	7	Sololá	719	Santiago Atitlán	14	Cerro de Oro	3	Marzo	2023-03-22T00:00:00	2024-11-08T23:00:00	6	Velocidad del viento	9.7
138758	7	Sololá	719	Santiago Atitlán	14	Cerro de Oro	3	Marzo	2023-03-22T00:00:00	2024-11-08T23:00:00	7	Dirección del viento	9.66
138759	7	Sololá	719	Santiago Atitlán	14	Cerro de Oro	3	Marzo	2023-03-22T00:00:00	2024-11-08T23:00:00	1	Precipitación	0
138760	7	Sololá	719	Santiago Atitlán	14	Cerro de Oro	3	Marzo	2023-03-22T00:00:00	2024-11-08T23:00:00	8	Radiación solar	0
138761	7	Sololá	719	Santiago Atitlán	14	Cerro de Oro	3	Marzo	2023-03-23T00:00:00	2024-11-08T00:00:00	2	Temperatura media	19
138762	7	Sololá	719	Santiago Atitlán	14	Cerro de Oro	3	Marzo	2023-03-23T00:00:00	2024-11-08T00:00:00	4	Temperatura máxima	19.9
138763	7	Sololá	719	Santiago Atitlán	14	Cerro de Oro	3	Marzo	2023-03-23T00:00:00	2024-11-08T00:00:00	3	Temperatura mínima	18.9
138764	7	Sololá	719	Santiago Atitlán	14	Cerro de Oro	3	Marzo	2023-03-23T00:00:00	2024-11-08T00:00:00	5	Humedad	68
138765	7	Sololá	719	Santiago Atitlán	14	Cerro de Oro	3	Marzo	2023-03-23T00:00:00	2024-11-08T00:00:00	6	Velocidad del viento	12.9
138766	7	Sololá	719	Santiago Atitlán	14	Cerro de Oro	3	Marzo	2023-03-23T00:00:00	2024-11-08T00:00:00	7	Dirección del viento	12.87
138767	7	Sololá	719	Santiago Atitlán	14	Cerro de Oro	3	Marzo	2023-03-23T00:00:00	2024-11-08T00:00:00	1	Precipitación	0
138768	7	Sololá	719	Santiago Atitlán	14	Cerro de Oro	3	Marzo	2023-03-23T00:00:00	2024-11-08T00:00:00	8	Radiación solar	0
138769	7	Sololá	719	Santiago Atitlán	14	Cerro de Oro	3	Marzo	2023-03-23T00:00:00	2024-11-08T01:00:00	2	Temperatura media	17.6
138770	7	Sololá	719	Santiago Atitlán	14	Cerro de Oro	3	Marzo	2023-03-23T00:00:00	2024-11-08T01:00:00	4	Temperatura máxima	19
138771	7	Sololá	719	Santiago Atitlán	14	Cerro de Oro	3	Marzo	2023-03-23T00:00:00	2024-11-08T01:00:00	3	Temperatura mínima	17.5
138772	7	Sololá	719	Santiago Atitlán	14	Cerro de Oro	3	Marzo	2023-03-23T00:00:00	2024-11-08T01:00:00	5	Humedad	69
138773	7	Sololá	719	Santiago Atitlán	14	Cerro de Oro	3	Marzo	2023-03-23T00:00:00	2024-11-08T01:00:00	6	Velocidad del viento	6.4
138774	7	Sololá	719	Santiago Atitlán	14	Cerro de Oro	3	Marzo	2023-03-23T00:00:00	2024-11-08T01:00:00	7	Dirección del viento	6.44
138775	7	Sololá	719	Santiago Atitlán	14	Cerro de Oro	3	Marzo	2023-03-23T00:00:00	2024-11-08T01:00:00	1	Precipitación	0
138776	7	Sololá	719	Santiago Atitlán	14	Cerro de Oro	3	Marzo	2023-03-23T00:00:00	2024-11-08T01:00:00	8	Radiación solar	0
138777	7	Sololá	719	Santiago Atitlán	14	Cerro de Oro	3	Marzo	2023-03-23T00:00:00	2024-11-08T02:00:00	2	Temperatura media	17.1
138778	7	Sololá	719	Santiago Atitlán	14	Cerro de Oro	3	Marzo	2023-03-23T00:00:00	2024-11-08T02:00:00	4	Temperatura máxima	17.8
138779	7	Sololá	719	Santiago Atitlán	14	Cerro de Oro	3	Marzo	2023-03-23T00:00:00	2024-11-08T02:00:00	3	Temperatura mínima	17.1
138780	7	Sololá	719	Santiago Atitlán	14	Cerro de Oro	3	Marzo	2023-03-23T00:00:00	2024-11-08T02:00:00	5	Humedad	68
138781	7	Sololá	719	Santiago Atitlán	14	Cerro de Oro	3	Marzo	2023-03-23T00:00:00	2024-11-08T02:00:00	6	Velocidad del viento	4.8
138782	7	Sololá	719	Santiago Atitlán	14	Cerro de Oro	3	Marzo	2023-03-23T00:00:00	2024-11-08T02:00:00	7	Dirección del viento	4.83
138783	7	Sololá	719	Santiago Atitlán	14	Cerro de Oro	3	Marzo	2023-03-23T00:00:00	2024-11-08T02:00:00	1	Precipitación	0
138784	7	Sololá	719	Santiago Atitlán	14	Cerro de Oro	3	Marzo	2023-03-23T00:00:00	2024-11-08T02:00:00	8	Radiación solar	0
138785	7	Sololá	719	Santiago Atitlán	14	Cerro de Oro	3	Marzo	2023-03-23T00:00:00	2024-11-08T03:00:00	2	Temperatura media	16.9
138786	7	Sololá	719	Santiago Atitlán	14	Cerro de Oro	3	Marzo	2023-03-23T00:00:00	2024-11-08T03:00:00	4	Temperatura máxima	17.7
138787	7	Sololá	719	Santiago Atitlán	14	Cerro de Oro	3	Marzo	2023-03-23T00:00:00	2024-11-08T03:00:00	3	Temperatura mínima	16.8
138788	7	Sololá	719	Santiago Atitlán	14	Cerro de Oro	3	Marzo	2023-03-23T00:00:00	2024-11-08T03:00:00	5	Humedad	69
138789	7	Sololá	719	Santiago Atitlán	14	Cerro de Oro	3	Marzo	2023-03-23T00:00:00	2024-11-08T03:00:00	6	Velocidad del viento	6.4
138790	7	Sololá	719	Santiago Atitlán	14	Cerro de Oro	3	Marzo	2023-03-23T00:00:00	2024-11-08T03:00:00	7	Dirección del viento	6.44
138791	7	Sololá	719	Santiago Atitlán	14	Cerro de Oro	3	Marzo	2023-03-23T00:00:00	2024-11-08T03:00:00	1	Precipitación	0
138792	7	Sololá	719	Santiago Atitlán	14	Cerro de Oro	3	Marzo	2023-03-23T00:00:00	2024-11-08T03:00:00	8	Radiación solar	0
138793	7	Sololá	719	Santiago Atitlán	14	Cerro de Oro	3	Marzo	2023-03-23T00:00:00	2024-11-08T04:00:00	2	Temperatura media	16.9
138794	7	Sololá	719	Santiago Atitlán	14	Cerro de Oro	3	Marzo	2023-03-23T00:00:00	2024-11-08T04:00:00	4	Temperatura máxima	17
138795	7	Sololá	719	Santiago Atitlán	14	Cerro de Oro	3	Marzo	2023-03-23T00:00:00	2024-11-08T04:00:00	3	Temperatura mínima	16.6
138796	7	Sololá	719	Santiago Atitlán	14	Cerro de Oro	3	Marzo	2023-03-23T00:00:00	2024-11-08T04:00:00	5	Humedad	71
138797	7	Sololá	719	Santiago Atitlán	14	Cerro de Oro	3	Marzo	2023-03-23T00:00:00	2024-11-08T04:00:00	6	Velocidad del viento	6.4
138798	7	Sololá	719	Santiago Atitlán	14	Cerro de Oro	3	Marzo	2023-03-23T00:00:00	2024-11-08T04:00:00	7	Dirección del viento	6.44
138799	7	Sololá	719	Santiago Atitlán	14	Cerro de Oro	3	Marzo	2023-03-23T00:00:00	2024-11-08T04:00:00	1	Precipitación	0
138800	7	Sololá	719	Santiago Atitlán	14	Cerro de Oro	3	Marzo	2023-03-23T00:00:00	2024-11-08T04:00:00	8	Radiación solar	0
138801	7	Sololá	719	Santiago Atitlán	14	Cerro de Oro	3	Marzo	2023-03-23T00:00:00	2024-11-08T05:00:00	2	Temperatura media	17.5
138802	7	Sololá	719	Santiago Atitlán	14	Cerro de Oro	3	Marzo	2023-03-23T00:00:00	2024-11-08T05:00:00	4	Temperatura máxima	17.9
138803	7	Sololá	719	Santiago Atitlán	14	Cerro de Oro	3	Marzo	2023-03-23T00:00:00	2024-11-08T05:00:00	3	Temperatura mínima	16.4
138804	7	Sololá	719	Santiago Atitlán	14	Cerro de Oro	3	Marzo	2023-03-23T00:00:00	2024-11-08T05:00:00	5	Humedad	71
138805	7	Sololá	719	Santiago Atitlán	14	Cerro de Oro	3	Marzo	2023-03-23T00:00:00	2024-11-08T05:00:00	6	Velocidad del viento	8
138806	7	Sololá	719	Santiago Atitlán	14	Cerro de Oro	3	Marzo	2023-03-23T00:00:00	2024-11-08T05:00:00	7	Dirección del viento	8.05
138807	7	Sololá	719	Santiago Atitlán	14	Cerro de Oro	3	Marzo	2023-03-23T00:00:00	2024-11-08T05:00:00	1	Precipitación	0
138808	7	Sololá	719	Santiago Atitlán	14	Cerro de Oro	3	Marzo	2023-03-23T00:00:00	2024-11-08T05:00:00	8	Radiación solar	0
138809	7	Sololá	719	Santiago Atitlán	14	Cerro de Oro	3	Marzo	2023-03-23T00:00:00	2024-11-08T06:00:00	2	Temperatura media	16.3
138810	7	Sololá	719	Santiago Atitlán	14	Cerro de Oro	3	Marzo	2023-03-23T00:00:00	2024-11-08T06:00:00	4	Temperatura máxima	17.5
138811	7	Sololá	719	Santiago Atitlán	14	Cerro de Oro	3	Marzo	2023-03-23T00:00:00	2024-11-08T06:00:00	3	Temperatura mínima	15.9
138812	7	Sololá	719	Santiago Atitlán	14	Cerro de Oro	3	Marzo	2023-03-23T00:00:00	2024-11-08T06:00:00	5	Humedad	73
138813	7	Sololá	719	Santiago Atitlán	14	Cerro de Oro	3	Marzo	2023-03-23T00:00:00	2024-11-08T06:00:00	6	Velocidad del viento	6.4
138814	7	Sololá	719	Santiago Atitlán	14	Cerro de Oro	3	Marzo	2023-03-23T00:00:00	2024-11-08T06:00:00	7	Dirección del viento	6.44
138815	7	Sololá	719	Santiago Atitlán	14	Cerro de Oro	3	Marzo	2023-03-23T00:00:00	2024-11-08T06:00:00	1	Precipitación	0
138816	7	Sololá	719	Santiago Atitlán	14	Cerro de Oro	3	Marzo	2023-03-23T00:00:00	2024-11-08T06:00:00	8	Radiación solar	0
138817	7	Sololá	719	Santiago Atitlán	14	Cerro de Oro	3	Marzo	2023-03-23T00:00:00	2024-11-08T07:00:00	2	Temperatura media	16.8
138818	7	Sololá	719	Santiago Atitlán	14	Cerro de Oro	3	Marzo	2023-03-23T00:00:00	2024-11-08T07:00:00	4	Temperatura máxima	16.8
138819	7	Sololá	719	Santiago Atitlán	14	Cerro de Oro	3	Marzo	2023-03-23T00:00:00	2024-11-08T07:00:00	3	Temperatura mínima	16.3
138820	7	Sololá	719	Santiago Atitlán	14	Cerro de Oro	3	Marzo	2023-03-23T00:00:00	2024-11-08T07:00:00	5	Humedad	71
138821	7	Sololá	719	Santiago Atitlán	14	Cerro de Oro	3	Marzo	2023-03-23T00:00:00	2024-11-08T07:00:00	6	Velocidad del viento	4.8
138822	7	Sololá	719	Santiago Atitlán	14	Cerro de Oro	3	Marzo	2023-03-23T00:00:00	2024-11-08T07:00:00	7	Dirección del viento	4.83
138823	7	Sololá	719	Santiago Atitlán	14	Cerro de Oro	3	Marzo	2023-03-23T00:00:00	2024-11-08T07:00:00	1	Precipitación	0
138824	7	Sololá	719	Santiago Atitlán	14	Cerro de Oro	3	Marzo	2023-03-23T00:00:00	2024-11-08T07:00:00	8	Radiación solar	37
138825	7	Sololá	719	Santiago Atitlán	14	Cerro de Oro	3	Marzo	2023-03-23T00:00:00	2024-11-08T08:00:00	2	Temperatura media	18.7
138826	7	Sololá	719	Santiago Atitlán	14	Cerro de Oro	3	Marzo	2023-03-23T00:00:00	2024-11-08T08:00:00	4	Temperatura máxima	18.7
138827	7	Sololá	719	Santiago Atitlán	14	Cerro de Oro	3	Marzo	2023-03-23T00:00:00	2024-11-08T08:00:00	3	Temperatura mínima	16.6
138828	7	Sololá	719	Santiago Atitlán	14	Cerro de Oro	3	Marzo	2023-03-23T00:00:00	2024-11-08T08:00:00	5	Humedad	67
138829	7	Sololá	719	Santiago Atitlán	14	Cerro de Oro	3	Marzo	2023-03-23T00:00:00	2024-11-08T08:00:00	6	Velocidad del viento	4.8
138830	7	Sololá	719	Santiago Atitlán	14	Cerro de Oro	3	Marzo	2023-03-23T00:00:00	2024-11-08T08:00:00	7	Dirección del viento	4.83
138831	7	Sololá	719	Santiago Atitlán	14	Cerro de Oro	3	Marzo	2023-03-23T00:00:00	2024-11-08T08:00:00	1	Precipitación	0
138832	7	Sololá	719	Santiago Atitlán	14	Cerro de Oro	3	Marzo	2023-03-23T00:00:00	2024-11-08T08:00:00	8	Radiación solar	198
138833	7	Sololá	719	Santiago Atitlán	14	Cerro de Oro	3	Marzo	2023-03-23T00:00:00	2024-11-08T09:00:00	2	Temperatura media	20.6
138834	7	Sololá	719	Santiago Atitlán	14	Cerro de Oro	3	Marzo	2023-03-23T00:00:00	2024-11-08T09:00:00	4	Temperatura máxima	20.7
138835	7	Sololá	719	Santiago Atitlán	14	Cerro de Oro	3	Marzo	2023-03-23T00:00:00	2024-11-08T09:00:00	3	Temperatura mínima	18.8
138836	7	Sololá	719	Santiago Atitlán	14	Cerro de Oro	3	Marzo	2023-03-23T00:00:00	2024-11-08T09:00:00	5	Humedad	62
138837	7	Sololá	719	Santiago Atitlán	14	Cerro de Oro	3	Marzo	2023-03-23T00:00:00	2024-11-08T09:00:00	6	Velocidad del viento	6.4
138838	7	Sololá	719	Santiago Atitlán	14	Cerro de Oro	3	Marzo	2023-03-23T00:00:00	2024-11-08T09:00:00	7	Dirección del viento	6.44
138839	7	Sololá	719	Santiago Atitlán	14	Cerro de Oro	3	Marzo	2023-03-23T00:00:00	2024-11-08T09:00:00	1	Precipitación	0
138840	7	Sololá	719	Santiago Atitlán	14	Cerro de Oro	3	Marzo	2023-03-23T00:00:00	2024-11-08T09:00:00	8	Radiación solar	389
138841	7	Sololá	719	Santiago Atitlán	14	Cerro de Oro	3	Marzo	2023-03-23T00:00:00	2024-11-08T10:00:00	2	Temperatura media	22.2
138842	7	Sololá	719	Santiago Atitlán	14	Cerro de Oro	3	Marzo	2023-03-23T00:00:00	2024-11-08T10:00:00	4	Temperatura máxima	22.2
138843	7	Sololá	719	Santiago Atitlán	14	Cerro de Oro	3	Marzo	2023-03-23T00:00:00	2024-11-08T10:00:00	3	Temperatura mínima	20.6
138844	7	Sololá	719	Santiago Atitlán	14	Cerro de Oro	3	Marzo	2023-03-23T00:00:00	2024-11-08T10:00:00	5	Humedad	59
138845	7	Sololá	719	Santiago Atitlán	14	Cerro de Oro	3	Marzo	2023-03-23T00:00:00	2024-11-08T10:00:00	6	Velocidad del viento	8
138846	7	Sololá	719	Santiago Atitlán	14	Cerro de Oro	3	Marzo	2023-03-23T00:00:00	2024-11-08T10:00:00	7	Dirección del viento	8.05
138847	7	Sololá	719	Santiago Atitlán	14	Cerro de Oro	3	Marzo	2023-03-23T00:00:00	2024-11-08T10:00:00	1	Precipitación	0
138848	7	Sololá	719	Santiago Atitlán	14	Cerro de Oro	3	Marzo	2023-03-23T00:00:00	2024-11-08T10:00:00	8	Radiación solar	704
138849	7	Sololá	719	Santiago Atitlán	14	Cerro de Oro	3	Marzo	2023-03-23T00:00:00	2024-11-08T11:00:00	2	Temperatura media	22.7
138850	7	Sololá	719	Santiago Atitlán	14	Cerro de Oro	3	Marzo	2023-03-23T00:00:00	2024-11-08T11:00:00	4	Temperatura máxima	23.1
138851	7	Sololá	719	Santiago Atitlán	14	Cerro de Oro	3	Marzo	2023-03-23T00:00:00	2024-11-08T11:00:00	3	Temperatura mínima	22.2
138852	7	Sololá	719	Santiago Atitlán	14	Cerro de Oro	3	Marzo	2023-03-23T00:00:00	2024-11-08T11:00:00	5	Humedad	56
138853	7	Sololá	719	Santiago Atitlán	14	Cerro de Oro	3	Marzo	2023-03-23T00:00:00	2024-11-08T11:00:00	6	Velocidad del viento	12.9
138854	7	Sololá	719	Santiago Atitlán	14	Cerro de Oro	3	Marzo	2023-03-23T00:00:00	2024-11-08T11:00:00	7	Dirección del viento	12.87
138855	7	Sololá	719	Santiago Atitlán	14	Cerro de Oro	3	Marzo	2023-03-23T00:00:00	2024-11-08T11:00:00	1	Precipitación	0
138856	7	Sololá	719	Santiago Atitlán	14	Cerro de Oro	3	Marzo	2023-03-23T00:00:00	2024-11-08T11:00:00	8	Radiación solar	872
138857	7	Sololá	719	Santiago Atitlán	14	Cerro de Oro	3	Marzo	2023-03-23T00:00:00	2024-11-08T12:00:00	2	Temperatura media	24
138858	7	Sololá	719	Santiago Atitlán	14	Cerro de Oro	3	Marzo	2023-03-23T00:00:00	2024-11-08T12:00:00	4	Temperatura máxima	24
138859	7	Sololá	719	Santiago Atitlán	14	Cerro de Oro	3	Marzo	2023-03-23T00:00:00	2024-11-08T12:00:00	3	Temperatura mínima	22.7
138860	7	Sololá	719	Santiago Atitlán	14	Cerro de Oro	3	Marzo	2023-03-23T00:00:00	2024-11-08T12:00:00	5	Humedad	52
138861	7	Sololá	719	Santiago Atitlán	14	Cerro de Oro	3	Marzo	2023-03-23T00:00:00	2024-11-08T12:00:00	6	Velocidad del viento	12.9
138862	7	Sololá	719	Santiago Atitlán	14	Cerro de Oro	3	Marzo	2023-03-23T00:00:00	2024-11-08T12:00:00	7	Dirección del viento	12.87
138863	7	Sololá	719	Santiago Atitlán	14	Cerro de Oro	3	Marzo	2023-03-23T00:00:00	2024-11-08T12:00:00	1	Precipitación	0
138864	7	Sololá	719	Santiago Atitlán	14	Cerro de Oro	3	Marzo	2023-03-23T00:00:00	2024-11-08T12:00:00	8	Radiación solar	979
138865	7	Sololá	719	Santiago Atitlán	14	Cerro de Oro	3	Marzo	2023-03-23T00:00:00	2024-11-08T13:00:00	2	Temperatura media	24.8
138866	7	Sololá	719	Santiago Atitlán	14	Cerro de Oro	3	Marzo	2023-03-23T00:00:00	2024-11-08T13:00:00	4	Temperatura máxima	24.9
138867	7	Sololá	719	Santiago Atitlán	14	Cerro de Oro	3	Marzo	2023-03-23T00:00:00	2024-11-08T13:00:00	3	Temperatura mínima	23.3
138868	7	Sololá	719	Santiago Atitlán	14	Cerro de Oro	3	Marzo	2023-03-23T00:00:00	2024-11-08T13:00:00	5	Humedad	47
138869	7	Sololá	719	Santiago Atitlán	14	Cerro de Oro	3	Marzo	2023-03-23T00:00:00	2024-11-08T13:00:00	6	Velocidad del viento	16.1
138870	7	Sololá	719	Santiago Atitlán	14	Cerro de Oro	3	Marzo	2023-03-23T00:00:00	2024-11-08T13:00:00	7	Dirección del viento	16.09
138871	7	Sololá	719	Santiago Atitlán	14	Cerro de Oro	3	Marzo	2023-03-23T00:00:00	2024-11-08T13:00:00	1	Precipitación	0
138872	7	Sololá	719	Santiago Atitlán	14	Cerro de Oro	3	Marzo	2023-03-23T00:00:00	2024-11-08T13:00:00	8	Radiación solar	961
138873	7	Sololá	719	Santiago Atitlán	14	Cerro de Oro	3	Marzo	2023-03-23T00:00:00	2024-11-08T14:00:00	2	Temperatura media	24.7
138874	7	Sololá	719	Santiago Atitlán	14	Cerro de Oro	3	Marzo	2023-03-23T00:00:00	2024-11-08T14:00:00	4	Temperatura máxima	25.2
138875	7	Sololá	719	Santiago Atitlán	14	Cerro de Oro	3	Marzo	2023-03-23T00:00:00	2024-11-08T14:00:00	3	Temperatura mínima	24.7
138876	7	Sololá	719	Santiago Atitlán	14	Cerro de Oro	3	Marzo	2023-03-23T00:00:00	2024-11-08T14:00:00	5	Humedad	60
138877	7	Sololá	719	Santiago Atitlán	14	Cerro de Oro	3	Marzo	2023-03-23T00:00:00	2024-11-08T14:00:00	6	Velocidad del viento	12.9
138878	7	Sololá	719	Santiago Atitlán	14	Cerro de Oro	3	Marzo	2023-03-23T00:00:00	2024-11-08T14:00:00	7	Dirección del viento	12.87
138879	7	Sololá	719	Santiago Atitlán	14	Cerro de Oro	3	Marzo	2023-03-23T00:00:00	2024-11-08T14:00:00	1	Precipitación	0
138880	7	Sololá	719	Santiago Atitlán	14	Cerro de Oro	3	Marzo	2023-03-23T00:00:00	2024-11-08T14:00:00	8	Radiación solar	942
138881	7	Sololá	719	Santiago Atitlán	14	Cerro de Oro	3	Marzo	2023-03-23T00:00:00	2024-11-08T15:00:00	2	Temperatura media	25.4
138882	7	Sololá	719	Santiago Atitlán	14	Cerro de Oro	3	Marzo	2023-03-23T00:00:00	2024-11-08T15:00:00	4	Temperatura máxima	25.5
138883	7	Sololá	719	Santiago Atitlán	14	Cerro de Oro	3	Marzo	2023-03-23T00:00:00	2024-11-08T15:00:00	3	Temperatura mínima	24.3
138884	7	Sololá	719	Santiago Atitlán	14	Cerro de Oro	3	Marzo	2023-03-23T00:00:00	2024-11-08T15:00:00	5	Humedad	57
138885	7	Sololá	719	Santiago Atitlán	14	Cerro de Oro	3	Marzo	2023-03-23T00:00:00	2024-11-08T15:00:00	6	Velocidad del viento	12.9
138886	7	Sololá	719	Santiago Atitlán	14	Cerro de Oro	3	Marzo	2023-03-23T00:00:00	2024-11-08T15:00:00	7	Dirección del viento	12.87
138887	7	Sololá	719	Santiago Atitlán	14	Cerro de Oro	3	Marzo	2023-03-23T00:00:00	2024-11-08T15:00:00	1	Precipitación	0
138888	7	Sololá	719	Santiago Atitlán	14	Cerro de Oro	3	Marzo	2023-03-23T00:00:00	2024-11-08T15:00:00	8	Radiación solar	548
138889	7	Sololá	719	Santiago Atitlán	14	Cerro de Oro	3	Marzo	2023-03-23T00:00:00	2024-11-08T16:00:00	2	Temperatura media	24.4
138890	7	Sololá	719	Santiago Atitlán	14	Cerro de Oro	3	Marzo	2023-03-23T00:00:00	2024-11-08T16:00:00	4	Temperatura máxima	25.4
138891	7	Sololá	719	Santiago Atitlán	14	Cerro de Oro	3	Marzo	2023-03-23T00:00:00	2024-11-08T16:00:00	3	Temperatura mínima	24
138892	7	Sololá	719	Santiago Atitlán	14	Cerro de Oro	3	Marzo	2023-03-23T00:00:00	2024-11-08T16:00:00	5	Humedad	62
138893	7	Sololá	719	Santiago Atitlán	14	Cerro de Oro	3	Marzo	2023-03-23T00:00:00	2024-11-08T16:00:00	6	Velocidad del viento	14.5
138894	7	Sololá	719	Santiago Atitlán	14	Cerro de Oro	3	Marzo	2023-03-23T00:00:00	2024-11-08T16:00:00	7	Dirección del viento	14.48
138895	7	Sololá	719	Santiago Atitlán	14	Cerro de Oro	3	Marzo	2023-03-23T00:00:00	2024-11-08T16:00:00	1	Precipitación	0
138896	7	Sololá	719	Santiago Atitlán	14	Cerro de Oro	3	Marzo	2023-03-23T00:00:00	2024-11-08T16:00:00	8	Radiación solar	427
138897	7	Sololá	719	Santiago Atitlán	14	Cerro de Oro	3	Marzo	2023-03-23T00:00:00	2024-11-08T17:00:00	2	Temperatura media	23.5
138898	7	Sololá	719	Santiago Atitlán	14	Cerro de Oro	3	Marzo	2023-03-23T00:00:00	2024-11-08T17:00:00	4	Temperatura máxima	24.6
138899	7	Sololá	719	Santiago Atitlán	14	Cerro de Oro	3	Marzo	2023-03-23T00:00:00	2024-11-08T17:00:00	3	Temperatura mínima	23
138900	7	Sololá	719	Santiago Atitlán	14	Cerro de Oro	3	Marzo	2023-03-23T00:00:00	2024-11-08T17:00:00	5	Humedad	67
138901	7	Sololá	719	Santiago Atitlán	14	Cerro de Oro	3	Marzo	2023-03-23T00:00:00	2024-11-08T17:00:00	6	Velocidad del viento	12.9
138902	7	Sololá	719	Santiago Atitlán	14	Cerro de Oro	3	Marzo	2023-03-23T00:00:00	2024-11-08T17:00:00	7	Dirección del viento	12.87
138903	7	Sololá	719	Santiago Atitlán	14	Cerro de Oro	3	Marzo	2023-03-23T00:00:00	2024-11-08T17:00:00	1	Precipitación	0
138904	7	Sololá	719	Santiago Atitlán	14	Cerro de Oro	3	Marzo	2023-03-23T00:00:00	2024-11-08T17:00:00	8	Radiación solar	172
138905	7	Sololá	719	Santiago Atitlán	14	Cerro de Oro	3	Marzo	2023-03-23T00:00:00	2024-11-08T18:00:00	2	Temperatura media	22.2
138906	7	Sololá	719	Santiago Atitlán	14	Cerro de Oro	3	Marzo	2023-03-23T00:00:00	2024-11-08T18:00:00	4	Temperatura máxima	23.6
138907	7	Sololá	719	Santiago Atitlán	14	Cerro de Oro	3	Marzo	2023-03-23T00:00:00	2024-11-08T18:00:00	3	Temperatura mínima	22.1
138908	7	Sololá	719	Santiago Atitlán	14	Cerro de Oro	3	Marzo	2023-03-23T00:00:00	2024-11-08T18:00:00	5	Humedad	69
138909	7	Sololá	719	Santiago Atitlán	14	Cerro de Oro	3	Marzo	2023-03-23T00:00:00	2024-11-08T18:00:00	6	Velocidad del viento	12.9
138910	7	Sololá	719	Santiago Atitlán	14	Cerro de Oro	3	Marzo	2023-03-23T00:00:00	2024-11-08T18:00:00	7	Dirección del viento	12.87
138911	7	Sololá	719	Santiago Atitlán	14	Cerro de Oro	3	Marzo	2023-03-23T00:00:00	2024-11-08T18:00:00	1	Precipitación	0
138912	7	Sololá	719	Santiago Atitlán	14	Cerro de Oro	3	Marzo	2023-03-23T00:00:00	2024-11-08T18:00:00	8	Radiación solar	75
138913	7	Sololá	719	Santiago Atitlán	14	Cerro de Oro	3	Marzo	2023-03-23T00:00:00	2024-11-08T19:00:00	2	Temperatura media	21.1
138914	7	Sololá	719	Santiago Atitlán	14	Cerro de Oro	3	Marzo	2023-03-23T00:00:00	2024-11-08T19:00:00	4	Temperatura máxima	22.4
138915	7	Sololá	719	Santiago Atitlán	14	Cerro de Oro	3	Marzo	2023-03-23T00:00:00	2024-11-08T19:00:00	3	Temperatura mínima	21
138916	7	Sololá	719	Santiago Atitlán	14	Cerro de Oro	3	Marzo	2023-03-23T00:00:00	2024-11-08T19:00:00	5	Humedad	73
138917	7	Sololá	719	Santiago Atitlán	14	Cerro de Oro	3	Marzo	2023-03-23T00:00:00	2024-11-08T19:00:00	6	Velocidad del viento	9.7
138918	7	Sololá	719	Santiago Atitlán	14	Cerro de Oro	3	Marzo	2023-03-23T00:00:00	2024-11-08T19:00:00	7	Dirección del viento	9.66
138919	7	Sololá	719	Santiago Atitlán	14	Cerro de Oro	3	Marzo	2023-03-23T00:00:00	2024-11-08T19:00:00	1	Precipitación	0
138920	7	Sololá	719	Santiago Atitlán	14	Cerro de Oro	3	Marzo	2023-03-23T00:00:00	2024-11-08T19:00:00	8	Radiación solar	0
138921	7	Sololá	719	Santiago Atitlán	14	Cerro de Oro	3	Marzo	2023-03-23T00:00:00	2024-11-08T20:00:00	2	Temperatura media	21.2
138922	7	Sololá	719	Santiago Atitlán	14	Cerro de Oro	3	Marzo	2023-03-23T00:00:00	2024-11-08T20:00:00	4	Temperatura máxima	21.8
138923	7	Sololá	719	Santiago Atitlán	14	Cerro de Oro	3	Marzo	2023-03-23T00:00:00	2024-11-08T20:00:00	3	Temperatura mínima	21.1
138924	7	Sololá	719	Santiago Atitlán	14	Cerro de Oro	3	Marzo	2023-03-23T00:00:00	2024-11-08T20:00:00	5	Humedad	64
138925	7	Sololá	719	Santiago Atitlán	14	Cerro de Oro	3	Marzo	2023-03-23T00:00:00	2024-11-08T20:00:00	6	Velocidad del viento	6.4
138926	7	Sololá	719	Santiago Atitlán	14	Cerro de Oro	3	Marzo	2023-03-23T00:00:00	2024-11-08T20:00:00	7	Dirección del viento	6.44
138927	7	Sololá	719	Santiago Atitlán	14	Cerro de Oro	3	Marzo	2023-03-23T00:00:00	2024-11-08T20:00:00	1	Precipitación	0
138928	7	Sololá	719	Santiago Atitlán	14	Cerro de Oro	3	Marzo	2023-03-23T00:00:00	2024-11-08T20:00:00	8	Radiación solar	0
138929	7	Sololá	719	Santiago Atitlán	14	Cerro de Oro	3	Marzo	2023-03-23T00:00:00	2024-11-08T21:00:00	2	Temperatura media	20.7
138930	7	Sololá	719	Santiago Atitlán	14	Cerro de Oro	3	Marzo	2023-03-23T00:00:00	2024-11-08T21:00:00	4	Temperatura máxima	21.2
138931	7	Sololá	719	Santiago Atitlán	14	Cerro de Oro	3	Marzo	2023-03-23T00:00:00	2024-11-08T21:00:00	3	Temperatura mínima	20.7
138932	7	Sololá	719	Santiago Atitlán	14	Cerro de Oro	3	Marzo	2023-03-23T00:00:00	2024-11-08T21:00:00	5	Humedad	63
138933	7	Sololá	719	Santiago Atitlán	14	Cerro de Oro	3	Marzo	2023-03-23T00:00:00	2024-11-08T21:00:00	6	Velocidad del viento	8
138934	7	Sololá	719	Santiago Atitlán	14	Cerro de Oro	3	Marzo	2023-03-23T00:00:00	2024-11-08T21:00:00	7	Dirección del viento	8.05
138935	7	Sololá	719	Santiago Atitlán	14	Cerro de Oro	3	Marzo	2023-03-23T00:00:00	2024-11-08T21:00:00	1	Precipitación	0
138936	7	Sololá	719	Santiago Atitlán	14	Cerro de Oro	3	Marzo	2023-03-23T00:00:00	2024-11-08T21:00:00	8	Radiación solar	0
138937	7	Sololá	719	Santiago Atitlán	14	Cerro de Oro	3	Marzo	2023-03-23T00:00:00	2024-11-08T22:00:00	2	Temperatura media	20.2
138938	7	Sololá	719	Santiago Atitlán	14	Cerro de Oro	3	Marzo	2023-03-23T00:00:00	2024-11-08T22:00:00	4	Temperatura máxima	20.7
138939	7	Sololá	719	Santiago Atitlán	14	Cerro de Oro	3	Marzo	2023-03-23T00:00:00	2024-11-08T22:00:00	3	Temperatura mínima	20.2
138940	7	Sololá	719	Santiago Atitlán	14	Cerro de Oro	3	Marzo	2023-03-23T00:00:00	2024-11-08T22:00:00	5	Humedad	65
138941	7	Sololá	719	Santiago Atitlán	14	Cerro de Oro	3	Marzo	2023-03-23T00:00:00	2024-11-08T22:00:00	6	Velocidad del viento	9.7
138942	7	Sololá	719	Santiago Atitlán	14	Cerro de Oro	3	Marzo	2023-03-23T00:00:00	2024-11-08T22:00:00	7	Dirección del viento	9.66
138943	7	Sololá	719	Santiago Atitlán	14	Cerro de Oro	3	Marzo	2023-03-23T00:00:00	2024-11-08T22:00:00	1	Precipitación	0
138944	7	Sololá	719	Santiago Atitlán	14	Cerro de Oro	3	Marzo	2023-03-23T00:00:00	2024-11-08T22:00:00	8	Radiación solar	0
138945	7	Sololá	719	Santiago Atitlán	14	Cerro de Oro	3	Marzo	2023-03-23T00:00:00	2024-11-08T23:00:00	2	Temperatura media	19.7
138946	7	Sololá	719	Santiago Atitlán	14	Cerro de Oro	3	Marzo	2023-03-23T00:00:00	2024-11-08T23:00:00	4	Temperatura máxima	20.2
138947	7	Sololá	719	Santiago Atitlán	14	Cerro de Oro	3	Marzo	2023-03-23T00:00:00	2024-11-08T23:00:00	3	Temperatura mínima	19.6
138948	7	Sololá	719	Santiago Atitlán	14	Cerro de Oro	3	Marzo	2023-03-23T00:00:00	2024-11-08T23:00:00	5	Humedad	66
138949	7	Sololá	719	Santiago Atitlán	14	Cerro de Oro	3	Marzo	2023-03-23T00:00:00	2024-11-08T23:00:00	6	Velocidad del viento	9.7
138950	7	Sololá	719	Santiago Atitlán	14	Cerro de Oro	3	Marzo	2023-03-23T00:00:00	2024-11-08T23:00:00	7	Dirección del viento	9.66
138951	7	Sololá	719	Santiago Atitlán	14	Cerro de Oro	3	Marzo	2023-03-23T00:00:00	2024-11-08T23:00:00	1	Precipitación	0
138952	7	Sololá	719	Santiago Atitlán	14	Cerro de Oro	3	Marzo	2023-03-23T00:00:00	2024-11-08T23:00:00	8	Radiación solar	0
138953	7	Sololá	719	Santiago Atitlán	14	Cerro de Oro	3	Marzo	2023-03-24T00:00:00	2024-11-08T00:00:00	2	Temperatura media	19.3
138954	7	Sololá	719	Santiago Atitlán	14	Cerro de Oro	3	Marzo	2023-03-24T00:00:00	2024-11-08T00:00:00	4	Temperatura máxima	19.7
138955	7	Sololá	719	Santiago Atitlán	14	Cerro de Oro	3	Marzo	2023-03-24T00:00:00	2024-11-08T00:00:00	3	Temperatura mínima	19.3
138956	7	Sololá	719	Santiago Atitlán	14	Cerro de Oro	3	Marzo	2023-03-24T00:00:00	2024-11-08T00:00:00	5	Humedad	64
138957	7	Sololá	719	Santiago Atitlán	14	Cerro de Oro	3	Marzo	2023-03-24T00:00:00	2024-11-08T00:00:00	6	Velocidad del viento	11.3
138958	7	Sololá	719	Santiago Atitlán	14	Cerro de Oro	3	Marzo	2023-03-24T00:00:00	2024-11-08T00:00:00	7	Dirección del viento	11.27
138959	7	Sololá	719	Santiago Atitlán	14	Cerro de Oro	3	Marzo	2023-03-24T00:00:00	2024-11-08T00:00:00	1	Precipitación	0
138960	7	Sololá	719	Santiago Atitlán	14	Cerro de Oro	3	Marzo	2023-03-24T00:00:00	2024-11-08T00:00:00	8	Radiación solar	0
138961	7	Sololá	719	Santiago Atitlán	14	Cerro de Oro	3	Marzo	2023-03-24T00:00:00	2024-11-08T01:00:00	2	Temperatura media	17.7
138962	7	Sololá	719	Santiago Atitlán	14	Cerro de Oro	3	Marzo	2023-03-24T00:00:00	2024-11-08T01:00:00	4	Temperatura máxima	19.6
138963	7	Sololá	719	Santiago Atitlán	14	Cerro de Oro	3	Marzo	2023-03-24T00:00:00	2024-11-08T01:00:00	3	Temperatura mínima	17.7
138964	7	Sololá	719	Santiago Atitlán	14	Cerro de Oro	3	Marzo	2023-03-24T00:00:00	2024-11-08T01:00:00	5	Humedad	68
138965	7	Sololá	719	Santiago Atitlán	14	Cerro de Oro	3	Marzo	2023-03-24T00:00:00	2024-11-08T01:00:00	6	Velocidad del viento	8
138966	7	Sololá	719	Santiago Atitlán	14	Cerro de Oro	3	Marzo	2023-03-24T00:00:00	2024-11-08T01:00:00	7	Dirección del viento	8.05
138967	7	Sololá	719	Santiago Atitlán	14	Cerro de Oro	3	Marzo	2023-03-24T00:00:00	2024-11-08T01:00:00	1	Precipitación	0
138968	7	Sololá	719	Santiago Atitlán	14	Cerro de Oro	3	Marzo	2023-03-24T00:00:00	2024-11-08T01:00:00	8	Radiación solar	0
138969	7	Sololá	719	Santiago Atitlán	14	Cerro de Oro	3	Marzo	2023-03-24T00:00:00	2024-11-08T02:00:00	2	Temperatura media	17.3
138970	7	Sololá	719	Santiago Atitlán	14	Cerro de Oro	3	Marzo	2023-03-24T00:00:00	2024-11-08T02:00:00	4	Temperatura máxima	17.7
138971	7	Sololá	719	Santiago Atitlán	14	Cerro de Oro	3	Marzo	2023-03-24T00:00:00	2024-11-08T02:00:00	3	Temperatura mínima	17.3
138972	7	Sololá	719	Santiago Atitlán	14	Cerro de Oro	3	Marzo	2023-03-24T00:00:00	2024-11-08T02:00:00	5	Humedad	69
138973	7	Sololá	719	Santiago Atitlán	14	Cerro de Oro	3	Marzo	2023-03-24T00:00:00	2024-11-08T02:00:00	6	Velocidad del viento	4.8
138974	7	Sololá	719	Santiago Atitlán	14	Cerro de Oro	3	Marzo	2023-03-24T00:00:00	2024-11-08T02:00:00	7	Dirección del viento	4.83
138975	7	Sololá	719	Santiago Atitlán	14	Cerro de Oro	3	Marzo	2023-03-24T00:00:00	2024-11-08T02:00:00	1	Precipitación	0
138976	7	Sololá	719	Santiago Atitlán	14	Cerro de Oro	3	Marzo	2023-03-24T00:00:00	2024-11-08T02:00:00	8	Radiación solar	0
138977	7	Sololá	719	Santiago Atitlán	14	Cerro de Oro	3	Marzo	2023-03-24T00:00:00	2024-11-08T03:00:00	2	Temperatura media	17.1
138978	7	Sololá	719	Santiago Atitlán	14	Cerro de Oro	3	Marzo	2023-03-24T00:00:00	2024-11-08T03:00:00	4	Temperatura máxima	17.4
138979	7	Sololá	719	Santiago Atitlán	14	Cerro de Oro	3	Marzo	2023-03-24T00:00:00	2024-11-08T03:00:00	3	Temperatura mínima	16.5
138980	7	Sololá	719	Santiago Atitlán	14	Cerro de Oro	3	Marzo	2023-03-24T00:00:00	2024-11-08T03:00:00	5	Humedad	72
138981	7	Sololá	719	Santiago Atitlán	14	Cerro de Oro	3	Marzo	2023-03-24T00:00:00	2024-11-08T03:00:00	6	Velocidad del viento	6.4
138982	7	Sololá	719	Santiago Atitlán	14	Cerro de Oro	3	Marzo	2023-03-24T00:00:00	2024-11-08T03:00:00	7	Dirección del viento	6.44
138983	7	Sololá	719	Santiago Atitlán	14	Cerro de Oro	3	Marzo	2023-03-24T00:00:00	2024-11-08T03:00:00	1	Precipitación	0
138984	7	Sololá	719	Santiago Atitlán	14	Cerro de Oro	3	Marzo	2023-03-24T00:00:00	2024-11-08T03:00:00	8	Radiación solar	0
138985	7	Sololá	719	Santiago Atitlán	14	Cerro de Oro	3	Marzo	2023-03-24T00:00:00	2024-11-08T04:00:00	2	Temperatura media	16.8
138986	7	Sololá	719	Santiago Atitlán	14	Cerro de Oro	3	Marzo	2023-03-24T00:00:00	2024-11-08T04:00:00	4	Temperatura máxima	17.2
138987	7	Sololá	719	Santiago Atitlán	14	Cerro de Oro	3	Marzo	2023-03-24T00:00:00	2024-11-08T04:00:00	3	Temperatura mínima	16.8
138988	7	Sololá	719	Santiago Atitlán	14	Cerro de Oro	3	Marzo	2023-03-24T00:00:00	2024-11-08T04:00:00	5	Humedad	70
138989	7	Sololá	719	Santiago Atitlán	14	Cerro de Oro	3	Marzo	2023-03-24T00:00:00	2024-11-08T04:00:00	6	Velocidad del viento	4.8
138990	7	Sololá	719	Santiago Atitlán	14	Cerro de Oro	3	Marzo	2023-03-24T00:00:00	2024-11-08T04:00:00	7	Dirección del viento	4.83
138991	7	Sololá	719	Santiago Atitlán	14	Cerro de Oro	3	Marzo	2023-03-24T00:00:00	2024-11-08T04:00:00	1	Precipitación	0
138992	7	Sololá	719	Santiago Atitlán	14	Cerro de Oro	3	Marzo	2023-03-24T00:00:00	2024-11-08T04:00:00	8	Radiación solar	0
138993	7	Sololá	719	Santiago Atitlán	14	Cerro de Oro	3	Marzo	2023-03-24T00:00:00	2024-11-08T05:00:00	2	Temperatura media	16.4
138994	7	Sololá	719	Santiago Atitlán	14	Cerro de Oro	3	Marzo	2023-03-24T00:00:00	2024-11-08T05:00:00	4	Temperatura máxima	16.8
138995	7	Sololá	719	Santiago Atitlán	14	Cerro de Oro	3	Marzo	2023-03-24T00:00:00	2024-11-08T05:00:00	3	Temperatura mínima	16.3
138996	7	Sololá	719	Santiago Atitlán	14	Cerro de Oro	3	Marzo	2023-03-24T00:00:00	2024-11-08T05:00:00	5	Humedad	70
138997	7	Sololá	719	Santiago Atitlán	14	Cerro de Oro	3	Marzo	2023-03-24T00:00:00	2024-11-08T05:00:00	6	Velocidad del viento	4.8
138998	7	Sololá	719	Santiago Atitlán	14	Cerro de Oro	3	Marzo	2023-03-24T00:00:00	2024-11-08T05:00:00	7	Dirección del viento	4.83
138999	7	Sololá	719	Santiago Atitlán	14	Cerro de Oro	3	Marzo	2023-03-24T00:00:00	2024-11-08T05:00:00	1	Precipitación	0
139000	7	Sololá	719	Santiago Atitlán	14	Cerro de Oro	3	Marzo	2023-03-24T00:00:00	2024-11-08T05:00:00	8	Radiación solar	0
139001	7	Sololá	719	Santiago Atitlán	14	Cerro de Oro	3	Marzo	2023-03-24T00:00:00	2024-11-08T06:00:00	2	Temperatura media	16.1
139002	7	Sololá	719	Santiago Atitlán	14	Cerro de Oro	3	Marzo	2023-03-24T00:00:00	2024-11-08T06:00:00	4	Temperatura máxima	16.4
139003	7	Sololá	719	Santiago Atitlán	14	Cerro de Oro	3	Marzo	2023-03-24T00:00:00	2024-11-08T06:00:00	3	Temperatura mínima	16.1
139004	7	Sololá	719	Santiago Atitlán	14	Cerro de Oro	3	Marzo	2023-03-24T00:00:00	2024-11-08T06:00:00	5	Humedad	72
139005	7	Sololá	719	Santiago Atitlán	14	Cerro de Oro	3	Marzo	2023-03-24T00:00:00	2024-11-08T06:00:00	6	Velocidad del viento	4.8
139006	7	Sololá	719	Santiago Atitlán	14	Cerro de Oro	3	Marzo	2023-03-24T00:00:00	2024-11-08T06:00:00	7	Dirección del viento	4.83
139007	7	Sololá	719	Santiago Atitlán	14	Cerro de Oro	3	Marzo	2023-03-24T00:00:00	2024-11-08T06:00:00	1	Precipitación	0
139008	7	Sololá	719	Santiago Atitlán	14	Cerro de Oro	3	Marzo	2023-03-24T00:00:00	2024-11-08T06:00:00	8	Radiación solar	0
139009	7	Sololá	719	Santiago Atitlán	14	Cerro de Oro	3	Marzo	2023-03-24T00:00:00	2024-11-08T07:00:00	2	Temperatura media	15.5
139010	7	Sololá	719	Santiago Atitlán	14	Cerro de Oro	3	Marzo	2023-03-24T00:00:00	2024-11-08T07:00:00	4	Temperatura máxima	16.1
139011	7	Sololá	719	Santiago Atitlán	14	Cerro de Oro	3	Marzo	2023-03-24T00:00:00	2024-11-08T07:00:00	3	Temperatura mínima	15.5
139012	7	Sololá	719	Santiago Atitlán	14	Cerro de Oro	3	Marzo	2023-03-24T00:00:00	2024-11-08T07:00:00	5	Humedad	73
139013	7	Sololá	719	Santiago Atitlán	14	Cerro de Oro	3	Marzo	2023-03-24T00:00:00	2024-11-08T07:00:00	6	Velocidad del viento	4.8
139014	7	Sololá	719	Santiago Atitlán	14	Cerro de Oro	3	Marzo	2023-03-24T00:00:00	2024-11-08T07:00:00	7	Dirección del viento	4.83
139015	7	Sololá	719	Santiago Atitlán	14	Cerro de Oro	3	Marzo	2023-03-24T00:00:00	2024-11-08T07:00:00	1	Precipitación	0
139016	7	Sololá	719	Santiago Atitlán	14	Cerro de Oro	3	Marzo	2023-03-24T00:00:00	2024-11-08T07:00:00	8	Radiación solar	39
139017	7	Sololá	719	Santiago Atitlán	14	Cerro de Oro	3	Marzo	2023-03-24T00:00:00	2024-11-08T08:00:00	2	Temperatura media	16.9
139018	7	Sololá	719	Santiago Atitlán	14	Cerro de Oro	3	Marzo	2023-03-24T00:00:00	2024-11-08T08:00:00	4	Temperatura máxima	16.9
139019	7	Sololá	719	Santiago Atitlán	14	Cerro de Oro	3	Marzo	2023-03-24T00:00:00	2024-11-08T08:00:00	3	Temperatura mínima	15.4
139020	7	Sololá	719	Santiago Atitlán	14	Cerro de Oro	3	Marzo	2023-03-24T00:00:00	2024-11-08T08:00:00	5	Humedad	70
139021	7	Sololá	719	Santiago Atitlán	14	Cerro de Oro	3	Marzo	2023-03-24T00:00:00	2024-11-08T08:00:00	6	Velocidad del viento	3.2
139022	7	Sololá	719	Santiago Atitlán	14	Cerro de Oro	3	Marzo	2023-03-24T00:00:00	2024-11-08T08:00:00	7	Dirección del viento	3.22
139023	7	Sololá	719	Santiago Atitlán	14	Cerro de Oro	3	Marzo	2023-03-24T00:00:00	2024-11-08T08:00:00	1	Precipitación	0
139024	7	Sololá	719	Santiago Atitlán	14	Cerro de Oro	3	Marzo	2023-03-24T00:00:00	2024-11-08T08:00:00	8	Radiación solar	189
139025	7	Sololá	719	Santiago Atitlán	14	Cerro de Oro	3	Marzo	2023-03-24T00:00:00	2024-11-08T09:00:00	2	Temperatura media	18.7
139026	7	Sololá	719	Santiago Atitlán	14	Cerro de Oro	3	Marzo	2023-03-24T00:00:00	2024-11-08T09:00:00	4	Temperatura máxima	18.7
139027	7	Sololá	719	Santiago Atitlán	14	Cerro de Oro	3	Marzo	2023-03-24T00:00:00	2024-11-08T09:00:00	3	Temperatura mínima	16.9
139028	7	Sololá	719	Santiago Atitlán	14	Cerro de Oro	3	Marzo	2023-03-24T00:00:00	2024-11-08T09:00:00	5	Humedad	67
139029	7	Sololá	719	Santiago Atitlán	14	Cerro de Oro	3	Marzo	2023-03-24T00:00:00	2024-11-08T09:00:00	6	Velocidad del viento	3.2
139030	7	Sololá	719	Santiago Atitlán	14	Cerro de Oro	3	Marzo	2023-03-24T00:00:00	2024-11-08T09:00:00	7	Dirección del viento	3.22
139031	7	Sololá	719	Santiago Atitlán	14	Cerro de Oro	3	Marzo	2023-03-24T00:00:00	2024-11-08T09:00:00	1	Precipitación	0
139032	7	Sololá	719	Santiago Atitlán	14	Cerro de Oro	3	Marzo	2023-03-24T00:00:00	2024-11-08T09:00:00	8	Radiación solar	396
139033	7	Sololá	719	Santiago Atitlán	14	Cerro de Oro	3	Marzo	2023-03-24T00:00:00	2024-11-08T10:00:00	2	Temperatura media	19.9
139034	7	Sololá	719	Santiago Atitlán	14	Cerro de Oro	3	Marzo	2023-03-24T00:00:00	2024-11-08T10:00:00	4	Temperatura máxima	19.9
139035	7	Sololá	719	Santiago Atitlán	14	Cerro de Oro	3	Marzo	2023-03-24T00:00:00	2024-11-08T10:00:00	3	Temperatura mínima	18.7
139036	7	Sololá	719	Santiago Atitlán	14	Cerro de Oro	3	Marzo	2023-03-24T00:00:00	2024-11-08T10:00:00	5	Humedad	67
139037	7	Sololá	719	Santiago Atitlán	14	Cerro de Oro	3	Marzo	2023-03-24T00:00:00	2024-11-08T10:00:00	6	Velocidad del viento	4.8
139038	7	Sololá	719	Santiago Atitlán	14	Cerro de Oro	3	Marzo	2023-03-24T00:00:00	2024-11-08T10:00:00	7	Dirección del viento	4.83
139039	7	Sololá	719	Santiago Atitlán	14	Cerro de Oro	3	Marzo	2023-03-24T00:00:00	2024-11-08T10:00:00	1	Precipitación	0
139040	7	Sololá	719	Santiago Atitlán	14	Cerro de Oro	3	Marzo	2023-03-24T00:00:00	2024-11-08T10:00:00	8	Radiación solar	684
139041	7	Sololá	719	Santiago Atitlán	14	Cerro de Oro	3	Marzo	2023-03-24T00:00:00	2024-11-08T11:00:00	2	Temperatura media	21.2
139042	7	Sololá	719	Santiago Atitlán	14	Cerro de Oro	3	Marzo	2023-03-24T00:00:00	2024-11-08T11:00:00	4	Temperatura máxima	21.2
139043	7	Sololá	719	Santiago Atitlán	14	Cerro de Oro	3	Marzo	2023-03-24T00:00:00	2024-11-08T11:00:00	3	Temperatura mínima	19.8
139044	7	Sololá	719	Santiago Atitlán	14	Cerro de Oro	3	Marzo	2023-03-24T00:00:00	2024-11-08T11:00:00	5	Humedad	65
139045	7	Sololá	719	Santiago Atitlán	14	Cerro de Oro	3	Marzo	2023-03-24T00:00:00	2024-11-08T11:00:00	6	Velocidad del viento	4.8
139046	7	Sololá	719	Santiago Atitlán	14	Cerro de Oro	3	Marzo	2023-03-24T00:00:00	2024-11-08T11:00:00	7	Dirección del viento	4.83
139047	7	Sololá	719	Santiago Atitlán	14	Cerro de Oro	3	Marzo	2023-03-24T00:00:00	2024-11-08T11:00:00	1	Precipitación	0
139048	7	Sololá	719	Santiago Atitlán	14	Cerro de Oro	3	Marzo	2023-03-24T00:00:00	2024-11-08T11:00:00	8	Radiación solar	860
139049	7	Sololá	719	Santiago Atitlán	14	Cerro de Oro	3	Marzo	2023-03-24T00:00:00	2024-11-08T12:00:00	2	Temperatura media	22.1
139050	7	Sololá	719	Santiago Atitlán	14	Cerro de Oro	3	Marzo	2023-03-24T00:00:00	2024-11-08T12:00:00	4	Temperatura máxima	22.2
139051	7	Sololá	719	Santiago Atitlán	14	Cerro de Oro	3	Marzo	2023-03-24T00:00:00	2024-11-08T12:00:00	3	Temperatura mínima	21.2
139052	7	Sololá	719	Santiago Atitlán	14	Cerro de Oro	3	Marzo	2023-03-24T00:00:00	2024-11-08T12:00:00	5	Humedad	65
139053	7	Sololá	719	Santiago Atitlán	14	Cerro de Oro	3	Marzo	2023-03-24T00:00:00	2024-11-08T12:00:00	6	Velocidad del viento	6.4
139054	7	Sololá	719	Santiago Atitlán	14	Cerro de Oro	3	Marzo	2023-03-24T00:00:00	2024-11-08T12:00:00	7	Dirección del viento	6.44
139055	7	Sololá	719	Santiago Atitlán	14	Cerro de Oro	3	Marzo	2023-03-24T00:00:00	2024-11-08T12:00:00	1	Precipitación	0
139056	7	Sololá	719	Santiago Atitlán	14	Cerro de Oro	3	Marzo	2023-03-24T00:00:00	2024-11-08T12:00:00	8	Radiación solar	982
139057	7	Sololá	719	Santiago Atitlán	14	Cerro de Oro	3	Marzo	2023-03-24T00:00:00	2024-11-08T13:00:00	2	Temperatura media	22.7
139058	7	Sololá	719	Santiago Atitlán	14	Cerro de Oro	3	Marzo	2023-03-24T00:00:00	2024-11-08T13:00:00	4	Temperatura máxima	23.2
139059	7	Sololá	719	Santiago Atitlán	14	Cerro de Oro	3	Marzo	2023-03-24T00:00:00	2024-11-08T13:00:00	3	Temperatura mínima	22.2
139060	7	Sololá	719	Santiago Atitlán	14	Cerro de Oro	3	Marzo	2023-03-24T00:00:00	2024-11-08T13:00:00	5	Humedad	65
139061	7	Sololá	719	Santiago Atitlán	14	Cerro de Oro	3	Marzo	2023-03-24T00:00:00	2024-11-08T13:00:00	6	Velocidad del viento	14.5
139062	7	Sololá	719	Santiago Atitlán	14	Cerro de Oro	3	Marzo	2023-03-24T00:00:00	2024-11-08T13:00:00	7	Dirección del viento	14.48
139063	7	Sololá	719	Santiago Atitlán	14	Cerro de Oro	3	Marzo	2023-03-24T00:00:00	2024-11-08T13:00:00	1	Precipitación	0
139064	7	Sololá	719	Santiago Atitlán	14	Cerro de Oro	3	Marzo	2023-03-24T00:00:00	2024-11-08T13:00:00	8	Radiación solar	699
139065	7	Sololá	719	Santiago Atitlán	14	Cerro de Oro	3	Marzo	2023-03-24T00:00:00	2024-11-08T14:00:00	2	Temperatura media	22.7
139066	7	Sololá	719	Santiago Atitlán	14	Cerro de Oro	3	Marzo	2023-03-24T00:00:00	2024-11-08T14:00:00	4	Temperatura máxima	23.3
139067	7	Sololá	719	Santiago Atitlán	14	Cerro de Oro	3	Marzo	2023-03-24T00:00:00	2024-11-08T14:00:00	3	Temperatura mínima	22.2
139068	7	Sololá	719	Santiago Atitlán	14	Cerro de Oro	3	Marzo	2023-03-24T00:00:00	2024-11-08T14:00:00	5	Humedad	68
139069	7	Sololá	719	Santiago Atitlán	14	Cerro de Oro	3	Marzo	2023-03-24T00:00:00	2024-11-08T14:00:00	6	Velocidad del viento	11.3
139070	7	Sololá	719	Santiago Atitlán	14	Cerro de Oro	3	Marzo	2023-03-24T00:00:00	2024-11-08T14:00:00	7	Dirección del viento	11.27
139071	7	Sololá	719	Santiago Atitlán	14	Cerro de Oro	3	Marzo	2023-03-24T00:00:00	2024-11-08T14:00:00	1	Precipitación	0
139072	7	Sololá	719	Santiago Atitlán	14	Cerro de Oro	3	Marzo	2023-03-24T00:00:00	2024-11-08T14:00:00	8	Radiación solar	796
139073	7	Sololá	719	Santiago Atitlán	14	Cerro de Oro	3	Marzo	2023-03-24T00:00:00	2024-11-08T15:00:00	2	Temperatura media	23.2
139074	7	Sololá	719	Santiago Atitlán	14	Cerro de Oro	3	Marzo	2023-03-24T00:00:00	2024-11-08T15:00:00	4	Temperatura máxima	23.8
139075	7	Sololá	719	Santiago Atitlán	14	Cerro de Oro	3	Marzo	2023-03-24T00:00:00	2024-11-08T15:00:00	3	Temperatura mínima	22.7
139076	7	Sololá	719	Santiago Atitlán	14	Cerro de Oro	3	Marzo	2023-03-24T00:00:00	2024-11-08T15:00:00	5	Humedad	67
139077	7	Sololá	719	Santiago Atitlán	14	Cerro de Oro	3	Marzo	2023-03-24T00:00:00	2024-11-08T15:00:00	6	Velocidad del viento	11.3
139078	7	Sololá	719	Santiago Atitlán	14	Cerro de Oro	3	Marzo	2023-03-24T00:00:00	2024-11-08T15:00:00	7	Dirección del viento	11.27
139079	7	Sololá	719	Santiago Atitlán	14	Cerro de Oro	3	Marzo	2023-03-24T00:00:00	2024-11-08T15:00:00	1	Precipitación	0
139080	7	Sololá	719	Santiago Atitlán	14	Cerro de Oro	3	Marzo	2023-03-24T00:00:00	2024-11-08T15:00:00	8	Radiación solar	193
139081	7	Sololá	719	Santiago Atitlán	14	Cerro de Oro	3	Marzo	2023-03-24T00:00:00	2024-11-08T16:00:00	2	Temperatura media	21.6
139082	7	Sololá	719	Santiago Atitlán	14	Cerro de Oro	3	Marzo	2023-03-24T00:00:00	2024-11-08T16:00:00	4	Temperatura máxima	23.2
139083	7	Sololá	719	Santiago Atitlán	14	Cerro de Oro	3	Marzo	2023-03-24T00:00:00	2024-11-08T16:00:00	3	Temperatura mínima	21.6
139084	7	Sololá	719	Santiago Atitlán	14	Cerro de Oro	3	Marzo	2023-03-24T00:00:00	2024-11-08T16:00:00	5	Humedad	73
139085	7	Sololá	719	Santiago Atitlán	14	Cerro de Oro	3	Marzo	2023-03-24T00:00:00	2024-11-08T16:00:00	6	Velocidad del viento	12.9
139086	7	Sololá	719	Santiago Atitlán	14	Cerro de Oro	3	Marzo	2023-03-24T00:00:00	2024-11-08T16:00:00	7	Dirección del viento	12.87
139087	7	Sololá	719	Santiago Atitlán	14	Cerro de Oro	3	Marzo	2023-03-24T00:00:00	2024-11-08T16:00:00	1	Precipitación	0
139088	7	Sololá	719	Santiago Atitlán	14	Cerro de Oro	3	Marzo	2023-03-24T00:00:00	2024-11-08T16:00:00	8	Radiación solar	127
139089	7	Sololá	719	Santiago Atitlán	14	Cerro de Oro	3	Marzo	2023-03-24T00:00:00	2024-11-08T17:00:00	2	Temperatura media	21.8
139090	7	Sololá	719	Santiago Atitlán	14	Cerro de Oro	3	Marzo	2023-03-24T00:00:00	2024-11-08T17:00:00	4	Temperatura máxima	21.9
139091	7	Sololá	719	Santiago Atitlán	14	Cerro de Oro	3	Marzo	2023-03-24T00:00:00	2024-11-08T17:00:00	3	Temperatura mínima	21.4
139092	7	Sololá	719	Santiago Atitlán	14	Cerro de Oro	3	Marzo	2023-03-24T00:00:00	2024-11-08T17:00:00	5	Humedad	74
139093	7	Sololá	719	Santiago Atitlán	14	Cerro de Oro	3	Marzo	2023-03-24T00:00:00	2024-11-08T17:00:00	6	Velocidad del viento	6.4
139094	7	Sololá	719	Santiago Atitlán	14	Cerro de Oro	3	Marzo	2023-03-24T00:00:00	2024-11-08T17:00:00	7	Dirección del viento	6.44
139095	7	Sololá	719	Santiago Atitlán	14	Cerro de Oro	3	Marzo	2023-03-24T00:00:00	2024-11-08T17:00:00	1	Precipitación	0
139096	7	Sololá	719	Santiago Atitlán	14	Cerro de Oro	3	Marzo	2023-03-24T00:00:00	2024-11-08T17:00:00	8	Radiación solar	70
139097	7	Sololá	719	Santiago Atitlán	14	Cerro de Oro	3	Marzo	2023-03-24T00:00:00	2024-11-08T18:00:00	2	Temperatura media	20.1
139098	7	Sololá	719	Santiago Atitlán	14	Cerro de Oro	3	Marzo	2023-03-24T00:00:00	2024-11-08T18:00:00	4	Temperatura máxima	21.8
139099	7	Sololá	719	Santiago Atitlán	14	Cerro de Oro	3	Marzo	2023-03-24T00:00:00	2024-11-08T18:00:00	3	Temperatura mínima	20
139100	7	Sololá	719	Santiago Atitlán	14	Cerro de Oro	3	Marzo	2023-03-24T00:00:00	2024-11-08T18:00:00	5	Humedad	82
139101	7	Sololá	719	Santiago Atitlán	14	Cerro de Oro	3	Marzo	2023-03-24T00:00:00	2024-11-08T18:00:00	6	Velocidad del viento	8
139102	7	Sololá	719	Santiago Atitlán	14	Cerro de Oro	3	Marzo	2023-03-24T00:00:00	2024-11-08T18:00:00	7	Dirección del viento	8.05
139103	7	Sololá	719	Santiago Atitlán	14	Cerro de Oro	3	Marzo	2023-03-24T00:00:00	2024-11-08T18:00:00	1	Precipitación	0
139104	7	Sololá	719	Santiago Atitlán	14	Cerro de Oro	3	Marzo	2023-03-24T00:00:00	2024-11-08T18:00:00	8	Radiación solar	33
139105	7	Sololá	719	Santiago Atitlán	14	Cerro de Oro	3	Marzo	2023-03-24T00:00:00	2024-11-08T19:00:00	2	Temperatura media	19.3
139106	7	Sololá	719	Santiago Atitlán	14	Cerro de Oro	3	Marzo	2023-03-24T00:00:00	2024-11-08T19:00:00	4	Temperatura máxima	20.1
139107	7	Sololá	719	Santiago Atitlán	14	Cerro de Oro	3	Marzo	2023-03-24T00:00:00	2024-11-08T19:00:00	3	Temperatura mínima	19
139108	7	Sololá	719	Santiago Atitlán	14	Cerro de Oro	3	Marzo	2023-03-24T00:00:00	2024-11-08T19:00:00	5	Humedad	82
139109	7	Sololá	719	Santiago Atitlán	14	Cerro de Oro	3	Marzo	2023-03-24T00:00:00	2024-11-08T19:00:00	6	Velocidad del viento	9.7
139110	7	Sololá	719	Santiago Atitlán	14	Cerro de Oro	3	Marzo	2023-03-24T00:00:00	2024-11-08T19:00:00	7	Dirección del viento	9.66
139111	7	Sololá	719	Santiago Atitlán	14	Cerro de Oro	3	Marzo	2023-03-24T00:00:00	2024-11-08T19:00:00	1	Precipitación	0
139112	7	Sololá	719	Santiago Atitlán	14	Cerro de Oro	3	Marzo	2023-03-24T00:00:00	2024-11-08T19:00:00	8	Radiación solar	0
139113	7	Sololá	719	Santiago Atitlán	14	Cerro de Oro	3	Marzo	2023-03-24T00:00:00	2024-11-08T20:00:00	2	Temperatura media	18.2
139114	7	Sololá	719	Santiago Atitlán	14	Cerro de Oro	3	Marzo	2023-03-24T00:00:00	2024-11-08T20:00:00	4	Temperatura máxima	19.4
139115	7	Sololá	719	Santiago Atitlán	14	Cerro de Oro	3	Marzo	2023-03-24T00:00:00	2024-11-08T20:00:00	3	Temperatura mínima	18.2
139116	7	Sololá	719	Santiago Atitlán	14	Cerro de Oro	3	Marzo	2023-03-24T00:00:00	2024-11-08T20:00:00	5	Humedad	89
139117	7	Sololá	719	Santiago Atitlán	14	Cerro de Oro	3	Marzo	2023-03-24T00:00:00	2024-11-08T20:00:00	6	Velocidad del viento	8
139118	7	Sololá	719	Santiago Atitlán	14	Cerro de Oro	3	Marzo	2023-03-24T00:00:00	2024-11-08T20:00:00	7	Dirección del viento	8.05
139119	7	Sololá	719	Santiago Atitlán	14	Cerro de Oro	3	Marzo	2023-03-24T00:00:00	2024-11-08T20:00:00	1	Precipitación	0
139120	7	Sololá	719	Santiago Atitlán	14	Cerro de Oro	3	Marzo	2023-03-24T00:00:00	2024-11-08T20:00:00	8	Radiación solar	0
139121	7	Sololá	719	Santiago Atitlán	14	Cerro de Oro	3	Marzo	2023-03-24T00:00:00	2024-11-08T21:00:00	2	Temperatura media	18.1
139122	7	Sololá	719	Santiago Atitlán	14	Cerro de Oro	3	Marzo	2023-03-24T00:00:00	2024-11-08T21:00:00	4	Temperatura máxima	18.3
139123	7	Sololá	719	Santiago Atitlán	14	Cerro de Oro	3	Marzo	2023-03-24T00:00:00	2024-11-08T21:00:00	3	Temperatura mínima	18.1
139124	7	Sololá	719	Santiago Atitlán	14	Cerro de Oro	3	Marzo	2023-03-24T00:00:00	2024-11-08T21:00:00	5	Humedad	89
139125	7	Sololá	719	Santiago Atitlán	14	Cerro de Oro	3	Marzo	2023-03-24T00:00:00	2024-11-08T21:00:00	6	Velocidad del viento	6.4
139126	7	Sololá	719	Santiago Atitlán	14	Cerro de Oro	3	Marzo	2023-03-24T00:00:00	2024-11-08T21:00:00	7	Dirección del viento	6.44
139127	7	Sololá	719	Santiago Atitlán	14	Cerro de Oro	3	Marzo	2023-03-24T00:00:00	2024-11-08T21:00:00	1	Precipitación	0
139128	7	Sololá	719	Santiago Atitlán	14	Cerro de Oro	3	Marzo	2023-03-24T00:00:00	2024-11-08T21:00:00	8	Radiación solar	0
139129	7	Sololá	719	Santiago Atitlán	14	Cerro de Oro	3	Marzo	2023-03-24T00:00:00	2024-11-08T22:00:00	2	Temperatura media	17.8
139130	7	Sololá	719	Santiago Atitlán	14	Cerro de Oro	3	Marzo	2023-03-24T00:00:00	2024-11-08T22:00:00	4	Temperatura máxima	18.1
139131	7	Sololá	719	Santiago Atitlán	14	Cerro de Oro	3	Marzo	2023-03-24T00:00:00	2024-11-08T22:00:00	3	Temperatura mínima	17.7
139132	7	Sololá	719	Santiago Atitlán	14	Cerro de Oro	3	Marzo	2023-03-24T00:00:00	2024-11-08T22:00:00	5	Humedad	85
139133	7	Sololá	719	Santiago Atitlán	14	Cerro de Oro	3	Marzo	2023-03-24T00:00:00	2024-11-08T22:00:00	6	Velocidad del viento	4.8
139134	7	Sololá	719	Santiago Atitlán	14	Cerro de Oro	3	Marzo	2023-03-24T00:00:00	2024-11-08T22:00:00	7	Dirección del viento	4.83
139135	7	Sololá	719	Santiago Atitlán	14	Cerro de Oro	3	Marzo	2023-03-24T00:00:00	2024-11-08T22:00:00	1	Precipitación	0
139136	7	Sololá	719	Santiago Atitlán	14	Cerro de Oro	3	Marzo	2023-03-24T00:00:00	2024-11-08T22:00:00	8	Radiación solar	0
139137	7	Sololá	719	Santiago Atitlán	14	Cerro de Oro	3	Marzo	2023-03-24T00:00:00	2024-11-08T23:00:00	2	Temperatura media	17.3
139138	7	Sololá	719	Santiago Atitlán	14	Cerro de Oro	3	Marzo	2023-03-24T00:00:00	2024-11-08T23:00:00	4	Temperatura máxima	17.8
139139	7	Sololá	719	Santiago Atitlán	14	Cerro de Oro	3	Marzo	2023-03-24T00:00:00	2024-11-08T23:00:00	3	Temperatura mínima	17.2
139140	7	Sololá	719	Santiago Atitlán	14	Cerro de Oro	3	Marzo	2023-03-24T00:00:00	2024-11-08T23:00:00	5	Humedad	85
139141	7	Sololá	719	Santiago Atitlán	14	Cerro de Oro	3	Marzo	2023-03-24T00:00:00	2024-11-08T23:00:00	6	Velocidad del viento	3.2
139142	7	Sololá	719	Santiago Atitlán	14	Cerro de Oro	3	Marzo	2023-03-24T00:00:00	2024-11-08T23:00:00	7	Dirección del viento	3.22
139143	7	Sololá	719	Santiago Atitlán	14	Cerro de Oro	3	Marzo	2023-03-24T00:00:00	2024-11-08T23:00:00	1	Precipitación	0
139144	7	Sololá	719	Santiago Atitlán	14	Cerro de Oro	3	Marzo	2023-03-24T00:00:00	2024-11-08T23:00:00	8	Radiación solar	0
139145	7	Sololá	719	Santiago Atitlán	14	Cerro de Oro	3	Marzo	2023-03-25T00:00:00	2024-11-08T00:00:00	2	Temperatura media	17.3
139146	7	Sololá	719	Santiago Atitlán	14	Cerro de Oro	3	Marzo	2023-03-25T00:00:00	2024-11-08T00:00:00	4	Temperatura máxima	17.4
139147	7	Sololá	719	Santiago Atitlán	14	Cerro de Oro	3	Marzo	2023-03-25T00:00:00	2024-11-08T00:00:00	3	Temperatura mínima	17.2
139148	7	Sololá	719	Santiago Atitlán	14	Cerro de Oro	3	Marzo	2023-03-25T00:00:00	2024-11-08T00:00:00	5	Humedad	83
139149	7	Sololá	719	Santiago Atitlán	14	Cerro de Oro	3	Marzo	2023-03-25T00:00:00	2024-11-08T00:00:00	6	Velocidad del viento	1.6
139150	7	Sololá	719	Santiago Atitlán	14	Cerro de Oro	3	Marzo	2023-03-25T00:00:00	2024-11-08T00:00:00	7	Dirección del viento	1.61
139151	7	Sololá	719	Santiago Atitlán	14	Cerro de Oro	3	Marzo	2023-03-25T00:00:00	2024-11-08T00:00:00	1	Precipitación	0
139152	7	Sololá	719	Santiago Atitlán	14	Cerro de Oro	3	Marzo	2023-03-25T00:00:00	2024-11-08T00:00:00	8	Radiación solar	0
139153	7	Sololá	719	Santiago Atitlán	14	Cerro de Oro	3	Marzo	2023-03-25T00:00:00	2024-11-08T01:00:00	2	Temperatura media	17.6
139154	7	Sololá	719	Santiago Atitlán	14	Cerro de Oro	3	Marzo	2023-03-25T00:00:00	2024-11-08T01:00:00	4	Temperatura máxima	17.6
139155	7	Sololá	719	Santiago Atitlán	14	Cerro de Oro	3	Marzo	2023-03-25T00:00:00	2024-11-08T01:00:00	3	Temperatura mínima	17.2
139156	7	Sololá	719	Santiago Atitlán	14	Cerro de Oro	3	Marzo	2023-03-25T00:00:00	2024-11-08T01:00:00	5	Humedad	74
139157	7	Sololá	719	Santiago Atitlán	14	Cerro de Oro	3	Marzo	2023-03-25T00:00:00	2024-11-08T01:00:00	6	Velocidad del viento	3.2
139158	7	Sololá	719	Santiago Atitlán	14	Cerro de Oro	3	Marzo	2023-03-25T00:00:00	2024-11-08T01:00:00	7	Dirección del viento	3.22
139159	7	Sololá	719	Santiago Atitlán	14	Cerro de Oro	3	Marzo	2023-03-25T00:00:00	2024-11-08T01:00:00	1	Precipitación	0
139160	7	Sololá	719	Santiago Atitlán	14	Cerro de Oro	3	Marzo	2023-03-25T00:00:00	2024-11-08T01:00:00	8	Radiación solar	0
139161	7	Sololá	719	Santiago Atitlán	14	Cerro de Oro	3	Marzo	2023-03-25T00:00:00	2024-11-08T02:00:00	2	Temperatura media	17.6
139162	7	Sololá	719	Santiago Atitlán	14	Cerro de Oro	3	Marzo	2023-03-25T00:00:00	2024-11-08T02:00:00	4	Temperatura máxima	17.9
139163	7	Sololá	719	Santiago Atitlán	14	Cerro de Oro	3	Marzo	2023-03-25T00:00:00	2024-11-08T02:00:00	3	Temperatura mínima	17.6
139164	7	Sololá	719	Santiago Atitlán	14	Cerro de Oro	3	Marzo	2023-03-25T00:00:00	2024-11-08T02:00:00	5	Humedad	76
139165	7	Sololá	719	Santiago Atitlán	14	Cerro de Oro	3	Marzo	2023-03-25T00:00:00	2024-11-08T02:00:00	6	Velocidad del viento	1.6
139166	7	Sololá	719	Santiago Atitlán	14	Cerro de Oro	3	Marzo	2023-03-25T00:00:00	2024-11-08T02:00:00	7	Dirección del viento	1.61
139167	7	Sololá	719	Santiago Atitlán	14	Cerro de Oro	3	Marzo	2023-03-25T00:00:00	2024-11-08T02:00:00	1	Precipitación	0
139168	7	Sololá	719	Santiago Atitlán	14	Cerro de Oro	3	Marzo	2023-03-25T00:00:00	2024-11-08T02:00:00	8	Radiación solar	0
139169	7	Sololá	719	Santiago Atitlán	14	Cerro de Oro	3	Marzo	2023-03-25T00:00:00	2024-11-08T03:00:00	2	Temperatura media	16.9
139170	7	Sololá	719	Santiago Atitlán	14	Cerro de Oro	3	Marzo	2023-03-25T00:00:00	2024-11-08T03:00:00	4	Temperatura máxima	17.6
139171	7	Sololá	719	Santiago Atitlán	14	Cerro de Oro	3	Marzo	2023-03-25T00:00:00	2024-11-08T03:00:00	3	Temperatura mínima	16.7
139172	7	Sololá	719	Santiago Atitlán	14	Cerro de Oro	3	Marzo	2023-03-25T00:00:00	2024-11-08T03:00:00	5	Humedad	81
139173	7	Sololá	719	Santiago Atitlán	14	Cerro de Oro	3	Marzo	2023-03-25T00:00:00	2024-11-08T03:00:00	6	Velocidad del viento	4.8
139174	7	Sololá	719	Santiago Atitlán	14	Cerro de Oro	3	Marzo	2023-03-25T00:00:00	2024-11-08T03:00:00	7	Dirección del viento	4.83
139175	7	Sololá	719	Santiago Atitlán	14	Cerro de Oro	3	Marzo	2023-03-25T00:00:00	2024-11-08T03:00:00	1	Precipitación	0
139176	7	Sololá	719	Santiago Atitlán	14	Cerro de Oro	3	Marzo	2023-03-25T00:00:00	2024-11-08T03:00:00	8	Radiación solar	0
139177	7	Sololá	719	Santiago Atitlán	14	Cerro de Oro	3	Marzo	2023-03-25T00:00:00	2024-11-08T04:00:00	2	Temperatura media	17.4
139178	7	Sololá	719	Santiago Atitlán	14	Cerro de Oro	3	Marzo	2023-03-25T00:00:00	2024-11-08T04:00:00	4	Temperatura máxima	17.5
139179	7	Sololá	719	Santiago Atitlán	14	Cerro de Oro	3	Marzo	2023-03-25T00:00:00	2024-11-08T04:00:00	3	Temperatura mínima	16.9
139180	7	Sololá	719	Santiago Atitlán	14	Cerro de Oro	3	Marzo	2023-03-25T00:00:00	2024-11-08T04:00:00	5	Humedad	77
139181	7	Sololá	719	Santiago Atitlán	14	Cerro de Oro	3	Marzo	2023-03-25T00:00:00	2024-11-08T04:00:00	6	Velocidad del viento	1.6
139182	7	Sololá	719	Santiago Atitlán	14	Cerro de Oro	3	Marzo	2023-03-25T00:00:00	2024-11-08T04:00:00	7	Dirección del viento	1.61
139183	7	Sololá	719	Santiago Atitlán	14	Cerro de Oro	3	Marzo	2023-03-25T00:00:00	2024-11-08T04:00:00	1	Precipitación	0
139184	7	Sololá	719	Santiago Atitlán	14	Cerro de Oro	3	Marzo	2023-03-25T00:00:00	2024-11-08T04:00:00	8	Radiación solar	0
139185	7	Sololá	719	Santiago Atitlán	14	Cerro de Oro	3	Marzo	2023-03-25T00:00:00	2024-11-08T05:00:00	2	Temperatura media	18.2
139186	7	Sololá	719	Santiago Atitlán	14	Cerro de Oro	3	Marzo	2023-03-25T00:00:00	2024-11-08T05:00:00	4	Temperatura máxima	18.2
139187	7	Sololá	719	Santiago Atitlán	14	Cerro de Oro	3	Marzo	2023-03-25T00:00:00	2024-11-08T05:00:00	3	Temperatura mínima	17.4
139188	7	Sololá	719	Santiago Atitlán	14	Cerro de Oro	3	Marzo	2023-03-25T00:00:00	2024-11-08T05:00:00	5	Humedad	73
139189	7	Sololá	719	Santiago Atitlán	14	Cerro de Oro	3	Marzo	2023-03-25T00:00:00	2024-11-08T05:00:00	6	Velocidad del viento	4.8
139190	7	Sololá	719	Santiago Atitlán	14	Cerro de Oro	3	Marzo	2023-03-25T00:00:00	2024-11-08T05:00:00	7	Dirección del viento	4.83
139191	7	Sololá	719	Santiago Atitlán	14	Cerro de Oro	3	Marzo	2023-03-25T00:00:00	2024-11-08T05:00:00	1	Precipitación	0
139192	7	Sololá	719	Santiago Atitlán	14	Cerro de Oro	3	Marzo	2023-03-25T00:00:00	2024-11-08T05:00:00	8	Radiación solar	0
139193	7	Sololá	719	Santiago Atitlán	14	Cerro de Oro	3	Marzo	2023-03-25T00:00:00	2024-11-08T06:00:00	2	Temperatura media	17.8
139194	7	Sololá	719	Santiago Atitlán	14	Cerro de Oro	3	Marzo	2023-03-25T00:00:00	2024-11-08T06:00:00	4	Temperatura máxima	18.2
139195	7	Sololá	719	Santiago Atitlán	14	Cerro de Oro	3	Marzo	2023-03-25T00:00:00	2024-11-08T06:00:00	3	Temperatura mínima	17.8
139196	7	Sololá	719	Santiago Atitlán	14	Cerro de Oro	3	Marzo	2023-03-25T00:00:00	2024-11-08T06:00:00	5	Humedad	77
139197	7	Sololá	719	Santiago Atitlán	14	Cerro de Oro	3	Marzo	2023-03-25T00:00:00	2024-11-08T06:00:00	6	Velocidad del viento	4.8
139198	7	Sololá	719	Santiago Atitlán	14	Cerro de Oro	3	Marzo	2023-03-25T00:00:00	2024-11-08T06:00:00	7	Dirección del viento	4.83
139199	7	Sololá	719	Santiago Atitlán	14	Cerro de Oro	3	Marzo	2023-03-25T00:00:00	2024-11-08T06:00:00	1	Precipitación	0
139200	7	Sololá	719	Santiago Atitlán	14	Cerro de Oro	3	Marzo	2023-03-25T00:00:00	2024-11-08T06:00:00	8	Radiación solar	0
139201	7	Sololá	719	Santiago Atitlán	14	Cerro de Oro	3	Marzo	2023-03-25T00:00:00	2024-11-08T07:00:00	2	Temperatura media	17.2
139202	7	Sololá	719	Santiago Atitlán	14	Cerro de Oro	3	Marzo	2023-03-25T00:00:00	2024-11-08T07:00:00	4	Temperatura máxima	17.8
139203	7	Sololá	719	Santiago Atitlán	14	Cerro de Oro	3	Marzo	2023-03-25T00:00:00	2024-11-08T07:00:00	3	Temperatura mínima	17.2
139204	7	Sololá	719	Santiago Atitlán	14	Cerro de Oro	3	Marzo	2023-03-25T00:00:00	2024-11-08T07:00:00	5	Humedad	80
139205	7	Sololá	719	Santiago Atitlán	14	Cerro de Oro	3	Marzo	2023-03-25T00:00:00	2024-11-08T07:00:00	6	Velocidad del viento	1.6
139206	7	Sololá	719	Santiago Atitlán	14	Cerro de Oro	3	Marzo	2023-03-25T00:00:00	2024-11-08T07:00:00	7	Dirección del viento	1.61
139207	7	Sololá	719	Santiago Atitlán	14	Cerro de Oro	3	Marzo	2023-03-25T00:00:00	2024-11-08T07:00:00	1	Precipitación	0
139208	7	Sololá	719	Santiago Atitlán	14	Cerro de Oro	3	Marzo	2023-03-25T00:00:00	2024-11-08T07:00:00	8	Radiación solar	24
139209	7	Sololá	719	Santiago Atitlán	14	Cerro de Oro	3	Marzo	2023-03-25T00:00:00	2024-11-08T08:00:00	2	Temperatura media	17.5
139210	7	Sololá	719	Santiago Atitlán	14	Cerro de Oro	3	Marzo	2023-03-25T00:00:00	2024-11-08T08:00:00	4	Temperatura máxima	17.5
139211	7	Sololá	719	Santiago Atitlán	14	Cerro de Oro	3	Marzo	2023-03-25T00:00:00	2024-11-08T08:00:00	3	Temperatura mínima	17.2
139212	7	Sololá	719	Santiago Atitlán	14	Cerro de Oro	3	Marzo	2023-03-25T00:00:00	2024-11-08T08:00:00	5	Humedad	81
139213	7	Sololá	719	Santiago Atitlán	14	Cerro de Oro	3	Marzo	2023-03-25T00:00:00	2024-11-08T08:00:00	6	Velocidad del viento	1.6
139214	7	Sololá	719	Santiago Atitlán	14	Cerro de Oro	3	Marzo	2023-03-25T00:00:00	2024-11-08T08:00:00	7	Dirección del viento	1.61
139215	7	Sololá	719	Santiago Atitlán	14	Cerro de Oro	3	Marzo	2023-03-25T00:00:00	2024-11-08T08:00:00	1	Precipitación	0
139216	7	Sololá	719	Santiago Atitlán	14	Cerro de Oro	3	Marzo	2023-03-25T00:00:00	2024-11-08T08:00:00	8	Radiación solar	133
139217	7	Sololá	719	Santiago Atitlán	14	Cerro de Oro	3	Marzo	2023-03-25T00:00:00	2024-11-08T09:00:00	2	Temperatura media	18.9
139218	7	Sololá	719	Santiago Atitlán	14	Cerro de Oro	3	Marzo	2023-03-25T00:00:00	2024-11-08T09:00:00	4	Temperatura máxima	18.9
139219	7	Sololá	719	Santiago Atitlán	14	Cerro de Oro	3	Marzo	2023-03-25T00:00:00	2024-11-08T09:00:00	3	Temperatura mínima	17.5
139220	7	Sololá	719	Santiago Atitlán	14	Cerro de Oro	3	Marzo	2023-03-25T00:00:00	2024-11-08T09:00:00	5	Humedad	77
139221	7	Sololá	719	Santiago Atitlán	14	Cerro de Oro	3	Marzo	2023-03-25T00:00:00	2024-11-08T09:00:00	6	Velocidad del viento	3.2
139222	7	Sololá	719	Santiago Atitlán	14	Cerro de Oro	3	Marzo	2023-03-25T00:00:00	2024-11-08T09:00:00	7	Dirección del viento	3.22
139223	7	Sololá	719	Santiago Atitlán	14	Cerro de Oro	3	Marzo	2023-03-25T00:00:00	2024-11-08T09:00:00	1	Precipitación	0
139224	7	Sololá	719	Santiago Atitlán	14	Cerro de Oro	3	Marzo	2023-03-25T00:00:00	2024-11-08T09:00:00	8	Radiación solar	365
139225	7	Sololá	719	Santiago Atitlán	14	Cerro de Oro	3	Marzo	2023-03-25T00:00:00	2024-11-08T10:00:00	2	Temperatura media	19.5
139226	7	Sololá	719	Santiago Atitlán	14	Cerro de Oro	3	Marzo	2023-03-25T00:00:00	2024-11-08T10:00:00	4	Temperatura máxima	20.8
139227	7	Sololá	719	Santiago Atitlán	14	Cerro de Oro	3	Marzo	2023-03-25T00:00:00	2024-11-08T10:00:00	3	Temperatura mínima	18.9
139228	7	Sololá	719	Santiago Atitlán	14	Cerro de Oro	3	Marzo	2023-03-25T00:00:00	2024-11-08T10:00:00	5	Humedad	75
139229	7	Sololá	719	Santiago Atitlán	14	Cerro de Oro	3	Marzo	2023-03-25T00:00:00	2024-11-08T10:00:00	6	Velocidad del viento	8
139230	7	Sololá	719	Santiago Atitlán	14	Cerro de Oro	3	Marzo	2023-03-25T00:00:00	2024-11-08T10:00:00	7	Dirección del viento	8.05
139231	7	Sololá	719	Santiago Atitlán	14	Cerro de Oro	3	Marzo	2023-03-25T00:00:00	2024-11-08T10:00:00	1	Precipitación	0
139232	7	Sololá	719	Santiago Atitlán	14	Cerro de Oro	3	Marzo	2023-03-25T00:00:00	2024-11-08T10:00:00	8	Radiación solar	538
139233	7	Sololá	719	Santiago Atitlán	14	Cerro de Oro	3	Marzo	2023-03-25T00:00:00	2024-11-08T11:00:00	2	Temperatura media	21.3
139234	7	Sololá	719	Santiago Atitlán	14	Cerro de Oro	3	Marzo	2023-03-25T00:00:00	2024-11-08T11:00:00	4	Temperatura máxima	21.3
139235	7	Sololá	719	Santiago Atitlán	14	Cerro de Oro	3	Marzo	2023-03-25T00:00:00	2024-11-08T11:00:00	3	Temperatura mínima	19.3
139236	7	Sololá	719	Santiago Atitlán	14	Cerro de Oro	3	Marzo	2023-03-25T00:00:00	2024-11-08T11:00:00	5	Humedad	70
139237	7	Sololá	719	Santiago Atitlán	14	Cerro de Oro	3	Marzo	2023-03-25T00:00:00	2024-11-08T11:00:00	6	Velocidad del viento	9.7
139238	7	Sololá	719	Santiago Atitlán	14	Cerro de Oro	3	Marzo	2023-03-25T00:00:00	2024-11-08T11:00:00	7	Dirección del viento	9.66
139239	7	Sololá	719	Santiago Atitlán	14	Cerro de Oro	3	Marzo	2023-03-25T00:00:00	2024-11-08T11:00:00	1	Precipitación	0
139240	7	Sololá	719	Santiago Atitlán	14	Cerro de Oro	3	Marzo	2023-03-25T00:00:00	2024-11-08T11:00:00	8	Radiación solar	954
139241	7	Sololá	719	Santiago Atitlán	14	Cerro de Oro	3	Marzo	2023-03-25T00:00:00	2024-11-08T12:00:00	2	Temperatura media	22.4
139242	7	Sololá	719	Santiago Atitlán	14	Cerro de Oro	3	Marzo	2023-03-25T00:00:00	2024-11-08T12:00:00	4	Temperatura máxima	22.6
139243	7	Sololá	719	Santiago Atitlán	14	Cerro de Oro	3	Marzo	2023-03-25T00:00:00	2024-11-08T12:00:00	3	Temperatura mínima	21.3
139244	7	Sololá	719	Santiago Atitlán	14	Cerro de Oro	3	Marzo	2023-03-25T00:00:00	2024-11-08T12:00:00	5	Humedad	64
139245	7	Sololá	719	Santiago Atitlán	14	Cerro de Oro	3	Marzo	2023-03-25T00:00:00	2024-11-08T12:00:00	6	Velocidad del viento	9.7
139246	7	Sololá	719	Santiago Atitlán	14	Cerro de Oro	3	Marzo	2023-03-25T00:00:00	2024-11-08T12:00:00	7	Dirección del viento	9.66
139247	7	Sololá	719	Santiago Atitlán	14	Cerro de Oro	3	Marzo	2023-03-25T00:00:00	2024-11-08T12:00:00	1	Precipitación	0
139248	7	Sololá	719	Santiago Atitlán	14	Cerro de Oro	3	Marzo	2023-03-25T00:00:00	2024-11-08T12:00:00	8	Radiación solar	993
139249	7	Sololá	719	Santiago Atitlán	14	Cerro de Oro	3	Marzo	2023-03-25T00:00:00	2024-11-08T13:00:00	2	Temperatura media	23
139250	7	Sololá	719	Santiago Atitlán	14	Cerro de Oro	3	Marzo	2023-03-25T00:00:00	2024-11-08T13:00:00	4	Temperatura máxima	23
139251	7	Sololá	719	Santiago Atitlán	14	Cerro de Oro	3	Marzo	2023-03-25T00:00:00	2024-11-08T13:00:00	3	Temperatura mínima	22.2
139252	7	Sololá	719	Santiago Atitlán	14	Cerro de Oro	3	Marzo	2023-03-25T00:00:00	2024-11-08T13:00:00	5	Humedad	65
139253	7	Sololá	719	Santiago Atitlán	14	Cerro de Oro	3	Marzo	2023-03-25T00:00:00	2024-11-08T13:00:00	6	Velocidad del viento	11.3
139254	7	Sololá	719	Santiago Atitlán	14	Cerro de Oro	3	Marzo	2023-03-25T00:00:00	2024-11-08T13:00:00	7	Dirección del viento	11.27
139255	7	Sololá	719	Santiago Atitlán	14	Cerro de Oro	3	Marzo	2023-03-25T00:00:00	2024-11-08T13:00:00	1	Precipitación	0
139256	7	Sololá	719	Santiago Atitlán	14	Cerro de Oro	3	Marzo	2023-03-25T00:00:00	2024-11-08T13:00:00	8	Radiación solar	966
139257	7	Sololá	719	Santiago Atitlán	14	Cerro de Oro	3	Marzo	2023-03-25T00:00:00	2024-11-08T14:00:00	2	Temperatura media	22.9
139258	7	Sololá	719	Santiago Atitlán	14	Cerro de Oro	3	Marzo	2023-03-25T00:00:00	2024-11-08T14:00:00	4	Temperatura máxima	23.2
139259	7	Sololá	719	Santiago Atitlán	14	Cerro de Oro	3	Marzo	2023-03-25T00:00:00	2024-11-08T14:00:00	3	Temperatura mínima	22.7
139260	7	Sololá	719	Santiago Atitlán	14	Cerro de Oro	3	Marzo	2023-03-25T00:00:00	2024-11-08T14:00:00	5	Humedad	65
139261	7	Sololá	719	Santiago Atitlán	14	Cerro de Oro	3	Marzo	2023-03-25T00:00:00	2024-11-08T14:00:00	6	Velocidad del viento	12.9
139262	7	Sololá	719	Santiago Atitlán	14	Cerro de Oro	3	Marzo	2023-03-25T00:00:00	2024-11-08T14:00:00	7	Dirección del viento	12.87
139263	7	Sololá	719	Santiago Atitlán	14	Cerro de Oro	3	Marzo	2023-03-25T00:00:00	2024-11-08T14:00:00	1	Precipitación	0
139264	7	Sololá	719	Santiago Atitlán	14	Cerro de Oro	3	Marzo	2023-03-25T00:00:00	2024-11-08T14:00:00	8	Radiación solar	784
139265	7	Sololá	719	Santiago Atitlán	14	Cerro de Oro	3	Marzo	2023-03-25T00:00:00	2024-11-08T15:00:00	2	Temperatura media	22
139266	7	Sololá	719	Santiago Atitlán	14	Cerro de Oro	3	Marzo	2023-03-25T00:00:00	2024-11-08T15:00:00	4	Temperatura máxima	23.1
139267	7	Sololá	719	Santiago Atitlán	14	Cerro de Oro	3	Marzo	2023-03-25T00:00:00	2024-11-08T15:00:00	3	Temperatura mínima	22
139268	7	Sololá	719	Santiago Atitlán	14	Cerro de Oro	3	Marzo	2023-03-25T00:00:00	2024-11-08T15:00:00	5	Humedad	69
139269	7	Sololá	719	Santiago Atitlán	14	Cerro de Oro	3	Marzo	2023-03-25T00:00:00	2024-11-08T15:00:00	6	Velocidad del viento	12.9
139270	7	Sololá	719	Santiago Atitlán	14	Cerro de Oro	3	Marzo	2023-03-25T00:00:00	2024-11-08T15:00:00	7	Dirección del viento	12.87
139271	7	Sololá	719	Santiago Atitlán	14	Cerro de Oro	3	Marzo	2023-03-25T00:00:00	2024-11-08T15:00:00	1	Precipitación	0
139272	7	Sololá	719	Santiago Atitlán	14	Cerro de Oro	3	Marzo	2023-03-25T00:00:00	2024-11-08T15:00:00	8	Radiación solar	309
139273	7	Sololá	719	Santiago Atitlán	14	Cerro de Oro	3	Marzo	2023-03-25T00:00:00	2024-11-08T16:00:00	2	Temperatura media	21.7
139274	7	Sololá	719	Santiago Atitlán	14	Cerro de Oro	3	Marzo	2023-03-25T00:00:00	2024-11-08T16:00:00	4	Temperatura máxima	22
139275	7	Sololá	719	Santiago Atitlán	14	Cerro de Oro	3	Marzo	2023-03-25T00:00:00	2024-11-08T16:00:00	3	Temperatura mínima	21
139276	7	Sololá	719	Santiago Atitlán	14	Cerro de Oro	3	Marzo	2023-03-25T00:00:00	2024-11-08T16:00:00	5	Humedad	69
139277	7	Sololá	719	Santiago Atitlán	14	Cerro de Oro	3	Marzo	2023-03-25T00:00:00	2024-11-08T16:00:00	6	Velocidad del viento	12.9
139278	7	Sololá	719	Santiago Atitlán	14	Cerro de Oro	3	Marzo	2023-03-25T00:00:00	2024-11-08T16:00:00	7	Dirección del viento	12.87
139279	7	Sololá	719	Santiago Atitlán	14	Cerro de Oro	3	Marzo	2023-03-25T00:00:00	2024-11-08T16:00:00	1	Precipitación	0
139280	7	Sololá	719	Santiago Atitlán	14	Cerro de Oro	3	Marzo	2023-03-25T00:00:00	2024-11-08T16:00:00	8	Radiación solar	122
139281	7	Sololá	719	Santiago Atitlán	14	Cerro de Oro	3	Marzo	2023-03-25T00:00:00	2024-11-08T17:00:00	2	Temperatura media	20.6
139282	7	Sololá	719	Santiago Atitlán	14	Cerro de Oro	3	Marzo	2023-03-25T00:00:00	2024-11-08T17:00:00	4	Temperatura máxima	21.8
139283	7	Sololá	719	Santiago Atitlán	14	Cerro de Oro	3	Marzo	2023-03-25T00:00:00	2024-11-08T17:00:00	3	Temperatura mínima	20.3
139284	7	Sololá	719	Santiago Atitlán	14	Cerro de Oro	3	Marzo	2023-03-25T00:00:00	2024-11-08T17:00:00	5	Humedad	77
139285	7	Sololá	719	Santiago Atitlán	14	Cerro de Oro	3	Marzo	2023-03-25T00:00:00	2024-11-08T17:00:00	6	Velocidad del viento	8
139286	7	Sololá	719	Santiago Atitlán	14	Cerro de Oro	3	Marzo	2023-03-25T00:00:00	2024-11-08T17:00:00	7	Dirección del viento	8.05
139287	7	Sololá	719	Santiago Atitlán	14	Cerro de Oro	3	Marzo	2023-03-25T00:00:00	2024-11-08T17:00:00	1	Precipitación	0
139288	7	Sololá	719	Santiago Atitlán	14	Cerro de Oro	3	Marzo	2023-03-25T00:00:00	2024-11-08T17:00:00	8	Radiación solar	164
139289	7	Sololá	719	Santiago Atitlán	14	Cerro de Oro	3	Marzo	2023-03-25T00:00:00	2024-11-08T18:00:00	2	Temperatura media	20.9
139290	7	Sololá	719	Santiago Atitlán	14	Cerro de Oro	3	Marzo	2023-03-25T00:00:00	2024-11-08T18:00:00	4	Temperatura máxima	21.2
139291	7	Sololá	719	Santiago Atitlán	14	Cerro de Oro	3	Marzo	2023-03-25T00:00:00	2024-11-08T18:00:00	3	Temperatura mínima	20.6
139292	7	Sololá	719	Santiago Atitlán	14	Cerro de Oro	3	Marzo	2023-03-25T00:00:00	2024-11-08T18:00:00	5	Humedad	79
139293	7	Sololá	719	Santiago Atitlán	14	Cerro de Oro	3	Marzo	2023-03-25T00:00:00	2024-11-08T18:00:00	6	Velocidad del viento	4.8
139294	7	Sololá	719	Santiago Atitlán	14	Cerro de Oro	3	Marzo	2023-03-25T00:00:00	2024-11-08T18:00:00	7	Dirección del viento	4.83
139295	7	Sololá	719	Santiago Atitlán	14	Cerro de Oro	3	Marzo	2023-03-25T00:00:00	2024-11-08T18:00:00	1	Precipitación	0
139296	7	Sololá	719	Santiago Atitlán	14	Cerro de Oro	3	Marzo	2023-03-25T00:00:00	2024-11-08T18:00:00	8	Radiación solar	57
139297	7	Sololá	719	Santiago Atitlán	14	Cerro de Oro	3	Marzo	2023-03-25T00:00:00	2024-11-08T19:00:00	2	Temperatura media	20
139298	7	Sololá	719	Santiago Atitlán	14	Cerro de Oro	3	Marzo	2023-03-25T00:00:00	2024-11-08T19:00:00	4	Temperatura máxima	20.9
139299	7	Sololá	719	Santiago Atitlán	14	Cerro de Oro	3	Marzo	2023-03-25T00:00:00	2024-11-08T19:00:00	3	Temperatura mínima	20
139300	7	Sololá	719	Santiago Atitlán	14	Cerro de Oro	3	Marzo	2023-03-25T00:00:00	2024-11-08T19:00:00	5	Humedad	79
139301	7	Sololá	719	Santiago Atitlán	14	Cerro de Oro	3	Marzo	2023-03-25T00:00:00	2024-11-08T19:00:00	6	Velocidad del viento	3.2
139302	7	Sololá	719	Santiago Atitlán	14	Cerro de Oro	3	Marzo	2023-03-25T00:00:00	2024-11-08T19:00:00	7	Dirección del viento	3.22
139303	7	Sololá	719	Santiago Atitlán	14	Cerro de Oro	3	Marzo	2023-03-25T00:00:00	2024-11-08T19:00:00	1	Precipitación	0
139304	7	Sololá	719	Santiago Atitlán	14	Cerro de Oro	3	Marzo	2023-03-25T00:00:00	2024-11-08T19:00:00	8	Radiación solar	0
139305	7	Sololá	719	Santiago Atitlán	14	Cerro de Oro	3	Marzo	2023-03-25T00:00:00	2024-11-08T20:00:00	2	Temperatura media	19.1
139306	7	Sololá	719	Santiago Atitlán	14	Cerro de Oro	3	Marzo	2023-03-25T00:00:00	2024-11-08T20:00:00	4	Temperatura máxima	20
139307	7	Sololá	719	Santiago Atitlán	14	Cerro de Oro	3	Marzo	2023-03-25T00:00:00	2024-11-08T20:00:00	3	Temperatura mínima	19.1
139308	7	Sololá	719	Santiago Atitlán	14	Cerro de Oro	3	Marzo	2023-03-25T00:00:00	2024-11-08T20:00:00	5	Humedad	82
139309	7	Sololá	719	Santiago Atitlán	14	Cerro de Oro	3	Marzo	2023-03-25T00:00:00	2024-11-08T20:00:00	6	Velocidad del viento	3.2
139310	7	Sololá	719	Santiago Atitlán	14	Cerro de Oro	3	Marzo	2023-03-25T00:00:00	2024-11-08T20:00:00	7	Dirección del viento	3.22
139311	7	Sololá	719	Santiago Atitlán	14	Cerro de Oro	3	Marzo	2023-03-25T00:00:00	2024-11-08T20:00:00	1	Precipitación	0
139312	7	Sololá	719	Santiago Atitlán	14	Cerro de Oro	3	Marzo	2023-03-25T00:00:00	2024-11-08T20:00:00	8	Radiación solar	0
139313	7	Sololá	719	Santiago Atitlán	14	Cerro de Oro	3	Marzo	2023-03-25T00:00:00	2024-11-08T21:00:00	2	Temperatura media	18.6
139314	7	Sololá	719	Santiago Atitlán	14	Cerro de Oro	3	Marzo	2023-03-25T00:00:00	2024-11-08T21:00:00	4	Temperatura máxima	19.1
139315	7	Sololá	719	Santiago Atitlán	14	Cerro de Oro	3	Marzo	2023-03-25T00:00:00	2024-11-08T21:00:00	3	Temperatura mínima	18.4
139316	7	Sololá	719	Santiago Atitlán	14	Cerro de Oro	3	Marzo	2023-03-25T00:00:00	2024-11-08T21:00:00	5	Humedad	84
139317	7	Sololá	719	Santiago Atitlán	14	Cerro de Oro	3	Marzo	2023-03-25T00:00:00	2024-11-08T21:00:00	6	Velocidad del viento	3.2
139318	7	Sololá	719	Santiago Atitlán	14	Cerro de Oro	3	Marzo	2023-03-25T00:00:00	2024-11-08T21:00:00	7	Dirección del viento	3.22
139319	7	Sololá	719	Santiago Atitlán	14	Cerro de Oro	3	Marzo	2023-03-25T00:00:00	2024-11-08T21:00:00	1	Precipitación	0
139320	7	Sololá	719	Santiago Atitlán	14	Cerro de Oro	3	Marzo	2023-03-25T00:00:00	2024-11-08T21:00:00	8	Radiación solar	0
139321	7	Sololá	719	Santiago Atitlán	14	Cerro de Oro	3	Marzo	2023-03-25T00:00:00	2024-11-08T22:00:00	2	Temperatura media	17.7
139322	7	Sololá	719	Santiago Atitlán	14	Cerro de Oro	3	Marzo	2023-03-25T00:00:00	2024-11-08T22:00:00	4	Temperatura máxima	18.5
139323	7	Sololá	719	Santiago Atitlán	14	Cerro de Oro	3	Marzo	2023-03-25T00:00:00	2024-11-08T22:00:00	3	Temperatura mínima	17.7
139324	7	Sololá	719	Santiago Atitlán	14	Cerro de Oro	3	Marzo	2023-03-25T00:00:00	2024-11-08T22:00:00	5	Humedad	85
139325	7	Sololá	719	Santiago Atitlán	14	Cerro de Oro	3	Marzo	2023-03-25T00:00:00	2024-11-08T22:00:00	6	Velocidad del viento	3.2
139326	7	Sololá	719	Santiago Atitlán	14	Cerro de Oro	3	Marzo	2023-03-25T00:00:00	2024-11-08T22:00:00	7	Dirección del viento	3.22
139327	7	Sololá	719	Santiago Atitlán	14	Cerro de Oro	3	Marzo	2023-03-25T00:00:00	2024-11-08T22:00:00	1	Precipitación	0
139328	7	Sololá	719	Santiago Atitlán	14	Cerro de Oro	3	Marzo	2023-03-25T00:00:00	2024-11-08T22:00:00	8	Radiación solar	0
139329	7	Sololá	719	Santiago Atitlán	14	Cerro de Oro	3	Marzo	2023-03-25T00:00:00	2024-11-08T23:00:00	2	Temperatura media	17.9
139330	7	Sololá	719	Santiago Atitlán	14	Cerro de Oro	3	Marzo	2023-03-25T00:00:00	2024-11-08T23:00:00	4	Temperatura máxima	18
139331	7	Sololá	719	Santiago Atitlán	14	Cerro de Oro	3	Marzo	2023-03-25T00:00:00	2024-11-08T23:00:00	3	Temperatura mínima	17.6
139332	7	Sololá	719	Santiago Atitlán	14	Cerro de Oro	3	Marzo	2023-03-25T00:00:00	2024-11-08T23:00:00	5	Humedad	85
139333	7	Sololá	719	Santiago Atitlán	14	Cerro de Oro	3	Marzo	2023-03-25T00:00:00	2024-11-08T23:00:00	6	Velocidad del viento	3.2
139334	7	Sololá	719	Santiago Atitlán	14	Cerro de Oro	3	Marzo	2023-03-25T00:00:00	2024-11-08T23:00:00	7	Dirección del viento	3.22
139335	7	Sololá	719	Santiago Atitlán	14	Cerro de Oro	3	Marzo	2023-03-25T00:00:00	2024-11-08T23:00:00	1	Precipitación	0
139336	7	Sololá	719	Santiago Atitlán	14	Cerro de Oro	3	Marzo	2023-03-25T00:00:00	2024-11-08T23:00:00	8	Radiación solar	0
139337	7	Sololá	719	Santiago Atitlán	14	Cerro de Oro	3	Marzo	2023-03-26T00:00:00	2024-11-08T00:00:00	2	Temperatura media	18.2
139338	7	Sololá	719	Santiago Atitlán	14	Cerro de Oro	3	Marzo	2023-03-26T00:00:00	2024-11-08T00:00:00	4	Temperatura máxima	18.2
139339	7	Sololá	719	Santiago Atitlán	14	Cerro de Oro	3	Marzo	2023-03-26T00:00:00	2024-11-08T00:00:00	3	Temperatura mínima	17.7
139340	7	Sololá	719	Santiago Atitlán	14	Cerro de Oro	3	Marzo	2023-03-26T00:00:00	2024-11-08T00:00:00	5	Humedad	86
139341	7	Sololá	719	Santiago Atitlán	14	Cerro de Oro	3	Marzo	2023-03-26T00:00:00	2024-11-08T00:00:00	6	Velocidad del viento	4.8
139342	7	Sololá	719	Santiago Atitlán	14	Cerro de Oro	3	Marzo	2023-03-26T00:00:00	2024-11-08T00:00:00	7	Dirección del viento	4.83
139343	7	Sololá	719	Santiago Atitlán	14	Cerro de Oro	3	Marzo	2023-03-26T00:00:00	2024-11-08T00:00:00	1	Precipitación	0
139344	7	Sololá	719	Santiago Atitlán	14	Cerro de Oro	3	Marzo	2023-03-26T00:00:00	2024-11-08T00:00:00	8	Radiación solar	0
139345	7	Sololá	719	Santiago Atitlán	14	Cerro de Oro	3	Marzo	2023-03-26T00:00:00	2024-11-08T01:00:00	2	Temperatura media	17.8
139346	7	Sololá	719	Santiago Atitlán	14	Cerro de Oro	3	Marzo	2023-03-26T00:00:00	2024-11-08T01:00:00	4	Temperatura máxima	18.2
139347	7	Sololá	719	Santiago Atitlán	14	Cerro de Oro	3	Marzo	2023-03-26T00:00:00	2024-11-08T01:00:00	3	Temperatura mínima	17.6
139348	7	Sololá	719	Santiago Atitlán	14	Cerro de Oro	3	Marzo	2023-03-26T00:00:00	2024-11-08T01:00:00	5	Humedad	87
139349	7	Sololá	719	Santiago Atitlán	14	Cerro de Oro	3	Marzo	2023-03-26T00:00:00	2024-11-08T01:00:00	6	Velocidad del viento	3.2
139350	7	Sololá	719	Santiago Atitlán	14	Cerro de Oro	3	Marzo	2023-03-26T00:00:00	2024-11-08T01:00:00	7	Dirección del viento	3.22
139351	7	Sololá	719	Santiago Atitlán	14	Cerro de Oro	3	Marzo	2023-03-26T00:00:00	2024-11-08T01:00:00	1	Precipitación	0
139352	7	Sololá	719	Santiago Atitlán	14	Cerro de Oro	3	Marzo	2023-03-26T00:00:00	2024-11-08T01:00:00	8	Radiación solar	0
139353	7	Sololá	719	Santiago Atitlán	14	Cerro de Oro	3	Marzo	2023-03-26T00:00:00	2024-11-08T02:00:00	2	Temperatura media	17.3
139354	7	Sololá	719	Santiago Atitlán	14	Cerro de Oro	3	Marzo	2023-03-26T00:00:00	2024-11-08T02:00:00	4	Temperatura máxima	17.8
139355	7	Sololá	719	Santiago Atitlán	14	Cerro de Oro	3	Marzo	2023-03-26T00:00:00	2024-11-08T02:00:00	3	Temperatura mínima	17.3
139356	7	Sololá	719	Santiago Atitlán	14	Cerro de Oro	3	Marzo	2023-03-26T00:00:00	2024-11-08T02:00:00	5	Humedad	87
139357	7	Sololá	719	Santiago Atitlán	14	Cerro de Oro	3	Marzo	2023-03-26T00:00:00	2024-11-08T02:00:00	6	Velocidad del viento	3.2
139358	7	Sololá	719	Santiago Atitlán	14	Cerro de Oro	3	Marzo	2023-03-26T00:00:00	2024-11-08T02:00:00	7	Dirección del viento	3.22
139359	7	Sololá	719	Santiago Atitlán	14	Cerro de Oro	3	Marzo	2023-03-26T00:00:00	2024-11-08T02:00:00	1	Precipitación	0
139360	7	Sololá	719	Santiago Atitlán	14	Cerro de Oro	3	Marzo	2023-03-26T00:00:00	2024-11-08T02:00:00	8	Radiación solar	0
139361	7	Sololá	719	Santiago Atitlán	14	Cerro de Oro	3	Marzo	2023-03-26T00:00:00	2024-11-08T03:00:00	2	Temperatura media	17.1
139362	7	Sololá	719	Santiago Atitlán	14	Cerro de Oro	3	Marzo	2023-03-26T00:00:00	2024-11-08T03:00:00	4	Temperatura máxima	17.3
139363	7	Sololá	719	Santiago Atitlán	14	Cerro de Oro	3	Marzo	2023-03-26T00:00:00	2024-11-08T03:00:00	3	Temperatura mínima	17
139364	7	Sololá	719	Santiago Atitlán	14	Cerro de Oro	3	Marzo	2023-03-26T00:00:00	2024-11-08T03:00:00	5	Humedad	89
139365	7	Sololá	719	Santiago Atitlán	14	Cerro de Oro	3	Marzo	2023-03-26T00:00:00	2024-11-08T03:00:00	6	Velocidad del viento	4.8
139366	7	Sololá	719	Santiago Atitlán	14	Cerro de Oro	3	Marzo	2023-03-26T00:00:00	2024-11-08T03:00:00	7	Dirección del viento	4.83
139367	7	Sololá	719	Santiago Atitlán	14	Cerro de Oro	3	Marzo	2023-03-26T00:00:00	2024-11-08T03:00:00	1	Precipitación	0
139368	7	Sololá	719	Santiago Atitlán	14	Cerro de Oro	3	Marzo	2023-03-26T00:00:00	2024-11-08T03:00:00	8	Radiación solar	0
139369	7	Sololá	719	Santiago Atitlán	14	Cerro de Oro	3	Marzo	2023-03-26T00:00:00	2024-11-08T04:00:00	2	Temperatura media	17
139370	7	Sololá	719	Santiago Atitlán	14	Cerro de Oro	3	Marzo	2023-03-26T00:00:00	2024-11-08T04:00:00	4	Temperatura máxima	17.1
139371	7	Sololá	719	Santiago Atitlán	14	Cerro de Oro	3	Marzo	2023-03-26T00:00:00	2024-11-08T04:00:00	3	Temperatura mínima	16.8
139372	7	Sololá	719	Santiago Atitlán	14	Cerro de Oro	3	Marzo	2023-03-26T00:00:00	2024-11-08T04:00:00	5	Humedad	90
139373	7	Sololá	719	Santiago Atitlán	14	Cerro de Oro	3	Marzo	2023-03-26T00:00:00	2024-11-08T04:00:00	6	Velocidad del viento	4.8
139374	7	Sololá	719	Santiago Atitlán	14	Cerro de Oro	3	Marzo	2023-03-26T00:00:00	2024-11-08T04:00:00	7	Dirección del viento	4.83
139375	7	Sololá	719	Santiago Atitlán	14	Cerro de Oro	3	Marzo	2023-03-26T00:00:00	2024-11-08T04:00:00	1	Precipitación	0
139376	7	Sololá	719	Santiago Atitlán	14	Cerro de Oro	3	Marzo	2023-03-26T00:00:00	2024-11-08T04:00:00	8	Radiación solar	0
139377	7	Sololá	719	Santiago Atitlán	14	Cerro de Oro	3	Marzo	2023-03-26T00:00:00	2024-11-08T05:00:00	2	Temperatura media	16.7
139378	7	Sololá	719	Santiago Atitlán	14	Cerro de Oro	3	Marzo	2023-03-26T00:00:00	2024-11-08T05:00:00	4	Temperatura máxima	17.1
139379	7	Sololá	719	Santiago Atitlán	14	Cerro de Oro	3	Marzo	2023-03-26T00:00:00	2024-11-08T05:00:00	3	Temperatura mínima	16.6
139380	7	Sololá	719	Santiago Atitlán	14	Cerro de Oro	3	Marzo	2023-03-26T00:00:00	2024-11-08T05:00:00	5	Humedad	87
139381	7	Sololá	719	Santiago Atitlán	14	Cerro de Oro	3	Marzo	2023-03-26T00:00:00	2024-11-08T05:00:00	6	Velocidad del viento	8
139382	7	Sololá	719	Santiago Atitlán	14	Cerro de Oro	3	Marzo	2023-03-26T00:00:00	2024-11-08T05:00:00	7	Dirección del viento	8.05
139383	7	Sololá	719	Santiago Atitlán	14	Cerro de Oro	3	Marzo	2023-03-26T00:00:00	2024-11-08T05:00:00	1	Precipitación	0
139384	7	Sololá	719	Santiago Atitlán	14	Cerro de Oro	3	Marzo	2023-03-26T00:00:00	2024-11-08T05:00:00	8	Radiación solar	0
139385	7	Sololá	719	Santiago Atitlán	14	Cerro de Oro	3	Marzo	2023-03-26T00:00:00	2024-11-08T06:00:00	2	Temperatura media	16.5
139386	7	Sololá	719	Santiago Atitlán	14	Cerro de Oro	3	Marzo	2023-03-26T00:00:00	2024-11-08T06:00:00	4	Temperatura máxima	16.8
139387	7	Sololá	719	Santiago Atitlán	14	Cerro de Oro	3	Marzo	2023-03-26T00:00:00	2024-11-08T06:00:00	3	Temperatura mínima	16.5
139388	7	Sololá	719	Santiago Atitlán	14	Cerro de Oro	3	Marzo	2023-03-26T00:00:00	2024-11-08T06:00:00	5	Humedad	80
139389	7	Sololá	719	Santiago Atitlán	14	Cerro de Oro	3	Marzo	2023-03-26T00:00:00	2024-11-08T06:00:00	6	Velocidad del viento	11.3
139390	7	Sololá	719	Santiago Atitlán	14	Cerro de Oro	3	Marzo	2023-03-26T00:00:00	2024-11-08T06:00:00	7	Dirección del viento	11.27
139391	7	Sololá	719	Santiago Atitlán	14	Cerro de Oro	3	Marzo	2023-03-26T00:00:00	2024-11-08T06:00:00	1	Precipitación	0
139392	7	Sololá	719	Santiago Atitlán	14	Cerro de Oro	3	Marzo	2023-03-26T00:00:00	2024-11-08T06:00:00	8	Radiación solar	0
139393	7	Sololá	719	Santiago Atitlán	14	Cerro de Oro	3	Marzo	2023-03-26T00:00:00	2024-11-08T07:00:00	2	Temperatura media	16.3
139394	7	Sololá	719	Santiago Atitlán	14	Cerro de Oro	3	Marzo	2023-03-26T00:00:00	2024-11-08T07:00:00	4	Temperatura máxima	16.5
139395	7	Sololá	719	Santiago Atitlán	14	Cerro de Oro	3	Marzo	2023-03-26T00:00:00	2024-11-08T07:00:00	3	Temperatura mínima	16.2
139396	7	Sololá	719	Santiago Atitlán	14	Cerro de Oro	3	Marzo	2023-03-26T00:00:00	2024-11-08T07:00:00	5	Humedad	82
139397	7	Sololá	719	Santiago Atitlán	14	Cerro de Oro	3	Marzo	2023-03-26T00:00:00	2024-11-08T07:00:00	6	Velocidad del viento	9.7
139398	7	Sololá	719	Santiago Atitlán	14	Cerro de Oro	3	Marzo	2023-03-26T00:00:00	2024-11-08T07:00:00	7	Dirección del viento	9.66
139399	7	Sololá	719	Santiago Atitlán	14	Cerro de Oro	3	Marzo	2023-03-26T00:00:00	2024-11-08T07:00:00	1	Precipitación	0
139400	7	Sololá	719	Santiago Atitlán	14	Cerro de Oro	3	Marzo	2023-03-26T00:00:00	2024-11-08T07:00:00	8	Radiación solar	26
139401	7	Sololá	719	Santiago Atitlán	14	Cerro de Oro	3	Marzo	2023-03-26T00:00:00	2024-11-08T08:00:00	2	Temperatura media	16.7
139402	7	Sololá	719	Santiago Atitlán	14	Cerro de Oro	3	Marzo	2023-03-26T00:00:00	2024-11-08T08:00:00	4	Temperatura máxima	16.7
139403	7	Sololá	719	Santiago Atitlán	14	Cerro de Oro	3	Marzo	2023-03-26T00:00:00	2024-11-08T08:00:00	3	Temperatura mínima	16.2
139404	7	Sololá	719	Santiago Atitlán	14	Cerro de Oro	3	Marzo	2023-03-26T00:00:00	2024-11-08T08:00:00	5	Humedad	84
139405	7	Sololá	719	Santiago Atitlán	14	Cerro de Oro	3	Marzo	2023-03-26T00:00:00	2024-11-08T08:00:00	6	Velocidad del viento	6.4
139406	7	Sololá	719	Santiago Atitlán	14	Cerro de Oro	3	Marzo	2023-03-26T00:00:00	2024-11-08T08:00:00	7	Dirección del viento	6.44
139407	7	Sololá	719	Santiago Atitlán	14	Cerro de Oro	3	Marzo	2023-03-26T00:00:00	2024-11-08T08:00:00	1	Precipitación	0
139408	7	Sololá	719	Santiago Atitlán	14	Cerro de Oro	3	Marzo	2023-03-26T00:00:00	2024-11-08T08:00:00	8	Radiación solar	78
139409	7	Sololá	719	Santiago Atitlán	14	Cerro de Oro	3	Marzo	2023-03-26T00:00:00	2024-11-08T09:00:00	2	Temperatura media	17.1
139410	7	Sololá	719	Santiago Atitlán	14	Cerro de Oro	3	Marzo	2023-03-26T00:00:00	2024-11-08T09:00:00	4	Temperatura máxima	17.1
139411	7	Sololá	719	Santiago Atitlán	14	Cerro de Oro	3	Marzo	2023-03-26T00:00:00	2024-11-08T09:00:00	3	Temperatura mínima	16.7
139412	7	Sololá	719	Santiago Atitlán	14	Cerro de Oro	3	Marzo	2023-03-26T00:00:00	2024-11-08T09:00:00	5	Humedad	84
139413	7	Sololá	719	Santiago Atitlán	14	Cerro de Oro	3	Marzo	2023-03-26T00:00:00	2024-11-08T09:00:00	6	Velocidad del viento	6.4
139414	7	Sololá	719	Santiago Atitlán	14	Cerro de Oro	3	Marzo	2023-03-26T00:00:00	2024-11-08T09:00:00	7	Dirección del viento	6.44
139415	7	Sololá	719	Santiago Atitlán	14	Cerro de Oro	3	Marzo	2023-03-26T00:00:00	2024-11-08T09:00:00	1	Precipitación	0
139416	7	Sololá	719	Santiago Atitlán	14	Cerro de Oro	3	Marzo	2023-03-26T00:00:00	2024-11-08T09:00:00	8	Radiación solar	282
139417	7	Sololá	719	Santiago Atitlán	14	Cerro de Oro	3	Marzo	2023-03-26T00:00:00	2024-11-08T10:00:00	2	Temperatura media	18.9
139418	7	Sololá	719	Santiago Atitlán	14	Cerro de Oro	3	Marzo	2023-03-26T00:00:00	2024-11-08T10:00:00	4	Temperatura máxima	18.9
139419	7	Sololá	719	Santiago Atitlán	14	Cerro de Oro	3	Marzo	2023-03-26T00:00:00	2024-11-08T10:00:00	3	Temperatura mínima	17.1
139420	7	Sololá	719	Santiago Atitlán	14	Cerro de Oro	3	Marzo	2023-03-26T00:00:00	2024-11-08T10:00:00	5	Humedad	76
139421	7	Sololá	719	Santiago Atitlán	14	Cerro de Oro	3	Marzo	2023-03-26T00:00:00	2024-11-08T10:00:00	6	Velocidad del viento	6.4
139422	7	Sololá	719	Santiago Atitlán	14	Cerro de Oro	3	Marzo	2023-03-26T00:00:00	2024-11-08T10:00:00	7	Dirección del viento	6.44
139423	7	Sololá	719	Santiago Atitlán	14	Cerro de Oro	3	Marzo	2023-03-26T00:00:00	2024-11-08T10:00:00	1	Precipitación	0
139424	7	Sololá	719	Santiago Atitlán	14	Cerro de Oro	3	Marzo	2023-03-26T00:00:00	2024-11-08T10:00:00	8	Radiación solar	652
139425	7	Sololá	719	Santiago Atitlán	14	Cerro de Oro	3	Marzo	2023-03-26T00:00:00	2024-11-08T11:00:00	2	Temperatura media	21.1
139426	7	Sololá	719	Santiago Atitlán	14	Cerro de Oro	3	Marzo	2023-03-26T00:00:00	2024-11-08T11:00:00	4	Temperatura máxima	21.2
139427	7	Sololá	719	Santiago Atitlán	14	Cerro de Oro	3	Marzo	2023-03-26T00:00:00	2024-11-08T11:00:00	3	Temperatura mínima	18.9
139428	7	Sololá	719	Santiago Atitlán	14	Cerro de Oro	3	Marzo	2023-03-26T00:00:00	2024-11-08T11:00:00	5	Humedad	68
139429	7	Sololá	719	Santiago Atitlán	14	Cerro de Oro	3	Marzo	2023-03-26T00:00:00	2024-11-08T11:00:00	6	Velocidad del viento	4.8
139430	7	Sololá	719	Santiago Atitlán	14	Cerro de Oro	3	Marzo	2023-03-26T00:00:00	2024-11-08T11:00:00	7	Dirección del viento	4.83
139431	7	Sololá	719	Santiago Atitlán	14	Cerro de Oro	3	Marzo	2023-03-26T00:00:00	2024-11-08T11:00:00	1	Precipitación	0
139432	7	Sololá	719	Santiago Atitlán	14	Cerro de Oro	3	Marzo	2023-03-26T00:00:00	2024-11-08T11:00:00	8	Radiación solar	556
139433	7	Sololá	719	Santiago Atitlán	14	Cerro de Oro	3	Marzo	2023-03-26T00:00:00	2024-11-08T12:00:00	2	Temperatura media	21.8
139434	7	Sololá	719	Santiago Atitlán	14	Cerro de Oro	3	Marzo	2023-03-26T00:00:00	2024-11-08T12:00:00	4	Temperatura máxima	21.8
139435	7	Sololá	719	Santiago Atitlán	14	Cerro de Oro	3	Marzo	2023-03-26T00:00:00	2024-11-08T12:00:00	3	Temperatura mínima	19.9
139436	7	Sololá	719	Santiago Atitlán	14	Cerro de Oro	3	Marzo	2023-03-26T00:00:00	2024-11-08T12:00:00	5	Humedad	68
139437	7	Sololá	719	Santiago Atitlán	14	Cerro de Oro	3	Marzo	2023-03-26T00:00:00	2024-11-08T12:00:00	6	Velocidad del viento	4.8
139438	7	Sololá	719	Santiago Atitlán	14	Cerro de Oro	3	Marzo	2023-03-26T00:00:00	2024-11-08T12:00:00	7	Dirección del viento	4.83
139439	7	Sololá	719	Santiago Atitlán	14	Cerro de Oro	3	Marzo	2023-03-26T00:00:00	2024-11-08T12:00:00	1	Precipitación	0
139440	7	Sololá	719	Santiago Atitlán	14	Cerro de Oro	3	Marzo	2023-03-26T00:00:00	2024-11-08T12:00:00	8	Radiación solar	989
139441	7	Sololá	719	Santiago Atitlán	14	Cerro de Oro	3	Marzo	2023-03-26T00:00:00	2024-11-08T13:00:00	2	Temperatura media	22.5
139442	7	Sololá	719	Santiago Atitlán	14	Cerro de Oro	3	Marzo	2023-03-26T00:00:00	2024-11-08T13:00:00	4	Temperatura máxima	22.6
139443	7	Sololá	719	Santiago Atitlán	14	Cerro de Oro	3	Marzo	2023-03-26T00:00:00	2024-11-08T13:00:00	3	Temperatura mínima	21.8
139444	7	Sololá	719	Santiago Atitlán	14	Cerro de Oro	3	Marzo	2023-03-26T00:00:00	2024-11-08T13:00:00	5	Humedad	65
139445	7	Sololá	719	Santiago Atitlán	14	Cerro de Oro	3	Marzo	2023-03-26T00:00:00	2024-11-08T13:00:00	6	Velocidad del viento	11.3
139446	7	Sololá	719	Santiago Atitlán	14	Cerro de Oro	3	Marzo	2023-03-26T00:00:00	2024-11-08T13:00:00	7	Dirección del viento	11.27
139447	7	Sololá	719	Santiago Atitlán	14	Cerro de Oro	3	Marzo	2023-03-26T00:00:00	2024-11-08T13:00:00	1	Precipitación	0
139448	7	Sololá	719	Santiago Atitlán	14	Cerro de Oro	3	Marzo	2023-03-26T00:00:00	2024-11-08T13:00:00	8	Radiación solar	949
139449	7	Sololá	719	Santiago Atitlán	14	Cerro de Oro	3	Marzo	2023-03-26T00:00:00	2024-11-08T14:00:00	2	Temperatura media	22.8
139450	7	Sololá	719	Santiago Atitlán	14	Cerro de Oro	3	Marzo	2023-03-26T00:00:00	2024-11-08T14:00:00	4	Temperatura máxima	23.1
139451	7	Sololá	719	Santiago Atitlán	14	Cerro de Oro	3	Marzo	2023-03-26T00:00:00	2024-11-08T14:00:00	3	Temperatura mínima	22.2
139452	7	Sololá	719	Santiago Atitlán	14	Cerro de Oro	3	Marzo	2023-03-26T00:00:00	2024-11-08T14:00:00	5	Humedad	67
139453	7	Sololá	719	Santiago Atitlán	14	Cerro de Oro	3	Marzo	2023-03-26T00:00:00	2024-11-08T14:00:00	6	Velocidad del viento	11.3
139454	7	Sololá	719	Santiago Atitlán	14	Cerro de Oro	3	Marzo	2023-03-26T00:00:00	2024-11-08T14:00:00	7	Dirección del viento	11.27
139455	7	Sololá	719	Santiago Atitlán	14	Cerro de Oro	3	Marzo	2023-03-26T00:00:00	2024-11-08T14:00:00	1	Precipitación	0
139456	7	Sololá	719	Santiago Atitlán	14	Cerro de Oro	3	Marzo	2023-03-26T00:00:00	2024-11-08T14:00:00	8	Radiación solar	876
139457	7	Sololá	719	Santiago Atitlán	14	Cerro de Oro	3	Marzo	2023-03-26T00:00:00	2024-11-08T15:00:00	2	Temperatura media	22.1
139458	7	Sololá	719	Santiago Atitlán	14	Cerro de Oro	3	Marzo	2023-03-26T00:00:00	2024-11-08T15:00:00	4	Temperatura máxima	22.8
139459	7	Sololá	719	Santiago Atitlán	14	Cerro de Oro	3	Marzo	2023-03-26T00:00:00	2024-11-08T15:00:00	3	Temperatura mínima	22.1
139460	7	Sololá	719	Santiago Atitlán	14	Cerro de Oro	3	Marzo	2023-03-26T00:00:00	2024-11-08T15:00:00	5	Humedad	71
139461	7	Sololá	719	Santiago Atitlán	14	Cerro de Oro	3	Marzo	2023-03-26T00:00:00	2024-11-08T15:00:00	6	Velocidad del viento	12.9
139462	7	Sololá	719	Santiago Atitlán	14	Cerro de Oro	3	Marzo	2023-03-26T00:00:00	2024-11-08T15:00:00	7	Dirección del viento	12.87
139463	7	Sololá	719	Santiago Atitlán	14	Cerro de Oro	3	Marzo	2023-03-26T00:00:00	2024-11-08T15:00:00	1	Precipitación	0
139464	7	Sololá	719	Santiago Atitlán	14	Cerro de Oro	3	Marzo	2023-03-26T00:00:00	2024-11-08T15:00:00	8	Radiación solar	687
139465	7	Sololá	719	Santiago Atitlán	14	Cerro de Oro	3	Marzo	2023-03-26T00:00:00	2024-11-08T16:00:00	2	Temperatura media	21.3
139466	7	Sololá	719	Santiago Atitlán	14	Cerro de Oro	3	Marzo	2023-03-26T00:00:00	2024-11-08T16:00:00	4	Temperatura máxima	22.3
139467	7	Sololá	719	Santiago Atitlán	14	Cerro de Oro	3	Marzo	2023-03-26T00:00:00	2024-11-08T16:00:00	3	Temperatura mínima	21.1
139468	7	Sololá	719	Santiago Atitlán	14	Cerro de Oro	3	Marzo	2023-03-26T00:00:00	2024-11-08T16:00:00	5	Humedad	73
139469	7	Sololá	719	Santiago Atitlán	14	Cerro de Oro	3	Marzo	2023-03-26T00:00:00	2024-11-08T16:00:00	6	Velocidad del viento	12.9
139470	7	Sololá	719	Santiago Atitlán	14	Cerro de Oro	3	Marzo	2023-03-26T00:00:00	2024-11-08T16:00:00	7	Dirección del viento	12.87
139471	7	Sololá	719	Santiago Atitlán	14	Cerro de Oro	3	Marzo	2023-03-26T00:00:00	2024-11-08T16:00:00	1	Precipitación	0
139472	7	Sololá	719	Santiago Atitlán	14	Cerro de Oro	3	Marzo	2023-03-26T00:00:00	2024-11-08T16:00:00	8	Radiación solar	327
139473	7	Sololá	719	Santiago Atitlán	14	Cerro de Oro	3	Marzo	2023-03-26T00:00:00	2024-11-08T17:00:00	2	Temperatura media	20.4
139474	7	Sololá	719	Santiago Atitlán	14	Cerro de Oro	3	Marzo	2023-03-26T00:00:00	2024-11-08T17:00:00	4	Temperatura máxima	21.7
139475	7	Sololá	719	Santiago Atitlán	14	Cerro de Oro	3	Marzo	2023-03-26T00:00:00	2024-11-08T17:00:00	3	Temperatura mínima	20.4
139476	7	Sololá	719	Santiago Atitlán	14	Cerro de Oro	3	Marzo	2023-03-26T00:00:00	2024-11-08T17:00:00	5	Humedad	79
139477	7	Sololá	719	Santiago Atitlán	14	Cerro de Oro	3	Marzo	2023-03-26T00:00:00	2024-11-08T17:00:00	6	Velocidad del viento	11.3
139478	7	Sololá	719	Santiago Atitlán	14	Cerro de Oro	3	Marzo	2023-03-26T00:00:00	2024-11-08T17:00:00	7	Dirección del viento	11.27
139479	7	Sololá	719	Santiago Atitlán	14	Cerro de Oro	3	Marzo	2023-03-26T00:00:00	2024-11-08T17:00:00	1	Precipitación	0
139480	7	Sololá	719	Santiago Atitlán	14	Cerro de Oro	3	Marzo	2023-03-26T00:00:00	2024-11-08T17:00:00	8	Radiación solar	128
139481	7	Sololá	719	Santiago Atitlán	14	Cerro de Oro	3	Marzo	2023-03-26T00:00:00	2024-11-08T18:00:00	2	Temperatura media	19.8
139482	7	Sololá	719	Santiago Atitlán	14	Cerro de Oro	3	Marzo	2023-03-26T00:00:00	2024-11-08T18:00:00	4	Temperatura máxima	20.6
139483	7	Sololá	719	Santiago Atitlán	14	Cerro de Oro	3	Marzo	2023-03-26T00:00:00	2024-11-08T18:00:00	3	Temperatura mínima	19.7
139484	7	Sololá	719	Santiago Atitlán	14	Cerro de Oro	3	Marzo	2023-03-26T00:00:00	2024-11-08T18:00:00	5	Humedad	81
139485	7	Sololá	719	Santiago Atitlán	14	Cerro de Oro	3	Marzo	2023-03-26T00:00:00	2024-11-08T18:00:00	6	Velocidad del viento	9.7
139486	7	Sololá	719	Santiago Atitlán	14	Cerro de Oro	3	Marzo	2023-03-26T00:00:00	2024-11-08T18:00:00	7	Dirección del viento	9.66
139487	7	Sololá	719	Santiago Atitlán	14	Cerro de Oro	3	Marzo	2023-03-26T00:00:00	2024-11-08T18:00:00	1	Precipitación	0
139488	7	Sololá	719	Santiago Atitlán	14	Cerro de Oro	3	Marzo	2023-03-26T00:00:00	2024-11-08T18:00:00	8	Radiación solar	64
139489	7	Sololá	719	Santiago Atitlán	14	Cerro de Oro	3	Marzo	2023-03-26T00:00:00	2024-11-08T19:00:00	2	Temperatura media	19.4
139490	7	Sololá	719	Santiago Atitlán	14	Cerro de Oro	3	Marzo	2023-03-26T00:00:00	2024-11-08T19:00:00	4	Temperatura máxima	19.8
139491	7	Sololá	719	Santiago Atitlán	14	Cerro de Oro	3	Marzo	2023-03-26T00:00:00	2024-11-08T19:00:00	3	Temperatura mínima	19.4
139492	7	Sololá	719	Santiago Atitlán	14	Cerro de Oro	3	Marzo	2023-03-26T00:00:00	2024-11-08T19:00:00	5	Humedad	83
139493	7	Sololá	719	Santiago Atitlán	14	Cerro de Oro	3	Marzo	2023-03-26T00:00:00	2024-11-08T19:00:00	6	Velocidad del viento	4.8
139494	7	Sololá	719	Santiago Atitlán	14	Cerro de Oro	3	Marzo	2023-03-26T00:00:00	2024-11-08T19:00:00	7	Dirección del viento	4.83
139495	7	Sololá	719	Santiago Atitlán	14	Cerro de Oro	3	Marzo	2023-03-26T00:00:00	2024-11-08T19:00:00	1	Precipitación	0
139496	7	Sololá	719	Santiago Atitlán	14	Cerro de Oro	3	Marzo	2023-03-26T00:00:00	2024-11-08T19:00:00	8	Radiación solar	0
139497	7	Sololá	719	Santiago Atitlán	14	Cerro de Oro	3	Marzo	2023-03-26T00:00:00	2024-11-08T20:00:00	2	Temperatura media	18.4
139498	7	Sololá	719	Santiago Atitlán	14	Cerro de Oro	3	Marzo	2023-03-26T00:00:00	2024-11-08T20:00:00	4	Temperatura máxima	19.4
139499	7	Sololá	719	Santiago Atitlán	14	Cerro de Oro	3	Marzo	2023-03-26T00:00:00	2024-11-08T20:00:00	3	Temperatura mínima	18.4
139500	7	Sololá	719	Santiago Atitlán	14	Cerro de Oro	3	Marzo	2023-03-26T00:00:00	2024-11-08T20:00:00	5	Humedad	86
139501	7	Sololá	719	Santiago Atitlán	14	Cerro de Oro	3	Marzo	2023-03-26T00:00:00	2024-11-08T20:00:00	6	Velocidad del viento	4.8
139502	7	Sololá	719	Santiago Atitlán	14	Cerro de Oro	3	Marzo	2023-03-26T00:00:00	2024-11-08T20:00:00	7	Dirección del viento	4.83
139503	7	Sololá	719	Santiago Atitlán	14	Cerro de Oro	3	Marzo	2023-03-26T00:00:00	2024-11-08T20:00:00	1	Precipitación	0
139504	7	Sololá	719	Santiago Atitlán	14	Cerro de Oro	3	Marzo	2023-03-26T00:00:00	2024-11-08T20:00:00	8	Radiación solar	0
139505	7	Sololá	719	Santiago Atitlán	14	Cerro de Oro	3	Marzo	2023-03-26T00:00:00	2024-11-08T21:00:00	2	Temperatura media	18
139506	7	Sololá	719	Santiago Atitlán	14	Cerro de Oro	3	Marzo	2023-03-26T00:00:00	2024-11-08T21:00:00	4	Temperatura máxima	18.4
139507	7	Sololá	719	Santiago Atitlán	14	Cerro de Oro	3	Marzo	2023-03-26T00:00:00	2024-11-08T21:00:00	3	Temperatura mínima	18
139508	7	Sololá	719	Santiago Atitlán	14	Cerro de Oro	3	Marzo	2023-03-26T00:00:00	2024-11-08T21:00:00	5	Humedad	85
139509	7	Sololá	719	Santiago Atitlán	14	Cerro de Oro	3	Marzo	2023-03-26T00:00:00	2024-11-08T21:00:00	6	Velocidad del viento	3.2
139510	7	Sololá	719	Santiago Atitlán	14	Cerro de Oro	3	Marzo	2023-03-26T00:00:00	2024-11-08T21:00:00	7	Dirección del viento	3.22
139511	7	Sololá	719	Santiago Atitlán	14	Cerro de Oro	3	Marzo	2023-03-26T00:00:00	2024-11-08T21:00:00	1	Precipitación	0
139512	7	Sololá	719	Santiago Atitlán	14	Cerro de Oro	3	Marzo	2023-03-26T00:00:00	2024-11-08T21:00:00	8	Radiación solar	0
139513	7	Sololá	719	Santiago Atitlán	14	Cerro de Oro	3	Marzo	2023-03-26T00:00:00	2024-11-08T22:00:00	2	Temperatura media	18
139514	7	Sololá	719	Santiago Atitlán	14	Cerro de Oro	3	Marzo	2023-03-26T00:00:00	2024-11-08T22:00:00	4	Temperatura máxima	18
139515	7	Sololá	719	Santiago Atitlán	14	Cerro de Oro	3	Marzo	2023-03-26T00:00:00	2024-11-08T22:00:00	3	Temperatura mínima	17.7
139516	7	Sololá	719	Santiago Atitlán	14	Cerro de Oro	3	Marzo	2023-03-26T00:00:00	2024-11-08T22:00:00	5	Humedad	85
139517	7	Sololá	719	Santiago Atitlán	14	Cerro de Oro	3	Marzo	2023-03-26T00:00:00	2024-11-08T22:00:00	6	Velocidad del viento	4.8
139518	7	Sololá	719	Santiago Atitlán	14	Cerro de Oro	3	Marzo	2023-03-26T00:00:00	2024-11-08T22:00:00	7	Dirección del viento	4.83
139519	7	Sololá	719	Santiago Atitlán	14	Cerro de Oro	3	Marzo	2023-03-26T00:00:00	2024-11-08T22:00:00	1	Precipitación	0
139520	7	Sololá	719	Santiago Atitlán	14	Cerro de Oro	3	Marzo	2023-03-26T00:00:00	2024-11-08T22:00:00	8	Radiación solar	0
139521	7	Sololá	719	Santiago Atitlán	14	Cerro de Oro	3	Marzo	2023-03-26T00:00:00	2024-11-08T23:00:00	2	Temperatura media	18.1
139522	7	Sololá	719	Santiago Atitlán	14	Cerro de Oro	3	Marzo	2023-03-26T00:00:00	2024-11-08T23:00:00	4	Temperatura máxima	18.2
139523	7	Sololá	719	Santiago Atitlán	14	Cerro de Oro	3	Marzo	2023-03-26T00:00:00	2024-11-08T23:00:00	3	Temperatura mínima	17.9
139524	7	Sololá	719	Santiago Atitlán	14	Cerro de Oro	3	Marzo	2023-03-26T00:00:00	2024-11-08T23:00:00	5	Humedad	85
139525	7	Sololá	719	Santiago Atitlán	14	Cerro de Oro	3	Marzo	2023-03-26T00:00:00	2024-11-08T23:00:00	6	Velocidad del viento	1.6
139526	7	Sololá	719	Santiago Atitlán	14	Cerro de Oro	3	Marzo	2023-03-26T00:00:00	2024-11-08T23:00:00	7	Dirección del viento	1.61
139527	7	Sololá	719	Santiago Atitlán	14	Cerro de Oro	3	Marzo	2023-03-26T00:00:00	2024-11-08T23:00:00	1	Precipitación	0
139528	7	Sololá	719	Santiago Atitlán	14	Cerro de Oro	3	Marzo	2023-03-26T00:00:00	2024-11-08T23:00:00	8	Radiación solar	0
139529	7	Sololá	719	Santiago Atitlán	14	Cerro de Oro	3	Marzo	2023-03-27T00:00:00	2024-11-08T00:00:00	2	Temperatura media	18.2
139530	7	Sololá	719	Santiago Atitlán	14	Cerro de Oro	3	Marzo	2023-03-27T00:00:00	2024-11-08T00:00:00	4	Temperatura máxima	18.2
139531	7	Sololá	719	Santiago Atitlán	14	Cerro de Oro	3	Marzo	2023-03-27T00:00:00	2024-11-08T00:00:00	3	Temperatura mínima	17.8
139532	7	Sololá	719	Santiago Atitlán	14	Cerro de Oro	3	Marzo	2023-03-27T00:00:00	2024-11-08T00:00:00	5	Humedad	84
139533	7	Sololá	719	Santiago Atitlán	14	Cerro de Oro	3	Marzo	2023-03-27T00:00:00	2024-11-08T00:00:00	6	Velocidad del viento	3.2
139534	7	Sololá	719	Santiago Atitlán	14	Cerro de Oro	3	Marzo	2023-03-27T00:00:00	2024-11-08T00:00:00	7	Dirección del viento	3.22
139535	7	Sololá	719	Santiago Atitlán	14	Cerro de Oro	3	Marzo	2023-03-27T00:00:00	2024-11-08T00:00:00	1	Precipitación	0
139536	7	Sololá	719	Santiago Atitlán	14	Cerro de Oro	3	Marzo	2023-03-27T00:00:00	2024-11-08T00:00:00	8	Radiación solar	0
139537	7	Sololá	719	Santiago Atitlán	14	Cerro de Oro	3	Marzo	2023-03-27T00:00:00	2024-11-08T01:00:00	2	Temperatura media	17.5
139538	7	Sololá	719	Santiago Atitlán	14	Cerro de Oro	3	Marzo	2023-03-27T00:00:00	2024-11-08T01:00:00	4	Temperatura máxima	18.4
139539	7	Sololá	719	Santiago Atitlán	14	Cerro de Oro	3	Marzo	2023-03-27T00:00:00	2024-11-08T01:00:00	3	Temperatura mínima	17.5
139540	7	Sololá	719	Santiago Atitlán	14	Cerro de Oro	3	Marzo	2023-03-27T00:00:00	2024-11-08T01:00:00	5	Humedad	85
139541	7	Sololá	719	Santiago Atitlán	14	Cerro de Oro	3	Marzo	2023-03-27T00:00:00	2024-11-08T01:00:00	6	Velocidad del viento	3.2
139542	7	Sololá	719	Santiago Atitlán	14	Cerro de Oro	3	Marzo	2023-03-27T00:00:00	2024-11-08T01:00:00	7	Dirección del viento	3.22
139543	7	Sololá	719	Santiago Atitlán	14	Cerro de Oro	3	Marzo	2023-03-27T00:00:00	2024-11-08T01:00:00	1	Precipitación	0
139544	7	Sololá	719	Santiago Atitlán	14	Cerro de Oro	3	Marzo	2023-03-27T00:00:00	2024-11-08T01:00:00	8	Radiación solar	0
139545	7	Sololá	719	Santiago Atitlán	14	Cerro de Oro	3	Marzo	2023-03-27T00:00:00	2024-11-08T02:00:00	2	Temperatura media	17.3
139546	7	Sololá	719	Santiago Atitlán	14	Cerro de Oro	3	Marzo	2023-03-27T00:00:00	2024-11-08T02:00:00	4	Temperatura máxima	17.6
139547	7	Sololá	719	Santiago Atitlán	14	Cerro de Oro	3	Marzo	2023-03-27T00:00:00	2024-11-08T02:00:00	3	Temperatura mínima	17.1
139548	7	Sololá	719	Santiago Atitlán	14	Cerro de Oro	3	Marzo	2023-03-27T00:00:00	2024-11-08T02:00:00	5	Humedad	86
139549	7	Sololá	719	Santiago Atitlán	14	Cerro de Oro	3	Marzo	2023-03-27T00:00:00	2024-11-08T02:00:00	6	Velocidad del viento	4.8
139550	7	Sololá	719	Santiago Atitlán	14	Cerro de Oro	3	Marzo	2023-03-27T00:00:00	2024-11-08T02:00:00	7	Dirección del viento	4.83
139551	7	Sololá	719	Santiago Atitlán	14	Cerro de Oro	3	Marzo	2023-03-27T00:00:00	2024-11-08T02:00:00	1	Precipitación	0
139552	7	Sololá	719	Santiago Atitlán	14	Cerro de Oro	3	Marzo	2023-03-27T00:00:00	2024-11-08T02:00:00	8	Radiación solar	0
139553	7	Sololá	719	Santiago Atitlán	14	Cerro de Oro	3	Marzo	2023-03-27T00:00:00	2024-11-08T03:00:00	2	Temperatura media	17.3
139554	7	Sololá	719	Santiago Atitlán	14	Cerro de Oro	3	Marzo	2023-03-27T00:00:00	2024-11-08T03:00:00	4	Temperatura máxima	17.7
139555	7	Sololá	719	Santiago Atitlán	14	Cerro de Oro	3	Marzo	2023-03-27T00:00:00	2024-11-08T03:00:00	3	Temperatura mínima	17.1
139556	7	Sololá	719	Santiago Atitlán	14	Cerro de Oro	3	Marzo	2023-03-27T00:00:00	2024-11-08T03:00:00	5	Humedad	85
139557	7	Sololá	719	Santiago Atitlán	14	Cerro de Oro	3	Marzo	2023-03-27T00:00:00	2024-11-08T03:00:00	6	Velocidad del viento	4.8
139558	7	Sololá	719	Santiago Atitlán	14	Cerro de Oro	3	Marzo	2023-03-27T00:00:00	2024-11-08T03:00:00	7	Dirección del viento	4.83
139559	7	Sololá	719	Santiago Atitlán	14	Cerro de Oro	3	Marzo	2023-03-27T00:00:00	2024-11-08T03:00:00	1	Precipitación	0
139560	7	Sololá	719	Santiago Atitlán	14	Cerro de Oro	3	Marzo	2023-03-27T00:00:00	2024-11-08T03:00:00	8	Radiación solar	0
139561	7	Sololá	719	Santiago Atitlán	14	Cerro de Oro	3	Marzo	2023-03-27T00:00:00	2024-11-08T04:00:00	2	Temperatura media	16.3
139562	7	Sololá	719	Santiago Atitlán	14	Cerro de Oro	3	Marzo	2023-03-27T00:00:00	2024-11-08T04:00:00	4	Temperatura máxima	17.3
139563	7	Sololá	719	Santiago Atitlán	14	Cerro de Oro	3	Marzo	2023-03-27T00:00:00	2024-11-08T04:00:00	3	Temperatura mínima	16.2
139564	7	Sololá	719	Santiago Atitlán	14	Cerro de Oro	3	Marzo	2023-03-27T00:00:00	2024-11-08T04:00:00	5	Humedad	86
139565	7	Sololá	719	Santiago Atitlán	14	Cerro de Oro	3	Marzo	2023-03-27T00:00:00	2024-11-08T04:00:00	6	Velocidad del viento	3.2
139566	7	Sololá	719	Santiago Atitlán	14	Cerro de Oro	3	Marzo	2023-03-27T00:00:00	2024-11-08T04:00:00	7	Dirección del viento	3.22
139567	7	Sololá	719	Santiago Atitlán	14	Cerro de Oro	3	Marzo	2023-03-27T00:00:00	2024-11-08T04:00:00	1	Precipitación	0
139568	7	Sololá	719	Santiago Atitlán	14	Cerro de Oro	3	Marzo	2023-03-27T00:00:00	2024-11-08T04:00:00	8	Radiación solar	0
139569	7	Sololá	719	Santiago Atitlán	14	Cerro de Oro	3	Marzo	2023-03-27T00:00:00	2024-11-08T05:00:00	2	Temperatura media	16.1
139570	7	Sololá	719	Santiago Atitlán	14	Cerro de Oro	3	Marzo	2023-03-27T00:00:00	2024-11-08T05:00:00	4	Temperatura máxima	16.4
139571	7	Sololá	719	Santiago Atitlán	14	Cerro de Oro	3	Marzo	2023-03-27T00:00:00	2024-11-08T05:00:00	3	Temperatura mínima	16
139572	7	Sololá	719	Santiago Atitlán	14	Cerro de Oro	3	Marzo	2023-03-27T00:00:00	2024-11-08T05:00:00	5	Humedad	89
139573	7	Sololá	719	Santiago Atitlán	14	Cerro de Oro	3	Marzo	2023-03-27T00:00:00	2024-11-08T05:00:00	6	Velocidad del viento	4.8
139574	7	Sololá	719	Santiago Atitlán	14	Cerro de Oro	3	Marzo	2023-03-27T00:00:00	2024-11-08T05:00:00	7	Dirección del viento	4.83
139575	7	Sololá	719	Santiago Atitlán	14	Cerro de Oro	3	Marzo	2023-03-27T00:00:00	2024-11-08T05:00:00	1	Precipitación	0
139576	7	Sololá	719	Santiago Atitlán	14	Cerro de Oro	3	Marzo	2023-03-27T00:00:00	2024-11-08T05:00:00	8	Radiación solar	0
139577	7	Sololá	719	Santiago Atitlán	14	Cerro de Oro	3	Marzo	2023-03-27T00:00:00	2024-11-08T06:00:00	2	Temperatura media	15.4
139578	7	Sololá	719	Santiago Atitlán	14	Cerro de Oro	3	Marzo	2023-03-27T00:00:00	2024-11-08T06:00:00	4	Temperatura máxima	16.6
139579	7	Sololá	719	Santiago Atitlán	14	Cerro de Oro	3	Marzo	2023-03-27T00:00:00	2024-11-08T06:00:00	3	Temperatura mínima	15.4
139580	7	Sololá	719	Santiago Atitlán	14	Cerro de Oro	3	Marzo	2023-03-27T00:00:00	2024-11-08T06:00:00	5	Humedad	86
139581	7	Sololá	719	Santiago Atitlán	14	Cerro de Oro	3	Marzo	2023-03-27T00:00:00	2024-11-08T06:00:00	6	Velocidad del viento	3.2
139582	7	Sololá	719	Santiago Atitlán	14	Cerro de Oro	3	Marzo	2023-03-27T00:00:00	2024-11-08T06:00:00	7	Dirección del viento	3.22
139583	7	Sololá	719	Santiago Atitlán	14	Cerro de Oro	3	Marzo	2023-03-27T00:00:00	2024-11-08T06:00:00	1	Precipitación	0
139584	7	Sololá	719	Santiago Atitlán	14	Cerro de Oro	3	Marzo	2023-03-27T00:00:00	2024-11-08T06:00:00	8	Radiación solar	0
139585	7	Sololá	719	Santiago Atitlán	14	Cerro de Oro	3	Marzo	2023-03-27T00:00:00	2024-11-08T07:00:00	2	Temperatura media	16.2
139586	7	Sololá	719	Santiago Atitlán	14	Cerro de Oro	3	Marzo	2023-03-27T00:00:00	2024-11-08T07:00:00	4	Temperatura máxima	16.5
139587	7	Sololá	719	Santiago Atitlán	14	Cerro de Oro	3	Marzo	2023-03-27T00:00:00	2024-11-08T07:00:00	3	Temperatura mínima	15.3
139588	7	Sololá	719	Santiago Atitlán	14	Cerro de Oro	3	Marzo	2023-03-27T00:00:00	2024-11-08T07:00:00	5	Humedad	80
139589	7	Sololá	719	Santiago Atitlán	14	Cerro de Oro	3	Marzo	2023-03-27T00:00:00	2024-11-08T07:00:00	6	Velocidad del viento	4.8
139590	7	Sololá	719	Santiago Atitlán	14	Cerro de Oro	3	Marzo	2023-03-27T00:00:00	2024-11-08T07:00:00	7	Dirección del viento	4.83
139591	7	Sololá	719	Santiago Atitlán	14	Cerro de Oro	3	Marzo	2023-03-27T00:00:00	2024-11-08T07:00:00	1	Precipitación	0
139592	7	Sololá	719	Santiago Atitlán	14	Cerro de Oro	3	Marzo	2023-03-27T00:00:00	2024-11-08T07:00:00	8	Radiación solar	48
139593	7	Sololá	719	Santiago Atitlán	14	Cerro de Oro	3	Marzo	2023-03-27T00:00:00	2024-11-08T08:00:00	2	Temperatura media	17.6
139594	7	Sololá	719	Santiago Atitlán	14	Cerro de Oro	3	Marzo	2023-03-27T00:00:00	2024-11-08T08:00:00	4	Temperatura máxima	17.6
139595	7	Sololá	719	Santiago Atitlán	14	Cerro de Oro	3	Marzo	2023-03-27T00:00:00	2024-11-08T08:00:00	3	Temperatura mínima	15.7
139596	7	Sololá	719	Santiago Atitlán	14	Cerro de Oro	3	Marzo	2023-03-27T00:00:00	2024-11-08T08:00:00	5	Humedad	79
139597	7	Sololá	719	Santiago Atitlán	14	Cerro de Oro	3	Marzo	2023-03-27T00:00:00	2024-11-08T08:00:00	6	Velocidad del viento	3.2
139598	7	Sololá	719	Santiago Atitlán	14	Cerro de Oro	3	Marzo	2023-03-27T00:00:00	2024-11-08T08:00:00	7	Dirección del viento	3.22
139599	7	Sololá	719	Santiago Atitlán	14	Cerro de Oro	3	Marzo	2023-03-27T00:00:00	2024-11-08T08:00:00	1	Precipitación	0
139600	7	Sololá	719	Santiago Atitlán	14	Cerro de Oro	3	Marzo	2023-03-27T00:00:00	2024-11-08T08:00:00	8	Radiación solar	197
139601	7	Sololá	719	Santiago Atitlán	14	Cerro de Oro	3	Marzo	2023-03-27T00:00:00	2024-11-08T09:00:00	2	Temperatura media	19
139602	7	Sololá	719	Santiago Atitlán	14	Cerro de Oro	3	Marzo	2023-03-27T00:00:00	2024-11-08T09:00:00	4	Temperatura máxima	19.1
139603	7	Sololá	719	Santiago Atitlán	14	Cerro de Oro	3	Marzo	2023-03-27T00:00:00	2024-11-08T09:00:00	3	Temperatura mínima	17.7
139604	7	Sololá	719	Santiago Atitlán	14	Cerro de Oro	3	Marzo	2023-03-27T00:00:00	2024-11-08T09:00:00	5	Humedad	76
139605	7	Sololá	719	Santiago Atitlán	14	Cerro de Oro	3	Marzo	2023-03-27T00:00:00	2024-11-08T09:00:00	6	Velocidad del viento	3.2
139606	7	Sololá	719	Santiago Atitlán	14	Cerro de Oro	3	Marzo	2023-03-27T00:00:00	2024-11-08T09:00:00	7	Dirección del viento	3.22
139607	7	Sololá	719	Santiago Atitlán	14	Cerro de Oro	3	Marzo	2023-03-27T00:00:00	2024-11-08T09:00:00	1	Precipitación	0
139608	7	Sololá	719	Santiago Atitlán	14	Cerro de Oro	3	Marzo	2023-03-27T00:00:00	2024-11-08T09:00:00	8	Radiación solar	387
139609	7	Sololá	719	Santiago Atitlán	14	Cerro de Oro	3	Marzo	2023-03-27T00:00:00	2024-11-08T10:00:00	2	Temperatura media	20.1
139610	7	Sololá	719	Santiago Atitlán	14	Cerro de Oro	3	Marzo	2023-03-27T00:00:00	2024-11-08T10:00:00	4	Temperatura máxima	20.1
139611	7	Sololá	719	Santiago Atitlán	14	Cerro de Oro	3	Marzo	2023-03-27T00:00:00	2024-11-08T10:00:00	3	Temperatura mínima	19
139612	7	Sololá	719	Santiago Atitlán	14	Cerro de Oro	3	Marzo	2023-03-27T00:00:00	2024-11-08T10:00:00	5	Humedad	71
139613	7	Sololá	719	Santiago Atitlán	14	Cerro de Oro	3	Marzo	2023-03-27T00:00:00	2024-11-08T10:00:00	6	Velocidad del viento	8
139614	7	Sololá	719	Santiago Atitlán	14	Cerro de Oro	3	Marzo	2023-03-27T00:00:00	2024-11-08T10:00:00	7	Dirección del viento	8.05
139615	7	Sololá	719	Santiago Atitlán	14	Cerro de Oro	3	Marzo	2023-03-27T00:00:00	2024-11-08T10:00:00	1	Precipitación	0
139616	7	Sololá	719	Santiago Atitlán	14	Cerro de Oro	3	Marzo	2023-03-27T00:00:00	2024-11-08T10:00:00	8	Radiación solar	671
139617	7	Sololá	719	Santiago Atitlán	14	Cerro de Oro	3	Marzo	2023-03-27T00:00:00	2024-11-08T11:00:00	2	Temperatura media	22.4
139618	7	Sololá	719	Santiago Atitlán	14	Cerro de Oro	3	Marzo	2023-03-27T00:00:00	2024-11-08T11:00:00	4	Temperatura máxima	22.5
139619	7	Sololá	719	Santiago Atitlán	14	Cerro de Oro	3	Marzo	2023-03-27T00:00:00	2024-11-08T11:00:00	3	Temperatura mínima	20.1
139620	7	Sololá	719	Santiago Atitlán	14	Cerro de Oro	3	Marzo	2023-03-27T00:00:00	2024-11-08T11:00:00	5	Humedad	62
139621	7	Sololá	719	Santiago Atitlán	14	Cerro de Oro	3	Marzo	2023-03-27T00:00:00	2024-11-08T11:00:00	6	Velocidad del viento	6.4
139622	7	Sololá	719	Santiago Atitlán	14	Cerro de Oro	3	Marzo	2023-03-27T00:00:00	2024-11-08T11:00:00	7	Dirección del viento	6.44
139623	7	Sololá	719	Santiago Atitlán	14	Cerro de Oro	3	Marzo	2023-03-27T00:00:00	2024-11-08T11:00:00	1	Precipitación	0
139624	7	Sololá	719	Santiago Atitlán	14	Cerro de Oro	3	Marzo	2023-03-27T00:00:00	2024-11-08T11:00:00	8	Radiación solar	826
139625	7	Sololá	719	Santiago Atitlán	14	Cerro de Oro	3	Marzo	2023-03-27T00:00:00	2024-11-08T12:00:00	2	Temperatura media	22.1
139626	7	Sololá	719	Santiago Atitlán	14	Cerro de Oro	3	Marzo	2023-03-27T00:00:00	2024-11-08T12:00:00	4	Temperatura máxima	22.4
139627	7	Sololá	719	Santiago Atitlán	14	Cerro de Oro	3	Marzo	2023-03-27T00:00:00	2024-11-08T12:00:00	3	Temperatura mínima	20.9
139628	7	Sololá	719	Santiago Atitlán	14	Cerro de Oro	3	Marzo	2023-03-27T00:00:00	2024-11-08T12:00:00	5	Humedad	65
139629	7	Sololá	719	Santiago Atitlán	14	Cerro de Oro	3	Marzo	2023-03-27T00:00:00	2024-11-08T12:00:00	6	Velocidad del viento	8
139630	7	Sololá	719	Santiago Atitlán	14	Cerro de Oro	3	Marzo	2023-03-27T00:00:00	2024-11-08T12:00:00	7	Dirección del viento	8.05
139631	7	Sololá	719	Santiago Atitlán	14	Cerro de Oro	3	Marzo	2023-03-27T00:00:00	2024-11-08T12:00:00	1	Precipitación	0
139632	7	Sololá	719	Santiago Atitlán	14	Cerro de Oro	3	Marzo	2023-03-27T00:00:00	2024-11-08T12:00:00	8	Radiación solar	953
139633	7	Sololá	719	Santiago Atitlán	14	Cerro de Oro	3	Marzo	2023-03-27T00:00:00	2024-11-08T13:00:00	2	Temperatura media	23.1
139634	7	Sololá	719	Santiago Atitlán	14	Cerro de Oro	3	Marzo	2023-03-27T00:00:00	2024-11-08T13:00:00	4	Temperatura máxima	23.6
139635	7	Sololá	719	Santiago Atitlán	14	Cerro de Oro	3	Marzo	2023-03-27T00:00:00	2024-11-08T13:00:00	3	Temperatura mínima	21.8
139636	7	Sololá	719	Santiago Atitlán	14	Cerro de Oro	3	Marzo	2023-03-27T00:00:00	2024-11-08T13:00:00	5	Humedad	67
139637	7	Sololá	719	Santiago Atitlán	14	Cerro de Oro	3	Marzo	2023-03-27T00:00:00	2024-11-08T13:00:00	6	Velocidad del viento	9.7
139638	7	Sololá	719	Santiago Atitlán	14	Cerro de Oro	3	Marzo	2023-03-27T00:00:00	2024-11-08T13:00:00	7	Dirección del viento	9.66
139639	7	Sololá	719	Santiago Atitlán	14	Cerro de Oro	3	Marzo	2023-03-27T00:00:00	2024-11-08T13:00:00	1	Precipitación	0
139640	7	Sololá	719	Santiago Atitlán	14	Cerro de Oro	3	Marzo	2023-03-27T00:00:00	2024-11-08T13:00:00	8	Radiación solar	989
139641	7	Sololá	719	Santiago Atitlán	14	Cerro de Oro	3	Marzo	2023-03-27T00:00:00	2024-11-08T14:00:00	2	Temperatura media	22.8
139642	7	Sololá	719	Santiago Atitlán	14	Cerro de Oro	3	Marzo	2023-03-27T00:00:00	2024-11-08T14:00:00	4	Temperatura máxima	23.3
139643	7	Sololá	719	Santiago Atitlán	14	Cerro de Oro	3	Marzo	2023-03-27T00:00:00	2024-11-08T14:00:00	3	Temperatura mínima	22.7
139644	7	Sololá	719	Santiago Atitlán	14	Cerro de Oro	3	Marzo	2023-03-27T00:00:00	2024-11-08T14:00:00	5	Humedad	67
139645	7	Sololá	719	Santiago Atitlán	14	Cerro de Oro	3	Marzo	2023-03-27T00:00:00	2024-11-08T14:00:00	6	Velocidad del viento	14.5
139646	7	Sololá	719	Santiago Atitlán	14	Cerro de Oro	3	Marzo	2023-03-27T00:00:00	2024-11-08T14:00:00	7	Dirección del viento	14.48
139647	7	Sololá	719	Santiago Atitlán	14	Cerro de Oro	3	Marzo	2023-03-27T00:00:00	2024-11-08T14:00:00	1	Precipitación	0
139648	7	Sololá	719	Santiago Atitlán	14	Cerro de Oro	3	Marzo	2023-03-27T00:00:00	2024-11-08T14:00:00	8	Radiación solar	719
139649	7	Sololá	719	Santiago Atitlán	14	Cerro de Oro	3	Marzo	2023-03-27T00:00:00	2024-11-08T15:00:00	2	Temperatura media	21.9
139650	7	Sololá	719	Santiago Atitlán	14	Cerro de Oro	3	Marzo	2023-03-27T00:00:00	2024-11-08T15:00:00	4	Temperatura máxima	23.3
139651	7	Sololá	719	Santiago Atitlán	14	Cerro de Oro	3	Marzo	2023-03-27T00:00:00	2024-11-08T15:00:00	3	Temperatura mínima	21.9
139652	7	Sololá	719	Santiago Atitlán	14	Cerro de Oro	3	Marzo	2023-03-27T00:00:00	2024-11-08T15:00:00	5	Humedad	73
139653	7	Sololá	719	Santiago Atitlán	14	Cerro de Oro	3	Marzo	2023-03-27T00:00:00	2024-11-08T15:00:00	6	Velocidad del viento	14.5
139654	7	Sololá	719	Santiago Atitlán	14	Cerro de Oro	3	Marzo	2023-03-27T00:00:00	2024-11-08T15:00:00	7	Dirección del viento	14.48
139655	7	Sololá	719	Santiago Atitlán	14	Cerro de Oro	3	Marzo	2023-03-27T00:00:00	2024-11-08T15:00:00	1	Precipitación	0
139656	7	Sololá	719	Santiago Atitlán	14	Cerro de Oro	3	Marzo	2023-03-27T00:00:00	2024-11-08T15:00:00	8	Radiación solar	365
139657	7	Sololá	719	Santiago Atitlán	14	Cerro de Oro	3	Marzo	2023-03-27T00:00:00	2024-11-08T16:00:00	2	Temperatura media	21.7
139658	7	Sololá	719	Santiago Atitlán	14	Cerro de Oro	3	Marzo	2023-03-27T00:00:00	2024-11-08T16:00:00	4	Temperatura máxima	22.9
139659	7	Sololá	719	Santiago Atitlán	14	Cerro de Oro	3	Marzo	2023-03-27T00:00:00	2024-11-08T16:00:00	3	Temperatura mínima	21.7
139660	7	Sololá	719	Santiago Atitlán	14	Cerro de Oro	3	Marzo	2023-03-27T00:00:00	2024-11-08T16:00:00	5	Humedad	74
139661	7	Sololá	719	Santiago Atitlán	14	Cerro de Oro	3	Marzo	2023-03-27T00:00:00	2024-11-08T16:00:00	6	Velocidad del viento	11.3
139662	7	Sololá	719	Santiago Atitlán	14	Cerro de Oro	3	Marzo	2023-03-27T00:00:00	2024-11-08T16:00:00	7	Dirección del viento	11.27
139663	7	Sololá	719	Santiago Atitlán	14	Cerro de Oro	3	Marzo	2023-03-27T00:00:00	2024-11-08T16:00:00	1	Precipitación	0
139664	7	Sololá	719	Santiago Atitlán	14	Cerro de Oro	3	Marzo	2023-03-27T00:00:00	2024-11-08T16:00:00	8	Radiación solar	208
139665	7	Sololá	719	Santiago Atitlán	14	Cerro de Oro	3	Marzo	2023-03-27T00:00:00	2024-11-08T17:00:00	2	Temperatura media	21.4
139666	7	Sololá	719	Santiago Atitlán	14	Cerro de Oro	3	Marzo	2023-03-27T00:00:00	2024-11-08T17:00:00	4	Temperatura máxima	22.1
139667	7	Sololá	719	Santiago Atitlán	14	Cerro de Oro	3	Marzo	2023-03-27T00:00:00	2024-11-08T17:00:00	3	Temperatura mínima	21.2
139668	7	Sololá	719	Santiago Atitlán	14	Cerro de Oro	3	Marzo	2023-03-27T00:00:00	2024-11-08T17:00:00	5	Humedad	76
139669	7	Sololá	719	Santiago Atitlán	14	Cerro de Oro	3	Marzo	2023-03-27T00:00:00	2024-11-08T17:00:00	6	Velocidad del viento	11.3
139670	7	Sololá	719	Santiago Atitlán	14	Cerro de Oro	3	Marzo	2023-03-27T00:00:00	2024-11-08T17:00:00	7	Dirección del viento	11.27
139671	7	Sololá	719	Santiago Atitlán	14	Cerro de Oro	3	Marzo	2023-03-27T00:00:00	2024-11-08T17:00:00	1	Precipitación	0
139672	7	Sololá	719	Santiago Atitlán	14	Cerro de Oro	3	Marzo	2023-03-27T00:00:00	2024-11-08T17:00:00	8	Radiación solar	116
139673	7	Sololá	719	Santiago Atitlán	14	Cerro de Oro	3	Marzo	2023-03-27T00:00:00	2024-11-08T18:00:00	2	Temperatura media	20.5
139674	7	Sololá	719	Santiago Atitlán	14	Cerro de Oro	3	Marzo	2023-03-27T00:00:00	2024-11-08T18:00:00	4	Temperatura máxima	21.5
139675	7	Sololá	719	Santiago Atitlán	14	Cerro de Oro	3	Marzo	2023-03-27T00:00:00	2024-11-08T18:00:00	3	Temperatura mínima	20.5
139676	7	Sololá	719	Santiago Atitlán	14	Cerro de Oro	3	Marzo	2023-03-27T00:00:00	2024-11-08T18:00:00	5	Humedad	81
139677	7	Sololá	719	Santiago Atitlán	14	Cerro de Oro	3	Marzo	2023-03-27T00:00:00	2024-11-08T18:00:00	6	Velocidad del viento	9.7
139678	7	Sololá	719	Santiago Atitlán	14	Cerro de Oro	3	Marzo	2023-03-27T00:00:00	2024-11-08T18:00:00	7	Dirección del viento	9.66
139679	7	Sololá	719	Santiago Atitlán	14	Cerro de Oro	3	Marzo	2023-03-27T00:00:00	2024-11-08T18:00:00	1	Precipitación	0
139680	7	Sololá	719	Santiago Atitlán	14	Cerro de Oro	3	Marzo	2023-03-27T00:00:00	2024-11-08T18:00:00	8	Radiación solar	67
139681	7	Sololá	719	Santiago Atitlán	14	Cerro de Oro	3	Marzo	2023-03-27T00:00:00	2024-11-08T19:00:00	2	Temperatura media	20.4
139682	7	Sololá	719	Santiago Atitlán	14	Cerro de Oro	3	Marzo	2023-03-27T00:00:00	2024-11-08T19:00:00	4	Temperatura máxima	20.9
139683	7	Sololá	719	Santiago Atitlán	14	Cerro de Oro	3	Marzo	2023-03-27T00:00:00	2024-11-08T19:00:00	3	Temperatura mínima	20.4
139684	7	Sololá	719	Santiago Atitlán	14	Cerro de Oro	3	Marzo	2023-03-27T00:00:00	2024-11-08T19:00:00	5	Humedad	82
139685	7	Sololá	719	Santiago Atitlán	14	Cerro de Oro	3	Marzo	2023-03-27T00:00:00	2024-11-08T19:00:00	6	Velocidad del viento	6.4
139686	7	Sololá	719	Santiago Atitlán	14	Cerro de Oro	3	Marzo	2023-03-27T00:00:00	2024-11-08T19:00:00	7	Dirección del viento	6.44
139687	7	Sololá	719	Santiago Atitlán	14	Cerro de Oro	3	Marzo	2023-03-27T00:00:00	2024-11-08T19:00:00	1	Precipitación	0
139688	7	Sololá	719	Santiago Atitlán	14	Cerro de Oro	3	Marzo	2023-03-27T00:00:00	2024-11-08T19:00:00	8	Radiación solar	0
139689	7	Sololá	719	Santiago Atitlán	14	Cerro de Oro	3	Marzo	2023-03-27T00:00:00	2024-11-08T20:00:00	2	Temperatura media	19.7
139690	7	Sololá	719	Santiago Atitlán	14	Cerro de Oro	3	Marzo	2023-03-27T00:00:00	2024-11-08T20:00:00	4	Temperatura máxima	20.4
139691	7	Sololá	719	Santiago Atitlán	14	Cerro de Oro	3	Marzo	2023-03-27T00:00:00	2024-11-08T20:00:00	3	Temperatura mínima	19.6
139692	7	Sololá	719	Santiago Atitlán	14	Cerro de Oro	3	Marzo	2023-03-27T00:00:00	2024-11-08T20:00:00	5	Humedad	84
139693	7	Sololá	719	Santiago Atitlán	14	Cerro de Oro	3	Marzo	2023-03-27T00:00:00	2024-11-08T20:00:00	6	Velocidad del viento	3.2
139694	7	Sololá	719	Santiago Atitlán	14	Cerro de Oro	3	Marzo	2023-03-27T00:00:00	2024-11-08T20:00:00	7	Dirección del viento	3.22
139695	7	Sololá	719	Santiago Atitlán	14	Cerro de Oro	3	Marzo	2023-03-27T00:00:00	2024-11-08T20:00:00	1	Precipitación	0
139696	7	Sololá	719	Santiago Atitlán	14	Cerro de Oro	3	Marzo	2023-03-27T00:00:00	2024-11-08T20:00:00	8	Radiación solar	0
139697	7	Sololá	719	Santiago Atitlán	14	Cerro de Oro	3	Marzo	2023-03-27T00:00:00	2024-11-08T21:00:00	2	Temperatura media	18.9
139698	7	Sololá	719	Santiago Atitlán	14	Cerro de Oro	3	Marzo	2023-03-27T00:00:00	2024-11-08T21:00:00	4	Temperatura máxima	19.7
139699	7	Sololá	719	Santiago Atitlán	14	Cerro de Oro	3	Marzo	2023-03-27T00:00:00	2024-11-08T21:00:00	3	Temperatura mínima	18.9
139700	7	Sololá	719	Santiago Atitlán	14	Cerro de Oro	3	Marzo	2023-03-27T00:00:00	2024-11-08T21:00:00	5	Humedad	85
139701	7	Sololá	719	Santiago Atitlán	14	Cerro de Oro	3	Marzo	2023-03-27T00:00:00	2024-11-08T21:00:00	6	Velocidad del viento	4.8
139702	7	Sololá	719	Santiago Atitlán	14	Cerro de Oro	3	Marzo	2023-03-27T00:00:00	2024-11-08T21:00:00	7	Dirección del viento	4.83
139703	7	Sololá	719	Santiago Atitlán	14	Cerro de Oro	3	Marzo	2023-03-27T00:00:00	2024-11-08T21:00:00	1	Precipitación	0
139704	7	Sololá	719	Santiago Atitlán	14	Cerro de Oro	3	Marzo	2023-03-27T00:00:00	2024-11-08T21:00:00	8	Radiación solar	0
139705	7	Sololá	719	Santiago Atitlán	14	Cerro de Oro	3	Marzo	2023-03-27T00:00:00	2024-11-08T22:00:00	2	Temperatura media	18.8
139706	7	Sololá	719	Santiago Atitlán	14	Cerro de Oro	3	Marzo	2023-03-27T00:00:00	2024-11-08T22:00:00	4	Temperatura máxima	19.2
139707	7	Sololá	719	Santiago Atitlán	14	Cerro de Oro	3	Marzo	2023-03-27T00:00:00	2024-11-08T22:00:00	3	Temperatura mínima	18.8
139708	7	Sololá	719	Santiago Atitlán	14	Cerro de Oro	3	Marzo	2023-03-27T00:00:00	2024-11-08T22:00:00	5	Humedad	84
139709	7	Sololá	719	Santiago Atitlán	14	Cerro de Oro	3	Marzo	2023-03-27T00:00:00	2024-11-08T22:00:00	6	Velocidad del viento	4.8
139710	7	Sololá	719	Santiago Atitlán	14	Cerro de Oro	3	Marzo	2023-03-27T00:00:00	2024-11-08T22:00:00	7	Dirección del viento	4.83
139711	7	Sololá	719	Santiago Atitlán	14	Cerro de Oro	3	Marzo	2023-03-27T00:00:00	2024-11-08T22:00:00	1	Precipitación	0
139712	7	Sololá	719	Santiago Atitlán	14	Cerro de Oro	3	Marzo	2023-03-27T00:00:00	2024-11-08T22:00:00	8	Radiación solar	0
139713	7	Sololá	719	Santiago Atitlán	14	Cerro de Oro	3	Marzo	2023-03-27T00:00:00	2024-11-08T23:00:00	2	Temperatura media	18.2
139714	7	Sololá	719	Santiago Atitlán	14	Cerro de Oro	3	Marzo	2023-03-27T00:00:00	2024-11-08T23:00:00	4	Temperatura máxima	18.8
139715	7	Sololá	719	Santiago Atitlán	14	Cerro de Oro	3	Marzo	2023-03-27T00:00:00	2024-11-08T23:00:00	3	Temperatura mínima	18.2
139716	7	Sololá	719	Santiago Atitlán	14	Cerro de Oro	3	Marzo	2023-03-27T00:00:00	2024-11-08T23:00:00	5	Humedad	85
139717	7	Sololá	719	Santiago Atitlán	14	Cerro de Oro	3	Marzo	2023-03-27T00:00:00	2024-11-08T23:00:00	6	Velocidad del viento	3.2
139718	7	Sololá	719	Santiago Atitlán	14	Cerro de Oro	3	Marzo	2023-03-27T00:00:00	2024-11-08T23:00:00	7	Dirección del viento	3.22
139719	7	Sololá	719	Santiago Atitlán	14	Cerro de Oro	3	Marzo	2023-03-27T00:00:00	2024-11-08T23:00:00	1	Precipitación	0
139720	7	Sololá	719	Santiago Atitlán	14	Cerro de Oro	3	Marzo	2023-03-27T00:00:00	2024-11-08T23:00:00	8	Radiación solar	0
139721	7	Sololá	719	Santiago Atitlán	14	Cerro de Oro	3	Marzo	2023-03-28T00:00:00	2024-11-08T00:00:00	2	Temperatura media	18.3
139722	7	Sololá	719	Santiago Atitlán	14	Cerro de Oro	3	Marzo	2023-03-28T00:00:00	2024-11-08T00:00:00	4	Temperatura máxima	18.4
139723	7	Sololá	719	Santiago Atitlán	14	Cerro de Oro	3	Marzo	2023-03-28T00:00:00	2024-11-08T00:00:00	3	Temperatura mínima	17.7
139724	7	Sololá	719	Santiago Atitlán	14	Cerro de Oro	3	Marzo	2023-03-28T00:00:00	2024-11-08T00:00:00	5	Humedad	87
139725	7	Sololá	719	Santiago Atitlán	14	Cerro de Oro	3	Marzo	2023-03-28T00:00:00	2024-11-08T00:00:00	6	Velocidad del viento	3.2
139726	7	Sololá	719	Santiago Atitlán	14	Cerro de Oro	3	Marzo	2023-03-28T00:00:00	2024-11-08T00:00:00	7	Dirección del viento	3.22
139727	7	Sololá	719	Santiago Atitlán	14	Cerro de Oro	3	Marzo	2023-03-28T00:00:00	2024-11-08T00:00:00	1	Precipitación	0
139728	7	Sololá	719	Santiago Atitlán	14	Cerro de Oro	3	Marzo	2023-03-28T00:00:00	2024-11-08T00:00:00	8	Radiación solar	0
139729	7	Sololá	719	Santiago Atitlán	14	Cerro de Oro	3	Marzo	2023-03-28T00:00:00	2024-11-08T01:00:00	2	Temperatura media	17.9
139730	7	Sololá	719	Santiago Atitlán	14	Cerro de Oro	3	Marzo	2023-03-28T00:00:00	2024-11-08T01:00:00	4	Temperatura máxima	18.4
139731	7	Sololá	719	Santiago Atitlán	14	Cerro de Oro	3	Marzo	2023-03-28T00:00:00	2024-11-08T01:00:00	3	Temperatura mínima	17.9
139732	7	Sololá	719	Santiago Atitlán	14	Cerro de Oro	3	Marzo	2023-03-28T00:00:00	2024-11-08T01:00:00	5	Humedad	85
139733	7	Sololá	719	Santiago Atitlán	14	Cerro de Oro	3	Marzo	2023-03-28T00:00:00	2024-11-08T01:00:00	6	Velocidad del viento	4.8
139734	7	Sololá	719	Santiago Atitlán	14	Cerro de Oro	3	Marzo	2023-03-28T00:00:00	2024-11-08T01:00:00	7	Dirección del viento	4.83
139735	7	Sololá	719	Santiago Atitlán	14	Cerro de Oro	3	Marzo	2023-03-28T00:00:00	2024-11-08T01:00:00	1	Precipitación	0
139736	7	Sololá	719	Santiago Atitlán	14	Cerro de Oro	3	Marzo	2023-03-28T00:00:00	2024-11-08T01:00:00	8	Radiación solar	0
139737	7	Sololá	719	Santiago Atitlán	14	Cerro de Oro	3	Marzo	2023-03-28T00:00:00	2024-11-08T02:00:00	2	Temperatura media	17.3
139738	7	Sololá	719	Santiago Atitlán	14	Cerro de Oro	3	Marzo	2023-03-28T00:00:00	2024-11-08T02:00:00	4	Temperatura máxima	17.9
139739	7	Sololá	719	Santiago Atitlán	14	Cerro de Oro	3	Marzo	2023-03-28T00:00:00	2024-11-08T02:00:00	3	Temperatura mínima	17.3
139740	7	Sololá	719	Santiago Atitlán	14	Cerro de Oro	3	Marzo	2023-03-28T00:00:00	2024-11-08T02:00:00	5	Humedad	88
139741	7	Sololá	719	Santiago Atitlán	14	Cerro de Oro	3	Marzo	2023-03-28T00:00:00	2024-11-08T02:00:00	6	Velocidad del viento	3.2
139742	7	Sololá	719	Santiago Atitlán	14	Cerro de Oro	3	Marzo	2023-03-28T00:00:00	2024-11-08T02:00:00	7	Dirección del viento	3.22
139743	7	Sololá	719	Santiago Atitlán	14	Cerro de Oro	3	Marzo	2023-03-28T00:00:00	2024-11-08T02:00:00	1	Precipitación	0
139744	7	Sololá	719	Santiago Atitlán	14	Cerro de Oro	3	Marzo	2023-03-28T00:00:00	2024-11-08T02:00:00	8	Radiación solar	0
139745	7	Sololá	719	Santiago Atitlán	14	Cerro de Oro	3	Marzo	2023-03-28T00:00:00	2024-11-08T03:00:00	2	Temperatura media	16.9
139746	7	Sololá	719	Santiago Atitlán	14	Cerro de Oro	3	Marzo	2023-03-28T00:00:00	2024-11-08T03:00:00	4	Temperatura máxima	17.4
139747	7	Sololá	719	Santiago Atitlán	14	Cerro de Oro	3	Marzo	2023-03-28T00:00:00	2024-11-08T03:00:00	3	Temperatura mínima	16.8
139748	7	Sololá	719	Santiago Atitlán	14	Cerro de Oro	3	Marzo	2023-03-28T00:00:00	2024-11-08T03:00:00	5	Humedad	86
139749	7	Sololá	719	Santiago Atitlán	14	Cerro de Oro	3	Marzo	2023-03-28T00:00:00	2024-11-08T03:00:00	6	Velocidad del viento	4.8
139750	7	Sololá	719	Santiago Atitlán	14	Cerro de Oro	3	Marzo	2023-03-28T00:00:00	2024-11-08T03:00:00	7	Dirección del viento	4.83
139751	7	Sololá	719	Santiago Atitlán	14	Cerro de Oro	3	Marzo	2023-03-28T00:00:00	2024-11-08T03:00:00	1	Precipitación	0
139752	7	Sololá	719	Santiago Atitlán	14	Cerro de Oro	3	Marzo	2023-03-28T00:00:00	2024-11-08T03:00:00	8	Radiación solar	0
139753	7	Sololá	719	Santiago Atitlán	14	Cerro de Oro	3	Marzo	2023-03-28T00:00:00	2024-11-08T04:00:00	2	Temperatura media	17.2
139754	7	Sololá	719	Santiago Atitlán	14	Cerro de Oro	3	Marzo	2023-03-28T00:00:00	2024-11-08T04:00:00	4	Temperatura máxima	17.3
139755	7	Sololá	719	Santiago Atitlán	14	Cerro de Oro	3	Marzo	2023-03-28T00:00:00	2024-11-08T04:00:00	3	Temperatura mínima	16.8
139756	7	Sololá	719	Santiago Atitlán	14	Cerro de Oro	3	Marzo	2023-03-28T00:00:00	2024-11-08T04:00:00	5	Humedad	86
139757	7	Sololá	719	Santiago Atitlán	14	Cerro de Oro	3	Marzo	2023-03-28T00:00:00	2024-11-08T04:00:00	6	Velocidad del viento	3.2
139758	7	Sololá	719	Santiago Atitlán	14	Cerro de Oro	3	Marzo	2023-03-28T00:00:00	2024-11-08T04:00:00	7	Dirección del viento	3.22
139759	7	Sololá	719	Santiago Atitlán	14	Cerro de Oro	3	Marzo	2023-03-28T00:00:00	2024-11-08T04:00:00	1	Precipitación	0
139760	7	Sololá	719	Santiago Atitlán	14	Cerro de Oro	3	Marzo	2023-03-28T00:00:00	2024-11-08T04:00:00	8	Radiación solar	0
139761	7	Sololá	719	Santiago Atitlán	14	Cerro de Oro	3	Marzo	2023-03-28T00:00:00	2024-11-08T05:00:00	2	Temperatura media	16.7
139762	7	Sololá	719	Santiago Atitlán	14	Cerro de Oro	3	Marzo	2023-03-28T00:00:00	2024-11-08T05:00:00	4	Temperatura máxima	17.3
139763	7	Sololá	719	Santiago Atitlán	14	Cerro de Oro	3	Marzo	2023-03-28T00:00:00	2024-11-08T05:00:00	3	Temperatura mínima	16.7
139764	7	Sololá	719	Santiago Atitlán	14	Cerro de Oro	3	Marzo	2023-03-28T00:00:00	2024-11-08T05:00:00	5	Humedad	84
139765	7	Sololá	719	Santiago Atitlán	14	Cerro de Oro	3	Marzo	2023-03-28T00:00:00	2024-11-08T05:00:00	6	Velocidad del viento	3.2
139766	7	Sololá	719	Santiago Atitlán	14	Cerro de Oro	3	Marzo	2023-03-28T00:00:00	2024-11-08T05:00:00	7	Dirección del viento	3.22
139767	7	Sololá	719	Santiago Atitlán	14	Cerro de Oro	3	Marzo	2023-03-28T00:00:00	2024-11-08T05:00:00	1	Precipitación	0
139768	7	Sololá	719	Santiago Atitlán	14	Cerro de Oro	3	Marzo	2023-03-28T00:00:00	2024-11-08T05:00:00	8	Radiación solar	0
139769	7	Sololá	719	Santiago Atitlán	14	Cerro de Oro	3	Marzo	2023-03-28T00:00:00	2024-11-08T06:00:00	2	Temperatura media	17.2
139770	7	Sololá	719	Santiago Atitlán	14	Cerro de Oro	3	Marzo	2023-03-28T00:00:00	2024-11-08T06:00:00	4	Temperatura máxima	17.2
139771	7	Sololá	719	Santiago Atitlán	14	Cerro de Oro	3	Marzo	2023-03-28T00:00:00	2024-11-08T06:00:00	3	Temperatura mínima	16.7
139772	7	Sololá	719	Santiago Atitlán	14	Cerro de Oro	3	Marzo	2023-03-28T00:00:00	2024-11-08T06:00:00	5	Humedad	80
139773	7	Sololá	719	Santiago Atitlán	14	Cerro de Oro	3	Marzo	2023-03-28T00:00:00	2024-11-08T06:00:00	6	Velocidad del viento	3.2
139774	7	Sololá	719	Santiago Atitlán	14	Cerro de Oro	3	Marzo	2023-03-28T00:00:00	2024-11-08T06:00:00	7	Dirección del viento	3.22
139775	7	Sololá	719	Santiago Atitlán	14	Cerro de Oro	3	Marzo	2023-03-28T00:00:00	2024-11-08T06:00:00	1	Precipitación	0
139776	7	Sololá	719	Santiago Atitlán	14	Cerro de Oro	3	Marzo	2023-03-28T00:00:00	2024-11-08T06:00:00	8	Radiación solar	0
139777	7	Sololá	719	Santiago Atitlán	14	Cerro de Oro	3	Marzo	2023-03-28T00:00:00	2024-11-08T07:00:00	2	Temperatura media	17.1
139778	7	Sololá	719	Santiago Atitlán	14	Cerro de Oro	3	Marzo	2023-03-28T00:00:00	2024-11-08T07:00:00	4	Temperatura máxima	17.2
139779	7	Sololá	719	Santiago Atitlán	14	Cerro de Oro	3	Marzo	2023-03-28T00:00:00	2024-11-08T07:00:00	3	Temperatura mínima	17
139780	7	Sololá	719	Santiago Atitlán	14	Cerro de Oro	3	Marzo	2023-03-28T00:00:00	2024-11-08T07:00:00	5	Humedad	82
139781	7	Sololá	719	Santiago Atitlán	14	Cerro de Oro	3	Marzo	2023-03-28T00:00:00	2024-11-08T07:00:00	6	Velocidad del viento	1.6
139782	7	Sololá	719	Santiago Atitlán	14	Cerro de Oro	3	Marzo	2023-03-28T00:00:00	2024-11-08T07:00:00	7	Dirección del viento	1.61
139783	7	Sololá	719	Santiago Atitlán	14	Cerro de Oro	3	Marzo	2023-03-28T00:00:00	2024-11-08T07:00:00	1	Precipitación	0
139784	7	Sololá	719	Santiago Atitlán	14	Cerro de Oro	3	Marzo	2023-03-28T00:00:00	2024-11-08T07:00:00	8	Radiación solar	50
139785	7	Sololá	719	Santiago Atitlán	14	Cerro de Oro	3	Marzo	2023-03-28T00:00:00	2024-11-08T08:00:00	2	Temperatura media	18
139786	7	Sololá	719	Santiago Atitlán	14	Cerro de Oro	3	Marzo	2023-03-28T00:00:00	2024-11-08T08:00:00	4	Temperatura máxima	18
139787	7	Sololá	719	Santiago Atitlán	14	Cerro de Oro	3	Marzo	2023-03-28T00:00:00	2024-11-08T08:00:00	3	Temperatura mínima	17.1
139788	7	Sololá	719	Santiago Atitlán	14	Cerro de Oro	3	Marzo	2023-03-28T00:00:00	2024-11-08T08:00:00	5	Humedad	78
139789	7	Sololá	719	Santiago Atitlán	14	Cerro de Oro	3	Marzo	2023-03-28T00:00:00	2024-11-08T08:00:00	6	Velocidad del viento	1.6
139790	7	Sololá	719	Santiago Atitlán	14	Cerro de Oro	3	Marzo	2023-03-28T00:00:00	2024-11-08T08:00:00	7	Dirección del viento	1.61
139791	7	Sololá	719	Santiago Atitlán	14	Cerro de Oro	3	Marzo	2023-03-28T00:00:00	2024-11-08T08:00:00	1	Precipitación	0
139792	7	Sololá	719	Santiago Atitlán	14	Cerro de Oro	3	Marzo	2023-03-28T00:00:00	2024-11-08T08:00:00	8	Radiación solar	205
139793	7	Sololá	719	Santiago Atitlán	14	Cerro de Oro	3	Marzo	2023-03-28T00:00:00	2024-11-08T09:00:00	2	Temperatura media	19.8
139794	7	Sololá	719	Santiago Atitlán	14	Cerro de Oro	3	Marzo	2023-03-28T00:00:00	2024-11-08T09:00:00	4	Temperatura máxima	19.9
139795	7	Sololá	719	Santiago Atitlán	14	Cerro de Oro	3	Marzo	2023-03-28T00:00:00	2024-11-08T09:00:00	3	Temperatura mínima	18.1
139796	7	Sololá	719	Santiago Atitlán	14	Cerro de Oro	3	Marzo	2023-03-28T00:00:00	2024-11-08T09:00:00	5	Humedad	73
139797	7	Sololá	719	Santiago Atitlán	14	Cerro de Oro	3	Marzo	2023-03-28T00:00:00	2024-11-08T09:00:00	6	Velocidad del viento	3.2
139798	7	Sololá	719	Santiago Atitlán	14	Cerro de Oro	3	Marzo	2023-03-28T00:00:00	2024-11-08T09:00:00	7	Dirección del viento	3.22
139799	7	Sololá	719	Santiago Atitlán	14	Cerro de Oro	3	Marzo	2023-03-28T00:00:00	2024-11-08T09:00:00	1	Precipitación	0
139800	7	Sololá	719	Santiago Atitlán	14	Cerro de Oro	3	Marzo	2023-03-28T00:00:00	2024-11-08T09:00:00	8	Radiación solar	367
139801	7	Sololá	719	Santiago Atitlán	14	Cerro de Oro	3	Marzo	2023-03-28T00:00:00	2024-11-08T10:00:00	2	Temperatura media	20.8
139802	7	Sololá	719	Santiago Atitlán	14	Cerro de Oro	3	Marzo	2023-03-28T00:00:00	2024-11-08T10:00:00	4	Temperatura máxima	20.8
139803	7	Sololá	719	Santiago Atitlán	14	Cerro de Oro	3	Marzo	2023-03-28T00:00:00	2024-11-08T10:00:00	3	Temperatura mínima	19.7
139804	7	Sololá	719	Santiago Atitlán	14	Cerro de Oro	3	Marzo	2023-03-28T00:00:00	2024-11-08T10:00:00	5	Humedad	73
139805	7	Sololá	719	Santiago Atitlán	14	Cerro de Oro	3	Marzo	2023-03-28T00:00:00	2024-11-08T10:00:00	6	Velocidad del viento	4.8
139806	7	Sololá	719	Santiago Atitlán	14	Cerro de Oro	3	Marzo	2023-03-28T00:00:00	2024-11-08T10:00:00	7	Dirección del viento	4.83
139807	7	Sololá	719	Santiago Atitlán	14	Cerro de Oro	3	Marzo	2023-03-28T00:00:00	2024-11-08T10:00:00	1	Precipitación	0
139808	7	Sololá	719	Santiago Atitlán	14	Cerro de Oro	3	Marzo	2023-03-28T00:00:00	2024-11-08T10:00:00	8	Radiación solar	650
139809	7	Sololá	719	Santiago Atitlán	14	Cerro de Oro	3	Marzo	2023-03-28T00:00:00	2024-11-08T11:00:00	2	Temperatura media	22.4
139810	7	Sololá	719	Santiago Atitlán	14	Cerro de Oro	3	Marzo	2023-03-28T00:00:00	2024-11-08T11:00:00	4	Temperatura máxima	22.6
139811	7	Sololá	719	Santiago Atitlán	14	Cerro de Oro	3	Marzo	2023-03-28T00:00:00	2024-11-08T11:00:00	3	Temperatura mínima	20.8
139812	7	Sololá	719	Santiago Atitlán	14	Cerro de Oro	3	Marzo	2023-03-28T00:00:00	2024-11-08T11:00:00	5	Humedad	71
139813	7	Sololá	719	Santiago Atitlán	14	Cerro de Oro	3	Marzo	2023-03-28T00:00:00	2024-11-08T11:00:00	6	Velocidad del viento	8
139814	7	Sololá	719	Santiago Atitlán	14	Cerro de Oro	3	Marzo	2023-03-28T00:00:00	2024-11-08T11:00:00	7	Dirección del viento	8.05
139815	7	Sololá	719	Santiago Atitlán	14	Cerro de Oro	3	Marzo	2023-03-28T00:00:00	2024-11-08T11:00:00	1	Precipitación	0
139816	7	Sololá	719	Santiago Atitlán	14	Cerro de Oro	3	Marzo	2023-03-28T00:00:00	2024-11-08T11:00:00	8	Radiación solar	860
139817	7	Sololá	719	Santiago Atitlán	14	Cerro de Oro	3	Marzo	2023-03-28T00:00:00	2024-11-08T12:00:00	2	Temperatura media	22.9
139818	7	Sololá	719	Santiago Atitlán	14	Cerro de Oro	3	Marzo	2023-03-28T00:00:00	2024-11-08T12:00:00	4	Temperatura máxima	23.4
139819	7	Sololá	719	Santiago Atitlán	14	Cerro de Oro	3	Marzo	2023-03-28T00:00:00	2024-11-08T12:00:00	3	Temperatura mínima	22.4
139820	7	Sololá	719	Santiago Atitlán	14	Cerro de Oro	3	Marzo	2023-03-28T00:00:00	2024-11-08T12:00:00	5	Humedad	70
139821	7	Sololá	719	Santiago Atitlán	14	Cerro de Oro	3	Marzo	2023-03-28T00:00:00	2024-11-08T12:00:00	6	Velocidad del viento	11.3
139822	7	Sololá	719	Santiago Atitlán	14	Cerro de Oro	3	Marzo	2023-03-28T00:00:00	2024-11-08T12:00:00	7	Dirección del viento	11.27
139823	7	Sololá	719	Santiago Atitlán	14	Cerro de Oro	3	Marzo	2023-03-28T00:00:00	2024-11-08T12:00:00	1	Precipitación	0
139824	7	Sololá	719	Santiago Atitlán	14	Cerro de Oro	3	Marzo	2023-03-28T00:00:00	2024-11-08T12:00:00	8	Radiación solar	947
139825	7	Sololá	719	Santiago Atitlán	14	Cerro de Oro	3	Marzo	2023-03-28T00:00:00	2024-11-08T13:00:00	2	Temperatura media	23.2
139826	7	Sololá	719	Santiago Atitlán	14	Cerro de Oro	3	Marzo	2023-03-28T00:00:00	2024-11-08T13:00:00	4	Temperatura máxima	23.6
139827	7	Sololá	719	Santiago Atitlán	14	Cerro de Oro	3	Marzo	2023-03-28T00:00:00	2024-11-08T13:00:00	3	Temperatura mínima	22.9
139828	7	Sololá	719	Santiago Atitlán	14	Cerro de Oro	3	Marzo	2023-03-28T00:00:00	2024-11-08T13:00:00	5	Humedad	69
139829	7	Sololá	719	Santiago Atitlán	14	Cerro de Oro	3	Marzo	2023-03-28T00:00:00	2024-11-08T13:00:00	6	Velocidad del viento	12.9
139830	7	Sololá	719	Santiago Atitlán	14	Cerro de Oro	3	Marzo	2023-03-28T00:00:00	2024-11-08T13:00:00	7	Dirección del viento	12.87
139831	7	Sololá	719	Santiago Atitlán	14	Cerro de Oro	3	Marzo	2023-03-28T00:00:00	2024-11-08T13:00:00	1	Precipitación	0
139832	7	Sololá	719	Santiago Atitlán	14	Cerro de Oro	3	Marzo	2023-03-28T00:00:00	2024-11-08T13:00:00	8	Radiación solar	963
139833	7	Sololá	719	Santiago Atitlán	14	Cerro de Oro	3	Marzo	2023-03-28T00:00:00	2024-11-08T14:00:00	2	Temperatura media	23.4
139834	7	Sololá	719	Santiago Atitlán	14	Cerro de Oro	3	Marzo	2023-03-28T00:00:00	2024-11-08T14:00:00	4	Temperatura máxima	23.6
139835	7	Sololá	719	Santiago Atitlán	14	Cerro de Oro	3	Marzo	2023-03-28T00:00:00	2024-11-08T14:00:00	3	Temperatura mínima	22.9
139836	7	Sololá	719	Santiago Atitlán	14	Cerro de Oro	3	Marzo	2023-03-28T00:00:00	2024-11-08T14:00:00	5	Humedad	69
139837	7	Sololá	719	Santiago Atitlán	14	Cerro de Oro	3	Marzo	2023-03-28T00:00:00	2024-11-08T14:00:00	6	Velocidad del viento	12.9
139838	7	Sololá	719	Santiago Atitlán	14	Cerro de Oro	3	Marzo	2023-03-28T00:00:00	2024-11-08T14:00:00	7	Dirección del viento	12.87
139839	7	Sololá	719	Santiago Atitlán	14	Cerro de Oro	3	Marzo	2023-03-28T00:00:00	2024-11-08T14:00:00	1	Precipitación	0
139840	7	Sololá	719	Santiago Atitlán	14	Cerro de Oro	3	Marzo	2023-03-28T00:00:00	2024-11-08T14:00:00	8	Radiación solar	702
139841	7	Sololá	719	Santiago Atitlán	14	Cerro de Oro	3	Marzo	2023-03-28T00:00:00	2024-11-08T15:00:00	2	Temperatura media	22.9
139842	7	Sololá	719	Santiago Atitlán	14	Cerro de Oro	3	Marzo	2023-03-28T00:00:00	2024-11-08T15:00:00	4	Temperatura máxima	23.5
139843	7	Sololá	719	Santiago Atitlán	14	Cerro de Oro	3	Marzo	2023-03-28T00:00:00	2024-11-08T15:00:00	3	Temperatura mínima	22.6
139844	7	Sololá	719	Santiago Atitlán	14	Cerro de Oro	3	Marzo	2023-03-28T00:00:00	2024-11-08T15:00:00	5	Humedad	71
139845	7	Sololá	719	Santiago Atitlán	14	Cerro de Oro	3	Marzo	2023-03-28T00:00:00	2024-11-08T15:00:00	6	Velocidad del viento	12.9
139846	7	Sololá	719	Santiago Atitlán	14	Cerro de Oro	3	Marzo	2023-03-28T00:00:00	2024-11-08T15:00:00	7	Dirección del viento	12.87
139847	7	Sololá	719	Santiago Atitlán	14	Cerro de Oro	3	Marzo	2023-03-28T00:00:00	2024-11-08T15:00:00	1	Precipitación	0
139848	7	Sololá	719	Santiago Atitlán	14	Cerro de Oro	3	Marzo	2023-03-28T00:00:00	2024-11-08T15:00:00	8	Radiación solar	193
139849	7	Sololá	719	Santiago Atitlán	14	Cerro de Oro	3	Marzo	2023-03-28T00:00:00	2024-11-08T16:00:00	2	Temperatura media	22
139850	7	Sololá	719	Santiago Atitlán	14	Cerro de Oro	3	Marzo	2023-03-28T00:00:00	2024-11-08T16:00:00	4	Temperatura máxima	23
139851	7	Sololá	719	Santiago Atitlán	14	Cerro de Oro	3	Marzo	2023-03-28T00:00:00	2024-11-08T16:00:00	3	Temperatura mínima	21.9
139852	7	Sololá	719	Santiago Atitlán	14	Cerro de Oro	3	Marzo	2023-03-28T00:00:00	2024-11-08T16:00:00	5	Humedad	77
139853	7	Sololá	719	Santiago Atitlán	14	Cerro de Oro	3	Marzo	2023-03-28T00:00:00	2024-11-08T16:00:00	6	Velocidad del viento	9.7
139854	7	Sololá	719	Santiago Atitlán	14	Cerro de Oro	3	Marzo	2023-03-28T00:00:00	2024-11-08T16:00:00	7	Dirección del viento	9.66
139855	7	Sololá	719	Santiago Atitlán	14	Cerro de Oro	3	Marzo	2023-03-28T00:00:00	2024-11-08T16:00:00	1	Precipitación	0
139856	7	Sololá	719	Santiago Atitlán	14	Cerro de Oro	3	Marzo	2023-03-28T00:00:00	2024-11-08T16:00:00	8	Radiación solar	166
139857	7	Sololá	719	Santiago Atitlán	14	Cerro de Oro	3	Marzo	2023-03-28T00:00:00	2024-11-08T17:00:00	2	Temperatura media	21.7
139858	7	Sololá	719	Santiago Atitlán	14	Cerro de Oro	3	Marzo	2023-03-28T00:00:00	2024-11-08T17:00:00	4	Temperatura máxima	22
139859	7	Sololá	719	Santiago Atitlán	14	Cerro de Oro	3	Marzo	2023-03-28T00:00:00	2024-11-08T17:00:00	3	Temperatura mínima	21.3
139860	7	Sololá	719	Santiago Atitlán	14	Cerro de Oro	3	Marzo	2023-03-28T00:00:00	2024-11-08T17:00:00	5	Humedad	79
139861	7	Sololá	719	Santiago Atitlán	14	Cerro de Oro	3	Marzo	2023-03-28T00:00:00	2024-11-08T17:00:00	6	Velocidad del viento	11.3
139862	7	Sololá	719	Santiago Atitlán	14	Cerro de Oro	3	Marzo	2023-03-28T00:00:00	2024-11-08T17:00:00	7	Dirección del viento	11.27
139863	7	Sololá	719	Santiago Atitlán	14	Cerro de Oro	3	Marzo	2023-03-28T00:00:00	2024-11-08T17:00:00	1	Precipitación	0
139864	7	Sololá	719	Santiago Atitlán	14	Cerro de Oro	3	Marzo	2023-03-28T00:00:00	2024-11-08T17:00:00	8	Radiación solar	109
139865	7	Sololá	719	Santiago Atitlán	14	Cerro de Oro	3	Marzo	2023-03-28T00:00:00	2024-11-08T18:00:00	2	Temperatura media	21.1
139866	7	Sololá	719	Santiago Atitlán	14	Cerro de Oro	3	Marzo	2023-03-28T00:00:00	2024-11-08T18:00:00	4	Temperatura máxima	21.7
139867	7	Sololá	719	Santiago Atitlán	14	Cerro de Oro	3	Marzo	2023-03-28T00:00:00	2024-11-08T18:00:00	3	Temperatura mínima	21.1
139868	7	Sololá	719	Santiago Atitlán	14	Cerro de Oro	3	Marzo	2023-03-28T00:00:00	2024-11-08T18:00:00	5	Humedad	81
139869	7	Sololá	719	Santiago Atitlán	14	Cerro de Oro	3	Marzo	2023-03-28T00:00:00	2024-11-08T18:00:00	6	Velocidad del viento	8
139870	7	Sololá	719	Santiago Atitlán	14	Cerro de Oro	3	Marzo	2023-03-28T00:00:00	2024-11-08T18:00:00	7	Dirección del viento	8.05
139871	7	Sololá	719	Santiago Atitlán	14	Cerro de Oro	3	Marzo	2023-03-28T00:00:00	2024-11-08T18:00:00	1	Precipitación	0
139872	7	Sololá	719	Santiago Atitlán	14	Cerro de Oro	3	Marzo	2023-03-28T00:00:00	2024-11-08T18:00:00	8	Radiación solar	72
139873	7	Sololá	719	Santiago Atitlán	14	Cerro de Oro	3	Marzo	2023-03-28T00:00:00	2024-11-08T19:00:00	2	Temperatura media	20.4
139874	7	Sololá	719	Santiago Atitlán	14	Cerro de Oro	3	Marzo	2023-03-28T00:00:00	2024-11-08T19:00:00	4	Temperatura máxima	21.4
139875	7	Sololá	719	Santiago Atitlán	14	Cerro de Oro	3	Marzo	2023-03-28T00:00:00	2024-11-08T19:00:00	3	Temperatura mínima	20.4
139876	7	Sololá	719	Santiago Atitlán	14	Cerro de Oro	3	Marzo	2023-03-28T00:00:00	2024-11-08T19:00:00	5	Humedad	84
139877	7	Sololá	719	Santiago Atitlán	14	Cerro de Oro	3	Marzo	2023-03-28T00:00:00	2024-11-08T19:00:00	6	Velocidad del viento	8
139878	7	Sololá	719	Santiago Atitlán	14	Cerro de Oro	3	Marzo	2023-03-28T00:00:00	2024-11-08T19:00:00	7	Dirección del viento	8.05
139879	7	Sololá	719	Santiago Atitlán	14	Cerro de Oro	3	Marzo	2023-03-28T00:00:00	2024-11-08T19:00:00	1	Precipitación	0
139880	7	Sololá	719	Santiago Atitlán	14	Cerro de Oro	3	Marzo	2023-03-28T00:00:00	2024-11-08T19:00:00	8	Radiación solar	0
139881	7	Sololá	719	Santiago Atitlán	14	Cerro de Oro	3	Marzo	2023-03-28T00:00:00	2024-11-08T20:00:00	2	Temperatura media	19.7
139882	7	Sololá	719	Santiago Atitlán	14	Cerro de Oro	3	Marzo	2023-03-28T00:00:00	2024-11-08T20:00:00	4	Temperatura máxima	20.4
139883	7	Sololá	719	Santiago Atitlán	14	Cerro de Oro	3	Marzo	2023-03-28T00:00:00	2024-11-08T20:00:00	3	Temperatura mínima	19.7
139884	7	Sololá	719	Santiago Atitlán	14	Cerro de Oro	3	Marzo	2023-03-28T00:00:00	2024-11-08T20:00:00	5	Humedad	85
139885	7	Sololá	719	Santiago Atitlán	14	Cerro de Oro	3	Marzo	2023-03-28T00:00:00	2024-11-08T20:00:00	6	Velocidad del viento	6.4
139886	7	Sololá	719	Santiago Atitlán	14	Cerro de Oro	3	Marzo	2023-03-28T00:00:00	2024-11-08T20:00:00	7	Dirección del viento	6.44
139887	7	Sololá	719	Santiago Atitlán	14	Cerro de Oro	3	Marzo	2023-03-28T00:00:00	2024-11-08T20:00:00	1	Precipitación	0
139888	7	Sololá	719	Santiago Atitlán	14	Cerro de Oro	3	Marzo	2023-03-28T00:00:00	2024-11-08T20:00:00	8	Radiación solar	0
139889	7	Sololá	719	Santiago Atitlán	14	Cerro de Oro	3	Marzo	2023-03-28T00:00:00	2024-11-08T21:00:00	2	Temperatura media	19.7
139890	7	Sololá	719	Santiago Atitlán	14	Cerro de Oro	3	Marzo	2023-03-28T00:00:00	2024-11-08T21:00:00	4	Temperatura máxima	19.9
139891	7	Sololá	719	Santiago Atitlán	14	Cerro de Oro	3	Marzo	2023-03-28T00:00:00	2024-11-08T21:00:00	3	Temperatura mínima	19.7
139892	7	Sololá	719	Santiago Atitlán	14	Cerro de Oro	3	Marzo	2023-03-28T00:00:00	2024-11-08T21:00:00	5	Humedad	85
139893	7	Sololá	719	Santiago Atitlán	14	Cerro de Oro	3	Marzo	2023-03-28T00:00:00	2024-11-08T21:00:00	6	Velocidad del viento	6.4
139894	7	Sololá	719	Santiago Atitlán	14	Cerro de Oro	3	Marzo	2023-03-28T00:00:00	2024-11-08T21:00:00	7	Dirección del viento	6.44
139895	7	Sololá	719	Santiago Atitlán	14	Cerro de Oro	3	Marzo	2023-03-28T00:00:00	2024-11-08T21:00:00	1	Precipitación	0
139896	7	Sololá	719	Santiago Atitlán	14	Cerro de Oro	3	Marzo	2023-03-28T00:00:00	2024-11-08T21:00:00	8	Radiación solar	0
139897	7	Sololá	719	Santiago Atitlán	14	Cerro de Oro	3	Marzo	2023-03-28T00:00:00	2024-11-08T22:00:00	2	Temperatura media	19.7
139898	7	Sololá	719	Santiago Atitlán	14	Cerro de Oro	3	Marzo	2023-03-28T00:00:00	2024-11-08T22:00:00	4	Temperatura máxima	19.7
139899	7	Sololá	719	Santiago Atitlán	14	Cerro de Oro	3	Marzo	2023-03-28T00:00:00	2024-11-08T22:00:00	3	Temperatura mínima	19.3
139900	7	Sololá	719	Santiago Atitlán	14	Cerro de Oro	3	Marzo	2023-03-28T00:00:00	2024-11-08T22:00:00	5	Humedad	83
139901	7	Sololá	719	Santiago Atitlán	14	Cerro de Oro	3	Marzo	2023-03-28T00:00:00	2024-11-08T22:00:00	6	Velocidad del viento	1.6
139902	7	Sololá	719	Santiago Atitlán	14	Cerro de Oro	3	Marzo	2023-03-28T00:00:00	2024-11-08T22:00:00	7	Dirección del viento	1.61
139903	7	Sololá	719	Santiago Atitlán	14	Cerro de Oro	3	Marzo	2023-03-28T00:00:00	2024-11-08T22:00:00	1	Precipitación	0
139904	7	Sololá	719	Santiago Atitlán	14	Cerro de Oro	3	Marzo	2023-03-28T00:00:00	2024-11-08T22:00:00	8	Radiación solar	0
139905	7	Sololá	719	Santiago Atitlán	14	Cerro de Oro	3	Marzo	2023-03-28T00:00:00	2024-11-08T23:00:00	2	Temperatura media	19.1
139906	7	Sololá	719	Santiago Atitlán	14	Cerro de Oro	3	Marzo	2023-03-28T00:00:00	2024-11-08T23:00:00	4	Temperatura máxima	19.7
139907	7	Sololá	719	Santiago Atitlán	14	Cerro de Oro	3	Marzo	2023-03-28T00:00:00	2024-11-08T23:00:00	3	Temperatura mínima	18.8
139908	7	Sololá	719	Santiago Atitlán	14	Cerro de Oro	3	Marzo	2023-03-28T00:00:00	2024-11-08T23:00:00	5	Humedad	85
139909	7	Sololá	719	Santiago Atitlán	14	Cerro de Oro	3	Marzo	2023-03-28T00:00:00	2024-11-08T23:00:00	6	Velocidad del viento	3.2
139910	7	Sololá	719	Santiago Atitlán	14	Cerro de Oro	3	Marzo	2023-03-28T00:00:00	2024-11-08T23:00:00	7	Dirección del viento	3.22
139911	7	Sololá	719	Santiago Atitlán	14	Cerro de Oro	3	Marzo	2023-03-28T00:00:00	2024-11-08T23:00:00	1	Precipitación	0
139912	7	Sololá	719	Santiago Atitlán	14	Cerro de Oro	3	Marzo	2023-03-28T00:00:00	2024-11-08T23:00:00	8	Radiación solar	0
139913	7	Sololá	719	Santiago Atitlán	14	Cerro de Oro	3	Marzo	2023-03-29T00:00:00	2024-11-08T00:00:00	2	Temperatura media	18.6
139914	7	Sololá	719	Santiago Atitlán	14	Cerro de Oro	3	Marzo	2023-03-29T00:00:00	2024-11-08T00:00:00	4	Temperatura máxima	19.6
139915	7	Sololá	719	Santiago Atitlán	14	Cerro de Oro	3	Marzo	2023-03-29T00:00:00	2024-11-08T00:00:00	3	Temperatura mínima	18.3
139916	7	Sololá	719	Santiago Atitlán	14	Cerro de Oro	3	Marzo	2023-03-29T00:00:00	2024-11-08T00:00:00	5	Humedad	82
139917	7	Sololá	719	Santiago Atitlán	14	Cerro de Oro	3	Marzo	2023-03-29T00:00:00	2024-11-08T00:00:00	6	Velocidad del viento	4.8
139918	7	Sololá	719	Santiago Atitlán	14	Cerro de Oro	3	Marzo	2023-03-29T00:00:00	2024-11-08T00:00:00	7	Dirección del viento	4.83
139919	7	Sololá	719	Santiago Atitlán	14	Cerro de Oro	3	Marzo	2023-03-29T00:00:00	2024-11-08T00:00:00	1	Precipitación	0
139920	7	Sololá	719	Santiago Atitlán	14	Cerro de Oro	3	Marzo	2023-03-29T00:00:00	2024-11-08T00:00:00	8	Radiación solar	0
139921	7	Sololá	719	Santiago Atitlán	14	Cerro de Oro	3	Marzo	2023-03-29T00:00:00	2024-11-08T01:00:00	2	Temperatura media	18.4
139922	7	Sololá	719	Santiago Atitlán	14	Cerro de Oro	3	Marzo	2023-03-29T00:00:00	2024-11-08T01:00:00	4	Temperatura máxima	18.8
139923	7	Sololá	719	Santiago Atitlán	14	Cerro de Oro	3	Marzo	2023-03-29T00:00:00	2024-11-08T01:00:00	3	Temperatura mínima	18.2
139924	7	Sololá	719	Santiago Atitlán	14	Cerro de Oro	3	Marzo	2023-03-29T00:00:00	2024-11-08T01:00:00	5	Humedad	80
139925	7	Sololá	719	Santiago Atitlán	14	Cerro de Oro	3	Marzo	2023-03-29T00:00:00	2024-11-08T01:00:00	6	Velocidad del viento	3.2
139926	7	Sololá	719	Santiago Atitlán	14	Cerro de Oro	3	Marzo	2023-03-29T00:00:00	2024-11-08T01:00:00	7	Dirección del viento	3.22
139927	7	Sololá	719	Santiago Atitlán	14	Cerro de Oro	3	Marzo	2023-03-29T00:00:00	2024-11-08T01:00:00	1	Precipitación	0
139928	7	Sololá	719	Santiago Atitlán	14	Cerro de Oro	3	Marzo	2023-03-29T00:00:00	2024-11-08T01:00:00	8	Radiación solar	0
139929	7	Sololá	719	Santiago Atitlán	14	Cerro de Oro	3	Marzo	2023-03-29T00:00:00	2024-11-08T02:00:00	2	Temperatura media	17.4
139930	7	Sololá	719	Santiago Atitlán	14	Cerro de Oro	3	Marzo	2023-03-29T00:00:00	2024-11-08T02:00:00	4	Temperatura máxima	18.4
139931	7	Sololá	719	Santiago Atitlán	14	Cerro de Oro	3	Marzo	2023-03-29T00:00:00	2024-11-08T02:00:00	3	Temperatura mínima	17.1
139932	7	Sololá	719	Santiago Atitlán	14	Cerro de Oro	3	Marzo	2023-03-29T00:00:00	2024-11-08T02:00:00	5	Humedad	78
139933	7	Sololá	719	Santiago Atitlán	14	Cerro de Oro	3	Marzo	2023-03-29T00:00:00	2024-11-08T02:00:00	6	Velocidad del viento	4.8
139934	7	Sololá	719	Santiago Atitlán	14	Cerro de Oro	3	Marzo	2023-03-29T00:00:00	2024-11-08T02:00:00	7	Dirección del viento	4.83
139935	7	Sololá	719	Santiago Atitlán	14	Cerro de Oro	3	Marzo	2023-03-29T00:00:00	2024-11-08T02:00:00	1	Precipitación	0
139936	7	Sololá	719	Santiago Atitlán	14	Cerro de Oro	3	Marzo	2023-03-29T00:00:00	2024-11-08T02:00:00	8	Radiación solar	0
139937	7	Sololá	719	Santiago Atitlán	14	Cerro de Oro	3	Marzo	2023-03-29T00:00:00	2024-11-08T03:00:00	2	Temperatura media	17.8
139938	7	Sololá	719	Santiago Atitlán	14	Cerro de Oro	3	Marzo	2023-03-29T00:00:00	2024-11-08T03:00:00	4	Temperatura máxima	18.2
139939	7	Sololá	719	Santiago Atitlán	14	Cerro de Oro	3	Marzo	2023-03-29T00:00:00	2024-11-08T03:00:00	3	Temperatura mínima	17.4
139940	7	Sololá	719	Santiago Atitlán	14	Cerro de Oro	3	Marzo	2023-03-29T00:00:00	2024-11-08T03:00:00	5	Humedad	75
139941	7	Sololá	719	Santiago Atitlán	14	Cerro de Oro	3	Marzo	2023-03-29T00:00:00	2024-11-08T03:00:00	6	Velocidad del viento	3.2
139942	7	Sololá	719	Santiago Atitlán	14	Cerro de Oro	3	Marzo	2023-03-29T00:00:00	2024-11-08T03:00:00	7	Dirección del viento	3.22
139943	7	Sololá	719	Santiago Atitlán	14	Cerro de Oro	3	Marzo	2023-03-29T00:00:00	2024-11-08T03:00:00	1	Precipitación	0
139944	7	Sololá	719	Santiago Atitlán	14	Cerro de Oro	3	Marzo	2023-03-29T00:00:00	2024-11-08T03:00:00	8	Radiación solar	0
139945	7	Sololá	719	Santiago Atitlán	14	Cerro de Oro	3	Marzo	2023-03-29T00:00:00	2024-11-08T04:00:00	2	Temperatura media	17.4
139946	7	Sololá	719	Santiago Atitlán	14	Cerro de Oro	3	Marzo	2023-03-29T00:00:00	2024-11-08T04:00:00	4	Temperatura máxima	18
139947	7	Sololá	719	Santiago Atitlán	14	Cerro de Oro	3	Marzo	2023-03-29T00:00:00	2024-11-08T04:00:00	3	Temperatura mínima	17.4
139948	7	Sololá	719	Santiago Atitlán	14	Cerro de Oro	3	Marzo	2023-03-29T00:00:00	2024-11-08T04:00:00	5	Humedad	73
139949	7	Sololá	719	Santiago Atitlán	14	Cerro de Oro	3	Marzo	2023-03-29T00:00:00	2024-11-08T04:00:00	6	Velocidad del viento	4.8
139950	7	Sololá	719	Santiago Atitlán	14	Cerro de Oro	3	Marzo	2023-03-29T00:00:00	2024-11-08T04:00:00	7	Dirección del viento	4.83
139951	7	Sololá	719	Santiago Atitlán	14	Cerro de Oro	3	Marzo	2023-03-29T00:00:00	2024-11-08T04:00:00	1	Precipitación	0
139952	7	Sololá	719	Santiago Atitlán	14	Cerro de Oro	3	Marzo	2023-03-29T00:00:00	2024-11-08T04:00:00	8	Radiación solar	0
139953	7	Sololá	719	Santiago Atitlán	14	Cerro de Oro	3	Marzo	2023-03-29T00:00:00	2024-11-08T05:00:00	2	Temperatura media	16.7
139954	7	Sololá	719	Santiago Atitlán	14	Cerro de Oro	3	Marzo	2023-03-29T00:00:00	2024-11-08T05:00:00	4	Temperatura máxima	17.4
139955	7	Sololá	719	Santiago Atitlán	14	Cerro de Oro	3	Marzo	2023-03-29T00:00:00	2024-11-08T05:00:00	3	Temperatura mínima	16.2
139956	7	Sololá	719	Santiago Atitlán	14	Cerro de Oro	3	Marzo	2023-03-29T00:00:00	2024-11-08T05:00:00	5	Humedad	74
139957	7	Sololá	719	Santiago Atitlán	14	Cerro de Oro	3	Marzo	2023-03-29T00:00:00	2024-11-08T05:00:00	6	Velocidad del viento	6.4
139958	7	Sololá	719	Santiago Atitlán	14	Cerro de Oro	3	Marzo	2023-03-29T00:00:00	2024-11-08T05:00:00	7	Dirección del viento	6.44
139959	7	Sololá	719	Santiago Atitlán	14	Cerro de Oro	3	Marzo	2023-03-29T00:00:00	2024-11-08T05:00:00	1	Precipitación	0
139960	7	Sololá	719	Santiago Atitlán	14	Cerro de Oro	3	Marzo	2023-03-29T00:00:00	2024-11-08T05:00:00	8	Radiación solar	0
139961	7	Sololá	719	Santiago Atitlán	14	Cerro de Oro	3	Marzo	2023-03-29T00:00:00	2024-11-08T06:00:00	2	Temperatura media	17.1
139962	7	Sololá	719	Santiago Atitlán	14	Cerro de Oro	3	Marzo	2023-03-29T00:00:00	2024-11-08T06:00:00	4	Temperatura máxima	17.1
139963	7	Sololá	719	Santiago Atitlán	14	Cerro de Oro	3	Marzo	2023-03-29T00:00:00	2024-11-08T06:00:00	3	Temperatura mínima	16.7
139964	7	Sololá	719	Santiago Atitlán	14	Cerro de Oro	3	Marzo	2023-03-29T00:00:00	2024-11-08T06:00:00	5	Humedad	74
139965	7	Sololá	719	Santiago Atitlán	14	Cerro de Oro	3	Marzo	2023-03-29T00:00:00	2024-11-08T06:00:00	6	Velocidad del viento	6.4
139966	7	Sololá	719	Santiago Atitlán	14	Cerro de Oro	3	Marzo	2023-03-29T00:00:00	2024-11-08T06:00:00	7	Dirección del viento	6.44
139967	7	Sololá	719	Santiago Atitlán	14	Cerro de Oro	3	Marzo	2023-03-29T00:00:00	2024-11-08T06:00:00	1	Precipitación	0
139968	7	Sololá	719	Santiago Atitlán	14	Cerro de Oro	3	Marzo	2023-03-29T00:00:00	2024-11-08T06:00:00	8	Radiación solar	0
139969	7	Sololá	719	Santiago Atitlán	14	Cerro de Oro	3	Marzo	2023-03-29T00:00:00	2024-11-08T07:00:00	2	Temperatura media	16.3
139970	7	Sololá	719	Santiago Atitlán	14	Cerro de Oro	3	Marzo	2023-03-29T00:00:00	2024-11-08T07:00:00	4	Temperatura máxima	17.1
139971	7	Sololá	719	Santiago Atitlán	14	Cerro de Oro	3	Marzo	2023-03-29T00:00:00	2024-11-08T07:00:00	3	Temperatura mínima	16.2
139972	7	Sololá	719	Santiago Atitlán	14	Cerro de Oro	3	Marzo	2023-03-29T00:00:00	2024-11-08T07:00:00	5	Humedad	76
139973	7	Sololá	719	Santiago Atitlán	14	Cerro de Oro	3	Marzo	2023-03-29T00:00:00	2024-11-08T07:00:00	6	Velocidad del viento	6.4
139974	7	Sololá	719	Santiago Atitlán	14	Cerro de Oro	3	Marzo	2023-03-29T00:00:00	2024-11-08T07:00:00	7	Dirección del viento	6.44
139975	7	Sololá	719	Santiago Atitlán	14	Cerro de Oro	3	Marzo	2023-03-29T00:00:00	2024-11-08T07:00:00	1	Precipitación	0
139976	7	Sololá	719	Santiago Atitlán	14	Cerro de Oro	3	Marzo	2023-03-29T00:00:00	2024-11-08T07:00:00	8	Radiación solar	47
139977	7	Sololá	719	Santiago Atitlán	14	Cerro de Oro	3	Marzo	2023-03-29T00:00:00	2024-11-08T08:00:00	2	Temperatura media	19.3
139978	7	Sololá	719	Santiago Atitlán	14	Cerro de Oro	3	Marzo	2023-03-29T00:00:00	2024-11-08T08:00:00	4	Temperatura máxima	19.3
139979	7	Sololá	719	Santiago Atitlán	14	Cerro de Oro	3	Marzo	2023-03-29T00:00:00	2024-11-08T08:00:00	3	Temperatura mínima	16.2
139980	7	Sololá	719	Santiago Atitlán	14	Cerro de Oro	3	Marzo	2023-03-29T00:00:00	2024-11-08T08:00:00	5	Humedad	65
139981	7	Sololá	719	Santiago Atitlán	14	Cerro de Oro	3	Marzo	2023-03-29T00:00:00	2024-11-08T08:00:00	6	Velocidad del viento	4.8
139982	7	Sololá	719	Santiago Atitlán	14	Cerro de Oro	3	Marzo	2023-03-29T00:00:00	2024-11-08T08:00:00	7	Dirección del viento	4.83
139983	7	Sololá	719	Santiago Atitlán	14	Cerro de Oro	3	Marzo	2023-03-29T00:00:00	2024-11-08T08:00:00	1	Precipitación	0
139984	7	Sololá	719	Santiago Atitlán	14	Cerro de Oro	3	Marzo	2023-03-29T00:00:00	2024-11-08T08:00:00	8	Radiación solar	205
139985	7	Sololá	719	Santiago Atitlán	14	Cerro de Oro	3	Marzo	2023-03-29T00:00:00	2024-11-08T09:00:00	2	Temperatura media	20.7
139986	7	Sololá	719	Santiago Atitlán	14	Cerro de Oro	3	Marzo	2023-03-29T00:00:00	2024-11-08T09:00:00	4	Temperatura máxima	20.7
139987	7	Sololá	719	Santiago Atitlán	14	Cerro de Oro	3	Marzo	2023-03-29T00:00:00	2024-11-08T09:00:00	3	Temperatura mínima	19.2
139988	7	Sololá	719	Santiago Atitlán	14	Cerro de Oro	3	Marzo	2023-03-29T00:00:00	2024-11-08T09:00:00	5	Humedad	62
139989	7	Sololá	719	Santiago Atitlán	14	Cerro de Oro	3	Marzo	2023-03-29T00:00:00	2024-11-08T09:00:00	6	Velocidad del viento	6.4
139990	7	Sololá	719	Santiago Atitlán	14	Cerro de Oro	3	Marzo	2023-03-29T00:00:00	2024-11-08T09:00:00	7	Dirección del viento	6.44
139991	7	Sololá	719	Santiago Atitlán	14	Cerro de Oro	3	Marzo	2023-03-29T00:00:00	2024-11-08T09:00:00	1	Precipitación	0
139992	7	Sololá	719	Santiago Atitlán	14	Cerro de Oro	3	Marzo	2023-03-29T00:00:00	2024-11-08T09:00:00	8	Radiación solar	353
139993	7	Sololá	719	Santiago Atitlán	14	Cerro de Oro	3	Marzo	2023-03-29T00:00:00	2024-11-08T10:00:00	2	Temperatura media	21.9
139994	7	Sololá	719	Santiago Atitlán	14	Cerro de Oro	3	Marzo	2023-03-29T00:00:00	2024-11-08T10:00:00	4	Temperatura máxima	21.9
139995	7	Sololá	719	Santiago Atitlán	14	Cerro de Oro	3	Marzo	2023-03-29T00:00:00	2024-11-08T10:00:00	3	Temperatura mínima	20.4
139996	7	Sololá	719	Santiago Atitlán	14	Cerro de Oro	3	Marzo	2023-03-29T00:00:00	2024-11-08T10:00:00	5	Humedad	58
139997	7	Sololá	719	Santiago Atitlán	14	Cerro de Oro	3	Marzo	2023-03-29T00:00:00	2024-11-08T10:00:00	6	Velocidad del viento	6.4
139998	7	Sololá	719	Santiago Atitlán	14	Cerro de Oro	3	Marzo	2023-03-29T00:00:00	2024-11-08T10:00:00	7	Dirección del viento	6.44
139999	7	Sololá	719	Santiago Atitlán	14	Cerro de Oro	3	Marzo	2023-03-29T00:00:00	2024-11-08T10:00:00	1	Precipitación	0
140000	7	Sololá	719	Santiago Atitlán	14	Cerro de Oro	3	Marzo	2023-03-29T00:00:00	2024-11-08T10:00:00	8	Radiación solar	684
140001	7	Sololá	719	Santiago Atitlán	14	Cerro de Oro	3	Marzo	2023-03-29T00:00:00	2024-11-08T11:00:00	2	Temperatura media	22.3
140002	7	Sololá	719	Santiago Atitlán	14	Cerro de Oro	3	Marzo	2023-03-29T00:00:00	2024-11-08T11:00:00	4	Temperatura máxima	22.9
140003	7	Sololá	719	Santiago Atitlán	14	Cerro de Oro	3	Marzo	2023-03-29T00:00:00	2024-11-08T11:00:00	3	Temperatura mínima	21.8
140004	7	Sololá	719	Santiago Atitlán	14	Cerro de Oro	3	Marzo	2023-03-29T00:00:00	2024-11-08T11:00:00	5	Humedad	58
140005	7	Sololá	719	Santiago Atitlán	14	Cerro de Oro	3	Marzo	2023-03-29T00:00:00	2024-11-08T11:00:00	6	Velocidad del viento	8
140006	7	Sololá	719	Santiago Atitlán	14	Cerro de Oro	3	Marzo	2023-03-29T00:00:00	2024-11-08T11:00:00	7	Dirección del viento	8.05
140007	7	Sololá	719	Santiago Atitlán	14	Cerro de Oro	3	Marzo	2023-03-29T00:00:00	2024-11-08T11:00:00	1	Precipitación	0
140008	7	Sololá	719	Santiago Atitlán	14	Cerro de Oro	3	Marzo	2023-03-29T00:00:00	2024-11-08T11:00:00	8	Radiación solar	872
140009	7	Sololá	719	Santiago Atitlán	14	Cerro de Oro	3	Marzo	2023-03-29T00:00:00	2024-11-08T12:00:00	2	Temperatura media	24.3
140010	7	Sololá	719	Santiago Atitlán	14	Cerro de Oro	3	Marzo	2023-03-29T00:00:00	2024-11-08T12:00:00	4	Temperatura máxima	24.3
140011	7	Sololá	719	Santiago Atitlán	14	Cerro de Oro	3	Marzo	2023-03-29T00:00:00	2024-11-08T12:00:00	3	Temperatura mínima	22.3
140012	7	Sololá	719	Santiago Atitlán	14	Cerro de Oro	3	Marzo	2023-03-29T00:00:00	2024-11-08T12:00:00	5	Humedad	51
140013	7	Sololá	719	Santiago Atitlán	14	Cerro de Oro	3	Marzo	2023-03-29T00:00:00	2024-11-08T12:00:00	6	Velocidad del viento	9.7
140014	7	Sololá	719	Santiago Atitlán	14	Cerro de Oro	3	Marzo	2023-03-29T00:00:00	2024-11-08T12:00:00	7	Dirección del viento	9.66
140015	7	Sololá	719	Santiago Atitlán	14	Cerro de Oro	3	Marzo	2023-03-29T00:00:00	2024-11-08T12:00:00	1	Precipitación	0
140016	7	Sololá	719	Santiago Atitlán	14	Cerro de Oro	3	Marzo	2023-03-29T00:00:00	2024-11-08T12:00:00	8	Radiación solar	986
140017	7	Sololá	719	Santiago Atitlán	14	Cerro de Oro	3	Marzo	2023-03-29T00:00:00	2024-11-08T13:00:00	2	Temperatura media	25
140018	7	Sololá	719	Santiago Atitlán	14	Cerro de Oro	3	Marzo	2023-03-29T00:00:00	2024-11-08T13:00:00	4	Temperatura máxima	25
140019	7	Sololá	719	Santiago Atitlán	14	Cerro de Oro	3	Marzo	2023-03-29T00:00:00	2024-11-08T13:00:00	3	Temperatura mínima	23.9
140020	7	Sololá	719	Santiago Atitlán	14	Cerro de Oro	3	Marzo	2023-03-29T00:00:00	2024-11-08T13:00:00	5	Humedad	50
140021	7	Sololá	719	Santiago Atitlán	14	Cerro de Oro	3	Marzo	2023-03-29T00:00:00	2024-11-08T13:00:00	6	Velocidad del viento	11.3
140022	7	Sololá	719	Santiago Atitlán	14	Cerro de Oro	3	Marzo	2023-03-29T00:00:00	2024-11-08T13:00:00	7	Dirección del viento	11.27
140023	7	Sololá	719	Santiago Atitlán	14	Cerro de Oro	3	Marzo	2023-03-29T00:00:00	2024-11-08T13:00:00	1	Precipitación	0
140024	7	Sololá	719	Santiago Atitlán	14	Cerro de Oro	3	Marzo	2023-03-29T00:00:00	2024-11-08T13:00:00	8	Radiación solar	826
140025	7	Sololá	719	Santiago Atitlán	14	Cerro de Oro	3	Marzo	2023-03-29T00:00:00	2024-11-08T14:00:00	2	Temperatura media	24.3
140026	7	Sololá	719	Santiago Atitlán	14	Cerro de Oro	3	Marzo	2023-03-29T00:00:00	2024-11-08T14:00:00	4	Temperatura máxima	25.7
140027	7	Sololá	719	Santiago Atitlán	14	Cerro de Oro	3	Marzo	2023-03-29T00:00:00	2024-11-08T14:00:00	3	Temperatura mínima	24.1
140028	7	Sololá	719	Santiago Atitlán	14	Cerro de Oro	3	Marzo	2023-03-29T00:00:00	2024-11-08T14:00:00	5	Humedad	54
140029	7	Sololá	719	Santiago Atitlán	14	Cerro de Oro	3	Marzo	2023-03-29T00:00:00	2024-11-08T14:00:00	6	Velocidad del viento	11.3
140030	7	Sololá	719	Santiago Atitlán	14	Cerro de Oro	3	Marzo	2023-03-29T00:00:00	2024-11-08T14:00:00	7	Dirección del viento	11.27
140031	7	Sololá	719	Santiago Atitlán	14	Cerro de Oro	3	Marzo	2023-03-29T00:00:00	2024-11-08T14:00:00	1	Precipitación	0
140032	7	Sololá	719	Santiago Atitlán	14	Cerro de Oro	3	Marzo	2023-03-29T00:00:00	2024-11-08T14:00:00	8	Radiación solar	814
140033	7	Sololá	719	Santiago Atitlán	14	Cerro de Oro	3	Marzo	2023-03-29T00:00:00	2024-11-08T15:00:00	2	Temperatura media	25.2
140034	7	Sololá	719	Santiago Atitlán	14	Cerro de Oro	3	Marzo	2023-03-29T00:00:00	2024-11-08T15:00:00	4	Temperatura máxima	25.7
140035	7	Sololá	719	Santiago Atitlán	14	Cerro de Oro	3	Marzo	2023-03-29T00:00:00	2024-11-08T15:00:00	3	Temperatura mínima	24.3
140036	7	Sololá	719	Santiago Atitlán	14	Cerro de Oro	3	Marzo	2023-03-29T00:00:00	2024-11-08T15:00:00	5	Humedad	57
140037	7	Sololá	719	Santiago Atitlán	14	Cerro de Oro	3	Marzo	2023-03-29T00:00:00	2024-11-08T15:00:00	6	Velocidad del viento	9.7
140038	7	Sololá	719	Santiago Atitlán	14	Cerro de Oro	3	Marzo	2023-03-29T00:00:00	2024-11-08T15:00:00	7	Dirección del viento	9.66
140039	7	Sololá	719	Santiago Atitlán	14	Cerro de Oro	3	Marzo	2023-03-29T00:00:00	2024-11-08T15:00:00	1	Precipitación	0
140040	7	Sololá	719	Santiago Atitlán	14	Cerro de Oro	3	Marzo	2023-03-29T00:00:00	2024-11-08T15:00:00	8	Radiación solar	373
140041	7	Sololá	719	Santiago Atitlán	14	Cerro de Oro	3	Marzo	2023-03-29T00:00:00	2024-11-08T16:00:00	2	Temperatura media	24.2
140042	7	Sololá	719	Santiago Atitlán	14	Cerro de Oro	3	Marzo	2023-03-29T00:00:00	2024-11-08T16:00:00	4	Temperatura máxima	25.1
140043	7	Sololá	719	Santiago Atitlán	14	Cerro de Oro	3	Marzo	2023-03-29T00:00:00	2024-11-08T16:00:00	3	Temperatura mínima	24
140044	7	Sololá	719	Santiago Atitlán	14	Cerro de Oro	3	Marzo	2023-03-29T00:00:00	2024-11-08T16:00:00	5	Humedad	60
140045	7	Sololá	719	Santiago Atitlán	14	Cerro de Oro	3	Marzo	2023-03-29T00:00:00	2024-11-08T16:00:00	6	Velocidad del viento	11.3
140046	7	Sololá	719	Santiago Atitlán	14	Cerro de Oro	3	Marzo	2023-03-29T00:00:00	2024-11-08T16:00:00	7	Dirección del viento	11.27
140047	7	Sololá	719	Santiago Atitlán	14	Cerro de Oro	3	Marzo	2023-03-29T00:00:00	2024-11-08T16:00:00	1	Precipitación	0
140048	7	Sololá	719	Santiago Atitlán	14	Cerro de Oro	3	Marzo	2023-03-29T00:00:00	2024-11-08T16:00:00	8	Radiación solar	432
140049	7	Sololá	719	Santiago Atitlán	14	Cerro de Oro	3	Marzo	2023-03-29T00:00:00	2024-11-08T17:00:00	2	Temperatura media	23.8
140050	7	Sololá	719	Santiago Atitlán	14	Cerro de Oro	3	Marzo	2023-03-29T00:00:00	2024-11-08T17:00:00	4	Temperatura máxima	24.4
140051	7	Sololá	719	Santiago Atitlán	14	Cerro de Oro	3	Marzo	2023-03-29T00:00:00	2024-11-08T17:00:00	3	Temperatura mínima	23.8
140052	7	Sololá	719	Santiago Atitlán	14	Cerro de Oro	3	Marzo	2023-03-29T00:00:00	2024-11-08T17:00:00	5	Humedad	63
140053	7	Sololá	719	Santiago Atitlán	14	Cerro de Oro	3	Marzo	2023-03-29T00:00:00	2024-11-08T17:00:00	6	Velocidad del viento	11.3
140054	7	Sololá	719	Santiago Atitlán	14	Cerro de Oro	3	Marzo	2023-03-29T00:00:00	2024-11-08T17:00:00	7	Dirección del viento	11.27
140055	7	Sololá	719	Santiago Atitlán	14	Cerro de Oro	3	Marzo	2023-03-29T00:00:00	2024-11-08T17:00:00	1	Precipitación	0
140056	7	Sololá	719	Santiago Atitlán	14	Cerro de Oro	3	Marzo	2023-03-29T00:00:00	2024-11-08T17:00:00	8	Radiación solar	307
140057	7	Sololá	719	Santiago Atitlán	14	Cerro de Oro	3	Marzo	2023-03-29T00:00:00	2024-11-08T18:00:00	2	Temperatura media	23.5
140058	7	Sololá	719	Santiago Atitlán	14	Cerro de Oro	3	Marzo	2023-03-29T00:00:00	2024-11-08T18:00:00	4	Temperatura máxima	24
140059	7	Sololá	719	Santiago Atitlán	14	Cerro de Oro	3	Marzo	2023-03-29T00:00:00	2024-11-08T18:00:00	3	Temperatura mínima	23.2
140060	7	Sololá	719	Santiago Atitlán	14	Cerro de Oro	3	Marzo	2023-03-29T00:00:00	2024-11-08T18:00:00	5	Humedad	65
140061	7	Sololá	719	Santiago Atitlán	14	Cerro de Oro	3	Marzo	2023-03-29T00:00:00	2024-11-08T18:00:00	6	Velocidad del viento	9.7
140062	7	Sololá	719	Santiago Atitlán	14	Cerro de Oro	3	Marzo	2023-03-29T00:00:00	2024-11-08T18:00:00	7	Dirección del viento	9.66
140063	7	Sololá	719	Santiago Atitlán	14	Cerro de Oro	3	Marzo	2023-03-29T00:00:00	2024-11-08T18:00:00	1	Precipitación	0
140064	7	Sololá	719	Santiago Atitlán	14	Cerro de Oro	3	Marzo	2023-03-29T00:00:00	2024-11-08T18:00:00	8	Radiación solar	93
140065	7	Sololá	719	Santiago Atitlán	14	Cerro de Oro	3	Marzo	2023-03-29T00:00:00	2024-11-08T19:00:00	2	Temperatura media	21.6
140066	7	Sololá	719	Santiago Atitlán	14	Cerro de Oro	3	Marzo	2023-03-29T00:00:00	2024-11-08T19:00:00	4	Temperatura máxima	23.4
140067	7	Sololá	719	Santiago Atitlán	14	Cerro de Oro	3	Marzo	2023-03-29T00:00:00	2024-11-08T19:00:00	3	Temperatura mínima	21.6
140068	7	Sololá	719	Santiago Atitlán	14	Cerro de Oro	3	Marzo	2023-03-29T00:00:00	2024-11-08T19:00:00	5	Humedad	69
140069	7	Sololá	719	Santiago Atitlán	14	Cerro de Oro	3	Marzo	2023-03-29T00:00:00	2024-11-08T19:00:00	6	Velocidad del viento	6.4
140070	7	Sololá	719	Santiago Atitlán	14	Cerro de Oro	3	Marzo	2023-03-29T00:00:00	2024-11-08T19:00:00	7	Dirección del viento	6.44
140071	7	Sololá	719	Santiago Atitlán	14	Cerro de Oro	3	Marzo	2023-03-29T00:00:00	2024-11-08T19:00:00	1	Precipitación	0
140072	7	Sololá	719	Santiago Atitlán	14	Cerro de Oro	3	Marzo	2023-03-29T00:00:00	2024-11-08T19:00:00	8	Radiación solar	0
140073	7	Sololá	719	Santiago Atitlán	14	Cerro de Oro	3	Marzo	2023-03-29T00:00:00	2024-11-08T20:00:00	2	Temperatura media	21.6
140074	7	Sololá	719	Santiago Atitlán	14	Cerro de Oro	3	Marzo	2023-03-29T00:00:00	2024-11-08T20:00:00	4	Temperatura máxima	22.2
140075	7	Sololá	719	Santiago Atitlán	14	Cerro de Oro	3	Marzo	2023-03-29T00:00:00	2024-11-08T20:00:00	3	Temperatura mínima	21.1
140076	7	Sololá	719	Santiago Atitlán	14	Cerro de Oro	3	Marzo	2023-03-29T00:00:00	2024-11-08T20:00:00	5	Humedad	57
140077	7	Sololá	719	Santiago Atitlán	14	Cerro de Oro	3	Marzo	2023-03-29T00:00:00	2024-11-08T20:00:00	6	Velocidad del viento	8
140078	7	Sololá	719	Santiago Atitlán	14	Cerro de Oro	3	Marzo	2023-03-29T00:00:00	2024-11-08T20:00:00	7	Dirección del viento	8.05
140079	7	Sololá	719	Santiago Atitlán	14	Cerro de Oro	3	Marzo	2023-03-29T00:00:00	2024-11-08T20:00:00	1	Precipitación	0
140080	7	Sololá	719	Santiago Atitlán	14	Cerro de Oro	3	Marzo	2023-03-29T00:00:00	2024-11-08T20:00:00	8	Radiación solar	0
140081	7	Sololá	719	Santiago Atitlán	14	Cerro de Oro	3	Marzo	2023-03-29T00:00:00	2024-11-08T21:00:00	2	Temperatura media	20.4
140082	7	Sololá	719	Santiago Atitlán	14	Cerro de Oro	3	Marzo	2023-03-29T00:00:00	2024-11-08T21:00:00	4	Temperatura máxima	21.6
140083	7	Sololá	719	Santiago Atitlán	14	Cerro de Oro	3	Marzo	2023-03-29T00:00:00	2024-11-08T21:00:00	3	Temperatura mínima	20.4
140084	7	Sololá	719	Santiago Atitlán	14	Cerro de Oro	3	Marzo	2023-03-29T00:00:00	2024-11-08T21:00:00	5	Humedad	58
140085	7	Sololá	719	Santiago Atitlán	14	Cerro de Oro	3	Marzo	2023-03-29T00:00:00	2024-11-08T21:00:00	6	Velocidad del viento	11.3
140086	7	Sololá	719	Santiago Atitlán	14	Cerro de Oro	3	Marzo	2023-03-29T00:00:00	2024-11-08T21:00:00	7	Dirección del viento	11.27
140087	7	Sololá	719	Santiago Atitlán	14	Cerro de Oro	3	Marzo	2023-03-29T00:00:00	2024-11-08T21:00:00	1	Precipitación	0
140088	7	Sololá	719	Santiago Atitlán	14	Cerro de Oro	3	Marzo	2023-03-29T00:00:00	2024-11-08T21:00:00	8	Radiación solar	0
140089	7	Sololá	719	Santiago Atitlán	14	Cerro de Oro	3	Marzo	2023-03-29T00:00:00	2024-11-08T22:00:00	2	Temperatura media	19.7
140090	7	Sololá	719	Santiago Atitlán	14	Cerro de Oro	3	Marzo	2023-03-29T00:00:00	2024-11-08T22:00:00	4	Temperatura máxima	20.4
140091	7	Sololá	719	Santiago Atitlán	14	Cerro de Oro	3	Marzo	2023-03-29T00:00:00	2024-11-08T22:00:00	3	Temperatura mínima	19.7
140092	7	Sololá	719	Santiago Atitlán	14	Cerro de Oro	3	Marzo	2023-03-29T00:00:00	2024-11-08T22:00:00	5	Humedad	59
140093	7	Sololá	719	Santiago Atitlán	14	Cerro de Oro	3	Marzo	2023-03-29T00:00:00	2024-11-08T22:00:00	6	Velocidad del viento	9.7
140094	7	Sololá	719	Santiago Atitlán	14	Cerro de Oro	3	Marzo	2023-03-29T00:00:00	2024-11-08T22:00:00	7	Dirección del viento	9.66
140095	7	Sololá	719	Santiago Atitlán	14	Cerro de Oro	3	Marzo	2023-03-29T00:00:00	2024-11-08T22:00:00	1	Precipitación	0
140096	7	Sololá	719	Santiago Atitlán	14	Cerro de Oro	3	Marzo	2023-03-29T00:00:00	2024-11-08T22:00:00	8	Radiación solar	0
140097	7	Sololá	719	Santiago Atitlán	14	Cerro de Oro	3	Marzo	2023-03-29T00:00:00	2024-11-08T23:00:00	2	Temperatura media	19.2
140098	7	Sololá	719	Santiago Atitlán	14	Cerro de Oro	3	Marzo	2023-03-29T00:00:00	2024-11-08T23:00:00	4	Temperatura máxima	19.8
140099	7	Sololá	719	Santiago Atitlán	14	Cerro de Oro	3	Marzo	2023-03-29T00:00:00	2024-11-08T23:00:00	3	Temperatura mínima	19.1
140100	7	Sololá	719	Santiago Atitlán	14	Cerro de Oro	3	Marzo	2023-03-29T00:00:00	2024-11-08T23:00:00	5	Humedad	56
140101	7	Sololá	719	Santiago Atitlán	14	Cerro de Oro	3	Marzo	2023-03-29T00:00:00	2024-11-08T23:00:00	6	Velocidad del viento	8
140102	7	Sololá	719	Santiago Atitlán	14	Cerro de Oro	3	Marzo	2023-03-29T00:00:00	2024-11-08T23:00:00	7	Dirección del viento	8.05
140103	7	Sololá	719	Santiago Atitlán	14	Cerro de Oro	3	Marzo	2023-03-29T00:00:00	2024-11-08T23:00:00	1	Precipitación	0
140104	7	Sololá	719	Santiago Atitlán	14	Cerro de Oro	3	Marzo	2023-03-29T00:00:00	2024-11-08T23:00:00	8	Radiación solar	0
140105	7	Sololá	719	Santiago Atitlán	14	Cerro de Oro	3	Marzo	2023-03-30T00:00:00	2024-11-08T00:00:00	2	Temperatura media	19.1
140106	7	Sololá	719	Santiago Atitlán	14	Cerro de Oro	3	Marzo	2023-03-30T00:00:00	2024-11-08T00:00:00	4	Temperatura máxima	19.3
140107	7	Sololá	719	Santiago Atitlán	14	Cerro de Oro	3	Marzo	2023-03-30T00:00:00	2024-11-08T00:00:00	3	Temperatura mínima	18.9
140108	7	Sololá	719	Santiago Atitlán	14	Cerro de Oro	3	Marzo	2023-03-30T00:00:00	2024-11-08T00:00:00	5	Humedad	57
140109	7	Sololá	719	Santiago Atitlán	14	Cerro de Oro	3	Marzo	2023-03-30T00:00:00	2024-11-08T00:00:00	6	Velocidad del viento	9.7
140110	7	Sololá	719	Santiago Atitlán	14	Cerro de Oro	3	Marzo	2023-03-30T00:00:00	2024-11-08T00:00:00	7	Dirección del viento	9.66
140111	7	Sololá	719	Santiago Atitlán	14	Cerro de Oro	3	Marzo	2023-03-30T00:00:00	2024-11-08T00:00:00	1	Precipitación	0
140112	7	Sololá	719	Santiago Atitlán	14	Cerro de Oro	3	Marzo	2023-03-30T00:00:00	2024-11-08T00:00:00	8	Radiación solar	0
140113	7	Sololá	719	Santiago Atitlán	14	Cerro de Oro	3	Marzo	2023-03-30T00:00:00	2024-11-08T01:00:00	2	Temperatura media	18.4
140114	7	Sololá	719	Santiago Atitlán	14	Cerro de Oro	3	Marzo	2023-03-30T00:00:00	2024-11-08T01:00:00	4	Temperatura máxima	19.1
140115	7	Sololá	719	Santiago Atitlán	14	Cerro de Oro	3	Marzo	2023-03-30T00:00:00	2024-11-08T01:00:00	3	Temperatura mínima	18.3
140116	7	Sololá	719	Santiago Atitlán	14	Cerro de Oro	3	Marzo	2023-03-30T00:00:00	2024-11-08T01:00:00	5	Humedad	61
140117	7	Sololá	719	Santiago Atitlán	14	Cerro de Oro	3	Marzo	2023-03-30T00:00:00	2024-11-08T01:00:00	6	Velocidad del viento	8
140118	7	Sololá	719	Santiago Atitlán	14	Cerro de Oro	3	Marzo	2023-03-30T00:00:00	2024-11-08T01:00:00	7	Dirección del viento	8.05
140119	7	Sololá	719	Santiago Atitlán	14	Cerro de Oro	3	Marzo	2023-03-30T00:00:00	2024-11-08T01:00:00	1	Precipitación	0
140120	7	Sololá	719	Santiago Atitlán	14	Cerro de Oro	3	Marzo	2023-03-30T00:00:00	2024-11-08T01:00:00	8	Radiación solar	0
140121	7	Sololá	719	Santiago Atitlán	14	Cerro de Oro	3	Marzo	2023-03-30T00:00:00	2024-11-08T02:00:00	2	Temperatura media	18.2
140122	7	Sololá	719	Santiago Atitlán	14	Cerro de Oro	3	Marzo	2023-03-30T00:00:00	2024-11-08T02:00:00	4	Temperatura máxima	18.4
140123	7	Sololá	719	Santiago Atitlán	14	Cerro de Oro	3	Marzo	2023-03-30T00:00:00	2024-11-08T02:00:00	3	Temperatura mínima	18
140124	7	Sololá	719	Santiago Atitlán	14	Cerro de Oro	3	Marzo	2023-03-30T00:00:00	2024-11-08T02:00:00	5	Humedad	63
140125	7	Sololá	719	Santiago Atitlán	14	Cerro de Oro	3	Marzo	2023-03-30T00:00:00	2024-11-08T02:00:00	6	Velocidad del viento	6.4
140126	7	Sololá	719	Santiago Atitlán	14	Cerro de Oro	3	Marzo	2023-03-30T00:00:00	2024-11-08T02:00:00	7	Dirección del viento	6.44
140127	7	Sololá	719	Santiago Atitlán	14	Cerro de Oro	3	Marzo	2023-03-30T00:00:00	2024-11-08T02:00:00	1	Precipitación	0
140128	7	Sololá	719	Santiago Atitlán	14	Cerro de Oro	3	Marzo	2023-03-30T00:00:00	2024-11-08T02:00:00	8	Radiación solar	0
140129	7	Sololá	719	Santiago Atitlán	14	Cerro de Oro	3	Marzo	2023-03-30T00:00:00	2024-11-08T03:00:00	2	Temperatura media	17.8
140130	7	Sololá	719	Santiago Atitlán	14	Cerro de Oro	3	Marzo	2023-03-30T00:00:00	2024-11-08T03:00:00	4	Temperatura máxima	18.2
140131	7	Sololá	719	Santiago Atitlán	14	Cerro de Oro	3	Marzo	2023-03-30T00:00:00	2024-11-08T03:00:00	3	Temperatura mínima	17.7
140132	7	Sololá	719	Santiago Atitlán	14	Cerro de Oro	3	Marzo	2023-03-30T00:00:00	2024-11-08T03:00:00	5	Humedad	66
140133	7	Sololá	719	Santiago Atitlán	14	Cerro de Oro	3	Marzo	2023-03-30T00:00:00	2024-11-08T03:00:00	6	Velocidad del viento	6.4
140134	7	Sololá	719	Santiago Atitlán	14	Cerro de Oro	3	Marzo	2023-03-30T00:00:00	2024-11-08T03:00:00	7	Dirección del viento	6.44
140135	7	Sololá	719	Santiago Atitlán	14	Cerro de Oro	3	Marzo	2023-03-30T00:00:00	2024-11-08T03:00:00	1	Precipitación	0
140136	7	Sololá	719	Santiago Atitlán	14	Cerro de Oro	3	Marzo	2023-03-30T00:00:00	2024-11-08T03:00:00	8	Radiación solar	0
140137	7	Sololá	719	Santiago Atitlán	14	Cerro de Oro	3	Marzo	2023-03-30T00:00:00	2024-11-08T04:00:00	2	Temperatura media	17.7
140138	7	Sololá	719	Santiago Atitlán	14	Cerro de Oro	3	Marzo	2023-03-30T00:00:00	2024-11-08T04:00:00	4	Temperatura máxima	17.8
140139	7	Sololá	719	Santiago Atitlán	14	Cerro de Oro	3	Marzo	2023-03-30T00:00:00	2024-11-08T04:00:00	3	Temperatura mínima	16.9
140140	7	Sololá	719	Santiago Atitlán	14	Cerro de Oro	3	Marzo	2023-03-30T00:00:00	2024-11-08T04:00:00	5	Humedad	67
140141	7	Sololá	719	Santiago Atitlán	14	Cerro de Oro	3	Marzo	2023-03-30T00:00:00	2024-11-08T04:00:00	6	Velocidad del viento	6.4
140142	7	Sololá	719	Santiago Atitlán	14	Cerro de Oro	3	Marzo	2023-03-30T00:00:00	2024-11-08T04:00:00	7	Dirección del viento	6.44
140143	7	Sololá	719	Santiago Atitlán	14	Cerro de Oro	3	Marzo	2023-03-30T00:00:00	2024-11-08T04:00:00	1	Precipitación	0
140144	7	Sololá	719	Santiago Atitlán	14	Cerro de Oro	3	Marzo	2023-03-30T00:00:00	2024-11-08T04:00:00	8	Radiación solar	0
140145	7	Sololá	719	Santiago Atitlán	14	Cerro de Oro	3	Marzo	2023-03-30T00:00:00	2024-11-08T05:00:00	2	Temperatura media	17.4
140146	7	Sololá	719	Santiago Atitlán	14	Cerro de Oro	3	Marzo	2023-03-30T00:00:00	2024-11-08T05:00:00	4	Temperatura máxima	17.7
140147	7	Sololá	719	Santiago Atitlán	14	Cerro de Oro	3	Marzo	2023-03-30T00:00:00	2024-11-08T05:00:00	3	Temperatura mínima	17.4
140148	7	Sololá	719	Santiago Atitlán	14	Cerro de Oro	3	Marzo	2023-03-30T00:00:00	2024-11-08T05:00:00	5	Humedad	66
140149	7	Sololá	719	Santiago Atitlán	14	Cerro de Oro	3	Marzo	2023-03-30T00:00:00	2024-11-08T05:00:00	6	Velocidad del viento	8
140150	7	Sololá	719	Santiago Atitlán	14	Cerro de Oro	3	Marzo	2023-03-30T00:00:00	2024-11-08T05:00:00	7	Dirección del viento	8.05
140151	7	Sololá	719	Santiago Atitlán	14	Cerro de Oro	3	Marzo	2023-03-30T00:00:00	2024-11-08T05:00:00	1	Precipitación	0
140152	7	Sololá	719	Santiago Atitlán	14	Cerro de Oro	3	Marzo	2023-03-30T00:00:00	2024-11-08T05:00:00	8	Radiación solar	0
140153	7	Sololá	719	Santiago Atitlán	14	Cerro de Oro	3	Marzo	2023-03-30T00:00:00	2024-11-08T06:00:00	2	Temperatura media	16.9
140154	7	Sololá	719	Santiago Atitlán	14	Cerro de Oro	3	Marzo	2023-03-30T00:00:00	2024-11-08T06:00:00	4	Temperatura máxima	17.5
140155	7	Sololá	719	Santiago Atitlán	14	Cerro de Oro	3	Marzo	2023-03-30T00:00:00	2024-11-08T06:00:00	3	Temperatura mínima	16.9
140156	7	Sololá	719	Santiago Atitlán	14	Cerro de Oro	3	Marzo	2023-03-30T00:00:00	2024-11-08T06:00:00	5	Humedad	64
140157	7	Sololá	719	Santiago Atitlán	14	Cerro de Oro	3	Marzo	2023-03-30T00:00:00	2024-11-08T06:00:00	6	Velocidad del viento	6.4
140158	7	Sololá	719	Santiago Atitlán	14	Cerro de Oro	3	Marzo	2023-03-30T00:00:00	2024-11-08T06:00:00	7	Dirección del viento	6.44
140159	7	Sololá	719	Santiago Atitlán	14	Cerro de Oro	3	Marzo	2023-03-30T00:00:00	2024-11-08T06:00:00	1	Precipitación	0
140160	7	Sololá	719	Santiago Atitlán	14	Cerro de Oro	3	Marzo	2023-03-30T00:00:00	2024-11-08T06:00:00	8	Radiación solar	0
140161	7	Sololá	719	Santiago Atitlán	14	Cerro de Oro	3	Marzo	2023-03-30T00:00:00	2024-11-08T07:00:00	2	Temperatura media	15.8
140162	7	Sololá	719	Santiago Atitlán	14	Cerro de Oro	3	Marzo	2023-03-30T00:00:00	2024-11-08T07:00:00	4	Temperatura máxima	16.9
140163	7	Sololá	719	Santiago Atitlán	14	Cerro de Oro	3	Marzo	2023-03-30T00:00:00	2024-11-08T07:00:00	3	Temperatura mínima	15.7
140164	7	Sololá	719	Santiago Atitlán	14	Cerro de Oro	3	Marzo	2023-03-30T00:00:00	2024-11-08T07:00:00	5	Humedad	70
140165	7	Sololá	719	Santiago Atitlán	14	Cerro de Oro	3	Marzo	2023-03-30T00:00:00	2024-11-08T07:00:00	6	Velocidad del viento	3.2
140166	7	Sololá	719	Santiago Atitlán	14	Cerro de Oro	3	Marzo	2023-03-30T00:00:00	2024-11-08T07:00:00	7	Dirección del viento	3.22
140167	7	Sololá	719	Santiago Atitlán	14	Cerro de Oro	3	Marzo	2023-03-30T00:00:00	2024-11-08T07:00:00	1	Precipitación	0
140168	7	Sololá	719	Santiago Atitlán	14	Cerro de Oro	3	Marzo	2023-03-30T00:00:00	2024-11-08T07:00:00	8	Radiación solar	52
140169	7	Sololá	719	Santiago Atitlán	14	Cerro de Oro	3	Marzo	2023-03-30T00:00:00	2024-11-08T08:00:00	2	Temperatura media	17.5
140170	7	Sololá	719	Santiago Atitlán	14	Cerro de Oro	3	Marzo	2023-03-30T00:00:00	2024-11-08T08:00:00	4	Temperatura máxima	17.5
140171	7	Sololá	719	Santiago Atitlán	14	Cerro de Oro	3	Marzo	2023-03-30T00:00:00	2024-11-08T08:00:00	3	Temperatura mínima	15.6
140172	7	Sololá	719	Santiago Atitlán	14	Cerro de Oro	3	Marzo	2023-03-30T00:00:00	2024-11-08T08:00:00	5	Humedad	67
140173	7	Sololá	719	Santiago Atitlán	14	Cerro de Oro	3	Marzo	2023-03-30T00:00:00	2024-11-08T08:00:00	6	Velocidad del viento	4.8
140174	7	Sololá	719	Santiago Atitlán	14	Cerro de Oro	3	Marzo	2023-03-30T00:00:00	2024-11-08T08:00:00	7	Dirección del viento	4.83
140175	7	Sololá	719	Santiago Atitlán	14	Cerro de Oro	3	Marzo	2023-03-30T00:00:00	2024-11-08T08:00:00	1	Precipitación	0
140176	7	Sololá	719	Santiago Atitlán	14	Cerro de Oro	3	Marzo	2023-03-30T00:00:00	2024-11-08T08:00:00	8	Radiación solar	214
140177	7	Sololá	719	Santiago Atitlán	14	Cerro de Oro	3	Marzo	2023-03-30T00:00:00	2024-11-08T09:00:00	2	Temperatura media	19.3
140178	7	Sololá	719	Santiago Atitlán	14	Cerro de Oro	3	Marzo	2023-03-30T00:00:00	2024-11-08T09:00:00	4	Temperatura máxima	19.3
140179	7	Sololá	719	Santiago Atitlán	14	Cerro de Oro	3	Marzo	2023-03-30T00:00:00	2024-11-08T09:00:00	3	Temperatura mínima	17.5
140180	7	Sololá	719	Santiago Atitlán	14	Cerro de Oro	3	Marzo	2023-03-30T00:00:00	2024-11-08T09:00:00	5	Humedad	56
140181	7	Sololá	719	Santiago Atitlán	14	Cerro de Oro	3	Marzo	2023-03-30T00:00:00	2024-11-08T09:00:00	6	Velocidad del viento	4.8
140182	7	Sololá	719	Santiago Atitlán	14	Cerro de Oro	3	Marzo	2023-03-30T00:00:00	2024-11-08T09:00:00	7	Dirección del viento	4.83
140183	7	Sololá	719	Santiago Atitlán	14	Cerro de Oro	3	Marzo	2023-03-30T00:00:00	2024-11-08T09:00:00	1	Precipitación	0
140184	7	Sololá	719	Santiago Atitlán	14	Cerro de Oro	3	Marzo	2023-03-30T00:00:00	2024-11-08T09:00:00	8	Radiación solar	385
140185	7	Sololá	719	Santiago Atitlán	14	Cerro de Oro	3	Marzo	2023-03-30T00:00:00	2024-11-08T10:00:00	2	Temperatura media	21.3
140186	7	Sololá	719	Santiago Atitlán	14	Cerro de Oro	3	Marzo	2023-03-30T00:00:00	2024-11-08T10:00:00	4	Temperatura máxima	21.3
140187	7	Sololá	719	Santiago Atitlán	14	Cerro de Oro	3	Marzo	2023-03-30T00:00:00	2024-11-08T10:00:00	3	Temperatura mínima	19.3
140188	7	Sololá	719	Santiago Atitlán	14	Cerro de Oro	3	Marzo	2023-03-30T00:00:00	2024-11-08T10:00:00	5	Humedad	45
140189	7	Sololá	719	Santiago Atitlán	14	Cerro de Oro	3	Marzo	2023-03-30T00:00:00	2024-11-08T10:00:00	6	Velocidad del viento	6.4
140190	7	Sololá	719	Santiago Atitlán	14	Cerro de Oro	3	Marzo	2023-03-30T00:00:00	2024-11-08T10:00:00	7	Dirección del viento	6.44
140191	7	Sololá	719	Santiago Atitlán	14	Cerro de Oro	3	Marzo	2023-03-30T00:00:00	2024-11-08T10:00:00	1	Precipitación	0
140192	7	Sololá	719	Santiago Atitlán	14	Cerro de Oro	3	Marzo	2023-03-30T00:00:00	2024-11-08T10:00:00	8	Radiación solar	674
140193	7	Sololá	719	Santiago Atitlán	14	Cerro de Oro	3	Marzo	2023-03-30T00:00:00	2024-11-08T11:00:00	2	Temperatura media	22.8
140194	7	Sololá	719	Santiago Atitlán	14	Cerro de Oro	3	Marzo	2023-03-30T00:00:00	2024-11-08T11:00:00	4	Temperatura máxima	22.9
140195	7	Sololá	719	Santiago Atitlán	14	Cerro de Oro	3	Marzo	2023-03-30T00:00:00	2024-11-08T11:00:00	3	Temperatura mínima	21.3
140196	7	Sololá	719	Santiago Atitlán	14	Cerro de Oro	3	Marzo	2023-03-30T00:00:00	2024-11-08T11:00:00	5	Humedad	48
140197	7	Sololá	719	Santiago Atitlán	14	Cerro de Oro	3	Marzo	2023-03-30T00:00:00	2024-11-08T11:00:00	6	Velocidad del viento	6.4
140198	7	Sololá	719	Santiago Atitlán	14	Cerro de Oro	3	Marzo	2023-03-30T00:00:00	2024-11-08T11:00:00	7	Dirección del viento	6.44
140199	7	Sololá	719	Santiago Atitlán	14	Cerro de Oro	3	Marzo	2023-03-30T00:00:00	2024-11-08T11:00:00	1	Precipitación	0
140200	7	Sololá	719	Santiago Atitlán	14	Cerro de Oro	3	Marzo	2023-03-30T00:00:00	2024-11-08T11:00:00	8	Radiación solar	850
140201	7	Sololá	719	Santiago Atitlán	14	Cerro de Oro	3	Marzo	2023-03-30T00:00:00	2024-11-08T12:00:00	2	Temperatura media	23.4
140202	7	Sololá	719	Santiago Atitlán	14	Cerro de Oro	3	Marzo	2023-03-30T00:00:00	2024-11-08T12:00:00	4	Temperatura máxima	23.6
140203	7	Sololá	719	Santiago Atitlán	14	Cerro de Oro	3	Marzo	2023-03-30T00:00:00	2024-11-08T12:00:00	3	Temperatura mínima	22.6
140204	7	Sololá	719	Santiago Atitlán	14	Cerro de Oro	3	Marzo	2023-03-30T00:00:00	2024-11-08T12:00:00	5	Humedad	45
140205	7	Sololá	719	Santiago Atitlán	14	Cerro de Oro	3	Marzo	2023-03-30T00:00:00	2024-11-08T12:00:00	6	Velocidad del viento	14.5
140206	7	Sololá	719	Santiago Atitlán	14	Cerro de Oro	3	Marzo	2023-03-30T00:00:00	2024-11-08T12:00:00	7	Dirección del viento	14.48
140207	7	Sololá	719	Santiago Atitlán	14	Cerro de Oro	3	Marzo	2023-03-30T00:00:00	2024-11-08T12:00:00	1	Precipitación	0
140208	7	Sololá	719	Santiago Atitlán	14	Cerro de Oro	3	Marzo	2023-03-30T00:00:00	2024-11-08T12:00:00	8	Radiación solar	962
140209	7	Sololá	719	Santiago Atitlán	14	Cerro de Oro	3	Marzo	2023-03-30T00:00:00	2024-11-08T13:00:00	2	Temperatura media	24.3
140210	7	Sololá	719	Santiago Atitlán	14	Cerro de Oro	3	Marzo	2023-03-30T00:00:00	2024-11-08T13:00:00	4	Temperatura máxima	24.3
140211	7	Sololá	719	Santiago Atitlán	14	Cerro de Oro	3	Marzo	2023-03-30T00:00:00	2024-11-08T13:00:00	3	Temperatura mínima	23.3
140212	7	Sololá	719	Santiago Atitlán	14	Cerro de Oro	3	Marzo	2023-03-30T00:00:00	2024-11-08T13:00:00	5	Humedad	45
140213	7	Sololá	719	Santiago Atitlán	14	Cerro de Oro	3	Marzo	2023-03-30T00:00:00	2024-11-08T13:00:00	6	Velocidad del viento	14.5
140214	7	Sololá	719	Santiago Atitlán	14	Cerro de Oro	3	Marzo	2023-03-30T00:00:00	2024-11-08T13:00:00	7	Dirección del viento	14.48
140215	7	Sololá	719	Santiago Atitlán	14	Cerro de Oro	3	Marzo	2023-03-30T00:00:00	2024-11-08T13:00:00	1	Precipitación	0
140216	7	Sololá	719	Santiago Atitlán	14	Cerro de Oro	3	Marzo	2023-03-30T00:00:00	2024-11-08T13:00:00	8	Radiación solar	955
140217	7	Sololá	719	Santiago Atitlán	14	Cerro de Oro	3	Marzo	2023-03-30T00:00:00	2024-11-08T14:00:00	2	Temperatura media	24.6
140218	7	Sololá	719	Santiago Atitlán	14	Cerro de Oro	3	Marzo	2023-03-30T00:00:00	2024-11-08T14:00:00	4	Temperatura máxima	25.1
140219	7	Sololá	719	Santiago Atitlán	14	Cerro de Oro	3	Marzo	2023-03-30T00:00:00	2024-11-08T14:00:00	3	Temperatura mínima	24.2
140220	7	Sololá	719	Santiago Atitlán	14	Cerro de Oro	3	Marzo	2023-03-30T00:00:00	2024-11-08T14:00:00	5	Humedad	49
140221	7	Sololá	719	Santiago Atitlán	14	Cerro de Oro	3	Marzo	2023-03-30T00:00:00	2024-11-08T14:00:00	6	Velocidad del viento	12.9
140222	7	Sololá	719	Santiago Atitlán	14	Cerro de Oro	3	Marzo	2023-03-30T00:00:00	2024-11-08T14:00:00	7	Dirección del viento	12.87
140223	7	Sololá	719	Santiago Atitlán	14	Cerro de Oro	3	Marzo	2023-03-30T00:00:00	2024-11-08T14:00:00	1	Precipitación	0
140224	7	Sololá	719	Santiago Atitlán	14	Cerro de Oro	3	Marzo	2023-03-30T00:00:00	2024-11-08T14:00:00	8	Radiación solar	880
140225	7	Sololá	719	Santiago Atitlán	14	Cerro de Oro	3	Marzo	2023-03-30T00:00:00	2024-11-08T15:00:00	2	Temperatura media	24.7
140226	7	Sololá	719	Santiago Atitlán	14	Cerro de Oro	3	Marzo	2023-03-30T00:00:00	2024-11-08T15:00:00	4	Temperatura máxima	25.1
140227	7	Sololá	719	Santiago Atitlán	14	Cerro de Oro	3	Marzo	2023-03-30T00:00:00	2024-11-08T15:00:00	3	Temperatura mínima	24.5
140228	7	Sololá	719	Santiago Atitlán	14	Cerro de Oro	3	Marzo	2023-03-30T00:00:00	2024-11-08T15:00:00	5	Humedad	56
140229	7	Sololá	719	Santiago Atitlán	14	Cerro de Oro	3	Marzo	2023-03-30T00:00:00	2024-11-08T15:00:00	6	Velocidad del viento	11.3
140230	7	Sololá	719	Santiago Atitlán	14	Cerro de Oro	3	Marzo	2023-03-30T00:00:00	2024-11-08T15:00:00	7	Dirección del viento	11.27
140231	7	Sololá	719	Santiago Atitlán	14	Cerro de Oro	3	Marzo	2023-03-30T00:00:00	2024-11-08T15:00:00	1	Precipitación	0
140232	7	Sololá	719	Santiago Atitlán	14	Cerro de Oro	3	Marzo	2023-03-30T00:00:00	2024-11-08T15:00:00	8	Radiación solar	745
140233	7	Sololá	719	Santiago Atitlán	14	Cerro de Oro	3	Marzo	2023-03-30T00:00:00	2024-11-08T16:00:00	2	Temperatura media	24.3
140234	7	Sololá	719	Santiago Atitlán	14	Cerro de Oro	3	Marzo	2023-03-30T00:00:00	2024-11-08T16:00:00	4	Temperatura máxima	25.2
140235	7	Sololá	719	Santiago Atitlán	14	Cerro de Oro	3	Marzo	2023-03-30T00:00:00	2024-11-08T16:00:00	3	Temperatura mínima	24.1
140236	7	Sololá	719	Santiago Atitlán	14	Cerro de Oro	3	Marzo	2023-03-30T00:00:00	2024-11-08T16:00:00	5	Humedad	60
140237	7	Sololá	719	Santiago Atitlán	14	Cerro de Oro	3	Marzo	2023-03-30T00:00:00	2024-11-08T16:00:00	6	Velocidad del viento	12.9
140238	7	Sololá	719	Santiago Atitlán	14	Cerro de Oro	3	Marzo	2023-03-30T00:00:00	2024-11-08T16:00:00	7	Dirección del viento	12.87
140239	7	Sololá	719	Santiago Atitlán	14	Cerro de Oro	3	Marzo	2023-03-30T00:00:00	2024-11-08T16:00:00	1	Precipitación	0
140240	7	Sololá	719	Santiago Atitlán	14	Cerro de Oro	3	Marzo	2023-03-30T00:00:00	2024-11-08T16:00:00	8	Radiación solar	555
140241	7	Sololá	719	Santiago Atitlán	14	Cerro de Oro	3	Marzo	2023-03-30T00:00:00	2024-11-08T17:00:00	2	Temperatura media	22.8
140242	7	Sololá	719	Santiago Atitlán	14	Cerro de Oro	3	Marzo	2023-03-30T00:00:00	2024-11-08T17:00:00	4	Temperatura máxima	24.6
140243	7	Sololá	719	Santiago Atitlán	14	Cerro de Oro	3	Marzo	2023-03-30T00:00:00	2024-11-08T17:00:00	3	Temperatura mínima	22.8
140244	7	Sololá	719	Santiago Atitlán	14	Cerro de Oro	3	Marzo	2023-03-30T00:00:00	2024-11-08T17:00:00	5	Humedad	68
140245	7	Sololá	719	Santiago Atitlán	14	Cerro de Oro	3	Marzo	2023-03-30T00:00:00	2024-11-08T17:00:00	6	Velocidad del viento	12.9
140246	7	Sololá	719	Santiago Atitlán	14	Cerro de Oro	3	Marzo	2023-03-30T00:00:00	2024-11-08T17:00:00	7	Dirección del viento	12.87
140247	7	Sololá	719	Santiago Atitlán	14	Cerro de Oro	3	Marzo	2023-03-30T00:00:00	2024-11-08T17:00:00	1	Precipitación	0
140248	7	Sololá	719	Santiago Atitlán	14	Cerro de Oro	3	Marzo	2023-03-30T00:00:00	2024-11-08T17:00:00	8	Radiación solar	336
140249	7	Sololá	719	Santiago Atitlán	14	Cerro de Oro	3	Marzo	2023-03-30T00:00:00	2024-11-08T18:00:00	2	Temperatura media	21.5
140250	7	Sololá	719	Santiago Atitlán	14	Cerro de Oro	3	Marzo	2023-03-30T00:00:00	2024-11-08T18:00:00	4	Temperatura máxima	23.2
140251	7	Sololá	719	Santiago Atitlán	14	Cerro de Oro	3	Marzo	2023-03-30T00:00:00	2024-11-08T18:00:00	3	Temperatura mínima	21.5
140252	7	Sololá	719	Santiago Atitlán	14	Cerro de Oro	3	Marzo	2023-03-30T00:00:00	2024-11-08T18:00:00	5	Humedad	74
140253	7	Sololá	719	Santiago Atitlán	14	Cerro de Oro	3	Marzo	2023-03-30T00:00:00	2024-11-08T18:00:00	6	Velocidad del viento	14.5
140254	7	Sololá	719	Santiago Atitlán	14	Cerro de Oro	3	Marzo	2023-03-30T00:00:00	2024-11-08T18:00:00	7	Dirección del viento	14.48
140255	7	Sololá	719	Santiago Atitlán	14	Cerro de Oro	3	Marzo	2023-03-30T00:00:00	2024-11-08T18:00:00	1	Precipitación	0
140256	7	Sololá	719	Santiago Atitlán	14	Cerro de Oro	3	Marzo	2023-03-30T00:00:00	2024-11-08T18:00:00	8	Radiación solar	88
140257	7	Sololá	719	Santiago Atitlán	14	Cerro de Oro	3	Marzo	2023-03-30T00:00:00	2024-11-08T19:00:00	2	Temperatura media	19.8
140258	7	Sololá	719	Santiago Atitlán	14	Cerro de Oro	3	Marzo	2023-03-30T00:00:00	2024-11-08T19:00:00	4	Temperatura máxima	21.5
140259	7	Sololá	719	Santiago Atitlán	14	Cerro de Oro	3	Marzo	2023-03-30T00:00:00	2024-11-08T19:00:00	3	Temperatura mínima	19.8
140260	7	Sololá	719	Santiago Atitlán	14	Cerro de Oro	3	Marzo	2023-03-30T00:00:00	2024-11-08T19:00:00	5	Humedad	75
140261	7	Sololá	719	Santiago Atitlán	14	Cerro de Oro	3	Marzo	2023-03-30T00:00:00	2024-11-08T19:00:00	6	Velocidad del viento	12.9
140262	7	Sololá	719	Santiago Atitlán	14	Cerro de Oro	3	Marzo	2023-03-30T00:00:00	2024-11-08T19:00:00	7	Dirección del viento	12.87
140263	7	Sololá	719	Santiago Atitlán	14	Cerro de Oro	3	Marzo	2023-03-30T00:00:00	2024-11-08T19:00:00	1	Precipitación	0
140264	7	Sololá	719	Santiago Atitlán	14	Cerro de Oro	3	Marzo	2023-03-30T00:00:00	2024-11-08T19:00:00	8	Radiación solar	0
140265	7	Sololá	719	Santiago Atitlán	14	Cerro de Oro	3	Marzo	2023-03-30T00:00:00	2024-11-08T20:00:00	2	Temperatura media	18.4
140266	7	Sololá	719	Santiago Atitlán	14	Cerro de Oro	3	Marzo	2023-03-30T00:00:00	2024-11-08T20:00:00	4	Temperatura máxima	19.9
140267	7	Sololá	719	Santiago Atitlán	14	Cerro de Oro	3	Marzo	2023-03-30T00:00:00	2024-11-08T20:00:00	3	Temperatura mínima	18.3
140268	7	Sololá	719	Santiago Atitlán	14	Cerro de Oro	3	Marzo	2023-03-30T00:00:00	2024-11-08T20:00:00	5	Humedad	81
140269	7	Sololá	719	Santiago Atitlán	14	Cerro de Oro	3	Marzo	2023-03-30T00:00:00	2024-11-08T20:00:00	6	Velocidad del viento	8
140270	7	Sololá	719	Santiago Atitlán	14	Cerro de Oro	3	Marzo	2023-03-30T00:00:00	2024-11-08T20:00:00	7	Dirección del viento	8.05
140271	7	Sololá	719	Santiago Atitlán	14	Cerro de Oro	3	Marzo	2023-03-30T00:00:00	2024-11-08T20:00:00	1	Precipitación	0
140272	7	Sololá	719	Santiago Atitlán	14	Cerro de Oro	3	Marzo	2023-03-30T00:00:00	2024-11-08T20:00:00	8	Radiación solar	0
140273	7	Sololá	719	Santiago Atitlán	14	Cerro de Oro	3	Marzo	2023-03-30T00:00:00	2024-11-08T21:00:00	2	Temperatura media	18.7
140274	7	Sololá	719	Santiago Atitlán	14	Cerro de Oro	3	Marzo	2023-03-30T00:00:00	2024-11-08T21:00:00	4	Temperatura máxima	18.7
140275	7	Sololá	719	Santiago Atitlán	14	Cerro de Oro	3	Marzo	2023-03-30T00:00:00	2024-11-08T21:00:00	3	Temperatura mínima	18.2
140276	7	Sololá	719	Santiago Atitlán	14	Cerro de Oro	3	Marzo	2023-03-30T00:00:00	2024-11-08T21:00:00	5	Humedad	75
140277	7	Sololá	719	Santiago Atitlán	14	Cerro de Oro	3	Marzo	2023-03-30T00:00:00	2024-11-08T21:00:00	6	Velocidad del viento	3.2
140278	7	Sololá	719	Santiago Atitlán	14	Cerro de Oro	3	Marzo	2023-03-30T00:00:00	2024-11-08T21:00:00	7	Dirección del viento	3.22
140279	7	Sololá	719	Santiago Atitlán	14	Cerro de Oro	3	Marzo	2023-03-30T00:00:00	2024-11-08T21:00:00	1	Precipitación	0
140280	7	Sololá	719	Santiago Atitlán	14	Cerro de Oro	3	Marzo	2023-03-30T00:00:00	2024-11-08T21:00:00	8	Radiación solar	0
140281	7	Sololá	719	Santiago Atitlán	14	Cerro de Oro	3	Marzo	2023-03-30T00:00:00	2024-11-08T22:00:00	2	Temperatura media	18.1
140282	7	Sololá	719	Santiago Atitlán	14	Cerro de Oro	3	Marzo	2023-03-30T00:00:00	2024-11-08T22:00:00	4	Temperatura máxima	18.7
140283	7	Sololá	719	Santiago Atitlán	14	Cerro de Oro	3	Marzo	2023-03-30T00:00:00	2024-11-08T22:00:00	3	Temperatura mínima	18.1
140284	7	Sololá	719	Santiago Atitlán	14	Cerro de Oro	3	Marzo	2023-03-30T00:00:00	2024-11-08T22:00:00	5	Humedad	75
140285	7	Sololá	719	Santiago Atitlán	14	Cerro de Oro	3	Marzo	2023-03-30T00:00:00	2024-11-08T22:00:00	6	Velocidad del viento	3.2
140286	7	Sololá	719	Santiago Atitlán	14	Cerro de Oro	3	Marzo	2023-03-30T00:00:00	2024-11-08T22:00:00	7	Dirección del viento	3.22
140287	7	Sololá	719	Santiago Atitlán	14	Cerro de Oro	3	Marzo	2023-03-30T00:00:00	2024-11-08T22:00:00	1	Precipitación	0
140288	7	Sololá	719	Santiago Atitlán	14	Cerro de Oro	3	Marzo	2023-03-30T00:00:00	2024-11-08T22:00:00	8	Radiación solar	0
140289	7	Sololá	719	Santiago Atitlán	14	Cerro de Oro	3	Marzo	2023-03-30T00:00:00	2024-11-08T23:00:00	2	Temperatura media	18.4
140290	7	Sololá	719	Santiago Atitlán	14	Cerro de Oro	3	Marzo	2023-03-30T00:00:00	2024-11-08T23:00:00	4	Temperatura máxima	18.4
140291	7	Sololá	719	Santiago Atitlán	14	Cerro de Oro	3	Marzo	2023-03-30T00:00:00	2024-11-08T23:00:00	3	Temperatura mínima	17.9
140292	7	Sololá	719	Santiago Atitlán	14	Cerro de Oro	3	Marzo	2023-03-30T00:00:00	2024-11-08T23:00:00	5	Humedad	71
140293	7	Sololá	719	Santiago Atitlán	14	Cerro de Oro	3	Marzo	2023-03-30T00:00:00	2024-11-08T23:00:00	6	Velocidad del viento	6.4
140294	7	Sololá	719	Santiago Atitlán	14	Cerro de Oro	3	Marzo	2023-03-30T00:00:00	2024-11-08T23:00:00	7	Dirección del viento	6.44
140295	7	Sololá	719	Santiago Atitlán	14	Cerro de Oro	3	Marzo	2023-03-30T00:00:00	2024-11-08T23:00:00	1	Precipitación	0
140296	7	Sololá	719	Santiago Atitlán	14	Cerro de Oro	3	Marzo	2023-03-30T00:00:00	2024-11-08T23:00:00	8	Radiación solar	0
140297	7	Sololá	719	Santiago Atitlán	14	Cerro de Oro	3	Marzo	2023-03-31T00:00:00	2024-11-08T00:00:00	2	Temperatura media	18.4
140298	7	Sololá	719	Santiago Atitlán	14	Cerro de Oro	3	Marzo	2023-03-31T00:00:00	2024-11-08T00:00:00	4	Temperatura máxima	18.5
140299	7	Sololá	719	Santiago Atitlán	14	Cerro de Oro	3	Marzo	2023-03-31T00:00:00	2024-11-08T00:00:00	3	Temperatura mínima	17.9
140300	7	Sololá	719	Santiago Atitlán	14	Cerro de Oro	3	Marzo	2023-03-31T00:00:00	2024-11-08T00:00:00	5	Humedad	73
140301	7	Sololá	719	Santiago Atitlán	14	Cerro de Oro	3	Marzo	2023-03-31T00:00:00	2024-11-08T00:00:00	6	Velocidad del viento	4.8
140302	7	Sololá	719	Santiago Atitlán	14	Cerro de Oro	3	Marzo	2023-03-31T00:00:00	2024-11-08T00:00:00	7	Dirección del viento	4.83
140303	7	Sololá	719	Santiago Atitlán	14	Cerro de Oro	3	Marzo	2023-03-31T00:00:00	2024-11-08T00:00:00	1	Precipitación	0
140304	7	Sololá	719	Santiago Atitlán	14	Cerro de Oro	3	Marzo	2023-03-31T00:00:00	2024-11-08T00:00:00	8	Radiación solar	0
140305	7	Sololá	719	Santiago Atitlán	14	Cerro de Oro	3	Marzo	2023-03-31T00:00:00	2024-11-08T01:00:00	2	Temperatura media	17.6
140306	7	Sololá	719	Santiago Atitlán	14	Cerro de Oro	3	Marzo	2023-03-31T00:00:00	2024-11-08T01:00:00	4	Temperatura máxima	18.6
140307	7	Sololá	719	Santiago Atitlán	14	Cerro de Oro	3	Marzo	2023-03-31T00:00:00	2024-11-08T01:00:00	3	Temperatura mínima	17.6
140308	7	Sololá	719	Santiago Atitlán	14	Cerro de Oro	3	Marzo	2023-03-31T00:00:00	2024-11-08T01:00:00	5	Humedad	72
140309	7	Sololá	719	Santiago Atitlán	14	Cerro de Oro	3	Marzo	2023-03-31T00:00:00	2024-11-08T01:00:00	6	Velocidad del viento	4.8
140310	7	Sololá	719	Santiago Atitlán	14	Cerro de Oro	3	Marzo	2023-03-31T00:00:00	2024-11-08T01:00:00	7	Dirección del viento	4.83
140311	7	Sololá	719	Santiago Atitlán	14	Cerro de Oro	3	Marzo	2023-03-31T00:00:00	2024-11-08T01:00:00	1	Precipitación	0
140312	7	Sololá	719	Santiago Atitlán	14	Cerro de Oro	3	Marzo	2023-03-31T00:00:00	2024-11-08T01:00:00	8	Radiación solar	0
140313	7	Sololá	719	Santiago Atitlán	14	Cerro de Oro	3	Marzo	2023-03-31T00:00:00	2024-11-08T02:00:00	2	Temperatura media	18.3
140314	7	Sololá	719	Santiago Atitlán	14	Cerro de Oro	3	Marzo	2023-03-31T00:00:00	2024-11-08T02:00:00	4	Temperatura máxima	18.5
140315	7	Sololá	719	Santiago Atitlán	14	Cerro de Oro	3	Marzo	2023-03-31T00:00:00	2024-11-08T02:00:00	3	Temperatura mínima	16.9
140316	7	Sololá	719	Santiago Atitlán	14	Cerro de Oro	3	Marzo	2023-03-31T00:00:00	2024-11-08T02:00:00	5	Humedad	66
140317	7	Sololá	719	Santiago Atitlán	14	Cerro de Oro	3	Marzo	2023-03-31T00:00:00	2024-11-08T02:00:00	6	Velocidad del viento	4.8
140318	7	Sololá	719	Santiago Atitlán	14	Cerro de Oro	3	Marzo	2023-03-31T00:00:00	2024-11-08T02:00:00	7	Dirección del viento	4.83
140319	7	Sololá	719	Santiago Atitlán	14	Cerro de Oro	3	Marzo	2023-03-31T00:00:00	2024-11-08T02:00:00	1	Precipitación	0
140320	7	Sololá	719	Santiago Atitlán	14	Cerro de Oro	3	Marzo	2023-03-31T00:00:00	2024-11-08T02:00:00	8	Radiación solar	0
140321	7	Sololá	719	Santiago Atitlán	14	Cerro de Oro	3	Marzo	2023-03-31T00:00:00	2024-11-08T03:00:00	2	Temperatura media	17.6
140322	7	Sololá	719	Santiago Atitlán	14	Cerro de Oro	3	Marzo	2023-03-31T00:00:00	2024-11-08T03:00:00	4	Temperatura máxima	18.3
140323	7	Sololá	719	Santiago Atitlán	14	Cerro de Oro	3	Marzo	2023-03-31T00:00:00	2024-11-08T03:00:00	3	Temperatura mínima	17.6
140324	7	Sololá	719	Santiago Atitlán	14	Cerro de Oro	3	Marzo	2023-03-31T00:00:00	2024-11-08T03:00:00	5	Humedad	67
140325	7	Sololá	719	Santiago Atitlán	14	Cerro de Oro	3	Marzo	2023-03-31T00:00:00	2024-11-08T03:00:00	6	Velocidad del viento	6.4
140326	7	Sololá	719	Santiago Atitlán	14	Cerro de Oro	3	Marzo	2023-03-31T00:00:00	2024-11-08T03:00:00	7	Dirección del viento	6.44
140327	7	Sololá	719	Santiago Atitlán	14	Cerro de Oro	3	Marzo	2023-03-31T00:00:00	2024-11-08T03:00:00	1	Precipitación	0
140328	7	Sololá	719	Santiago Atitlán	14	Cerro de Oro	3	Marzo	2023-03-31T00:00:00	2024-11-08T03:00:00	8	Radiación solar	0
140329	7	Sololá	719	Santiago Atitlán	14	Cerro de Oro	3	Marzo	2023-03-31T00:00:00	2024-11-08T04:00:00	2	Temperatura media	17.1
140330	7	Sololá	719	Santiago Atitlán	14	Cerro de Oro	3	Marzo	2023-03-31T00:00:00	2024-11-08T04:00:00	4	Temperatura máxima	17.6
140331	7	Sololá	719	Santiago Atitlán	14	Cerro de Oro	3	Marzo	2023-03-31T00:00:00	2024-11-08T04:00:00	3	Temperatura mínima	16.3
140332	7	Sololá	719	Santiago Atitlán	14	Cerro de Oro	3	Marzo	2023-03-31T00:00:00	2024-11-08T04:00:00	5	Humedad	69
140333	7	Sololá	719	Santiago Atitlán	14	Cerro de Oro	3	Marzo	2023-03-31T00:00:00	2024-11-08T04:00:00	6	Velocidad del viento	4.8
140334	7	Sololá	719	Santiago Atitlán	14	Cerro de Oro	3	Marzo	2023-03-31T00:00:00	2024-11-08T04:00:00	7	Dirección del viento	4.83
140335	7	Sololá	719	Santiago Atitlán	14	Cerro de Oro	3	Marzo	2023-03-31T00:00:00	2024-11-08T04:00:00	1	Precipitación	0
140336	7	Sololá	719	Santiago Atitlán	14	Cerro de Oro	3	Marzo	2023-03-31T00:00:00	2024-11-08T04:00:00	8	Radiación solar	0
140337	7	Sololá	719	Santiago Atitlán	14	Cerro de Oro	3	Marzo	2023-03-31T00:00:00	2024-11-08T05:00:00	2	Temperatura media	16.2
140338	7	Sololá	719	Santiago Atitlán	14	Cerro de Oro	3	Marzo	2023-03-31T00:00:00	2024-11-08T05:00:00	4	Temperatura máxima	17.1
140339	7	Sololá	719	Santiago Atitlán	14	Cerro de Oro	3	Marzo	2023-03-31T00:00:00	2024-11-08T05:00:00	3	Temperatura mínima	16.2
140340	7	Sololá	719	Santiago Atitlán	14	Cerro de Oro	3	Marzo	2023-03-31T00:00:00	2024-11-08T05:00:00	5	Humedad	72
140341	7	Sololá	719	Santiago Atitlán	14	Cerro de Oro	3	Marzo	2023-03-31T00:00:00	2024-11-08T05:00:00	6	Velocidad del viento	4.8
140342	7	Sololá	719	Santiago Atitlán	14	Cerro de Oro	3	Marzo	2023-03-31T00:00:00	2024-11-08T05:00:00	7	Dirección del viento	4.83
140343	7	Sololá	719	Santiago Atitlán	14	Cerro de Oro	3	Marzo	2023-03-31T00:00:00	2024-11-08T05:00:00	1	Precipitación	0
140344	7	Sololá	719	Santiago Atitlán	14	Cerro de Oro	3	Marzo	2023-03-31T00:00:00	2024-11-08T05:00:00	8	Radiación solar	0
140345	7	Sololá	719	Santiago Atitlán	14	Cerro de Oro	3	Marzo	2023-03-31T00:00:00	2024-11-08T06:00:00	2	Temperatura media	16.6
140346	7	Sololá	719	Santiago Atitlán	14	Cerro de Oro	3	Marzo	2023-03-31T00:00:00	2024-11-08T06:00:00	4	Temperatura máxima	16.7
140347	7	Sololá	719	Santiago Atitlán	14	Cerro de Oro	3	Marzo	2023-03-31T00:00:00	2024-11-08T06:00:00	3	Temperatura mínima	15.9
140348	7	Sololá	719	Santiago Atitlán	14	Cerro de Oro	3	Marzo	2023-03-31T00:00:00	2024-11-08T06:00:00	5	Humedad	71
140349	7	Sololá	719	Santiago Atitlán	14	Cerro de Oro	3	Marzo	2023-03-31T00:00:00	2024-11-08T06:00:00	6	Velocidad del viento	4.8
140350	7	Sololá	719	Santiago Atitlán	14	Cerro de Oro	3	Marzo	2023-03-31T00:00:00	2024-11-08T06:00:00	7	Dirección del viento	4.83
140351	7	Sololá	719	Santiago Atitlán	14	Cerro de Oro	3	Marzo	2023-03-31T00:00:00	2024-11-08T06:00:00	1	Precipitación	0
140352	7	Sololá	719	Santiago Atitlán	14	Cerro de Oro	3	Marzo	2023-03-31T00:00:00	2024-11-08T06:00:00	8	Radiación solar	0
140353	7	Sololá	719	Santiago Atitlán	14	Cerro de Oro	3	Marzo	2023-03-31T00:00:00	2024-11-08T07:00:00	2	Temperatura media	16.3
140354	7	Sololá	719	Santiago Atitlán	14	Cerro de Oro	3	Marzo	2023-03-31T00:00:00	2024-11-08T07:00:00	4	Temperatura máxima	16.7
140355	7	Sololá	719	Santiago Atitlán	14	Cerro de Oro	3	Marzo	2023-03-31T00:00:00	2024-11-08T07:00:00	3	Temperatura mínima	15.8
140356	7	Sololá	719	Santiago Atitlán	14	Cerro de Oro	3	Marzo	2023-03-31T00:00:00	2024-11-08T07:00:00	5	Humedad	72
140357	7	Sololá	719	Santiago Atitlán	14	Cerro de Oro	3	Marzo	2023-03-31T00:00:00	2024-11-08T07:00:00	6	Velocidad del viento	4.8
140358	7	Sololá	719	Santiago Atitlán	14	Cerro de Oro	3	Marzo	2023-03-31T00:00:00	2024-11-08T07:00:00	7	Dirección del viento	4.83
140359	7	Sololá	719	Santiago Atitlán	14	Cerro de Oro	3	Marzo	2023-03-31T00:00:00	2024-11-08T07:00:00	1	Precipitación	0
140360	7	Sololá	719	Santiago Atitlán	14	Cerro de Oro	3	Marzo	2023-03-31T00:00:00	2024-11-08T07:00:00	8	Radiación solar	53
140361	7	Sololá	719	Santiago Atitlán	14	Cerro de Oro	3	Marzo	2023-03-31T00:00:00	2024-11-08T08:00:00	2	Temperatura media	18.8
140362	7	Sololá	719	Santiago Atitlán	14	Cerro de Oro	3	Marzo	2023-03-31T00:00:00	2024-11-08T08:00:00	4	Temperatura máxima	18.8
140363	7	Sololá	719	Santiago Atitlán	14	Cerro de Oro	3	Marzo	2023-03-31T00:00:00	2024-11-08T08:00:00	3	Temperatura mínima	16.1
140364	7	Sololá	719	Santiago Atitlán	14	Cerro de Oro	3	Marzo	2023-03-31T00:00:00	2024-11-08T08:00:00	5	Humedad	66
140365	7	Sololá	719	Santiago Atitlán	14	Cerro de Oro	3	Marzo	2023-03-31T00:00:00	2024-11-08T08:00:00	6	Velocidad del viento	4.8
140366	7	Sololá	719	Santiago Atitlán	14	Cerro de Oro	3	Marzo	2023-03-31T00:00:00	2024-11-08T08:00:00	7	Dirección del viento	4.83
140367	7	Sololá	719	Santiago Atitlán	14	Cerro de Oro	3	Marzo	2023-03-31T00:00:00	2024-11-08T08:00:00	1	Precipitación	0
140368	7	Sololá	719	Santiago Atitlán	14	Cerro de Oro	3	Marzo	2023-03-31T00:00:00	2024-11-08T08:00:00	8	Radiación solar	222
140369	7	Sololá	719	Santiago Atitlán	14	Cerro de Oro	3	Marzo	2023-03-31T00:00:00	2024-11-08T09:00:00	2	Temperatura media	20.5
140370	7	Sololá	719	Santiago Atitlán	14	Cerro de Oro	3	Marzo	2023-03-31T00:00:00	2024-11-08T09:00:00	4	Temperatura máxima	20.5
140371	7	Sololá	719	Santiago Atitlán	14	Cerro de Oro	3	Marzo	2023-03-31T00:00:00	2024-11-08T09:00:00	3	Temperatura mínima	18.8
140372	7	Sololá	719	Santiago Atitlán	14	Cerro de Oro	3	Marzo	2023-03-31T00:00:00	2024-11-08T09:00:00	5	Humedad	59
140373	7	Sololá	719	Santiago Atitlán	14	Cerro de Oro	3	Marzo	2023-03-31T00:00:00	2024-11-08T09:00:00	6	Velocidad del viento	3.2
140374	7	Sololá	719	Santiago Atitlán	14	Cerro de Oro	3	Marzo	2023-03-31T00:00:00	2024-11-08T09:00:00	7	Dirección del viento	3.22
140375	7	Sololá	719	Santiago Atitlán	14	Cerro de Oro	3	Marzo	2023-03-31T00:00:00	2024-11-08T09:00:00	1	Precipitación	0
140376	7	Sololá	719	Santiago Atitlán	14	Cerro de Oro	3	Marzo	2023-03-31T00:00:00	2024-11-08T09:00:00	8	Radiación solar	390
140377	7	Sololá	719	Santiago Atitlán	14	Cerro de Oro	3	Marzo	2023-03-31T00:00:00	2024-11-08T10:00:00	2	Temperatura media	21.3
140378	7	Sololá	719	Santiago Atitlán	14	Cerro de Oro	3	Marzo	2023-03-31T00:00:00	2024-11-08T10:00:00	4	Temperatura máxima	21.6
140379	7	Sololá	719	Santiago Atitlán	14	Cerro de Oro	3	Marzo	2023-03-31T00:00:00	2024-11-08T10:00:00	3	Temperatura mínima	20.5
140380	7	Sololá	719	Santiago Atitlán	14	Cerro de Oro	3	Marzo	2023-03-31T00:00:00	2024-11-08T10:00:00	5	Humedad	56
140381	7	Sololá	719	Santiago Atitlán	14	Cerro de Oro	3	Marzo	2023-03-31T00:00:00	2024-11-08T10:00:00	6	Velocidad del viento	3.2
140382	7	Sololá	719	Santiago Atitlán	14	Cerro de Oro	3	Marzo	2023-03-31T00:00:00	2024-11-08T10:00:00	7	Dirección del viento	3.22
140383	7	Sololá	719	Santiago Atitlán	14	Cerro de Oro	3	Marzo	2023-03-31T00:00:00	2024-11-08T10:00:00	1	Precipitación	0
140384	7	Sololá	719	Santiago Atitlán	14	Cerro de Oro	3	Marzo	2023-03-31T00:00:00	2024-11-08T10:00:00	8	Radiación solar	665
140385	7	Sololá	719	Santiago Atitlán	14	Cerro de Oro	3	Marzo	2023-03-31T00:00:00	2024-11-08T11:00:00	2	Temperatura media	23.3
140386	7	Sololá	719	Santiago Atitlán	14	Cerro de Oro	3	Marzo	2023-03-31T00:00:00	2024-11-08T11:00:00	4	Temperatura máxima	23.3
140387	7	Sololá	719	Santiago Atitlán	14	Cerro de Oro	3	Marzo	2023-03-31T00:00:00	2024-11-08T11:00:00	3	Temperatura mínima	21.3
140388	7	Sololá	719	Santiago Atitlán	14	Cerro de Oro	3	Marzo	2023-03-31T00:00:00	2024-11-08T11:00:00	5	Humedad	49
140389	7	Sololá	719	Santiago Atitlán	14	Cerro de Oro	3	Marzo	2023-03-31T00:00:00	2024-11-08T11:00:00	6	Velocidad del viento	9.7
140390	7	Sololá	719	Santiago Atitlán	14	Cerro de Oro	3	Marzo	2023-03-31T00:00:00	2024-11-08T11:00:00	7	Dirección del viento	9.66
140391	7	Sololá	719	Santiago Atitlán	14	Cerro de Oro	3	Marzo	2023-03-31T00:00:00	2024-11-08T11:00:00	1	Precipitación	0
140392	7	Sololá	719	Santiago Atitlán	14	Cerro de Oro	3	Marzo	2023-03-31T00:00:00	2024-11-08T11:00:00	8	Radiación solar	866
140393	7	Sololá	719	Santiago Atitlán	14	Cerro de Oro	3	Marzo	2023-03-31T00:00:00	2024-11-08T12:00:00	2	Temperatura media	24.4
140394	7	Sololá	719	Santiago Atitlán	14	Cerro de Oro	3	Marzo	2023-03-31T00:00:00	2024-11-08T12:00:00	4	Temperatura máxima	24.6
140395	7	Sololá	719	Santiago Atitlán	14	Cerro de Oro	3	Marzo	2023-03-31T00:00:00	2024-11-08T12:00:00	3	Temperatura mínima	23.2
140396	7	Sololá	719	Santiago Atitlán	14	Cerro de Oro	3	Marzo	2023-03-31T00:00:00	2024-11-08T12:00:00	5	Humedad	51
140397	7	Sololá	719	Santiago Atitlán	14	Cerro de Oro	3	Marzo	2023-03-31T00:00:00	2024-11-08T12:00:00	6	Velocidad del viento	8
140398	7	Sololá	719	Santiago Atitlán	14	Cerro de Oro	3	Marzo	2023-03-31T00:00:00	2024-11-08T12:00:00	7	Dirección del viento	8.05
140399	7	Sololá	719	Santiago Atitlán	14	Cerro de Oro	3	Marzo	2023-03-31T00:00:00	2024-11-08T12:00:00	1	Precipitación	0
140400	7	Sololá	719	Santiago Atitlán	14	Cerro de Oro	3	Marzo	2023-03-31T00:00:00	2024-11-08T12:00:00	8	Radiación solar	936
140401	7	Sololá	719	Santiago Atitlán	14	Cerro de Oro	3	Marzo	2023-03-31T00:00:00	2024-11-08T13:00:00	2	Temperatura media	24.3
140402	7	Sololá	719	Santiago Atitlán	14	Cerro de Oro	3	Marzo	2023-03-31T00:00:00	2024-11-08T13:00:00	4	Temperatura máxima	24.9
140403	7	Sololá	719	Santiago Atitlán	14	Cerro de Oro	3	Marzo	2023-03-31T00:00:00	2024-11-08T13:00:00	3	Temperatura mínima	23.8
140404	7	Sololá	719	Santiago Atitlán	14	Cerro de Oro	3	Marzo	2023-03-31T00:00:00	2024-11-08T13:00:00	5	Humedad	65
140405	7	Sololá	719	Santiago Atitlán	14	Cerro de Oro	3	Marzo	2023-03-31T00:00:00	2024-11-08T13:00:00	6	Velocidad del viento	11.3
140406	7	Sololá	719	Santiago Atitlán	14	Cerro de Oro	3	Marzo	2023-03-31T00:00:00	2024-11-08T13:00:00	7	Dirección del viento	11.27
140407	7	Sololá	719	Santiago Atitlán	14	Cerro de Oro	3	Marzo	2023-03-31T00:00:00	2024-11-08T13:00:00	1	Precipitación	0
140408	7	Sololá	719	Santiago Atitlán	14	Cerro de Oro	3	Marzo	2023-03-31T00:00:00	2024-11-08T13:00:00	8	Radiación solar	940
140409	7	Sololá	719	Santiago Atitlán	14	Cerro de Oro	3	Marzo	2023-03-31T00:00:00	2024-11-08T14:00:00	2	Temperatura media	23.9
140410	7	Sololá	719	Santiago Atitlán	14	Cerro de Oro	3	Marzo	2023-03-31T00:00:00	2024-11-08T14:00:00	4	Temperatura máxima	24.3
140411	7	Sololá	719	Santiago Atitlán	14	Cerro de Oro	3	Marzo	2023-03-31T00:00:00	2024-11-08T14:00:00	3	Temperatura mínima	23.7
140412	7	Sololá	719	Santiago Atitlán	14	Cerro de Oro	3	Marzo	2023-03-31T00:00:00	2024-11-08T14:00:00	5	Humedad	67
140413	7	Sololá	719	Santiago Atitlán	14	Cerro de Oro	3	Marzo	2023-03-31T00:00:00	2024-11-08T14:00:00	6	Velocidad del viento	14.5
140414	7	Sololá	719	Santiago Atitlán	14	Cerro de Oro	3	Marzo	2023-03-31T00:00:00	2024-11-08T14:00:00	7	Dirección del viento	14.48
140415	7	Sololá	719	Santiago Atitlán	14	Cerro de Oro	3	Marzo	2023-03-31T00:00:00	2024-11-08T14:00:00	1	Precipitación	0
140416	7	Sololá	719	Santiago Atitlán	14	Cerro de Oro	3	Marzo	2023-03-31T00:00:00	2024-11-08T14:00:00	8	Radiación solar	876
140417	7	Sololá	719	Santiago Atitlán	14	Cerro de Oro	3	Marzo	2023-03-31T00:00:00	2024-11-08T15:00:00	2	Temperatura media	23.4
140418	7	Sololá	719	Santiago Atitlán	14	Cerro de Oro	3	Marzo	2023-03-31T00:00:00	2024-11-08T15:00:00	4	Temperatura máxima	24.2
140419	7	Sololá	719	Santiago Atitlán	14	Cerro de Oro	3	Marzo	2023-03-31T00:00:00	2024-11-08T15:00:00	3	Temperatura mínima	23.2
140420	7	Sololá	719	Santiago Atitlán	14	Cerro de Oro	3	Marzo	2023-03-31T00:00:00	2024-11-08T15:00:00	5	Humedad	68
140421	7	Sololá	719	Santiago Atitlán	14	Cerro de Oro	3	Marzo	2023-03-31T00:00:00	2024-11-08T15:00:00	6	Velocidad del viento	14.5
140422	7	Sololá	719	Santiago Atitlán	14	Cerro de Oro	3	Marzo	2023-03-31T00:00:00	2024-11-08T15:00:00	7	Dirección del viento	14.48
140423	7	Sololá	719	Santiago Atitlán	14	Cerro de Oro	3	Marzo	2023-03-31T00:00:00	2024-11-08T15:00:00	1	Precipitación	0
140424	7	Sololá	719	Santiago Atitlán	14	Cerro de Oro	3	Marzo	2023-03-31T00:00:00	2024-11-08T15:00:00	8	Radiación solar	670
140425	7	Sololá	719	Santiago Atitlán	14	Cerro de Oro	3	Marzo	2023-03-31T00:00:00	2024-11-08T16:00:00	2	Temperatura media	22.7
140426	7	Sololá	719	Santiago Atitlán	14	Cerro de Oro	3	Marzo	2023-03-31T00:00:00	2024-11-08T16:00:00	4	Temperatura máxima	23.7
140427	7	Sololá	719	Santiago Atitlán	14	Cerro de Oro	3	Marzo	2023-03-31T00:00:00	2024-11-08T16:00:00	3	Temperatura mínima	22.7
140428	7	Sololá	719	Santiago Atitlán	14	Cerro de Oro	3	Marzo	2023-03-31T00:00:00	2024-11-08T16:00:00	5	Humedad	69
140429	7	Sololá	719	Santiago Atitlán	14	Cerro de Oro	3	Marzo	2023-03-31T00:00:00	2024-11-08T16:00:00	6	Velocidad del viento	14.5
140430	7	Sololá	719	Santiago Atitlán	14	Cerro de Oro	3	Marzo	2023-03-31T00:00:00	2024-11-08T16:00:00	7	Dirección del viento	14.48
140431	7	Sololá	719	Santiago Atitlán	14	Cerro de Oro	3	Marzo	2023-03-31T00:00:00	2024-11-08T16:00:00	1	Precipitación	0
140432	7	Sololá	719	Santiago Atitlán	14	Cerro de Oro	3	Marzo	2023-03-31T00:00:00	2024-11-08T16:00:00	8	Radiación solar	314
140433	7	Sololá	719	Santiago Atitlán	14	Cerro de Oro	3	Marzo	2023-03-31T00:00:00	2024-11-08T17:00:00	2	Temperatura media	21.9
140434	7	Sololá	719	Santiago Atitlán	14	Cerro de Oro	3	Marzo	2023-03-31T00:00:00	2024-11-08T17:00:00	4	Temperatura máxima	22.9
140435	7	Sololá	719	Santiago Atitlán	14	Cerro de Oro	3	Marzo	2023-03-31T00:00:00	2024-11-08T17:00:00	3	Temperatura mínima	21.9
140436	7	Sololá	719	Santiago Atitlán	14	Cerro de Oro	3	Marzo	2023-03-31T00:00:00	2024-11-08T17:00:00	5	Humedad	75
140437	7	Sololá	719	Santiago Atitlán	14	Cerro de Oro	3	Marzo	2023-03-31T00:00:00	2024-11-08T17:00:00	6	Velocidad del viento	11.3
140438	7	Sololá	719	Santiago Atitlán	14	Cerro de Oro	3	Marzo	2023-03-31T00:00:00	2024-11-08T17:00:00	7	Dirección del viento	11.27
140439	7	Sololá	719	Santiago Atitlán	14	Cerro de Oro	3	Marzo	2023-03-31T00:00:00	2024-11-08T17:00:00	1	Precipitación	0
140440	7	Sololá	719	Santiago Atitlán	14	Cerro de Oro	3	Marzo	2023-03-31T00:00:00	2024-11-08T17:00:00	8	Radiación solar	139
140441	7	Sololá	719	Santiago Atitlán	14	Cerro de Oro	3	Marzo	2023-03-31T00:00:00	2024-11-08T18:00:00	2	Temperatura media	21.8
140442	7	Sololá	719	Santiago Atitlán	14	Cerro de Oro	3	Marzo	2023-03-31T00:00:00	2024-11-08T18:00:00	4	Temperatura máxima	21.9
140443	7	Sololá	719	Santiago Atitlán	14	Cerro de Oro	3	Marzo	2023-03-31T00:00:00	2024-11-08T18:00:00	3	Temperatura mínima	21.1
140444	7	Sololá	719	Santiago Atitlán	14	Cerro de Oro	3	Marzo	2023-03-31T00:00:00	2024-11-08T18:00:00	5	Humedad	77
140445	7	Sololá	719	Santiago Atitlán	14	Cerro de Oro	3	Marzo	2023-03-31T00:00:00	2024-11-08T18:00:00	6	Velocidad del viento	8
140446	7	Sololá	719	Santiago Atitlán	14	Cerro de Oro	3	Marzo	2023-03-31T00:00:00	2024-11-08T18:00:00	7	Dirección del viento	8.05
140447	7	Sololá	719	Santiago Atitlán	14	Cerro de Oro	3	Marzo	2023-03-31T00:00:00	2024-11-08T18:00:00	1	Precipitación	0
140448	7	Sololá	719	Santiago Atitlán	14	Cerro de Oro	3	Marzo	2023-03-31T00:00:00	2024-11-08T18:00:00	8	Radiación solar	88
140449	7	Sololá	719	Santiago Atitlán	14	Cerro de Oro	3	Marzo	2023-03-31T00:00:00	2024-11-08T19:00:00	2	Temperatura media	19.6
140450	7	Sololá	719	Santiago Atitlán	14	Cerro de Oro	3	Marzo	2023-03-31T00:00:00	2024-11-08T19:00:00	4	Temperatura máxima	22.1
140451	7	Sololá	719	Santiago Atitlán	14	Cerro de Oro	3	Marzo	2023-03-31T00:00:00	2024-11-08T19:00:00	3	Temperatura mínima	19.6
140452	7	Sololá	719	Santiago Atitlán	14	Cerro de Oro	3	Marzo	2023-03-31T00:00:00	2024-11-08T19:00:00	5	Humedad	84
140453	7	Sololá	719	Santiago Atitlán	14	Cerro de Oro	3	Marzo	2023-03-31T00:00:00	2024-11-08T19:00:00	6	Velocidad del viento	8
140454	7	Sololá	719	Santiago Atitlán	14	Cerro de Oro	3	Marzo	2023-03-31T00:00:00	2024-11-08T19:00:00	7	Dirección del viento	8.05
140455	7	Sololá	719	Santiago Atitlán	14	Cerro de Oro	3	Marzo	2023-03-31T00:00:00	2024-11-08T19:00:00	1	Precipitación	0
140456	7	Sololá	719	Santiago Atitlán	14	Cerro de Oro	3	Marzo	2023-03-31T00:00:00	2024-11-08T19:00:00	8	Radiación solar	0
140457	7	Sololá	719	Santiago Atitlán	14	Cerro de Oro	3	Marzo	2023-03-31T00:00:00	2024-11-08T20:00:00	2	Temperatura media	19.1
140458	7	Sololá	719	Santiago Atitlán	14	Cerro de Oro	3	Marzo	2023-03-31T00:00:00	2024-11-08T20:00:00	4	Temperatura máxima	19.6
140459	7	Sololá	719	Santiago Atitlán	14	Cerro de Oro	3	Marzo	2023-03-31T00:00:00	2024-11-08T20:00:00	3	Temperatura mínima	19
140460	7	Sololá	719	Santiago Atitlán	14	Cerro de Oro	3	Marzo	2023-03-31T00:00:00	2024-11-08T20:00:00	5	Humedad	86
140461	7	Sololá	719	Santiago Atitlán	14	Cerro de Oro	3	Marzo	2023-03-31T00:00:00	2024-11-08T20:00:00	6	Velocidad del viento	6.4
140462	7	Sololá	719	Santiago Atitlán	14	Cerro de Oro	3	Marzo	2023-03-31T00:00:00	2024-11-08T20:00:00	7	Dirección del viento	6.44
140463	7	Sololá	719	Santiago Atitlán	14	Cerro de Oro	3	Marzo	2023-03-31T00:00:00	2024-11-08T20:00:00	1	Precipitación	0
140464	7	Sololá	719	Santiago Atitlán	14	Cerro de Oro	3	Marzo	2023-03-31T00:00:00	2024-11-08T20:00:00	8	Radiación solar	0
140465	7	Sololá	719	Santiago Atitlán	14	Cerro de Oro	3	Marzo	2023-03-31T00:00:00	2024-11-08T21:00:00	2	Temperatura media	18.9
140466	7	Sololá	719	Santiago Atitlán	14	Cerro de Oro	3	Marzo	2023-03-31T00:00:00	2024-11-08T21:00:00	4	Temperatura máxima	19.2
140467	7	Sololá	719	Santiago Atitlán	14	Cerro de Oro	3	Marzo	2023-03-31T00:00:00	2024-11-08T21:00:00	3	Temperatura mínima	18.9
140468	7	Sololá	719	Santiago Atitlán	14	Cerro de Oro	3	Marzo	2023-03-31T00:00:00	2024-11-08T21:00:00	5	Humedad	85
140469	7	Sololá	719	Santiago Atitlán	14	Cerro de Oro	3	Marzo	2023-03-31T00:00:00	2024-11-08T21:00:00	6	Velocidad del viento	3.2
140470	7	Sololá	719	Santiago Atitlán	14	Cerro de Oro	3	Marzo	2023-03-31T00:00:00	2024-11-08T21:00:00	7	Dirección del viento	3.22
140471	7	Sololá	719	Santiago Atitlán	14	Cerro de Oro	3	Marzo	2023-03-31T00:00:00	2024-11-08T21:00:00	1	Precipitación	0
140472	7	Sololá	719	Santiago Atitlán	14	Cerro de Oro	3	Marzo	2023-03-31T00:00:00	2024-11-08T21:00:00	8	Radiación solar	0
140473	7	Sololá	719	Santiago Atitlán	14	Cerro de Oro	3	Marzo	2023-03-31T00:00:00	2024-11-08T22:00:00	2	Temperatura media	18.3
140474	7	Sololá	719	Santiago Atitlán	14	Cerro de Oro	3	Marzo	2023-03-31T00:00:00	2024-11-08T22:00:00	4	Temperatura máxima	18.9
140475	7	Sololá	719	Santiago Atitlán	14	Cerro de Oro	3	Marzo	2023-03-31T00:00:00	2024-11-08T22:00:00	3	Temperatura mínima	18.2
140476	7	Sololá	719	Santiago Atitlán	14	Cerro de Oro	3	Marzo	2023-03-31T00:00:00	2024-11-08T22:00:00	5	Humedad	86
140477	7	Sololá	719	Santiago Atitlán	14	Cerro de Oro	3	Marzo	2023-03-31T00:00:00	2024-11-08T22:00:00	6	Velocidad del viento	4.8
140478	7	Sololá	719	Santiago Atitlán	14	Cerro de Oro	3	Marzo	2023-03-31T00:00:00	2024-11-08T22:00:00	7	Dirección del viento	4.83
140479	7	Sololá	719	Santiago Atitlán	14	Cerro de Oro	3	Marzo	2023-03-31T00:00:00	2024-11-08T22:00:00	1	Precipitación	0
140480	7	Sololá	719	Santiago Atitlán	14	Cerro de Oro	3	Marzo	2023-03-31T00:00:00	2024-11-08T22:00:00	8	Radiación solar	0
140481	7	Sololá	719	Santiago Atitlán	14	Cerro de Oro	3	Marzo	2023-03-31T00:00:00	2024-11-08T23:00:00	2	Temperatura media	18.3
140482	7	Sololá	719	Santiago Atitlán	14	Cerro de Oro	3	Marzo	2023-03-31T00:00:00	2024-11-08T23:00:00	4	Temperatura máxima	18.4
140483	7	Sololá	719	Santiago Atitlán	14	Cerro de Oro	3	Marzo	2023-03-31T00:00:00	2024-11-08T23:00:00	3	Temperatura mínima	18
140484	7	Sololá	719	Santiago Atitlán	14	Cerro de Oro	3	Marzo	2023-03-31T00:00:00	2024-11-08T23:00:00	5	Humedad	76
140485	7	Sololá	719	Santiago Atitlán	14	Cerro de Oro	3	Marzo	2023-03-31T00:00:00	2024-11-08T23:00:00	6	Velocidad del viento	3.2
140486	7	Sololá	719	Santiago Atitlán	14	Cerro de Oro	3	Marzo	2023-03-31T00:00:00	2024-11-08T23:00:00	7	Dirección del viento	3.22
140487	7	Sololá	719	Santiago Atitlán	14	Cerro de Oro	3	Marzo	2023-03-31T00:00:00	2024-11-08T23:00:00	1	Precipitación	0
140488	7	Sololá	719	Santiago Atitlán	14	Cerro de Oro	3	Marzo	2023-03-31T00:00:00	2024-11-08T23:00:00	8	Radiación solar	0
140489	7	Sololá	719	Santiago Atitlán	14	Cerro de Oro	4	Abril	2023-01-04T00:00:00	2024-11-08T00:00:00	2	Temperatura media	18.8
140490	7	Sololá	719	Santiago Atitlán	14	Cerro de Oro	4	Abril	2023-01-04T00:00:00	2024-11-08T00:00:00	4	Temperatura máxima	18.8
140491	7	Sololá	719	Santiago Atitlán	14	Cerro de Oro	4	Abril	2023-01-04T00:00:00	2024-11-08T00:00:00	3	Temperatura mínima	18.1
140492	7	Sololá	719	Santiago Atitlán	14	Cerro de Oro	4	Abril	2023-01-04T00:00:00	2024-11-08T00:00:00	5	Humedad	73
140493	7	Sololá	719	Santiago Atitlán	14	Cerro de Oro	4	Abril	2023-01-04T00:00:00	2024-11-08T00:00:00	6	Velocidad del viento	4.8
140494	7	Sololá	719	Santiago Atitlán	14	Cerro de Oro	4	Abril	2023-01-04T00:00:00	2024-11-08T00:00:00	7	Dirección del viento	4.83
140495	7	Sololá	719	Santiago Atitlán	14	Cerro de Oro	4	Abril	2023-01-04T00:00:00	2024-11-08T00:00:00	1	Precipitación	0
140496	7	Sololá	719	Santiago Atitlán	14	Cerro de Oro	4	Abril	2023-01-04T00:00:00	2024-11-08T00:00:00	8	Radiación solar	0
140497	7	Sololá	719	Santiago Atitlán	14	Cerro de Oro	4	Abril	2023-01-04T00:00:00	2024-11-08T01:00:00	2	Temperatura media	17.7
140498	7	Sololá	719	Santiago Atitlán	14	Cerro de Oro	4	Abril	2023-01-04T00:00:00	2024-11-08T01:00:00	4	Temperatura máxima	19.1
140499	7	Sololá	719	Santiago Atitlán	14	Cerro de Oro	4	Abril	2023-01-04T00:00:00	2024-11-08T01:00:00	3	Temperatura mínima	17.7
140500	7	Sololá	719	Santiago Atitlán	14	Cerro de Oro	4	Abril	2023-01-04T00:00:00	2024-11-08T01:00:00	5	Humedad	75
140501	7	Sololá	719	Santiago Atitlán	14	Cerro de Oro	4	Abril	2023-01-04T00:00:00	2024-11-08T01:00:00	6	Velocidad del viento	6.4
140502	7	Sololá	719	Santiago Atitlán	14	Cerro de Oro	4	Abril	2023-01-04T00:00:00	2024-11-08T01:00:00	7	Dirección del viento	6.44
140503	7	Sololá	719	Santiago Atitlán	14	Cerro de Oro	4	Abril	2023-01-04T00:00:00	2024-11-08T01:00:00	1	Precipitación	0
140504	7	Sololá	719	Santiago Atitlán	14	Cerro de Oro	4	Abril	2023-01-04T00:00:00	2024-11-08T01:00:00	8	Radiación solar	0
140505	7	Sololá	719	Santiago Atitlán	14	Cerro de Oro	4	Abril	2023-01-04T00:00:00	2024-11-08T02:00:00	2	Temperatura media	16.6
140506	7	Sololá	719	Santiago Atitlán	14	Cerro de Oro	4	Abril	2023-01-04T00:00:00	2024-11-08T02:00:00	4	Temperatura máxima	17.7
140507	7	Sololá	719	Santiago Atitlán	14	Cerro de Oro	4	Abril	2023-01-04T00:00:00	2024-11-08T02:00:00	3	Temperatura mínima	16.5
140508	7	Sololá	719	Santiago Atitlán	14	Cerro de Oro	4	Abril	2023-01-04T00:00:00	2024-11-08T02:00:00	5	Humedad	79
140509	7	Sololá	719	Santiago Atitlán	14	Cerro de Oro	4	Abril	2023-01-04T00:00:00	2024-11-08T02:00:00	6	Velocidad del viento	4.8
140510	7	Sololá	719	Santiago Atitlán	14	Cerro de Oro	4	Abril	2023-01-04T00:00:00	2024-11-08T02:00:00	7	Dirección del viento	4.83
140511	7	Sololá	719	Santiago Atitlán	14	Cerro de Oro	4	Abril	2023-01-04T00:00:00	2024-11-08T02:00:00	1	Precipitación	0
140512	7	Sololá	719	Santiago Atitlán	14	Cerro de Oro	4	Abril	2023-01-04T00:00:00	2024-11-08T02:00:00	8	Radiación solar	0
140513	7	Sololá	719	Santiago Atitlán	14	Cerro de Oro	4	Abril	2023-01-04T00:00:00	2024-11-08T03:00:00	2	Temperatura media	16.9
140514	7	Sololá	719	Santiago Atitlán	14	Cerro de Oro	4	Abril	2023-01-04T00:00:00	2024-11-08T03:00:00	4	Temperatura máxima	16.9
140515	7	Sololá	719	Santiago Atitlán	14	Cerro de Oro	4	Abril	2023-01-04T00:00:00	2024-11-08T03:00:00	3	Temperatura mínima	16.5
140516	7	Sololá	719	Santiago Atitlán	14	Cerro de Oro	4	Abril	2023-01-04T00:00:00	2024-11-08T03:00:00	5	Humedad	74
140517	7	Sololá	719	Santiago Atitlán	14	Cerro de Oro	4	Abril	2023-01-04T00:00:00	2024-11-08T03:00:00	6	Velocidad del viento	3.2
140518	7	Sololá	719	Santiago Atitlán	14	Cerro de Oro	4	Abril	2023-01-04T00:00:00	2024-11-08T03:00:00	7	Dirección del viento	3.22
140519	7	Sololá	719	Santiago Atitlán	14	Cerro de Oro	4	Abril	2023-01-04T00:00:00	2024-11-08T03:00:00	1	Precipitación	0
140520	7	Sololá	719	Santiago Atitlán	14	Cerro de Oro	4	Abril	2023-01-04T00:00:00	2024-11-08T03:00:00	8	Radiación solar	0
140521	7	Sololá	719	Santiago Atitlán	14	Cerro de Oro	4	Abril	2023-01-04T00:00:00	2024-11-08T04:00:00	2	Temperatura media	16.6
140522	7	Sololá	719	Santiago Atitlán	14	Cerro de Oro	4	Abril	2023-01-04T00:00:00	2024-11-08T04:00:00	4	Temperatura máxima	16.9
140523	7	Sololá	719	Santiago Atitlán	14	Cerro de Oro	4	Abril	2023-01-04T00:00:00	2024-11-08T04:00:00	3	Temperatura mínima	16.5
140524	7	Sololá	719	Santiago Atitlán	14	Cerro de Oro	4	Abril	2023-01-04T00:00:00	2024-11-08T04:00:00	5	Humedad	73
140525	7	Sololá	719	Santiago Atitlán	14	Cerro de Oro	4	Abril	2023-01-04T00:00:00	2024-11-08T04:00:00	6	Velocidad del viento	3.2
140526	7	Sololá	719	Santiago Atitlán	14	Cerro de Oro	4	Abril	2023-01-04T00:00:00	2024-11-08T04:00:00	7	Dirección del viento	3.22
140527	7	Sololá	719	Santiago Atitlán	14	Cerro de Oro	4	Abril	2023-01-04T00:00:00	2024-11-08T04:00:00	1	Precipitación	0
140528	7	Sololá	719	Santiago Atitlán	14	Cerro de Oro	4	Abril	2023-01-04T00:00:00	2024-11-08T04:00:00	8	Radiación solar	0
140529	7	Sololá	719	Santiago Atitlán	14	Cerro de Oro	4	Abril	2023-01-04T00:00:00	2024-11-08T05:00:00	2	Temperatura media	16.4
140530	7	Sololá	719	Santiago Atitlán	14	Cerro de Oro	4	Abril	2023-01-04T00:00:00	2024-11-08T05:00:00	4	Temperatura máxima	16.8
140531	7	Sololá	719	Santiago Atitlán	14	Cerro de Oro	4	Abril	2023-01-04T00:00:00	2024-11-08T05:00:00	3	Temperatura mínima	16.4
140532	7	Sololá	719	Santiago Atitlán	14	Cerro de Oro	4	Abril	2023-01-04T00:00:00	2024-11-08T05:00:00	5	Humedad	74
140533	7	Sololá	719	Santiago Atitlán	14	Cerro de Oro	4	Abril	2023-01-04T00:00:00	2024-11-08T05:00:00	6	Velocidad del viento	6.4
140534	7	Sololá	719	Santiago Atitlán	14	Cerro de Oro	4	Abril	2023-01-04T00:00:00	2024-11-08T05:00:00	7	Dirección del viento	6.44
140535	7	Sololá	719	Santiago Atitlán	14	Cerro de Oro	4	Abril	2023-01-04T00:00:00	2024-11-08T05:00:00	1	Precipitación	0
140536	7	Sololá	719	Santiago Atitlán	14	Cerro de Oro	4	Abril	2023-01-04T00:00:00	2024-11-08T05:00:00	8	Radiación solar	0
140537	7	Sololá	719	Santiago Atitlán	14	Cerro de Oro	4	Abril	2023-01-04T00:00:00	2024-11-08T06:00:00	2	Temperatura media	15.9
140538	7	Sololá	719	Santiago Atitlán	14	Cerro de Oro	4	Abril	2023-01-04T00:00:00	2024-11-08T06:00:00	4	Temperatura máxima	16.4
140539	7	Sololá	719	Santiago Atitlán	14	Cerro de Oro	4	Abril	2023-01-04T00:00:00	2024-11-08T06:00:00	3	Temperatura mínima	15.7
140540	7	Sololá	719	Santiago Atitlán	14	Cerro de Oro	4	Abril	2023-01-04T00:00:00	2024-11-08T06:00:00	5	Humedad	74
140541	7	Sololá	719	Santiago Atitlán	14	Cerro de Oro	4	Abril	2023-01-04T00:00:00	2024-11-08T06:00:00	6	Velocidad del viento	4.8
140542	7	Sololá	719	Santiago Atitlán	14	Cerro de Oro	4	Abril	2023-01-04T00:00:00	2024-11-08T06:00:00	7	Dirección del viento	4.83
140543	7	Sololá	719	Santiago Atitlán	14	Cerro de Oro	4	Abril	2023-01-04T00:00:00	2024-11-08T06:00:00	1	Precipitación	0
140544	7	Sololá	719	Santiago Atitlán	14	Cerro de Oro	4	Abril	2023-01-04T00:00:00	2024-11-08T06:00:00	8	Radiación solar	0
140545	7	Sololá	719	Santiago Atitlán	14	Cerro de Oro	4	Abril	2023-01-04T00:00:00	2024-11-08T07:00:00	2	Temperatura media	15.9
140546	7	Sololá	719	Santiago Atitlán	14	Cerro de Oro	4	Abril	2023-01-04T00:00:00	2024-11-08T07:00:00	4	Temperatura máxima	16.1
140547	7	Sololá	719	Santiago Atitlán	14	Cerro de Oro	4	Abril	2023-01-04T00:00:00	2024-11-08T07:00:00	3	Temperatura mínima	15.4
140548	7	Sololá	719	Santiago Atitlán	14	Cerro de Oro	4	Abril	2023-01-04T00:00:00	2024-11-08T07:00:00	5	Humedad	75
140549	7	Sololá	719	Santiago Atitlán	14	Cerro de Oro	4	Abril	2023-01-04T00:00:00	2024-11-08T07:00:00	6	Velocidad del viento	3.2
140550	7	Sololá	719	Santiago Atitlán	14	Cerro de Oro	4	Abril	2023-01-04T00:00:00	2024-11-08T07:00:00	7	Dirección del viento	3.22
140551	7	Sololá	719	Santiago Atitlán	14	Cerro de Oro	4	Abril	2023-01-04T00:00:00	2024-11-08T07:00:00	1	Precipitación	0
140552	7	Sololá	719	Santiago Atitlán	14	Cerro de Oro	4	Abril	2023-01-04T00:00:00	2024-11-08T07:00:00	8	Radiación solar	54
140553	7	Sololá	719	Santiago Atitlán	14	Cerro de Oro	4	Abril	2023-01-04T00:00:00	2024-11-08T08:00:00	2	Temperatura media	17.4
140554	7	Sololá	719	Santiago Atitlán	14	Cerro de Oro	4	Abril	2023-01-04T00:00:00	2024-11-08T08:00:00	4	Temperatura máxima	17.4
140555	7	Sololá	719	Santiago Atitlán	14	Cerro de Oro	4	Abril	2023-01-04T00:00:00	2024-11-08T08:00:00	3	Temperatura mínima	15.6
140556	7	Sololá	719	Santiago Atitlán	14	Cerro de Oro	4	Abril	2023-01-04T00:00:00	2024-11-08T08:00:00	5	Humedad	71
140557	7	Sololá	719	Santiago Atitlán	14	Cerro de Oro	4	Abril	2023-01-04T00:00:00	2024-11-08T08:00:00	6	Velocidad del viento	3.2
140558	7	Sololá	719	Santiago Atitlán	14	Cerro de Oro	4	Abril	2023-01-04T00:00:00	2024-11-08T08:00:00	7	Dirección del viento	3.22
140559	7	Sololá	719	Santiago Atitlán	14	Cerro de Oro	4	Abril	2023-01-04T00:00:00	2024-11-08T08:00:00	1	Precipitación	0
140560	7	Sololá	719	Santiago Atitlán	14	Cerro de Oro	4	Abril	2023-01-04T00:00:00	2024-11-08T08:00:00	8	Radiación solar	228
140561	7	Sololá	719	Santiago Atitlán	14	Cerro de Oro	4	Abril	2023-01-04T00:00:00	2024-11-08T09:00:00	2	Temperatura media	18.7
140562	7	Sololá	719	Santiago Atitlán	14	Cerro de Oro	4	Abril	2023-01-04T00:00:00	2024-11-08T09:00:00	4	Temperatura máxima	18.8
140563	7	Sololá	719	Santiago Atitlán	14	Cerro de Oro	4	Abril	2023-01-04T00:00:00	2024-11-08T09:00:00	3	Temperatura mínima	17.4
140564	7	Sololá	719	Santiago Atitlán	14	Cerro de Oro	4	Abril	2023-01-04T00:00:00	2024-11-08T09:00:00	5	Humedad	72
140565	7	Sololá	719	Santiago Atitlán	14	Cerro de Oro	4	Abril	2023-01-04T00:00:00	2024-11-08T09:00:00	6	Velocidad del viento	4.8
140566	7	Sololá	719	Santiago Atitlán	14	Cerro de Oro	4	Abril	2023-01-04T00:00:00	2024-11-08T09:00:00	7	Dirección del viento	4.83
140567	7	Sololá	719	Santiago Atitlán	14	Cerro de Oro	4	Abril	2023-01-04T00:00:00	2024-11-08T09:00:00	1	Precipitación	0
140568	7	Sololá	719	Santiago Atitlán	14	Cerro de Oro	4	Abril	2023-01-04T00:00:00	2024-11-08T09:00:00	8	Radiación solar	390
140569	7	Sololá	719	Santiago Atitlán	14	Cerro de Oro	4	Abril	2023-01-04T00:00:00	2024-11-08T10:00:00	2	Temperatura media	19.8
140570	7	Sololá	719	Santiago Atitlán	14	Cerro de Oro	4	Abril	2023-01-04T00:00:00	2024-11-08T10:00:00	4	Temperatura máxima	19.8
140571	7	Sololá	719	Santiago Atitlán	14	Cerro de Oro	4	Abril	2023-01-04T00:00:00	2024-11-08T10:00:00	3	Temperatura mínima	18.6
140572	7	Sololá	719	Santiago Atitlán	14	Cerro de Oro	4	Abril	2023-01-04T00:00:00	2024-11-08T10:00:00	5	Humedad	69
140573	7	Sololá	719	Santiago Atitlán	14	Cerro de Oro	4	Abril	2023-01-04T00:00:00	2024-11-08T10:00:00	6	Velocidad del viento	4.8
140574	7	Sololá	719	Santiago Atitlán	14	Cerro de Oro	4	Abril	2023-01-04T00:00:00	2024-11-08T10:00:00	7	Dirección del viento	4.83
140575	7	Sololá	719	Santiago Atitlán	14	Cerro de Oro	4	Abril	2023-01-04T00:00:00	2024-11-08T10:00:00	1	Precipitación	0
140576	7	Sololá	719	Santiago Atitlán	14	Cerro de Oro	4	Abril	2023-01-04T00:00:00	2024-11-08T10:00:00	8	Radiación solar	658
140577	7	Sololá	719	Santiago Atitlán	14	Cerro de Oro	4	Abril	2023-01-04T00:00:00	2024-11-08T11:00:00	2	Temperatura media	21.1
140578	7	Sololá	719	Santiago Atitlán	14	Cerro de Oro	4	Abril	2023-01-04T00:00:00	2024-11-08T11:00:00	4	Temperatura máxima	21.1
140579	7	Sololá	719	Santiago Atitlán	14	Cerro de Oro	4	Abril	2023-01-04T00:00:00	2024-11-08T11:00:00	3	Temperatura mínima	19.8
140580	7	Sololá	719	Santiago Atitlán	14	Cerro de Oro	4	Abril	2023-01-04T00:00:00	2024-11-08T11:00:00	5	Humedad	66
140581	7	Sololá	719	Santiago Atitlán	14	Cerro de Oro	4	Abril	2023-01-04T00:00:00	2024-11-08T11:00:00	6	Velocidad del viento	6.4
140582	7	Sololá	719	Santiago Atitlán	14	Cerro de Oro	4	Abril	2023-01-04T00:00:00	2024-11-08T11:00:00	7	Dirección del viento	6.44
140583	7	Sololá	719	Santiago Atitlán	14	Cerro de Oro	4	Abril	2023-01-04T00:00:00	2024-11-08T11:00:00	1	Precipitación	0
140584	7	Sololá	719	Santiago Atitlán	14	Cerro de Oro	4	Abril	2023-01-04T00:00:00	2024-11-08T11:00:00	8	Radiación solar	845
140585	7	Sololá	719	Santiago Atitlán	14	Cerro de Oro	4	Abril	2023-01-04T00:00:00	2024-11-08T12:00:00	2	Temperatura media	22.7
140586	7	Sololá	719	Santiago Atitlán	14	Cerro de Oro	4	Abril	2023-01-04T00:00:00	2024-11-08T12:00:00	4	Temperatura máxima	22.7
140587	7	Sololá	719	Santiago Atitlán	14	Cerro de Oro	4	Abril	2023-01-04T00:00:00	2024-11-08T12:00:00	3	Temperatura mínima	21.1
140588	7	Sololá	719	Santiago Atitlán	14	Cerro de Oro	4	Abril	2023-01-04T00:00:00	2024-11-08T12:00:00	5	Humedad	63
140589	7	Sololá	719	Santiago Atitlán	14	Cerro de Oro	4	Abril	2023-01-04T00:00:00	2024-11-08T12:00:00	6	Velocidad del viento	4.8
140590	7	Sololá	719	Santiago Atitlán	14	Cerro de Oro	4	Abril	2023-01-04T00:00:00	2024-11-08T12:00:00	7	Dirección del viento	4.83
140591	7	Sololá	719	Santiago Atitlán	14	Cerro de Oro	4	Abril	2023-01-04T00:00:00	2024-11-08T12:00:00	1	Precipitación	0
140592	7	Sololá	719	Santiago Atitlán	14	Cerro de Oro	4	Abril	2023-01-04T00:00:00	2024-11-08T12:00:00	8	Radiación solar	921
140593	7	Sololá	719	Santiago Atitlán	14	Cerro de Oro	4	Abril	2023-01-04T00:00:00	2024-11-08T13:00:00	2	Temperatura media	23.2
140594	7	Sololá	719	Santiago Atitlán	14	Cerro de Oro	4	Abril	2023-01-04T00:00:00	2024-11-08T13:00:00	4	Temperatura máxima	23.4
140595	7	Sololá	719	Santiago Atitlán	14	Cerro de Oro	4	Abril	2023-01-04T00:00:00	2024-11-08T13:00:00	3	Temperatura mínima	22.7
140596	7	Sololá	719	Santiago Atitlán	14	Cerro de Oro	4	Abril	2023-01-04T00:00:00	2024-11-08T13:00:00	5	Humedad	70
140597	7	Sololá	719	Santiago Atitlán	14	Cerro de Oro	4	Abril	2023-01-04T00:00:00	2024-11-08T13:00:00	6	Velocidad del viento	12.9
140598	7	Sololá	719	Santiago Atitlán	14	Cerro de Oro	4	Abril	2023-01-04T00:00:00	2024-11-08T13:00:00	7	Dirección del viento	12.87
140599	7	Sololá	719	Santiago Atitlán	14	Cerro de Oro	4	Abril	2023-01-04T00:00:00	2024-11-08T13:00:00	1	Precipitación	0
140600	7	Sololá	719	Santiago Atitlán	14	Cerro de Oro	4	Abril	2023-01-04T00:00:00	2024-11-08T13:00:00	8	Radiación solar	946
140601	7	Sololá	719	Santiago Atitlán	14	Cerro de Oro	4	Abril	2023-01-04T00:00:00	2024-11-08T14:00:00	2	Temperatura media	23.6
140602	7	Sololá	719	Santiago Atitlán	14	Cerro de Oro	4	Abril	2023-01-04T00:00:00	2024-11-08T14:00:00	4	Temperatura máxima	23.8
140603	7	Sololá	719	Santiago Atitlán	14	Cerro de Oro	4	Abril	2023-01-04T00:00:00	2024-11-08T14:00:00	3	Temperatura mínima	23.2
140604	7	Sololá	719	Santiago Atitlán	14	Cerro de Oro	4	Abril	2023-01-04T00:00:00	2024-11-08T14:00:00	5	Humedad	69
140605	7	Sololá	719	Santiago Atitlán	14	Cerro de Oro	4	Abril	2023-01-04T00:00:00	2024-11-08T14:00:00	6	Velocidad del viento	12.9
140606	7	Sololá	719	Santiago Atitlán	14	Cerro de Oro	4	Abril	2023-01-04T00:00:00	2024-11-08T14:00:00	7	Dirección del viento	12.87
140607	7	Sololá	719	Santiago Atitlán	14	Cerro de Oro	4	Abril	2023-01-04T00:00:00	2024-11-08T14:00:00	1	Precipitación	0
140608	7	Sololá	719	Santiago Atitlán	14	Cerro de Oro	4	Abril	2023-01-04T00:00:00	2024-11-08T14:00:00	8	Radiación solar	688
140609	7	Sololá	719	Santiago Atitlán	14	Cerro de Oro	4	Abril	2023-01-04T00:00:00	2024-11-08T15:00:00	2	Temperatura media	22.8
140610	7	Sololá	719	Santiago Atitlán	14	Cerro de Oro	4	Abril	2023-01-04T00:00:00	2024-11-08T15:00:00	4	Temperatura máxima	23.7
140611	7	Sololá	719	Santiago Atitlán	14	Cerro de Oro	4	Abril	2023-01-04T00:00:00	2024-11-08T15:00:00	3	Temperatura mínima	22.6
140612	7	Sololá	719	Santiago Atitlán	14	Cerro de Oro	4	Abril	2023-01-04T00:00:00	2024-11-08T15:00:00	5	Humedad	72
140613	7	Sololá	719	Santiago Atitlán	14	Cerro de Oro	4	Abril	2023-01-04T00:00:00	2024-11-08T15:00:00	6	Velocidad del viento	14.5
140614	7	Sololá	719	Santiago Atitlán	14	Cerro de Oro	4	Abril	2023-01-04T00:00:00	2024-11-08T15:00:00	7	Dirección del viento	14.48
140615	7	Sololá	719	Santiago Atitlán	14	Cerro de Oro	4	Abril	2023-01-04T00:00:00	2024-11-08T15:00:00	1	Precipitación	0
140616	7	Sololá	719	Santiago Atitlán	14	Cerro de Oro	4	Abril	2023-01-04T00:00:00	2024-11-08T15:00:00	8	Radiación solar	597
140617	7	Sololá	719	Santiago Atitlán	14	Cerro de Oro	4	Abril	2023-01-04T00:00:00	2024-11-08T16:00:00	2	Temperatura media	22.9
140618	7	Sololá	719	Santiago Atitlán	14	Cerro de Oro	4	Abril	2023-01-04T00:00:00	2024-11-08T16:00:00	4	Temperatura máxima	23.2
140619	7	Sololá	719	Santiago Atitlán	14	Cerro de Oro	4	Abril	2023-01-04T00:00:00	2024-11-08T16:00:00	3	Temperatura mínima	22.3
140620	7	Sololá	719	Santiago Atitlán	14	Cerro de Oro	4	Abril	2023-01-04T00:00:00	2024-11-08T16:00:00	5	Humedad	72
140621	7	Sololá	719	Santiago Atitlán	14	Cerro de Oro	4	Abril	2023-01-04T00:00:00	2024-11-08T16:00:00	6	Velocidad del viento	14.5
140622	7	Sololá	719	Santiago Atitlán	14	Cerro de Oro	4	Abril	2023-01-04T00:00:00	2024-11-08T16:00:00	7	Dirección del viento	14.48
140623	7	Sololá	719	Santiago Atitlán	14	Cerro de Oro	4	Abril	2023-01-04T00:00:00	2024-11-08T16:00:00	1	Precipitación	0
140624	7	Sololá	719	Santiago Atitlán	14	Cerro de Oro	4	Abril	2023-01-04T00:00:00	2024-11-08T16:00:00	8	Radiación solar	219
140625	7	Sololá	719	Santiago Atitlán	14	Cerro de Oro	4	Abril	2023-01-04T00:00:00	2024-11-08T17:00:00	2	Temperatura media	21.7
140626	7	Sololá	719	Santiago Atitlán	14	Cerro de Oro	4	Abril	2023-01-04T00:00:00	2024-11-08T17:00:00	4	Temperatura máxima	22.9
140627	7	Sololá	719	Santiago Atitlán	14	Cerro de Oro	4	Abril	2023-01-04T00:00:00	2024-11-08T17:00:00	3	Temperatura mínima	21.6
140628	7	Sololá	719	Santiago Atitlán	14	Cerro de Oro	4	Abril	2023-01-04T00:00:00	2024-11-08T17:00:00	5	Humedad	76
140629	7	Sololá	719	Santiago Atitlán	14	Cerro de Oro	4	Abril	2023-01-04T00:00:00	2024-11-08T17:00:00	6	Velocidad del viento	11.3
140630	7	Sololá	719	Santiago Atitlán	14	Cerro de Oro	4	Abril	2023-01-04T00:00:00	2024-11-08T17:00:00	7	Dirección del viento	11.27
140631	7	Sololá	719	Santiago Atitlán	14	Cerro de Oro	4	Abril	2023-01-04T00:00:00	2024-11-08T17:00:00	1	Precipitación	0
140632	7	Sololá	719	Santiago Atitlán	14	Cerro de Oro	4	Abril	2023-01-04T00:00:00	2024-11-08T17:00:00	8	Radiación solar	98
140633	7	Sololá	719	Santiago Atitlán	14	Cerro de Oro	4	Abril	2023-01-04T00:00:00	2024-11-08T18:00:00	2	Temperatura media	20.8
140634	7	Sololá	719	Santiago Atitlán	14	Cerro de Oro	4	Abril	2023-01-04T00:00:00	2024-11-08T18:00:00	4	Temperatura máxima	21.8
140635	7	Sololá	719	Santiago Atitlán	14	Cerro de Oro	4	Abril	2023-01-04T00:00:00	2024-11-08T18:00:00	3	Temperatura mínima	20.8
140636	7	Sololá	719	Santiago Atitlán	14	Cerro de Oro	4	Abril	2023-01-04T00:00:00	2024-11-08T18:00:00	5	Humedad	81
140637	7	Sololá	719	Santiago Atitlán	14	Cerro de Oro	4	Abril	2023-01-04T00:00:00	2024-11-08T18:00:00	6	Velocidad del viento	9.7
140638	7	Sololá	719	Santiago Atitlán	14	Cerro de Oro	4	Abril	2023-01-04T00:00:00	2024-11-08T18:00:00	7	Dirección del viento	9.66
140639	7	Sololá	719	Santiago Atitlán	14	Cerro de Oro	4	Abril	2023-01-04T00:00:00	2024-11-08T18:00:00	1	Precipitación	0
140640	7	Sololá	719	Santiago Atitlán	14	Cerro de Oro	4	Abril	2023-01-04T00:00:00	2024-11-08T18:00:00	8	Radiación solar	45
140641	7	Sololá	719	Santiago Atitlán	14	Cerro de Oro	4	Abril	2023-01-04T00:00:00	2024-11-08T19:00:00	2	Temperatura media	19.7
140642	7	Sololá	719	Santiago Atitlán	14	Cerro de Oro	4	Abril	2023-01-04T00:00:00	2024-11-08T19:00:00	4	Temperatura máxima	20.8
140643	7	Sololá	719	Santiago Atitlán	14	Cerro de Oro	4	Abril	2023-01-04T00:00:00	2024-11-08T19:00:00	3	Temperatura mínima	19.7
140644	7	Sololá	719	Santiago Atitlán	14	Cerro de Oro	4	Abril	2023-01-04T00:00:00	2024-11-08T19:00:00	5	Humedad	85
140645	7	Sololá	719	Santiago Atitlán	14	Cerro de Oro	4	Abril	2023-01-04T00:00:00	2024-11-08T19:00:00	6	Velocidad del viento	9.7
140646	7	Sololá	719	Santiago Atitlán	14	Cerro de Oro	4	Abril	2023-01-04T00:00:00	2024-11-08T19:00:00	7	Dirección del viento	9.66
140647	7	Sololá	719	Santiago Atitlán	14	Cerro de Oro	4	Abril	2023-01-04T00:00:00	2024-11-08T19:00:00	1	Precipitación	0
140648	7	Sololá	719	Santiago Atitlán	14	Cerro de Oro	4	Abril	2023-01-04T00:00:00	2024-11-08T19:00:00	8	Radiación solar	0
140649	7	Sololá	719	Santiago Atitlán	14	Cerro de Oro	4	Abril	2023-01-04T00:00:00	2024-11-08T20:00:00	2	Temperatura media	19.2
140650	7	Sololá	719	Santiago Atitlán	14	Cerro de Oro	4	Abril	2023-01-04T00:00:00	2024-11-08T20:00:00	4	Temperatura máxima	19.7
140651	7	Sololá	719	Santiago Atitlán	14	Cerro de Oro	4	Abril	2023-01-04T00:00:00	2024-11-08T20:00:00	3	Temperatura mínima	19.2
140652	7	Sololá	719	Santiago Atitlán	14	Cerro de Oro	4	Abril	2023-01-04T00:00:00	2024-11-08T20:00:00	5	Humedad	82
140653	7	Sololá	719	Santiago Atitlán	14	Cerro de Oro	4	Abril	2023-01-04T00:00:00	2024-11-08T20:00:00	6	Velocidad del viento	8
140654	7	Sololá	719	Santiago Atitlán	14	Cerro de Oro	4	Abril	2023-01-04T00:00:00	2024-11-08T20:00:00	7	Dirección del viento	8.05
140655	7	Sololá	719	Santiago Atitlán	14	Cerro de Oro	4	Abril	2023-01-04T00:00:00	2024-11-08T20:00:00	1	Precipitación	0
140656	7	Sololá	719	Santiago Atitlán	14	Cerro de Oro	4	Abril	2023-01-04T00:00:00	2024-11-08T20:00:00	8	Radiación solar	0
140657	7	Sololá	719	Santiago Atitlán	14	Cerro de Oro	4	Abril	2023-01-04T00:00:00	2024-11-08T21:00:00	2	Temperatura media	18.2
140658	7	Sololá	719	Santiago Atitlán	14	Cerro de Oro	4	Abril	2023-01-04T00:00:00	2024-11-08T21:00:00	4	Temperatura máxima	19.3
140659	7	Sololá	719	Santiago Atitlán	14	Cerro de Oro	4	Abril	2023-01-04T00:00:00	2024-11-08T21:00:00	3	Temperatura mínima	18.2
140660	7	Sololá	719	Santiago Atitlán	14	Cerro de Oro	4	Abril	2023-01-04T00:00:00	2024-11-08T21:00:00	5	Humedad	83
140661	7	Sololá	719	Santiago Atitlán	14	Cerro de Oro	4	Abril	2023-01-04T00:00:00	2024-11-08T21:00:00	6	Velocidad del viento	3.2
140662	7	Sololá	719	Santiago Atitlán	14	Cerro de Oro	4	Abril	2023-01-04T00:00:00	2024-11-08T21:00:00	7	Dirección del viento	3.22
140663	7	Sololá	719	Santiago Atitlán	14	Cerro de Oro	4	Abril	2023-01-04T00:00:00	2024-11-08T21:00:00	1	Precipitación	0
140664	7	Sololá	719	Santiago Atitlán	14	Cerro de Oro	4	Abril	2023-01-04T00:00:00	2024-11-08T21:00:00	8	Radiación solar	0
140665	7	Sololá	719	Santiago Atitlán	14	Cerro de Oro	4	Abril	2023-01-04T00:00:00	2024-11-08T22:00:00	2	Temperatura media	18.4
140666	7	Sololá	719	Santiago Atitlán	14	Cerro de Oro	4	Abril	2023-01-04T00:00:00	2024-11-08T22:00:00	4	Temperatura máxima	18.6
140667	7	Sololá	719	Santiago Atitlán	14	Cerro de Oro	4	Abril	2023-01-04T00:00:00	2024-11-08T22:00:00	3	Temperatura mínima	18.2
140668	7	Sololá	719	Santiago Atitlán	14	Cerro de Oro	4	Abril	2023-01-04T00:00:00	2024-11-08T22:00:00	5	Humedad	85
140669	7	Sololá	719	Santiago Atitlán	14	Cerro de Oro	4	Abril	2023-01-04T00:00:00	2024-11-08T22:00:00	6	Velocidad del viento	3.2
140670	7	Sololá	719	Santiago Atitlán	14	Cerro de Oro	4	Abril	2023-01-04T00:00:00	2024-11-08T22:00:00	7	Dirección del viento	3.22
140671	7	Sololá	719	Santiago Atitlán	14	Cerro de Oro	4	Abril	2023-01-04T00:00:00	2024-11-08T22:00:00	1	Precipitación	0
140672	7	Sololá	719	Santiago Atitlán	14	Cerro de Oro	4	Abril	2023-01-04T00:00:00	2024-11-08T22:00:00	8	Radiación solar	0
140673	7	Sololá	719	Santiago Atitlán	14	Cerro de Oro	4	Abril	2023-01-04T00:00:00	2024-11-08T23:00:00	2	Temperatura media	18.3
140674	7	Sololá	719	Santiago Atitlán	14	Cerro de Oro	4	Abril	2023-01-04T00:00:00	2024-11-08T23:00:00	4	Temperatura máxima	18.5
140675	7	Sololá	719	Santiago Atitlán	14	Cerro de Oro	4	Abril	2023-01-04T00:00:00	2024-11-08T23:00:00	3	Temperatura mínima	17.8
140676	7	Sololá	719	Santiago Atitlán	14	Cerro de Oro	4	Abril	2023-01-04T00:00:00	2024-11-08T23:00:00	5	Humedad	77
140677	7	Sololá	719	Santiago Atitlán	14	Cerro de Oro	4	Abril	2023-01-04T00:00:00	2024-11-08T23:00:00	6	Velocidad del viento	4.8
140678	7	Sololá	719	Santiago Atitlán	14	Cerro de Oro	4	Abril	2023-01-04T00:00:00	2024-11-08T23:00:00	7	Dirección del viento	4.83
140679	7	Sololá	719	Santiago Atitlán	14	Cerro de Oro	4	Abril	2023-01-04T00:00:00	2024-11-08T23:00:00	1	Precipitación	0
140680	7	Sololá	719	Santiago Atitlán	14	Cerro de Oro	4	Abril	2023-01-04T00:00:00	2024-11-08T23:00:00	8	Radiación solar	0
140681	7	Sololá	719	Santiago Atitlán	14	Cerro de Oro	4	Abril	2023-02-04T00:00:00	2024-11-08T00:00:00	2	Temperatura media	18.9
140682	7	Sololá	719	Santiago Atitlán	14	Cerro de Oro	4	Abril	2023-02-04T00:00:00	2024-11-08T00:00:00	4	Temperatura máxima	19
140683	7	Sololá	719	Santiago Atitlán	14	Cerro de Oro	4	Abril	2023-02-04T00:00:00	2024-11-08T00:00:00	3	Temperatura mínima	18.2
140684	7	Sololá	719	Santiago Atitlán	14	Cerro de Oro	4	Abril	2023-02-04T00:00:00	2024-11-08T00:00:00	5	Humedad	73
140685	7	Sololá	719	Santiago Atitlán	14	Cerro de Oro	4	Abril	2023-02-04T00:00:00	2024-11-08T00:00:00	6	Velocidad del viento	6.4
140686	7	Sololá	719	Santiago Atitlán	14	Cerro de Oro	4	Abril	2023-02-04T00:00:00	2024-11-08T00:00:00	7	Dirección del viento	6.44
140687	7	Sololá	719	Santiago Atitlán	14	Cerro de Oro	4	Abril	2023-02-04T00:00:00	2024-11-08T00:00:00	1	Precipitación	0
140688	7	Sololá	719	Santiago Atitlán	14	Cerro de Oro	4	Abril	2023-02-04T00:00:00	2024-11-08T00:00:00	8	Radiación solar	0
140689	7	Sololá	719	Santiago Atitlán	14	Cerro de Oro	4	Abril	2023-02-04T00:00:00	2024-11-08T01:00:00	2	Temperatura media	18.1
140690	7	Sololá	719	Santiago Atitlán	14	Cerro de Oro	4	Abril	2023-02-04T00:00:00	2024-11-08T01:00:00	4	Temperatura máxima	19
140691	7	Sololá	719	Santiago Atitlán	14	Cerro de Oro	4	Abril	2023-02-04T00:00:00	2024-11-08T01:00:00	3	Temperatura mínima	18.1
140692	7	Sololá	719	Santiago Atitlán	14	Cerro de Oro	4	Abril	2023-02-04T00:00:00	2024-11-08T01:00:00	5	Humedad	72
140693	7	Sololá	719	Santiago Atitlán	14	Cerro de Oro	4	Abril	2023-02-04T00:00:00	2024-11-08T01:00:00	6	Velocidad del viento	9.7
140694	7	Sololá	719	Santiago Atitlán	14	Cerro de Oro	4	Abril	2023-02-04T00:00:00	2024-11-08T01:00:00	7	Dirección del viento	9.66
140695	7	Sololá	719	Santiago Atitlán	14	Cerro de Oro	4	Abril	2023-02-04T00:00:00	2024-11-08T01:00:00	1	Precipitación	0
140696	7	Sololá	719	Santiago Atitlán	14	Cerro de Oro	4	Abril	2023-02-04T00:00:00	2024-11-08T01:00:00	8	Radiación solar	0
140697	7	Sololá	719	Santiago Atitlán	14	Cerro de Oro	4	Abril	2023-02-04T00:00:00	2024-11-08T02:00:00	2	Temperatura media	16.7
140698	7	Sololá	719	Santiago Atitlán	14	Cerro de Oro	4	Abril	2023-02-04T00:00:00	2024-11-08T02:00:00	4	Temperatura máxima	18.1
140699	7	Sololá	719	Santiago Atitlán	14	Cerro de Oro	4	Abril	2023-02-04T00:00:00	2024-11-08T02:00:00	3	Temperatura mínima	16.7
140700	7	Sololá	719	Santiago Atitlán	14	Cerro de Oro	4	Abril	2023-02-04T00:00:00	2024-11-08T02:00:00	5	Humedad	74
140701	7	Sololá	719	Santiago Atitlán	14	Cerro de Oro	4	Abril	2023-02-04T00:00:00	2024-11-08T02:00:00	6	Velocidad del viento	4.8
140702	7	Sololá	719	Santiago Atitlán	14	Cerro de Oro	4	Abril	2023-02-04T00:00:00	2024-11-08T02:00:00	7	Dirección del viento	4.83
140703	7	Sololá	719	Santiago Atitlán	14	Cerro de Oro	4	Abril	2023-02-04T00:00:00	2024-11-08T02:00:00	1	Precipitación	0
140704	7	Sololá	719	Santiago Atitlán	14	Cerro de Oro	4	Abril	2023-02-04T00:00:00	2024-11-08T02:00:00	8	Radiación solar	0
140705	7	Sololá	719	Santiago Atitlán	14	Cerro de Oro	4	Abril	2023-02-04T00:00:00	2024-11-08T03:00:00	2	Temperatura media	16.7
140706	7	Sololá	719	Santiago Atitlán	14	Cerro de Oro	4	Abril	2023-02-04T00:00:00	2024-11-08T03:00:00	4	Temperatura máxima	16.8
140707	7	Sololá	719	Santiago Atitlán	14	Cerro de Oro	4	Abril	2023-02-04T00:00:00	2024-11-08T03:00:00	3	Temperatura mínima	16.4
140708	7	Sololá	719	Santiago Atitlán	14	Cerro de Oro	4	Abril	2023-02-04T00:00:00	2024-11-08T03:00:00	5	Humedad	74
140709	7	Sololá	719	Santiago Atitlán	14	Cerro de Oro	4	Abril	2023-02-04T00:00:00	2024-11-08T03:00:00	6	Velocidad del viento	4.8
140710	7	Sololá	719	Santiago Atitlán	14	Cerro de Oro	4	Abril	2023-02-04T00:00:00	2024-11-08T03:00:00	7	Dirección del viento	4.83
140711	7	Sololá	719	Santiago Atitlán	14	Cerro de Oro	4	Abril	2023-02-04T00:00:00	2024-11-08T03:00:00	1	Precipitación	0
140712	7	Sololá	719	Santiago Atitlán	14	Cerro de Oro	4	Abril	2023-02-04T00:00:00	2024-11-08T03:00:00	8	Radiación solar	0
140713	7	Sololá	719	Santiago Atitlán	14	Cerro de Oro	4	Abril	2023-02-04T00:00:00	2024-11-08T04:00:00	2	Temperatura media	16.7
140714	7	Sololá	719	Santiago Atitlán	14	Cerro de Oro	4	Abril	2023-02-04T00:00:00	2024-11-08T04:00:00	4	Temperatura máxima	17
140715	7	Sololá	719	Santiago Atitlán	14	Cerro de Oro	4	Abril	2023-02-04T00:00:00	2024-11-08T04:00:00	3	Temperatura mínima	16.4
140716	7	Sololá	719	Santiago Atitlán	14	Cerro de Oro	4	Abril	2023-02-04T00:00:00	2024-11-08T04:00:00	5	Humedad	65
140717	7	Sololá	719	Santiago Atitlán	14	Cerro de Oro	4	Abril	2023-02-04T00:00:00	2024-11-08T04:00:00	6	Velocidad del viento	4.8
140718	7	Sololá	719	Santiago Atitlán	14	Cerro de Oro	4	Abril	2023-02-04T00:00:00	2024-11-08T04:00:00	7	Dirección del viento	4.83
140719	7	Sololá	719	Santiago Atitlán	14	Cerro de Oro	4	Abril	2023-02-04T00:00:00	2024-11-08T04:00:00	1	Precipitación	0
140720	7	Sololá	719	Santiago Atitlán	14	Cerro de Oro	4	Abril	2023-02-04T00:00:00	2024-11-08T04:00:00	8	Radiación solar	0
140721	7	Sololá	719	Santiago Atitlán	14	Cerro de Oro	4	Abril	2023-02-04T00:00:00	2024-11-08T05:00:00	2	Temperatura media	16.3
140722	7	Sololá	719	Santiago Atitlán	14	Cerro de Oro	4	Abril	2023-02-04T00:00:00	2024-11-08T05:00:00	4	Temperatura máxima	16.7
140723	7	Sololá	719	Santiago Atitlán	14	Cerro de Oro	4	Abril	2023-02-04T00:00:00	2024-11-08T05:00:00	3	Temperatura mínima	16.3
140724	7	Sololá	719	Santiago Atitlán	14	Cerro de Oro	4	Abril	2023-02-04T00:00:00	2024-11-08T05:00:00	5	Humedad	61
140725	7	Sololá	719	Santiago Atitlán	14	Cerro de Oro	4	Abril	2023-02-04T00:00:00	2024-11-08T05:00:00	6	Velocidad del viento	6.4
140726	7	Sololá	719	Santiago Atitlán	14	Cerro de Oro	4	Abril	2023-02-04T00:00:00	2024-11-08T05:00:00	7	Dirección del viento	6.44
140727	7	Sololá	719	Santiago Atitlán	14	Cerro de Oro	4	Abril	2023-02-04T00:00:00	2024-11-08T05:00:00	1	Precipitación	0
140728	7	Sololá	719	Santiago Atitlán	14	Cerro de Oro	4	Abril	2023-02-04T00:00:00	2024-11-08T05:00:00	8	Radiación solar	0
140729	7	Sololá	719	Santiago Atitlán	14	Cerro de Oro	4	Abril	2023-02-04T00:00:00	2024-11-08T06:00:00	2	Temperatura media	15.6
140730	7	Sololá	719	Santiago Atitlán	14	Cerro de Oro	4	Abril	2023-02-04T00:00:00	2024-11-08T06:00:00	4	Temperatura máxima	16.3
140731	7	Sololá	719	Santiago Atitlán	14	Cerro de Oro	4	Abril	2023-02-04T00:00:00	2024-11-08T06:00:00	3	Temperatura mínima	15.5
140732	7	Sololá	719	Santiago Atitlán	14	Cerro de Oro	4	Abril	2023-02-04T00:00:00	2024-11-08T06:00:00	5	Humedad	62
140733	7	Sololá	719	Santiago Atitlán	14	Cerro de Oro	4	Abril	2023-02-04T00:00:00	2024-11-08T06:00:00	6	Velocidad del viento	4.8
140734	7	Sololá	719	Santiago Atitlán	14	Cerro de Oro	4	Abril	2023-02-04T00:00:00	2024-11-08T06:00:00	7	Dirección del viento	4.83
140735	7	Sololá	719	Santiago Atitlán	14	Cerro de Oro	4	Abril	2023-02-04T00:00:00	2024-11-08T06:00:00	1	Precipitación	0
140736	7	Sololá	719	Santiago Atitlán	14	Cerro de Oro	4	Abril	2023-02-04T00:00:00	2024-11-08T06:00:00	8	Radiación solar	0
140737	7	Sololá	719	Santiago Atitlán	14	Cerro de Oro	4	Abril	2023-02-04T00:00:00	2024-11-08T07:00:00	2	Temperatura media	15.2
140738	7	Sololá	719	Santiago Atitlán	14	Cerro de Oro	4	Abril	2023-02-04T00:00:00	2024-11-08T07:00:00	4	Temperatura máxima	16.2
140739	7	Sololá	719	Santiago Atitlán	14	Cerro de Oro	4	Abril	2023-02-04T00:00:00	2024-11-08T07:00:00	3	Temperatura mínima	15.1
140740	7	Sololá	719	Santiago Atitlán	14	Cerro de Oro	4	Abril	2023-02-04T00:00:00	2024-11-08T07:00:00	5	Humedad	58
140741	7	Sololá	719	Santiago Atitlán	14	Cerro de Oro	4	Abril	2023-02-04T00:00:00	2024-11-08T07:00:00	6	Velocidad del viento	4.8
140742	7	Sololá	719	Santiago Atitlán	14	Cerro de Oro	4	Abril	2023-02-04T00:00:00	2024-11-08T07:00:00	7	Dirección del viento	4.83
140743	7	Sololá	719	Santiago Atitlán	14	Cerro de Oro	4	Abril	2023-02-04T00:00:00	2024-11-08T07:00:00	1	Precipitación	0
140744	7	Sololá	719	Santiago Atitlán	14	Cerro de Oro	4	Abril	2023-02-04T00:00:00	2024-11-08T07:00:00	8	Radiación solar	59
140745	7	Sololá	719	Santiago Atitlán	14	Cerro de Oro	4	Abril	2023-02-04T00:00:00	2024-11-08T08:00:00	2	Temperatura media	16.9
140746	7	Sololá	719	Santiago Atitlán	14	Cerro de Oro	4	Abril	2023-02-04T00:00:00	2024-11-08T08:00:00	4	Temperatura máxima	16.9
140747	7	Sololá	719	Santiago Atitlán	14	Cerro de Oro	4	Abril	2023-02-04T00:00:00	2024-11-08T08:00:00	3	Temperatura mínima	15.2
140748	7	Sololá	719	Santiago Atitlán	14	Cerro de Oro	4	Abril	2023-02-04T00:00:00	2024-11-08T08:00:00	5	Humedad	59
140749	7	Sololá	719	Santiago Atitlán	14	Cerro de Oro	4	Abril	2023-02-04T00:00:00	2024-11-08T08:00:00	6	Velocidad del viento	4.8
140750	7	Sololá	719	Santiago Atitlán	14	Cerro de Oro	4	Abril	2023-02-04T00:00:00	2024-11-08T08:00:00	7	Dirección del viento	4.83
140751	7	Sololá	719	Santiago Atitlán	14	Cerro de Oro	4	Abril	2023-02-04T00:00:00	2024-11-08T08:00:00	1	Precipitación	0
140752	7	Sololá	719	Santiago Atitlán	14	Cerro de Oro	4	Abril	2023-02-04T00:00:00	2024-11-08T08:00:00	8	Radiación solar	246
140753	7	Sololá	719	Santiago Atitlán	14	Cerro de Oro	4	Abril	2023-02-04T00:00:00	2024-11-08T09:00:00	2	Temperatura media	18.8
140754	7	Sololá	719	Santiago Atitlán	14	Cerro de Oro	4	Abril	2023-02-04T00:00:00	2024-11-08T09:00:00	4	Temperatura máxima	18.8
140755	7	Sololá	719	Santiago Atitlán	14	Cerro de Oro	4	Abril	2023-02-04T00:00:00	2024-11-08T09:00:00	3	Temperatura mínima	16.9
140756	7	Sololá	719	Santiago Atitlán	14	Cerro de Oro	4	Abril	2023-02-04T00:00:00	2024-11-08T09:00:00	5	Humedad	59
140757	7	Sololá	719	Santiago Atitlán	14	Cerro de Oro	4	Abril	2023-02-04T00:00:00	2024-11-08T09:00:00	6	Velocidad del viento	3.2
140758	7	Sololá	719	Santiago Atitlán	14	Cerro de Oro	4	Abril	2023-02-04T00:00:00	2024-11-08T09:00:00	7	Dirección del viento	3.22
140759	7	Sololá	719	Santiago Atitlán	14	Cerro de Oro	4	Abril	2023-02-04T00:00:00	2024-11-08T09:00:00	1	Precipitación	0
140760	7	Sololá	719	Santiago Atitlán	14	Cerro de Oro	4	Abril	2023-02-04T00:00:00	2024-11-08T09:00:00	8	Radiación solar	394
140761	7	Sololá	719	Santiago Atitlán	14	Cerro de Oro	4	Abril	2023-02-04T00:00:00	2024-11-08T10:00:00	2	Temperatura media	20.2
140762	7	Sololá	719	Santiago Atitlán	14	Cerro de Oro	4	Abril	2023-02-04T00:00:00	2024-11-08T10:00:00	4	Temperatura máxima	20.2
140763	7	Sololá	719	Santiago Atitlán	14	Cerro de Oro	4	Abril	2023-02-04T00:00:00	2024-11-08T10:00:00	3	Temperatura mínima	18.8
140764	7	Sololá	719	Santiago Atitlán	14	Cerro de Oro	4	Abril	2023-02-04T00:00:00	2024-11-08T10:00:00	5	Humedad	60
140765	7	Sololá	719	Santiago Atitlán	14	Cerro de Oro	4	Abril	2023-02-04T00:00:00	2024-11-08T10:00:00	6	Velocidad del viento	4.8
140766	7	Sololá	719	Santiago Atitlán	14	Cerro de Oro	4	Abril	2023-02-04T00:00:00	2024-11-08T10:00:00	7	Dirección del viento	4.83
140767	7	Sololá	719	Santiago Atitlán	14	Cerro de Oro	4	Abril	2023-02-04T00:00:00	2024-11-08T10:00:00	1	Precipitación	0
140768	7	Sololá	719	Santiago Atitlán	14	Cerro de Oro	4	Abril	2023-02-04T00:00:00	2024-11-08T10:00:00	8	Radiación solar	659
140769	7	Sololá	719	Santiago Atitlán	14	Cerro de Oro	4	Abril	2023-02-04T00:00:00	2024-11-08T11:00:00	2	Temperatura media	21
140770	7	Sololá	719	Santiago Atitlán	14	Cerro de Oro	4	Abril	2023-02-04T00:00:00	2024-11-08T11:00:00	4	Temperatura máxima	21
140771	7	Sololá	719	Santiago Atitlán	14	Cerro de Oro	4	Abril	2023-02-04T00:00:00	2024-11-08T11:00:00	3	Temperatura mínima	19.6
140772	7	Sololá	719	Santiago Atitlán	14	Cerro de Oro	4	Abril	2023-02-04T00:00:00	2024-11-08T11:00:00	5	Humedad	61
140773	7	Sololá	719	Santiago Atitlán	14	Cerro de Oro	4	Abril	2023-02-04T00:00:00	2024-11-08T11:00:00	6	Velocidad del viento	4.8
140774	7	Sololá	719	Santiago Atitlán	14	Cerro de Oro	4	Abril	2023-02-04T00:00:00	2024-11-08T11:00:00	7	Dirección del viento	4.83
140775	7	Sololá	719	Santiago Atitlán	14	Cerro de Oro	4	Abril	2023-02-04T00:00:00	2024-11-08T11:00:00	1	Precipitación	0
140776	7	Sololá	719	Santiago Atitlán	14	Cerro de Oro	4	Abril	2023-02-04T00:00:00	2024-11-08T11:00:00	8	Radiación solar	861
140777	7	Sololá	719	Santiago Atitlán	14	Cerro de Oro	4	Abril	2023-02-04T00:00:00	2024-11-08T12:00:00	2	Temperatura media	25.4
140778	7	Sololá	719	Santiago Atitlán	14	Cerro de Oro	4	Abril	2023-02-04T00:00:00	2024-11-08T12:00:00	4	Temperatura máxima	25.5
140779	7	Sololá	719	Santiago Atitlán	14	Cerro de Oro	4	Abril	2023-02-04T00:00:00	2024-11-08T12:00:00	3	Temperatura mínima	21
140780	7	Sololá	719	Santiago Atitlán	14	Cerro de Oro	4	Abril	2023-02-04T00:00:00	2024-11-08T12:00:00	5	Humedad	47
140781	7	Sololá	719	Santiago Atitlán	14	Cerro de Oro	4	Abril	2023-02-04T00:00:00	2024-11-08T12:00:00	6	Velocidad del viento	8
140782	7	Sololá	719	Santiago Atitlán	14	Cerro de Oro	4	Abril	2023-02-04T00:00:00	2024-11-08T12:00:00	7	Dirección del viento	8.05
140783	7	Sololá	719	Santiago Atitlán	14	Cerro de Oro	4	Abril	2023-02-04T00:00:00	2024-11-08T12:00:00	1	Precipitación	0
140784	7	Sololá	719	Santiago Atitlán	14	Cerro de Oro	4	Abril	2023-02-04T00:00:00	2024-11-08T12:00:00	8	Radiación solar	938
140785	7	Sololá	719	Santiago Atitlán	14	Cerro de Oro	4	Abril	2023-02-04T00:00:00	2024-11-08T13:00:00	2	Temperatura media	24.8
140786	7	Sololá	719	Santiago Atitlán	14	Cerro de Oro	4	Abril	2023-02-04T00:00:00	2024-11-08T13:00:00	4	Temperatura máxima	26
140787	7	Sololá	719	Santiago Atitlán	14	Cerro de Oro	4	Abril	2023-02-04T00:00:00	2024-11-08T13:00:00	3	Temperatura mínima	24.6
140788	7	Sololá	719	Santiago Atitlán	14	Cerro de Oro	4	Abril	2023-02-04T00:00:00	2024-11-08T13:00:00	5	Humedad	57
140789	7	Sololá	719	Santiago Atitlán	14	Cerro de Oro	4	Abril	2023-02-04T00:00:00	2024-11-08T13:00:00	6	Velocidad del viento	11.3
140790	7	Sololá	719	Santiago Atitlán	14	Cerro de Oro	4	Abril	2023-02-04T00:00:00	2024-11-08T13:00:00	7	Dirección del viento	11.27
140791	7	Sololá	719	Santiago Atitlán	14	Cerro de Oro	4	Abril	2023-02-04T00:00:00	2024-11-08T13:00:00	1	Precipitación	0
140792	7	Sololá	719	Santiago Atitlán	14	Cerro de Oro	4	Abril	2023-02-04T00:00:00	2024-11-08T13:00:00	8	Radiación solar	942
140793	7	Sololá	719	Santiago Atitlán	14	Cerro de Oro	4	Abril	2023-02-04T00:00:00	2024-11-08T14:00:00	2	Temperatura media	25.3
140794	7	Sololá	719	Santiago Atitlán	14	Cerro de Oro	4	Abril	2023-02-04T00:00:00	2024-11-08T14:00:00	4	Temperatura máxima	25.6
140795	7	Sololá	719	Santiago Atitlán	14	Cerro de Oro	4	Abril	2023-02-04T00:00:00	2024-11-08T14:00:00	3	Temperatura mínima	24.6
140796	7	Sololá	719	Santiago Atitlán	14	Cerro de Oro	4	Abril	2023-02-04T00:00:00	2024-11-08T14:00:00	5	Humedad	53
140797	7	Sololá	719	Santiago Atitlán	14	Cerro de Oro	4	Abril	2023-02-04T00:00:00	2024-11-08T14:00:00	6	Velocidad del viento	14.5
140798	7	Sololá	719	Santiago Atitlán	14	Cerro de Oro	4	Abril	2023-02-04T00:00:00	2024-11-08T14:00:00	7	Dirección del viento	14.48
140799	7	Sololá	719	Santiago Atitlán	14	Cerro de Oro	4	Abril	2023-02-04T00:00:00	2024-11-08T14:00:00	1	Precipitación	0
140800	7	Sololá	719	Santiago Atitlán	14	Cerro de Oro	4	Abril	2023-02-04T00:00:00	2024-11-08T14:00:00	8	Radiación solar	885
140801	7	Sololá	719	Santiago Atitlán	14	Cerro de Oro	4	Abril	2023-02-04T00:00:00	2024-11-08T15:00:00	2	Temperatura media	25
140802	7	Sololá	719	Santiago Atitlán	14	Cerro de Oro	4	Abril	2023-02-04T00:00:00	2024-11-08T15:00:00	4	Temperatura máxima	25.4
140803	7	Sololá	719	Santiago Atitlán	14	Cerro de Oro	4	Abril	2023-02-04T00:00:00	2024-11-08T15:00:00	3	Temperatura mínima	24.8
140804	7	Sololá	719	Santiago Atitlán	14	Cerro de Oro	4	Abril	2023-02-04T00:00:00	2024-11-08T15:00:00	5	Humedad	61
140805	7	Sololá	719	Santiago Atitlán	14	Cerro de Oro	4	Abril	2023-02-04T00:00:00	2024-11-08T15:00:00	6	Velocidad del viento	14.5
140806	7	Sololá	719	Santiago Atitlán	14	Cerro de Oro	4	Abril	2023-02-04T00:00:00	2024-11-08T15:00:00	7	Dirección del viento	14.48
140807	7	Sololá	719	Santiago Atitlán	14	Cerro de Oro	4	Abril	2023-02-04T00:00:00	2024-11-08T15:00:00	1	Precipitación	0
140808	7	Sololá	719	Santiago Atitlán	14	Cerro de Oro	4	Abril	2023-02-04T00:00:00	2024-11-08T15:00:00	8	Radiación solar	746
140809	7	Sololá	719	Santiago Atitlán	14	Cerro de Oro	4	Abril	2023-02-04T00:00:00	2024-11-08T16:00:00	2	Temperatura media	24
140810	7	Sololá	719	Santiago Atitlán	14	Cerro de Oro	4	Abril	2023-02-04T00:00:00	2024-11-08T16:00:00	4	Temperatura máxima	25
140811	7	Sololá	719	Santiago Atitlán	14	Cerro de Oro	4	Abril	2023-02-04T00:00:00	2024-11-08T16:00:00	3	Temperatura mínima	23.9
140812	7	Sololá	719	Santiago Atitlán	14	Cerro de Oro	4	Abril	2023-02-04T00:00:00	2024-11-08T16:00:00	5	Humedad	63
140813	7	Sololá	719	Santiago Atitlán	14	Cerro de Oro	4	Abril	2023-02-04T00:00:00	2024-11-08T16:00:00	6	Velocidad del viento	16.1
140814	7	Sololá	719	Santiago Atitlán	14	Cerro de Oro	4	Abril	2023-02-04T00:00:00	2024-11-08T16:00:00	7	Dirección del viento	16.09
140815	7	Sololá	719	Santiago Atitlán	14	Cerro de Oro	4	Abril	2023-02-04T00:00:00	2024-11-08T16:00:00	1	Precipitación	0
140816	7	Sololá	719	Santiago Atitlán	14	Cerro de Oro	4	Abril	2023-02-04T00:00:00	2024-11-08T16:00:00	8	Radiación solar	551
140817	7	Sololá	719	Santiago Atitlán	14	Cerro de Oro	4	Abril	2023-02-04T00:00:00	2024-11-08T17:00:00	2	Temperatura media	22.6
140818	7	Sololá	719	Santiago Atitlán	14	Cerro de Oro	4	Abril	2023-02-04T00:00:00	2024-11-08T17:00:00	4	Temperatura máxima	24.1
140819	7	Sololá	719	Santiago Atitlán	14	Cerro de Oro	4	Abril	2023-02-04T00:00:00	2024-11-08T17:00:00	3	Temperatura mínima	22.6
140820	7	Sololá	719	Santiago Atitlán	14	Cerro de Oro	4	Abril	2023-02-04T00:00:00	2024-11-08T17:00:00	5	Humedad	71
140821	7	Sololá	719	Santiago Atitlán	14	Cerro de Oro	4	Abril	2023-02-04T00:00:00	2024-11-08T17:00:00	6	Velocidad del viento	14.5
140822	7	Sololá	719	Santiago Atitlán	14	Cerro de Oro	4	Abril	2023-02-04T00:00:00	2024-11-08T17:00:00	7	Dirección del viento	14.48
140823	7	Sololá	719	Santiago Atitlán	14	Cerro de Oro	4	Abril	2023-02-04T00:00:00	2024-11-08T17:00:00	1	Precipitación	0
140824	7	Sololá	719	Santiago Atitlán	14	Cerro de Oro	4	Abril	2023-02-04T00:00:00	2024-11-08T17:00:00	8	Radiación solar	288
140825	7	Sololá	719	Santiago Atitlán	14	Cerro de Oro	4	Abril	2023-02-04T00:00:00	2024-11-08T18:00:00	2	Temperatura media	21.6
140826	7	Sololá	719	Santiago Atitlán	14	Cerro de Oro	4	Abril	2023-02-04T00:00:00	2024-11-08T18:00:00	4	Temperatura máxima	22.7
140827	7	Sololá	719	Santiago Atitlán	14	Cerro de Oro	4	Abril	2023-02-04T00:00:00	2024-11-08T18:00:00	3	Temperatura mínima	21.6
140828	7	Sololá	719	Santiago Atitlán	14	Cerro de Oro	4	Abril	2023-02-04T00:00:00	2024-11-08T18:00:00	5	Humedad	75
140829	7	Sololá	719	Santiago Atitlán	14	Cerro de Oro	4	Abril	2023-02-04T00:00:00	2024-11-08T18:00:00	6	Velocidad del viento	14.5
140830	7	Sololá	719	Santiago Atitlán	14	Cerro de Oro	4	Abril	2023-02-04T00:00:00	2024-11-08T18:00:00	7	Dirección del viento	14.48
140831	7	Sololá	719	Santiago Atitlán	14	Cerro de Oro	4	Abril	2023-02-04T00:00:00	2024-11-08T18:00:00	1	Precipitación	0
140832	7	Sololá	719	Santiago Atitlán	14	Cerro de Oro	4	Abril	2023-02-04T00:00:00	2024-11-08T18:00:00	8	Radiación solar	93
140833	7	Sololá	719	Santiago Atitlán	14	Cerro de Oro	4	Abril	2023-02-04T00:00:00	2024-11-08T19:00:00	2	Temperatura media	20.3
140834	7	Sololá	719	Santiago Atitlán	14	Cerro de Oro	4	Abril	2023-02-04T00:00:00	2024-11-08T19:00:00	4	Temperatura máxima	21.6
140835	7	Sololá	719	Santiago Atitlán	14	Cerro de Oro	4	Abril	2023-02-04T00:00:00	2024-11-08T19:00:00	3	Temperatura mínima	20.3
140836	7	Sololá	719	Santiago Atitlán	14	Cerro de Oro	4	Abril	2023-02-04T00:00:00	2024-11-08T19:00:00	5	Humedad	80
140837	7	Sololá	719	Santiago Atitlán	14	Cerro de Oro	4	Abril	2023-02-04T00:00:00	2024-11-08T19:00:00	6	Velocidad del viento	9.7
140838	7	Sololá	719	Santiago Atitlán	14	Cerro de Oro	4	Abril	2023-02-04T00:00:00	2024-11-08T19:00:00	7	Dirección del viento	9.66
140839	7	Sololá	719	Santiago Atitlán	14	Cerro de Oro	4	Abril	2023-02-04T00:00:00	2024-11-08T19:00:00	1	Precipitación	0
140840	7	Sololá	719	Santiago Atitlán	14	Cerro de Oro	4	Abril	2023-02-04T00:00:00	2024-11-08T19:00:00	8	Radiación solar	0
140841	7	Sololá	719	Santiago Atitlán	14	Cerro de Oro	4	Abril	2023-02-04T00:00:00	2024-11-08T20:00:00	2	Temperatura media	18.7
140842	7	Sololá	719	Santiago Atitlán	14	Cerro de Oro	4	Abril	2023-02-04T00:00:00	2024-11-08T20:00:00	4	Temperatura máxima	20.3
140843	7	Sololá	719	Santiago Atitlán	14	Cerro de Oro	4	Abril	2023-02-04T00:00:00	2024-11-08T20:00:00	3	Temperatura mínima	18.7
140844	7	Sololá	719	Santiago Atitlán	14	Cerro de Oro	4	Abril	2023-02-04T00:00:00	2024-11-08T20:00:00	5	Humedad	83
140845	7	Sololá	719	Santiago Atitlán	14	Cerro de Oro	4	Abril	2023-02-04T00:00:00	2024-11-08T20:00:00	6	Velocidad del viento	4.8
140846	7	Sololá	719	Santiago Atitlán	14	Cerro de Oro	4	Abril	2023-02-04T00:00:00	2024-11-08T20:00:00	7	Dirección del viento	4.83
140847	7	Sololá	719	Santiago Atitlán	14	Cerro de Oro	4	Abril	2023-02-04T00:00:00	2024-11-08T20:00:00	1	Precipitación	0
140848	7	Sololá	719	Santiago Atitlán	14	Cerro de Oro	4	Abril	2023-02-04T00:00:00	2024-11-08T20:00:00	8	Radiación solar	0
140849	7	Sololá	719	Santiago Atitlán	14	Cerro de Oro	4	Abril	2023-02-04T00:00:00	2024-11-08T21:00:00	2	Temperatura media	18.6
140850	7	Sololá	719	Santiago Atitlán	14	Cerro de Oro	4	Abril	2023-02-04T00:00:00	2024-11-08T21:00:00	4	Temperatura máxima	18.7
140851	7	Sololá	719	Santiago Atitlán	14	Cerro de Oro	4	Abril	2023-02-04T00:00:00	2024-11-08T21:00:00	3	Temperatura mínima	18.1
140852	7	Sololá	719	Santiago Atitlán	14	Cerro de Oro	4	Abril	2023-02-04T00:00:00	2024-11-08T21:00:00	5	Humedad	83
140853	7	Sololá	719	Santiago Atitlán	14	Cerro de Oro	4	Abril	2023-02-04T00:00:00	2024-11-08T21:00:00	6	Velocidad del viento	4.8
140854	7	Sololá	719	Santiago Atitlán	14	Cerro de Oro	4	Abril	2023-02-04T00:00:00	2024-11-08T21:00:00	7	Dirección del viento	4.83
140855	7	Sololá	719	Santiago Atitlán	14	Cerro de Oro	4	Abril	2023-02-04T00:00:00	2024-11-08T21:00:00	1	Precipitación	0
140856	7	Sololá	719	Santiago Atitlán	14	Cerro de Oro	4	Abril	2023-02-04T00:00:00	2024-11-08T21:00:00	8	Radiación solar	0
140857	7	Sololá	719	Santiago Atitlán	14	Cerro de Oro	4	Abril	2023-02-04T00:00:00	2024-11-08T22:00:00	2	Temperatura media	19.6
140858	7	Sololá	719	Santiago Atitlán	14	Cerro de Oro	4	Abril	2023-02-04T00:00:00	2024-11-08T22:00:00	4	Temperatura máxima	19.6
140859	7	Sololá	719	Santiago Atitlán	14	Cerro de Oro	4	Abril	2023-02-04T00:00:00	2024-11-08T22:00:00	3	Temperatura mínima	18.2
140860	7	Sololá	719	Santiago Atitlán	14	Cerro de Oro	4	Abril	2023-02-04T00:00:00	2024-11-08T22:00:00	5	Humedad	74
140861	7	Sololá	719	Santiago Atitlán	14	Cerro de Oro	4	Abril	2023-02-04T00:00:00	2024-11-08T22:00:00	6	Velocidad del viento	3.2
140862	7	Sololá	719	Santiago Atitlán	14	Cerro de Oro	4	Abril	2023-02-04T00:00:00	2024-11-08T22:00:00	7	Dirección del viento	3.22
140863	7	Sololá	719	Santiago Atitlán	14	Cerro de Oro	4	Abril	2023-02-04T00:00:00	2024-11-08T22:00:00	1	Precipitación	0
140864	7	Sololá	719	Santiago Atitlán	14	Cerro de Oro	4	Abril	2023-02-04T00:00:00	2024-11-08T22:00:00	8	Radiación solar	0
140865	7	Sololá	719	Santiago Atitlán	14	Cerro de Oro	4	Abril	2023-02-04T00:00:00	2024-11-08T23:00:00	2	Temperatura media	18.5
140866	7	Sololá	719	Santiago Atitlán	14	Cerro de Oro	4	Abril	2023-02-04T00:00:00	2024-11-08T23:00:00	4	Temperatura máxima	19.9
140867	7	Sololá	719	Santiago Atitlán	14	Cerro de Oro	4	Abril	2023-02-04T00:00:00	2024-11-08T23:00:00	3	Temperatura mínima	18.5
140868	7	Sololá	719	Santiago Atitlán	14	Cerro de Oro	4	Abril	2023-02-04T00:00:00	2024-11-08T23:00:00	5	Humedad	70
140869	7	Sololá	719	Santiago Atitlán	14	Cerro de Oro	4	Abril	2023-02-04T00:00:00	2024-11-08T23:00:00	6	Velocidad del viento	4.8
140870	7	Sololá	719	Santiago Atitlán	14	Cerro de Oro	4	Abril	2023-02-04T00:00:00	2024-11-08T23:00:00	7	Dirección del viento	4.83
140871	7	Sololá	719	Santiago Atitlán	14	Cerro de Oro	4	Abril	2023-02-04T00:00:00	2024-11-08T23:00:00	1	Precipitación	0
140872	7	Sololá	719	Santiago Atitlán	14	Cerro de Oro	4	Abril	2023-02-04T00:00:00	2024-11-08T23:00:00	8	Radiación solar	0
140873	7	Sololá	719	Santiago Atitlán	14	Cerro de Oro	4	Abril	2023-03-04T00:00:00	2024-11-08T00:00:00	2	Temperatura media	17.7
140874	7	Sololá	719	Santiago Atitlán	14	Cerro de Oro	4	Abril	2023-03-04T00:00:00	2024-11-08T00:00:00	4	Temperatura máxima	18.5
140875	7	Sololá	719	Santiago Atitlán	14	Cerro de Oro	4	Abril	2023-03-04T00:00:00	2024-11-08T00:00:00	3	Temperatura mínima	17.7
140876	7	Sololá	719	Santiago Atitlán	14	Cerro de Oro	4	Abril	2023-03-04T00:00:00	2024-11-08T00:00:00	5	Humedad	72
140877	7	Sololá	719	Santiago Atitlán	14	Cerro de Oro	4	Abril	2023-03-04T00:00:00	2024-11-08T00:00:00	6	Velocidad del viento	4.8
140878	7	Sololá	719	Santiago Atitlán	14	Cerro de Oro	4	Abril	2023-03-04T00:00:00	2024-11-08T00:00:00	7	Dirección del viento	4.83
140879	7	Sololá	719	Santiago Atitlán	14	Cerro de Oro	4	Abril	2023-03-04T00:00:00	2024-11-08T00:00:00	1	Precipitación	0
140880	7	Sololá	719	Santiago Atitlán	14	Cerro de Oro	4	Abril	2023-03-04T00:00:00	2024-11-08T00:00:00	8	Radiación solar	0
140881	7	Sololá	719	Santiago Atitlán	14	Cerro de Oro	4	Abril	2023-03-04T00:00:00	2024-11-08T01:00:00	2	Temperatura media	17.8
140882	7	Sololá	719	Santiago Atitlán	14	Cerro de Oro	4	Abril	2023-03-04T00:00:00	2024-11-08T01:00:00	4	Temperatura máxima	17.9
140883	7	Sololá	719	Santiago Atitlán	14	Cerro de Oro	4	Abril	2023-03-04T00:00:00	2024-11-08T01:00:00	3	Temperatura mínima	17.2
140884	7	Sololá	719	Santiago Atitlán	14	Cerro de Oro	4	Abril	2023-03-04T00:00:00	2024-11-08T01:00:00	5	Humedad	70
140885	7	Sololá	719	Santiago Atitlán	14	Cerro de Oro	4	Abril	2023-03-04T00:00:00	2024-11-08T01:00:00	6	Velocidad del viento	6.4
140886	7	Sololá	719	Santiago Atitlán	14	Cerro de Oro	4	Abril	2023-03-04T00:00:00	2024-11-08T01:00:00	7	Dirección del viento	6.44
140887	7	Sololá	719	Santiago Atitlán	14	Cerro de Oro	4	Abril	2023-03-04T00:00:00	2024-11-08T01:00:00	1	Precipitación	0
140888	7	Sololá	719	Santiago Atitlán	14	Cerro de Oro	4	Abril	2023-03-04T00:00:00	2024-11-08T01:00:00	8	Radiación solar	0
140889	7	Sololá	719	Santiago Atitlán	14	Cerro de Oro	4	Abril	2023-03-04T00:00:00	2024-11-08T02:00:00	2	Temperatura media	17.5
140890	7	Sololá	719	Santiago Atitlán	14	Cerro de Oro	4	Abril	2023-03-04T00:00:00	2024-11-08T02:00:00	4	Temperatura máxima	17.8
140891	7	Sololá	719	Santiago Atitlán	14	Cerro de Oro	4	Abril	2023-03-04T00:00:00	2024-11-08T02:00:00	3	Temperatura mínima	17.3
140892	7	Sololá	719	Santiago Atitlán	14	Cerro de Oro	4	Abril	2023-03-04T00:00:00	2024-11-08T02:00:00	5	Humedad	69
140893	7	Sololá	719	Santiago Atitlán	14	Cerro de Oro	4	Abril	2023-03-04T00:00:00	2024-11-08T02:00:00	6	Velocidad del viento	4.8
140894	7	Sololá	719	Santiago Atitlán	14	Cerro de Oro	4	Abril	2023-03-04T00:00:00	2024-11-08T02:00:00	7	Dirección del viento	4.83
140895	7	Sololá	719	Santiago Atitlán	14	Cerro de Oro	4	Abril	2023-03-04T00:00:00	2024-11-08T02:00:00	1	Precipitación	0
140896	7	Sololá	719	Santiago Atitlán	14	Cerro de Oro	4	Abril	2023-03-04T00:00:00	2024-11-08T02:00:00	8	Radiación solar	0
140897	7	Sololá	719	Santiago Atitlán	14	Cerro de Oro	4	Abril	2023-03-04T00:00:00	2024-11-08T03:00:00	2	Temperatura media	16.9
140898	7	Sololá	719	Santiago Atitlán	14	Cerro de Oro	4	Abril	2023-03-04T00:00:00	2024-11-08T03:00:00	4	Temperatura máxima	17.5
140899	7	Sololá	719	Santiago Atitlán	14	Cerro de Oro	4	Abril	2023-03-04T00:00:00	2024-11-08T03:00:00	3	Temperatura mínima	16.9
140900	7	Sololá	719	Santiago Atitlán	14	Cerro de Oro	4	Abril	2023-03-04T00:00:00	2024-11-08T03:00:00	5	Humedad	69
140901	7	Sololá	719	Santiago Atitlán	14	Cerro de Oro	4	Abril	2023-03-04T00:00:00	2024-11-08T03:00:00	6	Velocidad del viento	4.8
140902	7	Sololá	719	Santiago Atitlán	14	Cerro de Oro	4	Abril	2023-03-04T00:00:00	2024-11-08T03:00:00	7	Dirección del viento	4.83
140903	7	Sololá	719	Santiago Atitlán	14	Cerro de Oro	4	Abril	2023-03-04T00:00:00	2024-11-08T03:00:00	1	Precipitación	0
140904	7	Sololá	719	Santiago Atitlán	14	Cerro de Oro	4	Abril	2023-03-04T00:00:00	2024-11-08T03:00:00	8	Radiación solar	0
140905	7	Sololá	719	Santiago Atitlán	14	Cerro de Oro	4	Abril	2023-03-04T00:00:00	2024-11-08T04:00:00	2	Temperatura media	15.9
140906	7	Sololá	719	Santiago Atitlán	14	Cerro de Oro	4	Abril	2023-03-04T00:00:00	2024-11-08T04:00:00	4	Temperatura máxima	16.9
140907	7	Sololá	719	Santiago Atitlán	14	Cerro de Oro	4	Abril	2023-03-04T00:00:00	2024-11-08T04:00:00	3	Temperatura mínima	15.9
140908	7	Sololá	719	Santiago Atitlán	14	Cerro de Oro	4	Abril	2023-03-04T00:00:00	2024-11-08T04:00:00	5	Humedad	69
140909	7	Sololá	719	Santiago Atitlán	14	Cerro de Oro	4	Abril	2023-03-04T00:00:00	2024-11-08T04:00:00	6	Velocidad del viento	3.2
140910	7	Sololá	719	Santiago Atitlán	14	Cerro de Oro	4	Abril	2023-03-04T00:00:00	2024-11-08T04:00:00	7	Dirección del viento	3.22
140911	7	Sololá	719	Santiago Atitlán	14	Cerro de Oro	4	Abril	2023-03-04T00:00:00	2024-11-08T04:00:00	1	Precipitación	0
140912	7	Sololá	719	Santiago Atitlán	14	Cerro de Oro	4	Abril	2023-03-04T00:00:00	2024-11-08T04:00:00	8	Radiación solar	0
140913	7	Sololá	719	Santiago Atitlán	14	Cerro de Oro	4	Abril	2023-03-04T00:00:00	2024-11-08T05:00:00	2	Temperatura media	16
140914	7	Sololá	719	Santiago Atitlán	14	Cerro de Oro	4	Abril	2023-03-04T00:00:00	2024-11-08T05:00:00	4	Temperatura máxima	16.1
140915	7	Sololá	719	Santiago Atitlán	14	Cerro de Oro	4	Abril	2023-03-04T00:00:00	2024-11-08T05:00:00	3	Temperatura mínima	15.8
140916	7	Sololá	719	Santiago Atitlán	14	Cerro de Oro	4	Abril	2023-03-04T00:00:00	2024-11-08T05:00:00	5	Humedad	66
140917	7	Sololá	719	Santiago Atitlán	14	Cerro de Oro	4	Abril	2023-03-04T00:00:00	2024-11-08T05:00:00	6	Velocidad del viento	3.2
140918	7	Sololá	719	Santiago Atitlán	14	Cerro de Oro	4	Abril	2023-03-04T00:00:00	2024-11-08T05:00:00	7	Dirección del viento	3.22
140919	7	Sololá	719	Santiago Atitlán	14	Cerro de Oro	4	Abril	2023-03-04T00:00:00	2024-11-08T05:00:00	1	Precipitación	0
140920	7	Sololá	719	Santiago Atitlán	14	Cerro de Oro	4	Abril	2023-03-04T00:00:00	2024-11-08T05:00:00	8	Radiación solar	0
140921	7	Sololá	719	Santiago Atitlán	14	Cerro de Oro	4	Abril	2023-03-04T00:00:00	2024-11-08T06:00:00	2	Temperatura media	15.6
140922	7	Sololá	719	Santiago Atitlán	14	Cerro de Oro	4	Abril	2023-03-04T00:00:00	2024-11-08T06:00:00	4	Temperatura máxima	16
140923	7	Sololá	719	Santiago Atitlán	14	Cerro de Oro	4	Abril	2023-03-04T00:00:00	2024-11-08T06:00:00	3	Temperatura mínima	15.6
140924	7	Sololá	719	Santiago Atitlán	14	Cerro de Oro	4	Abril	2023-03-04T00:00:00	2024-11-08T06:00:00	5	Humedad	67
140925	7	Sololá	719	Santiago Atitlán	14	Cerro de Oro	4	Abril	2023-03-04T00:00:00	2024-11-08T06:00:00	6	Velocidad del viento	3.2
140926	7	Sololá	719	Santiago Atitlán	14	Cerro de Oro	4	Abril	2023-03-04T00:00:00	2024-11-08T06:00:00	7	Dirección del viento	3.22
140927	7	Sololá	719	Santiago Atitlán	14	Cerro de Oro	4	Abril	2023-03-04T00:00:00	2024-11-08T06:00:00	1	Precipitación	0
140928	7	Sololá	719	Santiago Atitlán	14	Cerro de Oro	4	Abril	2023-03-04T00:00:00	2024-11-08T06:00:00	8	Radiación solar	0
140929	7	Sololá	719	Santiago Atitlán	14	Cerro de Oro	4	Abril	2023-03-04T00:00:00	2024-11-08T07:00:00	2	Temperatura media	15.6
140930	7	Sololá	719	Santiago Atitlán	14	Cerro de Oro	4	Abril	2023-03-04T00:00:00	2024-11-08T07:00:00	4	Temperatura máxima	15.7
140931	7	Sololá	719	Santiago Atitlán	14	Cerro de Oro	4	Abril	2023-03-04T00:00:00	2024-11-08T07:00:00	3	Temperatura mínima	15.3
140932	7	Sololá	719	Santiago Atitlán	14	Cerro de Oro	4	Abril	2023-03-04T00:00:00	2024-11-08T07:00:00	5	Humedad	69
140933	7	Sololá	719	Santiago Atitlán	14	Cerro de Oro	4	Abril	2023-03-04T00:00:00	2024-11-08T07:00:00	6	Velocidad del viento	4.8
140934	7	Sololá	719	Santiago Atitlán	14	Cerro de Oro	4	Abril	2023-03-04T00:00:00	2024-11-08T07:00:00	7	Dirección del viento	4.83
140935	7	Sololá	719	Santiago Atitlán	14	Cerro de Oro	4	Abril	2023-03-04T00:00:00	2024-11-08T07:00:00	1	Precipitación	0
140936	7	Sololá	719	Santiago Atitlán	14	Cerro de Oro	4	Abril	2023-03-04T00:00:00	2024-11-08T07:00:00	8	Radiación solar	60
140937	7	Sololá	719	Santiago Atitlán	14	Cerro de Oro	4	Abril	2023-03-04T00:00:00	2024-11-08T08:00:00	2	Temperatura media	17.1
140938	7	Sololá	719	Santiago Atitlán	14	Cerro de Oro	4	Abril	2023-03-04T00:00:00	2024-11-08T08:00:00	4	Temperatura máxima	17.1
140939	7	Sololá	719	Santiago Atitlán	14	Cerro de Oro	4	Abril	2023-03-04T00:00:00	2024-11-08T08:00:00	3	Temperatura mínima	15.4
140940	7	Sololá	719	Santiago Atitlán	14	Cerro de Oro	4	Abril	2023-03-04T00:00:00	2024-11-08T08:00:00	5	Humedad	66
140941	7	Sololá	719	Santiago Atitlán	14	Cerro de Oro	4	Abril	2023-03-04T00:00:00	2024-11-08T08:00:00	6	Velocidad del viento	3.2
140942	7	Sololá	719	Santiago Atitlán	14	Cerro de Oro	4	Abril	2023-03-04T00:00:00	2024-11-08T08:00:00	7	Dirección del viento	3.22
140943	7	Sololá	719	Santiago Atitlán	14	Cerro de Oro	4	Abril	2023-03-04T00:00:00	2024-11-08T08:00:00	1	Precipitación	0
140944	7	Sololá	719	Santiago Atitlán	14	Cerro de Oro	4	Abril	2023-03-04T00:00:00	2024-11-08T08:00:00	8	Radiación solar	231
140945	7	Sololá	719	Santiago Atitlán	14	Cerro de Oro	4	Abril	2023-03-04T00:00:00	2024-11-08T09:00:00	2	Temperatura media	18.6
140946	7	Sololá	719	Santiago Atitlán	14	Cerro de Oro	4	Abril	2023-03-04T00:00:00	2024-11-08T09:00:00	4	Temperatura máxima	18.7
140947	7	Sololá	719	Santiago Atitlán	14	Cerro de Oro	4	Abril	2023-03-04T00:00:00	2024-11-08T09:00:00	3	Temperatura mínima	17.1
140948	7	Sololá	719	Santiago Atitlán	14	Cerro de Oro	4	Abril	2023-03-04T00:00:00	2024-11-08T09:00:00	5	Humedad	66
140949	7	Sololá	719	Santiago Atitlán	14	Cerro de Oro	4	Abril	2023-03-04T00:00:00	2024-11-08T09:00:00	6	Velocidad del viento	3.2
140950	7	Sololá	719	Santiago Atitlán	14	Cerro de Oro	4	Abril	2023-03-04T00:00:00	2024-11-08T09:00:00	7	Dirección del viento	3.22
140951	7	Sololá	719	Santiago Atitlán	14	Cerro de Oro	4	Abril	2023-03-04T00:00:00	2024-11-08T09:00:00	1	Precipitación	0
140952	7	Sololá	719	Santiago Atitlán	14	Cerro de Oro	4	Abril	2023-03-04T00:00:00	2024-11-08T09:00:00	8	Radiación solar	389
140953	7	Sololá	719	Santiago Atitlán	14	Cerro de Oro	4	Abril	2023-03-04T00:00:00	2024-11-08T10:00:00	2	Temperatura media	19.7
140954	7	Sololá	719	Santiago Atitlán	14	Cerro de Oro	4	Abril	2023-03-04T00:00:00	2024-11-08T10:00:00	4	Temperatura máxima	19.9
140955	7	Sololá	719	Santiago Atitlán	14	Cerro de Oro	4	Abril	2023-03-04T00:00:00	2024-11-08T10:00:00	3	Temperatura mínima	18.6
140956	7	Sololá	719	Santiago Atitlán	14	Cerro de Oro	4	Abril	2023-03-04T00:00:00	2024-11-08T10:00:00	5	Humedad	68
140957	7	Sololá	719	Santiago Atitlán	14	Cerro de Oro	4	Abril	2023-03-04T00:00:00	2024-11-08T10:00:00	6	Velocidad del viento	4.8
140958	7	Sololá	719	Santiago Atitlán	14	Cerro de Oro	4	Abril	2023-03-04T00:00:00	2024-11-08T10:00:00	7	Dirección del viento	4.83
140959	7	Sololá	719	Santiago Atitlán	14	Cerro de Oro	4	Abril	2023-03-04T00:00:00	2024-11-08T10:00:00	1	Precipitación	0
140960	7	Sololá	719	Santiago Atitlán	14	Cerro de Oro	4	Abril	2023-03-04T00:00:00	2024-11-08T10:00:00	8	Radiación solar	654
140961	7	Sololá	719	Santiago Atitlán	14	Cerro de Oro	4	Abril	2023-03-04T00:00:00	2024-11-08T11:00:00	2	Temperatura media	21.3
140962	7	Sololá	719	Santiago Atitlán	14	Cerro de Oro	4	Abril	2023-03-04T00:00:00	2024-11-08T11:00:00	4	Temperatura máxima	21.3
140963	7	Sololá	719	Santiago Atitlán	14	Cerro de Oro	4	Abril	2023-03-04T00:00:00	2024-11-08T11:00:00	3	Temperatura mínima	19.6
140964	7	Sololá	719	Santiago Atitlán	14	Cerro de Oro	4	Abril	2023-03-04T00:00:00	2024-11-08T11:00:00	5	Humedad	65
140965	7	Sololá	719	Santiago Atitlán	14	Cerro de Oro	4	Abril	2023-03-04T00:00:00	2024-11-08T11:00:00	6	Velocidad del viento	4.8
140966	7	Sololá	719	Santiago Atitlán	14	Cerro de Oro	4	Abril	2023-03-04T00:00:00	2024-11-08T11:00:00	7	Dirección del viento	4.83
140967	7	Sololá	719	Santiago Atitlán	14	Cerro de Oro	4	Abril	2023-03-04T00:00:00	2024-11-08T11:00:00	1	Precipitación	0
140968	7	Sololá	719	Santiago Atitlán	14	Cerro de Oro	4	Abril	2023-03-04T00:00:00	2024-11-08T11:00:00	8	Radiación solar	841
140969	7	Sololá	719	Santiago Atitlán	14	Cerro de Oro	4	Abril	2023-03-04T00:00:00	2024-11-08T12:00:00	2	Temperatura media	23.2
140970	7	Sololá	719	Santiago Atitlán	14	Cerro de Oro	4	Abril	2023-03-04T00:00:00	2024-11-08T12:00:00	4	Temperatura máxima	23.2
140971	7	Sololá	719	Santiago Atitlán	14	Cerro de Oro	4	Abril	2023-03-04T00:00:00	2024-11-08T12:00:00	3	Temperatura mínima	21
140972	7	Sololá	719	Santiago Atitlán	14	Cerro de Oro	4	Abril	2023-03-04T00:00:00	2024-11-08T12:00:00	5	Humedad	60
140973	7	Sololá	719	Santiago Atitlán	14	Cerro de Oro	4	Abril	2023-03-04T00:00:00	2024-11-08T12:00:00	6	Velocidad del viento	4.8
140974	7	Sololá	719	Santiago Atitlán	14	Cerro de Oro	4	Abril	2023-03-04T00:00:00	2024-11-08T12:00:00	7	Dirección del viento	4.83
140975	7	Sololá	719	Santiago Atitlán	14	Cerro de Oro	4	Abril	2023-03-04T00:00:00	2024-11-08T12:00:00	1	Precipitación	0
140976	7	Sololá	719	Santiago Atitlán	14	Cerro de Oro	4	Abril	2023-03-04T00:00:00	2024-11-08T12:00:00	8	Radiación solar	923
140977	7	Sololá	719	Santiago Atitlán	14	Cerro de Oro	4	Abril	2023-03-04T00:00:00	2024-11-08T13:00:00	2	Temperatura media	22.8
140978	7	Sololá	719	Santiago Atitlán	14	Cerro de Oro	4	Abril	2023-03-04T00:00:00	2024-11-08T13:00:00	4	Temperatura máxima	23.5
140979	7	Sololá	719	Santiago Atitlán	14	Cerro de Oro	4	Abril	2023-03-04T00:00:00	2024-11-08T13:00:00	3	Temperatura mínima	22.4
140980	7	Sololá	719	Santiago Atitlán	14	Cerro de Oro	4	Abril	2023-03-04T00:00:00	2024-11-08T13:00:00	5	Humedad	66
140981	7	Sololá	719	Santiago Atitlán	14	Cerro de Oro	4	Abril	2023-03-04T00:00:00	2024-11-08T13:00:00	6	Velocidad del viento	11.3
140982	7	Sololá	719	Santiago Atitlán	14	Cerro de Oro	4	Abril	2023-03-04T00:00:00	2024-11-08T13:00:00	7	Dirección del viento	11.27
140983	7	Sololá	719	Santiago Atitlán	14	Cerro de Oro	4	Abril	2023-03-04T00:00:00	2024-11-08T13:00:00	1	Precipitación	0
140984	7	Sololá	719	Santiago Atitlán	14	Cerro de Oro	4	Abril	2023-03-04T00:00:00	2024-11-08T13:00:00	8	Radiación solar	955
140985	7	Sololá	719	Santiago Atitlán	14	Cerro de Oro	4	Abril	2023-03-04T00:00:00	2024-11-08T14:00:00	2	Temperatura media	22.6
140986	7	Sololá	719	Santiago Atitlán	14	Cerro de Oro	4	Abril	2023-03-04T00:00:00	2024-11-08T14:00:00	4	Temperatura máxima	23.2
140987	7	Sololá	719	Santiago Atitlán	14	Cerro de Oro	4	Abril	2023-03-04T00:00:00	2024-11-08T14:00:00	3	Temperatura mínima	22.6
140988	7	Sololá	719	Santiago Atitlán	14	Cerro de Oro	4	Abril	2023-03-04T00:00:00	2024-11-08T14:00:00	5	Humedad	67
140989	7	Sololá	719	Santiago Atitlán	14	Cerro de Oro	4	Abril	2023-03-04T00:00:00	2024-11-08T14:00:00	6	Velocidad del viento	14.5
140990	7	Sololá	719	Santiago Atitlán	14	Cerro de Oro	4	Abril	2023-03-04T00:00:00	2024-11-08T14:00:00	7	Dirección del viento	14.48
140991	7	Sololá	719	Santiago Atitlán	14	Cerro de Oro	4	Abril	2023-03-04T00:00:00	2024-11-08T14:00:00	1	Precipitación	0
140992	7	Sololá	719	Santiago Atitlán	14	Cerro de Oro	4	Abril	2023-03-04T00:00:00	2024-11-08T14:00:00	8	Radiación solar	811
140993	7	Sololá	719	Santiago Atitlán	14	Cerro de Oro	4	Abril	2023-03-04T00:00:00	2024-11-08T15:00:00	2	Temperatura media	22.7
140994	7	Sololá	719	Santiago Atitlán	14	Cerro de Oro	4	Abril	2023-03-04T00:00:00	2024-11-08T15:00:00	4	Temperatura máxima	22.7
140995	7	Sololá	719	Santiago Atitlán	14	Cerro de Oro	4	Abril	2023-03-04T00:00:00	2024-11-08T15:00:00	3	Temperatura mínima	22.3
140996	7	Sololá	719	Santiago Atitlán	14	Cerro de Oro	4	Abril	2023-03-04T00:00:00	2024-11-08T15:00:00	5	Humedad	67
140997	7	Sololá	719	Santiago Atitlán	14	Cerro de Oro	4	Abril	2023-03-04T00:00:00	2024-11-08T15:00:00	6	Velocidad del viento	14.5
140998	7	Sololá	719	Santiago Atitlán	14	Cerro de Oro	4	Abril	2023-03-04T00:00:00	2024-11-08T15:00:00	7	Dirección del viento	14.48
140999	7	Sololá	719	Santiago Atitlán	14	Cerro de Oro	4	Abril	2023-03-04T00:00:00	2024-11-08T15:00:00	1	Precipitación	0
141000	7	Sololá	719	Santiago Atitlán	14	Cerro de Oro	4	Abril	2023-03-04T00:00:00	2024-11-08T15:00:00	8	Radiación solar	416
141001	7	Sololá	719	Santiago Atitlán	14	Cerro de Oro	4	Abril	2023-03-04T00:00:00	2024-11-08T16:00:00	2	Temperatura media	21.6
141002	7	Sololá	719	Santiago Atitlán	14	Cerro de Oro	4	Abril	2023-03-04T00:00:00	2024-11-08T16:00:00	4	Temperatura máxima	22.7
141003	7	Sololá	719	Santiago Atitlán	14	Cerro de Oro	4	Abril	2023-03-04T00:00:00	2024-11-08T16:00:00	3	Temperatura mínima	21.6
141004	7	Sololá	719	Santiago Atitlán	14	Cerro de Oro	4	Abril	2023-03-04T00:00:00	2024-11-08T16:00:00	5	Humedad	71
141005	7	Sololá	719	Santiago Atitlán	14	Cerro de Oro	4	Abril	2023-03-04T00:00:00	2024-11-08T16:00:00	6	Velocidad del viento	12.9
141006	7	Sololá	719	Santiago Atitlán	14	Cerro de Oro	4	Abril	2023-03-04T00:00:00	2024-11-08T16:00:00	7	Dirección del viento	12.87
141007	7	Sololá	719	Santiago Atitlán	14	Cerro de Oro	4	Abril	2023-03-04T00:00:00	2024-11-08T16:00:00	1	Precipitación	0
141008	7	Sololá	719	Santiago Atitlán	14	Cerro de Oro	4	Abril	2023-03-04T00:00:00	2024-11-08T16:00:00	8	Radiación solar	215
141009	7	Sololá	719	Santiago Atitlán	14	Cerro de Oro	4	Abril	2023-03-04T00:00:00	2024-11-08T17:00:00	2	Temperatura media	20.7
141010	7	Sololá	719	Santiago Atitlán	14	Cerro de Oro	4	Abril	2023-03-04T00:00:00	2024-11-08T17:00:00	4	Temperatura máxima	21.7
141011	7	Sololá	719	Santiago Atitlán	14	Cerro de Oro	4	Abril	2023-03-04T00:00:00	2024-11-08T17:00:00	3	Temperatura mínima	20.7
141012	7	Sololá	719	Santiago Atitlán	14	Cerro de Oro	4	Abril	2023-03-04T00:00:00	2024-11-08T17:00:00	5	Humedad	77
141013	7	Sololá	719	Santiago Atitlán	14	Cerro de Oro	4	Abril	2023-03-04T00:00:00	2024-11-08T17:00:00	6	Velocidad del viento	11.3
141014	7	Sololá	719	Santiago Atitlán	14	Cerro de Oro	4	Abril	2023-03-04T00:00:00	2024-11-08T17:00:00	7	Dirección del viento	11.27
141015	7	Sololá	719	Santiago Atitlán	14	Cerro de Oro	4	Abril	2023-03-04T00:00:00	2024-11-08T17:00:00	1	Precipitación	0
141016	7	Sololá	719	Santiago Atitlán	14	Cerro de Oro	4	Abril	2023-03-04T00:00:00	2024-11-08T17:00:00	8	Radiación solar	109
141017	7	Sololá	719	Santiago Atitlán	14	Cerro de Oro	4	Abril	2023-03-04T00:00:00	2024-11-08T18:00:00	2	Temperatura media	20.6
141018	7	Sololá	719	Santiago Atitlán	14	Cerro de Oro	4	Abril	2023-03-04T00:00:00	2024-11-08T18:00:00	4	Temperatura máxima	20.9
141019	7	Sololá	719	Santiago Atitlán	14	Cerro de Oro	4	Abril	2023-03-04T00:00:00	2024-11-08T18:00:00	3	Temperatura mínima	20.6
141020	7	Sololá	719	Santiago Atitlán	14	Cerro de Oro	4	Abril	2023-03-04T00:00:00	2024-11-08T18:00:00	5	Humedad	78
141021	7	Sololá	719	Santiago Atitlán	14	Cerro de Oro	4	Abril	2023-03-04T00:00:00	2024-11-08T18:00:00	6	Velocidad del viento	6.4
141022	7	Sololá	719	Santiago Atitlán	14	Cerro de Oro	4	Abril	2023-03-04T00:00:00	2024-11-08T18:00:00	7	Dirección del viento	6.44
141023	7	Sololá	719	Santiago Atitlán	14	Cerro de Oro	4	Abril	2023-03-04T00:00:00	2024-11-08T18:00:00	1	Precipitación	0
141024	7	Sololá	719	Santiago Atitlán	14	Cerro de Oro	4	Abril	2023-03-04T00:00:00	2024-11-08T18:00:00	8	Radiación solar	48
141025	7	Sololá	719	Santiago Atitlán	14	Cerro de Oro	4	Abril	2023-03-04T00:00:00	2024-11-08T19:00:00	2	Temperatura media	19.2
141026	7	Sololá	719	Santiago Atitlán	14	Cerro de Oro	4	Abril	2023-03-04T00:00:00	2024-11-08T19:00:00	4	Temperatura máxima	20.7
141027	7	Sololá	719	Santiago Atitlán	14	Cerro de Oro	4	Abril	2023-03-04T00:00:00	2024-11-08T19:00:00	3	Temperatura mínima	19.2
141028	7	Sololá	719	Santiago Atitlán	14	Cerro de Oro	4	Abril	2023-03-04T00:00:00	2024-11-08T19:00:00	5	Humedad	84
141029	7	Sololá	719	Santiago Atitlán	14	Cerro de Oro	4	Abril	2023-03-04T00:00:00	2024-11-08T19:00:00	6	Velocidad del viento	9.7
141030	7	Sololá	719	Santiago Atitlán	14	Cerro de Oro	4	Abril	2023-03-04T00:00:00	2024-11-08T19:00:00	7	Dirección del viento	9.66
141031	7	Sololá	719	Santiago Atitlán	14	Cerro de Oro	4	Abril	2023-03-04T00:00:00	2024-11-08T19:00:00	1	Precipitación	0
141032	7	Sololá	719	Santiago Atitlán	14	Cerro de Oro	4	Abril	2023-03-04T00:00:00	2024-11-08T19:00:00	8	Radiación solar	0
141033	7	Sololá	719	Santiago Atitlán	14	Cerro de Oro	4	Abril	2023-03-04T00:00:00	2024-11-08T20:00:00	2	Temperatura media	18.4
141034	7	Sololá	719	Santiago Atitlán	14	Cerro de Oro	4	Abril	2023-03-04T00:00:00	2024-11-08T20:00:00	4	Temperatura máxima	19.3
141035	7	Sololá	719	Santiago Atitlán	14	Cerro de Oro	4	Abril	2023-03-04T00:00:00	2024-11-08T20:00:00	3	Temperatura mínima	18.4
141036	7	Sololá	719	Santiago Atitlán	14	Cerro de Oro	4	Abril	2023-03-04T00:00:00	2024-11-08T20:00:00	5	Humedad	86
141037	7	Sololá	719	Santiago Atitlán	14	Cerro de Oro	4	Abril	2023-03-04T00:00:00	2024-11-08T20:00:00	6	Velocidad del viento	8
141038	7	Sololá	719	Santiago Atitlán	14	Cerro de Oro	4	Abril	2023-03-04T00:00:00	2024-11-08T20:00:00	7	Dirección del viento	8.05
141039	7	Sololá	719	Santiago Atitlán	14	Cerro de Oro	4	Abril	2023-03-04T00:00:00	2024-11-08T20:00:00	1	Precipitación	0
141040	7	Sololá	719	Santiago Atitlán	14	Cerro de Oro	4	Abril	2023-03-04T00:00:00	2024-11-08T20:00:00	8	Radiación solar	0
141041	7	Sololá	719	Santiago Atitlán	14	Cerro de Oro	4	Abril	2023-03-04T00:00:00	2024-11-08T21:00:00	2	Temperatura media	18
141042	7	Sololá	719	Santiago Atitlán	14	Cerro de Oro	4	Abril	2023-03-04T00:00:00	2024-11-08T21:00:00	4	Temperatura máxima	18.4
141043	7	Sololá	719	Santiago Atitlán	14	Cerro de Oro	4	Abril	2023-03-04T00:00:00	2024-11-08T21:00:00	3	Temperatura mínima	17.7
141044	7	Sololá	719	Santiago Atitlán	14	Cerro de Oro	4	Abril	2023-03-04T00:00:00	2024-11-08T21:00:00	5	Humedad	84
141045	7	Sololá	719	Santiago Atitlán	14	Cerro de Oro	4	Abril	2023-03-04T00:00:00	2024-11-08T21:00:00	6	Velocidad del viento	4.8
141046	7	Sololá	719	Santiago Atitlán	14	Cerro de Oro	4	Abril	2023-03-04T00:00:00	2024-11-08T21:00:00	7	Dirección del viento	4.83
141047	7	Sololá	719	Santiago Atitlán	14	Cerro de Oro	4	Abril	2023-03-04T00:00:00	2024-11-08T21:00:00	1	Precipitación	0
141048	7	Sololá	719	Santiago Atitlán	14	Cerro de Oro	4	Abril	2023-03-04T00:00:00	2024-11-08T21:00:00	8	Radiación solar	0
141049	7	Sololá	719	Santiago Atitlán	14	Cerro de Oro	4	Abril	2023-03-04T00:00:00	2024-11-08T22:00:00	2	Temperatura media	17.6
141050	7	Sololá	719	Santiago Atitlán	14	Cerro de Oro	4	Abril	2023-03-04T00:00:00	2024-11-08T22:00:00	4	Temperatura máxima	18
141051	7	Sololá	719	Santiago Atitlán	14	Cerro de Oro	4	Abril	2023-03-04T00:00:00	2024-11-08T22:00:00	3	Temperatura mínima	17.5
141052	7	Sololá	719	Santiago Atitlán	14	Cerro de Oro	4	Abril	2023-03-04T00:00:00	2024-11-08T22:00:00	5	Humedad	88
141053	7	Sololá	719	Santiago Atitlán	14	Cerro de Oro	4	Abril	2023-03-04T00:00:00	2024-11-08T22:00:00	6	Velocidad del viento	3.2
141054	7	Sololá	719	Santiago Atitlán	14	Cerro de Oro	4	Abril	2023-03-04T00:00:00	2024-11-08T22:00:00	7	Dirección del viento	3.22
141055	7	Sololá	719	Santiago Atitlán	14	Cerro de Oro	4	Abril	2023-03-04T00:00:00	2024-11-08T22:00:00	1	Precipitación	0
141056	7	Sololá	719	Santiago Atitlán	14	Cerro de Oro	4	Abril	2023-03-04T00:00:00	2024-11-08T22:00:00	8	Radiación solar	0
141057	7	Sololá	719	Santiago Atitlán	14	Cerro de Oro	4	Abril	2023-03-04T00:00:00	2024-11-08T23:00:00	2	Temperatura media	17.8
141058	7	Sololá	719	Santiago Atitlán	14	Cerro de Oro	4	Abril	2023-03-04T00:00:00	2024-11-08T23:00:00	4	Temperatura máxima	18.1
141059	7	Sololá	719	Santiago Atitlán	14	Cerro de Oro	4	Abril	2023-03-04T00:00:00	2024-11-08T23:00:00	3	Temperatura mínima	17.6
141060	7	Sololá	719	Santiago Atitlán	14	Cerro de Oro	4	Abril	2023-03-04T00:00:00	2024-11-08T23:00:00	5	Humedad	87
141061	7	Sololá	719	Santiago Atitlán	14	Cerro de Oro	4	Abril	2023-03-04T00:00:00	2024-11-08T23:00:00	6	Velocidad del viento	4.8
141062	7	Sololá	719	Santiago Atitlán	14	Cerro de Oro	4	Abril	2023-03-04T00:00:00	2024-11-08T23:00:00	7	Dirección del viento	4.83
141063	7	Sololá	719	Santiago Atitlán	14	Cerro de Oro	4	Abril	2023-03-04T00:00:00	2024-11-08T23:00:00	1	Precipitación	0
141064	7	Sololá	719	Santiago Atitlán	14	Cerro de Oro	4	Abril	2023-03-04T00:00:00	2024-11-08T23:00:00	8	Radiación solar	0
141065	7	Sololá	719	Santiago Atitlán	14	Cerro de Oro	4	Abril	2023-04-04T00:00:00	2024-11-08T00:00:00	2	Temperatura media	17.2
141066	7	Sololá	719	Santiago Atitlán	14	Cerro de Oro	4	Abril	2023-04-04T00:00:00	2024-11-08T00:00:00	4	Temperatura máxima	17.9
141067	7	Sololá	719	Santiago Atitlán	14	Cerro de Oro	4	Abril	2023-04-04T00:00:00	2024-11-08T00:00:00	3	Temperatura mínima	17.2
141068	7	Sololá	719	Santiago Atitlán	14	Cerro de Oro	4	Abril	2023-04-04T00:00:00	2024-11-08T00:00:00	5	Humedad	86
141069	7	Sololá	719	Santiago Atitlán	14	Cerro de Oro	4	Abril	2023-04-04T00:00:00	2024-11-08T00:00:00	6	Velocidad del viento	3.2
141070	7	Sololá	719	Santiago Atitlán	14	Cerro de Oro	4	Abril	2023-04-04T00:00:00	2024-11-08T00:00:00	7	Dirección del viento	3.22
141071	7	Sololá	719	Santiago Atitlán	14	Cerro de Oro	4	Abril	2023-04-04T00:00:00	2024-11-08T00:00:00	1	Precipitación	0
141072	7	Sololá	719	Santiago Atitlán	14	Cerro de Oro	4	Abril	2023-04-04T00:00:00	2024-11-08T00:00:00	8	Radiación solar	0
141073	7	Sololá	719	Santiago Atitlán	14	Cerro de Oro	4	Abril	2023-04-04T00:00:00	2024-11-08T01:00:00	2	Temperatura media	17.6
141074	7	Sololá	719	Santiago Atitlán	14	Cerro de Oro	4	Abril	2023-04-04T00:00:00	2024-11-08T01:00:00	4	Temperatura máxima	17.6
141075	7	Sololá	719	Santiago Atitlán	14	Cerro de Oro	4	Abril	2023-04-04T00:00:00	2024-11-08T01:00:00	3	Temperatura mínima	17.1
141076	7	Sololá	719	Santiago Atitlán	14	Cerro de Oro	4	Abril	2023-04-04T00:00:00	2024-11-08T01:00:00	5	Humedad	77
141077	7	Sololá	719	Santiago Atitlán	14	Cerro de Oro	4	Abril	2023-04-04T00:00:00	2024-11-08T01:00:00	6	Velocidad del viento	4.8
141078	7	Sololá	719	Santiago Atitlán	14	Cerro de Oro	4	Abril	2023-04-04T00:00:00	2024-11-08T01:00:00	7	Dirección del viento	4.83
141079	7	Sololá	719	Santiago Atitlán	14	Cerro de Oro	4	Abril	2023-04-04T00:00:00	2024-11-08T01:00:00	1	Precipitación	0
141080	7	Sololá	719	Santiago Atitlán	14	Cerro de Oro	4	Abril	2023-04-04T00:00:00	2024-11-08T01:00:00	8	Radiación solar	0
141081	7	Sololá	719	Santiago Atitlán	14	Cerro de Oro	4	Abril	2023-04-04T00:00:00	2024-11-08T02:00:00	2	Temperatura media	17
141082	7	Sololá	719	Santiago Atitlán	14	Cerro de Oro	4	Abril	2023-04-04T00:00:00	2024-11-08T02:00:00	4	Temperatura máxima	17.6
141083	7	Sololá	719	Santiago Atitlán	14	Cerro de Oro	4	Abril	2023-04-04T00:00:00	2024-11-08T02:00:00	3	Temperatura mínima	16.7
141084	7	Sololá	719	Santiago Atitlán	14	Cerro de Oro	4	Abril	2023-04-04T00:00:00	2024-11-08T02:00:00	5	Humedad	75
141085	7	Sololá	719	Santiago Atitlán	14	Cerro de Oro	4	Abril	2023-04-04T00:00:00	2024-11-08T02:00:00	6	Velocidad del viento	3.2
141086	7	Sololá	719	Santiago Atitlán	14	Cerro de Oro	4	Abril	2023-04-04T00:00:00	2024-11-08T02:00:00	7	Dirección del viento	3.22
141087	7	Sololá	719	Santiago Atitlán	14	Cerro de Oro	4	Abril	2023-04-04T00:00:00	2024-11-08T02:00:00	1	Precipitación	0
141088	7	Sololá	719	Santiago Atitlán	14	Cerro de Oro	4	Abril	2023-04-04T00:00:00	2024-11-08T02:00:00	8	Radiación solar	0
141089	7	Sololá	719	Santiago Atitlán	14	Cerro de Oro	4	Abril	2023-04-04T00:00:00	2024-11-08T03:00:00	2	Temperatura media	16.8
141090	7	Sololá	719	Santiago Atitlán	14	Cerro de Oro	4	Abril	2023-04-04T00:00:00	2024-11-08T03:00:00	4	Temperatura máxima	17.4
141091	7	Sololá	719	Santiago Atitlán	14	Cerro de Oro	4	Abril	2023-04-04T00:00:00	2024-11-08T03:00:00	3	Temperatura mínima	16.8
141092	7	Sololá	719	Santiago Atitlán	14	Cerro de Oro	4	Abril	2023-04-04T00:00:00	2024-11-08T03:00:00	5	Humedad	73
141093	7	Sololá	719	Santiago Atitlán	14	Cerro de Oro	4	Abril	2023-04-04T00:00:00	2024-11-08T03:00:00	6	Velocidad del viento	4.8
141094	7	Sololá	719	Santiago Atitlán	14	Cerro de Oro	4	Abril	2023-04-04T00:00:00	2024-11-08T03:00:00	7	Dirección del viento	4.83
141095	7	Sololá	719	Santiago Atitlán	14	Cerro de Oro	4	Abril	2023-04-04T00:00:00	2024-11-08T03:00:00	1	Precipitación	0
141096	7	Sololá	719	Santiago Atitlán	14	Cerro de Oro	4	Abril	2023-04-04T00:00:00	2024-11-08T03:00:00	8	Radiación solar	0
141097	7	Sololá	719	Santiago Atitlán	14	Cerro de Oro	4	Abril	2023-04-04T00:00:00	2024-11-08T04:00:00	2	Temperatura media	16.7
141098	7	Sololá	719	Santiago Atitlán	14	Cerro de Oro	4	Abril	2023-04-04T00:00:00	2024-11-08T04:00:00	4	Temperatura máxima	17.1
141099	7	Sololá	719	Santiago Atitlán	14	Cerro de Oro	4	Abril	2023-04-04T00:00:00	2024-11-08T04:00:00	3	Temperatura mínima	16.7
141100	7	Sololá	719	Santiago Atitlán	14	Cerro de Oro	4	Abril	2023-04-04T00:00:00	2024-11-08T04:00:00	5	Humedad	72
141101	7	Sololá	719	Santiago Atitlán	14	Cerro de Oro	4	Abril	2023-04-04T00:00:00	2024-11-08T04:00:00	6	Velocidad del viento	4.8
141102	7	Sololá	719	Santiago Atitlán	14	Cerro de Oro	4	Abril	2023-04-04T00:00:00	2024-11-08T04:00:00	7	Dirección del viento	4.83
141103	7	Sololá	719	Santiago Atitlán	14	Cerro de Oro	4	Abril	2023-04-04T00:00:00	2024-11-08T04:00:00	1	Precipitación	0
141104	7	Sololá	719	Santiago Atitlán	14	Cerro de Oro	4	Abril	2023-04-04T00:00:00	2024-11-08T04:00:00	8	Radiación solar	0
141105	7	Sololá	719	Santiago Atitlán	14	Cerro de Oro	4	Abril	2023-04-04T00:00:00	2024-11-08T05:00:00	2	Temperatura media	16.1
141106	7	Sololá	719	Santiago Atitlán	14	Cerro de Oro	4	Abril	2023-04-04T00:00:00	2024-11-08T05:00:00	4	Temperatura máxima	16.7
141107	7	Sololá	719	Santiago Atitlán	14	Cerro de Oro	4	Abril	2023-04-04T00:00:00	2024-11-08T05:00:00	3	Temperatura mínima	16
141108	7	Sololá	719	Santiago Atitlán	14	Cerro de Oro	4	Abril	2023-04-04T00:00:00	2024-11-08T05:00:00	5	Humedad	74
141109	7	Sololá	719	Santiago Atitlán	14	Cerro de Oro	4	Abril	2023-04-04T00:00:00	2024-11-08T05:00:00	6	Velocidad del viento	3.2
141110	7	Sololá	719	Santiago Atitlán	14	Cerro de Oro	4	Abril	2023-04-04T00:00:00	2024-11-08T05:00:00	7	Dirección del viento	3.22
141111	7	Sololá	719	Santiago Atitlán	14	Cerro de Oro	4	Abril	2023-04-04T00:00:00	2024-11-08T05:00:00	1	Precipitación	0
141112	7	Sololá	719	Santiago Atitlán	14	Cerro de Oro	4	Abril	2023-04-04T00:00:00	2024-11-08T05:00:00	8	Radiación solar	0
141113	7	Sololá	719	Santiago Atitlán	14	Cerro de Oro	4	Abril	2023-04-04T00:00:00	2024-11-08T06:00:00	2	Temperatura media	15.7
141114	7	Sololá	719	Santiago Atitlán	14	Cerro de Oro	4	Abril	2023-04-04T00:00:00	2024-11-08T06:00:00	4	Temperatura máxima	16.4
141115	7	Sololá	719	Santiago Atitlán	14	Cerro de Oro	4	Abril	2023-04-04T00:00:00	2024-11-08T06:00:00	3	Temperatura mínima	15.7
141116	7	Sololá	719	Santiago Atitlán	14	Cerro de Oro	4	Abril	2023-04-04T00:00:00	2024-11-08T06:00:00	5	Humedad	75
141117	7	Sololá	719	Santiago Atitlán	14	Cerro de Oro	4	Abril	2023-04-04T00:00:00	2024-11-08T06:00:00	6	Velocidad del viento	3.2
141118	7	Sololá	719	Santiago Atitlán	14	Cerro de Oro	4	Abril	2023-04-04T00:00:00	2024-11-08T06:00:00	7	Dirección del viento	3.22
141119	7	Sololá	719	Santiago Atitlán	14	Cerro de Oro	4	Abril	2023-04-04T00:00:00	2024-11-08T06:00:00	1	Precipitación	0
141120	7	Sololá	719	Santiago Atitlán	14	Cerro de Oro	4	Abril	2023-04-04T00:00:00	2024-11-08T06:00:00	8	Radiación solar	0
141121	7	Sololá	719	Santiago Atitlán	14	Cerro de Oro	4	Abril	2023-04-04T00:00:00	2024-11-08T07:00:00	2	Temperatura media	15.4
141122	7	Sololá	719	Santiago Atitlán	14	Cerro de Oro	4	Abril	2023-04-04T00:00:00	2024-11-08T07:00:00	4	Temperatura máxima	15.7
141123	7	Sololá	719	Santiago Atitlán	14	Cerro de Oro	4	Abril	2023-04-04T00:00:00	2024-11-08T07:00:00	3	Temperatura mínima	15.3
141124	7	Sololá	719	Santiago Atitlán	14	Cerro de Oro	4	Abril	2023-04-04T00:00:00	2024-11-08T07:00:00	5	Humedad	73
141125	7	Sololá	719	Santiago Atitlán	14	Cerro de Oro	4	Abril	2023-04-04T00:00:00	2024-11-08T07:00:00	6	Velocidad del viento	3.2
141126	7	Sololá	719	Santiago Atitlán	14	Cerro de Oro	4	Abril	2023-04-04T00:00:00	2024-11-08T07:00:00	7	Dirección del viento	3.22
141127	7	Sololá	719	Santiago Atitlán	14	Cerro de Oro	4	Abril	2023-04-04T00:00:00	2024-11-08T07:00:00	1	Precipitación	0
141128	7	Sololá	719	Santiago Atitlán	14	Cerro de Oro	4	Abril	2023-04-04T00:00:00	2024-11-08T07:00:00	8	Radiación solar	44
141129	7	Sololá	719	Santiago Atitlán	14	Cerro de Oro	4	Abril	2023-04-04T00:00:00	2024-11-08T08:00:00	2	Temperatura media	16.5
141130	7	Sololá	719	Santiago Atitlán	14	Cerro de Oro	4	Abril	2023-04-04T00:00:00	2024-11-08T08:00:00	4	Temperatura máxima	16.5
141131	7	Sololá	719	Santiago Atitlán	14	Cerro de Oro	4	Abril	2023-04-04T00:00:00	2024-11-08T08:00:00	3	Temperatura mínima	15.3
141132	7	Sololá	719	Santiago Atitlán	14	Cerro de Oro	4	Abril	2023-04-04T00:00:00	2024-11-08T08:00:00	5	Humedad	72
141133	7	Sololá	719	Santiago Atitlán	14	Cerro de Oro	4	Abril	2023-04-04T00:00:00	2024-11-08T08:00:00	6	Velocidad del viento	3.2
141134	7	Sololá	719	Santiago Atitlán	14	Cerro de Oro	4	Abril	2023-04-04T00:00:00	2024-11-08T08:00:00	7	Dirección del viento	3.22
141135	7	Sololá	719	Santiago Atitlán	14	Cerro de Oro	4	Abril	2023-04-04T00:00:00	2024-11-08T08:00:00	1	Precipitación	0
141136	7	Sololá	719	Santiago Atitlán	14	Cerro de Oro	4	Abril	2023-04-04T00:00:00	2024-11-08T08:00:00	8	Radiación solar	245
141137	7	Sololá	719	Santiago Atitlán	14	Cerro de Oro	4	Abril	2023-04-04T00:00:00	2024-11-08T09:00:00	2	Temperatura media	18.7
141138	7	Sololá	719	Santiago Atitlán	14	Cerro de Oro	4	Abril	2023-04-04T00:00:00	2024-11-08T09:00:00	4	Temperatura máxima	18.7
141139	7	Sololá	719	Santiago Atitlán	14	Cerro de Oro	4	Abril	2023-04-04T00:00:00	2024-11-08T09:00:00	3	Temperatura mínima	16.5
141140	7	Sololá	719	Santiago Atitlán	14	Cerro de Oro	4	Abril	2023-04-04T00:00:00	2024-11-08T09:00:00	5	Humedad	69
141141	7	Sololá	719	Santiago Atitlán	14	Cerro de Oro	4	Abril	2023-04-04T00:00:00	2024-11-08T09:00:00	6	Velocidad del viento	3.2
141142	7	Sololá	719	Santiago Atitlán	14	Cerro de Oro	4	Abril	2023-04-04T00:00:00	2024-11-08T09:00:00	7	Dirección del viento	3.22
141143	7	Sololá	719	Santiago Atitlán	14	Cerro de Oro	4	Abril	2023-04-04T00:00:00	2024-11-08T09:00:00	1	Precipitación	0
141144	7	Sololá	719	Santiago Atitlán	14	Cerro de Oro	4	Abril	2023-04-04T00:00:00	2024-11-08T09:00:00	8	Radiación solar	401
141145	7	Sololá	719	Santiago Atitlán	14	Cerro de Oro	4	Abril	2023-04-04T00:00:00	2024-11-08T10:00:00	2	Temperatura media	19.8
141146	7	Sololá	719	Santiago Atitlán	14	Cerro de Oro	4	Abril	2023-04-04T00:00:00	2024-11-08T10:00:00	4	Temperatura máxima	19.8
141147	7	Sololá	719	Santiago Atitlán	14	Cerro de Oro	4	Abril	2023-04-04T00:00:00	2024-11-08T10:00:00	3	Temperatura mínima	18.7
141148	7	Sololá	719	Santiago Atitlán	14	Cerro de Oro	4	Abril	2023-04-04T00:00:00	2024-11-08T10:00:00	5	Humedad	72
141149	7	Sololá	719	Santiago Atitlán	14	Cerro de Oro	4	Abril	2023-04-04T00:00:00	2024-11-08T10:00:00	6	Velocidad del viento	4.8
141150	7	Sololá	719	Santiago Atitlán	14	Cerro de Oro	4	Abril	2023-04-04T00:00:00	2024-11-08T10:00:00	7	Dirección del viento	4.83
141151	7	Sololá	719	Santiago Atitlán	14	Cerro de Oro	4	Abril	2023-04-04T00:00:00	2024-11-08T10:00:00	1	Precipitación	0
141152	7	Sololá	719	Santiago Atitlán	14	Cerro de Oro	4	Abril	2023-04-04T00:00:00	2024-11-08T10:00:00	8	Radiación solar	566
141153	7	Sololá	719	Santiago Atitlán	14	Cerro de Oro	4	Abril	2023-04-04T00:00:00	2024-11-08T11:00:00	2	Temperatura media	21.3
141154	7	Sololá	719	Santiago Atitlán	14	Cerro de Oro	4	Abril	2023-04-04T00:00:00	2024-11-08T11:00:00	4	Temperatura máxima	21.4
141155	7	Sololá	719	Santiago Atitlán	14	Cerro de Oro	4	Abril	2023-04-04T00:00:00	2024-11-08T11:00:00	3	Temperatura mínima	19.8
141156	7	Sololá	719	Santiago Atitlán	14	Cerro de Oro	4	Abril	2023-04-04T00:00:00	2024-11-08T11:00:00	5	Humedad	62
141157	7	Sololá	719	Santiago Atitlán	14	Cerro de Oro	4	Abril	2023-04-04T00:00:00	2024-11-08T11:00:00	6	Velocidad del viento	8
141158	7	Sololá	719	Santiago Atitlán	14	Cerro de Oro	4	Abril	2023-04-04T00:00:00	2024-11-08T11:00:00	7	Dirección del viento	8.05
141159	7	Sololá	719	Santiago Atitlán	14	Cerro de Oro	4	Abril	2023-04-04T00:00:00	2024-11-08T11:00:00	1	Precipitación	0
141160	7	Sololá	719	Santiago Atitlán	14	Cerro de Oro	4	Abril	2023-04-04T00:00:00	2024-11-08T11:00:00	8	Radiación solar	809
141161	7	Sololá	719	Santiago Atitlán	14	Cerro de Oro	4	Abril	2023-04-04T00:00:00	2024-11-08T12:00:00	2	Temperatura media	22.9
141162	7	Sololá	719	Santiago Atitlán	14	Cerro de Oro	4	Abril	2023-04-04T00:00:00	2024-11-08T12:00:00	4	Temperatura máxima	22.9
141163	7	Sololá	719	Santiago Atitlán	14	Cerro de Oro	4	Abril	2023-04-04T00:00:00	2024-11-08T12:00:00	3	Temperatura mínima	21.3
141164	7	Sololá	719	Santiago Atitlán	14	Cerro de Oro	4	Abril	2023-04-04T00:00:00	2024-11-08T12:00:00	5	Humedad	60
141165	7	Sololá	719	Santiago Atitlán	14	Cerro de Oro	4	Abril	2023-04-04T00:00:00	2024-11-08T12:00:00	6	Velocidad del viento	8
141166	7	Sololá	719	Santiago Atitlán	14	Cerro de Oro	4	Abril	2023-04-04T00:00:00	2024-11-08T12:00:00	7	Dirección del viento	8.05
141167	7	Sololá	719	Santiago Atitlán	14	Cerro de Oro	4	Abril	2023-04-04T00:00:00	2024-11-08T12:00:00	1	Precipitación	0
141168	7	Sololá	719	Santiago Atitlán	14	Cerro de Oro	4	Abril	2023-04-04T00:00:00	2024-11-08T12:00:00	8	Radiación solar	706
141169	7	Sololá	719	Santiago Atitlán	14	Cerro de Oro	4	Abril	2023-04-04T00:00:00	2024-11-08T13:00:00	2	Temperatura media	22.9
141170	7	Sololá	719	Santiago Atitlán	14	Cerro de Oro	4	Abril	2023-04-04T00:00:00	2024-11-08T13:00:00	4	Temperatura máxima	22.9
141171	7	Sololá	719	Santiago Atitlán	14	Cerro de Oro	4	Abril	2023-04-04T00:00:00	2024-11-08T13:00:00	3	Temperatura mínima	21.7
141172	7	Sololá	719	Santiago Atitlán	14	Cerro de Oro	4	Abril	2023-04-04T00:00:00	2024-11-08T13:00:00	5	Humedad	64
141173	7	Sololá	719	Santiago Atitlán	14	Cerro de Oro	4	Abril	2023-04-04T00:00:00	2024-11-08T13:00:00	6	Velocidad del viento	6.4
141174	7	Sololá	719	Santiago Atitlán	14	Cerro de Oro	4	Abril	2023-04-04T00:00:00	2024-11-08T13:00:00	7	Dirección del viento	6.44
141175	7	Sololá	719	Santiago Atitlán	14	Cerro de Oro	4	Abril	2023-04-04T00:00:00	2024-11-08T13:00:00	1	Precipitación	0
141176	7	Sololá	719	Santiago Atitlán	14	Cerro de Oro	4	Abril	2023-04-04T00:00:00	2024-11-08T13:00:00	8	Radiación solar	775
141177	7	Sololá	719	Santiago Atitlán	14	Cerro de Oro	4	Abril	2023-04-04T00:00:00	2024-11-08T14:00:00	2	Temperatura media	22.6
141178	7	Sololá	719	Santiago Atitlán	14	Cerro de Oro	4	Abril	2023-04-04T00:00:00	2024-11-08T14:00:00	4	Temperatura máxima	23.3
141179	7	Sololá	719	Santiago Atitlán	14	Cerro de Oro	4	Abril	2023-04-04T00:00:00	2024-11-08T14:00:00	3	Temperatura mínima	22.5
141180	7	Sololá	719	Santiago Atitlán	14	Cerro de Oro	4	Abril	2023-04-04T00:00:00	2024-11-08T14:00:00	5	Humedad	66
141181	7	Sololá	719	Santiago Atitlán	14	Cerro de Oro	4	Abril	2023-04-04T00:00:00	2024-11-08T14:00:00	6	Velocidad del viento	12.9
141182	7	Sololá	719	Santiago Atitlán	14	Cerro de Oro	4	Abril	2023-04-04T00:00:00	2024-11-08T14:00:00	7	Dirección del viento	12.87
141183	7	Sololá	719	Santiago Atitlán	14	Cerro de Oro	4	Abril	2023-04-04T00:00:00	2024-11-08T14:00:00	1	Precipitación	0
141184	7	Sololá	719	Santiago Atitlán	14	Cerro de Oro	4	Abril	2023-04-04T00:00:00	2024-11-08T14:00:00	8	Radiación solar	877
141185	7	Sololá	719	Santiago Atitlán	14	Cerro de Oro	4	Abril	2023-04-04T00:00:00	2024-11-08T15:00:00	2	Temperatura media	22.5
141186	7	Sololá	719	Santiago Atitlán	14	Cerro de Oro	4	Abril	2023-04-04T00:00:00	2024-11-08T15:00:00	4	Temperatura máxima	23.7
141187	7	Sololá	719	Santiago Atitlán	14	Cerro de Oro	4	Abril	2023-04-04T00:00:00	2024-11-08T15:00:00	3	Temperatura mínima	22.4
141188	7	Sololá	719	Santiago Atitlán	14	Cerro de Oro	4	Abril	2023-04-04T00:00:00	2024-11-08T15:00:00	5	Humedad	68
141189	7	Sololá	719	Santiago Atitlán	14	Cerro de Oro	4	Abril	2023-04-04T00:00:00	2024-11-08T15:00:00	6	Velocidad del viento	12.9
141190	7	Sololá	719	Santiago Atitlán	14	Cerro de Oro	4	Abril	2023-04-04T00:00:00	2024-11-08T15:00:00	7	Dirección del viento	12.87
141191	7	Sololá	719	Santiago Atitlán	14	Cerro de Oro	4	Abril	2023-04-04T00:00:00	2024-11-08T15:00:00	1	Precipitación	0
141192	7	Sololá	719	Santiago Atitlán	14	Cerro de Oro	4	Abril	2023-04-04T00:00:00	2024-11-08T15:00:00	8	Radiación solar	336
141193	7	Sololá	719	Santiago Atitlán	14	Cerro de Oro	4	Abril	2023-04-04T00:00:00	2024-11-08T16:00:00	2	Temperatura media	21.7
141194	7	Sololá	719	Santiago Atitlán	14	Cerro de Oro	4	Abril	2023-04-04T00:00:00	2024-11-08T16:00:00	4	Temperatura máxima	22.8
141195	7	Sololá	719	Santiago Atitlán	14	Cerro de Oro	4	Abril	2023-04-04T00:00:00	2024-11-08T16:00:00	3	Temperatura mínima	21.7
141196	7	Sololá	719	Santiago Atitlán	14	Cerro de Oro	4	Abril	2023-04-04T00:00:00	2024-11-08T16:00:00	5	Humedad	71
141197	7	Sololá	719	Santiago Atitlán	14	Cerro de Oro	4	Abril	2023-04-04T00:00:00	2024-11-08T16:00:00	6	Velocidad del viento	11.3
141198	7	Sololá	719	Santiago Atitlán	14	Cerro de Oro	4	Abril	2023-04-04T00:00:00	2024-11-08T16:00:00	7	Dirección del viento	11.27
141199	7	Sololá	719	Santiago Atitlán	14	Cerro de Oro	4	Abril	2023-04-04T00:00:00	2024-11-08T16:00:00	1	Precipitación	0
141200	7	Sololá	719	Santiago Atitlán	14	Cerro de Oro	4	Abril	2023-04-04T00:00:00	2024-11-08T16:00:00	8	Radiación solar	177
141201	7	Sololá	719	Santiago Atitlán	14	Cerro de Oro	4	Abril	2023-04-04T00:00:00	2024-11-08T17:00:00	2	Temperatura media	21.4
141202	7	Sololá	719	Santiago Atitlán	14	Cerro de Oro	4	Abril	2023-04-04T00:00:00	2024-11-08T17:00:00	4	Temperatura máxima	21.8
141203	7	Sololá	719	Santiago Atitlán	14	Cerro de Oro	4	Abril	2023-04-04T00:00:00	2024-11-08T17:00:00	3	Temperatura mínima	21.4
141204	7	Sololá	719	Santiago Atitlán	14	Cerro de Oro	4	Abril	2023-04-04T00:00:00	2024-11-08T17:00:00	5	Humedad	72
141205	7	Sololá	719	Santiago Atitlán	14	Cerro de Oro	4	Abril	2023-04-04T00:00:00	2024-11-08T17:00:00	6	Velocidad del viento	9.7
141206	7	Sololá	719	Santiago Atitlán	14	Cerro de Oro	4	Abril	2023-04-04T00:00:00	2024-11-08T17:00:00	7	Dirección del viento	9.66
141207	7	Sololá	719	Santiago Atitlán	14	Cerro de Oro	4	Abril	2023-04-04T00:00:00	2024-11-08T17:00:00	1	Precipitación	0
141208	7	Sololá	719	Santiago Atitlán	14	Cerro de Oro	4	Abril	2023-04-04T00:00:00	2024-11-08T17:00:00	8	Radiación solar	78
141209	7	Sololá	719	Santiago Atitlán	14	Cerro de Oro	4	Abril	2023-04-04T00:00:00	2024-11-08T18:00:00	2	Temperatura media	20.7
141210	7	Sololá	719	Santiago Atitlán	14	Cerro de Oro	4	Abril	2023-04-04T00:00:00	2024-11-08T18:00:00	4	Temperatura máxima	21.4
141211	7	Sololá	719	Santiago Atitlán	14	Cerro de Oro	4	Abril	2023-04-04T00:00:00	2024-11-08T18:00:00	3	Temperatura mínima	20.7
141212	7	Sololá	719	Santiago Atitlán	14	Cerro de Oro	4	Abril	2023-04-04T00:00:00	2024-11-08T18:00:00	5	Humedad	75
141213	7	Sololá	719	Santiago Atitlán	14	Cerro de Oro	4	Abril	2023-04-04T00:00:00	2024-11-08T18:00:00	6	Velocidad del viento	8
141214	7	Sololá	719	Santiago Atitlán	14	Cerro de Oro	4	Abril	2023-04-04T00:00:00	2024-11-08T18:00:00	7	Dirección del viento	8.05
141215	7	Sololá	719	Santiago Atitlán	14	Cerro de Oro	4	Abril	2023-04-04T00:00:00	2024-11-08T18:00:00	1	Precipitación	0
141216	7	Sololá	719	Santiago Atitlán	14	Cerro de Oro	4	Abril	2023-04-04T00:00:00	2024-11-08T18:00:00	8	Radiación solar	33
141217	7	Sololá	719	Santiago Atitlán	14	Cerro de Oro	4	Abril	2023-04-04T00:00:00	2024-11-08T19:00:00	2	Temperatura media	19.9
141218	7	Sololá	719	Santiago Atitlán	14	Cerro de Oro	4	Abril	2023-04-04T00:00:00	2024-11-08T19:00:00	4	Temperatura máxima	20.7
141219	7	Sololá	719	Santiago Atitlán	14	Cerro de Oro	4	Abril	2023-04-04T00:00:00	2024-11-08T19:00:00	3	Temperatura mínima	19.9
141220	7	Sololá	719	Santiago Atitlán	14	Cerro de Oro	4	Abril	2023-04-04T00:00:00	2024-11-08T19:00:00	5	Humedad	78
141221	7	Sololá	719	Santiago Atitlán	14	Cerro de Oro	4	Abril	2023-04-04T00:00:00	2024-11-08T19:00:00	6	Velocidad del viento	8
141222	7	Sololá	719	Santiago Atitlán	14	Cerro de Oro	4	Abril	2023-04-04T00:00:00	2024-11-08T19:00:00	7	Dirección del viento	8.05
141223	7	Sololá	719	Santiago Atitlán	14	Cerro de Oro	4	Abril	2023-04-04T00:00:00	2024-11-08T19:00:00	1	Precipitación	0
141224	7	Sololá	719	Santiago Atitlán	14	Cerro de Oro	4	Abril	2023-04-04T00:00:00	2024-11-08T19:00:00	8	Radiación solar	0
141225	7	Sololá	719	Santiago Atitlán	14	Cerro de Oro	4	Abril	2023-04-04T00:00:00	2024-11-08T20:00:00	2	Temperatura media	19.5
141226	7	Sololá	719	Santiago Atitlán	14	Cerro de Oro	4	Abril	2023-04-04T00:00:00	2024-11-08T20:00:00	4	Temperatura máxima	19.9
141227	7	Sololá	719	Santiago Atitlán	14	Cerro de Oro	4	Abril	2023-04-04T00:00:00	2024-11-08T20:00:00	3	Temperatura mínima	19.5
141228	7	Sololá	719	Santiago Atitlán	14	Cerro de Oro	4	Abril	2023-04-04T00:00:00	2024-11-08T20:00:00	5	Humedad	78
141229	7	Sololá	719	Santiago Atitlán	14	Cerro de Oro	4	Abril	2023-04-04T00:00:00	2024-11-08T20:00:00	6	Velocidad del viento	6.4
141230	7	Sololá	719	Santiago Atitlán	14	Cerro de Oro	4	Abril	2023-04-04T00:00:00	2024-11-08T20:00:00	7	Dirección del viento	6.44
141231	7	Sololá	719	Santiago Atitlán	14	Cerro de Oro	4	Abril	2023-04-04T00:00:00	2024-11-08T20:00:00	1	Precipitación	0
141232	7	Sololá	719	Santiago Atitlán	14	Cerro de Oro	4	Abril	2023-04-04T00:00:00	2024-11-08T20:00:00	8	Radiación solar	0
141233	7	Sololá	719	Santiago Atitlán	14	Cerro de Oro	4	Abril	2023-04-04T00:00:00	2024-11-08T21:00:00	2	Temperatura media	18.8
141234	7	Sololá	719	Santiago Atitlán	14	Cerro de Oro	4	Abril	2023-04-04T00:00:00	2024-11-08T21:00:00	4	Temperatura máxima	19.6
141235	7	Sololá	719	Santiago Atitlán	14	Cerro de Oro	4	Abril	2023-04-04T00:00:00	2024-11-08T21:00:00	3	Temperatura mínima	18.8
141236	7	Sololá	719	Santiago Atitlán	14	Cerro de Oro	4	Abril	2023-04-04T00:00:00	2024-11-08T21:00:00	5	Humedad	79
141237	7	Sololá	719	Santiago Atitlán	14	Cerro de Oro	4	Abril	2023-04-04T00:00:00	2024-11-08T21:00:00	6	Velocidad del viento	1.6
141238	7	Sololá	719	Santiago Atitlán	14	Cerro de Oro	4	Abril	2023-04-04T00:00:00	2024-11-08T21:00:00	7	Dirección del viento	1.61
141239	7	Sololá	719	Santiago Atitlán	14	Cerro de Oro	4	Abril	2023-04-04T00:00:00	2024-11-08T21:00:00	1	Precipitación	0
141240	7	Sololá	719	Santiago Atitlán	14	Cerro de Oro	4	Abril	2023-04-04T00:00:00	2024-11-08T21:00:00	8	Radiación solar	0
141241	7	Sololá	719	Santiago Atitlán	14	Cerro de Oro	4	Abril	2023-04-04T00:00:00	2024-11-08T22:00:00	2	Temperatura media	18.1
141242	7	Sololá	719	Santiago Atitlán	14	Cerro de Oro	4	Abril	2023-04-04T00:00:00	2024-11-08T22:00:00	4	Temperatura máxima	18.9
141243	7	Sololá	719	Santiago Atitlán	14	Cerro de Oro	4	Abril	2023-04-04T00:00:00	2024-11-08T22:00:00	3	Temperatura mínima	18.1
141244	7	Sololá	719	Santiago Atitlán	14	Cerro de Oro	4	Abril	2023-04-04T00:00:00	2024-11-08T22:00:00	5	Humedad	83
141245	7	Sololá	719	Santiago Atitlán	14	Cerro de Oro	4	Abril	2023-04-04T00:00:00	2024-11-08T22:00:00	6	Velocidad del viento	4.8
141246	7	Sololá	719	Santiago Atitlán	14	Cerro de Oro	4	Abril	2023-04-04T00:00:00	2024-11-08T22:00:00	7	Dirección del viento	4.83
141247	7	Sololá	719	Santiago Atitlán	14	Cerro de Oro	4	Abril	2023-04-04T00:00:00	2024-11-08T22:00:00	1	Precipitación	0
141248	7	Sololá	719	Santiago Atitlán	14	Cerro de Oro	4	Abril	2023-04-04T00:00:00	2024-11-08T22:00:00	8	Radiación solar	0
141249	7	Sololá	719	Santiago Atitlán	14	Cerro de Oro	4	Abril	2023-04-04T00:00:00	2024-11-08T23:00:00	2	Temperatura media	18.6
141250	7	Sololá	719	Santiago Atitlán	14	Cerro de Oro	4	Abril	2023-04-04T00:00:00	2024-11-08T23:00:00	4	Temperatura máxima	18.6
141251	7	Sololá	719	Santiago Atitlán	14	Cerro de Oro	4	Abril	2023-04-04T00:00:00	2024-11-08T23:00:00	3	Temperatura mínima	17.9
141252	7	Sololá	719	Santiago Atitlán	14	Cerro de Oro	4	Abril	2023-04-04T00:00:00	2024-11-08T23:00:00	5	Humedad	83
141253	7	Sololá	719	Santiago Atitlán	14	Cerro de Oro	4	Abril	2023-04-04T00:00:00	2024-11-08T23:00:00	6	Velocidad del viento	4.8
141254	7	Sololá	719	Santiago Atitlán	14	Cerro de Oro	4	Abril	2023-04-04T00:00:00	2024-11-08T23:00:00	7	Dirección del viento	4.83
141255	7	Sololá	719	Santiago Atitlán	14	Cerro de Oro	4	Abril	2023-04-04T00:00:00	2024-11-08T23:00:00	1	Precipitación	0
141256	7	Sololá	719	Santiago Atitlán	14	Cerro de Oro	4	Abril	2023-04-04T00:00:00	2024-11-08T23:00:00	8	Radiación solar	0
141257	7	Sololá	719	Santiago Atitlán	14	Cerro de Oro	4	Abril	2023-05-04T00:00:00	2024-11-08T00:00:00	2	Temperatura media	17.8
141258	7	Sololá	719	Santiago Atitlán	14	Cerro de Oro	4	Abril	2023-05-04T00:00:00	2024-11-08T00:00:00	4	Temperatura máxima	18.6
141259	7	Sololá	719	Santiago Atitlán	14	Cerro de Oro	4	Abril	2023-05-04T00:00:00	2024-11-08T00:00:00	3	Temperatura mínima	17.7
141260	7	Sololá	719	Santiago Atitlán	14	Cerro de Oro	4	Abril	2023-05-04T00:00:00	2024-11-08T00:00:00	5	Humedad	87
141261	7	Sololá	719	Santiago Atitlán	14	Cerro de Oro	4	Abril	2023-05-04T00:00:00	2024-11-08T00:00:00	6	Velocidad del viento	1.6
141262	7	Sololá	719	Santiago Atitlán	14	Cerro de Oro	4	Abril	2023-05-04T00:00:00	2024-11-08T00:00:00	7	Dirección del viento	1.61
141263	7	Sololá	719	Santiago Atitlán	14	Cerro de Oro	4	Abril	2023-05-04T00:00:00	2024-11-08T00:00:00	1	Precipitación	0
141264	7	Sololá	719	Santiago Atitlán	14	Cerro de Oro	4	Abril	2023-05-04T00:00:00	2024-11-08T00:00:00	8	Radiación solar	0
141265	7	Sololá	719	Santiago Atitlán	14	Cerro de Oro	4	Abril	2023-05-04T00:00:00	2024-11-08T01:00:00	2	Temperatura media	17.6
141266	7	Sololá	719	Santiago Atitlán	14	Cerro de Oro	4	Abril	2023-05-04T00:00:00	2024-11-08T01:00:00	4	Temperatura máxima	17.9
141267	7	Sololá	719	Santiago Atitlán	14	Cerro de Oro	4	Abril	2023-05-04T00:00:00	2024-11-08T01:00:00	3	Temperatura mínima	17.4
141268	7	Sololá	719	Santiago Atitlán	14	Cerro de Oro	4	Abril	2023-05-04T00:00:00	2024-11-08T01:00:00	5	Humedad	87
141269	7	Sololá	719	Santiago Atitlán	14	Cerro de Oro	4	Abril	2023-05-04T00:00:00	2024-11-08T01:00:00	6	Velocidad del viento	3.2
141270	7	Sololá	719	Santiago Atitlán	14	Cerro de Oro	4	Abril	2023-05-04T00:00:00	2024-11-08T01:00:00	7	Dirección del viento	3.22
141271	7	Sololá	719	Santiago Atitlán	14	Cerro de Oro	4	Abril	2023-05-04T00:00:00	2024-11-08T01:00:00	1	Precipitación	0
141272	7	Sololá	719	Santiago Atitlán	14	Cerro de Oro	4	Abril	2023-05-04T00:00:00	2024-11-08T01:00:00	8	Radiación solar	0
141273	7	Sololá	719	Santiago Atitlán	14	Cerro de Oro	4	Abril	2023-05-04T00:00:00	2024-11-08T02:00:00	2	Temperatura media	17.4
141274	7	Sololá	719	Santiago Atitlán	14	Cerro de Oro	4	Abril	2023-05-04T00:00:00	2024-11-08T02:00:00	4	Temperatura máxima	17.7
141275	7	Sololá	719	Santiago Atitlán	14	Cerro de Oro	4	Abril	2023-05-04T00:00:00	2024-11-08T02:00:00	3	Temperatura mínima	17.3
141276	7	Sololá	719	Santiago Atitlán	14	Cerro de Oro	4	Abril	2023-05-04T00:00:00	2024-11-08T02:00:00	5	Humedad	82
141277	7	Sololá	719	Santiago Atitlán	14	Cerro de Oro	4	Abril	2023-05-04T00:00:00	2024-11-08T02:00:00	6	Velocidad del viento	3.2
141278	7	Sololá	719	Santiago Atitlán	14	Cerro de Oro	4	Abril	2023-05-04T00:00:00	2024-11-08T02:00:00	7	Dirección del viento	3.22
141279	7	Sololá	719	Santiago Atitlán	14	Cerro de Oro	4	Abril	2023-05-04T00:00:00	2024-11-08T02:00:00	1	Precipitación	0
141280	7	Sololá	719	Santiago Atitlán	14	Cerro de Oro	4	Abril	2023-05-04T00:00:00	2024-11-08T02:00:00	8	Radiación solar	0
141281	7	Sololá	719	Santiago Atitlán	14	Cerro de Oro	4	Abril	2023-05-04T00:00:00	2024-11-08T03:00:00	2	Temperatura media	17.3
141282	7	Sololá	719	Santiago Atitlán	14	Cerro de Oro	4	Abril	2023-05-04T00:00:00	2024-11-08T03:00:00	4	Temperatura máxima	17.6
141283	7	Sololá	719	Santiago Atitlán	14	Cerro de Oro	4	Abril	2023-05-04T00:00:00	2024-11-08T03:00:00	3	Temperatura mínima	17.1
141284	7	Sololá	719	Santiago Atitlán	14	Cerro de Oro	4	Abril	2023-05-04T00:00:00	2024-11-08T03:00:00	5	Humedad	82
141285	7	Sololá	719	Santiago Atitlán	14	Cerro de Oro	4	Abril	2023-05-04T00:00:00	2024-11-08T03:00:00	6	Velocidad del viento	3.2
141286	7	Sololá	719	Santiago Atitlán	14	Cerro de Oro	4	Abril	2023-05-04T00:00:00	2024-11-08T03:00:00	7	Dirección del viento	3.22
141287	7	Sololá	719	Santiago Atitlán	14	Cerro de Oro	4	Abril	2023-05-04T00:00:00	2024-11-08T03:00:00	1	Precipitación	0
141288	7	Sololá	719	Santiago Atitlán	14	Cerro de Oro	4	Abril	2023-05-04T00:00:00	2024-11-08T03:00:00	8	Radiación solar	0
141289	7	Sololá	719	Santiago Atitlán	14	Cerro de Oro	4	Abril	2023-05-04T00:00:00	2024-11-08T04:00:00	2	Temperatura media	16.9
141290	7	Sololá	719	Santiago Atitlán	14	Cerro de Oro	4	Abril	2023-05-04T00:00:00	2024-11-08T04:00:00	4	Temperatura máxima	17.2
141291	7	Sololá	719	Santiago Atitlán	14	Cerro de Oro	4	Abril	2023-05-04T00:00:00	2024-11-08T04:00:00	3	Temperatura mínima	16.7
141292	7	Sololá	719	Santiago Atitlán	14	Cerro de Oro	4	Abril	2023-05-04T00:00:00	2024-11-08T04:00:00	5	Humedad	83
141293	7	Sololá	719	Santiago Atitlán	14	Cerro de Oro	4	Abril	2023-05-04T00:00:00	2024-11-08T04:00:00	6	Velocidad del viento	3.2
141294	7	Sololá	719	Santiago Atitlán	14	Cerro de Oro	4	Abril	2023-05-04T00:00:00	2024-11-08T04:00:00	7	Dirección del viento	3.22
141295	7	Sololá	719	Santiago Atitlán	14	Cerro de Oro	4	Abril	2023-05-04T00:00:00	2024-11-08T04:00:00	1	Precipitación	0
141296	7	Sololá	719	Santiago Atitlán	14	Cerro de Oro	4	Abril	2023-05-04T00:00:00	2024-11-08T04:00:00	8	Radiación solar	0
141297	7	Sololá	719	Santiago Atitlán	14	Cerro de Oro	4	Abril	2023-05-04T00:00:00	2024-11-08T05:00:00	2	Temperatura media	16.6
141298	7	Sololá	719	Santiago Atitlán	14	Cerro de Oro	4	Abril	2023-05-04T00:00:00	2024-11-08T05:00:00	4	Temperatura máxima	16.8
141299	7	Sololá	719	Santiago Atitlán	14	Cerro de Oro	4	Abril	2023-05-04T00:00:00	2024-11-08T05:00:00	3	Temperatura mínima	16.5
141300	7	Sololá	719	Santiago Atitlán	14	Cerro de Oro	4	Abril	2023-05-04T00:00:00	2024-11-08T05:00:00	5	Humedad	85
141301	7	Sololá	719	Santiago Atitlán	14	Cerro de Oro	4	Abril	2023-05-04T00:00:00	2024-11-08T05:00:00	6	Velocidad del viento	3.2
141302	7	Sololá	719	Santiago Atitlán	14	Cerro de Oro	4	Abril	2023-05-04T00:00:00	2024-11-08T05:00:00	7	Dirección del viento	3.22
141303	7	Sololá	719	Santiago Atitlán	14	Cerro de Oro	4	Abril	2023-05-04T00:00:00	2024-11-08T05:00:00	1	Precipitación	0
141304	7	Sololá	719	Santiago Atitlán	14	Cerro de Oro	4	Abril	2023-05-04T00:00:00	2024-11-08T05:00:00	8	Radiación solar	0
141305	7	Sololá	719	Santiago Atitlán	14	Cerro de Oro	4	Abril	2023-05-04T00:00:00	2024-11-08T06:00:00	2	Temperatura media	16.4
141306	7	Sololá	719	Santiago Atitlán	14	Cerro de Oro	4	Abril	2023-05-04T00:00:00	2024-11-08T06:00:00	4	Temperatura máxima	16.6
141307	7	Sololá	719	Santiago Atitlán	14	Cerro de Oro	4	Abril	2023-05-04T00:00:00	2024-11-08T06:00:00	3	Temperatura mínima	16.3
141308	7	Sololá	719	Santiago Atitlán	14	Cerro de Oro	4	Abril	2023-05-04T00:00:00	2024-11-08T06:00:00	5	Humedad	78
141309	7	Sololá	719	Santiago Atitlán	14	Cerro de Oro	4	Abril	2023-05-04T00:00:00	2024-11-08T06:00:00	6	Velocidad del viento	3.2
141310	7	Sololá	719	Santiago Atitlán	14	Cerro de Oro	4	Abril	2023-05-04T00:00:00	2024-11-08T06:00:00	7	Dirección del viento	3.22
141311	7	Sololá	719	Santiago Atitlán	14	Cerro de Oro	4	Abril	2023-05-04T00:00:00	2024-11-08T06:00:00	1	Precipitación	0
141312	7	Sololá	719	Santiago Atitlán	14	Cerro de Oro	4	Abril	2023-05-04T00:00:00	2024-11-08T06:00:00	8	Radiación solar	0
141313	7	Sololá	719	Santiago Atitlán	14	Cerro de Oro	4	Abril	2023-05-04T00:00:00	2024-11-08T07:00:00	2	Temperatura media	15.6
141314	7	Sololá	719	Santiago Atitlán	14	Cerro de Oro	4	Abril	2023-05-04T00:00:00	2024-11-08T07:00:00	4	Temperatura máxima	16.7
141315	7	Sololá	719	Santiago Atitlán	14	Cerro de Oro	4	Abril	2023-05-04T00:00:00	2024-11-08T07:00:00	3	Temperatura mínima	15.6
141316	7	Sololá	719	Santiago Atitlán	14	Cerro de Oro	4	Abril	2023-05-04T00:00:00	2024-11-08T07:00:00	5	Humedad	81
141317	7	Sololá	719	Santiago Atitlán	14	Cerro de Oro	4	Abril	2023-05-04T00:00:00	2024-11-08T07:00:00	6	Velocidad del viento	3.2
141318	7	Sololá	719	Santiago Atitlán	14	Cerro de Oro	4	Abril	2023-05-04T00:00:00	2024-11-08T07:00:00	7	Dirección del viento	3.22
141319	7	Sololá	719	Santiago Atitlán	14	Cerro de Oro	4	Abril	2023-05-04T00:00:00	2024-11-08T07:00:00	1	Precipitación	0
141320	7	Sololá	719	Santiago Atitlán	14	Cerro de Oro	4	Abril	2023-05-04T00:00:00	2024-11-08T07:00:00	8	Radiación solar	1
141321	7	Sololá	719	Santiago Atitlán	14	Cerro de Oro	4	Abril	2023-05-04T00:00:00	2024-11-08T08:00:00	2	Temperatura media	17.7
141322	7	Sololá	719	Santiago Atitlán	14	Cerro de Oro	4	Abril	2023-05-04T00:00:00	2024-11-08T08:00:00	4	Temperatura máxima	17.7
141323	7	Sololá	719	Santiago Atitlán	14	Cerro de Oro	4	Abril	2023-05-04T00:00:00	2024-11-08T08:00:00	3	Temperatura mínima	15.6
141324	7	Sololá	719	Santiago Atitlán	14	Cerro de Oro	4	Abril	2023-05-04T00:00:00	2024-11-08T08:00:00	5	Humedad	73
141325	7	Sololá	719	Santiago Atitlán	14	Cerro de Oro	4	Abril	2023-05-04T00:00:00	2024-11-08T08:00:00	6	Velocidad del viento	3.2
141326	7	Sololá	719	Santiago Atitlán	14	Cerro de Oro	4	Abril	2023-05-04T00:00:00	2024-11-08T08:00:00	7	Dirección del viento	3.22
141327	7	Sololá	719	Santiago Atitlán	14	Cerro de Oro	4	Abril	2023-05-04T00:00:00	2024-11-08T08:00:00	1	Precipitación	0
141328	7	Sololá	719	Santiago Atitlán	14	Cerro de Oro	4	Abril	2023-05-04T00:00:00	2024-11-08T08:00:00	8	Radiación solar	60
141329	7	Sololá	719	Santiago Atitlán	14	Cerro de Oro	4	Abril	2023-05-04T00:00:00	2024-11-08T09:00:00	2	Temperatura media	19.4
141330	7	Sololá	719	Santiago Atitlán	14	Cerro de Oro	4	Abril	2023-05-04T00:00:00	2024-11-08T09:00:00	4	Temperatura máxima	19.5
141331	7	Sololá	719	Santiago Atitlán	14	Cerro de Oro	4	Abril	2023-05-04T00:00:00	2024-11-08T09:00:00	3	Temperatura mínima	17.7
141332	7	Sololá	719	Santiago Atitlán	14	Cerro de Oro	4	Abril	2023-05-04T00:00:00	2024-11-08T09:00:00	5	Humedad	70
141333	7	Sololá	719	Santiago Atitlán	14	Cerro de Oro	4	Abril	2023-05-04T00:00:00	2024-11-08T09:00:00	6	Velocidad del viento	3.2
141334	7	Sololá	719	Santiago Atitlán	14	Cerro de Oro	4	Abril	2023-05-04T00:00:00	2024-11-08T09:00:00	7	Dirección del viento	3.22
141335	7	Sololá	719	Santiago Atitlán	14	Cerro de Oro	4	Abril	2023-05-04T00:00:00	2024-11-08T09:00:00	1	Precipitación	0
141336	7	Sololá	719	Santiago Atitlán	14	Cerro de Oro	4	Abril	2023-05-04T00:00:00	2024-11-08T09:00:00	8	Radiación solar	248
141337	7	Sololá	719	Santiago Atitlán	14	Cerro de Oro	4	Abril	2023-05-04T00:00:00	2024-11-08T10:00:00	2	Temperatura media	20.7
141338	7	Sololá	719	Santiago Atitlán	14	Cerro de Oro	4	Abril	2023-05-04T00:00:00	2024-11-08T10:00:00	4	Temperatura máxima	20.7
141339	7	Sololá	719	Santiago Atitlán	14	Cerro de Oro	4	Abril	2023-05-04T00:00:00	2024-11-08T10:00:00	3	Temperatura mínima	19.3
141340	7	Sololá	719	Santiago Atitlán	14	Cerro de Oro	4	Abril	2023-05-04T00:00:00	2024-11-08T10:00:00	5	Humedad	69
141341	7	Sololá	719	Santiago Atitlán	14	Cerro de Oro	4	Abril	2023-05-04T00:00:00	2024-11-08T10:00:00	6	Velocidad del viento	4.8
141342	7	Sololá	719	Santiago Atitlán	14	Cerro de Oro	4	Abril	2023-05-04T00:00:00	2024-11-08T10:00:00	7	Dirección del viento	4.83
141343	7	Sololá	719	Santiago Atitlán	14	Cerro de Oro	4	Abril	2023-05-04T00:00:00	2024-11-08T10:00:00	1	Precipitación	0
141344	7	Sololá	719	Santiago Atitlán	14	Cerro de Oro	4	Abril	2023-05-04T00:00:00	2024-11-08T10:00:00	8	Radiación solar	389
141345	7	Sololá	719	Santiago Atitlán	14	Cerro de Oro	4	Abril	2023-05-04T00:00:00	2024-11-08T11:00:00	2	Temperatura media	21.2
141346	7	Sololá	719	Santiago Atitlán	14	Cerro de Oro	4	Abril	2023-05-04T00:00:00	2024-11-08T11:00:00	4	Temperatura máxima	21.2
141347	7	Sololá	719	Santiago Atitlán	14	Cerro de Oro	4	Abril	2023-05-04T00:00:00	2024-11-08T11:00:00	3	Temperatura mínima	20.5
141348	7	Sololá	719	Santiago Atitlán	14	Cerro de Oro	4	Abril	2023-05-04T00:00:00	2024-11-08T11:00:00	5	Humedad	69
141349	7	Sololá	719	Santiago Atitlán	14	Cerro de Oro	4	Abril	2023-05-04T00:00:00	2024-11-08T11:00:00	6	Velocidad del viento	4.8
141350	7	Sololá	719	Santiago Atitlán	14	Cerro de Oro	4	Abril	2023-05-04T00:00:00	2024-11-08T11:00:00	7	Dirección del viento	4.83
141351	7	Sololá	719	Santiago Atitlán	14	Cerro de Oro	4	Abril	2023-05-04T00:00:00	2024-11-08T11:00:00	1	Precipitación	0
141352	7	Sololá	719	Santiago Atitlán	14	Cerro de Oro	4	Abril	2023-05-04T00:00:00	2024-11-08T11:00:00	8	Radiación solar	618
141353	7	Sololá	719	Santiago Atitlán	14	Cerro de Oro	4	Abril	2023-05-04T00:00:00	2024-11-08T12:00:00	2	Temperatura media	23.6
141354	7	Sololá	719	Santiago Atitlán	14	Cerro de Oro	4	Abril	2023-05-04T00:00:00	2024-11-08T12:00:00	4	Temperatura máxima	23.9
141355	7	Sololá	719	Santiago Atitlán	14	Cerro de Oro	4	Abril	2023-05-04T00:00:00	2024-11-08T12:00:00	3	Temperatura mínima	21.2
141356	7	Sololá	719	Santiago Atitlán	14	Cerro de Oro	4	Abril	2023-05-04T00:00:00	2024-11-08T12:00:00	5	Humedad	58
141357	7	Sololá	719	Santiago Atitlán	14	Cerro de Oro	4	Abril	2023-05-04T00:00:00	2024-11-08T12:00:00	6	Velocidad del viento	9.7
141358	7	Sololá	719	Santiago Atitlán	14	Cerro de Oro	4	Abril	2023-05-04T00:00:00	2024-11-08T12:00:00	7	Dirección del viento	9.66
141359	7	Sololá	719	Santiago Atitlán	14	Cerro de Oro	4	Abril	2023-05-04T00:00:00	2024-11-08T12:00:00	1	Precipitación	0
141360	7	Sololá	719	Santiago Atitlán	14	Cerro de Oro	4	Abril	2023-05-04T00:00:00	2024-11-08T12:00:00	8	Radiación solar	843
141361	7	Sololá	719	Santiago Atitlán	14	Cerro de Oro	4	Abril	2023-05-04T00:00:00	2024-11-08T13:00:00	2	Temperatura media	23.8
141362	7	Sololá	719	Santiago Atitlán	14	Cerro de Oro	4	Abril	2023-05-04T00:00:00	2024-11-08T13:00:00	4	Temperatura máxima	24.2
141363	7	Sololá	719	Santiago Atitlán	14	Cerro de Oro	4	Abril	2023-05-04T00:00:00	2024-11-08T13:00:00	3	Temperatura mínima	23.2
141364	7	Sololá	719	Santiago Atitlán	14	Cerro de Oro	4	Abril	2023-05-04T00:00:00	2024-11-08T13:00:00	5	Humedad	62
141365	7	Sololá	719	Santiago Atitlán	14	Cerro de Oro	4	Abril	2023-05-04T00:00:00	2024-11-08T13:00:00	6	Velocidad del viento	12.9
141366	7	Sololá	719	Santiago Atitlán	14	Cerro de Oro	4	Abril	2023-05-04T00:00:00	2024-11-08T13:00:00	7	Dirección del viento	12.87
141367	7	Sololá	719	Santiago Atitlán	14	Cerro de Oro	4	Abril	2023-05-04T00:00:00	2024-11-08T13:00:00	1	Precipitación	0
141368	7	Sololá	719	Santiago Atitlán	14	Cerro de Oro	4	Abril	2023-05-04T00:00:00	2024-11-08T13:00:00	8	Radiación solar	955
141369	7	Sololá	719	Santiago Atitlán	14	Cerro de Oro	4	Abril	2023-05-04T00:00:00	2024-11-08T14:00:00	2	Temperatura media	23.8
141370	7	Sololá	719	Santiago Atitlán	14	Cerro de Oro	4	Abril	2023-05-04T00:00:00	2024-11-08T14:00:00	4	Temperatura máxima	24.2
141371	7	Sololá	719	Santiago Atitlán	14	Cerro de Oro	4	Abril	2023-05-04T00:00:00	2024-11-08T14:00:00	3	Temperatura mínima	23.4
141372	7	Sololá	719	Santiago Atitlán	14	Cerro de Oro	4	Abril	2023-05-04T00:00:00	2024-11-08T14:00:00	5	Humedad	65
141373	7	Sololá	719	Santiago Atitlán	14	Cerro de Oro	4	Abril	2023-05-04T00:00:00	2024-11-08T14:00:00	6	Velocidad del viento	14.5
141374	7	Sololá	719	Santiago Atitlán	14	Cerro de Oro	4	Abril	2023-05-04T00:00:00	2024-11-08T14:00:00	7	Dirección del viento	14.48
141375	7	Sololá	719	Santiago Atitlán	14	Cerro de Oro	4	Abril	2023-05-04T00:00:00	2024-11-08T14:00:00	1	Precipitación	0
141376	7	Sololá	719	Santiago Atitlán	14	Cerro de Oro	4	Abril	2023-05-04T00:00:00	2024-11-08T14:00:00	8	Radiación solar	962
141377	7	Sololá	719	Santiago Atitlán	14	Cerro de Oro	4	Abril	2023-05-04T00:00:00	2024-11-08T15:00:00	2	Temperatura media	23.4
141378	7	Sololá	719	Santiago Atitlán	14	Cerro de Oro	4	Abril	2023-05-04T00:00:00	2024-11-08T15:00:00	4	Temperatura máxima	24.4
141379	7	Sololá	719	Santiago Atitlán	14	Cerro de Oro	4	Abril	2023-05-04T00:00:00	2024-11-08T15:00:00	3	Temperatura mínima	23.4
141380	7	Sololá	719	Santiago Atitlán	14	Cerro de Oro	4	Abril	2023-05-04T00:00:00	2024-11-08T15:00:00	5	Humedad	68
141381	7	Sololá	719	Santiago Atitlán	14	Cerro de Oro	4	Abril	2023-05-04T00:00:00	2024-11-08T15:00:00	6	Velocidad del viento	12.9
141382	7	Sololá	719	Santiago Atitlán	14	Cerro de Oro	4	Abril	2023-05-04T00:00:00	2024-11-08T15:00:00	7	Dirección del viento	12.87
141383	7	Sololá	719	Santiago Atitlán	14	Cerro de Oro	4	Abril	2023-05-04T00:00:00	2024-11-08T15:00:00	1	Precipitación	0
141384	7	Sololá	719	Santiago Atitlán	14	Cerro de Oro	4	Abril	2023-05-04T00:00:00	2024-11-08T15:00:00	8	Radiación solar	864
141385	7	Sololá	719	Santiago Atitlán	14	Cerro de Oro	4	Abril	2023-05-04T00:00:00	2024-11-08T16:00:00	2	Temperatura media	23.1
141386	7	Sololá	719	Santiago Atitlán	14	Cerro de Oro	4	Abril	2023-05-04T00:00:00	2024-11-08T16:00:00	4	Temperatura máxima	23.7
141387	7	Sololá	719	Santiago Atitlán	14	Cerro de Oro	4	Abril	2023-05-04T00:00:00	2024-11-08T16:00:00	3	Temperatura mínima	22.9
141388	7	Sololá	719	Santiago Atitlán	14	Cerro de Oro	4	Abril	2023-05-04T00:00:00	2024-11-08T16:00:00	5	Humedad	72
141389	7	Sololá	719	Santiago Atitlán	14	Cerro de Oro	4	Abril	2023-05-04T00:00:00	2024-11-08T16:00:00	6	Velocidad del viento	12.9
141390	7	Sololá	719	Santiago Atitlán	14	Cerro de Oro	4	Abril	2023-05-04T00:00:00	2024-11-08T16:00:00	7	Dirección del viento	12.87
141391	7	Sololá	719	Santiago Atitlán	14	Cerro de Oro	4	Abril	2023-05-04T00:00:00	2024-11-08T16:00:00	1	Precipitación	0
141392	7	Sololá	719	Santiago Atitlán	14	Cerro de Oro	4	Abril	2023-05-04T00:00:00	2024-11-08T16:00:00	8	Radiación solar	728
141393	7	Sololá	719	Santiago Atitlán	14	Cerro de Oro	4	Abril	2023-05-04T00:00:00	2024-11-08T17:00:00	2	Temperatura media	21.6
141394	7	Sololá	719	Santiago Atitlán	14	Cerro de Oro	4	Abril	2023-05-04T00:00:00	2024-11-08T17:00:00	4	Temperatura máxima	23.2
141395	7	Sololá	719	Santiago Atitlán	14	Cerro de Oro	4	Abril	2023-05-04T00:00:00	2024-11-08T17:00:00	3	Temperatura mínima	21.6
141396	7	Sololá	719	Santiago Atitlán	14	Cerro de Oro	4	Abril	2023-05-04T00:00:00	2024-11-08T17:00:00	5	Humedad	78
141397	7	Sololá	719	Santiago Atitlán	14	Cerro de Oro	4	Abril	2023-05-04T00:00:00	2024-11-08T17:00:00	6	Velocidad del viento	11.3
141398	7	Sololá	719	Santiago Atitlán	14	Cerro de Oro	4	Abril	2023-05-04T00:00:00	2024-11-08T17:00:00	7	Dirección del viento	11.27
141399	7	Sololá	719	Santiago Atitlán	14	Cerro de Oro	4	Abril	2023-05-04T00:00:00	2024-11-08T17:00:00	1	Precipitación	0
141400	7	Sololá	719	Santiago Atitlán	14	Cerro de Oro	4	Abril	2023-05-04T00:00:00	2024-11-08T17:00:00	8	Radiación solar	336
141401	7	Sololá	719	Santiago Atitlán	14	Cerro de Oro	4	Abril	2023-05-04T00:00:00	2024-11-08T18:00:00	2	Temperatura media	21.2
141402	7	Sololá	719	Santiago Atitlán	14	Cerro de Oro	4	Abril	2023-05-04T00:00:00	2024-11-08T18:00:00	4	Temperatura máxima	22
141403	7	Sololá	719	Santiago Atitlán	14	Cerro de Oro	4	Abril	2023-05-04T00:00:00	2024-11-08T18:00:00	3	Temperatura mínima	21.2
141404	7	Sololá	719	Santiago Atitlán	14	Cerro de Oro	4	Abril	2023-05-04T00:00:00	2024-11-08T18:00:00	5	Humedad	80
141405	7	Sololá	719	Santiago Atitlán	14	Cerro de Oro	4	Abril	2023-05-04T00:00:00	2024-11-08T18:00:00	6	Velocidad del viento	8
141406	7	Sololá	719	Santiago Atitlán	14	Cerro de Oro	4	Abril	2023-05-04T00:00:00	2024-11-08T18:00:00	7	Dirección del viento	8.05
141407	7	Sololá	719	Santiago Atitlán	14	Cerro de Oro	4	Abril	2023-05-04T00:00:00	2024-11-08T18:00:00	1	Precipitación	0
141408	7	Sololá	719	Santiago Atitlán	14	Cerro de Oro	4	Abril	2023-05-04T00:00:00	2024-11-08T18:00:00	8	Radiación solar	120
141409	7	Sololá	719	Santiago Atitlán	14	Cerro de Oro	4	Abril	2023-05-04T00:00:00	2024-11-08T19:00:00	2	Temperatura media	20.5
141410	7	Sololá	719	Santiago Atitlán	14	Cerro de Oro	4	Abril	2023-05-04T00:00:00	2024-11-08T19:00:00	4	Temperatura máxima	21.2
141411	7	Sololá	719	Santiago Atitlán	14	Cerro de Oro	4	Abril	2023-05-04T00:00:00	2024-11-08T19:00:00	3	Temperatura mínima	20.4
141412	7	Sololá	719	Santiago Atitlán	14	Cerro de Oro	4	Abril	2023-05-04T00:00:00	2024-11-08T19:00:00	5	Humedad	84
141413	7	Sololá	719	Santiago Atitlán	14	Cerro de Oro	4	Abril	2023-05-04T00:00:00	2024-11-08T19:00:00	6	Velocidad del viento	6.4
141414	7	Sololá	719	Santiago Atitlán	14	Cerro de Oro	4	Abril	2023-05-04T00:00:00	2024-11-08T19:00:00	7	Dirección del viento	6.44
141415	7	Sololá	719	Santiago Atitlán	14	Cerro de Oro	4	Abril	2023-05-04T00:00:00	2024-11-08T19:00:00	1	Precipitación	0
141416	7	Sololá	719	Santiago Atitlán	14	Cerro de Oro	4	Abril	2023-05-04T00:00:00	2024-11-08T19:00:00	8	Radiación solar	0
141417	7	Sololá	719	Santiago Atitlán	14	Cerro de Oro	4	Abril	2023-05-04T00:00:00	2024-11-08T20:00:00	2	Temperatura media	20.1
141418	7	Sololá	719	Santiago Atitlán	14	Cerro de Oro	4	Abril	2023-05-04T00:00:00	2024-11-08T20:00:00	4	Temperatura máxima	20.6
141419	7	Sololá	719	Santiago Atitlán	14	Cerro de Oro	4	Abril	2023-05-04T00:00:00	2024-11-08T20:00:00	3	Temperatura mínima	20.1
141420	7	Sololá	719	Santiago Atitlán	14	Cerro de Oro	4	Abril	2023-05-04T00:00:00	2024-11-08T20:00:00	5	Humedad	86
141421	7	Sololá	719	Santiago Atitlán	14	Cerro de Oro	4	Abril	2023-05-04T00:00:00	2024-11-08T20:00:00	6	Velocidad del viento	4.8
141422	7	Sololá	719	Santiago Atitlán	14	Cerro de Oro	4	Abril	2023-05-04T00:00:00	2024-11-08T20:00:00	7	Dirección del viento	4.83
141423	7	Sololá	719	Santiago Atitlán	14	Cerro de Oro	4	Abril	2023-05-04T00:00:00	2024-11-08T20:00:00	1	Precipitación	0
141424	7	Sololá	719	Santiago Atitlán	14	Cerro de Oro	4	Abril	2023-05-04T00:00:00	2024-11-08T20:00:00	8	Radiación solar	0
141425	7	Sololá	719	Santiago Atitlán	14	Cerro de Oro	4	Abril	2023-05-04T00:00:00	2024-11-08T21:00:00	2	Temperatura media	19.8
141426	7	Sololá	719	Santiago Atitlán	14	Cerro de Oro	4	Abril	2023-05-04T00:00:00	2024-11-08T21:00:00	4	Temperatura máxima	20.1
141427	7	Sololá	719	Santiago Atitlán	14	Cerro de Oro	4	Abril	2023-05-04T00:00:00	2024-11-08T21:00:00	3	Temperatura mínima	19.7
141428	7	Sololá	719	Santiago Atitlán	14	Cerro de Oro	4	Abril	2023-05-04T00:00:00	2024-11-08T21:00:00	5	Humedad	89
141429	7	Sololá	719	Santiago Atitlán	14	Cerro de Oro	4	Abril	2023-05-04T00:00:00	2024-11-08T21:00:00	6	Velocidad del viento	4.8
141430	7	Sololá	719	Santiago Atitlán	14	Cerro de Oro	4	Abril	2023-05-04T00:00:00	2024-11-08T21:00:00	7	Dirección del viento	4.83
141431	7	Sololá	719	Santiago Atitlán	14	Cerro de Oro	4	Abril	2023-05-04T00:00:00	2024-11-08T21:00:00	1	Precipitación	0
141432	7	Sololá	719	Santiago Atitlán	14	Cerro de Oro	4	Abril	2023-05-04T00:00:00	2024-11-08T21:00:00	8	Radiación solar	0
141433	7	Sololá	719	Santiago Atitlán	14	Cerro de Oro	4	Abril	2023-05-04T00:00:00	2024-11-08T22:00:00	2	Temperatura media	19.1
141434	7	Sololá	719	Santiago Atitlán	14	Cerro de Oro	4	Abril	2023-05-04T00:00:00	2024-11-08T22:00:00	4	Temperatura máxima	19.8
141435	7	Sololá	719	Santiago Atitlán	14	Cerro de Oro	4	Abril	2023-05-04T00:00:00	2024-11-08T22:00:00	3	Temperatura mínima	19.1
141436	7	Sololá	719	Santiago Atitlán	14	Cerro de Oro	4	Abril	2023-05-04T00:00:00	2024-11-08T22:00:00	5	Humedad	90
141437	7	Sololá	719	Santiago Atitlán	14	Cerro de Oro	4	Abril	2023-05-04T00:00:00	2024-11-08T22:00:00	6	Velocidad del viento	6.4
141438	7	Sololá	719	Santiago Atitlán	14	Cerro de Oro	4	Abril	2023-05-04T00:00:00	2024-11-08T22:00:00	7	Dirección del viento	6.44
141439	7	Sololá	719	Santiago Atitlán	14	Cerro de Oro	4	Abril	2023-05-04T00:00:00	2024-11-08T22:00:00	1	Precipitación	0
141440	7	Sololá	719	Santiago Atitlán	14	Cerro de Oro	4	Abril	2023-05-04T00:00:00	2024-11-08T22:00:00	8	Radiación solar	0
141441	7	Sololá	719	Santiago Atitlán	14	Cerro de Oro	4	Abril	2023-05-04T00:00:00	2024-11-08T23:00:00	2	Temperatura media	18.4
141442	7	Sololá	719	Santiago Atitlán	14	Cerro de Oro	4	Abril	2023-05-04T00:00:00	2024-11-08T23:00:00	4	Temperatura máxima	19.1
141443	7	Sololá	719	Santiago Atitlán	14	Cerro de Oro	4	Abril	2023-05-04T00:00:00	2024-11-08T23:00:00	3	Temperatura mínima	18.4
141444	7	Sololá	719	Santiago Atitlán	14	Cerro de Oro	4	Abril	2023-05-04T00:00:00	2024-11-08T23:00:00	5	Humedad	90
141445	7	Sololá	719	Santiago Atitlán	14	Cerro de Oro	4	Abril	2023-05-04T00:00:00	2024-11-08T23:00:00	6	Velocidad del viento	3.2
141446	7	Sololá	719	Santiago Atitlán	14	Cerro de Oro	4	Abril	2023-05-04T00:00:00	2024-11-08T23:00:00	7	Dirección del viento	3.22
141447	7	Sololá	719	Santiago Atitlán	14	Cerro de Oro	4	Abril	2023-05-04T00:00:00	2024-11-08T23:00:00	1	Precipitación	0
141448	7	Sololá	719	Santiago Atitlán	14	Cerro de Oro	4	Abril	2023-05-04T00:00:00	2024-11-08T23:00:00	8	Radiación solar	0
141449	7	Sololá	719	Santiago Atitlán	14	Cerro de Oro	4	Abril	2023-06-04T00:00:00	2024-11-08T00:00:00	2	Temperatura media	18.3
141450	7	Sololá	719	Santiago Atitlán	14	Cerro de Oro	4	Abril	2023-06-04T00:00:00	2024-11-08T00:00:00	4	Temperatura máxima	18.4
141451	7	Sololá	719	Santiago Atitlán	14	Cerro de Oro	4	Abril	2023-06-04T00:00:00	2024-11-08T00:00:00	3	Temperatura mínima	18.1
141452	7	Sololá	719	Santiago Atitlán	14	Cerro de Oro	4	Abril	2023-06-04T00:00:00	2024-11-08T00:00:00	5	Humedad	89
141453	7	Sololá	719	Santiago Atitlán	14	Cerro de Oro	4	Abril	2023-06-04T00:00:00	2024-11-08T00:00:00	6	Velocidad del viento	3.2
141454	7	Sololá	719	Santiago Atitlán	14	Cerro de Oro	4	Abril	2023-06-04T00:00:00	2024-11-08T00:00:00	7	Dirección del viento	3.22
141455	7	Sololá	719	Santiago Atitlán	14	Cerro de Oro	4	Abril	2023-06-04T00:00:00	2024-11-08T00:00:00	1	Precipitación	0
141456	7	Sololá	719	Santiago Atitlán	14	Cerro de Oro	4	Abril	2023-06-04T00:00:00	2024-11-08T00:00:00	8	Radiación solar	0
141457	7	Sololá	719	Santiago Atitlán	14	Cerro de Oro	4	Abril	2023-06-04T00:00:00	2024-11-08T01:00:00	2	Temperatura media	18.1
141458	7	Sololá	719	Santiago Atitlán	14	Cerro de Oro	4	Abril	2023-06-04T00:00:00	2024-11-08T01:00:00	4	Temperatura máxima	18.5
141459	7	Sololá	719	Santiago Atitlán	14	Cerro de Oro	4	Abril	2023-06-04T00:00:00	2024-11-08T01:00:00	3	Temperatura mínima	18.1
141460	7	Sololá	719	Santiago Atitlán	14	Cerro de Oro	4	Abril	2023-06-04T00:00:00	2024-11-08T01:00:00	5	Humedad	89
141461	7	Sololá	719	Santiago Atitlán	14	Cerro de Oro	4	Abril	2023-06-04T00:00:00	2024-11-08T01:00:00	6	Velocidad del viento	3.2
141462	7	Sololá	719	Santiago Atitlán	14	Cerro de Oro	4	Abril	2023-06-04T00:00:00	2024-11-08T01:00:00	7	Dirección del viento	3.22
141463	7	Sololá	719	Santiago Atitlán	14	Cerro de Oro	4	Abril	2023-06-04T00:00:00	2024-11-08T01:00:00	1	Precipitación	0
141464	7	Sololá	719	Santiago Atitlán	14	Cerro de Oro	4	Abril	2023-06-04T00:00:00	2024-11-08T01:00:00	8	Radiación solar	0
141465	7	Sololá	719	Santiago Atitlán	14	Cerro de Oro	4	Abril	2023-06-04T00:00:00	2024-11-08T02:00:00	2	Temperatura media	18.3
141466	7	Sololá	719	Santiago Atitlán	14	Cerro de Oro	4	Abril	2023-06-04T00:00:00	2024-11-08T02:00:00	4	Temperatura máxima	18.4
141467	7	Sololá	719	Santiago Atitlán	14	Cerro de Oro	4	Abril	2023-06-04T00:00:00	2024-11-08T02:00:00	3	Temperatura mínima	17.8
141468	7	Sololá	719	Santiago Atitlán	14	Cerro de Oro	4	Abril	2023-06-04T00:00:00	2024-11-08T02:00:00	5	Humedad	87
141469	7	Sololá	719	Santiago Atitlán	14	Cerro de Oro	4	Abril	2023-06-04T00:00:00	2024-11-08T02:00:00	6	Velocidad del viento	4.8
141470	7	Sololá	719	Santiago Atitlán	14	Cerro de Oro	4	Abril	2023-06-04T00:00:00	2024-11-08T02:00:00	7	Dirección del viento	4.83
141471	7	Sololá	719	Santiago Atitlán	14	Cerro de Oro	4	Abril	2023-06-04T00:00:00	2024-11-08T02:00:00	1	Precipitación	0
141472	7	Sololá	719	Santiago Atitlán	14	Cerro de Oro	4	Abril	2023-06-04T00:00:00	2024-11-08T02:00:00	8	Radiación solar	0
141473	7	Sololá	719	Santiago Atitlán	14	Cerro de Oro	4	Abril	2023-06-04T00:00:00	2024-11-08T03:00:00	2	Temperatura media	17.6
141474	7	Sololá	719	Santiago Atitlán	14	Cerro de Oro	4	Abril	2023-06-04T00:00:00	2024-11-08T03:00:00	4	Temperatura máxima	18.4
141475	7	Sololá	719	Santiago Atitlán	14	Cerro de Oro	4	Abril	2023-06-04T00:00:00	2024-11-08T03:00:00	3	Temperatura mínima	17.6
141476	7	Sololá	719	Santiago Atitlán	14	Cerro de Oro	4	Abril	2023-06-04T00:00:00	2024-11-08T03:00:00	5	Humedad	90
141477	7	Sololá	719	Santiago Atitlán	14	Cerro de Oro	4	Abril	2023-06-04T00:00:00	2024-11-08T03:00:00	6	Velocidad del viento	3.2
141478	7	Sololá	719	Santiago Atitlán	14	Cerro de Oro	4	Abril	2023-06-04T00:00:00	2024-11-08T03:00:00	7	Dirección del viento	3.22
141479	7	Sololá	719	Santiago Atitlán	14	Cerro de Oro	4	Abril	2023-06-04T00:00:00	2024-11-08T03:00:00	1	Precipitación	0
141480	7	Sololá	719	Santiago Atitlán	14	Cerro de Oro	4	Abril	2023-06-04T00:00:00	2024-11-08T03:00:00	8	Radiación solar	0
141481	7	Sololá	719	Santiago Atitlán	14	Cerro de Oro	4	Abril	2023-06-04T00:00:00	2024-11-08T04:00:00	2	Temperatura media	17.6
141482	7	Sololá	719	Santiago Atitlán	14	Cerro de Oro	4	Abril	2023-06-04T00:00:00	2024-11-08T04:00:00	4	Temperatura máxima	17.6
141483	7	Sololá	719	Santiago Atitlán	14	Cerro de Oro	4	Abril	2023-06-04T00:00:00	2024-11-08T04:00:00	3	Temperatura mínima	17.3
141484	7	Sololá	719	Santiago Atitlán	14	Cerro de Oro	4	Abril	2023-06-04T00:00:00	2024-11-08T04:00:00	5	Humedad	90
141485	7	Sololá	719	Santiago Atitlán	14	Cerro de Oro	4	Abril	2023-06-04T00:00:00	2024-11-08T04:00:00	6	Velocidad del viento	1.6
141486	7	Sololá	719	Santiago Atitlán	14	Cerro de Oro	4	Abril	2023-06-04T00:00:00	2024-11-08T04:00:00	7	Dirección del viento	1.61
141487	7	Sololá	719	Santiago Atitlán	14	Cerro de Oro	4	Abril	2023-06-04T00:00:00	2024-11-08T04:00:00	1	Precipitación	0
141488	7	Sololá	719	Santiago Atitlán	14	Cerro de Oro	4	Abril	2023-06-04T00:00:00	2024-11-08T04:00:00	8	Radiación solar	0
141489	7	Sololá	719	Santiago Atitlán	14	Cerro de Oro	4	Abril	2023-06-04T00:00:00	2024-11-08T05:00:00	2	Temperatura media	17.9
141490	7	Sololá	719	Santiago Atitlán	14	Cerro de Oro	4	Abril	2023-06-04T00:00:00	2024-11-08T05:00:00	4	Temperatura máxima	18
141491	7	Sololá	719	Santiago Atitlán	14	Cerro de Oro	4	Abril	2023-06-04T00:00:00	2024-11-08T05:00:00	3	Temperatura mínima	17.4
141492	7	Sololá	719	Santiago Atitlán	14	Cerro de Oro	4	Abril	2023-06-04T00:00:00	2024-11-08T05:00:00	5	Humedad	85
141493	7	Sololá	719	Santiago Atitlán	14	Cerro de Oro	4	Abril	2023-06-04T00:00:00	2024-11-08T05:00:00	6	Velocidad del viento	3.2
141494	7	Sololá	719	Santiago Atitlán	14	Cerro de Oro	4	Abril	2023-06-04T00:00:00	2024-11-08T05:00:00	7	Dirección del viento	3.22
141495	7	Sololá	719	Santiago Atitlán	14	Cerro de Oro	4	Abril	2023-06-04T00:00:00	2024-11-08T05:00:00	1	Precipitación	0
141496	7	Sololá	719	Santiago Atitlán	14	Cerro de Oro	4	Abril	2023-06-04T00:00:00	2024-11-08T05:00:00	8	Radiación solar	0
141497	7	Sololá	719	Santiago Atitlán	14	Cerro de Oro	4	Abril	2023-06-04T00:00:00	2024-11-08T06:00:00	2	Temperatura media	17.1
141498	7	Sololá	719	Santiago Atitlán	14	Cerro de Oro	4	Abril	2023-06-04T00:00:00	2024-11-08T06:00:00	4	Temperatura máxima	17.9
141499	7	Sololá	719	Santiago Atitlán	14	Cerro de Oro	4	Abril	2023-06-04T00:00:00	2024-11-08T06:00:00	3	Temperatura mínima	17
141500	7	Sololá	719	Santiago Atitlán	14	Cerro de Oro	4	Abril	2023-06-04T00:00:00	2024-11-08T06:00:00	5	Humedad	87
141501	7	Sololá	719	Santiago Atitlán	14	Cerro de Oro	4	Abril	2023-06-04T00:00:00	2024-11-08T06:00:00	6	Velocidad del viento	4.8
141502	7	Sololá	719	Santiago Atitlán	14	Cerro de Oro	4	Abril	2023-06-04T00:00:00	2024-11-08T06:00:00	7	Dirección del viento	4.83
141503	7	Sololá	719	Santiago Atitlán	14	Cerro de Oro	4	Abril	2023-06-04T00:00:00	2024-11-08T06:00:00	1	Precipitación	0
141504	7	Sololá	719	Santiago Atitlán	14	Cerro de Oro	4	Abril	2023-06-04T00:00:00	2024-11-08T06:00:00	8	Radiación solar	0
141505	7	Sololá	719	Santiago Atitlán	14	Cerro de Oro	4	Abril	2023-06-04T00:00:00	2024-11-08T07:00:00	2	Temperatura media	16.7
141506	7	Sololá	719	Santiago Atitlán	14	Cerro de Oro	4	Abril	2023-06-04T00:00:00	2024-11-08T07:00:00	4	Temperatura máxima	17.1
141507	7	Sololá	719	Santiago Atitlán	14	Cerro de Oro	4	Abril	2023-06-04T00:00:00	2024-11-08T07:00:00	3	Temperatura mínima	16.6
141508	7	Sololá	719	Santiago Atitlán	14	Cerro de Oro	4	Abril	2023-06-04T00:00:00	2024-11-08T07:00:00	5	Humedad	87
141509	7	Sololá	719	Santiago Atitlán	14	Cerro de Oro	4	Abril	2023-06-04T00:00:00	2024-11-08T07:00:00	6	Velocidad del viento	4.8
141510	7	Sololá	719	Santiago Atitlán	14	Cerro de Oro	4	Abril	2023-06-04T00:00:00	2024-11-08T07:00:00	7	Dirección del viento	4.83
141511	7	Sololá	719	Santiago Atitlán	14	Cerro de Oro	4	Abril	2023-06-04T00:00:00	2024-11-08T07:00:00	1	Precipitación	0
141512	7	Sololá	719	Santiago Atitlán	14	Cerro de Oro	4	Abril	2023-06-04T00:00:00	2024-11-08T07:00:00	8	Radiación solar	0
141513	7	Sololá	719	Santiago Atitlán	14	Cerro de Oro	4	Abril	2023-06-04T00:00:00	2024-11-08T08:00:00	2	Temperatura media	18.7
141514	7	Sololá	719	Santiago Atitlán	14	Cerro de Oro	4	Abril	2023-06-04T00:00:00	2024-11-08T08:00:00	4	Temperatura máxima	18.7
141515	7	Sololá	719	Santiago Atitlán	14	Cerro de Oro	4	Abril	2023-06-04T00:00:00	2024-11-08T08:00:00	3	Temperatura mínima	16.7
141516	7	Sololá	719	Santiago Atitlán	14	Cerro de Oro	4	Abril	2023-06-04T00:00:00	2024-11-08T08:00:00	5	Humedad	83
141517	7	Sololá	719	Santiago Atitlán	14	Cerro de Oro	4	Abril	2023-06-04T00:00:00	2024-11-08T08:00:00	6	Velocidad del viento	1.6
141518	7	Sololá	719	Santiago Atitlán	14	Cerro de Oro	4	Abril	2023-06-04T00:00:00	2024-11-08T08:00:00	7	Dirección del viento	1.61
141519	7	Sololá	719	Santiago Atitlán	14	Cerro de Oro	4	Abril	2023-06-04T00:00:00	2024-11-08T08:00:00	1	Precipitación	0
141520	7	Sololá	719	Santiago Atitlán	14	Cerro de Oro	4	Abril	2023-06-04T00:00:00	2024-11-08T08:00:00	8	Radiación solar	59
141521	7	Sololá	719	Santiago Atitlán	14	Cerro de Oro	4	Abril	2023-06-04T00:00:00	2024-11-08T09:00:00	2	Temperatura media	20.4
141522	7	Sololá	719	Santiago Atitlán	14	Cerro de Oro	4	Abril	2023-06-04T00:00:00	2024-11-08T09:00:00	4	Temperatura máxima	20.4
141523	7	Sololá	719	Santiago Atitlán	14	Cerro de Oro	4	Abril	2023-06-04T00:00:00	2024-11-08T09:00:00	3	Temperatura mínima	18.7
141524	7	Sololá	719	Santiago Atitlán	14	Cerro de Oro	4	Abril	2023-06-04T00:00:00	2024-11-08T09:00:00	5	Humedad	75
141525	7	Sololá	719	Santiago Atitlán	14	Cerro de Oro	4	Abril	2023-06-04T00:00:00	2024-11-08T09:00:00	6	Velocidad del viento	3.2
141526	7	Sololá	719	Santiago Atitlán	14	Cerro de Oro	4	Abril	2023-06-04T00:00:00	2024-11-08T09:00:00	7	Dirección del viento	3.22
141527	7	Sololá	719	Santiago Atitlán	14	Cerro de Oro	4	Abril	2023-06-04T00:00:00	2024-11-08T09:00:00	1	Precipitación	0
141528	7	Sololá	719	Santiago Atitlán	14	Cerro de Oro	4	Abril	2023-06-04T00:00:00	2024-11-08T09:00:00	8	Radiación solar	183
141529	7	Sololá	719	Santiago Atitlán	14	Cerro de Oro	4	Abril	2023-06-04T00:00:00	2024-11-08T10:00:00	2	Temperatura media	21.6
141530	7	Sololá	719	Santiago Atitlán	14	Cerro de Oro	4	Abril	2023-06-04T00:00:00	2024-11-08T10:00:00	4	Temperatura máxima	21.6
141531	7	Sololá	719	Santiago Atitlán	14	Cerro de Oro	4	Abril	2023-06-04T00:00:00	2024-11-08T10:00:00	3	Temperatura mínima	20.4
141532	7	Sololá	719	Santiago Atitlán	14	Cerro de Oro	4	Abril	2023-06-04T00:00:00	2024-11-08T10:00:00	5	Humedad	71
141533	7	Sololá	719	Santiago Atitlán	14	Cerro de Oro	4	Abril	2023-06-04T00:00:00	2024-11-08T10:00:00	6	Velocidad del viento	6.4
141534	7	Sololá	719	Santiago Atitlán	14	Cerro de Oro	4	Abril	2023-06-04T00:00:00	2024-11-08T10:00:00	7	Dirección del viento	6.44
141535	7	Sololá	719	Santiago Atitlán	14	Cerro de Oro	4	Abril	2023-06-04T00:00:00	2024-11-08T10:00:00	1	Precipitación	0
141536	7	Sololá	719	Santiago Atitlán	14	Cerro de Oro	4	Abril	2023-06-04T00:00:00	2024-11-08T10:00:00	8	Radiación solar	452
141537	7	Sololá	719	Santiago Atitlán	14	Cerro de Oro	4	Abril	2023-06-04T00:00:00	2024-11-08T11:00:00	2	Temperatura media	21.9
141538	7	Sololá	719	Santiago Atitlán	14	Cerro de Oro	4	Abril	2023-06-04T00:00:00	2024-11-08T11:00:00	4	Temperatura máxima	21.9
141539	7	Sololá	719	Santiago Atitlán	14	Cerro de Oro	4	Abril	2023-06-04T00:00:00	2024-11-08T11:00:00	3	Temperatura mínima	21.4
141540	7	Sololá	719	Santiago Atitlán	14	Cerro de Oro	4	Abril	2023-06-04T00:00:00	2024-11-08T11:00:00	5	Humedad	71
141541	7	Sololá	719	Santiago Atitlán	14	Cerro de Oro	4	Abril	2023-06-04T00:00:00	2024-11-08T11:00:00	6	Velocidad del viento	11.3
141542	7	Sololá	719	Santiago Atitlán	14	Cerro de Oro	4	Abril	2023-06-04T00:00:00	2024-11-08T11:00:00	7	Dirección del viento	11.27
141543	7	Sololá	719	Santiago Atitlán	14	Cerro de Oro	4	Abril	2023-06-04T00:00:00	2024-11-08T11:00:00	1	Precipitación	0
141544	7	Sololá	719	Santiago Atitlán	14	Cerro de Oro	4	Abril	2023-06-04T00:00:00	2024-11-08T11:00:00	8	Radiación solar	632
141545	7	Sololá	719	Santiago Atitlán	14	Cerro de Oro	4	Abril	2023-06-04T00:00:00	2024-11-08T12:00:00	2	Temperatura media	22.6
141546	7	Sololá	719	Santiago Atitlán	14	Cerro de Oro	4	Abril	2023-06-04T00:00:00	2024-11-08T12:00:00	4	Temperatura máxima	22.8
141547	7	Sololá	719	Santiago Atitlán	14	Cerro de Oro	4	Abril	2023-06-04T00:00:00	2024-11-08T12:00:00	3	Temperatura mínima	21.9
141548	7	Sololá	719	Santiago Atitlán	14	Cerro de Oro	4	Abril	2023-06-04T00:00:00	2024-11-08T12:00:00	5	Humedad	68
141549	7	Sololá	719	Santiago Atitlán	14	Cerro de Oro	4	Abril	2023-06-04T00:00:00	2024-11-08T12:00:00	6	Velocidad del viento	12.9
141550	7	Sololá	719	Santiago Atitlán	14	Cerro de Oro	4	Abril	2023-06-04T00:00:00	2024-11-08T12:00:00	7	Dirección del viento	12.87
141551	7	Sololá	719	Santiago Atitlán	14	Cerro de Oro	4	Abril	2023-06-04T00:00:00	2024-11-08T12:00:00	1	Precipitación	0
141552	7	Sololá	719	Santiago Atitlán	14	Cerro de Oro	4	Abril	2023-06-04T00:00:00	2024-11-08T12:00:00	8	Radiación solar	911
141553	7	Sololá	719	Santiago Atitlán	14	Cerro de Oro	4	Abril	2023-06-04T00:00:00	2024-11-08T13:00:00	2	Temperatura media	22.8
141554	7	Sololá	719	Santiago Atitlán	14	Cerro de Oro	4	Abril	2023-06-04T00:00:00	2024-11-08T13:00:00	4	Temperatura máxima	23.1
141555	7	Sololá	719	Santiago Atitlán	14	Cerro de Oro	4	Abril	2023-06-04T00:00:00	2024-11-08T13:00:00	3	Temperatura mínima	22.6
141556	7	Sololá	719	Santiago Atitlán	14	Cerro de Oro	4	Abril	2023-06-04T00:00:00	2024-11-08T13:00:00	5	Humedad	71
141557	7	Sololá	719	Santiago Atitlán	14	Cerro de Oro	4	Abril	2023-06-04T00:00:00	2024-11-08T13:00:00	6	Velocidad del viento	12.9
141558	7	Sololá	719	Santiago Atitlán	14	Cerro de Oro	4	Abril	2023-06-04T00:00:00	2024-11-08T13:00:00	7	Dirección del viento	12.87
141559	7	Sololá	719	Santiago Atitlán	14	Cerro de Oro	4	Abril	2023-06-04T00:00:00	2024-11-08T13:00:00	1	Precipitación	0
141560	7	Sololá	719	Santiago Atitlán	14	Cerro de Oro	4	Abril	2023-06-04T00:00:00	2024-11-08T13:00:00	8	Radiación solar	790
141561	7	Sololá	719	Santiago Atitlán	14	Cerro de Oro	4	Abril	2023-06-04T00:00:00	2024-11-08T14:00:00	2	Temperatura media	23.3
141562	7	Sololá	719	Santiago Atitlán	14	Cerro de Oro	4	Abril	2023-06-04T00:00:00	2024-11-08T14:00:00	4	Temperatura máxima	23.5
141563	7	Sololá	719	Santiago Atitlán	14	Cerro de Oro	4	Abril	2023-06-04T00:00:00	2024-11-08T14:00:00	3	Temperatura mínima	22.8
141564	7	Sololá	719	Santiago Atitlán	14	Cerro de Oro	4	Abril	2023-06-04T00:00:00	2024-11-08T14:00:00	5	Humedad	69
141565	7	Sololá	719	Santiago Atitlán	14	Cerro de Oro	4	Abril	2023-06-04T00:00:00	2024-11-08T14:00:00	6	Velocidad del viento	12.9
141566	7	Sololá	719	Santiago Atitlán	14	Cerro de Oro	4	Abril	2023-06-04T00:00:00	2024-11-08T14:00:00	7	Dirección del viento	12.87
141567	7	Sololá	719	Santiago Atitlán	14	Cerro de Oro	4	Abril	2023-06-04T00:00:00	2024-11-08T14:00:00	1	Precipitación	0
141568	7	Sololá	719	Santiago Atitlán	14	Cerro de Oro	4	Abril	2023-06-04T00:00:00	2024-11-08T14:00:00	8	Radiación solar	935
141569	7	Sololá	719	Santiago Atitlán	14	Cerro de Oro	4	Abril	2023-06-04T00:00:00	2024-11-08T15:00:00	2	Temperatura media	22.4
141570	7	Sololá	719	Santiago Atitlán	14	Cerro de Oro	4	Abril	2023-06-04T00:00:00	2024-11-08T15:00:00	4	Temperatura máxima	23.6
141571	7	Sololá	719	Santiago Atitlán	14	Cerro de Oro	4	Abril	2023-06-04T00:00:00	2024-11-08T15:00:00	3	Temperatura mínima	22.1
141572	7	Sololá	719	Santiago Atitlán	14	Cerro de Oro	4	Abril	2023-06-04T00:00:00	2024-11-08T15:00:00	5	Humedad	77
141573	7	Sololá	719	Santiago Atitlán	14	Cerro de Oro	4	Abril	2023-06-04T00:00:00	2024-11-08T15:00:00	6	Velocidad del viento	11.3
141574	7	Sololá	719	Santiago Atitlán	14	Cerro de Oro	4	Abril	2023-06-04T00:00:00	2024-11-08T15:00:00	7	Dirección del viento	11.27
141575	7	Sololá	719	Santiago Atitlán	14	Cerro de Oro	4	Abril	2023-06-04T00:00:00	2024-11-08T15:00:00	1	Precipitación	0
141576	7	Sololá	719	Santiago Atitlán	14	Cerro de Oro	4	Abril	2023-06-04T00:00:00	2024-11-08T15:00:00	8	Radiación solar	691
141577	7	Sololá	719	Santiago Atitlán	14	Cerro de Oro	4	Abril	2023-06-04T00:00:00	2024-11-08T16:00:00	2	Temperatura media	22.1
141578	7	Sololá	719	Santiago Atitlán	14	Cerro de Oro	4	Abril	2023-06-04T00:00:00	2024-11-08T16:00:00	4	Temperatura máxima	22.9
141579	7	Sololá	719	Santiago Atitlán	14	Cerro de Oro	4	Abril	2023-06-04T00:00:00	2024-11-08T16:00:00	3	Temperatura mínima	22.1
141580	7	Sololá	719	Santiago Atitlán	14	Cerro de Oro	4	Abril	2023-06-04T00:00:00	2024-11-08T16:00:00	5	Humedad	78
141581	7	Sololá	719	Santiago Atitlán	14	Cerro de Oro	4	Abril	2023-06-04T00:00:00	2024-11-08T16:00:00	6	Velocidad del viento	11.3
141582	7	Sololá	719	Santiago Atitlán	14	Cerro de Oro	4	Abril	2023-06-04T00:00:00	2024-11-08T16:00:00	7	Dirección del viento	11.27
141583	7	Sololá	719	Santiago Atitlán	14	Cerro de Oro	4	Abril	2023-06-04T00:00:00	2024-11-08T16:00:00	1	Precipitación	0
141584	7	Sololá	719	Santiago Atitlán	14	Cerro de Oro	4	Abril	2023-06-04T00:00:00	2024-11-08T16:00:00	8	Radiación solar	527
141585	7	Sololá	719	Santiago Atitlán	14	Cerro de Oro	4	Abril	2023-06-04T00:00:00	2024-11-08T17:00:00	2	Temperatura media	20.8
141586	7	Sololá	719	Santiago Atitlán	14	Cerro de Oro	4	Abril	2023-06-04T00:00:00	2024-11-08T17:00:00	4	Temperatura máxima	22.2
141587	7	Sololá	719	Santiago Atitlán	14	Cerro de Oro	4	Abril	2023-06-04T00:00:00	2024-11-08T17:00:00	3	Temperatura mínima	20.8
141588	7	Sololá	719	Santiago Atitlán	14	Cerro de Oro	4	Abril	2023-06-04T00:00:00	2024-11-08T17:00:00	5	Humedad	81
141589	7	Sololá	719	Santiago Atitlán	14	Cerro de Oro	4	Abril	2023-06-04T00:00:00	2024-11-08T17:00:00	6	Velocidad del viento	9.7
141590	7	Sololá	719	Santiago Atitlán	14	Cerro de Oro	4	Abril	2023-06-04T00:00:00	2024-11-08T17:00:00	7	Dirección del viento	9.66
141591	7	Sololá	719	Santiago Atitlán	14	Cerro de Oro	4	Abril	2023-06-04T00:00:00	2024-11-08T17:00:00	1	Precipitación	0
141592	7	Sololá	719	Santiago Atitlán	14	Cerro de Oro	4	Abril	2023-06-04T00:00:00	2024-11-08T17:00:00	8	Radiación solar	264
141593	7	Sololá	719	Santiago Atitlán	14	Cerro de Oro	4	Abril	2023-06-04T00:00:00	2024-11-08T18:00:00	2	Temperatura media	20.3
141594	7	Sololá	719	Santiago Atitlán	14	Cerro de Oro	4	Abril	2023-06-04T00:00:00	2024-11-08T18:00:00	4	Temperatura máxima	21.2
141595	7	Sololá	719	Santiago Atitlán	14	Cerro de Oro	4	Abril	2023-06-04T00:00:00	2024-11-08T18:00:00	3	Temperatura mínima	20.3
141596	7	Sololá	719	Santiago Atitlán	14	Cerro de Oro	4	Abril	2023-06-04T00:00:00	2024-11-08T18:00:00	5	Humedad	82
141597	7	Sololá	719	Santiago Atitlán	14	Cerro de Oro	4	Abril	2023-06-04T00:00:00	2024-11-08T18:00:00	6	Velocidad del viento	9.7
141598	7	Sololá	719	Santiago Atitlán	14	Cerro de Oro	4	Abril	2023-06-04T00:00:00	2024-11-08T18:00:00	7	Dirección del viento	9.66
141599	7	Sololá	719	Santiago Atitlán	14	Cerro de Oro	4	Abril	2023-06-04T00:00:00	2024-11-08T18:00:00	1	Precipitación	0
141600	7	Sololá	719	Santiago Atitlán	14	Cerro de Oro	4	Abril	2023-06-04T00:00:00	2024-11-08T18:00:00	8	Radiación solar	172
141601	7	Sololá	719	Santiago Atitlán	14	Cerro de Oro	4	Abril	2023-06-04T00:00:00	2024-11-08T19:00:00	2	Temperatura media	19.2
141602	7	Sololá	719	Santiago Atitlán	14	Cerro de Oro	4	Abril	2023-06-04T00:00:00	2024-11-08T19:00:00	4	Temperatura máxima	20.3
141603	7	Sololá	719	Santiago Atitlán	14	Cerro de Oro	4	Abril	2023-06-04T00:00:00	2024-11-08T19:00:00	3	Temperatura mínima	19.2
141604	7	Sololá	719	Santiago Atitlán	14	Cerro de Oro	4	Abril	2023-06-04T00:00:00	2024-11-08T19:00:00	5	Humedad	85
141605	7	Sololá	719	Santiago Atitlán	14	Cerro de Oro	4	Abril	2023-06-04T00:00:00	2024-11-08T19:00:00	6	Velocidad del viento	9.7
141606	7	Sololá	719	Santiago Atitlán	14	Cerro de Oro	4	Abril	2023-06-04T00:00:00	2024-11-08T19:00:00	7	Dirección del viento	9.66
141607	7	Sololá	719	Santiago Atitlán	14	Cerro de Oro	4	Abril	2023-06-04T00:00:00	2024-11-08T19:00:00	1	Precipitación	0
141608	7	Sololá	719	Santiago Atitlán	14	Cerro de Oro	4	Abril	2023-06-04T00:00:00	2024-11-08T19:00:00	8	Radiación solar	0
141609	7	Sololá	719	Santiago Atitlán	14	Cerro de Oro	4	Abril	2023-06-04T00:00:00	2024-11-08T20:00:00	2	Temperatura media	19.6
141610	7	Sololá	719	Santiago Atitlán	14	Cerro de Oro	4	Abril	2023-06-04T00:00:00	2024-11-08T20:00:00	4	Temperatura máxima	19.6
141611	7	Sololá	719	Santiago Atitlán	14	Cerro de Oro	4	Abril	2023-06-04T00:00:00	2024-11-08T20:00:00	3	Temperatura mínima	19.1
141612	7	Sololá	719	Santiago Atitlán	14	Cerro de Oro	4	Abril	2023-06-04T00:00:00	2024-11-08T20:00:00	5	Humedad	83
141613	7	Sololá	719	Santiago Atitlán	14	Cerro de Oro	4	Abril	2023-06-04T00:00:00	2024-11-08T20:00:00	6	Velocidad del viento	3.2
141614	7	Sololá	719	Santiago Atitlán	14	Cerro de Oro	4	Abril	2023-06-04T00:00:00	2024-11-08T20:00:00	7	Dirección del viento	3.22
141615	7	Sololá	719	Santiago Atitlán	14	Cerro de Oro	4	Abril	2023-06-04T00:00:00	2024-11-08T20:00:00	1	Precipitación	0
141616	7	Sololá	719	Santiago Atitlán	14	Cerro de Oro	4	Abril	2023-06-04T00:00:00	2024-11-08T20:00:00	8	Radiación solar	0
141617	7	Sololá	719	Santiago Atitlán	14	Cerro de Oro	4	Abril	2023-06-04T00:00:00	2024-11-08T21:00:00	2	Temperatura media	18.9
141618	7	Sololá	719	Santiago Atitlán	14	Cerro de Oro	4	Abril	2023-06-04T00:00:00	2024-11-08T21:00:00	4	Temperatura máxima	19.6
141619	7	Sololá	719	Santiago Atitlán	14	Cerro de Oro	4	Abril	2023-06-04T00:00:00	2024-11-08T21:00:00	3	Temperatura mínima	18.9
141620	7	Sololá	719	Santiago Atitlán	14	Cerro de Oro	4	Abril	2023-06-04T00:00:00	2024-11-08T21:00:00	5	Humedad	85
141621	7	Sololá	719	Santiago Atitlán	14	Cerro de Oro	4	Abril	2023-06-04T00:00:00	2024-11-08T21:00:00	6	Velocidad del viento	4.8
141622	7	Sololá	719	Santiago Atitlán	14	Cerro de Oro	4	Abril	2023-06-04T00:00:00	2024-11-08T21:00:00	7	Dirección del viento	4.83
141623	7	Sololá	719	Santiago Atitlán	14	Cerro de Oro	4	Abril	2023-06-04T00:00:00	2024-11-08T21:00:00	1	Precipitación	0
141624	7	Sololá	719	Santiago Atitlán	14	Cerro de Oro	4	Abril	2023-06-04T00:00:00	2024-11-08T21:00:00	8	Radiación solar	0
141625	7	Sololá	719	Santiago Atitlán	14	Cerro de Oro	4	Abril	2023-06-04T00:00:00	2024-11-08T22:00:00	2	Temperatura media	18.2
141626	7	Sololá	719	Santiago Atitlán	14	Cerro de Oro	4	Abril	2023-06-04T00:00:00	2024-11-08T22:00:00	4	Temperatura máxima	18.9
141627	7	Sololá	719	Santiago Atitlán	14	Cerro de Oro	4	Abril	2023-06-04T00:00:00	2024-11-08T22:00:00	3	Temperatura mínima	18.1
141628	7	Sololá	719	Santiago Atitlán	14	Cerro de Oro	4	Abril	2023-06-04T00:00:00	2024-11-08T22:00:00	5	Humedad	86
141629	7	Sololá	719	Santiago Atitlán	14	Cerro de Oro	4	Abril	2023-06-04T00:00:00	2024-11-08T22:00:00	6	Velocidad del viento	3.2
141630	7	Sololá	719	Santiago Atitlán	14	Cerro de Oro	4	Abril	2023-06-04T00:00:00	2024-11-08T22:00:00	7	Dirección del viento	3.22
141631	7	Sololá	719	Santiago Atitlán	14	Cerro de Oro	4	Abril	2023-06-04T00:00:00	2024-11-08T22:00:00	1	Precipitación	0
141632	7	Sololá	719	Santiago Atitlán	14	Cerro de Oro	4	Abril	2023-06-04T00:00:00	2024-11-08T22:00:00	8	Radiación solar	0
141633	7	Sololá	719	Santiago Atitlán	14	Cerro de Oro	4	Abril	2023-06-04T00:00:00	2024-11-08T23:00:00	2	Temperatura media	18.3
141634	7	Sololá	719	Santiago Atitlán	14	Cerro de Oro	4	Abril	2023-06-04T00:00:00	2024-11-08T23:00:00	4	Temperatura máxima	18.3
141635	7	Sololá	719	Santiago Atitlán	14	Cerro de Oro	4	Abril	2023-06-04T00:00:00	2024-11-08T23:00:00	3	Temperatura mínima	18
141636	7	Sololá	719	Santiago Atitlán	14	Cerro de Oro	4	Abril	2023-06-04T00:00:00	2024-11-08T23:00:00	5	Humedad	86
141637	7	Sololá	719	Santiago Atitlán	14	Cerro de Oro	4	Abril	2023-06-04T00:00:00	2024-11-08T23:00:00	6	Velocidad del viento	3.2
141638	7	Sololá	719	Santiago Atitlán	14	Cerro de Oro	4	Abril	2023-06-04T00:00:00	2024-11-08T23:00:00	7	Dirección del viento	3.22
141639	7	Sololá	719	Santiago Atitlán	14	Cerro de Oro	4	Abril	2023-06-04T00:00:00	2024-11-08T23:00:00	1	Precipitación	0
141640	7	Sololá	719	Santiago Atitlán	14	Cerro de Oro	4	Abril	2023-06-04T00:00:00	2024-11-08T23:00:00	8	Radiación solar	0
141641	7	Sololá	719	Santiago Atitlán	14	Cerro de Oro	4	Abril	2023-07-04T00:00:00	2024-11-08T00:00:00	2	Temperatura media	17.9
141642	7	Sololá	719	Santiago Atitlán	14	Cerro de Oro	4	Abril	2023-07-04T00:00:00	2024-11-08T00:00:00	4	Temperatura máxima	18.6
141643	7	Sololá	719	Santiago Atitlán	14	Cerro de Oro	4	Abril	2023-07-04T00:00:00	2024-11-08T00:00:00	3	Temperatura mínima	17.9
141644	7	Sololá	719	Santiago Atitlán	14	Cerro de Oro	4	Abril	2023-07-04T00:00:00	2024-11-08T00:00:00	5	Humedad	87
141645	7	Sololá	719	Santiago Atitlán	14	Cerro de Oro	4	Abril	2023-07-04T00:00:00	2024-11-08T00:00:00	6	Velocidad del viento	3.2
141646	7	Sololá	719	Santiago Atitlán	14	Cerro de Oro	4	Abril	2023-07-04T00:00:00	2024-11-08T00:00:00	7	Dirección del viento	3.22
141647	7	Sololá	719	Santiago Atitlán	14	Cerro de Oro	4	Abril	2023-07-04T00:00:00	2024-11-08T00:00:00	1	Precipitación	0
141648	7	Sololá	719	Santiago Atitlán	14	Cerro de Oro	4	Abril	2023-07-04T00:00:00	2024-11-08T00:00:00	8	Radiación solar	0
141649	7	Sololá	719	Santiago Atitlán	14	Cerro de Oro	4	Abril	2023-07-04T00:00:00	2024-11-08T01:00:00	2	Temperatura media	17.8
141650	7	Sololá	719	Santiago Atitlán	14	Cerro de Oro	4	Abril	2023-07-04T00:00:00	2024-11-08T01:00:00	4	Temperatura máxima	18.2
141651	7	Sololá	719	Santiago Atitlán	14	Cerro de Oro	4	Abril	2023-07-04T00:00:00	2024-11-08T01:00:00	3	Temperatura mínima	17.8
141652	7	Sololá	719	Santiago Atitlán	14	Cerro de Oro	4	Abril	2023-07-04T00:00:00	2024-11-08T01:00:00	5	Humedad	88
141653	7	Sololá	719	Santiago Atitlán	14	Cerro de Oro	4	Abril	2023-07-04T00:00:00	2024-11-08T01:00:00	6	Velocidad del viento	3.2
141654	7	Sololá	719	Santiago Atitlán	14	Cerro de Oro	4	Abril	2023-07-04T00:00:00	2024-11-08T01:00:00	7	Dirección del viento	3.22
141655	7	Sololá	719	Santiago Atitlán	14	Cerro de Oro	4	Abril	2023-07-04T00:00:00	2024-11-08T01:00:00	1	Precipitación	0
141656	7	Sololá	719	Santiago Atitlán	14	Cerro de Oro	4	Abril	2023-07-04T00:00:00	2024-11-08T01:00:00	8	Radiación solar	0
141657	7	Sololá	719	Santiago Atitlán	14	Cerro de Oro	4	Abril	2023-07-04T00:00:00	2024-11-08T02:00:00	2	Temperatura media	18
141658	7	Sololá	719	Santiago Atitlán	14	Cerro de Oro	4	Abril	2023-07-04T00:00:00	2024-11-08T02:00:00	4	Temperatura máxima	18.2
141659	7	Sololá	719	Santiago Atitlán	14	Cerro de Oro	4	Abril	2023-07-04T00:00:00	2024-11-08T02:00:00	3	Temperatura mínima	17.6
141660	7	Sololá	719	Santiago Atitlán	14	Cerro de Oro	4	Abril	2023-07-04T00:00:00	2024-11-08T02:00:00	5	Humedad	80
141661	7	Sololá	719	Santiago Atitlán	14	Cerro de Oro	4	Abril	2023-07-04T00:00:00	2024-11-08T02:00:00	6	Velocidad del viento	3.2
141662	7	Sololá	719	Santiago Atitlán	14	Cerro de Oro	4	Abril	2023-07-04T00:00:00	2024-11-08T02:00:00	7	Dirección del viento	3.22
141663	7	Sololá	719	Santiago Atitlán	14	Cerro de Oro	4	Abril	2023-07-04T00:00:00	2024-11-08T02:00:00	1	Precipitación	0
141664	7	Sololá	719	Santiago Atitlán	14	Cerro de Oro	4	Abril	2023-07-04T00:00:00	2024-11-08T02:00:00	8	Radiación solar	0
141665	7	Sololá	719	Santiago Atitlán	14	Cerro de Oro	4	Abril	2023-07-04T00:00:00	2024-11-08T03:00:00	2	Temperatura media	17.6
141666	7	Sololá	719	Santiago Atitlán	14	Cerro de Oro	4	Abril	2023-07-04T00:00:00	2024-11-08T03:00:00	4	Temperatura máxima	18.3
141667	7	Sololá	719	Santiago Atitlán	14	Cerro de Oro	4	Abril	2023-07-04T00:00:00	2024-11-08T03:00:00	3	Temperatura mínima	17.6
141668	7	Sololá	719	Santiago Atitlán	14	Cerro de Oro	4	Abril	2023-07-04T00:00:00	2024-11-08T03:00:00	5	Humedad	80
141669	7	Sololá	719	Santiago Atitlán	14	Cerro de Oro	4	Abril	2023-07-04T00:00:00	2024-11-08T03:00:00	6	Velocidad del viento	4.8
141670	7	Sololá	719	Santiago Atitlán	14	Cerro de Oro	4	Abril	2023-07-04T00:00:00	2024-11-08T03:00:00	7	Dirección del viento	4.83
141671	7	Sololá	719	Santiago Atitlán	14	Cerro de Oro	4	Abril	2023-07-04T00:00:00	2024-11-08T03:00:00	1	Precipitación	0
141672	7	Sololá	719	Santiago Atitlán	14	Cerro de Oro	4	Abril	2023-07-04T00:00:00	2024-11-08T03:00:00	8	Radiación solar	0
141673	7	Sololá	719	Santiago Atitlán	14	Cerro de Oro	4	Abril	2023-07-04T00:00:00	2024-11-08T04:00:00	2	Temperatura media	17.2
141674	7	Sololá	719	Santiago Atitlán	14	Cerro de Oro	4	Abril	2023-07-04T00:00:00	2024-11-08T04:00:00	4	Temperatura máxima	17.8
141675	7	Sololá	719	Santiago Atitlán	14	Cerro de Oro	4	Abril	2023-07-04T00:00:00	2024-11-08T04:00:00	3	Temperatura mínima	17.1
141676	7	Sololá	719	Santiago Atitlán	14	Cerro de Oro	4	Abril	2023-07-04T00:00:00	2024-11-08T04:00:00	5	Humedad	78
141677	7	Sololá	719	Santiago Atitlán	14	Cerro de Oro	4	Abril	2023-07-04T00:00:00	2024-11-08T04:00:00	6	Velocidad del viento	4.8
141678	7	Sololá	719	Santiago Atitlán	14	Cerro de Oro	4	Abril	2023-07-04T00:00:00	2024-11-08T04:00:00	7	Dirección del viento	4.83
141679	7	Sololá	719	Santiago Atitlán	14	Cerro de Oro	4	Abril	2023-07-04T00:00:00	2024-11-08T04:00:00	1	Precipitación	0
141680	7	Sololá	719	Santiago Atitlán	14	Cerro de Oro	4	Abril	2023-07-04T00:00:00	2024-11-08T04:00:00	8	Radiación solar	0
141681	7	Sololá	719	Santiago Atitlán	14	Cerro de Oro	4	Abril	2023-07-04T00:00:00	2024-11-08T05:00:00	2	Temperatura media	17.5
141682	7	Sololá	719	Santiago Atitlán	14	Cerro de Oro	4	Abril	2023-07-04T00:00:00	2024-11-08T05:00:00	4	Temperatura máxima	18.1
141683	7	Sololá	719	Santiago Atitlán	14	Cerro de Oro	4	Abril	2023-07-04T00:00:00	2024-11-08T05:00:00	3	Temperatura mínima	16.9
141684	7	Sololá	719	Santiago Atitlán	14	Cerro de Oro	4	Abril	2023-07-04T00:00:00	2024-11-08T05:00:00	5	Humedad	75
141685	7	Sololá	719	Santiago Atitlán	14	Cerro de Oro	4	Abril	2023-07-04T00:00:00	2024-11-08T05:00:00	6	Velocidad del viento	4.8
141686	7	Sololá	719	Santiago Atitlán	14	Cerro de Oro	4	Abril	2023-07-04T00:00:00	2024-11-08T05:00:00	7	Dirección del viento	4.83
141687	7	Sololá	719	Santiago Atitlán	14	Cerro de Oro	4	Abril	2023-07-04T00:00:00	2024-11-08T05:00:00	1	Precipitación	0
141688	7	Sololá	719	Santiago Atitlán	14	Cerro de Oro	4	Abril	2023-07-04T00:00:00	2024-11-08T05:00:00	8	Radiación solar	0
141689	7	Sololá	719	Santiago Atitlán	14	Cerro de Oro	4	Abril	2023-07-04T00:00:00	2024-11-08T06:00:00	2	Temperatura media	17.6
141690	7	Sololá	719	Santiago Atitlán	14	Cerro de Oro	4	Abril	2023-07-04T00:00:00	2024-11-08T06:00:00	4	Temperatura máxima	18
141691	7	Sololá	719	Santiago Atitlán	14	Cerro de Oro	4	Abril	2023-07-04T00:00:00	2024-11-08T06:00:00	3	Temperatura mínima	17.3
141692	7	Sololá	719	Santiago Atitlán	14	Cerro de Oro	4	Abril	2023-07-04T00:00:00	2024-11-08T06:00:00	5	Humedad	78
141693	7	Sololá	719	Santiago Atitlán	14	Cerro de Oro	4	Abril	2023-07-04T00:00:00	2024-11-08T06:00:00	6	Velocidad del viento	4.8
141694	7	Sololá	719	Santiago Atitlán	14	Cerro de Oro	4	Abril	2023-07-04T00:00:00	2024-11-08T06:00:00	7	Dirección del viento	4.83
141695	7	Sololá	719	Santiago Atitlán	14	Cerro de Oro	4	Abril	2023-07-04T00:00:00	2024-11-08T06:00:00	1	Precipitación	0
141696	7	Sololá	719	Santiago Atitlán	14	Cerro de Oro	4	Abril	2023-07-04T00:00:00	2024-11-08T06:00:00	8	Radiación solar	0
141697	7	Sololá	719	Santiago Atitlán	14	Cerro de Oro	4	Abril	2023-07-04T00:00:00	2024-11-08T07:00:00	2	Temperatura media	17.2
141698	7	Sololá	719	Santiago Atitlán	14	Cerro de Oro	4	Abril	2023-07-04T00:00:00	2024-11-08T07:00:00	4	Temperatura máxima	17.5
141699	7	Sololá	719	Santiago Atitlán	14	Cerro de Oro	4	Abril	2023-07-04T00:00:00	2024-11-08T07:00:00	3	Temperatura mínima	16.8
141700	7	Sololá	719	Santiago Atitlán	14	Cerro de Oro	4	Abril	2023-07-04T00:00:00	2024-11-08T07:00:00	5	Humedad	76
141701	7	Sololá	719	Santiago Atitlán	14	Cerro de Oro	4	Abril	2023-07-04T00:00:00	2024-11-08T07:00:00	6	Velocidad del viento	4.8
141702	7	Sololá	719	Santiago Atitlán	14	Cerro de Oro	4	Abril	2023-07-04T00:00:00	2024-11-08T07:00:00	7	Dirección del viento	4.83
141703	7	Sololá	719	Santiago Atitlán	14	Cerro de Oro	4	Abril	2023-07-04T00:00:00	2024-11-08T07:00:00	1	Precipitación	0
141704	7	Sololá	719	Santiago Atitlán	14	Cerro de Oro	4	Abril	2023-07-04T00:00:00	2024-11-08T07:00:00	8	Radiación solar	58
141705	7	Sololá	719	Santiago Atitlán	14	Cerro de Oro	4	Abril	2023-07-04T00:00:00	2024-11-08T08:00:00	2	Temperatura media	18.2
141706	7	Sololá	719	Santiago Atitlán	14	Cerro de Oro	4	Abril	2023-07-04T00:00:00	2024-11-08T08:00:00	4	Temperatura máxima	18.2
141707	7	Sololá	719	Santiago Atitlán	14	Cerro de Oro	4	Abril	2023-07-04T00:00:00	2024-11-08T08:00:00	3	Temperatura mínima	16.7
141708	7	Sololá	719	Santiago Atitlán	14	Cerro de Oro	4	Abril	2023-07-04T00:00:00	2024-11-08T08:00:00	5	Humedad	75
141709	7	Sololá	719	Santiago Atitlán	14	Cerro de Oro	4	Abril	2023-07-04T00:00:00	2024-11-08T08:00:00	6	Velocidad del viento	4.8
141710	7	Sololá	719	Santiago Atitlán	14	Cerro de Oro	4	Abril	2023-07-04T00:00:00	2024-11-08T08:00:00	7	Dirección del viento	4.83
141711	7	Sololá	719	Santiago Atitlán	14	Cerro de Oro	4	Abril	2023-07-04T00:00:00	2024-11-08T08:00:00	1	Precipitación	0
141712	7	Sololá	719	Santiago Atitlán	14	Cerro de Oro	4	Abril	2023-07-04T00:00:00	2024-11-08T08:00:00	8	Radiación solar	242
141713	7	Sololá	719	Santiago Atitlán	14	Cerro de Oro	4	Abril	2023-07-04T00:00:00	2024-11-08T09:00:00	2	Temperatura media	19.6
141714	7	Sololá	719	Santiago Atitlán	14	Cerro de Oro	4	Abril	2023-07-04T00:00:00	2024-11-08T09:00:00	4	Temperatura máxima	19.6
141715	7	Sololá	719	Santiago Atitlán	14	Cerro de Oro	4	Abril	2023-07-04T00:00:00	2024-11-08T09:00:00	3	Temperatura mínima	18.2
141716	7	Sololá	719	Santiago Atitlán	14	Cerro de Oro	4	Abril	2023-07-04T00:00:00	2024-11-08T09:00:00	5	Humedad	72
141717	7	Sololá	719	Santiago Atitlán	14	Cerro de Oro	4	Abril	2023-07-04T00:00:00	2024-11-08T09:00:00	6	Velocidad del viento	3.2
141718	7	Sololá	719	Santiago Atitlán	14	Cerro de Oro	4	Abril	2023-07-04T00:00:00	2024-11-08T09:00:00	7	Dirección del viento	3.22
141719	7	Sololá	719	Santiago Atitlán	14	Cerro de Oro	4	Abril	2023-07-04T00:00:00	2024-11-08T09:00:00	1	Precipitación	0
141720	7	Sololá	719	Santiago Atitlán	14	Cerro de Oro	4	Abril	2023-07-04T00:00:00	2024-11-08T09:00:00	8	Radiación solar	401
141721	7	Sololá	719	Santiago Atitlán	14	Cerro de Oro	4	Abril	2023-07-04T00:00:00	2024-11-08T10:00:00	2	Temperatura media	20.8
141722	7	Sololá	719	Santiago Atitlán	14	Cerro de Oro	4	Abril	2023-07-04T00:00:00	2024-11-08T10:00:00	4	Temperatura máxima	20.8
141723	7	Sololá	719	Santiago Atitlán	14	Cerro de Oro	4	Abril	2023-07-04T00:00:00	2024-11-08T10:00:00	3	Temperatura mínima	19.6
141724	7	Sololá	719	Santiago Atitlán	14	Cerro de Oro	4	Abril	2023-07-04T00:00:00	2024-11-08T10:00:00	5	Humedad	69
141725	7	Sololá	719	Santiago Atitlán	14	Cerro de Oro	4	Abril	2023-07-04T00:00:00	2024-11-08T10:00:00	6	Velocidad del viento	4.8
141726	7	Sololá	719	Santiago Atitlán	14	Cerro de Oro	4	Abril	2023-07-04T00:00:00	2024-11-08T10:00:00	7	Dirección del viento	4.83
141727	7	Sololá	719	Santiago Atitlán	14	Cerro de Oro	4	Abril	2023-07-04T00:00:00	2024-11-08T10:00:00	1	Precipitación	0
141728	7	Sololá	719	Santiago Atitlán	14	Cerro de Oro	4	Abril	2023-07-04T00:00:00	2024-11-08T10:00:00	8	Radiación solar	591
141729	7	Sololá	719	Santiago Atitlán	14	Cerro de Oro	4	Abril	2023-07-04T00:00:00	2024-11-08T11:00:00	2	Temperatura media	21.9
141730	7	Sololá	719	Santiago Atitlán	14	Cerro de Oro	4	Abril	2023-07-04T00:00:00	2024-11-08T11:00:00	4	Temperatura máxima	21.9
141731	7	Sololá	719	Santiago Atitlán	14	Cerro de Oro	4	Abril	2023-07-04T00:00:00	2024-11-08T11:00:00	3	Temperatura mínima	20.8
141732	7	Sololá	719	Santiago Atitlán	14	Cerro de Oro	4	Abril	2023-07-04T00:00:00	2024-11-08T11:00:00	5	Humedad	64
141733	7	Sololá	719	Santiago Atitlán	14	Cerro de Oro	4	Abril	2023-07-04T00:00:00	2024-11-08T11:00:00	6	Velocidad del viento	4.8
141734	7	Sololá	719	Santiago Atitlán	14	Cerro de Oro	4	Abril	2023-07-04T00:00:00	2024-11-08T11:00:00	7	Dirección del viento	4.83
141735	7	Sololá	719	Santiago Atitlán	14	Cerro de Oro	4	Abril	2023-07-04T00:00:00	2024-11-08T11:00:00	1	Precipitación	0
141736	7	Sololá	719	Santiago Atitlán	14	Cerro de Oro	4	Abril	2023-07-04T00:00:00	2024-11-08T11:00:00	8	Radiación solar	819
141737	7	Sololá	719	Santiago Atitlán	14	Cerro de Oro	4	Abril	2023-07-04T00:00:00	2024-11-08T12:00:00	2	Temperatura media	23.2
141738	7	Sololá	719	Santiago Atitlán	14	Cerro de Oro	4	Abril	2023-07-04T00:00:00	2024-11-08T12:00:00	4	Temperatura máxima	23.3
141739	7	Sololá	719	Santiago Atitlán	14	Cerro de Oro	4	Abril	2023-07-04T00:00:00	2024-11-08T12:00:00	3	Temperatura mínima	21.8
141740	7	Sololá	719	Santiago Atitlán	14	Cerro de Oro	4	Abril	2023-07-04T00:00:00	2024-11-08T12:00:00	5	Humedad	65
141741	7	Sololá	719	Santiago Atitlán	14	Cerro de Oro	4	Abril	2023-07-04T00:00:00	2024-11-08T12:00:00	6	Velocidad del viento	9.7
141742	7	Sololá	719	Santiago Atitlán	14	Cerro de Oro	4	Abril	2023-07-04T00:00:00	2024-11-08T12:00:00	7	Dirección del viento	9.66
141743	7	Sololá	719	Santiago Atitlán	14	Cerro de Oro	4	Abril	2023-07-04T00:00:00	2024-11-08T12:00:00	1	Precipitación	0
141744	7	Sololá	719	Santiago Atitlán	14	Cerro de Oro	4	Abril	2023-07-04T00:00:00	2024-11-08T12:00:00	8	Radiación solar	916
141745	7	Sololá	719	Santiago Atitlán	14	Cerro de Oro	4	Abril	2023-07-04T00:00:00	2024-11-08T13:00:00	2	Temperatura media	22.8
141746	7	Sololá	719	Santiago Atitlán	14	Cerro de Oro	4	Abril	2023-07-04T00:00:00	2024-11-08T13:00:00	4	Temperatura máxima	23.2
141747	7	Sololá	719	Santiago Atitlán	14	Cerro de Oro	4	Abril	2023-07-04T00:00:00	2024-11-08T13:00:00	3	Temperatura mínima	22.6
141748	7	Sololá	719	Santiago Atitlán	14	Cerro de Oro	4	Abril	2023-07-04T00:00:00	2024-11-08T13:00:00	5	Humedad	67
141749	7	Sololá	719	Santiago Atitlán	14	Cerro de Oro	4	Abril	2023-07-04T00:00:00	2024-11-08T13:00:00	6	Velocidad del viento	14.5
141750	7	Sololá	719	Santiago Atitlán	14	Cerro de Oro	4	Abril	2023-07-04T00:00:00	2024-11-08T13:00:00	7	Dirección del viento	14.48
141751	7	Sololá	719	Santiago Atitlán	14	Cerro de Oro	4	Abril	2023-07-04T00:00:00	2024-11-08T13:00:00	1	Precipitación	0
141752	7	Sololá	719	Santiago Atitlán	14	Cerro de Oro	4	Abril	2023-07-04T00:00:00	2024-11-08T13:00:00	8	Radiación solar	906
141753	7	Sololá	719	Santiago Atitlán	14	Cerro de Oro	4	Abril	2023-07-04T00:00:00	2024-11-08T14:00:00	2	Temperatura media	22.6
141754	7	Sololá	719	Santiago Atitlán	14	Cerro de Oro	4	Abril	2023-07-04T00:00:00	2024-11-08T14:00:00	4	Temperatura máxima	23.2
141755	7	Sololá	719	Santiago Atitlán	14	Cerro de Oro	4	Abril	2023-07-04T00:00:00	2024-11-08T14:00:00	3	Temperatura mínima	22.5
141756	7	Sololá	719	Santiago Atitlán	14	Cerro de Oro	4	Abril	2023-07-04T00:00:00	2024-11-08T14:00:00	5	Humedad	69
141757	7	Sololá	719	Santiago Atitlán	14	Cerro de Oro	4	Abril	2023-07-04T00:00:00	2024-11-08T14:00:00	6	Velocidad del viento	14.5
141758	7	Sololá	719	Santiago Atitlán	14	Cerro de Oro	4	Abril	2023-07-04T00:00:00	2024-11-08T14:00:00	7	Dirección del viento	14.48
141759	7	Sololá	719	Santiago Atitlán	14	Cerro de Oro	4	Abril	2023-07-04T00:00:00	2024-11-08T14:00:00	1	Precipitación	0
141760	7	Sololá	719	Santiago Atitlán	14	Cerro de Oro	4	Abril	2023-07-04T00:00:00	2024-11-08T14:00:00	8	Radiación solar	551
141761	7	Sololá	719	Santiago Atitlán	14	Cerro de Oro	4	Abril	2023-07-04T00:00:00	2024-11-08T15:00:00	2	Temperatura media	21.6
141762	7	Sololá	719	Santiago Atitlán	14	Cerro de Oro	4	Abril	2023-07-04T00:00:00	2024-11-08T15:00:00	4	Temperatura máxima	23.1
141763	7	Sololá	719	Santiago Atitlán	14	Cerro de Oro	4	Abril	2023-07-04T00:00:00	2024-11-08T15:00:00	3	Temperatura mínima	21.5
141764	7	Sololá	719	Santiago Atitlán	14	Cerro de Oro	4	Abril	2023-07-04T00:00:00	2024-11-08T15:00:00	5	Humedad	75
141765	7	Sololá	719	Santiago Atitlán	14	Cerro de Oro	4	Abril	2023-07-04T00:00:00	2024-11-08T15:00:00	6	Velocidad del viento	12.9
141766	7	Sololá	719	Santiago Atitlán	14	Cerro de Oro	4	Abril	2023-07-04T00:00:00	2024-11-08T15:00:00	7	Dirección del viento	12.87
141767	7	Sololá	719	Santiago Atitlán	14	Cerro de Oro	4	Abril	2023-07-04T00:00:00	2024-11-08T15:00:00	1	Precipitación	0
141768	7	Sololá	719	Santiago Atitlán	14	Cerro de Oro	4	Abril	2023-07-04T00:00:00	2024-11-08T15:00:00	8	Radiación solar	387
141769	7	Sololá	719	Santiago Atitlán	14	Cerro de Oro	4	Abril	2023-07-04T00:00:00	2024-11-08T16:00:00	2	Temperatura media	21.9
141770	7	Sololá	719	Santiago Atitlán	14	Cerro de Oro	4	Abril	2023-07-04T00:00:00	2024-11-08T16:00:00	4	Temperatura máxima	22.3
141771	7	Sololá	719	Santiago Atitlán	14	Cerro de Oro	4	Abril	2023-07-04T00:00:00	2024-11-08T16:00:00	3	Temperatura mínima	21.6
141772	7	Sololá	719	Santiago Atitlán	14	Cerro de Oro	4	Abril	2023-07-04T00:00:00	2024-11-08T16:00:00	5	Humedad	73
141773	7	Sololá	719	Santiago Atitlán	14	Cerro de Oro	4	Abril	2023-07-04T00:00:00	2024-11-08T16:00:00	6	Velocidad del viento	11.3
141774	7	Sololá	719	Santiago Atitlán	14	Cerro de Oro	4	Abril	2023-07-04T00:00:00	2024-11-08T16:00:00	7	Dirección del viento	11.27
141775	7	Sololá	719	Santiago Atitlán	14	Cerro de Oro	4	Abril	2023-07-04T00:00:00	2024-11-08T16:00:00	1	Precipitación	0
141776	7	Sololá	719	Santiago Atitlán	14	Cerro de Oro	4	Abril	2023-07-04T00:00:00	2024-11-08T16:00:00	8	Radiación solar	247
141777	7	Sololá	719	Santiago Atitlán	14	Cerro de Oro	4	Abril	2023-07-04T00:00:00	2024-11-08T17:00:00	2	Temperatura media	21.1
141778	7	Sololá	719	Santiago Atitlán	14	Cerro de Oro	4	Abril	2023-07-04T00:00:00	2024-11-08T17:00:00	4	Temperatura máxima	22.1
141779	7	Sololá	719	Santiago Atitlán	14	Cerro de Oro	4	Abril	2023-07-04T00:00:00	2024-11-08T17:00:00	3	Temperatura mínima	21.1
141780	7	Sololá	719	Santiago Atitlán	14	Cerro de Oro	4	Abril	2023-07-04T00:00:00	2024-11-08T17:00:00	5	Humedad	79
141781	7	Sololá	719	Santiago Atitlán	14	Cerro de Oro	4	Abril	2023-07-04T00:00:00	2024-11-08T17:00:00	6	Velocidad del viento	9.7
141782	7	Sololá	719	Santiago Atitlán	14	Cerro de Oro	4	Abril	2023-07-04T00:00:00	2024-11-08T17:00:00	7	Dirección del viento	9.66
141783	7	Sololá	719	Santiago Atitlán	14	Cerro de Oro	4	Abril	2023-07-04T00:00:00	2024-11-08T17:00:00	1	Precipitación	0
141784	7	Sololá	719	Santiago Atitlán	14	Cerro de Oro	4	Abril	2023-07-04T00:00:00	2024-11-08T17:00:00	8	Radiación solar	129
141785	7	Sololá	719	Santiago Atitlán	14	Cerro de Oro	4	Abril	2023-07-04T00:00:00	2024-11-08T18:00:00	2	Temperatura media	20
141786	7	Sololá	719	Santiago Atitlán	14	Cerro de Oro	4	Abril	2023-07-04T00:00:00	2024-11-08T18:00:00	4	Temperatura máxima	21.1
141787	7	Sololá	719	Santiago Atitlán	14	Cerro de Oro	4	Abril	2023-07-04T00:00:00	2024-11-08T18:00:00	3	Temperatura mínima	19.9
141788	7	Sololá	719	Santiago Atitlán	14	Cerro de Oro	4	Abril	2023-07-04T00:00:00	2024-11-08T18:00:00	5	Humedad	83
141789	7	Sololá	719	Santiago Atitlán	14	Cerro de Oro	4	Abril	2023-07-04T00:00:00	2024-11-08T18:00:00	6	Velocidad del viento	9.7
141790	7	Sololá	719	Santiago Atitlán	14	Cerro de Oro	4	Abril	2023-07-04T00:00:00	2024-11-08T18:00:00	7	Dirección del viento	9.66
141791	7	Sololá	719	Santiago Atitlán	14	Cerro de Oro	4	Abril	2023-07-04T00:00:00	2024-11-08T18:00:00	1	Precipitación	0
141792	7	Sololá	719	Santiago Atitlán	14	Cerro de Oro	4	Abril	2023-07-04T00:00:00	2024-11-08T18:00:00	8	Radiación solar	56
141793	7	Sololá	719	Santiago Atitlán	14	Cerro de Oro	4	Abril	2023-07-04T00:00:00	2024-11-08T19:00:00	2	Temperatura media	19.8
141794	7	Sololá	719	Santiago Atitlán	14	Cerro de Oro	4	Abril	2023-07-04T00:00:00	2024-11-08T19:00:00	4	Temperatura máxima	20.4
141795	7	Sololá	719	Santiago Atitlán	14	Cerro de Oro	4	Abril	2023-07-04T00:00:00	2024-11-08T19:00:00	3	Temperatura mínima	19.7
141796	7	Sololá	719	Santiago Atitlán	14	Cerro de Oro	4	Abril	2023-07-04T00:00:00	2024-11-08T19:00:00	5	Humedad	82
141797	7	Sololá	719	Santiago Atitlán	14	Cerro de Oro	4	Abril	2023-07-04T00:00:00	2024-11-08T19:00:00	6	Velocidad del viento	8
141798	7	Sololá	719	Santiago Atitlán	14	Cerro de Oro	4	Abril	2023-07-04T00:00:00	2024-11-08T19:00:00	7	Dirección del viento	8.05
141799	7	Sololá	719	Santiago Atitlán	14	Cerro de Oro	4	Abril	2023-07-04T00:00:00	2024-11-08T19:00:00	1	Precipitación	0
141800	7	Sololá	719	Santiago Atitlán	14	Cerro de Oro	4	Abril	2023-07-04T00:00:00	2024-11-08T19:00:00	8	Radiación solar	0
141801	7	Sololá	719	Santiago Atitlán	14	Cerro de Oro	4	Abril	2023-07-04T00:00:00	2024-11-08T20:00:00	2	Temperatura media	19.3
141802	7	Sololá	719	Santiago Atitlán	14	Cerro de Oro	4	Abril	2023-07-04T00:00:00	2024-11-08T20:00:00	4	Temperatura máxima	19.9
141803	7	Sololá	719	Santiago Atitlán	14	Cerro de Oro	4	Abril	2023-07-04T00:00:00	2024-11-08T20:00:00	3	Temperatura mínima	19.1
141804	7	Sololá	719	Santiago Atitlán	14	Cerro de Oro	4	Abril	2023-07-04T00:00:00	2024-11-08T20:00:00	5	Humedad	84
141805	7	Sololá	719	Santiago Atitlán	14	Cerro de Oro	4	Abril	2023-07-04T00:00:00	2024-11-08T20:00:00	6	Velocidad del viento	4.8
141806	7	Sololá	719	Santiago Atitlán	14	Cerro de Oro	4	Abril	2023-07-04T00:00:00	2024-11-08T20:00:00	7	Dirección del viento	4.83
141807	7	Sololá	719	Santiago Atitlán	14	Cerro de Oro	4	Abril	2023-07-04T00:00:00	2024-11-08T20:00:00	1	Precipitación	0
141808	7	Sololá	719	Santiago Atitlán	14	Cerro de Oro	4	Abril	2023-07-04T00:00:00	2024-11-08T20:00:00	8	Radiación solar	0
141809	7	Sololá	719	Santiago Atitlán	14	Cerro de Oro	4	Abril	2023-07-04T00:00:00	2024-11-08T21:00:00	2	Temperatura media	18.9
141810	7	Sololá	719	Santiago Atitlán	14	Cerro de Oro	4	Abril	2023-07-04T00:00:00	2024-11-08T21:00:00	4	Temperatura máxima	19.4
141811	7	Sololá	719	Santiago Atitlán	14	Cerro de Oro	4	Abril	2023-07-04T00:00:00	2024-11-08T21:00:00	3	Temperatura mínima	18.8
141812	7	Sololá	719	Santiago Atitlán	14	Cerro de Oro	4	Abril	2023-07-04T00:00:00	2024-11-08T21:00:00	5	Humedad	79
141813	7	Sololá	719	Santiago Atitlán	14	Cerro de Oro	4	Abril	2023-07-04T00:00:00	2024-11-08T21:00:00	6	Velocidad del viento	3.2
141814	7	Sololá	719	Santiago Atitlán	14	Cerro de Oro	4	Abril	2023-07-04T00:00:00	2024-11-08T21:00:00	7	Dirección del viento	3.22
141815	7	Sololá	719	Santiago Atitlán	14	Cerro de Oro	4	Abril	2023-07-04T00:00:00	2024-11-08T21:00:00	1	Precipitación	0
141816	7	Sololá	719	Santiago Atitlán	14	Cerro de Oro	4	Abril	2023-07-04T00:00:00	2024-11-08T21:00:00	8	Radiación solar	0
141817	7	Sololá	719	Santiago Atitlán	14	Cerro de Oro	4	Abril	2023-07-04T00:00:00	2024-11-08T22:00:00	2	Temperatura media	19.6
141818	7	Sololá	719	Santiago Atitlán	14	Cerro de Oro	4	Abril	2023-07-04T00:00:00	2024-11-08T22:00:00	4	Temperatura máxima	20.2
141819	7	Sololá	719	Santiago Atitlán	14	Cerro de Oro	4	Abril	2023-07-04T00:00:00	2024-11-08T22:00:00	3	Temperatura mínima	18.9
141820	7	Sololá	719	Santiago Atitlán	14	Cerro de Oro	4	Abril	2023-07-04T00:00:00	2024-11-08T22:00:00	5	Humedad	71
141821	7	Sololá	719	Santiago Atitlán	14	Cerro de Oro	4	Abril	2023-07-04T00:00:00	2024-11-08T22:00:00	6	Velocidad del viento	6.4
141822	7	Sololá	719	Santiago Atitlán	14	Cerro de Oro	4	Abril	2023-07-04T00:00:00	2024-11-08T22:00:00	7	Dirección del viento	6.44
141823	7	Sololá	719	Santiago Atitlán	14	Cerro de Oro	4	Abril	2023-07-04T00:00:00	2024-11-08T22:00:00	1	Precipitación	0
141824	7	Sololá	719	Santiago Atitlán	14	Cerro de Oro	4	Abril	2023-07-04T00:00:00	2024-11-08T22:00:00	8	Radiación solar	0
141825	7	Sololá	719	Santiago Atitlán	14	Cerro de Oro	4	Abril	2023-07-04T00:00:00	2024-11-08T23:00:00	2	Temperatura media	19.3
141826	7	Sololá	719	Santiago Atitlán	14	Cerro de Oro	4	Abril	2023-07-04T00:00:00	2024-11-08T23:00:00	4	Temperatura máxima	19.6
141827	7	Sololá	719	Santiago Atitlán	14	Cerro de Oro	4	Abril	2023-07-04T00:00:00	2024-11-08T23:00:00	3	Temperatura mínima	18.8
141828	7	Sololá	719	Santiago Atitlán	14	Cerro de Oro	4	Abril	2023-07-04T00:00:00	2024-11-08T23:00:00	5	Humedad	71
141829	7	Sololá	719	Santiago Atitlán	14	Cerro de Oro	4	Abril	2023-07-04T00:00:00	2024-11-08T23:00:00	6	Velocidad del viento	6.4
141830	7	Sololá	719	Santiago Atitlán	14	Cerro de Oro	4	Abril	2023-07-04T00:00:00	2024-11-08T23:00:00	7	Dirección del viento	6.44
141831	7	Sololá	719	Santiago Atitlán	14	Cerro de Oro	4	Abril	2023-07-04T00:00:00	2024-11-08T23:00:00	1	Precipitación	0
141832	7	Sololá	719	Santiago Atitlán	14	Cerro de Oro	4	Abril	2023-07-04T00:00:00	2024-11-08T23:00:00	8	Radiación solar	0
141833	7	Sololá	719	Santiago Atitlán	14	Cerro de Oro	4	Abril	2023-08-04T00:00:00	2024-11-08T00:00:00	2	Temperatura media	18.6
141834	7	Sololá	719	Santiago Atitlán	14	Cerro de Oro	4	Abril	2023-08-04T00:00:00	2024-11-08T00:00:00	4	Temperatura máxima	19.5
141835	7	Sololá	719	Santiago Atitlán	14	Cerro de Oro	4	Abril	2023-08-04T00:00:00	2024-11-08T00:00:00	3	Temperatura mínima	18.6
141836	7	Sololá	719	Santiago Atitlán	14	Cerro de Oro	4	Abril	2023-08-04T00:00:00	2024-11-08T00:00:00	5	Humedad	72
141837	7	Sololá	719	Santiago Atitlán	14	Cerro de Oro	4	Abril	2023-08-04T00:00:00	2024-11-08T00:00:00	6	Velocidad del viento	6.4
141838	7	Sololá	719	Santiago Atitlán	14	Cerro de Oro	4	Abril	2023-08-04T00:00:00	2024-11-08T00:00:00	7	Dirección del viento	6.44
141839	7	Sololá	719	Santiago Atitlán	14	Cerro de Oro	4	Abril	2023-08-04T00:00:00	2024-11-08T00:00:00	1	Precipitación	0
141840	7	Sololá	719	Santiago Atitlán	14	Cerro de Oro	4	Abril	2023-08-04T00:00:00	2024-11-08T00:00:00	8	Radiación solar	0
141841	7	Sololá	719	Santiago Atitlán	14	Cerro de Oro	4	Abril	2023-08-04T00:00:00	2024-11-08T01:00:00	2	Temperatura media	18.3
141842	7	Sololá	719	Santiago Atitlán	14	Cerro de Oro	4	Abril	2023-08-04T00:00:00	2024-11-08T01:00:00	4	Temperatura máxima	18.6
141843	7	Sololá	719	Santiago Atitlán	14	Cerro de Oro	4	Abril	2023-08-04T00:00:00	2024-11-08T01:00:00	3	Temperatura mínima	17.9
141844	7	Sololá	719	Santiago Atitlán	14	Cerro de Oro	4	Abril	2023-08-04T00:00:00	2024-11-08T01:00:00	5	Humedad	73
141845	7	Sololá	719	Santiago Atitlán	14	Cerro de Oro	4	Abril	2023-08-04T00:00:00	2024-11-08T01:00:00	6	Velocidad del viento	6.4
141846	7	Sololá	719	Santiago Atitlán	14	Cerro de Oro	4	Abril	2023-08-04T00:00:00	2024-11-08T01:00:00	7	Dirección del viento	6.44
141847	7	Sololá	719	Santiago Atitlán	14	Cerro de Oro	4	Abril	2023-08-04T00:00:00	2024-11-08T01:00:00	1	Precipitación	0
141848	7	Sololá	719	Santiago Atitlán	14	Cerro de Oro	4	Abril	2023-08-04T00:00:00	2024-11-08T01:00:00	8	Radiación solar	0
141849	7	Sololá	719	Santiago Atitlán	14	Cerro de Oro	4	Abril	2023-08-04T00:00:00	2024-11-08T02:00:00	2	Temperatura media	17.6
141850	7	Sololá	719	Santiago Atitlán	14	Cerro de Oro	4	Abril	2023-08-04T00:00:00	2024-11-08T02:00:00	4	Temperatura máxima	18.3
141851	7	Sololá	719	Santiago Atitlán	14	Cerro de Oro	4	Abril	2023-08-04T00:00:00	2024-11-08T02:00:00	3	Temperatura mínima	17.6
141852	7	Sololá	719	Santiago Atitlán	14	Cerro de Oro	4	Abril	2023-08-04T00:00:00	2024-11-08T02:00:00	5	Humedad	75
141853	7	Sololá	719	Santiago Atitlán	14	Cerro de Oro	4	Abril	2023-08-04T00:00:00	2024-11-08T02:00:00	6	Velocidad del viento	4.8
141854	7	Sololá	719	Santiago Atitlán	14	Cerro de Oro	4	Abril	2023-08-04T00:00:00	2024-11-08T02:00:00	7	Dirección del viento	4.83
141855	7	Sololá	719	Santiago Atitlán	14	Cerro de Oro	4	Abril	2023-08-04T00:00:00	2024-11-08T02:00:00	1	Precipitación	0
141856	7	Sololá	719	Santiago Atitlán	14	Cerro de Oro	4	Abril	2023-08-04T00:00:00	2024-11-08T02:00:00	8	Radiación solar	0
141857	7	Sololá	719	Santiago Atitlán	14	Cerro de Oro	4	Abril	2023-08-04T00:00:00	2024-11-08T03:00:00	2	Temperatura media	18.4
141858	7	Sololá	719	Santiago Atitlán	14	Cerro de Oro	4	Abril	2023-08-04T00:00:00	2024-11-08T03:00:00	4	Temperatura máxima	18.4
141859	7	Sololá	719	Santiago Atitlán	14	Cerro de Oro	4	Abril	2023-08-04T00:00:00	2024-11-08T03:00:00	3	Temperatura mínima	17.6
141860	7	Sololá	719	Santiago Atitlán	14	Cerro de Oro	4	Abril	2023-08-04T00:00:00	2024-11-08T03:00:00	5	Humedad	72
141861	7	Sololá	719	Santiago Atitlán	14	Cerro de Oro	4	Abril	2023-08-04T00:00:00	2024-11-08T03:00:00	6	Velocidad del viento	4.8
141862	7	Sololá	719	Santiago Atitlán	14	Cerro de Oro	4	Abril	2023-08-04T00:00:00	2024-11-08T03:00:00	7	Dirección del viento	4.83
141863	7	Sololá	719	Santiago Atitlán	14	Cerro de Oro	4	Abril	2023-08-04T00:00:00	2024-11-08T03:00:00	1	Precipitación	0
141864	7	Sololá	719	Santiago Atitlán	14	Cerro de Oro	4	Abril	2023-08-04T00:00:00	2024-11-08T03:00:00	8	Radiación solar	0
141865	7	Sololá	719	Santiago Atitlán	14	Cerro de Oro	4	Abril	2023-08-04T00:00:00	2024-11-08T04:00:00	2	Temperatura media	18.5
141866	7	Sololá	719	Santiago Atitlán	14	Cerro de Oro	4	Abril	2023-08-04T00:00:00	2024-11-08T04:00:00	4	Temperatura máxima	18.6
141867	7	Sololá	719	Santiago Atitlán	14	Cerro de Oro	4	Abril	2023-08-04T00:00:00	2024-11-08T04:00:00	3	Temperatura mínima	18.3
141868	7	Sololá	719	Santiago Atitlán	14	Cerro de Oro	4	Abril	2023-08-04T00:00:00	2024-11-08T04:00:00	5	Humedad	74
141869	7	Sololá	719	Santiago Atitlán	14	Cerro de Oro	4	Abril	2023-08-04T00:00:00	2024-11-08T04:00:00	6	Velocidad del viento	6.4
141870	7	Sololá	719	Santiago Atitlán	14	Cerro de Oro	4	Abril	2023-08-04T00:00:00	2024-11-08T04:00:00	7	Dirección del viento	6.44
141871	7	Sololá	719	Santiago Atitlán	14	Cerro de Oro	4	Abril	2023-08-04T00:00:00	2024-11-08T04:00:00	1	Precipitación	0
141872	7	Sololá	719	Santiago Atitlán	14	Cerro de Oro	4	Abril	2023-08-04T00:00:00	2024-11-08T04:00:00	8	Radiación solar	0
141873	7	Sololá	719	Santiago Atitlán	14	Cerro de Oro	4	Abril	2023-08-04T00:00:00	2024-11-08T05:00:00	2	Temperatura media	17.5
141874	7	Sololá	719	Santiago Atitlán	14	Cerro de Oro	4	Abril	2023-08-04T00:00:00	2024-11-08T05:00:00	4	Temperatura máxima	18.6
141875	7	Sololá	719	Santiago Atitlán	14	Cerro de Oro	4	Abril	2023-08-04T00:00:00	2024-11-08T05:00:00	3	Temperatura mínima	17.4
141876	7	Sololá	719	Santiago Atitlán	14	Cerro de Oro	4	Abril	2023-08-04T00:00:00	2024-11-08T05:00:00	5	Humedad	72
141877	7	Sololá	719	Santiago Atitlán	14	Cerro de Oro	4	Abril	2023-08-04T00:00:00	2024-11-08T05:00:00	6	Velocidad del viento	9.7
141878	7	Sololá	719	Santiago Atitlán	14	Cerro de Oro	4	Abril	2023-08-04T00:00:00	2024-11-08T05:00:00	7	Dirección del viento	9.66
141879	7	Sololá	719	Santiago Atitlán	14	Cerro de Oro	4	Abril	2023-08-04T00:00:00	2024-11-08T05:00:00	1	Precipitación	0
141880	7	Sololá	719	Santiago Atitlán	14	Cerro de Oro	4	Abril	2023-08-04T00:00:00	2024-11-08T05:00:00	8	Radiación solar	0
141881	7	Sololá	719	Santiago Atitlán	14	Cerro de Oro	4	Abril	2023-08-04T00:00:00	2024-11-08T06:00:00	2	Temperatura media	17.1
141882	7	Sololá	719	Santiago Atitlán	14	Cerro de Oro	4	Abril	2023-08-04T00:00:00	2024-11-08T06:00:00	4	Temperatura máxima	17.5
141883	7	Sololá	719	Santiago Atitlán	14	Cerro de Oro	4	Abril	2023-08-04T00:00:00	2024-11-08T06:00:00	3	Temperatura mínima	16.9
141884	7	Sololá	719	Santiago Atitlán	14	Cerro de Oro	4	Abril	2023-08-04T00:00:00	2024-11-08T06:00:00	5	Humedad	75
141885	7	Sololá	719	Santiago Atitlán	14	Cerro de Oro	4	Abril	2023-08-04T00:00:00	2024-11-08T06:00:00	6	Velocidad del viento	4.8
141886	7	Sololá	719	Santiago Atitlán	14	Cerro de Oro	4	Abril	2023-08-04T00:00:00	2024-11-08T06:00:00	7	Dirección del viento	4.83
141887	7	Sololá	719	Santiago Atitlán	14	Cerro de Oro	4	Abril	2023-08-04T00:00:00	2024-11-08T06:00:00	1	Precipitación	0
141888	7	Sololá	719	Santiago Atitlán	14	Cerro de Oro	4	Abril	2023-08-04T00:00:00	2024-11-08T06:00:00	8	Radiación solar	1
141889	7	Sololá	719	Santiago Atitlán	14	Cerro de Oro	4	Abril	2023-08-04T00:00:00	2024-11-08T07:00:00	2	Temperatura media	16.2
141890	7	Sololá	719	Santiago Atitlán	14	Cerro de Oro	4	Abril	2023-08-04T00:00:00	2024-11-08T07:00:00	4	Temperatura máxima	17.1
141891	7	Sololá	719	Santiago Atitlán	14	Cerro de Oro	4	Abril	2023-08-04T00:00:00	2024-11-08T07:00:00	3	Temperatura mínima	16.2
141892	7	Sololá	719	Santiago Atitlán	14	Cerro de Oro	4	Abril	2023-08-04T00:00:00	2024-11-08T07:00:00	5	Humedad	77
141893	7	Sololá	719	Santiago Atitlán	14	Cerro de Oro	4	Abril	2023-08-04T00:00:00	2024-11-08T07:00:00	6	Velocidad del viento	3.2
141894	7	Sololá	719	Santiago Atitlán	14	Cerro de Oro	4	Abril	2023-08-04T00:00:00	2024-11-08T07:00:00	7	Dirección del viento	3.22
141895	7	Sololá	719	Santiago Atitlán	14	Cerro de Oro	4	Abril	2023-08-04T00:00:00	2024-11-08T07:00:00	1	Precipitación	0
141896	7	Sololá	719	Santiago Atitlán	14	Cerro de Oro	4	Abril	2023-08-04T00:00:00	2024-11-08T07:00:00	8	Radiación solar	61
141897	7	Sololá	719	Santiago Atitlán	14	Cerro de Oro	4	Abril	2023-08-04T00:00:00	2024-11-08T08:00:00	2	Temperatura media	18.4
141898	7	Sololá	719	Santiago Atitlán	14	Cerro de Oro	4	Abril	2023-08-04T00:00:00	2024-11-08T08:00:00	4	Temperatura máxima	18.4
141899	7	Sololá	719	Santiago Atitlán	14	Cerro de Oro	4	Abril	2023-08-04T00:00:00	2024-11-08T08:00:00	3	Temperatura mínima	16.2
141900	7	Sololá	719	Santiago Atitlán	14	Cerro de Oro	4	Abril	2023-08-04T00:00:00	2024-11-08T08:00:00	5	Humedad	74
141901	7	Sololá	719	Santiago Atitlán	14	Cerro de Oro	4	Abril	2023-08-04T00:00:00	2024-11-08T08:00:00	6	Velocidad del viento	4.8
141902	7	Sololá	719	Santiago Atitlán	14	Cerro de Oro	4	Abril	2023-08-04T00:00:00	2024-11-08T08:00:00	7	Dirección del viento	4.83
141903	7	Sololá	719	Santiago Atitlán	14	Cerro de Oro	4	Abril	2023-08-04T00:00:00	2024-11-08T08:00:00	1	Precipitación	0
141904	7	Sololá	719	Santiago Atitlán	14	Cerro de Oro	4	Abril	2023-08-04T00:00:00	2024-11-08T08:00:00	8	Radiación solar	263
141905	7	Sololá	719	Santiago Atitlán	14	Cerro de Oro	4	Abril	2023-08-04T00:00:00	2024-11-08T09:00:00	2	Temperatura media	19.8
141906	7	Sololá	719	Santiago Atitlán	14	Cerro de Oro	4	Abril	2023-08-04T00:00:00	2024-11-08T09:00:00	4	Temperatura máxima	19.8
141907	7	Sololá	719	Santiago Atitlán	14	Cerro de Oro	4	Abril	2023-08-04T00:00:00	2024-11-08T09:00:00	3	Temperatura mínima	18.4
141908	7	Sololá	719	Santiago Atitlán	14	Cerro de Oro	4	Abril	2023-08-04T00:00:00	2024-11-08T09:00:00	5	Humedad	66
141909	7	Sololá	719	Santiago Atitlán	14	Cerro de Oro	4	Abril	2023-08-04T00:00:00	2024-11-08T09:00:00	6	Velocidad del viento	3.2
141910	7	Sololá	719	Santiago Atitlán	14	Cerro de Oro	4	Abril	2023-08-04T00:00:00	2024-11-08T09:00:00	7	Dirección del viento	3.22
141911	7	Sololá	719	Santiago Atitlán	14	Cerro de Oro	4	Abril	2023-08-04T00:00:00	2024-11-08T09:00:00	1	Precipitación	0
141912	7	Sololá	719	Santiago Atitlán	14	Cerro de Oro	4	Abril	2023-08-04T00:00:00	2024-11-08T09:00:00	8	Radiación solar	416
141913	7	Sololá	719	Santiago Atitlán	14	Cerro de Oro	4	Abril	2023-08-04T00:00:00	2024-11-08T10:00:00	2	Temperatura media	20.7
141914	7	Sololá	719	Santiago Atitlán	14	Cerro de Oro	4	Abril	2023-08-04T00:00:00	2024-11-08T10:00:00	4	Temperatura máxima	20.7
141915	7	Sololá	719	Santiago Atitlán	14	Cerro de Oro	4	Abril	2023-08-04T00:00:00	2024-11-08T10:00:00	3	Temperatura mínima	19.8
141916	7	Sololá	719	Santiago Atitlán	14	Cerro de Oro	4	Abril	2023-08-04T00:00:00	2024-11-08T10:00:00	5	Humedad	65
141917	7	Sololá	719	Santiago Atitlán	14	Cerro de Oro	4	Abril	2023-08-04T00:00:00	2024-11-08T10:00:00	6	Velocidad del viento	4.8
141918	7	Sololá	719	Santiago Atitlán	14	Cerro de Oro	4	Abril	2023-08-04T00:00:00	2024-11-08T10:00:00	7	Dirección del viento	4.83
141919	7	Sololá	719	Santiago Atitlán	14	Cerro de Oro	4	Abril	2023-08-04T00:00:00	2024-11-08T10:00:00	1	Precipitación	0
141920	7	Sololá	719	Santiago Atitlán	14	Cerro de Oro	4	Abril	2023-08-04T00:00:00	2024-11-08T10:00:00	8	Radiación solar	593
141921	7	Sololá	719	Santiago Atitlán	14	Cerro de Oro	4	Abril	2023-08-04T00:00:00	2024-11-08T11:00:00	2	Temperatura media	21.4
141922	7	Sololá	719	Santiago Atitlán	14	Cerro de Oro	4	Abril	2023-08-04T00:00:00	2024-11-08T11:00:00	4	Temperatura máxima	21.4
141923	7	Sololá	719	Santiago Atitlán	14	Cerro de Oro	4	Abril	2023-08-04T00:00:00	2024-11-08T11:00:00	3	Temperatura mínima	20.3
141924	7	Sololá	719	Santiago Atitlán	14	Cerro de Oro	4	Abril	2023-08-04T00:00:00	2024-11-08T11:00:00	5	Humedad	65
141925	7	Sololá	719	Santiago Atitlán	14	Cerro de Oro	4	Abril	2023-08-04T00:00:00	2024-11-08T11:00:00	6	Velocidad del viento	4.8
141926	7	Sololá	719	Santiago Atitlán	14	Cerro de Oro	4	Abril	2023-08-04T00:00:00	2024-11-08T11:00:00	7	Dirección del viento	4.83
141927	7	Sololá	719	Santiago Atitlán	14	Cerro de Oro	4	Abril	2023-08-04T00:00:00	2024-11-08T11:00:00	1	Precipitación	0
141928	7	Sololá	719	Santiago Atitlán	14	Cerro de Oro	4	Abril	2023-08-04T00:00:00	2024-11-08T11:00:00	8	Radiación solar	849
141929	7	Sololá	719	Santiago Atitlán	14	Cerro de Oro	4	Abril	2023-08-04T00:00:00	2024-11-08T12:00:00	2	Temperatura media	22.5
141930	7	Sololá	719	Santiago Atitlán	14	Cerro de Oro	4	Abril	2023-08-04T00:00:00	2024-11-08T12:00:00	4	Temperatura máxima	22.7
141931	7	Sololá	719	Santiago Atitlán	14	Cerro de Oro	4	Abril	2023-08-04T00:00:00	2024-11-08T12:00:00	3	Temperatura mínima	21.4
141932	7	Sololá	719	Santiago Atitlán	14	Cerro de Oro	4	Abril	2023-08-04T00:00:00	2024-11-08T12:00:00	5	Humedad	69
141933	7	Sololá	719	Santiago Atitlán	14	Cerro de Oro	4	Abril	2023-08-04T00:00:00	2024-11-08T12:00:00	6	Velocidad del viento	8
141934	7	Sololá	719	Santiago Atitlán	14	Cerro de Oro	4	Abril	2023-08-04T00:00:00	2024-11-08T12:00:00	7	Dirección del viento	8.05
141935	7	Sololá	719	Santiago Atitlán	14	Cerro de Oro	4	Abril	2023-08-04T00:00:00	2024-11-08T12:00:00	1	Precipitación	0
141936	7	Sololá	719	Santiago Atitlán	14	Cerro de Oro	4	Abril	2023-08-04T00:00:00	2024-11-08T12:00:00	8	Radiación solar	856
141937	7	Sololá	719	Santiago Atitlán	14	Cerro de Oro	4	Abril	2023-08-04T00:00:00	2024-11-08T13:00:00	2	Temperatura media	22.3
141938	7	Sololá	719	Santiago Atitlán	14	Cerro de Oro	4	Abril	2023-08-04T00:00:00	2024-11-08T13:00:00	4	Temperatura máxima	22.9
141939	7	Sololá	719	Santiago Atitlán	14	Cerro de Oro	4	Abril	2023-08-04T00:00:00	2024-11-08T13:00:00	3	Temperatura mínima	22.2
141940	7	Sololá	719	Santiago Atitlán	14	Cerro de Oro	4	Abril	2023-08-04T00:00:00	2024-11-08T13:00:00	5	Humedad	71
141941	7	Sololá	719	Santiago Atitlán	14	Cerro de Oro	4	Abril	2023-08-04T00:00:00	2024-11-08T13:00:00	6	Velocidad del viento	12.9
141942	7	Sololá	719	Santiago Atitlán	14	Cerro de Oro	4	Abril	2023-08-04T00:00:00	2024-11-08T13:00:00	7	Dirección del viento	12.87
141943	7	Sololá	719	Santiago Atitlán	14	Cerro de Oro	4	Abril	2023-08-04T00:00:00	2024-11-08T13:00:00	1	Precipitación	0
141944	7	Sololá	719	Santiago Atitlán	14	Cerro de Oro	4	Abril	2023-08-04T00:00:00	2024-11-08T13:00:00	8	Radiación solar	612
141945	7	Sololá	719	Santiago Atitlán	14	Cerro de Oro	4	Abril	2023-08-04T00:00:00	2024-11-08T14:00:00	2	Temperatura media	22.2
141946	7	Sololá	719	Santiago Atitlán	14	Cerro de Oro	4	Abril	2023-08-04T00:00:00	2024-11-08T14:00:00	4	Temperatura máxima	22.4
141947	7	Sololá	719	Santiago Atitlán	14	Cerro de Oro	4	Abril	2023-08-04T00:00:00	2024-11-08T14:00:00	3	Temperatura mínima	21.6
141948	7	Sololá	719	Santiago Atitlán	14	Cerro de Oro	4	Abril	2023-08-04T00:00:00	2024-11-08T14:00:00	5	Humedad	73
141949	7	Sololá	719	Santiago Atitlán	14	Cerro de Oro	4	Abril	2023-08-04T00:00:00	2024-11-08T14:00:00	6	Velocidad del viento	12.9
141950	7	Sololá	719	Santiago Atitlán	14	Cerro de Oro	4	Abril	2023-08-04T00:00:00	2024-11-08T14:00:00	7	Dirección del viento	12.87
141951	7	Sololá	719	Santiago Atitlán	14	Cerro de Oro	4	Abril	2023-08-04T00:00:00	2024-11-08T14:00:00	1	Precipitación	0
141952	7	Sololá	719	Santiago Atitlán	14	Cerro de Oro	4	Abril	2023-08-04T00:00:00	2024-11-08T14:00:00	8	Radiación solar	368
141953	7	Sololá	719	Santiago Atitlán	14	Cerro de Oro	4	Abril	2023-08-04T00:00:00	2024-11-08T15:00:00	2	Temperatura media	21.7
141954	7	Sololá	719	Santiago Atitlán	14	Cerro de Oro	4	Abril	2023-08-04T00:00:00	2024-11-08T15:00:00	4	Temperatura máxima	22.2
141955	7	Sololá	719	Santiago Atitlán	14	Cerro de Oro	4	Abril	2023-08-04T00:00:00	2024-11-08T15:00:00	3	Temperatura mínima	21.4
141956	7	Sololá	719	Santiago Atitlán	14	Cerro de Oro	4	Abril	2023-08-04T00:00:00	2024-11-08T15:00:00	5	Humedad	76
141957	7	Sololá	719	Santiago Atitlán	14	Cerro de Oro	4	Abril	2023-08-04T00:00:00	2024-11-08T15:00:00	6	Velocidad del viento	14.5
141958	7	Sololá	719	Santiago Atitlán	14	Cerro de Oro	4	Abril	2023-08-04T00:00:00	2024-11-08T15:00:00	7	Dirección del viento	14.48
141959	7	Sololá	719	Santiago Atitlán	14	Cerro de Oro	4	Abril	2023-08-04T00:00:00	2024-11-08T15:00:00	1	Precipitación	0
141960	7	Sololá	719	Santiago Atitlán	14	Cerro de Oro	4	Abril	2023-08-04T00:00:00	2024-11-08T15:00:00	8	Radiación solar	637
141961	7	Sololá	719	Santiago Atitlán	14	Cerro de Oro	4	Abril	2023-08-04T00:00:00	2024-11-08T16:00:00	2	Temperatura media	21.9
141962	7	Sololá	719	Santiago Atitlán	14	Cerro de Oro	4	Abril	2023-08-04T00:00:00	2024-11-08T16:00:00	4	Temperatura máxima	22.7
141963	7	Sololá	719	Santiago Atitlán	14	Cerro de Oro	4	Abril	2023-08-04T00:00:00	2024-11-08T16:00:00	3	Temperatura mínima	21.7
141964	7	Sololá	719	Santiago Atitlán	14	Cerro de Oro	4	Abril	2023-08-04T00:00:00	2024-11-08T16:00:00	5	Humedad	77
141965	7	Sololá	719	Santiago Atitlán	14	Cerro de Oro	4	Abril	2023-08-04T00:00:00	2024-11-08T16:00:00	6	Velocidad del viento	11.3
141966	7	Sololá	719	Santiago Atitlán	14	Cerro de Oro	4	Abril	2023-08-04T00:00:00	2024-11-08T16:00:00	7	Dirección del viento	11.27
141967	7	Sololá	719	Santiago Atitlán	14	Cerro de Oro	4	Abril	2023-08-04T00:00:00	2024-11-08T16:00:00	1	Precipitación	0
141968	7	Sololá	719	Santiago Atitlán	14	Cerro de Oro	4	Abril	2023-08-04T00:00:00	2024-11-08T16:00:00	8	Radiación solar	242
141969	7	Sololá	719	Santiago Atitlán	14	Cerro de Oro	4	Abril	2023-08-04T00:00:00	2024-11-08T17:00:00	2	Temperatura media	21
141970	7	Sololá	719	Santiago Atitlán	14	Cerro de Oro	4	Abril	2023-08-04T00:00:00	2024-11-08T17:00:00	4	Temperatura máxima	21.9
141971	7	Sololá	719	Santiago Atitlán	14	Cerro de Oro	4	Abril	2023-08-04T00:00:00	2024-11-08T17:00:00	3	Temperatura mínima	20.9
141972	7	Sololá	719	Santiago Atitlán	14	Cerro de Oro	4	Abril	2023-08-04T00:00:00	2024-11-08T17:00:00	5	Humedad	79
141973	7	Sololá	719	Santiago Atitlán	14	Cerro de Oro	4	Abril	2023-08-04T00:00:00	2024-11-08T17:00:00	6	Velocidad del viento	11.3
141974	7	Sololá	719	Santiago Atitlán	14	Cerro de Oro	4	Abril	2023-08-04T00:00:00	2024-11-08T17:00:00	7	Dirección del viento	11.27
141975	7	Sololá	719	Santiago Atitlán	14	Cerro de Oro	4	Abril	2023-08-04T00:00:00	2024-11-08T17:00:00	1	Precipitación	0
141976	7	Sololá	719	Santiago Atitlán	14	Cerro de Oro	4	Abril	2023-08-04T00:00:00	2024-11-08T17:00:00	8	Radiación solar	142
141977	7	Sololá	719	Santiago Atitlán	14	Cerro de Oro	4	Abril	2023-08-04T00:00:00	2024-11-08T18:00:00	2	Temperatura media	20.9
141978	7	Sololá	719	Santiago Atitlán	14	Cerro de Oro	4	Abril	2023-08-04T00:00:00	2024-11-08T18:00:00	4	Temperatura máxima	21.2
141979	7	Sololá	719	Santiago Atitlán	14	Cerro de Oro	4	Abril	2023-08-04T00:00:00	2024-11-08T18:00:00	3	Temperatura mínima	20.7
141980	7	Sololá	719	Santiago Atitlán	14	Cerro de Oro	4	Abril	2023-08-04T00:00:00	2024-11-08T18:00:00	5	Humedad	79
141981	7	Sololá	719	Santiago Atitlán	14	Cerro de Oro	4	Abril	2023-08-04T00:00:00	2024-11-08T18:00:00	6	Velocidad del viento	8
141982	7	Sololá	719	Santiago Atitlán	14	Cerro de Oro	4	Abril	2023-08-04T00:00:00	2024-11-08T18:00:00	7	Dirección del viento	8.05
141983	7	Sololá	719	Santiago Atitlán	14	Cerro de Oro	4	Abril	2023-08-04T00:00:00	2024-11-08T18:00:00	1	Precipitación	0
141984	7	Sololá	719	Santiago Atitlán	14	Cerro de Oro	4	Abril	2023-08-04T00:00:00	2024-11-08T18:00:00	8	Radiación solar	77
141985	7	Sololá	719	Santiago Atitlán	14	Cerro de Oro	4	Abril	2023-08-04T00:00:00	2024-11-08T19:00:00	2	Temperatura media	19.8
141986	7	Sololá	719	Santiago Atitlán	14	Cerro de Oro	4	Abril	2023-08-04T00:00:00	2024-11-08T19:00:00	4	Temperatura máxima	20.9
141987	7	Sololá	719	Santiago Atitlán	14	Cerro de Oro	4	Abril	2023-08-04T00:00:00	2024-11-08T19:00:00	3	Temperatura mínima	19.8
141988	7	Sololá	719	Santiago Atitlán	14	Cerro de Oro	4	Abril	2023-08-04T00:00:00	2024-11-08T19:00:00	5	Humedad	84
141989	7	Sololá	719	Santiago Atitlán	14	Cerro de Oro	4	Abril	2023-08-04T00:00:00	2024-11-08T19:00:00	6	Velocidad del viento	8
141990	7	Sololá	719	Santiago Atitlán	14	Cerro de Oro	4	Abril	2023-08-04T00:00:00	2024-11-08T19:00:00	7	Dirección del viento	8.05
141991	7	Sololá	719	Santiago Atitlán	14	Cerro de Oro	4	Abril	2023-08-04T00:00:00	2024-11-08T19:00:00	1	Precipitación	0
141992	7	Sololá	719	Santiago Atitlán	14	Cerro de Oro	4	Abril	2023-08-04T00:00:00	2024-11-08T19:00:00	8	Radiación solar	0
141993	7	Sololá	719	Santiago Atitlán	14	Cerro de Oro	4	Abril	2023-08-04T00:00:00	2024-11-08T20:00:00	2	Temperatura media	19.5
141994	7	Sololá	719	Santiago Atitlán	14	Cerro de Oro	4	Abril	2023-08-04T00:00:00	2024-11-08T20:00:00	4	Temperatura máxima	19.8
141995	7	Sololá	719	Santiago Atitlán	14	Cerro de Oro	4	Abril	2023-08-04T00:00:00	2024-11-08T20:00:00	3	Temperatura mínima	19.2
141996	7	Sololá	719	Santiago Atitlán	14	Cerro de Oro	4	Abril	2023-08-04T00:00:00	2024-11-08T20:00:00	5	Humedad	74
141997	7	Sololá	719	Santiago Atitlán	14	Cerro de Oro	4	Abril	2023-08-04T00:00:00	2024-11-08T20:00:00	6	Velocidad del viento	6.4
141998	7	Sololá	719	Santiago Atitlán	14	Cerro de Oro	4	Abril	2023-08-04T00:00:00	2024-11-08T20:00:00	7	Dirección del viento	6.44
141999	7	Sololá	719	Santiago Atitlán	14	Cerro de Oro	4	Abril	2023-08-04T00:00:00	2024-11-08T20:00:00	1	Precipitación	0
142000	7	Sololá	719	Santiago Atitlán	14	Cerro de Oro	4	Abril	2023-08-04T00:00:00	2024-11-08T20:00:00	8	Radiación solar	0
142001	7	Sololá	719	Santiago Atitlán	14	Cerro de Oro	4	Abril	2023-08-04T00:00:00	2024-11-08T21:00:00	2	Temperatura media	20.1
142002	7	Sololá	719	Santiago Atitlán	14	Cerro de Oro	4	Abril	2023-08-04T00:00:00	2024-11-08T21:00:00	4	Temperatura máxima	20.4
142003	7	Sololá	719	Santiago Atitlán	14	Cerro de Oro	4	Abril	2023-08-04T00:00:00	2024-11-08T21:00:00	3	Temperatura mínima	19.5
142004	7	Sololá	719	Santiago Atitlán	14	Cerro de Oro	4	Abril	2023-08-04T00:00:00	2024-11-08T21:00:00	5	Humedad	58
142005	7	Sololá	719	Santiago Atitlán	14	Cerro de Oro	4	Abril	2023-08-04T00:00:00	2024-11-08T21:00:00	6	Velocidad del viento	9.7
142006	7	Sololá	719	Santiago Atitlán	14	Cerro de Oro	4	Abril	2023-08-04T00:00:00	2024-11-08T21:00:00	7	Dirección del viento	9.66
142007	7	Sololá	719	Santiago Atitlán	14	Cerro de Oro	4	Abril	2023-08-04T00:00:00	2024-11-08T21:00:00	1	Precipitación	0
142008	7	Sololá	719	Santiago Atitlán	14	Cerro de Oro	4	Abril	2023-08-04T00:00:00	2024-11-08T21:00:00	8	Radiación solar	0
142009	7	Sololá	719	Santiago Atitlán	14	Cerro de Oro	4	Abril	2023-08-04T00:00:00	2024-11-08T22:00:00	2	Temperatura media	19.4
142010	7	Sololá	719	Santiago Atitlán	14	Cerro de Oro	4	Abril	2023-08-04T00:00:00	2024-11-08T22:00:00	4	Temperatura máxima	20.1
142011	7	Sololá	719	Santiago Atitlán	14	Cerro de Oro	4	Abril	2023-08-04T00:00:00	2024-11-08T22:00:00	3	Temperatura mínima	19.4
142012	7	Sololá	719	Santiago Atitlán	14	Cerro de Oro	4	Abril	2023-08-04T00:00:00	2024-11-08T22:00:00	5	Humedad	61
142013	7	Sololá	719	Santiago Atitlán	14	Cerro de Oro	4	Abril	2023-08-04T00:00:00	2024-11-08T22:00:00	6	Velocidad del viento	9.7
142014	7	Sololá	719	Santiago Atitlán	14	Cerro de Oro	4	Abril	2023-08-04T00:00:00	2024-11-08T22:00:00	7	Dirección del viento	9.66
142015	7	Sololá	719	Santiago Atitlán	14	Cerro de Oro	4	Abril	2023-08-04T00:00:00	2024-11-08T22:00:00	1	Precipitación	0
142016	7	Sololá	719	Santiago Atitlán	14	Cerro de Oro	4	Abril	2023-08-04T00:00:00	2024-11-08T22:00:00	8	Radiación solar	0
142017	7	Sololá	719	Santiago Atitlán	14	Cerro de Oro	4	Abril	2023-08-04T00:00:00	2024-11-08T23:00:00	2	Temperatura media	18.8
142018	7	Sololá	719	Santiago Atitlán	14	Cerro de Oro	4	Abril	2023-08-04T00:00:00	2024-11-08T23:00:00	4	Temperatura máxima	19.4
142019	7	Sololá	719	Santiago Atitlán	14	Cerro de Oro	4	Abril	2023-08-04T00:00:00	2024-11-08T23:00:00	3	Temperatura mínima	18.8
142020	7	Sololá	719	Santiago Atitlán	14	Cerro de Oro	4	Abril	2023-08-04T00:00:00	2024-11-08T23:00:00	5	Humedad	60
142021	7	Sololá	719	Santiago Atitlán	14	Cerro de Oro	4	Abril	2023-08-04T00:00:00	2024-11-08T23:00:00	6	Velocidad del viento	11.3
142022	7	Sololá	719	Santiago Atitlán	14	Cerro de Oro	4	Abril	2023-08-04T00:00:00	2024-11-08T23:00:00	7	Dirección del viento	11.27
142023	7	Sololá	719	Santiago Atitlán	14	Cerro de Oro	4	Abril	2023-08-04T00:00:00	2024-11-08T23:00:00	1	Precipitación	0
142024	7	Sololá	719	Santiago Atitlán	14	Cerro de Oro	4	Abril	2023-08-04T00:00:00	2024-11-08T23:00:00	8	Radiación solar	0
142025	7	Sololá	719	Santiago Atitlán	14	Cerro de Oro	4	Abril	2023-09-04T00:00:00	2024-11-08T00:00:00	2	Temperatura media	18.4
142026	7	Sololá	719	Santiago Atitlán	14	Cerro de Oro	4	Abril	2023-09-04T00:00:00	2024-11-08T00:00:00	4	Temperatura máxima	18.8
142027	7	Sololá	719	Santiago Atitlán	14	Cerro de Oro	4	Abril	2023-09-04T00:00:00	2024-11-08T00:00:00	3	Temperatura mínima	18.3
142028	7	Sololá	719	Santiago Atitlán	14	Cerro de Oro	4	Abril	2023-09-04T00:00:00	2024-11-08T00:00:00	5	Humedad	58
142029	7	Sololá	719	Santiago Atitlán	14	Cerro de Oro	4	Abril	2023-09-04T00:00:00	2024-11-08T00:00:00	6	Velocidad del viento	9.7
142030	7	Sololá	719	Santiago Atitlán	14	Cerro de Oro	4	Abril	2023-09-04T00:00:00	2024-11-08T00:00:00	7	Dirección del viento	9.66
142031	7	Sololá	719	Santiago Atitlán	14	Cerro de Oro	4	Abril	2023-09-04T00:00:00	2024-11-08T00:00:00	1	Precipitación	0
142032	7	Sololá	719	Santiago Atitlán	14	Cerro de Oro	4	Abril	2023-09-04T00:00:00	2024-11-08T00:00:00	8	Radiación solar	0
142033	7	Sololá	719	Santiago Atitlán	14	Cerro de Oro	4	Abril	2023-09-04T00:00:00	2024-11-08T01:00:00	2	Temperatura media	17.3
142034	7	Sololá	719	Santiago Atitlán	14	Cerro de Oro	4	Abril	2023-09-04T00:00:00	2024-11-08T01:00:00	4	Temperatura máxima	18.4
142035	7	Sololá	719	Santiago Atitlán	14	Cerro de Oro	4	Abril	2023-09-04T00:00:00	2024-11-08T01:00:00	3	Temperatura mínima	17.3
142036	7	Sololá	719	Santiago Atitlán	14	Cerro de Oro	4	Abril	2023-09-04T00:00:00	2024-11-08T01:00:00	5	Humedad	60
142037	7	Sololá	719	Santiago Atitlán	14	Cerro de Oro	4	Abril	2023-09-04T00:00:00	2024-11-08T01:00:00	6	Velocidad del viento	6.4
142038	7	Sololá	719	Santiago Atitlán	14	Cerro de Oro	4	Abril	2023-09-04T00:00:00	2024-11-08T01:00:00	7	Dirección del viento	6.44
142039	7	Sololá	719	Santiago Atitlán	14	Cerro de Oro	4	Abril	2023-09-04T00:00:00	2024-11-08T01:00:00	1	Precipitación	0
142040	7	Sololá	719	Santiago Atitlán	14	Cerro de Oro	4	Abril	2023-09-04T00:00:00	2024-11-08T01:00:00	8	Radiación solar	0
142041	7	Sololá	719	Santiago Atitlán	14	Cerro de Oro	4	Abril	2023-09-04T00:00:00	2024-11-08T02:00:00	2	Temperatura media	17.3
142042	7	Sololá	719	Santiago Atitlán	14	Cerro de Oro	4	Abril	2023-09-04T00:00:00	2024-11-08T02:00:00	4	Temperatura máxima	17.5
142043	7	Sololá	719	Santiago Atitlán	14	Cerro de Oro	4	Abril	2023-09-04T00:00:00	2024-11-08T02:00:00	3	Temperatura mínima	17.2
142044	7	Sololá	719	Santiago Atitlán	14	Cerro de Oro	4	Abril	2023-09-04T00:00:00	2024-11-08T02:00:00	5	Humedad	60
142045	7	Sololá	719	Santiago Atitlán	14	Cerro de Oro	4	Abril	2023-09-04T00:00:00	2024-11-08T02:00:00	6	Velocidad del viento	6.4
142046	7	Sololá	719	Santiago Atitlán	14	Cerro de Oro	4	Abril	2023-09-04T00:00:00	2024-11-08T02:00:00	7	Dirección del viento	6.44
142047	7	Sololá	719	Santiago Atitlán	14	Cerro de Oro	4	Abril	2023-09-04T00:00:00	2024-11-08T02:00:00	1	Precipitación	0
142048	7	Sololá	719	Santiago Atitlán	14	Cerro de Oro	4	Abril	2023-09-04T00:00:00	2024-11-08T02:00:00	8	Radiación solar	0
142049	7	Sololá	719	Santiago Atitlán	14	Cerro de Oro	4	Abril	2023-09-04T00:00:00	2024-11-08T03:00:00	2	Temperatura media	16.7
142050	7	Sololá	719	Santiago Atitlán	14	Cerro de Oro	4	Abril	2023-09-04T00:00:00	2024-11-08T03:00:00	4	Temperatura máxima	17.3
142051	7	Sololá	719	Santiago Atitlán	14	Cerro de Oro	4	Abril	2023-09-04T00:00:00	2024-11-08T03:00:00	3	Temperatura mínima	16.7
142052	7	Sololá	719	Santiago Atitlán	14	Cerro de Oro	4	Abril	2023-09-04T00:00:00	2024-11-08T03:00:00	5	Humedad	64
142053	7	Sololá	719	Santiago Atitlán	14	Cerro de Oro	4	Abril	2023-09-04T00:00:00	2024-11-08T03:00:00	6	Velocidad del viento	6.4
142054	7	Sololá	719	Santiago Atitlán	14	Cerro de Oro	4	Abril	2023-09-04T00:00:00	2024-11-08T03:00:00	7	Dirección del viento	6.44
142055	7	Sololá	719	Santiago Atitlán	14	Cerro de Oro	4	Abril	2023-09-04T00:00:00	2024-11-08T03:00:00	1	Precipitación	0
142056	7	Sololá	719	Santiago Atitlán	14	Cerro de Oro	4	Abril	2023-09-04T00:00:00	2024-11-08T03:00:00	8	Radiación solar	0
142057	7	Sololá	719	Santiago Atitlán	14	Cerro de Oro	4	Abril	2023-09-04T00:00:00	2024-11-08T04:00:00	2	Temperatura media	16.9
142058	7	Sololá	719	Santiago Atitlán	14	Cerro de Oro	4	Abril	2023-09-04T00:00:00	2024-11-08T04:00:00	4	Temperatura máxima	16.9
142059	7	Sololá	719	Santiago Atitlán	14	Cerro de Oro	4	Abril	2023-09-04T00:00:00	2024-11-08T04:00:00	3	Temperatura mínima	16.4
142060	7	Sololá	719	Santiago Atitlán	14	Cerro de Oro	4	Abril	2023-09-04T00:00:00	2024-11-08T04:00:00	5	Humedad	66
142061	7	Sololá	719	Santiago Atitlán	14	Cerro de Oro	4	Abril	2023-09-04T00:00:00	2024-11-08T04:00:00	6	Velocidad del viento	8
142062	7	Sololá	719	Santiago Atitlán	14	Cerro de Oro	4	Abril	2023-09-04T00:00:00	2024-11-08T04:00:00	7	Dirección del viento	8.05
142063	7	Sololá	719	Santiago Atitlán	14	Cerro de Oro	4	Abril	2023-09-04T00:00:00	2024-11-08T04:00:00	1	Precipitación	0
142064	7	Sololá	719	Santiago Atitlán	14	Cerro de Oro	4	Abril	2023-09-04T00:00:00	2024-11-08T04:00:00	8	Radiación solar	0
142065	7	Sololá	719	Santiago Atitlán	14	Cerro de Oro	4	Abril	2023-09-04T00:00:00	2024-11-08T05:00:00	2	Temperatura media	17.5
142066	7	Sololá	719	Santiago Atitlán	14	Cerro de Oro	4	Abril	2023-09-04T00:00:00	2024-11-08T05:00:00	4	Temperatura máxima	17.7
142067	7	Sololá	719	Santiago Atitlán	14	Cerro de Oro	4	Abril	2023-09-04T00:00:00	2024-11-08T05:00:00	3	Temperatura mínima	16.9
142068	7	Sololá	719	Santiago Atitlán	14	Cerro de Oro	4	Abril	2023-09-04T00:00:00	2024-11-08T05:00:00	5	Humedad	62
142069	7	Sololá	719	Santiago Atitlán	14	Cerro de Oro	4	Abril	2023-09-04T00:00:00	2024-11-08T05:00:00	6	Velocidad del viento	6.4
142070	7	Sololá	719	Santiago Atitlán	14	Cerro de Oro	4	Abril	2023-09-04T00:00:00	2024-11-08T05:00:00	7	Dirección del viento	6.44
142071	7	Sololá	719	Santiago Atitlán	14	Cerro de Oro	4	Abril	2023-09-04T00:00:00	2024-11-08T05:00:00	1	Precipitación	0
142072	7	Sololá	719	Santiago Atitlán	14	Cerro de Oro	4	Abril	2023-09-04T00:00:00	2024-11-08T05:00:00	8	Radiación solar	0
142073	7	Sololá	719	Santiago Atitlán	14	Cerro de Oro	4	Abril	2023-09-04T00:00:00	2024-11-08T06:00:00	2	Temperatura media	16.9
142074	7	Sololá	719	Santiago Atitlán	14	Cerro de Oro	4	Abril	2023-09-04T00:00:00	2024-11-08T06:00:00	4	Temperatura máxima	17.5
142075	7	Sololá	719	Santiago Atitlán	14	Cerro de Oro	4	Abril	2023-09-04T00:00:00	2024-11-08T06:00:00	3	Temperatura mínima	16.8
142076	7	Sololá	719	Santiago Atitlán	14	Cerro de Oro	4	Abril	2023-09-04T00:00:00	2024-11-08T06:00:00	5	Humedad	63
142077	7	Sololá	719	Santiago Atitlán	14	Cerro de Oro	4	Abril	2023-09-04T00:00:00	2024-11-08T06:00:00	6	Velocidad del viento	4.8
142078	7	Sololá	719	Santiago Atitlán	14	Cerro de Oro	4	Abril	2023-09-04T00:00:00	2024-11-08T06:00:00	7	Dirección del viento	4.83
142079	7	Sololá	719	Santiago Atitlán	14	Cerro de Oro	4	Abril	2023-09-04T00:00:00	2024-11-08T06:00:00	1	Precipitación	0
142080	7	Sololá	719	Santiago Atitlán	14	Cerro de Oro	4	Abril	2023-09-04T00:00:00	2024-11-08T06:00:00	8	Radiación solar	1
142081	7	Sololá	719	Santiago Atitlán	14	Cerro de Oro	4	Abril	2023-09-04T00:00:00	2024-11-08T07:00:00	2	Temperatura media	17.4
142082	7	Sololá	719	Santiago Atitlán	14	Cerro de Oro	4	Abril	2023-09-04T00:00:00	2024-11-08T07:00:00	4	Temperatura máxima	17.4
142083	7	Sololá	719	Santiago Atitlán	14	Cerro de Oro	4	Abril	2023-09-04T00:00:00	2024-11-08T07:00:00	3	Temperatura mínima	16.4
142084	7	Sololá	719	Santiago Atitlán	14	Cerro de Oro	4	Abril	2023-09-04T00:00:00	2024-11-08T07:00:00	5	Humedad	64
142085	7	Sololá	719	Santiago Atitlán	14	Cerro de Oro	4	Abril	2023-09-04T00:00:00	2024-11-08T07:00:00	6	Velocidad del viento	6.4
142086	7	Sololá	719	Santiago Atitlán	14	Cerro de Oro	4	Abril	2023-09-04T00:00:00	2024-11-08T07:00:00	7	Dirección del viento	6.44
142087	7	Sololá	719	Santiago Atitlán	14	Cerro de Oro	4	Abril	2023-09-04T00:00:00	2024-11-08T07:00:00	1	Precipitación	0
142088	7	Sololá	719	Santiago Atitlán	14	Cerro de Oro	4	Abril	2023-09-04T00:00:00	2024-11-08T07:00:00	8	Radiación solar	66
142089	7	Sololá	719	Santiago Atitlán	14	Cerro de Oro	4	Abril	2023-09-04T00:00:00	2024-11-08T08:00:00	2	Temperatura media	18.8
142090	7	Sololá	719	Santiago Atitlán	14	Cerro de Oro	4	Abril	2023-09-04T00:00:00	2024-11-08T08:00:00	4	Temperatura máxima	18.8
142091	7	Sololá	719	Santiago Atitlán	14	Cerro de Oro	4	Abril	2023-09-04T00:00:00	2024-11-08T08:00:00	3	Temperatura mínima	17.3
142092	7	Sololá	719	Santiago Atitlán	14	Cerro de Oro	4	Abril	2023-09-04T00:00:00	2024-11-08T08:00:00	5	Humedad	58
142093	7	Sololá	719	Santiago Atitlán	14	Cerro de Oro	4	Abril	2023-09-04T00:00:00	2024-11-08T08:00:00	6	Velocidad del viento	9.7
142094	7	Sololá	719	Santiago Atitlán	14	Cerro de Oro	4	Abril	2023-09-04T00:00:00	2024-11-08T08:00:00	7	Dirección del viento	9.66
142095	7	Sololá	719	Santiago Atitlán	14	Cerro de Oro	4	Abril	2023-09-04T00:00:00	2024-11-08T08:00:00	1	Precipitación	0
142096	7	Sololá	719	Santiago Atitlán	14	Cerro de Oro	4	Abril	2023-09-04T00:00:00	2024-11-08T08:00:00	8	Radiación solar	278
142097	7	Sololá	719	Santiago Atitlán	14	Cerro de Oro	4	Abril	2023-09-04T00:00:00	2024-11-08T09:00:00	2	Temperatura media	20.6
142098	7	Sololá	719	Santiago Atitlán	14	Cerro de Oro	4	Abril	2023-09-04T00:00:00	2024-11-08T09:00:00	4	Temperatura máxima	20.6
142099	7	Sololá	719	Santiago Atitlán	14	Cerro de Oro	4	Abril	2023-09-04T00:00:00	2024-11-08T09:00:00	3	Temperatura mínima	18.8
142100	7	Sololá	719	Santiago Atitlán	14	Cerro de Oro	4	Abril	2023-09-04T00:00:00	2024-11-08T09:00:00	5	Humedad	54
142101	7	Sololá	719	Santiago Atitlán	14	Cerro de Oro	4	Abril	2023-09-04T00:00:00	2024-11-08T09:00:00	6	Velocidad del viento	6.4
142102	7	Sololá	719	Santiago Atitlán	14	Cerro de Oro	4	Abril	2023-09-04T00:00:00	2024-11-08T09:00:00	7	Dirección del viento	6.44
142103	7	Sololá	719	Santiago Atitlán	14	Cerro de Oro	4	Abril	2023-09-04T00:00:00	2024-11-08T09:00:00	1	Precipitación	0
142104	7	Sololá	719	Santiago Atitlán	14	Cerro de Oro	4	Abril	2023-09-04T00:00:00	2024-11-08T09:00:00	8	Radiación solar	430
142105	7	Sololá	719	Santiago Atitlán	14	Cerro de Oro	4	Abril	2023-09-04T00:00:00	2024-11-08T10:00:00	2	Temperatura media	21.8
142106	7	Sololá	719	Santiago Atitlán	14	Cerro de Oro	4	Abril	2023-09-04T00:00:00	2024-11-08T10:00:00	4	Temperatura máxima	21.8
142107	7	Sololá	719	Santiago Atitlán	14	Cerro de Oro	4	Abril	2023-09-04T00:00:00	2024-11-08T10:00:00	3	Temperatura mínima	20.6
142108	7	Sololá	719	Santiago Atitlán	14	Cerro de Oro	4	Abril	2023-09-04T00:00:00	2024-11-08T10:00:00	5	Humedad	49
142109	7	Sololá	719	Santiago Atitlán	14	Cerro de Oro	4	Abril	2023-09-04T00:00:00	2024-11-08T10:00:00	6	Velocidad del viento	12.9
142110	7	Sololá	719	Santiago Atitlán	14	Cerro de Oro	4	Abril	2023-09-04T00:00:00	2024-11-08T10:00:00	7	Dirección del viento	12.87
142111	7	Sololá	719	Santiago Atitlán	14	Cerro de Oro	4	Abril	2023-09-04T00:00:00	2024-11-08T10:00:00	1	Precipitación	0
142112	7	Sololá	719	Santiago Atitlán	14	Cerro de Oro	4	Abril	2023-09-04T00:00:00	2024-11-08T10:00:00	8	Radiación solar	590
142113	7	Sololá	719	Santiago Atitlán	14	Cerro de Oro	4	Abril	2023-09-04T00:00:00	2024-11-08T11:00:00	2	Temperatura media	22.7
142114	7	Sololá	719	Santiago Atitlán	14	Cerro de Oro	4	Abril	2023-09-04T00:00:00	2024-11-08T11:00:00	4	Temperatura máxima	22.7
142115	7	Sololá	719	Santiago Atitlán	14	Cerro de Oro	4	Abril	2023-09-04T00:00:00	2024-11-08T11:00:00	3	Temperatura mínima	21.5
142116	7	Sololá	719	Santiago Atitlán	14	Cerro de Oro	4	Abril	2023-09-04T00:00:00	2024-11-08T11:00:00	5	Humedad	47
142117	7	Sololá	719	Santiago Atitlán	14	Cerro de Oro	4	Abril	2023-09-04T00:00:00	2024-11-08T11:00:00	6	Velocidad del viento	9.7
142118	7	Sololá	719	Santiago Atitlán	14	Cerro de Oro	4	Abril	2023-09-04T00:00:00	2024-11-08T11:00:00	7	Dirección del viento	9.66
142119	7	Sololá	719	Santiago Atitlán	14	Cerro de Oro	4	Abril	2023-09-04T00:00:00	2024-11-08T11:00:00	1	Precipitación	0
142120	7	Sololá	719	Santiago Atitlán	14	Cerro de Oro	4	Abril	2023-09-04T00:00:00	2024-11-08T11:00:00	8	Radiación solar	850
142121	7	Sololá	719	Santiago Atitlán	14	Cerro de Oro	4	Abril	2023-09-04T00:00:00	2024-11-08T12:00:00	2	Temperatura media	23.3
142122	7	Sololá	719	Santiago Atitlán	14	Cerro de Oro	4	Abril	2023-09-04T00:00:00	2024-11-08T12:00:00	4	Temperatura máxima	23.6
142123	7	Sololá	719	Santiago Atitlán	14	Cerro de Oro	4	Abril	2023-09-04T00:00:00	2024-11-08T12:00:00	3	Temperatura mínima	22.7
142124	7	Sololá	719	Santiago Atitlán	14	Cerro de Oro	4	Abril	2023-09-04T00:00:00	2024-11-08T12:00:00	5	Humedad	48
142125	7	Sololá	719	Santiago Atitlán	14	Cerro de Oro	4	Abril	2023-09-04T00:00:00	2024-11-08T12:00:00	6	Velocidad del viento	9.7
142126	7	Sololá	719	Santiago Atitlán	14	Cerro de Oro	4	Abril	2023-09-04T00:00:00	2024-11-08T12:00:00	7	Dirección del viento	9.66
142127	7	Sololá	719	Santiago Atitlán	14	Cerro de Oro	4	Abril	2023-09-04T00:00:00	2024-11-08T12:00:00	1	Precipitación	0
142128	7	Sololá	719	Santiago Atitlán	14	Cerro de Oro	4	Abril	2023-09-04T00:00:00	2024-11-08T12:00:00	8	Radiación solar	970
142129	7	Sololá	719	Santiago Atitlán	14	Cerro de Oro	4	Abril	2023-09-04T00:00:00	2024-11-08T13:00:00	2	Temperatura media	24.7
142130	7	Sololá	719	Santiago Atitlán	14	Cerro de Oro	4	Abril	2023-09-04T00:00:00	2024-11-08T13:00:00	4	Temperatura máxima	24.8
142131	7	Sololá	719	Santiago Atitlán	14	Cerro de Oro	4	Abril	2023-09-04T00:00:00	2024-11-08T13:00:00	3	Temperatura mínima	23.2
142132	7	Sololá	719	Santiago Atitlán	14	Cerro de Oro	4	Abril	2023-09-04T00:00:00	2024-11-08T13:00:00	5	Humedad	44
142133	7	Sololá	719	Santiago Atitlán	14	Cerro de Oro	4	Abril	2023-09-04T00:00:00	2024-11-08T13:00:00	6	Velocidad del viento	9.7
142134	7	Sololá	719	Santiago Atitlán	14	Cerro de Oro	4	Abril	2023-09-04T00:00:00	2024-11-08T13:00:00	7	Dirección del viento	9.66
142135	7	Sololá	719	Santiago Atitlán	14	Cerro de Oro	4	Abril	2023-09-04T00:00:00	2024-11-08T13:00:00	1	Precipitación	0
142136	7	Sololá	719	Santiago Atitlán	14	Cerro de Oro	4	Abril	2023-09-04T00:00:00	2024-11-08T13:00:00	8	Radiación solar	970
142137	7	Sololá	719	Santiago Atitlán	14	Cerro de Oro	4	Abril	2023-09-04T00:00:00	2024-11-08T14:00:00	2	Temperatura media	24.2
142138	7	Sololá	719	Santiago Atitlán	14	Cerro de Oro	4	Abril	2023-09-04T00:00:00	2024-11-08T14:00:00	4	Temperatura máxima	25.2
142139	7	Sololá	719	Santiago Atitlán	14	Cerro de Oro	4	Abril	2023-09-04T00:00:00	2024-11-08T14:00:00	3	Temperatura mínima	24
142140	7	Sololá	719	Santiago Atitlán	14	Cerro de Oro	4	Abril	2023-09-04T00:00:00	2024-11-08T14:00:00	5	Humedad	64
142141	7	Sololá	719	Santiago Atitlán	14	Cerro de Oro	4	Abril	2023-09-04T00:00:00	2024-11-08T14:00:00	6	Velocidad del viento	12.9
142142	7	Sololá	719	Santiago Atitlán	14	Cerro de Oro	4	Abril	2023-09-04T00:00:00	2024-11-08T14:00:00	7	Dirección del viento	12.87
142143	7	Sololá	719	Santiago Atitlán	14	Cerro de Oro	4	Abril	2023-09-04T00:00:00	2024-11-08T14:00:00	1	Precipitación	0
142144	7	Sololá	719	Santiago Atitlán	14	Cerro de Oro	4	Abril	2023-09-04T00:00:00	2024-11-08T14:00:00	8	Radiación solar	945
142145	7	Sololá	719	Santiago Atitlán	14	Cerro de Oro	4	Abril	2023-09-04T00:00:00	2024-11-08T15:00:00	2	Temperatura media	23.1
142146	7	Sololá	719	Santiago Atitlán	14	Cerro de Oro	4	Abril	2023-09-04T00:00:00	2024-11-08T15:00:00	4	Temperatura máxima	24.2
142147	7	Sololá	719	Santiago Atitlán	14	Cerro de Oro	4	Abril	2023-09-04T00:00:00	2024-11-08T15:00:00	3	Temperatura mínima	22.8
142148	7	Sololá	719	Santiago Atitlán	14	Cerro de Oro	4	Abril	2023-09-04T00:00:00	2024-11-08T15:00:00	5	Humedad	70
142149	7	Sololá	719	Santiago Atitlán	14	Cerro de Oro	4	Abril	2023-09-04T00:00:00	2024-11-08T15:00:00	6	Velocidad del viento	14.5
142150	7	Sololá	719	Santiago Atitlán	14	Cerro de Oro	4	Abril	2023-09-04T00:00:00	2024-11-08T15:00:00	7	Dirección del viento	14.48
142151	7	Sololá	719	Santiago Atitlán	14	Cerro de Oro	4	Abril	2023-09-04T00:00:00	2024-11-08T15:00:00	1	Precipitación	0
142152	7	Sololá	719	Santiago Atitlán	14	Cerro de Oro	4	Abril	2023-09-04T00:00:00	2024-11-08T15:00:00	8	Radiación solar	777
142153	7	Sololá	719	Santiago Atitlán	14	Cerro de Oro	4	Abril	2023-09-04T00:00:00	2024-11-08T16:00:00	2	Temperatura media	23.3
142154	7	Sololá	719	Santiago Atitlán	14	Cerro de Oro	4	Abril	2023-09-04T00:00:00	2024-11-08T16:00:00	4	Temperatura máxima	24
142155	7	Sololá	719	Santiago Atitlán	14	Cerro de Oro	4	Abril	2023-09-04T00:00:00	2024-11-08T16:00:00	3	Temperatura mínima	23
142156	7	Sololá	719	Santiago Atitlán	14	Cerro de Oro	4	Abril	2023-09-04T00:00:00	2024-11-08T16:00:00	5	Humedad	68
142157	7	Sololá	719	Santiago Atitlán	14	Cerro de Oro	4	Abril	2023-09-04T00:00:00	2024-11-08T16:00:00	6	Velocidad del viento	12.9
142158	7	Sololá	719	Santiago Atitlán	14	Cerro de Oro	4	Abril	2023-09-04T00:00:00	2024-11-08T16:00:00	7	Dirección del viento	12.87
142159	7	Sololá	719	Santiago Atitlán	14	Cerro de Oro	4	Abril	2023-09-04T00:00:00	2024-11-08T16:00:00	1	Precipitación	0
142160	7	Sololá	719	Santiago Atitlán	14	Cerro de Oro	4	Abril	2023-09-04T00:00:00	2024-11-08T16:00:00	8	Radiación solar	225
142161	7	Sololá	719	Santiago Atitlán	14	Cerro de Oro	4	Abril	2023-09-04T00:00:00	2024-11-08T17:00:00	2	Temperatura media	21.8
142162	7	Sololá	719	Santiago Atitlán	14	Cerro de Oro	4	Abril	2023-09-04T00:00:00	2024-11-08T17:00:00	4	Temperatura máxima	23.3
142163	7	Sololá	719	Santiago Atitlán	14	Cerro de Oro	4	Abril	2023-09-04T00:00:00	2024-11-08T17:00:00	3	Temperatura mínima	21.8
142164	7	Sololá	719	Santiago Atitlán	14	Cerro de Oro	4	Abril	2023-09-04T00:00:00	2024-11-08T17:00:00	5	Humedad	72
142165	7	Sololá	719	Santiago Atitlán	14	Cerro de Oro	4	Abril	2023-09-04T00:00:00	2024-11-08T17:00:00	6	Velocidad del viento	12.9
142166	7	Sololá	719	Santiago Atitlán	14	Cerro de Oro	4	Abril	2023-09-04T00:00:00	2024-11-08T17:00:00	7	Dirección del viento	12.87
142167	7	Sololá	719	Santiago Atitlán	14	Cerro de Oro	4	Abril	2023-09-04T00:00:00	2024-11-08T17:00:00	1	Precipitación	0
142168	7	Sololá	719	Santiago Atitlán	14	Cerro de Oro	4	Abril	2023-09-04T00:00:00	2024-11-08T17:00:00	8	Radiación solar	110
142169	7	Sololá	719	Santiago Atitlán	14	Cerro de Oro	4	Abril	2023-09-04T00:00:00	2024-11-08T18:00:00	2	Temperatura media	21.1
142170	7	Sololá	719	Santiago Atitlán	14	Cerro de Oro	4	Abril	2023-09-04T00:00:00	2024-11-08T18:00:00	4	Temperatura máxima	21.8
142171	7	Sololá	719	Santiago Atitlán	14	Cerro de Oro	4	Abril	2023-09-04T00:00:00	2024-11-08T18:00:00	3	Temperatura mínima	21.1
142172	7	Sololá	719	Santiago Atitlán	14	Cerro de Oro	4	Abril	2023-09-04T00:00:00	2024-11-08T18:00:00	5	Humedad	74
142173	7	Sololá	719	Santiago Atitlán	14	Cerro de Oro	4	Abril	2023-09-04T00:00:00	2024-11-08T18:00:00	6	Velocidad del viento	11.3
142174	7	Sololá	719	Santiago Atitlán	14	Cerro de Oro	4	Abril	2023-09-04T00:00:00	2024-11-08T18:00:00	7	Dirección del viento	11.27
142175	7	Sololá	719	Santiago Atitlán	14	Cerro de Oro	4	Abril	2023-09-04T00:00:00	2024-11-08T18:00:00	1	Precipitación	0
142176	7	Sololá	719	Santiago Atitlán	14	Cerro de Oro	4	Abril	2023-09-04T00:00:00	2024-11-08T18:00:00	8	Radiación solar	89
142177	7	Sololá	719	Santiago Atitlán	14	Cerro de Oro	4	Abril	2023-09-04T00:00:00	2024-11-08T19:00:00	2	Temperatura media	19.8
142178	7	Sololá	719	Santiago Atitlán	14	Cerro de Oro	4	Abril	2023-09-04T00:00:00	2024-11-08T19:00:00	4	Temperatura máxima	21.2
142179	7	Sololá	719	Santiago Atitlán	14	Cerro de Oro	4	Abril	2023-09-04T00:00:00	2024-11-08T19:00:00	3	Temperatura mínima	19.8
142180	7	Sololá	719	Santiago Atitlán	14	Cerro de Oro	4	Abril	2023-09-04T00:00:00	2024-11-08T19:00:00	5	Humedad	84
142181	7	Sololá	719	Santiago Atitlán	14	Cerro de Oro	4	Abril	2023-09-04T00:00:00	2024-11-08T19:00:00	6	Velocidad del viento	8
142182	7	Sololá	719	Santiago Atitlán	14	Cerro de Oro	4	Abril	2023-09-04T00:00:00	2024-11-08T19:00:00	7	Dirección del viento	8.05
142183	7	Sololá	719	Santiago Atitlán	14	Cerro de Oro	4	Abril	2023-09-04T00:00:00	2024-11-08T19:00:00	1	Precipitación	0
142184	7	Sololá	719	Santiago Atitlán	14	Cerro de Oro	4	Abril	2023-09-04T00:00:00	2024-11-08T19:00:00	8	Radiación solar	0
142185	7	Sololá	719	Santiago Atitlán	14	Cerro de Oro	4	Abril	2023-09-04T00:00:00	2024-11-08T20:00:00	2	Temperatura media	19
142186	7	Sololá	719	Santiago Atitlán	14	Cerro de Oro	4	Abril	2023-09-04T00:00:00	2024-11-08T20:00:00	4	Temperatura máxima	19.8
142187	7	Sololá	719	Santiago Atitlán	14	Cerro de Oro	4	Abril	2023-09-04T00:00:00	2024-11-08T20:00:00	3	Temperatura mínima	18.9
142188	7	Sololá	719	Santiago Atitlán	14	Cerro de Oro	4	Abril	2023-09-04T00:00:00	2024-11-08T20:00:00	5	Humedad	83
142189	7	Sololá	719	Santiago Atitlán	14	Cerro de Oro	4	Abril	2023-09-04T00:00:00	2024-11-08T20:00:00	6	Velocidad del viento	6.4
142190	7	Sololá	719	Santiago Atitlán	14	Cerro de Oro	4	Abril	2023-09-04T00:00:00	2024-11-08T20:00:00	7	Dirección del viento	6.44
142191	7	Sololá	719	Santiago Atitlán	14	Cerro de Oro	4	Abril	2023-09-04T00:00:00	2024-11-08T20:00:00	1	Precipitación	0
142192	7	Sololá	719	Santiago Atitlán	14	Cerro de Oro	4	Abril	2023-09-04T00:00:00	2024-11-08T20:00:00	8	Radiación solar	0
142193	7	Sololá	719	Santiago Atitlán	14	Cerro de Oro	4	Abril	2023-09-04T00:00:00	2024-11-08T21:00:00	2	Temperatura media	20.1
142194	7	Sololá	719	Santiago Atitlán	14	Cerro de Oro	4	Abril	2023-09-04T00:00:00	2024-11-08T21:00:00	4	Temperatura máxima	20.6
142195	7	Sololá	719	Santiago Atitlán	14	Cerro de Oro	4	Abril	2023-09-04T00:00:00	2024-11-08T21:00:00	3	Temperatura mínima	19
142196	7	Sololá	719	Santiago Atitlán	14	Cerro de Oro	4	Abril	2023-09-04T00:00:00	2024-11-08T21:00:00	5	Humedad	53
142197	7	Sololá	719	Santiago Atitlán	14	Cerro de Oro	4	Abril	2023-09-04T00:00:00	2024-11-08T21:00:00	6	Velocidad del viento	11.3
142198	7	Sololá	719	Santiago Atitlán	14	Cerro de Oro	4	Abril	2023-09-04T00:00:00	2024-11-08T21:00:00	7	Dirección del viento	11.27
142199	7	Sololá	719	Santiago Atitlán	14	Cerro de Oro	4	Abril	2023-09-04T00:00:00	2024-11-08T21:00:00	1	Precipitación	0
142200	7	Sololá	719	Santiago Atitlán	14	Cerro de Oro	4	Abril	2023-09-04T00:00:00	2024-11-08T21:00:00	8	Radiación solar	0
142201	7	Sololá	719	Santiago Atitlán	14	Cerro de Oro	4	Abril	2023-09-04T00:00:00	2024-11-08T22:00:00	2	Temperatura media	19.5
142202	7	Sololá	719	Santiago Atitlán	14	Cerro de Oro	4	Abril	2023-09-04T00:00:00	2024-11-08T22:00:00	4	Temperatura máxima	20.1
142203	7	Sololá	719	Santiago Atitlán	14	Cerro de Oro	4	Abril	2023-09-04T00:00:00	2024-11-08T22:00:00	3	Temperatura mínima	19.4
142204	7	Sololá	719	Santiago Atitlán	14	Cerro de Oro	4	Abril	2023-09-04T00:00:00	2024-11-08T22:00:00	5	Humedad	55
142205	7	Sololá	719	Santiago Atitlán	14	Cerro de Oro	4	Abril	2023-09-04T00:00:00	2024-11-08T22:00:00	6	Velocidad del viento	11.3
142206	7	Sololá	719	Santiago Atitlán	14	Cerro de Oro	4	Abril	2023-09-04T00:00:00	2024-11-08T22:00:00	7	Dirección del viento	11.27
142207	7	Sololá	719	Santiago Atitlán	14	Cerro de Oro	4	Abril	2023-09-04T00:00:00	2024-11-08T22:00:00	1	Precipitación	0
142208	7	Sololá	719	Santiago Atitlán	14	Cerro de Oro	4	Abril	2023-09-04T00:00:00	2024-11-08T22:00:00	8	Radiación solar	0
142209	7	Sololá	719	Santiago Atitlán	14	Cerro de Oro	4	Abril	2023-09-04T00:00:00	2024-11-08T23:00:00	2	Temperatura media	18.9
142210	7	Sololá	719	Santiago Atitlán	14	Cerro de Oro	4	Abril	2023-09-04T00:00:00	2024-11-08T23:00:00	4	Temperatura máxima	19.5
142211	7	Sololá	719	Santiago Atitlán	14	Cerro de Oro	4	Abril	2023-09-04T00:00:00	2024-11-08T23:00:00	3	Temperatura mínima	18.9
142212	7	Sololá	719	Santiago Atitlán	14	Cerro de Oro	4	Abril	2023-09-04T00:00:00	2024-11-08T23:00:00	5	Humedad	57
142213	7	Sololá	719	Santiago Atitlán	14	Cerro de Oro	4	Abril	2023-09-04T00:00:00	2024-11-08T23:00:00	6	Velocidad del viento	9.7
142214	7	Sololá	719	Santiago Atitlán	14	Cerro de Oro	4	Abril	2023-09-04T00:00:00	2024-11-08T23:00:00	7	Dirección del viento	9.66
142215	7	Sololá	719	Santiago Atitlán	14	Cerro de Oro	4	Abril	2023-09-04T00:00:00	2024-11-08T23:00:00	1	Precipitación	0
142216	7	Sololá	719	Santiago Atitlán	14	Cerro de Oro	4	Abril	2023-09-04T00:00:00	2024-11-08T23:00:00	8	Radiación solar	0
142217	7	Sololá	719	Santiago Atitlán	14	Cerro de Oro	4	Abril	2023-10-04T00:00:00	2024-11-08T00:00:00	2	Temperatura media	18.7
142218	7	Sololá	719	Santiago Atitlán	14	Cerro de Oro	4	Abril	2023-10-04T00:00:00	2024-11-08T00:00:00	4	Temperatura máxima	18.9
142219	7	Sololá	719	Santiago Atitlán	14	Cerro de Oro	4	Abril	2023-10-04T00:00:00	2024-11-08T00:00:00	3	Temperatura mínima	17.8
142220	7	Sololá	719	Santiago Atitlán	14	Cerro de Oro	4	Abril	2023-10-04T00:00:00	2024-11-08T00:00:00	5	Humedad	56
142221	7	Sololá	719	Santiago Atitlán	14	Cerro de Oro	4	Abril	2023-10-04T00:00:00	2024-11-08T00:00:00	6	Velocidad del viento	6.4
142222	7	Sololá	719	Santiago Atitlán	14	Cerro de Oro	4	Abril	2023-10-04T00:00:00	2024-11-08T00:00:00	7	Dirección del viento	6.44
142223	7	Sololá	719	Santiago Atitlán	14	Cerro de Oro	4	Abril	2023-10-04T00:00:00	2024-11-08T00:00:00	1	Precipitación	0
142224	7	Sololá	719	Santiago Atitlán	14	Cerro de Oro	4	Abril	2023-10-04T00:00:00	2024-11-08T00:00:00	8	Radiación solar	0
142225	7	Sololá	719	Santiago Atitlán	14	Cerro de Oro	4	Abril	2023-10-04T00:00:00	2024-11-08T01:00:00	2	Temperatura media	16.9
142226	7	Sololá	719	Santiago Atitlán	14	Cerro de Oro	4	Abril	2023-10-04T00:00:00	2024-11-08T01:00:00	4	Temperatura máxima	18.7
142227	7	Sololá	719	Santiago Atitlán	14	Cerro de Oro	4	Abril	2023-10-04T00:00:00	2024-11-08T01:00:00	3	Temperatura mínima	16.9
142228	7	Sololá	719	Santiago Atitlán	14	Cerro de Oro	4	Abril	2023-10-04T00:00:00	2024-11-08T01:00:00	5	Humedad	59
142229	7	Sololá	719	Santiago Atitlán	14	Cerro de Oro	4	Abril	2023-10-04T00:00:00	2024-11-08T01:00:00	6	Velocidad del viento	4.8
142230	7	Sololá	719	Santiago Atitlán	14	Cerro de Oro	4	Abril	2023-10-04T00:00:00	2024-11-08T01:00:00	7	Dirección del viento	4.83
142231	7	Sololá	719	Santiago Atitlán	14	Cerro de Oro	4	Abril	2023-10-04T00:00:00	2024-11-08T01:00:00	1	Precipitación	0
142232	7	Sololá	719	Santiago Atitlán	14	Cerro de Oro	4	Abril	2023-10-04T00:00:00	2024-11-08T01:00:00	8	Radiación solar	0
142233	7	Sololá	719	Santiago Atitlán	14	Cerro de Oro	4	Abril	2023-10-04T00:00:00	2024-11-08T02:00:00	2	Temperatura media	17.8
142234	7	Sololá	719	Santiago Atitlán	14	Cerro de Oro	4	Abril	2023-10-04T00:00:00	2024-11-08T02:00:00	4	Temperatura máxima	17.8
142235	7	Sololá	719	Santiago Atitlán	14	Cerro de Oro	4	Abril	2023-10-04T00:00:00	2024-11-08T02:00:00	3	Temperatura mínima	16.6
142236	7	Sololá	719	Santiago Atitlán	14	Cerro de Oro	4	Abril	2023-10-04T00:00:00	2024-11-08T02:00:00	5	Humedad	57
142237	7	Sololá	719	Santiago Atitlán	14	Cerro de Oro	4	Abril	2023-10-04T00:00:00	2024-11-08T02:00:00	6	Velocidad del viento	6.4
142238	7	Sololá	719	Santiago Atitlán	14	Cerro de Oro	4	Abril	2023-10-04T00:00:00	2024-11-08T02:00:00	7	Dirección del viento	6.44
142239	7	Sololá	719	Santiago Atitlán	14	Cerro de Oro	4	Abril	2023-10-04T00:00:00	2024-11-08T02:00:00	1	Precipitación	0
142240	7	Sololá	719	Santiago Atitlán	14	Cerro de Oro	4	Abril	2023-10-04T00:00:00	2024-11-08T02:00:00	8	Radiación solar	0
142241	7	Sololá	719	Santiago Atitlán	14	Cerro de Oro	4	Abril	2023-10-04T00:00:00	2024-11-08T03:00:00	2	Temperatura media	17.7
142242	7	Sololá	719	Santiago Atitlán	14	Cerro de Oro	4	Abril	2023-10-04T00:00:00	2024-11-08T03:00:00	4	Temperatura máxima	17.9
142243	7	Sololá	719	Santiago Atitlán	14	Cerro de Oro	4	Abril	2023-10-04T00:00:00	2024-11-08T03:00:00	3	Temperatura mínima	17.7
142244	7	Sololá	719	Santiago Atitlán	14	Cerro de Oro	4	Abril	2023-10-04T00:00:00	2024-11-08T03:00:00	5	Humedad	58
142245	7	Sololá	719	Santiago Atitlán	14	Cerro de Oro	4	Abril	2023-10-04T00:00:00	2024-11-08T03:00:00	6	Velocidad del viento	8
142246	7	Sololá	719	Santiago Atitlán	14	Cerro de Oro	4	Abril	2023-10-04T00:00:00	2024-11-08T03:00:00	7	Dirección del viento	8.05
142247	7	Sololá	719	Santiago Atitlán	14	Cerro de Oro	4	Abril	2023-10-04T00:00:00	2024-11-08T03:00:00	1	Precipitación	0
142248	7	Sololá	719	Santiago Atitlán	14	Cerro de Oro	4	Abril	2023-10-04T00:00:00	2024-11-08T03:00:00	8	Radiación solar	0
142249	7	Sololá	719	Santiago Atitlán	14	Cerro de Oro	4	Abril	2023-10-04T00:00:00	2024-11-08T04:00:00	2	Temperatura media	17.8
142250	7	Sololá	719	Santiago Atitlán	14	Cerro de Oro	4	Abril	2023-10-04T00:00:00	2024-11-08T04:00:00	4	Temperatura máxima	17.8
142251	7	Sololá	719	Santiago Atitlán	14	Cerro de Oro	4	Abril	2023-10-04T00:00:00	2024-11-08T04:00:00	3	Temperatura mínima	17.6
142252	7	Sololá	719	Santiago Atitlán	14	Cerro de Oro	4	Abril	2023-10-04T00:00:00	2024-11-08T04:00:00	5	Humedad	57
142253	7	Sololá	719	Santiago Atitlán	14	Cerro de Oro	4	Abril	2023-10-04T00:00:00	2024-11-08T04:00:00	6	Velocidad del viento	8
142254	7	Sololá	719	Santiago Atitlán	14	Cerro de Oro	4	Abril	2023-10-04T00:00:00	2024-11-08T04:00:00	7	Dirección del viento	8.05
142255	7	Sololá	719	Santiago Atitlán	14	Cerro de Oro	4	Abril	2023-10-04T00:00:00	2024-11-08T04:00:00	1	Precipitación	0
142256	7	Sololá	719	Santiago Atitlán	14	Cerro de Oro	4	Abril	2023-10-04T00:00:00	2024-11-08T04:00:00	8	Radiación solar	0
142257	7	Sololá	719	Santiago Atitlán	14	Cerro de Oro	4	Abril	2023-10-04T00:00:00	2024-11-08T05:00:00	2	Temperatura media	17.7
142258	7	Sololá	719	Santiago Atitlán	14	Cerro de Oro	4	Abril	2023-10-04T00:00:00	2024-11-08T05:00:00	4	Temperatura máxima	17.9
142259	7	Sololá	719	Santiago Atitlán	14	Cerro de Oro	4	Abril	2023-10-04T00:00:00	2024-11-08T05:00:00	3	Temperatura mínima	17.7
142260	7	Sololá	719	Santiago Atitlán	14	Cerro de Oro	4	Abril	2023-10-04T00:00:00	2024-11-08T05:00:00	5	Humedad	58
142261	7	Sololá	719	Santiago Atitlán	14	Cerro de Oro	4	Abril	2023-10-04T00:00:00	2024-11-08T05:00:00	6	Velocidad del viento	8
142262	7	Sololá	719	Santiago Atitlán	14	Cerro de Oro	4	Abril	2023-10-04T00:00:00	2024-11-08T05:00:00	7	Dirección del viento	8.05
142263	7	Sololá	719	Santiago Atitlán	14	Cerro de Oro	4	Abril	2023-10-04T00:00:00	2024-11-08T05:00:00	1	Precipitación	0
142264	7	Sololá	719	Santiago Atitlán	14	Cerro de Oro	4	Abril	2023-10-04T00:00:00	2024-11-08T05:00:00	8	Radiación solar	0
142265	7	Sololá	719	Santiago Atitlán	14	Cerro de Oro	4	Abril	2023-10-04T00:00:00	2024-11-08T06:00:00	2	Temperatura media	18.3
142266	7	Sololá	719	Santiago Atitlán	14	Cerro de Oro	4	Abril	2023-10-04T00:00:00	2024-11-08T06:00:00	4	Temperatura máxima	18.3
142267	7	Sololá	719	Santiago Atitlán	14	Cerro de Oro	4	Abril	2023-10-04T00:00:00	2024-11-08T06:00:00	3	Temperatura mínima	17.7
142268	7	Sololá	719	Santiago Atitlán	14	Cerro de Oro	4	Abril	2023-10-04T00:00:00	2024-11-08T06:00:00	5	Humedad	57
142269	7	Sololá	719	Santiago Atitlán	14	Cerro de Oro	4	Abril	2023-10-04T00:00:00	2024-11-08T06:00:00	6	Velocidad del viento	11.3
142270	7	Sololá	719	Santiago Atitlán	14	Cerro de Oro	4	Abril	2023-10-04T00:00:00	2024-11-08T06:00:00	7	Dirección del viento	11.27
142271	7	Sololá	719	Santiago Atitlán	14	Cerro de Oro	4	Abril	2023-10-04T00:00:00	2024-11-08T06:00:00	1	Precipitación	0
142272	7	Sololá	719	Santiago Atitlán	14	Cerro de Oro	4	Abril	2023-10-04T00:00:00	2024-11-08T06:00:00	8	Radiación solar	1
142273	7	Sololá	719	Santiago Atitlán	14	Cerro de Oro	4	Abril	2023-10-04T00:00:00	2024-11-08T07:00:00	2	Temperatura media	17.9
142274	7	Sololá	719	Santiago Atitlán	14	Cerro de Oro	4	Abril	2023-10-04T00:00:00	2024-11-08T07:00:00	4	Temperatura máxima	18.4
142275	7	Sololá	719	Santiago Atitlán	14	Cerro de Oro	4	Abril	2023-10-04T00:00:00	2024-11-08T07:00:00	3	Temperatura mínima	17.9
142276	7	Sololá	719	Santiago Atitlán	14	Cerro de Oro	4	Abril	2023-10-04T00:00:00	2024-11-08T07:00:00	5	Humedad	57
142277	7	Sololá	719	Santiago Atitlán	14	Cerro de Oro	4	Abril	2023-10-04T00:00:00	2024-11-08T07:00:00	6	Velocidad del viento	12.9
142278	7	Sololá	719	Santiago Atitlán	14	Cerro de Oro	4	Abril	2023-10-04T00:00:00	2024-11-08T07:00:00	7	Dirección del viento	12.87
142279	7	Sololá	719	Santiago Atitlán	14	Cerro de Oro	4	Abril	2023-10-04T00:00:00	2024-11-08T07:00:00	1	Precipitación	0
142280	7	Sololá	719	Santiago Atitlán	14	Cerro de Oro	4	Abril	2023-10-04T00:00:00	2024-11-08T07:00:00	8	Radiación solar	65
142281	7	Sololá	719	Santiago Atitlán	14	Cerro de Oro	4	Abril	2023-10-04T00:00:00	2024-11-08T08:00:00	2	Temperatura media	18.6
142282	7	Sololá	719	Santiago Atitlán	14	Cerro de Oro	4	Abril	2023-10-04T00:00:00	2024-11-08T08:00:00	4	Temperatura máxima	18.6
142283	7	Sololá	719	Santiago Atitlán	14	Cerro de Oro	4	Abril	2023-10-04T00:00:00	2024-11-08T08:00:00	3	Temperatura mínima	17.8
142284	7	Sololá	719	Santiago Atitlán	14	Cerro de Oro	4	Abril	2023-10-04T00:00:00	2024-11-08T08:00:00	5	Humedad	59
142285	7	Sololá	719	Santiago Atitlán	14	Cerro de Oro	4	Abril	2023-10-04T00:00:00	2024-11-08T08:00:00	6	Velocidad del viento	9.7
142286	7	Sololá	719	Santiago Atitlán	14	Cerro de Oro	4	Abril	2023-10-04T00:00:00	2024-11-08T08:00:00	7	Dirección del viento	9.66
142287	7	Sololá	719	Santiago Atitlán	14	Cerro de Oro	4	Abril	2023-10-04T00:00:00	2024-11-08T08:00:00	1	Precipitación	0
142288	7	Sololá	719	Santiago Atitlán	14	Cerro de Oro	4	Abril	2023-10-04T00:00:00	2024-11-08T08:00:00	8	Radiación solar	279
142289	7	Sololá	719	Santiago Atitlán	14	Cerro de Oro	4	Abril	2023-10-04T00:00:00	2024-11-08T09:00:00	2	Temperatura media	19.7
142290	7	Sololá	719	Santiago Atitlán	14	Cerro de Oro	4	Abril	2023-10-04T00:00:00	2024-11-08T09:00:00	4	Temperatura máxima	19.7
142291	7	Sololá	719	Santiago Atitlán	14	Cerro de Oro	4	Abril	2023-10-04T00:00:00	2024-11-08T09:00:00	3	Temperatura mínima	18.6
142292	7	Sololá	719	Santiago Atitlán	14	Cerro de Oro	4	Abril	2023-10-04T00:00:00	2024-11-08T09:00:00	5	Humedad	55
142293	7	Sololá	719	Santiago Atitlán	14	Cerro de Oro	4	Abril	2023-10-04T00:00:00	2024-11-08T09:00:00	6	Velocidad del viento	14.5
142294	7	Sololá	719	Santiago Atitlán	14	Cerro de Oro	4	Abril	2023-10-04T00:00:00	2024-11-08T09:00:00	7	Dirección del viento	14.48
142295	7	Sololá	719	Santiago Atitlán	14	Cerro de Oro	4	Abril	2023-10-04T00:00:00	2024-11-08T09:00:00	1	Precipitación	0
142296	7	Sololá	719	Santiago Atitlán	14	Cerro de Oro	4	Abril	2023-10-04T00:00:00	2024-11-08T09:00:00	8	Radiación solar	438
142297	7	Sololá	719	Santiago Atitlán	14	Cerro de Oro	4	Abril	2023-10-04T00:00:00	2024-11-08T10:00:00	2	Temperatura media	20.4
142298	7	Sololá	719	Santiago Atitlán	14	Cerro de Oro	4	Abril	2023-10-04T00:00:00	2024-11-08T10:00:00	4	Temperatura máxima	20.4
142299	7	Sololá	719	Santiago Atitlán	14	Cerro de Oro	4	Abril	2023-10-04T00:00:00	2024-11-08T10:00:00	3	Temperatura mínima	19.7
142300	7	Sololá	719	Santiago Atitlán	14	Cerro de Oro	4	Abril	2023-10-04T00:00:00	2024-11-08T10:00:00	5	Humedad	54
142301	7	Sololá	719	Santiago Atitlán	14	Cerro de Oro	4	Abril	2023-10-04T00:00:00	2024-11-08T10:00:00	6	Velocidad del viento	12.9
142302	7	Sololá	719	Santiago Atitlán	14	Cerro de Oro	4	Abril	2023-10-04T00:00:00	2024-11-08T10:00:00	7	Dirección del viento	12.87
142303	7	Sololá	719	Santiago Atitlán	14	Cerro de Oro	4	Abril	2023-10-04T00:00:00	2024-11-08T10:00:00	1	Precipitación	0
142304	7	Sololá	719	Santiago Atitlán	14	Cerro de Oro	4	Abril	2023-10-04T00:00:00	2024-11-08T10:00:00	8	Radiación solar	578
142305	7	Sololá	719	Santiago Atitlán	14	Cerro de Oro	4	Abril	2023-10-04T00:00:00	2024-11-08T11:00:00	2	Temperatura media	21.9
142306	7	Sololá	719	Santiago Atitlán	14	Cerro de Oro	4	Abril	2023-10-04T00:00:00	2024-11-08T11:00:00	4	Temperatura máxima	21.9
142307	7	Sololá	719	Santiago Atitlán	14	Cerro de Oro	4	Abril	2023-10-04T00:00:00	2024-11-08T11:00:00	3	Temperatura mínima	20.4
142308	7	Sololá	719	Santiago Atitlán	14	Cerro de Oro	4	Abril	2023-10-04T00:00:00	2024-11-08T11:00:00	5	Humedad	51
142309	7	Sololá	719	Santiago Atitlán	14	Cerro de Oro	4	Abril	2023-10-04T00:00:00	2024-11-08T11:00:00	6	Velocidad del viento	11.3
142310	7	Sololá	719	Santiago Atitlán	14	Cerro de Oro	4	Abril	2023-10-04T00:00:00	2024-11-08T11:00:00	7	Dirección del viento	11.27
142311	7	Sololá	719	Santiago Atitlán	14	Cerro de Oro	4	Abril	2023-10-04T00:00:00	2024-11-08T11:00:00	1	Precipitación	0
142312	7	Sololá	719	Santiago Atitlán	14	Cerro de Oro	4	Abril	2023-10-04T00:00:00	2024-11-08T11:00:00	8	Radiación solar	844
142313	7	Sololá	719	Santiago Atitlán	14	Cerro de Oro	4	Abril	2023-10-04T00:00:00	2024-11-08T12:00:00	2	Temperatura media	23.4
142314	7	Sololá	719	Santiago Atitlán	14	Cerro de Oro	4	Abril	2023-10-04T00:00:00	2024-11-08T12:00:00	4	Temperatura máxima	23.4
142315	7	Sololá	719	Santiago Atitlán	14	Cerro de Oro	4	Abril	2023-10-04T00:00:00	2024-11-08T12:00:00	3	Temperatura mínima	21.9
142316	7	Sololá	719	Santiago Atitlán	14	Cerro de Oro	4	Abril	2023-10-04T00:00:00	2024-11-08T12:00:00	5	Humedad	45
142317	7	Sololá	719	Santiago Atitlán	14	Cerro de Oro	4	Abril	2023-10-04T00:00:00	2024-11-08T12:00:00	6	Velocidad del viento	9.7
142318	7	Sololá	719	Santiago Atitlán	14	Cerro de Oro	4	Abril	2023-10-04T00:00:00	2024-11-08T12:00:00	7	Dirección del viento	9.66
142319	7	Sololá	719	Santiago Atitlán	14	Cerro de Oro	4	Abril	2023-10-04T00:00:00	2024-11-08T12:00:00	1	Precipitación	0
142320	7	Sololá	719	Santiago Atitlán	14	Cerro de Oro	4	Abril	2023-10-04T00:00:00	2024-11-08T12:00:00	8	Radiación solar	941
142321	7	Sololá	719	Santiago Atitlán	14	Cerro de Oro	4	Abril	2023-10-04T00:00:00	2024-11-08T13:00:00	2	Temperatura media	24.4
142322	7	Sololá	719	Santiago Atitlán	14	Cerro de Oro	4	Abril	2023-10-04T00:00:00	2024-11-08T13:00:00	4	Temperatura máxima	24.6
142323	7	Sololá	719	Santiago Atitlán	14	Cerro de Oro	4	Abril	2023-10-04T00:00:00	2024-11-08T13:00:00	3	Temperatura mínima	23.4
142324	7	Sololá	719	Santiago Atitlán	14	Cerro de Oro	4	Abril	2023-10-04T00:00:00	2024-11-08T13:00:00	5	Humedad	39
142325	7	Sololá	719	Santiago Atitlán	14	Cerro de Oro	4	Abril	2023-10-04T00:00:00	2024-11-08T13:00:00	6	Velocidad del viento	4.8
142326	7	Sololá	719	Santiago Atitlán	14	Cerro de Oro	4	Abril	2023-10-04T00:00:00	2024-11-08T13:00:00	7	Dirección del viento	4.83
142327	7	Sololá	719	Santiago Atitlán	14	Cerro de Oro	4	Abril	2023-10-04T00:00:00	2024-11-08T13:00:00	1	Precipitación	0
142328	7	Sololá	719	Santiago Atitlán	14	Cerro de Oro	4	Abril	2023-10-04T00:00:00	2024-11-08T13:00:00	8	Radiación solar	937
142329	7	Sololá	719	Santiago Atitlán	14	Cerro de Oro	4	Abril	2023-10-04T00:00:00	2024-11-08T14:00:00	2	Temperatura media	24.6
142330	7	Sololá	719	Santiago Atitlán	14	Cerro de Oro	4	Abril	2023-10-04T00:00:00	2024-11-08T14:00:00	4	Temperatura máxima	25.4
142331	7	Sololá	719	Santiago Atitlán	14	Cerro de Oro	4	Abril	2023-10-04T00:00:00	2024-11-08T14:00:00	3	Temperatura mínima	24.3
142332	7	Sololá	719	Santiago Atitlán	14	Cerro de Oro	4	Abril	2023-10-04T00:00:00	2024-11-08T14:00:00	5	Humedad	56
142333	7	Sololá	719	Santiago Atitlán	14	Cerro de Oro	4	Abril	2023-10-04T00:00:00	2024-11-08T14:00:00	6	Velocidad del viento	9.7
142334	7	Sololá	719	Santiago Atitlán	14	Cerro de Oro	4	Abril	2023-10-04T00:00:00	2024-11-08T14:00:00	7	Dirección del viento	9.66
142335	7	Sololá	719	Santiago Atitlán	14	Cerro de Oro	4	Abril	2023-10-04T00:00:00	2024-11-08T14:00:00	1	Precipitación	0
142336	7	Sololá	719	Santiago Atitlán	14	Cerro de Oro	4	Abril	2023-10-04T00:00:00	2024-11-08T14:00:00	8	Radiación solar	900
142337	7	Sololá	719	Santiago Atitlán	14	Cerro de Oro	4	Abril	2023-10-04T00:00:00	2024-11-08T15:00:00	2	Temperatura media	24.2
142338	7	Sololá	719	Santiago Atitlán	14	Cerro de Oro	4	Abril	2023-10-04T00:00:00	2024-11-08T15:00:00	4	Temperatura máxima	24.8
142339	7	Sololá	719	Santiago Atitlán	14	Cerro de Oro	4	Abril	2023-10-04T00:00:00	2024-11-08T15:00:00	3	Temperatura mínima	23.9
142340	7	Sololá	719	Santiago Atitlán	14	Cerro de Oro	4	Abril	2023-10-04T00:00:00	2024-11-08T15:00:00	5	Humedad	56
142341	7	Sololá	719	Santiago Atitlán	14	Cerro de Oro	4	Abril	2023-10-04T00:00:00	2024-11-08T15:00:00	6	Velocidad del viento	14.5
142342	7	Sololá	719	Santiago Atitlán	14	Cerro de Oro	4	Abril	2023-10-04T00:00:00	2024-11-08T15:00:00	7	Dirección del viento	14.48
142343	7	Sololá	719	Santiago Atitlán	14	Cerro de Oro	4	Abril	2023-10-04T00:00:00	2024-11-08T15:00:00	1	Precipitación	0
142344	7	Sololá	719	Santiago Atitlán	14	Cerro de Oro	4	Abril	2023-10-04T00:00:00	2024-11-08T15:00:00	8	Radiación solar	560
142345	7	Sololá	719	Santiago Atitlán	14	Cerro de Oro	4	Abril	2023-10-04T00:00:00	2024-11-08T16:00:00	2	Temperatura media	24
142346	7	Sololá	719	Santiago Atitlán	14	Cerro de Oro	4	Abril	2023-10-04T00:00:00	2024-11-08T16:00:00	4	Temperatura máxima	24.3
142347	7	Sololá	719	Santiago Atitlán	14	Cerro de Oro	4	Abril	2023-10-04T00:00:00	2024-11-08T16:00:00	3	Temperatura mínima	23.2
142348	7	Sololá	719	Santiago Atitlán	14	Cerro de Oro	4	Abril	2023-10-04T00:00:00	2024-11-08T16:00:00	5	Humedad	55
142349	7	Sololá	719	Santiago Atitlán	14	Cerro de Oro	4	Abril	2023-10-04T00:00:00	2024-11-08T16:00:00	6	Velocidad del viento	12.9
142350	7	Sololá	719	Santiago Atitlán	14	Cerro de Oro	4	Abril	2023-10-04T00:00:00	2024-11-08T16:00:00	7	Dirección del viento	12.87
142351	7	Sololá	719	Santiago Atitlán	14	Cerro de Oro	4	Abril	2023-10-04T00:00:00	2024-11-08T16:00:00	1	Precipitación	0
142352	7	Sololá	719	Santiago Atitlán	14	Cerro de Oro	4	Abril	2023-10-04T00:00:00	2024-11-08T16:00:00	8	Radiación solar	383
142353	7	Sololá	719	Santiago Atitlán	14	Cerro de Oro	4	Abril	2023-10-04T00:00:00	2024-11-08T17:00:00	2	Temperatura media	23
142354	7	Sololá	719	Santiago Atitlán	14	Cerro de Oro	4	Abril	2023-10-04T00:00:00	2024-11-08T17:00:00	4	Temperatura máxima	24.2
142355	7	Sololá	719	Santiago Atitlán	14	Cerro de Oro	4	Abril	2023-10-04T00:00:00	2024-11-08T17:00:00	3	Temperatura mínima	23
142356	7	Sololá	719	Santiago Atitlán	14	Cerro de Oro	4	Abril	2023-10-04T00:00:00	2024-11-08T17:00:00	5	Humedad	59
142357	7	Sololá	719	Santiago Atitlán	14	Cerro de Oro	4	Abril	2023-10-04T00:00:00	2024-11-08T17:00:00	6	Velocidad del viento	12.9
142358	7	Sololá	719	Santiago Atitlán	14	Cerro de Oro	4	Abril	2023-10-04T00:00:00	2024-11-08T17:00:00	7	Dirección del viento	12.87
142359	7	Sololá	719	Santiago Atitlán	14	Cerro de Oro	4	Abril	2023-10-04T00:00:00	2024-11-08T17:00:00	1	Precipitación	0
142360	7	Sololá	719	Santiago Atitlán	14	Cerro de Oro	4	Abril	2023-10-04T00:00:00	2024-11-08T17:00:00	8	Radiación solar	360
142361	7	Sololá	719	Santiago Atitlán	14	Cerro de Oro	4	Abril	2023-10-04T00:00:00	2024-11-08T18:00:00	2	Temperatura media	22.2
142362	7	Sololá	719	Santiago Atitlán	14	Cerro de Oro	4	Abril	2023-10-04T00:00:00	2024-11-08T18:00:00	4	Temperatura máxima	23.3
142363	7	Sololá	719	Santiago Atitlán	14	Cerro de Oro	4	Abril	2023-10-04T00:00:00	2024-11-08T18:00:00	3	Temperatura mínima	22.2
142364	7	Sololá	719	Santiago Atitlán	14	Cerro de Oro	4	Abril	2023-10-04T00:00:00	2024-11-08T18:00:00	5	Humedad	71
142365	7	Sololá	719	Santiago Atitlán	14	Cerro de Oro	4	Abril	2023-10-04T00:00:00	2024-11-08T18:00:00	6	Velocidad del viento	11.3
142366	7	Sololá	719	Santiago Atitlán	14	Cerro de Oro	4	Abril	2023-10-04T00:00:00	2024-11-08T18:00:00	7	Dirección del viento	11.27
142367	7	Sololá	719	Santiago Atitlán	14	Cerro de Oro	4	Abril	2023-10-04T00:00:00	2024-11-08T18:00:00	1	Precipitación	0
142368	7	Sololá	719	Santiago Atitlán	14	Cerro de Oro	4	Abril	2023-10-04T00:00:00	2024-11-08T18:00:00	8	Radiación solar	126
142369	7	Sololá	719	Santiago Atitlán	14	Cerro de Oro	4	Abril	2023-10-04T00:00:00	2024-11-08T19:00:00	2	Temperatura media	21.8
142370	7	Sololá	719	Santiago Atitlán	14	Cerro de Oro	4	Abril	2023-10-04T00:00:00	2024-11-08T19:00:00	4	Temperatura máxima	22.6
142371	7	Sololá	719	Santiago Atitlán	14	Cerro de Oro	4	Abril	2023-10-04T00:00:00	2024-11-08T19:00:00	3	Temperatura mínima	21.7
142372	7	Sololá	719	Santiago Atitlán	14	Cerro de Oro	4	Abril	2023-10-04T00:00:00	2024-11-08T19:00:00	5	Humedad	65
142373	7	Sololá	719	Santiago Atitlán	14	Cerro de Oro	4	Abril	2023-10-04T00:00:00	2024-11-08T19:00:00	6	Velocidad del viento	6.4
142374	7	Sololá	719	Santiago Atitlán	14	Cerro de Oro	4	Abril	2023-10-04T00:00:00	2024-11-08T19:00:00	7	Dirección del viento	6.44
142375	7	Sololá	719	Santiago Atitlán	14	Cerro de Oro	4	Abril	2023-10-04T00:00:00	2024-11-08T19:00:00	1	Precipitación	0
142376	7	Sololá	719	Santiago Atitlán	14	Cerro de Oro	4	Abril	2023-10-04T00:00:00	2024-11-08T19:00:00	8	Radiación solar	0
142377	7	Sololá	719	Santiago Atitlán	14	Cerro de Oro	4	Abril	2023-10-04T00:00:00	2024-11-08T20:00:00	2	Temperatura media	20.8
142378	7	Sololá	719	Santiago Atitlán	14	Cerro de Oro	4	Abril	2023-10-04T00:00:00	2024-11-08T20:00:00	4	Temperatura máxima	21.8
142379	7	Sololá	719	Santiago Atitlán	14	Cerro de Oro	4	Abril	2023-10-04T00:00:00	2024-11-08T20:00:00	3	Temperatura mínima	20.8
142380	7	Sololá	719	Santiago Atitlán	14	Cerro de Oro	4	Abril	2023-10-04T00:00:00	2024-11-08T20:00:00	5	Humedad	53
142381	7	Sololá	719	Santiago Atitlán	14	Cerro de Oro	4	Abril	2023-10-04T00:00:00	2024-11-08T20:00:00	6	Velocidad del viento	11.3
142382	7	Sololá	719	Santiago Atitlán	14	Cerro de Oro	4	Abril	2023-10-04T00:00:00	2024-11-08T20:00:00	7	Dirección del viento	11.27
142383	7	Sololá	719	Santiago Atitlán	14	Cerro de Oro	4	Abril	2023-10-04T00:00:00	2024-11-08T20:00:00	1	Precipitación	0
142384	7	Sololá	719	Santiago Atitlán	14	Cerro de Oro	4	Abril	2023-10-04T00:00:00	2024-11-08T20:00:00	8	Radiación solar	0
142385	7	Sololá	719	Santiago Atitlán	14	Cerro de Oro	4	Abril	2023-10-04T00:00:00	2024-11-08T21:00:00	2	Temperatura media	19.9
142386	7	Sololá	719	Santiago Atitlán	14	Cerro de Oro	4	Abril	2023-10-04T00:00:00	2024-11-08T21:00:00	4	Temperatura máxima	20.8
142387	7	Sololá	719	Santiago Atitlán	14	Cerro de Oro	4	Abril	2023-10-04T00:00:00	2024-11-08T21:00:00	3	Temperatura mínima	19.9
142388	7	Sololá	719	Santiago Atitlán	14	Cerro de Oro	4	Abril	2023-10-04T00:00:00	2024-11-08T21:00:00	5	Humedad	54
142389	7	Sololá	719	Santiago Atitlán	14	Cerro de Oro	4	Abril	2023-10-04T00:00:00	2024-11-08T21:00:00	6	Velocidad del viento	14.5
142390	7	Sololá	719	Santiago Atitlán	14	Cerro de Oro	4	Abril	2023-10-04T00:00:00	2024-11-08T21:00:00	7	Dirección del viento	14.48
142391	7	Sololá	719	Santiago Atitlán	14	Cerro de Oro	4	Abril	2023-10-04T00:00:00	2024-11-08T21:00:00	1	Precipitación	0
142392	7	Sololá	719	Santiago Atitlán	14	Cerro de Oro	4	Abril	2023-10-04T00:00:00	2024-11-08T21:00:00	8	Radiación solar	0
142393	7	Sololá	719	Santiago Atitlán	14	Cerro de Oro	4	Abril	2023-10-04T00:00:00	2024-11-08T22:00:00	2	Temperatura media	19.5
142394	7	Sololá	719	Santiago Atitlán	14	Cerro de Oro	4	Abril	2023-10-04T00:00:00	2024-11-08T22:00:00	4	Temperatura máxima	19.9
142395	7	Sololá	719	Santiago Atitlán	14	Cerro de Oro	4	Abril	2023-10-04T00:00:00	2024-11-08T22:00:00	3	Temperatura mínima	19.3
142396	7	Sololá	719	Santiago Atitlán	14	Cerro de Oro	4	Abril	2023-10-04T00:00:00	2024-11-08T22:00:00	5	Humedad	50
142397	7	Sololá	719	Santiago Atitlán	14	Cerro de Oro	4	Abril	2023-10-04T00:00:00	2024-11-08T22:00:00	6	Velocidad del viento	11.3
142398	7	Sololá	719	Santiago Atitlán	14	Cerro de Oro	4	Abril	2023-10-04T00:00:00	2024-11-08T22:00:00	7	Dirección del viento	11.27
142399	7	Sololá	719	Santiago Atitlán	14	Cerro de Oro	4	Abril	2023-10-04T00:00:00	2024-11-08T22:00:00	1	Precipitación	0
142400	7	Sololá	719	Santiago Atitlán	14	Cerro de Oro	4	Abril	2023-10-04T00:00:00	2024-11-08T22:00:00	8	Radiación solar	0
142401	7	Sololá	719	Santiago Atitlán	14	Cerro de Oro	4	Abril	2023-10-04T00:00:00	2024-11-08T23:00:00	2	Temperatura media	18.9
142402	7	Sololá	719	Santiago Atitlán	14	Cerro de Oro	4	Abril	2023-10-04T00:00:00	2024-11-08T23:00:00	4	Temperatura máxima	19.5
142403	7	Sololá	719	Santiago Atitlán	14	Cerro de Oro	4	Abril	2023-10-04T00:00:00	2024-11-08T23:00:00	3	Temperatura mínima	18.8
142404	7	Sololá	719	Santiago Atitlán	14	Cerro de Oro	4	Abril	2023-10-04T00:00:00	2024-11-08T23:00:00	5	Humedad	51
142405	7	Sololá	719	Santiago Atitlán	14	Cerro de Oro	4	Abril	2023-10-04T00:00:00	2024-11-08T23:00:00	6	Velocidad del viento	4.8
142406	7	Sololá	719	Santiago Atitlán	14	Cerro de Oro	4	Abril	2023-10-04T00:00:00	2024-11-08T23:00:00	7	Dirección del viento	4.83
142407	7	Sololá	719	Santiago Atitlán	14	Cerro de Oro	4	Abril	2023-10-04T00:00:00	2024-11-08T23:00:00	1	Precipitación	0
142408	7	Sololá	719	Santiago Atitlán	14	Cerro de Oro	4	Abril	2023-10-04T00:00:00	2024-11-08T23:00:00	8	Radiación solar	0
142409	7	Sololá	719	Santiago Atitlán	14	Cerro de Oro	4	Abril	2023-11-04T00:00:00	2024-11-08T00:00:00	2	Temperatura media	18.1
142410	7	Sololá	719	Santiago Atitlán	14	Cerro de Oro	4	Abril	2023-11-04T00:00:00	2024-11-08T00:00:00	4	Temperatura máxima	19.1
142411	7	Sololá	719	Santiago Atitlán	14	Cerro de Oro	4	Abril	2023-11-04T00:00:00	2024-11-08T00:00:00	3	Temperatura mínima	18.1
142412	7	Sololá	719	Santiago Atitlán	14	Cerro de Oro	4	Abril	2023-11-04T00:00:00	2024-11-08T00:00:00	5	Humedad	54
142413	7	Sololá	719	Santiago Atitlán	14	Cerro de Oro	4	Abril	2023-11-04T00:00:00	2024-11-08T00:00:00	6	Velocidad del viento	3.2
142414	7	Sololá	719	Santiago Atitlán	14	Cerro de Oro	4	Abril	2023-11-04T00:00:00	2024-11-08T00:00:00	7	Dirección del viento	3.22
142415	7	Sololá	719	Santiago Atitlán	14	Cerro de Oro	4	Abril	2023-11-04T00:00:00	2024-11-08T00:00:00	1	Precipitación	0
142416	7	Sololá	719	Santiago Atitlán	14	Cerro de Oro	4	Abril	2023-11-04T00:00:00	2024-11-08T00:00:00	8	Radiación solar	0
142417	7	Sololá	719	Santiago Atitlán	14	Cerro de Oro	4	Abril	2023-11-04T00:00:00	2024-11-08T01:00:00	2	Temperatura media	17.7
142418	7	Sololá	719	Santiago Atitlán	14	Cerro de Oro	4	Abril	2023-11-04T00:00:00	2024-11-08T01:00:00	4	Temperatura máxima	18.6
142419	7	Sololá	719	Santiago Atitlán	14	Cerro de Oro	4	Abril	2023-11-04T00:00:00	2024-11-08T01:00:00	3	Temperatura mínima	17.7
142420	7	Sololá	719	Santiago Atitlán	14	Cerro de Oro	4	Abril	2023-11-04T00:00:00	2024-11-08T01:00:00	5	Humedad	58
142421	7	Sololá	719	Santiago Atitlán	14	Cerro de Oro	4	Abril	2023-11-04T00:00:00	2024-11-08T01:00:00	6	Velocidad del viento	4.8
142422	7	Sololá	719	Santiago Atitlán	14	Cerro de Oro	4	Abril	2023-11-04T00:00:00	2024-11-08T01:00:00	7	Dirección del viento	4.83
142423	7	Sololá	719	Santiago Atitlán	14	Cerro de Oro	4	Abril	2023-11-04T00:00:00	2024-11-08T01:00:00	1	Precipitación	0
142424	7	Sololá	719	Santiago Atitlán	14	Cerro de Oro	4	Abril	2023-11-04T00:00:00	2024-11-08T01:00:00	8	Radiación solar	0
142425	7	Sololá	719	Santiago Atitlán	14	Cerro de Oro	4	Abril	2023-11-04T00:00:00	2024-11-08T02:00:00	2	Temperatura media	17.9
142426	7	Sololá	719	Santiago Atitlán	14	Cerro de Oro	4	Abril	2023-11-04T00:00:00	2024-11-08T02:00:00	4	Temperatura máxima	18.3
142427	7	Sololá	719	Santiago Atitlán	14	Cerro de Oro	4	Abril	2023-11-04T00:00:00	2024-11-08T02:00:00	3	Temperatura mínima	17.6
142428	7	Sololá	719	Santiago Atitlán	14	Cerro de Oro	4	Abril	2023-11-04T00:00:00	2024-11-08T02:00:00	5	Humedad	59
142429	7	Sololá	719	Santiago Atitlán	14	Cerro de Oro	4	Abril	2023-11-04T00:00:00	2024-11-08T02:00:00	6	Velocidad del viento	8
142430	7	Sololá	719	Santiago Atitlán	14	Cerro de Oro	4	Abril	2023-11-04T00:00:00	2024-11-08T02:00:00	7	Dirección del viento	8.05
142431	7	Sololá	719	Santiago Atitlán	14	Cerro de Oro	4	Abril	2023-11-04T00:00:00	2024-11-08T02:00:00	1	Precipitación	0
142432	7	Sololá	719	Santiago Atitlán	14	Cerro de Oro	4	Abril	2023-11-04T00:00:00	2024-11-08T02:00:00	8	Radiación solar	0
142433	7	Sololá	719	Santiago Atitlán	14	Cerro de Oro	4	Abril	2023-11-04T00:00:00	2024-11-08T03:00:00	2	Temperatura media	17.8
142434	7	Sololá	719	Santiago Atitlán	14	Cerro de Oro	4	Abril	2023-11-04T00:00:00	2024-11-08T03:00:00	4	Temperatura máxima	17.9
142435	7	Sololá	719	Santiago Atitlán	14	Cerro de Oro	4	Abril	2023-11-04T00:00:00	2024-11-08T03:00:00	3	Temperatura mínima	17.5
142436	7	Sololá	719	Santiago Atitlán	14	Cerro de Oro	4	Abril	2023-11-04T00:00:00	2024-11-08T03:00:00	5	Humedad	61
142437	7	Sololá	719	Santiago Atitlán	14	Cerro de Oro	4	Abril	2023-11-04T00:00:00	2024-11-08T03:00:00	6	Velocidad del viento	9.7
142438	7	Sololá	719	Santiago Atitlán	14	Cerro de Oro	4	Abril	2023-11-04T00:00:00	2024-11-08T03:00:00	7	Dirección del viento	9.66
142439	7	Sololá	719	Santiago Atitlán	14	Cerro de Oro	4	Abril	2023-11-04T00:00:00	2024-11-08T03:00:00	1	Precipitación	0
142440	7	Sololá	719	Santiago Atitlán	14	Cerro de Oro	4	Abril	2023-11-04T00:00:00	2024-11-08T03:00:00	8	Radiación solar	0
142441	7	Sololá	719	Santiago Atitlán	14	Cerro de Oro	4	Abril	2023-11-04T00:00:00	2024-11-08T04:00:00	2	Temperatura media	17.3
142442	7	Sololá	719	Santiago Atitlán	14	Cerro de Oro	4	Abril	2023-11-04T00:00:00	2024-11-08T04:00:00	4	Temperatura máxima	17.8
142443	7	Sololá	719	Santiago Atitlán	14	Cerro de Oro	4	Abril	2023-11-04T00:00:00	2024-11-08T04:00:00	3	Temperatura mínima	17.3
142444	7	Sololá	719	Santiago Atitlán	14	Cerro de Oro	4	Abril	2023-11-04T00:00:00	2024-11-08T04:00:00	5	Humedad	62
142445	7	Sololá	719	Santiago Atitlán	14	Cerro de Oro	4	Abril	2023-11-04T00:00:00	2024-11-08T04:00:00	6	Velocidad del viento	8
142446	7	Sololá	719	Santiago Atitlán	14	Cerro de Oro	4	Abril	2023-11-04T00:00:00	2024-11-08T04:00:00	7	Dirección del viento	8.05
142447	7	Sololá	719	Santiago Atitlán	14	Cerro de Oro	4	Abril	2023-11-04T00:00:00	2024-11-08T04:00:00	1	Precipitación	0
142448	7	Sololá	719	Santiago Atitlán	14	Cerro de Oro	4	Abril	2023-11-04T00:00:00	2024-11-08T04:00:00	8	Radiación solar	0
142449	7	Sololá	719	Santiago Atitlán	14	Cerro de Oro	4	Abril	2023-11-04T00:00:00	2024-11-08T05:00:00	2	Temperatura media	17.4
142450	7	Sololá	719	Santiago Atitlán	14	Cerro de Oro	4	Abril	2023-11-04T00:00:00	2024-11-08T05:00:00	4	Temperatura máxima	17.5
142451	7	Sololá	719	Santiago Atitlán	14	Cerro de Oro	4	Abril	2023-11-04T00:00:00	2024-11-08T05:00:00	3	Temperatura mínima	17.2
142452	7	Sololá	719	Santiago Atitlán	14	Cerro de Oro	4	Abril	2023-11-04T00:00:00	2024-11-08T05:00:00	5	Humedad	63
142453	7	Sololá	719	Santiago Atitlán	14	Cerro de Oro	4	Abril	2023-11-04T00:00:00	2024-11-08T05:00:00	6	Velocidad del viento	6.4
142454	7	Sololá	719	Santiago Atitlán	14	Cerro de Oro	4	Abril	2023-11-04T00:00:00	2024-11-08T05:00:00	7	Dirección del viento	6.44
142455	7	Sololá	719	Santiago Atitlán	14	Cerro de Oro	4	Abril	2023-11-04T00:00:00	2024-11-08T05:00:00	1	Precipitación	0
142456	7	Sololá	719	Santiago Atitlán	14	Cerro de Oro	4	Abril	2023-11-04T00:00:00	2024-11-08T05:00:00	8	Radiación solar	0
142457	7	Sololá	719	Santiago Atitlán	14	Cerro de Oro	4	Abril	2023-11-04T00:00:00	2024-11-08T06:00:00	2	Temperatura media	16.3
142458	7	Sololá	719	Santiago Atitlán	14	Cerro de Oro	4	Abril	2023-11-04T00:00:00	2024-11-08T06:00:00	4	Temperatura máxima	17.4
142459	7	Sololá	719	Santiago Atitlán	14	Cerro de Oro	4	Abril	2023-11-04T00:00:00	2024-11-08T06:00:00	3	Temperatura mínima	16.2
142460	7	Sololá	719	Santiago Atitlán	14	Cerro de Oro	4	Abril	2023-11-04T00:00:00	2024-11-08T06:00:00	5	Humedad	66
142461	7	Sololá	719	Santiago Atitlán	14	Cerro de Oro	4	Abril	2023-11-04T00:00:00	2024-11-08T06:00:00	6	Velocidad del viento	4.8
142462	7	Sololá	719	Santiago Atitlán	14	Cerro de Oro	4	Abril	2023-11-04T00:00:00	2024-11-08T06:00:00	7	Dirección del viento	4.83
142463	7	Sololá	719	Santiago Atitlán	14	Cerro de Oro	4	Abril	2023-11-04T00:00:00	2024-11-08T06:00:00	1	Precipitación	0
142464	7	Sololá	719	Santiago Atitlán	14	Cerro de Oro	4	Abril	2023-11-04T00:00:00	2024-11-08T06:00:00	8	Radiación solar	1
142465	7	Sololá	719	Santiago Atitlán	14	Cerro de Oro	4	Abril	2023-11-04T00:00:00	2024-11-08T07:00:00	2	Temperatura media	16.3
142466	7	Sololá	719	Santiago Atitlán	14	Cerro de Oro	4	Abril	2023-11-04T00:00:00	2024-11-08T07:00:00	4	Temperatura máxima	16.4
142467	7	Sololá	719	Santiago Atitlán	14	Cerro de Oro	4	Abril	2023-11-04T00:00:00	2024-11-08T07:00:00	3	Temperatura mínima	15.8
142468	7	Sololá	719	Santiago Atitlán	14	Cerro de Oro	4	Abril	2023-11-04T00:00:00	2024-11-08T07:00:00	5	Humedad	66
142469	7	Sololá	719	Santiago Atitlán	14	Cerro de Oro	4	Abril	2023-11-04T00:00:00	2024-11-08T07:00:00	6	Velocidad del viento	4.8
142470	7	Sololá	719	Santiago Atitlán	14	Cerro de Oro	4	Abril	2023-11-04T00:00:00	2024-11-08T07:00:00	7	Dirección del viento	4.83
142471	7	Sololá	719	Santiago Atitlán	14	Cerro de Oro	4	Abril	2023-11-04T00:00:00	2024-11-08T07:00:00	1	Precipitación	0
142472	7	Sololá	719	Santiago Atitlán	14	Cerro de Oro	4	Abril	2023-11-04T00:00:00	2024-11-08T07:00:00	8	Radiación solar	65
142473	7	Sololá	719	Santiago Atitlán	14	Cerro de Oro	4	Abril	2023-11-04T00:00:00	2024-11-08T08:00:00	2	Temperatura media	18.7
142474	7	Sololá	719	Santiago Atitlán	14	Cerro de Oro	4	Abril	2023-11-04T00:00:00	2024-11-08T08:00:00	4	Temperatura máxima	18.7
142475	7	Sololá	719	Santiago Atitlán	14	Cerro de Oro	4	Abril	2023-11-04T00:00:00	2024-11-08T08:00:00	3	Temperatura mínima	16.1
142476	7	Sololá	719	Santiago Atitlán	14	Cerro de Oro	4	Abril	2023-11-04T00:00:00	2024-11-08T08:00:00	5	Humedad	60
142477	7	Sololá	719	Santiago Atitlán	14	Cerro de Oro	4	Abril	2023-11-04T00:00:00	2024-11-08T08:00:00	6	Velocidad del viento	4.8
142478	7	Sololá	719	Santiago Atitlán	14	Cerro de Oro	4	Abril	2023-11-04T00:00:00	2024-11-08T08:00:00	7	Dirección del viento	4.83
142479	7	Sololá	719	Santiago Atitlán	14	Cerro de Oro	4	Abril	2023-11-04T00:00:00	2024-11-08T08:00:00	1	Precipitación	0
142480	7	Sololá	719	Santiago Atitlán	14	Cerro de Oro	4	Abril	2023-11-04T00:00:00	2024-11-08T08:00:00	8	Radiación solar	275
142481	7	Sololá	719	Santiago Atitlán	14	Cerro de Oro	4	Abril	2023-11-04T00:00:00	2024-11-08T09:00:00	2	Temperatura media	20.2
142482	7	Sololá	719	Santiago Atitlán	14	Cerro de Oro	4	Abril	2023-11-04T00:00:00	2024-11-08T09:00:00	4	Temperatura máxima	20.2
142483	7	Sololá	719	Santiago Atitlán	14	Cerro de Oro	4	Abril	2023-11-04T00:00:00	2024-11-08T09:00:00	3	Temperatura mínima	18.7
142484	7	Sololá	719	Santiago Atitlán	14	Cerro de Oro	4	Abril	2023-11-04T00:00:00	2024-11-08T09:00:00	5	Humedad	54
142485	7	Sololá	719	Santiago Atitlán	14	Cerro de Oro	4	Abril	2023-11-04T00:00:00	2024-11-08T09:00:00	6	Velocidad del viento	6.4
142486	7	Sololá	719	Santiago Atitlán	14	Cerro de Oro	4	Abril	2023-11-04T00:00:00	2024-11-08T09:00:00	7	Dirección del viento	6.44
142487	7	Sololá	719	Santiago Atitlán	14	Cerro de Oro	4	Abril	2023-11-04T00:00:00	2024-11-08T09:00:00	1	Precipitación	0
142488	7	Sololá	719	Santiago Atitlán	14	Cerro de Oro	4	Abril	2023-11-04T00:00:00	2024-11-08T09:00:00	8	Radiación solar	439
142489	7	Sololá	719	Santiago Atitlán	14	Cerro de Oro	4	Abril	2023-11-04T00:00:00	2024-11-08T10:00:00	2	Temperatura media	21.4
142490	7	Sololá	719	Santiago Atitlán	14	Cerro de Oro	4	Abril	2023-11-04T00:00:00	2024-11-08T10:00:00	4	Temperatura máxima	21.6
142491	7	Sololá	719	Santiago Atitlán	14	Cerro de Oro	4	Abril	2023-11-04T00:00:00	2024-11-08T10:00:00	3	Temperatura mínima	20.2
142492	7	Sololá	719	Santiago Atitlán	14	Cerro de Oro	4	Abril	2023-11-04T00:00:00	2024-11-08T10:00:00	5	Humedad	52
142493	7	Sololá	719	Santiago Atitlán	14	Cerro de Oro	4	Abril	2023-11-04T00:00:00	2024-11-08T10:00:00	6	Velocidad del viento	6.4
142494	7	Sololá	719	Santiago Atitlán	14	Cerro de Oro	4	Abril	2023-11-04T00:00:00	2024-11-08T10:00:00	7	Dirección del viento	6.44
142495	7	Sololá	719	Santiago Atitlán	14	Cerro de Oro	4	Abril	2023-11-04T00:00:00	2024-11-08T10:00:00	1	Precipitación	0
142496	7	Sololá	719	Santiago Atitlán	14	Cerro de Oro	4	Abril	2023-11-04T00:00:00	2024-11-08T10:00:00	8	Radiación solar	567
142497	7	Sololá	719	Santiago Atitlán	14	Cerro de Oro	4	Abril	2023-11-04T00:00:00	2024-11-08T11:00:00	2	Temperatura media	23.2
142498	7	Sololá	719	Santiago Atitlán	14	Cerro de Oro	4	Abril	2023-11-04T00:00:00	2024-11-08T11:00:00	4	Temperatura máxima	23.3
142499	7	Sololá	719	Santiago Atitlán	14	Cerro de Oro	4	Abril	2023-11-04T00:00:00	2024-11-08T11:00:00	3	Temperatura mínima	21.4
142500	7	Sololá	719	Santiago Atitlán	14	Cerro de Oro	4	Abril	2023-11-04T00:00:00	2024-11-08T11:00:00	5	Humedad	45
142501	7	Sololá	719	Santiago Atitlán	14	Cerro de Oro	4	Abril	2023-11-04T00:00:00	2024-11-08T11:00:00	6	Velocidad del viento	4.8
142502	7	Sololá	719	Santiago Atitlán	14	Cerro de Oro	4	Abril	2023-11-04T00:00:00	2024-11-08T11:00:00	7	Dirección del viento	4.83
142503	7	Sololá	719	Santiago Atitlán	14	Cerro de Oro	4	Abril	2023-11-04T00:00:00	2024-11-08T11:00:00	1	Precipitación	0
142504	7	Sololá	719	Santiago Atitlán	14	Cerro de Oro	4	Abril	2023-11-04T00:00:00	2024-11-08T11:00:00	8	Radiación solar	831
142505	7	Sololá	719	Santiago Atitlán	14	Cerro de Oro	4	Abril	2023-11-04T00:00:00	2024-11-08T12:00:00	2	Temperatura media	25
142506	7	Sololá	719	Santiago Atitlán	14	Cerro de Oro	4	Abril	2023-11-04T00:00:00	2024-11-08T12:00:00	4	Temperatura máxima	25
142507	7	Sololá	719	Santiago Atitlán	14	Cerro de Oro	4	Abril	2023-11-04T00:00:00	2024-11-08T12:00:00	3	Temperatura mínima	23.2
142508	7	Sololá	719	Santiago Atitlán	14	Cerro de Oro	4	Abril	2023-11-04T00:00:00	2024-11-08T12:00:00	5	Humedad	40
142509	7	Sololá	719	Santiago Atitlán	14	Cerro de Oro	4	Abril	2023-11-04T00:00:00	2024-11-08T12:00:00	6	Velocidad del viento	4.8
142510	7	Sololá	719	Santiago Atitlán	14	Cerro de Oro	4	Abril	2023-11-04T00:00:00	2024-11-08T12:00:00	7	Dirección del viento	4.83
142511	7	Sololá	719	Santiago Atitlán	14	Cerro de Oro	4	Abril	2023-11-04T00:00:00	2024-11-08T12:00:00	1	Precipitación	0
142512	7	Sololá	719	Santiago Atitlán	14	Cerro de Oro	4	Abril	2023-11-04T00:00:00	2024-11-08T12:00:00	8	Radiación solar	925
142513	7	Sololá	719	Santiago Atitlán	14	Cerro de Oro	4	Abril	2023-11-04T00:00:00	2024-11-08T13:00:00	2	Temperatura media	25.2
142514	7	Sololá	719	Santiago Atitlán	14	Cerro de Oro	4	Abril	2023-11-04T00:00:00	2024-11-08T13:00:00	4	Temperatura máxima	25.6
142515	7	Sololá	719	Santiago Atitlán	14	Cerro de Oro	4	Abril	2023-11-04T00:00:00	2024-11-08T13:00:00	3	Temperatura mínima	24.7
142516	7	Sololá	719	Santiago Atitlán	14	Cerro de Oro	4	Abril	2023-11-04T00:00:00	2024-11-08T13:00:00	5	Humedad	46
142517	7	Sololá	719	Santiago Atitlán	14	Cerro de Oro	4	Abril	2023-11-04T00:00:00	2024-11-08T13:00:00	6	Velocidad del viento	6.4
142518	7	Sololá	719	Santiago Atitlán	14	Cerro de Oro	4	Abril	2023-11-04T00:00:00	2024-11-08T13:00:00	7	Dirección del viento	6.44
142519	7	Sololá	719	Santiago Atitlán	14	Cerro de Oro	4	Abril	2023-11-04T00:00:00	2024-11-08T13:00:00	1	Precipitación	0
142520	7	Sololá	719	Santiago Atitlán	14	Cerro de Oro	4	Abril	2023-11-04T00:00:00	2024-11-08T13:00:00	8	Radiación solar	925
142521	7	Sololá	719	Santiago Atitlán	14	Cerro de Oro	4	Abril	2023-11-04T00:00:00	2024-11-08T14:00:00	2	Temperatura media	24.7
142522	7	Sololá	719	Santiago Atitlán	14	Cerro de Oro	4	Abril	2023-11-04T00:00:00	2024-11-08T14:00:00	4	Temperatura máxima	25.7
142523	7	Sololá	719	Santiago Atitlán	14	Cerro de Oro	4	Abril	2023-11-04T00:00:00	2024-11-08T14:00:00	3	Temperatura mínima	24.6
142524	7	Sololá	719	Santiago Atitlán	14	Cerro de Oro	4	Abril	2023-11-04T00:00:00	2024-11-08T14:00:00	5	Humedad	55
142525	7	Sololá	719	Santiago Atitlán	14	Cerro de Oro	4	Abril	2023-11-04T00:00:00	2024-11-08T14:00:00	6	Velocidad del viento	12.9
142526	7	Sololá	719	Santiago Atitlán	14	Cerro de Oro	4	Abril	2023-11-04T00:00:00	2024-11-08T14:00:00	7	Dirección del viento	12.87
142527	7	Sololá	719	Santiago Atitlán	14	Cerro de Oro	4	Abril	2023-11-04T00:00:00	2024-11-08T14:00:00	1	Precipitación	0
142528	7	Sololá	719	Santiago Atitlán	14	Cerro de Oro	4	Abril	2023-11-04T00:00:00	2024-11-08T14:00:00	8	Radiación solar	865
142529	7	Sololá	719	Santiago Atitlán	14	Cerro de Oro	4	Abril	2023-11-04T00:00:00	2024-11-08T15:00:00	2	Temperatura media	23.8
142530	7	Sololá	719	Santiago Atitlán	14	Cerro de Oro	4	Abril	2023-11-04T00:00:00	2024-11-08T15:00:00	4	Temperatura máxima	24.7
142531	7	Sololá	719	Santiago Atitlán	14	Cerro de Oro	4	Abril	2023-11-04T00:00:00	2024-11-08T15:00:00	3	Temperatura mínima	23.8
142532	7	Sololá	719	Santiago Atitlán	14	Cerro de Oro	4	Abril	2023-11-04T00:00:00	2024-11-08T15:00:00	5	Humedad	57
142533	7	Sololá	719	Santiago Atitlán	14	Cerro de Oro	4	Abril	2023-11-04T00:00:00	2024-11-08T15:00:00	6	Velocidad del viento	16.1
142534	7	Sololá	719	Santiago Atitlán	14	Cerro de Oro	4	Abril	2023-11-04T00:00:00	2024-11-08T15:00:00	7	Dirección del viento	16.09
142535	7	Sololá	719	Santiago Atitlán	14	Cerro de Oro	4	Abril	2023-11-04T00:00:00	2024-11-08T15:00:00	1	Precipitación	0
142536	7	Sololá	719	Santiago Atitlán	14	Cerro de Oro	4	Abril	2023-11-04T00:00:00	2024-11-08T15:00:00	8	Radiación solar	485
142537	7	Sololá	719	Santiago Atitlán	14	Cerro de Oro	4	Abril	2023-11-04T00:00:00	2024-11-08T16:00:00	2	Temperatura media	23.4
142538	7	Sololá	719	Santiago Atitlán	14	Cerro de Oro	4	Abril	2023-11-04T00:00:00	2024-11-08T16:00:00	4	Temperatura máxima	24.2
142539	7	Sololá	719	Santiago Atitlán	14	Cerro de Oro	4	Abril	2023-11-04T00:00:00	2024-11-08T16:00:00	3	Temperatura mínima	23.2
142540	7	Sololá	719	Santiago Atitlán	14	Cerro de Oro	4	Abril	2023-11-04T00:00:00	2024-11-08T16:00:00	5	Humedad	61
142541	7	Sololá	719	Santiago Atitlán	14	Cerro de Oro	4	Abril	2023-11-04T00:00:00	2024-11-08T16:00:00	6	Velocidad del viento	11.3
142542	7	Sololá	719	Santiago Atitlán	14	Cerro de Oro	4	Abril	2023-11-04T00:00:00	2024-11-08T16:00:00	7	Dirección del viento	11.27
142543	7	Sololá	719	Santiago Atitlán	14	Cerro de Oro	4	Abril	2023-11-04T00:00:00	2024-11-08T16:00:00	1	Precipitación	0
142544	7	Sololá	719	Santiago Atitlán	14	Cerro de Oro	4	Abril	2023-11-04T00:00:00	2024-11-08T16:00:00	8	Radiación solar	197
142545	7	Sololá	719	Santiago Atitlán	14	Cerro de Oro	4	Abril	2023-11-04T00:00:00	2024-11-08T17:00:00	2	Temperatura media	22.3
142546	7	Sololá	719	Santiago Atitlán	14	Cerro de Oro	4	Abril	2023-11-04T00:00:00	2024-11-08T17:00:00	4	Temperatura máxima	23.6
142547	7	Sololá	719	Santiago Atitlán	14	Cerro de Oro	4	Abril	2023-11-04T00:00:00	2024-11-08T17:00:00	3	Temperatura mínima	22.3
142548	7	Sololá	719	Santiago Atitlán	14	Cerro de Oro	4	Abril	2023-11-04T00:00:00	2024-11-08T17:00:00	5	Humedad	67
142549	7	Sololá	719	Santiago Atitlán	14	Cerro de Oro	4	Abril	2023-11-04T00:00:00	2024-11-08T17:00:00	6	Velocidad del viento	9.7
142550	7	Sololá	719	Santiago Atitlán	14	Cerro de Oro	4	Abril	2023-11-04T00:00:00	2024-11-08T17:00:00	7	Dirección del viento	9.66
142551	7	Sololá	719	Santiago Atitlán	14	Cerro de Oro	4	Abril	2023-11-04T00:00:00	2024-11-08T17:00:00	1	Precipitación	0
142552	7	Sololá	719	Santiago Atitlán	14	Cerro de Oro	4	Abril	2023-11-04T00:00:00	2024-11-08T17:00:00	8	Radiación solar	161
142553	7	Sololá	719	Santiago Atitlán	14	Cerro de Oro	4	Abril	2023-11-04T00:00:00	2024-11-08T18:00:00	2	Temperatura media	21.8
142554	7	Sololá	719	Santiago Atitlán	14	Cerro de Oro	4	Abril	2023-11-04T00:00:00	2024-11-08T18:00:00	4	Temperatura máxima	22.4
142555	7	Sololá	719	Santiago Atitlán	14	Cerro de Oro	4	Abril	2023-11-04T00:00:00	2024-11-08T18:00:00	3	Temperatura mínima	21.7
142556	7	Sololá	719	Santiago Atitlán	14	Cerro de Oro	4	Abril	2023-11-04T00:00:00	2024-11-08T18:00:00	5	Humedad	73
142557	7	Sololá	719	Santiago Atitlán	14	Cerro de Oro	4	Abril	2023-11-04T00:00:00	2024-11-08T18:00:00	6	Velocidad del viento	9.7
142558	7	Sololá	719	Santiago Atitlán	14	Cerro de Oro	4	Abril	2023-11-04T00:00:00	2024-11-08T18:00:00	7	Dirección del viento	9.66
142559	7	Sololá	719	Santiago Atitlán	14	Cerro de Oro	4	Abril	2023-11-04T00:00:00	2024-11-08T18:00:00	1	Precipitación	0
142560	7	Sololá	719	Santiago Atitlán	14	Cerro de Oro	4	Abril	2023-11-04T00:00:00	2024-11-08T18:00:00	8	Radiación solar	103
142561	7	Sololá	719	Santiago Atitlán	14	Cerro de Oro	4	Abril	2023-11-04T00:00:00	2024-11-08T19:00:00	2	Temperatura media	20.4
142562	7	Sololá	719	Santiago Atitlán	14	Cerro de Oro	4	Abril	2023-11-04T00:00:00	2024-11-08T19:00:00	4	Temperatura máxima	22.1
142563	7	Sololá	719	Santiago Atitlán	14	Cerro de Oro	4	Abril	2023-11-04T00:00:00	2024-11-08T19:00:00	3	Temperatura mínima	20.3
142564	7	Sololá	719	Santiago Atitlán	14	Cerro de Oro	4	Abril	2023-11-04T00:00:00	2024-11-08T19:00:00	5	Humedad	81
142565	7	Sololá	719	Santiago Atitlán	14	Cerro de Oro	4	Abril	2023-11-04T00:00:00	2024-11-08T19:00:00	6	Velocidad del viento	8
142566	7	Sololá	719	Santiago Atitlán	14	Cerro de Oro	4	Abril	2023-11-04T00:00:00	2024-11-08T19:00:00	7	Dirección del viento	8.05
142567	7	Sololá	719	Santiago Atitlán	14	Cerro de Oro	4	Abril	2023-11-04T00:00:00	2024-11-08T19:00:00	1	Precipitación	0
142568	7	Sololá	719	Santiago Atitlán	14	Cerro de Oro	4	Abril	2023-11-04T00:00:00	2024-11-08T19:00:00	8	Radiación solar	0
142569	7	Sololá	719	Santiago Atitlán	14	Cerro de Oro	4	Abril	2023-11-04T00:00:00	2024-11-08T20:00:00	2	Temperatura media	19.4
142570	7	Sololá	719	Santiago Atitlán	14	Cerro de Oro	4	Abril	2023-11-04T00:00:00	2024-11-08T20:00:00	4	Temperatura máxima	20.3
142571	7	Sololá	719	Santiago Atitlán	14	Cerro de Oro	4	Abril	2023-11-04T00:00:00	2024-11-08T20:00:00	3	Temperatura mínima	19.4
142572	7	Sololá	719	Santiago Atitlán	14	Cerro de Oro	4	Abril	2023-11-04T00:00:00	2024-11-08T20:00:00	5	Humedad	83
142573	7	Sololá	719	Santiago Atitlán	14	Cerro de Oro	4	Abril	2023-11-04T00:00:00	2024-11-08T20:00:00	6	Velocidad del viento	9.7
142574	7	Sololá	719	Santiago Atitlán	14	Cerro de Oro	4	Abril	2023-11-04T00:00:00	2024-11-08T20:00:00	7	Dirección del viento	9.66
142575	7	Sololá	719	Santiago Atitlán	14	Cerro de Oro	4	Abril	2023-11-04T00:00:00	2024-11-08T20:00:00	1	Precipitación	0
142576	7	Sololá	719	Santiago Atitlán	14	Cerro de Oro	4	Abril	2023-11-04T00:00:00	2024-11-08T20:00:00	8	Radiación solar	0
142577	7	Sololá	719	Santiago Atitlán	14	Cerro de Oro	4	Abril	2023-11-04T00:00:00	2024-11-08T21:00:00	2	Temperatura media	19.6
142578	7	Sololá	719	Santiago Atitlán	14	Cerro de Oro	4	Abril	2023-11-04T00:00:00	2024-11-08T21:00:00	4	Temperatura máxima	19.7
142579	7	Sololá	719	Santiago Atitlán	14	Cerro de Oro	4	Abril	2023-11-04T00:00:00	2024-11-08T21:00:00	3	Temperatura mínima	19.4
142580	7	Sololá	719	Santiago Atitlán	14	Cerro de Oro	4	Abril	2023-11-04T00:00:00	2024-11-08T21:00:00	5	Humedad	74
142581	7	Sololá	719	Santiago Atitlán	14	Cerro de Oro	4	Abril	2023-11-04T00:00:00	2024-11-08T21:00:00	6	Velocidad del viento	4.8
142582	7	Sololá	719	Santiago Atitlán	14	Cerro de Oro	4	Abril	2023-11-04T00:00:00	2024-11-08T21:00:00	7	Dirección del viento	4.83
142583	7	Sololá	719	Santiago Atitlán	14	Cerro de Oro	4	Abril	2023-11-04T00:00:00	2024-11-08T21:00:00	1	Precipitación	0
142584	7	Sololá	719	Santiago Atitlán	14	Cerro de Oro	4	Abril	2023-11-04T00:00:00	2024-11-08T21:00:00	8	Radiación solar	0
142585	7	Sololá	719	Santiago Atitlán	14	Cerro de Oro	4	Abril	2023-11-04T00:00:00	2024-11-08T22:00:00	2	Temperatura media	19.5
142586	7	Sololá	719	Santiago Atitlán	14	Cerro de Oro	4	Abril	2023-11-04T00:00:00	2024-11-08T22:00:00	4	Temperatura máxima	20
142587	7	Sololá	719	Santiago Atitlán	14	Cerro de Oro	4	Abril	2023-11-04T00:00:00	2024-11-08T22:00:00	3	Temperatura mínima	19.5
142588	7	Sololá	719	Santiago Atitlán	14	Cerro de Oro	4	Abril	2023-11-04T00:00:00	2024-11-08T22:00:00	5	Humedad	68
142589	7	Sololá	719	Santiago Atitlán	14	Cerro de Oro	4	Abril	2023-11-04T00:00:00	2024-11-08T22:00:00	6	Velocidad del viento	3.2
142590	7	Sololá	719	Santiago Atitlán	14	Cerro de Oro	4	Abril	2023-11-04T00:00:00	2024-11-08T22:00:00	7	Dirección del viento	3.22
142591	7	Sololá	719	Santiago Atitlán	14	Cerro de Oro	4	Abril	2023-11-04T00:00:00	2024-11-08T22:00:00	1	Precipitación	0
142592	7	Sololá	719	Santiago Atitlán	14	Cerro de Oro	4	Abril	2023-11-04T00:00:00	2024-11-08T22:00:00	8	Radiación solar	0
142593	7	Sololá	719	Santiago Atitlán	14	Cerro de Oro	4	Abril	2023-11-04T00:00:00	2024-11-08T23:00:00	2	Temperatura media	19.3
142594	7	Sololá	719	Santiago Atitlán	14	Cerro de Oro	4	Abril	2023-11-04T00:00:00	2024-11-08T23:00:00	4	Temperatura máxima	19.5
142595	7	Sololá	719	Santiago Atitlán	14	Cerro de Oro	4	Abril	2023-11-04T00:00:00	2024-11-08T23:00:00	3	Temperatura mínima	19.2
142596	7	Sololá	719	Santiago Atitlán	14	Cerro de Oro	4	Abril	2023-11-04T00:00:00	2024-11-08T23:00:00	5	Humedad	66
142597	7	Sololá	719	Santiago Atitlán	14	Cerro de Oro	4	Abril	2023-11-04T00:00:00	2024-11-08T23:00:00	6	Velocidad del viento	4.8
142598	7	Sololá	719	Santiago Atitlán	14	Cerro de Oro	4	Abril	2023-11-04T00:00:00	2024-11-08T23:00:00	7	Dirección del viento	4.83
142599	7	Sololá	719	Santiago Atitlán	14	Cerro de Oro	4	Abril	2023-11-04T00:00:00	2024-11-08T23:00:00	1	Precipitación	0
142600	7	Sololá	719	Santiago Atitlán	14	Cerro de Oro	4	Abril	2023-11-04T00:00:00	2024-11-08T23:00:00	8	Radiación solar	0
142601	7	Sololá	719	Santiago Atitlán	14	Cerro de Oro	4	Abril	2023-12-04T00:00:00	2024-11-08T00:00:00	2	Temperatura media	18.8
142602	7	Sololá	719	Santiago Atitlán	14	Cerro de Oro	4	Abril	2023-12-04T00:00:00	2024-11-08T00:00:00	4	Temperatura máxima	19.4
142603	7	Sololá	719	Santiago Atitlán	14	Cerro de Oro	4	Abril	2023-12-04T00:00:00	2024-11-08T00:00:00	3	Temperatura mínima	18.8
142604	7	Sololá	719	Santiago Atitlán	14	Cerro de Oro	4	Abril	2023-12-04T00:00:00	2024-11-08T00:00:00	5	Humedad	67
142605	7	Sololá	719	Santiago Atitlán	14	Cerro de Oro	4	Abril	2023-12-04T00:00:00	2024-11-08T00:00:00	6	Velocidad del viento	3.2
142606	7	Sololá	719	Santiago Atitlán	14	Cerro de Oro	4	Abril	2023-12-04T00:00:00	2024-11-08T00:00:00	7	Dirección del viento	3.22
142607	7	Sololá	719	Santiago Atitlán	14	Cerro de Oro	4	Abril	2023-12-04T00:00:00	2024-11-08T00:00:00	1	Precipitación	0
142608	7	Sololá	719	Santiago Atitlán	14	Cerro de Oro	4	Abril	2023-12-04T00:00:00	2024-11-08T00:00:00	8	Radiación solar	0
142609	7	Sololá	719	Santiago Atitlán	14	Cerro de Oro	4	Abril	2023-12-04T00:00:00	2024-11-08T01:00:00	2	Temperatura media	17.9
142610	7	Sololá	719	Santiago Atitlán	14	Cerro de Oro	4	Abril	2023-12-04T00:00:00	2024-11-08T01:00:00	4	Temperatura máxima	18.9
142611	7	Sololá	719	Santiago Atitlán	14	Cerro de Oro	4	Abril	2023-12-04T00:00:00	2024-11-08T01:00:00	3	Temperatura mínima	17.9
142612	7	Sololá	719	Santiago Atitlán	14	Cerro de Oro	4	Abril	2023-12-04T00:00:00	2024-11-08T01:00:00	5	Humedad	69
142613	7	Sololá	719	Santiago Atitlán	14	Cerro de Oro	4	Abril	2023-12-04T00:00:00	2024-11-08T01:00:00	6	Velocidad del viento	4.8
142614	7	Sololá	719	Santiago Atitlán	14	Cerro de Oro	4	Abril	2023-12-04T00:00:00	2024-11-08T01:00:00	7	Dirección del viento	4.83
142615	7	Sololá	719	Santiago Atitlán	14	Cerro de Oro	4	Abril	2023-12-04T00:00:00	2024-11-08T01:00:00	1	Precipitación	0
142616	7	Sololá	719	Santiago Atitlán	14	Cerro de Oro	4	Abril	2023-12-04T00:00:00	2024-11-08T01:00:00	8	Radiación solar	0
142617	7	Sololá	719	Santiago Atitlán	14	Cerro de Oro	4	Abril	2023-12-04T00:00:00	2024-11-08T02:00:00	2	Temperatura media	18.1
142618	7	Sololá	719	Santiago Atitlán	14	Cerro de Oro	4	Abril	2023-12-04T00:00:00	2024-11-08T02:00:00	4	Temperatura máxima	18.2
142619	7	Sololá	719	Santiago Atitlán	14	Cerro de Oro	4	Abril	2023-12-04T00:00:00	2024-11-08T02:00:00	3	Temperatura mínima	17.8
142620	7	Sololá	719	Santiago Atitlán	14	Cerro de Oro	4	Abril	2023-12-04T00:00:00	2024-11-08T02:00:00	5	Humedad	68
142621	7	Sololá	719	Santiago Atitlán	14	Cerro de Oro	4	Abril	2023-12-04T00:00:00	2024-11-08T02:00:00	6	Velocidad del viento	6.4
142622	7	Sololá	719	Santiago Atitlán	14	Cerro de Oro	4	Abril	2023-12-04T00:00:00	2024-11-08T02:00:00	7	Dirección del viento	6.44
142623	7	Sololá	719	Santiago Atitlán	14	Cerro de Oro	4	Abril	2023-12-04T00:00:00	2024-11-08T02:00:00	1	Precipitación	0
142624	7	Sololá	719	Santiago Atitlán	14	Cerro de Oro	4	Abril	2023-12-04T00:00:00	2024-11-08T02:00:00	8	Radiación solar	0
142625	7	Sololá	719	Santiago Atitlán	14	Cerro de Oro	4	Abril	2023-12-04T00:00:00	2024-11-08T03:00:00	2	Temperatura media	17.8
142626	7	Sololá	719	Santiago Atitlán	14	Cerro de Oro	4	Abril	2023-12-04T00:00:00	2024-11-08T03:00:00	4	Temperatura máxima	18.3
142627	7	Sololá	719	Santiago Atitlán	14	Cerro de Oro	4	Abril	2023-12-04T00:00:00	2024-11-08T03:00:00	3	Temperatura mínima	17.8
142628	7	Sololá	719	Santiago Atitlán	14	Cerro de Oro	4	Abril	2023-12-04T00:00:00	2024-11-08T03:00:00	5	Humedad	67
142629	7	Sololá	719	Santiago Atitlán	14	Cerro de Oro	4	Abril	2023-12-04T00:00:00	2024-11-08T03:00:00	6	Velocidad del viento	6.4
142630	7	Sololá	719	Santiago Atitlán	14	Cerro de Oro	4	Abril	2023-12-04T00:00:00	2024-11-08T03:00:00	7	Dirección del viento	6.44
142631	7	Sololá	719	Santiago Atitlán	14	Cerro de Oro	4	Abril	2023-12-04T00:00:00	2024-11-08T03:00:00	1	Precipitación	0
142632	7	Sololá	719	Santiago Atitlán	14	Cerro de Oro	4	Abril	2023-12-04T00:00:00	2024-11-08T03:00:00	8	Radiación solar	0
142633	7	Sololá	719	Santiago Atitlán	14	Cerro de Oro	4	Abril	2023-12-04T00:00:00	2024-11-08T04:00:00	2	Temperatura media	16.8
142634	7	Sololá	719	Santiago Atitlán	14	Cerro de Oro	4	Abril	2023-12-04T00:00:00	2024-11-08T04:00:00	4	Temperatura máxima	18
142635	7	Sololá	719	Santiago Atitlán	14	Cerro de Oro	4	Abril	2023-12-04T00:00:00	2024-11-08T04:00:00	3	Temperatura mínima	16.8
142636	7	Sololá	719	Santiago Atitlán	14	Cerro de Oro	4	Abril	2023-12-04T00:00:00	2024-11-08T04:00:00	5	Humedad	70
142637	7	Sololá	719	Santiago Atitlán	14	Cerro de Oro	4	Abril	2023-12-04T00:00:00	2024-11-08T04:00:00	6	Velocidad del viento	4.8
142638	7	Sololá	719	Santiago Atitlán	14	Cerro de Oro	4	Abril	2023-12-04T00:00:00	2024-11-08T04:00:00	7	Dirección del viento	4.83
142639	7	Sololá	719	Santiago Atitlán	14	Cerro de Oro	4	Abril	2023-12-04T00:00:00	2024-11-08T04:00:00	1	Precipitación	0
142640	7	Sololá	719	Santiago Atitlán	14	Cerro de Oro	4	Abril	2023-12-04T00:00:00	2024-11-08T04:00:00	8	Radiación solar	0
142641	7	Sololá	719	Santiago Atitlán	14	Cerro de Oro	4	Abril	2023-12-04T00:00:00	2024-11-08T05:00:00	2	Temperatura media	16.8
142642	7	Sololá	719	Santiago Atitlán	14	Cerro de Oro	4	Abril	2023-12-04T00:00:00	2024-11-08T05:00:00	4	Temperatura máxima	17
142643	7	Sololá	719	Santiago Atitlán	14	Cerro de Oro	4	Abril	2023-12-04T00:00:00	2024-11-08T05:00:00	3	Temperatura mínima	16.5
142644	7	Sololá	719	Santiago Atitlán	14	Cerro de Oro	4	Abril	2023-12-04T00:00:00	2024-11-08T05:00:00	5	Humedad	70
142645	7	Sololá	719	Santiago Atitlán	14	Cerro de Oro	4	Abril	2023-12-04T00:00:00	2024-11-08T05:00:00	6	Velocidad del viento	3.2
142646	7	Sololá	719	Santiago Atitlán	14	Cerro de Oro	4	Abril	2023-12-04T00:00:00	2024-11-08T05:00:00	7	Dirección del viento	3.22
142647	7	Sololá	719	Santiago Atitlán	14	Cerro de Oro	4	Abril	2023-12-04T00:00:00	2024-11-08T05:00:00	1	Precipitación	0
142648	7	Sololá	719	Santiago Atitlán	14	Cerro de Oro	4	Abril	2023-12-04T00:00:00	2024-11-08T05:00:00	8	Radiación solar	0
142649	7	Sololá	719	Santiago Atitlán	14	Cerro de Oro	4	Abril	2023-12-04T00:00:00	2024-11-08T06:00:00	2	Temperatura media	16.1
142650	7	Sololá	719	Santiago Atitlán	14	Cerro de Oro	4	Abril	2023-12-04T00:00:00	2024-11-08T06:00:00	4	Temperatura máxima	16.8
142651	7	Sololá	719	Santiago Atitlán	14	Cerro de Oro	4	Abril	2023-12-04T00:00:00	2024-11-08T06:00:00	3	Temperatura mínima	15.9
142652	7	Sololá	719	Santiago Atitlán	14	Cerro de Oro	4	Abril	2023-12-04T00:00:00	2024-11-08T06:00:00	5	Humedad	69
142653	7	Sololá	719	Santiago Atitlán	14	Cerro de Oro	4	Abril	2023-12-04T00:00:00	2024-11-08T06:00:00	6	Velocidad del viento	3.2
142654	7	Sololá	719	Santiago Atitlán	14	Cerro de Oro	4	Abril	2023-12-04T00:00:00	2024-11-08T06:00:00	7	Dirección del viento	3.22
142655	7	Sololá	719	Santiago Atitlán	14	Cerro de Oro	4	Abril	2023-12-04T00:00:00	2024-11-08T06:00:00	1	Precipitación	0
142656	7	Sololá	719	Santiago Atitlán	14	Cerro de Oro	4	Abril	2023-12-04T00:00:00	2024-11-08T06:00:00	8	Radiación solar	1
142657	7	Sololá	719	Santiago Atitlán	14	Cerro de Oro	4	Abril	2023-12-04T00:00:00	2024-11-08T07:00:00	2	Temperatura media	16.6
142658	7	Sololá	719	Santiago Atitlán	14	Cerro de Oro	4	Abril	2023-12-04T00:00:00	2024-11-08T07:00:00	4	Temperatura máxima	16.6
142659	7	Sololá	719	Santiago Atitlán	14	Cerro de Oro	4	Abril	2023-12-04T00:00:00	2024-11-08T07:00:00	3	Temperatura mínima	15.8
142660	7	Sololá	719	Santiago Atitlán	14	Cerro de Oro	4	Abril	2023-12-04T00:00:00	2024-11-08T07:00:00	5	Humedad	66
142661	7	Sololá	719	Santiago Atitlán	14	Cerro de Oro	4	Abril	2023-12-04T00:00:00	2024-11-08T07:00:00	6	Velocidad del viento	4.8
142662	7	Sololá	719	Santiago Atitlán	14	Cerro de Oro	4	Abril	2023-12-04T00:00:00	2024-11-08T07:00:00	7	Dirección del viento	4.83
142663	7	Sololá	719	Santiago Atitlán	14	Cerro de Oro	4	Abril	2023-12-04T00:00:00	2024-11-08T07:00:00	1	Precipitación	0
142664	7	Sololá	719	Santiago Atitlán	14	Cerro de Oro	4	Abril	2023-12-04T00:00:00	2024-11-08T07:00:00	8	Radiación solar	62
142665	7	Sololá	719	Santiago Atitlán	14	Cerro de Oro	4	Abril	2023-12-04T00:00:00	2024-11-08T08:00:00	2	Temperatura media	18.2
142666	7	Sololá	719	Santiago Atitlán	14	Cerro de Oro	4	Abril	2023-12-04T00:00:00	2024-11-08T08:00:00	4	Temperatura máxima	18.2
142667	7	Sololá	719	Santiago Atitlán	14	Cerro de Oro	4	Abril	2023-12-04T00:00:00	2024-11-08T08:00:00	3	Temperatura mínima	16.3
142668	7	Sololá	719	Santiago Atitlán	14	Cerro de Oro	4	Abril	2023-12-04T00:00:00	2024-11-08T08:00:00	5	Humedad	63
142669	7	Sololá	719	Santiago Atitlán	14	Cerro de Oro	4	Abril	2023-12-04T00:00:00	2024-11-08T08:00:00	6	Velocidad del viento	3.2
142670	7	Sololá	719	Santiago Atitlán	14	Cerro de Oro	4	Abril	2023-12-04T00:00:00	2024-11-08T08:00:00	7	Dirección del viento	3.22
142671	7	Sololá	719	Santiago Atitlán	14	Cerro de Oro	4	Abril	2023-12-04T00:00:00	2024-11-08T08:00:00	1	Precipitación	0
142672	7	Sololá	719	Santiago Atitlán	14	Cerro de Oro	4	Abril	2023-12-04T00:00:00	2024-11-08T08:00:00	8	Radiación solar	251
142673	7	Sololá	719	Santiago Atitlán	14	Cerro de Oro	4	Abril	2023-12-04T00:00:00	2024-11-08T09:00:00	2	Temperatura media	19.6
142674	7	Sololá	719	Santiago Atitlán	14	Cerro de Oro	4	Abril	2023-12-04T00:00:00	2024-11-08T09:00:00	4	Temperatura máxima	19.6
142675	7	Sololá	719	Santiago Atitlán	14	Cerro de Oro	4	Abril	2023-12-04T00:00:00	2024-11-08T09:00:00	3	Temperatura mínima	18.1
142676	7	Sololá	719	Santiago Atitlán	14	Cerro de Oro	4	Abril	2023-12-04T00:00:00	2024-11-08T09:00:00	5	Humedad	66
142677	7	Sololá	719	Santiago Atitlán	14	Cerro de Oro	4	Abril	2023-12-04T00:00:00	2024-11-08T09:00:00	6	Velocidad del viento	3.2
142678	7	Sololá	719	Santiago Atitlán	14	Cerro de Oro	4	Abril	2023-12-04T00:00:00	2024-11-08T09:00:00	7	Dirección del viento	3.22
142679	7	Sololá	719	Santiago Atitlán	14	Cerro de Oro	4	Abril	2023-12-04T00:00:00	2024-11-08T09:00:00	1	Precipitación	0
142680	7	Sololá	719	Santiago Atitlán	14	Cerro de Oro	4	Abril	2023-12-04T00:00:00	2024-11-08T09:00:00	8	Radiación solar	296
142681	7	Sololá	719	Santiago Atitlán	14	Cerro de Oro	4	Abril	2023-12-04T00:00:00	2024-11-08T10:00:00	2	Temperatura media	19.9
142682	7	Sololá	719	Santiago Atitlán	14	Cerro de Oro	4	Abril	2023-12-04T00:00:00	2024-11-08T10:00:00	4	Temperatura máxima	19.9
142683	7	Sololá	719	Santiago Atitlán	14	Cerro de Oro	4	Abril	2023-12-04T00:00:00	2024-11-08T10:00:00	3	Temperatura mínima	19.4
142684	7	Sololá	719	Santiago Atitlán	14	Cerro de Oro	4	Abril	2023-12-04T00:00:00	2024-11-08T10:00:00	5	Humedad	62
142685	7	Sololá	719	Santiago Atitlán	14	Cerro de Oro	4	Abril	2023-12-04T00:00:00	2024-11-08T10:00:00	6	Velocidad del viento	3.2
142686	7	Sololá	719	Santiago Atitlán	14	Cerro de Oro	4	Abril	2023-12-04T00:00:00	2024-11-08T10:00:00	7	Dirección del viento	3.22
142687	7	Sololá	719	Santiago Atitlán	14	Cerro de Oro	4	Abril	2023-12-04T00:00:00	2024-11-08T10:00:00	1	Precipitación	0
142688	7	Sololá	719	Santiago Atitlán	14	Cerro de Oro	4	Abril	2023-12-04T00:00:00	2024-11-08T10:00:00	8	Radiación solar	458
142689	7	Sololá	719	Santiago Atitlán	14	Cerro de Oro	4	Abril	2023-12-04T00:00:00	2024-11-08T11:00:00	2	Temperatura media	20.5
142690	7	Sololá	719	Santiago Atitlán	14	Cerro de Oro	4	Abril	2023-12-04T00:00:00	2024-11-08T11:00:00	4	Temperatura máxima	20.9
142691	7	Sololá	719	Santiago Atitlán	14	Cerro de Oro	4	Abril	2023-12-04T00:00:00	2024-11-08T11:00:00	3	Temperatura mínima	19.9
142692	7	Sololá	719	Santiago Atitlán	14	Cerro de Oro	4	Abril	2023-12-04T00:00:00	2024-11-08T11:00:00	5	Humedad	62
142693	7	Sololá	719	Santiago Atitlán	14	Cerro de Oro	4	Abril	2023-12-04T00:00:00	2024-11-08T11:00:00	6	Velocidad del viento	4.8
142694	7	Sololá	719	Santiago Atitlán	14	Cerro de Oro	4	Abril	2023-12-04T00:00:00	2024-11-08T11:00:00	7	Dirección del viento	4.83
142695	7	Sololá	719	Santiago Atitlán	14	Cerro de Oro	4	Abril	2023-12-04T00:00:00	2024-11-08T11:00:00	1	Precipitación	0
142696	7	Sololá	719	Santiago Atitlán	14	Cerro de Oro	4	Abril	2023-12-04T00:00:00	2024-11-08T11:00:00	8	Radiación solar	538
142697	7	Sololá	719	Santiago Atitlán	14	Cerro de Oro	4	Abril	2023-12-04T00:00:00	2024-11-08T12:00:00	2	Temperatura media	22.8
142698	7	Sololá	719	Santiago Atitlán	14	Cerro de Oro	4	Abril	2023-12-04T00:00:00	2024-11-08T12:00:00	4	Temperatura máxima	23.4
142699	7	Sololá	719	Santiago Atitlán	14	Cerro de Oro	4	Abril	2023-12-04T00:00:00	2024-11-08T12:00:00	3	Temperatura mínima	20.5
142700	7	Sololá	719	Santiago Atitlán	14	Cerro de Oro	4	Abril	2023-12-04T00:00:00	2024-11-08T12:00:00	5	Humedad	51
142701	7	Sololá	719	Santiago Atitlán	14	Cerro de Oro	4	Abril	2023-12-04T00:00:00	2024-11-08T12:00:00	6	Velocidad del viento	8
142702	7	Sololá	719	Santiago Atitlán	14	Cerro de Oro	4	Abril	2023-12-04T00:00:00	2024-11-08T12:00:00	7	Dirección del viento	8.05
142703	7	Sololá	719	Santiago Atitlán	14	Cerro de Oro	4	Abril	2023-12-04T00:00:00	2024-11-08T12:00:00	1	Precipitación	0
142704	7	Sololá	719	Santiago Atitlán	14	Cerro de Oro	4	Abril	2023-12-04T00:00:00	2024-11-08T12:00:00	8	Radiación solar	825
142705	7	Sololá	719	Santiago Atitlán	14	Cerro de Oro	4	Abril	2023-12-04T00:00:00	2024-11-08T13:00:00	2	Temperatura media	23.9
142706	7	Sololá	719	Santiago Atitlán	14	Cerro de Oro	4	Abril	2023-12-04T00:00:00	2024-11-08T13:00:00	4	Temperatura máxima	23.9
142707	7	Sololá	719	Santiago Atitlán	14	Cerro de Oro	4	Abril	2023-12-04T00:00:00	2024-11-08T13:00:00	3	Temperatura mínima	22.7
142708	7	Sololá	719	Santiago Atitlán	14	Cerro de Oro	4	Abril	2023-12-04T00:00:00	2024-11-08T13:00:00	5	Humedad	51
142709	7	Sololá	719	Santiago Atitlán	14	Cerro de Oro	4	Abril	2023-12-04T00:00:00	2024-11-08T13:00:00	6	Velocidad del viento	9.7
142710	7	Sololá	719	Santiago Atitlán	14	Cerro de Oro	4	Abril	2023-12-04T00:00:00	2024-11-08T13:00:00	7	Dirección del viento	9.66
142711	7	Sololá	719	Santiago Atitlán	14	Cerro de Oro	4	Abril	2023-12-04T00:00:00	2024-11-08T13:00:00	1	Precipitación	0
142712	7	Sololá	719	Santiago Atitlán	14	Cerro de Oro	4	Abril	2023-12-04T00:00:00	2024-11-08T13:00:00	8	Radiación solar	605
142713	7	Sololá	719	Santiago Atitlán	14	Cerro de Oro	4	Abril	2023-12-04T00:00:00	2024-11-08T14:00:00	2	Temperatura media	22.8
142714	7	Sololá	719	Santiago Atitlán	14	Cerro de Oro	4	Abril	2023-12-04T00:00:00	2024-11-08T14:00:00	4	Temperatura máxima	24
142715	7	Sololá	719	Santiago Atitlán	14	Cerro de Oro	4	Abril	2023-12-04T00:00:00	2024-11-08T14:00:00	3	Temperatura mínima	22.8
142716	7	Sololá	719	Santiago Atitlán	14	Cerro de Oro	4	Abril	2023-12-04T00:00:00	2024-11-08T14:00:00	5	Humedad	61
142717	7	Sololá	719	Santiago Atitlán	14	Cerro de Oro	4	Abril	2023-12-04T00:00:00	2024-11-08T14:00:00	6	Velocidad del viento	8
142718	7	Sololá	719	Santiago Atitlán	14	Cerro de Oro	4	Abril	2023-12-04T00:00:00	2024-11-08T14:00:00	7	Dirección del viento	8.05
142719	7	Sololá	719	Santiago Atitlán	14	Cerro de Oro	4	Abril	2023-12-04T00:00:00	2024-11-08T14:00:00	1	Precipitación	0
142720	7	Sololá	719	Santiago Atitlán	14	Cerro de Oro	4	Abril	2023-12-04T00:00:00	2024-11-08T14:00:00	8	Radiación solar	560
142721	7	Sololá	719	Santiago Atitlán	14	Cerro de Oro	4	Abril	2023-12-04T00:00:00	2024-11-08T15:00:00	2	Temperatura media	22.9
142722	7	Sololá	719	Santiago Atitlán	14	Cerro de Oro	4	Abril	2023-12-04T00:00:00	2024-11-08T15:00:00	4	Temperatura máxima	23.4
142723	7	Sololá	719	Santiago Atitlán	14	Cerro de Oro	4	Abril	2023-12-04T00:00:00	2024-11-08T15:00:00	3	Temperatura mínima	22.6
142724	7	Sololá	719	Santiago Atitlán	14	Cerro de Oro	4	Abril	2023-12-04T00:00:00	2024-11-08T15:00:00	5	Humedad	61
142725	7	Sololá	719	Santiago Atitlán	14	Cerro de Oro	4	Abril	2023-12-04T00:00:00	2024-11-08T15:00:00	6	Velocidad del viento	11.3
142726	7	Sololá	719	Santiago Atitlán	14	Cerro de Oro	4	Abril	2023-12-04T00:00:00	2024-11-08T15:00:00	7	Dirección del viento	11.27
142727	7	Sololá	719	Santiago Atitlán	14	Cerro de Oro	4	Abril	2023-12-04T00:00:00	2024-11-08T15:00:00	1	Precipitación	0
142728	7	Sololá	719	Santiago Atitlán	14	Cerro de Oro	4	Abril	2023-12-04T00:00:00	2024-11-08T15:00:00	8	Radiación solar	609
142729	7	Sololá	719	Santiago Atitlán	14	Cerro de Oro	4	Abril	2023-12-04T00:00:00	2024-11-08T16:00:00	2	Temperatura media	22.4
142730	7	Sololá	719	Santiago Atitlán	14	Cerro de Oro	4	Abril	2023-12-04T00:00:00	2024-11-08T16:00:00	4	Temperatura máxima	23.2
142731	7	Sololá	719	Santiago Atitlán	14	Cerro de Oro	4	Abril	2023-12-04T00:00:00	2024-11-08T16:00:00	3	Temperatura mínima	22.2
142732	7	Sololá	719	Santiago Atitlán	14	Cerro de Oro	4	Abril	2023-12-04T00:00:00	2024-11-08T16:00:00	5	Humedad	65
142733	7	Sololá	719	Santiago Atitlán	14	Cerro de Oro	4	Abril	2023-12-04T00:00:00	2024-11-08T16:00:00	6	Velocidad del viento	9.7
142734	7	Sololá	719	Santiago Atitlán	14	Cerro de Oro	4	Abril	2023-12-04T00:00:00	2024-11-08T16:00:00	7	Dirección del viento	9.66
142735	7	Sololá	719	Santiago Atitlán	14	Cerro de Oro	4	Abril	2023-12-04T00:00:00	2024-11-08T16:00:00	1	Precipitación	0
142736	7	Sololá	719	Santiago Atitlán	14	Cerro de Oro	4	Abril	2023-12-04T00:00:00	2024-11-08T16:00:00	8	Radiación solar	184
142737	7	Sololá	719	Santiago Atitlán	14	Cerro de Oro	4	Abril	2023-12-04T00:00:00	2024-11-08T17:00:00	2	Temperatura media	21.6
142738	7	Sololá	719	Santiago Atitlán	14	Cerro de Oro	4	Abril	2023-12-04T00:00:00	2024-11-08T17:00:00	4	Temperatura máxima	22.4
142739	7	Sololá	719	Santiago Atitlán	14	Cerro de Oro	4	Abril	2023-12-04T00:00:00	2024-11-08T17:00:00	3	Temperatura mínima	21.6
142740	7	Sololá	719	Santiago Atitlán	14	Cerro de Oro	4	Abril	2023-12-04T00:00:00	2024-11-08T17:00:00	5	Humedad	67
142741	7	Sololá	719	Santiago Atitlán	14	Cerro de Oro	4	Abril	2023-12-04T00:00:00	2024-11-08T17:00:00	6	Velocidad del viento	8
142742	7	Sololá	719	Santiago Atitlán	14	Cerro de Oro	4	Abril	2023-12-04T00:00:00	2024-11-08T17:00:00	7	Dirección del viento	8.05
142743	7	Sololá	719	Santiago Atitlán	14	Cerro de Oro	4	Abril	2023-12-04T00:00:00	2024-11-08T17:00:00	1	Precipitación	0
142744	7	Sololá	719	Santiago Atitlán	14	Cerro de Oro	4	Abril	2023-12-04T00:00:00	2024-11-08T17:00:00	8	Radiación solar	178
142745	7	Sololá	719	Santiago Atitlán	14	Cerro de Oro	4	Abril	2023-12-04T00:00:00	2024-11-08T18:00:00	2	Temperatura media	21.3
142746	7	Sololá	719	Santiago Atitlán	14	Cerro de Oro	4	Abril	2023-12-04T00:00:00	2024-11-08T18:00:00	4	Temperatura máxima	21.8
142747	7	Sololá	719	Santiago Atitlán	14	Cerro de Oro	4	Abril	2023-12-04T00:00:00	2024-11-08T18:00:00	3	Temperatura mínima	21.2
142748	7	Sololá	719	Santiago Atitlán	14	Cerro de Oro	4	Abril	2023-12-04T00:00:00	2024-11-08T18:00:00	5	Humedad	70
142749	7	Sololá	719	Santiago Atitlán	14	Cerro de Oro	4	Abril	2023-12-04T00:00:00	2024-11-08T18:00:00	6	Velocidad del viento	8
142750	7	Sololá	719	Santiago Atitlán	14	Cerro de Oro	4	Abril	2023-12-04T00:00:00	2024-11-08T18:00:00	7	Dirección del viento	8.05
142751	7	Sololá	719	Santiago Atitlán	14	Cerro de Oro	4	Abril	2023-12-04T00:00:00	2024-11-08T18:00:00	1	Precipitación	0
142752	7	Sololá	719	Santiago Atitlán	14	Cerro de Oro	4	Abril	2023-12-04T00:00:00	2024-11-08T18:00:00	8	Radiación solar	73
142753	7	Sololá	719	Santiago Atitlán	14	Cerro de Oro	4	Abril	2023-12-04T00:00:00	2024-11-08T19:00:00	2	Temperatura media	19.9
142754	7	Sololá	719	Santiago Atitlán	14	Cerro de Oro	4	Abril	2023-12-04T00:00:00	2024-11-08T19:00:00	4	Temperatura máxima	21.3
142755	7	Sololá	719	Santiago Atitlán	14	Cerro de Oro	4	Abril	2023-12-04T00:00:00	2024-11-08T19:00:00	3	Temperatura mínima	19.9
142756	7	Sololá	719	Santiago Atitlán	14	Cerro de Oro	4	Abril	2023-12-04T00:00:00	2024-11-08T19:00:00	5	Humedad	80
142757	7	Sololá	719	Santiago Atitlán	14	Cerro de Oro	4	Abril	2023-12-04T00:00:00	2024-11-08T19:00:00	6	Velocidad del viento	8
142758	7	Sololá	719	Santiago Atitlán	14	Cerro de Oro	4	Abril	2023-12-04T00:00:00	2024-11-08T19:00:00	7	Dirección del viento	8.05
142759	7	Sololá	719	Santiago Atitlán	14	Cerro de Oro	4	Abril	2023-12-04T00:00:00	2024-11-08T19:00:00	1	Precipitación	0
142760	7	Sololá	719	Santiago Atitlán	14	Cerro de Oro	4	Abril	2023-12-04T00:00:00	2024-11-08T19:00:00	8	Radiación solar	0
142761	7	Sololá	719	Santiago Atitlán	14	Cerro de Oro	4	Abril	2023-12-04T00:00:00	2024-11-08T20:00:00	2	Temperatura media	19
142762	7	Sololá	719	Santiago Atitlán	14	Cerro de Oro	4	Abril	2023-12-04T00:00:00	2024-11-08T20:00:00	4	Temperatura máxima	19.9
142763	7	Sololá	719	Santiago Atitlán	14	Cerro de Oro	4	Abril	2023-12-04T00:00:00	2024-11-08T20:00:00	3	Temperatura mínima	19
142764	7	Sololá	719	Santiago Atitlán	14	Cerro de Oro	4	Abril	2023-12-04T00:00:00	2024-11-08T20:00:00	5	Humedad	86
142765	7	Sololá	719	Santiago Atitlán	14	Cerro de Oro	4	Abril	2023-12-04T00:00:00	2024-11-08T20:00:00	6	Velocidad del viento	4.8
142766	7	Sololá	719	Santiago Atitlán	14	Cerro de Oro	4	Abril	2023-12-04T00:00:00	2024-11-08T20:00:00	7	Dirección del viento	4.83
142767	7	Sololá	719	Santiago Atitlán	14	Cerro de Oro	4	Abril	2023-12-04T00:00:00	2024-11-08T20:00:00	1	Precipitación	0
142768	7	Sololá	719	Santiago Atitlán	14	Cerro de Oro	4	Abril	2023-12-04T00:00:00	2024-11-08T20:00:00	8	Radiación solar	0
142769	7	Sololá	719	Santiago Atitlán	14	Cerro de Oro	4	Abril	2023-12-04T00:00:00	2024-11-08T21:00:00	2	Temperatura media	18.2
142770	7	Sololá	719	Santiago Atitlán	14	Cerro de Oro	4	Abril	2023-12-04T00:00:00	2024-11-08T21:00:00	4	Temperatura máxima	19
142771	7	Sololá	719	Santiago Atitlán	14	Cerro de Oro	4	Abril	2023-12-04T00:00:00	2024-11-08T21:00:00	3	Temperatura mínima	18.2
142772	7	Sololá	719	Santiago Atitlán	14	Cerro de Oro	4	Abril	2023-12-04T00:00:00	2024-11-08T21:00:00	5	Humedad	85
142773	7	Sololá	719	Santiago Atitlán	14	Cerro de Oro	4	Abril	2023-12-04T00:00:00	2024-11-08T21:00:00	6	Velocidad del viento	4.8
142774	7	Sololá	719	Santiago Atitlán	14	Cerro de Oro	4	Abril	2023-12-04T00:00:00	2024-11-08T21:00:00	7	Dirección del viento	4.83
142775	7	Sololá	719	Santiago Atitlán	14	Cerro de Oro	4	Abril	2023-12-04T00:00:00	2024-11-08T21:00:00	1	Precipitación	0
142776	7	Sololá	719	Santiago Atitlán	14	Cerro de Oro	4	Abril	2023-12-04T00:00:00	2024-11-08T21:00:00	8	Radiación solar	0
142777	7	Sololá	719	Santiago Atitlán	14	Cerro de Oro	4	Abril	2023-12-04T00:00:00	2024-11-08T22:00:00	2	Temperatura media	20.4
142778	7	Sololá	719	Santiago Atitlán	14	Cerro de Oro	4	Abril	2023-12-04T00:00:00	2024-11-08T22:00:00	4	Temperatura máxima	20.5
142779	7	Sololá	719	Santiago Atitlán	14	Cerro de Oro	4	Abril	2023-12-04T00:00:00	2024-11-08T22:00:00	3	Temperatura mínima	18.1
142780	7	Sololá	719	Santiago Atitlán	14	Cerro de Oro	4	Abril	2023-12-04T00:00:00	2024-11-08T22:00:00	5	Humedad	68
142781	7	Sololá	719	Santiago Atitlán	14	Cerro de Oro	4	Abril	2023-12-04T00:00:00	2024-11-08T22:00:00	6	Velocidad del viento	6.4
142782	7	Sololá	719	Santiago Atitlán	14	Cerro de Oro	4	Abril	2023-12-04T00:00:00	2024-11-08T22:00:00	7	Dirección del viento	6.44
142783	7	Sololá	719	Santiago Atitlán	14	Cerro de Oro	4	Abril	2023-12-04T00:00:00	2024-11-08T22:00:00	1	Precipitación	0
142784	7	Sololá	719	Santiago Atitlán	14	Cerro de Oro	4	Abril	2023-12-04T00:00:00	2024-11-08T22:00:00	8	Radiación solar	0
142785	7	Sololá	719	Santiago Atitlán	14	Cerro de Oro	4	Abril	2023-12-04T00:00:00	2024-11-08T23:00:00	2	Temperatura media	19
142786	7	Sololá	719	Santiago Atitlán	14	Cerro de Oro	4	Abril	2023-12-04T00:00:00	2024-11-08T23:00:00	4	Temperatura máxima	20.4
142787	7	Sololá	719	Santiago Atitlán	14	Cerro de Oro	4	Abril	2023-12-04T00:00:00	2024-11-08T23:00:00	3	Temperatura mínima	19
142788	7	Sololá	719	Santiago Atitlán	14	Cerro de Oro	4	Abril	2023-12-04T00:00:00	2024-11-08T23:00:00	5	Humedad	71
142789	7	Sololá	719	Santiago Atitlán	14	Cerro de Oro	4	Abril	2023-12-04T00:00:00	2024-11-08T23:00:00	6	Velocidad del viento	6.4
142790	7	Sololá	719	Santiago Atitlán	14	Cerro de Oro	4	Abril	2023-12-04T00:00:00	2024-11-08T23:00:00	7	Dirección del viento	6.44
142791	7	Sololá	719	Santiago Atitlán	14	Cerro de Oro	4	Abril	2023-12-04T00:00:00	2024-11-08T23:00:00	1	Precipitación	0
142792	7	Sololá	719	Santiago Atitlán	14	Cerro de Oro	4	Abril	2023-12-04T00:00:00	2024-11-08T23:00:00	8	Radiación solar	0
142793	7	Sololá	719	Santiago Atitlán	14	Cerro de Oro	4	Abril	2023-04-13T00:00:00	2024-11-08T00:00:00	2	Temperatura media	19.5
142794	7	Sololá	719	Santiago Atitlán	14	Cerro de Oro	4	Abril	2023-04-13T00:00:00	2024-11-08T00:00:00	4	Temperatura máxima	19.5
142795	7	Sololá	719	Santiago Atitlán	14	Cerro de Oro	4	Abril	2023-04-13T00:00:00	2024-11-08T00:00:00	3	Temperatura mínima	18.7
142796	7	Sololá	719	Santiago Atitlán	14	Cerro de Oro	4	Abril	2023-04-13T00:00:00	2024-11-08T00:00:00	5	Humedad	74
142797	7	Sololá	719	Santiago Atitlán	14	Cerro de Oro	4	Abril	2023-04-13T00:00:00	2024-11-08T00:00:00	6	Velocidad del viento	6.4
142798	7	Sololá	719	Santiago Atitlán	14	Cerro de Oro	4	Abril	2023-04-13T00:00:00	2024-11-08T00:00:00	7	Dirección del viento	6.44
142799	7	Sololá	719	Santiago Atitlán	14	Cerro de Oro	4	Abril	2023-04-13T00:00:00	2024-11-08T00:00:00	1	Precipitación	0
142800	7	Sololá	719	Santiago Atitlán	14	Cerro de Oro	4	Abril	2023-04-13T00:00:00	2024-11-08T00:00:00	8	Radiación solar	0
142801	7	Sololá	719	Santiago Atitlán	14	Cerro de Oro	4	Abril	2023-04-13T00:00:00	2024-11-08T01:00:00	2	Temperatura media	18.3
142802	7	Sololá	719	Santiago Atitlán	14	Cerro de Oro	4	Abril	2023-04-13T00:00:00	2024-11-08T01:00:00	4	Temperatura máxima	19.6
142803	7	Sololá	719	Santiago Atitlán	14	Cerro de Oro	4	Abril	2023-04-13T00:00:00	2024-11-08T01:00:00	3	Temperatura mínima	18.2
142804	7	Sololá	719	Santiago Atitlán	14	Cerro de Oro	4	Abril	2023-04-13T00:00:00	2024-11-08T01:00:00	5	Humedad	76
142805	7	Sololá	719	Santiago Atitlán	14	Cerro de Oro	4	Abril	2023-04-13T00:00:00	2024-11-08T01:00:00	6	Velocidad del viento	6.4
142806	7	Sololá	719	Santiago Atitlán	14	Cerro de Oro	4	Abril	2023-04-13T00:00:00	2024-11-08T01:00:00	7	Dirección del viento	6.44
142807	7	Sololá	719	Santiago Atitlán	14	Cerro de Oro	4	Abril	2023-04-13T00:00:00	2024-11-08T01:00:00	1	Precipitación	0
142808	7	Sololá	719	Santiago Atitlán	14	Cerro de Oro	4	Abril	2023-04-13T00:00:00	2024-11-08T01:00:00	8	Radiación solar	0
142809	7	Sololá	719	Santiago Atitlán	14	Cerro de Oro	4	Abril	2023-04-13T00:00:00	2024-11-08T02:00:00	2	Temperatura media	18.1
142810	7	Sololá	719	Santiago Atitlán	14	Cerro de Oro	4	Abril	2023-04-13T00:00:00	2024-11-08T02:00:00	4	Temperatura máxima	18.3
142811	7	Sololá	719	Santiago Atitlán	14	Cerro de Oro	4	Abril	2023-04-13T00:00:00	2024-11-08T02:00:00	3	Temperatura mínima	18.1
142812	7	Sololá	719	Santiago Atitlán	14	Cerro de Oro	4	Abril	2023-04-13T00:00:00	2024-11-08T02:00:00	5	Humedad	76
142813	7	Sololá	719	Santiago Atitlán	14	Cerro de Oro	4	Abril	2023-04-13T00:00:00	2024-11-08T02:00:00	6	Velocidad del viento	3.2
142814	7	Sololá	719	Santiago Atitlán	14	Cerro de Oro	4	Abril	2023-04-13T00:00:00	2024-11-08T02:00:00	7	Dirección del viento	3.22
142815	7	Sololá	719	Santiago Atitlán	14	Cerro de Oro	4	Abril	2023-04-13T00:00:00	2024-11-08T02:00:00	1	Precipitación	0
142816	7	Sololá	719	Santiago Atitlán	14	Cerro de Oro	4	Abril	2023-04-13T00:00:00	2024-11-08T02:00:00	8	Radiación solar	0
142817	7	Sololá	719	Santiago Atitlán	14	Cerro de Oro	4	Abril	2023-04-13T00:00:00	2024-11-08T03:00:00	2	Temperatura media	18.1
142818	7	Sololá	719	Santiago Atitlán	14	Cerro de Oro	4	Abril	2023-04-13T00:00:00	2024-11-08T03:00:00	4	Temperatura máxima	18.6
142819	7	Sololá	719	Santiago Atitlán	14	Cerro de Oro	4	Abril	2023-04-13T00:00:00	2024-11-08T03:00:00	3	Temperatura mínima	18
142820	7	Sololá	719	Santiago Atitlán	14	Cerro de Oro	4	Abril	2023-04-13T00:00:00	2024-11-08T03:00:00	5	Humedad	73
142821	7	Sololá	719	Santiago Atitlán	14	Cerro de Oro	4	Abril	2023-04-13T00:00:00	2024-11-08T03:00:00	6	Velocidad del viento	4.8
142822	7	Sololá	719	Santiago Atitlán	14	Cerro de Oro	4	Abril	2023-04-13T00:00:00	2024-11-08T03:00:00	7	Dirección del viento	4.83
142823	7	Sololá	719	Santiago Atitlán	14	Cerro de Oro	4	Abril	2023-04-13T00:00:00	2024-11-08T03:00:00	1	Precipitación	0
142824	7	Sololá	719	Santiago Atitlán	14	Cerro de Oro	4	Abril	2023-04-13T00:00:00	2024-11-08T03:00:00	8	Radiación solar	0
142825	7	Sololá	719	Santiago Atitlán	14	Cerro de Oro	4	Abril	2023-04-13T00:00:00	2024-11-08T04:00:00	2	Temperatura media	17.8
142826	7	Sololá	719	Santiago Atitlán	14	Cerro de Oro	4	Abril	2023-04-13T00:00:00	2024-11-08T04:00:00	4	Temperatura máxima	18.4
142827	7	Sololá	719	Santiago Atitlán	14	Cerro de Oro	4	Abril	2023-04-13T00:00:00	2024-11-08T04:00:00	3	Temperatura mínima	17.8
142828	7	Sololá	719	Santiago Atitlán	14	Cerro de Oro	4	Abril	2023-04-13T00:00:00	2024-11-08T04:00:00	5	Humedad	74
142829	7	Sololá	719	Santiago Atitlán	14	Cerro de Oro	4	Abril	2023-04-13T00:00:00	2024-11-08T04:00:00	6	Velocidad del viento	1.6
142830	7	Sololá	719	Santiago Atitlán	14	Cerro de Oro	4	Abril	2023-04-13T00:00:00	2024-11-08T04:00:00	7	Dirección del viento	1.61
142831	7	Sololá	719	Santiago Atitlán	14	Cerro de Oro	4	Abril	2023-04-13T00:00:00	2024-11-08T04:00:00	1	Precipitación	0
142832	7	Sololá	719	Santiago Atitlán	14	Cerro de Oro	4	Abril	2023-04-13T00:00:00	2024-11-08T04:00:00	8	Radiación solar	0
142833	7	Sololá	719	Santiago Atitlán	14	Cerro de Oro	4	Abril	2023-04-13T00:00:00	2024-11-08T05:00:00	2	Temperatura media	17.3
142834	7	Sololá	719	Santiago Atitlán	14	Cerro de Oro	4	Abril	2023-04-13T00:00:00	2024-11-08T05:00:00	4	Temperatura máxima	17.8
142835	7	Sololá	719	Santiago Atitlán	14	Cerro de Oro	4	Abril	2023-04-13T00:00:00	2024-11-08T05:00:00	3	Temperatura mínima	17.2
142836	7	Sololá	719	Santiago Atitlán	14	Cerro de Oro	4	Abril	2023-04-13T00:00:00	2024-11-08T05:00:00	5	Humedad	74
142837	7	Sololá	719	Santiago Atitlán	14	Cerro de Oro	4	Abril	2023-04-13T00:00:00	2024-11-08T05:00:00	6	Velocidad del viento	3.2
142838	7	Sololá	719	Santiago Atitlán	14	Cerro de Oro	4	Abril	2023-04-13T00:00:00	2024-11-08T05:00:00	7	Dirección del viento	3.22
142839	7	Sololá	719	Santiago Atitlán	14	Cerro de Oro	4	Abril	2023-04-13T00:00:00	2024-11-08T05:00:00	1	Precipitación	0
142840	7	Sololá	719	Santiago Atitlán	14	Cerro de Oro	4	Abril	2023-04-13T00:00:00	2024-11-08T05:00:00	8	Radiación solar	0
142841	7	Sololá	719	Santiago Atitlán	14	Cerro de Oro	4	Abril	2023-04-13T00:00:00	2024-11-08T06:00:00	2	Temperatura media	17
142842	7	Sololá	719	Santiago Atitlán	14	Cerro de Oro	4	Abril	2023-04-13T00:00:00	2024-11-08T06:00:00	4	Temperatura máxima	17.6
142843	7	Sololá	719	Santiago Atitlán	14	Cerro de Oro	4	Abril	2023-04-13T00:00:00	2024-11-08T06:00:00	3	Temperatura mínima	16.9
142844	7	Sololá	719	Santiago Atitlán	14	Cerro de Oro	4	Abril	2023-04-13T00:00:00	2024-11-08T06:00:00	5	Humedad	75
142845	7	Sololá	719	Santiago Atitlán	14	Cerro de Oro	4	Abril	2023-04-13T00:00:00	2024-11-08T06:00:00	6	Velocidad del viento	3.2
142846	7	Sololá	719	Santiago Atitlán	14	Cerro de Oro	4	Abril	2023-04-13T00:00:00	2024-11-08T06:00:00	7	Dirección del viento	3.22
142847	7	Sololá	719	Santiago Atitlán	14	Cerro de Oro	4	Abril	2023-04-13T00:00:00	2024-11-08T06:00:00	1	Precipitación	0
142848	7	Sololá	719	Santiago Atitlán	14	Cerro de Oro	4	Abril	2023-04-13T00:00:00	2024-11-08T06:00:00	8	Radiación solar	1
142849	7	Sololá	719	Santiago Atitlán	14	Cerro de Oro	4	Abril	2023-04-13T00:00:00	2024-11-08T07:00:00	2	Temperatura media	16.9
142850	7	Sololá	719	Santiago Atitlán	14	Cerro de Oro	4	Abril	2023-04-13T00:00:00	2024-11-08T07:00:00	4	Temperatura máxima	17.2
142851	7	Sololá	719	Santiago Atitlán	14	Cerro de Oro	4	Abril	2023-04-13T00:00:00	2024-11-08T07:00:00	3	Temperatura mínima	16.8
142852	7	Sololá	719	Santiago Atitlán	14	Cerro de Oro	4	Abril	2023-04-13T00:00:00	2024-11-08T07:00:00	5	Humedad	75
142853	7	Sololá	719	Santiago Atitlán	14	Cerro de Oro	4	Abril	2023-04-13T00:00:00	2024-11-08T07:00:00	6	Velocidad del viento	4.8
142854	7	Sololá	719	Santiago Atitlán	14	Cerro de Oro	4	Abril	2023-04-13T00:00:00	2024-11-08T07:00:00	7	Dirección del viento	4.83
142855	7	Sololá	719	Santiago Atitlán	14	Cerro de Oro	4	Abril	2023-04-13T00:00:00	2024-11-08T07:00:00	1	Precipitación	0
142856	7	Sololá	719	Santiago Atitlán	14	Cerro de Oro	4	Abril	2023-04-13T00:00:00	2024-11-08T07:00:00	8	Radiación solar	57
142857	7	Sololá	719	Santiago Atitlán	14	Cerro de Oro	4	Abril	2023-04-13T00:00:00	2024-11-08T08:00:00	2	Temperatura media	18.2
142858	7	Sololá	719	Santiago Atitlán	14	Cerro de Oro	4	Abril	2023-04-13T00:00:00	2024-11-08T08:00:00	4	Temperatura máxima	18.2
142859	7	Sololá	719	Santiago Atitlán	14	Cerro de Oro	4	Abril	2023-04-13T00:00:00	2024-11-08T08:00:00	3	Temperatura mínima	16.9
142860	7	Sololá	719	Santiago Atitlán	14	Cerro de Oro	4	Abril	2023-04-13T00:00:00	2024-11-08T08:00:00	5	Humedad	74
142861	7	Sololá	719	Santiago Atitlán	14	Cerro de Oro	4	Abril	2023-04-13T00:00:00	2024-11-08T08:00:00	6	Velocidad del viento	3.2
142862	7	Sololá	719	Santiago Atitlán	14	Cerro de Oro	4	Abril	2023-04-13T00:00:00	2024-11-08T08:00:00	7	Dirección del viento	3.22
142863	7	Sololá	719	Santiago Atitlán	14	Cerro de Oro	4	Abril	2023-04-13T00:00:00	2024-11-08T08:00:00	1	Precipitación	0
142864	7	Sololá	719	Santiago Atitlán	14	Cerro de Oro	4	Abril	2023-04-13T00:00:00	2024-11-08T08:00:00	8	Radiación solar	239
142865	7	Sololá	719	Santiago Atitlán	14	Cerro de Oro	4	Abril	2023-04-13T00:00:00	2024-11-08T09:00:00	2	Temperatura media	19.9
142866	7	Sololá	719	Santiago Atitlán	14	Cerro de Oro	4	Abril	2023-04-13T00:00:00	2024-11-08T09:00:00	4	Temperatura máxima	19.9
142867	7	Sololá	719	Santiago Atitlán	14	Cerro de Oro	4	Abril	2023-04-13T00:00:00	2024-11-08T09:00:00	3	Temperatura mínima	18.2
142868	7	Sololá	719	Santiago Atitlán	14	Cerro de Oro	4	Abril	2023-04-13T00:00:00	2024-11-08T09:00:00	5	Humedad	71
142869	7	Sololá	719	Santiago Atitlán	14	Cerro de Oro	4	Abril	2023-04-13T00:00:00	2024-11-08T09:00:00	6	Velocidad del viento	3.2
142870	7	Sololá	719	Santiago Atitlán	14	Cerro de Oro	4	Abril	2023-04-13T00:00:00	2024-11-08T09:00:00	7	Dirección del viento	3.22
142871	7	Sololá	719	Santiago Atitlán	14	Cerro de Oro	4	Abril	2023-04-13T00:00:00	2024-11-08T09:00:00	1	Precipitación	0
142872	7	Sololá	719	Santiago Atitlán	14	Cerro de Oro	4	Abril	2023-04-13T00:00:00	2024-11-08T09:00:00	8	Radiación solar	398
142873	7	Sololá	719	Santiago Atitlán	14	Cerro de Oro	4	Abril	2023-04-13T00:00:00	2024-11-08T10:00:00	2	Temperatura media	20.4
142874	7	Sololá	719	Santiago Atitlán	14	Cerro de Oro	4	Abril	2023-04-13T00:00:00	2024-11-08T10:00:00	4	Temperatura máxima	20.6
142875	7	Sololá	719	Santiago Atitlán	14	Cerro de Oro	4	Abril	2023-04-13T00:00:00	2024-11-08T10:00:00	3	Temperatura mínima	19.7
142876	7	Sololá	719	Santiago Atitlán	14	Cerro de Oro	4	Abril	2023-04-13T00:00:00	2024-11-08T10:00:00	5	Humedad	68
142877	7	Sololá	719	Santiago Atitlán	14	Cerro de Oro	4	Abril	2023-04-13T00:00:00	2024-11-08T10:00:00	6	Velocidad del viento	4.8
142878	7	Sololá	719	Santiago Atitlán	14	Cerro de Oro	4	Abril	2023-04-13T00:00:00	2024-11-08T10:00:00	7	Dirección del viento	4.83
142879	7	Sololá	719	Santiago Atitlán	14	Cerro de Oro	4	Abril	2023-04-13T00:00:00	2024-11-08T10:00:00	1	Precipitación	0
142880	7	Sololá	719	Santiago Atitlán	14	Cerro de Oro	4	Abril	2023-04-13T00:00:00	2024-11-08T10:00:00	8	Radiación solar	513
142881	7	Sololá	719	Santiago Atitlán	14	Cerro de Oro	4	Abril	2023-04-13T00:00:00	2024-11-08T11:00:00	2	Temperatura media	23.2
142882	7	Sololá	719	Santiago Atitlán	14	Cerro de Oro	4	Abril	2023-04-13T00:00:00	2024-11-08T11:00:00	4	Temperatura máxima	23.2
142883	7	Sololá	719	Santiago Atitlán	14	Cerro de Oro	4	Abril	2023-04-13T00:00:00	2024-11-08T11:00:00	3	Temperatura mínima	20.3
142884	7	Sololá	719	Santiago Atitlán	14	Cerro de Oro	4	Abril	2023-04-13T00:00:00	2024-11-08T11:00:00	5	Humedad	56
142885	7	Sololá	719	Santiago Atitlán	14	Cerro de Oro	4	Abril	2023-04-13T00:00:00	2024-11-08T11:00:00	6	Velocidad del viento	6.4
142886	7	Sololá	719	Santiago Atitlán	14	Cerro de Oro	4	Abril	2023-04-13T00:00:00	2024-11-08T11:00:00	7	Dirección del viento	6.44
142887	7	Sololá	719	Santiago Atitlán	14	Cerro de Oro	4	Abril	2023-04-13T00:00:00	2024-11-08T11:00:00	1	Precipitación	0
142888	7	Sololá	719	Santiago Atitlán	14	Cerro de Oro	4	Abril	2023-04-13T00:00:00	2024-11-08T11:00:00	8	Radiación solar	838
142889	7	Sololá	719	Santiago Atitlán	14	Cerro de Oro	4	Abril	2023-04-13T00:00:00	2024-11-08T12:00:00	2	Temperatura media	24
142890	7	Sololá	719	Santiago Atitlán	14	Cerro de Oro	4	Abril	2023-04-13T00:00:00	2024-11-08T12:00:00	4	Temperatura máxima	24.4
142891	7	Sololá	719	Santiago Atitlán	14	Cerro de Oro	4	Abril	2023-04-13T00:00:00	2024-11-08T12:00:00	3	Temperatura mínima	22.9
142892	7	Sololá	719	Santiago Atitlán	14	Cerro de Oro	4	Abril	2023-04-13T00:00:00	2024-11-08T12:00:00	5	Humedad	55
142893	7	Sololá	719	Santiago Atitlán	14	Cerro de Oro	4	Abril	2023-04-13T00:00:00	2024-11-08T12:00:00	6	Velocidad del viento	9.7
142894	7	Sololá	719	Santiago Atitlán	14	Cerro de Oro	4	Abril	2023-04-13T00:00:00	2024-11-08T12:00:00	7	Dirección del viento	9.66
142895	7	Sololá	719	Santiago Atitlán	14	Cerro de Oro	4	Abril	2023-04-13T00:00:00	2024-11-08T12:00:00	1	Precipitación	0
142896	7	Sololá	719	Santiago Atitlán	14	Cerro de Oro	4	Abril	2023-04-13T00:00:00	2024-11-08T12:00:00	8	Radiación solar	924
142897	7	Sololá	719	Santiago Atitlán	14	Cerro de Oro	4	Abril	2023-04-13T00:00:00	2024-11-08T13:00:00	2	Temperatura media	23.3
142898	7	Sololá	719	Santiago Atitlán	14	Cerro de Oro	4	Abril	2023-04-13T00:00:00	2024-11-08T13:00:00	4	Temperatura máxima	24
142899	7	Sololá	719	Santiago Atitlán	14	Cerro de Oro	4	Abril	2023-04-13T00:00:00	2024-11-08T13:00:00	3	Temperatura mínima	23.2
142900	7	Sololá	719	Santiago Atitlán	14	Cerro de Oro	4	Abril	2023-04-13T00:00:00	2024-11-08T13:00:00	5	Humedad	61
142901	7	Sololá	719	Santiago Atitlán	14	Cerro de Oro	4	Abril	2023-04-13T00:00:00	2024-11-08T13:00:00	6	Velocidad del viento	12.9
142902	7	Sololá	719	Santiago Atitlán	14	Cerro de Oro	4	Abril	2023-04-13T00:00:00	2024-11-08T13:00:00	7	Dirección del viento	12.87
142903	7	Sololá	719	Santiago Atitlán	14	Cerro de Oro	4	Abril	2023-04-13T00:00:00	2024-11-08T13:00:00	1	Precipitación	0
142904	7	Sololá	719	Santiago Atitlán	14	Cerro de Oro	4	Abril	2023-04-13T00:00:00	2024-11-08T13:00:00	8	Radiación solar	906
142905	7	Sololá	719	Santiago Atitlán	14	Cerro de Oro	4	Abril	2023-04-13T00:00:00	2024-11-08T14:00:00	2	Temperatura media	22.4
142906	7	Sololá	719	Santiago Atitlán	14	Cerro de Oro	4	Abril	2023-04-13T00:00:00	2024-11-08T14:00:00	4	Temperatura máxima	23.6
142907	7	Sololá	719	Santiago Atitlán	14	Cerro de Oro	4	Abril	2023-04-13T00:00:00	2024-11-08T14:00:00	3	Temperatura mínima	22.4
142908	7	Sololá	719	Santiago Atitlán	14	Cerro de Oro	4	Abril	2023-04-13T00:00:00	2024-11-08T14:00:00	5	Humedad	70
142909	7	Sololá	719	Santiago Atitlán	14	Cerro de Oro	4	Abril	2023-04-13T00:00:00	2024-11-08T14:00:00	6	Velocidad del viento	14.5
142910	7	Sololá	719	Santiago Atitlán	14	Cerro de Oro	4	Abril	2023-04-13T00:00:00	2024-11-08T14:00:00	7	Dirección del viento	14.48
142911	7	Sololá	719	Santiago Atitlán	14	Cerro de Oro	4	Abril	2023-04-13T00:00:00	2024-11-08T14:00:00	1	Precipitación	0
142912	7	Sololá	719	Santiago Atitlán	14	Cerro de Oro	4	Abril	2023-04-13T00:00:00	2024-11-08T14:00:00	8	Radiación solar	413
142913	7	Sololá	719	Santiago Atitlán	14	Cerro de Oro	4	Abril	2023-04-13T00:00:00	2024-11-08T15:00:00	2	Temperatura media	21.3
142914	7	Sololá	719	Santiago Atitlán	14	Cerro de Oro	4	Abril	2023-04-13T00:00:00	2024-11-08T15:00:00	4	Temperatura máxima	22.9
142915	7	Sololá	719	Santiago Atitlán	14	Cerro de Oro	4	Abril	2023-04-13T00:00:00	2024-11-08T15:00:00	3	Temperatura mínima	21.2
142916	7	Sololá	719	Santiago Atitlán	14	Cerro de Oro	4	Abril	2023-04-13T00:00:00	2024-11-08T15:00:00	5	Humedad	75
142917	7	Sololá	719	Santiago Atitlán	14	Cerro de Oro	4	Abril	2023-04-13T00:00:00	2024-11-08T15:00:00	6	Velocidad del viento	14.5
142918	7	Sololá	719	Santiago Atitlán	14	Cerro de Oro	4	Abril	2023-04-13T00:00:00	2024-11-08T15:00:00	7	Dirección del viento	14.48
142919	7	Sololá	719	Santiago Atitlán	14	Cerro de Oro	4	Abril	2023-04-13T00:00:00	2024-11-08T15:00:00	1	Precipitación	0
142920	7	Sololá	719	Santiago Atitlán	14	Cerro de Oro	4	Abril	2023-04-13T00:00:00	2024-11-08T15:00:00	8	Radiación solar	220
142921	7	Sololá	719	Santiago Atitlán	14	Cerro de Oro	4	Abril	2023-04-13T00:00:00	2024-11-08T16:00:00	2	Temperatura media	21.2
142922	7	Sololá	719	Santiago Atitlán	14	Cerro de Oro	4	Abril	2023-04-13T00:00:00	2024-11-08T16:00:00	4	Temperatura máxima	21.8
142923	7	Sololá	719	Santiago Atitlán	14	Cerro de Oro	4	Abril	2023-04-13T00:00:00	2024-11-08T16:00:00	3	Temperatura mínima	21.2
142924	7	Sololá	719	Santiago Atitlán	14	Cerro de Oro	4	Abril	2023-04-13T00:00:00	2024-11-08T16:00:00	5	Humedad	75
142925	7	Sololá	719	Santiago Atitlán	14	Cerro de Oro	4	Abril	2023-04-13T00:00:00	2024-11-08T16:00:00	6	Velocidad del viento	11.3
142926	7	Sololá	719	Santiago Atitlán	14	Cerro de Oro	4	Abril	2023-04-13T00:00:00	2024-11-08T16:00:00	7	Dirección del viento	11.27
142927	7	Sololá	719	Santiago Atitlán	14	Cerro de Oro	4	Abril	2023-04-13T00:00:00	2024-11-08T16:00:00	1	Precipitación	0
142928	7	Sololá	719	Santiago Atitlán	14	Cerro de Oro	4	Abril	2023-04-13T00:00:00	2024-11-08T16:00:00	8	Radiación solar	182
142929	7	Sololá	719	Santiago Atitlán	14	Cerro de Oro	4	Abril	2023-04-13T00:00:00	2024-11-08T17:00:00	2	Temperatura media	21.2
142930	7	Sololá	719	Santiago Atitlán	14	Cerro de Oro	4	Abril	2023-04-13T00:00:00	2024-11-08T17:00:00	4	Temperatura máxima	21.4
142931	7	Sololá	719	Santiago Atitlán	14	Cerro de Oro	4	Abril	2023-04-13T00:00:00	2024-11-08T17:00:00	3	Temperatura mínima	21.1
142932	7	Sololá	719	Santiago Atitlán	14	Cerro de Oro	4	Abril	2023-04-13T00:00:00	2024-11-08T17:00:00	5	Humedad	73
142933	7	Sololá	719	Santiago Atitlán	14	Cerro de Oro	4	Abril	2023-04-13T00:00:00	2024-11-08T17:00:00	6	Velocidad del viento	11.3
142934	7	Sololá	719	Santiago Atitlán	14	Cerro de Oro	4	Abril	2023-04-13T00:00:00	2024-11-08T17:00:00	7	Dirección del viento	11.27
142935	7	Sololá	719	Santiago Atitlán	14	Cerro de Oro	4	Abril	2023-04-13T00:00:00	2024-11-08T17:00:00	1	Precipitación	0
142936	7	Sololá	719	Santiago Atitlán	14	Cerro de Oro	4	Abril	2023-04-13T00:00:00	2024-11-08T17:00:00	8	Radiación solar	165
142937	7	Sololá	719	Santiago Atitlán	14	Cerro de Oro	4	Abril	2023-04-13T00:00:00	2024-11-08T18:00:00	2	Temperatura media	20.6
142938	7	Sololá	719	Santiago Atitlán	14	Cerro de Oro	4	Abril	2023-04-13T00:00:00	2024-11-08T18:00:00	4	Temperatura máxima	21.3
142939	7	Sololá	719	Santiago Atitlán	14	Cerro de Oro	4	Abril	2023-04-13T00:00:00	2024-11-08T18:00:00	3	Temperatura mínima	20.4
142940	7	Sololá	719	Santiago Atitlán	14	Cerro de Oro	4	Abril	2023-04-13T00:00:00	2024-11-08T18:00:00	5	Humedad	82
142941	7	Sololá	719	Santiago Atitlán	14	Cerro de Oro	4	Abril	2023-04-13T00:00:00	2024-11-08T18:00:00	6	Velocidad del viento	6.4
142942	7	Sololá	719	Santiago Atitlán	14	Cerro de Oro	4	Abril	2023-04-13T00:00:00	2024-11-08T18:00:00	7	Dirección del viento	6.44
142943	7	Sololá	719	Santiago Atitlán	14	Cerro de Oro	4	Abril	2023-04-13T00:00:00	2024-11-08T18:00:00	1	Precipitación	0
142944	7	Sololá	719	Santiago Atitlán	14	Cerro de Oro	4	Abril	2023-04-13T00:00:00	2024-11-08T18:00:00	8	Radiación solar	76
142945	7	Sololá	719	Santiago Atitlán	14	Cerro de Oro	4	Abril	2023-04-13T00:00:00	2024-11-08T19:00:00	2	Temperatura media	19.1
142946	7	Sololá	719	Santiago Atitlán	14	Cerro de Oro	4	Abril	2023-04-13T00:00:00	2024-11-08T19:00:00	4	Temperatura máxima	20.6
142947	7	Sololá	719	Santiago Atitlán	14	Cerro de Oro	4	Abril	2023-04-13T00:00:00	2024-11-08T19:00:00	3	Temperatura mínima	19.1
142948	7	Sololá	719	Santiago Atitlán	14	Cerro de Oro	4	Abril	2023-04-13T00:00:00	2024-11-08T19:00:00	5	Humedad	86
142949	7	Sololá	719	Santiago Atitlán	14	Cerro de Oro	4	Abril	2023-04-13T00:00:00	2024-11-08T19:00:00	6	Velocidad del viento	8
142950	7	Sololá	719	Santiago Atitlán	14	Cerro de Oro	4	Abril	2023-04-13T00:00:00	2024-11-08T19:00:00	7	Dirección del viento	8.05
142951	7	Sololá	719	Santiago Atitlán	14	Cerro de Oro	4	Abril	2023-04-13T00:00:00	2024-11-08T19:00:00	1	Precipitación	0
142952	7	Sololá	719	Santiago Atitlán	14	Cerro de Oro	4	Abril	2023-04-13T00:00:00	2024-11-08T19:00:00	8	Radiación solar	0
142953	7	Sololá	719	Santiago Atitlán	14	Cerro de Oro	4	Abril	2023-04-13T00:00:00	2024-11-08T20:00:00	2	Temperatura media	18.9
142954	7	Sololá	719	Santiago Atitlán	14	Cerro de Oro	4	Abril	2023-04-13T00:00:00	2024-11-08T20:00:00	4	Temperatura máxima	19.2
142955	7	Sololá	719	Santiago Atitlán	14	Cerro de Oro	4	Abril	2023-04-13T00:00:00	2024-11-08T20:00:00	3	Temperatura mínima	18.9
142956	7	Sololá	719	Santiago Atitlán	14	Cerro de Oro	4	Abril	2023-04-13T00:00:00	2024-11-08T20:00:00	5	Humedad	88
142957	7	Sololá	719	Santiago Atitlán	14	Cerro de Oro	4	Abril	2023-04-13T00:00:00	2024-11-08T20:00:00	6	Velocidad del viento	4.8
142958	7	Sololá	719	Santiago Atitlán	14	Cerro de Oro	4	Abril	2023-04-13T00:00:00	2024-11-08T20:00:00	7	Dirección del viento	4.83
142959	7	Sololá	719	Santiago Atitlán	14	Cerro de Oro	4	Abril	2023-04-13T00:00:00	2024-11-08T20:00:00	1	Precipitación	0
142960	7	Sololá	719	Santiago Atitlán	14	Cerro de Oro	4	Abril	2023-04-13T00:00:00	2024-11-08T20:00:00	8	Radiación solar	0
142961	7	Sololá	719	Santiago Atitlán	14	Cerro de Oro	4	Abril	2023-04-13T00:00:00	2024-11-08T21:00:00	2	Temperatura media	18.6
142962	7	Sololá	719	Santiago Atitlán	14	Cerro de Oro	4	Abril	2023-04-13T00:00:00	2024-11-08T21:00:00	4	Temperatura máxima	18.9
142963	7	Sololá	719	Santiago Atitlán	14	Cerro de Oro	4	Abril	2023-04-13T00:00:00	2024-11-08T21:00:00	3	Temperatura mínima	18.4
142964	7	Sololá	719	Santiago Atitlán	14	Cerro de Oro	4	Abril	2023-04-13T00:00:00	2024-11-08T21:00:00	5	Humedad	88
142965	7	Sololá	719	Santiago Atitlán	14	Cerro de Oro	4	Abril	2023-04-13T00:00:00	2024-11-08T21:00:00	6	Velocidad del viento	4.8
142966	7	Sololá	719	Santiago Atitlán	14	Cerro de Oro	4	Abril	2023-04-13T00:00:00	2024-11-08T21:00:00	7	Dirección del viento	4.83
142967	7	Sololá	719	Santiago Atitlán	14	Cerro de Oro	4	Abril	2023-04-13T00:00:00	2024-11-08T21:00:00	1	Precipitación	0
142968	7	Sololá	719	Santiago Atitlán	14	Cerro de Oro	4	Abril	2023-04-13T00:00:00	2024-11-08T21:00:00	8	Radiación solar	0
142969	7	Sololá	719	Santiago Atitlán	14	Cerro de Oro	4	Abril	2023-04-13T00:00:00	2024-11-08T22:00:00	2	Temperatura media	18
142970	7	Sololá	719	Santiago Atitlán	14	Cerro de Oro	4	Abril	2023-04-13T00:00:00	2024-11-08T22:00:00	4	Temperatura máxima	18.7
142971	7	Sololá	719	Santiago Atitlán	14	Cerro de Oro	4	Abril	2023-04-13T00:00:00	2024-11-08T22:00:00	3	Temperatura mínima	18
142972	7	Sololá	719	Santiago Atitlán	14	Cerro de Oro	4	Abril	2023-04-13T00:00:00	2024-11-08T22:00:00	5	Humedad	87
142973	7	Sololá	719	Santiago Atitlán	14	Cerro de Oro	4	Abril	2023-04-13T00:00:00	2024-11-08T22:00:00	6	Velocidad del viento	3.2
142974	7	Sololá	719	Santiago Atitlán	14	Cerro de Oro	4	Abril	2023-04-13T00:00:00	2024-11-08T22:00:00	7	Dirección del viento	3.22
142975	7	Sololá	719	Santiago Atitlán	14	Cerro de Oro	4	Abril	2023-04-13T00:00:00	2024-11-08T22:00:00	1	Precipitación	0
142976	7	Sololá	719	Santiago Atitlán	14	Cerro de Oro	4	Abril	2023-04-13T00:00:00	2024-11-08T22:00:00	8	Radiación solar	0
142977	7	Sololá	719	Santiago Atitlán	14	Cerro de Oro	4	Abril	2023-04-13T00:00:00	2024-11-08T23:00:00	2	Temperatura media	17.6
142978	7	Sololá	719	Santiago Atitlán	14	Cerro de Oro	4	Abril	2023-04-13T00:00:00	2024-11-08T23:00:00	4	Temperatura máxima	18
142979	7	Sololá	719	Santiago Atitlán	14	Cerro de Oro	4	Abril	2023-04-13T00:00:00	2024-11-08T23:00:00	3	Temperatura mínima	17.6
142980	7	Sololá	719	Santiago Atitlán	14	Cerro de Oro	4	Abril	2023-04-13T00:00:00	2024-11-08T23:00:00	5	Humedad	88
142981	7	Sololá	719	Santiago Atitlán	14	Cerro de Oro	4	Abril	2023-04-13T00:00:00	2024-11-08T23:00:00	6	Velocidad del viento	4.8
142982	7	Sololá	719	Santiago Atitlán	14	Cerro de Oro	4	Abril	2023-04-13T00:00:00	2024-11-08T23:00:00	7	Dirección del viento	4.83
142983	7	Sololá	719	Santiago Atitlán	14	Cerro de Oro	4	Abril	2023-04-13T00:00:00	2024-11-08T23:00:00	1	Precipitación	0
142984	7	Sololá	719	Santiago Atitlán	14	Cerro de Oro	4	Abril	2023-04-13T00:00:00	2024-11-08T23:00:00	8	Radiación solar	0
142985	7	Sololá	719	Santiago Atitlán	14	Cerro de Oro	4	Abril	2023-04-14T00:00:00	2024-11-08T00:00:00	2	Temperatura media	17.9
142986	7	Sololá	719	Santiago Atitlán	14	Cerro de Oro	4	Abril	2023-04-14T00:00:00	2024-11-08T00:00:00	4	Temperatura máxima	18
142987	7	Sololá	719	Santiago Atitlán	14	Cerro de Oro	4	Abril	2023-04-14T00:00:00	2024-11-08T00:00:00	3	Temperatura mínima	17.6
142988	7	Sololá	719	Santiago Atitlán	14	Cerro de Oro	4	Abril	2023-04-14T00:00:00	2024-11-08T00:00:00	5	Humedad	89
142989	7	Sololá	719	Santiago Atitlán	14	Cerro de Oro	4	Abril	2023-04-14T00:00:00	2024-11-08T00:00:00	6	Velocidad del viento	3.2
142990	7	Sololá	719	Santiago Atitlán	14	Cerro de Oro	4	Abril	2023-04-14T00:00:00	2024-11-08T00:00:00	7	Dirección del viento	3.22
142991	7	Sololá	719	Santiago Atitlán	14	Cerro de Oro	4	Abril	2023-04-14T00:00:00	2024-11-08T00:00:00	1	Precipitación	0
142992	7	Sololá	719	Santiago Atitlán	14	Cerro de Oro	4	Abril	2023-04-14T00:00:00	2024-11-08T00:00:00	8	Radiación solar	0
142993	7	Sololá	719	Santiago Atitlán	14	Cerro de Oro	4	Abril	2023-04-14T00:00:00	2024-11-08T01:00:00	2	Temperatura media	17.7
142994	7	Sololá	719	Santiago Atitlán	14	Cerro de Oro	4	Abril	2023-04-14T00:00:00	2024-11-08T01:00:00	4	Temperatura máxima	18
142995	7	Sololá	719	Santiago Atitlán	14	Cerro de Oro	4	Abril	2023-04-14T00:00:00	2024-11-08T01:00:00	3	Temperatura mínima	17.7
142996	7	Sololá	719	Santiago Atitlán	14	Cerro de Oro	4	Abril	2023-04-14T00:00:00	2024-11-08T01:00:00	5	Humedad	89
142997	7	Sololá	719	Santiago Atitlán	14	Cerro de Oro	4	Abril	2023-04-14T00:00:00	2024-11-08T01:00:00	6	Velocidad del viento	3.2
142998	7	Sololá	719	Santiago Atitlán	14	Cerro de Oro	4	Abril	2023-04-14T00:00:00	2024-11-08T01:00:00	7	Dirección del viento	3.22
142999	7	Sololá	719	Santiago Atitlán	14	Cerro de Oro	4	Abril	2023-04-14T00:00:00	2024-11-08T01:00:00	1	Precipitación	0
143000	7	Sololá	719	Santiago Atitlán	14	Cerro de Oro	4	Abril	2023-04-14T00:00:00	2024-11-08T01:00:00	8	Radiación solar	0
143001	7	Sololá	719	Santiago Atitlán	14	Cerro de Oro	4	Abril	2023-04-14T00:00:00	2024-11-08T02:00:00	2	Temperatura media	17.6
143002	7	Sololá	719	Santiago Atitlán	14	Cerro de Oro	4	Abril	2023-04-14T00:00:00	2024-11-08T02:00:00	4	Temperatura máxima	17.8
143003	7	Sololá	719	Santiago Atitlán	14	Cerro de Oro	4	Abril	2023-04-14T00:00:00	2024-11-08T02:00:00	3	Temperatura mínima	17.4
143004	7	Sololá	719	Santiago Atitlán	14	Cerro de Oro	4	Abril	2023-04-14T00:00:00	2024-11-08T02:00:00	5	Humedad	90
143005	7	Sololá	719	Santiago Atitlán	14	Cerro de Oro	4	Abril	2023-04-14T00:00:00	2024-11-08T02:00:00	6	Velocidad del viento	4.8
143006	7	Sololá	719	Santiago Atitlán	14	Cerro de Oro	4	Abril	2023-04-14T00:00:00	2024-11-08T02:00:00	7	Dirección del viento	4.83
143007	7	Sololá	719	Santiago Atitlán	14	Cerro de Oro	4	Abril	2023-04-14T00:00:00	2024-11-08T02:00:00	1	Precipitación	0
143008	7	Sololá	719	Santiago Atitlán	14	Cerro de Oro	4	Abril	2023-04-14T00:00:00	2024-11-08T02:00:00	8	Radiación solar	0
143009	7	Sololá	719	Santiago Atitlán	14	Cerro de Oro	4	Abril	2023-04-14T00:00:00	2024-11-08T03:00:00	2	Temperatura media	17.3
143010	7	Sololá	719	Santiago Atitlán	14	Cerro de Oro	4	Abril	2023-04-14T00:00:00	2024-11-08T03:00:00	4	Temperatura máxima	17.7
143011	7	Sololá	719	Santiago Atitlán	14	Cerro de Oro	4	Abril	2023-04-14T00:00:00	2024-11-08T03:00:00	3	Temperatura mínima	17.2
143012	7	Sololá	719	Santiago Atitlán	14	Cerro de Oro	4	Abril	2023-04-14T00:00:00	2024-11-08T03:00:00	5	Humedad	84
143013	7	Sololá	719	Santiago Atitlán	14	Cerro de Oro	4	Abril	2023-04-14T00:00:00	2024-11-08T03:00:00	6	Velocidad del viento	4.8
143014	7	Sololá	719	Santiago Atitlán	14	Cerro de Oro	4	Abril	2023-04-14T00:00:00	2024-11-08T03:00:00	7	Dirección del viento	4.83
143015	7	Sololá	719	Santiago Atitlán	14	Cerro de Oro	4	Abril	2023-04-14T00:00:00	2024-11-08T03:00:00	1	Precipitación	0
143016	7	Sololá	719	Santiago Atitlán	14	Cerro de Oro	4	Abril	2023-04-14T00:00:00	2024-11-08T03:00:00	8	Radiación solar	0
143017	7	Sololá	719	Santiago Atitlán	14	Cerro de Oro	4	Abril	2023-04-14T00:00:00	2024-11-08T04:00:00	2	Temperatura media	16.8
143018	7	Sololá	719	Santiago Atitlán	14	Cerro de Oro	4	Abril	2023-04-14T00:00:00	2024-11-08T04:00:00	4	Temperatura máxima	17.3
143019	7	Sololá	719	Santiago Atitlán	14	Cerro de Oro	4	Abril	2023-04-14T00:00:00	2024-11-08T04:00:00	3	Temperatura mínima	16.7
143020	7	Sololá	719	Santiago Atitlán	14	Cerro de Oro	4	Abril	2023-04-14T00:00:00	2024-11-08T04:00:00	5	Humedad	80
143021	7	Sololá	719	Santiago Atitlán	14	Cerro de Oro	4	Abril	2023-04-14T00:00:00	2024-11-08T04:00:00	6	Velocidad del viento	3.2
143022	7	Sololá	719	Santiago Atitlán	14	Cerro de Oro	4	Abril	2023-04-14T00:00:00	2024-11-08T04:00:00	7	Dirección del viento	3.22
143023	7	Sololá	719	Santiago Atitlán	14	Cerro de Oro	4	Abril	2023-04-14T00:00:00	2024-11-08T04:00:00	1	Precipitación	0
143024	7	Sololá	719	Santiago Atitlán	14	Cerro de Oro	4	Abril	2023-04-14T00:00:00	2024-11-08T04:00:00	8	Radiación solar	0
143025	7	Sololá	719	Santiago Atitlán	14	Cerro de Oro	4	Abril	2023-04-14T00:00:00	2024-11-08T05:00:00	2	Temperatura media	17.1
143026	7	Sololá	719	Santiago Atitlán	14	Cerro de Oro	4	Abril	2023-04-14T00:00:00	2024-11-08T05:00:00	4	Temperatura máxima	17.2
143027	7	Sololá	719	Santiago Atitlán	14	Cerro de Oro	4	Abril	2023-04-14T00:00:00	2024-11-08T05:00:00	3	Temperatura mínima	16.4
143028	7	Sololá	719	Santiago Atitlán	14	Cerro de Oro	4	Abril	2023-04-14T00:00:00	2024-11-08T05:00:00	5	Humedad	75
143029	7	Sololá	719	Santiago Atitlán	14	Cerro de Oro	4	Abril	2023-04-14T00:00:00	2024-11-08T05:00:00	6	Velocidad del viento	4.8
143030	7	Sololá	719	Santiago Atitlán	14	Cerro de Oro	4	Abril	2023-04-14T00:00:00	2024-11-08T05:00:00	7	Dirección del viento	4.83
143031	7	Sololá	719	Santiago Atitlán	14	Cerro de Oro	4	Abril	2023-04-14T00:00:00	2024-11-08T05:00:00	1	Precipitación	0
143032	7	Sololá	719	Santiago Atitlán	14	Cerro de Oro	4	Abril	2023-04-14T00:00:00	2024-11-08T05:00:00	8	Radiación solar	0
143033	7	Sololá	719	Santiago Atitlán	14	Cerro de Oro	4	Abril	2023-04-14T00:00:00	2024-11-08T06:00:00	2	Temperatura media	16.6
143034	7	Sololá	719	Santiago Atitlán	14	Cerro de Oro	4	Abril	2023-04-14T00:00:00	2024-11-08T06:00:00	4	Temperatura máxima	17.1
143035	7	Sololá	719	Santiago Atitlán	14	Cerro de Oro	4	Abril	2023-04-14T00:00:00	2024-11-08T06:00:00	3	Temperatura mínima	16.6
143036	7	Sololá	719	Santiago Atitlán	14	Cerro de Oro	4	Abril	2023-04-14T00:00:00	2024-11-08T06:00:00	5	Humedad	71
143037	7	Sololá	719	Santiago Atitlán	14	Cerro de Oro	4	Abril	2023-04-14T00:00:00	2024-11-08T06:00:00	6	Velocidad del viento	4.8
143038	7	Sololá	719	Santiago Atitlán	14	Cerro de Oro	4	Abril	2023-04-14T00:00:00	2024-11-08T06:00:00	7	Dirección del viento	4.83
143039	7	Sololá	719	Santiago Atitlán	14	Cerro de Oro	4	Abril	2023-04-14T00:00:00	2024-11-08T06:00:00	1	Precipitación	0
143040	7	Sololá	719	Santiago Atitlán	14	Cerro de Oro	4	Abril	2023-04-14T00:00:00	2024-11-08T06:00:00	8	Radiación solar	1
143041	7	Sololá	719	Santiago Atitlán	14	Cerro de Oro	4	Abril	2023-04-14T00:00:00	2024-11-08T07:00:00	2	Temperatura media	16.2
143042	7	Sololá	719	Santiago Atitlán	14	Cerro de Oro	4	Abril	2023-04-14T00:00:00	2024-11-08T07:00:00	4	Temperatura máxima	16.9
143043	7	Sololá	719	Santiago Atitlán	14	Cerro de Oro	4	Abril	2023-04-14T00:00:00	2024-11-08T07:00:00	3	Temperatura mínima	16.1
143044	7	Sololá	719	Santiago Atitlán	14	Cerro de Oro	4	Abril	2023-04-14T00:00:00	2024-11-08T07:00:00	5	Humedad	76
143045	7	Sololá	719	Santiago Atitlán	14	Cerro de Oro	4	Abril	2023-04-14T00:00:00	2024-11-08T07:00:00	6	Velocidad del viento	4.8
143046	7	Sololá	719	Santiago Atitlán	14	Cerro de Oro	4	Abril	2023-04-14T00:00:00	2024-11-08T07:00:00	7	Dirección del viento	4.83
143047	7	Sololá	719	Santiago Atitlán	14	Cerro de Oro	4	Abril	2023-04-14T00:00:00	2024-11-08T07:00:00	1	Precipitación	0
143048	7	Sololá	719	Santiago Atitlán	14	Cerro de Oro	4	Abril	2023-04-14T00:00:00	2024-11-08T07:00:00	8	Radiación solar	73
143049	7	Sololá	719	Santiago Atitlán	14	Cerro de Oro	4	Abril	2023-04-14T00:00:00	2024-11-08T08:00:00	2	Temperatura media	18.2
143050	7	Sololá	719	Santiago Atitlán	14	Cerro de Oro	4	Abril	2023-04-14T00:00:00	2024-11-08T08:00:00	4	Temperatura máxima	18.2
143051	7	Sololá	719	Santiago Atitlán	14	Cerro de Oro	4	Abril	2023-04-14T00:00:00	2024-11-08T08:00:00	3	Temperatura mínima	15.9
143052	7	Sololá	719	Santiago Atitlán	14	Cerro de Oro	4	Abril	2023-04-14T00:00:00	2024-11-08T08:00:00	5	Humedad	71
143053	7	Sololá	719	Santiago Atitlán	14	Cerro de Oro	4	Abril	2023-04-14T00:00:00	2024-11-08T08:00:00	6	Velocidad del viento	3.2
143054	7	Sololá	719	Santiago Atitlán	14	Cerro de Oro	4	Abril	2023-04-14T00:00:00	2024-11-08T08:00:00	7	Dirección del viento	3.22
143055	7	Sololá	719	Santiago Atitlán	14	Cerro de Oro	4	Abril	2023-04-14T00:00:00	2024-11-08T08:00:00	1	Precipitación	0
143056	7	Sololá	719	Santiago Atitlán	14	Cerro de Oro	4	Abril	2023-04-14T00:00:00	2024-11-08T08:00:00	8	Radiación solar	264
143057	7	Sololá	719	Santiago Atitlán	14	Cerro de Oro	4	Abril	2023-04-14T00:00:00	2024-11-08T09:00:00	2	Temperatura media	19.8
143058	7	Sololá	719	Santiago Atitlán	14	Cerro de Oro	4	Abril	2023-04-14T00:00:00	2024-11-08T09:00:00	4	Temperatura máxima	19.9
143059	7	Sololá	719	Santiago Atitlán	14	Cerro de Oro	4	Abril	2023-04-14T00:00:00	2024-11-08T09:00:00	3	Temperatura mínima	18.1
143060	7	Sololá	719	Santiago Atitlán	14	Cerro de Oro	4	Abril	2023-04-14T00:00:00	2024-11-08T09:00:00	5	Humedad	67
143061	7	Sololá	719	Santiago Atitlán	14	Cerro de Oro	4	Abril	2023-04-14T00:00:00	2024-11-08T09:00:00	6	Velocidad del viento	3.2
143062	7	Sololá	719	Santiago Atitlán	14	Cerro de Oro	4	Abril	2023-04-14T00:00:00	2024-11-08T09:00:00	7	Dirección del viento	3.22
143063	7	Sololá	719	Santiago Atitlán	14	Cerro de Oro	4	Abril	2023-04-14T00:00:00	2024-11-08T09:00:00	1	Precipitación	0
143064	7	Sololá	719	Santiago Atitlán	14	Cerro de Oro	4	Abril	2023-04-14T00:00:00	2024-11-08T09:00:00	8	Radiación solar	459
143065	7	Sololá	719	Santiago Atitlán	14	Cerro de Oro	4	Abril	2023-04-14T00:00:00	2024-11-08T10:00:00	2	Temperatura media	20.8
143066	7	Sololá	719	Santiago Atitlán	14	Cerro de Oro	4	Abril	2023-04-14T00:00:00	2024-11-08T10:00:00	4	Temperatura máxima	20.8
143067	7	Sololá	719	Santiago Atitlán	14	Cerro de Oro	4	Abril	2023-04-14T00:00:00	2024-11-08T10:00:00	3	Temperatura mínima	19.7
143068	7	Sololá	719	Santiago Atitlán	14	Cerro de Oro	4	Abril	2023-04-14T00:00:00	2024-11-08T10:00:00	5	Humedad	66
143069	7	Sololá	719	Santiago Atitlán	14	Cerro de Oro	4	Abril	2023-04-14T00:00:00	2024-11-08T10:00:00	6	Velocidad del viento	4.8
143070	7	Sololá	719	Santiago Atitlán	14	Cerro de Oro	4	Abril	2023-04-14T00:00:00	2024-11-08T10:00:00	7	Dirección del viento	4.83
143071	7	Sololá	719	Santiago Atitlán	14	Cerro de Oro	4	Abril	2023-04-14T00:00:00	2024-11-08T10:00:00	1	Precipitación	0
143072	7	Sololá	719	Santiago Atitlán	14	Cerro de Oro	4	Abril	2023-04-14T00:00:00	2024-11-08T10:00:00	8	Radiación solar	556
143073	7	Sololá	719	Santiago Atitlán	14	Cerro de Oro	4	Abril	2023-04-14T00:00:00	2024-11-08T11:00:00	2	Temperatura media	21.6
143074	7	Sololá	719	Santiago Atitlán	14	Cerro de Oro	4	Abril	2023-04-14T00:00:00	2024-11-08T11:00:00	4	Temperatura máxima	21.8
143075	7	Sololá	719	Santiago Atitlán	14	Cerro de Oro	4	Abril	2023-04-14T00:00:00	2024-11-08T11:00:00	3	Temperatura mínima	20.8
143076	7	Sololá	719	Santiago Atitlán	14	Cerro de Oro	4	Abril	2023-04-14T00:00:00	2024-11-08T11:00:00	5	Humedad	68
143077	7	Sololá	719	Santiago Atitlán	14	Cerro de Oro	4	Abril	2023-04-14T00:00:00	2024-11-08T11:00:00	6	Velocidad del viento	6.4
143078	7	Sololá	719	Santiago Atitlán	14	Cerro de Oro	4	Abril	2023-04-14T00:00:00	2024-11-08T11:00:00	7	Dirección del viento	6.44
143079	7	Sololá	719	Santiago Atitlán	14	Cerro de Oro	4	Abril	2023-04-14T00:00:00	2024-11-08T11:00:00	1	Precipitación	0
143080	7	Sololá	719	Santiago Atitlán	14	Cerro de Oro	4	Abril	2023-04-14T00:00:00	2024-11-08T11:00:00	8	Radiación solar	796
143081	7	Sololá	719	Santiago Atitlán	14	Cerro de Oro	4	Abril	2023-04-14T00:00:00	2024-11-08T12:00:00	2	Temperatura media	23.2
143082	7	Sololá	719	Santiago Atitlán	14	Cerro de Oro	4	Abril	2023-04-14T00:00:00	2024-11-08T12:00:00	4	Temperatura máxima	23.4
143083	7	Sololá	719	Santiago Atitlán	14	Cerro de Oro	4	Abril	2023-04-14T00:00:00	2024-11-08T12:00:00	3	Temperatura mínima	21.6
143084	7	Sololá	719	Santiago Atitlán	14	Cerro de Oro	4	Abril	2023-04-14T00:00:00	2024-11-08T12:00:00	5	Humedad	57
143085	7	Sololá	719	Santiago Atitlán	14	Cerro de Oro	4	Abril	2023-04-14T00:00:00	2024-11-08T12:00:00	6	Velocidad del viento	6.4
143086	7	Sololá	719	Santiago Atitlán	14	Cerro de Oro	4	Abril	2023-04-14T00:00:00	2024-11-08T12:00:00	7	Dirección del viento	6.44
143087	7	Sololá	719	Santiago Atitlán	14	Cerro de Oro	4	Abril	2023-04-14T00:00:00	2024-11-08T12:00:00	1	Precipitación	0
143088	7	Sololá	719	Santiago Atitlán	14	Cerro de Oro	4	Abril	2023-04-14T00:00:00	2024-11-08T12:00:00	8	Radiación solar	894
143089	7	Sololá	719	Santiago Atitlán	14	Cerro de Oro	4	Abril	2023-04-14T00:00:00	2024-11-08T13:00:00	2	Temperatura media	23.7
143090	7	Sololá	719	Santiago Atitlán	14	Cerro de Oro	4	Abril	2023-04-14T00:00:00	2024-11-08T13:00:00	4	Temperatura máxima	24.3
143091	7	Sololá	719	Santiago Atitlán	14	Cerro de Oro	4	Abril	2023-04-14T00:00:00	2024-11-08T13:00:00	3	Temperatura mínima	23.2
143092	7	Sololá	719	Santiago Atitlán	14	Cerro de Oro	4	Abril	2023-04-14T00:00:00	2024-11-08T13:00:00	5	Humedad	59
143093	7	Sololá	719	Santiago Atitlán	14	Cerro de Oro	4	Abril	2023-04-14T00:00:00	2024-11-08T13:00:00	6	Velocidad del viento	12.9
143094	7	Sololá	719	Santiago Atitlán	14	Cerro de Oro	4	Abril	2023-04-14T00:00:00	2024-11-08T13:00:00	7	Dirección del viento	12.87
143095	7	Sololá	719	Santiago Atitlán	14	Cerro de Oro	4	Abril	2023-04-14T00:00:00	2024-11-08T13:00:00	1	Precipitación	0
143096	7	Sololá	719	Santiago Atitlán	14	Cerro de Oro	4	Abril	2023-04-14T00:00:00	2024-11-08T13:00:00	8	Radiación solar	907
143097	7	Sololá	719	Santiago Atitlán	14	Cerro de Oro	4	Abril	2023-04-14T00:00:00	2024-11-08T14:00:00	2	Temperatura media	23.6
143098	7	Sololá	719	Santiago Atitlán	14	Cerro de Oro	4	Abril	2023-04-14T00:00:00	2024-11-08T14:00:00	4	Temperatura máxima	24.3
143099	7	Sololá	719	Santiago Atitlán	14	Cerro de Oro	4	Abril	2023-04-14T00:00:00	2024-11-08T14:00:00	3	Temperatura mínima	23.5
143100	7	Sololá	719	Santiago Atitlán	14	Cerro de Oro	4	Abril	2023-04-14T00:00:00	2024-11-08T14:00:00	5	Humedad	65
143101	7	Sololá	719	Santiago Atitlán	14	Cerro de Oro	4	Abril	2023-04-14T00:00:00	2024-11-08T14:00:00	6	Velocidad del viento	16.1
143102	7	Sololá	719	Santiago Atitlán	14	Cerro de Oro	4	Abril	2023-04-14T00:00:00	2024-11-08T14:00:00	7	Dirección del viento	16.09
143103	7	Sololá	719	Santiago Atitlán	14	Cerro de Oro	4	Abril	2023-04-14T00:00:00	2024-11-08T14:00:00	1	Precipitación	0
143104	7	Sololá	719	Santiago Atitlán	14	Cerro de Oro	4	Abril	2023-04-14T00:00:00	2024-11-08T14:00:00	8	Radiación solar	844
143105	7	Sololá	719	Santiago Atitlán	14	Cerro de Oro	4	Abril	2023-04-14T00:00:00	2024-11-08T15:00:00	2	Temperatura media	23.7
143106	7	Sololá	719	Santiago Atitlán	14	Cerro de Oro	4	Abril	2023-04-14T00:00:00	2024-11-08T15:00:00	4	Temperatura máxima	23.9
143107	7	Sololá	719	Santiago Atitlán	14	Cerro de Oro	4	Abril	2023-04-14T00:00:00	2024-11-08T15:00:00	3	Temperatura mínima	23.3
143108	7	Sololá	719	Santiago Atitlán	14	Cerro de Oro	4	Abril	2023-04-14T00:00:00	2024-11-08T15:00:00	5	Humedad	65
143109	7	Sololá	719	Santiago Atitlán	14	Cerro de Oro	4	Abril	2023-04-14T00:00:00	2024-11-08T15:00:00	6	Velocidad del viento	14.5
143110	7	Sololá	719	Santiago Atitlán	14	Cerro de Oro	4	Abril	2023-04-14T00:00:00	2024-11-08T15:00:00	7	Dirección del viento	14.48
143111	7	Sololá	719	Santiago Atitlán	14	Cerro de Oro	4	Abril	2023-04-14T00:00:00	2024-11-08T15:00:00	1	Precipitación	0
143112	7	Sololá	719	Santiago Atitlán	14	Cerro de Oro	4	Abril	2023-04-14T00:00:00	2024-11-08T15:00:00	8	Radiación solar	603
143113	7	Sololá	719	Santiago Atitlán	14	Cerro de Oro	4	Abril	2023-04-14T00:00:00	2024-11-08T16:00:00	2	Temperatura media	23.4
143114	7	Sololá	719	Santiago Atitlán	14	Cerro de Oro	4	Abril	2023-04-14T00:00:00	2024-11-08T16:00:00	4	Temperatura máxima	23.8
143115	7	Sololá	719	Santiago Atitlán	14	Cerro de Oro	4	Abril	2023-04-14T00:00:00	2024-11-08T16:00:00	3	Temperatura mínima	22.9
143116	7	Sololá	719	Santiago Atitlán	14	Cerro de Oro	4	Abril	2023-04-14T00:00:00	2024-11-08T16:00:00	5	Humedad	67
143117	7	Sololá	719	Santiago Atitlán	14	Cerro de Oro	4	Abril	2023-04-14T00:00:00	2024-11-08T16:00:00	6	Velocidad del viento	12.9
143118	7	Sololá	719	Santiago Atitlán	14	Cerro de Oro	4	Abril	2023-04-14T00:00:00	2024-11-08T16:00:00	7	Dirección del viento	12.87
143119	7	Sololá	719	Santiago Atitlán	14	Cerro de Oro	4	Abril	2023-04-14T00:00:00	2024-11-08T16:00:00	1	Precipitación	0
143120	7	Sololá	719	Santiago Atitlán	14	Cerro de Oro	4	Abril	2023-04-14T00:00:00	2024-11-08T16:00:00	8	Radiación solar	309
143121	7	Sololá	719	Santiago Atitlán	14	Cerro de Oro	4	Abril	2023-04-14T00:00:00	2024-11-08T17:00:00	2	Temperatura media	22.4
143122	7	Sololá	719	Santiago Atitlán	14	Cerro de Oro	4	Abril	2023-04-14T00:00:00	2024-11-08T17:00:00	4	Temperatura máxima	23.6
143123	7	Sololá	719	Santiago Atitlán	14	Cerro de Oro	4	Abril	2023-04-14T00:00:00	2024-11-08T17:00:00	3	Temperatura mínima	22.4
143124	7	Sololá	719	Santiago Atitlán	14	Cerro de Oro	4	Abril	2023-04-14T00:00:00	2024-11-08T17:00:00	5	Humedad	70
143125	7	Sololá	719	Santiago Atitlán	14	Cerro de Oro	4	Abril	2023-04-14T00:00:00	2024-11-08T17:00:00	6	Velocidad del viento	11.3
143126	7	Sololá	719	Santiago Atitlán	14	Cerro de Oro	4	Abril	2023-04-14T00:00:00	2024-11-08T17:00:00	7	Dirección del viento	11.27
143127	7	Sololá	719	Santiago Atitlán	14	Cerro de Oro	4	Abril	2023-04-14T00:00:00	2024-11-08T17:00:00	1	Precipitación	0
143128	7	Sololá	719	Santiago Atitlán	14	Cerro de Oro	4	Abril	2023-04-14T00:00:00	2024-11-08T17:00:00	8	Radiación solar	72
143129	7	Sololá	719	Santiago Atitlán	14	Cerro de Oro	4	Abril	2023-04-14T00:00:00	2024-11-08T18:00:00	2	Temperatura media	21.4
143130	7	Sololá	719	Santiago Atitlán	14	Cerro de Oro	4	Abril	2023-04-14T00:00:00	2024-11-08T18:00:00	4	Temperatura máxima	22.4
143131	7	Sololá	719	Santiago Atitlán	14	Cerro de Oro	4	Abril	2023-04-14T00:00:00	2024-11-08T18:00:00	3	Temperatura mínima	21.3
143132	7	Sololá	719	Santiago Atitlán	14	Cerro de Oro	4	Abril	2023-04-14T00:00:00	2024-11-08T18:00:00	5	Humedad	77
143133	7	Sololá	719	Santiago Atitlán	14	Cerro de Oro	4	Abril	2023-04-14T00:00:00	2024-11-08T18:00:00	6	Velocidad del viento	9.7
143134	7	Sololá	719	Santiago Atitlán	14	Cerro de Oro	4	Abril	2023-04-14T00:00:00	2024-11-08T18:00:00	7	Dirección del viento	9.66
143135	7	Sololá	719	Santiago Atitlán	14	Cerro de Oro	4	Abril	2023-04-14T00:00:00	2024-11-08T18:00:00	1	Precipitación	0
143136	7	Sololá	719	Santiago Atitlán	14	Cerro de Oro	4	Abril	2023-04-14T00:00:00	2024-11-08T18:00:00	8	Radiación solar	40
143137	7	Sololá	719	Santiago Atitlán	14	Cerro de Oro	4	Abril	2023-04-14T00:00:00	2024-11-08T19:00:00	2	Temperatura media	20.8
143138	7	Sololá	719	Santiago Atitlán	14	Cerro de Oro	4	Abril	2023-04-14T00:00:00	2024-11-08T19:00:00	4	Temperatura máxima	21.4
143139	7	Sololá	719	Santiago Atitlán	14	Cerro de Oro	4	Abril	2023-04-14T00:00:00	2024-11-08T19:00:00	3	Temperatura mínima	20.8
143140	7	Sololá	719	Santiago Atitlán	14	Cerro de Oro	4	Abril	2023-04-14T00:00:00	2024-11-08T19:00:00	5	Humedad	82
143141	7	Sololá	719	Santiago Atitlán	14	Cerro de Oro	4	Abril	2023-04-14T00:00:00	2024-11-08T19:00:00	6	Velocidad del viento	6.4
143142	7	Sololá	719	Santiago Atitlán	14	Cerro de Oro	4	Abril	2023-04-14T00:00:00	2024-11-08T19:00:00	7	Dirección del viento	6.44
143143	7	Sololá	719	Santiago Atitlán	14	Cerro de Oro	4	Abril	2023-04-14T00:00:00	2024-11-08T19:00:00	1	Precipitación	0
143144	7	Sololá	719	Santiago Atitlán	14	Cerro de Oro	4	Abril	2023-04-14T00:00:00	2024-11-08T19:00:00	8	Radiación solar	0
143145	7	Sololá	719	Santiago Atitlán	14	Cerro de Oro	4	Abril	2023-04-14T00:00:00	2024-11-08T20:00:00	2	Temperatura media	20.3
143146	7	Sololá	719	Santiago Atitlán	14	Cerro de Oro	4	Abril	2023-04-14T00:00:00	2024-11-08T20:00:00	4	Temperatura máxima	20.9
143147	7	Sololá	719	Santiago Atitlán	14	Cerro de Oro	4	Abril	2023-04-14T00:00:00	2024-11-08T20:00:00	3	Temperatura mínima	20.3
143148	7	Sololá	719	Santiago Atitlán	14	Cerro de Oro	4	Abril	2023-04-14T00:00:00	2024-11-08T20:00:00	5	Humedad	85
143149	7	Sololá	719	Santiago Atitlán	14	Cerro de Oro	4	Abril	2023-04-14T00:00:00	2024-11-08T20:00:00	6	Velocidad del viento	3.2
143150	7	Sololá	719	Santiago Atitlán	14	Cerro de Oro	4	Abril	2023-04-14T00:00:00	2024-11-08T20:00:00	7	Dirección del viento	3.22
143151	7	Sololá	719	Santiago Atitlán	14	Cerro de Oro	4	Abril	2023-04-14T00:00:00	2024-11-08T20:00:00	1	Precipitación	0
143152	7	Sololá	719	Santiago Atitlán	14	Cerro de Oro	4	Abril	2023-04-14T00:00:00	2024-11-08T20:00:00	8	Radiación solar	0
143153	7	Sololá	719	Santiago Atitlán	14	Cerro de Oro	4	Abril	2023-04-14T00:00:00	2024-11-08T21:00:00	2	Temperatura media	19.5
143154	7	Sololá	719	Santiago Atitlán	14	Cerro de Oro	4	Abril	2023-04-14T00:00:00	2024-11-08T21:00:00	4	Temperatura máxima	20.3
143155	7	Sololá	719	Santiago Atitlán	14	Cerro de Oro	4	Abril	2023-04-14T00:00:00	2024-11-08T21:00:00	3	Temperatura mínima	19.5
143156	7	Sololá	719	Santiago Atitlán	14	Cerro de Oro	4	Abril	2023-04-14T00:00:00	2024-11-08T21:00:00	5	Humedad	85
143157	7	Sololá	719	Santiago Atitlán	14	Cerro de Oro	4	Abril	2023-04-14T00:00:00	2024-11-08T21:00:00	6	Velocidad del viento	4.8
143158	7	Sololá	719	Santiago Atitlán	14	Cerro de Oro	4	Abril	2023-04-14T00:00:00	2024-11-08T21:00:00	7	Dirección del viento	4.83
143159	7	Sololá	719	Santiago Atitlán	14	Cerro de Oro	4	Abril	2023-04-14T00:00:00	2024-11-08T21:00:00	1	Precipitación	0
143160	7	Sololá	719	Santiago Atitlán	14	Cerro de Oro	4	Abril	2023-04-14T00:00:00	2024-11-08T21:00:00	8	Radiación solar	0
143161	7	Sololá	719	Santiago Atitlán	14	Cerro de Oro	4	Abril	2023-04-14T00:00:00	2024-11-08T22:00:00	2	Temperatura media	19.3
143162	7	Sololá	719	Santiago Atitlán	14	Cerro de Oro	4	Abril	2023-04-14T00:00:00	2024-11-08T22:00:00	4	Temperatura máxima	19.5
143163	7	Sololá	719	Santiago Atitlán	14	Cerro de Oro	4	Abril	2023-04-14T00:00:00	2024-11-08T22:00:00	3	Temperatura mínima	19.1
143164	7	Sololá	719	Santiago Atitlán	14	Cerro de Oro	4	Abril	2023-04-14T00:00:00	2024-11-08T22:00:00	5	Humedad	84
143165	7	Sololá	719	Santiago Atitlán	14	Cerro de Oro	4	Abril	2023-04-14T00:00:00	2024-11-08T22:00:00	6	Velocidad del viento	6.4
143166	7	Sololá	719	Santiago Atitlán	14	Cerro de Oro	4	Abril	2023-04-14T00:00:00	2024-11-08T22:00:00	7	Dirección del viento	6.44
143167	7	Sololá	719	Santiago Atitlán	14	Cerro de Oro	4	Abril	2023-04-14T00:00:00	2024-11-08T22:00:00	1	Precipitación	0
143168	7	Sololá	719	Santiago Atitlán	14	Cerro de Oro	4	Abril	2023-04-14T00:00:00	2024-11-08T22:00:00	8	Radiación solar	0
143169	7	Sololá	719	Santiago Atitlán	14	Cerro de Oro	4	Abril	2023-04-14T00:00:00	2024-11-08T23:00:00	2	Temperatura media	18.8
143170	7	Sololá	719	Santiago Atitlán	14	Cerro de Oro	4	Abril	2023-04-14T00:00:00	2024-11-08T23:00:00	4	Temperatura máxima	19.3
143171	7	Sololá	719	Santiago Atitlán	14	Cerro de Oro	4	Abril	2023-04-14T00:00:00	2024-11-08T23:00:00	3	Temperatura mínima	18.8
143172	7	Sololá	719	Santiago Atitlán	14	Cerro de Oro	4	Abril	2023-04-14T00:00:00	2024-11-08T23:00:00	5	Humedad	85
143173	7	Sololá	719	Santiago Atitlán	14	Cerro de Oro	4	Abril	2023-04-14T00:00:00	2024-11-08T23:00:00	6	Velocidad del viento	3.2
143174	7	Sololá	719	Santiago Atitlán	14	Cerro de Oro	4	Abril	2023-04-14T00:00:00	2024-11-08T23:00:00	7	Dirección del viento	3.22
143175	7	Sololá	719	Santiago Atitlán	14	Cerro de Oro	4	Abril	2023-04-14T00:00:00	2024-11-08T23:00:00	1	Precipitación	0
143176	7	Sololá	719	Santiago Atitlán	14	Cerro de Oro	4	Abril	2023-04-14T00:00:00	2024-11-08T23:00:00	8	Radiación solar	0
143177	7	Sololá	719	Santiago Atitlán	14	Cerro de Oro	4	Abril	2023-04-15T00:00:00	2024-11-08T00:00:00	2	Temperatura media	18.9
143178	7	Sololá	719	Santiago Atitlán	14	Cerro de Oro	4	Abril	2023-04-15T00:00:00	2024-11-08T00:00:00	4	Temperatura máxima	19.3
143179	7	Sololá	719	Santiago Atitlán	14	Cerro de Oro	4	Abril	2023-04-15T00:00:00	2024-11-08T00:00:00	3	Temperatura mínima	18.8
143180	7	Sololá	719	Santiago Atitlán	14	Cerro de Oro	4	Abril	2023-04-15T00:00:00	2024-11-08T00:00:00	5	Humedad	86
143181	7	Sololá	719	Santiago Atitlán	14	Cerro de Oro	4	Abril	2023-04-15T00:00:00	2024-11-08T00:00:00	6	Velocidad del viento	4.8
143182	7	Sololá	719	Santiago Atitlán	14	Cerro de Oro	4	Abril	2023-04-15T00:00:00	2024-11-08T00:00:00	7	Dirección del viento	4.83
143183	7	Sololá	719	Santiago Atitlán	14	Cerro de Oro	4	Abril	2023-04-15T00:00:00	2024-11-08T00:00:00	1	Precipitación	0
143184	7	Sololá	719	Santiago Atitlán	14	Cerro de Oro	4	Abril	2023-04-15T00:00:00	2024-11-08T00:00:00	8	Radiación solar	0
143185	7	Sololá	719	Santiago Atitlán	14	Cerro de Oro	4	Abril	2023-04-15T00:00:00	2024-11-08T01:00:00	2	Temperatura media	18.8
143186	7	Sololá	719	Santiago Atitlán	14	Cerro de Oro	4	Abril	2023-04-15T00:00:00	2024-11-08T01:00:00	4	Temperatura máxima	18.9
143187	7	Sololá	719	Santiago Atitlán	14	Cerro de Oro	4	Abril	2023-04-15T00:00:00	2024-11-08T01:00:00	3	Temperatura mínima	18.5
143188	7	Sololá	719	Santiago Atitlán	14	Cerro de Oro	4	Abril	2023-04-15T00:00:00	2024-11-08T01:00:00	5	Humedad	86
143189	7	Sololá	719	Santiago Atitlán	14	Cerro de Oro	4	Abril	2023-04-15T00:00:00	2024-11-08T01:00:00	6	Velocidad del viento	4.8
143190	7	Sololá	719	Santiago Atitlán	14	Cerro de Oro	4	Abril	2023-04-15T00:00:00	2024-11-08T01:00:00	7	Dirección del viento	4.83
143191	7	Sololá	719	Santiago Atitlán	14	Cerro de Oro	4	Abril	2023-04-15T00:00:00	2024-11-08T01:00:00	1	Precipitación	0
143192	7	Sololá	719	Santiago Atitlán	14	Cerro de Oro	4	Abril	2023-04-15T00:00:00	2024-11-08T01:00:00	8	Radiación solar	0
143193	7	Sololá	719	Santiago Atitlán	14	Cerro de Oro	4	Abril	2023-04-15T00:00:00	2024-11-08T02:00:00	2	Temperatura media	18.3
143194	7	Sololá	719	Santiago Atitlán	14	Cerro de Oro	4	Abril	2023-04-15T00:00:00	2024-11-08T02:00:00	4	Temperatura máxima	19
143195	7	Sololá	719	Santiago Atitlán	14	Cerro de Oro	4	Abril	2023-04-15T00:00:00	2024-11-08T02:00:00	3	Temperatura mínima	18.3
143196	7	Sololá	719	Santiago Atitlán	14	Cerro de Oro	4	Abril	2023-04-15T00:00:00	2024-11-08T02:00:00	5	Humedad	88
143197	7	Sololá	719	Santiago Atitlán	14	Cerro de Oro	4	Abril	2023-04-15T00:00:00	2024-11-08T02:00:00	6	Velocidad del viento	4.8
143198	7	Sololá	719	Santiago Atitlán	14	Cerro de Oro	4	Abril	2023-04-15T00:00:00	2024-11-08T02:00:00	7	Dirección del viento	4.83
143199	7	Sololá	719	Santiago Atitlán	14	Cerro de Oro	4	Abril	2023-04-15T00:00:00	2024-11-08T02:00:00	1	Precipitación	0
143200	7	Sololá	719	Santiago Atitlán	14	Cerro de Oro	4	Abril	2023-04-15T00:00:00	2024-11-08T02:00:00	8	Radiación solar	0
143201	7	Sololá	719	Santiago Atitlán	14	Cerro de Oro	4	Abril	2023-04-15T00:00:00	2024-11-08T03:00:00	2	Temperatura media	17.8
143202	7	Sololá	719	Santiago Atitlán	14	Cerro de Oro	4	Abril	2023-04-15T00:00:00	2024-11-08T03:00:00	4	Temperatura máxima	18.3
143203	7	Sololá	719	Santiago Atitlán	14	Cerro de Oro	4	Abril	2023-04-15T00:00:00	2024-11-08T03:00:00	3	Temperatura mínima	17.8
143204	7	Sololá	719	Santiago Atitlán	14	Cerro de Oro	4	Abril	2023-04-15T00:00:00	2024-11-08T03:00:00	5	Humedad	89
143205	7	Sololá	719	Santiago Atitlán	14	Cerro de Oro	4	Abril	2023-04-15T00:00:00	2024-11-08T03:00:00	6	Velocidad del viento	3.2
143206	7	Sololá	719	Santiago Atitlán	14	Cerro de Oro	4	Abril	2023-04-15T00:00:00	2024-11-08T03:00:00	7	Dirección del viento	3.22
143207	7	Sololá	719	Santiago Atitlán	14	Cerro de Oro	4	Abril	2023-04-15T00:00:00	2024-11-08T03:00:00	1	Precipitación	0
143208	7	Sololá	719	Santiago Atitlán	14	Cerro de Oro	4	Abril	2023-04-15T00:00:00	2024-11-08T03:00:00	8	Radiación solar	0
143209	7	Sololá	719	Santiago Atitlán	14	Cerro de Oro	4	Abril	2023-04-15T00:00:00	2024-11-08T04:00:00	2	Temperatura media	17
143210	7	Sololá	719	Santiago Atitlán	14	Cerro de Oro	4	Abril	2023-04-15T00:00:00	2024-11-08T04:00:00	4	Temperatura máxima	17.8
143211	7	Sololá	719	Santiago Atitlán	14	Cerro de Oro	4	Abril	2023-04-15T00:00:00	2024-11-08T04:00:00	3	Temperatura mínima	17
143212	7	Sololá	719	Santiago Atitlán	14	Cerro de Oro	4	Abril	2023-04-15T00:00:00	2024-11-08T04:00:00	5	Humedad	89
143213	7	Sololá	719	Santiago Atitlán	14	Cerro de Oro	4	Abril	2023-04-15T00:00:00	2024-11-08T04:00:00	6	Velocidad del viento	1.6
143214	7	Sololá	719	Santiago Atitlán	14	Cerro de Oro	4	Abril	2023-04-15T00:00:00	2024-11-08T04:00:00	7	Dirección del viento	1.61
143215	7	Sololá	719	Santiago Atitlán	14	Cerro de Oro	4	Abril	2023-04-15T00:00:00	2024-11-08T04:00:00	1	Precipitación	0
143216	7	Sololá	719	Santiago Atitlán	14	Cerro de Oro	4	Abril	2023-04-15T00:00:00	2024-11-08T04:00:00	8	Radiación solar	0
143217	7	Sololá	719	Santiago Atitlán	14	Cerro de Oro	4	Abril	2023-04-15T00:00:00	2024-11-08T05:00:00	2	Temperatura media	17.2
143218	7	Sololá	719	Santiago Atitlán	14	Cerro de Oro	4	Abril	2023-04-15T00:00:00	2024-11-08T05:00:00	4	Temperatura máxima	17.2
143219	7	Sololá	719	Santiago Atitlán	14	Cerro de Oro	4	Abril	2023-04-15T00:00:00	2024-11-08T05:00:00	3	Temperatura mínima	16.8
143220	7	Sololá	719	Santiago Atitlán	14	Cerro de Oro	4	Abril	2023-04-15T00:00:00	2024-11-08T05:00:00	5	Humedad	89
143221	7	Sololá	719	Santiago Atitlán	14	Cerro de Oro	4	Abril	2023-04-15T00:00:00	2024-11-08T05:00:00	6	Velocidad del viento	4.8
143222	7	Sololá	719	Santiago Atitlán	14	Cerro de Oro	4	Abril	2023-04-15T00:00:00	2024-11-08T05:00:00	7	Dirección del viento	4.83
143223	7	Sololá	719	Santiago Atitlán	14	Cerro de Oro	4	Abril	2023-04-15T00:00:00	2024-11-08T05:00:00	1	Precipitación	0
143224	7	Sololá	719	Santiago Atitlán	14	Cerro de Oro	4	Abril	2023-04-15T00:00:00	2024-11-08T05:00:00	8	Radiación solar	0
143225	7	Sololá	719	Santiago Atitlán	14	Cerro de Oro	4	Abril	2023-04-15T00:00:00	2024-11-08T06:00:00	2	Temperatura media	17.5
143226	7	Sololá	719	Santiago Atitlán	14	Cerro de Oro	4	Abril	2023-04-15T00:00:00	2024-11-08T06:00:00	4	Temperatura máxima	17.5
143227	7	Sololá	719	Santiago Atitlán	14	Cerro de Oro	4	Abril	2023-04-15T00:00:00	2024-11-08T06:00:00	3	Temperatura mínima	17.1
143228	7	Sololá	719	Santiago Atitlán	14	Cerro de Oro	4	Abril	2023-04-15T00:00:00	2024-11-08T06:00:00	5	Humedad	87
143229	7	Sololá	719	Santiago Atitlán	14	Cerro de Oro	4	Abril	2023-04-15T00:00:00	2024-11-08T06:00:00	6	Velocidad del viento	3.2
143230	7	Sololá	719	Santiago Atitlán	14	Cerro de Oro	4	Abril	2023-04-15T00:00:00	2024-11-08T06:00:00	7	Dirección del viento	3.22
143231	7	Sololá	719	Santiago Atitlán	14	Cerro de Oro	4	Abril	2023-04-15T00:00:00	2024-11-08T06:00:00	1	Precipitación	0
143232	7	Sololá	719	Santiago Atitlán	14	Cerro de Oro	4	Abril	2023-04-15T00:00:00	2024-11-08T06:00:00	8	Radiación solar	1
143233	7	Sololá	719	Santiago Atitlán	14	Cerro de Oro	4	Abril	2023-04-15T00:00:00	2024-11-08T07:00:00	2	Temperatura media	17.4
143234	7	Sololá	719	Santiago Atitlán	14	Cerro de Oro	4	Abril	2023-04-15T00:00:00	2024-11-08T07:00:00	4	Temperatura máxima	17.5
143235	7	Sololá	719	Santiago Atitlán	14	Cerro de Oro	4	Abril	2023-04-15T00:00:00	2024-11-08T07:00:00	3	Temperatura mínima	17.2
143236	7	Sololá	719	Santiago Atitlán	14	Cerro de Oro	4	Abril	2023-04-15T00:00:00	2024-11-08T07:00:00	5	Humedad	84
143237	7	Sololá	719	Santiago Atitlán	14	Cerro de Oro	4	Abril	2023-04-15T00:00:00	2024-11-08T07:00:00	6	Velocidad del viento	3.2
143238	7	Sololá	719	Santiago Atitlán	14	Cerro de Oro	4	Abril	2023-04-15T00:00:00	2024-11-08T07:00:00	7	Dirección del viento	3.22
143239	7	Sololá	719	Santiago Atitlán	14	Cerro de Oro	4	Abril	2023-04-15T00:00:00	2024-11-08T07:00:00	1	Precipitación	0
143240	7	Sololá	719	Santiago Atitlán	14	Cerro de Oro	4	Abril	2023-04-15T00:00:00	2024-11-08T07:00:00	8	Radiación solar	63
143241	7	Sololá	719	Santiago Atitlán	14	Cerro de Oro	4	Abril	2023-04-15T00:00:00	2024-11-08T08:00:00	2	Temperatura media	18.6
143242	7	Sololá	719	Santiago Atitlán	14	Cerro de Oro	4	Abril	2023-04-15T00:00:00	2024-11-08T08:00:00	4	Temperatura máxima	18.6
143243	7	Sololá	719	Santiago Atitlán	14	Cerro de Oro	4	Abril	2023-04-15T00:00:00	2024-11-08T08:00:00	3	Temperatura mínima	17.3
143244	7	Sololá	719	Santiago Atitlán	14	Cerro de Oro	4	Abril	2023-04-15T00:00:00	2024-11-08T08:00:00	5	Humedad	79
143245	7	Sololá	719	Santiago Atitlán	14	Cerro de Oro	4	Abril	2023-04-15T00:00:00	2024-11-08T08:00:00	6	Velocidad del viento	3.2
143246	7	Sololá	719	Santiago Atitlán	14	Cerro de Oro	4	Abril	2023-04-15T00:00:00	2024-11-08T08:00:00	7	Dirección del viento	3.22
143247	7	Sololá	719	Santiago Atitlán	14	Cerro de Oro	4	Abril	2023-04-15T00:00:00	2024-11-08T08:00:00	1	Precipitación	0
143248	7	Sololá	719	Santiago Atitlán	14	Cerro de Oro	4	Abril	2023-04-15T00:00:00	2024-11-08T08:00:00	8	Radiación solar	234
143249	7	Sololá	719	Santiago Atitlán	14	Cerro de Oro	4	Abril	2023-04-15T00:00:00	2024-11-08T09:00:00	2	Temperatura media	20.4
143250	7	Sololá	719	Santiago Atitlán	14	Cerro de Oro	4	Abril	2023-04-15T00:00:00	2024-11-08T09:00:00	4	Temperatura máxima	20.5
143251	7	Sololá	719	Santiago Atitlán	14	Cerro de Oro	4	Abril	2023-04-15T00:00:00	2024-11-08T09:00:00	3	Temperatura mínima	18.6
143252	7	Sololá	719	Santiago Atitlán	14	Cerro de Oro	4	Abril	2023-04-15T00:00:00	2024-11-08T09:00:00	5	Humedad	74
143253	7	Sololá	719	Santiago Atitlán	14	Cerro de Oro	4	Abril	2023-04-15T00:00:00	2024-11-08T09:00:00	6	Velocidad del viento	3.2
143254	7	Sololá	719	Santiago Atitlán	14	Cerro de Oro	4	Abril	2023-04-15T00:00:00	2024-11-08T09:00:00	7	Dirección del viento	3.22
143255	7	Sololá	719	Santiago Atitlán	14	Cerro de Oro	4	Abril	2023-04-15T00:00:00	2024-11-08T09:00:00	1	Precipitación	0
143256	7	Sololá	719	Santiago Atitlán	14	Cerro de Oro	4	Abril	2023-04-15T00:00:00	2024-11-08T09:00:00	8	Radiación solar	437
143257	7	Sololá	719	Santiago Atitlán	14	Cerro de Oro	4	Abril	2023-04-15T00:00:00	2024-11-08T10:00:00	2	Temperatura media	20.8
143258	7	Sololá	719	Santiago Atitlán	14	Cerro de Oro	4	Abril	2023-04-15T00:00:00	2024-11-08T10:00:00	4	Temperatura máxima	20.9
143259	7	Sololá	719	Santiago Atitlán	14	Cerro de Oro	4	Abril	2023-04-15T00:00:00	2024-11-08T10:00:00	3	Temperatura mínima	20.2
143260	7	Sololá	719	Santiago Atitlán	14	Cerro de Oro	4	Abril	2023-04-15T00:00:00	2024-11-08T10:00:00	5	Humedad	75
143261	7	Sololá	719	Santiago Atitlán	14	Cerro de Oro	4	Abril	2023-04-15T00:00:00	2024-11-08T10:00:00	6	Velocidad del viento	4.8
143262	7	Sololá	719	Santiago Atitlán	14	Cerro de Oro	4	Abril	2023-04-15T00:00:00	2024-11-08T10:00:00	7	Dirección del viento	4.83
143263	7	Sololá	719	Santiago Atitlán	14	Cerro de Oro	4	Abril	2023-04-15T00:00:00	2024-11-08T10:00:00	1	Precipitación	0
143264	7	Sololá	719	Santiago Atitlán	14	Cerro de Oro	4	Abril	2023-04-15T00:00:00	2024-11-08T10:00:00	8	Radiación solar	570
143265	7	Sololá	719	Santiago Atitlán	14	Cerro de Oro	4	Abril	2023-04-15T00:00:00	2024-11-08T11:00:00	2	Temperatura media	22.8
143266	7	Sololá	719	Santiago Atitlán	14	Cerro de Oro	4	Abril	2023-04-15T00:00:00	2024-11-08T11:00:00	4	Temperatura máxima	22.8
143267	7	Sololá	719	Santiago Atitlán	14	Cerro de Oro	4	Abril	2023-04-15T00:00:00	2024-11-08T11:00:00	3	Temperatura mínima	20.8
143268	7	Sololá	719	Santiago Atitlán	14	Cerro de Oro	4	Abril	2023-04-15T00:00:00	2024-11-08T11:00:00	5	Humedad	70
143269	7	Sololá	719	Santiago Atitlán	14	Cerro de Oro	4	Abril	2023-04-15T00:00:00	2024-11-08T11:00:00	6	Velocidad del viento	6.4
143270	7	Sololá	719	Santiago Atitlán	14	Cerro de Oro	4	Abril	2023-04-15T00:00:00	2024-11-08T11:00:00	7	Dirección del viento	6.44
143271	7	Sololá	719	Santiago Atitlán	14	Cerro de Oro	4	Abril	2023-04-15T00:00:00	2024-11-08T11:00:00	1	Precipitación	0
143272	7	Sololá	719	Santiago Atitlán	14	Cerro de Oro	4	Abril	2023-04-15T00:00:00	2024-11-08T11:00:00	8	Radiación solar	800
143273	7	Sololá	719	Santiago Atitlán	14	Cerro de Oro	4	Abril	2023-04-15T00:00:00	2024-11-08T12:00:00	2	Temperatura media	24.1
143274	7	Sololá	719	Santiago Atitlán	14	Cerro de Oro	4	Abril	2023-04-15T00:00:00	2024-11-08T12:00:00	4	Temperatura máxima	24.1
143275	7	Sololá	719	Santiago Atitlán	14	Cerro de Oro	4	Abril	2023-04-15T00:00:00	2024-11-08T12:00:00	3	Temperatura mínima	22.8
143276	7	Sololá	719	Santiago Atitlán	14	Cerro de Oro	4	Abril	2023-04-15T00:00:00	2024-11-08T12:00:00	5	Humedad	67
143277	7	Sololá	719	Santiago Atitlán	14	Cerro de Oro	4	Abril	2023-04-15T00:00:00	2024-11-08T12:00:00	6	Velocidad del viento	9.7
143278	7	Sololá	719	Santiago Atitlán	14	Cerro de Oro	4	Abril	2023-04-15T00:00:00	2024-11-08T12:00:00	7	Dirección del viento	9.66
143279	7	Sololá	719	Santiago Atitlán	14	Cerro de Oro	4	Abril	2023-04-15T00:00:00	2024-11-08T12:00:00	1	Precipitación	0
143280	7	Sololá	719	Santiago Atitlán	14	Cerro de Oro	4	Abril	2023-04-15T00:00:00	2024-11-08T12:00:00	8	Radiación solar	938
143281	7	Sololá	719	Santiago Atitlán	14	Cerro de Oro	4	Abril	2023-04-15T00:00:00	2024-11-08T13:00:00	2	Temperatura media	23.6
143282	7	Sololá	719	Santiago Atitlán	14	Cerro de Oro	4	Abril	2023-04-15T00:00:00	2024-11-08T13:00:00	4	Temperatura máxima	24.1
143283	7	Sololá	719	Santiago Atitlán	14	Cerro de Oro	4	Abril	2023-04-15T00:00:00	2024-11-08T13:00:00	3	Temperatura mínima	23.2
143284	7	Sololá	719	Santiago Atitlán	14	Cerro de Oro	4	Abril	2023-04-15T00:00:00	2024-11-08T13:00:00	5	Humedad	71
143285	7	Sololá	719	Santiago Atitlán	14	Cerro de Oro	4	Abril	2023-04-15T00:00:00	2024-11-08T13:00:00	6	Velocidad del viento	12.9
143286	7	Sololá	719	Santiago Atitlán	14	Cerro de Oro	4	Abril	2023-04-15T00:00:00	2024-11-08T13:00:00	7	Dirección del viento	12.87
143287	7	Sololá	719	Santiago Atitlán	14	Cerro de Oro	4	Abril	2023-04-15T00:00:00	2024-11-08T13:00:00	1	Precipitación	0
143288	7	Sololá	719	Santiago Atitlán	14	Cerro de Oro	4	Abril	2023-04-15T00:00:00	2024-11-08T13:00:00	8	Radiación solar	600
143289	7	Sololá	719	Santiago Atitlán	14	Cerro de Oro	4	Abril	2023-04-15T00:00:00	2024-11-08T14:00:00	2	Temperatura media	23.2
143290	7	Sololá	719	Santiago Atitlán	14	Cerro de Oro	4	Abril	2023-04-15T00:00:00	2024-11-08T14:00:00	4	Temperatura máxima	23.7
143291	7	Sololá	719	Santiago Atitlán	14	Cerro de Oro	4	Abril	2023-04-15T00:00:00	2024-11-08T14:00:00	3	Temperatura mínima	23.2
143292	7	Sololá	719	Santiago Atitlán	14	Cerro de Oro	4	Abril	2023-04-15T00:00:00	2024-11-08T14:00:00	5	Humedad	69
143293	7	Sololá	719	Santiago Atitlán	14	Cerro de Oro	4	Abril	2023-04-15T00:00:00	2024-11-08T14:00:00	6	Velocidad del viento	12.9
143294	7	Sololá	719	Santiago Atitlán	14	Cerro de Oro	4	Abril	2023-04-15T00:00:00	2024-11-08T14:00:00	7	Dirección del viento	12.87
143295	7	Sololá	719	Santiago Atitlán	14	Cerro de Oro	4	Abril	2023-04-15T00:00:00	2024-11-08T14:00:00	1	Precipitación	0
143296	7	Sololá	719	Santiago Atitlán	14	Cerro de Oro	4	Abril	2023-04-15T00:00:00	2024-11-08T14:00:00	8	Radiación solar	417
143297	7	Sololá	719	Santiago Atitlán	14	Cerro de Oro	4	Abril	2023-04-15T00:00:00	2024-11-08T15:00:00	2	Temperatura media	22.3
143298	7	Sololá	719	Santiago Atitlán	14	Cerro de Oro	4	Abril	2023-04-15T00:00:00	2024-11-08T15:00:00	4	Temperatura máxima	23.4
143299	7	Sololá	719	Santiago Atitlán	14	Cerro de Oro	4	Abril	2023-04-15T00:00:00	2024-11-08T15:00:00	3	Temperatura mínima	22.3
143300	7	Sololá	719	Santiago Atitlán	14	Cerro de Oro	4	Abril	2023-04-15T00:00:00	2024-11-08T15:00:00	5	Humedad	76
143301	7	Sololá	719	Santiago Atitlán	14	Cerro de Oro	4	Abril	2023-04-15T00:00:00	2024-11-08T15:00:00	6	Velocidad del viento	12.9
143302	7	Sololá	719	Santiago Atitlán	14	Cerro de Oro	4	Abril	2023-04-15T00:00:00	2024-11-08T15:00:00	7	Dirección del viento	12.87
143303	7	Sololá	719	Santiago Atitlán	14	Cerro de Oro	4	Abril	2023-04-15T00:00:00	2024-11-08T15:00:00	1	Precipitación	0
143304	7	Sololá	719	Santiago Atitlán	14	Cerro de Oro	4	Abril	2023-04-15T00:00:00	2024-11-08T15:00:00	8	Radiación solar	241
143305	7	Sololá	719	Santiago Atitlán	14	Cerro de Oro	4	Abril	2023-04-15T00:00:00	2024-11-08T16:00:00	2	Temperatura media	21.5
143306	7	Sololá	719	Santiago Atitlán	14	Cerro de Oro	4	Abril	2023-04-15T00:00:00	2024-11-08T16:00:00	4	Temperatura máxima	22.6
143307	7	Sololá	719	Santiago Atitlán	14	Cerro de Oro	4	Abril	2023-04-15T00:00:00	2024-11-08T16:00:00	3	Temperatura mínima	21.2
143308	7	Sololá	719	Santiago Atitlán	14	Cerro de Oro	4	Abril	2023-04-15T00:00:00	2024-11-08T16:00:00	5	Humedad	80
143309	7	Sololá	719	Santiago Atitlán	14	Cerro de Oro	4	Abril	2023-04-15T00:00:00	2024-11-08T16:00:00	6	Velocidad del viento	12.9
143310	7	Sololá	719	Santiago Atitlán	14	Cerro de Oro	4	Abril	2023-04-15T00:00:00	2024-11-08T16:00:00	7	Dirección del viento	12.87
143311	7	Sololá	719	Santiago Atitlán	14	Cerro de Oro	4	Abril	2023-04-15T00:00:00	2024-11-08T16:00:00	1	Precipitación	0
143312	7	Sololá	719	Santiago Atitlán	14	Cerro de Oro	4	Abril	2023-04-15T00:00:00	2024-11-08T16:00:00	8	Radiación solar	172
143313	7	Sololá	719	Santiago Atitlán	14	Cerro de Oro	4	Abril	2023-04-15T00:00:00	2024-11-08T17:00:00	2	Temperatura media	21.1
143314	7	Sololá	719	Santiago Atitlán	14	Cerro de Oro	4	Abril	2023-04-15T00:00:00	2024-11-08T17:00:00	4	Temperatura máxima	21.8
143315	7	Sololá	719	Santiago Atitlán	14	Cerro de Oro	4	Abril	2023-04-15T00:00:00	2024-11-08T17:00:00	3	Temperatura mínima	21.1
143316	7	Sololá	719	Santiago Atitlán	14	Cerro de Oro	4	Abril	2023-04-15T00:00:00	2024-11-08T17:00:00	5	Humedad	80
143317	7	Sololá	719	Santiago Atitlán	14	Cerro de Oro	4	Abril	2023-04-15T00:00:00	2024-11-08T17:00:00	6	Velocidad del viento	11.3
143318	7	Sololá	719	Santiago Atitlán	14	Cerro de Oro	4	Abril	2023-04-15T00:00:00	2024-11-08T17:00:00	7	Dirección del viento	11.27
143319	7	Sololá	719	Santiago Atitlán	14	Cerro de Oro	4	Abril	2023-04-15T00:00:00	2024-11-08T17:00:00	1	Precipitación	0
143320	7	Sololá	719	Santiago Atitlán	14	Cerro de Oro	4	Abril	2023-04-15T00:00:00	2024-11-08T17:00:00	8	Radiación solar	93
143321	7	Sololá	719	Santiago Atitlán	14	Cerro de Oro	4	Abril	2023-04-15T00:00:00	2024-11-08T18:00:00	2	Temperatura media	20.7
143322	7	Sololá	719	Santiago Atitlán	14	Cerro de Oro	4	Abril	2023-04-15T00:00:00	2024-11-08T18:00:00	4	Temperatura máxima	21.4
143323	7	Sololá	719	Santiago Atitlán	14	Cerro de Oro	4	Abril	2023-04-15T00:00:00	2024-11-08T18:00:00	3	Temperatura mínima	20.7
143324	7	Sololá	719	Santiago Atitlán	14	Cerro de Oro	4	Abril	2023-04-15T00:00:00	2024-11-08T18:00:00	5	Humedad	83
143325	7	Sololá	719	Santiago Atitlán	14	Cerro de Oro	4	Abril	2023-04-15T00:00:00	2024-11-08T18:00:00	6	Velocidad del viento	8
143326	7	Sololá	719	Santiago Atitlán	14	Cerro de Oro	4	Abril	2023-04-15T00:00:00	2024-11-08T18:00:00	7	Dirección del viento	8.05
143327	7	Sololá	719	Santiago Atitlán	14	Cerro de Oro	4	Abril	2023-04-15T00:00:00	2024-11-08T18:00:00	1	Precipitación	0
143328	7	Sololá	719	Santiago Atitlán	14	Cerro de Oro	4	Abril	2023-04-15T00:00:00	2024-11-08T18:00:00	8	Radiación solar	12
143329	7	Sololá	719	Santiago Atitlán	14	Cerro de Oro	4	Abril	2023-04-15T00:00:00	2024-11-08T19:00:00	2	Temperatura media	20.2
143330	7	Sololá	719	Santiago Atitlán	14	Cerro de Oro	4	Abril	2023-04-15T00:00:00	2024-11-08T19:00:00	4	Temperatura máxima	20.8
143331	7	Sololá	719	Santiago Atitlán	14	Cerro de Oro	4	Abril	2023-04-15T00:00:00	2024-11-08T19:00:00	3	Temperatura mínima	20.1
143332	7	Sololá	719	Santiago Atitlán	14	Cerro de Oro	4	Abril	2023-04-15T00:00:00	2024-11-08T19:00:00	5	Humedad	86
143333	7	Sololá	719	Santiago Atitlán	14	Cerro de Oro	4	Abril	2023-04-15T00:00:00	2024-11-08T19:00:00	6	Velocidad del viento	6.4
143334	7	Sololá	719	Santiago Atitlán	14	Cerro de Oro	4	Abril	2023-04-15T00:00:00	2024-11-08T19:00:00	7	Dirección del viento	6.44
143335	7	Sololá	719	Santiago Atitlán	14	Cerro de Oro	4	Abril	2023-04-15T00:00:00	2024-11-08T19:00:00	1	Precipitación	0
143336	7	Sololá	719	Santiago Atitlán	14	Cerro de Oro	4	Abril	2023-04-15T00:00:00	2024-11-08T19:00:00	8	Radiación solar	0
143337	7	Sololá	719	Santiago Atitlán	14	Cerro de Oro	4	Abril	2023-04-15T00:00:00	2024-11-08T20:00:00	2	Temperatura media	20.3
143338	7	Sololá	719	Santiago Atitlán	14	Cerro de Oro	4	Abril	2023-04-15T00:00:00	2024-11-08T20:00:00	4	Temperatura máxima	20.4
143339	7	Sololá	719	Santiago Atitlán	14	Cerro de Oro	4	Abril	2023-04-15T00:00:00	2024-11-08T20:00:00	3	Temperatura mínima	20.1
143340	7	Sololá	719	Santiago Atitlán	14	Cerro de Oro	4	Abril	2023-04-15T00:00:00	2024-11-08T20:00:00	5	Humedad	85
143341	7	Sololá	719	Santiago Atitlán	14	Cerro de Oro	4	Abril	2023-04-15T00:00:00	2024-11-08T20:00:00	6	Velocidad del viento	3.2
143342	7	Sololá	719	Santiago Atitlán	14	Cerro de Oro	4	Abril	2023-04-15T00:00:00	2024-11-08T20:00:00	7	Dirección del viento	3.22
143343	7	Sololá	719	Santiago Atitlán	14	Cerro de Oro	4	Abril	2023-04-15T00:00:00	2024-11-08T20:00:00	1	Precipitación	0
143344	7	Sololá	719	Santiago Atitlán	14	Cerro de Oro	4	Abril	2023-04-15T00:00:00	2024-11-08T20:00:00	8	Radiación solar	0
143345	7	Sololá	719	Santiago Atitlán	14	Cerro de Oro	4	Abril	2023-04-15T00:00:00	2024-11-08T21:00:00	2	Temperatura media	20.1
143346	7	Sololá	719	Santiago Atitlán	14	Cerro de Oro	4	Abril	2023-04-15T00:00:00	2024-11-08T21:00:00	4	Temperatura máxima	20.4
143347	7	Sololá	719	Santiago Atitlán	14	Cerro de Oro	4	Abril	2023-04-15T00:00:00	2024-11-08T21:00:00	3	Temperatura mínima	20
143348	7	Sololá	719	Santiago Atitlán	14	Cerro de Oro	4	Abril	2023-04-15T00:00:00	2024-11-08T21:00:00	5	Humedad	85
143349	7	Sololá	719	Santiago Atitlán	14	Cerro de Oro	4	Abril	2023-04-15T00:00:00	2024-11-08T21:00:00	6	Velocidad del viento	3.2
143350	7	Sololá	719	Santiago Atitlán	14	Cerro de Oro	4	Abril	2023-04-15T00:00:00	2024-11-08T21:00:00	7	Dirección del viento	3.22
143351	7	Sololá	719	Santiago Atitlán	14	Cerro de Oro	4	Abril	2023-04-15T00:00:00	2024-11-08T21:00:00	1	Precipitación	0
143352	7	Sololá	719	Santiago Atitlán	14	Cerro de Oro	4	Abril	2023-04-15T00:00:00	2024-11-08T21:00:00	8	Radiación solar	0
143353	7	Sololá	719	Santiago Atitlán	14	Cerro de Oro	4	Abril	2023-04-15T00:00:00	2024-11-08T22:00:00	2	Temperatura media	19.7
143354	7	Sololá	719	Santiago Atitlán	14	Cerro de Oro	4	Abril	2023-04-15T00:00:00	2024-11-08T22:00:00	4	Temperatura máxima	20.2
143355	7	Sololá	719	Santiago Atitlán	14	Cerro de Oro	4	Abril	2023-04-15T00:00:00	2024-11-08T22:00:00	3	Temperatura mínima	19.6
143356	7	Sololá	719	Santiago Atitlán	14	Cerro de Oro	4	Abril	2023-04-15T00:00:00	2024-11-08T22:00:00	5	Humedad	85
143357	7	Sololá	719	Santiago Atitlán	14	Cerro de Oro	4	Abril	2023-04-15T00:00:00	2024-11-08T22:00:00	6	Velocidad del viento	1.6
143358	7	Sololá	719	Santiago Atitlán	14	Cerro de Oro	4	Abril	2023-04-15T00:00:00	2024-11-08T22:00:00	7	Dirección del viento	1.61
143359	7	Sololá	719	Santiago Atitlán	14	Cerro de Oro	4	Abril	2023-04-15T00:00:00	2024-11-08T22:00:00	1	Precipitación	0
143360	7	Sololá	719	Santiago Atitlán	14	Cerro de Oro	4	Abril	2023-04-15T00:00:00	2024-11-08T22:00:00	8	Radiación solar	0
143361	7	Sololá	719	Santiago Atitlán	14	Cerro de Oro	4	Abril	2023-04-15T00:00:00	2024-11-08T23:00:00	2	Temperatura media	19.3
143362	7	Sololá	719	Santiago Atitlán	14	Cerro de Oro	4	Abril	2023-04-15T00:00:00	2024-11-08T23:00:00	4	Temperatura máxima	19.6
143363	7	Sololá	719	Santiago Atitlán	14	Cerro de Oro	4	Abril	2023-04-15T00:00:00	2024-11-08T23:00:00	3	Temperatura mínima	19.1
143364	7	Sololá	719	Santiago Atitlán	14	Cerro de Oro	4	Abril	2023-04-15T00:00:00	2024-11-08T23:00:00	5	Humedad	87
143365	7	Sololá	719	Santiago Atitlán	14	Cerro de Oro	4	Abril	2023-04-15T00:00:00	2024-11-08T23:00:00	6	Velocidad del viento	1.6
143366	7	Sololá	719	Santiago Atitlán	14	Cerro de Oro	4	Abril	2023-04-15T00:00:00	2024-11-08T23:00:00	7	Dirección del viento	1.61
143367	7	Sololá	719	Santiago Atitlán	14	Cerro de Oro	4	Abril	2023-04-15T00:00:00	2024-11-08T23:00:00	1	Precipitación	0
143368	7	Sololá	719	Santiago Atitlán	14	Cerro de Oro	4	Abril	2023-04-15T00:00:00	2024-11-08T23:00:00	8	Radiación solar	0
143369	7	Sololá	719	Santiago Atitlán	14	Cerro de Oro	4	Abril	2023-04-16T00:00:00	2024-11-08T00:00:00	2	Temperatura media	18.8
143370	7	Sololá	719	Santiago Atitlán	14	Cerro de Oro	4	Abril	2023-04-16T00:00:00	2024-11-08T00:00:00	4	Temperatura máxima	19.3
143371	7	Sololá	719	Santiago Atitlán	14	Cerro de Oro	4	Abril	2023-04-16T00:00:00	2024-11-08T00:00:00	3	Temperatura mínima	18.8
143372	7	Sololá	719	Santiago Atitlán	14	Cerro de Oro	4	Abril	2023-04-16T00:00:00	2024-11-08T00:00:00	5	Humedad	88
143373	7	Sololá	719	Santiago Atitlán	14	Cerro de Oro	4	Abril	2023-04-16T00:00:00	2024-11-08T00:00:00	6	Velocidad del viento	3.2
143374	7	Sololá	719	Santiago Atitlán	14	Cerro de Oro	4	Abril	2023-04-16T00:00:00	2024-11-08T00:00:00	7	Dirección del viento	3.22
143375	7	Sololá	719	Santiago Atitlán	14	Cerro de Oro	4	Abril	2023-04-16T00:00:00	2024-11-08T00:00:00	1	Precipitación	0
143376	7	Sololá	719	Santiago Atitlán	14	Cerro de Oro	4	Abril	2023-04-16T00:00:00	2024-11-08T00:00:00	8	Radiación solar	0
143377	7	Sololá	719	Santiago Atitlán	14	Cerro de Oro	4	Abril	2023-04-16T00:00:00	2024-11-08T01:00:00	2	Temperatura media	18.7
143378	7	Sololá	719	Santiago Atitlán	14	Cerro de Oro	4	Abril	2023-04-16T00:00:00	2024-11-08T01:00:00	4	Temperatura máxima	19.1
143379	7	Sololá	719	Santiago Atitlán	14	Cerro de Oro	4	Abril	2023-04-16T00:00:00	2024-11-08T01:00:00	3	Temperatura mínima	18.6
143380	7	Sololá	719	Santiago Atitlán	14	Cerro de Oro	4	Abril	2023-04-16T00:00:00	2024-11-08T01:00:00	5	Humedad	89
143381	7	Sololá	719	Santiago Atitlán	14	Cerro de Oro	4	Abril	2023-04-16T00:00:00	2024-11-08T01:00:00	6	Velocidad del viento	4.8
143382	7	Sololá	719	Santiago Atitlán	14	Cerro de Oro	4	Abril	2023-04-16T00:00:00	2024-11-08T01:00:00	7	Dirección del viento	4.83
143383	7	Sololá	719	Santiago Atitlán	14	Cerro de Oro	4	Abril	2023-04-16T00:00:00	2024-11-08T01:00:00	1	Precipitación	0
143384	7	Sololá	719	Santiago Atitlán	14	Cerro de Oro	4	Abril	2023-04-16T00:00:00	2024-11-08T01:00:00	8	Radiación solar	0
143385	7	Sololá	719	Santiago Atitlán	14	Cerro de Oro	4	Abril	2023-04-16T00:00:00	2024-11-08T02:00:00	2	Temperatura media	18.7
143386	7	Sololá	719	Santiago Atitlán	14	Cerro de Oro	4	Abril	2023-04-16T00:00:00	2024-11-08T02:00:00	4	Temperatura máxima	19
143387	7	Sololá	719	Santiago Atitlán	14	Cerro de Oro	4	Abril	2023-04-16T00:00:00	2024-11-08T02:00:00	3	Temperatura mínima	18.6
143388	7	Sololá	719	Santiago Atitlán	14	Cerro de Oro	4	Abril	2023-04-16T00:00:00	2024-11-08T02:00:00	5	Humedad	90
143389	7	Sololá	719	Santiago Atitlán	14	Cerro de Oro	4	Abril	2023-04-16T00:00:00	2024-11-08T02:00:00	6	Velocidad del viento	3.2
143390	7	Sololá	719	Santiago Atitlán	14	Cerro de Oro	4	Abril	2023-04-16T00:00:00	2024-11-08T02:00:00	7	Dirección del viento	3.22
143391	7	Sololá	719	Santiago Atitlán	14	Cerro de Oro	4	Abril	2023-04-16T00:00:00	2024-11-08T02:00:00	1	Precipitación	0
143392	7	Sololá	719	Santiago Atitlán	14	Cerro de Oro	4	Abril	2023-04-16T00:00:00	2024-11-08T02:00:00	8	Radiación solar	0
143393	7	Sololá	719	Santiago Atitlán	14	Cerro de Oro	4	Abril	2023-04-16T00:00:00	2024-11-08T03:00:00	2	Temperatura media	18.7
143394	7	Sololá	719	Santiago Atitlán	14	Cerro de Oro	4	Abril	2023-04-16T00:00:00	2024-11-08T03:00:00	4	Temperatura máxima	18.8
143395	7	Sololá	719	Santiago Atitlán	14	Cerro de Oro	4	Abril	2023-04-16T00:00:00	2024-11-08T03:00:00	3	Temperatura mínima	18.6
143396	7	Sololá	719	Santiago Atitlán	14	Cerro de Oro	4	Abril	2023-04-16T00:00:00	2024-11-08T03:00:00	5	Humedad	91
143397	7	Sololá	719	Santiago Atitlán	14	Cerro de Oro	4	Abril	2023-04-16T00:00:00	2024-11-08T03:00:00	6	Velocidad del viento	3.2
143398	7	Sololá	719	Santiago Atitlán	14	Cerro de Oro	4	Abril	2023-04-16T00:00:00	2024-11-08T03:00:00	7	Dirección del viento	3.22
143399	7	Sololá	719	Santiago Atitlán	14	Cerro de Oro	4	Abril	2023-04-16T00:00:00	2024-11-08T03:00:00	1	Precipitación	0
143400	7	Sololá	719	Santiago Atitlán	14	Cerro de Oro	4	Abril	2023-04-16T00:00:00	2024-11-08T03:00:00	8	Radiación solar	0
143401	7	Sololá	719	Santiago Atitlán	14	Cerro de Oro	4	Abril	2023-04-16T00:00:00	2024-11-08T04:00:00	2	Temperatura media	18.4
143402	7	Sololá	719	Santiago Atitlán	14	Cerro de Oro	4	Abril	2023-04-16T00:00:00	2024-11-08T04:00:00	4	Temperatura máxima	18.7
143403	7	Sololá	719	Santiago Atitlán	14	Cerro de Oro	4	Abril	2023-04-16T00:00:00	2024-11-08T04:00:00	3	Temperatura mínima	18.2
143404	7	Sololá	719	Santiago Atitlán	14	Cerro de Oro	4	Abril	2023-04-16T00:00:00	2024-11-08T04:00:00	5	Humedad	84
143405	7	Sololá	719	Santiago Atitlán	14	Cerro de Oro	4	Abril	2023-04-16T00:00:00	2024-11-08T04:00:00	6	Velocidad del viento	3.2
143406	7	Sololá	719	Santiago Atitlán	14	Cerro de Oro	4	Abril	2023-04-16T00:00:00	2024-11-08T04:00:00	7	Dirección del viento	3.22
143407	7	Sololá	719	Santiago Atitlán	14	Cerro de Oro	4	Abril	2023-04-16T00:00:00	2024-11-08T04:00:00	1	Precipitación	0
143408	7	Sololá	719	Santiago Atitlán	14	Cerro de Oro	4	Abril	2023-04-16T00:00:00	2024-11-08T04:00:00	8	Radiación solar	0
143409	7	Sololá	719	Santiago Atitlán	14	Cerro de Oro	4	Abril	2023-04-16T00:00:00	2024-11-08T05:00:00	2	Temperatura media	18.7
143410	7	Sololá	719	Santiago Atitlán	14	Cerro de Oro	4	Abril	2023-04-16T00:00:00	2024-11-08T05:00:00	4	Temperatura máxima	18.7
143411	7	Sololá	719	Santiago Atitlán	14	Cerro de Oro	4	Abril	2023-04-16T00:00:00	2024-11-08T05:00:00	3	Temperatura mínima	18.2
143412	7	Sololá	719	Santiago Atitlán	14	Cerro de Oro	4	Abril	2023-04-16T00:00:00	2024-11-08T05:00:00	5	Humedad	76
143413	7	Sololá	719	Santiago Atitlán	14	Cerro de Oro	4	Abril	2023-04-16T00:00:00	2024-11-08T05:00:00	6	Velocidad del viento	4.8
143414	7	Sololá	719	Santiago Atitlán	14	Cerro de Oro	4	Abril	2023-04-16T00:00:00	2024-11-08T05:00:00	7	Dirección del viento	4.83
143415	7	Sololá	719	Santiago Atitlán	14	Cerro de Oro	4	Abril	2023-04-16T00:00:00	2024-11-08T05:00:00	1	Precipitación	0
143416	7	Sololá	719	Santiago Atitlán	14	Cerro de Oro	4	Abril	2023-04-16T00:00:00	2024-11-08T05:00:00	8	Radiación solar	0
143417	7	Sololá	719	Santiago Atitlán	14	Cerro de Oro	4	Abril	2023-04-16T00:00:00	2024-11-08T06:00:00	2	Temperatura media	18.2
143418	7	Sololá	719	Santiago Atitlán	14	Cerro de Oro	4	Abril	2023-04-16T00:00:00	2024-11-08T06:00:00	4	Temperatura máxima	18.8
143419	7	Sololá	719	Santiago Atitlán	14	Cerro de Oro	4	Abril	2023-04-16T00:00:00	2024-11-08T06:00:00	3	Temperatura mínima	18.2
143420	7	Sololá	719	Santiago Atitlán	14	Cerro de Oro	4	Abril	2023-04-16T00:00:00	2024-11-08T06:00:00	5	Humedad	81
143421	7	Sololá	719	Santiago Atitlán	14	Cerro de Oro	4	Abril	2023-04-16T00:00:00	2024-11-08T06:00:00	6	Velocidad del viento	3.2
143422	7	Sololá	719	Santiago Atitlán	14	Cerro de Oro	4	Abril	2023-04-16T00:00:00	2024-11-08T06:00:00	7	Dirección del viento	3.22
143423	7	Sololá	719	Santiago Atitlán	14	Cerro de Oro	4	Abril	2023-04-16T00:00:00	2024-11-08T06:00:00	1	Precipitación	0
143424	7	Sololá	719	Santiago Atitlán	14	Cerro de Oro	4	Abril	2023-04-16T00:00:00	2024-11-08T06:00:00	8	Radiación solar	1
143425	7	Sololá	719	Santiago Atitlán	14	Cerro de Oro	4	Abril	2023-04-16T00:00:00	2024-11-08T07:00:00	2	Temperatura media	17.9
143426	7	Sololá	719	Santiago Atitlán	14	Cerro de Oro	4	Abril	2023-04-16T00:00:00	2024-11-08T07:00:00	4	Temperatura máxima	18.2
143427	7	Sololá	719	Santiago Atitlán	14	Cerro de Oro	4	Abril	2023-04-16T00:00:00	2024-11-08T07:00:00	3	Temperatura mínima	17.9
143428	7	Sololá	719	Santiago Atitlán	14	Cerro de Oro	4	Abril	2023-04-16T00:00:00	2024-11-08T07:00:00	5	Humedad	81
143429	7	Sololá	719	Santiago Atitlán	14	Cerro de Oro	4	Abril	2023-04-16T00:00:00	2024-11-08T07:00:00	6	Velocidad del viento	4.8
143430	7	Sololá	719	Santiago Atitlán	14	Cerro de Oro	4	Abril	2023-04-16T00:00:00	2024-11-08T07:00:00	7	Dirección del viento	4.83
143431	7	Sololá	719	Santiago Atitlán	14	Cerro de Oro	4	Abril	2023-04-16T00:00:00	2024-11-08T07:00:00	1	Precipitación	0
143432	7	Sololá	719	Santiago Atitlán	14	Cerro de Oro	4	Abril	2023-04-16T00:00:00	2024-11-08T07:00:00	8	Radiación solar	61
143433	7	Sololá	719	Santiago Atitlán	14	Cerro de Oro	4	Abril	2023-04-16T00:00:00	2024-11-08T08:00:00	2	Temperatura media	18.9
143434	7	Sololá	719	Santiago Atitlán	14	Cerro de Oro	4	Abril	2023-04-16T00:00:00	2024-11-08T08:00:00	4	Temperatura máxima	18.9
143435	7	Sololá	719	Santiago Atitlán	14	Cerro de Oro	4	Abril	2023-04-16T00:00:00	2024-11-08T08:00:00	3	Temperatura mínima	17.7
143436	7	Sololá	719	Santiago Atitlán	14	Cerro de Oro	4	Abril	2023-04-16T00:00:00	2024-11-08T08:00:00	5	Humedad	76
143437	7	Sololá	719	Santiago Atitlán	14	Cerro de Oro	4	Abril	2023-04-16T00:00:00	2024-11-08T08:00:00	6	Velocidad del viento	4.8
143438	7	Sololá	719	Santiago Atitlán	14	Cerro de Oro	4	Abril	2023-04-16T00:00:00	2024-11-08T08:00:00	7	Dirección del viento	4.83
143439	7	Sololá	719	Santiago Atitlán	14	Cerro de Oro	4	Abril	2023-04-16T00:00:00	2024-11-08T08:00:00	1	Precipitación	0
143440	7	Sololá	719	Santiago Atitlán	14	Cerro de Oro	4	Abril	2023-04-16T00:00:00	2024-11-08T08:00:00	8	Radiación solar	230
143441	7	Sololá	719	Santiago Atitlán	14	Cerro de Oro	4	Abril	2023-04-16T00:00:00	2024-11-08T09:00:00	2	Temperatura media	21.1
143442	7	Sololá	719	Santiago Atitlán	14	Cerro de Oro	4	Abril	2023-04-16T00:00:00	2024-11-08T09:00:00	4	Temperatura máxima	21.1
143443	7	Sololá	719	Santiago Atitlán	14	Cerro de Oro	4	Abril	2023-04-16T00:00:00	2024-11-08T09:00:00	3	Temperatura mínima	18.9
143444	7	Sololá	719	Santiago Atitlán	14	Cerro de Oro	4	Abril	2023-04-16T00:00:00	2024-11-08T09:00:00	5	Humedad	75
143445	7	Sololá	719	Santiago Atitlán	14	Cerro de Oro	4	Abril	2023-04-16T00:00:00	2024-11-08T09:00:00	6	Velocidad del viento	3.2
143446	7	Sololá	719	Santiago Atitlán	14	Cerro de Oro	4	Abril	2023-04-16T00:00:00	2024-11-08T09:00:00	7	Dirección del viento	3.22
143447	7	Sololá	719	Santiago Atitlán	14	Cerro de Oro	4	Abril	2023-04-16T00:00:00	2024-11-08T09:00:00	1	Precipitación	0
143448	7	Sololá	719	Santiago Atitlán	14	Cerro de Oro	4	Abril	2023-04-16T00:00:00	2024-11-08T09:00:00	8	Radiación solar	434
143449	7	Sololá	719	Santiago Atitlán	14	Cerro de Oro	4	Abril	2023-04-16T00:00:00	2024-11-08T10:00:00	2	Temperatura media	21.7
143450	7	Sololá	719	Santiago Atitlán	14	Cerro de Oro	4	Abril	2023-04-16T00:00:00	2024-11-08T10:00:00	4	Temperatura máxima	21.8
143451	7	Sololá	719	Santiago Atitlán	14	Cerro de Oro	4	Abril	2023-04-16T00:00:00	2024-11-08T10:00:00	3	Temperatura mínima	21.1
143452	7	Sololá	719	Santiago Atitlán	14	Cerro de Oro	4	Abril	2023-04-16T00:00:00	2024-11-08T10:00:00	5	Humedad	71
143453	7	Sololá	719	Santiago Atitlán	14	Cerro de Oro	4	Abril	2023-04-16T00:00:00	2024-11-08T10:00:00	6	Velocidad del viento	4.8
143454	7	Sololá	719	Santiago Atitlán	14	Cerro de Oro	4	Abril	2023-04-16T00:00:00	2024-11-08T10:00:00	7	Dirección del viento	4.83
143455	7	Sololá	719	Santiago Atitlán	14	Cerro de Oro	4	Abril	2023-04-16T00:00:00	2024-11-08T10:00:00	1	Precipitación	0
143456	7	Sololá	719	Santiago Atitlán	14	Cerro de Oro	4	Abril	2023-04-16T00:00:00	2024-11-08T10:00:00	8	Radiación solar	555
143457	7	Sololá	719	Santiago Atitlán	14	Cerro de Oro	4	Abril	2023-04-16T00:00:00	2024-11-08T11:00:00	2	Temperatura media	22.8
143458	7	Sololá	719	Santiago Atitlán	14	Cerro de Oro	4	Abril	2023-04-16T00:00:00	2024-11-08T11:00:00	4	Temperatura máxima	22.8
143459	7	Sololá	719	Santiago Atitlán	14	Cerro de Oro	4	Abril	2023-04-16T00:00:00	2024-11-08T11:00:00	3	Temperatura mínima	21.7
143460	7	Sololá	719	Santiago Atitlán	14	Cerro de Oro	4	Abril	2023-04-16T00:00:00	2024-11-08T11:00:00	5	Humedad	70
143461	7	Sololá	719	Santiago Atitlán	14	Cerro de Oro	4	Abril	2023-04-16T00:00:00	2024-11-08T11:00:00	6	Velocidad del viento	4.8
143462	7	Sololá	719	Santiago Atitlán	14	Cerro de Oro	4	Abril	2023-04-16T00:00:00	2024-11-08T11:00:00	7	Dirección del viento	4.83
143463	7	Sololá	719	Santiago Atitlán	14	Cerro de Oro	4	Abril	2023-04-16T00:00:00	2024-11-08T11:00:00	1	Precipitación	0
143464	7	Sololá	719	Santiago Atitlán	14	Cerro de Oro	4	Abril	2023-04-16T00:00:00	2024-11-08T11:00:00	8	Radiación solar	780
143465	7	Sololá	719	Santiago Atitlán	14	Cerro de Oro	4	Abril	2023-04-16T00:00:00	2024-11-08T12:00:00	2	Temperatura media	24.1
143466	7	Sololá	719	Santiago Atitlán	14	Cerro de Oro	4	Abril	2023-04-16T00:00:00	2024-11-08T12:00:00	4	Temperatura máxima	24.1
143467	7	Sololá	719	Santiago Atitlán	14	Cerro de Oro	4	Abril	2023-04-16T00:00:00	2024-11-08T12:00:00	3	Temperatura mínima	22.8
143468	7	Sololá	719	Santiago Atitlán	14	Cerro de Oro	4	Abril	2023-04-16T00:00:00	2024-11-08T12:00:00	5	Humedad	70
143469	7	Sololá	719	Santiago Atitlán	14	Cerro de Oro	4	Abril	2023-04-16T00:00:00	2024-11-08T12:00:00	6	Velocidad del viento	11.3
143470	7	Sololá	719	Santiago Atitlán	14	Cerro de Oro	4	Abril	2023-04-16T00:00:00	2024-11-08T12:00:00	7	Dirección del viento	11.27
143471	7	Sololá	719	Santiago Atitlán	14	Cerro de Oro	4	Abril	2023-04-16T00:00:00	2024-11-08T12:00:00	1	Precipitación	0
143472	7	Sololá	719	Santiago Atitlán	14	Cerro de Oro	4	Abril	2023-04-16T00:00:00	2024-11-08T12:00:00	8	Radiación solar	884
143473	7	Sololá	719	Santiago Atitlán	14	Cerro de Oro	4	Abril	2023-04-16T00:00:00	2024-11-08T13:00:00	2	Temperatura media	24
143474	7	Sololá	719	Santiago Atitlán	14	Cerro de Oro	4	Abril	2023-04-16T00:00:00	2024-11-08T13:00:00	4	Temperatura máxima	24.3
143475	7	Sololá	719	Santiago Atitlán	14	Cerro de Oro	4	Abril	2023-04-16T00:00:00	2024-11-08T13:00:00	3	Temperatura mínima	23.8
143476	7	Sololá	719	Santiago Atitlán	14	Cerro de Oro	4	Abril	2023-04-16T00:00:00	2024-11-08T13:00:00	5	Humedad	69
143477	7	Sololá	719	Santiago Atitlán	14	Cerro de Oro	4	Abril	2023-04-16T00:00:00	2024-11-08T13:00:00	6	Velocidad del viento	12.9
143478	7	Sololá	719	Santiago Atitlán	14	Cerro de Oro	4	Abril	2023-04-16T00:00:00	2024-11-08T13:00:00	7	Dirección del viento	12.87
143479	7	Sololá	719	Santiago Atitlán	14	Cerro de Oro	4	Abril	2023-04-16T00:00:00	2024-11-08T13:00:00	1	Precipitación	0
143480	7	Sololá	719	Santiago Atitlán	14	Cerro de Oro	4	Abril	2023-04-16T00:00:00	2024-11-08T13:00:00	8	Radiación solar	906
143481	7	Sololá	719	Santiago Atitlán	14	Cerro de Oro	4	Abril	2023-04-16T00:00:00	2024-11-08T14:00:00	2	Temperatura media	24.7
143482	7	Sololá	719	Santiago Atitlán	14	Cerro de Oro	4	Abril	2023-04-16T00:00:00	2024-11-08T14:00:00	4	Temperatura máxima	24.9
143483	7	Sololá	719	Santiago Atitlán	14	Cerro de Oro	4	Abril	2023-04-16T00:00:00	2024-11-08T14:00:00	3	Temperatura mínima	24
143484	7	Sololá	719	Santiago Atitlán	14	Cerro de Oro	4	Abril	2023-04-16T00:00:00	2024-11-08T14:00:00	5	Humedad	67
143485	7	Sololá	719	Santiago Atitlán	14	Cerro de Oro	4	Abril	2023-04-16T00:00:00	2024-11-08T14:00:00	6	Velocidad del viento	12.9
143486	7	Sololá	719	Santiago Atitlán	14	Cerro de Oro	4	Abril	2023-04-16T00:00:00	2024-11-08T14:00:00	7	Dirección del viento	12.87
143487	7	Sololá	719	Santiago Atitlán	14	Cerro de Oro	4	Abril	2023-04-16T00:00:00	2024-11-08T14:00:00	1	Precipitación	0
143488	7	Sololá	719	Santiago Atitlán	14	Cerro de Oro	4	Abril	2023-04-16T00:00:00	2024-11-08T14:00:00	8	Radiación solar	468
143489	7	Sololá	719	Santiago Atitlán	14	Cerro de Oro	4	Abril	2023-04-16T00:00:00	2024-11-08T15:00:00	2	Temperatura media	23.1
143490	7	Sololá	719	Santiago Atitlán	14	Cerro de Oro	4	Abril	2023-04-16T00:00:00	2024-11-08T15:00:00	4	Temperatura máxima	24.7
143491	7	Sololá	719	Santiago Atitlán	14	Cerro de Oro	4	Abril	2023-04-16T00:00:00	2024-11-08T15:00:00	3	Temperatura mínima	23.1
143492	7	Sololá	719	Santiago Atitlán	14	Cerro de Oro	4	Abril	2023-04-16T00:00:00	2024-11-08T15:00:00	5	Humedad	72
143493	7	Sololá	719	Santiago Atitlán	14	Cerro de Oro	4	Abril	2023-04-16T00:00:00	2024-11-08T15:00:00	6	Velocidad del viento	12.9
143494	7	Sololá	719	Santiago Atitlán	14	Cerro de Oro	4	Abril	2023-04-16T00:00:00	2024-11-08T15:00:00	7	Dirección del viento	12.87
143495	7	Sololá	719	Santiago Atitlán	14	Cerro de Oro	4	Abril	2023-04-16T00:00:00	2024-11-08T15:00:00	1	Precipitación	0
143496	7	Sololá	719	Santiago Atitlán	14	Cerro de Oro	4	Abril	2023-04-16T00:00:00	2024-11-08T15:00:00	8	Radiación solar	291
143497	7	Sololá	719	Santiago Atitlán	14	Cerro de Oro	4	Abril	2023-04-16T00:00:00	2024-11-08T16:00:00	2	Temperatura media	22.8
143498	7	Sololá	719	Santiago Atitlán	14	Cerro de Oro	4	Abril	2023-04-16T00:00:00	2024-11-08T16:00:00	4	Temperatura máxima	23.3
143499	7	Sololá	719	Santiago Atitlán	14	Cerro de Oro	4	Abril	2023-04-16T00:00:00	2024-11-08T16:00:00	3	Temperatura mínima	22.6
143500	7	Sololá	719	Santiago Atitlán	14	Cerro de Oro	4	Abril	2023-04-16T00:00:00	2024-11-08T16:00:00	5	Humedad	72
143501	7	Sololá	719	Santiago Atitlán	14	Cerro de Oro	4	Abril	2023-04-16T00:00:00	2024-11-08T16:00:00	6	Velocidad del viento	11.3
143502	7	Sololá	719	Santiago Atitlán	14	Cerro de Oro	4	Abril	2023-04-16T00:00:00	2024-11-08T16:00:00	7	Dirección del viento	11.27
143503	7	Sololá	719	Santiago Atitlán	14	Cerro de Oro	4	Abril	2023-04-16T00:00:00	2024-11-08T16:00:00	1	Precipitación	0
143504	7	Sololá	719	Santiago Atitlán	14	Cerro de Oro	4	Abril	2023-04-16T00:00:00	2024-11-08T16:00:00	8	Radiación solar	233
143505	7	Sololá	719	Santiago Atitlán	14	Cerro de Oro	4	Abril	2023-04-16T00:00:00	2024-11-08T17:00:00	2	Temperatura media	22.6
143506	7	Sololá	719	Santiago Atitlán	14	Cerro de Oro	4	Abril	2023-04-16T00:00:00	2024-11-08T17:00:00	4	Temperatura máxima	23.2
143507	7	Sololá	719	Santiago Atitlán	14	Cerro de Oro	4	Abril	2023-04-16T00:00:00	2024-11-08T17:00:00	3	Temperatura mínima	22.6
143508	7	Sololá	719	Santiago Atitlán	14	Cerro de Oro	4	Abril	2023-04-16T00:00:00	2024-11-08T17:00:00	5	Humedad	72
143509	7	Sololá	719	Santiago Atitlán	14	Cerro de Oro	4	Abril	2023-04-16T00:00:00	2024-11-08T17:00:00	6	Velocidad del viento	9.7
143510	7	Sololá	719	Santiago Atitlán	14	Cerro de Oro	4	Abril	2023-04-16T00:00:00	2024-11-08T17:00:00	7	Dirección del viento	9.66
143511	7	Sololá	719	Santiago Atitlán	14	Cerro de Oro	4	Abril	2023-04-16T00:00:00	2024-11-08T17:00:00	1	Precipitación	0
143512	7	Sololá	719	Santiago Atitlán	14	Cerro de Oro	4	Abril	2023-04-16T00:00:00	2024-11-08T17:00:00	8	Radiación solar	69
143513	7	Sololá	719	Santiago Atitlán	14	Cerro de Oro	4	Abril	2023-04-16T00:00:00	2024-11-08T18:00:00	2	Temperatura media	21.4
143514	7	Sololá	719	Santiago Atitlán	14	Cerro de Oro	4	Abril	2023-04-16T00:00:00	2024-11-08T18:00:00	4	Temperatura máxima	22.6
143515	7	Sololá	719	Santiago Atitlán	14	Cerro de Oro	4	Abril	2023-04-16T00:00:00	2024-11-08T18:00:00	3	Temperatura mínima	21.4
143516	7	Sololá	719	Santiago Atitlán	14	Cerro de Oro	4	Abril	2023-04-16T00:00:00	2024-11-08T18:00:00	5	Humedad	76
143517	7	Sololá	719	Santiago Atitlán	14	Cerro de Oro	4	Abril	2023-04-16T00:00:00	2024-11-08T18:00:00	6	Velocidad del viento	9.7
143518	7	Sololá	719	Santiago Atitlán	14	Cerro de Oro	4	Abril	2023-04-16T00:00:00	2024-11-08T18:00:00	7	Dirección del viento	9.66
143519	7	Sololá	719	Santiago Atitlán	14	Cerro de Oro	4	Abril	2023-04-16T00:00:00	2024-11-08T18:00:00	1	Precipitación	0
143520	7	Sololá	719	Santiago Atitlán	14	Cerro de Oro	4	Abril	2023-04-16T00:00:00	2024-11-08T18:00:00	8	Radiación solar	17
143521	7	Sololá	719	Santiago Atitlán	14	Cerro de Oro	4	Abril	2023-04-16T00:00:00	2024-11-08T19:00:00	2	Temperatura media	21.4
143522	7	Sololá	719	Santiago Atitlán	14	Cerro de Oro	4	Abril	2023-04-16T00:00:00	2024-11-08T19:00:00	4	Temperatura máxima	21.4
143523	7	Sololá	719	Santiago Atitlán	14	Cerro de Oro	4	Abril	2023-04-16T00:00:00	2024-11-08T19:00:00	3	Temperatura mínima	21.2
143524	7	Sololá	719	Santiago Atitlán	14	Cerro de Oro	4	Abril	2023-04-16T00:00:00	2024-11-08T19:00:00	5	Humedad	76
143525	7	Sololá	719	Santiago Atitlán	14	Cerro de Oro	4	Abril	2023-04-16T00:00:00	2024-11-08T19:00:00	6	Velocidad del viento	6.4
143526	7	Sololá	719	Santiago Atitlán	14	Cerro de Oro	4	Abril	2023-04-16T00:00:00	2024-11-08T19:00:00	7	Dirección del viento	6.44
143527	7	Sololá	719	Santiago Atitlán	14	Cerro de Oro	4	Abril	2023-04-16T00:00:00	2024-11-08T19:00:00	1	Precipitación	0
143528	7	Sololá	719	Santiago Atitlán	14	Cerro de Oro	4	Abril	2023-04-16T00:00:00	2024-11-08T19:00:00	8	Radiación solar	0
143529	7	Sololá	719	Santiago Atitlán	14	Cerro de Oro	4	Abril	2023-04-16T00:00:00	2024-11-08T20:00:00	2	Temperatura media	20.8
143530	7	Sololá	719	Santiago Atitlán	14	Cerro de Oro	4	Abril	2023-04-16T00:00:00	2024-11-08T20:00:00	4	Temperatura máxima	21.5
143531	7	Sololá	719	Santiago Atitlán	14	Cerro de Oro	4	Abril	2023-04-16T00:00:00	2024-11-08T20:00:00	3	Temperatura mínima	20.6
143532	7	Sololá	719	Santiago Atitlán	14	Cerro de Oro	4	Abril	2023-04-16T00:00:00	2024-11-08T20:00:00	5	Humedad	80
143533	7	Sololá	719	Santiago Atitlán	14	Cerro de Oro	4	Abril	2023-04-16T00:00:00	2024-11-08T20:00:00	6	Velocidad del viento	4.8
143534	7	Sololá	719	Santiago Atitlán	14	Cerro de Oro	4	Abril	2023-04-16T00:00:00	2024-11-08T20:00:00	7	Dirección del viento	4.83
143535	7	Sololá	719	Santiago Atitlán	14	Cerro de Oro	4	Abril	2023-04-16T00:00:00	2024-11-08T20:00:00	1	Precipitación	0
143536	7	Sololá	719	Santiago Atitlán	14	Cerro de Oro	4	Abril	2023-04-16T00:00:00	2024-11-08T20:00:00	8	Radiación solar	0
143537	7	Sololá	719	Santiago Atitlán	14	Cerro de Oro	4	Abril	2023-04-16T00:00:00	2024-11-08T21:00:00	2	Temperatura media	20.3
143538	7	Sololá	719	Santiago Atitlán	14	Cerro de Oro	4	Abril	2023-04-16T00:00:00	2024-11-08T21:00:00	4	Temperatura máxima	20.9
143539	7	Sololá	719	Santiago Atitlán	14	Cerro de Oro	4	Abril	2023-04-16T00:00:00	2024-11-08T21:00:00	3	Temperatura mínima	20.3
143540	7	Sololá	719	Santiago Atitlán	14	Cerro de Oro	4	Abril	2023-04-16T00:00:00	2024-11-08T21:00:00	5	Humedad	79
143541	7	Sololá	719	Santiago Atitlán	14	Cerro de Oro	4	Abril	2023-04-16T00:00:00	2024-11-08T21:00:00	6	Velocidad del viento	1.6
143542	7	Sololá	719	Santiago Atitlán	14	Cerro de Oro	4	Abril	2023-04-16T00:00:00	2024-11-08T21:00:00	7	Dirección del viento	1.61
143543	7	Sololá	719	Santiago Atitlán	14	Cerro de Oro	4	Abril	2023-04-16T00:00:00	2024-11-08T21:00:00	1	Precipitación	0
143544	7	Sololá	719	Santiago Atitlán	14	Cerro de Oro	4	Abril	2023-04-16T00:00:00	2024-11-08T21:00:00	8	Radiación solar	0
143545	7	Sololá	719	Santiago Atitlán	14	Cerro de Oro	4	Abril	2023-04-16T00:00:00	2024-11-08T22:00:00	2	Temperatura media	19.7
143546	7	Sololá	719	Santiago Atitlán	14	Cerro de Oro	4	Abril	2023-04-16T00:00:00	2024-11-08T22:00:00	4	Temperatura máxima	20.3
143547	7	Sololá	719	Santiago Atitlán	14	Cerro de Oro	4	Abril	2023-04-16T00:00:00	2024-11-08T22:00:00	3	Temperatura mínima	19.3
143548	7	Sololá	719	Santiago Atitlán	14	Cerro de Oro	4	Abril	2023-04-16T00:00:00	2024-11-08T22:00:00	5	Humedad	83
143549	7	Sololá	719	Santiago Atitlán	14	Cerro de Oro	4	Abril	2023-04-16T00:00:00	2024-11-08T22:00:00	6	Velocidad del viento	3.2
143550	7	Sololá	719	Santiago Atitlán	14	Cerro de Oro	4	Abril	2023-04-16T00:00:00	2024-11-08T22:00:00	7	Dirección del viento	3.22
143551	7	Sololá	719	Santiago Atitlán	14	Cerro de Oro	4	Abril	2023-04-16T00:00:00	2024-11-08T22:00:00	1	Precipitación	0
143552	7	Sololá	719	Santiago Atitlán	14	Cerro de Oro	4	Abril	2023-04-16T00:00:00	2024-11-08T22:00:00	8	Radiación solar	0
143553	7	Sololá	719	Santiago Atitlán	14	Cerro de Oro	4	Abril	2023-04-16T00:00:00	2024-11-08T23:00:00	2	Temperatura media	19.3
143554	7	Sololá	719	Santiago Atitlán	14	Cerro de Oro	4	Abril	2023-04-16T00:00:00	2024-11-08T23:00:00	4	Temperatura máxima	19.8
143555	7	Sololá	719	Santiago Atitlán	14	Cerro de Oro	4	Abril	2023-04-16T00:00:00	2024-11-08T23:00:00	3	Temperatura mínima	19.3
143556	7	Sololá	719	Santiago Atitlán	14	Cerro de Oro	4	Abril	2023-04-16T00:00:00	2024-11-08T23:00:00	5	Humedad	81
143557	7	Sololá	719	Santiago Atitlán	14	Cerro de Oro	4	Abril	2023-04-16T00:00:00	2024-11-08T23:00:00	6	Velocidad del viento	3.2
143558	7	Sololá	719	Santiago Atitlán	14	Cerro de Oro	4	Abril	2023-04-16T00:00:00	2024-11-08T23:00:00	7	Dirección del viento	3.22
143559	7	Sololá	719	Santiago Atitlán	14	Cerro de Oro	4	Abril	2023-04-16T00:00:00	2024-11-08T23:00:00	1	Precipitación	0
143560	7	Sololá	719	Santiago Atitlán	14	Cerro de Oro	4	Abril	2023-04-16T00:00:00	2024-11-08T23:00:00	8	Radiación solar	0
143561	7	Sololá	719	Santiago Atitlán	14	Cerro de Oro	4	Abril	2023-04-17T00:00:00	2024-11-08T00:00:00	2	Temperatura media	18.2
143562	7	Sololá	719	Santiago Atitlán	14	Cerro de Oro	4	Abril	2023-04-17T00:00:00	2024-11-08T00:00:00	4	Temperatura máxima	19.3
143563	7	Sololá	719	Santiago Atitlán	14	Cerro de Oro	4	Abril	2023-04-17T00:00:00	2024-11-08T00:00:00	3	Temperatura mínima	17.9
143564	7	Sololá	719	Santiago Atitlán	14	Cerro de Oro	4	Abril	2023-04-17T00:00:00	2024-11-08T00:00:00	5	Humedad	83
143565	7	Sololá	719	Santiago Atitlán	14	Cerro de Oro	4	Abril	2023-04-17T00:00:00	2024-11-08T00:00:00	6	Velocidad del viento	4.8
143566	7	Sololá	719	Santiago Atitlán	14	Cerro de Oro	4	Abril	2023-04-17T00:00:00	2024-11-08T00:00:00	7	Dirección del viento	4.83
143567	7	Sololá	719	Santiago Atitlán	14	Cerro de Oro	4	Abril	2023-04-17T00:00:00	2024-11-08T00:00:00	1	Precipitación	0
143568	7	Sololá	719	Santiago Atitlán	14	Cerro de Oro	4	Abril	2023-04-17T00:00:00	2024-11-08T00:00:00	8	Radiación solar	0
143569	7	Sololá	719	Santiago Atitlán	14	Cerro de Oro	4	Abril	2023-04-17T00:00:00	2024-11-08T01:00:00	2	Temperatura media	18.1
143570	7	Sololá	719	Santiago Atitlán	14	Cerro de Oro	4	Abril	2023-04-17T00:00:00	2024-11-08T01:00:00	4	Temperatura máxima	18.4
143571	7	Sololá	719	Santiago Atitlán	14	Cerro de Oro	4	Abril	2023-04-17T00:00:00	2024-11-08T01:00:00	3	Temperatura mínima	17.9
143572	7	Sololá	719	Santiago Atitlán	14	Cerro de Oro	4	Abril	2023-04-17T00:00:00	2024-11-08T01:00:00	5	Humedad	85
143573	7	Sololá	719	Santiago Atitlán	14	Cerro de Oro	4	Abril	2023-04-17T00:00:00	2024-11-08T01:00:00	6	Velocidad del viento	3.2
143574	7	Sololá	719	Santiago Atitlán	14	Cerro de Oro	4	Abril	2023-04-17T00:00:00	2024-11-08T01:00:00	7	Dirección del viento	3.22
143575	7	Sololá	719	Santiago Atitlán	14	Cerro de Oro	4	Abril	2023-04-17T00:00:00	2024-11-08T01:00:00	1	Precipitación	0
143576	7	Sololá	719	Santiago Atitlán	14	Cerro de Oro	4	Abril	2023-04-17T00:00:00	2024-11-08T01:00:00	8	Radiación solar	0
143577	7	Sololá	719	Santiago Atitlán	14	Cerro de Oro	4	Abril	2023-04-17T00:00:00	2024-11-08T02:00:00	2	Temperatura media	17.2
143578	7	Sololá	719	Santiago Atitlán	14	Cerro de Oro	4	Abril	2023-04-17T00:00:00	2024-11-08T02:00:00	4	Temperatura máxima	18.2
143579	7	Sololá	719	Santiago Atitlán	14	Cerro de Oro	4	Abril	2023-04-17T00:00:00	2024-11-08T02:00:00	3	Temperatura mínima	17.2
143580	7	Sololá	719	Santiago Atitlán	14	Cerro de Oro	4	Abril	2023-04-17T00:00:00	2024-11-08T02:00:00	5	Humedad	86
143581	7	Sololá	719	Santiago Atitlán	14	Cerro de Oro	4	Abril	2023-04-17T00:00:00	2024-11-08T02:00:00	6	Velocidad del viento	3.2
143582	7	Sololá	719	Santiago Atitlán	14	Cerro de Oro	4	Abril	2023-04-17T00:00:00	2024-11-08T02:00:00	7	Dirección del viento	3.22
143583	7	Sololá	719	Santiago Atitlán	14	Cerro de Oro	4	Abril	2023-04-17T00:00:00	2024-11-08T02:00:00	1	Precipitación	0
143584	7	Sololá	719	Santiago Atitlán	14	Cerro de Oro	4	Abril	2023-04-17T00:00:00	2024-11-08T02:00:00	8	Radiación solar	0
143585	7	Sololá	719	Santiago Atitlán	14	Cerro de Oro	4	Abril	2023-04-17T00:00:00	2024-11-08T03:00:00	2	Temperatura media	17.8
143586	7	Sololá	719	Santiago Atitlán	14	Cerro de Oro	4	Abril	2023-04-17T00:00:00	2024-11-08T03:00:00	4	Temperatura máxima	18
143587	7	Sololá	719	Santiago Atitlán	14	Cerro de Oro	4	Abril	2023-04-17T00:00:00	2024-11-08T03:00:00	3	Temperatura mínima	17
143588	7	Sololá	719	Santiago Atitlán	14	Cerro de Oro	4	Abril	2023-04-17T00:00:00	2024-11-08T03:00:00	5	Humedad	75
143589	7	Sololá	719	Santiago Atitlán	14	Cerro de Oro	4	Abril	2023-04-17T00:00:00	2024-11-08T03:00:00	6	Velocidad del viento	4.8
143590	7	Sololá	719	Santiago Atitlán	14	Cerro de Oro	4	Abril	2023-04-17T00:00:00	2024-11-08T03:00:00	7	Dirección del viento	4.83
143591	7	Sololá	719	Santiago Atitlán	14	Cerro de Oro	4	Abril	2023-04-17T00:00:00	2024-11-08T03:00:00	1	Precipitación	0
143592	7	Sololá	719	Santiago Atitlán	14	Cerro de Oro	4	Abril	2023-04-17T00:00:00	2024-11-08T03:00:00	8	Radiación solar	0
143593	7	Sololá	719	Santiago Atitlán	14	Cerro de Oro	4	Abril	2023-04-17T00:00:00	2024-11-08T04:00:00	2	Temperatura media	17.8
143594	7	Sololá	719	Santiago Atitlán	14	Cerro de Oro	4	Abril	2023-04-17T00:00:00	2024-11-08T04:00:00	4	Temperatura máxima	18.2
143595	7	Sololá	719	Santiago Atitlán	14	Cerro de Oro	4	Abril	2023-04-17T00:00:00	2024-11-08T04:00:00	3	Temperatura mínima	17.8
143596	7	Sololá	719	Santiago Atitlán	14	Cerro de Oro	4	Abril	2023-04-17T00:00:00	2024-11-08T04:00:00	5	Humedad	74
143597	7	Sololá	719	Santiago Atitlán	14	Cerro de Oro	4	Abril	2023-04-17T00:00:00	2024-11-08T04:00:00	6	Velocidad del viento	4.8
143598	7	Sololá	719	Santiago Atitlán	14	Cerro de Oro	4	Abril	2023-04-17T00:00:00	2024-11-08T04:00:00	7	Dirección del viento	4.83
143599	7	Sololá	719	Santiago Atitlán	14	Cerro de Oro	4	Abril	2023-04-17T00:00:00	2024-11-08T04:00:00	1	Precipitación	0
143600	7	Sololá	719	Santiago Atitlán	14	Cerro de Oro	4	Abril	2023-04-17T00:00:00	2024-11-08T04:00:00	8	Radiación solar	0
143601	7	Sololá	719	Santiago Atitlán	14	Cerro de Oro	4	Abril	2023-04-17T00:00:00	2024-11-08T05:00:00	2	Temperatura media	17.6
143602	7	Sololá	719	Santiago Atitlán	14	Cerro de Oro	4	Abril	2023-04-17T00:00:00	2024-11-08T05:00:00	4	Temperatura máxima	17.9
143603	7	Sololá	719	Santiago Atitlán	14	Cerro de Oro	4	Abril	2023-04-17T00:00:00	2024-11-08T05:00:00	3	Temperatura mínima	17.1
143604	7	Sololá	719	Santiago Atitlán	14	Cerro de Oro	4	Abril	2023-04-17T00:00:00	2024-11-08T05:00:00	5	Humedad	81
143605	7	Sololá	719	Santiago Atitlán	14	Cerro de Oro	4	Abril	2023-04-17T00:00:00	2024-11-08T05:00:00	6	Velocidad del viento	4.8
143606	7	Sololá	719	Santiago Atitlán	14	Cerro de Oro	4	Abril	2023-04-17T00:00:00	2024-11-08T05:00:00	7	Dirección del viento	4.83
143607	7	Sololá	719	Santiago Atitlán	14	Cerro de Oro	4	Abril	2023-04-17T00:00:00	2024-11-08T05:00:00	1	Precipitación	0
143608	7	Sololá	719	Santiago Atitlán	14	Cerro de Oro	4	Abril	2023-04-17T00:00:00	2024-11-08T05:00:00	8	Radiación solar	0
143609	7	Sololá	719	Santiago Atitlán	14	Cerro de Oro	4	Abril	2023-04-17T00:00:00	2024-11-08T06:00:00	2	Temperatura media	17.9
143610	7	Sololá	719	Santiago Atitlán	14	Cerro de Oro	4	Abril	2023-04-17T00:00:00	2024-11-08T06:00:00	4	Temperatura máxima	18.2
143611	7	Sololá	719	Santiago Atitlán	14	Cerro de Oro	4	Abril	2023-04-17T00:00:00	2024-11-08T06:00:00	3	Temperatura mínima	17.6
143612	7	Sololá	719	Santiago Atitlán	14	Cerro de Oro	4	Abril	2023-04-17T00:00:00	2024-11-08T06:00:00	5	Humedad	73
143613	7	Sololá	719	Santiago Atitlán	14	Cerro de Oro	4	Abril	2023-04-17T00:00:00	2024-11-08T06:00:00	6	Velocidad del viento	6.4
143614	7	Sololá	719	Santiago Atitlán	14	Cerro de Oro	4	Abril	2023-04-17T00:00:00	2024-11-08T06:00:00	7	Dirección del viento	6.44
143615	7	Sololá	719	Santiago Atitlán	14	Cerro de Oro	4	Abril	2023-04-17T00:00:00	2024-11-08T06:00:00	1	Precipitación	0
143616	7	Sololá	719	Santiago Atitlán	14	Cerro de Oro	4	Abril	2023-04-17T00:00:00	2024-11-08T06:00:00	8	Radiación solar	1
143617	7	Sololá	719	Santiago Atitlán	14	Cerro de Oro	4	Abril	2023-04-17T00:00:00	2024-11-08T07:00:00	2	Temperatura media	17.8
143618	7	Sololá	719	Santiago Atitlán	14	Cerro de Oro	4	Abril	2023-04-17T00:00:00	2024-11-08T07:00:00	4	Temperatura máxima	18.3
143619	7	Sololá	719	Santiago Atitlán	14	Cerro de Oro	4	Abril	2023-04-17T00:00:00	2024-11-08T07:00:00	3	Temperatura mínima	17.6
143620	7	Sololá	719	Santiago Atitlán	14	Cerro de Oro	4	Abril	2023-04-17T00:00:00	2024-11-08T07:00:00	5	Humedad	73
143621	7	Sololá	719	Santiago Atitlán	14	Cerro de Oro	4	Abril	2023-04-17T00:00:00	2024-11-08T07:00:00	6	Velocidad del viento	6.4
143622	7	Sololá	719	Santiago Atitlán	14	Cerro de Oro	4	Abril	2023-04-17T00:00:00	2024-11-08T07:00:00	7	Dirección del viento	6.44
143623	7	Sololá	719	Santiago Atitlán	14	Cerro de Oro	4	Abril	2023-04-17T00:00:00	2024-11-08T07:00:00	1	Precipitación	0
143624	7	Sololá	719	Santiago Atitlán	14	Cerro de Oro	4	Abril	2023-04-17T00:00:00	2024-11-08T07:00:00	8	Radiación solar	68
143625	7	Sololá	719	Santiago Atitlán	14	Cerro de Oro	4	Abril	2023-04-17T00:00:00	2024-11-08T08:00:00	2	Temperatura media	19.5
143626	7	Sololá	719	Santiago Atitlán	14	Cerro de Oro	4	Abril	2023-04-17T00:00:00	2024-11-08T08:00:00	4	Temperatura máxima	19.5
143627	7	Sololá	719	Santiago Atitlán	14	Cerro de Oro	4	Abril	2023-04-17T00:00:00	2024-11-08T08:00:00	3	Temperatura mínima	17.7
143628	7	Sololá	719	Santiago Atitlán	14	Cerro de Oro	4	Abril	2023-04-17T00:00:00	2024-11-08T08:00:00	5	Humedad	69
143629	7	Sololá	719	Santiago Atitlán	14	Cerro de Oro	4	Abril	2023-04-17T00:00:00	2024-11-08T08:00:00	6	Velocidad del viento	4.8
143630	7	Sololá	719	Santiago Atitlán	14	Cerro de Oro	4	Abril	2023-04-17T00:00:00	2024-11-08T08:00:00	7	Dirección del viento	4.83
143631	7	Sololá	719	Santiago Atitlán	14	Cerro de Oro	4	Abril	2023-04-17T00:00:00	2024-11-08T08:00:00	1	Precipitación	0
143632	7	Sololá	719	Santiago Atitlán	14	Cerro de Oro	4	Abril	2023-04-17T00:00:00	2024-11-08T08:00:00	8	Radiación solar	249
143633	7	Sololá	719	Santiago Atitlán	14	Cerro de Oro	4	Abril	2023-04-17T00:00:00	2024-11-08T09:00:00	2	Temperatura media	21.6
143634	7	Sololá	719	Santiago Atitlán	14	Cerro de Oro	4	Abril	2023-04-17T00:00:00	2024-11-08T09:00:00	4	Temperatura máxima	21.6
143635	7	Sololá	719	Santiago Atitlán	14	Cerro de Oro	4	Abril	2023-04-17T00:00:00	2024-11-08T09:00:00	3	Temperatura mínima	19.5
143636	7	Sololá	719	Santiago Atitlán	14	Cerro de Oro	4	Abril	2023-04-17T00:00:00	2024-11-08T09:00:00	5	Humedad	62
143637	7	Sololá	719	Santiago Atitlán	14	Cerro de Oro	4	Abril	2023-04-17T00:00:00	2024-11-08T09:00:00	6	Velocidad del viento	8
143638	7	Sololá	719	Santiago Atitlán	14	Cerro de Oro	4	Abril	2023-04-17T00:00:00	2024-11-08T09:00:00	7	Dirección del viento	8.05
143639	7	Sololá	719	Santiago Atitlán	14	Cerro de Oro	4	Abril	2023-04-17T00:00:00	2024-11-08T09:00:00	1	Precipitación	0
143640	7	Sololá	719	Santiago Atitlán	14	Cerro de Oro	4	Abril	2023-04-17T00:00:00	2024-11-08T09:00:00	8	Radiación solar	479
143641	7	Sololá	719	Santiago Atitlán	14	Cerro de Oro	4	Abril	2023-04-17T00:00:00	2024-11-08T10:00:00	2	Temperatura media	23.1
143642	7	Sololá	719	Santiago Atitlán	14	Cerro de Oro	4	Abril	2023-04-17T00:00:00	2024-11-08T10:00:00	4	Temperatura máxima	23.1
143643	7	Sololá	719	Santiago Atitlán	14	Cerro de Oro	4	Abril	2023-04-17T00:00:00	2024-11-08T10:00:00	3	Temperatura mínima	21.6
143644	7	Sololá	719	Santiago Atitlán	14	Cerro de Oro	4	Abril	2023-04-17T00:00:00	2024-11-08T10:00:00	5	Humedad	53
143645	7	Sololá	719	Santiago Atitlán	14	Cerro de Oro	4	Abril	2023-04-17T00:00:00	2024-11-08T10:00:00	6	Velocidad del viento	9.7
143646	7	Sololá	719	Santiago Atitlán	14	Cerro de Oro	4	Abril	2023-04-17T00:00:00	2024-11-08T10:00:00	7	Dirección del viento	9.66
143647	7	Sololá	719	Santiago Atitlán	14	Cerro de Oro	4	Abril	2023-04-17T00:00:00	2024-11-08T10:00:00	1	Precipitación	0
143648	7	Sololá	719	Santiago Atitlán	14	Cerro de Oro	4	Abril	2023-04-17T00:00:00	2024-11-08T10:00:00	8	Radiación solar	576
143649	7	Sololá	719	Santiago Atitlán	14	Cerro de Oro	4	Abril	2023-04-17T00:00:00	2024-11-08T11:00:00	2	Temperatura media	24.5
143650	7	Sololá	719	Santiago Atitlán	14	Cerro de Oro	4	Abril	2023-04-17T00:00:00	2024-11-08T11:00:00	4	Temperatura máxima	24.6
143651	7	Sololá	719	Santiago Atitlán	14	Cerro de Oro	4	Abril	2023-04-17T00:00:00	2024-11-08T11:00:00	3	Temperatura mínima	23.1
143652	7	Sololá	719	Santiago Atitlán	14	Cerro de Oro	4	Abril	2023-04-17T00:00:00	2024-11-08T11:00:00	5	Humedad	53
143653	7	Sololá	719	Santiago Atitlán	14	Cerro de Oro	4	Abril	2023-04-17T00:00:00	2024-11-08T11:00:00	6	Velocidad del viento	6.4
143654	7	Sololá	719	Santiago Atitlán	14	Cerro de Oro	4	Abril	2023-04-17T00:00:00	2024-11-08T11:00:00	7	Dirección del viento	6.44
143655	7	Sololá	719	Santiago Atitlán	14	Cerro de Oro	4	Abril	2023-04-17T00:00:00	2024-11-08T11:00:00	1	Precipitación	0
143656	7	Sololá	719	Santiago Atitlán	14	Cerro de Oro	4	Abril	2023-04-17T00:00:00	2024-11-08T11:00:00	8	Radiación solar	806
143657	7	Sololá	719	Santiago Atitlán	14	Cerro de Oro	4	Abril	2023-04-17T00:00:00	2024-11-08T12:00:00	2	Temperatura media	24.7
143658	7	Sololá	719	Santiago Atitlán	14	Cerro de Oro	4	Abril	2023-04-17T00:00:00	2024-11-08T12:00:00	4	Temperatura máxima	25.4
143659	7	Sololá	719	Santiago Atitlán	14	Cerro de Oro	4	Abril	2023-04-17T00:00:00	2024-11-08T12:00:00	3	Temperatura mínima	24
143660	7	Sololá	719	Santiago Atitlán	14	Cerro de Oro	4	Abril	2023-04-17T00:00:00	2024-11-08T12:00:00	5	Humedad	61
143661	7	Sololá	719	Santiago Atitlán	14	Cerro de Oro	4	Abril	2023-04-17T00:00:00	2024-11-08T12:00:00	6	Velocidad del viento	8
143662	7	Sololá	719	Santiago Atitlán	14	Cerro de Oro	4	Abril	2023-04-17T00:00:00	2024-11-08T12:00:00	7	Dirección del viento	8.05
143663	7	Sololá	719	Santiago Atitlán	14	Cerro de Oro	4	Abril	2023-04-17T00:00:00	2024-11-08T12:00:00	1	Precipitación	0
143664	7	Sololá	719	Santiago Atitlán	14	Cerro de Oro	4	Abril	2023-04-17T00:00:00	2024-11-08T12:00:00	8	Radiación solar	922
143665	7	Sololá	719	Santiago Atitlán	14	Cerro de Oro	4	Abril	2023-04-17T00:00:00	2024-11-08T13:00:00	2	Temperatura media	25.7
143666	7	Sololá	719	Santiago Atitlán	14	Cerro de Oro	4	Abril	2023-04-17T00:00:00	2024-11-08T13:00:00	4	Temperatura máxima	26.2
143667	7	Sololá	719	Santiago Atitlán	14	Cerro de Oro	4	Abril	2023-04-17T00:00:00	2024-11-08T13:00:00	3	Temperatura mínima	24.1
143668	7	Sololá	719	Santiago Atitlán	14	Cerro de Oro	4	Abril	2023-04-17T00:00:00	2024-11-08T13:00:00	5	Humedad	58
143669	7	Sololá	719	Santiago Atitlán	14	Cerro de Oro	4	Abril	2023-04-17T00:00:00	2024-11-08T13:00:00	6	Velocidad del viento	9.7
143670	7	Sololá	719	Santiago Atitlán	14	Cerro de Oro	4	Abril	2023-04-17T00:00:00	2024-11-08T13:00:00	7	Dirección del viento	9.66
143671	7	Sololá	719	Santiago Atitlán	14	Cerro de Oro	4	Abril	2023-04-17T00:00:00	2024-11-08T13:00:00	1	Precipitación	0
143672	7	Sololá	719	Santiago Atitlán	14	Cerro de Oro	4	Abril	2023-04-17T00:00:00	2024-11-08T13:00:00	8	Radiación solar	911
143673	7	Sololá	719	Santiago Atitlán	14	Cerro de Oro	4	Abril	2023-04-17T00:00:00	2024-11-08T14:00:00	2	Temperatura media	23.2
143674	7	Sololá	719	Santiago Atitlán	14	Cerro de Oro	4	Abril	2023-04-17T00:00:00	2024-11-08T14:00:00	4	Temperatura máxima	25.8
143675	7	Sololá	719	Santiago Atitlán	14	Cerro de Oro	4	Abril	2023-04-17T00:00:00	2024-11-08T14:00:00	3	Temperatura mínima	23.2
143676	7	Sololá	719	Santiago Atitlán	14	Cerro de Oro	4	Abril	2023-04-17T00:00:00	2024-11-08T14:00:00	5	Humedad	69
143677	7	Sololá	719	Santiago Atitlán	14	Cerro de Oro	4	Abril	2023-04-17T00:00:00	2024-11-08T14:00:00	6	Velocidad del viento	16.1
143678	7	Sololá	719	Santiago Atitlán	14	Cerro de Oro	4	Abril	2023-04-17T00:00:00	2024-11-08T14:00:00	7	Dirección del viento	16.09
143679	7	Sololá	719	Santiago Atitlán	14	Cerro de Oro	4	Abril	2023-04-17T00:00:00	2024-11-08T14:00:00	1	Precipitación	0
143680	7	Sololá	719	Santiago Atitlán	14	Cerro de Oro	4	Abril	2023-04-17T00:00:00	2024-11-08T14:00:00	8	Radiación solar	480
143681	7	Sololá	719	Santiago Atitlán	14	Cerro de Oro	4	Abril	2023-04-17T00:00:00	2024-11-08T15:00:00	2	Temperatura media	22.5
143682	7	Sololá	719	Santiago Atitlán	14	Cerro de Oro	4	Abril	2023-04-17T00:00:00	2024-11-08T15:00:00	4	Temperatura máxima	23.8
143683	7	Sololá	719	Santiago Atitlán	14	Cerro de Oro	4	Abril	2023-04-17T00:00:00	2024-11-08T15:00:00	3	Temperatura mínima	22.5
143684	7	Sololá	719	Santiago Atitlán	14	Cerro de Oro	4	Abril	2023-04-17T00:00:00	2024-11-08T15:00:00	5	Humedad	72
143685	7	Sololá	719	Santiago Atitlán	14	Cerro de Oro	4	Abril	2023-04-17T00:00:00	2024-11-08T15:00:00	6	Velocidad del viento	14.5
143686	7	Sololá	719	Santiago Atitlán	14	Cerro de Oro	4	Abril	2023-04-17T00:00:00	2024-11-08T15:00:00	7	Dirección del viento	14.48
143687	7	Sololá	719	Santiago Atitlán	14	Cerro de Oro	4	Abril	2023-04-17T00:00:00	2024-11-08T15:00:00	1	Precipitación	0
143688	7	Sololá	719	Santiago Atitlán	14	Cerro de Oro	4	Abril	2023-04-17T00:00:00	2024-11-08T15:00:00	8	Radiación solar	83
143689	7	Sololá	719	Santiago Atitlán	14	Cerro de Oro	4	Abril	2023-04-17T00:00:00	2024-11-08T16:00:00	2	Temperatura media	21.8
143690	7	Sololá	719	Santiago Atitlán	14	Cerro de Oro	4	Abril	2023-04-17T00:00:00	2024-11-08T16:00:00	4	Temperatura máxima	22.5
143691	7	Sololá	719	Santiago Atitlán	14	Cerro de Oro	4	Abril	2023-04-17T00:00:00	2024-11-08T16:00:00	3	Temperatura mínima	21.8
143692	7	Sololá	719	Santiago Atitlán	14	Cerro de Oro	4	Abril	2023-04-17T00:00:00	2024-11-08T16:00:00	5	Humedad	74
143693	7	Sololá	719	Santiago Atitlán	14	Cerro de Oro	4	Abril	2023-04-17T00:00:00	2024-11-08T16:00:00	6	Velocidad del viento	4.8
143694	7	Sololá	719	Santiago Atitlán	14	Cerro de Oro	4	Abril	2023-04-17T00:00:00	2024-11-08T16:00:00	7	Dirección del viento	4.83
143695	7	Sololá	719	Santiago Atitlán	14	Cerro de Oro	4	Abril	2023-04-17T00:00:00	2024-11-08T16:00:00	1	Precipitación	0
143696	7	Sololá	719	Santiago Atitlán	14	Cerro de Oro	4	Abril	2023-04-17T00:00:00	2024-11-08T16:00:00	8	Radiación solar	25
143697	7	Sololá	719	Santiago Atitlán	14	Cerro de Oro	4	Abril	2023-04-17T00:00:00	2024-11-08T17:00:00	2	Temperatura media	15.9
143698	7	Sololá	719	Santiago Atitlán	14	Cerro de Oro	4	Abril	2023-04-17T00:00:00	2024-11-08T17:00:00	4	Temperatura máxima	21.8
143699	7	Sololá	719	Santiago Atitlán	14	Cerro de Oro	4	Abril	2023-04-17T00:00:00	2024-11-08T17:00:00	3	Temperatura mínima	15.7
143700	7	Sololá	719	Santiago Atitlán	14	Cerro de Oro	4	Abril	2023-04-17T00:00:00	2024-11-08T17:00:00	5	Humedad	88
143701	7	Sololá	719	Santiago Atitlán	14	Cerro de Oro	4	Abril	2023-04-17T00:00:00	2024-11-08T17:00:00	6	Velocidad del viento	11.3
143702	7	Sololá	719	Santiago Atitlán	14	Cerro de Oro	4	Abril	2023-04-17T00:00:00	2024-11-08T17:00:00	7	Dirección del viento	11.27
143703	7	Sololá	719	Santiago Atitlán	14	Cerro de Oro	4	Abril	2023-04-17T00:00:00	2024-11-08T17:00:00	1	Precipitación	22.8
143704	7	Sololá	719	Santiago Atitlán	14	Cerro de Oro	4	Abril	2023-04-17T00:00:00	2024-11-08T17:00:00	8	Radiación solar	26
143705	7	Sololá	719	Santiago Atitlán	14	Cerro de Oro	4	Abril	2023-04-17T00:00:00	2024-11-08T18:00:00	2	Temperatura media	16.1
143706	7	Sololá	719	Santiago Atitlán	14	Cerro de Oro	4	Abril	2023-04-17T00:00:00	2024-11-08T18:00:00	4	Temperatura máxima	16.3
143707	7	Sololá	719	Santiago Atitlán	14	Cerro de Oro	4	Abril	2023-04-17T00:00:00	2024-11-08T18:00:00	3	Temperatura mínima	15.9
143708	7	Sololá	719	Santiago Atitlán	14	Cerro de Oro	4	Abril	2023-04-17T00:00:00	2024-11-08T18:00:00	5	Humedad	91
143709	7	Sololá	719	Santiago Atitlán	14	Cerro de Oro	4	Abril	2023-04-17T00:00:00	2024-11-08T18:00:00	6	Velocidad del viento	3.2
143710	7	Sololá	719	Santiago Atitlán	14	Cerro de Oro	4	Abril	2023-04-17T00:00:00	2024-11-08T18:00:00	7	Dirección del viento	3.22
143711	7	Sololá	719	Santiago Atitlán	14	Cerro de Oro	4	Abril	2023-04-17T00:00:00	2024-11-08T18:00:00	1	Precipitación	4.8
143712	7	Sololá	719	Santiago Atitlán	14	Cerro de Oro	4	Abril	2023-04-17T00:00:00	2024-11-08T18:00:00	8	Radiación solar	44
143713	7	Sololá	719	Santiago Atitlán	14	Cerro de Oro	4	Abril	2023-04-17T00:00:00	2024-11-08T19:00:00	2	Temperatura media	17
143714	7	Sololá	719	Santiago Atitlán	14	Cerro de Oro	4	Abril	2023-04-17T00:00:00	2024-11-08T19:00:00	4	Temperatura máxima	17
143715	7	Sololá	719	Santiago Atitlán	14	Cerro de Oro	4	Abril	2023-04-17T00:00:00	2024-11-08T19:00:00	3	Temperatura mínima	16.1
143716	7	Sololá	719	Santiago Atitlán	14	Cerro de Oro	4	Abril	2023-04-17T00:00:00	2024-11-08T19:00:00	5	Humedad	89
143717	7	Sololá	719	Santiago Atitlán	14	Cerro de Oro	4	Abril	2023-04-17T00:00:00	2024-11-08T19:00:00	6	Velocidad del viento	4.8
143718	7	Sololá	719	Santiago Atitlán	14	Cerro de Oro	4	Abril	2023-04-17T00:00:00	2024-11-08T19:00:00	7	Dirección del viento	4.83
143719	7	Sololá	719	Santiago Atitlán	14	Cerro de Oro	4	Abril	2023-04-17T00:00:00	2024-11-08T19:00:00	1	Precipitación	0
143720	7	Sololá	719	Santiago Atitlán	14	Cerro de Oro	4	Abril	2023-04-17T00:00:00	2024-11-08T19:00:00	8	Radiación solar	0
143721	7	Sololá	719	Santiago Atitlán	14	Cerro de Oro	4	Abril	2023-04-17T00:00:00	2024-11-08T20:00:00	2	Temperatura media	16.4
143722	7	Sololá	719	Santiago Atitlán	14	Cerro de Oro	4	Abril	2023-04-17T00:00:00	2024-11-08T20:00:00	4	Temperatura máxima	17
143723	7	Sololá	719	Santiago Atitlán	14	Cerro de Oro	4	Abril	2023-04-17T00:00:00	2024-11-08T20:00:00	3	Temperatura mínima	16.4
143724	7	Sololá	719	Santiago Atitlán	14	Cerro de Oro	4	Abril	2023-04-17T00:00:00	2024-11-08T20:00:00	5	Humedad	91
143725	7	Sololá	719	Santiago Atitlán	14	Cerro de Oro	4	Abril	2023-04-17T00:00:00	2024-11-08T20:00:00	6	Velocidad del viento	3.2
143726	7	Sololá	719	Santiago Atitlán	14	Cerro de Oro	4	Abril	2023-04-17T00:00:00	2024-11-08T20:00:00	7	Dirección del viento	3.22
143727	7	Sololá	719	Santiago Atitlán	14	Cerro de Oro	4	Abril	2023-04-17T00:00:00	2024-11-08T20:00:00	1	Precipitación	0
143728	7	Sololá	719	Santiago Atitlán	14	Cerro de Oro	4	Abril	2023-04-17T00:00:00	2024-11-08T20:00:00	8	Radiación solar	0
143729	7	Sololá	719	Santiago Atitlán	14	Cerro de Oro	4	Abril	2023-04-17T00:00:00	2024-11-08T21:00:00	2	Temperatura media	16.3
143730	7	Sololá	719	Santiago Atitlán	14	Cerro de Oro	4	Abril	2023-04-17T00:00:00	2024-11-08T21:00:00	4	Temperatura máxima	16.5
143731	7	Sololá	719	Santiago Atitlán	14	Cerro de Oro	4	Abril	2023-04-17T00:00:00	2024-11-08T21:00:00	3	Temperatura mínima	16
143732	7	Sololá	719	Santiago Atitlán	14	Cerro de Oro	4	Abril	2023-04-17T00:00:00	2024-11-08T21:00:00	5	Humedad	88
143733	7	Sololá	719	Santiago Atitlán	14	Cerro de Oro	4	Abril	2023-04-17T00:00:00	2024-11-08T21:00:00	6	Velocidad del viento	4.8
143734	7	Sololá	719	Santiago Atitlán	14	Cerro de Oro	4	Abril	2023-04-17T00:00:00	2024-11-08T21:00:00	7	Dirección del viento	4.83
143735	7	Sololá	719	Santiago Atitlán	14	Cerro de Oro	4	Abril	2023-04-17T00:00:00	2024-11-08T21:00:00	1	Precipitación	0
143736	7	Sololá	719	Santiago Atitlán	14	Cerro de Oro	4	Abril	2023-04-17T00:00:00	2024-11-08T21:00:00	8	Radiación solar	0
143737	7	Sololá	719	Santiago Atitlán	14	Cerro de Oro	4	Abril	2023-04-17T00:00:00	2024-11-08T22:00:00	2	Temperatura media	16.9
143738	7	Sololá	719	Santiago Atitlán	14	Cerro de Oro	4	Abril	2023-04-17T00:00:00	2024-11-08T22:00:00	4	Temperatura máxima	17.7
143739	7	Sololá	719	Santiago Atitlán	14	Cerro de Oro	4	Abril	2023-04-17T00:00:00	2024-11-08T22:00:00	3	Temperatura mínima	16.2
143740	7	Sololá	719	Santiago Atitlán	14	Cerro de Oro	4	Abril	2023-04-17T00:00:00	2024-11-08T22:00:00	5	Humedad	87
143741	7	Sololá	719	Santiago Atitlán	14	Cerro de Oro	4	Abril	2023-04-17T00:00:00	2024-11-08T22:00:00	6	Velocidad del viento	6.4
143742	7	Sololá	719	Santiago Atitlán	14	Cerro de Oro	4	Abril	2023-04-17T00:00:00	2024-11-08T22:00:00	7	Dirección del viento	6.44
143743	7	Sololá	719	Santiago Atitlán	14	Cerro de Oro	4	Abril	2023-04-17T00:00:00	2024-11-08T22:00:00	1	Precipitación	0
143744	7	Sololá	719	Santiago Atitlán	14	Cerro de Oro	4	Abril	2023-04-17T00:00:00	2024-11-08T22:00:00	8	Radiación solar	0
143745	7	Sololá	719	Santiago Atitlán	14	Cerro de Oro	4	Abril	2023-04-17T00:00:00	2024-11-08T23:00:00	2	Temperatura media	17.2
143746	7	Sololá	719	Santiago Atitlán	14	Cerro de Oro	4	Abril	2023-04-17T00:00:00	2024-11-08T23:00:00	4	Temperatura máxima	17.2
143747	7	Sololá	719	Santiago Atitlán	14	Cerro de Oro	4	Abril	2023-04-17T00:00:00	2024-11-08T23:00:00	3	Temperatura mínima	16.7
143748	7	Sololá	719	Santiago Atitlán	14	Cerro de Oro	4	Abril	2023-04-17T00:00:00	2024-11-08T23:00:00	5	Humedad	81
143749	7	Sololá	719	Santiago Atitlán	14	Cerro de Oro	4	Abril	2023-04-17T00:00:00	2024-11-08T23:00:00	6	Velocidad del viento	3.2
143750	7	Sololá	719	Santiago Atitlán	14	Cerro de Oro	4	Abril	2023-04-17T00:00:00	2024-11-08T23:00:00	7	Dirección del viento	3.22
143751	7	Sololá	719	Santiago Atitlán	14	Cerro de Oro	4	Abril	2023-04-17T00:00:00	2024-11-08T23:00:00	1	Precipitación	0
143752	7	Sololá	719	Santiago Atitlán	14	Cerro de Oro	4	Abril	2023-04-17T00:00:00	2024-11-08T23:00:00	8	Radiación solar	0
143753	7	Sololá	719	Santiago Atitlán	14	Cerro de Oro	4	Abril	2023-04-18T00:00:00	2024-11-08T00:00:00	2	Temperatura media	16.8
143754	7	Sololá	719	Santiago Atitlán	14	Cerro de Oro	4	Abril	2023-04-18T00:00:00	2024-11-08T00:00:00	4	Temperatura máxima	17.8
143755	7	Sololá	719	Santiago Atitlán	14	Cerro de Oro	4	Abril	2023-04-18T00:00:00	2024-11-08T00:00:00	3	Temperatura mínima	16.8
143756	7	Sololá	719	Santiago Atitlán	14	Cerro de Oro	4	Abril	2023-04-18T00:00:00	2024-11-08T00:00:00	5	Humedad	80
143757	7	Sololá	719	Santiago Atitlán	14	Cerro de Oro	4	Abril	2023-04-18T00:00:00	2024-11-08T00:00:00	6	Velocidad del viento	6.4
143758	7	Sololá	719	Santiago Atitlán	14	Cerro de Oro	4	Abril	2023-04-18T00:00:00	2024-11-08T00:00:00	7	Dirección del viento	6.44
143759	7	Sololá	719	Santiago Atitlán	14	Cerro de Oro	4	Abril	2023-04-18T00:00:00	2024-11-08T00:00:00	1	Precipitación	0
143760	7	Sololá	719	Santiago Atitlán	14	Cerro de Oro	4	Abril	2023-04-18T00:00:00	2024-11-08T00:00:00	8	Radiación solar	0
143761	7	Sololá	719	Santiago Atitlán	14	Cerro de Oro	4	Abril	2023-04-18T00:00:00	2024-11-08T01:00:00	2	Temperatura media	18
143762	7	Sololá	719	Santiago Atitlán	14	Cerro de Oro	4	Abril	2023-04-18T00:00:00	2024-11-08T01:00:00	4	Temperatura máxima	18
143763	7	Sololá	719	Santiago Atitlán	14	Cerro de Oro	4	Abril	2023-04-18T00:00:00	2024-11-08T01:00:00	3	Temperatura mínima	16.2
143764	7	Sololá	719	Santiago Atitlán	14	Cerro de Oro	4	Abril	2023-04-18T00:00:00	2024-11-08T01:00:00	5	Humedad	75
143765	7	Sololá	719	Santiago Atitlán	14	Cerro de Oro	4	Abril	2023-04-18T00:00:00	2024-11-08T01:00:00	6	Velocidad del viento	6.4
143766	7	Sololá	719	Santiago Atitlán	14	Cerro de Oro	4	Abril	2023-04-18T00:00:00	2024-11-08T01:00:00	7	Dirección del viento	6.44
143767	7	Sololá	719	Santiago Atitlán	14	Cerro de Oro	4	Abril	2023-04-18T00:00:00	2024-11-08T01:00:00	1	Precipitación	0
143768	7	Sololá	719	Santiago Atitlán	14	Cerro de Oro	4	Abril	2023-04-18T00:00:00	2024-11-08T01:00:00	8	Radiación solar	0
143769	7	Sololá	719	Santiago Atitlán	14	Cerro de Oro	4	Abril	2023-04-18T00:00:00	2024-11-08T02:00:00	2	Temperatura media	17.8
143770	7	Sololá	719	Santiago Atitlán	14	Cerro de Oro	4	Abril	2023-04-18T00:00:00	2024-11-08T02:00:00	4	Temperatura máxima	17.9
143771	7	Sololá	719	Santiago Atitlán	14	Cerro de Oro	4	Abril	2023-04-18T00:00:00	2024-11-08T02:00:00	3	Temperatura mínima	17.2
143772	7	Sololá	719	Santiago Atitlán	14	Cerro de Oro	4	Abril	2023-04-18T00:00:00	2024-11-08T02:00:00	5	Humedad	77
143773	7	Sololá	719	Santiago Atitlán	14	Cerro de Oro	4	Abril	2023-04-18T00:00:00	2024-11-08T02:00:00	6	Velocidad del viento	6.4
143774	7	Sololá	719	Santiago Atitlán	14	Cerro de Oro	4	Abril	2023-04-18T00:00:00	2024-11-08T02:00:00	7	Dirección del viento	6.44
143775	7	Sololá	719	Santiago Atitlán	14	Cerro de Oro	4	Abril	2023-04-18T00:00:00	2024-11-08T02:00:00	1	Precipitación	0
143776	7	Sololá	719	Santiago Atitlán	14	Cerro de Oro	4	Abril	2023-04-18T00:00:00	2024-11-08T02:00:00	8	Radiación solar	0
143777	7	Sololá	719	Santiago Atitlán	14	Cerro de Oro	4	Abril	2023-04-18T00:00:00	2024-11-08T03:00:00	2	Temperatura media	17.3
143778	7	Sololá	719	Santiago Atitlán	14	Cerro de Oro	4	Abril	2023-04-18T00:00:00	2024-11-08T03:00:00	4	Temperatura máxima	17.8
143779	7	Sololá	719	Santiago Atitlán	14	Cerro de Oro	4	Abril	2023-04-18T00:00:00	2024-11-08T03:00:00	3	Temperatura mínima	16.9
143780	7	Sololá	719	Santiago Atitlán	14	Cerro de Oro	4	Abril	2023-04-18T00:00:00	2024-11-08T03:00:00	5	Humedad	79
143781	7	Sololá	719	Santiago Atitlán	14	Cerro de Oro	4	Abril	2023-04-18T00:00:00	2024-11-08T03:00:00	6	Velocidad del viento	4.8
143782	7	Sololá	719	Santiago Atitlán	14	Cerro de Oro	4	Abril	2023-04-18T00:00:00	2024-11-08T03:00:00	7	Dirección del viento	4.83
143783	7	Sololá	719	Santiago Atitlán	14	Cerro de Oro	4	Abril	2023-04-18T00:00:00	2024-11-08T03:00:00	1	Precipitación	0
143784	7	Sololá	719	Santiago Atitlán	14	Cerro de Oro	4	Abril	2023-04-18T00:00:00	2024-11-08T03:00:00	8	Radiación solar	0
143785	7	Sololá	719	Santiago Atitlán	14	Cerro de Oro	4	Abril	2023-04-18T00:00:00	2024-11-08T04:00:00	2	Temperatura media	16.9
143786	7	Sololá	719	Santiago Atitlán	14	Cerro de Oro	4	Abril	2023-04-18T00:00:00	2024-11-08T04:00:00	4	Temperatura máxima	17.6
143787	7	Sololá	719	Santiago Atitlán	14	Cerro de Oro	4	Abril	2023-04-18T00:00:00	2024-11-08T04:00:00	3	Temperatura mínima	16.9
143788	7	Sololá	719	Santiago Atitlán	14	Cerro de Oro	4	Abril	2023-04-18T00:00:00	2024-11-08T04:00:00	5	Humedad	79
143789	7	Sololá	719	Santiago Atitlán	14	Cerro de Oro	4	Abril	2023-04-18T00:00:00	2024-11-08T04:00:00	6	Velocidad del viento	6.4
143790	7	Sololá	719	Santiago Atitlán	14	Cerro de Oro	4	Abril	2023-04-18T00:00:00	2024-11-08T04:00:00	7	Dirección del viento	6.44
143791	7	Sololá	719	Santiago Atitlán	14	Cerro de Oro	4	Abril	2023-04-18T00:00:00	2024-11-08T04:00:00	1	Precipitación	0
143792	7	Sololá	719	Santiago Atitlán	14	Cerro de Oro	4	Abril	2023-04-18T00:00:00	2024-11-08T04:00:00	8	Radiación solar	0
143793	7	Sololá	719	Santiago Atitlán	14	Cerro de Oro	4	Abril	2023-04-18T00:00:00	2024-11-08T05:00:00	2	Temperatura media	17.7
143794	7	Sololá	719	Santiago Atitlán	14	Cerro de Oro	4	Abril	2023-04-18T00:00:00	2024-11-08T05:00:00	4	Temperatura máxima	17.7
143795	7	Sololá	719	Santiago Atitlán	14	Cerro de Oro	4	Abril	2023-04-18T00:00:00	2024-11-08T05:00:00	3	Temperatura mínima	16.9
143796	7	Sololá	719	Santiago Atitlán	14	Cerro de Oro	4	Abril	2023-04-18T00:00:00	2024-11-08T05:00:00	5	Humedad	76
143797	7	Sololá	719	Santiago Atitlán	14	Cerro de Oro	4	Abril	2023-04-18T00:00:00	2024-11-08T05:00:00	6	Velocidad del viento	4.8
143798	7	Sololá	719	Santiago Atitlán	14	Cerro de Oro	4	Abril	2023-04-18T00:00:00	2024-11-08T05:00:00	7	Dirección del viento	4.83
143799	7	Sololá	719	Santiago Atitlán	14	Cerro de Oro	4	Abril	2023-04-18T00:00:00	2024-11-08T05:00:00	1	Precipitación	0
143800	7	Sololá	719	Santiago Atitlán	14	Cerro de Oro	4	Abril	2023-04-18T00:00:00	2024-11-08T05:00:00	8	Radiación solar	0
143801	7	Sololá	719	Santiago Atitlán	14	Cerro de Oro	4	Abril	2023-04-18T00:00:00	2024-11-08T06:00:00	2	Temperatura media	16.7
143802	7	Sololá	719	Santiago Atitlán	14	Cerro de Oro	4	Abril	2023-04-18T00:00:00	2024-11-08T06:00:00	4	Temperatura máxima	17.8
143803	7	Sololá	719	Santiago Atitlán	14	Cerro de Oro	4	Abril	2023-04-18T00:00:00	2024-11-08T06:00:00	3	Temperatura mínima	16.7
143804	7	Sololá	719	Santiago Atitlán	14	Cerro de Oro	4	Abril	2023-04-18T00:00:00	2024-11-08T06:00:00	5	Humedad	77
143805	7	Sololá	719	Santiago Atitlán	14	Cerro de Oro	4	Abril	2023-04-18T00:00:00	2024-11-08T06:00:00	6	Velocidad del viento	4.8
143806	7	Sololá	719	Santiago Atitlán	14	Cerro de Oro	4	Abril	2023-04-18T00:00:00	2024-11-08T06:00:00	7	Dirección del viento	4.83
143807	7	Sololá	719	Santiago Atitlán	14	Cerro de Oro	4	Abril	2023-04-18T00:00:00	2024-11-08T06:00:00	1	Precipitación	0
143808	7	Sololá	719	Santiago Atitlán	14	Cerro de Oro	4	Abril	2023-04-18T00:00:00	2024-11-08T06:00:00	8	Radiación solar	2
143809	7	Sololá	719	Santiago Atitlán	14	Cerro de Oro	4	Abril	2023-04-18T00:00:00	2024-11-08T07:00:00	2	Temperatura media	17.3
143810	7	Sololá	719	Santiago Atitlán	14	Cerro de Oro	4	Abril	2023-04-18T00:00:00	2024-11-08T07:00:00	4	Temperatura máxima	17.4
143811	7	Sololá	719	Santiago Atitlán	14	Cerro de Oro	4	Abril	2023-04-18T00:00:00	2024-11-08T07:00:00	3	Temperatura mínima	16.6
143812	7	Sololá	719	Santiago Atitlán	14	Cerro de Oro	4	Abril	2023-04-18T00:00:00	2024-11-08T07:00:00	5	Humedad	76
143813	7	Sololá	719	Santiago Atitlán	14	Cerro de Oro	4	Abril	2023-04-18T00:00:00	2024-11-08T07:00:00	6	Velocidad del viento	4.8
143814	7	Sololá	719	Santiago Atitlán	14	Cerro de Oro	4	Abril	2023-04-18T00:00:00	2024-11-08T07:00:00	7	Dirección del viento	4.83
143815	7	Sololá	719	Santiago Atitlán	14	Cerro de Oro	4	Abril	2023-04-18T00:00:00	2024-11-08T07:00:00	1	Precipitación	0
143816	7	Sololá	719	Santiago Atitlán	14	Cerro de Oro	4	Abril	2023-04-18T00:00:00	2024-11-08T07:00:00	8	Radiación solar	87
143817	7	Sololá	719	Santiago Atitlán	14	Cerro de Oro	4	Abril	2023-04-18T00:00:00	2024-11-08T08:00:00	2	Temperatura media	18.8
143818	7	Sololá	719	Santiago Atitlán	14	Cerro de Oro	4	Abril	2023-04-18T00:00:00	2024-11-08T08:00:00	4	Temperatura máxima	18.8
143819	7	Sololá	719	Santiago Atitlán	14	Cerro de Oro	4	Abril	2023-04-18T00:00:00	2024-11-08T08:00:00	3	Temperatura mínima	17.3
143820	7	Sololá	719	Santiago Atitlán	14	Cerro de Oro	4	Abril	2023-04-18T00:00:00	2024-11-08T08:00:00	5	Humedad	70
143821	7	Sololá	719	Santiago Atitlán	14	Cerro de Oro	4	Abril	2023-04-18T00:00:00	2024-11-08T08:00:00	6	Velocidad del viento	8
143822	7	Sololá	719	Santiago Atitlán	14	Cerro de Oro	4	Abril	2023-04-18T00:00:00	2024-11-08T08:00:00	7	Dirección del viento	8.05
143823	7	Sololá	719	Santiago Atitlán	14	Cerro de Oro	4	Abril	2023-04-18T00:00:00	2024-11-08T08:00:00	1	Precipitación	0
143824	7	Sololá	719	Santiago Atitlán	14	Cerro de Oro	4	Abril	2023-04-18T00:00:00	2024-11-08T08:00:00	8	Radiación solar	278
143825	7	Sololá	719	Santiago Atitlán	14	Cerro de Oro	4	Abril	2023-04-18T00:00:00	2024-11-08T09:00:00	2	Temperatura media	19.9
143826	7	Sololá	719	Santiago Atitlán	14	Cerro de Oro	4	Abril	2023-04-18T00:00:00	2024-11-08T09:00:00	4	Temperatura máxima	19.9
143827	7	Sololá	719	Santiago Atitlán	14	Cerro de Oro	4	Abril	2023-04-18T00:00:00	2024-11-08T09:00:00	3	Temperatura mínima	18.8
143828	7	Sololá	719	Santiago Atitlán	14	Cerro de Oro	4	Abril	2023-04-18T00:00:00	2024-11-08T09:00:00	5	Humedad	68
143829	7	Sololá	719	Santiago Atitlán	14	Cerro de Oro	4	Abril	2023-04-18T00:00:00	2024-11-08T09:00:00	6	Velocidad del viento	4.8
143830	7	Sololá	719	Santiago Atitlán	14	Cerro de Oro	4	Abril	2023-04-18T00:00:00	2024-11-08T09:00:00	7	Dirección del viento	4.83
143831	7	Sololá	719	Santiago Atitlán	14	Cerro de Oro	4	Abril	2023-04-18T00:00:00	2024-11-08T09:00:00	1	Precipitación	0
143832	7	Sololá	719	Santiago Atitlán	14	Cerro de Oro	4	Abril	2023-04-18T00:00:00	2024-11-08T09:00:00	8	Radiación solar	509
143833	7	Sololá	719	Santiago Atitlán	14	Cerro de Oro	4	Abril	2023-04-18T00:00:00	2024-11-08T10:00:00	2	Temperatura media	21.2
143834	7	Sololá	719	Santiago Atitlán	14	Cerro de Oro	4	Abril	2023-04-18T00:00:00	2024-11-08T10:00:00	4	Temperatura máxima	21.2
143835	7	Sololá	719	Santiago Atitlán	14	Cerro de Oro	4	Abril	2023-04-18T00:00:00	2024-11-08T10:00:00	3	Temperatura mínima	19.9
143836	7	Sololá	719	Santiago Atitlán	14	Cerro de Oro	4	Abril	2023-04-18T00:00:00	2024-11-08T10:00:00	5	Humedad	65
143837	7	Sololá	719	Santiago Atitlán	14	Cerro de Oro	4	Abril	2023-04-18T00:00:00	2024-11-08T10:00:00	6	Velocidad del viento	4.8
143838	7	Sololá	719	Santiago Atitlán	14	Cerro de Oro	4	Abril	2023-04-18T00:00:00	2024-11-08T10:00:00	7	Dirección del viento	4.83
143839	7	Sololá	719	Santiago Atitlán	14	Cerro de Oro	4	Abril	2023-04-18T00:00:00	2024-11-08T10:00:00	1	Precipitación	0
143840	7	Sololá	719	Santiago Atitlán	14	Cerro de Oro	4	Abril	2023-04-18T00:00:00	2024-11-08T10:00:00	8	Radiación solar	603
143841	7	Sololá	719	Santiago Atitlán	14	Cerro de Oro	4	Abril	2023-04-18T00:00:00	2024-11-08T11:00:00	2	Temperatura media	21.3
143842	7	Sololá	719	Santiago Atitlán	14	Cerro de Oro	4	Abril	2023-04-18T00:00:00	2024-11-08T11:00:00	4	Temperatura máxima	21.3
143843	7	Sololá	719	Santiago Atitlán	14	Cerro de Oro	4	Abril	2023-04-18T00:00:00	2024-11-08T11:00:00	3	Temperatura mínima	20.6
143844	7	Sololá	719	Santiago Atitlán	14	Cerro de Oro	4	Abril	2023-04-18T00:00:00	2024-11-08T11:00:00	5	Humedad	64
143845	7	Sololá	719	Santiago Atitlán	14	Cerro de Oro	4	Abril	2023-04-18T00:00:00	2024-11-08T11:00:00	6	Velocidad del viento	4.8
143846	7	Sololá	719	Santiago Atitlán	14	Cerro de Oro	4	Abril	2023-04-18T00:00:00	2024-11-08T11:00:00	7	Dirección del viento	4.83
143847	7	Sololá	719	Santiago Atitlán	14	Cerro de Oro	4	Abril	2023-04-18T00:00:00	2024-11-08T11:00:00	1	Precipitación	0
143848	7	Sololá	719	Santiago Atitlán	14	Cerro de Oro	4	Abril	2023-04-18T00:00:00	2024-11-08T11:00:00	8	Radiación solar	844
143849	7	Sololá	719	Santiago Atitlán	14	Cerro de Oro	4	Abril	2023-04-18T00:00:00	2024-11-08T12:00:00	2	Temperatura media	22.8
143850	7	Sololá	719	Santiago Atitlán	14	Cerro de Oro	4	Abril	2023-04-18T00:00:00	2024-11-08T12:00:00	4	Temperatura máxima	23.1
143851	7	Sololá	719	Santiago Atitlán	14	Cerro de Oro	4	Abril	2023-04-18T00:00:00	2024-11-08T12:00:00	3	Temperatura mínima	21.3
143852	7	Sololá	719	Santiago Atitlán	14	Cerro de Oro	4	Abril	2023-04-18T00:00:00	2024-11-08T12:00:00	5	Humedad	65
143853	7	Sololá	719	Santiago Atitlán	14	Cerro de Oro	4	Abril	2023-04-18T00:00:00	2024-11-08T12:00:00	6	Velocidad del viento	9.7
143854	7	Sololá	719	Santiago Atitlán	14	Cerro de Oro	4	Abril	2023-04-18T00:00:00	2024-11-08T12:00:00	7	Dirección del viento	9.66
143855	7	Sololá	719	Santiago Atitlán	14	Cerro de Oro	4	Abril	2023-04-18T00:00:00	2024-11-08T12:00:00	1	Precipitación	0
143856	7	Sololá	719	Santiago Atitlán	14	Cerro de Oro	4	Abril	2023-04-18T00:00:00	2024-11-08T12:00:00	8	Radiación solar	806
143857	7	Sololá	719	Santiago Atitlán	14	Cerro de Oro	4	Abril	2023-04-18T00:00:00	2024-11-08T13:00:00	2	Temperatura media	22.5
143858	7	Sololá	719	Santiago Atitlán	14	Cerro de Oro	4	Abril	2023-04-18T00:00:00	2024-11-08T13:00:00	4	Temperatura máxima	23.1
143859	7	Sololá	719	Santiago Atitlán	14	Cerro de Oro	4	Abril	2023-04-18T00:00:00	2024-11-08T13:00:00	3	Temperatura mínima	22.2
143860	7	Sololá	719	Santiago Atitlán	14	Cerro de Oro	4	Abril	2023-04-18T00:00:00	2024-11-08T13:00:00	5	Humedad	69
143861	7	Sololá	719	Santiago Atitlán	14	Cerro de Oro	4	Abril	2023-04-18T00:00:00	2024-11-08T13:00:00	6	Velocidad del viento	12.9
143862	7	Sololá	719	Santiago Atitlán	14	Cerro de Oro	4	Abril	2023-04-18T00:00:00	2024-11-08T13:00:00	7	Dirección del viento	12.87
143863	7	Sololá	719	Santiago Atitlán	14	Cerro de Oro	4	Abril	2023-04-18T00:00:00	2024-11-08T13:00:00	1	Precipitación	0
143864	7	Sololá	719	Santiago Atitlán	14	Cerro de Oro	4	Abril	2023-04-18T00:00:00	2024-11-08T13:00:00	8	Radiación solar	836
143865	7	Sololá	719	Santiago Atitlán	14	Cerro de Oro	4	Abril	2023-04-18T00:00:00	2024-11-08T14:00:00	2	Temperatura media	22.2
143866	7	Sololá	719	Santiago Atitlán	14	Cerro de Oro	4	Abril	2023-04-18T00:00:00	2024-11-08T14:00:00	4	Temperatura máxima	23.2
143867	7	Sololá	719	Santiago Atitlán	14	Cerro de Oro	4	Abril	2023-04-18T00:00:00	2024-11-08T14:00:00	3	Temperatura mínima	21.9
143868	7	Sololá	719	Santiago Atitlán	14	Cerro de Oro	4	Abril	2023-04-18T00:00:00	2024-11-08T14:00:00	5	Humedad	67
143869	7	Sololá	719	Santiago Atitlán	14	Cerro de Oro	4	Abril	2023-04-18T00:00:00	2024-11-08T14:00:00	6	Velocidad del viento	12.9
143870	7	Sololá	719	Santiago Atitlán	14	Cerro de Oro	4	Abril	2023-04-18T00:00:00	2024-11-08T14:00:00	7	Dirección del viento	12.87
143871	7	Sololá	719	Santiago Atitlán	14	Cerro de Oro	4	Abril	2023-04-18T00:00:00	2024-11-08T14:00:00	1	Precipitación	0
143872	7	Sololá	719	Santiago Atitlán	14	Cerro de Oro	4	Abril	2023-04-18T00:00:00	2024-11-08T14:00:00	8	Radiación solar	382
143873	7	Sololá	719	Santiago Atitlán	14	Cerro de Oro	4	Abril	2023-04-18T00:00:00	2024-11-08T15:00:00	2	Temperatura media	22
143874	7	Sololá	719	Santiago Atitlán	14	Cerro de Oro	4	Abril	2023-04-18T00:00:00	2024-11-08T15:00:00	4	Temperatura máxima	22.7
143875	7	Sololá	719	Santiago Atitlán	14	Cerro de Oro	4	Abril	2023-04-18T00:00:00	2024-11-08T15:00:00	3	Temperatura mínima	21.9
143876	7	Sololá	719	Santiago Atitlán	14	Cerro de Oro	4	Abril	2023-04-18T00:00:00	2024-11-08T15:00:00	5	Humedad	70
143877	7	Sololá	719	Santiago Atitlán	14	Cerro de Oro	4	Abril	2023-04-18T00:00:00	2024-11-08T15:00:00	6	Velocidad del viento	11.3
143878	7	Sololá	719	Santiago Atitlán	14	Cerro de Oro	4	Abril	2023-04-18T00:00:00	2024-11-08T15:00:00	7	Dirección del viento	11.27
143879	7	Sololá	719	Santiago Atitlán	14	Cerro de Oro	4	Abril	2023-04-18T00:00:00	2024-11-08T15:00:00	1	Precipitación	0
143880	7	Sololá	719	Santiago Atitlán	14	Cerro de Oro	4	Abril	2023-04-18T00:00:00	2024-11-08T15:00:00	8	Radiación solar	202
143881	7	Sololá	719	Santiago Atitlán	14	Cerro de Oro	4	Abril	2023-04-18T00:00:00	2024-11-08T16:00:00	2	Temperatura media	20.7
143882	7	Sololá	719	Santiago Atitlán	14	Cerro de Oro	4	Abril	2023-04-18T00:00:00	2024-11-08T16:00:00	4	Temperatura máxima	22.1
143883	7	Sololá	719	Santiago Atitlán	14	Cerro de Oro	4	Abril	2023-04-18T00:00:00	2024-11-08T16:00:00	3	Temperatura mínima	20.7
143884	7	Sololá	719	Santiago Atitlán	14	Cerro de Oro	4	Abril	2023-04-18T00:00:00	2024-11-08T16:00:00	5	Humedad	75
143885	7	Sololá	719	Santiago Atitlán	14	Cerro de Oro	4	Abril	2023-04-18T00:00:00	2024-11-08T16:00:00	6	Velocidad del viento	11.3
143886	7	Sololá	719	Santiago Atitlán	14	Cerro de Oro	4	Abril	2023-04-18T00:00:00	2024-11-08T16:00:00	7	Dirección del viento	11.27
143887	7	Sololá	719	Santiago Atitlán	14	Cerro de Oro	4	Abril	2023-04-18T00:00:00	2024-11-08T16:00:00	1	Precipitación	0
143888	7	Sololá	719	Santiago Atitlán	14	Cerro de Oro	4	Abril	2023-04-18T00:00:00	2024-11-08T16:00:00	8	Radiación solar	224
143889	7	Sololá	719	Santiago Atitlán	14	Cerro de Oro	4	Abril	2023-04-18T00:00:00	2024-11-08T17:00:00	2	Temperatura media	20.7
143890	7	Sololá	719	Santiago Atitlán	14	Cerro de Oro	4	Abril	2023-04-18T00:00:00	2024-11-08T17:00:00	4	Temperatura máxima	21.4
143891	7	Sololá	719	Santiago Atitlán	14	Cerro de Oro	4	Abril	2023-04-18T00:00:00	2024-11-08T17:00:00	3	Temperatura mínima	20.4
143892	7	Sololá	719	Santiago Atitlán	14	Cerro de Oro	4	Abril	2023-04-18T00:00:00	2024-11-08T17:00:00	5	Humedad	78
143893	7	Sololá	719	Santiago Atitlán	14	Cerro de Oro	4	Abril	2023-04-18T00:00:00	2024-11-08T17:00:00	6	Velocidad del viento	11.3
143894	7	Sololá	719	Santiago Atitlán	14	Cerro de Oro	4	Abril	2023-04-18T00:00:00	2024-11-08T17:00:00	7	Dirección del viento	11.27
143895	7	Sololá	719	Santiago Atitlán	14	Cerro de Oro	4	Abril	2023-04-18T00:00:00	2024-11-08T17:00:00	1	Precipitación	0
143896	7	Sololá	719	Santiago Atitlán	14	Cerro de Oro	4	Abril	2023-04-18T00:00:00	2024-11-08T17:00:00	8	Radiación solar	88
143897	7	Sololá	719	Santiago Atitlán	14	Cerro de Oro	4	Abril	2023-04-18T00:00:00	2024-11-08T18:00:00	2	Temperatura media	19.6
143898	7	Sololá	719	Santiago Atitlán	14	Cerro de Oro	4	Abril	2023-04-18T00:00:00	2024-11-08T18:00:00	4	Temperatura máxima	20.7
143899	7	Sololá	719	Santiago Atitlán	14	Cerro de Oro	4	Abril	2023-04-18T00:00:00	2024-11-08T18:00:00	3	Temperatura mínima	19.6
143900	7	Sololá	719	Santiago Atitlán	14	Cerro de Oro	4	Abril	2023-04-18T00:00:00	2024-11-08T18:00:00	5	Humedad	82
143901	7	Sololá	719	Santiago Atitlán	14	Cerro de Oro	4	Abril	2023-04-18T00:00:00	2024-11-08T18:00:00	6	Velocidad del viento	11.3
143902	7	Sololá	719	Santiago Atitlán	14	Cerro de Oro	4	Abril	2023-04-18T00:00:00	2024-11-08T18:00:00	7	Dirección del viento	11.27
143903	7	Sololá	719	Santiago Atitlán	14	Cerro de Oro	4	Abril	2023-04-18T00:00:00	2024-11-08T18:00:00	1	Precipitación	0
143904	7	Sololá	719	Santiago Atitlán	14	Cerro de Oro	4	Abril	2023-04-18T00:00:00	2024-11-08T18:00:00	8	Radiación solar	25
143905	7	Sololá	719	Santiago Atitlán	14	Cerro de Oro	4	Abril	2023-04-18T00:00:00	2024-11-08T19:00:00	2	Temperatura media	19.4
143906	7	Sololá	719	Santiago Atitlán	14	Cerro de Oro	4	Abril	2023-04-18T00:00:00	2024-11-08T19:00:00	4	Temperatura máxima	19.7
143907	7	Sololá	719	Santiago Atitlán	14	Cerro de Oro	4	Abril	2023-04-18T00:00:00	2024-11-08T19:00:00	3	Temperatura mínima	19.4
143908	7	Sololá	719	Santiago Atitlán	14	Cerro de Oro	4	Abril	2023-04-18T00:00:00	2024-11-08T19:00:00	5	Humedad	83
143909	7	Sololá	719	Santiago Atitlán	14	Cerro de Oro	4	Abril	2023-04-18T00:00:00	2024-11-08T19:00:00	6	Velocidad del viento	4.8
143910	7	Sololá	719	Santiago Atitlán	14	Cerro de Oro	4	Abril	2023-04-18T00:00:00	2024-11-08T19:00:00	7	Dirección del viento	4.83
143911	7	Sololá	719	Santiago Atitlán	14	Cerro de Oro	4	Abril	2023-04-18T00:00:00	2024-11-08T19:00:00	1	Precipitación	0
143912	7	Sololá	719	Santiago Atitlán	14	Cerro de Oro	4	Abril	2023-04-18T00:00:00	2024-11-08T19:00:00	8	Radiación solar	0
143913	7	Sololá	719	Santiago Atitlán	14	Cerro de Oro	4	Abril	2023-04-18T00:00:00	2024-11-08T20:00:00	2	Temperatura media	18.8
143914	7	Sololá	719	Santiago Atitlán	14	Cerro de Oro	4	Abril	2023-04-18T00:00:00	2024-11-08T20:00:00	4	Temperatura máxima	19.4
143915	7	Sololá	719	Santiago Atitlán	14	Cerro de Oro	4	Abril	2023-04-18T00:00:00	2024-11-08T20:00:00	3	Temperatura mínima	18.8
143916	7	Sololá	719	Santiago Atitlán	14	Cerro de Oro	4	Abril	2023-04-18T00:00:00	2024-11-08T20:00:00	5	Humedad	85
143917	7	Sololá	719	Santiago Atitlán	14	Cerro de Oro	4	Abril	2023-04-18T00:00:00	2024-11-08T20:00:00	6	Velocidad del viento	3.2
143918	7	Sololá	719	Santiago Atitlán	14	Cerro de Oro	4	Abril	2023-04-18T00:00:00	2024-11-08T20:00:00	7	Dirección del viento	3.22
143919	7	Sololá	719	Santiago Atitlán	14	Cerro de Oro	4	Abril	2023-04-18T00:00:00	2024-11-08T20:00:00	1	Precipitación	0
143920	7	Sololá	719	Santiago Atitlán	14	Cerro de Oro	4	Abril	2023-04-18T00:00:00	2024-11-08T20:00:00	8	Radiación solar	0
143921	7	Sololá	719	Santiago Atitlán	14	Cerro de Oro	4	Abril	2023-04-18T00:00:00	2024-11-08T21:00:00	2	Temperatura media	18.5
143922	7	Sololá	719	Santiago Atitlán	14	Cerro de Oro	4	Abril	2023-04-18T00:00:00	2024-11-08T21:00:00	4	Temperatura máxima	18.8
143923	7	Sololá	719	Santiago Atitlán	14	Cerro de Oro	4	Abril	2023-04-18T00:00:00	2024-11-08T21:00:00	3	Temperatura mínima	18.5
143924	7	Sololá	719	Santiago Atitlán	14	Cerro de Oro	4	Abril	2023-04-18T00:00:00	2024-11-08T21:00:00	5	Humedad	85
143925	7	Sololá	719	Santiago Atitlán	14	Cerro de Oro	4	Abril	2023-04-18T00:00:00	2024-11-08T21:00:00	6	Velocidad del viento	3.2
143926	7	Sololá	719	Santiago Atitlán	14	Cerro de Oro	4	Abril	2023-04-18T00:00:00	2024-11-08T21:00:00	7	Dirección del viento	3.22
143927	7	Sololá	719	Santiago Atitlán	14	Cerro de Oro	4	Abril	2023-04-18T00:00:00	2024-11-08T21:00:00	1	Precipitación	0
143928	7	Sololá	719	Santiago Atitlán	14	Cerro de Oro	4	Abril	2023-04-18T00:00:00	2024-11-08T21:00:00	8	Radiación solar	0
143929	7	Sololá	719	Santiago Atitlán	14	Cerro de Oro	4	Abril	2023-04-18T00:00:00	2024-11-08T22:00:00	2	Temperatura media	18.4
143930	7	Sololá	719	Santiago Atitlán	14	Cerro de Oro	4	Abril	2023-04-18T00:00:00	2024-11-08T22:00:00	4	Temperatura máxima	18.7
143931	7	Sololá	719	Santiago Atitlán	14	Cerro de Oro	4	Abril	2023-04-18T00:00:00	2024-11-08T22:00:00	3	Temperatura mínima	18.4
143932	7	Sololá	719	Santiago Atitlán	14	Cerro de Oro	4	Abril	2023-04-18T00:00:00	2024-11-08T22:00:00	5	Humedad	85
143933	7	Sololá	719	Santiago Atitlán	14	Cerro de Oro	4	Abril	2023-04-18T00:00:00	2024-11-08T22:00:00	6	Velocidad del viento	3.2
143934	7	Sololá	719	Santiago Atitlán	14	Cerro de Oro	4	Abril	2023-04-18T00:00:00	2024-11-08T22:00:00	7	Dirección del viento	3.22
143935	7	Sololá	719	Santiago Atitlán	14	Cerro de Oro	4	Abril	2023-04-18T00:00:00	2024-11-08T22:00:00	1	Precipitación	0
143936	7	Sololá	719	Santiago Atitlán	14	Cerro de Oro	4	Abril	2023-04-18T00:00:00	2024-11-08T22:00:00	8	Radiación solar	0
143937	7	Sololá	719	Santiago Atitlán	14	Cerro de Oro	4	Abril	2023-04-18T00:00:00	2024-11-08T23:00:00	2	Temperatura media	18.1
143938	7	Sololá	719	Santiago Atitlán	14	Cerro de Oro	4	Abril	2023-04-18T00:00:00	2024-11-08T23:00:00	4	Temperatura máxima	18.4
143939	7	Sololá	719	Santiago Atitlán	14	Cerro de Oro	4	Abril	2023-04-18T00:00:00	2024-11-08T23:00:00	3	Temperatura mínima	17.6
143940	7	Sololá	719	Santiago Atitlán	14	Cerro de Oro	4	Abril	2023-04-18T00:00:00	2024-11-08T23:00:00	5	Humedad	86
143941	7	Sololá	719	Santiago Atitlán	14	Cerro de Oro	4	Abril	2023-04-18T00:00:00	2024-11-08T23:00:00	6	Velocidad del viento	3.2
143942	7	Sololá	719	Santiago Atitlán	14	Cerro de Oro	4	Abril	2023-04-18T00:00:00	2024-11-08T23:00:00	7	Dirección del viento	3.22
143943	7	Sololá	719	Santiago Atitlán	14	Cerro de Oro	4	Abril	2023-04-18T00:00:00	2024-11-08T23:00:00	1	Precipitación	0
143944	7	Sololá	719	Santiago Atitlán	14	Cerro de Oro	4	Abril	2023-04-18T00:00:00	2024-11-08T23:00:00	8	Radiación solar	0
143945	7	Sololá	719	Santiago Atitlán	14	Cerro de Oro	4	Abril	2023-04-19T00:00:00	2024-11-08T00:00:00	2	Temperatura media	18.7
143946	7	Sololá	719	Santiago Atitlán	14	Cerro de Oro	4	Abril	2023-04-19T00:00:00	2024-11-08T00:00:00	4	Temperatura máxima	18.8
143947	7	Sololá	719	Santiago Atitlán	14	Cerro de Oro	4	Abril	2023-04-19T00:00:00	2024-11-08T00:00:00	3	Temperatura mínima	18
143948	7	Sololá	719	Santiago Atitlán	14	Cerro de Oro	4	Abril	2023-04-19T00:00:00	2024-11-08T00:00:00	5	Humedad	82
143949	7	Sololá	719	Santiago Atitlán	14	Cerro de Oro	4	Abril	2023-04-19T00:00:00	2024-11-08T00:00:00	6	Velocidad del viento	4.8
143950	7	Sololá	719	Santiago Atitlán	14	Cerro de Oro	4	Abril	2023-04-19T00:00:00	2024-11-08T00:00:00	7	Dirección del viento	4.83
143951	7	Sololá	719	Santiago Atitlán	14	Cerro de Oro	4	Abril	2023-04-19T00:00:00	2024-11-08T00:00:00	1	Precipitación	0
143952	7	Sololá	719	Santiago Atitlán	14	Cerro de Oro	4	Abril	2023-04-19T00:00:00	2024-11-08T00:00:00	8	Radiación solar	0
143953	7	Sololá	719	Santiago Atitlán	14	Cerro de Oro	4	Abril	2023-04-19T00:00:00	2024-11-08T01:00:00	2	Temperatura media	18.2
143954	7	Sololá	719	Santiago Atitlán	14	Cerro de Oro	4	Abril	2023-04-19T00:00:00	2024-11-08T01:00:00	4	Temperatura máxima	18.7
143955	7	Sololá	719	Santiago Atitlán	14	Cerro de Oro	4	Abril	2023-04-19T00:00:00	2024-11-08T01:00:00	3	Temperatura mínima	18.1
143956	7	Sololá	719	Santiago Atitlán	14	Cerro de Oro	4	Abril	2023-04-19T00:00:00	2024-11-08T01:00:00	5	Humedad	79
143957	7	Sololá	719	Santiago Atitlán	14	Cerro de Oro	4	Abril	2023-04-19T00:00:00	2024-11-08T01:00:00	6	Velocidad del viento	4.8
143958	7	Sololá	719	Santiago Atitlán	14	Cerro de Oro	4	Abril	2023-04-19T00:00:00	2024-11-08T01:00:00	7	Dirección del viento	4.83
143959	7	Sololá	719	Santiago Atitlán	14	Cerro de Oro	4	Abril	2023-04-19T00:00:00	2024-11-08T01:00:00	1	Precipitación	0
143960	7	Sololá	719	Santiago Atitlán	14	Cerro de Oro	4	Abril	2023-04-19T00:00:00	2024-11-08T01:00:00	8	Radiación solar	0
143961	7	Sololá	719	Santiago Atitlán	14	Cerro de Oro	4	Abril	2023-04-19T00:00:00	2024-11-08T02:00:00	2	Temperatura media	18.3
143962	7	Sololá	719	Santiago Atitlán	14	Cerro de Oro	4	Abril	2023-04-19T00:00:00	2024-11-08T02:00:00	4	Temperatura máxima	18.3
143963	7	Sololá	719	Santiago Atitlán	14	Cerro de Oro	4	Abril	2023-04-19T00:00:00	2024-11-08T02:00:00	3	Temperatura mínima	17.9
143964	7	Sololá	719	Santiago Atitlán	14	Cerro de Oro	4	Abril	2023-04-19T00:00:00	2024-11-08T02:00:00	5	Humedad	74
143965	7	Sololá	719	Santiago Atitlán	14	Cerro de Oro	4	Abril	2023-04-19T00:00:00	2024-11-08T02:00:00	6	Velocidad del viento	4.8
143966	7	Sololá	719	Santiago Atitlán	14	Cerro de Oro	4	Abril	2023-04-19T00:00:00	2024-11-08T02:00:00	7	Dirección del viento	4.83
143967	7	Sololá	719	Santiago Atitlán	14	Cerro de Oro	4	Abril	2023-04-19T00:00:00	2024-11-08T02:00:00	1	Precipitación	0
143968	7	Sololá	719	Santiago Atitlán	14	Cerro de Oro	4	Abril	2023-04-19T00:00:00	2024-11-08T02:00:00	8	Radiación solar	0
143969	7	Sololá	719	Santiago Atitlán	14	Cerro de Oro	4	Abril	2023-04-19T00:00:00	2024-11-08T03:00:00	2	Temperatura media	18.1
143970	7	Sololá	719	Santiago Atitlán	14	Cerro de Oro	4	Abril	2023-04-19T00:00:00	2024-11-08T03:00:00	4	Temperatura máxima	18.5
143971	7	Sololá	719	Santiago Atitlán	14	Cerro de Oro	4	Abril	2023-04-19T00:00:00	2024-11-08T03:00:00	3	Temperatura mínima	18
143972	7	Sololá	719	Santiago Atitlán	14	Cerro de Oro	4	Abril	2023-04-19T00:00:00	2024-11-08T03:00:00	5	Humedad	73
143973	7	Sololá	719	Santiago Atitlán	14	Cerro de Oro	4	Abril	2023-04-19T00:00:00	2024-11-08T03:00:00	6	Velocidad del viento	4.8
143974	7	Sololá	719	Santiago Atitlán	14	Cerro de Oro	4	Abril	2023-04-19T00:00:00	2024-11-08T03:00:00	7	Dirección del viento	4.83
143975	7	Sololá	719	Santiago Atitlán	14	Cerro de Oro	4	Abril	2023-04-19T00:00:00	2024-11-08T03:00:00	1	Precipitación	0
143976	7	Sololá	719	Santiago Atitlán	14	Cerro de Oro	4	Abril	2023-04-19T00:00:00	2024-11-08T03:00:00	8	Radiación solar	0
143977	7	Sololá	719	Santiago Atitlán	14	Cerro de Oro	4	Abril	2023-04-19T00:00:00	2024-11-08T04:00:00	2	Temperatura media	17.4
143978	7	Sololá	719	Santiago Atitlán	14	Cerro de Oro	4	Abril	2023-04-19T00:00:00	2024-11-08T04:00:00	4	Temperatura máxima	18.2
143979	7	Sololá	719	Santiago Atitlán	14	Cerro de Oro	4	Abril	2023-04-19T00:00:00	2024-11-08T04:00:00	3	Temperatura mínima	17.4
143980	7	Sololá	719	Santiago Atitlán	14	Cerro de Oro	4	Abril	2023-04-19T00:00:00	2024-11-08T04:00:00	5	Humedad	75
143981	7	Sololá	719	Santiago Atitlán	14	Cerro de Oro	4	Abril	2023-04-19T00:00:00	2024-11-08T04:00:00	6	Velocidad del viento	4.8
143982	7	Sololá	719	Santiago Atitlán	14	Cerro de Oro	4	Abril	2023-04-19T00:00:00	2024-11-08T04:00:00	7	Dirección del viento	4.83
143983	7	Sololá	719	Santiago Atitlán	14	Cerro de Oro	4	Abril	2023-04-19T00:00:00	2024-11-08T04:00:00	1	Precipitación	0
143984	7	Sololá	719	Santiago Atitlán	14	Cerro de Oro	4	Abril	2023-04-19T00:00:00	2024-11-08T04:00:00	8	Radiación solar	0
143985	7	Sololá	719	Santiago Atitlán	14	Cerro de Oro	4	Abril	2023-04-19T00:00:00	2024-11-08T05:00:00	2	Temperatura media	17.2
143986	7	Sololá	719	Santiago Atitlán	14	Cerro de Oro	4	Abril	2023-04-19T00:00:00	2024-11-08T05:00:00	4	Temperatura máxima	17.8
143987	7	Sololá	719	Santiago Atitlán	14	Cerro de Oro	4	Abril	2023-04-19T00:00:00	2024-11-08T05:00:00	3	Temperatura mínima	16.9
143988	7	Sololá	719	Santiago Atitlán	14	Cerro de Oro	4	Abril	2023-04-19T00:00:00	2024-11-08T05:00:00	5	Humedad	76
143989	7	Sololá	719	Santiago Atitlán	14	Cerro de Oro	4	Abril	2023-04-19T00:00:00	2024-11-08T05:00:00	6	Velocidad del viento	3.2
143990	7	Sololá	719	Santiago Atitlán	14	Cerro de Oro	4	Abril	2023-04-19T00:00:00	2024-11-08T05:00:00	7	Dirección del viento	3.22
143991	7	Sololá	719	Santiago Atitlán	14	Cerro de Oro	4	Abril	2023-04-19T00:00:00	2024-11-08T05:00:00	1	Precipitación	0
143992	7	Sololá	719	Santiago Atitlán	14	Cerro de Oro	4	Abril	2023-04-19T00:00:00	2024-11-08T05:00:00	8	Radiación solar	0
143993	7	Sololá	719	Santiago Atitlán	14	Cerro de Oro	4	Abril	2023-04-19T00:00:00	2024-11-08T06:00:00	2	Temperatura media	16.8
143994	7	Sololá	719	Santiago Atitlán	14	Cerro de Oro	4	Abril	2023-04-19T00:00:00	2024-11-08T06:00:00	4	Temperatura máxima	17.6
143995	7	Sololá	719	Santiago Atitlán	14	Cerro de Oro	4	Abril	2023-04-19T00:00:00	2024-11-08T06:00:00	3	Temperatura mínima	16.8
143996	7	Sololá	719	Santiago Atitlán	14	Cerro de Oro	4	Abril	2023-04-19T00:00:00	2024-11-08T06:00:00	5	Humedad	74
143997	7	Sololá	719	Santiago Atitlán	14	Cerro de Oro	4	Abril	2023-04-19T00:00:00	2024-11-08T06:00:00	6	Velocidad del viento	3.2
143998	7	Sololá	719	Santiago Atitlán	14	Cerro de Oro	4	Abril	2023-04-19T00:00:00	2024-11-08T06:00:00	7	Dirección del viento	3.22
143999	7	Sololá	719	Santiago Atitlán	14	Cerro de Oro	4	Abril	2023-04-19T00:00:00	2024-11-08T06:00:00	1	Precipitación	0
144000	7	Sololá	719	Santiago Atitlán	14	Cerro de Oro	4	Abril	2023-04-19T00:00:00	2024-11-08T06:00:00	8	Radiación solar	2
144001	7	Sololá	719	Santiago Atitlán	14	Cerro de Oro	4	Abril	2023-04-19T00:00:00	2024-11-08T07:00:00	2	Temperatura media	16.4
144002	7	Sololá	719	Santiago Atitlán	14	Cerro de Oro	4	Abril	2023-04-19T00:00:00	2024-11-08T07:00:00	4	Temperatura máxima	16.8
144003	7	Sololá	719	Santiago Atitlán	14	Cerro de Oro	4	Abril	2023-04-19T00:00:00	2024-11-08T07:00:00	3	Temperatura mínima	15.9
144004	7	Sololá	719	Santiago Atitlán	14	Cerro de Oro	4	Abril	2023-04-19T00:00:00	2024-11-08T07:00:00	5	Humedad	69
144005	7	Sololá	719	Santiago Atitlán	14	Cerro de Oro	4	Abril	2023-04-19T00:00:00	2024-11-08T07:00:00	6	Velocidad del viento	3.2
144006	7	Sololá	719	Santiago Atitlán	14	Cerro de Oro	4	Abril	2023-04-19T00:00:00	2024-11-08T07:00:00	7	Dirección del viento	3.22
144007	7	Sololá	719	Santiago Atitlán	14	Cerro de Oro	4	Abril	2023-04-19T00:00:00	2024-11-08T07:00:00	1	Precipitación	0
144008	7	Sololá	719	Santiago Atitlán	14	Cerro de Oro	4	Abril	2023-04-19T00:00:00	2024-11-08T07:00:00	8	Radiación solar	90
144009	7	Sololá	719	Santiago Atitlán	14	Cerro de Oro	4	Abril	2023-04-19T00:00:00	2024-11-08T08:00:00	2	Temperatura media	18.1
144010	7	Sololá	719	Santiago Atitlán	14	Cerro de Oro	4	Abril	2023-04-19T00:00:00	2024-11-08T08:00:00	4	Temperatura máxima	18.1
144011	7	Sololá	719	Santiago Atitlán	14	Cerro de Oro	4	Abril	2023-04-19T00:00:00	2024-11-08T08:00:00	3	Temperatura mínima	16.4
144012	7	Sololá	719	Santiago Atitlán	14	Cerro de Oro	4	Abril	2023-04-19T00:00:00	2024-11-08T08:00:00	5	Humedad	65
144013	7	Sololá	719	Santiago Atitlán	14	Cerro de Oro	4	Abril	2023-04-19T00:00:00	2024-11-08T08:00:00	6	Velocidad del viento	4.8
144014	7	Sololá	719	Santiago Atitlán	14	Cerro de Oro	4	Abril	2023-04-19T00:00:00	2024-11-08T08:00:00	7	Dirección del viento	4.83
144015	7	Sololá	719	Santiago Atitlán	14	Cerro de Oro	4	Abril	2023-04-19T00:00:00	2024-11-08T08:00:00	1	Precipitación	0
144016	7	Sololá	719	Santiago Atitlán	14	Cerro de Oro	4	Abril	2023-04-19T00:00:00	2024-11-08T08:00:00	8	Radiación solar	291
144017	7	Sololá	719	Santiago Atitlán	14	Cerro de Oro	4	Abril	2023-04-19T00:00:00	2024-11-08T09:00:00	2	Temperatura media	19.7
144018	7	Sololá	719	Santiago Atitlán	14	Cerro de Oro	4	Abril	2023-04-19T00:00:00	2024-11-08T09:00:00	4	Temperatura máxima	19.7
144019	7	Sololá	719	Santiago Atitlán	14	Cerro de Oro	4	Abril	2023-04-19T00:00:00	2024-11-08T09:00:00	3	Temperatura mínima	18.1
144020	7	Sololá	719	Santiago Atitlán	14	Cerro de Oro	4	Abril	2023-04-19T00:00:00	2024-11-08T09:00:00	5	Humedad	60
144021	7	Sololá	719	Santiago Atitlán	14	Cerro de Oro	4	Abril	2023-04-19T00:00:00	2024-11-08T09:00:00	6	Velocidad del viento	3.2
144022	7	Sololá	719	Santiago Atitlán	14	Cerro de Oro	4	Abril	2023-04-19T00:00:00	2024-11-08T09:00:00	7	Dirección del viento	3.22
144023	7	Sololá	719	Santiago Atitlán	14	Cerro de Oro	4	Abril	2023-04-19T00:00:00	2024-11-08T09:00:00	1	Precipitación	0
144024	7	Sololá	719	Santiago Atitlán	14	Cerro de Oro	4	Abril	2023-04-19T00:00:00	2024-11-08T09:00:00	8	Radiación solar	524
144025	7	Sololá	719	Santiago Atitlán	14	Cerro de Oro	4	Abril	2023-04-19T00:00:00	2024-11-08T10:00:00	2	Temperatura media	20.4
144026	7	Sololá	719	Santiago Atitlán	14	Cerro de Oro	4	Abril	2023-04-19T00:00:00	2024-11-08T10:00:00	4	Temperatura máxima	20.8
144027	7	Sololá	719	Santiago Atitlán	14	Cerro de Oro	4	Abril	2023-04-19T00:00:00	2024-11-08T10:00:00	3	Temperatura mínima	19.7
144028	7	Sololá	719	Santiago Atitlán	14	Cerro de Oro	4	Abril	2023-04-19T00:00:00	2024-11-08T10:00:00	5	Humedad	66
144029	7	Sololá	719	Santiago Atitlán	14	Cerro de Oro	4	Abril	2023-04-19T00:00:00	2024-11-08T10:00:00	6	Velocidad del viento	4.8
144030	7	Sololá	719	Santiago Atitlán	14	Cerro de Oro	4	Abril	2023-04-19T00:00:00	2024-11-08T10:00:00	7	Dirección del viento	4.83
144031	7	Sololá	719	Santiago Atitlán	14	Cerro de Oro	4	Abril	2023-04-19T00:00:00	2024-11-08T10:00:00	1	Precipitación	0
144032	7	Sololá	719	Santiago Atitlán	14	Cerro de Oro	4	Abril	2023-04-19T00:00:00	2024-11-08T10:00:00	8	Radiación solar	619
144033	7	Sololá	719	Santiago Atitlán	14	Cerro de Oro	4	Abril	2023-04-19T00:00:00	2024-11-08T11:00:00	2	Temperatura media	21.1
144034	7	Sololá	719	Santiago Atitlán	14	Cerro de Oro	4	Abril	2023-04-19T00:00:00	2024-11-08T11:00:00	4	Temperatura máxima	21.3
144035	7	Sololá	719	Santiago Atitlán	14	Cerro de Oro	4	Abril	2023-04-19T00:00:00	2024-11-08T11:00:00	3	Temperatura mínima	20.3
144036	7	Sololá	719	Santiago Atitlán	14	Cerro de Oro	4	Abril	2023-04-19T00:00:00	2024-11-08T11:00:00	5	Humedad	60
144037	7	Sololá	719	Santiago Atitlán	14	Cerro de Oro	4	Abril	2023-04-19T00:00:00	2024-11-08T11:00:00	6	Velocidad del viento	4.8
144038	7	Sololá	719	Santiago Atitlán	14	Cerro de Oro	4	Abril	2023-04-19T00:00:00	2024-11-08T11:00:00	7	Dirección del viento	4.83
144039	7	Sololá	719	Santiago Atitlán	14	Cerro de Oro	4	Abril	2023-04-19T00:00:00	2024-11-08T11:00:00	1	Precipitación	0
144040	7	Sololá	719	Santiago Atitlán	14	Cerro de Oro	4	Abril	2023-04-19T00:00:00	2024-11-08T11:00:00	8	Radiación solar	840
144041	7	Sololá	719	Santiago Atitlán	14	Cerro de Oro	4	Abril	2023-04-19T00:00:00	2024-11-08T12:00:00	2	Temperatura media	23.3
144042	7	Sololá	719	Santiago Atitlán	14	Cerro de Oro	4	Abril	2023-04-19T00:00:00	2024-11-08T12:00:00	4	Temperatura máxima	23.4
144043	7	Sololá	719	Santiago Atitlán	14	Cerro de Oro	4	Abril	2023-04-19T00:00:00	2024-11-08T12:00:00	3	Temperatura mínima	21.1
144044	7	Sololá	719	Santiago Atitlán	14	Cerro de Oro	4	Abril	2023-04-19T00:00:00	2024-11-08T12:00:00	5	Humedad	66
144045	7	Sololá	719	Santiago Atitlán	14	Cerro de Oro	4	Abril	2023-04-19T00:00:00	2024-11-08T12:00:00	6	Velocidad del viento	8
144046	7	Sololá	719	Santiago Atitlán	14	Cerro de Oro	4	Abril	2023-04-19T00:00:00	2024-11-08T12:00:00	7	Dirección del viento	8.05
144047	7	Sololá	719	Santiago Atitlán	14	Cerro de Oro	4	Abril	2023-04-19T00:00:00	2024-11-08T12:00:00	1	Precipitación	0
144048	7	Sololá	719	Santiago Atitlán	14	Cerro de Oro	4	Abril	2023-04-19T00:00:00	2024-11-08T12:00:00	8	Radiación solar	956
144049	7	Sololá	719	Santiago Atitlán	14	Cerro de Oro	4	Abril	2023-04-19T00:00:00	2024-11-08T13:00:00	2	Temperatura media	23.6
144050	7	Sololá	719	Santiago Atitlán	14	Cerro de Oro	4	Abril	2023-04-19T00:00:00	2024-11-08T13:00:00	4	Temperatura máxima	23.8
144051	7	Sololá	719	Santiago Atitlán	14	Cerro de Oro	4	Abril	2023-04-19T00:00:00	2024-11-08T13:00:00	3	Temperatura mínima	23
144052	7	Sololá	719	Santiago Atitlán	14	Cerro de Oro	4	Abril	2023-04-19T00:00:00	2024-11-08T13:00:00	5	Humedad	70
144053	7	Sololá	719	Santiago Atitlán	14	Cerro de Oro	4	Abril	2023-04-19T00:00:00	2024-11-08T13:00:00	6	Velocidad del viento	14.5
144054	7	Sololá	719	Santiago Atitlán	14	Cerro de Oro	4	Abril	2023-04-19T00:00:00	2024-11-08T13:00:00	7	Dirección del viento	14.48
144055	7	Sololá	719	Santiago Atitlán	14	Cerro de Oro	4	Abril	2023-04-19T00:00:00	2024-11-08T13:00:00	1	Precipitación	0
144056	7	Sololá	719	Santiago Atitlán	14	Cerro de Oro	4	Abril	2023-04-19T00:00:00	2024-11-08T13:00:00	8	Radiación solar	989
144057	7	Sololá	719	Santiago Atitlán	14	Cerro de Oro	4	Abril	2023-04-19T00:00:00	2024-11-08T14:00:00	2	Temperatura media	23.8
144058	7	Sololá	719	Santiago Atitlán	14	Cerro de Oro	4	Abril	2023-04-19T00:00:00	2024-11-08T14:00:00	4	Temperatura máxima	23.8
144059	7	Sololá	719	Santiago Atitlán	14	Cerro de Oro	4	Abril	2023-04-19T00:00:00	2024-11-08T14:00:00	3	Temperatura mínima	23.1
144060	7	Sololá	719	Santiago Atitlán	14	Cerro de Oro	4	Abril	2023-04-19T00:00:00	2024-11-08T14:00:00	5	Humedad	70
144061	7	Sololá	719	Santiago Atitlán	14	Cerro de Oro	4	Abril	2023-04-19T00:00:00	2024-11-08T14:00:00	6	Velocidad del viento	14.5
144062	7	Sololá	719	Santiago Atitlán	14	Cerro de Oro	4	Abril	2023-04-19T00:00:00	2024-11-08T14:00:00	7	Dirección del viento	14.48
144063	7	Sololá	719	Santiago Atitlán	14	Cerro de Oro	4	Abril	2023-04-19T00:00:00	2024-11-08T14:00:00	1	Precipitación	0
144064	7	Sololá	719	Santiago Atitlán	14	Cerro de Oro	4	Abril	2023-04-19T00:00:00	2024-11-08T14:00:00	8	Radiación solar	591
144065	7	Sololá	719	Santiago Atitlán	14	Cerro de Oro	4	Abril	2023-04-19T00:00:00	2024-11-08T15:00:00	2	Temperatura media	22.9
144066	7	Sololá	719	Santiago Atitlán	14	Cerro de Oro	4	Abril	2023-04-19T00:00:00	2024-11-08T15:00:00	4	Temperatura máxima	23.8
144067	7	Sololá	719	Santiago Atitlán	14	Cerro de Oro	4	Abril	2023-04-19T00:00:00	2024-11-08T15:00:00	3	Temperatura mínima	22.7
144068	7	Sololá	719	Santiago Atitlán	14	Cerro de Oro	4	Abril	2023-04-19T00:00:00	2024-11-08T15:00:00	5	Humedad	73
144069	7	Sololá	719	Santiago Atitlán	14	Cerro de Oro	4	Abril	2023-04-19T00:00:00	2024-11-08T15:00:00	6	Velocidad del viento	14.5
144070	7	Sololá	719	Santiago Atitlán	14	Cerro de Oro	4	Abril	2023-04-19T00:00:00	2024-11-08T15:00:00	7	Dirección del viento	14.48
144071	7	Sololá	719	Santiago Atitlán	14	Cerro de Oro	4	Abril	2023-04-19T00:00:00	2024-11-08T15:00:00	1	Precipitación	0
144072	7	Sololá	719	Santiago Atitlán	14	Cerro de Oro	4	Abril	2023-04-19T00:00:00	2024-11-08T15:00:00	8	Radiación solar	206
144073	7	Sololá	719	Santiago Atitlán	14	Cerro de Oro	4	Abril	2023-04-19T00:00:00	2024-11-08T16:00:00	2	Temperatura media	22.1
144074	7	Sololá	719	Santiago Atitlán	14	Cerro de Oro	4	Abril	2023-04-19T00:00:00	2024-11-08T16:00:00	4	Temperatura máxima	22.9
144075	7	Sololá	719	Santiago Atitlán	14	Cerro de Oro	4	Abril	2023-04-19T00:00:00	2024-11-08T16:00:00	3	Temperatura mínima	22.1
144076	7	Sololá	719	Santiago Atitlán	14	Cerro de Oro	4	Abril	2023-04-19T00:00:00	2024-11-08T16:00:00	5	Humedad	75
144077	7	Sololá	719	Santiago Atitlán	14	Cerro de Oro	4	Abril	2023-04-19T00:00:00	2024-11-08T16:00:00	6	Velocidad del viento	11.3
144078	7	Sololá	719	Santiago Atitlán	14	Cerro de Oro	4	Abril	2023-04-19T00:00:00	2024-11-08T16:00:00	7	Dirección del viento	11.27
144079	7	Sololá	719	Santiago Atitlán	14	Cerro de Oro	4	Abril	2023-04-19T00:00:00	2024-11-08T16:00:00	1	Precipitación	0
144080	7	Sololá	719	Santiago Atitlán	14	Cerro de Oro	4	Abril	2023-04-19T00:00:00	2024-11-08T16:00:00	8	Radiación solar	129
144081	7	Sololá	719	Santiago Atitlán	14	Cerro de Oro	4	Abril	2023-04-19T00:00:00	2024-11-08T17:00:00	2	Temperatura media	21.7
144082	7	Sololá	719	Santiago Atitlán	14	Cerro de Oro	4	Abril	2023-04-19T00:00:00	2024-11-08T17:00:00	4	Temperatura máxima	22.1
144083	7	Sololá	719	Santiago Atitlán	14	Cerro de Oro	4	Abril	2023-04-19T00:00:00	2024-11-08T17:00:00	3	Temperatura mínima	21.6
144084	7	Sololá	719	Santiago Atitlán	14	Cerro de Oro	4	Abril	2023-04-19T00:00:00	2024-11-08T17:00:00	5	Humedad	77
144085	7	Sololá	719	Santiago Atitlán	14	Cerro de Oro	4	Abril	2023-04-19T00:00:00	2024-11-08T17:00:00	6	Velocidad del viento	11.3
144086	7	Sololá	719	Santiago Atitlán	14	Cerro de Oro	4	Abril	2023-04-19T00:00:00	2024-11-08T17:00:00	7	Dirección del viento	11.27
144087	7	Sololá	719	Santiago Atitlán	14	Cerro de Oro	4	Abril	2023-04-19T00:00:00	2024-11-08T17:00:00	1	Precipitación	0
144088	7	Sololá	719	Santiago Atitlán	14	Cerro de Oro	4	Abril	2023-04-19T00:00:00	2024-11-08T17:00:00	8	Radiación solar	116
144089	7	Sololá	719	Santiago Atitlán	14	Cerro de Oro	4	Abril	2023-04-19T00:00:00	2024-11-08T18:00:00	2	Temperatura media	21.1
144090	7	Sololá	719	Santiago Atitlán	14	Cerro de Oro	4	Abril	2023-04-19T00:00:00	2024-11-08T18:00:00	4	Temperatura máxima	21.8
144091	7	Sololá	719	Santiago Atitlán	14	Cerro de Oro	4	Abril	2023-04-19T00:00:00	2024-11-08T18:00:00	3	Temperatura mínima	21.1
144092	7	Sololá	719	Santiago Atitlán	14	Cerro de Oro	4	Abril	2023-04-19T00:00:00	2024-11-08T18:00:00	5	Humedad	82
144093	7	Sololá	719	Santiago Atitlán	14	Cerro de Oro	4	Abril	2023-04-19T00:00:00	2024-11-08T18:00:00	6	Velocidad del viento	8
144094	7	Sololá	719	Santiago Atitlán	14	Cerro de Oro	4	Abril	2023-04-19T00:00:00	2024-11-08T18:00:00	7	Dirección del viento	8.05
144095	7	Sololá	719	Santiago Atitlán	14	Cerro de Oro	4	Abril	2023-04-19T00:00:00	2024-11-08T18:00:00	1	Precipitación	0
144096	7	Sololá	719	Santiago Atitlán	14	Cerro de Oro	4	Abril	2023-04-19T00:00:00	2024-11-08T18:00:00	8	Radiación solar	48
144097	7	Sololá	719	Santiago Atitlán	14	Cerro de Oro	4	Abril	2023-04-19T00:00:00	2024-11-08T19:00:00	2	Temperatura media	19.4
144098	7	Sololá	719	Santiago Atitlán	14	Cerro de Oro	4	Abril	2023-04-19T00:00:00	2024-11-08T19:00:00	4	Temperatura máxima	21.1
144099	7	Sololá	719	Santiago Atitlán	14	Cerro de Oro	4	Abril	2023-04-19T00:00:00	2024-11-08T19:00:00	3	Temperatura mínima	19.4
144100	7	Sololá	719	Santiago Atitlán	14	Cerro de Oro	4	Abril	2023-04-19T00:00:00	2024-11-08T19:00:00	5	Humedad	90
144101	7	Sololá	719	Santiago Atitlán	14	Cerro de Oro	4	Abril	2023-04-19T00:00:00	2024-11-08T19:00:00	6	Velocidad del viento	9.7
144102	7	Sololá	719	Santiago Atitlán	14	Cerro de Oro	4	Abril	2023-04-19T00:00:00	2024-11-08T19:00:00	7	Dirección del viento	9.66
144103	7	Sololá	719	Santiago Atitlán	14	Cerro de Oro	4	Abril	2023-04-19T00:00:00	2024-11-08T19:00:00	1	Precipitación	0
144104	7	Sololá	719	Santiago Atitlán	14	Cerro de Oro	4	Abril	2023-04-19T00:00:00	2024-11-08T19:00:00	8	Radiación solar	0
144105	7	Sololá	719	Santiago Atitlán	14	Cerro de Oro	4	Abril	2023-04-19T00:00:00	2024-11-08T20:00:00	2	Temperatura media	19.7
144106	7	Sololá	719	Santiago Atitlán	14	Cerro de Oro	4	Abril	2023-04-19T00:00:00	2024-11-08T20:00:00	4	Temperatura máxima	19.7
144107	7	Sololá	719	Santiago Atitlán	14	Cerro de Oro	4	Abril	2023-04-19T00:00:00	2024-11-08T20:00:00	3	Temperatura mínima	19.3
144108	7	Sololá	719	Santiago Atitlán	14	Cerro de Oro	4	Abril	2023-04-19T00:00:00	2024-11-08T20:00:00	5	Humedad	84
144109	7	Sololá	719	Santiago Atitlán	14	Cerro de Oro	4	Abril	2023-04-19T00:00:00	2024-11-08T20:00:00	6	Velocidad del viento	8
144110	7	Sololá	719	Santiago Atitlán	14	Cerro de Oro	4	Abril	2023-04-19T00:00:00	2024-11-08T20:00:00	7	Dirección del viento	8.05
144111	7	Sololá	719	Santiago Atitlán	14	Cerro de Oro	4	Abril	2023-04-19T00:00:00	2024-11-08T20:00:00	1	Precipitación	0
144112	7	Sololá	719	Santiago Atitlán	14	Cerro de Oro	4	Abril	2023-04-19T00:00:00	2024-11-08T20:00:00	8	Radiación solar	0
144113	7	Sololá	719	Santiago Atitlán	14	Cerro de Oro	4	Abril	2023-04-19T00:00:00	2024-11-08T21:00:00	2	Temperatura media	19.4
144114	7	Sololá	719	Santiago Atitlán	14	Cerro de Oro	4	Abril	2023-04-19T00:00:00	2024-11-08T21:00:00	4	Temperatura máxima	19.8
144115	7	Sololá	719	Santiago Atitlán	14	Cerro de Oro	4	Abril	2023-04-19T00:00:00	2024-11-08T21:00:00	3	Temperatura mínima	19.3
144116	7	Sololá	719	Santiago Atitlán	14	Cerro de Oro	4	Abril	2023-04-19T00:00:00	2024-11-08T21:00:00	5	Humedad	86
144117	7	Sololá	719	Santiago Atitlán	14	Cerro de Oro	4	Abril	2023-04-19T00:00:00	2024-11-08T21:00:00	6	Velocidad del viento	4.8
144118	7	Sololá	719	Santiago Atitlán	14	Cerro de Oro	4	Abril	2023-04-19T00:00:00	2024-11-08T21:00:00	7	Dirección del viento	4.83
144119	7	Sololá	719	Santiago Atitlán	14	Cerro de Oro	4	Abril	2023-04-19T00:00:00	2024-11-08T21:00:00	1	Precipitación	0
144120	7	Sololá	719	Santiago Atitlán	14	Cerro de Oro	4	Abril	2023-04-19T00:00:00	2024-11-08T21:00:00	8	Radiación solar	0
144121	7	Sololá	719	Santiago Atitlán	14	Cerro de Oro	4	Abril	2023-04-19T00:00:00	2024-11-08T22:00:00	2	Temperatura media	19.2
144122	7	Sololá	719	Santiago Atitlán	14	Cerro de Oro	4	Abril	2023-04-19T00:00:00	2024-11-08T22:00:00	4	Temperatura máxima	19.6
144123	7	Sololá	719	Santiago Atitlán	14	Cerro de Oro	4	Abril	2023-04-19T00:00:00	2024-11-08T22:00:00	3	Temperatura mínima	19.2
144124	7	Sololá	719	Santiago Atitlán	14	Cerro de Oro	4	Abril	2023-04-19T00:00:00	2024-11-08T22:00:00	5	Humedad	88
144125	7	Sololá	719	Santiago Atitlán	14	Cerro de Oro	4	Abril	2023-04-19T00:00:00	2024-11-08T22:00:00	6	Velocidad del viento	4.8
144126	7	Sololá	719	Santiago Atitlán	14	Cerro de Oro	4	Abril	2023-04-19T00:00:00	2024-11-08T22:00:00	7	Dirección del viento	4.83
144127	7	Sololá	719	Santiago Atitlán	14	Cerro de Oro	4	Abril	2023-04-19T00:00:00	2024-11-08T22:00:00	1	Precipitación	0
144128	7	Sololá	719	Santiago Atitlán	14	Cerro de Oro	4	Abril	2023-04-19T00:00:00	2024-11-08T22:00:00	8	Radiación solar	0
144129	7	Sololá	719	Santiago Atitlán	14	Cerro de Oro	4	Abril	2023-04-19T00:00:00	2024-11-08T23:00:00	2	Temperatura media	18.6
144130	7	Sololá	719	Santiago Atitlán	14	Cerro de Oro	4	Abril	2023-04-19T00:00:00	2024-11-08T23:00:00	4	Temperatura máxima	19.2
144131	7	Sololá	719	Santiago Atitlán	14	Cerro de Oro	4	Abril	2023-04-19T00:00:00	2024-11-08T23:00:00	3	Temperatura mínima	18.6
144132	7	Sololá	719	Santiago Atitlán	14	Cerro de Oro	4	Abril	2023-04-19T00:00:00	2024-11-08T23:00:00	5	Humedad	88
144133	7	Sololá	719	Santiago Atitlán	14	Cerro de Oro	4	Abril	2023-04-19T00:00:00	2024-11-08T23:00:00	6	Velocidad del viento	4.8
144134	7	Sololá	719	Santiago Atitlán	14	Cerro de Oro	4	Abril	2023-04-19T00:00:00	2024-11-08T23:00:00	7	Dirección del viento	4.83
144135	7	Sololá	719	Santiago Atitlán	14	Cerro de Oro	4	Abril	2023-04-19T00:00:00	2024-11-08T23:00:00	1	Precipitación	0
144136	7	Sololá	719	Santiago Atitlán	14	Cerro de Oro	4	Abril	2023-04-19T00:00:00	2024-11-08T23:00:00	8	Radiación solar	0
144137	7	Sololá	719	Santiago Atitlán	14	Cerro de Oro	4	Abril	2023-04-20T00:00:00	2024-11-08T00:00:00	2	Temperatura media	18.3
144138	7	Sololá	719	Santiago Atitlán	14	Cerro de Oro	4	Abril	2023-04-20T00:00:00	2024-11-08T00:00:00	4	Temperatura máxima	18.6
144139	7	Sololá	719	Santiago Atitlán	14	Cerro de Oro	4	Abril	2023-04-20T00:00:00	2024-11-08T00:00:00	3	Temperatura mínima	18.2
144140	7	Sololá	719	Santiago Atitlán	14	Cerro de Oro	4	Abril	2023-04-20T00:00:00	2024-11-08T00:00:00	5	Humedad	88
144141	7	Sololá	719	Santiago Atitlán	14	Cerro de Oro	4	Abril	2023-04-20T00:00:00	2024-11-08T00:00:00	6	Velocidad del viento	4.8
144142	7	Sololá	719	Santiago Atitlán	14	Cerro de Oro	4	Abril	2023-04-20T00:00:00	2024-11-08T00:00:00	7	Dirección del viento	4.83
144143	7	Sololá	719	Santiago Atitlán	14	Cerro de Oro	4	Abril	2023-04-20T00:00:00	2024-11-08T00:00:00	1	Precipitación	0
144144	7	Sololá	719	Santiago Atitlán	14	Cerro de Oro	4	Abril	2023-04-20T00:00:00	2024-11-08T00:00:00	8	Radiación solar	0
144145	7	Sololá	719	Santiago Atitlán	14	Cerro de Oro	4	Abril	2023-04-20T00:00:00	2024-11-08T01:00:00	2	Temperatura media	18.6
144146	7	Sololá	719	Santiago Atitlán	14	Cerro de Oro	4	Abril	2023-04-20T00:00:00	2024-11-08T01:00:00	4	Temperatura máxima	18.6
144147	7	Sololá	719	Santiago Atitlán	14	Cerro de Oro	4	Abril	2023-04-20T00:00:00	2024-11-08T01:00:00	3	Temperatura mínima	18.3
144148	7	Sololá	719	Santiago Atitlán	14	Cerro de Oro	4	Abril	2023-04-20T00:00:00	2024-11-08T01:00:00	5	Humedad	88
144149	7	Sololá	719	Santiago Atitlán	14	Cerro de Oro	4	Abril	2023-04-20T00:00:00	2024-11-08T01:00:00	6	Velocidad del viento	3.2
144150	7	Sololá	719	Santiago Atitlán	14	Cerro de Oro	4	Abril	2023-04-20T00:00:00	2024-11-08T01:00:00	7	Dirección del viento	3.22
144151	7	Sololá	719	Santiago Atitlán	14	Cerro de Oro	4	Abril	2023-04-20T00:00:00	2024-11-08T01:00:00	1	Precipitación	0
144152	7	Sololá	719	Santiago Atitlán	14	Cerro de Oro	4	Abril	2023-04-20T00:00:00	2024-11-08T01:00:00	8	Radiación solar	0
144153	7	Sololá	719	Santiago Atitlán	14	Cerro de Oro	4	Abril	2023-04-20T00:00:00	2024-11-08T02:00:00	2	Temperatura media	17.9
144154	7	Sololá	719	Santiago Atitlán	14	Cerro de Oro	4	Abril	2023-04-20T00:00:00	2024-11-08T02:00:00	4	Temperatura máxima	18.7
144155	7	Sololá	719	Santiago Atitlán	14	Cerro de Oro	4	Abril	2023-04-20T00:00:00	2024-11-08T02:00:00	3	Temperatura mínima	17.9
144156	7	Sololá	719	Santiago Atitlán	14	Cerro de Oro	4	Abril	2023-04-20T00:00:00	2024-11-08T02:00:00	5	Humedad	87
144157	7	Sololá	719	Santiago Atitlán	14	Cerro de Oro	4	Abril	2023-04-20T00:00:00	2024-11-08T02:00:00	6	Velocidad del viento	3.2
144158	7	Sololá	719	Santiago Atitlán	14	Cerro de Oro	4	Abril	2023-04-20T00:00:00	2024-11-08T02:00:00	7	Dirección del viento	3.22
144159	7	Sololá	719	Santiago Atitlán	14	Cerro de Oro	4	Abril	2023-04-20T00:00:00	2024-11-08T02:00:00	1	Precipitación	0
144160	7	Sololá	719	Santiago Atitlán	14	Cerro de Oro	4	Abril	2023-04-20T00:00:00	2024-11-08T02:00:00	8	Radiación solar	0
144161	7	Sololá	719	Santiago Atitlán	14	Cerro de Oro	4	Abril	2023-04-20T00:00:00	2024-11-08T03:00:00	2	Temperatura media	18.2
144162	7	Sololá	719	Santiago Atitlán	14	Cerro de Oro	4	Abril	2023-04-20T00:00:00	2024-11-08T03:00:00	4	Temperatura máxima	18.2
144163	7	Sololá	719	Santiago Atitlán	14	Cerro de Oro	4	Abril	2023-04-20T00:00:00	2024-11-08T03:00:00	3	Temperatura mínima	17.7
144164	7	Sololá	719	Santiago Atitlán	14	Cerro de Oro	4	Abril	2023-04-20T00:00:00	2024-11-08T03:00:00	5	Humedad	81
144165	7	Sololá	719	Santiago Atitlán	14	Cerro de Oro	4	Abril	2023-04-20T00:00:00	2024-11-08T03:00:00	6	Velocidad del viento	3.2
144166	7	Sololá	719	Santiago Atitlán	14	Cerro de Oro	4	Abril	2023-04-20T00:00:00	2024-11-08T03:00:00	7	Dirección del viento	3.22
144167	7	Sololá	719	Santiago Atitlán	14	Cerro de Oro	4	Abril	2023-04-20T00:00:00	2024-11-08T03:00:00	1	Precipitación	0
144168	7	Sololá	719	Santiago Atitlán	14	Cerro de Oro	4	Abril	2023-04-20T00:00:00	2024-11-08T03:00:00	8	Radiación solar	0
144169	7	Sololá	719	Santiago Atitlán	14	Cerro de Oro	4	Abril	2023-04-20T00:00:00	2024-11-08T04:00:00	2	Temperatura media	17.7
144170	7	Sololá	719	Santiago Atitlán	14	Cerro de Oro	4	Abril	2023-04-20T00:00:00	2024-11-08T04:00:00	4	Temperatura máxima	18.3
144171	7	Sololá	719	Santiago Atitlán	14	Cerro de Oro	4	Abril	2023-04-20T00:00:00	2024-11-08T04:00:00	3	Temperatura mínima	17.7
144172	7	Sololá	719	Santiago Atitlán	14	Cerro de Oro	4	Abril	2023-04-20T00:00:00	2024-11-08T04:00:00	5	Humedad	81
144173	7	Sololá	719	Santiago Atitlán	14	Cerro de Oro	4	Abril	2023-04-20T00:00:00	2024-11-08T04:00:00	6	Velocidad del viento	4.8
144174	7	Sololá	719	Santiago Atitlán	14	Cerro de Oro	4	Abril	2023-04-20T00:00:00	2024-11-08T04:00:00	7	Dirección del viento	4.83
144175	7	Sololá	719	Santiago Atitlán	14	Cerro de Oro	4	Abril	2023-04-20T00:00:00	2024-11-08T04:00:00	1	Precipitación	0
144176	7	Sololá	719	Santiago Atitlán	14	Cerro de Oro	4	Abril	2023-04-20T00:00:00	2024-11-08T04:00:00	8	Radiación solar	0
144177	7	Sololá	719	Santiago Atitlán	14	Cerro de Oro	4	Abril	2023-04-20T00:00:00	2024-11-08T05:00:00	2	Temperatura media	17.5
144178	7	Sololá	719	Santiago Atitlán	14	Cerro de Oro	4	Abril	2023-04-20T00:00:00	2024-11-08T05:00:00	4	Temperatura máxima	17.8
144179	7	Sololá	719	Santiago Atitlán	14	Cerro de Oro	4	Abril	2023-04-20T00:00:00	2024-11-08T05:00:00	3	Temperatura mínima	17.1
144180	7	Sololá	719	Santiago Atitlán	14	Cerro de Oro	4	Abril	2023-04-20T00:00:00	2024-11-08T05:00:00	5	Humedad	80
144181	7	Sololá	719	Santiago Atitlán	14	Cerro de Oro	4	Abril	2023-04-20T00:00:00	2024-11-08T05:00:00	6	Velocidad del viento	3.2
144182	7	Sololá	719	Santiago Atitlán	14	Cerro de Oro	4	Abril	2023-04-20T00:00:00	2024-11-08T05:00:00	7	Dirección del viento	3.22
144183	7	Sololá	719	Santiago Atitlán	14	Cerro de Oro	4	Abril	2023-04-20T00:00:00	2024-11-08T05:00:00	1	Precipitación	0
144184	7	Sololá	719	Santiago Atitlán	14	Cerro de Oro	4	Abril	2023-04-20T00:00:00	2024-11-08T05:00:00	8	Radiación solar	0
144185	7	Sololá	719	Santiago Atitlán	14	Cerro de Oro	4	Abril	2023-04-20T00:00:00	2024-11-08T06:00:00	2	Temperatura media	16.9
144186	7	Sololá	719	Santiago Atitlán	14	Cerro de Oro	4	Abril	2023-04-20T00:00:00	2024-11-08T06:00:00	4	Temperatura máxima	17.5
144187	7	Sololá	719	Santiago Atitlán	14	Cerro de Oro	4	Abril	2023-04-20T00:00:00	2024-11-08T06:00:00	3	Temperatura mínima	16.8
144188	7	Sololá	719	Santiago Atitlán	14	Cerro de Oro	4	Abril	2023-04-20T00:00:00	2024-11-08T06:00:00	5	Humedad	75
144189	7	Sololá	719	Santiago Atitlán	14	Cerro de Oro	4	Abril	2023-04-20T00:00:00	2024-11-08T06:00:00	6	Velocidad del viento	4.8
144190	7	Sololá	719	Santiago Atitlán	14	Cerro de Oro	4	Abril	2023-04-20T00:00:00	2024-11-08T06:00:00	7	Dirección del viento	4.83
144191	7	Sololá	719	Santiago Atitlán	14	Cerro de Oro	4	Abril	2023-04-20T00:00:00	2024-11-08T06:00:00	1	Precipitación	0
144192	7	Sololá	719	Santiago Atitlán	14	Cerro de Oro	4	Abril	2023-04-20T00:00:00	2024-11-08T06:00:00	8	Radiación solar	1
144193	7	Sololá	719	Santiago Atitlán	14	Cerro de Oro	4	Abril	2023-04-20T00:00:00	2024-11-08T07:00:00	2	Temperatura media	17.1
144194	7	Sololá	719	Santiago Atitlán	14	Cerro de Oro	4	Abril	2023-04-20T00:00:00	2024-11-08T07:00:00	4	Temperatura máxima	17.1
144195	7	Sololá	719	Santiago Atitlán	14	Cerro de Oro	4	Abril	2023-04-20T00:00:00	2024-11-08T07:00:00	3	Temperatura mínima	16.8
144196	7	Sololá	719	Santiago Atitlán	14	Cerro de Oro	4	Abril	2023-04-20T00:00:00	2024-11-08T07:00:00	5	Humedad	71
144197	7	Sololá	719	Santiago Atitlán	14	Cerro de Oro	4	Abril	2023-04-20T00:00:00	2024-11-08T07:00:00	6	Velocidad del viento	6.4
144198	7	Sololá	719	Santiago Atitlán	14	Cerro de Oro	4	Abril	2023-04-20T00:00:00	2024-11-08T07:00:00	7	Dirección del viento	6.44
144199	7	Sololá	719	Santiago Atitlán	14	Cerro de Oro	4	Abril	2023-04-20T00:00:00	2024-11-08T07:00:00	1	Precipitación	0
144200	7	Sololá	719	Santiago Atitlán	14	Cerro de Oro	4	Abril	2023-04-20T00:00:00	2024-11-08T07:00:00	8	Radiación solar	56
144201	7	Sololá	719	Santiago Atitlán	14	Cerro de Oro	4	Abril	2023-04-20T00:00:00	2024-11-08T08:00:00	2	Temperatura media	17.4
144202	7	Sololá	719	Santiago Atitlán	14	Cerro de Oro	4	Abril	2023-04-20T00:00:00	2024-11-08T08:00:00	4	Temperatura máxima	17.4
144203	7	Sololá	719	Santiago Atitlán	14	Cerro de Oro	4	Abril	2023-04-20T00:00:00	2024-11-08T08:00:00	3	Temperatura mínima	16.7
144204	7	Sololá	719	Santiago Atitlán	14	Cerro de Oro	4	Abril	2023-04-20T00:00:00	2024-11-08T08:00:00	5	Humedad	69
144205	7	Sololá	719	Santiago Atitlán	14	Cerro de Oro	4	Abril	2023-04-20T00:00:00	2024-11-08T08:00:00	6	Velocidad del viento	4.8
144206	7	Sololá	719	Santiago Atitlán	14	Cerro de Oro	4	Abril	2023-04-20T00:00:00	2024-11-08T08:00:00	7	Dirección del viento	4.83
144207	7	Sololá	719	Santiago Atitlán	14	Cerro de Oro	4	Abril	2023-04-20T00:00:00	2024-11-08T08:00:00	1	Precipitación	0
144208	7	Sololá	719	Santiago Atitlán	14	Cerro de Oro	4	Abril	2023-04-20T00:00:00	2024-11-08T08:00:00	8	Radiación solar	184
144209	7	Sololá	719	Santiago Atitlán	14	Cerro de Oro	4	Abril	2023-04-20T00:00:00	2024-11-08T09:00:00	2	Temperatura media	18.6
144210	7	Sololá	719	Santiago Atitlán	14	Cerro de Oro	4	Abril	2023-04-20T00:00:00	2024-11-08T09:00:00	4	Temperatura máxima	18.6
144211	7	Sololá	719	Santiago Atitlán	14	Cerro de Oro	4	Abril	2023-04-20T00:00:00	2024-11-08T09:00:00	3	Temperatura mínima	17.4
144212	7	Sololá	719	Santiago Atitlán	14	Cerro de Oro	4	Abril	2023-04-20T00:00:00	2024-11-08T09:00:00	5	Humedad	63
144213	7	Sololá	719	Santiago Atitlán	14	Cerro de Oro	4	Abril	2023-04-20T00:00:00	2024-11-08T09:00:00	6	Velocidad del viento	3.2
144214	7	Sololá	719	Santiago Atitlán	14	Cerro de Oro	4	Abril	2023-04-20T00:00:00	2024-11-08T09:00:00	7	Dirección del viento	3.22
144215	7	Sololá	719	Santiago Atitlán	14	Cerro de Oro	4	Abril	2023-04-20T00:00:00	2024-11-08T09:00:00	1	Precipitación	0
144216	7	Sololá	719	Santiago Atitlán	14	Cerro de Oro	4	Abril	2023-04-20T00:00:00	2024-11-08T09:00:00	8	Radiación solar	354
144217	7	Sololá	719	Santiago Atitlán	14	Cerro de Oro	4	Abril	2023-04-20T00:00:00	2024-11-08T10:00:00	2	Temperatura media	19.7
144218	7	Sololá	719	Santiago Atitlán	14	Cerro de Oro	4	Abril	2023-04-20T00:00:00	2024-11-08T10:00:00	4	Temperatura máxima	19.8
144219	7	Sololá	719	Santiago Atitlán	14	Cerro de Oro	4	Abril	2023-04-20T00:00:00	2024-11-08T10:00:00	3	Temperatura mínima	18.6
144220	7	Sololá	719	Santiago Atitlán	14	Cerro de Oro	4	Abril	2023-04-20T00:00:00	2024-11-08T10:00:00	5	Humedad	68
144221	7	Sololá	719	Santiago Atitlán	14	Cerro de Oro	4	Abril	2023-04-20T00:00:00	2024-11-08T10:00:00	6	Velocidad del viento	3.2
144222	7	Sololá	719	Santiago Atitlán	14	Cerro de Oro	4	Abril	2023-04-20T00:00:00	2024-11-08T10:00:00	7	Dirección del viento	3.22
144223	7	Sololá	719	Santiago Atitlán	14	Cerro de Oro	4	Abril	2023-04-20T00:00:00	2024-11-08T10:00:00	1	Precipitación	0
144224	7	Sololá	719	Santiago Atitlán	14	Cerro de Oro	4	Abril	2023-04-20T00:00:00	2024-11-08T10:00:00	8	Radiación solar	475
144225	7	Sololá	719	Santiago Atitlán	14	Cerro de Oro	4	Abril	2023-04-20T00:00:00	2024-11-08T11:00:00	2	Temperatura media	20.9
144226	7	Sololá	719	Santiago Atitlán	14	Cerro de Oro	4	Abril	2023-04-20T00:00:00	2024-11-08T11:00:00	4	Temperatura máxima	20.9
144227	7	Sololá	719	Santiago Atitlán	14	Cerro de Oro	4	Abril	2023-04-20T00:00:00	2024-11-08T11:00:00	3	Temperatura mínima	19.7
144228	7	Sololá	719	Santiago Atitlán	14	Cerro de Oro	4	Abril	2023-04-20T00:00:00	2024-11-08T11:00:00	5	Humedad	66
144229	7	Sololá	719	Santiago Atitlán	14	Cerro de Oro	4	Abril	2023-04-20T00:00:00	2024-11-08T11:00:00	6	Velocidad del viento	3.2
144230	7	Sololá	719	Santiago Atitlán	14	Cerro de Oro	4	Abril	2023-04-20T00:00:00	2024-11-08T11:00:00	7	Dirección del viento	3.22
144231	7	Sololá	719	Santiago Atitlán	14	Cerro de Oro	4	Abril	2023-04-20T00:00:00	2024-11-08T11:00:00	1	Precipitación	0
144232	7	Sololá	719	Santiago Atitlán	14	Cerro de Oro	4	Abril	2023-04-20T00:00:00	2024-11-08T11:00:00	8	Radiación solar	519
144233	7	Sololá	719	Santiago Atitlán	14	Cerro de Oro	4	Abril	2023-04-20T00:00:00	2024-11-08T12:00:00	2	Temperatura media	21.8
144234	7	Sololá	719	Santiago Atitlán	14	Cerro de Oro	4	Abril	2023-04-20T00:00:00	2024-11-08T12:00:00	4	Temperatura máxima	21.8
144235	7	Sololá	719	Santiago Atitlán	14	Cerro de Oro	4	Abril	2023-04-20T00:00:00	2024-11-08T12:00:00	3	Temperatura mínima	20.9
144236	7	Sololá	719	Santiago Atitlán	14	Cerro de Oro	4	Abril	2023-04-20T00:00:00	2024-11-08T12:00:00	5	Humedad	67
144237	7	Sololá	719	Santiago Atitlán	14	Cerro de Oro	4	Abril	2023-04-20T00:00:00	2024-11-08T12:00:00	6	Velocidad del viento	3.2
144238	7	Sololá	719	Santiago Atitlán	14	Cerro de Oro	4	Abril	2023-04-20T00:00:00	2024-11-08T12:00:00	7	Dirección del viento	3.22
144239	7	Sololá	719	Santiago Atitlán	14	Cerro de Oro	4	Abril	2023-04-20T00:00:00	2024-11-08T12:00:00	1	Precipitación	0
144240	7	Sololá	719	Santiago Atitlán	14	Cerro de Oro	4	Abril	2023-04-20T00:00:00	2024-11-08T12:00:00	8	Radiación solar	512
144241	7	Sololá	719	Santiago Atitlán	14	Cerro de Oro	4	Abril	2023-04-20T00:00:00	2024-11-08T13:00:00	2	Temperatura media	22.4
144242	7	Sololá	719	Santiago Atitlán	14	Cerro de Oro	4	Abril	2023-04-20T00:00:00	2024-11-08T13:00:00	4	Temperatura máxima	22.4
144243	7	Sololá	719	Santiago Atitlán	14	Cerro de Oro	4	Abril	2023-04-20T00:00:00	2024-11-08T13:00:00	3	Temperatura mínima	21.4
144244	7	Sololá	719	Santiago Atitlán	14	Cerro de Oro	4	Abril	2023-04-20T00:00:00	2024-11-08T13:00:00	5	Humedad	69
144245	7	Sololá	719	Santiago Atitlán	14	Cerro de Oro	4	Abril	2023-04-20T00:00:00	2024-11-08T13:00:00	6	Velocidad del viento	8
144246	7	Sololá	719	Santiago Atitlán	14	Cerro de Oro	4	Abril	2023-04-20T00:00:00	2024-11-08T13:00:00	7	Dirección del viento	8.05
144247	7	Sololá	719	Santiago Atitlán	14	Cerro de Oro	4	Abril	2023-04-20T00:00:00	2024-11-08T13:00:00	1	Precipitación	0
144248	7	Sololá	719	Santiago Atitlán	14	Cerro de Oro	4	Abril	2023-04-20T00:00:00	2024-11-08T13:00:00	8	Radiación solar	498
144249	7	Sololá	719	Santiago Atitlán	14	Cerro de Oro	4	Abril	2023-04-20T00:00:00	2024-11-08T14:00:00	2	Temperatura media	22.7
144250	7	Sololá	719	Santiago Atitlán	14	Cerro de Oro	4	Abril	2023-04-20T00:00:00	2024-11-08T14:00:00	4	Temperatura máxima	22.8
144251	7	Sololá	719	Santiago Atitlán	14	Cerro de Oro	4	Abril	2023-04-20T00:00:00	2024-11-08T14:00:00	3	Temperatura mínima	22.2
144252	7	Sololá	719	Santiago Atitlán	14	Cerro de Oro	4	Abril	2023-04-20T00:00:00	2024-11-08T14:00:00	5	Humedad	69
144253	7	Sololá	719	Santiago Atitlán	14	Cerro de Oro	4	Abril	2023-04-20T00:00:00	2024-11-08T14:00:00	6	Velocidad del viento	4.8
144254	7	Sololá	719	Santiago Atitlán	14	Cerro de Oro	4	Abril	2023-04-20T00:00:00	2024-11-08T14:00:00	7	Dirección del viento	4.83
144255	7	Sololá	719	Santiago Atitlán	14	Cerro de Oro	4	Abril	2023-04-20T00:00:00	2024-11-08T14:00:00	1	Precipitación	0
144256	7	Sololá	719	Santiago Atitlán	14	Cerro de Oro	4	Abril	2023-04-20T00:00:00	2024-11-08T14:00:00	8	Radiación solar	621
144257	7	Sololá	719	Santiago Atitlán	14	Cerro de Oro	4	Abril	2023-04-20T00:00:00	2024-11-08T15:00:00	2	Temperatura media	23.1
144258	7	Sololá	719	Santiago Atitlán	14	Cerro de Oro	4	Abril	2023-04-20T00:00:00	2024-11-08T15:00:00	4	Temperatura máxima	23.3
144259	7	Sololá	719	Santiago Atitlán	14	Cerro de Oro	4	Abril	2023-04-20T00:00:00	2024-11-08T15:00:00	3	Temperatura mínima	22.7
144260	7	Sololá	719	Santiago Atitlán	14	Cerro de Oro	4	Abril	2023-04-20T00:00:00	2024-11-08T15:00:00	5	Humedad	71
144261	7	Sololá	719	Santiago Atitlán	14	Cerro de Oro	4	Abril	2023-04-20T00:00:00	2024-11-08T15:00:00	6	Velocidad del viento	8
144262	7	Sololá	719	Santiago Atitlán	14	Cerro de Oro	4	Abril	2023-04-20T00:00:00	2024-11-08T15:00:00	7	Dirección del viento	8.05
144263	7	Sololá	719	Santiago Atitlán	14	Cerro de Oro	4	Abril	2023-04-20T00:00:00	2024-11-08T15:00:00	1	Precipitación	0
144264	7	Sololá	719	Santiago Atitlán	14	Cerro de Oro	4	Abril	2023-04-20T00:00:00	2024-11-08T15:00:00	8	Radiación solar	537
144265	7	Sololá	719	Santiago Atitlán	14	Cerro de Oro	4	Abril	2023-04-20T00:00:00	2024-11-08T16:00:00	2	Temperatura media	21.9
144266	7	Sololá	719	Santiago Atitlán	14	Cerro de Oro	4	Abril	2023-04-20T00:00:00	2024-11-08T16:00:00	4	Temperatura máxima	23.1
144267	7	Sololá	719	Santiago Atitlán	14	Cerro de Oro	4	Abril	2023-04-20T00:00:00	2024-11-08T16:00:00	3	Temperatura mínima	21.9
144268	7	Sololá	719	Santiago Atitlán	14	Cerro de Oro	4	Abril	2023-04-20T00:00:00	2024-11-08T16:00:00	5	Humedad	78
144269	7	Sololá	719	Santiago Atitlán	14	Cerro de Oro	4	Abril	2023-04-20T00:00:00	2024-11-08T16:00:00	6	Velocidad del viento	11.3
144270	7	Sololá	719	Santiago Atitlán	14	Cerro de Oro	4	Abril	2023-04-20T00:00:00	2024-11-08T16:00:00	7	Dirección del viento	11.27
144271	7	Sololá	719	Santiago Atitlán	14	Cerro de Oro	4	Abril	2023-04-20T00:00:00	2024-11-08T16:00:00	1	Precipitación	0
144272	7	Sololá	719	Santiago Atitlán	14	Cerro de Oro	4	Abril	2023-04-20T00:00:00	2024-11-08T16:00:00	8	Radiación solar	216
144273	7	Sololá	719	Santiago Atitlán	14	Cerro de Oro	4	Abril	2023-04-20T00:00:00	2024-11-08T17:00:00	2	Temperatura media	21.2
144274	7	Sololá	719	Santiago Atitlán	14	Cerro de Oro	4	Abril	2023-04-20T00:00:00	2024-11-08T17:00:00	4	Temperatura máxima	21.9
144275	7	Sololá	719	Santiago Atitlán	14	Cerro de Oro	4	Abril	2023-04-20T00:00:00	2024-11-08T17:00:00	3	Temperatura mínima	21.1
144276	7	Sololá	719	Santiago Atitlán	14	Cerro de Oro	4	Abril	2023-04-20T00:00:00	2024-11-08T17:00:00	5	Humedad	80
144277	7	Sololá	719	Santiago Atitlán	14	Cerro de Oro	4	Abril	2023-04-20T00:00:00	2024-11-08T17:00:00	6	Velocidad del viento	11.3
144278	7	Sololá	719	Santiago Atitlán	14	Cerro de Oro	4	Abril	2023-04-20T00:00:00	2024-11-08T17:00:00	7	Dirección del viento	11.27
144279	7	Sololá	719	Santiago Atitlán	14	Cerro de Oro	4	Abril	2023-04-20T00:00:00	2024-11-08T17:00:00	1	Precipitación	0
144280	7	Sololá	719	Santiago Atitlán	14	Cerro de Oro	4	Abril	2023-04-20T00:00:00	2024-11-08T17:00:00	8	Radiación solar	118
144281	7	Sololá	719	Santiago Atitlán	14	Cerro de Oro	4	Abril	2023-04-20T00:00:00	2024-11-08T18:00:00	2	Temperatura media	20.6
144282	7	Sololá	719	Santiago Atitlán	14	Cerro de Oro	4	Abril	2023-04-20T00:00:00	2024-11-08T18:00:00	4	Temperatura máxima	21.3
144283	7	Sololá	719	Santiago Atitlán	14	Cerro de Oro	4	Abril	2023-04-20T00:00:00	2024-11-08T18:00:00	3	Temperatura mínima	20.6
144284	7	Sololá	719	Santiago Atitlán	14	Cerro de Oro	4	Abril	2023-04-20T00:00:00	2024-11-08T18:00:00	5	Humedad	82
144285	7	Sololá	719	Santiago Atitlán	14	Cerro de Oro	4	Abril	2023-04-20T00:00:00	2024-11-08T18:00:00	6	Velocidad del viento	9.7
144286	7	Sololá	719	Santiago Atitlán	14	Cerro de Oro	4	Abril	2023-04-20T00:00:00	2024-11-08T18:00:00	7	Dirección del viento	9.66
144287	7	Sololá	719	Santiago Atitlán	14	Cerro de Oro	4	Abril	2023-04-20T00:00:00	2024-11-08T18:00:00	1	Precipitación	0
144288	7	Sololá	719	Santiago Atitlán	14	Cerro de Oro	4	Abril	2023-04-20T00:00:00	2024-11-08T18:00:00	8	Radiación solar	68
144289	7	Sololá	719	Santiago Atitlán	14	Cerro de Oro	4	Abril	2023-04-20T00:00:00	2024-11-08T19:00:00	2	Temperatura media	19.9
144290	7	Sololá	719	Santiago Atitlán	14	Cerro de Oro	4	Abril	2023-04-20T00:00:00	2024-11-08T19:00:00	4	Temperatura máxima	20.7
144291	7	Sololá	719	Santiago Atitlán	14	Cerro de Oro	4	Abril	2023-04-20T00:00:00	2024-11-08T19:00:00	3	Temperatura mínima	19.9
144292	7	Sololá	719	Santiago Atitlán	14	Cerro de Oro	4	Abril	2023-04-20T00:00:00	2024-11-08T19:00:00	5	Humedad	84
144293	7	Sololá	719	Santiago Atitlán	14	Cerro de Oro	4	Abril	2023-04-20T00:00:00	2024-11-08T19:00:00	6	Velocidad del viento	8
144294	7	Sololá	719	Santiago Atitlán	14	Cerro de Oro	4	Abril	2023-04-20T00:00:00	2024-11-08T19:00:00	7	Dirección del viento	8.05
144295	7	Sololá	719	Santiago Atitlán	14	Cerro de Oro	4	Abril	2023-04-20T00:00:00	2024-11-08T19:00:00	1	Precipitación	0
144296	7	Sololá	719	Santiago Atitlán	14	Cerro de Oro	4	Abril	2023-04-20T00:00:00	2024-11-08T19:00:00	8	Radiación solar	0
144297	7	Sololá	719	Santiago Atitlán	14	Cerro de Oro	4	Abril	2023-04-20T00:00:00	2024-11-08T20:00:00	2	Temperatura media	19.3
144298	7	Sololá	719	Santiago Atitlán	14	Cerro de Oro	4	Abril	2023-04-20T00:00:00	2024-11-08T20:00:00	4	Temperatura máxima	20
144299	7	Sololá	719	Santiago Atitlán	14	Cerro de Oro	4	Abril	2023-04-20T00:00:00	2024-11-08T20:00:00	3	Temperatura mínima	19.3
144300	7	Sololá	719	Santiago Atitlán	14	Cerro de Oro	4	Abril	2023-04-20T00:00:00	2024-11-08T20:00:00	5	Humedad	85
144301	7	Sololá	719	Santiago Atitlán	14	Cerro de Oro	4	Abril	2023-04-20T00:00:00	2024-11-08T20:00:00	6	Velocidad del viento	6.4
144302	7	Sololá	719	Santiago Atitlán	14	Cerro de Oro	4	Abril	2023-04-20T00:00:00	2024-11-08T20:00:00	7	Dirección del viento	6.44
144303	7	Sololá	719	Santiago Atitlán	14	Cerro de Oro	4	Abril	2023-04-20T00:00:00	2024-11-08T20:00:00	1	Precipitación	0
144304	7	Sololá	719	Santiago Atitlán	14	Cerro de Oro	4	Abril	2023-04-20T00:00:00	2024-11-08T20:00:00	8	Radiación solar	0
144305	7	Sololá	719	Santiago Atitlán	14	Cerro de Oro	4	Abril	2023-04-20T00:00:00	2024-11-08T21:00:00	2	Temperatura media	18.5
144306	7	Sololá	719	Santiago Atitlán	14	Cerro de Oro	4	Abril	2023-04-20T00:00:00	2024-11-08T21:00:00	4	Temperatura máxima	19.4
144307	7	Sololá	719	Santiago Atitlán	14	Cerro de Oro	4	Abril	2023-04-20T00:00:00	2024-11-08T21:00:00	3	Temperatura mínima	18.5
144308	7	Sololá	719	Santiago Atitlán	14	Cerro de Oro	4	Abril	2023-04-20T00:00:00	2024-11-08T21:00:00	5	Humedad	87
144309	7	Sololá	719	Santiago Atitlán	14	Cerro de Oro	4	Abril	2023-04-20T00:00:00	2024-11-08T21:00:00	6	Velocidad del viento	1.6
144310	7	Sololá	719	Santiago Atitlán	14	Cerro de Oro	4	Abril	2023-04-20T00:00:00	2024-11-08T21:00:00	7	Dirección del viento	1.61
144311	7	Sololá	719	Santiago Atitlán	14	Cerro de Oro	4	Abril	2023-04-20T00:00:00	2024-11-08T21:00:00	1	Precipitación	0
144312	7	Sololá	719	Santiago Atitlán	14	Cerro de Oro	4	Abril	2023-04-20T00:00:00	2024-11-08T21:00:00	8	Radiación solar	0
144313	7	Sololá	719	Santiago Atitlán	14	Cerro de Oro	4	Abril	2023-04-20T00:00:00	2024-11-08T22:00:00	2	Temperatura media	18.9
144314	7	Sololá	719	Santiago Atitlán	14	Cerro de Oro	4	Abril	2023-04-20T00:00:00	2024-11-08T22:00:00	4	Temperatura máxima	18.9
144315	7	Sololá	719	Santiago Atitlán	14	Cerro de Oro	4	Abril	2023-04-20T00:00:00	2024-11-08T22:00:00	3	Temperatura mínima	18.3
144316	7	Sololá	719	Santiago Atitlán	14	Cerro de Oro	4	Abril	2023-04-20T00:00:00	2024-11-08T22:00:00	5	Humedad	85
144317	7	Sololá	719	Santiago Atitlán	14	Cerro de Oro	4	Abril	2023-04-20T00:00:00	2024-11-08T22:00:00	6	Velocidad del viento	4.8
144318	7	Sololá	719	Santiago Atitlán	14	Cerro de Oro	4	Abril	2023-04-20T00:00:00	2024-11-08T22:00:00	7	Dirección del viento	4.83
144319	7	Sololá	719	Santiago Atitlán	14	Cerro de Oro	4	Abril	2023-04-20T00:00:00	2024-11-08T22:00:00	1	Precipitación	0
144320	7	Sololá	719	Santiago Atitlán	14	Cerro de Oro	4	Abril	2023-04-20T00:00:00	2024-11-08T22:00:00	8	Radiación solar	0
144321	7	Sololá	719	Santiago Atitlán	14	Cerro de Oro	4	Abril	2023-04-20T00:00:00	2024-11-08T23:00:00	2	Temperatura media	18.6
144322	7	Sololá	719	Santiago Atitlán	14	Cerro de Oro	4	Abril	2023-04-20T00:00:00	2024-11-08T23:00:00	4	Temperatura máxima	18.9
144323	7	Sololá	719	Santiago Atitlán	14	Cerro de Oro	4	Abril	2023-04-20T00:00:00	2024-11-08T23:00:00	3	Temperatura mínima	18.3
144324	7	Sololá	719	Santiago Atitlán	14	Cerro de Oro	4	Abril	2023-04-20T00:00:00	2024-11-08T23:00:00	5	Humedad	87
144325	7	Sololá	719	Santiago Atitlán	14	Cerro de Oro	4	Abril	2023-04-20T00:00:00	2024-11-08T23:00:00	6	Velocidad del viento	3.2
144326	7	Sololá	719	Santiago Atitlán	14	Cerro de Oro	4	Abril	2023-04-20T00:00:00	2024-11-08T23:00:00	7	Dirección del viento	3.22
144327	7	Sololá	719	Santiago Atitlán	14	Cerro de Oro	4	Abril	2023-04-20T00:00:00	2024-11-08T23:00:00	1	Precipitación	0
144328	7	Sololá	719	Santiago Atitlán	14	Cerro de Oro	4	Abril	2023-04-20T00:00:00	2024-11-08T23:00:00	8	Radiación solar	0
144329	7	Sololá	719	Santiago Atitlán	14	Cerro de Oro	4	Abril	2023-04-21T00:00:00	2024-11-08T00:00:00	2	Temperatura media	18.5
144330	7	Sololá	719	Santiago Atitlán	14	Cerro de Oro	4	Abril	2023-04-21T00:00:00	2024-11-08T00:00:00	4	Temperatura máxima	18.7
144331	7	Sololá	719	Santiago Atitlán	14	Cerro de Oro	4	Abril	2023-04-21T00:00:00	2024-11-08T00:00:00	3	Temperatura mínima	18.2
144332	7	Sololá	719	Santiago Atitlán	14	Cerro de Oro	4	Abril	2023-04-21T00:00:00	2024-11-08T00:00:00	5	Humedad	87
144333	7	Sololá	719	Santiago Atitlán	14	Cerro de Oro	4	Abril	2023-04-21T00:00:00	2024-11-08T00:00:00	6	Velocidad del viento	4.8
144334	7	Sololá	719	Santiago Atitlán	14	Cerro de Oro	4	Abril	2023-04-21T00:00:00	2024-11-08T00:00:00	7	Dirección del viento	4.83
144335	7	Sololá	719	Santiago Atitlán	14	Cerro de Oro	4	Abril	2023-04-21T00:00:00	2024-11-08T00:00:00	1	Precipitación	0
144336	7	Sololá	719	Santiago Atitlán	14	Cerro de Oro	4	Abril	2023-04-21T00:00:00	2024-11-08T00:00:00	8	Radiación solar	0
144337	7	Sololá	719	Santiago Atitlán	14	Cerro de Oro	4	Abril	2023-04-21T00:00:00	2024-11-08T01:00:00	2	Temperatura media	17.9
144338	7	Sololá	719	Santiago Atitlán	14	Cerro de Oro	4	Abril	2023-04-21T00:00:00	2024-11-08T01:00:00	4	Temperatura máxima	18.6
144339	7	Sololá	719	Santiago Atitlán	14	Cerro de Oro	4	Abril	2023-04-21T00:00:00	2024-11-08T01:00:00	3	Temperatura mínima	17.9
144340	7	Sololá	719	Santiago Atitlán	14	Cerro de Oro	4	Abril	2023-04-21T00:00:00	2024-11-08T01:00:00	5	Humedad	89
144341	7	Sololá	719	Santiago Atitlán	14	Cerro de Oro	4	Abril	2023-04-21T00:00:00	2024-11-08T01:00:00	6	Velocidad del viento	3.2
144342	7	Sololá	719	Santiago Atitlán	14	Cerro de Oro	4	Abril	2023-04-21T00:00:00	2024-11-08T01:00:00	7	Dirección del viento	3.22
144343	7	Sololá	719	Santiago Atitlán	14	Cerro de Oro	4	Abril	2023-04-21T00:00:00	2024-11-08T01:00:00	1	Precipitación	0
144344	7	Sololá	719	Santiago Atitlán	14	Cerro de Oro	4	Abril	2023-04-21T00:00:00	2024-11-08T01:00:00	8	Radiación solar	0
144345	7	Sololá	719	Santiago Atitlán	14	Cerro de Oro	4	Abril	2023-04-21T00:00:00	2024-11-08T02:00:00	2	Temperatura media	17.6
144346	7	Sololá	719	Santiago Atitlán	14	Cerro de Oro	4	Abril	2023-04-21T00:00:00	2024-11-08T02:00:00	4	Temperatura máxima	17.9
144347	7	Sololá	719	Santiago Atitlán	14	Cerro de Oro	4	Abril	2023-04-21T00:00:00	2024-11-08T02:00:00	3	Temperatura mínima	17.5
144348	7	Sololá	719	Santiago Atitlán	14	Cerro de Oro	4	Abril	2023-04-21T00:00:00	2024-11-08T02:00:00	5	Humedad	85
144349	7	Sololá	719	Santiago Atitlán	14	Cerro de Oro	4	Abril	2023-04-21T00:00:00	2024-11-08T02:00:00	6	Velocidad del viento	4.8
144350	7	Sololá	719	Santiago Atitlán	14	Cerro de Oro	4	Abril	2023-04-21T00:00:00	2024-11-08T02:00:00	7	Dirección del viento	4.83
144351	7	Sololá	719	Santiago Atitlán	14	Cerro de Oro	4	Abril	2023-04-21T00:00:00	2024-11-08T02:00:00	1	Precipitación	0
144352	7	Sololá	719	Santiago Atitlán	14	Cerro de Oro	4	Abril	2023-04-21T00:00:00	2024-11-08T02:00:00	8	Radiación solar	0
144353	7	Sololá	719	Santiago Atitlán	14	Cerro de Oro	4	Abril	2023-04-21T00:00:00	2024-11-08T03:00:00	2	Temperatura media	17.6
144354	7	Sololá	719	Santiago Atitlán	14	Cerro de Oro	4	Abril	2023-04-21T00:00:00	2024-11-08T03:00:00	4	Temperatura máxima	18
144355	7	Sololá	719	Santiago Atitlán	14	Cerro de Oro	4	Abril	2023-04-21T00:00:00	2024-11-08T03:00:00	3	Temperatura mínima	17.6
144356	7	Sololá	719	Santiago Atitlán	14	Cerro de Oro	4	Abril	2023-04-21T00:00:00	2024-11-08T03:00:00	5	Humedad	84
144357	7	Sololá	719	Santiago Atitlán	14	Cerro de Oro	4	Abril	2023-04-21T00:00:00	2024-11-08T03:00:00	6	Velocidad del viento	3.2
144358	7	Sololá	719	Santiago Atitlán	14	Cerro de Oro	4	Abril	2023-04-21T00:00:00	2024-11-08T03:00:00	7	Dirección del viento	3.22
144359	7	Sololá	719	Santiago Atitlán	14	Cerro de Oro	4	Abril	2023-04-21T00:00:00	2024-11-08T03:00:00	1	Precipitación	0
144360	7	Sololá	719	Santiago Atitlán	14	Cerro de Oro	4	Abril	2023-04-21T00:00:00	2024-11-08T03:00:00	8	Radiación solar	0
144361	7	Sololá	719	Santiago Atitlán	14	Cerro de Oro	4	Abril	2023-04-21T00:00:00	2024-11-08T04:00:00	2	Temperatura media	17.5
144362	7	Sololá	719	Santiago Atitlán	14	Cerro de Oro	4	Abril	2023-04-21T00:00:00	2024-11-08T04:00:00	4	Temperatura máxima	17.7
144363	7	Sololá	719	Santiago Atitlán	14	Cerro de Oro	4	Abril	2023-04-21T00:00:00	2024-11-08T04:00:00	3	Temperatura mínima	17.2
144364	7	Sololá	719	Santiago Atitlán	14	Cerro de Oro	4	Abril	2023-04-21T00:00:00	2024-11-08T04:00:00	5	Humedad	82
144365	7	Sololá	719	Santiago Atitlán	14	Cerro de Oro	4	Abril	2023-04-21T00:00:00	2024-11-08T04:00:00	6	Velocidad del viento	4.8
144366	7	Sololá	719	Santiago Atitlán	14	Cerro de Oro	4	Abril	2023-04-21T00:00:00	2024-11-08T04:00:00	7	Dirección del viento	4.83
144367	7	Sololá	719	Santiago Atitlán	14	Cerro de Oro	4	Abril	2023-04-21T00:00:00	2024-11-08T04:00:00	1	Precipitación	0
144368	7	Sololá	719	Santiago Atitlán	14	Cerro de Oro	4	Abril	2023-04-21T00:00:00	2024-11-08T04:00:00	8	Radiación solar	0
144369	7	Sololá	719	Santiago Atitlán	14	Cerro de Oro	4	Abril	2023-04-21T00:00:00	2024-11-08T05:00:00	2	Temperatura media	17.1
144370	7	Sololá	719	Santiago Atitlán	14	Cerro de Oro	4	Abril	2023-04-21T00:00:00	2024-11-08T05:00:00	4	Temperatura máxima	17.5
144371	7	Sololá	719	Santiago Atitlán	14	Cerro de Oro	4	Abril	2023-04-21T00:00:00	2024-11-08T05:00:00	3	Temperatura mínima	17.1
144372	7	Sololá	719	Santiago Atitlán	14	Cerro de Oro	4	Abril	2023-04-21T00:00:00	2024-11-08T05:00:00	5	Humedad	82
144373	7	Sololá	719	Santiago Atitlán	14	Cerro de Oro	4	Abril	2023-04-21T00:00:00	2024-11-08T05:00:00	6	Velocidad del viento	4.8
144374	7	Sololá	719	Santiago Atitlán	14	Cerro de Oro	4	Abril	2023-04-21T00:00:00	2024-11-08T05:00:00	7	Dirección del viento	4.83
144375	7	Sololá	719	Santiago Atitlán	14	Cerro de Oro	4	Abril	2023-04-21T00:00:00	2024-11-08T05:00:00	1	Precipitación	0
144376	7	Sololá	719	Santiago Atitlán	14	Cerro de Oro	4	Abril	2023-04-21T00:00:00	2024-11-08T05:00:00	8	Radiación solar	0
144377	7	Sololá	719	Santiago Atitlán	14	Cerro de Oro	4	Abril	2023-04-21T00:00:00	2024-11-08T06:00:00	2	Temperatura media	16.7
144378	7	Sololá	719	Santiago Atitlán	14	Cerro de Oro	4	Abril	2023-04-21T00:00:00	2024-11-08T06:00:00	4	Temperatura máxima	17.3
144379	7	Sololá	719	Santiago Atitlán	14	Cerro de Oro	4	Abril	2023-04-21T00:00:00	2024-11-08T06:00:00	3	Temperatura mínima	16.7
144380	7	Sololá	719	Santiago Atitlán	14	Cerro de Oro	4	Abril	2023-04-21T00:00:00	2024-11-08T06:00:00	5	Humedad	85
144381	7	Sololá	719	Santiago Atitlán	14	Cerro de Oro	4	Abril	2023-04-21T00:00:00	2024-11-08T06:00:00	6	Velocidad del viento	3.2
144382	7	Sololá	719	Santiago Atitlán	14	Cerro de Oro	4	Abril	2023-04-21T00:00:00	2024-11-08T06:00:00	7	Dirección del viento	3.22
144383	7	Sololá	719	Santiago Atitlán	14	Cerro de Oro	4	Abril	2023-04-21T00:00:00	2024-11-08T06:00:00	1	Precipitación	0
144384	7	Sololá	719	Santiago Atitlán	14	Cerro de Oro	4	Abril	2023-04-21T00:00:00	2024-11-08T06:00:00	8	Radiación solar	2
144385	7	Sololá	719	Santiago Atitlán	14	Cerro de Oro	4	Abril	2023-04-21T00:00:00	2024-11-08T07:00:00	2	Temperatura media	16.8
144386	7	Sololá	719	Santiago Atitlán	14	Cerro de Oro	4	Abril	2023-04-21T00:00:00	2024-11-08T07:00:00	4	Temperatura máxima	17
144387	7	Sololá	719	Santiago Atitlán	14	Cerro de Oro	4	Abril	2023-04-21T00:00:00	2024-11-08T07:00:00	3	Temperatura mínima	16.7
144388	7	Sololá	719	Santiago Atitlán	14	Cerro de Oro	4	Abril	2023-04-21T00:00:00	2024-11-08T07:00:00	5	Humedad	80
144389	7	Sololá	719	Santiago Atitlán	14	Cerro de Oro	4	Abril	2023-04-21T00:00:00	2024-11-08T07:00:00	6	Velocidad del viento	4.8
144390	7	Sololá	719	Santiago Atitlán	14	Cerro de Oro	4	Abril	2023-04-21T00:00:00	2024-11-08T07:00:00	7	Dirección del viento	4.83
144391	7	Sololá	719	Santiago Atitlán	14	Cerro de Oro	4	Abril	2023-04-21T00:00:00	2024-11-08T07:00:00	1	Precipitación	0
144392	7	Sololá	719	Santiago Atitlán	14	Cerro de Oro	4	Abril	2023-04-21T00:00:00	2024-11-08T07:00:00	8	Radiación solar	84
144393	7	Sololá	719	Santiago Atitlán	14	Cerro de Oro	4	Abril	2023-04-21T00:00:00	2024-11-08T08:00:00	2	Temperatura media	18.7
144394	7	Sololá	719	Santiago Atitlán	14	Cerro de Oro	4	Abril	2023-04-21T00:00:00	2024-11-08T08:00:00	4	Temperatura máxima	18.7
144395	7	Sololá	719	Santiago Atitlán	14	Cerro de Oro	4	Abril	2023-04-21T00:00:00	2024-11-08T08:00:00	3	Temperatura mínima	16.7
144396	7	Sololá	719	Santiago Atitlán	14	Cerro de Oro	4	Abril	2023-04-21T00:00:00	2024-11-08T08:00:00	5	Humedad	75
144397	7	Sololá	719	Santiago Atitlán	14	Cerro de Oro	4	Abril	2023-04-21T00:00:00	2024-11-08T08:00:00	6	Velocidad del viento	3.2
144398	7	Sololá	719	Santiago Atitlán	14	Cerro de Oro	4	Abril	2023-04-21T00:00:00	2024-11-08T08:00:00	7	Dirección del viento	3.22
144399	7	Sololá	719	Santiago Atitlán	14	Cerro de Oro	4	Abril	2023-04-21T00:00:00	2024-11-08T08:00:00	1	Precipitación	0
144400	7	Sololá	719	Santiago Atitlán	14	Cerro de Oro	4	Abril	2023-04-21T00:00:00	2024-11-08T08:00:00	8	Radiación solar	279
144401	7	Sololá	719	Santiago Atitlán	14	Cerro de Oro	4	Abril	2023-04-21T00:00:00	2024-11-08T09:00:00	2	Temperatura media	19.9
144402	7	Sololá	719	Santiago Atitlán	14	Cerro de Oro	4	Abril	2023-04-21T00:00:00	2024-11-08T09:00:00	4	Temperatura máxima	19.9
144403	7	Sololá	719	Santiago Atitlán	14	Cerro de Oro	4	Abril	2023-04-21T00:00:00	2024-11-08T09:00:00	3	Temperatura mínima	18.7
144404	7	Sololá	719	Santiago Atitlán	14	Cerro de Oro	4	Abril	2023-04-21T00:00:00	2024-11-08T09:00:00	5	Humedad	74
144405	7	Sololá	719	Santiago Atitlán	14	Cerro de Oro	4	Abril	2023-04-21T00:00:00	2024-11-08T09:00:00	6	Velocidad del viento	3.2
144406	7	Sololá	719	Santiago Atitlán	14	Cerro de Oro	4	Abril	2023-04-21T00:00:00	2024-11-08T09:00:00	7	Dirección del viento	3.22
144407	7	Sololá	719	Santiago Atitlán	14	Cerro de Oro	4	Abril	2023-04-21T00:00:00	2024-11-08T09:00:00	1	Precipitación	0
144408	7	Sololá	719	Santiago Atitlán	14	Cerro de Oro	4	Abril	2023-04-21T00:00:00	2024-11-08T09:00:00	8	Radiación solar	492
144409	7	Sololá	719	Santiago Atitlán	14	Cerro de Oro	4	Abril	2023-04-21T00:00:00	2024-11-08T10:00:00	2	Temperatura media	20.5
144410	7	Sololá	719	Santiago Atitlán	14	Cerro de Oro	4	Abril	2023-04-21T00:00:00	2024-11-08T10:00:00	4	Temperatura máxima	20.5
144411	7	Sololá	719	Santiago Atitlán	14	Cerro de Oro	4	Abril	2023-04-21T00:00:00	2024-11-08T10:00:00	3	Temperatura mínima	19.7
144412	7	Sololá	719	Santiago Atitlán	14	Cerro de Oro	4	Abril	2023-04-21T00:00:00	2024-11-08T10:00:00	5	Humedad	75
144413	7	Sololá	719	Santiago Atitlán	14	Cerro de Oro	4	Abril	2023-04-21T00:00:00	2024-11-08T10:00:00	6	Velocidad del viento	4.8
144414	7	Sololá	719	Santiago Atitlán	14	Cerro de Oro	4	Abril	2023-04-21T00:00:00	2024-11-08T10:00:00	7	Dirección del viento	4.83
144415	7	Sololá	719	Santiago Atitlán	14	Cerro de Oro	4	Abril	2023-04-21T00:00:00	2024-11-08T10:00:00	1	Precipitación	0
144416	7	Sololá	719	Santiago Atitlán	14	Cerro de Oro	4	Abril	2023-04-21T00:00:00	2024-11-08T10:00:00	8	Radiación solar	624
144417	7	Sololá	719	Santiago Atitlán	14	Cerro de Oro	4	Abril	2023-04-21T00:00:00	2024-11-08T11:00:00	2	Temperatura media	22
144418	7	Sololá	719	Santiago Atitlán	14	Cerro de Oro	4	Abril	2023-04-21T00:00:00	2024-11-08T11:00:00	4	Temperatura máxima	22
144419	7	Sololá	719	Santiago Atitlán	14	Cerro de Oro	4	Abril	2023-04-21T00:00:00	2024-11-08T11:00:00	3	Temperatura mínima	20.5
144420	7	Sololá	719	Santiago Atitlán	14	Cerro de Oro	4	Abril	2023-04-21T00:00:00	2024-11-08T11:00:00	5	Humedad	67
144421	7	Sololá	719	Santiago Atitlán	14	Cerro de Oro	4	Abril	2023-04-21T00:00:00	2024-11-08T11:00:00	6	Velocidad del viento	4.8
144422	7	Sololá	719	Santiago Atitlán	14	Cerro de Oro	4	Abril	2023-04-21T00:00:00	2024-11-08T11:00:00	7	Dirección del viento	4.83
144423	7	Sololá	719	Santiago Atitlán	14	Cerro de Oro	4	Abril	2023-04-21T00:00:00	2024-11-08T11:00:00	1	Precipitación	0
144424	7	Sololá	719	Santiago Atitlán	14	Cerro de Oro	4	Abril	2023-04-21T00:00:00	2024-11-08T11:00:00	8	Radiación solar	771
144425	7	Sololá	719	Santiago Atitlán	14	Cerro de Oro	4	Abril	2023-04-21T00:00:00	2024-11-08T12:00:00	2	Temperatura media	22.8
144426	7	Sololá	719	Santiago Atitlán	14	Cerro de Oro	4	Abril	2023-04-21T00:00:00	2024-11-08T12:00:00	4	Temperatura máxima	23.8
144427	7	Sololá	719	Santiago Atitlán	14	Cerro de Oro	4	Abril	2023-04-21T00:00:00	2024-11-08T12:00:00	3	Temperatura mínima	22
144428	7	Sololá	719	Santiago Atitlán	14	Cerro de Oro	4	Abril	2023-04-21T00:00:00	2024-11-08T12:00:00	5	Humedad	69
144429	7	Sololá	719	Santiago Atitlán	14	Cerro de Oro	4	Abril	2023-04-21T00:00:00	2024-11-08T12:00:00	6	Velocidad del viento	9.7
144430	7	Sololá	719	Santiago Atitlán	14	Cerro de Oro	4	Abril	2023-04-21T00:00:00	2024-11-08T12:00:00	7	Dirección del viento	9.66
144431	7	Sololá	719	Santiago Atitlán	14	Cerro de Oro	4	Abril	2023-04-21T00:00:00	2024-11-08T12:00:00	1	Precipitación	0
144432	7	Sololá	719	Santiago Atitlán	14	Cerro de Oro	4	Abril	2023-04-21T00:00:00	2024-11-08T12:00:00	8	Radiación solar	715
144433	7	Sololá	719	Santiago Atitlán	14	Cerro de Oro	4	Abril	2023-04-21T00:00:00	2024-11-08T13:00:00	2	Temperatura media	22.6
144434	7	Sololá	719	Santiago Atitlán	14	Cerro de Oro	4	Abril	2023-04-21T00:00:00	2024-11-08T13:00:00	4	Temperatura máxima	22.9
144435	7	Sololá	719	Santiago Atitlán	14	Cerro de Oro	4	Abril	2023-04-21T00:00:00	2024-11-08T13:00:00	3	Temperatura mínima	22.1
144436	7	Sololá	719	Santiago Atitlán	14	Cerro de Oro	4	Abril	2023-04-21T00:00:00	2024-11-08T13:00:00	5	Humedad	75
144437	7	Sololá	719	Santiago Atitlán	14	Cerro de Oro	4	Abril	2023-04-21T00:00:00	2024-11-08T13:00:00	6	Velocidad del viento	14.5
144438	7	Sololá	719	Santiago Atitlán	14	Cerro de Oro	4	Abril	2023-04-21T00:00:00	2024-11-08T13:00:00	7	Dirección del viento	14.48
144439	7	Sololá	719	Santiago Atitlán	14	Cerro de Oro	4	Abril	2023-04-21T00:00:00	2024-11-08T13:00:00	1	Precipitación	0
144440	7	Sololá	719	Santiago Atitlán	14	Cerro de Oro	4	Abril	2023-04-21T00:00:00	2024-11-08T13:00:00	8	Radiación solar	307
144441	7	Sololá	719	Santiago Atitlán	14	Cerro de Oro	4	Abril	2023-04-21T00:00:00	2024-11-08T14:00:00	2	Temperatura media	22.2
144442	7	Sololá	719	Santiago Atitlán	14	Cerro de Oro	4	Abril	2023-04-21T00:00:00	2024-11-08T14:00:00	4	Temperatura máxima	22.6
144443	7	Sololá	719	Santiago Atitlán	14	Cerro de Oro	4	Abril	2023-04-21T00:00:00	2024-11-08T14:00:00	3	Temperatura mínima	21.7
144444	7	Sololá	719	Santiago Atitlán	14	Cerro de Oro	4	Abril	2023-04-21T00:00:00	2024-11-08T14:00:00	5	Humedad	78
144445	7	Sololá	719	Santiago Atitlán	14	Cerro de Oro	4	Abril	2023-04-21T00:00:00	2024-11-08T14:00:00	6	Velocidad del viento	11.3
144446	7	Sololá	719	Santiago Atitlán	14	Cerro de Oro	4	Abril	2023-04-21T00:00:00	2024-11-08T14:00:00	7	Dirección del viento	11.27
144447	7	Sololá	719	Santiago Atitlán	14	Cerro de Oro	4	Abril	2023-04-21T00:00:00	2024-11-08T14:00:00	1	Precipitación	0
144448	7	Sololá	719	Santiago Atitlán	14	Cerro de Oro	4	Abril	2023-04-21T00:00:00	2024-11-08T14:00:00	8	Radiación solar	202
144449	7	Sololá	719	Santiago Atitlán	14	Cerro de Oro	4	Abril	2023-04-21T00:00:00	2024-11-08T15:00:00	2	Temperatura media	21.1
144450	7	Sololá	719	Santiago Atitlán	14	Cerro de Oro	4	Abril	2023-04-21T00:00:00	2024-11-08T15:00:00	4	Temperatura máxima	22.2
144451	7	Sololá	719	Santiago Atitlán	14	Cerro de Oro	4	Abril	2023-04-21T00:00:00	2024-11-08T15:00:00	3	Temperatura mínima	21.1
144452	7	Sololá	719	Santiago Atitlán	14	Cerro de Oro	4	Abril	2023-04-21T00:00:00	2024-11-08T15:00:00	5	Humedad	82
144453	7	Sololá	719	Santiago Atitlán	14	Cerro de Oro	4	Abril	2023-04-21T00:00:00	2024-11-08T15:00:00	6	Velocidad del viento	9.7
144454	7	Sololá	719	Santiago Atitlán	14	Cerro de Oro	4	Abril	2023-04-21T00:00:00	2024-11-08T15:00:00	7	Dirección del viento	9.66
144455	7	Sololá	719	Santiago Atitlán	14	Cerro de Oro	4	Abril	2023-04-21T00:00:00	2024-11-08T15:00:00	1	Precipitación	0
144456	7	Sololá	719	Santiago Atitlán	14	Cerro de Oro	4	Abril	2023-04-21T00:00:00	2024-11-08T15:00:00	8	Radiación solar	249
144457	7	Sololá	719	Santiago Atitlán	14	Cerro de Oro	4	Abril	2023-04-21T00:00:00	2024-11-08T16:00:00	2	Temperatura media	22.2
144458	7	Sololá	719	Santiago Atitlán	14	Cerro de Oro	4	Abril	2023-04-21T00:00:00	2024-11-08T16:00:00	4	Temperatura máxima	22.4
144459	7	Sololá	719	Santiago Atitlán	14	Cerro de Oro	4	Abril	2023-04-21T00:00:00	2024-11-08T16:00:00	3	Temperatura mínima	20.9
144460	7	Sololá	719	Santiago Atitlán	14	Cerro de Oro	4	Abril	2023-04-21T00:00:00	2024-11-08T16:00:00	5	Humedad	77
144461	7	Sololá	719	Santiago Atitlán	14	Cerro de Oro	4	Abril	2023-04-21T00:00:00	2024-11-08T16:00:00	6	Velocidad del viento	8
144462	7	Sololá	719	Santiago Atitlán	14	Cerro de Oro	4	Abril	2023-04-21T00:00:00	2024-11-08T16:00:00	7	Dirección del viento	8.05
144463	7	Sololá	719	Santiago Atitlán	14	Cerro de Oro	4	Abril	2023-04-21T00:00:00	2024-11-08T16:00:00	1	Precipitación	0
144464	7	Sololá	719	Santiago Atitlán	14	Cerro de Oro	4	Abril	2023-04-21T00:00:00	2024-11-08T16:00:00	8	Radiación solar	202
144465	7	Sololá	719	Santiago Atitlán	14	Cerro de Oro	4	Abril	2023-04-21T00:00:00	2024-11-08T17:00:00	2	Temperatura media	21.3
144466	7	Sololá	719	Santiago Atitlán	14	Cerro de Oro	4	Abril	2023-04-21T00:00:00	2024-11-08T17:00:00	4	Temperatura máxima	22.2
144467	7	Sololá	719	Santiago Atitlán	14	Cerro de Oro	4	Abril	2023-04-21T00:00:00	2024-11-08T17:00:00	3	Temperatura mínima	21.1
144468	7	Sololá	719	Santiago Atitlán	14	Cerro de Oro	4	Abril	2023-04-21T00:00:00	2024-11-08T17:00:00	5	Humedad	80
144469	7	Sololá	719	Santiago Atitlán	14	Cerro de Oro	4	Abril	2023-04-21T00:00:00	2024-11-08T17:00:00	6	Velocidad del viento	6.4
144470	7	Sololá	719	Santiago Atitlán	14	Cerro de Oro	4	Abril	2023-04-21T00:00:00	2024-11-08T17:00:00	7	Dirección del viento	6.44
144471	7	Sololá	719	Santiago Atitlán	14	Cerro de Oro	4	Abril	2023-04-21T00:00:00	2024-11-08T17:00:00	1	Precipitación	0
144472	7	Sololá	719	Santiago Atitlán	14	Cerro de Oro	4	Abril	2023-04-21T00:00:00	2024-11-08T17:00:00	8	Radiación solar	167
144473	7	Sololá	719	Santiago Atitlán	14	Cerro de Oro	4	Abril	2023-04-21T00:00:00	2024-11-08T18:00:00	2	Temperatura media	21.4
144474	7	Sololá	719	Santiago Atitlán	14	Cerro de Oro	4	Abril	2023-04-21T00:00:00	2024-11-08T18:00:00	4	Temperatura máxima	21.4
144475	7	Sololá	719	Santiago Atitlán	14	Cerro de Oro	4	Abril	2023-04-21T00:00:00	2024-11-08T18:00:00	3	Temperatura mínima	21.1
144476	7	Sololá	719	Santiago Atitlán	14	Cerro de Oro	4	Abril	2023-04-21T00:00:00	2024-11-08T18:00:00	5	Humedad	81
144477	7	Sololá	719	Santiago Atitlán	14	Cerro de Oro	4	Abril	2023-04-21T00:00:00	2024-11-08T18:00:00	6	Velocidad del viento	6.4
144478	7	Sololá	719	Santiago Atitlán	14	Cerro de Oro	4	Abril	2023-04-21T00:00:00	2024-11-08T18:00:00	7	Dirección del viento	6.44
144479	7	Sololá	719	Santiago Atitlán	14	Cerro de Oro	4	Abril	2023-04-21T00:00:00	2024-11-08T18:00:00	1	Precipitación	0
144480	7	Sololá	719	Santiago Atitlán	14	Cerro de Oro	4	Abril	2023-04-21T00:00:00	2024-11-08T18:00:00	8	Radiación solar	49
144481	7	Sololá	719	Santiago Atitlán	14	Cerro de Oro	4	Abril	2023-04-21T00:00:00	2024-11-08T19:00:00	2	Temperatura media	20.7
144482	7	Sololá	719	Santiago Atitlán	14	Cerro de Oro	4	Abril	2023-04-21T00:00:00	2024-11-08T19:00:00	4	Temperatura máxima	21.4
144483	7	Sololá	719	Santiago Atitlán	14	Cerro de Oro	4	Abril	2023-04-21T00:00:00	2024-11-08T19:00:00	3	Temperatura mínima	20.7
144484	7	Sololá	719	Santiago Atitlán	14	Cerro de Oro	4	Abril	2023-04-21T00:00:00	2024-11-08T19:00:00	5	Humedad	81
144485	7	Sololá	719	Santiago Atitlán	14	Cerro de Oro	4	Abril	2023-04-21T00:00:00	2024-11-08T19:00:00	6	Velocidad del viento	4.8
144486	7	Sololá	719	Santiago Atitlán	14	Cerro de Oro	4	Abril	2023-04-21T00:00:00	2024-11-08T19:00:00	7	Dirección del viento	4.83
144487	7	Sololá	719	Santiago Atitlán	14	Cerro de Oro	4	Abril	2023-04-21T00:00:00	2024-11-08T19:00:00	1	Precipitación	0
144488	7	Sololá	719	Santiago Atitlán	14	Cerro de Oro	4	Abril	2023-04-21T00:00:00	2024-11-08T19:00:00	8	Radiación solar	0
144489	7	Sololá	719	Santiago Atitlán	14	Cerro de Oro	4	Abril	2023-04-21T00:00:00	2024-11-08T20:00:00	2	Temperatura media	20.1
144490	7	Sololá	719	Santiago Atitlán	14	Cerro de Oro	4	Abril	2023-04-21T00:00:00	2024-11-08T20:00:00	4	Temperatura máxima	20.8
144491	7	Sololá	719	Santiago Atitlán	14	Cerro de Oro	4	Abril	2023-04-21T00:00:00	2024-11-08T20:00:00	3	Temperatura mínima	20.1
144492	7	Sololá	719	Santiago Atitlán	14	Cerro de Oro	4	Abril	2023-04-21T00:00:00	2024-11-08T20:00:00	5	Humedad	83
144493	7	Sololá	719	Santiago Atitlán	14	Cerro de Oro	4	Abril	2023-04-21T00:00:00	2024-11-08T20:00:00	6	Velocidad del viento	3.2
144494	7	Sololá	719	Santiago Atitlán	14	Cerro de Oro	4	Abril	2023-04-21T00:00:00	2024-11-08T20:00:00	7	Dirección del viento	3.22
144495	7	Sololá	719	Santiago Atitlán	14	Cerro de Oro	4	Abril	2023-04-21T00:00:00	2024-11-08T20:00:00	1	Precipitación	0
144496	7	Sololá	719	Santiago Atitlán	14	Cerro de Oro	4	Abril	2023-04-21T00:00:00	2024-11-08T20:00:00	8	Radiación solar	0
144497	7	Sololá	719	Santiago Atitlán	14	Cerro de Oro	4	Abril	2023-04-21T00:00:00	2024-11-08T21:00:00	2	Temperatura media	19
144498	7	Sololá	719	Santiago Atitlán	14	Cerro de Oro	4	Abril	2023-04-21T00:00:00	2024-11-08T21:00:00	4	Temperatura máxima	20.1
144499	7	Sololá	719	Santiago Atitlán	14	Cerro de Oro	4	Abril	2023-04-21T00:00:00	2024-11-08T21:00:00	3	Temperatura mínima	19
144500	7	Sololá	719	Santiago Atitlán	14	Cerro de Oro	4	Abril	2023-04-21T00:00:00	2024-11-08T21:00:00	5	Humedad	85
144501	7	Sololá	719	Santiago Atitlán	14	Cerro de Oro	4	Abril	2023-04-21T00:00:00	2024-11-08T21:00:00	6	Velocidad del viento	3.2
144502	7	Sololá	719	Santiago Atitlán	14	Cerro de Oro	4	Abril	2023-04-21T00:00:00	2024-11-08T21:00:00	7	Dirección del viento	3.22
144503	7	Sololá	719	Santiago Atitlán	14	Cerro de Oro	4	Abril	2023-04-21T00:00:00	2024-11-08T21:00:00	1	Precipitación	0
144504	7	Sololá	719	Santiago Atitlán	14	Cerro de Oro	4	Abril	2023-04-21T00:00:00	2024-11-08T21:00:00	8	Radiación solar	0
144505	7	Sololá	719	Santiago Atitlán	14	Cerro de Oro	4	Abril	2023-04-21T00:00:00	2024-11-08T22:00:00	2	Temperatura media	18.7
144506	7	Sololá	719	Santiago Atitlán	14	Cerro de Oro	4	Abril	2023-04-21T00:00:00	2024-11-08T22:00:00	4	Temperatura máxima	19.2
144507	7	Sololá	719	Santiago Atitlán	14	Cerro de Oro	4	Abril	2023-04-21T00:00:00	2024-11-08T22:00:00	3	Temperatura mínima	18.5
144508	7	Sololá	719	Santiago Atitlán	14	Cerro de Oro	4	Abril	2023-04-21T00:00:00	2024-11-08T22:00:00	5	Humedad	87
144509	7	Sololá	719	Santiago Atitlán	14	Cerro de Oro	4	Abril	2023-04-21T00:00:00	2024-11-08T22:00:00	6	Velocidad del viento	1.6
144510	7	Sololá	719	Santiago Atitlán	14	Cerro de Oro	4	Abril	2023-04-21T00:00:00	2024-11-08T22:00:00	7	Dirección del viento	1.61
144511	7	Sololá	719	Santiago Atitlán	14	Cerro de Oro	4	Abril	2023-04-21T00:00:00	2024-11-08T22:00:00	1	Precipitación	0
144512	7	Sololá	719	Santiago Atitlán	14	Cerro de Oro	4	Abril	2023-04-21T00:00:00	2024-11-08T22:00:00	8	Radiación solar	0
144513	7	Sololá	719	Santiago Atitlán	14	Cerro de Oro	4	Abril	2023-04-21T00:00:00	2024-11-08T23:00:00	2	Temperatura media	18.3
144514	7	Sololá	719	Santiago Atitlán	14	Cerro de Oro	4	Abril	2023-04-21T00:00:00	2024-11-08T23:00:00	4	Temperatura máxima	18.7
144515	7	Sololá	719	Santiago Atitlán	14	Cerro de Oro	4	Abril	2023-04-21T00:00:00	2024-11-08T23:00:00	3	Temperatura mínima	18.3
144516	7	Sololá	719	Santiago Atitlán	14	Cerro de Oro	4	Abril	2023-04-21T00:00:00	2024-11-08T23:00:00	5	Humedad	88
144517	7	Sololá	719	Santiago Atitlán	14	Cerro de Oro	4	Abril	2023-04-21T00:00:00	2024-11-08T23:00:00	6	Velocidad del viento	3.2
144518	7	Sololá	719	Santiago Atitlán	14	Cerro de Oro	4	Abril	2023-04-21T00:00:00	2024-11-08T23:00:00	7	Dirección del viento	3.22
144519	7	Sololá	719	Santiago Atitlán	14	Cerro de Oro	4	Abril	2023-04-21T00:00:00	2024-11-08T23:00:00	1	Precipitación	0
144520	7	Sololá	719	Santiago Atitlán	14	Cerro de Oro	4	Abril	2023-04-21T00:00:00	2024-11-08T23:00:00	8	Radiación solar	0
144521	7	Sololá	719	Santiago Atitlán	14	Cerro de Oro	4	Abril	2023-04-22T00:00:00	2024-11-08T00:00:00	2	Temperatura media	18.4
144522	7	Sololá	719	Santiago Atitlán	14	Cerro de Oro	4	Abril	2023-04-22T00:00:00	2024-11-08T00:00:00	4	Temperatura máxima	18.7
144523	7	Sololá	719	Santiago Atitlán	14	Cerro de Oro	4	Abril	2023-04-22T00:00:00	2024-11-08T00:00:00	3	Temperatura mínima	18.3
144524	7	Sololá	719	Santiago Atitlán	14	Cerro de Oro	4	Abril	2023-04-22T00:00:00	2024-11-08T00:00:00	5	Humedad	90
144525	7	Sololá	719	Santiago Atitlán	14	Cerro de Oro	4	Abril	2023-04-22T00:00:00	2024-11-08T00:00:00	6	Velocidad del viento	3.2
144526	7	Sololá	719	Santiago Atitlán	14	Cerro de Oro	4	Abril	2023-04-22T00:00:00	2024-11-08T00:00:00	7	Dirección del viento	3.22
144527	7	Sololá	719	Santiago Atitlán	14	Cerro de Oro	4	Abril	2023-04-22T00:00:00	2024-11-08T00:00:00	1	Precipitación	0
144528	7	Sololá	719	Santiago Atitlán	14	Cerro de Oro	4	Abril	2023-04-22T00:00:00	2024-11-08T00:00:00	8	Radiación solar	0
144529	7	Sololá	719	Santiago Atitlán	14	Cerro de Oro	4	Abril	2023-04-22T00:00:00	2024-11-08T01:00:00	2	Temperatura media	18.4
144530	7	Sololá	719	Santiago Atitlán	14	Cerro de Oro	4	Abril	2023-04-22T00:00:00	2024-11-08T01:00:00	4	Temperatura máxima	18.6
144531	7	Sololá	719	Santiago Atitlán	14	Cerro de Oro	4	Abril	2023-04-22T00:00:00	2024-11-08T01:00:00	3	Temperatura mínima	18.2
144532	7	Sololá	719	Santiago Atitlán	14	Cerro de Oro	4	Abril	2023-04-22T00:00:00	2024-11-08T01:00:00	5	Humedad	89
144533	7	Sololá	719	Santiago Atitlán	14	Cerro de Oro	4	Abril	2023-04-22T00:00:00	2024-11-08T01:00:00	6	Velocidad del viento	4.8
144534	7	Sololá	719	Santiago Atitlán	14	Cerro de Oro	4	Abril	2023-04-22T00:00:00	2024-11-08T01:00:00	7	Dirección del viento	4.83
144535	7	Sololá	719	Santiago Atitlán	14	Cerro de Oro	4	Abril	2023-04-22T00:00:00	2024-11-08T01:00:00	1	Precipitación	0
144536	7	Sololá	719	Santiago Atitlán	14	Cerro de Oro	4	Abril	2023-04-22T00:00:00	2024-11-08T01:00:00	8	Radiación solar	0
144537	7	Sololá	719	Santiago Atitlán	14	Cerro de Oro	4	Abril	2023-04-22T00:00:00	2024-11-08T02:00:00	2	Temperatura media	18.1
144538	7	Sololá	719	Santiago Atitlán	14	Cerro de Oro	4	Abril	2023-04-22T00:00:00	2024-11-08T02:00:00	4	Temperatura máxima	18.4
144539	7	Sololá	719	Santiago Atitlán	14	Cerro de Oro	4	Abril	2023-04-22T00:00:00	2024-11-08T02:00:00	3	Temperatura mínima	18
144540	7	Sololá	719	Santiago Atitlán	14	Cerro de Oro	4	Abril	2023-04-22T00:00:00	2024-11-08T02:00:00	5	Humedad	86
144541	7	Sololá	719	Santiago Atitlán	14	Cerro de Oro	4	Abril	2023-04-22T00:00:00	2024-11-08T02:00:00	6	Velocidad del viento	3.2
144542	7	Sololá	719	Santiago Atitlán	14	Cerro de Oro	4	Abril	2023-04-22T00:00:00	2024-11-08T02:00:00	7	Dirección del viento	3.22
144543	7	Sololá	719	Santiago Atitlán	14	Cerro de Oro	4	Abril	2023-04-22T00:00:00	2024-11-08T02:00:00	1	Precipitación	0
144544	7	Sololá	719	Santiago Atitlán	14	Cerro de Oro	4	Abril	2023-04-22T00:00:00	2024-11-08T02:00:00	8	Radiación solar	0
144545	7	Sololá	719	Santiago Atitlán	14	Cerro de Oro	4	Abril	2023-04-22T00:00:00	2024-11-08T03:00:00	2	Temperatura media	17.8
144546	7	Sololá	719	Santiago Atitlán	14	Cerro de Oro	4	Abril	2023-04-22T00:00:00	2024-11-08T03:00:00	4	Temperatura máxima	18.2
144547	7	Sololá	719	Santiago Atitlán	14	Cerro de Oro	4	Abril	2023-04-22T00:00:00	2024-11-08T03:00:00	3	Temperatura mínima	17.8
144548	7	Sololá	719	Santiago Atitlán	14	Cerro de Oro	4	Abril	2023-04-22T00:00:00	2024-11-08T03:00:00	5	Humedad	89
144549	7	Sololá	719	Santiago Atitlán	14	Cerro de Oro	4	Abril	2023-04-22T00:00:00	2024-11-08T03:00:00	6	Velocidad del viento	3.2
144550	7	Sololá	719	Santiago Atitlán	14	Cerro de Oro	4	Abril	2023-04-22T00:00:00	2024-11-08T03:00:00	7	Dirección del viento	3.22
144551	7	Sololá	719	Santiago Atitlán	14	Cerro de Oro	4	Abril	2023-04-22T00:00:00	2024-11-08T03:00:00	1	Precipitación	0
144552	7	Sololá	719	Santiago Atitlán	14	Cerro de Oro	4	Abril	2023-04-22T00:00:00	2024-11-08T03:00:00	8	Radiación solar	0
144553	7	Sololá	719	Santiago Atitlán	14	Cerro de Oro	4	Abril	2023-04-22T00:00:00	2024-11-08T04:00:00	2	Temperatura media	17.6
144554	7	Sololá	719	Santiago Atitlán	14	Cerro de Oro	4	Abril	2023-04-22T00:00:00	2024-11-08T04:00:00	4	Temperatura máxima	17.8
144555	7	Sololá	719	Santiago Atitlán	14	Cerro de Oro	4	Abril	2023-04-22T00:00:00	2024-11-08T04:00:00	3	Temperatura mínima	17.5
144556	7	Sololá	719	Santiago Atitlán	14	Cerro de Oro	4	Abril	2023-04-22T00:00:00	2024-11-08T04:00:00	5	Humedad	81
144557	7	Sololá	719	Santiago Atitlán	14	Cerro de Oro	4	Abril	2023-04-22T00:00:00	2024-11-08T04:00:00	6	Velocidad del viento	1.6
144558	7	Sololá	719	Santiago Atitlán	14	Cerro de Oro	4	Abril	2023-04-22T00:00:00	2024-11-08T04:00:00	7	Dirección del viento	1.61
144559	7	Sololá	719	Santiago Atitlán	14	Cerro de Oro	4	Abril	2023-04-22T00:00:00	2024-11-08T04:00:00	1	Precipitación	0
144560	7	Sololá	719	Santiago Atitlán	14	Cerro de Oro	4	Abril	2023-04-22T00:00:00	2024-11-08T04:00:00	8	Radiación solar	0
144561	7	Sololá	719	Santiago Atitlán	14	Cerro de Oro	4	Abril	2023-04-22T00:00:00	2024-11-08T05:00:00	2	Temperatura media	17.2
144562	7	Sololá	719	Santiago Atitlán	14	Cerro de Oro	4	Abril	2023-04-22T00:00:00	2024-11-08T05:00:00	4	Temperatura máxima	17.6
144563	7	Sololá	719	Santiago Atitlán	14	Cerro de Oro	4	Abril	2023-04-22T00:00:00	2024-11-08T05:00:00	3	Temperatura mínima	17.1
144564	7	Sololá	719	Santiago Atitlán	14	Cerro de Oro	4	Abril	2023-04-22T00:00:00	2024-11-08T05:00:00	5	Humedad	81
144565	7	Sololá	719	Santiago Atitlán	14	Cerro de Oro	4	Abril	2023-04-22T00:00:00	2024-11-08T05:00:00	6	Velocidad del viento	3.2
144566	7	Sololá	719	Santiago Atitlán	14	Cerro de Oro	4	Abril	2023-04-22T00:00:00	2024-11-08T05:00:00	7	Dirección del viento	3.22
144567	7	Sololá	719	Santiago Atitlán	14	Cerro de Oro	4	Abril	2023-04-22T00:00:00	2024-11-08T05:00:00	1	Precipitación	0
144568	7	Sololá	719	Santiago Atitlán	14	Cerro de Oro	4	Abril	2023-04-22T00:00:00	2024-11-08T05:00:00	8	Radiación solar	0
144569	7	Sololá	719	Santiago Atitlán	14	Cerro de Oro	4	Abril	2023-04-22T00:00:00	2024-11-08T06:00:00	2	Temperatura media	16.8
144570	7	Sololá	719	Santiago Atitlán	14	Cerro de Oro	4	Abril	2023-04-22T00:00:00	2024-11-08T06:00:00	4	Temperatura máxima	17.2
144571	7	Sololá	719	Santiago Atitlán	14	Cerro de Oro	4	Abril	2023-04-22T00:00:00	2024-11-08T06:00:00	3	Temperatura mínima	16.7
144572	7	Sololá	719	Santiago Atitlán	14	Cerro de Oro	4	Abril	2023-04-22T00:00:00	2024-11-08T06:00:00	5	Humedad	83
144573	7	Sololá	719	Santiago Atitlán	14	Cerro de Oro	4	Abril	2023-04-22T00:00:00	2024-11-08T06:00:00	6	Velocidad del viento	3.2
144574	7	Sololá	719	Santiago Atitlán	14	Cerro de Oro	4	Abril	2023-04-22T00:00:00	2024-11-08T06:00:00	7	Dirección del viento	3.22
144575	7	Sololá	719	Santiago Atitlán	14	Cerro de Oro	4	Abril	2023-04-22T00:00:00	2024-11-08T06:00:00	1	Precipitación	0
144576	7	Sololá	719	Santiago Atitlán	14	Cerro de Oro	4	Abril	2023-04-22T00:00:00	2024-11-08T06:00:00	8	Radiación solar	3
144577	7	Sololá	719	Santiago Atitlán	14	Cerro de Oro	4	Abril	2023-04-22T00:00:00	2024-11-08T07:00:00	2	Temperatura media	17.1
144578	7	Sololá	719	Santiago Atitlán	14	Cerro de Oro	4	Abril	2023-04-22T00:00:00	2024-11-08T07:00:00	4	Temperatura máxima	17.2
144579	7	Sololá	719	Santiago Atitlán	14	Cerro de Oro	4	Abril	2023-04-22T00:00:00	2024-11-08T07:00:00	3	Temperatura mínima	16.6
144580	7	Sololá	719	Santiago Atitlán	14	Cerro de Oro	4	Abril	2023-04-22T00:00:00	2024-11-08T07:00:00	5	Humedad	84
144581	7	Sololá	719	Santiago Atitlán	14	Cerro de Oro	4	Abril	2023-04-22T00:00:00	2024-11-08T07:00:00	6	Velocidad del viento	3.2
144582	7	Sololá	719	Santiago Atitlán	14	Cerro de Oro	4	Abril	2023-04-22T00:00:00	2024-11-08T07:00:00	7	Dirección del viento	3.22
144583	7	Sololá	719	Santiago Atitlán	14	Cerro de Oro	4	Abril	2023-04-22T00:00:00	2024-11-08T07:00:00	1	Precipitación	0
144584	7	Sololá	719	Santiago Atitlán	14	Cerro de Oro	4	Abril	2023-04-22T00:00:00	2024-11-08T07:00:00	8	Radiación solar	89
144585	7	Sololá	719	Santiago Atitlán	14	Cerro de Oro	4	Abril	2023-04-22T00:00:00	2024-11-08T08:00:00	2	Temperatura media	18.6
144586	7	Sololá	719	Santiago Atitlán	14	Cerro de Oro	4	Abril	2023-04-22T00:00:00	2024-11-08T08:00:00	4	Temperatura máxima	18.6
144587	7	Sololá	719	Santiago Atitlán	14	Cerro de Oro	4	Abril	2023-04-22T00:00:00	2024-11-08T08:00:00	3	Temperatura mínima	16.9
144588	7	Sololá	719	Santiago Atitlán	14	Cerro de Oro	4	Abril	2023-04-22T00:00:00	2024-11-08T08:00:00	5	Humedad	76
144589	7	Sololá	719	Santiago Atitlán	14	Cerro de Oro	4	Abril	2023-04-22T00:00:00	2024-11-08T08:00:00	6	Velocidad del viento	3.2
144590	7	Sololá	719	Santiago Atitlán	14	Cerro de Oro	4	Abril	2023-04-22T00:00:00	2024-11-08T08:00:00	7	Dirección del viento	3.22
144591	7	Sololá	719	Santiago Atitlán	14	Cerro de Oro	4	Abril	2023-04-22T00:00:00	2024-11-08T08:00:00	1	Precipitación	0
144592	7	Sololá	719	Santiago Atitlán	14	Cerro de Oro	4	Abril	2023-04-22T00:00:00	2024-11-08T08:00:00	8	Radiación solar	302
144593	7	Sololá	719	Santiago Atitlán	14	Cerro de Oro	4	Abril	2023-04-22T00:00:00	2024-11-08T09:00:00	2	Temperatura media	20.2
144594	7	Sololá	719	Santiago Atitlán	14	Cerro de Oro	4	Abril	2023-04-22T00:00:00	2024-11-08T09:00:00	4	Temperatura máxima	20.3
144595	7	Sololá	719	Santiago Atitlán	14	Cerro de Oro	4	Abril	2023-04-22T00:00:00	2024-11-08T09:00:00	3	Temperatura mínima	18.6
144596	7	Sololá	719	Santiago Atitlán	14	Cerro de Oro	4	Abril	2023-04-22T00:00:00	2024-11-08T09:00:00	5	Humedad	73
144597	7	Sololá	719	Santiago Atitlán	14	Cerro de Oro	4	Abril	2023-04-22T00:00:00	2024-11-08T09:00:00	6	Velocidad del viento	3.2
144598	7	Sololá	719	Santiago Atitlán	14	Cerro de Oro	4	Abril	2023-04-22T00:00:00	2024-11-08T09:00:00	7	Dirección del viento	3.22
144599	7	Sololá	719	Santiago Atitlán	14	Cerro de Oro	4	Abril	2023-04-22T00:00:00	2024-11-08T09:00:00	1	Precipitación	0
144600	7	Sololá	719	Santiago Atitlán	14	Cerro de Oro	4	Abril	2023-04-22T00:00:00	2024-11-08T09:00:00	8	Radiación solar	521
144601	7	Sololá	719	Santiago Atitlán	14	Cerro de Oro	4	Abril	2023-04-22T00:00:00	2024-11-08T10:00:00	2	Temperatura media	20.9
144602	7	Sololá	719	Santiago Atitlán	14	Cerro de Oro	4	Abril	2023-04-22T00:00:00	2024-11-08T10:00:00	4	Temperatura máxima	20.9
144603	7	Sololá	719	Santiago Atitlán	14	Cerro de Oro	4	Abril	2023-04-22T00:00:00	2024-11-08T10:00:00	3	Temperatura mínima	20.2
144604	7	Sololá	719	Santiago Atitlán	14	Cerro de Oro	4	Abril	2023-04-22T00:00:00	2024-11-08T10:00:00	5	Humedad	76
144605	7	Sololá	719	Santiago Atitlán	14	Cerro de Oro	4	Abril	2023-04-22T00:00:00	2024-11-08T10:00:00	6	Velocidad del viento	4.8
144606	7	Sololá	719	Santiago Atitlán	14	Cerro de Oro	4	Abril	2023-04-22T00:00:00	2024-11-08T10:00:00	7	Dirección del viento	4.83
144607	7	Sololá	719	Santiago Atitlán	14	Cerro de Oro	4	Abril	2023-04-22T00:00:00	2024-11-08T10:00:00	1	Precipitación	0
144608	7	Sololá	719	Santiago Atitlán	14	Cerro de Oro	4	Abril	2023-04-22T00:00:00	2024-11-08T10:00:00	8	Radiación solar	647
144609	7	Sololá	719	Santiago Atitlán	14	Cerro de Oro	4	Abril	2023-04-22T00:00:00	2024-11-08T11:00:00	2	Temperatura media	22.2
144610	7	Sololá	719	Santiago Atitlán	14	Cerro de Oro	4	Abril	2023-04-22T00:00:00	2024-11-08T11:00:00	4	Temperatura máxima	22.2
144611	7	Sololá	719	Santiago Atitlán	14	Cerro de Oro	4	Abril	2023-04-22T00:00:00	2024-11-08T11:00:00	3	Temperatura mínima	20.9
144612	7	Sololá	719	Santiago Atitlán	14	Cerro de Oro	4	Abril	2023-04-22T00:00:00	2024-11-08T11:00:00	5	Humedad	67
144613	7	Sololá	719	Santiago Atitlán	14	Cerro de Oro	4	Abril	2023-04-22T00:00:00	2024-11-08T11:00:00	6	Velocidad del viento	4.8
144614	7	Sololá	719	Santiago Atitlán	14	Cerro de Oro	4	Abril	2023-04-22T00:00:00	2024-11-08T11:00:00	7	Dirección del viento	4.83
144615	7	Sololá	719	Santiago Atitlán	14	Cerro de Oro	4	Abril	2023-04-22T00:00:00	2024-11-08T11:00:00	1	Precipitación	0
144616	7	Sololá	719	Santiago Atitlán	14	Cerro de Oro	4	Abril	2023-04-22T00:00:00	2024-11-08T11:00:00	8	Radiación solar	826
144617	7	Sololá	719	Santiago Atitlán	14	Cerro de Oro	4	Abril	2023-04-22T00:00:00	2024-11-08T12:00:00	2	Temperatura media	24.6
144618	7	Sololá	719	Santiago Atitlán	14	Cerro de Oro	4	Abril	2023-04-22T00:00:00	2024-11-08T12:00:00	4	Temperatura máxima	25.6
144619	7	Sololá	719	Santiago Atitlán	14	Cerro de Oro	4	Abril	2023-04-22T00:00:00	2024-11-08T12:00:00	3	Temperatura mínima	22.2
144620	7	Sololá	719	Santiago Atitlán	14	Cerro de Oro	4	Abril	2023-04-22T00:00:00	2024-11-08T12:00:00	5	Humedad	66
144621	7	Sololá	719	Santiago Atitlán	14	Cerro de Oro	4	Abril	2023-04-22T00:00:00	2024-11-08T12:00:00	6	Velocidad del viento	6.4
144622	7	Sololá	719	Santiago Atitlán	14	Cerro de Oro	4	Abril	2023-04-22T00:00:00	2024-11-08T12:00:00	7	Dirección del viento	6.44
144623	7	Sololá	719	Santiago Atitlán	14	Cerro de Oro	4	Abril	2023-04-22T00:00:00	2024-11-08T12:00:00	1	Precipitación	0
144624	7	Sololá	719	Santiago Atitlán	14	Cerro de Oro	4	Abril	2023-04-22T00:00:00	2024-11-08T12:00:00	8	Radiación solar	908
144625	7	Sololá	719	Santiago Atitlán	14	Cerro de Oro	4	Abril	2023-04-22T00:00:00	2024-11-08T13:00:00	2	Temperatura media	24.7
144626	7	Sololá	719	Santiago Atitlán	14	Cerro de Oro	4	Abril	2023-04-22T00:00:00	2024-11-08T13:00:00	4	Temperatura máxima	25.6
144627	7	Sololá	719	Santiago Atitlán	14	Cerro de Oro	4	Abril	2023-04-22T00:00:00	2024-11-08T13:00:00	3	Temperatura mínima	24.4
144628	7	Sololá	719	Santiago Atitlán	14	Cerro de Oro	4	Abril	2023-04-22T00:00:00	2024-11-08T13:00:00	5	Humedad	67
144629	7	Sololá	719	Santiago Atitlán	14	Cerro de Oro	4	Abril	2023-04-22T00:00:00	2024-11-08T13:00:00	6	Velocidad del viento	12.9
144630	7	Sololá	719	Santiago Atitlán	14	Cerro de Oro	4	Abril	2023-04-22T00:00:00	2024-11-08T13:00:00	7	Dirección del viento	12.87
144631	7	Sololá	719	Santiago Atitlán	14	Cerro de Oro	4	Abril	2023-04-22T00:00:00	2024-11-08T13:00:00	1	Precipitación	0
144632	7	Sololá	719	Santiago Atitlán	14	Cerro de Oro	4	Abril	2023-04-22T00:00:00	2024-11-08T13:00:00	8	Radiación solar	909
144633	7	Sololá	719	Santiago Atitlán	14	Cerro de Oro	4	Abril	2023-04-22T00:00:00	2024-11-08T14:00:00	2	Temperatura media	24.4
144634	7	Sololá	719	Santiago Atitlán	14	Cerro de Oro	4	Abril	2023-04-22T00:00:00	2024-11-08T14:00:00	4	Temperatura máxima	25
144635	7	Sololá	719	Santiago Atitlán	14	Cerro de Oro	4	Abril	2023-04-22T00:00:00	2024-11-08T14:00:00	3	Temperatura mínima	24.4
144636	7	Sololá	719	Santiago Atitlán	14	Cerro de Oro	4	Abril	2023-04-22T00:00:00	2024-11-08T14:00:00	5	Humedad	66
144637	7	Sololá	719	Santiago Atitlán	14	Cerro de Oro	4	Abril	2023-04-22T00:00:00	2024-11-08T14:00:00	6	Velocidad del viento	16.1
144638	7	Sololá	719	Santiago Atitlán	14	Cerro de Oro	4	Abril	2023-04-22T00:00:00	2024-11-08T14:00:00	7	Dirección del viento	16.09
144639	7	Sololá	719	Santiago Atitlán	14	Cerro de Oro	4	Abril	2023-04-22T00:00:00	2024-11-08T14:00:00	1	Precipitación	0
144640	7	Sololá	719	Santiago Atitlán	14	Cerro de Oro	4	Abril	2023-04-22T00:00:00	2024-11-08T14:00:00	8	Radiación solar	670
144641	7	Sololá	719	Santiago Atitlán	14	Cerro de Oro	4	Abril	2023-04-22T00:00:00	2024-11-08T15:00:00	2	Temperatura media	23.4
144642	7	Sololá	719	Santiago Atitlán	14	Cerro de Oro	4	Abril	2023-04-22T00:00:00	2024-11-08T15:00:00	4	Temperatura máxima	24.8
144643	7	Sololá	719	Santiago Atitlán	14	Cerro de Oro	4	Abril	2023-04-22T00:00:00	2024-11-08T15:00:00	3	Temperatura mínima	23.4
144644	7	Sololá	719	Santiago Atitlán	14	Cerro de Oro	4	Abril	2023-04-22T00:00:00	2024-11-08T15:00:00	5	Humedad	75
144645	7	Sololá	719	Santiago Atitlán	14	Cerro de Oro	4	Abril	2023-04-22T00:00:00	2024-11-08T15:00:00	6	Velocidad del viento	14.5
144646	7	Sololá	719	Santiago Atitlán	14	Cerro de Oro	4	Abril	2023-04-22T00:00:00	2024-11-08T15:00:00	7	Dirección del viento	14.48
144647	7	Sololá	719	Santiago Atitlán	14	Cerro de Oro	4	Abril	2023-04-22T00:00:00	2024-11-08T15:00:00	1	Precipitación	0
144648	7	Sololá	719	Santiago Atitlán	14	Cerro de Oro	4	Abril	2023-04-22T00:00:00	2024-11-08T15:00:00	8	Radiación solar	301
144649	7	Sololá	719	Santiago Atitlán	14	Cerro de Oro	4	Abril	2023-04-22T00:00:00	2024-11-08T16:00:00	2	Temperatura media	23.2
144650	7	Sololá	719	Santiago Atitlán	14	Cerro de Oro	4	Abril	2023-04-22T00:00:00	2024-11-08T16:00:00	4	Temperatura máxima	23.5
144651	7	Sololá	719	Santiago Atitlán	14	Cerro de Oro	4	Abril	2023-04-22T00:00:00	2024-11-08T16:00:00	3	Temperatura mínima	23.1
144652	7	Sololá	719	Santiago Atitlán	14	Cerro de Oro	4	Abril	2023-04-22T00:00:00	2024-11-08T16:00:00	5	Humedad	76
144653	7	Sololá	719	Santiago Atitlán	14	Cerro de Oro	4	Abril	2023-04-22T00:00:00	2024-11-08T16:00:00	6	Velocidad del viento	11.3
144654	7	Sololá	719	Santiago Atitlán	14	Cerro de Oro	4	Abril	2023-04-22T00:00:00	2024-11-08T16:00:00	7	Dirección del viento	11.27
144655	7	Sololá	719	Santiago Atitlán	14	Cerro de Oro	4	Abril	2023-04-22T00:00:00	2024-11-08T16:00:00	1	Precipitación	0
144656	7	Sololá	719	Santiago Atitlán	14	Cerro de Oro	4	Abril	2023-04-22T00:00:00	2024-11-08T16:00:00	8	Radiación solar	175
144657	7	Sololá	719	Santiago Atitlán	14	Cerro de Oro	4	Abril	2023-04-22T00:00:00	2024-11-08T17:00:00	2	Temperatura media	22.4
144658	7	Sololá	719	Santiago Atitlán	14	Cerro de Oro	4	Abril	2023-04-22T00:00:00	2024-11-08T17:00:00	4	Temperatura máxima	23.2
144659	7	Sololá	719	Santiago Atitlán	14	Cerro de Oro	4	Abril	2023-04-22T00:00:00	2024-11-08T17:00:00	3	Temperatura mínima	22.4
144660	7	Sololá	719	Santiago Atitlán	14	Cerro de Oro	4	Abril	2023-04-22T00:00:00	2024-11-08T17:00:00	5	Humedad	78
144661	7	Sololá	719	Santiago Atitlán	14	Cerro de Oro	4	Abril	2023-04-22T00:00:00	2024-11-08T17:00:00	6	Velocidad del viento	11.3
144662	7	Sololá	719	Santiago Atitlán	14	Cerro de Oro	4	Abril	2023-04-22T00:00:00	2024-11-08T17:00:00	7	Dirección del viento	11.27
144663	7	Sololá	719	Santiago Atitlán	14	Cerro de Oro	4	Abril	2023-04-22T00:00:00	2024-11-08T17:00:00	1	Precipitación	0
144664	7	Sololá	719	Santiago Atitlán	14	Cerro de Oro	4	Abril	2023-04-22T00:00:00	2024-11-08T17:00:00	8	Radiación solar	82
144665	7	Sololá	719	Santiago Atitlán	14	Cerro de Oro	4	Abril	2023-04-22T00:00:00	2024-11-08T18:00:00	2	Temperatura media	21.9
144666	7	Sololá	719	Santiago Atitlán	14	Cerro de Oro	4	Abril	2023-04-22T00:00:00	2024-11-08T18:00:00	4	Temperatura máxima	22.4
144667	7	Sololá	719	Santiago Atitlán	14	Cerro de Oro	4	Abril	2023-04-22T00:00:00	2024-11-08T18:00:00	3	Temperatura mínima	21.8
144668	7	Sololá	719	Santiago Atitlán	14	Cerro de Oro	4	Abril	2023-04-22T00:00:00	2024-11-08T18:00:00	5	Humedad	79
144669	7	Sololá	719	Santiago Atitlán	14	Cerro de Oro	4	Abril	2023-04-22T00:00:00	2024-11-08T18:00:00	6	Velocidad del viento	6.4
144670	7	Sololá	719	Santiago Atitlán	14	Cerro de Oro	4	Abril	2023-04-22T00:00:00	2024-11-08T18:00:00	7	Dirección del viento	6.44
144671	7	Sololá	719	Santiago Atitlán	14	Cerro de Oro	4	Abril	2023-04-22T00:00:00	2024-11-08T18:00:00	1	Precipitación	0
144672	7	Sololá	719	Santiago Atitlán	14	Cerro de Oro	4	Abril	2023-04-22T00:00:00	2024-11-08T18:00:00	8	Radiación solar	35
144673	7	Sololá	719	Santiago Atitlán	14	Cerro de Oro	4	Abril	2023-04-22T00:00:00	2024-11-08T19:00:00	2	Temperatura media	21.6
144674	7	Sololá	719	Santiago Atitlán	14	Cerro de Oro	4	Abril	2023-04-22T00:00:00	2024-11-08T19:00:00	4	Temperatura máxima	22
144675	7	Sololá	719	Santiago Atitlán	14	Cerro de Oro	4	Abril	2023-04-22T00:00:00	2024-11-08T19:00:00	3	Temperatura mínima	21.5
144676	7	Sololá	719	Santiago Atitlán	14	Cerro de Oro	4	Abril	2023-04-22T00:00:00	2024-11-08T19:00:00	5	Humedad	80
144677	7	Sololá	719	Santiago Atitlán	14	Cerro de Oro	4	Abril	2023-04-22T00:00:00	2024-11-08T19:00:00	6	Velocidad del viento	3.2
144678	7	Sololá	719	Santiago Atitlán	14	Cerro de Oro	4	Abril	2023-04-22T00:00:00	2024-11-08T19:00:00	7	Dirección del viento	3.22
144679	7	Sololá	719	Santiago Atitlán	14	Cerro de Oro	4	Abril	2023-04-22T00:00:00	2024-11-08T19:00:00	1	Precipitación	0
144680	7	Sololá	719	Santiago Atitlán	14	Cerro de Oro	4	Abril	2023-04-22T00:00:00	2024-11-08T19:00:00	8	Radiación solar	0
144681	7	Sololá	719	Santiago Atitlán	14	Cerro de Oro	4	Abril	2023-04-22T00:00:00	2024-11-08T20:00:00	2	Temperatura media	21.1
144682	7	Sololá	719	Santiago Atitlán	14	Cerro de Oro	4	Abril	2023-04-22T00:00:00	2024-11-08T20:00:00	4	Temperatura máxima	21.6
144683	7	Sololá	719	Santiago Atitlán	14	Cerro de Oro	4	Abril	2023-04-22T00:00:00	2024-11-08T20:00:00	3	Temperatura mínima	21.1
144684	7	Sololá	719	Santiago Atitlán	14	Cerro de Oro	4	Abril	2023-04-22T00:00:00	2024-11-08T20:00:00	5	Humedad	81
144685	7	Sololá	719	Santiago Atitlán	14	Cerro de Oro	4	Abril	2023-04-22T00:00:00	2024-11-08T20:00:00	6	Velocidad del viento	3.2
144686	7	Sololá	719	Santiago Atitlán	14	Cerro de Oro	4	Abril	2023-04-22T00:00:00	2024-11-08T20:00:00	7	Dirección del viento	3.22
144687	7	Sololá	719	Santiago Atitlán	14	Cerro de Oro	4	Abril	2023-04-22T00:00:00	2024-11-08T20:00:00	1	Precipitación	0
144688	7	Sololá	719	Santiago Atitlán	14	Cerro de Oro	4	Abril	2023-04-22T00:00:00	2024-11-08T20:00:00	8	Radiación solar	0
144689	7	Sololá	719	Santiago Atitlán	14	Cerro de Oro	4	Abril	2023-04-22T00:00:00	2024-11-08T21:00:00	2	Temperatura media	20.3
144690	7	Sololá	719	Santiago Atitlán	14	Cerro de Oro	4	Abril	2023-04-22T00:00:00	2024-11-08T21:00:00	4	Temperatura máxima	21.1
144691	7	Sololá	719	Santiago Atitlán	14	Cerro de Oro	4	Abril	2023-04-22T00:00:00	2024-11-08T21:00:00	3	Temperatura mínima	20.3
144692	7	Sololá	719	Santiago Atitlán	14	Cerro de Oro	4	Abril	2023-04-22T00:00:00	2024-11-08T21:00:00	5	Humedad	83
144693	7	Sololá	719	Santiago Atitlán	14	Cerro de Oro	4	Abril	2023-04-22T00:00:00	2024-11-08T21:00:00	6	Velocidad del viento	3.2
144694	7	Sololá	719	Santiago Atitlán	14	Cerro de Oro	4	Abril	2023-04-22T00:00:00	2024-11-08T21:00:00	7	Dirección del viento	3.22
144695	7	Sololá	719	Santiago Atitlán	14	Cerro de Oro	4	Abril	2023-04-22T00:00:00	2024-11-08T21:00:00	1	Precipitación	0
144696	7	Sololá	719	Santiago Atitlán	14	Cerro de Oro	4	Abril	2023-04-22T00:00:00	2024-11-08T21:00:00	8	Radiación solar	0
144697	7	Sololá	719	Santiago Atitlán	14	Cerro de Oro	4	Abril	2023-04-22T00:00:00	2024-11-08T22:00:00	2	Temperatura media	19.7
144698	7	Sololá	719	Santiago Atitlán	14	Cerro de Oro	4	Abril	2023-04-22T00:00:00	2024-11-08T22:00:00	4	Temperatura máxima	20.3
144699	7	Sololá	719	Santiago Atitlán	14	Cerro de Oro	4	Abril	2023-04-22T00:00:00	2024-11-08T22:00:00	3	Temperatura mínima	19.6
144700	7	Sololá	719	Santiago Atitlán	14	Cerro de Oro	4	Abril	2023-04-22T00:00:00	2024-11-08T22:00:00	5	Humedad	88
144701	7	Sololá	719	Santiago Atitlán	14	Cerro de Oro	4	Abril	2023-04-22T00:00:00	2024-11-08T22:00:00	6	Velocidad del viento	3.2
144702	7	Sololá	719	Santiago Atitlán	14	Cerro de Oro	4	Abril	2023-04-22T00:00:00	2024-11-08T22:00:00	7	Dirección del viento	3.22
144703	7	Sololá	719	Santiago Atitlán	14	Cerro de Oro	4	Abril	2023-04-22T00:00:00	2024-11-08T22:00:00	1	Precipitación	0
144704	7	Sololá	719	Santiago Atitlán	14	Cerro de Oro	4	Abril	2023-04-22T00:00:00	2024-11-08T22:00:00	8	Radiación solar	0
144705	7	Sololá	719	Santiago Atitlán	14	Cerro de Oro	4	Abril	2023-04-22T00:00:00	2024-11-08T23:00:00	2	Temperatura media	20.3
144706	7	Sololá	719	Santiago Atitlán	14	Cerro de Oro	4	Abril	2023-04-22T00:00:00	2024-11-08T23:00:00	4	Temperatura máxima	20.3
144707	7	Sololá	719	Santiago Atitlán	14	Cerro de Oro	4	Abril	2023-04-22T00:00:00	2024-11-08T23:00:00	3	Temperatura mínima	19.7
144708	7	Sololá	719	Santiago Atitlán	14	Cerro de Oro	4	Abril	2023-04-22T00:00:00	2024-11-08T23:00:00	5	Humedad	85
144709	7	Sololá	719	Santiago Atitlán	14	Cerro de Oro	4	Abril	2023-04-22T00:00:00	2024-11-08T23:00:00	6	Velocidad del viento	4.8
144710	7	Sololá	719	Santiago Atitlán	14	Cerro de Oro	4	Abril	2023-04-22T00:00:00	2024-11-08T23:00:00	7	Dirección del viento	4.83
144711	7	Sololá	719	Santiago Atitlán	14	Cerro de Oro	4	Abril	2023-04-22T00:00:00	2024-11-08T23:00:00	1	Precipitación	0
144712	7	Sololá	719	Santiago Atitlán	14	Cerro de Oro	4	Abril	2023-04-22T00:00:00	2024-11-08T23:00:00	8	Radiación solar	0
144713	7	Sololá	719	Santiago Atitlán	14	Cerro de Oro	4	Abril	2023-04-23T00:00:00	2024-11-08T00:00:00	2	Temperatura media	19.2
144714	7	Sololá	719	Santiago Atitlán	14	Cerro de Oro	4	Abril	2023-04-23T00:00:00	2024-11-08T00:00:00	4	Temperatura máxima	20.3
144715	7	Sololá	719	Santiago Atitlán	14	Cerro de Oro	4	Abril	2023-04-23T00:00:00	2024-11-08T00:00:00	3	Temperatura mínima	19.2
144716	7	Sololá	719	Santiago Atitlán	14	Cerro de Oro	4	Abril	2023-04-23T00:00:00	2024-11-08T00:00:00	5	Humedad	86
144717	7	Sololá	719	Santiago Atitlán	14	Cerro de Oro	4	Abril	2023-04-23T00:00:00	2024-11-08T00:00:00	6	Velocidad del viento	3.2
144718	7	Sololá	719	Santiago Atitlán	14	Cerro de Oro	4	Abril	2023-04-23T00:00:00	2024-11-08T00:00:00	7	Dirección del viento	3.22
144719	7	Sololá	719	Santiago Atitlán	14	Cerro de Oro	4	Abril	2023-04-23T00:00:00	2024-11-08T00:00:00	1	Precipitación	0
144720	7	Sololá	719	Santiago Atitlán	14	Cerro de Oro	4	Abril	2023-04-23T00:00:00	2024-11-08T00:00:00	8	Radiación solar	0
144721	7	Sololá	719	Santiago Atitlán	14	Cerro de Oro	4	Abril	2023-04-23T00:00:00	2024-11-08T01:00:00	2	Temperatura media	19.4
144722	7	Sololá	719	Santiago Atitlán	14	Cerro de Oro	4	Abril	2023-04-23T00:00:00	2024-11-08T01:00:00	4	Temperatura máxima	19.8
144723	7	Sololá	719	Santiago Atitlán	14	Cerro de Oro	4	Abril	2023-04-23T00:00:00	2024-11-08T01:00:00	3	Temperatura mínima	19.1
144724	7	Sololá	719	Santiago Atitlán	14	Cerro de Oro	4	Abril	2023-04-23T00:00:00	2024-11-08T01:00:00	5	Humedad	86
144725	7	Sololá	719	Santiago Atitlán	14	Cerro de Oro	4	Abril	2023-04-23T00:00:00	2024-11-08T01:00:00	6	Velocidad del viento	3.2
144726	7	Sololá	719	Santiago Atitlán	14	Cerro de Oro	4	Abril	2023-04-23T00:00:00	2024-11-08T01:00:00	7	Dirección del viento	3.22
144727	7	Sololá	719	Santiago Atitlán	14	Cerro de Oro	4	Abril	2023-04-23T00:00:00	2024-11-08T01:00:00	1	Precipitación	0
144728	7	Sololá	719	Santiago Atitlán	14	Cerro de Oro	4	Abril	2023-04-23T00:00:00	2024-11-08T01:00:00	8	Radiación solar	0
144729	7	Sololá	719	Santiago Atitlán	14	Cerro de Oro	4	Abril	2023-04-23T00:00:00	2024-11-08T02:00:00	2	Temperatura media	19.2
144730	7	Sololá	719	Santiago Atitlán	14	Cerro de Oro	4	Abril	2023-04-23T00:00:00	2024-11-08T02:00:00	4	Temperatura máxima	19.4
144731	7	Sololá	719	Santiago Atitlán	14	Cerro de Oro	4	Abril	2023-04-23T00:00:00	2024-11-08T02:00:00	3	Temperatura mínima	18.9
144732	7	Sololá	719	Santiago Atitlán	14	Cerro de Oro	4	Abril	2023-04-23T00:00:00	2024-11-08T02:00:00	5	Humedad	82
144733	7	Sololá	719	Santiago Atitlán	14	Cerro de Oro	4	Abril	2023-04-23T00:00:00	2024-11-08T02:00:00	6	Velocidad del viento	3.2
144734	7	Sololá	719	Santiago Atitlán	14	Cerro de Oro	4	Abril	2023-04-23T00:00:00	2024-11-08T02:00:00	7	Dirección del viento	3.22
144735	7	Sololá	719	Santiago Atitlán	14	Cerro de Oro	4	Abril	2023-04-23T00:00:00	2024-11-08T02:00:00	1	Precipitación	0
144736	7	Sololá	719	Santiago Atitlán	14	Cerro de Oro	4	Abril	2023-04-23T00:00:00	2024-11-08T02:00:00	8	Radiación solar	0
144737	7	Sololá	719	Santiago Atitlán	14	Cerro de Oro	4	Abril	2023-04-23T00:00:00	2024-11-08T03:00:00	2	Temperatura media	18.9
144738	7	Sololá	719	Santiago Atitlán	14	Cerro de Oro	4	Abril	2023-04-23T00:00:00	2024-11-08T03:00:00	4	Temperatura máxima	19.3
144739	7	Sololá	719	Santiago Atitlán	14	Cerro de Oro	4	Abril	2023-04-23T00:00:00	2024-11-08T03:00:00	3	Temperatura mínima	18.7
144740	7	Sololá	719	Santiago Atitlán	14	Cerro de Oro	4	Abril	2023-04-23T00:00:00	2024-11-08T03:00:00	5	Humedad	83
144741	7	Sololá	719	Santiago Atitlán	14	Cerro de Oro	4	Abril	2023-04-23T00:00:00	2024-11-08T03:00:00	6	Velocidad del viento	3.2
144742	7	Sololá	719	Santiago Atitlán	14	Cerro de Oro	4	Abril	2023-04-23T00:00:00	2024-11-08T03:00:00	7	Dirección del viento	3.22
144743	7	Sololá	719	Santiago Atitlán	14	Cerro de Oro	4	Abril	2023-04-23T00:00:00	2024-11-08T03:00:00	1	Precipitación	0
144744	7	Sololá	719	Santiago Atitlán	14	Cerro de Oro	4	Abril	2023-04-23T00:00:00	2024-11-08T03:00:00	8	Radiación solar	0
144745	7	Sololá	719	Santiago Atitlán	14	Cerro de Oro	4	Abril	2023-04-23T00:00:00	2024-11-08T04:00:00	2	Temperatura media	18.2
144746	7	Sololá	719	Santiago Atitlán	14	Cerro de Oro	4	Abril	2023-04-23T00:00:00	2024-11-08T04:00:00	4	Temperatura máxima	18.9
144747	7	Sololá	719	Santiago Atitlán	14	Cerro de Oro	4	Abril	2023-04-23T00:00:00	2024-11-08T04:00:00	3	Temperatura mínima	18.2
144748	7	Sololá	719	Santiago Atitlán	14	Cerro de Oro	4	Abril	2023-04-23T00:00:00	2024-11-08T04:00:00	5	Humedad	83
144749	7	Sololá	719	Santiago Atitlán	14	Cerro de Oro	4	Abril	2023-04-23T00:00:00	2024-11-08T04:00:00	6	Velocidad del viento	3.2
144750	7	Sololá	719	Santiago Atitlán	14	Cerro de Oro	4	Abril	2023-04-23T00:00:00	2024-11-08T04:00:00	7	Dirección del viento	3.22
144751	7	Sololá	719	Santiago Atitlán	14	Cerro de Oro	4	Abril	2023-04-23T00:00:00	2024-11-08T04:00:00	1	Precipitación	0
144752	7	Sololá	719	Santiago Atitlán	14	Cerro de Oro	4	Abril	2023-04-23T00:00:00	2024-11-08T04:00:00	8	Radiación solar	0
144753	7	Sololá	719	Santiago Atitlán	14	Cerro de Oro	4	Abril	2023-04-23T00:00:00	2024-11-08T05:00:00	2	Temperatura media	18.2
144754	7	Sololá	719	Santiago Atitlán	14	Cerro de Oro	4	Abril	2023-04-23T00:00:00	2024-11-08T05:00:00	4	Temperatura máxima	18.3
144755	7	Sololá	719	Santiago Atitlán	14	Cerro de Oro	4	Abril	2023-04-23T00:00:00	2024-11-08T05:00:00	3	Temperatura mínima	17.7
144756	7	Sololá	719	Santiago Atitlán	14	Cerro de Oro	4	Abril	2023-04-23T00:00:00	2024-11-08T05:00:00	5	Humedad	80
144757	7	Sololá	719	Santiago Atitlán	14	Cerro de Oro	4	Abril	2023-04-23T00:00:00	2024-11-08T05:00:00	6	Velocidad del viento	4.8
144758	7	Sololá	719	Santiago Atitlán	14	Cerro de Oro	4	Abril	2023-04-23T00:00:00	2024-11-08T05:00:00	7	Dirección del viento	4.83
144759	7	Sololá	719	Santiago Atitlán	14	Cerro de Oro	4	Abril	2023-04-23T00:00:00	2024-11-08T05:00:00	1	Precipitación	0
144760	7	Sololá	719	Santiago Atitlán	14	Cerro de Oro	4	Abril	2023-04-23T00:00:00	2024-11-08T05:00:00	8	Radiación solar	0
144761	7	Sololá	719	Santiago Atitlán	14	Cerro de Oro	4	Abril	2023-04-23T00:00:00	2024-11-08T06:00:00	2	Temperatura media	18.1
144762	7	Sololá	719	Santiago Atitlán	14	Cerro de Oro	4	Abril	2023-04-23T00:00:00	2024-11-08T06:00:00	4	Temperatura máxima	18.7
144763	7	Sololá	719	Santiago Atitlán	14	Cerro de Oro	4	Abril	2023-04-23T00:00:00	2024-11-08T06:00:00	3	Temperatura mínima	17.5
144764	7	Sololá	719	Santiago Atitlán	14	Cerro de Oro	4	Abril	2023-04-23T00:00:00	2024-11-08T06:00:00	5	Humedad	79
144765	7	Sololá	719	Santiago Atitlán	14	Cerro de Oro	4	Abril	2023-04-23T00:00:00	2024-11-08T06:00:00	6	Velocidad del viento	4.8
144766	7	Sololá	719	Santiago Atitlán	14	Cerro de Oro	4	Abril	2023-04-23T00:00:00	2024-11-08T06:00:00	7	Dirección del viento	4.83
144767	7	Sololá	719	Santiago Atitlán	14	Cerro de Oro	4	Abril	2023-04-23T00:00:00	2024-11-08T06:00:00	1	Precipitación	0
144768	7	Sololá	719	Santiago Atitlán	14	Cerro de Oro	4	Abril	2023-04-23T00:00:00	2024-11-08T06:00:00	8	Radiación solar	2
144769	7	Sololá	719	Santiago Atitlán	14	Cerro de Oro	4	Abril	2023-04-23T00:00:00	2024-11-08T07:00:00	2	Temperatura media	17.4
144770	7	Sololá	719	Santiago Atitlán	14	Cerro de Oro	4	Abril	2023-04-23T00:00:00	2024-11-08T07:00:00	4	Temperatura máxima	18.1
144771	7	Sololá	719	Santiago Atitlán	14	Cerro de Oro	4	Abril	2023-04-23T00:00:00	2024-11-08T07:00:00	3	Temperatura mínima	17.4
144772	7	Sololá	719	Santiago Atitlán	14	Cerro de Oro	4	Abril	2023-04-23T00:00:00	2024-11-08T07:00:00	5	Humedad	79
144773	7	Sololá	719	Santiago Atitlán	14	Cerro de Oro	4	Abril	2023-04-23T00:00:00	2024-11-08T07:00:00	6	Velocidad del viento	3.2
144774	7	Sololá	719	Santiago Atitlán	14	Cerro de Oro	4	Abril	2023-04-23T00:00:00	2024-11-08T07:00:00	7	Dirección del viento	3.22
144775	7	Sololá	719	Santiago Atitlán	14	Cerro de Oro	4	Abril	2023-04-23T00:00:00	2024-11-08T07:00:00	1	Precipitación	0
144776	7	Sololá	719	Santiago Atitlán	14	Cerro de Oro	4	Abril	2023-04-23T00:00:00	2024-11-08T07:00:00	8	Radiación solar	74
144777	7	Sololá	719	Santiago Atitlán	14	Cerro de Oro	4	Abril	2023-04-23T00:00:00	2024-11-08T08:00:00	2	Temperatura media	18.5
144778	7	Sololá	719	Santiago Atitlán	14	Cerro de Oro	4	Abril	2023-04-23T00:00:00	2024-11-08T08:00:00	4	Temperatura máxima	18.5
144779	7	Sololá	719	Santiago Atitlán	14	Cerro de Oro	4	Abril	2023-04-23T00:00:00	2024-11-08T08:00:00	3	Temperatura mínima	17.2
144780	7	Sololá	719	Santiago Atitlán	14	Cerro de Oro	4	Abril	2023-04-23T00:00:00	2024-11-08T08:00:00	5	Humedad	78
144781	7	Sololá	719	Santiago Atitlán	14	Cerro de Oro	4	Abril	2023-04-23T00:00:00	2024-11-08T08:00:00	6	Velocidad del viento	3.2
144782	7	Sololá	719	Santiago Atitlán	14	Cerro de Oro	4	Abril	2023-04-23T00:00:00	2024-11-08T08:00:00	7	Dirección del viento	3.22
144783	7	Sololá	719	Santiago Atitlán	14	Cerro de Oro	4	Abril	2023-04-23T00:00:00	2024-11-08T08:00:00	1	Precipitación	0
144784	7	Sololá	719	Santiago Atitlán	14	Cerro de Oro	4	Abril	2023-04-23T00:00:00	2024-11-08T08:00:00	8	Radiación solar	277
144785	7	Sololá	719	Santiago Atitlán	14	Cerro de Oro	4	Abril	2023-04-23T00:00:00	2024-11-08T09:00:00	2	Temperatura media	20.9
144786	7	Sololá	719	Santiago Atitlán	14	Cerro de Oro	4	Abril	2023-04-23T00:00:00	2024-11-08T09:00:00	4	Temperatura máxima	21
144787	7	Sololá	719	Santiago Atitlán	14	Cerro de Oro	4	Abril	2023-04-23T00:00:00	2024-11-08T09:00:00	3	Temperatura mínima	18.5
144788	7	Sololá	719	Santiago Atitlán	14	Cerro de Oro	4	Abril	2023-04-23T00:00:00	2024-11-08T09:00:00	5	Humedad	72
144789	7	Sololá	719	Santiago Atitlán	14	Cerro de Oro	4	Abril	2023-04-23T00:00:00	2024-11-08T09:00:00	6	Velocidad del viento	3.2
144790	7	Sololá	719	Santiago Atitlán	14	Cerro de Oro	4	Abril	2023-04-23T00:00:00	2024-11-08T09:00:00	7	Dirección del viento	3.22
144791	7	Sololá	719	Santiago Atitlán	14	Cerro de Oro	4	Abril	2023-04-23T00:00:00	2024-11-08T09:00:00	1	Precipitación	0
144792	7	Sololá	719	Santiago Atitlán	14	Cerro de Oro	4	Abril	2023-04-23T00:00:00	2024-11-08T09:00:00	8	Radiación solar	457
144793	7	Sololá	719	Santiago Atitlán	14	Cerro de Oro	4	Abril	2023-04-23T00:00:00	2024-11-08T10:00:00	2	Temperatura media	21.4
144794	7	Sololá	719	Santiago Atitlán	14	Cerro de Oro	4	Abril	2023-04-23T00:00:00	2024-11-08T10:00:00	4	Temperatura máxima	21.5
144795	7	Sololá	719	Santiago Atitlán	14	Cerro de Oro	4	Abril	2023-04-23T00:00:00	2024-11-08T10:00:00	3	Temperatura mínima	20.9
144796	7	Sololá	719	Santiago Atitlán	14	Cerro de Oro	4	Abril	2023-04-23T00:00:00	2024-11-08T10:00:00	5	Humedad	71
144797	7	Sololá	719	Santiago Atitlán	14	Cerro de Oro	4	Abril	2023-04-23T00:00:00	2024-11-08T10:00:00	6	Velocidad del viento	3.2
144798	7	Sololá	719	Santiago Atitlán	14	Cerro de Oro	4	Abril	2023-04-23T00:00:00	2024-11-08T10:00:00	7	Dirección del viento	3.22
144799	7	Sololá	719	Santiago Atitlán	14	Cerro de Oro	4	Abril	2023-04-23T00:00:00	2024-11-08T10:00:00	1	Precipitación	0
144800	7	Sololá	719	Santiago Atitlán	14	Cerro de Oro	4	Abril	2023-04-23T00:00:00	2024-11-08T10:00:00	8	Radiación solar	661
144801	7	Sololá	719	Santiago Atitlán	14	Cerro de Oro	4	Abril	2023-04-23T00:00:00	2024-11-08T11:00:00	2	Temperatura media	22.6
144802	7	Sololá	719	Santiago Atitlán	14	Cerro de Oro	4	Abril	2023-04-23T00:00:00	2024-11-08T11:00:00	4	Temperatura máxima	22.7
144803	7	Sololá	719	Santiago Atitlán	14	Cerro de Oro	4	Abril	2023-04-23T00:00:00	2024-11-08T11:00:00	3	Temperatura mínima	21.5
144804	7	Sololá	719	Santiago Atitlán	14	Cerro de Oro	4	Abril	2023-04-23T00:00:00	2024-11-08T11:00:00	5	Humedad	69
144805	7	Sololá	719	Santiago Atitlán	14	Cerro de Oro	4	Abril	2023-04-23T00:00:00	2024-11-08T11:00:00	6	Velocidad del viento	4.8
144806	7	Sololá	719	Santiago Atitlán	14	Cerro de Oro	4	Abril	2023-04-23T00:00:00	2024-11-08T11:00:00	7	Dirección del viento	4.83
144807	7	Sololá	719	Santiago Atitlán	14	Cerro de Oro	4	Abril	2023-04-23T00:00:00	2024-11-08T11:00:00	1	Precipitación	0
144808	7	Sololá	719	Santiago Atitlán	14	Cerro de Oro	4	Abril	2023-04-23T00:00:00	2024-11-08T11:00:00	8	Radiación solar	828
144809	7	Sololá	719	Santiago Atitlán	14	Cerro de Oro	4	Abril	2023-04-23T00:00:00	2024-11-08T12:00:00	2	Temperatura media	24
144810	7	Sololá	719	Santiago Atitlán	14	Cerro de Oro	4	Abril	2023-04-23T00:00:00	2024-11-08T12:00:00	4	Temperatura máxima	24.1
144811	7	Sololá	719	Santiago Atitlán	14	Cerro de Oro	4	Abril	2023-04-23T00:00:00	2024-11-08T12:00:00	3	Temperatura mínima	22.3
144812	7	Sololá	719	Santiago Atitlán	14	Cerro de Oro	4	Abril	2023-04-23T00:00:00	2024-11-08T12:00:00	5	Humedad	67
144813	7	Sololá	719	Santiago Atitlán	14	Cerro de Oro	4	Abril	2023-04-23T00:00:00	2024-11-08T12:00:00	6	Velocidad del viento	4.8
144814	7	Sololá	719	Santiago Atitlán	14	Cerro de Oro	4	Abril	2023-04-23T00:00:00	2024-11-08T12:00:00	7	Dirección del viento	4.83
144815	7	Sololá	719	Santiago Atitlán	14	Cerro de Oro	4	Abril	2023-04-23T00:00:00	2024-11-08T12:00:00	1	Precipitación	0
144816	7	Sololá	719	Santiago Atitlán	14	Cerro de Oro	4	Abril	2023-04-23T00:00:00	2024-11-08T12:00:00	8	Radiación solar	491
144817	7	Sololá	719	Santiago Atitlán	14	Cerro de Oro	4	Abril	2023-04-23T00:00:00	2024-11-08T13:00:00	2	Temperatura media	23.6
144818	7	Sololá	719	Santiago Atitlán	14	Cerro de Oro	4	Abril	2023-04-23T00:00:00	2024-11-08T13:00:00	4	Temperatura máxima	24.2
144819	7	Sololá	719	Santiago Atitlán	14	Cerro de Oro	4	Abril	2023-04-23T00:00:00	2024-11-08T13:00:00	3	Temperatura mínima	23.4
144820	7	Sololá	719	Santiago Atitlán	14	Cerro de Oro	4	Abril	2023-04-23T00:00:00	2024-11-08T13:00:00	5	Humedad	72
144821	7	Sololá	719	Santiago Atitlán	14	Cerro de Oro	4	Abril	2023-04-23T00:00:00	2024-11-08T13:00:00	6	Velocidad del viento	6.4
144822	7	Sololá	719	Santiago Atitlán	14	Cerro de Oro	4	Abril	2023-04-23T00:00:00	2024-11-08T13:00:00	7	Dirección del viento	6.44
144823	7	Sololá	719	Santiago Atitlán	14	Cerro de Oro	4	Abril	2023-04-23T00:00:00	2024-11-08T13:00:00	1	Precipitación	0
144824	7	Sololá	719	Santiago Atitlán	14	Cerro de Oro	4	Abril	2023-04-23T00:00:00	2024-11-08T13:00:00	8	Radiación solar	563
144825	7	Sololá	719	Santiago Atitlán	14	Cerro de Oro	4	Abril	2023-04-23T00:00:00	2024-11-08T14:00:00	2	Temperatura media	23.4
144826	7	Sololá	719	Santiago Atitlán	14	Cerro de Oro	4	Abril	2023-04-23T00:00:00	2024-11-08T14:00:00	4	Temperatura máxima	24.4
144827	7	Sololá	719	Santiago Atitlán	14	Cerro de Oro	4	Abril	2023-04-23T00:00:00	2024-11-08T14:00:00	3	Temperatura mínima	22.9
144828	7	Sololá	719	Santiago Atitlán	14	Cerro de Oro	4	Abril	2023-04-23T00:00:00	2024-11-08T14:00:00	5	Humedad	75
144829	7	Sololá	719	Santiago Atitlán	14	Cerro de Oro	4	Abril	2023-04-23T00:00:00	2024-11-08T14:00:00	6	Velocidad del viento	12.9
144830	7	Sololá	719	Santiago Atitlán	14	Cerro de Oro	4	Abril	2023-04-23T00:00:00	2024-11-08T14:00:00	7	Dirección del viento	12.87
144831	7	Sololá	719	Santiago Atitlán	14	Cerro de Oro	4	Abril	2023-04-23T00:00:00	2024-11-08T14:00:00	1	Precipitación	0
144832	7	Sololá	719	Santiago Atitlán	14	Cerro de Oro	4	Abril	2023-04-23T00:00:00	2024-11-08T14:00:00	8	Radiación solar	345
144833	7	Sololá	719	Santiago Atitlán	14	Cerro de Oro	4	Abril	2023-04-23T00:00:00	2024-11-08T15:00:00	2	Temperatura media	22.1
144834	7	Sololá	719	Santiago Atitlán	14	Cerro de Oro	4	Abril	2023-04-23T00:00:00	2024-11-08T15:00:00	4	Temperatura máxima	23.5
144835	7	Sololá	719	Santiago Atitlán	14	Cerro de Oro	4	Abril	2023-04-23T00:00:00	2024-11-08T15:00:00	3	Temperatura mínima	21.9
144836	7	Sololá	719	Santiago Atitlán	14	Cerro de Oro	4	Abril	2023-04-23T00:00:00	2024-11-08T15:00:00	5	Humedad	79
144837	7	Sololá	719	Santiago Atitlán	14	Cerro de Oro	4	Abril	2023-04-23T00:00:00	2024-11-08T15:00:00	6	Velocidad del viento	14.5
144838	7	Sololá	719	Santiago Atitlán	14	Cerro de Oro	4	Abril	2023-04-23T00:00:00	2024-11-08T15:00:00	7	Dirección del viento	14.48
144839	7	Sololá	719	Santiago Atitlán	14	Cerro de Oro	4	Abril	2023-04-23T00:00:00	2024-11-08T15:00:00	1	Precipitación	0
144840	7	Sololá	719	Santiago Atitlán	14	Cerro de Oro	4	Abril	2023-04-23T00:00:00	2024-11-08T15:00:00	8	Radiación solar	207
144841	7	Sololá	719	Santiago Atitlán	14	Cerro de Oro	4	Abril	2023-04-23T00:00:00	2024-11-08T16:00:00	2	Temperatura media	21.8
144842	7	Sololá	719	Santiago Atitlán	14	Cerro de Oro	4	Abril	2023-04-23T00:00:00	2024-11-08T16:00:00	4	Temperatura máxima	22.8
144843	7	Sololá	719	Santiago Atitlán	14	Cerro de Oro	4	Abril	2023-04-23T00:00:00	2024-11-08T16:00:00	3	Temperatura mínima	21.7
144844	7	Sololá	719	Santiago Atitlán	14	Cerro de Oro	4	Abril	2023-04-23T00:00:00	2024-11-08T16:00:00	5	Humedad	78
144845	7	Sololá	719	Santiago Atitlán	14	Cerro de Oro	4	Abril	2023-04-23T00:00:00	2024-11-08T16:00:00	6	Velocidad del viento	9.7
144846	7	Sololá	719	Santiago Atitlán	14	Cerro de Oro	4	Abril	2023-04-23T00:00:00	2024-11-08T16:00:00	7	Dirección del viento	9.66
144847	7	Sololá	719	Santiago Atitlán	14	Cerro de Oro	4	Abril	2023-04-23T00:00:00	2024-11-08T16:00:00	1	Precipitación	0
144848	7	Sololá	719	Santiago Atitlán	14	Cerro de Oro	4	Abril	2023-04-23T00:00:00	2024-11-08T16:00:00	8	Radiación solar	153
144849	7	Sololá	719	Santiago Atitlán	14	Cerro de Oro	4	Abril	2023-04-23T00:00:00	2024-11-08T17:00:00	2	Temperatura media	21.4
144850	7	Sololá	719	Santiago Atitlán	14	Cerro de Oro	4	Abril	2023-04-23T00:00:00	2024-11-08T17:00:00	4	Temperatura máxima	22.1
144851	7	Sololá	719	Santiago Atitlán	14	Cerro de Oro	4	Abril	2023-04-23T00:00:00	2024-11-08T17:00:00	3	Temperatura mínima	21.2
144852	7	Sololá	719	Santiago Atitlán	14	Cerro de Oro	4	Abril	2023-04-23T00:00:00	2024-11-08T17:00:00	5	Humedad	81
144853	7	Sololá	719	Santiago Atitlán	14	Cerro de Oro	4	Abril	2023-04-23T00:00:00	2024-11-08T17:00:00	6	Velocidad del viento	9.7
144854	7	Sololá	719	Santiago Atitlán	14	Cerro de Oro	4	Abril	2023-04-23T00:00:00	2024-11-08T17:00:00	7	Dirección del viento	9.66
144855	7	Sololá	719	Santiago Atitlán	14	Cerro de Oro	4	Abril	2023-04-23T00:00:00	2024-11-08T17:00:00	1	Precipitación	0
144856	7	Sololá	719	Santiago Atitlán	14	Cerro de Oro	4	Abril	2023-04-23T00:00:00	2024-11-08T17:00:00	8	Radiación solar	117
144857	7	Sololá	719	Santiago Atitlán	14	Cerro de Oro	4	Abril	2023-04-23T00:00:00	2024-11-08T18:00:00	2	Temperatura media	20.1
144858	7	Sololá	719	Santiago Atitlán	14	Cerro de Oro	4	Abril	2023-04-23T00:00:00	2024-11-08T18:00:00	4	Temperatura máxima	21.4
144859	7	Sololá	719	Santiago Atitlán	14	Cerro de Oro	4	Abril	2023-04-23T00:00:00	2024-11-08T18:00:00	3	Temperatura mínima	20.1
144860	7	Sololá	719	Santiago Atitlán	14	Cerro de Oro	4	Abril	2023-04-23T00:00:00	2024-11-08T18:00:00	5	Humedad	85
144861	7	Sololá	719	Santiago Atitlán	14	Cerro de Oro	4	Abril	2023-04-23T00:00:00	2024-11-08T18:00:00	6	Velocidad del viento	8
144862	7	Sololá	719	Santiago Atitlán	14	Cerro de Oro	4	Abril	2023-04-23T00:00:00	2024-11-08T18:00:00	7	Dirección del viento	8.05
144863	7	Sololá	719	Santiago Atitlán	14	Cerro de Oro	4	Abril	2023-04-23T00:00:00	2024-11-08T18:00:00	1	Precipitación	0.2
144864	7	Sololá	719	Santiago Atitlán	14	Cerro de Oro	4	Abril	2023-04-23T00:00:00	2024-11-08T18:00:00	8	Radiación solar	13
144865	7	Sololá	719	Santiago Atitlán	14	Cerro de Oro	4	Abril	2023-04-23T00:00:00	2024-11-08T19:00:00	2	Temperatura media	19.4
144866	7	Sololá	719	Santiago Atitlán	14	Cerro de Oro	4	Abril	2023-04-23T00:00:00	2024-11-08T19:00:00	4	Temperatura máxima	20.2
144867	7	Sololá	719	Santiago Atitlán	14	Cerro de Oro	4	Abril	2023-04-23T00:00:00	2024-11-08T19:00:00	3	Temperatura mínima	19.4
144868	7	Sololá	719	Santiago Atitlán	14	Cerro de Oro	4	Abril	2023-04-23T00:00:00	2024-11-08T19:00:00	5	Humedad	87
144869	7	Sololá	719	Santiago Atitlán	14	Cerro de Oro	4	Abril	2023-04-23T00:00:00	2024-11-08T19:00:00	6	Velocidad del viento	6.4
144870	7	Sololá	719	Santiago Atitlán	14	Cerro de Oro	4	Abril	2023-04-23T00:00:00	2024-11-08T19:00:00	7	Dirección del viento	6.44
144871	7	Sololá	719	Santiago Atitlán	14	Cerro de Oro	4	Abril	2023-04-23T00:00:00	2024-11-08T19:00:00	1	Precipitación	0
144872	7	Sololá	719	Santiago Atitlán	14	Cerro de Oro	4	Abril	2023-04-23T00:00:00	2024-11-08T19:00:00	8	Radiación solar	0
144873	7	Sololá	719	Santiago Atitlán	14	Cerro de Oro	4	Abril	2023-04-23T00:00:00	2024-11-08T20:00:00	2	Temperatura media	19.3
144874	7	Sololá	719	Santiago Atitlán	14	Cerro de Oro	4	Abril	2023-04-23T00:00:00	2024-11-08T20:00:00	4	Temperatura máxima	19.6
144875	7	Sololá	719	Santiago Atitlán	14	Cerro de Oro	4	Abril	2023-04-23T00:00:00	2024-11-08T20:00:00	3	Temperatura mínima	19.2
144876	7	Sololá	719	Santiago Atitlán	14	Cerro de Oro	4	Abril	2023-04-23T00:00:00	2024-11-08T20:00:00	5	Humedad	88
144877	7	Sololá	719	Santiago Atitlán	14	Cerro de Oro	4	Abril	2023-04-23T00:00:00	2024-11-08T20:00:00	6	Velocidad del viento	3.2
144878	7	Sololá	719	Santiago Atitlán	14	Cerro de Oro	4	Abril	2023-04-23T00:00:00	2024-11-08T20:00:00	7	Dirección del viento	3.22
144879	7	Sololá	719	Santiago Atitlán	14	Cerro de Oro	4	Abril	2023-04-23T00:00:00	2024-11-08T20:00:00	1	Precipitación	0
144880	7	Sololá	719	Santiago Atitlán	14	Cerro de Oro	4	Abril	2023-04-23T00:00:00	2024-11-08T20:00:00	8	Radiación solar	0
144881	7	Sololá	719	Santiago Atitlán	14	Cerro de Oro	4	Abril	2023-04-23T00:00:00	2024-11-08T21:00:00	2	Temperatura media	19.1
144882	7	Sololá	719	Santiago Atitlán	14	Cerro de Oro	4	Abril	2023-04-23T00:00:00	2024-11-08T21:00:00	4	Temperatura máxima	19.4
144883	7	Sololá	719	Santiago Atitlán	14	Cerro de Oro	4	Abril	2023-04-23T00:00:00	2024-11-08T21:00:00	3	Temperatura mínima	19.1
144884	7	Sololá	719	Santiago Atitlán	14	Cerro de Oro	4	Abril	2023-04-23T00:00:00	2024-11-08T21:00:00	5	Humedad	86
144885	7	Sololá	719	Santiago Atitlán	14	Cerro de Oro	4	Abril	2023-04-23T00:00:00	2024-11-08T21:00:00	6	Velocidad del viento	3.2
144886	7	Sololá	719	Santiago Atitlán	14	Cerro de Oro	4	Abril	2023-04-23T00:00:00	2024-11-08T21:00:00	7	Dirección del viento	3.22
144887	7	Sololá	719	Santiago Atitlán	14	Cerro de Oro	4	Abril	2023-04-23T00:00:00	2024-11-08T21:00:00	1	Precipitación	0
144888	7	Sololá	719	Santiago Atitlán	14	Cerro de Oro	4	Abril	2023-04-23T00:00:00	2024-11-08T21:00:00	8	Radiación solar	0
144889	7	Sololá	719	Santiago Atitlán	14	Cerro de Oro	4	Abril	2023-04-23T00:00:00	2024-11-08T22:00:00	2	Temperatura media	19.1
144890	7	Sololá	719	Santiago Atitlán	14	Cerro de Oro	4	Abril	2023-04-23T00:00:00	2024-11-08T22:00:00	4	Temperatura máxima	19.4
144891	7	Sololá	719	Santiago Atitlán	14	Cerro de Oro	4	Abril	2023-04-23T00:00:00	2024-11-08T22:00:00	3	Temperatura mínima	19.1
144892	7	Sololá	719	Santiago Atitlán	14	Cerro de Oro	4	Abril	2023-04-23T00:00:00	2024-11-08T22:00:00	5	Humedad	86
144893	7	Sololá	719	Santiago Atitlán	14	Cerro de Oro	4	Abril	2023-04-23T00:00:00	2024-11-08T22:00:00	6	Velocidad del viento	3.2
144894	7	Sololá	719	Santiago Atitlán	14	Cerro de Oro	4	Abril	2023-04-23T00:00:00	2024-11-08T22:00:00	7	Dirección del viento	3.22
144895	7	Sololá	719	Santiago Atitlán	14	Cerro de Oro	4	Abril	2023-04-23T00:00:00	2024-11-08T22:00:00	1	Precipitación	0
144896	7	Sololá	719	Santiago Atitlán	14	Cerro de Oro	4	Abril	2023-04-23T00:00:00	2024-11-08T22:00:00	8	Radiación solar	0
144897	7	Sololá	719	Santiago Atitlán	14	Cerro de Oro	4	Abril	2023-04-23T00:00:00	2024-11-08T23:00:00	2	Temperatura media	18.9
144898	7	Sololá	719	Santiago Atitlán	14	Cerro de Oro	4	Abril	2023-04-23T00:00:00	2024-11-08T23:00:00	4	Temperatura máxima	19.1
144899	7	Sololá	719	Santiago Atitlán	14	Cerro de Oro	4	Abril	2023-04-23T00:00:00	2024-11-08T23:00:00	3	Temperatura mínima	18.8
144900	7	Sololá	719	Santiago Atitlán	14	Cerro de Oro	4	Abril	2023-04-23T00:00:00	2024-11-08T23:00:00	5	Humedad	84
144901	7	Sololá	719	Santiago Atitlán	14	Cerro de Oro	4	Abril	2023-04-23T00:00:00	2024-11-08T23:00:00	6	Velocidad del viento	1.6
144902	7	Sololá	719	Santiago Atitlán	14	Cerro de Oro	4	Abril	2023-04-23T00:00:00	2024-11-08T23:00:00	7	Dirección del viento	1.61
144903	7	Sololá	719	Santiago Atitlán	14	Cerro de Oro	4	Abril	2023-04-23T00:00:00	2024-11-08T23:00:00	1	Precipitación	0
144904	7	Sololá	719	Santiago Atitlán	14	Cerro de Oro	4	Abril	2023-04-23T00:00:00	2024-11-08T23:00:00	8	Radiación solar	0
144905	7	Sololá	719	Santiago Atitlán	14	Cerro de Oro	4	Abril	2023-04-24T00:00:00	2024-11-08T00:00:00	2	Temperatura media	19.1
144906	7	Sololá	719	Santiago Atitlán	14	Cerro de Oro	4	Abril	2023-04-24T00:00:00	2024-11-08T00:00:00	4	Temperatura máxima	19.2
144907	7	Sololá	719	Santiago Atitlán	14	Cerro de Oro	4	Abril	2023-04-24T00:00:00	2024-11-08T00:00:00	3	Temperatura mínima	18.8
144908	7	Sololá	719	Santiago Atitlán	14	Cerro de Oro	4	Abril	2023-04-24T00:00:00	2024-11-08T00:00:00	5	Humedad	82
144909	7	Sololá	719	Santiago Atitlán	14	Cerro de Oro	4	Abril	2023-04-24T00:00:00	2024-11-08T00:00:00	6	Velocidad del viento	1.6
144910	7	Sololá	719	Santiago Atitlán	14	Cerro de Oro	4	Abril	2023-04-24T00:00:00	2024-11-08T00:00:00	7	Dirección del viento	1.61
144911	7	Sololá	719	Santiago Atitlán	14	Cerro de Oro	4	Abril	2023-04-24T00:00:00	2024-11-08T00:00:00	1	Precipitación	0
144912	7	Sololá	719	Santiago Atitlán	14	Cerro de Oro	4	Abril	2023-04-24T00:00:00	2024-11-08T00:00:00	8	Radiación solar	0
144913	7	Sololá	719	Santiago Atitlán	14	Cerro de Oro	4	Abril	2023-04-24T00:00:00	2024-11-08T01:00:00	2	Temperatura media	19.3
144914	7	Sololá	719	Santiago Atitlán	14	Cerro de Oro	4	Abril	2023-04-24T00:00:00	2024-11-08T01:00:00	4	Temperatura máxima	19.3
144915	7	Sololá	719	Santiago Atitlán	14	Cerro de Oro	4	Abril	2023-04-24T00:00:00	2024-11-08T01:00:00	3	Temperatura mínima	18.9
144916	7	Sololá	719	Santiago Atitlán	14	Cerro de Oro	4	Abril	2023-04-24T00:00:00	2024-11-08T01:00:00	5	Humedad	82
144917	7	Sololá	719	Santiago Atitlán	14	Cerro de Oro	4	Abril	2023-04-24T00:00:00	2024-11-08T01:00:00	6	Velocidad del viento	1.6
144918	7	Sololá	719	Santiago Atitlán	14	Cerro de Oro	4	Abril	2023-04-24T00:00:00	2024-11-08T01:00:00	7	Dirección del viento	1.61
144919	7	Sololá	719	Santiago Atitlán	14	Cerro de Oro	4	Abril	2023-04-24T00:00:00	2024-11-08T01:00:00	1	Precipitación	0
144920	7	Sololá	719	Santiago Atitlán	14	Cerro de Oro	4	Abril	2023-04-24T00:00:00	2024-11-08T01:00:00	8	Radiación solar	0
144921	7	Sololá	719	Santiago Atitlán	14	Cerro de Oro	4	Abril	2023-04-24T00:00:00	2024-11-08T02:00:00	2	Temperatura media	18.5
144922	7	Sololá	719	Santiago Atitlán	14	Cerro de Oro	4	Abril	2023-04-24T00:00:00	2024-11-08T02:00:00	4	Temperatura máxima	19.3
144923	7	Sololá	719	Santiago Atitlán	14	Cerro de Oro	4	Abril	2023-04-24T00:00:00	2024-11-08T02:00:00	3	Temperatura mínima	18.4
144924	7	Sololá	719	Santiago Atitlán	14	Cerro de Oro	4	Abril	2023-04-24T00:00:00	2024-11-08T02:00:00	5	Humedad	84
144925	7	Sololá	719	Santiago Atitlán	14	Cerro de Oro	4	Abril	2023-04-24T00:00:00	2024-11-08T02:00:00	6	Velocidad del viento	4.8
144926	7	Sololá	719	Santiago Atitlán	14	Cerro de Oro	4	Abril	2023-04-24T00:00:00	2024-11-08T02:00:00	7	Dirección del viento	4.83
144927	7	Sololá	719	Santiago Atitlán	14	Cerro de Oro	4	Abril	2023-04-24T00:00:00	2024-11-08T02:00:00	1	Precipitación	0
144928	7	Sololá	719	Santiago Atitlán	14	Cerro de Oro	4	Abril	2023-04-24T00:00:00	2024-11-08T02:00:00	8	Radiación solar	0
144929	7	Sololá	719	Santiago Atitlán	14	Cerro de Oro	4	Abril	2023-04-24T00:00:00	2024-11-08T03:00:00	2	Temperatura media	18.4
144930	7	Sololá	719	Santiago Atitlán	14	Cerro de Oro	4	Abril	2023-04-24T00:00:00	2024-11-08T03:00:00	4	Temperatura máxima	18.6
144931	7	Sololá	719	Santiago Atitlán	14	Cerro de Oro	4	Abril	2023-04-24T00:00:00	2024-11-08T03:00:00	3	Temperatura mínima	18.1
144932	7	Sololá	719	Santiago Atitlán	14	Cerro de Oro	4	Abril	2023-04-24T00:00:00	2024-11-08T03:00:00	5	Humedad	87
144933	7	Sololá	719	Santiago Atitlán	14	Cerro de Oro	4	Abril	2023-04-24T00:00:00	2024-11-08T03:00:00	6	Velocidad del viento	4.8
144934	7	Sololá	719	Santiago Atitlán	14	Cerro de Oro	4	Abril	2023-04-24T00:00:00	2024-11-08T03:00:00	7	Dirección del viento	4.83
144935	7	Sololá	719	Santiago Atitlán	14	Cerro de Oro	4	Abril	2023-04-24T00:00:00	2024-11-08T03:00:00	1	Precipitación	0
144936	7	Sololá	719	Santiago Atitlán	14	Cerro de Oro	4	Abril	2023-04-24T00:00:00	2024-11-08T03:00:00	8	Radiación solar	0
144937	7	Sololá	719	Santiago Atitlán	14	Cerro de Oro	4	Abril	2023-04-24T00:00:00	2024-11-08T04:00:00	2	Temperatura media	18.1
144938	7	Sololá	719	Santiago Atitlán	14	Cerro de Oro	4	Abril	2023-04-24T00:00:00	2024-11-08T04:00:00	4	Temperatura máxima	18.4
144939	7	Sololá	719	Santiago Atitlán	14	Cerro de Oro	4	Abril	2023-04-24T00:00:00	2024-11-08T04:00:00	3	Temperatura mínima	17.9
144940	7	Sololá	719	Santiago Atitlán	14	Cerro de Oro	4	Abril	2023-04-24T00:00:00	2024-11-08T04:00:00	5	Humedad	87
144941	7	Sololá	719	Santiago Atitlán	14	Cerro de Oro	4	Abril	2023-04-24T00:00:00	2024-11-08T04:00:00	6	Velocidad del viento	3.2
144942	7	Sololá	719	Santiago Atitlán	14	Cerro de Oro	4	Abril	2023-04-24T00:00:00	2024-11-08T04:00:00	7	Dirección del viento	3.22
144943	7	Sololá	719	Santiago Atitlán	14	Cerro de Oro	4	Abril	2023-04-24T00:00:00	2024-11-08T04:00:00	1	Precipitación	0
144944	7	Sololá	719	Santiago Atitlán	14	Cerro de Oro	4	Abril	2023-04-24T00:00:00	2024-11-08T04:00:00	8	Radiación solar	0
144945	7	Sololá	719	Santiago Atitlán	14	Cerro de Oro	4	Abril	2023-04-24T00:00:00	2024-11-08T05:00:00	2	Temperatura media	17.6
144946	7	Sololá	719	Santiago Atitlán	14	Cerro de Oro	4	Abril	2023-04-24T00:00:00	2024-11-08T05:00:00	4	Temperatura máxima	18.1
144947	7	Sololá	719	Santiago Atitlán	14	Cerro de Oro	4	Abril	2023-04-24T00:00:00	2024-11-08T05:00:00	3	Temperatura mínima	17.6
144948	7	Sololá	719	Santiago Atitlán	14	Cerro de Oro	4	Abril	2023-04-24T00:00:00	2024-11-08T05:00:00	5	Humedad	87
144949	7	Sololá	719	Santiago Atitlán	14	Cerro de Oro	4	Abril	2023-04-24T00:00:00	2024-11-08T05:00:00	6	Velocidad del viento	1.6
144950	7	Sololá	719	Santiago Atitlán	14	Cerro de Oro	4	Abril	2023-04-24T00:00:00	2024-11-08T05:00:00	7	Dirección del viento	1.61
144951	7	Sololá	719	Santiago Atitlán	14	Cerro de Oro	4	Abril	2023-04-24T00:00:00	2024-11-08T05:00:00	1	Precipitación	0
144952	7	Sololá	719	Santiago Atitlán	14	Cerro de Oro	4	Abril	2023-04-24T00:00:00	2024-11-08T05:00:00	8	Radiación solar	0
144953	7	Sololá	719	Santiago Atitlán	14	Cerro de Oro	4	Abril	2023-04-24T00:00:00	2024-11-08T06:00:00	2	Temperatura media	17.3
144954	7	Sololá	719	Santiago Atitlán	14	Cerro de Oro	4	Abril	2023-04-24T00:00:00	2024-11-08T06:00:00	4	Temperatura máxima	17.7
144955	7	Sololá	719	Santiago Atitlán	14	Cerro de Oro	4	Abril	2023-04-24T00:00:00	2024-11-08T06:00:00	3	Temperatura mínima	17.3
144956	7	Sololá	719	Santiago Atitlán	14	Cerro de Oro	4	Abril	2023-04-24T00:00:00	2024-11-08T06:00:00	5	Humedad	87
144957	7	Sololá	719	Santiago Atitlán	14	Cerro de Oro	4	Abril	2023-04-24T00:00:00	2024-11-08T06:00:00	6	Velocidad del viento	3.2
144958	7	Sololá	719	Santiago Atitlán	14	Cerro de Oro	4	Abril	2023-04-24T00:00:00	2024-11-08T06:00:00	7	Dirección del viento	3.22
144959	7	Sololá	719	Santiago Atitlán	14	Cerro de Oro	4	Abril	2023-04-24T00:00:00	2024-11-08T06:00:00	1	Precipitación	0
144960	7	Sololá	719	Santiago Atitlán	14	Cerro de Oro	4	Abril	2023-04-24T00:00:00	2024-11-08T06:00:00	8	Radiación solar	2
144961	7	Sololá	719	Santiago Atitlán	14	Cerro de Oro	4	Abril	2023-04-24T00:00:00	2024-11-08T07:00:00	2	Temperatura media	17.7
144962	7	Sololá	719	Santiago Atitlán	14	Cerro de Oro	4	Abril	2023-04-24T00:00:00	2024-11-08T07:00:00	4	Temperatura máxima	17.7
144963	7	Sololá	719	Santiago Atitlán	14	Cerro de Oro	4	Abril	2023-04-24T00:00:00	2024-11-08T07:00:00	3	Temperatura mínima	17.3
144964	7	Sololá	719	Santiago Atitlán	14	Cerro de Oro	4	Abril	2023-04-24T00:00:00	2024-11-08T07:00:00	5	Humedad	84
144965	7	Sololá	719	Santiago Atitlán	14	Cerro de Oro	4	Abril	2023-04-24T00:00:00	2024-11-08T07:00:00	6	Velocidad del viento	3.2
144966	7	Sololá	719	Santiago Atitlán	14	Cerro de Oro	4	Abril	2023-04-24T00:00:00	2024-11-08T07:00:00	7	Dirección del viento	3.22
144967	7	Sololá	719	Santiago Atitlán	14	Cerro de Oro	4	Abril	2023-04-24T00:00:00	2024-11-08T07:00:00	1	Precipitación	0
144968	7	Sololá	719	Santiago Atitlán	14	Cerro de Oro	4	Abril	2023-04-24T00:00:00	2024-11-08T07:00:00	8	Radiación solar	43
144969	7	Sololá	719	Santiago Atitlán	14	Cerro de Oro	4	Abril	2023-04-24T00:00:00	2024-11-08T08:00:00	2	Temperatura media	18.2
144970	7	Sololá	719	Santiago Atitlán	14	Cerro de Oro	4	Abril	2023-04-24T00:00:00	2024-11-08T08:00:00	4	Temperatura máxima	18.2
144971	7	Sololá	719	Santiago Atitlán	14	Cerro de Oro	4	Abril	2023-04-24T00:00:00	2024-11-08T08:00:00	3	Temperatura mínima	17.6
144972	7	Sololá	719	Santiago Atitlán	14	Cerro de Oro	4	Abril	2023-04-24T00:00:00	2024-11-08T08:00:00	5	Humedad	82
144973	7	Sololá	719	Santiago Atitlán	14	Cerro de Oro	4	Abril	2023-04-24T00:00:00	2024-11-08T08:00:00	6	Velocidad del viento	3.2
144974	7	Sololá	719	Santiago Atitlán	14	Cerro de Oro	4	Abril	2023-04-24T00:00:00	2024-11-08T08:00:00	7	Dirección del viento	3.22
144975	7	Sololá	719	Santiago Atitlán	14	Cerro de Oro	4	Abril	2023-04-24T00:00:00	2024-11-08T08:00:00	1	Precipitación	0
144976	7	Sololá	719	Santiago Atitlán	14	Cerro de Oro	4	Abril	2023-04-24T00:00:00	2024-11-08T08:00:00	8	Radiación solar	173
144977	7	Sololá	719	Santiago Atitlán	14	Cerro de Oro	4	Abril	2023-04-24T00:00:00	2024-11-08T09:00:00	2	Temperatura media	19.6
144978	7	Sololá	719	Santiago Atitlán	14	Cerro de Oro	4	Abril	2023-04-24T00:00:00	2024-11-08T09:00:00	4	Temperatura máxima	19.7
144979	7	Sololá	719	Santiago Atitlán	14	Cerro de Oro	4	Abril	2023-04-24T00:00:00	2024-11-08T09:00:00	3	Temperatura mínima	18.2
144980	7	Sololá	719	Santiago Atitlán	14	Cerro de Oro	4	Abril	2023-04-24T00:00:00	2024-11-08T09:00:00	5	Humedad	81
144981	7	Sololá	719	Santiago Atitlán	14	Cerro de Oro	4	Abril	2023-04-24T00:00:00	2024-11-08T09:00:00	6	Velocidad del viento	3.2
144982	7	Sololá	719	Santiago Atitlán	14	Cerro de Oro	4	Abril	2023-04-24T00:00:00	2024-11-08T09:00:00	7	Dirección del viento	3.22
144983	7	Sololá	719	Santiago Atitlán	14	Cerro de Oro	4	Abril	2023-04-24T00:00:00	2024-11-08T09:00:00	1	Precipitación	0
144984	7	Sololá	719	Santiago Atitlán	14	Cerro de Oro	4	Abril	2023-04-24T00:00:00	2024-11-08T09:00:00	8	Radiación solar	299
144985	7	Sololá	719	Santiago Atitlán	14	Cerro de Oro	4	Abril	2023-04-24T00:00:00	2024-11-08T10:00:00	2	Temperatura media	20.7
144986	7	Sololá	719	Santiago Atitlán	14	Cerro de Oro	4	Abril	2023-04-24T00:00:00	2024-11-08T10:00:00	4	Temperatura máxima	20.8
144987	7	Sololá	719	Santiago Atitlán	14	Cerro de Oro	4	Abril	2023-04-24T00:00:00	2024-11-08T10:00:00	3	Temperatura mínima	19.5
144988	7	Sololá	719	Santiago Atitlán	14	Cerro de Oro	4	Abril	2023-04-24T00:00:00	2024-11-08T10:00:00	5	Humedad	77
144989	7	Sololá	719	Santiago Atitlán	14	Cerro de Oro	4	Abril	2023-04-24T00:00:00	2024-11-08T10:00:00	6	Velocidad del viento	3.2
144990	7	Sololá	719	Santiago Atitlán	14	Cerro de Oro	4	Abril	2023-04-24T00:00:00	2024-11-08T10:00:00	7	Dirección del viento	3.22
144991	7	Sololá	719	Santiago Atitlán	14	Cerro de Oro	4	Abril	2023-04-24T00:00:00	2024-11-08T10:00:00	1	Precipitación	0
144992	7	Sololá	719	Santiago Atitlán	14	Cerro de Oro	4	Abril	2023-04-24T00:00:00	2024-11-08T10:00:00	8	Radiación solar	327
144993	7	Sololá	719	Santiago Atitlán	14	Cerro de Oro	4	Abril	2023-04-24T00:00:00	2024-11-08T11:00:00	2	Temperatura media	20.8
144994	7	Sololá	719	Santiago Atitlán	14	Cerro de Oro	4	Abril	2023-04-24T00:00:00	2024-11-08T11:00:00	4	Temperatura máxima	21.2
144995	7	Sololá	719	Santiago Atitlán	14	Cerro de Oro	4	Abril	2023-04-24T00:00:00	2024-11-08T11:00:00	3	Temperatura mínima	20.6
144996	7	Sololá	719	Santiago Atitlán	14	Cerro de Oro	4	Abril	2023-04-24T00:00:00	2024-11-08T11:00:00	5	Humedad	76
144997	7	Sololá	719	Santiago Atitlán	14	Cerro de Oro	4	Abril	2023-04-24T00:00:00	2024-11-08T11:00:00	6	Velocidad del viento	4.8
144998	7	Sololá	719	Santiago Atitlán	14	Cerro de Oro	4	Abril	2023-04-24T00:00:00	2024-11-08T11:00:00	7	Dirección del viento	4.83
144999	7	Sololá	719	Santiago Atitlán	14	Cerro de Oro	4	Abril	2023-04-24T00:00:00	2024-11-08T11:00:00	1	Precipitación	0
145000	7	Sololá	719	Santiago Atitlán	14	Cerro de Oro	4	Abril	2023-04-24T00:00:00	2024-11-08T11:00:00	8	Radiación solar	350
145001	7	Sololá	719	Santiago Atitlán	14	Cerro de Oro	4	Abril	2023-04-24T00:00:00	2024-11-08T12:00:00	2	Temperatura media	22.1
145002	7	Sololá	719	Santiago Atitlán	14	Cerro de Oro	4	Abril	2023-04-24T00:00:00	2024-11-08T12:00:00	4	Temperatura máxima	22.1
145003	7	Sololá	719	Santiago Atitlán	14	Cerro de Oro	4	Abril	2023-04-24T00:00:00	2024-11-08T12:00:00	3	Temperatura mínima	20.8
145004	7	Sololá	719	Santiago Atitlán	14	Cerro de Oro	4	Abril	2023-04-24T00:00:00	2024-11-08T12:00:00	5	Humedad	74
145005	7	Sololá	719	Santiago Atitlán	14	Cerro de Oro	4	Abril	2023-04-24T00:00:00	2024-11-08T12:00:00	6	Velocidad del viento	3.2
145006	7	Sololá	719	Santiago Atitlán	14	Cerro de Oro	4	Abril	2023-04-24T00:00:00	2024-11-08T12:00:00	7	Dirección del viento	3.22
145007	7	Sololá	719	Santiago Atitlán	14	Cerro de Oro	4	Abril	2023-04-24T00:00:00	2024-11-08T12:00:00	1	Precipitación	0
145008	7	Sololá	719	Santiago Atitlán	14	Cerro de Oro	4	Abril	2023-04-24T00:00:00	2024-11-08T12:00:00	8	Radiación solar	348
145009	7	Sololá	719	Santiago Atitlán	14	Cerro de Oro	4	Abril	2023-04-24T00:00:00	2024-11-08T13:00:00	2	Temperatura media	22.5
145010	7	Sololá	719	Santiago Atitlán	14	Cerro de Oro	4	Abril	2023-04-24T00:00:00	2024-11-08T13:00:00	4	Temperatura máxima	22.5
145011	7	Sololá	719	Santiago Atitlán	14	Cerro de Oro	4	Abril	2023-04-24T00:00:00	2024-11-08T13:00:00	3	Temperatura mínima	22
145012	7	Sololá	719	Santiago Atitlán	14	Cerro de Oro	4	Abril	2023-04-24T00:00:00	2024-11-08T13:00:00	5	Humedad	76
145013	7	Sololá	719	Santiago Atitlán	14	Cerro de Oro	4	Abril	2023-04-24T00:00:00	2024-11-08T13:00:00	6	Velocidad del viento	6.4
145014	7	Sololá	719	Santiago Atitlán	14	Cerro de Oro	4	Abril	2023-04-24T00:00:00	2024-11-08T13:00:00	7	Dirección del viento	6.44
145015	7	Sololá	719	Santiago Atitlán	14	Cerro de Oro	4	Abril	2023-04-24T00:00:00	2024-11-08T13:00:00	1	Precipitación	0
145016	7	Sololá	719	Santiago Atitlán	14	Cerro de Oro	4	Abril	2023-04-24T00:00:00	2024-11-08T13:00:00	8	Radiación solar	414
145017	7	Sololá	719	Santiago Atitlán	14	Cerro de Oro	4	Abril	2023-04-24T00:00:00	2024-11-08T14:00:00	2	Temperatura media	21.9
145018	7	Sololá	719	Santiago Atitlán	14	Cerro de Oro	4	Abril	2023-04-24T00:00:00	2024-11-08T14:00:00	4	Temperatura máxima	23.3
145019	7	Sololá	719	Santiago Atitlán	14	Cerro de Oro	4	Abril	2023-04-24T00:00:00	2024-11-08T14:00:00	3	Temperatura mínima	21.9
145020	7	Sololá	719	Santiago Atitlán	14	Cerro de Oro	4	Abril	2023-04-24T00:00:00	2024-11-08T14:00:00	5	Humedad	76
145021	7	Sololá	719	Santiago Atitlán	14	Cerro de Oro	4	Abril	2023-04-24T00:00:00	2024-11-08T14:00:00	6	Velocidad del viento	9.7
145022	7	Sololá	719	Santiago Atitlán	14	Cerro de Oro	4	Abril	2023-04-24T00:00:00	2024-11-08T14:00:00	7	Dirección del viento	9.66
145023	7	Sololá	719	Santiago Atitlán	14	Cerro de Oro	4	Abril	2023-04-24T00:00:00	2024-11-08T14:00:00	1	Precipitación	0
145024	7	Sololá	719	Santiago Atitlán	14	Cerro de Oro	4	Abril	2023-04-24T00:00:00	2024-11-08T14:00:00	8	Radiación solar	268
145025	7	Sololá	719	Santiago Atitlán	14	Cerro de Oro	4	Abril	2023-04-24T00:00:00	2024-11-08T15:00:00	2	Temperatura media	20.7
145026	7	Sololá	719	Santiago Atitlán	14	Cerro de Oro	4	Abril	2023-04-24T00:00:00	2024-11-08T15:00:00	4	Temperatura máxima	22.2
145027	7	Sololá	719	Santiago Atitlán	14	Cerro de Oro	4	Abril	2023-04-24T00:00:00	2024-11-08T15:00:00	3	Temperatura mínima	20.5
145028	7	Sololá	719	Santiago Atitlán	14	Cerro de Oro	4	Abril	2023-04-24T00:00:00	2024-11-08T15:00:00	5	Humedad	82
145029	7	Sololá	719	Santiago Atitlán	14	Cerro de Oro	4	Abril	2023-04-24T00:00:00	2024-11-08T15:00:00	6	Velocidad del viento	11.3
145030	7	Sololá	719	Santiago Atitlán	14	Cerro de Oro	4	Abril	2023-04-24T00:00:00	2024-11-08T15:00:00	7	Dirección del viento	11.27
145031	7	Sololá	719	Santiago Atitlán	14	Cerro de Oro	4	Abril	2023-04-24T00:00:00	2024-11-08T15:00:00	1	Precipitación	0
145032	7	Sololá	719	Santiago Atitlán	14	Cerro de Oro	4	Abril	2023-04-24T00:00:00	2024-11-08T15:00:00	8	Radiación solar	216
145033	7	Sololá	719	Santiago Atitlán	14	Cerro de Oro	4	Abril	2023-04-24T00:00:00	2024-11-08T16:00:00	2	Temperatura media	19.8
145034	7	Sololá	719	Santiago Atitlán	14	Cerro de Oro	4	Abril	2023-04-24T00:00:00	2024-11-08T16:00:00	4	Temperatura máxima	20.9
145035	7	Sololá	719	Santiago Atitlán	14	Cerro de Oro	4	Abril	2023-04-24T00:00:00	2024-11-08T16:00:00	3	Temperatura mínima	19.8
145036	7	Sololá	719	Santiago Atitlán	14	Cerro de Oro	4	Abril	2023-04-24T00:00:00	2024-11-08T16:00:00	5	Humedad	83
145037	7	Sololá	719	Santiago Atitlán	14	Cerro de Oro	4	Abril	2023-04-24T00:00:00	2024-11-08T16:00:00	6	Velocidad del viento	11.3
145038	7	Sololá	719	Santiago Atitlán	14	Cerro de Oro	4	Abril	2023-04-24T00:00:00	2024-11-08T16:00:00	7	Dirección del viento	11.27
145039	7	Sololá	719	Santiago Atitlán	14	Cerro de Oro	4	Abril	2023-04-24T00:00:00	2024-11-08T16:00:00	1	Precipitación	0
145040	7	Sololá	719	Santiago Atitlán	14	Cerro de Oro	4	Abril	2023-04-24T00:00:00	2024-11-08T16:00:00	8	Radiación solar	51
145041	7	Sololá	719	Santiago Atitlán	14	Cerro de Oro	4	Abril	2023-04-24T00:00:00	2024-11-08T17:00:00	2	Temperatura media	19.7
145042	7	Sololá	719	Santiago Atitlán	14	Cerro de Oro	4	Abril	2023-04-24T00:00:00	2024-11-08T17:00:00	4	Temperatura máxima	19.8
145043	7	Sololá	719	Santiago Atitlán	14	Cerro de Oro	4	Abril	2023-04-24T00:00:00	2024-11-08T17:00:00	3	Temperatura mínima	19.5
145044	7	Sololá	719	Santiago Atitlán	14	Cerro de Oro	4	Abril	2023-04-24T00:00:00	2024-11-08T17:00:00	5	Humedad	84
145045	7	Sololá	719	Santiago Atitlán	14	Cerro de Oro	4	Abril	2023-04-24T00:00:00	2024-11-08T17:00:00	6	Velocidad del viento	6.4
145046	7	Sololá	719	Santiago Atitlán	14	Cerro de Oro	4	Abril	2023-04-24T00:00:00	2024-11-08T17:00:00	7	Dirección del viento	6.44
145047	7	Sololá	719	Santiago Atitlán	14	Cerro de Oro	4	Abril	2023-04-24T00:00:00	2024-11-08T17:00:00	1	Precipitación	0
145048	7	Sololá	719	Santiago Atitlán	14	Cerro de Oro	4	Abril	2023-04-24T00:00:00	2024-11-08T17:00:00	8	Radiación solar	9
145049	7	Sololá	719	Santiago Atitlán	14	Cerro de Oro	4	Abril	2023-04-24T00:00:00	2024-11-08T18:00:00	2	Temperatura media	17.2
145050	7	Sololá	719	Santiago Atitlán	14	Cerro de Oro	4	Abril	2023-04-24T00:00:00	2024-11-08T18:00:00	4	Temperatura máxima	19.7
145051	7	Sololá	719	Santiago Atitlán	14	Cerro de Oro	4	Abril	2023-04-24T00:00:00	2024-11-08T18:00:00	3	Temperatura mínima	17.2
145052	7	Sololá	719	Santiago Atitlán	14	Cerro de Oro	4	Abril	2023-04-24T00:00:00	2024-11-08T18:00:00	5	Humedad	92
145053	7	Sololá	719	Santiago Atitlán	14	Cerro de Oro	4	Abril	2023-04-24T00:00:00	2024-11-08T18:00:00	6	Velocidad del viento	4.8
145054	7	Sololá	719	Santiago Atitlán	14	Cerro de Oro	4	Abril	2023-04-24T00:00:00	2024-11-08T18:00:00	7	Dirección del viento	4.83
145055	7	Sololá	719	Santiago Atitlán	14	Cerro de Oro	4	Abril	2023-04-24T00:00:00	2024-11-08T18:00:00	1	Precipitación	24.2
145056	7	Sololá	719	Santiago Atitlán	14	Cerro de Oro	4	Abril	2023-04-24T00:00:00	2024-11-08T18:00:00	8	Radiación solar	22
145057	7	Sololá	719	Santiago Atitlán	14	Cerro de Oro	4	Abril	2023-04-24T00:00:00	2024-11-08T19:00:00	2	Temperatura media	17.1
145058	7	Sololá	719	Santiago Atitlán	14	Cerro de Oro	4	Abril	2023-04-24T00:00:00	2024-11-08T19:00:00	4	Temperatura máxima	17.3
145059	7	Sololá	719	Santiago Atitlán	14	Cerro de Oro	4	Abril	2023-04-24T00:00:00	2024-11-08T19:00:00	3	Temperatura mínima	17
145060	7	Sololá	719	Santiago Atitlán	14	Cerro de Oro	4	Abril	2023-04-24T00:00:00	2024-11-08T19:00:00	5	Humedad	93
145061	7	Sololá	719	Santiago Atitlán	14	Cerro de Oro	4	Abril	2023-04-24T00:00:00	2024-11-08T19:00:00	6	Velocidad del viento	3.2
145062	7	Sololá	719	Santiago Atitlán	14	Cerro de Oro	4	Abril	2023-04-24T00:00:00	2024-11-08T19:00:00	7	Dirección del viento	3.22
145063	7	Sololá	719	Santiago Atitlán	14	Cerro de Oro	4	Abril	2023-04-24T00:00:00	2024-11-08T19:00:00	1	Precipitación	4
145064	7	Sololá	719	Santiago Atitlán	14	Cerro de Oro	4	Abril	2023-04-24T00:00:00	2024-11-08T19:00:00	8	Radiación solar	0
145065	7	Sololá	719	Santiago Atitlán	14	Cerro de Oro	4	Abril	2023-04-24T00:00:00	2024-11-08T20:00:00	2	Temperatura media	17.3
145066	7	Sololá	719	Santiago Atitlán	14	Cerro de Oro	4	Abril	2023-04-24T00:00:00	2024-11-08T20:00:00	4	Temperatura máxima	17.3
145067	7	Sololá	719	Santiago Atitlán	14	Cerro de Oro	4	Abril	2023-04-24T00:00:00	2024-11-08T20:00:00	3	Temperatura mínima	17
145068	7	Sololá	719	Santiago Atitlán	14	Cerro de Oro	4	Abril	2023-04-24T00:00:00	2024-11-08T20:00:00	5	Humedad	91
145069	7	Sololá	719	Santiago Atitlán	14	Cerro de Oro	4	Abril	2023-04-24T00:00:00	2024-11-08T20:00:00	6	Velocidad del viento	3.2
145070	7	Sololá	719	Santiago Atitlán	14	Cerro de Oro	4	Abril	2023-04-24T00:00:00	2024-11-08T20:00:00	7	Dirección del viento	3.22
145071	7	Sololá	719	Santiago Atitlán	14	Cerro de Oro	4	Abril	2023-04-24T00:00:00	2024-11-08T20:00:00	1	Precipitación	0
145072	7	Sololá	719	Santiago Atitlán	14	Cerro de Oro	4	Abril	2023-04-24T00:00:00	2024-11-08T20:00:00	8	Radiación solar	0
145073	7	Sololá	719	Santiago Atitlán	14	Cerro de Oro	4	Abril	2023-04-24T00:00:00	2024-11-08T21:00:00	2	Temperatura media	17.3
145074	7	Sololá	719	Santiago Atitlán	14	Cerro de Oro	4	Abril	2023-04-24T00:00:00	2024-11-08T21:00:00	4	Temperatura máxima	17.4
145075	7	Sololá	719	Santiago Atitlán	14	Cerro de Oro	4	Abril	2023-04-24T00:00:00	2024-11-08T21:00:00	3	Temperatura mínima	17.2
145076	7	Sololá	719	Santiago Atitlán	14	Cerro de Oro	4	Abril	2023-04-24T00:00:00	2024-11-08T21:00:00	5	Humedad	92
145077	7	Sololá	719	Santiago Atitlán	14	Cerro de Oro	4	Abril	2023-04-24T00:00:00	2024-11-08T21:00:00	6	Velocidad del viento	4.8
145078	7	Sololá	719	Santiago Atitlán	14	Cerro de Oro	4	Abril	2023-04-24T00:00:00	2024-11-08T21:00:00	7	Dirección del viento	4.83
145079	7	Sololá	719	Santiago Atitlán	14	Cerro de Oro	4	Abril	2023-04-24T00:00:00	2024-11-08T21:00:00	1	Precipitación	0
145080	7	Sololá	719	Santiago Atitlán	14	Cerro de Oro	4	Abril	2023-04-24T00:00:00	2024-11-08T21:00:00	8	Radiación solar	0
145081	7	Sololá	719	Santiago Atitlán	14	Cerro de Oro	4	Abril	2023-04-24T00:00:00	2024-11-08T22:00:00	2	Temperatura media	17.2
145082	7	Sololá	719	Santiago Atitlán	14	Cerro de Oro	4	Abril	2023-04-24T00:00:00	2024-11-08T22:00:00	4	Temperatura máxima	17.4
145083	7	Sololá	719	Santiago Atitlán	14	Cerro de Oro	4	Abril	2023-04-24T00:00:00	2024-11-08T22:00:00	3	Temperatura mínima	17.1
145084	7	Sololá	719	Santiago Atitlán	14	Cerro de Oro	4	Abril	2023-04-24T00:00:00	2024-11-08T22:00:00	5	Humedad	90
145085	7	Sololá	719	Santiago Atitlán	14	Cerro de Oro	4	Abril	2023-04-24T00:00:00	2024-11-08T22:00:00	6	Velocidad del viento	3.2
145086	7	Sololá	719	Santiago Atitlán	14	Cerro de Oro	4	Abril	2023-04-24T00:00:00	2024-11-08T22:00:00	7	Dirección del viento	3.22
145087	7	Sololá	719	Santiago Atitlán	14	Cerro de Oro	4	Abril	2023-04-24T00:00:00	2024-11-08T22:00:00	1	Precipitación	0
145088	7	Sololá	719	Santiago Atitlán	14	Cerro de Oro	4	Abril	2023-04-24T00:00:00	2024-11-08T22:00:00	8	Radiación solar	0
145089	7	Sololá	719	Santiago Atitlán	14	Cerro de Oro	4	Abril	2023-04-24T00:00:00	2024-11-08T23:00:00	2	Temperatura media	17
145090	7	Sololá	719	Santiago Atitlán	14	Cerro de Oro	4	Abril	2023-04-24T00:00:00	2024-11-08T23:00:00	4	Temperatura máxima	17.3
145091	7	Sololá	719	Santiago Atitlán	14	Cerro de Oro	4	Abril	2023-04-24T00:00:00	2024-11-08T23:00:00	3	Temperatura mínima	16.8
145092	7	Sololá	719	Santiago Atitlán	14	Cerro de Oro	4	Abril	2023-04-24T00:00:00	2024-11-08T23:00:00	5	Humedad	91
145093	7	Sololá	719	Santiago Atitlán	14	Cerro de Oro	4	Abril	2023-04-24T00:00:00	2024-11-08T23:00:00	6	Velocidad del viento	4.8
145094	7	Sololá	719	Santiago Atitlán	14	Cerro de Oro	4	Abril	2023-04-24T00:00:00	2024-11-08T23:00:00	7	Dirección del viento	4.83
145095	7	Sololá	719	Santiago Atitlán	14	Cerro de Oro	4	Abril	2023-04-24T00:00:00	2024-11-08T23:00:00	1	Precipitación	0
145096	7	Sololá	719	Santiago Atitlán	14	Cerro de Oro	4	Abril	2023-04-24T00:00:00	2024-11-08T23:00:00	8	Radiación solar	0
145097	7	Sololá	719	Santiago Atitlán	14	Cerro de Oro	4	Abril	2023-04-25T00:00:00	2024-11-08T00:00:00	2	Temperatura media	17.1
145098	7	Sololá	719	Santiago Atitlán	14	Cerro de Oro	4	Abril	2023-04-25T00:00:00	2024-11-08T00:00:00	4	Temperatura máxima	17.3
145099	7	Sololá	719	Santiago Atitlán	14	Cerro de Oro	4	Abril	2023-04-25T00:00:00	2024-11-08T00:00:00	3	Temperatura mínima	17
145100	7	Sololá	719	Santiago Atitlán	14	Cerro de Oro	4	Abril	2023-04-25T00:00:00	2024-11-08T00:00:00	5	Humedad	90
145101	7	Sololá	719	Santiago Atitlán	14	Cerro de Oro	4	Abril	2023-04-25T00:00:00	2024-11-08T00:00:00	6	Velocidad del viento	4.8
145102	7	Sololá	719	Santiago Atitlán	14	Cerro de Oro	4	Abril	2023-04-25T00:00:00	2024-11-08T00:00:00	7	Dirección del viento	4.83
145103	7	Sololá	719	Santiago Atitlán	14	Cerro de Oro	4	Abril	2023-04-25T00:00:00	2024-11-08T00:00:00	1	Precipitación	0
145104	7	Sololá	719	Santiago Atitlán	14	Cerro de Oro	4	Abril	2023-04-25T00:00:00	2024-11-08T00:00:00	8	Radiación solar	0
145105	7	Sololá	719	Santiago Atitlán	14	Cerro de Oro	4	Abril	2023-04-25T00:00:00	2024-11-08T01:00:00	2	Temperatura media	17.2
145106	7	Sololá	719	Santiago Atitlán	14	Cerro de Oro	4	Abril	2023-04-25T00:00:00	2024-11-08T01:00:00	4	Temperatura máxima	17.3
145107	7	Sololá	719	Santiago Atitlán	14	Cerro de Oro	4	Abril	2023-04-25T00:00:00	2024-11-08T01:00:00	3	Temperatura mínima	17.1
145108	7	Sololá	719	Santiago Atitlán	14	Cerro de Oro	4	Abril	2023-04-25T00:00:00	2024-11-08T01:00:00	5	Humedad	90
145109	7	Sololá	719	Santiago Atitlán	14	Cerro de Oro	4	Abril	2023-04-25T00:00:00	2024-11-08T01:00:00	6	Velocidad del viento	4.8
145110	7	Sololá	719	Santiago Atitlán	14	Cerro de Oro	4	Abril	2023-04-25T00:00:00	2024-11-08T01:00:00	7	Dirección del viento	4.83
145111	7	Sololá	719	Santiago Atitlán	14	Cerro de Oro	4	Abril	2023-04-25T00:00:00	2024-11-08T01:00:00	1	Precipitación	0
145112	7	Sololá	719	Santiago Atitlán	14	Cerro de Oro	4	Abril	2023-04-25T00:00:00	2024-11-08T01:00:00	8	Radiación solar	0
145113	7	Sololá	719	Santiago Atitlán	14	Cerro de Oro	4	Abril	2023-04-25T00:00:00	2024-11-08T02:00:00	2	Temperatura media	17.2
145114	7	Sololá	719	Santiago Atitlán	14	Cerro de Oro	4	Abril	2023-04-25T00:00:00	2024-11-08T02:00:00	4	Temperatura máxima	17.4
145115	7	Sololá	719	Santiago Atitlán	14	Cerro de Oro	4	Abril	2023-04-25T00:00:00	2024-11-08T02:00:00	3	Temperatura mínima	17.1
145116	7	Sololá	719	Santiago Atitlán	14	Cerro de Oro	4	Abril	2023-04-25T00:00:00	2024-11-08T02:00:00	5	Humedad	90
145117	7	Sololá	719	Santiago Atitlán	14	Cerro de Oro	4	Abril	2023-04-25T00:00:00	2024-11-08T02:00:00	6	Velocidad del viento	4.8
145118	7	Sololá	719	Santiago Atitlán	14	Cerro de Oro	4	Abril	2023-04-25T00:00:00	2024-11-08T02:00:00	7	Dirección del viento	4.83
145119	7	Sololá	719	Santiago Atitlán	14	Cerro de Oro	4	Abril	2023-04-25T00:00:00	2024-11-08T02:00:00	1	Precipitación	0
145120	7	Sololá	719	Santiago Atitlán	14	Cerro de Oro	4	Abril	2023-04-25T00:00:00	2024-11-08T02:00:00	8	Radiación solar	0
145121	7	Sololá	719	Santiago Atitlán	14	Cerro de Oro	4	Abril	2023-04-25T00:00:00	2024-11-08T03:00:00	2	Temperatura media	17.1
145122	7	Sololá	719	Santiago Atitlán	14	Cerro de Oro	4	Abril	2023-04-25T00:00:00	2024-11-08T03:00:00	4	Temperatura máxima	17.3
145123	7	Sololá	719	Santiago Atitlán	14	Cerro de Oro	4	Abril	2023-04-25T00:00:00	2024-11-08T03:00:00	3	Temperatura mínima	17.1
145124	7	Sololá	719	Santiago Atitlán	14	Cerro de Oro	4	Abril	2023-04-25T00:00:00	2024-11-08T03:00:00	5	Humedad	87
145125	7	Sololá	719	Santiago Atitlán	14	Cerro de Oro	4	Abril	2023-04-25T00:00:00	2024-11-08T03:00:00	6	Velocidad del viento	4.8
145126	7	Sololá	719	Santiago Atitlán	14	Cerro de Oro	4	Abril	2023-04-25T00:00:00	2024-11-08T03:00:00	7	Dirección del viento	4.83
145127	7	Sololá	719	Santiago Atitlán	14	Cerro de Oro	4	Abril	2023-04-25T00:00:00	2024-11-08T03:00:00	1	Precipitación	0
145128	7	Sololá	719	Santiago Atitlán	14	Cerro de Oro	4	Abril	2023-04-25T00:00:00	2024-11-08T03:00:00	8	Radiación solar	0
145129	7	Sololá	719	Santiago Atitlán	14	Cerro de Oro	4	Abril	2023-04-25T00:00:00	2024-11-08T04:00:00	2	Temperatura media	16.8
145130	7	Sololá	719	Santiago Atitlán	14	Cerro de Oro	4	Abril	2023-04-25T00:00:00	2024-11-08T04:00:00	4	Temperatura máxima	17.2
145131	7	Sololá	719	Santiago Atitlán	14	Cerro de Oro	4	Abril	2023-04-25T00:00:00	2024-11-08T04:00:00	3	Temperatura mínima	16.8
145132	7	Sololá	719	Santiago Atitlán	14	Cerro de Oro	4	Abril	2023-04-25T00:00:00	2024-11-08T04:00:00	5	Humedad	90
145133	7	Sololá	719	Santiago Atitlán	14	Cerro de Oro	4	Abril	2023-04-25T00:00:00	2024-11-08T04:00:00	6	Velocidad del viento	3.2
145134	7	Sololá	719	Santiago Atitlán	14	Cerro de Oro	4	Abril	2023-04-25T00:00:00	2024-11-08T04:00:00	7	Dirección del viento	3.22
145135	7	Sololá	719	Santiago Atitlán	14	Cerro de Oro	4	Abril	2023-04-25T00:00:00	2024-11-08T04:00:00	1	Precipitación	0
145136	7	Sololá	719	Santiago Atitlán	14	Cerro de Oro	4	Abril	2023-04-25T00:00:00	2024-11-08T04:00:00	8	Radiación solar	0
145137	7	Sololá	719	Santiago Atitlán	14	Cerro de Oro	4	Abril	2023-04-25T00:00:00	2024-11-08T05:00:00	2	Temperatura media	16.6
145138	7	Sololá	719	Santiago Atitlán	14	Cerro de Oro	4	Abril	2023-04-25T00:00:00	2024-11-08T05:00:00	4	Temperatura máxima	16.9
145139	7	Sololá	719	Santiago Atitlán	14	Cerro de Oro	4	Abril	2023-04-25T00:00:00	2024-11-08T05:00:00	3	Temperatura mínima	16.6
145140	7	Sololá	719	Santiago Atitlán	14	Cerro de Oro	4	Abril	2023-04-25T00:00:00	2024-11-08T05:00:00	5	Humedad	88
145141	7	Sololá	719	Santiago Atitlán	14	Cerro de Oro	4	Abril	2023-04-25T00:00:00	2024-11-08T05:00:00	6	Velocidad del viento	3.2
145142	7	Sololá	719	Santiago Atitlán	14	Cerro de Oro	4	Abril	2023-04-25T00:00:00	2024-11-08T05:00:00	7	Dirección del viento	3.22
145143	7	Sololá	719	Santiago Atitlán	14	Cerro de Oro	4	Abril	2023-04-25T00:00:00	2024-11-08T05:00:00	1	Precipitación	0
145144	7	Sololá	719	Santiago Atitlán	14	Cerro de Oro	4	Abril	2023-04-25T00:00:00	2024-11-08T05:00:00	8	Radiación solar	0
145145	7	Sololá	719	Santiago Atitlán	14	Cerro de Oro	4	Abril	2023-04-25T00:00:00	2024-11-08T06:00:00	2	Temperatura media	16.7
145146	7	Sololá	719	Santiago Atitlán	14	Cerro de Oro	4	Abril	2023-04-25T00:00:00	2024-11-08T06:00:00	4	Temperatura máxima	16.9
145147	7	Sololá	719	Santiago Atitlán	14	Cerro de Oro	4	Abril	2023-04-25T00:00:00	2024-11-08T06:00:00	3	Temperatura mínima	16.6
145148	7	Sololá	719	Santiago Atitlán	14	Cerro de Oro	4	Abril	2023-04-25T00:00:00	2024-11-08T06:00:00	5	Humedad	85
145149	7	Sololá	719	Santiago Atitlán	14	Cerro de Oro	4	Abril	2023-04-25T00:00:00	2024-11-08T06:00:00	6	Velocidad del viento	4.8
145150	7	Sololá	719	Santiago Atitlán	14	Cerro de Oro	4	Abril	2023-04-25T00:00:00	2024-11-08T06:00:00	7	Dirección del viento	4.83
145151	7	Sololá	719	Santiago Atitlán	14	Cerro de Oro	4	Abril	2023-04-25T00:00:00	2024-11-08T06:00:00	1	Precipitación	0
145152	7	Sololá	719	Santiago Atitlán	14	Cerro de Oro	4	Abril	2023-04-25T00:00:00	2024-11-08T06:00:00	8	Radiación solar	3
145153	7	Sololá	719	Santiago Atitlán	14	Cerro de Oro	4	Abril	2023-04-25T00:00:00	2024-11-08T07:00:00	2	Temperatura media	16.6
145154	7	Sololá	719	Santiago Atitlán	14	Cerro de Oro	4	Abril	2023-04-25T00:00:00	2024-11-08T07:00:00	4	Temperatura máxima	16.7
145155	7	Sololá	719	Santiago Atitlán	14	Cerro de Oro	4	Abril	2023-04-25T00:00:00	2024-11-08T07:00:00	3	Temperatura mínima	16.4
145156	7	Sololá	719	Santiago Atitlán	14	Cerro de Oro	4	Abril	2023-04-25T00:00:00	2024-11-08T07:00:00	5	Humedad	86
145157	7	Sololá	719	Santiago Atitlán	14	Cerro de Oro	4	Abril	2023-04-25T00:00:00	2024-11-08T07:00:00	6	Velocidad del viento	3.2
145158	7	Sololá	719	Santiago Atitlán	14	Cerro de Oro	4	Abril	2023-04-25T00:00:00	2024-11-08T07:00:00	7	Dirección del viento	3.22
145159	7	Sololá	719	Santiago Atitlán	14	Cerro de Oro	4	Abril	2023-04-25T00:00:00	2024-11-08T07:00:00	1	Precipitación	0
145160	7	Sololá	719	Santiago Atitlán	14	Cerro de Oro	4	Abril	2023-04-25T00:00:00	2024-11-08T07:00:00	8	Radiación solar	86
145161	7	Sololá	719	Santiago Atitlán	14	Cerro de Oro	4	Abril	2023-04-25T00:00:00	2024-11-08T08:00:00	2	Temperatura media	18.1
145162	7	Sololá	719	Santiago Atitlán	14	Cerro de Oro	4	Abril	2023-04-25T00:00:00	2024-11-08T08:00:00	4	Temperatura máxima	18.1
145163	7	Sololá	719	Santiago Atitlán	14	Cerro de Oro	4	Abril	2023-04-25T00:00:00	2024-11-08T08:00:00	3	Temperatura mínima	16.6
145164	7	Sololá	719	Santiago Atitlán	14	Cerro de Oro	4	Abril	2023-04-25T00:00:00	2024-11-08T08:00:00	5	Humedad	84
145165	7	Sololá	719	Santiago Atitlán	14	Cerro de Oro	4	Abril	2023-04-25T00:00:00	2024-11-08T08:00:00	6	Velocidad del viento	1.6
145166	7	Sololá	719	Santiago Atitlán	14	Cerro de Oro	4	Abril	2023-04-25T00:00:00	2024-11-08T08:00:00	7	Dirección del viento	1.61
145167	7	Sololá	719	Santiago Atitlán	14	Cerro de Oro	4	Abril	2023-04-25T00:00:00	2024-11-08T08:00:00	1	Precipitación	0
145168	7	Sololá	719	Santiago Atitlán	14	Cerro de Oro	4	Abril	2023-04-25T00:00:00	2024-11-08T08:00:00	8	Radiación solar	274
145169	7	Sololá	719	Santiago Atitlán	14	Cerro de Oro	4	Abril	2023-04-25T00:00:00	2024-11-08T09:00:00	2	Temperatura media	19.4
145170	7	Sololá	719	Santiago Atitlán	14	Cerro de Oro	4	Abril	2023-04-25T00:00:00	2024-11-08T09:00:00	4	Temperatura máxima	19.4
145171	7	Sololá	719	Santiago Atitlán	14	Cerro de Oro	4	Abril	2023-04-25T00:00:00	2024-11-08T09:00:00	3	Temperatura mínima	18.1
145172	7	Sololá	719	Santiago Atitlán	14	Cerro de Oro	4	Abril	2023-04-25T00:00:00	2024-11-08T09:00:00	5	Humedad	79
145173	7	Sololá	719	Santiago Atitlán	14	Cerro de Oro	4	Abril	2023-04-25T00:00:00	2024-11-08T09:00:00	6	Velocidad del viento	3.2
145174	7	Sololá	719	Santiago Atitlán	14	Cerro de Oro	4	Abril	2023-04-25T00:00:00	2024-11-08T09:00:00	7	Dirección del viento	3.22
145175	7	Sololá	719	Santiago Atitlán	14	Cerro de Oro	4	Abril	2023-04-25T00:00:00	2024-11-08T09:00:00	1	Precipitación	0
145176	7	Sololá	719	Santiago Atitlán	14	Cerro de Oro	4	Abril	2023-04-25T00:00:00	2024-11-08T09:00:00	8	Radiación solar	492
145177	7	Sololá	719	Santiago Atitlán	14	Cerro de Oro	4	Abril	2023-04-25T00:00:00	2024-11-08T10:00:00	2	Temperatura media	20.2
145178	7	Sololá	719	Santiago Atitlán	14	Cerro de Oro	4	Abril	2023-04-25T00:00:00	2024-11-08T10:00:00	4	Temperatura máxima	20.3
145179	7	Sololá	719	Santiago Atitlán	14	Cerro de Oro	4	Abril	2023-04-25T00:00:00	2024-11-08T10:00:00	3	Temperatura mínima	19.4
145180	7	Sololá	719	Santiago Atitlán	14	Cerro de Oro	4	Abril	2023-04-25T00:00:00	2024-11-08T10:00:00	5	Humedad	75
145181	7	Sololá	719	Santiago Atitlán	14	Cerro de Oro	4	Abril	2023-04-25T00:00:00	2024-11-08T10:00:00	6	Velocidad del viento	3.2
145182	7	Sololá	719	Santiago Atitlán	14	Cerro de Oro	4	Abril	2023-04-25T00:00:00	2024-11-08T10:00:00	7	Dirección del viento	3.22
145183	7	Sololá	719	Santiago Atitlán	14	Cerro de Oro	4	Abril	2023-04-25T00:00:00	2024-11-08T10:00:00	1	Precipitación	0
145184	7	Sololá	719	Santiago Atitlán	14	Cerro de Oro	4	Abril	2023-04-25T00:00:00	2024-11-08T10:00:00	8	Radiación solar	661
145185	7	Sololá	719	Santiago Atitlán	14	Cerro de Oro	4	Abril	2023-04-25T00:00:00	2024-11-08T11:00:00	2	Temperatura media	20.9
145186	7	Sololá	719	Santiago Atitlán	14	Cerro de Oro	4	Abril	2023-04-25T00:00:00	2024-11-08T11:00:00	4	Temperatura máxima	21
145187	7	Sololá	719	Santiago Atitlán	14	Cerro de Oro	4	Abril	2023-04-25T00:00:00	2024-11-08T11:00:00	3	Temperatura mínima	20.2
145188	7	Sololá	719	Santiago Atitlán	14	Cerro de Oro	4	Abril	2023-04-25T00:00:00	2024-11-08T11:00:00	5	Humedad	77
145189	7	Sololá	719	Santiago Atitlán	14	Cerro de Oro	4	Abril	2023-04-25T00:00:00	2024-11-08T11:00:00	6	Velocidad del viento	4.8
145190	7	Sololá	719	Santiago Atitlán	14	Cerro de Oro	4	Abril	2023-04-25T00:00:00	2024-11-08T11:00:00	7	Dirección del viento	4.83
145191	7	Sololá	719	Santiago Atitlán	14	Cerro de Oro	4	Abril	2023-04-25T00:00:00	2024-11-08T11:00:00	1	Precipitación	0
145192	7	Sololá	719	Santiago Atitlán	14	Cerro de Oro	4	Abril	2023-04-25T00:00:00	2024-11-08T11:00:00	8	Radiación solar	820
145193	7	Sololá	719	Santiago Atitlán	14	Cerro de Oro	4	Abril	2023-04-25T00:00:00	2024-11-08T12:00:00	2	Temperatura media	23.5
145194	7	Sololá	719	Santiago Atitlán	14	Cerro de Oro	4	Abril	2023-04-25T00:00:00	2024-11-08T12:00:00	4	Temperatura máxima	23.5
145195	7	Sololá	719	Santiago Atitlán	14	Cerro de Oro	4	Abril	2023-04-25T00:00:00	2024-11-08T12:00:00	3	Temperatura mínima	20.9
145196	7	Sololá	719	Santiago Atitlán	14	Cerro de Oro	4	Abril	2023-04-25T00:00:00	2024-11-08T12:00:00	5	Humedad	69
145197	7	Sololá	719	Santiago Atitlán	14	Cerro de Oro	4	Abril	2023-04-25T00:00:00	2024-11-08T12:00:00	6	Velocidad del viento	6.4
145198	7	Sololá	719	Santiago Atitlán	14	Cerro de Oro	4	Abril	2023-04-25T00:00:00	2024-11-08T12:00:00	7	Dirección del viento	6.44
145199	7	Sololá	719	Santiago Atitlán	14	Cerro de Oro	4	Abril	2023-04-25T00:00:00	2024-11-08T12:00:00	1	Precipitación	0
145200	7	Sololá	719	Santiago Atitlán	14	Cerro de Oro	4	Abril	2023-04-25T00:00:00	2024-11-08T12:00:00	8	Radiación solar	919
145201	7	Sololá	719	Santiago Atitlán	14	Cerro de Oro	4	Abril	2023-04-25T00:00:00	2024-11-08T13:00:00	2	Temperatura media	23.9
145202	7	Sololá	719	Santiago Atitlán	14	Cerro de Oro	4	Abril	2023-04-25T00:00:00	2024-11-08T13:00:00	4	Temperatura máxima	23.9
145203	7	Sololá	719	Santiago Atitlán	14	Cerro de Oro	4	Abril	2023-04-25T00:00:00	2024-11-08T13:00:00	3	Temperatura mínima	23.4
145204	7	Sololá	719	Santiago Atitlán	14	Cerro de Oro	4	Abril	2023-04-25T00:00:00	2024-11-08T13:00:00	5	Humedad	69
145205	7	Sololá	719	Santiago Atitlán	14	Cerro de Oro	4	Abril	2023-04-25T00:00:00	2024-11-08T13:00:00	6	Velocidad del viento	11.3
145206	7	Sololá	719	Santiago Atitlán	14	Cerro de Oro	4	Abril	2023-04-25T00:00:00	2024-11-08T13:00:00	7	Dirección del viento	11.27
145207	7	Sololá	719	Santiago Atitlán	14	Cerro de Oro	4	Abril	2023-04-25T00:00:00	2024-11-08T13:00:00	1	Precipitación	0
145208	7	Sololá	719	Santiago Atitlán	14	Cerro de Oro	4	Abril	2023-04-25T00:00:00	2024-11-08T13:00:00	8	Radiación solar	881
145209	7	Sololá	719	Santiago Atitlán	14	Cerro de Oro	4	Abril	2023-04-25T00:00:00	2024-11-08T14:00:00	2	Temperatura media	23.5
145210	7	Sololá	719	Santiago Atitlán	14	Cerro de Oro	4	Abril	2023-04-25T00:00:00	2024-11-08T14:00:00	4	Temperatura máxima	24.2
145211	7	Sololá	719	Santiago Atitlán	14	Cerro de Oro	4	Abril	2023-04-25T00:00:00	2024-11-08T14:00:00	3	Temperatura mínima	23.5
145212	7	Sololá	719	Santiago Atitlán	14	Cerro de Oro	4	Abril	2023-04-25T00:00:00	2024-11-08T14:00:00	5	Humedad	70
145213	7	Sololá	719	Santiago Atitlán	14	Cerro de Oro	4	Abril	2023-04-25T00:00:00	2024-11-08T14:00:00	6	Velocidad del viento	12.9
145214	7	Sololá	719	Santiago Atitlán	14	Cerro de Oro	4	Abril	2023-04-25T00:00:00	2024-11-08T14:00:00	7	Dirección del viento	12.87
145215	7	Sololá	719	Santiago Atitlán	14	Cerro de Oro	4	Abril	2023-04-25T00:00:00	2024-11-08T14:00:00	1	Precipitación	0
145216	7	Sololá	719	Santiago Atitlán	14	Cerro de Oro	4	Abril	2023-04-25T00:00:00	2024-11-08T14:00:00	8	Radiación solar	254
145217	7	Sololá	719	Santiago Atitlán	14	Cerro de Oro	4	Abril	2023-04-25T00:00:00	2024-11-08T15:00:00	2	Temperatura media	22.2
145218	7	Sololá	719	Santiago Atitlán	14	Cerro de Oro	4	Abril	2023-04-25T00:00:00	2024-11-08T15:00:00	4	Temperatura máxima	23.6
145219	7	Sololá	719	Santiago Atitlán	14	Cerro de Oro	4	Abril	2023-04-25T00:00:00	2024-11-08T15:00:00	3	Temperatura mínima	22.1
145220	7	Sololá	719	Santiago Atitlán	14	Cerro de Oro	4	Abril	2023-04-25T00:00:00	2024-11-08T15:00:00	5	Humedad	73
145221	7	Sololá	719	Santiago Atitlán	14	Cerro de Oro	4	Abril	2023-04-25T00:00:00	2024-11-08T15:00:00	6	Velocidad del viento	11.3
145222	7	Sololá	719	Santiago Atitlán	14	Cerro de Oro	4	Abril	2023-04-25T00:00:00	2024-11-08T15:00:00	7	Dirección del viento	11.27
145223	7	Sololá	719	Santiago Atitlán	14	Cerro de Oro	4	Abril	2023-04-25T00:00:00	2024-11-08T15:00:00	1	Precipitación	0
145224	7	Sololá	719	Santiago Atitlán	14	Cerro de Oro	4	Abril	2023-04-25T00:00:00	2024-11-08T15:00:00	8	Radiación solar	173
145225	7	Sololá	719	Santiago Atitlán	14	Cerro de Oro	4	Abril	2023-04-25T00:00:00	2024-11-08T16:00:00	2	Temperatura media	21.9
145226	7	Sololá	719	Santiago Atitlán	14	Cerro de Oro	4	Abril	2023-04-25T00:00:00	2024-11-08T16:00:00	4	Temperatura máxima	22.3
145227	7	Sololá	719	Santiago Atitlán	14	Cerro de Oro	4	Abril	2023-04-25T00:00:00	2024-11-08T16:00:00	3	Temperatura mínima	21.7
145228	7	Sololá	719	Santiago Atitlán	14	Cerro de Oro	4	Abril	2023-04-25T00:00:00	2024-11-08T16:00:00	5	Humedad	77
145229	7	Sololá	719	Santiago Atitlán	14	Cerro de Oro	4	Abril	2023-04-25T00:00:00	2024-11-08T16:00:00	6	Velocidad del viento	8
145230	7	Sololá	719	Santiago Atitlán	14	Cerro de Oro	4	Abril	2023-04-25T00:00:00	2024-11-08T16:00:00	7	Dirección del viento	8.05
145231	7	Sololá	719	Santiago Atitlán	14	Cerro de Oro	4	Abril	2023-04-25T00:00:00	2024-11-08T16:00:00	1	Precipitación	0
145232	7	Sololá	719	Santiago Atitlán	14	Cerro de Oro	4	Abril	2023-04-25T00:00:00	2024-11-08T16:00:00	8	Radiación solar	144
145233	7	Sololá	719	Santiago Atitlán	14	Cerro de Oro	4	Abril	2023-04-25T00:00:00	2024-11-08T17:00:00	2	Temperatura media	21.2
145234	7	Sololá	719	Santiago Atitlán	14	Cerro de Oro	4	Abril	2023-04-25T00:00:00	2024-11-08T17:00:00	4	Temperatura máxima	22
145235	7	Sololá	719	Santiago Atitlán	14	Cerro de Oro	4	Abril	2023-04-25T00:00:00	2024-11-08T17:00:00	3	Temperatura mínima	21.1
145236	7	Sololá	719	Santiago Atitlán	14	Cerro de Oro	4	Abril	2023-04-25T00:00:00	2024-11-08T17:00:00	5	Humedad	84
145237	7	Sololá	719	Santiago Atitlán	14	Cerro de Oro	4	Abril	2023-04-25T00:00:00	2024-11-08T17:00:00	6	Velocidad del viento	6.4
145238	7	Sololá	719	Santiago Atitlán	14	Cerro de Oro	4	Abril	2023-04-25T00:00:00	2024-11-08T17:00:00	7	Dirección del viento	6.44
145239	7	Sololá	719	Santiago Atitlán	14	Cerro de Oro	4	Abril	2023-04-25T00:00:00	2024-11-08T17:00:00	1	Precipitación	0
145240	7	Sololá	719	Santiago Atitlán	14	Cerro de Oro	4	Abril	2023-04-25T00:00:00	2024-11-08T17:00:00	8	Radiación solar	86
145241	7	Sololá	719	Santiago Atitlán	14	Cerro de Oro	4	Abril	2023-04-25T00:00:00	2024-11-08T18:00:00	2	Temperatura media	20.4
145242	7	Sololá	719	Santiago Atitlán	14	Cerro de Oro	4	Abril	2023-04-25T00:00:00	2024-11-08T18:00:00	4	Temperatura máxima	21.3
145243	7	Sololá	719	Santiago Atitlán	14	Cerro de Oro	4	Abril	2023-04-25T00:00:00	2024-11-08T18:00:00	3	Temperatura mínima	20.3
145244	7	Sololá	719	Santiago Atitlán	14	Cerro de Oro	4	Abril	2023-04-25T00:00:00	2024-11-08T18:00:00	5	Humedad	86
145245	7	Sololá	719	Santiago Atitlán	14	Cerro de Oro	4	Abril	2023-04-25T00:00:00	2024-11-08T18:00:00	6	Velocidad del viento	8
145246	7	Sololá	719	Santiago Atitlán	14	Cerro de Oro	4	Abril	2023-04-25T00:00:00	2024-11-08T18:00:00	7	Dirección del viento	8.05
145247	7	Sololá	719	Santiago Atitlán	14	Cerro de Oro	4	Abril	2023-04-25T00:00:00	2024-11-08T18:00:00	1	Precipitación	0
145248	7	Sololá	719	Santiago Atitlán	14	Cerro de Oro	4	Abril	2023-04-25T00:00:00	2024-11-08T18:00:00	8	Radiación solar	32
145249	7	Sololá	719	Santiago Atitlán	14	Cerro de Oro	4	Abril	2023-04-25T00:00:00	2024-11-08T19:00:00	2	Temperatura media	20.1
145250	7	Sololá	719	Santiago Atitlán	14	Cerro de Oro	4	Abril	2023-04-25T00:00:00	2024-11-08T19:00:00	4	Temperatura máxima	20.3
145251	7	Sololá	719	Santiago Atitlán	14	Cerro de Oro	4	Abril	2023-04-25T00:00:00	2024-11-08T19:00:00	3	Temperatura mínima	20.1
145252	7	Sololá	719	Santiago Atitlán	14	Cerro de Oro	4	Abril	2023-04-25T00:00:00	2024-11-08T19:00:00	5	Humedad	88
145253	7	Sololá	719	Santiago Atitlán	14	Cerro de Oro	4	Abril	2023-04-25T00:00:00	2024-11-08T19:00:00	6	Velocidad del viento	3.2
145254	7	Sololá	719	Santiago Atitlán	14	Cerro de Oro	4	Abril	2023-04-25T00:00:00	2024-11-08T19:00:00	7	Dirección del viento	3.22
145255	7	Sololá	719	Santiago Atitlán	14	Cerro de Oro	4	Abril	2023-04-25T00:00:00	2024-11-08T19:00:00	1	Precipitación	0
145256	7	Sololá	719	Santiago Atitlán	14	Cerro de Oro	4	Abril	2023-04-25T00:00:00	2024-11-08T19:00:00	8	Radiación solar	0
145257	7	Sololá	719	Santiago Atitlán	14	Cerro de Oro	4	Abril	2023-04-25T00:00:00	2024-11-08T20:00:00	2	Temperatura media	19.6
145258	7	Sololá	719	Santiago Atitlán	14	Cerro de Oro	4	Abril	2023-04-25T00:00:00	2024-11-08T20:00:00	4	Temperatura máxima	20.1
145259	7	Sololá	719	Santiago Atitlán	14	Cerro de Oro	4	Abril	2023-04-25T00:00:00	2024-11-08T20:00:00	3	Temperatura mínima	19.5
145260	7	Sololá	719	Santiago Atitlán	14	Cerro de Oro	4	Abril	2023-04-25T00:00:00	2024-11-08T20:00:00	5	Humedad	88
145261	7	Sololá	719	Santiago Atitlán	14	Cerro de Oro	4	Abril	2023-04-25T00:00:00	2024-11-08T20:00:00	6	Velocidad del viento	4.8
145262	7	Sololá	719	Santiago Atitlán	14	Cerro de Oro	4	Abril	2023-04-25T00:00:00	2024-11-08T20:00:00	7	Dirección del viento	4.83
145263	7	Sololá	719	Santiago Atitlán	14	Cerro de Oro	4	Abril	2023-04-25T00:00:00	2024-11-08T20:00:00	1	Precipitación	0
145264	7	Sololá	719	Santiago Atitlán	14	Cerro de Oro	4	Abril	2023-04-25T00:00:00	2024-11-08T20:00:00	8	Radiación solar	0
145265	7	Sololá	719	Santiago Atitlán	14	Cerro de Oro	4	Abril	2023-04-25T00:00:00	2024-11-08T21:00:00	2	Temperatura media	19.4
145266	7	Sololá	719	Santiago Atitlán	14	Cerro de Oro	4	Abril	2023-04-25T00:00:00	2024-11-08T21:00:00	4	Temperatura máxima	19.7
145267	7	Sololá	719	Santiago Atitlán	14	Cerro de Oro	4	Abril	2023-04-25T00:00:00	2024-11-08T21:00:00	3	Temperatura mínima	19.4
145268	7	Sololá	719	Santiago Atitlán	14	Cerro de Oro	4	Abril	2023-04-25T00:00:00	2024-11-08T21:00:00	5	Humedad	89
145269	7	Sololá	719	Santiago Atitlán	14	Cerro de Oro	4	Abril	2023-04-25T00:00:00	2024-11-08T21:00:00	6	Velocidad del viento	1.6
145270	7	Sololá	719	Santiago Atitlán	14	Cerro de Oro	4	Abril	2023-04-25T00:00:00	2024-11-08T21:00:00	7	Dirección del viento	1.61
145271	7	Sololá	719	Santiago Atitlán	14	Cerro de Oro	4	Abril	2023-04-25T00:00:00	2024-11-08T21:00:00	1	Precipitación	0
145272	7	Sololá	719	Santiago Atitlán	14	Cerro de Oro	4	Abril	2023-04-25T00:00:00	2024-11-08T21:00:00	8	Radiación solar	0
145273	7	Sololá	719	Santiago Atitlán	14	Cerro de Oro	4	Abril	2023-04-25T00:00:00	2024-11-08T22:00:00	2	Temperatura media	18.9
145274	7	Sololá	719	Santiago Atitlán	14	Cerro de Oro	4	Abril	2023-04-25T00:00:00	2024-11-08T22:00:00	4	Temperatura máxima	19.6
145275	7	Sololá	719	Santiago Atitlán	14	Cerro de Oro	4	Abril	2023-04-25T00:00:00	2024-11-08T22:00:00	3	Temperatura mínima	18.8
145276	7	Sololá	719	Santiago Atitlán	14	Cerro de Oro	4	Abril	2023-04-25T00:00:00	2024-11-08T22:00:00	5	Humedad	87
145277	7	Sololá	719	Santiago Atitlán	14	Cerro de Oro	4	Abril	2023-04-25T00:00:00	2024-11-08T22:00:00	6	Velocidad del viento	3.2
145278	7	Sololá	719	Santiago Atitlán	14	Cerro de Oro	4	Abril	2023-04-25T00:00:00	2024-11-08T22:00:00	7	Dirección del viento	3.22
145279	7	Sololá	719	Santiago Atitlán	14	Cerro de Oro	4	Abril	2023-04-25T00:00:00	2024-11-08T22:00:00	1	Precipitación	0
145280	7	Sololá	719	Santiago Atitlán	14	Cerro de Oro	4	Abril	2023-04-25T00:00:00	2024-11-08T22:00:00	8	Radiación solar	0
145281	7	Sololá	719	Santiago Atitlán	14	Cerro de Oro	4	Abril	2023-04-25T00:00:00	2024-11-08T23:00:00	2	Temperatura media	19.2
145282	7	Sololá	719	Santiago Atitlán	14	Cerro de Oro	4	Abril	2023-04-25T00:00:00	2024-11-08T23:00:00	4	Temperatura máxima	19.5
145283	7	Sololá	719	Santiago Atitlán	14	Cerro de Oro	4	Abril	2023-04-25T00:00:00	2024-11-08T23:00:00	3	Temperatura mínima	18.7
145284	7	Sololá	719	Santiago Atitlán	14	Cerro de Oro	4	Abril	2023-04-25T00:00:00	2024-11-08T23:00:00	5	Humedad	87
145285	7	Sololá	719	Santiago Atitlán	14	Cerro de Oro	4	Abril	2023-04-25T00:00:00	2024-11-08T23:00:00	6	Velocidad del viento	4.8
145286	7	Sololá	719	Santiago Atitlán	14	Cerro de Oro	4	Abril	2023-04-25T00:00:00	2024-11-08T23:00:00	7	Dirección del viento	4.83
145287	7	Sololá	719	Santiago Atitlán	14	Cerro de Oro	4	Abril	2023-04-25T00:00:00	2024-11-08T23:00:00	1	Precipitación	0
145288	7	Sololá	719	Santiago Atitlán	14	Cerro de Oro	4	Abril	2023-04-25T00:00:00	2024-11-08T23:00:00	8	Radiación solar	0
145289	7	Sololá	719	Santiago Atitlán	14	Cerro de Oro	4	Abril	2023-04-26T00:00:00	2024-11-08T00:00:00	2	Temperatura media	19
145290	7	Sololá	719	Santiago Atitlán	14	Cerro de Oro	4	Abril	2023-04-26T00:00:00	2024-11-08T00:00:00	4	Temperatura máxima	19.3
145291	7	Sololá	719	Santiago Atitlán	14	Cerro de Oro	4	Abril	2023-04-26T00:00:00	2024-11-08T00:00:00	3	Temperatura mínima	18.9
145292	7	Sololá	719	Santiago Atitlán	14	Cerro de Oro	4	Abril	2023-04-26T00:00:00	2024-11-08T00:00:00	5	Humedad	86
145293	7	Sololá	719	Santiago Atitlán	14	Cerro de Oro	4	Abril	2023-04-26T00:00:00	2024-11-08T00:00:00	6	Velocidad del viento	3.2
145294	7	Sololá	719	Santiago Atitlán	14	Cerro de Oro	4	Abril	2023-04-26T00:00:00	2024-11-08T00:00:00	7	Dirección del viento	3.22
145295	7	Sololá	719	Santiago Atitlán	14	Cerro de Oro	4	Abril	2023-04-26T00:00:00	2024-11-08T00:00:00	1	Precipitación	0
145296	7	Sololá	719	Santiago Atitlán	14	Cerro de Oro	4	Abril	2023-04-26T00:00:00	2024-11-08T00:00:00	8	Radiación solar	0
145297	7	Sololá	719	Santiago Atitlán	14	Cerro de Oro	4	Abril	2023-04-26T00:00:00	2024-11-08T01:00:00	2	Temperatura media	19
145298	7	Sololá	719	Santiago Atitlán	14	Cerro de Oro	4	Abril	2023-04-26T00:00:00	2024-11-08T01:00:00	4	Temperatura máxima	19.2
145299	7	Sololá	719	Santiago Atitlán	14	Cerro de Oro	4	Abril	2023-04-26T00:00:00	2024-11-08T01:00:00	3	Temperatura mínima	18.9
145300	7	Sololá	719	Santiago Atitlán	14	Cerro de Oro	4	Abril	2023-04-26T00:00:00	2024-11-08T01:00:00	5	Humedad	86
145301	7	Sololá	719	Santiago Atitlán	14	Cerro de Oro	4	Abril	2023-04-26T00:00:00	2024-11-08T01:00:00	6	Velocidad del viento	3.2
145302	7	Sololá	719	Santiago Atitlán	14	Cerro de Oro	4	Abril	2023-04-26T00:00:00	2024-11-08T01:00:00	7	Dirección del viento	3.22
145303	7	Sololá	719	Santiago Atitlán	14	Cerro de Oro	4	Abril	2023-04-26T00:00:00	2024-11-08T01:00:00	1	Precipitación	0
145304	7	Sololá	719	Santiago Atitlán	14	Cerro de Oro	4	Abril	2023-04-26T00:00:00	2024-11-08T01:00:00	8	Radiación solar	0
145305	7	Sololá	719	Santiago Atitlán	14	Cerro de Oro	4	Abril	2023-04-26T00:00:00	2024-11-08T02:00:00	2	Temperatura media	18.9
145306	7	Sololá	719	Santiago Atitlán	14	Cerro de Oro	4	Abril	2023-04-26T00:00:00	2024-11-08T02:00:00	4	Temperatura máxima	19.2
145307	7	Sololá	719	Santiago Atitlán	14	Cerro de Oro	4	Abril	2023-04-26T00:00:00	2024-11-08T02:00:00	3	Temperatura mínima	18.9
145308	7	Sololá	719	Santiago Atitlán	14	Cerro de Oro	4	Abril	2023-04-26T00:00:00	2024-11-08T02:00:00	5	Humedad	87
145309	7	Sololá	719	Santiago Atitlán	14	Cerro de Oro	4	Abril	2023-04-26T00:00:00	2024-11-08T02:00:00	6	Velocidad del viento	3.2
145310	7	Sololá	719	Santiago Atitlán	14	Cerro de Oro	4	Abril	2023-04-26T00:00:00	2024-11-08T02:00:00	7	Dirección del viento	3.22
145311	7	Sololá	719	Santiago Atitlán	14	Cerro de Oro	4	Abril	2023-04-26T00:00:00	2024-11-08T02:00:00	1	Precipitación	0
145312	7	Sololá	719	Santiago Atitlán	14	Cerro de Oro	4	Abril	2023-04-26T00:00:00	2024-11-08T02:00:00	8	Radiación solar	0
145313	7	Sololá	719	Santiago Atitlán	14	Cerro de Oro	4	Abril	2023-04-26T00:00:00	2024-11-08T03:00:00	2	Temperatura media	18.9
145314	7	Sololá	719	Santiago Atitlán	14	Cerro de Oro	4	Abril	2023-04-26T00:00:00	2024-11-08T03:00:00	4	Temperatura máxima	19.1
145315	7	Sololá	719	Santiago Atitlán	14	Cerro de Oro	4	Abril	2023-04-26T00:00:00	2024-11-08T03:00:00	3	Temperatura mínima	18.8
145316	7	Sololá	719	Santiago Atitlán	14	Cerro de Oro	4	Abril	2023-04-26T00:00:00	2024-11-08T03:00:00	5	Humedad	87
145317	7	Sololá	719	Santiago Atitlán	14	Cerro de Oro	4	Abril	2023-04-26T00:00:00	2024-11-08T03:00:00	6	Velocidad del viento	3.2
145318	7	Sololá	719	Santiago Atitlán	14	Cerro de Oro	4	Abril	2023-04-26T00:00:00	2024-11-08T03:00:00	7	Dirección del viento	3.22
145319	7	Sololá	719	Santiago Atitlán	14	Cerro de Oro	4	Abril	2023-04-26T00:00:00	2024-11-08T03:00:00	1	Precipitación	0
145320	7	Sololá	719	Santiago Atitlán	14	Cerro de Oro	4	Abril	2023-04-26T00:00:00	2024-11-08T03:00:00	8	Radiación solar	0
145321	7	Sololá	719	Santiago Atitlán	14	Cerro de Oro	4	Abril	2023-04-26T00:00:00	2024-11-08T04:00:00	2	Temperatura media	18.9
145322	7	Sololá	719	Santiago Atitlán	14	Cerro de Oro	4	Abril	2023-04-26T00:00:00	2024-11-08T04:00:00	4	Temperatura máxima	19
145323	7	Sololá	719	Santiago Atitlán	14	Cerro de Oro	4	Abril	2023-04-26T00:00:00	2024-11-08T04:00:00	3	Temperatura mínima	18.8
145324	7	Sololá	719	Santiago Atitlán	14	Cerro de Oro	4	Abril	2023-04-26T00:00:00	2024-11-08T04:00:00	5	Humedad	87
145325	7	Sololá	719	Santiago Atitlán	14	Cerro de Oro	4	Abril	2023-04-26T00:00:00	2024-11-08T04:00:00	6	Velocidad del viento	3.2
145326	7	Sololá	719	Santiago Atitlán	14	Cerro de Oro	4	Abril	2023-04-26T00:00:00	2024-11-08T04:00:00	7	Dirección del viento	3.22
145327	7	Sololá	719	Santiago Atitlán	14	Cerro de Oro	4	Abril	2023-04-26T00:00:00	2024-11-08T04:00:00	1	Precipitación	0
145328	7	Sololá	719	Santiago Atitlán	14	Cerro de Oro	4	Abril	2023-04-26T00:00:00	2024-11-08T04:00:00	8	Radiación solar	0
145329	7	Sololá	719	Santiago Atitlán	14	Cerro de Oro	4	Abril	2023-04-26T00:00:00	2024-11-08T05:00:00	2	Temperatura media	18.7
145330	7	Sololá	719	Santiago Atitlán	14	Cerro de Oro	4	Abril	2023-04-26T00:00:00	2024-11-08T05:00:00	4	Temperatura máxima	18.9
145331	7	Sololá	719	Santiago Atitlán	14	Cerro de Oro	4	Abril	2023-04-26T00:00:00	2024-11-08T05:00:00	3	Temperatura mínima	18.5
145332	7	Sololá	719	Santiago Atitlán	14	Cerro de Oro	4	Abril	2023-04-26T00:00:00	2024-11-08T05:00:00	5	Humedad	86
145333	7	Sololá	719	Santiago Atitlán	14	Cerro de Oro	4	Abril	2023-04-26T00:00:00	2024-11-08T05:00:00	6	Velocidad del viento	4.8
145334	7	Sololá	719	Santiago Atitlán	14	Cerro de Oro	4	Abril	2023-04-26T00:00:00	2024-11-08T05:00:00	7	Dirección del viento	4.83
145335	7	Sololá	719	Santiago Atitlán	14	Cerro de Oro	4	Abril	2023-04-26T00:00:00	2024-11-08T05:00:00	1	Precipitación	0
145336	7	Sololá	719	Santiago Atitlán	14	Cerro de Oro	4	Abril	2023-04-26T00:00:00	2024-11-08T05:00:00	8	Radiación solar	0
145337	7	Sololá	719	Santiago Atitlán	14	Cerro de Oro	4	Abril	2023-04-26T00:00:00	2024-11-08T06:00:00	2	Temperatura media	18.7
145338	7	Sololá	719	Santiago Atitlán	14	Cerro de Oro	4	Abril	2023-04-26T00:00:00	2024-11-08T06:00:00	4	Temperatura máxima	18.8
145339	7	Sololá	719	Santiago Atitlán	14	Cerro de Oro	4	Abril	2023-04-26T00:00:00	2024-11-08T06:00:00	3	Temperatura mínima	18.5
145340	7	Sololá	719	Santiago Atitlán	14	Cerro de Oro	4	Abril	2023-04-26T00:00:00	2024-11-08T06:00:00	5	Humedad	85
145341	7	Sololá	719	Santiago Atitlán	14	Cerro de Oro	4	Abril	2023-04-26T00:00:00	2024-11-08T06:00:00	6	Velocidad del viento	4.8
145342	7	Sololá	719	Santiago Atitlán	14	Cerro de Oro	4	Abril	2023-04-26T00:00:00	2024-11-08T06:00:00	7	Dirección del viento	4.83
145343	7	Sololá	719	Santiago Atitlán	14	Cerro de Oro	4	Abril	2023-04-26T00:00:00	2024-11-08T06:00:00	1	Precipitación	0
145344	7	Sololá	719	Santiago Atitlán	14	Cerro de Oro	4	Abril	2023-04-26T00:00:00	2024-11-08T06:00:00	8	Radiación solar	2
145345	7	Sololá	719	Santiago Atitlán	14	Cerro de Oro	4	Abril	2023-04-26T00:00:00	2024-11-08T07:00:00	2	Temperatura media	18.3
145346	7	Sololá	719	Santiago Atitlán	14	Cerro de Oro	4	Abril	2023-04-26T00:00:00	2024-11-08T07:00:00	4	Temperatura máxima	18.9
145347	7	Sololá	719	Santiago Atitlán	14	Cerro de Oro	4	Abril	2023-04-26T00:00:00	2024-11-08T07:00:00	3	Temperatura mínima	18.3
145348	7	Sololá	719	Santiago Atitlán	14	Cerro de Oro	4	Abril	2023-04-26T00:00:00	2024-11-08T07:00:00	5	Humedad	87
145349	7	Sololá	719	Santiago Atitlán	14	Cerro de Oro	4	Abril	2023-04-26T00:00:00	2024-11-08T07:00:00	6	Velocidad del viento	4.8
145350	7	Sololá	719	Santiago Atitlán	14	Cerro de Oro	4	Abril	2023-04-26T00:00:00	2024-11-08T07:00:00	7	Dirección del viento	4.83
145351	7	Sololá	719	Santiago Atitlán	14	Cerro de Oro	4	Abril	2023-04-26T00:00:00	2024-11-08T07:00:00	1	Precipitación	0
145352	7	Sololá	719	Santiago Atitlán	14	Cerro de Oro	4	Abril	2023-04-26T00:00:00	2024-11-08T07:00:00	8	Radiación solar	81
145353	7	Sololá	719	Santiago Atitlán	14	Cerro de Oro	4	Abril	2023-04-26T00:00:00	2024-11-08T08:00:00	2	Temperatura media	19.7
145354	7	Sololá	719	Santiago Atitlán	14	Cerro de Oro	4	Abril	2023-04-26T00:00:00	2024-11-08T08:00:00	4	Temperatura máxima	19.7
145355	7	Sololá	719	Santiago Atitlán	14	Cerro de Oro	4	Abril	2023-04-26T00:00:00	2024-11-08T08:00:00	3	Temperatura mínima	18.3
145356	7	Sololá	719	Santiago Atitlán	14	Cerro de Oro	4	Abril	2023-04-26T00:00:00	2024-11-08T08:00:00	5	Humedad	83
145357	7	Sololá	719	Santiago Atitlán	14	Cerro de Oro	4	Abril	2023-04-26T00:00:00	2024-11-08T08:00:00	6	Velocidad del viento	3.2
145358	7	Sololá	719	Santiago Atitlán	14	Cerro de Oro	4	Abril	2023-04-26T00:00:00	2024-11-08T08:00:00	7	Dirección del viento	3.22
145359	7	Sololá	719	Santiago Atitlán	14	Cerro de Oro	4	Abril	2023-04-26T00:00:00	2024-11-08T08:00:00	1	Precipitación	0
145360	7	Sololá	719	Santiago Atitlán	14	Cerro de Oro	4	Abril	2023-04-26T00:00:00	2024-11-08T08:00:00	8	Radiación solar	269
145361	7	Sololá	719	Santiago Atitlán	14	Cerro de Oro	4	Abril	2023-04-26T00:00:00	2024-11-08T09:00:00	2	Temperatura media	21.1
145362	7	Sololá	719	Santiago Atitlán	14	Cerro de Oro	4	Abril	2023-04-26T00:00:00	2024-11-08T09:00:00	4	Temperatura máxima	21.1
145363	7	Sololá	719	Santiago Atitlán	14	Cerro de Oro	4	Abril	2023-04-26T00:00:00	2024-11-08T09:00:00	3	Temperatura mínima	19.8
145364	7	Sololá	719	Santiago Atitlán	14	Cerro de Oro	4	Abril	2023-04-26T00:00:00	2024-11-08T09:00:00	5	Humedad	79
145365	7	Sololá	719	Santiago Atitlán	14	Cerro de Oro	4	Abril	2023-04-26T00:00:00	2024-11-08T09:00:00	6	Velocidad del viento	3.2
145366	7	Sololá	719	Santiago Atitlán	14	Cerro de Oro	4	Abril	2023-04-26T00:00:00	2024-11-08T09:00:00	7	Dirección del viento	3.22
145367	7	Sololá	719	Santiago Atitlán	14	Cerro de Oro	4	Abril	2023-04-26T00:00:00	2024-11-08T09:00:00	1	Precipitación	0
145368	7	Sololá	719	Santiago Atitlán	14	Cerro de Oro	4	Abril	2023-04-26T00:00:00	2024-11-08T09:00:00	8	Radiación solar	506
145369	7	Sololá	719	Santiago Atitlán	14	Cerro de Oro	4	Abril	2023-04-26T00:00:00	2024-11-08T10:00:00	2	Temperatura media	21.7
145370	7	Sololá	719	Santiago Atitlán	14	Cerro de Oro	4	Abril	2023-04-26T00:00:00	2024-11-08T10:00:00	4	Temperatura máxima	21.7
145371	7	Sololá	719	Santiago Atitlán	14	Cerro de Oro	4	Abril	2023-04-26T00:00:00	2024-11-08T10:00:00	3	Temperatura mínima	21.1
145372	7	Sololá	719	Santiago Atitlán	14	Cerro de Oro	4	Abril	2023-04-26T00:00:00	2024-11-08T10:00:00	5	Humedad	80
145373	7	Sololá	719	Santiago Atitlán	14	Cerro de Oro	4	Abril	2023-04-26T00:00:00	2024-11-08T10:00:00	6	Velocidad del viento	3.2
145374	7	Sololá	719	Santiago Atitlán	14	Cerro de Oro	4	Abril	2023-04-26T00:00:00	2024-11-08T10:00:00	7	Dirección del viento	3.22
145375	7	Sololá	719	Santiago Atitlán	14	Cerro de Oro	4	Abril	2023-04-26T00:00:00	2024-11-08T10:00:00	1	Precipitación	0
145376	7	Sololá	719	Santiago Atitlán	14	Cerro de Oro	4	Abril	2023-04-26T00:00:00	2024-11-08T10:00:00	8	Radiación solar	599
145377	7	Sololá	719	Santiago Atitlán	14	Cerro de Oro	4	Abril	2023-04-26T00:00:00	2024-11-08T11:00:00	2	Temperatura media	23
145378	7	Sololá	719	Santiago Atitlán	14	Cerro de Oro	4	Abril	2023-04-26T00:00:00	2024-11-08T11:00:00	4	Temperatura máxima	23
145379	7	Sololá	719	Santiago Atitlán	14	Cerro de Oro	4	Abril	2023-04-26T00:00:00	2024-11-08T11:00:00	3	Temperatura mínima	21.3
145380	7	Sololá	719	Santiago Atitlán	14	Cerro de Oro	4	Abril	2023-04-26T00:00:00	2024-11-08T11:00:00	5	Humedad	72
145381	7	Sololá	719	Santiago Atitlán	14	Cerro de Oro	4	Abril	2023-04-26T00:00:00	2024-11-08T11:00:00	6	Velocidad del viento	4.8
145382	7	Sololá	719	Santiago Atitlán	14	Cerro de Oro	4	Abril	2023-04-26T00:00:00	2024-11-08T11:00:00	7	Dirección del viento	4.83
145383	7	Sololá	719	Santiago Atitlán	14	Cerro de Oro	4	Abril	2023-04-26T00:00:00	2024-11-08T11:00:00	1	Precipitación	0
145384	7	Sololá	719	Santiago Atitlán	14	Cerro de Oro	4	Abril	2023-04-26T00:00:00	2024-11-08T11:00:00	8	Radiación solar	574
145385	7	Sololá	719	Santiago Atitlán	14	Cerro de Oro	4	Abril	2023-04-26T00:00:00	2024-11-08T12:00:00	2	Temperatura media	23.7
145386	7	Sololá	719	Santiago Atitlán	14	Cerro de Oro	4	Abril	2023-04-26T00:00:00	2024-11-08T12:00:00	4	Temperatura máxima	24.1
145387	7	Sololá	719	Santiago Atitlán	14	Cerro de Oro	4	Abril	2023-04-26T00:00:00	2024-11-08T12:00:00	3	Temperatura mínima	23
145388	7	Sololá	719	Santiago Atitlán	14	Cerro de Oro	4	Abril	2023-04-26T00:00:00	2024-11-08T12:00:00	5	Humedad	68
145389	7	Sololá	719	Santiago Atitlán	14	Cerro de Oro	4	Abril	2023-04-26T00:00:00	2024-11-08T12:00:00	6	Velocidad del viento	8
145390	7	Sololá	719	Santiago Atitlán	14	Cerro de Oro	4	Abril	2023-04-26T00:00:00	2024-11-08T12:00:00	7	Dirección del viento	8.05
145391	7	Sololá	719	Santiago Atitlán	14	Cerro de Oro	4	Abril	2023-04-26T00:00:00	2024-11-08T12:00:00	1	Precipitación	0
145392	7	Sololá	719	Santiago Atitlán	14	Cerro de Oro	4	Abril	2023-04-26T00:00:00	2024-11-08T12:00:00	8	Radiación solar	887
145393	7	Sololá	719	Santiago Atitlán	14	Cerro de Oro	4	Abril	2023-04-26T00:00:00	2024-11-08T13:00:00	2	Temperatura media	23.8
145394	7	Sololá	719	Santiago Atitlán	14	Cerro de Oro	4	Abril	2023-04-26T00:00:00	2024-11-08T13:00:00	4	Temperatura máxima	24.2
145395	7	Sololá	719	Santiago Atitlán	14	Cerro de Oro	4	Abril	2023-04-26T00:00:00	2024-11-08T13:00:00	3	Temperatura mínima	23.6
145396	7	Sololá	719	Santiago Atitlán	14	Cerro de Oro	4	Abril	2023-04-26T00:00:00	2024-11-08T13:00:00	5	Humedad	73
145397	7	Sololá	719	Santiago Atitlán	14	Cerro de Oro	4	Abril	2023-04-26T00:00:00	2024-11-08T13:00:00	6	Velocidad del viento	12.9
145398	7	Sololá	719	Santiago Atitlán	14	Cerro de Oro	4	Abril	2023-04-26T00:00:00	2024-11-08T13:00:00	7	Dirección del viento	12.87
145399	7	Sololá	719	Santiago Atitlán	14	Cerro de Oro	4	Abril	2023-04-26T00:00:00	2024-11-08T13:00:00	1	Precipitación	0
145400	7	Sololá	719	Santiago Atitlán	14	Cerro de Oro	4	Abril	2023-04-26T00:00:00	2024-11-08T13:00:00	8	Radiación solar	676
145401	7	Sololá	719	Santiago Atitlán	14	Cerro de Oro	4	Abril	2023-04-26T00:00:00	2024-11-08T14:00:00	2	Temperatura media	23.1
145402	7	Sololá	719	Santiago Atitlán	14	Cerro de Oro	4	Abril	2023-04-26T00:00:00	2024-11-08T14:00:00	4	Temperatura máxima	24.1
145403	7	Sololá	719	Santiago Atitlán	14	Cerro de Oro	4	Abril	2023-04-26T00:00:00	2024-11-08T14:00:00	3	Temperatura mínima	22.9
145404	7	Sololá	719	Santiago Atitlán	14	Cerro de Oro	4	Abril	2023-04-26T00:00:00	2024-11-08T14:00:00	5	Humedad	76
145405	7	Sololá	719	Santiago Atitlán	14	Cerro de Oro	4	Abril	2023-04-26T00:00:00	2024-11-08T14:00:00	6	Velocidad del viento	12.9
145406	7	Sololá	719	Santiago Atitlán	14	Cerro de Oro	4	Abril	2023-04-26T00:00:00	2024-11-08T14:00:00	7	Dirección del viento	12.87
145407	7	Sololá	719	Santiago Atitlán	14	Cerro de Oro	4	Abril	2023-04-26T00:00:00	2024-11-08T14:00:00	1	Precipitación	0
145408	7	Sololá	719	Santiago Atitlán	14	Cerro de Oro	4	Abril	2023-04-26T00:00:00	2024-11-08T14:00:00	8	Radiación solar	282
145409	7	Sololá	719	Santiago Atitlán	14	Cerro de Oro	4	Abril	2023-04-26T00:00:00	2024-11-08T15:00:00	2	Temperatura media	21.6
145410	7	Sololá	719	Santiago Atitlán	14	Cerro de Oro	4	Abril	2023-04-26T00:00:00	2024-11-08T15:00:00	4	Temperatura máxima	23.1
145411	7	Sololá	719	Santiago Atitlán	14	Cerro de Oro	4	Abril	2023-04-26T00:00:00	2024-11-08T15:00:00	3	Temperatura mínima	21.6
145412	7	Sololá	719	Santiago Atitlán	14	Cerro de Oro	4	Abril	2023-04-26T00:00:00	2024-11-08T15:00:00	5	Humedad	81
145413	7	Sololá	719	Santiago Atitlán	14	Cerro de Oro	4	Abril	2023-04-26T00:00:00	2024-11-08T15:00:00	6	Velocidad del viento	14.5
145414	7	Sololá	719	Santiago Atitlán	14	Cerro de Oro	4	Abril	2023-04-26T00:00:00	2024-11-08T15:00:00	7	Dirección del viento	14.48
145415	7	Sololá	719	Santiago Atitlán	14	Cerro de Oro	4	Abril	2023-04-26T00:00:00	2024-11-08T15:00:00	1	Precipitación	0
145416	7	Sololá	719	Santiago Atitlán	14	Cerro de Oro	4	Abril	2023-04-26T00:00:00	2024-11-08T15:00:00	8	Radiación solar	134
145417	7	Sololá	719	Santiago Atitlán	14	Cerro de Oro	4	Abril	2023-04-26T00:00:00	2024-11-08T16:00:00	2	Temperatura media	20.8
145418	7	Sololá	719	Santiago Atitlán	14	Cerro de Oro	4	Abril	2023-04-26T00:00:00	2024-11-08T16:00:00	4	Temperatura máxima	21.6
145419	7	Sololá	719	Santiago Atitlán	14	Cerro de Oro	4	Abril	2023-04-26T00:00:00	2024-11-08T16:00:00	3	Temperatura mínima	20.8
145420	7	Sololá	719	Santiago Atitlán	14	Cerro de Oro	4	Abril	2023-04-26T00:00:00	2024-11-08T16:00:00	5	Humedad	83
145421	7	Sololá	719	Santiago Atitlán	14	Cerro de Oro	4	Abril	2023-04-26T00:00:00	2024-11-08T16:00:00	6	Velocidad del viento	8
145422	7	Sololá	719	Santiago Atitlán	14	Cerro de Oro	4	Abril	2023-04-26T00:00:00	2024-11-08T16:00:00	7	Dirección del viento	8.05
145423	7	Sololá	719	Santiago Atitlán	14	Cerro de Oro	4	Abril	2023-04-26T00:00:00	2024-11-08T16:00:00	1	Precipitación	0
145424	7	Sololá	719	Santiago Atitlán	14	Cerro de Oro	4	Abril	2023-04-26T00:00:00	2024-11-08T16:00:00	8	Radiación solar	374
145425	7	Sololá	719	Santiago Atitlán	14	Cerro de Oro	4	Abril	2023-04-26T00:00:00	2024-11-08T17:00:00	2	Temperatura media	22.3
145426	7	Sololá	719	Santiago Atitlán	14	Cerro de Oro	4	Abril	2023-04-26T00:00:00	2024-11-08T17:00:00	4	Temperatura máxima	22.4
145427	7	Sololá	719	Santiago Atitlán	14	Cerro de Oro	4	Abril	2023-04-26T00:00:00	2024-11-08T17:00:00	3	Temperatura mínima	20.6
145428	7	Sololá	719	Santiago Atitlán	14	Cerro de Oro	4	Abril	2023-04-26T00:00:00	2024-11-08T17:00:00	5	Humedad	76
145429	7	Sololá	719	Santiago Atitlán	14	Cerro de Oro	4	Abril	2023-04-26T00:00:00	2024-11-08T17:00:00	6	Velocidad del viento	4.8
145430	7	Sololá	719	Santiago Atitlán	14	Cerro de Oro	4	Abril	2023-04-26T00:00:00	2024-11-08T17:00:00	7	Dirección del viento	4.83
145431	7	Sololá	719	Santiago Atitlán	14	Cerro de Oro	4	Abril	2023-04-26T00:00:00	2024-11-08T17:00:00	1	Precipitación	0
145432	7	Sololá	719	Santiago Atitlán	14	Cerro de Oro	4	Abril	2023-04-26T00:00:00	2024-11-08T17:00:00	8	Radiación solar	102
145433	7	Sololá	719	Santiago Atitlán	14	Cerro de Oro	4	Abril	2023-04-26T00:00:00	2024-11-08T18:00:00	2	Temperatura media	21.5
145434	7	Sololá	719	Santiago Atitlán	14	Cerro de Oro	4	Abril	2023-04-26T00:00:00	2024-11-08T18:00:00	4	Temperatura máxima	22.3
145435	7	Sololá	719	Santiago Atitlán	14	Cerro de Oro	4	Abril	2023-04-26T00:00:00	2024-11-08T18:00:00	3	Temperatura mínima	21.5
145436	7	Sololá	719	Santiago Atitlán	14	Cerro de Oro	4	Abril	2023-04-26T00:00:00	2024-11-08T18:00:00	5	Humedad	75
145437	7	Sololá	719	Santiago Atitlán	14	Cerro de Oro	4	Abril	2023-04-26T00:00:00	2024-11-08T18:00:00	6	Velocidad del viento	4.8
145438	7	Sololá	719	Santiago Atitlán	14	Cerro de Oro	4	Abril	2023-04-26T00:00:00	2024-11-08T18:00:00	7	Dirección del viento	4.83
145439	7	Sololá	719	Santiago Atitlán	14	Cerro de Oro	4	Abril	2023-04-26T00:00:00	2024-11-08T18:00:00	1	Precipitación	0
145440	7	Sololá	719	Santiago Atitlán	14	Cerro de Oro	4	Abril	2023-04-26T00:00:00	2024-11-08T18:00:00	8	Radiación solar	39
145441	7	Sololá	719	Santiago Atitlán	14	Cerro de Oro	4	Abril	2023-04-26T00:00:00	2024-11-08T19:00:00	2	Temperatura media	20.6
145442	7	Sololá	719	Santiago Atitlán	14	Cerro de Oro	4	Abril	2023-04-26T00:00:00	2024-11-08T19:00:00	4	Temperatura máxima	21.7
145443	7	Sololá	719	Santiago Atitlán	14	Cerro de Oro	4	Abril	2023-04-26T00:00:00	2024-11-08T19:00:00	3	Temperatura mínima	20.6
145444	7	Sololá	719	Santiago Atitlán	14	Cerro de Oro	4	Abril	2023-04-26T00:00:00	2024-11-08T19:00:00	5	Humedad	79
145445	7	Sololá	719	Santiago Atitlán	14	Cerro de Oro	4	Abril	2023-04-26T00:00:00	2024-11-08T19:00:00	6	Velocidad del viento	3.2
145446	7	Sololá	719	Santiago Atitlán	14	Cerro de Oro	4	Abril	2023-04-26T00:00:00	2024-11-08T19:00:00	7	Dirección del viento	3.22
145447	7	Sololá	719	Santiago Atitlán	14	Cerro de Oro	4	Abril	2023-04-26T00:00:00	2024-11-08T19:00:00	1	Precipitación	0
145448	7	Sololá	719	Santiago Atitlán	14	Cerro de Oro	4	Abril	2023-04-26T00:00:00	2024-11-08T19:00:00	8	Radiación solar	0
145449	7	Sololá	719	Santiago Atitlán	14	Cerro de Oro	4	Abril	2023-04-26T00:00:00	2024-11-08T20:00:00	2	Temperatura media	19.5
145450	7	Sololá	719	Santiago Atitlán	14	Cerro de Oro	4	Abril	2023-04-26T00:00:00	2024-11-08T20:00:00	4	Temperatura máxima	20.6
145451	7	Sololá	719	Santiago Atitlán	14	Cerro de Oro	4	Abril	2023-04-26T00:00:00	2024-11-08T20:00:00	3	Temperatura mínima	19.5
145452	7	Sololá	719	Santiago Atitlán	14	Cerro de Oro	4	Abril	2023-04-26T00:00:00	2024-11-08T20:00:00	5	Humedad	83
145453	7	Sololá	719	Santiago Atitlán	14	Cerro de Oro	4	Abril	2023-04-26T00:00:00	2024-11-08T20:00:00	6	Velocidad del viento	3.2
145454	7	Sololá	719	Santiago Atitlán	14	Cerro de Oro	4	Abril	2023-04-26T00:00:00	2024-11-08T20:00:00	7	Dirección del viento	3.22
145455	7	Sololá	719	Santiago Atitlán	14	Cerro de Oro	4	Abril	2023-04-26T00:00:00	2024-11-08T20:00:00	1	Precipitación	0
145456	7	Sololá	719	Santiago Atitlán	14	Cerro de Oro	4	Abril	2023-04-26T00:00:00	2024-11-08T20:00:00	8	Radiación solar	0
145457	7	Sololá	719	Santiago Atitlán	14	Cerro de Oro	4	Abril	2023-04-26T00:00:00	2024-11-08T21:00:00	2	Temperatura media	19.5
145458	7	Sololá	719	Santiago Atitlán	14	Cerro de Oro	4	Abril	2023-04-26T00:00:00	2024-11-08T21:00:00	4	Temperatura máxima	19.6
145459	7	Sololá	719	Santiago Atitlán	14	Cerro de Oro	4	Abril	2023-04-26T00:00:00	2024-11-08T21:00:00	3	Temperatura mínima	19.1
145460	7	Sololá	719	Santiago Atitlán	14	Cerro de Oro	4	Abril	2023-04-26T00:00:00	2024-11-08T21:00:00	5	Humedad	81
145461	7	Sololá	719	Santiago Atitlán	14	Cerro de Oro	4	Abril	2023-04-26T00:00:00	2024-11-08T21:00:00	6	Velocidad del viento	3.2
145462	7	Sololá	719	Santiago Atitlán	14	Cerro de Oro	4	Abril	2023-04-26T00:00:00	2024-11-08T21:00:00	7	Dirección del viento	3.22
145463	7	Sololá	719	Santiago Atitlán	14	Cerro de Oro	4	Abril	2023-04-26T00:00:00	2024-11-08T21:00:00	1	Precipitación	0
145464	7	Sololá	719	Santiago Atitlán	14	Cerro de Oro	4	Abril	2023-04-26T00:00:00	2024-11-08T21:00:00	8	Radiación solar	0
145465	7	Sololá	719	Santiago Atitlán	14	Cerro de Oro	4	Abril	2023-04-26T00:00:00	2024-11-08T22:00:00	2	Temperatura media	18.9
145466	7	Sololá	719	Santiago Atitlán	14	Cerro de Oro	4	Abril	2023-04-26T00:00:00	2024-11-08T22:00:00	4	Temperatura máxima	19.6
145467	7	Sololá	719	Santiago Atitlán	14	Cerro de Oro	4	Abril	2023-04-26T00:00:00	2024-11-08T22:00:00	3	Temperatura mínima	18.7
145468	7	Sololá	719	Santiago Atitlán	14	Cerro de Oro	4	Abril	2023-04-26T00:00:00	2024-11-08T22:00:00	5	Humedad	86
145469	7	Sololá	719	Santiago Atitlán	14	Cerro de Oro	4	Abril	2023-04-26T00:00:00	2024-11-08T22:00:00	6	Velocidad del viento	3.2
145470	7	Sololá	719	Santiago Atitlán	14	Cerro de Oro	4	Abril	2023-04-26T00:00:00	2024-11-08T22:00:00	7	Dirección del viento	3.22
145471	7	Sololá	719	Santiago Atitlán	14	Cerro de Oro	4	Abril	2023-04-26T00:00:00	2024-11-08T22:00:00	1	Precipitación	0
145472	7	Sololá	719	Santiago Atitlán	14	Cerro de Oro	4	Abril	2023-04-26T00:00:00	2024-11-08T22:00:00	8	Radiación solar	0
145473	7	Sololá	719	Santiago Atitlán	14	Cerro de Oro	4	Abril	2023-04-26T00:00:00	2024-11-08T23:00:00	2	Temperatura media	18.7
145474	7	Sololá	719	Santiago Atitlán	14	Cerro de Oro	4	Abril	2023-04-26T00:00:00	2024-11-08T23:00:00	4	Temperatura máxima	18.9
145475	7	Sololá	719	Santiago Atitlán	14	Cerro de Oro	4	Abril	2023-04-26T00:00:00	2024-11-08T23:00:00	3	Temperatura mínima	18.2
145476	7	Sololá	719	Santiago Atitlán	14	Cerro de Oro	4	Abril	2023-04-26T00:00:00	2024-11-08T23:00:00	5	Humedad	86
145477	7	Sololá	719	Santiago Atitlán	14	Cerro de Oro	4	Abril	2023-04-26T00:00:00	2024-11-08T23:00:00	6	Velocidad del viento	3.2
145478	7	Sololá	719	Santiago Atitlán	14	Cerro de Oro	4	Abril	2023-04-26T00:00:00	2024-11-08T23:00:00	7	Dirección del viento	3.22
145479	7	Sololá	719	Santiago Atitlán	14	Cerro de Oro	4	Abril	2023-04-26T00:00:00	2024-11-08T23:00:00	1	Precipitación	0
145480	7	Sololá	719	Santiago Atitlán	14	Cerro de Oro	4	Abril	2023-04-26T00:00:00	2024-11-08T23:00:00	8	Radiación solar	0
145481	7	Sololá	719	Santiago Atitlán	14	Cerro de Oro	4	Abril	2023-04-27T00:00:00	2024-11-08T00:00:00	2	Temperatura media	18.6
145482	7	Sololá	719	Santiago Atitlán	14	Cerro de Oro	4	Abril	2023-04-27T00:00:00	2024-11-08T00:00:00	4	Temperatura máxima	18.7
145483	7	Sololá	719	Santiago Atitlán	14	Cerro de Oro	4	Abril	2023-04-27T00:00:00	2024-11-08T00:00:00	3	Temperatura mínima	18.5
145484	7	Sololá	719	Santiago Atitlán	14	Cerro de Oro	4	Abril	2023-04-27T00:00:00	2024-11-08T00:00:00	5	Humedad	86
145485	7	Sololá	719	Santiago Atitlán	14	Cerro de Oro	4	Abril	2023-04-27T00:00:00	2024-11-08T00:00:00	6	Velocidad del viento	4.8
145486	7	Sololá	719	Santiago Atitlán	14	Cerro de Oro	4	Abril	2023-04-27T00:00:00	2024-11-08T00:00:00	7	Dirección del viento	4.83
145487	7	Sololá	719	Santiago Atitlán	14	Cerro de Oro	4	Abril	2023-04-27T00:00:00	2024-11-08T00:00:00	1	Precipitación	0
145488	7	Sololá	719	Santiago Atitlán	14	Cerro de Oro	4	Abril	2023-04-27T00:00:00	2024-11-08T00:00:00	8	Radiación solar	0
145489	7	Sololá	719	Santiago Atitlán	14	Cerro de Oro	4	Abril	2023-04-27T00:00:00	2024-11-08T01:00:00	2	Temperatura media	18.5
145490	7	Sololá	719	Santiago Atitlán	14	Cerro de Oro	4	Abril	2023-04-27T00:00:00	2024-11-08T01:00:00	4	Temperatura máxima	18.6
145491	7	Sololá	719	Santiago Atitlán	14	Cerro de Oro	4	Abril	2023-04-27T00:00:00	2024-11-08T01:00:00	3	Temperatura mínima	18.3
145492	7	Sololá	719	Santiago Atitlán	14	Cerro de Oro	4	Abril	2023-04-27T00:00:00	2024-11-08T01:00:00	5	Humedad	86
145493	7	Sololá	719	Santiago Atitlán	14	Cerro de Oro	4	Abril	2023-04-27T00:00:00	2024-11-08T01:00:00	6	Velocidad del viento	1.6
145494	7	Sololá	719	Santiago Atitlán	14	Cerro de Oro	4	Abril	2023-04-27T00:00:00	2024-11-08T01:00:00	7	Dirección del viento	1.61
145495	7	Sololá	719	Santiago Atitlán	14	Cerro de Oro	4	Abril	2023-04-27T00:00:00	2024-11-08T01:00:00	1	Precipitación	0
145496	7	Sololá	719	Santiago Atitlán	14	Cerro de Oro	4	Abril	2023-04-27T00:00:00	2024-11-08T01:00:00	8	Radiación solar	0
145497	7	Sololá	719	Santiago Atitlán	14	Cerro de Oro	4	Abril	2023-04-27T00:00:00	2024-11-08T02:00:00	2	Temperatura media	18.2
145498	7	Sololá	719	Santiago Atitlán	14	Cerro de Oro	4	Abril	2023-04-27T00:00:00	2024-11-08T02:00:00	4	Temperatura máxima	18.6
145499	7	Sololá	719	Santiago Atitlán	14	Cerro de Oro	4	Abril	2023-04-27T00:00:00	2024-11-08T02:00:00	3	Temperatura mínima	18.1
145500	7	Sololá	719	Santiago Atitlán	14	Cerro de Oro	4	Abril	2023-04-27T00:00:00	2024-11-08T02:00:00	5	Humedad	84
145501	7	Sololá	719	Santiago Atitlán	14	Cerro de Oro	4	Abril	2023-04-27T00:00:00	2024-11-08T02:00:00	6	Velocidad del viento	1.6
145502	7	Sololá	719	Santiago Atitlán	14	Cerro de Oro	4	Abril	2023-04-27T00:00:00	2024-11-08T02:00:00	7	Dirección del viento	1.61
145503	7	Sololá	719	Santiago Atitlán	14	Cerro de Oro	4	Abril	2023-04-27T00:00:00	2024-11-08T02:00:00	1	Precipitación	0
145504	7	Sololá	719	Santiago Atitlán	14	Cerro de Oro	4	Abril	2023-04-27T00:00:00	2024-11-08T02:00:00	8	Radiación solar	0
145505	7	Sololá	719	Santiago Atitlán	14	Cerro de Oro	4	Abril	2023-04-27T00:00:00	2024-11-08T03:00:00	2	Temperatura media	18
145506	7	Sololá	719	Santiago Atitlán	14	Cerro de Oro	4	Abril	2023-04-27T00:00:00	2024-11-08T03:00:00	4	Temperatura máxima	18.2
145507	7	Sololá	719	Santiago Atitlán	14	Cerro de Oro	4	Abril	2023-04-27T00:00:00	2024-11-08T03:00:00	3	Temperatura mínima	17.9
145508	7	Sololá	719	Santiago Atitlán	14	Cerro de Oro	4	Abril	2023-04-27T00:00:00	2024-11-08T03:00:00	5	Humedad	86
145509	7	Sololá	719	Santiago Atitlán	14	Cerro de Oro	4	Abril	2023-04-27T00:00:00	2024-11-08T03:00:00	6	Velocidad del viento	3.2
145510	7	Sololá	719	Santiago Atitlán	14	Cerro de Oro	4	Abril	2023-04-27T00:00:00	2024-11-08T03:00:00	7	Dirección del viento	3.22
145511	7	Sololá	719	Santiago Atitlán	14	Cerro de Oro	4	Abril	2023-04-27T00:00:00	2024-11-08T03:00:00	1	Precipitación	0
145512	7	Sololá	719	Santiago Atitlán	14	Cerro de Oro	4	Abril	2023-04-27T00:00:00	2024-11-08T03:00:00	8	Radiación solar	0
145513	7	Sololá	719	Santiago Atitlán	14	Cerro de Oro	4	Abril	2023-04-27T00:00:00	2024-11-08T04:00:00	2	Temperatura media	17.6
145514	7	Sololá	719	Santiago Atitlán	14	Cerro de Oro	4	Abril	2023-04-27T00:00:00	2024-11-08T04:00:00	4	Temperatura máxima	18.1
145515	7	Sololá	719	Santiago Atitlán	14	Cerro de Oro	4	Abril	2023-04-27T00:00:00	2024-11-08T04:00:00	3	Temperatura mínima	17.4
145516	7	Sololá	719	Santiago Atitlán	14	Cerro de Oro	4	Abril	2023-04-27T00:00:00	2024-11-08T04:00:00	5	Humedad	84
145517	7	Sololá	719	Santiago Atitlán	14	Cerro de Oro	4	Abril	2023-04-27T00:00:00	2024-11-08T04:00:00	6	Velocidad del viento	3.2
145518	7	Sololá	719	Santiago Atitlán	14	Cerro de Oro	4	Abril	2023-04-27T00:00:00	2024-11-08T04:00:00	7	Dirección del viento	3.22
145519	7	Sololá	719	Santiago Atitlán	14	Cerro de Oro	4	Abril	2023-04-27T00:00:00	2024-11-08T04:00:00	1	Precipitación	0
145520	7	Sololá	719	Santiago Atitlán	14	Cerro de Oro	4	Abril	2023-04-27T00:00:00	2024-11-08T04:00:00	8	Radiación solar	0
145521	7	Sololá	719	Santiago Atitlán	14	Cerro de Oro	4	Abril	2023-04-27T00:00:00	2024-11-08T05:00:00	2	Temperatura media	17.6
145522	7	Sololá	719	Santiago Atitlán	14	Cerro de Oro	4	Abril	2023-04-27T00:00:00	2024-11-08T05:00:00	4	Temperatura máxima	17.7
145523	7	Sololá	719	Santiago Atitlán	14	Cerro de Oro	4	Abril	2023-04-27T00:00:00	2024-11-08T05:00:00	3	Temperatura mínima	17.4
145524	7	Sololá	719	Santiago Atitlán	14	Cerro de Oro	4	Abril	2023-04-27T00:00:00	2024-11-08T05:00:00	5	Humedad	85
145525	7	Sololá	719	Santiago Atitlán	14	Cerro de Oro	4	Abril	2023-04-27T00:00:00	2024-11-08T05:00:00	6	Velocidad del viento	3.2
145526	7	Sololá	719	Santiago Atitlán	14	Cerro de Oro	4	Abril	2023-04-27T00:00:00	2024-11-08T05:00:00	7	Dirección del viento	3.22
145527	7	Sololá	719	Santiago Atitlán	14	Cerro de Oro	4	Abril	2023-04-27T00:00:00	2024-11-08T05:00:00	1	Precipitación	0
145528	7	Sololá	719	Santiago Atitlán	14	Cerro de Oro	4	Abril	2023-04-27T00:00:00	2024-11-08T05:00:00	8	Radiación solar	0
145529	7	Sololá	719	Santiago Atitlán	14	Cerro de Oro	4	Abril	2023-04-27T00:00:00	2024-11-08T06:00:00	2	Temperatura media	17.1
145530	7	Sololá	719	Santiago Atitlán	14	Cerro de Oro	4	Abril	2023-04-27T00:00:00	2024-11-08T06:00:00	4	Temperatura máxima	17.6
145531	7	Sololá	719	Santiago Atitlán	14	Cerro de Oro	4	Abril	2023-04-27T00:00:00	2024-11-08T06:00:00	3	Temperatura mínima	17.1
145532	7	Sololá	719	Santiago Atitlán	14	Cerro de Oro	4	Abril	2023-04-27T00:00:00	2024-11-08T06:00:00	5	Humedad	89
145533	7	Sololá	719	Santiago Atitlán	14	Cerro de Oro	4	Abril	2023-04-27T00:00:00	2024-11-08T06:00:00	6	Velocidad del viento	3.2
145534	7	Sololá	719	Santiago Atitlán	14	Cerro de Oro	4	Abril	2023-04-27T00:00:00	2024-11-08T06:00:00	7	Dirección del viento	3.22
145535	7	Sololá	719	Santiago Atitlán	14	Cerro de Oro	4	Abril	2023-04-27T00:00:00	2024-11-08T06:00:00	1	Precipitación	0
145536	7	Sololá	719	Santiago Atitlán	14	Cerro de Oro	4	Abril	2023-04-27T00:00:00	2024-11-08T06:00:00	8	Radiación solar	2
145537	7	Sololá	719	Santiago Atitlán	14	Cerro de Oro	4	Abril	2023-04-27T00:00:00	2024-11-08T07:00:00	2	Temperatura media	17.2
145538	7	Sololá	719	Santiago Atitlán	14	Cerro de Oro	4	Abril	2023-04-27T00:00:00	2024-11-08T07:00:00	4	Temperatura máxima	17.3
145539	7	Sololá	719	Santiago Atitlán	14	Cerro de Oro	4	Abril	2023-04-27T00:00:00	2024-11-08T07:00:00	3	Temperatura mínima	17.1
145540	7	Sololá	719	Santiago Atitlán	14	Cerro de Oro	4	Abril	2023-04-27T00:00:00	2024-11-08T07:00:00	5	Humedad	86
145541	7	Sololá	719	Santiago Atitlán	14	Cerro de Oro	4	Abril	2023-04-27T00:00:00	2024-11-08T07:00:00	6	Velocidad del viento	3.2
145542	7	Sololá	719	Santiago Atitlán	14	Cerro de Oro	4	Abril	2023-04-27T00:00:00	2024-11-08T07:00:00	7	Dirección del viento	3.22
145543	7	Sololá	719	Santiago Atitlán	14	Cerro de Oro	4	Abril	2023-04-27T00:00:00	2024-11-08T07:00:00	1	Precipitación	0
145544	7	Sololá	719	Santiago Atitlán	14	Cerro de Oro	4	Abril	2023-04-27T00:00:00	2024-11-08T07:00:00	8	Radiación solar	80
145545	7	Sololá	719	Santiago Atitlán	14	Cerro de Oro	4	Abril	2023-04-27T00:00:00	2024-11-08T08:00:00	2	Temperatura media	18.4
145546	7	Sololá	719	Santiago Atitlán	14	Cerro de Oro	4	Abril	2023-04-27T00:00:00	2024-11-08T08:00:00	4	Temperatura máxima	18.4
145547	7	Sololá	719	Santiago Atitlán	14	Cerro de Oro	4	Abril	2023-04-27T00:00:00	2024-11-08T08:00:00	3	Temperatura mínima	17.2
145548	7	Sololá	719	Santiago Atitlán	14	Cerro de Oro	4	Abril	2023-04-27T00:00:00	2024-11-08T08:00:00	5	Humedad	81
145549	7	Sololá	719	Santiago Atitlán	14	Cerro de Oro	4	Abril	2023-04-27T00:00:00	2024-11-08T08:00:00	6	Velocidad del viento	3.2
145550	7	Sololá	719	Santiago Atitlán	14	Cerro de Oro	4	Abril	2023-04-27T00:00:00	2024-11-08T08:00:00	7	Dirección del viento	3.22
145551	7	Sololá	719	Santiago Atitlán	14	Cerro de Oro	4	Abril	2023-04-27T00:00:00	2024-11-08T08:00:00	1	Precipitación	0
145552	7	Sololá	719	Santiago Atitlán	14	Cerro de Oro	4	Abril	2023-04-27T00:00:00	2024-11-08T08:00:00	8	Radiación solar	279
145553	7	Sololá	719	Santiago Atitlán	14	Cerro de Oro	4	Abril	2023-04-27T00:00:00	2024-11-08T09:00:00	2	Temperatura media	20.4
145554	7	Sololá	719	Santiago Atitlán	14	Cerro de Oro	4	Abril	2023-04-27T00:00:00	2024-11-08T09:00:00	4	Temperatura máxima	20.4
145555	7	Sololá	719	Santiago Atitlán	14	Cerro de Oro	4	Abril	2023-04-27T00:00:00	2024-11-08T09:00:00	3	Temperatura mínima	18.4
145556	7	Sololá	719	Santiago Atitlán	14	Cerro de Oro	4	Abril	2023-04-27T00:00:00	2024-11-08T09:00:00	5	Humedad	78
145557	7	Sololá	719	Santiago Atitlán	14	Cerro de Oro	4	Abril	2023-04-27T00:00:00	2024-11-08T09:00:00	6	Velocidad del viento	1.6
145558	7	Sololá	719	Santiago Atitlán	14	Cerro de Oro	4	Abril	2023-04-27T00:00:00	2024-11-08T09:00:00	7	Dirección del viento	1.61
145559	7	Sololá	719	Santiago Atitlán	14	Cerro de Oro	4	Abril	2023-04-27T00:00:00	2024-11-08T09:00:00	1	Precipitación	0
145560	7	Sololá	719	Santiago Atitlán	14	Cerro de Oro	4	Abril	2023-04-27T00:00:00	2024-11-08T09:00:00	8	Radiación solar	490
145561	7	Sololá	719	Santiago Atitlán	14	Cerro de Oro	4	Abril	2023-04-27T00:00:00	2024-11-08T10:00:00	2	Temperatura media	20.9
145562	7	Sololá	719	Santiago Atitlán	14	Cerro de Oro	4	Abril	2023-04-27T00:00:00	2024-11-08T10:00:00	4	Temperatura máxima	20.9
145563	7	Sololá	719	Santiago Atitlán	14	Cerro de Oro	4	Abril	2023-04-27T00:00:00	2024-11-08T10:00:00	3	Temperatura mínima	20.1
145564	7	Sololá	719	Santiago Atitlán	14	Cerro de Oro	4	Abril	2023-04-27T00:00:00	2024-11-08T10:00:00	5	Humedad	80
145565	7	Sololá	719	Santiago Atitlán	14	Cerro de Oro	4	Abril	2023-04-27T00:00:00	2024-11-08T10:00:00	6	Velocidad del viento	4.8
145566	7	Sololá	719	Santiago Atitlán	14	Cerro de Oro	4	Abril	2023-04-27T00:00:00	2024-11-08T10:00:00	7	Dirección del viento	4.83
145567	7	Sololá	719	Santiago Atitlán	14	Cerro de Oro	4	Abril	2023-04-27T00:00:00	2024-11-08T10:00:00	1	Precipitación	0
145568	7	Sololá	719	Santiago Atitlán	14	Cerro de Oro	4	Abril	2023-04-27T00:00:00	2024-11-08T10:00:00	8	Radiación solar	688
145569	7	Sololá	719	Santiago Atitlán	14	Cerro de Oro	4	Abril	2023-04-27T00:00:00	2024-11-08T11:00:00	2	Temperatura media	22.4
145570	7	Sololá	719	Santiago Atitlán	14	Cerro de Oro	4	Abril	2023-04-27T00:00:00	2024-11-08T11:00:00	4	Temperatura máxima	22.4
145571	7	Sololá	719	Santiago Atitlán	14	Cerro de Oro	4	Abril	2023-04-27T00:00:00	2024-11-08T11:00:00	3	Temperatura mínima	20.9
145572	7	Sololá	719	Santiago Atitlán	14	Cerro de Oro	4	Abril	2023-04-27T00:00:00	2024-11-08T11:00:00	5	Humedad	74
145573	7	Sololá	719	Santiago Atitlán	14	Cerro de Oro	4	Abril	2023-04-27T00:00:00	2024-11-08T11:00:00	6	Velocidad del viento	4.8
145574	7	Sololá	719	Santiago Atitlán	14	Cerro de Oro	4	Abril	2023-04-27T00:00:00	2024-11-08T11:00:00	7	Dirección del viento	4.83
145575	7	Sololá	719	Santiago Atitlán	14	Cerro de Oro	4	Abril	2023-04-27T00:00:00	2024-11-08T11:00:00	1	Precipitación	0
145576	7	Sololá	719	Santiago Atitlán	14	Cerro de Oro	4	Abril	2023-04-27T00:00:00	2024-11-08T11:00:00	8	Radiación solar	820
145577	7	Sololá	719	Santiago Atitlán	14	Cerro de Oro	4	Abril	2023-04-27T00:00:00	2024-11-08T12:00:00	2	Temperatura media	23.6
145578	7	Sololá	719	Santiago Atitlán	14	Cerro de Oro	4	Abril	2023-04-27T00:00:00	2024-11-08T12:00:00	4	Temperatura máxima	23.6
145579	7	Sololá	719	Santiago Atitlán	14	Cerro de Oro	4	Abril	2023-04-27T00:00:00	2024-11-08T12:00:00	3	Temperatura mínima	22.4
145580	7	Sololá	719	Santiago Atitlán	14	Cerro de Oro	4	Abril	2023-04-27T00:00:00	2024-11-08T12:00:00	5	Humedad	71
145581	7	Sololá	719	Santiago Atitlán	14	Cerro de Oro	4	Abril	2023-04-27T00:00:00	2024-11-08T12:00:00	6	Velocidad del viento	4.8
145582	7	Sololá	719	Santiago Atitlán	14	Cerro de Oro	4	Abril	2023-04-27T00:00:00	2024-11-08T12:00:00	7	Dirección del viento	4.83
145583	7	Sololá	719	Santiago Atitlán	14	Cerro de Oro	4	Abril	2023-04-27T00:00:00	2024-11-08T12:00:00	1	Precipitación	0
145584	7	Sololá	719	Santiago Atitlán	14	Cerro de Oro	4	Abril	2023-04-27T00:00:00	2024-11-08T12:00:00	8	Radiación solar	763
145585	7	Sololá	719	Santiago Atitlán	14	Cerro de Oro	4	Abril	2023-04-27T00:00:00	2024-11-08T13:00:00	2	Temperatura media	22.6
145586	7	Sololá	719	Santiago Atitlán	14	Cerro de Oro	4	Abril	2023-04-27T00:00:00	2024-11-08T13:00:00	4	Temperatura máxima	24.6
145587	7	Sololá	719	Santiago Atitlán	14	Cerro de Oro	4	Abril	2023-04-27T00:00:00	2024-11-08T13:00:00	3	Temperatura mínima	22.6
145588	7	Sololá	719	Santiago Atitlán	14	Cerro de Oro	4	Abril	2023-04-27T00:00:00	2024-11-08T13:00:00	5	Humedad	77
145589	7	Sololá	719	Santiago Atitlán	14	Cerro de Oro	4	Abril	2023-04-27T00:00:00	2024-11-08T13:00:00	6	Velocidad del viento	9.7
145590	7	Sololá	719	Santiago Atitlán	14	Cerro de Oro	4	Abril	2023-04-27T00:00:00	2024-11-08T13:00:00	7	Dirección del viento	9.66
145591	7	Sololá	719	Santiago Atitlán	14	Cerro de Oro	4	Abril	2023-04-27T00:00:00	2024-11-08T13:00:00	1	Precipitación	0
145592	7	Sololá	719	Santiago Atitlán	14	Cerro de Oro	4	Abril	2023-04-27T00:00:00	2024-11-08T13:00:00	8	Radiación solar	651
145593	7	Sololá	719	Santiago Atitlán	14	Cerro de Oro	4	Abril	2023-04-27T00:00:00	2024-11-08T14:00:00	2	Temperatura media	22.9
145594	7	Sololá	719	Santiago Atitlán	14	Cerro de Oro	4	Abril	2023-04-27T00:00:00	2024-11-08T14:00:00	4	Temperatura máxima	23.7
145595	7	Sololá	719	Santiago Atitlán	14	Cerro de Oro	4	Abril	2023-04-27T00:00:00	2024-11-08T14:00:00	3	Temperatura mínima	22.4
145596	7	Sololá	719	Santiago Atitlán	14	Cerro de Oro	4	Abril	2023-04-27T00:00:00	2024-11-08T14:00:00	5	Humedad	76
145597	7	Sololá	719	Santiago Atitlán	14	Cerro de Oro	4	Abril	2023-04-27T00:00:00	2024-11-08T14:00:00	6	Velocidad del viento	12.9
145598	7	Sololá	719	Santiago Atitlán	14	Cerro de Oro	4	Abril	2023-04-27T00:00:00	2024-11-08T14:00:00	7	Dirección del viento	12.87
145599	7	Sololá	719	Santiago Atitlán	14	Cerro de Oro	4	Abril	2023-04-27T00:00:00	2024-11-08T14:00:00	1	Precipitación	0
145600	7	Sololá	719	Santiago Atitlán	14	Cerro de Oro	4	Abril	2023-04-27T00:00:00	2024-11-08T14:00:00	8	Radiación solar	366
145601	7	Sololá	719	Santiago Atitlán	14	Cerro de Oro	4	Abril	2023-04-27T00:00:00	2024-11-08T15:00:00	2	Temperatura media	22.3
145602	7	Sololá	719	Santiago Atitlán	14	Cerro de Oro	4	Abril	2023-04-27T00:00:00	2024-11-08T15:00:00	4	Temperatura máxima	23.6
145603	7	Sololá	719	Santiago Atitlán	14	Cerro de Oro	4	Abril	2023-04-27T00:00:00	2024-11-08T15:00:00	3	Temperatura mínima	22.3
145604	7	Sololá	719	Santiago Atitlán	14	Cerro de Oro	4	Abril	2023-04-27T00:00:00	2024-11-08T15:00:00	5	Humedad	77
145605	7	Sololá	719	Santiago Atitlán	14	Cerro de Oro	4	Abril	2023-04-27T00:00:00	2024-11-08T15:00:00	6	Velocidad del viento	11.3
145606	7	Sololá	719	Santiago Atitlán	14	Cerro de Oro	4	Abril	2023-04-27T00:00:00	2024-11-08T15:00:00	7	Dirección del viento	11.27
145607	7	Sololá	719	Santiago Atitlán	14	Cerro de Oro	4	Abril	2023-04-27T00:00:00	2024-11-08T15:00:00	1	Precipitación	0
145608	7	Sololá	719	Santiago Atitlán	14	Cerro de Oro	4	Abril	2023-04-27T00:00:00	2024-11-08T15:00:00	8	Radiación solar	140
145609	7	Sololá	719	Santiago Atitlán	14	Cerro de Oro	4	Abril	2023-04-27T00:00:00	2024-11-08T16:00:00	2	Temperatura media	21.9
145610	7	Sololá	719	Santiago Atitlán	14	Cerro de Oro	4	Abril	2023-04-27T00:00:00	2024-11-08T16:00:00	4	Temperatura máxima	22.4
145611	7	Sololá	719	Santiago Atitlán	14	Cerro de Oro	4	Abril	2023-04-27T00:00:00	2024-11-08T16:00:00	3	Temperatura mínima	21.7
145612	7	Sololá	719	Santiago Atitlán	14	Cerro de Oro	4	Abril	2023-04-27T00:00:00	2024-11-08T16:00:00	5	Humedad	78
145613	7	Sololá	719	Santiago Atitlán	14	Cerro de Oro	4	Abril	2023-04-27T00:00:00	2024-11-08T16:00:00	6	Velocidad del viento	11.3
145614	7	Sololá	719	Santiago Atitlán	14	Cerro de Oro	4	Abril	2023-04-27T00:00:00	2024-11-08T16:00:00	7	Dirección del viento	11.27
145615	7	Sololá	719	Santiago Atitlán	14	Cerro de Oro	4	Abril	2023-04-27T00:00:00	2024-11-08T16:00:00	1	Precipitación	0
145616	7	Sololá	719	Santiago Atitlán	14	Cerro de Oro	4	Abril	2023-04-27T00:00:00	2024-11-08T16:00:00	8	Radiación solar	169
145617	7	Sololá	719	Santiago Atitlán	14	Cerro de Oro	4	Abril	2023-04-27T00:00:00	2024-11-08T17:00:00	2	Temperatura media	21
145618	7	Sololá	719	Santiago Atitlán	14	Cerro de Oro	4	Abril	2023-04-27T00:00:00	2024-11-08T17:00:00	4	Temperatura máxima	22
145619	7	Sololá	719	Santiago Atitlán	14	Cerro de Oro	4	Abril	2023-04-27T00:00:00	2024-11-08T17:00:00	3	Temperatura mínima	21
145620	7	Sololá	719	Santiago Atitlán	14	Cerro de Oro	4	Abril	2023-04-27T00:00:00	2024-11-08T17:00:00	5	Humedad	82
145621	7	Sololá	719	Santiago Atitlán	14	Cerro de Oro	4	Abril	2023-04-27T00:00:00	2024-11-08T17:00:00	6	Velocidad del viento	11.3
145622	7	Sololá	719	Santiago Atitlán	14	Cerro de Oro	4	Abril	2023-04-27T00:00:00	2024-11-08T17:00:00	7	Dirección del viento	11.27
145623	7	Sololá	719	Santiago Atitlán	14	Cerro de Oro	4	Abril	2023-04-27T00:00:00	2024-11-08T17:00:00	1	Precipitación	0
145624	7	Sololá	719	Santiago Atitlán	14	Cerro de Oro	4	Abril	2023-04-27T00:00:00	2024-11-08T17:00:00	8	Radiación solar	36
145625	7	Sololá	719	Santiago Atitlán	14	Cerro de Oro	4	Abril	2023-04-27T00:00:00	2024-11-08T18:00:00	2	Temperatura media	19.4
145626	7	Sololá	719	Santiago Atitlán	14	Cerro de Oro	4	Abril	2023-04-27T00:00:00	2024-11-08T18:00:00	4	Temperatura máxima	21
145627	7	Sololá	719	Santiago Atitlán	14	Cerro de Oro	4	Abril	2023-04-27T00:00:00	2024-11-08T18:00:00	3	Temperatura mínima	19.4
145628	7	Sololá	719	Santiago Atitlán	14	Cerro de Oro	4	Abril	2023-04-27T00:00:00	2024-11-08T18:00:00	5	Humedad	90
145629	7	Sololá	719	Santiago Atitlán	14	Cerro de Oro	4	Abril	2023-04-27T00:00:00	2024-11-08T18:00:00	6	Velocidad del viento	11.3
145630	7	Sololá	719	Santiago Atitlán	14	Cerro de Oro	4	Abril	2023-04-27T00:00:00	2024-11-08T18:00:00	7	Dirección del viento	11.27
145631	7	Sololá	719	Santiago Atitlán	14	Cerro de Oro	4	Abril	2023-04-27T00:00:00	2024-11-08T18:00:00	1	Precipitación	0
145632	7	Sololá	719	Santiago Atitlán	14	Cerro de Oro	4	Abril	2023-04-27T00:00:00	2024-11-08T18:00:00	8	Radiación solar	10
145633	7	Sololá	719	Santiago Atitlán	14	Cerro de Oro	4	Abril	2023-04-27T00:00:00	2024-11-08T19:00:00	2	Temperatura media	18.9
145634	7	Sololá	719	Santiago Atitlán	14	Cerro de Oro	4	Abril	2023-04-27T00:00:00	2024-11-08T19:00:00	4	Temperatura máxima	19.4
145635	7	Sololá	719	Santiago Atitlán	14	Cerro de Oro	4	Abril	2023-04-27T00:00:00	2024-11-08T19:00:00	3	Temperatura mínima	18.9
145636	7	Sololá	719	Santiago Atitlán	14	Cerro de Oro	4	Abril	2023-04-27T00:00:00	2024-11-08T19:00:00	5	Humedad	90
145637	7	Sololá	719	Santiago Atitlán	14	Cerro de Oro	4	Abril	2023-04-27T00:00:00	2024-11-08T19:00:00	6	Velocidad del viento	4.8
145638	7	Sololá	719	Santiago Atitlán	14	Cerro de Oro	4	Abril	2023-04-27T00:00:00	2024-11-08T19:00:00	7	Dirección del viento	4.83
145639	7	Sololá	719	Santiago Atitlán	14	Cerro de Oro	4	Abril	2023-04-27T00:00:00	2024-11-08T19:00:00	1	Precipitación	0
145640	7	Sololá	719	Santiago Atitlán	14	Cerro de Oro	4	Abril	2023-04-27T00:00:00	2024-11-08T19:00:00	8	Radiación solar	0
145641	7	Sololá	719	Santiago Atitlán	14	Cerro de Oro	4	Abril	2023-04-27T00:00:00	2024-11-08T20:00:00	2	Temperatura media	19.1
145642	7	Sololá	719	Santiago Atitlán	14	Cerro de Oro	4	Abril	2023-04-27T00:00:00	2024-11-08T20:00:00	4	Temperatura máxima	19.1
145643	7	Sololá	719	Santiago Atitlán	14	Cerro de Oro	4	Abril	2023-04-27T00:00:00	2024-11-08T20:00:00	3	Temperatura mínima	18.8
145644	7	Sololá	719	Santiago Atitlán	14	Cerro de Oro	4	Abril	2023-04-27T00:00:00	2024-11-08T20:00:00	5	Humedad	90
145645	7	Sololá	719	Santiago Atitlán	14	Cerro de Oro	4	Abril	2023-04-27T00:00:00	2024-11-08T20:00:00	6	Velocidad del viento	3.2
145646	7	Sololá	719	Santiago Atitlán	14	Cerro de Oro	4	Abril	2023-04-27T00:00:00	2024-11-08T20:00:00	7	Dirección del viento	3.22
145647	7	Sololá	719	Santiago Atitlán	14	Cerro de Oro	4	Abril	2023-04-27T00:00:00	2024-11-08T20:00:00	1	Precipitación	0
145648	7	Sololá	719	Santiago Atitlán	14	Cerro de Oro	4	Abril	2023-04-27T00:00:00	2024-11-08T20:00:00	8	Radiación solar	0
145649	7	Sololá	719	Santiago Atitlán	14	Cerro de Oro	4	Abril	2023-04-27T00:00:00	2024-11-08T21:00:00	2	Temperatura media	19.2
145650	7	Sololá	719	Santiago Atitlán	14	Cerro de Oro	4	Abril	2023-04-27T00:00:00	2024-11-08T21:00:00	4	Temperatura máxima	19.5
145651	7	Sololá	719	Santiago Atitlán	14	Cerro de Oro	4	Abril	2023-04-27T00:00:00	2024-11-08T21:00:00	3	Temperatura mínima	19
145652	7	Sololá	719	Santiago Atitlán	14	Cerro de Oro	4	Abril	2023-04-27T00:00:00	2024-11-08T21:00:00	5	Humedad	87
145653	7	Sololá	719	Santiago Atitlán	14	Cerro de Oro	4	Abril	2023-04-27T00:00:00	2024-11-08T21:00:00	6	Velocidad del viento	8
145654	7	Sololá	719	Santiago Atitlán	14	Cerro de Oro	4	Abril	2023-04-27T00:00:00	2024-11-08T21:00:00	7	Dirección del viento	8.05
145655	7	Sololá	719	Santiago Atitlán	14	Cerro de Oro	4	Abril	2023-04-27T00:00:00	2024-11-08T21:00:00	1	Precipitación	0
145656	7	Sololá	719	Santiago Atitlán	14	Cerro de Oro	4	Abril	2023-04-27T00:00:00	2024-11-08T21:00:00	8	Radiación solar	0
145657	7	Sololá	719	Santiago Atitlán	14	Cerro de Oro	4	Abril	2023-04-27T00:00:00	2024-11-08T22:00:00	2	Temperatura media	18.8
145658	7	Sololá	719	Santiago Atitlán	14	Cerro de Oro	4	Abril	2023-04-27T00:00:00	2024-11-08T22:00:00	4	Temperatura máxima	19.2
145659	7	Sololá	719	Santiago Atitlán	14	Cerro de Oro	4	Abril	2023-04-27T00:00:00	2024-11-08T22:00:00	3	Temperatura mínima	18.7
145660	7	Sololá	719	Santiago Atitlán	14	Cerro de Oro	4	Abril	2023-04-27T00:00:00	2024-11-08T22:00:00	5	Humedad	88
145661	7	Sololá	719	Santiago Atitlán	14	Cerro de Oro	4	Abril	2023-04-27T00:00:00	2024-11-08T22:00:00	6	Velocidad del viento	4.8
145662	7	Sololá	719	Santiago Atitlán	14	Cerro de Oro	4	Abril	2023-04-27T00:00:00	2024-11-08T22:00:00	7	Dirección del viento	4.83
145663	7	Sololá	719	Santiago Atitlán	14	Cerro de Oro	4	Abril	2023-04-27T00:00:00	2024-11-08T22:00:00	1	Precipitación	0
145664	7	Sololá	719	Santiago Atitlán	14	Cerro de Oro	4	Abril	2023-04-27T00:00:00	2024-11-08T22:00:00	8	Radiación solar	0
145665	7	Sololá	719	Santiago Atitlán	14	Cerro de Oro	4	Abril	2023-04-27T00:00:00	2024-11-08T23:00:00	2	Temperatura media	18.7
145666	7	Sololá	719	Santiago Atitlán	14	Cerro de Oro	4	Abril	2023-04-27T00:00:00	2024-11-08T23:00:00	4	Temperatura máxima	18.9
145667	7	Sololá	719	Santiago Atitlán	14	Cerro de Oro	4	Abril	2023-04-27T00:00:00	2024-11-08T23:00:00	3	Temperatura mínima	18.6
145668	7	Sololá	719	Santiago Atitlán	14	Cerro de Oro	4	Abril	2023-04-27T00:00:00	2024-11-08T23:00:00	5	Humedad	87
145669	7	Sololá	719	Santiago Atitlán	14	Cerro de Oro	4	Abril	2023-04-27T00:00:00	2024-11-08T23:00:00	6	Velocidad del viento	3.2
145670	7	Sololá	719	Santiago Atitlán	14	Cerro de Oro	4	Abril	2023-04-27T00:00:00	2024-11-08T23:00:00	7	Dirección del viento	3.22
145671	7	Sololá	719	Santiago Atitlán	14	Cerro de Oro	4	Abril	2023-04-27T00:00:00	2024-11-08T23:00:00	1	Precipitación	0
145672	7	Sololá	719	Santiago Atitlán	14	Cerro de Oro	4	Abril	2023-04-27T00:00:00	2024-11-08T23:00:00	8	Radiación solar	0
145673	7	Sololá	719	Santiago Atitlán	14	Cerro de Oro	4	Abril	2023-04-28T00:00:00	2024-11-08T00:00:00	2	Temperatura media	18
145674	7	Sololá	719	Santiago Atitlán	14	Cerro de Oro	4	Abril	2023-04-28T00:00:00	2024-11-08T00:00:00	4	Temperatura máxima	18.7
145675	7	Sololá	719	Santiago Atitlán	14	Cerro de Oro	4	Abril	2023-04-28T00:00:00	2024-11-08T00:00:00	3	Temperatura mínima	17.9
145676	7	Sololá	719	Santiago Atitlán	14	Cerro de Oro	4	Abril	2023-04-28T00:00:00	2024-11-08T00:00:00	5	Humedad	90
145677	7	Sololá	719	Santiago Atitlán	14	Cerro de Oro	4	Abril	2023-04-28T00:00:00	2024-11-08T00:00:00	6	Velocidad del viento	3.2
145678	7	Sololá	719	Santiago Atitlán	14	Cerro de Oro	4	Abril	2023-04-28T00:00:00	2024-11-08T00:00:00	7	Dirección del viento	3.22
145679	7	Sololá	719	Santiago Atitlán	14	Cerro de Oro	4	Abril	2023-04-28T00:00:00	2024-11-08T00:00:00	1	Precipitación	0
145680	7	Sololá	719	Santiago Atitlán	14	Cerro de Oro	4	Abril	2023-04-28T00:00:00	2024-11-08T00:00:00	8	Radiación solar	0
145681	7	Sololá	719	Santiago Atitlán	14	Cerro de Oro	4	Abril	2023-04-28T00:00:00	2024-11-08T01:00:00	2	Temperatura media	18.4
145682	7	Sololá	719	Santiago Atitlán	14	Cerro de Oro	4	Abril	2023-04-28T00:00:00	2024-11-08T01:00:00	4	Temperatura máxima	18.6
145683	7	Sololá	719	Santiago Atitlán	14	Cerro de Oro	4	Abril	2023-04-28T00:00:00	2024-11-08T01:00:00	3	Temperatura mínima	18
145684	7	Sololá	719	Santiago Atitlán	14	Cerro de Oro	4	Abril	2023-04-28T00:00:00	2024-11-08T01:00:00	5	Humedad	88
145685	7	Sololá	719	Santiago Atitlán	14	Cerro de Oro	4	Abril	2023-04-28T00:00:00	2024-11-08T01:00:00	6	Velocidad del viento	3.2
145686	7	Sololá	719	Santiago Atitlán	14	Cerro de Oro	4	Abril	2023-04-28T00:00:00	2024-11-08T01:00:00	7	Dirección del viento	3.22
145687	7	Sololá	719	Santiago Atitlán	14	Cerro de Oro	4	Abril	2023-04-28T00:00:00	2024-11-08T01:00:00	1	Precipitación	0
145688	7	Sololá	719	Santiago Atitlán	14	Cerro de Oro	4	Abril	2023-04-28T00:00:00	2024-11-08T01:00:00	8	Radiación solar	0
145689	7	Sololá	719	Santiago Atitlán	14	Cerro de Oro	4	Abril	2023-04-28T00:00:00	2024-11-08T02:00:00	2	Temperatura media	18.7
145690	7	Sololá	719	Santiago Atitlán	14	Cerro de Oro	4	Abril	2023-04-28T00:00:00	2024-11-08T02:00:00	4	Temperatura máxima	18.8
145691	7	Sololá	719	Santiago Atitlán	14	Cerro de Oro	4	Abril	2023-04-28T00:00:00	2024-11-08T02:00:00	3	Temperatura mínima	18.3
145692	7	Sololá	719	Santiago Atitlán	14	Cerro de Oro	4	Abril	2023-04-28T00:00:00	2024-11-08T02:00:00	5	Humedad	87
145693	7	Sololá	719	Santiago Atitlán	14	Cerro de Oro	4	Abril	2023-04-28T00:00:00	2024-11-08T02:00:00	6	Velocidad del viento	3.2
145694	7	Sololá	719	Santiago Atitlán	14	Cerro de Oro	4	Abril	2023-04-28T00:00:00	2024-11-08T02:00:00	7	Dirección del viento	3.22
145695	7	Sololá	719	Santiago Atitlán	14	Cerro de Oro	4	Abril	2023-04-28T00:00:00	2024-11-08T02:00:00	1	Precipitación	0
145696	7	Sololá	719	Santiago Atitlán	14	Cerro de Oro	4	Abril	2023-04-28T00:00:00	2024-11-08T02:00:00	8	Radiación solar	0
145697	7	Sololá	719	Santiago Atitlán	14	Cerro de Oro	4	Abril	2023-04-28T00:00:00	2024-11-08T03:00:00	2	Temperatura media	18.1
145698	7	Sololá	719	Santiago Atitlán	14	Cerro de Oro	4	Abril	2023-04-28T00:00:00	2024-11-08T03:00:00	4	Temperatura máxima	18.7
145699	7	Sololá	719	Santiago Atitlán	14	Cerro de Oro	4	Abril	2023-04-28T00:00:00	2024-11-08T03:00:00	3	Temperatura mínima	17.9
145700	7	Sololá	719	Santiago Atitlán	14	Cerro de Oro	4	Abril	2023-04-28T00:00:00	2024-11-08T03:00:00	5	Humedad	89
145701	7	Sololá	719	Santiago Atitlán	14	Cerro de Oro	4	Abril	2023-04-28T00:00:00	2024-11-08T03:00:00	6	Velocidad del viento	3.2
145702	7	Sololá	719	Santiago Atitlán	14	Cerro de Oro	4	Abril	2023-04-28T00:00:00	2024-11-08T03:00:00	7	Dirección del viento	3.22
145703	7	Sololá	719	Santiago Atitlán	14	Cerro de Oro	4	Abril	2023-04-28T00:00:00	2024-11-08T03:00:00	1	Precipitación	0
145704	7	Sololá	719	Santiago Atitlán	14	Cerro de Oro	4	Abril	2023-04-28T00:00:00	2024-11-08T03:00:00	8	Radiación solar	0
145705	7	Sololá	719	Santiago Atitlán	14	Cerro de Oro	4	Abril	2023-04-28T00:00:00	2024-11-08T04:00:00	2	Temperatura media	18.1
145706	7	Sololá	719	Santiago Atitlán	14	Cerro de Oro	4	Abril	2023-04-28T00:00:00	2024-11-08T04:00:00	4	Temperatura máxima	18.3
145707	7	Sololá	719	Santiago Atitlán	14	Cerro de Oro	4	Abril	2023-04-28T00:00:00	2024-11-08T04:00:00	3	Temperatura mínima	17.7
145708	7	Sololá	719	Santiago Atitlán	14	Cerro de Oro	4	Abril	2023-04-28T00:00:00	2024-11-08T04:00:00	5	Humedad	88
145709	7	Sololá	719	Santiago Atitlán	14	Cerro de Oro	4	Abril	2023-04-28T00:00:00	2024-11-08T04:00:00	6	Velocidad del viento	4.8
145710	7	Sololá	719	Santiago Atitlán	14	Cerro de Oro	4	Abril	2023-04-28T00:00:00	2024-11-08T04:00:00	7	Dirección del viento	4.83
145711	7	Sololá	719	Santiago Atitlán	14	Cerro de Oro	4	Abril	2023-04-28T00:00:00	2024-11-08T04:00:00	1	Precipitación	0
145712	7	Sololá	719	Santiago Atitlán	14	Cerro de Oro	4	Abril	2023-04-28T00:00:00	2024-11-08T04:00:00	8	Radiación solar	0
145713	7	Sololá	719	Santiago Atitlán	14	Cerro de Oro	4	Abril	2023-04-28T00:00:00	2024-11-08T05:00:00	2	Temperatura media	17.7
145714	7	Sololá	719	Santiago Atitlán	14	Cerro de Oro	4	Abril	2023-04-28T00:00:00	2024-11-08T05:00:00	4	Temperatura máxima	18.1
145715	7	Sololá	719	Santiago Atitlán	14	Cerro de Oro	4	Abril	2023-04-28T00:00:00	2024-11-08T05:00:00	3	Temperatura mínima	17.7
145716	7	Sololá	719	Santiago Atitlán	14	Cerro de Oro	4	Abril	2023-04-28T00:00:00	2024-11-08T05:00:00	5	Humedad	89
145717	7	Sololá	719	Santiago Atitlán	14	Cerro de Oro	4	Abril	2023-04-28T00:00:00	2024-11-08T05:00:00	6	Velocidad del viento	3.2
145718	7	Sololá	719	Santiago Atitlán	14	Cerro de Oro	4	Abril	2023-04-28T00:00:00	2024-11-08T05:00:00	7	Dirección del viento	3.22
145719	7	Sololá	719	Santiago Atitlán	14	Cerro de Oro	4	Abril	2023-04-28T00:00:00	2024-11-08T05:00:00	1	Precipitación	0
145720	7	Sololá	719	Santiago Atitlán	14	Cerro de Oro	4	Abril	2023-04-28T00:00:00	2024-11-08T05:00:00	8	Radiación solar	0
145721	7	Sololá	719	Santiago Atitlán	14	Cerro de Oro	4	Abril	2023-04-28T00:00:00	2024-11-08T06:00:00	2	Temperatura media	17.8
145722	7	Sololá	719	Santiago Atitlán	14	Cerro de Oro	4	Abril	2023-04-28T00:00:00	2024-11-08T06:00:00	4	Temperatura máxima	18.1
145723	7	Sololá	719	Santiago Atitlán	14	Cerro de Oro	4	Abril	2023-04-28T00:00:00	2024-11-08T06:00:00	3	Temperatura mínima	17.7
145724	7	Sololá	719	Santiago Atitlán	14	Cerro de Oro	4	Abril	2023-04-28T00:00:00	2024-11-08T06:00:00	5	Humedad	90
145725	7	Sololá	719	Santiago Atitlán	14	Cerro de Oro	4	Abril	2023-04-28T00:00:00	2024-11-08T06:00:00	6	Velocidad del viento	4.8
145726	7	Sololá	719	Santiago Atitlán	14	Cerro de Oro	4	Abril	2023-04-28T00:00:00	2024-11-08T06:00:00	7	Dirección del viento	4.83
145727	7	Sololá	719	Santiago Atitlán	14	Cerro de Oro	4	Abril	2023-04-28T00:00:00	2024-11-08T06:00:00	1	Precipitación	0
145728	7	Sololá	719	Santiago Atitlán	14	Cerro de Oro	4	Abril	2023-04-28T00:00:00	2024-11-08T06:00:00	8	Radiación solar	1
145729	7	Sololá	719	Santiago Atitlán	14	Cerro de Oro	4	Abril	2023-04-28T00:00:00	2024-11-08T07:00:00	2	Temperatura media	18.2
145730	7	Sololá	719	Santiago Atitlán	14	Cerro de Oro	4	Abril	2023-04-28T00:00:00	2024-11-08T07:00:00	4	Temperatura máxima	18.3
145731	7	Sololá	719	Santiago Atitlán	14	Cerro de Oro	4	Abril	2023-04-28T00:00:00	2024-11-08T07:00:00	3	Temperatura mínima	17.8
145732	7	Sololá	719	Santiago Atitlán	14	Cerro de Oro	4	Abril	2023-04-28T00:00:00	2024-11-08T07:00:00	5	Humedad	88
145733	7	Sololá	719	Santiago Atitlán	14	Cerro de Oro	4	Abril	2023-04-28T00:00:00	2024-11-08T07:00:00	6	Velocidad del viento	3.2
145734	7	Sololá	719	Santiago Atitlán	14	Cerro de Oro	4	Abril	2023-04-28T00:00:00	2024-11-08T07:00:00	7	Dirección del viento	3.22
145735	7	Sololá	719	Santiago Atitlán	14	Cerro de Oro	4	Abril	2023-04-28T00:00:00	2024-11-08T07:00:00	1	Precipitación	0
145736	7	Sololá	719	Santiago Atitlán	14	Cerro de Oro	4	Abril	2023-04-28T00:00:00	2024-11-08T07:00:00	8	Radiación solar	79
145737	7	Sololá	719	Santiago Atitlán	14	Cerro de Oro	4	Abril	2023-04-28T00:00:00	2024-11-08T08:00:00	2	Temperatura media	19.4
145738	7	Sololá	719	Santiago Atitlán	14	Cerro de Oro	4	Abril	2023-04-28T00:00:00	2024-11-08T08:00:00	4	Temperatura máxima	19.4
145739	7	Sololá	719	Santiago Atitlán	14	Cerro de Oro	4	Abril	2023-04-28T00:00:00	2024-11-08T08:00:00	3	Temperatura mínima	18.3
145740	7	Sololá	719	Santiago Atitlán	14	Cerro de Oro	4	Abril	2023-04-28T00:00:00	2024-11-08T08:00:00	5	Humedad	81
145741	7	Sololá	719	Santiago Atitlán	14	Cerro de Oro	4	Abril	2023-04-28T00:00:00	2024-11-08T08:00:00	6	Velocidad del viento	1.6
145742	7	Sololá	719	Santiago Atitlán	14	Cerro de Oro	4	Abril	2023-04-28T00:00:00	2024-11-08T08:00:00	7	Dirección del viento	1.61
145743	7	Sololá	719	Santiago Atitlán	14	Cerro de Oro	4	Abril	2023-04-28T00:00:00	2024-11-08T08:00:00	1	Precipitación	0
145744	7	Sololá	719	Santiago Atitlán	14	Cerro de Oro	4	Abril	2023-04-28T00:00:00	2024-11-08T08:00:00	8	Radiación solar	272
145745	7	Sololá	719	Santiago Atitlán	14	Cerro de Oro	4	Abril	2023-04-28T00:00:00	2024-11-08T09:00:00	2	Temperatura media	20.7
145746	7	Sololá	719	Santiago Atitlán	14	Cerro de Oro	4	Abril	2023-04-28T00:00:00	2024-11-08T09:00:00	4	Temperatura máxima	20.7
145747	7	Sololá	719	Santiago Atitlán	14	Cerro de Oro	4	Abril	2023-04-28T00:00:00	2024-11-08T09:00:00	3	Temperatura mínima	19.4
145748	7	Sololá	719	Santiago Atitlán	14	Cerro de Oro	4	Abril	2023-04-28T00:00:00	2024-11-08T09:00:00	5	Humedad	78
145749	7	Sololá	719	Santiago Atitlán	14	Cerro de Oro	4	Abril	2023-04-28T00:00:00	2024-11-08T09:00:00	6	Velocidad del viento	3.2
145750	7	Sololá	719	Santiago Atitlán	14	Cerro de Oro	4	Abril	2023-04-28T00:00:00	2024-11-08T09:00:00	7	Dirección del viento	3.22
145751	7	Sololá	719	Santiago Atitlán	14	Cerro de Oro	4	Abril	2023-04-28T00:00:00	2024-11-08T09:00:00	1	Precipitación	0
145752	7	Sololá	719	Santiago Atitlán	14	Cerro de Oro	4	Abril	2023-04-28T00:00:00	2024-11-08T09:00:00	8	Radiación solar	487
145753	7	Sololá	719	Santiago Atitlán	14	Cerro de Oro	4	Abril	2023-04-28T00:00:00	2024-11-08T10:00:00	2	Temperatura media	21.6
145754	7	Sololá	719	Santiago Atitlán	14	Cerro de Oro	4	Abril	2023-04-28T00:00:00	2024-11-08T10:00:00	4	Temperatura máxima	21.6
145755	7	Sololá	719	Santiago Atitlán	14	Cerro de Oro	4	Abril	2023-04-28T00:00:00	2024-11-08T10:00:00	3	Temperatura mínima	20.7
145756	7	Sololá	719	Santiago Atitlán	14	Cerro de Oro	4	Abril	2023-04-28T00:00:00	2024-11-08T10:00:00	5	Humedad	77
145757	7	Sololá	719	Santiago Atitlán	14	Cerro de Oro	4	Abril	2023-04-28T00:00:00	2024-11-08T10:00:00	6	Velocidad del viento	4.8
145758	7	Sololá	719	Santiago Atitlán	14	Cerro de Oro	4	Abril	2023-04-28T00:00:00	2024-11-08T10:00:00	7	Dirección del viento	4.83
145759	7	Sololá	719	Santiago Atitlán	14	Cerro de Oro	4	Abril	2023-04-28T00:00:00	2024-11-08T10:00:00	1	Precipitación	0
145760	7	Sololá	719	Santiago Atitlán	14	Cerro de Oro	4	Abril	2023-04-28T00:00:00	2024-11-08T10:00:00	8	Radiación solar	671
145761	7	Sololá	719	Santiago Atitlán	14	Cerro de Oro	4	Abril	2023-04-28T00:00:00	2024-11-08T11:00:00	2	Temperatura media	22.6
145762	7	Sololá	719	Santiago Atitlán	14	Cerro de Oro	4	Abril	2023-04-28T00:00:00	2024-11-08T11:00:00	4	Temperatura máxima	22.7
145763	7	Sololá	719	Santiago Atitlán	14	Cerro de Oro	4	Abril	2023-04-28T00:00:00	2024-11-08T11:00:00	3	Temperatura mínima	21.6
145764	7	Sololá	719	Santiago Atitlán	14	Cerro de Oro	4	Abril	2023-04-28T00:00:00	2024-11-08T11:00:00	5	Humedad	73
145765	7	Sololá	719	Santiago Atitlán	14	Cerro de Oro	4	Abril	2023-04-28T00:00:00	2024-11-08T11:00:00	6	Velocidad del viento	4.8
145766	7	Sololá	719	Santiago Atitlán	14	Cerro de Oro	4	Abril	2023-04-28T00:00:00	2024-11-08T11:00:00	7	Dirección del viento	4.83
145767	7	Sololá	719	Santiago Atitlán	14	Cerro de Oro	4	Abril	2023-04-28T00:00:00	2024-11-08T11:00:00	1	Precipitación	0
145768	7	Sololá	719	Santiago Atitlán	14	Cerro de Oro	4	Abril	2023-04-28T00:00:00	2024-11-08T11:00:00	8	Radiación solar	818
145769	7	Sololá	719	Santiago Atitlán	14	Cerro de Oro	4	Abril	2023-04-28T00:00:00	2024-11-08T12:00:00	2	Temperatura media	23.2
145770	7	Sololá	719	Santiago Atitlán	14	Cerro de Oro	4	Abril	2023-04-28T00:00:00	2024-11-08T12:00:00	4	Temperatura máxima	23.5
145771	7	Sololá	719	Santiago Atitlán	14	Cerro de Oro	4	Abril	2023-04-28T00:00:00	2024-11-08T12:00:00	3	Temperatura mínima	22.3
145772	7	Sololá	719	Santiago Atitlán	14	Cerro de Oro	4	Abril	2023-04-28T00:00:00	2024-11-08T12:00:00	5	Humedad	76
145773	7	Sololá	719	Santiago Atitlán	14	Cerro de Oro	4	Abril	2023-04-28T00:00:00	2024-11-08T12:00:00	6	Velocidad del viento	8
145774	7	Sololá	719	Santiago Atitlán	14	Cerro de Oro	4	Abril	2023-04-28T00:00:00	2024-11-08T12:00:00	7	Dirección del viento	8.05
145775	7	Sololá	719	Santiago Atitlán	14	Cerro de Oro	4	Abril	2023-04-28T00:00:00	2024-11-08T12:00:00	1	Precipitación	0
145776	7	Sololá	719	Santiago Atitlán	14	Cerro de Oro	4	Abril	2023-04-28T00:00:00	2024-11-08T12:00:00	8	Radiación solar	869
145777	7	Sololá	719	Santiago Atitlán	14	Cerro de Oro	4	Abril	2023-04-28T00:00:00	2024-11-08T13:00:00	2	Temperatura media	23.4
145778	7	Sololá	719	Santiago Atitlán	14	Cerro de Oro	4	Abril	2023-04-28T00:00:00	2024-11-08T13:00:00	4	Temperatura máxima	23.5
145779	7	Sololá	719	Santiago Atitlán	14	Cerro de Oro	4	Abril	2023-04-28T00:00:00	2024-11-08T13:00:00	3	Temperatura mínima	22.8
145780	7	Sololá	719	Santiago Atitlán	14	Cerro de Oro	4	Abril	2023-04-28T00:00:00	2024-11-08T13:00:00	5	Humedad	74
145781	7	Sololá	719	Santiago Atitlán	14	Cerro de Oro	4	Abril	2023-04-28T00:00:00	2024-11-08T13:00:00	6	Velocidad del viento	14.5
145782	7	Sololá	719	Santiago Atitlán	14	Cerro de Oro	4	Abril	2023-04-28T00:00:00	2024-11-08T13:00:00	7	Dirección del viento	14.48
145783	7	Sololá	719	Santiago Atitlán	14	Cerro de Oro	4	Abril	2023-04-28T00:00:00	2024-11-08T13:00:00	1	Precipitación	0
145784	7	Sololá	719	Santiago Atitlán	14	Cerro de Oro	4	Abril	2023-04-28T00:00:00	2024-11-08T13:00:00	8	Radiación solar	681
145785	7	Sololá	719	Santiago Atitlán	14	Cerro de Oro	4	Abril	2023-04-28T00:00:00	2024-11-08T14:00:00	2	Temperatura media	22.8
145786	7	Sololá	719	Santiago Atitlán	14	Cerro de Oro	4	Abril	2023-04-28T00:00:00	2024-11-08T14:00:00	4	Temperatura máxima	24.2
145787	7	Sololá	719	Santiago Atitlán	14	Cerro de Oro	4	Abril	2023-04-28T00:00:00	2024-11-08T14:00:00	3	Temperatura mínima	22.7
145788	7	Sololá	719	Santiago Atitlán	14	Cerro de Oro	4	Abril	2023-04-28T00:00:00	2024-11-08T14:00:00	5	Humedad	77
145789	7	Sololá	719	Santiago Atitlán	14	Cerro de Oro	4	Abril	2023-04-28T00:00:00	2024-11-08T14:00:00	6	Velocidad del viento	12.9
145790	7	Sololá	719	Santiago Atitlán	14	Cerro de Oro	4	Abril	2023-04-28T00:00:00	2024-11-08T14:00:00	7	Dirección del viento	12.87
145791	7	Sololá	719	Santiago Atitlán	14	Cerro de Oro	4	Abril	2023-04-28T00:00:00	2024-11-08T14:00:00	1	Precipitación	0
145792	7	Sololá	719	Santiago Atitlán	14	Cerro de Oro	4	Abril	2023-04-28T00:00:00	2024-11-08T14:00:00	8	Radiación solar	302
145793	7	Sololá	719	Santiago Atitlán	14	Cerro de Oro	4	Abril	2023-04-28T00:00:00	2024-11-08T15:00:00	2	Temperatura media	22.8
145794	7	Sololá	719	Santiago Atitlán	14	Cerro de Oro	4	Abril	2023-04-28T00:00:00	2024-11-08T15:00:00	4	Temperatura máxima	22.9
145795	7	Sololá	719	Santiago Atitlán	14	Cerro de Oro	4	Abril	2023-04-28T00:00:00	2024-11-08T15:00:00	3	Temperatura mínima	22.4
145796	7	Sololá	719	Santiago Atitlán	14	Cerro de Oro	4	Abril	2023-04-28T00:00:00	2024-11-08T15:00:00	5	Humedad	77
145797	7	Sololá	719	Santiago Atitlán	14	Cerro de Oro	4	Abril	2023-04-28T00:00:00	2024-11-08T15:00:00	6	Velocidad del viento	11.3
145798	7	Sololá	719	Santiago Atitlán	14	Cerro de Oro	4	Abril	2023-04-28T00:00:00	2024-11-08T15:00:00	7	Dirección del viento	11.27
145799	7	Sololá	719	Santiago Atitlán	14	Cerro de Oro	4	Abril	2023-04-28T00:00:00	2024-11-08T15:00:00	1	Precipitación	0
145800	7	Sololá	719	Santiago Atitlán	14	Cerro de Oro	4	Abril	2023-04-28T00:00:00	2024-11-08T15:00:00	8	Radiación solar	236
145801	7	Sololá	719	Santiago Atitlán	14	Cerro de Oro	4	Abril	2023-04-28T00:00:00	2024-11-08T16:00:00	2	Temperatura media	21.7
145802	7	Sololá	719	Santiago Atitlán	14	Cerro de Oro	4	Abril	2023-04-28T00:00:00	2024-11-08T16:00:00	4	Temperatura máxima	22.9
145803	7	Sololá	719	Santiago Atitlán	14	Cerro de Oro	4	Abril	2023-04-28T00:00:00	2024-11-08T16:00:00	3	Temperatura mínima	21.2
145804	7	Sololá	719	Santiago Atitlán	14	Cerro de Oro	4	Abril	2023-04-28T00:00:00	2024-11-08T16:00:00	5	Humedad	83
145805	7	Sololá	719	Santiago Atitlán	14	Cerro de Oro	4	Abril	2023-04-28T00:00:00	2024-11-08T16:00:00	6	Velocidad del viento	12.9
145806	7	Sololá	719	Santiago Atitlán	14	Cerro de Oro	4	Abril	2023-04-28T00:00:00	2024-11-08T16:00:00	7	Dirección del viento	12.87
145807	7	Sololá	719	Santiago Atitlán	14	Cerro de Oro	4	Abril	2023-04-28T00:00:00	2024-11-08T16:00:00	1	Precipitación	0
145808	7	Sololá	719	Santiago Atitlán	14	Cerro de Oro	4	Abril	2023-04-28T00:00:00	2024-11-08T16:00:00	8	Radiación solar	243
145809	7	Sololá	719	Santiago Atitlán	14	Cerro de Oro	4	Abril	2023-04-28T00:00:00	2024-11-08T17:00:00	2	Temperatura media	20.9
145810	7	Sololá	719	Santiago Atitlán	14	Cerro de Oro	4	Abril	2023-04-28T00:00:00	2024-11-08T17:00:00	4	Temperatura máxima	21.7
145811	7	Sololá	719	Santiago Atitlán	14	Cerro de Oro	4	Abril	2023-04-28T00:00:00	2024-11-08T17:00:00	3	Temperatura mínima	20.9
145812	7	Sololá	719	Santiago Atitlán	14	Cerro de Oro	4	Abril	2023-04-28T00:00:00	2024-11-08T17:00:00	5	Humedad	83
145813	7	Sololá	719	Santiago Atitlán	14	Cerro de Oro	4	Abril	2023-04-28T00:00:00	2024-11-08T17:00:00	6	Velocidad del viento	9.7
145814	7	Sololá	719	Santiago Atitlán	14	Cerro de Oro	4	Abril	2023-04-28T00:00:00	2024-11-08T17:00:00	7	Dirección del viento	9.66
145815	7	Sololá	719	Santiago Atitlán	14	Cerro de Oro	4	Abril	2023-04-28T00:00:00	2024-11-08T17:00:00	1	Precipitación	0
145816	7	Sololá	719	Santiago Atitlán	14	Cerro de Oro	4	Abril	2023-04-28T00:00:00	2024-11-08T17:00:00	8	Radiación solar	44
145817	7	Sololá	719	Santiago Atitlán	14	Cerro de Oro	4	Abril	2023-04-28T00:00:00	2024-11-08T18:00:00	2	Temperatura media	20.6
145818	7	Sololá	719	Santiago Atitlán	14	Cerro de Oro	4	Abril	2023-04-28T00:00:00	2024-11-08T18:00:00	4	Temperatura máxima	21
145819	7	Sololá	719	Santiago Atitlán	14	Cerro de Oro	4	Abril	2023-04-28T00:00:00	2024-11-08T18:00:00	3	Temperatura mínima	20.4
145820	7	Sololá	719	Santiago Atitlán	14	Cerro de Oro	4	Abril	2023-04-28T00:00:00	2024-11-08T18:00:00	5	Humedad	84
145821	7	Sololá	719	Santiago Atitlán	14	Cerro de Oro	4	Abril	2023-04-28T00:00:00	2024-11-08T18:00:00	6	Velocidad del viento	6.4
145822	7	Sololá	719	Santiago Atitlán	14	Cerro de Oro	4	Abril	2023-04-28T00:00:00	2024-11-08T18:00:00	7	Dirección del viento	6.44
145823	7	Sololá	719	Santiago Atitlán	14	Cerro de Oro	4	Abril	2023-04-28T00:00:00	2024-11-08T18:00:00	1	Precipitación	0
145824	7	Sololá	719	Santiago Atitlán	14	Cerro de Oro	4	Abril	2023-04-28T00:00:00	2024-11-08T18:00:00	8	Radiación solar	53
145825	7	Sololá	719	Santiago Atitlán	14	Cerro de Oro	4	Abril	2023-04-28T00:00:00	2024-11-08T19:00:00	2	Temperatura media	20
145826	7	Sololá	719	Santiago Atitlán	14	Cerro de Oro	4	Abril	2023-04-28T00:00:00	2024-11-08T19:00:00	4	Temperatura máxima	20.6
145827	7	Sololá	719	Santiago Atitlán	14	Cerro de Oro	4	Abril	2023-04-28T00:00:00	2024-11-08T19:00:00	3	Temperatura mínima	19.8
145828	7	Sololá	719	Santiago Atitlán	14	Cerro de Oro	4	Abril	2023-04-28T00:00:00	2024-11-08T19:00:00	5	Humedad	89
145829	7	Sololá	719	Santiago Atitlán	14	Cerro de Oro	4	Abril	2023-04-28T00:00:00	2024-11-08T19:00:00	6	Velocidad del viento	4.8
145830	7	Sololá	719	Santiago Atitlán	14	Cerro de Oro	4	Abril	2023-04-28T00:00:00	2024-11-08T19:00:00	7	Dirección del viento	4.83
145831	7	Sololá	719	Santiago Atitlán	14	Cerro de Oro	4	Abril	2023-04-28T00:00:00	2024-11-08T19:00:00	1	Precipitación	0.4
145832	7	Sololá	719	Santiago Atitlán	14	Cerro de Oro	4	Abril	2023-04-28T00:00:00	2024-11-08T19:00:00	8	Radiación solar	0
145833	7	Sololá	719	Santiago Atitlán	14	Cerro de Oro	4	Abril	2023-04-28T00:00:00	2024-11-08T20:00:00	2	Temperatura media	18
145834	7	Sololá	719	Santiago Atitlán	14	Cerro de Oro	4	Abril	2023-04-28T00:00:00	2024-11-08T20:00:00	4	Temperatura máxima	20.1
145835	7	Sololá	719	Santiago Atitlán	14	Cerro de Oro	4	Abril	2023-04-28T00:00:00	2024-11-08T20:00:00	3	Temperatura mínima	18
145836	7	Sololá	719	Santiago Atitlán	14	Cerro de Oro	4	Abril	2023-04-28T00:00:00	2024-11-08T20:00:00	5	Humedad	93
145837	7	Sololá	719	Santiago Atitlán	14	Cerro de Oro	4	Abril	2023-04-28T00:00:00	2024-11-08T20:00:00	6	Velocidad del viento	8
145838	7	Sololá	719	Santiago Atitlán	14	Cerro de Oro	4	Abril	2023-04-28T00:00:00	2024-11-08T20:00:00	7	Dirección del viento	8.05
145839	7	Sololá	719	Santiago Atitlán	14	Cerro de Oro	4	Abril	2023-04-28T00:00:00	2024-11-08T20:00:00	1	Precipitación	0
145840	7	Sololá	719	Santiago Atitlán	14	Cerro de Oro	4	Abril	2023-04-28T00:00:00	2024-11-08T20:00:00	8	Radiación solar	0
145841	7	Sololá	719	Santiago Atitlán	14	Cerro de Oro	4	Abril	2023-04-28T00:00:00	2024-11-08T21:00:00	2	Temperatura media	18
145842	7	Sololá	719	Santiago Atitlán	14	Cerro de Oro	4	Abril	2023-04-28T00:00:00	2024-11-08T21:00:00	4	Temperatura máxima	18.2
145843	7	Sololá	719	Santiago Atitlán	14	Cerro de Oro	4	Abril	2023-04-28T00:00:00	2024-11-08T21:00:00	3	Temperatura mínima	17.9
145844	7	Sololá	719	Santiago Atitlán	14	Cerro de Oro	4	Abril	2023-04-28T00:00:00	2024-11-08T21:00:00	5	Humedad	93
145845	7	Sololá	719	Santiago Atitlán	14	Cerro de Oro	4	Abril	2023-04-28T00:00:00	2024-11-08T21:00:00	6	Velocidad del viento	4.8
145846	7	Sololá	719	Santiago Atitlán	14	Cerro de Oro	4	Abril	2023-04-28T00:00:00	2024-11-08T21:00:00	7	Dirección del viento	4.83
145847	7	Sololá	719	Santiago Atitlán	14	Cerro de Oro	4	Abril	2023-04-28T00:00:00	2024-11-08T21:00:00	1	Precipitación	0
145848	7	Sololá	719	Santiago Atitlán	14	Cerro de Oro	4	Abril	2023-04-28T00:00:00	2024-11-08T21:00:00	8	Radiación solar	0
145849	7	Sololá	719	Santiago Atitlán	14	Cerro de Oro	4	Abril	2023-04-28T00:00:00	2024-11-08T22:00:00	2	Temperatura media	18.1
145850	7	Sololá	719	Santiago Atitlán	14	Cerro de Oro	4	Abril	2023-04-28T00:00:00	2024-11-08T22:00:00	4	Temperatura máxima	18.2
145851	7	Sololá	719	Santiago Atitlán	14	Cerro de Oro	4	Abril	2023-04-28T00:00:00	2024-11-08T22:00:00	3	Temperatura mínima	17.9
145852	7	Sololá	719	Santiago Atitlán	14	Cerro de Oro	4	Abril	2023-04-28T00:00:00	2024-11-08T22:00:00	5	Humedad	93
145853	7	Sololá	719	Santiago Atitlán	14	Cerro de Oro	4	Abril	2023-04-28T00:00:00	2024-11-08T22:00:00	6	Velocidad del viento	8
145854	7	Sololá	719	Santiago Atitlán	14	Cerro de Oro	4	Abril	2023-04-28T00:00:00	2024-11-08T22:00:00	7	Dirección del viento	8.05
145855	7	Sololá	719	Santiago Atitlán	14	Cerro de Oro	4	Abril	2023-04-28T00:00:00	2024-11-08T22:00:00	1	Precipitación	0
145856	7	Sololá	719	Santiago Atitlán	14	Cerro de Oro	4	Abril	2023-04-28T00:00:00	2024-11-08T22:00:00	8	Radiación solar	0
145857	7	Sololá	719	Santiago Atitlán	14	Cerro de Oro	4	Abril	2023-04-28T00:00:00	2024-11-08T23:00:00	2	Temperatura media	18.1
145858	7	Sololá	719	Santiago Atitlán	14	Cerro de Oro	4	Abril	2023-04-28T00:00:00	2024-11-08T23:00:00	4	Temperatura máxima	18.2
145859	7	Sololá	719	Santiago Atitlán	14	Cerro de Oro	4	Abril	2023-04-28T00:00:00	2024-11-08T23:00:00	3	Temperatura mínima	18
145860	7	Sololá	719	Santiago Atitlán	14	Cerro de Oro	4	Abril	2023-04-28T00:00:00	2024-11-08T23:00:00	5	Humedad	93
145861	7	Sololá	719	Santiago Atitlán	14	Cerro de Oro	4	Abril	2023-04-28T00:00:00	2024-11-08T23:00:00	6	Velocidad del viento	6.4
145862	7	Sololá	719	Santiago Atitlán	14	Cerro de Oro	4	Abril	2023-04-28T00:00:00	2024-11-08T23:00:00	7	Dirección del viento	6.44
145863	7	Sololá	719	Santiago Atitlán	14	Cerro de Oro	4	Abril	2023-04-28T00:00:00	2024-11-08T23:00:00	1	Precipitación	0
145864	7	Sololá	719	Santiago Atitlán	14	Cerro de Oro	4	Abril	2023-04-28T00:00:00	2024-11-08T23:00:00	8	Radiación solar	0
145865	7	Sololá	719	Santiago Atitlán	14	Cerro de Oro	4	Abril	2023-04-29T00:00:00	2024-11-08T00:00:00	2	Temperatura media	17.9
145866	7	Sololá	719	Santiago Atitlán	14	Cerro de Oro	4	Abril	2023-04-29T00:00:00	2024-11-08T00:00:00	4	Temperatura máxima	18.1
145867	7	Sololá	719	Santiago Atitlán	14	Cerro de Oro	4	Abril	2023-04-29T00:00:00	2024-11-08T00:00:00	3	Temperatura mínima	17.9
145868	7	Sololá	719	Santiago Atitlán	14	Cerro de Oro	4	Abril	2023-04-29T00:00:00	2024-11-08T00:00:00	5	Humedad	94
145869	7	Sololá	719	Santiago Atitlán	14	Cerro de Oro	4	Abril	2023-04-29T00:00:00	2024-11-08T00:00:00	6	Velocidad del viento	3.2
145870	7	Sololá	719	Santiago Atitlán	14	Cerro de Oro	4	Abril	2023-04-29T00:00:00	2024-11-08T00:00:00	7	Dirección del viento	3.22
145871	7	Sololá	719	Santiago Atitlán	14	Cerro de Oro	4	Abril	2023-04-29T00:00:00	2024-11-08T00:00:00	1	Precipitación	0
145872	7	Sololá	719	Santiago Atitlán	14	Cerro de Oro	4	Abril	2023-04-29T00:00:00	2024-11-08T00:00:00	8	Radiación solar	0
145873	7	Sololá	719	Santiago Atitlán	14	Cerro de Oro	4	Abril	2023-04-29T00:00:00	2024-11-08T01:00:00	2	Temperatura media	18.5
145874	7	Sololá	719	Santiago Atitlán	14	Cerro de Oro	4	Abril	2023-04-29T00:00:00	2024-11-08T01:00:00	4	Temperatura máxima	18.5
145875	7	Sololá	719	Santiago Atitlán	14	Cerro de Oro	4	Abril	2023-04-29T00:00:00	2024-11-08T01:00:00	3	Temperatura mínima	17.9
145876	7	Sololá	719	Santiago Atitlán	14	Cerro de Oro	4	Abril	2023-04-29T00:00:00	2024-11-08T01:00:00	5	Humedad	89
145877	7	Sololá	719	Santiago Atitlán	14	Cerro de Oro	4	Abril	2023-04-29T00:00:00	2024-11-08T01:00:00	6	Velocidad del viento	3.2
145878	7	Sololá	719	Santiago Atitlán	14	Cerro de Oro	4	Abril	2023-04-29T00:00:00	2024-11-08T01:00:00	7	Dirección del viento	3.22
145879	7	Sololá	719	Santiago Atitlán	14	Cerro de Oro	4	Abril	2023-04-29T00:00:00	2024-11-08T01:00:00	1	Precipitación	0
145880	7	Sololá	719	Santiago Atitlán	14	Cerro de Oro	4	Abril	2023-04-29T00:00:00	2024-11-08T01:00:00	8	Radiación solar	0
145881	7	Sololá	719	Santiago Atitlán	14	Cerro de Oro	4	Abril	2023-04-29T00:00:00	2024-11-08T02:00:00	2	Temperatura media	19
145882	7	Sololá	719	Santiago Atitlán	14	Cerro de Oro	4	Abril	2023-04-29T00:00:00	2024-11-08T02:00:00	4	Temperatura máxima	19.1
145883	7	Sololá	719	Santiago Atitlán	14	Cerro de Oro	4	Abril	2023-04-29T00:00:00	2024-11-08T02:00:00	3	Temperatura mínima	18.5
145884	7	Sololá	719	Santiago Atitlán	14	Cerro de Oro	4	Abril	2023-04-29T00:00:00	2024-11-08T02:00:00	5	Humedad	79
145885	7	Sololá	719	Santiago Atitlán	14	Cerro de Oro	4	Abril	2023-04-29T00:00:00	2024-11-08T02:00:00	6	Velocidad del viento	3.2
145886	7	Sololá	719	Santiago Atitlán	14	Cerro de Oro	4	Abril	2023-04-29T00:00:00	2024-11-08T02:00:00	7	Dirección del viento	3.22
145887	7	Sololá	719	Santiago Atitlán	14	Cerro de Oro	4	Abril	2023-04-29T00:00:00	2024-11-08T02:00:00	1	Precipitación	0
145888	7	Sololá	719	Santiago Atitlán	14	Cerro de Oro	4	Abril	2023-04-29T00:00:00	2024-11-08T02:00:00	8	Radiación solar	0
145889	7	Sololá	719	Santiago Atitlán	14	Cerro de Oro	4	Abril	2023-04-29T00:00:00	2024-11-08T03:00:00	2	Temperatura media	18.3
145890	7	Sololá	719	Santiago Atitlán	14	Cerro de Oro	4	Abril	2023-04-29T00:00:00	2024-11-08T03:00:00	4	Temperatura máxima	19
145891	7	Sololá	719	Santiago Atitlán	14	Cerro de Oro	4	Abril	2023-04-29T00:00:00	2024-11-08T03:00:00	3	Temperatura mínima	18.2
145892	7	Sololá	719	Santiago Atitlán	14	Cerro de Oro	4	Abril	2023-04-29T00:00:00	2024-11-08T03:00:00	5	Humedad	84
145893	7	Sololá	719	Santiago Atitlán	14	Cerro de Oro	4	Abril	2023-04-29T00:00:00	2024-11-08T03:00:00	6	Velocidad del viento	3.2
145894	7	Sololá	719	Santiago Atitlán	14	Cerro de Oro	4	Abril	2023-04-29T00:00:00	2024-11-08T03:00:00	7	Dirección del viento	3.22
145895	7	Sololá	719	Santiago Atitlán	14	Cerro de Oro	4	Abril	2023-04-29T00:00:00	2024-11-08T03:00:00	1	Precipitación	0
145896	7	Sololá	719	Santiago Atitlán	14	Cerro de Oro	4	Abril	2023-04-29T00:00:00	2024-11-08T03:00:00	8	Radiación solar	0
145897	7	Sololá	719	Santiago Atitlán	14	Cerro de Oro	4	Abril	2023-04-29T00:00:00	2024-11-08T04:00:00	2	Temperatura media	17.1
145898	7	Sololá	719	Santiago Atitlán	14	Cerro de Oro	4	Abril	2023-04-29T00:00:00	2024-11-08T04:00:00	4	Temperatura máxima	18.3
145899	7	Sololá	719	Santiago Atitlán	14	Cerro de Oro	4	Abril	2023-04-29T00:00:00	2024-11-08T04:00:00	3	Temperatura mínima	17.1
145900	7	Sololá	719	Santiago Atitlán	14	Cerro de Oro	4	Abril	2023-04-29T00:00:00	2024-11-08T04:00:00	5	Humedad	87
145901	7	Sololá	719	Santiago Atitlán	14	Cerro de Oro	4	Abril	2023-04-29T00:00:00	2024-11-08T04:00:00	6	Velocidad del viento	4.8
145902	7	Sololá	719	Santiago Atitlán	14	Cerro de Oro	4	Abril	2023-04-29T00:00:00	2024-11-08T04:00:00	7	Dirección del viento	4.83
145903	7	Sololá	719	Santiago Atitlán	14	Cerro de Oro	4	Abril	2023-04-29T00:00:00	2024-11-08T04:00:00	1	Precipitación	0
145904	7	Sololá	719	Santiago Atitlán	14	Cerro de Oro	4	Abril	2023-04-29T00:00:00	2024-11-08T04:00:00	8	Radiación solar	0
145905	7	Sololá	719	Santiago Atitlán	14	Cerro de Oro	4	Abril	2023-04-29T00:00:00	2024-11-08T05:00:00	2	Temperatura media	17.1
145906	7	Sololá	719	Santiago Atitlán	14	Cerro de Oro	4	Abril	2023-04-29T00:00:00	2024-11-08T05:00:00	4	Temperatura máxima	17.2
145907	7	Sololá	719	Santiago Atitlán	14	Cerro de Oro	4	Abril	2023-04-29T00:00:00	2024-11-08T05:00:00	3	Temperatura mínima	16.8
145908	7	Sololá	719	Santiago Atitlán	14	Cerro de Oro	4	Abril	2023-04-29T00:00:00	2024-11-08T05:00:00	5	Humedad	88
145909	7	Sololá	719	Santiago Atitlán	14	Cerro de Oro	4	Abril	2023-04-29T00:00:00	2024-11-08T05:00:00	6	Velocidad del viento	4.8
145910	7	Sololá	719	Santiago Atitlán	14	Cerro de Oro	4	Abril	2023-04-29T00:00:00	2024-11-08T05:00:00	7	Dirección del viento	4.83
145911	7	Sololá	719	Santiago Atitlán	14	Cerro de Oro	4	Abril	2023-04-29T00:00:00	2024-11-08T05:00:00	1	Precipitación	0
145912	7	Sololá	719	Santiago Atitlán	14	Cerro de Oro	4	Abril	2023-04-29T00:00:00	2024-11-08T05:00:00	8	Radiación solar	0
145913	7	Sololá	719	Santiago Atitlán	14	Cerro de Oro	4	Abril	2023-04-29T00:00:00	2024-11-08T06:00:00	2	Temperatura media	17.7
145914	7	Sololá	719	Santiago Atitlán	14	Cerro de Oro	4	Abril	2023-04-29T00:00:00	2024-11-08T06:00:00	4	Temperatura máxima	17.7
145915	7	Sololá	719	Santiago Atitlán	14	Cerro de Oro	4	Abril	2023-04-29T00:00:00	2024-11-08T06:00:00	3	Temperatura mínima	16.9
145916	7	Sololá	719	Santiago Atitlán	14	Cerro de Oro	4	Abril	2023-04-29T00:00:00	2024-11-08T06:00:00	5	Humedad	87
145917	7	Sololá	719	Santiago Atitlán	14	Cerro de Oro	4	Abril	2023-04-29T00:00:00	2024-11-08T06:00:00	6	Velocidad del viento	3.2
145918	7	Sololá	719	Santiago Atitlán	14	Cerro de Oro	4	Abril	2023-04-29T00:00:00	2024-11-08T06:00:00	7	Dirección del viento	3.22
145919	7	Sololá	719	Santiago Atitlán	14	Cerro de Oro	4	Abril	2023-04-29T00:00:00	2024-11-08T06:00:00	1	Precipitación	0
145920	7	Sololá	719	Santiago Atitlán	14	Cerro de Oro	4	Abril	2023-04-29T00:00:00	2024-11-08T06:00:00	8	Radiación solar	3
145921	7	Sololá	719	Santiago Atitlán	14	Cerro de Oro	4	Abril	2023-04-29T00:00:00	2024-11-08T07:00:00	2	Temperatura media	17.4
145922	7	Sololá	719	Santiago Atitlán	14	Cerro de Oro	4	Abril	2023-04-29T00:00:00	2024-11-08T07:00:00	4	Temperatura máxima	17.8
145923	7	Sololá	719	Santiago Atitlán	14	Cerro de Oro	4	Abril	2023-04-29T00:00:00	2024-11-08T07:00:00	3	Temperatura mínima	17.4
145924	7	Sololá	719	Santiago Atitlán	14	Cerro de Oro	4	Abril	2023-04-29T00:00:00	2024-11-08T07:00:00	5	Humedad	87
145925	7	Sololá	719	Santiago Atitlán	14	Cerro de Oro	4	Abril	2023-04-29T00:00:00	2024-11-08T07:00:00	6	Velocidad del viento	3.2
145926	7	Sololá	719	Santiago Atitlán	14	Cerro de Oro	4	Abril	2023-04-29T00:00:00	2024-11-08T07:00:00	7	Dirección del viento	3.22
145927	7	Sololá	719	Santiago Atitlán	14	Cerro de Oro	4	Abril	2023-04-29T00:00:00	2024-11-08T07:00:00	1	Precipitación	0
145928	7	Sololá	719	Santiago Atitlán	14	Cerro de Oro	4	Abril	2023-04-29T00:00:00	2024-11-08T07:00:00	8	Radiación solar	63
145929	7	Sololá	719	Santiago Atitlán	14	Cerro de Oro	4	Abril	2023-04-29T00:00:00	2024-11-08T08:00:00	2	Temperatura media	18
145930	7	Sololá	719	Santiago Atitlán	14	Cerro de Oro	4	Abril	2023-04-29T00:00:00	2024-11-08T08:00:00	4	Temperatura máxima	18
145931	7	Sololá	719	Santiago Atitlán	14	Cerro de Oro	4	Abril	2023-04-29T00:00:00	2024-11-08T08:00:00	3	Temperatura mínima	17.2
145932	7	Sololá	719	Santiago Atitlán	14	Cerro de Oro	4	Abril	2023-04-29T00:00:00	2024-11-08T08:00:00	5	Humedad	88
145933	7	Sololá	719	Santiago Atitlán	14	Cerro de Oro	4	Abril	2023-04-29T00:00:00	2024-11-08T08:00:00	6	Velocidad del viento	3.2
145934	7	Sololá	719	Santiago Atitlán	14	Cerro de Oro	4	Abril	2023-04-29T00:00:00	2024-11-08T08:00:00	7	Dirección del viento	3.22
145935	7	Sololá	719	Santiago Atitlán	14	Cerro de Oro	4	Abril	2023-04-29T00:00:00	2024-11-08T08:00:00	1	Precipitación	0
145936	7	Sololá	719	Santiago Atitlán	14	Cerro de Oro	4	Abril	2023-04-29T00:00:00	2024-11-08T08:00:00	8	Radiación solar	259
145937	7	Sololá	719	Santiago Atitlán	14	Cerro de Oro	4	Abril	2023-04-29T00:00:00	2024-11-08T09:00:00	2	Temperatura media	19.8
145938	7	Sololá	719	Santiago Atitlán	14	Cerro de Oro	4	Abril	2023-04-29T00:00:00	2024-11-08T09:00:00	4	Temperatura máxima	19.8
145939	7	Sololá	719	Santiago Atitlán	14	Cerro de Oro	4	Abril	2023-04-29T00:00:00	2024-11-08T09:00:00	3	Temperatura mínima	18
145940	7	Sololá	719	Santiago Atitlán	14	Cerro de Oro	4	Abril	2023-04-29T00:00:00	2024-11-08T09:00:00	5	Humedad	81
145941	7	Sololá	719	Santiago Atitlán	14	Cerro de Oro	4	Abril	2023-04-29T00:00:00	2024-11-08T09:00:00	6	Velocidad del viento	3.2
145942	7	Sololá	719	Santiago Atitlán	14	Cerro de Oro	4	Abril	2023-04-29T00:00:00	2024-11-08T09:00:00	7	Dirección del viento	3.22
145943	7	Sololá	719	Santiago Atitlán	14	Cerro de Oro	4	Abril	2023-04-29T00:00:00	2024-11-08T09:00:00	1	Precipitación	0
145944	7	Sololá	719	Santiago Atitlán	14	Cerro de Oro	4	Abril	2023-04-29T00:00:00	2024-11-08T09:00:00	8	Radiación solar	506
145945	7	Sololá	719	Santiago Atitlán	14	Cerro de Oro	4	Abril	2023-04-29T00:00:00	2024-11-08T10:00:00	2	Temperatura media	20.8
145946	7	Sololá	719	Santiago Atitlán	14	Cerro de Oro	4	Abril	2023-04-29T00:00:00	2024-11-08T10:00:00	4	Temperatura máxima	20.8
145947	7	Sololá	719	Santiago Atitlán	14	Cerro de Oro	4	Abril	2023-04-29T00:00:00	2024-11-08T10:00:00	3	Temperatura mínima	19.8
145948	7	Sololá	719	Santiago Atitlán	14	Cerro de Oro	4	Abril	2023-04-29T00:00:00	2024-11-08T10:00:00	5	Humedad	78
145949	7	Sololá	719	Santiago Atitlán	14	Cerro de Oro	4	Abril	2023-04-29T00:00:00	2024-11-08T10:00:00	6	Velocidad del viento	4.8
145950	7	Sololá	719	Santiago Atitlán	14	Cerro de Oro	4	Abril	2023-04-29T00:00:00	2024-11-08T10:00:00	7	Dirección del viento	4.83
145951	7	Sololá	719	Santiago Atitlán	14	Cerro de Oro	4	Abril	2023-04-29T00:00:00	2024-11-08T10:00:00	1	Precipitación	0
145952	7	Sololá	719	Santiago Atitlán	14	Cerro de Oro	4	Abril	2023-04-29T00:00:00	2024-11-08T10:00:00	8	Radiación solar	658
145953	7	Sololá	719	Santiago Atitlán	14	Cerro de Oro	4	Abril	2023-04-29T00:00:00	2024-11-08T11:00:00	2	Temperatura media	22.9
145954	7	Sololá	719	Santiago Atitlán	14	Cerro de Oro	4	Abril	2023-04-29T00:00:00	2024-11-08T11:00:00	4	Temperatura máxima	22.9
145955	7	Sololá	719	Santiago Atitlán	14	Cerro de Oro	4	Abril	2023-04-29T00:00:00	2024-11-08T11:00:00	3	Temperatura mínima	20.8
145956	7	Sololá	719	Santiago Atitlán	14	Cerro de Oro	4	Abril	2023-04-29T00:00:00	2024-11-08T11:00:00	5	Humedad	70
145957	7	Sololá	719	Santiago Atitlán	14	Cerro de Oro	4	Abril	2023-04-29T00:00:00	2024-11-08T11:00:00	6	Velocidad del viento	4.8
145958	7	Sololá	719	Santiago Atitlán	14	Cerro de Oro	4	Abril	2023-04-29T00:00:00	2024-11-08T11:00:00	7	Dirección del viento	4.83
145959	7	Sololá	719	Santiago Atitlán	14	Cerro de Oro	4	Abril	2023-04-29T00:00:00	2024-11-08T11:00:00	1	Precipitación	0
145960	7	Sololá	719	Santiago Atitlán	14	Cerro de Oro	4	Abril	2023-04-29T00:00:00	2024-11-08T11:00:00	8	Radiación solar	818
145961	7	Sololá	719	Santiago Atitlán	14	Cerro de Oro	4	Abril	2023-04-29T00:00:00	2024-11-08T12:00:00	2	Temperatura media	23.4
145962	7	Sololá	719	Santiago Atitlán	14	Cerro de Oro	4	Abril	2023-04-29T00:00:00	2024-11-08T12:00:00	4	Temperatura máxima	23.7
145963	7	Sololá	719	Santiago Atitlán	14	Cerro de Oro	4	Abril	2023-04-29T00:00:00	2024-11-08T12:00:00	3	Temperatura mínima	22.8
145964	7	Sololá	719	Santiago Atitlán	14	Cerro de Oro	4	Abril	2023-04-29T00:00:00	2024-11-08T12:00:00	5	Humedad	71
145965	7	Sololá	719	Santiago Atitlán	14	Cerro de Oro	4	Abril	2023-04-29T00:00:00	2024-11-08T12:00:00	6	Velocidad del viento	8
145966	7	Sololá	719	Santiago Atitlán	14	Cerro de Oro	4	Abril	2023-04-29T00:00:00	2024-11-08T12:00:00	7	Dirección del viento	8.05
145967	7	Sololá	719	Santiago Atitlán	14	Cerro de Oro	4	Abril	2023-04-29T00:00:00	2024-11-08T12:00:00	1	Precipitación	0
145968	7	Sololá	719	Santiago Atitlán	14	Cerro de Oro	4	Abril	2023-04-29T00:00:00	2024-11-08T12:00:00	8	Radiación solar	467
145969	7	Sololá	719	Santiago Atitlán	14	Cerro de Oro	4	Abril	2023-04-29T00:00:00	2024-11-08T13:00:00	2	Temperatura media	23
145970	7	Sololá	719	Santiago Atitlán	14	Cerro de Oro	4	Abril	2023-04-29T00:00:00	2024-11-08T13:00:00	4	Temperatura máxima	23.3
145971	7	Sololá	719	Santiago Atitlán	14	Cerro de Oro	4	Abril	2023-04-29T00:00:00	2024-11-08T13:00:00	3	Temperatura mínima	22.7
145972	7	Sololá	719	Santiago Atitlán	14	Cerro de Oro	4	Abril	2023-04-29T00:00:00	2024-11-08T13:00:00	5	Humedad	76
145973	7	Sololá	719	Santiago Atitlán	14	Cerro de Oro	4	Abril	2023-04-29T00:00:00	2024-11-08T13:00:00	6	Velocidad del viento	8
145974	7	Sololá	719	Santiago Atitlán	14	Cerro de Oro	4	Abril	2023-04-29T00:00:00	2024-11-08T13:00:00	7	Dirección del viento	8.05
145975	7	Sololá	719	Santiago Atitlán	14	Cerro de Oro	4	Abril	2023-04-29T00:00:00	2024-11-08T13:00:00	1	Precipitación	0
145976	7	Sololá	719	Santiago Atitlán	14	Cerro de Oro	4	Abril	2023-04-29T00:00:00	2024-11-08T13:00:00	8	Radiación solar	379
145977	7	Sololá	719	Santiago Atitlán	14	Cerro de Oro	4	Abril	2023-04-29T00:00:00	2024-11-08T14:00:00	2	Temperatura media	22.2
145978	7	Sololá	719	Santiago Atitlán	14	Cerro de Oro	4	Abril	2023-04-29T00:00:00	2024-11-08T14:00:00	4	Temperatura máxima	23.3
145979	7	Sololá	719	Santiago Atitlán	14	Cerro de Oro	4	Abril	2023-04-29T00:00:00	2024-11-08T14:00:00	3	Temperatura mínima	22.2
145980	7	Sololá	719	Santiago Atitlán	14	Cerro de Oro	4	Abril	2023-04-29T00:00:00	2024-11-08T14:00:00	5	Humedad	78
145981	7	Sololá	719	Santiago Atitlán	14	Cerro de Oro	4	Abril	2023-04-29T00:00:00	2024-11-08T14:00:00	6	Velocidad del viento	9.7
145982	7	Sololá	719	Santiago Atitlán	14	Cerro de Oro	4	Abril	2023-04-29T00:00:00	2024-11-08T14:00:00	7	Dirección del viento	9.66
145983	7	Sololá	719	Santiago Atitlán	14	Cerro de Oro	4	Abril	2023-04-29T00:00:00	2024-11-08T14:00:00	1	Precipitación	0
145984	7	Sololá	719	Santiago Atitlán	14	Cerro de Oro	4	Abril	2023-04-29T00:00:00	2024-11-08T14:00:00	8	Radiación solar	404
145985	7	Sololá	719	Santiago Atitlán	14	Cerro de Oro	4	Abril	2023-04-29T00:00:00	2024-11-08T15:00:00	2	Temperatura media	21.5
145986	7	Sololá	719	Santiago Atitlán	14	Cerro de Oro	4	Abril	2023-04-29T00:00:00	2024-11-08T15:00:00	4	Temperatura máxima	22.5
145987	7	Sololá	719	Santiago Atitlán	14	Cerro de Oro	4	Abril	2023-04-29T00:00:00	2024-11-08T15:00:00	3	Temperatura mínima	21.5
145988	7	Sololá	719	Santiago Atitlán	14	Cerro de Oro	4	Abril	2023-04-29T00:00:00	2024-11-08T15:00:00	5	Humedad	80
145989	7	Sololá	719	Santiago Atitlán	14	Cerro de Oro	4	Abril	2023-04-29T00:00:00	2024-11-08T15:00:00	6	Velocidad del viento	12.9
145990	7	Sololá	719	Santiago Atitlán	14	Cerro de Oro	4	Abril	2023-04-29T00:00:00	2024-11-08T15:00:00	7	Dirección del viento	12.87
145991	7	Sololá	719	Santiago Atitlán	14	Cerro de Oro	4	Abril	2023-04-29T00:00:00	2024-11-08T15:00:00	1	Precipitación	0
145992	7	Sololá	719	Santiago Atitlán	14	Cerro de Oro	4	Abril	2023-04-29T00:00:00	2024-11-08T15:00:00	8	Radiación solar	294
145993	7	Sololá	719	Santiago Atitlán	14	Cerro de Oro	4	Abril	2023-04-29T00:00:00	2024-11-08T16:00:00	2	Temperatura media	21.4
145994	7	Sololá	719	Santiago Atitlán	14	Cerro de Oro	4	Abril	2023-04-29T00:00:00	2024-11-08T16:00:00	4	Temperatura máxima	21.5
145995	7	Sololá	719	Santiago Atitlán	14	Cerro de Oro	4	Abril	2023-04-29T00:00:00	2024-11-08T16:00:00	3	Temperatura mínima	20.8
145996	7	Sololá	719	Santiago Atitlán	14	Cerro de Oro	4	Abril	2023-04-29T00:00:00	2024-11-08T16:00:00	5	Humedad	79
145997	7	Sololá	719	Santiago Atitlán	14	Cerro de Oro	4	Abril	2023-04-29T00:00:00	2024-11-08T16:00:00	6	Velocidad del viento	12.9
145998	7	Sololá	719	Santiago Atitlán	14	Cerro de Oro	4	Abril	2023-04-29T00:00:00	2024-11-08T16:00:00	7	Dirección del viento	12.87
145999	7	Sololá	719	Santiago Atitlán	14	Cerro de Oro	4	Abril	2023-04-29T00:00:00	2024-11-08T16:00:00	1	Precipitación	0
146000	7	Sololá	719	Santiago Atitlán	14	Cerro de Oro	4	Abril	2023-04-29T00:00:00	2024-11-08T16:00:00	8	Radiación solar	159
146001	7	Sololá	719	Santiago Atitlán	14	Cerro de Oro	4	Abril	2023-04-29T00:00:00	2024-11-08T17:00:00	2	Temperatura media	20.9
146002	7	Sololá	719	Santiago Atitlán	14	Cerro de Oro	4	Abril	2023-04-29T00:00:00	2024-11-08T17:00:00	4	Temperatura máxima	21.4
146003	7	Sololá	719	Santiago Atitlán	14	Cerro de Oro	4	Abril	2023-04-29T00:00:00	2024-11-08T17:00:00	3	Temperatura mínima	20.8
146004	7	Sololá	719	Santiago Atitlán	14	Cerro de Oro	4	Abril	2023-04-29T00:00:00	2024-11-08T17:00:00	5	Humedad	80
146005	7	Sololá	719	Santiago Atitlán	14	Cerro de Oro	4	Abril	2023-04-29T00:00:00	2024-11-08T17:00:00	6	Velocidad del viento	9.7
146006	7	Sololá	719	Santiago Atitlán	14	Cerro de Oro	4	Abril	2023-04-29T00:00:00	2024-11-08T17:00:00	7	Dirección del viento	9.66
146007	7	Sololá	719	Santiago Atitlán	14	Cerro de Oro	4	Abril	2023-04-29T00:00:00	2024-11-08T17:00:00	1	Precipitación	0
146008	7	Sololá	719	Santiago Atitlán	14	Cerro de Oro	4	Abril	2023-04-29T00:00:00	2024-11-08T17:00:00	8	Radiación solar	93
146009	7	Sololá	719	Santiago Atitlán	14	Cerro de Oro	4	Abril	2023-04-29T00:00:00	2024-11-08T18:00:00	2	Temperatura media	21.1
146010	7	Sololá	719	Santiago Atitlán	14	Cerro de Oro	4	Abril	2023-04-29T00:00:00	2024-11-08T18:00:00	4	Temperatura máxima	21.1
146011	7	Sololá	719	Santiago Atitlán	14	Cerro de Oro	4	Abril	2023-04-29T00:00:00	2024-11-08T18:00:00	3	Temperatura mínima	20.6
146012	7	Sololá	719	Santiago Atitlán	14	Cerro de Oro	4	Abril	2023-04-29T00:00:00	2024-11-08T18:00:00	5	Humedad	80
146013	7	Sololá	719	Santiago Atitlán	14	Cerro de Oro	4	Abril	2023-04-29T00:00:00	2024-11-08T18:00:00	6	Velocidad del viento	8
146014	7	Sololá	719	Santiago Atitlán	14	Cerro de Oro	4	Abril	2023-04-29T00:00:00	2024-11-08T18:00:00	7	Dirección del viento	8.05
146015	7	Sololá	719	Santiago Atitlán	14	Cerro de Oro	4	Abril	2023-04-29T00:00:00	2024-11-08T18:00:00	1	Precipitación	0
146016	7	Sololá	719	Santiago Atitlán	14	Cerro de Oro	4	Abril	2023-04-29T00:00:00	2024-11-08T18:00:00	8	Radiación solar	74
146017	7	Sololá	719	Santiago Atitlán	14	Cerro de Oro	4	Abril	2023-04-29T00:00:00	2024-11-08T19:00:00	2	Temperatura media	20.2
146018	7	Sololá	719	Santiago Atitlán	14	Cerro de Oro	4	Abril	2023-04-29T00:00:00	2024-11-08T19:00:00	4	Temperatura máxima	21.2
146019	7	Sololá	719	Santiago Atitlán	14	Cerro de Oro	4	Abril	2023-04-29T00:00:00	2024-11-08T19:00:00	3	Temperatura mínima	20.2
146020	7	Sololá	719	Santiago Atitlán	14	Cerro de Oro	4	Abril	2023-04-29T00:00:00	2024-11-08T19:00:00	5	Humedad	84
146021	7	Sololá	719	Santiago Atitlán	14	Cerro de Oro	4	Abril	2023-04-29T00:00:00	2024-11-08T19:00:00	6	Velocidad del viento	4.8
146022	7	Sololá	719	Santiago Atitlán	14	Cerro de Oro	4	Abril	2023-04-29T00:00:00	2024-11-08T19:00:00	7	Dirección del viento	4.83
146023	7	Sololá	719	Santiago Atitlán	14	Cerro de Oro	4	Abril	2023-04-29T00:00:00	2024-11-08T19:00:00	1	Precipitación	0
146024	7	Sololá	719	Santiago Atitlán	14	Cerro de Oro	4	Abril	2023-04-29T00:00:00	2024-11-08T19:00:00	8	Radiación solar	0
146025	7	Sololá	719	Santiago Atitlán	14	Cerro de Oro	4	Abril	2023-04-29T00:00:00	2024-11-08T20:00:00	2	Temperatura media	19.8
146026	7	Sololá	719	Santiago Atitlán	14	Cerro de Oro	4	Abril	2023-04-29T00:00:00	2024-11-08T20:00:00	4	Temperatura máxima	20.2
146027	7	Sololá	719	Santiago Atitlán	14	Cerro de Oro	4	Abril	2023-04-29T00:00:00	2024-11-08T20:00:00	3	Temperatura mínima	19.7
146028	7	Sololá	719	Santiago Atitlán	14	Cerro de Oro	4	Abril	2023-04-29T00:00:00	2024-11-08T20:00:00	5	Humedad	85
146029	7	Sololá	719	Santiago Atitlán	14	Cerro de Oro	4	Abril	2023-04-29T00:00:00	2024-11-08T20:00:00	6	Velocidad del viento	6.4
146030	7	Sololá	719	Santiago Atitlán	14	Cerro de Oro	4	Abril	2023-04-29T00:00:00	2024-11-08T20:00:00	7	Dirección del viento	6.44
146031	7	Sololá	719	Santiago Atitlán	14	Cerro de Oro	4	Abril	2023-04-29T00:00:00	2024-11-08T20:00:00	1	Precipitación	0
146032	7	Sololá	719	Santiago Atitlán	14	Cerro de Oro	4	Abril	2023-04-29T00:00:00	2024-11-08T20:00:00	8	Radiación solar	0
146033	7	Sololá	719	Santiago Atitlán	14	Cerro de Oro	4	Abril	2023-04-29T00:00:00	2024-11-08T21:00:00	2	Temperatura media	19.3
146034	7	Sololá	719	Santiago Atitlán	14	Cerro de Oro	4	Abril	2023-04-29T00:00:00	2024-11-08T21:00:00	4	Temperatura máxima	19.8
146035	7	Sololá	719	Santiago Atitlán	14	Cerro de Oro	4	Abril	2023-04-29T00:00:00	2024-11-08T21:00:00	3	Temperatura mínima	19.3
146036	7	Sololá	719	Santiago Atitlán	14	Cerro de Oro	4	Abril	2023-04-29T00:00:00	2024-11-08T21:00:00	5	Humedad	84
146037	7	Sololá	719	Santiago Atitlán	14	Cerro de Oro	4	Abril	2023-04-29T00:00:00	2024-11-08T21:00:00	6	Velocidad del viento	3.2
146038	7	Sololá	719	Santiago Atitlán	14	Cerro de Oro	4	Abril	2023-04-29T00:00:00	2024-11-08T21:00:00	7	Dirección del viento	3.22
146039	7	Sololá	719	Santiago Atitlán	14	Cerro de Oro	4	Abril	2023-04-29T00:00:00	2024-11-08T21:00:00	1	Precipitación	0
146040	7	Sololá	719	Santiago Atitlán	14	Cerro de Oro	4	Abril	2023-04-29T00:00:00	2024-11-08T21:00:00	8	Radiación solar	0
146041	7	Sololá	719	Santiago Atitlán	14	Cerro de Oro	4	Abril	2023-04-29T00:00:00	2024-11-08T22:00:00	2	Temperatura media	19.6
146042	7	Sololá	719	Santiago Atitlán	14	Cerro de Oro	4	Abril	2023-04-29T00:00:00	2024-11-08T22:00:00	4	Temperatura máxima	19.9
146043	7	Sololá	719	Santiago Atitlán	14	Cerro de Oro	4	Abril	2023-04-29T00:00:00	2024-11-08T22:00:00	3	Temperatura mínima	19.3
146044	7	Sololá	719	Santiago Atitlán	14	Cerro de Oro	4	Abril	2023-04-29T00:00:00	2024-11-08T22:00:00	5	Humedad	84
146045	7	Sololá	719	Santiago Atitlán	14	Cerro de Oro	4	Abril	2023-04-29T00:00:00	2024-11-08T22:00:00	6	Velocidad del viento	3.2
146046	7	Sololá	719	Santiago Atitlán	14	Cerro de Oro	4	Abril	2023-04-29T00:00:00	2024-11-08T22:00:00	7	Dirección del viento	3.22
146047	7	Sololá	719	Santiago Atitlán	14	Cerro de Oro	4	Abril	2023-04-29T00:00:00	2024-11-08T22:00:00	1	Precipitación	0
146048	7	Sololá	719	Santiago Atitlán	14	Cerro de Oro	4	Abril	2023-04-29T00:00:00	2024-11-08T22:00:00	8	Radiación solar	0
146049	7	Sololá	719	Santiago Atitlán	14	Cerro de Oro	4	Abril	2023-04-29T00:00:00	2024-11-08T23:00:00	2	Temperatura media	19
146050	7	Sololá	719	Santiago Atitlán	14	Cerro de Oro	4	Abril	2023-04-29T00:00:00	2024-11-08T23:00:00	4	Temperatura máxima	19.6
146051	7	Sololá	719	Santiago Atitlán	14	Cerro de Oro	4	Abril	2023-04-29T00:00:00	2024-11-08T23:00:00	3	Temperatura mínima	19
146052	7	Sololá	719	Santiago Atitlán	14	Cerro de Oro	4	Abril	2023-04-29T00:00:00	2024-11-08T23:00:00	5	Humedad	86
146053	7	Sololá	719	Santiago Atitlán	14	Cerro de Oro	4	Abril	2023-04-29T00:00:00	2024-11-08T23:00:00	6	Velocidad del viento	1.6
146054	7	Sololá	719	Santiago Atitlán	14	Cerro de Oro	4	Abril	2023-04-29T00:00:00	2024-11-08T23:00:00	7	Dirección del viento	1.61
146055	7	Sololá	719	Santiago Atitlán	14	Cerro de Oro	4	Abril	2023-04-29T00:00:00	2024-11-08T23:00:00	1	Precipitación	0
146056	7	Sololá	719	Santiago Atitlán	14	Cerro de Oro	4	Abril	2023-04-29T00:00:00	2024-11-08T23:00:00	8	Radiación solar	0
146057	7	Sololá	719	Santiago Atitlán	14	Cerro de Oro	4	Abril	2023-04-30T00:00:00	2024-11-08T00:00:00	2	Temperatura media	18.8
146058	7	Sololá	719	Santiago Atitlán	14	Cerro de Oro	4	Abril	2023-04-30T00:00:00	2024-11-08T00:00:00	4	Temperatura máxima	19
146059	7	Sololá	719	Santiago Atitlán	14	Cerro de Oro	4	Abril	2023-04-30T00:00:00	2024-11-08T00:00:00	3	Temperatura mínima	18.7
146060	7	Sololá	719	Santiago Atitlán	14	Cerro de Oro	4	Abril	2023-04-30T00:00:00	2024-11-08T00:00:00	5	Humedad	82
146061	7	Sololá	719	Santiago Atitlán	14	Cerro de Oro	4	Abril	2023-04-30T00:00:00	2024-11-08T00:00:00	6	Velocidad del viento	3.2
146062	7	Sololá	719	Santiago Atitlán	14	Cerro de Oro	4	Abril	2023-04-30T00:00:00	2024-11-08T00:00:00	7	Dirección del viento	3.22
146063	7	Sololá	719	Santiago Atitlán	14	Cerro de Oro	4	Abril	2023-04-30T00:00:00	2024-11-08T00:00:00	1	Precipitación	0
146064	7	Sololá	719	Santiago Atitlán	14	Cerro de Oro	4	Abril	2023-04-30T00:00:00	2024-11-08T00:00:00	8	Radiación solar	0
146065	7	Sololá	719	Santiago Atitlán	14	Cerro de Oro	4	Abril	2023-04-30T00:00:00	2024-11-08T01:00:00	2	Temperatura media	18.7
146066	7	Sololá	719	Santiago Atitlán	14	Cerro de Oro	4	Abril	2023-04-30T00:00:00	2024-11-08T01:00:00	4	Temperatura máxima	18.9
146067	7	Sololá	719	Santiago Atitlán	14	Cerro de Oro	4	Abril	2023-04-30T00:00:00	2024-11-08T01:00:00	3	Temperatura mínima	18.2
146068	7	Sololá	719	Santiago Atitlán	14	Cerro de Oro	4	Abril	2023-04-30T00:00:00	2024-11-08T01:00:00	5	Humedad	83
146069	7	Sololá	719	Santiago Atitlán	14	Cerro de Oro	4	Abril	2023-04-30T00:00:00	2024-11-08T01:00:00	6	Velocidad del viento	4.8
146070	7	Sololá	719	Santiago Atitlán	14	Cerro de Oro	4	Abril	2023-04-30T00:00:00	2024-11-08T01:00:00	7	Dirección del viento	4.83
146071	7	Sololá	719	Santiago Atitlán	14	Cerro de Oro	4	Abril	2023-04-30T00:00:00	2024-11-08T01:00:00	1	Precipitación	0
146072	7	Sololá	719	Santiago Atitlán	14	Cerro de Oro	4	Abril	2023-04-30T00:00:00	2024-11-08T01:00:00	8	Radiación solar	0
146073	7	Sololá	719	Santiago Atitlán	14	Cerro de Oro	4	Abril	2023-04-30T00:00:00	2024-11-08T02:00:00	2	Temperatura media	18.5
146074	7	Sololá	719	Santiago Atitlán	14	Cerro de Oro	4	Abril	2023-04-30T00:00:00	2024-11-08T02:00:00	4	Temperatura máxima	19.4
146075	7	Sololá	719	Santiago Atitlán	14	Cerro de Oro	4	Abril	2023-04-30T00:00:00	2024-11-08T02:00:00	3	Temperatura mínima	18.4
146076	7	Sololá	719	Santiago Atitlán	14	Cerro de Oro	4	Abril	2023-04-30T00:00:00	2024-11-08T02:00:00	5	Humedad	78
146077	7	Sololá	719	Santiago Atitlán	14	Cerro de Oro	4	Abril	2023-04-30T00:00:00	2024-11-08T02:00:00	6	Velocidad del viento	4.8
146078	7	Sololá	719	Santiago Atitlán	14	Cerro de Oro	4	Abril	2023-04-30T00:00:00	2024-11-08T02:00:00	7	Dirección del viento	4.83
146079	7	Sololá	719	Santiago Atitlán	14	Cerro de Oro	4	Abril	2023-04-30T00:00:00	2024-11-08T02:00:00	1	Precipitación	0
146080	7	Sololá	719	Santiago Atitlán	14	Cerro de Oro	4	Abril	2023-04-30T00:00:00	2024-11-08T02:00:00	8	Radiación solar	0
146081	7	Sololá	719	Santiago Atitlán	14	Cerro de Oro	4	Abril	2023-04-30T00:00:00	2024-11-08T03:00:00	2	Temperatura media	19.2
146082	7	Sololá	719	Santiago Atitlán	14	Cerro de Oro	4	Abril	2023-04-30T00:00:00	2024-11-08T03:00:00	4	Temperatura máxima	19.2
146083	7	Sololá	719	Santiago Atitlán	14	Cerro de Oro	4	Abril	2023-04-30T00:00:00	2024-11-08T03:00:00	3	Temperatura mínima	18.5
146084	7	Sololá	719	Santiago Atitlán	14	Cerro de Oro	4	Abril	2023-04-30T00:00:00	2024-11-08T03:00:00	5	Humedad	77
146085	7	Sololá	719	Santiago Atitlán	14	Cerro de Oro	4	Abril	2023-04-30T00:00:00	2024-11-08T03:00:00	6	Velocidad del viento	3.2
146086	7	Sololá	719	Santiago Atitlán	14	Cerro de Oro	4	Abril	2023-04-30T00:00:00	2024-11-08T03:00:00	7	Dirección del viento	3.22
146087	7	Sololá	719	Santiago Atitlán	14	Cerro de Oro	4	Abril	2023-04-30T00:00:00	2024-11-08T03:00:00	1	Precipitación	0
146088	7	Sololá	719	Santiago Atitlán	14	Cerro de Oro	4	Abril	2023-04-30T00:00:00	2024-11-08T03:00:00	8	Radiación solar	0
146089	7	Sololá	719	Santiago Atitlán	14	Cerro de Oro	4	Abril	2023-04-30T00:00:00	2024-11-08T04:00:00	2	Temperatura media	18.3
146090	7	Sololá	719	Santiago Atitlán	14	Cerro de Oro	4	Abril	2023-04-30T00:00:00	2024-11-08T04:00:00	4	Temperatura máxima	19.2
146091	7	Sololá	719	Santiago Atitlán	14	Cerro de Oro	4	Abril	2023-04-30T00:00:00	2024-11-08T04:00:00	3	Temperatura mínima	18.2
146092	7	Sololá	719	Santiago Atitlán	14	Cerro de Oro	4	Abril	2023-04-30T00:00:00	2024-11-08T04:00:00	5	Humedad	77
146093	7	Sololá	719	Santiago Atitlán	14	Cerro de Oro	4	Abril	2023-04-30T00:00:00	2024-11-08T04:00:00	6	Velocidad del viento	4.8
146094	7	Sololá	719	Santiago Atitlán	14	Cerro de Oro	4	Abril	2023-04-30T00:00:00	2024-11-08T04:00:00	7	Dirección del viento	4.83
146095	7	Sololá	719	Santiago Atitlán	14	Cerro de Oro	4	Abril	2023-04-30T00:00:00	2024-11-08T04:00:00	1	Precipitación	0
146096	7	Sololá	719	Santiago Atitlán	14	Cerro de Oro	4	Abril	2023-04-30T00:00:00	2024-11-08T04:00:00	8	Radiación solar	0
146097	7	Sololá	719	Santiago Atitlán	14	Cerro de Oro	4	Abril	2023-04-30T00:00:00	2024-11-08T05:00:00	2	Temperatura media	18.1
146098	7	Sololá	719	Santiago Atitlán	14	Cerro de Oro	4	Abril	2023-04-30T00:00:00	2024-11-08T05:00:00	4	Temperatura máxima	19.1
146099	7	Sololá	719	Santiago Atitlán	14	Cerro de Oro	4	Abril	2023-04-30T00:00:00	2024-11-08T05:00:00	3	Temperatura mínima	18.1
146100	7	Sololá	719	Santiago Atitlán	14	Cerro de Oro	4	Abril	2023-04-30T00:00:00	2024-11-08T05:00:00	5	Humedad	77
146101	7	Sololá	719	Santiago Atitlán	14	Cerro de Oro	4	Abril	2023-04-30T00:00:00	2024-11-08T05:00:00	6	Velocidad del viento	4.8
146102	7	Sololá	719	Santiago Atitlán	14	Cerro de Oro	4	Abril	2023-04-30T00:00:00	2024-11-08T05:00:00	7	Dirección del viento	4.83
146103	7	Sololá	719	Santiago Atitlán	14	Cerro de Oro	4	Abril	2023-04-30T00:00:00	2024-11-08T05:00:00	1	Precipitación	0
146104	7	Sololá	719	Santiago Atitlán	14	Cerro de Oro	4	Abril	2023-04-30T00:00:00	2024-11-08T05:00:00	8	Radiación solar	0
146105	7	Sololá	719	Santiago Atitlán	14	Cerro de Oro	4	Abril	2023-04-30T00:00:00	2024-11-08T06:00:00	2	Temperatura media	18.8
146106	7	Sololá	719	Santiago Atitlán	14	Cerro de Oro	4	Abril	2023-04-30T00:00:00	2024-11-08T06:00:00	4	Temperatura máxima	19.1
146107	7	Sololá	719	Santiago Atitlán	14	Cerro de Oro	4	Abril	2023-04-30T00:00:00	2024-11-08T06:00:00	3	Temperatura mínima	17.8
146108	7	Sololá	719	Santiago Atitlán	14	Cerro de Oro	4	Abril	2023-04-30T00:00:00	2024-11-08T06:00:00	5	Humedad	75
146109	7	Sololá	719	Santiago Atitlán	14	Cerro de Oro	4	Abril	2023-04-30T00:00:00	2024-11-08T06:00:00	6	Velocidad del viento	6.4
146110	7	Sololá	719	Santiago Atitlán	14	Cerro de Oro	4	Abril	2023-04-30T00:00:00	2024-11-08T06:00:00	7	Dirección del viento	6.44
146111	7	Sololá	719	Santiago Atitlán	14	Cerro de Oro	4	Abril	2023-04-30T00:00:00	2024-11-08T06:00:00	1	Precipitación	0
146112	7	Sololá	719	Santiago Atitlán	14	Cerro de Oro	4	Abril	2023-04-30T00:00:00	2024-11-08T06:00:00	8	Radiación solar	3
146113	7	Sololá	719	Santiago Atitlán	14	Cerro de Oro	4	Abril	2023-04-30T00:00:00	2024-11-08T07:00:00	2	Temperatura media	18.8
146114	7	Sololá	719	Santiago Atitlán	14	Cerro de Oro	4	Abril	2023-04-30T00:00:00	2024-11-08T07:00:00	4	Temperatura máxima	19.1
146115	7	Sololá	719	Santiago Atitlán	14	Cerro de Oro	4	Abril	2023-04-30T00:00:00	2024-11-08T07:00:00	3	Temperatura mínima	18.6
146116	7	Sololá	719	Santiago Atitlán	14	Cerro de Oro	4	Abril	2023-04-30T00:00:00	2024-11-08T07:00:00	5	Humedad	74
146117	7	Sololá	719	Santiago Atitlán	14	Cerro de Oro	4	Abril	2023-04-30T00:00:00	2024-11-08T07:00:00	6	Velocidad del viento	4.8
146118	7	Sololá	719	Santiago Atitlán	14	Cerro de Oro	4	Abril	2023-04-30T00:00:00	2024-11-08T07:00:00	7	Dirección del viento	4.83
146119	7	Sololá	719	Santiago Atitlán	14	Cerro de Oro	4	Abril	2023-04-30T00:00:00	2024-11-08T07:00:00	1	Precipitación	0
146120	7	Sololá	719	Santiago Atitlán	14	Cerro de Oro	4	Abril	2023-04-30T00:00:00	2024-11-08T07:00:00	8	Radiación solar	101
146121	7	Sololá	719	Santiago Atitlán	14	Cerro de Oro	4	Abril	2023-04-30T00:00:00	2024-11-08T08:00:00	2	Temperatura media	20.9
146122	7	Sololá	719	Santiago Atitlán	14	Cerro de Oro	4	Abril	2023-04-30T00:00:00	2024-11-08T08:00:00	4	Temperatura máxima	20.9
146123	7	Sololá	719	Santiago Atitlán	14	Cerro de Oro	4	Abril	2023-04-30T00:00:00	2024-11-08T08:00:00	3	Temperatura mínima	18.3
146124	7	Sololá	719	Santiago Atitlán	14	Cerro de Oro	4	Abril	2023-04-30T00:00:00	2024-11-08T08:00:00	5	Humedad	70
146125	7	Sololá	719	Santiago Atitlán	14	Cerro de Oro	4	Abril	2023-04-30T00:00:00	2024-11-08T08:00:00	6	Velocidad del viento	4.8
146126	7	Sololá	719	Santiago Atitlán	14	Cerro de Oro	4	Abril	2023-04-30T00:00:00	2024-11-08T08:00:00	7	Dirección del viento	4.83
146127	7	Sololá	719	Santiago Atitlán	14	Cerro de Oro	4	Abril	2023-04-30T00:00:00	2024-11-08T08:00:00	1	Precipitación	0
146128	7	Sololá	719	Santiago Atitlán	14	Cerro de Oro	4	Abril	2023-04-30T00:00:00	2024-11-08T08:00:00	8	Radiación solar	318
146129	7	Sololá	719	Santiago Atitlán	14	Cerro de Oro	4	Abril	2023-04-30T00:00:00	2024-11-08T09:00:00	2	Temperatura media	22.5
146130	7	Sololá	719	Santiago Atitlán	14	Cerro de Oro	4	Abril	2023-04-30T00:00:00	2024-11-08T09:00:00	4	Temperatura máxima	22.6
146131	7	Sololá	719	Santiago Atitlán	14	Cerro de Oro	4	Abril	2023-04-30T00:00:00	2024-11-08T09:00:00	3	Temperatura mínima	21
146132	7	Sololá	719	Santiago Atitlán	14	Cerro de Oro	4	Abril	2023-04-30T00:00:00	2024-11-08T09:00:00	5	Humedad	62
146133	7	Sololá	719	Santiago Atitlán	14	Cerro de Oro	4	Abril	2023-04-30T00:00:00	2024-11-08T09:00:00	6	Velocidad del viento	3.2
146134	7	Sololá	719	Santiago Atitlán	14	Cerro de Oro	4	Abril	2023-04-30T00:00:00	2024-11-08T09:00:00	7	Dirección del viento	3.22
146135	7	Sololá	719	Santiago Atitlán	14	Cerro de Oro	4	Abril	2023-04-30T00:00:00	2024-11-08T09:00:00	1	Precipitación	0
146136	7	Sololá	719	Santiago Atitlán	14	Cerro de Oro	4	Abril	2023-04-30T00:00:00	2024-11-08T09:00:00	8	Radiación solar	517
146137	7	Sololá	719	Santiago Atitlán	14	Cerro de Oro	4	Abril	2023-04-30T00:00:00	2024-11-08T10:00:00	2	Temperatura media	24.7
146138	7	Sololá	719	Santiago Atitlán	14	Cerro de Oro	4	Abril	2023-04-30T00:00:00	2024-11-08T10:00:00	4	Temperatura máxima	24.7
146139	7	Sololá	719	Santiago Atitlán	14	Cerro de Oro	4	Abril	2023-04-30T00:00:00	2024-11-08T10:00:00	3	Temperatura mínima	22.5
146140	7	Sololá	719	Santiago Atitlán	14	Cerro de Oro	4	Abril	2023-04-30T00:00:00	2024-11-08T10:00:00	5	Humedad	53
146141	7	Sololá	719	Santiago Atitlán	14	Cerro de Oro	4	Abril	2023-04-30T00:00:00	2024-11-08T10:00:00	6	Velocidad del viento	3.2
146142	7	Sololá	719	Santiago Atitlán	14	Cerro de Oro	4	Abril	2023-04-30T00:00:00	2024-11-08T10:00:00	7	Dirección del viento	3.22
146143	7	Sololá	719	Santiago Atitlán	14	Cerro de Oro	4	Abril	2023-04-30T00:00:00	2024-11-08T10:00:00	1	Precipitación	0
146144	7	Sololá	719	Santiago Atitlán	14	Cerro de Oro	4	Abril	2023-04-30T00:00:00	2024-11-08T10:00:00	8	Radiación solar	713
146145	7	Sololá	719	Santiago Atitlán	14	Cerro de Oro	4	Abril	2023-04-30T00:00:00	2024-11-08T11:00:00	2	Temperatura media	26.1
146146	7	Sololá	719	Santiago Atitlán	14	Cerro de Oro	4	Abril	2023-04-30T00:00:00	2024-11-08T11:00:00	4	Temperatura máxima	26.1
146147	7	Sololá	719	Santiago Atitlán	14	Cerro de Oro	4	Abril	2023-04-30T00:00:00	2024-11-08T11:00:00	3	Temperatura mínima	24.7
146148	7	Sololá	719	Santiago Atitlán	14	Cerro de Oro	4	Abril	2023-04-30T00:00:00	2024-11-08T11:00:00	5	Humedad	54
146149	7	Sololá	719	Santiago Atitlán	14	Cerro de Oro	4	Abril	2023-04-30T00:00:00	2024-11-08T11:00:00	6	Velocidad del viento	4.8
146150	7	Sololá	719	Santiago Atitlán	14	Cerro de Oro	4	Abril	2023-04-30T00:00:00	2024-11-08T11:00:00	7	Dirección del viento	4.83
146151	7	Sololá	719	Santiago Atitlán	14	Cerro de Oro	4	Abril	2023-04-30T00:00:00	2024-11-08T11:00:00	1	Precipitación	0
146152	7	Sololá	719	Santiago Atitlán	14	Cerro de Oro	4	Abril	2023-04-30T00:00:00	2024-11-08T11:00:00	8	Radiación solar	789
146153	7	Sololá	719	Santiago Atitlán	14	Cerro de Oro	4	Abril	2023-04-30T00:00:00	2024-11-08T12:00:00	2	Temperatura media	25.2
146154	7	Sololá	719	Santiago Atitlán	14	Cerro de Oro	4	Abril	2023-04-30T00:00:00	2024-11-08T12:00:00	4	Temperatura máxima	26.1
146155	7	Sololá	719	Santiago Atitlán	14	Cerro de Oro	4	Abril	2023-04-30T00:00:00	2024-11-08T12:00:00	3	Temperatura mínima	24.6
146156	7	Sololá	719	Santiago Atitlán	14	Cerro de Oro	4	Abril	2023-04-30T00:00:00	2024-11-08T12:00:00	5	Humedad	71
146157	7	Sololá	719	Santiago Atitlán	14	Cerro de Oro	4	Abril	2023-04-30T00:00:00	2024-11-08T12:00:00	6	Velocidad del viento	6.4
146158	7	Sololá	719	Santiago Atitlán	14	Cerro de Oro	4	Abril	2023-04-30T00:00:00	2024-11-08T12:00:00	7	Dirección del viento	6.44
146159	7	Sololá	719	Santiago Atitlán	14	Cerro de Oro	4	Abril	2023-04-30T00:00:00	2024-11-08T12:00:00	1	Precipitación	0
146160	7	Sololá	719	Santiago Atitlán	14	Cerro de Oro	4	Abril	2023-04-30T00:00:00	2024-11-08T12:00:00	8	Radiación solar	906
146161	7	Sololá	719	Santiago Atitlán	14	Cerro de Oro	4	Abril	2023-04-30T00:00:00	2024-11-08T13:00:00	2	Temperatura media	24.3
146162	7	Sololá	719	Santiago Atitlán	14	Cerro de Oro	4	Abril	2023-04-30T00:00:00	2024-11-08T13:00:00	4	Temperatura máxima	25.5
146163	7	Sololá	719	Santiago Atitlán	14	Cerro de Oro	4	Abril	2023-04-30T00:00:00	2024-11-08T13:00:00	3	Temperatura mínima	24.3
146164	7	Sololá	719	Santiago Atitlán	14	Cerro de Oro	4	Abril	2023-04-30T00:00:00	2024-11-08T13:00:00	5	Humedad	75
146165	7	Sololá	719	Santiago Atitlán	14	Cerro de Oro	4	Abril	2023-04-30T00:00:00	2024-11-08T13:00:00	6	Velocidad del viento	11.3
146166	7	Sololá	719	Santiago Atitlán	14	Cerro de Oro	4	Abril	2023-04-30T00:00:00	2024-11-08T13:00:00	7	Dirección del viento	11.27
146167	7	Sololá	719	Santiago Atitlán	14	Cerro de Oro	4	Abril	2023-04-30T00:00:00	2024-11-08T13:00:00	1	Precipitación	0
146168	7	Sololá	719	Santiago Atitlán	14	Cerro de Oro	4	Abril	2023-04-30T00:00:00	2024-11-08T13:00:00	8	Radiación solar	917
146169	7	Sololá	719	Santiago Atitlán	14	Cerro de Oro	4	Abril	2023-04-30T00:00:00	2024-11-08T14:00:00	2	Temperatura media	23.9
146170	7	Sololá	719	Santiago Atitlán	14	Cerro de Oro	4	Abril	2023-04-30T00:00:00	2024-11-08T14:00:00	4	Temperatura máxima	24.3
146171	7	Sololá	719	Santiago Atitlán	14	Cerro de Oro	4	Abril	2023-04-30T00:00:00	2024-11-08T14:00:00	3	Temperatura mínima	23.4
146172	7	Sololá	719	Santiago Atitlán	14	Cerro de Oro	4	Abril	2023-04-30T00:00:00	2024-11-08T14:00:00	5	Humedad	74
146173	7	Sololá	719	Santiago Atitlán	14	Cerro de Oro	4	Abril	2023-04-30T00:00:00	2024-11-08T14:00:00	6	Velocidad del viento	16.1
146174	7	Sololá	719	Santiago Atitlán	14	Cerro de Oro	4	Abril	2023-04-30T00:00:00	2024-11-08T14:00:00	7	Dirección del viento	16.09
146175	7	Sololá	719	Santiago Atitlán	14	Cerro de Oro	4	Abril	2023-04-30T00:00:00	2024-11-08T14:00:00	1	Precipitación	0
146176	7	Sololá	719	Santiago Atitlán	14	Cerro de Oro	4	Abril	2023-04-30T00:00:00	2024-11-08T14:00:00	8	Radiación solar	770
146177	7	Sololá	719	Santiago Atitlán	14	Cerro de Oro	4	Abril	2023-04-30T00:00:00	2024-11-08T15:00:00	2	Temperatura media	23.6
146178	7	Sololá	719	Santiago Atitlán	14	Cerro de Oro	4	Abril	2023-04-30T00:00:00	2024-11-08T15:00:00	4	Temperatura máxima	24.8
146179	7	Sololá	719	Santiago Atitlán	14	Cerro de Oro	4	Abril	2023-04-30T00:00:00	2024-11-08T15:00:00	3	Temperatura mínima	23.6
146180	7	Sololá	719	Santiago Atitlán	14	Cerro de Oro	4	Abril	2023-04-30T00:00:00	2024-11-08T15:00:00	5	Humedad	74
146181	7	Sololá	719	Santiago Atitlán	14	Cerro de Oro	4	Abril	2023-04-30T00:00:00	2024-11-08T15:00:00	6	Velocidad del viento	12.9
146182	7	Sololá	719	Santiago Atitlán	14	Cerro de Oro	4	Abril	2023-04-30T00:00:00	2024-11-08T15:00:00	7	Dirección del viento	12.87
146183	7	Sololá	719	Santiago Atitlán	14	Cerro de Oro	4	Abril	2023-04-30T00:00:00	2024-11-08T15:00:00	1	Precipitación	0
146184	7	Sololá	719	Santiago Atitlán	14	Cerro de Oro	4	Abril	2023-04-30T00:00:00	2024-11-08T15:00:00	8	Radiación solar	270
146185	7	Sololá	719	Santiago Atitlán	14	Cerro de Oro	4	Abril	2023-04-30T00:00:00	2024-11-08T16:00:00	2	Temperatura media	22.5
146186	7	Sololá	719	Santiago Atitlán	14	Cerro de Oro	4	Abril	2023-04-30T00:00:00	2024-11-08T16:00:00	4	Temperatura máxima	23.8
146187	7	Sololá	719	Santiago Atitlán	14	Cerro de Oro	4	Abril	2023-04-30T00:00:00	2024-11-08T16:00:00	3	Temperatura mínima	22.5
146188	7	Sololá	719	Santiago Atitlán	14	Cerro de Oro	4	Abril	2023-04-30T00:00:00	2024-11-08T16:00:00	5	Humedad	80
146189	7	Sololá	719	Santiago Atitlán	14	Cerro de Oro	4	Abril	2023-04-30T00:00:00	2024-11-08T16:00:00	6	Velocidad del viento	11.3
146190	7	Sololá	719	Santiago Atitlán	14	Cerro de Oro	4	Abril	2023-04-30T00:00:00	2024-11-08T16:00:00	7	Dirección del viento	11.27
146191	7	Sololá	719	Santiago Atitlán	14	Cerro de Oro	4	Abril	2023-04-30T00:00:00	2024-11-08T16:00:00	1	Precipitación	0
146192	7	Sololá	719	Santiago Atitlán	14	Cerro de Oro	4	Abril	2023-04-30T00:00:00	2024-11-08T16:00:00	8	Radiación solar	210
146193	7	Sololá	719	Santiago Atitlán	14	Cerro de Oro	4	Abril	2023-04-30T00:00:00	2024-11-08T17:00:00	2	Temperatura media	21.9
146194	7	Sololá	719	Santiago Atitlán	14	Cerro de Oro	4	Abril	2023-04-30T00:00:00	2024-11-08T17:00:00	4	Temperatura máxima	22.5
146195	7	Sololá	719	Santiago Atitlán	14	Cerro de Oro	4	Abril	2023-04-30T00:00:00	2024-11-08T17:00:00	3	Temperatura mínima	21.8
146196	7	Sololá	719	Santiago Atitlán	14	Cerro de Oro	4	Abril	2023-04-30T00:00:00	2024-11-08T17:00:00	5	Humedad	83
146197	7	Sololá	719	Santiago Atitlán	14	Cerro de Oro	4	Abril	2023-04-30T00:00:00	2024-11-08T17:00:00	6	Velocidad del viento	9.7
146198	7	Sololá	719	Santiago Atitlán	14	Cerro de Oro	4	Abril	2023-04-30T00:00:00	2024-11-08T17:00:00	7	Dirección del viento	9.66
146199	7	Sololá	719	Santiago Atitlán	14	Cerro de Oro	4	Abril	2023-04-30T00:00:00	2024-11-08T17:00:00	1	Precipitación	0
146200	7	Sololá	719	Santiago Atitlán	14	Cerro de Oro	4	Abril	2023-04-30T00:00:00	2024-11-08T17:00:00	8	Radiación solar	137
146201	7	Sololá	719	Santiago Atitlán	14	Cerro de Oro	4	Abril	2023-04-30T00:00:00	2024-11-08T18:00:00	2	Temperatura media	21.3
146202	7	Sololá	719	Santiago Atitlán	14	Cerro de Oro	4	Abril	2023-04-30T00:00:00	2024-11-08T18:00:00	4	Temperatura máxima	21.9
146203	7	Sololá	719	Santiago Atitlán	14	Cerro de Oro	4	Abril	2023-04-30T00:00:00	2024-11-08T18:00:00	3	Temperatura mínima	21.2
146204	7	Sololá	719	Santiago Atitlán	14	Cerro de Oro	4	Abril	2023-04-30T00:00:00	2024-11-08T18:00:00	5	Humedad	84
146205	7	Sololá	719	Santiago Atitlán	14	Cerro de Oro	4	Abril	2023-04-30T00:00:00	2024-11-08T18:00:00	6	Velocidad del viento	9.7
146206	7	Sololá	719	Santiago Atitlán	14	Cerro de Oro	4	Abril	2023-04-30T00:00:00	2024-11-08T18:00:00	7	Dirección del viento	9.66
146207	7	Sololá	719	Santiago Atitlán	14	Cerro de Oro	4	Abril	2023-04-30T00:00:00	2024-11-08T18:00:00	1	Precipitación	0
146208	7	Sololá	719	Santiago Atitlán	14	Cerro de Oro	4	Abril	2023-04-30T00:00:00	2024-11-08T18:00:00	8	Radiación solar	52
146209	7	Sololá	719	Santiago Atitlán	14	Cerro de Oro	4	Abril	2023-04-30T00:00:00	2024-11-08T19:00:00	2	Temperatura media	21.4
146210	7	Sololá	719	Santiago Atitlán	14	Cerro de Oro	4	Abril	2023-04-30T00:00:00	2024-11-08T19:00:00	4	Temperatura máxima	21.6
146211	7	Sololá	719	Santiago Atitlán	14	Cerro de Oro	4	Abril	2023-04-30T00:00:00	2024-11-08T19:00:00	3	Temperatura mínima	21.2
146212	7	Sololá	719	Santiago Atitlán	14	Cerro de Oro	4	Abril	2023-04-30T00:00:00	2024-11-08T19:00:00	5	Humedad	83
146213	7	Sololá	719	Santiago Atitlán	14	Cerro de Oro	4	Abril	2023-04-30T00:00:00	2024-11-08T19:00:00	6	Velocidad del viento	4.8
146214	7	Sololá	719	Santiago Atitlán	14	Cerro de Oro	4	Abril	2023-04-30T00:00:00	2024-11-08T19:00:00	7	Dirección del viento	4.83
146215	7	Sololá	719	Santiago Atitlán	14	Cerro de Oro	4	Abril	2023-04-30T00:00:00	2024-11-08T19:00:00	1	Precipitación	0
146216	7	Sololá	719	Santiago Atitlán	14	Cerro de Oro	4	Abril	2023-04-30T00:00:00	2024-11-08T19:00:00	8	Radiación solar	0
146217	7	Sololá	719	Santiago Atitlán	14	Cerro de Oro	4	Abril	2023-04-30T00:00:00	2024-11-08T20:00:00	2	Temperatura media	20.7
146218	7	Sololá	719	Santiago Atitlán	14	Cerro de Oro	4	Abril	2023-04-30T00:00:00	2024-11-08T20:00:00	4	Temperatura máxima	21.4
146219	7	Sololá	719	Santiago Atitlán	14	Cerro de Oro	4	Abril	2023-04-30T00:00:00	2024-11-08T20:00:00	3	Temperatura mínima	20.4
146220	7	Sololá	719	Santiago Atitlán	14	Cerro de Oro	4	Abril	2023-04-30T00:00:00	2024-11-08T20:00:00	5	Humedad	82
146221	7	Sololá	719	Santiago Atitlán	14	Cerro de Oro	4	Abril	2023-04-30T00:00:00	2024-11-08T20:00:00	6	Velocidad del viento	3.2
146222	7	Sololá	719	Santiago Atitlán	14	Cerro de Oro	4	Abril	2023-04-30T00:00:00	2024-11-08T20:00:00	7	Dirección del viento	3.22
146223	7	Sololá	719	Santiago Atitlán	14	Cerro de Oro	4	Abril	2023-04-30T00:00:00	2024-11-08T20:00:00	1	Precipitación	0
146224	7	Sololá	719	Santiago Atitlán	14	Cerro de Oro	4	Abril	2023-04-30T00:00:00	2024-11-08T20:00:00	8	Radiación solar	0
146225	7	Sololá	719	Santiago Atitlán	14	Cerro de Oro	4	Abril	2023-04-30T00:00:00	2024-11-08T21:00:00	2	Temperatura media	21.5
146226	7	Sololá	719	Santiago Atitlán	14	Cerro de Oro	4	Abril	2023-04-30T00:00:00	2024-11-08T21:00:00	4	Temperatura máxima	21.8
146227	7	Sololá	719	Santiago Atitlán	14	Cerro de Oro	4	Abril	2023-04-30T00:00:00	2024-11-08T21:00:00	3	Temperatura mínima	20.7
146228	7	Sololá	719	Santiago Atitlán	14	Cerro de Oro	4	Abril	2023-04-30T00:00:00	2024-11-08T21:00:00	5	Humedad	70
146229	7	Sololá	719	Santiago Atitlán	14	Cerro de Oro	4	Abril	2023-04-30T00:00:00	2024-11-08T21:00:00	6	Velocidad del viento	6.4
146230	7	Sololá	719	Santiago Atitlán	14	Cerro de Oro	4	Abril	2023-04-30T00:00:00	2024-11-08T21:00:00	7	Dirección del viento	6.44
146231	7	Sololá	719	Santiago Atitlán	14	Cerro de Oro	4	Abril	2023-04-30T00:00:00	2024-11-08T21:00:00	1	Precipitación	0
146232	7	Sololá	719	Santiago Atitlán	14	Cerro de Oro	4	Abril	2023-04-30T00:00:00	2024-11-08T21:00:00	8	Radiación solar	0
146233	7	Sololá	719	Santiago Atitlán	14	Cerro de Oro	4	Abril	2023-04-30T00:00:00	2024-11-08T22:00:00	2	Temperatura media	20.8
146234	7	Sololá	719	Santiago Atitlán	14	Cerro de Oro	4	Abril	2023-04-30T00:00:00	2024-11-08T22:00:00	4	Temperatura máxima	21.6
146235	7	Sololá	719	Santiago Atitlán	14	Cerro de Oro	4	Abril	2023-04-30T00:00:00	2024-11-08T22:00:00	3	Temperatura mínima	20.8
146236	7	Sololá	719	Santiago Atitlán	14	Cerro de Oro	4	Abril	2023-04-30T00:00:00	2024-11-08T22:00:00	5	Humedad	71
146237	7	Sololá	719	Santiago Atitlán	14	Cerro de Oro	4	Abril	2023-04-30T00:00:00	2024-11-08T22:00:00	6	Velocidad del viento	4.8
146238	7	Sololá	719	Santiago Atitlán	14	Cerro de Oro	4	Abril	2023-04-30T00:00:00	2024-11-08T22:00:00	7	Dirección del viento	4.83
146239	7	Sololá	719	Santiago Atitlán	14	Cerro de Oro	4	Abril	2023-04-30T00:00:00	2024-11-08T22:00:00	1	Precipitación	0
146240	7	Sololá	719	Santiago Atitlán	14	Cerro de Oro	4	Abril	2023-04-30T00:00:00	2024-11-08T22:00:00	8	Radiación solar	0
146241	7	Sololá	719	Santiago Atitlán	14	Cerro de Oro	4	Abril	2023-04-30T00:00:00	2024-11-08T23:00:00	2	Temperatura media	21
146242	7	Sololá	719	Santiago Atitlán	14	Cerro de Oro	4	Abril	2023-04-30T00:00:00	2024-11-08T23:00:00	4	Temperatura máxima	21.2
146243	7	Sololá	719	Santiago Atitlán	14	Cerro de Oro	4	Abril	2023-04-30T00:00:00	2024-11-08T23:00:00	3	Temperatura mínima	20.6
146244	7	Sololá	719	Santiago Atitlán	14	Cerro de Oro	4	Abril	2023-04-30T00:00:00	2024-11-08T23:00:00	5	Humedad	71
146245	7	Sololá	719	Santiago Atitlán	14	Cerro de Oro	4	Abril	2023-04-30T00:00:00	2024-11-08T23:00:00	6	Velocidad del viento	8
146246	7	Sololá	719	Santiago Atitlán	14	Cerro de Oro	4	Abril	2023-04-30T00:00:00	2024-11-08T23:00:00	7	Dirección del viento	8.05
146247	7	Sololá	719	Santiago Atitlán	14	Cerro de Oro	4	Abril	2023-04-30T00:00:00	2024-11-08T23:00:00	1	Precipitación	0
146248	7	Sololá	719	Santiago Atitlán	14	Cerro de Oro	4	Abril	2023-04-30T00:00:00	2024-11-08T23:00:00	8	Radiación solar	0
146249	7	Sololá	719	Santiago Atitlán	14	Cerro de Oro	5	Mayo	2023-01-05T00:00:00	2024-11-08T00:00:00	2	Temperatura media	20.7
146250	7	Sololá	719	Santiago Atitlán	14	Cerro de Oro	5	Mayo	2023-01-05T00:00:00	2024-11-08T00:00:00	4	Temperatura máxima	21.1
146251	7	Sololá	719	Santiago Atitlán	14	Cerro de Oro	5	Mayo	2023-01-05T00:00:00	2024-11-08T00:00:00	3	Temperatura mínima	20.7
146252	7	Sololá	719	Santiago Atitlán	14	Cerro de Oro	5	Mayo	2023-01-05T00:00:00	2024-11-08T00:00:00	5	Humedad	70
146253	7	Sololá	719	Santiago Atitlán	14	Cerro de Oro	5	Mayo	2023-01-05T00:00:00	2024-11-08T00:00:00	6	Velocidad del viento	11.3
146254	7	Sololá	719	Santiago Atitlán	14	Cerro de Oro	5	Mayo	2023-01-05T00:00:00	2024-11-08T00:00:00	7	Dirección del viento	11.27
146255	7	Sololá	719	Santiago Atitlán	14	Cerro de Oro	5	Mayo	2023-01-05T00:00:00	2024-11-08T00:00:00	1	Precipitación	0
146256	7	Sololá	719	Santiago Atitlán	14	Cerro de Oro	5	Mayo	2023-01-05T00:00:00	2024-11-08T00:00:00	8	Radiación solar	0
146257	7	Sololá	719	Santiago Atitlán	14	Cerro de Oro	5	Mayo	2023-01-05T00:00:00	2024-11-08T01:00:00	2	Temperatura media	19.9
146258	7	Sololá	719	Santiago Atitlán	14	Cerro de Oro	5	Mayo	2023-01-05T00:00:00	2024-11-08T01:00:00	4	Temperatura máxima	20.8
146259	7	Sololá	719	Santiago Atitlán	14	Cerro de Oro	5	Mayo	2023-01-05T00:00:00	2024-11-08T01:00:00	3	Temperatura mínima	19.7
146260	7	Sololá	719	Santiago Atitlán	14	Cerro de Oro	5	Mayo	2023-01-05T00:00:00	2024-11-08T01:00:00	5	Humedad	71
146261	7	Sololá	719	Santiago Atitlán	14	Cerro de Oro	5	Mayo	2023-01-05T00:00:00	2024-11-08T01:00:00	6	Velocidad del viento	12.9
146262	7	Sololá	719	Santiago Atitlán	14	Cerro de Oro	5	Mayo	2023-01-05T00:00:00	2024-11-08T01:00:00	7	Dirección del viento	12.87
146263	7	Sololá	719	Santiago Atitlán	14	Cerro de Oro	5	Mayo	2023-01-05T00:00:00	2024-11-08T01:00:00	1	Precipitación	0
146264	7	Sololá	719	Santiago Atitlán	14	Cerro de Oro	5	Mayo	2023-01-05T00:00:00	2024-11-08T01:00:00	8	Radiación solar	0
146265	7	Sololá	719	Santiago Atitlán	14	Cerro de Oro	5	Mayo	2023-01-05T00:00:00	2024-11-08T02:00:00	2	Temperatura media	19.5
146266	7	Sololá	719	Santiago Atitlán	14	Cerro de Oro	5	Mayo	2023-01-05T00:00:00	2024-11-08T02:00:00	4	Temperatura máxima	19.9
146267	7	Sololá	719	Santiago Atitlán	14	Cerro de Oro	5	Mayo	2023-01-05T00:00:00	2024-11-08T02:00:00	3	Temperatura mínima	19.5
146268	7	Sololá	719	Santiago Atitlán	14	Cerro de Oro	5	Mayo	2023-01-05T00:00:00	2024-11-08T02:00:00	5	Humedad	72
146269	7	Sololá	719	Santiago Atitlán	14	Cerro de Oro	5	Mayo	2023-01-05T00:00:00	2024-11-08T02:00:00	6	Velocidad del viento	9.7
146270	7	Sololá	719	Santiago Atitlán	14	Cerro de Oro	5	Mayo	2023-01-05T00:00:00	2024-11-08T02:00:00	7	Dirección del viento	9.66
146271	7	Sololá	719	Santiago Atitlán	14	Cerro de Oro	5	Mayo	2023-01-05T00:00:00	2024-11-08T02:00:00	1	Precipitación	0
146272	7	Sololá	719	Santiago Atitlán	14	Cerro de Oro	5	Mayo	2023-01-05T00:00:00	2024-11-08T02:00:00	8	Radiación solar	0
146273	7	Sololá	719	Santiago Atitlán	14	Cerro de Oro	5	Mayo	2023-01-05T00:00:00	2024-11-08T03:00:00	2	Temperatura media	18.8
146274	7	Sololá	719	Santiago Atitlán	14	Cerro de Oro	5	Mayo	2023-01-05T00:00:00	2024-11-08T03:00:00	4	Temperatura máxima	19.5
146275	7	Sololá	719	Santiago Atitlán	14	Cerro de Oro	5	Mayo	2023-01-05T00:00:00	2024-11-08T03:00:00	3	Temperatura mínima	17.9
146276	7	Sololá	719	Santiago Atitlán	14	Cerro de Oro	5	Mayo	2023-01-05T00:00:00	2024-11-08T03:00:00	5	Humedad	75
146277	7	Sololá	719	Santiago Atitlán	14	Cerro de Oro	5	Mayo	2023-01-05T00:00:00	2024-11-08T03:00:00	6	Velocidad del viento	6.4
146278	7	Sololá	719	Santiago Atitlán	14	Cerro de Oro	5	Mayo	2023-01-05T00:00:00	2024-11-08T03:00:00	7	Dirección del viento	6.44
146279	7	Sololá	719	Santiago Atitlán	14	Cerro de Oro	5	Mayo	2023-01-05T00:00:00	2024-11-08T03:00:00	1	Precipitación	0
146280	7	Sololá	719	Santiago Atitlán	14	Cerro de Oro	5	Mayo	2023-01-05T00:00:00	2024-11-08T03:00:00	8	Radiación solar	0
146281	7	Sololá	719	Santiago Atitlán	14	Cerro de Oro	5	Mayo	2023-01-05T00:00:00	2024-11-08T04:00:00	2	Temperatura media	18.4
146282	7	Sololá	719	Santiago Atitlán	14	Cerro de Oro	5	Mayo	2023-01-05T00:00:00	2024-11-08T04:00:00	4	Temperatura máxima	19.9
146283	7	Sololá	719	Santiago Atitlán	14	Cerro de Oro	5	Mayo	2023-01-05T00:00:00	2024-11-08T04:00:00	3	Temperatura mínima	18.3
146284	7	Sololá	719	Santiago Atitlán	14	Cerro de Oro	5	Mayo	2023-01-05T00:00:00	2024-11-08T04:00:00	5	Humedad	76
146285	7	Sololá	719	Santiago Atitlán	14	Cerro de Oro	5	Mayo	2023-01-05T00:00:00	2024-11-08T04:00:00	6	Velocidad del viento	8
146286	7	Sololá	719	Santiago Atitlán	14	Cerro de Oro	5	Mayo	2023-01-05T00:00:00	2024-11-08T04:00:00	7	Dirección del viento	8.05
146287	7	Sololá	719	Santiago Atitlán	14	Cerro de Oro	5	Mayo	2023-01-05T00:00:00	2024-11-08T04:00:00	1	Precipitación	0
146288	7	Sololá	719	Santiago Atitlán	14	Cerro de Oro	5	Mayo	2023-01-05T00:00:00	2024-11-08T04:00:00	8	Radiación solar	0
146289	7	Sololá	719	Santiago Atitlán	14	Cerro de Oro	5	Mayo	2023-01-05T00:00:00	2024-11-08T05:00:00	2	Temperatura media	18.2
146290	7	Sololá	719	Santiago Atitlán	14	Cerro de Oro	5	Mayo	2023-01-05T00:00:00	2024-11-08T05:00:00	4	Temperatura máxima	18.7
146291	7	Sololá	719	Santiago Atitlán	14	Cerro de Oro	5	Mayo	2023-01-05T00:00:00	2024-11-08T05:00:00	3	Temperatura mínima	18.2
146292	7	Sololá	719	Santiago Atitlán	14	Cerro de Oro	5	Mayo	2023-01-05T00:00:00	2024-11-08T05:00:00	5	Humedad	78
146293	7	Sololá	719	Santiago Atitlán	14	Cerro de Oro	5	Mayo	2023-01-05T00:00:00	2024-11-08T05:00:00	6	Velocidad del viento	4.8
146294	7	Sololá	719	Santiago Atitlán	14	Cerro de Oro	5	Mayo	2023-01-05T00:00:00	2024-11-08T05:00:00	7	Dirección del viento	4.83
146295	7	Sololá	719	Santiago Atitlán	14	Cerro de Oro	5	Mayo	2023-01-05T00:00:00	2024-11-08T05:00:00	1	Precipitación	0
146296	7	Sololá	719	Santiago Atitlán	14	Cerro de Oro	5	Mayo	2023-01-05T00:00:00	2024-11-08T05:00:00	8	Radiación solar	0
146297	7	Sololá	719	Santiago Atitlán	14	Cerro de Oro	5	Mayo	2023-01-05T00:00:00	2024-11-08T06:00:00	2	Temperatura media	18.2
146298	7	Sololá	719	Santiago Atitlán	14	Cerro de Oro	5	Mayo	2023-01-05T00:00:00	2024-11-08T06:00:00	4	Temperatura máxima	18.3
146299	7	Sololá	719	Santiago Atitlán	14	Cerro de Oro	5	Mayo	2023-01-05T00:00:00	2024-11-08T06:00:00	3	Temperatura mínima	17.7
146300	7	Sololá	719	Santiago Atitlán	14	Cerro de Oro	5	Mayo	2023-01-05T00:00:00	2024-11-08T06:00:00	5	Humedad	75
146301	7	Sololá	719	Santiago Atitlán	14	Cerro de Oro	5	Mayo	2023-01-05T00:00:00	2024-11-08T06:00:00	6	Velocidad del viento	4.8
146302	7	Sololá	719	Santiago Atitlán	14	Cerro de Oro	5	Mayo	2023-01-05T00:00:00	2024-11-08T06:00:00	7	Dirección del viento	4.83
146303	7	Sololá	719	Santiago Atitlán	14	Cerro de Oro	5	Mayo	2023-01-05T00:00:00	2024-11-08T06:00:00	1	Precipitación	0
146304	7	Sololá	719	Santiago Atitlán	14	Cerro de Oro	5	Mayo	2023-01-05T00:00:00	2024-11-08T06:00:00	8	Radiación solar	0
146305	7	Sololá	719	Santiago Atitlán	14	Cerro de Oro	5	Mayo	2023-01-05T00:00:00	2024-11-08T07:00:00	2	Temperatura media	17.4
146306	7	Sololá	719	Santiago Atitlán	14	Cerro de Oro	5	Mayo	2023-01-05T00:00:00	2024-11-08T07:00:00	4	Temperatura máxima	18.2
146307	7	Sololá	719	Santiago Atitlán	14	Cerro de Oro	5	Mayo	2023-01-05T00:00:00	2024-11-08T07:00:00	3	Temperatura mínima	17.4
146308	7	Sololá	719	Santiago Atitlán	14	Cerro de Oro	5	Mayo	2023-01-05T00:00:00	2024-11-08T07:00:00	5	Humedad	79
146309	7	Sololá	719	Santiago Atitlán	14	Cerro de Oro	5	Mayo	2023-01-05T00:00:00	2024-11-08T07:00:00	6	Velocidad del viento	3.2
146310	7	Sololá	719	Santiago Atitlán	14	Cerro de Oro	5	Mayo	2023-01-05T00:00:00	2024-11-08T07:00:00	7	Dirección del viento	3.22
146311	7	Sololá	719	Santiago Atitlán	14	Cerro de Oro	5	Mayo	2023-01-05T00:00:00	2024-11-08T07:00:00	1	Precipitación	0
146312	7	Sololá	719	Santiago Atitlán	14	Cerro de Oro	5	Mayo	2023-01-05T00:00:00	2024-11-08T07:00:00	8	Radiación solar	2
146313	7	Sololá	719	Santiago Atitlán	14	Cerro de Oro	5	Mayo	2023-01-05T00:00:00	2024-11-08T08:00:00	2	Temperatura media	19.5
146314	7	Sololá	719	Santiago Atitlán	14	Cerro de Oro	5	Mayo	2023-01-05T00:00:00	2024-11-08T08:00:00	4	Temperatura máxima	19.5
146315	7	Sololá	719	Santiago Atitlán	14	Cerro de Oro	5	Mayo	2023-01-05T00:00:00	2024-11-08T08:00:00	3	Temperatura mínima	17.4
146316	7	Sololá	719	Santiago Atitlán	14	Cerro de Oro	5	Mayo	2023-01-05T00:00:00	2024-11-08T08:00:00	5	Humedad	72
146317	7	Sololá	719	Santiago Atitlán	14	Cerro de Oro	5	Mayo	2023-01-05T00:00:00	2024-11-08T08:00:00	6	Velocidad del viento	3.2
146318	7	Sololá	719	Santiago Atitlán	14	Cerro de Oro	5	Mayo	2023-01-05T00:00:00	2024-11-08T08:00:00	7	Dirección del viento	3.22
146319	7	Sololá	719	Santiago Atitlán	14	Cerro de Oro	5	Mayo	2023-01-05T00:00:00	2024-11-08T08:00:00	1	Precipitación	0
146320	7	Sololá	719	Santiago Atitlán	14	Cerro de Oro	5	Mayo	2023-01-05T00:00:00	2024-11-08T08:00:00	8	Radiación solar	92
146321	7	Sololá	719	Santiago Atitlán	14	Cerro de Oro	5	Mayo	2023-01-05T00:00:00	2024-11-08T09:00:00	2	Temperatura media	20.8
146322	7	Sololá	719	Santiago Atitlán	14	Cerro de Oro	5	Mayo	2023-01-05T00:00:00	2024-11-08T09:00:00	4	Temperatura máxima	20.8
146323	7	Sololá	719	Santiago Atitlán	14	Cerro de Oro	5	Mayo	2023-01-05T00:00:00	2024-11-08T09:00:00	3	Temperatura mínima	19.5
146324	7	Sololá	719	Santiago Atitlán	14	Cerro de Oro	5	Mayo	2023-01-05T00:00:00	2024-11-08T09:00:00	5	Humedad	70
146325	7	Sololá	719	Santiago Atitlán	14	Cerro de Oro	5	Mayo	2023-01-05T00:00:00	2024-11-08T09:00:00	6	Velocidad del viento	3.2
146326	7	Sololá	719	Santiago Atitlán	14	Cerro de Oro	5	Mayo	2023-01-05T00:00:00	2024-11-08T09:00:00	7	Dirección del viento	3.22
146327	7	Sololá	719	Santiago Atitlán	14	Cerro de Oro	5	Mayo	2023-01-05T00:00:00	2024-11-08T09:00:00	1	Precipitación	0
146328	7	Sololá	719	Santiago Atitlán	14	Cerro de Oro	5	Mayo	2023-01-05T00:00:00	2024-11-08T09:00:00	8	Radiación solar	295
146329	7	Sololá	719	Santiago Atitlán	14	Cerro de Oro	5	Mayo	2023-01-05T00:00:00	2024-11-08T10:00:00	2	Temperatura media	21.7
146330	7	Sololá	719	Santiago Atitlán	14	Cerro de Oro	5	Mayo	2023-01-05T00:00:00	2024-11-08T10:00:00	4	Temperatura máxima	21.8
146331	7	Sololá	719	Santiago Atitlán	14	Cerro de Oro	5	Mayo	2023-01-05T00:00:00	2024-11-08T10:00:00	3	Temperatura mínima	20.8
146332	7	Sololá	719	Santiago Atitlán	14	Cerro de Oro	5	Mayo	2023-01-05T00:00:00	2024-11-08T10:00:00	5	Humedad	69
146333	7	Sololá	719	Santiago Atitlán	14	Cerro de Oro	5	Mayo	2023-01-05T00:00:00	2024-11-08T10:00:00	6	Velocidad del viento	4.8
146334	7	Sololá	719	Santiago Atitlán	14	Cerro de Oro	5	Mayo	2023-01-05T00:00:00	2024-11-08T10:00:00	7	Dirección del viento	4.83
146335	7	Sololá	719	Santiago Atitlán	14	Cerro de Oro	5	Mayo	2023-01-05T00:00:00	2024-11-08T10:00:00	1	Precipitación	0
146336	7	Sololá	719	Santiago Atitlán	14	Cerro de Oro	5	Mayo	2023-01-05T00:00:00	2024-11-08T10:00:00	8	Radiación solar	509
146337	7	Sololá	719	Santiago Atitlán	14	Cerro de Oro	5	Mayo	2023-01-05T00:00:00	2024-11-08T11:00:00	2	Temperatura media	22.7
146338	7	Sololá	719	Santiago Atitlán	14	Cerro de Oro	5	Mayo	2023-01-05T00:00:00	2024-11-08T11:00:00	4	Temperatura máxima	22.7
146339	7	Sololá	719	Santiago Atitlán	14	Cerro de Oro	5	Mayo	2023-01-05T00:00:00	2024-11-08T11:00:00	3	Temperatura mínima	21.4
146340	7	Sololá	719	Santiago Atitlán	14	Cerro de Oro	5	Mayo	2023-01-05T00:00:00	2024-11-08T11:00:00	5	Humedad	69
146341	7	Sololá	719	Santiago Atitlán	14	Cerro de Oro	5	Mayo	2023-01-05T00:00:00	2024-11-08T11:00:00	6	Velocidad del viento	4.8
146342	7	Sololá	719	Santiago Atitlán	14	Cerro de Oro	5	Mayo	2023-01-05T00:00:00	2024-11-08T11:00:00	7	Dirección del viento	4.83
146343	7	Sololá	719	Santiago Atitlán	14	Cerro de Oro	5	Mayo	2023-01-05T00:00:00	2024-11-08T11:00:00	1	Precipitación	0
146344	7	Sololá	719	Santiago Atitlán	14	Cerro de Oro	5	Mayo	2023-01-05T00:00:00	2024-11-08T11:00:00	8	Radiación solar	666
146345	7	Sololá	719	Santiago Atitlán	14	Cerro de Oro	5	Mayo	2023-01-05T00:00:00	2024-11-08T12:00:00	2	Temperatura media	23.4
146346	7	Sololá	719	Santiago Atitlán	14	Cerro de Oro	5	Mayo	2023-01-05T00:00:00	2024-11-08T12:00:00	4	Temperatura máxima	23.4
146347	7	Sololá	719	Santiago Atitlán	14	Cerro de Oro	5	Mayo	2023-01-05T00:00:00	2024-11-08T12:00:00	3	Temperatura mínima	22.6
146348	7	Sololá	719	Santiago Atitlán	14	Cerro de Oro	5	Mayo	2023-01-05T00:00:00	2024-11-08T12:00:00	5	Humedad	67
146349	7	Sololá	719	Santiago Atitlán	14	Cerro de Oro	5	Mayo	2023-01-05T00:00:00	2024-11-08T12:00:00	6	Velocidad del viento	4.8
146350	7	Sololá	719	Santiago Atitlán	14	Cerro de Oro	5	Mayo	2023-01-05T00:00:00	2024-11-08T12:00:00	7	Dirección del viento	4.83
146351	7	Sololá	719	Santiago Atitlán	14	Cerro de Oro	5	Mayo	2023-01-05T00:00:00	2024-11-08T12:00:00	1	Precipitación	0
146352	7	Sololá	719	Santiago Atitlán	14	Cerro de Oro	5	Mayo	2023-01-05T00:00:00	2024-11-08T12:00:00	8	Radiación solar	806
146353	7	Sololá	719	Santiago Atitlán	14	Cerro de Oro	5	Mayo	2023-01-05T00:00:00	2024-11-08T13:00:00	2	Temperatura media	24.6
146354	7	Sololá	719	Santiago Atitlán	14	Cerro de Oro	5	Mayo	2023-01-05T00:00:00	2024-11-08T13:00:00	4	Temperatura máxima	25.2
146355	7	Sololá	719	Santiago Atitlán	14	Cerro de Oro	5	Mayo	2023-01-05T00:00:00	2024-11-08T13:00:00	3	Temperatura mínima	23.4
146356	7	Sololá	719	Santiago Atitlán	14	Cerro de Oro	5	Mayo	2023-01-05T00:00:00	2024-11-08T13:00:00	5	Humedad	68
146357	7	Sololá	719	Santiago Atitlán	14	Cerro de Oro	5	Mayo	2023-01-05T00:00:00	2024-11-08T13:00:00	6	Velocidad del viento	11.3
146358	7	Sololá	719	Santiago Atitlán	14	Cerro de Oro	5	Mayo	2023-01-05T00:00:00	2024-11-08T13:00:00	7	Dirección del viento	11.27
146359	7	Sololá	719	Santiago Atitlán	14	Cerro de Oro	5	Mayo	2023-01-05T00:00:00	2024-11-08T13:00:00	1	Precipitación	0
146360	7	Sololá	719	Santiago Atitlán	14	Cerro de Oro	5	Mayo	2023-01-05T00:00:00	2024-11-08T13:00:00	8	Radiación solar	905
146361	7	Sololá	719	Santiago Atitlán	14	Cerro de Oro	5	Mayo	2023-01-05T00:00:00	2024-11-08T14:00:00	2	Temperatura media	23.9
146362	7	Sololá	719	Santiago Atitlán	14	Cerro de Oro	5	Mayo	2023-01-05T00:00:00	2024-11-08T14:00:00	4	Temperatura máxima	24.8
146363	7	Sololá	719	Santiago Atitlán	14	Cerro de Oro	5	Mayo	2023-01-05T00:00:00	2024-11-08T14:00:00	3	Temperatura mínima	23.5
146364	7	Sololá	719	Santiago Atitlán	14	Cerro de Oro	5	Mayo	2023-01-05T00:00:00	2024-11-08T14:00:00	5	Humedad	72
146365	7	Sololá	719	Santiago Atitlán	14	Cerro de Oro	5	Mayo	2023-01-05T00:00:00	2024-11-08T14:00:00	6	Velocidad del viento	14.5
146366	7	Sololá	719	Santiago Atitlán	14	Cerro de Oro	5	Mayo	2023-01-05T00:00:00	2024-11-08T14:00:00	7	Dirección del viento	14.48
146367	7	Sololá	719	Santiago Atitlán	14	Cerro de Oro	5	Mayo	2023-01-05T00:00:00	2024-11-08T14:00:00	1	Precipitación	0
146368	7	Sololá	719	Santiago Atitlán	14	Cerro de Oro	5	Mayo	2023-01-05T00:00:00	2024-11-08T14:00:00	8	Radiación solar	621
146369	7	Sololá	719	Santiago Atitlán	14	Cerro de Oro	5	Mayo	2023-01-05T00:00:00	2024-11-08T15:00:00	2	Temperatura media	23.9
146370	7	Sololá	719	Santiago Atitlán	14	Cerro de Oro	5	Mayo	2023-01-05T00:00:00	2024-11-08T15:00:00	4	Temperatura máxima	24.4
146371	7	Sololá	719	Santiago Atitlán	14	Cerro de Oro	5	Mayo	2023-01-05T00:00:00	2024-11-08T15:00:00	3	Temperatura mínima	23.5
146372	7	Sololá	719	Santiago Atitlán	14	Cerro de Oro	5	Mayo	2023-01-05T00:00:00	2024-11-08T15:00:00	5	Humedad	72
146373	7	Sololá	719	Santiago Atitlán	14	Cerro de Oro	5	Mayo	2023-01-05T00:00:00	2024-11-08T15:00:00	6	Velocidad del viento	14.5
146374	7	Sololá	719	Santiago Atitlán	14	Cerro de Oro	5	Mayo	2023-01-05T00:00:00	2024-11-08T15:00:00	7	Dirección del viento	14.48
146375	7	Sololá	719	Santiago Atitlán	14	Cerro de Oro	5	Mayo	2023-01-05T00:00:00	2024-11-08T15:00:00	1	Precipitación	0
146376	7	Sololá	719	Santiago Atitlán	14	Cerro de Oro	5	Mayo	2023-01-05T00:00:00	2024-11-08T15:00:00	8	Radiación solar	741
146377	7	Sololá	719	Santiago Atitlán	14	Cerro de Oro	5	Mayo	2023-01-05T00:00:00	2024-11-08T16:00:00	2	Temperatura media	22.5
146378	7	Sololá	719	Santiago Atitlán	14	Cerro de Oro	5	Mayo	2023-01-05T00:00:00	2024-11-08T16:00:00	4	Temperatura máxima	23.9
146379	7	Sololá	719	Santiago Atitlán	14	Cerro de Oro	5	Mayo	2023-01-05T00:00:00	2024-11-08T16:00:00	3	Temperatura mínima	22.4
146380	7	Sololá	719	Santiago Atitlán	14	Cerro de Oro	5	Mayo	2023-01-05T00:00:00	2024-11-08T16:00:00	5	Humedad	76
146381	7	Sololá	719	Santiago Atitlán	14	Cerro de Oro	5	Mayo	2023-01-05T00:00:00	2024-11-08T16:00:00	6	Velocidad del viento	12.9
146382	7	Sololá	719	Santiago Atitlán	14	Cerro de Oro	5	Mayo	2023-01-05T00:00:00	2024-11-08T16:00:00	7	Dirección del viento	12.87
146383	7	Sololá	719	Santiago Atitlán	14	Cerro de Oro	5	Mayo	2023-01-05T00:00:00	2024-11-08T16:00:00	1	Precipitación	0
146384	7	Sololá	719	Santiago Atitlán	14	Cerro de Oro	5	Mayo	2023-01-05T00:00:00	2024-11-08T16:00:00	8	Radiación solar	256
146385	7	Sololá	719	Santiago Atitlán	14	Cerro de Oro	5	Mayo	2023-01-05T00:00:00	2024-11-08T17:00:00	2	Temperatura media	21.6
146386	7	Sololá	719	Santiago Atitlán	14	Cerro de Oro	5	Mayo	2023-01-05T00:00:00	2024-11-08T17:00:00	4	Temperatura máxima	22.5
146387	7	Sololá	719	Santiago Atitlán	14	Cerro de Oro	5	Mayo	2023-01-05T00:00:00	2024-11-08T17:00:00	3	Temperatura mínima	21.6
146388	7	Sololá	719	Santiago Atitlán	14	Cerro de Oro	5	Mayo	2023-01-05T00:00:00	2024-11-08T17:00:00	5	Humedad	81
146389	7	Sololá	719	Santiago Atitlán	14	Cerro de Oro	5	Mayo	2023-01-05T00:00:00	2024-11-08T17:00:00	6	Velocidad del viento	9.7
146390	7	Sololá	719	Santiago Atitlán	14	Cerro de Oro	5	Mayo	2023-01-05T00:00:00	2024-11-08T17:00:00	7	Dirección del viento	9.66
146391	7	Sololá	719	Santiago Atitlán	14	Cerro de Oro	5	Mayo	2023-01-05T00:00:00	2024-11-08T17:00:00	1	Precipitación	0
146392	7	Sololá	719	Santiago Atitlán	14	Cerro de Oro	5	Mayo	2023-01-05T00:00:00	2024-11-08T17:00:00	8	Radiación solar	122
146393	7	Sololá	719	Santiago Atitlán	14	Cerro de Oro	5	Mayo	2023-01-05T00:00:00	2024-11-08T18:00:00	2	Temperatura media	20.2
146394	7	Sololá	719	Santiago Atitlán	14	Cerro de Oro	5	Mayo	2023-01-05T00:00:00	2024-11-08T18:00:00	4	Temperatura máxima	22.3
146395	7	Sololá	719	Santiago Atitlán	14	Cerro de Oro	5	Mayo	2023-01-05T00:00:00	2024-11-08T18:00:00	3	Temperatura mínima	20.1
146396	7	Sololá	719	Santiago Atitlán	14	Cerro de Oro	5	Mayo	2023-01-05T00:00:00	2024-11-08T18:00:00	5	Humedad	89
146397	7	Sololá	719	Santiago Atitlán	14	Cerro de Oro	5	Mayo	2023-01-05T00:00:00	2024-11-08T18:00:00	6	Velocidad del viento	8
146398	7	Sololá	719	Santiago Atitlán	14	Cerro de Oro	5	Mayo	2023-01-05T00:00:00	2024-11-08T18:00:00	7	Dirección del viento	8.05
146399	7	Sololá	719	Santiago Atitlán	14	Cerro de Oro	5	Mayo	2023-01-05T00:00:00	2024-11-08T18:00:00	1	Precipitación	0
146400	7	Sololá	719	Santiago Atitlán	14	Cerro de Oro	5	Mayo	2023-01-05T00:00:00	2024-11-08T18:00:00	8	Radiación solar	133
146401	7	Sololá	719	Santiago Atitlán	14	Cerro de Oro	5	Mayo	2023-01-05T00:00:00	2024-11-08T19:00:00	2	Temperatura media	20
146402	7	Sololá	719	Santiago Atitlán	14	Cerro de Oro	5	Mayo	2023-01-05T00:00:00	2024-11-08T19:00:00	4	Temperatura máxima	20.4
146403	7	Sololá	719	Santiago Atitlán	14	Cerro de Oro	5	Mayo	2023-01-05T00:00:00	2024-11-08T19:00:00	3	Temperatura mínima	19.9
146404	7	Sololá	719	Santiago Atitlán	14	Cerro de Oro	5	Mayo	2023-01-05T00:00:00	2024-11-08T19:00:00	5	Humedad	87
146405	7	Sololá	719	Santiago Atitlán	14	Cerro de Oro	5	Mayo	2023-01-05T00:00:00	2024-11-08T19:00:00	6	Velocidad del viento	8
146406	7	Sololá	719	Santiago Atitlán	14	Cerro de Oro	5	Mayo	2023-01-05T00:00:00	2024-11-08T19:00:00	7	Dirección del viento	8.05
146407	7	Sololá	719	Santiago Atitlán	14	Cerro de Oro	5	Mayo	2023-01-05T00:00:00	2024-11-08T19:00:00	1	Precipitación	0
146408	7	Sololá	719	Santiago Atitlán	14	Cerro de Oro	5	Mayo	2023-01-05T00:00:00	2024-11-08T19:00:00	8	Radiación solar	0
146409	7	Sololá	719	Santiago Atitlán	14	Cerro de Oro	5	Mayo	2023-01-05T00:00:00	2024-11-08T20:00:00	2	Temperatura media	20
146410	7	Sololá	719	Santiago Atitlán	14	Cerro de Oro	5	Mayo	2023-01-05T00:00:00	2024-11-08T20:00:00	4	Temperatura máxima	20.1
146411	7	Sololá	719	Santiago Atitlán	14	Cerro de Oro	5	Mayo	2023-01-05T00:00:00	2024-11-08T20:00:00	3	Temperatura mínima	19.8
146412	7	Sololá	719	Santiago Atitlán	14	Cerro de Oro	5	Mayo	2023-01-05T00:00:00	2024-11-08T20:00:00	5	Humedad	88
146413	7	Sololá	719	Santiago Atitlán	14	Cerro de Oro	5	Mayo	2023-01-05T00:00:00	2024-11-08T20:00:00	6	Velocidad del viento	9.7
146414	7	Sololá	719	Santiago Atitlán	14	Cerro de Oro	5	Mayo	2023-01-05T00:00:00	2024-11-08T20:00:00	7	Dirección del viento	9.66
146415	7	Sololá	719	Santiago Atitlán	14	Cerro de Oro	5	Mayo	2023-01-05T00:00:00	2024-11-08T20:00:00	1	Precipitación	0
146416	7	Sololá	719	Santiago Atitlán	14	Cerro de Oro	5	Mayo	2023-01-05T00:00:00	2024-11-08T20:00:00	8	Radiación solar	0
146417	7	Sololá	719	Santiago Atitlán	14	Cerro de Oro	5	Mayo	2023-01-05T00:00:00	2024-11-08T21:00:00	2	Temperatura media	20
146418	7	Sololá	719	Santiago Atitlán	14	Cerro de Oro	5	Mayo	2023-01-05T00:00:00	2024-11-08T21:00:00	4	Temperatura máxima	20.1
146419	7	Sololá	719	Santiago Atitlán	14	Cerro de Oro	5	Mayo	2023-01-05T00:00:00	2024-11-08T21:00:00	3	Temperatura mínima	19.8
146420	7	Sololá	719	Santiago Atitlán	14	Cerro de Oro	5	Mayo	2023-01-05T00:00:00	2024-11-08T21:00:00	5	Humedad	87
146421	7	Sololá	719	Santiago Atitlán	14	Cerro de Oro	5	Mayo	2023-01-05T00:00:00	2024-11-08T21:00:00	6	Velocidad del viento	6.4
146422	7	Sololá	719	Santiago Atitlán	14	Cerro de Oro	5	Mayo	2023-01-05T00:00:00	2024-11-08T21:00:00	7	Dirección del viento	6.44
146423	7	Sololá	719	Santiago Atitlán	14	Cerro de Oro	5	Mayo	2023-01-05T00:00:00	2024-11-08T21:00:00	1	Precipitación	0
146424	7	Sololá	719	Santiago Atitlán	14	Cerro de Oro	5	Mayo	2023-01-05T00:00:00	2024-11-08T21:00:00	8	Radiación solar	0
146425	7	Sololá	719	Santiago Atitlán	14	Cerro de Oro	5	Mayo	2023-01-05T00:00:00	2024-11-08T22:00:00	2	Temperatura media	18.5
146426	7	Sololá	719	Santiago Atitlán	14	Cerro de Oro	5	Mayo	2023-01-05T00:00:00	2024-11-08T22:00:00	4	Temperatura máxima	20
146427	7	Sololá	719	Santiago Atitlán	14	Cerro de Oro	5	Mayo	2023-01-05T00:00:00	2024-11-08T22:00:00	3	Temperatura mínima	18.5
146428	7	Sololá	719	Santiago Atitlán	14	Cerro de Oro	5	Mayo	2023-01-05T00:00:00	2024-11-08T22:00:00	5	Humedad	92
146429	7	Sololá	719	Santiago Atitlán	14	Cerro de Oro	5	Mayo	2023-01-05T00:00:00	2024-11-08T22:00:00	6	Velocidad del viento	6.4
146430	7	Sololá	719	Santiago Atitlán	14	Cerro de Oro	5	Mayo	2023-01-05T00:00:00	2024-11-08T22:00:00	7	Dirección del viento	6.44
146431	7	Sololá	719	Santiago Atitlán	14	Cerro de Oro	5	Mayo	2023-01-05T00:00:00	2024-11-08T22:00:00	1	Precipitación	0
146432	7	Sololá	719	Santiago Atitlán	14	Cerro de Oro	5	Mayo	2023-01-05T00:00:00	2024-11-08T22:00:00	8	Radiación solar	0
146433	7	Sololá	719	Santiago Atitlán	14	Cerro de Oro	5	Mayo	2023-01-05T00:00:00	2024-11-08T23:00:00	2	Temperatura media	19.3
146434	7	Sololá	719	Santiago Atitlán	14	Cerro de Oro	5	Mayo	2023-01-05T00:00:00	2024-11-08T23:00:00	4	Temperatura máxima	19.3
146435	7	Sololá	719	Santiago Atitlán	14	Cerro de Oro	5	Mayo	2023-01-05T00:00:00	2024-11-08T23:00:00	3	Temperatura mínima	18.4
146436	7	Sololá	719	Santiago Atitlán	14	Cerro de Oro	5	Mayo	2023-01-05T00:00:00	2024-11-08T23:00:00	5	Humedad	90
146437	7	Sololá	719	Santiago Atitlán	14	Cerro de Oro	5	Mayo	2023-01-05T00:00:00	2024-11-08T23:00:00	6	Velocidad del viento	3.2
146438	7	Sololá	719	Santiago Atitlán	14	Cerro de Oro	5	Mayo	2023-01-05T00:00:00	2024-11-08T23:00:00	7	Dirección del viento	3.22
146439	7	Sololá	719	Santiago Atitlán	14	Cerro de Oro	5	Mayo	2023-01-05T00:00:00	2024-11-08T23:00:00	1	Precipitación	0
146440	7	Sololá	719	Santiago Atitlán	14	Cerro de Oro	5	Mayo	2023-01-05T00:00:00	2024-11-08T23:00:00	8	Radiación solar	0
146441	7	Sololá	719	Santiago Atitlán	14	Cerro de Oro	5	Mayo	2023-02-05T00:00:00	2024-11-08T00:00:00	2	Temperatura media	19.4
146442	7	Sololá	719	Santiago Atitlán	14	Cerro de Oro	5	Mayo	2023-02-05T00:00:00	2024-11-08T00:00:00	4	Temperatura máxima	19.4
146443	7	Sololá	719	Santiago Atitlán	14	Cerro de Oro	5	Mayo	2023-02-05T00:00:00	2024-11-08T00:00:00	3	Temperatura mínima	19.1
146444	7	Sololá	719	Santiago Atitlán	14	Cerro de Oro	5	Mayo	2023-02-05T00:00:00	2024-11-08T00:00:00	5	Humedad	87
146445	7	Sololá	719	Santiago Atitlán	14	Cerro de Oro	5	Mayo	2023-02-05T00:00:00	2024-11-08T00:00:00	6	Velocidad del viento	1.6
146446	7	Sololá	719	Santiago Atitlán	14	Cerro de Oro	5	Mayo	2023-02-05T00:00:00	2024-11-08T00:00:00	7	Dirección del viento	1.61
146447	7	Sololá	719	Santiago Atitlán	14	Cerro de Oro	5	Mayo	2023-02-05T00:00:00	2024-11-08T00:00:00	1	Precipitación	0
146448	7	Sololá	719	Santiago Atitlán	14	Cerro de Oro	5	Mayo	2023-02-05T00:00:00	2024-11-08T00:00:00	8	Radiación solar	0
146449	7	Sololá	719	Santiago Atitlán	14	Cerro de Oro	5	Mayo	2023-02-05T00:00:00	2024-11-08T01:00:00	2	Temperatura media	19.3
146450	7	Sololá	719	Santiago Atitlán	14	Cerro de Oro	5	Mayo	2023-02-05T00:00:00	2024-11-08T01:00:00	4	Temperatura máxima	19.4
146451	7	Sololá	719	Santiago Atitlán	14	Cerro de Oro	5	Mayo	2023-02-05T00:00:00	2024-11-08T01:00:00	3	Temperatura mínima	19.2
146452	7	Sololá	719	Santiago Atitlán	14	Cerro de Oro	5	Mayo	2023-02-05T00:00:00	2024-11-08T01:00:00	5	Humedad	85
146453	7	Sololá	719	Santiago Atitlán	14	Cerro de Oro	5	Mayo	2023-02-05T00:00:00	2024-11-08T01:00:00	6	Velocidad del viento	3.2
146454	7	Sololá	719	Santiago Atitlán	14	Cerro de Oro	5	Mayo	2023-02-05T00:00:00	2024-11-08T01:00:00	7	Dirección del viento	3.22
146455	7	Sololá	719	Santiago Atitlán	14	Cerro de Oro	5	Mayo	2023-02-05T00:00:00	2024-11-08T01:00:00	1	Precipitación	0
146456	7	Sololá	719	Santiago Atitlán	14	Cerro de Oro	5	Mayo	2023-02-05T00:00:00	2024-11-08T01:00:00	8	Radiación solar	0
146457	7	Sololá	719	Santiago Atitlán	14	Cerro de Oro	5	Mayo	2023-02-05T00:00:00	2024-11-08T02:00:00	2	Temperatura media	18.8
146458	7	Sololá	719	Santiago Atitlán	14	Cerro de Oro	5	Mayo	2023-02-05T00:00:00	2024-11-08T02:00:00	4	Temperatura máxima	19.4
146459	7	Sololá	719	Santiago Atitlán	14	Cerro de Oro	5	Mayo	2023-02-05T00:00:00	2024-11-08T02:00:00	3	Temperatura mínima	18.7
146460	7	Sololá	719	Santiago Atitlán	14	Cerro de Oro	5	Mayo	2023-02-05T00:00:00	2024-11-08T02:00:00	5	Humedad	84
146461	7	Sololá	719	Santiago Atitlán	14	Cerro de Oro	5	Mayo	2023-02-05T00:00:00	2024-11-08T02:00:00	6	Velocidad del viento	3.2
146462	7	Sololá	719	Santiago Atitlán	14	Cerro de Oro	5	Mayo	2023-02-05T00:00:00	2024-11-08T02:00:00	7	Dirección del viento	3.22
146463	7	Sololá	719	Santiago Atitlán	14	Cerro de Oro	5	Mayo	2023-02-05T00:00:00	2024-11-08T02:00:00	1	Precipitación	0
146464	7	Sololá	719	Santiago Atitlán	14	Cerro de Oro	5	Mayo	2023-02-05T00:00:00	2024-11-08T02:00:00	8	Radiación solar	0
146465	7	Sololá	719	Santiago Atitlán	14	Cerro de Oro	5	Mayo	2023-02-05T00:00:00	2024-11-08T03:00:00	2	Temperatura media	18.9
146466	7	Sololá	719	Santiago Atitlán	14	Cerro de Oro	5	Mayo	2023-02-05T00:00:00	2024-11-08T03:00:00	4	Temperatura máxima	18.9
146467	7	Sololá	719	Santiago Atitlán	14	Cerro de Oro	5	Mayo	2023-02-05T00:00:00	2024-11-08T03:00:00	3	Temperatura mínima	18.7
146468	7	Sololá	719	Santiago Atitlán	14	Cerro de Oro	5	Mayo	2023-02-05T00:00:00	2024-11-08T03:00:00	5	Humedad	81
146469	7	Sololá	719	Santiago Atitlán	14	Cerro de Oro	5	Mayo	2023-02-05T00:00:00	2024-11-08T03:00:00	6	Velocidad del viento	3.2
146470	7	Sololá	719	Santiago Atitlán	14	Cerro de Oro	5	Mayo	2023-02-05T00:00:00	2024-11-08T03:00:00	7	Dirección del viento	3.22
146471	7	Sololá	719	Santiago Atitlán	14	Cerro de Oro	5	Mayo	2023-02-05T00:00:00	2024-11-08T03:00:00	1	Precipitación	0
146472	7	Sololá	719	Santiago Atitlán	14	Cerro de Oro	5	Mayo	2023-02-05T00:00:00	2024-11-08T03:00:00	8	Radiación solar	0
146473	7	Sololá	719	Santiago Atitlán	14	Cerro de Oro	5	Mayo	2023-02-05T00:00:00	2024-11-08T04:00:00	2	Temperatura media	18.2
146474	7	Sololá	719	Santiago Atitlán	14	Cerro de Oro	5	Mayo	2023-02-05T00:00:00	2024-11-08T04:00:00	4	Temperatura máxima	19.1
146475	7	Sololá	719	Santiago Atitlán	14	Cerro de Oro	5	Mayo	2023-02-05T00:00:00	2024-11-08T04:00:00	3	Temperatura mínima	18.2
146476	7	Sololá	719	Santiago Atitlán	14	Cerro de Oro	5	Mayo	2023-02-05T00:00:00	2024-11-08T04:00:00	5	Humedad	84
146477	7	Sololá	719	Santiago Atitlán	14	Cerro de Oro	5	Mayo	2023-02-05T00:00:00	2024-11-08T04:00:00	6	Velocidad del viento	3.2
146478	7	Sololá	719	Santiago Atitlán	14	Cerro de Oro	5	Mayo	2023-02-05T00:00:00	2024-11-08T04:00:00	7	Dirección del viento	3.22
146479	7	Sololá	719	Santiago Atitlán	14	Cerro de Oro	5	Mayo	2023-02-05T00:00:00	2024-11-08T04:00:00	1	Precipitación	0
146480	7	Sololá	719	Santiago Atitlán	14	Cerro de Oro	5	Mayo	2023-02-05T00:00:00	2024-11-08T04:00:00	8	Radiación solar	0
146481	7	Sololá	719	Santiago Atitlán	14	Cerro de Oro	5	Mayo	2023-02-05T00:00:00	2024-11-08T05:00:00	2	Temperatura media	18.2
146482	7	Sololá	719	Santiago Atitlán	14	Cerro de Oro	5	Mayo	2023-02-05T00:00:00	2024-11-08T05:00:00	4	Temperatura máxima	18.4
146483	7	Sololá	719	Santiago Atitlán	14	Cerro de Oro	5	Mayo	2023-02-05T00:00:00	2024-11-08T05:00:00	3	Temperatura mínima	18.1
146484	7	Sololá	719	Santiago Atitlán	14	Cerro de Oro	5	Mayo	2023-02-05T00:00:00	2024-11-08T05:00:00	5	Humedad	85
146485	7	Sololá	719	Santiago Atitlán	14	Cerro de Oro	5	Mayo	2023-02-05T00:00:00	2024-11-08T05:00:00	6	Velocidad del viento	3.2
146486	7	Sololá	719	Santiago Atitlán	14	Cerro de Oro	5	Mayo	2023-02-05T00:00:00	2024-11-08T05:00:00	7	Dirección del viento	3.22
146487	7	Sololá	719	Santiago Atitlán	14	Cerro de Oro	5	Mayo	2023-02-05T00:00:00	2024-11-08T05:00:00	1	Precipitación	0
146488	7	Sololá	719	Santiago Atitlán	14	Cerro de Oro	5	Mayo	2023-02-05T00:00:00	2024-11-08T05:00:00	8	Radiación solar	0
146489	7	Sololá	719	Santiago Atitlán	14	Cerro de Oro	5	Mayo	2023-02-05T00:00:00	2024-11-08T06:00:00	2	Temperatura media	18
146490	7	Sololá	719	Santiago Atitlán	14	Cerro de Oro	5	Mayo	2023-02-05T00:00:00	2024-11-08T06:00:00	4	Temperatura máxima	18.3
146491	7	Sololá	719	Santiago Atitlán	14	Cerro de Oro	5	Mayo	2023-02-05T00:00:00	2024-11-08T06:00:00	3	Temperatura mínima	18
146492	7	Sololá	719	Santiago Atitlán	14	Cerro de Oro	5	Mayo	2023-02-05T00:00:00	2024-11-08T06:00:00	5	Humedad	86
146493	7	Sololá	719	Santiago Atitlán	14	Cerro de Oro	5	Mayo	2023-02-05T00:00:00	2024-11-08T06:00:00	6	Velocidad del viento	3.2
146494	7	Sololá	719	Santiago Atitlán	14	Cerro de Oro	5	Mayo	2023-02-05T00:00:00	2024-11-08T06:00:00	7	Dirección del viento	3.22
146495	7	Sololá	719	Santiago Atitlán	14	Cerro de Oro	5	Mayo	2023-02-05T00:00:00	2024-11-08T06:00:00	1	Precipitación	0
146496	7	Sololá	719	Santiago Atitlán	14	Cerro de Oro	5	Mayo	2023-02-05T00:00:00	2024-11-08T06:00:00	8	Radiación solar	0
146497	7	Sololá	719	Santiago Atitlán	14	Cerro de Oro	5	Mayo	2023-02-05T00:00:00	2024-11-08T07:00:00	2	Temperatura media	18.1
146498	7	Sololá	719	Santiago Atitlán	14	Cerro de Oro	5	Mayo	2023-02-05T00:00:00	2024-11-08T07:00:00	4	Temperatura máxima	18.1
146499	7	Sololá	719	Santiago Atitlán	14	Cerro de Oro	5	Mayo	2023-02-05T00:00:00	2024-11-08T07:00:00	3	Temperatura mínima	17.8
146500	7	Sololá	719	Santiago Atitlán	14	Cerro de Oro	5	Mayo	2023-02-05T00:00:00	2024-11-08T07:00:00	5	Humedad	82
146501	7	Sololá	719	Santiago Atitlán	14	Cerro de Oro	5	Mayo	2023-02-05T00:00:00	2024-11-08T07:00:00	6	Velocidad del viento	1.6
146502	7	Sololá	719	Santiago Atitlán	14	Cerro de Oro	5	Mayo	2023-02-05T00:00:00	2024-11-08T07:00:00	7	Dirección del viento	1.61
146503	7	Sololá	719	Santiago Atitlán	14	Cerro de Oro	5	Mayo	2023-02-05T00:00:00	2024-11-08T07:00:00	1	Precipitación	0
146504	7	Sololá	719	Santiago Atitlán	14	Cerro de Oro	5	Mayo	2023-02-05T00:00:00	2024-11-08T07:00:00	8	Radiación solar	4
146505	7	Sololá	719	Santiago Atitlán	14	Cerro de Oro	5	Mayo	2023-02-05T00:00:00	2024-11-08T08:00:00	2	Temperatura media	19.8
146506	7	Sololá	719	Santiago Atitlán	14	Cerro de Oro	5	Mayo	2023-02-05T00:00:00	2024-11-08T08:00:00	4	Temperatura máxima	19.8
146507	7	Sololá	719	Santiago Atitlán	14	Cerro de Oro	5	Mayo	2023-02-05T00:00:00	2024-11-08T08:00:00	3	Temperatura mínima	18.1
146508	7	Sololá	719	Santiago Atitlán	14	Cerro de Oro	5	Mayo	2023-02-05T00:00:00	2024-11-08T08:00:00	5	Humedad	80
146509	7	Sololá	719	Santiago Atitlán	14	Cerro de Oro	5	Mayo	2023-02-05T00:00:00	2024-11-08T08:00:00	6	Velocidad del viento	3.2
146510	7	Sololá	719	Santiago Atitlán	14	Cerro de Oro	5	Mayo	2023-02-05T00:00:00	2024-11-08T08:00:00	7	Dirección del viento	3.22
146511	7	Sololá	719	Santiago Atitlán	14	Cerro de Oro	5	Mayo	2023-02-05T00:00:00	2024-11-08T08:00:00	1	Precipitación	0
146512	7	Sololá	719	Santiago Atitlán	14	Cerro de Oro	5	Mayo	2023-02-05T00:00:00	2024-11-08T08:00:00	8	Radiación solar	94
146513	7	Sololá	719	Santiago Atitlán	14	Cerro de Oro	5	Mayo	2023-02-05T00:00:00	2024-11-08T09:00:00	2	Temperatura media	21
146514	7	Sololá	719	Santiago Atitlán	14	Cerro de Oro	5	Mayo	2023-02-05T00:00:00	2024-11-08T09:00:00	4	Temperatura máxima	21
146515	7	Sololá	719	Santiago Atitlán	14	Cerro de Oro	5	Mayo	2023-02-05T00:00:00	2024-11-08T09:00:00	3	Temperatura mínima	19.8
146516	7	Sololá	719	Santiago Atitlán	14	Cerro de Oro	5	Mayo	2023-02-05T00:00:00	2024-11-08T09:00:00	5	Humedad	76
146517	7	Sololá	719	Santiago Atitlán	14	Cerro de Oro	5	Mayo	2023-02-05T00:00:00	2024-11-08T09:00:00	6	Velocidad del viento	3.2
146518	7	Sololá	719	Santiago Atitlán	14	Cerro de Oro	5	Mayo	2023-02-05T00:00:00	2024-11-08T09:00:00	7	Dirección del viento	3.22
146519	7	Sololá	719	Santiago Atitlán	14	Cerro de Oro	5	Mayo	2023-02-05T00:00:00	2024-11-08T09:00:00	1	Precipitación	0
146520	7	Sololá	719	Santiago Atitlán	14	Cerro de Oro	5	Mayo	2023-02-05T00:00:00	2024-11-08T09:00:00	8	Radiación solar	299
146521	7	Sololá	719	Santiago Atitlán	14	Cerro de Oro	5	Mayo	2023-02-05T00:00:00	2024-11-08T10:00:00	2	Temperatura media	21.6
146522	7	Sololá	719	Santiago Atitlán	14	Cerro de Oro	5	Mayo	2023-02-05T00:00:00	2024-11-08T10:00:00	4	Temperatura máxima	21.6
146523	7	Sololá	719	Santiago Atitlán	14	Cerro de Oro	5	Mayo	2023-02-05T00:00:00	2024-11-08T10:00:00	3	Temperatura mínima	20.7
146524	7	Sololá	719	Santiago Atitlán	14	Cerro de Oro	5	Mayo	2023-02-05T00:00:00	2024-11-08T10:00:00	5	Humedad	73
146525	7	Sololá	719	Santiago Atitlán	14	Cerro de Oro	5	Mayo	2023-02-05T00:00:00	2024-11-08T10:00:00	6	Velocidad del viento	4.8
146526	7	Sololá	719	Santiago Atitlán	14	Cerro de Oro	5	Mayo	2023-02-05T00:00:00	2024-11-08T10:00:00	7	Dirección del viento	4.83
146527	7	Sololá	719	Santiago Atitlán	14	Cerro de Oro	5	Mayo	2023-02-05T00:00:00	2024-11-08T10:00:00	1	Precipitación	0
146528	7	Sololá	719	Santiago Atitlán	14	Cerro de Oro	5	Mayo	2023-02-05T00:00:00	2024-11-08T10:00:00	8	Radiación solar	484
146529	7	Sololá	719	Santiago Atitlán	14	Cerro de Oro	5	Mayo	2023-02-05T00:00:00	2024-11-08T11:00:00	2	Temperatura media	23
146530	7	Sololá	719	Santiago Atitlán	14	Cerro de Oro	5	Mayo	2023-02-05T00:00:00	2024-11-08T11:00:00	4	Temperatura máxima	23
146531	7	Sololá	719	Santiago Atitlán	14	Cerro de Oro	5	Mayo	2023-02-05T00:00:00	2024-11-08T11:00:00	3	Temperatura mínima	21.4
146532	7	Sololá	719	Santiago Atitlán	14	Cerro de Oro	5	Mayo	2023-02-05T00:00:00	2024-11-08T11:00:00	5	Humedad	73
146533	7	Sololá	719	Santiago Atitlán	14	Cerro de Oro	5	Mayo	2023-02-05T00:00:00	2024-11-08T11:00:00	6	Velocidad del viento	4.8
146534	7	Sololá	719	Santiago Atitlán	14	Cerro de Oro	5	Mayo	2023-02-05T00:00:00	2024-11-08T11:00:00	7	Dirección del viento	4.83
146535	7	Sololá	719	Santiago Atitlán	14	Cerro de Oro	5	Mayo	2023-02-05T00:00:00	2024-11-08T11:00:00	1	Precipitación	0
146536	7	Sololá	719	Santiago Atitlán	14	Cerro de Oro	5	Mayo	2023-02-05T00:00:00	2024-11-08T11:00:00	8	Radiación solar	697
146537	7	Sololá	719	Santiago Atitlán	14	Cerro de Oro	5	Mayo	2023-02-05T00:00:00	2024-11-08T12:00:00	2	Temperatura media	23.2
146538	7	Sololá	719	Santiago Atitlán	14	Cerro de Oro	5	Mayo	2023-02-05T00:00:00	2024-11-08T12:00:00	4	Temperatura máxima	23.9
146539	7	Sololá	719	Santiago Atitlán	14	Cerro de Oro	5	Mayo	2023-02-05T00:00:00	2024-11-08T12:00:00	3	Temperatura mínima	23
146540	7	Sololá	719	Santiago Atitlán	14	Cerro de Oro	5	Mayo	2023-02-05T00:00:00	2024-11-08T12:00:00	5	Humedad	72
146541	7	Sololá	719	Santiago Atitlán	14	Cerro de Oro	5	Mayo	2023-02-05T00:00:00	2024-11-08T12:00:00	6	Velocidad del viento	11.3
146542	7	Sololá	719	Santiago Atitlán	14	Cerro de Oro	5	Mayo	2023-02-05T00:00:00	2024-11-08T12:00:00	7	Dirección del viento	11.27
146543	7	Sololá	719	Santiago Atitlán	14	Cerro de Oro	5	Mayo	2023-02-05T00:00:00	2024-11-08T12:00:00	1	Precipitación	0
146544	7	Sololá	719	Santiago Atitlán	14	Cerro de Oro	5	Mayo	2023-02-05T00:00:00	2024-11-08T12:00:00	8	Radiación solar	610
146545	7	Sololá	719	Santiago Atitlán	14	Cerro de Oro	5	Mayo	2023-02-05T00:00:00	2024-11-08T13:00:00	2	Temperatura media	23.9
146546	7	Sololá	719	Santiago Atitlán	14	Cerro de Oro	5	Mayo	2023-02-05T00:00:00	2024-11-08T13:00:00	4	Temperatura máxima	24.2
146547	7	Sololá	719	Santiago Atitlán	14	Cerro de Oro	5	Mayo	2023-02-05T00:00:00	2024-11-08T13:00:00	3	Temperatura mínima	23.2
146548	7	Sololá	719	Santiago Atitlán	14	Cerro de Oro	5	Mayo	2023-02-05T00:00:00	2024-11-08T13:00:00	5	Humedad	74
146549	7	Sololá	719	Santiago Atitlán	14	Cerro de Oro	5	Mayo	2023-02-05T00:00:00	2024-11-08T13:00:00	6	Velocidad del viento	11.3
146550	7	Sololá	719	Santiago Atitlán	14	Cerro de Oro	5	Mayo	2023-02-05T00:00:00	2024-11-08T13:00:00	7	Dirección del viento	11.27
146551	7	Sololá	719	Santiago Atitlán	14	Cerro de Oro	5	Mayo	2023-02-05T00:00:00	2024-11-08T13:00:00	1	Precipitación	0
146552	7	Sololá	719	Santiago Atitlán	14	Cerro de Oro	5	Mayo	2023-02-05T00:00:00	2024-11-08T13:00:00	8	Radiación solar	908
146553	7	Sololá	719	Santiago Atitlán	14	Cerro de Oro	5	Mayo	2023-02-05T00:00:00	2024-11-08T14:00:00	2	Temperatura media	23.6
146554	7	Sololá	719	Santiago Atitlán	14	Cerro de Oro	5	Mayo	2023-02-05T00:00:00	2024-11-08T14:00:00	4	Temperatura máxima	24.6
146555	7	Sololá	719	Santiago Atitlán	14	Cerro de Oro	5	Mayo	2023-02-05T00:00:00	2024-11-08T14:00:00	3	Temperatura mínima	22.9
146556	7	Sololá	719	Santiago Atitlán	14	Cerro de Oro	5	Mayo	2023-02-05T00:00:00	2024-11-08T14:00:00	5	Humedad	72
146557	7	Sololá	719	Santiago Atitlán	14	Cerro de Oro	5	Mayo	2023-02-05T00:00:00	2024-11-08T14:00:00	6	Velocidad del viento	8
146558	7	Sololá	719	Santiago Atitlán	14	Cerro de Oro	5	Mayo	2023-02-05T00:00:00	2024-11-08T14:00:00	7	Dirección del viento	8.05
146559	7	Sololá	719	Santiago Atitlán	14	Cerro de Oro	5	Mayo	2023-02-05T00:00:00	2024-11-08T14:00:00	1	Precipitación	0
146560	7	Sololá	719	Santiago Atitlán	14	Cerro de Oro	5	Mayo	2023-02-05T00:00:00	2024-11-08T14:00:00	8	Radiación solar	445
146561	7	Sololá	719	Santiago Atitlán	14	Cerro de Oro	5	Mayo	2023-02-05T00:00:00	2024-11-08T15:00:00	2	Temperatura media	22
146562	7	Sololá	719	Santiago Atitlán	14	Cerro de Oro	5	Mayo	2023-02-05T00:00:00	2024-11-08T15:00:00	4	Temperatura máxima	23.9
146563	7	Sololá	719	Santiago Atitlán	14	Cerro de Oro	5	Mayo	2023-02-05T00:00:00	2024-11-08T15:00:00	3	Temperatura mínima	21.9
146564	7	Sololá	719	Santiago Atitlán	14	Cerro de Oro	5	Mayo	2023-02-05T00:00:00	2024-11-08T15:00:00	5	Humedad	80
146565	7	Sololá	719	Santiago Atitlán	14	Cerro de Oro	5	Mayo	2023-02-05T00:00:00	2024-11-08T15:00:00	6	Velocidad del viento	12.9
146566	7	Sololá	719	Santiago Atitlán	14	Cerro de Oro	5	Mayo	2023-02-05T00:00:00	2024-11-08T15:00:00	7	Dirección del viento	12.87
146567	7	Sololá	719	Santiago Atitlán	14	Cerro de Oro	5	Mayo	2023-02-05T00:00:00	2024-11-08T15:00:00	1	Precipitación	0
146568	7	Sololá	719	Santiago Atitlán	14	Cerro de Oro	5	Mayo	2023-02-05T00:00:00	2024-11-08T15:00:00	8	Radiación solar	366
146569	7	Sololá	719	Santiago Atitlán	14	Cerro de Oro	5	Mayo	2023-02-05T00:00:00	2024-11-08T16:00:00	2	Temperatura media	21.5
146570	7	Sololá	719	Santiago Atitlán	14	Cerro de Oro	5	Mayo	2023-02-05T00:00:00	2024-11-08T16:00:00	4	Temperatura máxima	22.2
146571	7	Sololá	719	Santiago Atitlán	14	Cerro de Oro	5	Mayo	2023-02-05T00:00:00	2024-11-08T16:00:00	3	Temperatura mínima	21.5
146572	7	Sololá	719	Santiago Atitlán	14	Cerro de Oro	5	Mayo	2023-02-05T00:00:00	2024-11-08T16:00:00	5	Humedad	82
146573	7	Sololá	719	Santiago Atitlán	14	Cerro de Oro	5	Mayo	2023-02-05T00:00:00	2024-11-08T16:00:00	6	Velocidad del viento	9.7
146574	7	Sololá	719	Santiago Atitlán	14	Cerro de Oro	5	Mayo	2023-02-05T00:00:00	2024-11-08T16:00:00	7	Dirección del viento	9.66
146575	7	Sololá	719	Santiago Atitlán	14	Cerro de Oro	5	Mayo	2023-02-05T00:00:00	2024-11-08T16:00:00	1	Precipitación	0
146576	7	Sololá	719	Santiago Atitlán	14	Cerro de Oro	5	Mayo	2023-02-05T00:00:00	2024-11-08T16:00:00	8	Radiación solar	117
146577	7	Sololá	719	Santiago Atitlán	14	Cerro de Oro	5	Mayo	2023-02-05T00:00:00	2024-11-08T17:00:00	2	Temperatura media	20
146578	7	Sololá	719	Santiago Atitlán	14	Cerro de Oro	5	Mayo	2023-02-05T00:00:00	2024-11-08T17:00:00	4	Temperatura máxima	21.5
146579	7	Sololá	719	Santiago Atitlán	14	Cerro de Oro	5	Mayo	2023-02-05T00:00:00	2024-11-08T17:00:00	3	Temperatura mínima	20
146580	7	Sololá	719	Santiago Atitlán	14	Cerro de Oro	5	Mayo	2023-02-05T00:00:00	2024-11-08T17:00:00	5	Humedad	89
146581	7	Sololá	719	Santiago Atitlán	14	Cerro de Oro	5	Mayo	2023-02-05T00:00:00	2024-11-08T17:00:00	6	Velocidad del viento	8
146582	7	Sololá	719	Santiago Atitlán	14	Cerro de Oro	5	Mayo	2023-02-05T00:00:00	2024-11-08T17:00:00	7	Dirección del viento	8.05
146583	7	Sololá	719	Santiago Atitlán	14	Cerro de Oro	5	Mayo	2023-02-05T00:00:00	2024-11-08T17:00:00	1	Precipitación	1
146584	7	Sololá	719	Santiago Atitlán	14	Cerro de Oro	5	Mayo	2023-02-05T00:00:00	2024-11-08T17:00:00	8	Radiación solar	40
146585	7	Sololá	719	Santiago Atitlán	14	Cerro de Oro	5	Mayo	2023-02-05T00:00:00	2024-11-08T18:00:00	2	Temperatura media	17
146586	7	Sololá	719	Santiago Atitlán	14	Cerro de Oro	5	Mayo	2023-02-05T00:00:00	2024-11-08T18:00:00	4	Temperatura máxima	20
146587	7	Sololá	719	Santiago Atitlán	14	Cerro de Oro	5	Mayo	2023-02-05T00:00:00	2024-11-08T18:00:00	3	Temperatura mínima	17
146588	7	Sololá	719	Santiago Atitlán	14	Cerro de Oro	5	Mayo	2023-02-05T00:00:00	2024-11-08T18:00:00	5	Humedad	87
146589	7	Sololá	719	Santiago Atitlán	14	Cerro de Oro	5	Mayo	2023-02-05T00:00:00	2024-11-08T18:00:00	6	Velocidad del viento	12.9
146590	7	Sololá	719	Santiago Atitlán	14	Cerro de Oro	5	Mayo	2023-02-05T00:00:00	2024-11-08T18:00:00	7	Dirección del viento	12.87
146591	7	Sololá	719	Santiago Atitlán	14	Cerro de Oro	5	Mayo	2023-02-05T00:00:00	2024-11-08T18:00:00	1	Precipitación	8.2
146592	7	Sololá	719	Santiago Atitlán	14	Cerro de Oro	5	Mayo	2023-02-05T00:00:00	2024-11-08T18:00:00	8	Radiación solar	0
146593	7	Sololá	719	Santiago Atitlán	14	Cerro de Oro	5	Mayo	2023-02-05T00:00:00	2024-11-08T19:00:00	2	Temperatura media	16.9
146594	7	Sololá	719	Santiago Atitlán	14	Cerro de Oro	5	Mayo	2023-02-05T00:00:00	2024-11-08T19:00:00	4	Temperatura máxima	17.2
146595	7	Sololá	719	Santiago Atitlán	14	Cerro de Oro	5	Mayo	2023-02-05T00:00:00	2024-11-08T19:00:00	3	Temperatura mínima	16.8
146596	7	Sololá	719	Santiago Atitlán	14	Cerro de Oro	5	Mayo	2023-02-05T00:00:00	2024-11-08T19:00:00	5	Humedad	91
146597	7	Sololá	719	Santiago Atitlán	14	Cerro de Oro	5	Mayo	2023-02-05T00:00:00	2024-11-08T19:00:00	6	Velocidad del viento	8
146598	7	Sololá	719	Santiago Atitlán	14	Cerro de Oro	5	Mayo	2023-02-05T00:00:00	2024-11-08T19:00:00	7	Dirección del viento	8.05
146599	7	Sololá	719	Santiago Atitlán	14	Cerro de Oro	5	Mayo	2023-02-05T00:00:00	2024-11-08T19:00:00	1	Precipitación	1.8
146600	7	Sololá	719	Santiago Atitlán	14	Cerro de Oro	5	Mayo	2023-02-05T00:00:00	2024-11-08T19:00:00	8	Radiación solar	0
146601	7	Sololá	719	Santiago Atitlán	14	Cerro de Oro	5	Mayo	2023-02-05T00:00:00	2024-11-08T20:00:00	2	Temperatura media	17.1
146602	7	Sololá	719	Santiago Atitlán	14	Cerro de Oro	5	Mayo	2023-02-05T00:00:00	2024-11-08T20:00:00	4	Temperatura máxima	17.2
146603	7	Sololá	719	Santiago Atitlán	14	Cerro de Oro	5	Mayo	2023-02-05T00:00:00	2024-11-08T20:00:00	3	Temperatura mínima	16.8
146604	7	Sololá	719	Santiago Atitlán	14	Cerro de Oro	5	Mayo	2023-02-05T00:00:00	2024-11-08T20:00:00	5	Humedad	88
146605	7	Sololá	719	Santiago Atitlán	14	Cerro de Oro	5	Mayo	2023-02-05T00:00:00	2024-11-08T20:00:00	6	Velocidad del viento	6.4
146606	7	Sololá	719	Santiago Atitlán	14	Cerro de Oro	5	Mayo	2023-02-05T00:00:00	2024-11-08T20:00:00	7	Dirección del viento	6.44
146607	7	Sololá	719	Santiago Atitlán	14	Cerro de Oro	5	Mayo	2023-02-05T00:00:00	2024-11-08T20:00:00	1	Precipitación	1.8
146608	7	Sololá	719	Santiago Atitlán	14	Cerro de Oro	5	Mayo	2023-02-05T00:00:00	2024-11-08T20:00:00	8	Radiación solar	0
146609	7	Sololá	719	Santiago Atitlán	14	Cerro de Oro	5	Mayo	2023-02-05T00:00:00	2024-11-08T21:00:00	2	Temperatura media	17.6
146610	7	Sololá	719	Santiago Atitlán	14	Cerro de Oro	5	Mayo	2023-02-05T00:00:00	2024-11-08T21:00:00	4	Temperatura máxima	18.6
146611	7	Sololá	719	Santiago Atitlán	14	Cerro de Oro	5	Mayo	2023-02-05T00:00:00	2024-11-08T21:00:00	3	Temperatura mínima	17.1
146612	7	Sololá	719	Santiago Atitlán	14	Cerro de Oro	5	Mayo	2023-02-05T00:00:00	2024-11-08T21:00:00	5	Humedad	84
146613	7	Sololá	719	Santiago Atitlán	14	Cerro de Oro	5	Mayo	2023-02-05T00:00:00	2024-11-08T21:00:00	6	Velocidad del viento	4.8
146614	7	Sololá	719	Santiago Atitlán	14	Cerro de Oro	5	Mayo	2023-02-05T00:00:00	2024-11-08T21:00:00	7	Dirección del viento	4.83
146615	7	Sololá	719	Santiago Atitlán	14	Cerro de Oro	5	Mayo	2023-02-05T00:00:00	2024-11-08T21:00:00	1	Precipitación	0
146616	7	Sololá	719	Santiago Atitlán	14	Cerro de Oro	5	Mayo	2023-02-05T00:00:00	2024-11-08T21:00:00	8	Radiación solar	0
146617	7	Sololá	719	Santiago Atitlán	14	Cerro de Oro	5	Mayo	2023-02-05T00:00:00	2024-11-08T22:00:00	2	Temperatura media	17.2
146618	7	Sololá	719	Santiago Atitlán	14	Cerro de Oro	5	Mayo	2023-02-05T00:00:00	2024-11-08T22:00:00	4	Temperatura máxima	17.7
146619	7	Sololá	719	Santiago Atitlán	14	Cerro de Oro	5	Mayo	2023-02-05T00:00:00	2024-11-08T22:00:00	3	Temperatura mínima	17.2
146620	7	Sololá	719	Santiago Atitlán	14	Cerro de Oro	5	Mayo	2023-02-05T00:00:00	2024-11-08T22:00:00	5	Humedad	90
146621	7	Sololá	719	Santiago Atitlán	14	Cerro de Oro	5	Mayo	2023-02-05T00:00:00	2024-11-08T22:00:00	6	Velocidad del viento	3.2
146622	7	Sololá	719	Santiago Atitlán	14	Cerro de Oro	5	Mayo	2023-02-05T00:00:00	2024-11-08T22:00:00	7	Dirección del viento	3.22
146623	7	Sololá	719	Santiago Atitlán	14	Cerro de Oro	5	Mayo	2023-02-05T00:00:00	2024-11-08T22:00:00	1	Precipitación	0
146624	7	Sololá	719	Santiago Atitlán	14	Cerro de Oro	5	Mayo	2023-02-05T00:00:00	2024-11-08T22:00:00	8	Radiación solar	0
146625	7	Sololá	719	Santiago Atitlán	14	Cerro de Oro	5	Mayo	2023-02-05T00:00:00	2024-11-08T23:00:00	2	Temperatura media	17.7
146626	7	Sololá	719	Santiago Atitlán	14	Cerro de Oro	5	Mayo	2023-02-05T00:00:00	2024-11-08T23:00:00	4	Temperatura máxima	17.8
146627	7	Sololá	719	Santiago Atitlán	14	Cerro de Oro	5	Mayo	2023-02-05T00:00:00	2024-11-08T23:00:00	3	Temperatura mínima	17.2
146628	7	Sololá	719	Santiago Atitlán	14	Cerro de Oro	5	Mayo	2023-02-05T00:00:00	2024-11-08T23:00:00	5	Humedad	89
146629	7	Sololá	719	Santiago Atitlán	14	Cerro de Oro	5	Mayo	2023-02-05T00:00:00	2024-11-08T23:00:00	6	Velocidad del viento	4.8
146630	7	Sololá	719	Santiago Atitlán	14	Cerro de Oro	5	Mayo	2023-02-05T00:00:00	2024-11-08T23:00:00	7	Dirección del viento	4.83
146631	7	Sololá	719	Santiago Atitlán	14	Cerro de Oro	5	Mayo	2023-02-05T00:00:00	2024-11-08T23:00:00	1	Precipitación	0
146632	7	Sololá	719	Santiago Atitlán	14	Cerro de Oro	5	Mayo	2023-02-05T00:00:00	2024-11-08T23:00:00	8	Radiación solar	0
146633	7	Sololá	719	Santiago Atitlán	14	Cerro de Oro	5	Mayo	2023-03-05T00:00:00	2024-11-08T00:00:00	2	Temperatura media	17.6
146634	7	Sololá	719	Santiago Atitlán	14	Cerro de Oro	5	Mayo	2023-03-05T00:00:00	2024-11-08T00:00:00	4	Temperatura máxima	17.9
146635	7	Sololá	719	Santiago Atitlán	14	Cerro de Oro	5	Mayo	2023-03-05T00:00:00	2024-11-08T00:00:00	3	Temperatura mínima	17.6
146636	7	Sololá	719	Santiago Atitlán	14	Cerro de Oro	5	Mayo	2023-03-05T00:00:00	2024-11-08T00:00:00	5	Humedad	88
146637	7	Sololá	719	Santiago Atitlán	14	Cerro de Oro	5	Mayo	2023-03-05T00:00:00	2024-11-08T00:00:00	6	Velocidad del viento	3.2
146638	7	Sololá	719	Santiago Atitlán	14	Cerro de Oro	5	Mayo	2023-03-05T00:00:00	2024-11-08T00:00:00	7	Dirección del viento	3.22
146639	7	Sololá	719	Santiago Atitlán	14	Cerro de Oro	5	Mayo	2023-03-05T00:00:00	2024-11-08T00:00:00	1	Precipitación	0
146640	7	Sololá	719	Santiago Atitlán	14	Cerro de Oro	5	Mayo	2023-03-05T00:00:00	2024-11-08T00:00:00	8	Radiación solar	0
146641	7	Sololá	719	Santiago Atitlán	14	Cerro de Oro	5	Mayo	2023-03-05T00:00:00	2024-11-08T01:00:00	2	Temperatura media	18.2
146642	7	Sololá	719	Santiago Atitlán	14	Cerro de Oro	5	Mayo	2023-03-05T00:00:00	2024-11-08T01:00:00	4	Temperatura máxima	18.2
146643	7	Sololá	719	Santiago Atitlán	14	Cerro de Oro	5	Mayo	2023-03-05T00:00:00	2024-11-08T01:00:00	3	Temperatura mínima	17.6
146644	7	Sololá	719	Santiago Atitlán	14	Cerro de Oro	5	Mayo	2023-03-05T00:00:00	2024-11-08T01:00:00	5	Humedad	79
146645	7	Sololá	719	Santiago Atitlán	14	Cerro de Oro	5	Mayo	2023-03-05T00:00:00	2024-11-08T01:00:00	6	Velocidad del viento	4.8
146646	7	Sololá	719	Santiago Atitlán	14	Cerro de Oro	5	Mayo	2023-03-05T00:00:00	2024-11-08T01:00:00	7	Dirección del viento	4.83
146647	7	Sololá	719	Santiago Atitlán	14	Cerro de Oro	5	Mayo	2023-03-05T00:00:00	2024-11-08T01:00:00	1	Precipitación	0
146648	7	Sololá	719	Santiago Atitlán	14	Cerro de Oro	5	Mayo	2023-03-05T00:00:00	2024-11-08T01:00:00	8	Radiación solar	0
146649	7	Sololá	719	Santiago Atitlán	14	Cerro de Oro	5	Mayo	2023-03-05T00:00:00	2024-11-08T02:00:00	2	Temperatura media	17.7
146650	7	Sololá	719	Santiago Atitlán	14	Cerro de Oro	5	Mayo	2023-03-05T00:00:00	2024-11-08T02:00:00	4	Temperatura máxima	18.2
146651	7	Sololá	719	Santiago Atitlán	14	Cerro de Oro	5	Mayo	2023-03-05T00:00:00	2024-11-08T02:00:00	3	Temperatura mínima	17.4
146652	7	Sololá	719	Santiago Atitlán	14	Cerro de Oro	5	Mayo	2023-03-05T00:00:00	2024-11-08T02:00:00	5	Humedad	81
146653	7	Sololá	719	Santiago Atitlán	14	Cerro de Oro	5	Mayo	2023-03-05T00:00:00	2024-11-08T02:00:00	6	Velocidad del viento	3.2
146654	7	Sololá	719	Santiago Atitlán	14	Cerro de Oro	5	Mayo	2023-03-05T00:00:00	2024-11-08T02:00:00	7	Dirección del viento	3.22
146655	7	Sololá	719	Santiago Atitlán	14	Cerro de Oro	5	Mayo	2023-03-05T00:00:00	2024-11-08T02:00:00	1	Precipitación	0
146656	7	Sololá	719	Santiago Atitlán	14	Cerro de Oro	5	Mayo	2023-03-05T00:00:00	2024-11-08T02:00:00	8	Radiación solar	0
146657	7	Sololá	719	Santiago Atitlán	14	Cerro de Oro	5	Mayo	2023-03-05T00:00:00	2024-11-08T03:00:00	2	Temperatura media	17.8
146658	7	Sololá	719	Santiago Atitlán	14	Cerro de Oro	5	Mayo	2023-03-05T00:00:00	2024-11-08T03:00:00	4	Temperatura máxima	18.4
146659	7	Sololá	719	Santiago Atitlán	14	Cerro de Oro	5	Mayo	2023-03-05T00:00:00	2024-11-08T03:00:00	3	Temperatura mínima	17.7
146660	7	Sololá	719	Santiago Atitlán	14	Cerro de Oro	5	Mayo	2023-03-05T00:00:00	2024-11-08T03:00:00	5	Humedad	82
146661	7	Sololá	719	Santiago Atitlán	14	Cerro de Oro	5	Mayo	2023-03-05T00:00:00	2024-11-08T03:00:00	6	Velocidad del viento	3.2
146662	7	Sololá	719	Santiago Atitlán	14	Cerro de Oro	5	Mayo	2023-03-05T00:00:00	2024-11-08T03:00:00	7	Dirección del viento	3.22
146663	7	Sololá	719	Santiago Atitlán	14	Cerro de Oro	5	Mayo	2023-03-05T00:00:00	2024-11-08T03:00:00	1	Precipitación	0
146664	7	Sololá	719	Santiago Atitlán	14	Cerro de Oro	5	Mayo	2023-03-05T00:00:00	2024-11-08T03:00:00	8	Radiación solar	0
146665	7	Sololá	719	Santiago Atitlán	14	Cerro de Oro	5	Mayo	2023-03-05T00:00:00	2024-11-08T04:00:00	2	Temperatura media	17.8
146666	7	Sololá	719	Santiago Atitlán	14	Cerro de Oro	5	Mayo	2023-03-05T00:00:00	2024-11-08T04:00:00	4	Temperatura máxima	18.3
146667	7	Sololá	719	Santiago Atitlán	14	Cerro de Oro	5	Mayo	2023-03-05T00:00:00	2024-11-08T04:00:00	3	Temperatura mínima	17.4
146668	7	Sololá	719	Santiago Atitlán	14	Cerro de Oro	5	Mayo	2023-03-05T00:00:00	2024-11-08T04:00:00	5	Humedad	84
146669	7	Sololá	719	Santiago Atitlán	14	Cerro de Oro	5	Mayo	2023-03-05T00:00:00	2024-11-08T04:00:00	6	Velocidad del viento	4.8
146670	7	Sololá	719	Santiago Atitlán	14	Cerro de Oro	5	Mayo	2023-03-05T00:00:00	2024-11-08T04:00:00	7	Dirección del viento	4.83
146671	7	Sololá	719	Santiago Atitlán	14	Cerro de Oro	5	Mayo	2023-03-05T00:00:00	2024-11-08T04:00:00	1	Precipitación	0
146672	7	Sololá	719	Santiago Atitlán	14	Cerro de Oro	5	Mayo	2023-03-05T00:00:00	2024-11-08T04:00:00	8	Radiación solar	0
146673	7	Sololá	719	Santiago Atitlán	14	Cerro de Oro	5	Mayo	2023-03-05T00:00:00	2024-11-08T05:00:00	2	Temperatura media	17.6
146674	7	Sololá	719	Santiago Atitlán	14	Cerro de Oro	5	Mayo	2023-03-05T00:00:00	2024-11-08T05:00:00	4	Temperatura máxima	18.3
146675	7	Sololá	719	Santiago Atitlán	14	Cerro de Oro	5	Mayo	2023-03-05T00:00:00	2024-11-08T05:00:00	3	Temperatura mínima	17.2
146676	7	Sololá	719	Santiago Atitlán	14	Cerro de Oro	5	Mayo	2023-03-05T00:00:00	2024-11-08T05:00:00	5	Humedad	86
146677	7	Sololá	719	Santiago Atitlán	14	Cerro de Oro	5	Mayo	2023-03-05T00:00:00	2024-11-08T05:00:00	6	Velocidad del viento	3.2
146678	7	Sololá	719	Santiago Atitlán	14	Cerro de Oro	5	Mayo	2023-03-05T00:00:00	2024-11-08T05:00:00	7	Dirección del viento	3.22
146679	7	Sololá	719	Santiago Atitlán	14	Cerro de Oro	5	Mayo	2023-03-05T00:00:00	2024-11-08T05:00:00	1	Precipitación	0
146680	7	Sololá	719	Santiago Atitlán	14	Cerro de Oro	5	Mayo	2023-03-05T00:00:00	2024-11-08T05:00:00	8	Radiación solar	0
146681	7	Sololá	719	Santiago Atitlán	14	Cerro de Oro	5	Mayo	2023-03-05T00:00:00	2024-11-08T06:00:00	2	Temperatura media	17.7
146682	7	Sololá	719	Santiago Atitlán	14	Cerro de Oro	5	Mayo	2023-03-05T00:00:00	2024-11-08T06:00:00	4	Temperatura máxima	17.8
146683	7	Sololá	719	Santiago Atitlán	14	Cerro de Oro	5	Mayo	2023-03-05T00:00:00	2024-11-08T06:00:00	3	Temperatura mínima	17.4
146684	7	Sololá	719	Santiago Atitlán	14	Cerro de Oro	5	Mayo	2023-03-05T00:00:00	2024-11-08T06:00:00	5	Humedad	82
146685	7	Sololá	719	Santiago Atitlán	14	Cerro de Oro	5	Mayo	2023-03-05T00:00:00	2024-11-08T06:00:00	6	Velocidad del viento	3.2
146686	7	Sololá	719	Santiago Atitlán	14	Cerro de Oro	5	Mayo	2023-03-05T00:00:00	2024-11-08T06:00:00	7	Dirección del viento	3.22
146687	7	Sololá	719	Santiago Atitlán	14	Cerro de Oro	5	Mayo	2023-03-05T00:00:00	2024-11-08T06:00:00	1	Precipitación	0
146688	7	Sololá	719	Santiago Atitlán	14	Cerro de Oro	5	Mayo	2023-03-05T00:00:00	2024-11-08T06:00:00	8	Radiación solar	0
146689	7	Sololá	719	Santiago Atitlán	14	Cerro de Oro	5	Mayo	2023-03-05T00:00:00	2024-11-08T07:00:00	2	Temperatura media	17.7
146690	7	Sololá	719	Santiago Atitlán	14	Cerro de Oro	5	Mayo	2023-03-05T00:00:00	2024-11-08T07:00:00	4	Temperatura máxima	17.7
146691	7	Sololá	719	Santiago Atitlán	14	Cerro de Oro	5	Mayo	2023-03-05T00:00:00	2024-11-08T07:00:00	3	Temperatura mínima	17.5
146692	7	Sololá	719	Santiago Atitlán	14	Cerro de Oro	5	Mayo	2023-03-05T00:00:00	2024-11-08T07:00:00	5	Humedad	81
146693	7	Sololá	719	Santiago Atitlán	14	Cerro de Oro	5	Mayo	2023-03-05T00:00:00	2024-11-08T07:00:00	6	Velocidad del viento	4.8
146694	7	Sololá	719	Santiago Atitlán	14	Cerro de Oro	5	Mayo	2023-03-05T00:00:00	2024-11-08T07:00:00	7	Dirección del viento	4.83
146695	7	Sololá	719	Santiago Atitlán	14	Cerro de Oro	5	Mayo	2023-03-05T00:00:00	2024-11-08T07:00:00	1	Precipitación	0
146696	7	Sololá	719	Santiago Atitlán	14	Cerro de Oro	5	Mayo	2023-03-05T00:00:00	2024-11-08T07:00:00	8	Radiación solar	2
146697	7	Sololá	719	Santiago Atitlán	14	Cerro de Oro	5	Mayo	2023-03-05T00:00:00	2024-11-08T08:00:00	2	Temperatura media	18.9
146698	7	Sololá	719	Santiago Atitlán	14	Cerro de Oro	5	Mayo	2023-03-05T00:00:00	2024-11-08T08:00:00	4	Temperatura máxima	18.9
146699	7	Sololá	719	Santiago Atitlán	14	Cerro de Oro	5	Mayo	2023-03-05T00:00:00	2024-11-08T08:00:00	3	Temperatura mínima	17.6
146700	7	Sololá	719	Santiago Atitlán	14	Cerro de Oro	5	Mayo	2023-03-05T00:00:00	2024-11-08T08:00:00	5	Humedad	75
146701	7	Sololá	719	Santiago Atitlán	14	Cerro de Oro	5	Mayo	2023-03-05T00:00:00	2024-11-08T08:00:00	6	Velocidad del viento	4.8
146702	7	Sololá	719	Santiago Atitlán	14	Cerro de Oro	5	Mayo	2023-03-05T00:00:00	2024-11-08T08:00:00	7	Dirección del viento	4.83
146703	7	Sololá	719	Santiago Atitlán	14	Cerro de Oro	5	Mayo	2023-03-05T00:00:00	2024-11-08T08:00:00	1	Precipitación	0
146704	7	Sololá	719	Santiago Atitlán	14	Cerro de Oro	5	Mayo	2023-03-05T00:00:00	2024-11-08T08:00:00	8	Radiación solar	83
146705	7	Sololá	719	Santiago Atitlán	14	Cerro de Oro	5	Mayo	2023-03-05T00:00:00	2024-11-08T09:00:00	2	Temperatura media	19.8
146706	7	Sololá	719	Santiago Atitlán	14	Cerro de Oro	5	Mayo	2023-03-05T00:00:00	2024-11-08T09:00:00	4	Temperatura máxima	20.1
146707	7	Sololá	719	Santiago Atitlán	14	Cerro de Oro	5	Mayo	2023-03-05T00:00:00	2024-11-08T09:00:00	3	Temperatura mínima	18.9
146708	7	Sololá	719	Santiago Atitlán	14	Cerro de Oro	5	Mayo	2023-03-05T00:00:00	2024-11-08T09:00:00	5	Humedad	78
146709	7	Sololá	719	Santiago Atitlán	14	Cerro de Oro	5	Mayo	2023-03-05T00:00:00	2024-11-08T09:00:00	6	Velocidad del viento	3.2
146710	7	Sololá	719	Santiago Atitlán	14	Cerro de Oro	5	Mayo	2023-03-05T00:00:00	2024-11-08T09:00:00	7	Dirección del viento	3.22
146711	7	Sololá	719	Santiago Atitlán	14	Cerro de Oro	5	Mayo	2023-03-05T00:00:00	2024-11-08T09:00:00	1	Precipitación	0
146712	7	Sololá	719	Santiago Atitlán	14	Cerro de Oro	5	Mayo	2023-03-05T00:00:00	2024-11-08T09:00:00	8	Radiación solar	294
146713	7	Sololá	719	Santiago Atitlán	14	Cerro de Oro	5	Mayo	2023-03-05T00:00:00	2024-11-08T10:00:00	2	Temperatura media	21.1
146714	7	Sololá	719	Santiago Atitlán	14	Cerro de Oro	5	Mayo	2023-03-05T00:00:00	2024-11-08T10:00:00	4	Temperatura máxima	21.1
146715	7	Sololá	719	Santiago Atitlán	14	Cerro de Oro	5	Mayo	2023-03-05T00:00:00	2024-11-08T10:00:00	3	Temperatura mínima	19.8
146716	7	Sololá	719	Santiago Atitlán	14	Cerro de Oro	5	Mayo	2023-03-05T00:00:00	2024-11-08T10:00:00	5	Humedad	74
146717	7	Sololá	719	Santiago Atitlán	14	Cerro de Oro	5	Mayo	2023-03-05T00:00:00	2024-11-08T10:00:00	6	Velocidad del viento	4.8
146718	7	Sololá	719	Santiago Atitlán	14	Cerro de Oro	5	Mayo	2023-03-05T00:00:00	2024-11-08T10:00:00	7	Dirección del viento	4.83
146719	7	Sololá	719	Santiago Atitlán	14	Cerro de Oro	5	Mayo	2023-03-05T00:00:00	2024-11-08T10:00:00	1	Precipitación	0
146720	7	Sololá	719	Santiago Atitlán	14	Cerro de Oro	5	Mayo	2023-03-05T00:00:00	2024-11-08T10:00:00	8	Radiación solar	522
146721	7	Sololá	719	Santiago Atitlán	14	Cerro de Oro	5	Mayo	2023-03-05T00:00:00	2024-11-08T11:00:00	2	Temperatura media	21.6
146722	7	Sololá	719	Santiago Atitlán	14	Cerro de Oro	5	Mayo	2023-03-05T00:00:00	2024-11-08T11:00:00	4	Temperatura máxima	21.8
146723	7	Sololá	719	Santiago Atitlán	14	Cerro de Oro	5	Mayo	2023-03-05T00:00:00	2024-11-08T11:00:00	3	Temperatura mínima	21
146724	7	Sololá	719	Santiago Atitlán	14	Cerro de Oro	5	Mayo	2023-03-05T00:00:00	2024-11-08T11:00:00	5	Humedad	77
146725	7	Sololá	719	Santiago Atitlán	14	Cerro de Oro	5	Mayo	2023-03-05T00:00:00	2024-11-08T11:00:00	6	Velocidad del viento	4.8
146726	7	Sololá	719	Santiago Atitlán	14	Cerro de Oro	5	Mayo	2023-03-05T00:00:00	2024-11-08T11:00:00	7	Dirección del viento	4.83
146727	7	Sololá	719	Santiago Atitlán	14	Cerro de Oro	5	Mayo	2023-03-05T00:00:00	2024-11-08T11:00:00	1	Precipitación	0
146728	7	Sololá	719	Santiago Atitlán	14	Cerro de Oro	5	Mayo	2023-03-05T00:00:00	2024-11-08T11:00:00	8	Radiación solar	698
146729	7	Sololá	719	Santiago Atitlán	14	Cerro de Oro	5	Mayo	2023-03-05T00:00:00	2024-11-08T12:00:00	2	Temperatura media	23.8
146730	7	Sololá	719	Santiago Atitlán	14	Cerro de Oro	5	Mayo	2023-03-05T00:00:00	2024-11-08T12:00:00	4	Temperatura máxima	23.8
146731	7	Sololá	719	Santiago Atitlán	14	Cerro de Oro	5	Mayo	2023-03-05T00:00:00	2024-11-08T12:00:00	3	Temperatura mínima	21.6
146732	7	Sololá	719	Santiago Atitlán	14	Cerro de Oro	5	Mayo	2023-03-05T00:00:00	2024-11-08T12:00:00	5	Humedad	72
146733	7	Sololá	719	Santiago Atitlán	14	Cerro de Oro	5	Mayo	2023-03-05T00:00:00	2024-11-08T12:00:00	6	Velocidad del viento	6.4
146734	7	Sololá	719	Santiago Atitlán	14	Cerro de Oro	5	Mayo	2023-03-05T00:00:00	2024-11-08T12:00:00	7	Dirección del viento	6.44
146735	7	Sololá	719	Santiago Atitlán	14	Cerro de Oro	5	Mayo	2023-03-05T00:00:00	2024-11-08T12:00:00	1	Precipitación	0
146736	7	Sololá	719	Santiago Atitlán	14	Cerro de Oro	5	Mayo	2023-03-05T00:00:00	2024-11-08T12:00:00	8	Radiación solar	801
146737	7	Sololá	719	Santiago Atitlán	14	Cerro de Oro	5	Mayo	2023-03-05T00:00:00	2024-11-08T13:00:00	2	Temperatura media	23.7
146738	7	Sololá	719	Santiago Atitlán	14	Cerro de Oro	5	Mayo	2023-03-05T00:00:00	2024-11-08T13:00:00	4	Temperatura máxima	24.2
146739	7	Sololá	719	Santiago Atitlán	14	Cerro de Oro	5	Mayo	2023-03-05T00:00:00	2024-11-08T13:00:00	3	Temperatura mínima	23.6
146740	7	Sololá	719	Santiago Atitlán	14	Cerro de Oro	5	Mayo	2023-03-05T00:00:00	2024-11-08T13:00:00	5	Humedad	74
146741	7	Sololá	719	Santiago Atitlán	14	Cerro de Oro	5	Mayo	2023-03-05T00:00:00	2024-11-08T13:00:00	6	Velocidad del viento	9.7
146742	7	Sololá	719	Santiago Atitlán	14	Cerro de Oro	5	Mayo	2023-03-05T00:00:00	2024-11-08T13:00:00	7	Dirección del viento	9.66
146743	7	Sololá	719	Santiago Atitlán	14	Cerro de Oro	5	Mayo	2023-03-05T00:00:00	2024-11-08T13:00:00	1	Precipitación	0
146744	7	Sololá	719	Santiago Atitlán	14	Cerro de Oro	5	Mayo	2023-03-05T00:00:00	2024-11-08T13:00:00	8	Radiación solar	894
146745	7	Sololá	719	Santiago Atitlán	14	Cerro de Oro	5	Mayo	2023-03-05T00:00:00	2024-11-08T14:00:00	2	Temperatura media	24.4
146746	7	Sololá	719	Santiago Atitlán	14	Cerro de Oro	5	Mayo	2023-03-05T00:00:00	2024-11-08T14:00:00	4	Temperatura máxima	24.6
146747	7	Sololá	719	Santiago Atitlán	14	Cerro de Oro	5	Mayo	2023-03-05T00:00:00	2024-11-08T14:00:00	3	Temperatura mínima	23.7
146748	7	Sololá	719	Santiago Atitlán	14	Cerro de Oro	5	Mayo	2023-03-05T00:00:00	2024-11-08T14:00:00	5	Humedad	71
146749	7	Sololá	719	Santiago Atitlán	14	Cerro de Oro	5	Mayo	2023-03-05T00:00:00	2024-11-08T14:00:00	6	Velocidad del viento	9.7
146750	7	Sololá	719	Santiago Atitlán	14	Cerro de Oro	5	Mayo	2023-03-05T00:00:00	2024-11-08T14:00:00	7	Dirección del viento	9.66
146751	7	Sololá	719	Santiago Atitlán	14	Cerro de Oro	5	Mayo	2023-03-05T00:00:00	2024-11-08T14:00:00	1	Precipitación	0
146752	7	Sololá	719	Santiago Atitlán	14	Cerro de Oro	5	Mayo	2023-03-05T00:00:00	2024-11-08T14:00:00	8	Radiación solar	887
146753	7	Sololá	719	Santiago Atitlán	14	Cerro de Oro	5	Mayo	2023-03-05T00:00:00	2024-11-08T15:00:00	2	Temperatura media	24
146754	7	Sololá	719	Santiago Atitlán	14	Cerro de Oro	5	Mayo	2023-03-05T00:00:00	2024-11-08T15:00:00	4	Temperatura máxima	24.8
146755	7	Sololá	719	Santiago Atitlán	14	Cerro de Oro	5	Mayo	2023-03-05T00:00:00	2024-11-08T15:00:00	3	Temperatura mínima	24
146756	7	Sololá	719	Santiago Atitlán	14	Cerro de Oro	5	Mayo	2023-03-05T00:00:00	2024-11-08T15:00:00	5	Humedad	72
146757	7	Sololá	719	Santiago Atitlán	14	Cerro de Oro	5	Mayo	2023-03-05T00:00:00	2024-11-08T15:00:00	6	Velocidad del viento	11.3
146758	7	Sololá	719	Santiago Atitlán	14	Cerro de Oro	5	Mayo	2023-03-05T00:00:00	2024-11-08T15:00:00	7	Dirección del viento	11.27
146759	7	Sololá	719	Santiago Atitlán	14	Cerro de Oro	5	Mayo	2023-03-05T00:00:00	2024-11-08T15:00:00	1	Precipitación	0
146760	7	Sololá	719	Santiago Atitlán	14	Cerro de Oro	5	Mayo	2023-03-05T00:00:00	2024-11-08T15:00:00	8	Radiación solar	845
146761	7	Sololá	719	Santiago Atitlán	14	Cerro de Oro	5	Mayo	2023-03-05T00:00:00	2024-11-08T16:00:00	2	Temperatura media	23.4
146762	7	Sololá	719	Santiago Atitlán	14	Cerro de Oro	5	Mayo	2023-03-05T00:00:00	2024-11-08T16:00:00	4	Temperatura máxima	24.1
146763	7	Sololá	719	Santiago Atitlán	14	Cerro de Oro	5	Mayo	2023-03-05T00:00:00	2024-11-08T16:00:00	3	Temperatura mínima	23.4
146764	7	Sololá	719	Santiago Atitlán	14	Cerro de Oro	5	Mayo	2023-03-05T00:00:00	2024-11-08T16:00:00	5	Humedad	76
146765	7	Sololá	719	Santiago Atitlán	14	Cerro de Oro	5	Mayo	2023-03-05T00:00:00	2024-11-08T16:00:00	6	Velocidad del viento	11.3
146766	7	Sololá	719	Santiago Atitlán	14	Cerro de Oro	5	Mayo	2023-03-05T00:00:00	2024-11-08T16:00:00	7	Dirección del viento	11.27
146767	7	Sololá	719	Santiago Atitlán	14	Cerro de Oro	5	Mayo	2023-03-05T00:00:00	2024-11-08T16:00:00	1	Precipitación	0
146768	7	Sololá	719	Santiago Atitlán	14	Cerro de Oro	5	Mayo	2023-03-05T00:00:00	2024-11-08T16:00:00	8	Radiación solar	528
146769	7	Sololá	719	Santiago Atitlán	14	Cerro de Oro	5	Mayo	2023-03-05T00:00:00	2024-11-08T17:00:00	2	Temperatura media	22.5
146770	7	Sololá	719	Santiago Atitlán	14	Cerro de Oro	5	Mayo	2023-03-05T00:00:00	2024-11-08T17:00:00	4	Temperatura máxima	23.5
146771	7	Sololá	719	Santiago Atitlán	14	Cerro de Oro	5	Mayo	2023-03-05T00:00:00	2024-11-08T17:00:00	3	Temperatura mínima	22.5
146772	7	Sololá	719	Santiago Atitlán	14	Cerro de Oro	5	Mayo	2023-03-05T00:00:00	2024-11-08T17:00:00	5	Humedad	82
146773	7	Sololá	719	Santiago Atitlán	14	Cerro de Oro	5	Mayo	2023-03-05T00:00:00	2024-11-08T17:00:00	6	Velocidad del viento	4.8
146774	7	Sololá	719	Santiago Atitlán	14	Cerro de Oro	5	Mayo	2023-03-05T00:00:00	2024-11-08T17:00:00	7	Dirección del viento	4.83
146775	7	Sololá	719	Santiago Atitlán	14	Cerro de Oro	5	Mayo	2023-03-05T00:00:00	2024-11-08T17:00:00	1	Precipitación	0
146776	7	Sololá	719	Santiago Atitlán	14	Cerro de Oro	5	Mayo	2023-03-05T00:00:00	2024-11-08T17:00:00	8	Radiación solar	180
146777	7	Sololá	719	Santiago Atitlán	14	Cerro de Oro	5	Mayo	2023-03-05T00:00:00	2024-11-08T18:00:00	2	Temperatura media	22.7
146778	7	Sololá	719	Santiago Atitlán	14	Cerro de Oro	5	Mayo	2023-03-05T00:00:00	2024-11-08T18:00:00	4	Temperatura máxima	22.8
146779	7	Sololá	719	Santiago Atitlán	14	Cerro de Oro	5	Mayo	2023-03-05T00:00:00	2024-11-08T18:00:00	3	Temperatura mínima	22.4
146780	7	Sololá	719	Santiago Atitlán	14	Cerro de Oro	5	Mayo	2023-03-05T00:00:00	2024-11-08T18:00:00	5	Humedad	80
146781	7	Sololá	719	Santiago Atitlán	14	Cerro de Oro	5	Mayo	2023-03-05T00:00:00	2024-11-08T18:00:00	6	Velocidad del viento	4.8
146782	7	Sololá	719	Santiago Atitlán	14	Cerro de Oro	5	Mayo	2023-03-05T00:00:00	2024-11-08T18:00:00	7	Dirección del viento	4.83
146783	7	Sololá	719	Santiago Atitlán	14	Cerro de Oro	5	Mayo	2023-03-05T00:00:00	2024-11-08T18:00:00	1	Precipitación	0
146784	7	Sololá	719	Santiago Atitlán	14	Cerro de Oro	5	Mayo	2023-03-05T00:00:00	2024-11-08T18:00:00	8	Radiación solar	221
146785	7	Sololá	719	Santiago Atitlán	14	Cerro de Oro	5	Mayo	2023-03-05T00:00:00	2024-11-08T19:00:00	2	Temperatura media	23.8
146786	7	Sololá	719	Santiago Atitlán	14	Cerro de Oro	5	Mayo	2023-03-05T00:00:00	2024-11-08T19:00:00	4	Temperatura máxima	23.9
146787	7	Sololá	719	Santiago Atitlán	14	Cerro de Oro	5	Mayo	2023-03-05T00:00:00	2024-11-08T19:00:00	3	Temperatura mínima	22.7
146788	7	Sololá	719	Santiago Atitlán	14	Cerro de Oro	5	Mayo	2023-03-05T00:00:00	2024-11-08T19:00:00	5	Humedad	66
146789	7	Sololá	719	Santiago Atitlán	14	Cerro de Oro	5	Mayo	2023-03-05T00:00:00	2024-11-08T19:00:00	6	Velocidad del viento	4.8
146790	7	Sololá	719	Santiago Atitlán	14	Cerro de Oro	5	Mayo	2023-03-05T00:00:00	2024-11-08T19:00:00	7	Dirección del viento	4.83
146791	7	Sololá	719	Santiago Atitlán	14	Cerro de Oro	5	Mayo	2023-03-05T00:00:00	2024-11-08T19:00:00	1	Precipitación	0
146792	7	Sololá	719	Santiago Atitlán	14	Cerro de Oro	5	Mayo	2023-03-05T00:00:00	2024-11-08T19:00:00	8	Radiación solar	0
146793	7	Sololá	719	Santiago Atitlán	14	Cerro de Oro	5	Mayo	2023-03-05T00:00:00	2024-11-08T20:00:00	2	Temperatura media	22.5
146794	7	Sololá	719	Santiago Atitlán	14	Cerro de Oro	5	Mayo	2023-03-05T00:00:00	2024-11-08T20:00:00	4	Temperatura máxima	23.8
146795	7	Sololá	719	Santiago Atitlán	14	Cerro de Oro	5	Mayo	2023-03-05T00:00:00	2024-11-08T20:00:00	3	Temperatura mínima	22.5
146796	7	Sololá	719	Santiago Atitlán	14	Cerro de Oro	5	Mayo	2023-03-05T00:00:00	2024-11-08T20:00:00	5	Humedad	70
146797	7	Sololá	719	Santiago Atitlán	14	Cerro de Oro	5	Mayo	2023-03-05T00:00:00	2024-11-08T20:00:00	6	Velocidad del viento	3.2
146798	7	Sololá	719	Santiago Atitlán	14	Cerro de Oro	5	Mayo	2023-03-05T00:00:00	2024-11-08T20:00:00	7	Dirección del viento	3.22
146799	7	Sololá	719	Santiago Atitlán	14	Cerro de Oro	5	Mayo	2023-03-05T00:00:00	2024-11-08T20:00:00	1	Precipitación	0
146800	7	Sololá	719	Santiago Atitlán	14	Cerro de Oro	5	Mayo	2023-03-05T00:00:00	2024-11-08T20:00:00	8	Radiación solar	0
146801	7	Sololá	719	Santiago Atitlán	14	Cerro de Oro	5	Mayo	2023-03-05T00:00:00	2024-11-08T21:00:00	2	Temperatura media	22.2
146802	7	Sololá	719	Santiago Atitlán	14	Cerro de Oro	5	Mayo	2023-03-05T00:00:00	2024-11-08T21:00:00	4	Temperatura máxima	22.6
146803	7	Sololá	719	Santiago Atitlán	14	Cerro de Oro	5	Mayo	2023-03-05T00:00:00	2024-11-08T21:00:00	3	Temperatura mínima	22.1
146804	7	Sololá	719	Santiago Atitlán	14	Cerro de Oro	5	Mayo	2023-03-05T00:00:00	2024-11-08T21:00:00	5	Humedad	71
146805	7	Sololá	719	Santiago Atitlán	14	Cerro de Oro	5	Mayo	2023-03-05T00:00:00	2024-11-08T21:00:00	6	Velocidad del viento	8
146806	7	Sololá	719	Santiago Atitlán	14	Cerro de Oro	5	Mayo	2023-03-05T00:00:00	2024-11-08T21:00:00	7	Dirección del viento	8.05
146807	7	Sololá	719	Santiago Atitlán	14	Cerro de Oro	5	Mayo	2023-03-05T00:00:00	2024-11-08T21:00:00	1	Precipitación	0
146808	7	Sololá	719	Santiago Atitlán	14	Cerro de Oro	5	Mayo	2023-03-05T00:00:00	2024-11-08T21:00:00	8	Radiación solar	0
146809	7	Sololá	719	Santiago Atitlán	14	Cerro de Oro	5	Mayo	2023-03-05T00:00:00	2024-11-08T22:00:00	2	Temperatura media	21.9
146810	7	Sololá	719	Santiago Atitlán	14	Cerro de Oro	5	Mayo	2023-03-05T00:00:00	2024-11-08T22:00:00	4	Temperatura máxima	22.3
146811	7	Sololá	719	Santiago Atitlán	14	Cerro de Oro	5	Mayo	2023-03-05T00:00:00	2024-11-08T22:00:00	3	Temperatura mínima	21.9
146812	7	Sololá	719	Santiago Atitlán	14	Cerro de Oro	5	Mayo	2023-03-05T00:00:00	2024-11-08T22:00:00	5	Humedad	71
146813	7	Sololá	719	Santiago Atitlán	14	Cerro de Oro	5	Mayo	2023-03-05T00:00:00	2024-11-08T22:00:00	6	Velocidad del viento	8
146814	7	Sololá	719	Santiago Atitlán	14	Cerro de Oro	5	Mayo	2023-03-05T00:00:00	2024-11-08T22:00:00	7	Dirección del viento	8.05
146815	7	Sololá	719	Santiago Atitlán	14	Cerro de Oro	5	Mayo	2023-03-05T00:00:00	2024-11-08T22:00:00	1	Precipitación	0
146816	7	Sololá	719	Santiago Atitlán	14	Cerro de Oro	5	Mayo	2023-03-05T00:00:00	2024-11-08T22:00:00	8	Radiación solar	0
146817	7	Sololá	719	Santiago Atitlán	14	Cerro de Oro	5	Mayo	2023-03-05T00:00:00	2024-11-08T23:00:00	2	Temperatura media	21.1
146818	7	Sololá	719	Santiago Atitlán	14	Cerro de Oro	5	Mayo	2023-03-05T00:00:00	2024-11-08T23:00:00	4	Temperatura máxima	21.9
146819	7	Sololá	719	Santiago Atitlán	14	Cerro de Oro	5	Mayo	2023-03-05T00:00:00	2024-11-08T23:00:00	3	Temperatura mínima	21.1
146820	7	Sololá	719	Santiago Atitlán	14	Cerro de Oro	5	Mayo	2023-03-05T00:00:00	2024-11-08T23:00:00	5	Humedad	73
146821	7	Sololá	719	Santiago Atitlán	14	Cerro de Oro	5	Mayo	2023-03-05T00:00:00	2024-11-08T23:00:00	6	Velocidad del viento	4.8
146822	7	Sololá	719	Santiago Atitlán	14	Cerro de Oro	5	Mayo	2023-03-05T00:00:00	2024-11-08T23:00:00	7	Dirección del viento	4.83
146823	7	Sololá	719	Santiago Atitlán	14	Cerro de Oro	5	Mayo	2023-03-05T00:00:00	2024-11-08T23:00:00	1	Precipitación	0
146824	7	Sololá	719	Santiago Atitlán	14	Cerro de Oro	5	Mayo	2023-03-05T00:00:00	2024-11-08T23:00:00	8	Radiación solar	0
146825	7	Sololá	719	Santiago Atitlán	14	Cerro de Oro	5	Mayo	2023-04-05T00:00:00	2024-11-08T00:00:00	2	Temperatura media	20.4
146826	7	Sololá	719	Santiago Atitlán	14	Cerro de Oro	5	Mayo	2023-04-05T00:00:00	2024-11-08T00:00:00	4	Temperatura máxima	21.1
146827	7	Sololá	719	Santiago Atitlán	14	Cerro de Oro	5	Mayo	2023-04-05T00:00:00	2024-11-08T00:00:00	3	Temperatura mínima	19.9
146828	7	Sololá	719	Santiago Atitlán	14	Cerro de Oro	5	Mayo	2023-04-05T00:00:00	2024-11-08T00:00:00	5	Humedad	78
146829	7	Sololá	719	Santiago Atitlán	14	Cerro de Oro	5	Mayo	2023-04-05T00:00:00	2024-11-08T00:00:00	6	Velocidad del viento	8
146830	7	Sololá	719	Santiago Atitlán	14	Cerro de Oro	5	Mayo	2023-04-05T00:00:00	2024-11-08T00:00:00	7	Dirección del viento	8.05
146831	7	Sololá	719	Santiago Atitlán	14	Cerro de Oro	5	Mayo	2023-04-05T00:00:00	2024-11-08T00:00:00	1	Precipitación	0
146832	7	Sololá	719	Santiago Atitlán	14	Cerro de Oro	5	Mayo	2023-04-05T00:00:00	2024-11-08T00:00:00	8	Radiación solar	0
146833	7	Sololá	719	Santiago Atitlán	14	Cerro de Oro	5	Mayo	2023-04-05T00:00:00	2024-11-08T01:00:00	2	Temperatura media	20
146834	7	Sololá	719	Santiago Atitlán	14	Cerro de Oro	5	Mayo	2023-04-05T00:00:00	2024-11-08T01:00:00	4	Temperatura máxima	20.6
146835	7	Sololá	719	Santiago Atitlán	14	Cerro de Oro	5	Mayo	2023-04-05T00:00:00	2024-11-08T01:00:00	3	Temperatura mínima	19.9
146836	7	Sololá	719	Santiago Atitlán	14	Cerro de Oro	5	Mayo	2023-04-05T00:00:00	2024-11-08T01:00:00	5	Humedad	78
146837	7	Sololá	719	Santiago Atitlán	14	Cerro de Oro	5	Mayo	2023-04-05T00:00:00	2024-11-08T01:00:00	6	Velocidad del viento	4.8
146838	7	Sololá	719	Santiago Atitlán	14	Cerro de Oro	5	Mayo	2023-04-05T00:00:00	2024-11-08T01:00:00	7	Dirección del viento	4.83
146839	7	Sololá	719	Santiago Atitlán	14	Cerro de Oro	5	Mayo	2023-04-05T00:00:00	2024-11-08T01:00:00	1	Precipitación	0
146840	7	Sololá	719	Santiago Atitlán	14	Cerro de Oro	5	Mayo	2023-04-05T00:00:00	2024-11-08T01:00:00	8	Radiación solar	0
146841	7	Sololá	719	Santiago Atitlán	14	Cerro de Oro	5	Mayo	2023-04-05T00:00:00	2024-11-08T02:00:00	2	Temperatura media	19.5
146842	7	Sololá	719	Santiago Atitlán	14	Cerro de Oro	5	Mayo	2023-04-05T00:00:00	2024-11-08T02:00:00	4	Temperatura máxima	19.9
146843	7	Sololá	719	Santiago Atitlán	14	Cerro de Oro	5	Mayo	2023-04-05T00:00:00	2024-11-08T02:00:00	3	Temperatura mínima	19.4
146844	7	Sololá	719	Santiago Atitlán	14	Cerro de Oro	5	Mayo	2023-04-05T00:00:00	2024-11-08T02:00:00	5	Humedad	78
146845	7	Sololá	719	Santiago Atitlán	14	Cerro de Oro	5	Mayo	2023-04-05T00:00:00	2024-11-08T02:00:00	6	Velocidad del viento	4.8
146846	7	Sololá	719	Santiago Atitlán	14	Cerro de Oro	5	Mayo	2023-04-05T00:00:00	2024-11-08T02:00:00	7	Dirección del viento	4.83
146847	7	Sololá	719	Santiago Atitlán	14	Cerro de Oro	5	Mayo	2023-04-05T00:00:00	2024-11-08T02:00:00	1	Precipitación	0
146848	7	Sololá	719	Santiago Atitlán	14	Cerro de Oro	5	Mayo	2023-04-05T00:00:00	2024-11-08T02:00:00	8	Radiación solar	0
146849	7	Sololá	719	Santiago Atitlán	14	Cerro de Oro	5	Mayo	2023-04-05T00:00:00	2024-11-08T03:00:00	2	Temperatura media	20.3
146850	7	Sololá	719	Santiago Atitlán	14	Cerro de Oro	5	Mayo	2023-04-05T00:00:00	2024-11-08T03:00:00	4	Temperatura máxima	20.3
146851	7	Sololá	719	Santiago Atitlán	14	Cerro de Oro	5	Mayo	2023-04-05T00:00:00	2024-11-08T03:00:00	3	Temperatura mínima	19.2
146852	7	Sololá	719	Santiago Atitlán	14	Cerro de Oro	5	Mayo	2023-04-05T00:00:00	2024-11-08T03:00:00	5	Humedad	72
146853	7	Sololá	719	Santiago Atitlán	14	Cerro de Oro	5	Mayo	2023-04-05T00:00:00	2024-11-08T03:00:00	6	Velocidad del viento	4.8
146854	7	Sololá	719	Santiago Atitlán	14	Cerro de Oro	5	Mayo	2023-04-05T00:00:00	2024-11-08T03:00:00	7	Dirección del viento	4.83
146855	7	Sololá	719	Santiago Atitlán	14	Cerro de Oro	5	Mayo	2023-04-05T00:00:00	2024-11-08T03:00:00	1	Precipitación	0
146856	7	Sololá	719	Santiago Atitlán	14	Cerro de Oro	5	Mayo	2023-04-05T00:00:00	2024-11-08T03:00:00	8	Radiación solar	0
146857	7	Sololá	719	Santiago Atitlán	14	Cerro de Oro	5	Mayo	2023-04-05T00:00:00	2024-11-08T04:00:00	2	Temperatura media	20.4
146858	7	Sololá	719	Santiago Atitlán	14	Cerro de Oro	5	Mayo	2023-04-05T00:00:00	2024-11-08T04:00:00	4	Temperatura máxima	20.4
146859	7	Sololá	719	Santiago Atitlán	14	Cerro de Oro	5	Mayo	2023-04-05T00:00:00	2024-11-08T04:00:00	3	Temperatura mínima	19.8
146860	7	Sololá	719	Santiago Atitlán	14	Cerro de Oro	5	Mayo	2023-04-05T00:00:00	2024-11-08T04:00:00	5	Humedad	72
146861	7	Sololá	719	Santiago Atitlán	14	Cerro de Oro	5	Mayo	2023-04-05T00:00:00	2024-11-08T04:00:00	6	Velocidad del viento	4.8
146862	7	Sololá	719	Santiago Atitlán	14	Cerro de Oro	5	Mayo	2023-04-05T00:00:00	2024-11-08T04:00:00	7	Dirección del viento	4.83
146863	7	Sololá	719	Santiago Atitlán	14	Cerro de Oro	5	Mayo	2023-04-05T00:00:00	2024-11-08T04:00:00	1	Precipitación	0
146864	7	Sololá	719	Santiago Atitlán	14	Cerro de Oro	5	Mayo	2023-04-05T00:00:00	2024-11-08T04:00:00	8	Radiación solar	0
146865	7	Sololá	719	Santiago Atitlán	14	Cerro de Oro	5	Mayo	2023-04-05T00:00:00	2024-11-08T05:00:00	2	Temperatura media	19.6
146866	7	Sololá	719	Santiago Atitlán	14	Cerro de Oro	5	Mayo	2023-04-05T00:00:00	2024-11-08T05:00:00	4	Temperatura máxima	20.4
146867	7	Sololá	719	Santiago Atitlán	14	Cerro de Oro	5	Mayo	2023-04-05T00:00:00	2024-11-08T05:00:00	3	Temperatura mínima	19.4
146868	7	Sololá	719	Santiago Atitlán	14	Cerro de Oro	5	Mayo	2023-04-05T00:00:00	2024-11-08T05:00:00	5	Humedad	75
146869	7	Sololá	719	Santiago Atitlán	14	Cerro de Oro	5	Mayo	2023-04-05T00:00:00	2024-11-08T05:00:00	6	Velocidad del viento	1.6
146870	7	Sololá	719	Santiago Atitlán	14	Cerro de Oro	5	Mayo	2023-04-05T00:00:00	2024-11-08T05:00:00	7	Dirección del viento	1.61
146871	7	Sololá	719	Santiago Atitlán	14	Cerro de Oro	5	Mayo	2023-04-05T00:00:00	2024-11-08T05:00:00	1	Precipitación	0
146872	7	Sololá	719	Santiago Atitlán	14	Cerro de Oro	5	Mayo	2023-04-05T00:00:00	2024-11-08T05:00:00	8	Radiación solar	0
146873	7	Sololá	719	Santiago Atitlán	14	Cerro de Oro	5	Mayo	2023-04-05T00:00:00	2024-11-08T06:00:00	2	Temperatura media	19.5
146874	7	Sololá	719	Santiago Atitlán	14	Cerro de Oro	5	Mayo	2023-04-05T00:00:00	2024-11-08T06:00:00	4	Temperatura máxima	19.8
146875	7	Sololá	719	Santiago Atitlán	14	Cerro de Oro	5	Mayo	2023-04-05T00:00:00	2024-11-08T06:00:00	3	Temperatura mínima	18.9
146876	7	Sololá	719	Santiago Atitlán	14	Cerro de Oro	5	Mayo	2023-04-05T00:00:00	2024-11-08T06:00:00	5	Humedad	71
146877	7	Sololá	719	Santiago Atitlán	14	Cerro de Oro	5	Mayo	2023-04-05T00:00:00	2024-11-08T06:00:00	6	Velocidad del viento	4.8
146878	7	Sololá	719	Santiago Atitlán	14	Cerro de Oro	5	Mayo	2023-04-05T00:00:00	2024-11-08T06:00:00	7	Dirección del viento	4.83
146879	7	Sololá	719	Santiago Atitlán	14	Cerro de Oro	5	Mayo	2023-04-05T00:00:00	2024-11-08T06:00:00	1	Precipitación	0
146880	7	Sololá	719	Santiago Atitlán	14	Cerro de Oro	5	Mayo	2023-04-05T00:00:00	2024-11-08T06:00:00	8	Radiación solar	0
146881	7	Sololá	719	Santiago Atitlán	14	Cerro de Oro	5	Mayo	2023-04-05T00:00:00	2024-11-08T07:00:00	2	Temperatura media	19.5
146882	7	Sololá	719	Santiago Atitlán	14	Cerro de Oro	5	Mayo	2023-04-05T00:00:00	2024-11-08T07:00:00	4	Temperatura máxima	19.7
146883	7	Sololá	719	Santiago Atitlán	14	Cerro de Oro	5	Mayo	2023-04-05T00:00:00	2024-11-08T07:00:00	3	Temperatura mínima	18.6
146884	7	Sololá	719	Santiago Atitlán	14	Cerro de Oro	5	Mayo	2023-04-05T00:00:00	2024-11-08T07:00:00	5	Humedad	70
146885	7	Sololá	719	Santiago Atitlán	14	Cerro de Oro	5	Mayo	2023-04-05T00:00:00	2024-11-08T07:00:00	6	Velocidad del viento	4.8
146886	7	Sololá	719	Santiago Atitlán	14	Cerro de Oro	5	Mayo	2023-04-05T00:00:00	2024-11-08T07:00:00	7	Dirección del viento	4.83
146887	7	Sololá	719	Santiago Atitlán	14	Cerro de Oro	5	Mayo	2023-04-05T00:00:00	2024-11-08T07:00:00	1	Precipitación	0
146888	7	Sololá	719	Santiago Atitlán	14	Cerro de Oro	5	Mayo	2023-04-05T00:00:00	2024-11-08T07:00:00	8	Radiación solar	6
146889	7	Sololá	719	Santiago Atitlán	14	Cerro de Oro	5	Mayo	2023-04-05T00:00:00	2024-11-08T08:00:00	2	Temperatura media	20.4
146890	7	Sololá	719	Santiago Atitlán	14	Cerro de Oro	5	Mayo	2023-04-05T00:00:00	2024-11-08T08:00:00	4	Temperatura máxima	20.4
146891	7	Sololá	719	Santiago Atitlán	14	Cerro de Oro	5	Mayo	2023-04-05T00:00:00	2024-11-08T08:00:00	3	Temperatura mínima	19.4
146892	7	Sololá	719	Santiago Atitlán	14	Cerro de Oro	5	Mayo	2023-04-05T00:00:00	2024-11-08T08:00:00	5	Humedad	75
146893	7	Sololá	719	Santiago Atitlán	14	Cerro de Oro	5	Mayo	2023-04-05T00:00:00	2024-11-08T08:00:00	6	Velocidad del viento	4.8
146894	7	Sololá	719	Santiago Atitlán	14	Cerro de Oro	5	Mayo	2023-04-05T00:00:00	2024-11-08T08:00:00	7	Dirección del viento	4.83
146895	7	Sololá	719	Santiago Atitlán	14	Cerro de Oro	5	Mayo	2023-04-05T00:00:00	2024-11-08T08:00:00	1	Precipitación	0
146896	7	Sololá	719	Santiago Atitlán	14	Cerro de Oro	5	Mayo	2023-04-05T00:00:00	2024-11-08T08:00:00	8	Radiación solar	89
146897	7	Sololá	719	Santiago Atitlán	14	Cerro de Oro	5	Mayo	2023-04-05T00:00:00	2024-11-08T09:00:00	2	Temperatura media	22.1
146898	7	Sololá	719	Santiago Atitlán	14	Cerro de Oro	5	Mayo	2023-04-05T00:00:00	2024-11-08T09:00:00	4	Temperatura máxima	22.1
146899	7	Sololá	719	Santiago Atitlán	14	Cerro de Oro	5	Mayo	2023-04-05T00:00:00	2024-11-08T09:00:00	3	Temperatura mínima	20.4
146900	7	Sololá	719	Santiago Atitlán	14	Cerro de Oro	5	Mayo	2023-04-05T00:00:00	2024-11-08T09:00:00	5	Humedad	74
146901	7	Sololá	719	Santiago Atitlán	14	Cerro de Oro	5	Mayo	2023-04-05T00:00:00	2024-11-08T09:00:00	6	Velocidad del viento	3.2
146902	7	Sololá	719	Santiago Atitlán	14	Cerro de Oro	5	Mayo	2023-04-05T00:00:00	2024-11-08T09:00:00	7	Dirección del viento	3.22
146903	7	Sololá	719	Santiago Atitlán	14	Cerro de Oro	5	Mayo	2023-04-05T00:00:00	2024-11-08T09:00:00	1	Precipitación	0
146904	7	Sololá	719	Santiago Atitlán	14	Cerro de Oro	5	Mayo	2023-04-05T00:00:00	2024-11-08T09:00:00	8	Radiación solar	303
146905	7	Sololá	719	Santiago Atitlán	14	Cerro de Oro	5	Mayo	2023-04-05T00:00:00	2024-11-08T10:00:00	2	Temperatura media	22.8
146906	7	Sololá	719	Santiago Atitlán	14	Cerro de Oro	5	Mayo	2023-04-05T00:00:00	2024-11-08T10:00:00	4	Temperatura máxima	23.1
146907	7	Sololá	719	Santiago Atitlán	14	Cerro de Oro	5	Mayo	2023-04-05T00:00:00	2024-11-08T10:00:00	3	Temperatura mínima	21.9
146908	7	Sololá	719	Santiago Atitlán	14	Cerro de Oro	5	Mayo	2023-04-05T00:00:00	2024-11-08T10:00:00	5	Humedad	70
146909	7	Sololá	719	Santiago Atitlán	14	Cerro de Oro	5	Mayo	2023-04-05T00:00:00	2024-11-08T10:00:00	6	Velocidad del viento	4.8
146910	7	Sololá	719	Santiago Atitlán	14	Cerro de Oro	5	Mayo	2023-04-05T00:00:00	2024-11-08T10:00:00	7	Dirección del viento	4.83
146911	7	Sololá	719	Santiago Atitlán	14	Cerro de Oro	5	Mayo	2023-04-05T00:00:00	2024-11-08T10:00:00	1	Precipitación	0
146912	7	Sololá	719	Santiago Atitlán	14	Cerro de Oro	5	Mayo	2023-04-05T00:00:00	2024-11-08T10:00:00	8	Radiación solar	512
146913	7	Sololá	719	Santiago Atitlán	14	Cerro de Oro	5	Mayo	2023-04-05T00:00:00	2024-11-08T11:00:00	2	Temperatura media	23.2
146914	7	Sololá	719	Santiago Atitlán	14	Cerro de Oro	5	Mayo	2023-04-05T00:00:00	2024-11-08T11:00:00	4	Temperatura máxima	23.8
146915	7	Sololá	719	Santiago Atitlán	14	Cerro de Oro	5	Mayo	2023-04-05T00:00:00	2024-11-08T11:00:00	3	Temperatura mínima	22.7
146916	7	Sololá	719	Santiago Atitlán	14	Cerro de Oro	5	Mayo	2023-04-05T00:00:00	2024-11-08T11:00:00	5	Humedad	70
146917	7	Sololá	719	Santiago Atitlán	14	Cerro de Oro	5	Mayo	2023-04-05T00:00:00	2024-11-08T11:00:00	6	Velocidad del viento	4.8
146918	7	Sololá	719	Santiago Atitlán	14	Cerro de Oro	5	Mayo	2023-04-05T00:00:00	2024-11-08T11:00:00	7	Dirección del viento	4.83
146919	7	Sololá	719	Santiago Atitlán	14	Cerro de Oro	5	Mayo	2023-04-05T00:00:00	2024-11-08T11:00:00	1	Precipitación	0
146920	7	Sololá	719	Santiago Atitlán	14	Cerro de Oro	5	Mayo	2023-04-05T00:00:00	2024-11-08T11:00:00	8	Radiación solar	695
146921	7	Sololá	719	Santiago Atitlán	14	Cerro de Oro	5	Mayo	2023-04-05T00:00:00	2024-11-08T12:00:00	2	Temperatura media	25.6
146922	7	Sololá	719	Santiago Atitlán	14	Cerro de Oro	5	Mayo	2023-04-05T00:00:00	2024-11-08T12:00:00	4	Temperatura máxima	25.6
146923	7	Sololá	719	Santiago Atitlán	14	Cerro de Oro	5	Mayo	2023-04-05T00:00:00	2024-11-08T12:00:00	3	Temperatura mínima	23.2
146924	7	Sololá	719	Santiago Atitlán	14	Cerro de Oro	5	Mayo	2023-04-05T00:00:00	2024-11-08T12:00:00	5	Humedad	65
146925	7	Sololá	719	Santiago Atitlán	14	Cerro de Oro	5	Mayo	2023-04-05T00:00:00	2024-11-08T12:00:00	6	Velocidad del viento	9.7
146926	7	Sololá	719	Santiago Atitlán	14	Cerro de Oro	5	Mayo	2023-04-05T00:00:00	2024-11-08T12:00:00	7	Dirección del viento	9.66
146927	7	Sololá	719	Santiago Atitlán	14	Cerro de Oro	5	Mayo	2023-04-05T00:00:00	2024-11-08T12:00:00	1	Precipitación	0
146928	7	Sololá	719	Santiago Atitlán	14	Cerro de Oro	5	Mayo	2023-04-05T00:00:00	2024-11-08T12:00:00	8	Radiación solar	831
146929	7	Sololá	719	Santiago Atitlán	14	Cerro de Oro	5	Mayo	2023-04-05T00:00:00	2024-11-08T13:00:00	2	Temperatura media	25
146930	7	Sololá	719	Santiago Atitlán	14	Cerro de Oro	5	Mayo	2023-04-05T00:00:00	2024-11-08T13:00:00	4	Temperatura máxima	25.7
146931	7	Sololá	719	Santiago Atitlán	14	Cerro de Oro	5	Mayo	2023-04-05T00:00:00	2024-11-08T13:00:00	3	Temperatura mínima	24.8
146932	7	Sololá	719	Santiago Atitlán	14	Cerro de Oro	5	Mayo	2023-04-05T00:00:00	2024-11-08T13:00:00	5	Humedad	66
146933	7	Sololá	719	Santiago Atitlán	14	Cerro de Oro	5	Mayo	2023-04-05T00:00:00	2024-11-08T13:00:00	6	Velocidad del viento	6.4
146934	7	Sololá	719	Santiago Atitlán	14	Cerro de Oro	5	Mayo	2023-04-05T00:00:00	2024-11-08T13:00:00	7	Dirección del viento	6.44
146935	7	Sololá	719	Santiago Atitlán	14	Cerro de Oro	5	Mayo	2023-04-05T00:00:00	2024-11-08T13:00:00	1	Precipitación	0
146936	7	Sololá	719	Santiago Atitlán	14	Cerro de Oro	5	Mayo	2023-04-05T00:00:00	2024-11-08T13:00:00	8	Radiación solar	635
146937	7	Sololá	719	Santiago Atitlán	14	Cerro de Oro	5	Mayo	2023-04-05T00:00:00	2024-11-08T14:00:00	2	Temperatura media	26.3
146938	7	Sololá	719	Santiago Atitlán	14	Cerro de Oro	5	Mayo	2023-04-05T00:00:00	2024-11-08T14:00:00	4	Temperatura máxima	26.4
146939	7	Sololá	719	Santiago Atitlán	14	Cerro de Oro	5	Mayo	2023-04-05T00:00:00	2024-11-08T14:00:00	3	Temperatura mínima	24.7
146940	7	Sololá	719	Santiago Atitlán	14	Cerro de Oro	5	Mayo	2023-04-05T00:00:00	2024-11-08T14:00:00	5	Humedad	64
146941	7	Sololá	719	Santiago Atitlán	14	Cerro de Oro	5	Mayo	2023-04-05T00:00:00	2024-11-08T14:00:00	6	Velocidad del viento	6.4
146942	7	Sololá	719	Santiago Atitlán	14	Cerro de Oro	5	Mayo	2023-04-05T00:00:00	2024-11-08T14:00:00	7	Dirección del viento	6.44
146943	7	Sololá	719	Santiago Atitlán	14	Cerro de Oro	5	Mayo	2023-04-05T00:00:00	2024-11-08T14:00:00	1	Precipitación	0
146944	7	Sololá	719	Santiago Atitlán	14	Cerro de Oro	5	Mayo	2023-04-05T00:00:00	2024-11-08T14:00:00	8	Radiación solar	649
146945	7	Sololá	719	Santiago Atitlán	14	Cerro de Oro	5	Mayo	2023-04-05T00:00:00	2024-11-08T15:00:00	2	Temperatura media	26.6
146946	7	Sololá	719	Santiago Atitlán	14	Cerro de Oro	5	Mayo	2023-04-05T00:00:00	2024-11-08T15:00:00	4	Temperatura máxima	26.7
146947	7	Sololá	719	Santiago Atitlán	14	Cerro de Oro	5	Mayo	2023-04-05T00:00:00	2024-11-08T15:00:00	3	Temperatura mínima	26.2
146948	7	Sololá	719	Santiago Atitlán	14	Cerro de Oro	5	Mayo	2023-04-05T00:00:00	2024-11-08T15:00:00	5	Humedad	63
146949	7	Sololá	719	Santiago Atitlán	14	Cerro de Oro	5	Mayo	2023-04-05T00:00:00	2024-11-08T15:00:00	6	Velocidad del viento	9.7
146950	7	Sololá	719	Santiago Atitlán	14	Cerro de Oro	5	Mayo	2023-04-05T00:00:00	2024-11-08T15:00:00	7	Dirección del viento	9.66
146951	7	Sololá	719	Santiago Atitlán	14	Cerro de Oro	5	Mayo	2023-04-05T00:00:00	2024-11-08T15:00:00	1	Precipitación	0
146952	7	Sololá	719	Santiago Atitlán	14	Cerro de Oro	5	Mayo	2023-04-05T00:00:00	2024-11-08T15:00:00	8	Radiación solar	816
146953	7	Sololá	719	Santiago Atitlán	14	Cerro de Oro	5	Mayo	2023-04-05T00:00:00	2024-11-08T16:00:00	2	Temperatura media	24.7
146954	7	Sololá	719	Santiago Atitlán	14	Cerro de Oro	5	Mayo	2023-04-05T00:00:00	2024-11-08T16:00:00	4	Temperatura máxima	26.7
146955	7	Sololá	719	Santiago Atitlán	14	Cerro de Oro	5	Mayo	2023-04-05T00:00:00	2024-11-08T16:00:00	3	Temperatura mínima	24.4
146956	7	Sololá	719	Santiago Atitlán	14	Cerro de Oro	5	Mayo	2023-04-05T00:00:00	2024-11-08T16:00:00	5	Humedad	71
146957	7	Sololá	719	Santiago Atitlán	14	Cerro de Oro	5	Mayo	2023-04-05T00:00:00	2024-11-08T16:00:00	6	Velocidad del viento	14.5
146958	7	Sololá	719	Santiago Atitlán	14	Cerro de Oro	5	Mayo	2023-04-05T00:00:00	2024-11-08T16:00:00	7	Dirección del viento	14.48
146959	7	Sololá	719	Santiago Atitlán	14	Cerro de Oro	5	Mayo	2023-04-05T00:00:00	2024-11-08T16:00:00	1	Precipitación	0
146960	7	Sololá	719	Santiago Atitlán	14	Cerro de Oro	5	Mayo	2023-04-05T00:00:00	2024-11-08T16:00:00	8	Radiación solar	684
146961	7	Sololá	719	Santiago Atitlán	14	Cerro de Oro	5	Mayo	2023-04-05T00:00:00	2024-11-08T17:00:00	2	Temperatura media	22.7
146962	7	Sololá	719	Santiago Atitlán	14	Cerro de Oro	5	Mayo	2023-04-05T00:00:00	2024-11-08T17:00:00	4	Temperatura máxima	24.9
146963	7	Sololá	719	Santiago Atitlán	14	Cerro de Oro	5	Mayo	2023-04-05T00:00:00	2024-11-08T17:00:00	3	Temperatura mínima	22.7
146964	7	Sololá	719	Santiago Atitlán	14	Cerro de Oro	5	Mayo	2023-04-05T00:00:00	2024-11-08T17:00:00	5	Humedad	78
146965	7	Sololá	719	Santiago Atitlán	14	Cerro de Oro	5	Mayo	2023-04-05T00:00:00	2024-11-08T17:00:00	6	Velocidad del viento	14.5
146966	7	Sololá	719	Santiago Atitlán	14	Cerro de Oro	5	Mayo	2023-04-05T00:00:00	2024-11-08T17:00:00	7	Dirección del viento	14.48
146967	7	Sololá	719	Santiago Atitlán	14	Cerro de Oro	5	Mayo	2023-04-05T00:00:00	2024-11-08T17:00:00	1	Precipitación	0
146968	7	Sololá	719	Santiago Atitlán	14	Cerro de Oro	5	Mayo	2023-04-05T00:00:00	2024-11-08T17:00:00	8	Radiación solar	348
146969	7	Sololá	719	Santiago Atitlán	14	Cerro de Oro	5	Mayo	2023-04-05T00:00:00	2024-11-08T18:00:00	2	Temperatura media	21.9
146970	7	Sololá	719	Santiago Atitlán	14	Cerro de Oro	5	Mayo	2023-04-05T00:00:00	2024-11-08T18:00:00	4	Temperatura máxima	23.1
146971	7	Sololá	719	Santiago Atitlán	14	Cerro de Oro	5	Mayo	2023-04-05T00:00:00	2024-11-08T18:00:00	3	Temperatura mínima	21.9
146972	7	Sololá	719	Santiago Atitlán	14	Cerro de Oro	5	Mayo	2023-04-05T00:00:00	2024-11-08T18:00:00	5	Humedad	82
146973	7	Sololá	719	Santiago Atitlán	14	Cerro de Oro	5	Mayo	2023-04-05T00:00:00	2024-11-08T18:00:00	6	Velocidad del viento	9.7
146974	7	Sololá	719	Santiago Atitlán	14	Cerro de Oro	5	Mayo	2023-04-05T00:00:00	2024-11-08T18:00:00	7	Dirección del viento	9.66
146975	7	Sololá	719	Santiago Atitlán	14	Cerro de Oro	5	Mayo	2023-04-05T00:00:00	2024-11-08T18:00:00	1	Precipitación	0
146976	7	Sololá	719	Santiago Atitlán	14	Cerro de Oro	5	Mayo	2023-04-05T00:00:00	2024-11-08T18:00:00	8	Radiación solar	171
146977	7	Sololá	719	Santiago Atitlán	14	Cerro de Oro	5	Mayo	2023-04-05T00:00:00	2024-11-08T19:00:00	2	Temperatura media	21.3
146978	7	Sololá	719	Santiago Atitlán	14	Cerro de Oro	5	Mayo	2023-04-05T00:00:00	2024-11-08T19:00:00	4	Temperatura máxima	21.9
146979	7	Sololá	719	Santiago Atitlán	14	Cerro de Oro	5	Mayo	2023-04-05T00:00:00	2024-11-08T19:00:00	3	Temperatura mínima	21.3
146980	7	Sololá	719	Santiago Atitlán	14	Cerro de Oro	5	Mayo	2023-04-05T00:00:00	2024-11-08T19:00:00	5	Humedad	85
146981	7	Sololá	719	Santiago Atitlán	14	Cerro de Oro	5	Mayo	2023-04-05T00:00:00	2024-11-08T19:00:00	6	Velocidad del viento	8
146982	7	Sololá	719	Santiago Atitlán	14	Cerro de Oro	5	Mayo	2023-04-05T00:00:00	2024-11-08T19:00:00	7	Dirección del viento	8.05
146983	7	Sololá	719	Santiago Atitlán	14	Cerro de Oro	5	Mayo	2023-04-05T00:00:00	2024-11-08T19:00:00	1	Precipitación	0
146984	7	Sololá	719	Santiago Atitlán	14	Cerro de Oro	5	Mayo	2023-04-05T00:00:00	2024-11-08T19:00:00	8	Radiación solar	0
146985	7	Sololá	719	Santiago Atitlán	14	Cerro de Oro	5	Mayo	2023-04-05T00:00:00	2024-11-08T20:00:00	2	Temperatura media	20.6
146986	7	Sololá	719	Santiago Atitlán	14	Cerro de Oro	5	Mayo	2023-04-05T00:00:00	2024-11-08T20:00:00	4	Temperatura máxima	21.3
146987	7	Sololá	719	Santiago Atitlán	14	Cerro de Oro	5	Mayo	2023-04-05T00:00:00	2024-11-08T20:00:00	3	Temperatura mínima	20.6
146988	7	Sololá	719	Santiago Atitlán	14	Cerro de Oro	5	Mayo	2023-04-05T00:00:00	2024-11-08T20:00:00	5	Humedad	87
146989	7	Sololá	719	Santiago Atitlán	14	Cerro de Oro	5	Mayo	2023-04-05T00:00:00	2024-11-08T20:00:00	6	Velocidad del viento	3.2
146990	7	Sololá	719	Santiago Atitlán	14	Cerro de Oro	5	Mayo	2023-04-05T00:00:00	2024-11-08T20:00:00	7	Dirección del viento	3.22
146991	7	Sololá	719	Santiago Atitlán	14	Cerro de Oro	5	Mayo	2023-04-05T00:00:00	2024-11-08T20:00:00	1	Precipitación	0
146992	7	Sololá	719	Santiago Atitlán	14	Cerro de Oro	5	Mayo	2023-04-05T00:00:00	2024-11-08T20:00:00	8	Radiación solar	0
146993	7	Sololá	719	Santiago Atitlán	14	Cerro de Oro	5	Mayo	2023-04-05T00:00:00	2024-11-08T21:00:00	2	Temperatura media	20.2
146994	7	Sololá	719	Santiago Atitlán	14	Cerro de Oro	5	Mayo	2023-04-05T00:00:00	2024-11-08T21:00:00	4	Temperatura máxima	20.7
146995	7	Sololá	719	Santiago Atitlán	14	Cerro de Oro	5	Mayo	2023-04-05T00:00:00	2024-11-08T21:00:00	3	Temperatura mínima	20.2
146996	7	Sololá	719	Santiago Atitlán	14	Cerro de Oro	5	Mayo	2023-04-05T00:00:00	2024-11-08T21:00:00	5	Humedad	87
146997	7	Sololá	719	Santiago Atitlán	14	Cerro de Oro	5	Mayo	2023-04-05T00:00:00	2024-11-08T21:00:00	6	Velocidad del viento	1.6
146998	7	Sololá	719	Santiago Atitlán	14	Cerro de Oro	5	Mayo	2023-04-05T00:00:00	2024-11-08T21:00:00	7	Dirección del viento	1.61
146999	7	Sololá	719	Santiago Atitlán	14	Cerro de Oro	5	Mayo	2023-04-05T00:00:00	2024-11-08T21:00:00	1	Precipitación	0
147000	7	Sololá	719	Santiago Atitlán	14	Cerro de Oro	5	Mayo	2023-04-05T00:00:00	2024-11-08T21:00:00	8	Radiación solar	0
147001	7	Sololá	719	Santiago Atitlán	14	Cerro de Oro	5	Mayo	2023-04-05T00:00:00	2024-11-08T22:00:00	2	Temperatura media	20.3
147002	7	Sololá	719	Santiago Atitlán	14	Cerro de Oro	5	Mayo	2023-04-05T00:00:00	2024-11-08T22:00:00	4	Temperatura máxima	20.3
147003	7	Sololá	719	Santiago Atitlán	14	Cerro de Oro	5	Mayo	2023-04-05T00:00:00	2024-11-08T22:00:00	3	Temperatura mínima	19.9
147004	7	Sololá	719	Santiago Atitlán	14	Cerro de Oro	5	Mayo	2023-04-05T00:00:00	2024-11-08T22:00:00	5	Humedad	83
147005	7	Sololá	719	Santiago Atitlán	14	Cerro de Oro	5	Mayo	2023-04-05T00:00:00	2024-11-08T22:00:00	6	Velocidad del viento	3.2
147006	7	Sololá	719	Santiago Atitlán	14	Cerro de Oro	5	Mayo	2023-04-05T00:00:00	2024-11-08T22:00:00	7	Dirección del viento	3.22
147007	7	Sololá	719	Santiago Atitlán	14	Cerro de Oro	5	Mayo	2023-04-05T00:00:00	2024-11-08T22:00:00	1	Precipitación	0
147008	7	Sololá	719	Santiago Atitlán	14	Cerro de Oro	5	Mayo	2023-04-05T00:00:00	2024-11-08T22:00:00	8	Radiación solar	0
147009	7	Sololá	719	Santiago Atitlán	14	Cerro de Oro	5	Mayo	2023-04-05T00:00:00	2024-11-08T23:00:00	2	Temperatura media	21.7
147010	7	Sololá	719	Santiago Atitlán	14	Cerro de Oro	5	Mayo	2023-04-05T00:00:00	2024-11-08T23:00:00	4	Temperatura máxima	22
147011	7	Sololá	719	Santiago Atitlán	14	Cerro de Oro	5	Mayo	2023-04-05T00:00:00	2024-11-08T23:00:00	3	Temperatura mínima	20.3
147012	7	Sololá	719	Santiago Atitlán	14	Cerro de Oro	5	Mayo	2023-04-05T00:00:00	2024-11-08T23:00:00	5	Humedad	70
147013	7	Sololá	719	Santiago Atitlán	14	Cerro de Oro	5	Mayo	2023-04-05T00:00:00	2024-11-08T23:00:00	6	Velocidad del viento	8
147014	7	Sololá	719	Santiago Atitlán	14	Cerro de Oro	5	Mayo	2023-04-05T00:00:00	2024-11-08T23:00:00	7	Dirección del viento	8.05
147015	7	Sololá	719	Santiago Atitlán	14	Cerro de Oro	5	Mayo	2023-04-05T00:00:00	2024-11-08T23:00:00	1	Precipitación	0
147016	7	Sololá	719	Santiago Atitlán	14	Cerro de Oro	5	Mayo	2023-04-05T00:00:00	2024-11-08T23:00:00	8	Radiación solar	0
147017	7	Sololá	719	Santiago Atitlán	14	Cerro de Oro	5	Mayo	2023-05-05T00:00:00	2024-11-08T00:00:00	2	Temperatura media	20.7
147018	7	Sololá	719	Santiago Atitlán	14	Cerro de Oro	5	Mayo	2023-05-05T00:00:00	2024-11-08T00:00:00	4	Temperatura máxima	21.7
147019	7	Sololá	719	Santiago Atitlán	14	Cerro de Oro	5	Mayo	2023-05-05T00:00:00	2024-11-08T00:00:00	3	Temperatura mínima	20.6
147020	7	Sololá	719	Santiago Atitlán	14	Cerro de Oro	5	Mayo	2023-05-05T00:00:00	2024-11-08T00:00:00	5	Humedad	70
147021	7	Sololá	719	Santiago Atitlán	14	Cerro de Oro	5	Mayo	2023-05-05T00:00:00	2024-11-08T00:00:00	6	Velocidad del viento	6.4
147022	7	Sololá	719	Santiago Atitlán	14	Cerro de Oro	5	Mayo	2023-05-05T00:00:00	2024-11-08T00:00:00	7	Dirección del viento	6.44
147023	7	Sololá	719	Santiago Atitlán	14	Cerro de Oro	5	Mayo	2023-05-05T00:00:00	2024-11-08T00:00:00	1	Precipitación	0
147024	7	Sololá	719	Santiago Atitlán	14	Cerro de Oro	5	Mayo	2023-05-05T00:00:00	2024-11-08T00:00:00	8	Radiación solar	0
147025	7	Sololá	719	Santiago Atitlán	14	Cerro de Oro	5	Mayo	2023-05-05T00:00:00	2024-11-08T01:00:00	2	Temperatura media	20.7
147026	7	Sololá	719	Santiago Atitlán	14	Cerro de Oro	5	Mayo	2023-05-05T00:00:00	2024-11-08T01:00:00	4	Temperatura máxima	20.8
147027	7	Sololá	719	Santiago Atitlán	14	Cerro de Oro	5	Mayo	2023-05-05T00:00:00	2024-11-08T01:00:00	3	Temperatura mínima	20
147028	7	Sololá	719	Santiago Atitlán	14	Cerro de Oro	5	Mayo	2023-05-05T00:00:00	2024-11-08T01:00:00	5	Humedad	69
147029	7	Sololá	719	Santiago Atitlán	14	Cerro de Oro	5	Mayo	2023-05-05T00:00:00	2024-11-08T01:00:00	6	Velocidad del viento	4.8
147030	7	Sololá	719	Santiago Atitlán	14	Cerro de Oro	5	Mayo	2023-05-05T00:00:00	2024-11-08T01:00:00	7	Dirección del viento	4.83
147031	7	Sololá	719	Santiago Atitlán	14	Cerro de Oro	5	Mayo	2023-05-05T00:00:00	2024-11-08T01:00:00	1	Precipitación	0
147032	7	Sololá	719	Santiago Atitlán	14	Cerro de Oro	5	Mayo	2023-05-05T00:00:00	2024-11-08T01:00:00	8	Radiación solar	0
147033	7	Sololá	719	Santiago Atitlán	14	Cerro de Oro	5	Mayo	2023-05-05T00:00:00	2024-11-08T02:00:00	2	Temperatura media	20.1
147034	7	Sololá	719	Santiago Atitlán	14	Cerro de Oro	5	Mayo	2023-05-05T00:00:00	2024-11-08T02:00:00	4	Temperatura máxima	20.8
147035	7	Sololá	719	Santiago Atitlán	14	Cerro de Oro	5	Mayo	2023-05-05T00:00:00	2024-11-08T02:00:00	3	Temperatura mínima	20.1
147036	7	Sololá	719	Santiago Atitlán	14	Cerro de Oro	5	Mayo	2023-05-05T00:00:00	2024-11-08T02:00:00	5	Humedad	70
147037	7	Sololá	719	Santiago Atitlán	14	Cerro de Oro	5	Mayo	2023-05-05T00:00:00	2024-11-08T02:00:00	6	Velocidad del viento	1.6
147038	7	Sololá	719	Santiago Atitlán	14	Cerro de Oro	5	Mayo	2023-05-05T00:00:00	2024-11-08T02:00:00	7	Dirección del viento	1.61
147039	7	Sololá	719	Santiago Atitlán	14	Cerro de Oro	5	Mayo	2023-05-05T00:00:00	2024-11-08T02:00:00	1	Precipitación	0
147040	7	Sololá	719	Santiago Atitlán	14	Cerro de Oro	5	Mayo	2023-05-05T00:00:00	2024-11-08T02:00:00	8	Radiación solar	0
147041	7	Sololá	719	Santiago Atitlán	14	Cerro de Oro	5	Mayo	2023-05-05T00:00:00	2024-11-08T03:00:00	2	Temperatura media	19.1
147042	7	Sololá	719	Santiago Atitlán	14	Cerro de Oro	5	Mayo	2023-05-05T00:00:00	2024-11-08T03:00:00	4	Temperatura máxima	20.1
147043	7	Sololá	719	Santiago Atitlán	14	Cerro de Oro	5	Mayo	2023-05-05T00:00:00	2024-11-08T03:00:00	3	Temperatura mínima	19.1
147044	7	Sololá	719	Santiago Atitlán	14	Cerro de Oro	5	Mayo	2023-05-05T00:00:00	2024-11-08T03:00:00	5	Humedad	76
147045	7	Sololá	719	Santiago Atitlán	14	Cerro de Oro	5	Mayo	2023-05-05T00:00:00	2024-11-08T03:00:00	6	Velocidad del viento	4.8
147046	7	Sololá	719	Santiago Atitlán	14	Cerro de Oro	5	Mayo	2023-05-05T00:00:00	2024-11-08T03:00:00	7	Dirección del viento	4.83
147047	7	Sololá	719	Santiago Atitlán	14	Cerro de Oro	5	Mayo	2023-05-05T00:00:00	2024-11-08T03:00:00	1	Precipitación	0
147048	7	Sololá	719	Santiago Atitlán	14	Cerro de Oro	5	Mayo	2023-05-05T00:00:00	2024-11-08T03:00:00	8	Radiación solar	0
147049	7	Sololá	719	Santiago Atitlán	14	Cerro de Oro	5	Mayo	2023-05-05T00:00:00	2024-11-08T04:00:00	2	Temperatura media	19.2
147050	7	Sololá	719	Santiago Atitlán	14	Cerro de Oro	5	Mayo	2023-05-05T00:00:00	2024-11-08T04:00:00	4	Temperatura máxima	19.7
147051	7	Sololá	719	Santiago Atitlán	14	Cerro de Oro	5	Mayo	2023-05-05T00:00:00	2024-11-08T04:00:00	3	Temperatura mínima	19.1
147052	7	Sololá	719	Santiago Atitlán	14	Cerro de Oro	5	Mayo	2023-05-05T00:00:00	2024-11-08T04:00:00	5	Humedad	77
147053	7	Sololá	719	Santiago Atitlán	14	Cerro de Oro	5	Mayo	2023-05-05T00:00:00	2024-11-08T04:00:00	6	Velocidad del viento	3.2
147054	7	Sololá	719	Santiago Atitlán	14	Cerro de Oro	5	Mayo	2023-05-05T00:00:00	2024-11-08T04:00:00	7	Dirección del viento	3.22
147055	7	Sololá	719	Santiago Atitlán	14	Cerro de Oro	5	Mayo	2023-05-05T00:00:00	2024-11-08T04:00:00	1	Precipitación	0
147056	7	Sololá	719	Santiago Atitlán	14	Cerro de Oro	5	Mayo	2023-05-05T00:00:00	2024-11-08T04:00:00	8	Radiación solar	0
147057	7	Sololá	719	Santiago Atitlán	14	Cerro de Oro	5	Mayo	2023-05-05T00:00:00	2024-11-08T05:00:00	2	Temperatura media	20.1
147058	7	Sololá	719	Santiago Atitlán	14	Cerro de Oro	5	Mayo	2023-05-05T00:00:00	2024-11-08T05:00:00	4	Temperatura máxima	20.2
147059	7	Sololá	719	Santiago Atitlán	14	Cerro de Oro	5	Mayo	2023-05-05T00:00:00	2024-11-08T05:00:00	3	Temperatura mínima	18.9
147060	7	Sololá	719	Santiago Atitlán	14	Cerro de Oro	5	Mayo	2023-05-05T00:00:00	2024-11-08T05:00:00	5	Humedad	65
147061	7	Sololá	719	Santiago Atitlán	14	Cerro de Oro	5	Mayo	2023-05-05T00:00:00	2024-11-08T05:00:00	6	Velocidad del viento	4.8
147062	7	Sololá	719	Santiago Atitlán	14	Cerro de Oro	5	Mayo	2023-05-05T00:00:00	2024-11-08T05:00:00	7	Dirección del viento	4.83
147063	7	Sololá	719	Santiago Atitlán	14	Cerro de Oro	5	Mayo	2023-05-05T00:00:00	2024-11-08T05:00:00	1	Precipitación	0
147064	7	Sololá	719	Santiago Atitlán	14	Cerro de Oro	5	Mayo	2023-05-05T00:00:00	2024-11-08T05:00:00	8	Radiación solar	0
147065	7	Sololá	719	Santiago Atitlán	14	Cerro de Oro	5	Mayo	2023-05-05T00:00:00	2024-11-08T06:00:00	2	Temperatura media	19.7
147066	7	Sololá	719	Santiago Atitlán	14	Cerro de Oro	5	Mayo	2023-05-05T00:00:00	2024-11-08T06:00:00	4	Temperatura máxima	20.7
147067	7	Sololá	719	Santiago Atitlán	14	Cerro de Oro	5	Mayo	2023-05-05T00:00:00	2024-11-08T06:00:00	3	Temperatura mínima	19.6
147068	7	Sololá	719	Santiago Atitlán	14	Cerro de Oro	5	Mayo	2023-05-05T00:00:00	2024-11-08T06:00:00	5	Humedad	69
147069	7	Sololá	719	Santiago Atitlán	14	Cerro de Oro	5	Mayo	2023-05-05T00:00:00	2024-11-08T06:00:00	6	Velocidad del viento	4.8
147070	7	Sololá	719	Santiago Atitlán	14	Cerro de Oro	5	Mayo	2023-05-05T00:00:00	2024-11-08T06:00:00	7	Dirección del viento	4.83
147071	7	Sololá	719	Santiago Atitlán	14	Cerro de Oro	5	Mayo	2023-05-05T00:00:00	2024-11-08T06:00:00	1	Precipitación	0
147072	7	Sololá	719	Santiago Atitlán	14	Cerro de Oro	5	Mayo	2023-05-05T00:00:00	2024-11-08T06:00:00	8	Radiación solar	0
147073	7	Sololá	719	Santiago Atitlán	14	Cerro de Oro	5	Mayo	2023-05-05T00:00:00	2024-11-08T07:00:00	2	Temperatura media	19.9
147074	7	Sololá	719	Santiago Atitlán	14	Cerro de Oro	5	Mayo	2023-05-05T00:00:00	2024-11-08T07:00:00	4	Temperatura máxima	19.9
147075	7	Sololá	719	Santiago Atitlán	14	Cerro de Oro	5	Mayo	2023-05-05T00:00:00	2024-11-08T07:00:00	3	Temperatura mínima	19.5
147076	7	Sololá	719	Santiago Atitlán	14	Cerro de Oro	5	Mayo	2023-05-05T00:00:00	2024-11-08T07:00:00	5	Humedad	63
147077	7	Sololá	719	Santiago Atitlán	14	Cerro de Oro	5	Mayo	2023-05-05T00:00:00	2024-11-08T07:00:00	6	Velocidad del viento	4.8
147078	7	Sololá	719	Santiago Atitlán	14	Cerro de Oro	5	Mayo	2023-05-05T00:00:00	2024-11-08T07:00:00	7	Dirección del viento	4.83
147079	7	Sololá	719	Santiago Atitlán	14	Cerro de Oro	5	Mayo	2023-05-05T00:00:00	2024-11-08T07:00:00	1	Precipitación	0
147080	7	Sololá	719	Santiago Atitlán	14	Cerro de Oro	5	Mayo	2023-05-05T00:00:00	2024-11-08T07:00:00	8	Radiación solar	4
147081	7	Sololá	719	Santiago Atitlán	14	Cerro de Oro	5	Mayo	2023-05-05T00:00:00	2024-11-08T08:00:00	2	Temperatura media	21.3
147082	7	Sololá	719	Santiago Atitlán	14	Cerro de Oro	5	Mayo	2023-05-05T00:00:00	2024-11-08T08:00:00	4	Temperatura máxima	21.3
147083	7	Sololá	719	Santiago Atitlán	14	Cerro de Oro	5	Mayo	2023-05-05T00:00:00	2024-11-08T08:00:00	3	Temperatura mínima	19.4
147084	7	Sololá	719	Santiago Atitlán	14	Cerro de Oro	5	Mayo	2023-05-05T00:00:00	2024-11-08T08:00:00	5	Humedad	66
147085	7	Sololá	719	Santiago Atitlán	14	Cerro de Oro	5	Mayo	2023-05-05T00:00:00	2024-11-08T08:00:00	6	Velocidad del viento	3.2
147086	7	Sololá	719	Santiago Atitlán	14	Cerro de Oro	5	Mayo	2023-05-05T00:00:00	2024-11-08T08:00:00	7	Dirección del viento	3.22
147087	7	Sololá	719	Santiago Atitlán	14	Cerro de Oro	5	Mayo	2023-05-05T00:00:00	2024-11-08T08:00:00	1	Precipitación	0
147088	7	Sololá	719	Santiago Atitlán	14	Cerro de Oro	5	Mayo	2023-05-05T00:00:00	2024-11-08T08:00:00	8	Radiación solar	109
147089	7	Sololá	719	Santiago Atitlán	14	Cerro de Oro	5	Mayo	2023-05-05T00:00:00	2024-11-08T09:00:00	2	Temperatura media	24.1
147090	7	Sololá	719	Santiago Atitlán	14	Cerro de Oro	5	Mayo	2023-05-05T00:00:00	2024-11-08T09:00:00	4	Temperatura máxima	24.1
147091	7	Sololá	719	Santiago Atitlán	14	Cerro de Oro	5	Mayo	2023-05-05T00:00:00	2024-11-08T09:00:00	3	Temperatura mínima	21.3
147092	7	Sololá	719	Santiago Atitlán	14	Cerro de Oro	5	Mayo	2023-05-05T00:00:00	2024-11-08T09:00:00	5	Humedad	49
147093	7	Sololá	719	Santiago Atitlán	14	Cerro de Oro	5	Mayo	2023-05-05T00:00:00	2024-11-08T09:00:00	6	Velocidad del viento	1.6
147094	7	Sololá	719	Santiago Atitlán	14	Cerro de Oro	5	Mayo	2023-05-05T00:00:00	2024-11-08T09:00:00	7	Dirección del viento	1.61
147095	7	Sololá	719	Santiago Atitlán	14	Cerro de Oro	5	Mayo	2023-05-05T00:00:00	2024-11-08T09:00:00	1	Precipitación	0
147096	7	Sololá	719	Santiago Atitlán	14	Cerro de Oro	5	Mayo	2023-05-05T00:00:00	2024-11-08T09:00:00	8	Radiación solar	312
147097	7	Sololá	719	Santiago Atitlán	14	Cerro de Oro	5	Mayo	2023-05-05T00:00:00	2024-11-08T10:00:00	2	Temperatura media	25.1
147098	7	Sololá	719	Santiago Atitlán	14	Cerro de Oro	5	Mayo	2023-05-05T00:00:00	2024-11-08T10:00:00	4	Temperatura máxima	25.7
147099	7	Sololá	719	Santiago Atitlán	14	Cerro de Oro	5	Mayo	2023-05-05T00:00:00	2024-11-08T10:00:00	3	Temperatura mínima	24.1
147100	7	Sololá	719	Santiago Atitlán	14	Cerro de Oro	5	Mayo	2023-05-05T00:00:00	2024-11-08T10:00:00	5	Humedad	56
147101	7	Sololá	719	Santiago Atitlán	14	Cerro de Oro	5	Mayo	2023-05-05T00:00:00	2024-11-08T10:00:00	6	Velocidad del viento	3.2
147102	7	Sololá	719	Santiago Atitlán	14	Cerro de Oro	5	Mayo	2023-05-05T00:00:00	2024-11-08T10:00:00	7	Dirección del viento	3.22
147103	7	Sololá	719	Santiago Atitlán	14	Cerro de Oro	5	Mayo	2023-05-05T00:00:00	2024-11-08T10:00:00	1	Precipitación	0
147104	7	Sololá	719	Santiago Atitlán	14	Cerro de Oro	5	Mayo	2023-05-05T00:00:00	2024-11-08T10:00:00	8	Radiación solar	547
147105	7	Sololá	719	Santiago Atitlán	14	Cerro de Oro	5	Mayo	2023-05-05T00:00:00	2024-11-08T11:00:00	2	Temperatura media	27
147106	7	Sololá	719	Santiago Atitlán	14	Cerro de Oro	5	Mayo	2023-05-05T00:00:00	2024-11-08T11:00:00	4	Temperatura máxima	27.1
147107	7	Sololá	719	Santiago Atitlán	14	Cerro de Oro	5	Mayo	2023-05-05T00:00:00	2024-11-08T11:00:00	3	Temperatura mínima	24.6
147108	7	Sololá	719	Santiago Atitlán	14	Cerro de Oro	5	Mayo	2023-05-05T00:00:00	2024-11-08T11:00:00	5	Humedad	36
147109	7	Sololá	719	Santiago Atitlán	14	Cerro de Oro	5	Mayo	2023-05-05T00:00:00	2024-11-08T11:00:00	6	Velocidad del viento	8
147110	7	Sololá	719	Santiago Atitlán	14	Cerro de Oro	5	Mayo	2023-05-05T00:00:00	2024-11-08T11:00:00	7	Dirección del viento	8.05
147111	7	Sololá	719	Santiago Atitlán	14	Cerro de Oro	5	Mayo	2023-05-05T00:00:00	2024-11-08T11:00:00	1	Precipitación	0
147112	7	Sololá	719	Santiago Atitlán	14	Cerro de Oro	5	Mayo	2023-05-05T00:00:00	2024-11-08T11:00:00	8	Radiación solar	729
147113	7	Sololá	719	Santiago Atitlán	14	Cerro de Oro	5	Mayo	2023-05-05T00:00:00	2024-11-08T12:00:00	2	Temperatura media	27.7
147114	7	Sololá	719	Santiago Atitlán	14	Cerro de Oro	5	Mayo	2023-05-05T00:00:00	2024-11-08T12:00:00	4	Temperatura máxima	27.7
147115	7	Sololá	719	Santiago Atitlán	14	Cerro de Oro	5	Mayo	2023-05-05T00:00:00	2024-11-08T12:00:00	3	Temperatura mínima	27
147116	7	Sololá	719	Santiago Atitlán	14	Cerro de Oro	5	Mayo	2023-05-05T00:00:00	2024-11-08T12:00:00	5	Humedad	36
147117	7	Sololá	719	Santiago Atitlán	14	Cerro de Oro	5	Mayo	2023-05-05T00:00:00	2024-11-08T12:00:00	6	Velocidad del viento	12.9
147118	7	Sololá	719	Santiago Atitlán	14	Cerro de Oro	5	Mayo	2023-05-05T00:00:00	2024-11-08T12:00:00	7	Dirección del viento	12.87
147119	7	Sololá	719	Santiago Atitlán	14	Cerro de Oro	5	Mayo	2023-05-05T00:00:00	2024-11-08T12:00:00	1	Precipitación	0
147120	7	Sololá	719	Santiago Atitlán	14	Cerro de Oro	5	Mayo	2023-05-05T00:00:00	2024-11-08T12:00:00	8	Radiación solar	850
147121	7	Sololá	719	Santiago Atitlán	14	Cerro de Oro	5	Mayo	2023-05-05T00:00:00	2024-11-08T13:00:00	2	Temperatura media	27.8
147122	7	Sololá	719	Santiago Atitlán	14	Cerro de Oro	5	Mayo	2023-05-05T00:00:00	2024-11-08T13:00:00	4	Temperatura máxima	27.9
147123	7	Sololá	719	Santiago Atitlán	14	Cerro de Oro	5	Mayo	2023-05-05T00:00:00	2024-11-08T13:00:00	3	Temperatura mínima	27.4
147124	7	Sololá	719	Santiago Atitlán	14	Cerro de Oro	5	Mayo	2023-05-05T00:00:00	2024-11-08T13:00:00	5	Humedad	36
147125	7	Sololá	719	Santiago Atitlán	14	Cerro de Oro	5	Mayo	2023-05-05T00:00:00	2024-11-08T13:00:00	6	Velocidad del viento	16.1
147126	7	Sololá	719	Santiago Atitlán	14	Cerro de Oro	5	Mayo	2023-05-05T00:00:00	2024-11-08T13:00:00	7	Dirección del viento	16.09
147127	7	Sololá	719	Santiago Atitlán	14	Cerro de Oro	5	Mayo	2023-05-05T00:00:00	2024-11-08T13:00:00	1	Precipitación	0
147128	7	Sololá	719	Santiago Atitlán	14	Cerro de Oro	5	Mayo	2023-05-05T00:00:00	2024-11-08T13:00:00	8	Radiación solar	929
147129	7	Sololá	719	Santiago Atitlán	14	Cerro de Oro	5	Mayo	2023-05-05T00:00:00	2024-11-08T14:00:00	2	Temperatura media	27.6
147130	7	Sololá	719	Santiago Atitlán	14	Cerro de Oro	5	Mayo	2023-05-05T00:00:00	2024-11-08T14:00:00	4	Temperatura máxima	28.2
147131	7	Sololá	719	Santiago Atitlán	14	Cerro de Oro	5	Mayo	2023-05-05T00:00:00	2024-11-08T14:00:00	3	Temperatura mínima	27.4
147132	7	Sololá	719	Santiago Atitlán	14	Cerro de Oro	5	Mayo	2023-05-05T00:00:00	2024-11-08T14:00:00	5	Humedad	46
147133	7	Sololá	719	Santiago Atitlán	14	Cerro de Oro	5	Mayo	2023-05-05T00:00:00	2024-11-08T14:00:00	6	Velocidad del viento	14.5
147134	7	Sololá	719	Santiago Atitlán	14	Cerro de Oro	5	Mayo	2023-05-05T00:00:00	2024-11-08T14:00:00	7	Dirección del viento	14.48
147135	7	Sololá	719	Santiago Atitlán	14	Cerro de Oro	5	Mayo	2023-05-05T00:00:00	2024-11-08T14:00:00	1	Precipitación	0
147136	7	Sololá	719	Santiago Atitlán	14	Cerro de Oro	5	Mayo	2023-05-05T00:00:00	2024-11-08T14:00:00	8	Radiación solar	928
147137	7	Sololá	719	Santiago Atitlán	14	Cerro de Oro	5	Mayo	2023-05-05T00:00:00	2024-11-08T15:00:00	2	Temperatura media	26.1
147138	7	Sololá	719	Santiago Atitlán	14	Cerro de Oro	5	Mayo	2023-05-05T00:00:00	2024-11-08T15:00:00	4	Temperatura máxima	27.7
147139	7	Sololá	719	Santiago Atitlán	14	Cerro de Oro	5	Mayo	2023-05-05T00:00:00	2024-11-08T15:00:00	3	Temperatura mínima	25.8
147140	7	Sololá	719	Santiago Atitlán	14	Cerro de Oro	5	Mayo	2023-05-05T00:00:00	2024-11-08T15:00:00	5	Humedad	68
147141	7	Sololá	719	Santiago Atitlán	14	Cerro de Oro	5	Mayo	2023-05-05T00:00:00	2024-11-08T15:00:00	6	Velocidad del viento	12.9
147142	7	Sololá	719	Santiago Atitlán	14	Cerro de Oro	5	Mayo	2023-05-05T00:00:00	2024-11-08T15:00:00	7	Dirección del viento	12.87
147143	7	Sololá	719	Santiago Atitlán	14	Cerro de Oro	5	Mayo	2023-05-05T00:00:00	2024-11-08T15:00:00	1	Precipitación	0
147144	7	Sololá	719	Santiago Atitlán	14	Cerro de Oro	5	Mayo	2023-05-05T00:00:00	2024-11-08T15:00:00	8	Radiación solar	858
147145	7	Sololá	719	Santiago Atitlán	14	Cerro de Oro	5	Mayo	2023-05-05T00:00:00	2024-11-08T16:00:00	2	Temperatura media	25.9
147146	7	Sololá	719	Santiago Atitlán	14	Cerro de Oro	5	Mayo	2023-05-05T00:00:00	2024-11-08T16:00:00	4	Temperatura máxima	26.6
147147	7	Sololá	719	Santiago Atitlán	14	Cerro de Oro	5	Mayo	2023-05-05T00:00:00	2024-11-08T16:00:00	3	Temperatura mínima	25.9
147148	7	Sololá	719	Santiago Atitlán	14	Cerro de Oro	5	Mayo	2023-05-05T00:00:00	2024-11-08T16:00:00	5	Humedad	66
147149	7	Sololá	719	Santiago Atitlán	14	Cerro de Oro	5	Mayo	2023-05-05T00:00:00	2024-11-08T16:00:00	6	Velocidad del viento	14.5
147150	7	Sololá	719	Santiago Atitlán	14	Cerro de Oro	5	Mayo	2023-05-05T00:00:00	2024-11-08T16:00:00	7	Dirección del viento	14.48
147151	7	Sololá	719	Santiago Atitlán	14	Cerro de Oro	5	Mayo	2023-05-05T00:00:00	2024-11-08T16:00:00	1	Precipitación	0
147152	7	Sololá	719	Santiago Atitlán	14	Cerro de Oro	5	Mayo	2023-05-05T00:00:00	2024-11-08T16:00:00	8	Radiación solar	723
147153	7	Sololá	719	Santiago Atitlán	14	Cerro de Oro	5	Mayo	2023-05-05T00:00:00	2024-11-08T17:00:00	2	Temperatura media	24.7
147154	7	Sololá	719	Santiago Atitlán	14	Cerro de Oro	5	Mayo	2023-05-05T00:00:00	2024-11-08T17:00:00	4	Temperatura máxima	25.9
147155	7	Sololá	719	Santiago Atitlán	14	Cerro de Oro	5	Mayo	2023-05-05T00:00:00	2024-11-08T17:00:00	3	Temperatura mínima	24.7
147156	7	Sololá	719	Santiago Atitlán	14	Cerro de Oro	5	Mayo	2023-05-05T00:00:00	2024-11-08T17:00:00	5	Humedad	74
147157	7	Sololá	719	Santiago Atitlán	14	Cerro de Oro	5	Mayo	2023-05-05T00:00:00	2024-11-08T17:00:00	6	Velocidad del viento	14.5
147158	7	Sololá	719	Santiago Atitlán	14	Cerro de Oro	5	Mayo	2023-05-05T00:00:00	2024-11-08T17:00:00	7	Dirección del viento	14.48
147159	7	Sololá	719	Santiago Atitlán	14	Cerro de Oro	5	Mayo	2023-05-05T00:00:00	2024-11-08T17:00:00	1	Precipitación	0
147160	7	Sololá	719	Santiago Atitlán	14	Cerro de Oro	5	Mayo	2023-05-05T00:00:00	2024-11-08T17:00:00	8	Radiación solar	533
147161	7	Sololá	719	Santiago Atitlán	14	Cerro de Oro	5	Mayo	2023-05-05T00:00:00	2024-11-08T18:00:00	2	Temperatura media	23.5
147162	7	Sololá	719	Santiago Atitlán	14	Cerro de Oro	5	Mayo	2023-05-05T00:00:00	2024-11-08T18:00:00	4	Temperatura máxima	24.7
147163	7	Sololá	719	Santiago Atitlán	14	Cerro de Oro	5	Mayo	2023-05-05T00:00:00	2024-11-08T18:00:00	3	Temperatura mínima	23.5
147164	7	Sololá	719	Santiago Atitlán	14	Cerro de Oro	5	Mayo	2023-05-05T00:00:00	2024-11-08T18:00:00	5	Humedad	75
147165	7	Sololá	719	Santiago Atitlán	14	Cerro de Oro	5	Mayo	2023-05-05T00:00:00	2024-11-08T18:00:00	6	Velocidad del viento	11.3
147166	7	Sololá	719	Santiago Atitlán	14	Cerro de Oro	5	Mayo	2023-05-05T00:00:00	2024-11-08T18:00:00	7	Dirección del viento	11.27
147167	7	Sololá	719	Santiago Atitlán	14	Cerro de Oro	5	Mayo	2023-05-05T00:00:00	2024-11-08T18:00:00	1	Precipitación	0
147168	7	Sololá	719	Santiago Atitlán	14	Cerro de Oro	5	Mayo	2023-05-05T00:00:00	2024-11-08T18:00:00	8	Radiación solar	284
147169	7	Sololá	719	Santiago Atitlán	14	Cerro de Oro	5	Mayo	2023-05-05T00:00:00	2024-11-08T19:00:00	2	Temperatura media	21.7
147170	7	Sololá	719	Santiago Atitlán	14	Cerro de Oro	5	Mayo	2023-05-05T00:00:00	2024-11-08T19:00:00	4	Temperatura máxima	23.5
147171	7	Sololá	719	Santiago Atitlán	14	Cerro de Oro	5	Mayo	2023-05-05T00:00:00	2024-11-08T19:00:00	3	Temperatura mínima	21.7
147172	7	Sololá	719	Santiago Atitlán	14	Cerro de Oro	5	Mayo	2023-05-05T00:00:00	2024-11-08T19:00:00	5	Humedad	81
147173	7	Sololá	719	Santiago Atitlán	14	Cerro de Oro	5	Mayo	2023-05-05T00:00:00	2024-11-08T19:00:00	6	Velocidad del viento	12.9
147174	7	Sololá	719	Santiago Atitlán	14	Cerro de Oro	5	Mayo	2023-05-05T00:00:00	2024-11-08T19:00:00	7	Dirección del viento	12.87
147175	7	Sololá	719	Santiago Atitlán	14	Cerro de Oro	5	Mayo	2023-05-05T00:00:00	2024-11-08T19:00:00	1	Precipitación	0
147176	7	Sololá	719	Santiago Atitlán	14	Cerro de Oro	5	Mayo	2023-05-05T00:00:00	2024-11-08T19:00:00	8	Radiación solar	0
147177	7	Sololá	719	Santiago Atitlán	14	Cerro de Oro	5	Mayo	2023-05-05T00:00:00	2024-11-08T20:00:00	2	Temperatura media	21
147178	7	Sololá	719	Santiago Atitlán	14	Cerro de Oro	5	Mayo	2023-05-05T00:00:00	2024-11-08T20:00:00	4	Temperatura máxima	21.7
147179	7	Sololá	719	Santiago Atitlán	14	Cerro de Oro	5	Mayo	2023-05-05T00:00:00	2024-11-08T20:00:00	3	Temperatura mínima	20.9
147180	7	Sololá	719	Santiago Atitlán	14	Cerro de Oro	5	Mayo	2023-05-05T00:00:00	2024-11-08T20:00:00	5	Humedad	84
147181	7	Sololá	719	Santiago Atitlán	14	Cerro de Oro	5	Mayo	2023-05-05T00:00:00	2024-11-08T20:00:00	6	Velocidad del viento	8
147182	7	Sololá	719	Santiago Atitlán	14	Cerro de Oro	5	Mayo	2023-05-05T00:00:00	2024-11-08T20:00:00	7	Dirección del viento	8.05
147183	7	Sololá	719	Santiago Atitlán	14	Cerro de Oro	5	Mayo	2023-05-05T00:00:00	2024-11-08T20:00:00	1	Precipitación	0
147184	7	Sololá	719	Santiago Atitlán	14	Cerro de Oro	5	Mayo	2023-05-05T00:00:00	2024-11-08T20:00:00	8	Radiación solar	0
147185	7	Sololá	719	Santiago Atitlán	14	Cerro de Oro	5	Mayo	2023-05-05T00:00:00	2024-11-08T21:00:00	2	Temperatura media	20.9
147186	7	Sololá	719	Santiago Atitlán	14	Cerro de Oro	5	Mayo	2023-05-05T00:00:00	2024-11-08T21:00:00	4	Temperatura máxima	21
147187	7	Sololá	719	Santiago Atitlán	14	Cerro de Oro	5	Mayo	2023-05-05T00:00:00	2024-11-08T21:00:00	3	Temperatura mínima	20.7
147188	7	Sololá	719	Santiago Atitlán	14	Cerro de Oro	5	Mayo	2023-05-05T00:00:00	2024-11-08T21:00:00	5	Humedad	82
147189	7	Sololá	719	Santiago Atitlán	14	Cerro de Oro	5	Mayo	2023-05-05T00:00:00	2024-11-08T21:00:00	6	Velocidad del viento	1.6
147190	7	Sololá	719	Santiago Atitlán	14	Cerro de Oro	5	Mayo	2023-05-05T00:00:00	2024-11-08T21:00:00	7	Dirección del viento	1.61
147191	7	Sololá	719	Santiago Atitlán	14	Cerro de Oro	5	Mayo	2023-05-05T00:00:00	2024-11-08T21:00:00	1	Precipitación	0
147192	7	Sololá	719	Santiago Atitlán	14	Cerro de Oro	5	Mayo	2023-05-05T00:00:00	2024-11-08T21:00:00	8	Radiación solar	0
147193	7	Sololá	719	Santiago Atitlán	14	Cerro de Oro	5	Mayo	2023-05-05T00:00:00	2024-11-08T22:00:00	2	Temperatura media	20.6
147194	7	Sololá	719	Santiago Atitlán	14	Cerro de Oro	5	Mayo	2023-05-05T00:00:00	2024-11-08T22:00:00	4	Temperatura máxima	20.9
147195	7	Sololá	719	Santiago Atitlán	14	Cerro de Oro	5	Mayo	2023-05-05T00:00:00	2024-11-08T22:00:00	3	Temperatura mínima	20.5
147196	7	Sololá	719	Santiago Atitlán	14	Cerro de Oro	5	Mayo	2023-05-05T00:00:00	2024-11-08T22:00:00	5	Humedad	85
147197	7	Sololá	719	Santiago Atitlán	14	Cerro de Oro	5	Mayo	2023-05-05T00:00:00	2024-11-08T22:00:00	6	Velocidad del viento	3.2
147198	7	Sololá	719	Santiago Atitlán	14	Cerro de Oro	5	Mayo	2023-05-05T00:00:00	2024-11-08T22:00:00	7	Dirección del viento	3.22
147199	7	Sololá	719	Santiago Atitlán	14	Cerro de Oro	5	Mayo	2023-05-05T00:00:00	2024-11-08T22:00:00	1	Precipitación	0
147200	7	Sololá	719	Santiago Atitlán	14	Cerro de Oro	5	Mayo	2023-05-05T00:00:00	2024-11-08T22:00:00	8	Radiación solar	0
147201	7	Sololá	719	Santiago Atitlán	14	Cerro de Oro	5	Mayo	2023-05-05T00:00:00	2024-11-08T23:00:00	2	Temperatura media	21.5
147202	7	Sololá	719	Santiago Atitlán	14	Cerro de Oro	5	Mayo	2023-05-05T00:00:00	2024-11-08T23:00:00	4	Temperatura máxima	21.5
147203	7	Sololá	719	Santiago Atitlán	14	Cerro de Oro	5	Mayo	2023-05-05T00:00:00	2024-11-08T23:00:00	3	Temperatura mínima	20.2
147204	7	Sololá	719	Santiago Atitlán	14	Cerro de Oro	5	Mayo	2023-05-05T00:00:00	2024-11-08T23:00:00	5	Humedad	69
147205	7	Sololá	719	Santiago Atitlán	14	Cerro de Oro	5	Mayo	2023-05-05T00:00:00	2024-11-08T23:00:00	6	Velocidad del viento	3.2
147206	7	Sololá	719	Santiago Atitlán	14	Cerro de Oro	5	Mayo	2023-05-05T00:00:00	2024-11-08T23:00:00	7	Dirección del viento	3.22
147207	7	Sololá	719	Santiago Atitlán	14	Cerro de Oro	5	Mayo	2023-05-05T00:00:00	2024-11-08T23:00:00	1	Precipitación	0
147208	7	Sololá	719	Santiago Atitlán	14	Cerro de Oro	5	Mayo	2023-05-05T00:00:00	2024-11-08T23:00:00	8	Radiación solar	0
147209	7	Sololá	719	Santiago Atitlán	14	Cerro de Oro	5	Mayo	2023-06-05T00:00:00	2024-11-08T00:00:00	2	Temperatura media	21.1
147210	7	Sololá	719	Santiago Atitlán	14	Cerro de Oro	5	Mayo	2023-06-05T00:00:00	2024-11-08T00:00:00	4	Temperatura máxima	21.9
147211	7	Sololá	719	Santiago Atitlán	14	Cerro de Oro	5	Mayo	2023-06-05T00:00:00	2024-11-08T00:00:00	3	Temperatura mínima	20.8
147212	7	Sololá	719	Santiago Atitlán	14	Cerro de Oro	5	Mayo	2023-06-05T00:00:00	2024-11-08T00:00:00	5	Humedad	73
147213	7	Sololá	719	Santiago Atitlán	14	Cerro de Oro	5	Mayo	2023-06-05T00:00:00	2024-11-08T00:00:00	6	Velocidad del viento	6.4
147214	7	Sololá	719	Santiago Atitlán	14	Cerro de Oro	5	Mayo	2023-06-05T00:00:00	2024-11-08T00:00:00	7	Dirección del viento	6.44
147215	7	Sololá	719	Santiago Atitlán	14	Cerro de Oro	5	Mayo	2023-06-05T00:00:00	2024-11-08T00:00:00	1	Precipitación	0
147216	7	Sololá	719	Santiago Atitlán	14	Cerro de Oro	5	Mayo	2023-06-05T00:00:00	2024-11-08T00:00:00	8	Radiación solar	0
147217	7	Sololá	719	Santiago Atitlán	14	Cerro de Oro	5	Mayo	2023-06-05T00:00:00	2024-11-08T01:00:00	2	Temperatura media	19.6
147218	7	Sololá	719	Santiago Atitlán	14	Cerro de Oro	5	Mayo	2023-06-05T00:00:00	2024-11-08T01:00:00	4	Temperatura máxima	21.2
147219	7	Sololá	719	Santiago Atitlán	14	Cerro de Oro	5	Mayo	2023-06-05T00:00:00	2024-11-08T01:00:00	3	Temperatura mínima	19.6
147220	7	Sololá	719	Santiago Atitlán	14	Cerro de Oro	5	Mayo	2023-06-05T00:00:00	2024-11-08T01:00:00	5	Humedad	74
147221	7	Sololá	719	Santiago Atitlán	14	Cerro de Oro	5	Mayo	2023-06-05T00:00:00	2024-11-08T01:00:00	6	Velocidad del viento	6.4
147222	7	Sololá	719	Santiago Atitlán	14	Cerro de Oro	5	Mayo	2023-06-05T00:00:00	2024-11-08T01:00:00	7	Dirección del viento	6.44
147223	7	Sololá	719	Santiago Atitlán	14	Cerro de Oro	5	Mayo	2023-06-05T00:00:00	2024-11-08T01:00:00	1	Precipitación	0
147224	7	Sololá	719	Santiago Atitlán	14	Cerro de Oro	5	Mayo	2023-06-05T00:00:00	2024-11-08T01:00:00	8	Radiación solar	0
147225	7	Sololá	719	Santiago Atitlán	14	Cerro de Oro	5	Mayo	2023-06-05T00:00:00	2024-11-08T02:00:00	2	Temperatura media	20.7
147226	7	Sololá	719	Santiago Atitlán	14	Cerro de Oro	5	Mayo	2023-06-05T00:00:00	2024-11-08T02:00:00	4	Temperatura máxima	20.7
147227	7	Sololá	719	Santiago Atitlán	14	Cerro de Oro	5	Mayo	2023-06-05T00:00:00	2024-11-08T02:00:00	3	Temperatura mínima	19.6
147228	7	Sololá	719	Santiago Atitlán	14	Cerro de Oro	5	Mayo	2023-06-05T00:00:00	2024-11-08T02:00:00	5	Humedad	75
147229	7	Sololá	719	Santiago Atitlán	14	Cerro de Oro	5	Mayo	2023-06-05T00:00:00	2024-11-08T02:00:00	6	Velocidad del viento	8
147230	7	Sololá	719	Santiago Atitlán	14	Cerro de Oro	5	Mayo	2023-06-05T00:00:00	2024-11-08T02:00:00	7	Dirección del viento	8.05
147231	7	Sololá	719	Santiago Atitlán	14	Cerro de Oro	5	Mayo	2023-06-05T00:00:00	2024-11-08T02:00:00	1	Precipitación	0
147232	7	Sololá	719	Santiago Atitlán	14	Cerro de Oro	5	Mayo	2023-06-05T00:00:00	2024-11-08T02:00:00	8	Radiación solar	0
147233	7	Sololá	719	Santiago Atitlán	14	Cerro de Oro	5	Mayo	2023-06-05T00:00:00	2024-11-08T03:00:00	2	Temperatura media	20.4
147234	7	Sololá	719	Santiago Atitlán	14	Cerro de Oro	5	Mayo	2023-06-05T00:00:00	2024-11-08T03:00:00	4	Temperatura máxima	20.7
147235	7	Sololá	719	Santiago Atitlán	14	Cerro de Oro	5	Mayo	2023-06-05T00:00:00	2024-11-08T03:00:00	3	Temperatura mínima	20.2
147236	7	Sololá	719	Santiago Atitlán	14	Cerro de Oro	5	Mayo	2023-06-05T00:00:00	2024-11-08T03:00:00	5	Humedad	73
147237	7	Sololá	719	Santiago Atitlán	14	Cerro de Oro	5	Mayo	2023-06-05T00:00:00	2024-11-08T03:00:00	6	Velocidad del viento	11.3
147238	7	Sololá	719	Santiago Atitlán	14	Cerro de Oro	5	Mayo	2023-06-05T00:00:00	2024-11-08T03:00:00	7	Dirección del viento	11.27
147239	7	Sololá	719	Santiago Atitlán	14	Cerro de Oro	5	Mayo	2023-06-05T00:00:00	2024-11-08T03:00:00	1	Precipitación	0
147240	7	Sololá	719	Santiago Atitlán	14	Cerro de Oro	5	Mayo	2023-06-05T00:00:00	2024-11-08T03:00:00	8	Radiación solar	0
147241	7	Sololá	719	Santiago Atitlán	14	Cerro de Oro	5	Mayo	2023-06-05T00:00:00	2024-11-08T04:00:00	2	Temperatura media	19.9
147242	7	Sololá	719	Santiago Atitlán	14	Cerro de Oro	5	Mayo	2023-06-05T00:00:00	2024-11-08T04:00:00	4	Temperatura máxima	20.5
147243	7	Sololá	719	Santiago Atitlán	14	Cerro de Oro	5	Mayo	2023-06-05T00:00:00	2024-11-08T04:00:00	3	Temperatura mínima	19.8
147244	7	Sololá	719	Santiago Atitlán	14	Cerro de Oro	5	Mayo	2023-06-05T00:00:00	2024-11-08T04:00:00	5	Humedad	74
147245	7	Sololá	719	Santiago Atitlán	14	Cerro de Oro	5	Mayo	2023-06-05T00:00:00	2024-11-08T04:00:00	6	Velocidad del viento	8
147246	7	Sololá	719	Santiago Atitlán	14	Cerro de Oro	5	Mayo	2023-06-05T00:00:00	2024-11-08T04:00:00	7	Dirección del viento	8.05
147247	7	Sololá	719	Santiago Atitlán	14	Cerro de Oro	5	Mayo	2023-06-05T00:00:00	2024-11-08T04:00:00	1	Precipitación	0
147248	7	Sololá	719	Santiago Atitlán	14	Cerro de Oro	5	Mayo	2023-06-05T00:00:00	2024-11-08T04:00:00	8	Radiación solar	0
147249	7	Sololá	719	Santiago Atitlán	14	Cerro de Oro	5	Mayo	2023-06-05T00:00:00	2024-11-08T05:00:00	2	Temperatura media	18.2
147250	7	Sololá	719	Santiago Atitlán	14	Cerro de Oro	5	Mayo	2023-06-05T00:00:00	2024-11-08T05:00:00	4	Temperatura máxima	20.1
147251	7	Sololá	719	Santiago Atitlán	14	Cerro de Oro	5	Mayo	2023-06-05T00:00:00	2024-11-08T05:00:00	3	Temperatura mínima	18.2
147252	7	Sololá	719	Santiago Atitlán	14	Cerro de Oro	5	Mayo	2023-06-05T00:00:00	2024-11-08T05:00:00	5	Humedad	72
147253	7	Sololá	719	Santiago Atitlán	14	Cerro de Oro	5	Mayo	2023-06-05T00:00:00	2024-11-08T05:00:00	6	Velocidad del viento	4.8
147254	7	Sololá	719	Santiago Atitlán	14	Cerro de Oro	5	Mayo	2023-06-05T00:00:00	2024-11-08T05:00:00	7	Dirección del viento	4.83
147255	7	Sololá	719	Santiago Atitlán	14	Cerro de Oro	5	Mayo	2023-06-05T00:00:00	2024-11-08T05:00:00	1	Precipitación	0
147256	7	Sololá	719	Santiago Atitlán	14	Cerro de Oro	5	Mayo	2023-06-05T00:00:00	2024-11-08T05:00:00	8	Radiación solar	0
147257	7	Sololá	719	Santiago Atitlán	14	Cerro de Oro	5	Mayo	2023-06-05T00:00:00	2024-11-08T06:00:00	2	Temperatura media	17.7
147258	7	Sololá	719	Santiago Atitlán	14	Cerro de Oro	5	Mayo	2023-06-05T00:00:00	2024-11-08T06:00:00	4	Temperatura máxima	18.6
147259	7	Sololá	719	Santiago Atitlán	14	Cerro de Oro	5	Mayo	2023-06-05T00:00:00	2024-11-08T06:00:00	3	Temperatura mínima	17.7
147260	7	Sololá	719	Santiago Atitlán	14	Cerro de Oro	5	Mayo	2023-06-05T00:00:00	2024-11-08T06:00:00	5	Humedad	71
147261	7	Sololá	719	Santiago Atitlán	14	Cerro de Oro	5	Mayo	2023-06-05T00:00:00	2024-11-08T06:00:00	6	Velocidad del viento	4.8
147262	7	Sololá	719	Santiago Atitlán	14	Cerro de Oro	5	Mayo	2023-06-05T00:00:00	2024-11-08T06:00:00	7	Dirección del viento	4.83
147263	7	Sololá	719	Santiago Atitlán	14	Cerro de Oro	5	Mayo	2023-06-05T00:00:00	2024-11-08T06:00:00	1	Precipitación	0
147264	7	Sololá	719	Santiago Atitlán	14	Cerro de Oro	5	Mayo	2023-06-05T00:00:00	2024-11-08T06:00:00	8	Radiación solar	0
147265	7	Sololá	719	Santiago Atitlán	14	Cerro de Oro	5	Mayo	2023-06-05T00:00:00	2024-11-08T07:00:00	2	Temperatura media	17.9
147266	7	Sololá	719	Santiago Atitlán	14	Cerro de Oro	5	Mayo	2023-06-05T00:00:00	2024-11-08T07:00:00	4	Temperatura máxima	17.9
147267	7	Sololá	719	Santiago Atitlán	14	Cerro de Oro	5	Mayo	2023-06-05T00:00:00	2024-11-08T07:00:00	3	Temperatura mínima	17.2
147268	7	Sololá	719	Santiago Atitlán	14	Cerro de Oro	5	Mayo	2023-06-05T00:00:00	2024-11-08T07:00:00	5	Humedad	72
147269	7	Sololá	719	Santiago Atitlán	14	Cerro de Oro	5	Mayo	2023-06-05T00:00:00	2024-11-08T07:00:00	6	Velocidad del viento	6.4
147270	7	Sololá	719	Santiago Atitlán	14	Cerro de Oro	5	Mayo	2023-06-05T00:00:00	2024-11-08T07:00:00	7	Dirección del viento	6.44
147271	7	Sololá	719	Santiago Atitlán	14	Cerro de Oro	5	Mayo	2023-06-05T00:00:00	2024-11-08T07:00:00	1	Precipitación	0
147272	7	Sololá	719	Santiago Atitlán	14	Cerro de Oro	5	Mayo	2023-06-05T00:00:00	2024-11-08T07:00:00	8	Radiación solar	5
147273	7	Sololá	719	Santiago Atitlán	14	Cerro de Oro	5	Mayo	2023-06-05T00:00:00	2024-11-08T08:00:00	2	Temperatura media	19.9
147274	7	Sololá	719	Santiago Atitlán	14	Cerro de Oro	5	Mayo	2023-06-05T00:00:00	2024-11-08T08:00:00	4	Temperatura máxima	19.9
147275	7	Sololá	719	Santiago Atitlán	14	Cerro de Oro	5	Mayo	2023-06-05T00:00:00	2024-11-08T08:00:00	3	Temperatura mínima	17.9
147276	7	Sololá	719	Santiago Atitlán	14	Cerro de Oro	5	Mayo	2023-06-05T00:00:00	2024-11-08T08:00:00	5	Humedad	67
147277	7	Sololá	719	Santiago Atitlán	14	Cerro de Oro	5	Mayo	2023-06-05T00:00:00	2024-11-08T08:00:00	6	Velocidad del viento	4.8
147278	7	Sololá	719	Santiago Atitlán	14	Cerro de Oro	5	Mayo	2023-06-05T00:00:00	2024-11-08T08:00:00	7	Dirección del viento	4.83
147279	7	Sololá	719	Santiago Atitlán	14	Cerro de Oro	5	Mayo	2023-06-05T00:00:00	2024-11-08T08:00:00	1	Precipitación	0
147280	7	Sololá	719	Santiago Atitlán	14	Cerro de Oro	5	Mayo	2023-06-05T00:00:00	2024-11-08T08:00:00	8	Radiación solar	106
147281	7	Sololá	719	Santiago Atitlán	14	Cerro de Oro	5	Mayo	2023-06-05T00:00:00	2024-11-08T09:00:00	2	Temperatura media	22.3
147282	7	Sololá	719	Santiago Atitlán	14	Cerro de Oro	5	Mayo	2023-06-05T00:00:00	2024-11-08T09:00:00	4	Temperatura máxima	22.3
147283	7	Sololá	719	Santiago Atitlán	14	Cerro de Oro	5	Mayo	2023-06-05T00:00:00	2024-11-08T09:00:00	3	Temperatura mínima	19.9
147284	7	Sololá	719	Santiago Atitlán	14	Cerro de Oro	5	Mayo	2023-06-05T00:00:00	2024-11-08T09:00:00	5	Humedad	59
147285	7	Sololá	719	Santiago Atitlán	14	Cerro de Oro	5	Mayo	2023-06-05T00:00:00	2024-11-08T09:00:00	6	Velocidad del viento	3.2
147286	7	Sololá	719	Santiago Atitlán	14	Cerro de Oro	5	Mayo	2023-06-05T00:00:00	2024-11-08T09:00:00	7	Dirección del viento	3.22
147287	7	Sololá	719	Santiago Atitlán	14	Cerro de Oro	5	Mayo	2023-06-05T00:00:00	2024-11-08T09:00:00	1	Precipitación	0
147288	7	Sololá	719	Santiago Atitlán	14	Cerro de Oro	5	Mayo	2023-06-05T00:00:00	2024-11-08T09:00:00	8	Radiación solar	322
147289	7	Sololá	719	Santiago Atitlán	14	Cerro de Oro	5	Mayo	2023-06-05T00:00:00	2024-11-08T10:00:00	2	Temperatura media	23.4
147290	7	Sololá	719	Santiago Atitlán	14	Cerro de Oro	5	Mayo	2023-06-05T00:00:00	2024-11-08T10:00:00	4	Temperatura máxima	23.8
147291	7	Sololá	719	Santiago Atitlán	14	Cerro de Oro	5	Mayo	2023-06-05T00:00:00	2024-11-08T10:00:00	3	Temperatura mínima	22.3
147292	7	Sololá	719	Santiago Atitlán	14	Cerro de Oro	5	Mayo	2023-06-05T00:00:00	2024-11-08T10:00:00	5	Humedad	62
147293	7	Sololá	719	Santiago Atitlán	14	Cerro de Oro	5	Mayo	2023-06-05T00:00:00	2024-11-08T10:00:00	6	Velocidad del viento	3.2
147294	7	Sololá	719	Santiago Atitlán	14	Cerro de Oro	5	Mayo	2023-06-05T00:00:00	2024-11-08T10:00:00	7	Dirección del viento	3.22
147295	7	Sololá	719	Santiago Atitlán	14	Cerro de Oro	5	Mayo	2023-06-05T00:00:00	2024-11-08T10:00:00	1	Precipitación	0
147296	7	Sololá	719	Santiago Atitlán	14	Cerro de Oro	5	Mayo	2023-06-05T00:00:00	2024-11-08T10:00:00	8	Radiación solar	535
147297	7	Sololá	719	Santiago Atitlán	14	Cerro de Oro	5	Mayo	2023-06-05T00:00:00	2024-11-08T11:00:00	2	Temperatura media	24.4
147298	7	Sololá	719	Santiago Atitlán	14	Cerro de Oro	5	Mayo	2023-06-05T00:00:00	2024-11-08T11:00:00	4	Temperatura máxima	24.5
147299	7	Sololá	719	Santiago Atitlán	14	Cerro de Oro	5	Mayo	2023-06-05T00:00:00	2024-11-08T11:00:00	3	Temperatura mínima	23.4
147300	7	Sololá	719	Santiago Atitlán	14	Cerro de Oro	5	Mayo	2023-06-05T00:00:00	2024-11-08T11:00:00	5	Humedad	56
147301	7	Sololá	719	Santiago Atitlán	14	Cerro de Oro	5	Mayo	2023-06-05T00:00:00	2024-11-08T11:00:00	6	Velocidad del viento	4.8
147302	7	Sololá	719	Santiago Atitlán	14	Cerro de Oro	5	Mayo	2023-06-05T00:00:00	2024-11-08T11:00:00	7	Dirección del viento	4.83
147303	7	Sololá	719	Santiago Atitlán	14	Cerro de Oro	5	Mayo	2023-06-05T00:00:00	2024-11-08T11:00:00	1	Precipitación	0
147304	7	Sololá	719	Santiago Atitlán	14	Cerro de Oro	5	Mayo	2023-06-05T00:00:00	2024-11-08T11:00:00	8	Radiación solar	714
147305	7	Sololá	719	Santiago Atitlán	14	Cerro de Oro	5	Mayo	2023-06-05T00:00:00	2024-11-08T12:00:00	2	Temperatura media	26.7
147306	7	Sololá	719	Santiago Atitlán	14	Cerro de Oro	5	Mayo	2023-06-05T00:00:00	2024-11-08T12:00:00	4	Temperatura máxima	26.7
147307	7	Sololá	719	Santiago Atitlán	14	Cerro de Oro	5	Mayo	2023-06-05T00:00:00	2024-11-08T12:00:00	3	Temperatura mínima	24.3
147308	7	Sololá	719	Santiago Atitlán	14	Cerro de Oro	5	Mayo	2023-06-05T00:00:00	2024-11-08T12:00:00	5	Humedad	41
147309	7	Sololá	719	Santiago Atitlán	14	Cerro de Oro	5	Mayo	2023-06-05T00:00:00	2024-11-08T12:00:00	6	Velocidad del viento	8
147310	7	Sololá	719	Santiago Atitlán	14	Cerro de Oro	5	Mayo	2023-06-05T00:00:00	2024-11-08T12:00:00	7	Dirección del viento	8.05
147311	7	Sololá	719	Santiago Atitlán	14	Cerro de Oro	5	Mayo	2023-06-05T00:00:00	2024-11-08T12:00:00	1	Precipitación	0
147312	7	Sololá	719	Santiago Atitlán	14	Cerro de Oro	5	Mayo	2023-06-05T00:00:00	2024-11-08T12:00:00	8	Radiación solar	856
147313	7	Sololá	719	Santiago Atitlán	14	Cerro de Oro	5	Mayo	2023-06-05T00:00:00	2024-11-08T13:00:00	2	Temperatura media	27.4
147314	7	Sololá	719	Santiago Atitlán	14	Cerro de Oro	5	Mayo	2023-06-05T00:00:00	2024-11-08T13:00:00	4	Temperatura máxima	27.6
147315	7	Sololá	719	Santiago Atitlán	14	Cerro de Oro	5	Mayo	2023-06-05T00:00:00	2024-11-08T13:00:00	3	Temperatura mínima	26.6
147316	7	Sololá	719	Santiago Atitlán	14	Cerro de Oro	5	Mayo	2023-06-05T00:00:00	2024-11-08T13:00:00	5	Humedad	56
147317	7	Sololá	719	Santiago Atitlán	14	Cerro de Oro	5	Mayo	2023-06-05T00:00:00	2024-11-08T13:00:00	6	Velocidad del viento	9.7
147318	7	Sololá	719	Santiago Atitlán	14	Cerro de Oro	5	Mayo	2023-06-05T00:00:00	2024-11-08T13:00:00	7	Dirección del viento	9.66
147319	7	Sololá	719	Santiago Atitlán	14	Cerro de Oro	5	Mayo	2023-06-05T00:00:00	2024-11-08T13:00:00	1	Precipitación	0
147320	7	Sololá	719	Santiago Atitlán	14	Cerro de Oro	5	Mayo	2023-06-05T00:00:00	2024-11-08T13:00:00	8	Radiación solar	919
147321	7	Sololá	719	Santiago Atitlán	14	Cerro de Oro	5	Mayo	2023-06-05T00:00:00	2024-11-08T14:00:00	2	Temperatura media	26.2
147322	7	Sololá	719	Santiago Atitlán	14	Cerro de Oro	5	Mayo	2023-06-05T00:00:00	2024-11-08T14:00:00	4	Temperatura máxima	27.4
147323	7	Sololá	719	Santiago Atitlán	14	Cerro de Oro	5	Mayo	2023-06-05T00:00:00	2024-11-08T14:00:00	3	Temperatura mínima	26.1
147324	7	Sololá	719	Santiago Atitlán	14	Cerro de Oro	5	Mayo	2023-06-05T00:00:00	2024-11-08T14:00:00	5	Humedad	65
147325	7	Sololá	719	Santiago Atitlán	14	Cerro de Oro	5	Mayo	2023-06-05T00:00:00	2024-11-08T14:00:00	6	Velocidad del viento	12.9
147326	7	Sololá	719	Santiago Atitlán	14	Cerro de Oro	5	Mayo	2023-06-05T00:00:00	2024-11-08T14:00:00	7	Dirección del viento	12.87
147327	7	Sololá	719	Santiago Atitlán	14	Cerro de Oro	5	Mayo	2023-06-05T00:00:00	2024-11-08T14:00:00	1	Precipitación	0
147328	7	Sololá	719	Santiago Atitlán	14	Cerro de Oro	5	Mayo	2023-06-05T00:00:00	2024-11-08T14:00:00	8	Radiación solar	915
147329	7	Sololá	719	Santiago Atitlán	14	Cerro de Oro	5	Mayo	2023-06-05T00:00:00	2024-11-08T15:00:00	2	Temperatura media	25.7
147330	7	Sololá	719	Santiago Atitlán	14	Cerro de Oro	5	Mayo	2023-06-05T00:00:00	2024-11-08T15:00:00	4	Temperatura máxima	26.4
147331	7	Sololá	719	Santiago Atitlán	14	Cerro de Oro	5	Mayo	2023-06-05T00:00:00	2024-11-08T15:00:00	3	Temperatura mínima	25.4
147332	7	Sololá	719	Santiago Atitlán	14	Cerro de Oro	5	Mayo	2023-06-05T00:00:00	2024-11-08T15:00:00	5	Humedad	68
147333	7	Sololá	719	Santiago Atitlán	14	Cerro de Oro	5	Mayo	2023-06-05T00:00:00	2024-11-08T15:00:00	6	Velocidad del viento	16.1
147334	7	Sololá	719	Santiago Atitlán	14	Cerro de Oro	5	Mayo	2023-06-05T00:00:00	2024-11-08T15:00:00	7	Dirección del viento	16.09
147335	7	Sololá	719	Santiago Atitlán	14	Cerro de Oro	5	Mayo	2023-06-05T00:00:00	2024-11-08T15:00:00	1	Precipitación	0
147336	7	Sololá	719	Santiago Atitlán	14	Cerro de Oro	5	Mayo	2023-06-05T00:00:00	2024-11-08T15:00:00	8	Radiación solar	826
147337	7	Sololá	719	Santiago Atitlán	14	Cerro de Oro	5	Mayo	2023-06-05T00:00:00	2024-11-08T16:00:00	2	Temperatura media	26.1
147338	7	Sololá	719	Santiago Atitlán	14	Cerro de Oro	5	Mayo	2023-06-05T00:00:00	2024-11-08T16:00:00	4	Temperatura máxima	26.3
147339	7	Sololá	719	Santiago Atitlán	14	Cerro de Oro	5	Mayo	2023-06-05T00:00:00	2024-11-08T16:00:00	3	Temperatura mínima	25.3
147340	7	Sololá	719	Santiago Atitlán	14	Cerro de Oro	5	Mayo	2023-06-05T00:00:00	2024-11-08T16:00:00	5	Humedad	63
147341	7	Sololá	719	Santiago Atitlán	14	Cerro de Oro	5	Mayo	2023-06-05T00:00:00	2024-11-08T16:00:00	6	Velocidad del viento	11.3
147342	7	Sololá	719	Santiago Atitlán	14	Cerro de Oro	5	Mayo	2023-06-05T00:00:00	2024-11-08T16:00:00	7	Dirección del viento	11.27
147343	7	Sololá	719	Santiago Atitlán	14	Cerro de Oro	5	Mayo	2023-06-05T00:00:00	2024-11-08T16:00:00	1	Precipitación	0
147344	7	Sololá	719	Santiago Atitlán	14	Cerro de Oro	5	Mayo	2023-06-05T00:00:00	2024-11-08T16:00:00	8	Radiación solar	661
147345	7	Sololá	719	Santiago Atitlán	14	Cerro de Oro	5	Mayo	2023-06-05T00:00:00	2024-11-08T17:00:00	2	Temperatura media	25.8
147346	7	Sololá	719	Santiago Atitlán	14	Cerro de Oro	5	Mayo	2023-06-05T00:00:00	2024-11-08T17:00:00	4	Temperatura máxima	26.1
147347	7	Sololá	719	Santiago Atitlán	14	Cerro de Oro	5	Mayo	2023-06-05T00:00:00	2024-11-08T17:00:00	3	Temperatura mínima	24.7
147348	7	Sololá	719	Santiago Atitlán	14	Cerro de Oro	5	Mayo	2023-06-05T00:00:00	2024-11-08T17:00:00	5	Humedad	66
147349	7	Sololá	719	Santiago Atitlán	14	Cerro de Oro	5	Mayo	2023-06-05T00:00:00	2024-11-08T17:00:00	6	Velocidad del viento	9.7
147350	7	Sololá	719	Santiago Atitlán	14	Cerro de Oro	5	Mayo	2023-06-05T00:00:00	2024-11-08T17:00:00	7	Dirección del viento	9.66
147351	7	Sololá	719	Santiago Atitlán	14	Cerro de Oro	5	Mayo	2023-06-05T00:00:00	2024-11-08T17:00:00	1	Precipitación	0
147352	7	Sololá	719	Santiago Atitlán	14	Cerro de Oro	5	Mayo	2023-06-05T00:00:00	2024-11-08T17:00:00	8	Radiación solar	494
147353	7	Sololá	719	Santiago Atitlán	14	Cerro de Oro	5	Mayo	2023-06-05T00:00:00	2024-11-08T18:00:00	2	Temperatura media	25
147354	7	Sololá	719	Santiago Atitlán	14	Cerro de Oro	5	Mayo	2023-06-05T00:00:00	2024-11-08T18:00:00	4	Temperatura máxima	26.4
147355	7	Sololá	719	Santiago Atitlán	14	Cerro de Oro	5	Mayo	2023-06-05T00:00:00	2024-11-08T18:00:00	3	Temperatura mínima	24.9
147356	7	Sololá	719	Santiago Atitlán	14	Cerro de Oro	5	Mayo	2023-06-05T00:00:00	2024-11-08T18:00:00	5	Humedad	68
147357	7	Sololá	719	Santiago Atitlán	14	Cerro de Oro	5	Mayo	2023-06-05T00:00:00	2024-11-08T18:00:00	6	Velocidad del viento	4.8
147358	7	Sololá	719	Santiago Atitlán	14	Cerro de Oro	5	Mayo	2023-06-05T00:00:00	2024-11-08T18:00:00	7	Dirección del viento	4.83
147359	7	Sololá	719	Santiago Atitlán	14	Cerro de Oro	5	Mayo	2023-06-05T00:00:00	2024-11-08T18:00:00	1	Precipitación	0
147360	7	Sololá	719	Santiago Atitlán	14	Cerro de Oro	5	Mayo	2023-06-05T00:00:00	2024-11-08T18:00:00	8	Radiación solar	320
147361	7	Sololá	719	Santiago Atitlán	14	Cerro de Oro	5	Mayo	2023-06-05T00:00:00	2024-11-08T19:00:00	2	Temperatura media	24.6
147362	7	Sololá	719	Santiago Atitlán	14	Cerro de Oro	5	Mayo	2023-06-05T00:00:00	2024-11-08T19:00:00	4	Temperatura máxima	25
147363	7	Sololá	719	Santiago Atitlán	14	Cerro de Oro	5	Mayo	2023-06-05T00:00:00	2024-11-08T19:00:00	3	Temperatura mínima	24.6
147364	7	Sololá	719	Santiago Atitlán	14	Cerro de Oro	5	Mayo	2023-06-05T00:00:00	2024-11-08T19:00:00	5	Humedad	62
147365	7	Sololá	719	Santiago Atitlán	14	Cerro de Oro	5	Mayo	2023-06-05T00:00:00	2024-11-08T19:00:00	6	Velocidad del viento	4.8
147366	7	Sololá	719	Santiago Atitlán	14	Cerro de Oro	5	Mayo	2023-06-05T00:00:00	2024-11-08T19:00:00	7	Dirección del viento	4.83
147367	7	Sololá	719	Santiago Atitlán	14	Cerro de Oro	5	Mayo	2023-06-05T00:00:00	2024-11-08T19:00:00	1	Precipitación	0
147368	7	Sololá	719	Santiago Atitlán	14	Cerro de Oro	5	Mayo	2023-06-05T00:00:00	2024-11-08T19:00:00	8	Radiación solar	0
147369	7	Sololá	719	Santiago Atitlán	14	Cerro de Oro	5	Mayo	2023-06-05T00:00:00	2024-11-08T20:00:00	2	Temperatura media	24.6
147370	7	Sololá	719	Santiago Atitlán	14	Cerro de Oro	5	Mayo	2023-06-05T00:00:00	2024-11-08T20:00:00	4	Temperatura máxima	24.6
147371	7	Sololá	719	Santiago Atitlán	14	Cerro de Oro	5	Mayo	2023-06-05T00:00:00	2024-11-08T20:00:00	3	Temperatura mínima	23.6
147372	7	Sololá	719	Santiago Atitlán	14	Cerro de Oro	5	Mayo	2023-06-05T00:00:00	2024-11-08T20:00:00	5	Humedad	58
147373	7	Sololá	719	Santiago Atitlán	14	Cerro de Oro	5	Mayo	2023-06-05T00:00:00	2024-11-08T20:00:00	6	Velocidad del viento	6.4
147374	7	Sololá	719	Santiago Atitlán	14	Cerro de Oro	5	Mayo	2023-06-05T00:00:00	2024-11-08T20:00:00	7	Dirección del viento	6.44
147375	7	Sololá	719	Santiago Atitlán	14	Cerro de Oro	5	Mayo	2023-06-05T00:00:00	2024-11-08T20:00:00	1	Precipitación	0
147376	7	Sololá	719	Santiago Atitlán	14	Cerro de Oro	5	Mayo	2023-06-05T00:00:00	2024-11-08T20:00:00	8	Radiación solar	0
147377	7	Sololá	719	Santiago Atitlán	14	Cerro de Oro	5	Mayo	2023-06-05T00:00:00	2024-11-08T21:00:00	2	Temperatura media	23.1
147378	7	Sololá	719	Santiago Atitlán	14	Cerro de Oro	5	Mayo	2023-06-05T00:00:00	2024-11-08T21:00:00	4	Temperatura máxima	24.5
147379	7	Sololá	719	Santiago Atitlán	14	Cerro de Oro	5	Mayo	2023-06-05T00:00:00	2024-11-08T21:00:00	3	Temperatura mínima	23.1
147380	7	Sololá	719	Santiago Atitlán	14	Cerro de Oro	5	Mayo	2023-06-05T00:00:00	2024-11-08T21:00:00	5	Humedad	56
147381	7	Sololá	719	Santiago Atitlán	14	Cerro de Oro	5	Mayo	2023-06-05T00:00:00	2024-11-08T21:00:00	6	Velocidad del viento	4.8
147382	7	Sololá	719	Santiago Atitlán	14	Cerro de Oro	5	Mayo	2023-06-05T00:00:00	2024-11-08T21:00:00	7	Dirección del viento	4.83
147383	7	Sololá	719	Santiago Atitlán	14	Cerro de Oro	5	Mayo	2023-06-05T00:00:00	2024-11-08T21:00:00	1	Precipitación	0
147384	7	Sololá	719	Santiago Atitlán	14	Cerro de Oro	5	Mayo	2023-06-05T00:00:00	2024-11-08T21:00:00	8	Radiación solar	0
147385	7	Sololá	719	Santiago Atitlán	14	Cerro de Oro	5	Mayo	2023-06-05T00:00:00	2024-11-08T22:00:00	2	Temperatura media	23
147386	7	Sololá	719	Santiago Atitlán	14	Cerro de Oro	5	Mayo	2023-06-05T00:00:00	2024-11-08T22:00:00	4	Temperatura máxima	23.1
147387	7	Sololá	719	Santiago Atitlán	14	Cerro de Oro	5	Mayo	2023-06-05T00:00:00	2024-11-08T22:00:00	3	Temperatura mínima	22.7
147388	7	Sololá	719	Santiago Atitlán	14	Cerro de Oro	5	Mayo	2023-06-05T00:00:00	2024-11-08T22:00:00	5	Humedad	56
147389	7	Sololá	719	Santiago Atitlán	14	Cerro de Oro	5	Mayo	2023-06-05T00:00:00	2024-11-08T22:00:00	6	Velocidad del viento	4.8
147390	7	Sololá	719	Santiago Atitlán	14	Cerro de Oro	5	Mayo	2023-06-05T00:00:00	2024-11-08T22:00:00	7	Dirección del viento	4.83
147391	7	Sololá	719	Santiago Atitlán	14	Cerro de Oro	5	Mayo	2023-06-05T00:00:00	2024-11-08T22:00:00	1	Precipitación	0
147392	7	Sololá	719	Santiago Atitlán	14	Cerro de Oro	5	Mayo	2023-06-05T00:00:00	2024-11-08T22:00:00	8	Radiación solar	0
147393	7	Sololá	719	Santiago Atitlán	14	Cerro de Oro	5	Mayo	2023-06-05T00:00:00	2024-11-08T23:00:00	2	Temperatura media	22.3
147394	7	Sololá	719	Santiago Atitlán	14	Cerro de Oro	5	Mayo	2023-06-05T00:00:00	2024-11-08T23:00:00	4	Temperatura máxima	22.9
147395	7	Sololá	719	Santiago Atitlán	14	Cerro de Oro	5	Mayo	2023-06-05T00:00:00	2024-11-08T23:00:00	3	Temperatura mínima	22.2
147396	7	Sololá	719	Santiago Atitlán	14	Cerro de Oro	5	Mayo	2023-06-05T00:00:00	2024-11-08T23:00:00	5	Humedad	55
147397	7	Sololá	719	Santiago Atitlán	14	Cerro de Oro	5	Mayo	2023-06-05T00:00:00	2024-11-08T23:00:00	6	Velocidad del viento	4.8
147398	7	Sololá	719	Santiago Atitlán	14	Cerro de Oro	5	Mayo	2023-06-05T00:00:00	2024-11-08T23:00:00	7	Dirección del viento	4.83
147399	7	Sololá	719	Santiago Atitlán	14	Cerro de Oro	5	Mayo	2023-06-05T00:00:00	2024-11-08T23:00:00	1	Precipitación	0
147400	7	Sololá	719	Santiago Atitlán	14	Cerro de Oro	5	Mayo	2023-06-05T00:00:00	2024-11-08T23:00:00	8	Radiación solar	0
147401	7	Sololá	719	Santiago Atitlán	14	Cerro de Oro	5	Mayo	2023-07-05T00:00:00	2024-11-08T00:00:00	2	Temperatura media	20
147402	7	Sololá	719	Santiago Atitlán	14	Cerro de Oro	5	Mayo	2023-07-05T00:00:00	2024-11-08T00:00:00	4	Temperatura máxima	22.3
147403	7	Sololá	719	Santiago Atitlán	14	Cerro de Oro	5	Mayo	2023-07-05T00:00:00	2024-11-08T00:00:00	3	Temperatura mínima	19.9
147404	7	Sololá	719	Santiago Atitlán	14	Cerro de Oro	5	Mayo	2023-07-05T00:00:00	2024-11-08T00:00:00	5	Humedad	56
147405	7	Sololá	719	Santiago Atitlán	14	Cerro de Oro	5	Mayo	2023-07-05T00:00:00	2024-11-08T00:00:00	6	Velocidad del viento	4.8
147406	7	Sololá	719	Santiago Atitlán	14	Cerro de Oro	5	Mayo	2023-07-05T00:00:00	2024-11-08T00:00:00	7	Dirección del viento	4.83
147407	7	Sololá	719	Santiago Atitlán	14	Cerro de Oro	5	Mayo	2023-07-05T00:00:00	2024-11-08T00:00:00	1	Precipitación	0
147408	7	Sololá	719	Santiago Atitlán	14	Cerro de Oro	5	Mayo	2023-07-05T00:00:00	2024-11-08T00:00:00	8	Radiación solar	0
147409	7	Sololá	719	Santiago Atitlán	14	Cerro de Oro	5	Mayo	2023-07-05T00:00:00	2024-11-08T01:00:00	2	Temperatura media	20.4
147410	7	Sololá	719	Santiago Atitlán	14	Cerro de Oro	5	Mayo	2023-07-05T00:00:00	2024-11-08T01:00:00	4	Temperatura máxima	20.6
147411	7	Sololá	719	Santiago Atitlán	14	Cerro de Oro	5	Mayo	2023-07-05T00:00:00	2024-11-08T01:00:00	3	Temperatura mínima	20
147412	7	Sololá	719	Santiago Atitlán	14	Cerro de Oro	5	Mayo	2023-07-05T00:00:00	2024-11-08T01:00:00	5	Humedad	56
147413	7	Sololá	719	Santiago Atitlán	14	Cerro de Oro	5	Mayo	2023-07-05T00:00:00	2024-11-08T01:00:00	6	Velocidad del viento	4.8
147414	7	Sololá	719	Santiago Atitlán	14	Cerro de Oro	5	Mayo	2023-07-05T00:00:00	2024-11-08T01:00:00	7	Dirección del viento	4.83
147415	7	Sololá	719	Santiago Atitlán	14	Cerro de Oro	5	Mayo	2023-07-05T00:00:00	2024-11-08T01:00:00	1	Precipitación	0
147416	7	Sololá	719	Santiago Atitlán	14	Cerro de Oro	5	Mayo	2023-07-05T00:00:00	2024-11-08T01:00:00	8	Radiación solar	0
147417	7	Sololá	719	Santiago Atitlán	14	Cerro de Oro	5	Mayo	2023-07-05T00:00:00	2024-11-08T02:00:00	2	Temperatura media	19.4
147418	7	Sololá	719	Santiago Atitlán	14	Cerro de Oro	5	Mayo	2023-07-05T00:00:00	2024-11-08T02:00:00	4	Temperatura máxima	20.6
147419	7	Sololá	719	Santiago Atitlán	14	Cerro de Oro	5	Mayo	2023-07-05T00:00:00	2024-11-08T02:00:00	3	Temperatura mínima	19.3
147420	7	Sololá	719	Santiago Atitlán	14	Cerro de Oro	5	Mayo	2023-07-05T00:00:00	2024-11-08T02:00:00	5	Humedad	60
147421	7	Sololá	719	Santiago Atitlán	14	Cerro de Oro	5	Mayo	2023-07-05T00:00:00	2024-11-08T02:00:00	6	Velocidad del viento	3.2
147422	7	Sololá	719	Santiago Atitlán	14	Cerro de Oro	5	Mayo	2023-07-05T00:00:00	2024-11-08T02:00:00	7	Dirección del viento	3.22
147423	7	Sololá	719	Santiago Atitlán	14	Cerro de Oro	5	Mayo	2023-07-05T00:00:00	2024-11-08T02:00:00	1	Precipitación	0
147424	7	Sololá	719	Santiago Atitlán	14	Cerro de Oro	5	Mayo	2023-07-05T00:00:00	2024-11-08T02:00:00	8	Radiación solar	0
147425	7	Sololá	719	Santiago Atitlán	14	Cerro de Oro	5	Mayo	2023-07-05T00:00:00	2024-11-08T03:00:00	2	Temperatura media	19.7
147426	7	Sololá	719	Santiago Atitlán	14	Cerro de Oro	5	Mayo	2023-07-05T00:00:00	2024-11-08T03:00:00	4	Temperatura máxima	20.2
147427	7	Sololá	719	Santiago Atitlán	14	Cerro de Oro	5	Mayo	2023-07-05T00:00:00	2024-11-08T03:00:00	3	Temperatura mínima	19.4
147428	7	Sololá	719	Santiago Atitlán	14	Cerro de Oro	5	Mayo	2023-07-05T00:00:00	2024-11-08T03:00:00	5	Humedad	54
147429	7	Sololá	719	Santiago Atitlán	14	Cerro de Oro	5	Mayo	2023-07-05T00:00:00	2024-11-08T03:00:00	6	Velocidad del viento	4.8
147430	7	Sololá	719	Santiago Atitlán	14	Cerro de Oro	5	Mayo	2023-07-05T00:00:00	2024-11-08T03:00:00	7	Dirección del viento	4.83
147431	7	Sololá	719	Santiago Atitlán	14	Cerro de Oro	5	Mayo	2023-07-05T00:00:00	2024-11-08T03:00:00	1	Precipitación	0
147432	7	Sololá	719	Santiago Atitlán	14	Cerro de Oro	5	Mayo	2023-07-05T00:00:00	2024-11-08T03:00:00	8	Radiación solar	0
147433	7	Sololá	719	Santiago Atitlán	14	Cerro de Oro	5	Mayo	2023-07-05T00:00:00	2024-11-08T04:00:00	2	Temperatura media	19.1
147434	7	Sololá	719	Santiago Atitlán	14	Cerro de Oro	5	Mayo	2023-07-05T00:00:00	2024-11-08T04:00:00	4	Temperatura máxima	19.9
147435	7	Sololá	719	Santiago Atitlán	14	Cerro de Oro	5	Mayo	2023-07-05T00:00:00	2024-11-08T04:00:00	3	Temperatura mínima	19.1
147436	7	Sololá	719	Santiago Atitlán	14	Cerro de Oro	5	Mayo	2023-07-05T00:00:00	2024-11-08T04:00:00	5	Humedad	59
147437	7	Sololá	719	Santiago Atitlán	14	Cerro de Oro	5	Mayo	2023-07-05T00:00:00	2024-11-08T04:00:00	6	Velocidad del viento	4.8
147438	7	Sololá	719	Santiago Atitlán	14	Cerro de Oro	5	Mayo	2023-07-05T00:00:00	2024-11-08T04:00:00	7	Dirección del viento	4.83
147439	7	Sololá	719	Santiago Atitlán	14	Cerro de Oro	5	Mayo	2023-07-05T00:00:00	2024-11-08T04:00:00	1	Precipitación	0
147440	7	Sololá	719	Santiago Atitlán	14	Cerro de Oro	5	Mayo	2023-07-05T00:00:00	2024-11-08T04:00:00	8	Radiación solar	0
147441	7	Sololá	719	Santiago Atitlán	14	Cerro de Oro	5	Mayo	2023-07-05T00:00:00	2024-11-08T05:00:00	2	Temperatura media	18.6
147442	7	Sololá	719	Santiago Atitlán	14	Cerro de Oro	5	Mayo	2023-07-05T00:00:00	2024-11-08T05:00:00	4	Temperatura máxima	19.3
147443	7	Sololá	719	Santiago Atitlán	14	Cerro de Oro	5	Mayo	2023-07-05T00:00:00	2024-11-08T05:00:00	3	Temperatura mínima	18.6
147444	7	Sololá	719	Santiago Atitlán	14	Cerro de Oro	5	Mayo	2023-07-05T00:00:00	2024-11-08T05:00:00	5	Humedad	56
147445	7	Sololá	719	Santiago Atitlán	14	Cerro de Oro	5	Mayo	2023-07-05T00:00:00	2024-11-08T05:00:00	6	Velocidad del viento	4.8
147446	7	Sololá	719	Santiago Atitlán	14	Cerro de Oro	5	Mayo	2023-07-05T00:00:00	2024-11-08T05:00:00	7	Dirección del viento	4.83
147447	7	Sololá	719	Santiago Atitlán	14	Cerro de Oro	5	Mayo	2023-07-05T00:00:00	2024-11-08T05:00:00	1	Precipitación	0
147448	7	Sololá	719	Santiago Atitlán	14	Cerro de Oro	5	Mayo	2023-07-05T00:00:00	2024-11-08T05:00:00	8	Radiación solar	0
147449	7	Sololá	719	Santiago Atitlán	14	Cerro de Oro	5	Mayo	2023-07-05T00:00:00	2024-11-08T06:00:00	2	Temperatura media	17.9
147450	7	Sololá	719	Santiago Atitlán	14	Cerro de Oro	5	Mayo	2023-07-05T00:00:00	2024-11-08T06:00:00	4	Temperatura máxima	18.8
147451	7	Sololá	719	Santiago Atitlán	14	Cerro de Oro	5	Mayo	2023-07-05T00:00:00	2024-11-08T06:00:00	3	Temperatura mínima	17.4
147452	7	Sololá	719	Santiago Atitlán	14	Cerro de Oro	5	Mayo	2023-07-05T00:00:00	2024-11-08T06:00:00	5	Humedad	57
147453	7	Sololá	719	Santiago Atitlán	14	Cerro de Oro	5	Mayo	2023-07-05T00:00:00	2024-11-08T06:00:00	6	Velocidad del viento	4.8
147454	7	Sololá	719	Santiago Atitlán	14	Cerro de Oro	5	Mayo	2023-07-05T00:00:00	2024-11-08T06:00:00	7	Dirección del viento	4.83
147455	7	Sololá	719	Santiago Atitlán	14	Cerro de Oro	5	Mayo	2023-07-05T00:00:00	2024-11-08T06:00:00	1	Precipitación	0
147456	7	Sololá	719	Santiago Atitlán	14	Cerro de Oro	5	Mayo	2023-07-05T00:00:00	2024-11-08T06:00:00	8	Radiación solar	0
147457	7	Sololá	719	Santiago Atitlán	14	Cerro de Oro	5	Mayo	2023-07-05T00:00:00	2024-11-08T07:00:00	2	Temperatura media	17.7
147458	7	Sololá	719	Santiago Atitlán	14	Cerro de Oro	5	Mayo	2023-07-05T00:00:00	2024-11-08T07:00:00	4	Temperatura máxima	18.2
147459	7	Sololá	719	Santiago Atitlán	14	Cerro de Oro	5	Mayo	2023-07-05T00:00:00	2024-11-08T07:00:00	3	Temperatura mínima	17.7
147460	7	Sololá	719	Santiago Atitlán	14	Cerro de Oro	5	Mayo	2023-07-05T00:00:00	2024-11-08T07:00:00	5	Humedad	58
147461	7	Sololá	719	Santiago Atitlán	14	Cerro de Oro	5	Mayo	2023-07-05T00:00:00	2024-11-08T07:00:00	6	Velocidad del viento	4.8
147462	7	Sololá	719	Santiago Atitlán	14	Cerro de Oro	5	Mayo	2023-07-05T00:00:00	2024-11-08T07:00:00	7	Dirección del viento	4.83
147463	7	Sololá	719	Santiago Atitlán	14	Cerro de Oro	5	Mayo	2023-07-05T00:00:00	2024-11-08T07:00:00	1	Precipitación	0
147464	7	Sololá	719	Santiago Atitlán	14	Cerro de Oro	5	Mayo	2023-07-05T00:00:00	2024-11-08T07:00:00	8	Radiación solar	4
147465	7	Sololá	719	Santiago Atitlán	14	Cerro de Oro	5	Mayo	2023-07-05T00:00:00	2024-11-08T08:00:00	2	Temperatura media	19.2
147466	7	Sololá	719	Santiago Atitlán	14	Cerro de Oro	5	Mayo	2023-07-05T00:00:00	2024-11-08T08:00:00	4	Temperatura máxima	19.2
147467	7	Sololá	719	Santiago Atitlán	14	Cerro de Oro	5	Mayo	2023-07-05T00:00:00	2024-11-08T08:00:00	3	Temperatura mínima	17.6
147468	7	Sololá	719	Santiago Atitlán	14	Cerro de Oro	5	Mayo	2023-07-05T00:00:00	2024-11-08T08:00:00	5	Humedad	57
147469	7	Sololá	719	Santiago Atitlán	14	Cerro de Oro	5	Mayo	2023-07-05T00:00:00	2024-11-08T08:00:00	6	Velocidad del viento	4.8
147470	7	Sololá	719	Santiago Atitlán	14	Cerro de Oro	5	Mayo	2023-07-05T00:00:00	2024-11-08T08:00:00	7	Dirección del viento	4.83
147471	7	Sololá	719	Santiago Atitlán	14	Cerro de Oro	5	Mayo	2023-07-05T00:00:00	2024-11-08T08:00:00	1	Precipitación	0
147472	7	Sololá	719	Santiago Atitlán	14	Cerro de Oro	5	Mayo	2023-07-05T00:00:00	2024-11-08T08:00:00	8	Radiación solar	74
147473	7	Sololá	719	Santiago Atitlán	14	Cerro de Oro	5	Mayo	2023-07-05T00:00:00	2024-11-08T09:00:00	2	Temperatura media	21.7
147474	7	Sololá	719	Santiago Atitlán	14	Cerro de Oro	5	Mayo	2023-07-05T00:00:00	2024-11-08T09:00:00	4	Temperatura máxima	21.7
147475	7	Sololá	719	Santiago Atitlán	14	Cerro de Oro	5	Mayo	2023-07-05T00:00:00	2024-11-08T09:00:00	3	Temperatura mínima	19.2
147476	7	Sololá	719	Santiago Atitlán	14	Cerro de Oro	5	Mayo	2023-07-05T00:00:00	2024-11-08T09:00:00	5	Humedad	53
147477	7	Sololá	719	Santiago Atitlán	14	Cerro de Oro	5	Mayo	2023-07-05T00:00:00	2024-11-08T09:00:00	6	Velocidad del viento	1.6
147478	7	Sololá	719	Santiago Atitlán	14	Cerro de Oro	5	Mayo	2023-07-05T00:00:00	2024-11-08T09:00:00	7	Dirección del viento	1.61
147479	7	Sololá	719	Santiago Atitlán	14	Cerro de Oro	5	Mayo	2023-07-05T00:00:00	2024-11-08T09:00:00	1	Precipitación	0
147480	7	Sololá	719	Santiago Atitlán	14	Cerro de Oro	5	Mayo	2023-07-05T00:00:00	2024-11-08T09:00:00	8	Radiación solar	265
147481	7	Sololá	719	Santiago Atitlán	14	Cerro de Oro	5	Mayo	2023-07-05T00:00:00	2024-11-08T10:00:00	2	Temperatura media	23.1
147482	7	Sololá	719	Santiago Atitlán	14	Cerro de Oro	5	Mayo	2023-07-05T00:00:00	2024-11-08T10:00:00	4	Temperatura máxima	23.8
147483	7	Sololá	719	Santiago Atitlán	14	Cerro de Oro	5	Mayo	2023-07-05T00:00:00	2024-11-08T10:00:00	3	Temperatura mínima	21.7
147484	7	Sololá	719	Santiago Atitlán	14	Cerro de Oro	5	Mayo	2023-07-05T00:00:00	2024-11-08T10:00:00	5	Humedad	51
147485	7	Sololá	719	Santiago Atitlán	14	Cerro de Oro	5	Mayo	2023-07-05T00:00:00	2024-11-08T10:00:00	6	Velocidad del viento	1.6
147486	7	Sololá	719	Santiago Atitlán	14	Cerro de Oro	5	Mayo	2023-07-05T00:00:00	2024-11-08T10:00:00	7	Dirección del viento	1.61
147487	7	Sololá	719	Santiago Atitlán	14	Cerro de Oro	5	Mayo	2023-07-05T00:00:00	2024-11-08T10:00:00	1	Precipitación	0
147488	7	Sololá	719	Santiago Atitlán	14	Cerro de Oro	5	Mayo	2023-07-05T00:00:00	2024-11-08T10:00:00	8	Radiación solar	506
147489	7	Sololá	719	Santiago Atitlán	14	Cerro de Oro	5	Mayo	2023-07-05T00:00:00	2024-11-08T11:00:00	2	Temperatura media	23.9
147490	7	Sololá	719	Santiago Atitlán	14	Cerro de Oro	5	Mayo	2023-07-05T00:00:00	2024-11-08T11:00:00	4	Temperatura máxima	23.9
147491	7	Sololá	719	Santiago Atitlán	14	Cerro de Oro	5	Mayo	2023-07-05T00:00:00	2024-11-08T11:00:00	3	Temperatura mínima	23.1
147492	7	Sololá	719	Santiago Atitlán	14	Cerro de Oro	5	Mayo	2023-07-05T00:00:00	2024-11-08T11:00:00	5	Humedad	56
147493	7	Sololá	719	Santiago Atitlán	14	Cerro de Oro	5	Mayo	2023-07-05T00:00:00	2024-11-08T11:00:00	6	Velocidad del viento	4.8
147494	7	Sololá	719	Santiago Atitlán	14	Cerro de Oro	5	Mayo	2023-07-05T00:00:00	2024-11-08T11:00:00	7	Dirección del viento	4.83
147495	7	Sololá	719	Santiago Atitlán	14	Cerro de Oro	5	Mayo	2023-07-05T00:00:00	2024-11-08T11:00:00	1	Precipitación	0
147496	7	Sololá	719	Santiago Atitlán	14	Cerro de Oro	5	Mayo	2023-07-05T00:00:00	2024-11-08T11:00:00	8	Radiación solar	714
147497	7	Sololá	719	Santiago Atitlán	14	Cerro de Oro	5	Mayo	2023-07-05T00:00:00	2024-11-08T12:00:00	2	Temperatura media	26.3
147498	7	Sololá	719	Santiago Atitlán	14	Cerro de Oro	5	Mayo	2023-07-05T00:00:00	2024-11-08T12:00:00	4	Temperatura máxima	26.6
147499	7	Sololá	719	Santiago Atitlán	14	Cerro de Oro	5	Mayo	2023-07-05T00:00:00	2024-11-08T12:00:00	3	Temperatura mínima	23.9
147500	7	Sololá	719	Santiago Atitlán	14	Cerro de Oro	5	Mayo	2023-07-05T00:00:00	2024-11-08T12:00:00	5	Humedad	46
147501	7	Sololá	719	Santiago Atitlán	14	Cerro de Oro	5	Mayo	2023-07-05T00:00:00	2024-11-08T12:00:00	6	Velocidad del viento	4.8
147502	7	Sololá	719	Santiago Atitlán	14	Cerro de Oro	5	Mayo	2023-07-05T00:00:00	2024-11-08T12:00:00	7	Dirección del viento	4.83
147503	7	Sololá	719	Santiago Atitlán	14	Cerro de Oro	5	Mayo	2023-07-05T00:00:00	2024-11-08T12:00:00	1	Precipitación	0
147504	7	Sololá	719	Santiago Atitlán	14	Cerro de Oro	5	Mayo	2023-07-05T00:00:00	2024-11-08T12:00:00	8	Radiación solar	862
147505	7	Sololá	719	Santiago Atitlán	14	Cerro de Oro	5	Mayo	2023-07-05T00:00:00	2024-11-08T13:00:00	2	Temperatura media	26.9
147506	7	Sololá	719	Santiago Atitlán	14	Cerro de Oro	5	Mayo	2023-07-05T00:00:00	2024-11-08T13:00:00	4	Temperatura máxima	28.3
147507	7	Sololá	719	Santiago Atitlán	14	Cerro de Oro	5	Mayo	2023-07-05T00:00:00	2024-11-08T13:00:00	3	Temperatura mínima	26.3
147508	7	Sololá	719	Santiago Atitlán	14	Cerro de Oro	5	Mayo	2023-07-05T00:00:00	2024-11-08T13:00:00	5	Humedad	58
147509	7	Sololá	719	Santiago Atitlán	14	Cerro de Oro	5	Mayo	2023-07-05T00:00:00	2024-11-08T13:00:00	6	Velocidad del viento	8
147510	7	Sololá	719	Santiago Atitlán	14	Cerro de Oro	5	Mayo	2023-07-05T00:00:00	2024-11-08T13:00:00	7	Dirección del viento	8.05
147511	7	Sololá	719	Santiago Atitlán	14	Cerro de Oro	5	Mayo	2023-07-05T00:00:00	2024-11-08T13:00:00	1	Precipitación	0
147512	7	Sololá	719	Santiago Atitlán	14	Cerro de Oro	5	Mayo	2023-07-05T00:00:00	2024-11-08T13:00:00	8	Radiación solar	926
147513	7	Sololá	719	Santiago Atitlán	14	Cerro de Oro	5	Mayo	2023-07-05T00:00:00	2024-11-08T14:00:00	2	Temperatura media	27.6
147514	7	Sololá	719	Santiago Atitlán	14	Cerro de Oro	5	Mayo	2023-07-05T00:00:00	2024-11-08T14:00:00	4	Temperatura máxima	27.8
147515	7	Sololá	719	Santiago Atitlán	14	Cerro de Oro	5	Mayo	2023-07-05T00:00:00	2024-11-08T14:00:00	3	Temperatura mínima	26.5
147516	7	Sololá	719	Santiago Atitlán	14	Cerro de Oro	5	Mayo	2023-07-05T00:00:00	2024-11-08T14:00:00	5	Humedad	56
147517	7	Sololá	719	Santiago Atitlán	14	Cerro de Oro	5	Mayo	2023-07-05T00:00:00	2024-11-08T14:00:00	6	Velocidad del viento	11.3
147518	7	Sololá	719	Santiago Atitlán	14	Cerro de Oro	5	Mayo	2023-07-05T00:00:00	2024-11-08T14:00:00	7	Dirección del viento	11.27
147519	7	Sololá	719	Santiago Atitlán	14	Cerro de Oro	5	Mayo	2023-07-05T00:00:00	2024-11-08T14:00:00	1	Precipitación	0
147520	7	Sololá	719	Santiago Atitlán	14	Cerro de Oro	5	Mayo	2023-07-05T00:00:00	2024-11-08T14:00:00	8	Radiación solar	917
147521	7	Sololá	719	Santiago Atitlán	14	Cerro de Oro	5	Mayo	2023-07-05T00:00:00	2024-11-08T15:00:00	2	Temperatura media	26.5
147522	7	Sololá	719	Santiago Atitlán	14	Cerro de Oro	5	Mayo	2023-07-05T00:00:00	2024-11-08T15:00:00	4	Temperatura máxima	27.6
147523	7	Sololá	719	Santiago Atitlán	14	Cerro de Oro	5	Mayo	2023-07-05T00:00:00	2024-11-08T15:00:00	3	Temperatura mínima	26.4
147524	7	Sololá	719	Santiago Atitlán	14	Cerro de Oro	5	Mayo	2023-07-05T00:00:00	2024-11-08T15:00:00	5	Humedad	63
147525	7	Sololá	719	Santiago Atitlán	14	Cerro de Oro	5	Mayo	2023-07-05T00:00:00	2024-11-08T15:00:00	6	Velocidad del viento	14.5
147526	7	Sololá	719	Santiago Atitlán	14	Cerro de Oro	5	Mayo	2023-07-05T00:00:00	2024-11-08T15:00:00	7	Dirección del viento	14.48
147527	7	Sololá	719	Santiago Atitlán	14	Cerro de Oro	5	Mayo	2023-07-05T00:00:00	2024-11-08T15:00:00	1	Precipitación	0
147528	7	Sololá	719	Santiago Atitlán	14	Cerro de Oro	5	Mayo	2023-07-05T00:00:00	2024-11-08T15:00:00	8	Radiación solar	860
147529	7	Sololá	719	Santiago Atitlán	14	Cerro de Oro	5	Mayo	2023-07-05T00:00:00	2024-11-08T16:00:00	2	Temperatura media	26.3
147530	7	Sololá	719	Santiago Atitlán	14	Cerro de Oro	5	Mayo	2023-07-05T00:00:00	2024-11-08T16:00:00	4	Temperatura máxima	26.9
147531	7	Sololá	719	Santiago Atitlán	14	Cerro de Oro	5	Mayo	2023-07-05T00:00:00	2024-11-08T16:00:00	3	Temperatura mínima	25.8
147532	7	Sololá	719	Santiago Atitlán	14	Cerro de Oro	5	Mayo	2023-07-05T00:00:00	2024-11-08T16:00:00	5	Humedad	63
147533	7	Sololá	719	Santiago Atitlán	14	Cerro de Oro	5	Mayo	2023-07-05T00:00:00	2024-11-08T16:00:00	6	Velocidad del viento	16.1
147534	7	Sololá	719	Santiago Atitlán	14	Cerro de Oro	5	Mayo	2023-07-05T00:00:00	2024-11-08T16:00:00	7	Dirección del viento	16.09
147535	7	Sololá	719	Santiago Atitlán	14	Cerro de Oro	5	Mayo	2023-07-05T00:00:00	2024-11-08T16:00:00	1	Precipitación	0
147536	7	Sololá	719	Santiago Atitlán	14	Cerro de Oro	5	Mayo	2023-07-05T00:00:00	2024-11-08T16:00:00	8	Radiación solar	733
147537	7	Sololá	719	Santiago Atitlán	14	Cerro de Oro	5	Mayo	2023-07-05T00:00:00	2024-11-08T17:00:00	2	Temperatura media	25.6
147538	7	Sololá	719	Santiago Atitlán	14	Cerro de Oro	5	Mayo	2023-07-05T00:00:00	2024-11-08T17:00:00	4	Temperatura máxima	26.3
147539	7	Sololá	719	Santiago Atitlán	14	Cerro de Oro	5	Mayo	2023-07-05T00:00:00	2024-11-08T17:00:00	3	Temperatura mínima	25.2
147540	7	Sololá	719	Santiago Atitlán	14	Cerro de Oro	5	Mayo	2023-07-05T00:00:00	2024-11-08T17:00:00	5	Humedad	66
147541	7	Sololá	719	Santiago Atitlán	14	Cerro de Oro	5	Mayo	2023-07-05T00:00:00	2024-11-08T17:00:00	6	Velocidad del viento	16.1
147542	7	Sololá	719	Santiago Atitlán	14	Cerro de Oro	5	Mayo	2023-07-05T00:00:00	2024-11-08T17:00:00	7	Dirección del viento	16.09
147543	7	Sololá	719	Santiago Atitlán	14	Cerro de Oro	5	Mayo	2023-07-05T00:00:00	2024-11-08T17:00:00	1	Precipitación	0
147544	7	Sololá	719	Santiago Atitlán	14	Cerro de Oro	5	Mayo	2023-07-05T00:00:00	2024-11-08T17:00:00	8	Radiación solar	554
147545	7	Sololá	719	Santiago Atitlán	14	Cerro de Oro	5	Mayo	2023-07-05T00:00:00	2024-11-08T18:00:00	2	Temperatura media	24.8
147546	7	Sololá	719	Santiago Atitlán	14	Cerro de Oro	5	Mayo	2023-07-05T00:00:00	2024-11-08T18:00:00	4	Temperatura máxima	25.7
147547	7	Sololá	719	Santiago Atitlán	14	Cerro de Oro	5	Mayo	2023-07-05T00:00:00	2024-11-08T18:00:00	3	Temperatura mínima	24.7
147548	7	Sololá	719	Santiago Atitlán	14	Cerro de Oro	5	Mayo	2023-07-05T00:00:00	2024-11-08T18:00:00	5	Humedad	68
147549	7	Sololá	719	Santiago Atitlán	14	Cerro de Oro	5	Mayo	2023-07-05T00:00:00	2024-11-08T18:00:00	6	Velocidad del viento	11.3
147550	7	Sololá	719	Santiago Atitlán	14	Cerro de Oro	5	Mayo	2023-07-05T00:00:00	2024-11-08T18:00:00	7	Dirección del viento	11.27
147551	7	Sololá	719	Santiago Atitlán	14	Cerro de Oro	5	Mayo	2023-07-05T00:00:00	2024-11-08T18:00:00	1	Precipitación	0
147552	7	Sololá	719	Santiago Atitlán	14	Cerro de Oro	5	Mayo	2023-07-05T00:00:00	2024-11-08T18:00:00	8	Radiación solar	324
147553	7	Sololá	719	Santiago Atitlán	14	Cerro de Oro	5	Mayo	2023-07-05T00:00:00	2024-11-08T19:00:00	2	Temperatura media	23.7
147554	7	Sololá	719	Santiago Atitlán	14	Cerro de Oro	5	Mayo	2023-07-05T00:00:00	2024-11-08T19:00:00	4	Temperatura máxima	25
147555	7	Sololá	719	Santiago Atitlán	14	Cerro de Oro	5	Mayo	2023-07-05T00:00:00	2024-11-08T19:00:00	3	Temperatura mínima	23.7
147556	7	Sololá	719	Santiago Atitlán	14	Cerro de Oro	5	Mayo	2023-07-05T00:00:00	2024-11-08T19:00:00	5	Humedad	75
147557	7	Sololá	719	Santiago Atitlán	14	Cerro de Oro	5	Mayo	2023-07-05T00:00:00	2024-11-08T19:00:00	6	Velocidad del viento	3.2
147558	7	Sololá	719	Santiago Atitlán	14	Cerro de Oro	5	Mayo	2023-07-05T00:00:00	2024-11-08T19:00:00	7	Dirección del viento	3.22
147559	7	Sololá	719	Santiago Atitlán	14	Cerro de Oro	5	Mayo	2023-07-05T00:00:00	2024-11-08T19:00:00	1	Precipitación	0
147560	7	Sololá	719	Santiago Atitlán	14	Cerro de Oro	5	Mayo	2023-07-05T00:00:00	2024-11-08T19:00:00	8	Radiación solar	0
147561	7	Sololá	719	Santiago Atitlán	14	Cerro de Oro	5	Mayo	2023-07-05T00:00:00	2024-11-08T20:00:00	2	Temperatura media	21.3
147562	7	Sololá	719	Santiago Atitlán	14	Cerro de Oro	5	Mayo	2023-07-05T00:00:00	2024-11-08T20:00:00	4	Temperatura máxima	23.7
147563	7	Sololá	719	Santiago Atitlán	14	Cerro de Oro	5	Mayo	2023-07-05T00:00:00	2024-11-08T20:00:00	3	Temperatura mínima	21.3
147564	7	Sololá	719	Santiago Atitlán	14	Cerro de Oro	5	Mayo	2023-07-05T00:00:00	2024-11-08T20:00:00	5	Humedad	81
147565	7	Sololá	719	Santiago Atitlán	14	Cerro de Oro	5	Mayo	2023-07-05T00:00:00	2024-11-08T20:00:00	6	Velocidad del viento	4.8
147566	7	Sololá	719	Santiago Atitlán	14	Cerro de Oro	5	Mayo	2023-07-05T00:00:00	2024-11-08T20:00:00	7	Dirección del viento	4.83
147567	7	Sololá	719	Santiago Atitlán	14	Cerro de Oro	5	Mayo	2023-07-05T00:00:00	2024-11-08T20:00:00	1	Precipitación	0
147568	7	Sololá	719	Santiago Atitlán	14	Cerro de Oro	5	Mayo	2023-07-05T00:00:00	2024-11-08T20:00:00	8	Radiación solar	0
147569	7	Sololá	719	Santiago Atitlán	14	Cerro de Oro	5	Mayo	2023-07-05T00:00:00	2024-11-08T21:00:00	2	Temperatura media	21.1
147570	7	Sololá	719	Santiago Atitlán	14	Cerro de Oro	5	Mayo	2023-07-05T00:00:00	2024-11-08T21:00:00	4	Temperatura máxima	21.4
147571	7	Sololá	719	Santiago Atitlán	14	Cerro de Oro	5	Mayo	2023-07-05T00:00:00	2024-11-08T21:00:00	3	Temperatura mínima	21.1
147572	7	Sololá	719	Santiago Atitlán	14	Cerro de Oro	5	Mayo	2023-07-05T00:00:00	2024-11-08T21:00:00	5	Humedad	82
147573	7	Sololá	719	Santiago Atitlán	14	Cerro de Oro	5	Mayo	2023-07-05T00:00:00	2024-11-08T21:00:00	6	Velocidad del viento	3.2
147574	7	Sololá	719	Santiago Atitlán	14	Cerro de Oro	5	Mayo	2023-07-05T00:00:00	2024-11-08T21:00:00	7	Dirección del viento	3.22
147575	7	Sololá	719	Santiago Atitlán	14	Cerro de Oro	5	Mayo	2023-07-05T00:00:00	2024-11-08T21:00:00	1	Precipitación	0
147576	7	Sololá	719	Santiago Atitlán	14	Cerro de Oro	5	Mayo	2023-07-05T00:00:00	2024-11-08T21:00:00	8	Radiación solar	0
147577	7	Sololá	719	Santiago Atitlán	14	Cerro de Oro	5	Mayo	2023-07-05T00:00:00	2024-11-08T22:00:00	2	Temperatura media	20.9
147578	7	Sololá	719	Santiago Atitlán	14	Cerro de Oro	5	Mayo	2023-07-05T00:00:00	2024-11-08T22:00:00	4	Temperatura máxima	21.3
147579	7	Sololá	719	Santiago Atitlán	14	Cerro de Oro	5	Mayo	2023-07-05T00:00:00	2024-11-08T22:00:00	3	Temperatura mínima	20.8
147580	7	Sololá	719	Santiago Atitlán	14	Cerro de Oro	5	Mayo	2023-07-05T00:00:00	2024-11-08T22:00:00	5	Humedad	74
147581	7	Sololá	719	Santiago Atitlán	14	Cerro de Oro	5	Mayo	2023-07-05T00:00:00	2024-11-08T22:00:00	6	Velocidad del viento	4.8
147582	7	Sololá	719	Santiago Atitlán	14	Cerro de Oro	5	Mayo	2023-07-05T00:00:00	2024-11-08T22:00:00	7	Dirección del viento	4.83
147583	7	Sololá	719	Santiago Atitlán	14	Cerro de Oro	5	Mayo	2023-07-05T00:00:00	2024-11-08T22:00:00	1	Precipitación	0
147584	7	Sololá	719	Santiago Atitlán	14	Cerro de Oro	5	Mayo	2023-07-05T00:00:00	2024-11-08T22:00:00	8	Radiación solar	0
147585	7	Sololá	719	Santiago Atitlán	14	Cerro de Oro	5	Mayo	2023-07-05T00:00:00	2024-11-08T23:00:00	2	Temperatura media	21
147586	7	Sololá	719	Santiago Atitlán	14	Cerro de Oro	5	Mayo	2023-07-05T00:00:00	2024-11-08T23:00:00	4	Temperatura máxima	21.3
147587	7	Sololá	719	Santiago Atitlán	14	Cerro de Oro	5	Mayo	2023-07-05T00:00:00	2024-11-08T23:00:00	3	Temperatura mínima	20.9
147588	7	Sololá	719	Santiago Atitlán	14	Cerro de Oro	5	Mayo	2023-07-05T00:00:00	2024-11-08T23:00:00	5	Humedad	71
147589	7	Sololá	719	Santiago Atitlán	14	Cerro de Oro	5	Mayo	2023-07-05T00:00:00	2024-11-08T23:00:00	6	Velocidad del viento	4.8
147590	7	Sololá	719	Santiago Atitlán	14	Cerro de Oro	5	Mayo	2023-07-05T00:00:00	2024-11-08T23:00:00	7	Dirección del viento	4.83
147591	7	Sololá	719	Santiago Atitlán	14	Cerro de Oro	5	Mayo	2023-07-05T00:00:00	2024-11-08T23:00:00	1	Precipitación	0
147592	7	Sololá	719	Santiago Atitlán	14	Cerro de Oro	5	Mayo	2023-07-05T00:00:00	2024-11-08T23:00:00	8	Radiación solar	0
147593	7	Sololá	719	Santiago Atitlán	14	Cerro de Oro	5	Mayo	2023-08-05T00:00:00	2024-11-08T00:00:00	2	Temperatura media	20.6
147594	7	Sololá	719	Santiago Atitlán	14	Cerro de Oro	5	Mayo	2023-08-05T00:00:00	2024-11-08T00:00:00	4	Temperatura máxima	21
147595	7	Sololá	719	Santiago Atitlán	14	Cerro de Oro	5	Mayo	2023-08-05T00:00:00	2024-11-08T00:00:00	3	Temperatura mínima	20.5
147596	7	Sololá	719	Santiago Atitlán	14	Cerro de Oro	5	Mayo	2023-08-05T00:00:00	2024-11-08T00:00:00	5	Humedad	70
147597	7	Sololá	719	Santiago Atitlán	14	Cerro de Oro	5	Mayo	2023-08-05T00:00:00	2024-11-08T00:00:00	6	Velocidad del viento	3.2
147598	7	Sololá	719	Santiago Atitlán	14	Cerro de Oro	5	Mayo	2023-08-05T00:00:00	2024-11-08T00:00:00	7	Dirección del viento	3.22
147599	7	Sololá	719	Santiago Atitlán	14	Cerro de Oro	5	Mayo	2023-08-05T00:00:00	2024-11-08T00:00:00	1	Precipitación	0
147600	7	Sololá	719	Santiago Atitlán	14	Cerro de Oro	5	Mayo	2023-08-05T00:00:00	2024-11-08T00:00:00	8	Radiación solar	0
147601	7	Sololá	719	Santiago Atitlán	14	Cerro de Oro	5	Mayo	2023-08-05T00:00:00	2024-11-08T01:00:00	2	Temperatura media	19.8
147602	7	Sololá	719	Santiago Atitlán	14	Cerro de Oro	5	Mayo	2023-08-05T00:00:00	2024-11-08T01:00:00	4	Temperatura máxima	20.7
147603	7	Sololá	719	Santiago Atitlán	14	Cerro de Oro	5	Mayo	2023-08-05T00:00:00	2024-11-08T01:00:00	3	Temperatura mínima	19.6
147604	7	Sololá	719	Santiago Atitlán	14	Cerro de Oro	5	Mayo	2023-08-05T00:00:00	2024-11-08T01:00:00	5	Humedad	71
147605	7	Sololá	719	Santiago Atitlán	14	Cerro de Oro	5	Mayo	2023-08-05T00:00:00	2024-11-08T01:00:00	6	Velocidad del viento	3.2
147606	7	Sololá	719	Santiago Atitlán	14	Cerro de Oro	5	Mayo	2023-08-05T00:00:00	2024-11-08T01:00:00	7	Dirección del viento	3.22
147607	7	Sololá	719	Santiago Atitlán	14	Cerro de Oro	5	Mayo	2023-08-05T00:00:00	2024-11-08T01:00:00	1	Precipitación	0
147608	7	Sololá	719	Santiago Atitlán	14	Cerro de Oro	5	Mayo	2023-08-05T00:00:00	2024-11-08T01:00:00	8	Radiación solar	0
147609	7	Sololá	719	Santiago Atitlán	14	Cerro de Oro	5	Mayo	2023-08-05T00:00:00	2024-11-08T02:00:00	2	Temperatura media	19.4
147610	7	Sololá	719	Santiago Atitlán	14	Cerro de Oro	5	Mayo	2023-08-05T00:00:00	2024-11-08T02:00:00	4	Temperatura máxima	20.5
147611	7	Sololá	719	Santiago Atitlán	14	Cerro de Oro	5	Mayo	2023-08-05T00:00:00	2024-11-08T02:00:00	3	Temperatura mínima	19.2
147612	7	Sololá	719	Santiago Atitlán	14	Cerro de Oro	5	Mayo	2023-08-05T00:00:00	2024-11-08T02:00:00	5	Humedad	71
147613	7	Sololá	719	Santiago Atitlán	14	Cerro de Oro	5	Mayo	2023-08-05T00:00:00	2024-11-08T02:00:00	6	Velocidad del viento	4.8
147614	7	Sololá	719	Santiago Atitlán	14	Cerro de Oro	5	Mayo	2023-08-05T00:00:00	2024-11-08T02:00:00	7	Dirección del viento	4.83
147615	7	Sololá	719	Santiago Atitlán	14	Cerro de Oro	5	Mayo	2023-08-05T00:00:00	2024-11-08T02:00:00	1	Precipitación	0
147616	7	Sololá	719	Santiago Atitlán	14	Cerro de Oro	5	Mayo	2023-08-05T00:00:00	2024-11-08T02:00:00	8	Radiación solar	0
147617	7	Sololá	719	Santiago Atitlán	14	Cerro de Oro	5	Mayo	2023-08-05T00:00:00	2024-11-08T03:00:00	2	Temperatura media	18.7
147618	7	Sololá	719	Santiago Atitlán	14	Cerro de Oro	5	Mayo	2023-08-05T00:00:00	2024-11-08T03:00:00	4	Temperatura máxima	19.7
147619	7	Sololá	719	Santiago Atitlán	14	Cerro de Oro	5	Mayo	2023-08-05T00:00:00	2024-11-08T03:00:00	3	Temperatura mínima	18.7
147620	7	Sololá	719	Santiago Atitlán	14	Cerro de Oro	5	Mayo	2023-08-05T00:00:00	2024-11-08T03:00:00	5	Humedad	73
147621	7	Sololá	719	Santiago Atitlán	14	Cerro de Oro	5	Mayo	2023-08-05T00:00:00	2024-11-08T03:00:00	6	Velocidad del viento	3.2
147622	7	Sololá	719	Santiago Atitlán	14	Cerro de Oro	5	Mayo	2023-08-05T00:00:00	2024-11-08T03:00:00	7	Dirección del viento	3.22
147623	7	Sololá	719	Santiago Atitlán	14	Cerro de Oro	5	Mayo	2023-08-05T00:00:00	2024-11-08T03:00:00	1	Precipitación	0
147624	7	Sololá	719	Santiago Atitlán	14	Cerro de Oro	5	Mayo	2023-08-05T00:00:00	2024-11-08T03:00:00	8	Radiación solar	0
147625	7	Sololá	719	Santiago Atitlán	14	Cerro de Oro	5	Mayo	2023-08-05T00:00:00	2024-11-08T04:00:00	2	Temperatura media	18.2
147626	7	Sololá	719	Santiago Atitlán	14	Cerro de Oro	5	Mayo	2023-08-05T00:00:00	2024-11-08T04:00:00	4	Temperatura máxima	18.9
147627	7	Sololá	719	Santiago Atitlán	14	Cerro de Oro	5	Mayo	2023-08-05T00:00:00	2024-11-08T04:00:00	3	Temperatura mínima	18.1
147628	7	Sololá	719	Santiago Atitlán	14	Cerro de Oro	5	Mayo	2023-08-05T00:00:00	2024-11-08T04:00:00	5	Humedad	74
147629	7	Sololá	719	Santiago Atitlán	14	Cerro de Oro	5	Mayo	2023-08-05T00:00:00	2024-11-08T04:00:00	6	Velocidad del viento	3.2
147630	7	Sololá	719	Santiago Atitlán	14	Cerro de Oro	5	Mayo	2023-08-05T00:00:00	2024-11-08T04:00:00	7	Dirección del viento	3.22
147631	7	Sololá	719	Santiago Atitlán	14	Cerro de Oro	5	Mayo	2023-08-05T00:00:00	2024-11-08T04:00:00	1	Precipitación	0
147632	7	Sololá	719	Santiago Atitlán	14	Cerro de Oro	5	Mayo	2023-08-05T00:00:00	2024-11-08T04:00:00	8	Radiación solar	0
147633	7	Sololá	719	Santiago Atitlán	14	Cerro de Oro	5	Mayo	2023-08-05T00:00:00	2024-11-08T05:00:00	2	Temperatura media	17.6
147634	7	Sololá	719	Santiago Atitlán	14	Cerro de Oro	5	Mayo	2023-08-05T00:00:00	2024-11-08T05:00:00	4	Temperatura máxima	18.2
147635	7	Sololá	719	Santiago Atitlán	14	Cerro de Oro	5	Mayo	2023-08-05T00:00:00	2024-11-08T05:00:00	3	Temperatura mínima	17.6
147636	7	Sololá	719	Santiago Atitlán	14	Cerro de Oro	5	Mayo	2023-08-05T00:00:00	2024-11-08T05:00:00	5	Humedad	70
147637	7	Sololá	719	Santiago Atitlán	14	Cerro de Oro	5	Mayo	2023-08-05T00:00:00	2024-11-08T05:00:00	6	Velocidad del viento	3.2
147638	7	Sololá	719	Santiago Atitlán	14	Cerro de Oro	5	Mayo	2023-08-05T00:00:00	2024-11-08T05:00:00	7	Dirección del viento	3.22
147639	7	Sololá	719	Santiago Atitlán	14	Cerro de Oro	5	Mayo	2023-08-05T00:00:00	2024-11-08T05:00:00	1	Precipitación	0
147640	7	Sololá	719	Santiago Atitlán	14	Cerro de Oro	5	Mayo	2023-08-05T00:00:00	2024-11-08T05:00:00	8	Radiación solar	0
147641	7	Sololá	719	Santiago Atitlán	14	Cerro de Oro	5	Mayo	2023-08-05T00:00:00	2024-11-08T06:00:00	2	Temperatura media	17.9
147642	7	Sololá	719	Santiago Atitlán	14	Cerro de Oro	5	Mayo	2023-08-05T00:00:00	2024-11-08T06:00:00	4	Temperatura máxima	18.2
147643	7	Sololá	719	Santiago Atitlán	14	Cerro de Oro	5	Mayo	2023-08-05T00:00:00	2024-11-08T06:00:00	3	Temperatura mínima	17.6
147644	7	Sololá	719	Santiago Atitlán	14	Cerro de Oro	5	Mayo	2023-08-05T00:00:00	2024-11-08T06:00:00	5	Humedad	66
147645	7	Sololá	719	Santiago Atitlán	14	Cerro de Oro	5	Mayo	2023-08-05T00:00:00	2024-11-08T06:00:00	6	Velocidad del viento	3.2
147646	7	Sololá	719	Santiago Atitlán	14	Cerro de Oro	5	Mayo	2023-08-05T00:00:00	2024-11-08T06:00:00	7	Dirección del viento	3.22
147647	7	Sololá	719	Santiago Atitlán	14	Cerro de Oro	5	Mayo	2023-08-05T00:00:00	2024-11-08T06:00:00	1	Precipitación	0
147648	7	Sololá	719	Santiago Atitlán	14	Cerro de Oro	5	Mayo	2023-08-05T00:00:00	2024-11-08T06:00:00	8	Radiación solar	0
147649	7	Sololá	719	Santiago Atitlán	14	Cerro de Oro	5	Mayo	2023-08-05T00:00:00	2024-11-08T07:00:00	2	Temperatura media	17.5
147650	7	Sololá	719	Santiago Atitlán	14	Cerro de Oro	5	Mayo	2023-08-05T00:00:00	2024-11-08T07:00:00	4	Temperatura máxima	18.1
147651	7	Sololá	719	Santiago Atitlán	14	Cerro de Oro	5	Mayo	2023-08-05T00:00:00	2024-11-08T07:00:00	3	Temperatura mínima	17.4
147652	7	Sololá	719	Santiago Atitlán	14	Cerro de Oro	5	Mayo	2023-08-05T00:00:00	2024-11-08T07:00:00	5	Humedad	67
147653	7	Sololá	719	Santiago Atitlán	14	Cerro de Oro	5	Mayo	2023-08-05T00:00:00	2024-11-08T07:00:00	6	Velocidad del viento	4.8
147654	7	Sololá	719	Santiago Atitlán	14	Cerro de Oro	5	Mayo	2023-08-05T00:00:00	2024-11-08T07:00:00	7	Dirección del viento	4.83
147655	7	Sololá	719	Santiago Atitlán	14	Cerro de Oro	5	Mayo	2023-08-05T00:00:00	2024-11-08T07:00:00	1	Precipitación	0
147656	7	Sololá	719	Santiago Atitlán	14	Cerro de Oro	5	Mayo	2023-08-05T00:00:00	2024-11-08T07:00:00	8	Radiación solar	9
147657	7	Sololá	719	Santiago Atitlán	14	Cerro de Oro	5	Mayo	2023-08-05T00:00:00	2024-11-08T08:00:00	2	Temperatura media	19.3
147658	7	Sololá	719	Santiago Atitlán	14	Cerro de Oro	5	Mayo	2023-08-05T00:00:00	2024-11-08T08:00:00	4	Temperatura máxima	19.3
147659	7	Sololá	719	Santiago Atitlán	14	Cerro de Oro	5	Mayo	2023-08-05T00:00:00	2024-11-08T08:00:00	3	Temperatura mínima	17.4
147660	7	Sololá	719	Santiago Atitlán	14	Cerro de Oro	5	Mayo	2023-08-05T00:00:00	2024-11-08T08:00:00	5	Humedad	60
147661	7	Sololá	719	Santiago Atitlán	14	Cerro de Oro	5	Mayo	2023-08-05T00:00:00	2024-11-08T08:00:00	6	Velocidad del viento	4.8
147662	7	Sololá	719	Santiago Atitlán	14	Cerro de Oro	5	Mayo	2023-08-05T00:00:00	2024-11-08T08:00:00	7	Dirección del viento	4.83
147663	7	Sololá	719	Santiago Atitlán	14	Cerro de Oro	5	Mayo	2023-08-05T00:00:00	2024-11-08T08:00:00	1	Precipitación	0
147664	7	Sololá	719	Santiago Atitlán	14	Cerro de Oro	5	Mayo	2023-08-05T00:00:00	2024-11-08T08:00:00	8	Radiación solar	95
147665	7	Sololá	719	Santiago Atitlán	14	Cerro de Oro	5	Mayo	2023-08-05T00:00:00	2024-11-08T09:00:00	2	Temperatura media	21.5
147666	7	Sololá	719	Santiago Atitlán	14	Cerro de Oro	5	Mayo	2023-08-05T00:00:00	2024-11-08T09:00:00	4	Temperatura máxima	21.6
147667	7	Sololá	719	Santiago Atitlán	14	Cerro de Oro	5	Mayo	2023-08-05T00:00:00	2024-11-08T09:00:00	3	Temperatura mínima	19.3
147668	7	Sololá	719	Santiago Atitlán	14	Cerro de Oro	5	Mayo	2023-08-05T00:00:00	2024-11-08T09:00:00	5	Humedad	58
147669	7	Sololá	719	Santiago Atitlán	14	Cerro de Oro	5	Mayo	2023-08-05T00:00:00	2024-11-08T09:00:00	6	Velocidad del viento	1.6
147670	7	Sololá	719	Santiago Atitlán	14	Cerro de Oro	5	Mayo	2023-08-05T00:00:00	2024-11-08T09:00:00	7	Dirección del viento	1.61
147671	7	Sololá	719	Santiago Atitlán	14	Cerro de Oro	5	Mayo	2023-08-05T00:00:00	2024-11-08T09:00:00	1	Precipitación	0
147672	7	Sololá	719	Santiago Atitlán	14	Cerro de Oro	5	Mayo	2023-08-05T00:00:00	2024-11-08T09:00:00	8	Radiación solar	324
147673	7	Sololá	719	Santiago Atitlán	14	Cerro de Oro	5	Mayo	2023-08-05T00:00:00	2024-11-08T10:00:00	2	Temperatura media	21.5
147674	7	Sololá	719	Santiago Atitlán	14	Cerro de Oro	5	Mayo	2023-08-05T00:00:00	2024-11-08T10:00:00	4	Temperatura máxima	21.8
147675	7	Sololá	719	Santiago Atitlán	14	Cerro de Oro	5	Mayo	2023-08-05T00:00:00	2024-11-08T10:00:00	3	Temperatura mínima	21.3
147676	7	Sololá	719	Santiago Atitlán	14	Cerro de Oro	5	Mayo	2023-08-05T00:00:00	2024-11-08T10:00:00	5	Humedad	62
147677	7	Sololá	719	Santiago Atitlán	14	Cerro de Oro	5	Mayo	2023-08-05T00:00:00	2024-11-08T10:00:00	6	Velocidad del viento	4.8
147678	7	Sololá	719	Santiago Atitlán	14	Cerro de Oro	5	Mayo	2023-08-05T00:00:00	2024-11-08T10:00:00	7	Dirección del viento	4.83
147679	7	Sololá	719	Santiago Atitlán	14	Cerro de Oro	5	Mayo	2023-08-05T00:00:00	2024-11-08T10:00:00	1	Precipitación	0
147680	7	Sololá	719	Santiago Atitlán	14	Cerro de Oro	5	Mayo	2023-08-05T00:00:00	2024-11-08T10:00:00	8	Radiación solar	516
147681	7	Sololá	719	Santiago Atitlán	14	Cerro de Oro	5	Mayo	2023-08-05T00:00:00	2024-11-08T11:00:00	2	Temperatura media	22.9
147682	7	Sololá	719	Santiago Atitlán	14	Cerro de Oro	5	Mayo	2023-08-05T00:00:00	2024-11-08T11:00:00	4	Temperatura máxima	22.9
147683	7	Sololá	719	Santiago Atitlán	14	Cerro de Oro	5	Mayo	2023-08-05T00:00:00	2024-11-08T11:00:00	3	Temperatura mínima	21.4
147684	7	Sololá	719	Santiago Atitlán	14	Cerro de Oro	5	Mayo	2023-08-05T00:00:00	2024-11-08T11:00:00	5	Humedad	59
147685	7	Sololá	719	Santiago Atitlán	14	Cerro de Oro	5	Mayo	2023-08-05T00:00:00	2024-11-08T11:00:00	6	Velocidad del viento	4.8
147686	7	Sololá	719	Santiago Atitlán	14	Cerro de Oro	5	Mayo	2023-08-05T00:00:00	2024-11-08T11:00:00	7	Dirección del viento	4.83
147687	7	Sololá	719	Santiago Atitlán	14	Cerro de Oro	5	Mayo	2023-08-05T00:00:00	2024-11-08T11:00:00	1	Precipitación	0
147688	7	Sololá	719	Santiago Atitlán	14	Cerro de Oro	5	Mayo	2023-08-05T00:00:00	2024-11-08T11:00:00	8	Radiación solar	703
147689	7	Sololá	719	Santiago Atitlán	14	Cerro de Oro	5	Mayo	2023-08-05T00:00:00	2024-11-08T12:00:00	2	Temperatura media	24.6
147690	7	Sololá	719	Santiago Atitlán	14	Cerro de Oro	5	Mayo	2023-08-05T00:00:00	2024-11-08T12:00:00	4	Temperatura máxima	25.4
147691	7	Sololá	719	Santiago Atitlán	14	Cerro de Oro	5	Mayo	2023-08-05T00:00:00	2024-11-08T12:00:00	3	Temperatura mínima	22.9
147692	7	Sololá	719	Santiago Atitlán	14	Cerro de Oro	5	Mayo	2023-08-05T00:00:00	2024-11-08T12:00:00	5	Humedad	55
147693	7	Sololá	719	Santiago Atitlán	14	Cerro de Oro	5	Mayo	2023-08-05T00:00:00	2024-11-08T12:00:00	6	Velocidad del viento	4.8
147694	7	Sololá	719	Santiago Atitlán	14	Cerro de Oro	5	Mayo	2023-08-05T00:00:00	2024-11-08T12:00:00	7	Dirección del viento	4.83
147695	7	Sololá	719	Santiago Atitlán	14	Cerro de Oro	5	Mayo	2023-08-05T00:00:00	2024-11-08T12:00:00	1	Precipitación	0
147696	7	Sololá	719	Santiago Atitlán	14	Cerro de Oro	5	Mayo	2023-08-05T00:00:00	2024-11-08T12:00:00	8	Radiación solar	827
147697	7	Sololá	719	Santiago Atitlán	14	Cerro de Oro	5	Mayo	2023-08-05T00:00:00	2024-11-08T13:00:00	2	Temperatura media	25.4
147698	7	Sololá	719	Santiago Atitlán	14	Cerro de Oro	5	Mayo	2023-08-05T00:00:00	2024-11-08T13:00:00	4	Temperatura máxima	26
147699	7	Sololá	719	Santiago Atitlán	14	Cerro de Oro	5	Mayo	2023-08-05T00:00:00	2024-11-08T13:00:00	3	Temperatura mínima	24.6
147700	7	Sololá	719	Santiago Atitlán	14	Cerro de Oro	5	Mayo	2023-08-05T00:00:00	2024-11-08T13:00:00	5	Humedad	66
147701	7	Sololá	719	Santiago Atitlán	14	Cerro de Oro	5	Mayo	2023-08-05T00:00:00	2024-11-08T13:00:00	6	Velocidad del viento	8
147702	7	Sololá	719	Santiago Atitlán	14	Cerro de Oro	5	Mayo	2023-08-05T00:00:00	2024-11-08T13:00:00	7	Dirección del viento	8.05
147703	7	Sololá	719	Santiago Atitlán	14	Cerro de Oro	5	Mayo	2023-08-05T00:00:00	2024-11-08T13:00:00	1	Precipitación	0
147704	7	Sololá	719	Santiago Atitlán	14	Cerro de Oro	5	Mayo	2023-08-05T00:00:00	2024-11-08T13:00:00	8	Radiación solar	887
147705	7	Sololá	719	Santiago Atitlán	14	Cerro de Oro	5	Mayo	2023-08-05T00:00:00	2024-11-08T14:00:00	2	Temperatura media	26.4
147706	7	Sololá	719	Santiago Atitlán	14	Cerro de Oro	5	Mayo	2023-08-05T00:00:00	2024-11-08T14:00:00	4	Temperatura máxima	26.4
147707	7	Sololá	719	Santiago Atitlán	14	Cerro de Oro	5	Mayo	2023-08-05T00:00:00	2024-11-08T14:00:00	3	Temperatura mínima	25.3
147708	7	Sololá	719	Santiago Atitlán	14	Cerro de Oro	5	Mayo	2023-08-05T00:00:00	2024-11-08T14:00:00	5	Humedad	57
147709	7	Sololá	719	Santiago Atitlán	14	Cerro de Oro	5	Mayo	2023-08-05T00:00:00	2024-11-08T14:00:00	6	Velocidad del viento	9.7
147710	7	Sololá	719	Santiago Atitlán	14	Cerro de Oro	5	Mayo	2023-08-05T00:00:00	2024-11-08T14:00:00	7	Dirección del viento	9.66
147711	7	Sololá	719	Santiago Atitlán	14	Cerro de Oro	5	Mayo	2023-08-05T00:00:00	2024-11-08T14:00:00	1	Precipitación	0
147712	7	Sololá	719	Santiago Atitlán	14	Cerro de Oro	5	Mayo	2023-08-05T00:00:00	2024-11-08T14:00:00	8	Radiación solar	871
147713	7	Sololá	719	Santiago Atitlán	14	Cerro de Oro	5	Mayo	2023-08-05T00:00:00	2024-11-08T15:00:00	2	Temperatura media	24.9
147714	7	Sololá	719	Santiago Atitlán	14	Cerro de Oro	5	Mayo	2023-08-05T00:00:00	2024-11-08T15:00:00	4	Temperatura máxima	26.5
147715	7	Sololá	719	Santiago Atitlán	14	Cerro de Oro	5	Mayo	2023-08-05T00:00:00	2024-11-08T15:00:00	3	Temperatura mínima	24.8
147716	7	Sololá	719	Santiago Atitlán	14	Cerro de Oro	5	Mayo	2023-08-05T00:00:00	2024-11-08T15:00:00	5	Humedad	70
147717	7	Sololá	719	Santiago Atitlán	14	Cerro de Oro	5	Mayo	2023-08-05T00:00:00	2024-11-08T15:00:00	6	Velocidad del viento	11.3
147718	7	Sololá	719	Santiago Atitlán	14	Cerro de Oro	5	Mayo	2023-08-05T00:00:00	2024-11-08T15:00:00	7	Dirección del viento	11.27
147719	7	Sololá	719	Santiago Atitlán	14	Cerro de Oro	5	Mayo	2023-08-05T00:00:00	2024-11-08T15:00:00	1	Precipitación	0
147720	7	Sololá	719	Santiago Atitlán	14	Cerro de Oro	5	Mayo	2023-08-05T00:00:00	2024-11-08T15:00:00	8	Radiación solar	798
147721	7	Sololá	719	Santiago Atitlán	14	Cerro de Oro	5	Mayo	2023-08-05T00:00:00	2024-11-08T16:00:00	2	Temperatura media	24.7
147722	7	Sololá	719	Santiago Atitlán	14	Cerro de Oro	5	Mayo	2023-08-05T00:00:00	2024-11-08T16:00:00	4	Temperatura máxima	25.3
147723	7	Sololá	719	Santiago Atitlán	14	Cerro de Oro	5	Mayo	2023-08-05T00:00:00	2024-11-08T16:00:00	3	Temperatura mínima	24.4
147724	7	Sololá	719	Santiago Atitlán	14	Cerro de Oro	5	Mayo	2023-08-05T00:00:00	2024-11-08T16:00:00	5	Humedad	72
147725	7	Sololá	719	Santiago Atitlán	14	Cerro de Oro	5	Mayo	2023-08-05T00:00:00	2024-11-08T16:00:00	6	Velocidad del viento	14.5
147726	7	Sololá	719	Santiago Atitlán	14	Cerro de Oro	5	Mayo	2023-08-05T00:00:00	2024-11-08T16:00:00	7	Dirección del viento	14.48
147727	7	Sololá	719	Santiago Atitlán	14	Cerro de Oro	5	Mayo	2023-08-05T00:00:00	2024-11-08T16:00:00	1	Precipitación	0
147728	7	Sololá	719	Santiago Atitlán	14	Cerro de Oro	5	Mayo	2023-08-05T00:00:00	2024-11-08T16:00:00	8	Radiación solar	675
147729	7	Sololá	719	Santiago Atitlán	14	Cerro de Oro	5	Mayo	2023-08-05T00:00:00	2024-11-08T17:00:00	2	Temperatura media	23.5
147730	7	Sololá	719	Santiago Atitlán	14	Cerro de Oro	5	Mayo	2023-08-05T00:00:00	2024-11-08T17:00:00	4	Temperatura máxima	24.8
147731	7	Sololá	719	Santiago Atitlán	14	Cerro de Oro	5	Mayo	2023-08-05T00:00:00	2024-11-08T17:00:00	3	Temperatura mínima	23.5
147732	7	Sololá	719	Santiago Atitlán	14	Cerro de Oro	5	Mayo	2023-08-05T00:00:00	2024-11-08T17:00:00	5	Humedad	75
147733	7	Sololá	719	Santiago Atitlán	14	Cerro de Oro	5	Mayo	2023-08-05T00:00:00	2024-11-08T17:00:00	6	Velocidad del viento	12.9
147734	7	Sololá	719	Santiago Atitlán	14	Cerro de Oro	5	Mayo	2023-08-05T00:00:00	2024-11-08T17:00:00	7	Dirección del viento	12.87
147735	7	Sololá	719	Santiago Atitlán	14	Cerro de Oro	5	Mayo	2023-08-05T00:00:00	2024-11-08T17:00:00	1	Precipitación	0
147736	7	Sololá	719	Santiago Atitlán	14	Cerro de Oro	5	Mayo	2023-08-05T00:00:00	2024-11-08T17:00:00	8	Radiación solar	384
147737	7	Sololá	719	Santiago Atitlán	14	Cerro de Oro	5	Mayo	2023-08-05T00:00:00	2024-11-08T18:00:00	2	Temperatura media	22.1
147738	7	Sololá	719	Santiago Atitlán	14	Cerro de Oro	5	Mayo	2023-08-05T00:00:00	2024-11-08T18:00:00	4	Temperatura máxima	23.5
147739	7	Sololá	719	Santiago Atitlán	14	Cerro de Oro	5	Mayo	2023-08-05T00:00:00	2024-11-08T18:00:00	3	Temperatura mínima	22.1
147740	7	Sololá	719	Santiago Atitlán	14	Cerro de Oro	5	Mayo	2023-08-05T00:00:00	2024-11-08T18:00:00	5	Humedad	79
147741	7	Sololá	719	Santiago Atitlán	14	Cerro de Oro	5	Mayo	2023-08-05T00:00:00	2024-11-08T18:00:00	6	Velocidad del viento	12.9
147742	7	Sololá	719	Santiago Atitlán	14	Cerro de Oro	5	Mayo	2023-08-05T00:00:00	2024-11-08T18:00:00	7	Dirección del viento	12.87
147743	7	Sololá	719	Santiago Atitlán	14	Cerro de Oro	5	Mayo	2023-08-05T00:00:00	2024-11-08T18:00:00	1	Precipitación	0
147744	7	Sololá	719	Santiago Atitlán	14	Cerro de Oro	5	Mayo	2023-08-05T00:00:00	2024-11-08T18:00:00	8	Radiación solar	107
147745	7	Sololá	719	Santiago Atitlán	14	Cerro de Oro	5	Mayo	2023-08-05T00:00:00	2024-11-08T19:00:00	2	Temperatura media	21.8
147746	7	Sololá	719	Santiago Atitlán	14	Cerro de Oro	5	Mayo	2023-08-05T00:00:00	2024-11-08T19:00:00	4	Temperatura máxima	22.1
147747	7	Sololá	719	Santiago Atitlán	14	Cerro de Oro	5	Mayo	2023-08-05T00:00:00	2024-11-08T19:00:00	3	Temperatura mínima	21.6
147748	7	Sololá	719	Santiago Atitlán	14	Cerro de Oro	5	Mayo	2023-08-05T00:00:00	2024-11-08T19:00:00	5	Humedad	78
147749	7	Sololá	719	Santiago Atitlán	14	Cerro de Oro	5	Mayo	2023-08-05T00:00:00	2024-11-08T19:00:00	6	Velocidad del viento	6.4
147750	7	Sololá	719	Santiago Atitlán	14	Cerro de Oro	5	Mayo	2023-08-05T00:00:00	2024-11-08T19:00:00	7	Dirección del viento	6.44
147751	7	Sololá	719	Santiago Atitlán	14	Cerro de Oro	5	Mayo	2023-08-05T00:00:00	2024-11-08T19:00:00	1	Precipitación	0
147752	7	Sololá	719	Santiago Atitlán	14	Cerro de Oro	5	Mayo	2023-08-05T00:00:00	2024-11-08T19:00:00	8	Radiación solar	0
147753	7	Sololá	719	Santiago Atitlán	14	Cerro de Oro	5	Mayo	2023-08-05T00:00:00	2024-11-08T20:00:00	2	Temperatura media	21.6
147754	7	Sololá	719	Santiago Atitlán	14	Cerro de Oro	5	Mayo	2023-08-05T00:00:00	2024-11-08T20:00:00	4	Temperatura máxima	21.9
147755	7	Sololá	719	Santiago Atitlán	14	Cerro de Oro	5	Mayo	2023-08-05T00:00:00	2024-11-08T20:00:00	3	Temperatura mínima	21.3
147756	7	Sololá	719	Santiago Atitlán	14	Cerro de Oro	5	Mayo	2023-08-05T00:00:00	2024-11-08T20:00:00	5	Humedad	79
147757	7	Sololá	719	Santiago Atitlán	14	Cerro de Oro	5	Mayo	2023-08-05T00:00:00	2024-11-08T20:00:00	6	Velocidad del viento	4.8
147758	7	Sololá	719	Santiago Atitlán	14	Cerro de Oro	5	Mayo	2023-08-05T00:00:00	2024-11-08T20:00:00	7	Dirección del viento	4.83
147759	7	Sololá	719	Santiago Atitlán	14	Cerro de Oro	5	Mayo	2023-08-05T00:00:00	2024-11-08T20:00:00	1	Precipitación	0
147760	7	Sololá	719	Santiago Atitlán	14	Cerro de Oro	5	Mayo	2023-08-05T00:00:00	2024-11-08T20:00:00	8	Radiación solar	0
147761	7	Sololá	719	Santiago Atitlán	14	Cerro de Oro	5	Mayo	2023-08-05T00:00:00	2024-11-08T21:00:00	2	Temperatura media	20.7
147762	7	Sololá	719	Santiago Atitlán	14	Cerro de Oro	5	Mayo	2023-08-05T00:00:00	2024-11-08T21:00:00	4	Temperatura máxima	21.6
147763	7	Sololá	719	Santiago Atitlán	14	Cerro de Oro	5	Mayo	2023-08-05T00:00:00	2024-11-08T21:00:00	3	Temperatura mínima	20.7
147764	7	Sololá	719	Santiago Atitlán	14	Cerro de Oro	5	Mayo	2023-08-05T00:00:00	2024-11-08T21:00:00	5	Humedad	82
147765	7	Sololá	719	Santiago Atitlán	14	Cerro de Oro	5	Mayo	2023-08-05T00:00:00	2024-11-08T21:00:00	6	Velocidad del viento	3.2
147766	7	Sololá	719	Santiago Atitlán	14	Cerro de Oro	5	Mayo	2023-08-05T00:00:00	2024-11-08T21:00:00	7	Dirección del viento	3.22
147767	7	Sololá	719	Santiago Atitlán	14	Cerro de Oro	5	Mayo	2023-08-05T00:00:00	2024-11-08T21:00:00	1	Precipitación	0
147768	7	Sololá	719	Santiago Atitlán	14	Cerro de Oro	5	Mayo	2023-08-05T00:00:00	2024-11-08T21:00:00	8	Radiación solar	0
147769	7	Sololá	719	Santiago Atitlán	14	Cerro de Oro	5	Mayo	2023-08-05T00:00:00	2024-11-08T22:00:00	2	Temperatura media	21.2
147770	7	Sololá	719	Santiago Atitlán	14	Cerro de Oro	5	Mayo	2023-08-05T00:00:00	2024-11-08T22:00:00	4	Temperatura máxima	21.2
147771	7	Sololá	719	Santiago Atitlán	14	Cerro de Oro	5	Mayo	2023-08-05T00:00:00	2024-11-08T22:00:00	3	Temperatura mínima	20.6
147772	7	Sololá	719	Santiago Atitlán	14	Cerro de Oro	5	Mayo	2023-08-05T00:00:00	2024-11-08T22:00:00	5	Humedad	78
147773	7	Sololá	719	Santiago Atitlán	14	Cerro de Oro	5	Mayo	2023-08-05T00:00:00	2024-11-08T22:00:00	6	Velocidad del viento	3.2
147774	7	Sololá	719	Santiago Atitlán	14	Cerro de Oro	5	Mayo	2023-08-05T00:00:00	2024-11-08T22:00:00	7	Dirección del viento	3.22
147775	7	Sololá	719	Santiago Atitlán	14	Cerro de Oro	5	Mayo	2023-08-05T00:00:00	2024-11-08T22:00:00	1	Precipitación	0
147776	7	Sololá	719	Santiago Atitlán	14	Cerro de Oro	5	Mayo	2023-08-05T00:00:00	2024-11-08T22:00:00	8	Radiación solar	0
147777	7	Sololá	719	Santiago Atitlán	14	Cerro de Oro	5	Mayo	2023-08-05T00:00:00	2024-11-08T23:00:00	2	Temperatura media	21.2
147778	7	Sololá	719	Santiago Atitlán	14	Cerro de Oro	5	Mayo	2023-08-05T00:00:00	2024-11-08T23:00:00	4	Temperatura máxima	21.8
147779	7	Sololá	719	Santiago Atitlán	14	Cerro de Oro	5	Mayo	2023-08-05T00:00:00	2024-11-08T23:00:00	3	Temperatura mínima	21.1
147780	7	Sololá	719	Santiago Atitlán	14	Cerro de Oro	5	Mayo	2023-08-05T00:00:00	2024-11-08T23:00:00	5	Humedad	71
147781	7	Sololá	719	Santiago Atitlán	14	Cerro de Oro	5	Mayo	2023-08-05T00:00:00	2024-11-08T23:00:00	6	Velocidad del viento	4.8
147782	7	Sololá	719	Santiago Atitlán	14	Cerro de Oro	5	Mayo	2023-08-05T00:00:00	2024-11-08T23:00:00	7	Dirección del viento	4.83
147783	7	Sololá	719	Santiago Atitlán	14	Cerro de Oro	5	Mayo	2023-08-05T00:00:00	2024-11-08T23:00:00	1	Precipitación	0
147784	7	Sololá	719	Santiago Atitlán	14	Cerro de Oro	5	Mayo	2023-08-05T00:00:00	2024-11-08T23:00:00	8	Radiación solar	0
147785	7	Sololá	719	Santiago Atitlán	14	Cerro de Oro	5	Mayo	2023-09-05T00:00:00	2024-11-08T00:00:00	2	Temperatura media	20.7
147786	7	Sololá	719	Santiago Atitlán	14	Cerro de Oro	5	Mayo	2023-09-05T00:00:00	2024-11-08T00:00:00	4	Temperatura máxima	21.3
147787	7	Sololá	719	Santiago Atitlán	14	Cerro de Oro	5	Mayo	2023-09-05T00:00:00	2024-11-08T00:00:00	3	Temperatura mínima	20.6
147788	7	Sololá	719	Santiago Atitlán	14	Cerro de Oro	5	Mayo	2023-09-05T00:00:00	2024-11-08T00:00:00	5	Humedad	73
147789	7	Sololá	719	Santiago Atitlán	14	Cerro de Oro	5	Mayo	2023-09-05T00:00:00	2024-11-08T00:00:00	6	Velocidad del viento	3.2
147790	7	Sololá	719	Santiago Atitlán	14	Cerro de Oro	5	Mayo	2023-09-05T00:00:00	2024-11-08T00:00:00	7	Dirección del viento	3.22
147791	7	Sololá	719	Santiago Atitlán	14	Cerro de Oro	5	Mayo	2023-09-05T00:00:00	2024-11-08T00:00:00	1	Precipitación	0
147792	7	Sololá	719	Santiago Atitlán	14	Cerro de Oro	5	Mayo	2023-09-05T00:00:00	2024-11-08T00:00:00	8	Radiación solar	0
147793	7	Sololá	719	Santiago Atitlán	14	Cerro de Oro	5	Mayo	2023-09-05T00:00:00	2024-11-08T01:00:00	2	Temperatura media	21.2
147794	7	Sololá	719	Santiago Atitlán	14	Cerro de Oro	5	Mayo	2023-09-05T00:00:00	2024-11-08T01:00:00	4	Temperatura máxima	21.2
147795	7	Sololá	719	Santiago Atitlán	14	Cerro de Oro	5	Mayo	2023-09-05T00:00:00	2024-11-08T01:00:00	3	Temperatura mínima	19.8
147796	7	Sololá	719	Santiago Atitlán	14	Cerro de Oro	5	Mayo	2023-09-05T00:00:00	2024-11-08T01:00:00	5	Humedad	67
147797	7	Sololá	719	Santiago Atitlán	14	Cerro de Oro	5	Mayo	2023-09-05T00:00:00	2024-11-08T01:00:00	6	Velocidad del viento	6.4
147798	7	Sololá	719	Santiago Atitlán	14	Cerro de Oro	5	Mayo	2023-09-05T00:00:00	2024-11-08T01:00:00	7	Dirección del viento	6.44
147799	7	Sololá	719	Santiago Atitlán	14	Cerro de Oro	5	Mayo	2023-09-05T00:00:00	2024-11-08T01:00:00	1	Precipitación	0
147800	7	Sololá	719	Santiago Atitlán	14	Cerro de Oro	5	Mayo	2023-09-05T00:00:00	2024-11-08T01:00:00	8	Radiación solar	0
147801	7	Sololá	719	Santiago Atitlán	14	Cerro de Oro	5	Mayo	2023-09-05T00:00:00	2024-11-08T02:00:00	2	Temperatura media	21.1
147802	7	Sololá	719	Santiago Atitlán	14	Cerro de Oro	5	Mayo	2023-09-05T00:00:00	2024-11-08T02:00:00	4	Temperatura máxima	21.3
147803	7	Sololá	719	Santiago Atitlán	14	Cerro de Oro	5	Mayo	2023-09-05T00:00:00	2024-11-08T02:00:00	3	Temperatura mínima	20.9
147804	7	Sololá	719	Santiago Atitlán	14	Cerro de Oro	5	Mayo	2023-09-05T00:00:00	2024-11-08T02:00:00	5	Humedad	66
147805	7	Sololá	719	Santiago Atitlán	14	Cerro de Oro	5	Mayo	2023-09-05T00:00:00	2024-11-08T02:00:00	6	Velocidad del viento	8
147806	7	Sololá	719	Santiago Atitlán	14	Cerro de Oro	5	Mayo	2023-09-05T00:00:00	2024-11-08T02:00:00	7	Dirección del viento	8.05
147807	7	Sololá	719	Santiago Atitlán	14	Cerro de Oro	5	Mayo	2023-09-05T00:00:00	2024-11-08T02:00:00	1	Precipitación	0
147808	7	Sololá	719	Santiago Atitlán	14	Cerro de Oro	5	Mayo	2023-09-05T00:00:00	2024-11-08T02:00:00	8	Radiación solar	0
147809	7	Sololá	719	Santiago Atitlán	14	Cerro de Oro	5	Mayo	2023-09-05T00:00:00	2024-11-08T03:00:00	2	Temperatura media	19.7
147810	7	Sololá	719	Santiago Atitlán	14	Cerro de Oro	5	Mayo	2023-09-05T00:00:00	2024-11-08T03:00:00	4	Temperatura máxima	21.2
147811	7	Sololá	719	Santiago Atitlán	14	Cerro de Oro	5	Mayo	2023-09-05T00:00:00	2024-11-08T03:00:00	3	Temperatura mínima	19.7
147812	7	Sololá	719	Santiago Atitlán	14	Cerro de Oro	5	Mayo	2023-09-05T00:00:00	2024-11-08T03:00:00	5	Humedad	67
147813	7	Sololá	719	Santiago Atitlán	14	Cerro de Oro	5	Mayo	2023-09-05T00:00:00	2024-11-08T03:00:00	6	Velocidad del viento	6.4
147814	7	Sololá	719	Santiago Atitlán	14	Cerro de Oro	5	Mayo	2023-09-05T00:00:00	2024-11-08T03:00:00	7	Dirección del viento	6.44
147815	7	Sololá	719	Santiago Atitlán	14	Cerro de Oro	5	Mayo	2023-09-05T00:00:00	2024-11-08T03:00:00	1	Precipitación	0
147816	7	Sololá	719	Santiago Atitlán	14	Cerro de Oro	5	Mayo	2023-09-05T00:00:00	2024-11-08T03:00:00	8	Radiación solar	0
147817	7	Sololá	719	Santiago Atitlán	14	Cerro de Oro	5	Mayo	2023-09-05T00:00:00	2024-11-08T04:00:00	2	Temperatura media	18.9
147818	7	Sololá	719	Santiago Atitlán	14	Cerro de Oro	5	Mayo	2023-09-05T00:00:00	2024-11-08T04:00:00	4	Temperatura máxima	19.9
147819	7	Sololá	719	Santiago Atitlán	14	Cerro de Oro	5	Mayo	2023-09-05T00:00:00	2024-11-08T04:00:00	3	Temperatura mínima	18.9
147820	7	Sololá	719	Santiago Atitlán	14	Cerro de Oro	5	Mayo	2023-09-05T00:00:00	2024-11-08T04:00:00	5	Humedad	69
147821	7	Sololá	719	Santiago Atitlán	14	Cerro de Oro	5	Mayo	2023-09-05T00:00:00	2024-11-08T04:00:00	6	Velocidad del viento	4.8
147822	7	Sololá	719	Santiago Atitlán	14	Cerro de Oro	5	Mayo	2023-09-05T00:00:00	2024-11-08T04:00:00	7	Dirección del viento	4.83
147823	7	Sololá	719	Santiago Atitlán	14	Cerro de Oro	5	Mayo	2023-09-05T00:00:00	2024-11-08T04:00:00	1	Precipitación	0
147824	7	Sololá	719	Santiago Atitlán	14	Cerro de Oro	5	Mayo	2023-09-05T00:00:00	2024-11-08T04:00:00	8	Radiación solar	0
147825	7	Sololá	719	Santiago Atitlán	14	Cerro de Oro	5	Mayo	2023-09-05T00:00:00	2024-11-08T05:00:00	2	Temperatura media	18.2
147826	7	Sololá	719	Santiago Atitlán	14	Cerro de Oro	5	Mayo	2023-09-05T00:00:00	2024-11-08T05:00:00	4	Temperatura máxima	19.1
147827	7	Sololá	719	Santiago Atitlán	14	Cerro de Oro	5	Mayo	2023-09-05T00:00:00	2024-11-08T05:00:00	3	Temperatura mínima	18.2
147828	7	Sololá	719	Santiago Atitlán	14	Cerro de Oro	5	Mayo	2023-09-05T00:00:00	2024-11-08T05:00:00	5	Humedad	70
147829	7	Sololá	719	Santiago Atitlán	14	Cerro de Oro	5	Mayo	2023-09-05T00:00:00	2024-11-08T05:00:00	6	Velocidad del viento	3.2
147830	7	Sololá	719	Santiago Atitlán	14	Cerro de Oro	5	Mayo	2023-09-05T00:00:00	2024-11-08T05:00:00	7	Dirección del viento	3.22
147831	7	Sololá	719	Santiago Atitlán	14	Cerro de Oro	5	Mayo	2023-09-05T00:00:00	2024-11-08T05:00:00	1	Precipitación	0
147832	7	Sololá	719	Santiago Atitlán	14	Cerro de Oro	5	Mayo	2023-09-05T00:00:00	2024-11-08T05:00:00	8	Radiación solar	0
147833	7	Sololá	719	Santiago Atitlán	14	Cerro de Oro	5	Mayo	2023-09-05T00:00:00	2024-11-08T06:00:00	2	Temperatura media	17.9
147834	7	Sololá	719	Santiago Atitlán	14	Cerro de Oro	5	Mayo	2023-09-05T00:00:00	2024-11-08T06:00:00	4	Temperatura máxima	18.3
147835	7	Sololá	719	Santiago Atitlán	14	Cerro de Oro	5	Mayo	2023-09-05T00:00:00	2024-11-08T06:00:00	3	Temperatura mínima	17.9
147836	7	Sololá	719	Santiago Atitlán	14	Cerro de Oro	5	Mayo	2023-09-05T00:00:00	2024-11-08T06:00:00	5	Humedad	65
147837	7	Sololá	719	Santiago Atitlán	14	Cerro de Oro	5	Mayo	2023-09-05T00:00:00	2024-11-08T06:00:00	6	Velocidad del viento	3.2
147838	7	Sololá	719	Santiago Atitlán	14	Cerro de Oro	5	Mayo	2023-09-05T00:00:00	2024-11-08T06:00:00	7	Dirección del viento	3.22
147839	7	Sololá	719	Santiago Atitlán	14	Cerro de Oro	5	Mayo	2023-09-05T00:00:00	2024-11-08T06:00:00	1	Precipitación	0
147840	7	Sololá	719	Santiago Atitlán	14	Cerro de Oro	5	Mayo	2023-09-05T00:00:00	2024-11-08T06:00:00	8	Radiación solar	0
147841	7	Sololá	719	Santiago Atitlán	14	Cerro de Oro	5	Mayo	2023-09-05T00:00:00	2024-11-08T07:00:00	2	Temperatura media	18.2
147842	7	Sololá	719	Santiago Atitlán	14	Cerro de Oro	5	Mayo	2023-09-05T00:00:00	2024-11-08T07:00:00	4	Temperatura máxima	18.3
147843	7	Sololá	719	Santiago Atitlán	14	Cerro de Oro	5	Mayo	2023-09-05T00:00:00	2024-11-08T07:00:00	3	Temperatura mínima	17.7
147844	7	Sololá	719	Santiago Atitlán	14	Cerro de Oro	5	Mayo	2023-09-05T00:00:00	2024-11-08T07:00:00	5	Humedad	61
147845	7	Sololá	719	Santiago Atitlán	14	Cerro de Oro	5	Mayo	2023-09-05T00:00:00	2024-11-08T07:00:00	6	Velocidad del viento	6.4
147846	7	Sololá	719	Santiago Atitlán	14	Cerro de Oro	5	Mayo	2023-09-05T00:00:00	2024-11-08T07:00:00	7	Dirección del viento	6.44
147847	7	Sololá	719	Santiago Atitlán	14	Cerro de Oro	5	Mayo	2023-09-05T00:00:00	2024-11-08T07:00:00	1	Precipitación	0
147848	7	Sololá	719	Santiago Atitlán	14	Cerro de Oro	5	Mayo	2023-09-05T00:00:00	2024-11-08T07:00:00	8	Radiación solar	7
147849	7	Sololá	719	Santiago Atitlán	14	Cerro de Oro	5	Mayo	2023-09-05T00:00:00	2024-11-08T08:00:00	2	Temperatura media	19.8
147850	7	Sololá	719	Santiago Atitlán	14	Cerro de Oro	5	Mayo	2023-09-05T00:00:00	2024-11-08T08:00:00	4	Temperatura máxima	19.9
147851	7	Sololá	719	Santiago Atitlán	14	Cerro de Oro	5	Mayo	2023-09-05T00:00:00	2024-11-08T08:00:00	3	Temperatura mínima	18.2
147852	7	Sololá	719	Santiago Atitlán	14	Cerro de Oro	5	Mayo	2023-09-05T00:00:00	2024-11-08T08:00:00	5	Humedad	64
147853	7	Sololá	719	Santiago Atitlán	14	Cerro de Oro	5	Mayo	2023-09-05T00:00:00	2024-11-08T08:00:00	6	Velocidad del viento	3.2
147854	7	Sololá	719	Santiago Atitlán	14	Cerro de Oro	5	Mayo	2023-09-05T00:00:00	2024-11-08T08:00:00	7	Dirección del viento	3.22
147855	7	Sololá	719	Santiago Atitlán	14	Cerro de Oro	5	Mayo	2023-09-05T00:00:00	2024-11-08T08:00:00	1	Precipitación	0
147856	7	Sololá	719	Santiago Atitlán	14	Cerro de Oro	5	Mayo	2023-09-05T00:00:00	2024-11-08T08:00:00	8	Radiación solar	110
147857	7	Sololá	719	Santiago Atitlán	14	Cerro de Oro	5	Mayo	2023-09-05T00:00:00	2024-11-08T09:00:00	2	Temperatura media	21.2
147858	7	Sololá	719	Santiago Atitlán	14	Cerro de Oro	5	Mayo	2023-09-05T00:00:00	2024-11-08T09:00:00	4	Temperatura máxima	21.2
147859	7	Sololá	719	Santiago Atitlán	14	Cerro de Oro	5	Mayo	2023-09-05T00:00:00	2024-11-08T09:00:00	3	Temperatura mínima	19.7
147860	7	Sololá	719	Santiago Atitlán	14	Cerro de Oro	5	Mayo	2023-09-05T00:00:00	2024-11-08T09:00:00	5	Humedad	60
147861	7	Sololá	719	Santiago Atitlán	14	Cerro de Oro	5	Mayo	2023-09-05T00:00:00	2024-11-08T09:00:00	6	Velocidad del viento	1.6
147862	7	Sololá	719	Santiago Atitlán	14	Cerro de Oro	5	Mayo	2023-09-05T00:00:00	2024-11-08T09:00:00	7	Dirección del viento	1.61
147863	7	Sololá	719	Santiago Atitlán	14	Cerro de Oro	5	Mayo	2023-09-05T00:00:00	2024-11-08T09:00:00	1	Precipitación	0
147864	7	Sololá	719	Santiago Atitlán	14	Cerro de Oro	5	Mayo	2023-09-05T00:00:00	2024-11-08T09:00:00	8	Radiación solar	282
147865	7	Sololá	719	Santiago Atitlán	14	Cerro de Oro	5	Mayo	2023-09-05T00:00:00	2024-11-08T10:00:00	2	Temperatura media	21.6
147866	7	Sololá	719	Santiago Atitlán	14	Cerro de Oro	5	Mayo	2023-09-05T00:00:00	2024-11-08T10:00:00	4	Temperatura máxima	21.7
147867	7	Sololá	719	Santiago Atitlán	14	Cerro de Oro	5	Mayo	2023-09-05T00:00:00	2024-11-08T10:00:00	3	Temperatura mínima	21.2
147868	7	Sololá	719	Santiago Atitlán	14	Cerro de Oro	5	Mayo	2023-09-05T00:00:00	2024-11-08T10:00:00	5	Humedad	63
147869	7	Sololá	719	Santiago Atitlán	14	Cerro de Oro	5	Mayo	2023-09-05T00:00:00	2024-11-08T10:00:00	6	Velocidad del viento	4.8
147870	7	Sololá	719	Santiago Atitlán	14	Cerro de Oro	5	Mayo	2023-09-05T00:00:00	2024-11-08T10:00:00	7	Dirección del viento	4.83
147871	7	Sololá	719	Santiago Atitlán	14	Cerro de Oro	5	Mayo	2023-09-05T00:00:00	2024-11-08T10:00:00	1	Precipitación	0
147872	7	Sololá	719	Santiago Atitlán	14	Cerro de Oro	5	Mayo	2023-09-05T00:00:00	2024-11-08T10:00:00	8	Radiación solar	465
147873	7	Sololá	719	Santiago Atitlán	14	Cerro de Oro	5	Mayo	2023-09-05T00:00:00	2024-11-08T11:00:00	2	Temperatura media	23.2
147874	7	Sololá	719	Santiago Atitlán	14	Cerro de Oro	5	Mayo	2023-09-05T00:00:00	2024-11-08T11:00:00	4	Temperatura máxima	23.2
147875	7	Sololá	719	Santiago Atitlán	14	Cerro de Oro	5	Mayo	2023-09-05T00:00:00	2024-11-08T11:00:00	3	Temperatura mínima	21.6
147876	7	Sololá	719	Santiago Atitlán	14	Cerro de Oro	5	Mayo	2023-09-05T00:00:00	2024-11-08T11:00:00	5	Humedad	51
147877	7	Sololá	719	Santiago Atitlán	14	Cerro de Oro	5	Mayo	2023-09-05T00:00:00	2024-11-08T11:00:00	6	Velocidad del viento	4.8
147878	7	Sololá	719	Santiago Atitlán	14	Cerro de Oro	5	Mayo	2023-09-05T00:00:00	2024-11-08T11:00:00	7	Dirección del viento	4.83
147879	7	Sololá	719	Santiago Atitlán	14	Cerro de Oro	5	Mayo	2023-09-05T00:00:00	2024-11-08T11:00:00	1	Precipitación	0
147880	7	Sololá	719	Santiago Atitlán	14	Cerro de Oro	5	Mayo	2023-09-05T00:00:00	2024-11-08T11:00:00	8	Radiación solar	716
147881	7	Sololá	719	Santiago Atitlán	14	Cerro de Oro	5	Mayo	2023-09-05T00:00:00	2024-11-08T12:00:00	2	Temperatura media	25.2
147882	7	Sololá	719	Santiago Atitlán	14	Cerro de Oro	5	Mayo	2023-09-05T00:00:00	2024-11-08T12:00:00	4	Temperatura máxima	25.2
147883	7	Sololá	719	Santiago Atitlán	14	Cerro de Oro	5	Mayo	2023-09-05T00:00:00	2024-11-08T12:00:00	3	Temperatura mínima	23.2
147884	7	Sololá	719	Santiago Atitlán	14	Cerro de Oro	5	Mayo	2023-09-05T00:00:00	2024-11-08T12:00:00	5	Humedad	52
147885	7	Sololá	719	Santiago Atitlán	14	Cerro de Oro	5	Mayo	2023-09-05T00:00:00	2024-11-08T12:00:00	6	Velocidad del viento	4.8
147886	7	Sololá	719	Santiago Atitlán	14	Cerro de Oro	5	Mayo	2023-09-05T00:00:00	2024-11-08T12:00:00	7	Dirección del viento	4.83
147887	7	Sololá	719	Santiago Atitlán	14	Cerro de Oro	5	Mayo	2023-09-05T00:00:00	2024-11-08T12:00:00	1	Precipitación	0
147888	7	Sololá	719	Santiago Atitlán	14	Cerro de Oro	5	Mayo	2023-09-05T00:00:00	2024-11-08T12:00:00	8	Radiación solar	847
147889	7	Sololá	719	Santiago Atitlán	14	Cerro de Oro	5	Mayo	2023-09-05T00:00:00	2024-11-08T13:00:00	2	Temperatura media	24.9
147890	7	Sololá	719	Santiago Atitlán	14	Cerro de Oro	5	Mayo	2023-09-05T00:00:00	2024-11-08T13:00:00	4	Temperatura máxima	25.4
147891	7	Sololá	719	Santiago Atitlán	14	Cerro de Oro	5	Mayo	2023-09-05T00:00:00	2024-11-08T13:00:00	3	Temperatura mínima	24.6
147892	7	Sololá	719	Santiago Atitlán	14	Cerro de Oro	5	Mayo	2023-09-05T00:00:00	2024-11-08T13:00:00	5	Humedad	71
147893	7	Sololá	719	Santiago Atitlán	14	Cerro de Oro	5	Mayo	2023-09-05T00:00:00	2024-11-08T13:00:00	6	Velocidad del viento	8
147894	7	Sololá	719	Santiago Atitlán	14	Cerro de Oro	5	Mayo	2023-09-05T00:00:00	2024-11-08T13:00:00	7	Dirección del viento	8.05
147895	7	Sololá	719	Santiago Atitlán	14	Cerro de Oro	5	Mayo	2023-09-05T00:00:00	2024-11-08T13:00:00	1	Precipitación	0
147896	7	Sololá	719	Santiago Atitlán	14	Cerro de Oro	5	Mayo	2023-09-05T00:00:00	2024-11-08T13:00:00	8	Radiación solar	934
147897	7	Sololá	719	Santiago Atitlán	14	Cerro de Oro	5	Mayo	2023-09-05T00:00:00	2024-11-08T14:00:00	2	Temperatura media	24.6
147898	7	Sololá	719	Santiago Atitlán	14	Cerro de Oro	5	Mayo	2023-09-05T00:00:00	2024-11-08T14:00:00	4	Temperatura máxima	25.2
147899	7	Sololá	719	Santiago Atitlán	14	Cerro de Oro	5	Mayo	2023-09-05T00:00:00	2024-11-08T14:00:00	3	Temperatura mínima	24.1
147900	7	Sololá	719	Santiago Atitlán	14	Cerro de Oro	5	Mayo	2023-09-05T00:00:00	2024-11-08T14:00:00	5	Humedad	71
147901	7	Sololá	719	Santiago Atitlán	14	Cerro de Oro	5	Mayo	2023-09-05T00:00:00	2024-11-08T14:00:00	6	Velocidad del viento	12.9
147902	7	Sololá	719	Santiago Atitlán	14	Cerro de Oro	5	Mayo	2023-09-05T00:00:00	2024-11-08T14:00:00	7	Dirección del viento	12.87
147903	7	Sololá	719	Santiago Atitlán	14	Cerro de Oro	5	Mayo	2023-09-05T00:00:00	2024-11-08T14:00:00	1	Precipitación	0
147904	7	Sololá	719	Santiago Atitlán	14	Cerro de Oro	5	Mayo	2023-09-05T00:00:00	2024-11-08T14:00:00	8	Radiación solar	830
147905	7	Sololá	719	Santiago Atitlán	14	Cerro de Oro	5	Mayo	2023-09-05T00:00:00	2024-11-08T15:00:00	2	Temperatura media	24.2
147906	7	Sololá	719	Santiago Atitlán	14	Cerro de Oro	5	Mayo	2023-09-05T00:00:00	2024-11-08T15:00:00	4	Temperatura máxima	25
147907	7	Sololá	719	Santiago Atitlán	14	Cerro de Oro	5	Mayo	2023-09-05T00:00:00	2024-11-08T15:00:00	3	Temperatura mínima	23.6
147908	7	Sololá	719	Santiago Atitlán	14	Cerro de Oro	5	Mayo	2023-09-05T00:00:00	2024-11-08T15:00:00	5	Humedad	73
147909	7	Sololá	719	Santiago Atitlán	14	Cerro de Oro	5	Mayo	2023-09-05T00:00:00	2024-11-08T15:00:00	6	Velocidad del viento	12.9
147910	7	Sololá	719	Santiago Atitlán	14	Cerro de Oro	5	Mayo	2023-09-05T00:00:00	2024-11-08T15:00:00	7	Dirección del viento	12.87
147911	7	Sololá	719	Santiago Atitlán	14	Cerro de Oro	5	Mayo	2023-09-05T00:00:00	2024-11-08T15:00:00	1	Precipitación	0
147912	7	Sololá	719	Santiago Atitlán	14	Cerro de Oro	5	Mayo	2023-09-05T00:00:00	2024-11-08T15:00:00	8	Radiación solar	649
147913	7	Sololá	719	Santiago Atitlán	14	Cerro de Oro	5	Mayo	2023-09-05T00:00:00	2024-11-08T16:00:00	2	Temperatura media	23.2
147914	7	Sololá	719	Santiago Atitlán	14	Cerro de Oro	5	Mayo	2023-09-05T00:00:00	2024-11-08T16:00:00	4	Temperatura máxima	24.2
147915	7	Sololá	719	Santiago Atitlán	14	Cerro de Oro	5	Mayo	2023-09-05T00:00:00	2024-11-08T16:00:00	3	Temperatura mínima	22.9
147916	7	Sololá	719	Santiago Atitlán	14	Cerro de Oro	5	Mayo	2023-09-05T00:00:00	2024-11-08T16:00:00	5	Humedad	77
147917	7	Sololá	719	Santiago Atitlán	14	Cerro de Oro	5	Mayo	2023-09-05T00:00:00	2024-11-08T16:00:00	6	Velocidad del viento	11.3
147918	7	Sololá	719	Santiago Atitlán	14	Cerro de Oro	5	Mayo	2023-09-05T00:00:00	2024-11-08T16:00:00	7	Dirección del viento	11.27
147919	7	Sololá	719	Santiago Atitlán	14	Cerro de Oro	5	Mayo	2023-09-05T00:00:00	2024-11-08T16:00:00	1	Precipitación	0
147920	7	Sololá	719	Santiago Atitlán	14	Cerro de Oro	5	Mayo	2023-09-05T00:00:00	2024-11-08T16:00:00	8	Radiación solar	246
147921	7	Sololá	719	Santiago Atitlán	14	Cerro de Oro	5	Mayo	2023-09-05T00:00:00	2024-11-08T17:00:00	2	Temperatura media	23.3
147922	7	Sololá	719	Santiago Atitlán	14	Cerro de Oro	5	Mayo	2023-09-05T00:00:00	2024-11-08T17:00:00	4	Temperatura máxima	23.6
147923	7	Sololá	719	Santiago Atitlán	14	Cerro de Oro	5	Mayo	2023-09-05T00:00:00	2024-11-08T17:00:00	3	Temperatura mínima	22.9
147924	7	Sololá	719	Santiago Atitlán	14	Cerro de Oro	5	Mayo	2023-09-05T00:00:00	2024-11-08T17:00:00	5	Humedad	76
147925	7	Sololá	719	Santiago Atitlán	14	Cerro de Oro	5	Mayo	2023-09-05T00:00:00	2024-11-08T17:00:00	6	Velocidad del viento	9.7
147926	7	Sololá	719	Santiago Atitlán	14	Cerro de Oro	5	Mayo	2023-09-05T00:00:00	2024-11-08T17:00:00	7	Dirección del viento	9.66
147927	7	Sololá	719	Santiago Atitlán	14	Cerro de Oro	5	Mayo	2023-09-05T00:00:00	2024-11-08T17:00:00	1	Precipitación	0
147928	7	Sololá	719	Santiago Atitlán	14	Cerro de Oro	5	Mayo	2023-09-05T00:00:00	2024-11-08T17:00:00	8	Radiación solar	210
147929	7	Sololá	719	Santiago Atitlán	14	Cerro de Oro	5	Mayo	2023-09-05T00:00:00	2024-11-08T18:00:00	2	Temperatura media	21.8
147930	7	Sololá	719	Santiago Atitlán	14	Cerro de Oro	5	Mayo	2023-09-05T00:00:00	2024-11-08T18:00:00	4	Temperatura máxima	23.2
147931	7	Sololá	719	Santiago Atitlán	14	Cerro de Oro	5	Mayo	2023-09-05T00:00:00	2024-11-08T18:00:00	3	Temperatura mínima	20.8
147932	7	Sololá	719	Santiago Atitlán	14	Cerro de Oro	5	Mayo	2023-09-05T00:00:00	2024-11-08T18:00:00	5	Humedad	82
147933	7	Sololá	719	Santiago Atitlán	14	Cerro de Oro	5	Mayo	2023-09-05T00:00:00	2024-11-08T18:00:00	6	Velocidad del viento	8
147934	7	Sololá	719	Santiago Atitlán	14	Cerro de Oro	5	Mayo	2023-09-05T00:00:00	2024-11-08T18:00:00	7	Dirección del viento	8.05
147935	7	Sololá	719	Santiago Atitlán	14	Cerro de Oro	5	Mayo	2023-09-05T00:00:00	2024-11-08T18:00:00	1	Precipitación	0
147936	7	Sololá	719	Santiago Atitlán	14	Cerro de Oro	5	Mayo	2023-09-05T00:00:00	2024-11-08T18:00:00	8	Radiación solar	105
147937	7	Sololá	719	Santiago Atitlán	14	Cerro de Oro	5	Mayo	2023-09-05T00:00:00	2024-11-08T19:00:00	2	Temperatura media	20.4
147938	7	Sololá	719	Santiago Atitlán	14	Cerro de Oro	5	Mayo	2023-09-05T00:00:00	2024-11-08T19:00:00	4	Temperatura máxima	21.8
147939	7	Sololá	719	Santiago Atitlán	14	Cerro de Oro	5	Mayo	2023-09-05T00:00:00	2024-11-08T19:00:00	3	Temperatura mínima	20.2
147940	7	Sololá	719	Santiago Atitlán	14	Cerro de Oro	5	Mayo	2023-09-05T00:00:00	2024-11-08T19:00:00	5	Humedad	86
147941	7	Sololá	719	Santiago Atitlán	14	Cerro de Oro	5	Mayo	2023-09-05T00:00:00	2024-11-08T19:00:00	6	Velocidad del viento	8
147942	7	Sololá	719	Santiago Atitlán	14	Cerro de Oro	5	Mayo	2023-09-05T00:00:00	2024-11-08T19:00:00	7	Dirección del viento	8.05
147943	7	Sololá	719	Santiago Atitlán	14	Cerro de Oro	5	Mayo	2023-09-05T00:00:00	2024-11-08T19:00:00	1	Precipitación	0
147944	7	Sololá	719	Santiago Atitlán	14	Cerro de Oro	5	Mayo	2023-09-05T00:00:00	2024-11-08T19:00:00	8	Radiación solar	0
147945	7	Sololá	719	Santiago Atitlán	14	Cerro de Oro	5	Mayo	2023-09-05T00:00:00	2024-11-08T20:00:00	2	Temperatura media	20.6
147946	7	Sololá	719	Santiago Atitlán	14	Cerro de Oro	5	Mayo	2023-09-05T00:00:00	2024-11-08T20:00:00	4	Temperatura máxima	20.8
147947	7	Sololá	719	Santiago Atitlán	14	Cerro de Oro	5	Mayo	2023-09-05T00:00:00	2024-11-08T20:00:00	3	Temperatura mínima	20.4
147948	7	Sololá	719	Santiago Atitlán	14	Cerro de Oro	5	Mayo	2023-09-05T00:00:00	2024-11-08T20:00:00	5	Humedad	86
147949	7	Sololá	719	Santiago Atitlán	14	Cerro de Oro	5	Mayo	2023-09-05T00:00:00	2024-11-08T20:00:00	6	Velocidad del viento	4.8
147950	7	Sololá	719	Santiago Atitlán	14	Cerro de Oro	5	Mayo	2023-09-05T00:00:00	2024-11-08T20:00:00	7	Dirección del viento	4.83
147951	7	Sololá	719	Santiago Atitlán	14	Cerro de Oro	5	Mayo	2023-09-05T00:00:00	2024-11-08T20:00:00	1	Precipitación	0
147952	7	Sololá	719	Santiago Atitlán	14	Cerro de Oro	5	Mayo	2023-09-05T00:00:00	2024-11-08T20:00:00	8	Radiación solar	0
147953	7	Sololá	719	Santiago Atitlán	14	Cerro de Oro	5	Mayo	2023-09-05T00:00:00	2024-11-08T21:00:00	2	Temperatura media	20
147954	7	Sololá	719	Santiago Atitlán	14	Cerro de Oro	5	Mayo	2023-09-05T00:00:00	2024-11-08T21:00:00	4	Temperatura máxima	20.6
147955	7	Sololá	719	Santiago Atitlán	14	Cerro de Oro	5	Mayo	2023-09-05T00:00:00	2024-11-08T21:00:00	3	Temperatura mínima	19.8
147956	7	Sololá	719	Santiago Atitlán	14	Cerro de Oro	5	Mayo	2023-09-05T00:00:00	2024-11-08T21:00:00	5	Humedad	87
147957	7	Sololá	719	Santiago Atitlán	14	Cerro de Oro	5	Mayo	2023-09-05T00:00:00	2024-11-08T21:00:00	6	Velocidad del viento	6.4
147958	7	Sololá	719	Santiago Atitlán	14	Cerro de Oro	5	Mayo	2023-09-05T00:00:00	2024-11-08T21:00:00	7	Dirección del viento	6.44
147959	7	Sololá	719	Santiago Atitlán	14	Cerro de Oro	5	Mayo	2023-09-05T00:00:00	2024-11-08T21:00:00	1	Precipitación	0
147960	7	Sololá	719	Santiago Atitlán	14	Cerro de Oro	5	Mayo	2023-09-05T00:00:00	2024-11-08T21:00:00	8	Radiación solar	0
147961	7	Sololá	719	Santiago Atitlán	14	Cerro de Oro	5	Mayo	2023-09-05T00:00:00	2024-11-08T22:00:00	2	Temperatura media	20.3
147962	7	Sololá	719	Santiago Atitlán	14	Cerro de Oro	5	Mayo	2023-09-05T00:00:00	2024-11-08T22:00:00	4	Temperatura máxima	20.3
147963	7	Sololá	719	Santiago Atitlán	14	Cerro de Oro	5	Mayo	2023-09-05T00:00:00	2024-11-08T22:00:00	3	Temperatura mínima	19.9
147964	7	Sololá	719	Santiago Atitlán	14	Cerro de Oro	5	Mayo	2023-09-05T00:00:00	2024-11-08T22:00:00	5	Humedad	86
147965	7	Sololá	719	Santiago Atitlán	14	Cerro de Oro	5	Mayo	2023-09-05T00:00:00	2024-11-08T22:00:00	6	Velocidad del viento	3.2
147966	7	Sololá	719	Santiago Atitlán	14	Cerro de Oro	5	Mayo	2023-09-05T00:00:00	2024-11-08T22:00:00	7	Dirección del viento	3.22
147967	7	Sololá	719	Santiago Atitlán	14	Cerro de Oro	5	Mayo	2023-09-05T00:00:00	2024-11-08T22:00:00	1	Precipitación	0
147968	7	Sololá	719	Santiago Atitlán	14	Cerro de Oro	5	Mayo	2023-09-05T00:00:00	2024-11-08T22:00:00	8	Radiación solar	0
147969	7	Sololá	719	Santiago Atitlán	14	Cerro de Oro	5	Mayo	2023-09-05T00:00:00	2024-11-08T23:00:00	2	Temperatura media	19.9
147970	7	Sololá	719	Santiago Atitlán	14	Cerro de Oro	5	Mayo	2023-09-05T00:00:00	2024-11-08T23:00:00	4	Temperatura máxima	20.3
147971	7	Sololá	719	Santiago Atitlán	14	Cerro de Oro	5	Mayo	2023-09-05T00:00:00	2024-11-08T23:00:00	3	Temperatura mínima	19.9
147972	7	Sololá	719	Santiago Atitlán	14	Cerro de Oro	5	Mayo	2023-09-05T00:00:00	2024-11-08T23:00:00	5	Humedad	86
147973	7	Sololá	719	Santiago Atitlán	14	Cerro de Oro	5	Mayo	2023-09-05T00:00:00	2024-11-08T23:00:00	6	Velocidad del viento	1.6
147974	7	Sololá	719	Santiago Atitlán	14	Cerro de Oro	5	Mayo	2023-09-05T00:00:00	2024-11-08T23:00:00	7	Dirección del viento	1.61
147975	7	Sololá	719	Santiago Atitlán	14	Cerro de Oro	5	Mayo	2023-09-05T00:00:00	2024-11-08T23:00:00	1	Precipitación	0
147976	7	Sololá	719	Santiago Atitlán	14	Cerro de Oro	5	Mayo	2023-09-05T00:00:00	2024-11-08T23:00:00	8	Radiación solar	0
147977	7	Sololá	719	Santiago Atitlán	14	Cerro de Oro	5	Mayo	2023-10-05T00:00:00	2024-11-08T00:00:00	2	Temperatura media	19.7
147978	7	Sololá	719	Santiago Atitlán	14	Cerro de Oro	5	Mayo	2023-10-05T00:00:00	2024-11-08T00:00:00	4	Temperatura máxima	19.9
147979	7	Sololá	719	Santiago Atitlán	14	Cerro de Oro	5	Mayo	2023-10-05T00:00:00	2024-11-08T00:00:00	3	Temperatura mínima	19.7
147980	7	Sololá	719	Santiago Atitlán	14	Cerro de Oro	5	Mayo	2023-10-05T00:00:00	2024-11-08T00:00:00	5	Humedad	86
147981	7	Sololá	719	Santiago Atitlán	14	Cerro de Oro	5	Mayo	2023-10-05T00:00:00	2024-11-08T00:00:00	6	Velocidad del viento	4.8
147982	7	Sololá	719	Santiago Atitlán	14	Cerro de Oro	5	Mayo	2023-10-05T00:00:00	2024-11-08T00:00:00	7	Dirección del viento	4.83
147983	7	Sololá	719	Santiago Atitlán	14	Cerro de Oro	5	Mayo	2023-10-05T00:00:00	2024-11-08T00:00:00	1	Precipitación	0
147984	7	Sololá	719	Santiago Atitlán	14	Cerro de Oro	5	Mayo	2023-10-05T00:00:00	2024-11-08T00:00:00	8	Radiación solar	0
147985	7	Sololá	719	Santiago Atitlán	14	Cerro de Oro	5	Mayo	2023-10-05T00:00:00	2024-11-08T01:00:00	2	Temperatura media	19.8
147986	7	Sololá	719	Santiago Atitlán	14	Cerro de Oro	5	Mayo	2023-10-05T00:00:00	2024-11-08T01:00:00	4	Temperatura máxima	19.8
147987	7	Sololá	719	Santiago Atitlán	14	Cerro de Oro	5	Mayo	2023-10-05T00:00:00	2024-11-08T01:00:00	3	Temperatura mínima	19.4
147988	7	Sololá	719	Santiago Atitlán	14	Cerro de Oro	5	Mayo	2023-10-05T00:00:00	2024-11-08T01:00:00	5	Humedad	86
147989	7	Sololá	719	Santiago Atitlán	14	Cerro de Oro	5	Mayo	2023-10-05T00:00:00	2024-11-08T01:00:00	6	Velocidad del viento	4.8
147990	7	Sololá	719	Santiago Atitlán	14	Cerro de Oro	5	Mayo	2023-10-05T00:00:00	2024-11-08T01:00:00	7	Dirección del viento	4.83
147991	7	Sololá	719	Santiago Atitlán	14	Cerro de Oro	5	Mayo	2023-10-05T00:00:00	2024-11-08T01:00:00	1	Precipitación	0
147992	7	Sololá	719	Santiago Atitlán	14	Cerro de Oro	5	Mayo	2023-10-05T00:00:00	2024-11-08T01:00:00	8	Radiación solar	0
147993	7	Sololá	719	Santiago Atitlán	14	Cerro de Oro	5	Mayo	2023-10-05T00:00:00	2024-11-08T02:00:00	2	Temperatura media	18.7
147994	7	Sololá	719	Santiago Atitlán	14	Cerro de Oro	5	Mayo	2023-10-05T00:00:00	2024-11-08T02:00:00	4	Temperatura máxima	19.8
147995	7	Sololá	719	Santiago Atitlán	14	Cerro de Oro	5	Mayo	2023-10-05T00:00:00	2024-11-08T02:00:00	3	Temperatura mínima	18.6
147996	7	Sololá	719	Santiago Atitlán	14	Cerro de Oro	5	Mayo	2023-10-05T00:00:00	2024-11-08T02:00:00	5	Humedad	88
147997	7	Sololá	719	Santiago Atitlán	14	Cerro de Oro	5	Mayo	2023-10-05T00:00:00	2024-11-08T02:00:00	6	Velocidad del viento	1.6
147998	7	Sololá	719	Santiago Atitlán	14	Cerro de Oro	5	Mayo	2023-10-05T00:00:00	2024-11-08T02:00:00	7	Dirección del viento	1.61
147999	7	Sololá	719	Santiago Atitlán	14	Cerro de Oro	5	Mayo	2023-10-05T00:00:00	2024-11-08T02:00:00	1	Precipitación	0
148000	7	Sololá	719	Santiago Atitlán	14	Cerro de Oro	5	Mayo	2023-10-05T00:00:00	2024-11-08T02:00:00	8	Radiación solar	0
148001	7	Sololá	719	Santiago Atitlán	14	Cerro de Oro	5	Mayo	2023-10-05T00:00:00	2024-11-08T03:00:00	2	Temperatura media	18.8
148002	7	Sololá	719	Santiago Atitlán	14	Cerro de Oro	5	Mayo	2023-10-05T00:00:00	2024-11-08T03:00:00	4	Temperatura máxima	18.9
148003	7	Sololá	719	Santiago Atitlán	14	Cerro de Oro	5	Mayo	2023-10-05T00:00:00	2024-11-08T03:00:00	3	Temperatura mínima	18.4
148004	7	Sololá	719	Santiago Atitlán	14	Cerro de Oro	5	Mayo	2023-10-05T00:00:00	2024-11-08T03:00:00	5	Humedad	89
148005	7	Sololá	719	Santiago Atitlán	14	Cerro de Oro	5	Mayo	2023-10-05T00:00:00	2024-11-08T03:00:00	6	Velocidad del viento	3.2
148006	7	Sololá	719	Santiago Atitlán	14	Cerro de Oro	5	Mayo	2023-10-05T00:00:00	2024-11-08T03:00:00	7	Dirección del viento	3.22
148007	7	Sololá	719	Santiago Atitlán	14	Cerro de Oro	5	Mayo	2023-10-05T00:00:00	2024-11-08T03:00:00	1	Precipitación	0
148008	7	Sololá	719	Santiago Atitlán	14	Cerro de Oro	5	Mayo	2023-10-05T00:00:00	2024-11-08T03:00:00	8	Radiación solar	0
148009	7	Sololá	719	Santiago Atitlán	14	Cerro de Oro	5	Mayo	2023-10-05T00:00:00	2024-11-08T04:00:00	2	Temperatura media	18.6
148010	7	Sololá	719	Santiago Atitlán	14	Cerro de Oro	5	Mayo	2023-10-05T00:00:00	2024-11-08T04:00:00	4	Temperatura máxima	18.9
148011	7	Sololá	719	Santiago Atitlán	14	Cerro de Oro	5	Mayo	2023-10-05T00:00:00	2024-11-08T04:00:00	3	Temperatura mínima	18.6
148012	7	Sololá	719	Santiago Atitlán	14	Cerro de Oro	5	Mayo	2023-10-05T00:00:00	2024-11-08T04:00:00	5	Humedad	88
148013	7	Sololá	719	Santiago Atitlán	14	Cerro de Oro	5	Mayo	2023-10-05T00:00:00	2024-11-08T04:00:00	6	Velocidad del viento	3.2
148014	7	Sololá	719	Santiago Atitlán	14	Cerro de Oro	5	Mayo	2023-10-05T00:00:00	2024-11-08T04:00:00	7	Dirección del viento	3.22
148015	7	Sololá	719	Santiago Atitlán	14	Cerro de Oro	5	Mayo	2023-10-05T00:00:00	2024-11-08T04:00:00	1	Precipitación	0
148016	7	Sololá	719	Santiago Atitlán	14	Cerro de Oro	5	Mayo	2023-10-05T00:00:00	2024-11-08T04:00:00	8	Radiación solar	0
148017	7	Sololá	719	Santiago Atitlán	14	Cerro de Oro	5	Mayo	2023-10-05T00:00:00	2024-11-08T05:00:00	2	Temperatura media	18.7
148018	7	Sololá	719	Santiago Atitlán	14	Cerro de Oro	5	Mayo	2023-10-05T00:00:00	2024-11-08T05:00:00	4	Temperatura máxima	18.8
148019	7	Sololá	719	Santiago Atitlán	14	Cerro de Oro	5	Mayo	2023-10-05T00:00:00	2024-11-08T05:00:00	3	Temperatura mínima	18.3
148020	7	Sololá	719	Santiago Atitlán	14	Cerro de Oro	5	Mayo	2023-10-05T00:00:00	2024-11-08T05:00:00	5	Humedad	88
148021	7	Sololá	719	Santiago Atitlán	14	Cerro de Oro	5	Mayo	2023-10-05T00:00:00	2024-11-08T05:00:00	6	Velocidad del viento	3.2
148022	7	Sololá	719	Santiago Atitlán	14	Cerro de Oro	5	Mayo	2023-10-05T00:00:00	2024-11-08T05:00:00	7	Dirección del viento	3.22
148023	7	Sololá	719	Santiago Atitlán	14	Cerro de Oro	5	Mayo	2023-10-05T00:00:00	2024-11-08T05:00:00	1	Precipitación	0
148024	7	Sololá	719	Santiago Atitlán	14	Cerro de Oro	5	Mayo	2023-10-05T00:00:00	2024-11-08T05:00:00	8	Radiación solar	0
148025	7	Sololá	719	Santiago Atitlán	14	Cerro de Oro	5	Mayo	2023-10-05T00:00:00	2024-11-08T06:00:00	2	Temperatura media	18.3
148026	7	Sololá	719	Santiago Atitlán	14	Cerro de Oro	5	Mayo	2023-10-05T00:00:00	2024-11-08T06:00:00	4	Temperatura máxima	18.7
148027	7	Sololá	719	Santiago Atitlán	14	Cerro de Oro	5	Mayo	2023-10-05T00:00:00	2024-11-08T06:00:00	3	Temperatura mínima	18.2
148028	7	Sololá	719	Santiago Atitlán	14	Cerro de Oro	5	Mayo	2023-10-05T00:00:00	2024-11-08T06:00:00	5	Humedad	90
148029	7	Sololá	719	Santiago Atitlán	14	Cerro de Oro	5	Mayo	2023-10-05T00:00:00	2024-11-08T06:00:00	6	Velocidad del viento	3.2
148030	7	Sololá	719	Santiago Atitlán	14	Cerro de Oro	5	Mayo	2023-10-05T00:00:00	2024-11-08T06:00:00	7	Dirección del viento	3.22
148031	7	Sololá	719	Santiago Atitlán	14	Cerro de Oro	5	Mayo	2023-10-05T00:00:00	2024-11-08T06:00:00	1	Precipitación	0
148032	7	Sololá	719	Santiago Atitlán	14	Cerro de Oro	5	Mayo	2023-10-05T00:00:00	2024-11-08T06:00:00	8	Radiación solar	0
148033	7	Sololá	719	Santiago Atitlán	14	Cerro de Oro	5	Mayo	2023-10-05T00:00:00	2024-11-08T07:00:00	2	Temperatura media	18.6
148034	7	Sololá	719	Santiago Atitlán	14	Cerro de Oro	5	Mayo	2023-10-05T00:00:00	2024-11-08T07:00:00	4	Temperatura máxima	18.7
148035	7	Sololá	719	Santiago Atitlán	14	Cerro de Oro	5	Mayo	2023-10-05T00:00:00	2024-11-08T07:00:00	3	Temperatura mínima	18.2
148036	7	Sololá	719	Santiago Atitlán	14	Cerro de Oro	5	Mayo	2023-10-05T00:00:00	2024-11-08T07:00:00	5	Humedad	87
148037	7	Sololá	719	Santiago Atitlán	14	Cerro de Oro	5	Mayo	2023-10-05T00:00:00	2024-11-08T07:00:00	6	Velocidad del viento	3.2
148038	7	Sololá	719	Santiago Atitlán	14	Cerro de Oro	5	Mayo	2023-10-05T00:00:00	2024-11-08T07:00:00	7	Dirección del viento	3.22
148039	7	Sololá	719	Santiago Atitlán	14	Cerro de Oro	5	Mayo	2023-10-05T00:00:00	2024-11-08T07:00:00	1	Precipitación	0
148040	7	Sololá	719	Santiago Atitlán	14	Cerro de Oro	5	Mayo	2023-10-05T00:00:00	2024-11-08T07:00:00	8	Radiación solar	5
148041	7	Sololá	719	Santiago Atitlán	14	Cerro de Oro	5	Mayo	2023-10-05T00:00:00	2024-11-08T08:00:00	2	Temperatura media	19.4
148042	7	Sololá	719	Santiago Atitlán	14	Cerro de Oro	5	Mayo	2023-10-05T00:00:00	2024-11-08T08:00:00	4	Temperatura máxima	19.4
148043	7	Sololá	719	Santiago Atitlán	14	Cerro de Oro	5	Mayo	2023-10-05T00:00:00	2024-11-08T08:00:00	3	Temperatura mínima	18.4
148044	7	Sololá	719	Santiago Atitlán	14	Cerro de Oro	5	Mayo	2023-10-05T00:00:00	2024-11-08T08:00:00	5	Humedad	83
148045	7	Sololá	719	Santiago Atitlán	14	Cerro de Oro	5	Mayo	2023-10-05T00:00:00	2024-11-08T08:00:00	6	Velocidad del viento	3.2
148046	7	Sololá	719	Santiago Atitlán	14	Cerro de Oro	5	Mayo	2023-10-05T00:00:00	2024-11-08T08:00:00	7	Dirección del viento	3.22
148047	7	Sololá	719	Santiago Atitlán	14	Cerro de Oro	5	Mayo	2023-10-05T00:00:00	2024-11-08T08:00:00	1	Precipitación	0
148048	7	Sololá	719	Santiago Atitlán	14	Cerro de Oro	5	Mayo	2023-10-05T00:00:00	2024-11-08T08:00:00	8	Radiación solar	59
148049	7	Sololá	719	Santiago Atitlán	14	Cerro de Oro	5	Mayo	2023-10-05T00:00:00	2024-11-08T09:00:00	2	Temperatura media	21.4
148050	7	Sololá	719	Santiago Atitlán	14	Cerro de Oro	5	Mayo	2023-10-05T00:00:00	2024-11-08T09:00:00	4	Temperatura máxima	21.5
148051	7	Sololá	719	Santiago Atitlán	14	Cerro de Oro	5	Mayo	2023-10-05T00:00:00	2024-11-08T09:00:00	3	Temperatura mínima	19.4
148052	7	Sololá	719	Santiago Atitlán	14	Cerro de Oro	5	Mayo	2023-10-05T00:00:00	2024-11-08T09:00:00	5	Humedad	81
148053	7	Sololá	719	Santiago Atitlán	14	Cerro de Oro	5	Mayo	2023-10-05T00:00:00	2024-11-08T09:00:00	6	Velocidad del viento	1.6
148054	7	Sololá	719	Santiago Atitlán	14	Cerro de Oro	5	Mayo	2023-10-05T00:00:00	2024-11-08T09:00:00	7	Dirección del viento	1.61
148055	7	Sololá	719	Santiago Atitlán	14	Cerro de Oro	5	Mayo	2023-10-05T00:00:00	2024-11-08T09:00:00	1	Precipitación	0
148056	7	Sololá	719	Santiago Atitlán	14	Cerro de Oro	5	Mayo	2023-10-05T00:00:00	2024-11-08T09:00:00	8	Radiación solar	218
148057	7	Sololá	719	Santiago Atitlán	14	Cerro de Oro	5	Mayo	2023-10-05T00:00:00	2024-11-08T10:00:00	2	Temperatura media	22.6
148058	7	Sololá	719	Santiago Atitlán	14	Cerro de Oro	5	Mayo	2023-10-05T00:00:00	2024-11-08T10:00:00	4	Temperatura máxima	22.6
148059	7	Sololá	719	Santiago Atitlán	14	Cerro de Oro	5	Mayo	2023-10-05T00:00:00	2024-11-08T10:00:00	3	Temperatura mínima	21.4
148060	7	Sololá	719	Santiago Atitlán	14	Cerro de Oro	5	Mayo	2023-10-05T00:00:00	2024-11-08T10:00:00	5	Humedad	77
148061	7	Sololá	719	Santiago Atitlán	14	Cerro de Oro	5	Mayo	2023-10-05T00:00:00	2024-11-08T10:00:00	6	Velocidad del viento	4.8
148062	7	Sololá	719	Santiago Atitlán	14	Cerro de Oro	5	Mayo	2023-10-05T00:00:00	2024-11-08T10:00:00	7	Dirección del viento	4.83
148063	7	Sololá	719	Santiago Atitlán	14	Cerro de Oro	5	Mayo	2023-10-05T00:00:00	2024-11-08T10:00:00	1	Precipitación	0
148064	7	Sololá	719	Santiago Atitlán	14	Cerro de Oro	5	Mayo	2023-10-05T00:00:00	2024-11-08T10:00:00	8	Radiación solar	506
148065	7	Sololá	719	Santiago Atitlán	14	Cerro de Oro	5	Mayo	2023-10-05T00:00:00	2024-11-08T11:00:00	2	Temperatura media	23.6
148066	7	Sololá	719	Santiago Atitlán	14	Cerro de Oro	5	Mayo	2023-10-05T00:00:00	2024-11-08T11:00:00	4	Temperatura máxima	23.7
148067	7	Sololá	719	Santiago Atitlán	14	Cerro de Oro	5	Mayo	2023-10-05T00:00:00	2024-11-08T11:00:00	3	Temperatura mínima	22.6
148068	7	Sololá	719	Santiago Atitlán	14	Cerro de Oro	5	Mayo	2023-10-05T00:00:00	2024-11-08T11:00:00	5	Humedad	71
148069	7	Sololá	719	Santiago Atitlán	14	Cerro de Oro	5	Mayo	2023-10-05T00:00:00	2024-11-08T11:00:00	6	Velocidad del viento	4.8
148070	7	Sololá	719	Santiago Atitlán	14	Cerro de Oro	5	Mayo	2023-10-05T00:00:00	2024-11-08T11:00:00	7	Dirección del viento	4.83
148071	7	Sololá	719	Santiago Atitlán	14	Cerro de Oro	5	Mayo	2023-10-05T00:00:00	2024-11-08T11:00:00	1	Precipitación	0
148072	7	Sololá	719	Santiago Atitlán	14	Cerro de Oro	5	Mayo	2023-10-05T00:00:00	2024-11-08T11:00:00	8	Radiación solar	693
148073	7	Sololá	719	Santiago Atitlán	14	Cerro de Oro	5	Mayo	2023-10-05T00:00:00	2024-11-08T12:00:00	2	Temperatura media	24.2
148074	7	Sololá	719	Santiago Atitlán	14	Cerro de Oro	5	Mayo	2023-10-05T00:00:00	2024-11-08T12:00:00	4	Temperatura máxima	24.7
148075	7	Sololá	719	Santiago Atitlán	14	Cerro de Oro	5	Mayo	2023-10-05T00:00:00	2024-11-08T12:00:00	3	Temperatura mínima	23.1
148076	7	Sololá	719	Santiago Atitlán	14	Cerro de Oro	5	Mayo	2023-10-05T00:00:00	2024-11-08T12:00:00	5	Humedad	72
148077	7	Sololá	719	Santiago Atitlán	14	Cerro de Oro	5	Mayo	2023-10-05T00:00:00	2024-11-08T12:00:00	6	Velocidad del viento	9.7
148078	7	Sololá	719	Santiago Atitlán	14	Cerro de Oro	5	Mayo	2023-10-05T00:00:00	2024-11-08T12:00:00	7	Dirección del viento	9.66
148079	7	Sololá	719	Santiago Atitlán	14	Cerro de Oro	5	Mayo	2023-10-05T00:00:00	2024-11-08T12:00:00	1	Precipitación	0
148080	7	Sololá	719	Santiago Atitlán	14	Cerro de Oro	5	Mayo	2023-10-05T00:00:00	2024-11-08T12:00:00	8	Radiación solar	805
148081	7	Sololá	719	Santiago Atitlán	14	Cerro de Oro	5	Mayo	2023-10-05T00:00:00	2024-11-08T13:00:00	2	Temperatura media	23.4
148082	7	Sololá	719	Santiago Atitlán	14	Cerro de Oro	5	Mayo	2023-10-05T00:00:00	2024-11-08T13:00:00	4	Temperatura máxima	24.4
148083	7	Sololá	719	Santiago Atitlán	14	Cerro de Oro	5	Mayo	2023-10-05T00:00:00	2024-11-08T13:00:00	3	Temperatura mínima	22.8
148084	7	Sololá	719	Santiago Atitlán	14	Cerro de Oro	5	Mayo	2023-10-05T00:00:00	2024-11-08T13:00:00	5	Humedad	73
148085	7	Sololá	719	Santiago Atitlán	14	Cerro de Oro	5	Mayo	2023-10-05T00:00:00	2024-11-08T13:00:00	6	Velocidad del viento	12.9
148086	7	Sololá	719	Santiago Atitlán	14	Cerro de Oro	5	Mayo	2023-10-05T00:00:00	2024-11-08T13:00:00	7	Dirección del viento	12.87
148087	7	Sololá	719	Santiago Atitlán	14	Cerro de Oro	5	Mayo	2023-10-05T00:00:00	2024-11-08T13:00:00	1	Precipitación	0
148088	7	Sololá	719	Santiago Atitlán	14	Cerro de Oro	5	Mayo	2023-10-05T00:00:00	2024-11-08T13:00:00	8	Radiación solar	602
148089	7	Sololá	719	Santiago Atitlán	14	Cerro de Oro	5	Mayo	2023-10-05T00:00:00	2024-11-08T14:00:00	2	Temperatura media	22.8
148090	7	Sololá	719	Santiago Atitlán	14	Cerro de Oro	5	Mayo	2023-10-05T00:00:00	2024-11-08T14:00:00	4	Temperatura máxima	23.4
148091	7	Sololá	719	Santiago Atitlán	14	Cerro de Oro	5	Mayo	2023-10-05T00:00:00	2024-11-08T14:00:00	3	Temperatura mínima	22.6
148092	7	Sololá	719	Santiago Atitlán	14	Cerro de Oro	5	Mayo	2023-10-05T00:00:00	2024-11-08T14:00:00	5	Humedad	76
148093	7	Sololá	719	Santiago Atitlán	14	Cerro de Oro	5	Mayo	2023-10-05T00:00:00	2024-11-08T14:00:00	6	Velocidad del viento	11.3
148094	7	Sololá	719	Santiago Atitlán	14	Cerro de Oro	5	Mayo	2023-10-05T00:00:00	2024-11-08T14:00:00	7	Dirección del viento	11.27
148095	7	Sololá	719	Santiago Atitlán	14	Cerro de Oro	5	Mayo	2023-10-05T00:00:00	2024-11-08T14:00:00	1	Precipitación	0
148096	7	Sololá	719	Santiago Atitlán	14	Cerro de Oro	5	Mayo	2023-10-05T00:00:00	2024-11-08T14:00:00	8	Radiación solar	274
148097	7	Sololá	719	Santiago Atitlán	14	Cerro de Oro	5	Mayo	2023-10-05T00:00:00	2024-11-08T15:00:00	2	Temperatura media	22
148098	7	Sololá	719	Santiago Atitlán	14	Cerro de Oro	5	Mayo	2023-10-05T00:00:00	2024-11-08T15:00:00	4	Temperatura máxima	22.8
148099	7	Sololá	719	Santiago Atitlán	14	Cerro de Oro	5	Mayo	2023-10-05T00:00:00	2024-11-08T15:00:00	3	Temperatura mínima	22
148100	7	Sololá	719	Santiago Atitlán	14	Cerro de Oro	5	Mayo	2023-10-05T00:00:00	2024-11-08T15:00:00	5	Humedad	81
148101	7	Sololá	719	Santiago Atitlán	14	Cerro de Oro	5	Mayo	2023-10-05T00:00:00	2024-11-08T15:00:00	6	Velocidad del viento	11.3
148102	7	Sololá	719	Santiago Atitlán	14	Cerro de Oro	5	Mayo	2023-10-05T00:00:00	2024-11-08T15:00:00	7	Dirección del viento	11.27
148103	7	Sololá	719	Santiago Atitlán	14	Cerro de Oro	5	Mayo	2023-10-05T00:00:00	2024-11-08T15:00:00	1	Precipitación	0
148104	7	Sololá	719	Santiago Atitlán	14	Cerro de Oro	5	Mayo	2023-10-05T00:00:00	2024-11-08T15:00:00	8	Radiación solar	258
148105	7	Sololá	719	Santiago Atitlán	14	Cerro de Oro	5	Mayo	2023-10-05T00:00:00	2024-11-08T16:00:00	2	Temperatura media	21.9
148106	7	Sololá	719	Santiago Atitlán	14	Cerro de Oro	5	Mayo	2023-10-05T00:00:00	2024-11-08T16:00:00	4	Temperatura máxima	22.4
148107	7	Sololá	719	Santiago Atitlán	14	Cerro de Oro	5	Mayo	2023-10-05T00:00:00	2024-11-08T16:00:00	3	Temperatura mínima	21.7
148108	7	Sololá	719	Santiago Atitlán	14	Cerro de Oro	5	Mayo	2023-10-05T00:00:00	2024-11-08T16:00:00	5	Humedad	81
148109	7	Sololá	719	Santiago Atitlán	14	Cerro de Oro	5	Mayo	2023-10-05T00:00:00	2024-11-08T16:00:00	6	Velocidad del viento	4.8
148110	7	Sololá	719	Santiago Atitlán	14	Cerro de Oro	5	Mayo	2023-10-05T00:00:00	2024-11-08T16:00:00	7	Dirección del viento	4.83
148111	7	Sololá	719	Santiago Atitlán	14	Cerro de Oro	5	Mayo	2023-10-05T00:00:00	2024-11-08T16:00:00	1	Precipitación	0
148112	7	Sololá	719	Santiago Atitlán	14	Cerro de Oro	5	Mayo	2023-10-05T00:00:00	2024-11-08T16:00:00	8	Radiación solar	116
148113	7	Sololá	719	Santiago Atitlán	14	Cerro de Oro	5	Mayo	2023-10-05T00:00:00	2024-11-08T17:00:00	2	Temperatura media	20.6
148114	7	Sololá	719	Santiago Atitlán	14	Cerro de Oro	5	Mayo	2023-10-05T00:00:00	2024-11-08T17:00:00	4	Temperatura máxima	22
148115	7	Sololá	719	Santiago Atitlán	14	Cerro de Oro	5	Mayo	2023-10-05T00:00:00	2024-11-08T17:00:00	3	Temperatura mínima	20.6
148116	7	Sololá	719	Santiago Atitlán	14	Cerro de Oro	5	Mayo	2023-10-05T00:00:00	2024-11-08T17:00:00	5	Humedad	82
148117	7	Sololá	719	Santiago Atitlán	14	Cerro de Oro	5	Mayo	2023-10-05T00:00:00	2024-11-08T17:00:00	6	Velocidad del viento	9.7
148118	7	Sololá	719	Santiago Atitlán	14	Cerro de Oro	5	Mayo	2023-10-05T00:00:00	2024-11-08T17:00:00	7	Dirección del viento	9.66
148119	7	Sololá	719	Santiago Atitlán	14	Cerro de Oro	5	Mayo	2023-10-05T00:00:00	2024-11-08T17:00:00	1	Precipitación	0
148120	7	Sololá	719	Santiago Atitlán	14	Cerro de Oro	5	Mayo	2023-10-05T00:00:00	2024-11-08T17:00:00	8	Radiación solar	42
148121	7	Sololá	719	Santiago Atitlán	14	Cerro de Oro	5	Mayo	2023-10-05T00:00:00	2024-11-08T18:00:00	2	Temperatura media	20.5
148122	7	Sololá	719	Santiago Atitlán	14	Cerro de Oro	5	Mayo	2023-10-05T00:00:00	2024-11-08T18:00:00	4	Temperatura máxima	20.9
148123	7	Sololá	719	Santiago Atitlán	14	Cerro de Oro	5	Mayo	2023-10-05T00:00:00	2024-11-08T18:00:00	3	Temperatura mínima	20.4
148124	7	Sololá	719	Santiago Atitlán	14	Cerro de Oro	5	Mayo	2023-10-05T00:00:00	2024-11-08T18:00:00	5	Humedad	84
148125	7	Sololá	719	Santiago Atitlán	14	Cerro de Oro	5	Mayo	2023-10-05T00:00:00	2024-11-08T18:00:00	6	Velocidad del viento	8
148126	7	Sololá	719	Santiago Atitlán	14	Cerro de Oro	5	Mayo	2023-10-05T00:00:00	2024-11-08T18:00:00	7	Dirección del viento	8.05
148127	7	Sololá	719	Santiago Atitlán	14	Cerro de Oro	5	Mayo	2023-10-05T00:00:00	2024-11-08T18:00:00	1	Precipitación	0
148128	7	Sololá	719	Santiago Atitlán	14	Cerro de Oro	5	Mayo	2023-10-05T00:00:00	2024-11-08T18:00:00	8	Radiación solar	68
148129	7	Sololá	719	Santiago Atitlán	14	Cerro de Oro	5	Mayo	2023-10-05T00:00:00	2024-11-08T19:00:00	2	Temperatura media	19.8
148130	7	Sololá	719	Santiago Atitlán	14	Cerro de Oro	5	Mayo	2023-10-05T00:00:00	2024-11-08T19:00:00	4	Temperatura máxima	20.8
148131	7	Sololá	719	Santiago Atitlán	14	Cerro de Oro	5	Mayo	2023-10-05T00:00:00	2024-11-08T19:00:00	3	Temperatura mínima	19.8
148132	7	Sololá	719	Santiago Atitlán	14	Cerro de Oro	5	Mayo	2023-10-05T00:00:00	2024-11-08T19:00:00	5	Humedad	85
148133	7	Sololá	719	Santiago Atitlán	14	Cerro de Oro	5	Mayo	2023-10-05T00:00:00	2024-11-08T19:00:00	6	Velocidad del viento	4.8
148134	7	Sololá	719	Santiago Atitlán	14	Cerro de Oro	5	Mayo	2023-10-05T00:00:00	2024-11-08T19:00:00	7	Dirección del viento	4.83
148135	7	Sololá	719	Santiago Atitlán	14	Cerro de Oro	5	Mayo	2023-10-05T00:00:00	2024-11-08T19:00:00	1	Precipitación	0
148136	7	Sololá	719	Santiago Atitlán	14	Cerro de Oro	5	Mayo	2023-10-05T00:00:00	2024-11-08T19:00:00	8	Radiación solar	0
148137	7	Sololá	719	Santiago Atitlán	14	Cerro de Oro	5	Mayo	2023-10-05T00:00:00	2024-11-08T20:00:00	2	Temperatura media	19.8
148138	7	Sololá	719	Santiago Atitlán	14	Cerro de Oro	5	Mayo	2023-10-05T00:00:00	2024-11-08T20:00:00	4	Temperatura máxima	20
148139	7	Sololá	719	Santiago Atitlán	14	Cerro de Oro	5	Mayo	2023-10-05T00:00:00	2024-11-08T20:00:00	3	Temperatura mínima	19.7
148140	7	Sololá	719	Santiago Atitlán	14	Cerro de Oro	5	Mayo	2023-10-05T00:00:00	2024-11-08T20:00:00	5	Humedad	86
148141	7	Sololá	719	Santiago Atitlán	14	Cerro de Oro	5	Mayo	2023-10-05T00:00:00	2024-11-08T20:00:00	6	Velocidad del viento	3.2
148142	7	Sololá	719	Santiago Atitlán	14	Cerro de Oro	5	Mayo	2023-10-05T00:00:00	2024-11-08T20:00:00	7	Dirección del viento	3.22
148143	7	Sololá	719	Santiago Atitlán	14	Cerro de Oro	5	Mayo	2023-10-05T00:00:00	2024-11-08T20:00:00	1	Precipitación	0
148144	7	Sololá	719	Santiago Atitlán	14	Cerro de Oro	5	Mayo	2023-10-05T00:00:00	2024-11-08T20:00:00	8	Radiación solar	0
148145	7	Sololá	719	Santiago Atitlán	14	Cerro de Oro	5	Mayo	2023-10-05T00:00:00	2024-11-08T21:00:00	2	Temperatura media	15.6
148146	7	Sololá	719	Santiago Atitlán	14	Cerro de Oro	5	Mayo	2023-10-05T00:00:00	2024-11-08T21:00:00	4	Temperatura máxima	19.8
148147	7	Sololá	719	Santiago Atitlán	14	Cerro de Oro	5	Mayo	2023-10-05T00:00:00	2024-11-08T21:00:00	3	Temperatura mínima	15.6
148148	7	Sololá	719	Santiago Atitlán	14	Cerro de Oro	5	Mayo	2023-10-05T00:00:00	2024-11-08T21:00:00	5	Humedad	88
148149	7	Sololá	719	Santiago Atitlán	14	Cerro de Oro	5	Mayo	2023-10-05T00:00:00	2024-11-08T21:00:00	6	Velocidad del viento	12.9
148150	7	Sololá	719	Santiago Atitlán	14	Cerro de Oro	5	Mayo	2023-10-05T00:00:00	2024-11-08T21:00:00	7	Dirección del viento	12.87
148151	7	Sololá	719	Santiago Atitlán	14	Cerro de Oro	5	Mayo	2023-10-05T00:00:00	2024-11-08T21:00:00	1	Precipitación	10.8
148152	7	Sololá	719	Santiago Atitlán	14	Cerro de Oro	5	Mayo	2023-10-05T00:00:00	2024-11-08T21:00:00	8	Radiación solar	0
148153	7	Sololá	719	Santiago Atitlán	14	Cerro de Oro	5	Mayo	2023-10-05T00:00:00	2024-11-08T22:00:00	2	Temperatura media	15.4
148154	7	Sololá	719	Santiago Atitlán	14	Cerro de Oro	5	Mayo	2023-10-05T00:00:00	2024-11-08T22:00:00	4	Temperatura máxima	15.6
148155	7	Sololá	719	Santiago Atitlán	14	Cerro de Oro	5	Mayo	2023-10-05T00:00:00	2024-11-08T22:00:00	3	Temperatura mínima	15.3
148156	7	Sololá	719	Santiago Atitlán	14	Cerro de Oro	5	Mayo	2023-10-05T00:00:00	2024-11-08T22:00:00	5	Humedad	91
148157	7	Sololá	719	Santiago Atitlán	14	Cerro de Oro	5	Mayo	2023-10-05T00:00:00	2024-11-08T22:00:00	6	Velocidad del viento	4.8
148158	7	Sololá	719	Santiago Atitlán	14	Cerro de Oro	5	Mayo	2023-10-05T00:00:00	2024-11-08T22:00:00	7	Dirección del viento	4.83
148159	7	Sololá	719	Santiago Atitlán	14	Cerro de Oro	5	Mayo	2023-10-05T00:00:00	2024-11-08T22:00:00	1	Precipitación	2.8
148160	7	Sololá	719	Santiago Atitlán	14	Cerro de Oro	5	Mayo	2023-10-05T00:00:00	2024-11-08T22:00:00	8	Radiación solar	0
148161	7	Sololá	719	Santiago Atitlán	14	Cerro de Oro	5	Mayo	2023-10-05T00:00:00	2024-11-08T23:00:00	2	Temperatura media	15.5
148162	7	Sololá	719	Santiago Atitlán	14	Cerro de Oro	5	Mayo	2023-10-05T00:00:00	2024-11-08T23:00:00	4	Temperatura máxima	15.7
148163	7	Sololá	719	Santiago Atitlán	14	Cerro de Oro	5	Mayo	2023-10-05T00:00:00	2024-11-08T23:00:00	3	Temperatura mínima	15.4
148164	7	Sololá	719	Santiago Atitlán	14	Cerro de Oro	5	Mayo	2023-10-05T00:00:00	2024-11-08T23:00:00	5	Humedad	91
148165	7	Sololá	719	Santiago Atitlán	14	Cerro de Oro	5	Mayo	2023-10-05T00:00:00	2024-11-08T23:00:00	6	Velocidad del viento	3.2
148166	7	Sololá	719	Santiago Atitlán	14	Cerro de Oro	5	Mayo	2023-10-05T00:00:00	2024-11-08T23:00:00	7	Dirección del viento	3.22
148167	7	Sololá	719	Santiago Atitlán	14	Cerro de Oro	5	Mayo	2023-10-05T00:00:00	2024-11-08T23:00:00	1	Precipitación	0.2
148168	7	Sololá	719	Santiago Atitlán	14	Cerro de Oro	5	Mayo	2023-10-05T00:00:00	2024-11-08T23:00:00	8	Radiación solar	0
148169	7	Sololá	719	Santiago Atitlán	14	Cerro de Oro	5	Mayo	2023-11-05T00:00:00	2024-11-08T00:00:00	2	Temperatura media	15.7
148170	7	Sololá	719	Santiago Atitlán	14	Cerro de Oro	5	Mayo	2023-11-05T00:00:00	2024-11-08T00:00:00	4	Temperatura máxima	16.6
148171	7	Sololá	719	Santiago Atitlán	14	Cerro de Oro	5	Mayo	2023-11-05T00:00:00	2024-11-08T00:00:00	3	Temperatura mínima	15.5
148172	7	Sololá	719	Santiago Atitlán	14	Cerro de Oro	5	Mayo	2023-11-05T00:00:00	2024-11-08T00:00:00	5	Humedad	86
148173	7	Sololá	719	Santiago Atitlán	14	Cerro de Oro	5	Mayo	2023-11-05T00:00:00	2024-11-08T00:00:00	6	Velocidad del viento	6.4
148174	7	Sololá	719	Santiago Atitlán	14	Cerro de Oro	5	Mayo	2023-11-05T00:00:00	2024-11-08T00:00:00	7	Dirección del viento	6.44
148175	7	Sololá	719	Santiago Atitlán	14	Cerro de Oro	5	Mayo	2023-11-05T00:00:00	2024-11-08T00:00:00	1	Precipitación	0
148176	7	Sololá	719	Santiago Atitlán	14	Cerro de Oro	5	Mayo	2023-11-05T00:00:00	2024-11-08T00:00:00	8	Radiación solar	0
148177	7	Sololá	719	Santiago Atitlán	14	Cerro de Oro	5	Mayo	2023-11-05T00:00:00	2024-11-08T01:00:00	2	Temperatura media	16.3
148178	7	Sololá	719	Santiago Atitlán	14	Cerro de Oro	5	Mayo	2023-11-05T00:00:00	2024-11-08T01:00:00	4	Temperatura máxima	16.4
148179	7	Sololá	719	Santiago Atitlán	14	Cerro de Oro	5	Mayo	2023-11-05T00:00:00	2024-11-08T01:00:00	3	Temperatura mínima	15.7
148180	7	Sololá	719	Santiago Atitlán	14	Cerro de Oro	5	Mayo	2023-11-05T00:00:00	2024-11-08T01:00:00	5	Humedad	87
148181	7	Sololá	719	Santiago Atitlán	14	Cerro de Oro	5	Mayo	2023-11-05T00:00:00	2024-11-08T01:00:00	6	Velocidad del viento	8
148182	7	Sololá	719	Santiago Atitlán	14	Cerro de Oro	5	Mayo	2023-11-05T00:00:00	2024-11-08T01:00:00	7	Dirección del viento	8.05
148183	7	Sololá	719	Santiago Atitlán	14	Cerro de Oro	5	Mayo	2023-11-05T00:00:00	2024-11-08T01:00:00	1	Precipitación	0
148184	7	Sololá	719	Santiago Atitlán	14	Cerro de Oro	5	Mayo	2023-11-05T00:00:00	2024-11-08T01:00:00	8	Radiación solar	0
148185	7	Sololá	719	Santiago Atitlán	14	Cerro de Oro	5	Mayo	2023-11-05T00:00:00	2024-11-08T02:00:00	2	Temperatura media	16.6
148186	7	Sololá	719	Santiago Atitlán	14	Cerro de Oro	5	Mayo	2023-11-05T00:00:00	2024-11-08T02:00:00	4	Temperatura máxima	17.1
148187	7	Sololá	719	Santiago Atitlán	14	Cerro de Oro	5	Mayo	2023-11-05T00:00:00	2024-11-08T02:00:00	3	Temperatura mínima	16.2
148188	7	Sololá	719	Santiago Atitlán	14	Cerro de Oro	5	Mayo	2023-11-05T00:00:00	2024-11-08T02:00:00	5	Humedad	86
148189	7	Sololá	719	Santiago Atitlán	14	Cerro de Oro	5	Mayo	2023-11-05T00:00:00	2024-11-08T02:00:00	6	Velocidad del viento	4.8
148190	7	Sololá	719	Santiago Atitlán	14	Cerro de Oro	5	Mayo	2023-11-05T00:00:00	2024-11-08T02:00:00	7	Dirección del viento	4.83
148191	7	Sololá	719	Santiago Atitlán	14	Cerro de Oro	5	Mayo	2023-11-05T00:00:00	2024-11-08T02:00:00	1	Precipitación	0
148192	7	Sololá	719	Santiago Atitlán	14	Cerro de Oro	5	Mayo	2023-11-05T00:00:00	2024-11-08T02:00:00	8	Radiación solar	0
148193	7	Sololá	719	Santiago Atitlán	14	Cerro de Oro	5	Mayo	2023-11-05T00:00:00	2024-11-08T03:00:00	2	Temperatura media	16.8
148194	7	Sololá	719	Santiago Atitlán	14	Cerro de Oro	5	Mayo	2023-11-05T00:00:00	2024-11-08T03:00:00	4	Temperatura máxima	16.8
148195	7	Sololá	719	Santiago Atitlán	14	Cerro de Oro	5	Mayo	2023-11-05T00:00:00	2024-11-08T03:00:00	3	Temperatura mínima	16.2
148196	7	Sololá	719	Santiago Atitlán	14	Cerro de Oro	5	Mayo	2023-11-05T00:00:00	2024-11-08T03:00:00	5	Humedad	86
148197	7	Sololá	719	Santiago Atitlán	14	Cerro de Oro	5	Mayo	2023-11-05T00:00:00	2024-11-08T03:00:00	6	Velocidad del viento	6.4
148198	7	Sololá	719	Santiago Atitlán	14	Cerro de Oro	5	Mayo	2023-11-05T00:00:00	2024-11-08T03:00:00	7	Dirección del viento	6.44
148199	7	Sololá	719	Santiago Atitlán	14	Cerro de Oro	5	Mayo	2023-11-05T00:00:00	2024-11-08T03:00:00	1	Precipitación	0
148200	7	Sololá	719	Santiago Atitlán	14	Cerro de Oro	5	Mayo	2023-11-05T00:00:00	2024-11-08T03:00:00	8	Radiación solar	0
148201	7	Sololá	719	Santiago Atitlán	14	Cerro de Oro	5	Mayo	2023-11-05T00:00:00	2024-11-08T04:00:00	2	Temperatura media	16.5
148202	7	Sololá	719	Santiago Atitlán	14	Cerro de Oro	5	Mayo	2023-11-05T00:00:00	2024-11-08T04:00:00	4	Temperatura máxima	17.1
148203	7	Sololá	719	Santiago Atitlán	14	Cerro de Oro	5	Mayo	2023-11-05T00:00:00	2024-11-08T04:00:00	3	Temperatura mínima	16.5
148204	7	Sololá	719	Santiago Atitlán	14	Cerro de Oro	5	Mayo	2023-11-05T00:00:00	2024-11-08T04:00:00	5	Humedad	86
148205	7	Sololá	719	Santiago Atitlán	14	Cerro de Oro	5	Mayo	2023-11-05T00:00:00	2024-11-08T04:00:00	6	Velocidad del viento	3.2
148206	7	Sololá	719	Santiago Atitlán	14	Cerro de Oro	5	Mayo	2023-11-05T00:00:00	2024-11-08T04:00:00	7	Dirección del viento	3.22
148207	7	Sololá	719	Santiago Atitlán	14	Cerro de Oro	5	Mayo	2023-11-05T00:00:00	2024-11-08T04:00:00	1	Precipitación	0
148208	7	Sololá	719	Santiago Atitlán	14	Cerro de Oro	5	Mayo	2023-11-05T00:00:00	2024-11-08T04:00:00	8	Radiación solar	0
148209	7	Sololá	719	Santiago Atitlán	14	Cerro de Oro	5	Mayo	2023-11-05T00:00:00	2024-11-08T05:00:00	2	Temperatura media	16.6
148210	7	Sololá	719	Santiago Atitlán	14	Cerro de Oro	5	Mayo	2023-11-05T00:00:00	2024-11-08T05:00:00	4	Temperatura máxima	16.7
148211	7	Sololá	719	Santiago Atitlán	14	Cerro de Oro	5	Mayo	2023-11-05T00:00:00	2024-11-08T05:00:00	3	Temperatura mínima	16.4
148212	7	Sololá	719	Santiago Atitlán	14	Cerro de Oro	5	Mayo	2023-11-05T00:00:00	2024-11-08T05:00:00	5	Humedad	83
148213	7	Sololá	719	Santiago Atitlán	14	Cerro de Oro	5	Mayo	2023-11-05T00:00:00	2024-11-08T05:00:00	6	Velocidad del viento	4.8
148214	7	Sololá	719	Santiago Atitlán	14	Cerro de Oro	5	Mayo	2023-11-05T00:00:00	2024-11-08T05:00:00	7	Dirección del viento	4.83
148215	7	Sololá	719	Santiago Atitlán	14	Cerro de Oro	5	Mayo	2023-11-05T00:00:00	2024-11-08T05:00:00	1	Precipitación	0
148216	7	Sololá	719	Santiago Atitlán	14	Cerro de Oro	5	Mayo	2023-11-05T00:00:00	2024-11-08T05:00:00	8	Radiación solar	0
148217	7	Sololá	719	Santiago Atitlán	14	Cerro de Oro	5	Mayo	2023-11-05T00:00:00	2024-11-08T06:00:00	2	Temperatura media	16.3
148218	7	Sololá	719	Santiago Atitlán	14	Cerro de Oro	5	Mayo	2023-11-05T00:00:00	2024-11-08T06:00:00	4	Temperatura máxima	16.7
148219	7	Sololá	719	Santiago Atitlán	14	Cerro de Oro	5	Mayo	2023-11-05T00:00:00	2024-11-08T06:00:00	3	Temperatura mínima	16
148220	7	Sololá	719	Santiago Atitlán	14	Cerro de Oro	5	Mayo	2023-11-05T00:00:00	2024-11-08T06:00:00	5	Humedad	86
148221	7	Sololá	719	Santiago Atitlán	14	Cerro de Oro	5	Mayo	2023-11-05T00:00:00	2024-11-08T06:00:00	6	Velocidad del viento	3.2
148222	7	Sololá	719	Santiago Atitlán	14	Cerro de Oro	5	Mayo	2023-11-05T00:00:00	2024-11-08T06:00:00	7	Dirección del viento	3.22
148223	7	Sololá	719	Santiago Atitlán	14	Cerro de Oro	5	Mayo	2023-11-05T00:00:00	2024-11-08T06:00:00	1	Precipitación	0
148224	7	Sololá	719	Santiago Atitlán	14	Cerro de Oro	5	Mayo	2023-11-05T00:00:00	2024-11-08T06:00:00	8	Radiación solar	0
148225	7	Sololá	719	Santiago Atitlán	14	Cerro de Oro	5	Mayo	2023-11-05T00:00:00	2024-11-08T07:00:00	2	Temperatura media	16.1
148226	7	Sololá	719	Santiago Atitlán	14	Cerro de Oro	5	Mayo	2023-11-05T00:00:00	2024-11-08T07:00:00	4	Temperatura máxima	16.4
148227	7	Sololá	719	Santiago Atitlán	14	Cerro de Oro	5	Mayo	2023-11-05T00:00:00	2024-11-08T07:00:00	3	Temperatura mínima	16
148228	7	Sololá	719	Santiago Atitlán	14	Cerro de Oro	5	Mayo	2023-11-05T00:00:00	2024-11-08T07:00:00	5	Humedad	84
148229	7	Sololá	719	Santiago Atitlán	14	Cerro de Oro	5	Mayo	2023-11-05T00:00:00	2024-11-08T07:00:00	6	Velocidad del viento	4.8
148230	7	Sololá	719	Santiago Atitlán	14	Cerro de Oro	5	Mayo	2023-11-05T00:00:00	2024-11-08T07:00:00	7	Dirección del viento	4.83
148231	7	Sololá	719	Santiago Atitlán	14	Cerro de Oro	5	Mayo	2023-11-05T00:00:00	2024-11-08T07:00:00	1	Precipitación	0
148232	7	Sololá	719	Santiago Atitlán	14	Cerro de Oro	5	Mayo	2023-11-05T00:00:00	2024-11-08T07:00:00	8	Radiación solar	5
148233	7	Sololá	719	Santiago Atitlán	14	Cerro de Oro	5	Mayo	2023-11-05T00:00:00	2024-11-08T08:00:00	2	Temperatura media	17.6
148234	7	Sololá	719	Santiago Atitlán	14	Cerro de Oro	5	Mayo	2023-11-05T00:00:00	2024-11-08T08:00:00	4	Temperatura máxima	17.7
148235	7	Sololá	719	Santiago Atitlán	14	Cerro de Oro	5	Mayo	2023-11-05T00:00:00	2024-11-08T08:00:00	3	Temperatura mínima	16.1
148236	7	Sololá	719	Santiago Atitlán	14	Cerro de Oro	5	Mayo	2023-11-05T00:00:00	2024-11-08T08:00:00	5	Humedad	81
148237	7	Sololá	719	Santiago Atitlán	14	Cerro de Oro	5	Mayo	2023-11-05T00:00:00	2024-11-08T08:00:00	6	Velocidad del viento	3.2
148238	7	Sololá	719	Santiago Atitlán	14	Cerro de Oro	5	Mayo	2023-11-05T00:00:00	2024-11-08T08:00:00	7	Dirección del viento	3.22
148239	7	Sololá	719	Santiago Atitlán	14	Cerro de Oro	5	Mayo	2023-11-05T00:00:00	2024-11-08T08:00:00	1	Precipitación	0
148240	7	Sololá	719	Santiago Atitlán	14	Cerro de Oro	5	Mayo	2023-11-05T00:00:00	2024-11-08T08:00:00	8	Radiación solar	86
148241	7	Sololá	719	Santiago Atitlán	14	Cerro de Oro	5	Mayo	2023-11-05T00:00:00	2024-11-08T09:00:00	2	Temperatura media	19.7
148242	7	Sololá	719	Santiago Atitlán	14	Cerro de Oro	5	Mayo	2023-11-05T00:00:00	2024-11-08T09:00:00	4	Temperatura máxima	19.7
148243	7	Sololá	719	Santiago Atitlán	14	Cerro de Oro	5	Mayo	2023-11-05T00:00:00	2024-11-08T09:00:00	3	Temperatura mínima	17.7
148244	7	Sololá	719	Santiago Atitlán	14	Cerro de Oro	5	Mayo	2023-11-05T00:00:00	2024-11-08T09:00:00	5	Humedad	75
148245	7	Sololá	719	Santiago Atitlán	14	Cerro de Oro	5	Mayo	2023-11-05T00:00:00	2024-11-08T09:00:00	6	Velocidad del viento	3.2
148246	7	Sololá	719	Santiago Atitlán	14	Cerro de Oro	5	Mayo	2023-11-05T00:00:00	2024-11-08T09:00:00	7	Dirección del viento	3.22
148247	7	Sololá	719	Santiago Atitlán	14	Cerro de Oro	5	Mayo	2023-11-05T00:00:00	2024-11-08T09:00:00	1	Precipitación	0
148248	7	Sololá	719	Santiago Atitlán	14	Cerro de Oro	5	Mayo	2023-11-05T00:00:00	2024-11-08T09:00:00	8	Radiación solar	300
148249	7	Sololá	719	Santiago Atitlán	14	Cerro de Oro	5	Mayo	2023-11-05T00:00:00	2024-11-08T10:00:00	2	Temperatura media	20.6
148250	7	Sololá	719	Santiago Atitlán	14	Cerro de Oro	5	Mayo	2023-11-05T00:00:00	2024-11-08T10:00:00	4	Temperatura máxima	20.7
148251	7	Sololá	719	Santiago Atitlán	14	Cerro de Oro	5	Mayo	2023-11-05T00:00:00	2024-11-08T10:00:00	3	Temperatura mínima	19.6
148252	7	Sololá	719	Santiago Atitlán	14	Cerro de Oro	5	Mayo	2023-11-05T00:00:00	2024-11-08T10:00:00	5	Humedad	72
148253	7	Sololá	719	Santiago Atitlán	14	Cerro de Oro	5	Mayo	2023-11-05T00:00:00	2024-11-08T10:00:00	6	Velocidad del viento	4.8
148254	7	Sololá	719	Santiago Atitlán	14	Cerro de Oro	5	Mayo	2023-11-05T00:00:00	2024-11-08T10:00:00	7	Dirección del viento	4.83
148255	7	Sololá	719	Santiago Atitlán	14	Cerro de Oro	5	Mayo	2023-11-05T00:00:00	2024-11-08T10:00:00	1	Precipitación	0
148256	7	Sololá	719	Santiago Atitlán	14	Cerro de Oro	5	Mayo	2023-11-05T00:00:00	2024-11-08T10:00:00	8	Radiación solar	513
148257	7	Sololá	719	Santiago Atitlán	14	Cerro de Oro	5	Mayo	2023-11-05T00:00:00	2024-11-08T11:00:00	2	Temperatura media	21.6
148258	7	Sololá	719	Santiago Atitlán	14	Cerro de Oro	5	Mayo	2023-11-05T00:00:00	2024-11-08T11:00:00	4	Temperatura máxima	21.7
148259	7	Sololá	719	Santiago Atitlán	14	Cerro de Oro	5	Mayo	2023-11-05T00:00:00	2024-11-08T11:00:00	3	Temperatura mínima	20.5
148260	7	Sololá	719	Santiago Atitlán	14	Cerro de Oro	5	Mayo	2023-11-05T00:00:00	2024-11-08T11:00:00	5	Humedad	72
148261	7	Sololá	719	Santiago Atitlán	14	Cerro de Oro	5	Mayo	2023-11-05T00:00:00	2024-11-08T11:00:00	6	Velocidad del viento	4.8
148262	7	Sololá	719	Santiago Atitlán	14	Cerro de Oro	5	Mayo	2023-11-05T00:00:00	2024-11-08T11:00:00	7	Dirección del viento	4.83
148263	7	Sololá	719	Santiago Atitlán	14	Cerro de Oro	5	Mayo	2023-11-05T00:00:00	2024-11-08T11:00:00	1	Precipitación	0
148264	7	Sololá	719	Santiago Atitlán	14	Cerro de Oro	5	Mayo	2023-11-05T00:00:00	2024-11-08T11:00:00	8	Radiación solar	723
148265	7	Sololá	719	Santiago Atitlán	14	Cerro de Oro	5	Mayo	2023-11-05T00:00:00	2024-11-08T12:00:00	2	Temperatura media	23.6
148266	7	Sololá	719	Santiago Atitlán	14	Cerro de Oro	5	Mayo	2023-11-05T00:00:00	2024-11-08T12:00:00	4	Temperatura máxima	23.7
148267	7	Sololá	719	Santiago Atitlán	14	Cerro de Oro	5	Mayo	2023-11-05T00:00:00	2024-11-08T12:00:00	3	Temperatura mínima	21.6
148268	7	Sololá	719	Santiago Atitlán	14	Cerro de Oro	5	Mayo	2023-11-05T00:00:00	2024-11-08T12:00:00	5	Humedad	62
148269	7	Sololá	719	Santiago Atitlán	14	Cerro de Oro	5	Mayo	2023-11-05T00:00:00	2024-11-08T12:00:00	6	Velocidad del viento	6.4
148270	7	Sololá	719	Santiago Atitlán	14	Cerro de Oro	5	Mayo	2023-11-05T00:00:00	2024-11-08T12:00:00	7	Dirección del viento	6.44
148271	7	Sololá	719	Santiago Atitlán	14	Cerro de Oro	5	Mayo	2023-11-05T00:00:00	2024-11-08T12:00:00	1	Precipitación	0
148272	7	Sololá	719	Santiago Atitlán	14	Cerro de Oro	5	Mayo	2023-11-05T00:00:00	2024-11-08T12:00:00	8	Radiación solar	841
148273	7	Sololá	719	Santiago Atitlán	14	Cerro de Oro	5	Mayo	2023-11-05T00:00:00	2024-11-08T13:00:00	2	Temperatura media	24.2
148274	7	Sololá	719	Santiago Atitlán	14	Cerro de Oro	5	Mayo	2023-11-05T00:00:00	2024-11-08T13:00:00	4	Temperatura máxima	24.3
148275	7	Sololá	719	Santiago Atitlán	14	Cerro de Oro	5	Mayo	2023-11-05T00:00:00	2024-11-08T13:00:00	3	Temperatura mínima	23.6
148276	7	Sololá	719	Santiago Atitlán	14	Cerro de Oro	5	Mayo	2023-11-05T00:00:00	2024-11-08T13:00:00	5	Humedad	66
148277	7	Sololá	719	Santiago Atitlán	14	Cerro de Oro	5	Mayo	2023-11-05T00:00:00	2024-11-08T13:00:00	6	Velocidad del viento	11.3
148278	7	Sololá	719	Santiago Atitlán	14	Cerro de Oro	5	Mayo	2023-11-05T00:00:00	2024-11-08T13:00:00	7	Dirección del viento	11.27
148279	7	Sololá	719	Santiago Atitlán	14	Cerro de Oro	5	Mayo	2023-11-05T00:00:00	2024-11-08T13:00:00	1	Precipitación	0
148280	7	Sololá	719	Santiago Atitlán	14	Cerro de Oro	5	Mayo	2023-11-05T00:00:00	2024-11-08T13:00:00	8	Radiación solar	944
148281	7	Sololá	719	Santiago Atitlán	14	Cerro de Oro	5	Mayo	2023-11-05T00:00:00	2024-11-08T14:00:00	2	Temperatura media	22.7
148282	7	Sololá	719	Santiago Atitlán	14	Cerro de Oro	5	Mayo	2023-11-05T00:00:00	2024-11-08T14:00:00	4	Temperatura máxima	24.2
148283	7	Sololá	719	Santiago Atitlán	14	Cerro de Oro	5	Mayo	2023-11-05T00:00:00	2024-11-08T14:00:00	3	Temperatura mínima	22.7
148284	7	Sololá	719	Santiago Atitlán	14	Cerro de Oro	5	Mayo	2023-11-05T00:00:00	2024-11-08T14:00:00	5	Humedad	72
148285	7	Sololá	719	Santiago Atitlán	14	Cerro de Oro	5	Mayo	2023-11-05T00:00:00	2024-11-08T14:00:00	6	Velocidad del viento	9.7
148286	7	Sololá	719	Santiago Atitlán	14	Cerro de Oro	5	Mayo	2023-11-05T00:00:00	2024-11-08T14:00:00	7	Dirección del viento	9.66
148287	7	Sololá	719	Santiago Atitlán	14	Cerro de Oro	5	Mayo	2023-11-05T00:00:00	2024-11-08T14:00:00	1	Precipitación	0
148288	7	Sololá	719	Santiago Atitlán	14	Cerro de Oro	5	Mayo	2023-11-05T00:00:00	2024-11-08T14:00:00	8	Radiación solar	497
148289	7	Sololá	719	Santiago Atitlán	14	Cerro de Oro	5	Mayo	2023-11-05T00:00:00	2024-11-08T15:00:00	2	Temperatura media	21.8
148290	7	Sololá	719	Santiago Atitlán	14	Cerro de Oro	5	Mayo	2023-11-05T00:00:00	2024-11-08T15:00:00	4	Temperatura máxima	22.8
148291	7	Sololá	719	Santiago Atitlán	14	Cerro de Oro	5	Mayo	2023-11-05T00:00:00	2024-11-08T15:00:00	3	Temperatura mínima	21.8
148292	7	Sololá	719	Santiago Atitlán	14	Cerro de Oro	5	Mayo	2023-11-05T00:00:00	2024-11-08T15:00:00	5	Humedad	76
148293	7	Sololá	719	Santiago Atitlán	14	Cerro de Oro	5	Mayo	2023-11-05T00:00:00	2024-11-08T15:00:00	6	Velocidad del viento	9.7
148294	7	Sololá	719	Santiago Atitlán	14	Cerro de Oro	5	Mayo	2023-11-05T00:00:00	2024-11-08T15:00:00	7	Dirección del viento	9.66
148295	7	Sololá	719	Santiago Atitlán	14	Cerro de Oro	5	Mayo	2023-11-05T00:00:00	2024-11-08T15:00:00	1	Precipitación	0
148296	7	Sololá	719	Santiago Atitlán	14	Cerro de Oro	5	Mayo	2023-11-05T00:00:00	2024-11-08T15:00:00	8	Radiación solar	186
148297	7	Sololá	719	Santiago Atitlán	14	Cerro de Oro	5	Mayo	2023-11-05T00:00:00	2024-11-08T16:00:00	2	Temperatura media	21.3
148298	7	Sololá	719	Santiago Atitlán	14	Cerro de Oro	5	Mayo	2023-11-05T00:00:00	2024-11-08T16:00:00	4	Temperatura máxima	22.3
148299	7	Sololá	719	Santiago Atitlán	14	Cerro de Oro	5	Mayo	2023-11-05T00:00:00	2024-11-08T16:00:00	3	Temperatura mínima	21.3
148300	7	Sololá	719	Santiago Atitlán	14	Cerro de Oro	5	Mayo	2023-11-05T00:00:00	2024-11-08T16:00:00	5	Humedad	81
148301	7	Sololá	719	Santiago Atitlán	14	Cerro de Oro	5	Mayo	2023-11-05T00:00:00	2024-11-08T16:00:00	6	Velocidad del viento	9.7
148302	7	Sololá	719	Santiago Atitlán	14	Cerro de Oro	5	Mayo	2023-11-05T00:00:00	2024-11-08T16:00:00	7	Dirección del viento	9.66
148303	7	Sololá	719	Santiago Atitlán	14	Cerro de Oro	5	Mayo	2023-11-05T00:00:00	2024-11-08T16:00:00	1	Precipitación	0
148304	7	Sololá	719	Santiago Atitlán	14	Cerro de Oro	5	Mayo	2023-11-05T00:00:00	2024-11-08T16:00:00	8	Radiación solar	167
148305	7	Sololá	719	Santiago Atitlán	14	Cerro de Oro	5	Mayo	2023-11-05T00:00:00	2024-11-08T17:00:00	2	Temperatura media	21
148306	7	Sololá	719	Santiago Atitlán	14	Cerro de Oro	5	Mayo	2023-11-05T00:00:00	2024-11-08T17:00:00	4	Temperatura máxima	21.3
148307	7	Sololá	719	Santiago Atitlán	14	Cerro de Oro	5	Mayo	2023-11-05T00:00:00	2024-11-08T17:00:00	3	Temperatura mínima	20.9
148308	7	Sololá	719	Santiago Atitlán	14	Cerro de Oro	5	Mayo	2023-11-05T00:00:00	2024-11-08T17:00:00	5	Humedad	83
148309	7	Sololá	719	Santiago Atitlán	14	Cerro de Oro	5	Mayo	2023-11-05T00:00:00	2024-11-08T17:00:00	6	Velocidad del viento	8
148310	7	Sololá	719	Santiago Atitlán	14	Cerro de Oro	5	Mayo	2023-11-05T00:00:00	2024-11-08T17:00:00	7	Dirección del viento	8.05
148311	7	Sololá	719	Santiago Atitlán	14	Cerro de Oro	5	Mayo	2023-11-05T00:00:00	2024-11-08T17:00:00	1	Precipitación	0
148312	7	Sololá	719	Santiago Atitlán	14	Cerro de Oro	5	Mayo	2023-11-05T00:00:00	2024-11-08T17:00:00	8	Radiación solar	132
148313	7	Sololá	719	Santiago Atitlán	14	Cerro de Oro	5	Mayo	2023-11-05T00:00:00	2024-11-08T18:00:00	2	Temperatura media	20.8
148314	7	Sololá	719	Santiago Atitlán	14	Cerro de Oro	5	Mayo	2023-11-05T00:00:00	2024-11-08T18:00:00	4	Temperatura máxima	21.2
148315	7	Sololá	719	Santiago Atitlán	14	Cerro de Oro	5	Mayo	2023-11-05T00:00:00	2024-11-08T18:00:00	3	Temperatura mínima	20.8
148316	7	Sololá	719	Santiago Atitlán	14	Cerro de Oro	5	Mayo	2023-11-05T00:00:00	2024-11-08T18:00:00	5	Humedad	82
148317	7	Sololá	719	Santiago Atitlán	14	Cerro de Oro	5	Mayo	2023-11-05T00:00:00	2024-11-08T18:00:00	6	Velocidad del viento	4.8
148318	7	Sololá	719	Santiago Atitlán	14	Cerro de Oro	5	Mayo	2023-11-05T00:00:00	2024-11-08T18:00:00	7	Dirección del viento	4.83
148319	7	Sololá	719	Santiago Atitlán	14	Cerro de Oro	5	Mayo	2023-11-05T00:00:00	2024-11-08T18:00:00	1	Precipitación	0
148320	7	Sololá	719	Santiago Atitlán	14	Cerro de Oro	5	Mayo	2023-11-05T00:00:00	2024-11-08T18:00:00	8	Radiación solar	80
148321	7	Sololá	719	Santiago Atitlán	14	Cerro de Oro	5	Mayo	2023-11-05T00:00:00	2024-11-08T19:00:00	2	Temperatura media	20.8
148322	7	Sololá	719	Santiago Atitlán	14	Cerro de Oro	5	Mayo	2023-11-05T00:00:00	2024-11-08T19:00:00	4	Temperatura máxima	20.9
148323	7	Sololá	719	Santiago Atitlán	14	Cerro de Oro	5	Mayo	2023-11-05T00:00:00	2024-11-08T19:00:00	3	Temperatura mínima	20.7
148324	7	Sololá	719	Santiago Atitlán	14	Cerro de Oro	5	Mayo	2023-11-05T00:00:00	2024-11-08T19:00:00	5	Humedad	81
148325	7	Sololá	719	Santiago Atitlán	14	Cerro de Oro	5	Mayo	2023-11-05T00:00:00	2024-11-08T19:00:00	6	Velocidad del viento	1.6
148326	7	Sololá	719	Santiago Atitlán	14	Cerro de Oro	5	Mayo	2023-11-05T00:00:00	2024-11-08T19:00:00	7	Dirección del viento	1.61
148327	7	Sololá	719	Santiago Atitlán	14	Cerro de Oro	5	Mayo	2023-11-05T00:00:00	2024-11-08T19:00:00	1	Precipitación	0
148328	7	Sololá	719	Santiago Atitlán	14	Cerro de Oro	5	Mayo	2023-11-05T00:00:00	2024-11-08T19:00:00	8	Radiación solar	0
148329	7	Sololá	719	Santiago Atitlán	14	Cerro de Oro	5	Mayo	2023-11-05T00:00:00	2024-11-08T20:00:00	2	Temperatura media	19.4
148330	7	Sololá	719	Santiago Atitlán	14	Cerro de Oro	5	Mayo	2023-11-05T00:00:00	2024-11-08T20:00:00	4	Temperatura máxima	20.8
148331	7	Sololá	719	Santiago Atitlán	14	Cerro de Oro	5	Mayo	2023-11-05T00:00:00	2024-11-08T20:00:00	3	Temperatura mínima	19.4
148332	7	Sololá	719	Santiago Atitlán	14	Cerro de Oro	5	Mayo	2023-11-05T00:00:00	2024-11-08T20:00:00	5	Humedad	86
148333	7	Sololá	719	Santiago Atitlán	14	Cerro de Oro	5	Mayo	2023-11-05T00:00:00	2024-11-08T20:00:00	6	Velocidad del viento	3.2
148334	7	Sololá	719	Santiago Atitlán	14	Cerro de Oro	5	Mayo	2023-11-05T00:00:00	2024-11-08T20:00:00	7	Dirección del viento	3.22
148335	7	Sololá	719	Santiago Atitlán	14	Cerro de Oro	5	Mayo	2023-11-05T00:00:00	2024-11-08T20:00:00	1	Precipitación	0
148336	7	Sololá	719	Santiago Atitlán	14	Cerro de Oro	5	Mayo	2023-11-05T00:00:00	2024-11-08T20:00:00	8	Radiación solar	0
148337	7	Sololá	719	Santiago Atitlán	14	Cerro de Oro	5	Mayo	2023-11-05T00:00:00	2024-11-08T21:00:00	2	Temperatura media	19.6
148338	7	Sololá	719	Santiago Atitlán	14	Cerro de Oro	5	Mayo	2023-11-05T00:00:00	2024-11-08T21:00:00	4	Temperatura máxima	19.8
148339	7	Sololá	719	Santiago Atitlán	14	Cerro de Oro	5	Mayo	2023-11-05T00:00:00	2024-11-08T21:00:00	3	Temperatura mínima	19.3
148340	7	Sololá	719	Santiago Atitlán	14	Cerro de Oro	5	Mayo	2023-11-05T00:00:00	2024-11-08T21:00:00	5	Humedad	83
148341	7	Sololá	719	Santiago Atitlán	14	Cerro de Oro	5	Mayo	2023-11-05T00:00:00	2024-11-08T21:00:00	6	Velocidad del viento	4.8
148342	7	Sololá	719	Santiago Atitlán	14	Cerro de Oro	5	Mayo	2023-11-05T00:00:00	2024-11-08T21:00:00	7	Dirección del viento	4.83
148343	7	Sololá	719	Santiago Atitlán	14	Cerro de Oro	5	Mayo	2023-11-05T00:00:00	2024-11-08T21:00:00	1	Precipitación	0
148344	7	Sololá	719	Santiago Atitlán	14	Cerro de Oro	5	Mayo	2023-11-05T00:00:00	2024-11-08T21:00:00	8	Radiación solar	0
148345	7	Sololá	719	Santiago Atitlán	14	Cerro de Oro	5	Mayo	2023-11-05T00:00:00	2024-11-08T22:00:00	2	Temperatura media	18.9
148346	7	Sololá	719	Santiago Atitlán	14	Cerro de Oro	5	Mayo	2023-11-05T00:00:00	2024-11-08T22:00:00	4	Temperatura máxima	19.6
148347	7	Sololá	719	Santiago Atitlán	14	Cerro de Oro	5	Mayo	2023-11-05T00:00:00	2024-11-08T22:00:00	3	Temperatura mínima	18.9
148348	7	Sololá	719	Santiago Atitlán	14	Cerro de Oro	5	Mayo	2023-11-05T00:00:00	2024-11-08T22:00:00	5	Humedad	84
148349	7	Sololá	719	Santiago Atitlán	14	Cerro de Oro	5	Mayo	2023-11-05T00:00:00	2024-11-08T22:00:00	6	Velocidad del viento	4.8
148350	7	Sololá	719	Santiago Atitlán	14	Cerro de Oro	5	Mayo	2023-11-05T00:00:00	2024-11-08T22:00:00	7	Dirección del viento	4.83
148351	7	Sololá	719	Santiago Atitlán	14	Cerro de Oro	5	Mayo	2023-11-05T00:00:00	2024-11-08T22:00:00	1	Precipitación	0
148352	7	Sololá	719	Santiago Atitlán	14	Cerro de Oro	5	Mayo	2023-11-05T00:00:00	2024-11-08T22:00:00	8	Radiación solar	0
148353	7	Sololá	719	Santiago Atitlán	14	Cerro de Oro	5	Mayo	2023-11-05T00:00:00	2024-11-08T23:00:00	2	Temperatura media	19.4
148354	7	Sololá	719	Santiago Atitlán	14	Cerro de Oro	5	Mayo	2023-11-05T00:00:00	2024-11-08T23:00:00	4	Temperatura máxima	19.4
148355	7	Sololá	719	Santiago Atitlán	14	Cerro de Oro	5	Mayo	2023-11-05T00:00:00	2024-11-08T23:00:00	3	Temperatura mínima	18.8
148356	7	Sololá	719	Santiago Atitlán	14	Cerro de Oro	5	Mayo	2023-11-05T00:00:00	2024-11-08T23:00:00	5	Humedad	83
148357	7	Sololá	719	Santiago Atitlán	14	Cerro de Oro	5	Mayo	2023-11-05T00:00:00	2024-11-08T23:00:00	6	Velocidad del viento	4.8
148358	7	Sololá	719	Santiago Atitlán	14	Cerro de Oro	5	Mayo	2023-11-05T00:00:00	2024-11-08T23:00:00	7	Dirección del viento	4.83
148359	7	Sololá	719	Santiago Atitlán	14	Cerro de Oro	5	Mayo	2023-11-05T00:00:00	2024-11-08T23:00:00	1	Precipitación	0
148360	7	Sololá	719	Santiago Atitlán	14	Cerro de Oro	5	Mayo	2023-11-05T00:00:00	2024-11-08T23:00:00	8	Radiación solar	0
148361	7	Sololá	719	Santiago Atitlán	14	Cerro de Oro	5	Mayo	2023-12-05T00:00:00	2024-11-08T00:00:00	2	Temperatura media	18.9
148362	7	Sololá	719	Santiago Atitlán	14	Cerro de Oro	5	Mayo	2023-12-05T00:00:00	2024-11-08T00:00:00	4	Temperatura máxima	19.5
148363	7	Sololá	719	Santiago Atitlán	14	Cerro de Oro	5	Mayo	2023-12-05T00:00:00	2024-11-08T00:00:00	3	Temperatura mínima	18.8
148364	7	Sololá	719	Santiago Atitlán	14	Cerro de Oro	5	Mayo	2023-12-05T00:00:00	2024-11-08T00:00:00	5	Humedad	84
148365	7	Sololá	719	Santiago Atitlán	14	Cerro de Oro	5	Mayo	2023-12-05T00:00:00	2024-11-08T00:00:00	6	Velocidad del viento	3.2
148366	7	Sololá	719	Santiago Atitlán	14	Cerro de Oro	5	Mayo	2023-12-05T00:00:00	2024-11-08T00:00:00	7	Dirección del viento	3.22
148367	7	Sololá	719	Santiago Atitlán	14	Cerro de Oro	5	Mayo	2023-12-05T00:00:00	2024-11-08T00:00:00	1	Precipitación	0
148368	7	Sololá	719	Santiago Atitlán	14	Cerro de Oro	5	Mayo	2023-12-05T00:00:00	2024-11-08T00:00:00	8	Radiación solar	0
148369	7	Sololá	719	Santiago Atitlán	14	Cerro de Oro	5	Mayo	2023-12-05T00:00:00	2024-11-08T01:00:00	2	Temperatura media	19.1
148370	7	Sololá	719	Santiago Atitlán	14	Cerro de Oro	5	Mayo	2023-12-05T00:00:00	2024-11-08T01:00:00	4	Temperatura máxima	19.1
148371	7	Sololá	719	Santiago Atitlán	14	Cerro de Oro	5	Mayo	2023-12-05T00:00:00	2024-11-08T01:00:00	3	Temperatura mínima	18.8
148372	7	Sololá	719	Santiago Atitlán	14	Cerro de Oro	5	Mayo	2023-12-05T00:00:00	2024-11-08T01:00:00	5	Humedad	84
148373	7	Sololá	719	Santiago Atitlán	14	Cerro de Oro	5	Mayo	2023-12-05T00:00:00	2024-11-08T01:00:00	6	Velocidad del viento	3.2
148374	7	Sololá	719	Santiago Atitlán	14	Cerro de Oro	5	Mayo	2023-12-05T00:00:00	2024-11-08T01:00:00	7	Dirección del viento	3.22
148375	7	Sololá	719	Santiago Atitlán	14	Cerro de Oro	5	Mayo	2023-12-05T00:00:00	2024-11-08T01:00:00	1	Precipitación	0
148376	7	Sololá	719	Santiago Atitlán	14	Cerro de Oro	5	Mayo	2023-12-05T00:00:00	2024-11-08T01:00:00	8	Radiación solar	0
148377	7	Sololá	719	Santiago Atitlán	14	Cerro de Oro	5	Mayo	2023-12-05T00:00:00	2024-11-08T02:00:00	2	Temperatura media	18.6
148378	7	Sololá	719	Santiago Atitlán	14	Cerro de Oro	5	Mayo	2023-12-05T00:00:00	2024-11-08T02:00:00	4	Temperatura máxima	19.1
148379	7	Sololá	719	Santiago Atitlán	14	Cerro de Oro	5	Mayo	2023-12-05T00:00:00	2024-11-08T02:00:00	3	Temperatura mínima	18.6
148380	7	Sololá	719	Santiago Atitlán	14	Cerro de Oro	5	Mayo	2023-12-05T00:00:00	2024-11-08T02:00:00	5	Humedad	86
148381	7	Sololá	719	Santiago Atitlán	14	Cerro de Oro	5	Mayo	2023-12-05T00:00:00	2024-11-08T02:00:00	6	Velocidad del viento	1.6
148382	7	Sololá	719	Santiago Atitlán	14	Cerro de Oro	5	Mayo	2023-12-05T00:00:00	2024-11-08T02:00:00	7	Dirección del viento	1.61
148383	7	Sololá	719	Santiago Atitlán	14	Cerro de Oro	5	Mayo	2023-12-05T00:00:00	2024-11-08T02:00:00	1	Precipitación	0
148384	7	Sololá	719	Santiago Atitlán	14	Cerro de Oro	5	Mayo	2023-12-05T00:00:00	2024-11-08T02:00:00	8	Radiación solar	0
148385	7	Sololá	719	Santiago Atitlán	14	Cerro de Oro	5	Mayo	2023-12-05T00:00:00	2024-11-08T03:00:00	2	Temperatura media	17.8
148386	7	Sololá	719	Santiago Atitlán	14	Cerro de Oro	5	Mayo	2023-12-05T00:00:00	2024-11-08T03:00:00	4	Temperatura máxima	18.6
148387	7	Sololá	719	Santiago Atitlán	14	Cerro de Oro	5	Mayo	2023-12-05T00:00:00	2024-11-08T03:00:00	3	Temperatura mínima	17.8
148388	7	Sololá	719	Santiago Atitlán	14	Cerro de Oro	5	Mayo	2023-12-05T00:00:00	2024-11-08T03:00:00	5	Humedad	88
148389	7	Sololá	719	Santiago Atitlán	14	Cerro de Oro	5	Mayo	2023-12-05T00:00:00	2024-11-08T03:00:00	6	Velocidad del viento	3.2
148390	7	Sololá	719	Santiago Atitlán	14	Cerro de Oro	5	Mayo	2023-12-05T00:00:00	2024-11-08T03:00:00	7	Dirección del viento	3.22
148391	7	Sololá	719	Santiago Atitlán	14	Cerro de Oro	5	Mayo	2023-12-05T00:00:00	2024-11-08T03:00:00	1	Precipitación	0
148392	7	Sololá	719	Santiago Atitlán	14	Cerro de Oro	5	Mayo	2023-12-05T00:00:00	2024-11-08T03:00:00	8	Radiación solar	0
148393	7	Sololá	719	Santiago Atitlán	14	Cerro de Oro	5	Mayo	2023-12-05T00:00:00	2024-11-08T04:00:00	2	Temperatura media	18.6
148394	7	Sololá	719	Santiago Atitlán	14	Cerro de Oro	5	Mayo	2023-12-05T00:00:00	2024-11-08T04:00:00	4	Temperatura máxima	18.6
148395	7	Sololá	719	Santiago Atitlán	14	Cerro de Oro	5	Mayo	2023-12-05T00:00:00	2024-11-08T04:00:00	3	Temperatura mínima	17.6
148396	7	Sololá	719	Santiago Atitlán	14	Cerro de Oro	5	Mayo	2023-12-05T00:00:00	2024-11-08T04:00:00	5	Humedad	85
148397	7	Sololá	719	Santiago Atitlán	14	Cerro de Oro	5	Mayo	2023-12-05T00:00:00	2024-11-08T04:00:00	6	Velocidad del viento	4.8
148398	7	Sololá	719	Santiago Atitlán	14	Cerro de Oro	5	Mayo	2023-12-05T00:00:00	2024-11-08T04:00:00	7	Dirección del viento	4.83
148399	7	Sololá	719	Santiago Atitlán	14	Cerro de Oro	5	Mayo	2023-12-05T00:00:00	2024-11-08T04:00:00	1	Precipitación	0
148400	7	Sololá	719	Santiago Atitlán	14	Cerro de Oro	5	Mayo	2023-12-05T00:00:00	2024-11-08T04:00:00	8	Radiación solar	0
148401	7	Sololá	719	Santiago Atitlán	14	Cerro de Oro	5	Mayo	2023-12-05T00:00:00	2024-11-08T05:00:00	2	Temperatura media	18.2
148402	7	Sololá	719	Santiago Atitlán	14	Cerro de Oro	5	Mayo	2023-12-05T00:00:00	2024-11-08T05:00:00	4	Temperatura máxima	18.6
148403	7	Sololá	719	Santiago Atitlán	14	Cerro de Oro	5	Mayo	2023-12-05T00:00:00	2024-11-08T05:00:00	3	Temperatura mínima	17.9
148404	7	Sololá	719	Santiago Atitlán	14	Cerro de Oro	5	Mayo	2023-12-05T00:00:00	2024-11-08T05:00:00	5	Humedad	86
148405	7	Sololá	719	Santiago Atitlán	14	Cerro de Oro	5	Mayo	2023-12-05T00:00:00	2024-11-08T05:00:00	6	Velocidad del viento	3.2
148406	7	Sololá	719	Santiago Atitlán	14	Cerro de Oro	5	Mayo	2023-12-05T00:00:00	2024-11-08T05:00:00	7	Dirección del viento	3.22
148407	7	Sololá	719	Santiago Atitlán	14	Cerro de Oro	5	Mayo	2023-12-05T00:00:00	2024-11-08T05:00:00	1	Precipitación	0
148408	7	Sololá	719	Santiago Atitlán	14	Cerro de Oro	5	Mayo	2023-12-05T00:00:00	2024-11-08T05:00:00	8	Radiación solar	0
148409	7	Sololá	719	Santiago Atitlán	14	Cerro de Oro	5	Mayo	2023-12-05T00:00:00	2024-11-08T06:00:00	2	Temperatura media	17.8
148410	7	Sololá	719	Santiago Atitlán	14	Cerro de Oro	5	Mayo	2023-12-05T00:00:00	2024-11-08T06:00:00	4	Temperatura máxima	18.1
148411	7	Sololá	719	Santiago Atitlán	14	Cerro de Oro	5	Mayo	2023-12-05T00:00:00	2024-11-08T06:00:00	3	Temperatura mínima	17.5
148412	7	Sololá	719	Santiago Atitlán	14	Cerro de Oro	5	Mayo	2023-12-05T00:00:00	2024-11-08T06:00:00	5	Humedad	86
148413	7	Sololá	719	Santiago Atitlán	14	Cerro de Oro	5	Mayo	2023-12-05T00:00:00	2024-11-08T06:00:00	6	Velocidad del viento	4.8
148414	7	Sololá	719	Santiago Atitlán	14	Cerro de Oro	5	Mayo	2023-12-05T00:00:00	2024-11-08T06:00:00	7	Dirección del viento	4.83
148415	7	Sololá	719	Santiago Atitlán	14	Cerro de Oro	5	Mayo	2023-12-05T00:00:00	2024-11-08T06:00:00	1	Precipitación	0
148416	7	Sololá	719	Santiago Atitlán	14	Cerro de Oro	5	Mayo	2023-12-05T00:00:00	2024-11-08T06:00:00	8	Radiación solar	0
148417	7	Sololá	719	Santiago Atitlán	14	Cerro de Oro	5	Mayo	2023-12-05T00:00:00	2024-11-08T07:00:00	2	Temperatura media	17.9
148418	7	Sololá	719	Santiago Atitlán	14	Cerro de Oro	5	Mayo	2023-12-05T00:00:00	2024-11-08T07:00:00	4	Temperatura máxima	17.9
148419	7	Sololá	719	Santiago Atitlán	14	Cerro de Oro	5	Mayo	2023-12-05T00:00:00	2024-11-08T07:00:00	3	Temperatura mínima	17.5
148420	7	Sololá	719	Santiago Atitlán	14	Cerro de Oro	5	Mayo	2023-12-05T00:00:00	2024-11-08T07:00:00	5	Humedad	85
148421	7	Sololá	719	Santiago Atitlán	14	Cerro de Oro	5	Mayo	2023-12-05T00:00:00	2024-11-08T07:00:00	6	Velocidad del viento	3.2
148422	7	Sololá	719	Santiago Atitlán	14	Cerro de Oro	5	Mayo	2023-12-05T00:00:00	2024-11-08T07:00:00	7	Dirección del viento	3.22
148423	7	Sololá	719	Santiago Atitlán	14	Cerro de Oro	5	Mayo	2023-12-05T00:00:00	2024-11-08T07:00:00	1	Precipitación	0
148424	7	Sololá	719	Santiago Atitlán	14	Cerro de Oro	5	Mayo	2023-12-05T00:00:00	2024-11-08T07:00:00	8	Radiación solar	7
148425	7	Sololá	719	Santiago Atitlán	14	Cerro de Oro	5	Mayo	2023-12-05T00:00:00	2024-11-08T08:00:00	2	Temperatura media	19.4
148426	7	Sololá	719	Santiago Atitlán	14	Cerro de Oro	5	Mayo	2023-12-05T00:00:00	2024-11-08T08:00:00	4	Temperatura máxima	19.4
148427	7	Sololá	719	Santiago Atitlán	14	Cerro de Oro	5	Mayo	2023-12-05T00:00:00	2024-11-08T08:00:00	3	Temperatura mínima	17.9
148428	7	Sololá	719	Santiago Atitlán	14	Cerro de Oro	5	Mayo	2023-12-05T00:00:00	2024-11-08T08:00:00	5	Humedad	82
148429	7	Sololá	719	Santiago Atitlán	14	Cerro de Oro	5	Mayo	2023-12-05T00:00:00	2024-11-08T08:00:00	6	Velocidad del viento	4.8
148430	7	Sololá	719	Santiago Atitlán	14	Cerro de Oro	5	Mayo	2023-12-05T00:00:00	2024-11-08T08:00:00	7	Dirección del viento	4.83
148431	7	Sololá	719	Santiago Atitlán	14	Cerro de Oro	5	Mayo	2023-12-05T00:00:00	2024-11-08T08:00:00	1	Precipitación	0
148432	7	Sololá	719	Santiago Atitlán	14	Cerro de Oro	5	Mayo	2023-12-05T00:00:00	2024-11-08T08:00:00	8	Radiación solar	100
148433	7	Sololá	719	Santiago Atitlán	14	Cerro de Oro	5	Mayo	2023-12-05T00:00:00	2024-11-08T09:00:00	2	Temperatura media	20.5
148434	7	Sololá	719	Santiago Atitlán	14	Cerro de Oro	5	Mayo	2023-12-05T00:00:00	2024-11-08T09:00:00	4	Temperatura máxima	20.6
148435	7	Sololá	719	Santiago Atitlán	14	Cerro de Oro	5	Mayo	2023-12-05T00:00:00	2024-11-08T09:00:00	3	Temperatura mínima	19.3
148436	7	Sololá	719	Santiago Atitlán	14	Cerro de Oro	5	Mayo	2023-12-05T00:00:00	2024-11-08T09:00:00	5	Humedad	78
148437	7	Sololá	719	Santiago Atitlán	14	Cerro de Oro	5	Mayo	2023-12-05T00:00:00	2024-11-08T09:00:00	6	Velocidad del viento	1.6
148438	7	Sololá	719	Santiago Atitlán	14	Cerro de Oro	5	Mayo	2023-12-05T00:00:00	2024-11-08T09:00:00	7	Dirección del viento	1.61
148439	7	Sololá	719	Santiago Atitlán	14	Cerro de Oro	5	Mayo	2023-12-05T00:00:00	2024-11-08T09:00:00	1	Precipitación	0
148440	7	Sololá	719	Santiago Atitlán	14	Cerro de Oro	5	Mayo	2023-12-05T00:00:00	2024-11-08T09:00:00	8	Radiación solar	225
148441	7	Sololá	719	Santiago Atitlán	14	Cerro de Oro	5	Mayo	2023-12-05T00:00:00	2024-11-08T10:00:00	2	Temperatura media	20.6
148442	7	Sololá	719	Santiago Atitlán	14	Cerro de Oro	5	Mayo	2023-12-05T00:00:00	2024-11-08T10:00:00	4	Temperatura máxima	20.8
148443	7	Sololá	719	Santiago Atitlán	14	Cerro de Oro	5	Mayo	2023-12-05T00:00:00	2024-11-08T10:00:00	3	Temperatura mínima	20.1
148444	7	Sololá	719	Santiago Atitlán	14	Cerro de Oro	5	Mayo	2023-12-05T00:00:00	2024-11-08T10:00:00	5	Humedad	81
148445	7	Sololá	719	Santiago Atitlán	14	Cerro de Oro	5	Mayo	2023-12-05T00:00:00	2024-11-08T10:00:00	6	Velocidad del viento	3.2
148446	7	Sololá	719	Santiago Atitlán	14	Cerro de Oro	5	Mayo	2023-12-05T00:00:00	2024-11-08T10:00:00	7	Dirección del viento	3.22
148447	7	Sololá	719	Santiago Atitlán	14	Cerro de Oro	5	Mayo	2023-12-05T00:00:00	2024-11-08T10:00:00	1	Precipitación	0
148448	7	Sololá	719	Santiago Atitlán	14	Cerro de Oro	5	Mayo	2023-12-05T00:00:00	2024-11-08T10:00:00	8	Radiación solar	309
148449	7	Sololá	719	Santiago Atitlán	14	Cerro de Oro	5	Mayo	2023-12-05T00:00:00	2024-11-08T11:00:00	2	Temperatura media	21.5
148450	7	Sololá	719	Santiago Atitlán	14	Cerro de Oro	5	Mayo	2023-12-05T00:00:00	2024-11-08T11:00:00	4	Temperatura máxima	21.5
148451	7	Sololá	719	Santiago Atitlán	14	Cerro de Oro	5	Mayo	2023-12-05T00:00:00	2024-11-08T11:00:00	3	Temperatura mínima	20.6
148452	7	Sololá	719	Santiago Atitlán	14	Cerro de Oro	5	Mayo	2023-12-05T00:00:00	2024-11-08T11:00:00	5	Humedad	75
148453	7	Sololá	719	Santiago Atitlán	14	Cerro de Oro	5	Mayo	2023-12-05T00:00:00	2024-11-08T11:00:00	6	Velocidad del viento	4.8
148454	7	Sololá	719	Santiago Atitlán	14	Cerro de Oro	5	Mayo	2023-12-05T00:00:00	2024-11-08T11:00:00	7	Dirección del viento	4.83
148455	7	Sololá	719	Santiago Atitlán	14	Cerro de Oro	5	Mayo	2023-12-05T00:00:00	2024-11-08T11:00:00	1	Precipitación	0
148456	7	Sololá	719	Santiago Atitlán	14	Cerro de Oro	5	Mayo	2023-12-05T00:00:00	2024-11-08T11:00:00	8	Radiación solar	670
148457	7	Sololá	719	Santiago Atitlán	14	Cerro de Oro	5	Mayo	2023-12-05T00:00:00	2024-11-08T12:00:00	2	Temperatura media	23.1
148458	7	Sololá	719	Santiago Atitlán	14	Cerro de Oro	5	Mayo	2023-12-05T00:00:00	2024-11-08T12:00:00	4	Temperatura máxima	23.1
148459	7	Sololá	719	Santiago Atitlán	14	Cerro de Oro	5	Mayo	2023-12-05T00:00:00	2024-11-08T12:00:00	3	Temperatura mínima	21.5
148460	7	Sololá	719	Santiago Atitlán	14	Cerro de Oro	5	Mayo	2023-12-05T00:00:00	2024-11-08T12:00:00	5	Humedad	71
148461	7	Sololá	719	Santiago Atitlán	14	Cerro de Oro	5	Mayo	2023-12-05T00:00:00	2024-11-08T12:00:00	6	Velocidad del viento	4.8
148462	7	Sololá	719	Santiago Atitlán	14	Cerro de Oro	5	Mayo	2023-12-05T00:00:00	2024-11-08T12:00:00	7	Dirección del viento	4.83
148463	7	Sololá	719	Santiago Atitlán	14	Cerro de Oro	5	Mayo	2023-12-05T00:00:00	2024-11-08T12:00:00	1	Precipitación	0
148464	7	Sololá	719	Santiago Atitlán	14	Cerro de Oro	5	Mayo	2023-12-05T00:00:00	2024-11-08T12:00:00	8	Radiación solar	844
148465	7	Sololá	719	Santiago Atitlán	14	Cerro de Oro	5	Mayo	2023-12-05T00:00:00	2024-11-08T13:00:00	2	Temperatura media	23.9
148466	7	Sololá	719	Santiago Atitlán	14	Cerro de Oro	5	Mayo	2023-12-05T00:00:00	2024-11-08T13:00:00	4	Temperatura máxima	24.3
148467	7	Sololá	719	Santiago Atitlán	14	Cerro de Oro	5	Mayo	2023-12-05T00:00:00	2024-11-08T13:00:00	3	Temperatura mínima	23.1
148468	7	Sololá	719	Santiago Atitlán	14	Cerro de Oro	5	Mayo	2023-12-05T00:00:00	2024-11-08T13:00:00	5	Humedad	73
148469	7	Sololá	719	Santiago Atitlán	14	Cerro de Oro	5	Mayo	2023-12-05T00:00:00	2024-11-08T13:00:00	6	Velocidad del viento	11.3
148470	7	Sololá	719	Santiago Atitlán	14	Cerro de Oro	5	Mayo	2023-12-05T00:00:00	2024-11-08T13:00:00	7	Dirección del viento	11.27
148471	7	Sololá	719	Santiago Atitlán	14	Cerro de Oro	5	Mayo	2023-12-05T00:00:00	2024-11-08T13:00:00	1	Precipitación	0
148472	7	Sololá	719	Santiago Atitlán	14	Cerro de Oro	5	Mayo	2023-12-05T00:00:00	2024-11-08T13:00:00	8	Radiación solar	880
148473	7	Sololá	719	Santiago Atitlán	14	Cerro de Oro	5	Mayo	2023-12-05T00:00:00	2024-11-08T14:00:00	2	Temperatura media	23.8
148474	7	Sololá	719	Santiago Atitlán	14	Cerro de Oro	5	Mayo	2023-12-05T00:00:00	2024-11-08T14:00:00	4	Temperatura máxima	24
148475	7	Sololá	719	Santiago Atitlán	14	Cerro de Oro	5	Mayo	2023-12-05T00:00:00	2024-11-08T14:00:00	3	Temperatura mínima	23.3
148476	7	Sololá	719	Santiago Atitlán	14	Cerro de Oro	5	Mayo	2023-12-05T00:00:00	2024-11-08T14:00:00	5	Humedad	75
148477	7	Sololá	719	Santiago Atitlán	14	Cerro de Oro	5	Mayo	2023-12-05T00:00:00	2024-11-08T14:00:00	6	Velocidad del viento	11.3
148478	7	Sololá	719	Santiago Atitlán	14	Cerro de Oro	5	Mayo	2023-12-05T00:00:00	2024-11-08T14:00:00	7	Dirección del viento	11.27
148479	7	Sololá	719	Santiago Atitlán	14	Cerro de Oro	5	Mayo	2023-12-05T00:00:00	2024-11-08T14:00:00	1	Precipitación	0
148480	7	Sololá	719	Santiago Atitlán	14	Cerro de Oro	5	Mayo	2023-12-05T00:00:00	2024-11-08T14:00:00	8	Radiación solar	423
148481	7	Sololá	719	Santiago Atitlán	14	Cerro de Oro	5	Mayo	2023-12-05T00:00:00	2024-11-08T15:00:00	2	Temperatura media	22.9
148482	7	Sololá	719	Santiago Atitlán	14	Cerro de Oro	5	Mayo	2023-12-05T00:00:00	2024-11-08T15:00:00	4	Temperatura máxima	24.3
148483	7	Sololá	719	Santiago Atitlán	14	Cerro de Oro	5	Mayo	2023-12-05T00:00:00	2024-11-08T15:00:00	3	Temperatura mínima	22.9
148484	7	Sololá	719	Santiago Atitlán	14	Cerro de Oro	5	Mayo	2023-12-05T00:00:00	2024-11-08T15:00:00	5	Humedad	78
148485	7	Sololá	719	Santiago Atitlán	14	Cerro de Oro	5	Mayo	2023-12-05T00:00:00	2024-11-08T15:00:00	6	Velocidad del viento	9.7
148486	7	Sololá	719	Santiago Atitlán	14	Cerro de Oro	5	Mayo	2023-12-05T00:00:00	2024-11-08T15:00:00	7	Dirección del viento	9.66
148487	7	Sololá	719	Santiago Atitlán	14	Cerro de Oro	5	Mayo	2023-12-05T00:00:00	2024-11-08T15:00:00	1	Precipitación	0
148488	7	Sololá	719	Santiago Atitlán	14	Cerro de Oro	5	Mayo	2023-12-05T00:00:00	2024-11-08T15:00:00	8	Radiación solar	409
148489	7	Sololá	719	Santiago Atitlán	14	Cerro de Oro	5	Mayo	2023-12-05T00:00:00	2024-11-08T16:00:00	2	Temperatura media	21.6
148490	7	Sololá	719	Santiago Atitlán	14	Cerro de Oro	5	Mayo	2023-12-05T00:00:00	2024-11-08T16:00:00	4	Temperatura máxima	22.9
148491	7	Sololá	719	Santiago Atitlán	14	Cerro de Oro	5	Mayo	2023-12-05T00:00:00	2024-11-08T16:00:00	3	Temperatura mínima	21.6
148492	7	Sololá	719	Santiago Atitlán	14	Cerro de Oro	5	Mayo	2023-12-05T00:00:00	2024-11-08T16:00:00	5	Humedad	81
148493	7	Sololá	719	Santiago Atitlán	14	Cerro de Oro	5	Mayo	2023-12-05T00:00:00	2024-11-08T16:00:00	6	Velocidad del viento	11.3
148494	7	Sololá	719	Santiago Atitlán	14	Cerro de Oro	5	Mayo	2023-12-05T00:00:00	2024-11-08T16:00:00	7	Dirección del viento	11.27
148495	7	Sololá	719	Santiago Atitlán	14	Cerro de Oro	5	Mayo	2023-12-05T00:00:00	2024-11-08T16:00:00	1	Precipitación	0
148496	7	Sololá	719	Santiago Atitlán	14	Cerro de Oro	5	Mayo	2023-12-05T00:00:00	2024-11-08T16:00:00	8	Radiación solar	246
148497	7	Sololá	719	Santiago Atitlán	14	Cerro de Oro	5	Mayo	2023-12-05T00:00:00	2024-11-08T17:00:00	2	Temperatura media	20.7
148498	7	Sololá	719	Santiago Atitlán	14	Cerro de Oro	5	Mayo	2023-12-05T00:00:00	2024-11-08T17:00:00	4	Temperatura máxima	21.8
148499	7	Sololá	719	Santiago Atitlán	14	Cerro de Oro	5	Mayo	2023-12-05T00:00:00	2024-11-08T17:00:00	3	Temperatura mínima	20.6
148500	7	Sololá	719	Santiago Atitlán	14	Cerro de Oro	5	Mayo	2023-12-05T00:00:00	2024-11-08T17:00:00	5	Humedad	83
148501	7	Sololá	719	Santiago Atitlán	14	Cerro de Oro	5	Mayo	2023-12-05T00:00:00	2024-11-08T17:00:00	6	Velocidad del viento	8
148502	7	Sololá	719	Santiago Atitlán	14	Cerro de Oro	5	Mayo	2023-12-05T00:00:00	2024-11-08T17:00:00	7	Dirección del viento	8.05
148503	7	Sololá	719	Santiago Atitlán	14	Cerro de Oro	5	Mayo	2023-12-05T00:00:00	2024-11-08T17:00:00	1	Precipitación	0
148504	7	Sololá	719	Santiago Atitlán	14	Cerro de Oro	5	Mayo	2023-12-05T00:00:00	2024-11-08T17:00:00	8	Radiación solar	70
148505	7	Sololá	719	Santiago Atitlán	14	Cerro de Oro	5	Mayo	2023-12-05T00:00:00	2024-11-08T18:00:00	2	Temperatura media	20.3
148506	7	Sololá	719	Santiago Atitlán	14	Cerro de Oro	5	Mayo	2023-12-05T00:00:00	2024-11-08T18:00:00	4	Temperatura máxima	21
148507	7	Sololá	719	Santiago Atitlán	14	Cerro de Oro	5	Mayo	2023-12-05T00:00:00	2024-11-08T18:00:00	3	Temperatura mínima	20.2
148508	7	Sololá	719	Santiago Atitlán	14	Cerro de Oro	5	Mayo	2023-12-05T00:00:00	2024-11-08T18:00:00	5	Humedad	86
148509	7	Sololá	719	Santiago Atitlán	14	Cerro de Oro	5	Mayo	2023-12-05T00:00:00	2024-11-08T18:00:00	6	Velocidad del viento	8
148510	7	Sololá	719	Santiago Atitlán	14	Cerro de Oro	5	Mayo	2023-12-05T00:00:00	2024-11-08T18:00:00	7	Dirección del viento	8.05
148511	7	Sololá	719	Santiago Atitlán	14	Cerro de Oro	5	Mayo	2023-12-05T00:00:00	2024-11-08T18:00:00	1	Precipitación	0
148512	7	Sololá	719	Santiago Atitlán	14	Cerro de Oro	5	Mayo	2023-12-05T00:00:00	2024-11-08T18:00:00	8	Radiación solar	92
148513	7	Sololá	719	Santiago Atitlán	14	Cerro de Oro	5	Mayo	2023-12-05T00:00:00	2024-11-08T19:00:00	2	Temperatura media	18.6
148514	7	Sololá	719	Santiago Atitlán	14	Cerro de Oro	5	Mayo	2023-12-05T00:00:00	2024-11-08T19:00:00	4	Temperatura máxima	20.3
148515	7	Sololá	719	Santiago Atitlán	14	Cerro de Oro	5	Mayo	2023-12-05T00:00:00	2024-11-08T19:00:00	3	Temperatura mínima	18.5
148516	7	Sololá	719	Santiago Atitlán	14	Cerro de Oro	5	Mayo	2023-12-05T00:00:00	2024-11-08T19:00:00	5	Humedad	91
148517	7	Sololá	719	Santiago Atitlán	14	Cerro de Oro	5	Mayo	2023-12-05T00:00:00	2024-11-08T19:00:00	6	Velocidad del viento	8
148518	7	Sololá	719	Santiago Atitlán	14	Cerro de Oro	5	Mayo	2023-12-05T00:00:00	2024-11-08T19:00:00	7	Dirección del viento	8.05
148519	7	Sololá	719	Santiago Atitlán	14	Cerro de Oro	5	Mayo	2023-12-05T00:00:00	2024-11-08T19:00:00	1	Precipitación	0
148520	7	Sololá	719	Santiago Atitlán	14	Cerro de Oro	5	Mayo	2023-12-05T00:00:00	2024-11-08T19:00:00	8	Radiación solar	0
148521	7	Sololá	719	Santiago Atitlán	14	Cerro de Oro	5	Mayo	2023-12-05T00:00:00	2024-11-08T20:00:00	2	Temperatura media	19.1
148522	7	Sololá	719	Santiago Atitlán	14	Cerro de Oro	5	Mayo	2023-12-05T00:00:00	2024-11-08T20:00:00	4	Temperatura máxima	19.3
148523	7	Sololá	719	Santiago Atitlán	14	Cerro de Oro	5	Mayo	2023-12-05T00:00:00	2024-11-08T20:00:00	3	Temperatura mínima	18.6
148524	7	Sololá	719	Santiago Atitlán	14	Cerro de Oro	5	Mayo	2023-12-05T00:00:00	2024-11-08T20:00:00	5	Humedad	91
148525	7	Sololá	719	Santiago Atitlán	14	Cerro de Oro	5	Mayo	2023-12-05T00:00:00	2024-11-08T20:00:00	6	Velocidad del viento	3.2
148526	7	Sololá	719	Santiago Atitlán	14	Cerro de Oro	5	Mayo	2023-12-05T00:00:00	2024-11-08T20:00:00	7	Dirección del viento	3.22
148527	7	Sololá	719	Santiago Atitlán	14	Cerro de Oro	5	Mayo	2023-12-05T00:00:00	2024-11-08T20:00:00	1	Precipitación	1.4
148528	7	Sololá	719	Santiago Atitlán	14	Cerro de Oro	5	Mayo	2023-12-05T00:00:00	2024-11-08T20:00:00	8	Radiación solar	0
148529	7	Sololá	719	Santiago Atitlán	14	Cerro de Oro	5	Mayo	2023-12-05T00:00:00	2024-11-08T21:00:00	2	Temperatura media	18.8
148530	7	Sololá	719	Santiago Atitlán	14	Cerro de Oro	5	Mayo	2023-12-05T00:00:00	2024-11-08T21:00:00	4	Temperatura máxima	19.2
148531	7	Sololá	719	Santiago Atitlán	14	Cerro de Oro	5	Mayo	2023-12-05T00:00:00	2024-11-08T21:00:00	3	Temperatura mínima	18.8
148532	7	Sololá	719	Santiago Atitlán	14	Cerro de Oro	5	Mayo	2023-12-05T00:00:00	2024-11-08T21:00:00	5	Humedad	91
148533	7	Sololá	719	Santiago Atitlán	14	Cerro de Oro	5	Mayo	2023-12-05T00:00:00	2024-11-08T21:00:00	6	Velocidad del viento	3.2
148534	7	Sololá	719	Santiago Atitlán	14	Cerro de Oro	5	Mayo	2023-12-05T00:00:00	2024-11-08T21:00:00	7	Dirección del viento	3.22
148535	7	Sololá	719	Santiago Atitlán	14	Cerro de Oro	5	Mayo	2023-12-05T00:00:00	2024-11-08T21:00:00	1	Precipitación	0
148536	7	Sololá	719	Santiago Atitlán	14	Cerro de Oro	5	Mayo	2023-12-05T00:00:00	2024-11-08T21:00:00	8	Radiación solar	0
148537	7	Sololá	719	Santiago Atitlán	14	Cerro de Oro	5	Mayo	2023-12-05T00:00:00	2024-11-08T22:00:00	2	Temperatura media	18.6
148538	7	Sololá	719	Santiago Atitlán	14	Cerro de Oro	5	Mayo	2023-12-05T00:00:00	2024-11-08T22:00:00	4	Temperatura máxima	18.8
148539	7	Sololá	719	Santiago Atitlán	14	Cerro de Oro	5	Mayo	2023-12-05T00:00:00	2024-11-08T22:00:00	3	Temperatura mínima	18.5
148540	7	Sololá	719	Santiago Atitlán	14	Cerro de Oro	5	Mayo	2023-12-05T00:00:00	2024-11-08T22:00:00	5	Humedad	90
148541	7	Sololá	719	Santiago Atitlán	14	Cerro de Oro	5	Mayo	2023-12-05T00:00:00	2024-11-08T22:00:00	6	Velocidad del viento	4.8
148542	7	Sololá	719	Santiago Atitlán	14	Cerro de Oro	5	Mayo	2023-12-05T00:00:00	2024-11-08T22:00:00	7	Dirección del viento	4.83
148543	7	Sololá	719	Santiago Atitlán	14	Cerro de Oro	5	Mayo	2023-12-05T00:00:00	2024-11-08T22:00:00	1	Precipitación	0
148544	7	Sololá	719	Santiago Atitlán	14	Cerro de Oro	5	Mayo	2023-12-05T00:00:00	2024-11-08T22:00:00	8	Radiación solar	0
148545	7	Sololá	719	Santiago Atitlán	14	Cerro de Oro	5	Mayo	2023-12-05T00:00:00	2024-11-08T23:00:00	2	Temperatura media	18.4
148546	7	Sololá	719	Santiago Atitlán	14	Cerro de Oro	5	Mayo	2023-12-05T00:00:00	2024-11-08T23:00:00	4	Temperatura máxima	18.6
148547	7	Sololá	719	Santiago Atitlán	14	Cerro de Oro	5	Mayo	2023-12-05T00:00:00	2024-11-08T23:00:00	3	Temperatura mínima	18.2
148548	7	Sololá	719	Santiago Atitlán	14	Cerro de Oro	5	Mayo	2023-12-05T00:00:00	2024-11-08T23:00:00	5	Humedad	90
148549	7	Sololá	719	Santiago Atitlán	14	Cerro de Oro	5	Mayo	2023-12-05T00:00:00	2024-11-08T23:00:00	6	Velocidad del viento	4.8
148550	7	Sololá	719	Santiago Atitlán	14	Cerro de Oro	5	Mayo	2023-12-05T00:00:00	2024-11-08T23:00:00	7	Dirección del viento	4.83
148551	7	Sololá	719	Santiago Atitlán	14	Cerro de Oro	5	Mayo	2023-12-05T00:00:00	2024-11-08T23:00:00	1	Precipitación	0
148552	7	Sololá	719	Santiago Atitlán	14	Cerro de Oro	5	Mayo	2023-12-05T00:00:00	2024-11-08T23:00:00	8	Radiación solar	0
148553	7	Sololá	719	Santiago Atitlán	14	Cerro de Oro	5	Mayo	2023-05-13T00:00:00	2024-11-08T00:00:00	2	Temperatura media	18.3
148554	7	Sololá	719	Santiago Atitlán	14	Cerro de Oro	5	Mayo	2023-05-13T00:00:00	2024-11-08T00:00:00	4	Temperatura máxima	18.8
148555	7	Sololá	719	Santiago Atitlán	14	Cerro de Oro	5	Mayo	2023-05-13T00:00:00	2024-11-08T00:00:00	3	Temperatura mínima	18.1
148556	7	Sololá	719	Santiago Atitlán	14	Cerro de Oro	5	Mayo	2023-05-13T00:00:00	2024-11-08T00:00:00	5	Humedad	89
148557	7	Sololá	719	Santiago Atitlán	14	Cerro de Oro	5	Mayo	2023-05-13T00:00:00	2024-11-08T00:00:00	6	Velocidad del viento	4.8
148558	7	Sololá	719	Santiago Atitlán	14	Cerro de Oro	5	Mayo	2023-05-13T00:00:00	2024-11-08T00:00:00	7	Dirección del viento	4.83
148559	7	Sololá	719	Santiago Atitlán	14	Cerro de Oro	5	Mayo	2023-05-13T00:00:00	2024-11-08T00:00:00	1	Precipitación	0
148560	7	Sololá	719	Santiago Atitlán	14	Cerro de Oro	5	Mayo	2023-05-13T00:00:00	2024-11-08T00:00:00	8	Radiación solar	0
148561	7	Sololá	719	Santiago Atitlán	14	Cerro de Oro	5	Mayo	2023-05-13T00:00:00	2024-11-08T01:00:00	2	Temperatura media	18.1
148562	7	Sololá	719	Santiago Atitlán	14	Cerro de Oro	5	Mayo	2023-05-13T00:00:00	2024-11-08T01:00:00	4	Temperatura máxima	18.7
148563	7	Sololá	719	Santiago Atitlán	14	Cerro de Oro	5	Mayo	2023-05-13T00:00:00	2024-11-08T01:00:00	3	Temperatura mínima	18.1
148564	7	Sololá	719	Santiago Atitlán	14	Cerro de Oro	5	Mayo	2023-05-13T00:00:00	2024-11-08T01:00:00	5	Humedad	89
148565	7	Sololá	719	Santiago Atitlán	14	Cerro de Oro	5	Mayo	2023-05-13T00:00:00	2024-11-08T01:00:00	6	Velocidad del viento	6.4
148566	7	Sololá	719	Santiago Atitlán	14	Cerro de Oro	5	Mayo	2023-05-13T00:00:00	2024-11-08T01:00:00	7	Dirección del viento	6.44
148567	7	Sololá	719	Santiago Atitlán	14	Cerro de Oro	5	Mayo	2023-05-13T00:00:00	2024-11-08T01:00:00	1	Precipitación	0
148568	7	Sololá	719	Santiago Atitlán	14	Cerro de Oro	5	Mayo	2023-05-13T00:00:00	2024-11-08T01:00:00	8	Radiación solar	0
148569	7	Sololá	719	Santiago Atitlán	14	Cerro de Oro	5	Mayo	2023-05-13T00:00:00	2024-11-08T02:00:00	2	Temperatura media	18.1
148570	7	Sololá	719	Santiago Atitlán	14	Cerro de Oro	5	Mayo	2023-05-13T00:00:00	2024-11-08T02:00:00	4	Temperatura máxima	18.3
148571	7	Sololá	719	Santiago Atitlán	14	Cerro de Oro	5	Mayo	2023-05-13T00:00:00	2024-11-08T02:00:00	3	Temperatura mínima	17.9
148572	7	Sololá	719	Santiago Atitlán	14	Cerro de Oro	5	Mayo	2023-05-13T00:00:00	2024-11-08T02:00:00	5	Humedad	90
148573	7	Sololá	719	Santiago Atitlán	14	Cerro de Oro	5	Mayo	2023-05-13T00:00:00	2024-11-08T02:00:00	6	Velocidad del viento	4.8
148574	7	Sololá	719	Santiago Atitlán	14	Cerro de Oro	5	Mayo	2023-05-13T00:00:00	2024-11-08T02:00:00	7	Dirección del viento	4.83
148575	7	Sololá	719	Santiago Atitlán	14	Cerro de Oro	5	Mayo	2023-05-13T00:00:00	2024-11-08T02:00:00	1	Precipitación	0
148576	7	Sololá	719	Santiago Atitlán	14	Cerro de Oro	5	Mayo	2023-05-13T00:00:00	2024-11-08T02:00:00	8	Radiación solar	0
148577	7	Sololá	719	Santiago Atitlán	14	Cerro de Oro	5	Mayo	2023-05-13T00:00:00	2024-11-08T03:00:00	2	Temperatura media	18
148578	7	Sololá	719	Santiago Atitlán	14	Cerro de Oro	5	Mayo	2023-05-13T00:00:00	2024-11-08T03:00:00	4	Temperatura máxima	18.1
148579	7	Sololá	719	Santiago Atitlán	14	Cerro de Oro	5	Mayo	2023-05-13T00:00:00	2024-11-08T03:00:00	3	Temperatura mínima	17.9
148580	7	Sololá	719	Santiago Atitlán	14	Cerro de Oro	5	Mayo	2023-05-13T00:00:00	2024-11-08T03:00:00	5	Humedad	91
148581	7	Sololá	719	Santiago Atitlán	14	Cerro de Oro	5	Mayo	2023-05-13T00:00:00	2024-11-08T03:00:00	6	Velocidad del viento	3.2
148582	7	Sololá	719	Santiago Atitlán	14	Cerro de Oro	5	Mayo	2023-05-13T00:00:00	2024-11-08T03:00:00	7	Dirección del viento	3.22
148583	7	Sololá	719	Santiago Atitlán	14	Cerro de Oro	5	Mayo	2023-05-13T00:00:00	2024-11-08T03:00:00	1	Precipitación	0
148584	7	Sololá	719	Santiago Atitlán	14	Cerro de Oro	5	Mayo	2023-05-13T00:00:00	2024-11-08T03:00:00	8	Radiación solar	0
148585	7	Sololá	719	Santiago Atitlán	14	Cerro de Oro	5	Mayo	2023-05-13T00:00:00	2024-11-08T04:00:00	2	Temperatura media	17.8
148586	7	Sololá	719	Santiago Atitlán	14	Cerro de Oro	5	Mayo	2023-05-13T00:00:00	2024-11-08T04:00:00	4	Temperatura máxima	18
148587	7	Sololá	719	Santiago Atitlán	14	Cerro de Oro	5	Mayo	2023-05-13T00:00:00	2024-11-08T04:00:00	3	Temperatura mínima	17.8
148588	7	Sololá	719	Santiago Atitlán	14	Cerro de Oro	5	Mayo	2023-05-13T00:00:00	2024-11-08T04:00:00	5	Humedad	90
148589	7	Sololá	719	Santiago Atitlán	14	Cerro de Oro	5	Mayo	2023-05-13T00:00:00	2024-11-08T04:00:00	6	Velocidad del viento	3.2
148590	7	Sololá	719	Santiago Atitlán	14	Cerro de Oro	5	Mayo	2023-05-13T00:00:00	2024-11-08T04:00:00	7	Dirección del viento	3.22
148591	7	Sololá	719	Santiago Atitlán	14	Cerro de Oro	5	Mayo	2023-05-13T00:00:00	2024-11-08T04:00:00	1	Precipitación	0
148592	7	Sololá	719	Santiago Atitlán	14	Cerro de Oro	5	Mayo	2023-05-13T00:00:00	2024-11-08T04:00:00	8	Radiación solar	0
148593	7	Sololá	719	Santiago Atitlán	14	Cerro de Oro	5	Mayo	2023-05-13T00:00:00	2024-11-08T05:00:00	2	Temperatura media	17.9
148594	7	Sololá	719	Santiago Atitlán	14	Cerro de Oro	5	Mayo	2023-05-13T00:00:00	2024-11-08T05:00:00	4	Temperatura máxima	18
148595	7	Sololá	719	Santiago Atitlán	14	Cerro de Oro	5	Mayo	2023-05-13T00:00:00	2024-11-08T05:00:00	3	Temperatura mínima	17.6
148596	7	Sololá	719	Santiago Atitlán	14	Cerro de Oro	5	Mayo	2023-05-13T00:00:00	2024-11-08T05:00:00	5	Humedad	90
148597	7	Sololá	719	Santiago Atitlán	14	Cerro de Oro	5	Mayo	2023-05-13T00:00:00	2024-11-08T05:00:00	6	Velocidad del viento	4.8
148598	7	Sololá	719	Santiago Atitlán	14	Cerro de Oro	5	Mayo	2023-05-13T00:00:00	2024-11-08T05:00:00	7	Dirección del viento	4.83
148599	7	Sololá	719	Santiago Atitlán	14	Cerro de Oro	5	Mayo	2023-05-13T00:00:00	2024-11-08T05:00:00	1	Precipitación	0
148600	7	Sololá	719	Santiago Atitlán	14	Cerro de Oro	5	Mayo	2023-05-13T00:00:00	2024-11-08T05:00:00	8	Radiación solar	0
148601	7	Sololá	719	Santiago Atitlán	14	Cerro de Oro	5	Mayo	2023-05-13T00:00:00	2024-11-08T06:00:00	2	Temperatura media	18.1
148602	7	Sololá	719	Santiago Atitlán	14	Cerro de Oro	5	Mayo	2023-05-13T00:00:00	2024-11-08T06:00:00	4	Temperatura máxima	18.2
148603	7	Sololá	719	Santiago Atitlán	14	Cerro de Oro	5	Mayo	2023-05-13T00:00:00	2024-11-08T06:00:00	3	Temperatura mínima	17.9
148604	7	Sololá	719	Santiago Atitlán	14	Cerro de Oro	5	Mayo	2023-05-13T00:00:00	2024-11-08T06:00:00	5	Humedad	88
148605	7	Sololá	719	Santiago Atitlán	14	Cerro de Oro	5	Mayo	2023-05-13T00:00:00	2024-11-08T06:00:00	6	Velocidad del viento	3.2
148606	7	Sololá	719	Santiago Atitlán	14	Cerro de Oro	5	Mayo	2023-05-13T00:00:00	2024-11-08T06:00:00	7	Dirección del viento	3.22
148607	7	Sololá	719	Santiago Atitlán	14	Cerro de Oro	5	Mayo	2023-05-13T00:00:00	2024-11-08T06:00:00	1	Precipitación	0
148608	7	Sololá	719	Santiago Atitlán	14	Cerro de Oro	5	Mayo	2023-05-13T00:00:00	2024-11-08T06:00:00	8	Radiación solar	0
148609	7	Sololá	719	Santiago Atitlán	14	Cerro de Oro	5	Mayo	2023-05-13T00:00:00	2024-11-08T07:00:00	2	Temperatura media	17.9
148610	7	Sololá	719	Santiago Atitlán	14	Cerro de Oro	5	Mayo	2023-05-13T00:00:00	2024-11-08T07:00:00	4	Temperatura máxima	18.2
148611	7	Sololá	719	Santiago Atitlán	14	Cerro de Oro	5	Mayo	2023-05-13T00:00:00	2024-11-08T07:00:00	3	Temperatura mínima	17.8
148612	7	Sololá	719	Santiago Atitlán	14	Cerro de Oro	5	Mayo	2023-05-13T00:00:00	2024-11-08T07:00:00	5	Humedad	87
148613	7	Sololá	719	Santiago Atitlán	14	Cerro de Oro	5	Mayo	2023-05-13T00:00:00	2024-11-08T07:00:00	6	Velocidad del viento	3.2
148614	7	Sololá	719	Santiago Atitlán	14	Cerro de Oro	5	Mayo	2023-05-13T00:00:00	2024-11-08T07:00:00	7	Dirección del viento	3.22
148615	7	Sololá	719	Santiago Atitlán	14	Cerro de Oro	5	Mayo	2023-05-13T00:00:00	2024-11-08T07:00:00	1	Precipitación	0
148616	7	Sololá	719	Santiago Atitlán	14	Cerro de Oro	5	Mayo	2023-05-13T00:00:00	2024-11-08T07:00:00	8	Radiación solar	5
148617	7	Sololá	719	Santiago Atitlán	14	Cerro de Oro	5	Mayo	2023-05-13T00:00:00	2024-11-08T08:00:00	2	Temperatura media	19.3
148618	7	Sololá	719	Santiago Atitlán	14	Cerro de Oro	5	Mayo	2023-05-13T00:00:00	2024-11-08T08:00:00	4	Temperatura máxima	19.3
148619	7	Sololá	719	Santiago Atitlán	14	Cerro de Oro	5	Mayo	2023-05-13T00:00:00	2024-11-08T08:00:00	3	Temperatura mínima	17.9
148620	7	Sololá	719	Santiago Atitlán	14	Cerro de Oro	5	Mayo	2023-05-13T00:00:00	2024-11-08T08:00:00	5	Humedad	83
148621	7	Sololá	719	Santiago Atitlán	14	Cerro de Oro	5	Mayo	2023-05-13T00:00:00	2024-11-08T08:00:00	6	Velocidad del viento	4.8
148622	7	Sololá	719	Santiago Atitlán	14	Cerro de Oro	5	Mayo	2023-05-13T00:00:00	2024-11-08T08:00:00	7	Dirección del viento	4.83
148623	7	Sololá	719	Santiago Atitlán	14	Cerro de Oro	5	Mayo	2023-05-13T00:00:00	2024-11-08T08:00:00	1	Precipitación	0
148624	7	Sololá	719	Santiago Atitlán	14	Cerro de Oro	5	Mayo	2023-05-13T00:00:00	2024-11-08T08:00:00	8	Radiación solar	93
148625	7	Sololá	719	Santiago Atitlán	14	Cerro de Oro	5	Mayo	2023-05-13T00:00:00	2024-11-08T09:00:00	2	Temperatura media	20.7
148626	7	Sololá	719	Santiago Atitlán	14	Cerro de Oro	5	Mayo	2023-05-13T00:00:00	2024-11-08T09:00:00	4	Temperatura máxima	20.7
148627	7	Sololá	719	Santiago Atitlán	14	Cerro de Oro	5	Mayo	2023-05-13T00:00:00	2024-11-08T09:00:00	3	Temperatura mínima	19.2
148628	7	Sololá	719	Santiago Atitlán	14	Cerro de Oro	5	Mayo	2023-05-13T00:00:00	2024-11-08T09:00:00	5	Humedad	78
148629	7	Sololá	719	Santiago Atitlán	14	Cerro de Oro	5	Mayo	2023-05-13T00:00:00	2024-11-08T09:00:00	6	Velocidad del viento	4.8
148630	7	Sololá	719	Santiago Atitlán	14	Cerro de Oro	5	Mayo	2023-05-13T00:00:00	2024-11-08T09:00:00	7	Dirección del viento	4.83
148631	7	Sololá	719	Santiago Atitlán	14	Cerro de Oro	5	Mayo	2023-05-13T00:00:00	2024-11-08T09:00:00	1	Precipitación	0
148632	7	Sololá	719	Santiago Atitlán	14	Cerro de Oro	5	Mayo	2023-05-13T00:00:00	2024-11-08T09:00:00	8	Radiación solar	284
148633	7	Sololá	719	Santiago Atitlán	14	Cerro de Oro	5	Mayo	2023-05-13T00:00:00	2024-11-08T10:00:00	2	Temperatura media	21.7
148634	7	Sololá	719	Santiago Atitlán	14	Cerro de Oro	5	Mayo	2023-05-13T00:00:00	2024-11-08T10:00:00	4	Temperatura máxima	21.7
148635	7	Sololá	719	Santiago Atitlán	14	Cerro de Oro	5	Mayo	2023-05-13T00:00:00	2024-11-08T10:00:00	3	Temperatura mínima	20.7
148636	7	Sololá	719	Santiago Atitlán	14	Cerro de Oro	5	Mayo	2023-05-13T00:00:00	2024-11-08T10:00:00	5	Humedad	77
148637	7	Sololá	719	Santiago Atitlán	14	Cerro de Oro	5	Mayo	2023-05-13T00:00:00	2024-11-08T10:00:00	6	Velocidad del viento	4.8
148638	7	Sololá	719	Santiago Atitlán	14	Cerro de Oro	5	Mayo	2023-05-13T00:00:00	2024-11-08T10:00:00	7	Dirección del viento	4.83
148639	7	Sololá	719	Santiago Atitlán	14	Cerro de Oro	5	Mayo	2023-05-13T00:00:00	2024-11-08T10:00:00	1	Precipitación	0
148640	7	Sololá	719	Santiago Atitlán	14	Cerro de Oro	5	Mayo	2023-05-13T00:00:00	2024-11-08T10:00:00	8	Radiación solar	499
148641	7	Sololá	719	Santiago Atitlán	14	Cerro de Oro	5	Mayo	2023-05-13T00:00:00	2024-11-08T11:00:00	2	Temperatura media	23.6
148642	7	Sololá	719	Santiago Atitlán	14	Cerro de Oro	5	Mayo	2023-05-13T00:00:00	2024-11-08T11:00:00	4	Temperatura máxima	23.7
148643	7	Sololá	719	Santiago Atitlán	14	Cerro de Oro	5	Mayo	2023-05-13T00:00:00	2024-11-08T11:00:00	3	Temperatura mínima	21.7
148644	7	Sololá	719	Santiago Atitlán	14	Cerro de Oro	5	Mayo	2023-05-13T00:00:00	2024-11-08T11:00:00	5	Humedad	67
148645	7	Sololá	719	Santiago Atitlán	14	Cerro de Oro	5	Mayo	2023-05-13T00:00:00	2024-11-08T11:00:00	6	Velocidad del viento	6.4
148646	7	Sololá	719	Santiago Atitlán	14	Cerro de Oro	5	Mayo	2023-05-13T00:00:00	2024-11-08T11:00:00	7	Dirección del viento	6.44
148647	7	Sololá	719	Santiago Atitlán	14	Cerro de Oro	5	Mayo	2023-05-13T00:00:00	2024-11-08T11:00:00	1	Precipitación	0
148648	7	Sololá	719	Santiago Atitlán	14	Cerro de Oro	5	Mayo	2023-05-13T00:00:00	2024-11-08T11:00:00	8	Radiación solar	718
148649	7	Sololá	719	Santiago Atitlán	14	Cerro de Oro	5	Mayo	2023-05-13T00:00:00	2024-11-08T12:00:00	2	Temperatura media	23.8
148650	7	Sololá	719	Santiago Atitlán	14	Cerro de Oro	5	Mayo	2023-05-13T00:00:00	2024-11-08T12:00:00	4	Temperatura máxima	24
148651	7	Sololá	719	Santiago Atitlán	14	Cerro de Oro	5	Mayo	2023-05-13T00:00:00	2024-11-08T12:00:00	3	Temperatura mínima	23.4
148652	7	Sololá	719	Santiago Atitlán	14	Cerro de Oro	5	Mayo	2023-05-13T00:00:00	2024-11-08T12:00:00	5	Humedad	68
148653	7	Sololá	719	Santiago Atitlán	14	Cerro de Oro	5	Mayo	2023-05-13T00:00:00	2024-11-08T12:00:00	6	Velocidad del viento	11.3
148654	7	Sololá	719	Santiago Atitlán	14	Cerro de Oro	5	Mayo	2023-05-13T00:00:00	2024-11-08T12:00:00	7	Dirección del viento	11.27
148655	7	Sololá	719	Santiago Atitlán	14	Cerro de Oro	5	Mayo	2023-05-13T00:00:00	2024-11-08T12:00:00	1	Precipitación	0
148656	7	Sololá	719	Santiago Atitlán	14	Cerro de Oro	5	Mayo	2023-05-13T00:00:00	2024-11-08T12:00:00	8	Radiación solar	923
148657	7	Sololá	719	Santiago Atitlán	14	Cerro de Oro	5	Mayo	2023-05-13T00:00:00	2024-11-08T13:00:00	2	Temperatura media	21.8
148658	7	Sololá	719	Santiago Atitlán	14	Cerro de Oro	5	Mayo	2023-05-13T00:00:00	2024-11-08T13:00:00	4	Temperatura máxima	24
148659	7	Sololá	719	Santiago Atitlán	14	Cerro de Oro	5	Mayo	2023-05-13T00:00:00	2024-11-08T13:00:00	3	Temperatura mínima	21.8
148660	7	Sololá	719	Santiago Atitlán	14	Cerro de Oro	5	Mayo	2023-05-13T00:00:00	2024-11-08T13:00:00	5	Humedad	76
148661	7	Sololá	719	Santiago Atitlán	14	Cerro de Oro	5	Mayo	2023-05-13T00:00:00	2024-11-08T13:00:00	6	Velocidad del viento	11.3
148662	7	Sololá	719	Santiago Atitlán	14	Cerro de Oro	5	Mayo	2023-05-13T00:00:00	2024-11-08T13:00:00	7	Dirección del viento	11.27
148663	7	Sololá	719	Santiago Atitlán	14	Cerro de Oro	5	Mayo	2023-05-13T00:00:00	2024-11-08T13:00:00	1	Precipitación	0
148664	7	Sololá	719	Santiago Atitlán	14	Cerro de Oro	5	Mayo	2023-05-13T00:00:00	2024-11-08T13:00:00	8	Radiación solar	386
148665	7	Sololá	719	Santiago Atitlán	14	Cerro de Oro	5	Mayo	2023-05-13T00:00:00	2024-11-08T14:00:00	2	Temperatura media	21.2
148666	7	Sololá	719	Santiago Atitlán	14	Cerro de Oro	5	Mayo	2023-05-13T00:00:00	2024-11-08T14:00:00	4	Temperatura máxima	22.8
148667	7	Sololá	719	Santiago Atitlán	14	Cerro de Oro	5	Mayo	2023-05-13T00:00:00	2024-11-08T14:00:00	3	Temperatura mínima	21.2
148668	7	Sololá	719	Santiago Atitlán	14	Cerro de Oro	5	Mayo	2023-05-13T00:00:00	2024-11-08T14:00:00	5	Humedad	76
148669	7	Sololá	719	Santiago Atitlán	14	Cerro de Oro	5	Mayo	2023-05-13T00:00:00	2024-11-08T14:00:00	6	Velocidad del viento	12.9
148670	7	Sololá	719	Santiago Atitlán	14	Cerro de Oro	5	Mayo	2023-05-13T00:00:00	2024-11-08T14:00:00	7	Dirección del viento	12.87
148671	7	Sololá	719	Santiago Atitlán	14	Cerro de Oro	5	Mayo	2023-05-13T00:00:00	2024-11-08T14:00:00	1	Precipitación	0
148672	7	Sololá	719	Santiago Atitlán	14	Cerro de Oro	5	Mayo	2023-05-13T00:00:00	2024-11-08T14:00:00	8	Radiación solar	392
148673	7	Sololá	719	Santiago Atitlán	14	Cerro de Oro	5	Mayo	2023-05-13T00:00:00	2024-11-08T15:00:00	2	Temperatura media	21.3
148674	7	Sololá	719	Santiago Atitlán	14	Cerro de Oro	5	Mayo	2023-05-13T00:00:00	2024-11-08T15:00:00	4	Temperatura máxima	21.6
148675	7	Sololá	719	Santiago Atitlán	14	Cerro de Oro	5	Mayo	2023-05-13T00:00:00	2024-11-08T15:00:00	3	Temperatura mínima	21.2
148676	7	Sololá	719	Santiago Atitlán	14	Cerro de Oro	5	Mayo	2023-05-13T00:00:00	2024-11-08T15:00:00	5	Humedad	81
148677	7	Sololá	719	Santiago Atitlán	14	Cerro de Oro	5	Mayo	2023-05-13T00:00:00	2024-11-08T15:00:00	6	Velocidad del viento	8
148678	7	Sololá	719	Santiago Atitlán	14	Cerro de Oro	5	Mayo	2023-05-13T00:00:00	2024-11-08T15:00:00	7	Dirección del viento	8.05
148679	7	Sololá	719	Santiago Atitlán	14	Cerro de Oro	5	Mayo	2023-05-13T00:00:00	2024-11-08T15:00:00	1	Precipitación	0
148680	7	Sololá	719	Santiago Atitlán	14	Cerro de Oro	5	Mayo	2023-05-13T00:00:00	2024-11-08T15:00:00	8	Radiación solar	168
148681	7	Sololá	719	Santiago Atitlán	14	Cerro de Oro	5	Mayo	2023-05-13T00:00:00	2024-11-08T16:00:00	2	Temperatura media	20.8
148682	7	Sololá	719	Santiago Atitlán	14	Cerro de Oro	5	Mayo	2023-05-13T00:00:00	2024-11-08T16:00:00	4	Temperatura máxima	21.9
148683	7	Sololá	719	Santiago Atitlán	14	Cerro de Oro	5	Mayo	2023-05-13T00:00:00	2024-11-08T16:00:00	3	Temperatura mínima	20.7
148684	7	Sololá	719	Santiago Atitlán	14	Cerro de Oro	5	Mayo	2023-05-13T00:00:00	2024-11-08T16:00:00	5	Humedad	81
148685	7	Sololá	719	Santiago Atitlán	14	Cerro de Oro	5	Mayo	2023-05-13T00:00:00	2024-11-08T16:00:00	6	Velocidad del viento	8
148686	7	Sololá	719	Santiago Atitlán	14	Cerro de Oro	5	Mayo	2023-05-13T00:00:00	2024-11-08T16:00:00	7	Dirección del viento	8.05
148687	7	Sololá	719	Santiago Atitlán	14	Cerro de Oro	5	Mayo	2023-05-13T00:00:00	2024-11-08T16:00:00	1	Precipitación	0
148688	7	Sololá	719	Santiago Atitlán	14	Cerro de Oro	5	Mayo	2023-05-13T00:00:00	2024-11-08T16:00:00	8	Radiación solar	234
148689	7	Sololá	719	Santiago Atitlán	14	Cerro de Oro	5	Mayo	2023-05-13T00:00:00	2024-11-08T17:00:00	2	Temperatura media	19.7
148690	7	Sololá	719	Santiago Atitlán	14	Cerro de Oro	5	Mayo	2023-05-13T00:00:00	2024-11-08T17:00:00	4	Temperatura máxima	20.8
148691	7	Sololá	719	Santiago Atitlán	14	Cerro de Oro	5	Mayo	2023-05-13T00:00:00	2024-11-08T17:00:00	3	Temperatura mínima	19.2
148692	7	Sololá	719	Santiago Atitlán	14	Cerro de Oro	5	Mayo	2023-05-13T00:00:00	2024-11-08T17:00:00	5	Humedad	87
148693	7	Sololá	719	Santiago Atitlán	14	Cerro de Oro	5	Mayo	2023-05-13T00:00:00	2024-11-08T17:00:00	6	Velocidad del viento	9.7
148694	7	Sololá	719	Santiago Atitlán	14	Cerro de Oro	5	Mayo	2023-05-13T00:00:00	2024-11-08T17:00:00	7	Dirección del viento	9.66
148695	7	Sololá	719	Santiago Atitlán	14	Cerro de Oro	5	Mayo	2023-05-13T00:00:00	2024-11-08T17:00:00	1	Precipitación	0
148696	7	Sololá	719	Santiago Atitlán	14	Cerro de Oro	5	Mayo	2023-05-13T00:00:00	2024-11-08T17:00:00	8	Radiación solar	123
148697	7	Sololá	719	Santiago Atitlán	14	Cerro de Oro	5	Mayo	2023-05-13T00:00:00	2024-11-08T18:00:00	2	Temperatura media	19.6
148698	7	Sololá	719	Santiago Atitlán	14	Cerro de Oro	5	Mayo	2023-05-13T00:00:00	2024-11-08T18:00:00	4	Temperatura máxima	20
148699	7	Sololá	719	Santiago Atitlán	14	Cerro de Oro	5	Mayo	2023-05-13T00:00:00	2024-11-08T18:00:00	3	Temperatura mínima	19.5
148700	7	Sololá	719	Santiago Atitlán	14	Cerro de Oro	5	Mayo	2023-05-13T00:00:00	2024-11-08T18:00:00	5	Humedad	89
148701	7	Sololá	719	Santiago Atitlán	14	Cerro de Oro	5	Mayo	2023-05-13T00:00:00	2024-11-08T18:00:00	6	Velocidad del viento	3.2
148702	7	Sololá	719	Santiago Atitlán	14	Cerro de Oro	5	Mayo	2023-05-13T00:00:00	2024-11-08T18:00:00	7	Dirección del viento	3.22
148703	7	Sololá	719	Santiago Atitlán	14	Cerro de Oro	5	Mayo	2023-05-13T00:00:00	2024-11-08T18:00:00	1	Precipitación	3.2
148704	7	Sololá	719	Santiago Atitlán	14	Cerro de Oro	5	Mayo	2023-05-13T00:00:00	2024-11-08T18:00:00	8	Radiación solar	61
148705	7	Sololá	719	Santiago Atitlán	14	Cerro de Oro	5	Mayo	2023-05-13T00:00:00	2024-11-08T19:00:00	2	Temperatura media	19.2
148706	7	Sololá	719	Santiago Atitlán	14	Cerro de Oro	5	Mayo	2023-05-13T00:00:00	2024-11-08T19:00:00	4	Temperatura máxima	19.6
148707	7	Sololá	719	Santiago Atitlán	14	Cerro de Oro	5	Mayo	2023-05-13T00:00:00	2024-11-08T19:00:00	3	Temperatura mínima	19.2
148708	7	Sololá	719	Santiago Atitlán	14	Cerro de Oro	5	Mayo	2023-05-13T00:00:00	2024-11-08T19:00:00	5	Humedad	88
148709	7	Sololá	719	Santiago Atitlán	14	Cerro de Oro	5	Mayo	2023-05-13T00:00:00	2024-11-08T19:00:00	6	Velocidad del viento	3.2
148710	7	Sololá	719	Santiago Atitlán	14	Cerro de Oro	5	Mayo	2023-05-13T00:00:00	2024-11-08T19:00:00	7	Dirección del viento	3.22
148711	7	Sololá	719	Santiago Atitlán	14	Cerro de Oro	5	Mayo	2023-05-13T00:00:00	2024-11-08T19:00:00	1	Precipitación	0
148712	7	Sololá	719	Santiago Atitlán	14	Cerro de Oro	5	Mayo	2023-05-13T00:00:00	2024-11-08T19:00:00	8	Radiación solar	0
148713	7	Sololá	719	Santiago Atitlán	14	Cerro de Oro	5	Mayo	2023-05-13T00:00:00	2024-11-08T20:00:00	2	Temperatura media	19.1
148714	7	Sololá	719	Santiago Atitlán	14	Cerro de Oro	5	Mayo	2023-05-13T00:00:00	2024-11-08T20:00:00	4	Temperatura máxima	19.3
148715	7	Sololá	719	Santiago Atitlán	14	Cerro de Oro	5	Mayo	2023-05-13T00:00:00	2024-11-08T20:00:00	3	Temperatura mínima	18.6
148716	7	Sololá	719	Santiago Atitlán	14	Cerro de Oro	5	Mayo	2023-05-13T00:00:00	2024-11-08T20:00:00	5	Humedad	89
148717	7	Sololá	719	Santiago Atitlán	14	Cerro de Oro	5	Mayo	2023-05-13T00:00:00	2024-11-08T20:00:00	6	Velocidad del viento	4.8
148718	7	Sololá	719	Santiago Atitlán	14	Cerro de Oro	5	Mayo	2023-05-13T00:00:00	2024-11-08T20:00:00	7	Dirección del viento	4.83
148719	7	Sololá	719	Santiago Atitlán	14	Cerro de Oro	5	Mayo	2023-05-13T00:00:00	2024-11-08T20:00:00	1	Precipitación	0.2
148720	7	Sololá	719	Santiago Atitlán	14	Cerro de Oro	5	Mayo	2023-05-13T00:00:00	2024-11-08T20:00:00	8	Radiación solar	0
148721	7	Sololá	719	Santiago Atitlán	14	Cerro de Oro	5	Mayo	2023-05-13T00:00:00	2024-11-08T21:00:00	2	Temperatura media	18.1
148722	7	Sololá	719	Santiago Atitlán	14	Cerro de Oro	5	Mayo	2023-05-13T00:00:00	2024-11-08T21:00:00	4	Temperatura máxima	19.1
148723	7	Sololá	719	Santiago Atitlán	14	Cerro de Oro	5	Mayo	2023-05-13T00:00:00	2024-11-08T21:00:00	3	Temperatura mínima	18.1
148724	7	Sololá	719	Santiago Atitlán	14	Cerro de Oro	5	Mayo	2023-05-13T00:00:00	2024-11-08T21:00:00	5	Humedad	90
148725	7	Sololá	719	Santiago Atitlán	14	Cerro de Oro	5	Mayo	2023-05-13T00:00:00	2024-11-08T21:00:00	6	Velocidad del viento	4.8
148726	7	Sololá	719	Santiago Atitlán	14	Cerro de Oro	5	Mayo	2023-05-13T00:00:00	2024-11-08T21:00:00	7	Dirección del viento	4.83
148727	7	Sololá	719	Santiago Atitlán	14	Cerro de Oro	5	Mayo	2023-05-13T00:00:00	2024-11-08T21:00:00	1	Precipitación	0
148728	7	Sololá	719	Santiago Atitlán	14	Cerro de Oro	5	Mayo	2023-05-13T00:00:00	2024-11-08T21:00:00	8	Radiación solar	0
148729	7	Sololá	719	Santiago Atitlán	14	Cerro de Oro	5	Mayo	2023-05-13T00:00:00	2024-11-08T22:00:00	2	Temperatura media	17.9
148730	7	Sololá	719	Santiago Atitlán	14	Cerro de Oro	5	Mayo	2023-05-13T00:00:00	2024-11-08T22:00:00	4	Temperatura máxima	18.4
148731	7	Sololá	719	Santiago Atitlán	14	Cerro de Oro	5	Mayo	2023-05-13T00:00:00	2024-11-08T22:00:00	3	Temperatura mínima	17.8
148732	7	Sololá	719	Santiago Atitlán	14	Cerro de Oro	5	Mayo	2023-05-13T00:00:00	2024-11-08T22:00:00	5	Humedad	89
148733	7	Sololá	719	Santiago Atitlán	14	Cerro de Oro	5	Mayo	2023-05-13T00:00:00	2024-11-08T22:00:00	6	Velocidad del viento	4.8
148734	7	Sololá	719	Santiago Atitlán	14	Cerro de Oro	5	Mayo	2023-05-13T00:00:00	2024-11-08T22:00:00	7	Dirección del viento	4.83
148735	7	Sololá	719	Santiago Atitlán	14	Cerro de Oro	5	Mayo	2023-05-13T00:00:00	2024-11-08T22:00:00	1	Precipitación	0
148736	7	Sololá	719	Santiago Atitlán	14	Cerro de Oro	5	Mayo	2023-05-13T00:00:00	2024-11-08T22:00:00	8	Radiación solar	0
148737	7	Sololá	719	Santiago Atitlán	14	Cerro de Oro	5	Mayo	2023-05-13T00:00:00	2024-11-08T23:00:00	2	Temperatura media	17.9
148738	7	Sololá	719	Santiago Atitlán	14	Cerro de Oro	5	Mayo	2023-05-13T00:00:00	2024-11-08T23:00:00	4	Temperatura máxima	18.4
148739	7	Sololá	719	Santiago Atitlán	14	Cerro de Oro	5	Mayo	2023-05-13T00:00:00	2024-11-08T23:00:00	3	Temperatura mínima	17.8
148740	7	Sololá	719	Santiago Atitlán	14	Cerro de Oro	5	Mayo	2023-05-13T00:00:00	2024-11-08T23:00:00	5	Humedad	90
148741	7	Sololá	719	Santiago Atitlán	14	Cerro de Oro	5	Mayo	2023-05-13T00:00:00	2024-11-08T23:00:00	6	Velocidad del viento	3.2
148742	7	Sololá	719	Santiago Atitlán	14	Cerro de Oro	5	Mayo	2023-05-13T00:00:00	2024-11-08T23:00:00	7	Dirección del viento	3.22
148743	7	Sololá	719	Santiago Atitlán	14	Cerro de Oro	5	Mayo	2023-05-13T00:00:00	2024-11-08T23:00:00	1	Precipitación	0
148744	7	Sololá	719	Santiago Atitlán	14	Cerro de Oro	5	Mayo	2023-05-13T00:00:00	2024-11-08T23:00:00	8	Radiación solar	0
148745	7	Sololá	719	Santiago Atitlán	14	Cerro de Oro	5	Mayo	2023-05-14T00:00:00	2024-11-08T00:00:00	2	Temperatura media	18.2
148746	7	Sololá	719	Santiago Atitlán	14	Cerro de Oro	5	Mayo	2023-05-14T00:00:00	2024-11-08T00:00:00	4	Temperatura máxima	18.3
148747	7	Sololá	719	Santiago Atitlán	14	Cerro de Oro	5	Mayo	2023-05-14T00:00:00	2024-11-08T00:00:00	3	Temperatura mínima	17.9
148748	7	Sololá	719	Santiago Atitlán	14	Cerro de Oro	5	Mayo	2023-05-14T00:00:00	2024-11-08T00:00:00	5	Humedad	88
148749	7	Sololá	719	Santiago Atitlán	14	Cerro de Oro	5	Mayo	2023-05-14T00:00:00	2024-11-08T00:00:00	6	Velocidad del viento	3.2
148750	7	Sololá	719	Santiago Atitlán	14	Cerro de Oro	5	Mayo	2023-05-14T00:00:00	2024-11-08T00:00:00	7	Dirección del viento	3.22
148751	7	Sololá	719	Santiago Atitlán	14	Cerro de Oro	5	Mayo	2023-05-14T00:00:00	2024-11-08T00:00:00	1	Precipitación	0
148752	7	Sololá	719	Santiago Atitlán	14	Cerro de Oro	5	Mayo	2023-05-14T00:00:00	2024-11-08T00:00:00	8	Radiación solar	0
148753	7	Sololá	719	Santiago Atitlán	14	Cerro de Oro	5	Mayo	2023-05-14T00:00:00	2024-11-08T01:00:00	2	Temperatura media	17.9
148754	7	Sololá	719	Santiago Atitlán	14	Cerro de Oro	5	Mayo	2023-05-14T00:00:00	2024-11-08T01:00:00	4	Temperatura máxima	18.5
148755	7	Sololá	719	Santiago Atitlán	14	Cerro de Oro	5	Mayo	2023-05-14T00:00:00	2024-11-08T01:00:00	3	Temperatura mínima	17.8
148756	7	Sololá	719	Santiago Atitlán	14	Cerro de Oro	5	Mayo	2023-05-14T00:00:00	2024-11-08T01:00:00	5	Humedad	89
148757	7	Sololá	719	Santiago Atitlán	14	Cerro de Oro	5	Mayo	2023-05-14T00:00:00	2024-11-08T01:00:00	6	Velocidad del viento	3.2
148758	7	Sololá	719	Santiago Atitlán	14	Cerro de Oro	5	Mayo	2023-05-14T00:00:00	2024-11-08T01:00:00	7	Dirección del viento	3.22
148759	7	Sololá	719	Santiago Atitlán	14	Cerro de Oro	5	Mayo	2023-05-14T00:00:00	2024-11-08T01:00:00	1	Precipitación	0
148760	7	Sololá	719	Santiago Atitlán	14	Cerro de Oro	5	Mayo	2023-05-14T00:00:00	2024-11-08T01:00:00	8	Radiación solar	0
148761	7	Sololá	719	Santiago Atitlán	14	Cerro de Oro	5	Mayo	2023-05-14T00:00:00	2024-11-08T02:00:00	2	Temperatura media	18.1
148762	7	Sololá	719	Santiago Atitlán	14	Cerro de Oro	5	Mayo	2023-05-14T00:00:00	2024-11-08T02:00:00	4	Temperatura máxima	18.1
148763	7	Sololá	719	Santiago Atitlán	14	Cerro de Oro	5	Mayo	2023-05-14T00:00:00	2024-11-08T02:00:00	3	Temperatura mínima	17.8
148764	7	Sololá	719	Santiago Atitlán	14	Cerro de Oro	5	Mayo	2023-05-14T00:00:00	2024-11-08T02:00:00	5	Humedad	87
148765	7	Sololá	719	Santiago Atitlán	14	Cerro de Oro	5	Mayo	2023-05-14T00:00:00	2024-11-08T02:00:00	6	Velocidad del viento	3.2
148766	7	Sololá	719	Santiago Atitlán	14	Cerro de Oro	5	Mayo	2023-05-14T00:00:00	2024-11-08T02:00:00	7	Dirección del viento	3.22
148767	7	Sololá	719	Santiago Atitlán	14	Cerro de Oro	5	Mayo	2023-05-14T00:00:00	2024-11-08T02:00:00	1	Precipitación	0
148768	7	Sololá	719	Santiago Atitlán	14	Cerro de Oro	5	Mayo	2023-05-14T00:00:00	2024-11-08T02:00:00	8	Radiación solar	0
148769	7	Sololá	719	Santiago Atitlán	14	Cerro de Oro	5	Mayo	2023-05-14T00:00:00	2024-11-08T03:00:00	2	Temperatura media	18.3
148770	7	Sololá	719	Santiago Atitlán	14	Cerro de Oro	5	Mayo	2023-05-14T00:00:00	2024-11-08T03:00:00	4	Temperatura máxima	18.4
148771	7	Sololá	719	Santiago Atitlán	14	Cerro de Oro	5	Mayo	2023-05-14T00:00:00	2024-11-08T03:00:00	3	Temperatura mínima	18.1
148772	7	Sololá	719	Santiago Atitlán	14	Cerro de Oro	5	Mayo	2023-05-14T00:00:00	2024-11-08T03:00:00	5	Humedad	87
148773	7	Sololá	719	Santiago Atitlán	14	Cerro de Oro	5	Mayo	2023-05-14T00:00:00	2024-11-08T03:00:00	6	Velocidad del viento	3.2
148774	7	Sololá	719	Santiago Atitlán	14	Cerro de Oro	5	Mayo	2023-05-14T00:00:00	2024-11-08T03:00:00	7	Dirección del viento	3.22
148775	7	Sololá	719	Santiago Atitlán	14	Cerro de Oro	5	Mayo	2023-05-14T00:00:00	2024-11-08T03:00:00	1	Precipitación	0
148776	7	Sololá	719	Santiago Atitlán	14	Cerro de Oro	5	Mayo	2023-05-14T00:00:00	2024-11-08T03:00:00	8	Radiación solar	0
148777	7	Sololá	719	Santiago Atitlán	14	Cerro de Oro	5	Mayo	2023-05-14T00:00:00	2024-11-08T04:00:00	2	Temperatura media	18.2
148778	7	Sololá	719	Santiago Atitlán	14	Cerro de Oro	5	Mayo	2023-05-14T00:00:00	2024-11-08T04:00:00	4	Temperatura máxima	18.3
148779	7	Sololá	719	Santiago Atitlán	14	Cerro de Oro	5	Mayo	2023-05-14T00:00:00	2024-11-08T04:00:00	3	Temperatura mínima	17.9
148780	7	Sololá	719	Santiago Atitlán	14	Cerro de Oro	5	Mayo	2023-05-14T00:00:00	2024-11-08T04:00:00	5	Humedad	86
148781	7	Sololá	719	Santiago Atitlán	14	Cerro de Oro	5	Mayo	2023-05-14T00:00:00	2024-11-08T04:00:00	6	Velocidad del viento	4.8
148782	7	Sololá	719	Santiago Atitlán	14	Cerro de Oro	5	Mayo	2023-05-14T00:00:00	2024-11-08T04:00:00	7	Dirección del viento	4.83
148783	7	Sololá	719	Santiago Atitlán	14	Cerro de Oro	5	Mayo	2023-05-14T00:00:00	2024-11-08T04:00:00	1	Precipitación	0
148784	7	Sololá	719	Santiago Atitlán	14	Cerro de Oro	5	Mayo	2023-05-14T00:00:00	2024-11-08T04:00:00	8	Radiación solar	0
148785	7	Sololá	719	Santiago Atitlán	14	Cerro de Oro	5	Mayo	2023-05-14T00:00:00	2024-11-08T05:00:00	2	Temperatura media	18
148786	7	Sololá	719	Santiago Atitlán	14	Cerro de Oro	5	Mayo	2023-05-14T00:00:00	2024-11-08T05:00:00	4	Temperatura máxima	18.5
148787	7	Sololá	719	Santiago Atitlán	14	Cerro de Oro	5	Mayo	2023-05-14T00:00:00	2024-11-08T05:00:00	3	Temperatura mínima	17.6
148788	7	Sololá	719	Santiago Atitlán	14	Cerro de Oro	5	Mayo	2023-05-14T00:00:00	2024-11-08T05:00:00	5	Humedad	82
148789	7	Sololá	719	Santiago Atitlán	14	Cerro de Oro	5	Mayo	2023-05-14T00:00:00	2024-11-08T05:00:00	6	Velocidad del viento	11.3
148790	7	Sololá	719	Santiago Atitlán	14	Cerro de Oro	5	Mayo	2023-05-14T00:00:00	2024-11-08T05:00:00	7	Dirección del viento	11.27
148791	7	Sololá	719	Santiago Atitlán	14	Cerro de Oro	5	Mayo	2023-05-14T00:00:00	2024-11-08T05:00:00	1	Precipitación	2.8
148792	7	Sololá	719	Santiago Atitlán	14	Cerro de Oro	5	Mayo	2023-05-14T00:00:00	2024-11-08T05:00:00	8	Radiación solar	0
148793	7	Sololá	719	Santiago Atitlán	14	Cerro de Oro	5	Mayo	2023-05-14T00:00:00	2024-11-08T06:00:00	2	Temperatura media	18.3
148794	7	Sololá	719	Santiago Atitlán	14	Cerro de Oro	5	Mayo	2023-05-14T00:00:00	2024-11-08T06:00:00	4	Temperatura máxima	18.3
148795	7	Sololá	719	Santiago Atitlán	14	Cerro de Oro	5	Mayo	2023-05-14T00:00:00	2024-11-08T06:00:00	3	Temperatura mínima	17.6
148796	7	Sololá	719	Santiago Atitlán	14	Cerro de Oro	5	Mayo	2023-05-14T00:00:00	2024-11-08T06:00:00	5	Humedad	73
148797	7	Sololá	719	Santiago Atitlán	14	Cerro de Oro	5	Mayo	2023-05-14T00:00:00	2024-11-08T06:00:00	6	Velocidad del viento	6.4
148798	7	Sololá	719	Santiago Atitlán	14	Cerro de Oro	5	Mayo	2023-05-14T00:00:00	2024-11-08T06:00:00	7	Dirección del viento	6.44
148799	7	Sololá	719	Santiago Atitlán	14	Cerro de Oro	5	Mayo	2023-05-14T00:00:00	2024-11-08T06:00:00	1	Precipitación	0
148800	7	Sololá	719	Santiago Atitlán	14	Cerro de Oro	5	Mayo	2023-05-14T00:00:00	2024-11-08T06:00:00	8	Radiación solar	0
148801	7	Sololá	719	Santiago Atitlán	14	Cerro de Oro	5	Mayo	2023-05-14T00:00:00	2024-11-08T07:00:00	2	Temperatura media	17.7
148802	7	Sololá	719	Santiago Atitlán	14	Cerro de Oro	5	Mayo	2023-05-14T00:00:00	2024-11-08T07:00:00	4	Temperatura máxima	18.3
148803	7	Sololá	719	Santiago Atitlán	14	Cerro de Oro	5	Mayo	2023-05-14T00:00:00	2024-11-08T07:00:00	3	Temperatura mínima	17.6
148804	7	Sololá	719	Santiago Atitlán	14	Cerro de Oro	5	Mayo	2023-05-14T00:00:00	2024-11-08T07:00:00	5	Humedad	78
148805	7	Sololá	719	Santiago Atitlán	14	Cerro de Oro	5	Mayo	2023-05-14T00:00:00	2024-11-08T07:00:00	6	Velocidad del viento	6.4
148806	7	Sololá	719	Santiago Atitlán	14	Cerro de Oro	5	Mayo	2023-05-14T00:00:00	2024-11-08T07:00:00	7	Dirección del viento	6.44
148807	7	Sololá	719	Santiago Atitlán	14	Cerro de Oro	5	Mayo	2023-05-14T00:00:00	2024-11-08T07:00:00	1	Precipitación	0
148808	7	Sololá	719	Santiago Atitlán	14	Cerro de Oro	5	Mayo	2023-05-14T00:00:00	2024-11-08T07:00:00	8	Radiación solar	1
148809	7	Sololá	719	Santiago Atitlán	14	Cerro de Oro	5	Mayo	2023-05-14T00:00:00	2024-11-08T08:00:00	2	Temperatura media	17.6
148810	7	Sololá	719	Santiago Atitlán	14	Cerro de Oro	5	Mayo	2023-05-14T00:00:00	2024-11-08T08:00:00	4	Temperatura máxima	18.1
148811	7	Sololá	719	Santiago Atitlán	14	Cerro de Oro	5	Mayo	2023-05-14T00:00:00	2024-11-08T08:00:00	3	Temperatura mínima	17.2
148812	7	Sololá	719	Santiago Atitlán	14	Cerro de Oro	5	Mayo	2023-05-14T00:00:00	2024-11-08T08:00:00	5	Humedad	76
148813	7	Sololá	719	Santiago Atitlán	14	Cerro de Oro	5	Mayo	2023-05-14T00:00:00	2024-11-08T08:00:00	6	Velocidad del viento	4.8
148814	7	Sololá	719	Santiago Atitlán	14	Cerro de Oro	5	Mayo	2023-05-14T00:00:00	2024-11-08T08:00:00	7	Dirección del viento	4.83
148815	7	Sololá	719	Santiago Atitlán	14	Cerro de Oro	5	Mayo	2023-05-14T00:00:00	2024-11-08T08:00:00	1	Precipitación	0
148816	7	Sololá	719	Santiago Atitlán	14	Cerro de Oro	5	Mayo	2023-05-14T00:00:00	2024-11-08T08:00:00	8	Radiación solar	14
148817	7	Sololá	719	Santiago Atitlán	14	Cerro de Oro	5	Mayo	2023-05-14T00:00:00	2024-11-08T09:00:00	2	Temperatura media	18.8
148818	7	Sololá	719	Santiago Atitlán	14	Cerro de Oro	5	Mayo	2023-05-14T00:00:00	2024-11-08T09:00:00	4	Temperatura máxima	18.8
148819	7	Sololá	719	Santiago Atitlán	14	Cerro de Oro	5	Mayo	2023-05-14T00:00:00	2024-11-08T09:00:00	3	Temperatura mínima	17.6
148820	7	Sololá	719	Santiago Atitlán	14	Cerro de Oro	5	Mayo	2023-05-14T00:00:00	2024-11-08T09:00:00	5	Humedad	73
148821	7	Sololá	719	Santiago Atitlán	14	Cerro de Oro	5	Mayo	2023-05-14T00:00:00	2024-11-08T09:00:00	6	Velocidad del viento	3.2
148822	7	Sololá	719	Santiago Atitlán	14	Cerro de Oro	5	Mayo	2023-05-14T00:00:00	2024-11-08T09:00:00	7	Dirección del viento	3.22
148823	7	Sololá	719	Santiago Atitlán	14	Cerro de Oro	5	Mayo	2023-05-14T00:00:00	2024-11-08T09:00:00	1	Precipitación	0
148824	7	Sololá	719	Santiago Atitlán	14	Cerro de Oro	5	Mayo	2023-05-14T00:00:00	2024-11-08T09:00:00	8	Radiación solar	83
148825	7	Sololá	719	Santiago Atitlán	14	Cerro de Oro	5	Mayo	2023-05-14T00:00:00	2024-11-08T10:00:00	2	Temperatura media	21.6
148826	7	Sololá	719	Santiago Atitlán	14	Cerro de Oro	5	Mayo	2023-05-14T00:00:00	2024-11-08T10:00:00	4	Temperatura máxima	21.6
148827	7	Sololá	719	Santiago Atitlán	14	Cerro de Oro	5	Mayo	2023-05-14T00:00:00	2024-11-08T10:00:00	3	Temperatura mínima	18.8
148828	7	Sololá	719	Santiago Atitlán	14	Cerro de Oro	5	Mayo	2023-05-14T00:00:00	2024-11-08T10:00:00	5	Humedad	63
148829	7	Sololá	719	Santiago Atitlán	14	Cerro de Oro	5	Mayo	2023-05-14T00:00:00	2024-11-08T10:00:00	6	Velocidad del viento	3.2
148830	7	Sololá	719	Santiago Atitlán	14	Cerro de Oro	5	Mayo	2023-05-14T00:00:00	2024-11-08T10:00:00	7	Dirección del viento	3.22
148831	7	Sololá	719	Santiago Atitlán	14	Cerro de Oro	5	Mayo	2023-05-14T00:00:00	2024-11-08T10:00:00	1	Precipitación	0
148832	7	Sololá	719	Santiago Atitlán	14	Cerro de Oro	5	Mayo	2023-05-14T00:00:00	2024-11-08T10:00:00	8	Radiación solar	374
148833	7	Sololá	719	Santiago Atitlán	14	Cerro de Oro	5	Mayo	2023-05-14T00:00:00	2024-11-08T11:00:00	2	Temperatura media	21.1
148834	7	Sololá	719	Santiago Atitlán	14	Cerro de Oro	5	Mayo	2023-05-14T00:00:00	2024-11-08T11:00:00	4	Temperatura máxima	21.7
148835	7	Sololá	719	Santiago Atitlán	14	Cerro de Oro	5	Mayo	2023-05-14T00:00:00	2024-11-08T11:00:00	3	Temperatura mínima	21
148836	7	Sololá	719	Santiago Atitlán	14	Cerro de Oro	5	Mayo	2023-05-14T00:00:00	2024-11-08T11:00:00	5	Humedad	69
148837	7	Sololá	719	Santiago Atitlán	14	Cerro de Oro	5	Mayo	2023-05-14T00:00:00	2024-11-08T11:00:00	6	Velocidad del viento	4.8
148838	7	Sololá	719	Santiago Atitlán	14	Cerro de Oro	5	Mayo	2023-05-14T00:00:00	2024-11-08T11:00:00	7	Dirección del viento	4.83
148839	7	Sololá	719	Santiago Atitlán	14	Cerro de Oro	5	Mayo	2023-05-14T00:00:00	2024-11-08T11:00:00	1	Precipitación	0
148840	7	Sololá	719	Santiago Atitlán	14	Cerro de Oro	5	Mayo	2023-05-14T00:00:00	2024-11-08T11:00:00	8	Radiación solar	290
148841	7	Sololá	719	Santiago Atitlán	14	Cerro de Oro	5	Mayo	2023-05-14T00:00:00	2024-11-08T12:00:00	2	Temperatura media	22.4
148842	7	Sololá	719	Santiago Atitlán	14	Cerro de Oro	5	Mayo	2023-05-14T00:00:00	2024-11-08T12:00:00	4	Temperatura máxima	22.4
148843	7	Sololá	719	Santiago Atitlán	14	Cerro de Oro	5	Mayo	2023-05-14T00:00:00	2024-11-08T12:00:00	3	Temperatura mínima	21.1
148844	7	Sololá	719	Santiago Atitlán	14	Cerro de Oro	5	Mayo	2023-05-14T00:00:00	2024-11-08T12:00:00	5	Humedad	63
148845	7	Sololá	719	Santiago Atitlán	14	Cerro de Oro	5	Mayo	2023-05-14T00:00:00	2024-11-08T12:00:00	6	Velocidad del viento	8
148846	7	Sololá	719	Santiago Atitlán	14	Cerro de Oro	5	Mayo	2023-05-14T00:00:00	2024-11-08T12:00:00	7	Dirección del viento	8.05
148847	7	Sololá	719	Santiago Atitlán	14	Cerro de Oro	5	Mayo	2023-05-14T00:00:00	2024-11-08T12:00:00	1	Precipitación	0
148848	7	Sololá	719	Santiago Atitlán	14	Cerro de Oro	5	Mayo	2023-05-14T00:00:00	2024-11-08T12:00:00	8	Radiación solar	546
148849	7	Sololá	719	Santiago Atitlán	14	Cerro de Oro	5	Mayo	2023-05-14T00:00:00	2024-11-08T13:00:00	2	Temperatura media	23.9
148850	7	Sololá	719	Santiago Atitlán	14	Cerro de Oro	5	Mayo	2023-05-14T00:00:00	2024-11-08T13:00:00	4	Temperatura máxima	23.9
148851	7	Sololá	719	Santiago Atitlán	14	Cerro de Oro	5	Mayo	2023-05-14T00:00:00	2024-11-08T13:00:00	3	Temperatura mínima	22.1
148852	7	Sololá	719	Santiago Atitlán	14	Cerro de Oro	5	Mayo	2023-05-14T00:00:00	2024-11-08T13:00:00	5	Humedad	63
148853	7	Sololá	719	Santiago Atitlán	14	Cerro de Oro	5	Mayo	2023-05-14T00:00:00	2024-11-08T13:00:00	6	Velocidad del viento	9.7
148854	7	Sololá	719	Santiago Atitlán	14	Cerro de Oro	5	Mayo	2023-05-14T00:00:00	2024-11-08T13:00:00	7	Dirección del viento	9.66
148855	7	Sololá	719	Santiago Atitlán	14	Cerro de Oro	5	Mayo	2023-05-14T00:00:00	2024-11-08T13:00:00	1	Precipitación	0
148856	7	Sololá	719	Santiago Atitlán	14	Cerro de Oro	5	Mayo	2023-05-14T00:00:00	2024-11-08T13:00:00	8	Radiación solar	759
148857	7	Sololá	719	Santiago Atitlán	14	Cerro de Oro	5	Mayo	2023-05-14T00:00:00	2024-11-08T14:00:00	2	Temperatura media	23.7
148858	7	Sololá	719	Santiago Atitlán	14	Cerro de Oro	5	Mayo	2023-05-14T00:00:00	2024-11-08T14:00:00	4	Temperatura máxima	24.3
148859	7	Sololá	719	Santiago Atitlán	14	Cerro de Oro	5	Mayo	2023-05-14T00:00:00	2024-11-08T14:00:00	3	Temperatura mínima	23.3
148860	7	Sololá	719	Santiago Atitlán	14	Cerro de Oro	5	Mayo	2023-05-14T00:00:00	2024-11-08T14:00:00	5	Humedad	65
148861	7	Sololá	719	Santiago Atitlán	14	Cerro de Oro	5	Mayo	2023-05-14T00:00:00	2024-11-08T14:00:00	6	Velocidad del viento	6.4
148862	7	Sololá	719	Santiago Atitlán	14	Cerro de Oro	5	Mayo	2023-05-14T00:00:00	2024-11-08T14:00:00	7	Dirección del viento	6.44
148863	7	Sololá	719	Santiago Atitlán	14	Cerro de Oro	5	Mayo	2023-05-14T00:00:00	2024-11-08T14:00:00	1	Precipitación	0
148864	7	Sololá	719	Santiago Atitlán	14	Cerro de Oro	5	Mayo	2023-05-14T00:00:00	2024-11-08T14:00:00	8	Radiación solar	865
148865	7	Sololá	719	Santiago Atitlán	14	Cerro de Oro	5	Mayo	2023-05-14T00:00:00	2024-11-08T15:00:00	2	Temperatura media	23.8
148866	7	Sololá	719	Santiago Atitlán	14	Cerro de Oro	5	Mayo	2023-05-14T00:00:00	2024-11-08T15:00:00	4	Temperatura máxima	23.9
148867	7	Sololá	719	Santiago Atitlán	14	Cerro de Oro	5	Mayo	2023-05-14T00:00:00	2024-11-08T15:00:00	3	Temperatura mínima	23.4
148868	7	Sololá	719	Santiago Atitlán	14	Cerro de Oro	5	Mayo	2023-05-14T00:00:00	2024-11-08T15:00:00	5	Humedad	66
148869	7	Sololá	719	Santiago Atitlán	14	Cerro de Oro	5	Mayo	2023-05-14T00:00:00	2024-11-08T15:00:00	6	Velocidad del viento	8
148870	7	Sololá	719	Santiago Atitlán	14	Cerro de Oro	5	Mayo	2023-05-14T00:00:00	2024-11-08T15:00:00	7	Dirección del viento	8.05
148871	7	Sololá	719	Santiago Atitlán	14	Cerro de Oro	5	Mayo	2023-05-14T00:00:00	2024-11-08T15:00:00	1	Precipitación	0
148872	7	Sololá	719	Santiago Atitlán	14	Cerro de Oro	5	Mayo	2023-05-14T00:00:00	2024-11-08T15:00:00	8	Radiación solar	564
148873	7	Sololá	719	Santiago Atitlán	14	Cerro de Oro	5	Mayo	2023-05-14T00:00:00	2024-11-08T16:00:00	2	Temperatura media	23.1
148874	7	Sololá	719	Santiago Atitlán	14	Cerro de Oro	5	Mayo	2023-05-14T00:00:00	2024-11-08T16:00:00	4	Temperatura máxima	24.3
148875	7	Sololá	719	Santiago Atitlán	14	Cerro de Oro	5	Mayo	2023-05-14T00:00:00	2024-11-08T16:00:00	3	Temperatura mínima	23.1
148876	7	Sololá	719	Santiago Atitlán	14	Cerro de Oro	5	Mayo	2023-05-14T00:00:00	2024-11-08T16:00:00	5	Humedad	73
148877	7	Sololá	719	Santiago Atitlán	14	Cerro de Oro	5	Mayo	2023-05-14T00:00:00	2024-11-08T16:00:00	6	Velocidad del viento	11.3
148878	7	Sololá	719	Santiago Atitlán	14	Cerro de Oro	5	Mayo	2023-05-14T00:00:00	2024-11-08T16:00:00	7	Dirección del viento	11.27
148879	7	Sololá	719	Santiago Atitlán	14	Cerro de Oro	5	Mayo	2023-05-14T00:00:00	2024-11-08T16:00:00	1	Precipitación	0
148880	7	Sololá	719	Santiago Atitlán	14	Cerro de Oro	5	Mayo	2023-05-14T00:00:00	2024-11-08T16:00:00	8	Radiación solar	545
148881	7	Sololá	719	Santiago Atitlán	14	Cerro de Oro	5	Mayo	2023-05-14T00:00:00	2024-11-08T17:00:00	2	Temperatura media	23.6
148882	7	Sololá	719	Santiago Atitlán	14	Cerro de Oro	5	Mayo	2023-05-14T00:00:00	2024-11-08T17:00:00	4	Temperatura máxima	23.9
148883	7	Sololá	719	Santiago Atitlán	14	Cerro de Oro	5	Mayo	2023-05-14T00:00:00	2024-11-08T17:00:00	3	Temperatura mínima	23.2
148884	7	Sololá	719	Santiago Atitlán	14	Cerro de Oro	5	Mayo	2023-05-14T00:00:00	2024-11-08T17:00:00	5	Humedad	70
148885	7	Sololá	719	Santiago Atitlán	14	Cerro de Oro	5	Mayo	2023-05-14T00:00:00	2024-11-08T17:00:00	6	Velocidad del viento	6.4
148886	7	Sololá	719	Santiago Atitlán	14	Cerro de Oro	5	Mayo	2023-05-14T00:00:00	2024-11-08T17:00:00	7	Dirección del viento	6.44
148887	7	Sololá	719	Santiago Atitlán	14	Cerro de Oro	5	Mayo	2023-05-14T00:00:00	2024-11-08T17:00:00	1	Precipitación	0
148888	7	Sololá	719	Santiago Atitlán	14	Cerro de Oro	5	Mayo	2023-05-14T00:00:00	2024-11-08T17:00:00	8	Radiación solar	469
148889	7	Sololá	719	Santiago Atitlán	14	Cerro de Oro	5	Mayo	2023-05-14T00:00:00	2024-11-08T18:00:00	2	Temperatura media	22.3
148890	7	Sololá	719	Santiago Atitlán	14	Cerro de Oro	5	Mayo	2023-05-14T00:00:00	2024-11-08T18:00:00	4	Temperatura máxima	23.8
148891	7	Sololá	719	Santiago Atitlán	14	Cerro de Oro	5	Mayo	2023-05-14T00:00:00	2024-11-08T18:00:00	3	Temperatura mínima	22.3
148892	7	Sololá	719	Santiago Atitlán	14	Cerro de Oro	5	Mayo	2023-05-14T00:00:00	2024-11-08T18:00:00	5	Humedad	80
148893	7	Sololá	719	Santiago Atitlán	14	Cerro de Oro	5	Mayo	2023-05-14T00:00:00	2024-11-08T18:00:00	6	Velocidad del viento	4.8
148894	7	Sololá	719	Santiago Atitlán	14	Cerro de Oro	5	Mayo	2023-05-14T00:00:00	2024-11-08T18:00:00	7	Dirección del viento	4.83
148895	7	Sololá	719	Santiago Atitlán	14	Cerro de Oro	5	Mayo	2023-05-14T00:00:00	2024-11-08T18:00:00	1	Precipitación	0
148896	7	Sololá	719	Santiago Atitlán	14	Cerro de Oro	5	Mayo	2023-05-14T00:00:00	2024-11-08T18:00:00	8	Radiación solar	309
148897	7	Sololá	719	Santiago Atitlán	14	Cerro de Oro	5	Mayo	2023-05-14T00:00:00	2024-11-08T19:00:00	2	Temperatura media	20.7
148898	7	Sololá	719	Santiago Atitlán	14	Cerro de Oro	5	Mayo	2023-05-14T00:00:00	2024-11-08T19:00:00	4	Temperatura máxima	22.4
148899	7	Sololá	719	Santiago Atitlán	14	Cerro de Oro	5	Mayo	2023-05-14T00:00:00	2024-11-08T19:00:00	3	Temperatura mínima	20.7
148900	7	Sololá	719	Santiago Atitlán	14	Cerro de Oro	5	Mayo	2023-05-14T00:00:00	2024-11-08T19:00:00	5	Humedad	85
148901	7	Sololá	719	Santiago Atitlán	14	Cerro de Oro	5	Mayo	2023-05-14T00:00:00	2024-11-08T19:00:00	6	Velocidad del viento	8
148902	7	Sololá	719	Santiago Atitlán	14	Cerro de Oro	5	Mayo	2023-05-14T00:00:00	2024-11-08T19:00:00	7	Dirección del viento	8.05
148903	7	Sololá	719	Santiago Atitlán	14	Cerro de Oro	5	Mayo	2023-05-14T00:00:00	2024-11-08T19:00:00	1	Precipitación	0
148904	7	Sololá	719	Santiago Atitlán	14	Cerro de Oro	5	Mayo	2023-05-14T00:00:00	2024-11-08T19:00:00	8	Radiación solar	0
148905	7	Sololá	719	Santiago Atitlán	14	Cerro de Oro	5	Mayo	2023-05-14T00:00:00	2024-11-08T20:00:00	2	Temperatura media	20.4
148906	7	Sololá	719	Santiago Atitlán	14	Cerro de Oro	5	Mayo	2023-05-14T00:00:00	2024-11-08T20:00:00	4	Temperatura máxima	20.8
148907	7	Sololá	719	Santiago Atitlán	14	Cerro de Oro	5	Mayo	2023-05-14T00:00:00	2024-11-08T20:00:00	3	Temperatura mínima	20.4
148908	7	Sololá	719	Santiago Atitlán	14	Cerro de Oro	5	Mayo	2023-05-14T00:00:00	2024-11-08T20:00:00	5	Humedad	85
148909	7	Sololá	719	Santiago Atitlán	14	Cerro de Oro	5	Mayo	2023-05-14T00:00:00	2024-11-08T20:00:00	6	Velocidad del viento	4.8
148910	7	Sololá	719	Santiago Atitlán	14	Cerro de Oro	5	Mayo	2023-05-14T00:00:00	2024-11-08T20:00:00	7	Dirección del viento	4.83
148911	7	Sololá	719	Santiago Atitlán	14	Cerro de Oro	5	Mayo	2023-05-14T00:00:00	2024-11-08T20:00:00	1	Precipitación	0
148912	7	Sololá	719	Santiago Atitlán	14	Cerro de Oro	5	Mayo	2023-05-14T00:00:00	2024-11-08T20:00:00	8	Radiación solar	0
148913	7	Sololá	719	Santiago Atitlán	14	Cerro de Oro	5	Mayo	2023-05-14T00:00:00	2024-11-08T21:00:00	2	Temperatura media	19.9
148914	7	Sololá	719	Santiago Atitlán	14	Cerro de Oro	5	Mayo	2023-05-14T00:00:00	2024-11-08T21:00:00	4	Temperatura máxima	20.5
148915	7	Sololá	719	Santiago Atitlán	14	Cerro de Oro	5	Mayo	2023-05-14T00:00:00	2024-11-08T21:00:00	3	Temperatura mínima	19.7
148916	7	Sololá	719	Santiago Atitlán	14	Cerro de Oro	5	Mayo	2023-05-14T00:00:00	2024-11-08T21:00:00	5	Humedad	82
148917	7	Sololá	719	Santiago Atitlán	14	Cerro de Oro	5	Mayo	2023-05-14T00:00:00	2024-11-08T21:00:00	6	Velocidad del viento	6.4
148918	7	Sololá	719	Santiago Atitlán	14	Cerro de Oro	5	Mayo	2023-05-14T00:00:00	2024-11-08T21:00:00	7	Dirección del viento	6.44
148919	7	Sololá	719	Santiago Atitlán	14	Cerro de Oro	5	Mayo	2023-05-14T00:00:00	2024-11-08T21:00:00	1	Precipitación	0.2
148920	7	Sololá	719	Santiago Atitlán	14	Cerro de Oro	5	Mayo	2023-05-14T00:00:00	2024-11-08T21:00:00	8	Radiación solar	0
148921	7	Sololá	719	Santiago Atitlán	14	Cerro de Oro	5	Mayo	2023-05-14T00:00:00	2024-11-08T22:00:00	2	Temperatura media	20
148922	7	Sololá	719	Santiago Atitlán	14	Cerro de Oro	5	Mayo	2023-05-14T00:00:00	2024-11-08T22:00:00	4	Temperatura máxima	20.2
148923	7	Sololá	719	Santiago Atitlán	14	Cerro de Oro	5	Mayo	2023-05-14T00:00:00	2024-11-08T22:00:00	3	Temperatura mínima	19.4
148924	7	Sololá	719	Santiago Atitlán	14	Cerro de Oro	5	Mayo	2023-05-14T00:00:00	2024-11-08T22:00:00	5	Humedad	85
148925	7	Sololá	719	Santiago Atitlán	14	Cerro de Oro	5	Mayo	2023-05-14T00:00:00	2024-11-08T22:00:00	6	Velocidad del viento	6.4
148926	7	Sololá	719	Santiago Atitlán	14	Cerro de Oro	5	Mayo	2023-05-14T00:00:00	2024-11-08T22:00:00	7	Dirección del viento	6.44
148927	7	Sololá	719	Santiago Atitlán	14	Cerro de Oro	5	Mayo	2023-05-14T00:00:00	2024-11-08T22:00:00	1	Precipitación	0
148928	7	Sololá	719	Santiago Atitlán	14	Cerro de Oro	5	Mayo	2023-05-14T00:00:00	2024-11-08T22:00:00	8	Radiación solar	0
148929	7	Sololá	719	Santiago Atitlán	14	Cerro de Oro	5	Mayo	2023-05-14T00:00:00	2024-11-08T23:00:00	2	Temperatura media	18.9
148930	7	Sololá	719	Santiago Atitlán	14	Cerro de Oro	5	Mayo	2023-05-14T00:00:00	2024-11-08T23:00:00	4	Temperatura máxima	20
148931	7	Sololá	719	Santiago Atitlán	14	Cerro de Oro	5	Mayo	2023-05-14T00:00:00	2024-11-08T23:00:00	3	Temperatura mínima	18.9
148932	7	Sololá	719	Santiago Atitlán	14	Cerro de Oro	5	Mayo	2023-05-14T00:00:00	2024-11-08T23:00:00	5	Humedad	86
148933	7	Sololá	719	Santiago Atitlán	14	Cerro de Oro	5	Mayo	2023-05-14T00:00:00	2024-11-08T23:00:00	6	Velocidad del viento	3.2
148934	7	Sololá	719	Santiago Atitlán	14	Cerro de Oro	5	Mayo	2023-05-14T00:00:00	2024-11-08T23:00:00	7	Dirección del viento	3.22
148935	7	Sololá	719	Santiago Atitlán	14	Cerro de Oro	5	Mayo	2023-05-14T00:00:00	2024-11-08T23:00:00	1	Precipitación	0
148936	7	Sololá	719	Santiago Atitlán	14	Cerro de Oro	5	Mayo	2023-05-14T00:00:00	2024-11-08T23:00:00	8	Radiación solar	0
148937	7	Sololá	719	Santiago Atitlán	14	Cerro de Oro	5	Mayo	2023-05-15T00:00:00	2024-11-08T00:00:00	2	Temperatura media	19.5
148938	7	Sololá	719	Santiago Atitlán	14	Cerro de Oro	5	Mayo	2023-05-15T00:00:00	2024-11-08T00:00:00	4	Temperatura máxima	19.6
148939	7	Sololá	719	Santiago Atitlán	14	Cerro de Oro	5	Mayo	2023-05-15T00:00:00	2024-11-08T00:00:00	3	Temperatura mínima	18.9
148940	7	Sololá	719	Santiago Atitlán	14	Cerro de Oro	5	Mayo	2023-05-15T00:00:00	2024-11-08T00:00:00	5	Humedad	84
148941	7	Sololá	719	Santiago Atitlán	14	Cerro de Oro	5	Mayo	2023-05-15T00:00:00	2024-11-08T00:00:00	6	Velocidad del viento	3.2
148942	7	Sololá	719	Santiago Atitlán	14	Cerro de Oro	5	Mayo	2023-05-15T00:00:00	2024-11-08T00:00:00	7	Dirección del viento	3.22
148943	7	Sololá	719	Santiago Atitlán	14	Cerro de Oro	5	Mayo	2023-05-15T00:00:00	2024-11-08T00:00:00	1	Precipitación	0
148944	7	Sololá	719	Santiago Atitlán	14	Cerro de Oro	5	Mayo	2023-05-15T00:00:00	2024-11-08T00:00:00	8	Radiación solar	0
148945	7	Sololá	719	Santiago Atitlán	14	Cerro de Oro	5	Mayo	2023-05-15T00:00:00	2024-11-08T01:00:00	2	Temperatura media	20.6
148946	7	Sololá	719	Santiago Atitlán	14	Cerro de Oro	5	Mayo	2023-05-15T00:00:00	2024-11-08T01:00:00	4	Temperatura máxima	20.6
148947	7	Sololá	719	Santiago Atitlán	14	Cerro de Oro	5	Mayo	2023-05-15T00:00:00	2024-11-08T01:00:00	3	Temperatura mínima	19.2
148948	7	Sololá	719	Santiago Atitlán	14	Cerro de Oro	5	Mayo	2023-05-15T00:00:00	2024-11-08T01:00:00	5	Humedad	77
148949	7	Sololá	719	Santiago Atitlán	14	Cerro de Oro	5	Mayo	2023-05-15T00:00:00	2024-11-08T01:00:00	6	Velocidad del viento	4.8
148950	7	Sololá	719	Santiago Atitlán	14	Cerro de Oro	5	Mayo	2023-05-15T00:00:00	2024-11-08T01:00:00	7	Dirección del viento	4.83
148951	7	Sololá	719	Santiago Atitlán	14	Cerro de Oro	5	Mayo	2023-05-15T00:00:00	2024-11-08T01:00:00	1	Precipitación	0
148952	7	Sololá	719	Santiago Atitlán	14	Cerro de Oro	5	Mayo	2023-05-15T00:00:00	2024-11-08T01:00:00	8	Radiación solar	0
148953	7	Sololá	719	Santiago Atitlán	14	Cerro de Oro	5	Mayo	2023-05-15T00:00:00	2024-11-08T02:00:00	2	Temperatura media	19.2
148954	7	Sololá	719	Santiago Atitlán	14	Cerro de Oro	5	Mayo	2023-05-15T00:00:00	2024-11-08T02:00:00	4	Temperatura máxima	20.7
148955	7	Sololá	719	Santiago Atitlán	14	Cerro de Oro	5	Mayo	2023-05-15T00:00:00	2024-11-08T02:00:00	3	Temperatura mínima	19.1
148956	7	Sololá	719	Santiago Atitlán	14	Cerro de Oro	5	Mayo	2023-05-15T00:00:00	2024-11-08T02:00:00	5	Humedad	77
148957	7	Sololá	719	Santiago Atitlán	14	Cerro de Oro	5	Mayo	2023-05-15T00:00:00	2024-11-08T02:00:00	6	Velocidad del viento	6.4
148958	7	Sololá	719	Santiago Atitlán	14	Cerro de Oro	5	Mayo	2023-05-15T00:00:00	2024-11-08T02:00:00	7	Dirección del viento	6.44
148959	7	Sololá	719	Santiago Atitlán	14	Cerro de Oro	5	Mayo	2023-05-15T00:00:00	2024-11-08T02:00:00	1	Precipitación	0
148960	7	Sololá	719	Santiago Atitlán	14	Cerro de Oro	5	Mayo	2023-05-15T00:00:00	2024-11-08T02:00:00	8	Radiación solar	0
148961	7	Sololá	719	Santiago Atitlán	14	Cerro de Oro	5	Mayo	2023-05-15T00:00:00	2024-11-08T03:00:00	2	Temperatura media	19.1
148962	7	Sololá	719	Santiago Atitlán	14	Cerro de Oro	5	Mayo	2023-05-15T00:00:00	2024-11-08T03:00:00	4	Temperatura máxima	19.4
148963	7	Sololá	719	Santiago Atitlán	14	Cerro de Oro	5	Mayo	2023-05-15T00:00:00	2024-11-08T03:00:00	3	Temperatura mínima	18.9
148964	7	Sololá	719	Santiago Atitlán	14	Cerro de Oro	5	Mayo	2023-05-15T00:00:00	2024-11-08T03:00:00	5	Humedad	77
148965	7	Sololá	719	Santiago Atitlán	14	Cerro de Oro	5	Mayo	2023-05-15T00:00:00	2024-11-08T03:00:00	6	Velocidad del viento	3.2
148966	7	Sololá	719	Santiago Atitlán	14	Cerro de Oro	5	Mayo	2023-05-15T00:00:00	2024-11-08T03:00:00	7	Dirección del viento	3.22
148967	7	Sololá	719	Santiago Atitlán	14	Cerro de Oro	5	Mayo	2023-05-15T00:00:00	2024-11-08T03:00:00	1	Precipitación	0
148968	7	Sololá	719	Santiago Atitlán	14	Cerro de Oro	5	Mayo	2023-05-15T00:00:00	2024-11-08T03:00:00	8	Radiación solar	0
148969	7	Sololá	719	Santiago Atitlán	14	Cerro de Oro	5	Mayo	2023-05-15T00:00:00	2024-11-08T04:00:00	2	Temperatura media	19.2
148970	7	Sololá	719	Santiago Atitlán	14	Cerro de Oro	5	Mayo	2023-05-15T00:00:00	2024-11-08T04:00:00	4	Temperatura máxima	19.2
148971	7	Sololá	719	Santiago Atitlán	14	Cerro de Oro	5	Mayo	2023-05-15T00:00:00	2024-11-08T04:00:00	3	Temperatura mínima	18.4
148972	7	Sololá	719	Santiago Atitlán	14	Cerro de Oro	5	Mayo	2023-05-15T00:00:00	2024-11-08T04:00:00	5	Humedad	76
148973	7	Sololá	719	Santiago Atitlán	14	Cerro de Oro	5	Mayo	2023-05-15T00:00:00	2024-11-08T04:00:00	6	Velocidad del viento	4.8
148974	7	Sololá	719	Santiago Atitlán	14	Cerro de Oro	5	Mayo	2023-05-15T00:00:00	2024-11-08T04:00:00	7	Dirección del viento	4.83
148975	7	Sololá	719	Santiago Atitlán	14	Cerro de Oro	5	Mayo	2023-05-15T00:00:00	2024-11-08T04:00:00	1	Precipitación	0
148976	7	Sololá	719	Santiago Atitlán	14	Cerro de Oro	5	Mayo	2023-05-15T00:00:00	2024-11-08T04:00:00	8	Radiación solar	0
148977	7	Sololá	719	Santiago Atitlán	14	Cerro de Oro	5	Mayo	2023-05-15T00:00:00	2024-11-08T05:00:00	2	Temperatura media	18.8
148978	7	Sololá	719	Santiago Atitlán	14	Cerro de Oro	5	Mayo	2023-05-15T00:00:00	2024-11-08T05:00:00	4	Temperatura máxima	19.3
148979	7	Sololá	719	Santiago Atitlán	14	Cerro de Oro	5	Mayo	2023-05-15T00:00:00	2024-11-08T05:00:00	3	Temperatura mínima	18.8
148980	7	Sololá	719	Santiago Atitlán	14	Cerro de Oro	5	Mayo	2023-05-15T00:00:00	2024-11-08T05:00:00	5	Humedad	79
148981	7	Sololá	719	Santiago Atitlán	14	Cerro de Oro	5	Mayo	2023-05-15T00:00:00	2024-11-08T05:00:00	6	Velocidad del viento	3.2
148982	7	Sololá	719	Santiago Atitlán	14	Cerro de Oro	5	Mayo	2023-05-15T00:00:00	2024-11-08T05:00:00	7	Dirección del viento	3.22
148983	7	Sololá	719	Santiago Atitlán	14	Cerro de Oro	5	Mayo	2023-05-15T00:00:00	2024-11-08T05:00:00	1	Precipitación	0
148984	7	Sololá	719	Santiago Atitlán	14	Cerro de Oro	5	Mayo	2023-05-15T00:00:00	2024-11-08T05:00:00	8	Radiación solar	0
148985	7	Sololá	719	Santiago Atitlán	14	Cerro de Oro	5	Mayo	2023-05-15T00:00:00	2024-11-08T06:00:00	2	Temperatura media	19.9
148986	7	Sololá	719	Santiago Atitlán	14	Cerro de Oro	5	Mayo	2023-05-15T00:00:00	2024-11-08T06:00:00	4	Temperatura máxima	19.9
148987	7	Sololá	719	Santiago Atitlán	14	Cerro de Oro	5	Mayo	2023-05-15T00:00:00	2024-11-08T06:00:00	3	Temperatura mínima	18.5
148988	7	Sololá	719	Santiago Atitlán	14	Cerro de Oro	5	Mayo	2023-05-15T00:00:00	2024-11-08T06:00:00	5	Humedad	77
148989	7	Sololá	719	Santiago Atitlán	14	Cerro de Oro	5	Mayo	2023-05-15T00:00:00	2024-11-08T06:00:00	6	Velocidad del viento	8
148990	7	Sololá	719	Santiago Atitlán	14	Cerro de Oro	5	Mayo	2023-05-15T00:00:00	2024-11-08T06:00:00	7	Dirección del viento	8.05
148991	7	Sololá	719	Santiago Atitlán	14	Cerro de Oro	5	Mayo	2023-05-15T00:00:00	2024-11-08T06:00:00	1	Precipitación	0
148992	7	Sololá	719	Santiago Atitlán	14	Cerro de Oro	5	Mayo	2023-05-15T00:00:00	2024-11-08T06:00:00	8	Radiación solar	0
148993	7	Sololá	719	Santiago Atitlán	14	Cerro de Oro	5	Mayo	2023-05-15T00:00:00	2024-11-08T07:00:00	2	Temperatura media	18.8
148994	7	Sololá	719	Santiago Atitlán	14	Cerro de Oro	5	Mayo	2023-05-15T00:00:00	2024-11-08T07:00:00	4	Temperatura máxima	19.9
148995	7	Sololá	719	Santiago Atitlán	14	Cerro de Oro	5	Mayo	2023-05-15T00:00:00	2024-11-08T07:00:00	3	Temperatura mínima	18.7
148996	7	Sololá	719	Santiago Atitlán	14	Cerro de Oro	5	Mayo	2023-05-15T00:00:00	2024-11-08T07:00:00	5	Humedad	77
148997	7	Sololá	719	Santiago Atitlán	14	Cerro de Oro	5	Mayo	2023-05-15T00:00:00	2024-11-08T07:00:00	6	Velocidad del viento	3.2
148998	7	Sololá	719	Santiago Atitlán	14	Cerro de Oro	5	Mayo	2023-05-15T00:00:00	2024-11-08T07:00:00	7	Dirección del viento	3.22
148999	7	Sololá	719	Santiago Atitlán	14	Cerro de Oro	5	Mayo	2023-05-15T00:00:00	2024-11-08T07:00:00	1	Precipitación	0
149000	7	Sololá	719	Santiago Atitlán	14	Cerro de Oro	5	Mayo	2023-05-15T00:00:00	2024-11-08T07:00:00	8	Radiación solar	5
149001	7	Sololá	719	Santiago Atitlán	14	Cerro de Oro	5	Mayo	2023-05-15T00:00:00	2024-11-08T08:00:00	2	Temperatura media	20.3
149002	7	Sololá	719	Santiago Atitlán	14	Cerro de Oro	5	Mayo	2023-05-15T00:00:00	2024-11-08T08:00:00	4	Temperatura máxima	20.3
149003	7	Sololá	719	Santiago Atitlán	14	Cerro de Oro	5	Mayo	2023-05-15T00:00:00	2024-11-08T08:00:00	3	Temperatura mínima	18.8
149004	7	Sololá	719	Santiago Atitlán	14	Cerro de Oro	5	Mayo	2023-05-15T00:00:00	2024-11-08T08:00:00	5	Humedad	73
149005	7	Sololá	719	Santiago Atitlán	14	Cerro de Oro	5	Mayo	2023-05-15T00:00:00	2024-11-08T08:00:00	6	Velocidad del viento	3.2
149006	7	Sololá	719	Santiago Atitlán	14	Cerro de Oro	5	Mayo	2023-05-15T00:00:00	2024-11-08T08:00:00	7	Dirección del viento	3.22
149007	7	Sololá	719	Santiago Atitlán	14	Cerro de Oro	5	Mayo	2023-05-15T00:00:00	2024-11-08T08:00:00	1	Precipitación	0
149008	7	Sololá	719	Santiago Atitlán	14	Cerro de Oro	5	Mayo	2023-05-15T00:00:00	2024-11-08T08:00:00	8	Radiación solar	98
149009	7	Sololá	719	Santiago Atitlán	14	Cerro de Oro	5	Mayo	2023-05-15T00:00:00	2024-11-08T09:00:00	2	Temperatura media	21.3
149010	7	Sololá	719	Santiago Atitlán	14	Cerro de Oro	5	Mayo	2023-05-15T00:00:00	2024-11-08T09:00:00	4	Temperatura máxima	21.6
149011	7	Sololá	719	Santiago Atitlán	14	Cerro de Oro	5	Mayo	2023-05-15T00:00:00	2024-11-08T09:00:00	3	Temperatura mínima	20.3
149012	7	Sololá	719	Santiago Atitlán	14	Cerro de Oro	5	Mayo	2023-05-15T00:00:00	2024-11-08T09:00:00	5	Humedad	71
149013	7	Sololá	719	Santiago Atitlán	14	Cerro de Oro	5	Mayo	2023-05-15T00:00:00	2024-11-08T09:00:00	6	Velocidad del viento	3.2
149014	7	Sololá	719	Santiago Atitlán	14	Cerro de Oro	5	Mayo	2023-05-15T00:00:00	2024-11-08T09:00:00	7	Dirección del viento	3.22
149015	7	Sololá	719	Santiago Atitlán	14	Cerro de Oro	5	Mayo	2023-05-15T00:00:00	2024-11-08T09:00:00	1	Precipitación	0
149016	7	Sololá	719	Santiago Atitlán	14	Cerro de Oro	5	Mayo	2023-05-15T00:00:00	2024-11-08T09:00:00	8	Radiación solar	297
149017	7	Sololá	719	Santiago Atitlán	14	Cerro de Oro	5	Mayo	2023-05-15T00:00:00	2024-11-08T10:00:00	2	Temperatura media	22
149018	7	Sololá	719	Santiago Atitlán	14	Cerro de Oro	5	Mayo	2023-05-15T00:00:00	2024-11-08T10:00:00	4	Temperatura máxima	22
149019	7	Sololá	719	Santiago Atitlán	14	Cerro de Oro	5	Mayo	2023-05-15T00:00:00	2024-11-08T10:00:00	3	Temperatura mínima	21.1
149020	7	Sololá	719	Santiago Atitlán	14	Cerro de Oro	5	Mayo	2023-05-15T00:00:00	2024-11-08T10:00:00	5	Humedad	69
149021	7	Sololá	719	Santiago Atitlán	14	Cerro de Oro	5	Mayo	2023-05-15T00:00:00	2024-11-08T10:00:00	6	Velocidad del viento	4.8
149022	7	Sololá	719	Santiago Atitlán	14	Cerro de Oro	5	Mayo	2023-05-15T00:00:00	2024-11-08T10:00:00	7	Dirección del viento	4.83
149023	7	Sololá	719	Santiago Atitlán	14	Cerro de Oro	5	Mayo	2023-05-15T00:00:00	2024-11-08T10:00:00	1	Precipitación	0
149024	7	Sololá	719	Santiago Atitlán	14	Cerro de Oro	5	Mayo	2023-05-15T00:00:00	2024-11-08T10:00:00	8	Radiación solar	429
149025	7	Sololá	719	Santiago Atitlán	14	Cerro de Oro	5	Mayo	2023-05-15T00:00:00	2024-11-08T11:00:00	2	Temperatura media	23.9
149026	7	Sololá	719	Santiago Atitlán	14	Cerro de Oro	5	Mayo	2023-05-15T00:00:00	2024-11-08T11:00:00	4	Temperatura máxima	23.9
149027	7	Sololá	719	Santiago Atitlán	14	Cerro de Oro	5	Mayo	2023-05-15T00:00:00	2024-11-08T11:00:00	3	Temperatura mínima	21.9
149028	7	Sololá	719	Santiago Atitlán	14	Cerro de Oro	5	Mayo	2023-05-15T00:00:00	2024-11-08T11:00:00	5	Humedad	63
149029	7	Sololá	719	Santiago Atitlán	14	Cerro de Oro	5	Mayo	2023-05-15T00:00:00	2024-11-08T11:00:00	6	Velocidad del viento	8
149030	7	Sololá	719	Santiago Atitlán	14	Cerro de Oro	5	Mayo	2023-05-15T00:00:00	2024-11-08T11:00:00	7	Dirección del viento	8.05
149031	7	Sololá	719	Santiago Atitlán	14	Cerro de Oro	5	Mayo	2023-05-15T00:00:00	2024-11-08T11:00:00	1	Precipitación	0
149032	7	Sololá	719	Santiago Atitlán	14	Cerro de Oro	5	Mayo	2023-05-15T00:00:00	2024-11-08T11:00:00	8	Radiación solar	743
149033	7	Sololá	719	Santiago Atitlán	14	Cerro de Oro	5	Mayo	2023-05-15T00:00:00	2024-11-08T12:00:00	2	Temperatura media	23
149034	7	Sololá	719	Santiago Atitlán	14	Cerro de Oro	5	Mayo	2023-05-15T00:00:00	2024-11-08T12:00:00	4	Temperatura máxima	23.9
149035	7	Sololá	719	Santiago Atitlán	14	Cerro de Oro	5	Mayo	2023-05-15T00:00:00	2024-11-08T12:00:00	3	Temperatura mínima	23
149036	7	Sololá	719	Santiago Atitlán	14	Cerro de Oro	5	Mayo	2023-05-15T00:00:00	2024-11-08T12:00:00	5	Humedad	64
149037	7	Sololá	719	Santiago Atitlán	14	Cerro de Oro	5	Mayo	2023-05-15T00:00:00	2024-11-08T12:00:00	6	Velocidad del viento	8
149038	7	Sololá	719	Santiago Atitlán	14	Cerro de Oro	5	Mayo	2023-05-15T00:00:00	2024-11-08T12:00:00	7	Dirección del viento	8.05
149039	7	Sololá	719	Santiago Atitlán	14	Cerro de Oro	5	Mayo	2023-05-15T00:00:00	2024-11-08T12:00:00	1	Precipitación	0
149040	7	Sololá	719	Santiago Atitlán	14	Cerro de Oro	5	Mayo	2023-05-15T00:00:00	2024-11-08T12:00:00	8	Radiación solar	468
149041	7	Sololá	719	Santiago Atitlán	14	Cerro de Oro	5	Mayo	2023-05-15T00:00:00	2024-11-08T13:00:00	2	Temperatura media	24.3
149042	7	Sololá	719	Santiago Atitlán	14	Cerro de Oro	5	Mayo	2023-05-15T00:00:00	2024-11-08T13:00:00	4	Temperatura máxima	24.4
149043	7	Sololá	719	Santiago Atitlán	14	Cerro de Oro	5	Mayo	2023-05-15T00:00:00	2024-11-08T13:00:00	3	Temperatura mínima	22.9
149044	7	Sololá	719	Santiago Atitlán	14	Cerro de Oro	5	Mayo	2023-05-15T00:00:00	2024-11-08T13:00:00	5	Humedad	65
149045	7	Sololá	719	Santiago Atitlán	14	Cerro de Oro	5	Mayo	2023-05-15T00:00:00	2024-11-08T13:00:00	6	Velocidad del viento	8
149046	7	Sololá	719	Santiago Atitlán	14	Cerro de Oro	5	Mayo	2023-05-15T00:00:00	2024-11-08T13:00:00	7	Dirección del viento	8.05
149047	7	Sololá	719	Santiago Atitlán	14	Cerro de Oro	5	Mayo	2023-05-15T00:00:00	2024-11-08T13:00:00	1	Precipitación	0
149048	7	Sololá	719	Santiago Atitlán	14	Cerro de Oro	5	Mayo	2023-05-15T00:00:00	2024-11-08T13:00:00	8	Radiación solar	556
149049	7	Sololá	719	Santiago Atitlán	14	Cerro de Oro	5	Mayo	2023-05-15T00:00:00	2024-11-08T14:00:00	2	Temperatura media	23.8
149050	7	Sololá	719	Santiago Atitlán	14	Cerro de Oro	5	Mayo	2023-05-15T00:00:00	2024-11-08T14:00:00	4	Temperatura máxima	24.4
149051	7	Sololá	719	Santiago Atitlán	14	Cerro de Oro	5	Mayo	2023-05-15T00:00:00	2024-11-08T14:00:00	3	Temperatura mínima	23.6
149052	7	Sololá	719	Santiago Atitlán	14	Cerro de Oro	5	Mayo	2023-05-15T00:00:00	2024-11-08T14:00:00	5	Humedad	68
149053	7	Sololá	719	Santiago Atitlán	14	Cerro de Oro	5	Mayo	2023-05-15T00:00:00	2024-11-08T14:00:00	6	Velocidad del viento	9.7
149054	7	Sololá	719	Santiago Atitlán	14	Cerro de Oro	5	Mayo	2023-05-15T00:00:00	2024-11-08T14:00:00	7	Dirección del viento	9.66
149055	7	Sololá	719	Santiago Atitlán	14	Cerro de Oro	5	Mayo	2023-05-15T00:00:00	2024-11-08T14:00:00	1	Precipitación	0
149056	7	Sololá	719	Santiago Atitlán	14	Cerro de Oro	5	Mayo	2023-05-15T00:00:00	2024-11-08T14:00:00	8	Radiación solar	692
149057	7	Sololá	719	Santiago Atitlán	14	Cerro de Oro	5	Mayo	2023-05-15T00:00:00	2024-11-08T15:00:00	2	Temperatura media	22.9
149058	7	Sololá	719	Santiago Atitlán	14	Cerro de Oro	5	Mayo	2023-05-15T00:00:00	2024-11-08T15:00:00	4	Temperatura máxima	24.4
149059	7	Sololá	719	Santiago Atitlán	14	Cerro de Oro	5	Mayo	2023-05-15T00:00:00	2024-11-08T15:00:00	3	Temperatura mínima	22.9
149060	7	Sololá	719	Santiago Atitlán	14	Cerro de Oro	5	Mayo	2023-05-15T00:00:00	2024-11-08T15:00:00	5	Humedad	70
149061	7	Sololá	719	Santiago Atitlán	14	Cerro de Oro	5	Mayo	2023-05-15T00:00:00	2024-11-08T15:00:00	6	Velocidad del viento	11.3
149062	7	Sololá	719	Santiago Atitlán	14	Cerro de Oro	5	Mayo	2023-05-15T00:00:00	2024-11-08T15:00:00	7	Dirección del viento	11.27
149063	7	Sololá	719	Santiago Atitlán	14	Cerro de Oro	5	Mayo	2023-05-15T00:00:00	2024-11-08T15:00:00	1	Precipitación	0
149064	7	Sololá	719	Santiago Atitlán	14	Cerro de Oro	5	Mayo	2023-05-15T00:00:00	2024-11-08T15:00:00	8	Radiación solar	639
149065	7	Sololá	719	Santiago Atitlán	14	Cerro de Oro	5	Mayo	2023-05-15T00:00:00	2024-11-08T16:00:00	2	Temperatura media	22.7
149066	7	Sololá	719	Santiago Atitlán	14	Cerro de Oro	5	Mayo	2023-05-15T00:00:00	2024-11-08T16:00:00	4	Temperatura máxima	23.4
149067	7	Sololá	719	Santiago Atitlán	14	Cerro de Oro	5	Mayo	2023-05-15T00:00:00	2024-11-08T16:00:00	3	Temperatura mínima	22.7
149068	7	Sololá	719	Santiago Atitlán	14	Cerro de Oro	5	Mayo	2023-05-15T00:00:00	2024-11-08T16:00:00	5	Humedad	74
149069	7	Sololá	719	Santiago Atitlán	14	Cerro de Oro	5	Mayo	2023-05-15T00:00:00	2024-11-08T16:00:00	6	Velocidad del viento	8
149070	7	Sololá	719	Santiago Atitlán	14	Cerro de Oro	5	Mayo	2023-05-15T00:00:00	2024-11-08T16:00:00	7	Dirección del viento	8.05
149071	7	Sololá	719	Santiago Atitlán	14	Cerro de Oro	5	Mayo	2023-05-15T00:00:00	2024-11-08T16:00:00	1	Precipitación	0
149072	7	Sololá	719	Santiago Atitlán	14	Cerro de Oro	5	Mayo	2023-05-15T00:00:00	2024-11-08T16:00:00	8	Radiación solar	251
149073	7	Sololá	719	Santiago Atitlán	14	Cerro de Oro	5	Mayo	2023-05-15T00:00:00	2024-11-08T17:00:00	2	Temperatura media	21.9
149074	7	Sololá	719	Santiago Atitlán	14	Cerro de Oro	5	Mayo	2023-05-15T00:00:00	2024-11-08T17:00:00	4	Temperatura máxima	22.9
149075	7	Sololá	719	Santiago Atitlán	14	Cerro de Oro	5	Mayo	2023-05-15T00:00:00	2024-11-08T17:00:00	3	Temperatura mínima	21.9
149076	7	Sololá	719	Santiago Atitlán	14	Cerro de Oro	5	Mayo	2023-05-15T00:00:00	2024-11-08T17:00:00	5	Humedad	81
149077	7	Sololá	719	Santiago Atitlán	14	Cerro de Oro	5	Mayo	2023-05-15T00:00:00	2024-11-08T17:00:00	6	Velocidad del viento	8
149078	7	Sololá	719	Santiago Atitlán	14	Cerro de Oro	5	Mayo	2023-05-15T00:00:00	2024-11-08T17:00:00	7	Dirección del viento	8.05
149079	7	Sololá	719	Santiago Atitlán	14	Cerro de Oro	5	Mayo	2023-05-15T00:00:00	2024-11-08T17:00:00	1	Precipitación	0
149080	7	Sololá	719	Santiago Atitlán	14	Cerro de Oro	5	Mayo	2023-05-15T00:00:00	2024-11-08T17:00:00	8	Radiación solar	190
149081	7	Sololá	719	Santiago Atitlán	14	Cerro de Oro	5	Mayo	2023-05-15T00:00:00	2024-11-08T18:00:00	2	Temperatura media	21.7
149082	7	Sololá	719	Santiago Atitlán	14	Cerro de Oro	5	Mayo	2023-05-15T00:00:00	2024-11-08T18:00:00	4	Temperatura máxima	22
149083	7	Sololá	719	Santiago Atitlán	14	Cerro de Oro	5	Mayo	2023-05-15T00:00:00	2024-11-08T18:00:00	3	Temperatura mínima	21.7
149084	7	Sololá	719	Santiago Atitlán	14	Cerro de Oro	5	Mayo	2023-05-15T00:00:00	2024-11-08T18:00:00	5	Humedad	81
149085	7	Sololá	719	Santiago Atitlán	14	Cerro de Oro	5	Mayo	2023-05-15T00:00:00	2024-11-08T18:00:00	6	Velocidad del viento	4.8
149086	7	Sololá	719	Santiago Atitlán	14	Cerro de Oro	5	Mayo	2023-05-15T00:00:00	2024-11-08T18:00:00	7	Dirección del viento	4.83
149087	7	Sololá	719	Santiago Atitlán	14	Cerro de Oro	5	Mayo	2023-05-15T00:00:00	2024-11-08T18:00:00	1	Precipitación	0
149088	7	Sololá	719	Santiago Atitlán	14	Cerro de Oro	5	Mayo	2023-05-15T00:00:00	2024-11-08T18:00:00	8	Radiación solar	99
149089	7	Sololá	719	Santiago Atitlán	14	Cerro de Oro	5	Mayo	2023-05-15T00:00:00	2024-11-08T19:00:00	2	Temperatura media	16.7
149090	7	Sololá	719	Santiago Atitlán	14	Cerro de Oro	5	Mayo	2023-05-15T00:00:00	2024-11-08T19:00:00	4	Temperatura máxima	21.7
149091	7	Sololá	719	Santiago Atitlán	14	Cerro de Oro	5	Mayo	2023-05-15T00:00:00	2024-11-08T19:00:00	3	Temperatura mínima	16.7
149092	7	Sololá	719	Santiago Atitlán	14	Cerro de Oro	5	Mayo	2023-05-15T00:00:00	2024-11-08T19:00:00	5	Humedad	86
149093	7	Sololá	719	Santiago Atitlán	14	Cerro de Oro	5	Mayo	2023-05-15T00:00:00	2024-11-08T19:00:00	6	Velocidad del viento	12.9
149094	7	Sololá	719	Santiago Atitlán	14	Cerro de Oro	5	Mayo	2023-05-15T00:00:00	2024-11-08T19:00:00	7	Dirección del viento	12.87
149095	7	Sololá	719	Santiago Atitlán	14	Cerro de Oro	5	Mayo	2023-05-15T00:00:00	2024-11-08T19:00:00	1	Precipitación	10
149096	7	Sololá	719	Santiago Atitlán	14	Cerro de Oro	5	Mayo	2023-05-15T00:00:00	2024-11-08T19:00:00	8	Radiación solar	0
149097	7	Sololá	719	Santiago Atitlán	14	Cerro de Oro	5	Mayo	2023-05-15T00:00:00	2024-11-08T20:00:00	2	Temperatura media	15.9
149098	7	Sololá	719	Santiago Atitlán	14	Cerro de Oro	5	Mayo	2023-05-15T00:00:00	2024-11-08T20:00:00	4	Temperatura máxima	16.7
149099	7	Sololá	719	Santiago Atitlán	14	Cerro de Oro	5	Mayo	2023-05-15T00:00:00	2024-11-08T20:00:00	3	Temperatura mínima	15.6
149100	7	Sololá	719	Santiago Atitlán	14	Cerro de Oro	5	Mayo	2023-05-15T00:00:00	2024-11-08T20:00:00	5	Humedad	88
149101	7	Sololá	719	Santiago Atitlán	14	Cerro de Oro	5	Mayo	2023-05-15T00:00:00	2024-11-08T20:00:00	6	Velocidad del viento	8
149102	7	Sololá	719	Santiago Atitlán	14	Cerro de Oro	5	Mayo	2023-05-15T00:00:00	2024-11-08T20:00:00	7	Dirección del viento	8.05
149103	7	Sololá	719	Santiago Atitlán	14	Cerro de Oro	5	Mayo	2023-05-15T00:00:00	2024-11-08T20:00:00	1	Precipitación	12.4
149104	7	Sololá	719	Santiago Atitlán	14	Cerro de Oro	5	Mayo	2023-05-15T00:00:00	2024-11-08T20:00:00	8	Radiación solar	0
149105	7	Sololá	719	Santiago Atitlán	14	Cerro de Oro	5	Mayo	2023-05-15T00:00:00	2024-11-08T21:00:00	2	Temperatura media	17.8
149106	7	Sololá	719	Santiago Atitlán	14	Cerro de Oro	5	Mayo	2023-05-15T00:00:00	2024-11-08T21:00:00	4	Temperatura máxima	18
149107	7	Sololá	719	Santiago Atitlán	14	Cerro de Oro	5	Mayo	2023-05-15T00:00:00	2024-11-08T21:00:00	3	Temperatura mínima	15.9
149108	7	Sololá	719	Santiago Atitlán	14	Cerro de Oro	5	Mayo	2023-05-15T00:00:00	2024-11-08T21:00:00	5	Humedad	80
149109	7	Sololá	719	Santiago Atitlán	14	Cerro de Oro	5	Mayo	2023-05-15T00:00:00	2024-11-08T21:00:00	6	Velocidad del viento	8
149110	7	Sololá	719	Santiago Atitlán	14	Cerro de Oro	5	Mayo	2023-05-15T00:00:00	2024-11-08T21:00:00	7	Dirección del viento	8.05
149111	7	Sololá	719	Santiago Atitlán	14	Cerro de Oro	5	Mayo	2023-05-15T00:00:00	2024-11-08T21:00:00	1	Precipitación	0
149112	7	Sololá	719	Santiago Atitlán	14	Cerro de Oro	5	Mayo	2023-05-15T00:00:00	2024-11-08T21:00:00	8	Radiación solar	0
149113	7	Sololá	719	Santiago Atitlán	14	Cerro de Oro	5	Mayo	2023-05-15T00:00:00	2024-11-08T22:00:00	2	Temperatura media	18.4
149114	7	Sololá	719	Santiago Atitlán	14	Cerro de Oro	5	Mayo	2023-05-15T00:00:00	2024-11-08T22:00:00	4	Temperatura máxima	18.4
149115	7	Sololá	719	Santiago Atitlán	14	Cerro de Oro	5	Mayo	2023-05-15T00:00:00	2024-11-08T22:00:00	3	Temperatura mínima	16.9
149116	7	Sololá	719	Santiago Atitlán	14	Cerro de Oro	5	Mayo	2023-05-15T00:00:00	2024-11-08T22:00:00	5	Humedad	83
149117	7	Sololá	719	Santiago Atitlán	14	Cerro de Oro	5	Mayo	2023-05-15T00:00:00	2024-11-08T22:00:00	6	Velocidad del viento	4.8
149118	7	Sololá	719	Santiago Atitlán	14	Cerro de Oro	5	Mayo	2023-05-15T00:00:00	2024-11-08T22:00:00	7	Dirección del viento	4.83
149119	7	Sololá	719	Santiago Atitlán	14	Cerro de Oro	5	Mayo	2023-05-15T00:00:00	2024-11-08T22:00:00	1	Precipitación	0
149120	7	Sololá	719	Santiago Atitlán	14	Cerro de Oro	5	Mayo	2023-05-15T00:00:00	2024-11-08T22:00:00	8	Radiación solar	0
149121	7	Sololá	719	Santiago Atitlán	14	Cerro de Oro	5	Mayo	2023-05-15T00:00:00	2024-11-08T23:00:00	2	Temperatura media	17.7
149122	7	Sololá	719	Santiago Atitlán	14	Cerro de Oro	5	Mayo	2023-05-15T00:00:00	2024-11-08T23:00:00	4	Temperatura máxima	18.4
149123	7	Sololá	719	Santiago Atitlán	14	Cerro de Oro	5	Mayo	2023-05-15T00:00:00	2024-11-08T23:00:00	3	Temperatura mínima	17.2
149124	7	Sololá	719	Santiago Atitlán	14	Cerro de Oro	5	Mayo	2023-05-15T00:00:00	2024-11-08T23:00:00	5	Humedad	78
149125	7	Sololá	719	Santiago Atitlán	14	Cerro de Oro	5	Mayo	2023-05-15T00:00:00	2024-11-08T23:00:00	6	Velocidad del viento	6.4
149126	7	Sololá	719	Santiago Atitlán	14	Cerro de Oro	5	Mayo	2023-05-15T00:00:00	2024-11-08T23:00:00	7	Dirección del viento	6.44
149127	7	Sololá	719	Santiago Atitlán	14	Cerro de Oro	5	Mayo	2023-05-15T00:00:00	2024-11-08T23:00:00	1	Precipitación	0
149128	7	Sololá	719	Santiago Atitlán	14	Cerro de Oro	5	Mayo	2023-05-15T00:00:00	2024-11-08T23:00:00	8	Radiación solar	0
149129	7	Sololá	719	Santiago Atitlán	14	Cerro de Oro	5	Mayo	2023-05-16T00:00:00	2024-11-08T00:00:00	2	Temperatura media	17.8
149130	7	Sololá	719	Santiago Atitlán	14	Cerro de Oro	5	Mayo	2023-05-16T00:00:00	2024-11-08T00:00:00	4	Temperatura máxima	17.9
149131	7	Sololá	719	Santiago Atitlán	14	Cerro de Oro	5	Mayo	2023-05-16T00:00:00	2024-11-08T00:00:00	3	Temperatura mínima	17.4
149132	7	Sololá	719	Santiago Atitlán	14	Cerro de Oro	5	Mayo	2023-05-16T00:00:00	2024-11-08T00:00:00	5	Humedad	75
149133	7	Sololá	719	Santiago Atitlán	14	Cerro de Oro	5	Mayo	2023-05-16T00:00:00	2024-11-08T00:00:00	6	Velocidad del viento	3.2
149134	7	Sololá	719	Santiago Atitlán	14	Cerro de Oro	5	Mayo	2023-05-16T00:00:00	2024-11-08T00:00:00	7	Dirección del viento	3.22
149135	7	Sololá	719	Santiago Atitlán	14	Cerro de Oro	5	Mayo	2023-05-16T00:00:00	2024-11-08T00:00:00	1	Precipitación	0
149136	7	Sololá	719	Santiago Atitlán	14	Cerro de Oro	5	Mayo	2023-05-16T00:00:00	2024-11-08T00:00:00	8	Radiación solar	0
149137	7	Sololá	719	Santiago Atitlán	14	Cerro de Oro	5	Mayo	2023-05-16T00:00:00	2024-11-08T01:00:00	2	Temperatura media	17.2
149138	7	Sololá	719	Santiago Atitlán	14	Cerro de Oro	5	Mayo	2023-05-16T00:00:00	2024-11-08T01:00:00	4	Temperatura máxima	17.9
149139	7	Sololá	719	Santiago Atitlán	14	Cerro de Oro	5	Mayo	2023-05-16T00:00:00	2024-11-08T01:00:00	3	Temperatura mínima	17.1
149140	7	Sololá	719	Santiago Atitlán	14	Cerro de Oro	5	Mayo	2023-05-16T00:00:00	2024-11-08T01:00:00	5	Humedad	81
149141	7	Sololá	719	Santiago Atitlán	14	Cerro de Oro	5	Mayo	2023-05-16T00:00:00	2024-11-08T01:00:00	6	Velocidad del viento	4.8
149142	7	Sololá	719	Santiago Atitlán	14	Cerro de Oro	5	Mayo	2023-05-16T00:00:00	2024-11-08T01:00:00	7	Dirección del viento	4.83
149143	7	Sololá	719	Santiago Atitlán	14	Cerro de Oro	5	Mayo	2023-05-16T00:00:00	2024-11-08T01:00:00	1	Precipitación	0
149144	7	Sololá	719	Santiago Atitlán	14	Cerro de Oro	5	Mayo	2023-05-16T00:00:00	2024-11-08T01:00:00	8	Radiación solar	0
149145	7	Sololá	719	Santiago Atitlán	14	Cerro de Oro	5	Mayo	2023-05-16T00:00:00	2024-11-08T02:00:00	2	Temperatura media	17.4
149146	7	Sololá	719	Santiago Atitlán	14	Cerro de Oro	5	Mayo	2023-05-16T00:00:00	2024-11-08T02:00:00	4	Temperatura máxima	17.5
149147	7	Sololá	719	Santiago Atitlán	14	Cerro de Oro	5	Mayo	2023-05-16T00:00:00	2024-11-08T02:00:00	3	Temperatura mínima	17.1
149148	7	Sololá	719	Santiago Atitlán	14	Cerro de Oro	5	Mayo	2023-05-16T00:00:00	2024-11-08T02:00:00	5	Humedad	79
149149	7	Sololá	719	Santiago Atitlán	14	Cerro de Oro	5	Mayo	2023-05-16T00:00:00	2024-11-08T02:00:00	6	Velocidad del viento	4.8
149150	7	Sololá	719	Santiago Atitlán	14	Cerro de Oro	5	Mayo	2023-05-16T00:00:00	2024-11-08T02:00:00	7	Dirección del viento	4.83
149151	7	Sololá	719	Santiago Atitlán	14	Cerro de Oro	5	Mayo	2023-05-16T00:00:00	2024-11-08T02:00:00	1	Precipitación	0
149152	7	Sololá	719	Santiago Atitlán	14	Cerro de Oro	5	Mayo	2023-05-16T00:00:00	2024-11-08T02:00:00	8	Radiación solar	0
149153	7	Sololá	719	Santiago Atitlán	14	Cerro de Oro	5	Mayo	2023-05-16T00:00:00	2024-11-08T03:00:00	2	Temperatura media	16.9
149154	7	Sololá	719	Santiago Atitlán	14	Cerro de Oro	5	Mayo	2023-05-16T00:00:00	2024-11-08T03:00:00	4	Temperatura máxima	17.4
149155	7	Sololá	719	Santiago Atitlán	14	Cerro de Oro	5	Mayo	2023-05-16T00:00:00	2024-11-08T03:00:00	3	Temperatura mínima	16.9
149156	7	Sololá	719	Santiago Atitlán	14	Cerro de Oro	5	Mayo	2023-05-16T00:00:00	2024-11-08T03:00:00	5	Humedad	79
149157	7	Sololá	719	Santiago Atitlán	14	Cerro de Oro	5	Mayo	2023-05-16T00:00:00	2024-11-08T03:00:00	6	Velocidad del viento	3.2
149158	7	Sololá	719	Santiago Atitlán	14	Cerro de Oro	5	Mayo	2023-05-16T00:00:00	2024-11-08T03:00:00	7	Dirección del viento	3.22
149159	7	Sololá	719	Santiago Atitlán	14	Cerro de Oro	5	Mayo	2023-05-16T00:00:00	2024-11-08T03:00:00	1	Precipitación	0
149160	7	Sololá	719	Santiago Atitlán	14	Cerro de Oro	5	Mayo	2023-05-16T00:00:00	2024-11-08T03:00:00	8	Radiación solar	0
149161	7	Sololá	719	Santiago Atitlán	14	Cerro de Oro	5	Mayo	2023-05-16T00:00:00	2024-11-08T04:00:00	2	Temperatura media	16.6
149162	7	Sololá	719	Santiago Atitlán	14	Cerro de Oro	5	Mayo	2023-05-16T00:00:00	2024-11-08T04:00:00	4	Temperatura máxima	17
149163	7	Sololá	719	Santiago Atitlán	14	Cerro de Oro	5	Mayo	2023-05-16T00:00:00	2024-11-08T04:00:00	3	Temperatura mínima	16.5
149164	7	Sololá	719	Santiago Atitlán	14	Cerro de Oro	5	Mayo	2023-05-16T00:00:00	2024-11-08T04:00:00	5	Humedad	79
149165	7	Sololá	719	Santiago Atitlán	14	Cerro de Oro	5	Mayo	2023-05-16T00:00:00	2024-11-08T04:00:00	6	Velocidad del viento	4.8
149166	7	Sololá	719	Santiago Atitlán	14	Cerro de Oro	5	Mayo	2023-05-16T00:00:00	2024-11-08T04:00:00	7	Dirección del viento	4.83
149167	7	Sololá	719	Santiago Atitlán	14	Cerro de Oro	5	Mayo	2023-05-16T00:00:00	2024-11-08T04:00:00	1	Precipitación	0
149168	7	Sololá	719	Santiago Atitlán	14	Cerro de Oro	5	Mayo	2023-05-16T00:00:00	2024-11-08T04:00:00	8	Radiación solar	0
149169	7	Sololá	719	Santiago Atitlán	14	Cerro de Oro	5	Mayo	2023-05-16T00:00:00	2024-11-08T05:00:00	2	Temperatura media	17.1
149170	7	Sololá	719	Santiago Atitlán	14	Cerro de Oro	5	Mayo	2023-05-16T00:00:00	2024-11-08T05:00:00	4	Temperatura máxima	17.1
149171	7	Sololá	719	Santiago Atitlán	14	Cerro de Oro	5	Mayo	2023-05-16T00:00:00	2024-11-08T05:00:00	3	Temperatura mínima	16.4
149172	7	Sololá	719	Santiago Atitlán	14	Cerro de Oro	5	Mayo	2023-05-16T00:00:00	2024-11-08T05:00:00	5	Humedad	78
149173	7	Sololá	719	Santiago Atitlán	14	Cerro de Oro	5	Mayo	2023-05-16T00:00:00	2024-11-08T05:00:00	6	Velocidad del viento	4.8
149174	7	Sololá	719	Santiago Atitlán	14	Cerro de Oro	5	Mayo	2023-05-16T00:00:00	2024-11-08T05:00:00	7	Dirección del viento	4.83
149175	7	Sololá	719	Santiago Atitlán	14	Cerro de Oro	5	Mayo	2023-05-16T00:00:00	2024-11-08T05:00:00	1	Precipitación	0
149176	7	Sololá	719	Santiago Atitlán	14	Cerro de Oro	5	Mayo	2023-05-16T00:00:00	2024-11-08T05:00:00	8	Radiación solar	0
149177	7	Sololá	719	Santiago Atitlán	14	Cerro de Oro	5	Mayo	2023-05-16T00:00:00	2024-11-08T06:00:00	2	Temperatura media	16.4
149178	7	Sololá	719	Santiago Atitlán	14	Cerro de Oro	5	Mayo	2023-05-16T00:00:00	2024-11-08T06:00:00	4	Temperatura máxima	17.1
149179	7	Sololá	719	Santiago Atitlán	14	Cerro de Oro	5	Mayo	2023-05-16T00:00:00	2024-11-08T06:00:00	3	Temperatura mínima	16.3
149180	7	Sololá	719	Santiago Atitlán	14	Cerro de Oro	5	Mayo	2023-05-16T00:00:00	2024-11-08T06:00:00	5	Humedad	79
149181	7	Sololá	719	Santiago Atitlán	14	Cerro de Oro	5	Mayo	2023-05-16T00:00:00	2024-11-08T06:00:00	6	Velocidad del viento	4.8
149182	7	Sololá	719	Santiago Atitlán	14	Cerro de Oro	5	Mayo	2023-05-16T00:00:00	2024-11-08T06:00:00	7	Dirección del viento	4.83
149183	7	Sololá	719	Santiago Atitlán	14	Cerro de Oro	5	Mayo	2023-05-16T00:00:00	2024-11-08T06:00:00	1	Precipitación	0
149184	7	Sololá	719	Santiago Atitlán	14	Cerro de Oro	5	Mayo	2023-05-16T00:00:00	2024-11-08T06:00:00	8	Radiación solar	0
149185	7	Sololá	719	Santiago Atitlán	14	Cerro de Oro	5	Mayo	2023-05-16T00:00:00	2024-11-08T07:00:00	2	Temperatura media	16.4
149186	7	Sololá	719	Santiago Atitlán	14	Cerro de Oro	5	Mayo	2023-05-16T00:00:00	2024-11-08T07:00:00	4	Temperatura máxima	16.8
149187	7	Sololá	719	Santiago Atitlán	14	Cerro de Oro	5	Mayo	2023-05-16T00:00:00	2024-11-08T07:00:00	3	Temperatura mínima	16.2
149188	7	Sololá	719	Santiago Atitlán	14	Cerro de Oro	5	Mayo	2023-05-16T00:00:00	2024-11-08T07:00:00	5	Humedad	81
149189	7	Sololá	719	Santiago Atitlán	14	Cerro de Oro	5	Mayo	2023-05-16T00:00:00	2024-11-08T07:00:00	6	Velocidad del viento	4.8
149190	7	Sololá	719	Santiago Atitlán	14	Cerro de Oro	5	Mayo	2023-05-16T00:00:00	2024-11-08T07:00:00	7	Dirección del viento	4.83
149191	7	Sololá	719	Santiago Atitlán	14	Cerro de Oro	5	Mayo	2023-05-16T00:00:00	2024-11-08T07:00:00	1	Precipitación	0
149192	7	Sololá	719	Santiago Atitlán	14	Cerro de Oro	5	Mayo	2023-05-16T00:00:00	2024-11-08T07:00:00	8	Radiación solar	5
149193	7	Sololá	719	Santiago Atitlán	14	Cerro de Oro	5	Mayo	2023-05-16T00:00:00	2024-11-08T08:00:00	2	Temperatura media	18.4
149194	7	Sololá	719	Santiago Atitlán	14	Cerro de Oro	5	Mayo	2023-05-16T00:00:00	2024-11-08T08:00:00	4	Temperatura máxima	18.4
149195	7	Sololá	719	Santiago Atitlán	14	Cerro de Oro	5	Mayo	2023-05-16T00:00:00	2024-11-08T08:00:00	3	Temperatura mínima	16.4
149196	7	Sololá	719	Santiago Atitlán	14	Cerro de Oro	5	Mayo	2023-05-16T00:00:00	2024-11-08T08:00:00	5	Humedad	73
149197	7	Sololá	719	Santiago Atitlán	14	Cerro de Oro	5	Mayo	2023-05-16T00:00:00	2024-11-08T08:00:00	6	Velocidad del viento	3.2
149198	7	Sololá	719	Santiago Atitlán	14	Cerro de Oro	5	Mayo	2023-05-16T00:00:00	2024-11-08T08:00:00	7	Dirección del viento	3.22
149199	7	Sololá	719	Santiago Atitlán	14	Cerro de Oro	5	Mayo	2023-05-16T00:00:00	2024-11-08T08:00:00	1	Precipitación	0
149200	7	Sololá	719	Santiago Atitlán	14	Cerro de Oro	5	Mayo	2023-05-16T00:00:00	2024-11-08T08:00:00	8	Radiación solar	97
149201	7	Sololá	719	Santiago Atitlán	14	Cerro de Oro	5	Mayo	2023-05-16T00:00:00	2024-11-08T09:00:00	2	Temperatura media	19.8
149202	7	Sololá	719	Santiago Atitlán	14	Cerro de Oro	5	Mayo	2023-05-16T00:00:00	2024-11-08T09:00:00	4	Temperatura máxima	19.9
149203	7	Sololá	719	Santiago Atitlán	14	Cerro de Oro	5	Mayo	2023-05-16T00:00:00	2024-11-08T09:00:00	3	Temperatura mínima	18.4
149204	7	Sololá	719	Santiago Atitlán	14	Cerro de Oro	5	Mayo	2023-05-16T00:00:00	2024-11-08T09:00:00	5	Humedad	72
149205	7	Sololá	719	Santiago Atitlán	14	Cerro de Oro	5	Mayo	2023-05-16T00:00:00	2024-11-08T09:00:00	6	Velocidad del viento	3.2
149206	7	Sololá	719	Santiago Atitlán	14	Cerro de Oro	5	Mayo	2023-05-16T00:00:00	2024-11-08T09:00:00	7	Dirección del viento	3.22
149207	7	Sololá	719	Santiago Atitlán	14	Cerro de Oro	5	Mayo	2023-05-16T00:00:00	2024-11-08T09:00:00	1	Precipitación	0
149208	7	Sololá	719	Santiago Atitlán	14	Cerro de Oro	5	Mayo	2023-05-16T00:00:00	2024-11-08T09:00:00	8	Radiación solar	309
149209	7	Sololá	719	Santiago Atitlán	14	Cerro de Oro	5	Mayo	2023-05-16T00:00:00	2024-11-08T10:00:00	2	Temperatura media	20.7
149210	7	Sololá	719	Santiago Atitlán	14	Cerro de Oro	5	Mayo	2023-05-16T00:00:00	2024-11-08T10:00:00	4	Temperatura máxima	20.8
149211	7	Sololá	719	Santiago Atitlán	14	Cerro de Oro	5	Mayo	2023-05-16T00:00:00	2024-11-08T10:00:00	3	Temperatura mínima	19.7
149212	7	Sololá	719	Santiago Atitlán	14	Cerro de Oro	5	Mayo	2023-05-16T00:00:00	2024-11-08T10:00:00	5	Humedad	71
149213	7	Sololá	719	Santiago Atitlán	14	Cerro de Oro	5	Mayo	2023-05-16T00:00:00	2024-11-08T10:00:00	6	Velocidad del viento	4.8
149214	7	Sololá	719	Santiago Atitlán	14	Cerro de Oro	5	Mayo	2023-05-16T00:00:00	2024-11-08T10:00:00	7	Dirección del viento	4.83
149215	7	Sololá	719	Santiago Atitlán	14	Cerro de Oro	5	Mayo	2023-05-16T00:00:00	2024-11-08T10:00:00	1	Precipitación	0
149216	7	Sololá	719	Santiago Atitlán	14	Cerro de Oro	5	Mayo	2023-05-16T00:00:00	2024-11-08T10:00:00	8	Radiación solar	544
149217	7	Sololá	719	Santiago Atitlán	14	Cerro de Oro	5	Mayo	2023-05-16T00:00:00	2024-11-08T11:00:00	2	Temperatura media	21.6
149218	7	Sololá	719	Santiago Atitlán	14	Cerro de Oro	5	Mayo	2023-05-16T00:00:00	2024-11-08T11:00:00	4	Temperatura máxima	21.6
149219	7	Sololá	719	Santiago Atitlán	14	Cerro de Oro	5	Mayo	2023-05-16T00:00:00	2024-11-08T11:00:00	3	Temperatura mínima	20.5
149220	7	Sololá	719	Santiago Atitlán	14	Cerro de Oro	5	Mayo	2023-05-16T00:00:00	2024-11-08T11:00:00	5	Humedad	71
149221	7	Sololá	719	Santiago Atitlán	14	Cerro de Oro	5	Mayo	2023-05-16T00:00:00	2024-11-08T11:00:00	6	Velocidad del viento	4.8
149222	7	Sololá	719	Santiago Atitlán	14	Cerro de Oro	5	Mayo	2023-05-16T00:00:00	2024-11-08T11:00:00	7	Dirección del viento	4.83
149223	7	Sololá	719	Santiago Atitlán	14	Cerro de Oro	5	Mayo	2023-05-16T00:00:00	2024-11-08T11:00:00	1	Precipitación	0
149224	7	Sololá	719	Santiago Atitlán	14	Cerro de Oro	5	Mayo	2023-05-16T00:00:00	2024-11-08T11:00:00	8	Radiación solar	729
149225	7	Sololá	719	Santiago Atitlán	14	Cerro de Oro	5	Mayo	2023-05-16T00:00:00	2024-11-08T12:00:00	2	Temperatura media	23.1
149226	7	Sololá	719	Santiago Atitlán	14	Cerro de Oro	5	Mayo	2023-05-16T00:00:00	2024-11-08T12:00:00	4	Temperatura máxima	23.1
149227	7	Sololá	719	Santiago Atitlán	14	Cerro de Oro	5	Mayo	2023-05-16T00:00:00	2024-11-08T12:00:00	3	Temperatura mínima	21.5
149228	7	Sololá	719	Santiago Atitlán	14	Cerro de Oro	5	Mayo	2023-05-16T00:00:00	2024-11-08T12:00:00	5	Humedad	66
149229	7	Sololá	719	Santiago Atitlán	14	Cerro de Oro	5	Mayo	2023-05-16T00:00:00	2024-11-08T12:00:00	6	Velocidad del viento	4.8
149230	7	Sololá	719	Santiago Atitlán	14	Cerro de Oro	5	Mayo	2023-05-16T00:00:00	2024-11-08T12:00:00	7	Dirección del viento	4.83
149231	7	Sololá	719	Santiago Atitlán	14	Cerro de Oro	5	Mayo	2023-05-16T00:00:00	2024-11-08T12:00:00	1	Precipitación	0
149232	7	Sololá	719	Santiago Atitlán	14	Cerro de Oro	5	Mayo	2023-05-16T00:00:00	2024-11-08T12:00:00	8	Radiación solar	859
149233	7	Sololá	719	Santiago Atitlán	14	Cerro de Oro	5	Mayo	2023-05-16T00:00:00	2024-11-08T13:00:00	2	Temperatura media	23.9
149234	7	Sololá	719	Santiago Atitlán	14	Cerro de Oro	5	Mayo	2023-05-16T00:00:00	2024-11-08T13:00:00	4	Temperatura máxima	24.1
149235	7	Sololá	719	Santiago Atitlán	14	Cerro de Oro	5	Mayo	2023-05-16T00:00:00	2024-11-08T13:00:00	3	Temperatura mínima	23
149236	7	Sololá	719	Santiago Atitlán	14	Cerro de Oro	5	Mayo	2023-05-16T00:00:00	2024-11-08T13:00:00	5	Humedad	64
149237	7	Sololá	719	Santiago Atitlán	14	Cerro de Oro	5	Mayo	2023-05-16T00:00:00	2024-11-08T13:00:00	6	Velocidad del viento	4.8
149238	7	Sololá	719	Santiago Atitlán	14	Cerro de Oro	5	Mayo	2023-05-16T00:00:00	2024-11-08T13:00:00	7	Dirección del viento	4.83
149239	7	Sololá	719	Santiago Atitlán	14	Cerro de Oro	5	Mayo	2023-05-16T00:00:00	2024-11-08T13:00:00	1	Precipitación	0
149240	7	Sololá	719	Santiago Atitlán	14	Cerro de Oro	5	Mayo	2023-05-16T00:00:00	2024-11-08T13:00:00	8	Radiación solar	935
149241	7	Sololá	719	Santiago Atitlán	14	Cerro de Oro	5	Mayo	2023-05-16T00:00:00	2024-11-08T14:00:00	2	Temperatura media	24.4
149242	7	Sololá	719	Santiago Atitlán	14	Cerro de Oro	5	Mayo	2023-05-16T00:00:00	2024-11-08T14:00:00	4	Temperatura máxima	24.8
149243	7	Sololá	719	Santiago Atitlán	14	Cerro de Oro	5	Mayo	2023-05-16T00:00:00	2024-11-08T14:00:00	3	Temperatura mínima	23.9
149244	7	Sololá	719	Santiago Atitlán	14	Cerro de Oro	5	Mayo	2023-05-16T00:00:00	2024-11-08T14:00:00	5	Humedad	66
149245	7	Sololá	719	Santiago Atitlán	14	Cerro de Oro	5	Mayo	2023-05-16T00:00:00	2024-11-08T14:00:00	6	Velocidad del viento	11.3
149246	7	Sololá	719	Santiago Atitlán	14	Cerro de Oro	5	Mayo	2023-05-16T00:00:00	2024-11-08T14:00:00	7	Dirección del viento	11.27
149247	7	Sololá	719	Santiago Atitlán	14	Cerro de Oro	5	Mayo	2023-05-16T00:00:00	2024-11-08T14:00:00	1	Precipitación	0
149248	7	Sololá	719	Santiago Atitlán	14	Cerro de Oro	5	Mayo	2023-05-16T00:00:00	2024-11-08T14:00:00	8	Radiación solar	949
149249	7	Sololá	719	Santiago Atitlán	14	Cerro de Oro	5	Mayo	2023-05-16T00:00:00	2024-11-08T15:00:00	2	Temperatura media	22.7
149250	7	Sololá	719	Santiago Atitlán	14	Cerro de Oro	5	Mayo	2023-05-16T00:00:00	2024-11-08T15:00:00	4	Temperatura máxima	24.7
149251	7	Sololá	719	Santiago Atitlán	14	Cerro de Oro	5	Mayo	2023-05-16T00:00:00	2024-11-08T15:00:00	3	Temperatura mínima	22.7
149252	7	Sololá	719	Santiago Atitlán	14	Cerro de Oro	5	Mayo	2023-05-16T00:00:00	2024-11-08T15:00:00	5	Humedad	73
149253	7	Sololá	719	Santiago Atitlán	14	Cerro de Oro	5	Mayo	2023-05-16T00:00:00	2024-11-08T15:00:00	6	Velocidad del viento	11.3
149254	7	Sololá	719	Santiago Atitlán	14	Cerro de Oro	5	Mayo	2023-05-16T00:00:00	2024-11-08T15:00:00	7	Dirección del viento	11.27
149255	7	Sololá	719	Santiago Atitlán	14	Cerro de Oro	5	Mayo	2023-05-16T00:00:00	2024-11-08T15:00:00	1	Precipitación	0
149256	7	Sololá	719	Santiago Atitlán	14	Cerro de Oro	5	Mayo	2023-05-16T00:00:00	2024-11-08T15:00:00	8	Radiación solar	528
149257	7	Sololá	719	Santiago Atitlán	14	Cerro de Oro	5	Mayo	2023-05-16T00:00:00	2024-11-08T16:00:00	2	Temperatura media	22
149258	7	Sololá	719	Santiago Atitlán	14	Cerro de Oro	5	Mayo	2023-05-16T00:00:00	2024-11-08T16:00:00	4	Temperatura máxima	23
149259	7	Sololá	719	Santiago Atitlán	14	Cerro de Oro	5	Mayo	2023-05-16T00:00:00	2024-11-08T16:00:00	3	Temperatura mínima	21.8
149260	7	Sololá	719	Santiago Atitlán	14	Cerro de Oro	5	Mayo	2023-05-16T00:00:00	2024-11-08T16:00:00	5	Humedad	77
149261	7	Sololá	719	Santiago Atitlán	14	Cerro de Oro	5	Mayo	2023-05-16T00:00:00	2024-11-08T16:00:00	6	Velocidad del viento	11.3
149262	7	Sololá	719	Santiago Atitlán	14	Cerro de Oro	5	Mayo	2023-05-16T00:00:00	2024-11-08T16:00:00	7	Dirección del viento	11.27
149263	7	Sololá	719	Santiago Atitlán	14	Cerro de Oro	5	Mayo	2023-05-16T00:00:00	2024-11-08T16:00:00	1	Precipitación	0
149264	7	Sololá	719	Santiago Atitlán	14	Cerro de Oro	5	Mayo	2023-05-16T00:00:00	2024-11-08T16:00:00	8	Radiación solar	233
149265	7	Sololá	719	Santiago Atitlán	14	Cerro de Oro	5	Mayo	2023-05-16T00:00:00	2024-11-08T17:00:00	2	Temperatura media	20.9
149266	7	Sololá	719	Santiago Atitlán	14	Cerro de Oro	5	Mayo	2023-05-16T00:00:00	2024-11-08T17:00:00	4	Temperatura máxima	21.9
149267	7	Sololá	719	Santiago Atitlán	14	Cerro de Oro	5	Mayo	2023-05-16T00:00:00	2024-11-08T17:00:00	3	Temperatura mínima	20.9
149268	7	Sololá	719	Santiago Atitlán	14	Cerro de Oro	5	Mayo	2023-05-16T00:00:00	2024-11-08T17:00:00	5	Humedad	78
149269	7	Sololá	719	Santiago Atitlán	14	Cerro de Oro	5	Mayo	2023-05-16T00:00:00	2024-11-08T17:00:00	6	Velocidad del viento	11.3
149270	7	Sololá	719	Santiago Atitlán	14	Cerro de Oro	5	Mayo	2023-05-16T00:00:00	2024-11-08T17:00:00	7	Dirección del viento	11.27
149271	7	Sololá	719	Santiago Atitlán	14	Cerro de Oro	5	Mayo	2023-05-16T00:00:00	2024-11-08T17:00:00	1	Precipitación	0
149272	7	Sololá	719	Santiago Atitlán	14	Cerro de Oro	5	Mayo	2023-05-16T00:00:00	2024-11-08T17:00:00	8	Radiación solar	159
149273	7	Sololá	719	Santiago Atitlán	14	Cerro de Oro	5	Mayo	2023-05-16T00:00:00	2024-11-08T18:00:00	2	Temperatura media	19.7
149274	7	Sololá	719	Santiago Atitlán	14	Cerro de Oro	5	Mayo	2023-05-16T00:00:00	2024-11-08T18:00:00	4	Temperatura máxima	21.1
149275	7	Sololá	719	Santiago Atitlán	14	Cerro de Oro	5	Mayo	2023-05-16T00:00:00	2024-11-08T18:00:00	3	Temperatura mínima	19.7
149276	7	Sololá	719	Santiago Atitlán	14	Cerro de Oro	5	Mayo	2023-05-16T00:00:00	2024-11-08T18:00:00	5	Humedad	84
149277	7	Sololá	719	Santiago Atitlán	14	Cerro de Oro	5	Mayo	2023-05-16T00:00:00	2024-11-08T18:00:00	6	Velocidad del viento	4.8
149278	7	Sololá	719	Santiago Atitlán	14	Cerro de Oro	5	Mayo	2023-05-16T00:00:00	2024-11-08T18:00:00	7	Dirección del viento	4.83
149279	7	Sololá	719	Santiago Atitlán	14	Cerro de Oro	5	Mayo	2023-05-16T00:00:00	2024-11-08T18:00:00	1	Precipitación	0
149280	7	Sololá	719	Santiago Atitlán	14	Cerro de Oro	5	Mayo	2023-05-16T00:00:00	2024-11-08T18:00:00	8	Radiación solar	50
149281	7	Sololá	719	Santiago Atitlán	14	Cerro de Oro	5	Mayo	2023-05-16T00:00:00	2024-11-08T19:00:00	2	Temperatura media	18.9
149282	7	Sololá	719	Santiago Atitlán	14	Cerro de Oro	5	Mayo	2023-05-16T00:00:00	2024-11-08T19:00:00	4	Temperatura máxima	19.7
149283	7	Sololá	719	Santiago Atitlán	14	Cerro de Oro	5	Mayo	2023-05-16T00:00:00	2024-11-08T19:00:00	3	Temperatura mínima	18.8
149284	7	Sololá	719	Santiago Atitlán	14	Cerro de Oro	5	Mayo	2023-05-16T00:00:00	2024-11-08T19:00:00	5	Humedad	86
149285	7	Sololá	719	Santiago Atitlán	14	Cerro de Oro	5	Mayo	2023-05-16T00:00:00	2024-11-08T19:00:00	6	Velocidad del viento	6.4
149286	7	Sololá	719	Santiago Atitlán	14	Cerro de Oro	5	Mayo	2023-05-16T00:00:00	2024-11-08T19:00:00	7	Dirección del viento	6.44
149287	7	Sololá	719	Santiago Atitlán	14	Cerro de Oro	5	Mayo	2023-05-16T00:00:00	2024-11-08T19:00:00	1	Precipitación	0
149288	7	Sololá	719	Santiago Atitlán	14	Cerro de Oro	5	Mayo	2023-05-16T00:00:00	2024-11-08T19:00:00	8	Radiación solar	0
149289	7	Sololá	719	Santiago Atitlán	14	Cerro de Oro	5	Mayo	2023-05-16T00:00:00	2024-11-08T20:00:00	2	Temperatura media	18.1
149290	7	Sololá	719	Santiago Atitlán	14	Cerro de Oro	5	Mayo	2023-05-16T00:00:00	2024-11-08T20:00:00	4	Temperatura máxima	18.9
149291	7	Sololá	719	Santiago Atitlán	14	Cerro de Oro	5	Mayo	2023-05-16T00:00:00	2024-11-08T20:00:00	3	Temperatura mínima	17.9
149292	7	Sololá	719	Santiago Atitlán	14	Cerro de Oro	5	Mayo	2023-05-16T00:00:00	2024-11-08T20:00:00	5	Humedad	86
149293	7	Sololá	719	Santiago Atitlán	14	Cerro de Oro	5	Mayo	2023-05-16T00:00:00	2024-11-08T20:00:00	6	Velocidad del viento	4.8
149294	7	Sololá	719	Santiago Atitlán	14	Cerro de Oro	5	Mayo	2023-05-16T00:00:00	2024-11-08T20:00:00	7	Dirección del viento	4.83
149295	7	Sololá	719	Santiago Atitlán	14	Cerro de Oro	5	Mayo	2023-05-16T00:00:00	2024-11-08T20:00:00	1	Precipitación	0
149296	7	Sololá	719	Santiago Atitlán	14	Cerro de Oro	5	Mayo	2023-05-16T00:00:00	2024-11-08T20:00:00	8	Radiación solar	0
149297	7	Sololá	719	Santiago Atitlán	14	Cerro de Oro	5	Mayo	2023-05-16T00:00:00	2024-11-08T21:00:00	2	Temperatura media	17.7
149298	7	Sololá	719	Santiago Atitlán	14	Cerro de Oro	5	Mayo	2023-05-16T00:00:00	2024-11-08T21:00:00	4	Temperatura máxima	18.3
149299	7	Sololá	719	Santiago Atitlán	14	Cerro de Oro	5	Mayo	2023-05-16T00:00:00	2024-11-08T21:00:00	3	Temperatura mínima	17.7
149300	7	Sololá	719	Santiago Atitlán	14	Cerro de Oro	5	Mayo	2023-05-16T00:00:00	2024-11-08T21:00:00	5	Humedad	87
149301	7	Sololá	719	Santiago Atitlán	14	Cerro de Oro	5	Mayo	2023-05-16T00:00:00	2024-11-08T21:00:00	6	Velocidad del viento	3.2
149302	7	Sololá	719	Santiago Atitlán	14	Cerro de Oro	5	Mayo	2023-05-16T00:00:00	2024-11-08T21:00:00	7	Dirección del viento	3.22
149303	7	Sololá	719	Santiago Atitlán	14	Cerro de Oro	5	Mayo	2023-05-16T00:00:00	2024-11-08T21:00:00	1	Precipitación	0
149304	7	Sololá	719	Santiago Atitlán	14	Cerro de Oro	5	Mayo	2023-05-16T00:00:00	2024-11-08T21:00:00	8	Radiación solar	0
149305	7	Sololá	719	Santiago Atitlán	14	Cerro de Oro	5	Mayo	2023-05-16T00:00:00	2024-11-08T22:00:00	2	Temperatura media	17.1
149306	7	Sololá	719	Santiago Atitlán	14	Cerro de Oro	5	Mayo	2023-05-16T00:00:00	2024-11-08T22:00:00	4	Temperatura máxima	17.7
149307	7	Sololá	719	Santiago Atitlán	14	Cerro de Oro	5	Mayo	2023-05-16T00:00:00	2024-11-08T22:00:00	3	Temperatura mínima	17.1
149308	7	Sololá	719	Santiago Atitlán	14	Cerro de Oro	5	Mayo	2023-05-16T00:00:00	2024-11-08T22:00:00	5	Humedad	88
149309	7	Sololá	719	Santiago Atitlán	14	Cerro de Oro	5	Mayo	2023-05-16T00:00:00	2024-11-08T22:00:00	6	Velocidad del viento	4.8
149310	7	Sololá	719	Santiago Atitlán	14	Cerro de Oro	5	Mayo	2023-05-16T00:00:00	2024-11-08T22:00:00	7	Dirección del viento	4.83
149311	7	Sololá	719	Santiago Atitlán	14	Cerro de Oro	5	Mayo	2023-05-16T00:00:00	2024-11-08T22:00:00	1	Precipitación	0
149312	7	Sololá	719	Santiago Atitlán	14	Cerro de Oro	5	Mayo	2023-05-16T00:00:00	2024-11-08T22:00:00	8	Radiación solar	0
149313	7	Sololá	719	Santiago Atitlán	14	Cerro de Oro	5	Mayo	2023-05-16T00:00:00	2024-11-08T23:00:00	2	Temperatura media	17.7
149314	7	Sololá	719	Santiago Atitlán	14	Cerro de Oro	5	Mayo	2023-05-16T00:00:00	2024-11-08T23:00:00	4	Temperatura máxima	17.7
149315	7	Sololá	719	Santiago Atitlán	14	Cerro de Oro	5	Mayo	2023-05-16T00:00:00	2024-11-08T23:00:00	3	Temperatura mínima	17.1
149316	7	Sololá	719	Santiago Atitlán	14	Cerro de Oro	5	Mayo	2023-05-16T00:00:00	2024-11-08T23:00:00	5	Humedad	86
149317	7	Sololá	719	Santiago Atitlán	14	Cerro de Oro	5	Mayo	2023-05-16T00:00:00	2024-11-08T23:00:00	6	Velocidad del viento	4.8
149318	7	Sololá	719	Santiago Atitlán	14	Cerro de Oro	5	Mayo	2023-05-16T00:00:00	2024-11-08T23:00:00	7	Dirección del viento	4.83
149319	7	Sololá	719	Santiago Atitlán	14	Cerro de Oro	5	Mayo	2023-05-16T00:00:00	2024-11-08T23:00:00	1	Precipitación	0
149320	7	Sololá	719	Santiago Atitlán	14	Cerro de Oro	5	Mayo	2023-05-16T00:00:00	2024-11-08T23:00:00	8	Radiación solar	0
149321	7	Sololá	719	Santiago Atitlán	14	Cerro de Oro	5	Mayo	2023-05-17T00:00:00	2024-11-08T00:00:00	2	Temperatura media	18.2
149322	7	Sololá	719	Santiago Atitlán	14	Cerro de Oro	5	Mayo	2023-05-17T00:00:00	2024-11-08T00:00:00	4	Temperatura máxima	18.2
149323	7	Sololá	719	Santiago Atitlán	14	Cerro de Oro	5	Mayo	2023-05-17T00:00:00	2024-11-08T00:00:00	3	Temperatura mínima	17.7
149324	7	Sololá	719	Santiago Atitlán	14	Cerro de Oro	5	Mayo	2023-05-17T00:00:00	2024-11-08T00:00:00	5	Humedad	88
149325	7	Sololá	719	Santiago Atitlán	14	Cerro de Oro	5	Mayo	2023-05-17T00:00:00	2024-11-08T00:00:00	6	Velocidad del viento	6.4
149326	7	Sololá	719	Santiago Atitlán	14	Cerro de Oro	5	Mayo	2023-05-17T00:00:00	2024-11-08T00:00:00	7	Dirección del viento	6.44
149327	7	Sololá	719	Santiago Atitlán	14	Cerro de Oro	5	Mayo	2023-05-17T00:00:00	2024-11-08T00:00:00	1	Precipitación	0
149328	7	Sololá	719	Santiago Atitlán	14	Cerro de Oro	5	Mayo	2023-05-17T00:00:00	2024-11-08T00:00:00	8	Radiación solar	0
149329	7	Sololá	719	Santiago Atitlán	14	Cerro de Oro	5	Mayo	2023-05-17T00:00:00	2024-11-08T01:00:00	2	Temperatura media	18.2
149330	7	Sololá	719	Santiago Atitlán	14	Cerro de Oro	5	Mayo	2023-05-17T00:00:00	2024-11-08T01:00:00	4	Temperatura máxima	18.3
149331	7	Sololá	719	Santiago Atitlán	14	Cerro de Oro	5	Mayo	2023-05-17T00:00:00	2024-11-08T01:00:00	3	Temperatura mínima	17.9
149332	7	Sololá	719	Santiago Atitlán	14	Cerro de Oro	5	Mayo	2023-05-17T00:00:00	2024-11-08T01:00:00	5	Humedad	84
149333	7	Sololá	719	Santiago Atitlán	14	Cerro de Oro	5	Mayo	2023-05-17T00:00:00	2024-11-08T01:00:00	6	Velocidad del viento	4.8
149334	7	Sololá	719	Santiago Atitlán	14	Cerro de Oro	5	Mayo	2023-05-17T00:00:00	2024-11-08T01:00:00	7	Dirección del viento	4.83
149335	7	Sololá	719	Santiago Atitlán	14	Cerro de Oro	5	Mayo	2023-05-17T00:00:00	2024-11-08T01:00:00	1	Precipitación	0
149336	7	Sololá	719	Santiago Atitlán	14	Cerro de Oro	5	Mayo	2023-05-17T00:00:00	2024-11-08T01:00:00	8	Radiación solar	0
149337	7	Sololá	719	Santiago Atitlán	14	Cerro de Oro	5	Mayo	2023-05-17T00:00:00	2024-11-08T02:00:00	2	Temperatura media	17.7
149338	7	Sololá	719	Santiago Atitlán	14	Cerro de Oro	5	Mayo	2023-05-17T00:00:00	2024-11-08T02:00:00	4	Temperatura máxima	18.3
149339	7	Sololá	719	Santiago Atitlán	14	Cerro de Oro	5	Mayo	2023-05-17T00:00:00	2024-11-08T02:00:00	3	Temperatura mínima	17.6
149340	7	Sololá	719	Santiago Atitlán	14	Cerro de Oro	5	Mayo	2023-05-17T00:00:00	2024-11-08T02:00:00	5	Humedad	88
149341	7	Sololá	719	Santiago Atitlán	14	Cerro de Oro	5	Mayo	2023-05-17T00:00:00	2024-11-08T02:00:00	6	Velocidad del viento	3.2
149342	7	Sololá	719	Santiago Atitlán	14	Cerro de Oro	5	Mayo	2023-05-17T00:00:00	2024-11-08T02:00:00	7	Dirección del viento	3.22
149343	7	Sololá	719	Santiago Atitlán	14	Cerro de Oro	5	Mayo	2023-05-17T00:00:00	2024-11-08T02:00:00	1	Precipitación	0
149344	7	Sololá	719	Santiago Atitlán	14	Cerro de Oro	5	Mayo	2023-05-17T00:00:00	2024-11-08T02:00:00	8	Radiación solar	0
149345	7	Sololá	719	Santiago Atitlán	14	Cerro de Oro	5	Mayo	2023-05-17T00:00:00	2024-11-08T03:00:00	2	Temperatura media	18
149346	7	Sololá	719	Santiago Atitlán	14	Cerro de Oro	5	Mayo	2023-05-17T00:00:00	2024-11-08T03:00:00	4	Temperatura máxima	18
149347	7	Sololá	719	Santiago Atitlán	14	Cerro de Oro	5	Mayo	2023-05-17T00:00:00	2024-11-08T03:00:00	3	Temperatura mínima	17.6
149348	7	Sololá	719	Santiago Atitlán	14	Cerro de Oro	5	Mayo	2023-05-17T00:00:00	2024-11-08T03:00:00	5	Humedad	82
149349	7	Sololá	719	Santiago Atitlán	14	Cerro de Oro	5	Mayo	2023-05-17T00:00:00	2024-11-08T03:00:00	6	Velocidad del viento	4.8
149350	7	Sololá	719	Santiago Atitlán	14	Cerro de Oro	5	Mayo	2023-05-17T00:00:00	2024-11-08T03:00:00	7	Dirección del viento	4.83
149351	7	Sololá	719	Santiago Atitlán	14	Cerro de Oro	5	Mayo	2023-05-17T00:00:00	2024-11-08T03:00:00	1	Precipitación	0
149352	7	Sololá	719	Santiago Atitlán	14	Cerro de Oro	5	Mayo	2023-05-17T00:00:00	2024-11-08T03:00:00	8	Radiación solar	0
149353	7	Sololá	719	Santiago Atitlán	14	Cerro de Oro	5	Mayo	2023-05-17T00:00:00	2024-11-08T04:00:00	2	Temperatura media	17.7
149354	7	Sololá	719	Santiago Atitlán	14	Cerro de Oro	5	Mayo	2023-05-17T00:00:00	2024-11-08T04:00:00	4	Temperatura máxima	18.2
149355	7	Sololá	719	Santiago Atitlán	14	Cerro de Oro	5	Mayo	2023-05-17T00:00:00	2024-11-08T04:00:00	3	Temperatura mínima	17.6
149356	7	Sololá	719	Santiago Atitlán	14	Cerro de Oro	5	Mayo	2023-05-17T00:00:00	2024-11-08T04:00:00	5	Humedad	87
149357	7	Sololá	719	Santiago Atitlán	14	Cerro de Oro	5	Mayo	2023-05-17T00:00:00	2024-11-08T04:00:00	6	Velocidad del viento	4.8
149358	7	Sololá	719	Santiago Atitlán	14	Cerro de Oro	5	Mayo	2023-05-17T00:00:00	2024-11-08T04:00:00	7	Dirección del viento	4.83
149359	7	Sololá	719	Santiago Atitlán	14	Cerro de Oro	5	Mayo	2023-05-17T00:00:00	2024-11-08T04:00:00	1	Precipitación	0
149360	7	Sololá	719	Santiago Atitlán	14	Cerro de Oro	5	Mayo	2023-05-17T00:00:00	2024-11-08T04:00:00	8	Radiación solar	0
149361	7	Sololá	719	Santiago Atitlán	14	Cerro de Oro	5	Mayo	2023-05-17T00:00:00	2024-11-08T05:00:00	2	Temperatura media	17.3
149362	7	Sololá	719	Santiago Atitlán	14	Cerro de Oro	5	Mayo	2023-05-17T00:00:00	2024-11-08T05:00:00	4	Temperatura máxima	17.7
149363	7	Sololá	719	Santiago Atitlán	14	Cerro de Oro	5	Mayo	2023-05-17T00:00:00	2024-11-08T05:00:00	3	Temperatura mínima	16.9
149364	7	Sololá	719	Santiago Atitlán	14	Cerro de Oro	5	Mayo	2023-05-17T00:00:00	2024-11-08T05:00:00	5	Humedad	88
149365	7	Sololá	719	Santiago Atitlán	14	Cerro de Oro	5	Mayo	2023-05-17T00:00:00	2024-11-08T05:00:00	6	Velocidad del viento	4.8
149366	7	Sololá	719	Santiago Atitlán	14	Cerro de Oro	5	Mayo	2023-05-17T00:00:00	2024-11-08T05:00:00	7	Dirección del viento	4.83
149367	7	Sololá	719	Santiago Atitlán	14	Cerro de Oro	5	Mayo	2023-05-17T00:00:00	2024-11-08T05:00:00	1	Precipitación	0
149368	7	Sololá	719	Santiago Atitlán	14	Cerro de Oro	5	Mayo	2023-05-17T00:00:00	2024-11-08T05:00:00	8	Radiación solar	0
149369	7	Sololá	719	Santiago Atitlán	14	Cerro de Oro	5	Mayo	2023-05-17T00:00:00	2024-11-08T06:00:00	2	Temperatura media	17.1
149370	7	Sololá	719	Santiago Atitlán	14	Cerro de Oro	5	Mayo	2023-05-17T00:00:00	2024-11-08T06:00:00	4	Temperatura máxima	17.5
149371	7	Sololá	719	Santiago Atitlán	14	Cerro de Oro	5	Mayo	2023-05-17T00:00:00	2024-11-08T06:00:00	3	Temperatura mínima	17.1
149372	7	Sololá	719	Santiago Atitlán	14	Cerro de Oro	5	Mayo	2023-05-17T00:00:00	2024-11-08T06:00:00	5	Humedad	85
149373	7	Sololá	719	Santiago Atitlán	14	Cerro de Oro	5	Mayo	2023-05-17T00:00:00	2024-11-08T06:00:00	6	Velocidad del viento	3.2
149374	7	Sololá	719	Santiago Atitlán	14	Cerro de Oro	5	Mayo	2023-05-17T00:00:00	2024-11-08T06:00:00	7	Dirección del viento	3.22
149375	7	Sololá	719	Santiago Atitlán	14	Cerro de Oro	5	Mayo	2023-05-17T00:00:00	2024-11-08T06:00:00	1	Precipitación	0
149376	7	Sololá	719	Santiago Atitlán	14	Cerro de Oro	5	Mayo	2023-05-17T00:00:00	2024-11-08T06:00:00	8	Radiación solar	0
149377	7	Sololá	719	Santiago Atitlán	14	Cerro de Oro	5	Mayo	2023-05-17T00:00:00	2024-11-08T07:00:00	2	Temperatura media	16.9
149378	7	Sololá	719	Santiago Atitlán	14	Cerro de Oro	5	Mayo	2023-05-17T00:00:00	2024-11-08T07:00:00	4	Temperatura máxima	17.3
149379	7	Sololá	719	Santiago Atitlán	14	Cerro de Oro	5	Mayo	2023-05-17T00:00:00	2024-11-08T07:00:00	3	Temperatura mínima	16.9
149380	7	Sololá	719	Santiago Atitlán	14	Cerro de Oro	5	Mayo	2023-05-17T00:00:00	2024-11-08T07:00:00	5	Humedad	85
149381	7	Sololá	719	Santiago Atitlán	14	Cerro de Oro	5	Mayo	2023-05-17T00:00:00	2024-11-08T07:00:00	6	Velocidad del viento	4.8
149382	7	Sololá	719	Santiago Atitlán	14	Cerro de Oro	5	Mayo	2023-05-17T00:00:00	2024-11-08T07:00:00	7	Dirección del viento	4.83
149383	7	Sololá	719	Santiago Atitlán	14	Cerro de Oro	5	Mayo	2023-05-17T00:00:00	2024-11-08T07:00:00	1	Precipitación	0
149384	7	Sololá	719	Santiago Atitlán	14	Cerro de Oro	5	Mayo	2023-05-17T00:00:00	2024-11-08T07:00:00	8	Radiación solar	5
149385	7	Sololá	719	Santiago Atitlán	14	Cerro de Oro	5	Mayo	2023-05-17T00:00:00	2024-11-08T08:00:00	2	Temperatura media	19.3
149386	7	Sololá	719	Santiago Atitlán	14	Cerro de Oro	5	Mayo	2023-05-17T00:00:00	2024-11-08T08:00:00	4	Temperatura máxima	19.3
149387	7	Sololá	719	Santiago Atitlán	14	Cerro de Oro	5	Mayo	2023-05-17T00:00:00	2024-11-08T08:00:00	3	Temperatura mínima	16.9
149388	7	Sololá	719	Santiago Atitlán	14	Cerro de Oro	5	Mayo	2023-05-17T00:00:00	2024-11-08T08:00:00	5	Humedad	79
149389	7	Sololá	719	Santiago Atitlán	14	Cerro de Oro	5	Mayo	2023-05-17T00:00:00	2024-11-08T08:00:00	6	Velocidad del viento	1.6
149390	7	Sololá	719	Santiago Atitlán	14	Cerro de Oro	5	Mayo	2023-05-17T00:00:00	2024-11-08T08:00:00	7	Dirección del viento	1.61
149391	7	Sololá	719	Santiago Atitlán	14	Cerro de Oro	5	Mayo	2023-05-17T00:00:00	2024-11-08T08:00:00	1	Precipitación	0
149392	7	Sololá	719	Santiago Atitlán	14	Cerro de Oro	5	Mayo	2023-05-17T00:00:00	2024-11-08T08:00:00	8	Radiación solar	102
149393	7	Sololá	719	Santiago Atitlán	14	Cerro de Oro	5	Mayo	2023-05-17T00:00:00	2024-11-08T09:00:00	2	Temperatura media	20.3
149394	7	Sololá	719	Santiago Atitlán	14	Cerro de Oro	5	Mayo	2023-05-17T00:00:00	2024-11-08T09:00:00	4	Temperatura máxima	20.4
149395	7	Sololá	719	Santiago Atitlán	14	Cerro de Oro	5	Mayo	2023-05-17T00:00:00	2024-11-08T09:00:00	3	Temperatura mínima	19.2
149396	7	Sololá	719	Santiago Atitlán	14	Cerro de Oro	5	Mayo	2023-05-17T00:00:00	2024-11-08T09:00:00	5	Humedad	75
149397	7	Sololá	719	Santiago Atitlán	14	Cerro de Oro	5	Mayo	2023-05-17T00:00:00	2024-11-08T09:00:00	6	Velocidad del viento	3.2
149398	7	Sololá	719	Santiago Atitlán	14	Cerro de Oro	5	Mayo	2023-05-17T00:00:00	2024-11-08T09:00:00	7	Dirección del viento	3.22
149399	7	Sololá	719	Santiago Atitlán	14	Cerro de Oro	5	Mayo	2023-05-17T00:00:00	2024-11-08T09:00:00	1	Precipitación	0
149400	7	Sololá	719	Santiago Atitlán	14	Cerro de Oro	5	Mayo	2023-05-17T00:00:00	2024-11-08T09:00:00	8	Radiación solar	317
149401	7	Sololá	719	Santiago Atitlán	14	Cerro de Oro	5	Mayo	2023-05-17T00:00:00	2024-11-08T10:00:00	2	Temperatura media	21.1
149402	7	Sololá	719	Santiago Atitlán	14	Cerro de Oro	5	Mayo	2023-05-17T00:00:00	2024-11-08T10:00:00	4	Temperatura máxima	21.1
149403	7	Sololá	719	Santiago Atitlán	14	Cerro de Oro	5	Mayo	2023-05-17T00:00:00	2024-11-08T10:00:00	3	Temperatura mínima	20.2
149404	7	Sololá	719	Santiago Atitlán	14	Cerro de Oro	5	Mayo	2023-05-17T00:00:00	2024-11-08T10:00:00	5	Humedad	72
149405	7	Sololá	719	Santiago Atitlán	14	Cerro de Oro	5	Mayo	2023-05-17T00:00:00	2024-11-08T10:00:00	6	Velocidad del viento	4.8
149406	7	Sololá	719	Santiago Atitlán	14	Cerro de Oro	5	Mayo	2023-05-17T00:00:00	2024-11-08T10:00:00	7	Dirección del viento	4.83
149407	7	Sololá	719	Santiago Atitlán	14	Cerro de Oro	5	Mayo	2023-05-17T00:00:00	2024-11-08T10:00:00	1	Precipitación	0
149408	7	Sololá	719	Santiago Atitlán	14	Cerro de Oro	5	Mayo	2023-05-17T00:00:00	2024-11-08T10:00:00	8	Radiación solar	551
149409	7	Sololá	719	Santiago Atitlán	14	Cerro de Oro	5	Mayo	2023-05-17T00:00:00	2024-11-08T11:00:00	2	Temperatura media	21.9
149410	7	Sololá	719	Santiago Atitlán	14	Cerro de Oro	5	Mayo	2023-05-17T00:00:00	2024-11-08T11:00:00	4	Temperatura máxima	21.9
149411	7	Sololá	719	Santiago Atitlán	14	Cerro de Oro	5	Mayo	2023-05-17T00:00:00	2024-11-08T11:00:00	3	Temperatura mínima	20.8
149412	7	Sololá	719	Santiago Atitlán	14	Cerro de Oro	5	Mayo	2023-05-17T00:00:00	2024-11-08T11:00:00	5	Humedad	73
149413	7	Sololá	719	Santiago Atitlán	14	Cerro de Oro	5	Mayo	2023-05-17T00:00:00	2024-11-08T11:00:00	6	Velocidad del viento	4.8
149414	7	Sololá	719	Santiago Atitlán	14	Cerro de Oro	5	Mayo	2023-05-17T00:00:00	2024-11-08T11:00:00	7	Dirección del viento	4.83
149415	7	Sololá	719	Santiago Atitlán	14	Cerro de Oro	5	Mayo	2023-05-17T00:00:00	2024-11-08T11:00:00	1	Precipitación	0
149416	7	Sololá	719	Santiago Atitlán	14	Cerro de Oro	5	Mayo	2023-05-17T00:00:00	2024-11-08T11:00:00	8	Radiación solar	730
149417	7	Sololá	719	Santiago Atitlán	14	Cerro de Oro	5	Mayo	2023-05-17T00:00:00	2024-11-08T12:00:00	2	Temperatura media	23.4
149418	7	Sololá	719	Santiago Atitlán	14	Cerro de Oro	5	Mayo	2023-05-17T00:00:00	2024-11-08T12:00:00	4	Temperatura máxima	23.4
149419	7	Sololá	719	Santiago Atitlán	14	Cerro de Oro	5	Mayo	2023-05-17T00:00:00	2024-11-08T12:00:00	3	Temperatura mínima	21.9
149420	7	Sololá	719	Santiago Atitlán	14	Cerro de Oro	5	Mayo	2023-05-17T00:00:00	2024-11-08T12:00:00	5	Humedad	69
149421	7	Sololá	719	Santiago Atitlán	14	Cerro de Oro	5	Mayo	2023-05-17T00:00:00	2024-11-08T12:00:00	6	Velocidad del viento	4.8
149422	7	Sololá	719	Santiago Atitlán	14	Cerro de Oro	5	Mayo	2023-05-17T00:00:00	2024-11-08T12:00:00	7	Dirección del viento	4.83
149423	7	Sololá	719	Santiago Atitlán	14	Cerro de Oro	5	Mayo	2023-05-17T00:00:00	2024-11-08T12:00:00	1	Precipitación	0
149424	7	Sololá	719	Santiago Atitlán	14	Cerro de Oro	5	Mayo	2023-05-17T00:00:00	2024-11-08T12:00:00	8	Radiación solar	856
149425	7	Sololá	719	Santiago Atitlán	14	Cerro de Oro	5	Mayo	2023-05-17T00:00:00	2024-11-08T13:00:00	2	Temperatura media	24.8
149426	7	Sololá	719	Santiago Atitlán	14	Cerro de Oro	5	Mayo	2023-05-17T00:00:00	2024-11-08T13:00:00	4	Temperatura máxima	24.8
149427	7	Sololá	719	Santiago Atitlán	14	Cerro de Oro	5	Mayo	2023-05-17T00:00:00	2024-11-08T13:00:00	3	Temperatura mínima	23.4
149428	7	Sololá	719	Santiago Atitlán	14	Cerro de Oro	5	Mayo	2023-05-17T00:00:00	2024-11-08T13:00:00	5	Humedad	67
149429	7	Sololá	719	Santiago Atitlán	14	Cerro de Oro	5	Mayo	2023-05-17T00:00:00	2024-11-08T13:00:00	6	Velocidad del viento	6.4
149430	7	Sololá	719	Santiago Atitlán	14	Cerro de Oro	5	Mayo	2023-05-17T00:00:00	2024-11-08T13:00:00	7	Dirección del viento	6.44
149431	7	Sololá	719	Santiago Atitlán	14	Cerro de Oro	5	Mayo	2023-05-17T00:00:00	2024-11-08T13:00:00	1	Precipitación	0
149432	7	Sololá	719	Santiago Atitlán	14	Cerro de Oro	5	Mayo	2023-05-17T00:00:00	2024-11-08T13:00:00	8	Radiación solar	923
149433	7	Sololá	719	Santiago Atitlán	14	Cerro de Oro	5	Mayo	2023-05-17T00:00:00	2024-11-08T14:00:00	2	Temperatura media	24.2
149434	7	Sololá	719	Santiago Atitlán	14	Cerro de Oro	5	Mayo	2023-05-17T00:00:00	2024-11-08T14:00:00	4	Temperatura máxima	25
149435	7	Sololá	719	Santiago Atitlán	14	Cerro de Oro	5	Mayo	2023-05-17T00:00:00	2024-11-08T14:00:00	3	Temperatura mínima	24.1
149436	7	Sololá	719	Santiago Atitlán	14	Cerro de Oro	5	Mayo	2023-05-17T00:00:00	2024-11-08T14:00:00	5	Humedad	75
149437	7	Sololá	719	Santiago Atitlán	14	Cerro de Oro	5	Mayo	2023-05-17T00:00:00	2024-11-08T14:00:00	6	Velocidad del viento	11.3
149438	7	Sololá	719	Santiago Atitlán	14	Cerro de Oro	5	Mayo	2023-05-17T00:00:00	2024-11-08T14:00:00	7	Dirección del viento	11.27
149439	7	Sololá	719	Santiago Atitlán	14	Cerro de Oro	5	Mayo	2023-05-17T00:00:00	2024-11-08T14:00:00	1	Precipitación	0
149440	7	Sololá	719	Santiago Atitlán	14	Cerro de Oro	5	Mayo	2023-05-17T00:00:00	2024-11-08T14:00:00	8	Radiación solar	812
149441	7	Sololá	719	Santiago Atitlán	14	Cerro de Oro	5	Mayo	2023-05-17T00:00:00	2024-11-08T15:00:00	2	Temperatura media	22.7
149442	7	Sololá	719	Santiago Atitlán	14	Cerro de Oro	5	Mayo	2023-05-17T00:00:00	2024-11-08T15:00:00	4	Temperatura máxima	24.3
149443	7	Sololá	719	Santiago Atitlán	14	Cerro de Oro	5	Mayo	2023-05-17T00:00:00	2024-11-08T15:00:00	3	Temperatura mínima	22.7
149444	7	Sololá	719	Santiago Atitlán	14	Cerro de Oro	5	Mayo	2023-05-17T00:00:00	2024-11-08T15:00:00	5	Humedad	77
149445	7	Sololá	719	Santiago Atitlán	14	Cerro de Oro	5	Mayo	2023-05-17T00:00:00	2024-11-08T15:00:00	6	Velocidad del viento	14.5
149446	7	Sololá	719	Santiago Atitlán	14	Cerro de Oro	5	Mayo	2023-05-17T00:00:00	2024-11-08T15:00:00	7	Dirección del viento	14.48
149447	7	Sololá	719	Santiago Atitlán	14	Cerro de Oro	5	Mayo	2023-05-17T00:00:00	2024-11-08T15:00:00	1	Precipitación	0
149448	7	Sololá	719	Santiago Atitlán	14	Cerro de Oro	5	Mayo	2023-05-17T00:00:00	2024-11-08T15:00:00	8	Radiación solar	590
149449	7	Sololá	719	Santiago Atitlán	14	Cerro de Oro	5	Mayo	2023-05-17T00:00:00	2024-11-08T16:00:00	2	Temperatura media	22.3
149450	7	Sololá	719	Santiago Atitlán	14	Cerro de Oro	5	Mayo	2023-05-17T00:00:00	2024-11-08T16:00:00	4	Temperatura máxima	22.8
149451	7	Sololá	719	Santiago Atitlán	14	Cerro de Oro	5	Mayo	2023-05-17T00:00:00	2024-11-08T16:00:00	3	Temperatura mínima	22.1
149452	7	Sololá	719	Santiago Atitlán	14	Cerro de Oro	5	Mayo	2023-05-17T00:00:00	2024-11-08T16:00:00	5	Humedad	78
149453	7	Sololá	719	Santiago Atitlán	14	Cerro de Oro	5	Mayo	2023-05-17T00:00:00	2024-11-08T16:00:00	6	Velocidad del viento	11.3
149454	7	Sololá	719	Santiago Atitlán	14	Cerro de Oro	5	Mayo	2023-05-17T00:00:00	2024-11-08T16:00:00	7	Dirección del viento	11.27
149455	7	Sololá	719	Santiago Atitlán	14	Cerro de Oro	5	Mayo	2023-05-17T00:00:00	2024-11-08T16:00:00	1	Precipitación	0
149456	7	Sololá	719	Santiago Atitlán	14	Cerro de Oro	5	Mayo	2023-05-17T00:00:00	2024-11-08T16:00:00	8	Radiación solar	253
149457	7	Sololá	719	Santiago Atitlán	14	Cerro de Oro	5	Mayo	2023-05-17T00:00:00	2024-11-08T17:00:00	2	Temperatura media	21.6
149458	7	Sololá	719	Santiago Atitlán	14	Cerro de Oro	5	Mayo	2023-05-17T00:00:00	2024-11-08T17:00:00	4	Temperatura máxima	22.3
149459	7	Sololá	719	Santiago Atitlán	14	Cerro de Oro	5	Mayo	2023-05-17T00:00:00	2024-11-08T17:00:00	3	Temperatura mínima	21.6
149460	7	Sololá	719	Santiago Atitlán	14	Cerro de Oro	5	Mayo	2023-05-17T00:00:00	2024-11-08T17:00:00	5	Humedad	80
149461	7	Sololá	719	Santiago Atitlán	14	Cerro de Oro	5	Mayo	2023-05-17T00:00:00	2024-11-08T17:00:00	6	Velocidad del viento	12.9
149462	7	Sololá	719	Santiago Atitlán	14	Cerro de Oro	5	Mayo	2023-05-17T00:00:00	2024-11-08T17:00:00	7	Dirección del viento	12.87
149463	7	Sololá	719	Santiago Atitlán	14	Cerro de Oro	5	Mayo	2023-05-17T00:00:00	2024-11-08T17:00:00	1	Precipitación	0
149464	7	Sololá	719	Santiago Atitlán	14	Cerro de Oro	5	Mayo	2023-05-17T00:00:00	2024-11-08T17:00:00	8	Radiación solar	207
149465	7	Sololá	719	Santiago Atitlán	14	Cerro de Oro	5	Mayo	2023-05-17T00:00:00	2024-11-08T18:00:00	2	Temperatura media	20.7
149466	7	Sololá	719	Santiago Atitlán	14	Cerro de Oro	5	Mayo	2023-05-17T00:00:00	2024-11-08T18:00:00	4	Temperatura máxima	21.6
149467	7	Sololá	719	Santiago Atitlán	14	Cerro de Oro	5	Mayo	2023-05-17T00:00:00	2024-11-08T18:00:00	3	Temperatura mínima	20.7
149468	7	Sololá	719	Santiago Atitlán	14	Cerro de Oro	5	Mayo	2023-05-17T00:00:00	2024-11-08T18:00:00	5	Humedad	83
149469	7	Sololá	719	Santiago Atitlán	14	Cerro de Oro	5	Mayo	2023-05-17T00:00:00	2024-11-08T18:00:00	6	Velocidad del viento	11.3
149470	7	Sololá	719	Santiago Atitlán	14	Cerro de Oro	5	Mayo	2023-05-17T00:00:00	2024-11-08T18:00:00	7	Dirección del viento	11.27
149471	7	Sololá	719	Santiago Atitlán	14	Cerro de Oro	5	Mayo	2023-05-17T00:00:00	2024-11-08T18:00:00	1	Precipitación	0
149472	7	Sololá	719	Santiago Atitlán	14	Cerro de Oro	5	Mayo	2023-05-17T00:00:00	2024-11-08T18:00:00	8	Radiación solar	52
149473	7	Sololá	719	Santiago Atitlán	14	Cerro de Oro	5	Mayo	2023-05-17T00:00:00	2024-11-08T19:00:00	2	Temperatura media	19.8
149474	7	Sololá	719	Santiago Atitlán	14	Cerro de Oro	5	Mayo	2023-05-17T00:00:00	2024-11-08T19:00:00	4	Temperatura máxima	20.7
149475	7	Sololá	719	Santiago Atitlán	14	Cerro de Oro	5	Mayo	2023-05-17T00:00:00	2024-11-08T19:00:00	3	Temperatura mínima	19.8
149476	7	Sololá	719	Santiago Atitlán	14	Cerro de Oro	5	Mayo	2023-05-17T00:00:00	2024-11-08T19:00:00	5	Humedad	88
149477	7	Sololá	719	Santiago Atitlán	14	Cerro de Oro	5	Mayo	2023-05-17T00:00:00	2024-11-08T19:00:00	6	Velocidad del viento	6.4
149478	7	Sololá	719	Santiago Atitlán	14	Cerro de Oro	5	Mayo	2023-05-17T00:00:00	2024-11-08T19:00:00	7	Dirección del viento	6.44
149479	7	Sololá	719	Santiago Atitlán	14	Cerro de Oro	5	Mayo	2023-05-17T00:00:00	2024-11-08T19:00:00	1	Precipitación	1.6
149480	7	Sololá	719	Santiago Atitlán	14	Cerro de Oro	5	Mayo	2023-05-17T00:00:00	2024-11-08T19:00:00	8	Radiación solar	0
149481	7	Sololá	719	Santiago Atitlán	14	Cerro de Oro	5	Mayo	2023-05-17T00:00:00	2024-11-08T20:00:00	2	Temperatura media	18.9
149482	7	Sololá	719	Santiago Atitlán	14	Cerro de Oro	5	Mayo	2023-05-17T00:00:00	2024-11-08T20:00:00	4	Temperatura máxima	19.9
149483	7	Sololá	719	Santiago Atitlán	14	Cerro de Oro	5	Mayo	2023-05-17T00:00:00	2024-11-08T20:00:00	3	Temperatura mínima	18.9
149484	7	Sololá	719	Santiago Atitlán	14	Cerro de Oro	5	Mayo	2023-05-17T00:00:00	2024-11-08T20:00:00	5	Humedad	91
149485	7	Sololá	719	Santiago Atitlán	14	Cerro de Oro	5	Mayo	2023-05-17T00:00:00	2024-11-08T20:00:00	6	Velocidad del viento	4.8
149486	7	Sololá	719	Santiago Atitlán	14	Cerro de Oro	5	Mayo	2023-05-17T00:00:00	2024-11-08T20:00:00	7	Dirección del viento	4.83
149487	7	Sololá	719	Santiago Atitlán	14	Cerro de Oro	5	Mayo	2023-05-17T00:00:00	2024-11-08T20:00:00	1	Precipitación	0
149488	7	Sololá	719	Santiago Atitlán	14	Cerro de Oro	5	Mayo	2023-05-17T00:00:00	2024-11-08T20:00:00	8	Radiación solar	0
149489	7	Sololá	719	Santiago Atitlán	14	Cerro de Oro	5	Mayo	2023-05-17T00:00:00	2024-11-08T21:00:00	2	Temperatura media	18.4
149490	7	Sololá	719	Santiago Atitlán	14	Cerro de Oro	5	Mayo	2023-05-17T00:00:00	2024-11-08T21:00:00	4	Temperatura máxima	18.9
149491	7	Sololá	719	Santiago Atitlán	14	Cerro de Oro	5	Mayo	2023-05-17T00:00:00	2024-11-08T21:00:00	3	Temperatura mínima	18.3
149492	7	Sololá	719	Santiago Atitlán	14	Cerro de Oro	5	Mayo	2023-05-17T00:00:00	2024-11-08T21:00:00	5	Humedad	91
149493	7	Sololá	719	Santiago Atitlán	14	Cerro de Oro	5	Mayo	2023-05-17T00:00:00	2024-11-08T21:00:00	6	Velocidad del viento	3.2
149494	7	Sololá	719	Santiago Atitlán	14	Cerro de Oro	5	Mayo	2023-05-17T00:00:00	2024-11-08T21:00:00	7	Dirección del viento	3.22
149495	7	Sololá	719	Santiago Atitlán	14	Cerro de Oro	5	Mayo	2023-05-17T00:00:00	2024-11-08T21:00:00	1	Precipitación	0
149496	7	Sololá	719	Santiago Atitlán	14	Cerro de Oro	5	Mayo	2023-05-17T00:00:00	2024-11-08T21:00:00	8	Radiación solar	0
149497	7	Sololá	719	Santiago Atitlán	14	Cerro de Oro	5	Mayo	2023-05-17T00:00:00	2024-11-08T22:00:00	2	Temperatura media	18.2
149498	7	Sololá	719	Santiago Atitlán	14	Cerro de Oro	5	Mayo	2023-05-17T00:00:00	2024-11-08T22:00:00	4	Temperatura máxima	18.7
149499	7	Sololá	719	Santiago Atitlán	14	Cerro de Oro	5	Mayo	2023-05-17T00:00:00	2024-11-08T22:00:00	3	Temperatura mínima	18.2
149500	7	Sololá	719	Santiago Atitlán	14	Cerro de Oro	5	Mayo	2023-05-17T00:00:00	2024-11-08T22:00:00	5	Humedad	91
149501	7	Sololá	719	Santiago Atitlán	14	Cerro de Oro	5	Mayo	2023-05-17T00:00:00	2024-11-08T22:00:00	6	Velocidad del viento	4.8
149502	7	Sololá	719	Santiago Atitlán	14	Cerro de Oro	5	Mayo	2023-05-17T00:00:00	2024-11-08T22:00:00	7	Dirección del viento	4.83
149503	7	Sololá	719	Santiago Atitlán	14	Cerro de Oro	5	Mayo	2023-05-17T00:00:00	2024-11-08T22:00:00	1	Precipitación	0
149504	7	Sololá	719	Santiago Atitlán	14	Cerro de Oro	5	Mayo	2023-05-17T00:00:00	2024-11-08T22:00:00	8	Radiación solar	0
149505	7	Sololá	719	Santiago Atitlán	14	Cerro de Oro	5	Mayo	2023-05-17T00:00:00	2024-11-08T23:00:00	2	Temperatura media	18.3
149506	7	Sololá	719	Santiago Atitlán	14	Cerro de Oro	5	Mayo	2023-05-17T00:00:00	2024-11-08T23:00:00	4	Temperatura máxima	18.6
149507	7	Sololá	719	Santiago Atitlán	14	Cerro de Oro	5	Mayo	2023-05-17T00:00:00	2024-11-08T23:00:00	3	Temperatura mínima	18.2
149508	7	Sololá	719	Santiago Atitlán	14	Cerro de Oro	5	Mayo	2023-05-17T00:00:00	2024-11-08T23:00:00	5	Humedad	90
149509	7	Sololá	719	Santiago Atitlán	14	Cerro de Oro	5	Mayo	2023-05-17T00:00:00	2024-11-08T23:00:00	6	Velocidad del viento	3.2
149510	7	Sololá	719	Santiago Atitlán	14	Cerro de Oro	5	Mayo	2023-05-17T00:00:00	2024-11-08T23:00:00	7	Dirección del viento	3.22
149511	7	Sololá	719	Santiago Atitlán	14	Cerro de Oro	5	Mayo	2023-05-17T00:00:00	2024-11-08T23:00:00	1	Precipitación	0
149512	7	Sololá	719	Santiago Atitlán	14	Cerro de Oro	5	Mayo	2023-05-17T00:00:00	2024-11-08T23:00:00	8	Radiación solar	0
149513	7	Sololá	719	Santiago Atitlán	14	Cerro de Oro	5	Mayo	2023-05-18T00:00:00	2024-11-08T00:00:00	2	Temperatura media	18.6
149514	7	Sololá	719	Santiago Atitlán	14	Cerro de Oro	5	Mayo	2023-05-18T00:00:00	2024-11-08T00:00:00	4	Temperatura máxima	18.6
149515	7	Sololá	719	Santiago Atitlán	14	Cerro de Oro	5	Mayo	2023-05-18T00:00:00	2024-11-08T00:00:00	3	Temperatura mínima	17.9
149516	7	Sololá	719	Santiago Atitlán	14	Cerro de Oro	5	Mayo	2023-05-18T00:00:00	2024-11-08T00:00:00	5	Humedad	90
149517	7	Sololá	719	Santiago Atitlán	14	Cerro de Oro	5	Mayo	2023-05-18T00:00:00	2024-11-08T00:00:00	6	Velocidad del viento	3.2
149518	7	Sololá	719	Santiago Atitlán	14	Cerro de Oro	5	Mayo	2023-05-18T00:00:00	2024-11-08T00:00:00	7	Dirección del viento	3.22
149519	7	Sololá	719	Santiago Atitlán	14	Cerro de Oro	5	Mayo	2023-05-18T00:00:00	2024-11-08T00:00:00	1	Precipitación	0
149520	7	Sololá	719	Santiago Atitlán	14	Cerro de Oro	5	Mayo	2023-05-18T00:00:00	2024-11-08T00:00:00	8	Radiación solar	0
149521	7	Sololá	719	Santiago Atitlán	14	Cerro de Oro	5	Mayo	2023-05-18T00:00:00	2024-11-08T01:00:00	2	Temperatura media	18.4
149522	7	Sololá	719	Santiago Atitlán	14	Cerro de Oro	5	Mayo	2023-05-18T00:00:00	2024-11-08T01:00:00	4	Temperatura máxima	18.7
149523	7	Sololá	719	Santiago Atitlán	14	Cerro de Oro	5	Mayo	2023-05-18T00:00:00	2024-11-08T01:00:00	3	Temperatura mínima	18.4
149524	7	Sololá	719	Santiago Atitlán	14	Cerro de Oro	5	Mayo	2023-05-18T00:00:00	2024-11-08T01:00:00	5	Humedad	91
149525	7	Sololá	719	Santiago Atitlán	14	Cerro de Oro	5	Mayo	2023-05-18T00:00:00	2024-11-08T01:00:00	6	Velocidad del viento	3.2
149526	7	Sololá	719	Santiago Atitlán	14	Cerro de Oro	5	Mayo	2023-05-18T00:00:00	2024-11-08T01:00:00	7	Dirección del viento	3.22
149527	7	Sololá	719	Santiago Atitlán	14	Cerro de Oro	5	Mayo	2023-05-18T00:00:00	2024-11-08T01:00:00	1	Precipitación	0
149528	7	Sololá	719	Santiago Atitlán	14	Cerro de Oro	5	Mayo	2023-05-18T00:00:00	2024-11-08T01:00:00	8	Radiación solar	0
149529	7	Sololá	719	Santiago Atitlán	14	Cerro de Oro	5	Mayo	2023-05-18T00:00:00	2024-11-08T02:00:00	2	Temperatura media	18.4
149530	7	Sololá	719	Santiago Atitlán	14	Cerro de Oro	5	Mayo	2023-05-18T00:00:00	2024-11-08T02:00:00	4	Temperatura máxima	18.5
149531	7	Sololá	719	Santiago Atitlán	14	Cerro de Oro	5	Mayo	2023-05-18T00:00:00	2024-11-08T02:00:00	3	Temperatura mínima	18.3
149532	7	Sololá	719	Santiago Atitlán	14	Cerro de Oro	5	Mayo	2023-05-18T00:00:00	2024-11-08T02:00:00	5	Humedad	90
149533	7	Sololá	719	Santiago Atitlán	14	Cerro de Oro	5	Mayo	2023-05-18T00:00:00	2024-11-08T02:00:00	6	Velocidad del viento	4.8
149534	7	Sololá	719	Santiago Atitlán	14	Cerro de Oro	5	Mayo	2023-05-18T00:00:00	2024-11-08T02:00:00	7	Dirección del viento	4.83
149535	7	Sololá	719	Santiago Atitlán	14	Cerro de Oro	5	Mayo	2023-05-18T00:00:00	2024-11-08T02:00:00	1	Precipitación	0
149536	7	Sololá	719	Santiago Atitlán	14	Cerro de Oro	5	Mayo	2023-05-18T00:00:00	2024-11-08T02:00:00	8	Radiación solar	0
149537	7	Sololá	719	Santiago Atitlán	14	Cerro de Oro	5	Mayo	2023-05-18T00:00:00	2024-11-08T03:00:00	2	Temperatura media	18.2
149538	7	Sololá	719	Santiago Atitlán	14	Cerro de Oro	5	Mayo	2023-05-18T00:00:00	2024-11-08T03:00:00	4	Temperatura máxima	18.7
149539	7	Sololá	719	Santiago Atitlán	14	Cerro de Oro	5	Mayo	2023-05-18T00:00:00	2024-11-08T03:00:00	3	Temperatura mínima	18.2
149540	7	Sololá	719	Santiago Atitlán	14	Cerro de Oro	5	Mayo	2023-05-18T00:00:00	2024-11-08T03:00:00	5	Humedad	90
149541	7	Sololá	719	Santiago Atitlán	14	Cerro de Oro	5	Mayo	2023-05-18T00:00:00	2024-11-08T03:00:00	6	Velocidad del viento	3.2
149542	7	Sololá	719	Santiago Atitlán	14	Cerro de Oro	5	Mayo	2023-05-18T00:00:00	2024-11-08T03:00:00	7	Dirección del viento	3.22
149543	7	Sololá	719	Santiago Atitlán	14	Cerro de Oro	5	Mayo	2023-05-18T00:00:00	2024-11-08T03:00:00	1	Precipitación	0
149544	7	Sololá	719	Santiago Atitlán	14	Cerro de Oro	5	Mayo	2023-05-18T00:00:00	2024-11-08T03:00:00	8	Radiación solar	0
149545	7	Sololá	719	Santiago Atitlán	14	Cerro de Oro	5	Mayo	2023-05-18T00:00:00	2024-11-08T04:00:00	2	Temperatura media	17.8
149546	7	Sololá	719	Santiago Atitlán	14	Cerro de Oro	5	Mayo	2023-05-18T00:00:00	2024-11-08T04:00:00	4	Temperatura máxima	18.2
149547	7	Sololá	719	Santiago Atitlán	14	Cerro de Oro	5	Mayo	2023-05-18T00:00:00	2024-11-08T04:00:00	3	Temperatura mínima	17.6
149548	7	Sololá	719	Santiago Atitlán	14	Cerro de Oro	5	Mayo	2023-05-18T00:00:00	2024-11-08T04:00:00	5	Humedad	90
149549	7	Sololá	719	Santiago Atitlán	14	Cerro de Oro	5	Mayo	2023-05-18T00:00:00	2024-11-08T04:00:00	6	Velocidad del viento	3.2
149550	7	Sololá	719	Santiago Atitlán	14	Cerro de Oro	5	Mayo	2023-05-18T00:00:00	2024-11-08T04:00:00	7	Dirección del viento	3.22
149551	7	Sololá	719	Santiago Atitlán	14	Cerro de Oro	5	Mayo	2023-05-18T00:00:00	2024-11-08T04:00:00	1	Precipitación	0
149552	7	Sololá	719	Santiago Atitlán	14	Cerro de Oro	5	Mayo	2023-05-18T00:00:00	2024-11-08T04:00:00	8	Radiación solar	0
149553	7	Sololá	719	Santiago Atitlán	14	Cerro de Oro	5	Mayo	2023-05-18T00:00:00	2024-11-08T05:00:00	2	Temperatura media	18.1
149554	7	Sololá	719	Santiago Atitlán	14	Cerro de Oro	5	Mayo	2023-05-18T00:00:00	2024-11-08T05:00:00	4	Temperatura máxima	18.1
149555	7	Sololá	719	Santiago Atitlán	14	Cerro de Oro	5	Mayo	2023-05-18T00:00:00	2024-11-08T05:00:00	3	Temperatura mínima	17.6
149556	7	Sololá	719	Santiago Atitlán	14	Cerro de Oro	5	Mayo	2023-05-18T00:00:00	2024-11-08T05:00:00	5	Humedad	86
149557	7	Sololá	719	Santiago Atitlán	14	Cerro de Oro	5	Mayo	2023-05-18T00:00:00	2024-11-08T05:00:00	6	Velocidad del viento	3.2
149558	7	Sololá	719	Santiago Atitlán	14	Cerro de Oro	5	Mayo	2023-05-18T00:00:00	2024-11-08T05:00:00	7	Dirección del viento	3.22
149559	7	Sololá	719	Santiago Atitlán	14	Cerro de Oro	5	Mayo	2023-05-18T00:00:00	2024-11-08T05:00:00	1	Precipitación	0
149560	7	Sololá	719	Santiago Atitlán	14	Cerro de Oro	5	Mayo	2023-05-18T00:00:00	2024-11-08T05:00:00	8	Radiación solar	0
149561	7	Sololá	719	Santiago Atitlán	14	Cerro de Oro	5	Mayo	2023-05-18T00:00:00	2024-11-08T06:00:00	2	Temperatura media	18
149562	7	Sololá	719	Santiago Atitlán	14	Cerro de Oro	5	Mayo	2023-05-18T00:00:00	2024-11-08T06:00:00	4	Temperatura máxima	18.3
149563	7	Sololá	719	Santiago Atitlán	14	Cerro de Oro	5	Mayo	2023-05-18T00:00:00	2024-11-08T06:00:00	3	Temperatura mínima	17.8
149564	7	Sololá	719	Santiago Atitlán	14	Cerro de Oro	5	Mayo	2023-05-18T00:00:00	2024-11-08T06:00:00	5	Humedad	86
149565	7	Sololá	719	Santiago Atitlán	14	Cerro de Oro	5	Mayo	2023-05-18T00:00:00	2024-11-08T06:00:00	6	Velocidad del viento	4.8
149566	7	Sololá	719	Santiago Atitlán	14	Cerro de Oro	5	Mayo	2023-05-18T00:00:00	2024-11-08T06:00:00	7	Dirección del viento	4.83
149567	7	Sololá	719	Santiago Atitlán	14	Cerro de Oro	5	Mayo	2023-05-18T00:00:00	2024-11-08T06:00:00	1	Precipitación	0
149568	7	Sololá	719	Santiago Atitlán	14	Cerro de Oro	5	Mayo	2023-05-18T00:00:00	2024-11-08T06:00:00	8	Radiación solar	0
149569	7	Sololá	719	Santiago Atitlán	14	Cerro de Oro	5	Mayo	2023-05-18T00:00:00	2024-11-08T07:00:00	2	Temperatura media	18.4
149570	7	Sololá	719	Santiago Atitlán	14	Cerro de Oro	5	Mayo	2023-05-18T00:00:00	2024-11-08T07:00:00	4	Temperatura máxima	18.4
149571	7	Sololá	719	Santiago Atitlán	14	Cerro de Oro	5	Mayo	2023-05-18T00:00:00	2024-11-08T07:00:00	3	Temperatura mínima	17.8
149572	7	Sololá	719	Santiago Atitlán	14	Cerro de Oro	5	Mayo	2023-05-18T00:00:00	2024-11-08T07:00:00	5	Humedad	84
149573	7	Sololá	719	Santiago Atitlán	14	Cerro de Oro	5	Mayo	2023-05-18T00:00:00	2024-11-08T07:00:00	6	Velocidad del viento	4.8
149574	7	Sololá	719	Santiago Atitlán	14	Cerro de Oro	5	Mayo	2023-05-18T00:00:00	2024-11-08T07:00:00	7	Dirección del viento	4.83
149575	7	Sololá	719	Santiago Atitlán	14	Cerro de Oro	5	Mayo	2023-05-18T00:00:00	2024-11-08T07:00:00	1	Precipitación	0
149576	7	Sololá	719	Santiago Atitlán	14	Cerro de Oro	5	Mayo	2023-05-18T00:00:00	2024-11-08T07:00:00	8	Radiación solar	6
149577	7	Sololá	719	Santiago Atitlán	14	Cerro de Oro	5	Mayo	2023-05-18T00:00:00	2024-11-08T08:00:00	2	Temperatura media	19
149578	7	Sololá	719	Santiago Atitlán	14	Cerro de Oro	5	Mayo	2023-05-18T00:00:00	2024-11-08T08:00:00	4	Temperatura máxima	19.1
149579	7	Sololá	719	Santiago Atitlán	14	Cerro de Oro	5	Mayo	2023-05-18T00:00:00	2024-11-08T08:00:00	3	Temperatura mínima	18.4
149580	7	Sololá	719	Santiago Atitlán	14	Cerro de Oro	5	Mayo	2023-05-18T00:00:00	2024-11-08T08:00:00	5	Humedad	81
149581	7	Sololá	719	Santiago Atitlán	14	Cerro de Oro	5	Mayo	2023-05-18T00:00:00	2024-11-08T08:00:00	6	Velocidad del viento	3.2
149582	7	Sololá	719	Santiago Atitlán	14	Cerro de Oro	5	Mayo	2023-05-18T00:00:00	2024-11-08T08:00:00	7	Dirección del viento	3.22
149583	7	Sololá	719	Santiago Atitlán	14	Cerro de Oro	5	Mayo	2023-05-18T00:00:00	2024-11-08T08:00:00	1	Precipitación	0
149584	7	Sololá	719	Santiago Atitlán	14	Cerro de Oro	5	Mayo	2023-05-18T00:00:00	2024-11-08T08:00:00	8	Radiación solar	77
149585	7	Sololá	719	Santiago Atitlán	14	Cerro de Oro	5	Mayo	2023-05-18T00:00:00	2024-11-08T09:00:00	2	Temperatura media	21.2
149586	7	Sololá	719	Santiago Atitlán	14	Cerro de Oro	5	Mayo	2023-05-18T00:00:00	2024-11-08T09:00:00	4	Temperatura máxima	21.3
149587	7	Sololá	719	Santiago Atitlán	14	Cerro de Oro	5	Mayo	2023-05-18T00:00:00	2024-11-08T09:00:00	3	Temperatura mínima	19.1
149588	7	Sololá	719	Santiago Atitlán	14	Cerro de Oro	5	Mayo	2023-05-18T00:00:00	2024-11-08T09:00:00	5	Humedad	75
149589	7	Sololá	719	Santiago Atitlán	14	Cerro de Oro	5	Mayo	2023-05-18T00:00:00	2024-11-08T09:00:00	6	Velocidad del viento	3.2
149590	7	Sololá	719	Santiago Atitlán	14	Cerro de Oro	5	Mayo	2023-05-18T00:00:00	2024-11-08T09:00:00	7	Dirección del viento	3.22
149591	7	Sololá	719	Santiago Atitlán	14	Cerro de Oro	5	Mayo	2023-05-18T00:00:00	2024-11-08T09:00:00	1	Precipitación	0
149592	7	Sololá	719	Santiago Atitlán	14	Cerro de Oro	5	Mayo	2023-05-18T00:00:00	2024-11-08T09:00:00	8	Radiación solar	256
149593	7	Sololá	719	Santiago Atitlán	14	Cerro de Oro	5	Mayo	2023-05-18T00:00:00	2024-11-08T10:00:00	2	Temperatura media	21.4
149594	7	Sololá	719	Santiago Atitlán	14	Cerro de Oro	5	Mayo	2023-05-18T00:00:00	2024-11-08T10:00:00	4	Temperatura máxima	21.8
149595	7	Sololá	719	Santiago Atitlán	14	Cerro de Oro	5	Mayo	2023-05-18T00:00:00	2024-11-08T10:00:00	3	Temperatura mínima	21.2
149596	7	Sololá	719	Santiago Atitlán	14	Cerro de Oro	5	Mayo	2023-05-18T00:00:00	2024-11-08T10:00:00	5	Humedad	78
149597	7	Sololá	719	Santiago Atitlán	14	Cerro de Oro	5	Mayo	2023-05-18T00:00:00	2024-11-08T10:00:00	6	Velocidad del viento	3.2
149598	7	Sololá	719	Santiago Atitlán	14	Cerro de Oro	5	Mayo	2023-05-18T00:00:00	2024-11-08T10:00:00	7	Dirección del viento	3.22
149599	7	Sololá	719	Santiago Atitlán	14	Cerro de Oro	5	Mayo	2023-05-18T00:00:00	2024-11-08T10:00:00	1	Precipitación	0
149600	7	Sololá	719	Santiago Atitlán	14	Cerro de Oro	5	Mayo	2023-05-18T00:00:00	2024-11-08T10:00:00	8	Radiación solar	373
149601	7	Sololá	719	Santiago Atitlán	14	Cerro de Oro	5	Mayo	2023-05-18T00:00:00	2024-11-08T11:00:00	2	Temperatura media	22.4
149602	7	Sololá	719	Santiago Atitlán	14	Cerro de Oro	5	Mayo	2023-05-18T00:00:00	2024-11-08T11:00:00	4	Temperatura máxima	22.5
149603	7	Sololá	719	Santiago Atitlán	14	Cerro de Oro	5	Mayo	2023-05-18T00:00:00	2024-11-08T11:00:00	3	Temperatura mínima	21.4
149604	7	Sololá	719	Santiago Atitlán	14	Cerro de Oro	5	Mayo	2023-05-18T00:00:00	2024-11-08T11:00:00	5	Humedad	73
149605	7	Sololá	719	Santiago Atitlán	14	Cerro de Oro	5	Mayo	2023-05-18T00:00:00	2024-11-08T11:00:00	6	Velocidad del viento	4.8
149606	7	Sololá	719	Santiago Atitlán	14	Cerro de Oro	5	Mayo	2023-05-18T00:00:00	2024-11-08T11:00:00	7	Dirección del viento	4.83
149607	7	Sololá	719	Santiago Atitlán	14	Cerro de Oro	5	Mayo	2023-05-18T00:00:00	2024-11-08T11:00:00	1	Precipitación	0
149608	7	Sololá	719	Santiago Atitlán	14	Cerro de Oro	5	Mayo	2023-05-18T00:00:00	2024-11-08T11:00:00	8	Radiación solar	649
149609	7	Sololá	719	Santiago Atitlán	14	Cerro de Oro	5	Mayo	2023-05-18T00:00:00	2024-11-08T12:00:00	2	Temperatura media	23.7
149610	7	Sololá	719	Santiago Atitlán	14	Cerro de Oro	5	Mayo	2023-05-18T00:00:00	2024-11-08T12:00:00	4	Temperatura máxima	23.8
149611	7	Sololá	719	Santiago Atitlán	14	Cerro de Oro	5	Mayo	2023-05-18T00:00:00	2024-11-08T12:00:00	3	Temperatura mínima	22.4
149612	7	Sololá	719	Santiago Atitlán	14	Cerro de Oro	5	Mayo	2023-05-18T00:00:00	2024-11-08T12:00:00	5	Humedad	70
149613	7	Sololá	719	Santiago Atitlán	14	Cerro de Oro	5	Mayo	2023-05-18T00:00:00	2024-11-08T12:00:00	6	Velocidad del viento	4.8
149614	7	Sololá	719	Santiago Atitlán	14	Cerro de Oro	5	Mayo	2023-05-18T00:00:00	2024-11-08T12:00:00	7	Dirección del viento	4.83
149615	7	Sololá	719	Santiago Atitlán	14	Cerro de Oro	5	Mayo	2023-05-18T00:00:00	2024-11-08T12:00:00	1	Precipitación	0
149616	7	Sololá	719	Santiago Atitlán	14	Cerro de Oro	5	Mayo	2023-05-18T00:00:00	2024-11-08T12:00:00	8	Radiación solar	824
149617	7	Sololá	719	Santiago Atitlán	14	Cerro de Oro	5	Mayo	2023-05-18T00:00:00	2024-11-08T13:00:00	2	Temperatura media	24.2
149618	7	Sololá	719	Santiago Atitlán	14	Cerro de Oro	5	Mayo	2023-05-18T00:00:00	2024-11-08T13:00:00	4	Temperatura máxima	24.9
149619	7	Sololá	719	Santiago Atitlán	14	Cerro de Oro	5	Mayo	2023-05-18T00:00:00	2024-11-08T13:00:00	3	Temperatura mínima	23.6
149620	7	Sololá	719	Santiago Atitlán	14	Cerro de Oro	5	Mayo	2023-05-18T00:00:00	2024-11-08T13:00:00	5	Humedad	69
149621	7	Sololá	719	Santiago Atitlán	14	Cerro de Oro	5	Mayo	2023-05-18T00:00:00	2024-11-08T13:00:00	6	Velocidad del viento	11.3
149622	7	Sololá	719	Santiago Atitlán	14	Cerro de Oro	5	Mayo	2023-05-18T00:00:00	2024-11-08T13:00:00	7	Dirección del viento	11.27
149623	7	Sololá	719	Santiago Atitlán	14	Cerro de Oro	5	Mayo	2023-05-18T00:00:00	2024-11-08T13:00:00	1	Precipitación	0
149624	7	Sololá	719	Santiago Atitlán	14	Cerro de Oro	5	Mayo	2023-05-18T00:00:00	2024-11-08T13:00:00	8	Radiación solar	909
149625	7	Sololá	719	Santiago Atitlán	14	Cerro de Oro	5	Mayo	2023-05-18T00:00:00	2024-11-08T14:00:00	2	Temperatura media	24.8
149626	7	Sololá	719	Santiago Atitlán	14	Cerro de Oro	5	Mayo	2023-05-18T00:00:00	2024-11-08T14:00:00	4	Temperatura máxima	24.9
149627	7	Sololá	719	Santiago Atitlán	14	Cerro de Oro	5	Mayo	2023-05-18T00:00:00	2024-11-08T14:00:00	3	Temperatura mínima	24.2
149628	7	Sololá	719	Santiago Atitlán	14	Cerro de Oro	5	Mayo	2023-05-18T00:00:00	2024-11-08T14:00:00	5	Humedad	70
149629	7	Sololá	719	Santiago Atitlán	14	Cerro de Oro	5	Mayo	2023-05-18T00:00:00	2024-11-08T14:00:00	6	Velocidad del viento	11.3
149630	7	Sololá	719	Santiago Atitlán	14	Cerro de Oro	5	Mayo	2023-05-18T00:00:00	2024-11-08T14:00:00	7	Dirección del viento	11.27
149631	7	Sololá	719	Santiago Atitlán	14	Cerro de Oro	5	Mayo	2023-05-18T00:00:00	2024-11-08T14:00:00	1	Precipitación	0
149632	7	Sololá	719	Santiago Atitlán	14	Cerro de Oro	5	Mayo	2023-05-18T00:00:00	2024-11-08T14:00:00	8	Radiación solar	915
149633	7	Sololá	719	Santiago Atitlán	14	Cerro de Oro	5	Mayo	2023-05-18T00:00:00	2024-11-08T15:00:00	2	Temperatura media	24.2
149634	7	Sololá	719	Santiago Atitlán	14	Cerro de Oro	5	Mayo	2023-05-18T00:00:00	2024-11-08T15:00:00	4	Temperatura máxima	25.2
149635	7	Sololá	719	Santiago Atitlán	14	Cerro de Oro	5	Mayo	2023-05-18T00:00:00	2024-11-08T15:00:00	3	Temperatura mínima	24
149636	7	Sololá	719	Santiago Atitlán	14	Cerro de Oro	5	Mayo	2023-05-18T00:00:00	2024-11-08T15:00:00	5	Humedad	73
149637	7	Sololá	719	Santiago Atitlán	14	Cerro de Oro	5	Mayo	2023-05-18T00:00:00	2024-11-08T15:00:00	6	Velocidad del viento	12.9
149638	7	Sololá	719	Santiago Atitlán	14	Cerro de Oro	5	Mayo	2023-05-18T00:00:00	2024-11-08T15:00:00	7	Dirección del viento	12.87
149639	7	Sololá	719	Santiago Atitlán	14	Cerro de Oro	5	Mayo	2023-05-18T00:00:00	2024-11-08T15:00:00	1	Precipitación	0
149640	7	Sololá	719	Santiago Atitlán	14	Cerro de Oro	5	Mayo	2023-05-18T00:00:00	2024-11-08T15:00:00	8	Radiación solar	651
149641	7	Sololá	719	Santiago Atitlán	14	Cerro de Oro	5	Mayo	2023-05-18T00:00:00	2024-11-08T16:00:00	2	Temperatura media	24.1
149642	7	Sololá	719	Santiago Atitlán	14	Cerro de Oro	5	Mayo	2023-05-18T00:00:00	2024-11-08T16:00:00	4	Temperatura máxima	24.4
149643	7	Sololá	719	Santiago Atitlán	14	Cerro de Oro	5	Mayo	2023-05-18T00:00:00	2024-11-08T16:00:00	3	Temperatura mínima	23.8
149644	7	Sololá	719	Santiago Atitlán	14	Cerro de Oro	5	Mayo	2023-05-18T00:00:00	2024-11-08T16:00:00	5	Humedad	76
149645	7	Sololá	719	Santiago Atitlán	14	Cerro de Oro	5	Mayo	2023-05-18T00:00:00	2024-11-08T16:00:00	6	Velocidad del viento	11.3
149646	7	Sololá	719	Santiago Atitlán	14	Cerro de Oro	5	Mayo	2023-05-18T00:00:00	2024-11-08T16:00:00	7	Dirección del viento	11.27
149647	7	Sololá	719	Santiago Atitlán	14	Cerro de Oro	5	Mayo	2023-05-18T00:00:00	2024-11-08T16:00:00	1	Precipitación	0
149648	7	Sololá	719	Santiago Atitlán	14	Cerro de Oro	5	Mayo	2023-05-18T00:00:00	2024-11-08T16:00:00	8	Radiación solar	482
149649	7	Sololá	719	Santiago Atitlán	14	Cerro de Oro	5	Mayo	2023-05-18T00:00:00	2024-11-08T17:00:00	2	Temperatura media	23.7
149650	7	Sololá	719	Santiago Atitlán	14	Cerro de Oro	5	Mayo	2023-05-18T00:00:00	2024-11-08T17:00:00	4	Temperatura máxima	24.3
149651	7	Sololá	719	Santiago Atitlán	14	Cerro de Oro	5	Mayo	2023-05-18T00:00:00	2024-11-08T17:00:00	3	Temperatura mínima	23.3
149652	7	Sololá	719	Santiago Atitlán	14	Cerro de Oro	5	Mayo	2023-05-18T00:00:00	2024-11-08T17:00:00	5	Humedad	76
149653	7	Sololá	719	Santiago Atitlán	14	Cerro de Oro	5	Mayo	2023-05-18T00:00:00	2024-11-08T17:00:00	6	Velocidad del viento	11.3
149654	7	Sololá	719	Santiago Atitlán	14	Cerro de Oro	5	Mayo	2023-05-18T00:00:00	2024-11-08T17:00:00	7	Dirección del viento	11.27
149655	7	Sololá	719	Santiago Atitlán	14	Cerro de Oro	5	Mayo	2023-05-18T00:00:00	2024-11-08T17:00:00	1	Precipitación	0
149656	7	Sololá	719	Santiago Atitlán	14	Cerro de Oro	5	Mayo	2023-05-18T00:00:00	2024-11-08T17:00:00	8	Radiación solar	413
149657	7	Sololá	719	Santiago Atitlán	14	Cerro de Oro	5	Mayo	2023-05-18T00:00:00	2024-11-08T18:00:00	2	Temperatura media	21.9
149658	7	Sololá	719	Santiago Atitlán	14	Cerro de Oro	5	Mayo	2023-05-18T00:00:00	2024-11-08T18:00:00	4	Temperatura máxima	23.7
149659	7	Sololá	719	Santiago Atitlán	14	Cerro de Oro	5	Mayo	2023-05-18T00:00:00	2024-11-08T18:00:00	3	Temperatura mínima	21.9
149660	7	Sololá	719	Santiago Atitlán	14	Cerro de Oro	5	Mayo	2023-05-18T00:00:00	2024-11-08T18:00:00	5	Humedad	84
149661	7	Sololá	719	Santiago Atitlán	14	Cerro de Oro	5	Mayo	2023-05-18T00:00:00	2024-11-08T18:00:00	6	Velocidad del viento	9.7
149662	7	Sololá	719	Santiago Atitlán	14	Cerro de Oro	5	Mayo	2023-05-18T00:00:00	2024-11-08T18:00:00	7	Dirección del viento	9.66
149663	7	Sololá	719	Santiago Atitlán	14	Cerro de Oro	5	Mayo	2023-05-18T00:00:00	2024-11-08T18:00:00	1	Precipitación	0
149664	7	Sololá	719	Santiago Atitlán	14	Cerro de Oro	5	Mayo	2023-05-18T00:00:00	2024-11-08T18:00:00	8	Radiación solar	105
149665	7	Sololá	719	Santiago Atitlán	14	Cerro de Oro	5	Mayo	2023-05-18T00:00:00	2024-11-08T19:00:00	2	Temperatura media	21.2
149666	7	Sololá	719	Santiago Atitlán	14	Cerro de Oro	5	Mayo	2023-05-18T00:00:00	2024-11-08T19:00:00	4	Temperatura máxima	21.9
149667	7	Sololá	719	Santiago Atitlán	14	Cerro de Oro	5	Mayo	2023-05-18T00:00:00	2024-11-08T19:00:00	3	Temperatura mínima	21.1
149668	7	Sololá	719	Santiago Atitlán	14	Cerro de Oro	5	Mayo	2023-05-18T00:00:00	2024-11-08T19:00:00	5	Humedad	86
149669	7	Sololá	719	Santiago Atitlán	14	Cerro de Oro	5	Mayo	2023-05-18T00:00:00	2024-11-08T19:00:00	6	Velocidad del viento	8
149670	7	Sololá	719	Santiago Atitlán	14	Cerro de Oro	5	Mayo	2023-05-18T00:00:00	2024-11-08T19:00:00	7	Dirección del viento	8.05
149671	7	Sololá	719	Santiago Atitlán	14	Cerro de Oro	5	Mayo	2023-05-18T00:00:00	2024-11-08T19:00:00	1	Precipitación	0
149672	7	Sololá	719	Santiago Atitlán	14	Cerro de Oro	5	Mayo	2023-05-18T00:00:00	2024-11-08T19:00:00	8	Radiación solar	0
149673	7	Sololá	719	Santiago Atitlán	14	Cerro de Oro	5	Mayo	2023-05-18T00:00:00	2024-11-08T20:00:00	2	Temperatura media	21.1
149674	7	Sololá	719	Santiago Atitlán	14	Cerro de Oro	5	Mayo	2023-05-18T00:00:00	2024-11-08T20:00:00	4	Temperatura máxima	21.4
149675	7	Sololá	719	Santiago Atitlán	14	Cerro de Oro	5	Mayo	2023-05-18T00:00:00	2024-11-08T20:00:00	3	Temperatura mínima	21.1
149676	7	Sololá	719	Santiago Atitlán	14	Cerro de Oro	5	Mayo	2023-05-18T00:00:00	2024-11-08T20:00:00	5	Humedad	86
149677	7	Sololá	719	Santiago Atitlán	14	Cerro de Oro	5	Mayo	2023-05-18T00:00:00	2024-11-08T20:00:00	6	Velocidad del viento	3.2
149678	7	Sololá	719	Santiago Atitlán	14	Cerro de Oro	5	Mayo	2023-05-18T00:00:00	2024-11-08T20:00:00	7	Dirección del viento	3.22
149679	7	Sololá	719	Santiago Atitlán	14	Cerro de Oro	5	Mayo	2023-05-18T00:00:00	2024-11-08T20:00:00	1	Precipitación	0
149680	7	Sololá	719	Santiago Atitlán	14	Cerro de Oro	5	Mayo	2023-05-18T00:00:00	2024-11-08T20:00:00	8	Radiación solar	0
149681	7	Sololá	719	Santiago Atitlán	14	Cerro de Oro	5	Mayo	2023-05-18T00:00:00	2024-11-08T21:00:00	2	Temperatura media	20.5
149682	7	Sololá	719	Santiago Atitlán	14	Cerro de Oro	5	Mayo	2023-05-18T00:00:00	2024-11-08T21:00:00	4	Temperatura máxima	21.2
149683	7	Sololá	719	Santiago Atitlán	14	Cerro de Oro	5	Mayo	2023-05-18T00:00:00	2024-11-08T21:00:00	3	Temperatura mínima	20.4
149684	7	Sololá	719	Santiago Atitlán	14	Cerro de Oro	5	Mayo	2023-05-18T00:00:00	2024-11-08T21:00:00	5	Humedad	87
149685	7	Sololá	719	Santiago Atitlán	14	Cerro de Oro	5	Mayo	2023-05-18T00:00:00	2024-11-08T21:00:00	6	Velocidad del viento	3.2
149686	7	Sololá	719	Santiago Atitlán	14	Cerro de Oro	5	Mayo	2023-05-18T00:00:00	2024-11-08T21:00:00	7	Dirección del viento	3.22
149687	7	Sololá	719	Santiago Atitlán	14	Cerro de Oro	5	Mayo	2023-05-18T00:00:00	2024-11-08T21:00:00	1	Precipitación	0
149688	7	Sololá	719	Santiago Atitlán	14	Cerro de Oro	5	Mayo	2023-05-18T00:00:00	2024-11-08T21:00:00	8	Radiación solar	0
149689	7	Sololá	719	Santiago Atitlán	14	Cerro de Oro	5	Mayo	2023-05-18T00:00:00	2024-11-08T22:00:00	2	Temperatura media	20
149690	7	Sololá	719	Santiago Atitlán	14	Cerro de Oro	5	Mayo	2023-05-18T00:00:00	2024-11-08T22:00:00	4	Temperatura máxima	20.5
149691	7	Sololá	719	Santiago Atitlán	14	Cerro de Oro	5	Mayo	2023-05-18T00:00:00	2024-11-08T22:00:00	3	Temperatura mínima	19.9
149692	7	Sololá	719	Santiago Atitlán	14	Cerro de Oro	5	Mayo	2023-05-18T00:00:00	2024-11-08T22:00:00	5	Humedad	88
149693	7	Sololá	719	Santiago Atitlán	14	Cerro de Oro	5	Mayo	2023-05-18T00:00:00	2024-11-08T22:00:00	6	Velocidad del viento	3.2
149694	7	Sololá	719	Santiago Atitlán	14	Cerro de Oro	5	Mayo	2023-05-18T00:00:00	2024-11-08T22:00:00	7	Dirección del viento	3.22
149695	7	Sololá	719	Santiago Atitlán	14	Cerro de Oro	5	Mayo	2023-05-18T00:00:00	2024-11-08T22:00:00	1	Precipitación	0
149696	7	Sololá	719	Santiago Atitlán	14	Cerro de Oro	5	Mayo	2023-05-18T00:00:00	2024-11-08T22:00:00	8	Radiación solar	0
149697	7	Sololá	719	Santiago Atitlán	14	Cerro de Oro	5	Mayo	2023-05-18T00:00:00	2024-11-08T23:00:00	2	Temperatura media	20.1
149698	7	Sololá	719	Santiago Atitlán	14	Cerro de Oro	5	Mayo	2023-05-18T00:00:00	2024-11-08T23:00:00	4	Temperatura máxima	20.1
149699	7	Sololá	719	Santiago Atitlán	14	Cerro de Oro	5	Mayo	2023-05-18T00:00:00	2024-11-08T23:00:00	3	Temperatura mínima	19.7
149700	7	Sololá	719	Santiago Atitlán	14	Cerro de Oro	5	Mayo	2023-05-18T00:00:00	2024-11-08T23:00:00	5	Humedad	82
149701	7	Sololá	719	Santiago Atitlán	14	Cerro de Oro	5	Mayo	2023-05-18T00:00:00	2024-11-08T23:00:00	6	Velocidad del viento	4.8
149702	7	Sololá	719	Santiago Atitlán	14	Cerro de Oro	5	Mayo	2023-05-18T00:00:00	2024-11-08T23:00:00	7	Dirección del viento	4.83
149703	7	Sololá	719	Santiago Atitlán	14	Cerro de Oro	5	Mayo	2023-05-18T00:00:00	2024-11-08T23:00:00	1	Precipitación	0
149704	7	Sololá	719	Santiago Atitlán	14	Cerro de Oro	5	Mayo	2023-05-18T00:00:00	2024-11-08T23:00:00	8	Radiación solar	0
149705	7	Sololá	719	Santiago Atitlán	14	Cerro de Oro	5	Mayo	2023-05-19T00:00:00	2024-11-08T00:00:00	2	Temperatura media	20.1
149706	7	Sololá	719	Santiago Atitlán	14	Cerro de Oro	5	Mayo	2023-05-19T00:00:00	2024-11-08T00:00:00	4	Temperatura máxima	20.6
149707	7	Sololá	719	Santiago Atitlán	14	Cerro de Oro	5	Mayo	2023-05-19T00:00:00	2024-11-08T00:00:00	3	Temperatura mínima	20.1
149708	7	Sololá	719	Santiago Atitlán	14	Cerro de Oro	5	Mayo	2023-05-19T00:00:00	2024-11-08T00:00:00	5	Humedad	78
149709	7	Sololá	719	Santiago Atitlán	14	Cerro de Oro	5	Mayo	2023-05-19T00:00:00	2024-11-08T00:00:00	6	Velocidad del viento	3.2
149710	7	Sololá	719	Santiago Atitlán	14	Cerro de Oro	5	Mayo	2023-05-19T00:00:00	2024-11-08T00:00:00	7	Dirección del viento	3.22
149711	7	Sololá	719	Santiago Atitlán	14	Cerro de Oro	5	Mayo	2023-05-19T00:00:00	2024-11-08T00:00:00	1	Precipitación	0
149712	7	Sololá	719	Santiago Atitlán	14	Cerro de Oro	5	Mayo	2023-05-19T00:00:00	2024-11-08T00:00:00	8	Radiación solar	0
149713	7	Sololá	719	Santiago Atitlán	14	Cerro de Oro	5	Mayo	2023-05-19T00:00:00	2024-11-08T01:00:00	2	Temperatura media	20
149714	7	Sololá	719	Santiago Atitlán	14	Cerro de Oro	5	Mayo	2023-05-19T00:00:00	2024-11-08T01:00:00	4	Temperatura máxima	20.2
149715	7	Sololá	719	Santiago Atitlán	14	Cerro de Oro	5	Mayo	2023-05-19T00:00:00	2024-11-08T01:00:00	3	Temperatura mínima	19.8
149716	7	Sololá	719	Santiago Atitlán	14	Cerro de Oro	5	Mayo	2023-05-19T00:00:00	2024-11-08T01:00:00	5	Humedad	79
149717	7	Sololá	719	Santiago Atitlán	14	Cerro de Oro	5	Mayo	2023-05-19T00:00:00	2024-11-08T01:00:00	6	Velocidad del viento	6.4
149718	7	Sololá	719	Santiago Atitlán	14	Cerro de Oro	5	Mayo	2023-05-19T00:00:00	2024-11-08T01:00:00	7	Dirección del viento	6.44
149719	7	Sololá	719	Santiago Atitlán	14	Cerro de Oro	5	Mayo	2023-05-19T00:00:00	2024-11-08T01:00:00	1	Precipitación	0
149720	7	Sololá	719	Santiago Atitlán	14	Cerro de Oro	5	Mayo	2023-05-19T00:00:00	2024-11-08T01:00:00	8	Radiación solar	0
149721	7	Sololá	719	Santiago Atitlán	14	Cerro de Oro	5	Mayo	2023-05-19T00:00:00	2024-11-08T02:00:00	2	Temperatura media	20.1
149722	7	Sololá	719	Santiago Atitlán	14	Cerro de Oro	5	Mayo	2023-05-19T00:00:00	2024-11-08T02:00:00	4	Temperatura máxima	20.4
149723	7	Sololá	719	Santiago Atitlán	14	Cerro de Oro	5	Mayo	2023-05-19T00:00:00	2024-11-08T02:00:00	3	Temperatura mínima	19.9
149724	7	Sololá	719	Santiago Atitlán	14	Cerro de Oro	5	Mayo	2023-05-19T00:00:00	2024-11-08T02:00:00	5	Humedad	75
149725	7	Sololá	719	Santiago Atitlán	14	Cerro de Oro	5	Mayo	2023-05-19T00:00:00	2024-11-08T02:00:00	6	Velocidad del viento	4.8
149726	7	Sololá	719	Santiago Atitlán	14	Cerro de Oro	5	Mayo	2023-05-19T00:00:00	2024-11-08T02:00:00	7	Dirección del viento	4.83
149727	7	Sololá	719	Santiago Atitlán	14	Cerro de Oro	5	Mayo	2023-05-19T00:00:00	2024-11-08T02:00:00	1	Precipitación	0
149728	7	Sololá	719	Santiago Atitlán	14	Cerro de Oro	5	Mayo	2023-05-19T00:00:00	2024-11-08T02:00:00	8	Radiación solar	0
149729	7	Sololá	719	Santiago Atitlán	14	Cerro de Oro	5	Mayo	2023-05-19T00:00:00	2024-11-08T03:00:00	2	Temperatura media	19.1
149730	7	Sololá	719	Santiago Atitlán	14	Cerro de Oro	5	Mayo	2023-05-19T00:00:00	2024-11-08T03:00:00	4	Temperatura máxima	20.1
149731	7	Sololá	719	Santiago Atitlán	14	Cerro de Oro	5	Mayo	2023-05-19T00:00:00	2024-11-08T03:00:00	3	Temperatura mínima	19.1
149732	7	Sololá	719	Santiago Atitlán	14	Cerro de Oro	5	Mayo	2023-05-19T00:00:00	2024-11-08T03:00:00	5	Humedad	81
149733	7	Sololá	719	Santiago Atitlán	14	Cerro de Oro	5	Mayo	2023-05-19T00:00:00	2024-11-08T03:00:00	6	Velocidad del viento	4.8
149734	7	Sololá	719	Santiago Atitlán	14	Cerro de Oro	5	Mayo	2023-05-19T00:00:00	2024-11-08T03:00:00	7	Dirección del viento	4.83
149735	7	Sololá	719	Santiago Atitlán	14	Cerro de Oro	5	Mayo	2023-05-19T00:00:00	2024-11-08T03:00:00	1	Precipitación	0
149736	7	Sololá	719	Santiago Atitlán	14	Cerro de Oro	5	Mayo	2023-05-19T00:00:00	2024-11-08T03:00:00	8	Radiación solar	0
149737	7	Sololá	719	Santiago Atitlán	14	Cerro de Oro	5	Mayo	2023-05-19T00:00:00	2024-11-08T04:00:00	2	Temperatura media	19.6
149738	7	Sololá	719	Santiago Atitlán	14	Cerro de Oro	5	Mayo	2023-05-19T00:00:00	2024-11-08T04:00:00	4	Temperatura máxima	19.6
149739	7	Sololá	719	Santiago Atitlán	14	Cerro de Oro	5	Mayo	2023-05-19T00:00:00	2024-11-08T04:00:00	3	Temperatura mínima	19.1
149740	7	Sololá	719	Santiago Atitlán	14	Cerro de Oro	5	Mayo	2023-05-19T00:00:00	2024-11-08T04:00:00	5	Humedad	81
149741	7	Sololá	719	Santiago Atitlán	14	Cerro de Oro	5	Mayo	2023-05-19T00:00:00	2024-11-08T04:00:00	6	Velocidad del viento	4.8
149742	7	Sololá	719	Santiago Atitlán	14	Cerro de Oro	5	Mayo	2023-05-19T00:00:00	2024-11-08T04:00:00	7	Dirección del viento	4.83
149743	7	Sololá	719	Santiago Atitlán	14	Cerro de Oro	5	Mayo	2023-05-19T00:00:00	2024-11-08T04:00:00	1	Precipitación	0
149744	7	Sololá	719	Santiago Atitlán	14	Cerro de Oro	5	Mayo	2023-05-19T00:00:00	2024-11-08T04:00:00	8	Radiación solar	0
149745	7	Sololá	719	Santiago Atitlán	14	Cerro de Oro	5	Mayo	2023-05-19T00:00:00	2024-11-08T05:00:00	2	Temperatura media	19.3
149746	7	Sololá	719	Santiago Atitlán	14	Cerro de Oro	5	Mayo	2023-05-19T00:00:00	2024-11-08T05:00:00	4	Temperatura máxima	19.8
149747	7	Sololá	719	Santiago Atitlán	14	Cerro de Oro	5	Mayo	2023-05-19T00:00:00	2024-11-08T05:00:00	3	Temperatura mínima	18.9
149748	7	Sololá	719	Santiago Atitlán	14	Cerro de Oro	5	Mayo	2023-05-19T00:00:00	2024-11-08T05:00:00	5	Humedad	81
149749	7	Sololá	719	Santiago Atitlán	14	Cerro de Oro	5	Mayo	2023-05-19T00:00:00	2024-11-08T05:00:00	6	Velocidad del viento	3.2
149750	7	Sololá	719	Santiago Atitlán	14	Cerro de Oro	5	Mayo	2023-05-19T00:00:00	2024-11-08T05:00:00	7	Dirección del viento	3.22
149751	7	Sololá	719	Santiago Atitlán	14	Cerro de Oro	5	Mayo	2023-05-19T00:00:00	2024-11-08T05:00:00	1	Precipitación	0
149752	7	Sololá	719	Santiago Atitlán	14	Cerro de Oro	5	Mayo	2023-05-19T00:00:00	2024-11-08T05:00:00	8	Radiación solar	0
149753	7	Sololá	719	Santiago Atitlán	14	Cerro de Oro	5	Mayo	2023-05-19T00:00:00	2024-11-08T06:00:00	2	Temperatura media	19.3
149754	7	Sololá	719	Santiago Atitlán	14	Cerro de Oro	5	Mayo	2023-05-19T00:00:00	2024-11-08T06:00:00	4	Temperatura máxima	20.2
149755	7	Sololá	719	Santiago Atitlán	14	Cerro de Oro	5	Mayo	2023-05-19T00:00:00	2024-11-08T06:00:00	3	Temperatura mínima	19.3
149756	7	Sololá	719	Santiago Atitlán	14	Cerro de Oro	5	Mayo	2023-05-19T00:00:00	2024-11-08T06:00:00	5	Humedad	80
149757	7	Sololá	719	Santiago Atitlán	14	Cerro de Oro	5	Mayo	2023-05-19T00:00:00	2024-11-08T06:00:00	6	Velocidad del viento	4.8
149758	7	Sololá	719	Santiago Atitlán	14	Cerro de Oro	5	Mayo	2023-05-19T00:00:00	2024-11-08T06:00:00	7	Dirección del viento	4.83
149759	7	Sololá	719	Santiago Atitlán	14	Cerro de Oro	5	Mayo	2023-05-19T00:00:00	2024-11-08T06:00:00	1	Precipitación	0
149760	7	Sololá	719	Santiago Atitlán	14	Cerro de Oro	5	Mayo	2023-05-19T00:00:00	2024-11-08T06:00:00	8	Radiación solar	0
149761	7	Sololá	719	Santiago Atitlán	14	Cerro de Oro	5	Mayo	2023-05-19T00:00:00	2024-11-08T07:00:00	2	Temperatura media	19.8
149762	7	Sololá	719	Santiago Atitlán	14	Cerro de Oro	5	Mayo	2023-05-19T00:00:00	2024-11-08T07:00:00	4	Temperatura máxima	19.8
149763	7	Sololá	719	Santiago Atitlán	14	Cerro de Oro	5	Mayo	2023-05-19T00:00:00	2024-11-08T07:00:00	3	Temperatura mínima	18.7
149764	7	Sololá	719	Santiago Atitlán	14	Cerro de Oro	5	Mayo	2023-05-19T00:00:00	2024-11-08T07:00:00	5	Humedad	77
149765	7	Sololá	719	Santiago Atitlán	14	Cerro de Oro	5	Mayo	2023-05-19T00:00:00	2024-11-08T07:00:00	6	Velocidad del viento	4.8
149766	7	Sololá	719	Santiago Atitlán	14	Cerro de Oro	5	Mayo	2023-05-19T00:00:00	2024-11-08T07:00:00	7	Dirección del viento	4.83
149767	7	Sololá	719	Santiago Atitlán	14	Cerro de Oro	5	Mayo	2023-05-19T00:00:00	2024-11-08T07:00:00	1	Precipitación	0
149768	7	Sololá	719	Santiago Atitlán	14	Cerro de Oro	5	Mayo	2023-05-19T00:00:00	2024-11-08T07:00:00	8	Radiación solar	6
149769	7	Sololá	719	Santiago Atitlán	14	Cerro de Oro	5	Mayo	2023-05-19T00:00:00	2024-11-08T08:00:00	2	Temperatura media	21.8
149770	7	Sololá	719	Santiago Atitlán	14	Cerro de Oro	5	Mayo	2023-05-19T00:00:00	2024-11-08T08:00:00	4	Temperatura máxima	21.8
149771	7	Sololá	719	Santiago Atitlán	14	Cerro de Oro	5	Mayo	2023-05-19T00:00:00	2024-11-08T08:00:00	3	Temperatura mínima	19.8
149772	7	Sololá	719	Santiago Atitlán	14	Cerro de Oro	5	Mayo	2023-05-19T00:00:00	2024-11-08T08:00:00	5	Humedad	70
149773	7	Sololá	719	Santiago Atitlán	14	Cerro de Oro	5	Mayo	2023-05-19T00:00:00	2024-11-08T08:00:00	6	Velocidad del viento	4.8
149774	7	Sololá	719	Santiago Atitlán	14	Cerro de Oro	5	Mayo	2023-05-19T00:00:00	2024-11-08T08:00:00	7	Dirección del viento	4.83
149775	7	Sololá	719	Santiago Atitlán	14	Cerro de Oro	5	Mayo	2023-05-19T00:00:00	2024-11-08T08:00:00	1	Precipitación	0
149776	7	Sololá	719	Santiago Atitlán	14	Cerro de Oro	5	Mayo	2023-05-19T00:00:00	2024-11-08T08:00:00	8	Radiación solar	102
149777	7	Sololá	719	Santiago Atitlán	14	Cerro de Oro	5	Mayo	2023-05-19T00:00:00	2024-11-08T09:00:00	2	Temperatura media	23.2
149778	7	Sololá	719	Santiago Atitlán	14	Cerro de Oro	5	Mayo	2023-05-19T00:00:00	2024-11-08T09:00:00	4	Temperatura máxima	23.3
149779	7	Sololá	719	Santiago Atitlán	14	Cerro de Oro	5	Mayo	2023-05-19T00:00:00	2024-11-08T09:00:00	3	Temperatura mínima	21.8
149780	7	Sololá	719	Santiago Atitlán	14	Cerro de Oro	5	Mayo	2023-05-19T00:00:00	2024-11-08T09:00:00	5	Humedad	61
149781	7	Sololá	719	Santiago Atitlán	14	Cerro de Oro	5	Mayo	2023-05-19T00:00:00	2024-11-08T09:00:00	6	Velocidad del viento	4.8
149782	7	Sololá	719	Santiago Atitlán	14	Cerro de Oro	5	Mayo	2023-05-19T00:00:00	2024-11-08T09:00:00	7	Dirección del viento	4.83
149783	7	Sololá	719	Santiago Atitlán	14	Cerro de Oro	5	Mayo	2023-05-19T00:00:00	2024-11-08T09:00:00	1	Precipitación	0
149784	7	Sololá	719	Santiago Atitlán	14	Cerro de Oro	5	Mayo	2023-05-19T00:00:00	2024-11-08T09:00:00	8	Radiación solar	308
149785	7	Sololá	719	Santiago Atitlán	14	Cerro de Oro	5	Mayo	2023-05-19T00:00:00	2024-11-08T10:00:00	2	Temperatura media	24.6
149786	7	Sololá	719	Santiago Atitlán	14	Cerro de Oro	5	Mayo	2023-05-19T00:00:00	2024-11-08T10:00:00	4	Temperatura máxima	24.7
149787	7	Sololá	719	Santiago Atitlán	14	Cerro de Oro	5	Mayo	2023-05-19T00:00:00	2024-11-08T10:00:00	3	Temperatura mínima	23.2
149788	7	Sololá	719	Santiago Atitlán	14	Cerro de Oro	5	Mayo	2023-05-19T00:00:00	2024-11-08T10:00:00	5	Humedad	57
149789	7	Sololá	719	Santiago Atitlán	14	Cerro de Oro	5	Mayo	2023-05-19T00:00:00	2024-11-08T10:00:00	6	Velocidad del viento	3.2
149790	7	Sololá	719	Santiago Atitlán	14	Cerro de Oro	5	Mayo	2023-05-19T00:00:00	2024-11-08T10:00:00	7	Dirección del viento	3.22
149791	7	Sololá	719	Santiago Atitlán	14	Cerro de Oro	5	Mayo	2023-05-19T00:00:00	2024-11-08T10:00:00	1	Precipitación	0
149792	7	Sololá	719	Santiago Atitlán	14	Cerro de Oro	5	Mayo	2023-05-19T00:00:00	2024-11-08T10:00:00	8	Radiación solar	542
149793	7	Sololá	719	Santiago Atitlán	14	Cerro de Oro	5	Mayo	2023-05-19T00:00:00	2024-11-08T11:00:00	2	Temperatura media	25.9
149794	7	Sololá	719	Santiago Atitlán	14	Cerro de Oro	5	Mayo	2023-05-19T00:00:00	2024-11-08T11:00:00	4	Temperatura máxima	25.9
149795	7	Sololá	719	Santiago Atitlán	14	Cerro de Oro	5	Mayo	2023-05-19T00:00:00	2024-11-08T11:00:00	3	Temperatura mínima	24.5
149796	7	Sololá	719	Santiago Atitlán	14	Cerro de Oro	5	Mayo	2023-05-19T00:00:00	2024-11-08T11:00:00	5	Humedad	47
149797	7	Sololá	719	Santiago Atitlán	14	Cerro de Oro	5	Mayo	2023-05-19T00:00:00	2024-11-08T11:00:00	6	Velocidad del viento	3.2
149798	7	Sololá	719	Santiago Atitlán	14	Cerro de Oro	5	Mayo	2023-05-19T00:00:00	2024-11-08T11:00:00	7	Dirección del viento	3.22
149799	7	Sololá	719	Santiago Atitlán	14	Cerro de Oro	5	Mayo	2023-05-19T00:00:00	2024-11-08T11:00:00	1	Precipitación	0
149800	7	Sololá	719	Santiago Atitlán	14	Cerro de Oro	5	Mayo	2023-05-19T00:00:00	2024-11-08T11:00:00	8	Radiación solar	718
149801	7	Sololá	719	Santiago Atitlán	14	Cerro de Oro	5	Mayo	2023-05-19T00:00:00	2024-11-08T12:00:00	2	Temperatura media	27
149802	7	Sololá	719	Santiago Atitlán	14	Cerro de Oro	5	Mayo	2023-05-19T00:00:00	2024-11-08T12:00:00	4	Temperatura máxima	27
149803	7	Sololá	719	Santiago Atitlán	14	Cerro de Oro	5	Mayo	2023-05-19T00:00:00	2024-11-08T12:00:00	3	Temperatura mínima	25.8
149804	7	Sololá	719	Santiago Atitlán	14	Cerro de Oro	5	Mayo	2023-05-19T00:00:00	2024-11-08T12:00:00	5	Humedad	51
149805	7	Sololá	719	Santiago Atitlán	14	Cerro de Oro	5	Mayo	2023-05-19T00:00:00	2024-11-08T12:00:00	6	Velocidad del viento	6.4
149806	7	Sololá	719	Santiago Atitlán	14	Cerro de Oro	5	Mayo	2023-05-19T00:00:00	2024-11-08T12:00:00	7	Dirección del viento	6.44
149807	7	Sololá	719	Santiago Atitlán	14	Cerro de Oro	5	Mayo	2023-05-19T00:00:00	2024-11-08T12:00:00	1	Precipitación	0
149808	7	Sololá	719	Santiago Atitlán	14	Cerro de Oro	5	Mayo	2023-05-19T00:00:00	2024-11-08T12:00:00	8	Radiación solar	825
149809	7	Sololá	719	Santiago Atitlán	14	Cerro de Oro	5	Mayo	2023-05-19T00:00:00	2024-11-08T13:00:00	2	Temperatura media	27.2
149810	7	Sololá	719	Santiago Atitlán	14	Cerro de Oro	5	Mayo	2023-05-19T00:00:00	2024-11-08T13:00:00	4	Temperatura máxima	27.3
149811	7	Sololá	719	Santiago Atitlán	14	Cerro de Oro	5	Mayo	2023-05-19T00:00:00	2024-11-08T13:00:00	3	Temperatura mínima	26.7
149812	7	Sololá	719	Santiago Atitlán	14	Cerro de Oro	5	Mayo	2023-05-19T00:00:00	2024-11-08T13:00:00	5	Humedad	63
149813	7	Sololá	719	Santiago Atitlán	14	Cerro de Oro	5	Mayo	2023-05-19T00:00:00	2024-11-08T13:00:00	6	Velocidad del viento	6.4
149814	7	Sololá	719	Santiago Atitlán	14	Cerro de Oro	5	Mayo	2023-05-19T00:00:00	2024-11-08T13:00:00	7	Dirección del viento	6.44
149815	7	Sololá	719	Santiago Atitlán	14	Cerro de Oro	5	Mayo	2023-05-19T00:00:00	2024-11-08T13:00:00	1	Precipitación	0
149816	7	Sololá	719	Santiago Atitlán	14	Cerro de Oro	5	Mayo	2023-05-19T00:00:00	2024-11-08T13:00:00	8	Radiación solar	925
149817	7	Sololá	719	Santiago Atitlán	14	Cerro de Oro	5	Mayo	2023-05-19T00:00:00	2024-11-08T14:00:00	2	Temperatura media	26.5
149818	7	Sololá	719	Santiago Atitlán	14	Cerro de Oro	5	Mayo	2023-05-19T00:00:00	2024-11-08T14:00:00	4	Temperatura máxima	27.1
149819	7	Sololá	719	Santiago Atitlán	14	Cerro de Oro	5	Mayo	2023-05-19T00:00:00	2024-11-08T14:00:00	3	Temperatura mínima	25.8
149820	7	Sololá	719	Santiago Atitlán	14	Cerro de Oro	5	Mayo	2023-05-19T00:00:00	2024-11-08T14:00:00	5	Humedad	62
149821	7	Sololá	719	Santiago Atitlán	14	Cerro de Oro	5	Mayo	2023-05-19T00:00:00	2024-11-08T14:00:00	6	Velocidad del viento	11.3
149822	7	Sololá	719	Santiago Atitlán	14	Cerro de Oro	5	Mayo	2023-05-19T00:00:00	2024-11-08T14:00:00	7	Dirección del viento	11.27
149823	7	Sololá	719	Santiago Atitlán	14	Cerro de Oro	5	Mayo	2023-05-19T00:00:00	2024-11-08T14:00:00	1	Precipitación	0
149824	7	Sololá	719	Santiago Atitlán	14	Cerro de Oro	5	Mayo	2023-05-19T00:00:00	2024-11-08T14:00:00	8	Radiación solar	942
149825	7	Sololá	719	Santiago Atitlán	14	Cerro de Oro	5	Mayo	2023-05-19T00:00:00	2024-11-08T15:00:00	2	Temperatura media	26.8
149826	7	Sololá	719	Santiago Atitlán	14	Cerro de Oro	5	Mayo	2023-05-19T00:00:00	2024-11-08T15:00:00	4	Temperatura máxima	27.6
149827	7	Sololá	719	Santiago Atitlán	14	Cerro de Oro	5	Mayo	2023-05-19T00:00:00	2024-11-08T15:00:00	3	Temperatura mínima	26.1
149828	7	Sololá	719	Santiago Atitlán	14	Cerro de Oro	5	Mayo	2023-05-19T00:00:00	2024-11-08T15:00:00	5	Humedad	62
149829	7	Sololá	719	Santiago Atitlán	14	Cerro de Oro	5	Mayo	2023-05-19T00:00:00	2024-11-08T15:00:00	6	Velocidad del viento	9.7
149830	7	Sololá	719	Santiago Atitlán	14	Cerro de Oro	5	Mayo	2023-05-19T00:00:00	2024-11-08T15:00:00	7	Dirección del viento	9.66
149831	7	Sololá	719	Santiago Atitlán	14	Cerro de Oro	5	Mayo	2023-05-19T00:00:00	2024-11-08T15:00:00	1	Precipitación	0
149832	7	Sololá	719	Santiago Atitlán	14	Cerro de Oro	5	Mayo	2023-05-19T00:00:00	2024-11-08T15:00:00	8	Radiación solar	727
149833	7	Sololá	719	Santiago Atitlán	14	Cerro de Oro	5	Mayo	2023-05-19T00:00:00	2024-11-08T16:00:00	2	Temperatura media	25.8
149834	7	Sololá	719	Santiago Atitlán	14	Cerro de Oro	5	Mayo	2023-05-19T00:00:00	2024-11-08T16:00:00	4	Temperatura máxima	27.5
149835	7	Sololá	719	Santiago Atitlán	14	Cerro de Oro	5	Mayo	2023-05-19T00:00:00	2024-11-08T16:00:00	3	Temperatura mínima	25.8
149836	7	Sololá	719	Santiago Atitlán	14	Cerro de Oro	5	Mayo	2023-05-19T00:00:00	2024-11-08T16:00:00	5	Humedad	72
149837	7	Sololá	719	Santiago Atitlán	14	Cerro de Oro	5	Mayo	2023-05-19T00:00:00	2024-11-08T16:00:00	6	Velocidad del viento	11.3
149838	7	Sololá	719	Santiago Atitlán	14	Cerro de Oro	5	Mayo	2023-05-19T00:00:00	2024-11-08T16:00:00	7	Dirección del viento	11.27
149839	7	Sololá	719	Santiago Atitlán	14	Cerro de Oro	5	Mayo	2023-05-19T00:00:00	2024-11-08T16:00:00	1	Precipitación	0
149840	7	Sololá	719	Santiago Atitlán	14	Cerro de Oro	5	Mayo	2023-05-19T00:00:00	2024-11-08T16:00:00	8	Radiación solar	719
149841	7	Sololá	719	Santiago Atitlán	14	Cerro de Oro	5	Mayo	2023-05-19T00:00:00	2024-11-08T17:00:00	2	Temperatura media	24.8
149842	7	Sololá	719	Santiago Atitlán	14	Cerro de Oro	5	Mayo	2023-05-19T00:00:00	2024-11-08T17:00:00	4	Temperatura máxima	26.2
149843	7	Sololá	719	Santiago Atitlán	14	Cerro de Oro	5	Mayo	2023-05-19T00:00:00	2024-11-08T17:00:00	3	Temperatura mínima	24.1
149844	7	Sololá	719	Santiago Atitlán	14	Cerro de Oro	5	Mayo	2023-05-19T00:00:00	2024-11-08T17:00:00	5	Humedad	75
149845	7	Sololá	719	Santiago Atitlán	14	Cerro de Oro	5	Mayo	2023-05-19T00:00:00	2024-11-08T17:00:00	6	Velocidad del viento	12.9
149846	7	Sololá	719	Santiago Atitlán	14	Cerro de Oro	5	Mayo	2023-05-19T00:00:00	2024-11-08T17:00:00	7	Dirección del viento	12.87
149847	7	Sololá	719	Santiago Atitlán	14	Cerro de Oro	5	Mayo	2023-05-19T00:00:00	2024-11-08T17:00:00	1	Precipitación	0
149848	7	Sololá	719	Santiago Atitlán	14	Cerro de Oro	5	Mayo	2023-05-19T00:00:00	2024-11-08T17:00:00	8	Radiación solar	316
149849	7	Sololá	719	Santiago Atitlán	14	Cerro de Oro	5	Mayo	2023-05-19T00:00:00	2024-11-08T18:00:00	2	Temperatura media	23.3
149850	7	Sololá	719	Santiago Atitlán	14	Cerro de Oro	5	Mayo	2023-05-19T00:00:00	2024-11-08T18:00:00	4	Temperatura máxima	24.8
149851	7	Sololá	719	Santiago Atitlán	14	Cerro de Oro	5	Mayo	2023-05-19T00:00:00	2024-11-08T18:00:00	3	Temperatura mínima	23
149852	7	Sololá	719	Santiago Atitlán	14	Cerro de Oro	5	Mayo	2023-05-19T00:00:00	2024-11-08T18:00:00	5	Humedad	78
149853	7	Sololá	719	Santiago Atitlán	14	Cerro de Oro	5	Mayo	2023-05-19T00:00:00	2024-11-08T18:00:00	6	Velocidad del viento	11.3
149854	7	Sololá	719	Santiago Atitlán	14	Cerro de Oro	5	Mayo	2023-05-19T00:00:00	2024-11-08T18:00:00	7	Dirección del viento	11.27
149855	7	Sololá	719	Santiago Atitlán	14	Cerro de Oro	5	Mayo	2023-05-19T00:00:00	2024-11-08T18:00:00	1	Precipitación	0
149856	7	Sololá	719	Santiago Atitlán	14	Cerro de Oro	5	Mayo	2023-05-19T00:00:00	2024-11-08T18:00:00	8	Radiación solar	54
149857	7	Sololá	719	Santiago Atitlán	14	Cerro de Oro	5	Mayo	2023-05-19T00:00:00	2024-11-08T19:00:00	2	Temperatura media	23.3
149858	7	Sololá	719	Santiago Atitlán	14	Cerro de Oro	5	Mayo	2023-05-19T00:00:00	2024-11-08T19:00:00	4	Temperatura máxima	23.5
149859	7	Sololá	719	Santiago Atitlán	14	Cerro de Oro	5	Mayo	2023-05-19T00:00:00	2024-11-08T19:00:00	3	Temperatura mínima	22.3
149860	7	Sololá	719	Santiago Atitlán	14	Cerro de Oro	5	Mayo	2023-05-19T00:00:00	2024-11-08T19:00:00	5	Humedad	68
149861	7	Sololá	719	Santiago Atitlán	14	Cerro de Oro	5	Mayo	2023-05-19T00:00:00	2024-11-08T19:00:00	6	Velocidad del viento	9.7
149862	7	Sololá	719	Santiago Atitlán	14	Cerro de Oro	5	Mayo	2023-05-19T00:00:00	2024-11-08T19:00:00	7	Dirección del viento	9.66
149863	7	Sololá	719	Santiago Atitlán	14	Cerro de Oro	5	Mayo	2023-05-19T00:00:00	2024-11-08T19:00:00	1	Precipitación	0
149864	7	Sololá	719	Santiago Atitlán	14	Cerro de Oro	5	Mayo	2023-05-19T00:00:00	2024-11-08T19:00:00	8	Radiación solar	0
149865	7	Sololá	719	Santiago Atitlán	14	Cerro de Oro	5	Mayo	2023-05-19T00:00:00	2024-11-08T20:00:00	2	Temperatura media	23
149866	7	Sololá	719	Santiago Atitlán	14	Cerro de Oro	5	Mayo	2023-05-19T00:00:00	2024-11-08T20:00:00	4	Temperatura máxima	23.8
149867	7	Sololá	719	Santiago Atitlán	14	Cerro de Oro	5	Mayo	2023-05-19T00:00:00	2024-11-08T20:00:00	3	Temperatura mínima	23
149868	7	Sololá	719	Santiago Atitlán	14	Cerro de Oro	5	Mayo	2023-05-19T00:00:00	2024-11-08T20:00:00	5	Humedad	73
149869	7	Sololá	719	Santiago Atitlán	14	Cerro de Oro	5	Mayo	2023-05-19T00:00:00	2024-11-08T20:00:00	6	Velocidad del viento	8
149870	7	Sololá	719	Santiago Atitlán	14	Cerro de Oro	5	Mayo	2023-05-19T00:00:00	2024-11-08T20:00:00	7	Dirección del viento	8.05
149871	7	Sololá	719	Santiago Atitlán	14	Cerro de Oro	5	Mayo	2023-05-19T00:00:00	2024-11-08T20:00:00	1	Precipitación	0
149872	7	Sololá	719	Santiago Atitlán	14	Cerro de Oro	5	Mayo	2023-05-19T00:00:00	2024-11-08T20:00:00	8	Radiación solar	0
149873	7	Sololá	719	Santiago Atitlán	14	Cerro de Oro	5	Mayo	2023-05-19T00:00:00	2024-11-08T21:00:00	2	Temperatura media	21.8
149874	7	Sololá	719	Santiago Atitlán	14	Cerro de Oro	5	Mayo	2023-05-19T00:00:00	2024-11-08T21:00:00	4	Temperatura máxima	23
149875	7	Sololá	719	Santiago Atitlán	14	Cerro de Oro	5	Mayo	2023-05-19T00:00:00	2024-11-08T21:00:00	3	Temperatura mínima	21.6
149876	7	Sololá	719	Santiago Atitlán	14	Cerro de Oro	5	Mayo	2023-05-19T00:00:00	2024-11-08T21:00:00	5	Humedad	73
149877	7	Sololá	719	Santiago Atitlán	14	Cerro de Oro	5	Mayo	2023-05-19T00:00:00	2024-11-08T21:00:00	6	Velocidad del viento	4.8
149878	7	Sololá	719	Santiago Atitlán	14	Cerro de Oro	5	Mayo	2023-05-19T00:00:00	2024-11-08T21:00:00	7	Dirección del viento	4.83
149879	7	Sololá	719	Santiago Atitlán	14	Cerro de Oro	5	Mayo	2023-05-19T00:00:00	2024-11-08T21:00:00	1	Precipitación	0
149880	7	Sololá	719	Santiago Atitlán	14	Cerro de Oro	5	Mayo	2023-05-19T00:00:00	2024-11-08T21:00:00	8	Radiación solar	0
149881	7	Sololá	719	Santiago Atitlán	14	Cerro de Oro	5	Mayo	2023-05-19T00:00:00	2024-11-08T22:00:00	2	Temperatura media	22
149882	7	Sololá	719	Santiago Atitlán	14	Cerro de Oro	5	Mayo	2023-05-19T00:00:00	2024-11-08T22:00:00	4	Temperatura máxima	22
149883	7	Sololá	719	Santiago Atitlán	14	Cerro de Oro	5	Mayo	2023-05-19T00:00:00	2024-11-08T22:00:00	3	Temperatura mínima	21.7
149884	7	Sololá	719	Santiago Atitlán	14	Cerro de Oro	5	Mayo	2023-05-19T00:00:00	2024-11-08T22:00:00	5	Humedad	68
149885	7	Sololá	719	Santiago Atitlán	14	Cerro de Oro	5	Mayo	2023-05-19T00:00:00	2024-11-08T22:00:00	6	Velocidad del viento	3.2
149886	7	Sololá	719	Santiago Atitlán	14	Cerro de Oro	5	Mayo	2023-05-19T00:00:00	2024-11-08T22:00:00	7	Dirección del viento	3.22
149887	7	Sololá	719	Santiago Atitlán	14	Cerro de Oro	5	Mayo	2023-05-19T00:00:00	2024-11-08T22:00:00	1	Precipitación	0
149888	7	Sololá	719	Santiago Atitlán	14	Cerro de Oro	5	Mayo	2023-05-19T00:00:00	2024-11-08T22:00:00	8	Radiación solar	0
149889	7	Sololá	719	Santiago Atitlán	14	Cerro de Oro	5	Mayo	2023-05-19T00:00:00	2024-11-08T23:00:00	2	Temperatura media	21.3
149890	7	Sololá	719	Santiago Atitlán	14	Cerro de Oro	5	Mayo	2023-05-19T00:00:00	2024-11-08T23:00:00	4	Temperatura máxima	22.4
149891	7	Sololá	719	Santiago Atitlán	14	Cerro de Oro	5	Mayo	2023-05-19T00:00:00	2024-11-08T23:00:00	3	Temperatura mínima	21.3
149892	7	Sololá	719	Santiago Atitlán	14	Cerro de Oro	5	Mayo	2023-05-19T00:00:00	2024-11-08T23:00:00	5	Humedad	68
149893	7	Sololá	719	Santiago Atitlán	14	Cerro de Oro	5	Mayo	2023-05-19T00:00:00	2024-11-08T23:00:00	6	Velocidad del viento	3.2
149894	7	Sololá	719	Santiago Atitlán	14	Cerro de Oro	5	Mayo	2023-05-19T00:00:00	2024-11-08T23:00:00	7	Dirección del viento	3.22
149895	7	Sololá	719	Santiago Atitlán	14	Cerro de Oro	5	Mayo	2023-05-19T00:00:00	2024-11-08T23:00:00	1	Precipitación	0
149896	7	Sololá	719	Santiago Atitlán	14	Cerro de Oro	5	Mayo	2023-05-19T00:00:00	2024-11-08T23:00:00	8	Radiación solar	0
149897	7	Sololá	719	Santiago Atitlán	14	Cerro de Oro	5	Mayo	2023-05-20T00:00:00	2024-11-08T00:00:00	2	Temperatura media	21.4
149898	7	Sololá	719	Santiago Atitlán	14	Cerro de Oro	5	Mayo	2023-05-20T00:00:00	2024-11-08T00:00:00	4	Temperatura máxima	21.8
149899	7	Sololá	719	Santiago Atitlán	14	Cerro de Oro	5	Mayo	2023-05-20T00:00:00	2024-11-08T00:00:00	3	Temperatura mínima	21.2
149900	7	Sololá	719	Santiago Atitlán	14	Cerro de Oro	5	Mayo	2023-05-20T00:00:00	2024-11-08T00:00:00	5	Humedad	69
149901	7	Sololá	719	Santiago Atitlán	14	Cerro de Oro	5	Mayo	2023-05-20T00:00:00	2024-11-08T00:00:00	6	Velocidad del viento	6.4
149902	7	Sololá	719	Santiago Atitlán	14	Cerro de Oro	5	Mayo	2023-05-20T00:00:00	2024-11-08T00:00:00	7	Dirección del viento	6.44
149903	7	Sololá	719	Santiago Atitlán	14	Cerro de Oro	5	Mayo	2023-05-20T00:00:00	2024-11-08T00:00:00	1	Precipitación	0
149904	7	Sololá	719	Santiago Atitlán	14	Cerro de Oro	5	Mayo	2023-05-20T00:00:00	2024-11-08T00:00:00	8	Radiación solar	0
149905	7	Sololá	719	Santiago Atitlán	14	Cerro de Oro	5	Mayo	2023-05-20T00:00:00	2024-11-08T01:00:00	2	Temperatura media	21.1
149906	7	Sololá	719	Santiago Atitlán	14	Cerro de Oro	5	Mayo	2023-05-20T00:00:00	2024-11-08T01:00:00	4	Temperatura máxima	21.4
149907	7	Sololá	719	Santiago Atitlán	14	Cerro de Oro	5	Mayo	2023-05-20T00:00:00	2024-11-08T01:00:00	3	Temperatura mínima	21
149908	7	Sololá	719	Santiago Atitlán	14	Cerro de Oro	5	Mayo	2023-05-20T00:00:00	2024-11-08T01:00:00	5	Humedad	70
149909	7	Sololá	719	Santiago Atitlán	14	Cerro de Oro	5	Mayo	2023-05-20T00:00:00	2024-11-08T01:00:00	6	Velocidad del viento	6.4
149910	7	Sololá	719	Santiago Atitlán	14	Cerro de Oro	5	Mayo	2023-05-20T00:00:00	2024-11-08T01:00:00	7	Dirección del viento	6.44
149911	7	Sololá	719	Santiago Atitlán	14	Cerro de Oro	5	Mayo	2023-05-20T00:00:00	2024-11-08T01:00:00	1	Precipitación	0
149912	7	Sololá	719	Santiago Atitlán	14	Cerro de Oro	5	Mayo	2023-05-20T00:00:00	2024-11-08T01:00:00	8	Radiación solar	0
149913	7	Sololá	719	Santiago Atitlán	14	Cerro de Oro	5	Mayo	2023-05-20T00:00:00	2024-11-08T02:00:00	2	Temperatura media	20.1
149914	7	Sololá	719	Santiago Atitlán	14	Cerro de Oro	5	Mayo	2023-05-20T00:00:00	2024-11-08T02:00:00	4	Temperatura máxima	21.1
149915	7	Sololá	719	Santiago Atitlán	14	Cerro de Oro	5	Mayo	2023-05-20T00:00:00	2024-11-08T02:00:00	3	Temperatura mínima	19.9
149916	7	Sololá	719	Santiago Atitlán	14	Cerro de Oro	5	Mayo	2023-05-20T00:00:00	2024-11-08T02:00:00	5	Humedad	71
149917	7	Sololá	719	Santiago Atitlán	14	Cerro de Oro	5	Mayo	2023-05-20T00:00:00	2024-11-08T02:00:00	6	Velocidad del viento	4.8
149918	7	Sololá	719	Santiago Atitlán	14	Cerro de Oro	5	Mayo	2023-05-20T00:00:00	2024-11-08T02:00:00	7	Dirección del viento	4.83
149919	7	Sololá	719	Santiago Atitlán	14	Cerro de Oro	5	Mayo	2023-05-20T00:00:00	2024-11-08T02:00:00	1	Precipitación	0
149920	7	Sololá	719	Santiago Atitlán	14	Cerro de Oro	5	Mayo	2023-05-20T00:00:00	2024-11-08T02:00:00	8	Radiación solar	0
149921	7	Sololá	719	Santiago Atitlán	14	Cerro de Oro	5	Mayo	2023-05-20T00:00:00	2024-11-08T03:00:00	2	Temperatura media	19.5
149922	7	Sololá	719	Santiago Atitlán	14	Cerro de Oro	5	Mayo	2023-05-20T00:00:00	2024-11-08T03:00:00	4	Temperatura máxima	20.3
149923	7	Sololá	719	Santiago Atitlán	14	Cerro de Oro	5	Mayo	2023-05-20T00:00:00	2024-11-08T03:00:00	3	Temperatura mínima	19.5
149924	7	Sololá	719	Santiago Atitlán	14	Cerro de Oro	5	Mayo	2023-05-20T00:00:00	2024-11-08T03:00:00	5	Humedad	75
149925	7	Sololá	719	Santiago Atitlán	14	Cerro de Oro	5	Mayo	2023-05-20T00:00:00	2024-11-08T03:00:00	6	Velocidad del viento	4.8
149926	7	Sololá	719	Santiago Atitlán	14	Cerro de Oro	5	Mayo	2023-05-20T00:00:00	2024-11-08T03:00:00	7	Dirección del viento	4.83
149927	7	Sololá	719	Santiago Atitlán	14	Cerro de Oro	5	Mayo	2023-05-20T00:00:00	2024-11-08T03:00:00	1	Precipitación	0
149928	7	Sololá	719	Santiago Atitlán	14	Cerro de Oro	5	Mayo	2023-05-20T00:00:00	2024-11-08T03:00:00	8	Radiación solar	0
149929	7	Sololá	719	Santiago Atitlán	14	Cerro de Oro	5	Mayo	2023-05-20T00:00:00	2024-11-08T04:00:00	2	Temperatura media	19.5
149930	7	Sololá	719	Santiago Atitlán	14	Cerro de Oro	5	Mayo	2023-05-20T00:00:00	2024-11-08T04:00:00	4	Temperatura máxima	19.7
149931	7	Sololá	719	Santiago Atitlán	14	Cerro de Oro	5	Mayo	2023-05-20T00:00:00	2024-11-08T04:00:00	3	Temperatura mínima	19.4
149932	7	Sololá	719	Santiago Atitlán	14	Cerro de Oro	5	Mayo	2023-05-20T00:00:00	2024-11-08T04:00:00	5	Humedad	73
149933	7	Sololá	719	Santiago Atitlán	14	Cerro de Oro	5	Mayo	2023-05-20T00:00:00	2024-11-08T04:00:00	6	Velocidad del viento	4.8
149934	7	Sololá	719	Santiago Atitlán	14	Cerro de Oro	5	Mayo	2023-05-20T00:00:00	2024-11-08T04:00:00	7	Dirección del viento	4.83
149935	7	Sololá	719	Santiago Atitlán	14	Cerro de Oro	5	Mayo	2023-05-20T00:00:00	2024-11-08T04:00:00	1	Precipitación	0
149936	7	Sololá	719	Santiago Atitlán	14	Cerro de Oro	5	Mayo	2023-05-20T00:00:00	2024-11-08T04:00:00	8	Radiación solar	0
149937	7	Sololá	719	Santiago Atitlán	14	Cerro de Oro	5	Mayo	2023-05-20T00:00:00	2024-11-08T05:00:00	2	Temperatura media	19.6
149938	7	Sololá	719	Santiago Atitlán	14	Cerro de Oro	5	Mayo	2023-05-20T00:00:00	2024-11-08T05:00:00	4	Temperatura máxima	19.7
149939	7	Sololá	719	Santiago Atitlán	14	Cerro de Oro	5	Mayo	2023-05-20T00:00:00	2024-11-08T05:00:00	3	Temperatura mínima	19.3
149940	7	Sololá	719	Santiago Atitlán	14	Cerro de Oro	5	Mayo	2023-05-20T00:00:00	2024-11-08T05:00:00	5	Humedad	72
149941	7	Sololá	719	Santiago Atitlán	14	Cerro de Oro	5	Mayo	2023-05-20T00:00:00	2024-11-08T05:00:00	6	Velocidad del viento	4.8
149942	7	Sololá	719	Santiago Atitlán	14	Cerro de Oro	5	Mayo	2023-05-20T00:00:00	2024-11-08T05:00:00	7	Dirección del viento	4.83
149943	7	Sololá	719	Santiago Atitlán	14	Cerro de Oro	5	Mayo	2023-05-20T00:00:00	2024-11-08T05:00:00	1	Precipitación	0
149944	7	Sololá	719	Santiago Atitlán	14	Cerro de Oro	5	Mayo	2023-05-20T00:00:00	2024-11-08T05:00:00	8	Radiación solar	0
149945	7	Sololá	719	Santiago Atitlán	14	Cerro de Oro	5	Mayo	2023-05-20T00:00:00	2024-11-08T06:00:00	2	Temperatura media	20
149946	7	Sololá	719	Santiago Atitlán	14	Cerro de Oro	5	Mayo	2023-05-20T00:00:00	2024-11-08T06:00:00	4	Temperatura máxima	20
149947	7	Sololá	719	Santiago Atitlán	14	Cerro de Oro	5	Mayo	2023-05-20T00:00:00	2024-11-08T06:00:00	3	Temperatura mínima	19.4
149948	7	Sololá	719	Santiago Atitlán	14	Cerro de Oro	5	Mayo	2023-05-20T00:00:00	2024-11-08T06:00:00	5	Humedad	67
149949	7	Sololá	719	Santiago Atitlán	14	Cerro de Oro	5	Mayo	2023-05-20T00:00:00	2024-11-08T06:00:00	6	Velocidad del viento	6.4
149950	7	Sololá	719	Santiago Atitlán	14	Cerro de Oro	5	Mayo	2023-05-20T00:00:00	2024-11-08T06:00:00	7	Dirección del viento	6.44
149951	7	Sololá	719	Santiago Atitlán	14	Cerro de Oro	5	Mayo	2023-05-20T00:00:00	2024-11-08T06:00:00	1	Precipitación	0
149952	7	Sololá	719	Santiago Atitlán	14	Cerro de Oro	5	Mayo	2023-05-20T00:00:00	2024-11-08T06:00:00	8	Radiación solar	0
149953	7	Sololá	719	Santiago Atitlán	14	Cerro de Oro	5	Mayo	2023-05-20T00:00:00	2024-11-08T07:00:00	2	Temperatura media	19.7
149954	7	Sololá	719	Santiago Atitlán	14	Cerro de Oro	5	Mayo	2023-05-20T00:00:00	2024-11-08T07:00:00	4	Temperatura máxima	20.1
149955	7	Sololá	719	Santiago Atitlán	14	Cerro de Oro	5	Mayo	2023-05-20T00:00:00	2024-11-08T07:00:00	3	Temperatura mínima	19.7
149956	7	Sololá	719	Santiago Atitlán	14	Cerro de Oro	5	Mayo	2023-05-20T00:00:00	2024-11-08T07:00:00	5	Humedad	67
149957	7	Sololá	719	Santiago Atitlán	14	Cerro de Oro	5	Mayo	2023-05-20T00:00:00	2024-11-08T07:00:00	6	Velocidad del viento	4.8
149958	7	Sololá	719	Santiago Atitlán	14	Cerro de Oro	5	Mayo	2023-05-20T00:00:00	2024-11-08T07:00:00	7	Dirección del viento	4.83
149959	7	Sololá	719	Santiago Atitlán	14	Cerro de Oro	5	Mayo	2023-05-20T00:00:00	2024-11-08T07:00:00	1	Precipitación	0
149960	7	Sololá	719	Santiago Atitlán	14	Cerro de Oro	5	Mayo	2023-05-20T00:00:00	2024-11-08T07:00:00	8	Radiación solar	8
149961	7	Sololá	719	Santiago Atitlán	14	Cerro de Oro	5	Mayo	2023-05-20T00:00:00	2024-11-08T08:00:00	2	Temperatura media	21.2
149962	7	Sololá	719	Santiago Atitlán	14	Cerro de Oro	5	Mayo	2023-05-20T00:00:00	2024-11-08T08:00:00	4	Temperatura máxima	21.2
149963	7	Sololá	719	Santiago Atitlán	14	Cerro de Oro	5	Mayo	2023-05-20T00:00:00	2024-11-08T08:00:00	3	Temperatura mínima	19.3
149964	7	Sololá	719	Santiago Atitlán	14	Cerro de Oro	5	Mayo	2023-05-20T00:00:00	2024-11-08T08:00:00	5	Humedad	62
149965	7	Sololá	719	Santiago Atitlán	14	Cerro de Oro	5	Mayo	2023-05-20T00:00:00	2024-11-08T08:00:00	6	Velocidad del viento	3.2
149966	7	Sololá	719	Santiago Atitlán	14	Cerro de Oro	5	Mayo	2023-05-20T00:00:00	2024-11-08T08:00:00	7	Dirección del viento	3.22
149967	7	Sololá	719	Santiago Atitlán	14	Cerro de Oro	5	Mayo	2023-05-20T00:00:00	2024-11-08T08:00:00	1	Precipitación	0
149968	7	Sololá	719	Santiago Atitlán	14	Cerro de Oro	5	Mayo	2023-05-20T00:00:00	2024-11-08T08:00:00	8	Radiación solar	109
149969	7	Sololá	719	Santiago Atitlán	14	Cerro de Oro	5	Mayo	2023-05-20T00:00:00	2024-11-08T09:00:00	2	Temperatura media	23.4
149970	7	Sololá	719	Santiago Atitlán	14	Cerro de Oro	5	Mayo	2023-05-20T00:00:00	2024-11-08T09:00:00	4	Temperatura máxima	23.4
149971	7	Sololá	719	Santiago Atitlán	14	Cerro de Oro	5	Mayo	2023-05-20T00:00:00	2024-11-08T09:00:00	3	Temperatura mínima	21.2
149972	7	Sololá	719	Santiago Atitlán	14	Cerro de Oro	5	Mayo	2023-05-20T00:00:00	2024-11-08T09:00:00	5	Humedad	53
149973	7	Sololá	719	Santiago Atitlán	14	Cerro de Oro	5	Mayo	2023-05-20T00:00:00	2024-11-08T09:00:00	6	Velocidad del viento	1.6
149974	7	Sololá	719	Santiago Atitlán	14	Cerro de Oro	5	Mayo	2023-05-20T00:00:00	2024-11-08T09:00:00	7	Dirección del viento	1.61
149975	7	Sololá	719	Santiago Atitlán	14	Cerro de Oro	5	Mayo	2023-05-20T00:00:00	2024-11-08T09:00:00	1	Precipitación	0
149976	7	Sololá	719	Santiago Atitlán	14	Cerro de Oro	5	Mayo	2023-05-20T00:00:00	2024-11-08T09:00:00	8	Radiación solar	288
149977	7	Sololá	719	Santiago Atitlán	14	Cerro de Oro	5	Mayo	2023-05-20T00:00:00	2024-11-08T10:00:00	2	Temperatura media	24.9
149978	7	Sololá	719	Santiago Atitlán	14	Cerro de Oro	5	Mayo	2023-05-20T00:00:00	2024-11-08T10:00:00	4	Temperatura máxima	25.1
149979	7	Sololá	719	Santiago Atitlán	14	Cerro de Oro	5	Mayo	2023-05-20T00:00:00	2024-11-08T10:00:00	3	Temperatura mínima	23.4
149980	7	Sololá	719	Santiago Atitlán	14	Cerro de Oro	5	Mayo	2023-05-20T00:00:00	2024-11-08T10:00:00	5	Humedad	48
149981	7	Sololá	719	Santiago Atitlán	14	Cerro de Oro	5	Mayo	2023-05-20T00:00:00	2024-11-08T10:00:00	6	Velocidad del viento	1.6
149982	7	Sololá	719	Santiago Atitlán	14	Cerro de Oro	5	Mayo	2023-05-20T00:00:00	2024-11-08T10:00:00	7	Dirección del viento	1.61
149983	7	Sololá	719	Santiago Atitlán	14	Cerro de Oro	5	Mayo	2023-05-20T00:00:00	2024-11-08T10:00:00	1	Precipitación	0
149984	7	Sololá	719	Santiago Atitlán	14	Cerro de Oro	5	Mayo	2023-05-20T00:00:00	2024-11-08T10:00:00	8	Radiación solar	530
149985	7	Sololá	719	Santiago Atitlán	14	Cerro de Oro	5	Mayo	2023-05-20T00:00:00	2024-11-08T11:00:00	2	Temperatura media	25.8
149986	7	Sololá	719	Santiago Atitlán	14	Cerro de Oro	5	Mayo	2023-05-20T00:00:00	2024-11-08T11:00:00	4	Temperatura máxima	25.9
149987	7	Sololá	719	Santiago Atitlán	14	Cerro de Oro	5	Mayo	2023-05-20T00:00:00	2024-11-08T11:00:00	3	Temperatura mínima	24.8
149988	7	Sololá	719	Santiago Atitlán	14	Cerro de Oro	5	Mayo	2023-05-20T00:00:00	2024-11-08T11:00:00	5	Humedad	50
149989	7	Sololá	719	Santiago Atitlán	14	Cerro de Oro	5	Mayo	2023-05-20T00:00:00	2024-11-08T11:00:00	6	Velocidad del viento	4.8
149990	7	Sololá	719	Santiago Atitlán	14	Cerro de Oro	5	Mayo	2023-05-20T00:00:00	2024-11-08T11:00:00	7	Dirección del viento	4.83
149991	7	Sololá	719	Santiago Atitlán	14	Cerro de Oro	5	Mayo	2023-05-20T00:00:00	2024-11-08T11:00:00	1	Precipitación	0
149992	7	Sololá	719	Santiago Atitlán	14	Cerro de Oro	5	Mayo	2023-05-20T00:00:00	2024-11-08T11:00:00	8	Radiación solar	720
149993	7	Sololá	719	Santiago Atitlán	14	Cerro de Oro	5	Mayo	2023-05-20T00:00:00	2024-11-08T12:00:00	2	Temperatura media	25.9
149994	7	Sololá	719	Santiago Atitlán	14	Cerro de Oro	5	Mayo	2023-05-20T00:00:00	2024-11-08T12:00:00	4	Temperatura máxima	25.9
149995	7	Sololá	719	Santiago Atitlán	14	Cerro de Oro	5	Mayo	2023-05-20T00:00:00	2024-11-08T12:00:00	3	Temperatura mínima	25
149996	7	Sololá	719	Santiago Atitlán	14	Cerro de Oro	5	Mayo	2023-05-20T00:00:00	2024-11-08T12:00:00	5	Humedad	53
149997	7	Sololá	719	Santiago Atitlán	14	Cerro de Oro	5	Mayo	2023-05-20T00:00:00	2024-11-08T12:00:00	6	Velocidad del viento	9.7
149998	7	Sololá	719	Santiago Atitlán	14	Cerro de Oro	5	Mayo	2023-05-20T00:00:00	2024-11-08T12:00:00	7	Dirección del viento	9.66
149999	7	Sololá	719	Santiago Atitlán	14	Cerro de Oro	5	Mayo	2023-05-20T00:00:00	2024-11-08T12:00:00	1	Precipitación	0
150000	7	Sololá	719	Santiago Atitlán	14	Cerro de Oro	5	Mayo	2023-05-20T00:00:00	2024-11-08T12:00:00	8	Radiación solar	793
150001	7	Sololá	719	Santiago Atitlán	14	Cerro de Oro	5	Mayo	2023-05-20T00:00:00	2024-11-08T13:00:00	2	Temperatura media	26.8
150002	7	Sololá	719	Santiago Atitlán	14	Cerro de Oro	5	Mayo	2023-05-20T00:00:00	2024-11-08T13:00:00	4	Temperatura máxima	26.8
150003	7	Sololá	719	Santiago Atitlán	14	Cerro de Oro	5	Mayo	2023-05-20T00:00:00	2024-11-08T13:00:00	3	Temperatura mínima	25.7
150004	7	Sololá	719	Santiago Atitlán	14	Cerro de Oro	5	Mayo	2023-05-20T00:00:00	2024-11-08T13:00:00	5	Humedad	45
150005	7	Sololá	719	Santiago Atitlán	14	Cerro de Oro	5	Mayo	2023-05-20T00:00:00	2024-11-08T13:00:00	6	Velocidad del viento	8
150006	7	Sololá	719	Santiago Atitlán	14	Cerro de Oro	5	Mayo	2023-05-20T00:00:00	2024-11-08T13:00:00	7	Dirección del viento	8.05
150007	7	Sololá	719	Santiago Atitlán	14	Cerro de Oro	5	Mayo	2023-05-20T00:00:00	2024-11-08T13:00:00	1	Precipitación	0
150008	7	Sololá	719	Santiago Atitlán	14	Cerro de Oro	5	Mayo	2023-05-20T00:00:00	2024-11-08T13:00:00	8	Radiación solar	852
150009	7	Sololá	719	Santiago Atitlán	14	Cerro de Oro	5	Mayo	2023-05-20T00:00:00	2024-11-08T14:00:00	2	Temperatura media	27.2
150010	7	Sololá	719	Santiago Atitlán	14	Cerro de Oro	5	Mayo	2023-05-20T00:00:00	2024-11-08T14:00:00	4	Temperatura máxima	27.3
150011	7	Sololá	719	Santiago Atitlán	14	Cerro de Oro	5	Mayo	2023-05-20T00:00:00	2024-11-08T14:00:00	3	Temperatura mínima	26.7
150012	7	Sololá	719	Santiago Atitlán	14	Cerro de Oro	5	Mayo	2023-05-20T00:00:00	2024-11-08T14:00:00	5	Humedad	45
150013	7	Sololá	719	Santiago Atitlán	14	Cerro de Oro	5	Mayo	2023-05-20T00:00:00	2024-11-08T14:00:00	6	Velocidad del viento	9.7
150014	7	Sololá	719	Santiago Atitlán	14	Cerro de Oro	5	Mayo	2023-05-20T00:00:00	2024-11-08T14:00:00	7	Dirección del viento	9.66
150015	7	Sololá	719	Santiago Atitlán	14	Cerro de Oro	5	Mayo	2023-05-20T00:00:00	2024-11-08T14:00:00	1	Precipitación	0
150016	7	Sololá	719	Santiago Atitlán	14	Cerro de Oro	5	Mayo	2023-05-20T00:00:00	2024-11-08T14:00:00	8	Radiación solar	868
150017	7	Sololá	719	Santiago Atitlán	14	Cerro de Oro	5	Mayo	2023-05-20T00:00:00	2024-11-08T15:00:00	2	Temperatura media	27.7
150018	7	Sololá	719	Santiago Atitlán	14	Cerro de Oro	5	Mayo	2023-05-20T00:00:00	2024-11-08T15:00:00	4	Temperatura máxima	27.7
150019	7	Sololá	719	Santiago Atitlán	14	Cerro de Oro	5	Mayo	2023-05-20T00:00:00	2024-11-08T15:00:00	3	Temperatura mínima	26.9
150020	7	Sololá	719	Santiago Atitlán	14	Cerro de Oro	5	Mayo	2023-05-20T00:00:00	2024-11-08T15:00:00	5	Humedad	57
150021	7	Sololá	719	Santiago Atitlán	14	Cerro de Oro	5	Mayo	2023-05-20T00:00:00	2024-11-08T15:00:00	6	Velocidad del viento	9.7
150022	7	Sololá	719	Santiago Atitlán	14	Cerro de Oro	5	Mayo	2023-05-20T00:00:00	2024-11-08T15:00:00	7	Dirección del viento	9.66
150023	7	Sololá	719	Santiago Atitlán	14	Cerro de Oro	5	Mayo	2023-05-20T00:00:00	2024-11-08T15:00:00	1	Precipitación	0
150024	7	Sololá	719	Santiago Atitlán	14	Cerro de Oro	5	Mayo	2023-05-20T00:00:00	2024-11-08T15:00:00	8	Radiación solar	851
150025	7	Sololá	719	Santiago Atitlán	14	Cerro de Oro	5	Mayo	2023-05-20T00:00:00	2024-11-08T16:00:00	2	Temperatura media	25.3
150026	7	Sololá	719	Santiago Atitlán	14	Cerro de Oro	5	Mayo	2023-05-20T00:00:00	2024-11-08T16:00:00	4	Temperatura máxima	27.7
150027	7	Sololá	719	Santiago Atitlán	14	Cerro de Oro	5	Mayo	2023-05-20T00:00:00	2024-11-08T16:00:00	3	Temperatura mínima	25.2
150028	7	Sololá	719	Santiago Atitlán	14	Cerro de Oro	5	Mayo	2023-05-20T00:00:00	2024-11-08T16:00:00	5	Humedad	68
150029	7	Sololá	719	Santiago Atitlán	14	Cerro de Oro	5	Mayo	2023-05-20T00:00:00	2024-11-08T16:00:00	6	Velocidad del viento	14.5
150030	7	Sololá	719	Santiago Atitlán	14	Cerro de Oro	5	Mayo	2023-05-20T00:00:00	2024-11-08T16:00:00	7	Dirección del viento	14.48
150031	7	Sololá	719	Santiago Atitlán	14	Cerro de Oro	5	Mayo	2023-05-20T00:00:00	2024-11-08T16:00:00	1	Precipitación	0
150032	7	Sololá	719	Santiago Atitlán	14	Cerro de Oro	5	Mayo	2023-05-20T00:00:00	2024-11-08T16:00:00	8	Radiación solar	720
150033	7	Sololá	719	Santiago Atitlán	14	Cerro de Oro	5	Mayo	2023-05-20T00:00:00	2024-11-08T17:00:00	2	Temperatura media	25.1
150034	7	Sololá	719	Santiago Atitlán	14	Cerro de Oro	5	Mayo	2023-05-20T00:00:00	2024-11-08T17:00:00	4	Temperatura máxima	25.6
150035	7	Sololá	719	Santiago Atitlán	14	Cerro de Oro	5	Mayo	2023-05-20T00:00:00	2024-11-08T17:00:00	3	Temperatura mínima	25
150036	7	Sololá	719	Santiago Atitlán	14	Cerro de Oro	5	Mayo	2023-05-20T00:00:00	2024-11-08T17:00:00	5	Humedad	68
150037	7	Sololá	719	Santiago Atitlán	14	Cerro de Oro	5	Mayo	2023-05-20T00:00:00	2024-11-08T17:00:00	6	Velocidad del viento	11.3
150038	7	Sololá	719	Santiago Atitlán	14	Cerro de Oro	5	Mayo	2023-05-20T00:00:00	2024-11-08T17:00:00	7	Dirección del viento	11.27
150039	7	Sololá	719	Santiago Atitlán	14	Cerro de Oro	5	Mayo	2023-05-20T00:00:00	2024-11-08T17:00:00	1	Precipitación	0
150040	7	Sololá	719	Santiago Atitlán	14	Cerro de Oro	5	Mayo	2023-05-20T00:00:00	2024-11-08T17:00:00	8	Radiación solar	429
150041	7	Sololá	719	Santiago Atitlán	14	Cerro de Oro	5	Mayo	2023-05-20T00:00:00	2024-11-08T18:00:00	2	Temperatura media	23.9
150042	7	Sololá	719	Santiago Atitlán	14	Cerro de Oro	5	Mayo	2023-05-20T00:00:00	2024-11-08T18:00:00	4	Temperatura máxima	25.9
150043	7	Sololá	719	Santiago Atitlán	14	Cerro de Oro	5	Mayo	2023-05-20T00:00:00	2024-11-08T18:00:00	3	Temperatura mínima	23.9
150044	7	Sololá	719	Santiago Atitlán	14	Cerro de Oro	5	Mayo	2023-05-20T00:00:00	2024-11-08T18:00:00	5	Humedad	76
150045	7	Sololá	719	Santiago Atitlán	14	Cerro de Oro	5	Mayo	2023-05-20T00:00:00	2024-11-08T18:00:00	6	Velocidad del viento	9.7
150046	7	Sololá	719	Santiago Atitlán	14	Cerro de Oro	5	Mayo	2023-05-20T00:00:00	2024-11-08T18:00:00	7	Dirección del viento	9.66
150047	7	Sololá	719	Santiago Atitlán	14	Cerro de Oro	5	Mayo	2023-05-20T00:00:00	2024-11-08T18:00:00	1	Precipitación	0
150048	7	Sololá	719	Santiago Atitlán	14	Cerro de Oro	5	Mayo	2023-05-20T00:00:00	2024-11-08T18:00:00	8	Radiación solar	387
150049	7	Sololá	719	Santiago Atitlán	14	Cerro de Oro	5	Mayo	2023-05-20T00:00:00	2024-11-08T19:00:00	2	Temperatura media	23.1
150050	7	Sololá	719	Santiago Atitlán	14	Cerro de Oro	5	Mayo	2023-05-20T00:00:00	2024-11-08T19:00:00	4	Temperatura máxima	24
150051	7	Sololá	719	Santiago Atitlán	14	Cerro de Oro	5	Mayo	2023-05-20T00:00:00	2024-11-08T19:00:00	3	Temperatura mínima	23.1
150052	7	Sololá	719	Santiago Atitlán	14	Cerro de Oro	5	Mayo	2023-05-20T00:00:00	2024-11-08T19:00:00	5	Humedad	77
150053	7	Sololá	719	Santiago Atitlán	14	Cerro de Oro	5	Mayo	2023-05-20T00:00:00	2024-11-08T19:00:00	6	Velocidad del viento	9.7
150054	7	Sololá	719	Santiago Atitlán	14	Cerro de Oro	5	Mayo	2023-05-20T00:00:00	2024-11-08T19:00:00	7	Dirección del viento	9.66
150055	7	Sololá	719	Santiago Atitlán	14	Cerro de Oro	5	Mayo	2023-05-20T00:00:00	2024-11-08T19:00:00	1	Precipitación	0
150056	7	Sololá	719	Santiago Atitlán	14	Cerro de Oro	5	Mayo	2023-05-20T00:00:00	2024-11-08T19:00:00	8	Radiación solar	0
150057	7	Sololá	719	Santiago Atitlán	14	Cerro de Oro	5	Mayo	2023-05-20T00:00:00	2024-11-08T20:00:00	2	Temperatura media	22.5
150058	7	Sololá	719	Santiago Atitlán	14	Cerro de Oro	5	Mayo	2023-05-20T00:00:00	2024-11-08T20:00:00	4	Temperatura máxima	23.1
150059	7	Sololá	719	Santiago Atitlán	14	Cerro de Oro	5	Mayo	2023-05-20T00:00:00	2024-11-08T20:00:00	3	Temperatura mínima	22.4
150060	7	Sololá	719	Santiago Atitlán	14	Cerro de Oro	5	Mayo	2023-05-20T00:00:00	2024-11-08T20:00:00	5	Humedad	72
150061	7	Sololá	719	Santiago Atitlán	14	Cerro de Oro	5	Mayo	2023-05-20T00:00:00	2024-11-08T20:00:00	6	Velocidad del viento	4.8
150062	7	Sololá	719	Santiago Atitlán	14	Cerro de Oro	5	Mayo	2023-05-20T00:00:00	2024-11-08T20:00:00	7	Dirección del viento	4.83
150063	7	Sololá	719	Santiago Atitlán	14	Cerro de Oro	5	Mayo	2023-05-20T00:00:00	2024-11-08T20:00:00	1	Precipitación	0
150064	7	Sololá	719	Santiago Atitlán	14	Cerro de Oro	5	Mayo	2023-05-20T00:00:00	2024-11-08T20:00:00	8	Radiación solar	0
150065	7	Sololá	719	Santiago Atitlán	14	Cerro de Oro	5	Mayo	2023-05-20T00:00:00	2024-11-08T21:00:00	2	Temperatura media	21.9
150066	7	Sololá	719	Santiago Atitlán	14	Cerro de Oro	5	Mayo	2023-05-20T00:00:00	2024-11-08T21:00:00	4	Temperatura máxima	22.5
150067	7	Sololá	719	Santiago Atitlán	14	Cerro de Oro	5	Mayo	2023-05-20T00:00:00	2024-11-08T21:00:00	3	Temperatura mínima	21.8
150068	7	Sololá	719	Santiago Atitlán	14	Cerro de Oro	5	Mayo	2023-05-20T00:00:00	2024-11-08T21:00:00	5	Humedad	72
150069	7	Sololá	719	Santiago Atitlán	14	Cerro de Oro	5	Mayo	2023-05-20T00:00:00	2024-11-08T21:00:00	6	Velocidad del viento	4.8
150070	7	Sololá	719	Santiago Atitlán	14	Cerro de Oro	5	Mayo	2023-05-20T00:00:00	2024-11-08T21:00:00	7	Dirección del viento	4.83
150071	7	Sololá	719	Santiago Atitlán	14	Cerro de Oro	5	Mayo	2023-05-20T00:00:00	2024-11-08T21:00:00	1	Precipitación	0
150072	7	Sololá	719	Santiago Atitlán	14	Cerro de Oro	5	Mayo	2023-05-20T00:00:00	2024-11-08T21:00:00	8	Radiación solar	0
150073	7	Sololá	719	Santiago Atitlán	14	Cerro de Oro	5	Mayo	2023-05-20T00:00:00	2024-11-08T22:00:00	2	Temperatura media	21.6
150074	7	Sololá	719	Santiago Atitlán	14	Cerro de Oro	5	Mayo	2023-05-20T00:00:00	2024-11-08T22:00:00	4	Temperatura máxima	22
150075	7	Sololá	719	Santiago Atitlán	14	Cerro de Oro	5	Mayo	2023-05-20T00:00:00	2024-11-08T22:00:00	3	Temperatura mínima	21.5
150076	7	Sololá	719	Santiago Atitlán	14	Cerro de Oro	5	Mayo	2023-05-20T00:00:00	2024-11-08T22:00:00	5	Humedad	69
150077	7	Sololá	719	Santiago Atitlán	14	Cerro de Oro	5	Mayo	2023-05-20T00:00:00	2024-11-08T22:00:00	6	Velocidad del viento	3.2
150078	7	Sololá	719	Santiago Atitlán	14	Cerro de Oro	5	Mayo	2023-05-20T00:00:00	2024-11-08T22:00:00	7	Dirección del viento	3.22
150079	7	Sololá	719	Santiago Atitlán	14	Cerro de Oro	5	Mayo	2023-05-20T00:00:00	2024-11-08T22:00:00	1	Precipitación	0
150080	7	Sololá	719	Santiago Atitlán	14	Cerro de Oro	5	Mayo	2023-05-20T00:00:00	2024-11-08T22:00:00	8	Radiación solar	0
150081	7	Sololá	719	Santiago Atitlán	14	Cerro de Oro	5	Mayo	2023-05-20T00:00:00	2024-11-08T23:00:00	2	Temperatura media	21.6
150082	7	Sololá	719	Santiago Atitlán	14	Cerro de Oro	5	Mayo	2023-05-20T00:00:00	2024-11-08T23:00:00	4	Temperatura máxima	21.7
150083	7	Sololá	719	Santiago Atitlán	14	Cerro de Oro	5	Mayo	2023-05-20T00:00:00	2024-11-08T23:00:00	3	Temperatura mínima	21.1
150084	7	Sololá	719	Santiago Atitlán	14	Cerro de Oro	5	Mayo	2023-05-20T00:00:00	2024-11-08T23:00:00	5	Humedad	65
150085	7	Sololá	719	Santiago Atitlán	14	Cerro de Oro	5	Mayo	2023-05-20T00:00:00	2024-11-08T23:00:00	6	Velocidad del viento	4.8
150086	7	Sololá	719	Santiago Atitlán	14	Cerro de Oro	5	Mayo	2023-05-20T00:00:00	2024-11-08T23:00:00	7	Dirección del viento	4.83
150087	7	Sololá	719	Santiago Atitlán	14	Cerro de Oro	5	Mayo	2023-05-20T00:00:00	2024-11-08T23:00:00	1	Precipitación	0
150088	7	Sololá	719	Santiago Atitlán	14	Cerro de Oro	5	Mayo	2023-05-20T00:00:00	2024-11-08T23:00:00	8	Radiación solar	0
150089	7	Sololá	719	Santiago Atitlán	14	Cerro de Oro	5	Mayo	2023-05-21T00:00:00	2024-11-08T00:00:00	2	Temperatura media	21
150090	7	Sololá	719	Santiago Atitlán	14	Cerro de Oro	5	Mayo	2023-05-21T00:00:00	2024-11-08T00:00:00	4	Temperatura máxima	21.6
150091	7	Sololá	719	Santiago Atitlán	14	Cerro de Oro	5	Mayo	2023-05-21T00:00:00	2024-11-08T00:00:00	3	Temperatura mínima	21
150092	7	Sololá	719	Santiago Atitlán	14	Cerro de Oro	5	Mayo	2023-05-21T00:00:00	2024-11-08T00:00:00	5	Humedad	66
150093	7	Sololá	719	Santiago Atitlán	14	Cerro de Oro	5	Mayo	2023-05-21T00:00:00	2024-11-08T00:00:00	6	Velocidad del viento	4.8
150094	7	Sololá	719	Santiago Atitlán	14	Cerro de Oro	5	Mayo	2023-05-21T00:00:00	2024-11-08T00:00:00	7	Dirección del viento	4.83
150095	7	Sololá	719	Santiago Atitlán	14	Cerro de Oro	5	Mayo	2023-05-21T00:00:00	2024-11-08T00:00:00	1	Precipitación	0
150096	7	Sololá	719	Santiago Atitlán	14	Cerro de Oro	5	Mayo	2023-05-21T00:00:00	2024-11-08T00:00:00	8	Radiación solar	0
150097	7	Sololá	719	Santiago Atitlán	14	Cerro de Oro	5	Mayo	2023-05-21T00:00:00	2024-11-08T01:00:00	2	Temperatura media	20.6
150098	7	Sololá	719	Santiago Atitlán	14	Cerro de Oro	5	Mayo	2023-05-21T00:00:00	2024-11-08T01:00:00	4	Temperatura máxima	21
150099	7	Sololá	719	Santiago Atitlán	14	Cerro de Oro	5	Mayo	2023-05-21T00:00:00	2024-11-08T01:00:00	3	Temperatura mínima	20.6
150100	7	Sololá	719	Santiago Atitlán	14	Cerro de Oro	5	Mayo	2023-05-21T00:00:00	2024-11-08T01:00:00	5	Humedad	68
150101	7	Sololá	719	Santiago Atitlán	14	Cerro de Oro	5	Mayo	2023-05-21T00:00:00	2024-11-08T01:00:00	6	Velocidad del viento	6.4
150102	7	Sololá	719	Santiago Atitlán	14	Cerro de Oro	5	Mayo	2023-05-21T00:00:00	2024-11-08T01:00:00	7	Dirección del viento	6.44
150103	7	Sololá	719	Santiago Atitlán	14	Cerro de Oro	5	Mayo	2023-05-21T00:00:00	2024-11-08T01:00:00	1	Precipitación	0
150104	7	Sololá	719	Santiago Atitlán	14	Cerro de Oro	5	Mayo	2023-05-21T00:00:00	2024-11-08T01:00:00	8	Radiación solar	0
150105	7	Sololá	719	Santiago Atitlán	14	Cerro de Oro	5	Mayo	2023-05-21T00:00:00	2024-11-08T02:00:00	2	Temperatura media	19.6
150106	7	Sololá	719	Santiago Atitlán	14	Cerro de Oro	5	Mayo	2023-05-21T00:00:00	2024-11-08T02:00:00	4	Temperatura máxima	20.6
150107	7	Sololá	719	Santiago Atitlán	14	Cerro de Oro	5	Mayo	2023-05-21T00:00:00	2024-11-08T02:00:00	3	Temperatura mínima	19.6
150108	7	Sololá	719	Santiago Atitlán	14	Cerro de Oro	5	Mayo	2023-05-21T00:00:00	2024-11-08T02:00:00	5	Humedad	70
150109	7	Sololá	719	Santiago Atitlán	14	Cerro de Oro	5	Mayo	2023-05-21T00:00:00	2024-11-08T02:00:00	6	Velocidad del viento	3.2
150110	7	Sololá	719	Santiago Atitlán	14	Cerro de Oro	5	Mayo	2023-05-21T00:00:00	2024-11-08T02:00:00	7	Dirección del viento	3.22
150111	7	Sololá	719	Santiago Atitlán	14	Cerro de Oro	5	Mayo	2023-05-21T00:00:00	2024-11-08T02:00:00	1	Precipitación	0
150112	7	Sololá	719	Santiago Atitlán	14	Cerro de Oro	5	Mayo	2023-05-21T00:00:00	2024-11-08T02:00:00	8	Radiación solar	0
150113	7	Sololá	719	Santiago Atitlán	14	Cerro de Oro	5	Mayo	2023-05-21T00:00:00	2024-11-08T03:00:00	2	Temperatura media	19.6
150114	7	Sololá	719	Santiago Atitlán	14	Cerro de Oro	5	Mayo	2023-05-21T00:00:00	2024-11-08T03:00:00	4	Temperatura máxima	19.6
150115	7	Sololá	719	Santiago Atitlán	14	Cerro de Oro	5	Mayo	2023-05-21T00:00:00	2024-11-08T03:00:00	3	Temperatura mínima	19.3
150116	7	Sololá	719	Santiago Atitlán	14	Cerro de Oro	5	Mayo	2023-05-21T00:00:00	2024-11-08T03:00:00	5	Humedad	73
150117	7	Sololá	719	Santiago Atitlán	14	Cerro de Oro	5	Mayo	2023-05-21T00:00:00	2024-11-08T03:00:00	6	Velocidad del viento	3.2
150118	7	Sololá	719	Santiago Atitlán	14	Cerro de Oro	5	Mayo	2023-05-21T00:00:00	2024-11-08T03:00:00	7	Dirección del viento	3.22
150119	7	Sololá	719	Santiago Atitlán	14	Cerro de Oro	5	Mayo	2023-05-21T00:00:00	2024-11-08T03:00:00	1	Precipitación	0
150120	7	Sololá	719	Santiago Atitlán	14	Cerro de Oro	5	Mayo	2023-05-21T00:00:00	2024-11-08T03:00:00	8	Radiación solar	0
150121	7	Sololá	719	Santiago Atitlán	14	Cerro de Oro	5	Mayo	2023-05-21T00:00:00	2024-11-08T04:00:00	2	Temperatura media	19.2
150122	7	Sololá	719	Santiago Atitlán	14	Cerro de Oro	5	Mayo	2023-05-21T00:00:00	2024-11-08T04:00:00	4	Temperatura máxima	19.8
150123	7	Sololá	719	Santiago Atitlán	14	Cerro de Oro	5	Mayo	2023-05-21T00:00:00	2024-11-08T04:00:00	3	Temperatura mínima	19.2
150124	7	Sololá	719	Santiago Atitlán	14	Cerro de Oro	5	Mayo	2023-05-21T00:00:00	2024-11-08T04:00:00	5	Humedad	74
150125	7	Sololá	719	Santiago Atitlán	14	Cerro de Oro	5	Mayo	2023-05-21T00:00:00	2024-11-08T04:00:00	6	Velocidad del viento	3.2
150126	7	Sololá	719	Santiago Atitlán	14	Cerro de Oro	5	Mayo	2023-05-21T00:00:00	2024-11-08T04:00:00	7	Dirección del viento	3.22
150127	7	Sololá	719	Santiago Atitlán	14	Cerro de Oro	5	Mayo	2023-05-21T00:00:00	2024-11-08T04:00:00	1	Precipitación	0
150128	7	Sololá	719	Santiago Atitlán	14	Cerro de Oro	5	Mayo	2023-05-21T00:00:00	2024-11-08T04:00:00	8	Radiación solar	0
150129	7	Sololá	719	Santiago Atitlán	14	Cerro de Oro	5	Mayo	2023-05-21T00:00:00	2024-11-08T05:00:00	2	Temperatura media	19.6
150130	7	Sololá	719	Santiago Atitlán	14	Cerro de Oro	5	Mayo	2023-05-21T00:00:00	2024-11-08T05:00:00	4	Temperatura máxima	20
150131	7	Sololá	719	Santiago Atitlán	14	Cerro de Oro	5	Mayo	2023-05-21T00:00:00	2024-11-08T05:00:00	3	Temperatura mínima	19
150132	7	Sololá	719	Santiago Atitlán	14	Cerro de Oro	5	Mayo	2023-05-21T00:00:00	2024-11-08T05:00:00	5	Humedad	69
150133	7	Sololá	719	Santiago Atitlán	14	Cerro de Oro	5	Mayo	2023-05-21T00:00:00	2024-11-08T05:00:00	6	Velocidad del viento	4.8
150134	7	Sololá	719	Santiago Atitlán	14	Cerro de Oro	5	Mayo	2023-05-21T00:00:00	2024-11-08T05:00:00	7	Dirección del viento	4.83
150135	7	Sololá	719	Santiago Atitlán	14	Cerro de Oro	5	Mayo	2023-05-21T00:00:00	2024-11-08T05:00:00	1	Precipitación	0
150136	7	Sololá	719	Santiago Atitlán	14	Cerro de Oro	5	Mayo	2023-05-21T00:00:00	2024-11-08T05:00:00	8	Radiación solar	0
150137	7	Sololá	719	Santiago Atitlán	14	Cerro de Oro	5	Mayo	2023-05-21T00:00:00	2024-11-08T06:00:00	2	Temperatura media	19
150138	7	Sololá	719	Santiago Atitlán	14	Cerro de Oro	5	Mayo	2023-05-21T00:00:00	2024-11-08T06:00:00	4	Temperatura máxima	19.6
150139	7	Sololá	719	Santiago Atitlán	14	Cerro de Oro	5	Mayo	2023-05-21T00:00:00	2024-11-08T06:00:00	3	Temperatura mínima	19
150140	7	Sololá	719	Santiago Atitlán	14	Cerro de Oro	5	Mayo	2023-05-21T00:00:00	2024-11-08T06:00:00	5	Humedad	75
150141	7	Sololá	719	Santiago Atitlán	14	Cerro de Oro	5	Mayo	2023-05-21T00:00:00	2024-11-08T06:00:00	6	Velocidad del viento	1.6
150142	7	Sololá	719	Santiago Atitlán	14	Cerro de Oro	5	Mayo	2023-05-21T00:00:00	2024-11-08T06:00:00	7	Dirección del viento	1.61
150143	7	Sololá	719	Santiago Atitlán	14	Cerro de Oro	5	Mayo	2023-05-21T00:00:00	2024-11-08T06:00:00	1	Precipitación	0
150144	7	Sololá	719	Santiago Atitlán	14	Cerro de Oro	5	Mayo	2023-05-21T00:00:00	2024-11-08T06:00:00	8	Radiación solar	0
150145	7	Sololá	719	Santiago Atitlán	14	Cerro de Oro	5	Mayo	2023-05-21T00:00:00	2024-11-08T07:00:00	2	Temperatura media	19.3
150146	7	Sololá	719	Santiago Atitlán	14	Cerro de Oro	5	Mayo	2023-05-21T00:00:00	2024-11-08T07:00:00	4	Temperatura máxima	19.3
150147	7	Sololá	719	Santiago Atitlán	14	Cerro de Oro	5	Mayo	2023-05-21T00:00:00	2024-11-08T07:00:00	3	Temperatura mínima	18.6
150148	7	Sololá	719	Santiago Atitlán	14	Cerro de Oro	5	Mayo	2023-05-21T00:00:00	2024-11-08T07:00:00	5	Humedad	74
150149	7	Sololá	719	Santiago Atitlán	14	Cerro de Oro	5	Mayo	2023-05-21T00:00:00	2024-11-08T07:00:00	6	Velocidad del viento	4.8
150150	7	Sololá	719	Santiago Atitlán	14	Cerro de Oro	5	Mayo	2023-05-21T00:00:00	2024-11-08T07:00:00	7	Dirección del viento	4.83
150151	7	Sololá	719	Santiago Atitlán	14	Cerro de Oro	5	Mayo	2023-05-21T00:00:00	2024-11-08T07:00:00	1	Precipitación	0
150152	7	Sololá	719	Santiago Atitlán	14	Cerro de Oro	5	Mayo	2023-05-21T00:00:00	2024-11-08T07:00:00	8	Radiación solar	2
150153	7	Sololá	719	Santiago Atitlán	14	Cerro de Oro	5	Mayo	2023-05-21T00:00:00	2024-11-08T08:00:00	2	Temperatura media	20.1
150154	7	Sololá	719	Santiago Atitlán	14	Cerro de Oro	5	Mayo	2023-05-21T00:00:00	2024-11-08T08:00:00	4	Temperatura máxima	20.1
150155	7	Sololá	719	Santiago Atitlán	14	Cerro de Oro	5	Mayo	2023-05-21T00:00:00	2024-11-08T08:00:00	3	Temperatura mínima	19.2
150156	7	Sololá	719	Santiago Atitlán	14	Cerro de Oro	5	Mayo	2023-05-21T00:00:00	2024-11-08T08:00:00	5	Humedad	72
150157	7	Sololá	719	Santiago Atitlán	14	Cerro de Oro	5	Mayo	2023-05-21T00:00:00	2024-11-08T08:00:00	6	Velocidad del viento	4.8
150158	7	Sololá	719	Santiago Atitlán	14	Cerro de Oro	5	Mayo	2023-05-21T00:00:00	2024-11-08T08:00:00	7	Dirección del viento	4.83
150159	7	Sololá	719	Santiago Atitlán	14	Cerro de Oro	5	Mayo	2023-05-21T00:00:00	2024-11-08T08:00:00	1	Precipitación	0
150160	7	Sololá	719	Santiago Atitlán	14	Cerro de Oro	5	Mayo	2023-05-21T00:00:00	2024-11-08T08:00:00	8	Radiación solar	17
150161	7	Sololá	719	Santiago Atitlán	14	Cerro de Oro	5	Mayo	2023-05-21T00:00:00	2024-11-08T09:00:00	2	Temperatura media	21.4
150162	7	Sololá	719	Santiago Atitlán	14	Cerro de Oro	5	Mayo	2023-05-21T00:00:00	2024-11-08T09:00:00	4	Temperatura máxima	21.9
150163	7	Sololá	719	Santiago Atitlán	14	Cerro de Oro	5	Mayo	2023-05-21T00:00:00	2024-11-08T09:00:00	3	Temperatura mínima	20
150164	7	Sololá	719	Santiago Atitlán	14	Cerro de Oro	5	Mayo	2023-05-21T00:00:00	2024-11-08T09:00:00	5	Humedad	68
150165	7	Sololá	719	Santiago Atitlán	14	Cerro de Oro	5	Mayo	2023-05-21T00:00:00	2024-11-08T09:00:00	6	Velocidad del viento	6.4
150166	7	Sololá	719	Santiago Atitlán	14	Cerro de Oro	5	Mayo	2023-05-21T00:00:00	2024-11-08T09:00:00	7	Dirección del viento	6.44
150167	7	Sololá	719	Santiago Atitlán	14	Cerro de Oro	5	Mayo	2023-05-21T00:00:00	2024-11-08T09:00:00	1	Precipitación	0
150168	7	Sololá	719	Santiago Atitlán	14	Cerro de Oro	5	Mayo	2023-05-21T00:00:00	2024-11-08T09:00:00	8	Radiación solar	210
150169	7	Sololá	719	Santiago Atitlán	14	Cerro de Oro	5	Mayo	2023-05-21T00:00:00	2024-11-08T10:00:00	2	Temperatura media	22.3
150170	7	Sololá	719	Santiago Atitlán	14	Cerro de Oro	5	Mayo	2023-05-21T00:00:00	2024-11-08T10:00:00	4	Temperatura máxima	22.3
150171	7	Sololá	719	Santiago Atitlán	14	Cerro de Oro	5	Mayo	2023-05-21T00:00:00	2024-11-08T10:00:00	3	Temperatura mínima	21.4
150172	7	Sololá	719	Santiago Atitlán	14	Cerro de Oro	5	Mayo	2023-05-21T00:00:00	2024-11-08T10:00:00	5	Humedad	65
150173	7	Sololá	719	Santiago Atitlán	14	Cerro de Oro	5	Mayo	2023-05-21T00:00:00	2024-11-08T10:00:00	6	Velocidad del viento	4.8
150174	7	Sololá	719	Santiago Atitlán	14	Cerro de Oro	5	Mayo	2023-05-21T00:00:00	2024-11-08T10:00:00	7	Dirección del viento	4.83
150175	7	Sololá	719	Santiago Atitlán	14	Cerro de Oro	5	Mayo	2023-05-21T00:00:00	2024-11-08T10:00:00	1	Precipitación	0
150176	7	Sololá	719	Santiago Atitlán	14	Cerro de Oro	5	Mayo	2023-05-21T00:00:00	2024-11-08T10:00:00	8	Radiación solar	198
150177	7	Sololá	719	Santiago Atitlán	14	Cerro de Oro	5	Mayo	2023-05-21T00:00:00	2024-11-08T11:00:00	2	Temperatura media	23.5
150178	7	Sololá	719	Santiago Atitlán	14	Cerro de Oro	5	Mayo	2023-05-21T00:00:00	2024-11-08T11:00:00	4	Temperatura máxima	23.5
150179	7	Sololá	719	Santiago Atitlán	14	Cerro de Oro	5	Mayo	2023-05-21T00:00:00	2024-11-08T11:00:00	3	Temperatura mínima	22.3
150180	7	Sololá	719	Santiago Atitlán	14	Cerro de Oro	5	Mayo	2023-05-21T00:00:00	2024-11-08T11:00:00	5	Humedad	62
150181	7	Sololá	719	Santiago Atitlán	14	Cerro de Oro	5	Mayo	2023-05-21T00:00:00	2024-11-08T11:00:00	6	Velocidad del viento	3.2
150182	7	Sololá	719	Santiago Atitlán	14	Cerro de Oro	5	Mayo	2023-05-21T00:00:00	2024-11-08T11:00:00	7	Dirección del viento	3.22
150183	7	Sololá	719	Santiago Atitlán	14	Cerro de Oro	5	Mayo	2023-05-21T00:00:00	2024-11-08T11:00:00	1	Precipitación	0
150184	7	Sololá	719	Santiago Atitlán	14	Cerro de Oro	5	Mayo	2023-05-21T00:00:00	2024-11-08T11:00:00	8	Radiación solar	373
150185	7	Sololá	719	Santiago Atitlán	14	Cerro de Oro	5	Mayo	2023-05-21T00:00:00	2024-11-08T12:00:00	2	Temperatura media	24.4
150186	7	Sololá	719	Santiago Atitlán	14	Cerro de Oro	5	Mayo	2023-05-21T00:00:00	2024-11-08T12:00:00	4	Temperatura máxima	25.1
150187	7	Sololá	719	Santiago Atitlán	14	Cerro de Oro	5	Mayo	2023-05-21T00:00:00	2024-11-08T12:00:00	3	Temperatura mínima	23.3
150188	7	Sololá	719	Santiago Atitlán	14	Cerro de Oro	5	Mayo	2023-05-21T00:00:00	2024-11-08T12:00:00	5	Humedad	59
150189	7	Sololá	719	Santiago Atitlán	14	Cerro de Oro	5	Mayo	2023-05-21T00:00:00	2024-11-08T12:00:00	6	Velocidad del viento	3.2
150190	7	Sololá	719	Santiago Atitlán	14	Cerro de Oro	5	Mayo	2023-05-21T00:00:00	2024-11-08T12:00:00	7	Dirección del viento	3.22
150191	7	Sololá	719	Santiago Atitlán	14	Cerro de Oro	5	Mayo	2023-05-21T00:00:00	2024-11-08T12:00:00	1	Precipitación	0
150192	7	Sololá	719	Santiago Atitlán	14	Cerro de Oro	5	Mayo	2023-05-21T00:00:00	2024-11-08T12:00:00	8	Radiación solar	492
150193	7	Sololá	719	Santiago Atitlán	14	Cerro de Oro	5	Mayo	2023-05-21T00:00:00	2024-11-08T13:00:00	2	Temperatura media	22.4
150194	7	Sololá	719	Santiago Atitlán	14	Cerro de Oro	5	Mayo	2023-05-21T00:00:00	2024-11-08T13:00:00	4	Temperatura máxima	24.4
150195	7	Sololá	719	Santiago Atitlán	14	Cerro de Oro	5	Mayo	2023-05-21T00:00:00	2024-11-08T13:00:00	3	Temperatura mínima	22.3
150196	7	Sololá	719	Santiago Atitlán	14	Cerro de Oro	5	Mayo	2023-05-21T00:00:00	2024-11-08T13:00:00	5	Humedad	76
150197	7	Sololá	719	Santiago Atitlán	14	Cerro de Oro	5	Mayo	2023-05-21T00:00:00	2024-11-08T13:00:00	6	Velocidad del viento	8
150198	7	Sololá	719	Santiago Atitlán	14	Cerro de Oro	5	Mayo	2023-05-21T00:00:00	2024-11-08T13:00:00	7	Dirección del viento	8.05
150199	7	Sololá	719	Santiago Atitlán	14	Cerro de Oro	5	Mayo	2023-05-21T00:00:00	2024-11-08T13:00:00	1	Precipitación	0
150200	7	Sololá	719	Santiago Atitlán	14	Cerro de Oro	5	Mayo	2023-05-21T00:00:00	2024-11-08T13:00:00	8	Radiación solar	271
150201	7	Sololá	719	Santiago Atitlán	14	Cerro de Oro	5	Mayo	2023-05-21T00:00:00	2024-11-08T14:00:00	2	Temperatura media	22.3
150202	7	Sololá	719	Santiago Atitlán	14	Cerro de Oro	5	Mayo	2023-05-21T00:00:00	2024-11-08T14:00:00	4	Temperatura máxima	22.5
150203	7	Sololá	719	Santiago Atitlán	14	Cerro de Oro	5	Mayo	2023-05-21T00:00:00	2024-11-08T14:00:00	3	Temperatura mínima	21.8
150204	7	Sololá	719	Santiago Atitlán	14	Cerro de Oro	5	Mayo	2023-05-21T00:00:00	2024-11-08T14:00:00	5	Humedad	76
150205	7	Sololá	719	Santiago Atitlán	14	Cerro de Oro	5	Mayo	2023-05-21T00:00:00	2024-11-08T14:00:00	6	Velocidad del viento	6.4
150206	7	Sololá	719	Santiago Atitlán	14	Cerro de Oro	5	Mayo	2023-05-21T00:00:00	2024-11-08T14:00:00	7	Dirección del viento	6.44
150207	7	Sololá	719	Santiago Atitlán	14	Cerro de Oro	5	Mayo	2023-05-21T00:00:00	2024-11-08T14:00:00	1	Precipitación	0
150208	7	Sololá	719	Santiago Atitlán	14	Cerro de Oro	5	Mayo	2023-05-21T00:00:00	2024-11-08T14:00:00	8	Radiación solar	188
150209	7	Sololá	719	Santiago Atitlán	14	Cerro de Oro	5	Mayo	2023-05-21T00:00:00	2024-11-08T15:00:00	2	Temperatura media	21.3
150210	7	Sololá	719	Santiago Atitlán	14	Cerro de Oro	5	Mayo	2023-05-21T00:00:00	2024-11-08T15:00:00	4	Temperatura máxima	22.4
150211	7	Sololá	719	Santiago Atitlán	14	Cerro de Oro	5	Mayo	2023-05-21T00:00:00	2024-11-08T15:00:00	3	Temperatura mínima	21.3
150212	7	Sololá	719	Santiago Atitlán	14	Cerro de Oro	5	Mayo	2023-05-21T00:00:00	2024-11-08T15:00:00	5	Humedad	80
150213	7	Sololá	719	Santiago Atitlán	14	Cerro de Oro	5	Mayo	2023-05-21T00:00:00	2024-11-08T15:00:00	6	Velocidad del viento	8
150214	7	Sololá	719	Santiago Atitlán	14	Cerro de Oro	5	Mayo	2023-05-21T00:00:00	2024-11-08T15:00:00	7	Dirección del viento	8.05
150215	7	Sololá	719	Santiago Atitlán	14	Cerro de Oro	5	Mayo	2023-05-21T00:00:00	2024-11-08T15:00:00	1	Precipitación	0
150216	7	Sololá	719	Santiago Atitlán	14	Cerro de Oro	5	Mayo	2023-05-21T00:00:00	2024-11-08T15:00:00	8	Radiación solar	174
150217	7	Sololá	719	Santiago Atitlán	14	Cerro de Oro	5	Mayo	2023-05-21T00:00:00	2024-11-08T16:00:00	2	Temperatura media	23.3
150218	7	Sololá	719	Santiago Atitlán	14	Cerro de Oro	5	Mayo	2023-05-21T00:00:00	2024-11-08T16:00:00	4	Temperatura máxima	23.3
150219	7	Sololá	719	Santiago Atitlán	14	Cerro de Oro	5	Mayo	2023-05-21T00:00:00	2024-11-08T16:00:00	3	Temperatura mínima	21.3
150220	7	Sololá	719	Santiago Atitlán	14	Cerro de Oro	5	Mayo	2023-05-21T00:00:00	2024-11-08T16:00:00	5	Humedad	69
150221	7	Sololá	719	Santiago Atitlán	14	Cerro de Oro	5	Mayo	2023-05-21T00:00:00	2024-11-08T16:00:00	6	Velocidad del viento	4.8
150222	7	Sololá	719	Santiago Atitlán	14	Cerro de Oro	5	Mayo	2023-05-21T00:00:00	2024-11-08T16:00:00	7	Dirección del viento	4.83
150223	7	Sololá	719	Santiago Atitlán	14	Cerro de Oro	5	Mayo	2023-05-21T00:00:00	2024-11-08T16:00:00	1	Precipitación	0
150224	7	Sololá	719	Santiago Atitlán	14	Cerro de Oro	5	Mayo	2023-05-21T00:00:00	2024-11-08T16:00:00	8	Radiación solar	396
150225	7	Sololá	719	Santiago Atitlán	14	Cerro de Oro	5	Mayo	2023-05-21T00:00:00	2024-11-08T17:00:00	2	Temperatura media	23.1
150226	7	Sololá	719	Santiago Atitlán	14	Cerro de Oro	5	Mayo	2023-05-21T00:00:00	2024-11-08T17:00:00	4	Temperatura máxima	23.8
150227	7	Sololá	719	Santiago Atitlán	14	Cerro de Oro	5	Mayo	2023-05-21T00:00:00	2024-11-08T17:00:00	3	Temperatura mínima	22.8
150228	7	Sololá	719	Santiago Atitlán	14	Cerro de Oro	5	Mayo	2023-05-21T00:00:00	2024-11-08T17:00:00	5	Humedad	75
150229	7	Sololá	719	Santiago Atitlán	14	Cerro de Oro	5	Mayo	2023-05-21T00:00:00	2024-11-08T17:00:00	6	Velocidad del viento	3.2
150230	7	Sololá	719	Santiago Atitlán	14	Cerro de Oro	5	Mayo	2023-05-21T00:00:00	2024-11-08T17:00:00	7	Dirección del viento	3.22
150231	7	Sololá	719	Santiago Atitlán	14	Cerro de Oro	5	Mayo	2023-05-21T00:00:00	2024-11-08T17:00:00	1	Precipitación	0
150232	7	Sololá	719	Santiago Atitlán	14	Cerro de Oro	5	Mayo	2023-05-21T00:00:00	2024-11-08T17:00:00	8	Radiación solar	223
150233	7	Sololá	719	Santiago Atitlán	14	Cerro de Oro	5	Mayo	2023-05-21T00:00:00	2024-11-08T18:00:00	2	Temperatura media	21.3
150234	7	Sololá	719	Santiago Atitlán	14	Cerro de Oro	5	Mayo	2023-05-21T00:00:00	2024-11-08T18:00:00	4	Temperatura máxima	23.1
150235	7	Sololá	719	Santiago Atitlán	14	Cerro de Oro	5	Mayo	2023-05-21T00:00:00	2024-11-08T18:00:00	3	Temperatura mínima	21.3
150236	7	Sololá	719	Santiago Atitlán	14	Cerro de Oro	5	Mayo	2023-05-21T00:00:00	2024-11-08T18:00:00	5	Humedad	82
150237	7	Sololá	719	Santiago Atitlán	14	Cerro de Oro	5	Mayo	2023-05-21T00:00:00	2024-11-08T18:00:00	6	Velocidad del viento	9.7
150238	7	Sololá	719	Santiago Atitlán	14	Cerro de Oro	5	Mayo	2023-05-21T00:00:00	2024-11-08T18:00:00	7	Dirección del viento	9.66
150239	7	Sololá	719	Santiago Atitlán	14	Cerro de Oro	5	Mayo	2023-05-21T00:00:00	2024-11-08T18:00:00	1	Precipitación	0
150240	7	Sololá	719	Santiago Atitlán	14	Cerro de Oro	5	Mayo	2023-05-21T00:00:00	2024-11-08T18:00:00	8	Radiación solar	184
150241	7	Sololá	719	Santiago Atitlán	14	Cerro de Oro	5	Mayo	2023-05-21T00:00:00	2024-11-08T19:00:00	2	Temperatura media	20.4
150242	7	Sololá	719	Santiago Atitlán	14	Cerro de Oro	5	Mayo	2023-05-21T00:00:00	2024-11-08T19:00:00	4	Temperatura máxima	21.3
150243	7	Sololá	719	Santiago Atitlán	14	Cerro de Oro	5	Mayo	2023-05-21T00:00:00	2024-11-08T19:00:00	3	Temperatura mínima	20.3
150244	7	Sololá	719	Santiago Atitlán	14	Cerro de Oro	5	Mayo	2023-05-21T00:00:00	2024-11-08T19:00:00	5	Humedad	85
150245	7	Sololá	719	Santiago Atitlán	14	Cerro de Oro	5	Mayo	2023-05-21T00:00:00	2024-11-08T19:00:00	6	Velocidad del viento	6.4
150246	7	Sololá	719	Santiago Atitlán	14	Cerro de Oro	5	Mayo	2023-05-21T00:00:00	2024-11-08T19:00:00	7	Dirección del viento	6.44
150247	7	Sololá	719	Santiago Atitlán	14	Cerro de Oro	5	Mayo	2023-05-21T00:00:00	2024-11-08T19:00:00	1	Precipitación	0
150248	7	Sololá	719	Santiago Atitlán	14	Cerro de Oro	5	Mayo	2023-05-21T00:00:00	2024-11-08T19:00:00	8	Radiación solar	0
150249	7	Sololá	719	Santiago Atitlán	14	Cerro de Oro	5	Mayo	2023-05-21T00:00:00	2024-11-08T20:00:00	2	Temperatura media	19.5
150250	7	Sololá	719	Santiago Atitlán	14	Cerro de Oro	5	Mayo	2023-05-21T00:00:00	2024-11-08T20:00:00	4	Temperatura máxima	20.4
150251	7	Sololá	719	Santiago Atitlán	14	Cerro de Oro	5	Mayo	2023-05-21T00:00:00	2024-11-08T20:00:00	3	Temperatura mínima	19.5
150252	7	Sololá	719	Santiago Atitlán	14	Cerro de Oro	5	Mayo	2023-05-21T00:00:00	2024-11-08T20:00:00	5	Humedad	88
150253	7	Sololá	719	Santiago Atitlán	14	Cerro de Oro	5	Mayo	2023-05-21T00:00:00	2024-11-08T20:00:00	6	Velocidad del viento	3.2
150254	7	Sololá	719	Santiago Atitlán	14	Cerro de Oro	5	Mayo	2023-05-21T00:00:00	2024-11-08T20:00:00	7	Dirección del viento	3.22
150255	7	Sololá	719	Santiago Atitlán	14	Cerro de Oro	5	Mayo	2023-05-21T00:00:00	2024-11-08T20:00:00	1	Precipitación	0
150256	7	Sololá	719	Santiago Atitlán	14	Cerro de Oro	5	Mayo	2023-05-21T00:00:00	2024-11-08T20:00:00	8	Radiación solar	0
150257	7	Sololá	719	Santiago Atitlán	14	Cerro de Oro	5	Mayo	2023-05-21T00:00:00	2024-11-08T21:00:00	2	Temperatura media	20.6
150258	7	Sololá	719	Santiago Atitlán	14	Cerro de Oro	5	Mayo	2023-05-21T00:00:00	2024-11-08T21:00:00	4	Temperatura máxima	20.7
150259	7	Sololá	719	Santiago Atitlán	14	Cerro de Oro	5	Mayo	2023-05-21T00:00:00	2024-11-08T21:00:00	3	Temperatura mínima	19.5
150260	7	Sololá	719	Santiago Atitlán	14	Cerro de Oro	5	Mayo	2023-05-21T00:00:00	2024-11-08T21:00:00	5	Humedad	75
150261	7	Sololá	719	Santiago Atitlán	14	Cerro de Oro	5	Mayo	2023-05-21T00:00:00	2024-11-08T21:00:00	6	Velocidad del viento	3.2
150262	7	Sololá	719	Santiago Atitlán	14	Cerro de Oro	5	Mayo	2023-05-21T00:00:00	2024-11-08T21:00:00	7	Dirección del viento	3.22
150263	7	Sololá	719	Santiago Atitlán	14	Cerro de Oro	5	Mayo	2023-05-21T00:00:00	2024-11-08T21:00:00	1	Precipitación	0
150264	7	Sololá	719	Santiago Atitlán	14	Cerro de Oro	5	Mayo	2023-05-21T00:00:00	2024-11-08T21:00:00	8	Radiación solar	0
150265	7	Sololá	719	Santiago Atitlán	14	Cerro de Oro	5	Mayo	2023-05-21T00:00:00	2024-11-08T22:00:00	2	Temperatura media	21.4
150266	7	Sololá	719	Santiago Atitlán	14	Cerro de Oro	5	Mayo	2023-05-21T00:00:00	2024-11-08T22:00:00	4	Temperatura máxima	21.6
150267	7	Sololá	719	Santiago Atitlán	14	Cerro de Oro	5	Mayo	2023-05-21T00:00:00	2024-11-08T22:00:00	3	Temperatura mínima	20.7
150268	7	Sololá	719	Santiago Atitlán	14	Cerro de Oro	5	Mayo	2023-05-21T00:00:00	2024-11-08T22:00:00	5	Humedad	73
150269	7	Sololá	719	Santiago Atitlán	14	Cerro de Oro	5	Mayo	2023-05-21T00:00:00	2024-11-08T22:00:00	6	Velocidad del viento	4.8
150270	7	Sololá	719	Santiago Atitlán	14	Cerro de Oro	5	Mayo	2023-05-21T00:00:00	2024-11-08T22:00:00	7	Dirección del viento	4.83
150271	7	Sololá	719	Santiago Atitlán	14	Cerro de Oro	5	Mayo	2023-05-21T00:00:00	2024-11-08T22:00:00	1	Precipitación	0
150272	7	Sololá	719	Santiago Atitlán	14	Cerro de Oro	5	Mayo	2023-05-21T00:00:00	2024-11-08T22:00:00	8	Radiación solar	0
150273	7	Sololá	719	Santiago Atitlán	14	Cerro de Oro	5	Mayo	2023-05-21T00:00:00	2024-11-08T23:00:00	2	Temperatura media	20.7
150274	7	Sololá	719	Santiago Atitlán	14	Cerro de Oro	5	Mayo	2023-05-21T00:00:00	2024-11-08T23:00:00	4	Temperatura máxima	21.4
150275	7	Sololá	719	Santiago Atitlán	14	Cerro de Oro	5	Mayo	2023-05-21T00:00:00	2024-11-08T23:00:00	3	Temperatura mínima	20.7
150276	7	Sololá	719	Santiago Atitlán	14	Cerro de Oro	5	Mayo	2023-05-21T00:00:00	2024-11-08T23:00:00	5	Humedad	75
150277	7	Sololá	719	Santiago Atitlán	14	Cerro de Oro	5	Mayo	2023-05-21T00:00:00	2024-11-08T23:00:00	6	Velocidad del viento	3.2
150278	7	Sololá	719	Santiago Atitlán	14	Cerro de Oro	5	Mayo	2023-05-21T00:00:00	2024-11-08T23:00:00	7	Dirección del viento	3.22
150279	7	Sololá	719	Santiago Atitlán	14	Cerro de Oro	5	Mayo	2023-05-21T00:00:00	2024-11-08T23:00:00	1	Precipitación	0
150280	7	Sololá	719	Santiago Atitlán	14	Cerro de Oro	5	Mayo	2023-05-21T00:00:00	2024-11-08T23:00:00	8	Radiación solar	0
150281	7	Sololá	719	Santiago Atitlán	14	Cerro de Oro	5	Mayo	2023-05-22T00:00:00	2024-11-08T00:00:00	2	Temperatura media	20.2
150282	7	Sololá	719	Santiago Atitlán	14	Cerro de Oro	5	Mayo	2023-05-22T00:00:00	2024-11-08T00:00:00	4	Temperatura máxima	20.7
150283	7	Sololá	719	Santiago Atitlán	14	Cerro de Oro	5	Mayo	2023-05-22T00:00:00	2024-11-08T00:00:00	3	Temperatura mínima	20.1
150284	7	Sololá	719	Santiago Atitlán	14	Cerro de Oro	5	Mayo	2023-05-22T00:00:00	2024-11-08T00:00:00	5	Humedad	74
150285	7	Sololá	719	Santiago Atitlán	14	Cerro de Oro	5	Mayo	2023-05-22T00:00:00	2024-11-08T00:00:00	6	Velocidad del viento	4.8
150286	7	Sololá	719	Santiago Atitlán	14	Cerro de Oro	5	Mayo	2023-05-22T00:00:00	2024-11-08T00:00:00	7	Dirección del viento	4.83
150287	7	Sololá	719	Santiago Atitlán	14	Cerro de Oro	5	Mayo	2023-05-22T00:00:00	2024-11-08T00:00:00	1	Precipitación	0
150288	7	Sololá	719	Santiago Atitlán	14	Cerro de Oro	5	Mayo	2023-05-22T00:00:00	2024-11-08T00:00:00	8	Radiación solar	0
150289	7	Sololá	719	Santiago Atitlán	14	Cerro de Oro	5	Mayo	2023-05-22T00:00:00	2024-11-08T01:00:00	2	Temperatura media	19.7
150290	7	Sololá	719	Santiago Atitlán	14	Cerro de Oro	5	Mayo	2023-05-22T00:00:00	2024-11-08T01:00:00	4	Temperatura máxima	20.2
150291	7	Sololá	719	Santiago Atitlán	14	Cerro de Oro	5	Mayo	2023-05-22T00:00:00	2024-11-08T01:00:00	3	Temperatura mínima	19.4
150292	7	Sololá	719	Santiago Atitlán	14	Cerro de Oro	5	Mayo	2023-05-22T00:00:00	2024-11-08T01:00:00	5	Humedad	75
150293	7	Sololá	719	Santiago Atitlán	14	Cerro de Oro	5	Mayo	2023-05-22T00:00:00	2024-11-08T01:00:00	6	Velocidad del viento	6.4
150294	7	Sololá	719	Santiago Atitlán	14	Cerro de Oro	5	Mayo	2023-05-22T00:00:00	2024-11-08T01:00:00	7	Dirección del viento	6.44
150295	7	Sololá	719	Santiago Atitlán	14	Cerro de Oro	5	Mayo	2023-05-22T00:00:00	2024-11-08T01:00:00	1	Precipitación	0
150296	7	Sololá	719	Santiago Atitlán	14	Cerro de Oro	5	Mayo	2023-05-22T00:00:00	2024-11-08T01:00:00	8	Radiación solar	0
150297	7	Sololá	719	Santiago Atitlán	14	Cerro de Oro	5	Mayo	2023-05-22T00:00:00	2024-11-08T02:00:00	2	Temperatura media	19.7
150298	7	Sololá	719	Santiago Atitlán	14	Cerro de Oro	5	Mayo	2023-05-22T00:00:00	2024-11-08T02:00:00	4	Temperatura máxima	19.8
150299	7	Sololá	719	Santiago Atitlán	14	Cerro de Oro	5	Mayo	2023-05-22T00:00:00	2024-11-08T02:00:00	3	Temperatura mínima	19.3
150300	7	Sololá	719	Santiago Atitlán	14	Cerro de Oro	5	Mayo	2023-05-22T00:00:00	2024-11-08T02:00:00	5	Humedad	75
150301	7	Sololá	719	Santiago Atitlán	14	Cerro de Oro	5	Mayo	2023-05-22T00:00:00	2024-11-08T02:00:00	6	Velocidad del viento	3.2
150302	7	Sololá	719	Santiago Atitlán	14	Cerro de Oro	5	Mayo	2023-05-22T00:00:00	2024-11-08T02:00:00	7	Dirección del viento	3.22
150303	7	Sololá	719	Santiago Atitlán	14	Cerro de Oro	5	Mayo	2023-05-22T00:00:00	2024-11-08T02:00:00	1	Precipitación	0
150304	7	Sololá	719	Santiago Atitlán	14	Cerro de Oro	5	Mayo	2023-05-22T00:00:00	2024-11-08T02:00:00	8	Radiación solar	0
150305	7	Sololá	719	Santiago Atitlán	14	Cerro de Oro	5	Mayo	2023-05-22T00:00:00	2024-11-08T03:00:00	2	Temperatura media	19.3
150306	7	Sololá	719	Santiago Atitlán	14	Cerro de Oro	5	Mayo	2023-05-22T00:00:00	2024-11-08T03:00:00	4	Temperatura máxima	19.7
150307	7	Sololá	719	Santiago Atitlán	14	Cerro de Oro	5	Mayo	2023-05-22T00:00:00	2024-11-08T03:00:00	3	Temperatura mínima	19.2
150308	7	Sololá	719	Santiago Atitlán	14	Cerro de Oro	5	Mayo	2023-05-22T00:00:00	2024-11-08T03:00:00	5	Humedad	78
150309	7	Sololá	719	Santiago Atitlán	14	Cerro de Oro	5	Mayo	2023-05-22T00:00:00	2024-11-08T03:00:00	6	Velocidad del viento	3.2
150310	7	Sololá	719	Santiago Atitlán	14	Cerro de Oro	5	Mayo	2023-05-22T00:00:00	2024-11-08T03:00:00	7	Dirección del viento	3.22
150311	7	Sololá	719	Santiago Atitlán	14	Cerro de Oro	5	Mayo	2023-05-22T00:00:00	2024-11-08T03:00:00	1	Precipitación	0
150312	7	Sololá	719	Santiago Atitlán	14	Cerro de Oro	5	Mayo	2023-05-22T00:00:00	2024-11-08T03:00:00	8	Radiación solar	0
150313	7	Sololá	719	Santiago Atitlán	14	Cerro de Oro	5	Mayo	2023-05-22T00:00:00	2024-11-08T04:00:00	2	Temperatura media	19.4
150314	7	Sololá	719	Santiago Atitlán	14	Cerro de Oro	5	Mayo	2023-05-22T00:00:00	2024-11-08T04:00:00	4	Temperatura máxima	19.8
150315	7	Sololá	719	Santiago Atitlán	14	Cerro de Oro	5	Mayo	2023-05-22T00:00:00	2024-11-08T04:00:00	3	Temperatura mínima	19.1
150316	7	Sololá	719	Santiago Atitlán	14	Cerro de Oro	5	Mayo	2023-05-22T00:00:00	2024-11-08T04:00:00	5	Humedad	79
150317	7	Sololá	719	Santiago Atitlán	14	Cerro de Oro	5	Mayo	2023-05-22T00:00:00	2024-11-08T04:00:00	6	Velocidad del viento	3.2
150318	7	Sololá	719	Santiago Atitlán	14	Cerro de Oro	5	Mayo	2023-05-22T00:00:00	2024-11-08T04:00:00	7	Dirección del viento	3.22
150319	7	Sololá	719	Santiago Atitlán	14	Cerro de Oro	5	Mayo	2023-05-22T00:00:00	2024-11-08T04:00:00	1	Precipitación	0
150320	7	Sololá	719	Santiago Atitlán	14	Cerro de Oro	5	Mayo	2023-05-22T00:00:00	2024-11-08T04:00:00	8	Radiación solar	0
150321	7	Sololá	719	Santiago Atitlán	14	Cerro de Oro	5	Mayo	2023-05-22T00:00:00	2024-11-08T05:00:00	2	Temperatura media	19.6
150322	7	Sololá	719	Santiago Atitlán	14	Cerro de Oro	5	Mayo	2023-05-22T00:00:00	2024-11-08T05:00:00	4	Temperatura máxima	20.1
150323	7	Sololá	719	Santiago Atitlán	14	Cerro de Oro	5	Mayo	2023-05-22T00:00:00	2024-11-08T05:00:00	3	Temperatura mínima	19.4
150324	7	Sololá	719	Santiago Atitlán	14	Cerro de Oro	5	Mayo	2023-05-22T00:00:00	2024-11-08T05:00:00	5	Humedad	80
150325	7	Sololá	719	Santiago Atitlán	14	Cerro de Oro	5	Mayo	2023-05-22T00:00:00	2024-11-08T05:00:00	6	Velocidad del viento	3.2
150326	7	Sololá	719	Santiago Atitlán	14	Cerro de Oro	5	Mayo	2023-05-22T00:00:00	2024-11-08T05:00:00	7	Dirección del viento	3.22
150327	7	Sololá	719	Santiago Atitlán	14	Cerro de Oro	5	Mayo	2023-05-22T00:00:00	2024-11-08T05:00:00	1	Precipitación	0
150328	7	Sololá	719	Santiago Atitlán	14	Cerro de Oro	5	Mayo	2023-05-22T00:00:00	2024-11-08T05:00:00	8	Radiación solar	0
150329	7	Sololá	719	Santiago Atitlán	14	Cerro de Oro	5	Mayo	2023-05-22T00:00:00	2024-11-08T06:00:00	2	Temperatura media	18.3
150330	7	Sololá	719	Santiago Atitlán	14	Cerro de Oro	5	Mayo	2023-05-22T00:00:00	2024-11-08T06:00:00	4	Temperatura máxima	19.7
150331	7	Sololá	719	Santiago Atitlán	14	Cerro de Oro	5	Mayo	2023-05-22T00:00:00	2024-11-08T06:00:00	3	Temperatura mínima	18.3
150332	7	Sololá	719	Santiago Atitlán	14	Cerro de Oro	5	Mayo	2023-05-22T00:00:00	2024-11-08T06:00:00	5	Humedad	86
150333	7	Sololá	719	Santiago Atitlán	14	Cerro de Oro	5	Mayo	2023-05-22T00:00:00	2024-11-08T06:00:00	6	Velocidad del viento	3.2
150334	7	Sololá	719	Santiago Atitlán	14	Cerro de Oro	5	Mayo	2023-05-22T00:00:00	2024-11-08T06:00:00	7	Dirección del viento	3.22
150335	7	Sololá	719	Santiago Atitlán	14	Cerro de Oro	5	Mayo	2023-05-22T00:00:00	2024-11-08T06:00:00	1	Precipitación	0
150336	7	Sololá	719	Santiago Atitlán	14	Cerro de Oro	5	Mayo	2023-05-22T00:00:00	2024-11-08T06:00:00	8	Radiación solar	0
150337	7	Sololá	719	Santiago Atitlán	14	Cerro de Oro	5	Mayo	2023-05-22T00:00:00	2024-11-08T07:00:00	2	Temperatura media	18.8
150338	7	Sololá	719	Santiago Atitlán	14	Cerro de Oro	5	Mayo	2023-05-22T00:00:00	2024-11-08T07:00:00	4	Temperatura máxima	18.8
150339	7	Sololá	719	Santiago Atitlán	14	Cerro de Oro	5	Mayo	2023-05-22T00:00:00	2024-11-08T07:00:00	3	Temperatura mínima	18.2
150340	7	Sololá	719	Santiago Atitlán	14	Cerro de Oro	5	Mayo	2023-05-22T00:00:00	2024-11-08T07:00:00	5	Humedad	82
150341	7	Sololá	719	Santiago Atitlán	14	Cerro de Oro	5	Mayo	2023-05-22T00:00:00	2024-11-08T07:00:00	6	Velocidad del viento	4.8
150342	7	Sololá	719	Santiago Atitlán	14	Cerro de Oro	5	Mayo	2023-05-22T00:00:00	2024-11-08T07:00:00	7	Dirección del viento	4.83
150343	7	Sololá	719	Santiago Atitlán	14	Cerro de Oro	5	Mayo	2023-05-22T00:00:00	2024-11-08T07:00:00	1	Precipitación	0
150344	7	Sololá	719	Santiago Atitlán	14	Cerro de Oro	5	Mayo	2023-05-22T00:00:00	2024-11-08T07:00:00	8	Radiación solar	1
150345	7	Sololá	719	Santiago Atitlán	14	Cerro de Oro	5	Mayo	2023-05-22T00:00:00	2024-11-08T08:00:00	2	Temperatura media	19.8
150346	7	Sololá	719	Santiago Atitlán	14	Cerro de Oro	5	Mayo	2023-05-22T00:00:00	2024-11-08T08:00:00	4	Temperatura máxima	19.8
150347	7	Sololá	719	Santiago Atitlán	14	Cerro de Oro	5	Mayo	2023-05-22T00:00:00	2024-11-08T08:00:00	3	Temperatura mínima	18.9
150348	7	Sololá	719	Santiago Atitlán	14	Cerro de Oro	5	Mayo	2023-05-22T00:00:00	2024-11-08T08:00:00	5	Humedad	77
150349	7	Sololá	719	Santiago Atitlán	14	Cerro de Oro	5	Mayo	2023-05-22T00:00:00	2024-11-08T08:00:00	6	Velocidad del viento	3.2
150350	7	Sololá	719	Santiago Atitlán	14	Cerro de Oro	5	Mayo	2023-05-22T00:00:00	2024-11-08T08:00:00	7	Dirección del viento	3.22
150351	7	Sololá	719	Santiago Atitlán	14	Cerro de Oro	5	Mayo	2023-05-22T00:00:00	2024-11-08T08:00:00	1	Precipitación	0
150352	7	Sololá	719	Santiago Atitlán	14	Cerro de Oro	5	Mayo	2023-05-22T00:00:00	2024-11-08T08:00:00	8	Radiación solar	57
150353	7	Sololá	719	Santiago Atitlán	14	Cerro de Oro	5	Mayo	2023-05-22T00:00:00	2024-11-08T09:00:00	2	Temperatura media	21.2
150354	7	Sololá	719	Santiago Atitlán	14	Cerro de Oro	5	Mayo	2023-05-22T00:00:00	2024-11-08T09:00:00	4	Temperatura máxima	21.2
150355	7	Sololá	719	Santiago Atitlán	14	Cerro de Oro	5	Mayo	2023-05-22T00:00:00	2024-11-08T09:00:00	3	Temperatura mínima	19.8
150356	7	Sololá	719	Santiago Atitlán	14	Cerro de Oro	5	Mayo	2023-05-22T00:00:00	2024-11-08T09:00:00	5	Humedad	76
150357	7	Sololá	719	Santiago Atitlán	14	Cerro de Oro	5	Mayo	2023-05-22T00:00:00	2024-11-08T09:00:00	6	Velocidad del viento	1.6
150358	7	Sololá	719	Santiago Atitlán	14	Cerro de Oro	5	Mayo	2023-05-22T00:00:00	2024-11-08T09:00:00	7	Dirección del viento	1.61
150359	7	Sololá	719	Santiago Atitlán	14	Cerro de Oro	5	Mayo	2023-05-22T00:00:00	2024-11-08T09:00:00	1	Precipitación	0
150360	7	Sololá	719	Santiago Atitlán	14	Cerro de Oro	5	Mayo	2023-05-22T00:00:00	2024-11-08T09:00:00	8	Radiación solar	170
150361	7	Sololá	719	Santiago Atitlán	14	Cerro de Oro	5	Mayo	2023-05-22T00:00:00	2024-11-08T10:00:00	2	Temperatura media	21.8
150362	7	Sololá	719	Santiago Atitlán	14	Cerro de Oro	5	Mayo	2023-05-22T00:00:00	2024-11-08T10:00:00	4	Temperatura máxima	21.9
150363	7	Sololá	719	Santiago Atitlán	14	Cerro de Oro	5	Mayo	2023-05-22T00:00:00	2024-11-08T10:00:00	3	Temperatura mínima	21.2
150364	7	Sololá	719	Santiago Atitlán	14	Cerro de Oro	5	Mayo	2023-05-22T00:00:00	2024-11-08T10:00:00	5	Humedad	71
150365	7	Sololá	719	Santiago Atitlán	14	Cerro de Oro	5	Mayo	2023-05-22T00:00:00	2024-11-08T10:00:00	6	Velocidad del viento	1.6
150366	7	Sololá	719	Santiago Atitlán	14	Cerro de Oro	5	Mayo	2023-05-22T00:00:00	2024-11-08T10:00:00	7	Dirección del viento	1.61
150367	7	Sololá	719	Santiago Atitlán	14	Cerro de Oro	5	Mayo	2023-05-22T00:00:00	2024-11-08T10:00:00	1	Precipitación	0
150368	7	Sololá	719	Santiago Atitlán	14	Cerro de Oro	5	Mayo	2023-05-22T00:00:00	2024-11-08T10:00:00	8	Radiación solar	304
150369	7	Sololá	719	Santiago Atitlán	14	Cerro de Oro	5	Mayo	2023-05-22T00:00:00	2024-11-08T11:00:00	2	Temperatura media	23.8
150370	7	Sololá	719	Santiago Atitlán	14	Cerro de Oro	5	Mayo	2023-05-22T00:00:00	2024-11-08T11:00:00	4	Temperatura máxima	23.8
150371	7	Sololá	719	Santiago Atitlán	14	Cerro de Oro	5	Mayo	2023-05-22T00:00:00	2024-11-08T11:00:00	3	Temperatura mínima	21.8
150372	7	Sololá	719	Santiago Atitlán	14	Cerro de Oro	5	Mayo	2023-05-22T00:00:00	2024-11-08T11:00:00	5	Humedad	68
150373	7	Sololá	719	Santiago Atitlán	14	Cerro de Oro	5	Mayo	2023-05-22T00:00:00	2024-11-08T11:00:00	6	Velocidad del viento	4.8
150374	7	Sololá	719	Santiago Atitlán	14	Cerro de Oro	5	Mayo	2023-05-22T00:00:00	2024-11-08T11:00:00	7	Dirección del viento	4.83
150375	7	Sololá	719	Santiago Atitlán	14	Cerro de Oro	5	Mayo	2023-05-22T00:00:00	2024-11-08T11:00:00	1	Precipitación	0
150376	7	Sololá	719	Santiago Atitlán	14	Cerro de Oro	5	Mayo	2023-05-22T00:00:00	2024-11-08T11:00:00	8	Radiación solar	509
150377	7	Sololá	719	Santiago Atitlán	14	Cerro de Oro	5	Mayo	2023-05-22T00:00:00	2024-11-08T12:00:00	2	Temperatura media	25.3
150378	7	Sololá	719	Santiago Atitlán	14	Cerro de Oro	5	Mayo	2023-05-22T00:00:00	2024-11-08T12:00:00	4	Temperatura máxima	25.8
150379	7	Sololá	719	Santiago Atitlán	14	Cerro de Oro	5	Mayo	2023-05-22T00:00:00	2024-11-08T12:00:00	3	Temperatura mínima	23.8
150380	7	Sololá	719	Santiago Atitlán	14	Cerro de Oro	5	Mayo	2023-05-22T00:00:00	2024-11-08T12:00:00	5	Humedad	68
150381	7	Sololá	719	Santiago Atitlán	14	Cerro de Oro	5	Mayo	2023-05-22T00:00:00	2024-11-08T12:00:00	6	Velocidad del viento	6.4
150382	7	Sololá	719	Santiago Atitlán	14	Cerro de Oro	5	Mayo	2023-05-22T00:00:00	2024-11-08T12:00:00	7	Dirección del viento	6.44
150383	7	Sololá	719	Santiago Atitlán	14	Cerro de Oro	5	Mayo	2023-05-22T00:00:00	2024-11-08T12:00:00	1	Precipitación	0
150384	7	Sololá	719	Santiago Atitlán	14	Cerro de Oro	5	Mayo	2023-05-22T00:00:00	2024-11-08T12:00:00	8	Radiación solar	832
150385	7	Sololá	719	Santiago Atitlán	14	Cerro de Oro	5	Mayo	2023-05-22T00:00:00	2024-11-08T13:00:00	2	Temperatura media	22
150386	7	Sololá	719	Santiago Atitlán	14	Cerro de Oro	5	Mayo	2023-05-22T00:00:00	2024-11-08T13:00:00	4	Temperatura máxima	25.2
150387	7	Sololá	719	Santiago Atitlán	14	Cerro de Oro	5	Mayo	2023-05-22T00:00:00	2024-11-08T13:00:00	3	Temperatura mínima	21.8
150388	7	Sololá	719	Santiago Atitlán	14	Cerro de Oro	5	Mayo	2023-05-22T00:00:00	2024-11-08T13:00:00	5	Humedad	81
150389	7	Sololá	719	Santiago Atitlán	14	Cerro de Oro	5	Mayo	2023-05-22T00:00:00	2024-11-08T13:00:00	6	Velocidad del viento	12.9
150390	7	Sololá	719	Santiago Atitlán	14	Cerro de Oro	5	Mayo	2023-05-22T00:00:00	2024-11-08T13:00:00	7	Dirección del viento	12.87
150391	7	Sololá	719	Santiago Atitlán	14	Cerro de Oro	5	Mayo	2023-05-22T00:00:00	2024-11-08T13:00:00	1	Precipitación	0
150392	7	Sololá	719	Santiago Atitlán	14	Cerro de Oro	5	Mayo	2023-05-22T00:00:00	2024-11-08T13:00:00	8	Radiación solar	309
150393	7	Sololá	719	Santiago Atitlán	14	Cerro de Oro	5	Mayo	2023-05-22T00:00:00	2024-11-08T14:00:00	2	Temperatura media	23.7
150394	7	Sololá	719	Santiago Atitlán	14	Cerro de Oro	5	Mayo	2023-05-22T00:00:00	2024-11-08T14:00:00	4	Temperatura máxima	23.7
150395	7	Sololá	719	Santiago Atitlán	14	Cerro de Oro	5	Mayo	2023-05-22T00:00:00	2024-11-08T14:00:00	3	Temperatura mínima	22
150396	7	Sololá	719	Santiago Atitlán	14	Cerro de Oro	5	Mayo	2023-05-22T00:00:00	2024-11-08T14:00:00	5	Humedad	74
150397	7	Sololá	719	Santiago Atitlán	14	Cerro de Oro	5	Mayo	2023-05-22T00:00:00	2024-11-08T14:00:00	6	Velocidad del viento	9.7
150398	7	Sololá	719	Santiago Atitlán	14	Cerro de Oro	5	Mayo	2023-05-22T00:00:00	2024-11-08T14:00:00	7	Dirección del viento	9.66
150399	7	Sololá	719	Santiago Atitlán	14	Cerro de Oro	5	Mayo	2023-05-22T00:00:00	2024-11-08T14:00:00	1	Precipitación	0
150400	7	Sololá	719	Santiago Atitlán	14	Cerro de Oro	5	Mayo	2023-05-22T00:00:00	2024-11-08T14:00:00	8	Radiación solar	445
150401	7	Sololá	719	Santiago Atitlán	14	Cerro de Oro	5	Mayo	2023-05-22T00:00:00	2024-11-08T15:00:00	2	Temperatura media	23.1
150402	7	Sololá	719	Santiago Atitlán	14	Cerro de Oro	5	Mayo	2023-05-22T00:00:00	2024-11-08T15:00:00	4	Temperatura máxima	23.9
150403	7	Sololá	719	Santiago Atitlán	14	Cerro de Oro	5	Mayo	2023-05-22T00:00:00	2024-11-08T15:00:00	3	Temperatura mínima	22.9
150404	7	Sololá	719	Santiago Atitlán	14	Cerro de Oro	5	Mayo	2023-05-22T00:00:00	2024-11-08T15:00:00	5	Humedad	77
150405	7	Sololá	719	Santiago Atitlán	14	Cerro de Oro	5	Mayo	2023-05-22T00:00:00	2024-11-08T15:00:00	6	Velocidad del viento	9.7
150406	7	Sololá	719	Santiago Atitlán	14	Cerro de Oro	5	Mayo	2023-05-22T00:00:00	2024-11-08T15:00:00	7	Dirección del viento	9.66
150407	7	Sololá	719	Santiago Atitlán	14	Cerro de Oro	5	Mayo	2023-05-22T00:00:00	2024-11-08T15:00:00	1	Precipitación	0
150408	7	Sololá	719	Santiago Atitlán	14	Cerro de Oro	5	Mayo	2023-05-22T00:00:00	2024-11-08T15:00:00	8	Radiación solar	305
150409	7	Sololá	719	Santiago Atitlán	14	Cerro de Oro	5	Mayo	2023-05-22T00:00:00	2024-11-08T16:00:00	2	Temperatura media	22.7
150410	7	Sololá	719	Santiago Atitlán	14	Cerro de Oro	5	Mayo	2023-05-22T00:00:00	2024-11-08T16:00:00	4	Temperatura máxima	23.1
150411	7	Sololá	719	Santiago Atitlán	14	Cerro de Oro	5	Mayo	2023-05-22T00:00:00	2024-11-08T16:00:00	3	Temperatura mínima	22.7
150412	7	Sololá	719	Santiago Atitlán	14	Cerro de Oro	5	Mayo	2023-05-22T00:00:00	2024-11-08T16:00:00	5	Humedad	78
150413	7	Sololá	719	Santiago Atitlán	14	Cerro de Oro	5	Mayo	2023-05-22T00:00:00	2024-11-08T16:00:00	6	Velocidad del viento	8
150414	7	Sololá	719	Santiago Atitlán	14	Cerro de Oro	5	Mayo	2023-05-22T00:00:00	2024-11-08T16:00:00	7	Dirección del viento	8.05
150415	7	Sololá	719	Santiago Atitlán	14	Cerro de Oro	5	Mayo	2023-05-22T00:00:00	2024-11-08T16:00:00	1	Precipitación	0
150416	7	Sololá	719	Santiago Atitlán	14	Cerro de Oro	5	Mayo	2023-05-22T00:00:00	2024-11-08T16:00:00	8	Radiación solar	232
150417	7	Sololá	719	Santiago Atitlán	14	Cerro de Oro	5	Mayo	2023-05-22T00:00:00	2024-11-08T17:00:00	2	Temperatura media	23.2
150418	7	Sololá	719	Santiago Atitlán	14	Cerro de Oro	5	Mayo	2023-05-22T00:00:00	2024-11-08T17:00:00	4	Temperatura máxima	23.5
150419	7	Sololá	719	Santiago Atitlán	14	Cerro de Oro	5	Mayo	2023-05-22T00:00:00	2024-11-08T17:00:00	3	Temperatura mínima	22.4
150420	7	Sololá	719	Santiago Atitlán	14	Cerro de Oro	5	Mayo	2023-05-22T00:00:00	2024-11-08T17:00:00	5	Humedad	78
150421	7	Sololá	719	Santiago Atitlán	14	Cerro de Oro	5	Mayo	2023-05-22T00:00:00	2024-11-08T17:00:00	6	Velocidad del viento	4.8
150422	7	Sololá	719	Santiago Atitlán	14	Cerro de Oro	5	Mayo	2023-05-22T00:00:00	2024-11-08T17:00:00	7	Dirección del viento	4.83
150423	7	Sololá	719	Santiago Atitlán	14	Cerro de Oro	5	Mayo	2023-05-22T00:00:00	2024-11-08T17:00:00	1	Precipitación	0
150424	7	Sololá	719	Santiago Atitlán	14	Cerro de Oro	5	Mayo	2023-05-22T00:00:00	2024-11-08T17:00:00	8	Radiación solar	207
150425	7	Sololá	719	Santiago Atitlán	14	Cerro de Oro	5	Mayo	2023-05-22T00:00:00	2024-11-08T18:00:00	2	Temperatura media	22.6
150426	7	Sololá	719	Santiago Atitlán	14	Cerro de Oro	5	Mayo	2023-05-22T00:00:00	2024-11-08T18:00:00	4	Temperatura máxima	23.2
150427	7	Sololá	719	Santiago Atitlán	14	Cerro de Oro	5	Mayo	2023-05-22T00:00:00	2024-11-08T18:00:00	3	Temperatura mínima	22.6
150428	7	Sololá	719	Santiago Atitlán	14	Cerro de Oro	5	Mayo	2023-05-22T00:00:00	2024-11-08T18:00:00	5	Humedad	81
150429	7	Sololá	719	Santiago Atitlán	14	Cerro de Oro	5	Mayo	2023-05-22T00:00:00	2024-11-08T18:00:00	6	Velocidad del viento	6.4
150430	7	Sololá	719	Santiago Atitlán	14	Cerro de Oro	5	Mayo	2023-05-22T00:00:00	2024-11-08T18:00:00	7	Dirección del viento	6.44
150431	7	Sololá	719	Santiago Atitlán	14	Cerro de Oro	5	Mayo	2023-05-22T00:00:00	2024-11-08T18:00:00	1	Precipitación	0
150432	7	Sololá	719	Santiago Atitlán	14	Cerro de Oro	5	Mayo	2023-05-22T00:00:00	2024-11-08T18:00:00	8	Radiación solar	191
150433	7	Sololá	719	Santiago Atitlán	14	Cerro de Oro	5	Mayo	2023-05-22T00:00:00	2024-11-08T19:00:00	2	Temperatura media	21.2
150434	7	Sololá	719	Santiago Atitlán	14	Cerro de Oro	5	Mayo	2023-05-22T00:00:00	2024-11-08T19:00:00	4	Temperatura máxima	22.7
150435	7	Sololá	719	Santiago Atitlán	14	Cerro de Oro	5	Mayo	2023-05-22T00:00:00	2024-11-08T19:00:00	3	Temperatura mínima	21.2
150436	7	Sololá	719	Santiago Atitlán	14	Cerro de Oro	5	Mayo	2023-05-22T00:00:00	2024-11-08T19:00:00	5	Humedad	84
150437	7	Sololá	719	Santiago Atitlán	14	Cerro de Oro	5	Mayo	2023-05-22T00:00:00	2024-11-08T19:00:00	6	Velocidad del viento	6.4
150438	7	Sololá	719	Santiago Atitlán	14	Cerro de Oro	5	Mayo	2023-05-22T00:00:00	2024-11-08T19:00:00	7	Dirección del viento	6.44
150439	7	Sololá	719	Santiago Atitlán	14	Cerro de Oro	5	Mayo	2023-05-22T00:00:00	2024-11-08T19:00:00	1	Precipitación	0
150440	7	Sololá	719	Santiago Atitlán	14	Cerro de Oro	5	Mayo	2023-05-22T00:00:00	2024-11-08T19:00:00	8	Radiación solar	0
150441	7	Sololá	719	Santiago Atitlán	14	Cerro de Oro	5	Mayo	2023-05-22T00:00:00	2024-11-08T20:00:00	2	Temperatura media	21.2
150442	7	Sololá	719	Santiago Atitlán	14	Cerro de Oro	5	Mayo	2023-05-22T00:00:00	2024-11-08T20:00:00	4	Temperatura máxima	21.3
150443	7	Sololá	719	Santiago Atitlán	14	Cerro de Oro	5	Mayo	2023-05-22T00:00:00	2024-11-08T20:00:00	3	Temperatura mínima	20.9
150444	7	Sololá	719	Santiago Atitlán	14	Cerro de Oro	5	Mayo	2023-05-22T00:00:00	2024-11-08T20:00:00	5	Humedad	82
150445	7	Sololá	719	Santiago Atitlán	14	Cerro de Oro	5	Mayo	2023-05-22T00:00:00	2024-11-08T20:00:00	6	Velocidad del viento	8
150446	7	Sololá	719	Santiago Atitlán	14	Cerro de Oro	5	Mayo	2023-05-22T00:00:00	2024-11-08T20:00:00	7	Dirección del viento	8.05
150447	7	Sololá	719	Santiago Atitlán	14	Cerro de Oro	5	Mayo	2023-05-22T00:00:00	2024-11-08T20:00:00	1	Precipitación	0
150448	7	Sololá	719	Santiago Atitlán	14	Cerro de Oro	5	Mayo	2023-05-22T00:00:00	2024-11-08T20:00:00	8	Radiación solar	0
150449	7	Sololá	719	Santiago Atitlán	14	Cerro de Oro	5	Mayo	2023-05-22T00:00:00	2024-11-08T21:00:00	2	Temperatura media	20.4
150450	7	Sololá	719	Santiago Atitlán	14	Cerro de Oro	5	Mayo	2023-05-22T00:00:00	2024-11-08T21:00:00	4	Temperatura máxima	21.2
150451	7	Sololá	719	Santiago Atitlán	14	Cerro de Oro	5	Mayo	2023-05-22T00:00:00	2024-11-08T21:00:00	3	Temperatura mínima	20.3
150452	7	Sololá	719	Santiago Atitlán	14	Cerro de Oro	5	Mayo	2023-05-22T00:00:00	2024-11-08T21:00:00	5	Humedad	86
150453	7	Sololá	719	Santiago Atitlán	14	Cerro de Oro	5	Mayo	2023-05-22T00:00:00	2024-11-08T21:00:00	6	Velocidad del viento	6.4
150454	7	Sololá	719	Santiago Atitlán	14	Cerro de Oro	5	Mayo	2023-05-22T00:00:00	2024-11-08T21:00:00	7	Dirección del viento	6.44
150455	7	Sololá	719	Santiago Atitlán	14	Cerro de Oro	5	Mayo	2023-05-22T00:00:00	2024-11-08T21:00:00	1	Precipitación	0
150456	7	Sololá	719	Santiago Atitlán	14	Cerro de Oro	5	Mayo	2023-05-22T00:00:00	2024-11-08T21:00:00	8	Radiación solar	0
150457	7	Sololá	719	Santiago Atitlán	14	Cerro de Oro	5	Mayo	2023-05-22T00:00:00	2024-11-08T22:00:00	2	Temperatura media	20.2
150458	7	Sololá	719	Santiago Atitlán	14	Cerro de Oro	5	Mayo	2023-05-22T00:00:00	2024-11-08T22:00:00	4	Temperatura máxima	20.8
150459	7	Sololá	719	Santiago Atitlán	14	Cerro de Oro	5	Mayo	2023-05-22T00:00:00	2024-11-08T22:00:00	3	Temperatura mínima	20.2
150460	7	Sololá	719	Santiago Atitlán	14	Cerro de Oro	5	Mayo	2023-05-22T00:00:00	2024-11-08T22:00:00	5	Humedad	84
150461	7	Sololá	719	Santiago Atitlán	14	Cerro de Oro	5	Mayo	2023-05-22T00:00:00	2024-11-08T22:00:00	6	Velocidad del viento	6.4
150462	7	Sololá	719	Santiago Atitlán	14	Cerro de Oro	5	Mayo	2023-05-22T00:00:00	2024-11-08T22:00:00	7	Dirección del viento	6.44
150463	7	Sololá	719	Santiago Atitlán	14	Cerro de Oro	5	Mayo	2023-05-22T00:00:00	2024-11-08T22:00:00	1	Precipitación	0
150464	7	Sololá	719	Santiago Atitlán	14	Cerro de Oro	5	Mayo	2023-05-22T00:00:00	2024-11-08T22:00:00	8	Radiación solar	0
150465	7	Sololá	719	Santiago Atitlán	14	Cerro de Oro	5	Mayo	2023-05-22T00:00:00	2024-11-08T23:00:00	2	Temperatura media	19.8
150466	7	Sololá	719	Santiago Atitlán	14	Cerro de Oro	5	Mayo	2023-05-22T00:00:00	2024-11-08T23:00:00	4	Temperatura máxima	20.2
150467	7	Sololá	719	Santiago Atitlán	14	Cerro de Oro	5	Mayo	2023-05-22T00:00:00	2024-11-08T23:00:00	3	Temperatura mínima	19.8
150468	7	Sololá	719	Santiago Atitlán	14	Cerro de Oro	5	Mayo	2023-05-22T00:00:00	2024-11-08T23:00:00	5	Humedad	83
150469	7	Sololá	719	Santiago Atitlán	14	Cerro de Oro	5	Mayo	2023-05-22T00:00:00	2024-11-08T23:00:00	6	Velocidad del viento	8
150470	7	Sololá	719	Santiago Atitlán	14	Cerro de Oro	5	Mayo	2023-05-22T00:00:00	2024-11-08T23:00:00	7	Dirección del viento	8.05
150471	7	Sololá	719	Santiago Atitlán	14	Cerro de Oro	5	Mayo	2023-05-22T00:00:00	2024-11-08T23:00:00	1	Precipitación	0
150472	7	Sololá	719	Santiago Atitlán	14	Cerro de Oro	5	Mayo	2023-05-22T00:00:00	2024-11-08T23:00:00	8	Radiación solar	0
150473	7	Sololá	719	Santiago Atitlán	14	Cerro de Oro	5	Mayo	2023-05-23T00:00:00	2024-11-08T00:00:00	2	Temperatura media	19.6
150474	7	Sololá	719	Santiago Atitlán	14	Cerro de Oro	5	Mayo	2023-05-23T00:00:00	2024-11-08T00:00:00	4	Temperatura máxima	20.2
150475	7	Sololá	719	Santiago Atitlán	14	Cerro de Oro	5	Mayo	2023-05-23T00:00:00	2024-11-08T00:00:00	3	Temperatura mínima	19.6
150476	7	Sololá	719	Santiago Atitlán	14	Cerro de Oro	5	Mayo	2023-05-23T00:00:00	2024-11-08T00:00:00	5	Humedad	80
150477	7	Sololá	719	Santiago Atitlán	14	Cerro de Oro	5	Mayo	2023-05-23T00:00:00	2024-11-08T00:00:00	6	Velocidad del viento	4.8
150478	7	Sololá	719	Santiago Atitlán	14	Cerro de Oro	5	Mayo	2023-05-23T00:00:00	2024-11-08T00:00:00	7	Dirección del viento	4.83
150479	7	Sololá	719	Santiago Atitlán	14	Cerro de Oro	5	Mayo	2023-05-23T00:00:00	2024-11-08T00:00:00	1	Precipitación	0
150480	7	Sololá	719	Santiago Atitlán	14	Cerro de Oro	5	Mayo	2023-05-23T00:00:00	2024-11-08T00:00:00	8	Radiación solar	0
150481	7	Sololá	719	Santiago Atitlán	14	Cerro de Oro	5	Mayo	2023-05-23T00:00:00	2024-11-08T01:00:00	2	Temperatura media	19.5
150482	7	Sololá	719	Santiago Atitlán	14	Cerro de Oro	5	Mayo	2023-05-23T00:00:00	2024-11-08T01:00:00	4	Temperatura máxima	19.7
150483	7	Sololá	719	Santiago Atitlán	14	Cerro de Oro	5	Mayo	2023-05-23T00:00:00	2024-11-08T01:00:00	3	Temperatura mínima	19.2
150484	7	Sololá	719	Santiago Atitlán	14	Cerro de Oro	5	Mayo	2023-05-23T00:00:00	2024-11-08T01:00:00	5	Humedad	78
150485	7	Sololá	719	Santiago Atitlán	14	Cerro de Oro	5	Mayo	2023-05-23T00:00:00	2024-11-08T01:00:00	6	Velocidad del viento	4.8
150486	7	Sololá	719	Santiago Atitlán	14	Cerro de Oro	5	Mayo	2023-05-23T00:00:00	2024-11-08T01:00:00	7	Dirección del viento	4.83
150487	7	Sololá	719	Santiago Atitlán	14	Cerro de Oro	5	Mayo	2023-05-23T00:00:00	2024-11-08T01:00:00	1	Precipitación	0
150488	7	Sololá	719	Santiago Atitlán	14	Cerro de Oro	5	Mayo	2023-05-23T00:00:00	2024-11-08T01:00:00	8	Radiación solar	0
150489	7	Sololá	719	Santiago Atitlán	14	Cerro de Oro	5	Mayo	2023-05-23T00:00:00	2024-11-08T02:00:00	2	Temperatura media	19.1
150490	7	Sololá	719	Santiago Atitlán	14	Cerro de Oro	5	Mayo	2023-05-23T00:00:00	2024-11-08T02:00:00	4	Temperatura máxima	19.5
150491	7	Sololá	719	Santiago Atitlán	14	Cerro de Oro	5	Mayo	2023-05-23T00:00:00	2024-11-08T02:00:00	3	Temperatura mínima	19.1
150492	7	Sololá	719	Santiago Atitlán	14	Cerro de Oro	5	Mayo	2023-05-23T00:00:00	2024-11-08T02:00:00	5	Humedad	81
150493	7	Sololá	719	Santiago Atitlán	14	Cerro de Oro	5	Mayo	2023-05-23T00:00:00	2024-11-08T02:00:00	6	Velocidad del viento	1.6
150494	7	Sololá	719	Santiago Atitlán	14	Cerro de Oro	5	Mayo	2023-05-23T00:00:00	2024-11-08T02:00:00	7	Dirección del viento	1.61
150495	7	Sololá	719	Santiago Atitlán	14	Cerro de Oro	5	Mayo	2023-05-23T00:00:00	2024-11-08T02:00:00	1	Precipitación	0
150496	7	Sololá	719	Santiago Atitlán	14	Cerro de Oro	5	Mayo	2023-05-23T00:00:00	2024-11-08T02:00:00	8	Radiación solar	0
150497	7	Sololá	719	Santiago Atitlán	14	Cerro de Oro	5	Mayo	2023-05-23T00:00:00	2024-11-08T03:00:00	2	Temperatura media	18.4
150498	7	Sololá	719	Santiago Atitlán	14	Cerro de Oro	5	Mayo	2023-05-23T00:00:00	2024-11-08T03:00:00	4	Temperatura máxima	19.2
150499	7	Sololá	719	Santiago Atitlán	14	Cerro de Oro	5	Mayo	2023-05-23T00:00:00	2024-11-08T03:00:00	3	Temperatura mínima	18.4
150500	7	Sololá	719	Santiago Atitlán	14	Cerro de Oro	5	Mayo	2023-05-23T00:00:00	2024-11-08T03:00:00	5	Humedad	83
150501	7	Sololá	719	Santiago Atitlán	14	Cerro de Oro	5	Mayo	2023-05-23T00:00:00	2024-11-08T03:00:00	6	Velocidad del viento	3.2
150502	7	Sololá	719	Santiago Atitlán	14	Cerro de Oro	5	Mayo	2023-05-23T00:00:00	2024-11-08T03:00:00	7	Dirección del viento	3.22
150503	7	Sololá	719	Santiago Atitlán	14	Cerro de Oro	5	Mayo	2023-05-23T00:00:00	2024-11-08T03:00:00	1	Precipitación	0
150504	7	Sololá	719	Santiago Atitlán	14	Cerro de Oro	5	Mayo	2023-05-23T00:00:00	2024-11-08T03:00:00	8	Radiación solar	0
150505	7	Sololá	719	Santiago Atitlán	14	Cerro de Oro	5	Mayo	2023-05-23T00:00:00	2024-11-08T04:00:00	2	Temperatura media	18
150506	7	Sololá	719	Santiago Atitlán	14	Cerro de Oro	5	Mayo	2023-05-23T00:00:00	2024-11-08T04:00:00	4	Temperatura máxima	18.4
150507	7	Sololá	719	Santiago Atitlán	14	Cerro de Oro	5	Mayo	2023-05-23T00:00:00	2024-11-08T04:00:00	3	Temperatura mínima	17.9
150508	7	Sololá	719	Santiago Atitlán	14	Cerro de Oro	5	Mayo	2023-05-23T00:00:00	2024-11-08T04:00:00	5	Humedad	86
150509	7	Sololá	719	Santiago Atitlán	14	Cerro de Oro	5	Mayo	2023-05-23T00:00:00	2024-11-08T04:00:00	6	Velocidad del viento	3.2
150510	7	Sololá	719	Santiago Atitlán	14	Cerro de Oro	5	Mayo	2023-05-23T00:00:00	2024-11-08T04:00:00	7	Dirección del viento	3.22
150511	7	Sololá	719	Santiago Atitlán	14	Cerro de Oro	5	Mayo	2023-05-23T00:00:00	2024-11-08T04:00:00	1	Precipitación	0
150512	7	Sololá	719	Santiago Atitlán	14	Cerro de Oro	5	Mayo	2023-05-23T00:00:00	2024-11-08T04:00:00	8	Radiación solar	0
150513	7	Sololá	719	Santiago Atitlán	14	Cerro de Oro	5	Mayo	2023-05-23T00:00:00	2024-11-08T05:00:00	2	Temperatura media	18.4
150514	7	Sololá	719	Santiago Atitlán	14	Cerro de Oro	5	Mayo	2023-05-23T00:00:00	2024-11-08T05:00:00	4	Temperatura máxima	18.4
150515	7	Sololá	719	Santiago Atitlán	14	Cerro de Oro	5	Mayo	2023-05-23T00:00:00	2024-11-08T05:00:00	3	Temperatura mínima	17.9
150516	7	Sololá	719	Santiago Atitlán	14	Cerro de Oro	5	Mayo	2023-05-23T00:00:00	2024-11-08T05:00:00	5	Humedad	85
150517	7	Sololá	719	Santiago Atitlán	14	Cerro de Oro	5	Mayo	2023-05-23T00:00:00	2024-11-08T05:00:00	6	Velocidad del viento	4.8
150518	7	Sololá	719	Santiago Atitlán	14	Cerro de Oro	5	Mayo	2023-05-23T00:00:00	2024-11-08T05:00:00	7	Dirección del viento	4.83
150519	7	Sololá	719	Santiago Atitlán	14	Cerro de Oro	5	Mayo	2023-05-23T00:00:00	2024-11-08T05:00:00	1	Precipitación	0
150520	7	Sololá	719	Santiago Atitlán	14	Cerro de Oro	5	Mayo	2023-05-23T00:00:00	2024-11-08T05:00:00	8	Radiación solar	0
150521	7	Sololá	719	Santiago Atitlán	14	Cerro de Oro	5	Mayo	2023-05-23T00:00:00	2024-11-08T06:00:00	2	Temperatura media	18.3
150522	7	Sololá	719	Santiago Atitlán	14	Cerro de Oro	5	Mayo	2023-05-23T00:00:00	2024-11-08T06:00:00	4	Temperatura máxima	18.7
150523	7	Sololá	719	Santiago Atitlán	14	Cerro de Oro	5	Mayo	2023-05-23T00:00:00	2024-11-08T06:00:00	3	Temperatura mínima	18.2
150524	7	Sololá	719	Santiago Atitlán	14	Cerro de Oro	5	Mayo	2023-05-23T00:00:00	2024-11-08T06:00:00	5	Humedad	84
150525	7	Sololá	719	Santiago Atitlán	14	Cerro de Oro	5	Mayo	2023-05-23T00:00:00	2024-11-08T06:00:00	6	Velocidad del viento	3.2
150526	7	Sololá	719	Santiago Atitlán	14	Cerro de Oro	5	Mayo	2023-05-23T00:00:00	2024-11-08T06:00:00	7	Dirección del viento	3.22
150527	7	Sololá	719	Santiago Atitlán	14	Cerro de Oro	5	Mayo	2023-05-23T00:00:00	2024-11-08T06:00:00	1	Precipitación	0
150528	7	Sololá	719	Santiago Atitlán	14	Cerro de Oro	5	Mayo	2023-05-23T00:00:00	2024-11-08T06:00:00	8	Radiación solar	0
150529	7	Sololá	719	Santiago Atitlán	14	Cerro de Oro	5	Mayo	2023-05-23T00:00:00	2024-11-08T07:00:00	2	Temperatura media	18.3
150530	7	Sololá	719	Santiago Atitlán	14	Cerro de Oro	5	Mayo	2023-05-23T00:00:00	2024-11-08T07:00:00	4	Temperatura máxima	18.4
150531	7	Sololá	719	Santiago Atitlán	14	Cerro de Oro	5	Mayo	2023-05-23T00:00:00	2024-11-08T07:00:00	3	Temperatura mínima	18.1
150532	7	Sololá	719	Santiago Atitlán	14	Cerro de Oro	5	Mayo	2023-05-23T00:00:00	2024-11-08T07:00:00	5	Humedad	85
150533	7	Sololá	719	Santiago Atitlán	14	Cerro de Oro	5	Mayo	2023-05-23T00:00:00	2024-11-08T07:00:00	6	Velocidad del viento	1.6
150534	7	Sololá	719	Santiago Atitlán	14	Cerro de Oro	5	Mayo	2023-05-23T00:00:00	2024-11-08T07:00:00	7	Dirección del viento	1.61
150535	7	Sololá	719	Santiago Atitlán	14	Cerro de Oro	5	Mayo	2023-05-23T00:00:00	2024-11-08T07:00:00	1	Precipitación	0
150536	7	Sololá	719	Santiago Atitlán	14	Cerro de Oro	5	Mayo	2023-05-23T00:00:00	2024-11-08T07:00:00	8	Radiación solar	10
150537	7	Sololá	719	Santiago Atitlán	14	Cerro de Oro	5	Mayo	2023-05-23T00:00:00	2024-11-08T08:00:00	2	Temperatura media	19.5
150538	7	Sololá	719	Santiago Atitlán	14	Cerro de Oro	5	Mayo	2023-05-23T00:00:00	2024-11-08T08:00:00	4	Temperatura máxima	19.6
150539	7	Sololá	719	Santiago Atitlán	14	Cerro de Oro	5	Mayo	2023-05-23T00:00:00	2024-11-08T08:00:00	3	Temperatura mínima	18.3
150540	7	Sololá	719	Santiago Atitlán	14	Cerro de Oro	5	Mayo	2023-05-23T00:00:00	2024-11-08T08:00:00	5	Humedad	81
150541	7	Sololá	719	Santiago Atitlán	14	Cerro de Oro	5	Mayo	2023-05-23T00:00:00	2024-11-08T08:00:00	6	Velocidad del viento	1.6
150542	7	Sololá	719	Santiago Atitlán	14	Cerro de Oro	5	Mayo	2023-05-23T00:00:00	2024-11-08T08:00:00	7	Dirección del viento	1.61
150543	7	Sololá	719	Santiago Atitlán	14	Cerro de Oro	5	Mayo	2023-05-23T00:00:00	2024-11-08T08:00:00	1	Precipitación	0
150544	7	Sololá	719	Santiago Atitlán	14	Cerro de Oro	5	Mayo	2023-05-23T00:00:00	2024-11-08T08:00:00	8	Radiación solar	91
150545	7	Sololá	719	Santiago Atitlán	14	Cerro de Oro	5	Mayo	2023-05-23T00:00:00	2024-11-08T09:00:00	2	Temperatura media	21.9
150546	7	Sololá	719	Santiago Atitlán	14	Cerro de Oro	5	Mayo	2023-05-23T00:00:00	2024-11-08T09:00:00	4	Temperatura máxima	22.1
150547	7	Sololá	719	Santiago Atitlán	14	Cerro de Oro	5	Mayo	2023-05-23T00:00:00	2024-11-08T09:00:00	3	Temperatura mínima	19.5
150548	7	Sololá	719	Santiago Atitlán	14	Cerro de Oro	5	Mayo	2023-05-23T00:00:00	2024-11-08T09:00:00	5	Humedad	67
150549	7	Sololá	719	Santiago Atitlán	14	Cerro de Oro	5	Mayo	2023-05-23T00:00:00	2024-11-08T09:00:00	6	Velocidad del viento	1.6
150550	7	Sololá	719	Santiago Atitlán	14	Cerro de Oro	5	Mayo	2023-05-23T00:00:00	2024-11-08T09:00:00	7	Dirección del viento	1.61
150551	7	Sololá	719	Santiago Atitlán	14	Cerro de Oro	5	Mayo	2023-05-23T00:00:00	2024-11-08T09:00:00	1	Precipitación	0
150552	7	Sololá	719	Santiago Atitlán	14	Cerro de Oro	5	Mayo	2023-05-23T00:00:00	2024-11-08T09:00:00	8	Radiación solar	323
150553	7	Sololá	719	Santiago Atitlán	14	Cerro de Oro	5	Mayo	2023-05-23T00:00:00	2024-11-08T10:00:00	2	Temperatura media	22.1
150554	7	Sololá	719	Santiago Atitlán	14	Cerro de Oro	5	Mayo	2023-05-23T00:00:00	2024-11-08T10:00:00	4	Temperatura máxima	22.4
150555	7	Sololá	719	Santiago Atitlán	14	Cerro de Oro	5	Mayo	2023-05-23T00:00:00	2024-11-08T10:00:00	3	Temperatura mínima	21.8
150556	7	Sololá	719	Santiago Atitlán	14	Cerro de Oro	5	Mayo	2023-05-23T00:00:00	2024-11-08T10:00:00	5	Humedad	71
150557	7	Sololá	719	Santiago Atitlán	14	Cerro de Oro	5	Mayo	2023-05-23T00:00:00	2024-11-08T10:00:00	6	Velocidad del viento	3.2
150558	7	Sololá	719	Santiago Atitlán	14	Cerro de Oro	5	Mayo	2023-05-23T00:00:00	2024-11-08T10:00:00	7	Dirección del viento	3.22
150559	7	Sololá	719	Santiago Atitlán	14	Cerro de Oro	5	Mayo	2023-05-23T00:00:00	2024-11-08T10:00:00	1	Precipitación	0
150560	7	Sololá	719	Santiago Atitlán	14	Cerro de Oro	5	Mayo	2023-05-23T00:00:00	2024-11-08T10:00:00	8	Radiación solar	479
150561	7	Sololá	719	Santiago Atitlán	14	Cerro de Oro	5	Mayo	2023-05-23T00:00:00	2024-11-08T11:00:00	2	Temperatura media	23.6
150562	7	Sololá	719	Santiago Atitlán	14	Cerro de Oro	5	Mayo	2023-05-23T00:00:00	2024-11-08T11:00:00	4	Temperatura máxima	23.6
150563	7	Sololá	719	Santiago Atitlán	14	Cerro de Oro	5	Mayo	2023-05-23T00:00:00	2024-11-08T11:00:00	3	Temperatura mínima	22
150564	7	Sololá	719	Santiago Atitlán	14	Cerro de Oro	5	Mayo	2023-05-23T00:00:00	2024-11-08T11:00:00	5	Humedad	71
150565	7	Sololá	719	Santiago Atitlán	14	Cerro de Oro	5	Mayo	2023-05-23T00:00:00	2024-11-08T11:00:00	6	Velocidad del viento	4.8
150566	7	Sololá	719	Santiago Atitlán	14	Cerro de Oro	5	Mayo	2023-05-23T00:00:00	2024-11-08T11:00:00	7	Dirección del viento	4.83
150567	7	Sololá	719	Santiago Atitlán	14	Cerro de Oro	5	Mayo	2023-05-23T00:00:00	2024-11-08T11:00:00	1	Precipitación	0
150568	7	Sololá	719	Santiago Atitlán	14	Cerro de Oro	5	Mayo	2023-05-23T00:00:00	2024-11-08T11:00:00	8	Radiación solar	668
150569	7	Sololá	719	Santiago Atitlán	14	Cerro de Oro	5	Mayo	2023-05-23T00:00:00	2024-11-08T12:00:00	2	Temperatura media	23.3
150570	7	Sololá	719	Santiago Atitlán	14	Cerro de Oro	5	Mayo	2023-05-23T00:00:00	2024-11-08T12:00:00	4	Temperatura máxima	24.3
150571	7	Sololá	719	Santiago Atitlán	14	Cerro de Oro	5	Mayo	2023-05-23T00:00:00	2024-11-08T12:00:00	3	Temperatura mínima	23.2
150572	7	Sololá	719	Santiago Atitlán	14	Cerro de Oro	5	Mayo	2023-05-23T00:00:00	2024-11-08T12:00:00	5	Humedad	75
150573	7	Sololá	719	Santiago Atitlán	14	Cerro de Oro	5	Mayo	2023-05-23T00:00:00	2024-11-08T12:00:00	6	Velocidad del viento	9.7
150574	7	Sololá	719	Santiago Atitlán	14	Cerro de Oro	5	Mayo	2023-05-23T00:00:00	2024-11-08T12:00:00	7	Dirección del viento	9.66
150575	7	Sololá	719	Santiago Atitlán	14	Cerro de Oro	5	Mayo	2023-05-23T00:00:00	2024-11-08T12:00:00	1	Precipitación	0
150576	7	Sololá	719	Santiago Atitlán	14	Cerro de Oro	5	Mayo	2023-05-23T00:00:00	2024-11-08T12:00:00	8	Radiación solar	856
150577	7	Sololá	719	Santiago Atitlán	14	Cerro de Oro	5	Mayo	2023-05-23T00:00:00	2024-11-08T13:00:00	2	Temperatura media	24.2
150578	7	Sololá	719	Santiago Atitlán	14	Cerro de Oro	5	Mayo	2023-05-23T00:00:00	2024-11-08T13:00:00	4	Temperatura máxima	24.3
150579	7	Sololá	719	Santiago Atitlán	14	Cerro de Oro	5	Mayo	2023-05-23T00:00:00	2024-11-08T13:00:00	3	Temperatura mínima	23.2
150580	7	Sololá	719	Santiago Atitlán	14	Cerro de Oro	5	Mayo	2023-05-23T00:00:00	2024-11-08T13:00:00	5	Humedad	71
150581	7	Sololá	719	Santiago Atitlán	14	Cerro de Oro	5	Mayo	2023-05-23T00:00:00	2024-11-08T13:00:00	6	Velocidad del viento	12.9
150582	7	Sololá	719	Santiago Atitlán	14	Cerro de Oro	5	Mayo	2023-05-23T00:00:00	2024-11-08T13:00:00	7	Dirección del viento	12.87
150583	7	Sololá	719	Santiago Atitlán	14	Cerro de Oro	5	Mayo	2023-05-23T00:00:00	2024-11-08T13:00:00	1	Precipitación	0
150584	7	Sololá	719	Santiago Atitlán	14	Cerro de Oro	5	Mayo	2023-05-23T00:00:00	2024-11-08T13:00:00	8	Radiación solar	965
150585	7	Sololá	719	Santiago Atitlán	14	Cerro de Oro	5	Mayo	2023-05-23T00:00:00	2024-11-08T14:00:00	2	Temperatura media	23.4
150586	7	Sololá	719	Santiago Atitlán	14	Cerro de Oro	5	Mayo	2023-05-23T00:00:00	2024-11-08T14:00:00	4	Temperatura máxima	24.2
150587	7	Sololá	719	Santiago Atitlán	14	Cerro de Oro	5	Mayo	2023-05-23T00:00:00	2024-11-08T14:00:00	3	Temperatura mínima	23.2
150588	7	Sololá	719	Santiago Atitlán	14	Cerro de Oro	5	Mayo	2023-05-23T00:00:00	2024-11-08T14:00:00	5	Humedad	72
150589	7	Sololá	719	Santiago Atitlán	14	Cerro de Oro	5	Mayo	2023-05-23T00:00:00	2024-11-08T14:00:00	6	Velocidad del viento	12.9
150590	7	Sololá	719	Santiago Atitlán	14	Cerro de Oro	5	Mayo	2023-05-23T00:00:00	2024-11-08T14:00:00	7	Dirección del viento	12.87
150591	7	Sololá	719	Santiago Atitlán	14	Cerro de Oro	5	Mayo	2023-05-23T00:00:00	2024-11-08T14:00:00	1	Precipitación	0
150592	7	Sololá	719	Santiago Atitlán	14	Cerro de Oro	5	Mayo	2023-05-23T00:00:00	2024-11-08T14:00:00	8	Radiación solar	648
150593	7	Sololá	719	Santiago Atitlán	14	Cerro de Oro	5	Mayo	2023-05-23T00:00:00	2024-11-08T15:00:00	2	Temperatura media	22.9
150594	7	Sololá	719	Santiago Atitlán	14	Cerro de Oro	5	Mayo	2023-05-23T00:00:00	2024-11-08T15:00:00	4	Temperatura máxima	23.4
150595	7	Sololá	719	Santiago Atitlán	14	Cerro de Oro	5	Mayo	2023-05-23T00:00:00	2024-11-08T15:00:00	3	Temperatura mínima	22.5
150596	7	Sololá	719	Santiago Atitlán	14	Cerro de Oro	5	Mayo	2023-05-23T00:00:00	2024-11-08T15:00:00	5	Humedad	75
150597	7	Sololá	719	Santiago Atitlán	14	Cerro de Oro	5	Mayo	2023-05-23T00:00:00	2024-11-08T15:00:00	6	Velocidad del viento	11.3
150598	7	Sololá	719	Santiago Atitlán	14	Cerro de Oro	5	Mayo	2023-05-23T00:00:00	2024-11-08T15:00:00	7	Dirección del viento	11.27
150599	7	Sololá	719	Santiago Atitlán	14	Cerro de Oro	5	Mayo	2023-05-23T00:00:00	2024-11-08T15:00:00	1	Precipitación	0
150600	7	Sololá	719	Santiago Atitlán	14	Cerro de Oro	5	Mayo	2023-05-23T00:00:00	2024-11-08T15:00:00	8	Radiación solar	286
150601	7	Sololá	719	Santiago Atitlán	14	Cerro de Oro	5	Mayo	2023-05-23T00:00:00	2024-11-08T16:00:00	2	Temperatura media	22.5
150602	7	Sololá	719	Santiago Atitlán	14	Cerro de Oro	5	Mayo	2023-05-23T00:00:00	2024-11-08T16:00:00	4	Temperatura máxima	24
150603	7	Sololá	719	Santiago Atitlán	14	Cerro de Oro	5	Mayo	2023-05-23T00:00:00	2024-11-08T16:00:00	3	Temperatura mínima	22.5
150604	7	Sololá	719	Santiago Atitlán	14	Cerro de Oro	5	Mayo	2023-05-23T00:00:00	2024-11-08T16:00:00	5	Humedad	78
150605	7	Sololá	719	Santiago Atitlán	14	Cerro de Oro	5	Mayo	2023-05-23T00:00:00	2024-11-08T16:00:00	6	Velocidad del viento	9.7
150606	7	Sololá	719	Santiago Atitlán	14	Cerro de Oro	5	Mayo	2023-05-23T00:00:00	2024-11-08T16:00:00	7	Dirección del viento	9.66
150607	7	Sololá	719	Santiago Atitlán	14	Cerro de Oro	5	Mayo	2023-05-23T00:00:00	2024-11-08T16:00:00	1	Precipitación	0
150608	7	Sololá	719	Santiago Atitlán	14	Cerro de Oro	5	Mayo	2023-05-23T00:00:00	2024-11-08T16:00:00	8	Radiación solar	308
150609	7	Sololá	719	Santiago Atitlán	14	Cerro de Oro	5	Mayo	2023-05-23T00:00:00	2024-11-08T17:00:00	2	Temperatura media	22.2
150610	7	Sololá	719	Santiago Atitlán	14	Cerro de Oro	5	Mayo	2023-05-23T00:00:00	2024-11-08T17:00:00	4	Temperatura máxima	23.1
150611	7	Sololá	719	Santiago Atitlán	14	Cerro de Oro	5	Mayo	2023-05-23T00:00:00	2024-11-08T17:00:00	3	Temperatura mínima	22.2
150612	7	Sololá	719	Santiago Atitlán	14	Cerro de Oro	5	Mayo	2023-05-23T00:00:00	2024-11-08T17:00:00	5	Humedad	80
150613	7	Sololá	719	Santiago Atitlán	14	Cerro de Oro	5	Mayo	2023-05-23T00:00:00	2024-11-08T17:00:00	6	Velocidad del viento	8
150614	7	Sololá	719	Santiago Atitlán	14	Cerro de Oro	5	Mayo	2023-05-23T00:00:00	2024-11-08T17:00:00	7	Dirección del viento	8.05
150615	7	Sololá	719	Santiago Atitlán	14	Cerro de Oro	5	Mayo	2023-05-23T00:00:00	2024-11-08T17:00:00	1	Precipitación	0
150616	7	Sololá	719	Santiago Atitlán	14	Cerro de Oro	5	Mayo	2023-05-23T00:00:00	2024-11-08T17:00:00	8	Radiación solar	195
150617	7	Sololá	719	Santiago Atitlán	14	Cerro de Oro	5	Mayo	2023-05-23T00:00:00	2024-11-08T18:00:00	2	Temperatura media	21.4
150618	7	Sololá	719	Santiago Atitlán	14	Cerro de Oro	5	Mayo	2023-05-23T00:00:00	2024-11-08T18:00:00	4	Temperatura máxima	22.5
150619	7	Sololá	719	Santiago Atitlán	14	Cerro de Oro	5	Mayo	2023-05-23T00:00:00	2024-11-08T18:00:00	3	Temperatura mínima	21.3
150620	7	Sololá	719	Santiago Atitlán	14	Cerro de Oro	5	Mayo	2023-05-23T00:00:00	2024-11-08T18:00:00	5	Humedad	82
150621	7	Sololá	719	Santiago Atitlán	14	Cerro de Oro	5	Mayo	2023-05-23T00:00:00	2024-11-08T18:00:00	6	Velocidad del viento	8
150622	7	Sololá	719	Santiago Atitlán	14	Cerro de Oro	5	Mayo	2023-05-23T00:00:00	2024-11-08T18:00:00	7	Dirección del viento	8.05
150623	7	Sololá	719	Santiago Atitlán	14	Cerro de Oro	5	Mayo	2023-05-23T00:00:00	2024-11-08T18:00:00	1	Precipitación	0
150624	7	Sololá	719	Santiago Atitlán	14	Cerro de Oro	5	Mayo	2023-05-23T00:00:00	2024-11-08T18:00:00	8	Radiación solar	117
150625	7	Sololá	719	Santiago Atitlán	14	Cerro de Oro	5	Mayo	2023-05-23T00:00:00	2024-11-08T19:00:00	2	Temperatura media	20.7
150626	7	Sololá	719	Santiago Atitlán	14	Cerro de Oro	5	Mayo	2023-05-23T00:00:00	2024-11-08T19:00:00	4	Temperatura máxima	21.6
150627	7	Sololá	719	Santiago Atitlán	14	Cerro de Oro	5	Mayo	2023-05-23T00:00:00	2024-11-08T19:00:00	3	Temperatura mínima	20.7
150628	7	Sololá	719	Santiago Atitlán	14	Cerro de Oro	5	Mayo	2023-05-23T00:00:00	2024-11-08T19:00:00	5	Humedad	84
150629	7	Sololá	719	Santiago Atitlán	14	Cerro de Oro	5	Mayo	2023-05-23T00:00:00	2024-11-08T19:00:00	6	Velocidad del viento	8
150630	7	Sololá	719	Santiago Atitlán	14	Cerro de Oro	5	Mayo	2023-05-23T00:00:00	2024-11-08T19:00:00	7	Dirección del viento	8.05
150631	7	Sololá	719	Santiago Atitlán	14	Cerro de Oro	5	Mayo	2023-05-23T00:00:00	2024-11-08T19:00:00	1	Precipitación	0
150632	7	Sololá	719	Santiago Atitlán	14	Cerro de Oro	5	Mayo	2023-05-23T00:00:00	2024-11-08T19:00:00	8	Radiación solar	0
150633	7	Sololá	719	Santiago Atitlán	14	Cerro de Oro	5	Mayo	2023-05-23T00:00:00	2024-11-08T20:00:00	2	Temperatura media	20.4
150634	7	Sololá	719	Santiago Atitlán	14	Cerro de Oro	5	Mayo	2023-05-23T00:00:00	2024-11-08T20:00:00	4	Temperatura máxima	20.7
150635	7	Sololá	719	Santiago Atitlán	14	Cerro de Oro	5	Mayo	2023-05-23T00:00:00	2024-11-08T20:00:00	3	Temperatura mínima	20.3
150636	7	Sololá	719	Santiago Atitlán	14	Cerro de Oro	5	Mayo	2023-05-23T00:00:00	2024-11-08T20:00:00	5	Humedad	86
150637	7	Sololá	719	Santiago Atitlán	14	Cerro de Oro	5	Mayo	2023-05-23T00:00:00	2024-11-08T20:00:00	6	Velocidad del viento	8
150638	7	Sololá	719	Santiago Atitlán	14	Cerro de Oro	5	Mayo	2023-05-23T00:00:00	2024-11-08T20:00:00	7	Dirección del viento	8.05
150639	7	Sololá	719	Santiago Atitlán	14	Cerro de Oro	5	Mayo	2023-05-23T00:00:00	2024-11-08T20:00:00	1	Precipitación	0
150640	7	Sololá	719	Santiago Atitlán	14	Cerro de Oro	5	Mayo	2023-05-23T00:00:00	2024-11-08T20:00:00	8	Radiación solar	0
150641	7	Sololá	719	Santiago Atitlán	14	Cerro de Oro	5	Mayo	2023-05-23T00:00:00	2024-11-08T21:00:00	2	Temperatura media	20.5
150642	7	Sololá	719	Santiago Atitlán	14	Cerro de Oro	5	Mayo	2023-05-23T00:00:00	2024-11-08T21:00:00	4	Temperatura máxima	20.6
150643	7	Sololá	719	Santiago Atitlán	14	Cerro de Oro	5	Mayo	2023-05-23T00:00:00	2024-11-08T21:00:00	3	Temperatura mínima	20.3
150644	7	Sololá	719	Santiago Atitlán	14	Cerro de Oro	5	Mayo	2023-05-23T00:00:00	2024-11-08T21:00:00	5	Humedad	86
150645	7	Sololá	719	Santiago Atitlán	14	Cerro de Oro	5	Mayo	2023-05-23T00:00:00	2024-11-08T21:00:00	6	Velocidad del viento	6.4
150646	7	Sololá	719	Santiago Atitlán	14	Cerro de Oro	5	Mayo	2023-05-23T00:00:00	2024-11-08T21:00:00	7	Dirección del viento	6.44
150647	7	Sololá	719	Santiago Atitlán	14	Cerro de Oro	5	Mayo	2023-05-23T00:00:00	2024-11-08T21:00:00	1	Precipitación	0
150648	7	Sololá	719	Santiago Atitlán	14	Cerro de Oro	5	Mayo	2023-05-23T00:00:00	2024-11-08T21:00:00	8	Radiación solar	0
150649	7	Sololá	719	Santiago Atitlán	14	Cerro de Oro	5	Mayo	2023-05-23T00:00:00	2024-11-08T22:00:00	2	Temperatura media	20.6
150650	7	Sololá	719	Santiago Atitlán	14	Cerro de Oro	5	Mayo	2023-05-23T00:00:00	2024-11-08T22:00:00	4	Temperatura máxima	20.8
150651	7	Sololá	719	Santiago Atitlán	14	Cerro de Oro	5	Mayo	2023-05-23T00:00:00	2024-11-08T22:00:00	3	Temperatura mínima	20.5
150652	7	Sololá	719	Santiago Atitlán	14	Cerro de Oro	5	Mayo	2023-05-23T00:00:00	2024-11-08T22:00:00	5	Humedad	84
150653	7	Sololá	719	Santiago Atitlán	14	Cerro de Oro	5	Mayo	2023-05-23T00:00:00	2024-11-08T22:00:00	6	Velocidad del viento	3.2
150654	7	Sololá	719	Santiago Atitlán	14	Cerro de Oro	5	Mayo	2023-05-23T00:00:00	2024-11-08T22:00:00	7	Dirección del viento	3.22
150655	7	Sololá	719	Santiago Atitlán	14	Cerro de Oro	5	Mayo	2023-05-23T00:00:00	2024-11-08T22:00:00	1	Precipitación	0
150656	7	Sololá	719	Santiago Atitlán	14	Cerro de Oro	5	Mayo	2023-05-23T00:00:00	2024-11-08T22:00:00	8	Radiación solar	0
150657	7	Sololá	719	Santiago Atitlán	14	Cerro de Oro	5	Mayo	2023-05-23T00:00:00	2024-11-08T23:00:00	2	Temperatura media	20.1
150658	7	Sololá	719	Santiago Atitlán	14	Cerro de Oro	5	Mayo	2023-05-23T00:00:00	2024-11-08T23:00:00	4	Temperatura máxima	20.6
150659	7	Sololá	719	Santiago Atitlán	14	Cerro de Oro	5	Mayo	2023-05-23T00:00:00	2024-11-08T23:00:00	3	Temperatura mínima	20.1
150660	7	Sololá	719	Santiago Atitlán	14	Cerro de Oro	5	Mayo	2023-05-23T00:00:00	2024-11-08T23:00:00	5	Humedad	80
150661	7	Sololá	719	Santiago Atitlán	14	Cerro de Oro	5	Mayo	2023-05-23T00:00:00	2024-11-08T23:00:00	6	Velocidad del viento	3.2
150662	7	Sololá	719	Santiago Atitlán	14	Cerro de Oro	5	Mayo	2023-05-23T00:00:00	2024-11-08T23:00:00	7	Dirección del viento	3.22
150663	7	Sololá	719	Santiago Atitlán	14	Cerro de Oro	5	Mayo	2023-05-23T00:00:00	2024-11-08T23:00:00	1	Precipitación	0
150664	7	Sololá	719	Santiago Atitlán	14	Cerro de Oro	5	Mayo	2023-05-23T00:00:00	2024-11-08T23:00:00	8	Radiación solar	0
150665	7	Sololá	719	Santiago Atitlán	14	Cerro de Oro	5	Mayo	2023-05-24T00:00:00	2024-11-08T00:00:00	2	Temperatura media	19.9
150666	7	Sololá	719	Santiago Atitlán	14	Cerro de Oro	5	Mayo	2023-05-24T00:00:00	2024-11-08T00:00:00	4	Temperatura máxima	20.1
150667	7	Sololá	719	Santiago Atitlán	14	Cerro de Oro	5	Mayo	2023-05-24T00:00:00	2024-11-08T00:00:00	3	Temperatura mínima	19.7
150668	7	Sololá	719	Santiago Atitlán	14	Cerro de Oro	5	Mayo	2023-05-24T00:00:00	2024-11-08T00:00:00	5	Humedad	78
150669	7	Sololá	719	Santiago Atitlán	14	Cerro de Oro	5	Mayo	2023-05-24T00:00:00	2024-11-08T00:00:00	6	Velocidad del viento	3.2
150670	7	Sololá	719	Santiago Atitlán	14	Cerro de Oro	5	Mayo	2023-05-24T00:00:00	2024-11-08T00:00:00	7	Dirección del viento	3.22
150671	7	Sololá	719	Santiago Atitlán	14	Cerro de Oro	5	Mayo	2023-05-24T00:00:00	2024-11-08T00:00:00	1	Precipitación	0
150672	7	Sololá	719	Santiago Atitlán	14	Cerro de Oro	5	Mayo	2023-05-24T00:00:00	2024-11-08T00:00:00	8	Radiación solar	0
150673	7	Sololá	719	Santiago Atitlán	14	Cerro de Oro	5	Mayo	2023-05-24T00:00:00	2024-11-08T01:00:00	2	Temperatura media	19.6
150674	7	Sololá	719	Santiago Atitlán	14	Cerro de Oro	5	Mayo	2023-05-24T00:00:00	2024-11-08T01:00:00	4	Temperatura máxima	19.9
150675	7	Sololá	719	Santiago Atitlán	14	Cerro de Oro	5	Mayo	2023-05-24T00:00:00	2024-11-08T01:00:00	3	Temperatura mínima	19.3
150676	7	Sololá	719	Santiago Atitlán	14	Cerro de Oro	5	Mayo	2023-05-24T00:00:00	2024-11-08T01:00:00	5	Humedad	79
150677	7	Sololá	719	Santiago Atitlán	14	Cerro de Oro	5	Mayo	2023-05-24T00:00:00	2024-11-08T01:00:00	6	Velocidad del viento	3.2
150678	7	Sololá	719	Santiago Atitlán	14	Cerro de Oro	5	Mayo	2023-05-24T00:00:00	2024-11-08T01:00:00	7	Dirección del viento	3.22
150679	7	Sololá	719	Santiago Atitlán	14	Cerro de Oro	5	Mayo	2023-05-24T00:00:00	2024-11-08T01:00:00	1	Precipitación	0
150680	7	Sololá	719	Santiago Atitlán	14	Cerro de Oro	5	Mayo	2023-05-24T00:00:00	2024-11-08T01:00:00	8	Radiación solar	0
150681	7	Sololá	719	Santiago Atitlán	14	Cerro de Oro	5	Mayo	2023-05-24T00:00:00	2024-11-08T02:00:00	2	Temperatura media	19
150682	7	Sololá	719	Santiago Atitlán	14	Cerro de Oro	5	Mayo	2023-05-24T00:00:00	2024-11-08T02:00:00	4	Temperatura máxima	19.6
150683	7	Sololá	719	Santiago Atitlán	14	Cerro de Oro	5	Mayo	2023-05-24T00:00:00	2024-11-08T02:00:00	3	Temperatura mínima	18.8
150684	7	Sololá	719	Santiago Atitlán	14	Cerro de Oro	5	Mayo	2023-05-24T00:00:00	2024-11-08T02:00:00	5	Humedad	84
150685	7	Sololá	719	Santiago Atitlán	14	Cerro de Oro	5	Mayo	2023-05-24T00:00:00	2024-11-08T02:00:00	6	Velocidad del viento	4.8
150686	7	Sololá	719	Santiago Atitlán	14	Cerro de Oro	5	Mayo	2023-05-24T00:00:00	2024-11-08T02:00:00	7	Dirección del viento	4.83
150687	7	Sololá	719	Santiago Atitlán	14	Cerro de Oro	5	Mayo	2023-05-24T00:00:00	2024-11-08T02:00:00	1	Precipitación	0
150688	7	Sololá	719	Santiago Atitlán	14	Cerro de Oro	5	Mayo	2023-05-24T00:00:00	2024-11-08T02:00:00	8	Radiación solar	0
150689	7	Sololá	719	Santiago Atitlán	14	Cerro de Oro	5	Mayo	2023-05-24T00:00:00	2024-11-08T03:00:00	2	Temperatura media	18.3
150690	7	Sololá	719	Santiago Atitlán	14	Cerro de Oro	5	Mayo	2023-05-24T00:00:00	2024-11-08T03:00:00	4	Temperatura máxima	19.4
150691	7	Sololá	719	Santiago Atitlán	14	Cerro de Oro	5	Mayo	2023-05-24T00:00:00	2024-11-08T03:00:00	3	Temperatura mínima	18.3
150692	7	Sololá	719	Santiago Atitlán	14	Cerro de Oro	5	Mayo	2023-05-24T00:00:00	2024-11-08T03:00:00	5	Humedad	85
150693	7	Sololá	719	Santiago Atitlán	14	Cerro de Oro	5	Mayo	2023-05-24T00:00:00	2024-11-08T03:00:00	6	Velocidad del viento	3.2
150694	7	Sololá	719	Santiago Atitlán	14	Cerro de Oro	5	Mayo	2023-05-24T00:00:00	2024-11-08T03:00:00	7	Dirección del viento	3.22
150695	7	Sololá	719	Santiago Atitlán	14	Cerro de Oro	5	Mayo	2023-05-24T00:00:00	2024-11-08T03:00:00	1	Precipitación	0
150696	7	Sololá	719	Santiago Atitlán	14	Cerro de Oro	5	Mayo	2023-05-24T00:00:00	2024-11-08T03:00:00	8	Radiación solar	0
150697	7	Sololá	719	Santiago Atitlán	14	Cerro de Oro	5	Mayo	2023-05-24T00:00:00	2024-11-08T04:00:00	2	Temperatura media	17.9
150698	7	Sololá	719	Santiago Atitlán	14	Cerro de Oro	5	Mayo	2023-05-24T00:00:00	2024-11-08T04:00:00	4	Temperatura máxima	18.5
150699	7	Sololá	719	Santiago Atitlán	14	Cerro de Oro	5	Mayo	2023-05-24T00:00:00	2024-11-08T04:00:00	3	Temperatura mínima	17.9
150700	7	Sololá	719	Santiago Atitlán	14	Cerro de Oro	5	Mayo	2023-05-24T00:00:00	2024-11-08T04:00:00	5	Humedad	87
150701	7	Sololá	719	Santiago Atitlán	14	Cerro de Oro	5	Mayo	2023-05-24T00:00:00	2024-11-08T04:00:00	6	Velocidad del viento	3.2
150702	7	Sololá	719	Santiago Atitlán	14	Cerro de Oro	5	Mayo	2023-05-24T00:00:00	2024-11-08T04:00:00	7	Dirección del viento	3.22
150703	7	Sololá	719	Santiago Atitlán	14	Cerro de Oro	5	Mayo	2023-05-24T00:00:00	2024-11-08T04:00:00	1	Precipitación	0
150704	7	Sololá	719	Santiago Atitlán	14	Cerro de Oro	5	Mayo	2023-05-24T00:00:00	2024-11-08T04:00:00	8	Radiación solar	0
150705	7	Sololá	719	Santiago Atitlán	14	Cerro de Oro	5	Mayo	2023-05-24T00:00:00	2024-11-08T05:00:00	2	Temperatura media	17.7
150706	7	Sololá	719	Santiago Atitlán	14	Cerro de Oro	5	Mayo	2023-05-24T00:00:00	2024-11-08T05:00:00	4	Temperatura máxima	18.3
150707	7	Sololá	719	Santiago Atitlán	14	Cerro de Oro	5	Mayo	2023-05-24T00:00:00	2024-11-08T05:00:00	3	Temperatura mínima	17.7
150708	7	Sololá	719	Santiago Atitlán	14	Cerro de Oro	5	Mayo	2023-05-24T00:00:00	2024-11-08T05:00:00	5	Humedad	84
150709	7	Sololá	719	Santiago Atitlán	14	Cerro de Oro	5	Mayo	2023-05-24T00:00:00	2024-11-08T05:00:00	6	Velocidad del viento	3.2
150710	7	Sololá	719	Santiago Atitlán	14	Cerro de Oro	5	Mayo	2023-05-24T00:00:00	2024-11-08T05:00:00	7	Dirección del viento	3.22
150711	7	Sololá	719	Santiago Atitlán	14	Cerro de Oro	5	Mayo	2023-05-24T00:00:00	2024-11-08T05:00:00	1	Precipitación	0
150712	7	Sololá	719	Santiago Atitlán	14	Cerro de Oro	5	Mayo	2023-05-24T00:00:00	2024-11-08T05:00:00	8	Radiación solar	0
150713	7	Sololá	719	Santiago Atitlán	14	Cerro de Oro	5	Mayo	2023-05-24T00:00:00	2024-11-08T06:00:00	2	Temperatura media	17.8
150714	7	Sololá	719	Santiago Atitlán	14	Cerro de Oro	5	Mayo	2023-05-24T00:00:00	2024-11-08T06:00:00	4	Temperatura máxima	17.8
150715	7	Sololá	719	Santiago Atitlán	14	Cerro de Oro	5	Mayo	2023-05-24T00:00:00	2024-11-08T06:00:00	3	Temperatura mínima	17.4
150716	7	Sololá	719	Santiago Atitlán	14	Cerro de Oro	5	Mayo	2023-05-24T00:00:00	2024-11-08T06:00:00	5	Humedad	83
150717	7	Sololá	719	Santiago Atitlán	14	Cerro de Oro	5	Mayo	2023-05-24T00:00:00	2024-11-08T06:00:00	6	Velocidad del viento	3.2
150718	7	Sololá	719	Santiago Atitlán	14	Cerro de Oro	5	Mayo	2023-05-24T00:00:00	2024-11-08T06:00:00	7	Dirección del viento	3.22
150719	7	Sololá	719	Santiago Atitlán	14	Cerro de Oro	5	Mayo	2023-05-24T00:00:00	2024-11-08T06:00:00	1	Precipitación	0
150720	7	Sololá	719	Santiago Atitlán	14	Cerro de Oro	5	Mayo	2023-05-24T00:00:00	2024-11-08T06:00:00	8	Radiación solar	0
150721	7	Sololá	719	Santiago Atitlán	14	Cerro de Oro	5	Mayo	2023-05-24T00:00:00	2024-11-08T07:00:00	2	Temperatura media	18.3
150722	7	Sololá	719	Santiago Atitlán	14	Cerro de Oro	5	Mayo	2023-05-24T00:00:00	2024-11-08T07:00:00	4	Temperatura máxima	18.3
150723	7	Sololá	719	Santiago Atitlán	14	Cerro de Oro	5	Mayo	2023-05-24T00:00:00	2024-11-08T07:00:00	3	Temperatura mínima	17.6
150724	7	Sololá	719	Santiago Atitlán	14	Cerro de Oro	5	Mayo	2023-05-24T00:00:00	2024-11-08T07:00:00	5	Humedad	80
150725	7	Sololá	719	Santiago Atitlán	14	Cerro de Oro	5	Mayo	2023-05-24T00:00:00	2024-11-08T07:00:00	6	Velocidad del viento	4.8
150726	7	Sololá	719	Santiago Atitlán	14	Cerro de Oro	5	Mayo	2023-05-24T00:00:00	2024-11-08T07:00:00	7	Dirección del viento	4.83
150727	7	Sololá	719	Santiago Atitlán	14	Cerro de Oro	5	Mayo	2023-05-24T00:00:00	2024-11-08T07:00:00	1	Precipitación	0
150728	7	Sololá	719	Santiago Atitlán	14	Cerro de Oro	5	Mayo	2023-05-24T00:00:00	2024-11-08T07:00:00	8	Radiación solar	6
150729	7	Sololá	719	Santiago Atitlán	14	Cerro de Oro	5	Mayo	2023-05-24T00:00:00	2024-11-08T08:00:00	2	Temperatura media	19.6
150730	7	Sololá	719	Santiago Atitlán	14	Cerro de Oro	5	Mayo	2023-05-24T00:00:00	2024-11-08T08:00:00	4	Temperatura máxima	19.7
150731	7	Sololá	719	Santiago Atitlán	14	Cerro de Oro	5	Mayo	2023-05-24T00:00:00	2024-11-08T08:00:00	3	Temperatura mínima	18.3
150732	7	Sololá	719	Santiago Atitlán	14	Cerro de Oro	5	Mayo	2023-05-24T00:00:00	2024-11-08T08:00:00	5	Humedad	76
150733	7	Sololá	719	Santiago Atitlán	14	Cerro de Oro	5	Mayo	2023-05-24T00:00:00	2024-11-08T08:00:00	6	Velocidad del viento	3.2
150734	7	Sololá	719	Santiago Atitlán	14	Cerro de Oro	5	Mayo	2023-05-24T00:00:00	2024-11-08T08:00:00	7	Dirección del viento	3.22
150735	7	Sololá	719	Santiago Atitlán	14	Cerro de Oro	5	Mayo	2023-05-24T00:00:00	2024-11-08T08:00:00	1	Precipitación	0
150736	7	Sololá	719	Santiago Atitlán	14	Cerro de Oro	5	Mayo	2023-05-24T00:00:00	2024-11-08T08:00:00	8	Radiación solar	83
150737	7	Sololá	719	Santiago Atitlán	14	Cerro de Oro	5	Mayo	2023-05-24T00:00:00	2024-11-08T09:00:00	2	Temperatura media	20.9
150738	7	Sololá	719	Santiago Atitlán	14	Cerro de Oro	5	Mayo	2023-05-24T00:00:00	2024-11-08T09:00:00	4	Temperatura máxima	21
150739	7	Sololá	719	Santiago Atitlán	14	Cerro de Oro	5	Mayo	2023-05-24T00:00:00	2024-11-08T09:00:00	3	Temperatura mínima	19.7
150740	7	Sololá	719	Santiago Atitlán	14	Cerro de Oro	5	Mayo	2023-05-24T00:00:00	2024-11-08T09:00:00	5	Humedad	75
150741	7	Sololá	719	Santiago Atitlán	14	Cerro de Oro	5	Mayo	2023-05-24T00:00:00	2024-11-08T09:00:00	6	Velocidad del viento	4.8
150742	7	Sololá	719	Santiago Atitlán	14	Cerro de Oro	5	Mayo	2023-05-24T00:00:00	2024-11-08T09:00:00	7	Dirección del viento	4.83
150743	7	Sololá	719	Santiago Atitlán	14	Cerro de Oro	5	Mayo	2023-05-24T00:00:00	2024-11-08T09:00:00	1	Precipitación	0
150744	7	Sololá	719	Santiago Atitlán	14	Cerro de Oro	5	Mayo	2023-05-24T00:00:00	2024-11-08T09:00:00	8	Radiación solar	316
150745	7	Sololá	719	Santiago Atitlán	14	Cerro de Oro	5	Mayo	2023-05-24T00:00:00	2024-11-08T10:00:00	2	Temperatura media	21.9
150746	7	Sololá	719	Santiago Atitlán	14	Cerro de Oro	5	Mayo	2023-05-24T00:00:00	2024-11-08T10:00:00	4	Temperatura máxima	21.9
150747	7	Sololá	719	Santiago Atitlán	14	Cerro de Oro	5	Mayo	2023-05-24T00:00:00	2024-11-08T10:00:00	3	Temperatura mínima	20.8
150748	7	Sololá	719	Santiago Atitlán	14	Cerro de Oro	5	Mayo	2023-05-24T00:00:00	2024-11-08T10:00:00	5	Humedad	72
150749	7	Sololá	719	Santiago Atitlán	14	Cerro de Oro	5	Mayo	2023-05-24T00:00:00	2024-11-08T10:00:00	6	Velocidad del viento	4.8
150750	7	Sololá	719	Santiago Atitlán	14	Cerro de Oro	5	Mayo	2023-05-24T00:00:00	2024-11-08T10:00:00	7	Dirección del viento	4.83
150751	7	Sololá	719	Santiago Atitlán	14	Cerro de Oro	5	Mayo	2023-05-24T00:00:00	2024-11-08T10:00:00	1	Precipitación	0
150752	7	Sololá	719	Santiago Atitlán	14	Cerro de Oro	5	Mayo	2023-05-24T00:00:00	2024-11-08T10:00:00	8	Radiación solar	536
150753	7	Sololá	719	Santiago Atitlán	14	Cerro de Oro	5	Mayo	2023-05-24T00:00:00	2024-11-08T11:00:00	2	Temperatura media	23.2
150754	7	Sololá	719	Santiago Atitlán	14	Cerro de Oro	5	Mayo	2023-05-24T00:00:00	2024-11-08T11:00:00	4	Temperatura máxima	23.2
150755	7	Sololá	719	Santiago Atitlán	14	Cerro de Oro	5	Mayo	2023-05-24T00:00:00	2024-11-08T11:00:00	3	Temperatura mínima	21.7
150756	7	Sololá	719	Santiago Atitlán	14	Cerro de Oro	5	Mayo	2023-05-24T00:00:00	2024-11-08T11:00:00	5	Humedad	66
150757	7	Sololá	719	Santiago Atitlán	14	Cerro de Oro	5	Mayo	2023-05-24T00:00:00	2024-11-08T11:00:00	6	Velocidad del viento	4.8
150758	7	Sololá	719	Santiago Atitlán	14	Cerro de Oro	5	Mayo	2023-05-24T00:00:00	2024-11-08T11:00:00	7	Dirección del viento	4.83
150759	7	Sololá	719	Santiago Atitlán	14	Cerro de Oro	5	Mayo	2023-05-24T00:00:00	2024-11-08T11:00:00	1	Precipitación	0
150760	7	Sololá	719	Santiago Atitlán	14	Cerro de Oro	5	Mayo	2023-05-24T00:00:00	2024-11-08T11:00:00	8	Radiación solar	701
150761	7	Sololá	719	Santiago Atitlán	14	Cerro de Oro	5	Mayo	2023-05-24T00:00:00	2024-11-08T12:00:00	2	Temperatura media	24.4
150762	7	Sololá	719	Santiago Atitlán	14	Cerro de Oro	5	Mayo	2023-05-24T00:00:00	2024-11-08T12:00:00	4	Temperatura máxima	24.8
150763	7	Sololá	719	Santiago Atitlán	14	Cerro de Oro	5	Mayo	2023-05-24T00:00:00	2024-11-08T12:00:00	3	Temperatura mínima	24.3
150764	7	Sololá	719	Santiago Atitlán	14	Cerro de Oro	5	Mayo	2023-05-24T00:00:00	2024-11-08T12:00:00	5	Humedad	70
150765	7	Sololá	719	Santiago Atitlán	14	Cerro de Oro	5	Mayo	2023-05-24T00:00:00	2024-11-08T12:00:00	6	Velocidad del viento	12.9
150766	7	Sololá	719	Santiago Atitlán	14	Cerro de Oro	5	Mayo	2023-05-24T00:00:00	2024-11-08T12:00:00	7	Dirección del viento	12.87
150767	7	Sololá	719	Santiago Atitlán	14	Cerro de Oro	5	Mayo	2023-05-24T00:00:00	2024-11-08T12:00:00	1	Precipitación	0
150768	7	Sololá	719	Santiago Atitlán	14	Cerro de Oro	5	Mayo	2023-05-24T00:00:00	2024-11-08T12:00:00	8	Radiación solar	943
150769	7	Sololá	719	Santiago Atitlán	14	Cerro de Oro	5	Mayo	2023-05-24T00:00:00	2024-11-08T13:00:00	2	Temperatura media	25.1
150770	7	Sololá	719	Santiago Atitlán	14	Cerro de Oro	5	Mayo	2023-05-24T00:00:00	2024-11-08T13:00:00	4	Temperatura máxima	25.5
150771	7	Sololá	719	Santiago Atitlán	14	Cerro de Oro	5	Mayo	2023-05-24T00:00:00	2024-11-08T13:00:00	3	Temperatura mínima	24.3
150772	7	Sololá	719	Santiago Atitlán	14	Cerro de Oro	5	Mayo	2023-05-24T00:00:00	2024-11-08T13:00:00	5	Humedad	69
150773	7	Sololá	719	Santiago Atitlán	14	Cerro de Oro	5	Mayo	2023-05-24T00:00:00	2024-11-08T13:00:00	6	Velocidad del viento	11.3
150774	7	Sololá	719	Santiago Atitlán	14	Cerro de Oro	5	Mayo	2023-05-24T00:00:00	2024-11-08T13:00:00	7	Dirección del viento	11.27
150775	7	Sololá	719	Santiago Atitlán	14	Cerro de Oro	5	Mayo	2023-05-24T00:00:00	2024-11-08T13:00:00	1	Precipitación	0
150776	7	Sololá	719	Santiago Atitlán	14	Cerro de Oro	5	Mayo	2023-05-24T00:00:00	2024-11-08T13:00:00	8	Radiación solar	979
150777	7	Sololá	719	Santiago Atitlán	14	Cerro de Oro	5	Mayo	2023-05-24T00:00:00	2024-11-08T14:00:00	2	Temperatura media	24.1
150778	7	Sololá	719	Santiago Atitlán	14	Cerro de Oro	5	Mayo	2023-05-24T00:00:00	2024-11-08T14:00:00	4	Temperatura máxima	25.1
150779	7	Sololá	719	Santiago Atitlán	14	Cerro de Oro	5	Mayo	2023-05-24T00:00:00	2024-11-08T14:00:00	3	Temperatura mínima	23.6
150780	7	Sololá	719	Santiago Atitlán	14	Cerro de Oro	5	Mayo	2023-05-24T00:00:00	2024-11-08T14:00:00	5	Humedad	75
150781	7	Sololá	719	Santiago Atitlán	14	Cerro de Oro	5	Mayo	2023-05-24T00:00:00	2024-11-08T14:00:00	6	Velocidad del viento	11.3
150782	7	Sololá	719	Santiago Atitlán	14	Cerro de Oro	5	Mayo	2023-05-24T00:00:00	2024-11-08T14:00:00	7	Dirección del viento	11.27
150783	7	Sololá	719	Santiago Atitlán	14	Cerro de Oro	5	Mayo	2023-05-24T00:00:00	2024-11-08T14:00:00	1	Precipitación	0
150784	7	Sololá	719	Santiago Atitlán	14	Cerro de Oro	5	Mayo	2023-05-24T00:00:00	2024-11-08T14:00:00	8	Radiación solar	357
150785	7	Sololá	719	Santiago Atitlán	14	Cerro de Oro	5	Mayo	2023-05-24T00:00:00	2024-11-08T15:00:00	2	Temperatura media	23.7
150786	7	Sololá	719	Santiago Atitlán	14	Cerro de Oro	5	Mayo	2023-05-24T00:00:00	2024-11-08T15:00:00	4	Temperatura máxima	24.3
150787	7	Sololá	719	Santiago Atitlán	14	Cerro de Oro	5	Mayo	2023-05-24T00:00:00	2024-11-08T15:00:00	3	Temperatura mínima	23.6
150788	7	Sololá	719	Santiago Atitlán	14	Cerro de Oro	5	Mayo	2023-05-24T00:00:00	2024-11-08T15:00:00	5	Humedad	77
150789	7	Sololá	719	Santiago Atitlán	14	Cerro de Oro	5	Mayo	2023-05-24T00:00:00	2024-11-08T15:00:00	6	Velocidad del viento	9.7
150790	7	Sololá	719	Santiago Atitlán	14	Cerro de Oro	5	Mayo	2023-05-24T00:00:00	2024-11-08T15:00:00	7	Dirección del viento	9.66
150791	7	Sololá	719	Santiago Atitlán	14	Cerro de Oro	5	Mayo	2023-05-24T00:00:00	2024-11-08T15:00:00	1	Precipitación	0
150792	7	Sololá	719	Santiago Atitlán	14	Cerro de Oro	5	Mayo	2023-05-24T00:00:00	2024-11-08T15:00:00	8	Radiación solar	244
150793	7	Sololá	719	Santiago Atitlán	14	Cerro de Oro	5	Mayo	2023-05-24T00:00:00	2024-11-08T16:00:00	2	Temperatura media	22.8
150794	7	Sololá	719	Santiago Atitlán	14	Cerro de Oro	5	Mayo	2023-05-24T00:00:00	2024-11-08T16:00:00	4	Temperatura máxima	23.7
150795	7	Sololá	719	Santiago Atitlán	14	Cerro de Oro	5	Mayo	2023-05-24T00:00:00	2024-11-08T16:00:00	3	Temperatura mínima	22.6
150796	7	Sololá	719	Santiago Atitlán	14	Cerro de Oro	5	Mayo	2023-05-24T00:00:00	2024-11-08T16:00:00	5	Humedad	79
150797	7	Sololá	719	Santiago Atitlán	14	Cerro de Oro	5	Mayo	2023-05-24T00:00:00	2024-11-08T16:00:00	6	Velocidad del viento	9.7
150798	7	Sololá	719	Santiago Atitlán	14	Cerro de Oro	5	Mayo	2023-05-24T00:00:00	2024-11-08T16:00:00	7	Dirección del viento	9.66
150799	7	Sololá	719	Santiago Atitlán	14	Cerro de Oro	5	Mayo	2023-05-24T00:00:00	2024-11-08T16:00:00	1	Precipitación	0
150800	7	Sololá	719	Santiago Atitlán	14	Cerro de Oro	5	Mayo	2023-05-24T00:00:00	2024-11-08T16:00:00	8	Radiación solar	185
150801	7	Sololá	719	Santiago Atitlán	14	Cerro de Oro	5	Mayo	2023-05-24T00:00:00	2024-11-08T17:00:00	2	Temperatura media	22.7
150802	7	Sololá	719	Santiago Atitlán	14	Cerro de Oro	5	Mayo	2023-05-24T00:00:00	2024-11-08T17:00:00	4	Temperatura máxima	22.9
150803	7	Sololá	719	Santiago Atitlán	14	Cerro de Oro	5	Mayo	2023-05-24T00:00:00	2024-11-08T17:00:00	3	Temperatura mínima	22.4
150804	7	Sololá	719	Santiago Atitlán	14	Cerro de Oro	5	Mayo	2023-05-24T00:00:00	2024-11-08T17:00:00	5	Humedad	81
150805	7	Sololá	719	Santiago Atitlán	14	Cerro de Oro	5	Mayo	2023-05-24T00:00:00	2024-11-08T17:00:00	6	Velocidad del viento	6.4
150806	7	Sololá	719	Santiago Atitlán	14	Cerro de Oro	5	Mayo	2023-05-24T00:00:00	2024-11-08T17:00:00	7	Dirección del viento	6.44
150807	7	Sololá	719	Santiago Atitlán	14	Cerro de Oro	5	Mayo	2023-05-24T00:00:00	2024-11-08T17:00:00	1	Precipitación	0
150808	7	Sololá	719	Santiago Atitlán	14	Cerro de Oro	5	Mayo	2023-05-24T00:00:00	2024-11-08T17:00:00	8	Radiación solar	116
150809	7	Sololá	719	Santiago Atitlán	14	Cerro de Oro	5	Mayo	2023-05-24T00:00:00	2024-11-08T18:00:00	2	Temperatura media	22.1
150810	7	Sololá	719	Santiago Atitlán	14	Cerro de Oro	5	Mayo	2023-05-24T00:00:00	2024-11-08T18:00:00	4	Temperatura máxima	23
150811	7	Sololá	719	Santiago Atitlán	14	Cerro de Oro	5	Mayo	2023-05-24T00:00:00	2024-11-08T18:00:00	3	Temperatura mínima	22.1
150812	7	Sololá	719	Santiago Atitlán	14	Cerro de Oro	5	Mayo	2023-05-24T00:00:00	2024-11-08T18:00:00	5	Humedad	83
150813	7	Sololá	719	Santiago Atitlán	14	Cerro de Oro	5	Mayo	2023-05-24T00:00:00	2024-11-08T18:00:00	6	Velocidad del viento	4.8
150814	7	Sololá	719	Santiago Atitlán	14	Cerro de Oro	5	Mayo	2023-05-24T00:00:00	2024-11-08T18:00:00	7	Dirección del viento	4.83
150815	7	Sololá	719	Santiago Atitlán	14	Cerro de Oro	5	Mayo	2023-05-24T00:00:00	2024-11-08T18:00:00	1	Precipitación	0
150816	7	Sololá	719	Santiago Atitlán	14	Cerro de Oro	5	Mayo	2023-05-24T00:00:00	2024-11-08T18:00:00	8	Radiación solar	126
150817	7	Sololá	719	Santiago Atitlán	14	Cerro de Oro	5	Mayo	2023-05-24T00:00:00	2024-11-08T19:00:00	2	Temperatura media	21.2
150818	7	Sololá	719	Santiago Atitlán	14	Cerro de Oro	5	Mayo	2023-05-24T00:00:00	2024-11-08T19:00:00	4	Temperatura máxima	22.1
150819	7	Sololá	719	Santiago Atitlán	14	Cerro de Oro	5	Mayo	2023-05-24T00:00:00	2024-11-08T19:00:00	3	Temperatura mínima	21.2
150820	7	Sololá	719	Santiago Atitlán	14	Cerro de Oro	5	Mayo	2023-05-24T00:00:00	2024-11-08T19:00:00	5	Humedad	85
150821	7	Sololá	719	Santiago Atitlán	14	Cerro de Oro	5	Mayo	2023-05-24T00:00:00	2024-11-08T19:00:00	6	Velocidad del viento	6.4
150822	7	Sololá	719	Santiago Atitlán	14	Cerro de Oro	5	Mayo	2023-05-24T00:00:00	2024-11-08T19:00:00	7	Dirección del viento	6.44
150823	7	Sololá	719	Santiago Atitlán	14	Cerro de Oro	5	Mayo	2023-05-24T00:00:00	2024-11-08T19:00:00	1	Precipitación	0
150824	7	Sololá	719	Santiago Atitlán	14	Cerro de Oro	5	Mayo	2023-05-24T00:00:00	2024-11-08T19:00:00	8	Radiación solar	0
150825	7	Sololá	719	Santiago Atitlán	14	Cerro de Oro	5	Mayo	2023-05-24T00:00:00	2024-11-08T20:00:00	2	Temperatura media	21.1
150826	7	Sololá	719	Santiago Atitlán	14	Cerro de Oro	5	Mayo	2023-05-24T00:00:00	2024-11-08T20:00:00	4	Temperatura máxima	21.2
150827	7	Sololá	719	Santiago Atitlán	14	Cerro de Oro	5	Mayo	2023-05-24T00:00:00	2024-11-08T20:00:00	3	Temperatura mínima	20.8
150828	7	Sololá	719	Santiago Atitlán	14	Cerro de Oro	5	Mayo	2023-05-24T00:00:00	2024-11-08T20:00:00	5	Humedad	85
150829	7	Sololá	719	Santiago Atitlán	14	Cerro de Oro	5	Mayo	2023-05-24T00:00:00	2024-11-08T20:00:00	6	Velocidad del viento	3.2
150830	7	Sololá	719	Santiago Atitlán	14	Cerro de Oro	5	Mayo	2023-05-24T00:00:00	2024-11-08T20:00:00	7	Dirección del viento	3.22
150831	7	Sololá	719	Santiago Atitlán	14	Cerro de Oro	5	Mayo	2023-05-24T00:00:00	2024-11-08T20:00:00	1	Precipitación	0
150832	7	Sololá	719	Santiago Atitlán	14	Cerro de Oro	5	Mayo	2023-05-24T00:00:00	2024-11-08T20:00:00	8	Radiación solar	0
150833	7	Sololá	719	Santiago Atitlán	14	Cerro de Oro	5	Mayo	2023-05-24T00:00:00	2024-11-08T21:00:00	2	Temperatura media	20.6
150834	7	Sololá	719	Santiago Atitlán	14	Cerro de Oro	5	Mayo	2023-05-24T00:00:00	2024-11-08T21:00:00	4	Temperatura máxima	21.1
150835	7	Sololá	719	Santiago Atitlán	14	Cerro de Oro	5	Mayo	2023-05-24T00:00:00	2024-11-08T21:00:00	3	Temperatura mínima	20.6
150836	7	Sololá	719	Santiago Atitlán	14	Cerro de Oro	5	Mayo	2023-05-24T00:00:00	2024-11-08T21:00:00	5	Humedad	85
150837	7	Sololá	719	Santiago Atitlán	14	Cerro de Oro	5	Mayo	2023-05-24T00:00:00	2024-11-08T21:00:00	6	Velocidad del viento	3.2
150838	7	Sololá	719	Santiago Atitlán	14	Cerro de Oro	5	Mayo	2023-05-24T00:00:00	2024-11-08T21:00:00	7	Dirección del viento	3.22
150839	7	Sololá	719	Santiago Atitlán	14	Cerro de Oro	5	Mayo	2023-05-24T00:00:00	2024-11-08T21:00:00	1	Precipitación	0
150840	7	Sololá	719	Santiago Atitlán	14	Cerro de Oro	5	Mayo	2023-05-24T00:00:00	2024-11-08T21:00:00	8	Radiación solar	0
150841	7	Sololá	719	Santiago Atitlán	14	Cerro de Oro	5	Mayo	2023-05-24T00:00:00	2024-11-08T22:00:00	2	Temperatura media	20.1
150842	7	Sololá	719	Santiago Atitlán	14	Cerro de Oro	5	Mayo	2023-05-24T00:00:00	2024-11-08T22:00:00	4	Temperatura máxima	20.6
150843	7	Sololá	719	Santiago Atitlán	14	Cerro de Oro	5	Mayo	2023-05-24T00:00:00	2024-11-08T22:00:00	3	Temperatura mínima	19.9
150844	7	Sololá	719	Santiago Atitlán	14	Cerro de Oro	5	Mayo	2023-05-24T00:00:00	2024-11-08T22:00:00	5	Humedad	88
150845	7	Sololá	719	Santiago Atitlán	14	Cerro de Oro	5	Mayo	2023-05-24T00:00:00	2024-11-08T22:00:00	6	Velocidad del viento	3.2
150846	7	Sololá	719	Santiago Atitlán	14	Cerro de Oro	5	Mayo	2023-05-24T00:00:00	2024-11-08T22:00:00	7	Dirección del viento	3.22
150847	7	Sololá	719	Santiago Atitlán	14	Cerro de Oro	5	Mayo	2023-05-24T00:00:00	2024-11-08T22:00:00	1	Precipitación	0
150848	7	Sololá	719	Santiago Atitlán	14	Cerro de Oro	5	Mayo	2023-05-24T00:00:00	2024-11-08T22:00:00	8	Radiación solar	0
150849	7	Sololá	719	Santiago Atitlán	14	Cerro de Oro	5	Mayo	2023-05-24T00:00:00	2024-11-08T23:00:00	2	Temperatura media	20
150850	7	Sololá	719	Santiago Atitlán	14	Cerro de Oro	5	Mayo	2023-05-24T00:00:00	2024-11-08T23:00:00	4	Temperatura máxima	20.1
150851	7	Sololá	719	Santiago Atitlán	14	Cerro de Oro	5	Mayo	2023-05-24T00:00:00	2024-11-08T23:00:00	3	Temperatura mínima	19.8
150852	7	Sololá	719	Santiago Atitlán	14	Cerro de Oro	5	Mayo	2023-05-24T00:00:00	2024-11-08T23:00:00	5	Humedad	87
150853	7	Sololá	719	Santiago Atitlán	14	Cerro de Oro	5	Mayo	2023-05-24T00:00:00	2024-11-08T23:00:00	6	Velocidad del viento	3.2
150854	7	Sololá	719	Santiago Atitlán	14	Cerro de Oro	5	Mayo	2023-05-24T00:00:00	2024-11-08T23:00:00	7	Dirección del viento	3.22
150855	7	Sololá	719	Santiago Atitlán	14	Cerro de Oro	5	Mayo	2023-05-24T00:00:00	2024-11-08T23:00:00	1	Precipitación	0
150856	7	Sololá	719	Santiago Atitlán	14	Cerro de Oro	5	Mayo	2023-05-24T00:00:00	2024-11-08T23:00:00	8	Radiación solar	0
150857	7	Sololá	719	Santiago Atitlán	14	Cerro de Oro	5	Mayo	2023-05-25T00:00:00	2024-11-08T00:00:00	2	Temperatura media	19.7
150858	7	Sololá	719	Santiago Atitlán	14	Cerro de Oro	5	Mayo	2023-05-25T00:00:00	2024-11-08T00:00:00	4	Temperatura máxima	20.1
150859	7	Sololá	719	Santiago Atitlán	14	Cerro de Oro	5	Mayo	2023-05-25T00:00:00	2024-11-08T00:00:00	3	Temperatura mínima	19.7
150860	7	Sololá	719	Santiago Atitlán	14	Cerro de Oro	5	Mayo	2023-05-25T00:00:00	2024-11-08T00:00:00	5	Humedad	88
150861	7	Sololá	719	Santiago Atitlán	14	Cerro de Oro	5	Mayo	2023-05-25T00:00:00	2024-11-08T00:00:00	6	Velocidad del viento	3.2
150862	7	Sololá	719	Santiago Atitlán	14	Cerro de Oro	5	Mayo	2023-05-25T00:00:00	2024-11-08T00:00:00	7	Dirección del viento	3.22
150863	7	Sololá	719	Santiago Atitlán	14	Cerro de Oro	5	Mayo	2023-05-25T00:00:00	2024-11-08T00:00:00	1	Precipitación	0.6
150864	7	Sololá	719	Santiago Atitlán	14	Cerro de Oro	5	Mayo	2023-05-25T00:00:00	2024-11-08T00:00:00	8	Radiación solar	0
150865	7	Sololá	719	Santiago Atitlán	14	Cerro de Oro	5	Mayo	2023-05-25T00:00:00	2024-11-08T01:00:00	2	Temperatura media	19
150866	7	Sololá	719	Santiago Atitlán	14	Cerro de Oro	5	Mayo	2023-05-25T00:00:00	2024-11-08T01:00:00	4	Temperatura máxima	19.7
150867	7	Sololá	719	Santiago Atitlán	14	Cerro de Oro	5	Mayo	2023-05-25T00:00:00	2024-11-08T01:00:00	3	Temperatura mínima	18.9
150868	7	Sololá	719	Santiago Atitlán	14	Cerro de Oro	5	Mayo	2023-05-25T00:00:00	2024-11-08T01:00:00	5	Humedad	92
150869	7	Sololá	719	Santiago Atitlán	14	Cerro de Oro	5	Mayo	2023-05-25T00:00:00	2024-11-08T01:00:00	6	Velocidad del viento	3.2
150870	7	Sololá	719	Santiago Atitlán	14	Cerro de Oro	5	Mayo	2023-05-25T00:00:00	2024-11-08T01:00:00	7	Dirección del viento	3.22
150871	7	Sololá	719	Santiago Atitlán	14	Cerro de Oro	5	Mayo	2023-05-25T00:00:00	2024-11-08T01:00:00	1	Precipitación	1
150872	7	Sololá	719	Santiago Atitlán	14	Cerro de Oro	5	Mayo	2023-05-25T00:00:00	2024-11-08T01:00:00	8	Radiación solar	0
150873	7	Sololá	719	Santiago Atitlán	14	Cerro de Oro	5	Mayo	2023-05-25T00:00:00	2024-11-08T02:00:00	2	Temperatura media	18.5
150874	7	Sololá	719	Santiago Atitlán	14	Cerro de Oro	5	Mayo	2023-05-25T00:00:00	2024-11-08T02:00:00	4	Temperatura máxima	19.1
150875	7	Sololá	719	Santiago Atitlán	14	Cerro de Oro	5	Mayo	2023-05-25T00:00:00	2024-11-08T02:00:00	3	Temperatura mínima	18.5
150876	7	Sololá	719	Santiago Atitlán	14	Cerro de Oro	5	Mayo	2023-05-25T00:00:00	2024-11-08T02:00:00	5	Humedad	91
150877	7	Sololá	719	Santiago Atitlán	14	Cerro de Oro	5	Mayo	2023-05-25T00:00:00	2024-11-08T02:00:00	6	Velocidad del viento	3.2
150878	7	Sololá	719	Santiago Atitlán	14	Cerro de Oro	5	Mayo	2023-05-25T00:00:00	2024-11-08T02:00:00	7	Dirección del viento	3.22
150879	7	Sololá	719	Santiago Atitlán	14	Cerro de Oro	5	Mayo	2023-05-25T00:00:00	2024-11-08T02:00:00	1	Precipitación	0
150880	7	Sololá	719	Santiago Atitlán	14	Cerro de Oro	5	Mayo	2023-05-25T00:00:00	2024-11-08T02:00:00	8	Radiación solar	0
150881	7	Sololá	719	Santiago Atitlán	14	Cerro de Oro	5	Mayo	2023-05-25T00:00:00	2024-11-08T03:00:00	2	Temperatura media	18.6
150882	7	Sololá	719	Santiago Atitlán	14	Cerro de Oro	5	Mayo	2023-05-25T00:00:00	2024-11-08T03:00:00	4	Temperatura máxima	18.8
150883	7	Sololá	719	Santiago Atitlán	14	Cerro de Oro	5	Mayo	2023-05-25T00:00:00	2024-11-08T03:00:00	3	Temperatura mínima	18.4
150884	7	Sololá	719	Santiago Atitlán	14	Cerro de Oro	5	Mayo	2023-05-25T00:00:00	2024-11-08T03:00:00	5	Humedad	87
150885	7	Sololá	719	Santiago Atitlán	14	Cerro de Oro	5	Mayo	2023-05-25T00:00:00	2024-11-08T03:00:00	6	Velocidad del viento	3.2
150886	7	Sololá	719	Santiago Atitlán	14	Cerro de Oro	5	Mayo	2023-05-25T00:00:00	2024-11-08T03:00:00	7	Dirección del viento	3.22
150887	7	Sololá	719	Santiago Atitlán	14	Cerro de Oro	5	Mayo	2023-05-25T00:00:00	2024-11-08T03:00:00	1	Precipitación	0
150888	7	Sololá	719	Santiago Atitlán	14	Cerro de Oro	5	Mayo	2023-05-25T00:00:00	2024-11-08T03:00:00	8	Radiación solar	0
150889	7	Sololá	719	Santiago Atitlán	14	Cerro de Oro	5	Mayo	2023-05-25T00:00:00	2024-11-08T04:00:00	2	Temperatura media	18.4
150890	7	Sololá	719	Santiago Atitlán	14	Cerro de Oro	5	Mayo	2023-05-25T00:00:00	2024-11-08T04:00:00	4	Temperatura máxima	18.8
150891	7	Sololá	719	Santiago Atitlán	14	Cerro de Oro	5	Mayo	2023-05-25T00:00:00	2024-11-08T04:00:00	3	Temperatura mínima	18.3
150892	7	Sololá	719	Santiago Atitlán	14	Cerro de Oro	5	Mayo	2023-05-25T00:00:00	2024-11-08T04:00:00	5	Humedad	85
150893	7	Sololá	719	Santiago Atitlán	14	Cerro de Oro	5	Mayo	2023-05-25T00:00:00	2024-11-08T04:00:00	6	Velocidad del viento	3.2
150894	7	Sololá	719	Santiago Atitlán	14	Cerro de Oro	5	Mayo	2023-05-25T00:00:00	2024-11-08T04:00:00	7	Dirección del viento	3.22
150895	7	Sololá	719	Santiago Atitlán	14	Cerro de Oro	5	Mayo	2023-05-25T00:00:00	2024-11-08T04:00:00	1	Precipitación	0
150896	7	Sololá	719	Santiago Atitlán	14	Cerro de Oro	5	Mayo	2023-05-25T00:00:00	2024-11-08T04:00:00	8	Radiación solar	0
150897	7	Sololá	719	Santiago Atitlán	14	Cerro de Oro	5	Mayo	2023-05-25T00:00:00	2024-11-08T05:00:00	2	Temperatura media	18
150898	7	Sololá	719	Santiago Atitlán	14	Cerro de Oro	5	Mayo	2023-05-25T00:00:00	2024-11-08T05:00:00	4	Temperatura máxima	18.6
150899	7	Sololá	719	Santiago Atitlán	14	Cerro de Oro	5	Mayo	2023-05-25T00:00:00	2024-11-08T05:00:00	3	Temperatura mínima	17.8
150900	7	Sololá	719	Santiago Atitlán	14	Cerro de Oro	5	Mayo	2023-05-25T00:00:00	2024-11-08T05:00:00	5	Humedad	85
150901	7	Sololá	719	Santiago Atitlán	14	Cerro de Oro	5	Mayo	2023-05-25T00:00:00	2024-11-08T05:00:00	6	Velocidad del viento	3.2
150902	7	Sololá	719	Santiago Atitlán	14	Cerro de Oro	5	Mayo	2023-05-25T00:00:00	2024-11-08T05:00:00	7	Dirección del viento	3.22
150903	7	Sololá	719	Santiago Atitlán	14	Cerro de Oro	5	Mayo	2023-05-25T00:00:00	2024-11-08T05:00:00	1	Precipitación	0
150904	7	Sololá	719	Santiago Atitlán	14	Cerro de Oro	5	Mayo	2023-05-25T00:00:00	2024-11-08T05:00:00	8	Radiación solar	0
150905	7	Sololá	719	Santiago Atitlán	14	Cerro de Oro	5	Mayo	2023-05-25T00:00:00	2024-11-08T06:00:00	2	Temperatura media	18.2
150906	7	Sololá	719	Santiago Atitlán	14	Cerro de Oro	5	Mayo	2023-05-25T00:00:00	2024-11-08T06:00:00	4	Temperatura máxima	18.3
150907	7	Sololá	719	Santiago Atitlán	14	Cerro de Oro	5	Mayo	2023-05-25T00:00:00	2024-11-08T06:00:00	3	Temperatura mínima	18
150908	7	Sololá	719	Santiago Atitlán	14	Cerro de Oro	5	Mayo	2023-05-25T00:00:00	2024-11-08T06:00:00	5	Humedad	82
150909	7	Sololá	719	Santiago Atitlán	14	Cerro de Oro	5	Mayo	2023-05-25T00:00:00	2024-11-08T06:00:00	6	Velocidad del viento	4.8
150910	7	Sololá	719	Santiago Atitlán	14	Cerro de Oro	5	Mayo	2023-05-25T00:00:00	2024-11-08T06:00:00	7	Dirección del viento	4.83
150911	7	Sololá	719	Santiago Atitlán	14	Cerro de Oro	5	Mayo	2023-05-25T00:00:00	2024-11-08T06:00:00	1	Precipitación	0
150912	7	Sololá	719	Santiago Atitlán	14	Cerro de Oro	5	Mayo	2023-05-25T00:00:00	2024-11-08T06:00:00	8	Radiación solar	12
150913	7	Sololá	719	Santiago Atitlán	14	Cerro de Oro	5	Mayo	2023-05-25T00:00:00	2024-11-08T07:00:00	2	Temperatura media	19.4
150914	7	Sololá	719	Santiago Atitlán	14	Cerro de Oro	5	Mayo	2023-05-25T00:00:00	2024-11-08T07:00:00	4	Temperatura máxima	19.4
150915	7	Sololá	719	Santiago Atitlán	14	Cerro de Oro	5	Mayo	2023-05-25T00:00:00	2024-11-08T07:00:00	3	Temperatura mínima	18.2
150916	7	Sololá	719	Santiago Atitlán	14	Cerro de Oro	5	Mayo	2023-05-25T00:00:00	2024-11-08T07:00:00	5	Humedad	77
150917	7	Sololá	719	Santiago Atitlán	14	Cerro de Oro	5	Mayo	2023-05-25T00:00:00	2024-11-08T07:00:00	6	Velocidad del viento	3.2
150918	7	Sololá	719	Santiago Atitlán	14	Cerro de Oro	5	Mayo	2023-05-25T00:00:00	2024-11-08T07:00:00	7	Dirección del viento	3.22
150919	7	Sololá	719	Santiago Atitlán	14	Cerro de Oro	5	Mayo	2023-05-25T00:00:00	2024-11-08T07:00:00	1	Precipitación	0
150920	7	Sololá	719	Santiago Atitlán	14	Cerro de Oro	5	Mayo	2023-05-25T00:00:00	2024-11-08T07:00:00	8	Radiación solar	102
150921	7	Sololá	719	Santiago Atitlán	14	Cerro de Oro	5	Mayo	2023-05-25T00:00:00	2024-11-08T08:00:00	2	Temperatura media	21.4
150922	7	Sololá	719	Santiago Atitlán	14	Cerro de Oro	5	Mayo	2023-05-25T00:00:00	2024-11-08T08:00:00	4	Temperatura máxima	21.5
150923	7	Sololá	719	Santiago Atitlán	14	Cerro de Oro	5	Mayo	2023-05-25T00:00:00	2024-11-08T08:00:00	3	Temperatura mínima	19.4
150924	7	Sololá	719	Santiago Atitlán	14	Cerro de Oro	5	Mayo	2023-05-25T00:00:00	2024-11-08T08:00:00	5	Humedad	69
150925	7	Sololá	719	Santiago Atitlán	14	Cerro de Oro	5	Mayo	2023-05-25T00:00:00	2024-11-08T08:00:00	6	Velocidad del viento	3.2
150926	7	Sololá	719	Santiago Atitlán	14	Cerro de Oro	5	Mayo	2023-05-25T00:00:00	2024-11-08T08:00:00	7	Dirección del viento	3.22
150927	7	Sololá	719	Santiago Atitlán	14	Cerro de Oro	5	Mayo	2023-05-25T00:00:00	2024-11-08T08:00:00	1	Precipitación	0
150928	7	Sololá	719	Santiago Atitlán	14	Cerro de Oro	5	Mayo	2023-05-25T00:00:00	2024-11-08T08:00:00	8	Radiación solar	301
150929	7	Sololá	719	Santiago Atitlán	14	Cerro de Oro	5	Mayo	2023-05-25T00:00:00	2024-11-08T09:00:00	2	Temperatura media	23
150930	7	Sololá	719	Santiago Atitlán	14	Cerro de Oro	5	Mayo	2023-05-25T00:00:00	2024-11-08T09:00:00	4	Temperatura máxima	23
150931	7	Sololá	719	Santiago Atitlán	14	Cerro de Oro	5	Mayo	2023-05-25T00:00:00	2024-11-08T09:00:00	3	Temperatura mínima	21.4
150932	7	Sololá	719	Santiago Atitlán	14	Cerro de Oro	5	Mayo	2023-05-25T00:00:00	2024-11-08T09:00:00	5	Humedad	71
150933	7	Sololá	719	Santiago Atitlán	14	Cerro de Oro	5	Mayo	2023-05-25T00:00:00	2024-11-08T09:00:00	6	Velocidad del viento	3.2
150934	7	Sololá	719	Santiago Atitlán	14	Cerro de Oro	5	Mayo	2023-05-25T00:00:00	2024-11-08T09:00:00	7	Dirección del viento	3.22
150935	7	Sololá	719	Santiago Atitlán	14	Cerro de Oro	5	Mayo	2023-05-25T00:00:00	2024-11-08T09:00:00	1	Precipitación	0
150936	7	Sololá	719	Santiago Atitlán	14	Cerro de Oro	5	Mayo	2023-05-25T00:00:00	2024-11-08T09:00:00	8	Radiación solar	553
150937	7	Sololá	719	Santiago Atitlán	14	Cerro de Oro	5	Mayo	2023-05-25T00:00:00	2024-11-08T10:00:00	2	Temperatura media	23.4
150938	7	Sololá	719	Santiago Atitlán	14	Cerro de Oro	5	Mayo	2023-05-25T00:00:00	2024-11-08T10:00:00	4	Temperatura máxima	23.4
150939	7	Sololá	719	Santiago Atitlán	14	Cerro de Oro	5	Mayo	2023-05-25T00:00:00	2024-11-08T10:00:00	3	Temperatura mínima	22.8
150940	7	Sololá	719	Santiago Atitlán	14	Cerro de Oro	5	Mayo	2023-05-25T00:00:00	2024-11-08T10:00:00	5	Humedad	71
150941	7	Sololá	719	Santiago Atitlán	14	Cerro de Oro	5	Mayo	2023-05-25T00:00:00	2024-11-08T10:00:00	6	Velocidad del viento	4.8
150942	7	Sololá	719	Santiago Atitlán	14	Cerro de Oro	5	Mayo	2023-05-25T00:00:00	2024-11-08T10:00:00	7	Dirección del viento	4.83
150943	7	Sololá	719	Santiago Atitlán	14	Cerro de Oro	5	Mayo	2023-05-25T00:00:00	2024-11-08T10:00:00	1	Precipitación	0
150944	7	Sololá	719	Santiago Atitlán	14	Cerro de Oro	5	Mayo	2023-05-25T00:00:00	2024-11-08T10:00:00	8	Radiación solar	736
150945	7	Sololá	719	Santiago Atitlán	14	Cerro de Oro	5	Mayo	2023-05-25T00:00:00	2024-11-08T11:00:00	2	Temperatura media	24.4
150946	7	Sololá	719	Santiago Atitlán	14	Cerro de Oro	5	Mayo	2023-05-25T00:00:00	2024-11-08T11:00:00	4	Temperatura máxima	24.4
150947	7	Sololá	719	Santiago Atitlán	14	Cerro de Oro	5	Mayo	2023-05-25T00:00:00	2024-11-08T11:00:00	3	Temperatura mínima	23.3
150948	7	Sololá	719	Santiago Atitlán	14	Cerro de Oro	5	Mayo	2023-05-25T00:00:00	2024-11-08T11:00:00	5	Humedad	64
150949	7	Sololá	719	Santiago Atitlán	14	Cerro de Oro	5	Mayo	2023-05-25T00:00:00	2024-11-08T11:00:00	6	Velocidad del viento	6.4
150950	7	Sololá	719	Santiago Atitlán	14	Cerro de Oro	5	Mayo	2023-05-25T00:00:00	2024-11-08T11:00:00	7	Dirección del viento	6.44
150951	7	Sololá	719	Santiago Atitlán	14	Cerro de Oro	5	Mayo	2023-05-25T00:00:00	2024-11-08T11:00:00	1	Precipitación	0
150952	7	Sololá	719	Santiago Atitlán	14	Cerro de Oro	5	Mayo	2023-05-25T00:00:00	2024-11-08T11:00:00	8	Radiación solar	864
150953	7	Sololá	719	Santiago Atitlán	14	Cerro de Oro	5	Mayo	2023-05-25T00:00:00	2024-11-08T12:00:00	2	Temperatura media	24.7
150954	7	Sololá	719	Santiago Atitlán	14	Cerro de Oro	5	Mayo	2023-05-25T00:00:00	2024-11-08T12:00:00	4	Temperatura máxima	25.4
150955	7	Sololá	719	Santiago Atitlán	14	Cerro de Oro	5	Mayo	2023-05-25T00:00:00	2024-11-08T12:00:00	3	Temperatura mínima	24.2
150956	7	Sololá	719	Santiago Atitlán	14	Cerro de Oro	5	Mayo	2023-05-25T00:00:00	2024-11-08T12:00:00	5	Humedad	70
150957	7	Sololá	719	Santiago Atitlán	14	Cerro de Oro	5	Mayo	2023-05-25T00:00:00	2024-11-08T12:00:00	6	Velocidad del viento	9.7
150958	7	Sololá	719	Santiago Atitlán	14	Cerro de Oro	5	Mayo	2023-05-25T00:00:00	2024-11-08T12:00:00	7	Dirección del viento	9.66
150959	7	Sololá	719	Santiago Atitlán	14	Cerro de Oro	5	Mayo	2023-05-25T00:00:00	2024-11-08T12:00:00	1	Precipitación	0
150960	7	Sololá	719	Santiago Atitlán	14	Cerro de Oro	5	Mayo	2023-05-25T00:00:00	2024-11-08T12:00:00	8	Radiación solar	885
150961	7	Sololá	719	Santiago Atitlán	14	Cerro de Oro	5	Mayo	2023-05-25T00:00:00	2024-11-08T13:00:00	2	Temperatura media	24.5
150962	7	Sololá	719	Santiago Atitlán	14	Cerro de Oro	5	Mayo	2023-05-25T00:00:00	2024-11-08T13:00:00	4	Temperatura máxima	25.1
150963	7	Sololá	719	Santiago Atitlán	14	Cerro de Oro	5	Mayo	2023-05-25T00:00:00	2024-11-08T13:00:00	3	Temperatura mínima	23.9
150964	7	Sololá	719	Santiago Atitlán	14	Cerro de Oro	5	Mayo	2023-05-25T00:00:00	2024-11-08T13:00:00	5	Humedad	75
150965	7	Sololá	719	Santiago Atitlán	14	Cerro de Oro	5	Mayo	2023-05-25T00:00:00	2024-11-08T13:00:00	6	Velocidad del viento	12.9
150966	7	Sololá	719	Santiago Atitlán	14	Cerro de Oro	5	Mayo	2023-05-25T00:00:00	2024-11-08T13:00:00	7	Dirección del viento	12.87
150967	7	Sololá	719	Santiago Atitlán	14	Cerro de Oro	5	Mayo	2023-05-25T00:00:00	2024-11-08T13:00:00	1	Precipitación	0
150968	7	Sololá	719	Santiago Atitlán	14	Cerro de Oro	5	Mayo	2023-05-25T00:00:00	2024-11-08T13:00:00	8	Radiación solar	811
150969	7	Sololá	719	Santiago Atitlán	14	Cerro de Oro	5	Mayo	2023-05-25T00:00:00	2024-11-08T14:00:00	2	Temperatura media	22.7
150970	7	Sololá	719	Santiago Atitlán	14	Cerro de Oro	5	Mayo	2023-05-25T00:00:00	2024-11-08T14:00:00	4	Temperatura máxima	25
150971	7	Sololá	719	Santiago Atitlán	14	Cerro de Oro	5	Mayo	2023-05-25T00:00:00	2024-11-08T14:00:00	3	Temperatura mínima	22.6
150972	7	Sololá	719	Santiago Atitlán	14	Cerro de Oro	5	Mayo	2023-05-25T00:00:00	2024-11-08T14:00:00	5	Humedad	80
150973	7	Sololá	719	Santiago Atitlán	14	Cerro de Oro	5	Mayo	2023-05-25T00:00:00	2024-11-08T14:00:00	6	Velocidad del viento	11.3
150974	7	Sololá	719	Santiago Atitlán	14	Cerro de Oro	5	Mayo	2023-05-25T00:00:00	2024-11-08T14:00:00	7	Dirección del viento	11.27
150975	7	Sololá	719	Santiago Atitlán	14	Cerro de Oro	5	Mayo	2023-05-25T00:00:00	2024-11-08T14:00:00	1	Precipitación	0
150976	7	Sololá	719	Santiago Atitlán	14	Cerro de Oro	5	Mayo	2023-05-25T00:00:00	2024-11-08T14:00:00	8	Radiación solar	313
150977	7	Sololá	719	Santiago Atitlán	14	Cerro de Oro	5	Mayo	2023-05-25T00:00:00	2024-11-08T15:00:00	2	Temperatura media	22.9
150978	7	Sololá	719	Santiago Atitlán	14	Cerro de Oro	5	Mayo	2023-05-25T00:00:00	2024-11-08T15:00:00	4	Temperatura máxima	23
150979	7	Sololá	719	Santiago Atitlán	14	Cerro de Oro	5	Mayo	2023-05-25T00:00:00	2024-11-08T15:00:00	3	Temperatura mínima	22.6
150980	7	Sololá	719	Santiago Atitlán	14	Cerro de Oro	5	Mayo	2023-05-25T00:00:00	2024-11-08T15:00:00	5	Humedad	80
150981	7	Sololá	719	Santiago Atitlán	14	Cerro de Oro	5	Mayo	2023-05-25T00:00:00	2024-11-08T15:00:00	6	Velocidad del viento	11.3
150982	7	Sololá	719	Santiago Atitlán	14	Cerro de Oro	5	Mayo	2023-05-25T00:00:00	2024-11-08T15:00:00	7	Dirección del viento	11.27
150983	7	Sololá	719	Santiago Atitlán	14	Cerro de Oro	5	Mayo	2023-05-25T00:00:00	2024-11-08T15:00:00	1	Precipitación	0
150984	7	Sololá	719	Santiago Atitlán	14	Cerro de Oro	5	Mayo	2023-05-25T00:00:00	2024-11-08T15:00:00	8	Radiación solar	221
150985	7	Sololá	719	Santiago Atitlán	14	Cerro de Oro	5	Mayo	2023-05-25T00:00:00	2024-11-08T16:00:00	2	Temperatura media	22.1
150986	7	Sololá	719	Santiago Atitlán	14	Cerro de Oro	5	Mayo	2023-05-25T00:00:00	2024-11-08T16:00:00	4	Temperatura máxima	22.9
150987	7	Sololá	719	Santiago Atitlán	14	Cerro de Oro	5	Mayo	2023-05-25T00:00:00	2024-11-08T16:00:00	3	Temperatura mínima	21.8
150988	7	Sololá	719	Santiago Atitlán	14	Cerro de Oro	5	Mayo	2023-05-25T00:00:00	2024-11-08T16:00:00	5	Humedad	83
150989	7	Sololá	719	Santiago Atitlán	14	Cerro de Oro	5	Mayo	2023-05-25T00:00:00	2024-11-08T16:00:00	6	Velocidad del viento	9.7
150990	7	Sololá	719	Santiago Atitlán	14	Cerro de Oro	5	Mayo	2023-05-25T00:00:00	2024-11-08T16:00:00	7	Dirección del viento	9.66
150991	7	Sololá	719	Santiago Atitlán	14	Cerro de Oro	5	Mayo	2023-05-25T00:00:00	2024-11-08T16:00:00	1	Precipitación	0
150992	7	Sololá	719	Santiago Atitlán	14	Cerro de Oro	5	Mayo	2023-05-25T00:00:00	2024-11-08T16:00:00	8	Radiación solar	130
150993	7	Sololá	719	Santiago Atitlán	14	Cerro de Oro	5	Mayo	2023-05-25T00:00:00	2024-11-08T17:00:00	2	Temperatura media	21.2
150994	7	Sololá	719	Santiago Atitlán	14	Cerro de Oro	5	Mayo	2023-05-25T00:00:00	2024-11-08T17:00:00	4	Temperatura máxima	22.1
150995	7	Sololá	719	Santiago Atitlán	14	Cerro de Oro	5	Mayo	2023-05-25T00:00:00	2024-11-08T17:00:00	3	Temperatura mínima	21.2
150996	7	Sololá	719	Santiago Atitlán	14	Cerro de Oro	5	Mayo	2023-05-25T00:00:00	2024-11-08T17:00:00	5	Humedad	85
150997	7	Sololá	719	Santiago Atitlán	14	Cerro de Oro	5	Mayo	2023-05-25T00:00:00	2024-11-08T17:00:00	6	Velocidad del viento	8
150998	7	Sololá	719	Santiago Atitlán	14	Cerro de Oro	5	Mayo	2023-05-25T00:00:00	2024-11-08T17:00:00	7	Dirección del viento	8.05
150999	7	Sololá	719	Santiago Atitlán	14	Cerro de Oro	5	Mayo	2023-05-25T00:00:00	2024-11-08T17:00:00	1	Precipitación	0
151000	7	Sololá	719	Santiago Atitlán	14	Cerro de Oro	5	Mayo	2023-05-25T00:00:00	2024-11-08T17:00:00	8	Radiación solar	49
151001	7	Sololá	719	Santiago Atitlán	14	Cerro de Oro	5	Mayo	2023-05-25T00:00:00	2024-11-08T18:00:00	2	Temperatura media	20.2
151002	7	Sololá	719	Santiago Atitlán	14	Cerro de Oro	5	Mayo	2023-05-25T00:00:00	2024-11-08T18:00:00	4	Temperatura máxima	21.3
151003	7	Sololá	719	Santiago Atitlán	14	Cerro de Oro	5	Mayo	2023-05-25T00:00:00	2024-11-08T18:00:00	3	Temperatura mínima	20.2
151004	7	Sololá	719	Santiago Atitlán	14	Cerro de Oro	5	Mayo	2023-05-25T00:00:00	2024-11-08T18:00:00	5	Humedad	87
151005	7	Sololá	719	Santiago Atitlán	14	Cerro de Oro	5	Mayo	2023-05-25T00:00:00	2024-11-08T18:00:00	6	Velocidad del viento	3.2
151006	7	Sololá	719	Santiago Atitlán	14	Cerro de Oro	5	Mayo	2023-05-25T00:00:00	2024-11-08T18:00:00	7	Dirección del viento	3.22
151007	7	Sololá	719	Santiago Atitlán	14	Cerro de Oro	5	Mayo	2023-05-25T00:00:00	2024-11-08T18:00:00	1	Precipitación	0
151008	7	Sololá	719	Santiago Atitlán	14	Cerro de Oro	5	Mayo	2023-05-25T00:00:00	2024-11-08T18:00:00	8	Radiación solar	7
151009	7	Sololá	719	Santiago Atitlán	14	Cerro de Oro	5	Mayo	2023-05-25T00:00:00	2024-11-08T19:00:00	2	Temperatura media	18.8
151010	7	Sololá	719	Santiago Atitlán	14	Cerro de Oro	5	Mayo	2023-05-25T00:00:00	2024-11-08T19:00:00	4	Temperatura máxima	20.2
151011	7	Sololá	719	Santiago Atitlán	14	Cerro de Oro	5	Mayo	2023-05-25T00:00:00	2024-11-08T19:00:00	3	Temperatura mínima	18.8
151012	7	Sololá	719	Santiago Atitlán	14	Cerro de Oro	5	Mayo	2023-05-25T00:00:00	2024-11-08T19:00:00	5	Humedad	90
151013	7	Sololá	719	Santiago Atitlán	14	Cerro de Oro	5	Mayo	2023-05-25T00:00:00	2024-11-08T19:00:00	6	Velocidad del viento	3.2
151014	7	Sololá	719	Santiago Atitlán	14	Cerro de Oro	5	Mayo	2023-05-25T00:00:00	2024-11-08T19:00:00	7	Dirección del viento	3.22
151015	7	Sololá	719	Santiago Atitlán	14	Cerro de Oro	5	Mayo	2023-05-25T00:00:00	2024-11-08T19:00:00	1	Precipitación	1.2
151016	7	Sololá	719	Santiago Atitlán	14	Cerro de Oro	5	Mayo	2023-05-25T00:00:00	2024-11-08T19:00:00	8	Radiación solar	0
151017	7	Sololá	719	Santiago Atitlán	14	Cerro de Oro	5	Mayo	2023-05-25T00:00:00	2024-11-08T20:00:00	2	Temperatura media	18
151018	7	Sololá	719	Santiago Atitlán	14	Cerro de Oro	5	Mayo	2023-05-25T00:00:00	2024-11-08T20:00:00	4	Temperatura máxima	18.8
151019	7	Sololá	719	Santiago Atitlán	14	Cerro de Oro	5	Mayo	2023-05-25T00:00:00	2024-11-08T20:00:00	3	Temperatura mínima	18
151020	7	Sololá	719	Santiago Atitlán	14	Cerro de Oro	5	Mayo	2023-05-25T00:00:00	2024-11-08T20:00:00	5	Humedad	93
151021	7	Sololá	719	Santiago Atitlán	14	Cerro de Oro	5	Mayo	2023-05-25T00:00:00	2024-11-08T20:00:00	6	Velocidad del viento	6.4
151022	7	Sololá	719	Santiago Atitlán	14	Cerro de Oro	5	Mayo	2023-05-25T00:00:00	2024-11-08T20:00:00	7	Dirección del viento	6.44
151023	7	Sololá	719	Santiago Atitlán	14	Cerro de Oro	5	Mayo	2023-05-25T00:00:00	2024-11-08T20:00:00	1	Precipitación	0
151024	7	Sololá	719	Santiago Atitlán	14	Cerro de Oro	5	Mayo	2023-05-25T00:00:00	2024-11-08T20:00:00	8	Radiación solar	0
151025	7	Sololá	719	Santiago Atitlán	14	Cerro de Oro	5	Mayo	2023-05-25T00:00:00	2024-11-08T21:00:00	2	Temperatura media	18.6
151026	7	Sololá	719	Santiago Atitlán	14	Cerro de Oro	5	Mayo	2023-05-25T00:00:00	2024-11-08T21:00:00	4	Temperatura máxima	18.7
151027	7	Sololá	719	Santiago Atitlán	14	Cerro de Oro	5	Mayo	2023-05-25T00:00:00	2024-11-08T21:00:00	3	Temperatura mínima	18.1
151028	7	Sololá	719	Santiago Atitlán	14	Cerro de Oro	5	Mayo	2023-05-25T00:00:00	2024-11-08T21:00:00	5	Humedad	91
151029	7	Sololá	719	Santiago Atitlán	14	Cerro de Oro	5	Mayo	2023-05-25T00:00:00	2024-11-08T21:00:00	6	Velocidad del viento	3.2
151030	7	Sololá	719	Santiago Atitlán	14	Cerro de Oro	5	Mayo	2023-05-25T00:00:00	2024-11-08T21:00:00	7	Dirección del viento	3.22
151031	7	Sololá	719	Santiago Atitlán	14	Cerro de Oro	5	Mayo	2023-05-25T00:00:00	2024-11-08T21:00:00	1	Precipitación	0.2
151032	7	Sololá	719	Santiago Atitlán	14	Cerro de Oro	5	Mayo	2023-05-25T00:00:00	2024-11-08T21:00:00	8	Radiación solar	0
151033	7	Sololá	719	Santiago Atitlán	14	Cerro de Oro	5	Mayo	2023-05-25T00:00:00	2024-11-08T22:00:00	2	Temperatura media	18.6
151034	7	Sololá	719	Santiago Atitlán	14	Cerro de Oro	5	Mayo	2023-05-25T00:00:00	2024-11-08T22:00:00	4	Temperatura máxima	18.7
151035	7	Sololá	719	Santiago Atitlán	14	Cerro de Oro	5	Mayo	2023-05-25T00:00:00	2024-11-08T22:00:00	3	Temperatura mínima	18.6
151036	7	Sololá	719	Santiago Atitlán	14	Cerro de Oro	5	Mayo	2023-05-25T00:00:00	2024-11-08T22:00:00	5	Humedad	90
151037	7	Sololá	719	Santiago Atitlán	14	Cerro de Oro	5	Mayo	2023-05-25T00:00:00	2024-11-08T22:00:00	6	Velocidad del viento	1.6
151038	7	Sololá	719	Santiago Atitlán	14	Cerro de Oro	5	Mayo	2023-05-25T00:00:00	2024-11-08T22:00:00	7	Dirección del viento	1.61
151039	7	Sololá	719	Santiago Atitlán	14	Cerro de Oro	5	Mayo	2023-05-25T00:00:00	2024-11-08T22:00:00	1	Precipitación	0
151040	7	Sololá	719	Santiago Atitlán	14	Cerro de Oro	5	Mayo	2023-05-25T00:00:00	2024-11-08T22:00:00	8	Radiación solar	0
151041	7	Sololá	719	Santiago Atitlán	14	Cerro de Oro	5	Mayo	2023-05-25T00:00:00	2024-11-08T23:00:00	2	Temperatura media	18.4
151042	7	Sololá	719	Santiago Atitlán	14	Cerro de Oro	5	Mayo	2023-05-25T00:00:00	2024-11-08T23:00:00	4	Temperatura máxima	18.7
151043	7	Sololá	719	Santiago Atitlán	14	Cerro de Oro	5	Mayo	2023-05-25T00:00:00	2024-11-08T23:00:00	3	Temperatura mínima	18.3
151044	7	Sololá	719	Santiago Atitlán	14	Cerro de Oro	5	Mayo	2023-05-25T00:00:00	2024-11-08T23:00:00	5	Humedad	89
151045	7	Sololá	719	Santiago Atitlán	14	Cerro de Oro	5	Mayo	2023-05-25T00:00:00	2024-11-08T23:00:00	6	Velocidad del viento	3.2
151046	7	Sololá	719	Santiago Atitlán	14	Cerro de Oro	5	Mayo	2023-05-25T00:00:00	2024-11-08T23:00:00	7	Dirección del viento	3.22
151047	7	Sololá	719	Santiago Atitlán	14	Cerro de Oro	5	Mayo	2023-05-25T00:00:00	2024-11-08T23:00:00	1	Precipitación	0
151048	7	Sololá	719	Santiago Atitlán	14	Cerro de Oro	5	Mayo	2023-05-25T00:00:00	2024-11-08T23:00:00	8	Radiación solar	0
151049	7	Sololá	719	Santiago Atitlán	14	Cerro de Oro	5	Mayo	2023-05-26T00:00:00	2024-11-08T00:00:00	2	Temperatura media	18.3
151050	7	Sololá	719	Santiago Atitlán	14	Cerro de Oro	5	Mayo	2023-05-26T00:00:00	2024-11-08T00:00:00	4	Temperatura máxima	18.7
151051	7	Sololá	719	Santiago Atitlán	14	Cerro de Oro	5	Mayo	2023-05-26T00:00:00	2024-11-08T00:00:00	3	Temperatura mínima	18.3
151052	7	Sololá	719	Santiago Atitlán	14	Cerro de Oro	5	Mayo	2023-05-26T00:00:00	2024-11-08T00:00:00	5	Humedad	91
151053	7	Sololá	719	Santiago Atitlán	14	Cerro de Oro	5	Mayo	2023-05-26T00:00:00	2024-11-08T00:00:00	6	Velocidad del viento	3.2
151054	7	Sololá	719	Santiago Atitlán	14	Cerro de Oro	5	Mayo	2023-05-26T00:00:00	2024-11-08T00:00:00	7	Dirección del viento	3.22
151055	7	Sololá	719	Santiago Atitlán	14	Cerro de Oro	5	Mayo	2023-05-26T00:00:00	2024-11-08T00:00:00	1	Precipitación	0
151056	7	Sololá	719	Santiago Atitlán	14	Cerro de Oro	5	Mayo	2023-05-26T00:00:00	2024-11-08T00:00:00	8	Radiación solar	0
151057	7	Sololá	719	Santiago Atitlán	14	Cerro de Oro	5	Mayo	2023-05-26T00:00:00	2024-11-08T01:00:00	2	Temperatura media	18.4
151058	7	Sololá	719	Santiago Atitlán	14	Cerro de Oro	5	Mayo	2023-05-26T00:00:00	2024-11-08T01:00:00	4	Temperatura máxima	18.6
151059	7	Sololá	719	Santiago Atitlán	14	Cerro de Oro	5	Mayo	2023-05-26T00:00:00	2024-11-08T01:00:00	3	Temperatura mínima	18.3
151060	7	Sololá	719	Santiago Atitlán	14	Cerro de Oro	5	Mayo	2023-05-26T00:00:00	2024-11-08T01:00:00	5	Humedad	89
151061	7	Sololá	719	Santiago Atitlán	14	Cerro de Oro	5	Mayo	2023-05-26T00:00:00	2024-11-08T01:00:00	6	Velocidad del viento	3.2
151062	7	Sololá	719	Santiago Atitlán	14	Cerro de Oro	5	Mayo	2023-05-26T00:00:00	2024-11-08T01:00:00	7	Dirección del viento	3.22
151063	7	Sololá	719	Santiago Atitlán	14	Cerro de Oro	5	Mayo	2023-05-26T00:00:00	2024-11-08T01:00:00	1	Precipitación	0
151064	7	Sololá	719	Santiago Atitlán	14	Cerro de Oro	5	Mayo	2023-05-26T00:00:00	2024-11-08T01:00:00	8	Radiación solar	0
151065	7	Sololá	719	Santiago Atitlán	14	Cerro de Oro	5	Mayo	2023-05-26T00:00:00	2024-11-08T02:00:00	2	Temperatura media	17.8
151066	7	Sololá	719	Santiago Atitlán	14	Cerro de Oro	5	Mayo	2023-05-26T00:00:00	2024-11-08T02:00:00	4	Temperatura máxima	18.4
151067	7	Sololá	719	Santiago Atitlán	14	Cerro de Oro	5	Mayo	2023-05-26T00:00:00	2024-11-08T02:00:00	3	Temperatura mínima	17.7
151068	7	Sololá	719	Santiago Atitlán	14	Cerro de Oro	5	Mayo	2023-05-26T00:00:00	2024-11-08T02:00:00	5	Humedad	89
151069	7	Sololá	719	Santiago Atitlán	14	Cerro de Oro	5	Mayo	2023-05-26T00:00:00	2024-11-08T02:00:00	6	Velocidad del viento	3.2
151070	7	Sololá	719	Santiago Atitlán	14	Cerro de Oro	5	Mayo	2023-05-26T00:00:00	2024-11-08T02:00:00	7	Dirección del viento	3.22
151071	7	Sololá	719	Santiago Atitlán	14	Cerro de Oro	5	Mayo	2023-05-26T00:00:00	2024-11-08T02:00:00	1	Precipitación	0
151072	7	Sololá	719	Santiago Atitlán	14	Cerro de Oro	5	Mayo	2023-05-26T00:00:00	2024-11-08T02:00:00	8	Radiación solar	0
151073	7	Sololá	719	Santiago Atitlán	14	Cerro de Oro	5	Mayo	2023-05-26T00:00:00	2024-11-08T03:00:00	2	Temperatura media	17
151074	7	Sololá	719	Santiago Atitlán	14	Cerro de Oro	5	Mayo	2023-05-26T00:00:00	2024-11-08T03:00:00	4	Temperatura máxima	17.8
151075	7	Sololá	719	Santiago Atitlán	14	Cerro de Oro	5	Mayo	2023-05-26T00:00:00	2024-11-08T03:00:00	3	Temperatura mínima	16.9
151076	7	Sololá	719	Santiago Atitlán	14	Cerro de Oro	5	Mayo	2023-05-26T00:00:00	2024-11-08T03:00:00	5	Humedad	91
151077	7	Sololá	719	Santiago Atitlán	14	Cerro de Oro	5	Mayo	2023-05-26T00:00:00	2024-11-08T03:00:00	6	Velocidad del viento	4.8
151078	7	Sololá	719	Santiago Atitlán	14	Cerro de Oro	5	Mayo	2023-05-26T00:00:00	2024-11-08T03:00:00	7	Dirección del viento	4.83
151079	7	Sololá	719	Santiago Atitlán	14	Cerro de Oro	5	Mayo	2023-05-26T00:00:00	2024-11-08T03:00:00	1	Precipitación	0
151080	7	Sololá	719	Santiago Atitlán	14	Cerro de Oro	5	Mayo	2023-05-26T00:00:00	2024-11-08T03:00:00	8	Radiación solar	0
151081	7	Sololá	719	Santiago Atitlán	14	Cerro de Oro	5	Mayo	2023-05-26T00:00:00	2024-11-08T04:00:00	2	Temperatura media	17.6
151082	7	Sololá	719	Santiago Atitlán	14	Cerro de Oro	5	Mayo	2023-05-26T00:00:00	2024-11-08T04:00:00	4	Temperatura máxima	17.8
151083	7	Sololá	719	Santiago Atitlán	14	Cerro de Oro	5	Mayo	2023-05-26T00:00:00	2024-11-08T04:00:00	3	Temperatura mínima	16.9
151084	7	Sololá	719	Santiago Atitlán	14	Cerro de Oro	5	Mayo	2023-05-26T00:00:00	2024-11-08T04:00:00	5	Humedad	88
151085	7	Sololá	719	Santiago Atitlán	14	Cerro de Oro	5	Mayo	2023-05-26T00:00:00	2024-11-08T04:00:00	6	Velocidad del viento	4.8
151086	7	Sololá	719	Santiago Atitlán	14	Cerro de Oro	5	Mayo	2023-05-26T00:00:00	2024-11-08T04:00:00	7	Dirección del viento	4.83
151087	7	Sololá	719	Santiago Atitlán	14	Cerro de Oro	5	Mayo	2023-05-26T00:00:00	2024-11-08T04:00:00	1	Precipitación	0
151088	7	Sololá	719	Santiago Atitlán	14	Cerro de Oro	5	Mayo	2023-05-26T00:00:00	2024-11-08T04:00:00	8	Radiación solar	0
151089	7	Sololá	719	Santiago Atitlán	14	Cerro de Oro	5	Mayo	2023-05-26T00:00:00	2024-11-08T05:00:00	2	Temperatura media	17
151090	7	Sololá	719	Santiago Atitlán	14	Cerro de Oro	5	Mayo	2023-05-26T00:00:00	2024-11-08T05:00:00	4	Temperatura máxima	17.7
151091	7	Sololá	719	Santiago Atitlán	14	Cerro de Oro	5	Mayo	2023-05-26T00:00:00	2024-11-08T05:00:00	3	Temperatura mínima	16.9
151092	7	Sololá	719	Santiago Atitlán	14	Cerro de Oro	5	Mayo	2023-05-26T00:00:00	2024-11-08T05:00:00	5	Humedad	88
151093	7	Sololá	719	Santiago Atitlán	14	Cerro de Oro	5	Mayo	2023-05-26T00:00:00	2024-11-08T05:00:00	6	Velocidad del viento	4.8
151094	7	Sololá	719	Santiago Atitlán	14	Cerro de Oro	5	Mayo	2023-05-26T00:00:00	2024-11-08T05:00:00	7	Dirección del viento	4.83
151095	7	Sololá	719	Santiago Atitlán	14	Cerro de Oro	5	Mayo	2023-05-26T00:00:00	2024-11-08T05:00:00	1	Precipitación	0
151096	7	Sololá	719	Santiago Atitlán	14	Cerro de Oro	5	Mayo	2023-05-26T00:00:00	2024-11-08T05:00:00	8	Radiación solar	0
151097	7	Sololá	719	Santiago Atitlán	14	Cerro de Oro	5	Mayo	2023-05-26T00:00:00	2024-11-08T06:00:00	2	Temperatura media	17.2
151098	7	Sololá	719	Santiago Atitlán	14	Cerro de Oro	5	Mayo	2023-05-26T00:00:00	2024-11-08T06:00:00	4	Temperatura máxima	17.2
151099	7	Sololá	719	Santiago Atitlán	14	Cerro de Oro	5	Mayo	2023-05-26T00:00:00	2024-11-08T06:00:00	3	Temperatura mínima	16.7
151100	7	Sololá	719	Santiago Atitlán	14	Cerro de Oro	5	Mayo	2023-05-26T00:00:00	2024-11-08T06:00:00	5	Humedad	86
151101	7	Sololá	719	Santiago Atitlán	14	Cerro de Oro	5	Mayo	2023-05-26T00:00:00	2024-11-08T06:00:00	6	Velocidad del viento	3.2
151102	7	Sololá	719	Santiago Atitlán	14	Cerro de Oro	5	Mayo	2023-05-26T00:00:00	2024-11-08T06:00:00	7	Dirección del viento	3.22
151103	7	Sololá	719	Santiago Atitlán	14	Cerro de Oro	5	Mayo	2023-05-26T00:00:00	2024-11-08T06:00:00	1	Precipitación	0
151104	7	Sololá	719	Santiago Atitlán	14	Cerro de Oro	5	Mayo	2023-05-26T00:00:00	2024-11-08T06:00:00	8	Radiación solar	7
151105	7	Sololá	719	Santiago Atitlán	14	Cerro de Oro	5	Mayo	2023-05-26T00:00:00	2024-11-08T07:00:00	2	Temperatura media	18.1
151106	7	Sololá	719	Santiago Atitlán	14	Cerro de Oro	5	Mayo	2023-05-26T00:00:00	2024-11-08T07:00:00	4	Temperatura máxima	18.1
151107	7	Sololá	719	Santiago Atitlán	14	Cerro de Oro	5	Mayo	2023-05-26T00:00:00	2024-11-08T07:00:00	3	Temperatura mínima	17.2
151108	7	Sololá	719	Santiago Atitlán	14	Cerro de Oro	5	Mayo	2023-05-26T00:00:00	2024-11-08T07:00:00	5	Humedad	86
151109	7	Sololá	719	Santiago Atitlán	14	Cerro de Oro	5	Mayo	2023-05-26T00:00:00	2024-11-08T07:00:00	6	Velocidad del viento	3.2
151110	7	Sololá	719	Santiago Atitlán	14	Cerro de Oro	5	Mayo	2023-05-26T00:00:00	2024-11-08T07:00:00	7	Dirección del viento	3.22
151111	7	Sololá	719	Santiago Atitlán	14	Cerro de Oro	5	Mayo	2023-05-26T00:00:00	2024-11-08T07:00:00	1	Precipitación	0
151112	7	Sololá	719	Santiago Atitlán	14	Cerro de Oro	5	Mayo	2023-05-26T00:00:00	2024-11-08T07:00:00	8	Radiación solar	90
151113	7	Sololá	719	Santiago Atitlán	14	Cerro de Oro	5	Mayo	2023-05-26T00:00:00	2024-11-08T08:00:00	2	Temperatura media	19.4
151114	7	Sololá	719	Santiago Atitlán	14	Cerro de Oro	5	Mayo	2023-05-26T00:00:00	2024-11-08T08:00:00	4	Temperatura máxima	19.5
151115	7	Sololá	719	Santiago Atitlán	14	Cerro de Oro	5	Mayo	2023-05-26T00:00:00	2024-11-08T08:00:00	3	Temperatura mínima	18.1
151116	7	Sololá	719	Santiago Atitlán	14	Cerro de Oro	5	Mayo	2023-05-26T00:00:00	2024-11-08T08:00:00	5	Humedad	83
151117	7	Sololá	719	Santiago Atitlán	14	Cerro de Oro	5	Mayo	2023-05-26T00:00:00	2024-11-08T08:00:00	6	Velocidad del viento	3.2
151118	7	Sololá	719	Santiago Atitlán	14	Cerro de Oro	5	Mayo	2023-05-26T00:00:00	2024-11-08T08:00:00	7	Dirección del viento	3.22
151119	7	Sololá	719	Santiago Atitlán	14	Cerro de Oro	5	Mayo	2023-05-26T00:00:00	2024-11-08T08:00:00	1	Precipitación	0
151120	7	Sololá	719	Santiago Atitlán	14	Cerro de Oro	5	Mayo	2023-05-26T00:00:00	2024-11-08T08:00:00	8	Radiación solar	183
151121	7	Sololá	719	Santiago Atitlán	14	Cerro de Oro	5	Mayo	2023-05-26T00:00:00	2024-11-08T09:00:00	2	Temperatura media	21.2
151122	7	Sololá	719	Santiago Atitlán	14	Cerro de Oro	5	Mayo	2023-05-26T00:00:00	2024-11-08T09:00:00	4	Temperatura máxima	21.2
151123	7	Sololá	719	Santiago Atitlán	14	Cerro de Oro	5	Mayo	2023-05-26T00:00:00	2024-11-08T09:00:00	3	Temperatura mínima	19.4
151124	7	Sololá	719	Santiago Atitlán	14	Cerro de Oro	5	Mayo	2023-05-26T00:00:00	2024-11-08T09:00:00	5	Humedad	70
151125	7	Sololá	719	Santiago Atitlán	14	Cerro de Oro	5	Mayo	2023-05-26T00:00:00	2024-11-08T09:00:00	6	Velocidad del viento	3.2
151126	7	Sololá	719	Santiago Atitlán	14	Cerro de Oro	5	Mayo	2023-05-26T00:00:00	2024-11-08T09:00:00	7	Dirección del viento	3.22
151127	7	Sololá	719	Santiago Atitlán	14	Cerro de Oro	5	Mayo	2023-05-26T00:00:00	2024-11-08T09:00:00	1	Precipitación	0
151128	7	Sololá	719	Santiago Atitlán	14	Cerro de Oro	5	Mayo	2023-05-26T00:00:00	2024-11-08T09:00:00	8	Radiación solar	403
151129	7	Sololá	719	Santiago Atitlán	14	Cerro de Oro	5	Mayo	2023-05-26T00:00:00	2024-11-08T10:00:00	2	Temperatura media	21.6
151130	7	Sololá	719	Santiago Atitlán	14	Cerro de Oro	5	Mayo	2023-05-26T00:00:00	2024-11-08T10:00:00	4	Temperatura máxima	21.8
151131	7	Sololá	719	Santiago Atitlán	14	Cerro de Oro	5	Mayo	2023-05-26T00:00:00	2024-11-08T10:00:00	3	Temperatura mínima	21.2
151132	7	Sololá	719	Santiago Atitlán	14	Cerro de Oro	5	Mayo	2023-05-26T00:00:00	2024-11-08T10:00:00	5	Humedad	71
151133	7	Sololá	719	Santiago Atitlán	14	Cerro de Oro	5	Mayo	2023-05-26T00:00:00	2024-11-08T10:00:00	6	Velocidad del viento	4.8
151134	7	Sololá	719	Santiago Atitlán	14	Cerro de Oro	5	Mayo	2023-05-26T00:00:00	2024-11-08T10:00:00	7	Dirección del viento	4.83
151135	7	Sololá	719	Santiago Atitlán	14	Cerro de Oro	5	Mayo	2023-05-26T00:00:00	2024-11-08T10:00:00	1	Precipitación	0
151136	7	Sololá	719	Santiago Atitlán	14	Cerro de Oro	5	Mayo	2023-05-26T00:00:00	2024-11-08T10:00:00	8	Radiación solar	477
151137	7	Sololá	719	Santiago Atitlán	14	Cerro de Oro	5	Mayo	2023-05-26T00:00:00	2024-11-08T11:00:00	2	Temperatura media	23
151138	7	Sololá	719	Santiago Atitlán	14	Cerro de Oro	5	Mayo	2023-05-26T00:00:00	2024-11-08T11:00:00	4	Temperatura máxima	23
151139	7	Sololá	719	Santiago Atitlán	14	Cerro de Oro	5	Mayo	2023-05-26T00:00:00	2024-11-08T11:00:00	3	Temperatura mínima	21.6
151140	7	Sololá	719	Santiago Atitlán	14	Cerro de Oro	5	Mayo	2023-05-26T00:00:00	2024-11-08T11:00:00	5	Humedad	73
151141	7	Sololá	719	Santiago Atitlán	14	Cerro de Oro	5	Mayo	2023-05-26T00:00:00	2024-11-08T11:00:00	6	Velocidad del viento	4.8
151142	7	Sololá	719	Santiago Atitlán	14	Cerro de Oro	5	Mayo	2023-05-26T00:00:00	2024-11-08T11:00:00	7	Dirección del viento	4.83
151143	7	Sololá	719	Santiago Atitlán	14	Cerro de Oro	5	Mayo	2023-05-26T00:00:00	2024-11-08T11:00:00	1	Precipitación	0
151144	7	Sololá	719	Santiago Atitlán	14	Cerro de Oro	5	Mayo	2023-05-26T00:00:00	2024-11-08T11:00:00	8	Radiación solar	642
151145	7	Sololá	719	Santiago Atitlán	14	Cerro de Oro	5	Mayo	2023-05-26T00:00:00	2024-11-08T12:00:00	2	Temperatura media	22.8
151146	7	Sololá	719	Santiago Atitlán	14	Cerro de Oro	5	Mayo	2023-05-26T00:00:00	2024-11-08T12:00:00	4	Temperatura máxima	23.4
151147	7	Sololá	719	Santiago Atitlán	14	Cerro de Oro	5	Mayo	2023-05-26T00:00:00	2024-11-08T12:00:00	3	Temperatura mínima	22.8
151148	7	Sololá	719	Santiago Atitlán	14	Cerro de Oro	5	Mayo	2023-05-26T00:00:00	2024-11-08T12:00:00	5	Humedad	73
151149	7	Sololá	719	Santiago Atitlán	14	Cerro de Oro	5	Mayo	2023-05-26T00:00:00	2024-11-08T12:00:00	6	Velocidad del viento	8
151150	7	Sololá	719	Santiago Atitlán	14	Cerro de Oro	5	Mayo	2023-05-26T00:00:00	2024-11-08T12:00:00	7	Dirección del viento	8.05
151151	7	Sololá	719	Santiago Atitlán	14	Cerro de Oro	5	Mayo	2023-05-26T00:00:00	2024-11-08T12:00:00	1	Precipitación	0
151152	7	Sololá	719	Santiago Atitlán	14	Cerro de Oro	5	Mayo	2023-05-26T00:00:00	2024-11-08T12:00:00	8	Radiación solar	757
151153	7	Sololá	719	Santiago Atitlán	14	Cerro de Oro	5	Mayo	2023-05-26T00:00:00	2024-11-08T13:00:00	2	Temperatura media	23.6
151154	7	Sololá	719	Santiago Atitlán	14	Cerro de Oro	5	Mayo	2023-05-26T00:00:00	2024-11-08T13:00:00	4	Temperatura máxima	23.6
151155	7	Sololá	719	Santiago Atitlán	14	Cerro de Oro	5	Mayo	2023-05-26T00:00:00	2024-11-08T13:00:00	3	Temperatura mínima	22.6
151156	7	Sololá	719	Santiago Atitlán	14	Cerro de Oro	5	Mayo	2023-05-26T00:00:00	2024-11-08T13:00:00	5	Humedad	70
151157	7	Sololá	719	Santiago Atitlán	14	Cerro de Oro	5	Mayo	2023-05-26T00:00:00	2024-11-08T13:00:00	6	Velocidad del viento	9.7
151158	7	Sololá	719	Santiago Atitlán	14	Cerro de Oro	5	Mayo	2023-05-26T00:00:00	2024-11-08T13:00:00	7	Dirección del viento	9.66
151159	7	Sololá	719	Santiago Atitlán	14	Cerro de Oro	5	Mayo	2023-05-26T00:00:00	2024-11-08T13:00:00	1	Precipitación	0
151160	7	Sololá	719	Santiago Atitlán	14	Cerro de Oro	5	Mayo	2023-05-26T00:00:00	2024-11-08T13:00:00	8	Radiación solar	812
151161	7	Sololá	719	Santiago Atitlán	14	Cerro de Oro	5	Mayo	2023-05-26T00:00:00	2024-11-08T14:00:00	2	Temperatura media	24.2
151162	7	Sololá	719	Santiago Atitlán	14	Cerro de Oro	5	Mayo	2023-05-26T00:00:00	2024-11-08T14:00:00	4	Temperatura máxima	24.4
151163	7	Sololá	719	Santiago Atitlán	14	Cerro de Oro	5	Mayo	2023-05-26T00:00:00	2024-11-08T14:00:00	3	Temperatura mínima	23.4
151164	7	Sololá	719	Santiago Atitlán	14	Cerro de Oro	5	Mayo	2023-05-26T00:00:00	2024-11-08T14:00:00	5	Humedad	69
151165	7	Sololá	719	Santiago Atitlán	14	Cerro de Oro	5	Mayo	2023-05-26T00:00:00	2024-11-08T14:00:00	6	Velocidad del viento	8
151166	7	Sololá	719	Santiago Atitlán	14	Cerro de Oro	5	Mayo	2023-05-26T00:00:00	2024-11-08T14:00:00	7	Dirección del viento	8.05
151167	7	Sololá	719	Santiago Atitlán	14	Cerro de Oro	5	Mayo	2023-05-26T00:00:00	2024-11-08T14:00:00	1	Precipitación	0
151168	7	Sololá	719	Santiago Atitlán	14	Cerro de Oro	5	Mayo	2023-05-26T00:00:00	2024-11-08T14:00:00	8	Radiación solar	760
151169	7	Sololá	719	Santiago Atitlán	14	Cerro de Oro	5	Mayo	2023-05-26T00:00:00	2024-11-08T15:00:00	2	Temperatura media	23.2
151170	7	Sololá	719	Santiago Atitlán	14	Cerro de Oro	5	Mayo	2023-05-26T00:00:00	2024-11-08T15:00:00	4	Temperatura máxima	24.5
151171	7	Sololá	719	Santiago Atitlán	14	Cerro de Oro	5	Mayo	2023-05-26T00:00:00	2024-11-08T15:00:00	3	Temperatura mínima	23.2
151172	7	Sololá	719	Santiago Atitlán	14	Cerro de Oro	5	Mayo	2023-05-26T00:00:00	2024-11-08T15:00:00	5	Humedad	77
151173	7	Sololá	719	Santiago Atitlán	14	Cerro de Oro	5	Mayo	2023-05-26T00:00:00	2024-11-08T15:00:00	6	Velocidad del viento	6.4
151174	7	Sololá	719	Santiago Atitlán	14	Cerro de Oro	5	Mayo	2023-05-26T00:00:00	2024-11-08T15:00:00	7	Dirección del viento	6.44
151175	7	Sololá	719	Santiago Atitlán	14	Cerro de Oro	5	Mayo	2023-05-26T00:00:00	2024-11-08T15:00:00	1	Precipitación	0
151176	7	Sololá	719	Santiago Atitlán	14	Cerro de Oro	5	Mayo	2023-05-26T00:00:00	2024-11-08T15:00:00	8	Radiación solar	589
151177	7	Sololá	719	Santiago Atitlán	14	Cerro de Oro	5	Mayo	2023-05-26T00:00:00	2024-11-08T16:00:00	2	Temperatura media	22.3
151178	7	Sololá	719	Santiago Atitlán	14	Cerro de Oro	5	Mayo	2023-05-26T00:00:00	2024-11-08T16:00:00	4	Temperatura máxima	23.1
151179	7	Sololá	719	Santiago Atitlán	14	Cerro de Oro	5	Mayo	2023-05-26T00:00:00	2024-11-08T16:00:00	3	Temperatura mínima	22.3
151180	7	Sololá	719	Santiago Atitlán	14	Cerro de Oro	5	Mayo	2023-05-26T00:00:00	2024-11-08T16:00:00	5	Humedad	77
151181	7	Sololá	719	Santiago Atitlán	14	Cerro de Oro	5	Mayo	2023-05-26T00:00:00	2024-11-08T16:00:00	6	Velocidad del viento	9.7
151182	7	Sololá	719	Santiago Atitlán	14	Cerro de Oro	5	Mayo	2023-05-26T00:00:00	2024-11-08T16:00:00	7	Dirección del viento	9.66
151183	7	Sololá	719	Santiago Atitlán	14	Cerro de Oro	5	Mayo	2023-05-26T00:00:00	2024-11-08T16:00:00	1	Precipitación	0
151184	7	Sololá	719	Santiago Atitlán	14	Cerro de Oro	5	Mayo	2023-05-26T00:00:00	2024-11-08T16:00:00	8	Radiación solar	309
151185	7	Sololá	719	Santiago Atitlán	14	Cerro de Oro	5	Mayo	2023-05-26T00:00:00	2024-11-08T17:00:00	2	Temperatura media	21.6
151186	7	Sololá	719	Santiago Atitlán	14	Cerro de Oro	5	Mayo	2023-05-26T00:00:00	2024-11-08T17:00:00	4	Temperatura máxima	22.4
151187	7	Sololá	719	Santiago Atitlán	14	Cerro de Oro	5	Mayo	2023-05-26T00:00:00	2024-11-08T17:00:00	3	Temperatura mínima	21.6
151188	7	Sololá	719	Santiago Atitlán	14	Cerro de Oro	5	Mayo	2023-05-26T00:00:00	2024-11-08T17:00:00	5	Humedad	82
151189	7	Sololá	719	Santiago Atitlán	14	Cerro de Oro	5	Mayo	2023-05-26T00:00:00	2024-11-08T17:00:00	6	Velocidad del viento	4.8
151190	7	Sololá	719	Santiago Atitlán	14	Cerro de Oro	5	Mayo	2023-05-26T00:00:00	2024-11-08T17:00:00	7	Dirección del viento	4.83
151191	7	Sololá	719	Santiago Atitlán	14	Cerro de Oro	5	Mayo	2023-05-26T00:00:00	2024-11-08T17:00:00	1	Precipitación	0
151192	7	Sololá	719	Santiago Atitlán	14	Cerro de Oro	5	Mayo	2023-05-26T00:00:00	2024-11-08T17:00:00	8	Radiación solar	89
151193	7	Sololá	719	Santiago Atitlán	14	Cerro de Oro	5	Mayo	2023-05-26T00:00:00	2024-11-08T18:00:00	2	Temperatura media	20.7
151194	7	Sololá	719	Santiago Atitlán	14	Cerro de Oro	5	Mayo	2023-05-26T00:00:00	2024-11-08T18:00:00	4	Temperatura máxima	21.6
151195	7	Sololá	719	Santiago Atitlán	14	Cerro de Oro	5	Mayo	2023-05-26T00:00:00	2024-11-08T18:00:00	3	Temperatura mínima	20.7
151196	7	Sololá	719	Santiago Atitlán	14	Cerro de Oro	5	Mayo	2023-05-26T00:00:00	2024-11-08T18:00:00	5	Humedad	86
151197	7	Sololá	719	Santiago Atitlán	14	Cerro de Oro	5	Mayo	2023-05-26T00:00:00	2024-11-08T18:00:00	6	Velocidad del viento	4.8
151198	7	Sololá	719	Santiago Atitlán	14	Cerro de Oro	5	Mayo	2023-05-26T00:00:00	2024-11-08T18:00:00	7	Dirección del viento	4.83
151199	7	Sololá	719	Santiago Atitlán	14	Cerro de Oro	5	Mayo	2023-05-26T00:00:00	2024-11-08T18:00:00	1	Precipitación	0
151200	7	Sololá	719	Santiago Atitlán	14	Cerro de Oro	5	Mayo	2023-05-26T00:00:00	2024-11-08T18:00:00	8	Radiación solar	18
151201	7	Sololá	719	Santiago Atitlán	14	Cerro de Oro	5	Mayo	2023-05-26T00:00:00	2024-11-08T19:00:00	2	Temperatura media	20.7
151202	7	Sololá	719	Santiago Atitlán	14	Cerro de Oro	5	Mayo	2023-05-26T00:00:00	2024-11-08T19:00:00	4	Temperatura máxima	20.9
151203	7	Sololá	719	Santiago Atitlán	14	Cerro de Oro	5	Mayo	2023-05-26T00:00:00	2024-11-08T19:00:00	3	Temperatura mínima	20.7
151204	7	Sololá	719	Santiago Atitlán	14	Cerro de Oro	5	Mayo	2023-05-26T00:00:00	2024-11-08T19:00:00	5	Humedad	84
151205	7	Sololá	719	Santiago Atitlán	14	Cerro de Oro	5	Mayo	2023-05-26T00:00:00	2024-11-08T19:00:00	6	Velocidad del viento	3.2
151206	7	Sololá	719	Santiago Atitlán	14	Cerro de Oro	5	Mayo	2023-05-26T00:00:00	2024-11-08T19:00:00	7	Dirección del viento	3.22
151207	7	Sololá	719	Santiago Atitlán	14	Cerro de Oro	5	Mayo	2023-05-26T00:00:00	2024-11-08T19:00:00	1	Precipitación	0
151208	7	Sololá	719	Santiago Atitlán	14	Cerro de Oro	5	Mayo	2023-05-26T00:00:00	2024-11-08T19:00:00	8	Radiación solar	0
151209	7	Sololá	719	Santiago Atitlán	14	Cerro de Oro	5	Mayo	2023-05-26T00:00:00	2024-11-08T20:00:00	2	Temperatura media	20.3
151210	7	Sololá	719	Santiago Atitlán	14	Cerro de Oro	5	Mayo	2023-05-26T00:00:00	2024-11-08T20:00:00	4	Temperatura máxima	20.7
151211	7	Sololá	719	Santiago Atitlán	14	Cerro de Oro	5	Mayo	2023-05-26T00:00:00	2024-11-08T20:00:00	3	Temperatura mínima	20.3
151212	7	Sololá	719	Santiago Atitlán	14	Cerro de Oro	5	Mayo	2023-05-26T00:00:00	2024-11-08T20:00:00	5	Humedad	84
151213	7	Sololá	719	Santiago Atitlán	14	Cerro de Oro	5	Mayo	2023-05-26T00:00:00	2024-11-08T20:00:00	6	Velocidad del viento	3.2
151214	7	Sololá	719	Santiago Atitlán	14	Cerro de Oro	5	Mayo	2023-05-26T00:00:00	2024-11-08T20:00:00	7	Dirección del viento	3.22
151215	7	Sololá	719	Santiago Atitlán	14	Cerro de Oro	5	Mayo	2023-05-26T00:00:00	2024-11-08T20:00:00	1	Precipitación	0
151216	7	Sololá	719	Santiago Atitlán	14	Cerro de Oro	5	Mayo	2023-05-26T00:00:00	2024-11-08T20:00:00	8	Radiación solar	0
151217	7	Sololá	719	Santiago Atitlán	14	Cerro de Oro	5	Mayo	2023-05-26T00:00:00	2024-11-08T21:00:00	2	Temperatura media	20.5
151218	7	Sololá	719	Santiago Atitlán	14	Cerro de Oro	5	Mayo	2023-05-26T00:00:00	2024-11-08T21:00:00	4	Temperatura máxima	20.6
151219	7	Sololá	719	Santiago Atitlán	14	Cerro de Oro	5	Mayo	2023-05-26T00:00:00	2024-11-08T21:00:00	3	Temperatura mínima	20.3
151220	7	Sololá	719	Santiago Atitlán	14	Cerro de Oro	5	Mayo	2023-05-26T00:00:00	2024-11-08T21:00:00	5	Humedad	82
151221	7	Sololá	719	Santiago Atitlán	14	Cerro de Oro	5	Mayo	2023-05-26T00:00:00	2024-11-08T21:00:00	6	Velocidad del viento	1.6
151222	7	Sololá	719	Santiago Atitlán	14	Cerro de Oro	5	Mayo	2023-05-26T00:00:00	2024-11-08T21:00:00	7	Dirección del viento	1.61
151223	7	Sololá	719	Santiago Atitlán	14	Cerro de Oro	5	Mayo	2023-05-26T00:00:00	2024-11-08T21:00:00	1	Precipitación	0
151224	7	Sololá	719	Santiago Atitlán	14	Cerro de Oro	5	Mayo	2023-05-26T00:00:00	2024-11-08T21:00:00	8	Radiación solar	0
151225	7	Sololá	719	Santiago Atitlán	14	Cerro de Oro	5	Mayo	2023-05-26T00:00:00	2024-11-08T22:00:00	2	Temperatura media	20.7
151226	7	Sololá	719	Santiago Atitlán	14	Cerro de Oro	5	Mayo	2023-05-26T00:00:00	2024-11-08T22:00:00	4	Temperatura máxima	20.8
151227	7	Sololá	719	Santiago Atitlán	14	Cerro de Oro	5	Mayo	2023-05-26T00:00:00	2024-11-08T22:00:00	3	Temperatura mínima	20.4
151228	7	Sololá	719	Santiago Atitlán	14	Cerro de Oro	5	Mayo	2023-05-26T00:00:00	2024-11-08T22:00:00	5	Humedad	79
151229	7	Sololá	719	Santiago Atitlán	14	Cerro de Oro	5	Mayo	2023-05-26T00:00:00	2024-11-08T22:00:00	6	Velocidad del viento	1.6
151230	7	Sololá	719	Santiago Atitlán	14	Cerro de Oro	5	Mayo	2023-05-26T00:00:00	2024-11-08T22:00:00	7	Dirección del viento	1.61
151231	7	Sololá	719	Santiago Atitlán	14	Cerro de Oro	5	Mayo	2023-05-26T00:00:00	2024-11-08T22:00:00	1	Precipitación	0
151232	7	Sololá	719	Santiago Atitlán	14	Cerro de Oro	5	Mayo	2023-05-26T00:00:00	2024-11-08T22:00:00	8	Radiación solar	0
151233	7	Sololá	719	Santiago Atitlán	14	Cerro de Oro	5	Mayo	2023-05-26T00:00:00	2024-11-08T23:00:00	2	Temperatura media	21.1
151234	7	Sololá	719	Santiago Atitlán	14	Cerro de Oro	5	Mayo	2023-05-26T00:00:00	2024-11-08T23:00:00	4	Temperatura máxima	21.2
151235	7	Sololá	719	Santiago Atitlán	14	Cerro de Oro	5	Mayo	2023-05-26T00:00:00	2024-11-08T23:00:00	3	Temperatura mínima	20.7
151236	7	Sololá	719	Santiago Atitlán	14	Cerro de Oro	5	Mayo	2023-05-26T00:00:00	2024-11-08T23:00:00	5	Humedad	71
151237	7	Sololá	719	Santiago Atitlán	14	Cerro de Oro	5	Mayo	2023-05-26T00:00:00	2024-11-08T23:00:00	6	Velocidad del viento	4.8
151238	7	Sololá	719	Santiago Atitlán	14	Cerro de Oro	5	Mayo	2023-05-26T00:00:00	2024-11-08T23:00:00	7	Dirección del viento	4.83
151239	7	Sololá	719	Santiago Atitlán	14	Cerro de Oro	5	Mayo	2023-05-26T00:00:00	2024-11-08T23:00:00	1	Precipitación	0
151240	7	Sololá	719	Santiago Atitlán	14	Cerro de Oro	5	Mayo	2023-05-26T00:00:00	2024-11-08T23:00:00	8	Radiación solar	0
151241	7	Sololá	719	Santiago Atitlán	14	Cerro de Oro	5	Mayo	2023-05-27T00:00:00	2024-11-08T00:00:00	2	Temperatura media	20.2
151242	7	Sololá	719	Santiago Atitlán	14	Cerro de Oro	5	Mayo	2023-05-27T00:00:00	2024-11-08T00:00:00	4	Temperatura máxima	21.1
151243	7	Sololá	719	Santiago Atitlán	14	Cerro de Oro	5	Mayo	2023-05-27T00:00:00	2024-11-08T00:00:00	3	Temperatura mínima	20.2
151244	7	Sololá	719	Santiago Atitlán	14	Cerro de Oro	5	Mayo	2023-05-27T00:00:00	2024-11-08T00:00:00	5	Humedad	74
151245	7	Sololá	719	Santiago Atitlán	14	Cerro de Oro	5	Mayo	2023-05-27T00:00:00	2024-11-08T00:00:00	6	Velocidad del viento	6.4
151246	7	Sololá	719	Santiago Atitlán	14	Cerro de Oro	5	Mayo	2023-05-27T00:00:00	2024-11-08T00:00:00	7	Dirección del viento	6.44
151247	7	Sololá	719	Santiago Atitlán	14	Cerro de Oro	5	Mayo	2023-05-27T00:00:00	2024-11-08T00:00:00	1	Precipitación	0
151248	7	Sololá	719	Santiago Atitlán	14	Cerro de Oro	5	Mayo	2023-05-27T00:00:00	2024-11-08T00:00:00	8	Radiación solar	0
151249	7	Sololá	719	Santiago Atitlán	14	Cerro de Oro	5	Mayo	2023-05-27T00:00:00	2024-11-08T01:00:00	2	Temperatura media	19.4
151250	7	Sololá	719	Santiago Atitlán	14	Cerro de Oro	5	Mayo	2023-05-27T00:00:00	2024-11-08T01:00:00	4	Temperatura máxima	20.1
151251	7	Sololá	719	Santiago Atitlán	14	Cerro de Oro	5	Mayo	2023-05-27T00:00:00	2024-11-08T01:00:00	3	Temperatura mínima	19.2
151252	7	Sololá	719	Santiago Atitlán	14	Cerro de Oro	5	Mayo	2023-05-27T00:00:00	2024-11-08T01:00:00	5	Humedad	74
151253	7	Sololá	719	Santiago Atitlán	14	Cerro de Oro	5	Mayo	2023-05-27T00:00:00	2024-11-08T01:00:00	6	Velocidad del viento	3.2
151254	7	Sololá	719	Santiago Atitlán	14	Cerro de Oro	5	Mayo	2023-05-27T00:00:00	2024-11-08T01:00:00	7	Dirección del viento	3.22
151255	7	Sololá	719	Santiago Atitlán	14	Cerro de Oro	5	Mayo	2023-05-27T00:00:00	2024-11-08T01:00:00	1	Precipitación	0
151256	7	Sololá	719	Santiago Atitlán	14	Cerro de Oro	5	Mayo	2023-05-27T00:00:00	2024-11-08T01:00:00	8	Radiación solar	0
151257	7	Sololá	719	Santiago Atitlán	14	Cerro de Oro	5	Mayo	2023-05-27T00:00:00	2024-11-08T02:00:00	2	Temperatura media	18
151258	7	Sololá	719	Santiago Atitlán	14	Cerro de Oro	5	Mayo	2023-05-27T00:00:00	2024-11-08T02:00:00	4	Temperatura máxima	19.4
151259	7	Sololá	719	Santiago Atitlán	14	Cerro de Oro	5	Mayo	2023-05-27T00:00:00	2024-11-08T02:00:00	3	Temperatura mínima	17.9
151260	7	Sololá	719	Santiago Atitlán	14	Cerro de Oro	5	Mayo	2023-05-27T00:00:00	2024-11-08T02:00:00	5	Humedad	78
151261	7	Sololá	719	Santiago Atitlán	14	Cerro de Oro	5	Mayo	2023-05-27T00:00:00	2024-11-08T02:00:00	6	Velocidad del viento	4.8
151262	7	Sololá	719	Santiago Atitlán	14	Cerro de Oro	5	Mayo	2023-05-27T00:00:00	2024-11-08T02:00:00	7	Dirección del viento	4.83
151263	7	Sololá	719	Santiago Atitlán	14	Cerro de Oro	5	Mayo	2023-05-27T00:00:00	2024-11-08T02:00:00	1	Precipitación	0
151264	7	Sololá	719	Santiago Atitlán	14	Cerro de Oro	5	Mayo	2023-05-27T00:00:00	2024-11-08T02:00:00	8	Radiación solar	0
151265	7	Sololá	719	Santiago Atitlán	14	Cerro de Oro	5	Mayo	2023-05-27T00:00:00	2024-11-08T03:00:00	2	Temperatura media	17.9
151266	7	Sololá	719	Santiago Atitlán	14	Cerro de Oro	5	Mayo	2023-05-27T00:00:00	2024-11-08T03:00:00	4	Temperatura máxima	18.2
151267	7	Sololá	719	Santiago Atitlán	14	Cerro de Oro	5	Mayo	2023-05-27T00:00:00	2024-11-08T03:00:00	3	Temperatura mínima	17.7
151268	7	Sololá	719	Santiago Atitlán	14	Cerro de Oro	5	Mayo	2023-05-27T00:00:00	2024-11-08T03:00:00	5	Humedad	74
151269	7	Sololá	719	Santiago Atitlán	14	Cerro de Oro	5	Mayo	2023-05-27T00:00:00	2024-11-08T03:00:00	6	Velocidad del viento	4.8
151270	7	Sololá	719	Santiago Atitlán	14	Cerro de Oro	5	Mayo	2023-05-27T00:00:00	2024-11-08T03:00:00	7	Dirección del viento	4.83
151271	7	Sololá	719	Santiago Atitlán	14	Cerro de Oro	5	Mayo	2023-05-27T00:00:00	2024-11-08T03:00:00	1	Precipitación	0
151272	7	Sololá	719	Santiago Atitlán	14	Cerro de Oro	5	Mayo	2023-05-27T00:00:00	2024-11-08T03:00:00	8	Radiación solar	0
151273	7	Sololá	719	Santiago Atitlán	14	Cerro de Oro	5	Mayo	2023-05-27T00:00:00	2024-11-08T04:00:00	2	Temperatura media	18.2
151274	7	Sololá	719	Santiago Atitlán	14	Cerro de Oro	5	Mayo	2023-05-27T00:00:00	2024-11-08T04:00:00	4	Temperatura máxima	18.3
151275	7	Sololá	719	Santiago Atitlán	14	Cerro de Oro	5	Mayo	2023-05-27T00:00:00	2024-11-08T04:00:00	3	Temperatura mínima	17.7
151276	7	Sololá	719	Santiago Atitlán	14	Cerro de Oro	5	Mayo	2023-05-27T00:00:00	2024-11-08T04:00:00	5	Humedad	72
151277	7	Sololá	719	Santiago Atitlán	14	Cerro de Oro	5	Mayo	2023-05-27T00:00:00	2024-11-08T04:00:00	6	Velocidad del viento	4.8
151278	7	Sololá	719	Santiago Atitlán	14	Cerro de Oro	5	Mayo	2023-05-27T00:00:00	2024-11-08T04:00:00	7	Dirección del viento	4.83
151279	7	Sololá	719	Santiago Atitlán	14	Cerro de Oro	5	Mayo	2023-05-27T00:00:00	2024-11-08T04:00:00	1	Precipitación	0
151280	7	Sololá	719	Santiago Atitlán	14	Cerro de Oro	5	Mayo	2023-05-27T00:00:00	2024-11-08T04:00:00	8	Radiación solar	0
151281	7	Sololá	719	Santiago Atitlán	14	Cerro de Oro	5	Mayo	2023-05-27T00:00:00	2024-11-08T05:00:00	2	Temperatura media	17.8
151282	7	Sololá	719	Santiago Atitlán	14	Cerro de Oro	5	Mayo	2023-05-27T00:00:00	2024-11-08T05:00:00	4	Temperatura máxima	18.1
151283	7	Sololá	719	Santiago Atitlán	14	Cerro de Oro	5	Mayo	2023-05-27T00:00:00	2024-11-08T05:00:00	3	Temperatura mínima	17.5
151284	7	Sololá	719	Santiago Atitlán	14	Cerro de Oro	5	Mayo	2023-05-27T00:00:00	2024-11-08T05:00:00	5	Humedad	78
151285	7	Sololá	719	Santiago Atitlán	14	Cerro de Oro	5	Mayo	2023-05-27T00:00:00	2024-11-08T05:00:00	6	Velocidad del viento	6.4
151286	7	Sololá	719	Santiago Atitlán	14	Cerro de Oro	5	Mayo	2023-05-27T00:00:00	2024-11-08T05:00:00	7	Dirección del viento	6.44
151287	7	Sololá	719	Santiago Atitlán	14	Cerro de Oro	5	Mayo	2023-05-27T00:00:00	2024-11-08T05:00:00	1	Precipitación	0
151288	7	Sololá	719	Santiago Atitlán	14	Cerro de Oro	5	Mayo	2023-05-27T00:00:00	2024-11-08T05:00:00	8	Radiación solar	0
151289	7	Sololá	719	Santiago Atitlán	14	Cerro de Oro	5	Mayo	2023-05-27T00:00:00	2024-11-08T06:00:00	2	Temperatura media	17.7
151290	7	Sololá	719	Santiago Atitlán	14	Cerro de Oro	5	Mayo	2023-05-27T00:00:00	2024-11-08T06:00:00	4	Temperatura máxima	17.8
151291	7	Sololá	719	Santiago Atitlán	14	Cerro de Oro	5	Mayo	2023-05-27T00:00:00	2024-11-08T06:00:00	3	Temperatura mínima	17.3
151292	7	Sololá	719	Santiago Atitlán	14	Cerro de Oro	5	Mayo	2023-05-27T00:00:00	2024-11-08T06:00:00	5	Humedad	78
151293	7	Sololá	719	Santiago Atitlán	14	Cerro de Oro	5	Mayo	2023-05-27T00:00:00	2024-11-08T06:00:00	6	Velocidad del viento	3.2
151294	7	Sololá	719	Santiago Atitlán	14	Cerro de Oro	5	Mayo	2023-05-27T00:00:00	2024-11-08T06:00:00	7	Dirección del viento	3.22
151295	7	Sololá	719	Santiago Atitlán	14	Cerro de Oro	5	Mayo	2023-05-27T00:00:00	2024-11-08T06:00:00	1	Precipitación	0
151296	7	Sololá	719	Santiago Atitlán	14	Cerro de Oro	5	Mayo	2023-05-27T00:00:00	2024-11-08T06:00:00	8	Radiación solar	5
151297	7	Sololá	719	Santiago Atitlán	14	Cerro de Oro	5	Mayo	2023-05-27T00:00:00	2024-11-08T07:00:00	2	Temperatura media	18.9
151298	7	Sololá	719	Santiago Atitlán	14	Cerro de Oro	5	Mayo	2023-05-27T00:00:00	2024-11-08T07:00:00	4	Temperatura máxima	18.9
151299	7	Sololá	719	Santiago Atitlán	14	Cerro de Oro	5	Mayo	2023-05-27T00:00:00	2024-11-08T07:00:00	3	Temperatura mínima	17.4
151300	7	Sololá	719	Santiago Atitlán	14	Cerro de Oro	5	Mayo	2023-05-27T00:00:00	2024-11-08T07:00:00	5	Humedad	78
151301	7	Sololá	719	Santiago Atitlán	14	Cerro de Oro	5	Mayo	2023-05-27T00:00:00	2024-11-08T07:00:00	6	Velocidad del viento	3.2
151302	7	Sololá	719	Santiago Atitlán	14	Cerro de Oro	5	Mayo	2023-05-27T00:00:00	2024-11-08T07:00:00	7	Dirección del viento	3.22
151303	7	Sololá	719	Santiago Atitlán	14	Cerro de Oro	5	Mayo	2023-05-27T00:00:00	2024-11-08T07:00:00	1	Precipitación	0
151304	7	Sololá	719	Santiago Atitlán	14	Cerro de Oro	5	Mayo	2023-05-27T00:00:00	2024-11-08T07:00:00	8	Radiación solar	90
151305	7	Sololá	719	Santiago Atitlán	14	Cerro de Oro	5	Mayo	2023-05-27T00:00:00	2024-11-08T08:00:00	2	Temperatura media	20.9
151306	7	Sololá	719	Santiago Atitlán	14	Cerro de Oro	5	Mayo	2023-05-27T00:00:00	2024-11-08T08:00:00	4	Temperatura máxima	20.9
151307	7	Sololá	719	Santiago Atitlán	14	Cerro de Oro	5	Mayo	2023-05-27T00:00:00	2024-11-08T08:00:00	3	Temperatura mínima	18.9
151308	7	Sololá	719	Santiago Atitlán	14	Cerro de Oro	5	Mayo	2023-05-27T00:00:00	2024-11-08T08:00:00	5	Humedad	65
151309	7	Sololá	719	Santiago Atitlán	14	Cerro de Oro	5	Mayo	2023-05-27T00:00:00	2024-11-08T08:00:00	6	Velocidad del viento	3.2
151310	7	Sololá	719	Santiago Atitlán	14	Cerro de Oro	5	Mayo	2023-05-27T00:00:00	2024-11-08T08:00:00	7	Dirección del viento	3.22
151311	7	Sololá	719	Santiago Atitlán	14	Cerro de Oro	5	Mayo	2023-05-27T00:00:00	2024-11-08T08:00:00	1	Precipitación	0
151312	7	Sololá	719	Santiago Atitlán	14	Cerro de Oro	5	Mayo	2023-05-27T00:00:00	2024-11-08T08:00:00	8	Radiación solar	276
151313	7	Sololá	719	Santiago Atitlán	14	Cerro de Oro	5	Mayo	2023-05-27T00:00:00	2024-11-08T09:00:00	2	Temperatura media	22
151314	7	Sololá	719	Santiago Atitlán	14	Cerro de Oro	5	Mayo	2023-05-27T00:00:00	2024-11-08T09:00:00	4	Temperatura máxima	22
151315	7	Sololá	719	Santiago Atitlán	14	Cerro de Oro	5	Mayo	2023-05-27T00:00:00	2024-11-08T09:00:00	3	Temperatura mínima	20.7
151316	7	Sololá	719	Santiago Atitlán	14	Cerro de Oro	5	Mayo	2023-05-27T00:00:00	2024-11-08T09:00:00	5	Humedad	62
151317	7	Sololá	719	Santiago Atitlán	14	Cerro de Oro	5	Mayo	2023-05-27T00:00:00	2024-11-08T09:00:00	6	Velocidad del viento	3.2
151318	7	Sololá	719	Santiago Atitlán	14	Cerro de Oro	5	Mayo	2023-05-27T00:00:00	2024-11-08T09:00:00	7	Dirección del viento	3.22
151319	7	Sololá	719	Santiago Atitlán	14	Cerro de Oro	5	Mayo	2023-05-27T00:00:00	2024-11-08T09:00:00	1	Precipitación	0
151320	7	Sololá	719	Santiago Atitlán	14	Cerro de Oro	5	Mayo	2023-05-27T00:00:00	2024-11-08T09:00:00	8	Radiación solar	379
151321	7	Sololá	719	Santiago Atitlán	14	Cerro de Oro	5	Mayo	2023-05-27T00:00:00	2024-11-08T10:00:00	2	Temperatura media	21.9
151322	7	Sololá	719	Santiago Atitlán	14	Cerro de Oro	5	Mayo	2023-05-27T00:00:00	2024-11-08T10:00:00	4	Temperatura máxima	22.1
151323	7	Sololá	719	Santiago Atitlán	14	Cerro de Oro	5	Mayo	2023-05-27T00:00:00	2024-11-08T10:00:00	3	Temperatura mínima	21.7
151324	7	Sololá	719	Santiago Atitlán	14	Cerro de Oro	5	Mayo	2023-05-27T00:00:00	2024-11-08T10:00:00	5	Humedad	61
151325	7	Sololá	719	Santiago Atitlán	14	Cerro de Oro	5	Mayo	2023-05-27T00:00:00	2024-11-08T10:00:00	6	Velocidad del viento	3.2
151326	7	Sololá	719	Santiago Atitlán	14	Cerro de Oro	5	Mayo	2023-05-27T00:00:00	2024-11-08T10:00:00	7	Dirección del viento	3.22
151327	7	Sololá	719	Santiago Atitlán	14	Cerro de Oro	5	Mayo	2023-05-27T00:00:00	2024-11-08T10:00:00	1	Precipitación	0
151328	7	Sololá	719	Santiago Atitlán	14	Cerro de Oro	5	Mayo	2023-05-27T00:00:00	2024-11-08T10:00:00	8	Radiación solar	458
151329	7	Sololá	719	Santiago Atitlán	14	Cerro de Oro	5	Mayo	2023-05-27T00:00:00	2024-11-08T11:00:00	2	Temperatura media	23.1
151330	7	Sololá	719	Santiago Atitlán	14	Cerro de Oro	5	Mayo	2023-05-27T00:00:00	2024-11-08T11:00:00	4	Temperatura máxima	23.2
151331	7	Sololá	719	Santiago Atitlán	14	Cerro de Oro	5	Mayo	2023-05-27T00:00:00	2024-11-08T11:00:00	3	Temperatura mínima	21.6
151332	7	Sololá	719	Santiago Atitlán	14	Cerro de Oro	5	Mayo	2023-05-27T00:00:00	2024-11-08T11:00:00	5	Humedad	61
151333	7	Sololá	719	Santiago Atitlán	14	Cerro de Oro	5	Mayo	2023-05-27T00:00:00	2024-11-08T11:00:00	6	Velocidad del viento	6.4
151334	7	Sololá	719	Santiago Atitlán	14	Cerro de Oro	5	Mayo	2023-05-27T00:00:00	2024-11-08T11:00:00	7	Dirección del viento	6.44
151335	7	Sololá	719	Santiago Atitlán	14	Cerro de Oro	5	Mayo	2023-05-27T00:00:00	2024-11-08T11:00:00	1	Precipitación	0
151336	7	Sololá	719	Santiago Atitlán	14	Cerro de Oro	5	Mayo	2023-05-27T00:00:00	2024-11-08T11:00:00	8	Radiación solar	600
151337	7	Sololá	719	Santiago Atitlán	14	Cerro de Oro	5	Mayo	2023-05-27T00:00:00	2024-11-08T12:00:00	2	Temperatura media	24.3
151338	7	Sololá	719	Santiago Atitlán	14	Cerro de Oro	5	Mayo	2023-05-27T00:00:00	2024-11-08T12:00:00	4	Temperatura máxima	24.3
151339	7	Sololá	719	Santiago Atitlán	14	Cerro de Oro	5	Mayo	2023-05-27T00:00:00	2024-11-08T12:00:00	3	Temperatura mínima	22.7
151340	7	Sololá	719	Santiago Atitlán	14	Cerro de Oro	5	Mayo	2023-05-27T00:00:00	2024-11-08T12:00:00	5	Humedad	62
151341	7	Sololá	719	Santiago Atitlán	14	Cerro de Oro	5	Mayo	2023-05-27T00:00:00	2024-11-08T12:00:00	6	Velocidad del viento	6.4
151342	7	Sololá	719	Santiago Atitlán	14	Cerro de Oro	5	Mayo	2023-05-27T00:00:00	2024-11-08T12:00:00	7	Dirección del viento	6.44
151343	7	Sololá	719	Santiago Atitlán	14	Cerro de Oro	5	Mayo	2023-05-27T00:00:00	2024-11-08T12:00:00	1	Precipitación	0
151344	7	Sololá	719	Santiago Atitlán	14	Cerro de Oro	5	Mayo	2023-05-27T00:00:00	2024-11-08T12:00:00	8	Radiación solar	934
151345	7	Sololá	719	Santiago Atitlán	14	Cerro de Oro	5	Mayo	2023-05-27T00:00:00	2024-11-08T13:00:00	2	Temperatura media	23.8
151346	7	Sololá	719	Santiago Atitlán	14	Cerro de Oro	5	Mayo	2023-05-27T00:00:00	2024-11-08T13:00:00	4	Temperatura máxima	24.9
151347	7	Sololá	719	Santiago Atitlán	14	Cerro de Oro	5	Mayo	2023-05-27T00:00:00	2024-11-08T13:00:00	3	Temperatura mínima	23.4
151348	7	Sololá	719	Santiago Atitlán	14	Cerro de Oro	5	Mayo	2023-05-27T00:00:00	2024-11-08T13:00:00	5	Humedad	70
151349	7	Sololá	719	Santiago Atitlán	14	Cerro de Oro	5	Mayo	2023-05-27T00:00:00	2024-11-08T13:00:00	6	Velocidad del viento	11.3
151350	7	Sololá	719	Santiago Atitlán	14	Cerro de Oro	5	Mayo	2023-05-27T00:00:00	2024-11-08T13:00:00	7	Dirección del viento	11.27
151351	7	Sololá	719	Santiago Atitlán	14	Cerro de Oro	5	Mayo	2023-05-27T00:00:00	2024-11-08T13:00:00	1	Precipitación	0
151352	7	Sololá	719	Santiago Atitlán	14	Cerro de Oro	5	Mayo	2023-05-27T00:00:00	2024-11-08T13:00:00	8	Radiación solar	859
151353	7	Sololá	719	Santiago Atitlán	14	Cerro de Oro	5	Mayo	2023-05-27T00:00:00	2024-11-08T14:00:00	2	Temperatura media	23.7
151354	7	Sololá	719	Santiago Atitlán	14	Cerro de Oro	5	Mayo	2023-05-27T00:00:00	2024-11-08T14:00:00	4	Temperatura máxima	23.9
151355	7	Sololá	719	Santiago Atitlán	14	Cerro de Oro	5	Mayo	2023-05-27T00:00:00	2024-11-08T14:00:00	3	Temperatura mínima	22.9
151356	7	Sololá	719	Santiago Atitlán	14	Cerro de Oro	5	Mayo	2023-05-27T00:00:00	2024-11-08T14:00:00	5	Humedad	70
151357	7	Sololá	719	Santiago Atitlán	14	Cerro de Oro	5	Mayo	2023-05-27T00:00:00	2024-11-08T14:00:00	6	Velocidad del viento	11.3
151358	7	Sololá	719	Santiago Atitlán	14	Cerro de Oro	5	Mayo	2023-05-27T00:00:00	2024-11-08T14:00:00	7	Dirección del viento	11.27
151359	7	Sololá	719	Santiago Atitlán	14	Cerro de Oro	5	Mayo	2023-05-27T00:00:00	2024-11-08T14:00:00	1	Precipitación	0
151360	7	Sololá	719	Santiago Atitlán	14	Cerro de Oro	5	Mayo	2023-05-27T00:00:00	2024-11-08T14:00:00	8	Radiación solar	482
151361	7	Sololá	719	Santiago Atitlán	14	Cerro de Oro	5	Mayo	2023-05-27T00:00:00	2024-11-08T15:00:00	2	Temperatura media	23.8
151362	7	Sololá	719	Santiago Atitlán	14	Cerro de Oro	5	Mayo	2023-05-27T00:00:00	2024-11-08T15:00:00	4	Temperatura máxima	24.3
151363	7	Sololá	719	Santiago Atitlán	14	Cerro de Oro	5	Mayo	2023-05-27T00:00:00	2024-11-08T15:00:00	3	Temperatura mínima	23.6
151364	7	Sololá	719	Santiago Atitlán	14	Cerro de Oro	5	Mayo	2023-05-27T00:00:00	2024-11-08T15:00:00	5	Humedad	72
151365	7	Sololá	719	Santiago Atitlán	14	Cerro de Oro	5	Mayo	2023-05-27T00:00:00	2024-11-08T15:00:00	6	Velocidad del viento	9.7
151366	7	Sololá	719	Santiago Atitlán	14	Cerro de Oro	5	Mayo	2023-05-27T00:00:00	2024-11-08T15:00:00	7	Dirección del viento	9.66
151367	7	Sololá	719	Santiago Atitlán	14	Cerro de Oro	5	Mayo	2023-05-27T00:00:00	2024-11-08T15:00:00	1	Precipitación	0
151368	7	Sololá	719	Santiago Atitlán	14	Cerro de Oro	5	Mayo	2023-05-27T00:00:00	2024-11-08T15:00:00	8	Radiación solar	589
151369	7	Sololá	719	Santiago Atitlán	14	Cerro de Oro	5	Mayo	2023-05-27T00:00:00	2024-11-08T16:00:00	2	Temperatura media	22.2
151370	7	Sololá	719	Santiago Atitlán	14	Cerro de Oro	5	Mayo	2023-05-27T00:00:00	2024-11-08T16:00:00	4	Temperatura máxima	23.7
151371	7	Sololá	719	Santiago Atitlán	14	Cerro de Oro	5	Mayo	2023-05-27T00:00:00	2024-11-08T16:00:00	3	Temperatura mínima	22.1
151372	7	Sololá	719	Santiago Atitlán	14	Cerro de Oro	5	Mayo	2023-05-27T00:00:00	2024-11-08T16:00:00	5	Humedad	80
151373	7	Sololá	719	Santiago Atitlán	14	Cerro de Oro	5	Mayo	2023-05-27T00:00:00	2024-11-08T16:00:00	6	Velocidad del viento	9.7
151374	7	Sololá	719	Santiago Atitlán	14	Cerro de Oro	5	Mayo	2023-05-27T00:00:00	2024-11-08T16:00:00	7	Dirección del viento	9.66
151375	7	Sololá	719	Santiago Atitlán	14	Cerro de Oro	5	Mayo	2023-05-27T00:00:00	2024-11-08T16:00:00	1	Precipitación	0
151376	7	Sololá	719	Santiago Atitlán	14	Cerro de Oro	5	Mayo	2023-05-27T00:00:00	2024-11-08T16:00:00	8	Radiación solar	232
151377	7	Sololá	719	Santiago Atitlán	14	Cerro de Oro	5	Mayo	2023-05-27T00:00:00	2024-11-08T17:00:00	2	Temperatura media	22.1
151378	7	Sololá	719	Santiago Atitlán	14	Cerro de Oro	5	Mayo	2023-05-27T00:00:00	2024-11-08T17:00:00	4	Temperatura máxima	22.4
151379	7	Sololá	719	Santiago Atitlán	14	Cerro de Oro	5	Mayo	2023-05-27T00:00:00	2024-11-08T17:00:00	3	Temperatura mínima	21.8
151380	7	Sololá	719	Santiago Atitlán	14	Cerro de Oro	5	Mayo	2023-05-27T00:00:00	2024-11-08T17:00:00	5	Humedad	79
151381	7	Sololá	719	Santiago Atitlán	14	Cerro de Oro	5	Mayo	2023-05-27T00:00:00	2024-11-08T17:00:00	6	Velocidad del viento	8
151382	7	Sololá	719	Santiago Atitlán	14	Cerro de Oro	5	Mayo	2023-05-27T00:00:00	2024-11-08T17:00:00	7	Dirección del viento	8.05
151383	7	Sololá	719	Santiago Atitlán	14	Cerro de Oro	5	Mayo	2023-05-27T00:00:00	2024-11-08T17:00:00	1	Precipitación	0
151384	7	Sololá	719	Santiago Atitlán	14	Cerro de Oro	5	Mayo	2023-05-27T00:00:00	2024-11-08T17:00:00	8	Radiación solar	200
151385	7	Sololá	719	Santiago Atitlán	14	Cerro de Oro	5	Mayo	2023-05-27T00:00:00	2024-11-08T18:00:00	2	Temperatura media	20.9
151386	7	Sololá	719	Santiago Atitlán	14	Cerro de Oro	5	Mayo	2023-05-27T00:00:00	2024-11-08T18:00:00	4	Temperatura máxima	22.1
151387	7	Sololá	719	Santiago Atitlán	14	Cerro de Oro	5	Mayo	2023-05-27T00:00:00	2024-11-08T18:00:00	3	Temperatura mínima	20.8
151388	7	Sololá	719	Santiago Atitlán	14	Cerro de Oro	5	Mayo	2023-05-27T00:00:00	2024-11-08T18:00:00	5	Humedad	82
151389	7	Sololá	719	Santiago Atitlán	14	Cerro de Oro	5	Mayo	2023-05-27T00:00:00	2024-11-08T18:00:00	6	Velocidad del viento	8
151390	7	Sololá	719	Santiago Atitlán	14	Cerro de Oro	5	Mayo	2023-05-27T00:00:00	2024-11-08T18:00:00	7	Dirección del viento	8.05
151391	7	Sololá	719	Santiago Atitlán	14	Cerro de Oro	5	Mayo	2023-05-27T00:00:00	2024-11-08T18:00:00	1	Precipitación	0
151392	7	Sololá	719	Santiago Atitlán	14	Cerro de Oro	5	Mayo	2023-05-27T00:00:00	2024-11-08T18:00:00	8	Radiación solar	58
151393	7	Sololá	719	Santiago Atitlán	14	Cerro de Oro	5	Mayo	2023-05-27T00:00:00	2024-11-08T19:00:00	2	Temperatura media	19.9
151394	7	Sololá	719	Santiago Atitlán	14	Cerro de Oro	5	Mayo	2023-05-27T00:00:00	2024-11-08T19:00:00	4	Temperatura máxima	21
151395	7	Sololá	719	Santiago Atitlán	14	Cerro de Oro	5	Mayo	2023-05-27T00:00:00	2024-11-08T19:00:00	3	Temperatura mínima	19.9
151396	7	Sololá	719	Santiago Atitlán	14	Cerro de Oro	5	Mayo	2023-05-27T00:00:00	2024-11-08T19:00:00	5	Humedad	87
151397	7	Sololá	719	Santiago Atitlán	14	Cerro de Oro	5	Mayo	2023-05-27T00:00:00	2024-11-08T19:00:00	6	Velocidad del viento	8
151398	7	Sololá	719	Santiago Atitlán	14	Cerro de Oro	5	Mayo	2023-05-27T00:00:00	2024-11-08T19:00:00	7	Dirección del viento	8.05
151399	7	Sololá	719	Santiago Atitlán	14	Cerro de Oro	5	Mayo	2023-05-27T00:00:00	2024-11-08T19:00:00	1	Precipitación	0
151400	7	Sololá	719	Santiago Atitlán	14	Cerro de Oro	5	Mayo	2023-05-27T00:00:00	2024-11-08T19:00:00	8	Radiación solar	0
151401	7	Sololá	719	Santiago Atitlán	14	Cerro de Oro	5	Mayo	2023-05-27T00:00:00	2024-11-08T20:00:00	2	Temperatura media	19.8
151402	7	Sololá	719	Santiago Atitlán	14	Cerro de Oro	5	Mayo	2023-05-27T00:00:00	2024-11-08T20:00:00	4	Temperatura máxima	19.9
151403	7	Sololá	719	Santiago Atitlán	14	Cerro de Oro	5	Mayo	2023-05-27T00:00:00	2024-11-08T20:00:00	3	Temperatura mínima	19.4
151404	7	Sololá	719	Santiago Atitlán	14	Cerro de Oro	5	Mayo	2023-05-27T00:00:00	2024-11-08T20:00:00	5	Humedad	84
151405	7	Sololá	719	Santiago Atitlán	14	Cerro de Oro	5	Mayo	2023-05-27T00:00:00	2024-11-08T20:00:00	6	Velocidad del viento	9.7
151406	7	Sololá	719	Santiago Atitlán	14	Cerro de Oro	5	Mayo	2023-05-27T00:00:00	2024-11-08T20:00:00	7	Dirección del viento	9.66
151407	7	Sololá	719	Santiago Atitlán	14	Cerro de Oro	5	Mayo	2023-05-27T00:00:00	2024-11-08T20:00:00	1	Precipitación	0
151408	7	Sololá	719	Santiago Atitlán	14	Cerro de Oro	5	Mayo	2023-05-27T00:00:00	2024-11-08T20:00:00	8	Radiación solar	0
151409	7	Sololá	719	Santiago Atitlán	14	Cerro de Oro	5	Mayo	2023-05-27T00:00:00	2024-11-08T21:00:00	2	Temperatura media	20.4
151410	7	Sololá	719	Santiago Atitlán	14	Cerro de Oro	5	Mayo	2023-05-27T00:00:00	2024-11-08T21:00:00	4	Temperatura máxima	20.4
151411	7	Sololá	719	Santiago Atitlán	14	Cerro de Oro	5	Mayo	2023-05-27T00:00:00	2024-11-08T21:00:00	3	Temperatura mínima	19.7
151412	7	Sololá	719	Santiago Atitlán	14	Cerro de Oro	5	Mayo	2023-05-27T00:00:00	2024-11-08T21:00:00	5	Humedad	77
151413	7	Sololá	719	Santiago Atitlán	14	Cerro de Oro	5	Mayo	2023-05-27T00:00:00	2024-11-08T21:00:00	6	Velocidad del viento	6.4
151414	7	Sololá	719	Santiago Atitlán	14	Cerro de Oro	5	Mayo	2023-05-27T00:00:00	2024-11-08T21:00:00	7	Dirección del viento	6.44
151415	7	Sololá	719	Santiago Atitlán	14	Cerro de Oro	5	Mayo	2023-05-27T00:00:00	2024-11-08T21:00:00	1	Precipitación	0
151416	7	Sololá	719	Santiago Atitlán	14	Cerro de Oro	5	Mayo	2023-05-27T00:00:00	2024-11-08T21:00:00	8	Radiación solar	0
151417	7	Sololá	719	Santiago Atitlán	14	Cerro de Oro	5	Mayo	2023-05-27T00:00:00	2024-11-08T22:00:00	2	Temperatura media	20.6
151418	7	Sololá	719	Santiago Atitlán	14	Cerro de Oro	5	Mayo	2023-05-27T00:00:00	2024-11-08T22:00:00	4	Temperatura máxima	20.7
151419	7	Sololá	719	Santiago Atitlán	14	Cerro de Oro	5	Mayo	2023-05-27T00:00:00	2024-11-08T22:00:00	3	Temperatura mínima	20.4
151420	7	Sololá	719	Santiago Atitlán	14	Cerro de Oro	5	Mayo	2023-05-27T00:00:00	2024-11-08T22:00:00	5	Humedad	75
151421	7	Sololá	719	Santiago Atitlán	14	Cerro de Oro	5	Mayo	2023-05-27T00:00:00	2024-11-08T22:00:00	6	Velocidad del viento	6.4
151422	7	Sololá	719	Santiago Atitlán	14	Cerro de Oro	5	Mayo	2023-05-27T00:00:00	2024-11-08T22:00:00	7	Dirección del viento	6.44
151423	7	Sololá	719	Santiago Atitlán	14	Cerro de Oro	5	Mayo	2023-05-27T00:00:00	2024-11-08T22:00:00	1	Precipitación	0
151424	7	Sololá	719	Santiago Atitlán	14	Cerro de Oro	5	Mayo	2023-05-27T00:00:00	2024-11-08T22:00:00	8	Radiación solar	0
151425	7	Sololá	719	Santiago Atitlán	14	Cerro de Oro	5	Mayo	2023-05-27T00:00:00	2024-11-08T23:00:00	2	Temperatura media	17.8
151426	7	Sololá	719	Santiago Atitlán	14	Cerro de Oro	5	Mayo	2023-05-27T00:00:00	2024-11-08T23:00:00	4	Temperatura máxima	20.6
151427	7	Sololá	719	Santiago Atitlán	14	Cerro de Oro	5	Mayo	2023-05-27T00:00:00	2024-11-08T23:00:00	3	Temperatura mínima	17.8
151428	7	Sololá	719	Santiago Atitlán	14	Cerro de Oro	5	Mayo	2023-05-27T00:00:00	2024-11-08T23:00:00	5	Humedad	90
151429	7	Sololá	719	Santiago Atitlán	14	Cerro de Oro	5	Mayo	2023-05-27T00:00:00	2024-11-08T23:00:00	6	Velocidad del viento	6.4
151430	7	Sololá	719	Santiago Atitlán	14	Cerro de Oro	5	Mayo	2023-05-27T00:00:00	2024-11-08T23:00:00	7	Dirección del viento	6.44
151431	7	Sololá	719	Santiago Atitlán	14	Cerro de Oro	5	Mayo	2023-05-27T00:00:00	2024-11-08T23:00:00	1	Precipitación	3.2
151432	7	Sololá	719	Santiago Atitlán	14	Cerro de Oro	5	Mayo	2023-05-27T00:00:00	2024-11-08T23:00:00	8	Radiación solar	0
151433	7	Sololá	719	Santiago Atitlán	14	Cerro de Oro	5	Mayo	2023-05-28T00:00:00	2024-11-08T00:00:00	2	Temperatura media	18.1
151434	7	Sololá	719	Santiago Atitlán	14	Cerro de Oro	5	Mayo	2023-05-28T00:00:00	2024-11-08T00:00:00	4	Temperatura máxima	18.2
151435	7	Sololá	719	Santiago Atitlán	14	Cerro de Oro	5	Mayo	2023-05-28T00:00:00	2024-11-08T00:00:00	3	Temperatura mínima	17.6
151436	7	Sololá	719	Santiago Atitlán	14	Cerro de Oro	5	Mayo	2023-05-28T00:00:00	2024-11-08T00:00:00	5	Humedad	90
151437	7	Sololá	719	Santiago Atitlán	14	Cerro de Oro	5	Mayo	2023-05-28T00:00:00	2024-11-08T00:00:00	6	Velocidad del viento	3.2
151438	7	Sololá	719	Santiago Atitlán	14	Cerro de Oro	5	Mayo	2023-05-28T00:00:00	2024-11-08T00:00:00	7	Dirección del viento	3.22
151439	7	Sololá	719	Santiago Atitlán	14	Cerro de Oro	5	Mayo	2023-05-28T00:00:00	2024-11-08T00:00:00	1	Precipitación	0.6
151440	7	Sololá	719	Santiago Atitlán	14	Cerro de Oro	5	Mayo	2023-05-28T00:00:00	2024-11-08T00:00:00	8	Radiación solar	0
151441	7	Sololá	719	Santiago Atitlán	14	Cerro de Oro	5	Mayo	2023-05-28T00:00:00	2024-11-08T01:00:00	2	Temperatura media	17.9
151442	7	Sololá	719	Santiago Atitlán	14	Cerro de Oro	5	Mayo	2023-05-28T00:00:00	2024-11-08T01:00:00	4	Temperatura máxima	18
151443	7	Sololá	719	Santiago Atitlán	14	Cerro de Oro	5	Mayo	2023-05-28T00:00:00	2024-11-08T01:00:00	3	Temperatura mínima	17.6
151444	7	Sololá	719	Santiago Atitlán	14	Cerro de Oro	5	Mayo	2023-05-28T00:00:00	2024-11-08T01:00:00	5	Humedad	91
151445	7	Sololá	719	Santiago Atitlán	14	Cerro de Oro	5	Mayo	2023-05-28T00:00:00	2024-11-08T01:00:00	6	Velocidad del viento	4.8
151446	7	Sololá	719	Santiago Atitlán	14	Cerro de Oro	5	Mayo	2023-05-28T00:00:00	2024-11-08T01:00:00	7	Dirección del viento	4.83
151447	7	Sololá	719	Santiago Atitlán	14	Cerro de Oro	5	Mayo	2023-05-28T00:00:00	2024-11-08T01:00:00	1	Precipitación	0.2
151448	7	Sololá	719	Santiago Atitlán	14	Cerro de Oro	5	Mayo	2023-05-28T00:00:00	2024-11-08T01:00:00	8	Radiación solar	0
151449	7	Sololá	719	Santiago Atitlán	14	Cerro de Oro	5	Mayo	2023-05-28T00:00:00	2024-11-08T02:00:00	2	Temperatura media	17.7
151450	7	Sololá	719	Santiago Atitlán	14	Cerro de Oro	5	Mayo	2023-05-28T00:00:00	2024-11-08T02:00:00	4	Temperatura máxima	17.9
151451	7	Sololá	719	Santiago Atitlán	14	Cerro de Oro	5	Mayo	2023-05-28T00:00:00	2024-11-08T02:00:00	3	Temperatura mínima	17.7
151452	7	Sololá	719	Santiago Atitlán	14	Cerro de Oro	5	Mayo	2023-05-28T00:00:00	2024-11-08T02:00:00	5	Humedad	87
151453	7	Sololá	719	Santiago Atitlán	14	Cerro de Oro	5	Mayo	2023-05-28T00:00:00	2024-11-08T02:00:00	6	Velocidad del viento	6.4
151454	7	Sololá	719	Santiago Atitlán	14	Cerro de Oro	5	Mayo	2023-05-28T00:00:00	2024-11-08T02:00:00	7	Dirección del viento	6.44
151455	7	Sololá	719	Santiago Atitlán	14	Cerro de Oro	5	Mayo	2023-05-28T00:00:00	2024-11-08T02:00:00	1	Precipitación	0
151456	7	Sololá	719	Santiago Atitlán	14	Cerro de Oro	5	Mayo	2023-05-28T00:00:00	2024-11-08T02:00:00	8	Radiación solar	0
151457	7	Sololá	719	Santiago Atitlán	14	Cerro de Oro	5	Mayo	2023-05-28T00:00:00	2024-11-08T03:00:00	2	Temperatura media	17.7
151458	7	Sololá	719	Santiago Atitlán	14	Cerro de Oro	5	Mayo	2023-05-28T00:00:00	2024-11-08T03:00:00	4	Temperatura máxima	17.8
151459	7	Sololá	719	Santiago Atitlán	14	Cerro de Oro	5	Mayo	2023-05-28T00:00:00	2024-11-08T03:00:00	3	Temperatura mínima	17.7
151460	7	Sololá	719	Santiago Atitlán	14	Cerro de Oro	5	Mayo	2023-05-28T00:00:00	2024-11-08T03:00:00	5	Humedad	89
151461	7	Sololá	719	Santiago Atitlán	14	Cerro de Oro	5	Mayo	2023-05-28T00:00:00	2024-11-08T03:00:00	6	Velocidad del viento	4.8
151462	7	Sololá	719	Santiago Atitlán	14	Cerro de Oro	5	Mayo	2023-05-28T00:00:00	2024-11-08T03:00:00	7	Dirección del viento	4.83
151463	7	Sololá	719	Santiago Atitlán	14	Cerro de Oro	5	Mayo	2023-05-28T00:00:00	2024-11-08T03:00:00	1	Precipitación	0
151464	7	Sololá	719	Santiago Atitlán	14	Cerro de Oro	5	Mayo	2023-05-28T00:00:00	2024-11-08T03:00:00	8	Radiación solar	0
151465	7	Sololá	719	Santiago Atitlán	14	Cerro de Oro	5	Mayo	2023-05-28T00:00:00	2024-11-08T04:00:00	2	Temperatura media	17.4
151466	7	Sololá	719	Santiago Atitlán	14	Cerro de Oro	5	Mayo	2023-05-28T00:00:00	2024-11-08T04:00:00	4	Temperatura máxima	17.8
151467	7	Sololá	719	Santiago Atitlán	14	Cerro de Oro	5	Mayo	2023-05-28T00:00:00	2024-11-08T04:00:00	3	Temperatura mínima	17.4
151468	7	Sololá	719	Santiago Atitlán	14	Cerro de Oro	5	Mayo	2023-05-28T00:00:00	2024-11-08T04:00:00	5	Humedad	88
151469	7	Sololá	719	Santiago Atitlán	14	Cerro de Oro	5	Mayo	2023-05-28T00:00:00	2024-11-08T04:00:00	6	Velocidad del viento	3.2
151470	7	Sololá	719	Santiago Atitlán	14	Cerro de Oro	5	Mayo	2023-05-28T00:00:00	2024-11-08T04:00:00	7	Dirección del viento	3.22
151471	7	Sololá	719	Santiago Atitlán	14	Cerro de Oro	5	Mayo	2023-05-28T00:00:00	2024-11-08T04:00:00	1	Precipitación	0
151472	7	Sololá	719	Santiago Atitlán	14	Cerro de Oro	5	Mayo	2023-05-28T00:00:00	2024-11-08T04:00:00	8	Radiación solar	0
151473	7	Sololá	719	Santiago Atitlán	14	Cerro de Oro	5	Mayo	2023-05-28T00:00:00	2024-11-08T05:00:00	2	Temperatura media	17.6
151474	7	Sololá	719	Santiago Atitlán	14	Cerro de Oro	5	Mayo	2023-05-28T00:00:00	2024-11-08T05:00:00	4	Temperatura máxima	17.7
151475	7	Sololá	719	Santiago Atitlán	14	Cerro de Oro	5	Mayo	2023-05-28T00:00:00	2024-11-08T05:00:00	3	Temperatura mínima	17.3
151476	7	Sololá	719	Santiago Atitlán	14	Cerro de Oro	5	Mayo	2023-05-28T00:00:00	2024-11-08T05:00:00	5	Humedad	87
151477	7	Sololá	719	Santiago Atitlán	14	Cerro de Oro	5	Mayo	2023-05-28T00:00:00	2024-11-08T05:00:00	6	Velocidad del viento	4.8
151478	7	Sololá	719	Santiago Atitlán	14	Cerro de Oro	5	Mayo	2023-05-28T00:00:00	2024-11-08T05:00:00	7	Dirección del viento	4.83
151479	7	Sololá	719	Santiago Atitlán	14	Cerro de Oro	5	Mayo	2023-05-28T00:00:00	2024-11-08T05:00:00	1	Precipitación	0
151480	7	Sololá	719	Santiago Atitlán	14	Cerro de Oro	5	Mayo	2023-05-28T00:00:00	2024-11-08T05:00:00	8	Radiación solar	0
151481	7	Sololá	719	Santiago Atitlán	14	Cerro de Oro	5	Mayo	2023-05-28T00:00:00	2024-11-08T06:00:00	2	Temperatura media	17.9
151482	7	Sololá	719	Santiago Atitlán	14	Cerro de Oro	5	Mayo	2023-05-28T00:00:00	2024-11-08T06:00:00	4	Temperatura máxima	17.9
151483	7	Sololá	719	Santiago Atitlán	14	Cerro de Oro	5	Mayo	2023-05-28T00:00:00	2024-11-08T06:00:00	3	Temperatura mínima	17.5
151484	7	Sololá	719	Santiago Atitlán	14	Cerro de Oro	5	Mayo	2023-05-28T00:00:00	2024-11-08T06:00:00	5	Humedad	88
151485	7	Sololá	719	Santiago Atitlán	14	Cerro de Oro	5	Mayo	2023-05-28T00:00:00	2024-11-08T06:00:00	6	Velocidad del viento	3.2
151486	7	Sololá	719	Santiago Atitlán	14	Cerro de Oro	5	Mayo	2023-05-28T00:00:00	2024-11-08T06:00:00	7	Dirección del viento	3.22
151487	7	Sololá	719	Santiago Atitlán	14	Cerro de Oro	5	Mayo	2023-05-28T00:00:00	2024-11-08T06:00:00	1	Precipitación	0
151488	7	Sololá	719	Santiago Atitlán	14	Cerro de Oro	5	Mayo	2023-05-28T00:00:00	2024-11-08T06:00:00	8	Radiación solar	3
151489	7	Sololá	719	Santiago Atitlán	14	Cerro de Oro	5	Mayo	2023-05-28T00:00:00	2024-11-08T07:00:00	2	Temperatura media	18.3
151490	7	Sololá	719	Santiago Atitlán	14	Cerro de Oro	5	Mayo	2023-05-28T00:00:00	2024-11-08T07:00:00	4	Temperatura máxima	18.3
151491	7	Sololá	719	Santiago Atitlán	14	Cerro de Oro	5	Mayo	2023-05-28T00:00:00	2024-11-08T07:00:00	3	Temperatura mínima	17.7
151492	7	Sololá	719	Santiago Atitlán	14	Cerro de Oro	5	Mayo	2023-05-28T00:00:00	2024-11-08T07:00:00	5	Humedad	87
151493	7	Sololá	719	Santiago Atitlán	14	Cerro de Oro	5	Mayo	2023-05-28T00:00:00	2024-11-08T07:00:00	6	Velocidad del viento	4.8
151494	7	Sololá	719	Santiago Atitlán	14	Cerro de Oro	5	Mayo	2023-05-28T00:00:00	2024-11-08T07:00:00	7	Dirección del viento	4.83
151495	7	Sololá	719	Santiago Atitlán	14	Cerro de Oro	5	Mayo	2023-05-28T00:00:00	2024-11-08T07:00:00	1	Precipitación	0
151496	7	Sololá	719	Santiago Atitlán	14	Cerro de Oro	5	Mayo	2023-05-28T00:00:00	2024-11-08T07:00:00	8	Radiación solar	46
151497	7	Sololá	719	Santiago Atitlán	14	Cerro de Oro	5	Mayo	2023-05-28T00:00:00	2024-11-08T08:00:00	2	Temperatura media	21.1
151498	7	Sololá	719	Santiago Atitlán	14	Cerro de Oro	5	Mayo	2023-05-28T00:00:00	2024-11-08T08:00:00	4	Temperatura máxima	21.1
151499	7	Sololá	719	Santiago Atitlán	14	Cerro de Oro	5	Mayo	2023-05-28T00:00:00	2024-11-08T08:00:00	3	Temperatura mínima	18.3
151500	7	Sololá	719	Santiago Atitlán	14	Cerro de Oro	5	Mayo	2023-05-28T00:00:00	2024-11-08T08:00:00	5	Humedad	79
151501	7	Sololá	719	Santiago Atitlán	14	Cerro de Oro	5	Mayo	2023-05-28T00:00:00	2024-11-08T08:00:00	6	Velocidad del viento	1.6
151502	7	Sololá	719	Santiago Atitlán	14	Cerro de Oro	5	Mayo	2023-05-28T00:00:00	2024-11-08T08:00:00	7	Dirección del viento	1.61
151503	7	Sololá	719	Santiago Atitlán	14	Cerro de Oro	5	Mayo	2023-05-28T00:00:00	2024-11-08T08:00:00	1	Precipitación	0
151504	7	Sololá	719	Santiago Atitlán	14	Cerro de Oro	5	Mayo	2023-05-28T00:00:00	2024-11-08T08:00:00	8	Radiación solar	248
151505	7	Sololá	719	Santiago Atitlán	14	Cerro de Oro	5	Mayo	2023-05-28T00:00:00	2024-11-08T09:00:00	2	Temperatura media	20.7
151506	7	Sololá	719	Santiago Atitlán	14	Cerro de Oro	5	Mayo	2023-05-28T00:00:00	2024-11-08T09:00:00	4	Temperatura máxima	21.1
151507	7	Sololá	719	Santiago Atitlán	14	Cerro de Oro	5	Mayo	2023-05-28T00:00:00	2024-11-08T09:00:00	3	Temperatura mínima	20.7
151508	7	Sololá	719	Santiago Atitlán	14	Cerro de Oro	5	Mayo	2023-05-28T00:00:00	2024-11-08T09:00:00	5	Humedad	80
151509	7	Sololá	719	Santiago Atitlán	14	Cerro de Oro	5	Mayo	2023-05-28T00:00:00	2024-11-08T09:00:00	6	Velocidad del viento	3.2
151510	7	Sololá	719	Santiago Atitlán	14	Cerro de Oro	5	Mayo	2023-05-28T00:00:00	2024-11-08T09:00:00	7	Dirección del viento	3.22
151511	7	Sololá	719	Santiago Atitlán	14	Cerro de Oro	5	Mayo	2023-05-28T00:00:00	2024-11-08T09:00:00	1	Precipitación	0
151512	7	Sololá	719	Santiago Atitlán	14	Cerro de Oro	5	Mayo	2023-05-28T00:00:00	2024-11-08T09:00:00	8	Radiación solar	387
151513	7	Sololá	719	Santiago Atitlán	14	Cerro de Oro	5	Mayo	2023-05-28T00:00:00	2024-11-08T10:00:00	2	Temperatura media	21.8
151514	7	Sololá	719	Santiago Atitlán	14	Cerro de Oro	5	Mayo	2023-05-28T00:00:00	2024-11-08T10:00:00	4	Temperatura máxima	21.8
151515	7	Sololá	719	Santiago Atitlán	14	Cerro de Oro	5	Mayo	2023-05-28T00:00:00	2024-11-08T10:00:00	3	Temperatura mínima	20.7
151516	7	Sololá	719	Santiago Atitlán	14	Cerro de Oro	5	Mayo	2023-05-28T00:00:00	2024-11-08T10:00:00	5	Humedad	78
151517	7	Sololá	719	Santiago Atitlán	14	Cerro de Oro	5	Mayo	2023-05-28T00:00:00	2024-11-08T10:00:00	6	Velocidad del viento	3.2
151518	7	Sololá	719	Santiago Atitlán	14	Cerro de Oro	5	Mayo	2023-05-28T00:00:00	2024-11-08T10:00:00	7	Dirección del viento	3.22
151519	7	Sololá	719	Santiago Atitlán	14	Cerro de Oro	5	Mayo	2023-05-28T00:00:00	2024-11-08T10:00:00	1	Precipitación	0
151520	7	Sololá	719	Santiago Atitlán	14	Cerro de Oro	5	Mayo	2023-05-28T00:00:00	2024-11-08T10:00:00	8	Radiación solar	388
151521	7	Sololá	719	Santiago Atitlán	14	Cerro de Oro	5	Mayo	2023-05-28T00:00:00	2024-11-08T11:00:00	2	Temperatura media	21.4
151522	7	Sololá	719	Santiago Atitlán	14	Cerro de Oro	5	Mayo	2023-05-28T00:00:00	2024-11-08T11:00:00	4	Temperatura máxima	22.2
151523	7	Sololá	719	Santiago Atitlán	14	Cerro de Oro	5	Mayo	2023-05-28T00:00:00	2024-11-08T11:00:00	3	Temperatura mínima	21.2
151524	7	Sololá	719	Santiago Atitlán	14	Cerro de Oro	5	Mayo	2023-05-28T00:00:00	2024-11-08T11:00:00	5	Humedad	79
151525	7	Sololá	719	Santiago Atitlán	14	Cerro de Oro	5	Mayo	2023-05-28T00:00:00	2024-11-08T11:00:00	6	Velocidad del viento	4.8
151526	7	Sololá	719	Santiago Atitlán	14	Cerro de Oro	5	Mayo	2023-05-28T00:00:00	2024-11-08T11:00:00	7	Dirección del viento	4.83
151527	7	Sololá	719	Santiago Atitlán	14	Cerro de Oro	5	Mayo	2023-05-28T00:00:00	2024-11-08T11:00:00	1	Precipitación	0
151528	7	Sololá	719	Santiago Atitlán	14	Cerro de Oro	5	Mayo	2023-05-28T00:00:00	2024-11-08T11:00:00	8	Radiación solar	380
151529	7	Sololá	719	Santiago Atitlán	14	Cerro de Oro	5	Mayo	2023-05-28T00:00:00	2024-11-08T12:00:00	2	Temperatura media	22.9
151530	7	Sololá	719	Santiago Atitlán	14	Cerro de Oro	5	Mayo	2023-05-28T00:00:00	2024-11-08T12:00:00	4	Temperatura máxima	23
151531	7	Sololá	719	Santiago Atitlán	14	Cerro de Oro	5	Mayo	2023-05-28T00:00:00	2024-11-08T12:00:00	3	Temperatura mínima	21.4
151532	7	Sololá	719	Santiago Atitlán	14	Cerro de Oro	5	Mayo	2023-05-28T00:00:00	2024-11-08T12:00:00	5	Humedad	76
151533	7	Sololá	719	Santiago Atitlán	14	Cerro de Oro	5	Mayo	2023-05-28T00:00:00	2024-11-08T12:00:00	6	Velocidad del viento	9.7
151534	7	Sololá	719	Santiago Atitlán	14	Cerro de Oro	5	Mayo	2023-05-28T00:00:00	2024-11-08T12:00:00	7	Dirección del viento	9.66
151535	7	Sololá	719	Santiago Atitlán	14	Cerro de Oro	5	Mayo	2023-05-28T00:00:00	2024-11-08T12:00:00	1	Precipitación	0
151536	7	Sololá	719	Santiago Atitlán	14	Cerro de Oro	5	Mayo	2023-05-28T00:00:00	2024-11-08T12:00:00	8	Radiación solar	856
151537	7	Sololá	719	Santiago Atitlán	14	Cerro de Oro	5	Mayo	2023-05-28T00:00:00	2024-11-08T13:00:00	2	Temperatura media	21.3
151538	7	Sololá	719	Santiago Atitlán	14	Cerro de Oro	5	Mayo	2023-05-28T00:00:00	2024-11-08T13:00:00	4	Temperatura máxima	23.2
151539	7	Sololá	719	Santiago Atitlán	14	Cerro de Oro	5	Mayo	2023-05-28T00:00:00	2024-11-08T13:00:00	3	Temperatura mínima	21.2
151540	7	Sololá	719	Santiago Atitlán	14	Cerro de Oro	5	Mayo	2023-05-28T00:00:00	2024-11-08T13:00:00	5	Humedad	80
151541	7	Sololá	719	Santiago Atitlán	14	Cerro de Oro	5	Mayo	2023-05-28T00:00:00	2024-11-08T13:00:00	6	Velocidad del viento	9.7
151542	7	Sololá	719	Santiago Atitlán	14	Cerro de Oro	5	Mayo	2023-05-28T00:00:00	2024-11-08T13:00:00	7	Dirección del viento	9.66
151543	7	Sololá	719	Santiago Atitlán	14	Cerro de Oro	5	Mayo	2023-05-28T00:00:00	2024-11-08T13:00:00	1	Precipitación	0
151544	7	Sololá	719	Santiago Atitlán	14	Cerro de Oro	5	Mayo	2023-05-28T00:00:00	2024-11-08T13:00:00	8	Radiación solar	311
151545	7	Sololá	719	Santiago Atitlán	14	Cerro de Oro	5	Mayo	2023-05-28T00:00:00	2024-11-08T14:00:00	2	Temperatura media	21.4
151546	7	Sololá	719	Santiago Atitlán	14	Cerro de Oro	5	Mayo	2023-05-28T00:00:00	2024-11-08T14:00:00	4	Temperatura máxima	21.7
151547	7	Sololá	719	Santiago Atitlán	14	Cerro de Oro	5	Mayo	2023-05-28T00:00:00	2024-11-08T14:00:00	3	Temperatura mínima	20.7
151548	7	Sololá	719	Santiago Atitlán	14	Cerro de Oro	5	Mayo	2023-05-28T00:00:00	2024-11-08T14:00:00	5	Humedad	80
151549	7	Sololá	719	Santiago Atitlán	14	Cerro de Oro	5	Mayo	2023-05-28T00:00:00	2024-11-08T14:00:00	6	Velocidad del viento	11.3
151550	7	Sololá	719	Santiago Atitlán	14	Cerro de Oro	5	Mayo	2023-05-28T00:00:00	2024-11-08T14:00:00	7	Dirección del viento	11.27
151551	7	Sololá	719	Santiago Atitlán	14	Cerro de Oro	5	Mayo	2023-05-28T00:00:00	2024-11-08T14:00:00	1	Precipitación	0
151552	7	Sololá	719	Santiago Atitlán	14	Cerro de Oro	5	Mayo	2023-05-28T00:00:00	2024-11-08T14:00:00	8	Radiación solar	280
151553	7	Sololá	719	Santiago Atitlán	14	Cerro de Oro	5	Mayo	2023-05-28T00:00:00	2024-11-08T15:00:00	2	Temperatura media	20.4
151554	7	Sololá	719	Santiago Atitlán	14	Cerro de Oro	5	Mayo	2023-05-28T00:00:00	2024-11-08T15:00:00	4	Temperatura máxima	21.4
151555	7	Sololá	719	Santiago Atitlán	14	Cerro de Oro	5	Mayo	2023-05-28T00:00:00	2024-11-08T15:00:00	3	Temperatura mínima	20.3
151556	7	Sololá	719	Santiago Atitlán	14	Cerro de Oro	5	Mayo	2023-05-28T00:00:00	2024-11-08T15:00:00	5	Humedad	84
151557	7	Sololá	719	Santiago Atitlán	14	Cerro de Oro	5	Mayo	2023-05-28T00:00:00	2024-11-08T15:00:00	6	Velocidad del viento	9.7
151558	7	Sololá	719	Santiago Atitlán	14	Cerro de Oro	5	Mayo	2023-05-28T00:00:00	2024-11-08T15:00:00	7	Dirección del viento	9.66
151559	7	Sololá	719	Santiago Atitlán	14	Cerro de Oro	5	Mayo	2023-05-28T00:00:00	2024-11-08T15:00:00	1	Precipitación	0
151560	7	Sololá	719	Santiago Atitlán	14	Cerro de Oro	5	Mayo	2023-05-28T00:00:00	2024-11-08T15:00:00	8	Radiación solar	153
151561	7	Sololá	719	Santiago Atitlán	14	Cerro de Oro	5	Mayo	2023-05-28T00:00:00	2024-11-08T16:00:00	2	Temperatura media	20.4
151562	7	Sololá	719	Santiago Atitlán	14	Cerro de Oro	5	Mayo	2023-05-28T00:00:00	2024-11-08T16:00:00	4	Temperatura máxima	21.3
151563	7	Sololá	719	Santiago Atitlán	14	Cerro de Oro	5	Mayo	2023-05-28T00:00:00	2024-11-08T16:00:00	3	Temperatura mínima	20.4
151564	7	Sololá	719	Santiago Atitlán	14	Cerro de Oro	5	Mayo	2023-05-28T00:00:00	2024-11-08T16:00:00	5	Humedad	83
151565	7	Sololá	719	Santiago Atitlán	14	Cerro de Oro	5	Mayo	2023-05-28T00:00:00	2024-11-08T16:00:00	6	Velocidad del viento	9.7
151566	7	Sololá	719	Santiago Atitlán	14	Cerro de Oro	5	Mayo	2023-05-28T00:00:00	2024-11-08T16:00:00	7	Dirección del viento	9.66
151567	7	Sololá	719	Santiago Atitlán	14	Cerro de Oro	5	Mayo	2023-05-28T00:00:00	2024-11-08T16:00:00	1	Precipitación	0
151568	7	Sololá	719	Santiago Atitlán	14	Cerro de Oro	5	Mayo	2023-05-28T00:00:00	2024-11-08T16:00:00	8	Radiación solar	227
151569	7	Sololá	719	Santiago Atitlán	14	Cerro de Oro	5	Mayo	2023-05-28T00:00:00	2024-11-08T17:00:00	2	Temperatura media	19.8
151570	7	Sololá	719	Santiago Atitlán	14	Cerro de Oro	5	Mayo	2023-05-28T00:00:00	2024-11-08T17:00:00	4	Temperatura máxima	20.8
151571	7	Sololá	719	Santiago Atitlán	14	Cerro de Oro	5	Mayo	2023-05-28T00:00:00	2024-11-08T17:00:00	3	Temperatura mínima	19.8
151572	7	Sololá	719	Santiago Atitlán	14	Cerro de Oro	5	Mayo	2023-05-28T00:00:00	2024-11-08T17:00:00	5	Humedad	87
151573	7	Sololá	719	Santiago Atitlán	14	Cerro de Oro	5	Mayo	2023-05-28T00:00:00	2024-11-08T17:00:00	6	Velocidad del viento	8
151574	7	Sololá	719	Santiago Atitlán	14	Cerro de Oro	5	Mayo	2023-05-28T00:00:00	2024-11-08T17:00:00	7	Dirección del viento	8.05
151575	7	Sololá	719	Santiago Atitlán	14	Cerro de Oro	5	Mayo	2023-05-28T00:00:00	2024-11-08T17:00:00	1	Precipitación	0
151576	7	Sololá	719	Santiago Atitlán	14	Cerro de Oro	5	Mayo	2023-05-28T00:00:00	2024-11-08T17:00:00	8	Radiación solar	79
151577	7	Sololá	719	Santiago Atitlán	14	Cerro de Oro	5	Mayo	2023-05-28T00:00:00	2024-11-08T18:00:00	2	Temperatura media	19.5
151578	7	Sololá	719	Santiago Atitlán	14	Cerro de Oro	5	Mayo	2023-05-28T00:00:00	2024-11-08T18:00:00	4	Temperatura máxima	19.8
151579	7	Sololá	719	Santiago Atitlán	14	Cerro de Oro	5	Mayo	2023-05-28T00:00:00	2024-11-08T18:00:00	3	Temperatura mínima	19.5
151580	7	Sololá	719	Santiago Atitlán	14	Cerro de Oro	5	Mayo	2023-05-28T00:00:00	2024-11-08T18:00:00	5	Humedad	86
151581	7	Sololá	719	Santiago Atitlán	14	Cerro de Oro	5	Mayo	2023-05-28T00:00:00	2024-11-08T18:00:00	6	Velocidad del viento	4.8
151582	7	Sololá	719	Santiago Atitlán	14	Cerro de Oro	5	Mayo	2023-05-28T00:00:00	2024-11-08T18:00:00	7	Dirección del viento	4.83
151583	7	Sololá	719	Santiago Atitlán	14	Cerro de Oro	5	Mayo	2023-05-28T00:00:00	2024-11-08T18:00:00	1	Precipitación	0
151584	7	Sololá	719	Santiago Atitlán	14	Cerro de Oro	5	Mayo	2023-05-28T00:00:00	2024-11-08T18:00:00	8	Radiación solar	28
151585	7	Sololá	719	Santiago Atitlán	14	Cerro de Oro	5	Mayo	2023-05-28T00:00:00	2024-11-08T19:00:00	2	Temperatura media	19.2
151586	7	Sololá	719	Santiago Atitlán	14	Cerro de Oro	5	Mayo	2023-05-28T00:00:00	2024-11-08T19:00:00	4	Temperatura máxima	19.6
151587	7	Sololá	719	Santiago Atitlán	14	Cerro de Oro	5	Mayo	2023-05-28T00:00:00	2024-11-08T19:00:00	3	Temperatura mínima	19.2
151588	7	Sololá	719	Santiago Atitlán	14	Cerro de Oro	5	Mayo	2023-05-28T00:00:00	2024-11-08T19:00:00	5	Humedad	87
151589	7	Sololá	719	Santiago Atitlán	14	Cerro de Oro	5	Mayo	2023-05-28T00:00:00	2024-11-08T19:00:00	6	Velocidad del viento	3.2
151590	7	Sololá	719	Santiago Atitlán	14	Cerro de Oro	5	Mayo	2023-05-28T00:00:00	2024-11-08T19:00:00	7	Dirección del viento	3.22
151591	7	Sololá	719	Santiago Atitlán	14	Cerro de Oro	5	Mayo	2023-05-28T00:00:00	2024-11-08T19:00:00	1	Precipitación	0
151592	7	Sololá	719	Santiago Atitlán	14	Cerro de Oro	5	Mayo	2023-05-28T00:00:00	2024-11-08T19:00:00	8	Radiación solar	0
151593	7	Sololá	719	Santiago Atitlán	14	Cerro de Oro	5	Mayo	2023-05-28T00:00:00	2024-11-08T20:00:00	2	Temperatura media	19.5
151594	7	Sololá	719	Santiago Atitlán	14	Cerro de Oro	5	Mayo	2023-05-28T00:00:00	2024-11-08T20:00:00	4	Temperatura máxima	19.5
151595	7	Sololá	719	Santiago Atitlán	14	Cerro de Oro	5	Mayo	2023-05-28T00:00:00	2024-11-08T20:00:00	3	Temperatura mínima	19.1
151596	7	Sololá	719	Santiago Atitlán	14	Cerro de Oro	5	Mayo	2023-05-28T00:00:00	2024-11-08T20:00:00	5	Humedad	86
151597	7	Sololá	719	Santiago Atitlán	14	Cerro de Oro	5	Mayo	2023-05-28T00:00:00	2024-11-08T20:00:00	6	Velocidad del viento	1.6
151598	7	Sololá	719	Santiago Atitlán	14	Cerro de Oro	5	Mayo	2023-05-28T00:00:00	2024-11-08T20:00:00	7	Dirección del viento	1.61
151599	7	Sololá	719	Santiago Atitlán	14	Cerro de Oro	5	Mayo	2023-05-28T00:00:00	2024-11-08T20:00:00	1	Precipitación	0
151600	7	Sololá	719	Santiago Atitlán	14	Cerro de Oro	5	Mayo	2023-05-28T00:00:00	2024-11-08T20:00:00	8	Radiación solar	0
151601	7	Sololá	719	Santiago Atitlán	14	Cerro de Oro	5	Mayo	2023-05-28T00:00:00	2024-11-08T21:00:00	2	Temperatura media	19.1
151602	7	Sololá	719	Santiago Atitlán	14	Cerro de Oro	5	Mayo	2023-05-28T00:00:00	2024-11-08T21:00:00	4	Temperatura máxima	19.5
151603	7	Sololá	719	Santiago Atitlán	14	Cerro de Oro	5	Mayo	2023-05-28T00:00:00	2024-11-08T21:00:00	3	Temperatura mínima	19
151604	7	Sololá	719	Santiago Atitlán	14	Cerro de Oro	5	Mayo	2023-05-28T00:00:00	2024-11-08T21:00:00	5	Humedad	86
151605	7	Sololá	719	Santiago Atitlán	14	Cerro de Oro	5	Mayo	2023-05-28T00:00:00	2024-11-08T21:00:00	6	Velocidad del viento	3.2
151606	7	Sololá	719	Santiago Atitlán	14	Cerro de Oro	5	Mayo	2023-05-28T00:00:00	2024-11-08T21:00:00	7	Dirección del viento	3.22
151607	7	Sololá	719	Santiago Atitlán	14	Cerro de Oro	5	Mayo	2023-05-28T00:00:00	2024-11-08T21:00:00	1	Precipitación	0
151608	7	Sololá	719	Santiago Atitlán	14	Cerro de Oro	5	Mayo	2023-05-28T00:00:00	2024-11-08T21:00:00	8	Radiación solar	0
151609	7	Sololá	719	Santiago Atitlán	14	Cerro de Oro	5	Mayo	2023-05-28T00:00:00	2024-11-08T22:00:00	2	Temperatura media	19.4
151610	7	Sololá	719	Santiago Atitlán	14	Cerro de Oro	5	Mayo	2023-05-28T00:00:00	2024-11-08T22:00:00	4	Temperatura máxima	19.5
151611	7	Sololá	719	Santiago Atitlán	14	Cerro de Oro	5	Mayo	2023-05-28T00:00:00	2024-11-08T22:00:00	3	Temperatura mínima	19.1
151612	7	Sololá	719	Santiago Atitlán	14	Cerro de Oro	5	Mayo	2023-05-28T00:00:00	2024-11-08T22:00:00	5	Humedad	85
151613	7	Sololá	719	Santiago Atitlán	14	Cerro de Oro	5	Mayo	2023-05-28T00:00:00	2024-11-08T22:00:00	6	Velocidad del viento	3.2
151614	7	Sololá	719	Santiago Atitlán	14	Cerro de Oro	5	Mayo	2023-05-28T00:00:00	2024-11-08T22:00:00	7	Dirección del viento	3.22
151615	7	Sololá	719	Santiago Atitlán	14	Cerro de Oro	5	Mayo	2023-05-28T00:00:00	2024-11-08T22:00:00	1	Precipitación	0
151616	7	Sololá	719	Santiago Atitlán	14	Cerro de Oro	5	Mayo	2023-05-28T00:00:00	2024-11-08T22:00:00	8	Radiación solar	0
151617	7	Sololá	719	Santiago Atitlán	14	Cerro de Oro	5	Mayo	2023-05-28T00:00:00	2024-11-08T23:00:00	2	Temperatura media	18.8
151618	7	Sololá	719	Santiago Atitlán	14	Cerro de Oro	5	Mayo	2023-05-28T00:00:00	2024-11-08T23:00:00	4	Temperatura máxima	19.6
151619	7	Sololá	719	Santiago Atitlán	14	Cerro de Oro	5	Mayo	2023-05-28T00:00:00	2024-11-08T23:00:00	3	Temperatura mínima	18.8
151620	7	Sololá	719	Santiago Atitlán	14	Cerro de Oro	5	Mayo	2023-05-28T00:00:00	2024-11-08T23:00:00	5	Humedad	88
151621	7	Sololá	719	Santiago Atitlán	14	Cerro de Oro	5	Mayo	2023-05-28T00:00:00	2024-11-08T23:00:00	6	Velocidad del viento	4.8
151622	7	Sololá	719	Santiago Atitlán	14	Cerro de Oro	5	Mayo	2023-05-28T00:00:00	2024-11-08T23:00:00	7	Dirección del viento	4.83
151623	7	Sololá	719	Santiago Atitlán	14	Cerro de Oro	5	Mayo	2023-05-28T00:00:00	2024-11-08T23:00:00	1	Precipitación	0
151624	7	Sololá	719	Santiago Atitlán	14	Cerro de Oro	5	Mayo	2023-05-28T00:00:00	2024-11-08T23:00:00	8	Radiación solar	0
151625	7	Sololá	719	Santiago Atitlán	14	Cerro de Oro	5	Mayo	2023-05-29T00:00:00	2024-11-08T00:00:00	2	Temperatura media	19.1
151626	7	Sololá	719	Santiago Atitlán	14	Cerro de Oro	5	Mayo	2023-05-29T00:00:00	2024-11-08T00:00:00	4	Temperatura máxima	19.1
151627	7	Sololá	719	Santiago Atitlán	14	Cerro de Oro	5	Mayo	2023-05-29T00:00:00	2024-11-08T00:00:00	3	Temperatura mínima	18.7
151628	7	Sololá	719	Santiago Atitlán	14	Cerro de Oro	5	Mayo	2023-05-29T00:00:00	2024-11-08T00:00:00	5	Humedad	87
151629	7	Sololá	719	Santiago Atitlán	14	Cerro de Oro	5	Mayo	2023-05-29T00:00:00	2024-11-08T00:00:00	6	Velocidad del viento	1.6
151630	7	Sololá	719	Santiago Atitlán	14	Cerro de Oro	5	Mayo	2023-05-29T00:00:00	2024-11-08T00:00:00	7	Dirección del viento	1.61
151631	7	Sololá	719	Santiago Atitlán	14	Cerro de Oro	5	Mayo	2023-05-29T00:00:00	2024-11-08T00:00:00	1	Precipitación	0
151632	7	Sololá	719	Santiago Atitlán	14	Cerro de Oro	5	Mayo	2023-05-29T00:00:00	2024-11-08T00:00:00	8	Radiación solar	0
151633	7	Sololá	719	Santiago Atitlán	14	Cerro de Oro	5	Mayo	2023-05-29T00:00:00	2024-11-08T01:00:00	2	Temperatura media	17.1
151634	7	Sololá	719	Santiago Atitlán	14	Cerro de Oro	5	Mayo	2023-05-29T00:00:00	2024-11-08T01:00:00	4	Temperatura máxima	19.1
151635	7	Sololá	719	Santiago Atitlán	14	Cerro de Oro	5	Mayo	2023-05-29T00:00:00	2024-11-08T01:00:00	3	Temperatura mínima	17.1
151636	7	Sololá	719	Santiago Atitlán	14	Cerro de Oro	5	Mayo	2023-05-29T00:00:00	2024-11-08T01:00:00	5	Humedad	91
151637	7	Sololá	719	Santiago Atitlán	14	Cerro de Oro	5	Mayo	2023-05-29T00:00:00	2024-11-08T01:00:00	6	Velocidad del viento	6.4
151638	7	Sololá	719	Santiago Atitlán	14	Cerro de Oro	5	Mayo	2023-05-29T00:00:00	2024-11-08T01:00:00	7	Dirección del viento	6.44
151639	7	Sololá	719	Santiago Atitlán	14	Cerro de Oro	5	Mayo	2023-05-29T00:00:00	2024-11-08T01:00:00	1	Precipitación	4.2
151640	7	Sololá	719	Santiago Atitlán	14	Cerro de Oro	5	Mayo	2023-05-29T00:00:00	2024-11-08T01:00:00	8	Radiación solar	0
151641	7	Sololá	719	Santiago Atitlán	14	Cerro de Oro	5	Mayo	2023-05-29T00:00:00	2024-11-08T02:00:00	2	Temperatura media	16.2
151642	7	Sololá	719	Santiago Atitlán	14	Cerro de Oro	5	Mayo	2023-05-29T00:00:00	2024-11-08T02:00:00	4	Temperatura máxima	17.1
151643	7	Sololá	719	Santiago Atitlán	14	Cerro de Oro	5	Mayo	2023-05-29T00:00:00	2024-11-08T02:00:00	3	Temperatura mínima	16.2
151644	7	Sololá	719	Santiago Atitlán	14	Cerro de Oro	5	Mayo	2023-05-29T00:00:00	2024-11-08T02:00:00	5	Humedad	92
151645	7	Sololá	719	Santiago Atitlán	14	Cerro de Oro	5	Mayo	2023-05-29T00:00:00	2024-11-08T02:00:00	6	Velocidad del viento	4.8
151646	7	Sololá	719	Santiago Atitlán	14	Cerro de Oro	5	Mayo	2023-05-29T00:00:00	2024-11-08T02:00:00	7	Dirección del viento	4.83
151647	7	Sololá	719	Santiago Atitlán	14	Cerro de Oro	5	Mayo	2023-05-29T00:00:00	2024-11-08T02:00:00	1	Precipitación	23.6
151648	7	Sololá	719	Santiago Atitlán	14	Cerro de Oro	5	Mayo	2023-05-29T00:00:00	2024-11-08T02:00:00	8	Radiación solar	0
151649	7	Sololá	719	Santiago Atitlán	14	Cerro de Oro	5	Mayo	2023-05-29T00:00:00	2024-11-08T03:00:00	2	Temperatura media	16.2
151650	7	Sololá	719	Santiago Atitlán	14	Cerro de Oro	5	Mayo	2023-05-29T00:00:00	2024-11-08T03:00:00	4	Temperatura máxima	16.3
151651	7	Sololá	719	Santiago Atitlán	14	Cerro de Oro	5	Mayo	2023-05-29T00:00:00	2024-11-08T03:00:00	3	Temperatura mínima	16.1
151652	7	Sololá	719	Santiago Atitlán	14	Cerro de Oro	5	Mayo	2023-05-29T00:00:00	2024-11-08T03:00:00	5	Humedad	94
151653	7	Sololá	719	Santiago Atitlán	14	Cerro de Oro	5	Mayo	2023-05-29T00:00:00	2024-11-08T03:00:00	6	Velocidad del viento	1.6
151654	7	Sololá	719	Santiago Atitlán	14	Cerro de Oro	5	Mayo	2023-05-29T00:00:00	2024-11-08T03:00:00	7	Dirección del viento	1.61
151655	7	Sololá	719	Santiago Atitlán	14	Cerro de Oro	5	Mayo	2023-05-29T00:00:00	2024-11-08T03:00:00	1	Precipitación	7.8
151656	7	Sololá	719	Santiago Atitlán	14	Cerro de Oro	5	Mayo	2023-05-29T00:00:00	2024-11-08T03:00:00	8	Radiación solar	0
151657	7	Sololá	719	Santiago Atitlán	14	Cerro de Oro	5	Mayo	2023-05-29T00:00:00	2024-11-08T04:00:00	2	Temperatura media	16.1
151658	7	Sololá	719	Santiago Atitlán	14	Cerro de Oro	5	Mayo	2023-05-29T00:00:00	2024-11-08T04:00:00	4	Temperatura máxima	16.2
151659	7	Sololá	719	Santiago Atitlán	14	Cerro de Oro	5	Mayo	2023-05-29T00:00:00	2024-11-08T04:00:00	3	Temperatura mínima	15.9
151660	7	Sololá	719	Santiago Atitlán	14	Cerro de Oro	5	Mayo	2023-05-29T00:00:00	2024-11-08T04:00:00	5	Humedad	94
151661	7	Sololá	719	Santiago Atitlán	14	Cerro de Oro	5	Mayo	2023-05-29T00:00:00	2024-11-08T04:00:00	6	Velocidad del viento	3.2
151662	7	Sololá	719	Santiago Atitlán	14	Cerro de Oro	5	Mayo	2023-05-29T00:00:00	2024-11-08T04:00:00	7	Dirección del viento	3.22
151663	7	Sololá	719	Santiago Atitlán	14	Cerro de Oro	5	Mayo	2023-05-29T00:00:00	2024-11-08T04:00:00	1	Precipitación	7.8
151664	7	Sololá	719	Santiago Atitlán	14	Cerro de Oro	5	Mayo	2023-05-29T00:00:00	2024-11-08T04:00:00	8	Radiación solar	0
151665	7	Sololá	719	Santiago Atitlán	14	Cerro de Oro	5	Mayo	2023-05-29T00:00:00	2024-11-08T05:00:00	2	Temperatura media	16.6
151666	7	Sololá	719	Santiago Atitlán	14	Cerro de Oro	5	Mayo	2023-05-29T00:00:00	2024-11-08T05:00:00	4	Temperatura máxima	16.6
151667	7	Sololá	719	Santiago Atitlán	14	Cerro de Oro	5	Mayo	2023-05-29T00:00:00	2024-11-08T05:00:00	3	Temperatura mínima	16.1
151668	7	Sololá	719	Santiago Atitlán	14	Cerro de Oro	5	Mayo	2023-05-29T00:00:00	2024-11-08T05:00:00	5	Humedad	94
151669	7	Sololá	719	Santiago Atitlán	14	Cerro de Oro	5	Mayo	2023-05-29T00:00:00	2024-11-08T05:00:00	6	Velocidad del viento	1.6
151670	7	Sololá	719	Santiago Atitlán	14	Cerro de Oro	5	Mayo	2023-05-29T00:00:00	2024-11-08T05:00:00	7	Dirección del viento	1.61
151671	7	Sololá	719	Santiago Atitlán	14	Cerro de Oro	5	Mayo	2023-05-29T00:00:00	2024-11-08T05:00:00	1	Precipitación	4
151672	7	Sololá	719	Santiago Atitlán	14	Cerro de Oro	5	Mayo	2023-05-29T00:00:00	2024-11-08T05:00:00	8	Radiación solar	0
151673	7	Sololá	719	Santiago Atitlán	14	Cerro de Oro	5	Mayo	2023-05-29T00:00:00	2024-11-08T06:00:00	2	Temperatura media	16.6
151674	7	Sololá	719	Santiago Atitlán	14	Cerro de Oro	5	Mayo	2023-05-29T00:00:00	2024-11-08T06:00:00	4	Temperatura máxima	16.7
151675	7	Sololá	719	Santiago Atitlán	14	Cerro de Oro	5	Mayo	2023-05-29T00:00:00	2024-11-08T06:00:00	3	Temperatura mínima	16.4
151676	7	Sololá	719	Santiago Atitlán	14	Cerro de Oro	5	Mayo	2023-05-29T00:00:00	2024-11-08T06:00:00	5	Humedad	94
151677	7	Sololá	719	Santiago Atitlán	14	Cerro de Oro	5	Mayo	2023-05-29T00:00:00	2024-11-08T06:00:00	6	Velocidad del viento	3.2
151678	7	Sololá	719	Santiago Atitlán	14	Cerro de Oro	5	Mayo	2023-05-29T00:00:00	2024-11-08T06:00:00	7	Dirección del viento	3.22
151679	7	Sololá	719	Santiago Atitlán	14	Cerro de Oro	5	Mayo	2023-05-29T00:00:00	2024-11-08T06:00:00	1	Precipitación	0.4
151680	7	Sololá	719	Santiago Atitlán	14	Cerro de Oro	5	Mayo	2023-05-29T00:00:00	2024-11-08T06:00:00	8	Radiación solar	1
151681	7	Sololá	719	Santiago Atitlán	14	Cerro de Oro	5	Mayo	2023-05-29T00:00:00	2024-11-08T07:00:00	2	Temperatura media	17.2
151682	7	Sololá	719	Santiago Atitlán	14	Cerro de Oro	5	Mayo	2023-05-29T00:00:00	2024-11-08T07:00:00	4	Temperatura máxima	17.2
151683	7	Sololá	719	Santiago Atitlán	14	Cerro de Oro	5	Mayo	2023-05-29T00:00:00	2024-11-08T07:00:00	3	Temperatura mínima	16.6
151684	7	Sololá	719	Santiago Atitlán	14	Cerro de Oro	5	Mayo	2023-05-29T00:00:00	2024-11-08T07:00:00	5	Humedad	93
151685	7	Sololá	719	Santiago Atitlán	14	Cerro de Oro	5	Mayo	2023-05-29T00:00:00	2024-11-08T07:00:00	6	Velocidad del viento	3.2
151686	7	Sololá	719	Santiago Atitlán	14	Cerro de Oro	5	Mayo	2023-05-29T00:00:00	2024-11-08T07:00:00	7	Dirección del viento	3.22
151687	7	Sololá	719	Santiago Atitlán	14	Cerro de Oro	5	Mayo	2023-05-29T00:00:00	2024-11-08T07:00:00	1	Precipitación	0
151688	7	Sololá	719	Santiago Atitlán	14	Cerro de Oro	5	Mayo	2023-05-29T00:00:00	2024-11-08T07:00:00	8	Radiación solar	17
151689	7	Sololá	719	Santiago Atitlán	14	Cerro de Oro	5	Mayo	2023-05-29T00:00:00	2024-11-08T08:00:00	2	Temperatura media	17.9
151690	7	Sololá	719	Santiago Atitlán	14	Cerro de Oro	5	Mayo	2023-05-29T00:00:00	2024-11-08T08:00:00	4	Temperatura máxima	17.9
151691	7	Sololá	719	Santiago Atitlán	14	Cerro de Oro	5	Mayo	2023-05-29T00:00:00	2024-11-08T08:00:00	3	Temperatura mínima	17.2
151692	7	Sololá	719	Santiago Atitlán	14	Cerro de Oro	5	Mayo	2023-05-29T00:00:00	2024-11-08T08:00:00	5	Humedad	92
151693	7	Sololá	719	Santiago Atitlán	14	Cerro de Oro	5	Mayo	2023-05-29T00:00:00	2024-11-08T08:00:00	6	Velocidad del viento	1.6
151694	7	Sololá	719	Santiago Atitlán	14	Cerro de Oro	5	Mayo	2023-05-29T00:00:00	2024-11-08T08:00:00	7	Dirección del viento	1.61
151695	7	Sololá	719	Santiago Atitlán	14	Cerro de Oro	5	Mayo	2023-05-29T00:00:00	2024-11-08T08:00:00	1	Precipitación	0
151696	7	Sololá	719	Santiago Atitlán	14	Cerro de Oro	5	Mayo	2023-05-29T00:00:00	2024-11-08T08:00:00	8	Radiación solar	65
151697	7	Sololá	719	Santiago Atitlán	14	Cerro de Oro	5	Mayo	2023-05-29T00:00:00	2024-11-08T09:00:00	2	Temperatura media	17.7
151698	7	Sololá	719	Santiago Atitlán	14	Cerro de Oro	5	Mayo	2023-05-29T00:00:00	2024-11-08T09:00:00	4	Temperatura máxima	18
151699	7	Sololá	719	Santiago Atitlán	14	Cerro de Oro	5	Mayo	2023-05-29T00:00:00	2024-11-08T09:00:00	3	Temperatura mínima	17.7
151700	7	Sololá	719	Santiago Atitlán	14	Cerro de Oro	5	Mayo	2023-05-29T00:00:00	2024-11-08T09:00:00	5	Humedad	92
151701	7	Sololá	719	Santiago Atitlán	14	Cerro de Oro	5	Mayo	2023-05-29T00:00:00	2024-11-08T09:00:00	6	Velocidad del viento	1.6
151702	7	Sololá	719	Santiago Atitlán	14	Cerro de Oro	5	Mayo	2023-05-29T00:00:00	2024-11-08T09:00:00	7	Dirección del viento	1.61
151703	7	Sololá	719	Santiago Atitlán	14	Cerro de Oro	5	Mayo	2023-05-29T00:00:00	2024-11-08T09:00:00	1	Precipitación	0
151704	7	Sololá	719	Santiago Atitlán	14	Cerro de Oro	5	Mayo	2023-05-29T00:00:00	2024-11-08T09:00:00	8	Radiación solar	57
151705	7	Sololá	719	Santiago Atitlán	14	Cerro de Oro	5	Mayo	2023-05-29T00:00:00	2024-11-08T10:00:00	2	Temperatura media	20.1
151706	7	Sololá	719	Santiago Atitlán	14	Cerro de Oro	5	Mayo	2023-05-29T00:00:00	2024-11-08T10:00:00	4	Temperatura máxima	20.1
151707	7	Sololá	719	Santiago Atitlán	14	Cerro de Oro	5	Mayo	2023-05-29T00:00:00	2024-11-08T10:00:00	3	Temperatura mínima	17.6
151708	7	Sololá	719	Santiago Atitlán	14	Cerro de Oro	5	Mayo	2023-05-29T00:00:00	2024-11-08T10:00:00	5	Humedad	85
151709	7	Sololá	719	Santiago Atitlán	14	Cerro de Oro	5	Mayo	2023-05-29T00:00:00	2024-11-08T10:00:00	6	Velocidad del viento	1.6
151710	7	Sololá	719	Santiago Atitlán	14	Cerro de Oro	5	Mayo	2023-05-29T00:00:00	2024-11-08T10:00:00	7	Dirección del viento	1.61
151711	7	Sololá	719	Santiago Atitlán	14	Cerro de Oro	5	Mayo	2023-05-29T00:00:00	2024-11-08T10:00:00	1	Precipitación	0
151712	7	Sololá	719	Santiago Atitlán	14	Cerro de Oro	5	Mayo	2023-05-29T00:00:00	2024-11-08T10:00:00	8	Radiación solar	367
151713	7	Sololá	719	Santiago Atitlán	14	Cerro de Oro	5	Mayo	2023-05-29T00:00:00	2024-11-08T11:00:00	2	Temperatura media	21.7
151714	7	Sololá	719	Santiago Atitlán	14	Cerro de Oro	5	Mayo	2023-05-29T00:00:00	2024-11-08T11:00:00	4	Temperatura máxima	21.8
151715	7	Sololá	719	Santiago Atitlán	14	Cerro de Oro	5	Mayo	2023-05-29T00:00:00	2024-11-08T11:00:00	3	Temperatura mínima	20.1
151716	7	Sololá	719	Santiago Atitlán	14	Cerro de Oro	5	Mayo	2023-05-29T00:00:00	2024-11-08T11:00:00	5	Humedad	77
151717	7	Sololá	719	Santiago Atitlán	14	Cerro de Oro	5	Mayo	2023-05-29T00:00:00	2024-11-08T11:00:00	6	Velocidad del viento	3.2
151718	7	Sololá	719	Santiago Atitlán	14	Cerro de Oro	5	Mayo	2023-05-29T00:00:00	2024-11-08T11:00:00	7	Dirección del viento	3.22
151719	7	Sololá	719	Santiago Atitlán	14	Cerro de Oro	5	Mayo	2023-05-29T00:00:00	2024-11-08T11:00:00	1	Precipitación	0
151720	7	Sololá	719	Santiago Atitlán	14	Cerro de Oro	5	Mayo	2023-05-29T00:00:00	2024-11-08T11:00:00	8	Radiación solar	618
151721	7	Sololá	719	Santiago Atitlán	14	Cerro de Oro	5	Mayo	2023-05-29T00:00:00	2024-11-08T12:00:00	2	Temperatura media	21.7
151722	7	Sololá	719	Santiago Atitlán	14	Cerro de Oro	5	Mayo	2023-05-29T00:00:00	2024-11-08T12:00:00	4	Temperatura máxima	21.8
151723	7	Sololá	719	Santiago Atitlán	14	Cerro de Oro	5	Mayo	2023-05-29T00:00:00	2024-11-08T12:00:00	3	Temperatura mínima	21.2
151724	7	Sololá	719	Santiago Atitlán	14	Cerro de Oro	5	Mayo	2023-05-29T00:00:00	2024-11-08T12:00:00	5	Humedad	80
151725	7	Sololá	719	Santiago Atitlán	14	Cerro de Oro	5	Mayo	2023-05-29T00:00:00	2024-11-08T12:00:00	6	Velocidad del viento	6.4
151726	7	Sololá	719	Santiago Atitlán	14	Cerro de Oro	5	Mayo	2023-05-29T00:00:00	2024-11-08T12:00:00	7	Dirección del viento	6.44
151727	7	Sololá	719	Santiago Atitlán	14	Cerro de Oro	5	Mayo	2023-05-29T00:00:00	2024-11-08T12:00:00	1	Precipitación	0
151728	7	Sololá	719	Santiago Atitlán	14	Cerro de Oro	5	Mayo	2023-05-29T00:00:00	2024-11-08T12:00:00	8	Radiación solar	839
151729	7	Sololá	719	Santiago Atitlán	14	Cerro de Oro	5	Mayo	2023-05-29T00:00:00	2024-11-08T13:00:00	2	Temperatura media	23.6
151730	7	Sololá	719	Santiago Atitlán	14	Cerro de Oro	5	Mayo	2023-05-29T00:00:00	2024-11-08T13:00:00	4	Temperatura máxima	23.7
151731	7	Sololá	719	Santiago Atitlán	14	Cerro de Oro	5	Mayo	2023-05-29T00:00:00	2024-11-08T13:00:00	3	Temperatura mínima	21.8
151732	7	Sololá	719	Santiago Atitlán	14	Cerro de Oro	5	Mayo	2023-05-29T00:00:00	2024-11-08T13:00:00	5	Humedad	77
151733	7	Sololá	719	Santiago Atitlán	14	Cerro de Oro	5	Mayo	2023-05-29T00:00:00	2024-11-08T13:00:00	6	Velocidad del viento	6.4
151734	7	Sololá	719	Santiago Atitlán	14	Cerro de Oro	5	Mayo	2023-05-29T00:00:00	2024-11-08T13:00:00	7	Dirección del viento	6.44
151735	7	Sololá	719	Santiago Atitlán	14	Cerro de Oro	5	Mayo	2023-05-29T00:00:00	2024-11-08T13:00:00	1	Precipitación	0
151736	7	Sololá	719	Santiago Atitlán	14	Cerro de Oro	5	Mayo	2023-05-29T00:00:00	2024-11-08T13:00:00	8	Radiación solar	762
151737	7	Sololá	719	Santiago Atitlán	14	Cerro de Oro	5	Mayo	2023-05-29T00:00:00	2024-11-08T14:00:00	2	Temperatura media	23.8
151738	7	Sololá	719	Santiago Atitlán	14	Cerro de Oro	5	Mayo	2023-05-29T00:00:00	2024-11-08T14:00:00	4	Temperatura máxima	24.7
151739	7	Sololá	719	Santiago Atitlán	14	Cerro de Oro	5	Mayo	2023-05-29T00:00:00	2024-11-08T14:00:00	3	Temperatura mínima	23.6
151740	7	Sololá	719	Santiago Atitlán	14	Cerro de Oro	5	Mayo	2023-05-29T00:00:00	2024-11-08T14:00:00	5	Humedad	76
151741	7	Sololá	719	Santiago Atitlán	14	Cerro de Oro	5	Mayo	2023-05-29T00:00:00	2024-11-08T14:00:00	6	Velocidad del viento	4.8
151742	7	Sololá	719	Santiago Atitlán	14	Cerro de Oro	5	Mayo	2023-05-29T00:00:00	2024-11-08T14:00:00	7	Dirección del viento	4.83
151743	7	Sololá	719	Santiago Atitlán	14	Cerro de Oro	5	Mayo	2023-05-29T00:00:00	2024-11-08T14:00:00	1	Precipitación	0
151744	7	Sololá	719	Santiago Atitlán	14	Cerro de Oro	5	Mayo	2023-05-29T00:00:00	2024-11-08T14:00:00	8	Radiación solar	554
151745	7	Sololá	719	Santiago Atitlán	14	Cerro de Oro	5	Mayo	2023-05-29T00:00:00	2024-11-08T15:00:00	2	Temperatura media	23.1
151746	7	Sololá	719	Santiago Atitlán	14	Cerro de Oro	5	Mayo	2023-05-29T00:00:00	2024-11-08T15:00:00	4	Temperatura máxima	23.8
151747	7	Sololá	719	Santiago Atitlán	14	Cerro de Oro	5	Mayo	2023-05-29T00:00:00	2024-11-08T15:00:00	3	Temperatura mínima	22.8
151748	7	Sololá	719	Santiago Atitlán	14	Cerro de Oro	5	Mayo	2023-05-29T00:00:00	2024-11-08T15:00:00	5	Humedad	78
151749	7	Sololá	719	Santiago Atitlán	14	Cerro de Oro	5	Mayo	2023-05-29T00:00:00	2024-11-08T15:00:00	6	Velocidad del viento	9.7
151750	7	Sololá	719	Santiago Atitlán	14	Cerro de Oro	5	Mayo	2023-05-29T00:00:00	2024-11-08T15:00:00	7	Dirección del viento	9.66
151751	7	Sololá	719	Santiago Atitlán	14	Cerro de Oro	5	Mayo	2023-05-29T00:00:00	2024-11-08T15:00:00	1	Precipitación	0
151752	7	Sololá	719	Santiago Atitlán	14	Cerro de Oro	5	Mayo	2023-05-29T00:00:00	2024-11-08T15:00:00	8	Radiación solar	446
151753	7	Sololá	719	Santiago Atitlán	14	Cerro de Oro	5	Mayo	2023-05-29T00:00:00	2024-11-08T16:00:00	2	Temperatura media	21.9
151754	7	Sololá	719	Santiago Atitlán	14	Cerro de Oro	5	Mayo	2023-05-29T00:00:00	2024-11-08T16:00:00	4	Temperatura máxima	23.1
151755	7	Sololá	719	Santiago Atitlán	14	Cerro de Oro	5	Mayo	2023-05-29T00:00:00	2024-11-08T16:00:00	3	Temperatura mínima	21.8
151756	7	Sololá	719	Santiago Atitlán	14	Cerro de Oro	5	Mayo	2023-05-29T00:00:00	2024-11-08T16:00:00	5	Humedad	78
151757	7	Sololá	719	Santiago Atitlán	14	Cerro de Oro	5	Mayo	2023-05-29T00:00:00	2024-11-08T16:00:00	6	Velocidad del viento	9.7
151758	7	Sololá	719	Santiago Atitlán	14	Cerro de Oro	5	Mayo	2023-05-29T00:00:00	2024-11-08T16:00:00	7	Dirección del viento	9.66
151759	7	Sololá	719	Santiago Atitlán	14	Cerro de Oro	5	Mayo	2023-05-29T00:00:00	2024-11-08T16:00:00	1	Precipitación	0
151760	7	Sololá	719	Santiago Atitlán	14	Cerro de Oro	5	Mayo	2023-05-29T00:00:00	2024-11-08T16:00:00	8	Radiación solar	214
151761	7	Sololá	719	Santiago Atitlán	14	Cerro de Oro	5	Mayo	2023-05-29T00:00:00	2024-11-08T17:00:00	2	Temperatura media	20.2
151762	7	Sololá	719	Santiago Atitlán	14	Cerro de Oro	5	Mayo	2023-05-29T00:00:00	2024-11-08T17:00:00	4	Temperatura máxima	21.9
151763	7	Sololá	719	Santiago Atitlán	14	Cerro de Oro	5	Mayo	2023-05-29T00:00:00	2024-11-08T17:00:00	3	Temperatura mínima	20.2
151764	7	Sololá	719	Santiago Atitlán	14	Cerro de Oro	5	Mayo	2023-05-29T00:00:00	2024-11-08T17:00:00	5	Humedad	88
151765	7	Sololá	719	Santiago Atitlán	14	Cerro de Oro	5	Mayo	2023-05-29T00:00:00	2024-11-08T17:00:00	6	Velocidad del viento	3.2
151766	7	Sololá	719	Santiago Atitlán	14	Cerro de Oro	5	Mayo	2023-05-29T00:00:00	2024-11-08T17:00:00	7	Dirección del viento	3.22
151767	7	Sololá	719	Santiago Atitlán	14	Cerro de Oro	5	Mayo	2023-05-29T00:00:00	2024-11-08T17:00:00	1	Precipitación	0.6
151768	7	Sololá	719	Santiago Atitlán	14	Cerro de Oro	5	Mayo	2023-05-29T00:00:00	2024-11-08T17:00:00	8	Radiación solar	47
151769	7	Sololá	719	Santiago Atitlán	14	Cerro de Oro	5	Mayo	2023-05-29T00:00:00	2024-11-08T18:00:00	2	Temperatura media	18.9
151770	7	Sololá	719	Santiago Atitlán	14	Cerro de Oro	5	Mayo	2023-05-29T00:00:00	2024-11-08T18:00:00	4	Temperatura máxima	20.3
151771	7	Sololá	719	Santiago Atitlán	14	Cerro de Oro	5	Mayo	2023-05-29T00:00:00	2024-11-08T18:00:00	3	Temperatura mínima	18.5
151772	7	Sololá	719	Santiago Atitlán	14	Cerro de Oro	5	Mayo	2023-05-29T00:00:00	2024-11-08T18:00:00	5	Humedad	80
151773	7	Sololá	719	Santiago Atitlán	14	Cerro de Oro	5	Mayo	2023-05-29T00:00:00	2024-11-08T18:00:00	6	Velocidad del viento	9.7
151774	7	Sololá	719	Santiago Atitlán	14	Cerro de Oro	5	Mayo	2023-05-29T00:00:00	2024-11-08T18:00:00	7	Dirección del viento	9.66
151775	7	Sololá	719	Santiago Atitlán	14	Cerro de Oro	5	Mayo	2023-05-29T00:00:00	2024-11-08T18:00:00	1	Precipitación	0.2
151776	7	Sololá	719	Santiago Atitlán	14	Cerro de Oro	5	Mayo	2023-05-29T00:00:00	2024-11-08T18:00:00	8	Radiación solar	34
151777	7	Sololá	719	Santiago Atitlán	14	Cerro de Oro	5	Mayo	2023-05-29T00:00:00	2024-11-08T19:00:00	2	Temperatura media	19.3
151778	7	Sololá	719	Santiago Atitlán	14	Cerro de Oro	5	Mayo	2023-05-29T00:00:00	2024-11-08T19:00:00	4	Temperatura máxima	19.6
151779	7	Sololá	719	Santiago Atitlán	14	Cerro de Oro	5	Mayo	2023-05-29T00:00:00	2024-11-08T19:00:00	3	Temperatura mínima	18.9
151780	7	Sololá	719	Santiago Atitlán	14	Cerro de Oro	5	Mayo	2023-05-29T00:00:00	2024-11-08T19:00:00	5	Humedad	82
151781	7	Sololá	719	Santiago Atitlán	14	Cerro de Oro	5	Mayo	2023-05-29T00:00:00	2024-11-08T19:00:00	6	Velocidad del viento	4.8
151782	7	Sololá	719	Santiago Atitlán	14	Cerro de Oro	5	Mayo	2023-05-29T00:00:00	2024-11-08T19:00:00	7	Dirección del viento	4.83
151783	7	Sololá	719	Santiago Atitlán	14	Cerro de Oro	5	Mayo	2023-05-29T00:00:00	2024-11-08T19:00:00	1	Precipitación	0
151784	7	Sololá	719	Santiago Atitlán	14	Cerro de Oro	5	Mayo	2023-05-29T00:00:00	2024-11-08T19:00:00	8	Radiación solar	0
151785	7	Sololá	719	Santiago Atitlán	14	Cerro de Oro	5	Mayo	2023-05-29T00:00:00	2024-11-08T20:00:00	2	Temperatura media	18.7
151786	7	Sololá	719	Santiago Atitlán	14	Cerro de Oro	5	Mayo	2023-05-29T00:00:00	2024-11-08T20:00:00	4	Temperatura máxima	19.3
151787	7	Sololá	719	Santiago Atitlán	14	Cerro de Oro	5	Mayo	2023-05-29T00:00:00	2024-11-08T20:00:00	3	Temperatura mínima	18.3
151788	7	Sololá	719	Santiago Atitlán	14	Cerro de Oro	5	Mayo	2023-05-29T00:00:00	2024-11-08T20:00:00	5	Humedad	85
151789	7	Sololá	719	Santiago Atitlán	14	Cerro de Oro	5	Mayo	2023-05-29T00:00:00	2024-11-08T20:00:00	6	Velocidad del viento	3.2
151790	7	Sololá	719	Santiago Atitlán	14	Cerro de Oro	5	Mayo	2023-05-29T00:00:00	2024-11-08T20:00:00	7	Dirección del viento	3.22
151791	7	Sololá	719	Santiago Atitlán	14	Cerro de Oro	5	Mayo	2023-05-29T00:00:00	2024-11-08T20:00:00	1	Precipitación	0
151792	7	Sololá	719	Santiago Atitlán	14	Cerro de Oro	5	Mayo	2023-05-29T00:00:00	2024-11-08T20:00:00	8	Radiación solar	0
151793	7	Sololá	719	Santiago Atitlán	14	Cerro de Oro	5	Mayo	2023-05-29T00:00:00	2024-11-08T21:00:00	2	Temperatura media	18.4
151794	7	Sololá	719	Santiago Atitlán	14	Cerro de Oro	5	Mayo	2023-05-29T00:00:00	2024-11-08T21:00:00	4	Temperatura máxima	18.8
151795	7	Sololá	719	Santiago Atitlán	14	Cerro de Oro	5	Mayo	2023-05-29T00:00:00	2024-11-08T21:00:00	3	Temperatura mínima	18.1
151796	7	Sololá	719	Santiago Atitlán	14	Cerro de Oro	5	Mayo	2023-05-29T00:00:00	2024-11-08T21:00:00	5	Humedad	85
151797	7	Sololá	719	Santiago Atitlán	14	Cerro de Oro	5	Mayo	2023-05-29T00:00:00	2024-11-08T21:00:00	6	Velocidad del viento	4.8
151798	7	Sololá	719	Santiago Atitlán	14	Cerro de Oro	5	Mayo	2023-05-29T00:00:00	2024-11-08T21:00:00	7	Dirección del viento	4.83
151799	7	Sololá	719	Santiago Atitlán	14	Cerro de Oro	5	Mayo	2023-05-29T00:00:00	2024-11-08T21:00:00	1	Precipitación	0
151800	7	Sololá	719	Santiago Atitlán	14	Cerro de Oro	5	Mayo	2023-05-29T00:00:00	2024-11-08T21:00:00	8	Radiación solar	0
151801	7	Sololá	719	Santiago Atitlán	14	Cerro de Oro	5	Mayo	2023-05-29T00:00:00	2024-11-08T22:00:00	2	Temperatura media	18.3
151802	7	Sololá	719	Santiago Atitlán	14	Cerro de Oro	5	Mayo	2023-05-29T00:00:00	2024-11-08T22:00:00	4	Temperatura máxima	18.6
151803	7	Sololá	719	Santiago Atitlán	14	Cerro de Oro	5	Mayo	2023-05-29T00:00:00	2024-11-08T22:00:00	3	Temperatura mínima	18.3
151804	7	Sololá	719	Santiago Atitlán	14	Cerro de Oro	5	Mayo	2023-05-29T00:00:00	2024-11-08T22:00:00	5	Humedad	88
151805	7	Sololá	719	Santiago Atitlán	14	Cerro de Oro	5	Mayo	2023-05-29T00:00:00	2024-11-08T22:00:00	6	Velocidad del viento	3.2
151806	7	Sololá	719	Santiago Atitlán	14	Cerro de Oro	5	Mayo	2023-05-29T00:00:00	2024-11-08T22:00:00	7	Dirección del viento	3.22
151807	7	Sololá	719	Santiago Atitlán	14	Cerro de Oro	5	Mayo	2023-05-29T00:00:00	2024-11-08T22:00:00	1	Precipitación	0
151808	7	Sololá	719	Santiago Atitlán	14	Cerro de Oro	5	Mayo	2023-05-29T00:00:00	2024-11-08T22:00:00	8	Radiación solar	0
151809	7	Sololá	719	Santiago Atitlán	14	Cerro de Oro	5	Mayo	2023-05-29T00:00:00	2024-11-08T23:00:00	2	Temperatura media	18.5
151810	7	Sololá	719	Santiago Atitlán	14	Cerro de Oro	5	Mayo	2023-05-29T00:00:00	2024-11-08T23:00:00	4	Temperatura máxima	18.6
151811	7	Sololá	719	Santiago Atitlán	14	Cerro de Oro	5	Mayo	2023-05-29T00:00:00	2024-11-08T23:00:00	3	Temperatura mínima	18.1
151812	7	Sololá	719	Santiago Atitlán	14	Cerro de Oro	5	Mayo	2023-05-29T00:00:00	2024-11-08T23:00:00	5	Humedad	86
151813	7	Sololá	719	Santiago Atitlán	14	Cerro de Oro	5	Mayo	2023-05-29T00:00:00	2024-11-08T23:00:00	6	Velocidad del viento	4.8
151814	7	Sololá	719	Santiago Atitlán	14	Cerro de Oro	5	Mayo	2023-05-29T00:00:00	2024-11-08T23:00:00	7	Dirección del viento	4.83
151815	7	Sololá	719	Santiago Atitlán	14	Cerro de Oro	5	Mayo	2023-05-29T00:00:00	2024-11-08T23:00:00	1	Precipitación	0
151816	7	Sololá	719	Santiago Atitlán	14	Cerro de Oro	5	Mayo	2023-05-29T00:00:00	2024-11-08T23:00:00	8	Radiación solar	0
151817	7	Sololá	719	Santiago Atitlán	14	Cerro de Oro	5	Mayo	2023-05-30T00:00:00	2024-11-08T00:00:00	2	Temperatura media	18.6
151818	7	Sololá	719	Santiago Atitlán	14	Cerro de Oro	5	Mayo	2023-05-30T00:00:00	2024-11-08T00:00:00	4	Temperatura máxima	18.6
151819	7	Sololá	719	Santiago Atitlán	14	Cerro de Oro	5	Mayo	2023-05-30T00:00:00	2024-11-08T00:00:00	3	Temperatura mínima	18.2
151820	7	Sololá	719	Santiago Atitlán	14	Cerro de Oro	5	Mayo	2023-05-30T00:00:00	2024-11-08T00:00:00	5	Humedad	86
151821	7	Sololá	719	Santiago Atitlán	14	Cerro de Oro	5	Mayo	2023-05-30T00:00:00	2024-11-08T00:00:00	6	Velocidad del viento	3.2
151822	7	Sololá	719	Santiago Atitlán	14	Cerro de Oro	5	Mayo	2023-05-30T00:00:00	2024-11-08T00:00:00	7	Dirección del viento	3.22
151823	7	Sololá	719	Santiago Atitlán	14	Cerro de Oro	5	Mayo	2023-05-30T00:00:00	2024-11-08T00:00:00	1	Precipitación	0
151824	7	Sololá	719	Santiago Atitlán	14	Cerro de Oro	5	Mayo	2023-05-30T00:00:00	2024-11-08T00:00:00	8	Radiación solar	0
151825	7	Sololá	719	Santiago Atitlán	14	Cerro de Oro	5	Mayo	2023-05-30T00:00:00	2024-11-08T01:00:00	2	Temperatura media	18.2
151826	7	Sololá	719	Santiago Atitlán	14	Cerro de Oro	5	Mayo	2023-05-30T00:00:00	2024-11-08T01:00:00	4	Temperatura máxima	18.6
151827	7	Sololá	719	Santiago Atitlán	14	Cerro de Oro	5	Mayo	2023-05-30T00:00:00	2024-11-08T01:00:00	3	Temperatura mínima	18.1
151828	7	Sololá	719	Santiago Atitlán	14	Cerro de Oro	5	Mayo	2023-05-30T00:00:00	2024-11-08T01:00:00	5	Humedad	86
151829	7	Sololá	719	Santiago Atitlán	14	Cerro de Oro	5	Mayo	2023-05-30T00:00:00	2024-11-08T01:00:00	6	Velocidad del viento	3.2
151830	7	Sololá	719	Santiago Atitlán	14	Cerro de Oro	5	Mayo	2023-05-30T00:00:00	2024-11-08T01:00:00	7	Dirección del viento	3.22
151831	7	Sololá	719	Santiago Atitlán	14	Cerro de Oro	5	Mayo	2023-05-30T00:00:00	2024-11-08T01:00:00	1	Precipitación	0
151832	7	Sololá	719	Santiago Atitlán	14	Cerro de Oro	5	Mayo	2023-05-30T00:00:00	2024-11-08T01:00:00	8	Radiación solar	0
151833	7	Sololá	719	Santiago Atitlán	14	Cerro de Oro	5	Mayo	2023-05-30T00:00:00	2024-11-08T02:00:00	2	Temperatura media	18.6
151834	7	Sololá	719	Santiago Atitlán	14	Cerro de Oro	5	Mayo	2023-05-30T00:00:00	2024-11-08T02:00:00	4	Temperatura máxima	18.7
151835	7	Sololá	719	Santiago Atitlán	14	Cerro de Oro	5	Mayo	2023-05-30T00:00:00	2024-11-08T02:00:00	3	Temperatura mínima	17.9
151836	7	Sololá	719	Santiago Atitlán	14	Cerro de Oro	5	Mayo	2023-05-30T00:00:00	2024-11-08T02:00:00	5	Humedad	82
151837	7	Sololá	719	Santiago Atitlán	14	Cerro de Oro	5	Mayo	2023-05-30T00:00:00	2024-11-08T02:00:00	6	Velocidad del viento	3.2
151838	7	Sololá	719	Santiago Atitlán	14	Cerro de Oro	5	Mayo	2023-05-30T00:00:00	2024-11-08T02:00:00	7	Dirección del viento	3.22
151839	7	Sololá	719	Santiago Atitlán	14	Cerro de Oro	5	Mayo	2023-05-30T00:00:00	2024-11-08T02:00:00	1	Precipitación	0
151840	7	Sololá	719	Santiago Atitlán	14	Cerro de Oro	5	Mayo	2023-05-30T00:00:00	2024-11-08T02:00:00	8	Radiación solar	0
151841	7	Sololá	719	Santiago Atitlán	14	Cerro de Oro	5	Mayo	2023-05-30T00:00:00	2024-11-08T03:00:00	2	Temperatura media	18.2
151842	7	Sololá	719	Santiago Atitlán	14	Cerro de Oro	5	Mayo	2023-05-30T00:00:00	2024-11-08T03:00:00	4	Temperatura máxima	18.6
151843	7	Sololá	719	Santiago Atitlán	14	Cerro de Oro	5	Mayo	2023-05-30T00:00:00	2024-11-08T03:00:00	3	Temperatura mínima	18.2
151844	7	Sololá	719	Santiago Atitlán	14	Cerro de Oro	5	Mayo	2023-05-30T00:00:00	2024-11-08T03:00:00	5	Humedad	85
151845	7	Sololá	719	Santiago Atitlán	14	Cerro de Oro	5	Mayo	2023-05-30T00:00:00	2024-11-08T03:00:00	6	Velocidad del viento	3.2
151846	7	Sololá	719	Santiago Atitlán	14	Cerro de Oro	5	Mayo	2023-05-30T00:00:00	2024-11-08T03:00:00	7	Dirección del viento	3.22
151847	7	Sololá	719	Santiago Atitlán	14	Cerro de Oro	5	Mayo	2023-05-30T00:00:00	2024-11-08T03:00:00	1	Precipitación	0
151848	7	Sololá	719	Santiago Atitlán	14	Cerro de Oro	5	Mayo	2023-05-30T00:00:00	2024-11-08T03:00:00	8	Radiación solar	0
151849	7	Sololá	719	Santiago Atitlán	14	Cerro de Oro	5	Mayo	2023-05-30T00:00:00	2024-11-08T04:00:00	2	Temperatura media	18.3
151850	7	Sololá	719	Santiago Atitlán	14	Cerro de Oro	5	Mayo	2023-05-30T00:00:00	2024-11-08T04:00:00	4	Temperatura máxima	18.4
151851	7	Sololá	719	Santiago Atitlán	14	Cerro de Oro	5	Mayo	2023-05-30T00:00:00	2024-11-08T04:00:00	3	Temperatura mínima	17.9
151852	7	Sololá	719	Santiago Atitlán	14	Cerro de Oro	5	Mayo	2023-05-30T00:00:00	2024-11-08T04:00:00	5	Humedad	87
151853	7	Sololá	719	Santiago Atitlán	14	Cerro de Oro	5	Mayo	2023-05-30T00:00:00	2024-11-08T04:00:00	6	Velocidad del viento	3.2
151854	7	Sololá	719	Santiago Atitlán	14	Cerro de Oro	5	Mayo	2023-05-30T00:00:00	2024-11-08T04:00:00	7	Dirección del viento	3.22
151855	7	Sololá	719	Santiago Atitlán	14	Cerro de Oro	5	Mayo	2023-05-30T00:00:00	2024-11-08T04:00:00	1	Precipitación	0
151856	7	Sololá	719	Santiago Atitlán	14	Cerro de Oro	5	Mayo	2023-05-30T00:00:00	2024-11-08T04:00:00	8	Radiación solar	0
151857	7	Sololá	719	Santiago Atitlán	14	Cerro de Oro	5	Mayo	2023-05-30T00:00:00	2024-11-08T05:00:00	2	Temperatura media	18.2
151858	7	Sololá	719	Santiago Atitlán	14	Cerro de Oro	5	Mayo	2023-05-30T00:00:00	2024-11-08T05:00:00	4	Temperatura máxima	18.3
151859	7	Sololá	719	Santiago Atitlán	14	Cerro de Oro	5	Mayo	2023-05-30T00:00:00	2024-11-08T05:00:00	3	Temperatura mínima	17.9
151860	7	Sololá	719	Santiago Atitlán	14	Cerro de Oro	5	Mayo	2023-05-30T00:00:00	2024-11-08T05:00:00	5	Humedad	86
151861	7	Sololá	719	Santiago Atitlán	14	Cerro de Oro	5	Mayo	2023-05-30T00:00:00	2024-11-08T05:00:00	6	Velocidad del viento	4.8
151862	7	Sololá	719	Santiago Atitlán	14	Cerro de Oro	5	Mayo	2023-05-30T00:00:00	2024-11-08T05:00:00	7	Dirección del viento	4.83
151863	7	Sololá	719	Santiago Atitlán	14	Cerro de Oro	5	Mayo	2023-05-30T00:00:00	2024-11-08T05:00:00	1	Precipitación	0
151864	7	Sololá	719	Santiago Atitlán	14	Cerro de Oro	5	Mayo	2023-05-30T00:00:00	2024-11-08T05:00:00	8	Radiación solar	0
151865	7	Sololá	719	Santiago Atitlán	14	Cerro de Oro	5	Mayo	2023-05-30T00:00:00	2024-11-08T06:00:00	2	Temperatura media	18.1
151866	7	Sololá	719	Santiago Atitlán	14	Cerro de Oro	5	Mayo	2023-05-30T00:00:00	2024-11-08T06:00:00	4	Temperatura máxima	18.4
151867	7	Sololá	719	Santiago Atitlán	14	Cerro de Oro	5	Mayo	2023-05-30T00:00:00	2024-11-08T06:00:00	3	Temperatura mínima	18.1
151868	7	Sololá	719	Santiago Atitlán	14	Cerro de Oro	5	Mayo	2023-05-30T00:00:00	2024-11-08T06:00:00	5	Humedad	86
151869	7	Sololá	719	Santiago Atitlán	14	Cerro de Oro	5	Mayo	2023-05-30T00:00:00	2024-11-08T06:00:00	6	Velocidad del viento	3.2
151870	7	Sololá	719	Santiago Atitlán	14	Cerro de Oro	5	Mayo	2023-05-30T00:00:00	2024-11-08T06:00:00	7	Dirección del viento	3.22
151871	7	Sololá	719	Santiago Atitlán	14	Cerro de Oro	5	Mayo	2023-05-30T00:00:00	2024-11-08T06:00:00	1	Precipitación	0
151872	7	Sololá	719	Santiago Atitlán	14	Cerro de Oro	5	Mayo	2023-05-30T00:00:00	2024-11-08T06:00:00	8	Radiación solar	8
151873	7	Sololá	719	Santiago Atitlán	14	Cerro de Oro	5	Mayo	2023-05-30T00:00:00	2024-11-08T07:00:00	2	Temperatura media	19.5
151874	7	Sololá	719	Santiago Atitlán	14	Cerro de Oro	5	Mayo	2023-05-30T00:00:00	2024-11-08T07:00:00	4	Temperatura máxima	19.6
151875	7	Sololá	719	Santiago Atitlán	14	Cerro de Oro	5	Mayo	2023-05-30T00:00:00	2024-11-08T07:00:00	3	Temperatura mínima	18
151876	7	Sololá	719	Santiago Atitlán	14	Cerro de Oro	5	Mayo	2023-05-30T00:00:00	2024-11-08T07:00:00	5	Humedad	82
151877	7	Sololá	719	Santiago Atitlán	14	Cerro de Oro	5	Mayo	2023-05-30T00:00:00	2024-11-08T07:00:00	6	Velocidad del viento	3.2
151878	7	Sololá	719	Santiago Atitlán	14	Cerro de Oro	5	Mayo	2023-05-30T00:00:00	2024-11-08T07:00:00	7	Dirección del viento	3.22
151879	7	Sololá	719	Santiago Atitlán	14	Cerro de Oro	5	Mayo	2023-05-30T00:00:00	2024-11-08T07:00:00	1	Precipitación	0
151880	7	Sololá	719	Santiago Atitlán	14	Cerro de Oro	5	Mayo	2023-05-30T00:00:00	2024-11-08T07:00:00	8	Radiación solar	116
151881	7	Sololá	719	Santiago Atitlán	14	Cerro de Oro	5	Mayo	2023-05-30T00:00:00	2024-11-08T08:00:00	2	Temperatura media	20.7
151882	7	Sololá	719	Santiago Atitlán	14	Cerro de Oro	5	Mayo	2023-05-30T00:00:00	2024-11-08T08:00:00	4	Temperatura máxima	20.9
151883	7	Sololá	719	Santiago Atitlán	14	Cerro de Oro	5	Mayo	2023-05-30T00:00:00	2024-11-08T08:00:00	3	Temperatura mínima	19.5
151884	7	Sololá	719	Santiago Atitlán	14	Cerro de Oro	5	Mayo	2023-05-30T00:00:00	2024-11-08T08:00:00	5	Humedad	79
151885	7	Sololá	719	Santiago Atitlán	14	Cerro de Oro	5	Mayo	2023-05-30T00:00:00	2024-11-08T08:00:00	6	Velocidad del viento	1.6
151886	7	Sololá	719	Santiago Atitlán	14	Cerro de Oro	5	Mayo	2023-05-30T00:00:00	2024-11-08T08:00:00	7	Dirección del viento	1.61
151887	7	Sololá	719	Santiago Atitlán	14	Cerro de Oro	5	Mayo	2023-05-30T00:00:00	2024-11-08T08:00:00	1	Precipitación	0
151888	7	Sololá	719	Santiago Atitlán	14	Cerro de Oro	5	Mayo	2023-05-30T00:00:00	2024-11-08T08:00:00	8	Radiación solar	229
151889	7	Sololá	719	Santiago Atitlán	14	Cerro de Oro	5	Mayo	2023-05-30T00:00:00	2024-11-08T09:00:00	2	Temperatura media	21.3
151890	7	Sololá	719	Santiago Atitlán	14	Cerro de Oro	5	Mayo	2023-05-30T00:00:00	2024-11-08T09:00:00	4	Temperatura máxima	21.6
151891	7	Sololá	719	Santiago Atitlán	14	Cerro de Oro	5	Mayo	2023-05-30T00:00:00	2024-11-08T09:00:00	3	Temperatura mínima	20.7
151892	7	Sololá	719	Santiago Atitlán	14	Cerro de Oro	5	Mayo	2023-05-30T00:00:00	2024-11-08T09:00:00	5	Humedad	78
151893	7	Sololá	719	Santiago Atitlán	14	Cerro de Oro	5	Mayo	2023-05-30T00:00:00	2024-11-08T09:00:00	6	Velocidad del viento	3.2
151894	7	Sololá	719	Santiago Atitlán	14	Cerro de Oro	5	Mayo	2023-05-30T00:00:00	2024-11-08T09:00:00	7	Dirección del viento	3.22
151895	7	Sololá	719	Santiago Atitlán	14	Cerro de Oro	5	Mayo	2023-05-30T00:00:00	2024-11-08T09:00:00	1	Precipitación	0
151896	7	Sololá	719	Santiago Atitlán	14	Cerro de Oro	5	Mayo	2023-05-30T00:00:00	2024-11-08T09:00:00	8	Radiación solar	346
151897	7	Sololá	719	Santiago Atitlán	14	Cerro de Oro	5	Mayo	2023-05-30T00:00:00	2024-11-08T10:00:00	2	Temperatura media	22.8
151898	7	Sololá	719	Santiago Atitlán	14	Cerro de Oro	5	Mayo	2023-05-30T00:00:00	2024-11-08T10:00:00	4	Temperatura máxima	22.9
151899	7	Sololá	719	Santiago Atitlán	14	Cerro de Oro	5	Mayo	2023-05-30T00:00:00	2024-11-08T10:00:00	3	Temperatura mínima	21.3
151900	7	Sololá	719	Santiago Atitlán	14	Cerro de Oro	5	Mayo	2023-05-30T00:00:00	2024-11-08T10:00:00	5	Humedad	70
151901	7	Sololá	719	Santiago Atitlán	14	Cerro de Oro	5	Mayo	2023-05-30T00:00:00	2024-11-08T10:00:00	6	Velocidad del viento	8
151902	7	Sololá	719	Santiago Atitlán	14	Cerro de Oro	5	Mayo	2023-05-30T00:00:00	2024-11-08T10:00:00	7	Dirección del viento	8.05
151903	7	Sololá	719	Santiago Atitlán	14	Cerro de Oro	5	Mayo	2023-05-30T00:00:00	2024-11-08T10:00:00	1	Precipitación	0
151904	7	Sololá	719	Santiago Atitlán	14	Cerro de Oro	5	Mayo	2023-05-30T00:00:00	2024-11-08T10:00:00	8	Radiación solar	725
151905	7	Sololá	719	Santiago Atitlán	14	Cerro de Oro	5	Mayo	2023-05-30T00:00:00	2024-11-08T11:00:00	2	Temperatura media	23.1
151906	7	Sololá	719	Santiago Atitlán	14	Cerro de Oro	5	Mayo	2023-05-30T00:00:00	2024-11-08T11:00:00	4	Temperatura máxima	23.4
151907	7	Sololá	719	Santiago Atitlán	14	Cerro de Oro	5	Mayo	2023-05-30T00:00:00	2024-11-08T11:00:00	3	Temperatura mínima	22.4
151908	7	Sololá	719	Santiago Atitlán	14	Cerro de Oro	5	Mayo	2023-05-30T00:00:00	2024-11-08T11:00:00	5	Humedad	75
151909	7	Sololá	719	Santiago Atitlán	14	Cerro de Oro	5	Mayo	2023-05-30T00:00:00	2024-11-08T11:00:00	6	Velocidad del viento	8
151910	7	Sololá	719	Santiago Atitlán	14	Cerro de Oro	5	Mayo	2023-05-30T00:00:00	2024-11-08T11:00:00	7	Dirección del viento	8.05
151911	7	Sololá	719	Santiago Atitlán	14	Cerro de Oro	5	Mayo	2023-05-30T00:00:00	2024-11-08T11:00:00	1	Precipitación	0
151912	7	Sololá	719	Santiago Atitlán	14	Cerro de Oro	5	Mayo	2023-05-30T00:00:00	2024-11-08T11:00:00	8	Radiación solar	800
151913	7	Sololá	719	Santiago Atitlán	14	Cerro de Oro	5	Mayo	2023-05-30T00:00:00	2024-11-08T12:00:00	2	Temperatura media	23.1
151914	7	Sololá	719	Santiago Atitlán	14	Cerro de Oro	5	Mayo	2023-05-30T00:00:00	2024-11-08T12:00:00	4	Temperatura máxima	23.8
151915	7	Sololá	719	Santiago Atitlán	14	Cerro de Oro	5	Mayo	2023-05-30T00:00:00	2024-11-08T12:00:00	3	Temperatura mínima	23.1
151916	7	Sololá	719	Santiago Atitlán	14	Cerro de Oro	5	Mayo	2023-05-30T00:00:00	2024-11-08T12:00:00	5	Humedad	75
151917	7	Sololá	719	Santiago Atitlán	14	Cerro de Oro	5	Mayo	2023-05-30T00:00:00	2024-11-08T12:00:00	6	Velocidad del viento	9.7
151918	7	Sololá	719	Santiago Atitlán	14	Cerro de Oro	5	Mayo	2023-05-30T00:00:00	2024-11-08T12:00:00	7	Dirección del viento	9.66
151919	7	Sololá	719	Santiago Atitlán	14	Cerro de Oro	5	Mayo	2023-05-30T00:00:00	2024-11-08T12:00:00	1	Precipitación	0
151920	7	Sololá	719	Santiago Atitlán	14	Cerro de Oro	5	Mayo	2023-05-30T00:00:00	2024-11-08T12:00:00	8	Radiación solar	923
151921	7	Sololá	719	Santiago Atitlán	14	Cerro de Oro	5	Mayo	2023-05-30T00:00:00	2024-11-08T13:00:00	2	Temperatura media	22.6
151922	7	Sololá	719	Santiago Atitlán	14	Cerro de Oro	5	Mayo	2023-05-30T00:00:00	2024-11-08T13:00:00	4	Temperatura máxima	23.5
151923	7	Sololá	719	Santiago Atitlán	14	Cerro de Oro	5	Mayo	2023-05-30T00:00:00	2024-11-08T13:00:00	3	Temperatura mínima	22.1
151924	7	Sololá	719	Santiago Atitlán	14	Cerro de Oro	5	Mayo	2023-05-30T00:00:00	2024-11-08T13:00:00	5	Humedad	78
151925	7	Sololá	719	Santiago Atitlán	14	Cerro de Oro	5	Mayo	2023-05-30T00:00:00	2024-11-08T13:00:00	6	Velocidad del viento	9.7
151926	7	Sololá	719	Santiago Atitlán	14	Cerro de Oro	5	Mayo	2023-05-30T00:00:00	2024-11-08T13:00:00	7	Dirección del viento	9.66
151927	7	Sololá	719	Santiago Atitlán	14	Cerro de Oro	5	Mayo	2023-05-30T00:00:00	2024-11-08T13:00:00	1	Precipitación	0
151928	7	Sololá	719	Santiago Atitlán	14	Cerro de Oro	5	Mayo	2023-05-30T00:00:00	2024-11-08T13:00:00	8	Radiación solar	524
151929	7	Sololá	719	Santiago Atitlán	14	Cerro de Oro	5	Mayo	2023-05-30T00:00:00	2024-11-08T14:00:00	2	Temperatura media	19.1
151930	7	Sololá	719	Santiago Atitlán	14	Cerro de Oro	5	Mayo	2023-05-30T00:00:00	2024-11-08T14:00:00	4	Temperatura máxima	22.6
151931	7	Sololá	719	Santiago Atitlán	14	Cerro de Oro	5	Mayo	2023-05-30T00:00:00	2024-11-08T14:00:00	3	Temperatura mínima	19.1
151932	7	Sololá	719	Santiago Atitlán	14	Cerro de Oro	5	Mayo	2023-05-30T00:00:00	2024-11-08T14:00:00	5	Humedad	88
151933	7	Sololá	719	Santiago Atitlán	14	Cerro de Oro	5	Mayo	2023-05-30T00:00:00	2024-11-08T14:00:00	6	Velocidad del viento	8
151934	7	Sololá	719	Santiago Atitlán	14	Cerro de Oro	5	Mayo	2023-05-30T00:00:00	2024-11-08T14:00:00	7	Dirección del viento	8.05
151935	7	Sololá	719	Santiago Atitlán	14	Cerro de Oro	5	Mayo	2023-05-30T00:00:00	2024-11-08T14:00:00	1	Precipitación	6
151936	7	Sololá	719	Santiago Atitlán	14	Cerro de Oro	5	Mayo	2023-05-30T00:00:00	2024-11-08T14:00:00	8	Radiación solar	83
151937	7	Sololá	719	Santiago Atitlán	14	Cerro de Oro	5	Mayo	2023-05-30T00:00:00	2024-11-08T15:00:00	2	Temperatura media	17.6
151938	7	Sololá	719	Santiago Atitlán	14	Cerro de Oro	5	Mayo	2023-05-30T00:00:00	2024-11-08T15:00:00	4	Temperatura máxima	19.1
151939	7	Sololá	719	Santiago Atitlán	14	Cerro de Oro	5	Mayo	2023-05-30T00:00:00	2024-11-08T15:00:00	3	Temperatura mínima	17.6
151940	7	Sololá	719	Santiago Atitlán	14	Cerro de Oro	5	Mayo	2023-05-30T00:00:00	2024-11-08T15:00:00	5	Humedad	92
151941	7	Sololá	719	Santiago Atitlán	14	Cerro de Oro	5	Mayo	2023-05-30T00:00:00	2024-11-08T15:00:00	6	Velocidad del viento	6.4
151942	7	Sololá	719	Santiago Atitlán	14	Cerro de Oro	5	Mayo	2023-05-30T00:00:00	2024-11-08T15:00:00	7	Dirección del viento	6.44
151943	7	Sololá	719	Santiago Atitlán	14	Cerro de Oro	5	Mayo	2023-05-30T00:00:00	2024-11-08T15:00:00	1	Precipitación	5
151944	7	Sololá	719	Santiago Atitlán	14	Cerro de Oro	5	Mayo	2023-05-30T00:00:00	2024-11-08T15:00:00	8	Radiación solar	28
151945	7	Sololá	719	Santiago Atitlán	14	Cerro de Oro	5	Mayo	2023-05-30T00:00:00	2024-11-08T16:00:00	2	Temperatura media	18.6
151946	7	Sololá	719	Santiago Atitlán	14	Cerro de Oro	5	Mayo	2023-05-30T00:00:00	2024-11-08T16:00:00	4	Temperatura máxima	18.6
151947	7	Sololá	719	Santiago Atitlán	14	Cerro de Oro	5	Mayo	2023-05-30T00:00:00	2024-11-08T16:00:00	3	Temperatura mínima	17.5
151948	7	Sololá	719	Santiago Atitlán	14	Cerro de Oro	5	Mayo	2023-05-30T00:00:00	2024-11-08T16:00:00	5	Humedad	92
151949	7	Sololá	719	Santiago Atitlán	14	Cerro de Oro	5	Mayo	2023-05-30T00:00:00	2024-11-08T16:00:00	6	Velocidad del viento	3.2
151950	7	Sololá	719	Santiago Atitlán	14	Cerro de Oro	5	Mayo	2023-05-30T00:00:00	2024-11-08T16:00:00	7	Dirección del viento	3.22
151951	7	Sololá	719	Santiago Atitlán	14	Cerro de Oro	5	Mayo	2023-05-30T00:00:00	2024-11-08T16:00:00	1	Precipitación	0.4
151952	7	Sololá	719	Santiago Atitlán	14	Cerro de Oro	5	Mayo	2023-05-30T00:00:00	2024-11-08T16:00:00	8	Radiación solar	97
151953	7	Sololá	719	Santiago Atitlán	14	Cerro de Oro	5	Mayo	2023-05-30T00:00:00	2024-11-08T17:00:00	2	Temperatura media	18.6
151954	7	Sololá	719	Santiago Atitlán	14	Cerro de Oro	5	Mayo	2023-05-30T00:00:00	2024-11-08T17:00:00	4	Temperatura máxima	18.6
151955	7	Sololá	719	Santiago Atitlán	14	Cerro de Oro	5	Mayo	2023-05-30T00:00:00	2024-11-08T17:00:00	3	Temperatura mínima	18.5
151956	7	Sololá	719	Santiago Atitlán	14	Cerro de Oro	5	Mayo	2023-05-30T00:00:00	2024-11-08T17:00:00	5	Humedad	88
151957	7	Sololá	719	Santiago Atitlán	14	Cerro de Oro	5	Mayo	2023-05-30T00:00:00	2024-11-08T17:00:00	6	Velocidad del viento	4.8
151958	7	Sololá	719	Santiago Atitlán	14	Cerro de Oro	5	Mayo	2023-05-30T00:00:00	2024-11-08T17:00:00	7	Dirección del viento	4.83
151959	7	Sololá	719	Santiago Atitlán	14	Cerro de Oro	5	Mayo	2023-05-30T00:00:00	2024-11-08T17:00:00	1	Precipitación	0
151960	7	Sololá	719	Santiago Atitlán	14	Cerro de Oro	5	Mayo	2023-05-30T00:00:00	2024-11-08T17:00:00	8	Radiación solar	27
151961	7	Sololá	719	Santiago Atitlán	14	Cerro de Oro	5	Mayo	2023-05-30T00:00:00	2024-11-08T18:00:00	2	Temperatura media	18.3
151962	7	Sololá	719	Santiago Atitlán	14	Cerro de Oro	5	Mayo	2023-05-30T00:00:00	2024-11-08T18:00:00	4	Temperatura máxima	18.6
151963	7	Sololá	719	Santiago Atitlán	14	Cerro de Oro	5	Mayo	2023-05-30T00:00:00	2024-11-08T18:00:00	3	Temperatura mínima	18.3
151964	7	Sololá	719	Santiago Atitlán	14	Cerro de Oro	5	Mayo	2023-05-30T00:00:00	2024-11-08T18:00:00	5	Humedad	90
151965	7	Sololá	719	Santiago Atitlán	14	Cerro de Oro	5	Mayo	2023-05-30T00:00:00	2024-11-08T18:00:00	6	Velocidad del viento	4.8
151966	7	Sololá	719	Santiago Atitlán	14	Cerro de Oro	5	Mayo	2023-05-30T00:00:00	2024-11-08T18:00:00	7	Dirección del viento	4.83
151967	7	Sololá	719	Santiago Atitlán	14	Cerro de Oro	5	Mayo	2023-05-30T00:00:00	2024-11-08T18:00:00	1	Precipitación	1.2
151968	7	Sololá	719	Santiago Atitlán	14	Cerro de Oro	5	Mayo	2023-05-30T00:00:00	2024-11-08T18:00:00	8	Radiación solar	10
151969	7	Sololá	719	Santiago Atitlán	14	Cerro de Oro	5	Mayo	2023-05-30T00:00:00	2024-11-08T19:00:00	2	Temperatura media	18.5
151970	7	Sololá	719	Santiago Atitlán	14	Cerro de Oro	5	Mayo	2023-05-30T00:00:00	2024-11-08T19:00:00	4	Temperatura máxima	18.8
151971	7	Sololá	719	Santiago Atitlán	14	Cerro de Oro	5	Mayo	2023-05-30T00:00:00	2024-11-08T19:00:00	3	Temperatura mínima	18.3
151972	7	Sololá	719	Santiago Atitlán	14	Cerro de Oro	5	Mayo	2023-05-30T00:00:00	2024-11-08T19:00:00	5	Humedad	84
151973	7	Sololá	719	Santiago Atitlán	14	Cerro de Oro	5	Mayo	2023-05-30T00:00:00	2024-11-08T19:00:00	6	Velocidad del viento	4.8
151974	7	Sololá	719	Santiago Atitlán	14	Cerro de Oro	5	Mayo	2023-05-30T00:00:00	2024-11-08T19:00:00	7	Dirección del viento	4.83
151975	7	Sololá	719	Santiago Atitlán	14	Cerro de Oro	5	Mayo	2023-05-30T00:00:00	2024-11-08T19:00:00	1	Precipitación	0.4
151976	7	Sololá	719	Santiago Atitlán	14	Cerro de Oro	5	Mayo	2023-05-30T00:00:00	2024-11-08T19:00:00	8	Radiación solar	0
151977	7	Sololá	719	Santiago Atitlán	14	Cerro de Oro	5	Mayo	2023-05-30T00:00:00	2024-11-08T20:00:00	2	Temperatura media	18.3
151978	7	Sololá	719	Santiago Atitlán	14	Cerro de Oro	5	Mayo	2023-05-30T00:00:00	2024-11-08T20:00:00	4	Temperatura máxima	18.6
151979	7	Sololá	719	Santiago Atitlán	14	Cerro de Oro	5	Mayo	2023-05-30T00:00:00	2024-11-08T20:00:00	3	Temperatura mínima	18.2
151980	7	Sololá	719	Santiago Atitlán	14	Cerro de Oro	5	Mayo	2023-05-30T00:00:00	2024-11-08T20:00:00	5	Humedad	85
151981	7	Sololá	719	Santiago Atitlán	14	Cerro de Oro	5	Mayo	2023-05-30T00:00:00	2024-11-08T20:00:00	6	Velocidad del viento	4.8
151982	7	Sololá	719	Santiago Atitlán	14	Cerro de Oro	5	Mayo	2023-05-30T00:00:00	2024-11-08T20:00:00	7	Dirección del viento	4.83
151983	7	Sololá	719	Santiago Atitlán	14	Cerro de Oro	5	Mayo	2023-05-30T00:00:00	2024-11-08T20:00:00	1	Precipitación	0
151984	7	Sololá	719	Santiago Atitlán	14	Cerro de Oro	5	Mayo	2023-05-30T00:00:00	2024-11-08T20:00:00	8	Radiación solar	0
151985	7	Sololá	719	Santiago Atitlán	14	Cerro de Oro	5	Mayo	2023-05-30T00:00:00	2024-11-08T21:00:00	2	Temperatura media	18.6
151986	7	Sololá	719	Santiago Atitlán	14	Cerro de Oro	5	Mayo	2023-05-30T00:00:00	2024-11-08T21:00:00	4	Temperatura máxima	18.7
151987	7	Sololá	719	Santiago Atitlán	14	Cerro de Oro	5	Mayo	2023-05-30T00:00:00	2024-11-08T21:00:00	3	Temperatura mínima	18.1
151988	7	Sololá	719	Santiago Atitlán	14	Cerro de Oro	5	Mayo	2023-05-30T00:00:00	2024-11-08T21:00:00	5	Humedad	85
151989	7	Sololá	719	Santiago Atitlán	14	Cerro de Oro	5	Mayo	2023-05-30T00:00:00	2024-11-08T21:00:00	6	Velocidad del viento	6.4
151990	7	Sololá	719	Santiago Atitlán	14	Cerro de Oro	5	Mayo	2023-05-30T00:00:00	2024-11-08T21:00:00	7	Dirección del viento	6.44
151991	7	Sololá	719	Santiago Atitlán	14	Cerro de Oro	5	Mayo	2023-05-30T00:00:00	2024-11-08T21:00:00	1	Precipitación	0
151992	7	Sololá	719	Santiago Atitlán	14	Cerro de Oro	5	Mayo	2023-05-30T00:00:00	2024-11-08T21:00:00	8	Radiación solar	0
151993	7	Sololá	719	Santiago Atitlán	14	Cerro de Oro	5	Mayo	2023-05-30T00:00:00	2024-11-08T22:00:00	2	Temperatura media	18.2
151994	7	Sololá	719	Santiago Atitlán	14	Cerro de Oro	5	Mayo	2023-05-30T00:00:00	2024-11-08T22:00:00	4	Temperatura máxima	18.6
151995	7	Sololá	719	Santiago Atitlán	14	Cerro de Oro	5	Mayo	2023-05-30T00:00:00	2024-11-08T22:00:00	3	Temperatura mínima	18.2
151996	7	Sololá	719	Santiago Atitlán	14	Cerro de Oro	5	Mayo	2023-05-30T00:00:00	2024-11-08T22:00:00	5	Humedad	88
151997	7	Sololá	719	Santiago Atitlán	14	Cerro de Oro	5	Mayo	2023-05-30T00:00:00	2024-11-08T22:00:00	6	Velocidad del viento	4.8
151998	7	Sololá	719	Santiago Atitlán	14	Cerro de Oro	5	Mayo	2023-05-30T00:00:00	2024-11-08T22:00:00	7	Dirección del viento	4.83
151999	7	Sololá	719	Santiago Atitlán	14	Cerro de Oro	5	Mayo	2023-05-30T00:00:00	2024-11-08T22:00:00	1	Precipitación	0
152000	7	Sololá	719	Santiago Atitlán	14	Cerro de Oro	5	Mayo	2023-05-30T00:00:00	2024-11-08T22:00:00	8	Radiación solar	0
152001	7	Sololá	719	Santiago Atitlán	14	Cerro de Oro	5	Mayo	2023-05-30T00:00:00	2024-11-08T23:00:00	2	Temperatura media	18.3
152002	7	Sololá	719	Santiago Atitlán	14	Cerro de Oro	5	Mayo	2023-05-30T00:00:00	2024-11-08T23:00:00	4	Temperatura máxima	18.3
152003	7	Sololá	719	Santiago Atitlán	14	Cerro de Oro	5	Mayo	2023-05-30T00:00:00	2024-11-08T23:00:00	3	Temperatura mínima	18
152004	7	Sololá	719	Santiago Atitlán	14	Cerro de Oro	5	Mayo	2023-05-30T00:00:00	2024-11-08T23:00:00	5	Humedad	87
152005	7	Sololá	719	Santiago Atitlán	14	Cerro de Oro	5	Mayo	2023-05-30T00:00:00	2024-11-08T23:00:00	6	Velocidad del viento	4.8
152006	7	Sololá	719	Santiago Atitlán	14	Cerro de Oro	5	Mayo	2023-05-30T00:00:00	2024-11-08T23:00:00	7	Dirección del viento	4.83
152007	7	Sololá	719	Santiago Atitlán	14	Cerro de Oro	5	Mayo	2023-05-30T00:00:00	2024-11-08T23:00:00	1	Precipitación	0
152008	7	Sololá	719	Santiago Atitlán	14	Cerro de Oro	5	Mayo	2023-05-30T00:00:00	2024-11-08T23:00:00	8	Radiación solar	0
152009	7	Sololá	719	Santiago Atitlán	14	Cerro de Oro	5	Mayo	2023-05-31T00:00:00	2024-11-08T00:00:00	2	Temperatura media	18.6
152010	7	Sololá	719	Santiago Atitlán	14	Cerro de Oro	5	Mayo	2023-05-31T00:00:00	2024-11-08T00:00:00	4	Temperatura máxima	18.6
152011	7	Sololá	719	Santiago Atitlán	14	Cerro de Oro	5	Mayo	2023-05-31T00:00:00	2024-11-08T00:00:00	3	Temperatura mínima	18.2
152012	7	Sololá	719	Santiago Atitlán	14	Cerro de Oro	5	Mayo	2023-05-31T00:00:00	2024-11-08T00:00:00	5	Humedad	86
152013	7	Sololá	719	Santiago Atitlán	14	Cerro de Oro	5	Mayo	2023-05-31T00:00:00	2024-11-08T00:00:00	6	Velocidad del viento	3.2
152014	7	Sololá	719	Santiago Atitlán	14	Cerro de Oro	5	Mayo	2023-05-31T00:00:00	2024-11-08T00:00:00	7	Dirección del viento	3.22
152015	7	Sololá	719	Santiago Atitlán	14	Cerro de Oro	5	Mayo	2023-05-31T00:00:00	2024-11-08T00:00:00	1	Precipitación	0
152016	7	Sololá	719	Santiago Atitlán	14	Cerro de Oro	5	Mayo	2023-05-31T00:00:00	2024-11-08T00:00:00	8	Radiación solar	0
152017	7	Sololá	719	Santiago Atitlán	14	Cerro de Oro	5	Mayo	2023-05-31T00:00:00	2024-11-08T01:00:00	2	Temperatura media	18.4
152018	7	Sololá	719	Santiago Atitlán	14	Cerro de Oro	5	Mayo	2023-05-31T00:00:00	2024-11-08T01:00:00	4	Temperatura máxima	18.6
152019	7	Sololá	719	Santiago Atitlán	14	Cerro de Oro	5	Mayo	2023-05-31T00:00:00	2024-11-08T01:00:00	3	Temperatura mínima	18.1
152020	7	Sololá	719	Santiago Atitlán	14	Cerro de Oro	5	Mayo	2023-05-31T00:00:00	2024-11-08T01:00:00	5	Humedad	83
152021	7	Sololá	719	Santiago Atitlán	14	Cerro de Oro	5	Mayo	2023-05-31T00:00:00	2024-11-08T01:00:00	6	Velocidad del viento	3.2
152022	7	Sololá	719	Santiago Atitlán	14	Cerro de Oro	5	Mayo	2023-05-31T00:00:00	2024-11-08T01:00:00	7	Dirección del viento	3.22
152023	7	Sololá	719	Santiago Atitlán	14	Cerro de Oro	5	Mayo	2023-05-31T00:00:00	2024-11-08T01:00:00	1	Precipitación	0
152024	7	Sololá	719	Santiago Atitlán	14	Cerro de Oro	5	Mayo	2023-05-31T00:00:00	2024-11-08T01:00:00	8	Radiación solar	0
152025	7	Sololá	719	Santiago Atitlán	14	Cerro de Oro	5	Mayo	2023-05-31T00:00:00	2024-11-08T02:00:00	2	Temperatura media	18.1
152026	7	Sololá	719	Santiago Atitlán	14	Cerro de Oro	5	Mayo	2023-05-31T00:00:00	2024-11-08T02:00:00	4	Temperatura máxima	18.6
152027	7	Sololá	719	Santiago Atitlán	14	Cerro de Oro	5	Mayo	2023-05-31T00:00:00	2024-11-08T02:00:00	3	Temperatura mínima	17.8
152028	7	Sololá	719	Santiago Atitlán	14	Cerro de Oro	5	Mayo	2023-05-31T00:00:00	2024-11-08T02:00:00	5	Humedad	86
152029	7	Sololá	719	Santiago Atitlán	14	Cerro de Oro	5	Mayo	2023-05-31T00:00:00	2024-11-08T02:00:00	6	Velocidad del viento	3.2
152030	7	Sololá	719	Santiago Atitlán	14	Cerro de Oro	5	Mayo	2023-05-31T00:00:00	2024-11-08T02:00:00	7	Dirección del viento	3.22
152031	7	Sololá	719	Santiago Atitlán	14	Cerro de Oro	5	Mayo	2023-05-31T00:00:00	2024-11-08T02:00:00	1	Precipitación	0
152032	7	Sololá	719	Santiago Atitlán	14	Cerro de Oro	5	Mayo	2023-05-31T00:00:00	2024-11-08T02:00:00	8	Radiación solar	0
152033	7	Sololá	719	Santiago Atitlán	14	Cerro de Oro	5	Mayo	2023-05-31T00:00:00	2024-11-08T03:00:00	2	Temperatura media	18.1
152034	7	Sololá	719	Santiago Atitlán	14	Cerro de Oro	5	Mayo	2023-05-31T00:00:00	2024-11-08T03:00:00	4	Temperatura máxima	18.4
152035	7	Sololá	719	Santiago Atitlán	14	Cerro de Oro	5	Mayo	2023-05-31T00:00:00	2024-11-08T03:00:00	3	Temperatura mínima	17.9
152036	7	Sololá	719	Santiago Atitlán	14	Cerro de Oro	5	Mayo	2023-05-31T00:00:00	2024-11-08T03:00:00	5	Humedad	86
152037	7	Sololá	719	Santiago Atitlán	14	Cerro de Oro	5	Mayo	2023-05-31T00:00:00	2024-11-08T03:00:00	6	Velocidad del viento	3.2
152038	7	Sololá	719	Santiago Atitlán	14	Cerro de Oro	5	Mayo	2023-05-31T00:00:00	2024-11-08T03:00:00	7	Dirección del viento	3.22
152039	7	Sololá	719	Santiago Atitlán	14	Cerro de Oro	5	Mayo	2023-05-31T00:00:00	2024-11-08T03:00:00	1	Precipitación	0
152040	7	Sololá	719	Santiago Atitlán	14	Cerro de Oro	5	Mayo	2023-05-31T00:00:00	2024-11-08T03:00:00	8	Radiación solar	0
152041	7	Sololá	719	Santiago Atitlán	14	Cerro de Oro	5	Mayo	2023-05-31T00:00:00	2024-11-08T04:00:00	2	Temperatura media	17.9
152042	7	Sololá	719	Santiago Atitlán	14	Cerro de Oro	5	Mayo	2023-05-31T00:00:00	2024-11-08T04:00:00	4	Temperatura máxima	18.2
152043	7	Sololá	719	Santiago Atitlán	14	Cerro de Oro	5	Mayo	2023-05-31T00:00:00	2024-11-08T04:00:00	3	Temperatura mínima	17.8
152044	7	Sololá	719	Santiago Atitlán	14	Cerro de Oro	5	Mayo	2023-05-31T00:00:00	2024-11-08T04:00:00	5	Humedad	87
152045	7	Sololá	719	Santiago Atitlán	14	Cerro de Oro	5	Mayo	2023-05-31T00:00:00	2024-11-08T04:00:00	6	Velocidad del viento	4.8
152046	7	Sololá	719	Santiago Atitlán	14	Cerro de Oro	5	Mayo	2023-05-31T00:00:00	2024-11-08T04:00:00	7	Dirección del viento	4.83
152047	7	Sololá	719	Santiago Atitlán	14	Cerro de Oro	5	Mayo	2023-05-31T00:00:00	2024-11-08T04:00:00	1	Precipitación	0
152048	7	Sololá	719	Santiago Atitlán	14	Cerro de Oro	5	Mayo	2023-05-31T00:00:00	2024-11-08T04:00:00	8	Radiación solar	0
152049	7	Sololá	719	Santiago Atitlán	14	Cerro de Oro	5	Mayo	2023-05-31T00:00:00	2024-11-08T05:00:00	2	Temperatura media	18.3
152050	7	Sololá	719	Santiago Atitlán	14	Cerro de Oro	5	Mayo	2023-05-31T00:00:00	2024-11-08T05:00:00	4	Temperatura máxima	18.4
152051	7	Sololá	719	Santiago Atitlán	14	Cerro de Oro	5	Mayo	2023-05-31T00:00:00	2024-11-08T05:00:00	3	Temperatura mínima	17.8
152052	7	Sololá	719	Santiago Atitlán	14	Cerro de Oro	5	Mayo	2023-05-31T00:00:00	2024-11-08T05:00:00	5	Humedad	83
152053	7	Sololá	719	Santiago Atitlán	14	Cerro de Oro	5	Mayo	2023-05-31T00:00:00	2024-11-08T05:00:00	6	Velocidad del viento	4.8
152054	7	Sololá	719	Santiago Atitlán	14	Cerro de Oro	5	Mayo	2023-05-31T00:00:00	2024-11-08T05:00:00	7	Dirección del viento	4.83
152055	7	Sololá	719	Santiago Atitlán	14	Cerro de Oro	5	Mayo	2023-05-31T00:00:00	2024-11-08T05:00:00	1	Precipitación	0
152056	7	Sololá	719	Santiago Atitlán	14	Cerro de Oro	5	Mayo	2023-05-31T00:00:00	2024-11-08T05:00:00	8	Radiación solar	0
152057	7	Sololá	719	Santiago Atitlán	14	Cerro de Oro	5	Mayo	2023-05-31T00:00:00	2024-11-08T06:00:00	2	Temperatura media	17.8
152058	7	Sololá	719	Santiago Atitlán	14	Cerro de Oro	5	Mayo	2023-05-31T00:00:00	2024-11-08T06:00:00	4	Temperatura máxima	18.3
152059	7	Sololá	719	Santiago Atitlán	14	Cerro de Oro	5	Mayo	2023-05-31T00:00:00	2024-11-08T06:00:00	3	Temperatura mínima	17.5
152060	7	Sololá	719	Santiago Atitlán	14	Cerro de Oro	5	Mayo	2023-05-31T00:00:00	2024-11-08T06:00:00	5	Humedad	84
152061	7	Sololá	719	Santiago Atitlán	14	Cerro de Oro	5	Mayo	2023-05-31T00:00:00	2024-11-08T06:00:00	6	Velocidad del viento	4.8
152062	7	Sololá	719	Santiago Atitlán	14	Cerro de Oro	5	Mayo	2023-05-31T00:00:00	2024-11-08T06:00:00	7	Dirección del viento	4.83
152063	7	Sololá	719	Santiago Atitlán	14	Cerro de Oro	5	Mayo	2023-05-31T00:00:00	2024-11-08T06:00:00	1	Precipitación	0
152064	7	Sololá	719	Santiago Atitlán	14	Cerro de Oro	5	Mayo	2023-05-31T00:00:00	2024-11-08T06:00:00	8	Radiación solar	7
152065	7	Sololá	719	Santiago Atitlán	14	Cerro de Oro	5	Mayo	2023-05-31T00:00:00	2024-11-08T07:00:00	2	Temperatura media	19.5
152066	7	Sololá	719	Santiago Atitlán	14	Cerro de Oro	5	Mayo	2023-05-31T00:00:00	2024-11-08T07:00:00	4	Temperatura máxima	19.5
152067	7	Sololá	719	Santiago Atitlán	14	Cerro de Oro	5	Mayo	2023-05-31T00:00:00	2024-11-08T07:00:00	3	Temperatura mínima	17.7
152068	7	Sololá	719	Santiago Atitlán	14	Cerro de Oro	5	Mayo	2023-05-31T00:00:00	2024-11-08T07:00:00	5	Humedad	81
152069	7	Sololá	719	Santiago Atitlán	14	Cerro de Oro	5	Mayo	2023-05-31T00:00:00	2024-11-08T07:00:00	6	Velocidad del viento	1.6
152070	7	Sololá	719	Santiago Atitlán	14	Cerro de Oro	5	Mayo	2023-05-31T00:00:00	2024-11-08T07:00:00	7	Dirección del viento	1.61
152071	7	Sololá	719	Santiago Atitlán	14	Cerro de Oro	5	Mayo	2023-05-31T00:00:00	2024-11-08T07:00:00	1	Precipitación	0
152072	7	Sololá	719	Santiago Atitlán	14	Cerro de Oro	5	Mayo	2023-05-31T00:00:00	2024-11-08T07:00:00	8	Radiación solar	100
152073	7	Sololá	719	Santiago Atitlán	14	Cerro de Oro	5	Mayo	2023-05-31T00:00:00	2024-11-08T08:00:00	2	Temperatura media	21.1
152074	7	Sololá	719	Santiago Atitlán	14	Cerro de Oro	5	Mayo	2023-05-31T00:00:00	2024-11-08T08:00:00	4	Temperatura máxima	21.1
152075	7	Sololá	719	Santiago Atitlán	14	Cerro de Oro	5	Mayo	2023-05-31T00:00:00	2024-11-08T08:00:00	3	Temperatura mínima	19.5
152076	7	Sololá	719	Santiago Atitlán	14	Cerro de Oro	5	Mayo	2023-05-31T00:00:00	2024-11-08T08:00:00	5	Humedad	77
152077	7	Sololá	719	Santiago Atitlán	14	Cerro de Oro	5	Mayo	2023-05-31T00:00:00	2024-11-08T08:00:00	6	Velocidad del viento	1.6
152078	7	Sololá	719	Santiago Atitlán	14	Cerro de Oro	5	Mayo	2023-05-31T00:00:00	2024-11-08T08:00:00	7	Dirección del viento	1.61
152079	7	Sololá	719	Santiago Atitlán	14	Cerro de Oro	5	Mayo	2023-05-31T00:00:00	2024-11-08T08:00:00	1	Precipitación	0
152080	7	Sololá	719	Santiago Atitlán	14	Cerro de Oro	5	Mayo	2023-05-31T00:00:00	2024-11-08T08:00:00	8	Radiación solar	310
152081	7	Sololá	719	Santiago Atitlán	14	Cerro de Oro	5	Mayo	2023-05-31T00:00:00	2024-11-08T09:00:00	2	Temperatura media	21.2
152082	7	Sololá	719	Santiago Atitlán	14	Cerro de Oro	5	Mayo	2023-05-31T00:00:00	2024-11-08T09:00:00	4	Temperatura máxima	21.3
152083	7	Sololá	719	Santiago Atitlán	14	Cerro de Oro	5	Mayo	2023-05-31T00:00:00	2024-11-08T09:00:00	3	Temperatura mínima	20.8
152084	7	Sololá	719	Santiago Atitlán	14	Cerro de Oro	5	Mayo	2023-05-31T00:00:00	2024-11-08T09:00:00	5	Humedad	77
152085	7	Sololá	719	Santiago Atitlán	14	Cerro de Oro	5	Mayo	2023-05-31T00:00:00	2024-11-08T09:00:00	6	Velocidad del viento	4.8
152086	7	Sololá	719	Santiago Atitlán	14	Cerro de Oro	5	Mayo	2023-05-31T00:00:00	2024-11-08T09:00:00	7	Dirección del viento	4.83
152087	7	Sololá	719	Santiago Atitlán	14	Cerro de Oro	5	Mayo	2023-05-31T00:00:00	2024-11-08T09:00:00	1	Precipitación	0
152088	7	Sololá	719	Santiago Atitlán	14	Cerro de Oro	5	Mayo	2023-05-31T00:00:00	2024-11-08T09:00:00	8	Radiación solar	511
152089	7	Sololá	719	Santiago Atitlán	14	Cerro de Oro	5	Mayo	2023-05-31T00:00:00	2024-11-08T10:00:00	2	Temperatura media	21.6
152090	7	Sololá	719	Santiago Atitlán	14	Cerro de Oro	5	Mayo	2023-05-31T00:00:00	2024-11-08T10:00:00	4	Temperatura máxima	22.5
152091	7	Sololá	719	Santiago Atitlán	14	Cerro de Oro	5	Mayo	2023-05-31T00:00:00	2024-11-08T10:00:00	3	Temperatura mínima	21.2
152092	7	Sololá	719	Santiago Atitlán	14	Cerro de Oro	5	Mayo	2023-05-31T00:00:00	2024-11-08T10:00:00	5	Humedad	76
152093	7	Sololá	719	Santiago Atitlán	14	Cerro de Oro	5	Mayo	2023-05-31T00:00:00	2024-11-08T10:00:00	6	Velocidad del viento	8
152094	7	Sololá	719	Santiago Atitlán	14	Cerro de Oro	5	Mayo	2023-05-31T00:00:00	2024-11-08T10:00:00	7	Dirección del viento	8.05
152095	7	Sololá	719	Santiago Atitlán	14	Cerro de Oro	5	Mayo	2023-05-31T00:00:00	2024-11-08T10:00:00	1	Precipitación	0
152096	7	Sololá	719	Santiago Atitlán	14	Cerro de Oro	5	Mayo	2023-05-31T00:00:00	2024-11-08T10:00:00	8	Radiación solar	617
152097	7	Sololá	719	Santiago Atitlán	14	Cerro de Oro	5	Mayo	2023-05-31T00:00:00	2024-11-08T11:00:00	2	Temperatura media	22.1
152098	7	Sololá	719	Santiago Atitlán	14	Cerro de Oro	5	Mayo	2023-05-31T00:00:00	2024-11-08T11:00:00	4	Temperatura máxima	22.1
152099	7	Sololá	719	Santiago Atitlán	14	Cerro de Oro	5	Mayo	2023-05-31T00:00:00	2024-11-08T11:00:00	3	Temperatura mínima	21.6
152100	7	Sololá	719	Santiago Atitlán	14	Cerro de Oro	5	Mayo	2023-05-31T00:00:00	2024-11-08T11:00:00	5	Humedad	79
152101	7	Sololá	719	Santiago Atitlán	14	Cerro de Oro	5	Mayo	2023-05-31T00:00:00	2024-11-08T11:00:00	6	Velocidad del viento	8
152102	7	Sololá	719	Santiago Atitlán	14	Cerro de Oro	5	Mayo	2023-05-31T00:00:00	2024-11-08T11:00:00	7	Dirección del viento	8.05
152103	7	Sololá	719	Santiago Atitlán	14	Cerro de Oro	5	Mayo	2023-05-31T00:00:00	2024-11-08T11:00:00	1	Precipitación	0
152104	7	Sololá	719	Santiago Atitlán	14	Cerro de Oro	5	Mayo	2023-05-31T00:00:00	2024-11-08T11:00:00	8	Radiación solar	494
152105	7	Sololá	719	Santiago Atitlán	14	Cerro de Oro	5	Mayo	2023-05-31T00:00:00	2024-11-08T12:00:00	2	Temperatura media	22.6
152106	7	Sololá	719	Santiago Atitlán	14	Cerro de Oro	5	Mayo	2023-05-31T00:00:00	2024-11-08T12:00:00	4	Temperatura máxima	22.8
152107	7	Sololá	719	Santiago Atitlán	14	Cerro de Oro	5	Mayo	2023-05-31T00:00:00	2024-11-08T12:00:00	3	Temperatura mínima	22.1
152108	7	Sololá	719	Santiago Atitlán	14	Cerro de Oro	5	Mayo	2023-05-31T00:00:00	2024-11-08T12:00:00	5	Humedad	77
152109	7	Sololá	719	Santiago Atitlán	14	Cerro de Oro	5	Mayo	2023-05-31T00:00:00	2024-11-08T12:00:00	6	Velocidad del viento	8
152110	7	Sololá	719	Santiago Atitlán	14	Cerro de Oro	5	Mayo	2023-05-31T00:00:00	2024-11-08T12:00:00	7	Dirección del viento	8.05
152111	7	Sololá	719	Santiago Atitlán	14	Cerro de Oro	5	Mayo	2023-05-31T00:00:00	2024-11-08T12:00:00	1	Precipitación	0
152112	7	Sololá	719	Santiago Atitlán	14	Cerro de Oro	5	Mayo	2023-05-31T00:00:00	2024-11-08T12:00:00	8	Radiación solar	647
152113	7	Sololá	719	Santiago Atitlán	14	Cerro de Oro	5	Mayo	2023-05-31T00:00:00	2024-11-08T13:00:00	2	Temperatura media	22.5
152114	7	Sololá	719	Santiago Atitlán	14	Cerro de Oro	5	Mayo	2023-05-31T00:00:00	2024-11-08T13:00:00	4	Temperatura máxima	22.6
152115	7	Sololá	719	Santiago Atitlán	14	Cerro de Oro	5	Mayo	2023-05-31T00:00:00	2024-11-08T13:00:00	3	Temperatura mínima	21.8
152116	7	Sololá	719	Santiago Atitlán	14	Cerro de Oro	5	Mayo	2023-05-31T00:00:00	2024-11-08T13:00:00	5	Humedad	78
152117	7	Sololá	719	Santiago Atitlán	14	Cerro de Oro	5	Mayo	2023-05-31T00:00:00	2024-11-08T13:00:00	6	Velocidad del viento	9.7
152118	7	Sololá	719	Santiago Atitlán	14	Cerro de Oro	5	Mayo	2023-05-31T00:00:00	2024-11-08T13:00:00	7	Dirección del viento	9.66
152119	7	Sololá	719	Santiago Atitlán	14	Cerro de Oro	5	Mayo	2023-05-31T00:00:00	2024-11-08T13:00:00	1	Precipitación	0
152120	7	Sololá	719	Santiago Atitlán	14	Cerro de Oro	5	Mayo	2023-05-31T00:00:00	2024-11-08T13:00:00	8	Radiación solar	534
152121	7	Sololá	719	Santiago Atitlán	14	Cerro de Oro	5	Mayo	2023-05-31T00:00:00	2024-11-08T14:00:00	2	Temperatura media	22
152122	7	Sololá	719	Santiago Atitlán	14	Cerro de Oro	5	Mayo	2023-05-31T00:00:00	2024-11-08T14:00:00	4	Temperatura máxima	22.7
152123	7	Sololá	719	Santiago Atitlán	14	Cerro de Oro	5	Mayo	2023-05-31T00:00:00	2024-11-08T14:00:00	3	Temperatura mínima	21.7
152124	7	Sololá	719	Santiago Atitlán	14	Cerro de Oro	5	Mayo	2023-05-31T00:00:00	2024-11-08T14:00:00	5	Humedad	79
152125	7	Sololá	719	Santiago Atitlán	14	Cerro de Oro	5	Mayo	2023-05-31T00:00:00	2024-11-08T14:00:00	6	Velocidad del viento	9.7
152126	7	Sololá	719	Santiago Atitlán	14	Cerro de Oro	5	Mayo	2023-05-31T00:00:00	2024-11-08T14:00:00	7	Dirección del viento	9.66
152127	7	Sololá	719	Santiago Atitlán	14	Cerro de Oro	5	Mayo	2023-05-31T00:00:00	2024-11-08T14:00:00	1	Precipitación	0
152128	7	Sololá	719	Santiago Atitlán	14	Cerro de Oro	5	Mayo	2023-05-31T00:00:00	2024-11-08T14:00:00	8	Radiación solar	528
152129	7	Sololá	719	Santiago Atitlán	14	Cerro de Oro	5	Mayo	2023-05-31T00:00:00	2024-11-08T15:00:00	2	Temperatura media	21.3
152130	7	Sololá	719	Santiago Atitlán	14	Cerro de Oro	5	Mayo	2023-05-31T00:00:00	2024-11-08T15:00:00	4	Temperatura máxima	22.2
152131	7	Sololá	719	Santiago Atitlán	14	Cerro de Oro	5	Mayo	2023-05-31T00:00:00	2024-11-08T15:00:00	3	Temperatura mínima	21.3
152132	7	Sololá	719	Santiago Atitlán	14	Cerro de Oro	5	Mayo	2023-05-31T00:00:00	2024-11-08T15:00:00	5	Humedad	82
152133	7	Sololá	719	Santiago Atitlán	14	Cerro de Oro	5	Mayo	2023-05-31T00:00:00	2024-11-08T15:00:00	6	Velocidad del viento	11.3
152134	7	Sololá	719	Santiago Atitlán	14	Cerro de Oro	5	Mayo	2023-05-31T00:00:00	2024-11-08T15:00:00	7	Dirección del viento	11.27
152135	7	Sololá	719	Santiago Atitlán	14	Cerro de Oro	5	Mayo	2023-05-31T00:00:00	2024-11-08T15:00:00	1	Precipitación	0
152136	7	Sololá	719	Santiago Atitlán	14	Cerro de Oro	5	Mayo	2023-05-31T00:00:00	2024-11-08T15:00:00	8	Radiación solar	291
152137	7	Sololá	719	Santiago Atitlán	14	Cerro de Oro	5	Mayo	2023-05-31T00:00:00	2024-11-08T16:00:00	2	Temperatura media	20.3
152138	7	Sololá	719	Santiago Atitlán	14	Cerro de Oro	5	Mayo	2023-05-31T00:00:00	2024-11-08T16:00:00	4	Temperatura máxima	21.3
152139	7	Sololá	719	Santiago Atitlán	14	Cerro de Oro	5	Mayo	2023-05-31T00:00:00	2024-11-08T16:00:00	3	Temperatura mínima	20.3
152140	7	Sololá	719	Santiago Atitlán	14	Cerro de Oro	5	Mayo	2023-05-31T00:00:00	2024-11-08T16:00:00	5	Humedad	86
152141	7	Sololá	719	Santiago Atitlán	14	Cerro de Oro	5	Mayo	2023-05-31T00:00:00	2024-11-08T16:00:00	6	Velocidad del viento	6.4
152142	7	Sololá	719	Santiago Atitlán	14	Cerro de Oro	5	Mayo	2023-05-31T00:00:00	2024-11-08T16:00:00	7	Dirección del viento	6.44
152143	7	Sololá	719	Santiago Atitlán	14	Cerro de Oro	5	Mayo	2023-05-31T00:00:00	2024-11-08T16:00:00	1	Precipitación	0
152144	7	Sololá	719	Santiago Atitlán	14	Cerro de Oro	5	Mayo	2023-05-31T00:00:00	2024-11-08T16:00:00	8	Radiación solar	61
152145	7	Sololá	719	Santiago Atitlán	14	Cerro de Oro	5	Mayo	2023-05-31T00:00:00	2024-11-08T17:00:00	2	Temperatura media	19.6
152146	7	Sololá	719	Santiago Atitlán	14	Cerro de Oro	5	Mayo	2023-05-31T00:00:00	2024-11-08T17:00:00	4	Temperatura máxima	20.3
152147	7	Sololá	719	Santiago Atitlán	14	Cerro de Oro	5	Mayo	2023-05-31T00:00:00	2024-11-08T17:00:00	3	Temperatura mínima	19.6
152148	7	Sololá	719	Santiago Atitlán	14	Cerro de Oro	5	Mayo	2023-05-31T00:00:00	2024-11-08T17:00:00	5	Humedad	88
152149	7	Sololá	719	Santiago Atitlán	14	Cerro de Oro	5	Mayo	2023-05-31T00:00:00	2024-11-08T17:00:00	6	Velocidad del viento	6.4
152150	7	Sololá	719	Santiago Atitlán	14	Cerro de Oro	5	Mayo	2023-05-31T00:00:00	2024-11-08T17:00:00	7	Dirección del viento	6.44
152151	7	Sololá	719	Santiago Atitlán	14	Cerro de Oro	5	Mayo	2023-05-31T00:00:00	2024-11-08T17:00:00	1	Precipitación	0
152152	7	Sololá	719	Santiago Atitlán	14	Cerro de Oro	5	Mayo	2023-05-31T00:00:00	2024-11-08T17:00:00	8	Radiación solar	25
152153	7	Sololá	719	Santiago Atitlán	14	Cerro de Oro	5	Mayo	2023-05-31T00:00:00	2024-11-08T18:00:00	2	Temperatura media	19
152154	7	Sololá	719	Santiago Atitlán	14	Cerro de Oro	5	Mayo	2023-05-31T00:00:00	2024-11-08T18:00:00	4	Temperatura máxima	19.6
152155	7	Sololá	719	Santiago Atitlán	14	Cerro de Oro	5	Mayo	2023-05-31T00:00:00	2024-11-08T18:00:00	3	Temperatura mínima	19
152156	7	Sololá	719	Santiago Atitlán	14	Cerro de Oro	5	Mayo	2023-05-31T00:00:00	2024-11-08T18:00:00	5	Humedad	92
152157	7	Sololá	719	Santiago Atitlán	14	Cerro de Oro	5	Mayo	2023-05-31T00:00:00	2024-11-08T18:00:00	6	Velocidad del viento	4.8
152158	7	Sololá	719	Santiago Atitlán	14	Cerro de Oro	5	Mayo	2023-05-31T00:00:00	2024-11-08T18:00:00	7	Dirección del viento	4.83
152159	7	Sololá	719	Santiago Atitlán	14	Cerro de Oro	5	Mayo	2023-05-31T00:00:00	2024-11-08T18:00:00	1	Precipitación	1.2
152160	7	Sololá	719	Santiago Atitlán	14	Cerro de Oro	5	Mayo	2023-05-31T00:00:00	2024-11-08T18:00:00	8	Radiación solar	15
152161	7	Sololá	719	Santiago Atitlán	14	Cerro de Oro	5	Mayo	2023-05-31T00:00:00	2024-11-08T19:00:00	2	Temperatura media	18.7
152162	7	Sololá	719	Santiago Atitlán	14	Cerro de Oro	5	Mayo	2023-05-31T00:00:00	2024-11-08T19:00:00	4	Temperatura máxima	19.1
152163	7	Sololá	719	Santiago Atitlán	14	Cerro de Oro	5	Mayo	2023-05-31T00:00:00	2024-11-08T19:00:00	3	Temperatura mínima	18.6
152164	7	Sololá	719	Santiago Atitlán	14	Cerro de Oro	5	Mayo	2023-05-31T00:00:00	2024-11-08T19:00:00	5	Humedad	93
152165	7	Sololá	719	Santiago Atitlán	14	Cerro de Oro	5	Mayo	2023-05-31T00:00:00	2024-11-08T19:00:00	6	Velocidad del viento	1.6
152166	7	Sololá	719	Santiago Atitlán	14	Cerro de Oro	5	Mayo	2023-05-31T00:00:00	2024-11-08T19:00:00	7	Dirección del viento	1.61
152167	7	Sololá	719	Santiago Atitlán	14	Cerro de Oro	5	Mayo	2023-05-31T00:00:00	2024-11-08T19:00:00	1	Precipitación	1
152168	7	Sololá	719	Santiago Atitlán	14	Cerro de Oro	5	Mayo	2023-05-31T00:00:00	2024-11-08T19:00:00	8	Radiación solar	0
152169	7	Sololá	719	Santiago Atitlán	14	Cerro de Oro	5	Mayo	2023-05-31T00:00:00	2024-11-08T20:00:00	2	Temperatura media	18.7
152170	7	Sololá	719	Santiago Atitlán	14	Cerro de Oro	5	Mayo	2023-05-31T00:00:00	2024-11-08T20:00:00	4	Temperatura máxima	18.8
152171	7	Sololá	719	Santiago Atitlán	14	Cerro de Oro	5	Mayo	2023-05-31T00:00:00	2024-11-08T20:00:00	3	Temperatura mínima	18.4
152172	7	Sololá	719	Santiago Atitlán	14	Cerro de Oro	5	Mayo	2023-05-31T00:00:00	2024-11-08T20:00:00	5	Humedad	90
152173	7	Sololá	719	Santiago Atitlán	14	Cerro de Oro	5	Mayo	2023-05-31T00:00:00	2024-11-08T20:00:00	6	Velocidad del viento	3.2
152174	7	Sololá	719	Santiago Atitlán	14	Cerro de Oro	5	Mayo	2023-05-31T00:00:00	2024-11-08T20:00:00	7	Dirección del viento	3.22
152175	7	Sololá	719	Santiago Atitlán	14	Cerro de Oro	5	Mayo	2023-05-31T00:00:00	2024-11-08T20:00:00	1	Precipitación	0.2
152176	7	Sololá	719	Santiago Atitlán	14	Cerro de Oro	5	Mayo	2023-05-31T00:00:00	2024-11-08T20:00:00	8	Radiación solar	0
152177	7	Sololá	719	Santiago Atitlán	14	Cerro de Oro	5	Mayo	2023-05-31T00:00:00	2024-11-08T21:00:00	2	Temperatura media	18.2
152178	7	Sololá	719	Santiago Atitlán	14	Cerro de Oro	5	Mayo	2023-05-31T00:00:00	2024-11-08T21:00:00	4	Temperatura máxima	18.7
152179	7	Sololá	719	Santiago Atitlán	14	Cerro de Oro	5	Mayo	2023-05-31T00:00:00	2024-11-08T21:00:00	3	Temperatura mínima	18.2
152180	7	Sololá	719	Santiago Atitlán	14	Cerro de Oro	5	Mayo	2023-05-31T00:00:00	2024-11-08T21:00:00	5	Humedad	90
152181	7	Sololá	719	Santiago Atitlán	14	Cerro de Oro	5	Mayo	2023-05-31T00:00:00	2024-11-08T21:00:00	6	Velocidad del viento	4.8
152182	7	Sololá	719	Santiago Atitlán	14	Cerro de Oro	5	Mayo	2023-05-31T00:00:00	2024-11-08T21:00:00	7	Dirección del viento	4.83
152183	7	Sololá	719	Santiago Atitlán	14	Cerro de Oro	5	Mayo	2023-05-31T00:00:00	2024-11-08T21:00:00	1	Precipitación	0
152184	7	Sololá	719	Santiago Atitlán	14	Cerro de Oro	5	Mayo	2023-05-31T00:00:00	2024-11-08T21:00:00	8	Radiación solar	0
152185	7	Sololá	719	Santiago Atitlán	14	Cerro de Oro	5	Mayo	2023-05-31T00:00:00	2024-11-08T22:00:00	2	Temperatura media	18.8
152186	7	Sololá	719	Santiago Atitlán	14	Cerro de Oro	5	Mayo	2023-05-31T00:00:00	2024-11-08T22:00:00	4	Temperatura máxima	18.8
152187	7	Sololá	719	Santiago Atitlán	14	Cerro de Oro	5	Mayo	2023-05-31T00:00:00	2024-11-08T22:00:00	3	Temperatura mínima	18
152188	7	Sololá	719	Santiago Atitlán	14	Cerro de Oro	5	Mayo	2023-05-31T00:00:00	2024-11-08T22:00:00	5	Humedad	90
152189	7	Sololá	719	Santiago Atitlán	14	Cerro de Oro	5	Mayo	2023-05-31T00:00:00	2024-11-08T22:00:00	6	Velocidad del viento	3.2
152190	7	Sololá	719	Santiago Atitlán	14	Cerro de Oro	5	Mayo	2023-05-31T00:00:00	2024-11-08T22:00:00	7	Dirección del viento	3.22
152191	7	Sololá	719	Santiago Atitlán	14	Cerro de Oro	5	Mayo	2023-05-31T00:00:00	2024-11-08T22:00:00	1	Precipitación	0
152192	7	Sololá	719	Santiago Atitlán	14	Cerro de Oro	5	Mayo	2023-05-31T00:00:00	2024-11-08T22:00:00	8	Radiación solar	0
152193	7	Sololá	719	Santiago Atitlán	14	Cerro de Oro	5	Mayo	2023-05-31T00:00:00	2024-11-08T23:00:00	2	Temperatura media	18.6
152194	7	Sololá	719	Santiago Atitlán	14	Cerro de Oro	5	Mayo	2023-05-31T00:00:00	2024-11-08T23:00:00	4	Temperatura máxima	18.9
152195	7	Sololá	719	Santiago Atitlán	14	Cerro de Oro	5	Mayo	2023-05-31T00:00:00	2024-11-08T23:00:00	3	Temperatura mínima	18.4
152196	7	Sololá	719	Santiago Atitlán	14	Cerro de Oro	5	Mayo	2023-05-31T00:00:00	2024-11-08T23:00:00	5	Humedad	91
152197	7	Sololá	719	Santiago Atitlán	14	Cerro de Oro	5	Mayo	2023-05-31T00:00:00	2024-11-08T23:00:00	6	Velocidad del viento	3.2
152198	7	Sololá	719	Santiago Atitlán	14	Cerro de Oro	5	Mayo	2023-05-31T00:00:00	2024-11-08T23:00:00	7	Dirección del viento	3.22
152199	7	Sololá	719	Santiago Atitlán	14	Cerro de Oro	5	Mayo	2023-05-31T00:00:00	2024-11-08T23:00:00	1	Precipitación	0
152200	7	Sololá	719	Santiago Atitlán	14	Cerro de Oro	5	Mayo	2023-05-31T00:00:00	2024-11-08T23:00:00	8	Radiación solar	0
152201	7	Sololá	719	Santiago Atitlán	14	Cerro de Oro	6	Junio	2023-01-06T00:00:00	2024-11-08T00:00:00	2	Temperatura media	17.1
152202	7	Sololá	719	Santiago Atitlán	14	Cerro de Oro	6	Junio	2023-01-06T00:00:00	2024-11-08T00:00:00	4	Temperatura máxima	18.8
152203	7	Sololá	719	Santiago Atitlán	14	Cerro de Oro	6	Junio	2023-01-06T00:00:00	2024-11-08T00:00:00	3	Temperatura mínima	17.1
152204	7	Sololá	719	Santiago Atitlán	14	Cerro de Oro	6	Junio	2023-01-06T00:00:00	2024-11-08T00:00:00	5	Humedad	91
152205	7	Sololá	719	Santiago Atitlán	14	Cerro de Oro	6	Junio	2023-01-06T00:00:00	2024-11-08T00:00:00	6	Velocidad del viento	8
152206	7	Sololá	719	Santiago Atitlán	14	Cerro de Oro	6	Junio	2023-01-06T00:00:00	2024-11-08T00:00:00	7	Dirección del viento	8.05
152207	7	Sololá	719	Santiago Atitlán	14	Cerro de Oro	6	Junio	2023-01-06T00:00:00	2024-11-08T00:00:00	1	Precipitación	17.6
152208	7	Sololá	719	Santiago Atitlán	14	Cerro de Oro	6	Junio	2023-01-06T00:00:00	2024-11-08T00:00:00	8	Radiación solar	0
152209	7	Sololá	719	Santiago Atitlán	14	Cerro de Oro	6	Junio	2023-01-06T00:00:00	2024-11-08T01:00:00	2	Temperatura media	16.8
152210	7	Sololá	719	Santiago Atitlán	14	Cerro de Oro	6	Junio	2023-01-06T00:00:00	2024-11-08T01:00:00	4	Temperatura máxima	17.1
152211	7	Sololá	719	Santiago Atitlán	14	Cerro de Oro	6	Junio	2023-01-06T00:00:00	2024-11-08T01:00:00	3	Temperatura mínima	16.4
152212	7	Sololá	719	Santiago Atitlán	14	Cerro de Oro	6	Junio	2023-01-06T00:00:00	2024-11-08T01:00:00	5	Humedad	93
152213	7	Sololá	719	Santiago Atitlán	14	Cerro de Oro	6	Junio	2023-01-06T00:00:00	2024-11-08T01:00:00	6	Velocidad del viento	3.2
152214	7	Sololá	719	Santiago Atitlán	14	Cerro de Oro	6	Junio	2023-01-06T00:00:00	2024-11-08T01:00:00	7	Dirección del viento	3.22
152215	7	Sololá	719	Santiago Atitlán	14	Cerro de Oro	6	Junio	2023-01-06T00:00:00	2024-11-08T01:00:00	1	Precipitación	4.4
152216	7	Sololá	719	Santiago Atitlán	14	Cerro de Oro	6	Junio	2023-01-06T00:00:00	2024-11-08T01:00:00	8	Radiación solar	0
152217	7	Sololá	719	Santiago Atitlán	14	Cerro de Oro	6	Junio	2023-01-06T00:00:00	2024-11-08T02:00:00	2	Temperatura media	16.9
152218	7	Sololá	719	Santiago Atitlán	14	Cerro de Oro	6	Junio	2023-01-06T00:00:00	2024-11-08T02:00:00	4	Temperatura máxima	16.9
152219	7	Sololá	719	Santiago Atitlán	14	Cerro de Oro	6	Junio	2023-01-06T00:00:00	2024-11-08T02:00:00	3	Temperatura mínima	16.7
152220	7	Sololá	719	Santiago Atitlán	14	Cerro de Oro	6	Junio	2023-01-06T00:00:00	2024-11-08T02:00:00	5	Humedad	93
152221	7	Sololá	719	Santiago Atitlán	14	Cerro de Oro	6	Junio	2023-01-06T00:00:00	2024-11-08T02:00:00	6	Velocidad del viento	3.2
152222	7	Sololá	719	Santiago Atitlán	14	Cerro de Oro	6	Junio	2023-01-06T00:00:00	2024-11-08T02:00:00	7	Dirección del viento	3.22
152223	7	Sololá	719	Santiago Atitlán	14	Cerro de Oro	6	Junio	2023-01-06T00:00:00	2024-11-08T02:00:00	1	Precipitación	0
152224	7	Sololá	719	Santiago Atitlán	14	Cerro de Oro	6	Junio	2023-01-06T00:00:00	2024-11-08T02:00:00	8	Radiación solar	0
152225	7	Sololá	719	Santiago Atitlán	14	Cerro de Oro	6	Junio	2023-01-06T00:00:00	2024-11-08T03:00:00	2	Temperatura media	17.2
152226	7	Sololá	719	Santiago Atitlán	14	Cerro de Oro	6	Junio	2023-01-06T00:00:00	2024-11-08T03:00:00	4	Temperatura máxima	17.2
152227	7	Sololá	719	Santiago Atitlán	14	Cerro de Oro	6	Junio	2023-01-06T00:00:00	2024-11-08T03:00:00	3	Temperatura mínima	16.8
152228	7	Sololá	719	Santiago Atitlán	14	Cerro de Oro	6	Junio	2023-01-06T00:00:00	2024-11-08T03:00:00	5	Humedad	93
152229	7	Sololá	719	Santiago Atitlán	14	Cerro de Oro	6	Junio	2023-01-06T00:00:00	2024-11-08T03:00:00	6	Velocidad del viento	3.2
152230	7	Sololá	719	Santiago Atitlán	14	Cerro de Oro	6	Junio	2023-01-06T00:00:00	2024-11-08T03:00:00	7	Dirección del viento	3.22
152231	7	Sololá	719	Santiago Atitlán	14	Cerro de Oro	6	Junio	2023-01-06T00:00:00	2024-11-08T03:00:00	1	Precipitación	0
152232	7	Sololá	719	Santiago Atitlán	14	Cerro de Oro	6	Junio	2023-01-06T00:00:00	2024-11-08T03:00:00	8	Radiación solar	0
152233	7	Sololá	719	Santiago Atitlán	14	Cerro de Oro	6	Junio	2023-01-06T00:00:00	2024-11-08T04:00:00	2	Temperatura media	17.5
152234	7	Sololá	719	Santiago Atitlán	14	Cerro de Oro	6	Junio	2023-01-06T00:00:00	2024-11-08T04:00:00	4	Temperatura máxima	17.6
152235	7	Sololá	719	Santiago Atitlán	14	Cerro de Oro	6	Junio	2023-01-06T00:00:00	2024-11-08T04:00:00	3	Temperatura mínima	16.9
152236	7	Sololá	719	Santiago Atitlán	14	Cerro de Oro	6	Junio	2023-01-06T00:00:00	2024-11-08T04:00:00	5	Humedad	92
152237	7	Sololá	719	Santiago Atitlán	14	Cerro de Oro	6	Junio	2023-01-06T00:00:00	2024-11-08T04:00:00	6	Velocidad del viento	4.8
152238	7	Sololá	719	Santiago Atitlán	14	Cerro de Oro	6	Junio	2023-01-06T00:00:00	2024-11-08T04:00:00	7	Dirección del viento	4.83
152239	7	Sololá	719	Santiago Atitlán	14	Cerro de Oro	6	Junio	2023-01-06T00:00:00	2024-11-08T04:00:00	1	Precipitación	0
152240	7	Sololá	719	Santiago Atitlán	14	Cerro de Oro	6	Junio	2023-01-06T00:00:00	2024-11-08T04:00:00	8	Radiación solar	0
152241	7	Sololá	719	Santiago Atitlán	14	Cerro de Oro	6	Junio	2023-01-06T00:00:00	2024-11-08T05:00:00	2	Temperatura media	17.4
152242	7	Sololá	719	Santiago Atitlán	14	Cerro de Oro	6	Junio	2023-01-06T00:00:00	2024-11-08T05:00:00	4	Temperatura máxima	17.6
152243	7	Sololá	719	Santiago Atitlán	14	Cerro de Oro	6	Junio	2023-01-06T00:00:00	2024-11-08T05:00:00	3	Temperatura mínima	17.3
152244	7	Sololá	719	Santiago Atitlán	14	Cerro de Oro	6	Junio	2023-01-06T00:00:00	2024-11-08T05:00:00	5	Humedad	92
152245	7	Sololá	719	Santiago Atitlán	14	Cerro de Oro	6	Junio	2023-01-06T00:00:00	2024-11-08T05:00:00	6	Velocidad del viento	3.2
152246	7	Sololá	719	Santiago Atitlán	14	Cerro de Oro	6	Junio	2023-01-06T00:00:00	2024-11-08T05:00:00	7	Dirección del viento	3.22
152247	7	Sololá	719	Santiago Atitlán	14	Cerro de Oro	6	Junio	2023-01-06T00:00:00	2024-11-08T05:00:00	1	Precipitación	0
152248	7	Sololá	719	Santiago Atitlán	14	Cerro de Oro	6	Junio	2023-01-06T00:00:00	2024-11-08T05:00:00	8	Radiación solar	0
152249	7	Sololá	719	Santiago Atitlán	14	Cerro de Oro	6	Junio	2023-01-06T00:00:00	2024-11-08T06:00:00	2	Temperatura media	17.6
152250	7	Sololá	719	Santiago Atitlán	14	Cerro de Oro	6	Junio	2023-01-06T00:00:00	2024-11-08T06:00:00	4	Temperatura máxima	17.7
152251	7	Sololá	719	Santiago Atitlán	14	Cerro de Oro	6	Junio	2023-01-06T00:00:00	2024-11-08T06:00:00	3	Temperatura mínima	17.4
152252	7	Sololá	719	Santiago Atitlán	14	Cerro de Oro	6	Junio	2023-01-06T00:00:00	2024-11-08T06:00:00	5	Humedad	91
152253	7	Sololá	719	Santiago Atitlán	14	Cerro de Oro	6	Junio	2023-01-06T00:00:00	2024-11-08T06:00:00	6	Velocidad del viento	3.2
152254	7	Sololá	719	Santiago Atitlán	14	Cerro de Oro	6	Junio	2023-01-06T00:00:00	2024-11-08T06:00:00	7	Dirección del viento	3.22
152255	7	Sololá	719	Santiago Atitlán	14	Cerro de Oro	6	Junio	2023-01-06T00:00:00	2024-11-08T06:00:00	1	Precipitación	0
152256	7	Sololá	719	Santiago Atitlán	14	Cerro de Oro	6	Junio	2023-01-06T00:00:00	2024-11-08T06:00:00	8	Radiación solar	9
152257	7	Sololá	719	Santiago Atitlán	14	Cerro de Oro	6	Junio	2023-01-06T00:00:00	2024-11-08T07:00:00	2	Temperatura media	18.7
152258	7	Sololá	719	Santiago Atitlán	14	Cerro de Oro	6	Junio	2023-01-06T00:00:00	2024-11-08T07:00:00	4	Temperatura máxima	18.8
152259	7	Sololá	719	Santiago Atitlán	14	Cerro de Oro	6	Junio	2023-01-06T00:00:00	2024-11-08T07:00:00	3	Temperatura mínima	17.6
152260	7	Sololá	719	Santiago Atitlán	14	Cerro de Oro	6	Junio	2023-01-06T00:00:00	2024-11-08T07:00:00	5	Humedad	90
152261	7	Sololá	719	Santiago Atitlán	14	Cerro de Oro	6	Junio	2023-01-06T00:00:00	2024-11-08T07:00:00	6	Velocidad del viento	4.8
152262	7	Sololá	719	Santiago Atitlán	14	Cerro de Oro	6	Junio	2023-01-06T00:00:00	2024-11-08T07:00:00	7	Dirección del viento	4.83
152263	7	Sololá	719	Santiago Atitlán	14	Cerro de Oro	6	Junio	2023-01-06T00:00:00	2024-11-08T07:00:00	1	Precipitación	0
152264	7	Sololá	719	Santiago Atitlán	14	Cerro de Oro	6	Junio	2023-01-06T00:00:00	2024-11-08T07:00:00	8	Radiación solar	101
152265	7	Sololá	719	Santiago Atitlán	14	Cerro de Oro	6	Junio	2023-01-06T00:00:00	2024-11-08T08:00:00	2	Temperatura media	20.3
152266	7	Sololá	719	Santiago Atitlán	14	Cerro de Oro	6	Junio	2023-01-06T00:00:00	2024-11-08T08:00:00	4	Temperatura máxima	20.4
152267	7	Sololá	719	Santiago Atitlán	14	Cerro de Oro	6	Junio	2023-01-06T00:00:00	2024-11-08T08:00:00	3	Temperatura mínima	18.7
152268	7	Sololá	719	Santiago Atitlán	14	Cerro de Oro	6	Junio	2023-01-06T00:00:00	2024-11-08T08:00:00	5	Humedad	83
152269	7	Sololá	719	Santiago Atitlán	14	Cerro de Oro	6	Junio	2023-01-06T00:00:00	2024-11-08T08:00:00	6	Velocidad del viento	3.2
152270	7	Sololá	719	Santiago Atitlán	14	Cerro de Oro	6	Junio	2023-01-06T00:00:00	2024-11-08T08:00:00	7	Dirección del viento	3.22
152271	7	Sololá	719	Santiago Atitlán	14	Cerro de Oro	6	Junio	2023-01-06T00:00:00	2024-11-08T08:00:00	1	Precipitación	0
152272	7	Sololá	719	Santiago Atitlán	14	Cerro de Oro	6	Junio	2023-01-06T00:00:00	2024-11-08T08:00:00	8	Radiación solar	237
152273	7	Sololá	719	Santiago Atitlán	14	Cerro de Oro	6	Junio	2023-01-06T00:00:00	2024-11-08T09:00:00	2	Temperatura media	21.3
152274	7	Sololá	719	Santiago Atitlán	14	Cerro de Oro	6	Junio	2023-01-06T00:00:00	2024-11-08T09:00:00	4	Temperatura máxima	21.3
152275	7	Sololá	719	Santiago Atitlán	14	Cerro de Oro	6	Junio	2023-01-06T00:00:00	2024-11-08T09:00:00	3	Temperatura mínima	20.2
152276	7	Sololá	719	Santiago Atitlán	14	Cerro de Oro	6	Junio	2023-01-06T00:00:00	2024-11-08T09:00:00	5	Humedad	83
152277	7	Sololá	719	Santiago Atitlán	14	Cerro de Oro	6	Junio	2023-01-06T00:00:00	2024-11-08T09:00:00	6	Velocidad del viento	4.8
152278	7	Sololá	719	Santiago Atitlán	14	Cerro de Oro	6	Junio	2023-01-06T00:00:00	2024-11-08T09:00:00	7	Dirección del viento	4.83
152279	7	Sololá	719	Santiago Atitlán	14	Cerro de Oro	6	Junio	2023-01-06T00:00:00	2024-11-08T09:00:00	1	Precipitación	0
152280	7	Sololá	719	Santiago Atitlán	14	Cerro de Oro	6	Junio	2023-01-06T00:00:00	2024-11-08T09:00:00	8	Radiación solar	516
152281	7	Sololá	719	Santiago Atitlán	14	Cerro de Oro	6	Junio	2023-01-06T00:00:00	2024-11-08T10:00:00	2	Temperatura media	22.3
152282	7	Sololá	719	Santiago Atitlán	14	Cerro de Oro	6	Junio	2023-01-06T00:00:00	2024-11-08T10:00:00	4	Temperatura máxima	22.3
152283	7	Sololá	719	Santiago Atitlán	14	Cerro de Oro	6	Junio	2023-01-06T00:00:00	2024-11-08T10:00:00	3	Temperatura mínima	21.2
152284	7	Sololá	719	Santiago Atitlán	14	Cerro de Oro	6	Junio	2023-01-06T00:00:00	2024-11-08T10:00:00	5	Humedad	77
152285	7	Sololá	719	Santiago Atitlán	14	Cerro de Oro	6	Junio	2023-01-06T00:00:00	2024-11-08T10:00:00	6	Velocidad del viento	4.8
152286	7	Sololá	719	Santiago Atitlán	14	Cerro de Oro	6	Junio	2023-01-06T00:00:00	2024-11-08T10:00:00	7	Dirección del viento	4.83
152287	7	Sololá	719	Santiago Atitlán	14	Cerro de Oro	6	Junio	2023-01-06T00:00:00	2024-11-08T10:00:00	1	Precipitación	0
152288	7	Sololá	719	Santiago Atitlán	14	Cerro de Oro	6	Junio	2023-01-06T00:00:00	2024-11-08T10:00:00	8	Radiación solar	713
152289	7	Sololá	719	Santiago Atitlán	14	Cerro de Oro	6	Junio	2023-01-06T00:00:00	2024-11-08T11:00:00	2	Temperatura media	23.1
152290	7	Sololá	719	Santiago Atitlán	14	Cerro de Oro	6	Junio	2023-01-06T00:00:00	2024-11-08T11:00:00	4	Temperatura máxima	23.4
152291	7	Sololá	719	Santiago Atitlán	14	Cerro de Oro	6	Junio	2023-01-06T00:00:00	2024-11-08T11:00:00	3	Temperatura mínima	22.2
152292	7	Sololá	719	Santiago Atitlán	14	Cerro de Oro	6	Junio	2023-01-06T00:00:00	2024-11-08T11:00:00	5	Humedad	78
152293	7	Sololá	719	Santiago Atitlán	14	Cerro de Oro	6	Junio	2023-01-06T00:00:00	2024-11-08T11:00:00	6	Velocidad del viento	8
152294	7	Sololá	719	Santiago Atitlán	14	Cerro de Oro	6	Junio	2023-01-06T00:00:00	2024-11-08T11:00:00	7	Dirección del viento	8.05
152295	7	Sololá	719	Santiago Atitlán	14	Cerro de Oro	6	Junio	2023-01-06T00:00:00	2024-11-08T11:00:00	1	Precipitación	0
152296	7	Sololá	719	Santiago Atitlán	14	Cerro de Oro	6	Junio	2023-01-06T00:00:00	2024-11-08T11:00:00	8	Radiación solar	882
152297	7	Sololá	719	Santiago Atitlán	14	Cerro de Oro	6	Junio	2023-01-06T00:00:00	2024-11-08T12:00:00	2	Temperatura media	22.5
152298	7	Sololá	719	Santiago Atitlán	14	Cerro de Oro	6	Junio	2023-01-06T00:00:00	2024-11-08T12:00:00	4	Temperatura máxima	23.7
152299	7	Sololá	719	Santiago Atitlán	14	Cerro de Oro	6	Junio	2023-01-06T00:00:00	2024-11-08T12:00:00	3	Temperatura mínima	22.5
152300	7	Sololá	719	Santiago Atitlán	14	Cerro de Oro	6	Junio	2023-01-06T00:00:00	2024-11-08T12:00:00	5	Humedad	79
152301	7	Sololá	719	Santiago Atitlán	14	Cerro de Oro	6	Junio	2023-01-06T00:00:00	2024-11-08T12:00:00	6	Velocidad del viento	9.7
152302	7	Sololá	719	Santiago Atitlán	14	Cerro de Oro	6	Junio	2023-01-06T00:00:00	2024-11-08T12:00:00	7	Dirección del viento	9.66
152303	7	Sololá	719	Santiago Atitlán	14	Cerro de Oro	6	Junio	2023-01-06T00:00:00	2024-11-08T12:00:00	1	Precipitación	0
152304	7	Sololá	719	Santiago Atitlán	14	Cerro de Oro	6	Junio	2023-01-06T00:00:00	2024-11-08T12:00:00	8	Radiación solar	692
152305	7	Sololá	719	Santiago Atitlán	14	Cerro de Oro	6	Junio	2023-01-06T00:00:00	2024-11-08T13:00:00	2	Temperatura media	22.1
152306	7	Sololá	719	Santiago Atitlán	14	Cerro de Oro	6	Junio	2023-01-06T00:00:00	2024-11-08T13:00:00	4	Temperatura máxima	23.6
152307	7	Sololá	719	Santiago Atitlán	14	Cerro de Oro	6	Junio	2023-01-06T00:00:00	2024-11-08T13:00:00	3	Temperatura mínima	22.1
152308	7	Sololá	719	Santiago Atitlán	14	Cerro de Oro	6	Junio	2023-01-06T00:00:00	2024-11-08T13:00:00	5	Humedad	80
152309	7	Sololá	719	Santiago Atitlán	14	Cerro de Oro	6	Junio	2023-01-06T00:00:00	2024-11-08T13:00:00	6	Velocidad del viento	9.7
152310	7	Sololá	719	Santiago Atitlán	14	Cerro de Oro	6	Junio	2023-01-06T00:00:00	2024-11-08T13:00:00	7	Dirección del viento	9.66
152311	7	Sololá	719	Santiago Atitlán	14	Cerro de Oro	6	Junio	2023-01-06T00:00:00	2024-11-08T13:00:00	1	Precipitación	0
152312	7	Sololá	719	Santiago Atitlán	14	Cerro de Oro	6	Junio	2023-01-06T00:00:00	2024-11-08T13:00:00	8	Radiación solar	420
152313	7	Sololá	719	Santiago Atitlán	14	Cerro de Oro	6	Junio	2023-01-06T00:00:00	2024-11-08T14:00:00	2	Temperatura media	22.2
152314	7	Sololá	719	Santiago Atitlán	14	Cerro de Oro	6	Junio	2023-01-06T00:00:00	2024-11-08T14:00:00	4	Temperatura máxima	22.3
152315	7	Sololá	719	Santiago Atitlán	14	Cerro de Oro	6	Junio	2023-01-06T00:00:00	2024-11-08T14:00:00	3	Temperatura mínima	21.6
152316	7	Sololá	719	Santiago Atitlán	14	Cerro de Oro	6	Junio	2023-01-06T00:00:00	2024-11-08T14:00:00	5	Humedad	83
152317	7	Sololá	719	Santiago Atitlán	14	Cerro de Oro	6	Junio	2023-01-06T00:00:00	2024-11-08T14:00:00	6	Velocidad del viento	11.3
152318	7	Sololá	719	Santiago Atitlán	14	Cerro de Oro	6	Junio	2023-01-06T00:00:00	2024-11-08T14:00:00	7	Dirección del viento	11.27
152319	7	Sololá	719	Santiago Atitlán	14	Cerro de Oro	6	Junio	2023-01-06T00:00:00	2024-11-08T14:00:00	1	Precipitación	0
152320	7	Sololá	719	Santiago Atitlán	14	Cerro de Oro	6	Junio	2023-01-06T00:00:00	2024-11-08T14:00:00	8	Radiación solar	315
152321	7	Sololá	719	Santiago Atitlán	14	Cerro de Oro	6	Junio	2023-01-06T00:00:00	2024-11-08T15:00:00	2	Temperatura media	22.1
152322	7	Sololá	719	Santiago Atitlán	14	Cerro de Oro	6	Junio	2023-01-06T00:00:00	2024-11-08T15:00:00	4	Temperatura máxima	22.8
152323	7	Sololá	719	Santiago Atitlán	14	Cerro de Oro	6	Junio	2023-01-06T00:00:00	2024-11-08T15:00:00	3	Temperatura mínima	22
152324	7	Sololá	719	Santiago Atitlán	14	Cerro de Oro	6	Junio	2023-01-06T00:00:00	2024-11-08T15:00:00	5	Humedad	83
152325	7	Sololá	719	Santiago Atitlán	14	Cerro de Oro	6	Junio	2023-01-06T00:00:00	2024-11-08T15:00:00	6	Velocidad del viento	8
152326	7	Sololá	719	Santiago Atitlán	14	Cerro de Oro	6	Junio	2023-01-06T00:00:00	2024-11-08T15:00:00	7	Dirección del viento	8.05
152327	7	Sololá	719	Santiago Atitlán	14	Cerro de Oro	6	Junio	2023-01-06T00:00:00	2024-11-08T15:00:00	1	Precipitación	0
152328	7	Sololá	719	Santiago Atitlán	14	Cerro de Oro	6	Junio	2023-01-06T00:00:00	2024-11-08T15:00:00	8	Radiación solar	262
152329	7	Sololá	719	Santiago Atitlán	14	Cerro de Oro	6	Junio	2023-01-06T00:00:00	2024-11-08T16:00:00	2	Temperatura media	22.4
152330	7	Sololá	719	Santiago Atitlán	14	Cerro de Oro	6	Junio	2023-01-06T00:00:00	2024-11-08T16:00:00	4	Temperatura máxima	22.4
152331	7	Sololá	719	Santiago Atitlán	14	Cerro de Oro	6	Junio	2023-01-06T00:00:00	2024-11-08T16:00:00	3	Temperatura mínima	21.8
152332	7	Sololá	719	Santiago Atitlán	14	Cerro de Oro	6	Junio	2023-01-06T00:00:00	2024-11-08T16:00:00	5	Humedad	81
152333	7	Sololá	719	Santiago Atitlán	14	Cerro de Oro	6	Junio	2023-01-06T00:00:00	2024-11-08T16:00:00	6	Velocidad del viento	4.8
152334	7	Sololá	719	Santiago Atitlán	14	Cerro de Oro	6	Junio	2023-01-06T00:00:00	2024-11-08T16:00:00	7	Dirección del viento	4.83
152335	7	Sololá	719	Santiago Atitlán	14	Cerro de Oro	6	Junio	2023-01-06T00:00:00	2024-11-08T16:00:00	1	Precipitación	0
152336	7	Sololá	719	Santiago Atitlán	14	Cerro de Oro	6	Junio	2023-01-06T00:00:00	2024-11-08T16:00:00	8	Radiación solar	156
152337	7	Sololá	719	Santiago Atitlán	14	Cerro de Oro	6	Junio	2023-01-06T00:00:00	2024-11-08T17:00:00	2	Temperatura media	21.7
152338	7	Sololá	719	Santiago Atitlán	14	Cerro de Oro	6	Junio	2023-01-06T00:00:00	2024-11-08T17:00:00	4	Temperatura máxima	22.5
152339	7	Sololá	719	Santiago Atitlán	14	Cerro de Oro	6	Junio	2023-01-06T00:00:00	2024-11-08T17:00:00	3	Temperatura mínima	21.7
152340	7	Sololá	719	Santiago Atitlán	14	Cerro de Oro	6	Junio	2023-01-06T00:00:00	2024-11-08T17:00:00	5	Humedad	85
152341	7	Sololá	719	Santiago Atitlán	14	Cerro de Oro	6	Junio	2023-01-06T00:00:00	2024-11-08T17:00:00	6	Velocidad del viento	6.4
152342	7	Sololá	719	Santiago Atitlán	14	Cerro de Oro	6	Junio	2023-01-06T00:00:00	2024-11-08T17:00:00	7	Dirección del viento	6.44
152343	7	Sololá	719	Santiago Atitlán	14	Cerro de Oro	6	Junio	2023-01-06T00:00:00	2024-11-08T17:00:00	1	Precipitación	0
152344	7	Sololá	719	Santiago Atitlán	14	Cerro de Oro	6	Junio	2023-01-06T00:00:00	2024-11-08T17:00:00	8	Radiación solar	110
152345	7	Sololá	719	Santiago Atitlán	14	Cerro de Oro	6	Junio	2023-01-06T00:00:00	2024-11-08T18:00:00	2	Temperatura media	21
152346	7	Sololá	719	Santiago Atitlán	14	Cerro de Oro	6	Junio	2023-01-06T00:00:00	2024-11-08T18:00:00	4	Temperatura máxima	21.7
152347	7	Sololá	719	Santiago Atitlán	14	Cerro de Oro	6	Junio	2023-01-06T00:00:00	2024-11-08T18:00:00	3	Temperatura mínima	20.9
152348	7	Sololá	719	Santiago Atitlán	14	Cerro de Oro	6	Junio	2023-01-06T00:00:00	2024-11-08T18:00:00	5	Humedad	87
152349	7	Sololá	719	Santiago Atitlán	14	Cerro de Oro	6	Junio	2023-01-06T00:00:00	2024-11-08T18:00:00	6	Velocidad del viento	8
152350	7	Sololá	719	Santiago Atitlán	14	Cerro de Oro	6	Junio	2023-01-06T00:00:00	2024-11-08T18:00:00	7	Dirección del viento	8.05
152351	7	Sololá	719	Santiago Atitlán	14	Cerro de Oro	6	Junio	2023-01-06T00:00:00	2024-11-08T18:00:00	1	Precipitación	0
152352	7	Sololá	719	Santiago Atitlán	14	Cerro de Oro	6	Junio	2023-01-06T00:00:00	2024-11-08T18:00:00	8	Radiación solar	43
152353	7	Sololá	719	Santiago Atitlán	14	Cerro de Oro	6	Junio	2023-01-06T00:00:00	2024-11-08T19:00:00	2	Temperatura media	20.3
152354	7	Sololá	719	Santiago Atitlán	14	Cerro de Oro	6	Junio	2023-01-06T00:00:00	2024-11-08T19:00:00	4	Temperatura máxima	21
152355	7	Sololá	719	Santiago Atitlán	14	Cerro de Oro	6	Junio	2023-01-06T00:00:00	2024-11-08T19:00:00	3	Temperatura mínima	20.3
152356	7	Sololá	719	Santiago Atitlán	14	Cerro de Oro	6	Junio	2023-01-06T00:00:00	2024-11-08T19:00:00	5	Humedad	89
152357	7	Sololá	719	Santiago Atitlán	14	Cerro de Oro	6	Junio	2023-01-06T00:00:00	2024-11-08T19:00:00	6	Velocidad del viento	6.4
152358	7	Sololá	719	Santiago Atitlán	14	Cerro de Oro	6	Junio	2023-01-06T00:00:00	2024-11-08T19:00:00	7	Dirección del viento	6.44
152359	7	Sololá	719	Santiago Atitlán	14	Cerro de Oro	6	Junio	2023-01-06T00:00:00	2024-11-08T19:00:00	1	Precipitación	0
152360	7	Sololá	719	Santiago Atitlán	14	Cerro de Oro	6	Junio	2023-01-06T00:00:00	2024-11-08T19:00:00	8	Radiación solar	0
152361	7	Sololá	719	Santiago Atitlán	14	Cerro de Oro	6	Junio	2023-01-06T00:00:00	2024-11-08T20:00:00	2	Temperatura media	20.3
152362	7	Sololá	719	Santiago Atitlán	14	Cerro de Oro	6	Junio	2023-01-06T00:00:00	2024-11-08T20:00:00	4	Temperatura máxima	20.3
152363	7	Sololá	719	Santiago Atitlán	14	Cerro de Oro	6	Junio	2023-01-06T00:00:00	2024-11-08T20:00:00	3	Temperatura mínima	20.1
152364	7	Sololá	719	Santiago Atitlán	14	Cerro de Oro	6	Junio	2023-01-06T00:00:00	2024-11-08T20:00:00	5	Humedad	88
152365	7	Sololá	719	Santiago Atitlán	14	Cerro de Oro	6	Junio	2023-01-06T00:00:00	2024-11-08T20:00:00	6	Velocidad del viento	4.8
152366	7	Sololá	719	Santiago Atitlán	14	Cerro de Oro	6	Junio	2023-01-06T00:00:00	2024-11-08T20:00:00	7	Dirección del viento	4.83
152367	7	Sololá	719	Santiago Atitlán	14	Cerro de Oro	6	Junio	2023-01-06T00:00:00	2024-11-08T20:00:00	1	Precipitación	0
152368	7	Sololá	719	Santiago Atitlán	14	Cerro de Oro	6	Junio	2023-01-06T00:00:00	2024-11-08T20:00:00	8	Radiación solar	0
152369	7	Sololá	719	Santiago Atitlán	14	Cerro de Oro	6	Junio	2023-01-06T00:00:00	2024-11-08T21:00:00	2	Temperatura media	19.3
152370	7	Sololá	719	Santiago Atitlán	14	Cerro de Oro	6	Junio	2023-01-06T00:00:00	2024-11-08T21:00:00	4	Temperatura máxima	20.4
152371	7	Sololá	719	Santiago Atitlán	14	Cerro de Oro	6	Junio	2023-01-06T00:00:00	2024-11-08T21:00:00	3	Temperatura mínima	19.3
152372	7	Sololá	719	Santiago Atitlán	14	Cerro de Oro	6	Junio	2023-01-06T00:00:00	2024-11-08T21:00:00	5	Humedad	93
152373	7	Sololá	719	Santiago Atitlán	14	Cerro de Oro	6	Junio	2023-01-06T00:00:00	2024-11-08T21:00:00	6	Velocidad del viento	9.7
152374	7	Sololá	719	Santiago Atitlán	14	Cerro de Oro	6	Junio	2023-01-06T00:00:00	2024-11-08T21:00:00	7	Dirección del viento	9.66
152375	7	Sololá	719	Santiago Atitlán	14	Cerro de Oro	6	Junio	2023-01-06T00:00:00	2024-11-08T21:00:00	1	Precipitación	0
152376	7	Sololá	719	Santiago Atitlán	14	Cerro de Oro	6	Junio	2023-01-06T00:00:00	2024-11-08T21:00:00	8	Radiación solar	0
152377	7	Sololá	719	Santiago Atitlán	14	Cerro de Oro	6	Junio	2023-01-06T00:00:00	2024-11-08T22:00:00	2	Temperatura media	18.7
152378	7	Sololá	719	Santiago Atitlán	14	Cerro de Oro	6	Junio	2023-01-06T00:00:00	2024-11-08T22:00:00	4	Temperatura máxima	19.3
152379	7	Sololá	719	Santiago Atitlán	14	Cerro de Oro	6	Junio	2023-01-06T00:00:00	2024-11-08T22:00:00	3	Temperatura mínima	18.6
152380	7	Sololá	719	Santiago Atitlán	14	Cerro de Oro	6	Junio	2023-01-06T00:00:00	2024-11-08T22:00:00	5	Humedad	93
152381	7	Sololá	719	Santiago Atitlán	14	Cerro de Oro	6	Junio	2023-01-06T00:00:00	2024-11-08T22:00:00	6	Velocidad del viento	9.7
152382	7	Sololá	719	Santiago Atitlán	14	Cerro de Oro	6	Junio	2023-01-06T00:00:00	2024-11-08T22:00:00	7	Dirección del viento	9.66
152383	7	Sololá	719	Santiago Atitlán	14	Cerro de Oro	6	Junio	2023-01-06T00:00:00	2024-11-08T22:00:00	1	Precipitación	0
152384	7	Sololá	719	Santiago Atitlán	14	Cerro de Oro	6	Junio	2023-01-06T00:00:00	2024-11-08T22:00:00	8	Radiación solar	0
152385	7	Sololá	719	Santiago Atitlán	14	Cerro de Oro	6	Junio	2023-01-06T00:00:00	2024-11-08T23:00:00	2	Temperatura media	19.3
152386	7	Sololá	719	Santiago Atitlán	14	Cerro de Oro	6	Junio	2023-01-06T00:00:00	2024-11-08T23:00:00	4	Temperatura máxima	19.7
152387	7	Sololá	719	Santiago Atitlán	14	Cerro de Oro	6	Junio	2023-01-06T00:00:00	2024-11-08T23:00:00	3	Temperatura mínima	18.7
152388	7	Sololá	719	Santiago Atitlán	14	Cerro de Oro	6	Junio	2023-01-06T00:00:00	2024-11-08T23:00:00	5	Humedad	89
152389	7	Sololá	719	Santiago Atitlán	14	Cerro de Oro	6	Junio	2023-01-06T00:00:00	2024-11-08T23:00:00	6	Velocidad del viento	4.8
152390	7	Sololá	719	Santiago Atitlán	14	Cerro de Oro	6	Junio	2023-01-06T00:00:00	2024-11-08T23:00:00	7	Dirección del viento	4.83
152391	7	Sololá	719	Santiago Atitlán	14	Cerro de Oro	6	Junio	2023-01-06T00:00:00	2024-11-08T23:00:00	1	Precipitación	0
152392	7	Sololá	719	Santiago Atitlán	14	Cerro de Oro	6	Junio	2023-01-06T00:00:00	2024-11-08T23:00:00	8	Radiación solar	0
152393	7	Sololá	719	Santiago Atitlán	14	Cerro de Oro	6	Junio	2023-02-06T00:00:00	2024-11-08T00:00:00	2	Temperatura media	19.1
152394	7	Sololá	719	Santiago Atitlán	14	Cerro de Oro	6	Junio	2023-02-06T00:00:00	2024-11-08T00:00:00	4	Temperatura máxima	19.3
152395	7	Sololá	719	Santiago Atitlán	14	Cerro de Oro	6	Junio	2023-02-06T00:00:00	2024-11-08T00:00:00	3	Temperatura mínima	19.1
152396	7	Sololá	719	Santiago Atitlán	14	Cerro de Oro	6	Junio	2023-02-06T00:00:00	2024-11-08T00:00:00	5	Humedad	90
152397	7	Sololá	719	Santiago Atitlán	14	Cerro de Oro	6	Junio	2023-02-06T00:00:00	2024-11-08T00:00:00	6	Velocidad del viento	3.2
152398	7	Sololá	719	Santiago Atitlán	14	Cerro de Oro	6	Junio	2023-02-06T00:00:00	2024-11-08T00:00:00	7	Dirección del viento	3.22
152399	7	Sololá	719	Santiago Atitlán	14	Cerro de Oro	6	Junio	2023-02-06T00:00:00	2024-11-08T00:00:00	1	Precipitación	0
152400	7	Sololá	719	Santiago Atitlán	14	Cerro de Oro	6	Junio	2023-02-06T00:00:00	2024-11-08T00:00:00	8	Radiación solar	0
152401	7	Sololá	719	Santiago Atitlán	14	Cerro de Oro	6	Junio	2023-02-06T00:00:00	2024-11-08T01:00:00	2	Temperatura media	19.1
152402	7	Sololá	719	Santiago Atitlán	14	Cerro de Oro	6	Junio	2023-02-06T00:00:00	2024-11-08T01:00:00	4	Temperatura máxima	19.3
152403	7	Sololá	719	Santiago Atitlán	14	Cerro de Oro	6	Junio	2023-02-06T00:00:00	2024-11-08T01:00:00	3	Temperatura mínima	18.9
152404	7	Sololá	719	Santiago Atitlán	14	Cerro de Oro	6	Junio	2023-02-06T00:00:00	2024-11-08T01:00:00	5	Humedad	91
152405	7	Sololá	719	Santiago Atitlán	14	Cerro de Oro	6	Junio	2023-02-06T00:00:00	2024-11-08T01:00:00	6	Velocidad del viento	3.2
152406	7	Sololá	719	Santiago Atitlán	14	Cerro de Oro	6	Junio	2023-02-06T00:00:00	2024-11-08T01:00:00	7	Dirección del viento	3.22
152407	7	Sololá	719	Santiago Atitlán	14	Cerro de Oro	6	Junio	2023-02-06T00:00:00	2024-11-08T01:00:00	1	Precipitación	0
152408	7	Sololá	719	Santiago Atitlán	14	Cerro de Oro	6	Junio	2023-02-06T00:00:00	2024-11-08T01:00:00	8	Radiación solar	0
152409	7	Sololá	719	Santiago Atitlán	14	Cerro de Oro	6	Junio	2023-02-06T00:00:00	2024-11-08T02:00:00	2	Temperatura media	19.1
152410	7	Sololá	719	Santiago Atitlán	14	Cerro de Oro	6	Junio	2023-02-06T00:00:00	2024-11-08T02:00:00	4	Temperatura máxima	19.4
152411	7	Sololá	719	Santiago Atitlán	14	Cerro de Oro	6	Junio	2023-02-06T00:00:00	2024-11-08T02:00:00	3	Temperatura mínima	19.1
152412	7	Sololá	719	Santiago Atitlán	14	Cerro de Oro	6	Junio	2023-02-06T00:00:00	2024-11-08T02:00:00	5	Humedad	88
152413	7	Sololá	719	Santiago Atitlán	14	Cerro de Oro	6	Junio	2023-02-06T00:00:00	2024-11-08T02:00:00	6	Velocidad del viento	3.2
152414	7	Sololá	719	Santiago Atitlán	14	Cerro de Oro	6	Junio	2023-02-06T00:00:00	2024-11-08T02:00:00	7	Dirección del viento	3.22
152415	7	Sololá	719	Santiago Atitlán	14	Cerro de Oro	6	Junio	2023-02-06T00:00:00	2024-11-08T02:00:00	1	Precipitación	0
152416	7	Sololá	719	Santiago Atitlán	14	Cerro de Oro	6	Junio	2023-02-06T00:00:00	2024-11-08T02:00:00	8	Radiación solar	0
152417	7	Sololá	719	Santiago Atitlán	14	Cerro de Oro	6	Junio	2023-02-06T00:00:00	2024-11-08T03:00:00	2	Temperatura media	18.4
152418	7	Sololá	719	Santiago Atitlán	14	Cerro de Oro	6	Junio	2023-02-06T00:00:00	2024-11-08T03:00:00	4	Temperatura máxima	19.1
152419	7	Sololá	719	Santiago Atitlán	14	Cerro de Oro	6	Junio	2023-02-06T00:00:00	2024-11-08T03:00:00	3	Temperatura mínima	18.4
152420	7	Sololá	719	Santiago Atitlán	14	Cerro de Oro	6	Junio	2023-02-06T00:00:00	2024-11-08T03:00:00	5	Humedad	88
152421	7	Sololá	719	Santiago Atitlán	14	Cerro de Oro	6	Junio	2023-02-06T00:00:00	2024-11-08T03:00:00	6	Velocidad del viento	4.8
152422	7	Sololá	719	Santiago Atitlán	14	Cerro de Oro	6	Junio	2023-02-06T00:00:00	2024-11-08T03:00:00	7	Dirección del viento	4.83
152423	7	Sololá	719	Santiago Atitlán	14	Cerro de Oro	6	Junio	2023-02-06T00:00:00	2024-11-08T03:00:00	1	Precipitación	0
152424	7	Sololá	719	Santiago Atitlán	14	Cerro de Oro	6	Junio	2023-02-06T00:00:00	2024-11-08T03:00:00	8	Radiación solar	0
152425	7	Sololá	719	Santiago Atitlán	14	Cerro de Oro	6	Junio	2023-02-06T00:00:00	2024-11-08T04:00:00	2	Temperatura media	18.7
152426	7	Sololá	719	Santiago Atitlán	14	Cerro de Oro	6	Junio	2023-02-06T00:00:00	2024-11-08T04:00:00	4	Temperatura máxima	18.7
152427	7	Sololá	719	Santiago Atitlán	14	Cerro de Oro	6	Junio	2023-02-06T00:00:00	2024-11-08T04:00:00	3	Temperatura mínima	18.3
152428	7	Sololá	719	Santiago Atitlán	14	Cerro de Oro	6	Junio	2023-02-06T00:00:00	2024-11-08T04:00:00	5	Humedad	87
152429	7	Sololá	719	Santiago Atitlán	14	Cerro de Oro	6	Junio	2023-02-06T00:00:00	2024-11-08T04:00:00	6	Velocidad del viento	4.8
152430	7	Sololá	719	Santiago Atitlán	14	Cerro de Oro	6	Junio	2023-02-06T00:00:00	2024-11-08T04:00:00	7	Dirección del viento	4.83
152431	7	Sololá	719	Santiago Atitlán	14	Cerro de Oro	6	Junio	2023-02-06T00:00:00	2024-11-08T04:00:00	1	Precipitación	0
152432	7	Sololá	719	Santiago Atitlán	14	Cerro de Oro	6	Junio	2023-02-06T00:00:00	2024-11-08T04:00:00	8	Radiación solar	0
152433	7	Sololá	719	Santiago Atitlán	14	Cerro de Oro	6	Junio	2023-02-06T00:00:00	2024-11-08T05:00:00	2	Temperatura media	18.2
152434	7	Sololá	719	Santiago Atitlán	14	Cerro de Oro	6	Junio	2023-02-06T00:00:00	2024-11-08T05:00:00	4	Temperatura máxima	18.7
152435	7	Sololá	719	Santiago Atitlán	14	Cerro de Oro	6	Junio	2023-02-06T00:00:00	2024-11-08T05:00:00	3	Temperatura mínima	18.2
152436	7	Sololá	719	Santiago Atitlán	14	Cerro de Oro	6	Junio	2023-02-06T00:00:00	2024-11-08T05:00:00	5	Humedad	89
152437	7	Sololá	719	Santiago Atitlán	14	Cerro de Oro	6	Junio	2023-02-06T00:00:00	2024-11-08T05:00:00	6	Velocidad del viento	4.8
152438	7	Sololá	719	Santiago Atitlán	14	Cerro de Oro	6	Junio	2023-02-06T00:00:00	2024-11-08T05:00:00	7	Dirección del viento	4.83
152439	7	Sololá	719	Santiago Atitlán	14	Cerro de Oro	6	Junio	2023-02-06T00:00:00	2024-11-08T05:00:00	1	Precipitación	0
152440	7	Sololá	719	Santiago Atitlán	14	Cerro de Oro	6	Junio	2023-02-06T00:00:00	2024-11-08T05:00:00	8	Radiación solar	0
152441	7	Sololá	719	Santiago Atitlán	14	Cerro de Oro	6	Junio	2023-02-06T00:00:00	2024-11-08T06:00:00	2	Temperatura media	18.5
152442	7	Sololá	719	Santiago Atitlán	14	Cerro de Oro	6	Junio	2023-02-06T00:00:00	2024-11-08T06:00:00	4	Temperatura máxima	18.5
152443	7	Sololá	719	Santiago Atitlán	14	Cerro de Oro	6	Junio	2023-02-06T00:00:00	2024-11-08T06:00:00	3	Temperatura mínima	18
152444	7	Sololá	719	Santiago Atitlán	14	Cerro de Oro	6	Junio	2023-02-06T00:00:00	2024-11-08T06:00:00	5	Humedad	84
152445	7	Sololá	719	Santiago Atitlán	14	Cerro de Oro	6	Junio	2023-02-06T00:00:00	2024-11-08T06:00:00	6	Velocidad del viento	3.2
152446	7	Sololá	719	Santiago Atitlán	14	Cerro de Oro	6	Junio	2023-02-06T00:00:00	2024-11-08T06:00:00	7	Dirección del viento	3.22
152447	7	Sololá	719	Santiago Atitlán	14	Cerro de Oro	6	Junio	2023-02-06T00:00:00	2024-11-08T06:00:00	1	Precipitación	0
152448	7	Sololá	719	Santiago Atitlán	14	Cerro de Oro	6	Junio	2023-02-06T00:00:00	2024-11-08T06:00:00	8	Radiación solar	5
152449	7	Sololá	719	Santiago Atitlán	14	Cerro de Oro	6	Junio	2023-02-06T00:00:00	2024-11-08T07:00:00	2	Temperatura media	20.3
152450	7	Sololá	719	Santiago Atitlán	14	Cerro de Oro	6	Junio	2023-02-06T00:00:00	2024-11-08T07:00:00	4	Temperatura máxima	20.3
152451	7	Sololá	719	Santiago Atitlán	14	Cerro de Oro	6	Junio	2023-02-06T00:00:00	2024-11-08T07:00:00	3	Temperatura mínima	18.5
152452	7	Sololá	719	Santiago Atitlán	14	Cerro de Oro	6	Junio	2023-02-06T00:00:00	2024-11-08T07:00:00	5	Humedad	79
152453	7	Sololá	719	Santiago Atitlán	14	Cerro de Oro	6	Junio	2023-02-06T00:00:00	2024-11-08T07:00:00	6	Velocidad del viento	3.2
152454	7	Sololá	719	Santiago Atitlán	14	Cerro de Oro	6	Junio	2023-02-06T00:00:00	2024-11-08T07:00:00	7	Dirección del viento	3.22
152455	7	Sololá	719	Santiago Atitlán	14	Cerro de Oro	6	Junio	2023-02-06T00:00:00	2024-11-08T07:00:00	1	Precipitación	0
152456	7	Sololá	719	Santiago Atitlán	14	Cerro de Oro	6	Junio	2023-02-06T00:00:00	2024-11-08T07:00:00	8	Radiación solar	116
152457	7	Sololá	719	Santiago Atitlán	14	Cerro de Oro	6	Junio	2023-02-06T00:00:00	2024-11-08T08:00:00	2	Temperatura media	21.3
152458	7	Sololá	719	Santiago Atitlán	14	Cerro de Oro	6	Junio	2023-02-06T00:00:00	2024-11-08T08:00:00	4	Temperatura máxima	21.4
152459	7	Sololá	719	Santiago Atitlán	14	Cerro de Oro	6	Junio	2023-02-06T00:00:00	2024-11-08T08:00:00	3	Temperatura mínima	20.3
152460	7	Sololá	719	Santiago Atitlán	14	Cerro de Oro	6	Junio	2023-02-06T00:00:00	2024-11-08T08:00:00	5	Humedad	75
152461	7	Sololá	719	Santiago Atitlán	14	Cerro de Oro	6	Junio	2023-02-06T00:00:00	2024-11-08T08:00:00	6	Velocidad del viento	3.2
152462	7	Sololá	719	Santiago Atitlán	14	Cerro de Oro	6	Junio	2023-02-06T00:00:00	2024-11-08T08:00:00	7	Dirección del viento	3.22
152463	7	Sololá	719	Santiago Atitlán	14	Cerro de Oro	6	Junio	2023-02-06T00:00:00	2024-11-08T08:00:00	1	Precipitación	0
152464	7	Sololá	719	Santiago Atitlán	14	Cerro de Oro	6	Junio	2023-02-06T00:00:00	2024-11-08T08:00:00	8	Radiación solar	309
152465	7	Sololá	719	Santiago Atitlán	14	Cerro de Oro	6	Junio	2023-02-06T00:00:00	2024-11-08T09:00:00	2	Temperatura media	21.8
152466	7	Sololá	719	Santiago Atitlán	14	Cerro de Oro	6	Junio	2023-02-06T00:00:00	2024-11-08T09:00:00	4	Temperatura máxima	21.8
152467	7	Sololá	719	Santiago Atitlán	14	Cerro de Oro	6	Junio	2023-02-06T00:00:00	2024-11-08T09:00:00	3	Temperatura mínima	21.3
152468	7	Sololá	719	Santiago Atitlán	14	Cerro de Oro	6	Junio	2023-02-06T00:00:00	2024-11-08T09:00:00	5	Humedad	77
152469	7	Sololá	719	Santiago Atitlán	14	Cerro de Oro	6	Junio	2023-02-06T00:00:00	2024-11-08T09:00:00	6	Velocidad del viento	4.8
152470	7	Sololá	719	Santiago Atitlán	14	Cerro de Oro	6	Junio	2023-02-06T00:00:00	2024-11-08T09:00:00	7	Dirección del viento	4.83
152471	7	Sololá	719	Santiago Atitlán	14	Cerro de Oro	6	Junio	2023-02-06T00:00:00	2024-11-08T09:00:00	1	Precipitación	0
152472	7	Sololá	719	Santiago Atitlán	14	Cerro de Oro	6	Junio	2023-02-06T00:00:00	2024-11-08T09:00:00	8	Radiación solar	530
152473	7	Sololá	719	Santiago Atitlán	14	Cerro de Oro	6	Junio	2023-02-06T00:00:00	2024-11-08T10:00:00	2	Temperatura media	23.1
152474	7	Sololá	719	Santiago Atitlán	14	Cerro de Oro	6	Junio	2023-02-06T00:00:00	2024-11-08T10:00:00	4	Temperatura máxima	23.1
152475	7	Sololá	719	Santiago Atitlán	14	Cerro de Oro	6	Junio	2023-02-06T00:00:00	2024-11-08T10:00:00	3	Temperatura mínima	21.6
152476	7	Sololá	719	Santiago Atitlán	14	Cerro de Oro	6	Junio	2023-02-06T00:00:00	2024-11-08T10:00:00	5	Humedad	74
152477	7	Sololá	719	Santiago Atitlán	14	Cerro de Oro	6	Junio	2023-02-06T00:00:00	2024-11-08T10:00:00	6	Velocidad del viento	4.8
152478	7	Sololá	719	Santiago Atitlán	14	Cerro de Oro	6	Junio	2023-02-06T00:00:00	2024-11-08T10:00:00	7	Dirección del viento	4.83
152479	7	Sololá	719	Santiago Atitlán	14	Cerro de Oro	6	Junio	2023-02-06T00:00:00	2024-11-08T10:00:00	1	Precipitación	0
152480	7	Sololá	719	Santiago Atitlán	14	Cerro de Oro	6	Junio	2023-02-06T00:00:00	2024-11-08T10:00:00	8	Radiación solar	716
152481	7	Sololá	719	Santiago Atitlán	14	Cerro de Oro	6	Junio	2023-02-06T00:00:00	2024-11-08T11:00:00	2	Temperatura media	23.2
152482	7	Sololá	719	Santiago Atitlán	14	Cerro de Oro	6	Junio	2023-02-06T00:00:00	2024-11-08T11:00:00	4	Temperatura máxima	24
152483	7	Sololá	719	Santiago Atitlán	14	Cerro de Oro	6	Junio	2023-02-06T00:00:00	2024-11-08T11:00:00	3	Temperatura mínima	22.9
152484	7	Sololá	719	Santiago Atitlán	14	Cerro de Oro	6	Junio	2023-02-06T00:00:00	2024-11-08T11:00:00	5	Humedad	79
152485	7	Sololá	719	Santiago Atitlán	14	Cerro de Oro	6	Junio	2023-02-06T00:00:00	2024-11-08T11:00:00	6	Velocidad del viento	8
152486	7	Sololá	719	Santiago Atitlán	14	Cerro de Oro	6	Junio	2023-02-06T00:00:00	2024-11-08T11:00:00	7	Dirección del viento	8.05
152487	7	Sololá	719	Santiago Atitlán	14	Cerro de Oro	6	Junio	2023-02-06T00:00:00	2024-11-08T11:00:00	1	Precipitación	0
152488	7	Sololá	719	Santiago Atitlán	14	Cerro de Oro	6	Junio	2023-02-06T00:00:00	2024-11-08T11:00:00	8	Radiación solar	704
152489	7	Sololá	719	Santiago Atitlán	14	Cerro de Oro	6	Junio	2023-02-06T00:00:00	2024-11-08T12:00:00	2	Temperatura media	24.1
152490	7	Sololá	719	Santiago Atitlán	14	Cerro de Oro	6	Junio	2023-02-06T00:00:00	2024-11-08T12:00:00	4	Temperatura máxima	24.3
152491	7	Sololá	719	Santiago Atitlán	14	Cerro de Oro	6	Junio	2023-02-06T00:00:00	2024-11-08T12:00:00	3	Temperatura mínima	22.8
152492	7	Sololá	719	Santiago Atitlán	14	Cerro de Oro	6	Junio	2023-02-06T00:00:00	2024-11-08T12:00:00	5	Humedad	76
152493	7	Sololá	719	Santiago Atitlán	14	Cerro de Oro	6	Junio	2023-02-06T00:00:00	2024-11-08T12:00:00	6	Velocidad del viento	8
152494	7	Sololá	719	Santiago Atitlán	14	Cerro de Oro	6	Junio	2023-02-06T00:00:00	2024-11-08T12:00:00	7	Dirección del viento	8.05
152495	7	Sololá	719	Santiago Atitlán	14	Cerro de Oro	6	Junio	2023-02-06T00:00:00	2024-11-08T12:00:00	1	Precipitación	0
152496	7	Sololá	719	Santiago Atitlán	14	Cerro de Oro	6	Junio	2023-02-06T00:00:00	2024-11-08T12:00:00	8	Radiación solar	526
152497	7	Sololá	719	Santiago Atitlán	14	Cerro de Oro	6	Junio	2023-02-06T00:00:00	2024-11-08T13:00:00	2	Temperatura media	23.2
152498	7	Sololá	719	Santiago Atitlán	14	Cerro de Oro	6	Junio	2023-02-06T00:00:00	2024-11-08T13:00:00	4	Temperatura máxima	24.1
152499	7	Sololá	719	Santiago Atitlán	14	Cerro de Oro	6	Junio	2023-02-06T00:00:00	2024-11-08T13:00:00	3	Temperatura mínima	23.1
152500	7	Sololá	719	Santiago Atitlán	14	Cerro de Oro	6	Junio	2023-02-06T00:00:00	2024-11-08T13:00:00	5	Humedad	79
152501	7	Sololá	719	Santiago Atitlán	14	Cerro de Oro	6	Junio	2023-02-06T00:00:00	2024-11-08T13:00:00	6	Velocidad del viento	8
152502	7	Sololá	719	Santiago Atitlán	14	Cerro de Oro	6	Junio	2023-02-06T00:00:00	2024-11-08T13:00:00	7	Dirección del viento	8.05
152503	7	Sololá	719	Santiago Atitlán	14	Cerro de Oro	6	Junio	2023-02-06T00:00:00	2024-11-08T13:00:00	1	Precipitación	0
152504	7	Sololá	719	Santiago Atitlán	14	Cerro de Oro	6	Junio	2023-02-06T00:00:00	2024-11-08T13:00:00	8	Radiación solar	400
152505	7	Sololá	719	Santiago Atitlán	14	Cerro de Oro	6	Junio	2023-02-06T00:00:00	2024-11-08T14:00:00	2	Temperatura media	22.9
152506	7	Sololá	719	Santiago Atitlán	14	Cerro de Oro	6	Junio	2023-02-06T00:00:00	2024-11-08T14:00:00	4	Temperatura máxima	23.9
152507	7	Sololá	719	Santiago Atitlán	14	Cerro de Oro	6	Junio	2023-02-06T00:00:00	2024-11-08T14:00:00	3	Temperatura mínima	22.9
152508	7	Sololá	719	Santiago Atitlán	14	Cerro de Oro	6	Junio	2023-02-06T00:00:00	2024-11-08T14:00:00	5	Humedad	81
152509	7	Sololá	719	Santiago Atitlán	14	Cerro de Oro	6	Junio	2023-02-06T00:00:00	2024-11-08T14:00:00	6	Velocidad del viento	8
152510	7	Sololá	719	Santiago Atitlán	14	Cerro de Oro	6	Junio	2023-02-06T00:00:00	2024-11-08T14:00:00	7	Dirección del viento	8.05
152511	7	Sololá	719	Santiago Atitlán	14	Cerro de Oro	6	Junio	2023-02-06T00:00:00	2024-11-08T14:00:00	1	Precipitación	0
152512	7	Sololá	719	Santiago Atitlán	14	Cerro de Oro	6	Junio	2023-02-06T00:00:00	2024-11-08T14:00:00	8	Radiación solar	396
152513	7	Sololá	719	Santiago Atitlán	14	Cerro de Oro	6	Junio	2023-02-06T00:00:00	2024-11-08T15:00:00	2	Temperatura media	22.2
152514	7	Sololá	719	Santiago Atitlán	14	Cerro de Oro	6	Junio	2023-02-06T00:00:00	2024-11-08T15:00:00	4	Temperatura máxima	23
152515	7	Sololá	719	Santiago Atitlán	14	Cerro de Oro	6	Junio	2023-02-06T00:00:00	2024-11-08T15:00:00	3	Temperatura mínima	22.2
152516	7	Sololá	719	Santiago Atitlán	14	Cerro de Oro	6	Junio	2023-02-06T00:00:00	2024-11-08T15:00:00	5	Humedad	83
152517	7	Sololá	719	Santiago Atitlán	14	Cerro de Oro	6	Junio	2023-02-06T00:00:00	2024-11-08T15:00:00	6	Velocidad del viento	8
152518	7	Sololá	719	Santiago Atitlán	14	Cerro de Oro	6	Junio	2023-02-06T00:00:00	2024-11-08T15:00:00	7	Dirección del viento	8.05
152519	7	Sololá	719	Santiago Atitlán	14	Cerro de Oro	6	Junio	2023-02-06T00:00:00	2024-11-08T15:00:00	1	Precipitación	0
152520	7	Sololá	719	Santiago Atitlán	14	Cerro de Oro	6	Junio	2023-02-06T00:00:00	2024-11-08T15:00:00	8	Radiación solar	167
152521	7	Sololá	719	Santiago Atitlán	14	Cerro de Oro	6	Junio	2023-02-06T00:00:00	2024-11-08T16:00:00	2	Temperatura media	22
152522	7	Sololá	719	Santiago Atitlán	14	Cerro de Oro	6	Junio	2023-02-06T00:00:00	2024-11-08T16:00:00	4	Temperatura máxima	22.5
152523	7	Sololá	719	Santiago Atitlán	14	Cerro de Oro	6	Junio	2023-02-06T00:00:00	2024-11-08T16:00:00	3	Temperatura mínima	21.9
152524	7	Sololá	719	Santiago Atitlán	14	Cerro de Oro	6	Junio	2023-02-06T00:00:00	2024-11-08T16:00:00	5	Humedad	83
152525	7	Sololá	719	Santiago Atitlán	14	Cerro de Oro	6	Junio	2023-02-06T00:00:00	2024-11-08T16:00:00	6	Velocidad del viento	9.7
152526	7	Sololá	719	Santiago Atitlán	14	Cerro de Oro	6	Junio	2023-02-06T00:00:00	2024-11-08T16:00:00	7	Dirección del viento	9.66
152527	7	Sololá	719	Santiago Atitlán	14	Cerro de Oro	6	Junio	2023-02-06T00:00:00	2024-11-08T16:00:00	1	Precipitación	0
152528	7	Sololá	719	Santiago Atitlán	14	Cerro de Oro	6	Junio	2023-02-06T00:00:00	2024-11-08T16:00:00	8	Radiación solar	208
152529	7	Sololá	719	Santiago Atitlán	14	Cerro de Oro	6	Junio	2023-02-06T00:00:00	2024-11-08T17:00:00	2	Temperatura media	21.8
152530	7	Sololá	719	Santiago Atitlán	14	Cerro de Oro	6	Junio	2023-02-06T00:00:00	2024-11-08T17:00:00	4	Temperatura máxima	22.5
152531	7	Sololá	719	Santiago Atitlán	14	Cerro de Oro	6	Junio	2023-02-06T00:00:00	2024-11-08T17:00:00	3	Temperatura mínima	21.7
152532	7	Sololá	719	Santiago Atitlán	14	Cerro de Oro	6	Junio	2023-02-06T00:00:00	2024-11-08T17:00:00	5	Humedad	84
152533	7	Sololá	719	Santiago Atitlán	14	Cerro de Oro	6	Junio	2023-02-06T00:00:00	2024-11-08T17:00:00	6	Velocidad del viento	6.4
152534	7	Sololá	719	Santiago Atitlán	14	Cerro de Oro	6	Junio	2023-02-06T00:00:00	2024-11-08T17:00:00	7	Dirección del viento	6.44
152535	7	Sololá	719	Santiago Atitlán	14	Cerro de Oro	6	Junio	2023-02-06T00:00:00	2024-11-08T17:00:00	1	Precipitación	0
152536	7	Sololá	719	Santiago Atitlán	14	Cerro de Oro	6	Junio	2023-02-06T00:00:00	2024-11-08T17:00:00	8	Radiación solar	117
152537	7	Sololá	719	Santiago Atitlán	14	Cerro de Oro	6	Junio	2023-02-06T00:00:00	2024-11-08T18:00:00	2	Temperatura media	21.4
152538	7	Sololá	719	Santiago Atitlán	14	Cerro de Oro	6	Junio	2023-02-06T00:00:00	2024-11-08T18:00:00	4	Temperatura máxima	21.8
152539	7	Sololá	719	Santiago Atitlán	14	Cerro de Oro	6	Junio	2023-02-06T00:00:00	2024-11-08T18:00:00	3	Temperatura mínima	21.4
152540	7	Sololá	719	Santiago Atitlán	14	Cerro de Oro	6	Junio	2023-02-06T00:00:00	2024-11-08T18:00:00	5	Humedad	86
152541	7	Sololá	719	Santiago Atitlán	14	Cerro de Oro	6	Junio	2023-02-06T00:00:00	2024-11-08T18:00:00	6	Velocidad del viento	3.2
152542	7	Sololá	719	Santiago Atitlán	14	Cerro de Oro	6	Junio	2023-02-06T00:00:00	2024-11-08T18:00:00	7	Dirección del viento	3.22
152543	7	Sololá	719	Santiago Atitlán	14	Cerro de Oro	6	Junio	2023-02-06T00:00:00	2024-11-08T18:00:00	1	Precipitación	0
152544	7	Sololá	719	Santiago Atitlán	14	Cerro de Oro	6	Junio	2023-02-06T00:00:00	2024-11-08T18:00:00	8	Radiación solar	33
152545	7	Sololá	719	Santiago Atitlán	14	Cerro de Oro	6	Junio	2023-02-06T00:00:00	2024-11-08T19:00:00	2	Temperatura media	20.3
152546	7	Sololá	719	Santiago Atitlán	14	Cerro de Oro	6	Junio	2023-02-06T00:00:00	2024-11-08T19:00:00	4	Temperatura máxima	21.4
152547	7	Sololá	719	Santiago Atitlán	14	Cerro de Oro	6	Junio	2023-02-06T00:00:00	2024-11-08T19:00:00	3	Temperatura mínima	20.2
152548	7	Sololá	719	Santiago Atitlán	14	Cerro de Oro	6	Junio	2023-02-06T00:00:00	2024-11-08T19:00:00	5	Humedad	88
152549	7	Sololá	719	Santiago Atitlán	14	Cerro de Oro	6	Junio	2023-02-06T00:00:00	2024-11-08T19:00:00	6	Velocidad del viento	3.2
152550	7	Sololá	719	Santiago Atitlán	14	Cerro de Oro	6	Junio	2023-02-06T00:00:00	2024-11-08T19:00:00	7	Dirección del viento	3.22
152551	7	Sololá	719	Santiago Atitlán	14	Cerro de Oro	6	Junio	2023-02-06T00:00:00	2024-11-08T19:00:00	1	Precipitación	0
152552	7	Sololá	719	Santiago Atitlán	14	Cerro de Oro	6	Junio	2023-02-06T00:00:00	2024-11-08T19:00:00	8	Radiación solar	0
152553	7	Sololá	719	Santiago Atitlán	14	Cerro de Oro	6	Junio	2023-02-06T00:00:00	2024-11-08T20:00:00	2	Temperatura media	20.4
152554	7	Sololá	719	Santiago Atitlán	14	Cerro de Oro	6	Junio	2023-02-06T00:00:00	2024-11-08T20:00:00	4	Temperatura máxima	20.5
152555	7	Sololá	719	Santiago Atitlán	14	Cerro de Oro	6	Junio	2023-02-06T00:00:00	2024-11-08T20:00:00	3	Temperatura mínima	20.2
152556	7	Sololá	719	Santiago Atitlán	14	Cerro de Oro	6	Junio	2023-02-06T00:00:00	2024-11-08T20:00:00	5	Humedad	87
152557	7	Sololá	719	Santiago Atitlán	14	Cerro de Oro	6	Junio	2023-02-06T00:00:00	2024-11-08T20:00:00	6	Velocidad del viento	4.8
152558	7	Sololá	719	Santiago Atitlán	14	Cerro de Oro	6	Junio	2023-02-06T00:00:00	2024-11-08T20:00:00	7	Dirección del viento	4.83
152559	7	Sololá	719	Santiago Atitlán	14	Cerro de Oro	6	Junio	2023-02-06T00:00:00	2024-11-08T20:00:00	1	Precipitación	0
152560	7	Sololá	719	Santiago Atitlán	14	Cerro de Oro	6	Junio	2023-02-06T00:00:00	2024-11-08T20:00:00	8	Radiación solar	0
152561	7	Sololá	719	Santiago Atitlán	14	Cerro de Oro	6	Junio	2023-02-06T00:00:00	2024-11-08T21:00:00	2	Temperatura media	20.1
152562	7	Sololá	719	Santiago Atitlán	14	Cerro de Oro	6	Junio	2023-02-06T00:00:00	2024-11-08T21:00:00	4	Temperatura máxima	20.4
152563	7	Sololá	719	Santiago Atitlán	14	Cerro de Oro	6	Junio	2023-02-06T00:00:00	2024-11-08T21:00:00	3	Temperatura mínima	19.9
152564	7	Sololá	719	Santiago Atitlán	14	Cerro de Oro	6	Junio	2023-02-06T00:00:00	2024-11-08T21:00:00	5	Humedad	87
152565	7	Sololá	719	Santiago Atitlán	14	Cerro de Oro	6	Junio	2023-02-06T00:00:00	2024-11-08T21:00:00	6	Velocidad del viento	4.8
152566	7	Sololá	719	Santiago Atitlán	14	Cerro de Oro	6	Junio	2023-02-06T00:00:00	2024-11-08T21:00:00	7	Dirección del viento	4.83
152567	7	Sololá	719	Santiago Atitlán	14	Cerro de Oro	6	Junio	2023-02-06T00:00:00	2024-11-08T21:00:00	1	Precipitación	0
152568	7	Sololá	719	Santiago Atitlán	14	Cerro de Oro	6	Junio	2023-02-06T00:00:00	2024-11-08T21:00:00	8	Radiación solar	0
152569	7	Sololá	719	Santiago Atitlán	14	Cerro de Oro	6	Junio	2023-02-06T00:00:00	2024-11-08T22:00:00	2	Temperatura media	19.8
152570	7	Sololá	719	Santiago Atitlán	14	Cerro de Oro	6	Junio	2023-02-06T00:00:00	2024-11-08T22:00:00	4	Temperatura máxima	20.4
152571	7	Sololá	719	Santiago Atitlán	14	Cerro de Oro	6	Junio	2023-02-06T00:00:00	2024-11-08T22:00:00	3	Temperatura mínima	19.7
152572	7	Sololá	719	Santiago Atitlán	14	Cerro de Oro	6	Junio	2023-02-06T00:00:00	2024-11-08T22:00:00	5	Humedad	89
152573	7	Sololá	719	Santiago Atitlán	14	Cerro de Oro	6	Junio	2023-02-06T00:00:00	2024-11-08T22:00:00	6	Velocidad del viento	3.2
152574	7	Sololá	719	Santiago Atitlán	14	Cerro de Oro	6	Junio	2023-02-06T00:00:00	2024-11-08T22:00:00	7	Dirección del viento	3.22
152575	7	Sololá	719	Santiago Atitlán	14	Cerro de Oro	6	Junio	2023-02-06T00:00:00	2024-11-08T22:00:00	1	Precipitación	0
152576	7	Sololá	719	Santiago Atitlán	14	Cerro de Oro	6	Junio	2023-02-06T00:00:00	2024-11-08T22:00:00	8	Radiación solar	0
152577	7	Sololá	719	Santiago Atitlán	14	Cerro de Oro	6	Junio	2023-02-06T00:00:00	2024-11-08T23:00:00	2	Temperatura media	19.6
152578	7	Sololá	719	Santiago Atitlán	14	Cerro de Oro	6	Junio	2023-02-06T00:00:00	2024-11-08T23:00:00	4	Temperatura máxima	20
152579	7	Sololá	719	Santiago Atitlán	14	Cerro de Oro	6	Junio	2023-02-06T00:00:00	2024-11-08T23:00:00	3	Temperatura mínima	19.5
152580	7	Sololá	719	Santiago Atitlán	14	Cerro de Oro	6	Junio	2023-02-06T00:00:00	2024-11-08T23:00:00	5	Humedad	90
152581	7	Sololá	719	Santiago Atitlán	14	Cerro de Oro	6	Junio	2023-02-06T00:00:00	2024-11-08T23:00:00	6	Velocidad del viento	3.2
152582	7	Sololá	719	Santiago Atitlán	14	Cerro de Oro	6	Junio	2023-02-06T00:00:00	2024-11-08T23:00:00	7	Dirección del viento	3.22
152583	7	Sololá	719	Santiago Atitlán	14	Cerro de Oro	6	Junio	2023-02-06T00:00:00	2024-11-08T23:00:00	1	Precipitación	0
152584	7	Sololá	719	Santiago Atitlán	14	Cerro de Oro	6	Junio	2023-02-06T00:00:00	2024-11-08T23:00:00	8	Radiación solar	0
152585	7	Sololá	719	Santiago Atitlán	14	Cerro de Oro	6	Junio	2023-03-06T00:00:00	2024-11-08T00:00:00	2	Temperatura media	19.8
152586	7	Sololá	719	Santiago Atitlán	14	Cerro de Oro	6	Junio	2023-03-06T00:00:00	2024-11-08T00:00:00	4	Temperatura máxima	19.8
152587	7	Sololá	719	Santiago Atitlán	14	Cerro de Oro	6	Junio	2023-03-06T00:00:00	2024-11-08T00:00:00	3	Temperatura mínima	19.2
152588	7	Sololá	719	Santiago Atitlán	14	Cerro de Oro	6	Junio	2023-03-06T00:00:00	2024-11-08T00:00:00	5	Humedad	90
152589	7	Sololá	719	Santiago Atitlán	14	Cerro de Oro	6	Junio	2023-03-06T00:00:00	2024-11-08T00:00:00	6	Velocidad del viento	3.2
152590	7	Sololá	719	Santiago Atitlán	14	Cerro de Oro	6	Junio	2023-03-06T00:00:00	2024-11-08T00:00:00	7	Dirección del viento	3.22
152591	7	Sololá	719	Santiago Atitlán	14	Cerro de Oro	6	Junio	2023-03-06T00:00:00	2024-11-08T00:00:00	1	Precipitación	0
152592	7	Sololá	719	Santiago Atitlán	14	Cerro de Oro	6	Junio	2023-03-06T00:00:00	2024-11-08T00:00:00	8	Radiación solar	0
152593	7	Sololá	719	Santiago Atitlán	14	Cerro de Oro	6	Junio	2023-03-06T00:00:00	2024-11-08T01:00:00	2	Temperatura media	19.5
152594	7	Sololá	719	Santiago Atitlán	14	Cerro de Oro	6	Junio	2023-03-06T00:00:00	2024-11-08T01:00:00	4	Temperatura máxima	19.8
152595	7	Sololá	719	Santiago Atitlán	14	Cerro de Oro	6	Junio	2023-03-06T00:00:00	2024-11-08T01:00:00	3	Temperatura mínima	19.4
152596	7	Sololá	719	Santiago Atitlán	14	Cerro de Oro	6	Junio	2023-03-06T00:00:00	2024-11-08T01:00:00	5	Humedad	91
152597	7	Sololá	719	Santiago Atitlán	14	Cerro de Oro	6	Junio	2023-03-06T00:00:00	2024-11-08T01:00:00	6	Velocidad del viento	4.8
152598	7	Sololá	719	Santiago Atitlán	14	Cerro de Oro	6	Junio	2023-03-06T00:00:00	2024-11-08T01:00:00	7	Dirección del viento	4.83
152599	7	Sololá	719	Santiago Atitlán	14	Cerro de Oro	6	Junio	2023-03-06T00:00:00	2024-11-08T01:00:00	1	Precipitación	0
152600	7	Sololá	719	Santiago Atitlán	14	Cerro de Oro	6	Junio	2023-03-06T00:00:00	2024-11-08T01:00:00	8	Radiación solar	0
152601	7	Sololá	719	Santiago Atitlán	14	Cerro de Oro	6	Junio	2023-03-06T00:00:00	2024-11-08T02:00:00	2	Temperatura media	19.4
152602	7	Sololá	719	Santiago Atitlán	14	Cerro de Oro	6	Junio	2023-03-06T00:00:00	2024-11-08T02:00:00	4	Temperatura máxima	19.6
152603	7	Sololá	719	Santiago Atitlán	14	Cerro de Oro	6	Junio	2023-03-06T00:00:00	2024-11-08T02:00:00	3	Temperatura mínima	18.8
152604	7	Sololá	719	Santiago Atitlán	14	Cerro de Oro	6	Junio	2023-03-06T00:00:00	2024-11-08T02:00:00	5	Humedad	92
152605	7	Sololá	719	Santiago Atitlán	14	Cerro de Oro	6	Junio	2023-03-06T00:00:00	2024-11-08T02:00:00	6	Velocidad del viento	3.2
152606	7	Sololá	719	Santiago Atitlán	14	Cerro de Oro	6	Junio	2023-03-06T00:00:00	2024-11-08T02:00:00	7	Dirección del viento	3.22
152607	7	Sololá	719	Santiago Atitlán	14	Cerro de Oro	6	Junio	2023-03-06T00:00:00	2024-11-08T02:00:00	1	Precipitación	0
152608	7	Sololá	719	Santiago Atitlán	14	Cerro de Oro	6	Junio	2023-03-06T00:00:00	2024-11-08T02:00:00	8	Radiación solar	0
152609	7	Sololá	719	Santiago Atitlán	14	Cerro de Oro	6	Junio	2023-03-06T00:00:00	2024-11-08T03:00:00	2	Temperatura media	19.1
152610	7	Sololá	719	Santiago Atitlán	14	Cerro de Oro	6	Junio	2023-03-06T00:00:00	2024-11-08T03:00:00	4	Temperatura máxima	19.5
152611	7	Sololá	719	Santiago Atitlán	14	Cerro de Oro	6	Junio	2023-03-06T00:00:00	2024-11-08T03:00:00	3	Temperatura mínima	19.1
152612	7	Sololá	719	Santiago Atitlán	14	Cerro de Oro	6	Junio	2023-03-06T00:00:00	2024-11-08T03:00:00	5	Humedad	92
152613	7	Sololá	719	Santiago Atitlán	14	Cerro de Oro	6	Junio	2023-03-06T00:00:00	2024-11-08T03:00:00	6	Velocidad del viento	4.8
152614	7	Sololá	719	Santiago Atitlán	14	Cerro de Oro	6	Junio	2023-03-06T00:00:00	2024-11-08T03:00:00	7	Dirección del viento	4.83
152615	7	Sololá	719	Santiago Atitlán	14	Cerro de Oro	6	Junio	2023-03-06T00:00:00	2024-11-08T03:00:00	1	Precipitación	0
152616	7	Sololá	719	Santiago Atitlán	14	Cerro de Oro	6	Junio	2023-03-06T00:00:00	2024-11-08T03:00:00	8	Radiación solar	0
152617	7	Sololá	719	Santiago Atitlán	14	Cerro de Oro	6	Junio	2023-03-06T00:00:00	2024-11-08T04:00:00	2	Temperatura media	18.7
152618	7	Sololá	719	Santiago Atitlán	14	Cerro de Oro	6	Junio	2023-03-06T00:00:00	2024-11-08T04:00:00	4	Temperatura máxima	19.1
152619	7	Sololá	719	Santiago Atitlán	14	Cerro de Oro	6	Junio	2023-03-06T00:00:00	2024-11-08T04:00:00	3	Temperatura mínima	18.6
152620	7	Sololá	719	Santiago Atitlán	14	Cerro de Oro	6	Junio	2023-03-06T00:00:00	2024-11-08T04:00:00	5	Humedad	91
152621	7	Sololá	719	Santiago Atitlán	14	Cerro de Oro	6	Junio	2023-03-06T00:00:00	2024-11-08T04:00:00	6	Velocidad del viento	3.2
152622	7	Sololá	719	Santiago Atitlán	14	Cerro de Oro	6	Junio	2023-03-06T00:00:00	2024-11-08T04:00:00	7	Dirección del viento	3.22
152623	7	Sololá	719	Santiago Atitlán	14	Cerro de Oro	6	Junio	2023-03-06T00:00:00	2024-11-08T04:00:00	1	Precipitación	0
152624	7	Sololá	719	Santiago Atitlán	14	Cerro de Oro	6	Junio	2023-03-06T00:00:00	2024-11-08T04:00:00	8	Radiación solar	0
152625	7	Sololá	719	Santiago Atitlán	14	Cerro de Oro	6	Junio	2023-03-06T00:00:00	2024-11-08T05:00:00	2	Temperatura media	18.6
152626	7	Sololá	719	Santiago Atitlán	14	Cerro de Oro	6	Junio	2023-03-06T00:00:00	2024-11-08T05:00:00	4	Temperatura máxima	19.2
152627	7	Sololá	719	Santiago Atitlán	14	Cerro de Oro	6	Junio	2023-03-06T00:00:00	2024-11-08T05:00:00	3	Temperatura mínima	18.6
152628	7	Sololá	719	Santiago Atitlán	14	Cerro de Oro	6	Junio	2023-03-06T00:00:00	2024-11-08T05:00:00	5	Humedad	90
152629	7	Sololá	719	Santiago Atitlán	14	Cerro de Oro	6	Junio	2023-03-06T00:00:00	2024-11-08T05:00:00	6	Velocidad del viento	6.4
152630	7	Sololá	719	Santiago Atitlán	14	Cerro de Oro	6	Junio	2023-03-06T00:00:00	2024-11-08T05:00:00	7	Dirección del viento	6.44
152631	7	Sololá	719	Santiago Atitlán	14	Cerro de Oro	6	Junio	2023-03-06T00:00:00	2024-11-08T05:00:00	1	Precipitación	0
152632	7	Sololá	719	Santiago Atitlán	14	Cerro de Oro	6	Junio	2023-03-06T00:00:00	2024-11-08T05:00:00	8	Radiación solar	0
152633	7	Sololá	719	Santiago Atitlán	14	Cerro de Oro	6	Junio	2023-03-06T00:00:00	2024-11-08T06:00:00	2	Temperatura media	18.9
152634	7	Sololá	719	Santiago Atitlán	14	Cerro de Oro	6	Junio	2023-03-06T00:00:00	2024-11-08T06:00:00	4	Temperatura máxima	18.9
152635	7	Sololá	719	Santiago Atitlán	14	Cerro de Oro	6	Junio	2023-03-06T00:00:00	2024-11-08T06:00:00	3	Temperatura mínima	18.3
152636	7	Sololá	719	Santiago Atitlán	14	Cerro de Oro	6	Junio	2023-03-06T00:00:00	2024-11-08T06:00:00	5	Humedad	90
152637	7	Sololá	719	Santiago Atitlán	14	Cerro de Oro	6	Junio	2023-03-06T00:00:00	2024-11-08T06:00:00	6	Velocidad del viento	4.8
152638	7	Sololá	719	Santiago Atitlán	14	Cerro de Oro	6	Junio	2023-03-06T00:00:00	2024-11-08T06:00:00	7	Dirección del viento	4.83
152639	7	Sololá	719	Santiago Atitlán	14	Cerro de Oro	6	Junio	2023-03-06T00:00:00	2024-11-08T06:00:00	1	Precipitación	0
152640	7	Sololá	719	Santiago Atitlán	14	Cerro de Oro	6	Junio	2023-03-06T00:00:00	2024-11-08T06:00:00	8	Radiación solar	9
152641	7	Sololá	719	Santiago Atitlán	14	Cerro de Oro	6	Junio	2023-03-06T00:00:00	2024-11-08T07:00:00	2	Temperatura media	20.5
152642	7	Sololá	719	Santiago Atitlán	14	Cerro de Oro	6	Junio	2023-03-06T00:00:00	2024-11-08T07:00:00	4	Temperatura máxima	20.5
152643	7	Sololá	719	Santiago Atitlán	14	Cerro de Oro	6	Junio	2023-03-06T00:00:00	2024-11-08T07:00:00	3	Temperatura mínima	18.9
152644	7	Sololá	719	Santiago Atitlán	14	Cerro de Oro	6	Junio	2023-03-06T00:00:00	2024-11-08T07:00:00	5	Humedad	84
152645	7	Sololá	719	Santiago Atitlán	14	Cerro de Oro	6	Junio	2023-03-06T00:00:00	2024-11-08T07:00:00	6	Velocidad del viento	3.2
152646	7	Sololá	719	Santiago Atitlán	14	Cerro de Oro	6	Junio	2023-03-06T00:00:00	2024-11-08T07:00:00	7	Dirección del viento	3.22
152647	7	Sololá	719	Santiago Atitlán	14	Cerro de Oro	6	Junio	2023-03-06T00:00:00	2024-11-08T07:00:00	1	Precipitación	0
152648	7	Sololá	719	Santiago Atitlán	14	Cerro de Oro	6	Junio	2023-03-06T00:00:00	2024-11-08T07:00:00	8	Radiación solar	114
152649	7	Sololá	719	Santiago Atitlán	14	Cerro de Oro	6	Junio	2023-03-06T00:00:00	2024-11-08T08:00:00	2	Temperatura media	21.9
152650	7	Sololá	719	Santiago Atitlán	14	Cerro de Oro	6	Junio	2023-03-06T00:00:00	2024-11-08T08:00:00	4	Temperatura máxima	22
152651	7	Sololá	719	Santiago Atitlán	14	Cerro de Oro	6	Junio	2023-03-06T00:00:00	2024-11-08T08:00:00	3	Temperatura mínima	20.5
152652	7	Sololá	719	Santiago Atitlán	14	Cerro de Oro	6	Junio	2023-03-06T00:00:00	2024-11-08T08:00:00	5	Humedad	81
152653	7	Sololá	719	Santiago Atitlán	14	Cerro de Oro	6	Junio	2023-03-06T00:00:00	2024-11-08T08:00:00	6	Velocidad del viento	3.2
152654	7	Sololá	719	Santiago Atitlán	14	Cerro de Oro	6	Junio	2023-03-06T00:00:00	2024-11-08T08:00:00	7	Dirección del viento	3.22
152655	7	Sololá	719	Santiago Atitlán	14	Cerro de Oro	6	Junio	2023-03-06T00:00:00	2024-11-08T08:00:00	1	Precipitación	0
152656	7	Sololá	719	Santiago Atitlán	14	Cerro de Oro	6	Junio	2023-03-06T00:00:00	2024-11-08T08:00:00	8	Radiación solar	306
152657	7	Sololá	719	Santiago Atitlán	14	Cerro de Oro	6	Junio	2023-03-06T00:00:00	2024-11-08T09:00:00	2	Temperatura media	22.8
152658	7	Sololá	719	Santiago Atitlán	14	Cerro de Oro	6	Junio	2023-03-06T00:00:00	2024-11-08T09:00:00	4	Temperatura máxima	22.8
152659	7	Sololá	719	Santiago Atitlán	14	Cerro de Oro	6	Junio	2023-03-06T00:00:00	2024-11-08T09:00:00	3	Temperatura mínima	21.7
152660	7	Sololá	719	Santiago Atitlán	14	Cerro de Oro	6	Junio	2023-03-06T00:00:00	2024-11-08T09:00:00	5	Humedad	78
152661	7	Sololá	719	Santiago Atitlán	14	Cerro de Oro	6	Junio	2023-03-06T00:00:00	2024-11-08T09:00:00	6	Velocidad del viento	3.2
152662	7	Sololá	719	Santiago Atitlán	14	Cerro de Oro	6	Junio	2023-03-06T00:00:00	2024-11-08T09:00:00	7	Dirección del viento	3.22
152663	7	Sololá	719	Santiago Atitlán	14	Cerro de Oro	6	Junio	2023-03-06T00:00:00	2024-11-08T09:00:00	1	Precipitación	0
152664	7	Sololá	719	Santiago Atitlán	14	Cerro de Oro	6	Junio	2023-03-06T00:00:00	2024-11-08T09:00:00	8	Radiación solar	357
152665	7	Sololá	719	Santiago Atitlán	14	Cerro de Oro	6	Junio	2023-03-06T00:00:00	2024-11-08T10:00:00	2	Temperatura media	23.6
152666	7	Sololá	719	Santiago Atitlán	14	Cerro de Oro	6	Junio	2023-03-06T00:00:00	2024-11-08T10:00:00	4	Temperatura máxima	23.9
152667	7	Sololá	719	Santiago Atitlán	14	Cerro de Oro	6	Junio	2023-03-06T00:00:00	2024-11-08T10:00:00	3	Temperatura mínima	22.8
152668	7	Sololá	719	Santiago Atitlán	14	Cerro de Oro	6	Junio	2023-03-06T00:00:00	2024-11-08T10:00:00	5	Humedad	72
152669	7	Sololá	719	Santiago Atitlán	14	Cerro de Oro	6	Junio	2023-03-06T00:00:00	2024-11-08T10:00:00	6	Velocidad del viento	4.8
152670	7	Sololá	719	Santiago Atitlán	14	Cerro de Oro	6	Junio	2023-03-06T00:00:00	2024-11-08T10:00:00	7	Dirección del viento	4.83
152671	7	Sololá	719	Santiago Atitlán	14	Cerro de Oro	6	Junio	2023-03-06T00:00:00	2024-11-08T10:00:00	1	Precipitación	0
152672	7	Sololá	719	Santiago Atitlán	14	Cerro de Oro	6	Junio	2023-03-06T00:00:00	2024-11-08T10:00:00	8	Radiación solar	679
152673	7	Sololá	719	Santiago Atitlán	14	Cerro de Oro	6	Junio	2023-03-06T00:00:00	2024-11-08T11:00:00	2	Temperatura media	25.4
152674	7	Sololá	719	Santiago Atitlán	14	Cerro de Oro	6	Junio	2023-03-06T00:00:00	2024-11-08T11:00:00	4	Temperatura máxima	25.4
152675	7	Sololá	719	Santiago Atitlán	14	Cerro de Oro	6	Junio	2023-03-06T00:00:00	2024-11-08T11:00:00	3	Temperatura mínima	23.1
152676	7	Sololá	719	Santiago Atitlán	14	Cerro de Oro	6	Junio	2023-03-06T00:00:00	2024-11-08T11:00:00	5	Humedad	72
152677	7	Sololá	719	Santiago Atitlán	14	Cerro de Oro	6	Junio	2023-03-06T00:00:00	2024-11-08T11:00:00	6	Velocidad del viento	4.8
152678	7	Sololá	719	Santiago Atitlán	14	Cerro de Oro	6	Junio	2023-03-06T00:00:00	2024-11-08T11:00:00	7	Dirección del viento	4.83
152679	7	Sololá	719	Santiago Atitlán	14	Cerro de Oro	6	Junio	2023-03-06T00:00:00	2024-11-08T11:00:00	1	Precipitación	0
152680	7	Sololá	719	Santiago Atitlán	14	Cerro de Oro	6	Junio	2023-03-06T00:00:00	2024-11-08T11:00:00	8	Radiación solar	817
152681	7	Sololá	719	Santiago Atitlán	14	Cerro de Oro	6	Junio	2023-03-06T00:00:00	2024-11-08T12:00:00	2	Temperatura media	23.6
152682	7	Sololá	719	Santiago Atitlán	14	Cerro de Oro	6	Junio	2023-03-06T00:00:00	2024-11-08T12:00:00	4	Temperatura máxima	25.6
152683	7	Sololá	719	Santiago Atitlán	14	Cerro de Oro	6	Junio	2023-03-06T00:00:00	2024-11-08T12:00:00	3	Temperatura mínima	23.5
152684	7	Sololá	719	Santiago Atitlán	14	Cerro de Oro	6	Junio	2023-03-06T00:00:00	2024-11-08T12:00:00	5	Humedad	79
152685	7	Sololá	719	Santiago Atitlán	14	Cerro de Oro	6	Junio	2023-03-06T00:00:00	2024-11-08T12:00:00	6	Velocidad del viento	9.7
152686	7	Sololá	719	Santiago Atitlán	14	Cerro de Oro	6	Junio	2023-03-06T00:00:00	2024-11-08T12:00:00	7	Dirección del viento	9.66
152687	7	Sololá	719	Santiago Atitlán	14	Cerro de Oro	6	Junio	2023-03-06T00:00:00	2024-11-08T12:00:00	1	Precipitación	0
152688	7	Sololá	719	Santiago Atitlán	14	Cerro de Oro	6	Junio	2023-03-06T00:00:00	2024-11-08T12:00:00	8	Radiación solar	381
152689	7	Sololá	719	Santiago Atitlán	14	Cerro de Oro	6	Junio	2023-03-06T00:00:00	2024-11-08T13:00:00	2	Temperatura media	23.6
152690	7	Sololá	719	Santiago Atitlán	14	Cerro de Oro	6	Junio	2023-03-06T00:00:00	2024-11-08T13:00:00	4	Temperatura máxima	23.9
152691	7	Sololá	719	Santiago Atitlán	14	Cerro de Oro	6	Junio	2023-03-06T00:00:00	2024-11-08T13:00:00	3	Temperatura mínima	23.1
152692	7	Sololá	719	Santiago Atitlán	14	Cerro de Oro	6	Junio	2023-03-06T00:00:00	2024-11-08T13:00:00	5	Humedad	79
152693	7	Sololá	719	Santiago Atitlán	14	Cerro de Oro	6	Junio	2023-03-06T00:00:00	2024-11-08T13:00:00	6	Velocidad del viento	8
152694	7	Sololá	719	Santiago Atitlán	14	Cerro de Oro	6	Junio	2023-03-06T00:00:00	2024-11-08T13:00:00	7	Dirección del viento	8.05
152695	7	Sololá	719	Santiago Atitlán	14	Cerro de Oro	6	Junio	2023-03-06T00:00:00	2024-11-08T13:00:00	1	Precipitación	0
152696	7	Sololá	719	Santiago Atitlán	14	Cerro de Oro	6	Junio	2023-03-06T00:00:00	2024-11-08T13:00:00	8	Radiación solar	339
152697	7	Sololá	719	Santiago Atitlán	14	Cerro de Oro	6	Junio	2023-03-06T00:00:00	2024-11-08T14:00:00	2	Temperatura media	22.4
152698	7	Sololá	719	Santiago Atitlán	14	Cerro de Oro	6	Junio	2023-03-06T00:00:00	2024-11-08T14:00:00	4	Temperatura máxima	23.9
152699	7	Sololá	719	Santiago Atitlán	14	Cerro de Oro	6	Junio	2023-03-06T00:00:00	2024-11-08T14:00:00	3	Temperatura mínima	22.1
152700	7	Sololá	719	Santiago Atitlán	14	Cerro de Oro	6	Junio	2023-03-06T00:00:00	2024-11-08T14:00:00	5	Humedad	84
152701	7	Sololá	719	Santiago Atitlán	14	Cerro de Oro	6	Junio	2023-03-06T00:00:00	2024-11-08T14:00:00	6	Velocidad del viento	11.3
152702	7	Sololá	719	Santiago Atitlán	14	Cerro de Oro	6	Junio	2023-03-06T00:00:00	2024-11-08T14:00:00	7	Dirección del viento	11.27
152703	7	Sololá	719	Santiago Atitlán	14	Cerro de Oro	6	Junio	2023-03-06T00:00:00	2024-11-08T14:00:00	1	Precipitación	0
152704	7	Sololá	719	Santiago Atitlán	14	Cerro de Oro	6	Junio	2023-03-06T00:00:00	2024-11-08T14:00:00	8	Radiación solar	183
152705	7	Sololá	719	Santiago Atitlán	14	Cerro de Oro	6	Junio	2023-03-06T00:00:00	2024-11-08T15:00:00	2	Temperatura media	22.6
152706	7	Sololá	719	Santiago Atitlán	14	Cerro de Oro	6	Junio	2023-03-06T00:00:00	2024-11-08T15:00:00	4	Temperatura máxima	23.5
152707	7	Sololá	719	Santiago Atitlán	14	Cerro de Oro	6	Junio	2023-03-06T00:00:00	2024-11-08T15:00:00	3	Temperatura mínima	22.4
152708	7	Sololá	719	Santiago Atitlán	14	Cerro de Oro	6	Junio	2023-03-06T00:00:00	2024-11-08T15:00:00	5	Humedad	83
152709	7	Sololá	719	Santiago Atitlán	14	Cerro de Oro	6	Junio	2023-03-06T00:00:00	2024-11-08T15:00:00	6	Velocidad del viento	9.7
152710	7	Sololá	719	Santiago Atitlán	14	Cerro de Oro	6	Junio	2023-03-06T00:00:00	2024-11-08T15:00:00	7	Dirección del viento	9.66
152711	7	Sololá	719	Santiago Atitlán	14	Cerro de Oro	6	Junio	2023-03-06T00:00:00	2024-11-08T15:00:00	1	Precipitación	0
152712	7	Sololá	719	Santiago Atitlán	14	Cerro de Oro	6	Junio	2023-03-06T00:00:00	2024-11-08T15:00:00	8	Radiación solar	290
152713	7	Sololá	719	Santiago Atitlán	14	Cerro de Oro	6	Junio	2023-03-06T00:00:00	2024-11-08T16:00:00	2	Temperatura media	22.5
152714	7	Sololá	719	Santiago Atitlán	14	Cerro de Oro	6	Junio	2023-03-06T00:00:00	2024-11-08T16:00:00	4	Temperatura máxima	22.8
152715	7	Sololá	719	Santiago Atitlán	14	Cerro de Oro	6	Junio	2023-03-06T00:00:00	2024-11-08T16:00:00	3	Temperatura mínima	22.3
152716	7	Sololá	719	Santiago Atitlán	14	Cerro de Oro	6	Junio	2023-03-06T00:00:00	2024-11-08T16:00:00	5	Humedad	84
152717	7	Sololá	719	Santiago Atitlán	14	Cerro de Oro	6	Junio	2023-03-06T00:00:00	2024-11-08T16:00:00	6	Velocidad del viento	9.7
152718	7	Sololá	719	Santiago Atitlán	14	Cerro de Oro	6	Junio	2023-03-06T00:00:00	2024-11-08T16:00:00	7	Dirección del viento	9.66
152719	7	Sololá	719	Santiago Atitlán	14	Cerro de Oro	6	Junio	2023-03-06T00:00:00	2024-11-08T16:00:00	1	Precipitación	0
152720	7	Sololá	719	Santiago Atitlán	14	Cerro de Oro	6	Junio	2023-03-06T00:00:00	2024-11-08T16:00:00	8	Radiación solar	176
152721	7	Sololá	719	Santiago Atitlán	14	Cerro de Oro	6	Junio	2023-03-06T00:00:00	2024-11-08T17:00:00	2	Temperatura media	21.8
152722	7	Sololá	719	Santiago Atitlán	14	Cerro de Oro	6	Junio	2023-03-06T00:00:00	2024-11-08T17:00:00	4	Temperatura máxima	22.5
152723	7	Sololá	719	Santiago Atitlán	14	Cerro de Oro	6	Junio	2023-03-06T00:00:00	2024-11-08T17:00:00	3	Temperatura mínima	21.8
152724	7	Sololá	719	Santiago Atitlán	14	Cerro de Oro	6	Junio	2023-03-06T00:00:00	2024-11-08T17:00:00	5	Humedad	87
152725	7	Sololá	719	Santiago Atitlán	14	Cerro de Oro	6	Junio	2023-03-06T00:00:00	2024-11-08T17:00:00	6	Velocidad del viento	6.4
152726	7	Sololá	719	Santiago Atitlán	14	Cerro de Oro	6	Junio	2023-03-06T00:00:00	2024-11-08T17:00:00	7	Dirección del viento	6.44
152727	7	Sololá	719	Santiago Atitlán	14	Cerro de Oro	6	Junio	2023-03-06T00:00:00	2024-11-08T17:00:00	1	Precipitación	0
152728	7	Sololá	719	Santiago Atitlán	14	Cerro de Oro	6	Junio	2023-03-06T00:00:00	2024-11-08T17:00:00	8	Radiación solar	90
152729	7	Sololá	719	Santiago Atitlán	14	Cerro de Oro	6	Junio	2023-03-06T00:00:00	2024-11-08T18:00:00	2	Temperatura media	21.7
152730	7	Sololá	719	Santiago Atitlán	14	Cerro de Oro	6	Junio	2023-03-06T00:00:00	2024-11-08T18:00:00	4	Temperatura máxima	22
152731	7	Sololá	719	Santiago Atitlán	14	Cerro de Oro	6	Junio	2023-03-06T00:00:00	2024-11-08T18:00:00	3	Temperatura mínima	21.7
152732	7	Sololá	719	Santiago Atitlán	14	Cerro de Oro	6	Junio	2023-03-06T00:00:00	2024-11-08T18:00:00	5	Humedad	86
152733	7	Sololá	719	Santiago Atitlán	14	Cerro de Oro	6	Junio	2023-03-06T00:00:00	2024-11-08T18:00:00	6	Velocidad del viento	4.8
152734	7	Sololá	719	Santiago Atitlán	14	Cerro de Oro	6	Junio	2023-03-06T00:00:00	2024-11-08T18:00:00	7	Dirección del viento	4.83
152735	7	Sololá	719	Santiago Atitlán	14	Cerro de Oro	6	Junio	2023-03-06T00:00:00	2024-11-08T18:00:00	1	Precipitación	0
152736	7	Sololá	719	Santiago Atitlán	14	Cerro de Oro	6	Junio	2023-03-06T00:00:00	2024-11-08T18:00:00	8	Radiación solar	37
152737	7	Sololá	719	Santiago Atitlán	14	Cerro de Oro	6	Junio	2023-03-06T00:00:00	2024-11-08T19:00:00	2	Temperatura media	20.2
152738	7	Sololá	719	Santiago Atitlán	14	Cerro de Oro	6	Junio	2023-03-06T00:00:00	2024-11-08T19:00:00	4	Temperatura máxima	21.7
152739	7	Sololá	719	Santiago Atitlán	14	Cerro de Oro	6	Junio	2023-03-06T00:00:00	2024-11-08T19:00:00	3	Temperatura mínima	20.2
152740	7	Sololá	719	Santiago Atitlán	14	Cerro de Oro	6	Junio	2023-03-06T00:00:00	2024-11-08T19:00:00	5	Humedad	92
152741	7	Sololá	719	Santiago Atitlán	14	Cerro de Oro	6	Junio	2023-03-06T00:00:00	2024-11-08T19:00:00	6	Velocidad del viento	4.8
152742	7	Sololá	719	Santiago Atitlán	14	Cerro de Oro	6	Junio	2023-03-06T00:00:00	2024-11-08T19:00:00	7	Dirección del viento	4.83
152743	7	Sololá	719	Santiago Atitlán	14	Cerro de Oro	6	Junio	2023-03-06T00:00:00	2024-11-08T19:00:00	1	Precipitación	0
152744	7	Sololá	719	Santiago Atitlán	14	Cerro de Oro	6	Junio	2023-03-06T00:00:00	2024-11-08T19:00:00	8	Radiación solar	0
152745	7	Sololá	719	Santiago Atitlán	14	Cerro de Oro	6	Junio	2023-03-06T00:00:00	2024-11-08T20:00:00	2	Temperatura media	19.7
152746	7	Sololá	719	Santiago Atitlán	14	Cerro de Oro	6	Junio	2023-03-06T00:00:00	2024-11-08T20:00:00	4	Temperatura máxima	20.2
152747	7	Sololá	719	Santiago Atitlán	14	Cerro de Oro	6	Junio	2023-03-06T00:00:00	2024-11-08T20:00:00	3	Temperatura mínima	19.5
152748	7	Sololá	719	Santiago Atitlán	14	Cerro de Oro	6	Junio	2023-03-06T00:00:00	2024-11-08T20:00:00	5	Humedad	92
152749	7	Sololá	719	Santiago Atitlán	14	Cerro de Oro	6	Junio	2023-03-06T00:00:00	2024-11-08T20:00:00	6	Velocidad del viento	8
152750	7	Sololá	719	Santiago Atitlán	14	Cerro de Oro	6	Junio	2023-03-06T00:00:00	2024-11-08T20:00:00	7	Dirección del viento	8.05
152751	7	Sololá	719	Santiago Atitlán	14	Cerro de Oro	6	Junio	2023-03-06T00:00:00	2024-11-08T20:00:00	1	Precipitación	0
152752	7	Sololá	719	Santiago Atitlán	14	Cerro de Oro	6	Junio	2023-03-06T00:00:00	2024-11-08T20:00:00	8	Radiación solar	0
152753	7	Sololá	719	Santiago Atitlán	14	Cerro de Oro	6	Junio	2023-03-06T00:00:00	2024-11-08T21:00:00	2	Temperatura media	19.4
152754	7	Sololá	719	Santiago Atitlán	14	Cerro de Oro	6	Junio	2023-03-06T00:00:00	2024-11-08T21:00:00	4	Temperatura máxima	19.7
152755	7	Sololá	719	Santiago Atitlán	14	Cerro de Oro	6	Junio	2023-03-06T00:00:00	2024-11-08T21:00:00	3	Temperatura mínima	19.3
152756	7	Sololá	719	Santiago Atitlán	14	Cerro de Oro	6	Junio	2023-03-06T00:00:00	2024-11-08T21:00:00	5	Humedad	92
152757	7	Sololá	719	Santiago Atitlán	14	Cerro de Oro	6	Junio	2023-03-06T00:00:00	2024-11-08T21:00:00	6	Velocidad del viento	8
152758	7	Sololá	719	Santiago Atitlán	14	Cerro de Oro	6	Junio	2023-03-06T00:00:00	2024-11-08T21:00:00	7	Dirección del viento	8.05
152759	7	Sololá	719	Santiago Atitlán	14	Cerro de Oro	6	Junio	2023-03-06T00:00:00	2024-11-08T21:00:00	1	Precipitación	0
152760	7	Sololá	719	Santiago Atitlán	14	Cerro de Oro	6	Junio	2023-03-06T00:00:00	2024-11-08T21:00:00	8	Radiación solar	0
152761	7	Sololá	719	Santiago Atitlán	14	Cerro de Oro	6	Junio	2023-03-06T00:00:00	2024-11-08T22:00:00	2	Temperatura media	19.7
152762	7	Sololá	719	Santiago Atitlán	14	Cerro de Oro	6	Junio	2023-03-06T00:00:00	2024-11-08T22:00:00	4	Temperatura máxima	19.8
152763	7	Sololá	719	Santiago Atitlán	14	Cerro de Oro	6	Junio	2023-03-06T00:00:00	2024-11-08T22:00:00	3	Temperatura mínima	19.3
152764	7	Sololá	719	Santiago Atitlán	14	Cerro de Oro	6	Junio	2023-03-06T00:00:00	2024-11-08T22:00:00	5	Humedad	89
152765	7	Sololá	719	Santiago Atitlán	14	Cerro de Oro	6	Junio	2023-03-06T00:00:00	2024-11-08T22:00:00	6	Velocidad del viento	4.8
152766	7	Sololá	719	Santiago Atitlán	14	Cerro de Oro	6	Junio	2023-03-06T00:00:00	2024-11-08T22:00:00	7	Dirección del viento	4.83
152767	7	Sololá	719	Santiago Atitlán	14	Cerro de Oro	6	Junio	2023-03-06T00:00:00	2024-11-08T22:00:00	1	Precipitación	0
152768	7	Sololá	719	Santiago Atitlán	14	Cerro de Oro	6	Junio	2023-03-06T00:00:00	2024-11-08T22:00:00	8	Radiación solar	0
152769	7	Sololá	719	Santiago Atitlán	14	Cerro de Oro	6	Junio	2023-03-06T00:00:00	2024-11-08T23:00:00	2	Temperatura media	19.8
152770	7	Sololá	719	Santiago Atitlán	14	Cerro de Oro	6	Junio	2023-03-06T00:00:00	2024-11-08T23:00:00	4	Temperatura máxima	19.8
152771	7	Sololá	719	Santiago Atitlán	14	Cerro de Oro	6	Junio	2023-03-06T00:00:00	2024-11-08T23:00:00	3	Temperatura mínima	19.6
152772	7	Sololá	719	Santiago Atitlán	14	Cerro de Oro	6	Junio	2023-03-06T00:00:00	2024-11-08T23:00:00	5	Humedad	89
152773	7	Sololá	719	Santiago Atitlán	14	Cerro de Oro	6	Junio	2023-03-06T00:00:00	2024-11-08T23:00:00	6	Velocidad del viento	3.2
152774	7	Sololá	719	Santiago Atitlán	14	Cerro de Oro	6	Junio	2023-03-06T00:00:00	2024-11-08T23:00:00	7	Dirección del viento	3.22
152775	7	Sololá	719	Santiago Atitlán	14	Cerro de Oro	6	Junio	2023-03-06T00:00:00	2024-11-08T23:00:00	1	Precipitación	0
152776	7	Sololá	719	Santiago Atitlán	14	Cerro de Oro	6	Junio	2023-03-06T00:00:00	2024-11-08T23:00:00	8	Radiación solar	0
152777	7	Sololá	719	Santiago Atitlán	14	Cerro de Oro	6	Junio	2023-04-06T00:00:00	2024-11-08T00:00:00	2	Temperatura media	20
152778	7	Sololá	719	Santiago Atitlán	14	Cerro de Oro	6	Junio	2023-04-06T00:00:00	2024-11-08T00:00:00	4	Temperatura máxima	20.1
152779	7	Sololá	719	Santiago Atitlán	14	Cerro de Oro	6	Junio	2023-04-06T00:00:00	2024-11-08T00:00:00	3	Temperatura mínima	19.7
152780	7	Sololá	719	Santiago Atitlán	14	Cerro de Oro	6	Junio	2023-04-06T00:00:00	2024-11-08T00:00:00	5	Humedad	89
152781	7	Sololá	719	Santiago Atitlán	14	Cerro de Oro	6	Junio	2023-04-06T00:00:00	2024-11-08T00:00:00	6	Velocidad del viento	1.6
152782	7	Sololá	719	Santiago Atitlán	14	Cerro de Oro	6	Junio	2023-04-06T00:00:00	2024-11-08T00:00:00	7	Dirección del viento	1.61
152783	7	Sololá	719	Santiago Atitlán	14	Cerro de Oro	6	Junio	2023-04-06T00:00:00	2024-11-08T00:00:00	1	Precipitación	0
152784	7	Sololá	719	Santiago Atitlán	14	Cerro de Oro	6	Junio	2023-04-06T00:00:00	2024-11-08T00:00:00	8	Radiación solar	0
152785	7	Sololá	719	Santiago Atitlán	14	Cerro de Oro	6	Junio	2023-04-06T00:00:00	2024-11-08T01:00:00	2	Temperatura media	19.7
152786	7	Sololá	719	Santiago Atitlán	14	Cerro de Oro	6	Junio	2023-04-06T00:00:00	2024-11-08T01:00:00	4	Temperatura máxima	20
152787	7	Sololá	719	Santiago Atitlán	14	Cerro de Oro	6	Junio	2023-04-06T00:00:00	2024-11-08T01:00:00	3	Temperatura mínima	19.5
152788	7	Sololá	719	Santiago Atitlán	14	Cerro de Oro	6	Junio	2023-04-06T00:00:00	2024-11-08T01:00:00	5	Humedad	87
152789	7	Sololá	719	Santiago Atitlán	14	Cerro de Oro	6	Junio	2023-04-06T00:00:00	2024-11-08T01:00:00	6	Velocidad del viento	3.2
152790	7	Sololá	719	Santiago Atitlán	14	Cerro de Oro	6	Junio	2023-04-06T00:00:00	2024-11-08T01:00:00	7	Dirección del viento	3.22
152791	7	Sololá	719	Santiago Atitlán	14	Cerro de Oro	6	Junio	2023-04-06T00:00:00	2024-11-08T01:00:00	1	Precipitación	0
152792	7	Sololá	719	Santiago Atitlán	14	Cerro de Oro	6	Junio	2023-04-06T00:00:00	2024-11-08T01:00:00	8	Radiación solar	0
152793	7	Sololá	719	Santiago Atitlán	14	Cerro de Oro	6	Junio	2023-04-06T00:00:00	2024-11-08T02:00:00	2	Temperatura media	19.8
152794	7	Sololá	719	Santiago Atitlán	14	Cerro de Oro	6	Junio	2023-04-06T00:00:00	2024-11-08T02:00:00	4	Temperatura máxima	19.9
152795	7	Sololá	719	Santiago Atitlán	14	Cerro de Oro	6	Junio	2023-04-06T00:00:00	2024-11-08T02:00:00	3	Temperatura mínima	19.6
152796	7	Sololá	719	Santiago Atitlán	14	Cerro de Oro	6	Junio	2023-04-06T00:00:00	2024-11-08T02:00:00	5	Humedad	87
152797	7	Sololá	719	Santiago Atitlán	14	Cerro de Oro	6	Junio	2023-04-06T00:00:00	2024-11-08T02:00:00	6	Velocidad del viento	4.8
152798	7	Sololá	719	Santiago Atitlán	14	Cerro de Oro	6	Junio	2023-04-06T00:00:00	2024-11-08T02:00:00	7	Dirección del viento	4.83
152799	7	Sololá	719	Santiago Atitlán	14	Cerro de Oro	6	Junio	2023-04-06T00:00:00	2024-11-08T02:00:00	1	Precipitación	0
152800	7	Sololá	719	Santiago Atitlán	14	Cerro de Oro	6	Junio	2023-04-06T00:00:00	2024-11-08T02:00:00	8	Radiación solar	0
152801	7	Sololá	719	Santiago Atitlán	14	Cerro de Oro	6	Junio	2023-04-06T00:00:00	2024-11-08T03:00:00	2	Temperatura media	19.8
152802	7	Sololá	719	Santiago Atitlán	14	Cerro de Oro	6	Junio	2023-04-06T00:00:00	2024-11-08T03:00:00	4	Temperatura máxima	20.1
152803	7	Sololá	719	Santiago Atitlán	14	Cerro de Oro	6	Junio	2023-04-06T00:00:00	2024-11-08T03:00:00	3	Temperatura mínima	19.8
152804	7	Sololá	719	Santiago Atitlán	14	Cerro de Oro	6	Junio	2023-04-06T00:00:00	2024-11-08T03:00:00	5	Humedad	87
152805	7	Sololá	719	Santiago Atitlán	14	Cerro de Oro	6	Junio	2023-04-06T00:00:00	2024-11-08T03:00:00	6	Velocidad del viento	3.2
152806	7	Sololá	719	Santiago Atitlán	14	Cerro de Oro	6	Junio	2023-04-06T00:00:00	2024-11-08T03:00:00	7	Dirección del viento	3.22
152807	7	Sololá	719	Santiago Atitlán	14	Cerro de Oro	6	Junio	2023-04-06T00:00:00	2024-11-08T03:00:00	1	Precipitación	0
152808	7	Sololá	719	Santiago Atitlán	14	Cerro de Oro	6	Junio	2023-04-06T00:00:00	2024-11-08T03:00:00	8	Radiación solar	0
152809	7	Sololá	719	Santiago Atitlán	14	Cerro de Oro	6	Junio	2023-04-06T00:00:00	2024-11-08T04:00:00	2	Temperatura media	19.6
152810	7	Sololá	719	Santiago Atitlán	14	Cerro de Oro	6	Junio	2023-04-06T00:00:00	2024-11-08T04:00:00	4	Temperatura máxima	19.8
152811	7	Sololá	719	Santiago Atitlán	14	Cerro de Oro	6	Junio	2023-04-06T00:00:00	2024-11-08T04:00:00	3	Temperatura mínima	19.3
152812	7	Sololá	719	Santiago Atitlán	14	Cerro de Oro	6	Junio	2023-04-06T00:00:00	2024-11-08T04:00:00	5	Humedad	88
152813	7	Sololá	719	Santiago Atitlán	14	Cerro de Oro	6	Junio	2023-04-06T00:00:00	2024-11-08T04:00:00	6	Velocidad del viento	4.8
152814	7	Sololá	719	Santiago Atitlán	14	Cerro de Oro	6	Junio	2023-04-06T00:00:00	2024-11-08T04:00:00	7	Dirección del viento	4.83
152815	7	Sololá	719	Santiago Atitlán	14	Cerro de Oro	6	Junio	2023-04-06T00:00:00	2024-11-08T04:00:00	1	Precipitación	0
152816	7	Sololá	719	Santiago Atitlán	14	Cerro de Oro	6	Junio	2023-04-06T00:00:00	2024-11-08T04:00:00	8	Radiación solar	0
152817	7	Sololá	719	Santiago Atitlán	14	Cerro de Oro	6	Junio	2023-04-06T00:00:00	2024-11-08T05:00:00	2	Temperatura media	19.5
152818	7	Sololá	719	Santiago Atitlán	14	Cerro de Oro	6	Junio	2023-04-06T00:00:00	2024-11-08T05:00:00	4	Temperatura máxima	19.7
152819	7	Sololá	719	Santiago Atitlán	14	Cerro de Oro	6	Junio	2023-04-06T00:00:00	2024-11-08T05:00:00	3	Temperatura mínima	19.4
152820	7	Sololá	719	Santiago Atitlán	14	Cerro de Oro	6	Junio	2023-04-06T00:00:00	2024-11-08T05:00:00	5	Humedad	89
152821	7	Sololá	719	Santiago Atitlán	14	Cerro de Oro	6	Junio	2023-04-06T00:00:00	2024-11-08T05:00:00	6	Velocidad del viento	4.8
152822	7	Sololá	719	Santiago Atitlán	14	Cerro de Oro	6	Junio	2023-04-06T00:00:00	2024-11-08T05:00:00	7	Dirección del viento	4.83
152823	7	Sololá	719	Santiago Atitlán	14	Cerro de Oro	6	Junio	2023-04-06T00:00:00	2024-11-08T05:00:00	1	Precipitación	0
152824	7	Sololá	719	Santiago Atitlán	14	Cerro de Oro	6	Junio	2023-04-06T00:00:00	2024-11-08T05:00:00	8	Radiación solar	0
152825	7	Sololá	719	Santiago Atitlán	14	Cerro de Oro	6	Junio	2023-04-06T00:00:00	2024-11-08T06:00:00	2	Temperatura media	19.3
152826	7	Sololá	719	Santiago Atitlán	14	Cerro de Oro	6	Junio	2023-04-06T00:00:00	2024-11-08T06:00:00	4	Temperatura máxima	19.7
152827	7	Sololá	719	Santiago Atitlán	14	Cerro de Oro	6	Junio	2023-04-06T00:00:00	2024-11-08T06:00:00	3	Temperatura mínima	19.3
152828	7	Sololá	719	Santiago Atitlán	14	Cerro de Oro	6	Junio	2023-04-06T00:00:00	2024-11-08T06:00:00	5	Humedad	89
152829	7	Sololá	719	Santiago Atitlán	14	Cerro de Oro	6	Junio	2023-04-06T00:00:00	2024-11-08T06:00:00	6	Velocidad del viento	3.2
152830	7	Sololá	719	Santiago Atitlán	14	Cerro de Oro	6	Junio	2023-04-06T00:00:00	2024-11-08T06:00:00	7	Dirección del viento	3.22
152831	7	Sololá	719	Santiago Atitlán	14	Cerro de Oro	6	Junio	2023-04-06T00:00:00	2024-11-08T06:00:00	1	Precipitación	0
152832	7	Sololá	719	Santiago Atitlán	14	Cerro de Oro	6	Junio	2023-04-06T00:00:00	2024-11-08T06:00:00	8	Radiación solar	6
152833	7	Sololá	719	Santiago Atitlán	14	Cerro de Oro	6	Junio	2023-04-06T00:00:00	2024-11-08T07:00:00	2	Temperatura media	20.7
152834	7	Sololá	719	Santiago Atitlán	14	Cerro de Oro	6	Junio	2023-04-06T00:00:00	2024-11-08T07:00:00	4	Temperatura máxima	20.7
152835	7	Sololá	719	Santiago Atitlán	14	Cerro de Oro	6	Junio	2023-04-06T00:00:00	2024-11-08T07:00:00	3	Temperatura mínima	19.3
152836	7	Sololá	719	Santiago Atitlán	14	Cerro de Oro	6	Junio	2023-04-06T00:00:00	2024-11-08T07:00:00	5	Humedad	85
152837	7	Sololá	719	Santiago Atitlán	14	Cerro de Oro	6	Junio	2023-04-06T00:00:00	2024-11-08T07:00:00	6	Velocidad del viento	3.2
152838	7	Sololá	719	Santiago Atitlán	14	Cerro de Oro	6	Junio	2023-04-06T00:00:00	2024-11-08T07:00:00	7	Dirección del viento	3.22
152839	7	Sololá	719	Santiago Atitlán	14	Cerro de Oro	6	Junio	2023-04-06T00:00:00	2024-11-08T07:00:00	1	Precipitación	0
152840	7	Sololá	719	Santiago Atitlán	14	Cerro de Oro	6	Junio	2023-04-06T00:00:00	2024-11-08T07:00:00	8	Radiación solar	89
152841	7	Sololá	719	Santiago Atitlán	14	Cerro de Oro	6	Junio	2023-04-06T00:00:00	2024-11-08T08:00:00	2	Temperatura media	22.3
152842	7	Sololá	719	Santiago Atitlán	14	Cerro de Oro	6	Junio	2023-04-06T00:00:00	2024-11-08T08:00:00	4	Temperatura máxima	22.4
152843	7	Sololá	719	Santiago Atitlán	14	Cerro de Oro	6	Junio	2023-04-06T00:00:00	2024-11-08T08:00:00	3	Temperatura mínima	20.6
152844	7	Sololá	719	Santiago Atitlán	14	Cerro de Oro	6	Junio	2023-04-06T00:00:00	2024-11-08T08:00:00	5	Humedad	79
152845	7	Sololá	719	Santiago Atitlán	14	Cerro de Oro	6	Junio	2023-04-06T00:00:00	2024-11-08T08:00:00	6	Velocidad del viento	3.2
152846	7	Sololá	719	Santiago Atitlán	14	Cerro de Oro	6	Junio	2023-04-06T00:00:00	2024-11-08T08:00:00	7	Dirección del viento	3.22
152847	7	Sololá	719	Santiago Atitlán	14	Cerro de Oro	6	Junio	2023-04-06T00:00:00	2024-11-08T08:00:00	1	Precipitación	0
152848	7	Sololá	719	Santiago Atitlán	14	Cerro de Oro	6	Junio	2023-04-06T00:00:00	2024-11-08T08:00:00	8	Radiación solar	297
152849	7	Sololá	719	Santiago Atitlán	14	Cerro de Oro	6	Junio	2023-04-06T00:00:00	2024-11-08T09:00:00	2	Temperatura media	22.7
152850	7	Sololá	719	Santiago Atitlán	14	Cerro de Oro	6	Junio	2023-04-06T00:00:00	2024-11-08T09:00:00	4	Temperatura máxima	23
152851	7	Sololá	719	Santiago Atitlán	14	Cerro de Oro	6	Junio	2023-04-06T00:00:00	2024-11-08T09:00:00	3	Temperatura mínima	22.3
152852	7	Sololá	719	Santiago Atitlán	14	Cerro de Oro	6	Junio	2023-04-06T00:00:00	2024-11-08T09:00:00	5	Humedad	82
152853	7	Sololá	719	Santiago Atitlán	14	Cerro de Oro	6	Junio	2023-04-06T00:00:00	2024-11-08T09:00:00	6	Velocidad del viento	4.8
152854	7	Sololá	719	Santiago Atitlán	14	Cerro de Oro	6	Junio	2023-04-06T00:00:00	2024-11-08T09:00:00	7	Dirección del viento	4.83
152855	7	Sololá	719	Santiago Atitlán	14	Cerro de Oro	6	Junio	2023-04-06T00:00:00	2024-11-08T09:00:00	1	Precipitación	0
152856	7	Sololá	719	Santiago Atitlán	14	Cerro de Oro	6	Junio	2023-04-06T00:00:00	2024-11-08T09:00:00	8	Radiación solar	470
152857	7	Sololá	719	Santiago Atitlán	14	Cerro de Oro	6	Junio	2023-04-06T00:00:00	2024-11-08T10:00:00	2	Temperatura media	23.9
152858	7	Sololá	719	Santiago Atitlán	14	Cerro de Oro	6	Junio	2023-04-06T00:00:00	2024-11-08T10:00:00	4	Temperatura máxima	24.6
152859	7	Sololá	719	Santiago Atitlán	14	Cerro de Oro	6	Junio	2023-04-06T00:00:00	2024-11-08T10:00:00	3	Temperatura mínima	22.7
152860	7	Sololá	719	Santiago Atitlán	14	Cerro de Oro	6	Junio	2023-04-06T00:00:00	2024-11-08T10:00:00	5	Humedad	75
152861	7	Sololá	719	Santiago Atitlán	14	Cerro de Oro	6	Junio	2023-04-06T00:00:00	2024-11-08T10:00:00	6	Velocidad del viento	4.8
152862	7	Sololá	719	Santiago Atitlán	14	Cerro de Oro	6	Junio	2023-04-06T00:00:00	2024-11-08T10:00:00	7	Dirección del viento	4.83
152863	7	Sololá	719	Santiago Atitlán	14	Cerro de Oro	6	Junio	2023-04-06T00:00:00	2024-11-08T10:00:00	1	Precipitación	0
152864	7	Sololá	719	Santiago Atitlán	14	Cerro de Oro	6	Junio	2023-04-06T00:00:00	2024-11-08T10:00:00	8	Radiación solar	713
152865	7	Sololá	719	Santiago Atitlán	14	Cerro de Oro	6	Junio	2023-04-06T00:00:00	2024-11-08T11:00:00	2	Temperatura media	24.9
152866	7	Sololá	719	Santiago Atitlán	14	Cerro de Oro	6	Junio	2023-04-06T00:00:00	2024-11-08T11:00:00	4	Temperatura máxima	24.9
152867	7	Sololá	719	Santiago Atitlán	14	Cerro de Oro	6	Junio	2023-04-06T00:00:00	2024-11-08T11:00:00	3	Temperatura mínima	23.7
152868	7	Sololá	719	Santiago Atitlán	14	Cerro de Oro	6	Junio	2023-04-06T00:00:00	2024-11-08T11:00:00	5	Humedad	75
152869	7	Sololá	719	Santiago Atitlán	14	Cerro de Oro	6	Junio	2023-04-06T00:00:00	2024-11-08T11:00:00	6	Velocidad del viento	6.4
152870	7	Sololá	719	Santiago Atitlán	14	Cerro de Oro	6	Junio	2023-04-06T00:00:00	2024-11-08T11:00:00	7	Dirección del viento	6.44
152871	7	Sololá	719	Santiago Atitlán	14	Cerro de Oro	6	Junio	2023-04-06T00:00:00	2024-11-08T11:00:00	1	Precipitación	0
152872	7	Sololá	719	Santiago Atitlán	14	Cerro de Oro	6	Junio	2023-04-06T00:00:00	2024-11-08T11:00:00	8	Radiación solar	820
152873	7	Sololá	719	Santiago Atitlán	14	Cerro de Oro	6	Junio	2023-04-06T00:00:00	2024-11-08T12:00:00	2	Temperatura media	24.9
152874	7	Sololá	719	Santiago Atitlán	14	Cerro de Oro	6	Junio	2023-04-06T00:00:00	2024-11-08T12:00:00	4	Temperatura máxima	25.2
152875	7	Sololá	719	Santiago Atitlán	14	Cerro de Oro	6	Junio	2023-04-06T00:00:00	2024-11-08T12:00:00	3	Temperatura mínima	24
152876	7	Sololá	719	Santiago Atitlán	14	Cerro de Oro	6	Junio	2023-04-06T00:00:00	2024-11-08T12:00:00	5	Humedad	75
152877	7	Sololá	719	Santiago Atitlán	14	Cerro de Oro	6	Junio	2023-04-06T00:00:00	2024-11-08T12:00:00	6	Velocidad del viento	11.3
152878	7	Sololá	719	Santiago Atitlán	14	Cerro de Oro	6	Junio	2023-04-06T00:00:00	2024-11-08T12:00:00	7	Dirección del viento	11.27
152879	7	Sololá	719	Santiago Atitlán	14	Cerro de Oro	6	Junio	2023-04-06T00:00:00	2024-11-08T12:00:00	1	Precipitación	0
152880	7	Sololá	719	Santiago Atitlán	14	Cerro de Oro	6	Junio	2023-04-06T00:00:00	2024-11-08T12:00:00	8	Radiación solar	777
152881	7	Sololá	719	Santiago Atitlán	14	Cerro de Oro	6	Junio	2023-04-06T00:00:00	2024-11-08T13:00:00	2	Temperatura media	23.6
152882	7	Sololá	719	Santiago Atitlán	14	Cerro de Oro	6	Junio	2023-04-06T00:00:00	2024-11-08T13:00:00	4	Temperatura máxima	25.1
152883	7	Sololá	719	Santiago Atitlán	14	Cerro de Oro	6	Junio	2023-04-06T00:00:00	2024-11-08T13:00:00	3	Temperatura mínima	23.6
152884	7	Sololá	719	Santiago Atitlán	14	Cerro de Oro	6	Junio	2023-04-06T00:00:00	2024-11-08T13:00:00	5	Humedad	79
152885	7	Sololá	719	Santiago Atitlán	14	Cerro de Oro	6	Junio	2023-04-06T00:00:00	2024-11-08T13:00:00	6	Velocidad del viento	12.9
152886	7	Sololá	719	Santiago Atitlán	14	Cerro de Oro	6	Junio	2023-04-06T00:00:00	2024-11-08T13:00:00	7	Dirección del viento	12.87
152887	7	Sololá	719	Santiago Atitlán	14	Cerro de Oro	6	Junio	2023-04-06T00:00:00	2024-11-08T13:00:00	1	Precipitación	0
152888	7	Sololá	719	Santiago Atitlán	14	Cerro de Oro	6	Junio	2023-04-06T00:00:00	2024-11-08T13:00:00	8	Radiación solar	539
152889	7	Sololá	719	Santiago Atitlán	14	Cerro de Oro	6	Junio	2023-04-06T00:00:00	2024-11-08T14:00:00	2	Temperatura media	22.7
152890	7	Sololá	719	Santiago Atitlán	14	Cerro de Oro	6	Junio	2023-04-06T00:00:00	2024-11-08T14:00:00	4	Temperatura máxima	23.9
152891	7	Sololá	719	Santiago Atitlán	14	Cerro de Oro	6	Junio	2023-04-06T00:00:00	2024-11-08T14:00:00	3	Temperatura mínima	22.7
152892	7	Sololá	719	Santiago Atitlán	14	Cerro de Oro	6	Junio	2023-04-06T00:00:00	2024-11-08T14:00:00	5	Humedad	82
152893	7	Sololá	719	Santiago Atitlán	14	Cerro de Oro	6	Junio	2023-04-06T00:00:00	2024-11-08T14:00:00	6	Velocidad del viento	12.9
152894	7	Sololá	719	Santiago Atitlán	14	Cerro de Oro	6	Junio	2023-04-06T00:00:00	2024-11-08T14:00:00	7	Dirección del viento	12.87
152895	7	Sololá	719	Santiago Atitlán	14	Cerro de Oro	6	Junio	2023-04-06T00:00:00	2024-11-08T14:00:00	1	Precipitación	0
152896	7	Sololá	719	Santiago Atitlán	14	Cerro de Oro	6	Junio	2023-04-06T00:00:00	2024-11-08T14:00:00	8	Radiación solar	301
152897	7	Sololá	719	Santiago Atitlán	14	Cerro de Oro	6	Junio	2023-04-06T00:00:00	2024-11-08T15:00:00	2	Temperatura media	22
152898	7	Sololá	719	Santiago Atitlán	14	Cerro de Oro	6	Junio	2023-04-06T00:00:00	2024-11-08T15:00:00	4	Temperatura máxima	23
152899	7	Sololá	719	Santiago Atitlán	14	Cerro de Oro	6	Junio	2023-04-06T00:00:00	2024-11-08T15:00:00	3	Temperatura mínima	21.9
152900	7	Sololá	719	Santiago Atitlán	14	Cerro de Oro	6	Junio	2023-04-06T00:00:00	2024-11-08T15:00:00	5	Humedad	85
152901	7	Sololá	719	Santiago Atitlán	14	Cerro de Oro	6	Junio	2023-04-06T00:00:00	2024-11-08T15:00:00	6	Velocidad del viento	8
152902	7	Sololá	719	Santiago Atitlán	14	Cerro de Oro	6	Junio	2023-04-06T00:00:00	2024-11-08T15:00:00	7	Dirección del viento	8.05
152903	7	Sololá	719	Santiago Atitlán	14	Cerro de Oro	6	Junio	2023-04-06T00:00:00	2024-11-08T15:00:00	1	Precipitación	0
152904	7	Sololá	719	Santiago Atitlán	14	Cerro de Oro	6	Junio	2023-04-06T00:00:00	2024-11-08T15:00:00	8	Radiación solar	126
152905	7	Sololá	719	Santiago Atitlán	14	Cerro de Oro	6	Junio	2023-04-06T00:00:00	2024-11-08T16:00:00	2	Temperatura media	20.6
152906	7	Sololá	719	Santiago Atitlán	14	Cerro de Oro	6	Junio	2023-04-06T00:00:00	2024-11-08T16:00:00	4	Temperatura máxima	22
152907	7	Sololá	719	Santiago Atitlán	14	Cerro de Oro	6	Junio	2023-04-06T00:00:00	2024-11-08T16:00:00	3	Temperatura mínima	20.4
152908	7	Sololá	719	Santiago Atitlán	14	Cerro de Oro	6	Junio	2023-04-06T00:00:00	2024-11-08T16:00:00	5	Humedad	85
152909	7	Sololá	719	Santiago Atitlán	14	Cerro de Oro	6	Junio	2023-04-06T00:00:00	2024-11-08T16:00:00	6	Velocidad del viento	9.7
152910	7	Sololá	719	Santiago Atitlán	14	Cerro de Oro	6	Junio	2023-04-06T00:00:00	2024-11-08T16:00:00	7	Dirección del viento	9.66
152911	7	Sololá	719	Santiago Atitlán	14	Cerro de Oro	6	Junio	2023-04-06T00:00:00	2024-11-08T16:00:00	1	Precipitación	0
152912	7	Sololá	719	Santiago Atitlán	14	Cerro de Oro	6	Junio	2023-04-06T00:00:00	2024-11-08T16:00:00	8	Radiación solar	12
152913	7	Sololá	719	Santiago Atitlán	14	Cerro de Oro	6	Junio	2023-04-06T00:00:00	2024-11-08T17:00:00	2	Temperatura media	20.6
152914	7	Sololá	719	Santiago Atitlán	14	Cerro de Oro	6	Junio	2023-04-06T00:00:00	2024-11-08T17:00:00	4	Temperatura máxima	20.7
152915	7	Sololá	719	Santiago Atitlán	14	Cerro de Oro	6	Junio	2023-04-06T00:00:00	2024-11-08T17:00:00	3	Temperatura mínima	20.3
152916	7	Sololá	719	Santiago Atitlán	14	Cerro de Oro	6	Junio	2023-04-06T00:00:00	2024-11-08T17:00:00	5	Humedad	87
152917	7	Sololá	719	Santiago Atitlán	14	Cerro de Oro	6	Junio	2023-04-06T00:00:00	2024-11-08T17:00:00	6	Velocidad del viento	6.4
152918	7	Sololá	719	Santiago Atitlán	14	Cerro de Oro	6	Junio	2023-04-06T00:00:00	2024-11-08T17:00:00	7	Dirección del viento	6.44
152919	7	Sololá	719	Santiago Atitlán	14	Cerro de Oro	6	Junio	2023-04-06T00:00:00	2024-11-08T17:00:00	1	Precipitación	0
152920	7	Sololá	719	Santiago Atitlán	14	Cerro de Oro	6	Junio	2023-04-06T00:00:00	2024-11-08T17:00:00	8	Radiación solar	8
152921	7	Sololá	719	Santiago Atitlán	14	Cerro de Oro	6	Junio	2023-04-06T00:00:00	2024-11-08T18:00:00	2	Temperatura media	20.3
152922	7	Sololá	719	Santiago Atitlán	14	Cerro de Oro	6	Junio	2023-04-06T00:00:00	2024-11-08T18:00:00	4	Temperatura máxima	20.7
152923	7	Sololá	719	Santiago Atitlán	14	Cerro de Oro	6	Junio	2023-04-06T00:00:00	2024-11-08T18:00:00	3	Temperatura mínima	20.1
152924	7	Sololá	719	Santiago Atitlán	14	Cerro de Oro	6	Junio	2023-04-06T00:00:00	2024-11-08T18:00:00	5	Humedad	86
152925	7	Sololá	719	Santiago Atitlán	14	Cerro de Oro	6	Junio	2023-04-06T00:00:00	2024-11-08T18:00:00	6	Velocidad del viento	6.4
152926	7	Sololá	719	Santiago Atitlán	14	Cerro de Oro	6	Junio	2023-04-06T00:00:00	2024-11-08T18:00:00	7	Dirección del viento	6.44
152927	7	Sololá	719	Santiago Atitlán	14	Cerro de Oro	6	Junio	2023-04-06T00:00:00	2024-11-08T18:00:00	1	Precipitación	0
152928	7	Sololá	719	Santiago Atitlán	14	Cerro de Oro	6	Junio	2023-04-06T00:00:00	2024-11-08T18:00:00	8	Radiación solar	11
152929	7	Sololá	719	Santiago Atitlán	14	Cerro de Oro	6	Junio	2023-04-06T00:00:00	2024-11-08T19:00:00	2	Temperatura media	20.1
152930	7	Sololá	719	Santiago Atitlán	14	Cerro de Oro	6	Junio	2023-04-06T00:00:00	2024-11-08T19:00:00	4	Temperatura máxima	20.4
152931	7	Sololá	719	Santiago Atitlán	14	Cerro de Oro	6	Junio	2023-04-06T00:00:00	2024-11-08T19:00:00	3	Temperatura mínima	20
152932	7	Sololá	719	Santiago Atitlán	14	Cerro de Oro	6	Junio	2023-04-06T00:00:00	2024-11-08T19:00:00	5	Humedad	84
152933	7	Sololá	719	Santiago Atitlán	14	Cerro de Oro	6	Junio	2023-04-06T00:00:00	2024-11-08T19:00:00	6	Velocidad del viento	8
152934	7	Sololá	719	Santiago Atitlán	14	Cerro de Oro	6	Junio	2023-04-06T00:00:00	2024-11-08T19:00:00	7	Dirección del viento	8.05
152935	7	Sololá	719	Santiago Atitlán	14	Cerro de Oro	6	Junio	2023-04-06T00:00:00	2024-11-08T19:00:00	1	Precipitación	0
152936	7	Sololá	719	Santiago Atitlán	14	Cerro de Oro	6	Junio	2023-04-06T00:00:00	2024-11-08T19:00:00	8	Radiación solar	0
152937	7	Sololá	719	Santiago Atitlán	14	Cerro de Oro	6	Junio	2023-04-06T00:00:00	2024-11-08T20:00:00	2	Temperatura media	19.7
152938	7	Sololá	719	Santiago Atitlán	14	Cerro de Oro	6	Junio	2023-04-06T00:00:00	2024-11-08T20:00:00	4	Temperatura máxima	20.8
152939	7	Sololá	719	Santiago Atitlán	14	Cerro de Oro	6	Junio	2023-04-06T00:00:00	2024-11-08T20:00:00	3	Temperatura mínima	19.7
152940	7	Sololá	719	Santiago Atitlán	14	Cerro de Oro	6	Junio	2023-04-06T00:00:00	2024-11-08T20:00:00	5	Humedad	82
152941	7	Sololá	719	Santiago Atitlán	14	Cerro de Oro	6	Junio	2023-04-06T00:00:00	2024-11-08T20:00:00	6	Velocidad del viento	8
152942	7	Sololá	719	Santiago Atitlán	14	Cerro de Oro	6	Junio	2023-04-06T00:00:00	2024-11-08T20:00:00	7	Dirección del viento	8.05
152943	7	Sololá	719	Santiago Atitlán	14	Cerro de Oro	6	Junio	2023-04-06T00:00:00	2024-11-08T20:00:00	1	Precipitación	0
152944	7	Sololá	719	Santiago Atitlán	14	Cerro de Oro	6	Junio	2023-04-06T00:00:00	2024-11-08T20:00:00	8	Radiación solar	0
152945	7	Sololá	719	Santiago Atitlán	14	Cerro de Oro	6	Junio	2023-04-06T00:00:00	2024-11-08T21:00:00	2	Temperatura media	19.3
152946	7	Sololá	719	Santiago Atitlán	14	Cerro de Oro	6	Junio	2023-04-06T00:00:00	2024-11-08T21:00:00	4	Temperatura máxima	19.9
152947	7	Sololá	719	Santiago Atitlán	14	Cerro de Oro	6	Junio	2023-04-06T00:00:00	2024-11-08T21:00:00	3	Temperatura mínima	19.2
152948	7	Sololá	719	Santiago Atitlán	14	Cerro de Oro	6	Junio	2023-04-06T00:00:00	2024-11-08T21:00:00	5	Humedad	87
152949	7	Sololá	719	Santiago Atitlán	14	Cerro de Oro	6	Junio	2023-04-06T00:00:00	2024-11-08T21:00:00	6	Velocidad del viento	4.8
152950	7	Sololá	719	Santiago Atitlán	14	Cerro de Oro	6	Junio	2023-04-06T00:00:00	2024-11-08T21:00:00	7	Dirección del viento	4.83
152951	7	Sololá	719	Santiago Atitlán	14	Cerro de Oro	6	Junio	2023-04-06T00:00:00	2024-11-08T21:00:00	1	Precipitación	0
152952	7	Sololá	719	Santiago Atitlán	14	Cerro de Oro	6	Junio	2023-04-06T00:00:00	2024-11-08T21:00:00	8	Radiación solar	0
152953	7	Sololá	719	Santiago Atitlán	14	Cerro de Oro	6	Junio	2023-04-06T00:00:00	2024-11-08T22:00:00	2	Temperatura media	19.4
152954	7	Sololá	719	Santiago Atitlán	14	Cerro de Oro	6	Junio	2023-04-06T00:00:00	2024-11-08T22:00:00	4	Temperatura máxima	19.7
152955	7	Sololá	719	Santiago Atitlán	14	Cerro de Oro	6	Junio	2023-04-06T00:00:00	2024-11-08T22:00:00	3	Temperatura mínima	19.2
152956	7	Sololá	719	Santiago Atitlán	14	Cerro de Oro	6	Junio	2023-04-06T00:00:00	2024-11-08T22:00:00	5	Humedad	86
152957	7	Sololá	719	Santiago Atitlán	14	Cerro de Oro	6	Junio	2023-04-06T00:00:00	2024-11-08T22:00:00	6	Velocidad del viento	1.6
152958	7	Sololá	719	Santiago Atitlán	14	Cerro de Oro	6	Junio	2023-04-06T00:00:00	2024-11-08T22:00:00	7	Dirección del viento	1.61
152959	7	Sololá	719	Santiago Atitlán	14	Cerro de Oro	6	Junio	2023-04-06T00:00:00	2024-11-08T22:00:00	1	Precipitación	0
152960	7	Sololá	719	Santiago Atitlán	14	Cerro de Oro	6	Junio	2023-04-06T00:00:00	2024-11-08T22:00:00	8	Radiación solar	0
152961	7	Sololá	719	Santiago Atitlán	14	Cerro de Oro	6	Junio	2023-04-06T00:00:00	2024-11-08T23:00:00	2	Temperatura media	19.3
152962	7	Sololá	719	Santiago Atitlán	14	Cerro de Oro	6	Junio	2023-04-06T00:00:00	2024-11-08T23:00:00	4	Temperatura máxima	19.4
152963	7	Sololá	719	Santiago Atitlán	14	Cerro de Oro	6	Junio	2023-04-06T00:00:00	2024-11-08T23:00:00	3	Temperatura mínima	19.1
152964	7	Sololá	719	Santiago Atitlán	14	Cerro de Oro	6	Junio	2023-04-06T00:00:00	2024-11-08T23:00:00	5	Humedad	85
152965	7	Sololá	719	Santiago Atitlán	14	Cerro de Oro	6	Junio	2023-04-06T00:00:00	2024-11-08T23:00:00	6	Velocidad del viento	4.8
152966	7	Sololá	719	Santiago Atitlán	14	Cerro de Oro	6	Junio	2023-04-06T00:00:00	2024-11-08T23:00:00	7	Dirección del viento	4.83
152967	7	Sololá	719	Santiago Atitlán	14	Cerro de Oro	6	Junio	2023-04-06T00:00:00	2024-11-08T23:00:00	1	Precipitación	0
152968	7	Sololá	719	Santiago Atitlán	14	Cerro de Oro	6	Junio	2023-04-06T00:00:00	2024-11-08T23:00:00	8	Radiación solar	0
152969	7	Sololá	719	Santiago Atitlán	14	Cerro de Oro	6	Junio	2023-05-06T00:00:00	2024-11-08T00:00:00	2	Temperatura media	18.5
152970	7	Sololá	719	Santiago Atitlán	14	Cerro de Oro	6	Junio	2023-05-06T00:00:00	2024-11-08T00:00:00	4	Temperatura máxima	19.4
152971	7	Sololá	719	Santiago Atitlán	14	Cerro de Oro	6	Junio	2023-05-06T00:00:00	2024-11-08T00:00:00	3	Temperatura mínima	18.4
152972	7	Sololá	719	Santiago Atitlán	14	Cerro de Oro	6	Junio	2023-05-06T00:00:00	2024-11-08T00:00:00	5	Humedad	87
152973	7	Sololá	719	Santiago Atitlán	14	Cerro de Oro	6	Junio	2023-05-06T00:00:00	2024-11-08T00:00:00	6	Velocidad del viento	4.8
152974	7	Sololá	719	Santiago Atitlán	14	Cerro de Oro	6	Junio	2023-05-06T00:00:00	2024-11-08T00:00:00	7	Dirección del viento	4.83
152975	7	Sololá	719	Santiago Atitlán	14	Cerro de Oro	6	Junio	2023-05-06T00:00:00	2024-11-08T00:00:00	1	Precipitación	0
152976	7	Sololá	719	Santiago Atitlán	14	Cerro de Oro	6	Junio	2023-05-06T00:00:00	2024-11-08T00:00:00	8	Radiación solar	0
152977	7	Sololá	719	Santiago Atitlán	14	Cerro de Oro	6	Junio	2023-05-06T00:00:00	2024-11-08T01:00:00	2	Temperatura media	18.7
152978	7	Sololá	719	Santiago Atitlán	14	Cerro de Oro	6	Junio	2023-05-06T00:00:00	2024-11-08T01:00:00	4	Temperatura máxima	18.8
152979	7	Sololá	719	Santiago Atitlán	14	Cerro de Oro	6	Junio	2023-05-06T00:00:00	2024-11-08T01:00:00	3	Temperatura mínima	18.4
152980	7	Sololá	719	Santiago Atitlán	14	Cerro de Oro	6	Junio	2023-05-06T00:00:00	2024-11-08T01:00:00	5	Humedad	88
152981	7	Sololá	719	Santiago Atitlán	14	Cerro de Oro	6	Junio	2023-05-06T00:00:00	2024-11-08T01:00:00	6	Velocidad del viento	4.8
152982	7	Sololá	719	Santiago Atitlán	14	Cerro de Oro	6	Junio	2023-05-06T00:00:00	2024-11-08T01:00:00	7	Dirección del viento	4.83
152983	7	Sololá	719	Santiago Atitlán	14	Cerro de Oro	6	Junio	2023-05-06T00:00:00	2024-11-08T01:00:00	1	Precipitación	0
152984	7	Sololá	719	Santiago Atitlán	14	Cerro de Oro	6	Junio	2023-05-06T00:00:00	2024-11-08T01:00:00	8	Radiación solar	0
152985	7	Sololá	719	Santiago Atitlán	14	Cerro de Oro	6	Junio	2023-05-06T00:00:00	2024-11-08T02:00:00	2	Temperatura media	18.2
152986	7	Sololá	719	Santiago Atitlán	14	Cerro de Oro	6	Junio	2023-05-06T00:00:00	2024-11-08T02:00:00	4	Temperatura máxima	18.8
152987	7	Sololá	719	Santiago Atitlán	14	Cerro de Oro	6	Junio	2023-05-06T00:00:00	2024-11-08T02:00:00	3	Temperatura mínima	18.1
152988	7	Sololá	719	Santiago Atitlán	14	Cerro de Oro	6	Junio	2023-05-06T00:00:00	2024-11-08T02:00:00	5	Humedad	85
152989	7	Sololá	719	Santiago Atitlán	14	Cerro de Oro	6	Junio	2023-05-06T00:00:00	2024-11-08T02:00:00	6	Velocidad del viento	4.8
152990	7	Sololá	719	Santiago Atitlán	14	Cerro de Oro	6	Junio	2023-05-06T00:00:00	2024-11-08T02:00:00	7	Dirección del viento	4.83
152991	7	Sololá	719	Santiago Atitlán	14	Cerro de Oro	6	Junio	2023-05-06T00:00:00	2024-11-08T02:00:00	1	Precipitación	0
152992	7	Sololá	719	Santiago Atitlán	14	Cerro de Oro	6	Junio	2023-05-06T00:00:00	2024-11-08T02:00:00	8	Radiación solar	0
152993	7	Sololá	719	Santiago Atitlán	14	Cerro de Oro	6	Junio	2023-05-06T00:00:00	2024-11-08T03:00:00	2	Temperatura media	18
152994	7	Sololá	719	Santiago Atitlán	14	Cerro de Oro	6	Junio	2023-05-06T00:00:00	2024-11-08T03:00:00	4	Temperatura máxima	18.3
152995	7	Sololá	719	Santiago Atitlán	14	Cerro de Oro	6	Junio	2023-05-06T00:00:00	2024-11-08T03:00:00	3	Temperatura mínima	18
152996	7	Sololá	719	Santiago Atitlán	14	Cerro de Oro	6	Junio	2023-05-06T00:00:00	2024-11-08T03:00:00	5	Humedad	83
152997	7	Sololá	719	Santiago Atitlán	14	Cerro de Oro	6	Junio	2023-05-06T00:00:00	2024-11-08T03:00:00	6	Velocidad del viento	3.2
152998	7	Sololá	719	Santiago Atitlán	14	Cerro de Oro	6	Junio	2023-05-06T00:00:00	2024-11-08T03:00:00	7	Dirección del viento	3.22
152999	7	Sololá	719	Santiago Atitlán	14	Cerro de Oro	6	Junio	2023-05-06T00:00:00	2024-11-08T03:00:00	1	Precipitación	0
153000	7	Sololá	719	Santiago Atitlán	14	Cerro de Oro	6	Junio	2023-05-06T00:00:00	2024-11-08T03:00:00	8	Radiación solar	0
153001	7	Sololá	719	Santiago Atitlán	14	Cerro de Oro	6	Junio	2023-05-06T00:00:00	2024-11-08T04:00:00	2	Temperatura media	17.9
153002	7	Sololá	719	Santiago Atitlán	14	Cerro de Oro	6	Junio	2023-05-06T00:00:00	2024-11-08T04:00:00	4	Temperatura máxima	18.3
153003	7	Sololá	719	Santiago Atitlán	14	Cerro de Oro	6	Junio	2023-05-06T00:00:00	2024-11-08T04:00:00	3	Temperatura mínima	17.8
153004	7	Sololá	719	Santiago Atitlán	14	Cerro de Oro	6	Junio	2023-05-06T00:00:00	2024-11-08T04:00:00	5	Humedad	81
153005	7	Sololá	719	Santiago Atitlán	14	Cerro de Oro	6	Junio	2023-05-06T00:00:00	2024-11-08T04:00:00	6	Velocidad del viento	4.8
153006	7	Sololá	719	Santiago Atitlán	14	Cerro de Oro	6	Junio	2023-05-06T00:00:00	2024-11-08T04:00:00	7	Dirección del viento	4.83
153007	7	Sololá	719	Santiago Atitlán	14	Cerro de Oro	6	Junio	2023-05-06T00:00:00	2024-11-08T04:00:00	1	Precipitación	0
153008	7	Sololá	719	Santiago Atitlán	14	Cerro de Oro	6	Junio	2023-05-06T00:00:00	2024-11-08T04:00:00	8	Radiación solar	0
153009	7	Sololá	719	Santiago Atitlán	14	Cerro de Oro	6	Junio	2023-05-06T00:00:00	2024-11-08T05:00:00	2	Temperatura media	18
153010	7	Sololá	719	Santiago Atitlán	14	Cerro de Oro	6	Junio	2023-05-06T00:00:00	2024-11-08T05:00:00	4	Temperatura máxima	18.1
153011	7	Sololá	719	Santiago Atitlán	14	Cerro de Oro	6	Junio	2023-05-06T00:00:00	2024-11-08T05:00:00	3	Temperatura mínima	17.6
153012	7	Sololá	719	Santiago Atitlán	14	Cerro de Oro	6	Junio	2023-05-06T00:00:00	2024-11-08T05:00:00	5	Humedad	79
153013	7	Sololá	719	Santiago Atitlán	14	Cerro de Oro	6	Junio	2023-05-06T00:00:00	2024-11-08T05:00:00	6	Velocidad del viento	4.8
153014	7	Sololá	719	Santiago Atitlán	14	Cerro de Oro	6	Junio	2023-05-06T00:00:00	2024-11-08T05:00:00	7	Dirección del viento	4.83
153015	7	Sololá	719	Santiago Atitlán	14	Cerro de Oro	6	Junio	2023-05-06T00:00:00	2024-11-08T05:00:00	1	Precipitación	0
153016	7	Sololá	719	Santiago Atitlán	14	Cerro de Oro	6	Junio	2023-05-06T00:00:00	2024-11-08T05:00:00	8	Radiación solar	0
153017	7	Sololá	719	Santiago Atitlán	14	Cerro de Oro	6	Junio	2023-05-06T00:00:00	2024-11-08T06:00:00	2	Temperatura media	17.5
153018	7	Sololá	719	Santiago Atitlán	14	Cerro de Oro	6	Junio	2023-05-06T00:00:00	2024-11-08T06:00:00	4	Temperatura máxima	18
153019	7	Sololá	719	Santiago Atitlán	14	Cerro de Oro	6	Junio	2023-05-06T00:00:00	2024-11-08T06:00:00	3	Temperatura mínima	17.3
153020	7	Sololá	719	Santiago Atitlán	14	Cerro de Oro	6	Junio	2023-05-06T00:00:00	2024-11-08T06:00:00	5	Humedad	79
153021	7	Sololá	719	Santiago Atitlán	14	Cerro de Oro	6	Junio	2023-05-06T00:00:00	2024-11-08T06:00:00	6	Velocidad del viento	3.2
153022	7	Sololá	719	Santiago Atitlán	14	Cerro de Oro	6	Junio	2023-05-06T00:00:00	2024-11-08T06:00:00	7	Dirección del viento	3.22
153023	7	Sololá	719	Santiago Atitlán	14	Cerro de Oro	6	Junio	2023-05-06T00:00:00	2024-11-08T06:00:00	1	Precipitación	0
153024	7	Sololá	719	Santiago Atitlán	14	Cerro de Oro	6	Junio	2023-05-06T00:00:00	2024-11-08T06:00:00	8	Radiación solar	5
153025	7	Sololá	719	Santiago Atitlán	14	Cerro de Oro	6	Junio	2023-05-06T00:00:00	2024-11-08T07:00:00	2	Temperatura media	20.4
153026	7	Sololá	719	Santiago Atitlán	14	Cerro de Oro	6	Junio	2023-05-06T00:00:00	2024-11-08T07:00:00	4	Temperatura máxima	20.4
153027	7	Sololá	719	Santiago Atitlán	14	Cerro de Oro	6	Junio	2023-05-06T00:00:00	2024-11-08T07:00:00	3	Temperatura mínima	17.4
153028	7	Sololá	719	Santiago Atitlán	14	Cerro de Oro	6	Junio	2023-05-06T00:00:00	2024-11-08T07:00:00	5	Humedad	74
153029	7	Sololá	719	Santiago Atitlán	14	Cerro de Oro	6	Junio	2023-05-06T00:00:00	2024-11-08T07:00:00	6	Velocidad del viento	4.8
153030	7	Sololá	719	Santiago Atitlán	14	Cerro de Oro	6	Junio	2023-05-06T00:00:00	2024-11-08T07:00:00	7	Dirección del viento	4.83
153031	7	Sololá	719	Santiago Atitlán	14	Cerro de Oro	6	Junio	2023-05-06T00:00:00	2024-11-08T07:00:00	1	Precipitación	0
153032	7	Sololá	719	Santiago Atitlán	14	Cerro de Oro	6	Junio	2023-05-06T00:00:00	2024-11-08T07:00:00	8	Radiación solar	123
153033	7	Sololá	719	Santiago Atitlán	14	Cerro de Oro	6	Junio	2023-05-06T00:00:00	2024-11-08T08:00:00	2	Temperatura media	21.3
153034	7	Sololá	719	Santiago Atitlán	14	Cerro de Oro	6	Junio	2023-05-06T00:00:00	2024-11-08T08:00:00	4	Temperatura máxima	21.3
153035	7	Sololá	719	Santiago Atitlán	14	Cerro de Oro	6	Junio	2023-05-06T00:00:00	2024-11-08T08:00:00	3	Temperatura mínima	20.4
153036	7	Sololá	719	Santiago Atitlán	14	Cerro de Oro	6	Junio	2023-05-06T00:00:00	2024-11-08T08:00:00	5	Humedad	73
153037	7	Sololá	719	Santiago Atitlán	14	Cerro de Oro	6	Junio	2023-05-06T00:00:00	2024-11-08T08:00:00	6	Velocidad del viento	3.2
153038	7	Sololá	719	Santiago Atitlán	14	Cerro de Oro	6	Junio	2023-05-06T00:00:00	2024-11-08T08:00:00	7	Dirección del viento	3.22
153039	7	Sololá	719	Santiago Atitlán	14	Cerro de Oro	6	Junio	2023-05-06T00:00:00	2024-11-08T08:00:00	1	Precipitación	0
153040	7	Sololá	719	Santiago Atitlán	14	Cerro de Oro	6	Junio	2023-05-06T00:00:00	2024-11-08T08:00:00	8	Radiación solar	347
153041	7	Sololá	719	Santiago Atitlán	14	Cerro de Oro	6	Junio	2023-05-06T00:00:00	2024-11-08T09:00:00	2	Temperatura media	21.4
153042	7	Sololá	719	Santiago Atitlán	14	Cerro de Oro	6	Junio	2023-05-06T00:00:00	2024-11-08T09:00:00	4	Temperatura máxima	21.6
153043	7	Sololá	719	Santiago Atitlán	14	Cerro de Oro	6	Junio	2023-05-06T00:00:00	2024-11-08T09:00:00	3	Temperatura mínima	21.1
153044	7	Sololá	719	Santiago Atitlán	14	Cerro de Oro	6	Junio	2023-05-06T00:00:00	2024-11-08T09:00:00	5	Humedad	75
153045	7	Sololá	719	Santiago Atitlán	14	Cerro de Oro	6	Junio	2023-05-06T00:00:00	2024-11-08T09:00:00	6	Velocidad del viento	4.8
153046	7	Sololá	719	Santiago Atitlán	14	Cerro de Oro	6	Junio	2023-05-06T00:00:00	2024-11-08T09:00:00	7	Dirección del viento	4.83
153047	7	Sololá	719	Santiago Atitlán	14	Cerro de Oro	6	Junio	2023-05-06T00:00:00	2024-11-08T09:00:00	1	Precipitación	0
153048	7	Sololá	719	Santiago Atitlán	14	Cerro de Oro	6	Junio	2023-05-06T00:00:00	2024-11-08T09:00:00	8	Radiación solar	443
153049	7	Sololá	719	Santiago Atitlán	14	Cerro de Oro	6	Junio	2023-05-06T00:00:00	2024-11-08T10:00:00	2	Temperatura media	22.3
153050	7	Sololá	719	Santiago Atitlán	14	Cerro de Oro	6	Junio	2023-05-06T00:00:00	2024-11-08T10:00:00	4	Temperatura máxima	22.3
153051	7	Sololá	719	Santiago Atitlán	14	Cerro de Oro	6	Junio	2023-05-06T00:00:00	2024-11-08T10:00:00	3	Temperatura mínima	21.4
153052	7	Sololá	719	Santiago Atitlán	14	Cerro de Oro	6	Junio	2023-05-06T00:00:00	2024-11-08T10:00:00	5	Humedad	71
153053	7	Sololá	719	Santiago Atitlán	14	Cerro de Oro	6	Junio	2023-05-06T00:00:00	2024-11-08T10:00:00	6	Velocidad del viento	6.4
153054	7	Sololá	719	Santiago Atitlán	14	Cerro de Oro	6	Junio	2023-05-06T00:00:00	2024-11-08T10:00:00	7	Dirección del viento	6.44
153055	7	Sololá	719	Santiago Atitlán	14	Cerro de Oro	6	Junio	2023-05-06T00:00:00	2024-11-08T10:00:00	1	Precipitación	0
153056	7	Sololá	719	Santiago Atitlán	14	Cerro de Oro	6	Junio	2023-05-06T00:00:00	2024-11-08T10:00:00	8	Radiación solar	497
153057	7	Sololá	719	Santiago Atitlán	14	Cerro de Oro	6	Junio	2023-05-06T00:00:00	2024-11-08T11:00:00	2	Temperatura media	22.2
153058	7	Sololá	719	Santiago Atitlán	14	Cerro de Oro	6	Junio	2023-05-06T00:00:00	2024-11-08T11:00:00	4	Temperatura máxima	22.5
153059	7	Sololá	719	Santiago Atitlán	14	Cerro de Oro	6	Junio	2023-05-06T00:00:00	2024-11-08T11:00:00	3	Temperatura mínima	22
153060	7	Sololá	719	Santiago Atitlán	14	Cerro de Oro	6	Junio	2023-05-06T00:00:00	2024-11-08T11:00:00	5	Humedad	71
153061	7	Sololá	719	Santiago Atitlán	14	Cerro de Oro	6	Junio	2023-05-06T00:00:00	2024-11-08T11:00:00	6	Velocidad del viento	11.3
153062	7	Sololá	719	Santiago Atitlán	14	Cerro de Oro	6	Junio	2023-05-06T00:00:00	2024-11-08T11:00:00	7	Dirección del viento	11.27
153063	7	Sololá	719	Santiago Atitlán	14	Cerro de Oro	6	Junio	2023-05-06T00:00:00	2024-11-08T11:00:00	1	Precipitación	0
153064	7	Sololá	719	Santiago Atitlán	14	Cerro de Oro	6	Junio	2023-05-06T00:00:00	2024-11-08T11:00:00	8	Radiación solar	616
153065	7	Sololá	719	Santiago Atitlán	14	Cerro de Oro	6	Junio	2023-05-06T00:00:00	2024-11-08T12:00:00	2	Temperatura media	23.2
153066	7	Sololá	719	Santiago Atitlán	14	Cerro de Oro	6	Junio	2023-05-06T00:00:00	2024-11-08T12:00:00	4	Temperatura máxima	23.2
153067	7	Sololá	719	Santiago Atitlán	14	Cerro de Oro	6	Junio	2023-05-06T00:00:00	2024-11-08T12:00:00	3	Temperatura mínima	21.9
153068	7	Sololá	719	Santiago Atitlán	14	Cerro de Oro	6	Junio	2023-05-06T00:00:00	2024-11-08T12:00:00	5	Humedad	70
153069	7	Sololá	719	Santiago Atitlán	14	Cerro de Oro	6	Junio	2023-05-06T00:00:00	2024-11-08T12:00:00	6	Velocidad del viento	9.7
153070	7	Sololá	719	Santiago Atitlán	14	Cerro de Oro	6	Junio	2023-05-06T00:00:00	2024-11-08T12:00:00	7	Dirección del viento	9.66
153071	7	Sololá	719	Santiago Atitlán	14	Cerro de Oro	6	Junio	2023-05-06T00:00:00	2024-11-08T12:00:00	1	Precipitación	0
153072	7	Sololá	719	Santiago Atitlán	14	Cerro de Oro	6	Junio	2023-05-06T00:00:00	2024-11-08T12:00:00	8	Radiación solar	756
153073	7	Sololá	719	Santiago Atitlán	14	Cerro de Oro	6	Junio	2023-05-06T00:00:00	2024-11-08T13:00:00	2	Temperatura media	24.4
153074	7	Sololá	719	Santiago Atitlán	14	Cerro de Oro	6	Junio	2023-05-06T00:00:00	2024-11-08T13:00:00	4	Temperatura máxima	24.4
153075	7	Sololá	719	Santiago Atitlán	14	Cerro de Oro	6	Junio	2023-05-06T00:00:00	2024-11-08T13:00:00	3	Temperatura mínima	23.2
153076	7	Sololá	719	Santiago Atitlán	14	Cerro de Oro	6	Junio	2023-05-06T00:00:00	2024-11-08T13:00:00	5	Humedad	57
153077	7	Sololá	719	Santiago Atitlán	14	Cerro de Oro	6	Junio	2023-05-06T00:00:00	2024-11-08T13:00:00	6	Velocidad del viento	11.3
153078	7	Sololá	719	Santiago Atitlán	14	Cerro de Oro	6	Junio	2023-05-06T00:00:00	2024-11-08T13:00:00	7	Dirección del viento	11.27
153079	7	Sololá	719	Santiago Atitlán	14	Cerro de Oro	6	Junio	2023-05-06T00:00:00	2024-11-08T13:00:00	1	Precipitación	0
153080	7	Sololá	719	Santiago Atitlán	14	Cerro de Oro	6	Junio	2023-05-06T00:00:00	2024-11-08T13:00:00	8	Radiación solar	859
153081	7	Sololá	719	Santiago Atitlán	14	Cerro de Oro	6	Junio	2023-05-06T00:00:00	2024-11-08T14:00:00	2	Temperatura media	24.8
153082	7	Sololá	719	Santiago Atitlán	14	Cerro de Oro	6	Junio	2023-05-06T00:00:00	2024-11-08T14:00:00	4	Temperatura máxima	25.3
153083	7	Sololá	719	Santiago Atitlán	14	Cerro de Oro	6	Junio	2023-05-06T00:00:00	2024-11-08T14:00:00	3	Temperatura mínima	24.2
153084	7	Sololá	719	Santiago Atitlán	14	Cerro de Oro	6	Junio	2023-05-06T00:00:00	2024-11-08T14:00:00	5	Humedad	57
153085	7	Sololá	719	Santiago Atitlán	14	Cerro de Oro	6	Junio	2023-05-06T00:00:00	2024-11-08T14:00:00	6	Velocidad del viento	12.9
153086	7	Sololá	719	Santiago Atitlán	14	Cerro de Oro	6	Junio	2023-05-06T00:00:00	2024-11-08T14:00:00	7	Dirección del viento	12.87
153087	7	Sololá	719	Santiago Atitlán	14	Cerro de Oro	6	Junio	2023-05-06T00:00:00	2024-11-08T14:00:00	1	Precipitación	0
153088	7	Sololá	719	Santiago Atitlán	14	Cerro de Oro	6	Junio	2023-05-06T00:00:00	2024-11-08T14:00:00	8	Radiación solar	792
153089	7	Sololá	719	Santiago Atitlán	14	Cerro de Oro	6	Junio	2023-05-06T00:00:00	2024-11-08T15:00:00	2	Temperatura media	22.7
153090	7	Sololá	719	Santiago Atitlán	14	Cerro de Oro	6	Junio	2023-05-06T00:00:00	2024-11-08T15:00:00	4	Temperatura máxima	24.8
153091	7	Sololá	719	Santiago Atitlán	14	Cerro de Oro	6	Junio	2023-05-06T00:00:00	2024-11-08T15:00:00	3	Temperatura mínima	22.6
153092	7	Sololá	719	Santiago Atitlán	14	Cerro de Oro	6	Junio	2023-05-06T00:00:00	2024-11-08T15:00:00	5	Humedad	73
153093	7	Sololá	719	Santiago Atitlán	14	Cerro de Oro	6	Junio	2023-05-06T00:00:00	2024-11-08T15:00:00	6	Velocidad del viento	11.3
153094	7	Sololá	719	Santiago Atitlán	14	Cerro de Oro	6	Junio	2023-05-06T00:00:00	2024-11-08T15:00:00	7	Dirección del viento	11.27
153095	7	Sololá	719	Santiago Atitlán	14	Cerro de Oro	6	Junio	2023-05-06T00:00:00	2024-11-08T15:00:00	1	Precipitación	0
153096	7	Sololá	719	Santiago Atitlán	14	Cerro de Oro	6	Junio	2023-05-06T00:00:00	2024-11-08T15:00:00	8	Radiación solar	438
153097	7	Sololá	719	Santiago Atitlán	14	Cerro de Oro	6	Junio	2023-05-06T00:00:00	2024-11-08T16:00:00	2	Temperatura media	21.2
153098	7	Sololá	719	Santiago Atitlán	14	Cerro de Oro	6	Junio	2023-05-06T00:00:00	2024-11-08T16:00:00	4	Temperatura máxima	22.8
153099	7	Sololá	719	Santiago Atitlán	14	Cerro de Oro	6	Junio	2023-05-06T00:00:00	2024-11-08T16:00:00	3	Temperatura mínima	21.2
153100	7	Sololá	719	Santiago Atitlán	14	Cerro de Oro	6	Junio	2023-05-06T00:00:00	2024-11-08T16:00:00	5	Humedad	80
153101	7	Sololá	719	Santiago Atitlán	14	Cerro de Oro	6	Junio	2023-05-06T00:00:00	2024-11-08T16:00:00	6	Velocidad del viento	11.3
153102	7	Sololá	719	Santiago Atitlán	14	Cerro de Oro	6	Junio	2023-05-06T00:00:00	2024-11-08T16:00:00	7	Dirección del viento	11.27
153103	7	Sololá	719	Santiago Atitlán	14	Cerro de Oro	6	Junio	2023-05-06T00:00:00	2024-11-08T16:00:00	1	Precipitación	0
153104	7	Sololá	719	Santiago Atitlán	14	Cerro de Oro	6	Junio	2023-05-06T00:00:00	2024-11-08T16:00:00	8	Radiación solar	253
153105	7	Sololá	719	Santiago Atitlán	14	Cerro de Oro	6	Junio	2023-05-06T00:00:00	2024-11-08T17:00:00	2	Temperatura media	21.2
153106	7	Sololá	719	Santiago Atitlán	14	Cerro de Oro	6	Junio	2023-05-06T00:00:00	2024-11-08T17:00:00	4	Temperatura máxima	21.5
153107	7	Sololá	719	Santiago Atitlán	14	Cerro de Oro	6	Junio	2023-05-06T00:00:00	2024-11-08T17:00:00	3	Temperatura mínima	21
153108	7	Sololá	719	Santiago Atitlán	14	Cerro de Oro	6	Junio	2023-05-06T00:00:00	2024-11-08T17:00:00	5	Humedad	77
153109	7	Sololá	719	Santiago Atitlán	14	Cerro de Oro	6	Junio	2023-05-06T00:00:00	2024-11-08T17:00:00	6	Velocidad del viento	4.8
153110	7	Sololá	719	Santiago Atitlán	14	Cerro de Oro	6	Junio	2023-05-06T00:00:00	2024-11-08T17:00:00	7	Dirección del viento	4.83
153111	7	Sololá	719	Santiago Atitlán	14	Cerro de Oro	6	Junio	2023-05-06T00:00:00	2024-11-08T17:00:00	1	Precipitación	0
153112	7	Sololá	719	Santiago Atitlán	14	Cerro de Oro	6	Junio	2023-05-06T00:00:00	2024-11-08T17:00:00	8	Radiación solar	199
153113	7	Sololá	719	Santiago Atitlán	14	Cerro de Oro	6	Junio	2023-05-06T00:00:00	2024-11-08T18:00:00	2	Temperatura media	20.7
153114	7	Sololá	719	Santiago Atitlán	14	Cerro de Oro	6	Junio	2023-05-06T00:00:00	2024-11-08T18:00:00	4	Temperatura máxima	21.5
153115	7	Sololá	719	Santiago Atitlán	14	Cerro de Oro	6	Junio	2023-05-06T00:00:00	2024-11-08T18:00:00	3	Temperatura mínima	20.7
153116	7	Sololá	719	Santiago Atitlán	14	Cerro de Oro	6	Junio	2023-05-06T00:00:00	2024-11-08T18:00:00	5	Humedad	82
153117	7	Sololá	719	Santiago Atitlán	14	Cerro de Oro	6	Junio	2023-05-06T00:00:00	2024-11-08T18:00:00	6	Velocidad del viento	3.2
153118	7	Sololá	719	Santiago Atitlán	14	Cerro de Oro	6	Junio	2023-05-06T00:00:00	2024-11-08T18:00:00	7	Dirección del viento	3.22
153119	7	Sololá	719	Santiago Atitlán	14	Cerro de Oro	6	Junio	2023-05-06T00:00:00	2024-11-08T18:00:00	1	Precipitación	0
153120	7	Sololá	719	Santiago Atitlán	14	Cerro de Oro	6	Junio	2023-05-06T00:00:00	2024-11-08T18:00:00	8	Radiación solar	81
153121	7	Sololá	719	Santiago Atitlán	14	Cerro de Oro	6	Junio	2023-05-06T00:00:00	2024-11-08T19:00:00	2	Temperatura media	19.7
153122	7	Sololá	719	Santiago Atitlán	14	Cerro de Oro	6	Junio	2023-05-06T00:00:00	2024-11-08T19:00:00	4	Temperatura máxima	20.7
153123	7	Sololá	719	Santiago Atitlán	14	Cerro de Oro	6	Junio	2023-05-06T00:00:00	2024-11-08T19:00:00	3	Temperatura mínima	19.7
153124	7	Sololá	719	Santiago Atitlán	14	Cerro de Oro	6	Junio	2023-05-06T00:00:00	2024-11-08T19:00:00	5	Humedad	85
153125	7	Sololá	719	Santiago Atitlán	14	Cerro de Oro	6	Junio	2023-05-06T00:00:00	2024-11-08T19:00:00	6	Velocidad del viento	4.8
153126	7	Sololá	719	Santiago Atitlán	14	Cerro de Oro	6	Junio	2023-05-06T00:00:00	2024-11-08T19:00:00	7	Dirección del viento	4.83
153127	7	Sololá	719	Santiago Atitlán	14	Cerro de Oro	6	Junio	2023-05-06T00:00:00	2024-11-08T19:00:00	1	Precipitación	0
153128	7	Sololá	719	Santiago Atitlán	14	Cerro de Oro	6	Junio	2023-05-06T00:00:00	2024-11-08T19:00:00	8	Radiación solar	0
153129	7	Sololá	719	Santiago Atitlán	14	Cerro de Oro	6	Junio	2023-05-06T00:00:00	2024-11-08T20:00:00	2	Temperatura media	19.6
153130	7	Sololá	719	Santiago Atitlán	14	Cerro de Oro	6	Junio	2023-05-06T00:00:00	2024-11-08T20:00:00	4	Temperatura máxima	19.8
153131	7	Sololá	719	Santiago Atitlán	14	Cerro de Oro	6	Junio	2023-05-06T00:00:00	2024-11-08T20:00:00	3	Temperatura mínima	19.5
153132	7	Sololá	719	Santiago Atitlán	14	Cerro de Oro	6	Junio	2023-05-06T00:00:00	2024-11-08T20:00:00	5	Humedad	87
153133	7	Sololá	719	Santiago Atitlán	14	Cerro de Oro	6	Junio	2023-05-06T00:00:00	2024-11-08T20:00:00	6	Velocidad del viento	3.2
153134	7	Sololá	719	Santiago Atitlán	14	Cerro de Oro	6	Junio	2023-05-06T00:00:00	2024-11-08T20:00:00	7	Dirección del viento	3.22
153135	7	Sololá	719	Santiago Atitlán	14	Cerro de Oro	6	Junio	2023-05-06T00:00:00	2024-11-08T20:00:00	1	Precipitación	0
153136	7	Sololá	719	Santiago Atitlán	14	Cerro de Oro	6	Junio	2023-05-06T00:00:00	2024-11-08T20:00:00	8	Radiación solar	0
153137	7	Sololá	719	Santiago Atitlán	14	Cerro de Oro	6	Junio	2023-05-06T00:00:00	2024-11-08T21:00:00	2	Temperatura media	19.5
153138	7	Sololá	719	Santiago Atitlán	14	Cerro de Oro	6	Junio	2023-05-06T00:00:00	2024-11-08T21:00:00	4	Temperatura máxima	19.7
153139	7	Sololá	719	Santiago Atitlán	14	Cerro de Oro	6	Junio	2023-05-06T00:00:00	2024-11-08T21:00:00	3	Temperatura mínima	19.3
153140	7	Sololá	719	Santiago Atitlán	14	Cerro de Oro	6	Junio	2023-05-06T00:00:00	2024-11-08T21:00:00	5	Humedad	87
153141	7	Sololá	719	Santiago Atitlán	14	Cerro de Oro	6	Junio	2023-05-06T00:00:00	2024-11-08T21:00:00	6	Velocidad del viento	3.2
153142	7	Sololá	719	Santiago Atitlán	14	Cerro de Oro	6	Junio	2023-05-06T00:00:00	2024-11-08T21:00:00	7	Dirección del viento	3.22
153143	7	Sololá	719	Santiago Atitlán	14	Cerro de Oro	6	Junio	2023-05-06T00:00:00	2024-11-08T21:00:00	1	Precipitación	0
153144	7	Sololá	719	Santiago Atitlán	14	Cerro de Oro	6	Junio	2023-05-06T00:00:00	2024-11-08T21:00:00	8	Radiación solar	0
153145	7	Sololá	719	Santiago Atitlán	14	Cerro de Oro	6	Junio	2023-05-06T00:00:00	2024-11-08T22:00:00	2	Temperatura media	19.3
153146	7	Sololá	719	Santiago Atitlán	14	Cerro de Oro	6	Junio	2023-05-06T00:00:00	2024-11-08T22:00:00	4	Temperatura máxima	19.5
153147	7	Sololá	719	Santiago Atitlán	14	Cerro de Oro	6	Junio	2023-05-06T00:00:00	2024-11-08T22:00:00	3	Temperatura mínima	19.3
153148	7	Sololá	719	Santiago Atitlán	14	Cerro de Oro	6	Junio	2023-05-06T00:00:00	2024-11-08T22:00:00	5	Humedad	86
153149	7	Sololá	719	Santiago Atitlán	14	Cerro de Oro	6	Junio	2023-05-06T00:00:00	2024-11-08T22:00:00	6	Velocidad del viento	3.2
153150	7	Sololá	719	Santiago Atitlán	14	Cerro de Oro	6	Junio	2023-05-06T00:00:00	2024-11-08T22:00:00	7	Dirección del viento	3.22
153151	7	Sololá	719	Santiago Atitlán	14	Cerro de Oro	6	Junio	2023-05-06T00:00:00	2024-11-08T22:00:00	1	Precipitación	0
153152	7	Sololá	719	Santiago Atitlán	14	Cerro de Oro	6	Junio	2023-05-06T00:00:00	2024-11-08T22:00:00	8	Radiación solar	0
153153	7	Sololá	719	Santiago Atitlán	14	Cerro de Oro	6	Junio	2023-05-06T00:00:00	2024-11-08T23:00:00	2	Temperatura media	19.4
153154	7	Sololá	719	Santiago Atitlán	14	Cerro de Oro	6	Junio	2023-05-06T00:00:00	2024-11-08T23:00:00	4	Temperatura máxima	19.7
153155	7	Sololá	719	Santiago Atitlán	14	Cerro de Oro	6	Junio	2023-05-06T00:00:00	2024-11-08T23:00:00	3	Temperatura mínima	19.3
153156	7	Sololá	719	Santiago Atitlán	14	Cerro de Oro	6	Junio	2023-05-06T00:00:00	2024-11-08T23:00:00	5	Humedad	87
153157	7	Sololá	719	Santiago Atitlán	14	Cerro de Oro	6	Junio	2023-05-06T00:00:00	2024-11-08T23:00:00	6	Velocidad del viento	3.2
153158	7	Sololá	719	Santiago Atitlán	14	Cerro de Oro	6	Junio	2023-05-06T00:00:00	2024-11-08T23:00:00	7	Dirección del viento	3.22
153159	7	Sololá	719	Santiago Atitlán	14	Cerro de Oro	6	Junio	2023-05-06T00:00:00	2024-11-08T23:00:00	1	Precipitación	0
153160	7	Sololá	719	Santiago Atitlán	14	Cerro de Oro	6	Junio	2023-05-06T00:00:00	2024-11-08T23:00:00	8	Radiación solar	0
153161	7	Sololá	719	Santiago Atitlán	14	Cerro de Oro	6	Junio	2023-06-06T00:00:00	2024-11-08T00:00:00	2	Temperatura media	19.2
153162	7	Sololá	719	Santiago Atitlán	14	Cerro de Oro	6	Junio	2023-06-06T00:00:00	2024-11-08T00:00:00	4	Temperatura máxima	19.6
153163	7	Sololá	719	Santiago Atitlán	14	Cerro de Oro	6	Junio	2023-06-06T00:00:00	2024-11-08T00:00:00	3	Temperatura mínima	19.2
153164	7	Sololá	719	Santiago Atitlán	14	Cerro de Oro	6	Junio	2023-06-06T00:00:00	2024-11-08T00:00:00	5	Humedad	88
153165	7	Sololá	719	Santiago Atitlán	14	Cerro de Oro	6	Junio	2023-06-06T00:00:00	2024-11-08T00:00:00	6	Velocidad del viento	4.8
153166	7	Sololá	719	Santiago Atitlán	14	Cerro de Oro	6	Junio	2023-06-06T00:00:00	2024-11-08T00:00:00	7	Dirección del viento	4.83
153167	7	Sololá	719	Santiago Atitlán	14	Cerro de Oro	6	Junio	2023-06-06T00:00:00	2024-11-08T00:00:00	1	Precipitación	0
153168	7	Sololá	719	Santiago Atitlán	14	Cerro de Oro	6	Junio	2023-06-06T00:00:00	2024-11-08T00:00:00	8	Radiación solar	0
153169	7	Sololá	719	Santiago Atitlán	14	Cerro de Oro	6	Junio	2023-06-06T00:00:00	2024-11-08T01:00:00	2	Temperatura media	19.3
153170	7	Sololá	719	Santiago Atitlán	14	Cerro de Oro	6	Junio	2023-06-06T00:00:00	2024-11-08T01:00:00	4	Temperatura máxima	19.5
153171	7	Sololá	719	Santiago Atitlán	14	Cerro de Oro	6	Junio	2023-06-06T00:00:00	2024-11-08T01:00:00	3	Temperatura mínima	19.2
153172	7	Sololá	719	Santiago Atitlán	14	Cerro de Oro	6	Junio	2023-06-06T00:00:00	2024-11-08T01:00:00	5	Humedad	88
153173	7	Sololá	719	Santiago Atitlán	14	Cerro de Oro	6	Junio	2023-06-06T00:00:00	2024-11-08T01:00:00	6	Velocidad del viento	4.8
153174	7	Sololá	719	Santiago Atitlán	14	Cerro de Oro	6	Junio	2023-06-06T00:00:00	2024-11-08T01:00:00	7	Dirección del viento	4.83
153175	7	Sololá	719	Santiago Atitlán	14	Cerro de Oro	6	Junio	2023-06-06T00:00:00	2024-11-08T01:00:00	1	Precipitación	0
153176	7	Sololá	719	Santiago Atitlán	14	Cerro de Oro	6	Junio	2023-06-06T00:00:00	2024-11-08T01:00:00	8	Radiación solar	0
153177	7	Sololá	719	Santiago Atitlán	14	Cerro de Oro	6	Junio	2023-06-06T00:00:00	2024-11-08T02:00:00	2	Temperatura media	19.4
153178	7	Sololá	719	Santiago Atitlán	14	Cerro de Oro	6	Junio	2023-06-06T00:00:00	2024-11-08T02:00:00	4	Temperatura máxima	19.6
153179	7	Sololá	719	Santiago Atitlán	14	Cerro de Oro	6	Junio	2023-06-06T00:00:00	2024-11-08T02:00:00	3	Temperatura mínima	19.2
153180	7	Sololá	719	Santiago Atitlán	14	Cerro de Oro	6	Junio	2023-06-06T00:00:00	2024-11-08T02:00:00	5	Humedad	87
153181	7	Sololá	719	Santiago Atitlán	14	Cerro de Oro	6	Junio	2023-06-06T00:00:00	2024-11-08T02:00:00	6	Velocidad del viento	3.2
153182	7	Sololá	719	Santiago Atitlán	14	Cerro de Oro	6	Junio	2023-06-06T00:00:00	2024-11-08T02:00:00	7	Dirección del viento	3.22
153183	7	Sololá	719	Santiago Atitlán	14	Cerro de Oro	6	Junio	2023-06-06T00:00:00	2024-11-08T02:00:00	1	Precipitación	0
153184	7	Sololá	719	Santiago Atitlán	14	Cerro de Oro	6	Junio	2023-06-06T00:00:00	2024-11-08T02:00:00	8	Radiación solar	0
153185	7	Sololá	719	Santiago Atitlán	14	Cerro de Oro	6	Junio	2023-06-06T00:00:00	2024-11-08T03:00:00	2	Temperatura media	19
153186	7	Sololá	719	Santiago Atitlán	14	Cerro de Oro	6	Junio	2023-06-06T00:00:00	2024-11-08T03:00:00	4	Temperatura máxima	19.4
153187	7	Sololá	719	Santiago Atitlán	14	Cerro de Oro	6	Junio	2023-06-06T00:00:00	2024-11-08T03:00:00	3	Temperatura mínima	18.8
153188	7	Sololá	719	Santiago Atitlán	14	Cerro de Oro	6	Junio	2023-06-06T00:00:00	2024-11-08T03:00:00	5	Humedad	88
153189	7	Sololá	719	Santiago Atitlán	14	Cerro de Oro	6	Junio	2023-06-06T00:00:00	2024-11-08T03:00:00	6	Velocidad del viento	3.2
153190	7	Sololá	719	Santiago Atitlán	14	Cerro de Oro	6	Junio	2023-06-06T00:00:00	2024-11-08T03:00:00	7	Dirección del viento	3.22
153191	7	Sololá	719	Santiago Atitlán	14	Cerro de Oro	6	Junio	2023-06-06T00:00:00	2024-11-08T03:00:00	1	Precipitación	0
153192	7	Sololá	719	Santiago Atitlán	14	Cerro de Oro	6	Junio	2023-06-06T00:00:00	2024-11-08T03:00:00	8	Radiación solar	0
153193	7	Sololá	719	Santiago Atitlán	14	Cerro de Oro	6	Junio	2023-06-06T00:00:00	2024-11-08T04:00:00	2	Temperatura media	18.8
153194	7	Sololá	719	Santiago Atitlán	14	Cerro de Oro	6	Junio	2023-06-06T00:00:00	2024-11-08T04:00:00	4	Temperatura máxima	19.1
153195	7	Sololá	719	Santiago Atitlán	14	Cerro de Oro	6	Junio	2023-06-06T00:00:00	2024-11-08T04:00:00	3	Temperatura mínima	18.7
153196	7	Sololá	719	Santiago Atitlán	14	Cerro de Oro	6	Junio	2023-06-06T00:00:00	2024-11-08T04:00:00	5	Humedad	82
153197	7	Sololá	719	Santiago Atitlán	14	Cerro de Oro	6	Junio	2023-06-06T00:00:00	2024-11-08T04:00:00	6	Velocidad del viento	4.8
153198	7	Sololá	719	Santiago Atitlán	14	Cerro de Oro	6	Junio	2023-06-06T00:00:00	2024-11-08T04:00:00	7	Dirección del viento	4.83
153199	7	Sololá	719	Santiago Atitlán	14	Cerro de Oro	6	Junio	2023-06-06T00:00:00	2024-11-08T04:00:00	1	Precipitación	0
153200	7	Sololá	719	Santiago Atitlán	14	Cerro de Oro	6	Junio	2023-06-06T00:00:00	2024-11-08T04:00:00	8	Radiación solar	0
153201	7	Sololá	719	Santiago Atitlán	14	Cerro de Oro	6	Junio	2023-06-06T00:00:00	2024-11-08T05:00:00	2	Temperatura media	17.9
153202	7	Sololá	719	Santiago Atitlán	14	Cerro de Oro	6	Junio	2023-06-06T00:00:00	2024-11-08T05:00:00	4	Temperatura máxima	19
153203	7	Sololá	719	Santiago Atitlán	14	Cerro de Oro	6	Junio	2023-06-06T00:00:00	2024-11-08T05:00:00	3	Temperatura mínima	17.9
153204	7	Sololá	719	Santiago Atitlán	14	Cerro de Oro	6	Junio	2023-06-06T00:00:00	2024-11-08T05:00:00	5	Humedad	83
153205	7	Sololá	719	Santiago Atitlán	14	Cerro de Oro	6	Junio	2023-06-06T00:00:00	2024-11-08T05:00:00	6	Velocidad del viento	4.8
153206	7	Sololá	719	Santiago Atitlán	14	Cerro de Oro	6	Junio	2023-06-06T00:00:00	2024-11-08T05:00:00	7	Dirección del viento	4.83
153207	7	Sololá	719	Santiago Atitlán	14	Cerro de Oro	6	Junio	2023-06-06T00:00:00	2024-11-08T05:00:00	1	Precipitación	0
153208	7	Sololá	719	Santiago Atitlán	14	Cerro de Oro	6	Junio	2023-06-06T00:00:00	2024-11-08T05:00:00	8	Radiación solar	0
153209	7	Sololá	719	Santiago Atitlán	14	Cerro de Oro	6	Junio	2023-06-06T00:00:00	2024-11-08T06:00:00	2	Temperatura media	18.2
153210	7	Sololá	719	Santiago Atitlán	14	Cerro de Oro	6	Junio	2023-06-06T00:00:00	2024-11-08T06:00:00	4	Temperatura máxima	18.5
153211	7	Sololá	719	Santiago Atitlán	14	Cerro de Oro	6	Junio	2023-06-06T00:00:00	2024-11-08T06:00:00	3	Temperatura mínima	17.8
153212	7	Sololá	719	Santiago Atitlán	14	Cerro de Oro	6	Junio	2023-06-06T00:00:00	2024-11-08T06:00:00	5	Humedad	83
153213	7	Sololá	719	Santiago Atitlán	14	Cerro de Oro	6	Junio	2023-06-06T00:00:00	2024-11-08T06:00:00	6	Velocidad del viento	3.2
153214	7	Sololá	719	Santiago Atitlán	14	Cerro de Oro	6	Junio	2023-06-06T00:00:00	2024-11-08T06:00:00	7	Dirección del viento	3.22
153215	7	Sololá	719	Santiago Atitlán	14	Cerro de Oro	6	Junio	2023-06-06T00:00:00	2024-11-08T06:00:00	1	Precipitación	0
153216	7	Sololá	719	Santiago Atitlán	14	Cerro de Oro	6	Junio	2023-06-06T00:00:00	2024-11-08T06:00:00	8	Radiación solar	6
153217	7	Sololá	719	Santiago Atitlán	14	Cerro de Oro	6	Junio	2023-06-06T00:00:00	2024-11-08T07:00:00	2	Temperatura media	20.2
153218	7	Sololá	719	Santiago Atitlán	14	Cerro de Oro	6	Junio	2023-06-06T00:00:00	2024-11-08T07:00:00	4	Temperatura máxima	20.2
153219	7	Sololá	719	Santiago Atitlán	14	Cerro de Oro	6	Junio	2023-06-06T00:00:00	2024-11-08T07:00:00	3	Temperatura mínima	18.2
153220	7	Sololá	719	Santiago Atitlán	14	Cerro de Oro	6	Junio	2023-06-06T00:00:00	2024-11-08T07:00:00	5	Humedad	80
153221	7	Sololá	719	Santiago Atitlán	14	Cerro de Oro	6	Junio	2023-06-06T00:00:00	2024-11-08T07:00:00	6	Velocidad del viento	1.6
153222	7	Sololá	719	Santiago Atitlán	14	Cerro de Oro	6	Junio	2023-06-06T00:00:00	2024-11-08T07:00:00	7	Dirección del viento	1.61
153223	7	Sololá	719	Santiago Atitlán	14	Cerro de Oro	6	Junio	2023-06-06T00:00:00	2024-11-08T07:00:00	1	Precipitación	0
153224	7	Sololá	719	Santiago Atitlán	14	Cerro de Oro	6	Junio	2023-06-06T00:00:00	2024-11-08T07:00:00	8	Radiación solar	108
153225	7	Sololá	719	Santiago Atitlán	14	Cerro de Oro	6	Junio	2023-06-06T00:00:00	2024-11-08T08:00:00	2	Temperatura media	21.1
153226	7	Sololá	719	Santiago Atitlán	14	Cerro de Oro	6	Junio	2023-06-06T00:00:00	2024-11-08T08:00:00	4	Temperatura máxima	21.2
153227	7	Sololá	719	Santiago Atitlán	14	Cerro de Oro	6	Junio	2023-06-06T00:00:00	2024-11-08T08:00:00	3	Temperatura mínima	20.2
153228	7	Sololá	719	Santiago Atitlán	14	Cerro de Oro	6	Junio	2023-06-06T00:00:00	2024-11-08T08:00:00	5	Humedad	72
153229	7	Sololá	719	Santiago Atitlán	14	Cerro de Oro	6	Junio	2023-06-06T00:00:00	2024-11-08T08:00:00	6	Velocidad del viento	1.6
153230	7	Sololá	719	Santiago Atitlán	14	Cerro de Oro	6	Junio	2023-06-06T00:00:00	2024-11-08T08:00:00	7	Dirección del viento	1.61
153231	7	Sololá	719	Santiago Atitlán	14	Cerro de Oro	6	Junio	2023-06-06T00:00:00	2024-11-08T08:00:00	1	Precipitación	0
153232	7	Sololá	719	Santiago Atitlán	14	Cerro de Oro	6	Junio	2023-06-06T00:00:00	2024-11-08T08:00:00	8	Radiación solar	248
153233	7	Sololá	719	Santiago Atitlán	14	Cerro de Oro	6	Junio	2023-06-06T00:00:00	2024-11-08T09:00:00	2	Temperatura media	22.1
153234	7	Sololá	719	Santiago Atitlán	14	Cerro de Oro	6	Junio	2023-06-06T00:00:00	2024-11-08T09:00:00	4	Temperatura máxima	22.3
153235	7	Sololá	719	Santiago Atitlán	14	Cerro de Oro	6	Junio	2023-06-06T00:00:00	2024-11-08T09:00:00	3	Temperatura mínima	21.1
153236	7	Sololá	719	Santiago Atitlán	14	Cerro de Oro	6	Junio	2023-06-06T00:00:00	2024-11-08T09:00:00	5	Humedad	67
153237	7	Sololá	719	Santiago Atitlán	14	Cerro de Oro	6	Junio	2023-06-06T00:00:00	2024-11-08T09:00:00	6	Velocidad del viento	3.2
153238	7	Sololá	719	Santiago Atitlán	14	Cerro de Oro	6	Junio	2023-06-06T00:00:00	2024-11-08T09:00:00	7	Dirección del viento	3.22
153239	7	Sololá	719	Santiago Atitlán	14	Cerro de Oro	6	Junio	2023-06-06T00:00:00	2024-11-08T09:00:00	1	Precipitación	0
153240	7	Sololá	719	Santiago Atitlán	14	Cerro de Oro	6	Junio	2023-06-06T00:00:00	2024-11-08T09:00:00	8	Radiación solar	441
153241	7	Sololá	719	Santiago Atitlán	14	Cerro de Oro	6	Junio	2023-06-06T00:00:00	2024-11-08T10:00:00	2	Temperatura media	23.1
153242	7	Sololá	719	Santiago Atitlán	14	Cerro de Oro	6	Junio	2023-06-06T00:00:00	2024-11-08T10:00:00	4	Temperatura máxima	24.2
153243	7	Sololá	719	Santiago Atitlán	14	Cerro de Oro	6	Junio	2023-06-06T00:00:00	2024-11-08T10:00:00	3	Temperatura mínima	22
153244	7	Sololá	719	Santiago Atitlán	14	Cerro de Oro	6	Junio	2023-06-06T00:00:00	2024-11-08T10:00:00	5	Humedad	67
153245	7	Sololá	719	Santiago Atitlán	14	Cerro de Oro	6	Junio	2023-06-06T00:00:00	2024-11-08T10:00:00	6	Velocidad del viento	1.6
153246	7	Sololá	719	Santiago Atitlán	14	Cerro de Oro	6	Junio	2023-06-06T00:00:00	2024-11-08T10:00:00	7	Dirección del viento	1.61
153247	7	Sololá	719	Santiago Atitlán	14	Cerro de Oro	6	Junio	2023-06-06T00:00:00	2024-11-08T10:00:00	1	Precipitación	0
153248	7	Sololá	719	Santiago Atitlán	14	Cerro de Oro	6	Junio	2023-06-06T00:00:00	2024-11-08T10:00:00	8	Radiación solar	464
153249	7	Sololá	719	Santiago Atitlán	14	Cerro de Oro	6	Junio	2023-06-06T00:00:00	2024-11-08T11:00:00	2	Temperatura media	24
153250	7	Sololá	719	Santiago Atitlán	14	Cerro de Oro	6	Junio	2023-06-06T00:00:00	2024-11-08T11:00:00	4	Temperatura máxima	24
153251	7	Sololá	719	Santiago Atitlán	14	Cerro de Oro	6	Junio	2023-06-06T00:00:00	2024-11-08T11:00:00	3	Temperatura mínima	22.8
153252	7	Sololá	719	Santiago Atitlán	14	Cerro de Oro	6	Junio	2023-06-06T00:00:00	2024-11-08T11:00:00	5	Humedad	67
153253	7	Sololá	719	Santiago Atitlán	14	Cerro de Oro	6	Junio	2023-06-06T00:00:00	2024-11-08T11:00:00	6	Velocidad del viento	3.2
153254	7	Sololá	719	Santiago Atitlán	14	Cerro de Oro	6	Junio	2023-06-06T00:00:00	2024-11-08T11:00:00	7	Dirección del viento	3.22
153255	7	Sololá	719	Santiago Atitlán	14	Cerro de Oro	6	Junio	2023-06-06T00:00:00	2024-11-08T11:00:00	1	Precipitación	0
153256	7	Sololá	719	Santiago Atitlán	14	Cerro de Oro	6	Junio	2023-06-06T00:00:00	2024-11-08T11:00:00	8	Radiación solar	687
153257	7	Sololá	719	Santiago Atitlán	14	Cerro de Oro	6	Junio	2023-06-06T00:00:00	2024-11-08T12:00:00	2	Temperatura media	23.4
153258	7	Sololá	719	Santiago Atitlán	14	Cerro de Oro	6	Junio	2023-06-06T00:00:00	2024-11-08T12:00:00	4	Temperatura máxima	24.2
153259	7	Sololá	719	Santiago Atitlán	14	Cerro de Oro	6	Junio	2023-06-06T00:00:00	2024-11-08T12:00:00	3	Temperatura mínima	22.9
153260	7	Sololá	719	Santiago Atitlán	14	Cerro de Oro	6	Junio	2023-06-06T00:00:00	2024-11-08T12:00:00	5	Humedad	70
153261	7	Sololá	719	Santiago Atitlán	14	Cerro de Oro	6	Junio	2023-06-06T00:00:00	2024-11-08T12:00:00	6	Velocidad del viento	11.3
153262	7	Sololá	719	Santiago Atitlán	14	Cerro de Oro	6	Junio	2023-06-06T00:00:00	2024-11-08T12:00:00	7	Dirección del viento	11.27
153263	7	Sololá	719	Santiago Atitlán	14	Cerro de Oro	6	Junio	2023-06-06T00:00:00	2024-11-08T12:00:00	1	Precipitación	0
153264	7	Sololá	719	Santiago Atitlán	14	Cerro de Oro	6	Junio	2023-06-06T00:00:00	2024-11-08T12:00:00	8	Radiación solar	842
153265	7	Sololá	719	Santiago Atitlán	14	Cerro de Oro	6	Junio	2023-06-06T00:00:00	2024-11-08T13:00:00	2	Temperatura media	23.1
153266	7	Sololá	719	Santiago Atitlán	14	Cerro de Oro	6	Junio	2023-06-06T00:00:00	2024-11-08T13:00:00	4	Temperatura máxima	24
153267	7	Sololá	719	Santiago Atitlán	14	Cerro de Oro	6	Junio	2023-06-06T00:00:00	2024-11-08T13:00:00	3	Temperatura mínima	22.9
153268	7	Sololá	719	Santiago Atitlán	14	Cerro de Oro	6	Junio	2023-06-06T00:00:00	2024-11-08T13:00:00	5	Humedad	71
153269	7	Sololá	719	Santiago Atitlán	14	Cerro de Oro	6	Junio	2023-06-06T00:00:00	2024-11-08T13:00:00	6	Velocidad del viento	8
153270	7	Sololá	719	Santiago Atitlán	14	Cerro de Oro	6	Junio	2023-06-06T00:00:00	2024-11-08T13:00:00	7	Dirección del viento	8.05
153271	7	Sololá	719	Santiago Atitlán	14	Cerro de Oro	6	Junio	2023-06-06T00:00:00	2024-11-08T13:00:00	1	Precipitación	0
153272	7	Sololá	719	Santiago Atitlán	14	Cerro de Oro	6	Junio	2023-06-06T00:00:00	2024-11-08T13:00:00	8	Radiación solar	544
153273	7	Sololá	719	Santiago Atitlán	14	Cerro de Oro	6	Junio	2023-06-06T00:00:00	2024-11-08T14:00:00	2	Temperatura media	22.8
153274	7	Sololá	719	Santiago Atitlán	14	Cerro de Oro	6	Junio	2023-06-06T00:00:00	2024-11-08T14:00:00	4	Temperatura máxima	23.4
153275	7	Sololá	719	Santiago Atitlán	14	Cerro de Oro	6	Junio	2023-06-06T00:00:00	2024-11-08T14:00:00	3	Temperatura mínima	22.8
153276	7	Sololá	719	Santiago Atitlán	14	Cerro de Oro	6	Junio	2023-06-06T00:00:00	2024-11-08T14:00:00	5	Humedad	75
153277	7	Sololá	719	Santiago Atitlán	14	Cerro de Oro	6	Junio	2023-06-06T00:00:00	2024-11-08T14:00:00	6	Velocidad del viento	4.8
153278	7	Sololá	719	Santiago Atitlán	14	Cerro de Oro	6	Junio	2023-06-06T00:00:00	2024-11-08T14:00:00	7	Dirección del viento	4.83
153279	7	Sololá	719	Santiago Atitlán	14	Cerro de Oro	6	Junio	2023-06-06T00:00:00	2024-11-08T14:00:00	1	Precipitación	0
153280	7	Sololá	719	Santiago Atitlán	14	Cerro de Oro	6	Junio	2023-06-06T00:00:00	2024-11-08T14:00:00	8	Radiación solar	328
153281	7	Sololá	719	Santiago Atitlán	14	Cerro de Oro	6	Junio	2023-06-06T00:00:00	2024-11-08T15:00:00	2	Temperatura media	22.1
153282	7	Sololá	719	Santiago Atitlán	14	Cerro de Oro	6	Junio	2023-06-06T00:00:00	2024-11-08T15:00:00	4	Temperatura máxima	22.9
153283	7	Sololá	719	Santiago Atitlán	14	Cerro de Oro	6	Junio	2023-06-06T00:00:00	2024-11-08T15:00:00	3	Temperatura mínima	22.1
153284	7	Sololá	719	Santiago Atitlán	14	Cerro de Oro	6	Junio	2023-06-06T00:00:00	2024-11-08T15:00:00	5	Humedad	79
153285	7	Sololá	719	Santiago Atitlán	14	Cerro de Oro	6	Junio	2023-06-06T00:00:00	2024-11-08T15:00:00	6	Velocidad del viento	8
153286	7	Sololá	719	Santiago Atitlán	14	Cerro de Oro	6	Junio	2023-06-06T00:00:00	2024-11-08T15:00:00	7	Dirección del viento	8.05
153287	7	Sololá	719	Santiago Atitlán	14	Cerro de Oro	6	Junio	2023-06-06T00:00:00	2024-11-08T15:00:00	1	Precipitación	0
153288	7	Sololá	719	Santiago Atitlán	14	Cerro de Oro	6	Junio	2023-06-06T00:00:00	2024-11-08T15:00:00	8	Radiación solar	319
153289	7	Sololá	719	Santiago Atitlán	14	Cerro de Oro	6	Junio	2023-06-06T00:00:00	2024-11-08T16:00:00	2	Temperatura media	21.2
153290	7	Sololá	719	Santiago Atitlán	14	Cerro de Oro	6	Junio	2023-06-06T00:00:00	2024-11-08T16:00:00	4	Temperatura máxima	22.1
153291	7	Sololá	719	Santiago Atitlán	14	Cerro de Oro	6	Junio	2023-06-06T00:00:00	2024-11-08T16:00:00	3	Temperatura mínima	21.2
153292	7	Sololá	719	Santiago Atitlán	14	Cerro de Oro	6	Junio	2023-06-06T00:00:00	2024-11-08T16:00:00	5	Humedad	82
153293	7	Sololá	719	Santiago Atitlán	14	Cerro de Oro	6	Junio	2023-06-06T00:00:00	2024-11-08T16:00:00	6	Velocidad del viento	6.4
153294	7	Sololá	719	Santiago Atitlán	14	Cerro de Oro	6	Junio	2023-06-06T00:00:00	2024-11-08T16:00:00	7	Dirección del viento	6.44
153295	7	Sololá	719	Santiago Atitlán	14	Cerro de Oro	6	Junio	2023-06-06T00:00:00	2024-11-08T16:00:00	1	Precipitación	0
153296	7	Sololá	719	Santiago Atitlán	14	Cerro de Oro	6	Junio	2023-06-06T00:00:00	2024-11-08T16:00:00	8	Radiación solar	133
153297	7	Sololá	719	Santiago Atitlán	14	Cerro de Oro	6	Junio	2023-06-06T00:00:00	2024-11-08T17:00:00	2	Temperatura media	20.9
153298	7	Sololá	719	Santiago Atitlán	14	Cerro de Oro	6	Junio	2023-06-06T00:00:00	2024-11-08T17:00:00	4	Temperatura máxima	21.2
153299	7	Sololá	719	Santiago Atitlán	14	Cerro de Oro	6	Junio	2023-06-06T00:00:00	2024-11-08T17:00:00	3	Temperatura mínima	20.8
153300	7	Sololá	719	Santiago Atitlán	14	Cerro de Oro	6	Junio	2023-06-06T00:00:00	2024-11-08T17:00:00	5	Humedad	83
153301	7	Sololá	719	Santiago Atitlán	14	Cerro de Oro	6	Junio	2023-06-06T00:00:00	2024-11-08T17:00:00	6	Velocidad del viento	6.4
153302	7	Sololá	719	Santiago Atitlán	14	Cerro de Oro	6	Junio	2023-06-06T00:00:00	2024-11-08T17:00:00	7	Dirección del viento	6.44
153303	7	Sololá	719	Santiago Atitlán	14	Cerro de Oro	6	Junio	2023-06-06T00:00:00	2024-11-08T17:00:00	1	Precipitación	0
153304	7	Sololá	719	Santiago Atitlán	14	Cerro de Oro	6	Junio	2023-06-06T00:00:00	2024-11-08T17:00:00	8	Radiación solar	117
153305	7	Sololá	719	Santiago Atitlán	14	Cerro de Oro	6	Junio	2023-06-06T00:00:00	2024-11-08T18:00:00	2	Temperatura media	20.9
153306	7	Sololá	719	Santiago Atitlán	14	Cerro de Oro	6	Junio	2023-06-06T00:00:00	2024-11-08T18:00:00	4	Temperatura máxima	21.6
153307	7	Sololá	719	Santiago Atitlán	14	Cerro de Oro	6	Junio	2023-06-06T00:00:00	2024-11-08T18:00:00	3	Temperatura mínima	20.9
153308	7	Sololá	719	Santiago Atitlán	14	Cerro de Oro	6	Junio	2023-06-06T00:00:00	2024-11-08T18:00:00	5	Humedad	82
153309	7	Sololá	719	Santiago Atitlán	14	Cerro de Oro	6	Junio	2023-06-06T00:00:00	2024-11-08T18:00:00	6	Velocidad del viento	4.8
153310	7	Sololá	719	Santiago Atitlán	14	Cerro de Oro	6	Junio	2023-06-06T00:00:00	2024-11-08T18:00:00	7	Dirección del viento	4.83
153311	7	Sololá	719	Santiago Atitlán	14	Cerro de Oro	6	Junio	2023-06-06T00:00:00	2024-11-08T18:00:00	1	Precipitación	0
153312	7	Sololá	719	Santiago Atitlán	14	Cerro de Oro	6	Junio	2023-06-06T00:00:00	2024-11-08T18:00:00	8	Radiación solar	80
153313	7	Sololá	719	Santiago Atitlán	14	Cerro de Oro	6	Junio	2023-06-06T00:00:00	2024-11-08T19:00:00	2	Temperatura media	21.1
153314	7	Sololá	719	Santiago Atitlán	14	Cerro de Oro	6	Junio	2023-06-06T00:00:00	2024-11-08T19:00:00	4	Temperatura máxima	21.1
153315	7	Sololá	719	Santiago Atitlán	14	Cerro de Oro	6	Junio	2023-06-06T00:00:00	2024-11-08T19:00:00	3	Temperatura mínima	20.6
153316	7	Sololá	719	Santiago Atitlán	14	Cerro de Oro	6	Junio	2023-06-06T00:00:00	2024-11-08T19:00:00	5	Humedad	71
153317	7	Sololá	719	Santiago Atitlán	14	Cerro de Oro	6	Junio	2023-06-06T00:00:00	2024-11-08T19:00:00	6	Velocidad del viento	3.2
153318	7	Sololá	719	Santiago Atitlán	14	Cerro de Oro	6	Junio	2023-06-06T00:00:00	2024-11-08T19:00:00	7	Dirección del viento	3.22
153319	7	Sololá	719	Santiago Atitlán	14	Cerro de Oro	6	Junio	2023-06-06T00:00:00	2024-11-08T19:00:00	1	Precipitación	0
153320	7	Sololá	719	Santiago Atitlán	14	Cerro de Oro	6	Junio	2023-06-06T00:00:00	2024-11-08T19:00:00	8	Radiación solar	0
153321	7	Sololá	719	Santiago Atitlán	14	Cerro de Oro	6	Junio	2023-06-06T00:00:00	2024-11-08T20:00:00	2	Temperatura media	20.4
153322	7	Sololá	719	Santiago Atitlán	14	Cerro de Oro	6	Junio	2023-06-06T00:00:00	2024-11-08T20:00:00	4	Temperatura máxima	21.3
153323	7	Sololá	719	Santiago Atitlán	14	Cerro de Oro	6	Junio	2023-06-06T00:00:00	2024-11-08T20:00:00	3	Temperatura mínima	20.4
153324	7	Sololá	719	Santiago Atitlán	14	Cerro de Oro	6	Junio	2023-06-06T00:00:00	2024-11-08T20:00:00	5	Humedad	72
153325	7	Sololá	719	Santiago Atitlán	14	Cerro de Oro	6	Junio	2023-06-06T00:00:00	2024-11-08T20:00:00	6	Velocidad del viento	3.2
153326	7	Sololá	719	Santiago Atitlán	14	Cerro de Oro	6	Junio	2023-06-06T00:00:00	2024-11-08T20:00:00	7	Dirección del viento	3.22
153327	7	Sololá	719	Santiago Atitlán	14	Cerro de Oro	6	Junio	2023-06-06T00:00:00	2024-11-08T20:00:00	1	Precipitación	0
153328	7	Sololá	719	Santiago Atitlán	14	Cerro de Oro	6	Junio	2023-06-06T00:00:00	2024-11-08T20:00:00	8	Radiación solar	0
153329	7	Sololá	719	Santiago Atitlán	14	Cerro de Oro	6	Junio	2023-06-06T00:00:00	2024-11-08T21:00:00	2	Temperatura media	19.8
153330	7	Sololá	719	Santiago Atitlán	14	Cerro de Oro	6	Junio	2023-06-06T00:00:00	2024-11-08T21:00:00	4	Temperatura máxima	20.7
153331	7	Sololá	719	Santiago Atitlán	14	Cerro de Oro	6	Junio	2023-06-06T00:00:00	2024-11-08T21:00:00	3	Temperatura mínima	19.8
153332	7	Sololá	719	Santiago Atitlán	14	Cerro de Oro	6	Junio	2023-06-06T00:00:00	2024-11-08T21:00:00	5	Humedad	80
153333	7	Sololá	719	Santiago Atitlán	14	Cerro de Oro	6	Junio	2023-06-06T00:00:00	2024-11-08T21:00:00	6	Velocidad del viento	3.2
153334	7	Sololá	719	Santiago Atitlán	14	Cerro de Oro	6	Junio	2023-06-06T00:00:00	2024-11-08T21:00:00	7	Dirección del viento	3.22
153335	7	Sololá	719	Santiago Atitlán	14	Cerro de Oro	6	Junio	2023-06-06T00:00:00	2024-11-08T21:00:00	1	Precipitación	0
153336	7	Sololá	719	Santiago Atitlán	14	Cerro de Oro	6	Junio	2023-06-06T00:00:00	2024-11-08T21:00:00	8	Radiación solar	0
153337	7	Sololá	719	Santiago Atitlán	14	Cerro de Oro	6	Junio	2023-06-06T00:00:00	2024-11-08T22:00:00	2	Temperatura media	19.1
153338	7	Sololá	719	Santiago Atitlán	14	Cerro de Oro	6	Junio	2023-06-06T00:00:00	2024-11-08T22:00:00	4	Temperatura máxima	19.8
153339	7	Sololá	719	Santiago Atitlán	14	Cerro de Oro	6	Junio	2023-06-06T00:00:00	2024-11-08T22:00:00	3	Temperatura mínima	19.1
153340	7	Sololá	719	Santiago Atitlán	14	Cerro de Oro	6	Junio	2023-06-06T00:00:00	2024-11-08T22:00:00	5	Humedad	81
153341	7	Sololá	719	Santiago Atitlán	14	Cerro de Oro	6	Junio	2023-06-06T00:00:00	2024-11-08T22:00:00	6	Velocidad del viento	1.6
153342	7	Sololá	719	Santiago Atitlán	14	Cerro de Oro	6	Junio	2023-06-06T00:00:00	2024-11-08T22:00:00	7	Dirección del viento	1.61
153343	7	Sololá	719	Santiago Atitlán	14	Cerro de Oro	6	Junio	2023-06-06T00:00:00	2024-11-08T22:00:00	1	Precipitación	0
153344	7	Sololá	719	Santiago Atitlán	14	Cerro de Oro	6	Junio	2023-06-06T00:00:00	2024-11-08T22:00:00	8	Radiación solar	0
153345	7	Sololá	719	Santiago Atitlán	14	Cerro de Oro	6	Junio	2023-06-06T00:00:00	2024-11-08T23:00:00	2	Temperatura media	18.9
153346	7	Sololá	719	Santiago Atitlán	14	Cerro de Oro	6	Junio	2023-06-06T00:00:00	2024-11-08T23:00:00	4	Temperatura máxima	19.3
153347	7	Sololá	719	Santiago Atitlán	14	Cerro de Oro	6	Junio	2023-06-06T00:00:00	2024-11-08T23:00:00	3	Temperatura mínima	18.9
153348	7	Sololá	719	Santiago Atitlán	14	Cerro de Oro	6	Junio	2023-06-06T00:00:00	2024-11-08T23:00:00	5	Humedad	83
153349	7	Sololá	719	Santiago Atitlán	14	Cerro de Oro	6	Junio	2023-06-06T00:00:00	2024-11-08T23:00:00	6	Velocidad del viento	3.2
153350	7	Sololá	719	Santiago Atitlán	14	Cerro de Oro	6	Junio	2023-06-06T00:00:00	2024-11-08T23:00:00	7	Dirección del viento	3.22
153351	7	Sololá	719	Santiago Atitlán	14	Cerro de Oro	6	Junio	2023-06-06T00:00:00	2024-11-08T23:00:00	1	Precipitación	0
153352	7	Sololá	719	Santiago Atitlán	14	Cerro de Oro	6	Junio	2023-06-06T00:00:00	2024-11-08T23:00:00	8	Radiación solar	0
153353	7	Sololá	719	Santiago Atitlán	14	Cerro de Oro	6	Junio	2023-07-06T00:00:00	2024-11-08T00:00:00	2	Temperatura media	18.9
153354	7	Sololá	719	Santiago Atitlán	14	Cerro de Oro	6	Junio	2023-07-06T00:00:00	2024-11-08T00:00:00	4	Temperatura máxima	19.1
153355	7	Sololá	719	Santiago Atitlán	14	Cerro de Oro	6	Junio	2023-07-06T00:00:00	2024-11-08T00:00:00	3	Temperatura mínima	18.6
153356	7	Sololá	719	Santiago Atitlán	14	Cerro de Oro	6	Junio	2023-07-06T00:00:00	2024-11-08T00:00:00	5	Humedad	84
153357	7	Sololá	719	Santiago Atitlán	14	Cerro de Oro	6	Junio	2023-07-06T00:00:00	2024-11-08T00:00:00	6	Velocidad del viento	4.8
153358	7	Sololá	719	Santiago Atitlán	14	Cerro de Oro	6	Junio	2023-07-06T00:00:00	2024-11-08T00:00:00	7	Dirección del viento	4.83
153359	7	Sololá	719	Santiago Atitlán	14	Cerro de Oro	6	Junio	2023-07-06T00:00:00	2024-11-08T00:00:00	1	Precipitación	0
153360	7	Sololá	719	Santiago Atitlán	14	Cerro de Oro	6	Junio	2023-07-06T00:00:00	2024-11-08T00:00:00	8	Radiación solar	0
153361	7	Sololá	719	Santiago Atitlán	14	Cerro de Oro	6	Junio	2023-07-06T00:00:00	2024-11-08T01:00:00	2	Temperatura media	18.6
153362	7	Sololá	719	Santiago Atitlán	14	Cerro de Oro	6	Junio	2023-07-06T00:00:00	2024-11-08T01:00:00	4	Temperatura máxima	19.1
153363	7	Sololá	719	Santiago Atitlán	14	Cerro de Oro	6	Junio	2023-07-06T00:00:00	2024-11-08T01:00:00	3	Temperatura mínima	18.6
153364	7	Sololá	719	Santiago Atitlán	14	Cerro de Oro	6	Junio	2023-07-06T00:00:00	2024-11-08T01:00:00	5	Humedad	85
153365	7	Sololá	719	Santiago Atitlán	14	Cerro de Oro	6	Junio	2023-07-06T00:00:00	2024-11-08T01:00:00	6	Velocidad del viento	3.2
153366	7	Sololá	719	Santiago Atitlán	14	Cerro de Oro	6	Junio	2023-07-06T00:00:00	2024-11-08T01:00:00	7	Dirección del viento	3.22
153367	7	Sololá	719	Santiago Atitlán	14	Cerro de Oro	6	Junio	2023-07-06T00:00:00	2024-11-08T01:00:00	1	Precipitación	0
153368	7	Sololá	719	Santiago Atitlán	14	Cerro de Oro	6	Junio	2023-07-06T00:00:00	2024-11-08T01:00:00	8	Radiación solar	0
153369	7	Sololá	719	Santiago Atitlán	14	Cerro de Oro	6	Junio	2023-07-06T00:00:00	2024-11-08T02:00:00	2	Temperatura media	18.2
153370	7	Sololá	719	Santiago Atitlán	14	Cerro de Oro	6	Junio	2023-07-06T00:00:00	2024-11-08T02:00:00	4	Temperatura máxima	18.7
153371	7	Sololá	719	Santiago Atitlán	14	Cerro de Oro	6	Junio	2023-07-06T00:00:00	2024-11-08T02:00:00	3	Temperatura mínima	18.1
153372	7	Sololá	719	Santiago Atitlán	14	Cerro de Oro	6	Junio	2023-07-06T00:00:00	2024-11-08T02:00:00	5	Humedad	86
153373	7	Sololá	719	Santiago Atitlán	14	Cerro de Oro	6	Junio	2023-07-06T00:00:00	2024-11-08T02:00:00	6	Velocidad del viento	4.8
153374	7	Sololá	719	Santiago Atitlán	14	Cerro de Oro	6	Junio	2023-07-06T00:00:00	2024-11-08T02:00:00	7	Dirección del viento	4.83
153375	7	Sololá	719	Santiago Atitlán	14	Cerro de Oro	6	Junio	2023-07-06T00:00:00	2024-11-08T02:00:00	1	Precipitación	0
153376	7	Sololá	719	Santiago Atitlán	14	Cerro de Oro	6	Junio	2023-07-06T00:00:00	2024-11-08T02:00:00	8	Radiación solar	0
153377	7	Sololá	719	Santiago Atitlán	14	Cerro de Oro	6	Junio	2023-07-06T00:00:00	2024-11-08T03:00:00	2	Temperatura media	17.4
153378	7	Sololá	719	Santiago Atitlán	14	Cerro de Oro	6	Junio	2023-07-06T00:00:00	2024-11-08T03:00:00	4	Temperatura máxima	18.2
153379	7	Sololá	719	Santiago Atitlán	14	Cerro de Oro	6	Junio	2023-07-06T00:00:00	2024-11-08T03:00:00	3	Temperatura mínima	17.3
153380	7	Sololá	719	Santiago Atitlán	14	Cerro de Oro	6	Junio	2023-07-06T00:00:00	2024-11-08T03:00:00	5	Humedad	87
153381	7	Sololá	719	Santiago Atitlán	14	Cerro de Oro	6	Junio	2023-07-06T00:00:00	2024-11-08T03:00:00	6	Velocidad del viento	4.8
153382	7	Sololá	719	Santiago Atitlán	14	Cerro de Oro	6	Junio	2023-07-06T00:00:00	2024-11-08T03:00:00	7	Dirección del viento	4.83
153383	7	Sololá	719	Santiago Atitlán	14	Cerro de Oro	6	Junio	2023-07-06T00:00:00	2024-11-08T03:00:00	1	Precipitación	0
153384	7	Sololá	719	Santiago Atitlán	14	Cerro de Oro	6	Junio	2023-07-06T00:00:00	2024-11-08T03:00:00	8	Radiación solar	0
153385	7	Sololá	719	Santiago Atitlán	14	Cerro de Oro	6	Junio	2023-07-06T00:00:00	2024-11-08T04:00:00	2	Temperatura media	17.1
153386	7	Sololá	719	Santiago Atitlán	14	Cerro de Oro	6	Junio	2023-07-06T00:00:00	2024-11-08T04:00:00	4	Temperatura máxima	17.8
153387	7	Sololá	719	Santiago Atitlán	14	Cerro de Oro	6	Junio	2023-07-06T00:00:00	2024-11-08T04:00:00	3	Temperatura mínima	17.1
153388	7	Sololá	719	Santiago Atitlán	14	Cerro de Oro	6	Junio	2023-07-06T00:00:00	2024-11-08T04:00:00	5	Humedad	90
153389	7	Sololá	719	Santiago Atitlán	14	Cerro de Oro	6	Junio	2023-07-06T00:00:00	2024-11-08T04:00:00	6	Velocidad del viento	3.2
153390	7	Sololá	719	Santiago Atitlán	14	Cerro de Oro	6	Junio	2023-07-06T00:00:00	2024-11-08T04:00:00	7	Dirección del viento	3.22
153391	7	Sololá	719	Santiago Atitlán	14	Cerro de Oro	6	Junio	2023-07-06T00:00:00	2024-11-08T04:00:00	1	Precipitación	0
153392	7	Sololá	719	Santiago Atitlán	14	Cerro de Oro	6	Junio	2023-07-06T00:00:00	2024-11-08T04:00:00	8	Radiación solar	0
153393	7	Sololá	719	Santiago Atitlán	14	Cerro de Oro	6	Junio	2023-07-06T00:00:00	2024-11-08T05:00:00	2	Temperatura media	17.8
153394	7	Sololá	719	Santiago Atitlán	14	Cerro de Oro	6	Junio	2023-07-06T00:00:00	2024-11-08T05:00:00	4	Temperatura máxima	17.8
153395	7	Sololá	719	Santiago Atitlán	14	Cerro de Oro	6	Junio	2023-07-06T00:00:00	2024-11-08T05:00:00	3	Temperatura mínima	17.1
153396	7	Sololá	719	Santiago Atitlán	14	Cerro de Oro	6	Junio	2023-07-06T00:00:00	2024-11-08T05:00:00	5	Humedad	88
153397	7	Sololá	719	Santiago Atitlán	14	Cerro de Oro	6	Junio	2023-07-06T00:00:00	2024-11-08T05:00:00	6	Velocidad del viento	4.8
153398	7	Sololá	719	Santiago Atitlán	14	Cerro de Oro	6	Junio	2023-07-06T00:00:00	2024-11-08T05:00:00	7	Dirección del viento	4.83
153399	7	Sololá	719	Santiago Atitlán	14	Cerro de Oro	6	Junio	2023-07-06T00:00:00	2024-11-08T05:00:00	1	Precipitación	0
153400	7	Sololá	719	Santiago Atitlán	14	Cerro de Oro	6	Junio	2023-07-06T00:00:00	2024-11-08T05:00:00	8	Radiación solar	0
153401	7	Sololá	719	Santiago Atitlán	14	Cerro de Oro	6	Junio	2023-07-06T00:00:00	2024-11-08T06:00:00	2	Temperatura media	17.7
153402	7	Sololá	719	Santiago Atitlán	14	Cerro de Oro	6	Junio	2023-07-06T00:00:00	2024-11-08T06:00:00	4	Temperatura máxima	18
153403	7	Sololá	719	Santiago Atitlán	14	Cerro de Oro	6	Junio	2023-07-06T00:00:00	2024-11-08T06:00:00	3	Temperatura mínima	17.6
153404	7	Sololá	719	Santiago Atitlán	14	Cerro de Oro	6	Junio	2023-07-06T00:00:00	2024-11-08T06:00:00	5	Humedad	86
153405	7	Sololá	719	Santiago Atitlán	14	Cerro de Oro	6	Junio	2023-07-06T00:00:00	2024-11-08T06:00:00	6	Velocidad del viento	3.2
153406	7	Sololá	719	Santiago Atitlán	14	Cerro de Oro	6	Junio	2023-07-06T00:00:00	2024-11-08T06:00:00	7	Dirección del viento	3.22
153407	7	Sololá	719	Santiago Atitlán	14	Cerro de Oro	6	Junio	2023-07-06T00:00:00	2024-11-08T06:00:00	1	Precipitación	0
153408	7	Sololá	719	Santiago Atitlán	14	Cerro de Oro	6	Junio	2023-07-06T00:00:00	2024-11-08T06:00:00	8	Radiación solar	6
153409	7	Sololá	719	Santiago Atitlán	14	Cerro de Oro	6	Junio	2023-07-06T00:00:00	2024-11-08T07:00:00	2	Temperatura media	19.3
153410	7	Sololá	719	Santiago Atitlán	14	Cerro de Oro	6	Junio	2023-07-06T00:00:00	2024-11-08T07:00:00	4	Temperatura máxima	19.3
153411	7	Sololá	719	Santiago Atitlán	14	Cerro de Oro	6	Junio	2023-07-06T00:00:00	2024-11-08T07:00:00	3	Temperatura mínima	17.7
153412	7	Sololá	719	Santiago Atitlán	14	Cerro de Oro	6	Junio	2023-07-06T00:00:00	2024-11-08T07:00:00	5	Humedad	82
153413	7	Sololá	719	Santiago Atitlán	14	Cerro de Oro	6	Junio	2023-07-06T00:00:00	2024-11-08T07:00:00	6	Velocidad del viento	1.6
153414	7	Sololá	719	Santiago Atitlán	14	Cerro de Oro	6	Junio	2023-07-06T00:00:00	2024-11-08T07:00:00	7	Dirección del viento	1.61
153415	7	Sololá	719	Santiago Atitlán	14	Cerro de Oro	6	Junio	2023-07-06T00:00:00	2024-11-08T07:00:00	1	Precipitación	0
153416	7	Sololá	719	Santiago Atitlán	14	Cerro de Oro	6	Junio	2023-07-06T00:00:00	2024-11-08T07:00:00	8	Radiación solar	87
153417	7	Sololá	719	Santiago Atitlán	14	Cerro de Oro	6	Junio	2023-07-06T00:00:00	2024-11-08T08:00:00	2	Temperatura media	19.9
153418	7	Sololá	719	Santiago Atitlán	14	Cerro de Oro	6	Junio	2023-07-06T00:00:00	2024-11-08T08:00:00	4	Temperatura máxima	19.9
153419	7	Sololá	719	Santiago Atitlán	14	Cerro de Oro	6	Junio	2023-07-06T00:00:00	2024-11-08T08:00:00	3	Temperatura mínima	19.3
153420	7	Sololá	719	Santiago Atitlán	14	Cerro de Oro	6	Junio	2023-07-06T00:00:00	2024-11-08T08:00:00	5	Humedad	81
153421	7	Sololá	719	Santiago Atitlán	14	Cerro de Oro	6	Junio	2023-07-06T00:00:00	2024-11-08T08:00:00	6	Velocidad del viento	4.8
153422	7	Sololá	719	Santiago Atitlán	14	Cerro de Oro	6	Junio	2023-07-06T00:00:00	2024-11-08T08:00:00	7	Dirección del viento	4.83
153423	7	Sololá	719	Santiago Atitlán	14	Cerro de Oro	6	Junio	2023-07-06T00:00:00	2024-11-08T08:00:00	1	Precipitación	0
153424	7	Sololá	719	Santiago Atitlán	14	Cerro de Oro	6	Junio	2023-07-06T00:00:00	2024-11-08T08:00:00	8	Radiación solar	192
153425	7	Sololá	719	Santiago Atitlán	14	Cerro de Oro	6	Junio	2023-07-06T00:00:00	2024-11-08T09:00:00	2	Temperatura media	21.2
153426	7	Sololá	719	Santiago Atitlán	14	Cerro de Oro	6	Junio	2023-07-06T00:00:00	2024-11-08T09:00:00	4	Temperatura máxima	21.4
153427	7	Sololá	719	Santiago Atitlán	14	Cerro de Oro	6	Junio	2023-07-06T00:00:00	2024-11-08T09:00:00	3	Temperatura mínima	19.8
153428	7	Sololá	719	Santiago Atitlán	14	Cerro de Oro	6	Junio	2023-07-06T00:00:00	2024-11-08T09:00:00	5	Humedad	76
153429	7	Sololá	719	Santiago Atitlán	14	Cerro de Oro	6	Junio	2023-07-06T00:00:00	2024-11-08T09:00:00	6	Velocidad del viento	4.8
153430	7	Sololá	719	Santiago Atitlán	14	Cerro de Oro	6	Junio	2023-07-06T00:00:00	2024-11-08T09:00:00	7	Dirección del viento	4.83
153431	7	Sololá	719	Santiago Atitlán	14	Cerro de Oro	6	Junio	2023-07-06T00:00:00	2024-11-08T09:00:00	1	Precipitación	0
153432	7	Sololá	719	Santiago Atitlán	14	Cerro de Oro	6	Junio	2023-07-06T00:00:00	2024-11-08T09:00:00	8	Radiación solar	480
153433	7	Sololá	719	Santiago Atitlán	14	Cerro de Oro	6	Junio	2023-07-06T00:00:00	2024-11-08T10:00:00	2	Temperatura media	22.3
153434	7	Sololá	719	Santiago Atitlán	14	Cerro de Oro	6	Junio	2023-07-06T00:00:00	2024-11-08T10:00:00	4	Temperatura máxima	22.3
153435	7	Sololá	719	Santiago Atitlán	14	Cerro de Oro	6	Junio	2023-07-06T00:00:00	2024-11-08T10:00:00	3	Temperatura mínima	21.2
153436	7	Sololá	719	Santiago Atitlán	14	Cerro de Oro	6	Junio	2023-07-06T00:00:00	2024-11-08T10:00:00	5	Humedad	76
153437	7	Sololá	719	Santiago Atitlán	14	Cerro de Oro	6	Junio	2023-07-06T00:00:00	2024-11-08T10:00:00	6	Velocidad del viento	4.8
153438	7	Sololá	719	Santiago Atitlán	14	Cerro de Oro	6	Junio	2023-07-06T00:00:00	2024-11-08T10:00:00	7	Dirección del viento	4.83
153439	7	Sololá	719	Santiago Atitlán	14	Cerro de Oro	6	Junio	2023-07-06T00:00:00	2024-11-08T10:00:00	1	Precipitación	0
153440	7	Sololá	719	Santiago Atitlán	14	Cerro de Oro	6	Junio	2023-07-06T00:00:00	2024-11-08T10:00:00	8	Radiación solar	609
153441	7	Sololá	719	Santiago Atitlán	14	Cerro de Oro	6	Junio	2023-07-06T00:00:00	2024-11-08T11:00:00	2	Temperatura media	23.3
153442	7	Sololá	719	Santiago Atitlán	14	Cerro de Oro	6	Junio	2023-07-06T00:00:00	2024-11-08T11:00:00	4	Temperatura máxima	23.3
153443	7	Sololá	719	Santiago Atitlán	14	Cerro de Oro	6	Junio	2023-07-06T00:00:00	2024-11-08T11:00:00	3	Temperatura mínima	22.3
153444	7	Sololá	719	Santiago Atitlán	14	Cerro de Oro	6	Junio	2023-07-06T00:00:00	2024-11-08T11:00:00	5	Humedad	75
153445	7	Sololá	719	Santiago Atitlán	14	Cerro de Oro	6	Junio	2023-07-06T00:00:00	2024-11-08T11:00:00	6	Velocidad del viento	6.4
153446	7	Sololá	719	Santiago Atitlán	14	Cerro de Oro	6	Junio	2023-07-06T00:00:00	2024-11-08T11:00:00	7	Dirección del viento	6.44
153447	7	Sololá	719	Santiago Atitlán	14	Cerro de Oro	6	Junio	2023-07-06T00:00:00	2024-11-08T11:00:00	1	Precipitación	0
153448	7	Sololá	719	Santiago Atitlán	14	Cerro de Oro	6	Junio	2023-07-06T00:00:00	2024-11-08T11:00:00	8	Radiación solar	837
153449	7	Sololá	719	Santiago Atitlán	14	Cerro de Oro	6	Junio	2023-07-06T00:00:00	2024-11-08T12:00:00	2	Temperatura media	23.3
153450	7	Sololá	719	Santiago Atitlán	14	Cerro de Oro	6	Junio	2023-07-06T00:00:00	2024-11-08T12:00:00	4	Temperatura máxima	23.6
153451	7	Sololá	719	Santiago Atitlán	14	Cerro de Oro	6	Junio	2023-07-06T00:00:00	2024-11-08T12:00:00	3	Temperatura mínima	22.7
153452	7	Sololá	719	Santiago Atitlán	14	Cerro de Oro	6	Junio	2023-07-06T00:00:00	2024-11-08T12:00:00	5	Humedad	75
153453	7	Sololá	719	Santiago Atitlán	14	Cerro de Oro	6	Junio	2023-07-06T00:00:00	2024-11-08T12:00:00	6	Velocidad del viento	14.5
153454	7	Sololá	719	Santiago Atitlán	14	Cerro de Oro	6	Junio	2023-07-06T00:00:00	2024-11-08T12:00:00	7	Dirección del viento	14.48
153455	7	Sololá	719	Santiago Atitlán	14	Cerro de Oro	6	Junio	2023-07-06T00:00:00	2024-11-08T12:00:00	1	Precipitación	0
153456	7	Sololá	719	Santiago Atitlán	14	Cerro de Oro	6	Junio	2023-07-06T00:00:00	2024-11-08T12:00:00	8	Radiación solar	940
153457	7	Sololá	719	Santiago Atitlán	14	Cerro de Oro	6	Junio	2023-07-06T00:00:00	2024-11-08T13:00:00	2	Temperatura media	23.7
153458	7	Sololá	719	Santiago Atitlán	14	Cerro de Oro	6	Junio	2023-07-06T00:00:00	2024-11-08T13:00:00	4	Temperatura máxima	24
153459	7	Sololá	719	Santiago Atitlán	14	Cerro de Oro	6	Junio	2023-07-06T00:00:00	2024-11-08T13:00:00	3	Temperatura mínima	22.8
153460	7	Sololá	719	Santiago Atitlán	14	Cerro de Oro	6	Junio	2023-07-06T00:00:00	2024-11-08T13:00:00	5	Humedad	76
153461	7	Sololá	719	Santiago Atitlán	14	Cerro de Oro	6	Junio	2023-07-06T00:00:00	2024-11-08T13:00:00	6	Velocidad del viento	12.9
153462	7	Sololá	719	Santiago Atitlán	14	Cerro de Oro	6	Junio	2023-07-06T00:00:00	2024-11-08T13:00:00	7	Dirección del viento	12.87
153463	7	Sololá	719	Santiago Atitlán	14	Cerro de Oro	6	Junio	2023-07-06T00:00:00	2024-11-08T13:00:00	1	Precipitación	0
153464	7	Sololá	719	Santiago Atitlán	14	Cerro de Oro	6	Junio	2023-07-06T00:00:00	2024-11-08T13:00:00	8	Radiación solar	897
153465	7	Sololá	719	Santiago Atitlán	14	Cerro de Oro	6	Junio	2023-07-06T00:00:00	2024-11-08T14:00:00	2	Temperatura media	21.9
153466	7	Sololá	719	Santiago Atitlán	14	Cerro de Oro	6	Junio	2023-07-06T00:00:00	2024-11-08T14:00:00	4	Temperatura máxima	23.9
153467	7	Sololá	719	Santiago Atitlán	14	Cerro de Oro	6	Junio	2023-07-06T00:00:00	2024-11-08T14:00:00	3	Temperatura mínima	21.9
153468	7	Sololá	719	Santiago Atitlán	14	Cerro de Oro	6	Junio	2023-07-06T00:00:00	2024-11-08T14:00:00	5	Humedad	80
153469	7	Sololá	719	Santiago Atitlán	14	Cerro de Oro	6	Junio	2023-07-06T00:00:00	2024-11-08T14:00:00	6	Velocidad del viento	8
153470	7	Sololá	719	Santiago Atitlán	14	Cerro de Oro	6	Junio	2023-07-06T00:00:00	2024-11-08T14:00:00	7	Dirección del viento	8.05
153471	7	Sololá	719	Santiago Atitlán	14	Cerro de Oro	6	Junio	2023-07-06T00:00:00	2024-11-08T14:00:00	1	Precipitación	0
153472	7	Sololá	719	Santiago Atitlán	14	Cerro de Oro	6	Junio	2023-07-06T00:00:00	2024-11-08T14:00:00	8	Radiación solar	284
153473	7	Sololá	719	Santiago Atitlán	14	Cerro de Oro	6	Junio	2023-07-06T00:00:00	2024-11-08T15:00:00	2	Temperatura media	20.9
153474	7	Sololá	719	Santiago Atitlán	14	Cerro de Oro	6	Junio	2023-07-06T00:00:00	2024-11-08T15:00:00	4	Temperatura máxima	22.3
153475	7	Sololá	719	Santiago Atitlán	14	Cerro de Oro	6	Junio	2023-07-06T00:00:00	2024-11-08T15:00:00	3	Temperatura mínima	20.9
153476	7	Sololá	719	Santiago Atitlán	14	Cerro de Oro	6	Junio	2023-07-06T00:00:00	2024-11-08T15:00:00	5	Humedad	85
153477	7	Sololá	719	Santiago Atitlán	14	Cerro de Oro	6	Junio	2023-07-06T00:00:00	2024-11-08T15:00:00	6	Velocidad del viento	8
153478	7	Sololá	719	Santiago Atitlán	14	Cerro de Oro	6	Junio	2023-07-06T00:00:00	2024-11-08T15:00:00	7	Dirección del viento	8.05
153479	7	Sololá	719	Santiago Atitlán	14	Cerro de Oro	6	Junio	2023-07-06T00:00:00	2024-11-08T15:00:00	1	Precipitación	0
153480	7	Sololá	719	Santiago Atitlán	14	Cerro de Oro	6	Junio	2023-07-06T00:00:00	2024-11-08T15:00:00	8	Radiación solar	233
153481	7	Sololá	719	Santiago Atitlán	14	Cerro de Oro	6	Junio	2023-07-06T00:00:00	2024-11-08T16:00:00	2	Temperatura media	22
153482	7	Sololá	719	Santiago Atitlán	14	Cerro de Oro	6	Junio	2023-07-06T00:00:00	2024-11-08T16:00:00	4	Temperatura máxima	22
153483	7	Sololá	719	Santiago Atitlán	14	Cerro de Oro	6	Junio	2023-07-06T00:00:00	2024-11-08T16:00:00	3	Temperatura mínima	20.8
153484	7	Sololá	719	Santiago Atitlán	14	Cerro de Oro	6	Junio	2023-07-06T00:00:00	2024-11-08T16:00:00	5	Humedad	82
153485	7	Sololá	719	Santiago Atitlán	14	Cerro de Oro	6	Junio	2023-07-06T00:00:00	2024-11-08T16:00:00	6	Velocidad del viento	8
153486	7	Sololá	719	Santiago Atitlán	14	Cerro de Oro	6	Junio	2023-07-06T00:00:00	2024-11-08T16:00:00	7	Dirección del viento	8.05
153487	7	Sololá	719	Santiago Atitlán	14	Cerro de Oro	6	Junio	2023-07-06T00:00:00	2024-11-08T16:00:00	1	Precipitación	0
153488	7	Sololá	719	Santiago Atitlán	14	Cerro de Oro	6	Junio	2023-07-06T00:00:00	2024-11-08T16:00:00	8	Radiación solar	361
153489	7	Sololá	719	Santiago Atitlán	14	Cerro de Oro	6	Junio	2023-07-06T00:00:00	2024-11-08T17:00:00	2	Temperatura media	21.2
153490	7	Sololá	719	Santiago Atitlán	14	Cerro de Oro	6	Junio	2023-07-06T00:00:00	2024-11-08T17:00:00	4	Temperatura máxima	22
153491	7	Sololá	719	Santiago Atitlán	14	Cerro de Oro	6	Junio	2023-07-06T00:00:00	2024-11-08T17:00:00	3	Temperatura mínima	20.8
153492	7	Sololá	719	Santiago Atitlán	14	Cerro de Oro	6	Junio	2023-07-06T00:00:00	2024-11-08T17:00:00	5	Humedad	82
153493	7	Sololá	719	Santiago Atitlán	14	Cerro de Oro	6	Junio	2023-07-06T00:00:00	2024-11-08T17:00:00	6	Velocidad del viento	6.4
153494	7	Sololá	719	Santiago Atitlán	14	Cerro de Oro	6	Junio	2023-07-06T00:00:00	2024-11-08T17:00:00	7	Dirección del viento	6.44
153495	7	Sololá	719	Santiago Atitlán	14	Cerro de Oro	6	Junio	2023-07-06T00:00:00	2024-11-08T17:00:00	1	Precipitación	0
153496	7	Sololá	719	Santiago Atitlán	14	Cerro de Oro	6	Junio	2023-07-06T00:00:00	2024-11-08T17:00:00	8	Radiación solar	204
153497	7	Sololá	719	Santiago Atitlán	14	Cerro de Oro	6	Junio	2023-07-06T00:00:00	2024-11-08T18:00:00	2	Temperatura media	20.2
153498	7	Sololá	719	Santiago Atitlán	14	Cerro de Oro	6	Junio	2023-07-06T00:00:00	2024-11-08T18:00:00	4	Temperatura máxima	21.2
153499	7	Sololá	719	Santiago Atitlán	14	Cerro de Oro	6	Junio	2023-07-06T00:00:00	2024-11-08T18:00:00	3	Temperatura mínima	20
153500	7	Sololá	719	Santiago Atitlán	14	Cerro de Oro	6	Junio	2023-07-06T00:00:00	2024-11-08T18:00:00	5	Humedad	86
153501	7	Sololá	719	Santiago Atitlán	14	Cerro de Oro	6	Junio	2023-07-06T00:00:00	2024-11-08T18:00:00	6	Velocidad del viento	4.8
153502	7	Sololá	719	Santiago Atitlán	14	Cerro de Oro	6	Junio	2023-07-06T00:00:00	2024-11-08T18:00:00	7	Dirección del viento	4.83
153503	7	Sololá	719	Santiago Atitlán	14	Cerro de Oro	6	Junio	2023-07-06T00:00:00	2024-11-08T18:00:00	1	Precipitación	0
153504	7	Sololá	719	Santiago Atitlán	14	Cerro de Oro	6	Junio	2023-07-06T00:00:00	2024-11-08T18:00:00	8	Radiación solar	30
153505	7	Sololá	719	Santiago Atitlán	14	Cerro de Oro	6	Junio	2023-07-06T00:00:00	2024-11-08T19:00:00	2	Temperatura media	19.8
153506	7	Sololá	719	Santiago Atitlán	14	Cerro de Oro	6	Junio	2023-07-06T00:00:00	2024-11-08T19:00:00	4	Temperatura máxima	20.3
153507	7	Sololá	719	Santiago Atitlán	14	Cerro de Oro	6	Junio	2023-07-06T00:00:00	2024-11-08T19:00:00	3	Temperatura mínima	19.7
153508	7	Sololá	719	Santiago Atitlán	14	Cerro de Oro	6	Junio	2023-07-06T00:00:00	2024-11-08T19:00:00	5	Humedad	87
153509	7	Sololá	719	Santiago Atitlán	14	Cerro de Oro	6	Junio	2023-07-06T00:00:00	2024-11-08T19:00:00	6	Velocidad del viento	4.8
153510	7	Sololá	719	Santiago Atitlán	14	Cerro de Oro	6	Junio	2023-07-06T00:00:00	2024-11-08T19:00:00	7	Dirección del viento	4.83
153511	7	Sololá	719	Santiago Atitlán	14	Cerro de Oro	6	Junio	2023-07-06T00:00:00	2024-11-08T19:00:00	1	Precipitación	0
153512	7	Sololá	719	Santiago Atitlán	14	Cerro de Oro	6	Junio	2023-07-06T00:00:00	2024-11-08T19:00:00	8	Radiación solar	0
153513	7	Sololá	719	Santiago Atitlán	14	Cerro de Oro	6	Junio	2023-07-06T00:00:00	2024-11-08T20:00:00	2	Temperatura media	19.3
153514	7	Sololá	719	Santiago Atitlán	14	Cerro de Oro	6	Junio	2023-07-06T00:00:00	2024-11-08T20:00:00	4	Temperatura máxima	19.9
153515	7	Sololá	719	Santiago Atitlán	14	Cerro de Oro	6	Junio	2023-07-06T00:00:00	2024-11-08T20:00:00	3	Temperatura mínima	19.1
153516	7	Sololá	719	Santiago Atitlán	14	Cerro de Oro	6	Junio	2023-07-06T00:00:00	2024-11-08T20:00:00	5	Humedad	90
153517	7	Sololá	719	Santiago Atitlán	14	Cerro de Oro	6	Junio	2023-07-06T00:00:00	2024-11-08T20:00:00	6	Velocidad del viento	6.4
153518	7	Sololá	719	Santiago Atitlán	14	Cerro de Oro	6	Junio	2023-07-06T00:00:00	2024-11-08T20:00:00	7	Dirección del viento	6.44
153519	7	Sololá	719	Santiago Atitlán	14	Cerro de Oro	6	Junio	2023-07-06T00:00:00	2024-11-08T20:00:00	1	Precipitación	0
153520	7	Sololá	719	Santiago Atitlán	14	Cerro de Oro	6	Junio	2023-07-06T00:00:00	2024-11-08T20:00:00	8	Radiación solar	0
153521	7	Sololá	719	Santiago Atitlán	14	Cerro de Oro	6	Junio	2023-07-06T00:00:00	2024-11-08T21:00:00	2	Temperatura media	18.8
153522	7	Sololá	719	Santiago Atitlán	14	Cerro de Oro	6	Junio	2023-07-06T00:00:00	2024-11-08T21:00:00	4	Temperatura máxima	19.3
153523	7	Sololá	719	Santiago Atitlán	14	Cerro de Oro	6	Junio	2023-07-06T00:00:00	2024-11-08T21:00:00	3	Temperatura mínima	18.8
153524	7	Sololá	719	Santiago Atitlán	14	Cerro de Oro	6	Junio	2023-07-06T00:00:00	2024-11-08T21:00:00	5	Humedad	93
153525	7	Sololá	719	Santiago Atitlán	14	Cerro de Oro	6	Junio	2023-07-06T00:00:00	2024-11-08T21:00:00	6	Velocidad del viento	8
153526	7	Sololá	719	Santiago Atitlán	14	Cerro de Oro	6	Junio	2023-07-06T00:00:00	2024-11-08T21:00:00	7	Dirección del viento	8.05
153527	7	Sololá	719	Santiago Atitlán	14	Cerro de Oro	6	Junio	2023-07-06T00:00:00	2024-11-08T21:00:00	1	Precipitación	0
153528	7	Sololá	719	Santiago Atitlán	14	Cerro de Oro	6	Junio	2023-07-06T00:00:00	2024-11-08T21:00:00	8	Radiación solar	0
153529	7	Sololá	719	Santiago Atitlán	14	Cerro de Oro	6	Junio	2023-07-06T00:00:00	2024-11-08T22:00:00	2	Temperatura media	18.6
153530	7	Sololá	719	Santiago Atitlán	14	Cerro de Oro	6	Junio	2023-07-06T00:00:00	2024-11-08T22:00:00	4	Temperatura máxima	18.8
153531	7	Sololá	719	Santiago Atitlán	14	Cerro de Oro	6	Junio	2023-07-06T00:00:00	2024-11-08T22:00:00	3	Temperatura mínima	18.3
153532	7	Sololá	719	Santiago Atitlán	14	Cerro de Oro	6	Junio	2023-07-06T00:00:00	2024-11-08T22:00:00	5	Humedad	93
153533	7	Sololá	719	Santiago Atitlán	14	Cerro de Oro	6	Junio	2023-07-06T00:00:00	2024-11-08T22:00:00	6	Velocidad del viento	6.4
153534	7	Sololá	719	Santiago Atitlán	14	Cerro de Oro	6	Junio	2023-07-06T00:00:00	2024-11-08T22:00:00	7	Dirección del viento	6.44
153535	7	Sololá	719	Santiago Atitlán	14	Cerro de Oro	6	Junio	2023-07-06T00:00:00	2024-11-08T22:00:00	1	Precipitación	1.2
153536	7	Sololá	719	Santiago Atitlán	14	Cerro de Oro	6	Junio	2023-07-06T00:00:00	2024-11-08T22:00:00	8	Radiación solar	0
153537	7	Sololá	719	Santiago Atitlán	14	Cerro de Oro	6	Junio	2023-07-06T00:00:00	2024-11-08T23:00:00	2	Temperatura media	18.2
153538	7	Sololá	719	Santiago Atitlán	14	Cerro de Oro	6	Junio	2023-07-06T00:00:00	2024-11-08T23:00:00	4	Temperatura máxima	18.8
153539	7	Sololá	719	Santiago Atitlán	14	Cerro de Oro	6	Junio	2023-07-06T00:00:00	2024-11-08T23:00:00	3	Temperatura mínima	18.2
153540	7	Sololá	719	Santiago Atitlán	14	Cerro de Oro	6	Junio	2023-07-06T00:00:00	2024-11-08T23:00:00	5	Humedad	93
153541	7	Sololá	719	Santiago Atitlán	14	Cerro de Oro	6	Junio	2023-07-06T00:00:00	2024-11-08T23:00:00	6	Velocidad del viento	6.4
153542	7	Sololá	719	Santiago Atitlán	14	Cerro de Oro	6	Junio	2023-07-06T00:00:00	2024-11-08T23:00:00	7	Dirección del viento	6.44
153543	7	Sololá	719	Santiago Atitlán	14	Cerro de Oro	6	Junio	2023-07-06T00:00:00	2024-11-08T23:00:00	1	Precipitación	1.4
153544	7	Sololá	719	Santiago Atitlán	14	Cerro de Oro	6	Junio	2023-07-06T00:00:00	2024-11-08T23:00:00	8	Radiación solar	0
153545	7	Sololá	719	Santiago Atitlán	14	Cerro de Oro	6	Junio	2023-08-06T00:00:00	2024-11-08T00:00:00	2	Temperatura media	18.3
153546	7	Sololá	719	Santiago Atitlán	14	Cerro de Oro	6	Junio	2023-08-06T00:00:00	2024-11-08T00:00:00	4	Temperatura máxima	18.4
153547	7	Sololá	719	Santiago Atitlán	14	Cerro de Oro	6	Junio	2023-08-06T00:00:00	2024-11-08T00:00:00	3	Temperatura mínima	18.2
153548	7	Sololá	719	Santiago Atitlán	14	Cerro de Oro	6	Junio	2023-08-06T00:00:00	2024-11-08T00:00:00	5	Humedad	93
153549	7	Sololá	719	Santiago Atitlán	14	Cerro de Oro	6	Junio	2023-08-06T00:00:00	2024-11-08T00:00:00	6	Velocidad del viento	1.6
153550	7	Sololá	719	Santiago Atitlán	14	Cerro de Oro	6	Junio	2023-08-06T00:00:00	2024-11-08T00:00:00	7	Dirección del viento	1.61
153551	7	Sololá	719	Santiago Atitlán	14	Cerro de Oro	6	Junio	2023-08-06T00:00:00	2024-11-08T00:00:00	1	Precipitación	2
153552	7	Sololá	719	Santiago Atitlán	14	Cerro de Oro	6	Junio	2023-08-06T00:00:00	2024-11-08T00:00:00	8	Radiación solar	0
153553	7	Sololá	719	Santiago Atitlán	14	Cerro de Oro	6	Junio	2023-08-06T00:00:00	2024-11-08T01:00:00	2	Temperatura media	18
153554	7	Sololá	719	Santiago Atitlán	14	Cerro de Oro	6	Junio	2023-08-06T00:00:00	2024-11-08T01:00:00	4	Temperatura máxima	18.3
153555	7	Sololá	719	Santiago Atitlán	14	Cerro de Oro	6	Junio	2023-08-06T00:00:00	2024-11-08T01:00:00	3	Temperatura mínima	18
153556	7	Sololá	719	Santiago Atitlán	14	Cerro de Oro	6	Junio	2023-08-06T00:00:00	2024-11-08T01:00:00	5	Humedad	92
153557	7	Sololá	719	Santiago Atitlán	14	Cerro de Oro	6	Junio	2023-08-06T00:00:00	2024-11-08T01:00:00	6	Velocidad del viento	1.6
153558	7	Sololá	719	Santiago Atitlán	14	Cerro de Oro	6	Junio	2023-08-06T00:00:00	2024-11-08T01:00:00	7	Dirección del viento	1.61
153559	7	Sololá	719	Santiago Atitlán	14	Cerro de Oro	6	Junio	2023-08-06T00:00:00	2024-11-08T01:00:00	1	Precipitación	0.4
153560	7	Sololá	719	Santiago Atitlán	14	Cerro de Oro	6	Junio	2023-08-06T00:00:00	2024-11-08T01:00:00	8	Radiación solar	0
153561	7	Sololá	719	Santiago Atitlán	14	Cerro de Oro	6	Junio	2023-08-06T00:00:00	2024-11-08T02:00:00	2	Temperatura media	18.2
153562	7	Sololá	719	Santiago Atitlán	14	Cerro de Oro	6	Junio	2023-08-06T00:00:00	2024-11-08T02:00:00	4	Temperatura máxima	18.2
153563	7	Sololá	719	Santiago Atitlán	14	Cerro de Oro	6	Junio	2023-08-06T00:00:00	2024-11-08T02:00:00	3	Temperatura mínima	17.9
153564	7	Sololá	719	Santiago Atitlán	14	Cerro de Oro	6	Junio	2023-08-06T00:00:00	2024-11-08T02:00:00	5	Humedad	92
153565	7	Sololá	719	Santiago Atitlán	14	Cerro de Oro	6	Junio	2023-08-06T00:00:00	2024-11-08T02:00:00	6	Velocidad del viento	1.6
153566	7	Sololá	719	Santiago Atitlán	14	Cerro de Oro	6	Junio	2023-08-06T00:00:00	2024-11-08T02:00:00	7	Dirección del viento	1.61
153567	7	Sololá	719	Santiago Atitlán	14	Cerro de Oro	6	Junio	2023-08-06T00:00:00	2024-11-08T02:00:00	1	Precipitación	0
153568	7	Sololá	719	Santiago Atitlán	14	Cerro de Oro	6	Junio	2023-08-06T00:00:00	2024-11-08T02:00:00	8	Radiación solar	0
153569	7	Sololá	719	Santiago Atitlán	14	Cerro de Oro	6	Junio	2023-08-06T00:00:00	2024-11-08T03:00:00	2	Temperatura media	17.9
153570	7	Sololá	719	Santiago Atitlán	14	Cerro de Oro	6	Junio	2023-08-06T00:00:00	2024-11-08T03:00:00	4	Temperatura máxima	18.2
153571	7	Sololá	719	Santiago Atitlán	14	Cerro de Oro	6	Junio	2023-08-06T00:00:00	2024-11-08T03:00:00	3	Temperatura mínima	17.9
153572	7	Sololá	719	Santiago Atitlán	14	Cerro de Oro	6	Junio	2023-08-06T00:00:00	2024-11-08T03:00:00	5	Humedad	92
153573	7	Sololá	719	Santiago Atitlán	14	Cerro de Oro	6	Junio	2023-08-06T00:00:00	2024-11-08T03:00:00	6	Velocidad del viento	1.6
153574	7	Sololá	719	Santiago Atitlán	14	Cerro de Oro	6	Junio	2023-08-06T00:00:00	2024-11-08T03:00:00	7	Dirección del viento	1.61
153575	7	Sololá	719	Santiago Atitlán	14	Cerro de Oro	6	Junio	2023-08-06T00:00:00	2024-11-08T03:00:00	1	Precipitación	0
153576	7	Sololá	719	Santiago Atitlán	14	Cerro de Oro	6	Junio	2023-08-06T00:00:00	2024-11-08T03:00:00	8	Radiación solar	0
153577	7	Sololá	719	Santiago Atitlán	14	Cerro de Oro	6	Junio	2023-08-06T00:00:00	2024-11-08T04:00:00	2	Temperatura media	17.8
153578	7	Sololá	719	Santiago Atitlán	14	Cerro de Oro	6	Junio	2023-08-06T00:00:00	2024-11-08T04:00:00	4	Temperatura máxima	17.9
153579	7	Sololá	719	Santiago Atitlán	14	Cerro de Oro	6	Junio	2023-08-06T00:00:00	2024-11-08T04:00:00	3	Temperatura mínima	17.7
153580	7	Sololá	719	Santiago Atitlán	14	Cerro de Oro	6	Junio	2023-08-06T00:00:00	2024-11-08T04:00:00	5	Humedad	91
153581	7	Sololá	719	Santiago Atitlán	14	Cerro de Oro	6	Junio	2023-08-06T00:00:00	2024-11-08T04:00:00	6	Velocidad del viento	3.2
153582	7	Sololá	719	Santiago Atitlán	14	Cerro de Oro	6	Junio	2023-08-06T00:00:00	2024-11-08T04:00:00	7	Dirección del viento	3.22
153583	7	Sololá	719	Santiago Atitlán	14	Cerro de Oro	6	Junio	2023-08-06T00:00:00	2024-11-08T04:00:00	1	Precipitación	0
153584	7	Sololá	719	Santiago Atitlán	14	Cerro de Oro	6	Junio	2023-08-06T00:00:00	2024-11-08T04:00:00	8	Radiación solar	0
153585	7	Sololá	719	Santiago Atitlán	14	Cerro de Oro	6	Junio	2023-08-06T00:00:00	2024-11-08T05:00:00	2	Temperatura media	17.9
153586	7	Sololá	719	Santiago Atitlán	14	Cerro de Oro	6	Junio	2023-08-06T00:00:00	2024-11-08T05:00:00	4	Temperatura máxima	18.1
153587	7	Sololá	719	Santiago Atitlán	14	Cerro de Oro	6	Junio	2023-08-06T00:00:00	2024-11-08T05:00:00	3	Temperatura mínima	17.7
153588	7	Sololá	719	Santiago Atitlán	14	Cerro de Oro	6	Junio	2023-08-06T00:00:00	2024-11-08T05:00:00	5	Humedad	88
153589	7	Sololá	719	Santiago Atitlán	14	Cerro de Oro	6	Junio	2023-08-06T00:00:00	2024-11-08T05:00:00	6	Velocidad del viento	4.8
153590	7	Sololá	719	Santiago Atitlán	14	Cerro de Oro	6	Junio	2023-08-06T00:00:00	2024-11-08T05:00:00	7	Dirección del viento	4.83
153591	7	Sololá	719	Santiago Atitlán	14	Cerro de Oro	6	Junio	2023-08-06T00:00:00	2024-11-08T05:00:00	1	Precipitación	0
153592	7	Sololá	719	Santiago Atitlán	14	Cerro de Oro	6	Junio	2023-08-06T00:00:00	2024-11-08T05:00:00	8	Radiación solar	0
153593	7	Sololá	719	Santiago Atitlán	14	Cerro de Oro	6	Junio	2023-08-06T00:00:00	2024-11-08T06:00:00	2	Temperatura media	17.6
153594	7	Sololá	719	Santiago Atitlán	14	Cerro de Oro	6	Junio	2023-08-06T00:00:00	2024-11-08T06:00:00	4	Temperatura máxima	18.1
153595	7	Sololá	719	Santiago Atitlán	14	Cerro de Oro	6	Junio	2023-08-06T00:00:00	2024-11-08T06:00:00	3	Temperatura mínima	17.6
153596	7	Sololá	719	Santiago Atitlán	14	Cerro de Oro	6	Junio	2023-08-06T00:00:00	2024-11-08T06:00:00	5	Humedad	89
153597	7	Sololá	719	Santiago Atitlán	14	Cerro de Oro	6	Junio	2023-08-06T00:00:00	2024-11-08T06:00:00	6	Velocidad del viento	3.2
153598	7	Sololá	719	Santiago Atitlán	14	Cerro de Oro	6	Junio	2023-08-06T00:00:00	2024-11-08T06:00:00	7	Dirección del viento	3.22
153599	7	Sololá	719	Santiago Atitlán	14	Cerro de Oro	6	Junio	2023-08-06T00:00:00	2024-11-08T06:00:00	1	Precipitación	0
153600	7	Sololá	719	Santiago Atitlán	14	Cerro de Oro	6	Junio	2023-08-06T00:00:00	2024-11-08T06:00:00	8	Radiación solar	5
153601	7	Sololá	719	Santiago Atitlán	14	Cerro de Oro	6	Junio	2023-08-06T00:00:00	2024-11-08T07:00:00	2	Temperatura media	19.1
153602	7	Sololá	719	Santiago Atitlán	14	Cerro de Oro	6	Junio	2023-08-06T00:00:00	2024-11-08T07:00:00	4	Temperatura máxima	19.1
153603	7	Sololá	719	Santiago Atitlán	14	Cerro de Oro	6	Junio	2023-08-06T00:00:00	2024-11-08T07:00:00	3	Temperatura mínima	17.6
153604	7	Sololá	719	Santiago Atitlán	14	Cerro de Oro	6	Junio	2023-08-06T00:00:00	2024-11-08T07:00:00	5	Humedad	84
153605	7	Sololá	719	Santiago Atitlán	14	Cerro de Oro	6	Junio	2023-08-06T00:00:00	2024-11-08T07:00:00	6	Velocidad del viento	3.2
153606	7	Sololá	719	Santiago Atitlán	14	Cerro de Oro	6	Junio	2023-08-06T00:00:00	2024-11-08T07:00:00	7	Dirección del viento	3.22
153607	7	Sololá	719	Santiago Atitlán	14	Cerro de Oro	6	Junio	2023-08-06T00:00:00	2024-11-08T07:00:00	1	Precipitación	0
153608	7	Sololá	719	Santiago Atitlán	14	Cerro de Oro	6	Junio	2023-08-06T00:00:00	2024-11-08T07:00:00	8	Radiación solar	95
153609	7	Sololá	719	Santiago Atitlán	14	Cerro de Oro	6	Junio	2023-08-06T00:00:00	2024-11-08T08:00:00	2	Temperatura media	20.9
153610	7	Sololá	719	Santiago Atitlán	14	Cerro de Oro	6	Junio	2023-08-06T00:00:00	2024-11-08T08:00:00	4	Temperatura máxima	20.9
153611	7	Sololá	719	Santiago Atitlán	14	Cerro de Oro	6	Junio	2023-08-06T00:00:00	2024-11-08T08:00:00	3	Temperatura mínima	19.1
153612	7	Sololá	719	Santiago Atitlán	14	Cerro de Oro	6	Junio	2023-08-06T00:00:00	2024-11-08T08:00:00	5	Humedad	81
153613	7	Sololá	719	Santiago Atitlán	14	Cerro de Oro	6	Junio	2023-08-06T00:00:00	2024-11-08T08:00:00	6	Velocidad del viento	1.6
153614	7	Sololá	719	Santiago Atitlán	14	Cerro de Oro	6	Junio	2023-08-06T00:00:00	2024-11-08T08:00:00	7	Dirección del viento	1.61
153615	7	Sololá	719	Santiago Atitlán	14	Cerro de Oro	6	Junio	2023-08-06T00:00:00	2024-11-08T08:00:00	1	Precipitación	0
153616	7	Sololá	719	Santiago Atitlán	14	Cerro de Oro	6	Junio	2023-08-06T00:00:00	2024-11-08T08:00:00	8	Radiación solar	267
153617	7	Sololá	719	Santiago Atitlán	14	Cerro de Oro	6	Junio	2023-08-06T00:00:00	2024-11-08T09:00:00	2	Temperatura media	21.5
153618	7	Sololá	719	Santiago Atitlán	14	Cerro de Oro	6	Junio	2023-08-06T00:00:00	2024-11-08T09:00:00	4	Temperatura máxima	21.5
153619	7	Sololá	719	Santiago Atitlán	14	Cerro de Oro	6	Junio	2023-08-06T00:00:00	2024-11-08T09:00:00	3	Temperatura mínima	20.9
153620	7	Sololá	719	Santiago Atitlán	14	Cerro de Oro	6	Junio	2023-08-06T00:00:00	2024-11-08T09:00:00	5	Humedad	81
153621	7	Sololá	719	Santiago Atitlán	14	Cerro de Oro	6	Junio	2023-08-06T00:00:00	2024-11-08T09:00:00	6	Velocidad del viento	3.2
153622	7	Sololá	719	Santiago Atitlán	14	Cerro de Oro	6	Junio	2023-08-06T00:00:00	2024-11-08T09:00:00	7	Dirección del viento	3.22
153623	7	Sololá	719	Santiago Atitlán	14	Cerro de Oro	6	Junio	2023-08-06T00:00:00	2024-11-08T09:00:00	1	Precipitación	0
153624	7	Sololá	719	Santiago Atitlán	14	Cerro de Oro	6	Junio	2023-08-06T00:00:00	2024-11-08T09:00:00	8	Radiación solar	508
153625	7	Sololá	719	Santiago Atitlán	14	Cerro de Oro	6	Junio	2023-08-06T00:00:00	2024-11-08T10:00:00	2	Temperatura media	21.9
153626	7	Sololá	719	Santiago Atitlán	14	Cerro de Oro	6	Junio	2023-08-06T00:00:00	2024-11-08T10:00:00	4	Temperatura máxima	21.9
153627	7	Sololá	719	Santiago Atitlán	14	Cerro de Oro	6	Junio	2023-08-06T00:00:00	2024-11-08T10:00:00	3	Temperatura mínima	21.4
153628	7	Sololá	719	Santiago Atitlán	14	Cerro de Oro	6	Junio	2023-08-06T00:00:00	2024-11-08T10:00:00	5	Humedad	82
153629	7	Sololá	719	Santiago Atitlán	14	Cerro de Oro	6	Junio	2023-08-06T00:00:00	2024-11-08T10:00:00	6	Velocidad del viento	4.8
153630	7	Sololá	719	Santiago Atitlán	14	Cerro de Oro	6	Junio	2023-08-06T00:00:00	2024-11-08T10:00:00	7	Dirección del viento	4.83
153631	7	Sololá	719	Santiago Atitlán	14	Cerro de Oro	6	Junio	2023-08-06T00:00:00	2024-11-08T10:00:00	1	Precipitación	0
153632	7	Sololá	719	Santiago Atitlán	14	Cerro de Oro	6	Junio	2023-08-06T00:00:00	2024-11-08T10:00:00	8	Radiación solar	687
153633	7	Sololá	719	Santiago Atitlán	14	Cerro de Oro	6	Junio	2023-08-06T00:00:00	2024-11-08T11:00:00	2	Temperatura media	23
153634	7	Sololá	719	Santiago Atitlán	14	Cerro de Oro	6	Junio	2023-08-06T00:00:00	2024-11-08T11:00:00	4	Temperatura máxima	23.2
153635	7	Sololá	719	Santiago Atitlán	14	Cerro de Oro	6	Junio	2023-08-06T00:00:00	2024-11-08T11:00:00	3	Temperatura mínima	21.9
153636	7	Sololá	719	Santiago Atitlán	14	Cerro de Oro	6	Junio	2023-08-06T00:00:00	2024-11-08T11:00:00	5	Humedad	81
153637	7	Sololá	719	Santiago Atitlán	14	Cerro de Oro	6	Junio	2023-08-06T00:00:00	2024-11-08T11:00:00	6	Velocidad del viento	6.4
153638	7	Sololá	719	Santiago Atitlán	14	Cerro de Oro	6	Junio	2023-08-06T00:00:00	2024-11-08T11:00:00	7	Dirección del viento	6.44
153639	7	Sololá	719	Santiago Atitlán	14	Cerro de Oro	6	Junio	2023-08-06T00:00:00	2024-11-08T11:00:00	1	Precipitación	0
153640	7	Sololá	719	Santiago Atitlán	14	Cerro de Oro	6	Junio	2023-08-06T00:00:00	2024-11-08T11:00:00	8	Radiación solar	859
153641	7	Sololá	719	Santiago Atitlán	14	Cerro de Oro	6	Junio	2023-08-06T00:00:00	2024-11-08T12:00:00	2	Temperatura media	24.2
153642	7	Sololá	719	Santiago Atitlán	14	Cerro de Oro	6	Junio	2023-08-06T00:00:00	2024-11-08T12:00:00	4	Temperatura máxima	24.4
153643	7	Sololá	719	Santiago Atitlán	14	Cerro de Oro	6	Junio	2023-08-06T00:00:00	2024-11-08T12:00:00	3	Temperatura mínima	23
153644	7	Sololá	719	Santiago Atitlán	14	Cerro de Oro	6	Junio	2023-08-06T00:00:00	2024-11-08T12:00:00	5	Humedad	76
153645	7	Sololá	719	Santiago Atitlán	14	Cerro de Oro	6	Junio	2023-08-06T00:00:00	2024-11-08T12:00:00	6	Velocidad del viento	8
153646	7	Sololá	719	Santiago Atitlán	14	Cerro de Oro	6	Junio	2023-08-06T00:00:00	2024-11-08T12:00:00	7	Dirección del viento	8.05
153647	7	Sololá	719	Santiago Atitlán	14	Cerro de Oro	6	Junio	2023-08-06T00:00:00	2024-11-08T12:00:00	1	Precipitación	0
153648	7	Sololá	719	Santiago Atitlán	14	Cerro de Oro	6	Junio	2023-08-06T00:00:00	2024-11-08T12:00:00	8	Radiación solar	848
153649	7	Sololá	719	Santiago Atitlán	14	Cerro de Oro	6	Junio	2023-08-06T00:00:00	2024-11-08T13:00:00	2	Temperatura media	23.5
153650	7	Sololá	719	Santiago Atitlán	14	Cerro de Oro	6	Junio	2023-08-06T00:00:00	2024-11-08T13:00:00	4	Temperatura máxima	24.3
153651	7	Sololá	719	Santiago Atitlán	14	Cerro de Oro	6	Junio	2023-08-06T00:00:00	2024-11-08T13:00:00	3	Temperatura mínima	23.5
153652	7	Sololá	719	Santiago Atitlán	14	Cerro de Oro	6	Junio	2023-08-06T00:00:00	2024-11-08T13:00:00	5	Humedad	76
153653	7	Sololá	719	Santiago Atitlán	14	Cerro de Oro	6	Junio	2023-08-06T00:00:00	2024-11-08T13:00:00	6	Velocidad del viento	12.9
153654	7	Sololá	719	Santiago Atitlán	14	Cerro de Oro	6	Junio	2023-08-06T00:00:00	2024-11-08T13:00:00	7	Dirección del viento	12.87
153655	7	Sololá	719	Santiago Atitlán	14	Cerro de Oro	6	Junio	2023-08-06T00:00:00	2024-11-08T13:00:00	1	Precipitación	0
153656	7	Sololá	719	Santiago Atitlán	14	Cerro de Oro	6	Junio	2023-08-06T00:00:00	2024-11-08T13:00:00	8	Radiación solar	927
153657	7	Sololá	719	Santiago Atitlán	14	Cerro de Oro	6	Junio	2023-08-06T00:00:00	2024-11-08T14:00:00	2	Temperatura media	22.6
153658	7	Sololá	719	Santiago Atitlán	14	Cerro de Oro	6	Junio	2023-08-06T00:00:00	2024-11-08T14:00:00	4	Temperatura máxima	23.6
153659	7	Sololá	719	Santiago Atitlán	14	Cerro de Oro	6	Junio	2023-08-06T00:00:00	2024-11-08T14:00:00	3	Temperatura mínima	22.3
153660	7	Sololá	719	Santiago Atitlán	14	Cerro de Oro	6	Junio	2023-08-06T00:00:00	2024-11-08T14:00:00	5	Humedad	81
153661	7	Sololá	719	Santiago Atitlán	14	Cerro de Oro	6	Junio	2023-08-06T00:00:00	2024-11-08T14:00:00	6	Velocidad del viento	11.3
153662	7	Sololá	719	Santiago Atitlán	14	Cerro de Oro	6	Junio	2023-08-06T00:00:00	2024-11-08T14:00:00	7	Dirección del viento	11.27
153663	7	Sololá	719	Santiago Atitlán	14	Cerro de Oro	6	Junio	2023-08-06T00:00:00	2024-11-08T14:00:00	1	Precipitación	0
153664	7	Sololá	719	Santiago Atitlán	14	Cerro de Oro	6	Junio	2023-08-06T00:00:00	2024-11-08T14:00:00	8	Radiación solar	302
153665	7	Sololá	719	Santiago Atitlán	14	Cerro de Oro	6	Junio	2023-08-06T00:00:00	2024-11-08T15:00:00	2	Temperatura media	21.9
153666	7	Sololá	719	Santiago Atitlán	14	Cerro de Oro	6	Junio	2023-08-06T00:00:00	2024-11-08T15:00:00	4	Temperatura máxima	22.8
153667	7	Sololá	719	Santiago Atitlán	14	Cerro de Oro	6	Junio	2023-08-06T00:00:00	2024-11-08T15:00:00	3	Temperatura mínima	21.6
153668	7	Sololá	719	Santiago Atitlán	14	Cerro de Oro	6	Junio	2023-08-06T00:00:00	2024-11-08T15:00:00	5	Humedad	83
153669	7	Sololá	719	Santiago Atitlán	14	Cerro de Oro	6	Junio	2023-08-06T00:00:00	2024-11-08T15:00:00	6	Velocidad del viento	11.3
153670	7	Sololá	719	Santiago Atitlán	14	Cerro de Oro	6	Junio	2023-08-06T00:00:00	2024-11-08T15:00:00	7	Dirección del viento	11.27
153671	7	Sololá	719	Santiago Atitlán	14	Cerro de Oro	6	Junio	2023-08-06T00:00:00	2024-11-08T15:00:00	1	Precipitación	0
153672	7	Sololá	719	Santiago Atitlán	14	Cerro de Oro	6	Junio	2023-08-06T00:00:00	2024-11-08T15:00:00	8	Radiación solar	210
153673	7	Sololá	719	Santiago Atitlán	14	Cerro de Oro	6	Junio	2023-08-06T00:00:00	2024-11-08T16:00:00	2	Temperatura media	22.1
153674	7	Sololá	719	Santiago Atitlán	14	Cerro de Oro	6	Junio	2023-08-06T00:00:00	2024-11-08T16:00:00	4	Temperatura máxima	22.2
153675	7	Sololá	719	Santiago Atitlán	14	Cerro de Oro	6	Junio	2023-08-06T00:00:00	2024-11-08T16:00:00	3	Temperatura mínima	21.4
153676	7	Sololá	719	Santiago Atitlán	14	Cerro de Oro	6	Junio	2023-08-06T00:00:00	2024-11-08T16:00:00	5	Humedad	84
153677	7	Sololá	719	Santiago Atitlán	14	Cerro de Oro	6	Junio	2023-08-06T00:00:00	2024-11-08T16:00:00	6	Velocidad del viento	8
153678	7	Sololá	719	Santiago Atitlán	14	Cerro de Oro	6	Junio	2023-08-06T00:00:00	2024-11-08T16:00:00	7	Dirección del viento	8.05
153679	7	Sololá	719	Santiago Atitlán	14	Cerro de Oro	6	Junio	2023-08-06T00:00:00	2024-11-08T16:00:00	1	Precipitación	0
153680	7	Sololá	719	Santiago Atitlán	14	Cerro de Oro	6	Junio	2023-08-06T00:00:00	2024-11-08T16:00:00	8	Radiación solar	242
153681	7	Sololá	719	Santiago Atitlán	14	Cerro de Oro	6	Junio	2023-08-06T00:00:00	2024-11-08T17:00:00	2	Temperatura media	21.4
153682	7	Sololá	719	Santiago Atitlán	14	Cerro de Oro	6	Junio	2023-08-06T00:00:00	2024-11-08T17:00:00	4	Temperatura máxima	22.1
153683	7	Sololá	719	Santiago Atitlán	14	Cerro de Oro	6	Junio	2023-08-06T00:00:00	2024-11-08T17:00:00	3	Temperatura mínima	21.2
153684	7	Sololá	719	Santiago Atitlán	14	Cerro de Oro	6	Junio	2023-08-06T00:00:00	2024-11-08T17:00:00	5	Humedad	85
153685	7	Sololá	719	Santiago Atitlán	14	Cerro de Oro	6	Junio	2023-08-06T00:00:00	2024-11-08T17:00:00	6	Velocidad del viento	8
153686	7	Sololá	719	Santiago Atitlán	14	Cerro de Oro	6	Junio	2023-08-06T00:00:00	2024-11-08T17:00:00	7	Dirección del viento	8.05
153687	7	Sololá	719	Santiago Atitlán	14	Cerro de Oro	6	Junio	2023-08-06T00:00:00	2024-11-08T17:00:00	1	Precipitación	0
153688	7	Sololá	719	Santiago Atitlán	14	Cerro de Oro	6	Junio	2023-08-06T00:00:00	2024-11-08T17:00:00	8	Radiación solar	190
153689	7	Sololá	719	Santiago Atitlán	14	Cerro de Oro	6	Junio	2023-08-06T00:00:00	2024-11-08T18:00:00	2	Temperatura media	20.5
153690	7	Sololá	719	Santiago Atitlán	14	Cerro de Oro	6	Junio	2023-08-06T00:00:00	2024-11-08T18:00:00	4	Temperatura máxima	21.5
153691	7	Sololá	719	Santiago Atitlán	14	Cerro de Oro	6	Junio	2023-08-06T00:00:00	2024-11-08T18:00:00	3	Temperatura mínima	20.5
153692	7	Sololá	719	Santiago Atitlán	14	Cerro de Oro	6	Junio	2023-08-06T00:00:00	2024-11-08T18:00:00	5	Humedad	88
153693	7	Sololá	719	Santiago Atitlán	14	Cerro de Oro	6	Junio	2023-08-06T00:00:00	2024-11-08T18:00:00	6	Velocidad del viento	9.7
153694	7	Sololá	719	Santiago Atitlán	14	Cerro de Oro	6	Junio	2023-08-06T00:00:00	2024-11-08T18:00:00	7	Dirección del viento	9.66
153695	7	Sololá	719	Santiago Atitlán	14	Cerro de Oro	6	Junio	2023-08-06T00:00:00	2024-11-08T18:00:00	1	Precipitación	0
153696	7	Sololá	719	Santiago Atitlán	14	Cerro de Oro	6	Junio	2023-08-06T00:00:00	2024-11-08T18:00:00	8	Radiación solar	73
153697	7	Sololá	719	Santiago Atitlán	14	Cerro de Oro	6	Junio	2023-08-06T00:00:00	2024-11-08T19:00:00	2	Temperatura media	19.9
153698	7	Sololá	719	Santiago Atitlán	14	Cerro de Oro	6	Junio	2023-08-06T00:00:00	2024-11-08T19:00:00	4	Temperatura máxima	20.5
153699	7	Sololá	719	Santiago Atitlán	14	Cerro de Oro	6	Junio	2023-08-06T00:00:00	2024-11-08T19:00:00	3	Temperatura mínima	19.8
153700	7	Sololá	719	Santiago Atitlán	14	Cerro de Oro	6	Junio	2023-08-06T00:00:00	2024-11-08T19:00:00	5	Humedad	91
153701	7	Sololá	719	Santiago Atitlán	14	Cerro de Oro	6	Junio	2023-08-06T00:00:00	2024-11-08T19:00:00	6	Velocidad del viento	6.4
153702	7	Sololá	719	Santiago Atitlán	14	Cerro de Oro	6	Junio	2023-08-06T00:00:00	2024-11-08T19:00:00	7	Dirección del viento	6.44
153703	7	Sololá	719	Santiago Atitlán	14	Cerro de Oro	6	Junio	2023-08-06T00:00:00	2024-11-08T19:00:00	1	Precipitación	0
153704	7	Sololá	719	Santiago Atitlán	14	Cerro de Oro	6	Junio	2023-08-06T00:00:00	2024-11-08T19:00:00	8	Radiación solar	0
153705	7	Sololá	719	Santiago Atitlán	14	Cerro de Oro	6	Junio	2023-08-06T00:00:00	2024-11-08T20:00:00	2	Temperatura media	19.8
153706	7	Sololá	719	Santiago Atitlán	14	Cerro de Oro	6	Junio	2023-08-06T00:00:00	2024-11-08T20:00:00	4	Temperatura máxima	20
153707	7	Sololá	719	Santiago Atitlán	14	Cerro de Oro	6	Junio	2023-08-06T00:00:00	2024-11-08T20:00:00	3	Temperatura mínima	19.8
153708	7	Sololá	719	Santiago Atitlán	14	Cerro de Oro	6	Junio	2023-08-06T00:00:00	2024-11-08T20:00:00	5	Humedad	91
153709	7	Sololá	719	Santiago Atitlán	14	Cerro de Oro	6	Junio	2023-08-06T00:00:00	2024-11-08T20:00:00	6	Velocidad del viento	6.4
153710	7	Sololá	719	Santiago Atitlán	14	Cerro de Oro	6	Junio	2023-08-06T00:00:00	2024-11-08T20:00:00	7	Dirección del viento	6.44
153711	7	Sololá	719	Santiago Atitlán	14	Cerro de Oro	6	Junio	2023-08-06T00:00:00	2024-11-08T20:00:00	1	Precipitación	0
153712	7	Sololá	719	Santiago Atitlán	14	Cerro de Oro	6	Junio	2023-08-06T00:00:00	2024-11-08T20:00:00	8	Radiación solar	0
153713	7	Sololá	719	Santiago Atitlán	14	Cerro de Oro	6	Junio	2023-08-06T00:00:00	2024-11-08T21:00:00	2	Temperatura media	19.8
153714	7	Sololá	719	Santiago Atitlán	14	Cerro de Oro	6	Junio	2023-08-06T00:00:00	2024-11-08T21:00:00	4	Temperatura máxima	19.9
153715	7	Sololá	719	Santiago Atitlán	14	Cerro de Oro	6	Junio	2023-08-06T00:00:00	2024-11-08T21:00:00	3	Temperatura mínima	19.7
153716	7	Sololá	719	Santiago Atitlán	14	Cerro de Oro	6	Junio	2023-08-06T00:00:00	2024-11-08T21:00:00	5	Humedad	90
153717	7	Sololá	719	Santiago Atitlán	14	Cerro de Oro	6	Junio	2023-08-06T00:00:00	2024-11-08T21:00:00	6	Velocidad del viento	4.8
153718	7	Sololá	719	Santiago Atitlán	14	Cerro de Oro	6	Junio	2023-08-06T00:00:00	2024-11-08T21:00:00	7	Dirección del viento	4.83
153719	7	Sololá	719	Santiago Atitlán	14	Cerro de Oro	6	Junio	2023-08-06T00:00:00	2024-11-08T21:00:00	1	Precipitación	0
153720	7	Sololá	719	Santiago Atitlán	14	Cerro de Oro	6	Junio	2023-08-06T00:00:00	2024-11-08T21:00:00	8	Radiación solar	0
153721	7	Sololá	719	Santiago Atitlán	14	Cerro de Oro	6	Junio	2023-08-06T00:00:00	2024-11-08T22:00:00	2	Temperatura media	19.1
153722	7	Sololá	719	Santiago Atitlán	14	Cerro de Oro	6	Junio	2023-08-06T00:00:00	2024-11-08T22:00:00	4	Temperatura máxima	19.9
153723	7	Sololá	719	Santiago Atitlán	14	Cerro de Oro	6	Junio	2023-08-06T00:00:00	2024-11-08T22:00:00	3	Temperatura mínima	19.1
153724	7	Sololá	719	Santiago Atitlán	14	Cerro de Oro	6	Junio	2023-08-06T00:00:00	2024-11-08T22:00:00	5	Humedad	91
153725	7	Sololá	719	Santiago Atitlán	14	Cerro de Oro	6	Junio	2023-08-06T00:00:00	2024-11-08T22:00:00	6	Velocidad del viento	4.8
153726	7	Sololá	719	Santiago Atitlán	14	Cerro de Oro	6	Junio	2023-08-06T00:00:00	2024-11-08T22:00:00	7	Dirección del viento	4.83
153727	7	Sololá	719	Santiago Atitlán	14	Cerro de Oro	6	Junio	2023-08-06T00:00:00	2024-11-08T22:00:00	1	Precipitación	0
153728	7	Sololá	719	Santiago Atitlán	14	Cerro de Oro	6	Junio	2023-08-06T00:00:00	2024-11-08T22:00:00	8	Radiación solar	0
153729	7	Sololá	719	Santiago Atitlán	14	Cerro de Oro	6	Junio	2023-08-06T00:00:00	2024-11-08T23:00:00	2	Temperatura media	19.1
153730	7	Sololá	719	Santiago Atitlán	14	Cerro de Oro	6	Junio	2023-08-06T00:00:00	2024-11-08T23:00:00	4	Temperatura máxima	19.2
153731	7	Sololá	719	Santiago Atitlán	14	Cerro de Oro	6	Junio	2023-08-06T00:00:00	2024-11-08T23:00:00	3	Temperatura mínima	18.9
153732	7	Sololá	719	Santiago Atitlán	14	Cerro de Oro	6	Junio	2023-08-06T00:00:00	2024-11-08T23:00:00	5	Humedad	92
153733	7	Sololá	719	Santiago Atitlán	14	Cerro de Oro	6	Junio	2023-08-06T00:00:00	2024-11-08T23:00:00	6	Velocidad del viento	1.6
153734	7	Sololá	719	Santiago Atitlán	14	Cerro de Oro	6	Junio	2023-08-06T00:00:00	2024-11-08T23:00:00	7	Dirección del viento	1.61
153735	7	Sololá	719	Santiago Atitlán	14	Cerro de Oro	6	Junio	2023-08-06T00:00:00	2024-11-08T23:00:00	1	Precipitación	0
153736	7	Sololá	719	Santiago Atitlán	14	Cerro de Oro	6	Junio	2023-08-06T00:00:00	2024-11-08T23:00:00	8	Radiación solar	0
153737	7	Sololá	719	Santiago Atitlán	14	Cerro de Oro	6	Junio	2023-09-06T00:00:00	2024-11-08T00:00:00	2	Temperatura media	19.3
153738	7	Sololá	719	Santiago Atitlán	14	Cerro de Oro	6	Junio	2023-09-06T00:00:00	2024-11-08T00:00:00	4	Temperatura máxima	19.5
153739	7	Sololá	719	Santiago Atitlán	14	Cerro de Oro	6	Junio	2023-09-06T00:00:00	2024-11-08T00:00:00	3	Temperatura mínima	19
153740	7	Sololá	719	Santiago Atitlán	14	Cerro de Oro	6	Junio	2023-09-06T00:00:00	2024-11-08T00:00:00	5	Humedad	90
153741	7	Sololá	719	Santiago Atitlán	14	Cerro de Oro	6	Junio	2023-09-06T00:00:00	2024-11-08T00:00:00	6	Velocidad del viento	3.2
153742	7	Sololá	719	Santiago Atitlán	14	Cerro de Oro	6	Junio	2023-09-06T00:00:00	2024-11-08T00:00:00	7	Dirección del viento	3.22
153743	7	Sololá	719	Santiago Atitlán	14	Cerro de Oro	6	Junio	2023-09-06T00:00:00	2024-11-08T00:00:00	1	Precipitación	0
153744	7	Sololá	719	Santiago Atitlán	14	Cerro de Oro	6	Junio	2023-09-06T00:00:00	2024-11-08T00:00:00	8	Radiación solar	0
153745	7	Sololá	719	Santiago Atitlán	14	Cerro de Oro	6	Junio	2023-09-06T00:00:00	2024-11-08T01:00:00	2	Temperatura media	18.9
153746	7	Sololá	719	Santiago Atitlán	14	Cerro de Oro	6	Junio	2023-09-06T00:00:00	2024-11-08T01:00:00	4	Temperatura máxima	19.3
153747	7	Sololá	719	Santiago Atitlán	14	Cerro de Oro	6	Junio	2023-09-06T00:00:00	2024-11-08T01:00:00	3	Temperatura mínima	18.8
153748	7	Sololá	719	Santiago Atitlán	14	Cerro de Oro	6	Junio	2023-09-06T00:00:00	2024-11-08T01:00:00	5	Humedad	91
153749	7	Sololá	719	Santiago Atitlán	14	Cerro de Oro	6	Junio	2023-09-06T00:00:00	2024-11-08T01:00:00	6	Velocidad del viento	4.8
153750	7	Sololá	719	Santiago Atitlán	14	Cerro de Oro	6	Junio	2023-09-06T00:00:00	2024-11-08T01:00:00	7	Dirección del viento	4.83
153751	7	Sololá	719	Santiago Atitlán	14	Cerro de Oro	6	Junio	2023-09-06T00:00:00	2024-11-08T01:00:00	1	Precipitación	0
153752	7	Sololá	719	Santiago Atitlán	14	Cerro de Oro	6	Junio	2023-09-06T00:00:00	2024-11-08T01:00:00	8	Radiación solar	0
153753	7	Sololá	719	Santiago Atitlán	14	Cerro de Oro	6	Junio	2023-09-06T00:00:00	2024-11-08T02:00:00	2	Temperatura media	18.9
153754	7	Sololá	719	Santiago Atitlán	14	Cerro de Oro	6	Junio	2023-09-06T00:00:00	2024-11-08T02:00:00	4	Temperatura máxima	19.3
153755	7	Sololá	719	Santiago Atitlán	14	Cerro de Oro	6	Junio	2023-09-06T00:00:00	2024-11-08T02:00:00	3	Temperatura mínima	18.7
153756	7	Sololá	719	Santiago Atitlán	14	Cerro de Oro	6	Junio	2023-09-06T00:00:00	2024-11-08T02:00:00	5	Humedad	90
153757	7	Sololá	719	Santiago Atitlán	14	Cerro de Oro	6	Junio	2023-09-06T00:00:00	2024-11-08T02:00:00	6	Velocidad del viento	3.2
153758	7	Sololá	719	Santiago Atitlán	14	Cerro de Oro	6	Junio	2023-09-06T00:00:00	2024-11-08T02:00:00	7	Dirección del viento	3.22
153759	7	Sololá	719	Santiago Atitlán	14	Cerro de Oro	6	Junio	2023-09-06T00:00:00	2024-11-08T02:00:00	1	Precipitación	0
153760	7	Sololá	719	Santiago Atitlán	14	Cerro de Oro	6	Junio	2023-09-06T00:00:00	2024-11-08T02:00:00	8	Radiación solar	0
153761	7	Sololá	719	Santiago Atitlán	14	Cerro de Oro	6	Junio	2023-09-06T00:00:00	2024-11-08T03:00:00	2	Temperatura media	18.8
153762	7	Sololá	719	Santiago Atitlán	14	Cerro de Oro	6	Junio	2023-09-06T00:00:00	2024-11-08T03:00:00	4	Temperatura máxima	19.1
153763	7	Sololá	719	Santiago Atitlán	14	Cerro de Oro	6	Junio	2023-09-06T00:00:00	2024-11-08T03:00:00	3	Temperatura mínima	18.6
153764	7	Sololá	719	Santiago Atitlán	14	Cerro de Oro	6	Junio	2023-09-06T00:00:00	2024-11-08T03:00:00	5	Humedad	91
153765	7	Sololá	719	Santiago Atitlán	14	Cerro de Oro	6	Junio	2023-09-06T00:00:00	2024-11-08T03:00:00	6	Velocidad del viento	4.8
153766	7	Sololá	719	Santiago Atitlán	14	Cerro de Oro	6	Junio	2023-09-06T00:00:00	2024-11-08T03:00:00	7	Dirección del viento	4.83
153767	7	Sololá	719	Santiago Atitlán	14	Cerro de Oro	6	Junio	2023-09-06T00:00:00	2024-11-08T03:00:00	1	Precipitación	0
153768	7	Sololá	719	Santiago Atitlán	14	Cerro de Oro	6	Junio	2023-09-06T00:00:00	2024-11-08T03:00:00	8	Radiación solar	0
153769	7	Sololá	719	Santiago Atitlán	14	Cerro de Oro	6	Junio	2023-09-06T00:00:00	2024-11-08T04:00:00	2	Temperatura media	18.4
153770	7	Sololá	719	Santiago Atitlán	14	Cerro de Oro	6	Junio	2023-09-06T00:00:00	2024-11-08T04:00:00	4	Temperatura máxima	18.9
153771	7	Sololá	719	Santiago Atitlán	14	Cerro de Oro	6	Junio	2023-09-06T00:00:00	2024-11-08T04:00:00	3	Temperatura mínima	18.3
153772	7	Sololá	719	Santiago Atitlán	14	Cerro de Oro	6	Junio	2023-09-06T00:00:00	2024-11-08T04:00:00	5	Humedad	92
153773	7	Sololá	719	Santiago Atitlán	14	Cerro de Oro	6	Junio	2023-09-06T00:00:00	2024-11-08T04:00:00	6	Velocidad del viento	3.2
153774	7	Sololá	719	Santiago Atitlán	14	Cerro de Oro	6	Junio	2023-09-06T00:00:00	2024-11-08T04:00:00	7	Dirección del viento	3.22
153775	7	Sololá	719	Santiago Atitlán	14	Cerro de Oro	6	Junio	2023-09-06T00:00:00	2024-11-08T04:00:00	1	Precipitación	0
153776	7	Sololá	719	Santiago Atitlán	14	Cerro de Oro	6	Junio	2023-09-06T00:00:00	2024-11-08T04:00:00	8	Radiación solar	0
153777	7	Sololá	719	Santiago Atitlán	14	Cerro de Oro	6	Junio	2023-09-06T00:00:00	2024-11-08T05:00:00	2	Temperatura media	18.2
153778	7	Sololá	719	Santiago Atitlán	14	Cerro de Oro	6	Junio	2023-09-06T00:00:00	2024-11-08T05:00:00	4	Temperatura máxima	18.6
153779	7	Sololá	719	Santiago Atitlán	14	Cerro de Oro	6	Junio	2023-09-06T00:00:00	2024-11-08T05:00:00	3	Temperatura mínima	18.1
153780	7	Sololá	719	Santiago Atitlán	14	Cerro de Oro	6	Junio	2023-09-06T00:00:00	2024-11-08T05:00:00	5	Humedad	91
153781	7	Sololá	719	Santiago Atitlán	14	Cerro de Oro	6	Junio	2023-09-06T00:00:00	2024-11-08T05:00:00	6	Velocidad del viento	4.8
153782	7	Sololá	719	Santiago Atitlán	14	Cerro de Oro	6	Junio	2023-09-06T00:00:00	2024-11-08T05:00:00	7	Dirección del viento	4.83
153783	7	Sololá	719	Santiago Atitlán	14	Cerro de Oro	6	Junio	2023-09-06T00:00:00	2024-11-08T05:00:00	1	Precipitación	0
153784	7	Sololá	719	Santiago Atitlán	14	Cerro de Oro	6	Junio	2023-09-06T00:00:00	2024-11-08T05:00:00	8	Radiación solar	0
153785	7	Sololá	719	Santiago Atitlán	14	Cerro de Oro	6	Junio	2023-09-06T00:00:00	2024-11-08T06:00:00	2	Temperatura media	18.4
153786	7	Sololá	719	Santiago Atitlán	14	Cerro de Oro	6	Junio	2023-09-06T00:00:00	2024-11-08T06:00:00	4	Temperatura máxima	18.5
153787	7	Sololá	719	Santiago Atitlán	14	Cerro de Oro	6	Junio	2023-09-06T00:00:00	2024-11-08T06:00:00	3	Temperatura mínima	18.1
153788	7	Sololá	719	Santiago Atitlán	14	Cerro de Oro	6	Junio	2023-09-06T00:00:00	2024-11-08T06:00:00	5	Humedad	91
153789	7	Sololá	719	Santiago Atitlán	14	Cerro de Oro	6	Junio	2023-09-06T00:00:00	2024-11-08T06:00:00	6	Velocidad del viento	4.8
153790	7	Sololá	719	Santiago Atitlán	14	Cerro de Oro	6	Junio	2023-09-06T00:00:00	2024-11-08T06:00:00	7	Dirección del viento	4.83
153791	7	Sololá	719	Santiago Atitlán	14	Cerro de Oro	6	Junio	2023-09-06T00:00:00	2024-11-08T06:00:00	1	Precipitación	0
153792	7	Sololá	719	Santiago Atitlán	14	Cerro de Oro	6	Junio	2023-09-06T00:00:00	2024-11-08T06:00:00	8	Radiación solar	7
153793	7	Sololá	719	Santiago Atitlán	14	Cerro de Oro	6	Junio	2023-09-06T00:00:00	2024-11-08T07:00:00	2	Temperatura media	20.4
153794	7	Sololá	719	Santiago Atitlán	14	Cerro de Oro	6	Junio	2023-09-06T00:00:00	2024-11-08T07:00:00	4	Temperatura máxima	20.4
153795	7	Sololá	719	Santiago Atitlán	14	Cerro de Oro	6	Junio	2023-09-06T00:00:00	2024-11-08T07:00:00	3	Temperatura mínima	18.4
153796	7	Sololá	719	Santiago Atitlán	14	Cerro de Oro	6	Junio	2023-09-06T00:00:00	2024-11-08T07:00:00	5	Humedad	81
153797	7	Sololá	719	Santiago Atitlán	14	Cerro de Oro	6	Junio	2023-09-06T00:00:00	2024-11-08T07:00:00	6	Velocidad del viento	1.6
153798	7	Sololá	719	Santiago Atitlán	14	Cerro de Oro	6	Junio	2023-09-06T00:00:00	2024-11-08T07:00:00	7	Dirección del viento	1.61
153799	7	Sololá	719	Santiago Atitlán	14	Cerro de Oro	6	Junio	2023-09-06T00:00:00	2024-11-08T07:00:00	1	Precipitación	0
153800	7	Sololá	719	Santiago Atitlán	14	Cerro de Oro	6	Junio	2023-09-06T00:00:00	2024-11-08T07:00:00	8	Radiación solar	96
153801	7	Sololá	719	Santiago Atitlán	14	Cerro de Oro	6	Junio	2023-09-06T00:00:00	2024-11-08T08:00:00	2	Temperatura media	21.8
153802	7	Sololá	719	Santiago Atitlán	14	Cerro de Oro	6	Junio	2023-09-06T00:00:00	2024-11-08T08:00:00	4	Temperatura máxima	22.1
153803	7	Sololá	719	Santiago Atitlán	14	Cerro de Oro	6	Junio	2023-09-06T00:00:00	2024-11-08T08:00:00	3	Temperatura mínima	20.4
153804	7	Sololá	719	Santiago Atitlán	14	Cerro de Oro	6	Junio	2023-09-06T00:00:00	2024-11-08T08:00:00	5	Humedad	75
153805	7	Sololá	719	Santiago Atitlán	14	Cerro de Oro	6	Junio	2023-09-06T00:00:00	2024-11-08T08:00:00	6	Velocidad del viento	1.6
153806	7	Sololá	719	Santiago Atitlán	14	Cerro de Oro	6	Junio	2023-09-06T00:00:00	2024-11-08T08:00:00	7	Dirección del viento	1.61
153807	7	Sololá	719	Santiago Atitlán	14	Cerro de Oro	6	Junio	2023-09-06T00:00:00	2024-11-08T08:00:00	1	Precipitación	0
153808	7	Sololá	719	Santiago Atitlán	14	Cerro de Oro	6	Junio	2023-09-06T00:00:00	2024-11-08T08:00:00	8	Radiación solar	290
153809	7	Sololá	719	Santiago Atitlán	14	Cerro de Oro	6	Junio	2023-09-06T00:00:00	2024-11-08T09:00:00	2	Temperatura media	22.4
153810	7	Sololá	719	Santiago Atitlán	14	Cerro de Oro	6	Junio	2023-09-06T00:00:00	2024-11-08T09:00:00	4	Temperatura máxima	22.4
153811	7	Sololá	719	Santiago Atitlán	14	Cerro de Oro	6	Junio	2023-09-06T00:00:00	2024-11-08T09:00:00	3	Temperatura mínima	21.7
153812	7	Sololá	719	Santiago Atitlán	14	Cerro de Oro	6	Junio	2023-09-06T00:00:00	2024-11-08T09:00:00	5	Humedad	79
153813	7	Sololá	719	Santiago Atitlán	14	Cerro de Oro	6	Junio	2023-09-06T00:00:00	2024-11-08T09:00:00	6	Velocidad del viento	3.2
153814	7	Sololá	719	Santiago Atitlán	14	Cerro de Oro	6	Junio	2023-09-06T00:00:00	2024-11-08T09:00:00	7	Dirección del viento	3.22
153815	7	Sololá	719	Santiago Atitlán	14	Cerro de Oro	6	Junio	2023-09-06T00:00:00	2024-11-08T09:00:00	1	Precipitación	0
153816	7	Sololá	719	Santiago Atitlán	14	Cerro de Oro	6	Junio	2023-09-06T00:00:00	2024-11-08T09:00:00	8	Radiación solar	490
153817	7	Sololá	719	Santiago Atitlán	14	Cerro de Oro	6	Junio	2023-09-06T00:00:00	2024-11-08T10:00:00	2	Temperatura media	23.9
153818	7	Sololá	719	Santiago Atitlán	14	Cerro de Oro	6	Junio	2023-09-06T00:00:00	2024-11-08T10:00:00	4	Temperatura máxima	23.9
153819	7	Sololá	719	Santiago Atitlán	14	Cerro de Oro	6	Junio	2023-09-06T00:00:00	2024-11-08T10:00:00	3	Temperatura mínima	22.4
153820	7	Sololá	719	Santiago Atitlán	14	Cerro de Oro	6	Junio	2023-09-06T00:00:00	2024-11-08T10:00:00	5	Humedad	77
153821	7	Sololá	719	Santiago Atitlán	14	Cerro de Oro	6	Junio	2023-09-06T00:00:00	2024-11-08T10:00:00	6	Velocidad del viento	6.4
153822	7	Sololá	719	Santiago Atitlán	14	Cerro de Oro	6	Junio	2023-09-06T00:00:00	2024-11-08T10:00:00	7	Dirección del viento	6.44
153823	7	Sololá	719	Santiago Atitlán	14	Cerro de Oro	6	Junio	2023-09-06T00:00:00	2024-11-08T10:00:00	1	Precipitación	0
153824	7	Sololá	719	Santiago Atitlán	14	Cerro de Oro	6	Junio	2023-09-06T00:00:00	2024-11-08T10:00:00	8	Radiación solar	686
153825	7	Sololá	719	Santiago Atitlán	14	Cerro de Oro	6	Junio	2023-09-06T00:00:00	2024-11-08T11:00:00	2	Temperatura media	23.8
153826	7	Sololá	719	Santiago Atitlán	14	Cerro de Oro	6	Junio	2023-09-06T00:00:00	2024-11-08T11:00:00	4	Temperatura máxima	24.2
153827	7	Sololá	719	Santiago Atitlán	14	Cerro de Oro	6	Junio	2023-09-06T00:00:00	2024-11-08T11:00:00	3	Temperatura mínima	23.7
153828	7	Sololá	719	Santiago Atitlán	14	Cerro de Oro	6	Junio	2023-09-06T00:00:00	2024-11-08T11:00:00	5	Humedad	77
153829	7	Sololá	719	Santiago Atitlán	14	Cerro de Oro	6	Junio	2023-09-06T00:00:00	2024-11-08T11:00:00	6	Velocidad del viento	9.7
153830	7	Sololá	719	Santiago Atitlán	14	Cerro de Oro	6	Junio	2023-09-06T00:00:00	2024-11-08T11:00:00	7	Dirección del viento	9.66
153831	7	Sololá	719	Santiago Atitlán	14	Cerro de Oro	6	Junio	2023-09-06T00:00:00	2024-11-08T11:00:00	1	Precipitación	0
153832	7	Sololá	719	Santiago Atitlán	14	Cerro de Oro	6	Junio	2023-09-06T00:00:00	2024-11-08T11:00:00	8	Radiación solar	839
153833	7	Sololá	719	Santiago Atitlán	14	Cerro de Oro	6	Junio	2023-09-06T00:00:00	2024-11-08T12:00:00	2	Temperatura media	23.4
153834	7	Sololá	719	Santiago Atitlán	14	Cerro de Oro	6	Junio	2023-09-06T00:00:00	2024-11-08T12:00:00	4	Temperatura máxima	23.9
153835	7	Sololá	719	Santiago Atitlán	14	Cerro de Oro	6	Junio	2023-09-06T00:00:00	2024-11-08T12:00:00	3	Temperatura mínima	23.3
153836	7	Sololá	719	Santiago Atitlán	14	Cerro de Oro	6	Junio	2023-09-06T00:00:00	2024-11-08T12:00:00	5	Humedad	78
153837	7	Sololá	719	Santiago Atitlán	14	Cerro de Oro	6	Junio	2023-09-06T00:00:00	2024-11-08T12:00:00	6	Velocidad del viento	11.3
153838	7	Sololá	719	Santiago Atitlán	14	Cerro de Oro	6	Junio	2023-09-06T00:00:00	2024-11-08T12:00:00	7	Dirección del viento	11.27
153839	7	Sololá	719	Santiago Atitlán	14	Cerro de Oro	6	Junio	2023-09-06T00:00:00	2024-11-08T12:00:00	1	Precipitación	0
153840	7	Sololá	719	Santiago Atitlán	14	Cerro de Oro	6	Junio	2023-09-06T00:00:00	2024-11-08T12:00:00	8	Radiación solar	654
153841	7	Sololá	719	Santiago Atitlán	14	Cerro de Oro	6	Junio	2023-09-06T00:00:00	2024-11-08T13:00:00	2	Temperatura media	24.4
153842	7	Sololá	719	Santiago Atitlán	14	Cerro de Oro	6	Junio	2023-09-06T00:00:00	2024-11-08T13:00:00	4	Temperatura máxima	24.4
153843	7	Sololá	719	Santiago Atitlán	14	Cerro de Oro	6	Junio	2023-09-06T00:00:00	2024-11-08T13:00:00	3	Temperatura mínima	23.4
153844	7	Sololá	719	Santiago Atitlán	14	Cerro de Oro	6	Junio	2023-09-06T00:00:00	2024-11-08T13:00:00	5	Humedad	76
153845	7	Sololá	719	Santiago Atitlán	14	Cerro de Oro	6	Junio	2023-09-06T00:00:00	2024-11-08T13:00:00	6	Velocidad del viento	11.3
153846	7	Sololá	719	Santiago Atitlán	14	Cerro de Oro	6	Junio	2023-09-06T00:00:00	2024-11-08T13:00:00	7	Dirección del viento	11.27
153847	7	Sololá	719	Santiago Atitlán	14	Cerro de Oro	6	Junio	2023-09-06T00:00:00	2024-11-08T13:00:00	1	Precipitación	0
153848	7	Sololá	719	Santiago Atitlán	14	Cerro de Oro	6	Junio	2023-09-06T00:00:00	2024-11-08T13:00:00	8	Radiación solar	667
153849	7	Sololá	719	Santiago Atitlán	14	Cerro de Oro	6	Junio	2023-09-06T00:00:00	2024-11-08T14:00:00	2	Temperatura media	24.4
153850	7	Sololá	719	Santiago Atitlán	14	Cerro de Oro	6	Junio	2023-09-06T00:00:00	2024-11-08T14:00:00	4	Temperatura máxima	24.7
153851	7	Sololá	719	Santiago Atitlán	14	Cerro de Oro	6	Junio	2023-09-06T00:00:00	2024-11-08T14:00:00	3	Temperatura mínima	24
153852	7	Sololá	719	Santiago Atitlán	14	Cerro de Oro	6	Junio	2023-09-06T00:00:00	2024-11-08T14:00:00	5	Humedad	77
153853	7	Sololá	719	Santiago Atitlán	14	Cerro de Oro	6	Junio	2023-09-06T00:00:00	2024-11-08T14:00:00	6	Velocidad del viento	9.7
153854	7	Sololá	719	Santiago Atitlán	14	Cerro de Oro	6	Junio	2023-09-06T00:00:00	2024-11-08T14:00:00	7	Dirección del viento	9.66
153855	7	Sololá	719	Santiago Atitlán	14	Cerro de Oro	6	Junio	2023-09-06T00:00:00	2024-11-08T14:00:00	1	Precipitación	0
153856	7	Sololá	719	Santiago Atitlán	14	Cerro de Oro	6	Junio	2023-09-06T00:00:00	2024-11-08T14:00:00	8	Radiación solar	693
153857	7	Sololá	719	Santiago Atitlán	14	Cerro de Oro	6	Junio	2023-09-06T00:00:00	2024-11-08T15:00:00	2	Temperatura media	23.7
153858	7	Sololá	719	Santiago Atitlán	14	Cerro de Oro	6	Junio	2023-09-06T00:00:00	2024-11-08T15:00:00	4	Temperatura máxima	24.4
153859	7	Sololá	719	Santiago Atitlán	14	Cerro de Oro	6	Junio	2023-09-06T00:00:00	2024-11-08T15:00:00	3	Temperatura mínima	23.1
153860	7	Sololá	719	Santiago Atitlán	14	Cerro de Oro	6	Junio	2023-09-06T00:00:00	2024-11-08T15:00:00	5	Humedad	80
153861	7	Sololá	719	Santiago Atitlán	14	Cerro de Oro	6	Junio	2023-09-06T00:00:00	2024-11-08T15:00:00	6	Velocidad del viento	9.7
153862	7	Sololá	719	Santiago Atitlán	14	Cerro de Oro	6	Junio	2023-09-06T00:00:00	2024-11-08T15:00:00	7	Dirección del viento	9.66
153863	7	Sololá	719	Santiago Atitlán	14	Cerro de Oro	6	Junio	2023-09-06T00:00:00	2024-11-08T15:00:00	1	Precipitación	0
153864	7	Sololá	719	Santiago Atitlán	14	Cerro de Oro	6	Junio	2023-09-06T00:00:00	2024-11-08T15:00:00	8	Radiación solar	340
153865	7	Sololá	719	Santiago Atitlán	14	Cerro de Oro	6	Junio	2023-09-06T00:00:00	2024-11-08T16:00:00	2	Temperatura media	23.3
153866	7	Sololá	719	Santiago Atitlán	14	Cerro de Oro	6	Junio	2023-09-06T00:00:00	2024-11-08T16:00:00	4	Temperatura máxima	24.1
153867	7	Sololá	719	Santiago Atitlán	14	Cerro de Oro	6	Junio	2023-09-06T00:00:00	2024-11-08T16:00:00	3	Temperatura mínima	23.1
153868	7	Sololá	719	Santiago Atitlán	14	Cerro de Oro	6	Junio	2023-09-06T00:00:00	2024-11-08T16:00:00	5	Humedad	79
153869	7	Sololá	719	Santiago Atitlán	14	Cerro de Oro	6	Junio	2023-09-06T00:00:00	2024-11-08T16:00:00	6	Velocidad del viento	8
153870	7	Sololá	719	Santiago Atitlán	14	Cerro de Oro	6	Junio	2023-09-06T00:00:00	2024-11-08T16:00:00	7	Dirección del viento	8.05
153871	7	Sololá	719	Santiago Atitlán	14	Cerro de Oro	6	Junio	2023-09-06T00:00:00	2024-11-08T16:00:00	1	Precipitación	0
153872	7	Sololá	719	Santiago Atitlán	14	Cerro de Oro	6	Junio	2023-09-06T00:00:00	2024-11-08T16:00:00	8	Radiación solar	274
153873	7	Sololá	719	Santiago Atitlán	14	Cerro de Oro	6	Junio	2023-09-06T00:00:00	2024-11-08T17:00:00	2	Temperatura media	22.4
153874	7	Sololá	719	Santiago Atitlán	14	Cerro de Oro	6	Junio	2023-09-06T00:00:00	2024-11-08T17:00:00	4	Temperatura máxima	23.9
153875	7	Sololá	719	Santiago Atitlán	14	Cerro de Oro	6	Junio	2023-09-06T00:00:00	2024-11-08T17:00:00	3	Temperatura mínima	22.4
153876	7	Sololá	719	Santiago Atitlán	14	Cerro de Oro	6	Junio	2023-09-06T00:00:00	2024-11-08T17:00:00	5	Humedad	83
153877	7	Sololá	719	Santiago Atitlán	14	Cerro de Oro	6	Junio	2023-09-06T00:00:00	2024-11-08T17:00:00	6	Velocidad del viento	6.4
153878	7	Sololá	719	Santiago Atitlán	14	Cerro de Oro	6	Junio	2023-09-06T00:00:00	2024-11-08T17:00:00	7	Dirección del viento	6.44
153879	7	Sololá	719	Santiago Atitlán	14	Cerro de Oro	6	Junio	2023-09-06T00:00:00	2024-11-08T17:00:00	1	Precipitación	0
153880	7	Sololá	719	Santiago Atitlán	14	Cerro de Oro	6	Junio	2023-09-06T00:00:00	2024-11-08T17:00:00	8	Radiación solar	236
153881	7	Sololá	719	Santiago Atitlán	14	Cerro de Oro	6	Junio	2023-09-06T00:00:00	2024-11-08T18:00:00	2	Temperatura media	21.4
153882	7	Sololá	719	Santiago Atitlán	14	Cerro de Oro	6	Junio	2023-09-06T00:00:00	2024-11-08T18:00:00	4	Temperatura máxima	22.4
153883	7	Sololá	719	Santiago Atitlán	14	Cerro de Oro	6	Junio	2023-09-06T00:00:00	2024-11-08T18:00:00	3	Temperatura mínima	21.4
153884	7	Sololá	719	Santiago Atitlán	14	Cerro de Oro	6	Junio	2023-09-06T00:00:00	2024-11-08T18:00:00	5	Humedad	85
153885	7	Sololá	719	Santiago Atitlán	14	Cerro de Oro	6	Junio	2023-09-06T00:00:00	2024-11-08T18:00:00	6	Velocidad del viento	6.4
153886	7	Sololá	719	Santiago Atitlán	14	Cerro de Oro	6	Junio	2023-09-06T00:00:00	2024-11-08T18:00:00	7	Dirección del viento	6.44
153887	7	Sololá	719	Santiago Atitlán	14	Cerro de Oro	6	Junio	2023-09-06T00:00:00	2024-11-08T18:00:00	1	Precipitación	0
153888	7	Sololá	719	Santiago Atitlán	14	Cerro de Oro	6	Junio	2023-09-06T00:00:00	2024-11-08T18:00:00	8	Radiación solar	40
153889	7	Sololá	719	Santiago Atitlán	14	Cerro de Oro	6	Junio	2023-09-06T00:00:00	2024-11-08T19:00:00	2	Temperatura media	21.1
153890	7	Sololá	719	Santiago Atitlán	14	Cerro de Oro	6	Junio	2023-09-06T00:00:00	2024-11-08T19:00:00	4	Temperatura máxima	21.4
153891	7	Sololá	719	Santiago Atitlán	14	Cerro de Oro	6	Junio	2023-09-06T00:00:00	2024-11-08T19:00:00	3	Temperatura mínima	21.1
153892	7	Sololá	719	Santiago Atitlán	14	Cerro de Oro	6	Junio	2023-09-06T00:00:00	2024-11-08T19:00:00	5	Humedad	87
153893	7	Sololá	719	Santiago Atitlán	14	Cerro de Oro	6	Junio	2023-09-06T00:00:00	2024-11-08T19:00:00	6	Velocidad del viento	4.8
153894	7	Sololá	719	Santiago Atitlán	14	Cerro de Oro	6	Junio	2023-09-06T00:00:00	2024-11-08T19:00:00	7	Dirección del viento	4.83
153895	7	Sololá	719	Santiago Atitlán	14	Cerro de Oro	6	Junio	2023-09-06T00:00:00	2024-11-08T19:00:00	1	Precipitación	0
153896	7	Sololá	719	Santiago Atitlán	14	Cerro de Oro	6	Junio	2023-09-06T00:00:00	2024-11-08T19:00:00	8	Radiación solar	0
153897	7	Sololá	719	Santiago Atitlán	14	Cerro de Oro	6	Junio	2023-09-06T00:00:00	2024-11-08T20:00:00	2	Temperatura media	19.5
153898	7	Sololá	719	Santiago Atitlán	14	Cerro de Oro	6	Junio	2023-09-06T00:00:00	2024-11-08T20:00:00	4	Temperatura máxima	21.1
153899	7	Sololá	719	Santiago Atitlán	14	Cerro de Oro	6	Junio	2023-09-06T00:00:00	2024-11-08T20:00:00	3	Temperatura mínima	19.5
153900	7	Sololá	719	Santiago Atitlán	14	Cerro de Oro	6	Junio	2023-09-06T00:00:00	2024-11-08T20:00:00	5	Humedad	91
153901	7	Sololá	719	Santiago Atitlán	14	Cerro de Oro	6	Junio	2023-09-06T00:00:00	2024-11-08T20:00:00	6	Velocidad del viento	8
153902	7	Sololá	719	Santiago Atitlán	14	Cerro de Oro	6	Junio	2023-09-06T00:00:00	2024-11-08T20:00:00	7	Dirección del viento	8.05
153903	7	Sololá	719	Santiago Atitlán	14	Cerro de Oro	6	Junio	2023-09-06T00:00:00	2024-11-08T20:00:00	1	Precipitación	0
153904	7	Sololá	719	Santiago Atitlán	14	Cerro de Oro	6	Junio	2023-09-06T00:00:00	2024-11-08T20:00:00	8	Radiación solar	0
153905	7	Sololá	719	Santiago Atitlán	14	Cerro de Oro	6	Junio	2023-09-06T00:00:00	2024-11-08T21:00:00	2	Temperatura media	19.9
153906	7	Sololá	719	Santiago Atitlán	14	Cerro de Oro	6	Junio	2023-09-06T00:00:00	2024-11-08T21:00:00	4	Temperatura máxima	19.9
153907	7	Sololá	719	Santiago Atitlán	14	Cerro de Oro	6	Junio	2023-09-06T00:00:00	2024-11-08T21:00:00	3	Temperatura mínima	19
153908	7	Sololá	719	Santiago Atitlán	14	Cerro de Oro	6	Junio	2023-09-06T00:00:00	2024-11-08T21:00:00	5	Humedad	89
153909	7	Sololá	719	Santiago Atitlán	14	Cerro de Oro	6	Junio	2023-09-06T00:00:00	2024-11-08T21:00:00	6	Velocidad del viento	9.7
153910	7	Sololá	719	Santiago Atitlán	14	Cerro de Oro	6	Junio	2023-09-06T00:00:00	2024-11-08T21:00:00	7	Dirección del viento	9.66
153911	7	Sololá	719	Santiago Atitlán	14	Cerro de Oro	6	Junio	2023-09-06T00:00:00	2024-11-08T21:00:00	1	Precipitación	0
153912	7	Sololá	719	Santiago Atitlán	14	Cerro de Oro	6	Junio	2023-09-06T00:00:00	2024-11-08T21:00:00	8	Radiación solar	0
153913	7	Sololá	719	Santiago Atitlán	14	Cerro de Oro	6	Junio	2023-09-06T00:00:00	2024-11-08T22:00:00	2	Temperatura media	19.8
153914	7	Sololá	719	Santiago Atitlán	14	Cerro de Oro	6	Junio	2023-09-06T00:00:00	2024-11-08T22:00:00	4	Temperatura máxima	19.9
153915	7	Sololá	719	Santiago Atitlán	14	Cerro de Oro	6	Junio	2023-09-06T00:00:00	2024-11-08T22:00:00	3	Temperatura mínima	19.6
153916	7	Sololá	719	Santiago Atitlán	14	Cerro de Oro	6	Junio	2023-09-06T00:00:00	2024-11-08T22:00:00	5	Humedad	90
153917	7	Sololá	719	Santiago Atitlán	14	Cerro de Oro	6	Junio	2023-09-06T00:00:00	2024-11-08T22:00:00	6	Velocidad del viento	4.8
153918	7	Sololá	719	Santiago Atitlán	14	Cerro de Oro	6	Junio	2023-09-06T00:00:00	2024-11-08T22:00:00	7	Dirección del viento	4.83
153919	7	Sololá	719	Santiago Atitlán	14	Cerro de Oro	6	Junio	2023-09-06T00:00:00	2024-11-08T22:00:00	1	Precipitación	0
153920	7	Sololá	719	Santiago Atitlán	14	Cerro de Oro	6	Junio	2023-09-06T00:00:00	2024-11-08T22:00:00	8	Radiación solar	0
153921	7	Sololá	719	Santiago Atitlán	14	Cerro de Oro	6	Junio	2023-09-06T00:00:00	2024-11-08T23:00:00	2	Temperatura media	19.7
153922	7	Sololá	719	Santiago Atitlán	14	Cerro de Oro	6	Junio	2023-09-06T00:00:00	2024-11-08T23:00:00	4	Temperatura máxima	19.9
153923	7	Sololá	719	Santiago Atitlán	14	Cerro de Oro	6	Junio	2023-09-06T00:00:00	2024-11-08T23:00:00	3	Temperatura mínima	19.4
153924	7	Sololá	719	Santiago Atitlán	14	Cerro de Oro	6	Junio	2023-09-06T00:00:00	2024-11-08T23:00:00	5	Humedad	91
153925	7	Sololá	719	Santiago Atitlán	14	Cerro de Oro	6	Junio	2023-09-06T00:00:00	2024-11-08T23:00:00	6	Velocidad del viento	3.2
153926	7	Sololá	719	Santiago Atitlán	14	Cerro de Oro	6	Junio	2023-09-06T00:00:00	2024-11-08T23:00:00	7	Dirección del viento	3.22
153927	7	Sololá	719	Santiago Atitlán	14	Cerro de Oro	6	Junio	2023-09-06T00:00:00	2024-11-08T23:00:00	1	Precipitación	0
153928	7	Sololá	719	Santiago Atitlán	14	Cerro de Oro	6	Junio	2023-09-06T00:00:00	2024-11-08T23:00:00	8	Radiación solar	0
153929	7	Sololá	719	Santiago Atitlán	14	Cerro de Oro	6	Junio	2023-10-06T00:00:00	2024-11-08T00:00:00	2	Temperatura media	19.6
153930	7	Sololá	719	Santiago Atitlán	14	Cerro de Oro	6	Junio	2023-10-06T00:00:00	2024-11-08T00:00:00	4	Temperatura máxima	19.7
153931	7	Sololá	719	Santiago Atitlán	14	Cerro de Oro	6	Junio	2023-10-06T00:00:00	2024-11-08T00:00:00	3	Temperatura mínima	19.4
153932	7	Sololá	719	Santiago Atitlán	14	Cerro de Oro	6	Junio	2023-10-06T00:00:00	2024-11-08T00:00:00	5	Humedad	90
153933	7	Sololá	719	Santiago Atitlán	14	Cerro de Oro	6	Junio	2023-10-06T00:00:00	2024-11-08T00:00:00	6	Velocidad del viento	3.2
153934	7	Sololá	719	Santiago Atitlán	14	Cerro de Oro	6	Junio	2023-10-06T00:00:00	2024-11-08T00:00:00	7	Dirección del viento	3.22
153935	7	Sololá	719	Santiago Atitlán	14	Cerro de Oro	6	Junio	2023-10-06T00:00:00	2024-11-08T00:00:00	1	Precipitación	0
153936	7	Sololá	719	Santiago Atitlán	14	Cerro de Oro	6	Junio	2023-10-06T00:00:00	2024-11-08T00:00:00	8	Radiación solar	0
153937	7	Sololá	719	Santiago Atitlán	14	Cerro de Oro	6	Junio	2023-10-06T00:00:00	2024-11-08T01:00:00	2	Temperatura media	19.2
153938	7	Sololá	719	Santiago Atitlán	14	Cerro de Oro	6	Junio	2023-10-06T00:00:00	2024-11-08T01:00:00	4	Temperatura máxima	19.6
153939	7	Sololá	719	Santiago Atitlán	14	Cerro de Oro	6	Junio	2023-10-06T00:00:00	2024-11-08T01:00:00	3	Temperatura mínima	19.2
153940	7	Sololá	719	Santiago Atitlán	14	Cerro de Oro	6	Junio	2023-10-06T00:00:00	2024-11-08T01:00:00	5	Humedad	90
153941	7	Sololá	719	Santiago Atitlán	14	Cerro de Oro	6	Junio	2023-10-06T00:00:00	2024-11-08T01:00:00	6	Velocidad del viento	6.4
153942	7	Sololá	719	Santiago Atitlán	14	Cerro de Oro	6	Junio	2023-10-06T00:00:00	2024-11-08T01:00:00	7	Dirección del viento	6.44
153943	7	Sololá	719	Santiago Atitlán	14	Cerro de Oro	6	Junio	2023-10-06T00:00:00	2024-11-08T01:00:00	1	Precipitación	0
153944	7	Sololá	719	Santiago Atitlán	14	Cerro de Oro	6	Junio	2023-10-06T00:00:00	2024-11-08T01:00:00	8	Radiación solar	0
153945	7	Sololá	719	Santiago Atitlán	14	Cerro de Oro	6	Junio	2023-10-06T00:00:00	2024-11-08T02:00:00	2	Temperatura media	19.2
153946	7	Sololá	719	Santiago Atitlán	14	Cerro de Oro	6	Junio	2023-10-06T00:00:00	2024-11-08T02:00:00	4	Temperatura máxima	19.4
153947	7	Sololá	719	Santiago Atitlán	14	Cerro de Oro	6	Junio	2023-10-06T00:00:00	2024-11-08T02:00:00	3	Temperatura mínima	19.1
153948	7	Sololá	719	Santiago Atitlán	14	Cerro de Oro	6	Junio	2023-10-06T00:00:00	2024-11-08T02:00:00	5	Humedad	89
153949	7	Sololá	719	Santiago Atitlán	14	Cerro de Oro	6	Junio	2023-10-06T00:00:00	2024-11-08T02:00:00	6	Velocidad del viento	3.2
153950	7	Sololá	719	Santiago Atitlán	14	Cerro de Oro	6	Junio	2023-10-06T00:00:00	2024-11-08T02:00:00	7	Dirección del viento	3.22
153951	7	Sololá	719	Santiago Atitlán	14	Cerro de Oro	6	Junio	2023-10-06T00:00:00	2024-11-08T02:00:00	1	Precipitación	0
153952	7	Sololá	719	Santiago Atitlán	14	Cerro de Oro	6	Junio	2023-10-06T00:00:00	2024-11-08T02:00:00	8	Radiación solar	0
153953	7	Sololá	719	Santiago Atitlán	14	Cerro de Oro	6	Junio	2023-10-06T00:00:00	2024-11-08T03:00:00	2	Temperatura media	18.8
153954	7	Sololá	719	Santiago Atitlán	14	Cerro de Oro	6	Junio	2023-10-06T00:00:00	2024-11-08T03:00:00	4	Temperatura máxima	19.2
153955	7	Sololá	719	Santiago Atitlán	14	Cerro de Oro	6	Junio	2023-10-06T00:00:00	2024-11-08T03:00:00	3	Temperatura mínima	18.7
153956	7	Sololá	719	Santiago Atitlán	14	Cerro de Oro	6	Junio	2023-10-06T00:00:00	2024-11-08T03:00:00	5	Humedad	90
153957	7	Sololá	719	Santiago Atitlán	14	Cerro de Oro	6	Junio	2023-10-06T00:00:00	2024-11-08T03:00:00	6	Velocidad del viento	4.8
153958	7	Sololá	719	Santiago Atitlán	14	Cerro de Oro	6	Junio	2023-10-06T00:00:00	2024-11-08T03:00:00	7	Dirección del viento	4.83
153959	7	Sololá	719	Santiago Atitlán	14	Cerro de Oro	6	Junio	2023-10-06T00:00:00	2024-11-08T03:00:00	1	Precipitación	0
153960	7	Sololá	719	Santiago Atitlán	14	Cerro de Oro	6	Junio	2023-10-06T00:00:00	2024-11-08T03:00:00	8	Radiación solar	0
153961	7	Sololá	719	Santiago Atitlán	14	Cerro de Oro	6	Junio	2023-10-06T00:00:00	2024-11-08T04:00:00	2	Temperatura media	18.6
153962	7	Sololá	719	Santiago Atitlán	14	Cerro de Oro	6	Junio	2023-10-06T00:00:00	2024-11-08T04:00:00	4	Temperatura máxima	18.8
153963	7	Sololá	719	Santiago Atitlán	14	Cerro de Oro	6	Junio	2023-10-06T00:00:00	2024-11-08T04:00:00	3	Temperatura mínima	18.6
153964	7	Sololá	719	Santiago Atitlán	14	Cerro de Oro	6	Junio	2023-10-06T00:00:00	2024-11-08T04:00:00	5	Humedad	90
153965	7	Sololá	719	Santiago Atitlán	14	Cerro de Oro	6	Junio	2023-10-06T00:00:00	2024-11-08T04:00:00	6	Velocidad del viento	3.2
153966	7	Sololá	719	Santiago Atitlán	14	Cerro de Oro	6	Junio	2023-10-06T00:00:00	2024-11-08T04:00:00	7	Dirección del viento	3.22
153967	7	Sololá	719	Santiago Atitlán	14	Cerro de Oro	6	Junio	2023-10-06T00:00:00	2024-11-08T04:00:00	1	Precipitación	0
153968	7	Sololá	719	Santiago Atitlán	14	Cerro de Oro	6	Junio	2023-10-06T00:00:00	2024-11-08T04:00:00	8	Radiación solar	0
153969	7	Sololá	719	Santiago Atitlán	14	Cerro de Oro	6	Junio	2023-10-06T00:00:00	2024-11-08T05:00:00	2	Temperatura media	18.4
153970	7	Sololá	719	Santiago Atitlán	14	Cerro de Oro	6	Junio	2023-10-06T00:00:00	2024-11-08T05:00:00	4	Temperatura máxima	18.8
153971	7	Sololá	719	Santiago Atitlán	14	Cerro de Oro	6	Junio	2023-10-06T00:00:00	2024-11-08T05:00:00	3	Temperatura mínima	18.4
153972	7	Sololá	719	Santiago Atitlán	14	Cerro de Oro	6	Junio	2023-10-06T00:00:00	2024-11-08T05:00:00	5	Humedad	89
153973	7	Sololá	719	Santiago Atitlán	14	Cerro de Oro	6	Junio	2023-10-06T00:00:00	2024-11-08T05:00:00	6	Velocidad del viento	3.2
153974	7	Sololá	719	Santiago Atitlán	14	Cerro de Oro	6	Junio	2023-10-06T00:00:00	2024-11-08T05:00:00	7	Dirección del viento	3.22
153975	7	Sololá	719	Santiago Atitlán	14	Cerro de Oro	6	Junio	2023-10-06T00:00:00	2024-11-08T05:00:00	1	Precipitación	0
153976	7	Sololá	719	Santiago Atitlán	14	Cerro de Oro	6	Junio	2023-10-06T00:00:00	2024-11-08T05:00:00	8	Radiación solar	0
153977	7	Sololá	719	Santiago Atitlán	14	Cerro de Oro	6	Junio	2023-10-06T00:00:00	2024-11-08T06:00:00	2	Temperatura media	18.9
153978	7	Sololá	719	Santiago Atitlán	14	Cerro de Oro	6	Junio	2023-10-06T00:00:00	2024-11-08T06:00:00	4	Temperatura máxima	18.9
153979	7	Sololá	719	Santiago Atitlán	14	Cerro de Oro	6	Junio	2023-10-06T00:00:00	2024-11-08T06:00:00	3	Temperatura mínima	18.2
153980	7	Sololá	719	Santiago Atitlán	14	Cerro de Oro	6	Junio	2023-10-06T00:00:00	2024-11-08T06:00:00	5	Humedad	84
153981	7	Sololá	719	Santiago Atitlán	14	Cerro de Oro	6	Junio	2023-10-06T00:00:00	2024-11-08T06:00:00	6	Velocidad del viento	3.2
153982	7	Sololá	719	Santiago Atitlán	14	Cerro de Oro	6	Junio	2023-10-06T00:00:00	2024-11-08T06:00:00	7	Dirección del viento	3.22
153983	7	Sololá	719	Santiago Atitlán	14	Cerro de Oro	6	Junio	2023-10-06T00:00:00	2024-11-08T06:00:00	1	Precipitación	0
153984	7	Sololá	719	Santiago Atitlán	14	Cerro de Oro	6	Junio	2023-10-06T00:00:00	2024-11-08T06:00:00	8	Radiación solar	10
153985	7	Sololá	719	Santiago Atitlán	14	Cerro de Oro	6	Junio	2023-10-06T00:00:00	2024-11-08T07:00:00	2	Temperatura media	20.7
153986	7	Sololá	719	Santiago Atitlán	14	Cerro de Oro	6	Junio	2023-10-06T00:00:00	2024-11-08T07:00:00	4	Temperatura máxima	20.7
153987	7	Sololá	719	Santiago Atitlán	14	Cerro de Oro	6	Junio	2023-10-06T00:00:00	2024-11-08T07:00:00	3	Temperatura mínima	18.9
153988	7	Sololá	719	Santiago Atitlán	14	Cerro de Oro	6	Junio	2023-10-06T00:00:00	2024-11-08T07:00:00	5	Humedad	78
153989	7	Sololá	719	Santiago Atitlán	14	Cerro de Oro	6	Junio	2023-10-06T00:00:00	2024-11-08T07:00:00	6	Velocidad del viento	1.6
153990	7	Sololá	719	Santiago Atitlán	14	Cerro de Oro	6	Junio	2023-10-06T00:00:00	2024-11-08T07:00:00	7	Dirección del viento	1.61
153991	7	Sololá	719	Santiago Atitlán	14	Cerro de Oro	6	Junio	2023-10-06T00:00:00	2024-11-08T07:00:00	1	Precipitación	0
153992	7	Sololá	719	Santiago Atitlán	14	Cerro de Oro	6	Junio	2023-10-06T00:00:00	2024-11-08T07:00:00	8	Radiación solar	129
153993	7	Sololá	719	Santiago Atitlán	14	Cerro de Oro	6	Junio	2023-10-06T00:00:00	2024-11-08T08:00:00	2	Temperatura media	21.8
153994	7	Sololá	719	Santiago Atitlán	14	Cerro de Oro	6	Junio	2023-10-06T00:00:00	2024-11-08T08:00:00	4	Temperatura máxima	21.8
153995	7	Sololá	719	Santiago Atitlán	14	Cerro de Oro	6	Junio	2023-10-06T00:00:00	2024-11-08T08:00:00	3	Temperatura mínima	20.7
153996	7	Sololá	719	Santiago Atitlán	14	Cerro de Oro	6	Junio	2023-10-06T00:00:00	2024-11-08T08:00:00	5	Humedad	78
153997	7	Sololá	719	Santiago Atitlán	14	Cerro de Oro	6	Junio	2023-10-06T00:00:00	2024-11-08T08:00:00	6	Velocidad del viento	1.6
153998	7	Sololá	719	Santiago Atitlán	14	Cerro de Oro	6	Junio	2023-10-06T00:00:00	2024-11-08T08:00:00	7	Dirección del viento	1.61
153999	7	Sololá	719	Santiago Atitlán	14	Cerro de Oro	6	Junio	2023-10-06T00:00:00	2024-11-08T08:00:00	1	Precipitación	0
154000	7	Sololá	719	Santiago Atitlán	14	Cerro de Oro	6	Junio	2023-10-06T00:00:00	2024-11-08T08:00:00	8	Radiación solar	290
154001	7	Sololá	719	Santiago Atitlán	14	Cerro de Oro	6	Junio	2023-10-06T00:00:00	2024-11-08T09:00:00	2	Temperatura media	22.3
154002	7	Sololá	719	Santiago Atitlán	14	Cerro de Oro	6	Junio	2023-10-06T00:00:00	2024-11-08T09:00:00	4	Temperatura máxima	22.3
154003	7	Sololá	719	Santiago Atitlán	14	Cerro de Oro	6	Junio	2023-10-06T00:00:00	2024-11-08T09:00:00	3	Temperatura mínima	21.6
154004	7	Sololá	719	Santiago Atitlán	14	Cerro de Oro	6	Junio	2023-10-06T00:00:00	2024-11-08T09:00:00	5	Humedad	78
154005	7	Sololá	719	Santiago Atitlán	14	Cerro de Oro	6	Junio	2023-10-06T00:00:00	2024-11-08T09:00:00	6	Velocidad del viento	3.2
154006	7	Sololá	719	Santiago Atitlán	14	Cerro de Oro	6	Junio	2023-10-06T00:00:00	2024-11-08T09:00:00	7	Dirección del viento	3.22
154007	7	Sololá	719	Santiago Atitlán	14	Cerro de Oro	6	Junio	2023-10-06T00:00:00	2024-11-08T09:00:00	1	Precipitación	0
154008	7	Sololá	719	Santiago Atitlán	14	Cerro de Oro	6	Junio	2023-10-06T00:00:00	2024-11-08T09:00:00	8	Radiación solar	393
154009	7	Sololá	719	Santiago Atitlán	14	Cerro de Oro	6	Junio	2023-10-06T00:00:00	2024-11-08T10:00:00	2	Temperatura media	22.7
154010	7	Sololá	719	Santiago Atitlán	14	Cerro de Oro	6	Junio	2023-10-06T00:00:00	2024-11-08T10:00:00	4	Temperatura máxima	23.1
154011	7	Sololá	719	Santiago Atitlán	14	Cerro de Oro	6	Junio	2023-10-06T00:00:00	2024-11-08T10:00:00	3	Temperatura mínima	21.9
154012	7	Sololá	719	Santiago Atitlán	14	Cerro de Oro	6	Junio	2023-10-06T00:00:00	2024-11-08T10:00:00	5	Humedad	80
154013	7	Sololá	719	Santiago Atitlán	14	Cerro de Oro	6	Junio	2023-10-06T00:00:00	2024-11-08T10:00:00	6	Velocidad del viento	6.4
154014	7	Sololá	719	Santiago Atitlán	14	Cerro de Oro	6	Junio	2023-10-06T00:00:00	2024-11-08T10:00:00	7	Dirección del viento	6.44
154015	7	Sololá	719	Santiago Atitlán	14	Cerro de Oro	6	Junio	2023-10-06T00:00:00	2024-11-08T10:00:00	1	Precipitación	0
154016	7	Sololá	719	Santiago Atitlán	14	Cerro de Oro	6	Junio	2023-10-06T00:00:00	2024-11-08T10:00:00	8	Radiación solar	623
154017	7	Sololá	719	Santiago Atitlán	14	Cerro de Oro	6	Junio	2023-10-06T00:00:00	2024-11-08T11:00:00	2	Temperatura media	23.1
154018	7	Sololá	719	Santiago Atitlán	14	Cerro de Oro	6	Junio	2023-10-06T00:00:00	2024-11-08T11:00:00	4	Temperatura máxima	23.5
154019	7	Sololá	719	Santiago Atitlán	14	Cerro de Oro	6	Junio	2023-10-06T00:00:00	2024-11-08T11:00:00	3	Temperatura mínima	22.8
154020	7	Sololá	719	Santiago Atitlán	14	Cerro de Oro	6	Junio	2023-10-06T00:00:00	2024-11-08T11:00:00	5	Humedad	75
154021	7	Sololá	719	Santiago Atitlán	14	Cerro de Oro	6	Junio	2023-10-06T00:00:00	2024-11-08T11:00:00	6	Velocidad del viento	11.3
154022	7	Sololá	719	Santiago Atitlán	14	Cerro de Oro	6	Junio	2023-10-06T00:00:00	2024-11-08T11:00:00	7	Dirección del viento	11.27
154023	7	Sololá	719	Santiago Atitlán	14	Cerro de Oro	6	Junio	2023-10-06T00:00:00	2024-11-08T11:00:00	1	Precipitación	0
154024	7	Sololá	719	Santiago Atitlán	14	Cerro de Oro	6	Junio	2023-10-06T00:00:00	2024-11-08T11:00:00	8	Radiación solar	780
154025	7	Sololá	719	Santiago Atitlán	14	Cerro de Oro	6	Junio	2023-10-06T00:00:00	2024-11-08T12:00:00	2	Temperatura media	22.2
154026	7	Sololá	719	Santiago Atitlán	14	Cerro de Oro	6	Junio	2023-10-06T00:00:00	2024-11-08T12:00:00	4	Temperatura máxima	23.5
154027	7	Sololá	719	Santiago Atitlán	14	Cerro de Oro	6	Junio	2023-10-06T00:00:00	2024-11-08T12:00:00	3	Temperatura mínima	22.2
154028	7	Sololá	719	Santiago Atitlán	14	Cerro de Oro	6	Junio	2023-10-06T00:00:00	2024-11-08T12:00:00	5	Humedad	81
154029	7	Sololá	719	Santiago Atitlán	14	Cerro de Oro	6	Junio	2023-10-06T00:00:00	2024-11-08T12:00:00	6	Velocidad del viento	11.3
154030	7	Sololá	719	Santiago Atitlán	14	Cerro de Oro	6	Junio	2023-10-06T00:00:00	2024-11-08T12:00:00	7	Dirección del viento	11.27
154031	7	Sololá	719	Santiago Atitlán	14	Cerro de Oro	6	Junio	2023-10-06T00:00:00	2024-11-08T12:00:00	1	Precipitación	0
154032	7	Sololá	719	Santiago Atitlán	14	Cerro de Oro	6	Junio	2023-10-06T00:00:00	2024-11-08T12:00:00	8	Radiación solar	402
154033	7	Sololá	719	Santiago Atitlán	14	Cerro de Oro	6	Junio	2023-10-06T00:00:00	2024-11-08T13:00:00	2	Temperatura media	21.1
154034	7	Sololá	719	Santiago Atitlán	14	Cerro de Oro	6	Junio	2023-10-06T00:00:00	2024-11-08T13:00:00	4	Temperatura máxima	22.2
154035	7	Sololá	719	Santiago Atitlán	14	Cerro de Oro	6	Junio	2023-10-06T00:00:00	2024-11-08T13:00:00	3	Temperatura mínima	21
154036	7	Sololá	719	Santiago Atitlán	14	Cerro de Oro	6	Junio	2023-10-06T00:00:00	2024-11-08T13:00:00	5	Humedad	88
154037	7	Sololá	719	Santiago Atitlán	14	Cerro de Oro	6	Junio	2023-10-06T00:00:00	2024-11-08T13:00:00	6	Velocidad del viento	4.8
154038	7	Sololá	719	Santiago Atitlán	14	Cerro de Oro	6	Junio	2023-10-06T00:00:00	2024-11-08T13:00:00	7	Dirección del viento	4.83
154039	7	Sololá	719	Santiago Atitlán	14	Cerro de Oro	6	Junio	2023-10-06T00:00:00	2024-11-08T13:00:00	1	Precipitación	1.2
154040	7	Sololá	719	Santiago Atitlán	14	Cerro de Oro	6	Junio	2023-10-06T00:00:00	2024-11-08T13:00:00	8	Radiación solar	149
154041	7	Sololá	719	Santiago Atitlán	14	Cerro de Oro	6	Junio	2023-10-06T00:00:00	2024-11-08T14:00:00	2	Temperatura media	21.6
154042	7	Sololá	719	Santiago Atitlán	14	Cerro de Oro	6	Junio	2023-10-06T00:00:00	2024-11-08T14:00:00	4	Temperatura máxima	22.8
154043	7	Sololá	719	Santiago Atitlán	14	Cerro de Oro	6	Junio	2023-10-06T00:00:00	2024-11-08T14:00:00	3	Temperatura mínima	21.1
154044	7	Sololá	719	Santiago Atitlán	14	Cerro de Oro	6	Junio	2023-10-06T00:00:00	2024-11-08T14:00:00	5	Humedad	83
154045	7	Sololá	719	Santiago Atitlán	14	Cerro de Oro	6	Junio	2023-10-06T00:00:00	2024-11-08T14:00:00	6	Velocidad del viento	6.4
154046	7	Sololá	719	Santiago Atitlán	14	Cerro de Oro	6	Junio	2023-10-06T00:00:00	2024-11-08T14:00:00	7	Dirección del viento	6.44
154047	7	Sololá	719	Santiago Atitlán	14	Cerro de Oro	6	Junio	2023-10-06T00:00:00	2024-11-08T14:00:00	1	Precipitación	0
154048	7	Sololá	719	Santiago Atitlán	14	Cerro de Oro	6	Junio	2023-10-06T00:00:00	2024-11-08T14:00:00	8	Radiación solar	505
154049	7	Sololá	719	Santiago Atitlán	14	Cerro de Oro	6	Junio	2023-10-06T00:00:00	2024-11-08T15:00:00	2	Temperatura media	20.8
154050	7	Sololá	719	Santiago Atitlán	14	Cerro de Oro	6	Junio	2023-10-06T00:00:00	2024-11-08T15:00:00	4	Temperatura máxima	22.2
154051	7	Sololá	719	Santiago Atitlán	14	Cerro de Oro	6	Junio	2023-10-06T00:00:00	2024-11-08T15:00:00	3	Temperatura mínima	20.8
154052	7	Sololá	719	Santiago Atitlán	14	Cerro de Oro	6	Junio	2023-10-06T00:00:00	2024-11-08T15:00:00	5	Humedad	82
154053	7	Sololá	719	Santiago Atitlán	14	Cerro de Oro	6	Junio	2023-10-06T00:00:00	2024-11-08T15:00:00	6	Velocidad del viento	9.7
154054	7	Sololá	719	Santiago Atitlán	14	Cerro de Oro	6	Junio	2023-10-06T00:00:00	2024-11-08T15:00:00	7	Dirección del viento	9.66
154055	7	Sololá	719	Santiago Atitlán	14	Cerro de Oro	6	Junio	2023-10-06T00:00:00	2024-11-08T15:00:00	1	Precipitación	0
154056	7	Sololá	719	Santiago Atitlán	14	Cerro de Oro	6	Junio	2023-10-06T00:00:00	2024-11-08T15:00:00	8	Radiación solar	255
154057	7	Sololá	719	Santiago Atitlán	14	Cerro de Oro	6	Junio	2023-10-06T00:00:00	2024-11-08T16:00:00	2	Temperatura media	19.9
154058	7	Sololá	719	Santiago Atitlán	14	Cerro de Oro	6	Junio	2023-10-06T00:00:00	2024-11-08T16:00:00	4	Temperatura máxima	21.3
154059	7	Sololá	719	Santiago Atitlán	14	Cerro de Oro	6	Junio	2023-10-06T00:00:00	2024-11-08T16:00:00	3	Temperatura mínima	19.9
154060	7	Sololá	719	Santiago Atitlán	14	Cerro de Oro	6	Junio	2023-10-06T00:00:00	2024-11-08T16:00:00	5	Humedad	87
154061	7	Sololá	719	Santiago Atitlán	14	Cerro de Oro	6	Junio	2023-10-06T00:00:00	2024-11-08T16:00:00	6	Velocidad del viento	8
154062	7	Sololá	719	Santiago Atitlán	14	Cerro de Oro	6	Junio	2023-10-06T00:00:00	2024-11-08T16:00:00	7	Dirección del viento	8.05
154063	7	Sololá	719	Santiago Atitlán	14	Cerro de Oro	6	Junio	2023-10-06T00:00:00	2024-11-08T16:00:00	1	Precipitación	0
154064	7	Sololá	719	Santiago Atitlán	14	Cerro de Oro	6	Junio	2023-10-06T00:00:00	2024-11-08T16:00:00	8	Radiación solar	71
154065	7	Sololá	719	Santiago Atitlán	14	Cerro de Oro	6	Junio	2023-10-06T00:00:00	2024-11-08T17:00:00	2	Temperatura media	19.7
154066	7	Sololá	719	Santiago Atitlán	14	Cerro de Oro	6	Junio	2023-10-06T00:00:00	2024-11-08T17:00:00	4	Temperatura máxima	20
154067	7	Sololá	719	Santiago Atitlán	14	Cerro de Oro	6	Junio	2023-10-06T00:00:00	2024-11-08T17:00:00	3	Temperatura mínima	19.3
154068	7	Sololá	719	Santiago Atitlán	14	Cerro de Oro	6	Junio	2023-10-06T00:00:00	2024-11-08T17:00:00	5	Humedad	89
154069	7	Sololá	719	Santiago Atitlán	14	Cerro de Oro	6	Junio	2023-10-06T00:00:00	2024-11-08T17:00:00	6	Velocidad del viento	4.8
154070	7	Sololá	719	Santiago Atitlán	14	Cerro de Oro	6	Junio	2023-10-06T00:00:00	2024-11-08T17:00:00	7	Dirección del viento	4.83
154071	7	Sololá	719	Santiago Atitlán	14	Cerro de Oro	6	Junio	2023-10-06T00:00:00	2024-11-08T17:00:00	1	Precipitación	0
154072	7	Sololá	719	Santiago Atitlán	14	Cerro de Oro	6	Junio	2023-10-06T00:00:00	2024-11-08T17:00:00	8	Radiación solar	67
154073	7	Sololá	719	Santiago Atitlán	14	Cerro de Oro	6	Junio	2023-10-06T00:00:00	2024-11-08T18:00:00	2	Temperatura media	20.1
154074	7	Sololá	719	Santiago Atitlán	14	Cerro de Oro	6	Junio	2023-10-06T00:00:00	2024-11-08T18:00:00	4	Temperatura máxima	20.1
154075	7	Sololá	719	Santiago Atitlán	14	Cerro de Oro	6	Junio	2023-10-06T00:00:00	2024-11-08T18:00:00	3	Temperatura mínima	19.6
154076	7	Sololá	719	Santiago Atitlán	14	Cerro de Oro	6	Junio	2023-10-06T00:00:00	2024-11-08T18:00:00	5	Humedad	86
154077	7	Sololá	719	Santiago Atitlán	14	Cerro de Oro	6	Junio	2023-10-06T00:00:00	2024-11-08T18:00:00	6	Velocidad del viento	3.2
154078	7	Sololá	719	Santiago Atitlán	14	Cerro de Oro	6	Junio	2023-10-06T00:00:00	2024-11-08T18:00:00	7	Dirección del viento	3.22
154079	7	Sololá	719	Santiago Atitlán	14	Cerro de Oro	6	Junio	2023-10-06T00:00:00	2024-11-08T18:00:00	1	Precipitación	0
154080	7	Sololá	719	Santiago Atitlán	14	Cerro de Oro	6	Junio	2023-10-06T00:00:00	2024-11-08T18:00:00	8	Radiación solar	59
154081	7	Sololá	719	Santiago Atitlán	14	Cerro de Oro	6	Junio	2023-10-06T00:00:00	2024-11-08T19:00:00	2	Temperatura media	19.6
154082	7	Sololá	719	Santiago Atitlán	14	Cerro de Oro	6	Junio	2023-10-06T00:00:00	2024-11-08T19:00:00	4	Temperatura máxima	20.1
154083	7	Sololá	719	Santiago Atitlán	14	Cerro de Oro	6	Junio	2023-10-06T00:00:00	2024-11-08T19:00:00	3	Temperatura mínima	19.4
154084	7	Sololá	719	Santiago Atitlán	14	Cerro de Oro	6	Junio	2023-10-06T00:00:00	2024-11-08T19:00:00	5	Humedad	85
154085	7	Sololá	719	Santiago Atitlán	14	Cerro de Oro	6	Junio	2023-10-06T00:00:00	2024-11-08T19:00:00	6	Velocidad del viento	3.2
154086	7	Sololá	719	Santiago Atitlán	14	Cerro de Oro	6	Junio	2023-10-06T00:00:00	2024-11-08T19:00:00	7	Dirección del viento	3.22
154087	7	Sololá	719	Santiago Atitlán	14	Cerro de Oro	6	Junio	2023-10-06T00:00:00	2024-11-08T19:00:00	1	Precipitación	0
154088	7	Sololá	719	Santiago Atitlán	14	Cerro de Oro	6	Junio	2023-10-06T00:00:00	2024-11-08T19:00:00	8	Radiación solar	0
154089	7	Sololá	719	Santiago Atitlán	14	Cerro de Oro	6	Junio	2023-10-06T00:00:00	2024-11-08T20:00:00	2	Temperatura media	19.3
154090	7	Sololá	719	Santiago Atitlán	14	Cerro de Oro	6	Junio	2023-10-06T00:00:00	2024-11-08T20:00:00	4	Temperatura máxima	19.6
154091	7	Sololá	719	Santiago Atitlán	14	Cerro de Oro	6	Junio	2023-10-06T00:00:00	2024-11-08T20:00:00	3	Temperatura mínima	19
154092	7	Sololá	719	Santiago Atitlán	14	Cerro de Oro	6	Junio	2023-10-06T00:00:00	2024-11-08T20:00:00	5	Humedad	86
154093	7	Sololá	719	Santiago Atitlán	14	Cerro de Oro	6	Junio	2023-10-06T00:00:00	2024-11-08T20:00:00	6	Velocidad del viento	3.2
154094	7	Sololá	719	Santiago Atitlán	14	Cerro de Oro	6	Junio	2023-10-06T00:00:00	2024-11-08T20:00:00	7	Dirección del viento	3.22
154095	7	Sololá	719	Santiago Atitlán	14	Cerro de Oro	6	Junio	2023-10-06T00:00:00	2024-11-08T20:00:00	1	Precipitación	0
154096	7	Sololá	719	Santiago Atitlán	14	Cerro de Oro	6	Junio	2023-10-06T00:00:00	2024-11-08T20:00:00	8	Radiación solar	0
154097	7	Sololá	719	Santiago Atitlán	14	Cerro de Oro	6	Junio	2023-10-06T00:00:00	2024-11-08T21:00:00	2	Temperatura media	19.1
154098	7	Sololá	719	Santiago Atitlán	14	Cerro de Oro	6	Junio	2023-10-06T00:00:00	2024-11-08T21:00:00	4	Temperatura máxima	19.4
154099	7	Sololá	719	Santiago Atitlán	14	Cerro de Oro	6	Junio	2023-10-06T00:00:00	2024-11-08T21:00:00	3	Temperatura mínima	19.1
154100	7	Sololá	719	Santiago Atitlán	14	Cerro de Oro	6	Junio	2023-10-06T00:00:00	2024-11-08T21:00:00	5	Humedad	88
154101	7	Sololá	719	Santiago Atitlán	14	Cerro de Oro	6	Junio	2023-10-06T00:00:00	2024-11-08T21:00:00	6	Velocidad del viento	3.2
154102	7	Sololá	719	Santiago Atitlán	14	Cerro de Oro	6	Junio	2023-10-06T00:00:00	2024-11-08T21:00:00	7	Dirección del viento	3.22
154103	7	Sololá	719	Santiago Atitlán	14	Cerro de Oro	6	Junio	2023-10-06T00:00:00	2024-11-08T21:00:00	1	Precipitación	0
154104	7	Sololá	719	Santiago Atitlán	14	Cerro de Oro	6	Junio	2023-10-06T00:00:00	2024-11-08T21:00:00	8	Radiación solar	0
154105	7	Sololá	719	Santiago Atitlán	14	Cerro de Oro	6	Junio	2023-10-06T00:00:00	2024-11-08T22:00:00	2	Temperatura media	19.6
154106	7	Sololá	719	Santiago Atitlán	14	Cerro de Oro	6	Junio	2023-10-06T00:00:00	2024-11-08T22:00:00	4	Temperatura máxima	19.6
154107	7	Sololá	719	Santiago Atitlán	14	Cerro de Oro	6	Junio	2023-10-06T00:00:00	2024-11-08T22:00:00	3	Temperatura mínima	18.9
154108	7	Sololá	719	Santiago Atitlán	14	Cerro de Oro	6	Junio	2023-10-06T00:00:00	2024-11-08T22:00:00	5	Humedad	88
154109	7	Sololá	719	Santiago Atitlán	14	Cerro de Oro	6	Junio	2023-10-06T00:00:00	2024-11-08T22:00:00	6	Velocidad del viento	3.2
154110	7	Sololá	719	Santiago Atitlán	14	Cerro de Oro	6	Junio	2023-10-06T00:00:00	2024-11-08T22:00:00	7	Dirección del viento	3.22
154111	7	Sololá	719	Santiago Atitlán	14	Cerro de Oro	6	Junio	2023-10-06T00:00:00	2024-11-08T22:00:00	1	Precipitación	0
154112	7	Sololá	719	Santiago Atitlán	14	Cerro de Oro	6	Junio	2023-10-06T00:00:00	2024-11-08T22:00:00	8	Radiación solar	0
154113	7	Sololá	719	Santiago Atitlán	14	Cerro de Oro	6	Junio	2023-10-06T00:00:00	2024-11-08T23:00:00	2	Temperatura media	19.7
154114	7	Sololá	719	Santiago Atitlán	14	Cerro de Oro	6	Junio	2023-10-06T00:00:00	2024-11-08T23:00:00	4	Temperatura máxima	19.7
154115	7	Sololá	719	Santiago Atitlán	14	Cerro de Oro	6	Junio	2023-10-06T00:00:00	2024-11-08T23:00:00	3	Temperatura mínima	19.6
154116	7	Sololá	719	Santiago Atitlán	14	Cerro de Oro	6	Junio	2023-10-06T00:00:00	2024-11-08T23:00:00	5	Humedad	87
154117	7	Sololá	719	Santiago Atitlán	14	Cerro de Oro	6	Junio	2023-10-06T00:00:00	2024-11-08T23:00:00	6	Velocidad del viento	3.2
154118	7	Sololá	719	Santiago Atitlán	14	Cerro de Oro	6	Junio	2023-10-06T00:00:00	2024-11-08T23:00:00	7	Dirección del viento	3.22
154119	7	Sololá	719	Santiago Atitlán	14	Cerro de Oro	6	Junio	2023-10-06T00:00:00	2024-11-08T23:00:00	1	Precipitación	0
154120	7	Sololá	719	Santiago Atitlán	14	Cerro de Oro	6	Junio	2023-10-06T00:00:00	2024-11-08T23:00:00	8	Radiación solar	0
154121	7	Sololá	719	Santiago Atitlán	14	Cerro de Oro	6	Junio	2023-11-06T00:00:00	2024-11-08T00:00:00	2	Temperatura media	19.9
154122	7	Sololá	719	Santiago Atitlán	14	Cerro de Oro	6	Junio	2023-11-06T00:00:00	2024-11-08T00:00:00	4	Temperatura máxima	20
154123	7	Sololá	719	Santiago Atitlán	14	Cerro de Oro	6	Junio	2023-11-06T00:00:00	2024-11-08T00:00:00	3	Temperatura mínima	19.6
154124	7	Sololá	719	Santiago Atitlán	14	Cerro de Oro	6	Junio	2023-11-06T00:00:00	2024-11-08T00:00:00	5	Humedad	84
154125	7	Sololá	719	Santiago Atitlán	14	Cerro de Oro	6	Junio	2023-11-06T00:00:00	2024-11-08T00:00:00	6	Velocidad del viento	4.8
154126	7	Sololá	719	Santiago Atitlán	14	Cerro de Oro	6	Junio	2023-11-06T00:00:00	2024-11-08T00:00:00	7	Dirección del viento	4.83
154127	7	Sololá	719	Santiago Atitlán	14	Cerro de Oro	6	Junio	2023-11-06T00:00:00	2024-11-08T00:00:00	1	Precipitación	0
154128	7	Sololá	719	Santiago Atitlán	14	Cerro de Oro	6	Junio	2023-11-06T00:00:00	2024-11-08T00:00:00	8	Radiación solar	0
154129	7	Sololá	719	Santiago Atitlán	14	Cerro de Oro	6	Junio	2023-11-06T00:00:00	2024-11-08T01:00:00	2	Temperatura media	19.8
154130	7	Sololá	719	Santiago Atitlán	14	Cerro de Oro	6	Junio	2023-11-06T00:00:00	2024-11-08T01:00:00	4	Temperatura máxima	20
154131	7	Sololá	719	Santiago Atitlán	14	Cerro de Oro	6	Junio	2023-11-06T00:00:00	2024-11-08T01:00:00	3	Temperatura mínima	19.7
154132	7	Sololá	719	Santiago Atitlán	14	Cerro de Oro	6	Junio	2023-11-06T00:00:00	2024-11-08T01:00:00	5	Humedad	79
154133	7	Sololá	719	Santiago Atitlán	14	Cerro de Oro	6	Junio	2023-11-06T00:00:00	2024-11-08T01:00:00	6	Velocidad del viento	4.8
154134	7	Sololá	719	Santiago Atitlán	14	Cerro de Oro	6	Junio	2023-11-06T00:00:00	2024-11-08T01:00:00	7	Dirección del viento	4.83
154135	7	Sololá	719	Santiago Atitlán	14	Cerro de Oro	6	Junio	2023-11-06T00:00:00	2024-11-08T01:00:00	1	Precipitación	0
154136	7	Sololá	719	Santiago Atitlán	14	Cerro de Oro	6	Junio	2023-11-06T00:00:00	2024-11-08T01:00:00	8	Radiación solar	0
154137	7	Sololá	719	Santiago Atitlán	14	Cerro de Oro	6	Junio	2023-11-06T00:00:00	2024-11-08T02:00:00	2	Temperatura media	19.6
154138	7	Sololá	719	Santiago Atitlán	14	Cerro de Oro	6	Junio	2023-11-06T00:00:00	2024-11-08T02:00:00	4	Temperatura máxima	20.1
154139	7	Sololá	719	Santiago Atitlán	14	Cerro de Oro	6	Junio	2023-11-06T00:00:00	2024-11-08T02:00:00	3	Temperatura mínima	19.2
154140	7	Sololá	719	Santiago Atitlán	14	Cerro de Oro	6	Junio	2023-11-06T00:00:00	2024-11-08T02:00:00	5	Humedad	78
154141	7	Sololá	719	Santiago Atitlán	14	Cerro de Oro	6	Junio	2023-11-06T00:00:00	2024-11-08T02:00:00	6	Velocidad del viento	3.2
154142	7	Sololá	719	Santiago Atitlán	14	Cerro de Oro	6	Junio	2023-11-06T00:00:00	2024-11-08T02:00:00	7	Dirección del viento	3.22
154143	7	Sololá	719	Santiago Atitlán	14	Cerro de Oro	6	Junio	2023-11-06T00:00:00	2024-11-08T02:00:00	1	Precipitación	0
154144	7	Sololá	719	Santiago Atitlán	14	Cerro de Oro	6	Junio	2023-11-06T00:00:00	2024-11-08T02:00:00	8	Radiación solar	0
154145	7	Sololá	719	Santiago Atitlán	14	Cerro de Oro	6	Junio	2023-11-06T00:00:00	2024-11-08T03:00:00	2	Temperatura media	17.6
154146	7	Sololá	719	Santiago Atitlán	14	Cerro de Oro	6	Junio	2023-11-06T00:00:00	2024-11-08T03:00:00	4	Temperatura máxima	19.5
154147	7	Sololá	719	Santiago Atitlán	14	Cerro de Oro	6	Junio	2023-11-06T00:00:00	2024-11-08T03:00:00	3	Temperatura mínima	17.4
154148	7	Sololá	719	Santiago Atitlán	14	Cerro de Oro	6	Junio	2023-11-06T00:00:00	2024-11-08T03:00:00	5	Humedad	89
154149	7	Sololá	719	Santiago Atitlán	14	Cerro de Oro	6	Junio	2023-11-06T00:00:00	2024-11-08T03:00:00	6	Velocidad del viento	6.4
154150	7	Sololá	719	Santiago Atitlán	14	Cerro de Oro	6	Junio	2023-11-06T00:00:00	2024-11-08T03:00:00	7	Dirección del viento	6.44
154151	7	Sololá	719	Santiago Atitlán	14	Cerro de Oro	6	Junio	2023-11-06T00:00:00	2024-11-08T03:00:00	1	Precipitación	0
154152	7	Sololá	719	Santiago Atitlán	14	Cerro de Oro	6	Junio	2023-11-06T00:00:00	2024-11-08T03:00:00	8	Radiación solar	0
154153	7	Sololá	719	Santiago Atitlán	14	Cerro de Oro	6	Junio	2023-11-06T00:00:00	2024-11-08T04:00:00	2	Temperatura media	17.4
154154	7	Sololá	719	Santiago Atitlán	14	Cerro de Oro	6	Junio	2023-11-06T00:00:00	2024-11-08T04:00:00	4	Temperatura máxima	18.6
154155	7	Sololá	719	Santiago Atitlán	14	Cerro de Oro	6	Junio	2023-11-06T00:00:00	2024-11-08T04:00:00	3	Temperatura mínima	17.4
154156	7	Sololá	719	Santiago Atitlán	14	Cerro de Oro	6	Junio	2023-11-06T00:00:00	2024-11-08T04:00:00	5	Humedad	90
154157	7	Sololá	719	Santiago Atitlán	14	Cerro de Oro	6	Junio	2023-11-06T00:00:00	2024-11-08T04:00:00	6	Velocidad del viento	3.2
154158	7	Sololá	719	Santiago Atitlán	14	Cerro de Oro	6	Junio	2023-11-06T00:00:00	2024-11-08T04:00:00	7	Dirección del viento	3.22
154159	7	Sololá	719	Santiago Atitlán	14	Cerro de Oro	6	Junio	2023-11-06T00:00:00	2024-11-08T04:00:00	1	Precipitación	0
154160	7	Sololá	719	Santiago Atitlán	14	Cerro de Oro	6	Junio	2023-11-06T00:00:00	2024-11-08T04:00:00	8	Radiación solar	0
154161	7	Sololá	719	Santiago Atitlán	14	Cerro de Oro	6	Junio	2023-11-06T00:00:00	2024-11-08T05:00:00	2	Temperatura media	17.6
154162	7	Sololá	719	Santiago Atitlán	14	Cerro de Oro	6	Junio	2023-11-06T00:00:00	2024-11-08T05:00:00	4	Temperatura máxima	17.7
154163	7	Sololá	719	Santiago Atitlán	14	Cerro de Oro	6	Junio	2023-11-06T00:00:00	2024-11-08T05:00:00	3	Temperatura mínima	17.3
154164	7	Sololá	719	Santiago Atitlán	14	Cerro de Oro	6	Junio	2023-11-06T00:00:00	2024-11-08T05:00:00	5	Humedad	89
154165	7	Sololá	719	Santiago Atitlán	14	Cerro de Oro	6	Junio	2023-11-06T00:00:00	2024-11-08T05:00:00	6	Velocidad del viento	1.6
154166	7	Sololá	719	Santiago Atitlán	14	Cerro de Oro	6	Junio	2023-11-06T00:00:00	2024-11-08T05:00:00	7	Dirección del viento	1.61
154167	7	Sololá	719	Santiago Atitlán	14	Cerro de Oro	6	Junio	2023-11-06T00:00:00	2024-11-08T05:00:00	1	Precipitación	0
154168	7	Sololá	719	Santiago Atitlán	14	Cerro de Oro	6	Junio	2023-11-06T00:00:00	2024-11-08T05:00:00	8	Radiación solar	0
154169	7	Sololá	719	Santiago Atitlán	14	Cerro de Oro	6	Junio	2023-11-06T00:00:00	2024-11-08T06:00:00	2	Temperatura media	17.8
154170	7	Sololá	719	Santiago Atitlán	14	Cerro de Oro	6	Junio	2023-11-06T00:00:00	2024-11-08T06:00:00	4	Temperatura máxima	17.8
154171	7	Sololá	719	Santiago Atitlán	14	Cerro de Oro	6	Junio	2023-11-06T00:00:00	2024-11-08T06:00:00	3	Temperatura mínima	17.4
154172	7	Sololá	719	Santiago Atitlán	14	Cerro de Oro	6	Junio	2023-11-06T00:00:00	2024-11-08T06:00:00	5	Humedad	80
154173	7	Sololá	719	Santiago Atitlán	14	Cerro de Oro	6	Junio	2023-11-06T00:00:00	2024-11-08T06:00:00	6	Velocidad del viento	4.8
154174	7	Sololá	719	Santiago Atitlán	14	Cerro de Oro	6	Junio	2023-11-06T00:00:00	2024-11-08T06:00:00	7	Dirección del viento	4.83
154175	7	Sololá	719	Santiago Atitlán	14	Cerro de Oro	6	Junio	2023-11-06T00:00:00	2024-11-08T06:00:00	1	Precipitación	0
154176	7	Sololá	719	Santiago Atitlán	14	Cerro de Oro	6	Junio	2023-11-06T00:00:00	2024-11-08T06:00:00	8	Radiación solar	8
154177	7	Sololá	719	Santiago Atitlán	14	Cerro de Oro	6	Junio	2023-11-06T00:00:00	2024-11-08T07:00:00	2	Temperatura media	19.9
154178	7	Sololá	719	Santiago Atitlán	14	Cerro de Oro	6	Junio	2023-11-06T00:00:00	2024-11-08T07:00:00	4	Temperatura máxima	19.9
154179	7	Sololá	719	Santiago Atitlán	14	Cerro de Oro	6	Junio	2023-11-06T00:00:00	2024-11-08T07:00:00	3	Temperatura mínima	17.8
154180	7	Sololá	719	Santiago Atitlán	14	Cerro de Oro	6	Junio	2023-11-06T00:00:00	2024-11-08T07:00:00	5	Humedad	80
154181	7	Sololá	719	Santiago Atitlán	14	Cerro de Oro	6	Junio	2023-11-06T00:00:00	2024-11-08T07:00:00	6	Velocidad del viento	1.6
154182	7	Sololá	719	Santiago Atitlán	14	Cerro de Oro	6	Junio	2023-11-06T00:00:00	2024-11-08T07:00:00	7	Dirección del viento	1.61
154183	7	Sololá	719	Santiago Atitlán	14	Cerro de Oro	6	Junio	2023-11-06T00:00:00	2024-11-08T07:00:00	1	Precipitación	0
154184	7	Sololá	719	Santiago Atitlán	14	Cerro de Oro	6	Junio	2023-11-06T00:00:00	2024-11-08T07:00:00	8	Radiación solar	110
154185	7	Sololá	719	Santiago Atitlán	14	Cerro de Oro	6	Junio	2023-11-06T00:00:00	2024-11-08T08:00:00	2	Temperatura media	21.4
154186	7	Sololá	719	Santiago Atitlán	14	Cerro de Oro	6	Junio	2023-11-06T00:00:00	2024-11-08T08:00:00	4	Temperatura máxima	21.4
154187	7	Sololá	719	Santiago Atitlán	14	Cerro de Oro	6	Junio	2023-11-06T00:00:00	2024-11-08T08:00:00	3	Temperatura mínima	19.9
154188	7	Sololá	719	Santiago Atitlán	14	Cerro de Oro	6	Junio	2023-11-06T00:00:00	2024-11-08T08:00:00	5	Humedad	72
154189	7	Sololá	719	Santiago Atitlán	14	Cerro de Oro	6	Junio	2023-11-06T00:00:00	2024-11-08T08:00:00	6	Velocidad del viento	1.6
154190	7	Sololá	719	Santiago Atitlán	14	Cerro de Oro	6	Junio	2023-11-06T00:00:00	2024-11-08T08:00:00	7	Dirección del viento	1.61
154191	7	Sololá	719	Santiago Atitlán	14	Cerro de Oro	6	Junio	2023-11-06T00:00:00	2024-11-08T08:00:00	1	Precipitación	0
154192	7	Sololá	719	Santiago Atitlán	14	Cerro de Oro	6	Junio	2023-11-06T00:00:00	2024-11-08T08:00:00	8	Radiación solar	294
154193	7	Sololá	719	Santiago Atitlán	14	Cerro de Oro	6	Junio	2023-11-06T00:00:00	2024-11-08T09:00:00	2	Temperatura media	21.7
154194	7	Sololá	719	Santiago Atitlán	14	Cerro de Oro	6	Junio	2023-11-06T00:00:00	2024-11-08T09:00:00	4	Temperatura máxima	21.8
154195	7	Sololá	719	Santiago Atitlán	14	Cerro de Oro	6	Junio	2023-11-06T00:00:00	2024-11-08T09:00:00	3	Temperatura mínima	21.4
154196	7	Sololá	719	Santiago Atitlán	14	Cerro de Oro	6	Junio	2023-11-06T00:00:00	2024-11-08T09:00:00	5	Humedad	72
154197	7	Sololá	719	Santiago Atitlán	14	Cerro de Oro	6	Junio	2023-11-06T00:00:00	2024-11-08T09:00:00	6	Velocidad del viento	3.2
154198	7	Sololá	719	Santiago Atitlán	14	Cerro de Oro	6	Junio	2023-11-06T00:00:00	2024-11-08T09:00:00	7	Dirección del viento	3.22
154199	7	Sololá	719	Santiago Atitlán	14	Cerro de Oro	6	Junio	2023-11-06T00:00:00	2024-11-08T09:00:00	1	Precipitación	0
154200	7	Sololá	719	Santiago Atitlán	14	Cerro de Oro	6	Junio	2023-11-06T00:00:00	2024-11-08T09:00:00	8	Radiación solar	466
154201	7	Sololá	719	Santiago Atitlán	14	Cerro de Oro	6	Junio	2023-11-06T00:00:00	2024-11-08T10:00:00	2	Temperatura media	22.4
154202	7	Sololá	719	Santiago Atitlán	14	Cerro de Oro	6	Junio	2023-11-06T00:00:00	2024-11-08T10:00:00	4	Temperatura máxima	22.5
154203	7	Sololá	719	Santiago Atitlán	14	Cerro de Oro	6	Junio	2023-11-06T00:00:00	2024-11-08T10:00:00	3	Temperatura mínima	21.7
154204	7	Sololá	719	Santiago Atitlán	14	Cerro de Oro	6	Junio	2023-11-06T00:00:00	2024-11-08T10:00:00	5	Humedad	74
154205	7	Sololá	719	Santiago Atitlán	14	Cerro de Oro	6	Junio	2023-11-06T00:00:00	2024-11-08T10:00:00	6	Velocidad del viento	4.8
154206	7	Sololá	719	Santiago Atitlán	14	Cerro de Oro	6	Junio	2023-11-06T00:00:00	2024-11-08T10:00:00	7	Dirección del viento	4.83
154207	7	Sololá	719	Santiago Atitlán	14	Cerro de Oro	6	Junio	2023-11-06T00:00:00	2024-11-08T10:00:00	1	Precipitación	0
154208	7	Sololá	719	Santiago Atitlán	14	Cerro de Oro	6	Junio	2023-11-06T00:00:00	2024-11-08T10:00:00	8	Radiación solar	682
154209	7	Sololá	719	Santiago Atitlán	14	Cerro de Oro	6	Junio	2023-11-06T00:00:00	2024-11-08T11:00:00	2	Temperatura media	24
154210	7	Sololá	719	Santiago Atitlán	14	Cerro de Oro	6	Junio	2023-11-06T00:00:00	2024-11-08T11:00:00	4	Temperatura máxima	24
154211	7	Sololá	719	Santiago Atitlán	14	Cerro de Oro	6	Junio	2023-11-06T00:00:00	2024-11-08T11:00:00	3	Temperatura mínima	22.3
154212	7	Sololá	719	Santiago Atitlán	14	Cerro de Oro	6	Junio	2023-11-06T00:00:00	2024-11-08T11:00:00	5	Humedad	75
154213	7	Sololá	719	Santiago Atitlán	14	Cerro de Oro	6	Junio	2023-11-06T00:00:00	2024-11-08T11:00:00	6	Velocidad del viento	8
154214	7	Sololá	719	Santiago Atitlán	14	Cerro de Oro	6	Junio	2023-11-06T00:00:00	2024-11-08T11:00:00	7	Dirección del viento	8.05
154215	7	Sololá	719	Santiago Atitlán	14	Cerro de Oro	6	Junio	2023-11-06T00:00:00	2024-11-08T11:00:00	1	Precipitación	0
154216	7	Sololá	719	Santiago Atitlán	14	Cerro de Oro	6	Junio	2023-11-06T00:00:00	2024-11-08T11:00:00	8	Radiación solar	792
154217	7	Sololá	719	Santiago Atitlán	14	Cerro de Oro	6	Junio	2023-11-06T00:00:00	2024-11-08T12:00:00	2	Temperatura media	23.7
154218	7	Sololá	719	Santiago Atitlán	14	Cerro de Oro	6	Junio	2023-11-06T00:00:00	2024-11-08T12:00:00	4	Temperatura máxima	24.6
154219	7	Sololá	719	Santiago Atitlán	14	Cerro de Oro	6	Junio	2023-11-06T00:00:00	2024-11-08T12:00:00	3	Temperatura mínima	23.7
154220	7	Sololá	719	Santiago Atitlán	14	Cerro de Oro	6	Junio	2023-11-06T00:00:00	2024-11-08T12:00:00	5	Humedad	74
154221	7	Sololá	719	Santiago Atitlán	14	Cerro de Oro	6	Junio	2023-11-06T00:00:00	2024-11-08T12:00:00	6	Velocidad del viento	9.7
154222	7	Sololá	719	Santiago Atitlán	14	Cerro de Oro	6	Junio	2023-11-06T00:00:00	2024-11-08T12:00:00	7	Dirección del viento	9.66
154223	7	Sololá	719	Santiago Atitlán	14	Cerro de Oro	6	Junio	2023-11-06T00:00:00	2024-11-08T12:00:00	1	Precipitación	0
154224	7	Sololá	719	Santiago Atitlán	14	Cerro de Oro	6	Junio	2023-11-06T00:00:00	2024-11-08T12:00:00	8	Radiación solar	766
154225	7	Sololá	719	Santiago Atitlán	14	Cerro de Oro	6	Junio	2023-11-06T00:00:00	2024-11-08T13:00:00	2	Temperatura media	24.4
154226	7	Sololá	719	Santiago Atitlán	14	Cerro de Oro	6	Junio	2023-11-06T00:00:00	2024-11-08T13:00:00	4	Temperatura máxima	24.6
154227	7	Sololá	719	Santiago Atitlán	14	Cerro de Oro	6	Junio	2023-11-06T00:00:00	2024-11-08T13:00:00	3	Temperatura mínima	23.4
154228	7	Sololá	719	Santiago Atitlán	14	Cerro de Oro	6	Junio	2023-11-06T00:00:00	2024-11-08T13:00:00	5	Humedad	74
154229	7	Sololá	719	Santiago Atitlán	14	Cerro de Oro	6	Junio	2023-11-06T00:00:00	2024-11-08T13:00:00	6	Velocidad del viento	11.3
154230	7	Sololá	719	Santiago Atitlán	14	Cerro de Oro	6	Junio	2023-11-06T00:00:00	2024-11-08T13:00:00	7	Dirección del viento	11.27
154231	7	Sololá	719	Santiago Atitlán	14	Cerro de Oro	6	Junio	2023-11-06T00:00:00	2024-11-08T13:00:00	1	Precipitación	0
154232	7	Sololá	719	Santiago Atitlán	14	Cerro de Oro	6	Junio	2023-11-06T00:00:00	2024-11-08T13:00:00	8	Radiación solar	893
154233	7	Sololá	719	Santiago Atitlán	14	Cerro de Oro	6	Junio	2023-11-06T00:00:00	2024-11-08T14:00:00	2	Temperatura media	24.6
154234	7	Sololá	719	Santiago Atitlán	14	Cerro de Oro	6	Junio	2023-11-06T00:00:00	2024-11-08T14:00:00	4	Temperatura máxima	24.8
154235	7	Sololá	719	Santiago Atitlán	14	Cerro de Oro	6	Junio	2023-11-06T00:00:00	2024-11-08T14:00:00	3	Temperatura mínima	23.7
154236	7	Sololá	719	Santiago Atitlán	14	Cerro de Oro	6	Junio	2023-11-06T00:00:00	2024-11-08T14:00:00	5	Humedad	74
154237	7	Sololá	719	Santiago Atitlán	14	Cerro de Oro	6	Junio	2023-11-06T00:00:00	2024-11-08T14:00:00	6	Velocidad del viento	11.3
154238	7	Sololá	719	Santiago Atitlán	14	Cerro de Oro	6	Junio	2023-11-06T00:00:00	2024-11-08T14:00:00	7	Dirección del viento	11.27
154239	7	Sololá	719	Santiago Atitlán	14	Cerro de Oro	6	Junio	2023-11-06T00:00:00	2024-11-08T14:00:00	1	Precipitación	0
154240	7	Sololá	719	Santiago Atitlán	14	Cerro de Oro	6	Junio	2023-11-06T00:00:00	2024-11-08T14:00:00	8	Radiación solar	775
154241	7	Sololá	719	Santiago Atitlán	14	Cerro de Oro	6	Junio	2023-11-06T00:00:00	2024-11-08T15:00:00	2	Temperatura media	23.8
154242	7	Sololá	719	Santiago Atitlán	14	Cerro de Oro	6	Junio	2023-11-06T00:00:00	2024-11-08T15:00:00	4	Temperatura máxima	24.8
154243	7	Sololá	719	Santiago Atitlán	14	Cerro de Oro	6	Junio	2023-11-06T00:00:00	2024-11-08T15:00:00	3	Temperatura mínima	23.8
154244	7	Sololá	719	Santiago Atitlán	14	Cerro de Oro	6	Junio	2023-11-06T00:00:00	2024-11-08T15:00:00	5	Humedad	78
154245	7	Sololá	719	Santiago Atitlán	14	Cerro de Oro	6	Junio	2023-11-06T00:00:00	2024-11-08T15:00:00	6	Velocidad del viento	9.7
154246	7	Sololá	719	Santiago Atitlán	14	Cerro de Oro	6	Junio	2023-11-06T00:00:00	2024-11-08T15:00:00	7	Dirección del viento	9.66
154247	7	Sololá	719	Santiago Atitlán	14	Cerro de Oro	6	Junio	2023-11-06T00:00:00	2024-11-08T15:00:00	1	Precipitación	0
154248	7	Sololá	719	Santiago Atitlán	14	Cerro de Oro	6	Junio	2023-11-06T00:00:00	2024-11-08T15:00:00	8	Radiación solar	366
154249	7	Sololá	719	Santiago Atitlán	14	Cerro de Oro	6	Junio	2023-11-06T00:00:00	2024-11-08T16:00:00	2	Temperatura media	23.3
154250	7	Sololá	719	Santiago Atitlán	14	Cerro de Oro	6	Junio	2023-11-06T00:00:00	2024-11-08T16:00:00	4	Temperatura máxima	23.8
154251	7	Sololá	719	Santiago Atitlán	14	Cerro de Oro	6	Junio	2023-11-06T00:00:00	2024-11-08T16:00:00	3	Temperatura mínima	23.3
154252	7	Sololá	719	Santiago Atitlán	14	Cerro de Oro	6	Junio	2023-11-06T00:00:00	2024-11-08T16:00:00	5	Humedad	78
154253	7	Sololá	719	Santiago Atitlán	14	Cerro de Oro	6	Junio	2023-11-06T00:00:00	2024-11-08T16:00:00	6	Velocidad del viento	9.7
154254	7	Sololá	719	Santiago Atitlán	14	Cerro de Oro	6	Junio	2023-11-06T00:00:00	2024-11-08T16:00:00	7	Dirección del viento	9.66
154255	7	Sololá	719	Santiago Atitlán	14	Cerro de Oro	6	Junio	2023-11-06T00:00:00	2024-11-08T16:00:00	1	Precipitación	0
154256	7	Sololá	719	Santiago Atitlán	14	Cerro de Oro	6	Junio	2023-11-06T00:00:00	2024-11-08T16:00:00	8	Radiación solar	214
154257	7	Sololá	719	Santiago Atitlán	14	Cerro de Oro	6	Junio	2023-11-06T00:00:00	2024-11-08T17:00:00	2	Temperatura media	22.7
154258	7	Sololá	719	Santiago Atitlán	14	Cerro de Oro	6	Junio	2023-11-06T00:00:00	2024-11-08T17:00:00	4	Temperatura máxima	23.3
154259	7	Sololá	719	Santiago Atitlán	14	Cerro de Oro	6	Junio	2023-11-06T00:00:00	2024-11-08T17:00:00	3	Temperatura mínima	22.7
154260	7	Sololá	719	Santiago Atitlán	14	Cerro de Oro	6	Junio	2023-11-06T00:00:00	2024-11-08T17:00:00	5	Humedad	81
154261	7	Sololá	719	Santiago Atitlán	14	Cerro de Oro	6	Junio	2023-11-06T00:00:00	2024-11-08T17:00:00	6	Velocidad del viento	8
154262	7	Sololá	719	Santiago Atitlán	14	Cerro de Oro	6	Junio	2023-11-06T00:00:00	2024-11-08T17:00:00	7	Dirección del viento	8.05
154263	7	Sololá	719	Santiago Atitlán	14	Cerro de Oro	6	Junio	2023-11-06T00:00:00	2024-11-08T17:00:00	1	Precipitación	0
154264	7	Sololá	719	Santiago Atitlán	14	Cerro de Oro	6	Junio	2023-11-06T00:00:00	2024-11-08T17:00:00	8	Radiación solar	160
154265	7	Sololá	719	Santiago Atitlán	14	Cerro de Oro	6	Junio	2023-11-06T00:00:00	2024-11-08T18:00:00	2	Temperatura media	22.2
154266	7	Sololá	719	Santiago Atitlán	14	Cerro de Oro	6	Junio	2023-11-06T00:00:00	2024-11-08T18:00:00	4	Temperatura máxima	22.7
154267	7	Sololá	719	Santiago Atitlán	14	Cerro de Oro	6	Junio	2023-11-06T00:00:00	2024-11-08T18:00:00	3	Temperatura mínima	22.2
154268	7	Sololá	719	Santiago Atitlán	14	Cerro de Oro	6	Junio	2023-11-06T00:00:00	2024-11-08T18:00:00	5	Humedad	84
154269	7	Sololá	719	Santiago Atitlán	14	Cerro de Oro	6	Junio	2023-11-06T00:00:00	2024-11-08T18:00:00	6	Velocidad del viento	6.4
154270	7	Sololá	719	Santiago Atitlán	14	Cerro de Oro	6	Junio	2023-11-06T00:00:00	2024-11-08T18:00:00	7	Dirección del viento	6.44
154271	7	Sololá	719	Santiago Atitlán	14	Cerro de Oro	6	Junio	2023-11-06T00:00:00	2024-11-08T18:00:00	1	Precipitación	0
154272	7	Sololá	719	Santiago Atitlán	14	Cerro de Oro	6	Junio	2023-11-06T00:00:00	2024-11-08T18:00:00	8	Radiación solar	89
154273	7	Sololá	719	Santiago Atitlán	14	Cerro de Oro	6	Junio	2023-11-06T00:00:00	2024-11-08T19:00:00	2	Temperatura media	21.2
154274	7	Sololá	719	Santiago Atitlán	14	Cerro de Oro	6	Junio	2023-11-06T00:00:00	2024-11-08T19:00:00	4	Temperatura máxima	22.2
154275	7	Sololá	719	Santiago Atitlán	14	Cerro de Oro	6	Junio	2023-11-06T00:00:00	2024-11-08T19:00:00	3	Temperatura mínima	21.2
154276	7	Sololá	719	Santiago Atitlán	14	Cerro de Oro	6	Junio	2023-11-06T00:00:00	2024-11-08T19:00:00	5	Humedad	87
154277	7	Sololá	719	Santiago Atitlán	14	Cerro de Oro	6	Junio	2023-11-06T00:00:00	2024-11-08T19:00:00	6	Velocidad del viento	6.4
154278	7	Sololá	719	Santiago Atitlán	14	Cerro de Oro	6	Junio	2023-11-06T00:00:00	2024-11-08T19:00:00	7	Dirección del viento	6.44
154279	7	Sololá	719	Santiago Atitlán	14	Cerro de Oro	6	Junio	2023-11-06T00:00:00	2024-11-08T19:00:00	1	Precipitación	0
154280	7	Sololá	719	Santiago Atitlán	14	Cerro de Oro	6	Junio	2023-11-06T00:00:00	2024-11-08T19:00:00	8	Radiación solar	0
154281	7	Sololá	719	Santiago Atitlán	14	Cerro de Oro	6	Junio	2023-11-06T00:00:00	2024-11-08T20:00:00	2	Temperatura media	20.8
154282	7	Sololá	719	Santiago Atitlán	14	Cerro de Oro	6	Junio	2023-11-06T00:00:00	2024-11-08T20:00:00	4	Temperatura máxima	21.2
154283	7	Sololá	719	Santiago Atitlán	14	Cerro de Oro	6	Junio	2023-11-06T00:00:00	2024-11-08T20:00:00	3	Temperatura mínima	20.7
154284	7	Sololá	719	Santiago Atitlán	14	Cerro de Oro	6	Junio	2023-11-06T00:00:00	2024-11-08T20:00:00	5	Humedad	86
154285	7	Sololá	719	Santiago Atitlán	14	Cerro de Oro	6	Junio	2023-11-06T00:00:00	2024-11-08T20:00:00	6	Velocidad del viento	4.8
154286	7	Sololá	719	Santiago Atitlán	14	Cerro de Oro	6	Junio	2023-11-06T00:00:00	2024-11-08T20:00:00	7	Dirección del viento	4.83
154287	7	Sololá	719	Santiago Atitlán	14	Cerro de Oro	6	Junio	2023-11-06T00:00:00	2024-11-08T20:00:00	1	Precipitación	0
154288	7	Sololá	719	Santiago Atitlán	14	Cerro de Oro	6	Junio	2023-11-06T00:00:00	2024-11-08T20:00:00	8	Radiación solar	0
154289	7	Sololá	719	Santiago Atitlán	14	Cerro de Oro	6	Junio	2023-11-06T00:00:00	2024-11-08T21:00:00	2	Temperatura media	20.5
154290	7	Sololá	719	Santiago Atitlán	14	Cerro de Oro	6	Junio	2023-11-06T00:00:00	2024-11-08T21:00:00	4	Temperatura máxima	20.9
154291	7	Sololá	719	Santiago Atitlán	14	Cerro de Oro	6	Junio	2023-11-06T00:00:00	2024-11-08T21:00:00	3	Temperatura mínima	20.5
154292	7	Sololá	719	Santiago Atitlán	14	Cerro de Oro	6	Junio	2023-11-06T00:00:00	2024-11-08T21:00:00	5	Humedad	87
154293	7	Sololá	719	Santiago Atitlán	14	Cerro de Oro	6	Junio	2023-11-06T00:00:00	2024-11-08T21:00:00	6	Velocidad del viento	8
154294	7	Sololá	719	Santiago Atitlán	14	Cerro de Oro	6	Junio	2023-11-06T00:00:00	2024-11-08T21:00:00	7	Dirección del viento	8.05
154295	7	Sololá	719	Santiago Atitlán	14	Cerro de Oro	6	Junio	2023-11-06T00:00:00	2024-11-08T21:00:00	1	Precipitación	0
154296	7	Sololá	719	Santiago Atitlán	14	Cerro de Oro	6	Junio	2023-11-06T00:00:00	2024-11-08T21:00:00	8	Radiación solar	0
154297	7	Sololá	719	Santiago Atitlán	14	Cerro de Oro	6	Junio	2023-11-06T00:00:00	2024-11-08T22:00:00	2	Temperatura media	20.1
154298	7	Sololá	719	Santiago Atitlán	14	Cerro de Oro	6	Junio	2023-11-06T00:00:00	2024-11-08T22:00:00	4	Temperatura máxima	20.6
154299	7	Sololá	719	Santiago Atitlán	14	Cerro de Oro	6	Junio	2023-11-06T00:00:00	2024-11-08T22:00:00	3	Temperatura mínima	19.8
154300	7	Sololá	719	Santiago Atitlán	14	Cerro de Oro	6	Junio	2023-11-06T00:00:00	2024-11-08T22:00:00	5	Humedad	86
154301	7	Sololá	719	Santiago Atitlán	14	Cerro de Oro	6	Junio	2023-11-06T00:00:00	2024-11-08T22:00:00	6	Velocidad del viento	4.8
154302	7	Sololá	719	Santiago Atitlán	14	Cerro de Oro	6	Junio	2023-11-06T00:00:00	2024-11-08T22:00:00	7	Dirección del viento	4.83
154303	7	Sololá	719	Santiago Atitlán	14	Cerro de Oro	6	Junio	2023-11-06T00:00:00	2024-11-08T22:00:00	1	Precipitación	0
154304	7	Sololá	719	Santiago Atitlán	14	Cerro de Oro	6	Junio	2023-11-06T00:00:00	2024-11-08T22:00:00	8	Radiación solar	0
154305	7	Sololá	719	Santiago Atitlán	14	Cerro de Oro	6	Junio	2023-11-06T00:00:00	2024-11-08T23:00:00	2	Temperatura media	20
154306	7	Sololá	719	Santiago Atitlán	14	Cerro de Oro	6	Junio	2023-11-06T00:00:00	2024-11-08T23:00:00	4	Temperatura máxima	20.3
154307	7	Sololá	719	Santiago Atitlán	14	Cerro de Oro	6	Junio	2023-11-06T00:00:00	2024-11-08T23:00:00	3	Temperatura mínima	19.8
154308	7	Sololá	719	Santiago Atitlán	14	Cerro de Oro	6	Junio	2023-11-06T00:00:00	2024-11-08T23:00:00	5	Humedad	87
154309	7	Sololá	719	Santiago Atitlán	14	Cerro de Oro	6	Junio	2023-11-06T00:00:00	2024-11-08T23:00:00	6	Velocidad del viento	4.8
154310	7	Sololá	719	Santiago Atitlán	14	Cerro de Oro	6	Junio	2023-11-06T00:00:00	2024-11-08T23:00:00	7	Dirección del viento	4.83
154311	7	Sololá	719	Santiago Atitlán	14	Cerro de Oro	6	Junio	2023-11-06T00:00:00	2024-11-08T23:00:00	1	Precipitación	0
154312	7	Sololá	719	Santiago Atitlán	14	Cerro de Oro	6	Junio	2023-11-06T00:00:00	2024-11-08T23:00:00	8	Radiación solar	0
154313	7	Sololá	719	Santiago Atitlán	14	Cerro de Oro	6	Junio	2023-12-06T00:00:00	2024-11-08T00:00:00	2	Temperatura media	19.2
154314	7	Sololá	719	Santiago Atitlán	14	Cerro de Oro	6	Junio	2023-12-06T00:00:00	2024-11-08T00:00:00	4	Temperatura máxima	20.1
154315	7	Sololá	719	Santiago Atitlán	14	Cerro de Oro	6	Junio	2023-12-06T00:00:00	2024-11-08T00:00:00	3	Temperatura mínima	19.2
154316	7	Sololá	719	Santiago Atitlán	14	Cerro de Oro	6	Junio	2023-12-06T00:00:00	2024-11-08T00:00:00	5	Humedad	90
154317	7	Sololá	719	Santiago Atitlán	14	Cerro de Oro	6	Junio	2023-12-06T00:00:00	2024-11-08T00:00:00	6	Velocidad del viento	3.2
154318	7	Sololá	719	Santiago Atitlán	14	Cerro de Oro	6	Junio	2023-12-06T00:00:00	2024-11-08T00:00:00	7	Dirección del viento	3.22
154319	7	Sololá	719	Santiago Atitlán	14	Cerro de Oro	6	Junio	2023-12-06T00:00:00	2024-11-08T00:00:00	1	Precipitación	0
154320	7	Sololá	719	Santiago Atitlán	14	Cerro de Oro	6	Junio	2023-12-06T00:00:00	2024-11-08T00:00:00	8	Radiación solar	0
154321	7	Sololá	719	Santiago Atitlán	14	Cerro de Oro	6	Junio	2023-12-06T00:00:00	2024-11-08T01:00:00	2	Temperatura media	19.3
154322	7	Sololá	719	Santiago Atitlán	14	Cerro de Oro	6	Junio	2023-12-06T00:00:00	2024-11-08T01:00:00	4	Temperatura máxima	19.7
154323	7	Sololá	719	Santiago Atitlán	14	Cerro de Oro	6	Junio	2023-12-06T00:00:00	2024-11-08T01:00:00	3	Temperatura mínima	18.9
154324	7	Sololá	719	Santiago Atitlán	14	Cerro de Oro	6	Junio	2023-12-06T00:00:00	2024-11-08T01:00:00	5	Humedad	90
154325	7	Sololá	719	Santiago Atitlán	14	Cerro de Oro	6	Junio	2023-12-06T00:00:00	2024-11-08T01:00:00	6	Velocidad del viento	4.8
154326	7	Sololá	719	Santiago Atitlán	14	Cerro de Oro	6	Junio	2023-12-06T00:00:00	2024-11-08T01:00:00	7	Dirección del viento	4.83
154327	7	Sololá	719	Santiago Atitlán	14	Cerro de Oro	6	Junio	2023-12-06T00:00:00	2024-11-08T01:00:00	1	Precipitación	0
154328	7	Sololá	719	Santiago Atitlán	14	Cerro de Oro	6	Junio	2023-12-06T00:00:00	2024-11-08T01:00:00	8	Radiación solar	0
154329	7	Sololá	719	Santiago Atitlán	14	Cerro de Oro	6	Junio	2023-12-06T00:00:00	2024-11-08T02:00:00	2	Temperatura media	18.7
154330	7	Sololá	719	Santiago Atitlán	14	Cerro de Oro	6	Junio	2023-12-06T00:00:00	2024-11-08T02:00:00	4	Temperatura máxima	19.4
154331	7	Sololá	719	Santiago Atitlán	14	Cerro de Oro	6	Junio	2023-12-06T00:00:00	2024-11-08T02:00:00	3	Temperatura mínima	18.7
154332	7	Sololá	719	Santiago Atitlán	14	Cerro de Oro	6	Junio	2023-12-06T00:00:00	2024-11-08T02:00:00	5	Humedad	92
154333	7	Sololá	719	Santiago Atitlán	14	Cerro de Oro	6	Junio	2023-12-06T00:00:00	2024-11-08T02:00:00	6	Velocidad del viento	4.8
154334	7	Sololá	719	Santiago Atitlán	14	Cerro de Oro	6	Junio	2023-12-06T00:00:00	2024-11-08T02:00:00	7	Dirección del viento	4.83
154335	7	Sololá	719	Santiago Atitlán	14	Cerro de Oro	6	Junio	2023-12-06T00:00:00	2024-11-08T02:00:00	1	Precipitación	0
154336	7	Sololá	719	Santiago Atitlán	14	Cerro de Oro	6	Junio	2023-12-06T00:00:00	2024-11-08T02:00:00	8	Radiación solar	0
154337	7	Sololá	719	Santiago Atitlán	14	Cerro de Oro	6	Junio	2023-12-06T00:00:00	2024-11-08T03:00:00	2	Temperatura media	18.7
154338	7	Sololá	719	Santiago Atitlán	14	Cerro de Oro	6	Junio	2023-12-06T00:00:00	2024-11-08T03:00:00	4	Temperatura máxima	19.2
154339	7	Sololá	719	Santiago Atitlán	14	Cerro de Oro	6	Junio	2023-12-06T00:00:00	2024-11-08T03:00:00	3	Temperatura mínima	18.7
154340	7	Sololá	719	Santiago Atitlán	14	Cerro de Oro	6	Junio	2023-12-06T00:00:00	2024-11-08T03:00:00	5	Humedad	90
154341	7	Sololá	719	Santiago Atitlán	14	Cerro de Oro	6	Junio	2023-12-06T00:00:00	2024-11-08T03:00:00	6	Velocidad del viento	4.8
154342	7	Sololá	719	Santiago Atitlán	14	Cerro de Oro	6	Junio	2023-12-06T00:00:00	2024-11-08T03:00:00	7	Dirección del viento	4.83
154343	7	Sololá	719	Santiago Atitlán	14	Cerro de Oro	6	Junio	2023-12-06T00:00:00	2024-11-08T03:00:00	1	Precipitación	0
154344	7	Sololá	719	Santiago Atitlán	14	Cerro de Oro	6	Junio	2023-12-06T00:00:00	2024-11-08T03:00:00	8	Radiación solar	0
154345	7	Sololá	719	Santiago Atitlán	14	Cerro de Oro	6	Junio	2023-12-06T00:00:00	2024-11-08T04:00:00	2	Temperatura media	18.5
154346	7	Sololá	719	Santiago Atitlán	14	Cerro de Oro	6	Junio	2023-12-06T00:00:00	2024-11-08T04:00:00	4	Temperatura máxima	19.1
154347	7	Sololá	719	Santiago Atitlán	14	Cerro de Oro	6	Junio	2023-12-06T00:00:00	2024-11-08T04:00:00	3	Temperatura mínima	18.4
154348	7	Sololá	719	Santiago Atitlán	14	Cerro de Oro	6	Junio	2023-12-06T00:00:00	2024-11-08T04:00:00	5	Humedad	88
154349	7	Sololá	719	Santiago Atitlán	14	Cerro de Oro	6	Junio	2023-12-06T00:00:00	2024-11-08T04:00:00	6	Velocidad del viento	4.8
154350	7	Sololá	719	Santiago Atitlán	14	Cerro de Oro	6	Junio	2023-12-06T00:00:00	2024-11-08T04:00:00	7	Dirección del viento	4.83
154351	7	Sololá	719	Santiago Atitlán	14	Cerro de Oro	6	Junio	2023-12-06T00:00:00	2024-11-08T04:00:00	1	Precipitación	0
154352	7	Sololá	719	Santiago Atitlán	14	Cerro de Oro	6	Junio	2023-12-06T00:00:00	2024-11-08T04:00:00	8	Radiación solar	0
154353	7	Sololá	719	Santiago Atitlán	14	Cerro de Oro	6	Junio	2023-12-06T00:00:00	2024-11-08T05:00:00	2	Temperatura media	18.6
154354	7	Sololá	719	Santiago Atitlán	14	Cerro de Oro	6	Junio	2023-12-06T00:00:00	2024-11-08T05:00:00	4	Temperatura máxima	18.9
154355	7	Sololá	719	Santiago Atitlán	14	Cerro de Oro	6	Junio	2023-12-06T00:00:00	2024-11-08T05:00:00	3	Temperatura mínima	18.3
154356	7	Sololá	719	Santiago Atitlán	14	Cerro de Oro	6	Junio	2023-12-06T00:00:00	2024-11-08T05:00:00	5	Humedad	88
154357	7	Sololá	719	Santiago Atitlán	14	Cerro de Oro	6	Junio	2023-12-06T00:00:00	2024-11-08T05:00:00	6	Velocidad del viento	4.8
154358	7	Sololá	719	Santiago Atitlán	14	Cerro de Oro	6	Junio	2023-12-06T00:00:00	2024-11-08T05:00:00	7	Dirección del viento	4.83
154359	7	Sololá	719	Santiago Atitlán	14	Cerro de Oro	6	Junio	2023-12-06T00:00:00	2024-11-08T05:00:00	1	Precipitación	0
154360	7	Sololá	719	Santiago Atitlán	14	Cerro de Oro	6	Junio	2023-12-06T00:00:00	2024-11-08T05:00:00	8	Radiación solar	0
154361	7	Sololá	719	Santiago Atitlán	14	Cerro de Oro	6	Junio	2023-12-06T00:00:00	2024-11-08T06:00:00	2	Temperatura media	18.7
154362	7	Sololá	719	Santiago Atitlán	14	Cerro de Oro	6	Junio	2023-12-06T00:00:00	2024-11-08T06:00:00	4	Temperatura máxima	18.7
154363	7	Sololá	719	Santiago Atitlán	14	Cerro de Oro	6	Junio	2023-12-06T00:00:00	2024-11-08T06:00:00	3	Temperatura mínima	18.1
154364	7	Sololá	719	Santiago Atitlán	14	Cerro de Oro	6	Junio	2023-12-06T00:00:00	2024-11-08T06:00:00	5	Humedad	86
154365	7	Sololá	719	Santiago Atitlán	14	Cerro de Oro	6	Junio	2023-12-06T00:00:00	2024-11-08T06:00:00	6	Velocidad del viento	3.2
154366	7	Sololá	719	Santiago Atitlán	14	Cerro de Oro	6	Junio	2023-12-06T00:00:00	2024-11-08T06:00:00	7	Dirección del viento	3.22
154367	7	Sololá	719	Santiago Atitlán	14	Cerro de Oro	6	Junio	2023-12-06T00:00:00	2024-11-08T06:00:00	1	Precipitación	0
154368	7	Sololá	719	Santiago Atitlán	14	Cerro de Oro	6	Junio	2023-12-06T00:00:00	2024-11-08T06:00:00	8	Radiación solar	9
154369	7	Sololá	719	Santiago Atitlán	14	Cerro de Oro	6	Junio	2023-12-06T00:00:00	2024-11-08T07:00:00	2	Temperatura media	20.8
154370	7	Sololá	719	Santiago Atitlán	14	Cerro de Oro	6	Junio	2023-12-06T00:00:00	2024-11-08T07:00:00	4	Temperatura máxima	20.8
154371	7	Sololá	719	Santiago Atitlán	14	Cerro de Oro	6	Junio	2023-12-06T00:00:00	2024-11-08T07:00:00	3	Temperatura mínima	18.7
154372	7	Sololá	719	Santiago Atitlán	14	Cerro de Oro	6	Junio	2023-12-06T00:00:00	2024-11-08T07:00:00	5	Humedad	78
154373	7	Sololá	719	Santiago Atitlán	14	Cerro de Oro	6	Junio	2023-12-06T00:00:00	2024-11-08T07:00:00	6	Velocidad del viento	3.2
154374	7	Sololá	719	Santiago Atitlán	14	Cerro de Oro	6	Junio	2023-12-06T00:00:00	2024-11-08T07:00:00	7	Dirección del viento	3.22
154375	7	Sololá	719	Santiago Atitlán	14	Cerro de Oro	6	Junio	2023-12-06T00:00:00	2024-11-08T07:00:00	1	Precipitación	0
154376	7	Sololá	719	Santiago Atitlán	14	Cerro de Oro	6	Junio	2023-12-06T00:00:00	2024-11-08T07:00:00	8	Radiación solar	123
154377	7	Sololá	719	Santiago Atitlán	14	Cerro de Oro	6	Junio	2023-12-06T00:00:00	2024-11-08T08:00:00	2	Temperatura media	23.4
154378	7	Sololá	719	Santiago Atitlán	14	Cerro de Oro	6	Junio	2023-12-06T00:00:00	2024-11-08T08:00:00	4	Temperatura máxima	23.4
154379	7	Sololá	719	Santiago Atitlán	14	Cerro de Oro	6	Junio	2023-12-06T00:00:00	2024-11-08T08:00:00	3	Temperatura mínima	20.8
154380	7	Sololá	719	Santiago Atitlán	14	Cerro de Oro	6	Junio	2023-12-06T00:00:00	2024-11-08T08:00:00	5	Humedad	71
154381	7	Sololá	719	Santiago Atitlán	14	Cerro de Oro	6	Junio	2023-12-06T00:00:00	2024-11-08T08:00:00	6	Velocidad del viento	3.2
154382	7	Sololá	719	Santiago Atitlán	14	Cerro de Oro	6	Junio	2023-12-06T00:00:00	2024-11-08T08:00:00	7	Dirección del viento	3.22
154383	7	Sololá	719	Santiago Atitlán	14	Cerro de Oro	6	Junio	2023-12-06T00:00:00	2024-11-08T08:00:00	1	Precipitación	0
154384	7	Sololá	719	Santiago Atitlán	14	Cerro de Oro	6	Junio	2023-12-06T00:00:00	2024-11-08T08:00:00	8	Radiación solar	332
154385	7	Sololá	719	Santiago Atitlán	14	Cerro de Oro	6	Junio	2023-12-06T00:00:00	2024-11-08T09:00:00	2	Temperatura media	24.3
154386	7	Sololá	719	Santiago Atitlán	14	Cerro de Oro	6	Junio	2023-12-06T00:00:00	2024-11-08T09:00:00	4	Temperatura máxima	24.3
154387	7	Sololá	719	Santiago Atitlán	14	Cerro de Oro	6	Junio	2023-12-06T00:00:00	2024-11-08T09:00:00	3	Temperatura mínima	22.8
154388	7	Sololá	719	Santiago Atitlán	14	Cerro de Oro	6	Junio	2023-12-06T00:00:00	2024-11-08T09:00:00	5	Humedad	72
154389	7	Sololá	719	Santiago Atitlán	14	Cerro de Oro	6	Junio	2023-12-06T00:00:00	2024-11-08T09:00:00	6	Velocidad del viento	3.2
154390	7	Sololá	719	Santiago Atitlán	14	Cerro de Oro	6	Junio	2023-12-06T00:00:00	2024-11-08T09:00:00	7	Dirección del viento	3.22
154391	7	Sololá	719	Santiago Atitlán	14	Cerro de Oro	6	Junio	2023-12-06T00:00:00	2024-11-08T09:00:00	1	Precipitación	0
154392	7	Sololá	719	Santiago Atitlán	14	Cerro de Oro	6	Junio	2023-12-06T00:00:00	2024-11-08T09:00:00	8	Radiación solar	531
154393	7	Sololá	719	Santiago Atitlán	14	Cerro de Oro	6	Junio	2023-12-06T00:00:00	2024-11-08T10:00:00	2	Temperatura media	25.8
154394	7	Sololá	719	Santiago Atitlán	14	Cerro de Oro	6	Junio	2023-12-06T00:00:00	2024-11-08T10:00:00	4	Temperatura máxima	26
154395	7	Sololá	719	Santiago Atitlán	14	Cerro de Oro	6	Junio	2023-12-06T00:00:00	2024-11-08T10:00:00	3	Temperatura mínima	24.3
154396	7	Sololá	719	Santiago Atitlán	14	Cerro de Oro	6	Junio	2023-12-06T00:00:00	2024-11-08T10:00:00	5	Humedad	59
154397	7	Sololá	719	Santiago Atitlán	14	Cerro de Oro	6	Junio	2023-12-06T00:00:00	2024-11-08T10:00:00	6	Velocidad del viento	6.4
154398	7	Sololá	719	Santiago Atitlán	14	Cerro de Oro	6	Junio	2023-12-06T00:00:00	2024-11-08T10:00:00	7	Dirección del viento	6.44
154399	7	Sololá	719	Santiago Atitlán	14	Cerro de Oro	6	Junio	2023-12-06T00:00:00	2024-11-08T10:00:00	1	Precipitación	0
154400	7	Sololá	719	Santiago Atitlán	14	Cerro de Oro	6	Junio	2023-12-06T00:00:00	2024-11-08T10:00:00	8	Radiación solar	697
154401	7	Sololá	719	Santiago Atitlán	14	Cerro de Oro	6	Junio	2023-12-06T00:00:00	2024-11-08T11:00:00	2	Temperatura media	27.2
154402	7	Sololá	719	Santiago Atitlán	14	Cerro de Oro	6	Junio	2023-12-06T00:00:00	2024-11-08T11:00:00	4	Temperatura máxima	27.2
154403	7	Sololá	719	Santiago Atitlán	14	Cerro de Oro	6	Junio	2023-12-06T00:00:00	2024-11-08T11:00:00	3	Temperatura mínima	25.8
154404	7	Sololá	719	Santiago Atitlán	14	Cerro de Oro	6	Junio	2023-12-06T00:00:00	2024-11-08T11:00:00	5	Humedad	59
154405	7	Sololá	719	Santiago Atitlán	14	Cerro de Oro	6	Junio	2023-12-06T00:00:00	2024-11-08T11:00:00	6	Velocidad del viento	8
154406	7	Sololá	719	Santiago Atitlán	14	Cerro de Oro	6	Junio	2023-12-06T00:00:00	2024-11-08T11:00:00	7	Dirección del viento	8.05
154407	7	Sololá	719	Santiago Atitlán	14	Cerro de Oro	6	Junio	2023-12-06T00:00:00	2024-11-08T11:00:00	1	Precipitación	0
154408	7	Sololá	719	Santiago Atitlán	14	Cerro de Oro	6	Junio	2023-12-06T00:00:00	2024-11-08T11:00:00	8	Radiación solar	819
154409	7	Sololá	719	Santiago Atitlán	14	Cerro de Oro	6	Junio	2023-12-06T00:00:00	2024-11-08T12:00:00	2	Temperatura media	25.6
154410	7	Sololá	719	Santiago Atitlán	14	Cerro de Oro	6	Junio	2023-12-06T00:00:00	2024-11-08T12:00:00	4	Temperatura máxima	27.5
154411	7	Sololá	719	Santiago Atitlán	14	Cerro de Oro	6	Junio	2023-12-06T00:00:00	2024-11-08T12:00:00	3	Temperatura mínima	25.6
154412	7	Sololá	719	Santiago Atitlán	14	Cerro de Oro	6	Junio	2023-12-06T00:00:00	2024-11-08T12:00:00	5	Humedad	73
154413	7	Sololá	719	Santiago Atitlán	14	Cerro de Oro	6	Junio	2023-12-06T00:00:00	2024-11-08T12:00:00	6	Velocidad del viento	11.3
154414	7	Sololá	719	Santiago Atitlán	14	Cerro de Oro	6	Junio	2023-12-06T00:00:00	2024-11-08T12:00:00	7	Dirección del viento	11.27
154415	7	Sololá	719	Santiago Atitlán	14	Cerro de Oro	6	Junio	2023-12-06T00:00:00	2024-11-08T12:00:00	1	Precipitación	0
154416	7	Sololá	719	Santiago Atitlán	14	Cerro de Oro	6	Junio	2023-12-06T00:00:00	2024-11-08T12:00:00	8	Radiación solar	892
154417	7	Sololá	719	Santiago Atitlán	14	Cerro de Oro	6	Junio	2023-12-06T00:00:00	2024-11-08T13:00:00	2	Temperatura media	25.6
154418	7	Sololá	719	Santiago Atitlán	14	Cerro de Oro	6	Junio	2023-12-06T00:00:00	2024-11-08T13:00:00	4	Temperatura máxima	26.1
154419	7	Sololá	719	Santiago Atitlán	14	Cerro de Oro	6	Junio	2023-12-06T00:00:00	2024-11-08T13:00:00	3	Temperatura mínima	25.3
154420	7	Sololá	719	Santiago Atitlán	14	Cerro de Oro	6	Junio	2023-12-06T00:00:00	2024-11-08T13:00:00	5	Humedad	74
154421	7	Sololá	719	Santiago Atitlán	14	Cerro de Oro	6	Junio	2023-12-06T00:00:00	2024-11-08T13:00:00	6	Velocidad del viento	12.9
154422	7	Sololá	719	Santiago Atitlán	14	Cerro de Oro	6	Junio	2023-12-06T00:00:00	2024-11-08T13:00:00	7	Dirección del viento	12.87
154423	7	Sololá	719	Santiago Atitlán	14	Cerro de Oro	6	Junio	2023-12-06T00:00:00	2024-11-08T13:00:00	1	Precipitación	0
154424	7	Sololá	719	Santiago Atitlán	14	Cerro de Oro	6	Junio	2023-12-06T00:00:00	2024-11-08T13:00:00	8	Radiación solar	936
154425	7	Sololá	719	Santiago Atitlán	14	Cerro de Oro	6	Junio	2023-12-06T00:00:00	2024-11-08T14:00:00	2	Temperatura media	25.9
154426	7	Sololá	719	Santiago Atitlán	14	Cerro de Oro	6	Junio	2023-12-06T00:00:00	2024-11-08T14:00:00	4	Temperatura máxima	26.1
154427	7	Sololá	719	Santiago Atitlán	14	Cerro de Oro	6	Junio	2023-12-06T00:00:00	2024-11-08T14:00:00	3	Temperatura mínima	25.6
154428	7	Sololá	719	Santiago Atitlán	14	Cerro de Oro	6	Junio	2023-12-06T00:00:00	2024-11-08T14:00:00	5	Humedad	70
154429	7	Sololá	719	Santiago Atitlán	14	Cerro de Oro	6	Junio	2023-12-06T00:00:00	2024-11-08T14:00:00	6	Velocidad del viento	12.9
154430	7	Sololá	719	Santiago Atitlán	14	Cerro de Oro	6	Junio	2023-12-06T00:00:00	2024-11-08T14:00:00	7	Dirección del viento	12.87
154431	7	Sololá	719	Santiago Atitlán	14	Cerro de Oro	6	Junio	2023-12-06T00:00:00	2024-11-08T14:00:00	1	Precipitación	0
154432	7	Sololá	719	Santiago Atitlán	14	Cerro de Oro	6	Junio	2023-12-06T00:00:00	2024-11-08T14:00:00	8	Radiación solar	840
154433	7	Sololá	719	Santiago Atitlán	14	Cerro de Oro	6	Junio	2023-12-06T00:00:00	2024-11-08T15:00:00	2	Temperatura media	24.6
154434	7	Sololá	719	Santiago Atitlán	14	Cerro de Oro	6	Junio	2023-12-06T00:00:00	2024-11-08T15:00:00	4	Temperatura máxima	25.9
154435	7	Sololá	719	Santiago Atitlán	14	Cerro de Oro	6	Junio	2023-12-06T00:00:00	2024-11-08T15:00:00	3	Temperatura mínima	24.5
154436	7	Sololá	719	Santiago Atitlán	14	Cerro de Oro	6	Junio	2023-12-06T00:00:00	2024-11-08T15:00:00	5	Humedad	77
154437	7	Sololá	719	Santiago Atitlán	14	Cerro de Oro	6	Junio	2023-12-06T00:00:00	2024-11-08T15:00:00	6	Velocidad del viento	12.9
154438	7	Sololá	719	Santiago Atitlán	14	Cerro de Oro	6	Junio	2023-12-06T00:00:00	2024-11-08T15:00:00	7	Dirección del viento	12.87
154439	7	Sololá	719	Santiago Atitlán	14	Cerro de Oro	6	Junio	2023-12-06T00:00:00	2024-11-08T15:00:00	1	Precipitación	0
154440	7	Sololá	719	Santiago Atitlán	14	Cerro de Oro	6	Junio	2023-12-06T00:00:00	2024-11-08T15:00:00	8	Radiación solar	651
154441	7	Sololá	719	Santiago Atitlán	14	Cerro de Oro	6	Junio	2023-12-06T00:00:00	2024-11-08T16:00:00	2	Temperatura media	23.8
154442	7	Sololá	719	Santiago Atitlán	14	Cerro de Oro	6	Junio	2023-12-06T00:00:00	2024-11-08T16:00:00	4	Temperatura máxima	24.8
154443	7	Sololá	719	Santiago Atitlán	14	Cerro de Oro	6	Junio	2023-12-06T00:00:00	2024-11-08T16:00:00	3	Temperatura mínima	23.5
154444	7	Sololá	719	Santiago Atitlán	14	Cerro de Oro	6	Junio	2023-12-06T00:00:00	2024-11-08T16:00:00	5	Humedad	78
154445	7	Sololá	719	Santiago Atitlán	14	Cerro de Oro	6	Junio	2023-12-06T00:00:00	2024-11-08T16:00:00	6	Velocidad del viento	11.3
154446	7	Sololá	719	Santiago Atitlán	14	Cerro de Oro	6	Junio	2023-12-06T00:00:00	2024-11-08T16:00:00	7	Dirección del viento	11.27
154447	7	Sololá	719	Santiago Atitlán	14	Cerro de Oro	6	Junio	2023-12-06T00:00:00	2024-11-08T16:00:00	1	Precipitación	0
154448	7	Sololá	719	Santiago Atitlán	14	Cerro de Oro	6	Junio	2023-12-06T00:00:00	2024-11-08T16:00:00	8	Radiación solar	411
154449	7	Sololá	719	Santiago Atitlán	14	Cerro de Oro	6	Junio	2023-12-06T00:00:00	2024-11-08T17:00:00	2	Temperatura media	21.6
154450	7	Sololá	719	Santiago Atitlán	14	Cerro de Oro	6	Junio	2023-12-06T00:00:00	2024-11-08T17:00:00	4	Temperatura máxima	24.1
154451	7	Sololá	719	Santiago Atitlán	14	Cerro de Oro	6	Junio	2023-12-06T00:00:00	2024-11-08T17:00:00	3	Temperatura mínima	21.5
154452	7	Sololá	719	Santiago Atitlán	14	Cerro de Oro	6	Junio	2023-12-06T00:00:00	2024-11-08T17:00:00	5	Humedad	86
154453	7	Sololá	719	Santiago Atitlán	14	Cerro de Oro	6	Junio	2023-12-06T00:00:00	2024-11-08T17:00:00	6	Velocidad del viento	9.7
154454	7	Sololá	719	Santiago Atitlán	14	Cerro de Oro	6	Junio	2023-12-06T00:00:00	2024-11-08T17:00:00	7	Dirección del viento	9.66
154455	7	Sololá	719	Santiago Atitlán	14	Cerro de Oro	6	Junio	2023-12-06T00:00:00	2024-11-08T17:00:00	1	Precipitación	0
154456	7	Sololá	719	Santiago Atitlán	14	Cerro de Oro	6	Junio	2023-12-06T00:00:00	2024-11-08T17:00:00	8	Radiación solar	101
154457	7	Sololá	719	Santiago Atitlán	14	Cerro de Oro	6	Junio	2023-12-06T00:00:00	2024-11-08T18:00:00	2	Temperatura media	20.2
154458	7	Sololá	719	Santiago Atitlán	14	Cerro de Oro	6	Junio	2023-12-06T00:00:00	2024-11-08T18:00:00	4	Temperatura máxima	21.7
154459	7	Sololá	719	Santiago Atitlán	14	Cerro de Oro	6	Junio	2023-12-06T00:00:00	2024-11-08T18:00:00	3	Temperatura mínima	20.1
154460	7	Sololá	719	Santiago Atitlán	14	Cerro de Oro	6	Junio	2023-12-06T00:00:00	2024-11-08T18:00:00	5	Humedad	92
154461	7	Sololá	719	Santiago Atitlán	14	Cerro de Oro	6	Junio	2023-12-06T00:00:00	2024-11-08T18:00:00	6	Velocidad del viento	9.7
154462	7	Sololá	719	Santiago Atitlán	14	Cerro de Oro	6	Junio	2023-12-06T00:00:00	2024-11-08T18:00:00	7	Dirección del viento	9.66
154463	7	Sololá	719	Santiago Atitlán	14	Cerro de Oro	6	Junio	2023-12-06T00:00:00	2024-11-08T18:00:00	1	Precipitación	0
154464	7	Sololá	719	Santiago Atitlán	14	Cerro de Oro	6	Junio	2023-12-06T00:00:00	2024-11-08T18:00:00	8	Radiación solar	38
154465	7	Sololá	719	Santiago Atitlán	14	Cerro de Oro	6	Junio	2023-12-06T00:00:00	2024-11-08T19:00:00	2	Temperatura media	20.4
154466	7	Sololá	719	Santiago Atitlán	14	Cerro de Oro	6	Junio	2023-12-06T00:00:00	2024-11-08T19:00:00	4	Temperatura máxima	20.4
154467	7	Sololá	719	Santiago Atitlán	14	Cerro de Oro	6	Junio	2023-12-06T00:00:00	2024-11-08T19:00:00	3	Temperatura mínima	19.9
154468	7	Sololá	719	Santiago Atitlán	14	Cerro de Oro	6	Junio	2023-12-06T00:00:00	2024-11-08T19:00:00	5	Humedad	90
154469	7	Sololá	719	Santiago Atitlán	14	Cerro de Oro	6	Junio	2023-12-06T00:00:00	2024-11-08T19:00:00	6	Velocidad del viento	6.4
154470	7	Sololá	719	Santiago Atitlán	14	Cerro de Oro	6	Junio	2023-12-06T00:00:00	2024-11-08T19:00:00	7	Dirección del viento	6.44
154471	7	Sololá	719	Santiago Atitlán	14	Cerro de Oro	6	Junio	2023-12-06T00:00:00	2024-11-08T19:00:00	1	Precipitación	0
154472	7	Sololá	719	Santiago Atitlán	14	Cerro de Oro	6	Junio	2023-12-06T00:00:00	2024-11-08T19:00:00	8	Radiación solar	0
154473	7	Sololá	719	Santiago Atitlán	14	Cerro de Oro	6	Junio	2023-12-06T00:00:00	2024-11-08T20:00:00	2	Temperatura media	20.6
154474	7	Sololá	719	Santiago Atitlán	14	Cerro de Oro	6	Junio	2023-12-06T00:00:00	2024-11-08T20:00:00	4	Temperatura máxima	20.9
154475	7	Sololá	719	Santiago Atitlán	14	Cerro de Oro	6	Junio	2023-12-06T00:00:00	2024-11-08T20:00:00	3	Temperatura mínima	20.3
154476	7	Sololá	719	Santiago Atitlán	14	Cerro de Oro	6	Junio	2023-12-06T00:00:00	2024-11-08T20:00:00	5	Humedad	89
154477	7	Sololá	719	Santiago Atitlán	14	Cerro de Oro	6	Junio	2023-12-06T00:00:00	2024-11-08T20:00:00	6	Velocidad del viento	4.8
154478	7	Sololá	719	Santiago Atitlán	14	Cerro de Oro	6	Junio	2023-12-06T00:00:00	2024-11-08T20:00:00	7	Dirección del viento	4.83
154479	7	Sololá	719	Santiago Atitlán	14	Cerro de Oro	6	Junio	2023-12-06T00:00:00	2024-11-08T20:00:00	1	Precipitación	0
154480	7	Sololá	719	Santiago Atitlán	14	Cerro de Oro	6	Junio	2023-12-06T00:00:00	2024-11-08T20:00:00	8	Radiación solar	0
154481	7	Sololá	719	Santiago Atitlán	14	Cerro de Oro	6	Junio	2023-12-06T00:00:00	2024-11-08T21:00:00	2	Temperatura media	20.2
154482	7	Sololá	719	Santiago Atitlán	14	Cerro de Oro	6	Junio	2023-12-06T00:00:00	2024-11-08T21:00:00	4	Temperatura máxima	20.8
154483	7	Sololá	719	Santiago Atitlán	14	Cerro de Oro	6	Junio	2023-12-06T00:00:00	2024-11-08T21:00:00	3	Temperatura mínima	20.2
154484	7	Sololá	719	Santiago Atitlán	14	Cerro de Oro	6	Junio	2023-12-06T00:00:00	2024-11-08T21:00:00	5	Humedad	90
154485	7	Sololá	719	Santiago Atitlán	14	Cerro de Oro	6	Junio	2023-12-06T00:00:00	2024-11-08T21:00:00	6	Velocidad del viento	1.6
154486	7	Sololá	719	Santiago Atitlán	14	Cerro de Oro	6	Junio	2023-12-06T00:00:00	2024-11-08T21:00:00	7	Dirección del viento	1.61
154487	7	Sololá	719	Santiago Atitlán	14	Cerro de Oro	6	Junio	2023-12-06T00:00:00	2024-11-08T21:00:00	1	Precipitación	0
154488	7	Sololá	719	Santiago Atitlán	14	Cerro de Oro	6	Junio	2023-12-06T00:00:00	2024-11-08T21:00:00	8	Radiación solar	0
154489	7	Sololá	719	Santiago Atitlán	14	Cerro de Oro	6	Junio	2023-12-06T00:00:00	2024-11-08T22:00:00	2	Temperatura media	19.6
154490	7	Sololá	719	Santiago Atitlán	14	Cerro de Oro	6	Junio	2023-12-06T00:00:00	2024-11-08T22:00:00	4	Temperatura máxima	20.3
154491	7	Sololá	719	Santiago Atitlán	14	Cerro de Oro	6	Junio	2023-12-06T00:00:00	2024-11-08T22:00:00	3	Temperatura mínima	19.5
154492	7	Sololá	719	Santiago Atitlán	14	Cerro de Oro	6	Junio	2023-12-06T00:00:00	2024-11-08T22:00:00	5	Humedad	91
154493	7	Sololá	719	Santiago Atitlán	14	Cerro de Oro	6	Junio	2023-12-06T00:00:00	2024-11-08T22:00:00	6	Velocidad del viento	1.6
154494	7	Sololá	719	Santiago Atitlán	14	Cerro de Oro	6	Junio	2023-12-06T00:00:00	2024-11-08T22:00:00	7	Dirección del viento	1.61
154495	7	Sololá	719	Santiago Atitlán	14	Cerro de Oro	6	Junio	2023-12-06T00:00:00	2024-11-08T22:00:00	1	Precipitación	0
154496	7	Sololá	719	Santiago Atitlán	14	Cerro de Oro	6	Junio	2023-12-06T00:00:00	2024-11-08T22:00:00	8	Radiación solar	0
154497	7	Sololá	719	Santiago Atitlán	14	Cerro de Oro	6	Junio	2023-12-06T00:00:00	2024-11-08T23:00:00	2	Temperatura media	19.6
154498	7	Sololá	719	Santiago Atitlán	14	Cerro de Oro	6	Junio	2023-12-06T00:00:00	2024-11-08T23:00:00	4	Temperatura máxima	19.8
154499	7	Sololá	719	Santiago Atitlán	14	Cerro de Oro	6	Junio	2023-12-06T00:00:00	2024-11-08T23:00:00	3	Temperatura mínima	19.5
154500	7	Sololá	719	Santiago Atitlán	14	Cerro de Oro	6	Junio	2023-12-06T00:00:00	2024-11-08T23:00:00	5	Humedad	91
154501	7	Sololá	719	Santiago Atitlán	14	Cerro de Oro	6	Junio	2023-12-06T00:00:00	2024-11-08T23:00:00	6	Velocidad del viento	3.2
154502	7	Sololá	719	Santiago Atitlán	14	Cerro de Oro	6	Junio	2023-12-06T00:00:00	2024-11-08T23:00:00	7	Dirección del viento	3.22
154503	7	Sololá	719	Santiago Atitlán	14	Cerro de Oro	6	Junio	2023-12-06T00:00:00	2024-11-08T23:00:00	1	Precipitación	0
154504	7	Sololá	719	Santiago Atitlán	14	Cerro de Oro	6	Junio	2023-12-06T00:00:00	2024-11-08T23:00:00	8	Radiación solar	0
154505	7	Sololá	719	Santiago Atitlán	14	Cerro de Oro	6	Junio	2023-06-13T00:00:00	2024-11-08T00:00:00	2	Temperatura media	19.1
154506	7	Sololá	719	Santiago Atitlán	14	Cerro de Oro	6	Junio	2023-06-13T00:00:00	2024-11-08T00:00:00	4	Temperatura máxima	19.7
154507	7	Sololá	719	Santiago Atitlán	14	Cerro de Oro	6	Junio	2023-06-13T00:00:00	2024-11-08T00:00:00	3	Temperatura mínima	19.1
154508	7	Sololá	719	Santiago Atitlán	14	Cerro de Oro	6	Junio	2023-06-13T00:00:00	2024-11-08T00:00:00	5	Humedad	92
154509	7	Sololá	719	Santiago Atitlán	14	Cerro de Oro	6	Junio	2023-06-13T00:00:00	2024-11-08T00:00:00	6	Velocidad del viento	3.2
154510	7	Sololá	719	Santiago Atitlán	14	Cerro de Oro	6	Junio	2023-06-13T00:00:00	2024-11-08T00:00:00	7	Dirección del viento	3.22
154511	7	Sololá	719	Santiago Atitlán	14	Cerro de Oro	6	Junio	2023-06-13T00:00:00	2024-11-08T00:00:00	1	Precipitación	0
154512	7	Sololá	719	Santiago Atitlán	14	Cerro de Oro	6	Junio	2023-06-13T00:00:00	2024-11-08T00:00:00	8	Radiación solar	0
154513	7	Sololá	719	Santiago Atitlán	14	Cerro de Oro	6	Junio	2023-06-13T00:00:00	2024-11-08T01:00:00	2	Temperatura media	19.3
154514	7	Sololá	719	Santiago Atitlán	14	Cerro de Oro	6	Junio	2023-06-13T00:00:00	2024-11-08T01:00:00	4	Temperatura máxima	19.3
154515	7	Sololá	719	Santiago Atitlán	14	Cerro de Oro	6	Junio	2023-06-13T00:00:00	2024-11-08T01:00:00	3	Temperatura mínima	18.9
154516	7	Sololá	719	Santiago Atitlán	14	Cerro de Oro	6	Junio	2023-06-13T00:00:00	2024-11-08T01:00:00	5	Humedad	91
154517	7	Sololá	719	Santiago Atitlán	14	Cerro de Oro	6	Junio	2023-06-13T00:00:00	2024-11-08T01:00:00	6	Velocidad del viento	3.2
154518	7	Sololá	719	Santiago Atitlán	14	Cerro de Oro	6	Junio	2023-06-13T00:00:00	2024-11-08T01:00:00	7	Dirección del viento	3.22
154519	7	Sololá	719	Santiago Atitlán	14	Cerro de Oro	6	Junio	2023-06-13T00:00:00	2024-11-08T01:00:00	1	Precipitación	0
154520	7	Sololá	719	Santiago Atitlán	14	Cerro de Oro	6	Junio	2023-06-13T00:00:00	2024-11-08T01:00:00	8	Radiación solar	0
154521	7	Sololá	719	Santiago Atitlán	14	Cerro de Oro	6	Junio	2023-06-13T00:00:00	2024-11-08T02:00:00	2	Temperatura media	18.8
154522	7	Sololá	719	Santiago Atitlán	14	Cerro de Oro	6	Junio	2023-06-13T00:00:00	2024-11-08T02:00:00	4	Temperatura máxima	19.3
154523	7	Sololá	719	Santiago Atitlán	14	Cerro de Oro	6	Junio	2023-06-13T00:00:00	2024-11-08T02:00:00	3	Temperatura mínima	18.8
154524	7	Sololá	719	Santiago Atitlán	14	Cerro de Oro	6	Junio	2023-06-13T00:00:00	2024-11-08T02:00:00	5	Humedad	92
154525	7	Sololá	719	Santiago Atitlán	14	Cerro de Oro	6	Junio	2023-06-13T00:00:00	2024-11-08T02:00:00	6	Velocidad del viento	3.2
154526	7	Sololá	719	Santiago Atitlán	14	Cerro de Oro	6	Junio	2023-06-13T00:00:00	2024-11-08T02:00:00	7	Dirección del viento	3.22
154527	7	Sololá	719	Santiago Atitlán	14	Cerro de Oro	6	Junio	2023-06-13T00:00:00	2024-11-08T02:00:00	1	Precipitación	0
154528	7	Sololá	719	Santiago Atitlán	14	Cerro de Oro	6	Junio	2023-06-13T00:00:00	2024-11-08T02:00:00	8	Radiación solar	0
154529	7	Sololá	719	Santiago Atitlán	14	Cerro de Oro	6	Junio	2023-06-13T00:00:00	2024-11-08T03:00:00	2	Temperatura media	18.5
154530	7	Sololá	719	Santiago Atitlán	14	Cerro de Oro	6	Junio	2023-06-13T00:00:00	2024-11-08T03:00:00	4	Temperatura máxima	18.9
154531	7	Sololá	719	Santiago Atitlán	14	Cerro de Oro	6	Junio	2023-06-13T00:00:00	2024-11-08T03:00:00	3	Temperatura mínima	18.3
154532	7	Sololá	719	Santiago Atitlán	14	Cerro de Oro	6	Junio	2023-06-13T00:00:00	2024-11-08T03:00:00	5	Humedad	89
154533	7	Sololá	719	Santiago Atitlán	14	Cerro de Oro	6	Junio	2023-06-13T00:00:00	2024-11-08T03:00:00	6	Velocidad del viento	4.8
154534	7	Sololá	719	Santiago Atitlán	14	Cerro de Oro	6	Junio	2023-06-13T00:00:00	2024-11-08T03:00:00	7	Dirección del viento	4.83
154535	7	Sololá	719	Santiago Atitlán	14	Cerro de Oro	6	Junio	2023-06-13T00:00:00	2024-11-08T03:00:00	1	Precipitación	0
154536	7	Sololá	719	Santiago Atitlán	14	Cerro de Oro	6	Junio	2023-06-13T00:00:00	2024-11-08T03:00:00	8	Radiación solar	0
154537	7	Sololá	719	Santiago Atitlán	14	Cerro de Oro	6	Junio	2023-06-13T00:00:00	2024-11-08T04:00:00	2	Temperatura media	18.8
154538	7	Sololá	719	Santiago Atitlán	14	Cerro de Oro	6	Junio	2023-06-13T00:00:00	2024-11-08T04:00:00	4	Temperatura máxima	18.9
154539	7	Sololá	719	Santiago Atitlán	14	Cerro de Oro	6	Junio	2023-06-13T00:00:00	2024-11-08T04:00:00	3	Temperatura mínima	18.4
154540	7	Sololá	719	Santiago Atitlán	14	Cerro de Oro	6	Junio	2023-06-13T00:00:00	2024-11-08T04:00:00	5	Humedad	87
154541	7	Sololá	719	Santiago Atitlán	14	Cerro de Oro	6	Junio	2023-06-13T00:00:00	2024-11-08T04:00:00	6	Velocidad del viento	3.2
154542	7	Sololá	719	Santiago Atitlán	14	Cerro de Oro	6	Junio	2023-06-13T00:00:00	2024-11-08T04:00:00	7	Dirección del viento	3.22
154543	7	Sololá	719	Santiago Atitlán	14	Cerro de Oro	6	Junio	2023-06-13T00:00:00	2024-11-08T04:00:00	1	Precipitación	0
154544	7	Sololá	719	Santiago Atitlán	14	Cerro de Oro	6	Junio	2023-06-13T00:00:00	2024-11-08T04:00:00	8	Radiación solar	0
154545	7	Sololá	719	Santiago Atitlán	14	Cerro de Oro	6	Junio	2023-06-13T00:00:00	2024-11-08T05:00:00	2	Temperatura media	18
154546	7	Sololá	719	Santiago Atitlán	14	Cerro de Oro	6	Junio	2023-06-13T00:00:00	2024-11-08T05:00:00	4	Temperatura máxima	18.9
154547	7	Sololá	719	Santiago Atitlán	14	Cerro de Oro	6	Junio	2023-06-13T00:00:00	2024-11-08T05:00:00	3	Temperatura mínima	17.8
154548	7	Sololá	719	Santiago Atitlán	14	Cerro de Oro	6	Junio	2023-06-13T00:00:00	2024-11-08T05:00:00	5	Humedad	85
154549	7	Sololá	719	Santiago Atitlán	14	Cerro de Oro	6	Junio	2023-06-13T00:00:00	2024-11-08T05:00:00	6	Velocidad del viento	4.8
154550	7	Sololá	719	Santiago Atitlán	14	Cerro de Oro	6	Junio	2023-06-13T00:00:00	2024-11-08T05:00:00	7	Dirección del viento	4.83
154551	7	Sololá	719	Santiago Atitlán	14	Cerro de Oro	6	Junio	2023-06-13T00:00:00	2024-11-08T05:00:00	1	Precipitación	0
154552	7	Sololá	719	Santiago Atitlán	14	Cerro de Oro	6	Junio	2023-06-13T00:00:00	2024-11-08T05:00:00	8	Radiación solar	0
154553	7	Sololá	719	Santiago Atitlán	14	Cerro de Oro	6	Junio	2023-06-13T00:00:00	2024-11-08T06:00:00	2	Temperatura media	18.9
154554	7	Sololá	719	Santiago Atitlán	14	Cerro de Oro	6	Junio	2023-06-13T00:00:00	2024-11-08T06:00:00	4	Temperatura máxima	19.6
154555	7	Sololá	719	Santiago Atitlán	14	Cerro de Oro	6	Junio	2023-06-13T00:00:00	2024-11-08T06:00:00	3	Temperatura mínima	18
154556	7	Sololá	719	Santiago Atitlán	14	Cerro de Oro	6	Junio	2023-06-13T00:00:00	2024-11-08T06:00:00	5	Humedad	75
154557	7	Sololá	719	Santiago Atitlán	14	Cerro de Oro	6	Junio	2023-06-13T00:00:00	2024-11-08T06:00:00	6	Velocidad del viento	6.4
154558	7	Sololá	719	Santiago Atitlán	14	Cerro de Oro	6	Junio	2023-06-13T00:00:00	2024-11-08T06:00:00	7	Dirección del viento	6.44
154559	7	Sololá	719	Santiago Atitlán	14	Cerro de Oro	6	Junio	2023-06-13T00:00:00	2024-11-08T06:00:00	1	Precipitación	0
154560	7	Sololá	719	Santiago Atitlán	14	Cerro de Oro	6	Junio	2023-06-13T00:00:00	2024-11-08T06:00:00	8	Radiación solar	8
154561	7	Sololá	719	Santiago Atitlán	14	Cerro de Oro	6	Junio	2023-06-13T00:00:00	2024-11-08T07:00:00	2	Temperatura media	20.2
154562	7	Sololá	719	Santiago Atitlán	14	Cerro de Oro	6	Junio	2023-06-13T00:00:00	2024-11-08T07:00:00	4	Temperatura máxima	20.2
154563	7	Sololá	719	Santiago Atitlán	14	Cerro de Oro	6	Junio	2023-06-13T00:00:00	2024-11-08T07:00:00	3	Temperatura mínima	18.8
154564	7	Sololá	719	Santiago Atitlán	14	Cerro de Oro	6	Junio	2023-06-13T00:00:00	2024-11-08T07:00:00	5	Humedad	85
154565	7	Sololá	719	Santiago Atitlán	14	Cerro de Oro	6	Junio	2023-06-13T00:00:00	2024-11-08T07:00:00	6	Velocidad del viento	4.8
154566	7	Sololá	719	Santiago Atitlán	14	Cerro de Oro	6	Junio	2023-06-13T00:00:00	2024-11-08T07:00:00	7	Dirección del viento	4.83
154567	7	Sololá	719	Santiago Atitlán	14	Cerro de Oro	6	Junio	2023-06-13T00:00:00	2024-11-08T07:00:00	1	Precipitación	0
154568	7	Sololá	719	Santiago Atitlán	14	Cerro de Oro	6	Junio	2023-06-13T00:00:00	2024-11-08T07:00:00	8	Radiación solar	103
154569	7	Sololá	719	Santiago Atitlán	14	Cerro de Oro	6	Junio	2023-06-13T00:00:00	2024-11-08T08:00:00	2	Temperatura media	22.1
154570	7	Sololá	719	Santiago Atitlán	14	Cerro de Oro	6	Junio	2023-06-13T00:00:00	2024-11-08T08:00:00	4	Temperatura máxima	22.1
154571	7	Sololá	719	Santiago Atitlán	14	Cerro de Oro	6	Junio	2023-06-13T00:00:00	2024-11-08T08:00:00	3	Temperatura mínima	20.2
154572	7	Sololá	719	Santiago Atitlán	14	Cerro de Oro	6	Junio	2023-06-13T00:00:00	2024-11-08T08:00:00	5	Humedad	77
154573	7	Sololá	719	Santiago Atitlán	14	Cerro de Oro	6	Junio	2023-06-13T00:00:00	2024-11-08T08:00:00	6	Velocidad del viento	1.6
154574	7	Sololá	719	Santiago Atitlán	14	Cerro de Oro	6	Junio	2023-06-13T00:00:00	2024-11-08T08:00:00	7	Dirección del viento	1.61
154575	7	Sololá	719	Santiago Atitlán	14	Cerro de Oro	6	Junio	2023-06-13T00:00:00	2024-11-08T08:00:00	1	Precipitación	0
154576	7	Sololá	719	Santiago Atitlán	14	Cerro de Oro	6	Junio	2023-06-13T00:00:00	2024-11-08T08:00:00	8	Radiación solar	258
154577	7	Sololá	719	Santiago Atitlán	14	Cerro de Oro	6	Junio	2023-06-13T00:00:00	2024-11-08T09:00:00	2	Temperatura media	23.8
154578	7	Sololá	719	Santiago Atitlán	14	Cerro de Oro	6	Junio	2023-06-13T00:00:00	2024-11-08T09:00:00	4	Temperatura máxima	23.8
154579	7	Sololá	719	Santiago Atitlán	14	Cerro de Oro	6	Junio	2023-06-13T00:00:00	2024-11-08T09:00:00	3	Temperatura mínima	22.1
154580	7	Sololá	719	Santiago Atitlán	14	Cerro de Oro	6	Junio	2023-06-13T00:00:00	2024-11-08T09:00:00	5	Humedad	72
154581	7	Sololá	719	Santiago Atitlán	14	Cerro de Oro	6	Junio	2023-06-13T00:00:00	2024-11-08T09:00:00	6	Velocidad del viento	3.2
154582	7	Sololá	719	Santiago Atitlán	14	Cerro de Oro	6	Junio	2023-06-13T00:00:00	2024-11-08T09:00:00	7	Dirección del viento	3.22
154583	7	Sololá	719	Santiago Atitlán	14	Cerro de Oro	6	Junio	2023-06-13T00:00:00	2024-11-08T09:00:00	1	Precipitación	0
154584	7	Sololá	719	Santiago Atitlán	14	Cerro de Oro	6	Junio	2023-06-13T00:00:00	2024-11-08T09:00:00	8	Radiación solar	485
154585	7	Sololá	719	Santiago Atitlán	14	Cerro de Oro	6	Junio	2023-06-13T00:00:00	2024-11-08T10:00:00	2	Temperatura media	25.2
154586	7	Sololá	719	Santiago Atitlán	14	Cerro de Oro	6	Junio	2023-06-13T00:00:00	2024-11-08T10:00:00	4	Temperatura máxima	25.2
154587	7	Sololá	719	Santiago Atitlán	14	Cerro de Oro	6	Junio	2023-06-13T00:00:00	2024-11-08T10:00:00	3	Temperatura mínima	23.8
154588	7	Sololá	719	Santiago Atitlán	14	Cerro de Oro	6	Junio	2023-06-13T00:00:00	2024-11-08T10:00:00	5	Humedad	65
154589	7	Sololá	719	Santiago Atitlán	14	Cerro de Oro	6	Junio	2023-06-13T00:00:00	2024-11-08T10:00:00	6	Velocidad del viento	4.8
154590	7	Sololá	719	Santiago Atitlán	14	Cerro de Oro	6	Junio	2023-06-13T00:00:00	2024-11-08T10:00:00	7	Dirección del viento	4.83
154591	7	Sololá	719	Santiago Atitlán	14	Cerro de Oro	6	Junio	2023-06-13T00:00:00	2024-11-08T10:00:00	1	Precipitación	0
154592	7	Sololá	719	Santiago Atitlán	14	Cerro de Oro	6	Junio	2023-06-13T00:00:00	2024-11-08T10:00:00	8	Radiación solar	657
154593	7	Sololá	719	Santiago Atitlán	14	Cerro de Oro	6	Junio	2023-06-13T00:00:00	2024-11-08T11:00:00	2	Temperatura media	25.2
154594	7	Sololá	719	Santiago Atitlán	14	Cerro de Oro	6	Junio	2023-06-13T00:00:00	2024-11-08T11:00:00	4	Temperatura máxima	26.1
154595	7	Sololá	719	Santiago Atitlán	14	Cerro de Oro	6	Junio	2023-06-13T00:00:00	2024-11-08T11:00:00	3	Temperatura mínima	25.1
154596	7	Sololá	719	Santiago Atitlán	14	Cerro de Oro	6	Junio	2023-06-13T00:00:00	2024-11-08T11:00:00	5	Humedad	67
154597	7	Sololá	719	Santiago Atitlán	14	Cerro de Oro	6	Junio	2023-06-13T00:00:00	2024-11-08T11:00:00	6	Velocidad del viento	6.4
154598	7	Sololá	719	Santiago Atitlán	14	Cerro de Oro	6	Junio	2023-06-13T00:00:00	2024-11-08T11:00:00	7	Dirección del viento	6.44
154599	7	Sololá	719	Santiago Atitlán	14	Cerro de Oro	6	Junio	2023-06-13T00:00:00	2024-11-08T11:00:00	1	Precipitación	0
154600	7	Sololá	719	Santiago Atitlán	14	Cerro de Oro	6	Junio	2023-06-13T00:00:00	2024-11-08T11:00:00	8	Radiación solar	816
154601	7	Sololá	719	Santiago Atitlán	14	Cerro de Oro	6	Junio	2023-06-13T00:00:00	2024-11-08T12:00:00	2	Temperatura media	26.7
154602	7	Sololá	719	Santiago Atitlán	14	Cerro de Oro	6	Junio	2023-06-13T00:00:00	2024-11-08T12:00:00	4	Temperatura máxima	26.9
154603	7	Sololá	719	Santiago Atitlán	14	Cerro de Oro	6	Junio	2023-06-13T00:00:00	2024-11-08T12:00:00	3	Temperatura mínima	25.2
154604	7	Sololá	719	Santiago Atitlán	14	Cerro de Oro	6	Junio	2023-06-13T00:00:00	2024-11-08T12:00:00	5	Humedad	69
154605	7	Sololá	719	Santiago Atitlán	14	Cerro de Oro	6	Junio	2023-06-13T00:00:00	2024-11-08T12:00:00	6	Velocidad del viento	6.4
154606	7	Sololá	719	Santiago Atitlán	14	Cerro de Oro	6	Junio	2023-06-13T00:00:00	2024-11-08T12:00:00	7	Dirección del viento	6.44
154607	7	Sololá	719	Santiago Atitlán	14	Cerro de Oro	6	Junio	2023-06-13T00:00:00	2024-11-08T12:00:00	1	Precipitación	0
154608	7	Sololá	719	Santiago Atitlán	14	Cerro de Oro	6	Junio	2023-06-13T00:00:00	2024-11-08T12:00:00	8	Radiación solar	872
154609	7	Sololá	719	Santiago Atitlán	14	Cerro de Oro	6	Junio	2023-06-13T00:00:00	2024-11-08T13:00:00	2	Temperatura media	25.2
154610	7	Sololá	719	Santiago Atitlán	14	Cerro de Oro	6	Junio	2023-06-13T00:00:00	2024-11-08T13:00:00	4	Temperatura máxima	26.7
154611	7	Sololá	719	Santiago Atitlán	14	Cerro de Oro	6	Junio	2023-06-13T00:00:00	2024-11-08T13:00:00	3	Temperatura mínima	24.7
154612	7	Sololá	719	Santiago Atitlán	14	Cerro de Oro	6	Junio	2023-06-13T00:00:00	2024-11-08T13:00:00	5	Humedad	72
154613	7	Sololá	719	Santiago Atitlán	14	Cerro de Oro	6	Junio	2023-06-13T00:00:00	2024-11-08T13:00:00	6	Velocidad del viento	12.9
154614	7	Sololá	719	Santiago Atitlán	14	Cerro de Oro	6	Junio	2023-06-13T00:00:00	2024-11-08T13:00:00	7	Dirección del viento	12.87
154615	7	Sololá	719	Santiago Atitlán	14	Cerro de Oro	6	Junio	2023-06-13T00:00:00	2024-11-08T13:00:00	1	Precipitación	0
154616	7	Sololá	719	Santiago Atitlán	14	Cerro de Oro	6	Junio	2023-06-13T00:00:00	2024-11-08T13:00:00	8	Radiación solar	814
154617	7	Sololá	719	Santiago Atitlán	14	Cerro de Oro	6	Junio	2023-06-13T00:00:00	2024-11-08T14:00:00	2	Temperatura media	24.6
154618	7	Sololá	719	Santiago Atitlán	14	Cerro de Oro	6	Junio	2023-06-13T00:00:00	2024-11-08T14:00:00	4	Temperatura máxima	25.3
154619	7	Sololá	719	Santiago Atitlán	14	Cerro de Oro	6	Junio	2023-06-13T00:00:00	2024-11-08T14:00:00	3	Temperatura mínima	24.6
154620	7	Sololá	719	Santiago Atitlán	14	Cerro de Oro	6	Junio	2023-06-13T00:00:00	2024-11-08T14:00:00	5	Humedad	76
154621	7	Sololá	719	Santiago Atitlán	14	Cerro de Oro	6	Junio	2023-06-13T00:00:00	2024-11-08T14:00:00	6	Velocidad del viento	12.9
154622	7	Sololá	719	Santiago Atitlán	14	Cerro de Oro	6	Junio	2023-06-13T00:00:00	2024-11-08T14:00:00	7	Dirección del viento	12.87
154623	7	Sololá	719	Santiago Atitlán	14	Cerro de Oro	6	Junio	2023-06-13T00:00:00	2024-11-08T14:00:00	1	Precipitación	0
154624	7	Sololá	719	Santiago Atitlán	14	Cerro de Oro	6	Junio	2023-06-13T00:00:00	2024-11-08T14:00:00	8	Radiación solar	799
154625	7	Sololá	719	Santiago Atitlán	14	Cerro de Oro	6	Junio	2023-06-13T00:00:00	2024-11-08T15:00:00	2	Temperatura media	25.1
154626	7	Sololá	719	Santiago Atitlán	14	Cerro de Oro	6	Junio	2023-06-13T00:00:00	2024-11-08T15:00:00	4	Temperatura máxima	25.1
154627	7	Sololá	719	Santiago Atitlán	14	Cerro de Oro	6	Junio	2023-06-13T00:00:00	2024-11-08T15:00:00	3	Temperatura mínima	24.3
154628	7	Sololá	719	Santiago Atitlán	14	Cerro de Oro	6	Junio	2023-06-13T00:00:00	2024-11-08T15:00:00	5	Humedad	70
154629	7	Sololá	719	Santiago Atitlán	14	Cerro de Oro	6	Junio	2023-06-13T00:00:00	2024-11-08T15:00:00	6	Velocidad del viento	11.3
154630	7	Sololá	719	Santiago Atitlán	14	Cerro de Oro	6	Junio	2023-06-13T00:00:00	2024-11-08T15:00:00	7	Dirección del viento	11.27
154631	7	Sololá	719	Santiago Atitlán	14	Cerro de Oro	6	Junio	2023-06-13T00:00:00	2024-11-08T15:00:00	1	Precipitación	0
154632	7	Sololá	719	Santiago Atitlán	14	Cerro de Oro	6	Junio	2023-06-13T00:00:00	2024-11-08T15:00:00	8	Radiación solar	531
154633	7	Sololá	719	Santiago Atitlán	14	Cerro de Oro	6	Junio	2023-06-13T00:00:00	2024-11-08T16:00:00	2	Temperatura media	23.1
154634	7	Sololá	719	Santiago Atitlán	14	Cerro de Oro	6	Junio	2023-06-13T00:00:00	2024-11-08T16:00:00	4	Temperatura máxima	25.2
154635	7	Sololá	719	Santiago Atitlán	14	Cerro de Oro	6	Junio	2023-06-13T00:00:00	2024-11-08T16:00:00	3	Temperatura mínima	23.1
154636	7	Sololá	719	Santiago Atitlán	14	Cerro de Oro	6	Junio	2023-06-13T00:00:00	2024-11-08T16:00:00	5	Humedad	81
154637	7	Sololá	719	Santiago Atitlán	14	Cerro de Oro	6	Junio	2023-06-13T00:00:00	2024-11-08T16:00:00	6	Velocidad del viento	11.3
154638	7	Sololá	719	Santiago Atitlán	14	Cerro de Oro	6	Junio	2023-06-13T00:00:00	2024-11-08T16:00:00	7	Dirección del viento	11.27
154639	7	Sololá	719	Santiago Atitlán	14	Cerro de Oro	6	Junio	2023-06-13T00:00:00	2024-11-08T16:00:00	1	Precipitación	0
154640	7	Sololá	719	Santiago Atitlán	14	Cerro de Oro	6	Junio	2023-06-13T00:00:00	2024-11-08T16:00:00	8	Radiación solar	304
154641	7	Sololá	719	Santiago Atitlán	14	Cerro de Oro	6	Junio	2023-06-13T00:00:00	2024-11-08T17:00:00	2	Temperatura media	23.2
154642	7	Sololá	719	Santiago Atitlán	14	Cerro de Oro	6	Junio	2023-06-13T00:00:00	2024-11-08T17:00:00	4	Temperatura máxima	23.2
154643	7	Sololá	719	Santiago Atitlán	14	Cerro de Oro	6	Junio	2023-06-13T00:00:00	2024-11-08T17:00:00	3	Temperatura mínima	22.7
154644	7	Sololá	719	Santiago Atitlán	14	Cerro de Oro	6	Junio	2023-06-13T00:00:00	2024-11-08T17:00:00	5	Humedad	79
154645	7	Sololá	719	Santiago Atitlán	14	Cerro de Oro	6	Junio	2023-06-13T00:00:00	2024-11-08T17:00:00	6	Velocidad del viento	9.7
154646	7	Sololá	719	Santiago Atitlán	14	Cerro de Oro	6	Junio	2023-06-13T00:00:00	2024-11-08T17:00:00	7	Dirección del viento	9.66
154647	7	Sololá	719	Santiago Atitlán	14	Cerro de Oro	6	Junio	2023-06-13T00:00:00	2024-11-08T17:00:00	1	Precipitación	0
154648	7	Sololá	719	Santiago Atitlán	14	Cerro de Oro	6	Junio	2023-06-13T00:00:00	2024-11-08T17:00:00	8	Radiación solar	202
154649	7	Sololá	719	Santiago Atitlán	14	Cerro de Oro	6	Junio	2023-06-13T00:00:00	2024-11-08T18:00:00	2	Temperatura media	21.7
154650	7	Sololá	719	Santiago Atitlán	14	Cerro de Oro	6	Junio	2023-06-13T00:00:00	2024-11-08T18:00:00	4	Temperatura máxima	23.2
154651	7	Sololá	719	Santiago Atitlán	14	Cerro de Oro	6	Junio	2023-06-13T00:00:00	2024-11-08T18:00:00	3	Temperatura mínima	21.7
154652	7	Sololá	719	Santiago Atitlán	14	Cerro de Oro	6	Junio	2023-06-13T00:00:00	2024-11-08T18:00:00	5	Humedad	84
154653	7	Sololá	719	Santiago Atitlán	14	Cerro de Oro	6	Junio	2023-06-13T00:00:00	2024-11-08T18:00:00	6	Velocidad del viento	8
154654	7	Sololá	719	Santiago Atitlán	14	Cerro de Oro	6	Junio	2023-06-13T00:00:00	2024-11-08T18:00:00	7	Dirección del viento	8.05
154655	7	Sololá	719	Santiago Atitlán	14	Cerro de Oro	6	Junio	2023-06-13T00:00:00	2024-11-08T18:00:00	1	Precipitación	0
154656	7	Sololá	719	Santiago Atitlán	14	Cerro de Oro	6	Junio	2023-06-13T00:00:00	2024-11-08T18:00:00	8	Radiación solar	104
154657	7	Sololá	719	Santiago Atitlán	14	Cerro de Oro	6	Junio	2023-06-13T00:00:00	2024-11-08T19:00:00	2	Temperatura media	21.1
154658	7	Sololá	719	Santiago Atitlán	14	Cerro de Oro	6	Junio	2023-06-13T00:00:00	2024-11-08T19:00:00	4	Temperatura máxima	21.9
154659	7	Sololá	719	Santiago Atitlán	14	Cerro de Oro	6	Junio	2023-06-13T00:00:00	2024-11-08T19:00:00	3	Temperatura mínima	21
154660	7	Sololá	719	Santiago Atitlán	14	Cerro de Oro	6	Junio	2023-06-13T00:00:00	2024-11-08T19:00:00	5	Humedad	86
154661	7	Sololá	719	Santiago Atitlán	14	Cerro de Oro	6	Junio	2023-06-13T00:00:00	2024-11-08T19:00:00	6	Velocidad del viento	6.4
154662	7	Sololá	719	Santiago Atitlán	14	Cerro de Oro	6	Junio	2023-06-13T00:00:00	2024-11-08T19:00:00	7	Dirección del viento	6.44
154663	7	Sololá	719	Santiago Atitlán	14	Cerro de Oro	6	Junio	2023-06-13T00:00:00	2024-11-08T19:00:00	1	Precipitación	0
154664	7	Sololá	719	Santiago Atitlán	14	Cerro de Oro	6	Junio	2023-06-13T00:00:00	2024-11-08T19:00:00	8	Radiación solar	0
154665	7	Sololá	719	Santiago Atitlán	14	Cerro de Oro	6	Junio	2023-06-13T00:00:00	2024-11-08T20:00:00	2	Temperatura media	20.8
154666	7	Sololá	719	Santiago Atitlán	14	Cerro de Oro	6	Junio	2023-06-13T00:00:00	2024-11-08T20:00:00	4	Temperatura máxima	21.3
154667	7	Sololá	719	Santiago Atitlán	14	Cerro de Oro	6	Junio	2023-06-13T00:00:00	2024-11-08T20:00:00	3	Temperatura mínima	20.7
154668	7	Sololá	719	Santiago Atitlán	14	Cerro de Oro	6	Junio	2023-06-13T00:00:00	2024-11-08T20:00:00	5	Humedad	88
154669	7	Sololá	719	Santiago Atitlán	14	Cerro de Oro	6	Junio	2023-06-13T00:00:00	2024-11-08T20:00:00	6	Velocidad del viento	4.8
154670	7	Sololá	719	Santiago Atitlán	14	Cerro de Oro	6	Junio	2023-06-13T00:00:00	2024-11-08T20:00:00	7	Dirección del viento	4.83
154671	7	Sololá	719	Santiago Atitlán	14	Cerro de Oro	6	Junio	2023-06-13T00:00:00	2024-11-08T20:00:00	1	Precipitación	0
154672	7	Sololá	719	Santiago Atitlán	14	Cerro de Oro	6	Junio	2023-06-13T00:00:00	2024-11-08T20:00:00	8	Radiación solar	0
154673	7	Sololá	719	Santiago Atitlán	14	Cerro de Oro	6	Junio	2023-06-13T00:00:00	2024-11-08T21:00:00	2	Temperatura media	20.4
154674	7	Sololá	719	Santiago Atitlán	14	Cerro de Oro	6	Junio	2023-06-13T00:00:00	2024-11-08T21:00:00	4	Temperatura máxima	20.8
154675	7	Sololá	719	Santiago Atitlán	14	Cerro de Oro	6	Junio	2023-06-13T00:00:00	2024-11-08T21:00:00	3	Temperatura mínima	20.4
154676	7	Sololá	719	Santiago Atitlán	14	Cerro de Oro	6	Junio	2023-06-13T00:00:00	2024-11-08T21:00:00	5	Humedad	87
154677	7	Sololá	719	Santiago Atitlán	14	Cerro de Oro	6	Junio	2023-06-13T00:00:00	2024-11-08T21:00:00	6	Velocidad del viento	3.2
154678	7	Sololá	719	Santiago Atitlán	14	Cerro de Oro	6	Junio	2023-06-13T00:00:00	2024-11-08T21:00:00	7	Dirección del viento	3.22
154679	7	Sololá	719	Santiago Atitlán	14	Cerro de Oro	6	Junio	2023-06-13T00:00:00	2024-11-08T21:00:00	1	Precipitación	0
154680	7	Sololá	719	Santiago Atitlán	14	Cerro de Oro	6	Junio	2023-06-13T00:00:00	2024-11-08T21:00:00	8	Radiación solar	0
154681	7	Sololá	719	Santiago Atitlán	14	Cerro de Oro	6	Junio	2023-06-13T00:00:00	2024-11-08T22:00:00	2	Temperatura media	21.6
154682	7	Sololá	719	Santiago Atitlán	14	Cerro de Oro	6	Junio	2023-06-13T00:00:00	2024-11-08T22:00:00	4	Temperatura máxima	21.6
154683	7	Sololá	719	Santiago Atitlán	14	Cerro de Oro	6	Junio	2023-06-13T00:00:00	2024-11-08T22:00:00	3	Temperatura mínima	20.4
154684	7	Sololá	719	Santiago Atitlán	14	Cerro de Oro	6	Junio	2023-06-13T00:00:00	2024-11-08T22:00:00	5	Humedad	78
154685	7	Sololá	719	Santiago Atitlán	14	Cerro de Oro	6	Junio	2023-06-13T00:00:00	2024-11-08T22:00:00	6	Velocidad del viento	4.8
154686	7	Sololá	719	Santiago Atitlán	14	Cerro de Oro	6	Junio	2023-06-13T00:00:00	2024-11-08T22:00:00	7	Dirección del viento	4.83
154687	7	Sololá	719	Santiago Atitlán	14	Cerro de Oro	6	Junio	2023-06-13T00:00:00	2024-11-08T22:00:00	1	Precipitación	0
154688	7	Sololá	719	Santiago Atitlán	14	Cerro de Oro	6	Junio	2023-06-13T00:00:00	2024-11-08T22:00:00	8	Radiación solar	0
154689	7	Sololá	719	Santiago Atitlán	14	Cerro de Oro	6	Junio	2023-06-13T00:00:00	2024-11-08T23:00:00	2	Temperatura media	21.5
154690	7	Sololá	719	Santiago Atitlán	14	Cerro de Oro	6	Junio	2023-06-13T00:00:00	2024-11-08T23:00:00	4	Temperatura máxima	21.9
154691	7	Sololá	719	Santiago Atitlán	14	Cerro de Oro	6	Junio	2023-06-13T00:00:00	2024-11-08T23:00:00	3	Temperatura mínima	21.4
154692	7	Sololá	719	Santiago Atitlán	14	Cerro de Oro	6	Junio	2023-06-13T00:00:00	2024-11-08T23:00:00	5	Humedad	77
154693	7	Sololá	719	Santiago Atitlán	14	Cerro de Oro	6	Junio	2023-06-13T00:00:00	2024-11-08T23:00:00	6	Velocidad del viento	3.2
154694	7	Sololá	719	Santiago Atitlán	14	Cerro de Oro	6	Junio	2023-06-13T00:00:00	2024-11-08T23:00:00	7	Dirección del viento	3.22
154695	7	Sololá	719	Santiago Atitlán	14	Cerro de Oro	6	Junio	2023-06-13T00:00:00	2024-11-08T23:00:00	1	Precipitación	0
154696	7	Sololá	719	Santiago Atitlán	14	Cerro de Oro	6	Junio	2023-06-13T00:00:00	2024-11-08T23:00:00	8	Radiación solar	0
154697	7	Sololá	719	Santiago Atitlán	14	Cerro de Oro	6	Junio	2023-06-14T00:00:00	2024-11-08T00:00:00	2	Temperatura media	21.2
154698	7	Sololá	719	Santiago Atitlán	14	Cerro de Oro	6	Junio	2023-06-14T00:00:00	2024-11-08T00:00:00	4	Temperatura máxima	21.6
154699	7	Sololá	719	Santiago Atitlán	14	Cerro de Oro	6	Junio	2023-06-14T00:00:00	2024-11-08T00:00:00	3	Temperatura mínima	20.8
154700	7	Sololá	719	Santiago Atitlán	14	Cerro de Oro	6	Junio	2023-06-14T00:00:00	2024-11-08T00:00:00	5	Humedad	76
154701	7	Sololá	719	Santiago Atitlán	14	Cerro de Oro	6	Junio	2023-06-14T00:00:00	2024-11-08T00:00:00	6	Velocidad del viento	4.8
154702	7	Sololá	719	Santiago Atitlán	14	Cerro de Oro	6	Junio	2023-06-14T00:00:00	2024-11-08T00:00:00	7	Dirección del viento	4.83
154703	7	Sololá	719	Santiago Atitlán	14	Cerro de Oro	6	Junio	2023-06-14T00:00:00	2024-11-08T00:00:00	1	Precipitación	0
154704	7	Sololá	719	Santiago Atitlán	14	Cerro de Oro	6	Junio	2023-06-14T00:00:00	2024-11-08T00:00:00	8	Radiación solar	0
154705	7	Sololá	719	Santiago Atitlán	14	Cerro de Oro	6	Junio	2023-06-14T00:00:00	2024-11-08T01:00:00	2	Temperatura media	21.3
154706	7	Sololá	719	Santiago Atitlán	14	Cerro de Oro	6	Junio	2023-06-14T00:00:00	2024-11-08T01:00:00	4	Temperatura máxima	21.8
154707	7	Sololá	719	Santiago Atitlán	14	Cerro de Oro	6	Junio	2023-06-14T00:00:00	2024-11-08T01:00:00	3	Temperatura mínima	20.9
154708	7	Sololá	719	Santiago Atitlán	14	Cerro de Oro	6	Junio	2023-06-14T00:00:00	2024-11-08T01:00:00	5	Humedad	76
154709	7	Sololá	719	Santiago Atitlán	14	Cerro de Oro	6	Junio	2023-06-14T00:00:00	2024-11-08T01:00:00	6	Velocidad del viento	6.4
154710	7	Sololá	719	Santiago Atitlán	14	Cerro de Oro	6	Junio	2023-06-14T00:00:00	2024-11-08T01:00:00	7	Dirección del viento	6.44
154711	7	Sololá	719	Santiago Atitlán	14	Cerro de Oro	6	Junio	2023-06-14T00:00:00	2024-11-08T01:00:00	1	Precipitación	0
154712	7	Sololá	719	Santiago Atitlán	14	Cerro de Oro	6	Junio	2023-06-14T00:00:00	2024-11-08T01:00:00	8	Radiación solar	0
154713	7	Sololá	719	Santiago Atitlán	14	Cerro de Oro	6	Junio	2023-06-14T00:00:00	2024-11-08T02:00:00	2	Temperatura media	20.6
154714	7	Sololá	719	Santiago Atitlán	14	Cerro de Oro	6	Junio	2023-06-14T00:00:00	2024-11-08T02:00:00	4	Temperatura máxima	21.3
154715	7	Sololá	719	Santiago Atitlán	14	Cerro de Oro	6	Junio	2023-06-14T00:00:00	2024-11-08T02:00:00	3	Temperatura mínima	20.4
154716	7	Sololá	719	Santiago Atitlán	14	Cerro de Oro	6	Junio	2023-06-14T00:00:00	2024-11-08T02:00:00	5	Humedad	76
154717	7	Sololá	719	Santiago Atitlán	14	Cerro de Oro	6	Junio	2023-06-14T00:00:00	2024-11-08T02:00:00	6	Velocidad del viento	4.8
154718	7	Sololá	719	Santiago Atitlán	14	Cerro de Oro	6	Junio	2023-06-14T00:00:00	2024-11-08T02:00:00	7	Dirección del viento	4.83
154719	7	Sololá	719	Santiago Atitlán	14	Cerro de Oro	6	Junio	2023-06-14T00:00:00	2024-11-08T02:00:00	1	Precipitación	0
154720	7	Sololá	719	Santiago Atitlán	14	Cerro de Oro	6	Junio	2023-06-14T00:00:00	2024-11-08T02:00:00	8	Radiación solar	0
154721	7	Sololá	719	Santiago Atitlán	14	Cerro de Oro	6	Junio	2023-06-14T00:00:00	2024-11-08T03:00:00	2	Temperatura media	20.1
154722	7	Sololá	719	Santiago Atitlán	14	Cerro de Oro	6	Junio	2023-06-14T00:00:00	2024-11-08T03:00:00	4	Temperatura máxima	20.6
154723	7	Sololá	719	Santiago Atitlán	14	Cerro de Oro	6	Junio	2023-06-14T00:00:00	2024-11-08T03:00:00	3	Temperatura mínima	20
154724	7	Sololá	719	Santiago Atitlán	14	Cerro de Oro	6	Junio	2023-06-14T00:00:00	2024-11-08T03:00:00	5	Humedad	77
154725	7	Sololá	719	Santiago Atitlán	14	Cerro de Oro	6	Junio	2023-06-14T00:00:00	2024-11-08T03:00:00	6	Velocidad del viento	3.2
154726	7	Sololá	719	Santiago Atitlán	14	Cerro de Oro	6	Junio	2023-06-14T00:00:00	2024-11-08T03:00:00	7	Dirección del viento	3.22
154727	7	Sololá	719	Santiago Atitlán	14	Cerro de Oro	6	Junio	2023-06-14T00:00:00	2024-11-08T03:00:00	1	Precipitación	0
154728	7	Sololá	719	Santiago Atitlán	14	Cerro de Oro	6	Junio	2023-06-14T00:00:00	2024-11-08T03:00:00	8	Radiación solar	0
154729	7	Sololá	719	Santiago Atitlán	14	Cerro de Oro	6	Junio	2023-06-14T00:00:00	2024-11-08T04:00:00	2	Temperatura media	19.7
154730	7	Sololá	719	Santiago Atitlán	14	Cerro de Oro	6	Junio	2023-06-14T00:00:00	2024-11-08T04:00:00	4	Temperatura máxima	20.1
154731	7	Sololá	719	Santiago Atitlán	14	Cerro de Oro	6	Junio	2023-06-14T00:00:00	2024-11-08T04:00:00	3	Temperatura mínima	19.5
154732	7	Sololá	719	Santiago Atitlán	14	Cerro de Oro	6	Junio	2023-06-14T00:00:00	2024-11-08T04:00:00	5	Humedad	76
154733	7	Sololá	719	Santiago Atitlán	14	Cerro de Oro	6	Junio	2023-06-14T00:00:00	2024-11-08T04:00:00	6	Velocidad del viento	6.4
154734	7	Sololá	719	Santiago Atitlán	14	Cerro de Oro	6	Junio	2023-06-14T00:00:00	2024-11-08T04:00:00	7	Dirección del viento	6.44
154735	7	Sololá	719	Santiago Atitlán	14	Cerro de Oro	6	Junio	2023-06-14T00:00:00	2024-11-08T04:00:00	1	Precipitación	0
154736	7	Sololá	719	Santiago Atitlán	14	Cerro de Oro	6	Junio	2023-06-14T00:00:00	2024-11-08T04:00:00	8	Radiación solar	0
154737	7	Sololá	719	Santiago Atitlán	14	Cerro de Oro	6	Junio	2023-06-14T00:00:00	2024-11-08T05:00:00	2	Temperatura media	19.9
154738	7	Sololá	719	Santiago Atitlán	14	Cerro de Oro	6	Junio	2023-06-14T00:00:00	2024-11-08T05:00:00	4	Temperatura máxima	19.9
154739	7	Sololá	719	Santiago Atitlán	14	Cerro de Oro	6	Junio	2023-06-14T00:00:00	2024-11-08T05:00:00	3	Temperatura mínima	19.3
154740	7	Sololá	719	Santiago Atitlán	14	Cerro de Oro	6	Junio	2023-06-14T00:00:00	2024-11-08T05:00:00	5	Humedad	75
154741	7	Sololá	719	Santiago Atitlán	14	Cerro de Oro	6	Junio	2023-06-14T00:00:00	2024-11-08T05:00:00	6	Velocidad del viento	4.8
154742	7	Sololá	719	Santiago Atitlán	14	Cerro de Oro	6	Junio	2023-06-14T00:00:00	2024-11-08T05:00:00	7	Dirección del viento	4.83
154743	7	Sololá	719	Santiago Atitlán	14	Cerro de Oro	6	Junio	2023-06-14T00:00:00	2024-11-08T05:00:00	1	Precipitación	0
154744	7	Sololá	719	Santiago Atitlán	14	Cerro de Oro	6	Junio	2023-06-14T00:00:00	2024-11-08T05:00:00	8	Radiación solar	0
154745	7	Sololá	719	Santiago Atitlán	14	Cerro de Oro	6	Junio	2023-06-14T00:00:00	2024-11-08T06:00:00	2	Temperatura media	19.8
154746	7	Sololá	719	Santiago Atitlán	14	Cerro de Oro	6	Junio	2023-06-14T00:00:00	2024-11-08T06:00:00	4	Temperatura máxima	20.1
154747	7	Sololá	719	Santiago Atitlán	14	Cerro de Oro	6	Junio	2023-06-14T00:00:00	2024-11-08T06:00:00	3	Temperatura mínima	19.7
154748	7	Sololá	719	Santiago Atitlán	14	Cerro de Oro	6	Junio	2023-06-14T00:00:00	2024-11-08T06:00:00	5	Humedad	77
154749	7	Sololá	719	Santiago Atitlán	14	Cerro de Oro	6	Junio	2023-06-14T00:00:00	2024-11-08T06:00:00	6	Velocidad del viento	4.8
154750	7	Sololá	719	Santiago Atitlán	14	Cerro de Oro	6	Junio	2023-06-14T00:00:00	2024-11-08T06:00:00	7	Dirección del viento	4.83
154751	7	Sololá	719	Santiago Atitlán	14	Cerro de Oro	6	Junio	2023-06-14T00:00:00	2024-11-08T06:00:00	1	Precipitación	0
154752	7	Sololá	719	Santiago Atitlán	14	Cerro de Oro	6	Junio	2023-06-14T00:00:00	2024-11-08T06:00:00	8	Radiación solar	9
154753	7	Sololá	719	Santiago Atitlán	14	Cerro de Oro	6	Junio	2023-06-14T00:00:00	2024-11-08T07:00:00	2	Temperatura media	21.6
154754	7	Sololá	719	Santiago Atitlán	14	Cerro de Oro	6	Junio	2023-06-14T00:00:00	2024-11-08T07:00:00	4	Temperatura máxima	21.6
154755	7	Sololá	719	Santiago Atitlán	14	Cerro de Oro	6	Junio	2023-06-14T00:00:00	2024-11-08T07:00:00	3	Temperatura mínima	19.4
154756	7	Sololá	719	Santiago Atitlán	14	Cerro de Oro	6	Junio	2023-06-14T00:00:00	2024-11-08T07:00:00	5	Humedad	73
154757	7	Sololá	719	Santiago Atitlán	14	Cerro de Oro	6	Junio	2023-06-14T00:00:00	2024-11-08T07:00:00	6	Velocidad del viento	3.2
154758	7	Sololá	719	Santiago Atitlán	14	Cerro de Oro	6	Junio	2023-06-14T00:00:00	2024-11-08T07:00:00	7	Dirección del viento	3.22
154759	7	Sololá	719	Santiago Atitlán	14	Cerro de Oro	6	Junio	2023-06-14T00:00:00	2024-11-08T07:00:00	1	Precipitación	0
154760	7	Sololá	719	Santiago Atitlán	14	Cerro de Oro	6	Junio	2023-06-14T00:00:00	2024-11-08T07:00:00	8	Radiación solar	121
154761	7	Sololá	719	Santiago Atitlán	14	Cerro de Oro	6	Junio	2023-06-14T00:00:00	2024-11-08T08:00:00	2	Temperatura media	23.4
154762	7	Sololá	719	Santiago Atitlán	14	Cerro de Oro	6	Junio	2023-06-14T00:00:00	2024-11-08T08:00:00	4	Temperatura máxima	23.4
154763	7	Sololá	719	Santiago Atitlán	14	Cerro de Oro	6	Junio	2023-06-14T00:00:00	2024-11-08T08:00:00	3	Temperatura mínima	21.6
154764	7	Sololá	719	Santiago Atitlán	14	Cerro de Oro	6	Junio	2023-06-14T00:00:00	2024-11-08T08:00:00	5	Humedad	69
154765	7	Sololá	719	Santiago Atitlán	14	Cerro de Oro	6	Junio	2023-06-14T00:00:00	2024-11-08T08:00:00	6	Velocidad del viento	1.6
154766	7	Sololá	719	Santiago Atitlán	14	Cerro de Oro	6	Junio	2023-06-14T00:00:00	2024-11-08T08:00:00	7	Dirección del viento	1.61
154767	7	Sololá	719	Santiago Atitlán	14	Cerro de Oro	6	Junio	2023-06-14T00:00:00	2024-11-08T08:00:00	1	Precipitación	0
154768	7	Sololá	719	Santiago Atitlán	14	Cerro de Oro	6	Junio	2023-06-14T00:00:00	2024-11-08T08:00:00	8	Radiación solar	310
154769	7	Sololá	719	Santiago Atitlán	14	Cerro de Oro	6	Junio	2023-06-14T00:00:00	2024-11-08T09:00:00	2	Temperatura media	23.2
154770	7	Sololá	719	Santiago Atitlán	14	Cerro de Oro	6	Junio	2023-06-14T00:00:00	2024-11-08T09:00:00	4	Temperatura máxima	23.5
154771	7	Sololá	719	Santiago Atitlán	14	Cerro de Oro	6	Junio	2023-06-14T00:00:00	2024-11-08T09:00:00	3	Temperatura mínima	22.9
154772	7	Sololá	719	Santiago Atitlán	14	Cerro de Oro	6	Junio	2023-06-14T00:00:00	2024-11-08T09:00:00	5	Humedad	70
154773	7	Sololá	719	Santiago Atitlán	14	Cerro de Oro	6	Junio	2023-06-14T00:00:00	2024-11-08T09:00:00	6	Velocidad del viento	3.2
154774	7	Sololá	719	Santiago Atitlán	14	Cerro de Oro	6	Junio	2023-06-14T00:00:00	2024-11-08T09:00:00	7	Dirección del viento	3.22
154775	7	Sololá	719	Santiago Atitlán	14	Cerro de Oro	6	Junio	2023-06-14T00:00:00	2024-11-08T09:00:00	1	Precipitación	0
154776	7	Sololá	719	Santiago Atitlán	14	Cerro de Oro	6	Junio	2023-06-14T00:00:00	2024-11-08T09:00:00	8	Radiación solar	487
154777	7	Sololá	719	Santiago Atitlán	14	Cerro de Oro	6	Junio	2023-06-14T00:00:00	2024-11-08T10:00:00	2	Temperatura media	24.3
154778	7	Sololá	719	Santiago Atitlán	14	Cerro de Oro	6	Junio	2023-06-14T00:00:00	2024-11-08T10:00:00	4	Temperatura máxima	25
154779	7	Sololá	719	Santiago Atitlán	14	Cerro de Oro	6	Junio	2023-06-14T00:00:00	2024-11-08T10:00:00	3	Temperatura mínima	23.2
154780	7	Sololá	719	Santiago Atitlán	14	Cerro de Oro	6	Junio	2023-06-14T00:00:00	2024-11-08T10:00:00	5	Humedad	74
154781	7	Sololá	719	Santiago Atitlán	14	Cerro de Oro	6	Junio	2023-06-14T00:00:00	2024-11-08T10:00:00	6	Velocidad del viento	8
154782	7	Sololá	719	Santiago Atitlán	14	Cerro de Oro	6	Junio	2023-06-14T00:00:00	2024-11-08T10:00:00	7	Dirección del viento	8.05
154783	7	Sololá	719	Santiago Atitlán	14	Cerro de Oro	6	Junio	2023-06-14T00:00:00	2024-11-08T10:00:00	1	Precipitación	0
154784	7	Sololá	719	Santiago Atitlán	14	Cerro de Oro	6	Junio	2023-06-14T00:00:00	2024-11-08T10:00:00	8	Radiación solar	700
154785	7	Sololá	719	Santiago Atitlán	14	Cerro de Oro	6	Junio	2023-06-14T00:00:00	2024-11-08T11:00:00	2	Temperatura media	24.1
154786	7	Sololá	719	Santiago Atitlán	14	Cerro de Oro	6	Junio	2023-06-14T00:00:00	2024-11-08T11:00:00	4	Temperatura máxima	24.2
154787	7	Sololá	719	Santiago Atitlán	14	Cerro de Oro	6	Junio	2023-06-14T00:00:00	2024-11-08T11:00:00	3	Temperatura mínima	23.3
154788	7	Sololá	719	Santiago Atitlán	14	Cerro de Oro	6	Junio	2023-06-14T00:00:00	2024-11-08T11:00:00	5	Humedad	72
154789	7	Sololá	719	Santiago Atitlán	14	Cerro de Oro	6	Junio	2023-06-14T00:00:00	2024-11-08T11:00:00	6	Velocidad del viento	14.5
154790	7	Sololá	719	Santiago Atitlán	14	Cerro de Oro	6	Junio	2023-06-14T00:00:00	2024-11-08T11:00:00	7	Dirección del viento	14.48
154791	7	Sololá	719	Santiago Atitlán	14	Cerro de Oro	6	Junio	2023-06-14T00:00:00	2024-11-08T11:00:00	1	Precipitación	0
154792	7	Sololá	719	Santiago Atitlán	14	Cerro de Oro	6	Junio	2023-06-14T00:00:00	2024-11-08T11:00:00	8	Radiación solar	836
154793	7	Sololá	719	Santiago Atitlán	14	Cerro de Oro	6	Junio	2023-06-14T00:00:00	2024-11-08T12:00:00	2	Temperatura media	24.2
154794	7	Sololá	719	Santiago Atitlán	14	Cerro de Oro	6	Junio	2023-06-14T00:00:00	2024-11-08T12:00:00	4	Temperatura máxima	25.1
154795	7	Sololá	719	Santiago Atitlán	14	Cerro de Oro	6	Junio	2023-06-14T00:00:00	2024-11-08T12:00:00	3	Temperatura mínima	24.1
154796	7	Sololá	719	Santiago Atitlán	14	Cerro de Oro	6	Junio	2023-06-14T00:00:00	2024-11-08T12:00:00	5	Humedad	74
154797	7	Sololá	719	Santiago Atitlán	14	Cerro de Oro	6	Junio	2023-06-14T00:00:00	2024-11-08T12:00:00	6	Velocidad del viento	11.3
154798	7	Sololá	719	Santiago Atitlán	14	Cerro de Oro	6	Junio	2023-06-14T00:00:00	2024-11-08T12:00:00	7	Dirección del viento	11.27
154799	7	Sololá	719	Santiago Atitlán	14	Cerro de Oro	6	Junio	2023-06-14T00:00:00	2024-11-08T12:00:00	1	Precipitación	0
154800	7	Sololá	719	Santiago Atitlán	14	Cerro de Oro	6	Junio	2023-06-14T00:00:00	2024-11-08T12:00:00	8	Radiación solar	891
154801	7	Sololá	719	Santiago Atitlán	14	Cerro de Oro	6	Junio	2023-06-14T00:00:00	2024-11-08T13:00:00	2	Temperatura media	24.9
154802	7	Sololá	719	Santiago Atitlán	14	Cerro de Oro	6	Junio	2023-06-14T00:00:00	2024-11-08T13:00:00	4	Temperatura máxima	25
154803	7	Sololá	719	Santiago Atitlán	14	Cerro de Oro	6	Junio	2023-06-14T00:00:00	2024-11-08T13:00:00	3	Temperatura mínima	24.1
154804	7	Sololá	719	Santiago Atitlán	14	Cerro de Oro	6	Junio	2023-06-14T00:00:00	2024-11-08T13:00:00	5	Humedad	71
154805	7	Sololá	719	Santiago Atitlán	14	Cerro de Oro	6	Junio	2023-06-14T00:00:00	2024-11-08T13:00:00	6	Velocidad del viento	12.9
154806	7	Sololá	719	Santiago Atitlán	14	Cerro de Oro	6	Junio	2023-06-14T00:00:00	2024-11-08T13:00:00	7	Dirección del viento	12.87
154807	7	Sololá	719	Santiago Atitlán	14	Cerro de Oro	6	Junio	2023-06-14T00:00:00	2024-11-08T13:00:00	1	Precipitación	0
154808	7	Sololá	719	Santiago Atitlán	14	Cerro de Oro	6	Junio	2023-06-14T00:00:00	2024-11-08T13:00:00	8	Radiación solar	937
154809	7	Sololá	719	Santiago Atitlán	14	Cerro de Oro	6	Junio	2023-06-14T00:00:00	2024-11-08T14:00:00	2	Temperatura media	24.7
154810	7	Sololá	719	Santiago Atitlán	14	Cerro de Oro	6	Junio	2023-06-14T00:00:00	2024-11-08T14:00:00	4	Temperatura máxima	25.6
154811	7	Sololá	719	Santiago Atitlán	14	Cerro de Oro	6	Junio	2023-06-14T00:00:00	2024-11-08T14:00:00	3	Temperatura mínima	24.6
154812	7	Sololá	719	Santiago Atitlán	14	Cerro de Oro	6	Junio	2023-06-14T00:00:00	2024-11-08T14:00:00	5	Humedad	74
154813	7	Sololá	719	Santiago Atitlán	14	Cerro de Oro	6	Junio	2023-06-14T00:00:00	2024-11-08T14:00:00	6	Velocidad del viento	12.9
154814	7	Sololá	719	Santiago Atitlán	14	Cerro de Oro	6	Junio	2023-06-14T00:00:00	2024-11-08T14:00:00	7	Dirección del viento	12.87
154815	7	Sololá	719	Santiago Atitlán	14	Cerro de Oro	6	Junio	2023-06-14T00:00:00	2024-11-08T14:00:00	1	Precipitación	0
154816	7	Sololá	719	Santiago Atitlán	14	Cerro de Oro	6	Junio	2023-06-14T00:00:00	2024-11-08T14:00:00	8	Radiación solar	896
154817	7	Sololá	719	Santiago Atitlán	14	Cerro de Oro	6	Junio	2023-06-14T00:00:00	2024-11-08T15:00:00	2	Temperatura media	25.1
154818	7	Sololá	719	Santiago Atitlán	14	Cerro de Oro	6	Junio	2023-06-14T00:00:00	2024-11-08T15:00:00	4	Temperatura máxima	25.2
154819	7	Sololá	719	Santiago Atitlán	14	Cerro de Oro	6	Junio	2023-06-14T00:00:00	2024-11-08T15:00:00	3	Temperatura mínima	24.2
154820	7	Sololá	719	Santiago Atitlán	14	Cerro de Oro	6	Junio	2023-06-14T00:00:00	2024-11-08T15:00:00	5	Humedad	72
154821	7	Sololá	719	Santiago Atitlán	14	Cerro de Oro	6	Junio	2023-06-14T00:00:00	2024-11-08T15:00:00	6	Velocidad del viento	11.3
154822	7	Sololá	719	Santiago Atitlán	14	Cerro de Oro	6	Junio	2023-06-14T00:00:00	2024-11-08T15:00:00	7	Dirección del viento	11.27
154823	7	Sololá	719	Santiago Atitlán	14	Cerro de Oro	6	Junio	2023-06-14T00:00:00	2024-11-08T15:00:00	1	Precipitación	0
154824	7	Sololá	719	Santiago Atitlán	14	Cerro de Oro	6	Junio	2023-06-14T00:00:00	2024-11-08T15:00:00	8	Radiación solar	733
154825	7	Sololá	719	Santiago Atitlán	14	Cerro de Oro	6	Junio	2023-06-14T00:00:00	2024-11-08T16:00:00	2	Temperatura media	23.2
154826	7	Sololá	719	Santiago Atitlán	14	Cerro de Oro	6	Junio	2023-06-14T00:00:00	2024-11-08T16:00:00	4	Temperatura máxima	25.1
154827	7	Sololá	719	Santiago Atitlán	14	Cerro de Oro	6	Junio	2023-06-14T00:00:00	2024-11-08T16:00:00	3	Temperatura mínima	22.4
154828	7	Sololá	719	Santiago Atitlán	14	Cerro de Oro	6	Junio	2023-06-14T00:00:00	2024-11-08T16:00:00	5	Humedad	77
154829	7	Sololá	719	Santiago Atitlán	14	Cerro de Oro	6	Junio	2023-06-14T00:00:00	2024-11-08T16:00:00	6	Velocidad del viento	12.9
154830	7	Sololá	719	Santiago Atitlán	14	Cerro de Oro	6	Junio	2023-06-14T00:00:00	2024-11-08T16:00:00	7	Dirección del viento	12.87
154831	7	Sololá	719	Santiago Atitlán	14	Cerro de Oro	6	Junio	2023-06-14T00:00:00	2024-11-08T16:00:00	1	Precipitación	0
154832	7	Sololá	719	Santiago Atitlán	14	Cerro de Oro	6	Junio	2023-06-14T00:00:00	2024-11-08T16:00:00	8	Radiación solar	309
154833	7	Sololá	719	Santiago Atitlán	14	Cerro de Oro	6	Junio	2023-06-14T00:00:00	2024-11-08T17:00:00	2	Temperatura media	20.6
154834	7	Sololá	719	Santiago Atitlán	14	Cerro de Oro	6	Junio	2023-06-14T00:00:00	2024-11-08T17:00:00	4	Temperatura máxima	23.2
154835	7	Sololá	719	Santiago Atitlán	14	Cerro de Oro	6	Junio	2023-06-14T00:00:00	2024-11-08T17:00:00	3	Temperatura mínima	20.4
154836	7	Sololá	719	Santiago Atitlán	14	Cerro de Oro	6	Junio	2023-06-14T00:00:00	2024-11-08T17:00:00	5	Humedad	88
154837	7	Sololá	719	Santiago Atitlán	14	Cerro de Oro	6	Junio	2023-06-14T00:00:00	2024-11-08T17:00:00	6	Velocidad del viento	8
154838	7	Sololá	719	Santiago Atitlán	14	Cerro de Oro	6	Junio	2023-06-14T00:00:00	2024-11-08T17:00:00	7	Dirección del viento	8.05
154839	7	Sololá	719	Santiago Atitlán	14	Cerro de Oro	6	Junio	2023-06-14T00:00:00	2024-11-08T17:00:00	1	Precipitación	0
154840	7	Sololá	719	Santiago Atitlán	14	Cerro de Oro	6	Junio	2023-06-14T00:00:00	2024-11-08T17:00:00	8	Radiación solar	63
154841	7	Sololá	719	Santiago Atitlán	14	Cerro de Oro	6	Junio	2023-06-14T00:00:00	2024-11-08T18:00:00	2	Temperatura media	20.4
154842	7	Sololá	719	Santiago Atitlán	14	Cerro de Oro	6	Junio	2023-06-14T00:00:00	2024-11-08T18:00:00	4	Temperatura máxima	21.8
154843	7	Sololá	719	Santiago Atitlán	14	Cerro de Oro	6	Junio	2023-06-14T00:00:00	2024-11-08T18:00:00	3	Temperatura mínima	20.4
154844	7	Sololá	719	Santiago Atitlán	14	Cerro de Oro	6	Junio	2023-06-14T00:00:00	2024-11-08T18:00:00	5	Humedad	87
154845	7	Sololá	719	Santiago Atitlán	14	Cerro de Oro	6	Junio	2023-06-14T00:00:00	2024-11-08T18:00:00	6	Velocidad del viento	6.4
154846	7	Sololá	719	Santiago Atitlán	14	Cerro de Oro	6	Junio	2023-06-14T00:00:00	2024-11-08T18:00:00	7	Dirección del viento	6.44
154847	7	Sololá	719	Santiago Atitlán	14	Cerro de Oro	6	Junio	2023-06-14T00:00:00	2024-11-08T18:00:00	1	Precipitación	0
154848	7	Sololá	719	Santiago Atitlán	14	Cerro de Oro	6	Junio	2023-06-14T00:00:00	2024-11-08T18:00:00	8	Radiación solar	100
154849	7	Sololá	719	Santiago Atitlán	14	Cerro de Oro	6	Junio	2023-06-14T00:00:00	2024-11-08T19:00:00	2	Temperatura media	19.7
154850	7	Sololá	719	Santiago Atitlán	14	Cerro de Oro	6	Junio	2023-06-14T00:00:00	2024-11-08T19:00:00	4	Temperatura máxima	20.6
154851	7	Sololá	719	Santiago Atitlán	14	Cerro de Oro	6	Junio	2023-06-14T00:00:00	2024-11-08T19:00:00	3	Temperatura mínima	19.7
154852	7	Sololá	719	Santiago Atitlán	14	Cerro de Oro	6	Junio	2023-06-14T00:00:00	2024-11-08T19:00:00	5	Humedad	89
154853	7	Sololá	719	Santiago Atitlán	14	Cerro de Oro	6	Junio	2023-06-14T00:00:00	2024-11-08T19:00:00	6	Velocidad del viento	3.2
154854	7	Sololá	719	Santiago Atitlán	14	Cerro de Oro	6	Junio	2023-06-14T00:00:00	2024-11-08T19:00:00	7	Dirección del viento	3.22
154855	7	Sololá	719	Santiago Atitlán	14	Cerro de Oro	6	Junio	2023-06-14T00:00:00	2024-11-08T19:00:00	1	Precipitación	0
154856	7	Sololá	719	Santiago Atitlán	14	Cerro de Oro	6	Junio	2023-06-14T00:00:00	2024-11-08T19:00:00	8	Radiación solar	0
154857	7	Sololá	719	Santiago Atitlán	14	Cerro de Oro	6	Junio	2023-06-14T00:00:00	2024-11-08T20:00:00	2	Temperatura media	19.3
154858	7	Sololá	719	Santiago Atitlán	14	Cerro de Oro	6	Junio	2023-06-14T00:00:00	2024-11-08T20:00:00	4	Temperatura máxima	19.8
154859	7	Sololá	719	Santiago Atitlán	14	Cerro de Oro	6	Junio	2023-06-14T00:00:00	2024-11-08T20:00:00	3	Temperatura mínima	19.2
154860	7	Sololá	719	Santiago Atitlán	14	Cerro de Oro	6	Junio	2023-06-14T00:00:00	2024-11-08T20:00:00	5	Humedad	89
154861	7	Sololá	719	Santiago Atitlán	14	Cerro de Oro	6	Junio	2023-06-14T00:00:00	2024-11-08T20:00:00	6	Velocidad del viento	3.2
154862	7	Sololá	719	Santiago Atitlán	14	Cerro de Oro	6	Junio	2023-06-14T00:00:00	2024-11-08T20:00:00	7	Dirección del viento	3.22
154863	7	Sololá	719	Santiago Atitlán	14	Cerro de Oro	6	Junio	2023-06-14T00:00:00	2024-11-08T20:00:00	1	Precipitación	0
154864	7	Sololá	719	Santiago Atitlán	14	Cerro de Oro	6	Junio	2023-06-14T00:00:00	2024-11-08T20:00:00	8	Radiación solar	0
154865	7	Sololá	719	Santiago Atitlán	14	Cerro de Oro	6	Junio	2023-06-14T00:00:00	2024-11-08T21:00:00	2	Temperatura media	19.5
154866	7	Sololá	719	Santiago Atitlán	14	Cerro de Oro	6	Junio	2023-06-14T00:00:00	2024-11-08T21:00:00	4	Temperatura máxima	19.6
154867	7	Sololá	719	Santiago Atitlán	14	Cerro de Oro	6	Junio	2023-06-14T00:00:00	2024-11-08T21:00:00	3	Temperatura mínima	19.2
154868	7	Sololá	719	Santiago Atitlán	14	Cerro de Oro	6	Junio	2023-06-14T00:00:00	2024-11-08T21:00:00	5	Humedad	88
154869	7	Sololá	719	Santiago Atitlán	14	Cerro de Oro	6	Junio	2023-06-14T00:00:00	2024-11-08T21:00:00	6	Velocidad del viento	3.2
154870	7	Sololá	719	Santiago Atitlán	14	Cerro de Oro	6	Junio	2023-06-14T00:00:00	2024-11-08T21:00:00	7	Dirección del viento	3.22
154871	7	Sololá	719	Santiago Atitlán	14	Cerro de Oro	6	Junio	2023-06-14T00:00:00	2024-11-08T21:00:00	1	Precipitación	0
154872	7	Sololá	719	Santiago Atitlán	14	Cerro de Oro	6	Junio	2023-06-14T00:00:00	2024-11-08T21:00:00	8	Radiación solar	0
154873	7	Sololá	719	Santiago Atitlán	14	Cerro de Oro	6	Junio	2023-06-14T00:00:00	2024-11-08T22:00:00	2	Temperatura media	19.4
154874	7	Sololá	719	Santiago Atitlán	14	Cerro de Oro	6	Junio	2023-06-14T00:00:00	2024-11-08T22:00:00	4	Temperatura máxima	19.6
154875	7	Sololá	719	Santiago Atitlán	14	Cerro de Oro	6	Junio	2023-06-14T00:00:00	2024-11-08T22:00:00	3	Temperatura mínima	19.1
154876	7	Sololá	719	Santiago Atitlán	14	Cerro de Oro	6	Junio	2023-06-14T00:00:00	2024-11-08T22:00:00	5	Humedad	89
154877	7	Sololá	719	Santiago Atitlán	14	Cerro de Oro	6	Junio	2023-06-14T00:00:00	2024-11-08T22:00:00	6	Velocidad del viento	3.2
154878	7	Sololá	719	Santiago Atitlán	14	Cerro de Oro	6	Junio	2023-06-14T00:00:00	2024-11-08T22:00:00	7	Dirección del viento	3.22
154879	7	Sololá	719	Santiago Atitlán	14	Cerro de Oro	6	Junio	2023-06-14T00:00:00	2024-11-08T22:00:00	1	Precipitación	0
154880	7	Sololá	719	Santiago Atitlán	14	Cerro de Oro	6	Junio	2023-06-14T00:00:00	2024-11-08T22:00:00	8	Radiación solar	0
154881	7	Sololá	719	Santiago Atitlán	14	Cerro de Oro	6	Junio	2023-06-14T00:00:00	2024-11-08T23:00:00	2	Temperatura media	19.7
154882	7	Sololá	719	Santiago Atitlán	14	Cerro de Oro	6	Junio	2023-06-14T00:00:00	2024-11-08T23:00:00	4	Temperatura máxima	19.8
154883	7	Sololá	719	Santiago Atitlán	14	Cerro de Oro	6	Junio	2023-06-14T00:00:00	2024-11-08T23:00:00	3	Temperatura mínima	19.4
154884	7	Sololá	719	Santiago Atitlán	14	Cerro de Oro	6	Junio	2023-06-14T00:00:00	2024-11-08T23:00:00	5	Humedad	89
154885	7	Sololá	719	Santiago Atitlán	14	Cerro de Oro	6	Junio	2023-06-14T00:00:00	2024-11-08T23:00:00	6	Velocidad del viento	3.2
154886	7	Sololá	719	Santiago Atitlán	14	Cerro de Oro	6	Junio	2023-06-14T00:00:00	2024-11-08T23:00:00	7	Dirección del viento	3.22
154887	7	Sololá	719	Santiago Atitlán	14	Cerro de Oro	6	Junio	2023-06-14T00:00:00	2024-11-08T23:00:00	1	Precipitación	0
154888	7	Sololá	719	Santiago Atitlán	14	Cerro de Oro	6	Junio	2023-06-14T00:00:00	2024-11-08T23:00:00	8	Radiación solar	0
154889	7	Sololá	719	Santiago Atitlán	14	Cerro de Oro	6	Junio	2023-06-15T00:00:00	2024-11-08T00:00:00	2	Temperatura media	19.7
154890	7	Sololá	719	Santiago Atitlán	14	Cerro de Oro	6	Junio	2023-06-15T00:00:00	2024-11-08T00:00:00	4	Temperatura máxima	19.8
154891	7	Sololá	719	Santiago Atitlán	14	Cerro de Oro	6	Junio	2023-06-15T00:00:00	2024-11-08T00:00:00	3	Temperatura mínima	19.4
154892	7	Sololá	719	Santiago Atitlán	14	Cerro de Oro	6	Junio	2023-06-15T00:00:00	2024-11-08T00:00:00	5	Humedad	89
154893	7	Sololá	719	Santiago Atitlán	14	Cerro de Oro	6	Junio	2023-06-15T00:00:00	2024-11-08T00:00:00	6	Velocidad del viento	4.8
154894	7	Sololá	719	Santiago Atitlán	14	Cerro de Oro	6	Junio	2023-06-15T00:00:00	2024-11-08T00:00:00	7	Dirección del viento	4.83
154895	7	Sololá	719	Santiago Atitlán	14	Cerro de Oro	6	Junio	2023-06-15T00:00:00	2024-11-08T00:00:00	1	Precipitación	0
154896	7	Sololá	719	Santiago Atitlán	14	Cerro de Oro	6	Junio	2023-06-15T00:00:00	2024-11-08T00:00:00	8	Radiación solar	0
154897	7	Sololá	719	Santiago Atitlán	14	Cerro de Oro	6	Junio	2023-06-15T00:00:00	2024-11-08T01:00:00	2	Temperatura media	19.4
154898	7	Sololá	719	Santiago Atitlán	14	Cerro de Oro	6	Junio	2023-06-15T00:00:00	2024-11-08T01:00:00	4	Temperatura máxima	19.7
154899	7	Sololá	719	Santiago Atitlán	14	Cerro de Oro	6	Junio	2023-06-15T00:00:00	2024-11-08T01:00:00	3	Temperatura mínima	18.9
154900	7	Sololá	719	Santiago Atitlán	14	Cerro de Oro	6	Junio	2023-06-15T00:00:00	2024-11-08T01:00:00	5	Humedad	88
154901	7	Sololá	719	Santiago Atitlán	14	Cerro de Oro	6	Junio	2023-06-15T00:00:00	2024-11-08T01:00:00	6	Velocidad del viento	4.8
154902	7	Sololá	719	Santiago Atitlán	14	Cerro de Oro	6	Junio	2023-06-15T00:00:00	2024-11-08T01:00:00	7	Dirección del viento	4.83
154903	7	Sololá	719	Santiago Atitlán	14	Cerro de Oro	6	Junio	2023-06-15T00:00:00	2024-11-08T01:00:00	1	Precipitación	0
154904	7	Sololá	719	Santiago Atitlán	14	Cerro de Oro	6	Junio	2023-06-15T00:00:00	2024-11-08T01:00:00	8	Radiación solar	0
154905	7	Sololá	719	Santiago Atitlán	14	Cerro de Oro	6	Junio	2023-06-15T00:00:00	2024-11-08T02:00:00	2	Temperatura media	19.2
154906	7	Sololá	719	Santiago Atitlán	14	Cerro de Oro	6	Junio	2023-06-15T00:00:00	2024-11-08T02:00:00	4	Temperatura máxima	19.5
154907	7	Sololá	719	Santiago Atitlán	14	Cerro de Oro	6	Junio	2023-06-15T00:00:00	2024-11-08T02:00:00	3	Temperatura mínima	18.9
154908	7	Sololá	719	Santiago Atitlán	14	Cerro de Oro	6	Junio	2023-06-15T00:00:00	2024-11-08T02:00:00	5	Humedad	88
154909	7	Sololá	719	Santiago Atitlán	14	Cerro de Oro	6	Junio	2023-06-15T00:00:00	2024-11-08T02:00:00	6	Velocidad del viento	3.2
154910	7	Sololá	719	Santiago Atitlán	14	Cerro de Oro	6	Junio	2023-06-15T00:00:00	2024-11-08T02:00:00	7	Dirección del viento	3.22
154911	7	Sololá	719	Santiago Atitlán	14	Cerro de Oro	6	Junio	2023-06-15T00:00:00	2024-11-08T02:00:00	1	Precipitación	0
154912	7	Sololá	719	Santiago Atitlán	14	Cerro de Oro	6	Junio	2023-06-15T00:00:00	2024-11-08T02:00:00	8	Radiación solar	0
154913	7	Sololá	719	Santiago Atitlán	14	Cerro de Oro	6	Junio	2023-06-15T00:00:00	2024-11-08T03:00:00	2	Temperatura media	18.7
154914	7	Sololá	719	Santiago Atitlán	14	Cerro de Oro	6	Junio	2023-06-15T00:00:00	2024-11-08T03:00:00	4	Temperatura máxima	19.2
154915	7	Sololá	719	Santiago Atitlán	14	Cerro de Oro	6	Junio	2023-06-15T00:00:00	2024-11-08T03:00:00	3	Temperatura mínima	18.7
154916	7	Sololá	719	Santiago Atitlán	14	Cerro de Oro	6	Junio	2023-06-15T00:00:00	2024-11-08T03:00:00	5	Humedad	89
154917	7	Sololá	719	Santiago Atitlán	14	Cerro de Oro	6	Junio	2023-06-15T00:00:00	2024-11-08T03:00:00	6	Velocidad del viento	3.2
154918	7	Sololá	719	Santiago Atitlán	14	Cerro de Oro	6	Junio	2023-06-15T00:00:00	2024-11-08T03:00:00	7	Dirección del viento	3.22
154919	7	Sololá	719	Santiago Atitlán	14	Cerro de Oro	6	Junio	2023-06-15T00:00:00	2024-11-08T03:00:00	1	Precipitación	0
154920	7	Sololá	719	Santiago Atitlán	14	Cerro de Oro	6	Junio	2023-06-15T00:00:00	2024-11-08T03:00:00	8	Radiación solar	0
154921	7	Sololá	719	Santiago Atitlán	14	Cerro de Oro	6	Junio	2023-06-15T00:00:00	2024-11-08T04:00:00	2	Temperatura media	18.8
154922	7	Sololá	719	Santiago Atitlán	14	Cerro de Oro	6	Junio	2023-06-15T00:00:00	2024-11-08T04:00:00	4	Temperatura máxima	19.3
154923	7	Sololá	719	Santiago Atitlán	14	Cerro de Oro	6	Junio	2023-06-15T00:00:00	2024-11-08T04:00:00	3	Temperatura mínima	18.7
154924	7	Sololá	719	Santiago Atitlán	14	Cerro de Oro	6	Junio	2023-06-15T00:00:00	2024-11-08T04:00:00	5	Humedad	86
154925	7	Sololá	719	Santiago Atitlán	14	Cerro de Oro	6	Junio	2023-06-15T00:00:00	2024-11-08T04:00:00	6	Velocidad del viento	4.8
154926	7	Sololá	719	Santiago Atitlán	14	Cerro de Oro	6	Junio	2023-06-15T00:00:00	2024-11-08T04:00:00	7	Dirección del viento	4.83
154927	7	Sololá	719	Santiago Atitlán	14	Cerro de Oro	6	Junio	2023-06-15T00:00:00	2024-11-08T04:00:00	1	Precipitación	0
154928	7	Sololá	719	Santiago Atitlán	14	Cerro de Oro	6	Junio	2023-06-15T00:00:00	2024-11-08T04:00:00	8	Radiación solar	0
154929	7	Sololá	719	Santiago Atitlán	14	Cerro de Oro	6	Junio	2023-06-15T00:00:00	2024-11-08T05:00:00	2	Temperatura media	18.4
154930	7	Sololá	719	Santiago Atitlán	14	Cerro de Oro	6	Junio	2023-06-15T00:00:00	2024-11-08T05:00:00	4	Temperatura máxima	18.8
154931	7	Sololá	719	Santiago Atitlán	14	Cerro de Oro	6	Junio	2023-06-15T00:00:00	2024-11-08T05:00:00	3	Temperatura mínima	18.4
154932	7	Sololá	719	Santiago Atitlán	14	Cerro de Oro	6	Junio	2023-06-15T00:00:00	2024-11-08T05:00:00	5	Humedad	89
154933	7	Sololá	719	Santiago Atitlán	14	Cerro de Oro	6	Junio	2023-06-15T00:00:00	2024-11-08T05:00:00	6	Velocidad del viento	4.8
154934	7	Sololá	719	Santiago Atitlán	14	Cerro de Oro	6	Junio	2023-06-15T00:00:00	2024-11-08T05:00:00	7	Dirección del viento	4.83
154935	7	Sololá	719	Santiago Atitlán	14	Cerro de Oro	6	Junio	2023-06-15T00:00:00	2024-11-08T05:00:00	1	Precipitación	0
154936	7	Sololá	719	Santiago Atitlán	14	Cerro de Oro	6	Junio	2023-06-15T00:00:00	2024-11-08T05:00:00	8	Radiación solar	0
154937	7	Sololá	719	Santiago Atitlán	14	Cerro de Oro	6	Junio	2023-06-15T00:00:00	2024-11-08T06:00:00	2	Temperatura media	18.7
154938	7	Sololá	719	Santiago Atitlán	14	Cerro de Oro	6	Junio	2023-06-15T00:00:00	2024-11-08T06:00:00	4	Temperatura máxima	18.7
154939	7	Sololá	719	Santiago Atitlán	14	Cerro de Oro	6	Junio	2023-06-15T00:00:00	2024-11-08T06:00:00	3	Temperatura mínima	18.2
154940	7	Sololá	719	Santiago Atitlán	14	Cerro de Oro	6	Junio	2023-06-15T00:00:00	2024-11-08T06:00:00	5	Humedad	88
154941	7	Sololá	719	Santiago Atitlán	14	Cerro de Oro	6	Junio	2023-06-15T00:00:00	2024-11-08T06:00:00	6	Velocidad del viento	3.2
154942	7	Sololá	719	Santiago Atitlán	14	Cerro de Oro	6	Junio	2023-06-15T00:00:00	2024-11-08T06:00:00	7	Dirección del viento	3.22
154943	7	Sololá	719	Santiago Atitlán	14	Cerro de Oro	6	Junio	2023-06-15T00:00:00	2024-11-08T06:00:00	1	Precipitación	0
154944	7	Sololá	719	Santiago Atitlán	14	Cerro de Oro	6	Junio	2023-06-15T00:00:00	2024-11-08T06:00:00	8	Radiación solar	8
154945	7	Sololá	719	Santiago Atitlán	14	Cerro de Oro	6	Junio	2023-06-15T00:00:00	2024-11-08T07:00:00	2	Temperatura media	21.4
154946	7	Sololá	719	Santiago Atitlán	14	Cerro de Oro	6	Junio	2023-06-15T00:00:00	2024-11-08T07:00:00	4	Temperatura máxima	21.4
154947	7	Sololá	719	Santiago Atitlán	14	Cerro de Oro	6	Junio	2023-06-15T00:00:00	2024-11-08T07:00:00	3	Temperatura mínima	18.7
154948	7	Sololá	719	Santiago Atitlán	14	Cerro de Oro	6	Junio	2023-06-15T00:00:00	2024-11-08T07:00:00	5	Humedad	78
154949	7	Sololá	719	Santiago Atitlán	14	Cerro de Oro	6	Junio	2023-06-15T00:00:00	2024-11-08T07:00:00	6	Velocidad del viento	1.6
154950	7	Sololá	719	Santiago Atitlán	14	Cerro de Oro	6	Junio	2023-06-15T00:00:00	2024-11-08T07:00:00	7	Dirección del viento	1.61
154951	7	Sololá	719	Santiago Atitlán	14	Cerro de Oro	6	Junio	2023-06-15T00:00:00	2024-11-08T07:00:00	1	Precipitación	0
154952	7	Sololá	719	Santiago Atitlán	14	Cerro de Oro	6	Junio	2023-06-15T00:00:00	2024-11-08T07:00:00	8	Radiación solar	111
154953	7	Sololá	719	Santiago Atitlán	14	Cerro de Oro	6	Junio	2023-06-15T00:00:00	2024-11-08T08:00:00	2	Temperatura media	21.7
154954	7	Sololá	719	Santiago Atitlán	14	Cerro de Oro	6	Junio	2023-06-15T00:00:00	2024-11-08T08:00:00	4	Temperatura máxima	21.9
154955	7	Sololá	719	Santiago Atitlán	14	Cerro de Oro	6	Junio	2023-06-15T00:00:00	2024-11-08T08:00:00	3	Temperatura mínima	21.4
154956	7	Sololá	719	Santiago Atitlán	14	Cerro de Oro	6	Junio	2023-06-15T00:00:00	2024-11-08T08:00:00	5	Humedad	78
154957	7	Sololá	719	Santiago Atitlán	14	Cerro de Oro	6	Junio	2023-06-15T00:00:00	2024-11-08T08:00:00	6	Velocidad del viento	3.2
154958	7	Sololá	719	Santiago Atitlán	14	Cerro de Oro	6	Junio	2023-06-15T00:00:00	2024-11-08T08:00:00	7	Dirección del viento	3.22
154959	7	Sololá	719	Santiago Atitlán	14	Cerro de Oro	6	Junio	2023-06-15T00:00:00	2024-11-08T08:00:00	1	Precipitación	0
154960	7	Sololá	719	Santiago Atitlán	14	Cerro de Oro	6	Junio	2023-06-15T00:00:00	2024-11-08T08:00:00	8	Radiación solar	317
154961	7	Sololá	719	Santiago Atitlán	14	Cerro de Oro	6	Junio	2023-06-15T00:00:00	2024-11-08T09:00:00	2	Temperatura media	22.5
154962	7	Sololá	719	Santiago Atitlán	14	Cerro de Oro	6	Junio	2023-06-15T00:00:00	2024-11-08T09:00:00	4	Temperatura máxima	22.6
154963	7	Sololá	719	Santiago Atitlán	14	Cerro de Oro	6	Junio	2023-06-15T00:00:00	2024-11-08T09:00:00	3	Temperatura mínima	21.7
154964	7	Sololá	719	Santiago Atitlán	14	Cerro de Oro	6	Junio	2023-06-15T00:00:00	2024-11-08T09:00:00	5	Humedad	79
154965	7	Sololá	719	Santiago Atitlán	14	Cerro de Oro	6	Junio	2023-06-15T00:00:00	2024-11-08T09:00:00	6	Velocidad del viento	4.8
154966	7	Sololá	719	Santiago Atitlán	14	Cerro de Oro	6	Junio	2023-06-15T00:00:00	2024-11-08T09:00:00	7	Dirección del viento	4.83
154967	7	Sololá	719	Santiago Atitlán	14	Cerro de Oro	6	Junio	2023-06-15T00:00:00	2024-11-08T09:00:00	1	Precipitación	0
154968	7	Sololá	719	Santiago Atitlán	14	Cerro de Oro	6	Junio	2023-06-15T00:00:00	2024-11-08T09:00:00	8	Radiación solar	526
154969	7	Sololá	719	Santiago Atitlán	14	Cerro de Oro	6	Junio	2023-06-15T00:00:00	2024-11-08T10:00:00	2	Temperatura media	22.9
154970	7	Sololá	719	Santiago Atitlán	14	Cerro de Oro	6	Junio	2023-06-15T00:00:00	2024-11-08T10:00:00	4	Temperatura máxima	24.1
154971	7	Sololá	719	Santiago Atitlán	14	Cerro de Oro	6	Junio	2023-06-15T00:00:00	2024-11-08T10:00:00	3	Temperatura mínima	22.5
154972	7	Sololá	719	Santiago Atitlán	14	Cerro de Oro	6	Junio	2023-06-15T00:00:00	2024-11-08T10:00:00	5	Humedad	78
154973	7	Sololá	719	Santiago Atitlán	14	Cerro de Oro	6	Junio	2023-06-15T00:00:00	2024-11-08T10:00:00	6	Velocidad del viento	6.4
154974	7	Sololá	719	Santiago Atitlán	14	Cerro de Oro	6	Junio	2023-06-15T00:00:00	2024-11-08T10:00:00	7	Dirección del viento	6.44
154975	7	Sololá	719	Santiago Atitlán	14	Cerro de Oro	6	Junio	2023-06-15T00:00:00	2024-11-08T10:00:00	1	Precipitación	0
154976	7	Sololá	719	Santiago Atitlán	14	Cerro de Oro	6	Junio	2023-06-15T00:00:00	2024-11-08T10:00:00	8	Radiación solar	710
154977	7	Sololá	719	Santiago Atitlán	14	Cerro de Oro	6	Junio	2023-06-15T00:00:00	2024-11-08T11:00:00	2	Temperatura media	24.2
154978	7	Sololá	719	Santiago Atitlán	14	Cerro de Oro	6	Junio	2023-06-15T00:00:00	2024-11-08T11:00:00	4	Temperatura máxima	24.2
154979	7	Sololá	719	Santiago Atitlán	14	Cerro de Oro	6	Junio	2023-06-15T00:00:00	2024-11-08T11:00:00	3	Temperatura mínima	22.8
154980	7	Sololá	719	Santiago Atitlán	14	Cerro de Oro	6	Junio	2023-06-15T00:00:00	2024-11-08T11:00:00	5	Humedad	74
154981	7	Sololá	719	Santiago Atitlán	14	Cerro de Oro	6	Junio	2023-06-15T00:00:00	2024-11-08T11:00:00	6	Velocidad del viento	11.3
154982	7	Sololá	719	Santiago Atitlán	14	Cerro de Oro	6	Junio	2023-06-15T00:00:00	2024-11-08T11:00:00	7	Dirección del viento	11.27
154983	7	Sololá	719	Santiago Atitlán	14	Cerro de Oro	6	Junio	2023-06-15T00:00:00	2024-11-08T11:00:00	1	Precipitación	0
154984	7	Sololá	719	Santiago Atitlán	14	Cerro de Oro	6	Junio	2023-06-15T00:00:00	2024-11-08T11:00:00	8	Radiación solar	870
154985	7	Sololá	719	Santiago Atitlán	14	Cerro de Oro	6	Junio	2023-06-15T00:00:00	2024-11-08T12:00:00	2	Temperatura media	24.8
154986	7	Sololá	719	Santiago Atitlán	14	Cerro de Oro	6	Junio	2023-06-15T00:00:00	2024-11-08T12:00:00	4	Temperatura máxima	24.9
154987	7	Sololá	719	Santiago Atitlán	14	Cerro de Oro	6	Junio	2023-06-15T00:00:00	2024-11-08T12:00:00	3	Temperatura mínima	24.1
154988	7	Sololá	719	Santiago Atitlán	14	Cerro de Oro	6	Junio	2023-06-15T00:00:00	2024-11-08T12:00:00	5	Humedad	71
154989	7	Sololá	719	Santiago Atitlán	14	Cerro de Oro	6	Junio	2023-06-15T00:00:00	2024-11-08T12:00:00	6	Velocidad del viento	9.7
154990	7	Sololá	719	Santiago Atitlán	14	Cerro de Oro	6	Junio	2023-06-15T00:00:00	2024-11-08T12:00:00	7	Dirección del viento	9.66
154991	7	Sololá	719	Santiago Atitlán	14	Cerro de Oro	6	Junio	2023-06-15T00:00:00	2024-11-08T12:00:00	1	Precipitación	0
154992	7	Sololá	719	Santiago Atitlán	14	Cerro de Oro	6	Junio	2023-06-15T00:00:00	2024-11-08T12:00:00	8	Radiación solar	839
154993	7	Sololá	719	Santiago Atitlán	14	Cerro de Oro	6	Junio	2023-06-15T00:00:00	2024-11-08T13:00:00	2	Temperatura media	23.5
154994	7	Sololá	719	Santiago Atitlán	14	Cerro de Oro	6	Junio	2023-06-15T00:00:00	2024-11-08T13:00:00	4	Temperatura máxima	25.1
154995	7	Sololá	719	Santiago Atitlán	14	Cerro de Oro	6	Junio	2023-06-15T00:00:00	2024-11-08T13:00:00	3	Temperatura mínima	23.5
154996	7	Sololá	719	Santiago Atitlán	14	Cerro de Oro	6	Junio	2023-06-15T00:00:00	2024-11-08T13:00:00	5	Humedad	77
154997	7	Sololá	719	Santiago Atitlán	14	Cerro de Oro	6	Junio	2023-06-15T00:00:00	2024-11-08T13:00:00	6	Velocidad del viento	9.7
154998	7	Sololá	719	Santiago Atitlán	14	Cerro de Oro	6	Junio	2023-06-15T00:00:00	2024-11-08T13:00:00	7	Dirección del viento	9.66
154999	7	Sololá	719	Santiago Atitlán	14	Cerro de Oro	6	Junio	2023-06-15T00:00:00	2024-11-08T13:00:00	1	Precipitación	0
155000	7	Sololá	719	Santiago Atitlán	14	Cerro de Oro	6	Junio	2023-06-15T00:00:00	2024-11-08T13:00:00	8	Radiación solar	550
155001	7	Sololá	719	Santiago Atitlán	14	Cerro de Oro	6	Junio	2023-06-15T00:00:00	2024-11-08T14:00:00	2	Temperatura media	24.1
155002	7	Sololá	719	Santiago Atitlán	14	Cerro de Oro	6	Junio	2023-06-15T00:00:00	2024-11-08T14:00:00	4	Temperatura máxima	25.1
155003	7	Sololá	719	Santiago Atitlán	14	Cerro de Oro	6	Junio	2023-06-15T00:00:00	2024-11-08T14:00:00	3	Temperatura mínima	23.1
155004	7	Sololá	719	Santiago Atitlán	14	Cerro de Oro	6	Junio	2023-06-15T00:00:00	2024-11-08T14:00:00	5	Humedad	76
155005	7	Sololá	719	Santiago Atitlán	14	Cerro de Oro	6	Junio	2023-06-15T00:00:00	2024-11-08T14:00:00	6	Velocidad del viento	9.7
155006	7	Sololá	719	Santiago Atitlán	14	Cerro de Oro	6	Junio	2023-06-15T00:00:00	2024-11-08T14:00:00	7	Dirección del viento	9.66
155007	7	Sololá	719	Santiago Atitlán	14	Cerro de Oro	6	Junio	2023-06-15T00:00:00	2024-11-08T14:00:00	1	Precipitación	0
155008	7	Sololá	719	Santiago Atitlán	14	Cerro de Oro	6	Junio	2023-06-15T00:00:00	2024-11-08T14:00:00	8	Radiación solar	734
155009	7	Sololá	719	Santiago Atitlán	14	Cerro de Oro	6	Junio	2023-06-15T00:00:00	2024-11-08T15:00:00	2	Temperatura media	23.7
155010	7	Sololá	719	Santiago Atitlán	14	Cerro de Oro	6	Junio	2023-06-15T00:00:00	2024-11-08T15:00:00	4	Temperatura máxima	24.7
155011	7	Sololá	719	Santiago Atitlán	14	Cerro de Oro	6	Junio	2023-06-15T00:00:00	2024-11-08T15:00:00	3	Temperatura mínima	23.5
155012	7	Sololá	719	Santiago Atitlán	14	Cerro de Oro	6	Junio	2023-06-15T00:00:00	2024-11-08T15:00:00	5	Humedad	76
155013	7	Sololá	719	Santiago Atitlán	14	Cerro de Oro	6	Junio	2023-06-15T00:00:00	2024-11-08T15:00:00	6	Velocidad del viento	11.3
155014	7	Sololá	719	Santiago Atitlán	14	Cerro de Oro	6	Junio	2023-06-15T00:00:00	2024-11-08T15:00:00	7	Dirección del viento	11.27
155015	7	Sololá	719	Santiago Atitlán	14	Cerro de Oro	6	Junio	2023-06-15T00:00:00	2024-11-08T15:00:00	1	Precipitación	0
155016	7	Sololá	719	Santiago Atitlán	14	Cerro de Oro	6	Junio	2023-06-15T00:00:00	2024-11-08T15:00:00	8	Radiación solar	649
155017	7	Sololá	719	Santiago Atitlán	14	Cerro de Oro	6	Junio	2023-06-15T00:00:00	2024-11-08T16:00:00	2	Temperatura media	23
155018	7	Sololá	719	Santiago Atitlán	14	Cerro de Oro	6	Junio	2023-06-15T00:00:00	2024-11-08T16:00:00	4	Temperatura máxima	24
155019	7	Sololá	719	Santiago Atitlán	14	Cerro de Oro	6	Junio	2023-06-15T00:00:00	2024-11-08T16:00:00	3	Temperatura mínima	22.8
155020	7	Sololá	719	Santiago Atitlán	14	Cerro de Oro	6	Junio	2023-06-15T00:00:00	2024-11-08T16:00:00	5	Humedad	80
155021	7	Sololá	719	Santiago Atitlán	14	Cerro de Oro	6	Junio	2023-06-15T00:00:00	2024-11-08T16:00:00	6	Velocidad del viento	9.7
155022	7	Sololá	719	Santiago Atitlán	14	Cerro de Oro	6	Junio	2023-06-15T00:00:00	2024-11-08T16:00:00	7	Dirección del viento	9.66
155023	7	Sololá	719	Santiago Atitlán	14	Cerro de Oro	6	Junio	2023-06-15T00:00:00	2024-11-08T16:00:00	1	Precipitación	0
155024	7	Sololá	719	Santiago Atitlán	14	Cerro de Oro	6	Junio	2023-06-15T00:00:00	2024-11-08T16:00:00	8	Radiación solar	278
155025	7	Sololá	719	Santiago Atitlán	14	Cerro de Oro	6	Junio	2023-06-15T00:00:00	2024-11-08T17:00:00	2	Temperatura media	22.2
155026	7	Sololá	719	Santiago Atitlán	14	Cerro de Oro	6	Junio	2023-06-15T00:00:00	2024-11-08T17:00:00	4	Temperatura máxima	23.2
155027	7	Sololá	719	Santiago Atitlán	14	Cerro de Oro	6	Junio	2023-06-15T00:00:00	2024-11-08T17:00:00	3	Temperatura mínima	22.2
155028	7	Sololá	719	Santiago Atitlán	14	Cerro de Oro	6	Junio	2023-06-15T00:00:00	2024-11-08T17:00:00	5	Humedad	83
155029	7	Sololá	719	Santiago Atitlán	14	Cerro de Oro	6	Junio	2023-06-15T00:00:00	2024-11-08T17:00:00	6	Velocidad del viento	11.3
155030	7	Sololá	719	Santiago Atitlán	14	Cerro de Oro	6	Junio	2023-06-15T00:00:00	2024-11-08T17:00:00	7	Dirección del viento	11.27
155031	7	Sololá	719	Santiago Atitlán	14	Cerro de Oro	6	Junio	2023-06-15T00:00:00	2024-11-08T17:00:00	1	Precipitación	0
155032	7	Sololá	719	Santiago Atitlán	14	Cerro de Oro	6	Junio	2023-06-15T00:00:00	2024-11-08T17:00:00	8	Radiación solar	185
155033	7	Sololá	719	Santiago Atitlán	14	Cerro de Oro	6	Junio	2023-06-15T00:00:00	2024-11-08T18:00:00	2	Temperatura media	20.7
155034	7	Sololá	719	Santiago Atitlán	14	Cerro de Oro	6	Junio	2023-06-15T00:00:00	2024-11-08T18:00:00	4	Temperatura máxima	22.2
155035	7	Sololá	719	Santiago Atitlán	14	Cerro de Oro	6	Junio	2023-06-15T00:00:00	2024-11-08T18:00:00	3	Temperatura mínima	20.5
155036	7	Sololá	719	Santiago Atitlán	14	Cerro de Oro	6	Junio	2023-06-15T00:00:00	2024-11-08T18:00:00	5	Humedad	89
155037	7	Sololá	719	Santiago Atitlán	14	Cerro de Oro	6	Junio	2023-06-15T00:00:00	2024-11-08T18:00:00	6	Velocidad del viento	9.7
155038	7	Sololá	719	Santiago Atitlán	14	Cerro de Oro	6	Junio	2023-06-15T00:00:00	2024-11-08T18:00:00	7	Dirección del viento	9.66
155039	7	Sololá	719	Santiago Atitlán	14	Cerro de Oro	6	Junio	2023-06-15T00:00:00	2024-11-08T18:00:00	1	Precipitación	0
155040	7	Sololá	719	Santiago Atitlán	14	Cerro de Oro	6	Junio	2023-06-15T00:00:00	2024-11-08T18:00:00	8	Radiación solar	78
155041	7	Sololá	719	Santiago Atitlán	14	Cerro de Oro	6	Junio	2023-06-15T00:00:00	2024-11-08T19:00:00	2	Temperatura media	20.3
155042	7	Sololá	719	Santiago Atitlán	14	Cerro de Oro	6	Junio	2023-06-15T00:00:00	2024-11-08T19:00:00	4	Temperatura máxima	20.9
155043	7	Sololá	719	Santiago Atitlán	14	Cerro de Oro	6	Junio	2023-06-15T00:00:00	2024-11-08T19:00:00	3	Temperatura mínima	20.3
155044	7	Sololá	719	Santiago Atitlán	14	Cerro de Oro	6	Junio	2023-06-15T00:00:00	2024-11-08T19:00:00	5	Humedad	90
155045	7	Sololá	719	Santiago Atitlán	14	Cerro de Oro	6	Junio	2023-06-15T00:00:00	2024-11-08T19:00:00	6	Velocidad del viento	4.8
155046	7	Sololá	719	Santiago Atitlán	14	Cerro de Oro	6	Junio	2023-06-15T00:00:00	2024-11-08T19:00:00	7	Dirección del viento	4.83
155047	7	Sololá	719	Santiago Atitlán	14	Cerro de Oro	6	Junio	2023-06-15T00:00:00	2024-11-08T19:00:00	1	Precipitación	0
155048	7	Sololá	719	Santiago Atitlán	14	Cerro de Oro	6	Junio	2023-06-15T00:00:00	2024-11-08T19:00:00	8	Radiación solar	0
155049	7	Sololá	719	Santiago Atitlán	14	Cerro de Oro	6	Junio	2023-06-15T00:00:00	2024-11-08T20:00:00	2	Temperatura media	19.5
155050	7	Sololá	719	Santiago Atitlán	14	Cerro de Oro	6	Junio	2023-06-15T00:00:00	2024-11-08T20:00:00	4	Temperatura máxima	20.3
155051	7	Sololá	719	Santiago Atitlán	14	Cerro de Oro	6	Junio	2023-06-15T00:00:00	2024-11-08T20:00:00	3	Temperatura mínima	19.1
155052	7	Sololá	719	Santiago Atitlán	14	Cerro de Oro	6	Junio	2023-06-15T00:00:00	2024-11-08T20:00:00	5	Humedad	92
155053	7	Sololá	719	Santiago Atitlán	14	Cerro de Oro	6	Junio	2023-06-15T00:00:00	2024-11-08T20:00:00	6	Velocidad del viento	11.3
155054	7	Sololá	719	Santiago Atitlán	14	Cerro de Oro	6	Junio	2023-06-15T00:00:00	2024-11-08T20:00:00	7	Dirección del viento	11.27
155055	7	Sololá	719	Santiago Atitlán	14	Cerro de Oro	6	Junio	2023-06-15T00:00:00	2024-11-08T20:00:00	1	Precipitación	0
155056	7	Sololá	719	Santiago Atitlán	14	Cerro de Oro	6	Junio	2023-06-15T00:00:00	2024-11-08T20:00:00	8	Radiación solar	0
155057	7	Sololá	719	Santiago Atitlán	14	Cerro de Oro	6	Junio	2023-06-15T00:00:00	2024-11-08T21:00:00	2	Temperatura media	19.9
155058	7	Sololá	719	Santiago Atitlán	14	Cerro de Oro	6	Junio	2023-06-15T00:00:00	2024-11-08T21:00:00	4	Temperatura máxima	20
155059	7	Sololá	719	Santiago Atitlán	14	Cerro de Oro	6	Junio	2023-06-15T00:00:00	2024-11-08T21:00:00	3	Temperatura mínima	19.3
155060	7	Sololá	719	Santiago Atitlán	14	Cerro de Oro	6	Junio	2023-06-15T00:00:00	2024-11-08T21:00:00	5	Humedad	90
155061	7	Sololá	719	Santiago Atitlán	14	Cerro de Oro	6	Junio	2023-06-15T00:00:00	2024-11-08T21:00:00	6	Velocidad del viento	4.8
155062	7	Sololá	719	Santiago Atitlán	14	Cerro de Oro	6	Junio	2023-06-15T00:00:00	2024-11-08T21:00:00	7	Dirección del viento	4.83
155063	7	Sololá	719	Santiago Atitlán	14	Cerro de Oro	6	Junio	2023-06-15T00:00:00	2024-11-08T21:00:00	1	Precipitación	1
155064	7	Sololá	719	Santiago Atitlán	14	Cerro de Oro	6	Junio	2023-06-15T00:00:00	2024-11-08T21:00:00	8	Radiación solar	0
155065	7	Sololá	719	Santiago Atitlán	14	Cerro de Oro	6	Junio	2023-06-15T00:00:00	2024-11-08T22:00:00	2	Temperatura media	19.5
155066	7	Sololá	719	Santiago Atitlán	14	Cerro de Oro	6	Junio	2023-06-15T00:00:00	2024-11-08T22:00:00	4	Temperatura máxima	19.9
155067	7	Sololá	719	Santiago Atitlán	14	Cerro de Oro	6	Junio	2023-06-15T00:00:00	2024-11-08T22:00:00	3	Temperatura mínima	19.4
155068	7	Sololá	719	Santiago Atitlán	14	Cerro de Oro	6	Junio	2023-06-15T00:00:00	2024-11-08T22:00:00	5	Humedad	92
155069	7	Sololá	719	Santiago Atitlán	14	Cerro de Oro	6	Junio	2023-06-15T00:00:00	2024-11-08T22:00:00	6	Velocidad del viento	1.6
155070	7	Sololá	719	Santiago Atitlán	14	Cerro de Oro	6	Junio	2023-06-15T00:00:00	2024-11-08T22:00:00	7	Dirección del viento	1.61
155071	7	Sololá	719	Santiago Atitlán	14	Cerro de Oro	6	Junio	2023-06-15T00:00:00	2024-11-08T22:00:00	1	Precipitación	0
155072	7	Sololá	719	Santiago Atitlán	14	Cerro de Oro	6	Junio	2023-06-15T00:00:00	2024-11-08T22:00:00	8	Radiación solar	0
155073	7	Sololá	719	Santiago Atitlán	14	Cerro de Oro	6	Junio	2023-06-15T00:00:00	2024-11-08T23:00:00	2	Temperatura media	19.5
155074	7	Sololá	719	Santiago Atitlán	14	Cerro de Oro	6	Junio	2023-06-15T00:00:00	2024-11-08T23:00:00	4	Temperatura máxima	19.6
155075	7	Sololá	719	Santiago Atitlán	14	Cerro de Oro	6	Junio	2023-06-15T00:00:00	2024-11-08T23:00:00	3	Temperatura mínima	19.3
155076	7	Sololá	719	Santiago Atitlán	14	Cerro de Oro	6	Junio	2023-06-15T00:00:00	2024-11-08T23:00:00	5	Humedad	91
155077	7	Sololá	719	Santiago Atitlán	14	Cerro de Oro	6	Junio	2023-06-15T00:00:00	2024-11-08T23:00:00	6	Velocidad del viento	4.8
155078	7	Sololá	719	Santiago Atitlán	14	Cerro de Oro	6	Junio	2023-06-15T00:00:00	2024-11-08T23:00:00	7	Dirección del viento	4.83
155079	7	Sololá	719	Santiago Atitlán	14	Cerro de Oro	6	Junio	2023-06-15T00:00:00	2024-11-08T23:00:00	1	Precipitación	0
155080	7	Sololá	719	Santiago Atitlán	14	Cerro de Oro	6	Junio	2023-06-15T00:00:00	2024-11-08T23:00:00	8	Radiación solar	0
155081	7	Sololá	719	Santiago Atitlán	14	Cerro de Oro	6	Junio	2023-06-16T00:00:00	2024-11-08T00:00:00	2	Temperatura media	18.2
155082	7	Sololá	719	Santiago Atitlán	14	Cerro de Oro	6	Junio	2023-06-16T00:00:00	2024-11-08T00:00:00	4	Temperatura máxima	19.5
155083	7	Sololá	719	Santiago Atitlán	14	Cerro de Oro	6	Junio	2023-06-16T00:00:00	2024-11-08T00:00:00	3	Temperatura mínima	18.2
155084	7	Sololá	719	Santiago Atitlán	14	Cerro de Oro	6	Junio	2023-06-16T00:00:00	2024-11-08T00:00:00	5	Humedad	94
155085	7	Sololá	719	Santiago Atitlán	14	Cerro de Oro	6	Junio	2023-06-16T00:00:00	2024-11-08T00:00:00	6	Velocidad del viento	9.7
155086	7	Sololá	719	Santiago Atitlán	14	Cerro de Oro	6	Junio	2023-06-16T00:00:00	2024-11-08T00:00:00	7	Dirección del viento	9.66
155087	7	Sololá	719	Santiago Atitlán	14	Cerro de Oro	6	Junio	2023-06-16T00:00:00	2024-11-08T00:00:00	1	Precipitación	0
155088	7	Sololá	719	Santiago Atitlán	14	Cerro de Oro	6	Junio	2023-06-16T00:00:00	2024-11-08T00:00:00	8	Radiación solar	0
155089	7	Sololá	719	Santiago Atitlán	14	Cerro de Oro	6	Junio	2023-06-16T00:00:00	2024-11-08T01:00:00	2	Temperatura media	18.2
155090	7	Sololá	719	Santiago Atitlán	14	Cerro de Oro	6	Junio	2023-06-16T00:00:00	2024-11-08T01:00:00	4	Temperatura máxima	18.5
155091	7	Sololá	719	Santiago Atitlán	14	Cerro de Oro	6	Junio	2023-06-16T00:00:00	2024-11-08T01:00:00	3	Temperatura mínima	18.1
155092	7	Sololá	719	Santiago Atitlán	14	Cerro de Oro	6	Junio	2023-06-16T00:00:00	2024-11-08T01:00:00	5	Humedad	92
155093	7	Sololá	719	Santiago Atitlán	14	Cerro de Oro	6	Junio	2023-06-16T00:00:00	2024-11-08T01:00:00	6	Velocidad del viento	4.8
155094	7	Sololá	719	Santiago Atitlán	14	Cerro de Oro	6	Junio	2023-06-16T00:00:00	2024-11-08T01:00:00	7	Dirección del viento	4.83
155095	7	Sololá	719	Santiago Atitlán	14	Cerro de Oro	6	Junio	2023-06-16T00:00:00	2024-11-08T01:00:00	1	Precipitación	0
155096	7	Sololá	719	Santiago Atitlán	14	Cerro de Oro	6	Junio	2023-06-16T00:00:00	2024-11-08T01:00:00	8	Radiación solar	0
155097	7	Sololá	719	Santiago Atitlán	14	Cerro de Oro	6	Junio	2023-06-16T00:00:00	2024-11-08T02:00:00	2	Temperatura media	18.6
155098	7	Sololá	719	Santiago Atitlán	14	Cerro de Oro	6	Junio	2023-06-16T00:00:00	2024-11-08T02:00:00	4	Temperatura máxima	18.7
155099	7	Sololá	719	Santiago Atitlán	14	Cerro de Oro	6	Junio	2023-06-16T00:00:00	2024-11-08T02:00:00	3	Temperatura mínima	18
155100	7	Sololá	719	Santiago Atitlán	14	Cerro de Oro	6	Junio	2023-06-16T00:00:00	2024-11-08T02:00:00	5	Humedad	89
155101	7	Sololá	719	Santiago Atitlán	14	Cerro de Oro	6	Junio	2023-06-16T00:00:00	2024-11-08T02:00:00	6	Velocidad del viento	4.8
155102	7	Sololá	719	Santiago Atitlán	14	Cerro de Oro	6	Junio	2023-06-16T00:00:00	2024-11-08T02:00:00	7	Dirección del viento	4.83
155103	7	Sololá	719	Santiago Atitlán	14	Cerro de Oro	6	Junio	2023-06-16T00:00:00	2024-11-08T02:00:00	1	Precipitación	0
155104	7	Sololá	719	Santiago Atitlán	14	Cerro de Oro	6	Junio	2023-06-16T00:00:00	2024-11-08T02:00:00	8	Radiación solar	0
155105	7	Sololá	719	Santiago Atitlán	14	Cerro de Oro	6	Junio	2023-06-16T00:00:00	2024-11-08T03:00:00	2	Temperatura media	18.3
155106	7	Sololá	719	Santiago Atitlán	14	Cerro de Oro	6	Junio	2023-06-16T00:00:00	2024-11-08T03:00:00	4	Temperatura máxima	18.7
155107	7	Sololá	719	Santiago Atitlán	14	Cerro de Oro	6	Junio	2023-06-16T00:00:00	2024-11-08T03:00:00	3	Temperatura mínima	18.1
155108	7	Sololá	719	Santiago Atitlán	14	Cerro de Oro	6	Junio	2023-06-16T00:00:00	2024-11-08T03:00:00	5	Humedad	87
155109	7	Sololá	719	Santiago Atitlán	14	Cerro de Oro	6	Junio	2023-06-16T00:00:00	2024-11-08T03:00:00	6	Velocidad del viento	3.2
155110	7	Sololá	719	Santiago Atitlán	14	Cerro de Oro	6	Junio	2023-06-16T00:00:00	2024-11-08T03:00:00	7	Dirección del viento	3.22
155111	7	Sololá	719	Santiago Atitlán	14	Cerro de Oro	6	Junio	2023-06-16T00:00:00	2024-11-08T03:00:00	1	Precipitación	0
155112	7	Sololá	719	Santiago Atitlán	14	Cerro de Oro	6	Junio	2023-06-16T00:00:00	2024-11-08T03:00:00	8	Radiación solar	0
155113	7	Sololá	719	Santiago Atitlán	14	Cerro de Oro	6	Junio	2023-06-16T00:00:00	2024-11-08T04:00:00	2	Temperatura media	18.2
155114	7	Sololá	719	Santiago Atitlán	14	Cerro de Oro	6	Junio	2023-06-16T00:00:00	2024-11-08T04:00:00	4	Temperatura máxima	18.3
155115	7	Sololá	719	Santiago Atitlán	14	Cerro de Oro	6	Junio	2023-06-16T00:00:00	2024-11-08T04:00:00	3	Temperatura mínima	17.9
155116	7	Sololá	719	Santiago Atitlán	14	Cerro de Oro	6	Junio	2023-06-16T00:00:00	2024-11-08T04:00:00	5	Humedad	87
155117	7	Sololá	719	Santiago Atitlán	14	Cerro de Oro	6	Junio	2023-06-16T00:00:00	2024-11-08T04:00:00	6	Velocidad del viento	6.4
155118	7	Sololá	719	Santiago Atitlán	14	Cerro de Oro	6	Junio	2023-06-16T00:00:00	2024-11-08T04:00:00	7	Dirección del viento	6.44
155119	7	Sololá	719	Santiago Atitlán	14	Cerro de Oro	6	Junio	2023-06-16T00:00:00	2024-11-08T04:00:00	1	Precipitación	0
155120	7	Sololá	719	Santiago Atitlán	14	Cerro de Oro	6	Junio	2023-06-16T00:00:00	2024-11-08T04:00:00	8	Radiación solar	0
155121	7	Sololá	719	Santiago Atitlán	14	Cerro de Oro	6	Junio	2023-06-16T00:00:00	2024-11-08T05:00:00	2	Temperatura media	17.5
155122	7	Sololá	719	Santiago Atitlán	14	Cerro de Oro	6	Junio	2023-06-16T00:00:00	2024-11-08T05:00:00	4	Temperatura máxima	18.2
155123	7	Sololá	719	Santiago Atitlán	14	Cerro de Oro	6	Junio	2023-06-16T00:00:00	2024-11-08T05:00:00	3	Temperatura mínima	17.5
155124	7	Sololá	719	Santiago Atitlán	14	Cerro de Oro	6	Junio	2023-06-16T00:00:00	2024-11-08T05:00:00	5	Humedad	91
155125	7	Sololá	719	Santiago Atitlán	14	Cerro de Oro	6	Junio	2023-06-16T00:00:00	2024-11-08T05:00:00	6	Velocidad del viento	8
155126	7	Sololá	719	Santiago Atitlán	14	Cerro de Oro	6	Junio	2023-06-16T00:00:00	2024-11-08T05:00:00	7	Dirección del viento	8.05
155127	7	Sololá	719	Santiago Atitlán	14	Cerro de Oro	6	Junio	2023-06-16T00:00:00	2024-11-08T05:00:00	1	Precipitación	0
155128	7	Sololá	719	Santiago Atitlán	14	Cerro de Oro	6	Junio	2023-06-16T00:00:00	2024-11-08T05:00:00	8	Radiación solar	0
155129	7	Sololá	719	Santiago Atitlán	14	Cerro de Oro	6	Junio	2023-06-16T00:00:00	2024-11-08T06:00:00	2	Temperatura media	16.9
155130	7	Sololá	719	Santiago Atitlán	14	Cerro de Oro	6	Junio	2023-06-16T00:00:00	2024-11-08T06:00:00	4	Temperatura máxima	17.5
155131	7	Sololá	719	Santiago Atitlán	14	Cerro de Oro	6	Junio	2023-06-16T00:00:00	2024-11-08T06:00:00	3	Temperatura mínima	16.6
155132	7	Sololá	719	Santiago Atitlán	14	Cerro de Oro	6	Junio	2023-06-16T00:00:00	2024-11-08T06:00:00	5	Humedad	92
155133	7	Sololá	719	Santiago Atitlán	14	Cerro de Oro	6	Junio	2023-06-16T00:00:00	2024-11-08T06:00:00	6	Velocidad del viento	3.2
155134	7	Sololá	719	Santiago Atitlán	14	Cerro de Oro	6	Junio	2023-06-16T00:00:00	2024-11-08T06:00:00	7	Dirección del viento	3.22
155135	7	Sololá	719	Santiago Atitlán	14	Cerro de Oro	6	Junio	2023-06-16T00:00:00	2024-11-08T06:00:00	1	Precipitación	0
155136	7	Sololá	719	Santiago Atitlán	14	Cerro de Oro	6	Junio	2023-06-16T00:00:00	2024-11-08T06:00:00	8	Radiación solar	9
155137	7	Sololá	719	Santiago Atitlán	14	Cerro de Oro	6	Junio	2023-06-16T00:00:00	2024-11-08T07:00:00	2	Temperatura media	21.1
155138	7	Sololá	719	Santiago Atitlán	14	Cerro de Oro	6	Junio	2023-06-16T00:00:00	2024-11-08T07:00:00	4	Temperatura máxima	21.1
155139	7	Sololá	719	Santiago Atitlán	14	Cerro de Oro	6	Junio	2023-06-16T00:00:00	2024-11-08T07:00:00	3	Temperatura mínima	16.8
155140	7	Sololá	719	Santiago Atitlán	14	Cerro de Oro	6	Junio	2023-06-16T00:00:00	2024-11-08T07:00:00	5	Humedad	80
155141	7	Sololá	719	Santiago Atitlán	14	Cerro de Oro	6	Junio	2023-06-16T00:00:00	2024-11-08T07:00:00	6	Velocidad del viento	3.2
155142	7	Sololá	719	Santiago Atitlán	14	Cerro de Oro	6	Junio	2023-06-16T00:00:00	2024-11-08T07:00:00	7	Dirección del viento	3.22
155143	7	Sololá	719	Santiago Atitlán	14	Cerro de Oro	6	Junio	2023-06-16T00:00:00	2024-11-08T07:00:00	1	Precipitación	0
155144	7	Sololá	719	Santiago Atitlán	14	Cerro de Oro	6	Junio	2023-06-16T00:00:00	2024-11-08T07:00:00	8	Radiación solar	141
155145	7	Sololá	719	Santiago Atitlán	14	Cerro de Oro	6	Junio	2023-06-16T00:00:00	2024-11-08T08:00:00	2	Temperatura media	21.9
155146	7	Sololá	719	Santiago Atitlán	14	Cerro de Oro	6	Junio	2023-06-16T00:00:00	2024-11-08T08:00:00	4	Temperatura máxima	21.9
155147	7	Sololá	719	Santiago Atitlán	14	Cerro de Oro	6	Junio	2023-06-16T00:00:00	2024-11-08T08:00:00	3	Temperatura mínima	21.1
155148	7	Sololá	719	Santiago Atitlán	14	Cerro de Oro	6	Junio	2023-06-16T00:00:00	2024-11-08T08:00:00	5	Humedad	74
155149	7	Sololá	719	Santiago Atitlán	14	Cerro de Oro	6	Junio	2023-06-16T00:00:00	2024-11-08T08:00:00	6	Velocidad del viento	1.6
155150	7	Sololá	719	Santiago Atitlán	14	Cerro de Oro	6	Junio	2023-06-16T00:00:00	2024-11-08T08:00:00	7	Dirección del viento	1.61
155151	7	Sololá	719	Santiago Atitlán	14	Cerro de Oro	6	Junio	2023-06-16T00:00:00	2024-11-08T08:00:00	1	Precipitación	0
155152	7	Sololá	719	Santiago Atitlán	14	Cerro de Oro	6	Junio	2023-06-16T00:00:00	2024-11-08T08:00:00	8	Radiación solar	337
155153	7	Sololá	719	Santiago Atitlán	14	Cerro de Oro	6	Junio	2023-06-16T00:00:00	2024-11-08T09:00:00	2	Temperatura media	22.8
155154	7	Sololá	719	Santiago Atitlán	14	Cerro de Oro	6	Junio	2023-06-16T00:00:00	2024-11-08T09:00:00	4	Temperatura máxima	23.6
155155	7	Sololá	719	Santiago Atitlán	14	Cerro de Oro	6	Junio	2023-06-16T00:00:00	2024-11-08T09:00:00	3	Temperatura mínima	21.9
155156	7	Sololá	719	Santiago Atitlán	14	Cerro de Oro	6	Junio	2023-06-16T00:00:00	2024-11-08T09:00:00	5	Humedad	74
155157	7	Sololá	719	Santiago Atitlán	14	Cerro de Oro	6	Junio	2023-06-16T00:00:00	2024-11-08T09:00:00	6	Velocidad del viento	4.8
155158	7	Sololá	719	Santiago Atitlán	14	Cerro de Oro	6	Junio	2023-06-16T00:00:00	2024-11-08T09:00:00	7	Dirección del viento	4.83
155159	7	Sololá	719	Santiago Atitlán	14	Cerro de Oro	6	Junio	2023-06-16T00:00:00	2024-11-08T09:00:00	1	Precipitación	0
155160	7	Sololá	719	Santiago Atitlán	14	Cerro de Oro	6	Junio	2023-06-16T00:00:00	2024-11-08T09:00:00	8	Radiación solar	541
155161	7	Sololá	719	Santiago Atitlán	14	Cerro de Oro	6	Junio	2023-06-16T00:00:00	2024-11-08T10:00:00	2	Temperatura media	23.3
155162	7	Sololá	719	Santiago Atitlán	14	Cerro de Oro	6	Junio	2023-06-16T00:00:00	2024-11-08T10:00:00	4	Temperatura máxima	23.4
155163	7	Sololá	719	Santiago Atitlán	14	Cerro de Oro	6	Junio	2023-06-16T00:00:00	2024-11-08T10:00:00	3	Temperatura mínima	22.7
155164	7	Sololá	719	Santiago Atitlán	14	Cerro de Oro	6	Junio	2023-06-16T00:00:00	2024-11-08T10:00:00	5	Humedad	76
155165	7	Sololá	719	Santiago Atitlán	14	Cerro de Oro	6	Junio	2023-06-16T00:00:00	2024-11-08T10:00:00	6	Velocidad del viento	4.8
155166	7	Sololá	719	Santiago Atitlán	14	Cerro de Oro	6	Junio	2023-06-16T00:00:00	2024-11-08T10:00:00	7	Dirección del viento	4.83
155167	7	Sololá	719	Santiago Atitlán	14	Cerro de Oro	6	Junio	2023-06-16T00:00:00	2024-11-08T10:00:00	1	Precipitación	0
155168	7	Sololá	719	Santiago Atitlán	14	Cerro de Oro	6	Junio	2023-06-16T00:00:00	2024-11-08T10:00:00	8	Radiación solar	714
155169	7	Sololá	719	Santiago Atitlán	14	Cerro de Oro	6	Junio	2023-06-16T00:00:00	2024-11-08T11:00:00	2	Temperatura media	24.8
155170	7	Sololá	719	Santiago Atitlán	14	Cerro de Oro	6	Junio	2023-06-16T00:00:00	2024-11-08T11:00:00	4	Temperatura máxima	25.1
155171	7	Sololá	719	Santiago Atitlán	14	Cerro de Oro	6	Junio	2023-06-16T00:00:00	2024-11-08T11:00:00	3	Temperatura mínima	23.3
155172	7	Sololá	719	Santiago Atitlán	14	Cerro de Oro	6	Junio	2023-06-16T00:00:00	2024-11-08T11:00:00	5	Humedad	71
155173	7	Sololá	719	Santiago Atitlán	14	Cerro de Oro	6	Junio	2023-06-16T00:00:00	2024-11-08T11:00:00	6	Velocidad del viento	8
155174	7	Sololá	719	Santiago Atitlán	14	Cerro de Oro	6	Junio	2023-06-16T00:00:00	2024-11-08T11:00:00	7	Dirección del viento	8.05
155175	7	Sololá	719	Santiago Atitlán	14	Cerro de Oro	6	Junio	2023-06-16T00:00:00	2024-11-08T11:00:00	1	Precipitación	0
155176	7	Sololá	719	Santiago Atitlán	14	Cerro de Oro	6	Junio	2023-06-16T00:00:00	2024-11-08T11:00:00	8	Radiación solar	847
155177	7	Sololá	719	Santiago Atitlán	14	Cerro de Oro	6	Junio	2023-06-16T00:00:00	2024-11-08T12:00:00	2	Temperatura media	24.6
155178	7	Sololá	719	Santiago Atitlán	14	Cerro de Oro	6	Junio	2023-06-16T00:00:00	2024-11-08T12:00:00	4	Temperatura máxima	25.1
155179	7	Sololá	719	Santiago Atitlán	14	Cerro de Oro	6	Junio	2023-06-16T00:00:00	2024-11-08T12:00:00	3	Temperatura mínima	24.4
155180	7	Sololá	719	Santiago Atitlán	14	Cerro de Oro	6	Junio	2023-06-16T00:00:00	2024-11-08T12:00:00	5	Humedad	71
155181	7	Sololá	719	Santiago Atitlán	14	Cerro de Oro	6	Junio	2023-06-16T00:00:00	2024-11-08T12:00:00	6	Velocidad del viento	12.9
155182	7	Sololá	719	Santiago Atitlán	14	Cerro de Oro	6	Junio	2023-06-16T00:00:00	2024-11-08T12:00:00	7	Dirección del viento	12.87
155183	7	Sololá	719	Santiago Atitlán	14	Cerro de Oro	6	Junio	2023-06-16T00:00:00	2024-11-08T12:00:00	1	Precipitación	0
155184	7	Sololá	719	Santiago Atitlán	14	Cerro de Oro	6	Junio	2023-06-16T00:00:00	2024-11-08T12:00:00	8	Radiación solar	936
155185	7	Sololá	719	Santiago Atitlán	14	Cerro de Oro	6	Junio	2023-06-16T00:00:00	2024-11-08T13:00:00	2	Temperatura media	24.6
155186	7	Sololá	719	Santiago Atitlán	14	Cerro de Oro	6	Junio	2023-06-16T00:00:00	2024-11-08T13:00:00	4	Temperatura máxima	24.9
155187	7	Sololá	719	Santiago Atitlán	14	Cerro de Oro	6	Junio	2023-06-16T00:00:00	2024-11-08T13:00:00	3	Temperatura mínima	24.1
155188	7	Sololá	719	Santiago Atitlán	14	Cerro de Oro	6	Junio	2023-06-16T00:00:00	2024-11-08T13:00:00	5	Humedad	72
155189	7	Sololá	719	Santiago Atitlán	14	Cerro de Oro	6	Junio	2023-06-16T00:00:00	2024-11-08T13:00:00	6	Velocidad del viento	14.5
155190	7	Sololá	719	Santiago Atitlán	14	Cerro de Oro	6	Junio	2023-06-16T00:00:00	2024-11-08T13:00:00	7	Dirección del viento	14.48
155191	7	Sololá	719	Santiago Atitlán	14	Cerro de Oro	6	Junio	2023-06-16T00:00:00	2024-11-08T13:00:00	1	Precipitación	0
155192	7	Sololá	719	Santiago Atitlán	14	Cerro de Oro	6	Junio	2023-06-16T00:00:00	2024-11-08T13:00:00	8	Radiación solar	890
155193	7	Sololá	719	Santiago Atitlán	14	Cerro de Oro	6	Junio	2023-06-16T00:00:00	2024-11-08T14:00:00	2	Temperatura media	24
155194	7	Sololá	719	Santiago Atitlán	14	Cerro de Oro	6	Junio	2023-06-16T00:00:00	2024-11-08T14:00:00	4	Temperatura máxima	25.4
155195	7	Sololá	719	Santiago Atitlán	14	Cerro de Oro	6	Junio	2023-06-16T00:00:00	2024-11-08T14:00:00	3	Temperatura mínima	24
155196	7	Sololá	719	Santiago Atitlán	14	Cerro de Oro	6	Junio	2023-06-16T00:00:00	2024-11-08T14:00:00	5	Humedad	77
155197	7	Sololá	719	Santiago Atitlán	14	Cerro de Oro	6	Junio	2023-06-16T00:00:00	2024-11-08T14:00:00	6	Velocidad del viento	11.3
155198	7	Sololá	719	Santiago Atitlán	14	Cerro de Oro	6	Junio	2023-06-16T00:00:00	2024-11-08T14:00:00	7	Dirección del viento	11.27
155199	7	Sololá	719	Santiago Atitlán	14	Cerro de Oro	6	Junio	2023-06-16T00:00:00	2024-11-08T14:00:00	1	Precipitación	0
155200	7	Sololá	719	Santiago Atitlán	14	Cerro de Oro	6	Junio	2023-06-16T00:00:00	2024-11-08T14:00:00	8	Radiación solar	774
155201	7	Sololá	719	Santiago Atitlán	14	Cerro de Oro	6	Junio	2023-06-16T00:00:00	2024-11-08T15:00:00	2	Temperatura media	22.2
155202	7	Sololá	719	Santiago Atitlán	14	Cerro de Oro	6	Junio	2023-06-16T00:00:00	2024-11-08T15:00:00	4	Temperatura máxima	24.1
155203	7	Sololá	719	Santiago Atitlán	14	Cerro de Oro	6	Junio	2023-06-16T00:00:00	2024-11-08T15:00:00	3	Temperatura mínima	22.2
155204	7	Sololá	719	Santiago Atitlán	14	Cerro de Oro	6	Junio	2023-06-16T00:00:00	2024-11-08T15:00:00	5	Humedad	83
155205	7	Sololá	719	Santiago Atitlán	14	Cerro de Oro	6	Junio	2023-06-16T00:00:00	2024-11-08T15:00:00	6	Velocidad del viento	11.3
155206	7	Sololá	719	Santiago Atitlán	14	Cerro de Oro	6	Junio	2023-06-16T00:00:00	2024-11-08T15:00:00	7	Dirección del viento	11.27
155207	7	Sololá	719	Santiago Atitlán	14	Cerro de Oro	6	Junio	2023-06-16T00:00:00	2024-11-08T15:00:00	1	Precipitación	0
155208	7	Sololá	719	Santiago Atitlán	14	Cerro de Oro	6	Junio	2023-06-16T00:00:00	2024-11-08T15:00:00	8	Radiación solar	218
155209	7	Sololá	719	Santiago Atitlán	14	Cerro de Oro	6	Junio	2023-06-16T00:00:00	2024-11-08T16:00:00	2	Temperatura media	20.8
155210	7	Sololá	719	Santiago Atitlán	14	Cerro de Oro	6	Junio	2023-06-16T00:00:00	2024-11-08T16:00:00	4	Temperatura máxima	22.2
155211	7	Sololá	719	Santiago Atitlán	14	Cerro de Oro	6	Junio	2023-06-16T00:00:00	2024-11-08T16:00:00	3	Temperatura mínima	20.8
155212	7	Sololá	719	Santiago Atitlán	14	Cerro de Oro	6	Junio	2023-06-16T00:00:00	2024-11-08T16:00:00	5	Humedad	90
155213	7	Sololá	719	Santiago Atitlán	14	Cerro de Oro	6	Junio	2023-06-16T00:00:00	2024-11-08T16:00:00	6	Velocidad del viento	8
155214	7	Sololá	719	Santiago Atitlán	14	Cerro de Oro	6	Junio	2023-06-16T00:00:00	2024-11-08T16:00:00	7	Dirección del viento	8.05
155215	7	Sololá	719	Santiago Atitlán	14	Cerro de Oro	6	Junio	2023-06-16T00:00:00	2024-11-08T16:00:00	1	Precipitación	6.4
155216	7	Sololá	719	Santiago Atitlán	14	Cerro de Oro	6	Junio	2023-06-16T00:00:00	2024-11-08T16:00:00	8	Radiación solar	223
155217	7	Sololá	719	Santiago Atitlán	14	Cerro de Oro	6	Junio	2023-06-16T00:00:00	2024-11-08T17:00:00	2	Temperatura media	20.4
155218	7	Sololá	719	Santiago Atitlán	14	Cerro de Oro	6	Junio	2023-06-16T00:00:00	2024-11-08T17:00:00	4	Temperatura máxima	20.8
155219	7	Sololá	719	Santiago Atitlán	14	Cerro de Oro	6	Junio	2023-06-16T00:00:00	2024-11-08T17:00:00	3	Temperatura mínima	20.3
155220	7	Sololá	719	Santiago Atitlán	14	Cerro de Oro	6	Junio	2023-06-16T00:00:00	2024-11-08T17:00:00	5	Humedad	90
155221	7	Sololá	719	Santiago Atitlán	14	Cerro de Oro	6	Junio	2023-06-16T00:00:00	2024-11-08T17:00:00	6	Velocidad del viento	6.4
155222	7	Sololá	719	Santiago Atitlán	14	Cerro de Oro	6	Junio	2023-06-16T00:00:00	2024-11-08T17:00:00	7	Dirección del viento	6.44
155223	7	Sololá	719	Santiago Atitlán	14	Cerro de Oro	6	Junio	2023-06-16T00:00:00	2024-11-08T17:00:00	1	Precipitación	0.4
155224	7	Sololá	719	Santiago Atitlán	14	Cerro de Oro	6	Junio	2023-06-16T00:00:00	2024-11-08T17:00:00	8	Radiación solar	165
155225	7	Sololá	719	Santiago Atitlán	14	Cerro de Oro	6	Junio	2023-06-16T00:00:00	2024-11-08T18:00:00	2	Temperatura media	19.3
155226	7	Sololá	719	Santiago Atitlán	14	Cerro de Oro	6	Junio	2023-06-16T00:00:00	2024-11-08T18:00:00	4	Temperatura máxima	20.7
155227	7	Sololá	719	Santiago Atitlán	14	Cerro de Oro	6	Junio	2023-06-16T00:00:00	2024-11-08T18:00:00	3	Temperatura mínima	19.3
155228	7	Sololá	719	Santiago Atitlán	14	Cerro de Oro	6	Junio	2023-06-16T00:00:00	2024-11-08T18:00:00	5	Humedad	93
155229	7	Sololá	719	Santiago Atitlán	14	Cerro de Oro	6	Junio	2023-06-16T00:00:00	2024-11-08T18:00:00	6	Velocidad del viento	6.4
155230	7	Sololá	719	Santiago Atitlán	14	Cerro de Oro	6	Junio	2023-06-16T00:00:00	2024-11-08T18:00:00	7	Dirección del viento	6.44
155231	7	Sololá	719	Santiago Atitlán	14	Cerro de Oro	6	Junio	2023-06-16T00:00:00	2024-11-08T18:00:00	1	Precipitación	0
155232	7	Sololá	719	Santiago Atitlán	14	Cerro de Oro	6	Junio	2023-06-16T00:00:00	2024-11-08T18:00:00	8	Radiación solar	60
155233	7	Sololá	719	Santiago Atitlán	14	Cerro de Oro	6	Junio	2023-06-16T00:00:00	2024-11-08T19:00:00	2	Temperatura media	19.5
155234	7	Sololá	719	Santiago Atitlán	14	Cerro de Oro	6	Junio	2023-06-16T00:00:00	2024-11-08T19:00:00	4	Temperatura máxima	19.5
155235	7	Sololá	719	Santiago Atitlán	14	Cerro de Oro	6	Junio	2023-06-16T00:00:00	2024-11-08T19:00:00	3	Temperatura mínima	19.1
155236	7	Sololá	719	Santiago Atitlán	14	Cerro de Oro	6	Junio	2023-06-16T00:00:00	2024-11-08T19:00:00	5	Humedad	91
155237	7	Sololá	719	Santiago Atitlán	14	Cerro de Oro	6	Junio	2023-06-16T00:00:00	2024-11-08T19:00:00	6	Velocidad del viento	3.2
155238	7	Sololá	719	Santiago Atitlán	14	Cerro de Oro	6	Junio	2023-06-16T00:00:00	2024-11-08T19:00:00	7	Dirección del viento	3.22
155239	7	Sololá	719	Santiago Atitlán	14	Cerro de Oro	6	Junio	2023-06-16T00:00:00	2024-11-08T19:00:00	1	Precipitación	0
155240	7	Sololá	719	Santiago Atitlán	14	Cerro de Oro	6	Junio	2023-06-16T00:00:00	2024-11-08T19:00:00	8	Radiación solar	0
155241	7	Sololá	719	Santiago Atitlán	14	Cerro de Oro	6	Junio	2023-06-16T00:00:00	2024-11-08T20:00:00	2	Temperatura media	19.2
155242	7	Sololá	719	Santiago Atitlán	14	Cerro de Oro	6	Junio	2023-06-16T00:00:00	2024-11-08T20:00:00	4	Temperatura máxima	19.6
155243	7	Sololá	719	Santiago Atitlán	14	Cerro de Oro	6	Junio	2023-06-16T00:00:00	2024-11-08T20:00:00	3	Temperatura mínima	19.2
155244	7	Sololá	719	Santiago Atitlán	14	Cerro de Oro	6	Junio	2023-06-16T00:00:00	2024-11-08T20:00:00	5	Humedad	91
155245	7	Sololá	719	Santiago Atitlán	14	Cerro de Oro	6	Junio	2023-06-16T00:00:00	2024-11-08T20:00:00	6	Velocidad del viento	1.6
155246	7	Sololá	719	Santiago Atitlán	14	Cerro de Oro	6	Junio	2023-06-16T00:00:00	2024-11-08T20:00:00	7	Dirección del viento	1.61
155247	7	Sololá	719	Santiago Atitlán	14	Cerro de Oro	6	Junio	2023-06-16T00:00:00	2024-11-08T20:00:00	1	Precipitación	0
155248	7	Sololá	719	Santiago Atitlán	14	Cerro de Oro	6	Junio	2023-06-16T00:00:00	2024-11-08T20:00:00	8	Radiación solar	0
155249	7	Sololá	719	Santiago Atitlán	14	Cerro de Oro	6	Junio	2023-06-16T00:00:00	2024-11-08T21:00:00	2	Temperatura media	19.3
155250	7	Sololá	719	Santiago Atitlán	14	Cerro de Oro	6	Junio	2023-06-16T00:00:00	2024-11-08T21:00:00	4	Temperatura máxima	19.3
155251	7	Sololá	719	Santiago Atitlán	14	Cerro de Oro	6	Junio	2023-06-16T00:00:00	2024-11-08T21:00:00	3	Temperatura mínima	18.8
155252	7	Sololá	719	Santiago Atitlán	14	Cerro de Oro	6	Junio	2023-06-16T00:00:00	2024-11-08T21:00:00	5	Humedad	92
155253	7	Sololá	719	Santiago Atitlán	14	Cerro de Oro	6	Junio	2023-06-16T00:00:00	2024-11-08T21:00:00	6	Velocidad del viento	4.8
155254	7	Sololá	719	Santiago Atitlán	14	Cerro de Oro	6	Junio	2023-06-16T00:00:00	2024-11-08T21:00:00	7	Dirección del viento	4.83
155255	7	Sololá	719	Santiago Atitlán	14	Cerro de Oro	6	Junio	2023-06-16T00:00:00	2024-11-08T21:00:00	1	Precipitación	0
155256	7	Sololá	719	Santiago Atitlán	14	Cerro de Oro	6	Junio	2023-06-16T00:00:00	2024-11-08T21:00:00	8	Radiación solar	0
155257	7	Sololá	719	Santiago Atitlán	14	Cerro de Oro	6	Junio	2023-06-16T00:00:00	2024-11-08T22:00:00	2	Temperatura media	19
155258	7	Sololá	719	Santiago Atitlán	14	Cerro de Oro	6	Junio	2023-06-16T00:00:00	2024-11-08T22:00:00	4	Temperatura máxima	19.5
155259	7	Sololá	719	Santiago Atitlán	14	Cerro de Oro	6	Junio	2023-06-16T00:00:00	2024-11-08T22:00:00	3	Temperatura mínima	18.9
155260	7	Sololá	719	Santiago Atitlán	14	Cerro de Oro	6	Junio	2023-06-16T00:00:00	2024-11-08T22:00:00	5	Humedad	91
155261	7	Sololá	719	Santiago Atitlán	14	Cerro de Oro	6	Junio	2023-06-16T00:00:00	2024-11-08T22:00:00	6	Velocidad del viento	3.2
155262	7	Sololá	719	Santiago Atitlán	14	Cerro de Oro	6	Junio	2023-06-16T00:00:00	2024-11-08T22:00:00	7	Dirección del viento	3.22
155263	7	Sololá	719	Santiago Atitlán	14	Cerro de Oro	6	Junio	2023-06-16T00:00:00	2024-11-08T22:00:00	1	Precipitación	1
155264	7	Sololá	719	Santiago Atitlán	14	Cerro de Oro	6	Junio	2023-06-16T00:00:00	2024-11-08T22:00:00	8	Radiación solar	0
155265	7	Sololá	719	Santiago Atitlán	14	Cerro de Oro	6	Junio	2023-06-16T00:00:00	2024-11-08T23:00:00	2	Temperatura media	18.6
155266	7	Sololá	719	Santiago Atitlán	14	Cerro de Oro	6	Junio	2023-06-16T00:00:00	2024-11-08T23:00:00	4	Temperatura máxima	19
155267	7	Sololá	719	Santiago Atitlán	14	Cerro de Oro	6	Junio	2023-06-16T00:00:00	2024-11-08T23:00:00	3	Temperatura mínima	18.5
155268	7	Sololá	719	Santiago Atitlán	14	Cerro de Oro	6	Junio	2023-06-16T00:00:00	2024-11-08T23:00:00	5	Humedad	87
155269	7	Sololá	719	Santiago Atitlán	14	Cerro de Oro	6	Junio	2023-06-16T00:00:00	2024-11-08T23:00:00	6	Velocidad del viento	6.4
155270	7	Sololá	719	Santiago Atitlán	14	Cerro de Oro	6	Junio	2023-06-16T00:00:00	2024-11-08T23:00:00	7	Dirección del viento	6.44
155271	7	Sololá	719	Santiago Atitlán	14	Cerro de Oro	6	Junio	2023-06-16T00:00:00	2024-11-08T23:00:00	1	Precipitación	0
155272	7	Sololá	719	Santiago Atitlán	14	Cerro de Oro	6	Junio	2023-06-16T00:00:00	2024-11-08T23:00:00	8	Radiación solar	0
155273	7	Sololá	719	Santiago Atitlán	14	Cerro de Oro	6	Junio	2023-06-17T00:00:00	2024-11-08T00:00:00	2	Temperatura media	19.5
155274	7	Sololá	719	Santiago Atitlán	14	Cerro de Oro	6	Junio	2023-06-17T00:00:00	2024-11-08T00:00:00	4	Temperatura máxima	20
155275	7	Sololá	719	Santiago Atitlán	14	Cerro de Oro	6	Junio	2023-06-17T00:00:00	2024-11-08T00:00:00	3	Temperatura mínima	18.6
155276	7	Sololá	719	Santiago Atitlán	14	Cerro de Oro	6	Junio	2023-06-17T00:00:00	2024-11-08T00:00:00	5	Humedad	83
155277	7	Sololá	719	Santiago Atitlán	14	Cerro de Oro	6	Junio	2023-06-17T00:00:00	2024-11-08T00:00:00	6	Velocidad del viento	6.4
155278	7	Sololá	719	Santiago Atitlán	14	Cerro de Oro	6	Junio	2023-06-17T00:00:00	2024-11-08T00:00:00	7	Dirección del viento	6.44
155279	7	Sololá	719	Santiago Atitlán	14	Cerro de Oro	6	Junio	2023-06-17T00:00:00	2024-11-08T00:00:00	1	Precipitación	0
155280	7	Sololá	719	Santiago Atitlán	14	Cerro de Oro	6	Junio	2023-06-17T00:00:00	2024-11-08T00:00:00	8	Radiación solar	0
155281	7	Sololá	719	Santiago Atitlán	14	Cerro de Oro	6	Junio	2023-06-17T00:00:00	2024-11-08T01:00:00	2	Temperatura media	19.4
155282	7	Sololá	719	Santiago Atitlán	14	Cerro de Oro	6	Junio	2023-06-17T00:00:00	2024-11-08T01:00:00	4	Temperatura máxima	19.5
155283	7	Sololá	719	Santiago Atitlán	14	Cerro de Oro	6	Junio	2023-06-17T00:00:00	2024-11-08T01:00:00	3	Temperatura mínima	19.1
155284	7	Sololá	719	Santiago Atitlán	14	Cerro de Oro	6	Junio	2023-06-17T00:00:00	2024-11-08T01:00:00	5	Humedad	82
155285	7	Sololá	719	Santiago Atitlán	14	Cerro de Oro	6	Junio	2023-06-17T00:00:00	2024-11-08T01:00:00	6	Velocidad del viento	4.8
155286	7	Sololá	719	Santiago Atitlán	14	Cerro de Oro	6	Junio	2023-06-17T00:00:00	2024-11-08T01:00:00	7	Dirección del viento	4.83
155287	7	Sololá	719	Santiago Atitlán	14	Cerro de Oro	6	Junio	2023-06-17T00:00:00	2024-11-08T01:00:00	1	Precipitación	0
155288	7	Sololá	719	Santiago Atitlán	14	Cerro de Oro	6	Junio	2023-06-17T00:00:00	2024-11-08T01:00:00	8	Radiación solar	0
155289	7	Sololá	719	Santiago Atitlán	14	Cerro de Oro	6	Junio	2023-06-17T00:00:00	2024-11-08T02:00:00	2	Temperatura media	19.6
155290	7	Sololá	719	Santiago Atitlán	14	Cerro de Oro	6	Junio	2023-06-17T00:00:00	2024-11-08T02:00:00	4	Temperatura máxima	19.6
155291	7	Sololá	719	Santiago Atitlán	14	Cerro de Oro	6	Junio	2023-06-17T00:00:00	2024-11-08T02:00:00	3	Temperatura mínima	18.6
155292	7	Sololá	719	Santiago Atitlán	14	Cerro de Oro	6	Junio	2023-06-17T00:00:00	2024-11-08T02:00:00	5	Humedad	79
155293	7	Sololá	719	Santiago Atitlán	14	Cerro de Oro	6	Junio	2023-06-17T00:00:00	2024-11-08T02:00:00	6	Velocidad del viento	4.8
155294	7	Sololá	719	Santiago Atitlán	14	Cerro de Oro	6	Junio	2023-06-17T00:00:00	2024-11-08T02:00:00	7	Dirección del viento	4.83
155295	7	Sololá	719	Santiago Atitlán	14	Cerro de Oro	6	Junio	2023-06-17T00:00:00	2024-11-08T02:00:00	1	Precipitación	0
155296	7	Sololá	719	Santiago Atitlán	14	Cerro de Oro	6	Junio	2023-06-17T00:00:00	2024-11-08T02:00:00	8	Radiación solar	0
155297	7	Sololá	719	Santiago Atitlán	14	Cerro de Oro	6	Junio	2023-06-17T00:00:00	2024-11-08T03:00:00	2	Temperatura media	19.9
155298	7	Sololá	719	Santiago Atitlán	14	Cerro de Oro	6	Junio	2023-06-17T00:00:00	2024-11-08T03:00:00	4	Temperatura máxima	19.9
155299	7	Sololá	719	Santiago Atitlán	14	Cerro de Oro	6	Junio	2023-06-17T00:00:00	2024-11-08T03:00:00	3	Temperatura mínima	19
155300	7	Sololá	719	Santiago Atitlán	14	Cerro de Oro	6	Junio	2023-06-17T00:00:00	2024-11-08T03:00:00	5	Humedad	77
155301	7	Sololá	719	Santiago Atitlán	14	Cerro de Oro	6	Junio	2023-06-17T00:00:00	2024-11-08T03:00:00	6	Velocidad del viento	4.8
155302	7	Sololá	719	Santiago Atitlán	14	Cerro de Oro	6	Junio	2023-06-17T00:00:00	2024-11-08T03:00:00	7	Dirección del viento	4.83
155303	7	Sololá	719	Santiago Atitlán	14	Cerro de Oro	6	Junio	2023-06-17T00:00:00	2024-11-08T03:00:00	1	Precipitación	0
155304	7	Sololá	719	Santiago Atitlán	14	Cerro de Oro	6	Junio	2023-06-17T00:00:00	2024-11-08T03:00:00	8	Radiación solar	0
155305	7	Sololá	719	Santiago Atitlán	14	Cerro de Oro	6	Junio	2023-06-17T00:00:00	2024-11-08T04:00:00	2	Temperatura media	19.6
155306	7	Sololá	719	Santiago Atitlán	14	Cerro de Oro	6	Junio	2023-06-17T00:00:00	2024-11-08T04:00:00	4	Temperatura máxima	19.9
155307	7	Sololá	719	Santiago Atitlán	14	Cerro de Oro	6	Junio	2023-06-17T00:00:00	2024-11-08T04:00:00	3	Temperatura mínima	18.8
155308	7	Sololá	719	Santiago Atitlán	14	Cerro de Oro	6	Junio	2023-06-17T00:00:00	2024-11-08T04:00:00	5	Humedad	77
155309	7	Sololá	719	Santiago Atitlán	14	Cerro de Oro	6	Junio	2023-06-17T00:00:00	2024-11-08T04:00:00	6	Velocidad del viento	4.8
155310	7	Sololá	719	Santiago Atitlán	14	Cerro de Oro	6	Junio	2023-06-17T00:00:00	2024-11-08T04:00:00	7	Dirección del viento	4.83
155311	7	Sololá	719	Santiago Atitlán	14	Cerro de Oro	6	Junio	2023-06-17T00:00:00	2024-11-08T04:00:00	1	Precipitación	0
155312	7	Sololá	719	Santiago Atitlán	14	Cerro de Oro	6	Junio	2023-06-17T00:00:00	2024-11-08T04:00:00	8	Radiación solar	0
155313	7	Sololá	719	Santiago Atitlán	14	Cerro de Oro	6	Junio	2023-06-17T00:00:00	2024-11-08T05:00:00	2	Temperatura media	18.8
155314	7	Sololá	719	Santiago Atitlán	14	Cerro de Oro	6	Junio	2023-06-17T00:00:00	2024-11-08T05:00:00	4	Temperatura máxima	19.9
155315	7	Sololá	719	Santiago Atitlán	14	Cerro de Oro	6	Junio	2023-06-17T00:00:00	2024-11-08T05:00:00	3	Temperatura mínima	18.7
155316	7	Sololá	719	Santiago Atitlán	14	Cerro de Oro	6	Junio	2023-06-17T00:00:00	2024-11-08T05:00:00	5	Humedad	80
155317	7	Sololá	719	Santiago Atitlán	14	Cerro de Oro	6	Junio	2023-06-17T00:00:00	2024-11-08T05:00:00	6	Velocidad del viento	4.8
155318	7	Sololá	719	Santiago Atitlán	14	Cerro de Oro	6	Junio	2023-06-17T00:00:00	2024-11-08T05:00:00	7	Dirección del viento	4.83
155319	7	Sololá	719	Santiago Atitlán	14	Cerro de Oro	6	Junio	2023-06-17T00:00:00	2024-11-08T05:00:00	1	Precipitación	0
155320	7	Sololá	719	Santiago Atitlán	14	Cerro de Oro	6	Junio	2023-06-17T00:00:00	2024-11-08T05:00:00	8	Radiación solar	0
155321	7	Sololá	719	Santiago Atitlán	14	Cerro de Oro	6	Junio	2023-06-17T00:00:00	2024-11-08T06:00:00	2	Temperatura media	19.6
155322	7	Sololá	719	Santiago Atitlán	14	Cerro de Oro	6	Junio	2023-06-17T00:00:00	2024-11-08T06:00:00	4	Temperatura máxima	19.7
155323	7	Sololá	719	Santiago Atitlán	14	Cerro de Oro	6	Junio	2023-06-17T00:00:00	2024-11-08T06:00:00	3	Temperatura mínima	18.7
155324	7	Sololá	719	Santiago Atitlán	14	Cerro de Oro	6	Junio	2023-06-17T00:00:00	2024-11-08T06:00:00	5	Humedad	76
155325	7	Sololá	719	Santiago Atitlán	14	Cerro de Oro	6	Junio	2023-06-17T00:00:00	2024-11-08T06:00:00	6	Velocidad del viento	4.8
155326	7	Sololá	719	Santiago Atitlán	14	Cerro de Oro	6	Junio	2023-06-17T00:00:00	2024-11-08T06:00:00	7	Dirección del viento	4.83
155327	7	Sololá	719	Santiago Atitlán	14	Cerro de Oro	6	Junio	2023-06-17T00:00:00	2024-11-08T06:00:00	1	Precipitación	0
155328	7	Sololá	719	Santiago Atitlán	14	Cerro de Oro	6	Junio	2023-06-17T00:00:00	2024-11-08T06:00:00	8	Radiación solar	5
155329	7	Sololá	719	Santiago Atitlán	14	Cerro de Oro	6	Junio	2023-06-17T00:00:00	2024-11-08T07:00:00	2	Temperatura media	22.6
155330	7	Sololá	719	Santiago Atitlán	14	Cerro de Oro	6	Junio	2023-06-17T00:00:00	2024-11-08T07:00:00	4	Temperatura máxima	22.6
155331	7	Sololá	719	Santiago Atitlán	14	Cerro de Oro	6	Junio	2023-06-17T00:00:00	2024-11-08T07:00:00	3	Temperatura mínima	19.6
155332	7	Sololá	719	Santiago Atitlán	14	Cerro de Oro	6	Junio	2023-06-17T00:00:00	2024-11-08T07:00:00	5	Humedad	69
155333	7	Sololá	719	Santiago Atitlán	14	Cerro de Oro	6	Junio	2023-06-17T00:00:00	2024-11-08T07:00:00	6	Velocidad del viento	3.2
155334	7	Sololá	719	Santiago Atitlán	14	Cerro de Oro	6	Junio	2023-06-17T00:00:00	2024-11-08T07:00:00	7	Dirección del viento	3.22
155335	7	Sololá	719	Santiago Atitlán	14	Cerro de Oro	6	Junio	2023-06-17T00:00:00	2024-11-08T07:00:00	1	Precipitación	0
155336	7	Sololá	719	Santiago Atitlán	14	Cerro de Oro	6	Junio	2023-06-17T00:00:00	2024-11-08T07:00:00	8	Radiación solar	117
155337	7	Sololá	719	Santiago Atitlán	14	Cerro de Oro	6	Junio	2023-06-17T00:00:00	2024-11-08T08:00:00	2	Temperatura media	23.6
155338	7	Sololá	719	Santiago Atitlán	14	Cerro de Oro	6	Junio	2023-06-17T00:00:00	2024-11-08T08:00:00	4	Temperatura máxima	23.9
155339	7	Sololá	719	Santiago Atitlán	14	Cerro de Oro	6	Junio	2023-06-17T00:00:00	2024-11-08T08:00:00	3	Temperatura mínima	22.6
155340	7	Sololá	719	Santiago Atitlán	14	Cerro de Oro	6	Junio	2023-06-17T00:00:00	2024-11-08T08:00:00	5	Humedad	67
155341	7	Sololá	719	Santiago Atitlán	14	Cerro de Oro	6	Junio	2023-06-17T00:00:00	2024-11-08T08:00:00	6	Velocidad del viento	1.6
155342	7	Sololá	719	Santiago Atitlán	14	Cerro de Oro	6	Junio	2023-06-17T00:00:00	2024-11-08T08:00:00	7	Dirección del viento	1.61
155343	7	Sololá	719	Santiago Atitlán	14	Cerro de Oro	6	Junio	2023-06-17T00:00:00	2024-11-08T08:00:00	1	Precipitación	0
155344	7	Sololá	719	Santiago Atitlán	14	Cerro de Oro	6	Junio	2023-06-17T00:00:00	2024-11-08T08:00:00	8	Radiación solar	337
155345	7	Sololá	719	Santiago Atitlán	14	Cerro de Oro	6	Junio	2023-06-17T00:00:00	2024-11-08T09:00:00	2	Temperatura media	23.7
155346	7	Sololá	719	Santiago Atitlán	14	Cerro de Oro	6	Junio	2023-06-17T00:00:00	2024-11-08T09:00:00	4	Temperatura máxima	23.8
155347	7	Sololá	719	Santiago Atitlán	14	Cerro de Oro	6	Junio	2023-06-17T00:00:00	2024-11-08T09:00:00	3	Temperatura mínima	23.4
155348	7	Sololá	719	Santiago Atitlán	14	Cerro de Oro	6	Junio	2023-06-17T00:00:00	2024-11-08T09:00:00	5	Humedad	70
155349	7	Sololá	719	Santiago Atitlán	14	Cerro de Oro	6	Junio	2023-06-17T00:00:00	2024-11-08T09:00:00	6	Velocidad del viento	3.2
155350	7	Sololá	719	Santiago Atitlán	14	Cerro de Oro	6	Junio	2023-06-17T00:00:00	2024-11-08T09:00:00	7	Dirección del viento	3.22
155351	7	Sololá	719	Santiago Atitlán	14	Cerro de Oro	6	Junio	2023-06-17T00:00:00	2024-11-08T09:00:00	1	Precipitación	0
155352	7	Sololá	719	Santiago Atitlán	14	Cerro de Oro	6	Junio	2023-06-17T00:00:00	2024-11-08T09:00:00	8	Radiación solar	544
155353	7	Sololá	719	Santiago Atitlán	14	Cerro de Oro	6	Junio	2023-06-17T00:00:00	2024-11-08T10:00:00	2	Temperatura media	25.3
155354	7	Sololá	719	Santiago Atitlán	14	Cerro de Oro	6	Junio	2023-06-17T00:00:00	2024-11-08T10:00:00	4	Temperatura máxima	25.3
155355	7	Sololá	719	Santiago Atitlán	14	Cerro de Oro	6	Junio	2023-06-17T00:00:00	2024-11-08T10:00:00	3	Temperatura mínima	23.6
155356	7	Sololá	719	Santiago Atitlán	14	Cerro de Oro	6	Junio	2023-06-17T00:00:00	2024-11-08T10:00:00	5	Humedad	58
155357	7	Sololá	719	Santiago Atitlán	14	Cerro de Oro	6	Junio	2023-06-17T00:00:00	2024-11-08T10:00:00	6	Velocidad del viento	4.8
155358	7	Sololá	719	Santiago Atitlán	14	Cerro de Oro	6	Junio	2023-06-17T00:00:00	2024-11-08T10:00:00	7	Dirección del viento	4.83
155359	7	Sololá	719	Santiago Atitlán	14	Cerro de Oro	6	Junio	2023-06-17T00:00:00	2024-11-08T10:00:00	1	Precipitación	0
155360	7	Sololá	719	Santiago Atitlán	14	Cerro de Oro	6	Junio	2023-06-17T00:00:00	2024-11-08T10:00:00	8	Radiación solar	720
155361	7	Sololá	719	Santiago Atitlán	14	Cerro de Oro	6	Junio	2023-06-17T00:00:00	2024-11-08T11:00:00	2	Temperatura media	26.7
155362	7	Sololá	719	Santiago Atitlán	14	Cerro de Oro	6	Junio	2023-06-17T00:00:00	2024-11-08T11:00:00	4	Temperatura máxima	26.7
155363	7	Sololá	719	Santiago Atitlán	14	Cerro de Oro	6	Junio	2023-06-17T00:00:00	2024-11-08T11:00:00	3	Temperatura mínima	25.4
155364	7	Sololá	719	Santiago Atitlán	14	Cerro de Oro	6	Junio	2023-06-17T00:00:00	2024-11-08T11:00:00	5	Humedad	54
155365	7	Sololá	719	Santiago Atitlán	14	Cerro de Oro	6	Junio	2023-06-17T00:00:00	2024-11-08T11:00:00	6	Velocidad del viento	11.3
155366	7	Sololá	719	Santiago Atitlán	14	Cerro de Oro	6	Junio	2023-06-17T00:00:00	2024-11-08T11:00:00	7	Dirección del viento	11.27
155367	7	Sololá	719	Santiago Atitlán	14	Cerro de Oro	6	Junio	2023-06-17T00:00:00	2024-11-08T11:00:00	1	Precipitación	0
155368	7	Sololá	719	Santiago Atitlán	14	Cerro de Oro	6	Junio	2023-06-17T00:00:00	2024-11-08T11:00:00	8	Radiación solar	852
155369	7	Sololá	719	Santiago Atitlán	14	Cerro de Oro	6	Junio	2023-06-17T00:00:00	2024-11-08T12:00:00	2	Temperatura media	27.4
155370	7	Sololá	719	Santiago Atitlán	14	Cerro de Oro	6	Junio	2023-06-17T00:00:00	2024-11-08T12:00:00	4	Temperatura máxima	27.5
155371	7	Sololá	719	Santiago Atitlán	14	Cerro de Oro	6	Junio	2023-06-17T00:00:00	2024-11-08T12:00:00	3	Temperatura mínima	26.6
155372	7	Sololá	719	Santiago Atitlán	14	Cerro de Oro	6	Junio	2023-06-17T00:00:00	2024-11-08T12:00:00	5	Humedad	51
155373	7	Sololá	719	Santiago Atitlán	14	Cerro de Oro	6	Junio	2023-06-17T00:00:00	2024-11-08T12:00:00	6	Velocidad del viento	11.3
155374	7	Sololá	719	Santiago Atitlán	14	Cerro de Oro	6	Junio	2023-06-17T00:00:00	2024-11-08T12:00:00	7	Dirección del viento	11.27
155375	7	Sololá	719	Santiago Atitlán	14	Cerro de Oro	6	Junio	2023-06-17T00:00:00	2024-11-08T12:00:00	1	Precipitación	0
155376	7	Sololá	719	Santiago Atitlán	14	Cerro de Oro	6	Junio	2023-06-17T00:00:00	2024-11-08T12:00:00	8	Radiación solar	946
155377	7	Sololá	719	Santiago Atitlán	14	Cerro de Oro	6	Junio	2023-06-17T00:00:00	2024-11-08T13:00:00	2	Temperatura media	27.3
155378	7	Sololá	719	Santiago Atitlán	14	Cerro de Oro	6	Junio	2023-06-17T00:00:00	2024-11-08T13:00:00	4	Temperatura máxima	27.7
155379	7	Sololá	719	Santiago Atitlán	14	Cerro de Oro	6	Junio	2023-06-17T00:00:00	2024-11-08T13:00:00	3	Temperatura mínima	27.1
155380	7	Sololá	719	Santiago Atitlán	14	Cerro de Oro	6	Junio	2023-06-17T00:00:00	2024-11-08T13:00:00	5	Humedad	62
155381	7	Sololá	719	Santiago Atitlán	14	Cerro de Oro	6	Junio	2023-06-17T00:00:00	2024-11-08T13:00:00	6	Velocidad del viento	11.3
155382	7	Sololá	719	Santiago Atitlán	14	Cerro de Oro	6	Junio	2023-06-17T00:00:00	2024-11-08T13:00:00	7	Dirección del viento	11.27
155383	7	Sololá	719	Santiago Atitlán	14	Cerro de Oro	6	Junio	2023-06-17T00:00:00	2024-11-08T13:00:00	1	Precipitación	0
155384	7	Sololá	719	Santiago Atitlán	14	Cerro de Oro	6	Junio	2023-06-17T00:00:00	2024-11-08T13:00:00	8	Radiación solar	931
155385	7	Sololá	719	Santiago Atitlán	14	Cerro de Oro	6	Junio	2023-06-17T00:00:00	2024-11-08T14:00:00	2	Temperatura media	27.1
155386	7	Sololá	719	Santiago Atitlán	14	Cerro de Oro	6	Junio	2023-06-17T00:00:00	2024-11-08T14:00:00	4	Temperatura máxima	27.3
155387	7	Sololá	719	Santiago Atitlán	14	Cerro de Oro	6	Junio	2023-06-17T00:00:00	2024-11-08T14:00:00	3	Temperatura mínima	26.6
155388	7	Sololá	719	Santiago Atitlán	14	Cerro de Oro	6	Junio	2023-06-17T00:00:00	2024-11-08T14:00:00	5	Humedad	61
155389	7	Sololá	719	Santiago Atitlán	14	Cerro de Oro	6	Junio	2023-06-17T00:00:00	2024-11-08T14:00:00	6	Velocidad del viento	14.5
155390	7	Sololá	719	Santiago Atitlán	14	Cerro de Oro	6	Junio	2023-06-17T00:00:00	2024-11-08T14:00:00	7	Dirección del viento	14.48
155391	7	Sololá	719	Santiago Atitlán	14	Cerro de Oro	6	Junio	2023-06-17T00:00:00	2024-11-08T14:00:00	1	Precipitación	0
155392	7	Sololá	719	Santiago Atitlán	14	Cerro de Oro	6	Junio	2023-06-17T00:00:00	2024-11-08T14:00:00	8	Radiación solar	885
155393	7	Sololá	719	Santiago Atitlán	14	Cerro de Oro	6	Junio	2023-06-17T00:00:00	2024-11-08T15:00:00	2	Temperatura media	25.2
155394	7	Sololá	719	Santiago Atitlán	14	Cerro de Oro	6	Junio	2023-06-17T00:00:00	2024-11-08T15:00:00	4	Temperatura máxima	27.7
155395	7	Sololá	719	Santiago Atitlán	14	Cerro de Oro	6	Junio	2023-06-17T00:00:00	2024-11-08T15:00:00	3	Temperatura mínima	24.8
155396	7	Sololá	719	Santiago Atitlán	14	Cerro de Oro	6	Junio	2023-06-17T00:00:00	2024-11-08T15:00:00	5	Humedad	72
155397	7	Sololá	719	Santiago Atitlán	14	Cerro de Oro	6	Junio	2023-06-17T00:00:00	2024-11-08T15:00:00	6	Velocidad del viento	16.1
155398	7	Sololá	719	Santiago Atitlán	14	Cerro de Oro	6	Junio	2023-06-17T00:00:00	2024-11-08T15:00:00	7	Dirección del viento	16.09
155399	7	Sololá	719	Santiago Atitlán	14	Cerro de Oro	6	Junio	2023-06-17T00:00:00	2024-11-08T15:00:00	1	Precipitación	0
155400	7	Sololá	719	Santiago Atitlán	14	Cerro de Oro	6	Junio	2023-06-17T00:00:00	2024-11-08T15:00:00	8	Radiación solar	713
155401	7	Sololá	719	Santiago Atitlán	14	Cerro de Oro	6	Junio	2023-06-17T00:00:00	2024-11-08T16:00:00	2	Temperatura media	22.9
155402	7	Sololá	719	Santiago Atitlán	14	Cerro de Oro	6	Junio	2023-06-17T00:00:00	2024-11-08T16:00:00	4	Temperatura máxima	25.2
155403	7	Sololá	719	Santiago Atitlán	14	Cerro de Oro	6	Junio	2023-06-17T00:00:00	2024-11-08T16:00:00	3	Temperatura mínima	22.9
155404	7	Sololá	719	Santiago Atitlán	14	Cerro de Oro	6	Junio	2023-06-17T00:00:00	2024-11-08T16:00:00	5	Humedad	79
155405	7	Sololá	719	Santiago Atitlán	14	Cerro de Oro	6	Junio	2023-06-17T00:00:00	2024-11-08T16:00:00	6	Velocidad del viento	12.9
155406	7	Sololá	719	Santiago Atitlán	14	Cerro de Oro	6	Junio	2023-06-17T00:00:00	2024-11-08T16:00:00	7	Dirección del viento	12.87
155407	7	Sololá	719	Santiago Atitlán	14	Cerro de Oro	6	Junio	2023-06-17T00:00:00	2024-11-08T16:00:00	1	Precipitación	0
155408	7	Sololá	719	Santiago Atitlán	14	Cerro de Oro	6	Junio	2023-06-17T00:00:00	2024-11-08T16:00:00	8	Radiación solar	205
155409	7	Sololá	719	Santiago Atitlán	14	Cerro de Oro	6	Junio	2023-06-17T00:00:00	2024-11-08T17:00:00	2	Temperatura media	23.3
155410	7	Sololá	719	Santiago Atitlán	14	Cerro de Oro	6	Junio	2023-06-17T00:00:00	2024-11-08T17:00:00	4	Temperatura máxima	23.4
155411	7	Sololá	719	Santiago Atitlán	14	Cerro de Oro	6	Junio	2023-06-17T00:00:00	2024-11-08T17:00:00	3	Temperatura mínima	22.8
155412	7	Sololá	719	Santiago Atitlán	14	Cerro de Oro	6	Junio	2023-06-17T00:00:00	2024-11-08T17:00:00	5	Humedad	79
155413	7	Sololá	719	Santiago Atitlán	14	Cerro de Oro	6	Junio	2023-06-17T00:00:00	2024-11-08T17:00:00	6	Velocidad del viento	8
155414	7	Sololá	719	Santiago Atitlán	14	Cerro de Oro	6	Junio	2023-06-17T00:00:00	2024-11-08T17:00:00	7	Dirección del viento	8.05
155415	7	Sololá	719	Santiago Atitlán	14	Cerro de Oro	6	Junio	2023-06-17T00:00:00	2024-11-08T17:00:00	1	Precipitación	0
155416	7	Sololá	719	Santiago Atitlán	14	Cerro de Oro	6	Junio	2023-06-17T00:00:00	2024-11-08T17:00:00	8	Radiación solar	164
155417	7	Sololá	719	Santiago Atitlán	14	Cerro de Oro	6	Junio	2023-06-17T00:00:00	2024-11-08T18:00:00	2	Temperatura media	21.8
155418	7	Sololá	719	Santiago Atitlán	14	Cerro de Oro	6	Junio	2023-06-17T00:00:00	2024-11-08T18:00:00	4	Temperatura máxima	23.4
155419	7	Sololá	719	Santiago Atitlán	14	Cerro de Oro	6	Junio	2023-06-17T00:00:00	2024-11-08T18:00:00	3	Temperatura mínima	21.7
155420	7	Sololá	719	Santiago Atitlán	14	Cerro de Oro	6	Junio	2023-06-17T00:00:00	2024-11-08T18:00:00	5	Humedad	84
155421	7	Sololá	719	Santiago Atitlán	14	Cerro de Oro	6	Junio	2023-06-17T00:00:00	2024-11-08T18:00:00	6	Velocidad del viento	6.4
155422	7	Sololá	719	Santiago Atitlán	14	Cerro de Oro	6	Junio	2023-06-17T00:00:00	2024-11-08T18:00:00	7	Dirección del viento	6.44
155423	7	Sololá	719	Santiago Atitlán	14	Cerro de Oro	6	Junio	2023-06-17T00:00:00	2024-11-08T18:00:00	1	Precipitación	0
155424	7	Sololá	719	Santiago Atitlán	14	Cerro de Oro	6	Junio	2023-06-17T00:00:00	2024-11-08T18:00:00	8	Radiación solar	67
155425	7	Sololá	719	Santiago Atitlán	14	Cerro de Oro	6	Junio	2023-06-17T00:00:00	2024-11-08T19:00:00	2	Temperatura media	20
155426	7	Sololá	719	Santiago Atitlán	14	Cerro de Oro	6	Junio	2023-06-17T00:00:00	2024-11-08T19:00:00	4	Temperatura máxima	22
155427	7	Sololá	719	Santiago Atitlán	14	Cerro de Oro	6	Junio	2023-06-17T00:00:00	2024-11-08T19:00:00	3	Temperatura mínima	20
155428	7	Sololá	719	Santiago Atitlán	14	Cerro de Oro	6	Junio	2023-06-17T00:00:00	2024-11-08T19:00:00	5	Humedad	90
155429	7	Sololá	719	Santiago Atitlán	14	Cerro de Oro	6	Junio	2023-06-17T00:00:00	2024-11-08T19:00:00	6	Velocidad del viento	6.4
155430	7	Sololá	719	Santiago Atitlán	14	Cerro de Oro	6	Junio	2023-06-17T00:00:00	2024-11-08T19:00:00	7	Dirección del viento	6.44
155431	7	Sololá	719	Santiago Atitlán	14	Cerro de Oro	6	Junio	2023-06-17T00:00:00	2024-11-08T19:00:00	1	Precipitación	0
155432	7	Sololá	719	Santiago Atitlán	14	Cerro de Oro	6	Junio	2023-06-17T00:00:00	2024-11-08T19:00:00	8	Radiación solar	0
155433	7	Sololá	719	Santiago Atitlán	14	Cerro de Oro	6	Junio	2023-06-17T00:00:00	2024-11-08T20:00:00	2	Temperatura media	21.2
155434	7	Sololá	719	Santiago Atitlán	14	Cerro de Oro	6	Junio	2023-06-17T00:00:00	2024-11-08T20:00:00	4	Temperatura máxima	21.2
155435	7	Sololá	719	Santiago Atitlán	14	Cerro de Oro	6	Junio	2023-06-17T00:00:00	2024-11-08T20:00:00	3	Temperatura mínima	20
155436	7	Sololá	719	Santiago Atitlán	14	Cerro de Oro	6	Junio	2023-06-17T00:00:00	2024-11-08T20:00:00	5	Humedad	83
155437	7	Sololá	719	Santiago Atitlán	14	Cerro de Oro	6	Junio	2023-06-17T00:00:00	2024-11-08T20:00:00	6	Velocidad del viento	3.2
155438	7	Sololá	719	Santiago Atitlán	14	Cerro de Oro	6	Junio	2023-06-17T00:00:00	2024-11-08T20:00:00	7	Dirección del viento	3.22
155439	7	Sololá	719	Santiago Atitlán	14	Cerro de Oro	6	Junio	2023-06-17T00:00:00	2024-11-08T20:00:00	1	Precipitación	0
155440	7	Sololá	719	Santiago Atitlán	14	Cerro de Oro	6	Junio	2023-06-17T00:00:00	2024-11-08T20:00:00	8	Radiación solar	0
155441	7	Sololá	719	Santiago Atitlán	14	Cerro de Oro	6	Junio	2023-06-17T00:00:00	2024-11-08T21:00:00	2	Temperatura media	19.6
155442	7	Sololá	719	Santiago Atitlán	14	Cerro de Oro	6	Junio	2023-06-17T00:00:00	2024-11-08T21:00:00	4	Temperatura máxima	21.2
155443	7	Sololá	719	Santiago Atitlán	14	Cerro de Oro	6	Junio	2023-06-17T00:00:00	2024-11-08T21:00:00	3	Temperatura mínima	19.6
155444	7	Sololá	719	Santiago Atitlán	14	Cerro de Oro	6	Junio	2023-06-17T00:00:00	2024-11-08T21:00:00	5	Humedad	86
155445	7	Sololá	719	Santiago Atitlán	14	Cerro de Oro	6	Junio	2023-06-17T00:00:00	2024-11-08T21:00:00	6	Velocidad del viento	4.8
155446	7	Sololá	719	Santiago Atitlán	14	Cerro de Oro	6	Junio	2023-06-17T00:00:00	2024-11-08T21:00:00	7	Dirección del viento	4.83
155447	7	Sololá	719	Santiago Atitlán	14	Cerro de Oro	6	Junio	2023-06-17T00:00:00	2024-11-08T21:00:00	1	Precipitación	0
155448	7	Sololá	719	Santiago Atitlán	14	Cerro de Oro	6	Junio	2023-06-17T00:00:00	2024-11-08T21:00:00	8	Radiación solar	0
155449	7	Sololá	719	Santiago Atitlán	14	Cerro de Oro	6	Junio	2023-06-17T00:00:00	2024-11-08T22:00:00	2	Temperatura media	20.5
155450	7	Sololá	719	Santiago Atitlán	14	Cerro de Oro	6	Junio	2023-06-17T00:00:00	2024-11-08T22:00:00	4	Temperatura máxima	20.7
155451	7	Sololá	719	Santiago Atitlán	14	Cerro de Oro	6	Junio	2023-06-17T00:00:00	2024-11-08T22:00:00	3	Temperatura mínima	19.2
155452	7	Sololá	719	Santiago Atitlán	14	Cerro de Oro	6	Junio	2023-06-17T00:00:00	2024-11-08T22:00:00	5	Humedad	76
155453	7	Sololá	719	Santiago Atitlán	14	Cerro de Oro	6	Junio	2023-06-17T00:00:00	2024-11-08T22:00:00	6	Velocidad del viento	6.4
155454	7	Sololá	719	Santiago Atitlán	14	Cerro de Oro	6	Junio	2023-06-17T00:00:00	2024-11-08T22:00:00	7	Dirección del viento	6.44
155455	7	Sololá	719	Santiago Atitlán	14	Cerro de Oro	6	Junio	2023-06-17T00:00:00	2024-11-08T22:00:00	1	Precipitación	0
155456	7	Sololá	719	Santiago Atitlán	14	Cerro de Oro	6	Junio	2023-06-17T00:00:00	2024-11-08T22:00:00	8	Radiación solar	0
155457	7	Sololá	719	Santiago Atitlán	14	Cerro de Oro	6	Junio	2023-06-17T00:00:00	2024-11-08T23:00:00	2	Temperatura media	21.1
155458	7	Sololá	719	Santiago Atitlán	14	Cerro de Oro	6	Junio	2023-06-17T00:00:00	2024-11-08T23:00:00	4	Temperatura máxima	21.2
155459	7	Sololá	719	Santiago Atitlán	14	Cerro de Oro	6	Junio	2023-06-17T00:00:00	2024-11-08T23:00:00	3	Temperatura mínima	20.4
155460	7	Sololá	719	Santiago Atitlán	14	Cerro de Oro	6	Junio	2023-06-17T00:00:00	2024-11-08T23:00:00	5	Humedad	74
155461	7	Sololá	719	Santiago Atitlán	14	Cerro de Oro	6	Junio	2023-06-17T00:00:00	2024-11-08T23:00:00	6	Velocidad del viento	8
155462	7	Sololá	719	Santiago Atitlán	14	Cerro de Oro	6	Junio	2023-06-17T00:00:00	2024-11-08T23:00:00	7	Dirección del viento	8.05
155463	7	Sololá	719	Santiago Atitlán	14	Cerro de Oro	6	Junio	2023-06-17T00:00:00	2024-11-08T23:00:00	1	Precipitación	0
155464	7	Sololá	719	Santiago Atitlán	14	Cerro de Oro	6	Junio	2023-06-17T00:00:00	2024-11-08T23:00:00	8	Radiación solar	0
155465	7	Sololá	719	Santiago Atitlán	14	Cerro de Oro	6	Junio	2023-06-18T00:00:00	2024-11-08T00:00:00	2	Temperatura media	20
155466	7	Sololá	719	Santiago Atitlán	14	Cerro de Oro	6	Junio	2023-06-18T00:00:00	2024-11-08T00:00:00	4	Temperatura máxima	21.6
155467	7	Sololá	719	Santiago Atitlán	14	Cerro de Oro	6	Junio	2023-06-18T00:00:00	2024-11-08T00:00:00	3	Temperatura mínima	19.9
155468	7	Sololá	719	Santiago Atitlán	14	Cerro de Oro	6	Junio	2023-06-18T00:00:00	2024-11-08T00:00:00	5	Humedad	75
155469	7	Sololá	719	Santiago Atitlán	14	Cerro de Oro	6	Junio	2023-06-18T00:00:00	2024-11-08T00:00:00	6	Velocidad del viento	6.4
155470	7	Sololá	719	Santiago Atitlán	14	Cerro de Oro	6	Junio	2023-06-18T00:00:00	2024-11-08T00:00:00	7	Dirección del viento	6.44
155471	7	Sololá	719	Santiago Atitlán	14	Cerro de Oro	6	Junio	2023-06-18T00:00:00	2024-11-08T00:00:00	1	Precipitación	0
155472	7	Sololá	719	Santiago Atitlán	14	Cerro de Oro	6	Junio	2023-06-18T00:00:00	2024-11-08T00:00:00	8	Radiación solar	0
155473	7	Sololá	719	Santiago Atitlán	14	Cerro de Oro	6	Junio	2023-06-18T00:00:00	2024-11-08T01:00:00	2	Temperatura media	20.1
155474	7	Sololá	719	Santiago Atitlán	14	Cerro de Oro	6	Junio	2023-06-18T00:00:00	2024-11-08T01:00:00	4	Temperatura máxima	20.2
155475	7	Sololá	719	Santiago Atitlán	14	Cerro de Oro	6	Junio	2023-06-18T00:00:00	2024-11-08T01:00:00	3	Temperatura mínima	19.7
155476	7	Sololá	719	Santiago Atitlán	14	Cerro de Oro	6	Junio	2023-06-18T00:00:00	2024-11-08T01:00:00	5	Humedad	71
155477	7	Sololá	719	Santiago Atitlán	14	Cerro de Oro	6	Junio	2023-06-18T00:00:00	2024-11-08T01:00:00	6	Velocidad del viento	4.8
155478	7	Sololá	719	Santiago Atitlán	14	Cerro de Oro	6	Junio	2023-06-18T00:00:00	2024-11-08T01:00:00	7	Dirección del viento	4.83
155479	7	Sololá	719	Santiago Atitlán	14	Cerro de Oro	6	Junio	2023-06-18T00:00:00	2024-11-08T01:00:00	1	Precipitación	0
155480	7	Sololá	719	Santiago Atitlán	14	Cerro de Oro	6	Junio	2023-06-18T00:00:00	2024-11-08T01:00:00	8	Radiación solar	0
155481	7	Sololá	719	Santiago Atitlán	14	Cerro de Oro	6	Junio	2023-06-18T00:00:00	2024-11-08T02:00:00	2	Temperatura media	19.2
155482	7	Sololá	719	Santiago Atitlán	14	Cerro de Oro	6	Junio	2023-06-18T00:00:00	2024-11-08T02:00:00	4	Temperatura máxima	20.1
155483	7	Sololá	719	Santiago Atitlán	14	Cerro de Oro	6	Junio	2023-06-18T00:00:00	2024-11-08T02:00:00	3	Temperatura mínima	18.7
155484	7	Sololá	719	Santiago Atitlán	14	Cerro de Oro	6	Junio	2023-06-18T00:00:00	2024-11-08T02:00:00	5	Humedad	73
155485	7	Sololá	719	Santiago Atitlán	14	Cerro de Oro	6	Junio	2023-06-18T00:00:00	2024-11-08T02:00:00	6	Velocidad del viento	3.2
155486	7	Sololá	719	Santiago Atitlán	14	Cerro de Oro	6	Junio	2023-06-18T00:00:00	2024-11-08T02:00:00	7	Dirección del viento	3.22
155487	7	Sololá	719	Santiago Atitlán	14	Cerro de Oro	6	Junio	2023-06-18T00:00:00	2024-11-08T02:00:00	1	Precipitación	0
155488	7	Sololá	719	Santiago Atitlán	14	Cerro de Oro	6	Junio	2023-06-18T00:00:00	2024-11-08T02:00:00	8	Radiación solar	0
155489	7	Sololá	719	Santiago Atitlán	14	Cerro de Oro	6	Junio	2023-06-18T00:00:00	2024-11-08T03:00:00	2	Temperatura media	18.1
155490	7	Sololá	719	Santiago Atitlán	14	Cerro de Oro	6	Junio	2023-06-18T00:00:00	2024-11-08T03:00:00	4	Temperatura máxima	19.2
155491	7	Sololá	719	Santiago Atitlán	14	Cerro de Oro	6	Junio	2023-06-18T00:00:00	2024-11-08T03:00:00	3	Temperatura mínima	17.9
155492	7	Sololá	719	Santiago Atitlán	14	Cerro de Oro	6	Junio	2023-06-18T00:00:00	2024-11-08T03:00:00	5	Humedad	72
155493	7	Sololá	719	Santiago Atitlán	14	Cerro de Oro	6	Junio	2023-06-18T00:00:00	2024-11-08T03:00:00	6	Velocidad del viento	6.4
155494	7	Sololá	719	Santiago Atitlán	14	Cerro de Oro	6	Junio	2023-06-18T00:00:00	2024-11-08T03:00:00	7	Dirección del viento	6.44
155495	7	Sololá	719	Santiago Atitlán	14	Cerro de Oro	6	Junio	2023-06-18T00:00:00	2024-11-08T03:00:00	1	Precipitación	0
155496	7	Sololá	719	Santiago Atitlán	14	Cerro de Oro	6	Junio	2023-06-18T00:00:00	2024-11-08T03:00:00	8	Radiación solar	0
155497	7	Sololá	719	Santiago Atitlán	14	Cerro de Oro	6	Junio	2023-06-18T00:00:00	2024-11-08T04:00:00	2	Temperatura media	19.6
155498	7	Sololá	719	Santiago Atitlán	14	Cerro de Oro	6	Junio	2023-06-18T00:00:00	2024-11-08T04:00:00	4	Temperatura máxima	20.1
155499	7	Sololá	719	Santiago Atitlán	14	Cerro de Oro	6	Junio	2023-06-18T00:00:00	2024-11-08T04:00:00	3	Temperatura mínima	18.1
155500	7	Sololá	719	Santiago Atitlán	14	Cerro de Oro	6	Junio	2023-06-18T00:00:00	2024-11-08T04:00:00	5	Humedad	72
155501	7	Sololá	719	Santiago Atitlán	14	Cerro de Oro	6	Junio	2023-06-18T00:00:00	2024-11-08T04:00:00	6	Velocidad del viento	9.7
155502	7	Sololá	719	Santiago Atitlán	14	Cerro de Oro	6	Junio	2023-06-18T00:00:00	2024-11-08T04:00:00	7	Dirección del viento	9.66
155503	7	Sololá	719	Santiago Atitlán	14	Cerro de Oro	6	Junio	2023-06-18T00:00:00	2024-11-08T04:00:00	1	Precipitación	0
155504	7	Sololá	719	Santiago Atitlán	14	Cerro de Oro	6	Junio	2023-06-18T00:00:00	2024-11-08T04:00:00	8	Radiación solar	0
155505	7	Sololá	719	Santiago Atitlán	14	Cerro de Oro	6	Junio	2023-06-18T00:00:00	2024-11-08T05:00:00	2	Temperatura media	18.6
155506	7	Sololá	719	Santiago Atitlán	14	Cerro de Oro	6	Junio	2023-06-18T00:00:00	2024-11-08T05:00:00	4	Temperatura máxima	20.2
155507	7	Sololá	719	Santiago Atitlán	14	Cerro de Oro	6	Junio	2023-06-18T00:00:00	2024-11-08T05:00:00	3	Temperatura mínima	18.6
155508	7	Sololá	719	Santiago Atitlán	14	Cerro de Oro	6	Junio	2023-06-18T00:00:00	2024-11-08T05:00:00	5	Humedad	72
155509	7	Sololá	719	Santiago Atitlán	14	Cerro de Oro	6	Junio	2023-06-18T00:00:00	2024-11-08T05:00:00	6	Velocidad del viento	8
155510	7	Sololá	719	Santiago Atitlán	14	Cerro de Oro	6	Junio	2023-06-18T00:00:00	2024-11-08T05:00:00	7	Dirección del viento	8.05
155511	7	Sololá	719	Santiago Atitlán	14	Cerro de Oro	6	Junio	2023-06-18T00:00:00	2024-11-08T05:00:00	1	Precipitación	0
155512	7	Sololá	719	Santiago Atitlán	14	Cerro de Oro	6	Junio	2023-06-18T00:00:00	2024-11-08T05:00:00	8	Radiación solar	0
155513	7	Sololá	719	Santiago Atitlán	14	Cerro de Oro	6	Junio	2023-06-18T00:00:00	2024-11-08T06:00:00	2	Temperatura media	19.3
155514	7	Sololá	719	Santiago Atitlán	14	Cerro de Oro	6	Junio	2023-06-18T00:00:00	2024-11-08T06:00:00	4	Temperatura máxima	19.3
155515	7	Sololá	719	Santiago Atitlán	14	Cerro de Oro	6	Junio	2023-06-18T00:00:00	2024-11-08T06:00:00	3	Temperatura mínima	18.5
155516	7	Sololá	719	Santiago Atitlán	14	Cerro de Oro	6	Junio	2023-06-18T00:00:00	2024-11-08T06:00:00	5	Humedad	67
155517	7	Sololá	719	Santiago Atitlán	14	Cerro de Oro	6	Junio	2023-06-18T00:00:00	2024-11-08T06:00:00	6	Velocidad del viento	4.8
155518	7	Sololá	719	Santiago Atitlán	14	Cerro de Oro	6	Junio	2023-06-18T00:00:00	2024-11-08T06:00:00	7	Dirección del viento	4.83
155519	7	Sololá	719	Santiago Atitlán	14	Cerro de Oro	6	Junio	2023-06-18T00:00:00	2024-11-08T06:00:00	1	Precipitación	0
155520	7	Sololá	719	Santiago Atitlán	14	Cerro de Oro	6	Junio	2023-06-18T00:00:00	2024-11-08T06:00:00	8	Radiación solar	6
155521	7	Sololá	719	Santiago Atitlán	14	Cerro de Oro	6	Junio	2023-06-18T00:00:00	2024-11-08T07:00:00	2	Temperatura media	21.6
155522	7	Sololá	719	Santiago Atitlán	14	Cerro de Oro	6	Junio	2023-06-18T00:00:00	2024-11-08T07:00:00	4	Temperatura máxima	21.6
155523	7	Sololá	719	Santiago Atitlán	14	Cerro de Oro	6	Junio	2023-06-18T00:00:00	2024-11-08T07:00:00	3	Temperatura mínima	19.3
155524	7	Sololá	719	Santiago Atitlán	14	Cerro de Oro	6	Junio	2023-06-18T00:00:00	2024-11-08T07:00:00	5	Humedad	61
155525	7	Sololá	719	Santiago Atitlán	14	Cerro de Oro	6	Junio	2023-06-18T00:00:00	2024-11-08T07:00:00	6	Velocidad del viento	3.2
155526	7	Sololá	719	Santiago Atitlán	14	Cerro de Oro	6	Junio	2023-06-18T00:00:00	2024-11-08T07:00:00	7	Dirección del viento	3.22
155527	7	Sololá	719	Santiago Atitlán	14	Cerro de Oro	6	Junio	2023-06-18T00:00:00	2024-11-08T07:00:00	1	Precipitación	0
155528	7	Sololá	719	Santiago Atitlán	14	Cerro de Oro	6	Junio	2023-06-18T00:00:00	2024-11-08T07:00:00	8	Radiación solar	121
155529	7	Sololá	719	Santiago Atitlán	14	Cerro de Oro	6	Junio	2023-06-18T00:00:00	2024-11-08T08:00:00	2	Temperatura media	23.8
155530	7	Sololá	719	Santiago Atitlán	14	Cerro de Oro	6	Junio	2023-06-18T00:00:00	2024-11-08T08:00:00	4	Temperatura máxima	24.1
155531	7	Sololá	719	Santiago Atitlán	14	Cerro de Oro	6	Junio	2023-06-18T00:00:00	2024-11-08T08:00:00	3	Temperatura mínima	21.6
155532	7	Sololá	719	Santiago Atitlán	14	Cerro de Oro	6	Junio	2023-06-18T00:00:00	2024-11-08T08:00:00	5	Humedad	57
155533	7	Sololá	719	Santiago Atitlán	14	Cerro de Oro	6	Junio	2023-06-18T00:00:00	2024-11-08T08:00:00	6	Velocidad del viento	3.2
155534	7	Sololá	719	Santiago Atitlán	14	Cerro de Oro	6	Junio	2023-06-18T00:00:00	2024-11-08T08:00:00	7	Dirección del viento	3.22
155535	7	Sololá	719	Santiago Atitlán	14	Cerro de Oro	6	Junio	2023-06-18T00:00:00	2024-11-08T08:00:00	1	Precipitación	0
155536	7	Sololá	719	Santiago Atitlán	14	Cerro de Oro	6	Junio	2023-06-18T00:00:00	2024-11-08T08:00:00	8	Radiación solar	343
155537	7	Sololá	719	Santiago Atitlán	14	Cerro de Oro	6	Junio	2023-06-18T00:00:00	2024-11-08T09:00:00	2	Temperatura media	24.7
155538	7	Sololá	719	Santiago Atitlán	14	Cerro de Oro	6	Junio	2023-06-18T00:00:00	2024-11-08T09:00:00	4	Temperatura máxima	24.8
155539	7	Sololá	719	Santiago Atitlán	14	Cerro de Oro	6	Junio	2023-06-18T00:00:00	2024-11-08T09:00:00	3	Temperatura mínima	23.8
155540	7	Sololá	719	Santiago Atitlán	14	Cerro de Oro	6	Junio	2023-06-18T00:00:00	2024-11-08T09:00:00	5	Humedad	54
155541	7	Sololá	719	Santiago Atitlán	14	Cerro de Oro	6	Junio	2023-06-18T00:00:00	2024-11-08T09:00:00	6	Velocidad del viento	3.2
155542	7	Sololá	719	Santiago Atitlán	14	Cerro de Oro	6	Junio	2023-06-18T00:00:00	2024-11-08T09:00:00	7	Dirección del viento	3.22
155543	7	Sololá	719	Santiago Atitlán	14	Cerro de Oro	6	Junio	2023-06-18T00:00:00	2024-11-08T09:00:00	1	Precipitación	0
155544	7	Sololá	719	Santiago Atitlán	14	Cerro de Oro	6	Junio	2023-06-18T00:00:00	2024-11-08T09:00:00	8	Radiación solar	550
155545	7	Sololá	719	Santiago Atitlán	14	Cerro de Oro	6	Junio	2023-06-18T00:00:00	2024-11-08T10:00:00	2	Temperatura media	26.7
155546	7	Sololá	719	Santiago Atitlán	14	Cerro de Oro	6	Junio	2023-06-18T00:00:00	2024-11-08T10:00:00	4	Temperatura máxima	26.7
155547	7	Sololá	719	Santiago Atitlán	14	Cerro de Oro	6	Junio	2023-06-18T00:00:00	2024-11-08T10:00:00	3	Temperatura mínima	24.8
155548	7	Sololá	719	Santiago Atitlán	14	Cerro de Oro	6	Junio	2023-06-18T00:00:00	2024-11-08T10:00:00	5	Humedad	49
155549	7	Sololá	719	Santiago Atitlán	14	Cerro de Oro	6	Junio	2023-06-18T00:00:00	2024-11-08T10:00:00	6	Velocidad del viento	4.8
155550	7	Sololá	719	Santiago Atitlán	14	Cerro de Oro	6	Junio	2023-06-18T00:00:00	2024-11-08T10:00:00	7	Dirección del viento	4.83
155551	7	Sololá	719	Santiago Atitlán	14	Cerro de Oro	6	Junio	2023-06-18T00:00:00	2024-11-08T10:00:00	1	Precipitación	0
155552	7	Sololá	719	Santiago Atitlán	14	Cerro de Oro	6	Junio	2023-06-18T00:00:00	2024-11-08T10:00:00	8	Radiación solar	729
155553	7	Sololá	719	Santiago Atitlán	14	Cerro de Oro	6	Junio	2023-06-18T00:00:00	2024-11-08T11:00:00	2	Temperatura media	27.1
155554	7	Sololá	719	Santiago Atitlán	14	Cerro de Oro	6	Junio	2023-06-18T00:00:00	2024-11-08T11:00:00	4	Temperatura máxima	27.1
155555	7	Sololá	719	Santiago Atitlán	14	Cerro de Oro	6	Junio	2023-06-18T00:00:00	2024-11-08T11:00:00	3	Temperatura mínima	26.3
155556	7	Sololá	719	Santiago Atitlán	14	Cerro de Oro	6	Junio	2023-06-18T00:00:00	2024-11-08T11:00:00	5	Humedad	48
155557	7	Sololá	719	Santiago Atitlán	14	Cerro de Oro	6	Junio	2023-06-18T00:00:00	2024-11-08T11:00:00	6	Velocidad del viento	4.8
155558	7	Sololá	719	Santiago Atitlán	14	Cerro de Oro	6	Junio	2023-06-18T00:00:00	2024-11-08T11:00:00	7	Dirección del viento	4.83
155559	7	Sololá	719	Santiago Atitlán	14	Cerro de Oro	6	Junio	2023-06-18T00:00:00	2024-11-08T11:00:00	1	Precipitación	0
155560	7	Sololá	719	Santiago Atitlán	14	Cerro de Oro	6	Junio	2023-06-18T00:00:00	2024-11-08T11:00:00	8	Radiación solar	850
155561	7	Sololá	719	Santiago Atitlán	14	Cerro de Oro	6	Junio	2023-06-18T00:00:00	2024-11-08T12:00:00	2	Temperatura media	25.9
155562	7	Sololá	719	Santiago Atitlán	14	Cerro de Oro	6	Junio	2023-06-18T00:00:00	2024-11-08T12:00:00	4	Temperatura máxima	27.9
155563	7	Sololá	719	Santiago Atitlán	14	Cerro de Oro	6	Junio	2023-06-18T00:00:00	2024-11-08T12:00:00	3	Temperatura mínima	25.9
155564	7	Sololá	719	Santiago Atitlán	14	Cerro de Oro	6	Junio	2023-06-18T00:00:00	2024-11-08T12:00:00	5	Humedad	67
155565	7	Sololá	719	Santiago Atitlán	14	Cerro de Oro	6	Junio	2023-06-18T00:00:00	2024-11-08T12:00:00	6	Velocidad del viento	9.7
155566	7	Sololá	719	Santiago Atitlán	14	Cerro de Oro	6	Junio	2023-06-18T00:00:00	2024-11-08T12:00:00	7	Dirección del viento	9.66
155567	7	Sololá	719	Santiago Atitlán	14	Cerro de Oro	6	Junio	2023-06-18T00:00:00	2024-11-08T12:00:00	1	Precipitación	0
155568	7	Sololá	719	Santiago Atitlán	14	Cerro de Oro	6	Junio	2023-06-18T00:00:00	2024-11-08T12:00:00	8	Radiación solar	923
155569	7	Sololá	719	Santiago Atitlán	14	Cerro de Oro	6	Junio	2023-06-18T00:00:00	2024-11-08T13:00:00	2	Temperatura media	26.2
155570	7	Sololá	719	Santiago Atitlán	14	Cerro de Oro	6	Junio	2023-06-18T00:00:00	2024-11-08T13:00:00	4	Temperatura máxima	26.6
155571	7	Sololá	719	Santiago Atitlán	14	Cerro de Oro	6	Junio	2023-06-18T00:00:00	2024-11-08T13:00:00	3	Temperatura mínima	25.2
155572	7	Sololá	719	Santiago Atitlán	14	Cerro de Oro	6	Junio	2023-06-18T00:00:00	2024-11-08T13:00:00	5	Humedad	66
155573	7	Sololá	719	Santiago Atitlán	14	Cerro de Oro	6	Junio	2023-06-18T00:00:00	2024-11-08T13:00:00	6	Velocidad del viento	12.9
155574	7	Sololá	719	Santiago Atitlán	14	Cerro de Oro	6	Junio	2023-06-18T00:00:00	2024-11-08T13:00:00	7	Dirección del viento	12.87
155575	7	Sololá	719	Santiago Atitlán	14	Cerro de Oro	6	Junio	2023-06-18T00:00:00	2024-11-08T13:00:00	1	Precipitación	0
155576	7	Sololá	719	Santiago Atitlán	14	Cerro de Oro	6	Junio	2023-06-18T00:00:00	2024-11-08T13:00:00	8	Radiación solar	931
155577	7	Sololá	719	Santiago Atitlán	14	Cerro de Oro	6	Junio	2023-06-18T00:00:00	2024-11-08T14:00:00	2	Temperatura media	25.8
155578	7	Sololá	719	Santiago Atitlán	14	Cerro de Oro	6	Junio	2023-06-18T00:00:00	2024-11-08T14:00:00	4	Temperatura máxima	26.2
155579	7	Sololá	719	Santiago Atitlán	14	Cerro de Oro	6	Junio	2023-06-18T00:00:00	2024-11-08T14:00:00	3	Temperatura mínima	25.4
155580	7	Sololá	719	Santiago Atitlán	14	Cerro de Oro	6	Junio	2023-06-18T00:00:00	2024-11-08T14:00:00	5	Humedad	68
155581	7	Sololá	719	Santiago Atitlán	14	Cerro de Oro	6	Junio	2023-06-18T00:00:00	2024-11-08T14:00:00	6	Velocidad del viento	16.1
155582	7	Sololá	719	Santiago Atitlán	14	Cerro de Oro	6	Junio	2023-06-18T00:00:00	2024-11-08T14:00:00	7	Dirección del viento	16.09
155583	7	Sololá	719	Santiago Atitlán	14	Cerro de Oro	6	Junio	2023-06-18T00:00:00	2024-11-08T14:00:00	1	Precipitación	0
155584	7	Sololá	719	Santiago Atitlán	14	Cerro de Oro	6	Junio	2023-06-18T00:00:00	2024-11-08T14:00:00	8	Radiación solar	877
155585	7	Sololá	719	Santiago Atitlán	14	Cerro de Oro	6	Junio	2023-06-18T00:00:00	2024-11-08T15:00:00	2	Temperatura media	25.6
155586	7	Sololá	719	Santiago Atitlán	14	Cerro de Oro	6	Junio	2023-06-18T00:00:00	2024-11-08T15:00:00	4	Temperatura máxima	26.4
155587	7	Sololá	719	Santiago Atitlán	14	Cerro de Oro	6	Junio	2023-06-18T00:00:00	2024-11-08T15:00:00	3	Temperatura mínima	25.5
155588	7	Sololá	719	Santiago Atitlán	14	Cerro de Oro	6	Junio	2023-06-18T00:00:00	2024-11-08T15:00:00	5	Humedad	67
155589	7	Sololá	719	Santiago Atitlán	14	Cerro de Oro	6	Junio	2023-06-18T00:00:00	2024-11-08T15:00:00	6	Velocidad del viento	14.5
155590	7	Sololá	719	Santiago Atitlán	14	Cerro de Oro	6	Junio	2023-06-18T00:00:00	2024-11-08T15:00:00	7	Dirección del viento	14.48
155591	7	Sololá	719	Santiago Atitlán	14	Cerro de Oro	6	Junio	2023-06-18T00:00:00	2024-11-08T15:00:00	1	Precipitación	0
155592	7	Sololá	719	Santiago Atitlán	14	Cerro de Oro	6	Junio	2023-06-18T00:00:00	2024-11-08T15:00:00	8	Radiación solar	764
155593	7	Sololá	719	Santiago Atitlán	14	Cerro de Oro	6	Junio	2023-06-18T00:00:00	2024-11-08T16:00:00	2	Temperatura media	24.6
155594	7	Sololá	719	Santiago Atitlán	14	Cerro de Oro	6	Junio	2023-06-18T00:00:00	2024-11-08T16:00:00	4	Temperatura máxima	25.6
155595	7	Sololá	719	Santiago Atitlán	14	Cerro de Oro	6	Junio	2023-06-18T00:00:00	2024-11-08T16:00:00	3	Temperatura mínima	23.9
155596	7	Sololá	719	Santiago Atitlán	14	Cerro de Oro	6	Junio	2023-06-18T00:00:00	2024-11-08T16:00:00	5	Humedad	72
155597	7	Sololá	719	Santiago Atitlán	14	Cerro de Oro	6	Junio	2023-06-18T00:00:00	2024-11-08T16:00:00	6	Velocidad del viento	14.5
155598	7	Sololá	719	Santiago Atitlán	14	Cerro de Oro	6	Junio	2023-06-18T00:00:00	2024-11-08T16:00:00	7	Dirección del viento	14.48
155599	7	Sololá	719	Santiago Atitlán	14	Cerro de Oro	6	Junio	2023-06-18T00:00:00	2024-11-08T16:00:00	1	Precipitación	0
155600	7	Sololá	719	Santiago Atitlán	14	Cerro de Oro	6	Junio	2023-06-18T00:00:00	2024-11-08T16:00:00	8	Radiación solar	571
155601	7	Sololá	719	Santiago Atitlán	14	Cerro de Oro	6	Junio	2023-06-18T00:00:00	2024-11-08T17:00:00	2	Temperatura media	22.9
155602	7	Sololá	719	Santiago Atitlán	14	Cerro de Oro	6	Junio	2023-06-18T00:00:00	2024-11-08T17:00:00	4	Temperatura máxima	24.6
155603	7	Sololá	719	Santiago Atitlán	14	Cerro de Oro	6	Junio	2023-06-18T00:00:00	2024-11-08T17:00:00	3	Temperatura mínima	22.8
155604	7	Sololá	719	Santiago Atitlán	14	Cerro de Oro	6	Junio	2023-06-18T00:00:00	2024-11-08T17:00:00	5	Humedad	79
155605	7	Sololá	719	Santiago Atitlán	14	Cerro de Oro	6	Junio	2023-06-18T00:00:00	2024-11-08T17:00:00	6	Velocidad del viento	11.3
155606	7	Sololá	719	Santiago Atitlán	14	Cerro de Oro	6	Junio	2023-06-18T00:00:00	2024-11-08T17:00:00	7	Dirección del viento	11.27
155607	7	Sololá	719	Santiago Atitlán	14	Cerro de Oro	6	Junio	2023-06-18T00:00:00	2024-11-08T17:00:00	1	Precipitación	0
155608	7	Sololá	719	Santiago Atitlán	14	Cerro de Oro	6	Junio	2023-06-18T00:00:00	2024-11-08T17:00:00	8	Radiación solar	242
155609	7	Sololá	719	Santiago Atitlán	14	Cerro de Oro	6	Junio	2023-06-18T00:00:00	2024-11-08T18:00:00	2	Temperatura media	22.1
155610	7	Sololá	719	Santiago Atitlán	14	Cerro de Oro	6	Junio	2023-06-18T00:00:00	2024-11-08T18:00:00	4	Temperatura máxima	23.1
155611	7	Sololá	719	Santiago Atitlán	14	Cerro de Oro	6	Junio	2023-06-18T00:00:00	2024-11-08T18:00:00	3	Temperatura mínima	21.9
155612	7	Sololá	719	Santiago Atitlán	14	Cerro de Oro	6	Junio	2023-06-18T00:00:00	2024-11-08T18:00:00	5	Humedad	82
155613	7	Sololá	719	Santiago Atitlán	14	Cerro de Oro	6	Junio	2023-06-18T00:00:00	2024-11-08T18:00:00	6	Velocidad del viento	9.7
155614	7	Sololá	719	Santiago Atitlán	14	Cerro de Oro	6	Junio	2023-06-18T00:00:00	2024-11-08T18:00:00	7	Dirección del viento	9.66
155615	7	Sololá	719	Santiago Atitlán	14	Cerro de Oro	6	Junio	2023-06-18T00:00:00	2024-11-08T18:00:00	1	Precipitación	0
155616	7	Sololá	719	Santiago Atitlán	14	Cerro de Oro	6	Junio	2023-06-18T00:00:00	2024-11-08T18:00:00	8	Radiación solar	97
155617	7	Sololá	719	Santiago Atitlán	14	Cerro de Oro	6	Junio	2023-06-18T00:00:00	2024-11-08T19:00:00	2	Temperatura media	21.1
155618	7	Sololá	719	Santiago Atitlán	14	Cerro de Oro	6	Junio	2023-06-18T00:00:00	2024-11-08T19:00:00	4	Temperatura máxima	22.1
155619	7	Sololá	719	Santiago Atitlán	14	Cerro de Oro	6	Junio	2023-06-18T00:00:00	2024-11-08T19:00:00	3	Temperatura mínima	21
155620	7	Sololá	719	Santiago Atitlán	14	Cerro de Oro	6	Junio	2023-06-18T00:00:00	2024-11-08T19:00:00	5	Humedad	83
155621	7	Sololá	719	Santiago Atitlán	14	Cerro de Oro	6	Junio	2023-06-18T00:00:00	2024-11-08T19:00:00	6	Velocidad del viento	9.7
155622	7	Sololá	719	Santiago Atitlán	14	Cerro de Oro	6	Junio	2023-06-18T00:00:00	2024-11-08T19:00:00	7	Dirección del viento	9.66
155623	7	Sololá	719	Santiago Atitlán	14	Cerro de Oro	6	Junio	2023-06-18T00:00:00	2024-11-08T19:00:00	1	Precipitación	0
155624	7	Sololá	719	Santiago Atitlán	14	Cerro de Oro	6	Junio	2023-06-18T00:00:00	2024-11-08T19:00:00	8	Radiación solar	0
155625	7	Sololá	719	Santiago Atitlán	14	Cerro de Oro	6	Junio	2023-06-18T00:00:00	2024-11-08T20:00:00	2	Temperatura media	20.9
155626	7	Sololá	719	Santiago Atitlán	14	Cerro de Oro	6	Junio	2023-06-18T00:00:00	2024-11-08T20:00:00	4	Temperatura máxima	21.1
155627	7	Sololá	719	Santiago Atitlán	14	Cerro de Oro	6	Junio	2023-06-18T00:00:00	2024-11-08T20:00:00	3	Temperatura mínima	20.4
155628	7	Sololá	719	Santiago Atitlán	14	Cerro de Oro	6	Junio	2023-06-18T00:00:00	2024-11-08T20:00:00	5	Humedad	80
155629	7	Sololá	719	Santiago Atitlán	14	Cerro de Oro	6	Junio	2023-06-18T00:00:00	2024-11-08T20:00:00	6	Velocidad del viento	6.4
155630	7	Sololá	719	Santiago Atitlán	14	Cerro de Oro	6	Junio	2023-06-18T00:00:00	2024-11-08T20:00:00	7	Dirección del viento	6.44
155631	7	Sololá	719	Santiago Atitlán	14	Cerro de Oro	6	Junio	2023-06-18T00:00:00	2024-11-08T20:00:00	1	Precipitación	0
155632	7	Sololá	719	Santiago Atitlán	14	Cerro de Oro	6	Junio	2023-06-18T00:00:00	2024-11-08T20:00:00	8	Radiación solar	0
155633	7	Sololá	719	Santiago Atitlán	14	Cerro de Oro	6	Junio	2023-06-18T00:00:00	2024-11-08T21:00:00	2	Temperatura media	21.6
155634	7	Sololá	719	Santiago Atitlán	14	Cerro de Oro	6	Junio	2023-06-18T00:00:00	2024-11-08T21:00:00	4	Temperatura máxima	21.6
155635	7	Sololá	719	Santiago Atitlán	14	Cerro de Oro	6	Junio	2023-06-18T00:00:00	2024-11-08T21:00:00	3	Temperatura mínima	20.8
155636	7	Sololá	719	Santiago Atitlán	14	Cerro de Oro	6	Junio	2023-06-18T00:00:00	2024-11-08T21:00:00	5	Humedad	72
155637	7	Sololá	719	Santiago Atitlán	14	Cerro de Oro	6	Junio	2023-06-18T00:00:00	2024-11-08T21:00:00	6	Velocidad del viento	3.2
155638	7	Sololá	719	Santiago Atitlán	14	Cerro de Oro	6	Junio	2023-06-18T00:00:00	2024-11-08T21:00:00	7	Dirección del viento	3.22
155639	7	Sololá	719	Santiago Atitlán	14	Cerro de Oro	6	Junio	2023-06-18T00:00:00	2024-11-08T21:00:00	1	Precipitación	0
155640	7	Sololá	719	Santiago Atitlán	14	Cerro de Oro	6	Junio	2023-06-18T00:00:00	2024-11-08T21:00:00	8	Radiación solar	0
155641	7	Sololá	719	Santiago Atitlán	14	Cerro de Oro	6	Junio	2023-06-18T00:00:00	2024-11-08T22:00:00	2	Temperatura media	21.9
155642	7	Sololá	719	Santiago Atitlán	14	Cerro de Oro	6	Junio	2023-06-18T00:00:00	2024-11-08T22:00:00	4	Temperatura máxima	22.7
155643	7	Sololá	719	Santiago Atitlán	14	Cerro de Oro	6	Junio	2023-06-18T00:00:00	2024-11-08T22:00:00	3	Temperatura mínima	21.6
155644	7	Sololá	719	Santiago Atitlán	14	Cerro de Oro	6	Junio	2023-06-18T00:00:00	2024-11-08T22:00:00	5	Humedad	68
155645	7	Sololá	719	Santiago Atitlán	14	Cerro de Oro	6	Junio	2023-06-18T00:00:00	2024-11-08T22:00:00	6	Velocidad del viento	9.7
155646	7	Sololá	719	Santiago Atitlán	14	Cerro de Oro	6	Junio	2023-06-18T00:00:00	2024-11-08T22:00:00	7	Dirección del viento	9.66
155647	7	Sololá	719	Santiago Atitlán	14	Cerro de Oro	6	Junio	2023-06-18T00:00:00	2024-11-08T22:00:00	1	Precipitación	0
155648	7	Sololá	719	Santiago Atitlán	14	Cerro de Oro	6	Junio	2023-06-18T00:00:00	2024-11-08T22:00:00	8	Radiación solar	0
155649	7	Sololá	719	Santiago Atitlán	14	Cerro de Oro	6	Junio	2023-06-18T00:00:00	2024-11-08T23:00:00	2	Temperatura media	21.2
155650	7	Sololá	719	Santiago Atitlán	14	Cerro de Oro	6	Junio	2023-06-18T00:00:00	2024-11-08T23:00:00	4	Temperatura máxima	21.9
155651	7	Sololá	719	Santiago Atitlán	14	Cerro de Oro	6	Junio	2023-06-18T00:00:00	2024-11-08T23:00:00	3	Temperatura mínima	21.2
155652	7	Sololá	719	Santiago Atitlán	14	Cerro de Oro	6	Junio	2023-06-18T00:00:00	2024-11-08T23:00:00	5	Humedad	69
155653	7	Sololá	719	Santiago Atitlán	14	Cerro de Oro	6	Junio	2023-06-18T00:00:00	2024-11-08T23:00:00	6	Velocidad del viento	4.8
155654	7	Sololá	719	Santiago Atitlán	14	Cerro de Oro	6	Junio	2023-06-18T00:00:00	2024-11-08T23:00:00	7	Dirección del viento	4.83
155655	7	Sololá	719	Santiago Atitlán	14	Cerro de Oro	6	Junio	2023-06-18T00:00:00	2024-11-08T23:00:00	1	Precipitación	0
155656	7	Sololá	719	Santiago Atitlán	14	Cerro de Oro	6	Junio	2023-06-18T00:00:00	2024-11-08T23:00:00	8	Radiación solar	0
155657	7	Sololá	719	Santiago Atitlán	14	Cerro de Oro	6	Junio	2023-06-19T00:00:00	2024-11-08T00:00:00	2	Temperatura media	20.7
155658	7	Sololá	719	Santiago Atitlán	14	Cerro de Oro	6	Junio	2023-06-19T00:00:00	2024-11-08T00:00:00	4	Temperatura máxima	21.2
155659	7	Sololá	719	Santiago Atitlán	14	Cerro de Oro	6	Junio	2023-06-19T00:00:00	2024-11-08T00:00:00	3	Temperatura mínima	20.5
155660	7	Sololá	719	Santiago Atitlán	14	Cerro de Oro	6	Junio	2023-06-19T00:00:00	2024-11-08T00:00:00	5	Humedad	71
155661	7	Sololá	719	Santiago Atitlán	14	Cerro de Oro	6	Junio	2023-06-19T00:00:00	2024-11-08T00:00:00	6	Velocidad del viento	3.2
155662	7	Sololá	719	Santiago Atitlán	14	Cerro de Oro	6	Junio	2023-06-19T00:00:00	2024-11-08T00:00:00	7	Dirección del viento	3.22
155663	7	Sololá	719	Santiago Atitlán	14	Cerro de Oro	6	Junio	2023-06-19T00:00:00	2024-11-08T00:00:00	1	Precipitación	0
155664	7	Sololá	719	Santiago Atitlán	14	Cerro de Oro	6	Junio	2023-06-19T00:00:00	2024-11-08T00:00:00	8	Radiación solar	0
155665	7	Sololá	719	Santiago Atitlán	14	Cerro de Oro	6	Junio	2023-06-19T00:00:00	2024-11-08T01:00:00	2	Temperatura media	21.5
155666	7	Sololá	719	Santiago Atitlán	14	Cerro de Oro	6	Junio	2023-06-19T00:00:00	2024-11-08T01:00:00	4	Temperatura máxima	21.7
155667	7	Sololá	719	Santiago Atitlán	14	Cerro de Oro	6	Junio	2023-06-19T00:00:00	2024-11-08T01:00:00	3	Temperatura mínima	20.7
155668	7	Sololá	719	Santiago Atitlán	14	Cerro de Oro	6	Junio	2023-06-19T00:00:00	2024-11-08T01:00:00	5	Humedad	70
155669	7	Sololá	719	Santiago Atitlán	14	Cerro de Oro	6	Junio	2023-06-19T00:00:00	2024-11-08T01:00:00	6	Velocidad del viento	4.8
155670	7	Sololá	719	Santiago Atitlán	14	Cerro de Oro	6	Junio	2023-06-19T00:00:00	2024-11-08T01:00:00	7	Dirección del viento	4.83
155671	7	Sololá	719	Santiago Atitlán	14	Cerro de Oro	6	Junio	2023-06-19T00:00:00	2024-11-08T01:00:00	1	Precipitación	0
155672	7	Sololá	719	Santiago Atitlán	14	Cerro de Oro	6	Junio	2023-06-19T00:00:00	2024-11-08T01:00:00	8	Radiación solar	0
155673	7	Sololá	719	Santiago Atitlán	14	Cerro de Oro	6	Junio	2023-06-19T00:00:00	2024-11-08T02:00:00	2	Temperatura media	20.6
155674	7	Sololá	719	Santiago Atitlán	14	Cerro de Oro	6	Junio	2023-06-19T00:00:00	2024-11-08T02:00:00	4	Temperatura máxima	21.5
155675	7	Sololá	719	Santiago Atitlán	14	Cerro de Oro	6	Junio	2023-06-19T00:00:00	2024-11-08T02:00:00	3	Temperatura mínima	20.4
155676	7	Sololá	719	Santiago Atitlán	14	Cerro de Oro	6	Junio	2023-06-19T00:00:00	2024-11-08T02:00:00	5	Humedad	72
155677	7	Sololá	719	Santiago Atitlán	14	Cerro de Oro	6	Junio	2023-06-19T00:00:00	2024-11-08T02:00:00	6	Velocidad del viento	4.8
155678	7	Sololá	719	Santiago Atitlán	14	Cerro de Oro	6	Junio	2023-06-19T00:00:00	2024-11-08T02:00:00	7	Dirección del viento	4.83
155679	7	Sololá	719	Santiago Atitlán	14	Cerro de Oro	6	Junio	2023-06-19T00:00:00	2024-11-08T02:00:00	1	Precipitación	0
155680	7	Sololá	719	Santiago Atitlán	14	Cerro de Oro	6	Junio	2023-06-19T00:00:00	2024-11-08T02:00:00	8	Radiación solar	0
155681	7	Sololá	719	Santiago Atitlán	14	Cerro de Oro	6	Junio	2023-06-19T00:00:00	2024-11-08T03:00:00	2	Temperatura media	20.3
155682	7	Sololá	719	Santiago Atitlán	14	Cerro de Oro	6	Junio	2023-06-19T00:00:00	2024-11-08T03:00:00	4	Temperatura máxima	20.6
155683	7	Sololá	719	Santiago Atitlán	14	Cerro de Oro	6	Junio	2023-06-19T00:00:00	2024-11-08T03:00:00	3	Temperatura mínima	20.1
155684	7	Sololá	719	Santiago Atitlán	14	Cerro de Oro	6	Junio	2023-06-19T00:00:00	2024-11-08T03:00:00	5	Humedad	71
155685	7	Sololá	719	Santiago Atitlán	14	Cerro de Oro	6	Junio	2023-06-19T00:00:00	2024-11-08T03:00:00	6	Velocidad del viento	4.8
155686	7	Sololá	719	Santiago Atitlán	14	Cerro de Oro	6	Junio	2023-06-19T00:00:00	2024-11-08T03:00:00	7	Dirección del viento	4.83
155687	7	Sololá	719	Santiago Atitlán	14	Cerro de Oro	6	Junio	2023-06-19T00:00:00	2024-11-08T03:00:00	1	Precipitación	0
155688	7	Sololá	719	Santiago Atitlán	14	Cerro de Oro	6	Junio	2023-06-19T00:00:00	2024-11-08T03:00:00	8	Radiación solar	0
155689	7	Sololá	719	Santiago Atitlán	14	Cerro de Oro	6	Junio	2023-06-19T00:00:00	2024-11-08T04:00:00	2	Temperatura media	19.9
155690	7	Sololá	719	Santiago Atitlán	14	Cerro de Oro	6	Junio	2023-06-19T00:00:00	2024-11-08T04:00:00	4	Temperatura máxima	20.3
155691	7	Sololá	719	Santiago Atitlán	14	Cerro de Oro	6	Junio	2023-06-19T00:00:00	2024-11-08T04:00:00	3	Temperatura mínima	19.5
155692	7	Sololá	719	Santiago Atitlán	14	Cerro de Oro	6	Junio	2023-06-19T00:00:00	2024-11-08T04:00:00	5	Humedad	73
155693	7	Sololá	719	Santiago Atitlán	14	Cerro de Oro	6	Junio	2023-06-19T00:00:00	2024-11-08T04:00:00	6	Velocidad del viento	4.8
155694	7	Sololá	719	Santiago Atitlán	14	Cerro de Oro	6	Junio	2023-06-19T00:00:00	2024-11-08T04:00:00	7	Dirección del viento	4.83
155695	7	Sololá	719	Santiago Atitlán	14	Cerro de Oro	6	Junio	2023-06-19T00:00:00	2024-11-08T04:00:00	1	Precipitación	0
155696	7	Sololá	719	Santiago Atitlán	14	Cerro de Oro	6	Junio	2023-06-19T00:00:00	2024-11-08T04:00:00	8	Radiación solar	0
155697	7	Sololá	719	Santiago Atitlán	14	Cerro de Oro	6	Junio	2023-06-19T00:00:00	2024-11-08T05:00:00	2	Temperatura media	20.1
155698	7	Sololá	719	Santiago Atitlán	14	Cerro de Oro	6	Junio	2023-06-19T00:00:00	2024-11-08T05:00:00	4	Temperatura máxima	20.5
155699	7	Sololá	719	Santiago Atitlán	14	Cerro de Oro	6	Junio	2023-06-19T00:00:00	2024-11-08T05:00:00	3	Temperatura mínima	19.9
155700	7	Sololá	719	Santiago Atitlán	14	Cerro de Oro	6	Junio	2023-06-19T00:00:00	2024-11-08T05:00:00	5	Humedad	72
155701	7	Sololá	719	Santiago Atitlán	14	Cerro de Oro	6	Junio	2023-06-19T00:00:00	2024-11-08T05:00:00	6	Velocidad del viento	3.2
155702	7	Sololá	719	Santiago Atitlán	14	Cerro de Oro	6	Junio	2023-06-19T00:00:00	2024-11-08T05:00:00	7	Dirección del viento	3.22
155703	7	Sololá	719	Santiago Atitlán	14	Cerro de Oro	6	Junio	2023-06-19T00:00:00	2024-11-08T05:00:00	1	Precipitación	0
155704	7	Sololá	719	Santiago Atitlán	14	Cerro de Oro	6	Junio	2023-06-19T00:00:00	2024-11-08T05:00:00	8	Radiación solar	0
155705	7	Sololá	719	Santiago Atitlán	14	Cerro de Oro	6	Junio	2023-06-19T00:00:00	2024-11-08T06:00:00	2	Temperatura media	20.1
155706	7	Sololá	719	Santiago Atitlán	14	Cerro de Oro	6	Junio	2023-06-19T00:00:00	2024-11-08T06:00:00	4	Temperatura máxima	20.2
155707	7	Sololá	719	Santiago Atitlán	14	Cerro de Oro	6	Junio	2023-06-19T00:00:00	2024-11-08T06:00:00	3	Temperatura mínima	19.3
155708	7	Sololá	719	Santiago Atitlán	14	Cerro de Oro	6	Junio	2023-06-19T00:00:00	2024-11-08T06:00:00	5	Humedad	73
155709	7	Sololá	719	Santiago Atitlán	14	Cerro de Oro	6	Junio	2023-06-19T00:00:00	2024-11-08T06:00:00	6	Velocidad del viento	4.8
155710	7	Sololá	719	Santiago Atitlán	14	Cerro de Oro	6	Junio	2023-06-19T00:00:00	2024-11-08T06:00:00	7	Dirección del viento	4.83
155711	7	Sololá	719	Santiago Atitlán	14	Cerro de Oro	6	Junio	2023-06-19T00:00:00	2024-11-08T06:00:00	1	Precipitación	0
155712	7	Sololá	719	Santiago Atitlán	14	Cerro de Oro	6	Junio	2023-06-19T00:00:00	2024-11-08T06:00:00	8	Radiación solar	9
155713	7	Sololá	719	Santiago Atitlán	14	Cerro de Oro	6	Junio	2023-06-19T00:00:00	2024-11-08T07:00:00	2	Temperatura media	22.3
155714	7	Sololá	719	Santiago Atitlán	14	Cerro de Oro	6	Junio	2023-06-19T00:00:00	2024-11-08T07:00:00	4	Temperatura máxima	22.3
155715	7	Sololá	719	Santiago Atitlán	14	Cerro de Oro	6	Junio	2023-06-19T00:00:00	2024-11-08T07:00:00	3	Temperatura mínima	20.1
155716	7	Sololá	719	Santiago Atitlán	14	Cerro de Oro	6	Junio	2023-06-19T00:00:00	2024-11-08T07:00:00	5	Humedad	67
155717	7	Sololá	719	Santiago Atitlán	14	Cerro de Oro	6	Junio	2023-06-19T00:00:00	2024-11-08T07:00:00	6	Velocidad del viento	6.4
155718	7	Sololá	719	Santiago Atitlán	14	Cerro de Oro	6	Junio	2023-06-19T00:00:00	2024-11-08T07:00:00	7	Dirección del viento	6.44
155719	7	Sololá	719	Santiago Atitlán	14	Cerro de Oro	6	Junio	2023-06-19T00:00:00	2024-11-08T07:00:00	1	Precipitación	0
155720	7	Sololá	719	Santiago Atitlán	14	Cerro de Oro	6	Junio	2023-06-19T00:00:00	2024-11-08T07:00:00	8	Radiación solar	140
155721	7	Sololá	719	Santiago Atitlán	14	Cerro de Oro	6	Junio	2023-06-19T00:00:00	2024-11-08T08:00:00	2	Temperatura media	23.1
155722	7	Sololá	719	Santiago Atitlán	14	Cerro de Oro	6	Junio	2023-06-19T00:00:00	2024-11-08T08:00:00	4	Temperatura máxima	23.2
155723	7	Sololá	719	Santiago Atitlán	14	Cerro de Oro	6	Junio	2023-06-19T00:00:00	2024-11-08T08:00:00	3	Temperatura mínima	21.8
155724	7	Sololá	719	Santiago Atitlán	14	Cerro de Oro	6	Junio	2023-06-19T00:00:00	2024-11-08T08:00:00	5	Humedad	64
155725	7	Sololá	719	Santiago Atitlán	14	Cerro de Oro	6	Junio	2023-06-19T00:00:00	2024-11-08T08:00:00	6	Velocidad del viento	4.8
155726	7	Sololá	719	Santiago Atitlán	14	Cerro de Oro	6	Junio	2023-06-19T00:00:00	2024-11-08T08:00:00	7	Dirección del viento	4.83
155727	7	Sololá	719	Santiago Atitlán	14	Cerro de Oro	6	Junio	2023-06-19T00:00:00	2024-11-08T08:00:00	1	Precipitación	0
155728	7	Sololá	719	Santiago Atitlán	14	Cerro de Oro	6	Junio	2023-06-19T00:00:00	2024-11-08T08:00:00	8	Radiación solar	289
155729	7	Sololá	719	Santiago Atitlán	14	Cerro de Oro	6	Junio	2023-06-19T00:00:00	2024-11-08T09:00:00	2	Temperatura media	24.2
155730	7	Sololá	719	Santiago Atitlán	14	Cerro de Oro	6	Junio	2023-06-19T00:00:00	2024-11-08T09:00:00	4	Temperatura máxima	24.2
155731	7	Sololá	719	Santiago Atitlán	14	Cerro de Oro	6	Junio	2023-06-19T00:00:00	2024-11-08T09:00:00	3	Temperatura mínima	23.1
155732	7	Sololá	719	Santiago Atitlán	14	Cerro de Oro	6	Junio	2023-06-19T00:00:00	2024-11-08T09:00:00	5	Humedad	60
155733	7	Sololá	719	Santiago Atitlán	14	Cerro de Oro	6	Junio	2023-06-19T00:00:00	2024-11-08T09:00:00	6	Velocidad del viento	4.8
155734	7	Sololá	719	Santiago Atitlán	14	Cerro de Oro	6	Junio	2023-06-19T00:00:00	2024-11-08T09:00:00	7	Dirección del viento	4.83
155735	7	Sololá	719	Santiago Atitlán	14	Cerro de Oro	6	Junio	2023-06-19T00:00:00	2024-11-08T09:00:00	1	Precipitación	0
155736	7	Sololá	719	Santiago Atitlán	14	Cerro de Oro	6	Junio	2023-06-19T00:00:00	2024-11-08T09:00:00	8	Radiación solar	550
155737	7	Sololá	719	Santiago Atitlán	14	Cerro de Oro	6	Junio	2023-06-19T00:00:00	2024-11-08T10:00:00	2	Temperatura media	25.3
155738	7	Sololá	719	Santiago Atitlán	14	Cerro de Oro	6	Junio	2023-06-19T00:00:00	2024-11-08T10:00:00	4	Temperatura máxima	25.5
155739	7	Sololá	719	Santiago Atitlán	14	Cerro de Oro	6	Junio	2023-06-19T00:00:00	2024-11-08T10:00:00	3	Temperatura mínima	24.1
155740	7	Sololá	719	Santiago Atitlán	14	Cerro de Oro	6	Junio	2023-06-19T00:00:00	2024-11-08T10:00:00	5	Humedad	66
155741	7	Sololá	719	Santiago Atitlán	14	Cerro de Oro	6	Junio	2023-06-19T00:00:00	2024-11-08T10:00:00	6	Velocidad del viento	6.4
155742	7	Sololá	719	Santiago Atitlán	14	Cerro de Oro	6	Junio	2023-06-19T00:00:00	2024-11-08T10:00:00	7	Dirección del viento	6.44
155743	7	Sololá	719	Santiago Atitlán	14	Cerro de Oro	6	Junio	2023-06-19T00:00:00	2024-11-08T10:00:00	1	Precipitación	0
155744	7	Sololá	719	Santiago Atitlán	14	Cerro de Oro	6	Junio	2023-06-19T00:00:00	2024-11-08T10:00:00	8	Radiación solar	780
155745	7	Sololá	719	Santiago Atitlán	14	Cerro de Oro	6	Junio	2023-06-19T00:00:00	2024-11-08T11:00:00	2	Temperatura media	24.9
155746	7	Sololá	719	Santiago Atitlán	14	Cerro de Oro	6	Junio	2023-06-19T00:00:00	2024-11-08T11:00:00	4	Temperatura máxima	25.4
155747	7	Sololá	719	Santiago Atitlán	14	Cerro de Oro	6	Junio	2023-06-19T00:00:00	2024-11-08T11:00:00	3	Temperatura mínima	24.2
155748	7	Sololá	719	Santiago Atitlán	14	Cerro de Oro	6	Junio	2023-06-19T00:00:00	2024-11-08T11:00:00	5	Humedad	68
155749	7	Sololá	719	Santiago Atitlán	14	Cerro de Oro	6	Junio	2023-06-19T00:00:00	2024-11-08T11:00:00	6	Velocidad del viento	11.3
155750	7	Sololá	719	Santiago Atitlán	14	Cerro de Oro	6	Junio	2023-06-19T00:00:00	2024-11-08T11:00:00	7	Dirección del viento	11.27
155751	7	Sololá	719	Santiago Atitlán	14	Cerro de Oro	6	Junio	2023-06-19T00:00:00	2024-11-08T11:00:00	1	Precipitación	0
155752	7	Sololá	719	Santiago Atitlán	14	Cerro de Oro	6	Junio	2023-06-19T00:00:00	2024-11-08T11:00:00	8	Radiación solar	886
155753	7	Sololá	719	Santiago Atitlán	14	Cerro de Oro	6	Junio	2023-06-19T00:00:00	2024-11-08T12:00:00	2	Temperatura media	22.4
155754	7	Sololá	719	Santiago Atitlán	14	Cerro de Oro	6	Junio	2023-06-19T00:00:00	2024-11-08T12:00:00	4	Temperatura máxima	25.1
155755	7	Sololá	719	Santiago Atitlán	14	Cerro de Oro	6	Junio	2023-06-19T00:00:00	2024-11-08T12:00:00	3	Temperatura mínima	22.4
155756	7	Sololá	719	Santiago Atitlán	14	Cerro de Oro	6	Junio	2023-06-19T00:00:00	2024-11-08T12:00:00	5	Humedad	79
155757	7	Sololá	719	Santiago Atitlán	14	Cerro de Oro	6	Junio	2023-06-19T00:00:00	2024-11-08T12:00:00	6	Velocidad del viento	11.3
155758	7	Sololá	719	Santiago Atitlán	14	Cerro de Oro	6	Junio	2023-06-19T00:00:00	2024-11-08T12:00:00	7	Dirección del viento	11.27
155759	7	Sololá	719	Santiago Atitlán	14	Cerro de Oro	6	Junio	2023-06-19T00:00:00	2024-11-08T12:00:00	1	Precipitación	0
155760	7	Sololá	719	Santiago Atitlán	14	Cerro de Oro	6	Junio	2023-06-19T00:00:00	2024-11-08T12:00:00	8	Radiación solar	241
155761	7	Sololá	719	Santiago Atitlán	14	Cerro de Oro	6	Junio	2023-06-19T00:00:00	2024-11-08T13:00:00	2	Temperatura media	22.5
155762	7	Sololá	719	Santiago Atitlán	14	Cerro de Oro	6	Junio	2023-06-19T00:00:00	2024-11-08T13:00:00	4	Temperatura máxima	23.2
155763	7	Sololá	719	Santiago Atitlán	14	Cerro de Oro	6	Junio	2023-06-19T00:00:00	2024-11-08T13:00:00	3	Temperatura mínima	22.2
155764	7	Sololá	719	Santiago Atitlán	14	Cerro de Oro	6	Junio	2023-06-19T00:00:00	2024-11-08T13:00:00	5	Humedad	79
155765	7	Sololá	719	Santiago Atitlán	14	Cerro de Oro	6	Junio	2023-06-19T00:00:00	2024-11-08T13:00:00	6	Velocidad del viento	9.7
155766	7	Sololá	719	Santiago Atitlán	14	Cerro de Oro	6	Junio	2023-06-19T00:00:00	2024-11-08T13:00:00	7	Dirección del viento	9.66
155767	7	Sololá	719	Santiago Atitlán	14	Cerro de Oro	6	Junio	2023-06-19T00:00:00	2024-11-08T13:00:00	1	Precipitación	0
155768	7	Sololá	719	Santiago Atitlán	14	Cerro de Oro	6	Junio	2023-06-19T00:00:00	2024-11-08T13:00:00	8	Radiación solar	286
155769	7	Sololá	719	Santiago Atitlán	14	Cerro de Oro	6	Junio	2023-06-19T00:00:00	2024-11-08T14:00:00	2	Temperatura media	23.4
155770	7	Sololá	719	Santiago Atitlán	14	Cerro de Oro	6	Junio	2023-06-19T00:00:00	2024-11-08T14:00:00	4	Temperatura máxima	23.4
155771	7	Sololá	719	Santiago Atitlán	14	Cerro de Oro	6	Junio	2023-06-19T00:00:00	2024-11-08T14:00:00	3	Temperatura mínima	21.8
155772	7	Sololá	719	Santiago Atitlán	14	Cerro de Oro	6	Junio	2023-06-19T00:00:00	2024-11-08T14:00:00	5	Humedad	76
155773	7	Sololá	719	Santiago Atitlán	14	Cerro de Oro	6	Junio	2023-06-19T00:00:00	2024-11-08T14:00:00	6	Velocidad del viento	8
155774	7	Sololá	719	Santiago Atitlán	14	Cerro de Oro	6	Junio	2023-06-19T00:00:00	2024-11-08T14:00:00	7	Dirección del viento	8.05
155775	7	Sololá	719	Santiago Atitlán	14	Cerro de Oro	6	Junio	2023-06-19T00:00:00	2024-11-08T14:00:00	1	Precipitación	0
155776	7	Sololá	719	Santiago Atitlán	14	Cerro de Oro	6	Junio	2023-06-19T00:00:00	2024-11-08T14:00:00	8	Radiación solar	283
155777	7	Sololá	719	Santiago Atitlán	14	Cerro de Oro	6	Junio	2023-06-19T00:00:00	2024-11-08T15:00:00	2	Temperatura media	24.2
155778	7	Sololá	719	Santiago Atitlán	14	Cerro de Oro	6	Junio	2023-06-19T00:00:00	2024-11-08T15:00:00	4	Temperatura máxima	24.7
155779	7	Sololá	719	Santiago Atitlán	14	Cerro de Oro	6	Junio	2023-06-19T00:00:00	2024-11-08T15:00:00	3	Temperatura mínima	23.4
155780	7	Sololá	719	Santiago Atitlán	14	Cerro de Oro	6	Junio	2023-06-19T00:00:00	2024-11-08T15:00:00	5	Humedad	76
155781	7	Sololá	719	Santiago Atitlán	14	Cerro de Oro	6	Junio	2023-06-19T00:00:00	2024-11-08T15:00:00	6	Velocidad del viento	9.7
155782	7	Sololá	719	Santiago Atitlán	14	Cerro de Oro	6	Junio	2023-06-19T00:00:00	2024-11-08T15:00:00	7	Dirección del viento	9.66
155783	7	Sololá	719	Santiago Atitlán	14	Cerro de Oro	6	Junio	2023-06-19T00:00:00	2024-11-08T15:00:00	1	Precipitación	0
155784	7	Sololá	719	Santiago Atitlán	14	Cerro de Oro	6	Junio	2023-06-19T00:00:00	2024-11-08T15:00:00	8	Radiación solar	714
155785	7	Sololá	719	Santiago Atitlán	14	Cerro de Oro	6	Junio	2023-06-19T00:00:00	2024-11-08T16:00:00	2	Temperatura media	22
155786	7	Sololá	719	Santiago Atitlán	14	Cerro de Oro	6	Junio	2023-06-19T00:00:00	2024-11-08T16:00:00	4	Temperatura máxima	24.2
155787	7	Sololá	719	Santiago Atitlán	14	Cerro de Oro	6	Junio	2023-06-19T00:00:00	2024-11-08T16:00:00	3	Temperatura mínima	22
155788	7	Sololá	719	Santiago Atitlán	14	Cerro de Oro	6	Junio	2023-06-19T00:00:00	2024-11-08T16:00:00	5	Humedad	83
155789	7	Sololá	719	Santiago Atitlán	14	Cerro de Oro	6	Junio	2023-06-19T00:00:00	2024-11-08T16:00:00	6	Velocidad del viento	11.3
155790	7	Sololá	719	Santiago Atitlán	14	Cerro de Oro	6	Junio	2023-06-19T00:00:00	2024-11-08T16:00:00	7	Dirección del viento	11.27
155791	7	Sololá	719	Santiago Atitlán	14	Cerro de Oro	6	Junio	2023-06-19T00:00:00	2024-11-08T16:00:00	1	Precipitación	0
155792	7	Sololá	719	Santiago Atitlán	14	Cerro de Oro	6	Junio	2023-06-19T00:00:00	2024-11-08T16:00:00	8	Radiación solar	330
155793	7	Sololá	719	Santiago Atitlán	14	Cerro de Oro	6	Junio	2023-06-19T00:00:00	2024-11-08T17:00:00	2	Temperatura media	20.7
155794	7	Sololá	719	Santiago Atitlán	14	Cerro de Oro	6	Junio	2023-06-19T00:00:00	2024-11-08T17:00:00	4	Temperatura máxima	22
155795	7	Sololá	719	Santiago Atitlán	14	Cerro de Oro	6	Junio	2023-06-19T00:00:00	2024-11-08T17:00:00	3	Temperatura mínima	20.6
155796	7	Sololá	719	Santiago Atitlán	14	Cerro de Oro	6	Junio	2023-06-19T00:00:00	2024-11-08T17:00:00	5	Humedad	87
155797	7	Sololá	719	Santiago Atitlán	14	Cerro de Oro	6	Junio	2023-06-19T00:00:00	2024-11-08T17:00:00	6	Velocidad del viento	11.3
155798	7	Sololá	719	Santiago Atitlán	14	Cerro de Oro	6	Junio	2023-06-19T00:00:00	2024-11-08T17:00:00	7	Dirección del viento	11.27
155799	7	Sololá	719	Santiago Atitlán	14	Cerro de Oro	6	Junio	2023-06-19T00:00:00	2024-11-08T17:00:00	1	Precipitación	0
155800	7	Sololá	719	Santiago Atitlán	14	Cerro de Oro	6	Junio	2023-06-19T00:00:00	2024-11-08T17:00:00	8	Radiación solar	111
155801	7	Sololá	719	Santiago Atitlán	14	Cerro de Oro	6	Junio	2023-06-19T00:00:00	2024-11-08T18:00:00	2	Temperatura media	20.2
155802	7	Sololá	719	Santiago Atitlán	14	Cerro de Oro	6	Junio	2023-06-19T00:00:00	2024-11-08T18:00:00	4	Temperatura máxima	20.8
155803	7	Sololá	719	Santiago Atitlán	14	Cerro de Oro	6	Junio	2023-06-19T00:00:00	2024-11-08T18:00:00	3	Temperatura mínima	19.8
155804	7	Sololá	719	Santiago Atitlán	14	Cerro de Oro	6	Junio	2023-06-19T00:00:00	2024-11-08T18:00:00	5	Humedad	87
155805	7	Sololá	719	Santiago Atitlán	14	Cerro de Oro	6	Junio	2023-06-19T00:00:00	2024-11-08T18:00:00	6	Velocidad del viento	6.4
155806	7	Sololá	719	Santiago Atitlán	14	Cerro de Oro	6	Junio	2023-06-19T00:00:00	2024-11-08T18:00:00	7	Dirección del viento	6.44
155807	7	Sololá	719	Santiago Atitlán	14	Cerro de Oro	6	Junio	2023-06-19T00:00:00	2024-11-08T18:00:00	1	Precipitación	0
155808	7	Sololá	719	Santiago Atitlán	14	Cerro de Oro	6	Junio	2023-06-19T00:00:00	2024-11-08T18:00:00	8	Radiación solar	43
155809	7	Sololá	719	Santiago Atitlán	14	Cerro de Oro	6	Junio	2023-06-19T00:00:00	2024-11-08T19:00:00	2	Temperatura media	20.1
155810	7	Sololá	719	Santiago Atitlán	14	Cerro de Oro	6	Junio	2023-06-19T00:00:00	2024-11-08T19:00:00	4	Temperatura máxima	20.2
155811	7	Sololá	719	Santiago Atitlán	14	Cerro de Oro	6	Junio	2023-06-19T00:00:00	2024-11-08T19:00:00	3	Temperatura mínima	19.8
155812	7	Sololá	719	Santiago Atitlán	14	Cerro de Oro	6	Junio	2023-06-19T00:00:00	2024-11-08T19:00:00	5	Humedad	89
155813	7	Sololá	719	Santiago Atitlán	14	Cerro de Oro	6	Junio	2023-06-19T00:00:00	2024-11-08T19:00:00	6	Velocidad del viento	3.2
155814	7	Sololá	719	Santiago Atitlán	14	Cerro de Oro	6	Junio	2023-06-19T00:00:00	2024-11-08T19:00:00	7	Dirección del viento	3.22
155815	7	Sololá	719	Santiago Atitlán	14	Cerro de Oro	6	Junio	2023-06-19T00:00:00	2024-11-08T19:00:00	1	Precipitación	0
155816	7	Sololá	719	Santiago Atitlán	14	Cerro de Oro	6	Junio	2023-06-19T00:00:00	2024-11-08T19:00:00	8	Radiación solar	0
155817	7	Sololá	719	Santiago Atitlán	14	Cerro de Oro	6	Junio	2023-06-19T00:00:00	2024-11-08T20:00:00	2	Temperatura media	20.3
155818	7	Sololá	719	Santiago Atitlán	14	Cerro de Oro	6	Junio	2023-06-19T00:00:00	2024-11-08T20:00:00	4	Temperatura máxima	20.3
155819	7	Sololá	719	Santiago Atitlán	14	Cerro de Oro	6	Junio	2023-06-19T00:00:00	2024-11-08T20:00:00	3	Temperatura mínima	20.1
155820	7	Sololá	719	Santiago Atitlán	14	Cerro de Oro	6	Junio	2023-06-19T00:00:00	2024-11-08T20:00:00	5	Humedad	85
155821	7	Sololá	719	Santiago Atitlán	14	Cerro de Oro	6	Junio	2023-06-19T00:00:00	2024-11-08T20:00:00	6	Velocidad del viento	4.8
155822	7	Sololá	719	Santiago Atitlán	14	Cerro de Oro	6	Junio	2023-06-19T00:00:00	2024-11-08T20:00:00	7	Dirección del viento	4.83
155823	7	Sololá	719	Santiago Atitlán	14	Cerro de Oro	6	Junio	2023-06-19T00:00:00	2024-11-08T20:00:00	1	Precipitación	0
155824	7	Sololá	719	Santiago Atitlán	14	Cerro de Oro	6	Junio	2023-06-19T00:00:00	2024-11-08T20:00:00	8	Radiación solar	0
155825	7	Sololá	719	Santiago Atitlán	14	Cerro de Oro	6	Junio	2023-06-19T00:00:00	2024-11-08T21:00:00	2	Temperatura media	20
155826	7	Sololá	719	Santiago Atitlán	14	Cerro de Oro	6	Junio	2023-06-19T00:00:00	2024-11-08T21:00:00	4	Temperatura máxima	20.3
155827	7	Sololá	719	Santiago Atitlán	14	Cerro de Oro	6	Junio	2023-06-19T00:00:00	2024-11-08T21:00:00	3	Temperatura mínima	20
155828	7	Sololá	719	Santiago Atitlán	14	Cerro de Oro	6	Junio	2023-06-19T00:00:00	2024-11-08T21:00:00	5	Humedad	87
155829	7	Sololá	719	Santiago Atitlán	14	Cerro de Oro	6	Junio	2023-06-19T00:00:00	2024-11-08T21:00:00	6	Velocidad del viento	0
155830	7	Sololá	719	Santiago Atitlán	14	Cerro de Oro	6	Junio	2023-06-19T00:00:00	2024-11-08T21:00:00	7	Dirección del viento	0
155831	7	Sololá	719	Santiago Atitlán	14	Cerro de Oro	6	Junio	2023-06-19T00:00:00	2024-11-08T21:00:00	1	Precipitación	0
155832	7	Sololá	719	Santiago Atitlán	14	Cerro de Oro	6	Junio	2023-06-19T00:00:00	2024-11-08T21:00:00	8	Radiación solar	0
155833	7	Sololá	719	Santiago Atitlán	14	Cerro de Oro	6	Junio	2023-06-19T00:00:00	2024-11-08T22:00:00	2	Temperatura media	19.3
155834	7	Sololá	719	Santiago Atitlán	14	Cerro de Oro	6	Junio	2023-06-19T00:00:00	2024-11-08T22:00:00	4	Temperatura máxima	20.1
155835	7	Sololá	719	Santiago Atitlán	14	Cerro de Oro	6	Junio	2023-06-19T00:00:00	2024-11-08T22:00:00	3	Temperatura mínima	19.3
155836	7	Sololá	719	Santiago Atitlán	14	Cerro de Oro	6	Junio	2023-06-19T00:00:00	2024-11-08T22:00:00	5	Humedad	88
155837	7	Sololá	719	Santiago Atitlán	14	Cerro de Oro	6	Junio	2023-06-19T00:00:00	2024-11-08T22:00:00	6	Velocidad del viento	3.2
155838	7	Sololá	719	Santiago Atitlán	14	Cerro de Oro	6	Junio	2023-06-19T00:00:00	2024-11-08T22:00:00	7	Dirección del viento	3.22
155839	7	Sololá	719	Santiago Atitlán	14	Cerro de Oro	6	Junio	2023-06-19T00:00:00	2024-11-08T22:00:00	1	Precipitación	0
155840	7	Sololá	719	Santiago Atitlán	14	Cerro de Oro	6	Junio	2023-06-19T00:00:00	2024-11-08T22:00:00	8	Radiación solar	0
155841	7	Sololá	719	Santiago Atitlán	14	Cerro de Oro	6	Junio	2023-06-19T00:00:00	2024-11-08T23:00:00	2	Temperatura media	19.7
155842	7	Sololá	719	Santiago Atitlán	14	Cerro de Oro	6	Junio	2023-06-19T00:00:00	2024-11-08T23:00:00	4	Temperatura máxima	19.8
155843	7	Sololá	719	Santiago Atitlán	14	Cerro de Oro	6	Junio	2023-06-19T00:00:00	2024-11-08T23:00:00	3	Temperatura mínima	19.1
155844	7	Sololá	719	Santiago Atitlán	14	Cerro de Oro	6	Junio	2023-06-19T00:00:00	2024-11-08T23:00:00	5	Humedad	87
155845	7	Sololá	719	Santiago Atitlán	14	Cerro de Oro	6	Junio	2023-06-19T00:00:00	2024-11-08T23:00:00	6	Velocidad del viento	4.8
155846	7	Sololá	719	Santiago Atitlán	14	Cerro de Oro	6	Junio	2023-06-19T00:00:00	2024-11-08T23:00:00	7	Dirección del viento	4.83
155847	7	Sololá	719	Santiago Atitlán	14	Cerro de Oro	6	Junio	2023-06-19T00:00:00	2024-11-08T23:00:00	1	Precipitación	0
155848	7	Sololá	719	Santiago Atitlán	14	Cerro de Oro	6	Junio	2023-06-19T00:00:00	2024-11-08T23:00:00	8	Radiación solar	0
155849	7	Sololá	719	Santiago Atitlán	14	Cerro de Oro	6	Junio	2023-06-20T00:00:00	2024-11-08T00:00:00	2	Temperatura media	20.4
155850	7	Sololá	719	Santiago Atitlán	14	Cerro de Oro	6	Junio	2023-06-20T00:00:00	2024-11-08T00:00:00	4	Temperatura máxima	20.6
155851	7	Sololá	719	Santiago Atitlán	14	Cerro de Oro	6	Junio	2023-06-20T00:00:00	2024-11-08T00:00:00	3	Temperatura mínima	19.7
155852	7	Sololá	719	Santiago Atitlán	14	Cerro de Oro	6	Junio	2023-06-20T00:00:00	2024-11-08T00:00:00	5	Humedad	83
155853	7	Sololá	719	Santiago Atitlán	14	Cerro de Oro	6	Junio	2023-06-20T00:00:00	2024-11-08T00:00:00	6	Velocidad del viento	4.8
155854	7	Sololá	719	Santiago Atitlán	14	Cerro de Oro	6	Junio	2023-06-20T00:00:00	2024-11-08T00:00:00	7	Dirección del viento	4.83
155855	7	Sololá	719	Santiago Atitlán	14	Cerro de Oro	6	Junio	2023-06-20T00:00:00	2024-11-08T00:00:00	1	Precipitación	0
155856	7	Sololá	719	Santiago Atitlán	14	Cerro de Oro	6	Junio	2023-06-20T00:00:00	2024-11-08T00:00:00	8	Radiación solar	0
155857	7	Sololá	719	Santiago Atitlán	14	Cerro de Oro	6	Junio	2023-06-20T00:00:00	2024-11-08T01:00:00	2	Temperatura media	19.6
155858	7	Sololá	719	Santiago Atitlán	14	Cerro de Oro	6	Junio	2023-06-20T00:00:00	2024-11-08T01:00:00	4	Temperatura máxima	20.4
155859	7	Sololá	719	Santiago Atitlán	14	Cerro de Oro	6	Junio	2023-06-20T00:00:00	2024-11-08T01:00:00	3	Temperatura mínima	19.6
155860	7	Sololá	719	Santiago Atitlán	14	Cerro de Oro	6	Junio	2023-06-20T00:00:00	2024-11-08T01:00:00	5	Humedad	84
155861	7	Sololá	719	Santiago Atitlán	14	Cerro de Oro	6	Junio	2023-06-20T00:00:00	2024-11-08T01:00:00	6	Velocidad del viento	4.8
155862	7	Sololá	719	Santiago Atitlán	14	Cerro de Oro	6	Junio	2023-06-20T00:00:00	2024-11-08T01:00:00	7	Dirección del viento	4.83
155863	7	Sololá	719	Santiago Atitlán	14	Cerro de Oro	6	Junio	2023-06-20T00:00:00	2024-11-08T01:00:00	1	Precipitación	0
155864	7	Sololá	719	Santiago Atitlán	14	Cerro de Oro	6	Junio	2023-06-20T00:00:00	2024-11-08T01:00:00	8	Radiación solar	0
155865	7	Sololá	719	Santiago Atitlán	14	Cerro de Oro	6	Junio	2023-06-20T00:00:00	2024-11-08T02:00:00	2	Temperatura media	19.4
155866	7	Sololá	719	Santiago Atitlán	14	Cerro de Oro	6	Junio	2023-06-20T00:00:00	2024-11-08T02:00:00	4	Temperatura máxima	19.7
155867	7	Sololá	719	Santiago Atitlán	14	Cerro de Oro	6	Junio	2023-06-20T00:00:00	2024-11-08T02:00:00	3	Temperatura mínima	19.2
155868	7	Sololá	719	Santiago Atitlán	14	Cerro de Oro	6	Junio	2023-06-20T00:00:00	2024-11-08T02:00:00	5	Humedad	87
155869	7	Sololá	719	Santiago Atitlán	14	Cerro de Oro	6	Junio	2023-06-20T00:00:00	2024-11-08T02:00:00	6	Velocidad del viento	3.2
155870	7	Sololá	719	Santiago Atitlán	14	Cerro de Oro	6	Junio	2023-06-20T00:00:00	2024-11-08T02:00:00	7	Dirección del viento	3.22
155871	7	Sololá	719	Santiago Atitlán	14	Cerro de Oro	6	Junio	2023-06-20T00:00:00	2024-11-08T02:00:00	1	Precipitación	0
155872	7	Sololá	719	Santiago Atitlán	14	Cerro de Oro	6	Junio	2023-06-20T00:00:00	2024-11-08T02:00:00	8	Radiación solar	0
155873	7	Sololá	719	Santiago Atitlán	14	Cerro de Oro	6	Junio	2023-06-20T00:00:00	2024-11-08T03:00:00	2	Temperatura media	19.6
155874	7	Sololá	719	Santiago Atitlán	14	Cerro de Oro	6	Junio	2023-06-20T00:00:00	2024-11-08T03:00:00	4	Temperatura máxima	19.7
155875	7	Sololá	719	Santiago Atitlán	14	Cerro de Oro	6	Junio	2023-06-20T00:00:00	2024-11-08T03:00:00	3	Temperatura mínima	19.4
155876	7	Sololá	719	Santiago Atitlán	14	Cerro de Oro	6	Junio	2023-06-20T00:00:00	2024-11-08T03:00:00	5	Humedad	87
155877	7	Sololá	719	Santiago Atitlán	14	Cerro de Oro	6	Junio	2023-06-20T00:00:00	2024-11-08T03:00:00	6	Velocidad del viento	1.6
155878	7	Sololá	719	Santiago Atitlán	14	Cerro de Oro	6	Junio	2023-06-20T00:00:00	2024-11-08T03:00:00	7	Dirección del viento	1.61
155879	7	Sololá	719	Santiago Atitlán	14	Cerro de Oro	6	Junio	2023-06-20T00:00:00	2024-11-08T03:00:00	1	Precipitación	0
155880	7	Sololá	719	Santiago Atitlán	14	Cerro de Oro	6	Junio	2023-06-20T00:00:00	2024-11-08T03:00:00	8	Radiación solar	0
155881	7	Sololá	719	Santiago Atitlán	14	Cerro de Oro	6	Junio	2023-06-20T00:00:00	2024-11-08T04:00:00	2	Temperatura media	18.9
155882	7	Sololá	719	Santiago Atitlán	14	Cerro de Oro	6	Junio	2023-06-20T00:00:00	2024-11-08T04:00:00	4	Temperatura máxima	19.6
155883	7	Sololá	719	Santiago Atitlán	14	Cerro de Oro	6	Junio	2023-06-20T00:00:00	2024-11-08T04:00:00	3	Temperatura mínima	18.9
155884	7	Sololá	719	Santiago Atitlán	14	Cerro de Oro	6	Junio	2023-06-20T00:00:00	2024-11-08T04:00:00	5	Humedad	89
155885	7	Sololá	719	Santiago Atitlán	14	Cerro de Oro	6	Junio	2023-06-20T00:00:00	2024-11-08T04:00:00	6	Velocidad del viento	3.2
155886	7	Sololá	719	Santiago Atitlán	14	Cerro de Oro	6	Junio	2023-06-20T00:00:00	2024-11-08T04:00:00	7	Dirección del viento	3.22
155887	7	Sololá	719	Santiago Atitlán	14	Cerro de Oro	6	Junio	2023-06-20T00:00:00	2024-11-08T04:00:00	1	Precipitación	0.2
155888	7	Sololá	719	Santiago Atitlán	14	Cerro de Oro	6	Junio	2023-06-20T00:00:00	2024-11-08T04:00:00	8	Radiación solar	0
155889	7	Sololá	719	Santiago Atitlán	14	Cerro de Oro	6	Junio	2023-06-20T00:00:00	2024-11-08T05:00:00	2	Temperatura media	18.6
155890	7	Sololá	719	Santiago Atitlán	14	Cerro de Oro	6	Junio	2023-06-20T00:00:00	2024-11-08T05:00:00	4	Temperatura máxima	19
155891	7	Sololá	719	Santiago Atitlán	14	Cerro de Oro	6	Junio	2023-06-20T00:00:00	2024-11-08T05:00:00	3	Temperatura mínima	18.6
155892	7	Sololá	719	Santiago Atitlán	14	Cerro de Oro	6	Junio	2023-06-20T00:00:00	2024-11-08T05:00:00	5	Humedad	90
155893	7	Sololá	719	Santiago Atitlán	14	Cerro de Oro	6	Junio	2023-06-20T00:00:00	2024-11-08T05:00:00	6	Velocidad del viento	4.8
155894	7	Sololá	719	Santiago Atitlán	14	Cerro de Oro	6	Junio	2023-06-20T00:00:00	2024-11-08T05:00:00	7	Dirección del viento	4.83
155895	7	Sololá	719	Santiago Atitlán	14	Cerro de Oro	6	Junio	2023-06-20T00:00:00	2024-11-08T05:00:00	1	Precipitación	0
155896	7	Sololá	719	Santiago Atitlán	14	Cerro de Oro	6	Junio	2023-06-20T00:00:00	2024-11-08T05:00:00	8	Radiación solar	0
155897	7	Sololá	719	Santiago Atitlán	14	Cerro de Oro	6	Junio	2023-06-20T00:00:00	2024-11-08T06:00:00	2	Temperatura media	18.9
155898	7	Sololá	719	Santiago Atitlán	14	Cerro de Oro	6	Junio	2023-06-20T00:00:00	2024-11-08T06:00:00	4	Temperatura máxima	18.9
155899	7	Sololá	719	Santiago Atitlán	14	Cerro de Oro	6	Junio	2023-06-20T00:00:00	2024-11-08T06:00:00	3	Temperatura mínima	18.6
155900	7	Sololá	719	Santiago Atitlán	14	Cerro de Oro	6	Junio	2023-06-20T00:00:00	2024-11-08T06:00:00	5	Humedad	89
155901	7	Sololá	719	Santiago Atitlán	14	Cerro de Oro	6	Junio	2023-06-20T00:00:00	2024-11-08T06:00:00	6	Velocidad del viento	4.8
155902	7	Sololá	719	Santiago Atitlán	14	Cerro de Oro	6	Junio	2023-06-20T00:00:00	2024-11-08T06:00:00	7	Dirección del viento	4.83
155903	7	Sololá	719	Santiago Atitlán	14	Cerro de Oro	6	Junio	2023-06-20T00:00:00	2024-11-08T06:00:00	1	Precipitación	0
155904	7	Sololá	719	Santiago Atitlán	14	Cerro de Oro	6	Junio	2023-06-20T00:00:00	2024-11-08T06:00:00	8	Radiación solar	2
155905	7	Sololá	719	Santiago Atitlán	14	Cerro de Oro	6	Junio	2023-06-20T00:00:00	2024-11-08T07:00:00	2	Temperatura media	20.2
155906	7	Sololá	719	Santiago Atitlán	14	Cerro de Oro	6	Junio	2023-06-20T00:00:00	2024-11-08T07:00:00	4	Temperatura máxima	20.2
155907	7	Sololá	719	Santiago Atitlán	14	Cerro de Oro	6	Junio	2023-06-20T00:00:00	2024-11-08T07:00:00	3	Temperatura mínima	18.8
155908	7	Sololá	719	Santiago Atitlán	14	Cerro de Oro	6	Junio	2023-06-20T00:00:00	2024-11-08T07:00:00	5	Humedad	86
155909	7	Sololá	719	Santiago Atitlán	14	Cerro de Oro	6	Junio	2023-06-20T00:00:00	2024-11-08T07:00:00	6	Velocidad del viento	3.2
155910	7	Sololá	719	Santiago Atitlán	14	Cerro de Oro	6	Junio	2023-06-20T00:00:00	2024-11-08T07:00:00	7	Dirección del viento	3.22
155911	7	Sololá	719	Santiago Atitlán	14	Cerro de Oro	6	Junio	2023-06-20T00:00:00	2024-11-08T07:00:00	1	Precipitación	0
155912	7	Sololá	719	Santiago Atitlán	14	Cerro de Oro	6	Junio	2023-06-20T00:00:00	2024-11-08T07:00:00	8	Radiación solar	68
155913	7	Sololá	719	Santiago Atitlán	14	Cerro de Oro	6	Junio	2023-06-20T00:00:00	2024-11-08T08:00:00	2	Temperatura media	22.8
155914	7	Sololá	719	Santiago Atitlán	14	Cerro de Oro	6	Junio	2023-06-20T00:00:00	2024-11-08T08:00:00	4	Temperatura máxima	22.8
155915	7	Sololá	719	Santiago Atitlán	14	Cerro de Oro	6	Junio	2023-06-20T00:00:00	2024-11-08T08:00:00	3	Temperatura mínima	20.2
155916	7	Sololá	719	Santiago Atitlán	14	Cerro de Oro	6	Junio	2023-06-20T00:00:00	2024-11-08T08:00:00	5	Humedad	81
155917	7	Sololá	719	Santiago Atitlán	14	Cerro de Oro	6	Junio	2023-06-20T00:00:00	2024-11-08T08:00:00	6	Velocidad del viento	1.6
155918	7	Sololá	719	Santiago Atitlán	14	Cerro de Oro	6	Junio	2023-06-20T00:00:00	2024-11-08T08:00:00	7	Dirección del viento	1.61
155919	7	Sololá	719	Santiago Atitlán	14	Cerro de Oro	6	Junio	2023-06-20T00:00:00	2024-11-08T08:00:00	1	Precipitación	0
155920	7	Sololá	719	Santiago Atitlán	14	Cerro de Oro	6	Junio	2023-06-20T00:00:00	2024-11-08T08:00:00	8	Radiación solar	303
155921	7	Sololá	719	Santiago Atitlán	14	Cerro de Oro	6	Junio	2023-06-20T00:00:00	2024-11-08T09:00:00	2	Temperatura media	22.1
155922	7	Sololá	719	Santiago Atitlán	14	Cerro de Oro	6	Junio	2023-06-20T00:00:00	2024-11-08T09:00:00	4	Temperatura máxima	23.4
155923	7	Sololá	719	Santiago Atitlán	14	Cerro de Oro	6	Junio	2023-06-20T00:00:00	2024-11-08T09:00:00	3	Temperatura mínima	22.1
155924	7	Sololá	719	Santiago Atitlán	14	Cerro de Oro	6	Junio	2023-06-20T00:00:00	2024-11-08T09:00:00	5	Humedad	82
155925	7	Sololá	719	Santiago Atitlán	14	Cerro de Oro	6	Junio	2023-06-20T00:00:00	2024-11-08T09:00:00	6	Velocidad del viento	3.2
155926	7	Sololá	719	Santiago Atitlán	14	Cerro de Oro	6	Junio	2023-06-20T00:00:00	2024-11-08T09:00:00	7	Dirección del viento	3.22
155927	7	Sololá	719	Santiago Atitlán	14	Cerro de Oro	6	Junio	2023-06-20T00:00:00	2024-11-08T09:00:00	1	Precipitación	0
155928	7	Sololá	719	Santiago Atitlán	14	Cerro de Oro	6	Junio	2023-06-20T00:00:00	2024-11-08T09:00:00	8	Radiación solar	352
155929	7	Sololá	719	Santiago Atitlán	14	Cerro de Oro	6	Junio	2023-06-20T00:00:00	2024-11-08T10:00:00	2	Temperatura media	23.6
155930	7	Sololá	719	Santiago Atitlán	14	Cerro de Oro	6	Junio	2023-06-20T00:00:00	2024-11-08T10:00:00	4	Temperatura máxima	23.6
155931	7	Sololá	719	Santiago Atitlán	14	Cerro de Oro	6	Junio	2023-06-20T00:00:00	2024-11-08T10:00:00	3	Temperatura mínima	22.1
155932	7	Sololá	719	Santiago Atitlán	14	Cerro de Oro	6	Junio	2023-06-20T00:00:00	2024-11-08T10:00:00	5	Humedad	79
155933	7	Sololá	719	Santiago Atitlán	14	Cerro de Oro	6	Junio	2023-06-20T00:00:00	2024-11-08T10:00:00	6	Velocidad del viento	4.8
155934	7	Sololá	719	Santiago Atitlán	14	Cerro de Oro	6	Junio	2023-06-20T00:00:00	2024-11-08T10:00:00	7	Dirección del viento	4.83
155935	7	Sololá	719	Santiago Atitlán	14	Cerro de Oro	6	Junio	2023-06-20T00:00:00	2024-11-08T10:00:00	1	Precipitación	0
155936	7	Sololá	719	Santiago Atitlán	14	Cerro de Oro	6	Junio	2023-06-20T00:00:00	2024-11-08T10:00:00	8	Radiación solar	434
155937	7	Sololá	719	Santiago Atitlán	14	Cerro de Oro	6	Junio	2023-06-20T00:00:00	2024-11-08T11:00:00	2	Temperatura media	24
155938	7	Sololá	719	Santiago Atitlán	14	Cerro de Oro	6	Junio	2023-06-20T00:00:00	2024-11-08T11:00:00	4	Temperatura máxima	24.6
155939	7	Sololá	719	Santiago Atitlán	14	Cerro de Oro	6	Junio	2023-06-20T00:00:00	2024-11-08T11:00:00	3	Temperatura mínima	23.4
155940	7	Sololá	719	Santiago Atitlán	14	Cerro de Oro	6	Junio	2023-06-20T00:00:00	2024-11-08T11:00:00	5	Humedad	73
155941	7	Sololá	719	Santiago Atitlán	14	Cerro de Oro	6	Junio	2023-06-20T00:00:00	2024-11-08T11:00:00	6	Velocidad del viento	9.7
155942	7	Sololá	719	Santiago Atitlán	14	Cerro de Oro	6	Junio	2023-06-20T00:00:00	2024-11-08T11:00:00	7	Dirección del viento	9.66
155943	7	Sololá	719	Santiago Atitlán	14	Cerro de Oro	6	Junio	2023-06-20T00:00:00	2024-11-08T11:00:00	1	Precipitación	0
155944	7	Sololá	719	Santiago Atitlán	14	Cerro de Oro	6	Junio	2023-06-20T00:00:00	2024-11-08T11:00:00	8	Radiación solar	921
155945	7	Sololá	719	Santiago Atitlán	14	Cerro de Oro	6	Junio	2023-06-20T00:00:00	2024-11-08T12:00:00	2	Temperatura media	23.7
155946	7	Sololá	719	Santiago Atitlán	14	Cerro de Oro	6	Junio	2023-06-20T00:00:00	2024-11-08T12:00:00	4	Temperatura máxima	24.1
155947	7	Sololá	719	Santiago Atitlán	14	Cerro de Oro	6	Junio	2023-06-20T00:00:00	2024-11-08T12:00:00	3	Temperatura mínima	22.9
155948	7	Sololá	719	Santiago Atitlán	14	Cerro de Oro	6	Junio	2023-06-20T00:00:00	2024-11-08T12:00:00	5	Humedad	73
155949	7	Sololá	719	Santiago Atitlán	14	Cerro de Oro	6	Junio	2023-06-20T00:00:00	2024-11-08T12:00:00	6	Velocidad del viento	8
155950	7	Sololá	719	Santiago Atitlán	14	Cerro de Oro	6	Junio	2023-06-20T00:00:00	2024-11-08T12:00:00	7	Dirección del viento	8.05
155951	7	Sololá	719	Santiago Atitlán	14	Cerro de Oro	6	Junio	2023-06-20T00:00:00	2024-11-08T12:00:00	1	Precipitación	0
155952	7	Sololá	719	Santiago Atitlán	14	Cerro de Oro	6	Junio	2023-06-20T00:00:00	2024-11-08T12:00:00	8	Radiación solar	460
155953	7	Sololá	719	Santiago Atitlán	14	Cerro de Oro	6	Junio	2023-06-20T00:00:00	2024-11-08T13:00:00	2	Temperatura media	22.6
155954	7	Sololá	719	Santiago Atitlán	14	Cerro de Oro	6	Junio	2023-06-20T00:00:00	2024-11-08T13:00:00	4	Temperatura máxima	23.7
155955	7	Sololá	719	Santiago Atitlán	14	Cerro de Oro	6	Junio	2023-06-20T00:00:00	2024-11-08T13:00:00	3	Temperatura mínima	22.6
155956	7	Sololá	719	Santiago Atitlán	14	Cerro de Oro	6	Junio	2023-06-20T00:00:00	2024-11-08T13:00:00	5	Humedad	78
155957	7	Sololá	719	Santiago Atitlán	14	Cerro de Oro	6	Junio	2023-06-20T00:00:00	2024-11-08T13:00:00	6	Velocidad del viento	8
155958	7	Sololá	719	Santiago Atitlán	14	Cerro de Oro	6	Junio	2023-06-20T00:00:00	2024-11-08T13:00:00	7	Dirección del viento	8.05
155959	7	Sololá	719	Santiago Atitlán	14	Cerro de Oro	6	Junio	2023-06-20T00:00:00	2024-11-08T13:00:00	1	Precipitación	0
155960	7	Sololá	719	Santiago Atitlán	14	Cerro de Oro	6	Junio	2023-06-20T00:00:00	2024-11-08T13:00:00	8	Radiación solar	271
155961	7	Sololá	719	Santiago Atitlán	14	Cerro de Oro	6	Junio	2023-06-20T00:00:00	2024-11-08T14:00:00	2	Temperatura media	22.1
155962	7	Sololá	719	Santiago Atitlán	14	Cerro de Oro	6	Junio	2023-06-20T00:00:00	2024-11-08T14:00:00	4	Temperatura máxima	22.7
155963	7	Sololá	719	Santiago Atitlán	14	Cerro de Oro	6	Junio	2023-06-20T00:00:00	2024-11-08T14:00:00	3	Temperatura mínima	21.3
155964	7	Sololá	719	Santiago Atitlán	14	Cerro de Oro	6	Junio	2023-06-20T00:00:00	2024-11-08T14:00:00	5	Humedad	87
155965	7	Sololá	719	Santiago Atitlán	14	Cerro de Oro	6	Junio	2023-06-20T00:00:00	2024-11-08T14:00:00	6	Velocidad del viento	6.4
155966	7	Sololá	719	Santiago Atitlán	14	Cerro de Oro	6	Junio	2023-06-20T00:00:00	2024-11-08T14:00:00	7	Dirección del viento	6.44
155967	7	Sololá	719	Santiago Atitlán	14	Cerro de Oro	6	Junio	2023-06-20T00:00:00	2024-11-08T14:00:00	1	Precipitación	0.6
155968	7	Sololá	719	Santiago Atitlán	14	Cerro de Oro	6	Junio	2023-06-20T00:00:00	2024-11-08T14:00:00	8	Radiación solar	370
155969	7	Sololá	719	Santiago Atitlán	14	Cerro de Oro	6	Junio	2023-06-20T00:00:00	2024-11-08T15:00:00	2	Temperatura media	22.6
155970	7	Sololá	719	Santiago Atitlán	14	Cerro de Oro	6	Junio	2023-06-20T00:00:00	2024-11-08T15:00:00	4	Temperatura máxima	23
155971	7	Sololá	719	Santiago Atitlán	14	Cerro de Oro	6	Junio	2023-06-20T00:00:00	2024-11-08T15:00:00	3	Temperatura mínima	22.1
155972	7	Sololá	719	Santiago Atitlán	14	Cerro de Oro	6	Junio	2023-06-20T00:00:00	2024-11-08T15:00:00	5	Humedad	81
155973	7	Sololá	719	Santiago Atitlán	14	Cerro de Oro	6	Junio	2023-06-20T00:00:00	2024-11-08T15:00:00	6	Velocidad del viento	6.4
155974	7	Sololá	719	Santiago Atitlán	14	Cerro de Oro	6	Junio	2023-06-20T00:00:00	2024-11-08T15:00:00	7	Dirección del viento	6.44
155975	7	Sololá	719	Santiago Atitlán	14	Cerro de Oro	6	Junio	2023-06-20T00:00:00	2024-11-08T15:00:00	1	Precipitación	0
155976	7	Sololá	719	Santiago Atitlán	14	Cerro de Oro	6	Junio	2023-06-20T00:00:00	2024-11-08T15:00:00	8	Radiación solar	341
155977	7	Sololá	719	Santiago Atitlán	14	Cerro de Oro	6	Junio	2023-06-20T00:00:00	2024-11-08T16:00:00	2	Temperatura media	22.5
155978	7	Sololá	719	Santiago Atitlán	14	Cerro de Oro	6	Junio	2023-06-20T00:00:00	2024-11-08T16:00:00	4	Temperatura máxima	22.9
155979	7	Sololá	719	Santiago Atitlán	14	Cerro de Oro	6	Junio	2023-06-20T00:00:00	2024-11-08T16:00:00	3	Temperatura mínima	22.4
155980	7	Sololá	719	Santiago Atitlán	14	Cerro de Oro	6	Junio	2023-06-20T00:00:00	2024-11-08T16:00:00	5	Humedad	83
155981	7	Sololá	719	Santiago Atitlán	14	Cerro de Oro	6	Junio	2023-06-20T00:00:00	2024-11-08T16:00:00	6	Velocidad del viento	8
155982	7	Sololá	719	Santiago Atitlán	14	Cerro de Oro	6	Junio	2023-06-20T00:00:00	2024-11-08T16:00:00	7	Dirección del viento	8.05
155983	7	Sololá	719	Santiago Atitlán	14	Cerro de Oro	6	Junio	2023-06-20T00:00:00	2024-11-08T16:00:00	1	Precipitación	0
155984	7	Sololá	719	Santiago Atitlán	14	Cerro de Oro	6	Junio	2023-06-20T00:00:00	2024-11-08T16:00:00	8	Radiación solar	269
155985	7	Sololá	719	Santiago Atitlán	14	Cerro de Oro	6	Junio	2023-06-20T00:00:00	2024-11-08T17:00:00	2	Temperatura media	18.8
155986	7	Sololá	719	Santiago Atitlán	14	Cerro de Oro	6	Junio	2023-06-20T00:00:00	2024-11-08T17:00:00	4	Temperatura máxima	22.5
155987	7	Sololá	719	Santiago Atitlán	14	Cerro de Oro	6	Junio	2023-06-20T00:00:00	2024-11-08T17:00:00	3	Temperatura mínima	18.8
155988	7	Sololá	719	Santiago Atitlán	14	Cerro de Oro	6	Junio	2023-06-20T00:00:00	2024-11-08T17:00:00	5	Humedad	91
155989	7	Sololá	719	Santiago Atitlán	14	Cerro de Oro	6	Junio	2023-06-20T00:00:00	2024-11-08T17:00:00	6	Velocidad del viento	14.5
155990	7	Sololá	719	Santiago Atitlán	14	Cerro de Oro	6	Junio	2023-06-20T00:00:00	2024-11-08T17:00:00	7	Dirección del viento	14.48
155991	7	Sololá	719	Santiago Atitlán	14	Cerro de Oro	6	Junio	2023-06-20T00:00:00	2024-11-08T17:00:00	1	Precipitación	1.8
155992	7	Sololá	719	Santiago Atitlán	14	Cerro de Oro	6	Junio	2023-06-20T00:00:00	2024-11-08T17:00:00	8	Radiación solar	150
155993	7	Sololá	719	Santiago Atitlán	14	Cerro de Oro	6	Junio	2023-06-20T00:00:00	2024-11-08T18:00:00	2	Temperatura media	18.4
155994	7	Sololá	719	Santiago Atitlán	14	Cerro de Oro	6	Junio	2023-06-20T00:00:00	2024-11-08T18:00:00	4	Temperatura máxima	18.8
155995	7	Sololá	719	Santiago Atitlán	14	Cerro de Oro	6	Junio	2023-06-20T00:00:00	2024-11-08T18:00:00	3	Temperatura mínima	18.4
155996	7	Sololá	719	Santiago Atitlán	14	Cerro de Oro	6	Junio	2023-06-20T00:00:00	2024-11-08T18:00:00	5	Humedad	93
155997	7	Sololá	719	Santiago Atitlán	14	Cerro de Oro	6	Junio	2023-06-20T00:00:00	2024-11-08T18:00:00	6	Velocidad del viento	8
155998	7	Sololá	719	Santiago Atitlán	14	Cerro de Oro	6	Junio	2023-06-20T00:00:00	2024-11-08T18:00:00	7	Dirección del viento	8.05
155999	7	Sololá	719	Santiago Atitlán	14	Cerro de Oro	6	Junio	2023-06-20T00:00:00	2024-11-08T18:00:00	1	Precipitación	8.8
156000	7	Sololá	719	Santiago Atitlán	14	Cerro de Oro	6	Junio	2023-06-20T00:00:00	2024-11-08T18:00:00	8	Radiación solar	13
156001	7	Sololá	719	Santiago Atitlán	14	Cerro de Oro	6	Junio	2023-06-20T00:00:00	2024-11-08T19:00:00	2	Temperatura media	18.2
156002	7	Sololá	719	Santiago Atitlán	14	Cerro de Oro	6	Junio	2023-06-20T00:00:00	2024-11-08T19:00:00	4	Temperatura máxima	18.5
156003	7	Sololá	719	Santiago Atitlán	14	Cerro de Oro	6	Junio	2023-06-20T00:00:00	2024-11-08T19:00:00	3	Temperatura mínima	18.1
156004	7	Sololá	719	Santiago Atitlán	14	Cerro de Oro	6	Junio	2023-06-20T00:00:00	2024-11-08T19:00:00	5	Humedad	93
156005	7	Sololá	719	Santiago Atitlán	14	Cerro de Oro	6	Junio	2023-06-20T00:00:00	2024-11-08T19:00:00	6	Velocidad del viento	3.2
156006	7	Sololá	719	Santiago Atitlán	14	Cerro de Oro	6	Junio	2023-06-20T00:00:00	2024-11-08T19:00:00	7	Dirección del viento	3.22
156007	7	Sololá	719	Santiago Atitlán	14	Cerro de Oro	6	Junio	2023-06-20T00:00:00	2024-11-08T19:00:00	1	Precipitación	2.8
156008	7	Sololá	719	Santiago Atitlán	14	Cerro de Oro	6	Junio	2023-06-20T00:00:00	2024-11-08T19:00:00	8	Radiación solar	0
156009	7	Sololá	719	Santiago Atitlán	14	Cerro de Oro	6	Junio	2023-06-20T00:00:00	2024-11-08T20:00:00	2	Temperatura media	17.9
156010	7	Sololá	719	Santiago Atitlán	14	Cerro de Oro	6	Junio	2023-06-20T00:00:00	2024-11-08T20:00:00	4	Temperatura máxima	18.3
156011	7	Sololá	719	Santiago Atitlán	14	Cerro de Oro	6	Junio	2023-06-20T00:00:00	2024-11-08T20:00:00	3	Temperatura mínima	17.8
156012	7	Sololá	719	Santiago Atitlán	14	Cerro de Oro	6	Junio	2023-06-20T00:00:00	2024-11-08T20:00:00	5	Humedad	92
156013	7	Sololá	719	Santiago Atitlán	14	Cerro de Oro	6	Junio	2023-06-20T00:00:00	2024-11-08T20:00:00	6	Velocidad del viento	3.2
156014	7	Sololá	719	Santiago Atitlán	14	Cerro de Oro	6	Junio	2023-06-20T00:00:00	2024-11-08T20:00:00	7	Dirección del viento	3.22
156015	7	Sololá	719	Santiago Atitlán	14	Cerro de Oro	6	Junio	2023-06-20T00:00:00	2024-11-08T20:00:00	1	Precipitación	0
156016	7	Sololá	719	Santiago Atitlán	14	Cerro de Oro	6	Junio	2023-06-20T00:00:00	2024-11-08T20:00:00	8	Radiación solar	0
156017	7	Sololá	719	Santiago Atitlán	14	Cerro de Oro	6	Junio	2023-06-20T00:00:00	2024-11-08T21:00:00	2	Temperatura media	17.9
156018	7	Sololá	719	Santiago Atitlán	14	Cerro de Oro	6	Junio	2023-06-20T00:00:00	2024-11-08T21:00:00	4	Temperatura máxima	18.1
156019	7	Sololá	719	Santiago Atitlán	14	Cerro de Oro	6	Junio	2023-06-20T00:00:00	2024-11-08T21:00:00	3	Temperatura mínima	17.9
156020	7	Sololá	719	Santiago Atitlán	14	Cerro de Oro	6	Junio	2023-06-20T00:00:00	2024-11-08T21:00:00	5	Humedad	92
156021	7	Sololá	719	Santiago Atitlán	14	Cerro de Oro	6	Junio	2023-06-20T00:00:00	2024-11-08T21:00:00	6	Velocidad del viento	3.2
156022	7	Sololá	719	Santiago Atitlán	14	Cerro de Oro	6	Junio	2023-06-20T00:00:00	2024-11-08T21:00:00	7	Dirección del viento	3.22
156023	7	Sololá	719	Santiago Atitlán	14	Cerro de Oro	6	Junio	2023-06-20T00:00:00	2024-11-08T21:00:00	1	Precipitación	4.4
156024	7	Sololá	719	Santiago Atitlán	14	Cerro de Oro	6	Junio	2023-06-20T00:00:00	2024-11-08T21:00:00	8	Radiación solar	0
156025	7	Sololá	719	Santiago Atitlán	14	Cerro de Oro	6	Junio	2023-06-20T00:00:00	2024-11-08T22:00:00	2	Temperatura media	17.6
156026	7	Sololá	719	Santiago Atitlán	14	Cerro de Oro	6	Junio	2023-06-20T00:00:00	2024-11-08T22:00:00	4	Temperatura máxima	18
156027	7	Sololá	719	Santiago Atitlán	14	Cerro de Oro	6	Junio	2023-06-20T00:00:00	2024-11-08T22:00:00	3	Temperatura mínima	17.6
156028	7	Sololá	719	Santiago Atitlán	14	Cerro de Oro	6	Junio	2023-06-20T00:00:00	2024-11-08T22:00:00	5	Humedad	94
156029	7	Sololá	719	Santiago Atitlán	14	Cerro de Oro	6	Junio	2023-06-20T00:00:00	2024-11-08T22:00:00	6	Velocidad del viento	1.6
156030	7	Sololá	719	Santiago Atitlán	14	Cerro de Oro	6	Junio	2023-06-20T00:00:00	2024-11-08T22:00:00	7	Dirección del viento	1.61
156031	7	Sololá	719	Santiago Atitlán	14	Cerro de Oro	6	Junio	2023-06-20T00:00:00	2024-11-08T22:00:00	1	Precipitación	5.6
156032	7	Sololá	719	Santiago Atitlán	14	Cerro de Oro	6	Junio	2023-06-20T00:00:00	2024-11-08T22:00:00	8	Radiación solar	0
156033	7	Sololá	719	Santiago Atitlán	14	Cerro de Oro	6	Junio	2023-06-20T00:00:00	2024-11-08T23:00:00	2	Temperatura media	17.5
156034	7	Sololá	719	Santiago Atitlán	14	Cerro de Oro	6	Junio	2023-06-20T00:00:00	2024-11-08T23:00:00	4	Temperatura máxima	17.7
156035	7	Sololá	719	Santiago Atitlán	14	Cerro de Oro	6	Junio	2023-06-20T00:00:00	2024-11-08T23:00:00	3	Temperatura mínima	17.5
156036	7	Sololá	719	Santiago Atitlán	14	Cerro de Oro	6	Junio	2023-06-20T00:00:00	2024-11-08T23:00:00	5	Humedad	93
156037	7	Sololá	719	Santiago Atitlán	14	Cerro de Oro	6	Junio	2023-06-20T00:00:00	2024-11-08T23:00:00	6	Velocidad del viento	3.2
156038	7	Sololá	719	Santiago Atitlán	14	Cerro de Oro	6	Junio	2023-06-20T00:00:00	2024-11-08T23:00:00	7	Dirección del viento	3.22
156039	7	Sololá	719	Santiago Atitlán	14	Cerro de Oro	6	Junio	2023-06-20T00:00:00	2024-11-08T23:00:00	1	Precipitación	2.8
156040	7	Sololá	719	Santiago Atitlán	14	Cerro de Oro	6	Junio	2023-06-20T00:00:00	2024-11-08T23:00:00	8	Radiación solar	0
156041	7	Sololá	719	Santiago Atitlán	14	Cerro de Oro	6	Junio	2023-06-21T00:00:00	2024-11-08T00:00:00	2	Temperatura media	17.5
156042	7	Sololá	719	Santiago Atitlán	14	Cerro de Oro	6	Junio	2023-06-21T00:00:00	2024-11-08T00:00:00	4	Temperatura máxima	17.5
156043	7	Sololá	719	Santiago Atitlán	14	Cerro de Oro	6	Junio	2023-06-21T00:00:00	2024-11-08T00:00:00	3	Temperatura mínima	17.2
156044	7	Sololá	719	Santiago Atitlán	14	Cerro de Oro	6	Junio	2023-06-21T00:00:00	2024-11-08T00:00:00	5	Humedad	93
156045	7	Sololá	719	Santiago Atitlán	14	Cerro de Oro	6	Junio	2023-06-21T00:00:00	2024-11-08T00:00:00	6	Velocidad del viento	3.2
156046	7	Sololá	719	Santiago Atitlán	14	Cerro de Oro	6	Junio	2023-06-21T00:00:00	2024-11-08T00:00:00	7	Dirección del viento	3.22
156047	7	Sololá	719	Santiago Atitlán	14	Cerro de Oro	6	Junio	2023-06-21T00:00:00	2024-11-08T00:00:00	1	Precipitación	2.8
156048	7	Sololá	719	Santiago Atitlán	14	Cerro de Oro	6	Junio	2023-06-21T00:00:00	2024-11-08T00:00:00	8	Radiación solar	0
156049	7	Sololá	719	Santiago Atitlán	14	Cerro de Oro	6	Junio	2023-06-21T00:00:00	2024-11-08T01:00:00	2	Temperatura media	17.3
156050	7	Sololá	719	Santiago Atitlán	14	Cerro de Oro	6	Junio	2023-06-21T00:00:00	2024-11-08T01:00:00	4	Temperatura máxima	17.6
156051	7	Sololá	719	Santiago Atitlán	14	Cerro de Oro	6	Junio	2023-06-21T00:00:00	2024-11-08T01:00:00	3	Temperatura mínima	17.3
156052	7	Sololá	719	Santiago Atitlán	14	Cerro de Oro	6	Junio	2023-06-21T00:00:00	2024-11-08T01:00:00	5	Humedad	93
156053	7	Sololá	719	Santiago Atitlán	14	Cerro de Oro	6	Junio	2023-06-21T00:00:00	2024-11-08T01:00:00	6	Velocidad del viento	3.2
156054	7	Sololá	719	Santiago Atitlán	14	Cerro de Oro	6	Junio	2023-06-21T00:00:00	2024-11-08T01:00:00	7	Dirección del viento	3.22
156055	7	Sololá	719	Santiago Atitlán	14	Cerro de Oro	6	Junio	2023-06-21T00:00:00	2024-11-08T01:00:00	1	Precipitación	1
156056	7	Sololá	719	Santiago Atitlán	14	Cerro de Oro	6	Junio	2023-06-21T00:00:00	2024-11-08T01:00:00	8	Radiación solar	0
156057	7	Sololá	719	Santiago Atitlán	14	Cerro de Oro	6	Junio	2023-06-21T00:00:00	2024-11-08T02:00:00	2	Temperatura media	17.6
156058	7	Sololá	719	Santiago Atitlán	14	Cerro de Oro	6	Junio	2023-06-21T00:00:00	2024-11-08T02:00:00	4	Temperatura máxima	17.7
156059	7	Sololá	719	Santiago Atitlán	14	Cerro de Oro	6	Junio	2023-06-21T00:00:00	2024-11-08T02:00:00	3	Temperatura mínima	17.3
156060	7	Sololá	719	Santiago Atitlán	14	Cerro de Oro	6	Junio	2023-06-21T00:00:00	2024-11-08T02:00:00	5	Humedad	92
156061	7	Sololá	719	Santiago Atitlán	14	Cerro de Oro	6	Junio	2023-06-21T00:00:00	2024-11-08T02:00:00	6	Velocidad del viento	4.8
156062	7	Sololá	719	Santiago Atitlán	14	Cerro de Oro	6	Junio	2023-06-21T00:00:00	2024-11-08T02:00:00	7	Dirección del viento	4.83
156063	7	Sololá	719	Santiago Atitlán	14	Cerro de Oro	6	Junio	2023-06-21T00:00:00	2024-11-08T02:00:00	1	Precipitación	0.2
156064	7	Sololá	719	Santiago Atitlán	14	Cerro de Oro	6	Junio	2023-06-21T00:00:00	2024-11-08T02:00:00	8	Radiación solar	0
156065	7	Sololá	719	Santiago Atitlán	14	Cerro de Oro	6	Junio	2023-06-21T00:00:00	2024-11-08T03:00:00	2	Temperatura media	17.6
156066	7	Sololá	719	Santiago Atitlán	14	Cerro de Oro	6	Junio	2023-06-21T00:00:00	2024-11-08T03:00:00	4	Temperatura máxima	17.6
156067	7	Sololá	719	Santiago Atitlán	14	Cerro de Oro	6	Junio	2023-06-21T00:00:00	2024-11-08T03:00:00	3	Temperatura mínima	17.2
156068	7	Sololá	719	Santiago Atitlán	14	Cerro de Oro	6	Junio	2023-06-21T00:00:00	2024-11-08T03:00:00	5	Humedad	93
156069	7	Sololá	719	Santiago Atitlán	14	Cerro de Oro	6	Junio	2023-06-21T00:00:00	2024-11-08T03:00:00	6	Velocidad del viento	3.2
156070	7	Sololá	719	Santiago Atitlán	14	Cerro de Oro	6	Junio	2023-06-21T00:00:00	2024-11-08T03:00:00	7	Dirección del viento	3.22
156071	7	Sololá	719	Santiago Atitlán	14	Cerro de Oro	6	Junio	2023-06-21T00:00:00	2024-11-08T03:00:00	1	Precipitación	0.2
156072	7	Sololá	719	Santiago Atitlán	14	Cerro de Oro	6	Junio	2023-06-21T00:00:00	2024-11-08T03:00:00	8	Radiación solar	0
156073	7	Sololá	719	Santiago Atitlán	14	Cerro de Oro	6	Junio	2023-06-21T00:00:00	2024-11-08T04:00:00	2	Temperatura media	17.7
156074	7	Sololá	719	Santiago Atitlán	14	Cerro de Oro	6	Junio	2023-06-21T00:00:00	2024-11-08T04:00:00	4	Temperatura máxima	18
156075	7	Sololá	719	Santiago Atitlán	14	Cerro de Oro	6	Junio	2023-06-21T00:00:00	2024-11-08T04:00:00	3	Temperatura mínima	17.6
156076	7	Sololá	719	Santiago Atitlán	14	Cerro de Oro	6	Junio	2023-06-21T00:00:00	2024-11-08T04:00:00	5	Humedad	93
156077	7	Sololá	719	Santiago Atitlán	14	Cerro de Oro	6	Junio	2023-06-21T00:00:00	2024-11-08T04:00:00	6	Velocidad del viento	4.8
156078	7	Sololá	719	Santiago Atitlán	14	Cerro de Oro	6	Junio	2023-06-21T00:00:00	2024-11-08T04:00:00	7	Dirección del viento	4.83
156079	7	Sololá	719	Santiago Atitlán	14	Cerro de Oro	6	Junio	2023-06-21T00:00:00	2024-11-08T04:00:00	1	Precipitación	0
156080	7	Sololá	719	Santiago Atitlán	14	Cerro de Oro	6	Junio	2023-06-21T00:00:00	2024-11-08T04:00:00	8	Radiación solar	0
156081	7	Sololá	719	Santiago Atitlán	14	Cerro de Oro	6	Junio	2023-06-21T00:00:00	2024-11-08T05:00:00	2	Temperatura media	17.7
156082	7	Sololá	719	Santiago Atitlán	14	Cerro de Oro	6	Junio	2023-06-21T00:00:00	2024-11-08T05:00:00	4	Temperatura máxima	17.8
156083	7	Sololá	719	Santiago Atitlán	14	Cerro de Oro	6	Junio	2023-06-21T00:00:00	2024-11-08T05:00:00	3	Temperatura mínima	17.6
156084	7	Sololá	719	Santiago Atitlán	14	Cerro de Oro	6	Junio	2023-06-21T00:00:00	2024-11-08T05:00:00	5	Humedad	92
156085	7	Sololá	719	Santiago Atitlán	14	Cerro de Oro	6	Junio	2023-06-21T00:00:00	2024-11-08T05:00:00	6	Velocidad del viento	3.2
156086	7	Sololá	719	Santiago Atitlán	14	Cerro de Oro	6	Junio	2023-06-21T00:00:00	2024-11-08T05:00:00	7	Dirección del viento	3.22
156087	7	Sololá	719	Santiago Atitlán	14	Cerro de Oro	6	Junio	2023-06-21T00:00:00	2024-11-08T05:00:00	1	Precipitación	0
156088	7	Sololá	719	Santiago Atitlán	14	Cerro de Oro	6	Junio	2023-06-21T00:00:00	2024-11-08T05:00:00	8	Radiación solar	0
156089	7	Sololá	719	Santiago Atitlán	14	Cerro de Oro	6	Junio	2023-06-21T00:00:00	2024-11-08T06:00:00	2	Temperatura media	17.4
156090	7	Sololá	719	Santiago Atitlán	14	Cerro de Oro	6	Junio	2023-06-21T00:00:00	2024-11-08T06:00:00	4	Temperatura máxima	17.8
156091	7	Sololá	719	Santiago Atitlán	14	Cerro de Oro	6	Junio	2023-06-21T00:00:00	2024-11-08T06:00:00	3	Temperatura mínima	17.4
156092	7	Sololá	719	Santiago Atitlán	14	Cerro de Oro	6	Junio	2023-06-21T00:00:00	2024-11-08T06:00:00	5	Humedad	92
156093	7	Sololá	719	Santiago Atitlán	14	Cerro de Oro	6	Junio	2023-06-21T00:00:00	2024-11-08T06:00:00	6	Velocidad del viento	4.8
156094	7	Sololá	719	Santiago Atitlán	14	Cerro de Oro	6	Junio	2023-06-21T00:00:00	2024-11-08T06:00:00	7	Dirección del viento	4.83
156095	7	Sololá	719	Santiago Atitlán	14	Cerro de Oro	6	Junio	2023-06-21T00:00:00	2024-11-08T06:00:00	1	Precipitación	0
156096	7	Sololá	719	Santiago Atitlán	14	Cerro de Oro	6	Junio	2023-06-21T00:00:00	2024-11-08T06:00:00	8	Radiación solar	3
156097	7	Sololá	719	Santiago Atitlán	14	Cerro de Oro	6	Junio	2023-06-21T00:00:00	2024-11-08T07:00:00	2	Temperatura media	18.1
156098	7	Sololá	719	Santiago Atitlán	14	Cerro de Oro	6	Junio	2023-06-21T00:00:00	2024-11-08T07:00:00	4	Temperatura máxima	18.2
156099	7	Sololá	719	Santiago Atitlán	14	Cerro de Oro	6	Junio	2023-06-21T00:00:00	2024-11-08T07:00:00	3	Temperatura mínima	17.4
156100	7	Sololá	719	Santiago Atitlán	14	Cerro de Oro	6	Junio	2023-06-21T00:00:00	2024-11-08T07:00:00	5	Humedad	89
156101	7	Sololá	719	Santiago Atitlán	14	Cerro de Oro	6	Junio	2023-06-21T00:00:00	2024-11-08T07:00:00	6	Velocidad del viento	3.2
156102	7	Sololá	719	Santiago Atitlán	14	Cerro de Oro	6	Junio	2023-06-21T00:00:00	2024-11-08T07:00:00	7	Dirección del viento	3.22
156103	7	Sololá	719	Santiago Atitlán	14	Cerro de Oro	6	Junio	2023-06-21T00:00:00	2024-11-08T07:00:00	1	Precipitación	0
156104	7	Sololá	719	Santiago Atitlán	14	Cerro de Oro	6	Junio	2023-06-21T00:00:00	2024-11-08T07:00:00	8	Radiación solar	57
156105	7	Sololá	719	Santiago Atitlán	14	Cerro de Oro	6	Junio	2023-06-21T00:00:00	2024-11-08T08:00:00	2	Temperatura media	19.3
156106	7	Sololá	719	Santiago Atitlán	14	Cerro de Oro	6	Junio	2023-06-21T00:00:00	2024-11-08T08:00:00	4	Temperatura máxima	19.3
156107	7	Sololá	719	Santiago Atitlán	14	Cerro de Oro	6	Junio	2023-06-21T00:00:00	2024-11-08T08:00:00	3	Temperatura mínima	18.1
156108	7	Sololá	719	Santiago Atitlán	14	Cerro de Oro	6	Junio	2023-06-21T00:00:00	2024-11-08T08:00:00	5	Humedad	87
156109	7	Sololá	719	Santiago Atitlán	14	Cerro de Oro	6	Junio	2023-06-21T00:00:00	2024-11-08T08:00:00	6	Velocidad del viento	4.8
156110	7	Sololá	719	Santiago Atitlán	14	Cerro de Oro	6	Junio	2023-06-21T00:00:00	2024-11-08T08:00:00	7	Dirección del viento	4.83
156111	7	Sololá	719	Santiago Atitlán	14	Cerro de Oro	6	Junio	2023-06-21T00:00:00	2024-11-08T08:00:00	1	Precipitación	0
156112	7	Sololá	719	Santiago Atitlán	14	Cerro de Oro	6	Junio	2023-06-21T00:00:00	2024-11-08T08:00:00	8	Radiación solar	146
156113	7	Sololá	719	Santiago Atitlán	14	Cerro de Oro	6	Junio	2023-06-21T00:00:00	2024-11-08T09:00:00	2	Temperatura media	20.9
156114	7	Sololá	719	Santiago Atitlán	14	Cerro de Oro	6	Junio	2023-06-21T00:00:00	2024-11-08T09:00:00	4	Temperatura máxima	21.1
156115	7	Sololá	719	Santiago Atitlán	14	Cerro de Oro	6	Junio	2023-06-21T00:00:00	2024-11-08T09:00:00	3	Temperatura mínima	19.3
156116	7	Sololá	719	Santiago Atitlán	14	Cerro de Oro	6	Junio	2023-06-21T00:00:00	2024-11-08T09:00:00	5	Humedad	77
156117	7	Sololá	719	Santiago Atitlán	14	Cerro de Oro	6	Junio	2023-06-21T00:00:00	2024-11-08T09:00:00	6	Velocidad del viento	3.2
156118	7	Sololá	719	Santiago Atitlán	14	Cerro de Oro	6	Junio	2023-06-21T00:00:00	2024-11-08T09:00:00	7	Dirección del viento	3.22
156119	7	Sololá	719	Santiago Atitlán	14	Cerro de Oro	6	Junio	2023-06-21T00:00:00	2024-11-08T09:00:00	1	Precipitación	0
156120	7	Sololá	719	Santiago Atitlán	14	Cerro de Oro	6	Junio	2023-06-21T00:00:00	2024-11-08T09:00:00	8	Radiación solar	522
156121	7	Sololá	719	Santiago Atitlán	14	Cerro de Oro	6	Junio	2023-06-21T00:00:00	2024-11-08T10:00:00	2	Temperatura media	21.6
156122	7	Sololá	719	Santiago Atitlán	14	Cerro de Oro	6	Junio	2023-06-21T00:00:00	2024-11-08T10:00:00	4	Temperatura máxima	22
156123	7	Sololá	719	Santiago Atitlán	14	Cerro de Oro	6	Junio	2023-06-21T00:00:00	2024-11-08T10:00:00	3	Temperatura mínima	20.9
156124	7	Sololá	719	Santiago Atitlán	14	Cerro de Oro	6	Junio	2023-06-21T00:00:00	2024-11-08T10:00:00	5	Humedad	81
156125	7	Sololá	719	Santiago Atitlán	14	Cerro de Oro	6	Junio	2023-06-21T00:00:00	2024-11-08T10:00:00	6	Velocidad del viento	6.4
156126	7	Sololá	719	Santiago Atitlán	14	Cerro de Oro	6	Junio	2023-06-21T00:00:00	2024-11-08T10:00:00	7	Dirección del viento	6.44
156127	7	Sololá	719	Santiago Atitlán	14	Cerro de Oro	6	Junio	2023-06-21T00:00:00	2024-11-08T10:00:00	1	Precipitación	0
156128	7	Sololá	719	Santiago Atitlán	14	Cerro de Oro	6	Junio	2023-06-21T00:00:00	2024-11-08T10:00:00	8	Radiación solar	714
156129	7	Sololá	719	Santiago Atitlán	14	Cerro de Oro	6	Junio	2023-06-21T00:00:00	2024-11-08T11:00:00	2	Temperatura media	22.5
156130	7	Sololá	719	Santiago Atitlán	14	Cerro de Oro	6	Junio	2023-06-21T00:00:00	2024-11-08T11:00:00	4	Temperatura máxima	22.6
156131	7	Sololá	719	Santiago Atitlán	14	Cerro de Oro	6	Junio	2023-06-21T00:00:00	2024-11-08T11:00:00	3	Temperatura mínima	21.4
156132	7	Sololá	719	Santiago Atitlán	14	Cerro de Oro	6	Junio	2023-06-21T00:00:00	2024-11-08T11:00:00	5	Humedad	75
156133	7	Sololá	719	Santiago Atitlán	14	Cerro de Oro	6	Junio	2023-06-21T00:00:00	2024-11-08T11:00:00	6	Velocidad del viento	6.4
156134	7	Sololá	719	Santiago Atitlán	14	Cerro de Oro	6	Junio	2023-06-21T00:00:00	2024-11-08T11:00:00	7	Dirección del viento	6.44
156135	7	Sololá	719	Santiago Atitlán	14	Cerro de Oro	6	Junio	2023-06-21T00:00:00	2024-11-08T11:00:00	1	Precipitación	0
156136	7	Sololá	719	Santiago Atitlán	14	Cerro de Oro	6	Junio	2023-06-21T00:00:00	2024-11-08T11:00:00	8	Radiación solar	592
156137	7	Sololá	719	Santiago Atitlán	14	Cerro de Oro	6	Junio	2023-06-21T00:00:00	2024-11-08T12:00:00	2	Temperatura media	23.1
156138	7	Sololá	719	Santiago Atitlán	14	Cerro de Oro	6	Junio	2023-06-21T00:00:00	2024-11-08T12:00:00	4	Temperatura máxima	23.1
156139	7	Sololá	719	Santiago Atitlán	14	Cerro de Oro	6	Junio	2023-06-21T00:00:00	2024-11-08T12:00:00	3	Temperatura mínima	22.1
156140	7	Sololá	719	Santiago Atitlán	14	Cerro de Oro	6	Junio	2023-06-21T00:00:00	2024-11-08T12:00:00	5	Humedad	76
156141	7	Sololá	719	Santiago Atitlán	14	Cerro de Oro	6	Junio	2023-06-21T00:00:00	2024-11-08T12:00:00	6	Velocidad del viento	4.8
156142	7	Sololá	719	Santiago Atitlán	14	Cerro de Oro	6	Junio	2023-06-21T00:00:00	2024-11-08T12:00:00	7	Dirección del viento	4.83
156143	7	Sololá	719	Santiago Atitlán	14	Cerro de Oro	6	Junio	2023-06-21T00:00:00	2024-11-08T12:00:00	1	Precipitación	0
156144	7	Sololá	719	Santiago Atitlán	14	Cerro de Oro	6	Junio	2023-06-21T00:00:00	2024-11-08T12:00:00	8	Radiación solar	719
156145	7	Sololá	719	Santiago Atitlán	14	Cerro de Oro	6	Junio	2023-06-21T00:00:00	2024-11-08T13:00:00	2	Temperatura media	22.2
156146	7	Sololá	719	Santiago Atitlán	14	Cerro de Oro	6	Junio	2023-06-21T00:00:00	2024-11-08T13:00:00	4	Temperatura máxima	23.2
156147	7	Sololá	719	Santiago Atitlán	14	Cerro de Oro	6	Junio	2023-06-21T00:00:00	2024-11-08T13:00:00	3	Temperatura mínima	22.2
156148	7	Sololá	719	Santiago Atitlán	14	Cerro de Oro	6	Junio	2023-06-21T00:00:00	2024-11-08T13:00:00	5	Humedad	78
156149	7	Sololá	719	Santiago Atitlán	14	Cerro de Oro	6	Junio	2023-06-21T00:00:00	2024-11-08T13:00:00	6	Velocidad del viento	4.8
156150	7	Sololá	719	Santiago Atitlán	14	Cerro de Oro	6	Junio	2023-06-21T00:00:00	2024-11-08T13:00:00	7	Dirección del viento	4.83
156151	7	Sololá	719	Santiago Atitlán	14	Cerro de Oro	6	Junio	2023-06-21T00:00:00	2024-11-08T13:00:00	1	Precipitación	0
156152	7	Sololá	719	Santiago Atitlán	14	Cerro de Oro	6	Junio	2023-06-21T00:00:00	2024-11-08T13:00:00	8	Radiación solar	465
156153	7	Sololá	719	Santiago Atitlán	14	Cerro de Oro	6	Junio	2023-06-21T00:00:00	2024-11-08T14:00:00	2	Temperatura media	22.2
156154	7	Sololá	719	Santiago Atitlán	14	Cerro de Oro	6	Junio	2023-06-21T00:00:00	2024-11-08T14:00:00	4	Temperatura máxima	22.3
156155	7	Sololá	719	Santiago Atitlán	14	Cerro de Oro	6	Junio	2023-06-21T00:00:00	2024-11-08T14:00:00	3	Temperatura mínima	21.8
156156	7	Sololá	719	Santiago Atitlán	14	Cerro de Oro	6	Junio	2023-06-21T00:00:00	2024-11-08T14:00:00	5	Humedad	82
156157	7	Sololá	719	Santiago Atitlán	14	Cerro de Oro	6	Junio	2023-06-21T00:00:00	2024-11-08T14:00:00	6	Velocidad del viento	8
156158	7	Sololá	719	Santiago Atitlán	14	Cerro de Oro	6	Junio	2023-06-21T00:00:00	2024-11-08T14:00:00	7	Dirección del viento	8.05
156159	7	Sololá	719	Santiago Atitlán	14	Cerro de Oro	6	Junio	2023-06-21T00:00:00	2024-11-08T14:00:00	1	Precipitación	0
156160	7	Sololá	719	Santiago Atitlán	14	Cerro de Oro	6	Junio	2023-06-21T00:00:00	2024-11-08T14:00:00	8	Radiación solar	323
156161	7	Sololá	719	Santiago Atitlán	14	Cerro de Oro	6	Junio	2023-06-21T00:00:00	2024-11-08T15:00:00	2	Temperatura media	21.1
156162	7	Sololá	719	Santiago Atitlán	14	Cerro de Oro	6	Junio	2023-06-21T00:00:00	2024-11-08T15:00:00	4	Temperatura máxima	22.2
156163	7	Sololá	719	Santiago Atitlán	14	Cerro de Oro	6	Junio	2023-06-21T00:00:00	2024-11-08T15:00:00	3	Temperatura mínima	21.1
156164	7	Sololá	719	Santiago Atitlán	14	Cerro de Oro	6	Junio	2023-06-21T00:00:00	2024-11-08T15:00:00	5	Humedad	85
156165	7	Sololá	719	Santiago Atitlán	14	Cerro de Oro	6	Junio	2023-06-21T00:00:00	2024-11-08T15:00:00	6	Velocidad del viento	9.7
156166	7	Sololá	719	Santiago Atitlán	14	Cerro de Oro	6	Junio	2023-06-21T00:00:00	2024-11-08T15:00:00	7	Dirección del viento	9.66
156167	7	Sololá	719	Santiago Atitlán	14	Cerro de Oro	6	Junio	2023-06-21T00:00:00	2024-11-08T15:00:00	1	Precipitación	0
156168	7	Sololá	719	Santiago Atitlán	14	Cerro de Oro	6	Junio	2023-06-21T00:00:00	2024-11-08T15:00:00	8	Radiación solar	205
156169	7	Sololá	719	Santiago Atitlán	14	Cerro de Oro	6	Junio	2023-06-21T00:00:00	2024-11-08T16:00:00	2	Temperatura media	19.1
156170	7	Sololá	719	Santiago Atitlán	14	Cerro de Oro	6	Junio	2023-06-21T00:00:00	2024-11-08T16:00:00	4	Temperatura máxima	21.1
156171	7	Sololá	719	Santiago Atitlán	14	Cerro de Oro	6	Junio	2023-06-21T00:00:00	2024-11-08T16:00:00	3	Temperatura mínima	19.1
156172	7	Sololá	719	Santiago Atitlán	14	Cerro de Oro	6	Junio	2023-06-21T00:00:00	2024-11-08T16:00:00	5	Humedad	91
156173	7	Sololá	719	Santiago Atitlán	14	Cerro de Oro	6	Junio	2023-06-21T00:00:00	2024-11-08T16:00:00	6	Velocidad del viento	6.4
156174	7	Sololá	719	Santiago Atitlán	14	Cerro de Oro	6	Junio	2023-06-21T00:00:00	2024-11-08T16:00:00	7	Dirección del viento	6.44
156175	7	Sololá	719	Santiago Atitlán	14	Cerro de Oro	6	Junio	2023-06-21T00:00:00	2024-11-08T16:00:00	1	Precipitación	8.2
156176	7	Sololá	719	Santiago Atitlán	14	Cerro de Oro	6	Junio	2023-06-21T00:00:00	2024-11-08T16:00:00	8	Radiación solar	42
156177	7	Sololá	719	Santiago Atitlán	14	Cerro de Oro	6	Junio	2023-06-21T00:00:00	2024-11-08T17:00:00	2	Temperatura media	19.2
156178	7	Sololá	719	Santiago Atitlán	14	Cerro de Oro	6	Junio	2023-06-21T00:00:00	2024-11-08T17:00:00	4	Temperatura máxima	19.2
156179	7	Sololá	719	Santiago Atitlán	14	Cerro de Oro	6	Junio	2023-06-21T00:00:00	2024-11-08T17:00:00	3	Temperatura mínima	18.9
156180	7	Sololá	719	Santiago Atitlán	14	Cerro de Oro	6	Junio	2023-06-21T00:00:00	2024-11-08T17:00:00	5	Humedad	88
156181	7	Sololá	719	Santiago Atitlán	14	Cerro de Oro	6	Junio	2023-06-21T00:00:00	2024-11-08T17:00:00	6	Velocidad del viento	6.4
156182	7	Sololá	719	Santiago Atitlán	14	Cerro de Oro	6	Junio	2023-06-21T00:00:00	2024-11-08T17:00:00	7	Dirección del viento	6.44
156183	7	Sololá	719	Santiago Atitlán	14	Cerro de Oro	6	Junio	2023-06-21T00:00:00	2024-11-08T17:00:00	1	Precipitación	1.8
156184	7	Sololá	719	Santiago Atitlán	14	Cerro de Oro	6	Junio	2023-06-21T00:00:00	2024-11-08T17:00:00	8	Radiación solar	53
156185	7	Sololá	719	Santiago Atitlán	14	Cerro de Oro	6	Junio	2023-06-21T00:00:00	2024-11-08T18:00:00	2	Temperatura media	19.1
156186	7	Sololá	719	Santiago Atitlán	14	Cerro de Oro	6	Junio	2023-06-21T00:00:00	2024-11-08T18:00:00	4	Temperatura máxima	19.3
156187	7	Sololá	719	Santiago Atitlán	14	Cerro de Oro	6	Junio	2023-06-21T00:00:00	2024-11-08T18:00:00	3	Temperatura mínima	19
156188	7	Sololá	719	Santiago Atitlán	14	Cerro de Oro	6	Junio	2023-06-21T00:00:00	2024-11-08T18:00:00	5	Humedad	88
156189	7	Sololá	719	Santiago Atitlán	14	Cerro de Oro	6	Junio	2023-06-21T00:00:00	2024-11-08T18:00:00	6	Velocidad del viento	1.6
156190	7	Sololá	719	Santiago Atitlán	14	Cerro de Oro	6	Junio	2023-06-21T00:00:00	2024-11-08T18:00:00	7	Dirección del viento	1.61
156191	7	Sololá	719	Santiago Atitlán	14	Cerro de Oro	6	Junio	2023-06-21T00:00:00	2024-11-08T18:00:00	1	Precipitación	0.2
156192	7	Sololá	719	Santiago Atitlán	14	Cerro de Oro	6	Junio	2023-06-21T00:00:00	2024-11-08T18:00:00	8	Radiación solar	30
156193	7	Sololá	719	Santiago Atitlán	14	Cerro de Oro	6	Junio	2023-06-21T00:00:00	2024-11-08T19:00:00	2	Temperatura media	18.2
156194	7	Sololá	719	Santiago Atitlán	14	Cerro de Oro	6	Junio	2023-06-21T00:00:00	2024-11-08T19:00:00	4	Temperatura máxima	19.2
156195	7	Sololá	719	Santiago Atitlán	14	Cerro de Oro	6	Junio	2023-06-21T00:00:00	2024-11-08T19:00:00	3	Temperatura mínima	18.2
156196	7	Sololá	719	Santiago Atitlán	14	Cerro de Oro	6	Junio	2023-06-21T00:00:00	2024-11-08T19:00:00	5	Humedad	91
156197	7	Sololá	719	Santiago Atitlán	14	Cerro de Oro	6	Junio	2023-06-21T00:00:00	2024-11-08T19:00:00	6	Velocidad del viento	4.8
156198	7	Sololá	719	Santiago Atitlán	14	Cerro de Oro	6	Junio	2023-06-21T00:00:00	2024-11-08T19:00:00	7	Dirección del viento	4.83
156199	7	Sololá	719	Santiago Atitlán	14	Cerro de Oro	6	Junio	2023-06-21T00:00:00	2024-11-08T19:00:00	1	Precipitación	0
156200	7	Sololá	719	Santiago Atitlán	14	Cerro de Oro	6	Junio	2023-06-21T00:00:00	2024-11-08T19:00:00	8	Radiación solar	0
156201	7	Sololá	719	Santiago Atitlán	14	Cerro de Oro	6	Junio	2023-06-21T00:00:00	2024-11-08T20:00:00	2	Temperatura media	17.8
156202	7	Sololá	719	Santiago Atitlán	14	Cerro de Oro	6	Junio	2023-06-21T00:00:00	2024-11-08T20:00:00	4	Temperatura máxima	18.2
156203	7	Sololá	719	Santiago Atitlán	14	Cerro de Oro	6	Junio	2023-06-21T00:00:00	2024-11-08T20:00:00	3	Temperatura mínima	17.8
156204	7	Sololá	719	Santiago Atitlán	14	Cerro de Oro	6	Junio	2023-06-21T00:00:00	2024-11-08T20:00:00	5	Humedad	91
156205	7	Sololá	719	Santiago Atitlán	14	Cerro de Oro	6	Junio	2023-06-21T00:00:00	2024-11-08T20:00:00	6	Velocidad del viento	4.8
156206	7	Sololá	719	Santiago Atitlán	14	Cerro de Oro	6	Junio	2023-06-21T00:00:00	2024-11-08T20:00:00	7	Dirección del viento	4.83
156207	7	Sololá	719	Santiago Atitlán	14	Cerro de Oro	6	Junio	2023-06-21T00:00:00	2024-11-08T20:00:00	1	Precipitación	0
156208	7	Sololá	719	Santiago Atitlán	14	Cerro de Oro	6	Junio	2023-06-21T00:00:00	2024-11-08T20:00:00	8	Radiación solar	0
156209	7	Sololá	719	Santiago Atitlán	14	Cerro de Oro	6	Junio	2023-06-21T00:00:00	2024-11-08T21:00:00	2	Temperatura media	18.6
156210	7	Sololá	719	Santiago Atitlán	14	Cerro de Oro	6	Junio	2023-06-21T00:00:00	2024-11-08T21:00:00	4	Temperatura máxima	18.6
156211	7	Sololá	719	Santiago Atitlán	14	Cerro de Oro	6	Junio	2023-06-21T00:00:00	2024-11-08T21:00:00	3	Temperatura mínima	17.8
156212	7	Sololá	719	Santiago Atitlán	14	Cerro de Oro	6	Junio	2023-06-21T00:00:00	2024-11-08T21:00:00	5	Humedad	90
156213	7	Sololá	719	Santiago Atitlán	14	Cerro de Oro	6	Junio	2023-06-21T00:00:00	2024-11-08T21:00:00	6	Velocidad del viento	3.2
156214	7	Sololá	719	Santiago Atitlán	14	Cerro de Oro	6	Junio	2023-06-21T00:00:00	2024-11-08T21:00:00	7	Dirección del viento	3.22
156215	7	Sololá	719	Santiago Atitlán	14	Cerro de Oro	6	Junio	2023-06-21T00:00:00	2024-11-08T21:00:00	1	Precipitación	0
156216	7	Sololá	719	Santiago Atitlán	14	Cerro de Oro	6	Junio	2023-06-21T00:00:00	2024-11-08T21:00:00	8	Radiación solar	0
156217	7	Sololá	719	Santiago Atitlán	14	Cerro de Oro	6	Junio	2023-06-21T00:00:00	2024-11-08T22:00:00	2	Temperatura media	18.6
156218	7	Sololá	719	Santiago Atitlán	14	Cerro de Oro	6	Junio	2023-06-21T00:00:00	2024-11-08T22:00:00	4	Temperatura máxima	18.9
156219	7	Sololá	719	Santiago Atitlán	14	Cerro de Oro	6	Junio	2023-06-21T00:00:00	2024-11-08T22:00:00	3	Temperatura mínima	18.6
156220	7	Sololá	719	Santiago Atitlán	14	Cerro de Oro	6	Junio	2023-06-21T00:00:00	2024-11-08T22:00:00	5	Humedad	90
156221	7	Sololá	719	Santiago Atitlán	14	Cerro de Oro	6	Junio	2023-06-21T00:00:00	2024-11-08T22:00:00	6	Velocidad del viento	4.8
156222	7	Sololá	719	Santiago Atitlán	14	Cerro de Oro	6	Junio	2023-06-21T00:00:00	2024-11-08T22:00:00	7	Dirección del viento	4.83
156223	7	Sololá	719	Santiago Atitlán	14	Cerro de Oro	6	Junio	2023-06-21T00:00:00	2024-11-08T22:00:00	1	Precipitación	0
156224	7	Sololá	719	Santiago Atitlán	14	Cerro de Oro	6	Junio	2023-06-21T00:00:00	2024-11-08T22:00:00	8	Radiación solar	0
156225	7	Sololá	719	Santiago Atitlán	14	Cerro de Oro	6	Junio	2023-06-21T00:00:00	2024-11-08T23:00:00	2	Temperatura media	19
156226	7	Sololá	719	Santiago Atitlán	14	Cerro de Oro	6	Junio	2023-06-21T00:00:00	2024-11-08T23:00:00	4	Temperatura máxima	19.2
156227	7	Sololá	719	Santiago Atitlán	14	Cerro de Oro	6	Junio	2023-06-21T00:00:00	2024-11-08T23:00:00	3	Temperatura mínima	18.4
156228	7	Sololá	719	Santiago Atitlán	14	Cerro de Oro	6	Junio	2023-06-21T00:00:00	2024-11-08T23:00:00	5	Humedad	86
156229	7	Sololá	719	Santiago Atitlán	14	Cerro de Oro	6	Junio	2023-06-21T00:00:00	2024-11-08T23:00:00	6	Velocidad del viento	3.2
156230	7	Sololá	719	Santiago Atitlán	14	Cerro de Oro	6	Junio	2023-06-21T00:00:00	2024-11-08T23:00:00	7	Dirección del viento	3.22
156231	7	Sololá	719	Santiago Atitlán	14	Cerro de Oro	6	Junio	2023-06-21T00:00:00	2024-11-08T23:00:00	1	Precipitación	0
156232	7	Sololá	719	Santiago Atitlán	14	Cerro de Oro	6	Junio	2023-06-21T00:00:00	2024-11-08T23:00:00	8	Radiación solar	0
156233	7	Sololá	719	Santiago Atitlán	14	Cerro de Oro	6	Junio	2023-06-22T00:00:00	2024-11-08T00:00:00	2	Temperatura media	18.8
156234	7	Sololá	719	Santiago Atitlán	14	Cerro de Oro	6	Junio	2023-06-22T00:00:00	2024-11-08T00:00:00	4	Temperatura máxima	19.1
156235	7	Sololá	719	Santiago Atitlán	14	Cerro de Oro	6	Junio	2023-06-22T00:00:00	2024-11-08T00:00:00	3	Temperatura mínima	18.8
156236	7	Sololá	719	Santiago Atitlán	14	Cerro de Oro	6	Junio	2023-06-22T00:00:00	2024-11-08T00:00:00	5	Humedad	86
156237	7	Sololá	719	Santiago Atitlán	14	Cerro de Oro	6	Junio	2023-06-22T00:00:00	2024-11-08T00:00:00	6	Velocidad del viento	4.8
156238	7	Sololá	719	Santiago Atitlán	14	Cerro de Oro	6	Junio	2023-06-22T00:00:00	2024-11-08T00:00:00	7	Dirección del viento	4.83
156239	7	Sololá	719	Santiago Atitlán	14	Cerro de Oro	6	Junio	2023-06-22T00:00:00	2024-11-08T00:00:00	1	Precipitación	0.4
156240	7	Sololá	719	Santiago Atitlán	14	Cerro de Oro	6	Junio	2023-06-22T00:00:00	2024-11-08T00:00:00	8	Radiación solar	0
156241	7	Sololá	719	Santiago Atitlán	14	Cerro de Oro	6	Junio	2023-06-22T00:00:00	2024-11-08T01:00:00	2	Temperatura media	18.1
156242	7	Sololá	719	Santiago Atitlán	14	Cerro de Oro	6	Junio	2023-06-22T00:00:00	2024-11-08T01:00:00	4	Temperatura máxima	18.9
156243	7	Sololá	719	Santiago Atitlán	14	Cerro de Oro	6	Junio	2023-06-22T00:00:00	2024-11-08T01:00:00	3	Temperatura mínima	18.1
156244	7	Sololá	719	Santiago Atitlán	14	Cerro de Oro	6	Junio	2023-06-22T00:00:00	2024-11-08T01:00:00	5	Humedad	89
156245	7	Sololá	719	Santiago Atitlán	14	Cerro de Oro	6	Junio	2023-06-22T00:00:00	2024-11-08T01:00:00	6	Velocidad del viento	1.6
156246	7	Sololá	719	Santiago Atitlán	14	Cerro de Oro	6	Junio	2023-06-22T00:00:00	2024-11-08T01:00:00	7	Dirección del viento	1.61
156247	7	Sololá	719	Santiago Atitlán	14	Cerro de Oro	6	Junio	2023-06-22T00:00:00	2024-11-08T01:00:00	1	Precipitación	0
156248	7	Sololá	719	Santiago Atitlán	14	Cerro de Oro	6	Junio	2023-06-22T00:00:00	2024-11-08T01:00:00	8	Radiación solar	0
156249	7	Sololá	719	Santiago Atitlán	14	Cerro de Oro	6	Junio	2023-06-22T00:00:00	2024-11-08T02:00:00	2	Temperatura media	17.6
156250	7	Sololá	719	Santiago Atitlán	14	Cerro de Oro	6	Junio	2023-06-22T00:00:00	2024-11-08T02:00:00	4	Temperatura máxima	18.2
156251	7	Sololá	719	Santiago Atitlán	14	Cerro de Oro	6	Junio	2023-06-22T00:00:00	2024-11-08T02:00:00	3	Temperatura mínima	17.6
156252	7	Sololá	719	Santiago Atitlán	14	Cerro de Oro	6	Junio	2023-06-22T00:00:00	2024-11-08T02:00:00	5	Humedad	91
156253	7	Sololá	719	Santiago Atitlán	14	Cerro de Oro	6	Junio	2023-06-22T00:00:00	2024-11-08T02:00:00	6	Velocidad del viento	3.2
156254	7	Sololá	719	Santiago Atitlán	14	Cerro de Oro	6	Junio	2023-06-22T00:00:00	2024-11-08T02:00:00	7	Dirección del viento	3.22
156255	7	Sololá	719	Santiago Atitlán	14	Cerro de Oro	6	Junio	2023-06-22T00:00:00	2024-11-08T02:00:00	1	Precipitación	0.2
156256	7	Sololá	719	Santiago Atitlán	14	Cerro de Oro	6	Junio	2023-06-22T00:00:00	2024-11-08T02:00:00	8	Radiación solar	0
156257	7	Sololá	719	Santiago Atitlán	14	Cerro de Oro	6	Junio	2023-06-22T00:00:00	2024-11-08T03:00:00	2	Temperatura media	17.3
156258	7	Sololá	719	Santiago Atitlán	14	Cerro de Oro	6	Junio	2023-06-22T00:00:00	2024-11-08T03:00:00	4	Temperatura máxima	17.6
156259	7	Sololá	719	Santiago Atitlán	14	Cerro de Oro	6	Junio	2023-06-22T00:00:00	2024-11-08T03:00:00	3	Temperatura mínima	17.3
156260	7	Sololá	719	Santiago Atitlán	14	Cerro de Oro	6	Junio	2023-06-22T00:00:00	2024-11-08T03:00:00	5	Humedad	90
156261	7	Sololá	719	Santiago Atitlán	14	Cerro de Oro	6	Junio	2023-06-22T00:00:00	2024-11-08T03:00:00	6	Velocidad del viento	4.8
156262	7	Sololá	719	Santiago Atitlán	14	Cerro de Oro	6	Junio	2023-06-22T00:00:00	2024-11-08T03:00:00	7	Dirección del viento	4.83
156263	7	Sololá	719	Santiago Atitlán	14	Cerro de Oro	6	Junio	2023-06-22T00:00:00	2024-11-08T03:00:00	1	Precipitación	0.6
156264	7	Sololá	719	Santiago Atitlán	14	Cerro de Oro	6	Junio	2023-06-22T00:00:00	2024-11-08T03:00:00	8	Radiación solar	0
156265	7	Sololá	719	Santiago Atitlán	14	Cerro de Oro	6	Junio	2023-06-22T00:00:00	2024-11-08T04:00:00	2	Temperatura media	17.7
156266	7	Sololá	719	Santiago Atitlán	14	Cerro de Oro	6	Junio	2023-06-22T00:00:00	2024-11-08T04:00:00	4	Temperatura máxima	18.1
156267	7	Sololá	719	Santiago Atitlán	14	Cerro de Oro	6	Junio	2023-06-22T00:00:00	2024-11-08T04:00:00	3	Temperatura mínima	17.3
156268	7	Sololá	719	Santiago Atitlán	14	Cerro de Oro	6	Junio	2023-06-22T00:00:00	2024-11-08T04:00:00	5	Humedad	86
156269	7	Sololá	719	Santiago Atitlán	14	Cerro de Oro	6	Junio	2023-06-22T00:00:00	2024-11-08T04:00:00	6	Velocidad del viento	4.8
156270	7	Sololá	719	Santiago Atitlán	14	Cerro de Oro	6	Junio	2023-06-22T00:00:00	2024-11-08T04:00:00	7	Dirección del viento	4.83
156271	7	Sololá	719	Santiago Atitlán	14	Cerro de Oro	6	Junio	2023-06-22T00:00:00	2024-11-08T04:00:00	1	Precipitación	0
156272	7	Sololá	719	Santiago Atitlán	14	Cerro de Oro	6	Junio	2023-06-22T00:00:00	2024-11-08T04:00:00	8	Radiación solar	0
156273	7	Sololá	719	Santiago Atitlán	14	Cerro de Oro	6	Junio	2023-06-22T00:00:00	2024-11-08T05:00:00	2	Temperatura media	17.9
156274	7	Sololá	719	Santiago Atitlán	14	Cerro de Oro	6	Junio	2023-06-22T00:00:00	2024-11-08T05:00:00	4	Temperatura máxima	17.9
156275	7	Sololá	719	Santiago Atitlán	14	Cerro de Oro	6	Junio	2023-06-22T00:00:00	2024-11-08T05:00:00	3	Temperatura mínima	17.2
156276	7	Sololá	719	Santiago Atitlán	14	Cerro de Oro	6	Junio	2023-06-22T00:00:00	2024-11-08T05:00:00	5	Humedad	86
156277	7	Sololá	719	Santiago Atitlán	14	Cerro de Oro	6	Junio	2023-06-22T00:00:00	2024-11-08T05:00:00	6	Velocidad del viento	4.8
156278	7	Sololá	719	Santiago Atitlán	14	Cerro de Oro	6	Junio	2023-06-22T00:00:00	2024-11-08T05:00:00	7	Dirección del viento	4.83
156279	7	Sololá	719	Santiago Atitlán	14	Cerro de Oro	6	Junio	2023-06-22T00:00:00	2024-11-08T05:00:00	1	Precipitación	0
156280	7	Sololá	719	Santiago Atitlán	14	Cerro de Oro	6	Junio	2023-06-22T00:00:00	2024-11-08T05:00:00	8	Radiación solar	0
156281	7	Sololá	719	Santiago Atitlán	14	Cerro de Oro	6	Junio	2023-06-22T00:00:00	2024-11-08T06:00:00	2	Temperatura media	17.7
156282	7	Sololá	719	Santiago Atitlán	14	Cerro de Oro	6	Junio	2023-06-22T00:00:00	2024-11-08T06:00:00	4	Temperatura máxima	18.2
156283	7	Sololá	719	Santiago Atitlán	14	Cerro de Oro	6	Junio	2023-06-22T00:00:00	2024-11-08T06:00:00	3	Temperatura mínima	17.6
156284	7	Sololá	719	Santiago Atitlán	14	Cerro de Oro	6	Junio	2023-06-22T00:00:00	2024-11-08T06:00:00	5	Humedad	86
156285	7	Sololá	719	Santiago Atitlán	14	Cerro de Oro	6	Junio	2023-06-22T00:00:00	2024-11-08T06:00:00	6	Velocidad del viento	4.8
156286	7	Sololá	719	Santiago Atitlán	14	Cerro de Oro	6	Junio	2023-06-22T00:00:00	2024-11-08T06:00:00	7	Dirección del viento	4.83
156287	7	Sololá	719	Santiago Atitlán	14	Cerro de Oro	6	Junio	2023-06-22T00:00:00	2024-11-08T06:00:00	1	Precipitación	0
156288	7	Sololá	719	Santiago Atitlán	14	Cerro de Oro	6	Junio	2023-06-22T00:00:00	2024-11-08T06:00:00	8	Radiación solar	2
156289	7	Sololá	719	Santiago Atitlán	14	Cerro de Oro	6	Junio	2023-06-22T00:00:00	2024-11-08T07:00:00	2	Temperatura media	18.2
156290	7	Sololá	719	Santiago Atitlán	14	Cerro de Oro	6	Junio	2023-06-22T00:00:00	2024-11-08T07:00:00	4	Temperatura máxima	18.3
156291	7	Sololá	719	Santiago Atitlán	14	Cerro de Oro	6	Junio	2023-06-22T00:00:00	2024-11-08T07:00:00	3	Temperatura mínima	17.7
156292	7	Sololá	719	Santiago Atitlán	14	Cerro de Oro	6	Junio	2023-06-22T00:00:00	2024-11-08T07:00:00	5	Humedad	87
156293	7	Sololá	719	Santiago Atitlán	14	Cerro de Oro	6	Junio	2023-06-22T00:00:00	2024-11-08T07:00:00	6	Velocidad del viento	3.2
156294	7	Sololá	719	Santiago Atitlán	14	Cerro de Oro	6	Junio	2023-06-22T00:00:00	2024-11-08T07:00:00	7	Dirección del viento	3.22
156295	7	Sololá	719	Santiago Atitlán	14	Cerro de Oro	6	Junio	2023-06-22T00:00:00	2024-11-08T07:00:00	1	Precipitación	0
156296	7	Sololá	719	Santiago Atitlán	14	Cerro de Oro	6	Junio	2023-06-22T00:00:00	2024-11-08T07:00:00	8	Radiación solar	49
156297	7	Sololá	719	Santiago Atitlán	14	Cerro de Oro	6	Junio	2023-06-22T00:00:00	2024-11-08T08:00:00	2	Temperatura media	20.9
156298	7	Sololá	719	Santiago Atitlán	14	Cerro de Oro	6	Junio	2023-06-22T00:00:00	2024-11-08T08:00:00	4	Temperatura máxima	20.9
156299	7	Sololá	719	Santiago Atitlán	14	Cerro de Oro	6	Junio	2023-06-22T00:00:00	2024-11-08T08:00:00	3	Temperatura mínima	18.2
156300	7	Sololá	719	Santiago Atitlán	14	Cerro de Oro	6	Junio	2023-06-22T00:00:00	2024-11-08T08:00:00	5	Humedad	77
156301	7	Sololá	719	Santiago Atitlán	14	Cerro de Oro	6	Junio	2023-06-22T00:00:00	2024-11-08T08:00:00	6	Velocidad del viento	3.2
156302	7	Sololá	719	Santiago Atitlán	14	Cerro de Oro	6	Junio	2023-06-22T00:00:00	2024-11-08T08:00:00	7	Dirección del viento	3.22
156303	7	Sololá	719	Santiago Atitlán	14	Cerro de Oro	6	Junio	2023-06-22T00:00:00	2024-11-08T08:00:00	1	Precipitación	0
156304	7	Sololá	719	Santiago Atitlán	14	Cerro de Oro	6	Junio	2023-06-22T00:00:00	2024-11-08T08:00:00	8	Radiación solar	227
156305	7	Sololá	719	Santiago Atitlán	14	Cerro de Oro	6	Junio	2023-06-22T00:00:00	2024-11-08T09:00:00	2	Temperatura media	21.7
156306	7	Sololá	719	Santiago Atitlán	14	Cerro de Oro	6	Junio	2023-06-22T00:00:00	2024-11-08T09:00:00	4	Temperatura máxima	21.8
156307	7	Sololá	719	Santiago Atitlán	14	Cerro de Oro	6	Junio	2023-06-22T00:00:00	2024-11-08T09:00:00	3	Temperatura mínima	20.9
156308	7	Sololá	719	Santiago Atitlán	14	Cerro de Oro	6	Junio	2023-06-22T00:00:00	2024-11-08T09:00:00	5	Humedad	77
156309	7	Sololá	719	Santiago Atitlán	14	Cerro de Oro	6	Junio	2023-06-22T00:00:00	2024-11-08T09:00:00	6	Velocidad del viento	4.8
156310	7	Sololá	719	Santiago Atitlán	14	Cerro de Oro	6	Junio	2023-06-22T00:00:00	2024-11-08T09:00:00	7	Dirección del viento	4.83
156311	7	Sololá	719	Santiago Atitlán	14	Cerro de Oro	6	Junio	2023-06-22T00:00:00	2024-11-08T09:00:00	1	Precipitación	0
156312	7	Sololá	719	Santiago Atitlán	14	Cerro de Oro	6	Junio	2023-06-22T00:00:00	2024-11-08T09:00:00	8	Radiación solar	616
156313	7	Sololá	719	Santiago Atitlán	14	Cerro de Oro	6	Junio	2023-06-22T00:00:00	2024-11-08T10:00:00	2	Temperatura media	22
156314	7	Sololá	719	Santiago Atitlán	14	Cerro de Oro	6	Junio	2023-06-22T00:00:00	2024-11-08T10:00:00	4	Temperatura máxima	22.2
156315	7	Sololá	719	Santiago Atitlán	14	Cerro de Oro	6	Junio	2023-06-22T00:00:00	2024-11-08T10:00:00	3	Temperatura mínima	21.5
156316	7	Sololá	719	Santiago Atitlán	14	Cerro de Oro	6	Junio	2023-06-22T00:00:00	2024-11-08T10:00:00	5	Humedad	78
156317	7	Sololá	719	Santiago Atitlán	14	Cerro de Oro	6	Junio	2023-06-22T00:00:00	2024-11-08T10:00:00	6	Velocidad del viento	4.8
156318	7	Sololá	719	Santiago Atitlán	14	Cerro de Oro	6	Junio	2023-06-22T00:00:00	2024-11-08T10:00:00	7	Dirección del viento	4.83
156319	7	Sololá	719	Santiago Atitlán	14	Cerro de Oro	6	Junio	2023-06-22T00:00:00	2024-11-08T10:00:00	1	Precipitación	0
156320	7	Sololá	719	Santiago Atitlán	14	Cerro de Oro	6	Junio	2023-06-22T00:00:00	2024-11-08T10:00:00	8	Radiación solar	710
156321	7	Sololá	719	Santiago Atitlán	14	Cerro de Oro	6	Junio	2023-06-22T00:00:00	2024-11-08T11:00:00	2	Temperatura media	22.2
156322	7	Sololá	719	Santiago Atitlán	14	Cerro de Oro	6	Junio	2023-06-22T00:00:00	2024-11-08T11:00:00	4	Temperatura máxima	23.1
156323	7	Sololá	719	Santiago Atitlán	14	Cerro de Oro	6	Junio	2023-06-22T00:00:00	2024-11-08T11:00:00	3	Temperatura mínima	22
156324	7	Sololá	719	Santiago Atitlán	14	Cerro de Oro	6	Junio	2023-06-22T00:00:00	2024-11-08T11:00:00	5	Humedad	78
156325	7	Sololá	719	Santiago Atitlán	14	Cerro de Oro	6	Junio	2023-06-22T00:00:00	2024-11-08T11:00:00	6	Velocidad del viento	11.3
156326	7	Sololá	719	Santiago Atitlán	14	Cerro de Oro	6	Junio	2023-06-22T00:00:00	2024-11-08T11:00:00	7	Dirección del viento	11.27
156327	7	Sololá	719	Santiago Atitlán	14	Cerro de Oro	6	Junio	2023-06-22T00:00:00	2024-11-08T11:00:00	1	Precipitación	0
156328	7	Sololá	719	Santiago Atitlán	14	Cerro de Oro	6	Junio	2023-06-22T00:00:00	2024-11-08T11:00:00	8	Radiación solar	816
156329	7	Sololá	719	Santiago Atitlán	14	Cerro de Oro	6	Junio	2023-06-22T00:00:00	2024-11-08T12:00:00	2	Temperatura media	21.4
156330	7	Sololá	719	Santiago Atitlán	14	Cerro de Oro	6	Junio	2023-06-22T00:00:00	2024-11-08T12:00:00	4	Temperatura máxima	23.2
156331	7	Sololá	719	Santiago Atitlán	14	Cerro de Oro	6	Junio	2023-06-22T00:00:00	2024-11-08T12:00:00	3	Temperatura mínima	21.3
156332	7	Sololá	719	Santiago Atitlán	14	Cerro de Oro	6	Junio	2023-06-22T00:00:00	2024-11-08T12:00:00	5	Humedad	81
156333	7	Sololá	719	Santiago Atitlán	14	Cerro de Oro	6	Junio	2023-06-22T00:00:00	2024-11-08T12:00:00	6	Velocidad del viento	9.7
156334	7	Sololá	719	Santiago Atitlán	14	Cerro de Oro	6	Junio	2023-06-22T00:00:00	2024-11-08T12:00:00	7	Dirección del viento	9.66
156335	7	Sololá	719	Santiago Atitlán	14	Cerro de Oro	6	Junio	2023-06-22T00:00:00	2024-11-08T12:00:00	1	Precipitación	0
156336	7	Sololá	719	Santiago Atitlán	14	Cerro de Oro	6	Junio	2023-06-22T00:00:00	2024-11-08T12:00:00	8	Radiación solar	675
156337	7	Sololá	719	Santiago Atitlán	14	Cerro de Oro	6	Junio	2023-06-22T00:00:00	2024-11-08T13:00:00	2	Temperatura media	21.3
156338	7	Sololá	719	Santiago Atitlán	14	Cerro de Oro	6	Junio	2023-06-22T00:00:00	2024-11-08T13:00:00	4	Temperatura máxima	21.8
156339	7	Sololá	719	Santiago Atitlán	14	Cerro de Oro	6	Junio	2023-06-22T00:00:00	2024-11-08T13:00:00	3	Temperatura mínima	21.1
156340	7	Sololá	719	Santiago Atitlán	14	Cerro de Oro	6	Junio	2023-06-22T00:00:00	2024-11-08T13:00:00	5	Humedad	82
156341	7	Sololá	719	Santiago Atitlán	14	Cerro de Oro	6	Junio	2023-06-22T00:00:00	2024-11-08T13:00:00	6	Velocidad del viento	8
156342	7	Sololá	719	Santiago Atitlán	14	Cerro de Oro	6	Junio	2023-06-22T00:00:00	2024-11-08T13:00:00	7	Dirección del viento	8.05
156343	7	Sololá	719	Santiago Atitlán	14	Cerro de Oro	6	Junio	2023-06-22T00:00:00	2024-11-08T13:00:00	1	Precipitación	0
156344	7	Sololá	719	Santiago Atitlán	14	Cerro de Oro	6	Junio	2023-06-22T00:00:00	2024-11-08T13:00:00	8	Radiación solar	329
156345	7	Sololá	719	Santiago Atitlán	14	Cerro de Oro	6	Junio	2023-06-22T00:00:00	2024-11-08T14:00:00	2	Temperatura media	21.2
156346	7	Sololá	719	Santiago Atitlán	14	Cerro de Oro	6	Junio	2023-06-22T00:00:00	2024-11-08T14:00:00	4	Temperatura máxima	21.3
156347	7	Sololá	719	Santiago Atitlán	14	Cerro de Oro	6	Junio	2023-06-22T00:00:00	2024-11-08T14:00:00	3	Temperatura mínima	20.3
156348	7	Sololá	719	Santiago Atitlán	14	Cerro de Oro	6	Junio	2023-06-22T00:00:00	2024-11-08T14:00:00	5	Humedad	84
156349	7	Sololá	719	Santiago Atitlán	14	Cerro de Oro	6	Junio	2023-06-22T00:00:00	2024-11-08T14:00:00	6	Velocidad del viento	6.4
156350	7	Sololá	719	Santiago Atitlán	14	Cerro de Oro	6	Junio	2023-06-22T00:00:00	2024-11-08T14:00:00	7	Dirección del viento	6.44
156351	7	Sololá	719	Santiago Atitlán	14	Cerro de Oro	6	Junio	2023-06-22T00:00:00	2024-11-08T14:00:00	1	Precipitación	0
156352	7	Sololá	719	Santiago Atitlán	14	Cerro de Oro	6	Junio	2023-06-22T00:00:00	2024-11-08T14:00:00	8	Radiación solar	210
156353	7	Sololá	719	Santiago Atitlán	14	Cerro de Oro	6	Junio	2023-06-22T00:00:00	2024-11-08T15:00:00	2	Temperatura media	21.5
156354	7	Sololá	719	Santiago Atitlán	14	Cerro de Oro	6	Junio	2023-06-22T00:00:00	2024-11-08T15:00:00	4	Temperatura máxima	21.6
156355	7	Sololá	719	Santiago Atitlán	14	Cerro de Oro	6	Junio	2023-06-22T00:00:00	2024-11-08T15:00:00	3	Temperatura mínima	20.8
156356	7	Sololá	719	Santiago Atitlán	14	Cerro de Oro	6	Junio	2023-06-22T00:00:00	2024-11-08T15:00:00	5	Humedad	83
156357	7	Sololá	719	Santiago Atitlán	14	Cerro de Oro	6	Junio	2023-06-22T00:00:00	2024-11-08T15:00:00	6	Velocidad del viento	4.8
156358	7	Sololá	719	Santiago Atitlán	14	Cerro de Oro	6	Junio	2023-06-22T00:00:00	2024-11-08T15:00:00	7	Dirección del viento	4.83
156359	7	Sololá	719	Santiago Atitlán	14	Cerro de Oro	6	Junio	2023-06-22T00:00:00	2024-11-08T15:00:00	1	Precipitación	0
156360	7	Sololá	719	Santiago Atitlán	14	Cerro de Oro	6	Junio	2023-06-22T00:00:00	2024-11-08T15:00:00	8	Radiación solar	296
156361	7	Sololá	719	Santiago Atitlán	14	Cerro de Oro	6	Junio	2023-06-22T00:00:00	2024-11-08T16:00:00	2	Temperatura media	21.7
156362	7	Sololá	719	Santiago Atitlán	14	Cerro de Oro	6	Junio	2023-06-22T00:00:00	2024-11-08T16:00:00	4	Temperatura máxima	21.9
156363	7	Sololá	719	Santiago Atitlán	14	Cerro de Oro	6	Junio	2023-06-22T00:00:00	2024-11-08T16:00:00	3	Temperatura mínima	21.3
156364	7	Sololá	719	Santiago Atitlán	14	Cerro de Oro	6	Junio	2023-06-22T00:00:00	2024-11-08T16:00:00	5	Humedad	80
156365	7	Sololá	719	Santiago Atitlán	14	Cerro de Oro	6	Junio	2023-06-22T00:00:00	2024-11-08T16:00:00	6	Velocidad del viento	4.8
156366	7	Sololá	719	Santiago Atitlán	14	Cerro de Oro	6	Junio	2023-06-22T00:00:00	2024-11-08T16:00:00	7	Dirección del viento	4.83
156367	7	Sololá	719	Santiago Atitlán	14	Cerro de Oro	6	Junio	2023-06-22T00:00:00	2024-11-08T16:00:00	1	Precipitación	0
156368	7	Sololá	719	Santiago Atitlán	14	Cerro de Oro	6	Junio	2023-06-22T00:00:00	2024-11-08T16:00:00	8	Radiación solar	349
156369	7	Sololá	719	Santiago Atitlán	14	Cerro de Oro	6	Junio	2023-06-22T00:00:00	2024-11-08T17:00:00	2	Temperatura media	18.9
156370	7	Sololá	719	Santiago Atitlán	14	Cerro de Oro	6	Junio	2023-06-22T00:00:00	2024-11-08T17:00:00	4	Temperatura máxima	21.6
156371	7	Sololá	719	Santiago Atitlán	14	Cerro de Oro	6	Junio	2023-06-22T00:00:00	2024-11-08T17:00:00	3	Temperatura mínima	18.9
156372	7	Sololá	719	Santiago Atitlán	14	Cerro de Oro	6	Junio	2023-06-22T00:00:00	2024-11-08T17:00:00	5	Humedad	89
156373	7	Sololá	719	Santiago Atitlán	14	Cerro de Oro	6	Junio	2023-06-22T00:00:00	2024-11-08T17:00:00	6	Velocidad del viento	11.3
156374	7	Sololá	719	Santiago Atitlán	14	Cerro de Oro	6	Junio	2023-06-22T00:00:00	2024-11-08T17:00:00	7	Dirección del viento	11.27
156375	7	Sololá	719	Santiago Atitlán	14	Cerro de Oro	6	Junio	2023-06-22T00:00:00	2024-11-08T17:00:00	1	Precipitación	0
156376	7	Sololá	719	Santiago Atitlán	14	Cerro de Oro	6	Junio	2023-06-22T00:00:00	2024-11-08T17:00:00	8	Radiación solar	85
156377	7	Sololá	719	Santiago Atitlán	14	Cerro de Oro	6	Junio	2023-06-22T00:00:00	2024-11-08T18:00:00	2	Temperatura media	18.7
156378	7	Sololá	719	Santiago Atitlán	14	Cerro de Oro	6	Junio	2023-06-22T00:00:00	2024-11-08T18:00:00	4	Temperatura máxima	19
156379	7	Sololá	719	Santiago Atitlán	14	Cerro de Oro	6	Junio	2023-06-22T00:00:00	2024-11-08T18:00:00	3	Temperatura mínima	18.6
156380	7	Sololá	719	Santiago Atitlán	14	Cerro de Oro	6	Junio	2023-06-22T00:00:00	2024-11-08T18:00:00	5	Humedad	89
156381	7	Sololá	719	Santiago Atitlán	14	Cerro de Oro	6	Junio	2023-06-22T00:00:00	2024-11-08T18:00:00	6	Velocidad del viento	6.4
156382	7	Sololá	719	Santiago Atitlán	14	Cerro de Oro	6	Junio	2023-06-22T00:00:00	2024-11-08T18:00:00	7	Dirección del viento	6.44
156383	7	Sololá	719	Santiago Atitlán	14	Cerro de Oro	6	Junio	2023-06-22T00:00:00	2024-11-08T18:00:00	1	Precipitación	0
156384	7	Sololá	719	Santiago Atitlán	14	Cerro de Oro	6	Junio	2023-06-22T00:00:00	2024-11-08T18:00:00	8	Radiación solar	14
156385	7	Sololá	719	Santiago Atitlán	14	Cerro de Oro	6	Junio	2023-06-22T00:00:00	2024-11-08T19:00:00	2	Temperatura media	18.3
156386	7	Sololá	719	Santiago Atitlán	14	Cerro de Oro	6	Junio	2023-06-22T00:00:00	2024-11-08T19:00:00	4	Temperatura máxima	18.7
156387	7	Sololá	719	Santiago Atitlán	14	Cerro de Oro	6	Junio	2023-06-22T00:00:00	2024-11-08T19:00:00	3	Temperatura mínima	18.3
156388	7	Sololá	719	Santiago Atitlán	14	Cerro de Oro	6	Junio	2023-06-22T00:00:00	2024-11-08T19:00:00	5	Humedad	91
156389	7	Sololá	719	Santiago Atitlán	14	Cerro de Oro	6	Junio	2023-06-22T00:00:00	2024-11-08T19:00:00	6	Velocidad del viento	4.8
156390	7	Sololá	719	Santiago Atitlán	14	Cerro de Oro	6	Junio	2023-06-22T00:00:00	2024-11-08T19:00:00	7	Dirección del viento	4.83
156391	7	Sololá	719	Santiago Atitlán	14	Cerro de Oro	6	Junio	2023-06-22T00:00:00	2024-11-08T19:00:00	1	Precipitación	0
156392	7	Sololá	719	Santiago Atitlán	14	Cerro de Oro	6	Junio	2023-06-22T00:00:00	2024-11-08T19:00:00	8	Radiación solar	0
156393	7	Sololá	719	Santiago Atitlán	14	Cerro de Oro	6	Junio	2023-06-22T00:00:00	2024-11-08T20:00:00	2	Temperatura media	18.2
156394	7	Sololá	719	Santiago Atitlán	14	Cerro de Oro	6	Junio	2023-06-22T00:00:00	2024-11-08T20:00:00	4	Temperatura máxima	18.3
156395	7	Sololá	719	Santiago Atitlán	14	Cerro de Oro	6	Junio	2023-06-22T00:00:00	2024-11-08T20:00:00	3	Temperatura mínima	18.2
156396	7	Sololá	719	Santiago Atitlán	14	Cerro de Oro	6	Junio	2023-06-22T00:00:00	2024-11-08T20:00:00	5	Humedad	91
156397	7	Sololá	719	Santiago Atitlán	14	Cerro de Oro	6	Junio	2023-06-22T00:00:00	2024-11-08T20:00:00	6	Velocidad del viento	3.2
156398	7	Sololá	719	Santiago Atitlán	14	Cerro de Oro	6	Junio	2023-06-22T00:00:00	2024-11-08T20:00:00	7	Dirección del viento	3.22
156399	7	Sololá	719	Santiago Atitlán	14	Cerro de Oro	6	Junio	2023-06-22T00:00:00	2024-11-08T20:00:00	1	Precipitación	0.2
156400	7	Sololá	719	Santiago Atitlán	14	Cerro de Oro	6	Junio	2023-06-22T00:00:00	2024-11-08T20:00:00	8	Radiación solar	0
156401	7	Sololá	719	Santiago Atitlán	14	Cerro de Oro	6	Junio	2023-06-22T00:00:00	2024-11-08T21:00:00	2	Temperatura media	18.2
156402	7	Sololá	719	Santiago Atitlán	14	Cerro de Oro	6	Junio	2023-06-22T00:00:00	2024-11-08T21:00:00	4	Temperatura máxima	18.3
156403	7	Sololá	719	Santiago Atitlán	14	Cerro de Oro	6	Junio	2023-06-22T00:00:00	2024-11-08T21:00:00	3	Temperatura mínima	18
156404	7	Sololá	719	Santiago Atitlán	14	Cerro de Oro	6	Junio	2023-06-22T00:00:00	2024-11-08T21:00:00	5	Humedad	89
156405	7	Sololá	719	Santiago Atitlán	14	Cerro de Oro	6	Junio	2023-06-22T00:00:00	2024-11-08T21:00:00	6	Velocidad del viento	3.2
156406	7	Sololá	719	Santiago Atitlán	14	Cerro de Oro	6	Junio	2023-06-22T00:00:00	2024-11-08T21:00:00	7	Dirección del viento	3.22
156407	7	Sololá	719	Santiago Atitlán	14	Cerro de Oro	6	Junio	2023-06-22T00:00:00	2024-11-08T21:00:00	1	Precipitación	0
156408	7	Sololá	719	Santiago Atitlán	14	Cerro de Oro	6	Junio	2023-06-22T00:00:00	2024-11-08T21:00:00	8	Radiación solar	0
156409	7	Sololá	719	Santiago Atitlán	14	Cerro de Oro	6	Junio	2023-06-22T00:00:00	2024-11-08T22:00:00	2	Temperatura media	17.8
156410	7	Sololá	719	Santiago Atitlán	14	Cerro de Oro	6	Junio	2023-06-22T00:00:00	2024-11-08T22:00:00	4	Temperatura máxima	18.2
156411	7	Sololá	719	Santiago Atitlán	14	Cerro de Oro	6	Junio	2023-06-22T00:00:00	2024-11-08T22:00:00	3	Temperatura mínima	17.8
156412	7	Sololá	719	Santiago Atitlán	14	Cerro de Oro	6	Junio	2023-06-22T00:00:00	2024-11-08T22:00:00	5	Humedad	91
156413	7	Sololá	719	Santiago Atitlán	14	Cerro de Oro	6	Junio	2023-06-22T00:00:00	2024-11-08T22:00:00	6	Velocidad del viento	8
156414	7	Sololá	719	Santiago Atitlán	14	Cerro de Oro	6	Junio	2023-06-22T00:00:00	2024-11-08T22:00:00	7	Dirección del viento	8.05
156415	7	Sololá	719	Santiago Atitlán	14	Cerro de Oro	6	Junio	2023-06-22T00:00:00	2024-11-08T22:00:00	1	Precipitación	0
156416	7	Sololá	719	Santiago Atitlán	14	Cerro de Oro	6	Junio	2023-06-22T00:00:00	2024-11-08T22:00:00	8	Radiación solar	0
156417	7	Sololá	719	Santiago Atitlán	14	Cerro de Oro	6	Junio	2023-06-22T00:00:00	2024-11-08T23:00:00	2	Temperatura media	17.9
156418	7	Sololá	719	Santiago Atitlán	14	Cerro de Oro	6	Junio	2023-06-22T00:00:00	2024-11-08T23:00:00	4	Temperatura máxima	18
156419	7	Sololá	719	Santiago Atitlán	14	Cerro de Oro	6	Junio	2023-06-22T00:00:00	2024-11-08T23:00:00	3	Temperatura mínima	17.6
156420	7	Sololá	719	Santiago Atitlán	14	Cerro de Oro	6	Junio	2023-06-22T00:00:00	2024-11-08T23:00:00	5	Humedad	89
156421	7	Sololá	719	Santiago Atitlán	14	Cerro de Oro	6	Junio	2023-06-22T00:00:00	2024-11-08T23:00:00	6	Velocidad del viento	9.7
156422	7	Sololá	719	Santiago Atitlán	14	Cerro de Oro	6	Junio	2023-06-22T00:00:00	2024-11-08T23:00:00	7	Dirección del viento	9.66
156423	7	Sololá	719	Santiago Atitlán	14	Cerro de Oro	6	Junio	2023-06-22T00:00:00	2024-11-08T23:00:00	1	Precipitación	0
156424	7	Sololá	719	Santiago Atitlán	14	Cerro de Oro	6	Junio	2023-06-22T00:00:00	2024-11-08T23:00:00	8	Radiación solar	0
156425	7	Sololá	719	Santiago Atitlán	14	Cerro de Oro	6	Junio	2023-06-23T00:00:00	2024-11-08T00:00:00	2	Temperatura media	17.6
156426	7	Sololá	719	Santiago Atitlán	14	Cerro de Oro	6	Junio	2023-06-23T00:00:00	2024-11-08T00:00:00	4	Temperatura máxima	17.9
156427	7	Sololá	719	Santiago Atitlán	14	Cerro de Oro	6	Junio	2023-06-23T00:00:00	2024-11-08T00:00:00	3	Temperatura mínima	17.6
156428	7	Sololá	719	Santiago Atitlán	14	Cerro de Oro	6	Junio	2023-06-23T00:00:00	2024-11-08T00:00:00	5	Humedad	90
156429	7	Sololá	719	Santiago Atitlán	14	Cerro de Oro	6	Junio	2023-06-23T00:00:00	2024-11-08T00:00:00	6	Velocidad del viento	3.2
156430	7	Sololá	719	Santiago Atitlán	14	Cerro de Oro	6	Junio	2023-06-23T00:00:00	2024-11-08T00:00:00	7	Dirección del viento	3.22
156431	7	Sololá	719	Santiago Atitlán	14	Cerro de Oro	6	Junio	2023-06-23T00:00:00	2024-11-08T00:00:00	1	Precipitación	0
156432	7	Sololá	719	Santiago Atitlán	14	Cerro de Oro	6	Junio	2023-06-23T00:00:00	2024-11-08T00:00:00	8	Radiación solar	0
156433	7	Sololá	719	Santiago Atitlán	14	Cerro de Oro	6	Junio	2023-06-23T00:00:00	2024-11-08T01:00:00	2	Temperatura media	17.5
156434	7	Sololá	719	Santiago Atitlán	14	Cerro de Oro	6	Junio	2023-06-23T00:00:00	2024-11-08T01:00:00	4	Temperatura máxima	17.7
156435	7	Sololá	719	Santiago Atitlán	14	Cerro de Oro	6	Junio	2023-06-23T00:00:00	2024-11-08T01:00:00	3	Temperatura mínima	17.3
156436	7	Sololá	719	Santiago Atitlán	14	Cerro de Oro	6	Junio	2023-06-23T00:00:00	2024-11-08T01:00:00	5	Humedad	90
156437	7	Sololá	719	Santiago Atitlán	14	Cerro de Oro	6	Junio	2023-06-23T00:00:00	2024-11-08T01:00:00	6	Velocidad del viento	3.2
156438	7	Sololá	719	Santiago Atitlán	14	Cerro de Oro	6	Junio	2023-06-23T00:00:00	2024-11-08T01:00:00	7	Dirección del viento	3.22
156439	7	Sololá	719	Santiago Atitlán	14	Cerro de Oro	6	Junio	2023-06-23T00:00:00	2024-11-08T01:00:00	1	Precipitación	0
156440	7	Sololá	719	Santiago Atitlán	14	Cerro de Oro	6	Junio	2023-06-23T00:00:00	2024-11-08T01:00:00	8	Radiación solar	0
156441	7	Sololá	719	Santiago Atitlán	14	Cerro de Oro	6	Junio	2023-06-23T00:00:00	2024-11-08T02:00:00	2	Temperatura media	17.7
156442	7	Sololá	719	Santiago Atitlán	14	Cerro de Oro	6	Junio	2023-06-23T00:00:00	2024-11-08T02:00:00	4	Temperatura máxima	17.7
156443	7	Sololá	719	Santiago Atitlán	14	Cerro de Oro	6	Junio	2023-06-23T00:00:00	2024-11-08T02:00:00	3	Temperatura mínima	17.4
156444	7	Sololá	719	Santiago Atitlán	14	Cerro de Oro	6	Junio	2023-06-23T00:00:00	2024-11-08T02:00:00	5	Humedad	89
156445	7	Sololá	719	Santiago Atitlán	14	Cerro de Oro	6	Junio	2023-06-23T00:00:00	2024-11-08T02:00:00	6	Velocidad del viento	4.8
156446	7	Sololá	719	Santiago Atitlán	14	Cerro de Oro	6	Junio	2023-06-23T00:00:00	2024-11-08T02:00:00	7	Dirección del viento	4.83
156447	7	Sololá	719	Santiago Atitlán	14	Cerro de Oro	6	Junio	2023-06-23T00:00:00	2024-11-08T02:00:00	1	Precipitación	0
156448	7	Sololá	719	Santiago Atitlán	14	Cerro de Oro	6	Junio	2023-06-23T00:00:00	2024-11-08T02:00:00	8	Radiación solar	0
156449	7	Sololá	719	Santiago Atitlán	14	Cerro de Oro	6	Junio	2023-06-23T00:00:00	2024-11-08T03:00:00	2	Temperatura media	18.3
156450	7	Sololá	719	Santiago Atitlán	14	Cerro de Oro	6	Junio	2023-06-23T00:00:00	2024-11-08T03:00:00	4	Temperatura máxima	18.4
156451	7	Sololá	719	Santiago Atitlán	14	Cerro de Oro	6	Junio	2023-06-23T00:00:00	2024-11-08T03:00:00	3	Temperatura mínima	17.7
156452	7	Sololá	719	Santiago Atitlán	14	Cerro de Oro	6	Junio	2023-06-23T00:00:00	2024-11-08T03:00:00	5	Humedad	87
156453	7	Sololá	719	Santiago Atitlán	14	Cerro de Oro	6	Junio	2023-06-23T00:00:00	2024-11-08T03:00:00	6	Velocidad del viento	3.2
156454	7	Sololá	719	Santiago Atitlán	14	Cerro de Oro	6	Junio	2023-06-23T00:00:00	2024-11-08T03:00:00	7	Dirección del viento	3.22
156455	7	Sololá	719	Santiago Atitlán	14	Cerro de Oro	6	Junio	2023-06-23T00:00:00	2024-11-08T03:00:00	1	Precipitación	0
156456	7	Sololá	719	Santiago Atitlán	14	Cerro de Oro	6	Junio	2023-06-23T00:00:00	2024-11-08T03:00:00	8	Radiación solar	0
156457	7	Sololá	719	Santiago Atitlán	14	Cerro de Oro	6	Junio	2023-06-23T00:00:00	2024-11-08T04:00:00	2	Temperatura media	18.2
156458	7	Sololá	719	Santiago Atitlán	14	Cerro de Oro	6	Junio	2023-06-23T00:00:00	2024-11-08T04:00:00	4	Temperatura máxima	18.5
156459	7	Sololá	719	Santiago Atitlán	14	Cerro de Oro	6	Junio	2023-06-23T00:00:00	2024-11-08T04:00:00	3	Temperatura mínima	18.2
156460	7	Sololá	719	Santiago Atitlán	14	Cerro de Oro	6	Junio	2023-06-23T00:00:00	2024-11-08T04:00:00	5	Humedad	88
156461	7	Sololá	719	Santiago Atitlán	14	Cerro de Oro	6	Junio	2023-06-23T00:00:00	2024-11-08T04:00:00	6	Velocidad del viento	3.2
156462	7	Sololá	719	Santiago Atitlán	14	Cerro de Oro	6	Junio	2023-06-23T00:00:00	2024-11-08T04:00:00	7	Dirección del viento	3.22
156463	7	Sololá	719	Santiago Atitlán	14	Cerro de Oro	6	Junio	2023-06-23T00:00:00	2024-11-08T04:00:00	1	Precipitación	0
156464	7	Sololá	719	Santiago Atitlán	14	Cerro de Oro	6	Junio	2023-06-23T00:00:00	2024-11-08T04:00:00	8	Radiación solar	0
156465	7	Sololá	719	Santiago Atitlán	14	Cerro de Oro	6	Junio	2023-06-23T00:00:00	2024-11-08T05:00:00	2	Temperatura media	18
156466	7	Sololá	719	Santiago Atitlán	14	Cerro de Oro	6	Junio	2023-06-23T00:00:00	2024-11-08T05:00:00	4	Temperatura máxima	18.2
156467	7	Sololá	719	Santiago Atitlán	14	Cerro de Oro	6	Junio	2023-06-23T00:00:00	2024-11-08T05:00:00	3	Temperatura mínima	17.8
156468	7	Sololá	719	Santiago Atitlán	14	Cerro de Oro	6	Junio	2023-06-23T00:00:00	2024-11-08T05:00:00	5	Humedad	88
156469	7	Sololá	719	Santiago Atitlán	14	Cerro de Oro	6	Junio	2023-06-23T00:00:00	2024-11-08T05:00:00	6	Velocidad del viento	6.4
156470	7	Sololá	719	Santiago Atitlán	14	Cerro de Oro	6	Junio	2023-06-23T00:00:00	2024-11-08T05:00:00	7	Dirección del viento	6.44
156471	7	Sololá	719	Santiago Atitlán	14	Cerro de Oro	6	Junio	2023-06-23T00:00:00	2024-11-08T05:00:00	1	Precipitación	0
156472	7	Sololá	719	Santiago Atitlán	14	Cerro de Oro	6	Junio	2023-06-23T00:00:00	2024-11-08T05:00:00	8	Radiación solar	0
156473	7	Sololá	719	Santiago Atitlán	14	Cerro de Oro	6	Junio	2023-06-23T00:00:00	2024-11-08T06:00:00	2	Temperatura media	18.3
156474	7	Sololá	719	Santiago Atitlán	14	Cerro de Oro	6	Junio	2023-06-23T00:00:00	2024-11-08T06:00:00	4	Temperatura máxima	18.3
156475	7	Sololá	719	Santiago Atitlán	14	Cerro de Oro	6	Junio	2023-06-23T00:00:00	2024-11-08T06:00:00	3	Temperatura mínima	17.7
156476	7	Sololá	719	Santiago Atitlán	14	Cerro de Oro	6	Junio	2023-06-23T00:00:00	2024-11-08T06:00:00	5	Humedad	85
156477	7	Sololá	719	Santiago Atitlán	14	Cerro de Oro	6	Junio	2023-06-23T00:00:00	2024-11-08T06:00:00	6	Velocidad del viento	4.8
156478	7	Sololá	719	Santiago Atitlán	14	Cerro de Oro	6	Junio	2023-06-23T00:00:00	2024-11-08T06:00:00	7	Dirección del viento	4.83
156479	7	Sololá	719	Santiago Atitlán	14	Cerro de Oro	6	Junio	2023-06-23T00:00:00	2024-11-08T06:00:00	1	Precipitación	0
156480	7	Sololá	719	Santiago Atitlán	14	Cerro de Oro	6	Junio	2023-06-23T00:00:00	2024-11-08T06:00:00	8	Radiación solar	4
156481	7	Sololá	719	Santiago Atitlán	14	Cerro de Oro	6	Junio	2023-06-23T00:00:00	2024-11-08T07:00:00	2	Temperatura media	20.4
156482	7	Sololá	719	Santiago Atitlán	14	Cerro de Oro	6	Junio	2023-06-23T00:00:00	2024-11-08T07:00:00	4	Temperatura máxima	20.4
156483	7	Sololá	719	Santiago Atitlán	14	Cerro de Oro	6	Junio	2023-06-23T00:00:00	2024-11-08T07:00:00	3	Temperatura mínima	18.3
156484	7	Sololá	719	Santiago Atitlán	14	Cerro de Oro	6	Junio	2023-06-23T00:00:00	2024-11-08T07:00:00	5	Humedad	79
156485	7	Sololá	719	Santiago Atitlán	14	Cerro de Oro	6	Junio	2023-06-23T00:00:00	2024-11-08T07:00:00	6	Velocidad del viento	3.2
156486	7	Sololá	719	Santiago Atitlán	14	Cerro de Oro	6	Junio	2023-06-23T00:00:00	2024-11-08T07:00:00	7	Dirección del viento	3.22
156487	7	Sololá	719	Santiago Atitlán	14	Cerro de Oro	6	Junio	2023-06-23T00:00:00	2024-11-08T07:00:00	1	Precipitación	0
156488	7	Sololá	719	Santiago Atitlán	14	Cerro de Oro	6	Junio	2023-06-23T00:00:00	2024-11-08T07:00:00	8	Radiación solar	107
156489	7	Sololá	719	Santiago Atitlán	14	Cerro de Oro	6	Junio	2023-06-23T00:00:00	2024-11-08T08:00:00	2	Temperatura media	21
156490	7	Sololá	719	Santiago Atitlán	14	Cerro de Oro	6	Junio	2023-06-23T00:00:00	2024-11-08T08:00:00	4	Temperatura máxima	21.3
156491	7	Sololá	719	Santiago Atitlán	14	Cerro de Oro	6	Junio	2023-06-23T00:00:00	2024-11-08T08:00:00	3	Temperatura mínima	20.4
156492	7	Sololá	719	Santiago Atitlán	14	Cerro de Oro	6	Junio	2023-06-23T00:00:00	2024-11-08T08:00:00	5	Humedad	76
156493	7	Sololá	719	Santiago Atitlán	14	Cerro de Oro	6	Junio	2023-06-23T00:00:00	2024-11-08T08:00:00	6	Velocidad del viento	3.2
156494	7	Sololá	719	Santiago Atitlán	14	Cerro de Oro	6	Junio	2023-06-23T00:00:00	2024-11-08T08:00:00	7	Dirección del viento	3.22
156495	7	Sololá	719	Santiago Atitlán	14	Cerro de Oro	6	Junio	2023-06-23T00:00:00	2024-11-08T08:00:00	1	Precipitación	0
156496	7	Sololá	719	Santiago Atitlán	14	Cerro de Oro	6	Junio	2023-06-23T00:00:00	2024-11-08T08:00:00	8	Radiación solar	292
156497	7	Sololá	719	Santiago Atitlán	14	Cerro de Oro	6	Junio	2023-06-23T00:00:00	2024-11-08T09:00:00	2	Temperatura media	22.6
156498	7	Sololá	719	Santiago Atitlán	14	Cerro de Oro	6	Junio	2023-06-23T00:00:00	2024-11-08T09:00:00	4	Temperatura máxima	22.7
156499	7	Sololá	719	Santiago Atitlán	14	Cerro de Oro	6	Junio	2023-06-23T00:00:00	2024-11-08T09:00:00	3	Temperatura mínima	20.9
156500	7	Sololá	719	Santiago Atitlán	14	Cerro de Oro	6	Junio	2023-06-23T00:00:00	2024-11-08T09:00:00	5	Humedad	68
156501	7	Sololá	719	Santiago Atitlán	14	Cerro de Oro	6	Junio	2023-06-23T00:00:00	2024-11-08T09:00:00	6	Velocidad del viento	3.2
156502	7	Sololá	719	Santiago Atitlán	14	Cerro de Oro	6	Junio	2023-06-23T00:00:00	2024-11-08T09:00:00	7	Dirección del viento	3.22
156503	7	Sololá	719	Santiago Atitlán	14	Cerro de Oro	6	Junio	2023-06-23T00:00:00	2024-11-08T09:00:00	1	Precipitación	0
156504	7	Sololá	719	Santiago Atitlán	14	Cerro de Oro	6	Junio	2023-06-23T00:00:00	2024-11-08T09:00:00	8	Radiación solar	483
156505	7	Sololá	719	Santiago Atitlán	14	Cerro de Oro	6	Junio	2023-06-23T00:00:00	2024-11-08T10:00:00	2	Temperatura media	23.7
156506	7	Sololá	719	Santiago Atitlán	14	Cerro de Oro	6	Junio	2023-06-23T00:00:00	2024-11-08T10:00:00	4	Temperatura máxima	23.7
156507	7	Sololá	719	Santiago Atitlán	14	Cerro de Oro	6	Junio	2023-06-23T00:00:00	2024-11-08T10:00:00	3	Temperatura mínima	22.7
156508	7	Sololá	719	Santiago Atitlán	14	Cerro de Oro	6	Junio	2023-06-23T00:00:00	2024-11-08T10:00:00	5	Humedad	70
156509	7	Sololá	719	Santiago Atitlán	14	Cerro de Oro	6	Junio	2023-06-23T00:00:00	2024-11-08T10:00:00	6	Velocidad del viento	4.8
156510	7	Sololá	719	Santiago Atitlán	14	Cerro de Oro	6	Junio	2023-06-23T00:00:00	2024-11-08T10:00:00	7	Dirección del viento	4.83
156511	7	Sololá	719	Santiago Atitlán	14	Cerro de Oro	6	Junio	2023-06-23T00:00:00	2024-11-08T10:00:00	1	Precipitación	0
156512	7	Sololá	719	Santiago Atitlán	14	Cerro de Oro	6	Junio	2023-06-23T00:00:00	2024-11-08T10:00:00	8	Radiación solar	699
156513	7	Sololá	719	Santiago Atitlán	14	Cerro de Oro	6	Junio	2023-06-23T00:00:00	2024-11-08T11:00:00	2	Temperatura media	23.1
156514	7	Sololá	719	Santiago Atitlán	14	Cerro de Oro	6	Junio	2023-06-23T00:00:00	2024-11-08T11:00:00	4	Temperatura máxima	24.4
156515	7	Sololá	719	Santiago Atitlán	14	Cerro de Oro	6	Junio	2023-06-23T00:00:00	2024-11-08T11:00:00	3	Temperatura mínima	23.1
156516	7	Sololá	719	Santiago Atitlán	14	Cerro de Oro	6	Junio	2023-06-23T00:00:00	2024-11-08T11:00:00	5	Humedad	70
156517	7	Sololá	719	Santiago Atitlán	14	Cerro de Oro	6	Junio	2023-06-23T00:00:00	2024-11-08T11:00:00	6	Velocidad del viento	9.7
156518	7	Sololá	719	Santiago Atitlán	14	Cerro de Oro	6	Junio	2023-06-23T00:00:00	2024-11-08T11:00:00	7	Dirección del viento	9.66
156519	7	Sololá	719	Santiago Atitlán	14	Cerro de Oro	6	Junio	2023-06-23T00:00:00	2024-11-08T11:00:00	1	Precipitación	0
156520	7	Sololá	719	Santiago Atitlán	14	Cerro de Oro	6	Junio	2023-06-23T00:00:00	2024-11-08T11:00:00	8	Radiación solar	766
156521	7	Sololá	719	Santiago Atitlán	14	Cerro de Oro	6	Junio	2023-06-23T00:00:00	2024-11-08T12:00:00	2	Temperatura media	23.2
156522	7	Sololá	719	Santiago Atitlán	14	Cerro de Oro	6	Junio	2023-06-23T00:00:00	2024-11-08T12:00:00	4	Temperatura máxima	23.3
156523	7	Sololá	719	Santiago Atitlán	14	Cerro de Oro	6	Junio	2023-06-23T00:00:00	2024-11-08T12:00:00	3	Temperatura mínima	22.6
156524	7	Sololá	719	Santiago Atitlán	14	Cerro de Oro	6	Junio	2023-06-23T00:00:00	2024-11-08T12:00:00	5	Humedad	69
156525	7	Sololá	719	Santiago Atitlán	14	Cerro de Oro	6	Junio	2023-06-23T00:00:00	2024-11-08T12:00:00	6	Velocidad del viento	12.9
156526	7	Sololá	719	Santiago Atitlán	14	Cerro de Oro	6	Junio	2023-06-23T00:00:00	2024-11-08T12:00:00	7	Dirección del viento	12.87
156527	7	Sololá	719	Santiago Atitlán	14	Cerro de Oro	6	Junio	2023-06-23T00:00:00	2024-11-08T12:00:00	1	Precipitación	0
156528	7	Sololá	719	Santiago Atitlán	14	Cerro de Oro	6	Junio	2023-06-23T00:00:00	2024-11-08T12:00:00	8	Radiación solar	570
156529	7	Sololá	719	Santiago Atitlán	14	Cerro de Oro	6	Junio	2023-06-23T00:00:00	2024-11-08T13:00:00	2	Temperatura media	23.7
156530	7	Sololá	719	Santiago Atitlán	14	Cerro de Oro	6	Junio	2023-06-23T00:00:00	2024-11-08T13:00:00	4	Temperatura máxima	23.9
156531	7	Sololá	719	Santiago Atitlán	14	Cerro de Oro	6	Junio	2023-06-23T00:00:00	2024-11-08T13:00:00	3	Temperatura mínima	22.9
156532	7	Sololá	719	Santiago Atitlán	14	Cerro de Oro	6	Junio	2023-06-23T00:00:00	2024-11-08T13:00:00	5	Humedad	69
156533	7	Sololá	719	Santiago Atitlán	14	Cerro de Oro	6	Junio	2023-06-23T00:00:00	2024-11-08T13:00:00	6	Velocidad del viento	14.5
156534	7	Sololá	719	Santiago Atitlán	14	Cerro de Oro	6	Junio	2023-06-23T00:00:00	2024-11-08T13:00:00	7	Dirección del viento	14.48
156535	7	Sololá	719	Santiago Atitlán	14	Cerro de Oro	6	Junio	2023-06-23T00:00:00	2024-11-08T13:00:00	1	Precipitación	0
156536	7	Sololá	719	Santiago Atitlán	14	Cerro de Oro	6	Junio	2023-06-23T00:00:00	2024-11-08T13:00:00	8	Radiación solar	874
156537	7	Sololá	719	Santiago Atitlán	14	Cerro de Oro	6	Junio	2023-06-23T00:00:00	2024-11-08T14:00:00	2	Temperatura media	20.4
156538	7	Sololá	719	Santiago Atitlán	14	Cerro de Oro	6	Junio	2023-06-23T00:00:00	2024-11-08T14:00:00	4	Temperatura máxima	24
156539	7	Sololá	719	Santiago Atitlán	14	Cerro de Oro	6	Junio	2023-06-23T00:00:00	2024-11-08T14:00:00	3	Temperatura mínima	20.4
156540	7	Sololá	719	Santiago Atitlán	14	Cerro de Oro	6	Junio	2023-06-23T00:00:00	2024-11-08T14:00:00	5	Humedad	86
156541	7	Sololá	719	Santiago Atitlán	14	Cerro de Oro	6	Junio	2023-06-23T00:00:00	2024-11-08T14:00:00	6	Velocidad del viento	9.7
156542	7	Sololá	719	Santiago Atitlán	14	Cerro de Oro	6	Junio	2023-06-23T00:00:00	2024-11-08T14:00:00	7	Dirección del viento	9.66
156543	7	Sololá	719	Santiago Atitlán	14	Cerro de Oro	6	Junio	2023-06-23T00:00:00	2024-11-08T14:00:00	1	Precipitación	0.2
156544	7	Sololá	719	Santiago Atitlán	14	Cerro de Oro	6	Junio	2023-06-23T00:00:00	2024-11-08T14:00:00	8	Radiación solar	480
156545	7	Sololá	719	Santiago Atitlán	14	Cerro de Oro	6	Junio	2023-06-23T00:00:00	2024-11-08T15:00:00	2	Temperatura media	19.9
156546	7	Sololá	719	Santiago Atitlán	14	Cerro de Oro	6	Junio	2023-06-23T00:00:00	2024-11-08T15:00:00	4	Temperatura máxima	20.4
156547	7	Sololá	719	Santiago Atitlán	14	Cerro de Oro	6	Junio	2023-06-23T00:00:00	2024-11-08T15:00:00	3	Temperatura mínima	19.8
156548	7	Sololá	719	Santiago Atitlán	14	Cerro de Oro	6	Junio	2023-06-23T00:00:00	2024-11-08T15:00:00	5	Humedad	87
156549	7	Sololá	719	Santiago Atitlán	14	Cerro de Oro	6	Junio	2023-06-23T00:00:00	2024-11-08T15:00:00	6	Velocidad del viento	6.4
156550	7	Sololá	719	Santiago Atitlán	14	Cerro de Oro	6	Junio	2023-06-23T00:00:00	2024-11-08T15:00:00	7	Dirección del viento	6.44
156551	7	Sololá	719	Santiago Atitlán	14	Cerro de Oro	6	Junio	2023-06-23T00:00:00	2024-11-08T15:00:00	1	Precipitación	0.2
156552	7	Sololá	719	Santiago Atitlán	14	Cerro de Oro	6	Junio	2023-06-23T00:00:00	2024-11-08T15:00:00	8	Radiación solar	143
156553	7	Sololá	719	Santiago Atitlán	14	Cerro de Oro	6	Junio	2023-06-23T00:00:00	2024-11-08T16:00:00	2	Temperatura media	17.7
156554	7	Sololá	719	Santiago Atitlán	14	Cerro de Oro	6	Junio	2023-06-23T00:00:00	2024-11-08T16:00:00	4	Temperatura máxima	19.9
156555	7	Sololá	719	Santiago Atitlán	14	Cerro de Oro	6	Junio	2023-06-23T00:00:00	2024-11-08T16:00:00	3	Temperatura mínima	17.7
156556	7	Sololá	719	Santiago Atitlán	14	Cerro de Oro	6	Junio	2023-06-23T00:00:00	2024-11-08T16:00:00	5	Humedad	89
156557	7	Sololá	719	Santiago Atitlán	14	Cerro de Oro	6	Junio	2023-06-23T00:00:00	2024-11-08T16:00:00	6	Velocidad del viento	6.4
156558	7	Sololá	719	Santiago Atitlán	14	Cerro de Oro	6	Junio	2023-06-23T00:00:00	2024-11-08T16:00:00	7	Dirección del viento	6.44
156559	7	Sololá	719	Santiago Atitlán	14	Cerro de Oro	6	Junio	2023-06-23T00:00:00	2024-11-08T16:00:00	1	Precipitación	12.2
156560	7	Sololá	719	Santiago Atitlán	14	Cerro de Oro	6	Junio	2023-06-23T00:00:00	2024-11-08T16:00:00	8	Radiación solar	20
156561	7	Sololá	719	Santiago Atitlán	14	Cerro de Oro	6	Junio	2023-06-23T00:00:00	2024-11-08T17:00:00	2	Temperatura media	16.7
156562	7	Sololá	719	Santiago Atitlán	14	Cerro de Oro	6	Junio	2023-06-23T00:00:00	2024-11-08T17:00:00	4	Temperatura máxima	17.7
156563	7	Sololá	719	Santiago Atitlán	14	Cerro de Oro	6	Junio	2023-06-23T00:00:00	2024-11-08T17:00:00	3	Temperatura mínima	16.6
156564	7	Sololá	719	Santiago Atitlán	14	Cerro de Oro	6	Junio	2023-06-23T00:00:00	2024-11-08T17:00:00	5	Humedad	93
156565	7	Sololá	719	Santiago Atitlán	14	Cerro de Oro	6	Junio	2023-06-23T00:00:00	2024-11-08T17:00:00	6	Velocidad del viento	4.8
156566	7	Sololá	719	Santiago Atitlán	14	Cerro de Oro	6	Junio	2023-06-23T00:00:00	2024-11-08T17:00:00	7	Dirección del viento	4.83
156567	7	Sololá	719	Santiago Atitlán	14	Cerro de Oro	6	Junio	2023-06-23T00:00:00	2024-11-08T17:00:00	1	Precipitación	11.6
156568	7	Sololá	719	Santiago Atitlán	14	Cerro de Oro	6	Junio	2023-06-23T00:00:00	2024-11-08T17:00:00	8	Radiación solar	0
156569	7	Sololá	719	Santiago Atitlán	14	Cerro de Oro	6	Junio	2023-06-23T00:00:00	2024-11-08T18:00:00	2	Temperatura media	17
156570	7	Sololá	719	Santiago Atitlán	14	Cerro de Oro	6	Junio	2023-06-23T00:00:00	2024-11-08T18:00:00	4	Temperatura máxima	17
156571	7	Sololá	719	Santiago Atitlán	14	Cerro de Oro	6	Junio	2023-06-23T00:00:00	2024-11-08T18:00:00	3	Temperatura mínima	16.6
156572	7	Sololá	719	Santiago Atitlán	14	Cerro de Oro	6	Junio	2023-06-23T00:00:00	2024-11-08T18:00:00	5	Humedad	94
156573	7	Sololá	719	Santiago Atitlán	14	Cerro de Oro	6	Junio	2023-06-23T00:00:00	2024-11-08T18:00:00	6	Velocidad del viento	1.6
156574	7	Sololá	719	Santiago Atitlán	14	Cerro de Oro	6	Junio	2023-06-23T00:00:00	2024-11-08T18:00:00	7	Dirección del viento	1.61
156575	7	Sololá	719	Santiago Atitlán	14	Cerro de Oro	6	Junio	2023-06-23T00:00:00	2024-11-08T18:00:00	1	Precipitación	2.8
156576	7	Sololá	719	Santiago Atitlán	14	Cerro de Oro	6	Junio	2023-06-23T00:00:00	2024-11-08T18:00:00	8	Radiación solar	0
156577	7	Sololá	719	Santiago Atitlán	14	Cerro de Oro	6	Junio	2023-06-23T00:00:00	2024-11-08T19:00:00	2	Temperatura media	17.3
156578	7	Sololá	719	Santiago Atitlán	14	Cerro de Oro	6	Junio	2023-06-23T00:00:00	2024-11-08T19:00:00	4	Temperatura máxima	17.3
156579	7	Sololá	719	Santiago Atitlán	14	Cerro de Oro	6	Junio	2023-06-23T00:00:00	2024-11-08T19:00:00	3	Temperatura mínima	17
156580	7	Sololá	719	Santiago Atitlán	14	Cerro de Oro	6	Junio	2023-06-23T00:00:00	2024-11-08T19:00:00	5	Humedad	93
156581	7	Sololá	719	Santiago Atitlán	14	Cerro de Oro	6	Junio	2023-06-23T00:00:00	2024-11-08T19:00:00	6	Velocidad del viento	3.2
156582	7	Sololá	719	Santiago Atitlán	14	Cerro de Oro	6	Junio	2023-06-23T00:00:00	2024-11-08T19:00:00	7	Dirección del viento	3.22
156583	7	Sololá	719	Santiago Atitlán	14	Cerro de Oro	6	Junio	2023-06-23T00:00:00	2024-11-08T19:00:00	1	Precipitación	0
156584	7	Sololá	719	Santiago Atitlán	14	Cerro de Oro	6	Junio	2023-06-23T00:00:00	2024-11-08T19:00:00	8	Radiación solar	0
156585	7	Sololá	719	Santiago Atitlán	14	Cerro de Oro	6	Junio	2023-06-23T00:00:00	2024-11-08T20:00:00	2	Temperatura media	16.9
156586	7	Sololá	719	Santiago Atitlán	14	Cerro de Oro	6	Junio	2023-06-23T00:00:00	2024-11-08T20:00:00	4	Temperatura máxima	17.3
156587	7	Sololá	719	Santiago Atitlán	14	Cerro de Oro	6	Junio	2023-06-23T00:00:00	2024-11-08T20:00:00	3	Temperatura mínima	16.8
156588	7	Sololá	719	Santiago Atitlán	14	Cerro de Oro	6	Junio	2023-06-23T00:00:00	2024-11-08T20:00:00	5	Humedad	91
156589	7	Sololá	719	Santiago Atitlán	14	Cerro de Oro	6	Junio	2023-06-23T00:00:00	2024-11-08T20:00:00	6	Velocidad del viento	4.8
156590	7	Sololá	719	Santiago Atitlán	14	Cerro de Oro	6	Junio	2023-06-23T00:00:00	2024-11-08T20:00:00	7	Dirección del viento	4.83
156591	7	Sololá	719	Santiago Atitlán	14	Cerro de Oro	6	Junio	2023-06-23T00:00:00	2024-11-08T20:00:00	1	Precipitación	0
156592	7	Sololá	719	Santiago Atitlán	14	Cerro de Oro	6	Junio	2023-06-23T00:00:00	2024-11-08T20:00:00	8	Radiación solar	0
156593	7	Sololá	719	Santiago Atitlán	14	Cerro de Oro	6	Junio	2023-06-23T00:00:00	2024-11-08T21:00:00	2	Temperatura media	17.1
156594	7	Sololá	719	Santiago Atitlán	14	Cerro de Oro	6	Junio	2023-06-23T00:00:00	2024-11-08T21:00:00	4	Temperatura máxima	17.1
156595	7	Sololá	719	Santiago Atitlán	14	Cerro de Oro	6	Junio	2023-06-23T00:00:00	2024-11-08T21:00:00	3	Temperatura mínima	16.8
156596	7	Sololá	719	Santiago Atitlán	14	Cerro de Oro	6	Junio	2023-06-23T00:00:00	2024-11-08T21:00:00	5	Humedad	91
156597	7	Sololá	719	Santiago Atitlán	14	Cerro de Oro	6	Junio	2023-06-23T00:00:00	2024-11-08T21:00:00	6	Velocidad del viento	6.4
156598	7	Sololá	719	Santiago Atitlán	14	Cerro de Oro	6	Junio	2023-06-23T00:00:00	2024-11-08T21:00:00	7	Dirección del viento	6.44
156599	7	Sololá	719	Santiago Atitlán	14	Cerro de Oro	6	Junio	2023-06-23T00:00:00	2024-11-08T21:00:00	1	Precipitación	0
156600	7	Sololá	719	Santiago Atitlán	14	Cerro de Oro	6	Junio	2023-06-23T00:00:00	2024-11-08T21:00:00	8	Radiación solar	0
156601	7	Sololá	719	Santiago Atitlán	14	Cerro de Oro	6	Junio	2023-06-23T00:00:00	2024-11-08T22:00:00	2	Temperatura media	17.6
156602	7	Sololá	719	Santiago Atitlán	14	Cerro de Oro	6	Junio	2023-06-23T00:00:00	2024-11-08T22:00:00	4	Temperatura máxima	17.6
156603	7	Sololá	719	Santiago Atitlán	14	Cerro de Oro	6	Junio	2023-06-23T00:00:00	2024-11-08T22:00:00	3	Temperatura mínima	17
156604	7	Sololá	719	Santiago Atitlán	14	Cerro de Oro	6	Junio	2023-06-23T00:00:00	2024-11-08T22:00:00	5	Humedad	92
156605	7	Sololá	719	Santiago Atitlán	14	Cerro de Oro	6	Junio	2023-06-23T00:00:00	2024-11-08T22:00:00	6	Velocidad del viento	4.8
156606	7	Sololá	719	Santiago Atitlán	14	Cerro de Oro	6	Junio	2023-06-23T00:00:00	2024-11-08T22:00:00	7	Dirección del viento	4.83
156607	7	Sololá	719	Santiago Atitlán	14	Cerro de Oro	6	Junio	2023-06-23T00:00:00	2024-11-08T22:00:00	1	Precipitación	0
156608	7	Sololá	719	Santiago Atitlán	14	Cerro de Oro	6	Junio	2023-06-23T00:00:00	2024-11-08T22:00:00	8	Radiación solar	0
156609	7	Sololá	719	Santiago Atitlán	14	Cerro de Oro	6	Junio	2023-06-23T00:00:00	2024-11-08T23:00:00	2	Temperatura media	17.7
156610	7	Sololá	719	Santiago Atitlán	14	Cerro de Oro	6	Junio	2023-06-23T00:00:00	2024-11-08T23:00:00	4	Temperatura máxima	17.8
156611	7	Sololá	719	Santiago Atitlán	14	Cerro de Oro	6	Junio	2023-06-23T00:00:00	2024-11-08T23:00:00	3	Temperatura mínima	17.4
156612	7	Sololá	719	Santiago Atitlán	14	Cerro de Oro	6	Junio	2023-06-23T00:00:00	2024-11-08T23:00:00	5	Humedad	92
156613	7	Sololá	719	Santiago Atitlán	14	Cerro de Oro	6	Junio	2023-06-23T00:00:00	2024-11-08T23:00:00	6	Velocidad del viento	3.2
156614	7	Sololá	719	Santiago Atitlán	14	Cerro de Oro	6	Junio	2023-06-23T00:00:00	2024-11-08T23:00:00	7	Dirección del viento	3.22
156615	7	Sololá	719	Santiago Atitlán	14	Cerro de Oro	6	Junio	2023-06-23T00:00:00	2024-11-08T23:00:00	1	Precipitación	0
156616	7	Sololá	719	Santiago Atitlán	14	Cerro de Oro	6	Junio	2023-06-23T00:00:00	2024-11-08T23:00:00	8	Radiación solar	0
156617	7	Sololá	719	Santiago Atitlán	14	Cerro de Oro	6	Junio	2023-06-24T00:00:00	2024-11-08T00:00:00	2	Temperatura media	17.7
156618	7	Sololá	719	Santiago Atitlán	14	Cerro de Oro	6	Junio	2023-06-24T00:00:00	2024-11-08T00:00:00	4	Temperatura máxima	17.7
156619	7	Sololá	719	Santiago Atitlán	14	Cerro de Oro	6	Junio	2023-06-24T00:00:00	2024-11-08T00:00:00	3	Temperatura mínima	17.6
156620	7	Sololá	719	Santiago Atitlán	14	Cerro de Oro	6	Junio	2023-06-24T00:00:00	2024-11-08T00:00:00	5	Humedad	91
156621	7	Sololá	719	Santiago Atitlán	14	Cerro de Oro	6	Junio	2023-06-24T00:00:00	2024-11-08T00:00:00	6	Velocidad del viento	4.8
156622	7	Sololá	719	Santiago Atitlán	14	Cerro de Oro	6	Junio	2023-06-24T00:00:00	2024-11-08T00:00:00	7	Dirección del viento	4.83
156623	7	Sololá	719	Santiago Atitlán	14	Cerro de Oro	6	Junio	2023-06-24T00:00:00	2024-11-08T00:00:00	1	Precipitación	0
156624	7	Sololá	719	Santiago Atitlán	14	Cerro de Oro	6	Junio	2023-06-24T00:00:00	2024-11-08T00:00:00	8	Radiación solar	0
156625	7	Sololá	719	Santiago Atitlán	14	Cerro de Oro	6	Junio	2023-06-24T00:00:00	2024-11-08T01:00:00	2	Temperatura media	17.7
156626	7	Sololá	719	Santiago Atitlán	14	Cerro de Oro	6	Junio	2023-06-24T00:00:00	2024-11-08T01:00:00	4	Temperatura máxima	18.2
156627	7	Sololá	719	Santiago Atitlán	14	Cerro de Oro	6	Junio	2023-06-24T00:00:00	2024-11-08T01:00:00	3	Temperatura mínima	17.6
156628	7	Sololá	719	Santiago Atitlán	14	Cerro de Oro	6	Junio	2023-06-24T00:00:00	2024-11-08T01:00:00	5	Humedad	91
156629	7	Sololá	719	Santiago Atitlán	14	Cerro de Oro	6	Junio	2023-06-24T00:00:00	2024-11-08T01:00:00	6	Velocidad del viento	3.2
156630	7	Sololá	719	Santiago Atitlán	14	Cerro de Oro	6	Junio	2023-06-24T00:00:00	2024-11-08T01:00:00	7	Dirección del viento	3.22
156631	7	Sololá	719	Santiago Atitlán	14	Cerro de Oro	6	Junio	2023-06-24T00:00:00	2024-11-08T01:00:00	1	Precipitación	0
156632	7	Sololá	719	Santiago Atitlán	14	Cerro de Oro	6	Junio	2023-06-24T00:00:00	2024-11-08T01:00:00	8	Radiación solar	0
156633	7	Sololá	719	Santiago Atitlán	14	Cerro de Oro	6	Junio	2023-06-24T00:00:00	2024-11-08T02:00:00	2	Temperatura media	17.4
156634	7	Sololá	719	Santiago Atitlán	14	Cerro de Oro	6	Junio	2023-06-24T00:00:00	2024-11-08T02:00:00	4	Temperatura máxima	17.7
156635	7	Sololá	719	Santiago Atitlán	14	Cerro de Oro	6	Junio	2023-06-24T00:00:00	2024-11-08T02:00:00	3	Temperatura mínima	17.3
156636	7	Sololá	719	Santiago Atitlán	14	Cerro de Oro	6	Junio	2023-06-24T00:00:00	2024-11-08T02:00:00	5	Humedad	86
156637	7	Sololá	719	Santiago Atitlán	14	Cerro de Oro	6	Junio	2023-06-24T00:00:00	2024-11-08T02:00:00	6	Velocidad del viento	4.8
156638	7	Sololá	719	Santiago Atitlán	14	Cerro de Oro	6	Junio	2023-06-24T00:00:00	2024-11-08T02:00:00	7	Dirección del viento	4.83
156639	7	Sololá	719	Santiago Atitlán	14	Cerro de Oro	6	Junio	2023-06-24T00:00:00	2024-11-08T02:00:00	1	Precipitación	0
156640	7	Sololá	719	Santiago Atitlán	14	Cerro de Oro	6	Junio	2023-06-24T00:00:00	2024-11-08T02:00:00	8	Radiación solar	0
156641	7	Sololá	719	Santiago Atitlán	14	Cerro de Oro	6	Junio	2023-06-24T00:00:00	2024-11-08T03:00:00	2	Temperatura media	17.3
156642	7	Sololá	719	Santiago Atitlán	14	Cerro de Oro	6	Junio	2023-06-24T00:00:00	2024-11-08T03:00:00	4	Temperatura máxima	17.6
156643	7	Sololá	719	Santiago Atitlán	14	Cerro de Oro	6	Junio	2023-06-24T00:00:00	2024-11-08T03:00:00	3	Temperatura mínima	17.2
156644	7	Sololá	719	Santiago Atitlán	14	Cerro de Oro	6	Junio	2023-06-24T00:00:00	2024-11-08T03:00:00	5	Humedad	91
156645	7	Sololá	719	Santiago Atitlán	14	Cerro de Oro	6	Junio	2023-06-24T00:00:00	2024-11-08T03:00:00	6	Velocidad del viento	4.8
156646	7	Sololá	719	Santiago Atitlán	14	Cerro de Oro	6	Junio	2023-06-24T00:00:00	2024-11-08T03:00:00	7	Dirección del viento	4.83
156647	7	Sololá	719	Santiago Atitlán	14	Cerro de Oro	6	Junio	2023-06-24T00:00:00	2024-11-08T03:00:00	1	Precipitación	0
156648	7	Sololá	719	Santiago Atitlán	14	Cerro de Oro	6	Junio	2023-06-24T00:00:00	2024-11-08T03:00:00	8	Radiación solar	0
156649	7	Sololá	719	Santiago Atitlán	14	Cerro de Oro	6	Junio	2023-06-24T00:00:00	2024-11-08T04:00:00	2	Temperatura media	18
156650	7	Sololá	719	Santiago Atitlán	14	Cerro de Oro	6	Junio	2023-06-24T00:00:00	2024-11-08T04:00:00	4	Temperatura máxima	18
156651	7	Sololá	719	Santiago Atitlán	14	Cerro de Oro	6	Junio	2023-06-24T00:00:00	2024-11-08T04:00:00	3	Temperatura mínima	17.2
156652	7	Sololá	719	Santiago Atitlán	14	Cerro de Oro	6	Junio	2023-06-24T00:00:00	2024-11-08T04:00:00	5	Humedad	89
156653	7	Sololá	719	Santiago Atitlán	14	Cerro de Oro	6	Junio	2023-06-24T00:00:00	2024-11-08T04:00:00	6	Velocidad del viento	4.8
156654	7	Sololá	719	Santiago Atitlán	14	Cerro de Oro	6	Junio	2023-06-24T00:00:00	2024-11-08T04:00:00	7	Dirección del viento	4.83
156655	7	Sololá	719	Santiago Atitlán	14	Cerro de Oro	6	Junio	2023-06-24T00:00:00	2024-11-08T04:00:00	1	Precipitación	0
156656	7	Sololá	719	Santiago Atitlán	14	Cerro de Oro	6	Junio	2023-06-24T00:00:00	2024-11-08T04:00:00	8	Radiación solar	0
156657	7	Sololá	719	Santiago Atitlán	14	Cerro de Oro	6	Junio	2023-06-24T00:00:00	2024-11-08T05:00:00	2	Temperatura media	17.5
156658	7	Sololá	719	Santiago Atitlán	14	Cerro de Oro	6	Junio	2023-06-24T00:00:00	2024-11-08T05:00:00	4	Temperatura máxima	18
156659	7	Sololá	719	Santiago Atitlán	14	Cerro de Oro	6	Junio	2023-06-24T00:00:00	2024-11-08T05:00:00	3	Temperatura mínima	17.4
156660	7	Sololá	719	Santiago Atitlán	14	Cerro de Oro	6	Junio	2023-06-24T00:00:00	2024-11-08T05:00:00	5	Humedad	90
156661	7	Sololá	719	Santiago Atitlán	14	Cerro de Oro	6	Junio	2023-06-24T00:00:00	2024-11-08T05:00:00	6	Velocidad del viento	3.2
156662	7	Sololá	719	Santiago Atitlán	14	Cerro de Oro	6	Junio	2023-06-24T00:00:00	2024-11-08T05:00:00	7	Dirección del viento	3.22
156663	7	Sololá	719	Santiago Atitlán	14	Cerro de Oro	6	Junio	2023-06-24T00:00:00	2024-11-08T05:00:00	1	Precipitación	0
156664	7	Sololá	719	Santiago Atitlán	14	Cerro de Oro	6	Junio	2023-06-24T00:00:00	2024-11-08T05:00:00	8	Radiación solar	0
156665	7	Sololá	719	Santiago Atitlán	14	Cerro de Oro	6	Junio	2023-06-24T00:00:00	2024-11-08T06:00:00	2	Temperatura media	17.9
156666	7	Sololá	719	Santiago Atitlán	14	Cerro de Oro	6	Junio	2023-06-24T00:00:00	2024-11-08T06:00:00	4	Temperatura máxima	17.9
156667	7	Sololá	719	Santiago Atitlán	14	Cerro de Oro	6	Junio	2023-06-24T00:00:00	2024-11-08T06:00:00	3	Temperatura mínima	17.3
156668	7	Sololá	719	Santiago Atitlán	14	Cerro de Oro	6	Junio	2023-06-24T00:00:00	2024-11-08T06:00:00	5	Humedad	88
156669	7	Sololá	719	Santiago Atitlán	14	Cerro de Oro	6	Junio	2023-06-24T00:00:00	2024-11-08T06:00:00	6	Velocidad del viento	4.8
156670	7	Sololá	719	Santiago Atitlán	14	Cerro de Oro	6	Junio	2023-06-24T00:00:00	2024-11-08T06:00:00	7	Dirección del viento	4.83
156671	7	Sololá	719	Santiago Atitlán	14	Cerro de Oro	6	Junio	2023-06-24T00:00:00	2024-11-08T06:00:00	1	Precipitación	0
156672	7	Sololá	719	Santiago Atitlán	14	Cerro de Oro	6	Junio	2023-06-24T00:00:00	2024-11-08T06:00:00	8	Radiación solar	5
156673	7	Sololá	719	Santiago Atitlán	14	Cerro de Oro	6	Junio	2023-06-24T00:00:00	2024-11-08T07:00:00	2	Temperatura media	18.2
156674	7	Sololá	719	Santiago Atitlán	14	Cerro de Oro	6	Junio	2023-06-24T00:00:00	2024-11-08T07:00:00	4	Temperatura máxima	18.2
156675	7	Sololá	719	Santiago Atitlán	14	Cerro de Oro	6	Junio	2023-06-24T00:00:00	2024-11-08T07:00:00	3	Temperatura mínima	17.9
156676	7	Sololá	719	Santiago Atitlán	14	Cerro de Oro	6	Junio	2023-06-24T00:00:00	2024-11-08T07:00:00	5	Humedad	87
156677	7	Sololá	719	Santiago Atitlán	14	Cerro de Oro	6	Junio	2023-06-24T00:00:00	2024-11-08T07:00:00	6	Velocidad del viento	3.2
156678	7	Sololá	719	Santiago Atitlán	14	Cerro de Oro	6	Junio	2023-06-24T00:00:00	2024-11-08T07:00:00	7	Dirección del viento	3.22
156679	7	Sololá	719	Santiago Atitlán	14	Cerro de Oro	6	Junio	2023-06-24T00:00:00	2024-11-08T07:00:00	1	Precipitación	0
156680	7	Sololá	719	Santiago Atitlán	14	Cerro de Oro	6	Junio	2023-06-24T00:00:00	2024-11-08T07:00:00	8	Radiación solar	61
156681	7	Sololá	719	Santiago Atitlán	14	Cerro de Oro	6	Junio	2023-06-24T00:00:00	2024-11-08T08:00:00	2	Temperatura media	19.7
156682	7	Sololá	719	Santiago Atitlán	14	Cerro de Oro	6	Junio	2023-06-24T00:00:00	2024-11-08T08:00:00	4	Temperatura máxima	19.7
156683	7	Sololá	719	Santiago Atitlán	14	Cerro de Oro	6	Junio	2023-06-24T00:00:00	2024-11-08T08:00:00	3	Temperatura mínima	18.2
156684	7	Sololá	719	Santiago Atitlán	14	Cerro de Oro	6	Junio	2023-06-24T00:00:00	2024-11-08T08:00:00	5	Humedad	81
156685	7	Sololá	719	Santiago Atitlán	14	Cerro de Oro	6	Junio	2023-06-24T00:00:00	2024-11-08T08:00:00	6	Velocidad del viento	1.6
156686	7	Sololá	719	Santiago Atitlán	14	Cerro de Oro	6	Junio	2023-06-24T00:00:00	2024-11-08T08:00:00	7	Dirección del viento	1.61
156687	7	Sololá	719	Santiago Atitlán	14	Cerro de Oro	6	Junio	2023-06-24T00:00:00	2024-11-08T08:00:00	1	Precipitación	0
156688	7	Sololá	719	Santiago Atitlán	14	Cerro de Oro	6	Junio	2023-06-24T00:00:00	2024-11-08T08:00:00	8	Radiación solar	172
156689	7	Sololá	719	Santiago Atitlán	14	Cerro de Oro	6	Junio	2023-06-24T00:00:00	2024-11-08T09:00:00	2	Temperatura media	21.9
156690	7	Sololá	719	Santiago Atitlán	14	Cerro de Oro	6	Junio	2023-06-24T00:00:00	2024-11-08T09:00:00	4	Temperatura máxima	22
156691	7	Sololá	719	Santiago Atitlán	14	Cerro de Oro	6	Junio	2023-06-24T00:00:00	2024-11-08T09:00:00	3	Temperatura mínima	19.7
156692	7	Sololá	719	Santiago Atitlán	14	Cerro de Oro	6	Junio	2023-06-24T00:00:00	2024-11-08T09:00:00	5	Humedad	74
156693	7	Sololá	719	Santiago Atitlán	14	Cerro de Oro	6	Junio	2023-06-24T00:00:00	2024-11-08T09:00:00	6	Velocidad del viento	1.6
156694	7	Sololá	719	Santiago Atitlán	14	Cerro de Oro	6	Junio	2023-06-24T00:00:00	2024-11-08T09:00:00	7	Dirección del viento	1.61
156695	7	Sololá	719	Santiago Atitlán	14	Cerro de Oro	6	Junio	2023-06-24T00:00:00	2024-11-08T09:00:00	1	Precipitación	0
156696	7	Sololá	719	Santiago Atitlán	14	Cerro de Oro	6	Junio	2023-06-24T00:00:00	2024-11-08T09:00:00	8	Radiación solar	505
156697	7	Sololá	719	Santiago Atitlán	14	Cerro de Oro	6	Junio	2023-06-24T00:00:00	2024-11-08T10:00:00	2	Temperatura media	23
156698	7	Sololá	719	Santiago Atitlán	14	Cerro de Oro	6	Junio	2023-06-24T00:00:00	2024-11-08T10:00:00	4	Temperatura máxima	23
156699	7	Sololá	719	Santiago Atitlán	14	Cerro de Oro	6	Junio	2023-06-24T00:00:00	2024-11-08T10:00:00	3	Temperatura mínima	21.6
156700	7	Sololá	719	Santiago Atitlán	14	Cerro de Oro	6	Junio	2023-06-24T00:00:00	2024-11-08T10:00:00	5	Humedad	76
156701	7	Sololá	719	Santiago Atitlán	14	Cerro de Oro	6	Junio	2023-06-24T00:00:00	2024-11-08T10:00:00	6	Velocidad del viento	6.4
156702	7	Sololá	719	Santiago Atitlán	14	Cerro de Oro	6	Junio	2023-06-24T00:00:00	2024-11-08T10:00:00	7	Dirección del viento	6.44
156703	7	Sololá	719	Santiago Atitlán	14	Cerro de Oro	6	Junio	2023-06-24T00:00:00	2024-11-08T10:00:00	1	Precipitación	0
156704	7	Sololá	719	Santiago Atitlán	14	Cerro de Oro	6	Junio	2023-06-24T00:00:00	2024-11-08T10:00:00	8	Radiación solar	734
156705	7	Sololá	719	Santiago Atitlán	14	Cerro de Oro	6	Junio	2023-06-24T00:00:00	2024-11-08T11:00:00	2	Temperatura media	22.6
156706	7	Sololá	719	Santiago Atitlán	14	Cerro de Oro	6	Junio	2023-06-24T00:00:00	2024-11-08T11:00:00	4	Temperatura máxima	23
156707	7	Sololá	719	Santiago Atitlán	14	Cerro de Oro	6	Junio	2023-06-24T00:00:00	2024-11-08T11:00:00	3	Temperatura mínima	21.5
156708	7	Sololá	719	Santiago Atitlán	14	Cerro de Oro	6	Junio	2023-06-24T00:00:00	2024-11-08T11:00:00	5	Humedad	77
156709	7	Sololá	719	Santiago Atitlán	14	Cerro de Oro	6	Junio	2023-06-24T00:00:00	2024-11-08T11:00:00	6	Velocidad del viento	8
156710	7	Sololá	719	Santiago Atitlán	14	Cerro de Oro	6	Junio	2023-06-24T00:00:00	2024-11-08T11:00:00	7	Dirección del viento	8.05
156711	7	Sololá	719	Santiago Atitlán	14	Cerro de Oro	6	Junio	2023-06-24T00:00:00	2024-11-08T11:00:00	1	Precipitación	0
156712	7	Sololá	719	Santiago Atitlán	14	Cerro de Oro	6	Junio	2023-06-24T00:00:00	2024-11-08T11:00:00	8	Radiación solar	554
156713	7	Sololá	719	Santiago Atitlán	14	Cerro de Oro	6	Junio	2023-06-24T00:00:00	2024-11-08T12:00:00	2	Temperatura media	23.5
156714	7	Sololá	719	Santiago Atitlán	14	Cerro de Oro	6	Junio	2023-06-24T00:00:00	2024-11-08T12:00:00	4	Temperatura máxima	23.8
156715	7	Sololá	719	Santiago Atitlán	14	Cerro de Oro	6	Junio	2023-06-24T00:00:00	2024-11-08T12:00:00	3	Temperatura mínima	22.4
156716	7	Sololá	719	Santiago Atitlán	14	Cerro de Oro	6	Junio	2023-06-24T00:00:00	2024-11-08T12:00:00	5	Humedad	74
156717	7	Sololá	719	Santiago Atitlán	14	Cerro de Oro	6	Junio	2023-06-24T00:00:00	2024-11-08T12:00:00	6	Velocidad del viento	6.4
156718	7	Sololá	719	Santiago Atitlán	14	Cerro de Oro	6	Junio	2023-06-24T00:00:00	2024-11-08T12:00:00	7	Dirección del viento	6.44
156719	7	Sololá	719	Santiago Atitlán	14	Cerro de Oro	6	Junio	2023-06-24T00:00:00	2024-11-08T12:00:00	1	Precipitación	0
156720	7	Sololá	719	Santiago Atitlán	14	Cerro de Oro	6	Junio	2023-06-24T00:00:00	2024-11-08T12:00:00	8	Radiación solar	980
156721	7	Sololá	719	Santiago Atitlán	14	Cerro de Oro	6	Junio	2023-06-24T00:00:00	2024-11-08T13:00:00	2	Temperatura media	23.5
156722	7	Sololá	719	Santiago Atitlán	14	Cerro de Oro	6	Junio	2023-06-24T00:00:00	2024-11-08T13:00:00	4	Temperatura máxima	23.8
156723	7	Sololá	719	Santiago Atitlán	14	Cerro de Oro	6	Junio	2023-06-24T00:00:00	2024-11-08T13:00:00	3	Temperatura mínima	23.3
156724	7	Sololá	719	Santiago Atitlán	14	Cerro de Oro	6	Junio	2023-06-24T00:00:00	2024-11-08T13:00:00	5	Humedad	75
156725	7	Sololá	719	Santiago Atitlán	14	Cerro de Oro	6	Junio	2023-06-24T00:00:00	2024-11-08T13:00:00	6	Velocidad del viento	6.4
156726	7	Sololá	719	Santiago Atitlán	14	Cerro de Oro	6	Junio	2023-06-24T00:00:00	2024-11-08T13:00:00	7	Dirección del viento	6.44
156727	7	Sololá	719	Santiago Atitlán	14	Cerro de Oro	6	Junio	2023-06-24T00:00:00	2024-11-08T13:00:00	1	Precipitación	0
156728	7	Sololá	719	Santiago Atitlán	14	Cerro de Oro	6	Junio	2023-06-24T00:00:00	2024-11-08T13:00:00	8	Radiación solar	823
156729	7	Sololá	719	Santiago Atitlán	14	Cerro de Oro	6	Junio	2023-06-24T00:00:00	2024-11-08T14:00:00	2	Temperatura media	23.6
156730	7	Sololá	719	Santiago Atitlán	14	Cerro de Oro	6	Junio	2023-06-24T00:00:00	2024-11-08T14:00:00	4	Temperatura máxima	23.7
156731	7	Sololá	719	Santiago Atitlán	14	Cerro de Oro	6	Junio	2023-06-24T00:00:00	2024-11-08T14:00:00	3	Temperatura mínima	23.1
156732	7	Sololá	719	Santiago Atitlán	14	Cerro de Oro	6	Junio	2023-06-24T00:00:00	2024-11-08T14:00:00	5	Humedad	76
156733	7	Sololá	719	Santiago Atitlán	14	Cerro de Oro	6	Junio	2023-06-24T00:00:00	2024-11-08T14:00:00	6	Velocidad del viento	8
156734	7	Sololá	719	Santiago Atitlán	14	Cerro de Oro	6	Junio	2023-06-24T00:00:00	2024-11-08T14:00:00	7	Dirección del viento	8.05
156735	7	Sololá	719	Santiago Atitlán	14	Cerro de Oro	6	Junio	2023-06-24T00:00:00	2024-11-08T14:00:00	1	Precipitación	0
156736	7	Sololá	719	Santiago Atitlán	14	Cerro de Oro	6	Junio	2023-06-24T00:00:00	2024-11-08T14:00:00	8	Radiación solar	444
156737	7	Sololá	719	Santiago Atitlán	14	Cerro de Oro	6	Junio	2023-06-24T00:00:00	2024-11-08T15:00:00	2	Temperatura media	23.1
156738	7	Sololá	719	Santiago Atitlán	14	Cerro de Oro	6	Junio	2023-06-24T00:00:00	2024-11-08T15:00:00	4	Temperatura máxima	24.1
156739	7	Sololá	719	Santiago Atitlán	14	Cerro de Oro	6	Junio	2023-06-24T00:00:00	2024-11-08T15:00:00	3	Temperatura mínima	23.1
156740	7	Sololá	719	Santiago Atitlán	14	Cerro de Oro	6	Junio	2023-06-24T00:00:00	2024-11-08T15:00:00	5	Humedad	80
156741	7	Sololá	719	Santiago Atitlán	14	Cerro de Oro	6	Junio	2023-06-24T00:00:00	2024-11-08T15:00:00	6	Velocidad del viento	9.7
156742	7	Sololá	719	Santiago Atitlán	14	Cerro de Oro	6	Junio	2023-06-24T00:00:00	2024-11-08T15:00:00	7	Dirección del viento	9.66
156743	7	Sololá	719	Santiago Atitlán	14	Cerro de Oro	6	Junio	2023-06-24T00:00:00	2024-11-08T15:00:00	1	Precipitación	0
156744	7	Sololá	719	Santiago Atitlán	14	Cerro de Oro	6	Junio	2023-06-24T00:00:00	2024-11-08T15:00:00	8	Radiación solar	677
156745	7	Sololá	719	Santiago Atitlán	14	Cerro de Oro	6	Junio	2023-06-24T00:00:00	2024-11-08T16:00:00	2	Temperatura media	22.1
156746	7	Sololá	719	Santiago Atitlán	14	Cerro de Oro	6	Junio	2023-06-24T00:00:00	2024-11-08T16:00:00	4	Temperatura máxima	23.2
156747	7	Sololá	719	Santiago Atitlán	14	Cerro de Oro	6	Junio	2023-06-24T00:00:00	2024-11-08T16:00:00	3	Temperatura mínima	21.8
156748	7	Sololá	719	Santiago Atitlán	14	Cerro de Oro	6	Junio	2023-06-24T00:00:00	2024-11-08T16:00:00	5	Humedad	81
156749	7	Sololá	719	Santiago Atitlán	14	Cerro de Oro	6	Junio	2023-06-24T00:00:00	2024-11-08T16:00:00	6	Velocidad del viento	9.7
156750	7	Sololá	719	Santiago Atitlán	14	Cerro de Oro	6	Junio	2023-06-24T00:00:00	2024-11-08T16:00:00	7	Dirección del viento	9.66
156751	7	Sololá	719	Santiago Atitlán	14	Cerro de Oro	6	Junio	2023-06-24T00:00:00	2024-11-08T16:00:00	1	Precipitación	0
156752	7	Sololá	719	Santiago Atitlán	14	Cerro de Oro	6	Junio	2023-06-24T00:00:00	2024-11-08T16:00:00	8	Radiación solar	314
156753	7	Sololá	719	Santiago Atitlán	14	Cerro de Oro	6	Junio	2023-06-24T00:00:00	2024-11-08T17:00:00	2	Temperatura media	19.5
156754	7	Sololá	719	Santiago Atitlán	14	Cerro de Oro	6	Junio	2023-06-24T00:00:00	2024-11-08T17:00:00	4	Temperatura máxima	22.1
156755	7	Sololá	719	Santiago Atitlán	14	Cerro de Oro	6	Junio	2023-06-24T00:00:00	2024-11-08T17:00:00	3	Temperatura mínima	19.4
156756	7	Sololá	719	Santiago Atitlán	14	Cerro de Oro	6	Junio	2023-06-24T00:00:00	2024-11-08T17:00:00	5	Humedad	85
156757	7	Sololá	719	Santiago Atitlán	14	Cerro de Oro	6	Junio	2023-06-24T00:00:00	2024-11-08T17:00:00	6	Velocidad del viento	11.3
156758	7	Sololá	719	Santiago Atitlán	14	Cerro de Oro	6	Junio	2023-06-24T00:00:00	2024-11-08T17:00:00	7	Dirección del viento	11.27
156759	7	Sololá	719	Santiago Atitlán	14	Cerro de Oro	6	Junio	2023-06-24T00:00:00	2024-11-08T17:00:00	1	Precipitación	2.6
156760	7	Sololá	719	Santiago Atitlán	14	Cerro de Oro	6	Junio	2023-06-24T00:00:00	2024-11-08T17:00:00	8	Radiación solar	127
156761	7	Sololá	719	Santiago Atitlán	14	Cerro de Oro	6	Junio	2023-06-24T00:00:00	2024-11-08T18:00:00	2	Temperatura media	18.3
156762	7	Sololá	719	Santiago Atitlán	14	Cerro de Oro	6	Junio	2023-06-24T00:00:00	2024-11-08T18:00:00	4	Temperatura máxima	19.5
156763	7	Sololá	719	Santiago Atitlán	14	Cerro de Oro	6	Junio	2023-06-24T00:00:00	2024-11-08T18:00:00	3	Temperatura mínima	18.2
156764	7	Sololá	719	Santiago Atitlán	14	Cerro de Oro	6	Junio	2023-06-24T00:00:00	2024-11-08T18:00:00	5	Humedad	90
156765	7	Sololá	719	Santiago Atitlán	14	Cerro de Oro	6	Junio	2023-06-24T00:00:00	2024-11-08T18:00:00	6	Velocidad del viento	8
156766	7	Sololá	719	Santiago Atitlán	14	Cerro de Oro	6	Junio	2023-06-24T00:00:00	2024-11-08T18:00:00	7	Dirección del viento	8.05
156767	7	Sololá	719	Santiago Atitlán	14	Cerro de Oro	6	Junio	2023-06-24T00:00:00	2024-11-08T18:00:00	1	Precipitación	0.6
156768	7	Sololá	719	Santiago Atitlán	14	Cerro de Oro	6	Junio	2023-06-24T00:00:00	2024-11-08T18:00:00	8	Radiación solar	9
156769	7	Sololá	719	Santiago Atitlán	14	Cerro de Oro	6	Junio	2023-06-24T00:00:00	2024-11-08T19:00:00	2	Temperatura media	18.5
156770	7	Sololá	719	Santiago Atitlán	14	Cerro de Oro	6	Junio	2023-06-24T00:00:00	2024-11-08T19:00:00	4	Temperatura máxima	18.6
156771	7	Sololá	719	Santiago Atitlán	14	Cerro de Oro	6	Junio	2023-06-24T00:00:00	2024-11-08T19:00:00	3	Temperatura mínima	18.3
156772	7	Sololá	719	Santiago Atitlán	14	Cerro de Oro	6	Junio	2023-06-24T00:00:00	2024-11-08T19:00:00	5	Humedad	91
156773	7	Sololá	719	Santiago Atitlán	14	Cerro de Oro	6	Junio	2023-06-24T00:00:00	2024-11-08T19:00:00	6	Velocidad del viento	3.2
156774	7	Sololá	719	Santiago Atitlán	14	Cerro de Oro	6	Junio	2023-06-24T00:00:00	2024-11-08T19:00:00	7	Dirección del viento	3.22
156775	7	Sololá	719	Santiago Atitlán	14	Cerro de Oro	6	Junio	2023-06-24T00:00:00	2024-11-08T19:00:00	1	Precipitación	0
156776	7	Sololá	719	Santiago Atitlán	14	Cerro de Oro	6	Junio	2023-06-24T00:00:00	2024-11-08T19:00:00	8	Radiación solar	0
156777	7	Sololá	719	Santiago Atitlán	14	Cerro de Oro	6	Junio	2023-06-24T00:00:00	2024-11-08T20:00:00	2	Temperatura media	18.5
156778	7	Sololá	719	Santiago Atitlán	14	Cerro de Oro	6	Junio	2023-06-24T00:00:00	2024-11-08T20:00:00	4	Temperatura máxima	18.8
156779	7	Sololá	719	Santiago Atitlán	14	Cerro de Oro	6	Junio	2023-06-24T00:00:00	2024-11-08T20:00:00	3	Temperatura mínima	18.4
156780	7	Sololá	719	Santiago Atitlán	14	Cerro de Oro	6	Junio	2023-06-24T00:00:00	2024-11-08T20:00:00	5	Humedad	92
156781	7	Sololá	719	Santiago Atitlán	14	Cerro de Oro	6	Junio	2023-06-24T00:00:00	2024-11-08T20:00:00	6	Velocidad del viento	3.2
156782	7	Sololá	719	Santiago Atitlán	14	Cerro de Oro	6	Junio	2023-06-24T00:00:00	2024-11-08T20:00:00	7	Dirección del viento	3.22
156783	7	Sololá	719	Santiago Atitlán	14	Cerro de Oro	6	Junio	2023-06-24T00:00:00	2024-11-08T20:00:00	1	Precipitación	0
156784	7	Sololá	719	Santiago Atitlán	14	Cerro de Oro	6	Junio	2023-06-24T00:00:00	2024-11-08T20:00:00	8	Radiación solar	0
156785	7	Sololá	719	Santiago Atitlán	14	Cerro de Oro	6	Junio	2023-06-24T00:00:00	2024-11-08T21:00:00	2	Temperatura media	18.7
156786	7	Sololá	719	Santiago Atitlán	14	Cerro de Oro	6	Junio	2023-06-24T00:00:00	2024-11-08T21:00:00	4	Temperatura máxima	18.8
156787	7	Sololá	719	Santiago Atitlán	14	Cerro de Oro	6	Junio	2023-06-24T00:00:00	2024-11-08T21:00:00	3	Temperatura mínima	18.4
156788	7	Sololá	719	Santiago Atitlán	14	Cerro de Oro	6	Junio	2023-06-24T00:00:00	2024-11-08T21:00:00	5	Humedad	88
156789	7	Sololá	719	Santiago Atitlán	14	Cerro de Oro	6	Junio	2023-06-24T00:00:00	2024-11-08T21:00:00	6	Velocidad del viento	1.6
156790	7	Sololá	719	Santiago Atitlán	14	Cerro de Oro	6	Junio	2023-06-24T00:00:00	2024-11-08T21:00:00	7	Dirección del viento	1.61
156791	7	Sololá	719	Santiago Atitlán	14	Cerro de Oro	6	Junio	2023-06-24T00:00:00	2024-11-08T21:00:00	1	Precipitación	0
156792	7	Sololá	719	Santiago Atitlán	14	Cerro de Oro	6	Junio	2023-06-24T00:00:00	2024-11-08T21:00:00	8	Radiación solar	0
156793	7	Sololá	719	Santiago Atitlán	14	Cerro de Oro	6	Junio	2023-06-24T00:00:00	2024-11-08T22:00:00	2	Temperatura media	18.6
156794	7	Sololá	719	Santiago Atitlán	14	Cerro de Oro	6	Junio	2023-06-24T00:00:00	2024-11-08T22:00:00	4	Temperatura máxima	18.8
156795	7	Sololá	719	Santiago Atitlán	14	Cerro de Oro	6	Junio	2023-06-24T00:00:00	2024-11-08T22:00:00	3	Temperatura mínima	18.4
156796	7	Sololá	719	Santiago Atitlán	14	Cerro de Oro	6	Junio	2023-06-24T00:00:00	2024-11-08T22:00:00	5	Humedad	90
156797	7	Sololá	719	Santiago Atitlán	14	Cerro de Oro	6	Junio	2023-06-24T00:00:00	2024-11-08T22:00:00	6	Velocidad del viento	4.8
156798	7	Sololá	719	Santiago Atitlán	14	Cerro de Oro	6	Junio	2023-06-24T00:00:00	2024-11-08T22:00:00	7	Dirección del viento	4.83
156799	7	Sololá	719	Santiago Atitlán	14	Cerro de Oro	6	Junio	2023-06-24T00:00:00	2024-11-08T22:00:00	1	Precipitación	0
156800	7	Sololá	719	Santiago Atitlán	14	Cerro de Oro	6	Junio	2023-06-24T00:00:00	2024-11-08T22:00:00	8	Radiación solar	0
156801	7	Sololá	719	Santiago Atitlán	14	Cerro de Oro	6	Junio	2023-06-24T00:00:00	2024-11-08T23:00:00	2	Temperatura media	18.4
156802	7	Sololá	719	Santiago Atitlán	14	Cerro de Oro	6	Junio	2023-06-24T00:00:00	2024-11-08T23:00:00	4	Temperatura máxima	18.7
156803	7	Sololá	719	Santiago Atitlán	14	Cerro de Oro	6	Junio	2023-06-24T00:00:00	2024-11-08T23:00:00	3	Temperatura mínima	18.4
156804	7	Sololá	719	Santiago Atitlán	14	Cerro de Oro	6	Junio	2023-06-24T00:00:00	2024-11-08T23:00:00	5	Humedad	90
156805	7	Sololá	719	Santiago Atitlán	14	Cerro de Oro	6	Junio	2023-06-24T00:00:00	2024-11-08T23:00:00	6	Velocidad del viento	3.2
156806	7	Sololá	719	Santiago Atitlán	14	Cerro de Oro	6	Junio	2023-06-24T00:00:00	2024-11-08T23:00:00	7	Dirección del viento	3.22
156807	7	Sololá	719	Santiago Atitlán	14	Cerro de Oro	6	Junio	2023-06-24T00:00:00	2024-11-08T23:00:00	1	Precipitación	0
156808	7	Sololá	719	Santiago Atitlán	14	Cerro de Oro	6	Junio	2023-06-24T00:00:00	2024-11-08T23:00:00	8	Radiación solar	0
156809	7	Sololá	719	Santiago Atitlán	14	Cerro de Oro	6	Junio	2023-06-25T00:00:00	2024-11-08T00:00:00	2	Temperatura media	17.2
156810	7	Sololá	719	Santiago Atitlán	14	Cerro de Oro	6	Junio	2023-06-25T00:00:00	2024-11-08T00:00:00	4	Temperatura máxima	18.5
156811	7	Sololá	719	Santiago Atitlán	14	Cerro de Oro	6	Junio	2023-06-25T00:00:00	2024-11-08T00:00:00	3	Temperatura mínima	17.1
156812	7	Sololá	719	Santiago Atitlán	14	Cerro de Oro	6	Junio	2023-06-25T00:00:00	2024-11-08T00:00:00	5	Humedad	90
156813	7	Sololá	719	Santiago Atitlán	14	Cerro de Oro	6	Junio	2023-06-25T00:00:00	2024-11-08T00:00:00	6	Velocidad del viento	8
156814	7	Sololá	719	Santiago Atitlán	14	Cerro de Oro	6	Junio	2023-06-25T00:00:00	2024-11-08T00:00:00	7	Dirección del viento	8.05
156815	7	Sololá	719	Santiago Atitlán	14	Cerro de Oro	6	Junio	2023-06-25T00:00:00	2024-11-08T00:00:00	1	Precipitación	0
156816	7	Sololá	719	Santiago Atitlán	14	Cerro de Oro	6	Junio	2023-06-25T00:00:00	2024-11-08T00:00:00	8	Radiación solar	0
156817	7	Sololá	719	Santiago Atitlán	14	Cerro de Oro	6	Junio	2023-06-25T00:00:00	2024-11-08T01:00:00	2	Temperatura media	18.1
156818	7	Sololá	719	Santiago Atitlán	14	Cerro de Oro	6	Junio	2023-06-25T00:00:00	2024-11-08T01:00:00	4	Temperatura máxima	18.2
156819	7	Sololá	719	Santiago Atitlán	14	Cerro de Oro	6	Junio	2023-06-25T00:00:00	2024-11-08T01:00:00	3	Temperatura mínima	17.3
156820	7	Sololá	719	Santiago Atitlán	14	Cerro de Oro	6	Junio	2023-06-25T00:00:00	2024-11-08T01:00:00	5	Humedad	84
156821	7	Sololá	719	Santiago Atitlán	14	Cerro de Oro	6	Junio	2023-06-25T00:00:00	2024-11-08T01:00:00	6	Velocidad del viento	9.7
156822	7	Sololá	719	Santiago Atitlán	14	Cerro de Oro	6	Junio	2023-06-25T00:00:00	2024-11-08T01:00:00	7	Dirección del viento	9.66
156823	7	Sololá	719	Santiago Atitlán	14	Cerro de Oro	6	Junio	2023-06-25T00:00:00	2024-11-08T01:00:00	1	Precipitación	0
156824	7	Sololá	719	Santiago Atitlán	14	Cerro de Oro	6	Junio	2023-06-25T00:00:00	2024-11-08T01:00:00	8	Radiación solar	0
156825	7	Sololá	719	Santiago Atitlán	14	Cerro de Oro	6	Junio	2023-06-25T00:00:00	2024-11-08T02:00:00	2	Temperatura media	17.3
156826	7	Sololá	719	Santiago Atitlán	14	Cerro de Oro	6	Junio	2023-06-25T00:00:00	2024-11-08T02:00:00	4	Temperatura máxima	18.1
156827	7	Sololá	719	Santiago Atitlán	14	Cerro de Oro	6	Junio	2023-06-25T00:00:00	2024-11-08T02:00:00	3	Temperatura mínima	17.3
156828	7	Sololá	719	Santiago Atitlán	14	Cerro de Oro	6	Junio	2023-06-25T00:00:00	2024-11-08T02:00:00	5	Humedad	92
156829	7	Sololá	719	Santiago Atitlán	14	Cerro de Oro	6	Junio	2023-06-25T00:00:00	2024-11-08T02:00:00	6	Velocidad del viento	4.8
156830	7	Sololá	719	Santiago Atitlán	14	Cerro de Oro	6	Junio	2023-06-25T00:00:00	2024-11-08T02:00:00	7	Dirección del viento	4.83
156831	7	Sololá	719	Santiago Atitlán	14	Cerro de Oro	6	Junio	2023-06-25T00:00:00	2024-11-08T02:00:00	1	Precipitación	1.2
156832	7	Sololá	719	Santiago Atitlán	14	Cerro de Oro	6	Junio	2023-06-25T00:00:00	2024-11-08T02:00:00	8	Radiación solar	0
156833	7	Sololá	719	Santiago Atitlán	14	Cerro de Oro	6	Junio	2023-06-25T00:00:00	2024-11-08T03:00:00	2	Temperatura media	17.5
156834	7	Sololá	719	Santiago Atitlán	14	Cerro de Oro	6	Junio	2023-06-25T00:00:00	2024-11-08T03:00:00	4	Temperatura máxima	18.1
156835	7	Sololá	719	Santiago Atitlán	14	Cerro de Oro	6	Junio	2023-06-25T00:00:00	2024-11-08T03:00:00	3	Temperatura mínima	17.3
156836	7	Sololá	719	Santiago Atitlán	14	Cerro de Oro	6	Junio	2023-06-25T00:00:00	2024-11-08T03:00:00	5	Humedad	83
156837	7	Sololá	719	Santiago Atitlán	14	Cerro de Oro	6	Junio	2023-06-25T00:00:00	2024-11-08T03:00:00	6	Velocidad del viento	4.8
156838	7	Sololá	719	Santiago Atitlán	14	Cerro de Oro	6	Junio	2023-06-25T00:00:00	2024-11-08T03:00:00	7	Dirección del viento	4.83
156839	7	Sololá	719	Santiago Atitlán	14	Cerro de Oro	6	Junio	2023-06-25T00:00:00	2024-11-08T03:00:00	1	Precipitación	0
156840	7	Sololá	719	Santiago Atitlán	14	Cerro de Oro	6	Junio	2023-06-25T00:00:00	2024-11-08T03:00:00	8	Radiación solar	0
156841	7	Sololá	719	Santiago Atitlán	14	Cerro de Oro	6	Junio	2023-06-25T00:00:00	2024-11-08T04:00:00	2	Temperatura media	17.5
156842	7	Sololá	719	Santiago Atitlán	14	Cerro de Oro	6	Junio	2023-06-25T00:00:00	2024-11-08T04:00:00	4	Temperatura máxima	17.8
156843	7	Sololá	719	Santiago Atitlán	14	Cerro de Oro	6	Junio	2023-06-25T00:00:00	2024-11-08T04:00:00	3	Temperatura mínima	16.9
156844	7	Sololá	719	Santiago Atitlán	14	Cerro de Oro	6	Junio	2023-06-25T00:00:00	2024-11-08T04:00:00	5	Humedad	84
156845	7	Sololá	719	Santiago Atitlán	14	Cerro de Oro	6	Junio	2023-06-25T00:00:00	2024-11-08T04:00:00	6	Velocidad del viento	6.4
156846	7	Sololá	719	Santiago Atitlán	14	Cerro de Oro	6	Junio	2023-06-25T00:00:00	2024-11-08T04:00:00	7	Dirección del viento	6.44
156847	7	Sololá	719	Santiago Atitlán	14	Cerro de Oro	6	Junio	2023-06-25T00:00:00	2024-11-08T04:00:00	1	Precipitación	0
156848	7	Sololá	719	Santiago Atitlán	14	Cerro de Oro	6	Junio	2023-06-25T00:00:00	2024-11-08T04:00:00	8	Radiación solar	0
156849	7	Sololá	719	Santiago Atitlán	14	Cerro de Oro	6	Junio	2023-06-25T00:00:00	2024-11-08T05:00:00	2	Temperatura media	18
156850	7	Sololá	719	Santiago Atitlán	14	Cerro de Oro	6	Junio	2023-06-25T00:00:00	2024-11-08T05:00:00	4	Temperatura máxima	18
156851	7	Sololá	719	Santiago Atitlán	14	Cerro de Oro	6	Junio	2023-06-25T00:00:00	2024-11-08T05:00:00	3	Temperatura mínima	17.2
156852	7	Sololá	719	Santiago Atitlán	14	Cerro de Oro	6	Junio	2023-06-25T00:00:00	2024-11-08T05:00:00	5	Humedad	83
156853	7	Sololá	719	Santiago Atitlán	14	Cerro de Oro	6	Junio	2023-06-25T00:00:00	2024-11-08T05:00:00	6	Velocidad del viento	4.8
156854	7	Sololá	719	Santiago Atitlán	14	Cerro de Oro	6	Junio	2023-06-25T00:00:00	2024-11-08T05:00:00	7	Dirección del viento	4.83
156855	7	Sololá	719	Santiago Atitlán	14	Cerro de Oro	6	Junio	2023-06-25T00:00:00	2024-11-08T05:00:00	1	Precipitación	0
156856	7	Sololá	719	Santiago Atitlán	14	Cerro de Oro	6	Junio	2023-06-25T00:00:00	2024-11-08T05:00:00	8	Radiación solar	0
156857	7	Sololá	719	Santiago Atitlán	14	Cerro de Oro	6	Junio	2023-06-25T00:00:00	2024-11-08T06:00:00	2	Temperatura media	18.2
156858	7	Sololá	719	Santiago Atitlán	14	Cerro de Oro	6	Junio	2023-06-25T00:00:00	2024-11-08T06:00:00	4	Temperatura máxima	18.2
156859	7	Sololá	719	Santiago Atitlán	14	Cerro de Oro	6	Junio	2023-06-25T00:00:00	2024-11-08T06:00:00	3	Temperatura mínima	17.8
156860	7	Sololá	719	Santiago Atitlán	14	Cerro de Oro	6	Junio	2023-06-25T00:00:00	2024-11-08T06:00:00	5	Humedad	80
156861	7	Sololá	719	Santiago Atitlán	14	Cerro de Oro	6	Junio	2023-06-25T00:00:00	2024-11-08T06:00:00	6	Velocidad del viento	3.2
156862	7	Sololá	719	Santiago Atitlán	14	Cerro de Oro	6	Junio	2023-06-25T00:00:00	2024-11-08T06:00:00	7	Dirección del viento	3.22
156863	7	Sololá	719	Santiago Atitlán	14	Cerro de Oro	6	Junio	2023-06-25T00:00:00	2024-11-08T06:00:00	1	Precipitación	0
156864	7	Sololá	719	Santiago Atitlán	14	Cerro de Oro	6	Junio	2023-06-25T00:00:00	2024-11-08T06:00:00	8	Radiación solar	4
156865	7	Sololá	719	Santiago Atitlán	14	Cerro de Oro	6	Junio	2023-06-25T00:00:00	2024-11-08T07:00:00	2	Temperatura media	18.9
156866	7	Sololá	719	Santiago Atitlán	14	Cerro de Oro	6	Junio	2023-06-25T00:00:00	2024-11-08T07:00:00	4	Temperatura máxima	18.9
156867	7	Sololá	719	Santiago Atitlán	14	Cerro de Oro	6	Junio	2023-06-25T00:00:00	2024-11-08T07:00:00	3	Temperatura mínima	18
156868	7	Sololá	719	Santiago Atitlán	14	Cerro de Oro	6	Junio	2023-06-25T00:00:00	2024-11-08T07:00:00	5	Humedad	79
156869	7	Sololá	719	Santiago Atitlán	14	Cerro de Oro	6	Junio	2023-06-25T00:00:00	2024-11-08T07:00:00	6	Velocidad del viento	4.8
156870	7	Sololá	719	Santiago Atitlán	14	Cerro de Oro	6	Junio	2023-06-25T00:00:00	2024-11-08T07:00:00	7	Dirección del viento	4.83
156871	7	Sololá	719	Santiago Atitlán	14	Cerro de Oro	6	Junio	2023-06-25T00:00:00	2024-11-08T07:00:00	1	Precipitación	0
156872	7	Sololá	719	Santiago Atitlán	14	Cerro de Oro	6	Junio	2023-06-25T00:00:00	2024-11-08T07:00:00	8	Radiación solar	90
156873	7	Sololá	719	Santiago Atitlán	14	Cerro de Oro	6	Junio	2023-06-25T00:00:00	2024-11-08T08:00:00	2	Temperatura media	21.1
156874	7	Sololá	719	Santiago Atitlán	14	Cerro de Oro	6	Junio	2023-06-25T00:00:00	2024-11-08T08:00:00	4	Temperatura máxima	21.4
156875	7	Sololá	719	Santiago Atitlán	14	Cerro de Oro	6	Junio	2023-06-25T00:00:00	2024-11-08T08:00:00	3	Temperatura mínima	18.9
156876	7	Sololá	719	Santiago Atitlán	14	Cerro de Oro	6	Junio	2023-06-25T00:00:00	2024-11-08T08:00:00	5	Humedad	67
156877	7	Sololá	719	Santiago Atitlán	14	Cerro de Oro	6	Junio	2023-06-25T00:00:00	2024-11-08T08:00:00	6	Velocidad del viento	3.2
156878	7	Sololá	719	Santiago Atitlán	14	Cerro de Oro	6	Junio	2023-06-25T00:00:00	2024-11-08T08:00:00	7	Dirección del viento	3.22
156879	7	Sololá	719	Santiago Atitlán	14	Cerro de Oro	6	Junio	2023-06-25T00:00:00	2024-11-08T08:00:00	1	Precipitación	0
156880	7	Sololá	719	Santiago Atitlán	14	Cerro de Oro	6	Junio	2023-06-25T00:00:00	2024-11-08T08:00:00	8	Radiación solar	270
156881	7	Sololá	719	Santiago Atitlán	14	Cerro de Oro	6	Junio	2023-06-25T00:00:00	2024-11-08T09:00:00	2	Temperatura media	22.5
156882	7	Sololá	719	Santiago Atitlán	14	Cerro de Oro	6	Junio	2023-06-25T00:00:00	2024-11-08T09:00:00	4	Temperatura máxima	22.5
156883	7	Sololá	719	Santiago Atitlán	14	Cerro de Oro	6	Junio	2023-06-25T00:00:00	2024-11-08T09:00:00	3	Temperatura mínima	21.1
156884	7	Sololá	719	Santiago Atitlán	14	Cerro de Oro	6	Junio	2023-06-25T00:00:00	2024-11-08T09:00:00	5	Humedad	60
156885	7	Sololá	719	Santiago Atitlán	14	Cerro de Oro	6	Junio	2023-06-25T00:00:00	2024-11-08T09:00:00	6	Velocidad del viento	4.8
156886	7	Sololá	719	Santiago Atitlán	14	Cerro de Oro	6	Junio	2023-06-25T00:00:00	2024-11-08T09:00:00	7	Dirección del viento	4.83
156887	7	Sololá	719	Santiago Atitlán	14	Cerro de Oro	6	Junio	2023-06-25T00:00:00	2024-11-08T09:00:00	1	Precipitación	0
156888	7	Sololá	719	Santiago Atitlán	14	Cerro de Oro	6	Junio	2023-06-25T00:00:00	2024-11-08T09:00:00	8	Radiación solar	314
156889	7	Sololá	719	Santiago Atitlán	14	Cerro de Oro	6	Junio	2023-06-25T00:00:00	2024-11-08T10:00:00	2	Temperatura media	24.6
156890	7	Sololá	719	Santiago Atitlán	14	Cerro de Oro	6	Junio	2023-06-25T00:00:00	2024-11-08T10:00:00	4	Temperatura máxima	24.6
156891	7	Sololá	719	Santiago Atitlán	14	Cerro de Oro	6	Junio	2023-06-25T00:00:00	2024-11-08T10:00:00	3	Temperatura mínima	22.5
156892	7	Sololá	719	Santiago Atitlán	14	Cerro de Oro	6	Junio	2023-06-25T00:00:00	2024-11-08T10:00:00	5	Humedad	53
156893	7	Sololá	719	Santiago Atitlán	14	Cerro de Oro	6	Junio	2023-06-25T00:00:00	2024-11-08T10:00:00	6	Velocidad del viento	8
156894	7	Sololá	719	Santiago Atitlán	14	Cerro de Oro	6	Junio	2023-06-25T00:00:00	2024-11-08T10:00:00	7	Dirección del viento	8.05
156895	7	Sololá	719	Santiago Atitlán	14	Cerro de Oro	6	Junio	2023-06-25T00:00:00	2024-11-08T10:00:00	1	Precipitación	0
156896	7	Sololá	719	Santiago Atitlán	14	Cerro de Oro	6	Junio	2023-06-25T00:00:00	2024-11-08T10:00:00	8	Radiación solar	646
156897	7	Sololá	719	Santiago Atitlán	14	Cerro de Oro	6	Junio	2023-06-25T00:00:00	2024-11-08T11:00:00	2	Temperatura media	23.3
156898	7	Sololá	719	Santiago Atitlán	14	Cerro de Oro	6	Junio	2023-06-25T00:00:00	2024-11-08T11:00:00	4	Temperatura máxima	24.9
156899	7	Sololá	719	Santiago Atitlán	14	Cerro de Oro	6	Junio	2023-06-25T00:00:00	2024-11-08T11:00:00	3	Temperatura mínima	23.2
156900	7	Sololá	719	Santiago Atitlán	14	Cerro de Oro	6	Junio	2023-06-25T00:00:00	2024-11-08T11:00:00	5	Humedad	67
156901	7	Sololá	719	Santiago Atitlán	14	Cerro de Oro	6	Junio	2023-06-25T00:00:00	2024-11-08T11:00:00	6	Velocidad del viento	4.8
156902	7	Sololá	719	Santiago Atitlán	14	Cerro de Oro	6	Junio	2023-06-25T00:00:00	2024-11-08T11:00:00	7	Dirección del viento	4.83
156903	7	Sololá	719	Santiago Atitlán	14	Cerro de Oro	6	Junio	2023-06-25T00:00:00	2024-11-08T11:00:00	1	Precipitación	0
156904	7	Sololá	719	Santiago Atitlán	14	Cerro de Oro	6	Junio	2023-06-25T00:00:00	2024-11-08T11:00:00	8	Radiación solar	605
156905	7	Sololá	719	Santiago Atitlán	14	Cerro de Oro	6	Junio	2023-06-25T00:00:00	2024-11-08T12:00:00	2	Temperatura media	25.3
156906	7	Sololá	719	Santiago Atitlán	14	Cerro de Oro	6	Junio	2023-06-25T00:00:00	2024-11-08T12:00:00	4	Temperatura máxima	25.4
156907	7	Sololá	719	Santiago Atitlán	14	Cerro de Oro	6	Junio	2023-06-25T00:00:00	2024-11-08T12:00:00	3	Temperatura mínima	23.3
156908	7	Sololá	719	Santiago Atitlán	14	Cerro de Oro	6	Junio	2023-06-25T00:00:00	2024-11-08T12:00:00	5	Humedad	49
156909	7	Sololá	719	Santiago Atitlán	14	Cerro de Oro	6	Junio	2023-06-25T00:00:00	2024-11-08T12:00:00	6	Velocidad del viento	9.7
156910	7	Sololá	719	Santiago Atitlán	14	Cerro de Oro	6	Junio	2023-06-25T00:00:00	2024-11-08T12:00:00	7	Dirección del viento	9.66
156911	7	Sololá	719	Santiago Atitlán	14	Cerro de Oro	6	Junio	2023-06-25T00:00:00	2024-11-08T12:00:00	1	Precipitación	0
156912	7	Sololá	719	Santiago Atitlán	14	Cerro de Oro	6	Junio	2023-06-25T00:00:00	2024-11-08T12:00:00	8	Radiación solar	862
156913	7	Sololá	719	Santiago Atitlán	14	Cerro de Oro	6	Junio	2023-06-25T00:00:00	2024-11-08T13:00:00	2	Temperatura media	25.8
156914	7	Sololá	719	Santiago Atitlán	14	Cerro de Oro	6	Junio	2023-06-25T00:00:00	2024-11-08T13:00:00	4	Temperatura máxima	26.1
156915	7	Sololá	719	Santiago Atitlán	14	Cerro de Oro	6	Junio	2023-06-25T00:00:00	2024-11-08T13:00:00	3	Temperatura mínima	25.3
156916	7	Sololá	719	Santiago Atitlán	14	Cerro de Oro	6	Junio	2023-06-25T00:00:00	2024-11-08T13:00:00	5	Humedad	48
156917	7	Sololá	719	Santiago Atitlán	14	Cerro de Oro	6	Junio	2023-06-25T00:00:00	2024-11-08T13:00:00	6	Velocidad del viento	12.9
156918	7	Sololá	719	Santiago Atitlán	14	Cerro de Oro	6	Junio	2023-06-25T00:00:00	2024-11-08T13:00:00	7	Dirección del viento	12.87
156919	7	Sololá	719	Santiago Atitlán	14	Cerro de Oro	6	Junio	2023-06-25T00:00:00	2024-11-08T13:00:00	1	Precipitación	0
156920	7	Sololá	719	Santiago Atitlán	14	Cerro de Oro	6	Junio	2023-06-25T00:00:00	2024-11-08T13:00:00	8	Radiación solar	937
156921	7	Sololá	719	Santiago Atitlán	14	Cerro de Oro	6	Junio	2023-06-25T00:00:00	2024-11-08T14:00:00	2	Temperatura media	25.6
156922	7	Sololá	719	Santiago Atitlán	14	Cerro de Oro	6	Junio	2023-06-25T00:00:00	2024-11-08T14:00:00	4	Temperatura máxima	26.1
156923	7	Sololá	719	Santiago Atitlán	14	Cerro de Oro	6	Junio	2023-06-25T00:00:00	2024-11-08T14:00:00	3	Temperatura mínima	25.6
156924	7	Sololá	719	Santiago Atitlán	14	Cerro de Oro	6	Junio	2023-06-25T00:00:00	2024-11-08T14:00:00	5	Humedad	55
156925	7	Sololá	719	Santiago Atitlán	14	Cerro de Oro	6	Junio	2023-06-25T00:00:00	2024-11-08T14:00:00	6	Velocidad del viento	16.1
156926	7	Sololá	719	Santiago Atitlán	14	Cerro de Oro	6	Junio	2023-06-25T00:00:00	2024-11-08T14:00:00	7	Dirección del viento	16.09
156927	7	Sololá	719	Santiago Atitlán	14	Cerro de Oro	6	Junio	2023-06-25T00:00:00	2024-11-08T14:00:00	1	Precipitación	0
156928	7	Sololá	719	Santiago Atitlán	14	Cerro de Oro	6	Junio	2023-06-25T00:00:00	2024-11-08T14:00:00	8	Radiación solar	900
156929	7	Sololá	719	Santiago Atitlán	14	Cerro de Oro	6	Junio	2023-06-25T00:00:00	2024-11-08T15:00:00	2	Temperatura media	24.9
156930	7	Sololá	719	Santiago Atitlán	14	Cerro de Oro	6	Junio	2023-06-25T00:00:00	2024-11-08T15:00:00	4	Temperatura máxima	25.9
156931	7	Sololá	719	Santiago Atitlán	14	Cerro de Oro	6	Junio	2023-06-25T00:00:00	2024-11-08T15:00:00	3	Temperatura mínima	24.8
156932	7	Sololá	719	Santiago Atitlán	14	Cerro de Oro	6	Junio	2023-06-25T00:00:00	2024-11-08T15:00:00	5	Humedad	61
156933	7	Sololá	719	Santiago Atitlán	14	Cerro de Oro	6	Junio	2023-06-25T00:00:00	2024-11-08T15:00:00	6	Velocidad del viento	12.9
156934	7	Sololá	719	Santiago Atitlán	14	Cerro de Oro	6	Junio	2023-06-25T00:00:00	2024-11-08T15:00:00	7	Dirección del viento	12.87
156935	7	Sololá	719	Santiago Atitlán	14	Cerro de Oro	6	Junio	2023-06-25T00:00:00	2024-11-08T15:00:00	1	Precipitación	0
156936	7	Sololá	719	Santiago Atitlán	14	Cerro de Oro	6	Junio	2023-06-25T00:00:00	2024-11-08T15:00:00	8	Radiación solar	780
156937	7	Sololá	719	Santiago Atitlán	14	Cerro de Oro	6	Junio	2023-06-25T00:00:00	2024-11-08T16:00:00	2	Temperatura media	25.2
156938	7	Sololá	719	Santiago Atitlán	14	Cerro de Oro	6	Junio	2023-06-25T00:00:00	2024-11-08T16:00:00	4	Temperatura máxima	25.2
156939	7	Sololá	719	Santiago Atitlán	14	Cerro de Oro	6	Junio	2023-06-25T00:00:00	2024-11-08T16:00:00	3	Temperatura mínima	24.5
156940	7	Sololá	719	Santiago Atitlán	14	Cerro de Oro	6	Junio	2023-06-25T00:00:00	2024-11-08T16:00:00	5	Humedad	64
156941	7	Sololá	719	Santiago Atitlán	14	Cerro de Oro	6	Junio	2023-06-25T00:00:00	2024-11-08T16:00:00	6	Velocidad del viento	12.9
156942	7	Sololá	719	Santiago Atitlán	14	Cerro de Oro	6	Junio	2023-06-25T00:00:00	2024-11-08T16:00:00	7	Dirección del viento	12.87
156943	7	Sololá	719	Santiago Atitlán	14	Cerro de Oro	6	Junio	2023-06-25T00:00:00	2024-11-08T16:00:00	1	Precipitación	0
156944	7	Sololá	719	Santiago Atitlán	14	Cerro de Oro	6	Junio	2023-06-25T00:00:00	2024-11-08T16:00:00	8	Radiación solar	601
156945	7	Sololá	719	Santiago Atitlán	14	Cerro de Oro	6	Junio	2023-06-25T00:00:00	2024-11-08T17:00:00	2	Temperatura media	23.6
156946	7	Sololá	719	Santiago Atitlán	14	Cerro de Oro	6	Junio	2023-06-25T00:00:00	2024-11-08T17:00:00	4	Temperatura máxima	25.2
156947	7	Sololá	719	Santiago Atitlán	14	Cerro de Oro	6	Junio	2023-06-25T00:00:00	2024-11-08T17:00:00	3	Temperatura mínima	23.6
156948	7	Sololá	719	Santiago Atitlán	14	Cerro de Oro	6	Junio	2023-06-25T00:00:00	2024-11-08T17:00:00	5	Humedad	72
156949	7	Sololá	719	Santiago Atitlán	14	Cerro de Oro	6	Junio	2023-06-25T00:00:00	2024-11-08T17:00:00	6	Velocidad del viento	12.9
156950	7	Sololá	719	Santiago Atitlán	14	Cerro de Oro	6	Junio	2023-06-25T00:00:00	2024-11-08T17:00:00	7	Dirección del viento	12.87
156951	7	Sololá	719	Santiago Atitlán	14	Cerro de Oro	6	Junio	2023-06-25T00:00:00	2024-11-08T17:00:00	1	Precipitación	0
156952	7	Sololá	719	Santiago Atitlán	14	Cerro de Oro	6	Junio	2023-06-25T00:00:00	2024-11-08T17:00:00	8	Radiación solar	429
156953	7	Sololá	719	Santiago Atitlán	14	Cerro de Oro	6	Junio	2023-06-25T00:00:00	2024-11-08T18:00:00	2	Temperatura media	22.6
156954	7	Sololá	719	Santiago Atitlán	14	Cerro de Oro	6	Junio	2023-06-25T00:00:00	2024-11-08T18:00:00	4	Temperatura máxima	23.7
156955	7	Sololá	719	Santiago Atitlán	14	Cerro de Oro	6	Junio	2023-06-25T00:00:00	2024-11-08T18:00:00	3	Temperatura mínima	22.6
156956	7	Sololá	719	Santiago Atitlán	14	Cerro de Oro	6	Junio	2023-06-25T00:00:00	2024-11-08T18:00:00	5	Humedad	69
156957	7	Sololá	719	Santiago Atitlán	14	Cerro de Oro	6	Junio	2023-06-25T00:00:00	2024-11-08T18:00:00	6	Velocidad del viento	9.7
156958	7	Sololá	719	Santiago Atitlán	14	Cerro de Oro	6	Junio	2023-06-25T00:00:00	2024-11-08T18:00:00	7	Dirección del viento	9.66
156959	7	Sololá	719	Santiago Atitlán	14	Cerro de Oro	6	Junio	2023-06-25T00:00:00	2024-11-08T18:00:00	1	Precipitación	0
156960	7	Sololá	719	Santiago Atitlán	14	Cerro de Oro	6	Junio	2023-06-25T00:00:00	2024-11-08T18:00:00	8	Radiación solar	95
156961	7	Sololá	719	Santiago Atitlán	14	Cerro de Oro	6	Junio	2023-06-25T00:00:00	2024-11-08T19:00:00	2	Temperatura media	21.9
156962	7	Sololá	719	Santiago Atitlán	14	Cerro de Oro	6	Junio	2023-06-25T00:00:00	2024-11-08T19:00:00	4	Temperatura máxima	22.6
156963	7	Sololá	719	Santiago Atitlán	14	Cerro de Oro	6	Junio	2023-06-25T00:00:00	2024-11-08T19:00:00	3	Temperatura mínima	21.8
156964	7	Sololá	719	Santiago Atitlán	14	Cerro de Oro	6	Junio	2023-06-25T00:00:00	2024-11-08T19:00:00	5	Humedad	71
156965	7	Sololá	719	Santiago Atitlán	14	Cerro de Oro	6	Junio	2023-06-25T00:00:00	2024-11-08T19:00:00	6	Velocidad del viento	8
156966	7	Sololá	719	Santiago Atitlán	14	Cerro de Oro	6	Junio	2023-06-25T00:00:00	2024-11-08T19:00:00	7	Dirección del viento	8.05
156967	7	Sololá	719	Santiago Atitlán	14	Cerro de Oro	6	Junio	2023-06-25T00:00:00	2024-11-08T19:00:00	1	Precipitación	0
156968	7	Sololá	719	Santiago Atitlán	14	Cerro de Oro	6	Junio	2023-06-25T00:00:00	2024-11-08T19:00:00	8	Radiación solar	0
156969	7	Sololá	719	Santiago Atitlán	14	Cerro de Oro	6	Junio	2023-06-25T00:00:00	2024-11-08T20:00:00	2	Temperatura media	21.4
156970	7	Sololá	719	Santiago Atitlán	14	Cerro de Oro	6	Junio	2023-06-25T00:00:00	2024-11-08T20:00:00	4	Temperatura máxima	22.1
156971	7	Sololá	719	Santiago Atitlán	14	Cerro de Oro	6	Junio	2023-06-25T00:00:00	2024-11-08T20:00:00	3	Temperatura mínima	21.4
156972	7	Sololá	719	Santiago Atitlán	14	Cerro de Oro	6	Junio	2023-06-25T00:00:00	2024-11-08T20:00:00	5	Humedad	66
156973	7	Sololá	719	Santiago Atitlán	14	Cerro de Oro	6	Junio	2023-06-25T00:00:00	2024-11-08T20:00:00	6	Velocidad del viento	6.4
156974	7	Sololá	719	Santiago Atitlán	14	Cerro de Oro	6	Junio	2023-06-25T00:00:00	2024-11-08T20:00:00	7	Dirección del viento	6.44
156975	7	Sololá	719	Santiago Atitlán	14	Cerro de Oro	6	Junio	2023-06-25T00:00:00	2024-11-08T20:00:00	1	Precipitación	0
156976	7	Sololá	719	Santiago Atitlán	14	Cerro de Oro	6	Junio	2023-06-25T00:00:00	2024-11-08T20:00:00	8	Radiación solar	0
156977	7	Sololá	719	Santiago Atitlán	14	Cerro de Oro	6	Junio	2023-06-25T00:00:00	2024-11-08T21:00:00	2	Temperatura media	19.9
156978	7	Sololá	719	Santiago Atitlán	14	Cerro de Oro	6	Junio	2023-06-25T00:00:00	2024-11-08T21:00:00	4	Temperatura máxima	21.4
156979	7	Sololá	719	Santiago Atitlán	14	Cerro de Oro	6	Junio	2023-06-25T00:00:00	2024-11-08T21:00:00	3	Temperatura mínima	19.9
156980	7	Sololá	719	Santiago Atitlán	14	Cerro de Oro	6	Junio	2023-06-25T00:00:00	2024-11-08T21:00:00	5	Humedad	74
156981	7	Sololá	719	Santiago Atitlán	14	Cerro de Oro	6	Junio	2023-06-25T00:00:00	2024-11-08T21:00:00	6	Velocidad del viento	4.8
156982	7	Sololá	719	Santiago Atitlán	14	Cerro de Oro	6	Junio	2023-06-25T00:00:00	2024-11-08T21:00:00	7	Dirección del viento	4.83
156983	7	Sololá	719	Santiago Atitlán	14	Cerro de Oro	6	Junio	2023-06-25T00:00:00	2024-11-08T21:00:00	1	Precipitación	0
156984	7	Sololá	719	Santiago Atitlán	14	Cerro de Oro	6	Junio	2023-06-25T00:00:00	2024-11-08T21:00:00	8	Radiación solar	0
156985	7	Sololá	719	Santiago Atitlán	14	Cerro de Oro	6	Junio	2023-06-25T00:00:00	2024-11-08T22:00:00	2	Temperatura media	20.7
156986	7	Sololá	719	Santiago Atitlán	14	Cerro de Oro	6	Junio	2023-06-25T00:00:00	2024-11-08T22:00:00	4	Temperatura máxima	20.7
156987	7	Sololá	719	Santiago Atitlán	14	Cerro de Oro	6	Junio	2023-06-25T00:00:00	2024-11-08T22:00:00	3	Temperatura mínima	19.7
156988	7	Sololá	719	Santiago Atitlán	14	Cerro de Oro	6	Junio	2023-06-25T00:00:00	2024-11-08T22:00:00	5	Humedad	64
156989	7	Sololá	719	Santiago Atitlán	14	Cerro de Oro	6	Junio	2023-06-25T00:00:00	2024-11-08T22:00:00	6	Velocidad del viento	6.4
156990	7	Sololá	719	Santiago Atitlán	14	Cerro de Oro	6	Junio	2023-06-25T00:00:00	2024-11-08T22:00:00	7	Dirección del viento	6.44
156991	7	Sololá	719	Santiago Atitlán	14	Cerro de Oro	6	Junio	2023-06-25T00:00:00	2024-11-08T22:00:00	1	Precipitación	0
156992	7	Sololá	719	Santiago Atitlán	14	Cerro de Oro	6	Junio	2023-06-25T00:00:00	2024-11-08T22:00:00	8	Radiación solar	0
156993	7	Sololá	719	Santiago Atitlán	14	Cerro de Oro	6	Junio	2023-06-25T00:00:00	2024-11-08T23:00:00	2	Temperatura media	20.4
156994	7	Sololá	719	Santiago Atitlán	14	Cerro de Oro	6	Junio	2023-06-25T00:00:00	2024-11-08T23:00:00	4	Temperatura máxima	20.7
156995	7	Sololá	719	Santiago Atitlán	14	Cerro de Oro	6	Junio	2023-06-25T00:00:00	2024-11-08T23:00:00	3	Temperatura mínima	18.8
156996	7	Sololá	719	Santiago Atitlán	14	Cerro de Oro	6	Junio	2023-06-25T00:00:00	2024-11-08T23:00:00	5	Humedad	70
156997	7	Sololá	719	Santiago Atitlán	14	Cerro de Oro	6	Junio	2023-06-25T00:00:00	2024-11-08T23:00:00	6	Velocidad del viento	6.4
156998	7	Sololá	719	Santiago Atitlán	14	Cerro de Oro	6	Junio	2023-06-25T00:00:00	2024-11-08T23:00:00	7	Dirección del viento	6.44
156999	7	Sololá	719	Santiago Atitlán	14	Cerro de Oro	6	Junio	2023-06-25T00:00:00	2024-11-08T23:00:00	1	Precipitación	0
157000	7	Sololá	719	Santiago Atitlán	14	Cerro de Oro	6	Junio	2023-06-25T00:00:00	2024-11-08T23:00:00	8	Radiación solar	0
157001	7	Sololá	719	Santiago Atitlán	14	Cerro de Oro	6	Junio	2023-06-26T00:00:00	2024-11-08T00:00:00	2	Temperatura media	20.2
157002	7	Sololá	719	Santiago Atitlán	14	Cerro de Oro	6	Junio	2023-06-26T00:00:00	2024-11-08T00:00:00	4	Temperatura máxima	20.4
157003	7	Sololá	719	Santiago Atitlán	14	Cerro de Oro	6	Junio	2023-06-26T00:00:00	2024-11-08T00:00:00	3	Temperatura mínima	20.1
157004	7	Sololá	719	Santiago Atitlán	14	Cerro de Oro	6	Junio	2023-06-26T00:00:00	2024-11-08T00:00:00	5	Humedad	65
157005	7	Sololá	719	Santiago Atitlán	14	Cerro de Oro	6	Junio	2023-06-26T00:00:00	2024-11-08T00:00:00	6	Velocidad del viento	6.4
157006	7	Sololá	719	Santiago Atitlán	14	Cerro de Oro	6	Junio	2023-06-26T00:00:00	2024-11-08T00:00:00	7	Dirección del viento	6.44
157007	7	Sololá	719	Santiago Atitlán	14	Cerro de Oro	6	Junio	2023-06-26T00:00:00	2024-11-08T00:00:00	1	Precipitación	0
157008	7	Sololá	719	Santiago Atitlán	14	Cerro de Oro	6	Junio	2023-06-26T00:00:00	2024-11-08T00:00:00	8	Radiación solar	0
157009	7	Sololá	719	Santiago Atitlán	14	Cerro de Oro	6	Junio	2023-06-26T00:00:00	2024-11-08T01:00:00	2	Temperatura media	18.4
157010	7	Sololá	719	Santiago Atitlán	14	Cerro de Oro	6	Junio	2023-06-26T00:00:00	2024-11-08T01:00:00	4	Temperatura máxima	20.3
157011	7	Sololá	719	Santiago Atitlán	14	Cerro de Oro	6	Junio	2023-06-26T00:00:00	2024-11-08T01:00:00	3	Temperatura mínima	18.2
157012	7	Sololá	719	Santiago Atitlán	14	Cerro de Oro	6	Junio	2023-06-26T00:00:00	2024-11-08T01:00:00	5	Humedad	67
157013	7	Sololá	719	Santiago Atitlán	14	Cerro de Oro	6	Junio	2023-06-26T00:00:00	2024-11-08T01:00:00	6	Velocidad del viento	4.8
157014	7	Sololá	719	Santiago Atitlán	14	Cerro de Oro	6	Junio	2023-06-26T00:00:00	2024-11-08T01:00:00	7	Dirección del viento	4.83
157015	7	Sololá	719	Santiago Atitlán	14	Cerro de Oro	6	Junio	2023-06-26T00:00:00	2024-11-08T01:00:00	1	Precipitación	0
157016	7	Sololá	719	Santiago Atitlán	14	Cerro de Oro	6	Junio	2023-06-26T00:00:00	2024-11-08T01:00:00	8	Radiación solar	0
157017	7	Sololá	719	Santiago Atitlán	14	Cerro de Oro	6	Junio	2023-06-26T00:00:00	2024-11-08T02:00:00	2	Temperatura media	18.3
157018	7	Sololá	719	Santiago Atitlán	14	Cerro de Oro	6	Junio	2023-06-26T00:00:00	2024-11-08T02:00:00	4	Temperatura máxima	18.4
157019	7	Sololá	719	Santiago Atitlán	14	Cerro de Oro	6	Junio	2023-06-26T00:00:00	2024-11-08T02:00:00	3	Temperatura mínima	17.6
157020	7	Sololá	719	Santiago Atitlán	14	Cerro de Oro	6	Junio	2023-06-26T00:00:00	2024-11-08T02:00:00	5	Humedad	67
157021	7	Sololá	719	Santiago Atitlán	14	Cerro de Oro	6	Junio	2023-06-26T00:00:00	2024-11-08T02:00:00	6	Velocidad del viento	6.4
157022	7	Sololá	719	Santiago Atitlán	14	Cerro de Oro	6	Junio	2023-06-26T00:00:00	2024-11-08T02:00:00	7	Dirección del viento	6.44
157023	7	Sololá	719	Santiago Atitlán	14	Cerro de Oro	6	Junio	2023-06-26T00:00:00	2024-11-08T02:00:00	1	Precipitación	0
157024	7	Sololá	719	Santiago Atitlán	14	Cerro de Oro	6	Junio	2023-06-26T00:00:00	2024-11-08T02:00:00	8	Radiación solar	0
157025	7	Sololá	719	Santiago Atitlán	14	Cerro de Oro	6	Junio	2023-06-26T00:00:00	2024-11-08T03:00:00	2	Temperatura media	18.6
157026	7	Sololá	719	Santiago Atitlán	14	Cerro de Oro	6	Junio	2023-06-26T00:00:00	2024-11-08T03:00:00	4	Temperatura máxima	18.8
157027	7	Sololá	719	Santiago Atitlán	14	Cerro de Oro	6	Junio	2023-06-26T00:00:00	2024-11-08T03:00:00	3	Temperatura mínima	18.3
157028	7	Sololá	719	Santiago Atitlán	14	Cerro de Oro	6	Junio	2023-06-26T00:00:00	2024-11-08T03:00:00	5	Humedad	70
157029	7	Sololá	719	Santiago Atitlán	14	Cerro de Oro	6	Junio	2023-06-26T00:00:00	2024-11-08T03:00:00	6	Velocidad del viento	4.8
157030	7	Sololá	719	Santiago Atitlán	14	Cerro de Oro	6	Junio	2023-06-26T00:00:00	2024-11-08T03:00:00	7	Dirección del viento	4.83
157031	7	Sololá	719	Santiago Atitlán	14	Cerro de Oro	6	Junio	2023-06-26T00:00:00	2024-11-08T03:00:00	1	Precipitación	0
157032	7	Sololá	719	Santiago Atitlán	14	Cerro de Oro	6	Junio	2023-06-26T00:00:00	2024-11-08T03:00:00	8	Radiación solar	0
157033	7	Sololá	719	Santiago Atitlán	14	Cerro de Oro	6	Junio	2023-06-26T00:00:00	2024-11-08T04:00:00	2	Temperatura media	17.9
157034	7	Sololá	719	Santiago Atitlán	14	Cerro de Oro	6	Junio	2023-06-26T00:00:00	2024-11-08T04:00:00	4	Temperatura máxima	18.8
157035	7	Sololá	719	Santiago Atitlán	14	Cerro de Oro	6	Junio	2023-06-26T00:00:00	2024-11-08T04:00:00	3	Temperatura mínima	17.8
157036	7	Sololá	719	Santiago Atitlán	14	Cerro de Oro	6	Junio	2023-06-26T00:00:00	2024-11-08T04:00:00	5	Humedad	70
157037	7	Sololá	719	Santiago Atitlán	14	Cerro de Oro	6	Junio	2023-06-26T00:00:00	2024-11-08T04:00:00	6	Velocidad del viento	4.8
157038	7	Sololá	719	Santiago Atitlán	14	Cerro de Oro	6	Junio	2023-06-26T00:00:00	2024-11-08T04:00:00	7	Dirección del viento	4.83
157039	7	Sololá	719	Santiago Atitlán	14	Cerro de Oro	6	Junio	2023-06-26T00:00:00	2024-11-08T04:00:00	1	Precipitación	0
157040	7	Sololá	719	Santiago Atitlán	14	Cerro de Oro	6	Junio	2023-06-26T00:00:00	2024-11-08T04:00:00	8	Radiación solar	0
157041	7	Sololá	719	Santiago Atitlán	14	Cerro de Oro	6	Junio	2023-06-26T00:00:00	2024-11-08T05:00:00	2	Temperatura media	18.2
157042	7	Sololá	719	Santiago Atitlán	14	Cerro de Oro	6	Junio	2023-06-26T00:00:00	2024-11-08T05:00:00	4	Temperatura máxima	18.6
157043	7	Sololá	719	Santiago Atitlán	14	Cerro de Oro	6	Junio	2023-06-26T00:00:00	2024-11-08T05:00:00	3	Temperatura mínima	17.9
157044	7	Sololá	719	Santiago Atitlán	14	Cerro de Oro	6	Junio	2023-06-26T00:00:00	2024-11-08T05:00:00	5	Humedad	66
157045	7	Sololá	719	Santiago Atitlán	14	Cerro de Oro	6	Junio	2023-06-26T00:00:00	2024-11-08T05:00:00	6	Velocidad del viento	4.8
157046	7	Sololá	719	Santiago Atitlán	14	Cerro de Oro	6	Junio	2023-06-26T00:00:00	2024-11-08T05:00:00	7	Dirección del viento	4.83
157047	7	Sololá	719	Santiago Atitlán	14	Cerro de Oro	6	Junio	2023-06-26T00:00:00	2024-11-08T05:00:00	1	Precipitación	0
157048	7	Sololá	719	Santiago Atitlán	14	Cerro de Oro	6	Junio	2023-06-26T00:00:00	2024-11-08T05:00:00	8	Radiación solar	0
157049	7	Sololá	719	Santiago Atitlán	14	Cerro de Oro	6	Junio	2023-06-26T00:00:00	2024-11-08T06:00:00	2	Temperatura media	18.4
157050	7	Sololá	719	Santiago Atitlán	14	Cerro de Oro	6	Junio	2023-06-26T00:00:00	2024-11-08T06:00:00	4	Temperatura máxima	18.5
157051	7	Sololá	719	Santiago Atitlán	14	Cerro de Oro	6	Junio	2023-06-26T00:00:00	2024-11-08T06:00:00	3	Temperatura mínima	17.5
157052	7	Sololá	719	Santiago Atitlán	14	Cerro de Oro	6	Junio	2023-06-26T00:00:00	2024-11-08T06:00:00	5	Humedad	63
157053	7	Sololá	719	Santiago Atitlán	14	Cerro de Oro	6	Junio	2023-06-26T00:00:00	2024-11-08T06:00:00	6	Velocidad del viento	6.4
157054	7	Sololá	719	Santiago Atitlán	14	Cerro de Oro	6	Junio	2023-06-26T00:00:00	2024-11-08T06:00:00	7	Dirección del viento	6.44
157055	7	Sololá	719	Santiago Atitlán	14	Cerro de Oro	6	Junio	2023-06-26T00:00:00	2024-11-08T06:00:00	1	Precipitación	0
157056	7	Sololá	719	Santiago Atitlán	14	Cerro de Oro	6	Junio	2023-06-26T00:00:00	2024-11-08T06:00:00	8	Radiación solar	6
157057	7	Sololá	719	Santiago Atitlán	14	Cerro de Oro	6	Junio	2023-06-26T00:00:00	2024-11-08T07:00:00	2	Temperatura media	18.5
157058	7	Sololá	719	Santiago Atitlán	14	Cerro de Oro	6	Junio	2023-06-26T00:00:00	2024-11-08T07:00:00	4	Temperatura máxima	19.1
157059	7	Sololá	719	Santiago Atitlán	14	Cerro de Oro	6	Junio	2023-06-26T00:00:00	2024-11-08T07:00:00	3	Temperatura mínima	18.4
157060	7	Sololá	719	Santiago Atitlán	14	Cerro de Oro	6	Junio	2023-06-26T00:00:00	2024-11-08T07:00:00	5	Humedad	64
157061	7	Sololá	719	Santiago Atitlán	14	Cerro de Oro	6	Junio	2023-06-26T00:00:00	2024-11-08T07:00:00	6	Velocidad del viento	4.8
157062	7	Sololá	719	Santiago Atitlán	14	Cerro de Oro	6	Junio	2023-06-26T00:00:00	2024-11-08T07:00:00	7	Dirección del viento	4.83
157063	7	Sololá	719	Santiago Atitlán	14	Cerro de Oro	6	Junio	2023-06-26T00:00:00	2024-11-08T07:00:00	1	Precipitación	0
157064	7	Sololá	719	Santiago Atitlán	14	Cerro de Oro	6	Junio	2023-06-26T00:00:00	2024-11-08T07:00:00	8	Radiación solar	48
157065	7	Sololá	719	Santiago Atitlán	14	Cerro de Oro	6	Junio	2023-06-26T00:00:00	2024-11-08T08:00:00	2	Temperatura media	20.3
157066	7	Sololá	719	Santiago Atitlán	14	Cerro de Oro	6	Junio	2023-06-26T00:00:00	2024-11-08T08:00:00	4	Temperatura máxima	20.4
157067	7	Sololá	719	Santiago Atitlán	14	Cerro de Oro	6	Junio	2023-06-26T00:00:00	2024-11-08T08:00:00	3	Temperatura mínima	18.5
157068	7	Sololá	719	Santiago Atitlán	14	Cerro de Oro	6	Junio	2023-06-26T00:00:00	2024-11-08T08:00:00	5	Humedad	64
157069	7	Sololá	719	Santiago Atitlán	14	Cerro de Oro	6	Junio	2023-06-26T00:00:00	2024-11-08T08:00:00	6	Velocidad del viento	3.2
157070	7	Sololá	719	Santiago Atitlán	14	Cerro de Oro	6	Junio	2023-06-26T00:00:00	2024-11-08T08:00:00	7	Dirección del viento	3.22
157071	7	Sololá	719	Santiago Atitlán	14	Cerro de Oro	6	Junio	2023-06-26T00:00:00	2024-11-08T08:00:00	1	Precipitación	0
157072	7	Sololá	719	Santiago Atitlán	14	Cerro de Oro	6	Junio	2023-06-26T00:00:00	2024-11-08T08:00:00	8	Radiación solar	162
157073	7	Sololá	719	Santiago Atitlán	14	Cerro de Oro	6	Junio	2023-06-26T00:00:00	2024-11-08T09:00:00	2	Temperatura media	21.8
157074	7	Sololá	719	Santiago Atitlán	14	Cerro de Oro	6	Junio	2023-06-26T00:00:00	2024-11-08T09:00:00	4	Temperatura máxima	21.9
157075	7	Sololá	719	Santiago Atitlán	14	Cerro de Oro	6	Junio	2023-06-26T00:00:00	2024-11-08T09:00:00	3	Temperatura mínima	20.4
157076	7	Sololá	719	Santiago Atitlán	14	Cerro de Oro	6	Junio	2023-06-26T00:00:00	2024-11-08T09:00:00	5	Humedad	61
157077	7	Sololá	719	Santiago Atitlán	14	Cerro de Oro	6	Junio	2023-06-26T00:00:00	2024-11-08T09:00:00	6	Velocidad del viento	1.6
157078	7	Sololá	719	Santiago Atitlán	14	Cerro de Oro	6	Junio	2023-06-26T00:00:00	2024-11-08T09:00:00	7	Dirección del viento	1.61
157079	7	Sololá	719	Santiago Atitlán	14	Cerro de Oro	6	Junio	2023-06-26T00:00:00	2024-11-08T09:00:00	1	Precipitación	0
157080	7	Sololá	719	Santiago Atitlán	14	Cerro de Oro	6	Junio	2023-06-26T00:00:00	2024-11-08T09:00:00	8	Radiación solar	243
157081	7	Sololá	719	Santiago Atitlán	14	Cerro de Oro	6	Junio	2023-06-26T00:00:00	2024-11-08T10:00:00	2	Temperatura media	24.2
157082	7	Sololá	719	Santiago Atitlán	14	Cerro de Oro	6	Junio	2023-06-26T00:00:00	2024-11-08T10:00:00	4	Temperatura máxima	24.2
157083	7	Sololá	719	Santiago Atitlán	14	Cerro de Oro	6	Junio	2023-06-26T00:00:00	2024-11-08T10:00:00	3	Temperatura mínima	21.9
157084	7	Sololá	719	Santiago Atitlán	14	Cerro de Oro	6	Junio	2023-06-26T00:00:00	2024-11-08T10:00:00	5	Humedad	53
157085	7	Sololá	719	Santiago Atitlán	14	Cerro de Oro	6	Junio	2023-06-26T00:00:00	2024-11-08T10:00:00	6	Velocidad del viento	1.6
157086	7	Sololá	719	Santiago Atitlán	14	Cerro de Oro	6	Junio	2023-06-26T00:00:00	2024-11-08T10:00:00	7	Dirección del viento	1.61
157087	7	Sololá	719	Santiago Atitlán	14	Cerro de Oro	6	Junio	2023-06-26T00:00:00	2024-11-08T10:00:00	1	Precipitación	0
157088	7	Sololá	719	Santiago Atitlán	14	Cerro de Oro	6	Junio	2023-06-26T00:00:00	2024-11-08T10:00:00	8	Radiación solar	465
157089	7	Sololá	719	Santiago Atitlán	14	Cerro de Oro	6	Junio	2023-06-26T00:00:00	2024-11-08T11:00:00	2	Temperatura media	25.3
157090	7	Sololá	719	Santiago Atitlán	14	Cerro de Oro	6	Junio	2023-06-26T00:00:00	2024-11-08T11:00:00	4	Temperatura máxima	25.3
157091	7	Sololá	719	Santiago Atitlán	14	Cerro de Oro	6	Junio	2023-06-26T00:00:00	2024-11-08T11:00:00	3	Temperatura mínima	24.3
157092	7	Sololá	719	Santiago Atitlán	14	Cerro de Oro	6	Junio	2023-06-26T00:00:00	2024-11-08T11:00:00	5	Humedad	55
157093	7	Sololá	719	Santiago Atitlán	14	Cerro de Oro	6	Junio	2023-06-26T00:00:00	2024-11-08T11:00:00	6	Velocidad del viento	8
157094	7	Sololá	719	Santiago Atitlán	14	Cerro de Oro	6	Junio	2023-06-26T00:00:00	2024-11-08T11:00:00	7	Dirección del viento	8.05
157095	7	Sololá	719	Santiago Atitlán	14	Cerro de Oro	6	Junio	2023-06-26T00:00:00	2024-11-08T11:00:00	1	Precipitación	0
157096	7	Sololá	719	Santiago Atitlán	14	Cerro de Oro	6	Junio	2023-06-26T00:00:00	2024-11-08T11:00:00	8	Radiación solar	882
157097	7	Sololá	719	Santiago Atitlán	14	Cerro de Oro	6	Junio	2023-06-26T00:00:00	2024-11-08T12:00:00	2	Temperatura media	26.3
157098	7	Sololá	719	Santiago Atitlán	14	Cerro de Oro	6	Junio	2023-06-26T00:00:00	2024-11-08T12:00:00	4	Temperatura máxima	26.3
157099	7	Sololá	719	Santiago Atitlán	14	Cerro de Oro	6	Junio	2023-06-26T00:00:00	2024-11-08T12:00:00	3	Temperatura mínima	25.3
157100	7	Sololá	719	Santiago Atitlán	14	Cerro de Oro	6	Junio	2023-06-26T00:00:00	2024-11-08T12:00:00	5	Humedad	57
157101	7	Sololá	719	Santiago Atitlán	14	Cerro de Oro	6	Junio	2023-06-26T00:00:00	2024-11-08T12:00:00	6	Velocidad del viento	8
157102	7	Sololá	719	Santiago Atitlán	14	Cerro de Oro	6	Junio	2023-06-26T00:00:00	2024-11-08T12:00:00	7	Dirección del viento	8.05
157103	7	Sololá	719	Santiago Atitlán	14	Cerro de Oro	6	Junio	2023-06-26T00:00:00	2024-11-08T12:00:00	1	Precipitación	0
157104	7	Sololá	719	Santiago Atitlán	14	Cerro de Oro	6	Junio	2023-06-26T00:00:00	2024-11-08T12:00:00	8	Radiación solar	887
157105	7	Sololá	719	Santiago Atitlán	14	Cerro de Oro	6	Junio	2023-06-26T00:00:00	2024-11-08T13:00:00	2	Temperatura media	25.9
157106	7	Sololá	719	Santiago Atitlán	14	Cerro de Oro	6	Junio	2023-06-26T00:00:00	2024-11-08T13:00:00	4	Temperatura máxima	26.4
157107	7	Sololá	719	Santiago Atitlán	14	Cerro de Oro	6	Junio	2023-06-26T00:00:00	2024-11-08T13:00:00	3	Temperatura mínima	25.6
157108	7	Sololá	719	Santiago Atitlán	14	Cerro de Oro	6	Junio	2023-06-26T00:00:00	2024-11-08T13:00:00	5	Humedad	56
157109	7	Sololá	719	Santiago Atitlán	14	Cerro de Oro	6	Junio	2023-06-26T00:00:00	2024-11-08T13:00:00	6	Velocidad del viento	11.3
157110	7	Sololá	719	Santiago Atitlán	14	Cerro de Oro	6	Junio	2023-06-26T00:00:00	2024-11-08T13:00:00	7	Dirección del viento	11.27
157111	7	Sololá	719	Santiago Atitlán	14	Cerro de Oro	6	Junio	2023-06-26T00:00:00	2024-11-08T13:00:00	1	Precipitación	0
157112	7	Sololá	719	Santiago Atitlán	14	Cerro de Oro	6	Junio	2023-06-26T00:00:00	2024-11-08T13:00:00	8	Radiación solar	944
157113	7	Sololá	719	Santiago Atitlán	14	Cerro de Oro	6	Junio	2023-06-26T00:00:00	2024-11-08T14:00:00	2	Temperatura media	25.9
157114	7	Sololá	719	Santiago Atitlán	14	Cerro de Oro	6	Junio	2023-06-26T00:00:00	2024-11-08T14:00:00	4	Temperatura máxima	26.3
157115	7	Sololá	719	Santiago Atitlán	14	Cerro de Oro	6	Junio	2023-06-26T00:00:00	2024-11-08T14:00:00	3	Temperatura mínima	25.8
157116	7	Sololá	719	Santiago Atitlán	14	Cerro de Oro	6	Junio	2023-06-26T00:00:00	2024-11-08T14:00:00	5	Humedad	54
157117	7	Sololá	719	Santiago Atitlán	14	Cerro de Oro	6	Junio	2023-06-26T00:00:00	2024-11-08T14:00:00	6	Velocidad del viento	12.9
157118	7	Sololá	719	Santiago Atitlán	14	Cerro de Oro	6	Junio	2023-06-26T00:00:00	2024-11-08T14:00:00	7	Dirección del viento	12.87
157119	7	Sololá	719	Santiago Atitlán	14	Cerro de Oro	6	Junio	2023-06-26T00:00:00	2024-11-08T14:00:00	1	Precipitación	0
157120	7	Sololá	719	Santiago Atitlán	14	Cerro de Oro	6	Junio	2023-06-26T00:00:00	2024-11-08T14:00:00	8	Radiación solar	898
157121	7	Sololá	719	Santiago Atitlán	14	Cerro de Oro	6	Junio	2023-06-26T00:00:00	2024-11-08T15:00:00	2	Temperatura media	25.7
157122	7	Sololá	719	Santiago Atitlán	14	Cerro de Oro	6	Junio	2023-06-26T00:00:00	2024-11-08T15:00:00	4	Temperatura máxima	26.4
157123	7	Sololá	719	Santiago Atitlán	14	Cerro de Oro	6	Junio	2023-06-26T00:00:00	2024-11-08T15:00:00	3	Temperatura mínima	25.7
157124	7	Sololá	719	Santiago Atitlán	14	Cerro de Oro	6	Junio	2023-06-26T00:00:00	2024-11-08T15:00:00	5	Humedad	65
157125	7	Sololá	719	Santiago Atitlán	14	Cerro de Oro	6	Junio	2023-06-26T00:00:00	2024-11-08T15:00:00	6	Velocidad del viento	11.3
157126	7	Sololá	719	Santiago Atitlán	14	Cerro de Oro	6	Junio	2023-06-26T00:00:00	2024-11-08T15:00:00	7	Dirección del viento	11.27
157127	7	Sololá	719	Santiago Atitlán	14	Cerro de Oro	6	Junio	2023-06-26T00:00:00	2024-11-08T15:00:00	1	Precipitación	0
157128	7	Sololá	719	Santiago Atitlán	14	Cerro de Oro	6	Junio	2023-06-26T00:00:00	2024-11-08T15:00:00	8	Radiación solar	677
157129	7	Sololá	719	Santiago Atitlán	14	Cerro de Oro	6	Junio	2023-06-26T00:00:00	2024-11-08T16:00:00	2	Temperatura media	25.1
157130	7	Sololá	719	Santiago Atitlán	14	Cerro de Oro	6	Junio	2023-06-26T00:00:00	2024-11-08T16:00:00	4	Temperatura máxima	25.9
157131	7	Sololá	719	Santiago Atitlán	14	Cerro de Oro	6	Junio	2023-06-26T00:00:00	2024-11-08T16:00:00	3	Temperatura mínima	25.1
157132	7	Sololá	719	Santiago Atitlán	14	Cerro de Oro	6	Junio	2023-06-26T00:00:00	2024-11-08T16:00:00	5	Humedad	70
157133	7	Sololá	719	Santiago Atitlán	14	Cerro de Oro	6	Junio	2023-06-26T00:00:00	2024-11-08T16:00:00	6	Velocidad del viento	9.7
157134	7	Sololá	719	Santiago Atitlán	14	Cerro de Oro	6	Junio	2023-06-26T00:00:00	2024-11-08T16:00:00	7	Dirección del viento	9.66
157135	7	Sololá	719	Santiago Atitlán	14	Cerro de Oro	6	Junio	2023-06-26T00:00:00	2024-11-08T16:00:00	1	Precipitación	0
157136	7	Sololá	719	Santiago Atitlán	14	Cerro de Oro	6	Junio	2023-06-26T00:00:00	2024-11-08T16:00:00	8	Radiación solar	578
157137	7	Sololá	719	Santiago Atitlán	14	Cerro de Oro	6	Junio	2023-06-26T00:00:00	2024-11-08T17:00:00	2	Temperatura media	22.8
157138	7	Sololá	719	Santiago Atitlán	14	Cerro de Oro	6	Junio	2023-06-26T00:00:00	2024-11-08T17:00:00	4	Temperatura máxima	25.1
157139	7	Sololá	719	Santiago Atitlán	14	Cerro de Oro	6	Junio	2023-06-26T00:00:00	2024-11-08T17:00:00	3	Temperatura mínima	22.8
157140	7	Sololá	719	Santiago Atitlán	14	Cerro de Oro	6	Junio	2023-06-26T00:00:00	2024-11-08T17:00:00	5	Humedad	77
157141	7	Sololá	719	Santiago Atitlán	14	Cerro de Oro	6	Junio	2023-06-26T00:00:00	2024-11-08T17:00:00	6	Velocidad del viento	14.5
157142	7	Sololá	719	Santiago Atitlán	14	Cerro de Oro	6	Junio	2023-06-26T00:00:00	2024-11-08T17:00:00	7	Dirección del viento	14.48
157143	7	Sololá	719	Santiago Atitlán	14	Cerro de Oro	6	Junio	2023-06-26T00:00:00	2024-11-08T17:00:00	1	Precipitación	0
157144	7	Sololá	719	Santiago Atitlán	14	Cerro de Oro	6	Junio	2023-06-26T00:00:00	2024-11-08T17:00:00	8	Radiación solar	376
157145	7	Sololá	719	Santiago Atitlán	14	Cerro de Oro	6	Junio	2023-06-26T00:00:00	2024-11-08T18:00:00	2	Temperatura media	21.3
157146	7	Sololá	719	Santiago Atitlán	14	Cerro de Oro	6	Junio	2023-06-26T00:00:00	2024-11-08T18:00:00	4	Temperatura máxima	23.7
157147	7	Sololá	719	Santiago Atitlán	14	Cerro de Oro	6	Junio	2023-06-26T00:00:00	2024-11-08T18:00:00	3	Temperatura mínima	21.3
157148	7	Sololá	719	Santiago Atitlán	14	Cerro de Oro	6	Junio	2023-06-26T00:00:00	2024-11-08T18:00:00	5	Humedad	82
157149	7	Sololá	719	Santiago Atitlán	14	Cerro de Oro	6	Junio	2023-06-26T00:00:00	2024-11-08T18:00:00	6	Velocidad del viento	8
157150	7	Sololá	719	Santiago Atitlán	14	Cerro de Oro	6	Junio	2023-06-26T00:00:00	2024-11-08T18:00:00	7	Dirección del viento	8.05
157151	7	Sololá	719	Santiago Atitlán	14	Cerro de Oro	6	Junio	2023-06-26T00:00:00	2024-11-08T18:00:00	1	Precipitación	0
157152	7	Sololá	719	Santiago Atitlán	14	Cerro de Oro	6	Junio	2023-06-26T00:00:00	2024-11-08T18:00:00	8	Radiación solar	121
157153	7	Sololá	719	Santiago Atitlán	14	Cerro de Oro	6	Junio	2023-06-26T00:00:00	2024-11-08T19:00:00	2	Temperatura media	20.1
157154	7	Sololá	719	Santiago Atitlán	14	Cerro de Oro	6	Junio	2023-06-26T00:00:00	2024-11-08T19:00:00	4	Temperatura máxima	21.4
157155	7	Sololá	719	Santiago Atitlán	14	Cerro de Oro	6	Junio	2023-06-26T00:00:00	2024-11-08T19:00:00	3	Temperatura mínima	20.1
157156	7	Sololá	719	Santiago Atitlán	14	Cerro de Oro	6	Junio	2023-06-26T00:00:00	2024-11-08T19:00:00	5	Humedad	87
157157	7	Sololá	719	Santiago Atitlán	14	Cerro de Oro	6	Junio	2023-06-26T00:00:00	2024-11-08T19:00:00	6	Velocidad del viento	6.4
157158	7	Sololá	719	Santiago Atitlán	14	Cerro de Oro	6	Junio	2023-06-26T00:00:00	2024-11-08T19:00:00	7	Dirección del viento	6.44
157159	7	Sololá	719	Santiago Atitlán	14	Cerro de Oro	6	Junio	2023-06-26T00:00:00	2024-11-08T19:00:00	1	Precipitación	0
157160	7	Sololá	719	Santiago Atitlán	14	Cerro de Oro	6	Junio	2023-06-26T00:00:00	2024-11-08T19:00:00	8	Radiación solar	0
157161	7	Sololá	719	Santiago Atitlán	14	Cerro de Oro	6	Junio	2023-06-26T00:00:00	2024-11-08T20:00:00	2	Temperatura media	19.7
157162	7	Sololá	719	Santiago Atitlán	14	Cerro de Oro	6	Junio	2023-06-26T00:00:00	2024-11-08T20:00:00	4	Temperatura máxima	20.1
157163	7	Sololá	719	Santiago Atitlán	14	Cerro de Oro	6	Junio	2023-06-26T00:00:00	2024-11-08T20:00:00	3	Temperatura mínima	19.7
157164	7	Sololá	719	Santiago Atitlán	14	Cerro de Oro	6	Junio	2023-06-26T00:00:00	2024-11-08T20:00:00	5	Humedad	84
157165	7	Sololá	719	Santiago Atitlán	14	Cerro de Oro	6	Junio	2023-06-26T00:00:00	2024-11-08T20:00:00	6	Velocidad del viento	6.4
157166	7	Sololá	719	Santiago Atitlán	14	Cerro de Oro	6	Junio	2023-06-26T00:00:00	2024-11-08T20:00:00	7	Dirección del viento	6.44
157167	7	Sololá	719	Santiago Atitlán	14	Cerro de Oro	6	Junio	2023-06-26T00:00:00	2024-11-08T20:00:00	1	Precipitación	0
157168	7	Sololá	719	Santiago Atitlán	14	Cerro de Oro	6	Junio	2023-06-26T00:00:00	2024-11-08T20:00:00	8	Radiación solar	0
157169	7	Sololá	719	Santiago Atitlán	14	Cerro de Oro	6	Junio	2023-06-26T00:00:00	2024-11-08T21:00:00	2	Temperatura media	20.1
157170	7	Sololá	719	Santiago Atitlán	14	Cerro de Oro	6	Junio	2023-06-26T00:00:00	2024-11-08T21:00:00	4	Temperatura máxima	20.6
157171	7	Sololá	719	Santiago Atitlán	14	Cerro de Oro	6	Junio	2023-06-26T00:00:00	2024-11-08T21:00:00	3	Temperatura mínima	19.7
157172	7	Sololá	719	Santiago Atitlán	14	Cerro de Oro	6	Junio	2023-06-26T00:00:00	2024-11-08T21:00:00	5	Humedad	83
157173	7	Sololá	719	Santiago Atitlán	14	Cerro de Oro	6	Junio	2023-06-26T00:00:00	2024-11-08T21:00:00	6	Velocidad del viento	3.2
157174	7	Sololá	719	Santiago Atitlán	14	Cerro de Oro	6	Junio	2023-06-26T00:00:00	2024-11-08T21:00:00	7	Dirección del viento	3.22
157175	7	Sololá	719	Santiago Atitlán	14	Cerro de Oro	6	Junio	2023-06-26T00:00:00	2024-11-08T21:00:00	1	Precipitación	0
157176	7	Sololá	719	Santiago Atitlán	14	Cerro de Oro	6	Junio	2023-06-26T00:00:00	2024-11-08T21:00:00	8	Radiación solar	0
157177	7	Sololá	719	Santiago Atitlán	14	Cerro de Oro	6	Junio	2023-06-26T00:00:00	2024-11-08T22:00:00	2	Temperatura media	20.2
157178	7	Sololá	719	Santiago Atitlán	14	Cerro de Oro	6	Junio	2023-06-26T00:00:00	2024-11-08T22:00:00	4	Temperatura máxima	20.8
157179	7	Sololá	719	Santiago Atitlán	14	Cerro de Oro	6	Junio	2023-06-26T00:00:00	2024-11-08T22:00:00	3	Temperatura mínima	20.1
157180	7	Sololá	719	Santiago Atitlán	14	Cerro de Oro	6	Junio	2023-06-26T00:00:00	2024-11-08T22:00:00	5	Humedad	73
157181	7	Sololá	719	Santiago Atitlán	14	Cerro de Oro	6	Junio	2023-06-26T00:00:00	2024-11-08T22:00:00	6	Velocidad del viento	4.8
157182	7	Sololá	719	Santiago Atitlán	14	Cerro de Oro	6	Junio	2023-06-26T00:00:00	2024-11-08T22:00:00	7	Dirección del viento	4.83
157183	7	Sololá	719	Santiago Atitlán	14	Cerro de Oro	6	Junio	2023-06-26T00:00:00	2024-11-08T22:00:00	1	Precipitación	0
157184	7	Sololá	719	Santiago Atitlán	14	Cerro de Oro	6	Junio	2023-06-26T00:00:00	2024-11-08T22:00:00	8	Radiación solar	0
157185	7	Sololá	719	Santiago Atitlán	14	Cerro de Oro	6	Junio	2023-06-26T00:00:00	2024-11-08T23:00:00	2	Temperatura media	20.1
157186	7	Sololá	719	Santiago Atitlán	14	Cerro de Oro	6	Junio	2023-06-26T00:00:00	2024-11-08T23:00:00	4	Temperatura máxima	20.4
157187	7	Sololá	719	Santiago Atitlán	14	Cerro de Oro	6	Junio	2023-06-26T00:00:00	2024-11-08T23:00:00	3	Temperatura mínima	19.9
157188	7	Sololá	719	Santiago Atitlán	14	Cerro de Oro	6	Junio	2023-06-26T00:00:00	2024-11-08T23:00:00	5	Humedad	75
157189	7	Sololá	719	Santiago Atitlán	14	Cerro de Oro	6	Junio	2023-06-26T00:00:00	2024-11-08T23:00:00	6	Velocidad del viento	4.8
157190	7	Sololá	719	Santiago Atitlán	14	Cerro de Oro	6	Junio	2023-06-26T00:00:00	2024-11-08T23:00:00	7	Dirección del viento	4.83
157191	7	Sololá	719	Santiago Atitlán	14	Cerro de Oro	6	Junio	2023-06-26T00:00:00	2024-11-08T23:00:00	1	Precipitación	0
157192	7	Sololá	719	Santiago Atitlán	14	Cerro de Oro	6	Junio	2023-06-26T00:00:00	2024-11-08T23:00:00	8	Radiación solar	0
157193	7	Sololá	719	Santiago Atitlán	14	Cerro de Oro	6	Junio	2023-06-27T00:00:00	2024-11-08T00:00:00	2	Temperatura media	20.1
157194	7	Sololá	719	Santiago Atitlán	14	Cerro de Oro	6	Junio	2023-06-27T00:00:00	2024-11-08T00:00:00	4	Temperatura máxima	20.2
157195	7	Sololá	719	Santiago Atitlán	14	Cerro de Oro	6	Junio	2023-06-27T00:00:00	2024-11-08T00:00:00	3	Temperatura mínima	19.7
157196	7	Sololá	719	Santiago Atitlán	14	Cerro de Oro	6	Junio	2023-06-27T00:00:00	2024-11-08T00:00:00	5	Humedad	74
157197	7	Sololá	719	Santiago Atitlán	14	Cerro de Oro	6	Junio	2023-06-27T00:00:00	2024-11-08T00:00:00	6	Velocidad del viento	4.8
157198	7	Sololá	719	Santiago Atitlán	14	Cerro de Oro	6	Junio	2023-06-27T00:00:00	2024-11-08T00:00:00	7	Dirección del viento	4.83
157199	7	Sololá	719	Santiago Atitlán	14	Cerro de Oro	6	Junio	2023-06-27T00:00:00	2024-11-08T00:00:00	1	Precipitación	0
157200	7	Sololá	719	Santiago Atitlán	14	Cerro de Oro	6	Junio	2023-06-27T00:00:00	2024-11-08T00:00:00	8	Radiación solar	0
157201	7	Sololá	719	Santiago Atitlán	14	Cerro de Oro	6	Junio	2023-06-27T00:00:00	2024-11-08T01:00:00	2	Temperatura media	20.1
157202	7	Sololá	719	Santiago Atitlán	14	Cerro de Oro	6	Junio	2023-06-27T00:00:00	2024-11-08T01:00:00	4	Temperatura máxima	20.2
157203	7	Sololá	719	Santiago Atitlán	14	Cerro de Oro	6	Junio	2023-06-27T00:00:00	2024-11-08T01:00:00	3	Temperatura mínima	19.8
157204	7	Sololá	719	Santiago Atitlán	14	Cerro de Oro	6	Junio	2023-06-27T00:00:00	2024-11-08T01:00:00	5	Humedad	76
157205	7	Sololá	719	Santiago Atitlán	14	Cerro de Oro	6	Junio	2023-06-27T00:00:00	2024-11-08T01:00:00	6	Velocidad del viento	4.8
157206	7	Sololá	719	Santiago Atitlán	14	Cerro de Oro	6	Junio	2023-06-27T00:00:00	2024-11-08T01:00:00	7	Dirección del viento	4.83
157207	7	Sololá	719	Santiago Atitlán	14	Cerro de Oro	6	Junio	2023-06-27T00:00:00	2024-11-08T01:00:00	1	Precipitación	0
157208	7	Sololá	719	Santiago Atitlán	14	Cerro de Oro	6	Junio	2023-06-27T00:00:00	2024-11-08T01:00:00	8	Radiación solar	0
157209	7	Sololá	719	Santiago Atitlán	14	Cerro de Oro	6	Junio	2023-06-27T00:00:00	2024-11-08T02:00:00	2	Temperatura media	19.1
157210	7	Sololá	719	Santiago Atitlán	14	Cerro de Oro	6	Junio	2023-06-27T00:00:00	2024-11-08T02:00:00	4	Temperatura máxima	20.1
157211	7	Sololá	719	Santiago Atitlán	14	Cerro de Oro	6	Junio	2023-06-27T00:00:00	2024-11-08T02:00:00	3	Temperatura mínima	18.9
157212	7	Sololá	719	Santiago Atitlán	14	Cerro de Oro	6	Junio	2023-06-27T00:00:00	2024-11-08T02:00:00	5	Humedad	76
157213	7	Sololá	719	Santiago Atitlán	14	Cerro de Oro	6	Junio	2023-06-27T00:00:00	2024-11-08T02:00:00	6	Velocidad del viento	4.8
157214	7	Sololá	719	Santiago Atitlán	14	Cerro de Oro	6	Junio	2023-06-27T00:00:00	2024-11-08T02:00:00	7	Dirección del viento	4.83
157215	7	Sololá	719	Santiago Atitlán	14	Cerro de Oro	6	Junio	2023-06-27T00:00:00	2024-11-08T02:00:00	1	Precipitación	0
157216	7	Sololá	719	Santiago Atitlán	14	Cerro de Oro	6	Junio	2023-06-27T00:00:00	2024-11-08T02:00:00	8	Radiación solar	0
157217	7	Sololá	719	Santiago Atitlán	14	Cerro de Oro	6	Junio	2023-06-27T00:00:00	2024-11-08T03:00:00	2	Temperatura media	19.1
157218	7	Sololá	719	Santiago Atitlán	14	Cerro de Oro	6	Junio	2023-06-27T00:00:00	2024-11-08T03:00:00	4	Temperatura máxima	19.2
157219	7	Sololá	719	Santiago Atitlán	14	Cerro de Oro	6	Junio	2023-06-27T00:00:00	2024-11-08T03:00:00	3	Temperatura mínima	18.8
157220	7	Sololá	719	Santiago Atitlán	14	Cerro de Oro	6	Junio	2023-06-27T00:00:00	2024-11-08T03:00:00	5	Humedad	76
157221	7	Sololá	719	Santiago Atitlán	14	Cerro de Oro	6	Junio	2023-06-27T00:00:00	2024-11-08T03:00:00	6	Velocidad del viento	4.8
157222	7	Sololá	719	Santiago Atitlán	14	Cerro de Oro	6	Junio	2023-06-27T00:00:00	2024-11-08T03:00:00	7	Dirección del viento	4.83
157223	7	Sololá	719	Santiago Atitlán	14	Cerro de Oro	6	Junio	2023-06-27T00:00:00	2024-11-08T03:00:00	1	Precipitación	0
157224	7	Sololá	719	Santiago Atitlán	14	Cerro de Oro	6	Junio	2023-06-27T00:00:00	2024-11-08T03:00:00	8	Radiación solar	0
157225	7	Sololá	719	Santiago Atitlán	14	Cerro de Oro	6	Junio	2023-06-27T00:00:00	2024-11-08T04:00:00	2	Temperatura media	19.6
157226	7	Sololá	719	Santiago Atitlán	14	Cerro de Oro	6	Junio	2023-06-27T00:00:00	2024-11-08T04:00:00	4	Temperatura máxima	19.7
157227	7	Sololá	719	Santiago Atitlán	14	Cerro de Oro	6	Junio	2023-06-27T00:00:00	2024-11-08T04:00:00	3	Temperatura mínima	18.8
157228	7	Sololá	719	Santiago Atitlán	14	Cerro de Oro	6	Junio	2023-06-27T00:00:00	2024-11-08T04:00:00	5	Humedad	76
157229	7	Sololá	719	Santiago Atitlán	14	Cerro de Oro	6	Junio	2023-06-27T00:00:00	2024-11-08T04:00:00	6	Velocidad del viento	4.8
157230	7	Sololá	719	Santiago Atitlán	14	Cerro de Oro	6	Junio	2023-06-27T00:00:00	2024-11-08T04:00:00	7	Dirección del viento	4.83
157231	7	Sololá	719	Santiago Atitlán	14	Cerro de Oro	6	Junio	2023-06-27T00:00:00	2024-11-08T04:00:00	1	Precipitación	0
157232	7	Sololá	719	Santiago Atitlán	14	Cerro de Oro	6	Junio	2023-06-27T00:00:00	2024-11-08T04:00:00	8	Radiación solar	0
157233	7	Sololá	719	Santiago Atitlán	14	Cerro de Oro	6	Junio	2023-06-27T00:00:00	2024-11-08T05:00:00	2	Temperatura media	20
157234	7	Sololá	719	Santiago Atitlán	14	Cerro de Oro	6	Junio	2023-06-27T00:00:00	2024-11-08T05:00:00	4	Temperatura máxima	20
157235	7	Sololá	719	Santiago Atitlán	14	Cerro de Oro	6	Junio	2023-06-27T00:00:00	2024-11-08T05:00:00	3	Temperatura mínima	19.5
157236	7	Sololá	719	Santiago Atitlán	14	Cerro de Oro	6	Junio	2023-06-27T00:00:00	2024-11-08T05:00:00	5	Humedad	74
157237	7	Sololá	719	Santiago Atitlán	14	Cerro de Oro	6	Junio	2023-06-27T00:00:00	2024-11-08T05:00:00	6	Velocidad del viento	4.8
157238	7	Sololá	719	Santiago Atitlán	14	Cerro de Oro	6	Junio	2023-06-27T00:00:00	2024-11-08T05:00:00	7	Dirección del viento	4.83
157239	7	Sololá	719	Santiago Atitlán	14	Cerro de Oro	6	Junio	2023-06-27T00:00:00	2024-11-08T05:00:00	1	Precipitación	0
157240	7	Sololá	719	Santiago Atitlán	14	Cerro de Oro	6	Junio	2023-06-27T00:00:00	2024-11-08T05:00:00	8	Radiación solar	0
157241	7	Sololá	719	Santiago Atitlán	14	Cerro de Oro	6	Junio	2023-06-27T00:00:00	2024-11-08T06:00:00	2	Temperatura media	19.2
157242	7	Sololá	719	Santiago Atitlán	14	Cerro de Oro	6	Junio	2023-06-27T00:00:00	2024-11-08T06:00:00	4	Temperatura máxima	20
157243	7	Sololá	719	Santiago Atitlán	14	Cerro de Oro	6	Junio	2023-06-27T00:00:00	2024-11-08T06:00:00	3	Temperatura mínima	19.2
157244	7	Sololá	719	Santiago Atitlán	14	Cerro de Oro	6	Junio	2023-06-27T00:00:00	2024-11-08T06:00:00	5	Humedad	74
157245	7	Sololá	719	Santiago Atitlán	14	Cerro de Oro	6	Junio	2023-06-27T00:00:00	2024-11-08T06:00:00	6	Velocidad del viento	4.8
157246	7	Sololá	719	Santiago Atitlán	14	Cerro de Oro	6	Junio	2023-06-27T00:00:00	2024-11-08T06:00:00	7	Dirección del viento	4.83
157247	7	Sololá	719	Santiago Atitlán	14	Cerro de Oro	6	Junio	2023-06-27T00:00:00	2024-11-08T06:00:00	1	Precipitación	0
157248	7	Sololá	719	Santiago Atitlán	14	Cerro de Oro	6	Junio	2023-06-27T00:00:00	2024-11-08T06:00:00	8	Radiación solar	3
157249	7	Sololá	719	Santiago Atitlán	14	Cerro de Oro	6	Junio	2023-06-27T00:00:00	2024-11-08T07:00:00	2	Temperatura media	20.3
157250	7	Sololá	719	Santiago Atitlán	14	Cerro de Oro	6	Junio	2023-06-27T00:00:00	2024-11-08T07:00:00	4	Temperatura máxima	20.3
157251	7	Sololá	719	Santiago Atitlán	14	Cerro de Oro	6	Junio	2023-06-27T00:00:00	2024-11-08T07:00:00	3	Temperatura mínima	19.1
157252	7	Sololá	719	Santiago Atitlán	14	Cerro de Oro	6	Junio	2023-06-27T00:00:00	2024-11-08T07:00:00	5	Humedad	72
157253	7	Sololá	719	Santiago Atitlán	14	Cerro de Oro	6	Junio	2023-06-27T00:00:00	2024-11-08T07:00:00	6	Velocidad del viento	4.8
157254	7	Sololá	719	Santiago Atitlán	14	Cerro de Oro	6	Junio	2023-06-27T00:00:00	2024-11-08T07:00:00	7	Dirección del viento	4.83
157255	7	Sololá	719	Santiago Atitlán	14	Cerro de Oro	6	Junio	2023-06-27T00:00:00	2024-11-08T07:00:00	1	Precipitación	0
157256	7	Sololá	719	Santiago Atitlán	14	Cerro de Oro	6	Junio	2023-06-27T00:00:00	2024-11-08T07:00:00	8	Radiación solar	75
157257	7	Sololá	719	Santiago Atitlán	14	Cerro de Oro	6	Junio	2023-06-27T00:00:00	2024-11-08T08:00:00	2	Temperatura media	22.8
157258	7	Sololá	719	Santiago Atitlán	14	Cerro de Oro	6	Junio	2023-06-27T00:00:00	2024-11-08T08:00:00	4	Temperatura máxima	22.8
157259	7	Sololá	719	Santiago Atitlán	14	Cerro de Oro	6	Junio	2023-06-27T00:00:00	2024-11-08T08:00:00	3	Temperatura mínima	20.3
157260	7	Sololá	719	Santiago Atitlán	14	Cerro de Oro	6	Junio	2023-06-27T00:00:00	2024-11-08T08:00:00	5	Humedad	61
157261	7	Sololá	719	Santiago Atitlán	14	Cerro de Oro	6	Junio	2023-06-27T00:00:00	2024-11-08T08:00:00	6	Velocidad del viento	3.2
157262	7	Sololá	719	Santiago Atitlán	14	Cerro de Oro	6	Junio	2023-06-27T00:00:00	2024-11-08T08:00:00	7	Dirección del viento	3.22
157263	7	Sololá	719	Santiago Atitlán	14	Cerro de Oro	6	Junio	2023-06-27T00:00:00	2024-11-08T08:00:00	1	Precipitación	0
157264	7	Sololá	719	Santiago Atitlán	14	Cerro de Oro	6	Junio	2023-06-27T00:00:00	2024-11-08T08:00:00	8	Radiación solar	294
157265	7	Sololá	719	Santiago Atitlán	14	Cerro de Oro	6	Junio	2023-06-27T00:00:00	2024-11-08T09:00:00	2	Temperatura media	23.5
157266	7	Sololá	719	Santiago Atitlán	14	Cerro de Oro	6	Junio	2023-06-27T00:00:00	2024-11-08T09:00:00	4	Temperatura máxima	23.9
157267	7	Sololá	719	Santiago Atitlán	14	Cerro de Oro	6	Junio	2023-06-27T00:00:00	2024-11-08T09:00:00	3	Temperatura mínima	22.8
157268	7	Sololá	719	Santiago Atitlán	14	Cerro de Oro	6	Junio	2023-06-27T00:00:00	2024-11-08T09:00:00	5	Humedad	59
157269	7	Sololá	719	Santiago Atitlán	14	Cerro de Oro	6	Junio	2023-06-27T00:00:00	2024-11-08T09:00:00	6	Velocidad del viento	3.2
157270	7	Sololá	719	Santiago Atitlán	14	Cerro de Oro	6	Junio	2023-06-27T00:00:00	2024-11-08T09:00:00	7	Dirección del viento	3.22
157271	7	Sololá	719	Santiago Atitlán	14	Cerro de Oro	6	Junio	2023-06-27T00:00:00	2024-11-08T09:00:00	1	Precipitación	0
157272	7	Sololá	719	Santiago Atitlán	14	Cerro de Oro	6	Junio	2023-06-27T00:00:00	2024-11-08T09:00:00	8	Radiación solar	584
157273	7	Sololá	719	Santiago Atitlán	14	Cerro de Oro	6	Junio	2023-06-27T00:00:00	2024-11-08T10:00:00	2	Temperatura media	23.7
157274	7	Sololá	719	Santiago Atitlán	14	Cerro de Oro	6	Junio	2023-06-27T00:00:00	2024-11-08T10:00:00	4	Temperatura máxima	23.8
157275	7	Sololá	719	Santiago Atitlán	14	Cerro de Oro	6	Junio	2023-06-27T00:00:00	2024-11-08T10:00:00	3	Temperatura mínima	22.8
157276	7	Sololá	719	Santiago Atitlán	14	Cerro de Oro	6	Junio	2023-06-27T00:00:00	2024-11-08T10:00:00	5	Humedad	68
157277	7	Sololá	719	Santiago Atitlán	14	Cerro de Oro	6	Junio	2023-06-27T00:00:00	2024-11-08T10:00:00	6	Velocidad del viento	9.7
157278	7	Sololá	719	Santiago Atitlán	14	Cerro de Oro	6	Junio	2023-06-27T00:00:00	2024-11-08T10:00:00	7	Dirección del viento	9.66
157279	7	Sololá	719	Santiago Atitlán	14	Cerro de Oro	6	Junio	2023-06-27T00:00:00	2024-11-08T10:00:00	1	Precipitación	0
157280	7	Sololá	719	Santiago Atitlán	14	Cerro de Oro	6	Junio	2023-06-27T00:00:00	2024-11-08T10:00:00	8	Radiación solar	684
157281	7	Sololá	719	Santiago Atitlán	14	Cerro de Oro	6	Junio	2023-06-27T00:00:00	2024-11-08T11:00:00	2	Temperatura media	21.3
157282	7	Sololá	719	Santiago Atitlán	14	Cerro de Oro	6	Junio	2023-06-27T00:00:00	2024-11-08T11:00:00	4	Temperatura máxima	23.6
157283	7	Sololá	719	Santiago Atitlán	14	Cerro de Oro	6	Junio	2023-06-27T00:00:00	2024-11-08T11:00:00	3	Temperatura mínima	21.3
157284	7	Sololá	719	Santiago Atitlán	14	Cerro de Oro	6	Junio	2023-06-27T00:00:00	2024-11-08T11:00:00	5	Humedad	78
157285	7	Sololá	719	Santiago Atitlán	14	Cerro de Oro	6	Junio	2023-06-27T00:00:00	2024-11-08T11:00:00	6	Velocidad del viento	9.7
157286	7	Sololá	719	Santiago Atitlán	14	Cerro de Oro	6	Junio	2023-06-27T00:00:00	2024-11-08T11:00:00	7	Dirección del viento	9.66
157287	7	Sololá	719	Santiago Atitlán	14	Cerro de Oro	6	Junio	2023-06-27T00:00:00	2024-11-08T11:00:00	1	Precipitación	0
157288	7	Sololá	719	Santiago Atitlán	14	Cerro de Oro	6	Junio	2023-06-27T00:00:00	2024-11-08T11:00:00	8	Radiación solar	308
157289	7	Sololá	719	Santiago Atitlán	14	Cerro de Oro	6	Junio	2023-06-27T00:00:00	2024-11-08T12:00:00	2	Temperatura media	22.6
157290	7	Sololá	719	Santiago Atitlán	14	Cerro de Oro	6	Junio	2023-06-27T00:00:00	2024-11-08T12:00:00	4	Temperatura máxima	22.6
157291	7	Sololá	719	Santiago Atitlán	14	Cerro de Oro	6	Junio	2023-06-27T00:00:00	2024-11-08T12:00:00	3	Temperatura mínima	21.3
157292	7	Sololá	719	Santiago Atitlán	14	Cerro de Oro	6	Junio	2023-06-27T00:00:00	2024-11-08T12:00:00	5	Humedad	73
157293	7	Sololá	719	Santiago Atitlán	14	Cerro de Oro	6	Junio	2023-06-27T00:00:00	2024-11-08T12:00:00	6	Velocidad del viento	8
157294	7	Sololá	719	Santiago Atitlán	14	Cerro de Oro	6	Junio	2023-06-27T00:00:00	2024-11-08T12:00:00	7	Dirección del viento	8.05
157295	7	Sololá	719	Santiago Atitlán	14	Cerro de Oro	6	Junio	2023-06-27T00:00:00	2024-11-08T12:00:00	1	Precipitación	0
157296	7	Sololá	719	Santiago Atitlán	14	Cerro de Oro	6	Junio	2023-06-27T00:00:00	2024-11-08T12:00:00	8	Radiación solar	327
157297	7	Sololá	719	Santiago Atitlán	14	Cerro de Oro	6	Junio	2023-06-27T00:00:00	2024-11-08T13:00:00	2	Temperatura media	21.8
157298	7	Sololá	719	Santiago Atitlán	14	Cerro de Oro	6	Junio	2023-06-27T00:00:00	2024-11-08T13:00:00	4	Temperatura máxima	23.9
157299	7	Sololá	719	Santiago Atitlán	14	Cerro de Oro	6	Junio	2023-06-27T00:00:00	2024-11-08T13:00:00	3	Temperatura mínima	21.8
157300	7	Sololá	719	Santiago Atitlán	14	Cerro de Oro	6	Junio	2023-06-27T00:00:00	2024-11-08T13:00:00	5	Humedad	81
157301	7	Sololá	719	Santiago Atitlán	14	Cerro de Oro	6	Junio	2023-06-27T00:00:00	2024-11-08T13:00:00	6	Velocidad del viento	6.4
157302	7	Sololá	719	Santiago Atitlán	14	Cerro de Oro	6	Junio	2023-06-27T00:00:00	2024-11-08T13:00:00	7	Dirección del viento	6.44
157303	7	Sololá	719	Santiago Atitlán	14	Cerro de Oro	6	Junio	2023-06-27T00:00:00	2024-11-08T13:00:00	1	Precipitación	0
157304	7	Sololá	719	Santiago Atitlán	14	Cerro de Oro	6	Junio	2023-06-27T00:00:00	2024-11-08T13:00:00	8	Radiación solar	342
157305	7	Sololá	719	Santiago Atitlán	14	Cerro de Oro	6	Junio	2023-06-27T00:00:00	2024-11-08T14:00:00	2	Temperatura media	21.3
157306	7	Sololá	719	Santiago Atitlán	14	Cerro de Oro	6	Junio	2023-06-27T00:00:00	2024-11-08T14:00:00	4	Temperatura máxima	22.2
157307	7	Sololá	719	Santiago Atitlán	14	Cerro de Oro	6	Junio	2023-06-27T00:00:00	2024-11-08T14:00:00	3	Temperatura mínima	21.3
157308	7	Sololá	719	Santiago Atitlán	14	Cerro de Oro	6	Junio	2023-06-27T00:00:00	2024-11-08T14:00:00	5	Humedad	83
157309	7	Sololá	719	Santiago Atitlán	14	Cerro de Oro	6	Junio	2023-06-27T00:00:00	2024-11-08T14:00:00	6	Velocidad del viento	9.7
157310	7	Sololá	719	Santiago Atitlán	14	Cerro de Oro	6	Junio	2023-06-27T00:00:00	2024-11-08T14:00:00	7	Dirección del viento	9.66
157311	7	Sololá	719	Santiago Atitlán	14	Cerro de Oro	6	Junio	2023-06-27T00:00:00	2024-11-08T14:00:00	1	Precipitación	0
157312	7	Sololá	719	Santiago Atitlán	14	Cerro de Oro	6	Junio	2023-06-27T00:00:00	2024-11-08T14:00:00	8	Radiación solar	324
157313	7	Sololá	719	Santiago Atitlán	14	Cerro de Oro	6	Junio	2023-06-27T00:00:00	2024-11-08T15:00:00	2	Temperatura media	20.1
157314	7	Sololá	719	Santiago Atitlán	14	Cerro de Oro	6	Junio	2023-06-27T00:00:00	2024-11-08T15:00:00	4	Temperatura máxima	21.5
157315	7	Sololá	719	Santiago Atitlán	14	Cerro de Oro	6	Junio	2023-06-27T00:00:00	2024-11-08T15:00:00	3	Temperatura mínima	20.1
157316	7	Sololá	719	Santiago Atitlán	14	Cerro de Oro	6	Junio	2023-06-27T00:00:00	2024-11-08T15:00:00	5	Humedad	85
157317	7	Sololá	719	Santiago Atitlán	14	Cerro de Oro	6	Junio	2023-06-27T00:00:00	2024-11-08T15:00:00	6	Velocidad del viento	11.3
157318	7	Sololá	719	Santiago Atitlán	14	Cerro de Oro	6	Junio	2023-06-27T00:00:00	2024-11-08T15:00:00	7	Dirección del viento	11.27
157319	7	Sololá	719	Santiago Atitlán	14	Cerro de Oro	6	Junio	2023-06-27T00:00:00	2024-11-08T15:00:00	1	Precipitación	0
157320	7	Sololá	719	Santiago Atitlán	14	Cerro de Oro	6	Junio	2023-06-27T00:00:00	2024-11-08T15:00:00	8	Radiación solar	370
157321	7	Sololá	719	Santiago Atitlán	14	Cerro de Oro	6	Junio	2023-06-27T00:00:00	2024-11-08T16:00:00	2	Temperatura media	19.2
157322	7	Sololá	719	Santiago Atitlán	14	Cerro de Oro	6	Junio	2023-06-27T00:00:00	2024-11-08T16:00:00	4	Temperatura máxima	20.1
157323	7	Sololá	719	Santiago Atitlán	14	Cerro de Oro	6	Junio	2023-06-27T00:00:00	2024-11-08T16:00:00	3	Temperatura mínima	18.4
157324	7	Sololá	719	Santiago Atitlán	14	Cerro de Oro	6	Junio	2023-06-27T00:00:00	2024-11-08T16:00:00	5	Humedad	87
157325	7	Sololá	719	Santiago Atitlán	14	Cerro de Oro	6	Junio	2023-06-27T00:00:00	2024-11-08T16:00:00	6	Velocidad del viento	12.9
157326	7	Sololá	719	Santiago Atitlán	14	Cerro de Oro	6	Junio	2023-06-27T00:00:00	2024-11-08T16:00:00	7	Dirección del viento	12.87
157327	7	Sololá	719	Santiago Atitlán	14	Cerro de Oro	6	Junio	2023-06-27T00:00:00	2024-11-08T16:00:00	1	Precipitación	0
157328	7	Sololá	719	Santiago Atitlán	14	Cerro de Oro	6	Junio	2023-06-27T00:00:00	2024-11-08T16:00:00	8	Radiación solar	147
157329	7	Sololá	719	Santiago Atitlán	14	Cerro de Oro	6	Junio	2023-06-27T00:00:00	2024-11-08T17:00:00	2	Temperatura media	18.9
157330	7	Sololá	719	Santiago Atitlán	14	Cerro de Oro	6	Junio	2023-06-27T00:00:00	2024-11-08T17:00:00	4	Temperatura máxima	19.5
157331	7	Sololá	719	Santiago Atitlán	14	Cerro de Oro	6	Junio	2023-06-27T00:00:00	2024-11-08T17:00:00	3	Temperatura mínima	18.9
157332	7	Sololá	719	Santiago Atitlán	14	Cerro de Oro	6	Junio	2023-06-27T00:00:00	2024-11-08T17:00:00	5	Humedad	87
157333	7	Sololá	719	Santiago Atitlán	14	Cerro de Oro	6	Junio	2023-06-27T00:00:00	2024-11-08T17:00:00	6	Velocidad del viento	9.7
157334	7	Sololá	719	Santiago Atitlán	14	Cerro de Oro	6	Junio	2023-06-27T00:00:00	2024-11-08T17:00:00	7	Dirección del viento	9.66
157335	7	Sololá	719	Santiago Atitlán	14	Cerro de Oro	6	Junio	2023-06-27T00:00:00	2024-11-08T17:00:00	1	Precipitación	0
157336	7	Sololá	719	Santiago Atitlán	14	Cerro de Oro	6	Junio	2023-06-27T00:00:00	2024-11-08T17:00:00	8	Radiación solar	48
157337	7	Sololá	719	Santiago Atitlán	14	Cerro de Oro	6	Junio	2023-06-27T00:00:00	2024-11-08T18:00:00	2	Temperatura media	18.2
157338	7	Sololá	719	Santiago Atitlán	14	Cerro de Oro	6	Junio	2023-06-27T00:00:00	2024-11-08T18:00:00	4	Temperatura máxima	19.1
157339	7	Sololá	719	Santiago Atitlán	14	Cerro de Oro	6	Junio	2023-06-27T00:00:00	2024-11-08T18:00:00	3	Temperatura mínima	18.2
157340	7	Sololá	719	Santiago Atitlán	14	Cerro de Oro	6	Junio	2023-06-27T00:00:00	2024-11-08T18:00:00	5	Humedad	91
157341	7	Sololá	719	Santiago Atitlán	14	Cerro de Oro	6	Junio	2023-06-27T00:00:00	2024-11-08T18:00:00	6	Velocidad del viento	8
157342	7	Sololá	719	Santiago Atitlán	14	Cerro de Oro	6	Junio	2023-06-27T00:00:00	2024-11-08T18:00:00	7	Dirección del viento	8.05
157343	7	Sololá	719	Santiago Atitlán	14	Cerro de Oro	6	Junio	2023-06-27T00:00:00	2024-11-08T18:00:00	1	Precipitación	0.6
157344	7	Sololá	719	Santiago Atitlán	14	Cerro de Oro	6	Junio	2023-06-27T00:00:00	2024-11-08T18:00:00	8	Radiación solar	8
157345	7	Sololá	719	Santiago Atitlán	14	Cerro de Oro	6	Junio	2023-06-27T00:00:00	2024-11-08T19:00:00	2	Temperatura media	18.4
157346	7	Sololá	719	Santiago Atitlán	14	Cerro de Oro	6	Junio	2023-06-27T00:00:00	2024-11-08T19:00:00	4	Temperatura máxima	18.7
157347	7	Sololá	719	Santiago Atitlán	14	Cerro de Oro	6	Junio	2023-06-27T00:00:00	2024-11-08T19:00:00	3	Temperatura mínima	18.2
157348	7	Sololá	719	Santiago Atitlán	14	Cerro de Oro	6	Junio	2023-06-27T00:00:00	2024-11-08T19:00:00	5	Humedad	86
157349	7	Sololá	719	Santiago Atitlán	14	Cerro de Oro	6	Junio	2023-06-27T00:00:00	2024-11-08T19:00:00	6	Velocidad del viento	9.7
157350	7	Sololá	719	Santiago Atitlán	14	Cerro de Oro	6	Junio	2023-06-27T00:00:00	2024-11-08T19:00:00	7	Dirección del viento	9.66
157351	7	Sololá	719	Santiago Atitlán	14	Cerro de Oro	6	Junio	2023-06-27T00:00:00	2024-11-08T19:00:00	1	Precipitación	1
157352	7	Sololá	719	Santiago Atitlán	14	Cerro de Oro	6	Junio	2023-06-27T00:00:00	2024-11-08T19:00:00	8	Radiación solar	0
157353	7	Sololá	719	Santiago Atitlán	14	Cerro de Oro	6	Junio	2023-06-27T00:00:00	2024-11-08T20:00:00	2	Temperatura media	17.6
157354	7	Sololá	719	Santiago Atitlán	14	Cerro de Oro	6	Junio	2023-06-27T00:00:00	2024-11-08T20:00:00	4	Temperatura máxima	18.4
157355	7	Sololá	719	Santiago Atitlán	14	Cerro de Oro	6	Junio	2023-06-27T00:00:00	2024-11-08T20:00:00	3	Temperatura mínima	17.5
157356	7	Sololá	719	Santiago Atitlán	14	Cerro de Oro	6	Junio	2023-06-27T00:00:00	2024-11-08T20:00:00	5	Humedad	92
157357	7	Sololá	719	Santiago Atitlán	14	Cerro de Oro	6	Junio	2023-06-27T00:00:00	2024-11-08T20:00:00	6	Velocidad del viento	4.8
157358	7	Sololá	719	Santiago Atitlán	14	Cerro de Oro	6	Junio	2023-06-27T00:00:00	2024-11-08T20:00:00	7	Dirección del viento	4.83
157359	7	Sololá	719	Santiago Atitlán	14	Cerro de Oro	6	Junio	2023-06-27T00:00:00	2024-11-08T20:00:00	1	Precipitación	2.6
157360	7	Sololá	719	Santiago Atitlán	14	Cerro de Oro	6	Junio	2023-06-27T00:00:00	2024-11-08T20:00:00	8	Radiación solar	0
157361	7	Sololá	719	Santiago Atitlán	14	Cerro de Oro	6	Junio	2023-06-27T00:00:00	2024-11-08T21:00:00	2	Temperatura media	17.6
157362	7	Sololá	719	Santiago Atitlán	14	Cerro de Oro	6	Junio	2023-06-27T00:00:00	2024-11-08T21:00:00	4	Temperatura máxima	17.8
157363	7	Sololá	719	Santiago Atitlán	14	Cerro de Oro	6	Junio	2023-06-27T00:00:00	2024-11-08T21:00:00	3	Temperatura mínima	17.6
157364	7	Sololá	719	Santiago Atitlán	14	Cerro de Oro	6	Junio	2023-06-27T00:00:00	2024-11-08T21:00:00	5	Humedad	92
157365	7	Sololá	719	Santiago Atitlán	14	Cerro de Oro	6	Junio	2023-06-27T00:00:00	2024-11-08T21:00:00	6	Velocidad del viento	1.6
157366	7	Sololá	719	Santiago Atitlán	14	Cerro de Oro	6	Junio	2023-06-27T00:00:00	2024-11-08T21:00:00	7	Dirección del viento	1.61
157367	7	Sololá	719	Santiago Atitlán	14	Cerro de Oro	6	Junio	2023-06-27T00:00:00	2024-11-08T21:00:00	1	Precipitación	0.2
157368	7	Sololá	719	Santiago Atitlán	14	Cerro de Oro	6	Junio	2023-06-27T00:00:00	2024-11-08T21:00:00	8	Radiación solar	0
157369	7	Sololá	719	Santiago Atitlán	14	Cerro de Oro	6	Junio	2023-06-27T00:00:00	2024-11-08T22:00:00	2	Temperatura media	17.8
157370	7	Sololá	719	Santiago Atitlán	14	Cerro de Oro	6	Junio	2023-06-27T00:00:00	2024-11-08T22:00:00	4	Temperatura máxima	17.8
157371	7	Sololá	719	Santiago Atitlán	14	Cerro de Oro	6	Junio	2023-06-27T00:00:00	2024-11-08T22:00:00	3	Temperatura mínima	17.6
157372	7	Sololá	719	Santiago Atitlán	14	Cerro de Oro	6	Junio	2023-06-27T00:00:00	2024-11-08T22:00:00	5	Humedad	92
157373	7	Sololá	719	Santiago Atitlán	14	Cerro de Oro	6	Junio	2023-06-27T00:00:00	2024-11-08T22:00:00	6	Velocidad del viento	3.2
157374	7	Sololá	719	Santiago Atitlán	14	Cerro de Oro	6	Junio	2023-06-27T00:00:00	2024-11-08T22:00:00	7	Dirección del viento	3.22
157375	7	Sololá	719	Santiago Atitlán	14	Cerro de Oro	6	Junio	2023-06-27T00:00:00	2024-11-08T22:00:00	1	Precipitación	0
157376	7	Sololá	719	Santiago Atitlán	14	Cerro de Oro	6	Junio	2023-06-27T00:00:00	2024-11-08T22:00:00	8	Radiación solar	0
157377	7	Sololá	719	Santiago Atitlán	14	Cerro de Oro	6	Junio	2023-06-27T00:00:00	2024-11-08T23:00:00	2	Temperatura media	18.1
157378	7	Sololá	719	Santiago Atitlán	14	Cerro de Oro	6	Junio	2023-06-27T00:00:00	2024-11-08T23:00:00	4	Temperatura máxima	18.1
157379	7	Sololá	719	Santiago Atitlán	14	Cerro de Oro	6	Junio	2023-06-27T00:00:00	2024-11-08T23:00:00	3	Temperatura mínima	17.8
157380	7	Sololá	719	Santiago Atitlán	14	Cerro de Oro	6	Junio	2023-06-27T00:00:00	2024-11-08T23:00:00	5	Humedad	92
157381	7	Sololá	719	Santiago Atitlán	14	Cerro de Oro	6	Junio	2023-06-27T00:00:00	2024-11-08T23:00:00	6	Velocidad del viento	3.2
157382	7	Sololá	719	Santiago Atitlán	14	Cerro de Oro	6	Junio	2023-06-27T00:00:00	2024-11-08T23:00:00	7	Dirección del viento	3.22
157383	7	Sololá	719	Santiago Atitlán	14	Cerro de Oro	6	Junio	2023-06-27T00:00:00	2024-11-08T23:00:00	1	Precipitación	0
157384	7	Sololá	719	Santiago Atitlán	14	Cerro de Oro	6	Junio	2023-06-27T00:00:00	2024-11-08T23:00:00	8	Radiación solar	0
157385	7	Sololá	719	Santiago Atitlán	14	Cerro de Oro	6	Junio	2023-06-28T00:00:00	2024-11-08T00:00:00	2	Temperatura media	18.2
157386	7	Sololá	719	Santiago Atitlán	14	Cerro de Oro	6	Junio	2023-06-28T00:00:00	2024-11-08T00:00:00	4	Temperatura máxima	18.3
157387	7	Sololá	719	Santiago Atitlán	14	Cerro de Oro	6	Junio	2023-06-28T00:00:00	2024-11-08T00:00:00	3	Temperatura mínima	17.9
157388	7	Sololá	719	Santiago Atitlán	14	Cerro de Oro	6	Junio	2023-06-28T00:00:00	2024-11-08T00:00:00	5	Humedad	92
157389	7	Sololá	719	Santiago Atitlán	14	Cerro de Oro	6	Junio	2023-06-28T00:00:00	2024-11-08T00:00:00	6	Velocidad del viento	4.8
157390	7	Sololá	719	Santiago Atitlán	14	Cerro de Oro	6	Junio	2023-06-28T00:00:00	2024-11-08T00:00:00	7	Dirección del viento	4.83
157391	7	Sololá	719	Santiago Atitlán	14	Cerro de Oro	6	Junio	2023-06-28T00:00:00	2024-11-08T00:00:00	1	Precipitación	0
157392	7	Sololá	719	Santiago Atitlán	14	Cerro de Oro	6	Junio	2023-06-28T00:00:00	2024-11-08T00:00:00	8	Radiación solar	0
157393	7	Sololá	719	Santiago Atitlán	14	Cerro de Oro	6	Junio	2023-06-28T00:00:00	2024-11-08T01:00:00	2	Temperatura media	17.8
157394	7	Sololá	719	Santiago Atitlán	14	Cerro de Oro	6	Junio	2023-06-28T00:00:00	2024-11-08T01:00:00	4	Temperatura máxima	18.3
157395	7	Sololá	719	Santiago Atitlán	14	Cerro de Oro	6	Junio	2023-06-28T00:00:00	2024-11-08T01:00:00	3	Temperatura mínima	17.8
157396	7	Sololá	719	Santiago Atitlán	14	Cerro de Oro	6	Junio	2023-06-28T00:00:00	2024-11-08T01:00:00	5	Humedad	92
157397	7	Sololá	719	Santiago Atitlán	14	Cerro de Oro	6	Junio	2023-06-28T00:00:00	2024-11-08T01:00:00	6	Velocidad del viento	3.2
157398	7	Sololá	719	Santiago Atitlán	14	Cerro de Oro	6	Junio	2023-06-28T00:00:00	2024-11-08T01:00:00	7	Dirección del viento	3.22
157399	7	Sololá	719	Santiago Atitlán	14	Cerro de Oro	6	Junio	2023-06-28T00:00:00	2024-11-08T01:00:00	1	Precipitación	0
157400	7	Sololá	719	Santiago Atitlán	14	Cerro de Oro	6	Junio	2023-06-28T00:00:00	2024-11-08T01:00:00	8	Radiación solar	0
157401	7	Sololá	719	Santiago Atitlán	14	Cerro de Oro	6	Junio	2023-06-28T00:00:00	2024-11-08T02:00:00	2	Temperatura media	17.7
157402	7	Sololá	719	Santiago Atitlán	14	Cerro de Oro	6	Junio	2023-06-28T00:00:00	2024-11-08T02:00:00	4	Temperatura máxima	18
157403	7	Sololá	719	Santiago Atitlán	14	Cerro de Oro	6	Junio	2023-06-28T00:00:00	2024-11-08T02:00:00	3	Temperatura mínima	17.7
157404	7	Sololá	719	Santiago Atitlán	14	Cerro de Oro	6	Junio	2023-06-28T00:00:00	2024-11-08T02:00:00	5	Humedad	91
157405	7	Sololá	719	Santiago Atitlán	14	Cerro de Oro	6	Junio	2023-06-28T00:00:00	2024-11-08T02:00:00	6	Velocidad del viento	4.8
157406	7	Sololá	719	Santiago Atitlán	14	Cerro de Oro	6	Junio	2023-06-28T00:00:00	2024-11-08T02:00:00	7	Dirección del viento	4.83
157407	7	Sololá	719	Santiago Atitlán	14	Cerro de Oro	6	Junio	2023-06-28T00:00:00	2024-11-08T02:00:00	1	Precipitación	0.6
157408	7	Sololá	719	Santiago Atitlán	14	Cerro de Oro	6	Junio	2023-06-28T00:00:00	2024-11-08T02:00:00	8	Radiación solar	0
157409	7	Sololá	719	Santiago Atitlán	14	Cerro de Oro	6	Junio	2023-06-28T00:00:00	2024-11-08T03:00:00	2	Temperatura media	17.1
157410	7	Sololá	719	Santiago Atitlán	14	Cerro de Oro	6	Junio	2023-06-28T00:00:00	2024-11-08T03:00:00	4	Temperatura máxima	17.7
157411	7	Sololá	719	Santiago Atitlán	14	Cerro de Oro	6	Junio	2023-06-28T00:00:00	2024-11-08T03:00:00	3	Temperatura mínima	17.1
157412	7	Sololá	719	Santiago Atitlán	14	Cerro de Oro	6	Junio	2023-06-28T00:00:00	2024-11-08T03:00:00	5	Humedad	91
157413	7	Sololá	719	Santiago Atitlán	14	Cerro de Oro	6	Junio	2023-06-28T00:00:00	2024-11-08T03:00:00	6	Velocidad del viento	3.2
157414	7	Sololá	719	Santiago Atitlán	14	Cerro de Oro	6	Junio	2023-06-28T00:00:00	2024-11-08T03:00:00	7	Dirección del viento	3.22
157415	7	Sololá	719	Santiago Atitlán	14	Cerro de Oro	6	Junio	2023-06-28T00:00:00	2024-11-08T03:00:00	1	Precipitación	0.4
157416	7	Sololá	719	Santiago Atitlán	14	Cerro de Oro	6	Junio	2023-06-28T00:00:00	2024-11-08T03:00:00	8	Radiación solar	0
157417	7	Sololá	719	Santiago Atitlán	14	Cerro de Oro	6	Junio	2023-06-28T00:00:00	2024-11-08T04:00:00	2	Temperatura media	17.4
157418	7	Sololá	719	Santiago Atitlán	14	Cerro de Oro	6	Junio	2023-06-28T00:00:00	2024-11-08T04:00:00	4	Temperatura máxima	17.4
157419	7	Sololá	719	Santiago Atitlán	14	Cerro de Oro	6	Junio	2023-06-28T00:00:00	2024-11-08T04:00:00	3	Temperatura mínima	17.1
157420	7	Sololá	719	Santiago Atitlán	14	Cerro de Oro	6	Junio	2023-06-28T00:00:00	2024-11-08T04:00:00	5	Humedad	92
157421	7	Sololá	719	Santiago Atitlán	14	Cerro de Oro	6	Junio	2023-06-28T00:00:00	2024-11-08T04:00:00	6	Velocidad del viento	4.8
157422	7	Sololá	719	Santiago Atitlán	14	Cerro de Oro	6	Junio	2023-06-28T00:00:00	2024-11-08T04:00:00	7	Dirección del viento	4.83
157423	7	Sololá	719	Santiago Atitlán	14	Cerro de Oro	6	Junio	2023-06-28T00:00:00	2024-11-08T04:00:00	1	Precipitación	0.2
157424	7	Sololá	719	Santiago Atitlán	14	Cerro de Oro	6	Junio	2023-06-28T00:00:00	2024-11-08T04:00:00	8	Radiación solar	0
157425	7	Sololá	719	Santiago Atitlán	14	Cerro de Oro	6	Junio	2023-06-28T00:00:00	2024-11-08T05:00:00	2	Temperatura media	17.4
157426	7	Sololá	719	Santiago Atitlán	14	Cerro de Oro	6	Junio	2023-06-28T00:00:00	2024-11-08T05:00:00	4	Temperatura máxima	17.8
157427	7	Sololá	719	Santiago Atitlán	14	Cerro de Oro	6	Junio	2023-06-28T00:00:00	2024-11-08T05:00:00	3	Temperatura mínima	17.4
157428	7	Sololá	719	Santiago Atitlán	14	Cerro de Oro	6	Junio	2023-06-28T00:00:00	2024-11-08T05:00:00	5	Humedad	92
157429	7	Sololá	719	Santiago Atitlán	14	Cerro de Oro	6	Junio	2023-06-28T00:00:00	2024-11-08T05:00:00	6	Velocidad del viento	3.2
157430	7	Sololá	719	Santiago Atitlán	14	Cerro de Oro	6	Junio	2023-06-28T00:00:00	2024-11-08T05:00:00	7	Dirección del viento	3.22
157431	7	Sololá	719	Santiago Atitlán	14	Cerro de Oro	6	Junio	2023-06-28T00:00:00	2024-11-08T05:00:00	1	Precipitación	0.2
157432	7	Sololá	719	Santiago Atitlán	14	Cerro de Oro	6	Junio	2023-06-28T00:00:00	2024-11-08T05:00:00	8	Radiación solar	0
157433	7	Sololá	719	Santiago Atitlán	14	Cerro de Oro	6	Junio	2023-06-28T00:00:00	2024-11-08T06:00:00	2	Temperatura media	17.6
157434	7	Sololá	719	Santiago Atitlán	14	Cerro de Oro	6	Junio	2023-06-28T00:00:00	2024-11-08T06:00:00	4	Temperatura máxima	17.8
157435	7	Sololá	719	Santiago Atitlán	14	Cerro de Oro	6	Junio	2023-06-28T00:00:00	2024-11-08T06:00:00	3	Temperatura mínima	17.4
157436	7	Sololá	719	Santiago Atitlán	14	Cerro de Oro	6	Junio	2023-06-28T00:00:00	2024-11-08T06:00:00	5	Humedad	91
157437	7	Sololá	719	Santiago Atitlán	14	Cerro de Oro	6	Junio	2023-06-28T00:00:00	2024-11-08T06:00:00	6	Velocidad del viento	3.2
157438	7	Sololá	719	Santiago Atitlán	14	Cerro de Oro	6	Junio	2023-06-28T00:00:00	2024-11-08T06:00:00	7	Dirección del viento	3.22
157439	7	Sololá	719	Santiago Atitlán	14	Cerro de Oro	6	Junio	2023-06-28T00:00:00	2024-11-08T06:00:00	1	Precipitación	0
157440	7	Sololá	719	Santiago Atitlán	14	Cerro de Oro	6	Junio	2023-06-28T00:00:00	2024-11-08T06:00:00	8	Radiación solar	3
157441	7	Sololá	719	Santiago Atitlán	14	Cerro de Oro	6	Junio	2023-06-28T00:00:00	2024-11-08T07:00:00	2	Temperatura media	18.6
157442	7	Sololá	719	Santiago Atitlán	14	Cerro de Oro	6	Junio	2023-06-28T00:00:00	2024-11-08T07:00:00	4	Temperatura máxima	18.6
157443	7	Sololá	719	Santiago Atitlán	14	Cerro de Oro	6	Junio	2023-06-28T00:00:00	2024-11-08T07:00:00	3	Temperatura mínima	17.6
157444	7	Sololá	719	Santiago Atitlán	14	Cerro de Oro	6	Junio	2023-06-28T00:00:00	2024-11-08T07:00:00	5	Humedad	88
157445	7	Sololá	719	Santiago Atitlán	14	Cerro de Oro	6	Junio	2023-06-28T00:00:00	2024-11-08T07:00:00	6	Velocidad del viento	4.8
157446	7	Sololá	719	Santiago Atitlán	14	Cerro de Oro	6	Junio	2023-06-28T00:00:00	2024-11-08T07:00:00	7	Dirección del viento	4.83
157447	7	Sololá	719	Santiago Atitlán	14	Cerro de Oro	6	Junio	2023-06-28T00:00:00	2024-11-08T07:00:00	1	Precipitación	0
157448	7	Sololá	719	Santiago Atitlán	14	Cerro de Oro	6	Junio	2023-06-28T00:00:00	2024-11-08T07:00:00	8	Radiación solar	58
157449	7	Sololá	719	Santiago Atitlán	14	Cerro de Oro	6	Junio	2023-06-28T00:00:00	2024-11-08T08:00:00	2	Temperatura media	19.8
157450	7	Sololá	719	Santiago Atitlán	14	Cerro de Oro	6	Junio	2023-06-28T00:00:00	2024-11-08T08:00:00	4	Temperatura máxima	19.8
157451	7	Sololá	719	Santiago Atitlán	14	Cerro de Oro	6	Junio	2023-06-28T00:00:00	2024-11-08T08:00:00	3	Temperatura mínima	18.6
157452	7	Sololá	719	Santiago Atitlán	14	Cerro de Oro	6	Junio	2023-06-28T00:00:00	2024-11-08T08:00:00	5	Humedad	85
157453	7	Sololá	719	Santiago Atitlán	14	Cerro de Oro	6	Junio	2023-06-28T00:00:00	2024-11-08T08:00:00	6	Velocidad del viento	3.2
157454	7	Sololá	719	Santiago Atitlán	14	Cerro de Oro	6	Junio	2023-06-28T00:00:00	2024-11-08T08:00:00	7	Dirección del viento	3.22
157455	7	Sololá	719	Santiago Atitlán	14	Cerro de Oro	6	Junio	2023-06-28T00:00:00	2024-11-08T08:00:00	1	Precipitación	0
157456	7	Sololá	719	Santiago Atitlán	14	Cerro de Oro	6	Junio	2023-06-28T00:00:00	2024-11-08T08:00:00	8	Radiación solar	166
157457	7	Sololá	719	Santiago Atitlán	14	Cerro de Oro	6	Junio	2023-06-28T00:00:00	2024-11-08T09:00:00	2	Temperatura media	20.9
157458	7	Sololá	719	Santiago Atitlán	14	Cerro de Oro	6	Junio	2023-06-28T00:00:00	2024-11-08T09:00:00	4	Temperatura máxima	21
157459	7	Sololá	719	Santiago Atitlán	14	Cerro de Oro	6	Junio	2023-06-28T00:00:00	2024-11-08T09:00:00	3	Temperatura mínima	19.8
157460	7	Sololá	719	Santiago Atitlán	14	Cerro de Oro	6	Junio	2023-06-28T00:00:00	2024-11-08T09:00:00	5	Humedad	81
157461	7	Sololá	719	Santiago Atitlán	14	Cerro de Oro	6	Junio	2023-06-28T00:00:00	2024-11-08T09:00:00	6	Velocidad del viento	1.6
157462	7	Sololá	719	Santiago Atitlán	14	Cerro de Oro	6	Junio	2023-06-28T00:00:00	2024-11-08T09:00:00	7	Dirección del viento	1.61
157463	7	Sololá	719	Santiago Atitlán	14	Cerro de Oro	6	Junio	2023-06-28T00:00:00	2024-11-08T09:00:00	1	Precipitación	0
157464	7	Sololá	719	Santiago Atitlán	14	Cerro de Oro	6	Junio	2023-06-28T00:00:00	2024-11-08T09:00:00	8	Radiación solar	257
157465	7	Sololá	719	Santiago Atitlán	14	Cerro de Oro	6	Junio	2023-06-28T00:00:00	2024-11-08T10:00:00	2	Temperatura media	22.2
157466	7	Sololá	719	Santiago Atitlán	14	Cerro de Oro	6	Junio	2023-06-28T00:00:00	2024-11-08T10:00:00	4	Temperatura máxima	22.2
157467	7	Sololá	719	Santiago Atitlán	14	Cerro de Oro	6	Junio	2023-06-28T00:00:00	2024-11-08T10:00:00	3	Temperatura mínima	20.9
157468	7	Sololá	719	Santiago Atitlán	14	Cerro de Oro	6	Junio	2023-06-28T00:00:00	2024-11-08T10:00:00	5	Humedad	74
157469	7	Sololá	719	Santiago Atitlán	14	Cerro de Oro	6	Junio	2023-06-28T00:00:00	2024-11-08T10:00:00	6	Velocidad del viento	1.6
157470	7	Sololá	719	Santiago Atitlán	14	Cerro de Oro	6	Junio	2023-06-28T00:00:00	2024-11-08T10:00:00	7	Dirección del viento	1.61
157471	7	Sololá	719	Santiago Atitlán	14	Cerro de Oro	6	Junio	2023-06-28T00:00:00	2024-11-08T10:00:00	1	Precipitación	0
157472	7	Sololá	719	Santiago Atitlán	14	Cerro de Oro	6	Junio	2023-06-28T00:00:00	2024-11-08T10:00:00	8	Radiación solar	472
157473	7	Sololá	719	Santiago Atitlán	14	Cerro de Oro	6	Junio	2023-06-28T00:00:00	2024-11-08T11:00:00	2	Temperatura media	23.3
157474	7	Sololá	719	Santiago Atitlán	14	Cerro de Oro	6	Junio	2023-06-28T00:00:00	2024-11-08T11:00:00	4	Temperatura máxima	23.3
157475	7	Sololá	719	Santiago Atitlán	14	Cerro de Oro	6	Junio	2023-06-28T00:00:00	2024-11-08T11:00:00	3	Temperatura mínima	22.1
157476	7	Sololá	719	Santiago Atitlán	14	Cerro de Oro	6	Junio	2023-06-28T00:00:00	2024-11-08T11:00:00	5	Humedad	75
157477	7	Sololá	719	Santiago Atitlán	14	Cerro de Oro	6	Junio	2023-06-28T00:00:00	2024-11-08T11:00:00	6	Velocidad del viento	6.4
157478	7	Sololá	719	Santiago Atitlán	14	Cerro de Oro	6	Junio	2023-06-28T00:00:00	2024-11-08T11:00:00	7	Dirección del viento	6.44
157479	7	Sololá	719	Santiago Atitlán	14	Cerro de Oro	6	Junio	2023-06-28T00:00:00	2024-11-08T11:00:00	1	Precipitación	0
157480	7	Sololá	719	Santiago Atitlán	14	Cerro de Oro	6	Junio	2023-06-28T00:00:00	2024-11-08T11:00:00	8	Radiación solar	731
157481	7	Sololá	719	Santiago Atitlán	14	Cerro de Oro	6	Junio	2023-06-28T00:00:00	2024-11-08T12:00:00	2	Temperatura media	24.9
157482	7	Sololá	719	Santiago Atitlán	14	Cerro de Oro	6	Junio	2023-06-28T00:00:00	2024-11-08T12:00:00	4	Temperatura máxima	24.9
157483	7	Sololá	719	Santiago Atitlán	14	Cerro de Oro	6	Junio	2023-06-28T00:00:00	2024-11-08T12:00:00	3	Temperatura mínima	23.2
157484	7	Sololá	719	Santiago Atitlán	14	Cerro de Oro	6	Junio	2023-06-28T00:00:00	2024-11-08T12:00:00	5	Humedad	68
157485	7	Sololá	719	Santiago Atitlán	14	Cerro de Oro	6	Junio	2023-06-28T00:00:00	2024-11-08T12:00:00	6	Velocidad del viento	9.7
157486	7	Sololá	719	Santiago Atitlán	14	Cerro de Oro	6	Junio	2023-06-28T00:00:00	2024-11-08T12:00:00	7	Dirección del viento	9.66
157487	7	Sololá	719	Santiago Atitlán	14	Cerro de Oro	6	Junio	2023-06-28T00:00:00	2024-11-08T12:00:00	1	Precipitación	0
157488	7	Sololá	719	Santiago Atitlán	14	Cerro de Oro	6	Junio	2023-06-28T00:00:00	2024-11-08T12:00:00	8	Radiación solar	989
157489	7	Sololá	719	Santiago Atitlán	14	Cerro de Oro	6	Junio	2023-06-28T00:00:00	2024-11-08T13:00:00	2	Temperatura media	24.7
157490	7	Sololá	719	Santiago Atitlán	14	Cerro de Oro	6	Junio	2023-06-28T00:00:00	2024-11-08T13:00:00	4	Temperatura máxima	25.1
157491	7	Sololá	719	Santiago Atitlán	14	Cerro de Oro	6	Junio	2023-06-28T00:00:00	2024-11-08T13:00:00	3	Temperatura mínima	24.6
157492	7	Sololá	719	Santiago Atitlán	14	Cerro de Oro	6	Junio	2023-06-28T00:00:00	2024-11-08T13:00:00	5	Humedad	72
157493	7	Sololá	719	Santiago Atitlán	14	Cerro de Oro	6	Junio	2023-06-28T00:00:00	2024-11-08T13:00:00	6	Velocidad del viento	9.7
157494	7	Sololá	719	Santiago Atitlán	14	Cerro de Oro	6	Junio	2023-06-28T00:00:00	2024-11-08T13:00:00	7	Dirección del viento	9.66
157495	7	Sololá	719	Santiago Atitlán	14	Cerro de Oro	6	Junio	2023-06-28T00:00:00	2024-11-08T13:00:00	1	Precipitación	0
157496	7	Sololá	719	Santiago Atitlán	14	Cerro de Oro	6	Junio	2023-06-28T00:00:00	2024-11-08T13:00:00	8	Radiación solar	998
157497	7	Sololá	719	Santiago Atitlán	14	Cerro de Oro	6	Junio	2023-06-28T00:00:00	2024-11-08T14:00:00	2	Temperatura media	24.1
157498	7	Sololá	719	Santiago Atitlán	14	Cerro de Oro	6	Junio	2023-06-28T00:00:00	2024-11-08T14:00:00	4	Temperatura máxima	24.7
157499	7	Sololá	719	Santiago Atitlán	14	Cerro de Oro	6	Junio	2023-06-28T00:00:00	2024-11-08T14:00:00	3	Temperatura mínima	23.7
157500	7	Sololá	719	Santiago Atitlán	14	Cerro de Oro	6	Junio	2023-06-28T00:00:00	2024-11-08T14:00:00	5	Humedad	74
157501	7	Sololá	719	Santiago Atitlán	14	Cerro de Oro	6	Junio	2023-06-28T00:00:00	2024-11-08T14:00:00	6	Velocidad del viento	12.9
157502	7	Sololá	719	Santiago Atitlán	14	Cerro de Oro	6	Junio	2023-06-28T00:00:00	2024-11-08T14:00:00	7	Dirección del viento	12.87
157503	7	Sololá	719	Santiago Atitlán	14	Cerro de Oro	6	Junio	2023-06-28T00:00:00	2024-11-08T14:00:00	1	Precipitación	0
157504	7	Sololá	719	Santiago Atitlán	14	Cerro de Oro	6	Junio	2023-06-28T00:00:00	2024-11-08T14:00:00	8	Radiación solar	816
157505	7	Sololá	719	Santiago Atitlán	14	Cerro de Oro	6	Junio	2023-06-28T00:00:00	2024-11-08T15:00:00	2	Temperatura media	21.7
157506	7	Sololá	719	Santiago Atitlán	14	Cerro de Oro	6	Junio	2023-06-28T00:00:00	2024-11-08T15:00:00	4	Temperatura máxima	24.9
157507	7	Sololá	719	Santiago Atitlán	14	Cerro de Oro	6	Junio	2023-06-28T00:00:00	2024-11-08T15:00:00	3	Temperatura mínima	21.7
157508	7	Sololá	719	Santiago Atitlán	14	Cerro de Oro	6	Junio	2023-06-28T00:00:00	2024-11-08T15:00:00	5	Humedad	84
157509	7	Sololá	719	Santiago Atitlán	14	Cerro de Oro	6	Junio	2023-06-28T00:00:00	2024-11-08T15:00:00	6	Velocidad del viento	11.3
157510	7	Sololá	719	Santiago Atitlán	14	Cerro de Oro	6	Junio	2023-06-28T00:00:00	2024-11-08T15:00:00	7	Dirección del viento	11.27
157511	7	Sololá	719	Santiago Atitlán	14	Cerro de Oro	6	Junio	2023-06-28T00:00:00	2024-11-08T15:00:00	1	Precipitación	0
157512	7	Sololá	719	Santiago Atitlán	14	Cerro de Oro	6	Junio	2023-06-28T00:00:00	2024-11-08T15:00:00	8	Radiación solar	588
157513	7	Sololá	719	Santiago Atitlán	14	Cerro de Oro	6	Junio	2023-06-28T00:00:00	2024-11-08T16:00:00	2	Temperatura media	19.3
157514	7	Sololá	719	Santiago Atitlán	14	Cerro de Oro	6	Junio	2023-06-28T00:00:00	2024-11-08T16:00:00	4	Temperatura máxima	21.8
157515	7	Sololá	719	Santiago Atitlán	14	Cerro de Oro	6	Junio	2023-06-28T00:00:00	2024-11-08T16:00:00	3	Temperatura mínima	19.3
157516	7	Sololá	719	Santiago Atitlán	14	Cerro de Oro	6	Junio	2023-06-28T00:00:00	2024-11-08T16:00:00	5	Humedad	87
157517	7	Sololá	719	Santiago Atitlán	14	Cerro de Oro	6	Junio	2023-06-28T00:00:00	2024-11-08T16:00:00	6	Velocidad del viento	8
157518	7	Sololá	719	Santiago Atitlán	14	Cerro de Oro	6	Junio	2023-06-28T00:00:00	2024-11-08T16:00:00	7	Dirección del viento	8.05
157519	7	Sololá	719	Santiago Atitlán	14	Cerro de Oro	6	Junio	2023-06-28T00:00:00	2024-11-08T16:00:00	1	Precipitación	14.4
157520	7	Sololá	719	Santiago Atitlán	14	Cerro de Oro	6	Junio	2023-06-28T00:00:00	2024-11-08T16:00:00	8	Radiación solar	98
157521	7	Sololá	719	Santiago Atitlán	14	Cerro de Oro	6	Junio	2023-06-28T00:00:00	2024-11-08T17:00:00	2	Temperatura media	18.1
157522	7	Sololá	719	Santiago Atitlán	14	Cerro de Oro	6	Junio	2023-06-28T00:00:00	2024-11-08T17:00:00	4	Temperatura máxima	19.3
157523	7	Sololá	719	Santiago Atitlán	14	Cerro de Oro	6	Junio	2023-06-28T00:00:00	2024-11-08T17:00:00	3	Temperatura mínima	18.1
157524	7	Sololá	719	Santiago Atitlán	14	Cerro de Oro	6	Junio	2023-06-28T00:00:00	2024-11-08T17:00:00	5	Humedad	92
157525	7	Sololá	719	Santiago Atitlán	14	Cerro de Oro	6	Junio	2023-06-28T00:00:00	2024-11-08T17:00:00	6	Velocidad del viento	4.8
157526	7	Sololá	719	Santiago Atitlán	14	Cerro de Oro	6	Junio	2023-06-28T00:00:00	2024-11-08T17:00:00	7	Dirección del viento	4.83
157527	7	Sololá	719	Santiago Atitlán	14	Cerro de Oro	6	Junio	2023-06-28T00:00:00	2024-11-08T17:00:00	1	Precipitación	7.4
157528	7	Sololá	719	Santiago Atitlán	14	Cerro de Oro	6	Junio	2023-06-28T00:00:00	2024-11-08T17:00:00	8	Radiación solar	20
157529	7	Sololá	719	Santiago Atitlán	14	Cerro de Oro	6	Junio	2023-06-28T00:00:00	2024-11-08T18:00:00	2	Temperatura media	18.4
157530	7	Sololá	719	Santiago Atitlán	14	Cerro de Oro	6	Junio	2023-06-28T00:00:00	2024-11-08T18:00:00	4	Temperatura máxima	18.5
157531	7	Sololá	719	Santiago Atitlán	14	Cerro de Oro	6	Junio	2023-06-28T00:00:00	2024-11-08T18:00:00	3	Temperatura mínima	18.1
157532	7	Sololá	719	Santiago Atitlán	14	Cerro de Oro	6	Junio	2023-06-28T00:00:00	2024-11-08T18:00:00	5	Humedad	91
157533	7	Sololá	719	Santiago Atitlán	14	Cerro de Oro	6	Junio	2023-06-28T00:00:00	2024-11-08T18:00:00	6	Velocidad del viento	3.2
157534	7	Sololá	719	Santiago Atitlán	14	Cerro de Oro	6	Junio	2023-06-28T00:00:00	2024-11-08T18:00:00	7	Dirección del viento	3.22
157535	7	Sololá	719	Santiago Atitlán	14	Cerro de Oro	6	Junio	2023-06-28T00:00:00	2024-11-08T18:00:00	1	Precipitación	0.2
157536	7	Sololá	719	Santiago Atitlán	14	Cerro de Oro	6	Junio	2023-06-28T00:00:00	2024-11-08T18:00:00	8	Radiación solar	22
157537	7	Sololá	719	Santiago Atitlán	14	Cerro de Oro	6	Junio	2023-06-28T00:00:00	2024-11-08T19:00:00	2	Temperatura media	18.2
157538	7	Sololá	719	Santiago Atitlán	14	Cerro de Oro	6	Junio	2023-06-28T00:00:00	2024-11-08T19:00:00	4	Temperatura máxima	18.4
157539	7	Sololá	719	Santiago Atitlán	14	Cerro de Oro	6	Junio	2023-06-28T00:00:00	2024-11-08T19:00:00	3	Temperatura mínima	18.2
157540	7	Sololá	719	Santiago Atitlán	14	Cerro de Oro	6	Junio	2023-06-28T00:00:00	2024-11-08T19:00:00	5	Humedad	92
157541	7	Sololá	719	Santiago Atitlán	14	Cerro de Oro	6	Junio	2023-06-28T00:00:00	2024-11-08T19:00:00	6	Velocidad del viento	3.2
157542	7	Sololá	719	Santiago Atitlán	14	Cerro de Oro	6	Junio	2023-06-28T00:00:00	2024-11-08T19:00:00	7	Dirección del viento	3.22
157543	7	Sololá	719	Santiago Atitlán	14	Cerro de Oro	6	Junio	2023-06-28T00:00:00	2024-11-08T19:00:00	1	Precipitación	0
157544	7	Sololá	719	Santiago Atitlán	14	Cerro de Oro	6	Junio	2023-06-28T00:00:00	2024-11-08T19:00:00	8	Radiación solar	0
157545	7	Sololá	719	Santiago Atitlán	14	Cerro de Oro	6	Junio	2023-06-28T00:00:00	2024-11-08T20:00:00	2	Temperatura media	18.7
157546	7	Sololá	719	Santiago Atitlán	14	Cerro de Oro	6	Junio	2023-06-28T00:00:00	2024-11-08T20:00:00	4	Temperatura máxima	18.7
157547	7	Sololá	719	Santiago Atitlán	14	Cerro de Oro	6	Junio	2023-06-28T00:00:00	2024-11-08T20:00:00	3	Temperatura mínima	18.2
157548	7	Sololá	719	Santiago Atitlán	14	Cerro de Oro	6	Junio	2023-06-28T00:00:00	2024-11-08T20:00:00	5	Humedad	90
157549	7	Sololá	719	Santiago Atitlán	14	Cerro de Oro	6	Junio	2023-06-28T00:00:00	2024-11-08T20:00:00	6	Velocidad del viento	3.2
157550	7	Sololá	719	Santiago Atitlán	14	Cerro de Oro	6	Junio	2023-06-28T00:00:00	2024-11-08T20:00:00	7	Dirección del viento	3.22
157551	7	Sololá	719	Santiago Atitlán	14	Cerro de Oro	6	Junio	2023-06-28T00:00:00	2024-11-08T20:00:00	1	Precipitación	0
157552	7	Sololá	719	Santiago Atitlán	14	Cerro de Oro	6	Junio	2023-06-28T00:00:00	2024-11-08T20:00:00	8	Radiación solar	0
157553	7	Sololá	719	Santiago Atitlán	14	Cerro de Oro	6	Junio	2023-06-28T00:00:00	2024-11-08T21:00:00	2	Temperatura media	19.6
157554	7	Sololá	719	Santiago Atitlán	14	Cerro de Oro	6	Junio	2023-06-28T00:00:00	2024-11-08T21:00:00	4	Temperatura máxima	19.6
157555	7	Sololá	719	Santiago Atitlán	14	Cerro de Oro	6	Junio	2023-06-28T00:00:00	2024-11-08T21:00:00	3	Temperatura mínima	18.7
157556	7	Sololá	719	Santiago Atitlán	14	Cerro de Oro	6	Junio	2023-06-28T00:00:00	2024-11-08T21:00:00	5	Humedad	86
157557	7	Sololá	719	Santiago Atitlán	14	Cerro de Oro	6	Junio	2023-06-28T00:00:00	2024-11-08T21:00:00	6	Velocidad del viento	4.8
157558	7	Sololá	719	Santiago Atitlán	14	Cerro de Oro	6	Junio	2023-06-28T00:00:00	2024-11-08T21:00:00	7	Dirección del viento	4.83
157559	7	Sololá	719	Santiago Atitlán	14	Cerro de Oro	6	Junio	2023-06-28T00:00:00	2024-11-08T21:00:00	1	Precipitación	0
157560	7	Sololá	719	Santiago Atitlán	14	Cerro de Oro	6	Junio	2023-06-28T00:00:00	2024-11-08T21:00:00	8	Radiación solar	0
157561	7	Sololá	719	Santiago Atitlán	14	Cerro de Oro	6	Junio	2023-06-28T00:00:00	2024-11-08T22:00:00	2	Temperatura media	19.5
157562	7	Sololá	719	Santiago Atitlán	14	Cerro de Oro	6	Junio	2023-06-28T00:00:00	2024-11-08T22:00:00	4	Temperatura máxima	19.6
157563	7	Sololá	719	Santiago Atitlán	14	Cerro de Oro	6	Junio	2023-06-28T00:00:00	2024-11-08T22:00:00	3	Temperatura mínima	18.7
157564	7	Sololá	719	Santiago Atitlán	14	Cerro de Oro	6	Junio	2023-06-28T00:00:00	2024-11-08T22:00:00	5	Humedad	87
157565	7	Sololá	719	Santiago Atitlán	14	Cerro de Oro	6	Junio	2023-06-28T00:00:00	2024-11-08T22:00:00	6	Velocidad del viento	3.2
157566	7	Sololá	719	Santiago Atitlán	14	Cerro de Oro	6	Junio	2023-06-28T00:00:00	2024-11-08T22:00:00	7	Dirección del viento	3.22
157567	7	Sololá	719	Santiago Atitlán	14	Cerro de Oro	6	Junio	2023-06-28T00:00:00	2024-11-08T22:00:00	1	Precipitación	0
157568	7	Sololá	719	Santiago Atitlán	14	Cerro de Oro	6	Junio	2023-06-28T00:00:00	2024-11-08T22:00:00	8	Radiación solar	0
157569	7	Sololá	719	Santiago Atitlán	14	Cerro de Oro	6	Junio	2023-06-28T00:00:00	2024-11-08T23:00:00	2	Temperatura media	19.7
157570	7	Sololá	719	Santiago Atitlán	14	Cerro de Oro	6	Junio	2023-06-28T00:00:00	2024-11-08T23:00:00	4	Temperatura máxima	19.8
157571	7	Sololá	719	Santiago Atitlán	14	Cerro de Oro	6	Junio	2023-06-28T00:00:00	2024-11-08T23:00:00	3	Temperatura mínima	19.3
157572	7	Sololá	719	Santiago Atitlán	14	Cerro de Oro	6	Junio	2023-06-28T00:00:00	2024-11-08T23:00:00	5	Humedad	85
157573	7	Sololá	719	Santiago Atitlán	14	Cerro de Oro	6	Junio	2023-06-28T00:00:00	2024-11-08T23:00:00	6	Velocidad del viento	4.8
157574	7	Sololá	719	Santiago Atitlán	14	Cerro de Oro	6	Junio	2023-06-28T00:00:00	2024-11-08T23:00:00	7	Dirección del viento	4.83
157575	7	Sololá	719	Santiago Atitlán	14	Cerro de Oro	6	Junio	2023-06-28T00:00:00	2024-11-08T23:00:00	1	Precipitación	0
157576	7	Sololá	719	Santiago Atitlán	14	Cerro de Oro	6	Junio	2023-06-28T00:00:00	2024-11-08T23:00:00	8	Radiación solar	0
157577	7	Sololá	719	Santiago Atitlán	14	Cerro de Oro	6	Junio	2023-06-29T00:00:00	2024-11-08T00:00:00	2	Temperatura media	19.7
157578	7	Sololá	719	Santiago Atitlán	14	Cerro de Oro	6	Junio	2023-06-29T00:00:00	2024-11-08T00:00:00	4	Temperatura máxima	20.6
157579	7	Sololá	719	Santiago Atitlán	14	Cerro de Oro	6	Junio	2023-06-29T00:00:00	2024-11-08T00:00:00	3	Temperatura mínima	19.7
157580	7	Sololá	719	Santiago Atitlán	14	Cerro de Oro	6	Junio	2023-06-29T00:00:00	2024-11-08T00:00:00	5	Humedad	84
157581	7	Sololá	719	Santiago Atitlán	14	Cerro de Oro	6	Junio	2023-06-29T00:00:00	2024-11-08T00:00:00	6	Velocidad del viento	4.8
157582	7	Sololá	719	Santiago Atitlán	14	Cerro de Oro	6	Junio	2023-06-29T00:00:00	2024-11-08T00:00:00	7	Dirección del viento	4.83
157583	7	Sololá	719	Santiago Atitlán	14	Cerro de Oro	6	Junio	2023-06-29T00:00:00	2024-11-08T00:00:00	1	Precipitación	0
157584	7	Sololá	719	Santiago Atitlán	14	Cerro de Oro	6	Junio	2023-06-29T00:00:00	2024-11-08T00:00:00	8	Radiación solar	0
157585	7	Sololá	719	Santiago Atitlán	14	Cerro de Oro	6	Junio	2023-06-29T00:00:00	2024-11-08T01:00:00	2	Temperatura media	19.8
157586	7	Sololá	719	Santiago Atitlán	14	Cerro de Oro	6	Junio	2023-06-29T00:00:00	2024-11-08T01:00:00	4	Temperatura máxima	19.9
157587	7	Sololá	719	Santiago Atitlán	14	Cerro de Oro	6	Junio	2023-06-29T00:00:00	2024-11-08T01:00:00	3	Temperatura mínima	19.2
157588	7	Sololá	719	Santiago Atitlán	14	Cerro de Oro	6	Junio	2023-06-29T00:00:00	2024-11-08T01:00:00	5	Humedad	83
157589	7	Sololá	719	Santiago Atitlán	14	Cerro de Oro	6	Junio	2023-06-29T00:00:00	2024-11-08T01:00:00	6	Velocidad del viento	3.2
157590	7	Sololá	719	Santiago Atitlán	14	Cerro de Oro	6	Junio	2023-06-29T00:00:00	2024-11-08T01:00:00	7	Dirección del viento	3.22
157591	7	Sololá	719	Santiago Atitlán	14	Cerro de Oro	6	Junio	2023-06-29T00:00:00	2024-11-08T01:00:00	1	Precipitación	0
157592	7	Sololá	719	Santiago Atitlán	14	Cerro de Oro	6	Junio	2023-06-29T00:00:00	2024-11-08T01:00:00	8	Radiación solar	0
157593	7	Sololá	719	Santiago Atitlán	14	Cerro de Oro	6	Junio	2023-06-29T00:00:00	2024-11-08T02:00:00	2	Temperatura media	20.1
157594	7	Sololá	719	Santiago Atitlán	14	Cerro de Oro	6	Junio	2023-06-29T00:00:00	2024-11-08T02:00:00	4	Temperatura máxima	20.2
157595	7	Sololá	719	Santiago Atitlán	14	Cerro de Oro	6	Junio	2023-06-29T00:00:00	2024-11-08T02:00:00	3	Temperatura mínima	19.4
157596	7	Sololá	719	Santiago Atitlán	14	Cerro de Oro	6	Junio	2023-06-29T00:00:00	2024-11-08T02:00:00	5	Humedad	83
157597	7	Sololá	719	Santiago Atitlán	14	Cerro de Oro	6	Junio	2023-06-29T00:00:00	2024-11-08T02:00:00	6	Velocidad del viento	4.8
157598	7	Sololá	719	Santiago Atitlán	14	Cerro de Oro	6	Junio	2023-06-29T00:00:00	2024-11-08T02:00:00	7	Dirección del viento	4.83
157599	7	Sololá	719	Santiago Atitlán	14	Cerro de Oro	6	Junio	2023-06-29T00:00:00	2024-11-08T02:00:00	1	Precipitación	0
157600	7	Sololá	719	Santiago Atitlán	14	Cerro de Oro	6	Junio	2023-06-29T00:00:00	2024-11-08T02:00:00	8	Radiación solar	0
157601	7	Sololá	719	Santiago Atitlán	14	Cerro de Oro	6	Junio	2023-06-29T00:00:00	2024-11-08T03:00:00	2	Temperatura media	19.8
157602	7	Sololá	719	Santiago Atitlán	14	Cerro de Oro	6	Junio	2023-06-29T00:00:00	2024-11-08T03:00:00	4	Temperatura máxima	20.1
157603	7	Sololá	719	Santiago Atitlán	14	Cerro de Oro	6	Junio	2023-06-29T00:00:00	2024-11-08T03:00:00	3	Temperatura mínima	19.7
157604	7	Sololá	719	Santiago Atitlán	14	Cerro de Oro	6	Junio	2023-06-29T00:00:00	2024-11-08T03:00:00	5	Humedad	83
157605	7	Sololá	719	Santiago Atitlán	14	Cerro de Oro	6	Junio	2023-06-29T00:00:00	2024-11-08T03:00:00	6	Velocidad del viento	6.4
157606	7	Sololá	719	Santiago Atitlán	14	Cerro de Oro	6	Junio	2023-06-29T00:00:00	2024-11-08T03:00:00	7	Dirección del viento	6.44
157607	7	Sololá	719	Santiago Atitlán	14	Cerro de Oro	6	Junio	2023-06-29T00:00:00	2024-11-08T03:00:00	1	Precipitación	0
157608	7	Sololá	719	Santiago Atitlán	14	Cerro de Oro	6	Junio	2023-06-29T00:00:00	2024-11-08T03:00:00	8	Radiación solar	0
157609	7	Sololá	719	Santiago Atitlán	14	Cerro de Oro	6	Junio	2023-06-29T00:00:00	2024-11-08T04:00:00	2	Temperatura media	19.9
157610	7	Sololá	719	Santiago Atitlán	14	Cerro de Oro	6	Junio	2023-06-29T00:00:00	2024-11-08T04:00:00	4	Temperatura máxima	20.4
157611	7	Sololá	719	Santiago Atitlán	14	Cerro de Oro	6	Junio	2023-06-29T00:00:00	2024-11-08T04:00:00	3	Temperatura mínima	19.8
157612	7	Sololá	719	Santiago Atitlán	14	Cerro de Oro	6	Junio	2023-06-29T00:00:00	2024-11-08T04:00:00	5	Humedad	81
157613	7	Sololá	719	Santiago Atitlán	14	Cerro de Oro	6	Junio	2023-06-29T00:00:00	2024-11-08T04:00:00	6	Velocidad del viento	4.8
157614	7	Sololá	719	Santiago Atitlán	14	Cerro de Oro	6	Junio	2023-06-29T00:00:00	2024-11-08T04:00:00	7	Dirección del viento	4.83
157615	7	Sololá	719	Santiago Atitlán	14	Cerro de Oro	6	Junio	2023-06-29T00:00:00	2024-11-08T04:00:00	1	Precipitación	0
157616	7	Sololá	719	Santiago Atitlán	14	Cerro de Oro	6	Junio	2023-06-29T00:00:00	2024-11-08T04:00:00	8	Radiación solar	0
157617	7	Sololá	719	Santiago Atitlán	14	Cerro de Oro	6	Junio	2023-06-29T00:00:00	2024-11-08T05:00:00	2	Temperatura media	19.3
157618	7	Sololá	719	Santiago Atitlán	14	Cerro de Oro	6	Junio	2023-06-29T00:00:00	2024-11-08T05:00:00	4	Temperatura máxima	19.9
157619	7	Sololá	719	Santiago Atitlán	14	Cerro de Oro	6	Junio	2023-06-29T00:00:00	2024-11-08T05:00:00	3	Temperatura mínima	19.1
157620	7	Sololá	719	Santiago Atitlán	14	Cerro de Oro	6	Junio	2023-06-29T00:00:00	2024-11-08T05:00:00	5	Humedad	82
157621	7	Sololá	719	Santiago Atitlán	14	Cerro de Oro	6	Junio	2023-06-29T00:00:00	2024-11-08T05:00:00	6	Velocidad del viento	4.8
157622	7	Sololá	719	Santiago Atitlán	14	Cerro de Oro	6	Junio	2023-06-29T00:00:00	2024-11-08T05:00:00	7	Dirección del viento	4.83
157623	7	Sololá	719	Santiago Atitlán	14	Cerro de Oro	6	Junio	2023-06-29T00:00:00	2024-11-08T05:00:00	1	Precipitación	0
157624	7	Sololá	719	Santiago Atitlán	14	Cerro de Oro	6	Junio	2023-06-29T00:00:00	2024-11-08T05:00:00	8	Radiación solar	0
157625	7	Sololá	719	Santiago Atitlán	14	Cerro de Oro	6	Junio	2023-06-29T00:00:00	2024-11-08T06:00:00	2	Temperatura media	19.3
157626	7	Sololá	719	Santiago Atitlán	14	Cerro de Oro	6	Junio	2023-06-29T00:00:00	2024-11-08T06:00:00	4	Temperatura máxima	19.3
157627	7	Sololá	719	Santiago Atitlán	14	Cerro de Oro	6	Junio	2023-06-29T00:00:00	2024-11-08T06:00:00	3	Temperatura mínima	18.6
157628	7	Sololá	719	Santiago Atitlán	14	Cerro de Oro	6	Junio	2023-06-29T00:00:00	2024-11-08T06:00:00	5	Humedad	82
157629	7	Sololá	719	Santiago Atitlán	14	Cerro de Oro	6	Junio	2023-06-29T00:00:00	2024-11-08T06:00:00	6	Velocidad del viento	6.4
157630	7	Sololá	719	Santiago Atitlán	14	Cerro de Oro	6	Junio	2023-06-29T00:00:00	2024-11-08T06:00:00	7	Dirección del viento	6.44
157631	7	Sololá	719	Santiago Atitlán	14	Cerro de Oro	6	Junio	2023-06-29T00:00:00	2024-11-08T06:00:00	1	Precipitación	0
157632	7	Sololá	719	Santiago Atitlán	14	Cerro de Oro	6	Junio	2023-06-29T00:00:00	2024-11-08T06:00:00	8	Radiación solar	1
157633	7	Sololá	719	Santiago Atitlán	14	Cerro de Oro	6	Junio	2023-06-29T00:00:00	2024-11-08T07:00:00	2	Temperatura media	22.2
157634	7	Sololá	719	Santiago Atitlán	14	Cerro de Oro	6	Junio	2023-06-29T00:00:00	2024-11-08T07:00:00	4	Temperatura máxima	22.3
157635	7	Sololá	719	Santiago Atitlán	14	Cerro de Oro	6	Junio	2023-06-29T00:00:00	2024-11-08T07:00:00	3	Temperatura mínima	19.3
157636	7	Sololá	719	Santiago Atitlán	14	Cerro de Oro	6	Junio	2023-06-29T00:00:00	2024-11-08T07:00:00	5	Humedad	74
157637	7	Sololá	719	Santiago Atitlán	14	Cerro de Oro	6	Junio	2023-06-29T00:00:00	2024-11-08T07:00:00	6	Velocidad del viento	4.8
157638	7	Sololá	719	Santiago Atitlán	14	Cerro de Oro	6	Junio	2023-06-29T00:00:00	2024-11-08T07:00:00	7	Dirección del viento	4.83
157639	7	Sololá	719	Santiago Atitlán	14	Cerro de Oro	6	Junio	2023-06-29T00:00:00	2024-11-08T07:00:00	1	Precipitación	0
157640	7	Sololá	719	Santiago Atitlán	14	Cerro de Oro	6	Junio	2023-06-29T00:00:00	2024-11-08T07:00:00	8	Radiación solar	112
157641	7	Sololá	719	Santiago Atitlán	14	Cerro de Oro	6	Junio	2023-06-29T00:00:00	2024-11-08T08:00:00	2	Temperatura media	23.5
157642	7	Sololá	719	Santiago Atitlán	14	Cerro de Oro	6	Junio	2023-06-29T00:00:00	2024-11-08T08:00:00	4	Temperatura máxima	23.8
157643	7	Sololá	719	Santiago Atitlán	14	Cerro de Oro	6	Junio	2023-06-29T00:00:00	2024-11-08T08:00:00	3	Temperatura mínima	22.2
157644	7	Sololá	719	Santiago Atitlán	14	Cerro de Oro	6	Junio	2023-06-29T00:00:00	2024-11-08T08:00:00	5	Humedad	68
157645	7	Sololá	719	Santiago Atitlán	14	Cerro de Oro	6	Junio	2023-06-29T00:00:00	2024-11-08T08:00:00	6	Velocidad del viento	3.2
157646	7	Sololá	719	Santiago Atitlán	14	Cerro de Oro	6	Junio	2023-06-29T00:00:00	2024-11-08T08:00:00	7	Dirección del viento	3.22
157647	7	Sololá	719	Santiago Atitlán	14	Cerro de Oro	6	Junio	2023-06-29T00:00:00	2024-11-08T08:00:00	1	Precipitación	0
157648	7	Sololá	719	Santiago Atitlán	14	Cerro de Oro	6	Junio	2023-06-29T00:00:00	2024-11-08T08:00:00	8	Radiación solar	348
157649	7	Sololá	719	Santiago Atitlán	14	Cerro de Oro	6	Junio	2023-06-29T00:00:00	2024-11-08T09:00:00	2	Temperatura media	23.7
157650	7	Sololá	719	Santiago Atitlán	14	Cerro de Oro	6	Junio	2023-06-29T00:00:00	2024-11-08T09:00:00	4	Temperatura máxima	23.7
157651	7	Sololá	719	Santiago Atitlán	14	Cerro de Oro	6	Junio	2023-06-29T00:00:00	2024-11-08T09:00:00	3	Temperatura mínima	23.1
157652	7	Sololá	719	Santiago Atitlán	14	Cerro de Oro	6	Junio	2023-06-29T00:00:00	2024-11-08T09:00:00	5	Humedad	72
157653	7	Sololá	719	Santiago Atitlán	14	Cerro de Oro	6	Junio	2023-06-29T00:00:00	2024-11-08T09:00:00	6	Velocidad del viento	3.2
157654	7	Sololá	719	Santiago Atitlán	14	Cerro de Oro	6	Junio	2023-06-29T00:00:00	2024-11-08T09:00:00	7	Dirección del viento	3.22
157655	7	Sololá	719	Santiago Atitlán	14	Cerro de Oro	6	Junio	2023-06-29T00:00:00	2024-11-08T09:00:00	1	Precipitación	0
157656	7	Sololá	719	Santiago Atitlán	14	Cerro de Oro	6	Junio	2023-06-29T00:00:00	2024-11-08T09:00:00	8	Radiación solar	500
157657	7	Sololá	719	Santiago Atitlán	14	Cerro de Oro	6	Junio	2023-06-29T00:00:00	2024-11-08T10:00:00	2	Temperatura media	23.6
157658	7	Sololá	719	Santiago Atitlán	14	Cerro de Oro	6	Junio	2023-06-29T00:00:00	2024-11-08T10:00:00	4	Temperatura máxima	23.9
157659	7	Sololá	719	Santiago Atitlán	14	Cerro de Oro	6	Junio	2023-06-29T00:00:00	2024-11-08T10:00:00	3	Temperatura mínima	23.4
157660	7	Sololá	719	Santiago Atitlán	14	Cerro de Oro	6	Junio	2023-06-29T00:00:00	2024-11-08T10:00:00	5	Humedad	76
157661	7	Sololá	719	Santiago Atitlán	14	Cerro de Oro	6	Junio	2023-06-29T00:00:00	2024-11-08T10:00:00	6	Velocidad del viento	6.4
157662	7	Sololá	719	Santiago Atitlán	14	Cerro de Oro	6	Junio	2023-06-29T00:00:00	2024-11-08T10:00:00	7	Dirección del viento	6.44
157663	7	Sololá	719	Santiago Atitlán	14	Cerro de Oro	6	Junio	2023-06-29T00:00:00	2024-11-08T10:00:00	1	Precipitación	0
157664	7	Sololá	719	Santiago Atitlán	14	Cerro de Oro	6	Junio	2023-06-29T00:00:00	2024-11-08T10:00:00	8	Radiación solar	720
157665	7	Sololá	719	Santiago Atitlán	14	Cerro de Oro	6	Junio	2023-06-29T00:00:00	2024-11-08T11:00:00	2	Temperatura media	23.8
157666	7	Sololá	719	Santiago Atitlán	14	Cerro de Oro	6	Junio	2023-06-29T00:00:00	2024-11-08T11:00:00	4	Temperatura máxima	23.9
157667	7	Sololá	719	Santiago Atitlán	14	Cerro de Oro	6	Junio	2023-06-29T00:00:00	2024-11-08T11:00:00	3	Temperatura mínima	22.8
157668	7	Sololá	719	Santiago Atitlán	14	Cerro de Oro	6	Junio	2023-06-29T00:00:00	2024-11-08T11:00:00	5	Humedad	77
157669	7	Sololá	719	Santiago Atitlán	14	Cerro de Oro	6	Junio	2023-06-29T00:00:00	2024-11-08T11:00:00	6	Velocidad del viento	9.7
157670	7	Sololá	719	Santiago Atitlán	14	Cerro de Oro	6	Junio	2023-06-29T00:00:00	2024-11-08T11:00:00	7	Dirección del viento	9.66
157671	7	Sololá	719	Santiago Atitlán	14	Cerro de Oro	6	Junio	2023-06-29T00:00:00	2024-11-08T11:00:00	1	Precipitación	0
157672	7	Sololá	719	Santiago Atitlán	14	Cerro de Oro	6	Junio	2023-06-29T00:00:00	2024-11-08T11:00:00	8	Radiación solar	763
157673	7	Sololá	719	Santiago Atitlán	14	Cerro de Oro	6	Junio	2023-06-29T00:00:00	2024-11-08T12:00:00	2	Temperatura media	23.9
157674	7	Sololá	719	Santiago Atitlán	14	Cerro de Oro	6	Junio	2023-06-29T00:00:00	2024-11-08T12:00:00	4	Temperatura máxima	24.3
157675	7	Sololá	719	Santiago Atitlán	14	Cerro de Oro	6	Junio	2023-06-29T00:00:00	2024-11-08T12:00:00	3	Temperatura mínima	23.1
157676	7	Sololá	719	Santiago Atitlán	14	Cerro de Oro	6	Junio	2023-06-29T00:00:00	2024-11-08T12:00:00	5	Humedad	77
157677	7	Sololá	719	Santiago Atitlán	14	Cerro de Oro	6	Junio	2023-06-29T00:00:00	2024-11-08T12:00:00	6	Velocidad del viento	9.7
157678	7	Sololá	719	Santiago Atitlán	14	Cerro de Oro	6	Junio	2023-06-29T00:00:00	2024-11-08T12:00:00	7	Dirección del viento	9.66
157679	7	Sololá	719	Santiago Atitlán	14	Cerro de Oro	6	Junio	2023-06-29T00:00:00	2024-11-08T12:00:00	1	Precipitación	0
157680	7	Sololá	719	Santiago Atitlán	14	Cerro de Oro	6	Junio	2023-06-29T00:00:00	2024-11-08T12:00:00	8	Radiación solar	796
157681	7	Sololá	719	Santiago Atitlán	14	Cerro de Oro	6	Junio	2023-06-29T00:00:00	2024-11-08T13:00:00	2	Temperatura media	22.8
157682	7	Sololá	719	Santiago Atitlán	14	Cerro de Oro	6	Junio	2023-06-29T00:00:00	2024-11-08T13:00:00	4	Temperatura máxima	23.9
157683	7	Sololá	719	Santiago Atitlán	14	Cerro de Oro	6	Junio	2023-06-29T00:00:00	2024-11-08T13:00:00	3	Temperatura mínima	22.7
157684	7	Sololá	719	Santiago Atitlán	14	Cerro de Oro	6	Junio	2023-06-29T00:00:00	2024-11-08T13:00:00	5	Humedad	79
157685	7	Sololá	719	Santiago Atitlán	14	Cerro de Oro	6	Junio	2023-06-29T00:00:00	2024-11-08T13:00:00	6	Velocidad del viento	9.7
157686	7	Sololá	719	Santiago Atitlán	14	Cerro de Oro	6	Junio	2023-06-29T00:00:00	2024-11-08T13:00:00	7	Dirección del viento	9.66
157687	7	Sololá	719	Santiago Atitlán	14	Cerro de Oro	6	Junio	2023-06-29T00:00:00	2024-11-08T13:00:00	1	Precipitación	0
157688	7	Sololá	719	Santiago Atitlán	14	Cerro de Oro	6	Junio	2023-06-29T00:00:00	2024-11-08T13:00:00	8	Radiación solar	387
157689	7	Sololá	719	Santiago Atitlán	14	Cerro de Oro	6	Junio	2023-06-29T00:00:00	2024-11-08T14:00:00	2	Temperatura media	23.8
157690	7	Sololá	719	Santiago Atitlán	14	Cerro de Oro	6	Junio	2023-06-29T00:00:00	2024-11-08T14:00:00	4	Temperatura máxima	24.4
157691	7	Sololá	719	Santiago Atitlán	14	Cerro de Oro	6	Junio	2023-06-29T00:00:00	2024-11-08T14:00:00	3	Temperatura mínima	22.8
157692	7	Sololá	719	Santiago Atitlán	14	Cerro de Oro	6	Junio	2023-06-29T00:00:00	2024-11-08T14:00:00	5	Humedad	79
157693	7	Sololá	719	Santiago Atitlán	14	Cerro de Oro	6	Junio	2023-06-29T00:00:00	2024-11-08T14:00:00	6	Velocidad del viento	6.4
157694	7	Sololá	719	Santiago Atitlán	14	Cerro de Oro	6	Junio	2023-06-29T00:00:00	2024-11-08T14:00:00	7	Dirección del viento	6.44
157695	7	Sololá	719	Santiago Atitlán	14	Cerro de Oro	6	Junio	2023-06-29T00:00:00	2024-11-08T14:00:00	1	Precipitación	0
157696	7	Sololá	719	Santiago Atitlán	14	Cerro de Oro	6	Junio	2023-06-29T00:00:00	2024-11-08T14:00:00	8	Radiación solar	322
157697	7	Sololá	719	Santiago Atitlán	14	Cerro de Oro	6	Junio	2023-06-29T00:00:00	2024-11-08T15:00:00	2	Temperatura media	24.1
157698	7	Sololá	719	Santiago Atitlán	14	Cerro de Oro	6	Junio	2023-06-29T00:00:00	2024-11-08T15:00:00	4	Temperatura máxima	24.8
157699	7	Sololá	719	Santiago Atitlán	14	Cerro de Oro	6	Junio	2023-06-29T00:00:00	2024-11-08T15:00:00	3	Temperatura mínima	23.4
157700	7	Sololá	719	Santiago Atitlán	14	Cerro de Oro	6	Junio	2023-06-29T00:00:00	2024-11-08T15:00:00	5	Humedad	78
157701	7	Sololá	719	Santiago Atitlán	14	Cerro de Oro	6	Junio	2023-06-29T00:00:00	2024-11-08T15:00:00	6	Velocidad del viento	4.8
157702	7	Sololá	719	Santiago Atitlán	14	Cerro de Oro	6	Junio	2023-06-29T00:00:00	2024-11-08T15:00:00	7	Dirección del viento	4.83
157703	7	Sololá	719	Santiago Atitlán	14	Cerro de Oro	6	Junio	2023-06-29T00:00:00	2024-11-08T15:00:00	1	Precipitación	0
157704	7	Sololá	719	Santiago Atitlán	14	Cerro de Oro	6	Junio	2023-06-29T00:00:00	2024-11-08T15:00:00	8	Radiación solar	598
157705	7	Sololá	719	Santiago Atitlán	14	Cerro de Oro	6	Junio	2023-06-29T00:00:00	2024-11-08T16:00:00	2	Temperatura media	22.7
157706	7	Sololá	719	Santiago Atitlán	14	Cerro de Oro	6	Junio	2023-06-29T00:00:00	2024-11-08T16:00:00	4	Temperatura máxima	24.1
157707	7	Sololá	719	Santiago Atitlán	14	Cerro de Oro	6	Junio	2023-06-29T00:00:00	2024-11-08T16:00:00	3	Temperatura mínima	22.7
157708	7	Sololá	719	Santiago Atitlán	14	Cerro de Oro	6	Junio	2023-06-29T00:00:00	2024-11-08T16:00:00	5	Humedad	79
157709	7	Sololá	719	Santiago Atitlán	14	Cerro de Oro	6	Junio	2023-06-29T00:00:00	2024-11-08T16:00:00	6	Velocidad del viento	9.7
157710	7	Sololá	719	Santiago Atitlán	14	Cerro de Oro	6	Junio	2023-06-29T00:00:00	2024-11-08T16:00:00	7	Dirección del viento	9.66
157711	7	Sololá	719	Santiago Atitlán	14	Cerro de Oro	6	Junio	2023-06-29T00:00:00	2024-11-08T16:00:00	1	Precipitación	0
157712	7	Sololá	719	Santiago Atitlán	14	Cerro de Oro	6	Junio	2023-06-29T00:00:00	2024-11-08T16:00:00	8	Radiación solar	277
157713	7	Sololá	719	Santiago Atitlán	14	Cerro de Oro	6	Junio	2023-06-29T00:00:00	2024-11-08T17:00:00	2	Temperatura media	21.9
157714	7	Sololá	719	Santiago Atitlán	14	Cerro de Oro	6	Junio	2023-06-29T00:00:00	2024-11-08T17:00:00	4	Temperatura máxima	22.7
157715	7	Sololá	719	Santiago Atitlán	14	Cerro de Oro	6	Junio	2023-06-29T00:00:00	2024-11-08T17:00:00	3	Temperatura mínima	21.9
157716	7	Sololá	719	Santiago Atitlán	14	Cerro de Oro	6	Junio	2023-06-29T00:00:00	2024-11-08T17:00:00	5	Humedad	85
157717	7	Sololá	719	Santiago Atitlán	14	Cerro de Oro	6	Junio	2023-06-29T00:00:00	2024-11-08T17:00:00	6	Velocidad del viento	4.8
157718	7	Sololá	719	Santiago Atitlán	14	Cerro de Oro	6	Junio	2023-06-29T00:00:00	2024-11-08T17:00:00	7	Dirección del viento	4.83
157719	7	Sololá	719	Santiago Atitlán	14	Cerro de Oro	6	Junio	2023-06-29T00:00:00	2024-11-08T17:00:00	1	Precipitación	0
157720	7	Sololá	719	Santiago Atitlán	14	Cerro de Oro	6	Junio	2023-06-29T00:00:00	2024-11-08T17:00:00	8	Radiación solar	94
157721	7	Sololá	719	Santiago Atitlán	14	Cerro de Oro	6	Junio	2023-06-29T00:00:00	2024-11-08T18:00:00	2	Temperatura media	20.9
157722	7	Sololá	719	Santiago Atitlán	14	Cerro de Oro	6	Junio	2023-06-29T00:00:00	2024-11-08T18:00:00	4	Temperatura máxima	22.1
157723	7	Sololá	719	Santiago Atitlán	14	Cerro de Oro	6	Junio	2023-06-29T00:00:00	2024-11-08T18:00:00	3	Temperatura mínima	20.9
157724	7	Sololá	719	Santiago Atitlán	14	Cerro de Oro	6	Junio	2023-06-29T00:00:00	2024-11-08T18:00:00	5	Humedad	88
157725	7	Sololá	719	Santiago Atitlán	14	Cerro de Oro	6	Junio	2023-06-29T00:00:00	2024-11-08T18:00:00	6	Velocidad del viento	4.8
157726	7	Sololá	719	Santiago Atitlán	14	Cerro de Oro	6	Junio	2023-06-29T00:00:00	2024-11-08T18:00:00	7	Dirección del viento	4.83
157727	7	Sololá	719	Santiago Atitlán	14	Cerro de Oro	6	Junio	2023-06-29T00:00:00	2024-11-08T18:00:00	1	Precipitación	0
157728	7	Sololá	719	Santiago Atitlán	14	Cerro de Oro	6	Junio	2023-06-29T00:00:00	2024-11-08T18:00:00	8	Radiación solar	44
157729	7	Sololá	719	Santiago Atitlán	14	Cerro de Oro	6	Junio	2023-06-29T00:00:00	2024-11-08T19:00:00	2	Temperatura media	19.9
157730	7	Sololá	719	Santiago Atitlán	14	Cerro de Oro	6	Junio	2023-06-29T00:00:00	2024-11-08T19:00:00	4	Temperatura máxima	20.9
157731	7	Sololá	719	Santiago Atitlán	14	Cerro de Oro	6	Junio	2023-06-29T00:00:00	2024-11-08T19:00:00	3	Temperatura mínima	19.9
157732	7	Sololá	719	Santiago Atitlán	14	Cerro de Oro	6	Junio	2023-06-29T00:00:00	2024-11-08T19:00:00	5	Humedad	89
157733	7	Sololá	719	Santiago Atitlán	14	Cerro de Oro	6	Junio	2023-06-29T00:00:00	2024-11-08T19:00:00	6	Velocidad del viento	9.7
157734	7	Sololá	719	Santiago Atitlán	14	Cerro de Oro	6	Junio	2023-06-29T00:00:00	2024-11-08T19:00:00	7	Dirección del viento	9.66
157735	7	Sololá	719	Santiago Atitlán	14	Cerro de Oro	6	Junio	2023-06-29T00:00:00	2024-11-08T19:00:00	1	Precipitación	0
157736	7	Sololá	719	Santiago Atitlán	14	Cerro de Oro	6	Junio	2023-06-29T00:00:00	2024-11-08T19:00:00	8	Radiación solar	0
157737	7	Sololá	719	Santiago Atitlán	14	Cerro de Oro	6	Junio	2023-06-29T00:00:00	2024-11-08T20:00:00	2	Temperatura media	20.4
157738	7	Sololá	719	Santiago Atitlán	14	Cerro de Oro	6	Junio	2023-06-29T00:00:00	2024-11-08T20:00:00	4	Temperatura máxima	20.4
157739	7	Sololá	719	Santiago Atitlán	14	Cerro de Oro	6	Junio	2023-06-29T00:00:00	2024-11-08T20:00:00	3	Temperatura mínima	19.8
157740	7	Sololá	719	Santiago Atitlán	14	Cerro de Oro	6	Junio	2023-06-29T00:00:00	2024-11-08T20:00:00	5	Humedad	86
157741	7	Sololá	719	Santiago Atitlán	14	Cerro de Oro	6	Junio	2023-06-29T00:00:00	2024-11-08T20:00:00	6	Velocidad del viento	3.2
157742	7	Sololá	719	Santiago Atitlán	14	Cerro de Oro	6	Junio	2023-06-29T00:00:00	2024-11-08T20:00:00	7	Dirección del viento	3.22
157743	7	Sololá	719	Santiago Atitlán	14	Cerro de Oro	6	Junio	2023-06-29T00:00:00	2024-11-08T20:00:00	1	Precipitación	0
157744	7	Sololá	719	Santiago Atitlán	14	Cerro de Oro	6	Junio	2023-06-29T00:00:00	2024-11-08T20:00:00	8	Radiación solar	0
157745	7	Sololá	719	Santiago Atitlán	14	Cerro de Oro	6	Junio	2023-06-29T00:00:00	2024-11-08T21:00:00	2	Temperatura media	21.1
157746	7	Sololá	719	Santiago Atitlán	14	Cerro de Oro	6	Junio	2023-06-29T00:00:00	2024-11-08T21:00:00	4	Temperatura máxima	21.1
157747	7	Sololá	719	Santiago Atitlán	14	Cerro de Oro	6	Junio	2023-06-29T00:00:00	2024-11-08T21:00:00	3	Temperatura mínima	20.4
157748	7	Sololá	719	Santiago Atitlán	14	Cerro de Oro	6	Junio	2023-06-29T00:00:00	2024-11-08T21:00:00	5	Humedad	74
157749	7	Sololá	719	Santiago Atitlán	14	Cerro de Oro	6	Junio	2023-06-29T00:00:00	2024-11-08T21:00:00	6	Velocidad del viento	3.2
157750	7	Sololá	719	Santiago Atitlán	14	Cerro de Oro	6	Junio	2023-06-29T00:00:00	2024-11-08T21:00:00	7	Dirección del viento	3.22
157751	7	Sololá	719	Santiago Atitlán	14	Cerro de Oro	6	Junio	2023-06-29T00:00:00	2024-11-08T21:00:00	1	Precipitación	0
157752	7	Sololá	719	Santiago Atitlán	14	Cerro de Oro	6	Junio	2023-06-29T00:00:00	2024-11-08T21:00:00	8	Radiación solar	0
157753	7	Sololá	719	Santiago Atitlán	14	Cerro de Oro	6	Junio	2023-06-29T00:00:00	2024-11-08T22:00:00	2	Temperatura media	20.4
157754	7	Sololá	719	Santiago Atitlán	14	Cerro de Oro	6	Junio	2023-06-29T00:00:00	2024-11-08T22:00:00	4	Temperatura máxima	21.3
157755	7	Sololá	719	Santiago Atitlán	14	Cerro de Oro	6	Junio	2023-06-29T00:00:00	2024-11-08T22:00:00	3	Temperatura mínima	20.4
157756	7	Sololá	719	Santiago Atitlán	14	Cerro de Oro	6	Junio	2023-06-29T00:00:00	2024-11-08T22:00:00	5	Humedad	75
157757	7	Sololá	719	Santiago Atitlán	14	Cerro de Oro	6	Junio	2023-06-29T00:00:00	2024-11-08T22:00:00	6	Velocidad del viento	4.8
157758	7	Sololá	719	Santiago Atitlán	14	Cerro de Oro	6	Junio	2023-06-29T00:00:00	2024-11-08T22:00:00	7	Dirección del viento	4.83
157759	7	Sololá	719	Santiago Atitlán	14	Cerro de Oro	6	Junio	2023-06-29T00:00:00	2024-11-08T22:00:00	1	Precipitación	0
157760	7	Sololá	719	Santiago Atitlán	14	Cerro de Oro	6	Junio	2023-06-29T00:00:00	2024-11-08T22:00:00	8	Radiación solar	0
157761	7	Sololá	719	Santiago Atitlán	14	Cerro de Oro	6	Junio	2023-06-29T00:00:00	2024-11-08T23:00:00	2	Temperatura media	19.7
157762	7	Sololá	719	Santiago Atitlán	14	Cerro de Oro	6	Junio	2023-06-29T00:00:00	2024-11-08T23:00:00	4	Temperatura máxima	20.4
157763	7	Sololá	719	Santiago Atitlán	14	Cerro de Oro	6	Junio	2023-06-29T00:00:00	2024-11-08T23:00:00	3	Temperatura mínima	19.7
157764	7	Sololá	719	Santiago Atitlán	14	Cerro de Oro	6	Junio	2023-06-29T00:00:00	2024-11-08T23:00:00	5	Humedad	85
157765	7	Sololá	719	Santiago Atitlán	14	Cerro de Oro	6	Junio	2023-06-29T00:00:00	2024-11-08T23:00:00	6	Velocidad del viento	3.2
157766	7	Sololá	719	Santiago Atitlán	14	Cerro de Oro	6	Junio	2023-06-29T00:00:00	2024-11-08T23:00:00	7	Dirección del viento	3.22
157767	7	Sololá	719	Santiago Atitlán	14	Cerro de Oro	6	Junio	2023-06-29T00:00:00	2024-11-08T23:00:00	1	Precipitación	0
157768	7	Sololá	719	Santiago Atitlán	14	Cerro de Oro	6	Junio	2023-06-29T00:00:00	2024-11-08T23:00:00	8	Radiación solar	0
157769	7	Sololá	719	Santiago Atitlán	14	Cerro de Oro	6	Junio	2023-06-30T00:00:00	2024-11-08T00:00:00	2	Temperatura media	19.3
157770	7	Sololá	719	Santiago Atitlán	14	Cerro de Oro	6	Junio	2023-06-30T00:00:00	2024-11-08T00:00:00	4	Temperatura máxima	19.9
157771	7	Sololá	719	Santiago Atitlán	14	Cerro de Oro	6	Junio	2023-06-30T00:00:00	2024-11-08T00:00:00	3	Temperatura mínima	19.3
157772	7	Sololá	719	Santiago Atitlán	14	Cerro de Oro	6	Junio	2023-06-30T00:00:00	2024-11-08T00:00:00	5	Humedad	84
157773	7	Sololá	719	Santiago Atitlán	14	Cerro de Oro	6	Junio	2023-06-30T00:00:00	2024-11-08T00:00:00	6	Velocidad del viento	3.2
157774	7	Sololá	719	Santiago Atitlán	14	Cerro de Oro	6	Junio	2023-06-30T00:00:00	2024-11-08T00:00:00	7	Dirección del viento	3.22
157775	7	Sololá	719	Santiago Atitlán	14	Cerro de Oro	6	Junio	2023-06-30T00:00:00	2024-11-08T00:00:00	1	Precipitación	0
157776	7	Sololá	719	Santiago Atitlán	14	Cerro de Oro	6	Junio	2023-06-30T00:00:00	2024-11-08T00:00:00	8	Radiación solar	0
157777	7	Sololá	719	Santiago Atitlán	14	Cerro de Oro	6	Junio	2023-06-30T00:00:00	2024-11-08T01:00:00	2	Temperatura media	19.7
157778	7	Sololá	719	Santiago Atitlán	14	Cerro de Oro	6	Junio	2023-06-30T00:00:00	2024-11-08T01:00:00	4	Temperatura máxima	19.7
157779	7	Sololá	719	Santiago Atitlán	14	Cerro de Oro	6	Junio	2023-06-30T00:00:00	2024-11-08T01:00:00	3	Temperatura mínima	19.1
157780	7	Sololá	719	Santiago Atitlán	14	Cerro de Oro	6	Junio	2023-06-30T00:00:00	2024-11-08T01:00:00	5	Humedad	78
157781	7	Sololá	719	Santiago Atitlán	14	Cerro de Oro	6	Junio	2023-06-30T00:00:00	2024-11-08T01:00:00	6	Velocidad del viento	4.8
157782	7	Sololá	719	Santiago Atitlán	14	Cerro de Oro	6	Junio	2023-06-30T00:00:00	2024-11-08T01:00:00	7	Dirección del viento	4.83
157783	7	Sololá	719	Santiago Atitlán	14	Cerro de Oro	6	Junio	2023-06-30T00:00:00	2024-11-08T01:00:00	1	Precipitación	0
157784	7	Sololá	719	Santiago Atitlán	14	Cerro de Oro	6	Junio	2023-06-30T00:00:00	2024-11-08T01:00:00	8	Radiación solar	0
157785	7	Sololá	719	Santiago Atitlán	14	Cerro de Oro	6	Junio	2023-06-30T00:00:00	2024-11-08T02:00:00	2	Temperatura media	19.4
157786	7	Sololá	719	Santiago Atitlán	14	Cerro de Oro	6	Junio	2023-06-30T00:00:00	2024-11-08T02:00:00	4	Temperatura máxima	19.7
157787	7	Sololá	719	Santiago Atitlán	14	Cerro de Oro	6	Junio	2023-06-30T00:00:00	2024-11-08T02:00:00	3	Temperatura mínima	19.3
157788	7	Sololá	719	Santiago Atitlán	14	Cerro de Oro	6	Junio	2023-06-30T00:00:00	2024-11-08T02:00:00	5	Humedad	78
157789	7	Sololá	719	Santiago Atitlán	14	Cerro de Oro	6	Junio	2023-06-30T00:00:00	2024-11-08T02:00:00	6	Velocidad del viento	3.2
157790	7	Sololá	719	Santiago Atitlán	14	Cerro de Oro	6	Junio	2023-06-30T00:00:00	2024-11-08T02:00:00	7	Dirección del viento	3.22
157791	7	Sololá	719	Santiago Atitlán	14	Cerro de Oro	6	Junio	2023-06-30T00:00:00	2024-11-08T02:00:00	1	Precipitación	0
157792	7	Sololá	719	Santiago Atitlán	14	Cerro de Oro	6	Junio	2023-06-30T00:00:00	2024-11-08T02:00:00	8	Radiación solar	0
157793	7	Sololá	719	Santiago Atitlán	14	Cerro de Oro	6	Junio	2023-06-30T00:00:00	2024-11-08T03:00:00	2	Temperatura media	18.8
157794	7	Sololá	719	Santiago Atitlán	14	Cerro de Oro	6	Junio	2023-06-30T00:00:00	2024-11-08T03:00:00	4	Temperatura máxima	19.4
157795	7	Sololá	719	Santiago Atitlán	14	Cerro de Oro	6	Junio	2023-06-30T00:00:00	2024-11-08T03:00:00	3	Temperatura mínima	18.8
157796	7	Sololá	719	Santiago Atitlán	14	Cerro de Oro	6	Junio	2023-06-30T00:00:00	2024-11-08T03:00:00	5	Humedad	83
157797	7	Sololá	719	Santiago Atitlán	14	Cerro de Oro	6	Junio	2023-06-30T00:00:00	2024-11-08T03:00:00	6	Velocidad del viento	4.8
157798	7	Sololá	719	Santiago Atitlán	14	Cerro de Oro	6	Junio	2023-06-30T00:00:00	2024-11-08T03:00:00	7	Dirección del viento	4.83
157799	7	Sololá	719	Santiago Atitlán	14	Cerro de Oro	6	Junio	2023-06-30T00:00:00	2024-11-08T03:00:00	1	Precipitación	0
157800	7	Sololá	719	Santiago Atitlán	14	Cerro de Oro	6	Junio	2023-06-30T00:00:00	2024-11-08T03:00:00	8	Radiación solar	0
157801	7	Sololá	719	Santiago Atitlán	14	Cerro de Oro	6	Junio	2023-06-30T00:00:00	2024-11-08T04:00:00	2	Temperatura media	18.5
157802	7	Sololá	719	Santiago Atitlán	14	Cerro de Oro	6	Junio	2023-06-30T00:00:00	2024-11-08T04:00:00	4	Temperatura máxima	18.9
157803	7	Sololá	719	Santiago Atitlán	14	Cerro de Oro	6	Junio	2023-06-30T00:00:00	2024-11-08T04:00:00	3	Temperatura mínima	18.4
157804	7	Sololá	719	Santiago Atitlán	14	Cerro de Oro	6	Junio	2023-06-30T00:00:00	2024-11-08T04:00:00	5	Humedad	81
157805	7	Sololá	719	Santiago Atitlán	14	Cerro de Oro	6	Junio	2023-06-30T00:00:00	2024-11-08T04:00:00	6	Velocidad del viento	3.2
157806	7	Sololá	719	Santiago Atitlán	14	Cerro de Oro	6	Junio	2023-06-30T00:00:00	2024-11-08T04:00:00	7	Dirección del viento	3.22
157807	7	Sololá	719	Santiago Atitlán	14	Cerro de Oro	6	Junio	2023-06-30T00:00:00	2024-11-08T04:00:00	1	Precipitación	0
157808	7	Sololá	719	Santiago Atitlán	14	Cerro de Oro	6	Junio	2023-06-30T00:00:00	2024-11-08T04:00:00	8	Radiación solar	0
157809	7	Sololá	719	Santiago Atitlán	14	Cerro de Oro	6	Junio	2023-06-30T00:00:00	2024-11-08T05:00:00	2	Temperatura media	18.2
157810	7	Sololá	719	Santiago Atitlán	14	Cerro de Oro	6	Junio	2023-06-30T00:00:00	2024-11-08T05:00:00	4	Temperatura máxima	18.7
157811	7	Sololá	719	Santiago Atitlán	14	Cerro de Oro	6	Junio	2023-06-30T00:00:00	2024-11-08T05:00:00	3	Temperatura mínima	18.2
157812	7	Sololá	719	Santiago Atitlán	14	Cerro de Oro	6	Junio	2023-06-30T00:00:00	2024-11-08T05:00:00	5	Humedad	84
157813	7	Sololá	719	Santiago Atitlán	14	Cerro de Oro	6	Junio	2023-06-30T00:00:00	2024-11-08T05:00:00	6	Velocidad del viento	3.2
157814	7	Sololá	719	Santiago Atitlán	14	Cerro de Oro	6	Junio	2023-06-30T00:00:00	2024-11-08T05:00:00	7	Dirección del viento	3.22
157815	7	Sololá	719	Santiago Atitlán	14	Cerro de Oro	6	Junio	2023-06-30T00:00:00	2024-11-08T05:00:00	1	Precipitación	0
157816	7	Sololá	719	Santiago Atitlán	14	Cerro de Oro	6	Junio	2023-06-30T00:00:00	2024-11-08T05:00:00	8	Radiación solar	0
157817	7	Sololá	719	Santiago Atitlán	14	Cerro de Oro	6	Junio	2023-06-30T00:00:00	2024-11-08T06:00:00	2	Temperatura media	18.4
157818	7	Sololá	719	Santiago Atitlán	14	Cerro de Oro	6	Junio	2023-06-30T00:00:00	2024-11-08T06:00:00	4	Temperatura máxima	18.9
157819	7	Sololá	719	Santiago Atitlán	14	Cerro de Oro	6	Junio	2023-06-30T00:00:00	2024-11-08T06:00:00	3	Temperatura mínima	18.1
157820	7	Sololá	719	Santiago Atitlán	14	Cerro de Oro	6	Junio	2023-06-30T00:00:00	2024-11-08T06:00:00	5	Humedad	81
157821	7	Sololá	719	Santiago Atitlán	14	Cerro de Oro	6	Junio	2023-06-30T00:00:00	2024-11-08T06:00:00	6	Velocidad del viento	4.8
157822	7	Sololá	719	Santiago Atitlán	14	Cerro de Oro	6	Junio	2023-06-30T00:00:00	2024-11-08T06:00:00	7	Dirección del viento	4.83
157823	7	Sololá	719	Santiago Atitlán	14	Cerro de Oro	6	Junio	2023-06-30T00:00:00	2024-11-08T06:00:00	1	Precipitación	0
157824	7	Sololá	719	Santiago Atitlán	14	Cerro de Oro	6	Junio	2023-06-30T00:00:00	2024-11-08T06:00:00	8	Radiación solar	3
157825	7	Sololá	719	Santiago Atitlán	14	Cerro de Oro	6	Junio	2023-06-30T00:00:00	2024-11-08T07:00:00	2	Temperatura media	21.7
157826	7	Sololá	719	Santiago Atitlán	14	Cerro de Oro	6	Junio	2023-06-30T00:00:00	2024-11-08T07:00:00	4	Temperatura máxima	21.7
157827	7	Sololá	719	Santiago Atitlán	14	Cerro de Oro	6	Junio	2023-06-30T00:00:00	2024-11-08T07:00:00	3	Temperatura mínima	18.3
157828	7	Sololá	719	Santiago Atitlán	14	Cerro de Oro	6	Junio	2023-06-30T00:00:00	2024-11-08T07:00:00	5	Humedad	70
157829	7	Sololá	719	Santiago Atitlán	14	Cerro de Oro	6	Junio	2023-06-30T00:00:00	2024-11-08T07:00:00	6	Velocidad del viento	3.2
157830	7	Sololá	719	Santiago Atitlán	14	Cerro de Oro	6	Junio	2023-06-30T00:00:00	2024-11-08T07:00:00	7	Dirección del viento	3.22
157831	7	Sololá	719	Santiago Atitlán	14	Cerro de Oro	6	Junio	2023-06-30T00:00:00	2024-11-08T07:00:00	1	Precipitación	0
157832	7	Sololá	719	Santiago Atitlán	14	Cerro de Oro	6	Junio	2023-06-30T00:00:00	2024-11-08T07:00:00	8	Radiación solar	147
157833	7	Sololá	719	Santiago Atitlán	14	Cerro de Oro	6	Junio	2023-06-30T00:00:00	2024-11-08T08:00:00	2	Temperatura media	22.8
157834	7	Sololá	719	Santiago Atitlán	14	Cerro de Oro	6	Junio	2023-06-30T00:00:00	2024-11-08T08:00:00	4	Temperatura máxima	23
157835	7	Sololá	719	Santiago Atitlán	14	Cerro de Oro	6	Junio	2023-06-30T00:00:00	2024-11-08T08:00:00	3	Temperatura mínima	21.7
157836	7	Sololá	719	Santiago Atitlán	14	Cerro de Oro	6	Junio	2023-06-30T00:00:00	2024-11-08T08:00:00	5	Humedad	66
157837	7	Sololá	719	Santiago Atitlán	14	Cerro de Oro	6	Junio	2023-06-30T00:00:00	2024-11-08T08:00:00	6	Velocidad del viento	1.6
157838	7	Sololá	719	Santiago Atitlán	14	Cerro de Oro	6	Junio	2023-06-30T00:00:00	2024-11-08T08:00:00	7	Dirección del viento	1.61
157839	7	Sololá	719	Santiago Atitlán	14	Cerro de Oro	6	Junio	2023-06-30T00:00:00	2024-11-08T08:00:00	1	Precipitación	0
157840	7	Sololá	719	Santiago Atitlán	14	Cerro de Oro	6	Junio	2023-06-30T00:00:00	2024-11-08T08:00:00	8	Radiación solar	317
157841	7	Sololá	719	Santiago Atitlán	14	Cerro de Oro	6	Junio	2023-06-30T00:00:00	2024-11-08T09:00:00	2	Temperatura media	23.5
157842	7	Sololá	719	Santiago Atitlán	14	Cerro de Oro	6	Junio	2023-06-30T00:00:00	2024-11-08T09:00:00	4	Temperatura máxima	23.6
157843	7	Sololá	719	Santiago Atitlán	14	Cerro de Oro	6	Junio	2023-06-30T00:00:00	2024-11-08T09:00:00	3	Temperatura mínima	22.6
157844	7	Sololá	719	Santiago Atitlán	14	Cerro de Oro	6	Junio	2023-06-30T00:00:00	2024-11-08T09:00:00	5	Humedad	64
157845	7	Sololá	719	Santiago Atitlán	14	Cerro de Oro	6	Junio	2023-06-30T00:00:00	2024-11-08T09:00:00	6	Velocidad del viento	3.2
157846	7	Sololá	719	Santiago Atitlán	14	Cerro de Oro	6	Junio	2023-06-30T00:00:00	2024-11-08T09:00:00	7	Dirección del viento	3.22
157847	7	Sololá	719	Santiago Atitlán	14	Cerro de Oro	6	Junio	2023-06-30T00:00:00	2024-11-08T09:00:00	1	Precipitación	0
157848	7	Sololá	719	Santiago Atitlán	14	Cerro de Oro	6	Junio	2023-06-30T00:00:00	2024-11-08T09:00:00	8	Radiación solar	523
157849	7	Sololá	719	Santiago Atitlán	14	Cerro de Oro	6	Junio	2023-06-30T00:00:00	2024-11-08T10:00:00	2	Temperatura media	24
157850	7	Sololá	719	Santiago Atitlán	14	Cerro de Oro	6	Junio	2023-06-30T00:00:00	2024-11-08T10:00:00	4	Temperatura máxima	24
157851	7	Sololá	719	Santiago Atitlán	14	Cerro de Oro	6	Junio	2023-06-30T00:00:00	2024-11-08T10:00:00	3	Temperatura mínima	23.4
157852	7	Sololá	719	Santiago Atitlán	14	Cerro de Oro	6	Junio	2023-06-30T00:00:00	2024-11-08T10:00:00	5	Humedad	72
157853	7	Sololá	719	Santiago Atitlán	14	Cerro de Oro	6	Junio	2023-06-30T00:00:00	2024-11-08T10:00:00	6	Velocidad del viento	3.2
157854	7	Sololá	719	Santiago Atitlán	14	Cerro de Oro	6	Junio	2023-06-30T00:00:00	2024-11-08T10:00:00	7	Dirección del viento	3.22
157855	7	Sololá	719	Santiago Atitlán	14	Cerro de Oro	6	Junio	2023-06-30T00:00:00	2024-11-08T10:00:00	1	Precipitación	0
157856	7	Sololá	719	Santiago Atitlán	14	Cerro de Oro	6	Junio	2023-06-30T00:00:00	2024-11-08T10:00:00	8	Radiación solar	703
157857	7	Sololá	719	Santiago Atitlán	14	Cerro de Oro	6	Junio	2023-06-30T00:00:00	2024-11-08T11:00:00	2	Temperatura media	25
157858	7	Sololá	719	Santiago Atitlán	14	Cerro de Oro	6	Junio	2023-06-30T00:00:00	2024-11-08T11:00:00	4	Temperatura máxima	25.1
157859	7	Sololá	719	Santiago Atitlán	14	Cerro de Oro	6	Junio	2023-06-30T00:00:00	2024-11-08T11:00:00	3	Temperatura mínima	23.6
157860	7	Sololá	719	Santiago Atitlán	14	Cerro de Oro	6	Junio	2023-06-30T00:00:00	2024-11-08T11:00:00	5	Humedad	61
157861	7	Sololá	719	Santiago Atitlán	14	Cerro de Oro	6	Junio	2023-06-30T00:00:00	2024-11-08T11:00:00	6	Velocidad del viento	4.8
157862	7	Sololá	719	Santiago Atitlán	14	Cerro de Oro	6	Junio	2023-06-30T00:00:00	2024-11-08T11:00:00	7	Dirección del viento	4.83
157863	7	Sololá	719	Santiago Atitlán	14	Cerro de Oro	6	Junio	2023-06-30T00:00:00	2024-11-08T11:00:00	1	Precipitación	0
157864	7	Sololá	719	Santiago Atitlán	14	Cerro de Oro	6	Junio	2023-06-30T00:00:00	2024-11-08T11:00:00	8	Radiación solar	852
157865	7	Sololá	719	Santiago Atitlán	14	Cerro de Oro	6	Junio	2023-06-30T00:00:00	2024-11-08T12:00:00	2	Temperatura media	26.3
157866	7	Sololá	719	Santiago Atitlán	14	Cerro de Oro	6	Junio	2023-06-30T00:00:00	2024-11-08T12:00:00	4	Temperatura máxima	26.5
157867	7	Sololá	719	Santiago Atitlán	14	Cerro de Oro	6	Junio	2023-06-30T00:00:00	2024-11-08T12:00:00	3	Temperatura mínima	25
157868	7	Sololá	719	Santiago Atitlán	14	Cerro de Oro	6	Junio	2023-06-30T00:00:00	2024-11-08T12:00:00	5	Humedad	53
157869	7	Sololá	719	Santiago Atitlán	14	Cerro de Oro	6	Junio	2023-06-30T00:00:00	2024-11-08T12:00:00	6	Velocidad del viento	9.7
157870	7	Sololá	719	Santiago Atitlán	14	Cerro de Oro	6	Junio	2023-06-30T00:00:00	2024-11-08T12:00:00	7	Dirección del viento	9.66
157871	7	Sololá	719	Santiago Atitlán	14	Cerro de Oro	6	Junio	2023-06-30T00:00:00	2024-11-08T12:00:00	1	Precipitación	0
157872	7	Sololá	719	Santiago Atitlán	14	Cerro de Oro	6	Junio	2023-06-30T00:00:00	2024-11-08T12:00:00	8	Radiación solar	943
157873	7	Sololá	719	Santiago Atitlán	14	Cerro de Oro	6	Junio	2023-06-30T00:00:00	2024-11-08T13:00:00	2	Temperatura media	27.1
157874	7	Sololá	719	Santiago Atitlán	14	Cerro de Oro	6	Junio	2023-06-30T00:00:00	2024-11-08T13:00:00	4	Temperatura máxima	27.3
157875	7	Sololá	719	Santiago Atitlán	14	Cerro de Oro	6	Junio	2023-06-30T00:00:00	2024-11-08T13:00:00	3	Temperatura mínima	26.3
157876	7	Sololá	719	Santiago Atitlán	14	Cerro de Oro	6	Junio	2023-06-30T00:00:00	2024-11-08T13:00:00	5	Humedad	57
157877	7	Sololá	719	Santiago Atitlán	14	Cerro de Oro	6	Junio	2023-06-30T00:00:00	2024-11-08T13:00:00	6	Velocidad del viento	9.7
157878	7	Sololá	719	Santiago Atitlán	14	Cerro de Oro	6	Junio	2023-06-30T00:00:00	2024-11-08T13:00:00	7	Dirección del viento	9.66
157879	7	Sololá	719	Santiago Atitlán	14	Cerro de Oro	6	Junio	2023-06-30T00:00:00	2024-11-08T13:00:00	1	Precipitación	0
157880	7	Sololá	719	Santiago Atitlán	14	Cerro de Oro	6	Junio	2023-06-30T00:00:00	2024-11-08T13:00:00	8	Radiación solar	932
157881	7	Sololá	719	Santiago Atitlán	14	Cerro de Oro	6	Junio	2023-06-30T00:00:00	2024-11-08T14:00:00	2	Temperatura media	26.9
157882	7	Sololá	719	Santiago Atitlán	14	Cerro de Oro	6	Junio	2023-06-30T00:00:00	2024-11-08T14:00:00	4	Temperatura máxima	27.5
157883	7	Sololá	719	Santiago Atitlán	14	Cerro de Oro	6	Junio	2023-06-30T00:00:00	2024-11-08T14:00:00	3	Temperatura mínima	26.4
157884	7	Sololá	719	Santiago Atitlán	14	Cerro de Oro	6	Junio	2023-06-30T00:00:00	2024-11-08T14:00:00	5	Humedad	64
157885	7	Sololá	719	Santiago Atitlán	14	Cerro de Oro	6	Junio	2023-06-30T00:00:00	2024-11-08T14:00:00	6	Velocidad del viento	11.3
157886	7	Sololá	719	Santiago Atitlán	14	Cerro de Oro	6	Junio	2023-06-30T00:00:00	2024-11-08T14:00:00	7	Dirección del viento	11.27
157887	7	Sololá	719	Santiago Atitlán	14	Cerro de Oro	6	Junio	2023-06-30T00:00:00	2024-11-08T14:00:00	1	Precipitación	0
157888	7	Sololá	719	Santiago Atitlán	14	Cerro de Oro	6	Junio	2023-06-30T00:00:00	2024-11-08T14:00:00	8	Radiación solar	853
157889	7	Sololá	719	Santiago Atitlán	14	Cerro de Oro	6	Junio	2023-06-30T00:00:00	2024-11-08T15:00:00	2	Temperatura media	25.7
157890	7	Sololá	719	Santiago Atitlán	14	Cerro de Oro	6	Junio	2023-06-30T00:00:00	2024-11-08T15:00:00	4	Temperatura máxima	26.9
157891	7	Sololá	719	Santiago Atitlán	14	Cerro de Oro	6	Junio	2023-06-30T00:00:00	2024-11-08T15:00:00	3	Temperatura mínima	24.9
157892	7	Sololá	719	Santiago Atitlán	14	Cerro de Oro	6	Junio	2023-06-30T00:00:00	2024-11-08T15:00:00	5	Humedad	71
157893	7	Sololá	719	Santiago Atitlán	14	Cerro de Oro	6	Junio	2023-06-30T00:00:00	2024-11-08T15:00:00	6	Velocidad del viento	14.5
157894	7	Sololá	719	Santiago Atitlán	14	Cerro de Oro	6	Junio	2023-06-30T00:00:00	2024-11-08T15:00:00	7	Dirección del viento	14.48
157895	7	Sololá	719	Santiago Atitlán	14	Cerro de Oro	6	Junio	2023-06-30T00:00:00	2024-11-08T15:00:00	1	Precipitación	0
157896	7	Sololá	719	Santiago Atitlán	14	Cerro de Oro	6	Junio	2023-06-30T00:00:00	2024-11-08T15:00:00	8	Radiación solar	670
157897	7	Sololá	719	Santiago Atitlán	14	Cerro de Oro	6	Junio	2023-06-30T00:00:00	2024-11-08T16:00:00	2	Temperatura media	23
157898	7	Sololá	719	Santiago Atitlán	14	Cerro de Oro	6	Junio	2023-06-30T00:00:00	2024-11-08T16:00:00	4	Temperatura máxima	25.9
157899	7	Sololá	719	Santiago Atitlán	14	Cerro de Oro	6	Junio	2023-06-30T00:00:00	2024-11-08T16:00:00	3	Temperatura mínima	22.9
157900	7	Sololá	719	Santiago Atitlán	14	Cerro de Oro	6	Junio	2023-06-30T00:00:00	2024-11-08T16:00:00	5	Humedad	68
157901	7	Sololá	719	Santiago Atitlán	14	Cerro de Oro	6	Junio	2023-06-30T00:00:00	2024-11-08T16:00:00	6	Velocidad del viento	16.1
157902	7	Sololá	719	Santiago Atitlán	14	Cerro de Oro	6	Junio	2023-06-30T00:00:00	2024-11-08T16:00:00	7	Dirección del viento	16.09
157903	7	Sololá	719	Santiago Atitlán	14	Cerro de Oro	6	Junio	2023-06-30T00:00:00	2024-11-08T16:00:00	1	Precipitación	0
157904	7	Sololá	719	Santiago Atitlán	14	Cerro de Oro	6	Junio	2023-06-30T00:00:00	2024-11-08T16:00:00	8	Radiación solar	645
157905	7	Sololá	719	Santiago Atitlán	14	Cerro de Oro	6	Junio	2023-06-30T00:00:00	2024-11-08T17:00:00	2	Temperatura media	22.7
157906	7	Sololá	719	Santiago Atitlán	14	Cerro de Oro	6	Junio	2023-06-30T00:00:00	2024-11-08T17:00:00	4	Temperatura máxima	26.2
157907	7	Sololá	719	Santiago Atitlán	14	Cerro de Oro	6	Junio	2023-06-30T00:00:00	2024-11-08T17:00:00	3	Temperatura mínima	22.7
157908	7	Sololá	719	Santiago Atitlán	14	Cerro de Oro	6	Junio	2023-06-30T00:00:00	2024-11-08T17:00:00	5	Humedad	66
157909	7	Sololá	719	Santiago Atitlán	14	Cerro de Oro	6	Junio	2023-06-30T00:00:00	2024-11-08T17:00:00	6	Velocidad del viento	8
157910	7	Sololá	719	Santiago Atitlán	14	Cerro de Oro	6	Junio	2023-06-30T00:00:00	2024-11-08T17:00:00	7	Dirección del viento	8.05
157911	7	Sololá	719	Santiago Atitlán	14	Cerro de Oro	6	Junio	2023-06-30T00:00:00	2024-11-08T17:00:00	1	Precipitación	0
157912	7	Sololá	719	Santiago Atitlán	14	Cerro de Oro	6	Junio	2023-06-30T00:00:00	2024-11-08T17:00:00	8	Radiación solar	370
157913	7	Sololá	719	Santiago Atitlán	14	Cerro de Oro	6	Junio	2023-06-30T00:00:00	2024-11-08T18:00:00	2	Temperatura media	22.6
157914	7	Sololá	719	Santiago Atitlán	14	Cerro de Oro	6	Junio	2023-06-30T00:00:00	2024-11-08T18:00:00	4	Temperatura máxima	22.6
157915	7	Sololá	719	Santiago Atitlán	14	Cerro de Oro	6	Junio	2023-06-30T00:00:00	2024-11-08T18:00:00	3	Temperatura mínima	21.6
157916	7	Sololá	719	Santiago Atitlán	14	Cerro de Oro	6	Junio	2023-06-30T00:00:00	2024-11-08T18:00:00	5	Humedad	67
157917	7	Sololá	719	Santiago Atitlán	14	Cerro de Oro	6	Junio	2023-06-30T00:00:00	2024-11-08T18:00:00	6	Velocidad del viento	8
157918	7	Sololá	719	Santiago Atitlán	14	Cerro de Oro	6	Junio	2023-06-30T00:00:00	2024-11-08T18:00:00	7	Dirección del viento	8.05
157919	7	Sololá	719	Santiago Atitlán	14	Cerro de Oro	6	Junio	2023-06-30T00:00:00	2024-11-08T18:00:00	1	Precipitación	0
157920	7	Sololá	719	Santiago Atitlán	14	Cerro de Oro	6	Junio	2023-06-30T00:00:00	2024-11-08T18:00:00	8	Radiación solar	93
157921	7	Sololá	719	Santiago Atitlán	14	Cerro de Oro	6	Junio	2023-06-30T00:00:00	2024-11-08T19:00:00	2	Temperatura media	21.2
157922	7	Sololá	719	Santiago Atitlán	14	Cerro de Oro	6	Junio	2023-06-30T00:00:00	2024-11-08T19:00:00	4	Temperatura máxima	22.6
157923	7	Sololá	719	Santiago Atitlán	14	Cerro de Oro	6	Junio	2023-06-30T00:00:00	2024-11-08T19:00:00	3	Temperatura mínima	21.2
157924	7	Sololá	719	Santiago Atitlán	14	Cerro de Oro	6	Junio	2023-06-30T00:00:00	2024-11-08T19:00:00	5	Humedad	74
157925	7	Sololá	719	Santiago Atitlán	14	Cerro de Oro	6	Junio	2023-06-30T00:00:00	2024-11-08T19:00:00	6	Velocidad del viento	3.2
157926	7	Sololá	719	Santiago Atitlán	14	Cerro de Oro	6	Junio	2023-06-30T00:00:00	2024-11-08T19:00:00	7	Dirección del viento	3.22
157927	7	Sololá	719	Santiago Atitlán	14	Cerro de Oro	6	Junio	2023-06-30T00:00:00	2024-11-08T19:00:00	1	Precipitación	0
157928	7	Sololá	719	Santiago Atitlán	14	Cerro de Oro	6	Junio	2023-06-30T00:00:00	2024-11-08T19:00:00	8	Radiación solar	0
157929	7	Sololá	719	Santiago Atitlán	14	Cerro de Oro	6	Junio	2023-06-30T00:00:00	2024-11-08T20:00:00	2	Temperatura media	20.7
157930	7	Sololá	719	Santiago Atitlán	14	Cerro de Oro	6	Junio	2023-06-30T00:00:00	2024-11-08T20:00:00	4	Temperatura máxima	21.2
157931	7	Sololá	719	Santiago Atitlán	14	Cerro de Oro	6	Junio	2023-06-30T00:00:00	2024-11-08T20:00:00	3	Temperatura mínima	20.6
157932	7	Sololá	719	Santiago Atitlán	14	Cerro de Oro	6	Junio	2023-06-30T00:00:00	2024-11-08T20:00:00	5	Humedad	79
157933	7	Sololá	719	Santiago Atitlán	14	Cerro de Oro	6	Junio	2023-06-30T00:00:00	2024-11-08T20:00:00	6	Velocidad del viento	3.2
157934	7	Sololá	719	Santiago Atitlán	14	Cerro de Oro	6	Junio	2023-06-30T00:00:00	2024-11-08T20:00:00	7	Dirección del viento	3.22
157935	7	Sololá	719	Santiago Atitlán	14	Cerro de Oro	6	Junio	2023-06-30T00:00:00	2024-11-08T20:00:00	1	Precipitación	0
157936	7	Sololá	719	Santiago Atitlán	14	Cerro de Oro	6	Junio	2023-06-30T00:00:00	2024-11-08T20:00:00	8	Radiación solar	0
157937	7	Sololá	719	Santiago Atitlán	14	Cerro de Oro	6	Junio	2023-06-30T00:00:00	2024-11-08T21:00:00	2	Temperatura media	21.3
157938	7	Sololá	719	Santiago Atitlán	14	Cerro de Oro	6	Junio	2023-06-30T00:00:00	2024-11-08T21:00:00	4	Temperatura máxima	21.6
157939	7	Sololá	719	Santiago Atitlán	14	Cerro de Oro	6	Junio	2023-06-30T00:00:00	2024-11-08T21:00:00	3	Temperatura mínima	20.6
157940	7	Sololá	719	Santiago Atitlán	14	Cerro de Oro	6	Junio	2023-06-30T00:00:00	2024-11-08T21:00:00	5	Humedad	74
157941	7	Sololá	719	Santiago Atitlán	14	Cerro de Oro	6	Junio	2023-06-30T00:00:00	2024-11-08T21:00:00	6	Velocidad del viento	4.8
157942	7	Sololá	719	Santiago Atitlán	14	Cerro de Oro	6	Junio	2023-06-30T00:00:00	2024-11-08T21:00:00	7	Dirección del viento	4.83
157943	7	Sololá	719	Santiago Atitlán	14	Cerro de Oro	6	Junio	2023-06-30T00:00:00	2024-11-08T21:00:00	1	Precipitación	0
157944	7	Sololá	719	Santiago Atitlán	14	Cerro de Oro	6	Junio	2023-06-30T00:00:00	2024-11-08T21:00:00	8	Radiación solar	0
157945	7	Sololá	719	Santiago Atitlán	14	Cerro de Oro	6	Junio	2023-06-30T00:00:00	2024-11-08T22:00:00	2	Temperatura media	21.5
157946	7	Sololá	719	Santiago Atitlán	14	Cerro de Oro	6	Junio	2023-06-30T00:00:00	2024-11-08T22:00:00	4	Temperatura máxima	21.6
157947	7	Sololá	719	Santiago Atitlán	14	Cerro de Oro	6	Junio	2023-06-30T00:00:00	2024-11-08T22:00:00	3	Temperatura mínima	20.2
157948	7	Sololá	719	Santiago Atitlán	14	Cerro de Oro	6	Junio	2023-06-30T00:00:00	2024-11-08T22:00:00	5	Humedad	74
157949	7	Sololá	719	Santiago Atitlán	14	Cerro de Oro	6	Junio	2023-06-30T00:00:00	2024-11-08T22:00:00	6	Velocidad del viento	4.8
157950	7	Sololá	719	Santiago Atitlán	14	Cerro de Oro	6	Junio	2023-06-30T00:00:00	2024-11-08T22:00:00	7	Dirección del viento	4.83
157951	7	Sololá	719	Santiago Atitlán	14	Cerro de Oro	6	Junio	2023-06-30T00:00:00	2024-11-08T22:00:00	1	Precipitación	0
157952	7	Sololá	719	Santiago Atitlán	14	Cerro de Oro	6	Junio	2023-06-30T00:00:00	2024-11-08T22:00:00	8	Radiación solar	0
157953	7	Sololá	719	Santiago Atitlán	14	Cerro de Oro	6	Junio	2023-06-30T00:00:00	2024-11-08T23:00:00	2	Temperatura media	20.8
157954	7	Sololá	719	Santiago Atitlán	14	Cerro de Oro	6	Junio	2023-06-30T00:00:00	2024-11-08T23:00:00	4	Temperatura máxima	21.7
157955	7	Sololá	719	Santiago Atitlán	14	Cerro de Oro	6	Junio	2023-06-30T00:00:00	2024-11-08T23:00:00	3	Temperatura mínima	20.8
157956	7	Sololá	719	Santiago Atitlán	14	Cerro de Oro	6	Junio	2023-06-30T00:00:00	2024-11-08T23:00:00	5	Humedad	76
157957	7	Sololá	719	Santiago Atitlán	14	Cerro de Oro	6	Junio	2023-06-30T00:00:00	2024-11-08T23:00:00	6	Velocidad del viento	8
157958	7	Sololá	719	Santiago Atitlán	14	Cerro de Oro	6	Junio	2023-06-30T00:00:00	2024-11-08T23:00:00	7	Dirección del viento	8.05
157959	7	Sololá	719	Santiago Atitlán	14	Cerro de Oro	6	Junio	2023-06-30T00:00:00	2024-11-08T23:00:00	1	Precipitación	0
157960	7	Sololá	719	Santiago Atitlán	14	Cerro de Oro	6	Junio	2023-06-30T00:00:00	2024-11-08T23:00:00	8	Radiación solar	0
157961	7	Sololá	719	Santiago Atitlán	14	Cerro de Oro	7	Julio	2023-01-07T00:00:00	2024-11-08T00:00:00	2	Temperatura media	20.1
157962	7	Sololá	719	Santiago Atitlán	14	Cerro de Oro	7	Julio	2023-01-07T00:00:00	2024-11-08T00:00:00	4	Temperatura máxima	20.7
157963	7	Sololá	719	Santiago Atitlán	14	Cerro de Oro	7	Julio	2023-01-07T00:00:00	2024-11-08T00:00:00	3	Temperatura mínima	19.6
157964	7	Sololá	719	Santiago Atitlán	14	Cerro de Oro	7	Julio	2023-01-07T00:00:00	2024-11-08T00:00:00	5	Humedad	78
157965	7	Sololá	719	Santiago Atitlán	14	Cerro de Oro	7	Julio	2023-01-07T00:00:00	2024-11-08T00:00:00	6	Velocidad del viento	4.8
157966	7	Sololá	719	Santiago Atitlán	14	Cerro de Oro	7	Julio	2023-01-07T00:00:00	2024-11-08T00:00:00	7	Dirección del viento	4.83
157967	7	Sololá	719	Santiago Atitlán	14	Cerro de Oro	7	Julio	2023-01-07T00:00:00	2024-11-08T00:00:00	1	Precipitación	0
157968	7	Sololá	719	Santiago Atitlán	14	Cerro de Oro	7	Julio	2023-01-07T00:00:00	2024-11-08T00:00:00	8	Radiación solar	0
157969	7	Sololá	719	Santiago Atitlán	14	Cerro de Oro	7	Julio	2023-01-07T00:00:00	2024-11-08T01:00:00	2	Temperatura media	20.1
157970	7	Sololá	719	Santiago Atitlán	14	Cerro de Oro	7	Julio	2023-01-07T00:00:00	2024-11-08T01:00:00	4	Temperatura máxima	21.1
157971	7	Sololá	719	Santiago Atitlán	14	Cerro de Oro	7	Julio	2023-01-07T00:00:00	2024-11-08T01:00:00	3	Temperatura mínima	20.1
157972	7	Sololá	719	Santiago Atitlán	14	Cerro de Oro	7	Julio	2023-01-07T00:00:00	2024-11-08T01:00:00	5	Humedad	77
157973	7	Sololá	719	Santiago Atitlán	14	Cerro de Oro	7	Julio	2023-01-07T00:00:00	2024-11-08T01:00:00	6	Velocidad del viento	4.8
157974	7	Sololá	719	Santiago Atitlán	14	Cerro de Oro	7	Julio	2023-01-07T00:00:00	2024-11-08T01:00:00	7	Dirección del viento	4.83
157975	7	Sololá	719	Santiago Atitlán	14	Cerro de Oro	7	Julio	2023-01-07T00:00:00	2024-11-08T01:00:00	1	Precipitación	0
157976	7	Sololá	719	Santiago Atitlán	14	Cerro de Oro	7	Julio	2023-01-07T00:00:00	2024-11-08T01:00:00	8	Radiación solar	0
157977	7	Sololá	719	Santiago Atitlán	14	Cerro de Oro	7	Julio	2023-01-07T00:00:00	2024-11-08T02:00:00	2	Temperatura media	20
157978	7	Sololá	719	Santiago Atitlán	14	Cerro de Oro	7	Julio	2023-01-07T00:00:00	2024-11-08T02:00:00	4	Temperatura máxima	20.3
157979	7	Sololá	719	Santiago Atitlán	14	Cerro de Oro	7	Julio	2023-01-07T00:00:00	2024-11-08T02:00:00	3	Temperatura mínima	19.9
157980	7	Sololá	719	Santiago Atitlán	14	Cerro de Oro	7	Julio	2023-01-07T00:00:00	2024-11-08T02:00:00	5	Humedad	74
157981	7	Sololá	719	Santiago Atitlán	14	Cerro de Oro	7	Julio	2023-01-07T00:00:00	2024-11-08T02:00:00	6	Velocidad del viento	4.8
157982	7	Sololá	719	Santiago Atitlán	14	Cerro de Oro	7	Julio	2023-01-07T00:00:00	2024-11-08T02:00:00	7	Dirección del viento	4.83
157983	7	Sololá	719	Santiago Atitlán	14	Cerro de Oro	7	Julio	2023-01-07T00:00:00	2024-11-08T02:00:00	1	Precipitación	0
157984	7	Sololá	719	Santiago Atitlán	14	Cerro de Oro	7	Julio	2023-01-07T00:00:00	2024-11-08T02:00:00	8	Radiación solar	0
157985	7	Sololá	719	Santiago Atitlán	14	Cerro de Oro	7	Julio	2023-01-07T00:00:00	2024-11-08T03:00:00	2	Temperatura media	19.4
157986	7	Sololá	719	Santiago Atitlán	14	Cerro de Oro	7	Julio	2023-01-07T00:00:00	2024-11-08T03:00:00	4	Temperatura máxima	20.1
157987	7	Sololá	719	Santiago Atitlán	14	Cerro de Oro	7	Julio	2023-01-07T00:00:00	2024-11-08T03:00:00	3	Temperatura mínima	19.4
157988	7	Sololá	719	Santiago Atitlán	14	Cerro de Oro	7	Julio	2023-01-07T00:00:00	2024-11-08T03:00:00	5	Humedad	77
157989	7	Sololá	719	Santiago Atitlán	14	Cerro de Oro	7	Julio	2023-01-07T00:00:00	2024-11-08T03:00:00	6	Velocidad del viento	3.2
157990	7	Sololá	719	Santiago Atitlán	14	Cerro de Oro	7	Julio	2023-01-07T00:00:00	2024-11-08T03:00:00	7	Dirección del viento	3.22
157991	7	Sololá	719	Santiago Atitlán	14	Cerro de Oro	7	Julio	2023-01-07T00:00:00	2024-11-08T03:00:00	1	Precipitación	0
157992	7	Sololá	719	Santiago Atitlán	14	Cerro de Oro	7	Julio	2023-01-07T00:00:00	2024-11-08T03:00:00	8	Radiación solar	0
157993	7	Sololá	719	Santiago Atitlán	14	Cerro de Oro	7	Julio	2023-01-07T00:00:00	2024-11-08T04:00:00	2	Temperatura media	18.8
157994	7	Sololá	719	Santiago Atitlán	14	Cerro de Oro	7	Julio	2023-01-07T00:00:00	2024-11-08T04:00:00	4	Temperatura máxima	19.4
157995	7	Sololá	719	Santiago Atitlán	14	Cerro de Oro	7	Julio	2023-01-07T00:00:00	2024-11-08T04:00:00	3	Temperatura mínima	18.8
157996	7	Sololá	719	Santiago Atitlán	14	Cerro de Oro	7	Julio	2023-01-07T00:00:00	2024-11-08T04:00:00	5	Humedad	80
157997	7	Sololá	719	Santiago Atitlán	14	Cerro de Oro	7	Julio	2023-01-07T00:00:00	2024-11-08T04:00:00	6	Velocidad del viento	4.8
157998	7	Sololá	719	Santiago Atitlán	14	Cerro de Oro	7	Julio	2023-01-07T00:00:00	2024-11-08T04:00:00	7	Dirección del viento	4.83
157999	7	Sololá	719	Santiago Atitlán	14	Cerro de Oro	7	Julio	2023-01-07T00:00:00	2024-11-08T04:00:00	1	Precipitación	0
158000	7	Sololá	719	Santiago Atitlán	14	Cerro de Oro	7	Julio	2023-01-07T00:00:00	2024-11-08T04:00:00	8	Radiación solar	0
158001	7	Sololá	719	Santiago Atitlán	14	Cerro de Oro	7	Julio	2023-01-07T00:00:00	2024-11-08T05:00:00	2	Temperatura media	18.6
158002	7	Sololá	719	Santiago Atitlán	14	Cerro de Oro	7	Julio	2023-01-07T00:00:00	2024-11-08T05:00:00	4	Temperatura máxima	18.9
158003	7	Sololá	719	Santiago Atitlán	14	Cerro de Oro	7	Julio	2023-01-07T00:00:00	2024-11-08T05:00:00	3	Temperatura mínima	18.4
158004	7	Sololá	719	Santiago Atitlán	14	Cerro de Oro	7	Julio	2023-01-07T00:00:00	2024-11-08T05:00:00	5	Humedad	80
158005	7	Sololá	719	Santiago Atitlán	14	Cerro de Oro	7	Julio	2023-01-07T00:00:00	2024-11-08T05:00:00	6	Velocidad del viento	4.8
158006	7	Sololá	719	Santiago Atitlán	14	Cerro de Oro	7	Julio	2023-01-07T00:00:00	2024-11-08T05:00:00	7	Dirección del viento	4.83
158007	7	Sololá	719	Santiago Atitlán	14	Cerro de Oro	7	Julio	2023-01-07T00:00:00	2024-11-08T05:00:00	1	Precipitación	0
158008	7	Sololá	719	Santiago Atitlán	14	Cerro de Oro	7	Julio	2023-01-07T00:00:00	2024-11-08T05:00:00	8	Radiación solar	0
158009	7	Sololá	719	Santiago Atitlán	14	Cerro de Oro	7	Julio	2023-01-07T00:00:00	2024-11-08T06:00:00	2	Temperatura media	18.2
158010	7	Sololá	719	Santiago Atitlán	14	Cerro de Oro	7	Julio	2023-01-07T00:00:00	2024-11-08T06:00:00	4	Temperatura máxima	18.6
158011	7	Sololá	719	Santiago Atitlán	14	Cerro de Oro	7	Julio	2023-01-07T00:00:00	2024-11-08T06:00:00	3	Temperatura mínima	18
158012	7	Sololá	719	Santiago Atitlán	14	Cerro de Oro	7	Julio	2023-01-07T00:00:00	2024-11-08T06:00:00	5	Humedad	82
158013	7	Sololá	719	Santiago Atitlán	14	Cerro de Oro	7	Julio	2023-01-07T00:00:00	2024-11-08T06:00:00	6	Velocidad del viento	4.8
158014	7	Sololá	719	Santiago Atitlán	14	Cerro de Oro	7	Julio	2023-01-07T00:00:00	2024-11-08T06:00:00	7	Dirección del viento	4.83
158015	7	Sololá	719	Santiago Atitlán	14	Cerro de Oro	7	Julio	2023-01-07T00:00:00	2024-11-08T06:00:00	1	Precipitación	0
158016	7	Sololá	719	Santiago Atitlán	14	Cerro de Oro	7	Julio	2023-01-07T00:00:00	2024-11-08T06:00:00	8	Radiación solar	3
158017	7	Sololá	719	Santiago Atitlán	14	Cerro de Oro	7	Julio	2023-01-07T00:00:00	2024-11-08T07:00:00	2	Temperatura media	20.2
158018	7	Sololá	719	Santiago Atitlán	14	Cerro de Oro	7	Julio	2023-01-07T00:00:00	2024-11-08T07:00:00	4	Temperatura máxima	20.3
158019	7	Sololá	719	Santiago Atitlán	14	Cerro de Oro	7	Julio	2023-01-07T00:00:00	2024-11-08T07:00:00	3	Temperatura mínima	17.8
158020	7	Sololá	719	Santiago Atitlán	14	Cerro de Oro	7	Julio	2023-01-07T00:00:00	2024-11-08T07:00:00	5	Humedad	76
158021	7	Sololá	719	Santiago Atitlán	14	Cerro de Oro	7	Julio	2023-01-07T00:00:00	2024-11-08T07:00:00	6	Velocidad del viento	3.2
158022	7	Sololá	719	Santiago Atitlán	14	Cerro de Oro	7	Julio	2023-01-07T00:00:00	2024-11-08T07:00:00	7	Dirección del viento	3.22
158023	7	Sololá	719	Santiago Atitlán	14	Cerro de Oro	7	Julio	2023-01-07T00:00:00	2024-11-08T07:00:00	1	Precipitación	0
158024	7	Sololá	719	Santiago Atitlán	14	Cerro de Oro	7	Julio	2023-01-07T00:00:00	2024-11-08T07:00:00	8	Radiación solar	90
158025	7	Sololá	719	Santiago Atitlán	14	Cerro de Oro	7	Julio	2023-01-07T00:00:00	2024-11-08T08:00:00	2	Temperatura media	22
158026	7	Sololá	719	Santiago Atitlán	14	Cerro de Oro	7	Julio	2023-01-07T00:00:00	2024-11-08T08:00:00	4	Temperatura máxima	22
158027	7	Sololá	719	Santiago Atitlán	14	Cerro de Oro	7	Julio	2023-01-07T00:00:00	2024-11-08T08:00:00	3	Temperatura mínima	20.1
158028	7	Sololá	719	Santiago Atitlán	14	Cerro de Oro	7	Julio	2023-01-07T00:00:00	2024-11-08T08:00:00	5	Humedad	70
158029	7	Sololá	719	Santiago Atitlán	14	Cerro de Oro	7	Julio	2023-01-07T00:00:00	2024-11-08T08:00:00	6	Velocidad del viento	3.2
158030	7	Sololá	719	Santiago Atitlán	14	Cerro de Oro	7	Julio	2023-01-07T00:00:00	2024-11-08T08:00:00	7	Dirección del viento	3.22
158031	7	Sololá	719	Santiago Atitlán	14	Cerro de Oro	7	Julio	2023-01-07T00:00:00	2024-11-08T08:00:00	1	Precipitación	0
158032	7	Sololá	719	Santiago Atitlán	14	Cerro de Oro	7	Julio	2023-01-07T00:00:00	2024-11-08T08:00:00	8	Radiación solar	286
158033	7	Sololá	719	Santiago Atitlán	14	Cerro de Oro	7	Julio	2023-01-07T00:00:00	2024-11-08T09:00:00	2	Temperatura media	21.9
158034	7	Sololá	719	Santiago Atitlán	14	Cerro de Oro	7	Julio	2023-01-07T00:00:00	2024-11-08T09:00:00	4	Temperatura máxima	22.7
158035	7	Sololá	719	Santiago Atitlán	14	Cerro de Oro	7	Julio	2023-01-07T00:00:00	2024-11-08T09:00:00	3	Temperatura mínima	21.8
158036	7	Sololá	719	Santiago Atitlán	14	Cerro de Oro	7	Julio	2023-01-07T00:00:00	2024-11-08T09:00:00	5	Humedad	73
158037	7	Sololá	719	Santiago Atitlán	14	Cerro de Oro	7	Julio	2023-01-07T00:00:00	2024-11-08T09:00:00	6	Velocidad del viento	4.8
158038	7	Sololá	719	Santiago Atitlán	14	Cerro de Oro	7	Julio	2023-01-07T00:00:00	2024-11-08T09:00:00	7	Dirección del viento	4.83
158039	7	Sololá	719	Santiago Atitlán	14	Cerro de Oro	7	Julio	2023-01-07T00:00:00	2024-11-08T09:00:00	1	Precipitación	0
158040	7	Sololá	719	Santiago Atitlán	14	Cerro de Oro	7	Julio	2023-01-07T00:00:00	2024-11-08T09:00:00	8	Radiación solar	521
158041	7	Sololá	719	Santiago Atitlán	14	Cerro de Oro	7	Julio	2023-01-07T00:00:00	2024-11-08T10:00:00	2	Temperatura media	22.9
158042	7	Sololá	719	Santiago Atitlán	14	Cerro de Oro	7	Julio	2023-01-07T00:00:00	2024-11-08T10:00:00	4	Temperatura máxima	23.3
158043	7	Sololá	719	Santiago Atitlán	14	Cerro de Oro	7	Julio	2023-01-07T00:00:00	2024-11-08T10:00:00	3	Temperatura mínima	21.9
158044	7	Sololá	719	Santiago Atitlán	14	Cerro de Oro	7	Julio	2023-01-07T00:00:00	2024-11-08T10:00:00	5	Humedad	71
158045	7	Sololá	719	Santiago Atitlán	14	Cerro de Oro	7	Julio	2023-01-07T00:00:00	2024-11-08T10:00:00	6	Velocidad del viento	4.8
158046	7	Sololá	719	Santiago Atitlán	14	Cerro de Oro	7	Julio	2023-01-07T00:00:00	2024-11-08T10:00:00	7	Dirección del viento	4.83
158047	7	Sololá	719	Santiago Atitlán	14	Cerro de Oro	7	Julio	2023-01-07T00:00:00	2024-11-08T10:00:00	1	Precipitación	0
158048	7	Sololá	719	Santiago Atitlán	14	Cerro de Oro	7	Julio	2023-01-07T00:00:00	2024-11-08T10:00:00	8	Radiación solar	698
158049	7	Sololá	719	Santiago Atitlán	14	Cerro de Oro	7	Julio	2023-01-07T00:00:00	2024-11-08T11:00:00	2	Temperatura media	25.1
158050	7	Sololá	719	Santiago Atitlán	14	Cerro de Oro	7	Julio	2023-01-07T00:00:00	2024-11-08T11:00:00	4	Temperatura máxima	25.1
158051	7	Sololá	719	Santiago Atitlán	14	Cerro de Oro	7	Julio	2023-01-07T00:00:00	2024-11-08T11:00:00	3	Temperatura mínima	22.4
158052	7	Sololá	719	Santiago Atitlán	14	Cerro de Oro	7	Julio	2023-01-07T00:00:00	2024-11-08T11:00:00	5	Humedad	69
158053	7	Sololá	719	Santiago Atitlán	14	Cerro de Oro	7	Julio	2023-01-07T00:00:00	2024-11-08T11:00:00	6	Velocidad del viento	6.4
158054	7	Sololá	719	Santiago Atitlán	14	Cerro de Oro	7	Julio	2023-01-07T00:00:00	2024-11-08T11:00:00	7	Dirección del viento	6.44
158055	7	Sololá	719	Santiago Atitlán	14	Cerro de Oro	7	Julio	2023-01-07T00:00:00	2024-11-08T11:00:00	1	Precipitación	0
158056	7	Sololá	719	Santiago Atitlán	14	Cerro de Oro	7	Julio	2023-01-07T00:00:00	2024-11-08T11:00:00	8	Radiación solar	833
158057	7	Sololá	719	Santiago Atitlán	14	Cerro de Oro	7	Julio	2023-01-07T00:00:00	2024-11-08T12:00:00	2	Temperatura media	25.8
158058	7	Sololá	719	Santiago Atitlán	14	Cerro de Oro	7	Julio	2023-01-07T00:00:00	2024-11-08T12:00:00	4	Temperatura máxima	26
158059	7	Sololá	719	Santiago Atitlán	14	Cerro de Oro	7	Julio	2023-01-07T00:00:00	2024-11-08T12:00:00	3	Temperatura mínima	25.1
158060	7	Sololá	719	Santiago Atitlán	14	Cerro de Oro	7	Julio	2023-01-07T00:00:00	2024-11-08T12:00:00	5	Humedad	68
158061	7	Sololá	719	Santiago Atitlán	14	Cerro de Oro	7	Julio	2023-01-07T00:00:00	2024-11-08T12:00:00	6	Velocidad del viento	8
158062	7	Sololá	719	Santiago Atitlán	14	Cerro de Oro	7	Julio	2023-01-07T00:00:00	2024-11-08T12:00:00	7	Dirección del viento	8.05
158063	7	Sololá	719	Santiago Atitlán	14	Cerro de Oro	7	Julio	2023-01-07T00:00:00	2024-11-08T12:00:00	1	Precipitación	0
158064	7	Sololá	719	Santiago Atitlán	14	Cerro de Oro	7	Julio	2023-01-07T00:00:00	2024-11-08T12:00:00	8	Radiación solar	897
158065	7	Sololá	719	Santiago Atitlán	14	Cerro de Oro	7	Julio	2023-01-07T00:00:00	2024-11-08T13:00:00	2	Temperatura media	25.1
158066	7	Sololá	719	Santiago Atitlán	14	Cerro de Oro	7	Julio	2023-01-07T00:00:00	2024-11-08T13:00:00	4	Temperatura máxima	25.8
158067	7	Sololá	719	Santiago Atitlán	14	Cerro de Oro	7	Julio	2023-01-07T00:00:00	2024-11-08T13:00:00	3	Temperatura mínima	24.8
158068	7	Sololá	719	Santiago Atitlán	14	Cerro de Oro	7	Julio	2023-01-07T00:00:00	2024-11-08T13:00:00	5	Humedad	72
158069	7	Sololá	719	Santiago Atitlán	14	Cerro de Oro	7	Julio	2023-01-07T00:00:00	2024-11-08T13:00:00	6	Velocidad del viento	12.9
158070	7	Sololá	719	Santiago Atitlán	14	Cerro de Oro	7	Julio	2023-01-07T00:00:00	2024-11-08T13:00:00	7	Dirección del viento	12.87
158071	7	Sololá	719	Santiago Atitlán	14	Cerro de Oro	7	Julio	2023-01-07T00:00:00	2024-11-08T13:00:00	1	Precipitación	0
158072	7	Sololá	719	Santiago Atitlán	14	Cerro de Oro	7	Julio	2023-01-07T00:00:00	2024-11-08T13:00:00	8	Radiación solar	981
158073	7	Sololá	719	Santiago Atitlán	14	Cerro de Oro	7	Julio	2023-01-07T00:00:00	2024-11-08T14:00:00	2	Temperatura media	23.6
158074	7	Sololá	719	Santiago Atitlán	14	Cerro de Oro	7	Julio	2023-01-07T00:00:00	2024-11-08T14:00:00	4	Temperatura máxima	25.3
158075	7	Sololá	719	Santiago Atitlán	14	Cerro de Oro	7	Julio	2023-01-07T00:00:00	2024-11-08T14:00:00	3	Temperatura mínima	23.4
158076	7	Sololá	719	Santiago Atitlán	14	Cerro de Oro	7	Julio	2023-01-07T00:00:00	2024-11-08T14:00:00	5	Humedad	80
158077	7	Sololá	719	Santiago Atitlán	14	Cerro de Oro	7	Julio	2023-01-07T00:00:00	2024-11-08T14:00:00	6	Velocidad del viento	12.9
158078	7	Sololá	719	Santiago Atitlán	14	Cerro de Oro	7	Julio	2023-01-07T00:00:00	2024-11-08T14:00:00	7	Dirección del viento	12.87
158079	7	Sololá	719	Santiago Atitlán	14	Cerro de Oro	7	Julio	2023-01-07T00:00:00	2024-11-08T14:00:00	1	Precipitación	0
158080	7	Sololá	719	Santiago Atitlán	14	Cerro de Oro	7	Julio	2023-01-07T00:00:00	2024-11-08T14:00:00	8	Radiación solar	550
158081	7	Sololá	719	Santiago Atitlán	14	Cerro de Oro	7	Julio	2023-01-07T00:00:00	2024-11-08T15:00:00	2	Temperatura media	19.6
158082	7	Sololá	719	Santiago Atitlán	14	Cerro de Oro	7	Julio	2023-01-07T00:00:00	2024-11-08T15:00:00	4	Temperatura máxima	23.8
158083	7	Sololá	719	Santiago Atitlán	14	Cerro de Oro	7	Julio	2023-01-07T00:00:00	2024-11-08T15:00:00	3	Temperatura mínima	19.6
158084	7	Sololá	719	Santiago Atitlán	14	Cerro de Oro	7	Julio	2023-01-07T00:00:00	2024-11-08T15:00:00	5	Humedad	85
158085	7	Sololá	719	Santiago Atitlán	14	Cerro de Oro	7	Julio	2023-01-07T00:00:00	2024-11-08T15:00:00	6	Velocidad del viento	12.9
158086	7	Sololá	719	Santiago Atitlán	14	Cerro de Oro	7	Julio	2023-01-07T00:00:00	2024-11-08T15:00:00	7	Dirección del viento	12.87
158087	7	Sololá	719	Santiago Atitlán	14	Cerro de Oro	7	Julio	2023-01-07T00:00:00	2024-11-08T15:00:00	1	Precipitación	0
158088	7	Sololá	719	Santiago Atitlán	14	Cerro de Oro	7	Julio	2023-01-07T00:00:00	2024-11-08T15:00:00	8	Radiación solar	207
158089	7	Sololá	719	Santiago Atitlán	14	Cerro de Oro	7	Julio	2023-01-07T00:00:00	2024-11-08T16:00:00	2	Temperatura media	17.1
158090	7	Sololá	719	Santiago Atitlán	14	Cerro de Oro	7	Julio	2023-01-07T00:00:00	2024-11-08T16:00:00	4	Temperatura máxima	19.6
158091	7	Sololá	719	Santiago Atitlán	14	Cerro de Oro	7	Julio	2023-01-07T00:00:00	2024-11-08T16:00:00	3	Temperatura mínima	17.1
158092	7	Sololá	719	Santiago Atitlán	14	Cerro de Oro	7	Julio	2023-01-07T00:00:00	2024-11-08T16:00:00	5	Humedad	92
158093	7	Sololá	719	Santiago Atitlán	14	Cerro de Oro	7	Julio	2023-01-07T00:00:00	2024-11-08T16:00:00	6	Velocidad del viento	9.7
158094	7	Sololá	719	Santiago Atitlán	14	Cerro de Oro	7	Julio	2023-01-07T00:00:00	2024-11-08T16:00:00	7	Dirección del viento	9.66
158095	7	Sololá	719	Santiago Atitlán	14	Cerro de Oro	7	Julio	2023-01-07T00:00:00	2024-11-08T16:00:00	1	Precipitación	4.2
158096	7	Sololá	719	Santiago Atitlán	14	Cerro de Oro	7	Julio	2023-01-07T00:00:00	2024-11-08T16:00:00	8	Radiación solar	18
158097	7	Sololá	719	Santiago Atitlán	14	Cerro de Oro	7	Julio	2023-01-07T00:00:00	2024-11-08T17:00:00	2	Temperatura media	16.8
158098	7	Sololá	719	Santiago Atitlán	14	Cerro de Oro	7	Julio	2023-01-07T00:00:00	2024-11-08T17:00:00	4	Temperatura máxima	17.1
158099	7	Sololá	719	Santiago Atitlán	14	Cerro de Oro	7	Julio	2023-01-07T00:00:00	2024-11-08T17:00:00	3	Temperatura mínima	16.4
158100	7	Sololá	719	Santiago Atitlán	14	Cerro de Oro	7	Julio	2023-01-07T00:00:00	2024-11-08T17:00:00	5	Humedad	90
158101	7	Sololá	719	Santiago Atitlán	14	Cerro de Oro	7	Julio	2023-01-07T00:00:00	2024-11-08T17:00:00	6	Velocidad del viento	6.4
158102	7	Sololá	719	Santiago Atitlán	14	Cerro de Oro	7	Julio	2023-01-07T00:00:00	2024-11-08T17:00:00	7	Dirección del viento	6.44
158103	7	Sololá	719	Santiago Atitlán	14	Cerro de Oro	7	Julio	2023-01-07T00:00:00	2024-11-08T17:00:00	1	Precipitación	3.6
158104	7	Sololá	719	Santiago Atitlán	14	Cerro de Oro	7	Julio	2023-01-07T00:00:00	2024-11-08T17:00:00	8	Radiación solar	11
158105	7	Sololá	719	Santiago Atitlán	14	Cerro de Oro	7	Julio	2023-01-07T00:00:00	2024-11-08T18:00:00	2	Temperatura media	15.9
158106	7	Sololá	719	Santiago Atitlán	14	Cerro de Oro	7	Julio	2023-01-07T00:00:00	2024-11-08T18:00:00	4	Temperatura máxima	17.4
158107	7	Sololá	719	Santiago Atitlán	14	Cerro de Oro	7	Julio	2023-01-07T00:00:00	2024-11-08T18:00:00	3	Temperatura mínima	15.4
158108	7	Sololá	719	Santiago Atitlán	14	Cerro de Oro	7	Julio	2023-01-07T00:00:00	2024-11-08T18:00:00	5	Humedad	91
158109	7	Sololá	719	Santiago Atitlán	14	Cerro de Oro	7	Julio	2023-01-07T00:00:00	2024-11-08T18:00:00	6	Velocidad del viento	9.7
158110	7	Sololá	719	Santiago Atitlán	14	Cerro de Oro	7	Julio	2023-01-07T00:00:00	2024-11-08T18:00:00	7	Dirección del viento	9.66
158111	7	Sololá	719	Santiago Atitlán	14	Cerro de Oro	7	Julio	2023-01-07T00:00:00	2024-11-08T18:00:00	1	Precipitación	18.6
158112	7	Sololá	719	Santiago Atitlán	14	Cerro de Oro	7	Julio	2023-01-07T00:00:00	2024-11-08T18:00:00	8	Radiación solar	0
158113	7	Sololá	719	Santiago Atitlán	14	Cerro de Oro	7	Julio	2023-01-07T00:00:00	2024-11-08T19:00:00	2	Temperatura media	16.1
158114	7	Sololá	719	Santiago Atitlán	14	Cerro de Oro	7	Julio	2023-01-07T00:00:00	2024-11-08T19:00:00	4	Temperatura máxima	16.2
158115	7	Sololá	719	Santiago Atitlán	14	Cerro de Oro	7	Julio	2023-01-07T00:00:00	2024-11-08T19:00:00	3	Temperatura mínima	15.8
158116	7	Sololá	719	Santiago Atitlán	14	Cerro de Oro	7	Julio	2023-01-07T00:00:00	2024-11-08T19:00:00	5	Humedad	92
158117	7	Sololá	719	Santiago Atitlán	14	Cerro de Oro	7	Julio	2023-01-07T00:00:00	2024-11-08T19:00:00	6	Velocidad del viento	4.8
158118	7	Sololá	719	Santiago Atitlán	14	Cerro de Oro	7	Julio	2023-01-07T00:00:00	2024-11-08T19:00:00	7	Dirección del viento	4.83
158119	7	Sololá	719	Santiago Atitlán	14	Cerro de Oro	7	Julio	2023-01-07T00:00:00	2024-11-08T19:00:00	1	Precipitación	1.4
158120	7	Sololá	719	Santiago Atitlán	14	Cerro de Oro	7	Julio	2023-01-07T00:00:00	2024-11-08T19:00:00	8	Radiación solar	0
158121	7	Sololá	719	Santiago Atitlán	14	Cerro de Oro	7	Julio	2023-01-07T00:00:00	2024-11-08T20:00:00	2	Temperatura media	16.9
158122	7	Sololá	719	Santiago Atitlán	14	Cerro de Oro	7	Julio	2023-01-07T00:00:00	2024-11-08T20:00:00	4	Temperatura máxima	16.9
158123	7	Sololá	719	Santiago Atitlán	14	Cerro de Oro	7	Julio	2023-01-07T00:00:00	2024-11-08T20:00:00	3	Temperatura mínima	15.9
158124	7	Sololá	719	Santiago Atitlán	14	Cerro de Oro	7	Julio	2023-01-07T00:00:00	2024-11-08T20:00:00	5	Humedad	88
158125	7	Sololá	719	Santiago Atitlán	14	Cerro de Oro	7	Julio	2023-01-07T00:00:00	2024-11-08T20:00:00	6	Velocidad del viento	6.4
158126	7	Sololá	719	Santiago Atitlán	14	Cerro de Oro	7	Julio	2023-01-07T00:00:00	2024-11-08T20:00:00	7	Dirección del viento	6.44
158127	7	Sololá	719	Santiago Atitlán	14	Cerro de Oro	7	Julio	2023-01-07T00:00:00	2024-11-08T20:00:00	1	Precipitación	0
158128	7	Sololá	719	Santiago Atitlán	14	Cerro de Oro	7	Julio	2023-01-07T00:00:00	2024-11-08T20:00:00	8	Radiación solar	0
158129	7	Sololá	719	Santiago Atitlán	14	Cerro de Oro	7	Julio	2023-01-07T00:00:00	2024-11-08T21:00:00	2	Temperatura media	17.5
158130	7	Sololá	719	Santiago Atitlán	14	Cerro de Oro	7	Julio	2023-01-07T00:00:00	2024-11-08T21:00:00	4	Temperatura máxima	17.7
158131	7	Sololá	719	Santiago Atitlán	14	Cerro de Oro	7	Julio	2023-01-07T00:00:00	2024-11-08T21:00:00	3	Temperatura mínima	16.9
158132	7	Sololá	719	Santiago Atitlán	14	Cerro de Oro	7	Julio	2023-01-07T00:00:00	2024-11-08T21:00:00	5	Humedad	89
158133	7	Sololá	719	Santiago Atitlán	14	Cerro de Oro	7	Julio	2023-01-07T00:00:00	2024-11-08T21:00:00	6	Velocidad del viento	4.8
158134	7	Sololá	719	Santiago Atitlán	14	Cerro de Oro	7	Julio	2023-01-07T00:00:00	2024-11-08T21:00:00	7	Dirección del viento	4.83
158135	7	Sololá	719	Santiago Atitlán	14	Cerro de Oro	7	Julio	2023-01-07T00:00:00	2024-11-08T21:00:00	1	Precipitación	0
158136	7	Sololá	719	Santiago Atitlán	14	Cerro de Oro	7	Julio	2023-01-07T00:00:00	2024-11-08T21:00:00	8	Radiación solar	0
158137	7	Sololá	719	Santiago Atitlán	14	Cerro de Oro	7	Julio	2023-01-07T00:00:00	2024-11-08T22:00:00	2	Temperatura media	17.6
158138	7	Sololá	719	Santiago Atitlán	14	Cerro de Oro	7	Julio	2023-01-07T00:00:00	2024-11-08T22:00:00	4	Temperatura máxima	18.5
158139	7	Sololá	719	Santiago Atitlán	14	Cerro de Oro	7	Julio	2023-01-07T00:00:00	2024-11-08T22:00:00	3	Temperatura mínima	17.4
158140	7	Sololá	719	Santiago Atitlán	14	Cerro de Oro	7	Julio	2023-01-07T00:00:00	2024-11-08T22:00:00	5	Humedad	88
158141	7	Sololá	719	Santiago Atitlán	14	Cerro de Oro	7	Julio	2023-01-07T00:00:00	2024-11-08T22:00:00	6	Velocidad del viento	4.8
158142	7	Sololá	719	Santiago Atitlán	14	Cerro de Oro	7	Julio	2023-01-07T00:00:00	2024-11-08T22:00:00	7	Dirección del viento	4.83
158143	7	Sololá	719	Santiago Atitlán	14	Cerro de Oro	7	Julio	2023-01-07T00:00:00	2024-11-08T22:00:00	1	Precipitación	0
158144	7	Sololá	719	Santiago Atitlán	14	Cerro de Oro	7	Julio	2023-01-07T00:00:00	2024-11-08T22:00:00	8	Radiación solar	0
158145	7	Sololá	719	Santiago Atitlán	14	Cerro de Oro	7	Julio	2023-01-07T00:00:00	2024-11-08T23:00:00	2	Temperatura media	17.9
158146	7	Sololá	719	Santiago Atitlán	14	Cerro de Oro	7	Julio	2023-01-07T00:00:00	2024-11-08T23:00:00	4	Temperatura máxima	18.2
158147	7	Sololá	719	Santiago Atitlán	14	Cerro de Oro	7	Julio	2023-01-07T00:00:00	2024-11-08T23:00:00	3	Temperatura mínima	17.4
158148	7	Sololá	719	Santiago Atitlán	14	Cerro de Oro	7	Julio	2023-01-07T00:00:00	2024-11-08T23:00:00	5	Humedad	88
158149	7	Sololá	719	Santiago Atitlán	14	Cerro de Oro	7	Julio	2023-01-07T00:00:00	2024-11-08T23:00:00	6	Velocidad del viento	4.8
158150	7	Sololá	719	Santiago Atitlán	14	Cerro de Oro	7	Julio	2023-01-07T00:00:00	2024-11-08T23:00:00	7	Dirección del viento	4.83
158151	7	Sololá	719	Santiago Atitlán	14	Cerro de Oro	7	Julio	2023-01-07T00:00:00	2024-11-08T23:00:00	1	Precipitación	0
158152	7	Sololá	719	Santiago Atitlán	14	Cerro de Oro	7	Julio	2023-01-07T00:00:00	2024-11-08T23:00:00	8	Radiación solar	0
158153	7	Sololá	719	Santiago Atitlán	14	Cerro de Oro	7	Julio	2023-02-07T00:00:00	2024-11-08T00:00:00	2	Temperatura media	17.7
158154	7	Sololá	719	Santiago Atitlán	14	Cerro de Oro	7	Julio	2023-02-07T00:00:00	2024-11-08T00:00:00	4	Temperatura máxima	18.4
158155	7	Sololá	719	Santiago Atitlán	14	Cerro de Oro	7	Julio	2023-02-07T00:00:00	2024-11-08T00:00:00	3	Temperatura mínima	17.6
158156	7	Sololá	719	Santiago Atitlán	14	Cerro de Oro	7	Julio	2023-02-07T00:00:00	2024-11-08T00:00:00	5	Humedad	88
158157	7	Sololá	719	Santiago Atitlán	14	Cerro de Oro	7	Julio	2023-02-07T00:00:00	2024-11-08T00:00:00	6	Velocidad del viento	4.8
158158	7	Sololá	719	Santiago Atitlán	14	Cerro de Oro	7	Julio	2023-02-07T00:00:00	2024-11-08T00:00:00	7	Dirección del viento	4.83
158159	7	Sololá	719	Santiago Atitlán	14	Cerro de Oro	7	Julio	2023-02-07T00:00:00	2024-11-08T00:00:00	1	Precipitación	0
158160	7	Sololá	719	Santiago Atitlán	14	Cerro de Oro	7	Julio	2023-02-07T00:00:00	2024-11-08T00:00:00	8	Radiación solar	0
158161	7	Sololá	719	Santiago Atitlán	14	Cerro de Oro	7	Julio	2023-02-07T00:00:00	2024-11-08T01:00:00	2	Temperatura media	17.9
158162	7	Sololá	719	Santiago Atitlán	14	Cerro de Oro	7	Julio	2023-02-07T00:00:00	2024-11-08T01:00:00	4	Temperatura máxima	18.1
158163	7	Sololá	719	Santiago Atitlán	14	Cerro de Oro	7	Julio	2023-02-07T00:00:00	2024-11-08T01:00:00	3	Temperatura mínima	17.3
158164	7	Sololá	719	Santiago Atitlán	14	Cerro de Oro	7	Julio	2023-02-07T00:00:00	2024-11-08T01:00:00	5	Humedad	88
158165	7	Sololá	719	Santiago Atitlán	14	Cerro de Oro	7	Julio	2023-02-07T00:00:00	2024-11-08T01:00:00	6	Velocidad del viento	4.8
158166	7	Sololá	719	Santiago Atitlán	14	Cerro de Oro	7	Julio	2023-02-07T00:00:00	2024-11-08T01:00:00	7	Dirección del viento	4.83
158167	7	Sololá	719	Santiago Atitlán	14	Cerro de Oro	7	Julio	2023-02-07T00:00:00	2024-11-08T01:00:00	1	Precipitación	0
158168	7	Sololá	719	Santiago Atitlán	14	Cerro de Oro	7	Julio	2023-02-07T00:00:00	2024-11-08T01:00:00	8	Radiación solar	0
158169	7	Sololá	719	Santiago Atitlán	14	Cerro de Oro	7	Julio	2023-02-07T00:00:00	2024-11-08T02:00:00	2	Temperatura media	17.6
158170	7	Sololá	719	Santiago Atitlán	14	Cerro de Oro	7	Julio	2023-02-07T00:00:00	2024-11-08T02:00:00	4	Temperatura máxima	18.1
158171	7	Sololá	719	Santiago Atitlán	14	Cerro de Oro	7	Julio	2023-02-07T00:00:00	2024-11-08T02:00:00	3	Temperatura mínima	17.5
158172	7	Sololá	719	Santiago Atitlán	14	Cerro de Oro	7	Julio	2023-02-07T00:00:00	2024-11-08T02:00:00	5	Humedad	88
158173	7	Sololá	719	Santiago Atitlán	14	Cerro de Oro	7	Julio	2023-02-07T00:00:00	2024-11-08T02:00:00	6	Velocidad del viento	4.8
158174	7	Sololá	719	Santiago Atitlán	14	Cerro de Oro	7	Julio	2023-02-07T00:00:00	2024-11-08T02:00:00	7	Dirección del viento	4.83
158175	7	Sololá	719	Santiago Atitlán	14	Cerro de Oro	7	Julio	2023-02-07T00:00:00	2024-11-08T02:00:00	1	Precipitación	0
158176	7	Sololá	719	Santiago Atitlán	14	Cerro de Oro	7	Julio	2023-02-07T00:00:00	2024-11-08T02:00:00	8	Radiación solar	0
158177	7	Sololá	719	Santiago Atitlán	14	Cerro de Oro	7	Julio	2023-02-07T00:00:00	2024-11-08T03:00:00	2	Temperatura media	17.7
158178	7	Sololá	719	Santiago Atitlán	14	Cerro de Oro	7	Julio	2023-02-07T00:00:00	2024-11-08T03:00:00	4	Temperatura máxima	18.1
158179	7	Sololá	719	Santiago Atitlán	14	Cerro de Oro	7	Julio	2023-02-07T00:00:00	2024-11-08T03:00:00	3	Temperatura mínima	17.6
158180	7	Sololá	719	Santiago Atitlán	14	Cerro de Oro	7	Julio	2023-02-07T00:00:00	2024-11-08T03:00:00	5	Humedad	87
158181	7	Sololá	719	Santiago Atitlán	14	Cerro de Oro	7	Julio	2023-02-07T00:00:00	2024-11-08T03:00:00	6	Velocidad del viento	3.2
158182	7	Sololá	719	Santiago Atitlán	14	Cerro de Oro	7	Julio	2023-02-07T00:00:00	2024-11-08T03:00:00	7	Dirección del viento	3.22
158183	7	Sololá	719	Santiago Atitlán	14	Cerro de Oro	7	Julio	2023-02-07T00:00:00	2024-11-08T03:00:00	1	Precipitación	0
158184	7	Sololá	719	Santiago Atitlán	14	Cerro de Oro	7	Julio	2023-02-07T00:00:00	2024-11-08T03:00:00	8	Radiación solar	0
158185	7	Sololá	719	Santiago Atitlán	14	Cerro de Oro	7	Julio	2023-02-07T00:00:00	2024-11-08T04:00:00	2	Temperatura media	16.8
158186	7	Sololá	719	Santiago Atitlán	14	Cerro de Oro	7	Julio	2023-02-07T00:00:00	2024-11-08T04:00:00	4	Temperatura máxima	17.8
158187	7	Sololá	719	Santiago Atitlán	14	Cerro de Oro	7	Julio	2023-02-07T00:00:00	2024-11-08T04:00:00	3	Temperatura mínima	16.8
158188	7	Sololá	719	Santiago Atitlán	14	Cerro de Oro	7	Julio	2023-02-07T00:00:00	2024-11-08T04:00:00	5	Humedad	88
158189	7	Sololá	719	Santiago Atitlán	14	Cerro de Oro	7	Julio	2023-02-07T00:00:00	2024-11-08T04:00:00	6	Velocidad del viento	3.2
158190	7	Sololá	719	Santiago Atitlán	14	Cerro de Oro	7	Julio	2023-02-07T00:00:00	2024-11-08T04:00:00	7	Dirección del viento	3.22
158191	7	Sololá	719	Santiago Atitlán	14	Cerro de Oro	7	Julio	2023-02-07T00:00:00	2024-11-08T04:00:00	1	Precipitación	0
158192	7	Sololá	719	Santiago Atitlán	14	Cerro de Oro	7	Julio	2023-02-07T00:00:00	2024-11-08T04:00:00	8	Radiación solar	0
158193	7	Sololá	719	Santiago Atitlán	14	Cerro de Oro	7	Julio	2023-02-07T00:00:00	2024-11-08T05:00:00	2	Temperatura media	17.9
158194	7	Sololá	719	Santiago Atitlán	14	Cerro de Oro	7	Julio	2023-02-07T00:00:00	2024-11-08T05:00:00	4	Temperatura máxima	18.1
158195	7	Sololá	719	Santiago Atitlán	14	Cerro de Oro	7	Julio	2023-02-07T00:00:00	2024-11-08T05:00:00	3	Temperatura mínima	16.7
158196	7	Sololá	719	Santiago Atitlán	14	Cerro de Oro	7	Julio	2023-02-07T00:00:00	2024-11-08T05:00:00	5	Humedad	79
158197	7	Sololá	719	Santiago Atitlán	14	Cerro de Oro	7	Julio	2023-02-07T00:00:00	2024-11-08T05:00:00	6	Velocidad del viento	6.4
158198	7	Sololá	719	Santiago Atitlán	14	Cerro de Oro	7	Julio	2023-02-07T00:00:00	2024-11-08T05:00:00	7	Dirección del viento	6.44
158199	7	Sololá	719	Santiago Atitlán	14	Cerro de Oro	7	Julio	2023-02-07T00:00:00	2024-11-08T05:00:00	1	Precipitación	0
158200	7	Sololá	719	Santiago Atitlán	14	Cerro de Oro	7	Julio	2023-02-07T00:00:00	2024-11-08T05:00:00	8	Radiación solar	0
158201	7	Sololá	719	Santiago Atitlán	14	Cerro de Oro	7	Julio	2023-02-07T00:00:00	2024-11-08T06:00:00	2	Temperatura media	17.9
158202	7	Sololá	719	Santiago Atitlán	14	Cerro de Oro	7	Julio	2023-02-07T00:00:00	2024-11-08T06:00:00	4	Temperatura máxima	18.2
158203	7	Sololá	719	Santiago Atitlán	14	Cerro de Oro	7	Julio	2023-02-07T00:00:00	2024-11-08T06:00:00	3	Temperatura mínima	17.6
158204	7	Sololá	719	Santiago Atitlán	14	Cerro de Oro	7	Julio	2023-02-07T00:00:00	2024-11-08T06:00:00	5	Humedad	78
158205	7	Sololá	719	Santiago Atitlán	14	Cerro de Oro	7	Julio	2023-02-07T00:00:00	2024-11-08T06:00:00	6	Velocidad del viento	3.2
158206	7	Sololá	719	Santiago Atitlán	14	Cerro de Oro	7	Julio	2023-02-07T00:00:00	2024-11-08T06:00:00	7	Dirección del viento	3.22
158207	7	Sololá	719	Santiago Atitlán	14	Cerro de Oro	7	Julio	2023-02-07T00:00:00	2024-11-08T06:00:00	1	Precipitación	0
158208	7	Sololá	719	Santiago Atitlán	14	Cerro de Oro	7	Julio	2023-02-07T00:00:00	2024-11-08T06:00:00	8	Radiación solar	6
158209	7	Sololá	719	Santiago Atitlán	14	Cerro de Oro	7	Julio	2023-02-07T00:00:00	2024-11-08T07:00:00	2	Temperatura media	18.9
158210	7	Sololá	719	Santiago Atitlán	14	Cerro de Oro	7	Julio	2023-02-07T00:00:00	2024-11-08T07:00:00	4	Temperatura máxima	19
158211	7	Sololá	719	Santiago Atitlán	14	Cerro de Oro	7	Julio	2023-02-07T00:00:00	2024-11-08T07:00:00	3	Temperatura mínima	17.9
158212	7	Sololá	719	Santiago Atitlán	14	Cerro de Oro	7	Julio	2023-02-07T00:00:00	2024-11-08T07:00:00	5	Humedad	81
158213	7	Sololá	719	Santiago Atitlán	14	Cerro de Oro	7	Julio	2023-02-07T00:00:00	2024-11-08T07:00:00	6	Velocidad del viento	4.8
158214	7	Sololá	719	Santiago Atitlán	14	Cerro de Oro	7	Julio	2023-02-07T00:00:00	2024-11-08T07:00:00	7	Dirección del viento	4.83
158215	7	Sololá	719	Santiago Atitlán	14	Cerro de Oro	7	Julio	2023-02-07T00:00:00	2024-11-08T07:00:00	1	Precipitación	0
158216	7	Sololá	719	Santiago Atitlán	14	Cerro de Oro	7	Julio	2023-02-07T00:00:00	2024-11-08T07:00:00	8	Radiación solar	72
158217	7	Sololá	719	Santiago Atitlán	14	Cerro de Oro	7	Julio	2023-02-07T00:00:00	2024-11-08T08:00:00	2	Temperatura media	20.2
158218	7	Sololá	719	Santiago Atitlán	14	Cerro de Oro	7	Julio	2023-02-07T00:00:00	2024-11-08T08:00:00	4	Temperatura máxima	20.2
158219	7	Sololá	719	Santiago Atitlán	14	Cerro de Oro	7	Julio	2023-02-07T00:00:00	2024-11-08T08:00:00	3	Temperatura mínima	18.8
158220	7	Sololá	719	Santiago Atitlán	14	Cerro de Oro	7	Julio	2023-02-07T00:00:00	2024-11-08T08:00:00	5	Humedad	79
158221	7	Sololá	719	Santiago Atitlán	14	Cerro de Oro	7	Julio	2023-02-07T00:00:00	2024-11-08T08:00:00	6	Velocidad del viento	3.2
158222	7	Sololá	719	Santiago Atitlán	14	Cerro de Oro	7	Julio	2023-02-07T00:00:00	2024-11-08T08:00:00	7	Dirección del viento	3.22
158223	7	Sololá	719	Santiago Atitlán	14	Cerro de Oro	7	Julio	2023-02-07T00:00:00	2024-11-08T08:00:00	1	Precipitación	0
158224	7	Sololá	719	Santiago Atitlán	14	Cerro de Oro	7	Julio	2023-02-07T00:00:00	2024-11-08T08:00:00	8	Radiación solar	181
158225	7	Sololá	719	Santiago Atitlán	14	Cerro de Oro	7	Julio	2023-02-07T00:00:00	2024-11-08T09:00:00	2	Temperatura media	21.6
158226	7	Sololá	719	Santiago Atitlán	14	Cerro de Oro	7	Julio	2023-02-07T00:00:00	2024-11-08T09:00:00	4	Temperatura máxima	21.6
158227	7	Sololá	719	Santiago Atitlán	14	Cerro de Oro	7	Julio	2023-02-07T00:00:00	2024-11-08T09:00:00	3	Temperatura mínima	20.2
158228	7	Sololá	719	Santiago Atitlán	14	Cerro de Oro	7	Julio	2023-02-07T00:00:00	2024-11-08T09:00:00	5	Humedad	76
158229	7	Sololá	719	Santiago Atitlán	14	Cerro de Oro	7	Julio	2023-02-07T00:00:00	2024-11-08T09:00:00	6	Velocidad del viento	3.2
158230	7	Sololá	719	Santiago Atitlán	14	Cerro de Oro	7	Julio	2023-02-07T00:00:00	2024-11-08T09:00:00	7	Dirección del viento	3.22
158231	7	Sololá	719	Santiago Atitlán	14	Cerro de Oro	7	Julio	2023-02-07T00:00:00	2024-11-08T09:00:00	1	Precipitación	0
158232	7	Sololá	719	Santiago Atitlán	14	Cerro de Oro	7	Julio	2023-02-07T00:00:00	2024-11-08T09:00:00	8	Radiación solar	394
158233	7	Sololá	719	Santiago Atitlán	14	Cerro de Oro	7	Julio	2023-02-07T00:00:00	2024-11-08T10:00:00	2	Temperatura media	22.2
158234	7	Sololá	719	Santiago Atitlán	14	Cerro de Oro	7	Julio	2023-02-07T00:00:00	2024-11-08T10:00:00	4	Temperatura máxima	22.3
158235	7	Sololá	719	Santiago Atitlán	14	Cerro de Oro	7	Julio	2023-02-07T00:00:00	2024-11-08T10:00:00	3	Temperatura mínima	21.1
158236	7	Sololá	719	Santiago Atitlán	14	Cerro de Oro	7	Julio	2023-02-07T00:00:00	2024-11-08T10:00:00	5	Humedad	72
158237	7	Sololá	719	Santiago Atitlán	14	Cerro de Oro	7	Julio	2023-02-07T00:00:00	2024-11-08T10:00:00	6	Velocidad del viento	9.7
158238	7	Sololá	719	Santiago Atitlán	14	Cerro de Oro	7	Julio	2023-02-07T00:00:00	2024-11-08T10:00:00	7	Dirección del viento	9.66
158239	7	Sololá	719	Santiago Atitlán	14	Cerro de Oro	7	Julio	2023-02-07T00:00:00	2024-11-08T10:00:00	1	Precipitación	0
158240	7	Sololá	719	Santiago Atitlán	14	Cerro de Oro	7	Julio	2023-02-07T00:00:00	2024-11-08T10:00:00	8	Radiación solar	559
158241	7	Sololá	719	Santiago Atitlán	14	Cerro de Oro	7	Julio	2023-02-07T00:00:00	2024-11-08T11:00:00	2	Temperatura media	22.8
158242	7	Sololá	719	Santiago Atitlán	14	Cerro de Oro	7	Julio	2023-02-07T00:00:00	2024-11-08T11:00:00	4	Temperatura máxima	23.8
158243	7	Sololá	719	Santiago Atitlán	14	Cerro de Oro	7	Julio	2023-02-07T00:00:00	2024-11-08T11:00:00	3	Temperatura mínima	22.2
158244	7	Sololá	719	Santiago Atitlán	14	Cerro de Oro	7	Julio	2023-02-07T00:00:00	2024-11-08T11:00:00	5	Humedad	75
158245	7	Sololá	719	Santiago Atitlán	14	Cerro de Oro	7	Julio	2023-02-07T00:00:00	2024-11-08T11:00:00	6	Velocidad del viento	6.4
158246	7	Sololá	719	Santiago Atitlán	14	Cerro de Oro	7	Julio	2023-02-07T00:00:00	2024-11-08T11:00:00	7	Dirección del viento	6.44
158247	7	Sololá	719	Santiago Atitlán	14	Cerro de Oro	7	Julio	2023-02-07T00:00:00	2024-11-08T11:00:00	1	Precipitación	0
158248	7	Sololá	719	Santiago Atitlán	14	Cerro de Oro	7	Julio	2023-02-07T00:00:00	2024-11-08T11:00:00	8	Radiación solar	668
158249	7	Sololá	719	Santiago Atitlán	14	Cerro de Oro	7	Julio	2023-02-07T00:00:00	2024-11-08T12:00:00	2	Temperatura media	20.3
158250	7	Sololá	719	Santiago Atitlán	14	Cerro de Oro	7	Julio	2023-02-07T00:00:00	2024-11-08T12:00:00	4	Temperatura máxima	22.7
158251	7	Sololá	719	Santiago Atitlán	14	Cerro de Oro	7	Julio	2023-02-07T00:00:00	2024-11-08T12:00:00	3	Temperatura mínima	20.3
158252	7	Sololá	719	Santiago Atitlán	14	Cerro de Oro	7	Julio	2023-02-07T00:00:00	2024-11-08T12:00:00	5	Humedad	83
158253	7	Sololá	719	Santiago Atitlán	14	Cerro de Oro	7	Julio	2023-02-07T00:00:00	2024-11-08T12:00:00	6	Velocidad del viento	11.3
158254	7	Sololá	719	Santiago Atitlán	14	Cerro de Oro	7	Julio	2023-02-07T00:00:00	2024-11-08T12:00:00	7	Dirección del viento	11.27
158255	7	Sololá	719	Santiago Atitlán	14	Cerro de Oro	7	Julio	2023-02-07T00:00:00	2024-11-08T12:00:00	1	Precipitación	0
158256	7	Sololá	719	Santiago Atitlán	14	Cerro de Oro	7	Julio	2023-02-07T00:00:00	2024-11-08T12:00:00	8	Radiación solar	335
158257	7	Sololá	719	Santiago Atitlán	14	Cerro de Oro	7	Julio	2023-02-07T00:00:00	2024-11-08T13:00:00	2	Temperatura media	20.7
158258	7	Sololá	719	Santiago Atitlán	14	Cerro de Oro	7	Julio	2023-02-07T00:00:00	2024-11-08T13:00:00	4	Temperatura máxima	20.7
158259	7	Sololá	719	Santiago Atitlán	14	Cerro de Oro	7	Julio	2023-02-07T00:00:00	2024-11-08T13:00:00	3	Temperatura mínima	19.9
158260	7	Sololá	719	Santiago Atitlán	14	Cerro de Oro	7	Julio	2023-02-07T00:00:00	2024-11-08T13:00:00	5	Humedad	83
158261	7	Sololá	719	Santiago Atitlán	14	Cerro de Oro	7	Julio	2023-02-07T00:00:00	2024-11-08T13:00:00	6	Velocidad del viento	9.7
158262	7	Sololá	719	Santiago Atitlán	14	Cerro de Oro	7	Julio	2023-02-07T00:00:00	2024-11-08T13:00:00	7	Dirección del viento	9.66
158263	7	Sololá	719	Santiago Atitlán	14	Cerro de Oro	7	Julio	2023-02-07T00:00:00	2024-11-08T13:00:00	1	Precipitación	0
158264	7	Sololá	719	Santiago Atitlán	14	Cerro de Oro	7	Julio	2023-02-07T00:00:00	2024-11-08T13:00:00	8	Radiación solar	347
158265	7	Sololá	719	Santiago Atitlán	14	Cerro de Oro	7	Julio	2023-02-07T00:00:00	2024-11-08T14:00:00	2	Temperatura media	19.8
158266	7	Sololá	719	Santiago Atitlán	14	Cerro de Oro	7	Julio	2023-02-07T00:00:00	2024-11-08T14:00:00	4	Temperatura máxima	21.3
158267	7	Sololá	719	Santiago Atitlán	14	Cerro de Oro	7	Julio	2023-02-07T00:00:00	2024-11-08T14:00:00	3	Temperatura mínima	19.8
158268	7	Sololá	719	Santiago Atitlán	14	Cerro de Oro	7	Julio	2023-02-07T00:00:00	2024-11-08T14:00:00	5	Humedad	85
158269	7	Sololá	719	Santiago Atitlán	14	Cerro de Oro	7	Julio	2023-02-07T00:00:00	2024-11-08T14:00:00	6	Velocidad del viento	9.7
158270	7	Sololá	719	Santiago Atitlán	14	Cerro de Oro	7	Julio	2023-02-07T00:00:00	2024-11-08T14:00:00	7	Dirección del viento	9.66
158271	7	Sololá	719	Santiago Atitlán	14	Cerro de Oro	7	Julio	2023-02-07T00:00:00	2024-11-08T14:00:00	1	Precipitación	0
158272	7	Sololá	719	Santiago Atitlán	14	Cerro de Oro	7	Julio	2023-02-07T00:00:00	2024-11-08T14:00:00	8	Radiación solar	342
158273	7	Sololá	719	Santiago Atitlán	14	Cerro de Oro	7	Julio	2023-02-07T00:00:00	2024-11-08T15:00:00	2	Temperatura media	20.7
158274	7	Sololá	719	Santiago Atitlán	14	Cerro de Oro	7	Julio	2023-02-07T00:00:00	2024-11-08T15:00:00	4	Temperatura máxima	20.7
158275	7	Sololá	719	Santiago Atitlán	14	Cerro de Oro	7	Julio	2023-02-07T00:00:00	2024-11-08T15:00:00	3	Temperatura mínima	19.4
158276	7	Sololá	719	Santiago Atitlán	14	Cerro de Oro	7	Julio	2023-02-07T00:00:00	2024-11-08T15:00:00	5	Humedad	81
158277	7	Sololá	719	Santiago Atitlán	14	Cerro de Oro	7	Julio	2023-02-07T00:00:00	2024-11-08T15:00:00	6	Velocidad del viento	9.7
158278	7	Sololá	719	Santiago Atitlán	14	Cerro de Oro	7	Julio	2023-02-07T00:00:00	2024-11-08T15:00:00	7	Dirección del viento	9.66
158279	7	Sololá	719	Santiago Atitlán	14	Cerro de Oro	7	Julio	2023-02-07T00:00:00	2024-11-08T15:00:00	1	Precipitación	0
158280	7	Sololá	719	Santiago Atitlán	14	Cerro de Oro	7	Julio	2023-02-07T00:00:00	2024-11-08T15:00:00	8	Radiación solar	325
158281	7	Sololá	719	Santiago Atitlán	14	Cerro de Oro	7	Julio	2023-02-07T00:00:00	2024-11-08T16:00:00	2	Temperatura media	21.1
158282	7	Sololá	719	Santiago Atitlán	14	Cerro de Oro	7	Julio	2023-02-07T00:00:00	2024-11-08T16:00:00	4	Temperatura máxima	21.2
158283	7	Sololá	719	Santiago Atitlán	14	Cerro de Oro	7	Julio	2023-02-07T00:00:00	2024-11-08T16:00:00	3	Temperatura mínima	20.4
158284	7	Sololá	719	Santiago Atitlán	14	Cerro de Oro	7	Julio	2023-02-07T00:00:00	2024-11-08T16:00:00	5	Humedad	78
158285	7	Sololá	719	Santiago Atitlán	14	Cerro de Oro	7	Julio	2023-02-07T00:00:00	2024-11-08T16:00:00	6	Velocidad del viento	4.8
158286	7	Sololá	719	Santiago Atitlán	14	Cerro de Oro	7	Julio	2023-02-07T00:00:00	2024-11-08T16:00:00	7	Dirección del viento	4.83
158287	7	Sololá	719	Santiago Atitlán	14	Cerro de Oro	7	Julio	2023-02-07T00:00:00	2024-11-08T16:00:00	1	Precipitación	0
158288	7	Sololá	719	Santiago Atitlán	14	Cerro de Oro	7	Julio	2023-02-07T00:00:00	2024-11-08T16:00:00	8	Radiación solar	285
158289	7	Sololá	719	Santiago Atitlán	14	Cerro de Oro	7	Julio	2023-02-07T00:00:00	2024-11-08T17:00:00	2	Temperatura media	19.6
158290	7	Sololá	719	Santiago Atitlán	14	Cerro de Oro	7	Julio	2023-02-07T00:00:00	2024-11-08T17:00:00	4	Temperatura máxima	21.1
158291	7	Sololá	719	Santiago Atitlán	14	Cerro de Oro	7	Julio	2023-02-07T00:00:00	2024-11-08T17:00:00	3	Temperatura mínima	19.5
158292	7	Sololá	719	Santiago Atitlán	14	Cerro de Oro	7	Julio	2023-02-07T00:00:00	2024-11-08T17:00:00	5	Humedad	84
158293	7	Sololá	719	Santiago Atitlán	14	Cerro de Oro	7	Julio	2023-02-07T00:00:00	2024-11-08T17:00:00	6	Velocidad del viento	4.8
158294	7	Sololá	719	Santiago Atitlán	14	Cerro de Oro	7	Julio	2023-02-07T00:00:00	2024-11-08T17:00:00	7	Dirección del viento	4.83
158295	7	Sololá	719	Santiago Atitlán	14	Cerro de Oro	7	Julio	2023-02-07T00:00:00	2024-11-08T17:00:00	1	Precipitación	0
158296	7	Sololá	719	Santiago Atitlán	14	Cerro de Oro	7	Julio	2023-02-07T00:00:00	2024-11-08T17:00:00	8	Radiación solar	156
158297	7	Sololá	719	Santiago Atitlán	14	Cerro de Oro	7	Julio	2023-02-07T00:00:00	2024-11-08T18:00:00	2	Temperatura media	18.9
158298	7	Sololá	719	Santiago Atitlán	14	Cerro de Oro	7	Julio	2023-02-07T00:00:00	2024-11-08T18:00:00	4	Temperatura máxima	19.6
158299	7	Sololá	719	Santiago Atitlán	14	Cerro de Oro	7	Julio	2023-02-07T00:00:00	2024-11-08T18:00:00	3	Temperatura mínima	18.9
158300	7	Sololá	719	Santiago Atitlán	14	Cerro de Oro	7	Julio	2023-02-07T00:00:00	2024-11-08T18:00:00	5	Humedad	86
158301	7	Sololá	719	Santiago Atitlán	14	Cerro de Oro	7	Julio	2023-02-07T00:00:00	2024-11-08T18:00:00	6	Velocidad del viento	6.4
158302	7	Sololá	719	Santiago Atitlán	14	Cerro de Oro	7	Julio	2023-02-07T00:00:00	2024-11-08T18:00:00	7	Dirección del viento	6.44
158303	7	Sololá	719	Santiago Atitlán	14	Cerro de Oro	7	Julio	2023-02-07T00:00:00	2024-11-08T18:00:00	1	Precipitación	0
158304	7	Sololá	719	Santiago Atitlán	14	Cerro de Oro	7	Julio	2023-02-07T00:00:00	2024-11-08T18:00:00	8	Radiación solar	22
158305	7	Sololá	719	Santiago Atitlán	14	Cerro de Oro	7	Julio	2023-02-07T00:00:00	2024-11-08T19:00:00	2	Temperatura media	17.8
158306	7	Sololá	719	Santiago Atitlán	14	Cerro de Oro	7	Julio	2023-02-07T00:00:00	2024-11-08T19:00:00	4	Temperatura máxima	19.1
158307	7	Sololá	719	Santiago Atitlán	14	Cerro de Oro	7	Julio	2023-02-07T00:00:00	2024-11-08T19:00:00	3	Temperatura mínima	17.8
158308	7	Sololá	719	Santiago Atitlán	14	Cerro de Oro	7	Julio	2023-02-07T00:00:00	2024-11-08T19:00:00	5	Humedad	92
158309	7	Sololá	719	Santiago Atitlán	14	Cerro de Oro	7	Julio	2023-02-07T00:00:00	2024-11-08T19:00:00	6	Velocidad del viento	9.7
158310	7	Sololá	719	Santiago Atitlán	14	Cerro de Oro	7	Julio	2023-02-07T00:00:00	2024-11-08T19:00:00	7	Dirección del viento	9.66
158311	7	Sololá	719	Santiago Atitlán	14	Cerro de Oro	7	Julio	2023-02-07T00:00:00	2024-11-08T19:00:00	1	Precipitación	0
158312	7	Sololá	719	Santiago Atitlán	14	Cerro de Oro	7	Julio	2023-02-07T00:00:00	2024-11-08T19:00:00	8	Radiación solar	0
158313	7	Sololá	719	Santiago Atitlán	14	Cerro de Oro	7	Julio	2023-02-07T00:00:00	2024-11-08T20:00:00	2	Temperatura media	17.9
158314	7	Sololá	719	Santiago Atitlán	14	Cerro de Oro	7	Julio	2023-02-07T00:00:00	2024-11-08T20:00:00	4	Temperatura máxima	17.9
158315	7	Sololá	719	Santiago Atitlán	14	Cerro de Oro	7	Julio	2023-02-07T00:00:00	2024-11-08T20:00:00	3	Temperatura mínima	17.4
158316	7	Sololá	719	Santiago Atitlán	14	Cerro de Oro	7	Julio	2023-02-07T00:00:00	2024-11-08T20:00:00	5	Humedad	92
158317	7	Sololá	719	Santiago Atitlán	14	Cerro de Oro	7	Julio	2023-02-07T00:00:00	2024-11-08T20:00:00	6	Velocidad del viento	6.4
158318	7	Sololá	719	Santiago Atitlán	14	Cerro de Oro	7	Julio	2023-02-07T00:00:00	2024-11-08T20:00:00	7	Dirección del viento	6.44
158319	7	Sololá	719	Santiago Atitlán	14	Cerro de Oro	7	Julio	2023-02-07T00:00:00	2024-11-08T20:00:00	1	Precipitación	0
158320	7	Sololá	719	Santiago Atitlán	14	Cerro de Oro	7	Julio	2023-02-07T00:00:00	2024-11-08T20:00:00	8	Radiación solar	0
158321	7	Sololá	719	Santiago Atitlán	14	Cerro de Oro	7	Julio	2023-02-07T00:00:00	2024-11-08T21:00:00	2	Temperatura media	18.4
158322	7	Sololá	719	Santiago Atitlán	14	Cerro de Oro	7	Julio	2023-02-07T00:00:00	2024-11-08T21:00:00	4	Temperatura máxima	18.4
158323	7	Sololá	719	Santiago Atitlán	14	Cerro de Oro	7	Julio	2023-02-07T00:00:00	2024-11-08T21:00:00	3	Temperatura mínima	17.8
158324	7	Sololá	719	Santiago Atitlán	14	Cerro de Oro	7	Julio	2023-02-07T00:00:00	2024-11-08T21:00:00	5	Humedad	89
158325	7	Sololá	719	Santiago Atitlán	14	Cerro de Oro	7	Julio	2023-02-07T00:00:00	2024-11-08T21:00:00	6	Velocidad del viento	3.2
158326	7	Sololá	719	Santiago Atitlán	14	Cerro de Oro	7	Julio	2023-02-07T00:00:00	2024-11-08T21:00:00	7	Dirección del viento	3.22
158327	7	Sololá	719	Santiago Atitlán	14	Cerro de Oro	7	Julio	2023-02-07T00:00:00	2024-11-08T21:00:00	1	Precipitación	0
158328	7	Sololá	719	Santiago Atitlán	14	Cerro de Oro	7	Julio	2023-02-07T00:00:00	2024-11-08T21:00:00	8	Radiación solar	0
158329	7	Sololá	719	Santiago Atitlán	14	Cerro de Oro	7	Julio	2023-02-07T00:00:00	2024-11-08T22:00:00	2	Temperatura media	18.3
158330	7	Sololá	719	Santiago Atitlán	14	Cerro de Oro	7	Julio	2023-02-07T00:00:00	2024-11-08T22:00:00	4	Temperatura máxima	18.4
158331	7	Sololá	719	Santiago Atitlán	14	Cerro de Oro	7	Julio	2023-02-07T00:00:00	2024-11-08T22:00:00	3	Temperatura mínima	18.1
158332	7	Sololá	719	Santiago Atitlán	14	Cerro de Oro	7	Julio	2023-02-07T00:00:00	2024-11-08T22:00:00	5	Humedad	86
158333	7	Sololá	719	Santiago Atitlán	14	Cerro de Oro	7	Julio	2023-02-07T00:00:00	2024-11-08T22:00:00	6	Velocidad del viento	3.2
158334	7	Sololá	719	Santiago Atitlán	14	Cerro de Oro	7	Julio	2023-02-07T00:00:00	2024-11-08T22:00:00	7	Dirección del viento	3.22
158335	7	Sololá	719	Santiago Atitlán	14	Cerro de Oro	7	Julio	2023-02-07T00:00:00	2024-11-08T22:00:00	1	Precipitación	0
158336	7	Sololá	719	Santiago Atitlán	14	Cerro de Oro	7	Julio	2023-02-07T00:00:00	2024-11-08T22:00:00	8	Radiación solar	0
158337	7	Sololá	719	Santiago Atitlán	14	Cerro de Oro	7	Julio	2023-02-07T00:00:00	2024-11-08T23:00:00	2	Temperatura media	18.6
158338	7	Sololá	719	Santiago Atitlán	14	Cerro de Oro	7	Julio	2023-02-07T00:00:00	2024-11-08T23:00:00	4	Temperatura máxima	18.6
158339	7	Sololá	719	Santiago Atitlán	14	Cerro de Oro	7	Julio	2023-02-07T00:00:00	2024-11-08T23:00:00	3	Temperatura mínima	18.2
158340	7	Sololá	719	Santiago Atitlán	14	Cerro de Oro	7	Julio	2023-02-07T00:00:00	2024-11-08T23:00:00	5	Humedad	87
158341	7	Sololá	719	Santiago Atitlán	14	Cerro de Oro	7	Julio	2023-02-07T00:00:00	2024-11-08T23:00:00	6	Velocidad del viento	3.2
158342	7	Sololá	719	Santiago Atitlán	14	Cerro de Oro	7	Julio	2023-02-07T00:00:00	2024-11-08T23:00:00	7	Dirección del viento	3.22
158343	7	Sololá	719	Santiago Atitlán	14	Cerro de Oro	7	Julio	2023-02-07T00:00:00	2024-11-08T23:00:00	1	Precipitación	0
158344	7	Sololá	719	Santiago Atitlán	14	Cerro de Oro	7	Julio	2023-02-07T00:00:00	2024-11-08T23:00:00	8	Radiación solar	0
158345	7	Sololá	719	Santiago Atitlán	14	Cerro de Oro	7	Julio	2023-03-07T00:00:00	2024-11-08T00:00:00	2	Temperatura media	19.1
158346	7	Sololá	719	Santiago Atitlán	14	Cerro de Oro	7	Julio	2023-03-07T00:00:00	2024-11-08T00:00:00	4	Temperatura máxima	19.1
158347	7	Sololá	719	Santiago Atitlán	14	Cerro de Oro	7	Julio	2023-03-07T00:00:00	2024-11-08T00:00:00	3	Temperatura mínima	18.5
158348	7	Sololá	719	Santiago Atitlán	14	Cerro de Oro	7	Julio	2023-03-07T00:00:00	2024-11-08T00:00:00	5	Humedad	84
158349	7	Sololá	719	Santiago Atitlán	14	Cerro de Oro	7	Julio	2023-03-07T00:00:00	2024-11-08T00:00:00	6	Velocidad del viento	4.8
158350	7	Sololá	719	Santiago Atitlán	14	Cerro de Oro	7	Julio	2023-03-07T00:00:00	2024-11-08T00:00:00	7	Dirección del viento	4.83
158351	7	Sololá	719	Santiago Atitlán	14	Cerro de Oro	7	Julio	2023-03-07T00:00:00	2024-11-08T00:00:00	1	Precipitación	0
158352	7	Sololá	719	Santiago Atitlán	14	Cerro de Oro	7	Julio	2023-03-07T00:00:00	2024-11-08T00:00:00	8	Radiación solar	0
158353	7	Sololá	719	Santiago Atitlán	14	Cerro de Oro	7	Julio	2023-03-07T00:00:00	2024-11-08T01:00:00	2	Temperatura media	18.8
158354	7	Sololá	719	Santiago Atitlán	14	Cerro de Oro	7	Julio	2023-03-07T00:00:00	2024-11-08T01:00:00	4	Temperatura máxima	19.3
158355	7	Sololá	719	Santiago Atitlán	14	Cerro de Oro	7	Julio	2023-03-07T00:00:00	2024-11-08T01:00:00	3	Temperatura mínima	18.8
158356	7	Sololá	719	Santiago Atitlán	14	Cerro de Oro	7	Julio	2023-03-07T00:00:00	2024-11-08T01:00:00	5	Humedad	86
158357	7	Sololá	719	Santiago Atitlán	14	Cerro de Oro	7	Julio	2023-03-07T00:00:00	2024-11-08T01:00:00	6	Velocidad del viento	3.2
158358	7	Sololá	719	Santiago Atitlán	14	Cerro de Oro	7	Julio	2023-03-07T00:00:00	2024-11-08T01:00:00	7	Dirección del viento	3.22
158359	7	Sololá	719	Santiago Atitlán	14	Cerro de Oro	7	Julio	2023-03-07T00:00:00	2024-11-08T01:00:00	1	Precipitación	0
158360	7	Sololá	719	Santiago Atitlán	14	Cerro de Oro	7	Julio	2023-03-07T00:00:00	2024-11-08T01:00:00	8	Radiación solar	0
158361	7	Sololá	719	Santiago Atitlán	14	Cerro de Oro	7	Julio	2023-03-07T00:00:00	2024-11-08T02:00:00	2	Temperatura media	19.3
158362	7	Sololá	719	Santiago Atitlán	14	Cerro de Oro	7	Julio	2023-03-07T00:00:00	2024-11-08T02:00:00	4	Temperatura máxima	19.3
158363	7	Sololá	719	Santiago Atitlán	14	Cerro de Oro	7	Julio	2023-03-07T00:00:00	2024-11-08T02:00:00	3	Temperatura mínima	18.7
158364	7	Sololá	719	Santiago Atitlán	14	Cerro de Oro	7	Julio	2023-03-07T00:00:00	2024-11-08T02:00:00	5	Humedad	82
158365	7	Sololá	719	Santiago Atitlán	14	Cerro de Oro	7	Julio	2023-03-07T00:00:00	2024-11-08T02:00:00	6	Velocidad del viento	3.2
158366	7	Sololá	719	Santiago Atitlán	14	Cerro de Oro	7	Julio	2023-03-07T00:00:00	2024-11-08T02:00:00	7	Dirección del viento	3.22
158367	7	Sololá	719	Santiago Atitlán	14	Cerro de Oro	7	Julio	2023-03-07T00:00:00	2024-11-08T02:00:00	1	Precipitación	0
158368	7	Sololá	719	Santiago Atitlán	14	Cerro de Oro	7	Julio	2023-03-07T00:00:00	2024-11-08T02:00:00	8	Radiación solar	0
158369	7	Sololá	719	Santiago Atitlán	14	Cerro de Oro	7	Julio	2023-03-07T00:00:00	2024-11-08T03:00:00	2	Temperatura media	18.7
158370	7	Sololá	719	Santiago Atitlán	14	Cerro de Oro	7	Julio	2023-03-07T00:00:00	2024-11-08T03:00:00	4	Temperatura máxima	19.3
158371	7	Sololá	719	Santiago Atitlán	14	Cerro de Oro	7	Julio	2023-03-07T00:00:00	2024-11-08T03:00:00	3	Temperatura mínima	18.7
158372	7	Sololá	719	Santiago Atitlán	14	Cerro de Oro	7	Julio	2023-03-07T00:00:00	2024-11-08T03:00:00	5	Humedad	87
158373	7	Sololá	719	Santiago Atitlán	14	Cerro de Oro	7	Julio	2023-03-07T00:00:00	2024-11-08T03:00:00	6	Velocidad del viento	3.2
158374	7	Sololá	719	Santiago Atitlán	14	Cerro de Oro	7	Julio	2023-03-07T00:00:00	2024-11-08T03:00:00	7	Dirección del viento	3.22
158375	7	Sololá	719	Santiago Atitlán	14	Cerro de Oro	7	Julio	2023-03-07T00:00:00	2024-11-08T03:00:00	1	Precipitación	0
158376	7	Sololá	719	Santiago Atitlán	14	Cerro de Oro	7	Julio	2023-03-07T00:00:00	2024-11-08T03:00:00	8	Radiación solar	0
158377	7	Sololá	719	Santiago Atitlán	14	Cerro de Oro	7	Julio	2023-03-07T00:00:00	2024-11-08T04:00:00	2	Temperatura media	18.2
158378	7	Sololá	719	Santiago Atitlán	14	Cerro de Oro	7	Julio	2023-03-07T00:00:00	2024-11-08T04:00:00	4	Temperatura máxima	18.8
158379	7	Sololá	719	Santiago Atitlán	14	Cerro de Oro	7	Julio	2023-03-07T00:00:00	2024-11-08T04:00:00	3	Temperatura mínima	18.2
158380	7	Sololá	719	Santiago Atitlán	14	Cerro de Oro	7	Julio	2023-03-07T00:00:00	2024-11-08T04:00:00	5	Humedad	88
158381	7	Sololá	719	Santiago Atitlán	14	Cerro de Oro	7	Julio	2023-03-07T00:00:00	2024-11-08T04:00:00	6	Velocidad del viento	3.2
158382	7	Sololá	719	Santiago Atitlán	14	Cerro de Oro	7	Julio	2023-03-07T00:00:00	2024-11-08T04:00:00	7	Dirección del viento	3.22
158383	7	Sololá	719	Santiago Atitlán	14	Cerro de Oro	7	Julio	2023-03-07T00:00:00	2024-11-08T04:00:00	1	Precipitación	0
158384	7	Sololá	719	Santiago Atitlán	14	Cerro de Oro	7	Julio	2023-03-07T00:00:00	2024-11-08T04:00:00	8	Radiación solar	0
158385	7	Sololá	719	Santiago Atitlán	14	Cerro de Oro	7	Julio	2023-03-07T00:00:00	2024-11-08T05:00:00	2	Temperatura media	17.8
158386	7	Sololá	719	Santiago Atitlán	14	Cerro de Oro	7	Julio	2023-03-07T00:00:00	2024-11-08T05:00:00	4	Temperatura máxima	18.2
158387	7	Sololá	719	Santiago Atitlán	14	Cerro de Oro	7	Julio	2023-03-07T00:00:00	2024-11-08T05:00:00	3	Temperatura mínima	17.8
158388	7	Sololá	719	Santiago Atitlán	14	Cerro de Oro	7	Julio	2023-03-07T00:00:00	2024-11-08T05:00:00	5	Humedad	88
158389	7	Sololá	719	Santiago Atitlán	14	Cerro de Oro	7	Julio	2023-03-07T00:00:00	2024-11-08T05:00:00	6	Velocidad del viento	3.2
158390	7	Sololá	719	Santiago Atitlán	14	Cerro de Oro	7	Julio	2023-03-07T00:00:00	2024-11-08T05:00:00	7	Dirección del viento	3.22
158391	7	Sololá	719	Santiago Atitlán	14	Cerro de Oro	7	Julio	2023-03-07T00:00:00	2024-11-08T05:00:00	1	Precipitación	0
158392	7	Sololá	719	Santiago Atitlán	14	Cerro de Oro	7	Julio	2023-03-07T00:00:00	2024-11-08T05:00:00	8	Radiación solar	0
158393	7	Sololá	719	Santiago Atitlán	14	Cerro de Oro	7	Julio	2023-03-07T00:00:00	2024-11-08T06:00:00	2	Temperatura media	17.6
158394	7	Sololá	719	Santiago Atitlán	14	Cerro de Oro	7	Julio	2023-03-07T00:00:00	2024-11-08T06:00:00	4	Temperatura máxima	18.3
158395	7	Sololá	719	Santiago Atitlán	14	Cerro de Oro	7	Julio	2023-03-07T00:00:00	2024-11-08T06:00:00	3	Temperatura mínima	17.6
158396	7	Sololá	719	Santiago Atitlán	14	Cerro de Oro	7	Julio	2023-03-07T00:00:00	2024-11-08T06:00:00	5	Humedad	92
158397	7	Sololá	719	Santiago Atitlán	14	Cerro de Oro	7	Julio	2023-03-07T00:00:00	2024-11-08T06:00:00	6	Velocidad del viento	4.8
158398	7	Sololá	719	Santiago Atitlán	14	Cerro de Oro	7	Julio	2023-03-07T00:00:00	2024-11-08T06:00:00	7	Dirección del viento	4.83
158399	7	Sololá	719	Santiago Atitlán	14	Cerro de Oro	7	Julio	2023-03-07T00:00:00	2024-11-08T06:00:00	1	Precipitación	0
158400	7	Sololá	719	Santiago Atitlán	14	Cerro de Oro	7	Julio	2023-03-07T00:00:00	2024-11-08T06:00:00	8	Radiación solar	1
158401	7	Sololá	719	Santiago Atitlán	14	Cerro de Oro	7	Julio	2023-03-07T00:00:00	2024-11-08T07:00:00	2	Temperatura media	18
158402	7	Sololá	719	Santiago Atitlán	14	Cerro de Oro	7	Julio	2023-03-07T00:00:00	2024-11-08T07:00:00	4	Temperatura máxima	18
158403	7	Sololá	719	Santiago Atitlán	14	Cerro de Oro	7	Julio	2023-03-07T00:00:00	2024-11-08T07:00:00	3	Temperatura mínima	17.5
158404	7	Sololá	719	Santiago Atitlán	14	Cerro de Oro	7	Julio	2023-03-07T00:00:00	2024-11-08T07:00:00	5	Humedad	91
158405	7	Sololá	719	Santiago Atitlán	14	Cerro de Oro	7	Julio	2023-03-07T00:00:00	2024-11-08T07:00:00	6	Velocidad del viento	3.2
158406	7	Sololá	719	Santiago Atitlán	14	Cerro de Oro	7	Julio	2023-03-07T00:00:00	2024-11-08T07:00:00	7	Dirección del viento	3.22
158407	7	Sololá	719	Santiago Atitlán	14	Cerro de Oro	7	Julio	2023-03-07T00:00:00	2024-11-08T07:00:00	1	Precipitación	0
158408	7	Sololá	719	Santiago Atitlán	14	Cerro de Oro	7	Julio	2023-03-07T00:00:00	2024-11-08T07:00:00	8	Radiación solar	27
158409	7	Sololá	719	Santiago Atitlán	14	Cerro de Oro	7	Julio	2023-03-07T00:00:00	2024-11-08T08:00:00	2	Temperatura media	21
158410	7	Sololá	719	Santiago Atitlán	14	Cerro de Oro	7	Julio	2023-03-07T00:00:00	2024-11-08T08:00:00	4	Temperatura máxima	21.3
158411	7	Sololá	719	Santiago Atitlán	14	Cerro de Oro	7	Julio	2023-03-07T00:00:00	2024-11-08T08:00:00	3	Temperatura mínima	18
158412	7	Sololá	719	Santiago Atitlán	14	Cerro de Oro	7	Julio	2023-03-07T00:00:00	2024-11-08T08:00:00	5	Humedad	79
158413	7	Sololá	719	Santiago Atitlán	14	Cerro de Oro	7	Julio	2023-03-07T00:00:00	2024-11-08T08:00:00	6	Velocidad del viento	1.6
158414	7	Sololá	719	Santiago Atitlán	14	Cerro de Oro	7	Julio	2023-03-07T00:00:00	2024-11-08T08:00:00	7	Dirección del viento	1.61
158415	7	Sololá	719	Santiago Atitlán	14	Cerro de Oro	7	Julio	2023-03-07T00:00:00	2024-11-08T08:00:00	1	Precipitación	0
158416	7	Sololá	719	Santiago Atitlán	14	Cerro de Oro	7	Julio	2023-03-07T00:00:00	2024-11-08T08:00:00	8	Radiación solar	264
158417	7	Sololá	719	Santiago Atitlán	14	Cerro de Oro	7	Julio	2023-03-07T00:00:00	2024-11-08T09:00:00	2	Temperatura media	21.2
158418	7	Sololá	719	Santiago Atitlán	14	Cerro de Oro	7	Julio	2023-03-07T00:00:00	2024-11-08T09:00:00	4	Temperatura máxima	21.6
158419	7	Sololá	719	Santiago Atitlán	14	Cerro de Oro	7	Julio	2023-03-07T00:00:00	2024-11-08T09:00:00	3	Temperatura mínima	20.8
158420	7	Sololá	719	Santiago Atitlán	14	Cerro de Oro	7	Julio	2023-03-07T00:00:00	2024-11-08T09:00:00	5	Humedad	81
158421	7	Sololá	719	Santiago Atitlán	14	Cerro de Oro	7	Julio	2023-03-07T00:00:00	2024-11-08T09:00:00	6	Velocidad del viento	4.8
158422	7	Sololá	719	Santiago Atitlán	14	Cerro de Oro	7	Julio	2023-03-07T00:00:00	2024-11-08T09:00:00	7	Dirección del viento	4.83
158423	7	Sololá	719	Santiago Atitlán	14	Cerro de Oro	7	Julio	2023-03-07T00:00:00	2024-11-08T09:00:00	1	Precipitación	0
158424	7	Sololá	719	Santiago Atitlán	14	Cerro de Oro	7	Julio	2023-03-07T00:00:00	2024-11-08T09:00:00	8	Radiación solar	458
158425	7	Sololá	719	Santiago Atitlán	14	Cerro de Oro	7	Julio	2023-03-07T00:00:00	2024-11-08T10:00:00	2	Temperatura media	21.1
158426	7	Sololá	719	Santiago Atitlán	14	Cerro de Oro	7	Julio	2023-03-07T00:00:00	2024-11-08T10:00:00	4	Temperatura máxima	21.2
158427	7	Sololá	719	Santiago Atitlán	14	Cerro de Oro	7	Julio	2023-03-07T00:00:00	2024-11-08T10:00:00	3	Temperatura mínima	20.8
158428	7	Sololá	719	Santiago Atitlán	14	Cerro de Oro	7	Julio	2023-03-07T00:00:00	2024-11-08T10:00:00	5	Humedad	83
158429	7	Sololá	719	Santiago Atitlán	14	Cerro de Oro	7	Julio	2023-03-07T00:00:00	2024-11-08T10:00:00	6	Velocidad del viento	6.4
158430	7	Sololá	719	Santiago Atitlán	14	Cerro de Oro	7	Julio	2023-03-07T00:00:00	2024-11-08T10:00:00	7	Dirección del viento	6.44
158431	7	Sololá	719	Santiago Atitlán	14	Cerro de Oro	7	Julio	2023-03-07T00:00:00	2024-11-08T10:00:00	1	Precipitación	0
158432	7	Sololá	719	Santiago Atitlán	14	Cerro de Oro	7	Julio	2023-03-07T00:00:00	2024-11-08T10:00:00	8	Radiación solar	335
158433	7	Sololá	719	Santiago Atitlán	14	Cerro de Oro	7	Julio	2023-03-07T00:00:00	2024-11-08T11:00:00	2	Temperatura media	21.4
158434	7	Sololá	719	Santiago Atitlán	14	Cerro de Oro	7	Julio	2023-03-07T00:00:00	2024-11-08T11:00:00	4	Temperatura máxima	21.8
158435	7	Sololá	719	Santiago Atitlán	14	Cerro de Oro	7	Julio	2023-03-07T00:00:00	2024-11-08T11:00:00	3	Temperatura mínima	21
158436	7	Sololá	719	Santiago Atitlán	14	Cerro de Oro	7	Julio	2023-03-07T00:00:00	2024-11-08T11:00:00	5	Humedad	81
158437	7	Sololá	719	Santiago Atitlán	14	Cerro de Oro	7	Julio	2023-03-07T00:00:00	2024-11-08T11:00:00	6	Velocidad del viento	9.7
158438	7	Sololá	719	Santiago Atitlán	14	Cerro de Oro	7	Julio	2023-03-07T00:00:00	2024-11-08T11:00:00	7	Dirección del viento	9.66
158439	7	Sololá	719	Santiago Atitlán	14	Cerro de Oro	7	Julio	2023-03-07T00:00:00	2024-11-08T11:00:00	1	Precipitación	0
158440	7	Sololá	719	Santiago Atitlán	14	Cerro de Oro	7	Julio	2023-03-07T00:00:00	2024-11-08T11:00:00	8	Radiación solar	430
158441	7	Sololá	719	Santiago Atitlán	14	Cerro de Oro	7	Julio	2023-03-07T00:00:00	2024-11-08T12:00:00	2	Temperatura media	22.7
158442	7	Sololá	719	Santiago Atitlán	14	Cerro de Oro	7	Julio	2023-03-07T00:00:00	2024-11-08T12:00:00	4	Temperatura máxima	22.7
158443	7	Sololá	719	Santiago Atitlán	14	Cerro de Oro	7	Julio	2023-03-07T00:00:00	2024-11-08T12:00:00	3	Temperatura mínima	21.3
158444	7	Sololá	719	Santiago Atitlán	14	Cerro de Oro	7	Julio	2023-03-07T00:00:00	2024-11-08T12:00:00	5	Humedad	77
158445	7	Sololá	719	Santiago Atitlán	14	Cerro de Oro	7	Julio	2023-03-07T00:00:00	2024-11-08T12:00:00	6	Velocidad del viento	11.3
158446	7	Sololá	719	Santiago Atitlán	14	Cerro de Oro	7	Julio	2023-03-07T00:00:00	2024-11-08T12:00:00	7	Dirección del viento	11.27
158447	7	Sololá	719	Santiago Atitlán	14	Cerro de Oro	7	Julio	2023-03-07T00:00:00	2024-11-08T12:00:00	1	Precipitación	0
158448	7	Sololá	719	Santiago Atitlán	14	Cerro de Oro	7	Julio	2023-03-07T00:00:00	2024-11-08T12:00:00	8	Radiación solar	918
158449	7	Sololá	719	Santiago Atitlán	14	Cerro de Oro	7	Julio	2023-03-07T00:00:00	2024-11-08T13:00:00	2	Temperatura media	22.5
158450	7	Sololá	719	Santiago Atitlán	14	Cerro de Oro	7	Julio	2023-03-07T00:00:00	2024-11-08T13:00:00	4	Temperatura máxima	23.3
158451	7	Sololá	719	Santiago Atitlán	14	Cerro de Oro	7	Julio	2023-03-07T00:00:00	2024-11-08T13:00:00	3	Temperatura mínima	22.3
158452	7	Sololá	719	Santiago Atitlán	14	Cerro de Oro	7	Julio	2023-03-07T00:00:00	2024-11-08T13:00:00	5	Humedad	78
158453	7	Sololá	719	Santiago Atitlán	14	Cerro de Oro	7	Julio	2023-03-07T00:00:00	2024-11-08T13:00:00	6	Velocidad del viento	6.4
158454	7	Sololá	719	Santiago Atitlán	14	Cerro de Oro	7	Julio	2023-03-07T00:00:00	2024-11-08T13:00:00	7	Dirección del viento	6.44
158455	7	Sololá	719	Santiago Atitlán	14	Cerro de Oro	7	Julio	2023-03-07T00:00:00	2024-11-08T13:00:00	1	Precipitación	0
158456	7	Sololá	719	Santiago Atitlán	14	Cerro de Oro	7	Julio	2023-03-07T00:00:00	2024-11-08T13:00:00	8	Radiación solar	440
158457	7	Sololá	719	Santiago Atitlán	14	Cerro de Oro	7	Julio	2023-03-07T00:00:00	2024-11-08T14:00:00	2	Temperatura media	22.5
158458	7	Sololá	719	Santiago Atitlán	14	Cerro de Oro	7	Julio	2023-03-07T00:00:00	2024-11-08T14:00:00	4	Temperatura máxima	23.6
158459	7	Sololá	719	Santiago Atitlán	14	Cerro de Oro	7	Julio	2023-03-07T00:00:00	2024-11-08T14:00:00	3	Temperatura mínima	22.5
158460	7	Sololá	719	Santiago Atitlán	14	Cerro de Oro	7	Julio	2023-03-07T00:00:00	2024-11-08T14:00:00	5	Humedad	80
158461	7	Sololá	719	Santiago Atitlán	14	Cerro de Oro	7	Julio	2023-03-07T00:00:00	2024-11-08T14:00:00	6	Velocidad del viento	9.7
158462	7	Sololá	719	Santiago Atitlán	14	Cerro de Oro	7	Julio	2023-03-07T00:00:00	2024-11-08T14:00:00	7	Dirección del viento	9.66
158463	7	Sololá	719	Santiago Atitlán	14	Cerro de Oro	7	Julio	2023-03-07T00:00:00	2024-11-08T14:00:00	1	Precipitación	0
158464	7	Sololá	719	Santiago Atitlán	14	Cerro de Oro	7	Julio	2023-03-07T00:00:00	2024-11-08T14:00:00	8	Radiación solar	527
158465	7	Sololá	719	Santiago Atitlán	14	Cerro de Oro	7	Julio	2023-03-07T00:00:00	2024-11-08T15:00:00	2	Temperatura media	20.8
158466	7	Sololá	719	Santiago Atitlán	14	Cerro de Oro	7	Julio	2023-03-07T00:00:00	2024-11-08T15:00:00	4	Temperatura máxima	22.6
158467	7	Sololá	719	Santiago Atitlán	14	Cerro de Oro	7	Julio	2023-03-07T00:00:00	2024-11-08T15:00:00	3	Temperatura mínima	20.7
158468	7	Sololá	719	Santiago Atitlán	14	Cerro de Oro	7	Julio	2023-03-07T00:00:00	2024-11-08T15:00:00	5	Humedad	87
158469	7	Sololá	719	Santiago Atitlán	14	Cerro de Oro	7	Julio	2023-03-07T00:00:00	2024-11-08T15:00:00	6	Velocidad del viento	8
158470	7	Sololá	719	Santiago Atitlán	14	Cerro de Oro	7	Julio	2023-03-07T00:00:00	2024-11-08T15:00:00	7	Dirección del viento	8.05
158471	7	Sololá	719	Santiago Atitlán	14	Cerro de Oro	7	Julio	2023-03-07T00:00:00	2024-11-08T15:00:00	1	Precipitación	0
158472	7	Sololá	719	Santiago Atitlán	14	Cerro de Oro	7	Julio	2023-03-07T00:00:00	2024-11-08T15:00:00	8	Radiación solar	155
158473	7	Sololá	719	Santiago Atitlán	14	Cerro de Oro	7	Julio	2023-03-07T00:00:00	2024-11-08T16:00:00	2	Temperatura media	21.3
158474	7	Sololá	719	Santiago Atitlán	14	Cerro de Oro	7	Julio	2023-03-07T00:00:00	2024-11-08T16:00:00	4	Temperatura máxima	21.7
158475	7	Sololá	719	Santiago Atitlán	14	Cerro de Oro	7	Julio	2023-03-07T00:00:00	2024-11-08T16:00:00	3	Temperatura mínima	20.8
158476	7	Sololá	719	Santiago Atitlán	14	Cerro de Oro	7	Julio	2023-03-07T00:00:00	2024-11-08T16:00:00	5	Humedad	85
158477	7	Sololá	719	Santiago Atitlán	14	Cerro de Oro	7	Julio	2023-03-07T00:00:00	2024-11-08T16:00:00	6	Velocidad del viento	6.4
158478	7	Sololá	719	Santiago Atitlán	14	Cerro de Oro	7	Julio	2023-03-07T00:00:00	2024-11-08T16:00:00	7	Dirección del viento	6.44
158479	7	Sololá	719	Santiago Atitlán	14	Cerro de Oro	7	Julio	2023-03-07T00:00:00	2024-11-08T16:00:00	1	Precipitación	0
158480	7	Sololá	719	Santiago Atitlán	14	Cerro de Oro	7	Julio	2023-03-07T00:00:00	2024-11-08T16:00:00	8	Radiación solar	289
158481	7	Sololá	719	Santiago Atitlán	14	Cerro de Oro	7	Julio	2023-03-07T00:00:00	2024-11-08T17:00:00	2	Temperatura media	20.7
158482	7	Sololá	719	Santiago Atitlán	14	Cerro de Oro	7	Julio	2023-03-07T00:00:00	2024-11-08T17:00:00	4	Temperatura máxima	21.3
158483	7	Sololá	719	Santiago Atitlán	14	Cerro de Oro	7	Julio	2023-03-07T00:00:00	2024-11-08T17:00:00	3	Temperatura mínima	20.4
158484	7	Sololá	719	Santiago Atitlán	14	Cerro de Oro	7	Julio	2023-03-07T00:00:00	2024-11-08T17:00:00	5	Humedad	85
158485	7	Sololá	719	Santiago Atitlán	14	Cerro de Oro	7	Julio	2023-03-07T00:00:00	2024-11-08T17:00:00	6	Velocidad del viento	4.8
158486	7	Sololá	719	Santiago Atitlán	14	Cerro de Oro	7	Julio	2023-03-07T00:00:00	2024-11-08T17:00:00	7	Dirección del viento	4.83
158487	7	Sololá	719	Santiago Atitlán	14	Cerro de Oro	7	Julio	2023-03-07T00:00:00	2024-11-08T17:00:00	1	Precipitación	0
158488	7	Sololá	719	Santiago Atitlán	14	Cerro de Oro	7	Julio	2023-03-07T00:00:00	2024-11-08T17:00:00	8	Radiación solar	77
158489	7	Sololá	719	Santiago Atitlán	14	Cerro de Oro	7	Julio	2023-03-07T00:00:00	2024-11-08T18:00:00	2	Temperatura media	20.1
158490	7	Sololá	719	Santiago Atitlán	14	Cerro de Oro	7	Julio	2023-03-07T00:00:00	2024-11-08T18:00:00	4	Temperatura máxima	20.7
158491	7	Sololá	719	Santiago Atitlán	14	Cerro de Oro	7	Julio	2023-03-07T00:00:00	2024-11-08T18:00:00	3	Temperatura mínima	20
158492	7	Sololá	719	Santiago Atitlán	14	Cerro de Oro	7	Julio	2023-03-07T00:00:00	2024-11-08T18:00:00	5	Humedad	89
158493	7	Sololá	719	Santiago Atitlán	14	Cerro de Oro	7	Julio	2023-03-07T00:00:00	2024-11-08T18:00:00	6	Velocidad del viento	3.2
158494	7	Sololá	719	Santiago Atitlán	14	Cerro de Oro	7	Julio	2023-03-07T00:00:00	2024-11-08T18:00:00	7	Dirección del viento	3.22
158495	7	Sololá	719	Santiago Atitlán	14	Cerro de Oro	7	Julio	2023-03-07T00:00:00	2024-11-08T18:00:00	1	Precipitación	0
158496	7	Sololá	719	Santiago Atitlán	14	Cerro de Oro	7	Julio	2023-03-07T00:00:00	2024-11-08T18:00:00	8	Radiación solar	15
158497	7	Sololá	719	Santiago Atitlán	14	Cerro de Oro	7	Julio	2023-03-07T00:00:00	2024-11-08T19:00:00	2	Temperatura media	18.6
158498	7	Sololá	719	Santiago Atitlán	14	Cerro de Oro	7	Julio	2023-03-07T00:00:00	2024-11-08T19:00:00	4	Temperatura máxima	20.1
158499	7	Sololá	719	Santiago Atitlán	14	Cerro de Oro	7	Julio	2023-03-07T00:00:00	2024-11-08T19:00:00	3	Temperatura mínima	18.5
158500	7	Sololá	719	Santiago Atitlán	14	Cerro de Oro	7	Julio	2023-03-07T00:00:00	2024-11-08T19:00:00	5	Humedad	92
158501	7	Sololá	719	Santiago Atitlán	14	Cerro de Oro	7	Julio	2023-03-07T00:00:00	2024-11-08T19:00:00	6	Velocidad del viento	4.8
158502	7	Sololá	719	Santiago Atitlán	14	Cerro de Oro	7	Julio	2023-03-07T00:00:00	2024-11-08T19:00:00	7	Dirección del viento	4.83
158503	7	Sololá	719	Santiago Atitlán	14	Cerro de Oro	7	Julio	2023-03-07T00:00:00	2024-11-08T19:00:00	1	Precipitación	6
158504	7	Sololá	719	Santiago Atitlán	14	Cerro de Oro	7	Julio	2023-03-07T00:00:00	2024-11-08T19:00:00	8	Radiación solar	0
158505	7	Sololá	719	Santiago Atitlán	14	Cerro de Oro	7	Julio	2023-03-07T00:00:00	2024-11-08T20:00:00	2	Temperatura media	18.1
158506	7	Sololá	719	Santiago Atitlán	14	Cerro de Oro	7	Julio	2023-03-07T00:00:00	2024-11-08T20:00:00	4	Temperatura máxima	18.6
158507	7	Sololá	719	Santiago Atitlán	14	Cerro de Oro	7	Julio	2023-03-07T00:00:00	2024-11-08T20:00:00	3	Temperatura mínima	17.9
158508	7	Sololá	719	Santiago Atitlán	14	Cerro de Oro	7	Julio	2023-03-07T00:00:00	2024-11-08T20:00:00	5	Humedad	92
158509	7	Sololá	719	Santiago Atitlán	14	Cerro de Oro	7	Julio	2023-03-07T00:00:00	2024-11-08T20:00:00	6	Velocidad del viento	9.7
158510	7	Sololá	719	Santiago Atitlán	14	Cerro de Oro	7	Julio	2023-03-07T00:00:00	2024-11-08T20:00:00	7	Dirección del viento	9.66
158511	7	Sololá	719	Santiago Atitlán	14	Cerro de Oro	7	Julio	2023-03-07T00:00:00	2024-11-08T20:00:00	1	Precipitación	8.6
158512	7	Sololá	719	Santiago Atitlán	14	Cerro de Oro	7	Julio	2023-03-07T00:00:00	2024-11-08T20:00:00	8	Radiación solar	0
158513	7	Sololá	719	Santiago Atitlán	14	Cerro de Oro	7	Julio	2023-03-07T00:00:00	2024-11-08T21:00:00	2	Temperatura media	17.6
158514	7	Sololá	719	Santiago Atitlán	14	Cerro de Oro	7	Julio	2023-03-07T00:00:00	2024-11-08T21:00:00	4	Temperatura máxima	18.1
158515	7	Sololá	719	Santiago Atitlán	14	Cerro de Oro	7	Julio	2023-03-07T00:00:00	2024-11-08T21:00:00	3	Temperatura mínima	17.6
158516	7	Sololá	719	Santiago Atitlán	14	Cerro de Oro	7	Julio	2023-03-07T00:00:00	2024-11-08T21:00:00	5	Humedad	93
158517	7	Sololá	719	Santiago Atitlán	14	Cerro de Oro	7	Julio	2023-03-07T00:00:00	2024-11-08T21:00:00	6	Velocidad del viento	6.4
158518	7	Sololá	719	Santiago Atitlán	14	Cerro de Oro	7	Julio	2023-03-07T00:00:00	2024-11-08T21:00:00	7	Dirección del viento	6.44
158519	7	Sololá	719	Santiago Atitlán	14	Cerro de Oro	7	Julio	2023-03-07T00:00:00	2024-11-08T21:00:00	1	Precipitación	5.4
158520	7	Sololá	719	Santiago Atitlán	14	Cerro de Oro	7	Julio	2023-03-07T00:00:00	2024-11-08T21:00:00	8	Radiación solar	0
158521	7	Sololá	719	Santiago Atitlán	14	Cerro de Oro	7	Julio	2023-03-07T00:00:00	2024-11-08T22:00:00	2	Temperatura media	17.2
158522	7	Sololá	719	Santiago Atitlán	14	Cerro de Oro	7	Julio	2023-03-07T00:00:00	2024-11-08T22:00:00	4	Temperatura máxima	17.6
158523	7	Sololá	719	Santiago Atitlán	14	Cerro de Oro	7	Julio	2023-03-07T00:00:00	2024-11-08T22:00:00	3	Temperatura mínima	17.2
158524	7	Sololá	719	Santiago Atitlán	14	Cerro de Oro	7	Julio	2023-03-07T00:00:00	2024-11-08T22:00:00	5	Humedad	94
158525	7	Sololá	719	Santiago Atitlán	14	Cerro de Oro	7	Julio	2023-03-07T00:00:00	2024-11-08T22:00:00	6	Velocidad del viento	3.2
158526	7	Sololá	719	Santiago Atitlán	14	Cerro de Oro	7	Julio	2023-03-07T00:00:00	2024-11-08T22:00:00	7	Dirección del viento	3.22
158527	7	Sololá	719	Santiago Atitlán	14	Cerro de Oro	7	Julio	2023-03-07T00:00:00	2024-11-08T22:00:00	1	Precipitación	5
158528	7	Sololá	719	Santiago Atitlán	14	Cerro de Oro	7	Julio	2023-03-07T00:00:00	2024-11-08T22:00:00	8	Radiación solar	0
158529	7	Sololá	719	Santiago Atitlán	14	Cerro de Oro	7	Julio	2023-03-07T00:00:00	2024-11-08T23:00:00	2	Temperatura media	17.7
158530	7	Sololá	719	Santiago Atitlán	14	Cerro de Oro	7	Julio	2023-03-07T00:00:00	2024-11-08T23:00:00	4	Temperatura máxima	17.7
158531	7	Sololá	719	Santiago Atitlán	14	Cerro de Oro	7	Julio	2023-03-07T00:00:00	2024-11-08T23:00:00	3	Temperatura mínima	17.1
158532	7	Sololá	719	Santiago Atitlán	14	Cerro de Oro	7	Julio	2023-03-07T00:00:00	2024-11-08T23:00:00	5	Humedad	93
158533	7	Sololá	719	Santiago Atitlán	14	Cerro de Oro	7	Julio	2023-03-07T00:00:00	2024-11-08T23:00:00	6	Velocidad del viento	4.8
158534	7	Sololá	719	Santiago Atitlán	14	Cerro de Oro	7	Julio	2023-03-07T00:00:00	2024-11-08T23:00:00	7	Dirección del viento	4.83
158535	7	Sololá	719	Santiago Atitlán	14	Cerro de Oro	7	Julio	2023-03-07T00:00:00	2024-11-08T23:00:00	1	Precipitación	0.2
158536	7	Sololá	719	Santiago Atitlán	14	Cerro de Oro	7	Julio	2023-03-07T00:00:00	2024-11-08T23:00:00	8	Radiación solar	0
158537	7	Sololá	719	Santiago Atitlán	14	Cerro de Oro	7	Julio	2023-04-07T00:00:00	2024-11-08T00:00:00	2	Temperatura media	17.9
158538	7	Sololá	719	Santiago Atitlán	14	Cerro de Oro	7	Julio	2023-04-07T00:00:00	2024-11-08T00:00:00	4	Temperatura máxima	17.9
158539	7	Sololá	719	Santiago Atitlán	14	Cerro de Oro	7	Julio	2023-04-07T00:00:00	2024-11-08T00:00:00	3	Temperatura mínima	17.7
158540	7	Sololá	719	Santiago Atitlán	14	Cerro de Oro	7	Julio	2023-04-07T00:00:00	2024-11-08T00:00:00	5	Humedad	91
158541	7	Sololá	719	Santiago Atitlán	14	Cerro de Oro	7	Julio	2023-04-07T00:00:00	2024-11-08T00:00:00	6	Velocidad del viento	6.4
158542	7	Sololá	719	Santiago Atitlán	14	Cerro de Oro	7	Julio	2023-04-07T00:00:00	2024-11-08T00:00:00	7	Dirección del viento	6.44
158543	7	Sololá	719	Santiago Atitlán	14	Cerro de Oro	7	Julio	2023-04-07T00:00:00	2024-11-08T00:00:00	1	Precipitación	0
158544	7	Sololá	719	Santiago Atitlán	14	Cerro de Oro	7	Julio	2023-04-07T00:00:00	2024-11-08T00:00:00	8	Radiación solar	0
158545	7	Sololá	719	Santiago Atitlán	14	Cerro de Oro	7	Julio	2023-04-07T00:00:00	2024-11-08T01:00:00	2	Temperatura media	17.7
158546	7	Sololá	719	Santiago Atitlán	14	Cerro de Oro	7	Julio	2023-04-07T00:00:00	2024-11-08T01:00:00	4	Temperatura máxima	18
158547	7	Sololá	719	Santiago Atitlán	14	Cerro de Oro	7	Julio	2023-04-07T00:00:00	2024-11-08T01:00:00	3	Temperatura mínima	17.7
158548	7	Sololá	719	Santiago Atitlán	14	Cerro de Oro	7	Julio	2023-04-07T00:00:00	2024-11-08T01:00:00	5	Humedad	92
158549	7	Sololá	719	Santiago Atitlán	14	Cerro de Oro	7	Julio	2023-04-07T00:00:00	2024-11-08T01:00:00	6	Velocidad del viento	4.8
158550	7	Sololá	719	Santiago Atitlán	14	Cerro de Oro	7	Julio	2023-04-07T00:00:00	2024-11-08T01:00:00	7	Dirección del viento	4.83
158551	7	Sololá	719	Santiago Atitlán	14	Cerro de Oro	7	Julio	2023-04-07T00:00:00	2024-11-08T01:00:00	1	Precipitación	0
158552	7	Sololá	719	Santiago Atitlán	14	Cerro de Oro	7	Julio	2023-04-07T00:00:00	2024-11-08T01:00:00	8	Radiación solar	0
158553	7	Sololá	719	Santiago Atitlán	14	Cerro de Oro	7	Julio	2023-04-07T00:00:00	2024-11-08T02:00:00	2	Temperatura media	17.7
158554	7	Sololá	719	Santiago Atitlán	14	Cerro de Oro	7	Julio	2023-04-07T00:00:00	2024-11-08T02:00:00	4	Temperatura máxima	17.8
158555	7	Sololá	719	Santiago Atitlán	14	Cerro de Oro	7	Julio	2023-04-07T00:00:00	2024-11-08T02:00:00	3	Temperatura mínima	17.6
158556	7	Sololá	719	Santiago Atitlán	14	Cerro de Oro	7	Julio	2023-04-07T00:00:00	2024-11-08T02:00:00	5	Humedad	92
158557	7	Sololá	719	Santiago Atitlán	14	Cerro de Oro	7	Julio	2023-04-07T00:00:00	2024-11-08T02:00:00	6	Velocidad del viento	1.6
158558	7	Sololá	719	Santiago Atitlán	14	Cerro de Oro	7	Julio	2023-04-07T00:00:00	2024-11-08T02:00:00	7	Dirección del viento	1.61
158559	7	Sololá	719	Santiago Atitlán	14	Cerro de Oro	7	Julio	2023-04-07T00:00:00	2024-11-08T02:00:00	1	Precipitación	0
158560	7	Sololá	719	Santiago Atitlán	14	Cerro de Oro	7	Julio	2023-04-07T00:00:00	2024-11-08T02:00:00	8	Radiación solar	0
158561	7	Sololá	719	Santiago Atitlán	14	Cerro de Oro	7	Julio	2023-04-07T00:00:00	2024-11-08T03:00:00	2	Temperatura media	17.9
158562	7	Sololá	719	Santiago Atitlán	14	Cerro de Oro	7	Julio	2023-04-07T00:00:00	2024-11-08T03:00:00	4	Temperatura máxima	17.9
158563	7	Sololá	719	Santiago Atitlán	14	Cerro de Oro	7	Julio	2023-04-07T00:00:00	2024-11-08T03:00:00	3	Temperatura mínima	17.4
158564	7	Sololá	719	Santiago Atitlán	14	Cerro de Oro	7	Julio	2023-04-07T00:00:00	2024-11-08T03:00:00	5	Humedad	91
158565	7	Sololá	719	Santiago Atitlán	14	Cerro de Oro	7	Julio	2023-04-07T00:00:00	2024-11-08T03:00:00	6	Velocidad del viento	4.8
158566	7	Sololá	719	Santiago Atitlán	14	Cerro de Oro	7	Julio	2023-04-07T00:00:00	2024-11-08T03:00:00	7	Dirección del viento	4.83
158567	7	Sololá	719	Santiago Atitlán	14	Cerro de Oro	7	Julio	2023-04-07T00:00:00	2024-11-08T03:00:00	1	Precipitación	0
158568	7	Sololá	719	Santiago Atitlán	14	Cerro de Oro	7	Julio	2023-04-07T00:00:00	2024-11-08T03:00:00	8	Radiación solar	0
158569	7	Sololá	719	Santiago Atitlán	14	Cerro de Oro	7	Julio	2023-04-07T00:00:00	2024-11-08T04:00:00	2	Temperatura media	17.6
158570	7	Sololá	719	Santiago Atitlán	14	Cerro de Oro	7	Julio	2023-04-07T00:00:00	2024-11-08T04:00:00	4	Temperatura máxima	18
158571	7	Sololá	719	Santiago Atitlán	14	Cerro de Oro	7	Julio	2023-04-07T00:00:00	2024-11-08T04:00:00	3	Temperatura mínima	17.4
158572	7	Sololá	719	Santiago Atitlán	14	Cerro de Oro	7	Julio	2023-04-07T00:00:00	2024-11-08T04:00:00	5	Humedad	90
158573	7	Sololá	719	Santiago Atitlán	14	Cerro de Oro	7	Julio	2023-04-07T00:00:00	2024-11-08T04:00:00	6	Velocidad del viento	4.8
158574	7	Sololá	719	Santiago Atitlán	14	Cerro de Oro	7	Julio	2023-04-07T00:00:00	2024-11-08T04:00:00	7	Dirección del viento	4.83
158575	7	Sololá	719	Santiago Atitlán	14	Cerro de Oro	7	Julio	2023-04-07T00:00:00	2024-11-08T04:00:00	1	Precipitación	0
158576	7	Sololá	719	Santiago Atitlán	14	Cerro de Oro	7	Julio	2023-04-07T00:00:00	2024-11-08T04:00:00	8	Radiación solar	0
158577	7	Sololá	719	Santiago Atitlán	14	Cerro de Oro	7	Julio	2023-04-07T00:00:00	2024-11-08T05:00:00	2	Temperatura media	17.2
158578	7	Sololá	719	Santiago Atitlán	14	Cerro de Oro	7	Julio	2023-04-07T00:00:00	2024-11-08T05:00:00	4	Temperatura máxima	17.6
158579	7	Sololá	719	Santiago Atitlán	14	Cerro de Oro	7	Julio	2023-04-07T00:00:00	2024-11-08T05:00:00	3	Temperatura mínima	17.2
158580	7	Sololá	719	Santiago Atitlán	14	Cerro de Oro	7	Julio	2023-04-07T00:00:00	2024-11-08T05:00:00	5	Humedad	92
158581	7	Sololá	719	Santiago Atitlán	14	Cerro de Oro	7	Julio	2023-04-07T00:00:00	2024-11-08T05:00:00	6	Velocidad del viento	4.8
158582	7	Sololá	719	Santiago Atitlán	14	Cerro de Oro	7	Julio	2023-04-07T00:00:00	2024-11-08T05:00:00	7	Dirección del viento	4.83
158583	7	Sololá	719	Santiago Atitlán	14	Cerro de Oro	7	Julio	2023-04-07T00:00:00	2024-11-08T05:00:00	1	Precipitación	0
158584	7	Sololá	719	Santiago Atitlán	14	Cerro de Oro	7	Julio	2023-04-07T00:00:00	2024-11-08T05:00:00	8	Radiación solar	0
158585	7	Sololá	719	Santiago Atitlán	14	Cerro de Oro	7	Julio	2023-04-07T00:00:00	2024-11-08T06:00:00	2	Temperatura media	17.3
158586	7	Sololá	719	Santiago Atitlán	14	Cerro de Oro	7	Julio	2023-04-07T00:00:00	2024-11-08T06:00:00	4	Temperatura máxima	17.4
158587	7	Sololá	719	Santiago Atitlán	14	Cerro de Oro	7	Julio	2023-04-07T00:00:00	2024-11-08T06:00:00	3	Temperatura mínima	17.1
158588	7	Sololá	719	Santiago Atitlán	14	Cerro de Oro	7	Julio	2023-04-07T00:00:00	2024-11-08T06:00:00	5	Humedad	91
158589	7	Sololá	719	Santiago Atitlán	14	Cerro de Oro	7	Julio	2023-04-07T00:00:00	2024-11-08T06:00:00	6	Velocidad del viento	3.2
158590	7	Sololá	719	Santiago Atitlán	14	Cerro de Oro	7	Julio	2023-04-07T00:00:00	2024-11-08T06:00:00	7	Dirección del viento	3.22
158591	7	Sololá	719	Santiago Atitlán	14	Cerro de Oro	7	Julio	2023-04-07T00:00:00	2024-11-08T06:00:00	1	Precipitación	0
158592	7	Sololá	719	Santiago Atitlán	14	Cerro de Oro	7	Julio	2023-04-07T00:00:00	2024-11-08T06:00:00	8	Radiación solar	3
158593	7	Sololá	719	Santiago Atitlán	14	Cerro de Oro	7	Julio	2023-04-07T00:00:00	2024-11-08T07:00:00	2	Temperatura media	18.2
158594	7	Sololá	719	Santiago Atitlán	14	Cerro de Oro	7	Julio	2023-04-07T00:00:00	2024-11-08T07:00:00	4	Temperatura máxima	18.2
158595	7	Sololá	719	Santiago Atitlán	14	Cerro de Oro	7	Julio	2023-04-07T00:00:00	2024-11-08T07:00:00	3	Temperatura mínima	17.3
158596	7	Sololá	719	Santiago Atitlán	14	Cerro de Oro	7	Julio	2023-04-07T00:00:00	2024-11-08T07:00:00	5	Humedad	90
158597	7	Sololá	719	Santiago Atitlán	14	Cerro de Oro	7	Julio	2023-04-07T00:00:00	2024-11-08T07:00:00	6	Velocidad del viento	3.2
158598	7	Sololá	719	Santiago Atitlán	14	Cerro de Oro	7	Julio	2023-04-07T00:00:00	2024-11-08T07:00:00	7	Dirección del viento	3.22
158599	7	Sololá	719	Santiago Atitlán	14	Cerro de Oro	7	Julio	2023-04-07T00:00:00	2024-11-08T07:00:00	1	Precipitación	0
158600	7	Sololá	719	Santiago Atitlán	14	Cerro de Oro	7	Julio	2023-04-07T00:00:00	2024-11-08T07:00:00	8	Radiación solar	49
158601	7	Sololá	719	Santiago Atitlán	14	Cerro de Oro	7	Julio	2023-04-07T00:00:00	2024-11-08T08:00:00	2	Temperatura media	19.5
158602	7	Sololá	719	Santiago Atitlán	14	Cerro de Oro	7	Julio	2023-04-07T00:00:00	2024-11-08T08:00:00	4	Temperatura máxima	19.6
158603	7	Sololá	719	Santiago Atitlán	14	Cerro de Oro	7	Julio	2023-04-07T00:00:00	2024-11-08T08:00:00	3	Temperatura mínima	18.2
158604	7	Sololá	719	Santiago Atitlán	14	Cerro de Oro	7	Julio	2023-04-07T00:00:00	2024-11-08T08:00:00	5	Humedad	85
158605	7	Sololá	719	Santiago Atitlán	14	Cerro de Oro	7	Julio	2023-04-07T00:00:00	2024-11-08T08:00:00	6	Velocidad del viento	8
158606	7	Sololá	719	Santiago Atitlán	14	Cerro de Oro	7	Julio	2023-04-07T00:00:00	2024-11-08T08:00:00	7	Dirección del viento	8.05
158607	7	Sololá	719	Santiago Atitlán	14	Cerro de Oro	7	Julio	2023-04-07T00:00:00	2024-11-08T08:00:00	1	Precipitación	0
158608	7	Sololá	719	Santiago Atitlán	14	Cerro de Oro	7	Julio	2023-04-07T00:00:00	2024-11-08T08:00:00	8	Radiación solar	135
158609	7	Sololá	719	Santiago Atitlán	14	Cerro de Oro	7	Julio	2023-04-07T00:00:00	2024-11-08T09:00:00	2	Temperatura media	20.6
158610	7	Sololá	719	Santiago Atitlán	14	Cerro de Oro	7	Julio	2023-04-07T00:00:00	2024-11-08T09:00:00	4	Temperatura máxima	20.6
158611	7	Sololá	719	Santiago Atitlán	14	Cerro de Oro	7	Julio	2023-04-07T00:00:00	2024-11-08T09:00:00	3	Temperatura mínima	19.5
158612	7	Sololá	719	Santiago Atitlán	14	Cerro de Oro	7	Julio	2023-04-07T00:00:00	2024-11-08T09:00:00	5	Humedad	83
158613	7	Sololá	719	Santiago Atitlán	14	Cerro de Oro	7	Julio	2023-04-07T00:00:00	2024-11-08T09:00:00	6	Velocidad del viento	4.8
158614	7	Sololá	719	Santiago Atitlán	14	Cerro de Oro	7	Julio	2023-04-07T00:00:00	2024-11-08T09:00:00	7	Dirección del viento	4.83
158615	7	Sololá	719	Santiago Atitlán	14	Cerro de Oro	7	Julio	2023-04-07T00:00:00	2024-11-08T09:00:00	1	Precipitación	0
158616	7	Sololá	719	Santiago Atitlán	14	Cerro de Oro	7	Julio	2023-04-07T00:00:00	2024-11-08T09:00:00	8	Radiación solar	283
158617	7	Sololá	719	Santiago Atitlán	14	Cerro de Oro	7	Julio	2023-04-07T00:00:00	2024-11-08T10:00:00	2	Temperatura media	21.5
158618	7	Sololá	719	Santiago Atitlán	14	Cerro de Oro	7	Julio	2023-04-07T00:00:00	2024-11-08T10:00:00	4	Temperatura máxima	21.7
158619	7	Sololá	719	Santiago Atitlán	14	Cerro de Oro	7	Julio	2023-04-07T00:00:00	2024-11-08T10:00:00	3	Temperatura mínima	20.5
158620	7	Sololá	719	Santiago Atitlán	14	Cerro de Oro	7	Julio	2023-04-07T00:00:00	2024-11-08T10:00:00	5	Humedad	79
158621	7	Sololá	719	Santiago Atitlán	14	Cerro de Oro	7	Julio	2023-04-07T00:00:00	2024-11-08T10:00:00	6	Velocidad del viento	4.8
158622	7	Sololá	719	Santiago Atitlán	14	Cerro de Oro	7	Julio	2023-04-07T00:00:00	2024-11-08T10:00:00	7	Dirección del viento	4.83
158623	7	Sololá	719	Santiago Atitlán	14	Cerro de Oro	7	Julio	2023-04-07T00:00:00	2024-11-08T10:00:00	1	Precipitación	0
158624	7	Sololá	719	Santiago Atitlán	14	Cerro de Oro	7	Julio	2023-04-07T00:00:00	2024-11-08T10:00:00	8	Radiación solar	588
158625	7	Sololá	719	Santiago Atitlán	14	Cerro de Oro	7	Julio	2023-04-07T00:00:00	2024-11-08T11:00:00	2	Temperatura media	21.3
158626	7	Sololá	719	Santiago Atitlán	14	Cerro de Oro	7	Julio	2023-04-07T00:00:00	2024-11-08T11:00:00	4	Temperatura máxima	22.9
158627	7	Sololá	719	Santiago Atitlán	14	Cerro de Oro	7	Julio	2023-04-07T00:00:00	2024-11-08T11:00:00	3	Temperatura mínima	21.3
158628	7	Sololá	719	Santiago Atitlán	14	Cerro de Oro	7	Julio	2023-04-07T00:00:00	2024-11-08T11:00:00	5	Humedad	80
158629	7	Sololá	719	Santiago Atitlán	14	Cerro de Oro	7	Julio	2023-04-07T00:00:00	2024-11-08T11:00:00	6	Velocidad del viento	4.8
158630	7	Sololá	719	Santiago Atitlán	14	Cerro de Oro	7	Julio	2023-04-07T00:00:00	2024-11-08T11:00:00	7	Dirección del viento	4.83
158631	7	Sololá	719	Santiago Atitlán	14	Cerro de Oro	7	Julio	2023-04-07T00:00:00	2024-11-08T11:00:00	1	Precipitación	0
158632	7	Sololá	719	Santiago Atitlán	14	Cerro de Oro	7	Julio	2023-04-07T00:00:00	2024-11-08T11:00:00	8	Radiación solar	629
158633	7	Sololá	719	Santiago Atitlán	14	Cerro de Oro	7	Julio	2023-04-07T00:00:00	2024-11-08T12:00:00	2	Temperatura media	22.4
158634	7	Sololá	719	Santiago Atitlán	14	Cerro de Oro	7	Julio	2023-04-07T00:00:00	2024-11-08T12:00:00	4	Temperatura máxima	22.4
158635	7	Sololá	719	Santiago Atitlán	14	Cerro de Oro	7	Julio	2023-04-07T00:00:00	2024-11-08T12:00:00	3	Temperatura mínima	21.3
158636	7	Sololá	719	Santiago Atitlán	14	Cerro de Oro	7	Julio	2023-04-07T00:00:00	2024-11-08T12:00:00	5	Humedad	78
158637	7	Sololá	719	Santiago Atitlán	14	Cerro de Oro	7	Julio	2023-04-07T00:00:00	2024-11-08T12:00:00	6	Velocidad del viento	4.8
158638	7	Sololá	719	Santiago Atitlán	14	Cerro de Oro	7	Julio	2023-04-07T00:00:00	2024-11-08T12:00:00	7	Dirección del viento	4.83
158639	7	Sololá	719	Santiago Atitlán	14	Cerro de Oro	7	Julio	2023-04-07T00:00:00	2024-11-08T12:00:00	1	Precipitación	0
158640	7	Sololá	719	Santiago Atitlán	14	Cerro de Oro	7	Julio	2023-04-07T00:00:00	2024-11-08T12:00:00	8	Radiación solar	439
158641	7	Sololá	719	Santiago Atitlán	14	Cerro de Oro	7	Julio	2023-04-07T00:00:00	2024-11-08T13:00:00	2	Temperatura media	23
158642	7	Sololá	719	Santiago Atitlán	14	Cerro de Oro	7	Julio	2023-04-07T00:00:00	2024-11-08T13:00:00	4	Temperatura máxima	23.8
158643	7	Sololá	719	Santiago Atitlán	14	Cerro de Oro	7	Julio	2023-04-07T00:00:00	2024-11-08T13:00:00	3	Temperatura mínima	22.2
158644	7	Sololá	719	Santiago Atitlán	14	Cerro de Oro	7	Julio	2023-04-07T00:00:00	2024-11-08T13:00:00	5	Humedad	76
158645	7	Sololá	719	Santiago Atitlán	14	Cerro de Oro	7	Julio	2023-04-07T00:00:00	2024-11-08T13:00:00	6	Velocidad del viento	6.4
158646	7	Sololá	719	Santiago Atitlán	14	Cerro de Oro	7	Julio	2023-04-07T00:00:00	2024-11-08T13:00:00	7	Dirección del viento	6.44
158647	7	Sololá	719	Santiago Atitlán	14	Cerro de Oro	7	Julio	2023-04-07T00:00:00	2024-11-08T13:00:00	1	Precipitación	0
158648	7	Sololá	719	Santiago Atitlán	14	Cerro de Oro	7	Julio	2023-04-07T00:00:00	2024-11-08T13:00:00	8	Radiación solar	609
158649	7	Sololá	719	Santiago Atitlán	14	Cerro de Oro	7	Julio	2023-04-07T00:00:00	2024-11-08T14:00:00	2	Temperatura media	21.9
158650	7	Sololá	719	Santiago Atitlán	14	Cerro de Oro	7	Julio	2023-04-07T00:00:00	2024-11-08T14:00:00	4	Temperatura máxima	23.1
158651	7	Sololá	719	Santiago Atitlán	14	Cerro de Oro	7	Julio	2023-04-07T00:00:00	2024-11-08T14:00:00	3	Temperatura mínima	21.8
158652	7	Sololá	719	Santiago Atitlán	14	Cerro de Oro	7	Julio	2023-04-07T00:00:00	2024-11-08T14:00:00	5	Humedad	87
158653	7	Sololá	719	Santiago Atitlán	14	Cerro de Oro	7	Julio	2023-04-07T00:00:00	2024-11-08T14:00:00	6	Velocidad del viento	8
158654	7	Sololá	719	Santiago Atitlán	14	Cerro de Oro	7	Julio	2023-04-07T00:00:00	2024-11-08T14:00:00	7	Dirección del viento	8.05
158655	7	Sololá	719	Santiago Atitlán	14	Cerro de Oro	7	Julio	2023-04-07T00:00:00	2024-11-08T14:00:00	1	Precipitación	0
158656	7	Sololá	719	Santiago Atitlán	14	Cerro de Oro	7	Julio	2023-04-07T00:00:00	2024-11-08T14:00:00	8	Radiación solar	331
158657	7	Sololá	719	Santiago Atitlán	14	Cerro de Oro	7	Julio	2023-04-07T00:00:00	2024-11-08T15:00:00	2	Temperatura media	20.1
158658	7	Sololá	719	Santiago Atitlán	14	Cerro de Oro	7	Julio	2023-04-07T00:00:00	2024-11-08T15:00:00	4	Temperatura máxima	21.8
158659	7	Sololá	719	Santiago Atitlán	14	Cerro de Oro	7	Julio	2023-04-07T00:00:00	2024-11-08T15:00:00	3	Temperatura mínima	20.1
158660	7	Sololá	719	Santiago Atitlán	14	Cerro de Oro	7	Julio	2023-04-07T00:00:00	2024-11-08T15:00:00	5	Humedad	90
158661	7	Sololá	719	Santiago Atitlán	14	Cerro de Oro	7	Julio	2023-04-07T00:00:00	2024-11-08T15:00:00	6	Velocidad del viento	8
158662	7	Sololá	719	Santiago Atitlán	14	Cerro de Oro	7	Julio	2023-04-07T00:00:00	2024-11-08T15:00:00	7	Dirección del viento	8.05
158663	7	Sololá	719	Santiago Atitlán	14	Cerro de Oro	7	Julio	2023-04-07T00:00:00	2024-11-08T15:00:00	1	Precipitación	0.2
158664	7	Sololá	719	Santiago Atitlán	14	Cerro de Oro	7	Julio	2023-04-07T00:00:00	2024-11-08T15:00:00	8	Radiación solar	251
158665	7	Sololá	719	Santiago Atitlán	14	Cerro de Oro	7	Julio	2023-04-07T00:00:00	2024-11-08T16:00:00	2	Temperatura media	19.4
158666	7	Sololá	719	Santiago Atitlán	14	Cerro de Oro	7	Julio	2023-04-07T00:00:00	2024-11-08T16:00:00	4	Temperatura máxima	20.1
158667	7	Sololá	719	Santiago Atitlán	14	Cerro de Oro	7	Julio	2023-04-07T00:00:00	2024-11-08T16:00:00	3	Temperatura mínima	19.1
158668	7	Sololá	719	Santiago Atitlán	14	Cerro de Oro	7	Julio	2023-04-07T00:00:00	2024-11-08T16:00:00	5	Humedad	92
158669	7	Sololá	719	Santiago Atitlán	14	Cerro de Oro	7	Julio	2023-04-07T00:00:00	2024-11-08T16:00:00	6	Velocidad del viento	6.4
158670	7	Sololá	719	Santiago Atitlán	14	Cerro de Oro	7	Julio	2023-04-07T00:00:00	2024-11-08T16:00:00	7	Dirección del viento	6.44
158671	7	Sololá	719	Santiago Atitlán	14	Cerro de Oro	7	Julio	2023-04-07T00:00:00	2024-11-08T16:00:00	1	Precipitación	4.4
158672	7	Sololá	719	Santiago Atitlán	14	Cerro de Oro	7	Julio	2023-04-07T00:00:00	2024-11-08T16:00:00	8	Radiación solar	101
158673	7	Sololá	719	Santiago Atitlán	14	Cerro de Oro	7	Julio	2023-04-07T00:00:00	2024-11-08T17:00:00	2	Temperatura media	19.8
158674	7	Sololá	719	Santiago Atitlán	14	Cerro de Oro	7	Julio	2023-04-07T00:00:00	2024-11-08T17:00:00	4	Temperatura máxima	20.1
158675	7	Sololá	719	Santiago Atitlán	14	Cerro de Oro	7	Julio	2023-04-07T00:00:00	2024-11-08T17:00:00	3	Temperatura mínima	19.4
158676	7	Sololá	719	Santiago Atitlán	14	Cerro de Oro	7	Julio	2023-04-07T00:00:00	2024-11-08T17:00:00	5	Humedad	91
158677	7	Sololá	719	Santiago Atitlán	14	Cerro de Oro	7	Julio	2023-04-07T00:00:00	2024-11-08T17:00:00	6	Velocidad del viento	3.2
158678	7	Sololá	719	Santiago Atitlán	14	Cerro de Oro	7	Julio	2023-04-07T00:00:00	2024-11-08T17:00:00	7	Dirección del viento	3.22
158679	7	Sololá	719	Santiago Atitlán	14	Cerro de Oro	7	Julio	2023-04-07T00:00:00	2024-11-08T17:00:00	1	Precipitación	0.6
158680	7	Sololá	719	Santiago Atitlán	14	Cerro de Oro	7	Julio	2023-04-07T00:00:00	2024-11-08T17:00:00	8	Radiación solar	167
158681	7	Sololá	719	Santiago Atitlán	14	Cerro de Oro	7	Julio	2023-04-07T00:00:00	2024-11-08T18:00:00	2	Temperatura media	19.2
158682	7	Sololá	719	Santiago Atitlán	14	Cerro de Oro	7	Julio	2023-04-07T00:00:00	2024-11-08T18:00:00	4	Temperatura máxima	19.8
158683	7	Sololá	719	Santiago Atitlán	14	Cerro de Oro	7	Julio	2023-04-07T00:00:00	2024-11-08T18:00:00	3	Temperatura mínima	19.1
158684	7	Sololá	719	Santiago Atitlán	14	Cerro de Oro	7	Julio	2023-04-07T00:00:00	2024-11-08T18:00:00	5	Humedad	91
158685	7	Sololá	719	Santiago Atitlán	14	Cerro de Oro	7	Julio	2023-04-07T00:00:00	2024-11-08T18:00:00	6	Velocidad del viento	4.8
158686	7	Sololá	719	Santiago Atitlán	14	Cerro de Oro	7	Julio	2023-04-07T00:00:00	2024-11-08T18:00:00	7	Dirección del viento	4.83
158687	7	Sololá	719	Santiago Atitlán	14	Cerro de Oro	7	Julio	2023-04-07T00:00:00	2024-11-08T18:00:00	1	Precipitación	0
158688	7	Sololá	719	Santiago Atitlán	14	Cerro de Oro	7	Julio	2023-04-07T00:00:00	2024-11-08T18:00:00	8	Radiación solar	31
158689	7	Sololá	719	Santiago Atitlán	14	Cerro de Oro	7	Julio	2023-04-07T00:00:00	2024-11-08T19:00:00	2	Temperatura media	18.6
158690	7	Sololá	719	Santiago Atitlán	14	Cerro de Oro	7	Julio	2023-04-07T00:00:00	2024-11-08T19:00:00	4	Temperatura máxima	19.2
158691	7	Sololá	719	Santiago Atitlán	14	Cerro de Oro	7	Julio	2023-04-07T00:00:00	2024-11-08T19:00:00	3	Temperatura mínima	18.6
158692	7	Sololá	719	Santiago Atitlán	14	Cerro de Oro	7	Julio	2023-04-07T00:00:00	2024-11-08T19:00:00	5	Humedad	90
158693	7	Sololá	719	Santiago Atitlán	14	Cerro de Oro	7	Julio	2023-04-07T00:00:00	2024-11-08T19:00:00	6	Velocidad del viento	6.4
158694	7	Sololá	719	Santiago Atitlán	14	Cerro de Oro	7	Julio	2023-04-07T00:00:00	2024-11-08T19:00:00	7	Dirección del viento	6.44
158695	7	Sololá	719	Santiago Atitlán	14	Cerro de Oro	7	Julio	2023-04-07T00:00:00	2024-11-08T19:00:00	1	Precipitación	4
158696	7	Sololá	719	Santiago Atitlán	14	Cerro de Oro	7	Julio	2023-04-07T00:00:00	2024-11-08T19:00:00	8	Radiación solar	0
158697	7	Sololá	719	Santiago Atitlán	14	Cerro de Oro	7	Julio	2023-04-07T00:00:00	2024-11-08T20:00:00	2	Temperatura media	18.3
158698	7	Sololá	719	Santiago Atitlán	14	Cerro de Oro	7	Julio	2023-04-07T00:00:00	2024-11-08T20:00:00	4	Temperatura máxima	18.6
158699	7	Sololá	719	Santiago Atitlán	14	Cerro de Oro	7	Julio	2023-04-07T00:00:00	2024-11-08T20:00:00	3	Temperatura mínima	18.2
158700	7	Sololá	719	Santiago Atitlán	14	Cerro de Oro	7	Julio	2023-04-07T00:00:00	2024-11-08T20:00:00	5	Humedad	92
158701	7	Sololá	719	Santiago Atitlán	14	Cerro de Oro	7	Julio	2023-04-07T00:00:00	2024-11-08T20:00:00	6	Velocidad del viento	3.2
158702	7	Sololá	719	Santiago Atitlán	14	Cerro de Oro	7	Julio	2023-04-07T00:00:00	2024-11-08T20:00:00	7	Dirección del viento	3.22
158703	7	Sololá	719	Santiago Atitlán	14	Cerro de Oro	7	Julio	2023-04-07T00:00:00	2024-11-08T20:00:00	1	Precipitación	0.6
158704	7	Sololá	719	Santiago Atitlán	14	Cerro de Oro	7	Julio	2023-04-07T00:00:00	2024-11-08T20:00:00	8	Radiación solar	0
158705	7	Sololá	719	Santiago Atitlán	14	Cerro de Oro	7	Julio	2023-04-07T00:00:00	2024-11-08T21:00:00	2	Temperatura media	18.4
158706	7	Sololá	719	Santiago Atitlán	14	Cerro de Oro	7	Julio	2023-04-07T00:00:00	2024-11-08T21:00:00	4	Temperatura máxima	18.6
158707	7	Sololá	719	Santiago Atitlán	14	Cerro de Oro	7	Julio	2023-04-07T00:00:00	2024-11-08T21:00:00	3	Temperatura mínima	18.2
158708	7	Sololá	719	Santiago Atitlán	14	Cerro de Oro	7	Julio	2023-04-07T00:00:00	2024-11-08T21:00:00	5	Humedad	92
158709	7	Sololá	719	Santiago Atitlán	14	Cerro de Oro	7	Julio	2023-04-07T00:00:00	2024-11-08T21:00:00	6	Velocidad del viento	3.2
158710	7	Sololá	719	Santiago Atitlán	14	Cerro de Oro	7	Julio	2023-04-07T00:00:00	2024-11-08T21:00:00	7	Dirección del viento	3.22
158711	7	Sololá	719	Santiago Atitlán	14	Cerro de Oro	7	Julio	2023-04-07T00:00:00	2024-11-08T21:00:00	1	Precipitación	0.2
158712	7	Sololá	719	Santiago Atitlán	14	Cerro de Oro	7	Julio	2023-04-07T00:00:00	2024-11-08T21:00:00	8	Radiación solar	0
158713	7	Sololá	719	Santiago Atitlán	14	Cerro de Oro	7	Julio	2023-04-07T00:00:00	2024-11-08T22:00:00	2	Temperatura media	18.7
158714	7	Sololá	719	Santiago Atitlán	14	Cerro de Oro	7	Julio	2023-04-07T00:00:00	2024-11-08T22:00:00	4	Temperatura máxima	18.7
158715	7	Sololá	719	Santiago Atitlán	14	Cerro de Oro	7	Julio	2023-04-07T00:00:00	2024-11-08T22:00:00	3	Temperatura mínima	18.3
158716	7	Sololá	719	Santiago Atitlán	14	Cerro de Oro	7	Julio	2023-04-07T00:00:00	2024-11-08T22:00:00	5	Humedad	92
158717	7	Sololá	719	Santiago Atitlán	14	Cerro de Oro	7	Julio	2023-04-07T00:00:00	2024-11-08T22:00:00	6	Velocidad del viento	3.2
158718	7	Sololá	719	Santiago Atitlán	14	Cerro de Oro	7	Julio	2023-04-07T00:00:00	2024-11-08T22:00:00	7	Dirección del viento	3.22
158719	7	Sololá	719	Santiago Atitlán	14	Cerro de Oro	7	Julio	2023-04-07T00:00:00	2024-11-08T22:00:00	1	Precipitación	0.2
158720	7	Sololá	719	Santiago Atitlán	14	Cerro de Oro	7	Julio	2023-04-07T00:00:00	2024-11-08T22:00:00	8	Radiación solar	0
158721	7	Sololá	719	Santiago Atitlán	14	Cerro de Oro	7	Julio	2023-04-07T00:00:00	2024-11-08T23:00:00	2	Temperatura media	18.2
158722	7	Sololá	719	Santiago Atitlán	14	Cerro de Oro	7	Julio	2023-04-07T00:00:00	2024-11-08T23:00:00	4	Temperatura máxima	18.7
158723	7	Sololá	719	Santiago Atitlán	14	Cerro de Oro	7	Julio	2023-04-07T00:00:00	2024-11-08T23:00:00	3	Temperatura mínima	18.2
158724	7	Sololá	719	Santiago Atitlán	14	Cerro de Oro	7	Julio	2023-04-07T00:00:00	2024-11-08T23:00:00	5	Humedad	93
158725	7	Sololá	719	Santiago Atitlán	14	Cerro de Oro	7	Julio	2023-04-07T00:00:00	2024-11-08T23:00:00	6	Velocidad del viento	1.6
158726	7	Sololá	719	Santiago Atitlán	14	Cerro de Oro	7	Julio	2023-04-07T00:00:00	2024-11-08T23:00:00	7	Dirección del viento	1.61
158727	7	Sololá	719	Santiago Atitlán	14	Cerro de Oro	7	Julio	2023-04-07T00:00:00	2024-11-08T23:00:00	1	Precipitación	1.8
158728	7	Sololá	719	Santiago Atitlán	14	Cerro de Oro	7	Julio	2023-04-07T00:00:00	2024-11-08T23:00:00	8	Radiación solar	0
158729	7	Sololá	719	Santiago Atitlán	14	Cerro de Oro	7	Julio	2023-05-07T00:00:00	2024-11-08T00:00:00	2	Temperatura media	18.1
158730	7	Sololá	719	Santiago Atitlán	14	Cerro de Oro	7	Julio	2023-05-07T00:00:00	2024-11-08T00:00:00	4	Temperatura máxima	18.3
158731	7	Sololá	719	Santiago Atitlán	14	Cerro de Oro	7	Julio	2023-05-07T00:00:00	2024-11-08T00:00:00	3	Temperatura mínima	18.1
158732	7	Sololá	719	Santiago Atitlán	14	Cerro de Oro	7	Julio	2023-05-07T00:00:00	2024-11-08T00:00:00	5	Humedad	93
158733	7	Sololá	719	Santiago Atitlán	14	Cerro de Oro	7	Julio	2023-05-07T00:00:00	2024-11-08T00:00:00	6	Velocidad del viento	1.6
158734	7	Sololá	719	Santiago Atitlán	14	Cerro de Oro	7	Julio	2023-05-07T00:00:00	2024-11-08T00:00:00	7	Dirección del viento	1.61
158735	7	Sololá	719	Santiago Atitlán	14	Cerro de Oro	7	Julio	2023-05-07T00:00:00	2024-11-08T00:00:00	1	Precipitación	1.6
158736	7	Sololá	719	Santiago Atitlán	14	Cerro de Oro	7	Julio	2023-05-07T00:00:00	2024-11-08T00:00:00	8	Radiación solar	0
158737	7	Sololá	719	Santiago Atitlán	14	Cerro de Oro	7	Julio	2023-05-07T00:00:00	2024-11-08T01:00:00	2	Temperatura media	18.3
158738	7	Sololá	719	Santiago Atitlán	14	Cerro de Oro	7	Julio	2023-05-07T00:00:00	2024-11-08T01:00:00	4	Temperatura máxima	18.4
158739	7	Sololá	719	Santiago Atitlán	14	Cerro de Oro	7	Julio	2023-05-07T00:00:00	2024-11-08T01:00:00	3	Temperatura mínima	18
158740	7	Sololá	719	Santiago Atitlán	14	Cerro de Oro	7	Julio	2023-05-07T00:00:00	2024-11-08T01:00:00	5	Humedad	92
158741	7	Sololá	719	Santiago Atitlán	14	Cerro de Oro	7	Julio	2023-05-07T00:00:00	2024-11-08T01:00:00	6	Velocidad del viento	3.2
158742	7	Sololá	719	Santiago Atitlán	14	Cerro de Oro	7	Julio	2023-05-07T00:00:00	2024-11-08T01:00:00	7	Dirección del viento	3.22
158743	7	Sololá	719	Santiago Atitlán	14	Cerro de Oro	7	Julio	2023-05-07T00:00:00	2024-11-08T01:00:00	1	Precipitación	0.2
158744	7	Sololá	719	Santiago Atitlán	14	Cerro de Oro	7	Julio	2023-05-07T00:00:00	2024-11-08T01:00:00	8	Radiación solar	0
158745	7	Sololá	719	Santiago Atitlán	14	Cerro de Oro	7	Julio	2023-05-07T00:00:00	2024-11-08T02:00:00	2	Temperatura media	18.1
158746	7	Sololá	719	Santiago Atitlán	14	Cerro de Oro	7	Julio	2023-05-07T00:00:00	2024-11-08T02:00:00	4	Temperatura máxima	18.3
158747	7	Sololá	719	Santiago Atitlán	14	Cerro de Oro	7	Julio	2023-05-07T00:00:00	2024-11-08T02:00:00	3	Temperatura mínima	18
158748	7	Sololá	719	Santiago Atitlán	14	Cerro de Oro	7	Julio	2023-05-07T00:00:00	2024-11-08T02:00:00	5	Humedad	92
158749	7	Sololá	719	Santiago Atitlán	14	Cerro de Oro	7	Julio	2023-05-07T00:00:00	2024-11-08T02:00:00	6	Velocidad del viento	3.2
158750	7	Sololá	719	Santiago Atitlán	14	Cerro de Oro	7	Julio	2023-05-07T00:00:00	2024-11-08T02:00:00	7	Dirección del viento	3.22
158751	7	Sololá	719	Santiago Atitlán	14	Cerro de Oro	7	Julio	2023-05-07T00:00:00	2024-11-08T02:00:00	1	Precipitación	0
158752	7	Sololá	719	Santiago Atitlán	14	Cerro de Oro	7	Julio	2023-05-07T00:00:00	2024-11-08T02:00:00	8	Radiación solar	0
158753	7	Sololá	719	Santiago Atitlán	14	Cerro de Oro	7	Julio	2023-05-07T00:00:00	2024-11-08T03:00:00	2	Temperatura media	18.1
158754	7	Sololá	719	Santiago Atitlán	14	Cerro de Oro	7	Julio	2023-05-07T00:00:00	2024-11-08T03:00:00	4	Temperatura máxima	18.2
158755	7	Sololá	719	Santiago Atitlán	14	Cerro de Oro	7	Julio	2023-05-07T00:00:00	2024-11-08T03:00:00	3	Temperatura mínima	17.9
158756	7	Sololá	719	Santiago Atitlán	14	Cerro de Oro	7	Julio	2023-05-07T00:00:00	2024-11-08T03:00:00	5	Humedad	91
158757	7	Sololá	719	Santiago Atitlán	14	Cerro de Oro	7	Julio	2023-05-07T00:00:00	2024-11-08T03:00:00	6	Velocidad del viento	4.8
158758	7	Sololá	719	Santiago Atitlán	14	Cerro de Oro	7	Julio	2023-05-07T00:00:00	2024-11-08T03:00:00	7	Dirección del viento	4.83
158759	7	Sololá	719	Santiago Atitlán	14	Cerro de Oro	7	Julio	2023-05-07T00:00:00	2024-11-08T03:00:00	1	Precipitación	0
158760	7	Sololá	719	Santiago Atitlán	14	Cerro de Oro	7	Julio	2023-05-07T00:00:00	2024-11-08T03:00:00	8	Radiación solar	0
158761	7	Sololá	719	Santiago Atitlán	14	Cerro de Oro	7	Julio	2023-05-07T00:00:00	2024-11-08T04:00:00	2	Temperatura media	17.5
158762	7	Sololá	719	Santiago Atitlán	14	Cerro de Oro	7	Julio	2023-05-07T00:00:00	2024-11-08T04:00:00	4	Temperatura máxima	18.1
158763	7	Sololá	719	Santiago Atitlán	14	Cerro de Oro	7	Julio	2023-05-07T00:00:00	2024-11-08T04:00:00	3	Temperatura mínima	17.5
158764	7	Sololá	719	Santiago Atitlán	14	Cerro de Oro	7	Julio	2023-05-07T00:00:00	2024-11-08T04:00:00	5	Humedad	92
158765	7	Sololá	719	Santiago Atitlán	14	Cerro de Oro	7	Julio	2023-05-07T00:00:00	2024-11-08T04:00:00	6	Velocidad del viento	4.8
158766	7	Sololá	719	Santiago Atitlán	14	Cerro de Oro	7	Julio	2023-05-07T00:00:00	2024-11-08T04:00:00	7	Dirección del viento	4.83
158767	7	Sololá	719	Santiago Atitlán	14	Cerro de Oro	7	Julio	2023-05-07T00:00:00	2024-11-08T04:00:00	1	Precipitación	0
158768	7	Sololá	719	Santiago Atitlán	14	Cerro de Oro	7	Julio	2023-05-07T00:00:00	2024-11-08T04:00:00	8	Radiación solar	0
158769	7	Sololá	719	Santiago Atitlán	14	Cerro de Oro	7	Julio	2023-05-07T00:00:00	2024-11-08T05:00:00	2	Temperatura media	17.8
158770	7	Sololá	719	Santiago Atitlán	14	Cerro de Oro	7	Julio	2023-05-07T00:00:00	2024-11-08T05:00:00	4	Temperatura máxima	17.8
158771	7	Sololá	719	Santiago Atitlán	14	Cerro de Oro	7	Julio	2023-05-07T00:00:00	2024-11-08T05:00:00	3	Temperatura mínima	17.5
158772	7	Sololá	719	Santiago Atitlán	14	Cerro de Oro	7	Julio	2023-05-07T00:00:00	2024-11-08T05:00:00	5	Humedad	91
158773	7	Sololá	719	Santiago Atitlán	14	Cerro de Oro	7	Julio	2023-05-07T00:00:00	2024-11-08T05:00:00	6	Velocidad del viento	4.8
158774	7	Sololá	719	Santiago Atitlán	14	Cerro de Oro	7	Julio	2023-05-07T00:00:00	2024-11-08T05:00:00	7	Dirección del viento	4.83
158775	7	Sololá	719	Santiago Atitlán	14	Cerro de Oro	7	Julio	2023-05-07T00:00:00	2024-11-08T05:00:00	1	Precipitación	0
158776	7	Sololá	719	Santiago Atitlán	14	Cerro de Oro	7	Julio	2023-05-07T00:00:00	2024-11-08T05:00:00	8	Radiación solar	0
158777	7	Sololá	719	Santiago Atitlán	14	Cerro de Oro	7	Julio	2023-05-07T00:00:00	2024-11-08T06:00:00	2	Temperatura media	17.7
158778	7	Sololá	719	Santiago Atitlán	14	Cerro de Oro	7	Julio	2023-05-07T00:00:00	2024-11-08T06:00:00	4	Temperatura máxima	18
158779	7	Sololá	719	Santiago Atitlán	14	Cerro de Oro	7	Julio	2023-05-07T00:00:00	2024-11-08T06:00:00	3	Temperatura mínima	17.6
158780	7	Sololá	719	Santiago Atitlán	14	Cerro de Oro	7	Julio	2023-05-07T00:00:00	2024-11-08T06:00:00	5	Humedad	91
158781	7	Sololá	719	Santiago Atitlán	14	Cerro de Oro	7	Julio	2023-05-07T00:00:00	2024-11-08T06:00:00	6	Velocidad del viento	4.8
158782	7	Sololá	719	Santiago Atitlán	14	Cerro de Oro	7	Julio	2023-05-07T00:00:00	2024-11-08T06:00:00	7	Dirección del viento	4.83
158783	7	Sololá	719	Santiago Atitlán	14	Cerro de Oro	7	Julio	2023-05-07T00:00:00	2024-11-08T06:00:00	1	Precipitación	0
158784	7	Sololá	719	Santiago Atitlán	14	Cerro de Oro	7	Julio	2023-05-07T00:00:00	2024-11-08T06:00:00	8	Radiación solar	2
158785	7	Sololá	719	Santiago Atitlán	14	Cerro de Oro	7	Julio	2023-05-07T00:00:00	2024-11-08T07:00:00	2	Temperatura media	19.4
158786	7	Sololá	719	Santiago Atitlán	14	Cerro de Oro	7	Julio	2023-05-07T00:00:00	2024-11-08T07:00:00	4	Temperatura máxima	19.4
158787	7	Sololá	719	Santiago Atitlán	14	Cerro de Oro	7	Julio	2023-05-07T00:00:00	2024-11-08T07:00:00	3	Temperatura mínima	17.7
158788	7	Sololá	719	Santiago Atitlán	14	Cerro de Oro	7	Julio	2023-05-07T00:00:00	2024-11-08T07:00:00	5	Humedad	84
158789	7	Sololá	719	Santiago Atitlán	14	Cerro de Oro	7	Julio	2023-05-07T00:00:00	2024-11-08T07:00:00	6	Velocidad del viento	4.8
158790	7	Sololá	719	Santiago Atitlán	14	Cerro de Oro	7	Julio	2023-05-07T00:00:00	2024-11-08T07:00:00	7	Dirección del viento	4.83
158791	7	Sololá	719	Santiago Atitlán	14	Cerro de Oro	7	Julio	2023-05-07T00:00:00	2024-11-08T07:00:00	1	Precipitación	0
158792	7	Sololá	719	Santiago Atitlán	14	Cerro de Oro	7	Julio	2023-05-07T00:00:00	2024-11-08T07:00:00	8	Radiación solar	85
158793	7	Sololá	719	Santiago Atitlán	14	Cerro de Oro	7	Julio	2023-05-07T00:00:00	2024-11-08T08:00:00	2	Temperatura media	21.7
158794	7	Sololá	719	Santiago Atitlán	14	Cerro de Oro	7	Julio	2023-05-07T00:00:00	2024-11-08T08:00:00	4	Temperatura máxima	21.7
158795	7	Sololá	719	Santiago Atitlán	14	Cerro de Oro	7	Julio	2023-05-07T00:00:00	2024-11-08T08:00:00	3	Temperatura mínima	19.4
158796	7	Sololá	719	Santiago Atitlán	14	Cerro de Oro	7	Julio	2023-05-07T00:00:00	2024-11-08T08:00:00	5	Humedad	75
158797	7	Sololá	719	Santiago Atitlán	14	Cerro de Oro	7	Julio	2023-05-07T00:00:00	2024-11-08T08:00:00	6	Velocidad del viento	3.2
158798	7	Sololá	719	Santiago Atitlán	14	Cerro de Oro	7	Julio	2023-05-07T00:00:00	2024-11-08T08:00:00	7	Dirección del viento	3.22
158799	7	Sololá	719	Santiago Atitlán	14	Cerro de Oro	7	Julio	2023-05-07T00:00:00	2024-11-08T08:00:00	1	Precipitación	0
158800	7	Sololá	719	Santiago Atitlán	14	Cerro de Oro	7	Julio	2023-05-07T00:00:00	2024-11-08T08:00:00	8	Radiación solar	325
158801	7	Sololá	719	Santiago Atitlán	14	Cerro de Oro	7	Julio	2023-05-07T00:00:00	2024-11-08T09:00:00	2	Temperatura media	22.7
158802	7	Sololá	719	Santiago Atitlán	14	Cerro de Oro	7	Julio	2023-05-07T00:00:00	2024-11-08T09:00:00	4	Temperatura máxima	22.8
158803	7	Sololá	719	Santiago Atitlán	14	Cerro de Oro	7	Julio	2023-05-07T00:00:00	2024-11-08T09:00:00	3	Temperatura mínima	21.7
158804	7	Sololá	719	Santiago Atitlán	14	Cerro de Oro	7	Julio	2023-05-07T00:00:00	2024-11-08T09:00:00	5	Humedad	75
158805	7	Sololá	719	Santiago Atitlán	14	Cerro de Oro	7	Julio	2023-05-07T00:00:00	2024-11-08T09:00:00	6	Velocidad del viento	4.8
158806	7	Sololá	719	Santiago Atitlán	14	Cerro de Oro	7	Julio	2023-05-07T00:00:00	2024-11-08T09:00:00	7	Dirección del viento	4.83
158807	7	Sololá	719	Santiago Atitlán	14	Cerro de Oro	7	Julio	2023-05-07T00:00:00	2024-11-08T09:00:00	1	Precipitación	0
158808	7	Sololá	719	Santiago Atitlán	14	Cerro de Oro	7	Julio	2023-05-07T00:00:00	2024-11-08T09:00:00	8	Radiación solar	500
158809	7	Sololá	719	Santiago Atitlán	14	Cerro de Oro	7	Julio	2023-05-07T00:00:00	2024-11-08T10:00:00	2	Temperatura media	23.8
158810	7	Sololá	719	Santiago Atitlán	14	Cerro de Oro	7	Julio	2023-05-07T00:00:00	2024-11-08T10:00:00	4	Temperatura máxima	23.8
158811	7	Sololá	719	Santiago Atitlán	14	Cerro de Oro	7	Julio	2023-05-07T00:00:00	2024-11-08T10:00:00	3	Temperatura mínima	22.7
158812	7	Sololá	719	Santiago Atitlán	14	Cerro de Oro	7	Julio	2023-05-07T00:00:00	2024-11-08T10:00:00	5	Humedad	71
158813	7	Sololá	719	Santiago Atitlán	14	Cerro de Oro	7	Julio	2023-05-07T00:00:00	2024-11-08T10:00:00	6	Velocidad del viento	3.2
158814	7	Sololá	719	Santiago Atitlán	14	Cerro de Oro	7	Julio	2023-05-07T00:00:00	2024-11-08T10:00:00	7	Dirección del viento	3.22
158815	7	Sololá	719	Santiago Atitlán	14	Cerro de Oro	7	Julio	2023-05-07T00:00:00	2024-11-08T10:00:00	1	Precipitación	0
158816	7	Sololá	719	Santiago Atitlán	14	Cerro de Oro	7	Julio	2023-05-07T00:00:00	2024-11-08T10:00:00	8	Radiación solar	682
158817	7	Sololá	719	Santiago Atitlán	14	Cerro de Oro	7	Julio	2023-05-07T00:00:00	2024-11-08T11:00:00	2	Temperatura media	23.6
158818	7	Sololá	719	Santiago Atitlán	14	Cerro de Oro	7	Julio	2023-05-07T00:00:00	2024-11-08T11:00:00	4	Temperatura máxima	24.8
158819	7	Sololá	719	Santiago Atitlán	14	Cerro de Oro	7	Julio	2023-05-07T00:00:00	2024-11-08T11:00:00	3	Temperatura mínima	23.6
158820	7	Sololá	719	Santiago Atitlán	14	Cerro de Oro	7	Julio	2023-05-07T00:00:00	2024-11-08T11:00:00	5	Humedad	75
158821	7	Sololá	719	Santiago Atitlán	14	Cerro de Oro	7	Julio	2023-05-07T00:00:00	2024-11-08T11:00:00	6	Velocidad del viento	6.4
158822	7	Sololá	719	Santiago Atitlán	14	Cerro de Oro	7	Julio	2023-05-07T00:00:00	2024-11-08T11:00:00	7	Dirección del viento	6.44
158823	7	Sololá	719	Santiago Atitlán	14	Cerro de Oro	7	Julio	2023-05-07T00:00:00	2024-11-08T11:00:00	1	Precipitación	0
158824	7	Sololá	719	Santiago Atitlán	14	Cerro de Oro	7	Julio	2023-05-07T00:00:00	2024-11-08T11:00:00	8	Radiación solar	780
158825	7	Sololá	719	Santiago Atitlán	14	Cerro de Oro	7	Julio	2023-05-07T00:00:00	2024-11-08T12:00:00	2	Temperatura media	23.3
158826	7	Sololá	719	Santiago Atitlán	14	Cerro de Oro	7	Julio	2023-05-07T00:00:00	2024-11-08T12:00:00	4	Temperatura máxima	24.6
158827	7	Sololá	719	Santiago Atitlán	14	Cerro de Oro	7	Julio	2023-05-07T00:00:00	2024-11-08T12:00:00	3	Temperatura mínima	23.3
158828	7	Sololá	719	Santiago Atitlán	14	Cerro de Oro	7	Julio	2023-05-07T00:00:00	2024-11-08T12:00:00	5	Humedad	77
158829	7	Sololá	719	Santiago Atitlán	14	Cerro de Oro	7	Julio	2023-05-07T00:00:00	2024-11-08T12:00:00	6	Velocidad del viento	9.7
158830	7	Sololá	719	Santiago Atitlán	14	Cerro de Oro	7	Julio	2023-05-07T00:00:00	2024-11-08T12:00:00	7	Dirección del viento	9.66
158831	7	Sololá	719	Santiago Atitlán	14	Cerro de Oro	7	Julio	2023-05-07T00:00:00	2024-11-08T12:00:00	1	Precipitación	0
158832	7	Sololá	719	Santiago Atitlán	14	Cerro de Oro	7	Julio	2023-05-07T00:00:00	2024-11-08T12:00:00	8	Radiación solar	681
158833	7	Sololá	719	Santiago Atitlán	14	Cerro de Oro	7	Julio	2023-05-07T00:00:00	2024-11-08T13:00:00	2	Temperatura media	21.9
158834	7	Sololá	719	Santiago Atitlán	14	Cerro de Oro	7	Julio	2023-05-07T00:00:00	2024-11-08T13:00:00	4	Temperatura máxima	23.8
158835	7	Sololá	719	Santiago Atitlán	14	Cerro de Oro	7	Julio	2023-05-07T00:00:00	2024-11-08T13:00:00	3	Temperatura mínima	21.9
158836	7	Sololá	719	Santiago Atitlán	14	Cerro de Oro	7	Julio	2023-05-07T00:00:00	2024-11-08T13:00:00	5	Humedad	85
158837	7	Sololá	719	Santiago Atitlán	14	Cerro de Oro	7	Julio	2023-05-07T00:00:00	2024-11-08T13:00:00	6	Velocidad del viento	12.9
158838	7	Sololá	719	Santiago Atitlán	14	Cerro de Oro	7	Julio	2023-05-07T00:00:00	2024-11-08T13:00:00	7	Dirección del viento	12.87
158839	7	Sololá	719	Santiago Atitlán	14	Cerro de Oro	7	Julio	2023-05-07T00:00:00	2024-11-08T13:00:00	1	Precipitación	0
158840	7	Sololá	719	Santiago Atitlán	14	Cerro de Oro	7	Julio	2023-05-07T00:00:00	2024-11-08T13:00:00	8	Radiación solar	482
158841	7	Sololá	719	Santiago Atitlán	14	Cerro de Oro	7	Julio	2023-05-07T00:00:00	2024-11-08T14:00:00	2	Temperatura media	22.1
158842	7	Sololá	719	Santiago Atitlán	14	Cerro de Oro	7	Julio	2023-05-07T00:00:00	2024-11-08T14:00:00	4	Temperatura máxima	22.8
158843	7	Sololá	719	Santiago Atitlán	14	Cerro de Oro	7	Julio	2023-05-07T00:00:00	2024-11-08T14:00:00	3	Temperatura mínima	21.2
158844	7	Sololá	719	Santiago Atitlán	14	Cerro de Oro	7	Julio	2023-05-07T00:00:00	2024-11-08T14:00:00	5	Humedad	83
158845	7	Sololá	719	Santiago Atitlán	14	Cerro de Oro	7	Julio	2023-05-07T00:00:00	2024-11-08T14:00:00	6	Velocidad del viento	9.7
158846	7	Sololá	719	Santiago Atitlán	14	Cerro de Oro	7	Julio	2023-05-07T00:00:00	2024-11-08T14:00:00	7	Dirección del viento	9.66
158847	7	Sololá	719	Santiago Atitlán	14	Cerro de Oro	7	Julio	2023-05-07T00:00:00	2024-11-08T14:00:00	1	Precipitación	0.8
158848	7	Sololá	719	Santiago Atitlán	14	Cerro de Oro	7	Julio	2023-05-07T00:00:00	2024-11-08T14:00:00	8	Radiación solar	358
158849	7	Sololá	719	Santiago Atitlán	14	Cerro de Oro	7	Julio	2023-05-07T00:00:00	2024-11-08T15:00:00	2	Temperatura media	20.9
158850	7	Sololá	719	Santiago Atitlán	14	Cerro de Oro	7	Julio	2023-05-07T00:00:00	2024-11-08T15:00:00	4	Temperatura máxima	22.2
158851	7	Sololá	719	Santiago Atitlán	14	Cerro de Oro	7	Julio	2023-05-07T00:00:00	2024-11-08T15:00:00	3	Temperatura mínima	20.9
158852	7	Sololá	719	Santiago Atitlán	14	Cerro de Oro	7	Julio	2023-05-07T00:00:00	2024-11-08T15:00:00	5	Humedad	84
158853	7	Sololá	719	Santiago Atitlán	14	Cerro de Oro	7	Julio	2023-05-07T00:00:00	2024-11-08T15:00:00	6	Velocidad del viento	6.4
158854	7	Sololá	719	Santiago Atitlán	14	Cerro de Oro	7	Julio	2023-05-07T00:00:00	2024-11-08T15:00:00	7	Dirección del viento	6.44
158855	7	Sololá	719	Santiago Atitlán	14	Cerro de Oro	7	Julio	2023-05-07T00:00:00	2024-11-08T15:00:00	1	Precipitación	1.2
158856	7	Sololá	719	Santiago Atitlán	14	Cerro de Oro	7	Julio	2023-05-07T00:00:00	2024-11-08T15:00:00	8	Radiación solar	155
158857	7	Sololá	719	Santiago Atitlán	14	Cerro de Oro	7	Julio	2023-05-07T00:00:00	2024-11-08T16:00:00	2	Temperatura media	21.4
158858	7	Sololá	719	Santiago Atitlán	14	Cerro de Oro	7	Julio	2023-05-07T00:00:00	2024-11-08T16:00:00	4	Temperatura máxima	21.6
158859	7	Sololá	719	Santiago Atitlán	14	Cerro de Oro	7	Julio	2023-05-07T00:00:00	2024-11-08T16:00:00	3	Temperatura mínima	20.9
158860	7	Sololá	719	Santiago Atitlán	14	Cerro de Oro	7	Julio	2023-05-07T00:00:00	2024-11-08T16:00:00	5	Humedad	86
158861	7	Sololá	719	Santiago Atitlán	14	Cerro de Oro	7	Julio	2023-05-07T00:00:00	2024-11-08T16:00:00	6	Velocidad del viento	4.8
158862	7	Sololá	719	Santiago Atitlán	14	Cerro de Oro	7	Julio	2023-05-07T00:00:00	2024-11-08T16:00:00	7	Dirección del viento	4.83
158863	7	Sololá	719	Santiago Atitlán	14	Cerro de Oro	7	Julio	2023-05-07T00:00:00	2024-11-08T16:00:00	1	Precipitación	0
158864	7	Sololá	719	Santiago Atitlán	14	Cerro de Oro	7	Julio	2023-05-07T00:00:00	2024-11-08T16:00:00	8	Radiación solar	270
158865	7	Sololá	719	Santiago Atitlán	14	Cerro de Oro	7	Julio	2023-05-07T00:00:00	2024-11-08T17:00:00	2	Temperatura media	20.1
158866	7	Sololá	719	Santiago Atitlán	14	Cerro de Oro	7	Julio	2023-05-07T00:00:00	2024-11-08T17:00:00	4	Temperatura máxima	21.7
158867	7	Sololá	719	Santiago Atitlán	14	Cerro de Oro	7	Julio	2023-05-07T00:00:00	2024-11-08T17:00:00	3	Temperatura mínima	19.9
158868	7	Sololá	719	Santiago Atitlán	14	Cerro de Oro	7	Julio	2023-05-07T00:00:00	2024-11-08T17:00:00	5	Humedad	88
158869	7	Sololá	719	Santiago Atitlán	14	Cerro de Oro	7	Julio	2023-05-07T00:00:00	2024-11-08T17:00:00	6	Velocidad del viento	9.7
158870	7	Sololá	719	Santiago Atitlán	14	Cerro de Oro	7	Julio	2023-05-07T00:00:00	2024-11-08T17:00:00	7	Dirección del viento	9.66
158871	7	Sololá	719	Santiago Atitlán	14	Cerro de Oro	7	Julio	2023-05-07T00:00:00	2024-11-08T17:00:00	1	Precipitación	0
158872	7	Sololá	719	Santiago Atitlán	14	Cerro de Oro	7	Julio	2023-05-07T00:00:00	2024-11-08T17:00:00	8	Radiación solar	232
158873	7	Sololá	719	Santiago Atitlán	14	Cerro de Oro	7	Julio	2023-05-07T00:00:00	2024-11-08T18:00:00	2	Temperatura media	20.1
158874	7	Sololá	719	Santiago Atitlán	14	Cerro de Oro	7	Julio	2023-05-07T00:00:00	2024-11-08T18:00:00	4	Temperatura máxima	21.1
158875	7	Sololá	719	Santiago Atitlán	14	Cerro de Oro	7	Julio	2023-05-07T00:00:00	2024-11-08T18:00:00	3	Temperatura mínima	20.1
158876	7	Sololá	719	Santiago Atitlán	14	Cerro de Oro	7	Julio	2023-05-07T00:00:00	2024-11-08T18:00:00	5	Humedad	88
158877	7	Sololá	719	Santiago Atitlán	14	Cerro de Oro	7	Julio	2023-05-07T00:00:00	2024-11-08T18:00:00	6	Velocidad del viento	8
158878	7	Sololá	719	Santiago Atitlán	14	Cerro de Oro	7	Julio	2023-05-07T00:00:00	2024-11-08T18:00:00	7	Dirección del viento	8.05
158879	7	Sololá	719	Santiago Atitlán	14	Cerro de Oro	7	Julio	2023-05-07T00:00:00	2024-11-08T18:00:00	1	Precipitación	0
158880	7	Sololá	719	Santiago Atitlán	14	Cerro de Oro	7	Julio	2023-05-07T00:00:00	2024-11-08T18:00:00	8	Radiación solar	119
158881	7	Sololá	719	Santiago Atitlán	14	Cerro de Oro	7	Julio	2023-05-07T00:00:00	2024-11-08T19:00:00	2	Temperatura media	19.3
158882	7	Sololá	719	Santiago Atitlán	14	Cerro de Oro	7	Julio	2023-05-07T00:00:00	2024-11-08T19:00:00	4	Temperatura máxima	20.1
158883	7	Sololá	719	Santiago Atitlán	14	Cerro de Oro	7	Julio	2023-05-07T00:00:00	2024-11-08T19:00:00	3	Temperatura mínima	19.3
158884	7	Sololá	719	Santiago Atitlán	14	Cerro de Oro	7	Julio	2023-05-07T00:00:00	2024-11-08T19:00:00	5	Humedad	90
158885	7	Sololá	719	Santiago Atitlán	14	Cerro de Oro	7	Julio	2023-05-07T00:00:00	2024-11-08T19:00:00	6	Velocidad del viento	4.8
158886	7	Sololá	719	Santiago Atitlán	14	Cerro de Oro	7	Julio	2023-05-07T00:00:00	2024-11-08T19:00:00	7	Dirección del viento	4.83
158887	7	Sololá	719	Santiago Atitlán	14	Cerro de Oro	7	Julio	2023-05-07T00:00:00	2024-11-08T19:00:00	1	Precipitación	0
158888	7	Sololá	719	Santiago Atitlán	14	Cerro de Oro	7	Julio	2023-05-07T00:00:00	2024-11-08T19:00:00	8	Radiación solar	0
158889	7	Sololá	719	Santiago Atitlán	14	Cerro de Oro	7	Julio	2023-05-07T00:00:00	2024-11-08T20:00:00	2	Temperatura media	18.9
158890	7	Sololá	719	Santiago Atitlán	14	Cerro de Oro	7	Julio	2023-05-07T00:00:00	2024-11-08T20:00:00	4	Temperatura máxima	19.3
158891	7	Sololá	719	Santiago Atitlán	14	Cerro de Oro	7	Julio	2023-05-07T00:00:00	2024-11-08T20:00:00	3	Temperatura mínima	18.8
158892	7	Sololá	719	Santiago Atitlán	14	Cerro de Oro	7	Julio	2023-05-07T00:00:00	2024-11-08T20:00:00	5	Humedad	88
158893	7	Sololá	719	Santiago Atitlán	14	Cerro de Oro	7	Julio	2023-05-07T00:00:00	2024-11-08T20:00:00	6	Velocidad del viento	4.8
158894	7	Sololá	719	Santiago Atitlán	14	Cerro de Oro	7	Julio	2023-05-07T00:00:00	2024-11-08T20:00:00	7	Dirección del viento	4.83
158895	7	Sololá	719	Santiago Atitlán	14	Cerro de Oro	7	Julio	2023-05-07T00:00:00	2024-11-08T20:00:00	1	Precipitación	0
158896	7	Sololá	719	Santiago Atitlán	14	Cerro de Oro	7	Julio	2023-05-07T00:00:00	2024-11-08T20:00:00	8	Radiación solar	0
158897	7	Sololá	719	Santiago Atitlán	14	Cerro de Oro	7	Julio	2023-05-07T00:00:00	2024-11-08T21:00:00	2	Temperatura media	19
158898	7	Sololá	719	Santiago Atitlán	14	Cerro de Oro	7	Julio	2023-05-07T00:00:00	2024-11-08T21:00:00	4	Temperatura máxima	19.2
158899	7	Sololá	719	Santiago Atitlán	14	Cerro de Oro	7	Julio	2023-05-07T00:00:00	2024-11-08T21:00:00	3	Temperatura mínima	18.7
158900	7	Sololá	719	Santiago Atitlán	14	Cerro de Oro	7	Julio	2023-05-07T00:00:00	2024-11-08T21:00:00	5	Humedad	79
158901	7	Sololá	719	Santiago Atitlán	14	Cerro de Oro	7	Julio	2023-05-07T00:00:00	2024-11-08T21:00:00	6	Velocidad del viento	6.4
158902	7	Sololá	719	Santiago Atitlán	14	Cerro de Oro	7	Julio	2023-05-07T00:00:00	2024-11-08T21:00:00	7	Dirección del viento	6.44
158903	7	Sololá	719	Santiago Atitlán	14	Cerro de Oro	7	Julio	2023-05-07T00:00:00	2024-11-08T21:00:00	1	Precipitación	0
158904	7	Sololá	719	Santiago Atitlán	14	Cerro de Oro	7	Julio	2023-05-07T00:00:00	2024-11-08T21:00:00	8	Radiación solar	0
158905	7	Sololá	719	Santiago Atitlán	14	Cerro de Oro	7	Julio	2023-05-07T00:00:00	2024-11-08T22:00:00	2	Temperatura media	19.6
158906	7	Sololá	719	Santiago Atitlán	14	Cerro de Oro	7	Julio	2023-05-07T00:00:00	2024-11-08T22:00:00	4	Temperatura máxima	19.7
158907	7	Sololá	719	Santiago Atitlán	14	Cerro de Oro	7	Julio	2023-05-07T00:00:00	2024-11-08T22:00:00	3	Temperatura mínima	19
158908	7	Sololá	719	Santiago Atitlán	14	Cerro de Oro	7	Julio	2023-05-07T00:00:00	2024-11-08T22:00:00	5	Humedad	78
158909	7	Sololá	719	Santiago Atitlán	14	Cerro de Oro	7	Julio	2023-05-07T00:00:00	2024-11-08T22:00:00	6	Velocidad del viento	6.4
158910	7	Sololá	719	Santiago Atitlán	14	Cerro de Oro	7	Julio	2023-05-07T00:00:00	2024-11-08T22:00:00	7	Dirección del viento	6.44
158911	7	Sololá	719	Santiago Atitlán	14	Cerro de Oro	7	Julio	2023-05-07T00:00:00	2024-11-08T22:00:00	1	Precipitación	0
158912	7	Sololá	719	Santiago Atitlán	14	Cerro de Oro	7	Julio	2023-05-07T00:00:00	2024-11-08T22:00:00	8	Radiación solar	0
158913	7	Sololá	719	Santiago Atitlán	14	Cerro de Oro	7	Julio	2023-05-07T00:00:00	2024-11-08T23:00:00	2	Temperatura media	19.5
158914	7	Sololá	719	Santiago Atitlán	14	Cerro de Oro	7	Julio	2023-05-07T00:00:00	2024-11-08T23:00:00	4	Temperatura máxima	19.7
158915	7	Sololá	719	Santiago Atitlán	14	Cerro de Oro	7	Julio	2023-05-07T00:00:00	2024-11-08T23:00:00	3	Temperatura mínima	19.4
158916	7	Sololá	719	Santiago Atitlán	14	Cerro de Oro	7	Julio	2023-05-07T00:00:00	2024-11-08T23:00:00	5	Humedad	77
158917	7	Sololá	719	Santiago Atitlán	14	Cerro de Oro	7	Julio	2023-05-07T00:00:00	2024-11-08T23:00:00	6	Velocidad del viento	6.4
158918	7	Sololá	719	Santiago Atitlán	14	Cerro de Oro	7	Julio	2023-05-07T00:00:00	2024-11-08T23:00:00	7	Dirección del viento	6.44
158919	7	Sololá	719	Santiago Atitlán	14	Cerro de Oro	7	Julio	2023-05-07T00:00:00	2024-11-08T23:00:00	1	Precipitación	0
158920	7	Sololá	719	Santiago Atitlán	14	Cerro de Oro	7	Julio	2023-05-07T00:00:00	2024-11-08T23:00:00	8	Radiación solar	0
158921	7	Sololá	719	Santiago Atitlán	14	Cerro de Oro	7	Julio	2023-06-07T00:00:00	2024-11-08T00:00:00	2	Temperatura media	19.1
158922	7	Sololá	719	Santiago Atitlán	14	Cerro de Oro	7	Julio	2023-06-07T00:00:00	2024-11-08T00:00:00	4	Temperatura máxima	19.8
158923	7	Sololá	719	Santiago Atitlán	14	Cerro de Oro	7	Julio	2023-06-07T00:00:00	2024-11-08T00:00:00	3	Temperatura mínima	18.7
158924	7	Sololá	719	Santiago Atitlán	14	Cerro de Oro	7	Julio	2023-06-07T00:00:00	2024-11-08T00:00:00	5	Humedad	79
158925	7	Sololá	719	Santiago Atitlán	14	Cerro de Oro	7	Julio	2023-06-07T00:00:00	2024-11-08T00:00:00	6	Velocidad del viento	6.4
158926	7	Sololá	719	Santiago Atitlán	14	Cerro de Oro	7	Julio	2023-06-07T00:00:00	2024-11-08T00:00:00	7	Dirección del viento	6.44
158927	7	Sololá	719	Santiago Atitlán	14	Cerro de Oro	7	Julio	2023-06-07T00:00:00	2024-11-08T00:00:00	1	Precipitación	0
158928	7	Sololá	719	Santiago Atitlán	14	Cerro de Oro	7	Julio	2023-06-07T00:00:00	2024-11-08T00:00:00	8	Radiación solar	0
158929	7	Sololá	719	Santiago Atitlán	14	Cerro de Oro	7	Julio	2023-06-07T00:00:00	2024-11-08T01:00:00	2	Temperatura media	18.9
158930	7	Sololá	719	Santiago Atitlán	14	Cerro de Oro	7	Julio	2023-06-07T00:00:00	2024-11-08T01:00:00	4	Temperatura máxima	19.3
158931	7	Sololá	719	Santiago Atitlán	14	Cerro de Oro	7	Julio	2023-06-07T00:00:00	2024-11-08T01:00:00	3	Temperatura mínima	18.8
158932	7	Sololá	719	Santiago Atitlán	14	Cerro de Oro	7	Julio	2023-06-07T00:00:00	2024-11-08T01:00:00	5	Humedad	80
158933	7	Sololá	719	Santiago Atitlán	14	Cerro de Oro	7	Julio	2023-06-07T00:00:00	2024-11-08T01:00:00	6	Velocidad del viento	6.4
158934	7	Sololá	719	Santiago Atitlán	14	Cerro de Oro	7	Julio	2023-06-07T00:00:00	2024-11-08T01:00:00	7	Dirección del viento	6.44
158935	7	Sololá	719	Santiago Atitlán	14	Cerro de Oro	7	Julio	2023-06-07T00:00:00	2024-11-08T01:00:00	1	Precipitación	0
158936	7	Sololá	719	Santiago Atitlán	14	Cerro de Oro	7	Julio	2023-06-07T00:00:00	2024-11-08T01:00:00	8	Radiación solar	0
158937	7	Sololá	719	Santiago Atitlán	14	Cerro de Oro	7	Julio	2023-06-07T00:00:00	2024-11-08T02:00:00	2	Temperatura media	18.8
158938	7	Sololá	719	Santiago Atitlán	14	Cerro de Oro	7	Julio	2023-06-07T00:00:00	2024-11-08T02:00:00	4	Temperatura máxima	19.1
158939	7	Sololá	719	Santiago Atitlán	14	Cerro de Oro	7	Julio	2023-06-07T00:00:00	2024-11-08T02:00:00	3	Temperatura mínima	18.4
158940	7	Sololá	719	Santiago Atitlán	14	Cerro de Oro	7	Julio	2023-06-07T00:00:00	2024-11-08T02:00:00	5	Humedad	79
158941	7	Sololá	719	Santiago Atitlán	14	Cerro de Oro	7	Julio	2023-06-07T00:00:00	2024-11-08T02:00:00	6	Velocidad del viento	6.4
158942	7	Sololá	719	Santiago Atitlán	14	Cerro de Oro	7	Julio	2023-06-07T00:00:00	2024-11-08T02:00:00	7	Dirección del viento	6.44
158943	7	Sololá	719	Santiago Atitlán	14	Cerro de Oro	7	Julio	2023-06-07T00:00:00	2024-11-08T02:00:00	1	Precipitación	0
158944	7	Sololá	719	Santiago Atitlán	14	Cerro de Oro	7	Julio	2023-06-07T00:00:00	2024-11-08T02:00:00	8	Radiación solar	0
158945	7	Sololá	719	Santiago Atitlán	14	Cerro de Oro	7	Julio	2023-06-07T00:00:00	2024-11-08T03:00:00	2	Temperatura media	18.6
158946	7	Sololá	719	Santiago Atitlán	14	Cerro de Oro	7	Julio	2023-06-07T00:00:00	2024-11-08T03:00:00	4	Temperatura máxima	18.9
158947	7	Sololá	719	Santiago Atitlán	14	Cerro de Oro	7	Julio	2023-06-07T00:00:00	2024-11-08T03:00:00	3	Temperatura mínima	18.6
158948	7	Sololá	719	Santiago Atitlán	14	Cerro de Oro	7	Julio	2023-06-07T00:00:00	2024-11-08T03:00:00	5	Humedad	78
158949	7	Sololá	719	Santiago Atitlán	14	Cerro de Oro	7	Julio	2023-06-07T00:00:00	2024-11-08T03:00:00	6	Velocidad del viento	6.4
158950	7	Sololá	719	Santiago Atitlán	14	Cerro de Oro	7	Julio	2023-06-07T00:00:00	2024-11-08T03:00:00	7	Dirección del viento	6.44
158951	7	Sololá	719	Santiago Atitlán	14	Cerro de Oro	7	Julio	2023-06-07T00:00:00	2024-11-08T03:00:00	1	Precipitación	0
158952	7	Sololá	719	Santiago Atitlán	14	Cerro de Oro	7	Julio	2023-06-07T00:00:00	2024-11-08T03:00:00	8	Radiación solar	0
158953	7	Sololá	719	Santiago Atitlán	14	Cerro de Oro	7	Julio	2023-06-07T00:00:00	2024-11-08T04:00:00	2	Temperatura media	18.3
158954	7	Sololá	719	Santiago Atitlán	14	Cerro de Oro	7	Julio	2023-06-07T00:00:00	2024-11-08T04:00:00	4	Temperatura máxima	19.1
158955	7	Sololá	719	Santiago Atitlán	14	Cerro de Oro	7	Julio	2023-06-07T00:00:00	2024-11-08T04:00:00	3	Temperatura mínima	18.3
158956	7	Sololá	719	Santiago Atitlán	14	Cerro de Oro	7	Julio	2023-06-07T00:00:00	2024-11-08T04:00:00	5	Humedad	80
158957	7	Sololá	719	Santiago Atitlán	14	Cerro de Oro	7	Julio	2023-06-07T00:00:00	2024-11-08T04:00:00	6	Velocidad del viento	3.2
158958	7	Sololá	719	Santiago Atitlán	14	Cerro de Oro	7	Julio	2023-06-07T00:00:00	2024-11-08T04:00:00	7	Dirección del viento	3.22
158959	7	Sololá	719	Santiago Atitlán	14	Cerro de Oro	7	Julio	2023-06-07T00:00:00	2024-11-08T04:00:00	1	Precipitación	0
158960	7	Sololá	719	Santiago Atitlán	14	Cerro de Oro	7	Julio	2023-06-07T00:00:00	2024-11-08T04:00:00	8	Radiación solar	0
158961	7	Sololá	719	Santiago Atitlán	14	Cerro de Oro	7	Julio	2023-06-07T00:00:00	2024-11-08T05:00:00	2	Temperatura media	17.9
158962	7	Sololá	719	Santiago Atitlán	14	Cerro de Oro	7	Julio	2023-06-07T00:00:00	2024-11-08T05:00:00	4	Temperatura máxima	18.3
158963	7	Sololá	719	Santiago Atitlán	14	Cerro de Oro	7	Julio	2023-06-07T00:00:00	2024-11-08T05:00:00	3	Temperatura mínima	17.8
158964	7	Sololá	719	Santiago Atitlán	14	Cerro de Oro	7	Julio	2023-06-07T00:00:00	2024-11-08T05:00:00	5	Humedad	81
158965	7	Sololá	719	Santiago Atitlán	14	Cerro de Oro	7	Julio	2023-06-07T00:00:00	2024-11-08T05:00:00	6	Velocidad del viento	4.8
158966	7	Sololá	719	Santiago Atitlán	14	Cerro de Oro	7	Julio	2023-06-07T00:00:00	2024-11-08T05:00:00	7	Dirección del viento	4.83
158967	7	Sololá	719	Santiago Atitlán	14	Cerro de Oro	7	Julio	2023-06-07T00:00:00	2024-11-08T05:00:00	1	Precipitación	0
158968	7	Sololá	719	Santiago Atitlán	14	Cerro de Oro	7	Julio	2023-06-07T00:00:00	2024-11-08T05:00:00	8	Radiación solar	0
158969	7	Sololá	719	Santiago Atitlán	14	Cerro de Oro	7	Julio	2023-06-07T00:00:00	2024-11-08T06:00:00	2	Temperatura media	18.1
158970	7	Sololá	719	Santiago Atitlán	14	Cerro de Oro	7	Julio	2023-06-07T00:00:00	2024-11-08T06:00:00	4	Temperatura máxima	18.2
158971	7	Sololá	719	Santiago Atitlán	14	Cerro de Oro	7	Julio	2023-06-07T00:00:00	2024-11-08T06:00:00	3	Temperatura mínima	17.6
158972	7	Sololá	719	Santiago Atitlán	14	Cerro de Oro	7	Julio	2023-06-07T00:00:00	2024-11-08T06:00:00	5	Humedad	79
158973	7	Sololá	719	Santiago Atitlán	14	Cerro de Oro	7	Julio	2023-06-07T00:00:00	2024-11-08T06:00:00	6	Velocidad del viento	6.4
158974	7	Sololá	719	Santiago Atitlán	14	Cerro de Oro	7	Julio	2023-06-07T00:00:00	2024-11-08T06:00:00	7	Dirección del viento	6.44
158975	7	Sololá	719	Santiago Atitlán	14	Cerro de Oro	7	Julio	2023-06-07T00:00:00	2024-11-08T06:00:00	1	Precipitación	0
158976	7	Sololá	719	Santiago Atitlán	14	Cerro de Oro	7	Julio	2023-06-07T00:00:00	2024-11-08T06:00:00	8	Radiación solar	4
158977	7	Sololá	719	Santiago Atitlán	14	Cerro de Oro	7	Julio	2023-06-07T00:00:00	2024-11-08T07:00:00	2	Temperatura media	20.8
158978	7	Sololá	719	Santiago Atitlán	14	Cerro de Oro	7	Julio	2023-06-07T00:00:00	2024-11-08T07:00:00	4	Temperatura máxima	20.8
158979	7	Sololá	719	Santiago Atitlán	14	Cerro de Oro	7	Julio	2023-06-07T00:00:00	2024-11-08T07:00:00	3	Temperatura mínima	18.1
158980	7	Sololá	719	Santiago Atitlán	14	Cerro de Oro	7	Julio	2023-06-07T00:00:00	2024-11-08T07:00:00	5	Humedad	73
158981	7	Sololá	719	Santiago Atitlán	14	Cerro de Oro	7	Julio	2023-06-07T00:00:00	2024-11-08T07:00:00	6	Velocidad del viento	4.8
158982	7	Sololá	719	Santiago Atitlán	14	Cerro de Oro	7	Julio	2023-06-07T00:00:00	2024-11-08T07:00:00	7	Dirección del viento	4.83
158983	7	Sololá	719	Santiago Atitlán	14	Cerro de Oro	7	Julio	2023-06-07T00:00:00	2024-11-08T07:00:00	1	Precipitación	0
158984	7	Sololá	719	Santiago Atitlán	14	Cerro de Oro	7	Julio	2023-06-07T00:00:00	2024-11-08T07:00:00	8	Radiación solar	96
158985	7	Sololá	719	Santiago Atitlán	14	Cerro de Oro	7	Julio	2023-06-07T00:00:00	2024-11-08T08:00:00	2	Temperatura media	22.3
158986	7	Sololá	719	Santiago Atitlán	14	Cerro de Oro	7	Julio	2023-06-07T00:00:00	2024-11-08T08:00:00	4	Temperatura máxima	22.4
158987	7	Sololá	719	Santiago Atitlán	14	Cerro de Oro	7	Julio	2023-06-07T00:00:00	2024-11-08T08:00:00	3	Temperatura mínima	20.8
158988	7	Sololá	719	Santiago Atitlán	14	Cerro de Oro	7	Julio	2023-06-07T00:00:00	2024-11-08T08:00:00	5	Humedad	69
158989	7	Sololá	719	Santiago Atitlán	14	Cerro de Oro	7	Julio	2023-06-07T00:00:00	2024-11-08T08:00:00	6	Velocidad del viento	3.2
158990	7	Sololá	719	Santiago Atitlán	14	Cerro de Oro	7	Julio	2023-06-07T00:00:00	2024-11-08T08:00:00	7	Dirección del viento	3.22
158991	7	Sololá	719	Santiago Atitlán	14	Cerro de Oro	7	Julio	2023-06-07T00:00:00	2024-11-08T08:00:00	1	Precipitación	0
158992	7	Sololá	719	Santiago Atitlán	14	Cerro de Oro	7	Julio	2023-06-07T00:00:00	2024-11-08T08:00:00	8	Radiación solar	311
158993	7	Sololá	719	Santiago Atitlán	14	Cerro de Oro	7	Julio	2023-06-07T00:00:00	2024-11-08T09:00:00	2	Temperatura media	22.9
158994	7	Sololá	719	Santiago Atitlán	14	Cerro de Oro	7	Julio	2023-06-07T00:00:00	2024-11-08T09:00:00	4	Temperatura máxima	23.1
158995	7	Sololá	719	Santiago Atitlán	14	Cerro de Oro	7	Julio	2023-06-07T00:00:00	2024-11-08T09:00:00	3	Temperatura mínima	22.1
158996	7	Sololá	719	Santiago Atitlán	14	Cerro de Oro	7	Julio	2023-06-07T00:00:00	2024-11-08T09:00:00	5	Humedad	71
158997	7	Sololá	719	Santiago Atitlán	14	Cerro de Oro	7	Julio	2023-06-07T00:00:00	2024-11-08T09:00:00	6	Velocidad del viento	3.2
158998	7	Sololá	719	Santiago Atitlán	14	Cerro de Oro	7	Julio	2023-06-07T00:00:00	2024-11-08T09:00:00	7	Dirección del viento	3.22
158999	7	Sololá	719	Santiago Atitlán	14	Cerro de Oro	7	Julio	2023-06-07T00:00:00	2024-11-08T09:00:00	1	Precipitación	0
159000	7	Sololá	719	Santiago Atitlán	14	Cerro de Oro	7	Julio	2023-06-07T00:00:00	2024-11-08T09:00:00	8	Radiación solar	444
159001	7	Sololá	719	Santiago Atitlán	14	Cerro de Oro	7	Julio	2023-06-07T00:00:00	2024-11-08T10:00:00	2	Temperatura media	23.4
159002	7	Sololá	719	Santiago Atitlán	14	Cerro de Oro	7	Julio	2023-06-07T00:00:00	2024-11-08T10:00:00	4	Temperatura máxima	23.4
159003	7	Sololá	719	Santiago Atitlán	14	Cerro de Oro	7	Julio	2023-06-07T00:00:00	2024-11-08T10:00:00	3	Temperatura mínima	22.8
159004	7	Sololá	719	Santiago Atitlán	14	Cerro de Oro	7	Julio	2023-06-07T00:00:00	2024-11-08T10:00:00	5	Humedad	70
159005	7	Sololá	719	Santiago Atitlán	14	Cerro de Oro	7	Julio	2023-06-07T00:00:00	2024-11-08T10:00:00	6	Velocidad del viento	4.8
159006	7	Sololá	719	Santiago Atitlán	14	Cerro de Oro	7	Julio	2023-06-07T00:00:00	2024-11-08T10:00:00	7	Dirección del viento	4.83
159007	7	Sololá	719	Santiago Atitlán	14	Cerro de Oro	7	Julio	2023-06-07T00:00:00	2024-11-08T10:00:00	1	Precipitación	0
159008	7	Sololá	719	Santiago Atitlán	14	Cerro de Oro	7	Julio	2023-06-07T00:00:00	2024-11-08T10:00:00	8	Radiación solar	668
159009	7	Sololá	719	Santiago Atitlán	14	Cerro de Oro	7	Julio	2023-06-07T00:00:00	2024-11-08T11:00:00	2	Temperatura media	25.1
159010	7	Sololá	719	Santiago Atitlán	14	Cerro de Oro	7	Julio	2023-06-07T00:00:00	2024-11-08T11:00:00	4	Temperatura máxima	25.4
159011	7	Sololá	719	Santiago Atitlán	14	Cerro de Oro	7	Julio	2023-06-07T00:00:00	2024-11-08T11:00:00	3	Temperatura mínima	23.4
159012	7	Sololá	719	Santiago Atitlán	14	Cerro de Oro	7	Julio	2023-06-07T00:00:00	2024-11-08T11:00:00	5	Humedad	65
159013	7	Sololá	719	Santiago Atitlán	14	Cerro de Oro	7	Julio	2023-06-07T00:00:00	2024-11-08T11:00:00	6	Velocidad del viento	6.4
159014	7	Sololá	719	Santiago Atitlán	14	Cerro de Oro	7	Julio	2023-06-07T00:00:00	2024-11-08T11:00:00	7	Dirección del viento	6.44
159015	7	Sololá	719	Santiago Atitlán	14	Cerro de Oro	7	Julio	2023-06-07T00:00:00	2024-11-08T11:00:00	1	Precipitación	0
159016	7	Sololá	719	Santiago Atitlán	14	Cerro de Oro	7	Julio	2023-06-07T00:00:00	2024-11-08T11:00:00	8	Radiación solar	796
159017	7	Sololá	719	Santiago Atitlán	14	Cerro de Oro	7	Julio	2023-06-07T00:00:00	2024-11-08T12:00:00	2	Temperatura media	24
159018	7	Sololá	719	Santiago Atitlán	14	Cerro de Oro	7	Julio	2023-06-07T00:00:00	2024-11-08T12:00:00	4	Temperatura máxima	25.3
159019	7	Sololá	719	Santiago Atitlán	14	Cerro de Oro	7	Julio	2023-06-07T00:00:00	2024-11-08T12:00:00	3	Temperatura mínima	23.6
159020	7	Sololá	719	Santiago Atitlán	14	Cerro de Oro	7	Julio	2023-06-07T00:00:00	2024-11-08T12:00:00	5	Humedad	75
159021	7	Sololá	719	Santiago Atitlán	14	Cerro de Oro	7	Julio	2023-06-07T00:00:00	2024-11-08T12:00:00	6	Velocidad del viento	12.9
159022	7	Sololá	719	Santiago Atitlán	14	Cerro de Oro	7	Julio	2023-06-07T00:00:00	2024-11-08T12:00:00	7	Dirección del viento	12.87
159023	7	Sololá	719	Santiago Atitlán	14	Cerro de Oro	7	Julio	2023-06-07T00:00:00	2024-11-08T12:00:00	1	Precipitación	0
159024	7	Sololá	719	Santiago Atitlán	14	Cerro de Oro	7	Julio	2023-06-07T00:00:00	2024-11-08T12:00:00	8	Radiación solar	937
159025	7	Sololá	719	Santiago Atitlán	14	Cerro de Oro	7	Julio	2023-06-07T00:00:00	2024-11-08T13:00:00	2	Temperatura media	24.6
159026	7	Sololá	719	Santiago Atitlán	14	Cerro de Oro	7	Julio	2023-06-07T00:00:00	2024-11-08T13:00:00	4	Temperatura máxima	24.9
159027	7	Sololá	719	Santiago Atitlán	14	Cerro de Oro	7	Julio	2023-06-07T00:00:00	2024-11-08T13:00:00	3	Temperatura mínima	23.9
159028	7	Sololá	719	Santiago Atitlán	14	Cerro de Oro	7	Julio	2023-06-07T00:00:00	2024-11-08T13:00:00	5	Humedad	74
159029	7	Sololá	719	Santiago Atitlán	14	Cerro de Oro	7	Julio	2023-06-07T00:00:00	2024-11-08T13:00:00	6	Velocidad del viento	11.3
159030	7	Sololá	719	Santiago Atitlán	14	Cerro de Oro	7	Julio	2023-06-07T00:00:00	2024-11-08T13:00:00	7	Dirección del viento	11.27
159031	7	Sololá	719	Santiago Atitlán	14	Cerro de Oro	7	Julio	2023-06-07T00:00:00	2024-11-08T13:00:00	1	Precipitación	0
159032	7	Sololá	719	Santiago Atitlán	14	Cerro de Oro	7	Julio	2023-06-07T00:00:00	2024-11-08T13:00:00	8	Radiación solar	924
159033	7	Sololá	719	Santiago Atitlán	14	Cerro de Oro	7	Julio	2023-06-07T00:00:00	2024-11-08T14:00:00	2	Temperatura media	24.7
159034	7	Sololá	719	Santiago Atitlán	14	Cerro de Oro	7	Julio	2023-06-07T00:00:00	2024-11-08T14:00:00	4	Temperatura máxima	24.7
159035	7	Sololá	719	Santiago Atitlán	14	Cerro de Oro	7	Julio	2023-06-07T00:00:00	2024-11-08T14:00:00	3	Temperatura mínima	24.1
159036	7	Sololá	719	Santiago Atitlán	14	Cerro de Oro	7	Julio	2023-06-07T00:00:00	2024-11-08T14:00:00	5	Humedad	74
159037	7	Sololá	719	Santiago Atitlán	14	Cerro de Oro	7	Julio	2023-06-07T00:00:00	2024-11-08T14:00:00	6	Velocidad del viento	9.7
159038	7	Sololá	719	Santiago Atitlán	14	Cerro de Oro	7	Julio	2023-06-07T00:00:00	2024-11-08T14:00:00	7	Dirección del viento	9.66
159039	7	Sololá	719	Santiago Atitlán	14	Cerro de Oro	7	Julio	2023-06-07T00:00:00	2024-11-08T14:00:00	1	Precipitación	0
159040	7	Sololá	719	Santiago Atitlán	14	Cerro de Oro	7	Julio	2023-06-07T00:00:00	2024-11-08T14:00:00	8	Radiación solar	808
159041	7	Sololá	719	Santiago Atitlán	14	Cerro de Oro	7	Julio	2023-06-07T00:00:00	2024-11-08T15:00:00	2	Temperatura media	22.7
159042	7	Sololá	719	Santiago Atitlán	14	Cerro de Oro	7	Julio	2023-06-07T00:00:00	2024-11-08T15:00:00	4	Temperatura máxima	24.7
159043	7	Sololá	719	Santiago Atitlán	14	Cerro de Oro	7	Julio	2023-06-07T00:00:00	2024-11-08T15:00:00	3	Temperatura mínima	22.7
159044	7	Sololá	719	Santiago Atitlán	14	Cerro de Oro	7	Julio	2023-06-07T00:00:00	2024-11-08T15:00:00	5	Humedad	81
159045	7	Sololá	719	Santiago Atitlán	14	Cerro de Oro	7	Julio	2023-06-07T00:00:00	2024-11-08T15:00:00	6	Velocidad del viento	12.9
159046	7	Sololá	719	Santiago Atitlán	14	Cerro de Oro	7	Julio	2023-06-07T00:00:00	2024-11-08T15:00:00	7	Dirección del viento	12.87
159047	7	Sololá	719	Santiago Atitlán	14	Cerro de Oro	7	Julio	2023-06-07T00:00:00	2024-11-08T15:00:00	1	Precipitación	0
159048	7	Sololá	719	Santiago Atitlán	14	Cerro de Oro	7	Julio	2023-06-07T00:00:00	2024-11-08T15:00:00	8	Radiación solar	807
159049	7	Sololá	719	Santiago Atitlán	14	Cerro de Oro	7	Julio	2023-06-07T00:00:00	2024-11-08T16:00:00	2	Temperatura media	21.7
159050	7	Sololá	719	Santiago Atitlán	14	Cerro de Oro	7	Julio	2023-06-07T00:00:00	2024-11-08T16:00:00	4	Temperatura máxima	23.4
159051	7	Sololá	719	Santiago Atitlán	14	Cerro de Oro	7	Julio	2023-06-07T00:00:00	2024-11-08T16:00:00	3	Temperatura mínima	21.7
159052	7	Sololá	719	Santiago Atitlán	14	Cerro de Oro	7	Julio	2023-06-07T00:00:00	2024-11-08T16:00:00	5	Humedad	82
159053	7	Sololá	719	Santiago Atitlán	14	Cerro de Oro	7	Julio	2023-06-07T00:00:00	2024-11-08T16:00:00	6	Velocidad del viento	11.3
159054	7	Sololá	719	Santiago Atitlán	14	Cerro de Oro	7	Julio	2023-06-07T00:00:00	2024-11-08T16:00:00	7	Dirección del viento	11.27
159055	7	Sololá	719	Santiago Atitlán	14	Cerro de Oro	7	Julio	2023-06-07T00:00:00	2024-11-08T16:00:00	1	Precipitación	0
159056	7	Sololá	719	Santiago Atitlán	14	Cerro de Oro	7	Julio	2023-06-07T00:00:00	2024-11-08T16:00:00	8	Radiación solar	475
159057	7	Sololá	719	Santiago Atitlán	14	Cerro de Oro	7	Julio	2023-06-07T00:00:00	2024-11-08T17:00:00	2	Temperatura media	21.8
159058	7	Sololá	719	Santiago Atitlán	14	Cerro de Oro	7	Julio	2023-06-07T00:00:00	2024-11-08T17:00:00	4	Temperatura máxima	22
159059	7	Sololá	719	Santiago Atitlán	14	Cerro de Oro	7	Julio	2023-06-07T00:00:00	2024-11-08T17:00:00	3	Temperatura mínima	21.4
159060	7	Sololá	719	Santiago Atitlán	14	Cerro de Oro	7	Julio	2023-06-07T00:00:00	2024-11-08T17:00:00	5	Humedad	82
159061	7	Sololá	719	Santiago Atitlán	14	Cerro de Oro	7	Julio	2023-06-07T00:00:00	2024-11-08T17:00:00	6	Velocidad del viento	9.7
159062	7	Sololá	719	Santiago Atitlán	14	Cerro de Oro	7	Julio	2023-06-07T00:00:00	2024-11-08T17:00:00	7	Dirección del viento	9.66
159063	7	Sololá	719	Santiago Atitlán	14	Cerro de Oro	7	Julio	2023-06-07T00:00:00	2024-11-08T17:00:00	1	Precipitación	0
159064	7	Sololá	719	Santiago Atitlán	14	Cerro de Oro	7	Julio	2023-06-07T00:00:00	2024-11-08T17:00:00	8	Radiación solar	244
159065	7	Sololá	719	Santiago Atitlán	14	Cerro de Oro	7	Julio	2023-06-07T00:00:00	2024-11-08T18:00:00	2	Temperatura media	20.7
159066	7	Sololá	719	Santiago Atitlán	14	Cerro de Oro	7	Julio	2023-06-07T00:00:00	2024-11-08T18:00:00	4	Temperatura máxima	21.9
159067	7	Sololá	719	Santiago Atitlán	14	Cerro de Oro	7	Julio	2023-06-07T00:00:00	2024-11-08T18:00:00	3	Temperatura mínima	20.5
159068	7	Sololá	719	Santiago Atitlán	14	Cerro de Oro	7	Julio	2023-06-07T00:00:00	2024-11-08T18:00:00	5	Humedad	86
159069	7	Sololá	719	Santiago Atitlán	14	Cerro de Oro	7	Julio	2023-06-07T00:00:00	2024-11-08T18:00:00	6	Velocidad del viento	9.7
159070	7	Sololá	719	Santiago Atitlán	14	Cerro de Oro	7	Julio	2023-06-07T00:00:00	2024-11-08T18:00:00	7	Dirección del viento	9.66
159071	7	Sololá	719	Santiago Atitlán	14	Cerro de Oro	7	Julio	2023-06-07T00:00:00	2024-11-08T18:00:00	1	Precipitación	0
159072	7	Sololá	719	Santiago Atitlán	14	Cerro de Oro	7	Julio	2023-06-07T00:00:00	2024-11-08T18:00:00	8	Radiación solar	147
159073	7	Sololá	719	Santiago Atitlán	14	Cerro de Oro	7	Julio	2023-06-07T00:00:00	2024-11-08T19:00:00	2	Temperatura media	19.9
159074	7	Sololá	719	Santiago Atitlán	14	Cerro de Oro	7	Julio	2023-06-07T00:00:00	2024-11-08T19:00:00	4	Temperatura máxima	20.7
159075	7	Sololá	719	Santiago Atitlán	14	Cerro de Oro	7	Julio	2023-06-07T00:00:00	2024-11-08T19:00:00	3	Temperatura mínima	19.8
159076	7	Sololá	719	Santiago Atitlán	14	Cerro de Oro	7	Julio	2023-06-07T00:00:00	2024-11-08T19:00:00	5	Humedad	88
159077	7	Sololá	719	Santiago Atitlán	14	Cerro de Oro	7	Julio	2023-06-07T00:00:00	2024-11-08T19:00:00	6	Velocidad del viento	4.8
159078	7	Sololá	719	Santiago Atitlán	14	Cerro de Oro	7	Julio	2023-06-07T00:00:00	2024-11-08T19:00:00	7	Dirección del viento	4.83
159079	7	Sololá	719	Santiago Atitlán	14	Cerro de Oro	7	Julio	2023-06-07T00:00:00	2024-11-08T19:00:00	1	Precipitación	0
159080	7	Sololá	719	Santiago Atitlán	14	Cerro de Oro	7	Julio	2023-06-07T00:00:00	2024-11-08T19:00:00	8	Radiación solar	0
159081	7	Sololá	719	Santiago Atitlán	14	Cerro de Oro	7	Julio	2023-06-07T00:00:00	2024-11-08T20:00:00	2	Temperatura media	19.6
159082	7	Sololá	719	Santiago Atitlán	14	Cerro de Oro	7	Julio	2023-06-07T00:00:00	2024-11-08T20:00:00	4	Temperatura máxima	19.9
159083	7	Sololá	719	Santiago Atitlán	14	Cerro de Oro	7	Julio	2023-06-07T00:00:00	2024-11-08T20:00:00	3	Temperatura mínima	19.6
159084	7	Sololá	719	Santiago Atitlán	14	Cerro de Oro	7	Julio	2023-06-07T00:00:00	2024-11-08T20:00:00	5	Humedad	80
159085	7	Sololá	719	Santiago Atitlán	14	Cerro de Oro	7	Julio	2023-06-07T00:00:00	2024-11-08T20:00:00	6	Velocidad del viento	1.6
159086	7	Sololá	719	Santiago Atitlán	14	Cerro de Oro	7	Julio	2023-06-07T00:00:00	2024-11-08T20:00:00	7	Dirección del viento	1.61
159087	7	Sololá	719	Santiago Atitlán	14	Cerro de Oro	7	Julio	2023-06-07T00:00:00	2024-11-08T20:00:00	1	Precipitación	0
159088	7	Sololá	719	Santiago Atitlán	14	Cerro de Oro	7	Julio	2023-06-07T00:00:00	2024-11-08T20:00:00	8	Radiación solar	0
159089	7	Sololá	719	Santiago Atitlán	14	Cerro de Oro	7	Julio	2023-06-07T00:00:00	2024-11-08T21:00:00	2	Temperatura media	20.1
159090	7	Sololá	719	Santiago Atitlán	14	Cerro de Oro	7	Julio	2023-06-07T00:00:00	2024-11-08T21:00:00	4	Temperatura máxima	20.8
159091	7	Sololá	719	Santiago Atitlán	14	Cerro de Oro	7	Julio	2023-06-07T00:00:00	2024-11-08T21:00:00	3	Temperatura mínima	19.6
159092	7	Sololá	719	Santiago Atitlán	14	Cerro de Oro	7	Julio	2023-06-07T00:00:00	2024-11-08T21:00:00	5	Humedad	71
159093	7	Sololá	719	Santiago Atitlán	14	Cerro de Oro	7	Julio	2023-06-07T00:00:00	2024-11-08T21:00:00	6	Velocidad del viento	6.4
159094	7	Sololá	719	Santiago Atitlán	14	Cerro de Oro	7	Julio	2023-06-07T00:00:00	2024-11-08T21:00:00	7	Dirección del viento	6.44
159095	7	Sololá	719	Santiago Atitlán	14	Cerro de Oro	7	Julio	2023-06-07T00:00:00	2024-11-08T21:00:00	1	Precipitación	0
159096	7	Sololá	719	Santiago Atitlán	14	Cerro de Oro	7	Julio	2023-06-07T00:00:00	2024-11-08T21:00:00	8	Radiación solar	0
159097	7	Sololá	719	Santiago Atitlán	14	Cerro de Oro	7	Julio	2023-06-07T00:00:00	2024-11-08T22:00:00	2	Temperatura media	19.3
159098	7	Sololá	719	Santiago Atitlán	14	Cerro de Oro	7	Julio	2023-06-07T00:00:00	2024-11-08T22:00:00	4	Temperatura máxima	20.1
159099	7	Sololá	719	Santiago Atitlán	14	Cerro de Oro	7	Julio	2023-06-07T00:00:00	2024-11-08T22:00:00	3	Temperatura mínima	19.2
159100	7	Sololá	719	Santiago Atitlán	14	Cerro de Oro	7	Julio	2023-06-07T00:00:00	2024-11-08T22:00:00	5	Humedad	75
159101	7	Sololá	719	Santiago Atitlán	14	Cerro de Oro	7	Julio	2023-06-07T00:00:00	2024-11-08T22:00:00	6	Velocidad del viento	4.8
159102	7	Sololá	719	Santiago Atitlán	14	Cerro de Oro	7	Julio	2023-06-07T00:00:00	2024-11-08T22:00:00	7	Dirección del viento	4.83
159103	7	Sololá	719	Santiago Atitlán	14	Cerro de Oro	7	Julio	2023-06-07T00:00:00	2024-11-08T22:00:00	1	Precipitación	0
159104	7	Sololá	719	Santiago Atitlán	14	Cerro de Oro	7	Julio	2023-06-07T00:00:00	2024-11-08T22:00:00	8	Radiación solar	0
159105	7	Sololá	719	Santiago Atitlán	14	Cerro de Oro	7	Julio	2023-06-07T00:00:00	2024-11-08T23:00:00	2	Temperatura media	18.9
159106	7	Sololá	719	Santiago Atitlán	14	Cerro de Oro	7	Julio	2023-06-07T00:00:00	2024-11-08T23:00:00	4	Temperatura máxima	19.9
159107	7	Sololá	719	Santiago Atitlán	14	Cerro de Oro	7	Julio	2023-06-07T00:00:00	2024-11-08T23:00:00	3	Temperatura mínima	18.9
159108	7	Sololá	719	Santiago Atitlán	14	Cerro de Oro	7	Julio	2023-06-07T00:00:00	2024-11-08T23:00:00	5	Humedad	76
159109	7	Sololá	719	Santiago Atitlán	14	Cerro de Oro	7	Julio	2023-06-07T00:00:00	2024-11-08T23:00:00	6	Velocidad del viento	4.8
159110	7	Sololá	719	Santiago Atitlán	14	Cerro de Oro	7	Julio	2023-06-07T00:00:00	2024-11-08T23:00:00	7	Dirección del viento	4.83
159111	7	Sololá	719	Santiago Atitlán	14	Cerro de Oro	7	Julio	2023-06-07T00:00:00	2024-11-08T23:00:00	1	Precipitación	0
159112	7	Sololá	719	Santiago Atitlán	14	Cerro de Oro	7	Julio	2023-06-07T00:00:00	2024-11-08T23:00:00	8	Radiación solar	0
159113	7	Sololá	719	Santiago Atitlán	14	Cerro de Oro	7	Julio	2023-07-07T00:00:00	2024-11-08T00:00:00	2	Temperatura media	19.2
159114	7	Sololá	719	Santiago Atitlán	14	Cerro de Oro	7	Julio	2023-07-07T00:00:00	2024-11-08T00:00:00	4	Temperatura máxima	19.4
159115	7	Sololá	719	Santiago Atitlán	14	Cerro de Oro	7	Julio	2023-07-07T00:00:00	2024-11-08T00:00:00	3	Temperatura mínima	18.8
159116	7	Sololá	719	Santiago Atitlán	14	Cerro de Oro	7	Julio	2023-07-07T00:00:00	2024-11-08T00:00:00	5	Humedad	77
159117	7	Sololá	719	Santiago Atitlán	14	Cerro de Oro	7	Julio	2023-07-07T00:00:00	2024-11-08T00:00:00	6	Velocidad del viento	4.8
159118	7	Sololá	719	Santiago Atitlán	14	Cerro de Oro	7	Julio	2023-07-07T00:00:00	2024-11-08T00:00:00	7	Dirección del viento	4.83
159119	7	Sololá	719	Santiago Atitlán	14	Cerro de Oro	7	Julio	2023-07-07T00:00:00	2024-11-08T00:00:00	1	Precipitación	0
159120	7	Sololá	719	Santiago Atitlán	14	Cerro de Oro	7	Julio	2023-07-07T00:00:00	2024-11-08T00:00:00	8	Radiación solar	0
159121	7	Sololá	719	Santiago Atitlán	14	Cerro de Oro	7	Julio	2023-07-07T00:00:00	2024-11-08T01:00:00	2	Temperatura media	19.3
159122	7	Sololá	719	Santiago Atitlán	14	Cerro de Oro	7	Julio	2023-07-07T00:00:00	2024-11-08T01:00:00	4	Temperatura máxima	19.7
159123	7	Sololá	719	Santiago Atitlán	14	Cerro de Oro	7	Julio	2023-07-07T00:00:00	2024-11-08T01:00:00	3	Temperatura mínima	18.9
159124	7	Sololá	719	Santiago Atitlán	14	Cerro de Oro	7	Julio	2023-07-07T00:00:00	2024-11-08T01:00:00	5	Humedad	77
159125	7	Sololá	719	Santiago Atitlán	14	Cerro de Oro	7	Julio	2023-07-07T00:00:00	2024-11-08T01:00:00	6	Velocidad del viento	3.2
159126	7	Sololá	719	Santiago Atitlán	14	Cerro de Oro	7	Julio	2023-07-07T00:00:00	2024-11-08T01:00:00	7	Dirección del viento	3.22
159127	7	Sololá	719	Santiago Atitlán	14	Cerro de Oro	7	Julio	2023-07-07T00:00:00	2024-11-08T01:00:00	1	Precipitación	0
159128	7	Sololá	719	Santiago Atitlán	14	Cerro de Oro	7	Julio	2023-07-07T00:00:00	2024-11-08T01:00:00	8	Radiación solar	0
159129	7	Sololá	719	Santiago Atitlán	14	Cerro de Oro	7	Julio	2023-07-07T00:00:00	2024-11-08T02:00:00	2	Temperatura media	19.5
159130	7	Sololá	719	Santiago Atitlán	14	Cerro de Oro	7	Julio	2023-07-07T00:00:00	2024-11-08T02:00:00	4	Temperatura máxima	19.6
159131	7	Sololá	719	Santiago Atitlán	14	Cerro de Oro	7	Julio	2023-07-07T00:00:00	2024-11-08T02:00:00	3	Temperatura mínima	19.2
159132	7	Sololá	719	Santiago Atitlán	14	Cerro de Oro	7	Julio	2023-07-07T00:00:00	2024-11-08T02:00:00	5	Humedad	74
159133	7	Sololá	719	Santiago Atitlán	14	Cerro de Oro	7	Julio	2023-07-07T00:00:00	2024-11-08T02:00:00	6	Velocidad del viento	3.2
159134	7	Sololá	719	Santiago Atitlán	14	Cerro de Oro	7	Julio	2023-07-07T00:00:00	2024-11-08T02:00:00	7	Dirección del viento	3.22
159135	7	Sololá	719	Santiago Atitlán	14	Cerro de Oro	7	Julio	2023-07-07T00:00:00	2024-11-08T02:00:00	1	Precipitación	0
159136	7	Sololá	719	Santiago Atitlán	14	Cerro de Oro	7	Julio	2023-07-07T00:00:00	2024-11-08T02:00:00	8	Radiación solar	0
159137	7	Sololá	719	Santiago Atitlán	14	Cerro de Oro	7	Julio	2023-07-07T00:00:00	2024-11-08T03:00:00	2	Temperatura media	18.7
159138	7	Sololá	719	Santiago Atitlán	14	Cerro de Oro	7	Julio	2023-07-07T00:00:00	2024-11-08T03:00:00	4	Temperatura máxima	19.7
159139	7	Sololá	719	Santiago Atitlán	14	Cerro de Oro	7	Julio	2023-07-07T00:00:00	2024-11-08T03:00:00	3	Temperatura mínima	18.7
159140	7	Sololá	719	Santiago Atitlán	14	Cerro de Oro	7	Julio	2023-07-07T00:00:00	2024-11-08T03:00:00	5	Humedad	78
159141	7	Sololá	719	Santiago Atitlán	14	Cerro de Oro	7	Julio	2023-07-07T00:00:00	2024-11-08T03:00:00	6	Velocidad del viento	3.2
159142	7	Sololá	719	Santiago Atitlán	14	Cerro de Oro	7	Julio	2023-07-07T00:00:00	2024-11-08T03:00:00	7	Dirección del viento	3.22
159143	7	Sololá	719	Santiago Atitlán	14	Cerro de Oro	7	Julio	2023-07-07T00:00:00	2024-11-08T03:00:00	1	Precipitación	0
159144	7	Sololá	719	Santiago Atitlán	14	Cerro de Oro	7	Julio	2023-07-07T00:00:00	2024-11-08T03:00:00	8	Radiación solar	0
159145	7	Sololá	719	Santiago Atitlán	14	Cerro de Oro	7	Julio	2023-07-07T00:00:00	2024-11-08T04:00:00	2	Temperatura media	18.5
159146	7	Sololá	719	Santiago Atitlán	14	Cerro de Oro	7	Julio	2023-07-07T00:00:00	2024-11-08T04:00:00	4	Temperatura máxima	18.8
159147	7	Sololá	719	Santiago Atitlán	14	Cerro de Oro	7	Julio	2023-07-07T00:00:00	2024-11-08T04:00:00	3	Temperatura mínima	18.5
159148	7	Sololá	719	Santiago Atitlán	14	Cerro de Oro	7	Julio	2023-07-07T00:00:00	2024-11-08T04:00:00	5	Humedad	79
159149	7	Sololá	719	Santiago Atitlán	14	Cerro de Oro	7	Julio	2023-07-07T00:00:00	2024-11-08T04:00:00	6	Velocidad del viento	3.2
159150	7	Sololá	719	Santiago Atitlán	14	Cerro de Oro	7	Julio	2023-07-07T00:00:00	2024-11-08T04:00:00	7	Dirección del viento	3.22
159151	7	Sololá	719	Santiago Atitlán	14	Cerro de Oro	7	Julio	2023-07-07T00:00:00	2024-11-08T04:00:00	1	Precipitación	0
159152	7	Sololá	719	Santiago Atitlán	14	Cerro de Oro	7	Julio	2023-07-07T00:00:00	2024-11-08T04:00:00	8	Radiación solar	0
159153	7	Sololá	719	Santiago Atitlán	14	Cerro de Oro	7	Julio	2023-07-07T00:00:00	2024-11-08T05:00:00	2	Temperatura media	18.2
159154	7	Sololá	719	Santiago Atitlán	14	Cerro de Oro	7	Julio	2023-07-07T00:00:00	2024-11-08T05:00:00	4	Temperatura máxima	18.9
159155	7	Sololá	719	Santiago Atitlán	14	Cerro de Oro	7	Julio	2023-07-07T00:00:00	2024-11-08T05:00:00	3	Temperatura mínima	18.2
159156	7	Sololá	719	Santiago Atitlán	14	Cerro de Oro	7	Julio	2023-07-07T00:00:00	2024-11-08T05:00:00	5	Humedad	80
159157	7	Sololá	719	Santiago Atitlán	14	Cerro de Oro	7	Julio	2023-07-07T00:00:00	2024-11-08T05:00:00	6	Velocidad del viento	3.2
159158	7	Sololá	719	Santiago Atitlán	14	Cerro de Oro	7	Julio	2023-07-07T00:00:00	2024-11-08T05:00:00	7	Dirección del viento	3.22
159159	7	Sololá	719	Santiago Atitlán	14	Cerro de Oro	7	Julio	2023-07-07T00:00:00	2024-11-08T05:00:00	1	Precipitación	0
159160	7	Sololá	719	Santiago Atitlán	14	Cerro de Oro	7	Julio	2023-07-07T00:00:00	2024-11-08T05:00:00	8	Radiación solar	0
159161	7	Sololá	719	Santiago Atitlán	14	Cerro de Oro	7	Julio	2023-07-07T00:00:00	2024-11-08T06:00:00	2	Temperatura media	18.4
159162	7	Sololá	719	Santiago Atitlán	14	Cerro de Oro	7	Julio	2023-07-07T00:00:00	2024-11-08T06:00:00	4	Temperatura máxima	18.6
159163	7	Sololá	719	Santiago Atitlán	14	Cerro de Oro	7	Julio	2023-07-07T00:00:00	2024-11-08T06:00:00	3	Temperatura mínima	18
159164	7	Sololá	719	Santiago Atitlán	14	Cerro de Oro	7	Julio	2023-07-07T00:00:00	2024-11-08T06:00:00	5	Humedad	81
159165	7	Sololá	719	Santiago Atitlán	14	Cerro de Oro	7	Julio	2023-07-07T00:00:00	2024-11-08T06:00:00	6	Velocidad del viento	4.8
159166	7	Sololá	719	Santiago Atitlán	14	Cerro de Oro	7	Julio	2023-07-07T00:00:00	2024-11-08T06:00:00	7	Dirección del viento	4.83
159167	7	Sololá	719	Santiago Atitlán	14	Cerro de Oro	7	Julio	2023-07-07T00:00:00	2024-11-08T06:00:00	1	Precipitación	0
159168	7	Sololá	719	Santiago Atitlán	14	Cerro de Oro	7	Julio	2023-07-07T00:00:00	2024-11-08T06:00:00	8	Radiación solar	3
159169	7	Sololá	719	Santiago Atitlán	14	Cerro de Oro	7	Julio	2023-07-07T00:00:00	2024-11-08T07:00:00	2	Temperatura media	19.6
159170	7	Sololá	719	Santiago Atitlán	14	Cerro de Oro	7	Julio	2023-07-07T00:00:00	2024-11-08T07:00:00	4	Temperatura máxima	19.6
159171	7	Sololá	719	Santiago Atitlán	14	Cerro de Oro	7	Julio	2023-07-07T00:00:00	2024-11-08T07:00:00	3	Temperatura mínima	18.4
159172	7	Sololá	719	Santiago Atitlán	14	Cerro de Oro	7	Julio	2023-07-07T00:00:00	2024-11-08T07:00:00	5	Humedad	75
159173	7	Sololá	719	Santiago Atitlán	14	Cerro de Oro	7	Julio	2023-07-07T00:00:00	2024-11-08T07:00:00	6	Velocidad del viento	3.2
159174	7	Sololá	719	Santiago Atitlán	14	Cerro de Oro	7	Julio	2023-07-07T00:00:00	2024-11-08T07:00:00	7	Dirección del viento	3.22
159175	7	Sololá	719	Santiago Atitlán	14	Cerro de Oro	7	Julio	2023-07-07T00:00:00	2024-11-08T07:00:00	1	Precipitación	0
159176	7	Sololá	719	Santiago Atitlán	14	Cerro de Oro	7	Julio	2023-07-07T00:00:00	2024-11-08T07:00:00	8	Radiación solar	77
159177	7	Sololá	719	Santiago Atitlán	14	Cerro de Oro	7	Julio	2023-07-07T00:00:00	2024-11-08T08:00:00	2	Temperatura media	22.8
159178	7	Sololá	719	Santiago Atitlán	14	Cerro de Oro	7	Julio	2023-07-07T00:00:00	2024-11-08T08:00:00	4	Temperatura máxima	22.8
159179	7	Sololá	719	Santiago Atitlán	14	Cerro de Oro	7	Julio	2023-07-07T00:00:00	2024-11-08T08:00:00	3	Temperatura mínima	19.6
159180	7	Sololá	719	Santiago Atitlán	14	Cerro de Oro	7	Julio	2023-07-07T00:00:00	2024-11-08T08:00:00	5	Humedad	65
159181	7	Sololá	719	Santiago Atitlán	14	Cerro de Oro	7	Julio	2023-07-07T00:00:00	2024-11-08T08:00:00	6	Velocidad del viento	4.8
159182	7	Sololá	719	Santiago Atitlán	14	Cerro de Oro	7	Julio	2023-07-07T00:00:00	2024-11-08T08:00:00	7	Dirección del viento	4.83
159183	7	Sololá	719	Santiago Atitlán	14	Cerro de Oro	7	Julio	2023-07-07T00:00:00	2024-11-08T08:00:00	1	Precipitación	0
159184	7	Sololá	719	Santiago Atitlán	14	Cerro de Oro	7	Julio	2023-07-07T00:00:00	2024-11-08T08:00:00	8	Radiación solar	361
159185	7	Sololá	719	Santiago Atitlán	14	Cerro de Oro	7	Julio	2023-07-07T00:00:00	2024-11-08T09:00:00	2	Temperatura media	24.4
159186	7	Sololá	719	Santiago Atitlán	14	Cerro de Oro	7	Julio	2023-07-07T00:00:00	2024-11-08T09:00:00	4	Temperatura máxima	24.9
159187	7	Sololá	719	Santiago Atitlán	14	Cerro de Oro	7	Julio	2023-07-07T00:00:00	2024-11-08T09:00:00	3	Temperatura mínima	22.8
159188	7	Sololá	719	Santiago Atitlán	14	Cerro de Oro	7	Julio	2023-07-07T00:00:00	2024-11-08T09:00:00	5	Humedad	62
159189	7	Sololá	719	Santiago Atitlán	14	Cerro de Oro	7	Julio	2023-07-07T00:00:00	2024-11-08T09:00:00	6	Velocidad del viento	3.2
159190	7	Sololá	719	Santiago Atitlán	14	Cerro de Oro	7	Julio	2023-07-07T00:00:00	2024-11-08T09:00:00	7	Dirección del viento	3.22
159191	7	Sololá	719	Santiago Atitlán	14	Cerro de Oro	7	Julio	2023-07-07T00:00:00	2024-11-08T09:00:00	1	Precipitación	0
159192	7	Sololá	719	Santiago Atitlán	14	Cerro de Oro	7	Julio	2023-07-07T00:00:00	2024-11-08T09:00:00	8	Radiación solar	561
159193	7	Sololá	719	Santiago Atitlán	14	Cerro de Oro	7	Julio	2023-07-07T00:00:00	2024-11-08T10:00:00	2	Temperatura media	23.4
159194	7	Sololá	719	Santiago Atitlán	14	Cerro de Oro	7	Julio	2023-07-07T00:00:00	2024-11-08T10:00:00	4	Temperatura máxima	25.1
159195	7	Sololá	719	Santiago Atitlán	14	Cerro de Oro	7	Julio	2023-07-07T00:00:00	2024-11-08T10:00:00	3	Temperatura mínima	23.3
159196	7	Sololá	719	Santiago Atitlán	14	Cerro de Oro	7	Julio	2023-07-07T00:00:00	2024-11-08T10:00:00	5	Humedad	76
159197	7	Sololá	719	Santiago Atitlán	14	Cerro de Oro	7	Julio	2023-07-07T00:00:00	2024-11-08T10:00:00	6	Velocidad del viento	4.8
159198	7	Sololá	719	Santiago Atitlán	14	Cerro de Oro	7	Julio	2023-07-07T00:00:00	2024-11-08T10:00:00	7	Dirección del viento	4.83
159199	7	Sololá	719	Santiago Atitlán	14	Cerro de Oro	7	Julio	2023-07-07T00:00:00	2024-11-08T10:00:00	1	Precipitación	0
159200	7	Sololá	719	Santiago Atitlán	14	Cerro de Oro	7	Julio	2023-07-07T00:00:00	2024-11-08T10:00:00	8	Radiación solar	772
159201	7	Sololá	719	Santiago Atitlán	14	Cerro de Oro	7	Julio	2023-07-07T00:00:00	2024-11-08T11:00:00	2	Temperatura media	22.8
159202	7	Sololá	719	Santiago Atitlán	14	Cerro de Oro	7	Julio	2023-07-07T00:00:00	2024-11-08T11:00:00	4	Temperatura máxima	23.9
159203	7	Sololá	719	Santiago Atitlán	14	Cerro de Oro	7	Julio	2023-07-07T00:00:00	2024-11-08T11:00:00	3	Temperatura mínima	22.7
159204	7	Sololá	719	Santiago Atitlán	14	Cerro de Oro	7	Julio	2023-07-07T00:00:00	2024-11-08T11:00:00	5	Humedad	77
159205	7	Sololá	719	Santiago Atitlán	14	Cerro de Oro	7	Julio	2023-07-07T00:00:00	2024-11-08T11:00:00	6	Velocidad del viento	12.9
159206	7	Sololá	719	Santiago Atitlán	14	Cerro de Oro	7	Julio	2023-07-07T00:00:00	2024-11-08T11:00:00	7	Dirección del viento	12.87
159207	7	Sololá	719	Santiago Atitlán	14	Cerro de Oro	7	Julio	2023-07-07T00:00:00	2024-11-08T11:00:00	1	Precipitación	0
159208	7	Sololá	719	Santiago Atitlán	14	Cerro de Oro	7	Julio	2023-07-07T00:00:00	2024-11-08T11:00:00	8	Radiación solar	827
159209	7	Sololá	719	Santiago Atitlán	14	Cerro de Oro	7	Julio	2023-07-07T00:00:00	2024-11-08T12:00:00	2	Temperatura media	22.6
159210	7	Sololá	719	Santiago Atitlán	14	Cerro de Oro	7	Julio	2023-07-07T00:00:00	2024-11-08T12:00:00	4	Temperatura máxima	23.5
159211	7	Sololá	719	Santiago Atitlán	14	Cerro de Oro	7	Julio	2023-07-07T00:00:00	2024-11-08T12:00:00	3	Temperatura mínima	22.4
159212	7	Sololá	719	Santiago Atitlán	14	Cerro de Oro	7	Julio	2023-07-07T00:00:00	2024-11-08T12:00:00	5	Humedad	78
159213	7	Sololá	719	Santiago Atitlán	14	Cerro de Oro	7	Julio	2023-07-07T00:00:00	2024-11-08T12:00:00	6	Velocidad del viento	12.9
159214	7	Sololá	719	Santiago Atitlán	14	Cerro de Oro	7	Julio	2023-07-07T00:00:00	2024-11-08T12:00:00	7	Dirección del viento	12.87
159215	7	Sololá	719	Santiago Atitlán	14	Cerro de Oro	7	Julio	2023-07-07T00:00:00	2024-11-08T12:00:00	1	Precipitación	0
159216	7	Sololá	719	Santiago Atitlán	14	Cerro de Oro	7	Julio	2023-07-07T00:00:00	2024-11-08T12:00:00	8	Radiación solar	708
159217	7	Sololá	719	Santiago Atitlán	14	Cerro de Oro	7	Julio	2023-07-07T00:00:00	2024-11-08T13:00:00	2	Temperatura media	22.6
159218	7	Sololá	719	Santiago Atitlán	14	Cerro de Oro	7	Julio	2023-07-07T00:00:00	2024-11-08T13:00:00	4	Temperatura máxima	22.6
159219	7	Sololá	719	Santiago Atitlán	14	Cerro de Oro	7	Julio	2023-07-07T00:00:00	2024-11-08T13:00:00	3	Temperatura mínima	21.6
159220	7	Sololá	719	Santiago Atitlán	14	Cerro de Oro	7	Julio	2023-07-07T00:00:00	2024-11-08T13:00:00	5	Humedad	82
159221	7	Sololá	719	Santiago Atitlán	14	Cerro de Oro	7	Julio	2023-07-07T00:00:00	2024-11-08T13:00:00	6	Velocidad del viento	9.7
159222	7	Sololá	719	Santiago Atitlán	14	Cerro de Oro	7	Julio	2023-07-07T00:00:00	2024-11-08T13:00:00	7	Dirección del viento	9.66
159223	7	Sololá	719	Santiago Atitlán	14	Cerro de Oro	7	Julio	2023-07-07T00:00:00	2024-11-08T13:00:00	1	Precipitación	0
159224	7	Sololá	719	Santiago Atitlán	14	Cerro de Oro	7	Julio	2023-07-07T00:00:00	2024-11-08T13:00:00	8	Radiación solar	307
159225	7	Sololá	719	Santiago Atitlán	14	Cerro de Oro	7	Julio	2023-07-07T00:00:00	2024-11-08T14:00:00	2	Temperatura media	21.3
159226	7	Sololá	719	Santiago Atitlán	14	Cerro de Oro	7	Julio	2023-07-07T00:00:00	2024-11-08T14:00:00	4	Temperatura máxima	22.6
159227	7	Sololá	719	Santiago Atitlán	14	Cerro de Oro	7	Julio	2023-07-07T00:00:00	2024-11-08T14:00:00	3	Temperatura mínima	21.1
159228	7	Sololá	719	Santiago Atitlán	14	Cerro de Oro	7	Julio	2023-07-07T00:00:00	2024-11-08T14:00:00	5	Humedad	84
159229	7	Sololá	719	Santiago Atitlán	14	Cerro de Oro	7	Julio	2023-07-07T00:00:00	2024-11-08T14:00:00	6	Velocidad del viento	8
159230	7	Sololá	719	Santiago Atitlán	14	Cerro de Oro	7	Julio	2023-07-07T00:00:00	2024-11-08T14:00:00	7	Dirección del viento	8.05
159231	7	Sololá	719	Santiago Atitlán	14	Cerro de Oro	7	Julio	2023-07-07T00:00:00	2024-11-08T14:00:00	1	Precipitación	0
159232	7	Sololá	719	Santiago Atitlán	14	Cerro de Oro	7	Julio	2023-07-07T00:00:00	2024-11-08T14:00:00	8	Radiación solar	287
159233	7	Sololá	719	Santiago Atitlán	14	Cerro de Oro	7	Julio	2023-07-07T00:00:00	2024-11-08T15:00:00	2	Temperatura media	19.7
159234	7	Sololá	719	Santiago Atitlán	14	Cerro de Oro	7	Julio	2023-07-07T00:00:00	2024-11-08T15:00:00	4	Temperatura máxima	21.5
159235	7	Sololá	719	Santiago Atitlán	14	Cerro de Oro	7	Julio	2023-07-07T00:00:00	2024-11-08T15:00:00	3	Temperatura mínima	19.6
159236	7	Sololá	719	Santiago Atitlán	14	Cerro de Oro	7	Julio	2023-07-07T00:00:00	2024-11-08T15:00:00	5	Humedad	88
159237	7	Sololá	719	Santiago Atitlán	14	Cerro de Oro	7	Julio	2023-07-07T00:00:00	2024-11-08T15:00:00	6	Velocidad del viento	11.3
159238	7	Sololá	719	Santiago Atitlán	14	Cerro de Oro	7	Julio	2023-07-07T00:00:00	2024-11-08T15:00:00	7	Dirección del viento	11.27
159239	7	Sololá	719	Santiago Atitlán	14	Cerro de Oro	7	Julio	2023-07-07T00:00:00	2024-11-08T15:00:00	1	Precipitación	0
159240	7	Sololá	719	Santiago Atitlán	14	Cerro de Oro	7	Julio	2023-07-07T00:00:00	2024-11-08T15:00:00	8	Radiación solar	145
159241	7	Sololá	719	Santiago Atitlán	14	Cerro de Oro	7	Julio	2023-07-07T00:00:00	2024-11-08T16:00:00	2	Temperatura media	17.6
159242	7	Sololá	719	Santiago Atitlán	14	Cerro de Oro	7	Julio	2023-07-07T00:00:00	2024-11-08T16:00:00	4	Temperatura máxima	19.7
159243	7	Sololá	719	Santiago Atitlán	14	Cerro de Oro	7	Julio	2023-07-07T00:00:00	2024-11-08T16:00:00	3	Temperatura mínima	17.6
159244	7	Sololá	719	Santiago Atitlán	14	Cerro de Oro	7	Julio	2023-07-07T00:00:00	2024-11-08T16:00:00	5	Humedad	92
159245	7	Sololá	719	Santiago Atitlán	14	Cerro de Oro	7	Julio	2023-07-07T00:00:00	2024-11-08T16:00:00	6	Velocidad del viento	9.7
159246	7	Sololá	719	Santiago Atitlán	14	Cerro de Oro	7	Julio	2023-07-07T00:00:00	2024-11-08T16:00:00	7	Dirección del viento	9.66
159247	7	Sololá	719	Santiago Atitlán	14	Cerro de Oro	7	Julio	2023-07-07T00:00:00	2024-11-08T16:00:00	1	Precipitación	1
159248	7	Sololá	719	Santiago Atitlán	14	Cerro de Oro	7	Julio	2023-07-07T00:00:00	2024-11-08T16:00:00	8	Radiación solar	18
159249	7	Sololá	719	Santiago Atitlán	14	Cerro de Oro	7	Julio	2023-07-07T00:00:00	2024-11-08T17:00:00	2	Temperatura media	17.3
159250	7	Sololá	719	Santiago Atitlán	14	Cerro de Oro	7	Julio	2023-07-07T00:00:00	2024-11-08T17:00:00	4	Temperatura máxima	17.7
159251	7	Sololá	719	Santiago Atitlán	14	Cerro de Oro	7	Julio	2023-07-07T00:00:00	2024-11-08T17:00:00	3	Temperatura mínima	17.2
159252	7	Sololá	719	Santiago Atitlán	14	Cerro de Oro	7	Julio	2023-07-07T00:00:00	2024-11-08T17:00:00	5	Humedad	93
159253	7	Sololá	719	Santiago Atitlán	14	Cerro de Oro	7	Julio	2023-07-07T00:00:00	2024-11-08T17:00:00	6	Velocidad del viento	6.4
159254	7	Sololá	719	Santiago Atitlán	14	Cerro de Oro	7	Julio	2023-07-07T00:00:00	2024-11-08T17:00:00	7	Dirección del viento	6.44
159255	7	Sololá	719	Santiago Atitlán	14	Cerro de Oro	7	Julio	2023-07-07T00:00:00	2024-11-08T17:00:00	1	Precipitación	10
159256	7	Sololá	719	Santiago Atitlán	14	Cerro de Oro	7	Julio	2023-07-07T00:00:00	2024-11-08T17:00:00	8	Radiación solar	6
159257	7	Sololá	719	Santiago Atitlán	14	Cerro de Oro	7	Julio	2023-07-07T00:00:00	2024-11-08T18:00:00	2	Temperatura media	17.2
159258	7	Sololá	719	Santiago Atitlán	14	Cerro de Oro	7	Julio	2023-07-07T00:00:00	2024-11-08T18:00:00	4	Temperatura máxima	17.3
159259	7	Sololá	719	Santiago Atitlán	14	Cerro de Oro	7	Julio	2023-07-07T00:00:00	2024-11-08T18:00:00	3	Temperatura mínima	17.1
159260	7	Sololá	719	Santiago Atitlán	14	Cerro de Oro	7	Julio	2023-07-07T00:00:00	2024-11-08T18:00:00	5	Humedad	93
159261	7	Sololá	719	Santiago Atitlán	14	Cerro de Oro	7	Julio	2023-07-07T00:00:00	2024-11-08T18:00:00	6	Velocidad del viento	1.6
159262	7	Sololá	719	Santiago Atitlán	14	Cerro de Oro	7	Julio	2023-07-07T00:00:00	2024-11-08T18:00:00	7	Dirección del viento	1.61
159263	7	Sololá	719	Santiago Atitlán	14	Cerro de Oro	7	Julio	2023-07-07T00:00:00	2024-11-08T18:00:00	1	Precipitación	6
159264	7	Sololá	719	Santiago Atitlán	14	Cerro de Oro	7	Julio	2023-07-07T00:00:00	2024-11-08T18:00:00	8	Radiación solar	10
159265	7	Sololá	719	Santiago Atitlán	14	Cerro de Oro	7	Julio	2023-07-07T00:00:00	2024-11-08T19:00:00	2	Temperatura media	17.4
159266	7	Sololá	719	Santiago Atitlán	14	Cerro de Oro	7	Julio	2023-07-07T00:00:00	2024-11-08T19:00:00	4	Temperatura máxima	17.5
159267	7	Sololá	719	Santiago Atitlán	14	Cerro de Oro	7	Julio	2023-07-07T00:00:00	2024-11-08T19:00:00	3	Temperatura mínima	17.2
159268	7	Sololá	719	Santiago Atitlán	14	Cerro de Oro	7	Julio	2023-07-07T00:00:00	2024-11-08T19:00:00	5	Humedad	93
159269	7	Sololá	719	Santiago Atitlán	14	Cerro de Oro	7	Julio	2023-07-07T00:00:00	2024-11-08T19:00:00	6	Velocidad del viento	3.2
159270	7	Sololá	719	Santiago Atitlán	14	Cerro de Oro	7	Julio	2023-07-07T00:00:00	2024-11-08T19:00:00	7	Dirección del viento	3.22
159271	7	Sololá	719	Santiago Atitlán	14	Cerro de Oro	7	Julio	2023-07-07T00:00:00	2024-11-08T19:00:00	1	Precipitación	0.4
159272	7	Sololá	719	Santiago Atitlán	14	Cerro de Oro	7	Julio	2023-07-07T00:00:00	2024-11-08T19:00:00	8	Radiación solar	0
159273	7	Sololá	719	Santiago Atitlán	14	Cerro de Oro	7	Julio	2023-07-07T00:00:00	2024-11-08T20:00:00	2	Temperatura media	17.2
159274	7	Sololá	719	Santiago Atitlán	14	Cerro de Oro	7	Julio	2023-07-07T00:00:00	2024-11-08T20:00:00	4	Temperatura máxima	17.5
159275	7	Sololá	719	Santiago Atitlán	14	Cerro de Oro	7	Julio	2023-07-07T00:00:00	2024-11-08T20:00:00	3	Temperatura mínima	17.1
159276	7	Sololá	719	Santiago Atitlán	14	Cerro de Oro	7	Julio	2023-07-07T00:00:00	2024-11-08T20:00:00	5	Humedad	92
159277	7	Sololá	719	Santiago Atitlán	14	Cerro de Oro	7	Julio	2023-07-07T00:00:00	2024-11-08T20:00:00	6	Velocidad del viento	3.2
159278	7	Sololá	719	Santiago Atitlán	14	Cerro de Oro	7	Julio	2023-07-07T00:00:00	2024-11-08T20:00:00	7	Dirección del viento	3.22
159279	7	Sololá	719	Santiago Atitlán	14	Cerro de Oro	7	Julio	2023-07-07T00:00:00	2024-11-08T20:00:00	1	Precipitación	0
159280	7	Sololá	719	Santiago Atitlán	14	Cerro de Oro	7	Julio	2023-07-07T00:00:00	2024-11-08T20:00:00	8	Radiación solar	0
159281	7	Sololá	719	Santiago Atitlán	14	Cerro de Oro	7	Julio	2023-07-07T00:00:00	2024-11-08T21:00:00	2	Temperatura media	17.4
159282	7	Sololá	719	Santiago Atitlán	14	Cerro de Oro	7	Julio	2023-07-07T00:00:00	2024-11-08T21:00:00	4	Temperatura máxima	17.4
159283	7	Sololá	719	Santiago Atitlán	14	Cerro de Oro	7	Julio	2023-07-07T00:00:00	2024-11-08T21:00:00	3	Temperatura mínima	16.8
159284	7	Sololá	719	Santiago Atitlán	14	Cerro de Oro	7	Julio	2023-07-07T00:00:00	2024-11-08T21:00:00	5	Humedad	91
159285	7	Sololá	719	Santiago Atitlán	14	Cerro de Oro	7	Julio	2023-07-07T00:00:00	2024-11-08T21:00:00	6	Velocidad del viento	4.8
159286	7	Sololá	719	Santiago Atitlán	14	Cerro de Oro	7	Julio	2023-07-07T00:00:00	2024-11-08T21:00:00	7	Dirección del viento	4.83
159287	7	Sololá	719	Santiago Atitlán	14	Cerro de Oro	7	Julio	2023-07-07T00:00:00	2024-11-08T21:00:00	1	Precipitación	0
159288	7	Sololá	719	Santiago Atitlán	14	Cerro de Oro	7	Julio	2023-07-07T00:00:00	2024-11-08T21:00:00	8	Radiación solar	0
159289	7	Sololá	719	Santiago Atitlán	14	Cerro de Oro	7	Julio	2023-07-07T00:00:00	2024-11-08T22:00:00	2	Temperatura media	17.8
159290	7	Sololá	719	Santiago Atitlán	14	Cerro de Oro	7	Julio	2023-07-07T00:00:00	2024-11-08T22:00:00	4	Temperatura máxima	17.8
159291	7	Sololá	719	Santiago Atitlán	14	Cerro de Oro	7	Julio	2023-07-07T00:00:00	2024-11-08T22:00:00	3	Temperatura mínima	17.1
159292	7	Sololá	719	Santiago Atitlán	14	Cerro de Oro	7	Julio	2023-07-07T00:00:00	2024-11-08T22:00:00	5	Humedad	92
159293	7	Sololá	719	Santiago Atitlán	14	Cerro de Oro	7	Julio	2023-07-07T00:00:00	2024-11-08T22:00:00	6	Velocidad del viento	4.8
159294	7	Sololá	719	Santiago Atitlán	14	Cerro de Oro	7	Julio	2023-07-07T00:00:00	2024-11-08T22:00:00	7	Dirección del viento	4.83
159295	7	Sololá	719	Santiago Atitlán	14	Cerro de Oro	7	Julio	2023-07-07T00:00:00	2024-11-08T22:00:00	1	Precipitación	0
159296	7	Sololá	719	Santiago Atitlán	14	Cerro de Oro	7	Julio	2023-07-07T00:00:00	2024-11-08T22:00:00	8	Radiación solar	0
159297	7	Sololá	719	Santiago Atitlán	14	Cerro de Oro	7	Julio	2023-07-07T00:00:00	2024-11-08T23:00:00	2	Temperatura media	17.6
159298	7	Sololá	719	Santiago Atitlán	14	Cerro de Oro	7	Julio	2023-07-07T00:00:00	2024-11-08T23:00:00	4	Temperatura máxima	17.8
159299	7	Sololá	719	Santiago Atitlán	14	Cerro de Oro	7	Julio	2023-07-07T00:00:00	2024-11-08T23:00:00	3	Temperatura mínima	17.2
159300	7	Sololá	719	Santiago Atitlán	14	Cerro de Oro	7	Julio	2023-07-07T00:00:00	2024-11-08T23:00:00	5	Humedad	92
159301	7	Sololá	719	Santiago Atitlán	14	Cerro de Oro	7	Julio	2023-07-07T00:00:00	2024-11-08T23:00:00	6	Velocidad del viento	3.2
159302	7	Sololá	719	Santiago Atitlán	14	Cerro de Oro	7	Julio	2023-07-07T00:00:00	2024-11-08T23:00:00	7	Dirección del viento	3.22
159303	7	Sololá	719	Santiago Atitlán	14	Cerro de Oro	7	Julio	2023-07-07T00:00:00	2024-11-08T23:00:00	1	Precipitación	0
159304	7	Sololá	719	Santiago Atitlán	14	Cerro de Oro	7	Julio	2023-07-07T00:00:00	2024-11-08T23:00:00	8	Radiación solar	0
159305	7	Sololá	719	Santiago Atitlán	14	Cerro de Oro	7	Julio	2023-08-07T00:00:00	2024-11-08T00:00:00	2	Temperatura media	17.8
159306	7	Sololá	719	Santiago Atitlán	14	Cerro de Oro	7	Julio	2023-08-07T00:00:00	2024-11-08T00:00:00	4	Temperatura máxima	17.9
159307	7	Sololá	719	Santiago Atitlán	14	Cerro de Oro	7	Julio	2023-08-07T00:00:00	2024-11-08T00:00:00	3	Temperatura mínima	17.5
159308	7	Sololá	719	Santiago Atitlán	14	Cerro de Oro	7	Julio	2023-08-07T00:00:00	2024-11-08T00:00:00	5	Humedad	92
159309	7	Sololá	719	Santiago Atitlán	14	Cerro de Oro	7	Julio	2023-08-07T00:00:00	2024-11-08T00:00:00	6	Velocidad del viento	4.8
159310	7	Sololá	719	Santiago Atitlán	14	Cerro de Oro	7	Julio	2023-08-07T00:00:00	2024-11-08T00:00:00	7	Dirección del viento	4.83
159311	7	Sololá	719	Santiago Atitlán	14	Cerro de Oro	7	Julio	2023-08-07T00:00:00	2024-11-08T00:00:00	1	Precipitación	0
159312	7	Sololá	719	Santiago Atitlán	14	Cerro de Oro	7	Julio	2023-08-07T00:00:00	2024-11-08T00:00:00	8	Radiación solar	0
159313	7	Sololá	719	Santiago Atitlán	14	Cerro de Oro	7	Julio	2023-08-07T00:00:00	2024-11-08T01:00:00	2	Temperatura media	17.5
159314	7	Sololá	719	Santiago Atitlán	14	Cerro de Oro	7	Julio	2023-08-07T00:00:00	2024-11-08T01:00:00	4	Temperatura máxima	17.9
159315	7	Sololá	719	Santiago Atitlán	14	Cerro de Oro	7	Julio	2023-08-07T00:00:00	2024-11-08T01:00:00	3	Temperatura mínima	17.4
159316	7	Sololá	719	Santiago Atitlán	14	Cerro de Oro	7	Julio	2023-08-07T00:00:00	2024-11-08T01:00:00	5	Humedad	91
159317	7	Sololá	719	Santiago Atitlán	14	Cerro de Oro	7	Julio	2023-08-07T00:00:00	2024-11-08T01:00:00	6	Velocidad del viento	4.8
159318	7	Sololá	719	Santiago Atitlán	14	Cerro de Oro	7	Julio	2023-08-07T00:00:00	2024-11-08T01:00:00	7	Dirección del viento	4.83
159319	7	Sololá	719	Santiago Atitlán	14	Cerro de Oro	7	Julio	2023-08-07T00:00:00	2024-11-08T01:00:00	1	Precipitación	0
159320	7	Sololá	719	Santiago Atitlán	14	Cerro de Oro	7	Julio	2023-08-07T00:00:00	2024-11-08T01:00:00	8	Radiación solar	0
159321	7	Sololá	719	Santiago Atitlán	14	Cerro de Oro	7	Julio	2023-08-07T00:00:00	2024-11-08T02:00:00	2	Temperatura media	17.5
159322	7	Sololá	719	Santiago Atitlán	14	Cerro de Oro	7	Julio	2023-08-07T00:00:00	2024-11-08T02:00:00	4	Temperatura máxima	17.6
159323	7	Sololá	719	Santiago Atitlán	14	Cerro de Oro	7	Julio	2023-08-07T00:00:00	2024-11-08T02:00:00	3	Temperatura mínima	17.3
159324	7	Sololá	719	Santiago Atitlán	14	Cerro de Oro	7	Julio	2023-08-07T00:00:00	2024-11-08T02:00:00	5	Humedad	92
159325	7	Sololá	719	Santiago Atitlán	14	Cerro de Oro	7	Julio	2023-08-07T00:00:00	2024-11-08T02:00:00	6	Velocidad del viento	4.8
159326	7	Sololá	719	Santiago Atitlán	14	Cerro de Oro	7	Julio	2023-08-07T00:00:00	2024-11-08T02:00:00	7	Dirección del viento	4.83
159327	7	Sololá	719	Santiago Atitlán	14	Cerro de Oro	7	Julio	2023-08-07T00:00:00	2024-11-08T02:00:00	1	Precipitación	0
159328	7	Sololá	719	Santiago Atitlán	14	Cerro de Oro	7	Julio	2023-08-07T00:00:00	2024-11-08T02:00:00	8	Radiación solar	0
159329	7	Sololá	719	Santiago Atitlán	14	Cerro de Oro	7	Julio	2023-08-07T00:00:00	2024-11-08T03:00:00	2	Temperatura media	17.7
159330	7	Sololá	719	Santiago Atitlán	14	Cerro de Oro	7	Julio	2023-08-07T00:00:00	2024-11-08T03:00:00	4	Temperatura máxima	17.9
159331	7	Sololá	719	Santiago Atitlán	14	Cerro de Oro	7	Julio	2023-08-07T00:00:00	2024-11-08T03:00:00	3	Temperatura mínima	17.5
159332	7	Sololá	719	Santiago Atitlán	14	Cerro de Oro	7	Julio	2023-08-07T00:00:00	2024-11-08T03:00:00	5	Humedad	92
159333	7	Sololá	719	Santiago Atitlán	14	Cerro de Oro	7	Julio	2023-08-07T00:00:00	2024-11-08T03:00:00	6	Velocidad del viento	3.2
159334	7	Sololá	719	Santiago Atitlán	14	Cerro de Oro	7	Julio	2023-08-07T00:00:00	2024-11-08T03:00:00	7	Dirección del viento	3.22
159335	7	Sololá	719	Santiago Atitlán	14	Cerro de Oro	7	Julio	2023-08-07T00:00:00	2024-11-08T03:00:00	1	Precipitación	0
159336	7	Sololá	719	Santiago Atitlán	14	Cerro de Oro	7	Julio	2023-08-07T00:00:00	2024-11-08T03:00:00	8	Radiación solar	0
159337	7	Sololá	719	Santiago Atitlán	14	Cerro de Oro	7	Julio	2023-08-07T00:00:00	2024-11-08T04:00:00	2	Temperatura media	17.6
159338	7	Sololá	719	Santiago Atitlán	14	Cerro de Oro	7	Julio	2023-08-07T00:00:00	2024-11-08T04:00:00	4	Temperatura máxima	17.8
159339	7	Sololá	719	Santiago Atitlán	14	Cerro de Oro	7	Julio	2023-08-07T00:00:00	2024-11-08T04:00:00	3	Temperatura mínima	17.5
159340	7	Sololá	719	Santiago Atitlán	14	Cerro de Oro	7	Julio	2023-08-07T00:00:00	2024-11-08T04:00:00	5	Humedad	92
159341	7	Sololá	719	Santiago Atitlán	14	Cerro de Oro	7	Julio	2023-08-07T00:00:00	2024-11-08T04:00:00	6	Velocidad del viento	1.6
159342	7	Sololá	719	Santiago Atitlán	14	Cerro de Oro	7	Julio	2023-08-07T00:00:00	2024-11-08T04:00:00	7	Dirección del viento	1.61
159343	7	Sololá	719	Santiago Atitlán	14	Cerro de Oro	7	Julio	2023-08-07T00:00:00	2024-11-08T04:00:00	1	Precipitación	0.2
159344	7	Sololá	719	Santiago Atitlán	14	Cerro de Oro	7	Julio	2023-08-07T00:00:00	2024-11-08T04:00:00	8	Radiación solar	0
159345	7	Sololá	719	Santiago Atitlán	14	Cerro de Oro	7	Julio	2023-08-07T00:00:00	2024-11-08T05:00:00	2	Temperatura media	16.9
159346	7	Sololá	719	Santiago Atitlán	14	Cerro de Oro	7	Julio	2023-08-07T00:00:00	2024-11-08T05:00:00	4	Temperatura máxima	17.6
159347	7	Sololá	719	Santiago Atitlán	14	Cerro de Oro	7	Julio	2023-08-07T00:00:00	2024-11-08T05:00:00	3	Temperatura mínima	16.9
159348	7	Sololá	719	Santiago Atitlán	14	Cerro de Oro	7	Julio	2023-08-07T00:00:00	2024-11-08T05:00:00	5	Humedad	93
159349	7	Sololá	719	Santiago Atitlán	14	Cerro de Oro	7	Julio	2023-08-07T00:00:00	2024-11-08T05:00:00	6	Velocidad del viento	3.2
159350	7	Sololá	719	Santiago Atitlán	14	Cerro de Oro	7	Julio	2023-08-07T00:00:00	2024-11-08T05:00:00	7	Dirección del viento	3.22
159351	7	Sololá	719	Santiago Atitlán	14	Cerro de Oro	7	Julio	2023-08-07T00:00:00	2024-11-08T05:00:00	1	Precipitación	0.2
159352	7	Sololá	719	Santiago Atitlán	14	Cerro de Oro	7	Julio	2023-08-07T00:00:00	2024-11-08T05:00:00	8	Radiación solar	0
159353	7	Sololá	719	Santiago Atitlán	14	Cerro de Oro	7	Julio	2023-08-07T00:00:00	2024-11-08T06:00:00	2	Temperatura media	17.2
159354	7	Sololá	719	Santiago Atitlán	14	Cerro de Oro	7	Julio	2023-08-07T00:00:00	2024-11-08T06:00:00	4	Temperatura máxima	17.2
159355	7	Sololá	719	Santiago Atitlán	14	Cerro de Oro	7	Julio	2023-08-07T00:00:00	2024-11-08T06:00:00	3	Temperatura mínima	16.8
159356	7	Sololá	719	Santiago Atitlán	14	Cerro de Oro	7	Julio	2023-08-07T00:00:00	2024-11-08T06:00:00	5	Humedad	92
159357	7	Sololá	719	Santiago Atitlán	14	Cerro de Oro	7	Julio	2023-08-07T00:00:00	2024-11-08T06:00:00	6	Velocidad del viento	4.8
159358	7	Sololá	719	Santiago Atitlán	14	Cerro de Oro	7	Julio	2023-08-07T00:00:00	2024-11-08T06:00:00	7	Dirección del viento	4.83
159359	7	Sololá	719	Santiago Atitlán	14	Cerro de Oro	7	Julio	2023-08-07T00:00:00	2024-11-08T06:00:00	1	Precipitación	0
159360	7	Sololá	719	Santiago Atitlán	14	Cerro de Oro	7	Julio	2023-08-07T00:00:00	2024-11-08T06:00:00	8	Radiación solar	2
159361	7	Sololá	719	Santiago Atitlán	14	Cerro de Oro	7	Julio	2023-08-07T00:00:00	2024-11-08T07:00:00	2	Temperatura media	18.1
159362	7	Sololá	719	Santiago Atitlán	14	Cerro de Oro	7	Julio	2023-08-07T00:00:00	2024-11-08T07:00:00	4	Temperatura máxima	18.2
159363	7	Sololá	719	Santiago Atitlán	14	Cerro de Oro	7	Julio	2023-08-07T00:00:00	2024-11-08T07:00:00	3	Temperatura mínima	17.2
159364	7	Sololá	719	Santiago Atitlán	14	Cerro de Oro	7	Julio	2023-08-07T00:00:00	2024-11-08T07:00:00	5	Humedad	92
159365	7	Sololá	719	Santiago Atitlán	14	Cerro de Oro	7	Julio	2023-08-07T00:00:00	2024-11-08T07:00:00	6	Velocidad del viento	3.2
159366	7	Sololá	719	Santiago Atitlán	14	Cerro de Oro	7	Julio	2023-08-07T00:00:00	2024-11-08T07:00:00	7	Dirección del viento	3.22
159367	7	Sololá	719	Santiago Atitlán	14	Cerro de Oro	7	Julio	2023-08-07T00:00:00	2024-11-08T07:00:00	1	Precipitación	0
159368	7	Sololá	719	Santiago Atitlán	14	Cerro de Oro	7	Julio	2023-08-07T00:00:00	2024-11-08T07:00:00	8	Radiación solar	53
159369	7	Sololá	719	Santiago Atitlán	14	Cerro de Oro	7	Julio	2023-08-07T00:00:00	2024-11-08T08:00:00	2	Temperatura media	19.3
159370	7	Sololá	719	Santiago Atitlán	14	Cerro de Oro	7	Julio	2023-08-07T00:00:00	2024-11-08T08:00:00	4	Temperatura máxima	19.3
159371	7	Sololá	719	Santiago Atitlán	14	Cerro de Oro	7	Julio	2023-08-07T00:00:00	2024-11-08T08:00:00	3	Temperatura mínima	18.1
159372	7	Sololá	719	Santiago Atitlán	14	Cerro de Oro	7	Julio	2023-08-07T00:00:00	2024-11-08T08:00:00	5	Humedad	90
159373	7	Sololá	719	Santiago Atitlán	14	Cerro de Oro	7	Julio	2023-08-07T00:00:00	2024-11-08T08:00:00	6	Velocidad del viento	1.6
159374	7	Sololá	719	Santiago Atitlán	14	Cerro de Oro	7	Julio	2023-08-07T00:00:00	2024-11-08T08:00:00	7	Dirección del viento	1.61
159375	7	Sololá	719	Santiago Atitlán	14	Cerro de Oro	7	Julio	2023-08-07T00:00:00	2024-11-08T08:00:00	1	Precipitación	0
159376	7	Sololá	719	Santiago Atitlán	14	Cerro de Oro	7	Julio	2023-08-07T00:00:00	2024-11-08T08:00:00	8	Radiación solar	136
159377	7	Sololá	719	Santiago Atitlán	14	Cerro de Oro	7	Julio	2023-08-07T00:00:00	2024-11-08T09:00:00	2	Temperatura media	19.9
159378	7	Sololá	719	Santiago Atitlán	14	Cerro de Oro	7	Julio	2023-08-07T00:00:00	2024-11-08T09:00:00	4	Temperatura máxima	20
159379	7	Sololá	719	Santiago Atitlán	14	Cerro de Oro	7	Julio	2023-08-07T00:00:00	2024-11-08T09:00:00	3	Temperatura mínima	19.2
159380	7	Sololá	719	Santiago Atitlán	14	Cerro de Oro	7	Julio	2023-08-07T00:00:00	2024-11-08T09:00:00	5	Humedad	88
159381	7	Sololá	719	Santiago Atitlán	14	Cerro de Oro	7	Julio	2023-08-07T00:00:00	2024-11-08T09:00:00	6	Velocidad del viento	1.6
159382	7	Sololá	719	Santiago Atitlán	14	Cerro de Oro	7	Julio	2023-08-07T00:00:00	2024-11-08T09:00:00	7	Dirección del viento	1.61
159383	7	Sololá	719	Santiago Atitlán	14	Cerro de Oro	7	Julio	2023-08-07T00:00:00	2024-11-08T09:00:00	1	Precipitación	0
159384	7	Sololá	719	Santiago Atitlán	14	Cerro de Oro	7	Julio	2023-08-07T00:00:00	2024-11-08T09:00:00	8	Radiación solar	221
159385	7	Sololá	719	Santiago Atitlán	14	Cerro de Oro	7	Julio	2023-08-07T00:00:00	2024-11-08T10:00:00	2	Temperatura media	20.7
159386	7	Sololá	719	Santiago Atitlán	14	Cerro de Oro	7	Julio	2023-08-07T00:00:00	2024-11-08T10:00:00	4	Temperatura máxima	20.8
159387	7	Sololá	719	Santiago Atitlán	14	Cerro de Oro	7	Julio	2023-08-07T00:00:00	2024-11-08T10:00:00	3	Temperatura mínima	20
159388	7	Sololá	719	Santiago Atitlán	14	Cerro de Oro	7	Julio	2023-08-07T00:00:00	2024-11-08T10:00:00	5	Humedad	84
159389	7	Sololá	719	Santiago Atitlán	14	Cerro de Oro	7	Julio	2023-08-07T00:00:00	2024-11-08T10:00:00	6	Velocidad del viento	3.2
159390	7	Sololá	719	Santiago Atitlán	14	Cerro de Oro	7	Julio	2023-08-07T00:00:00	2024-11-08T10:00:00	7	Dirección del viento	3.22
159391	7	Sololá	719	Santiago Atitlán	14	Cerro de Oro	7	Julio	2023-08-07T00:00:00	2024-11-08T10:00:00	1	Precipitación	0
159392	7	Sololá	719	Santiago Atitlán	14	Cerro de Oro	7	Julio	2023-08-07T00:00:00	2024-11-08T10:00:00	8	Radiación solar	486
159393	7	Sololá	719	Santiago Atitlán	14	Cerro de Oro	7	Julio	2023-08-07T00:00:00	2024-11-08T11:00:00	2	Temperatura media	21.6
159394	7	Sololá	719	Santiago Atitlán	14	Cerro de Oro	7	Julio	2023-08-07T00:00:00	2024-11-08T11:00:00	4	Temperatura máxima	21.6
159395	7	Sololá	719	Santiago Atitlán	14	Cerro de Oro	7	Julio	2023-08-07T00:00:00	2024-11-08T11:00:00	3	Temperatura mínima	20.6
159396	7	Sololá	719	Santiago Atitlán	14	Cerro de Oro	7	Julio	2023-08-07T00:00:00	2024-11-08T11:00:00	5	Humedad	80
159397	7	Sololá	719	Santiago Atitlán	14	Cerro de Oro	7	Julio	2023-08-07T00:00:00	2024-11-08T11:00:00	6	Velocidad del viento	6.4
159398	7	Sololá	719	Santiago Atitlán	14	Cerro de Oro	7	Julio	2023-08-07T00:00:00	2024-11-08T11:00:00	7	Dirección del viento	6.44
159399	7	Sololá	719	Santiago Atitlán	14	Cerro de Oro	7	Julio	2023-08-07T00:00:00	2024-11-08T11:00:00	1	Precipitación	0
159400	7	Sololá	719	Santiago Atitlán	14	Cerro de Oro	7	Julio	2023-08-07T00:00:00	2024-11-08T11:00:00	8	Radiación solar	531
159401	7	Sololá	719	Santiago Atitlán	14	Cerro de Oro	7	Julio	2023-08-07T00:00:00	2024-11-08T12:00:00	2	Temperatura media	22.1
159402	7	Sololá	719	Santiago Atitlán	14	Cerro de Oro	7	Julio	2023-08-07T00:00:00	2024-11-08T12:00:00	4	Temperatura máxima	22.1
159403	7	Sololá	719	Santiago Atitlán	14	Cerro de Oro	7	Julio	2023-08-07T00:00:00	2024-11-08T12:00:00	3	Temperatura mínima	21.3
159404	7	Sololá	719	Santiago Atitlán	14	Cerro de Oro	7	Julio	2023-08-07T00:00:00	2024-11-08T12:00:00	5	Humedad	78
159405	7	Sololá	719	Santiago Atitlán	14	Cerro de Oro	7	Julio	2023-08-07T00:00:00	2024-11-08T12:00:00	6	Velocidad del viento	6.4
159406	7	Sololá	719	Santiago Atitlán	14	Cerro de Oro	7	Julio	2023-08-07T00:00:00	2024-11-08T12:00:00	7	Dirección del viento	6.44
159407	7	Sololá	719	Santiago Atitlán	14	Cerro de Oro	7	Julio	2023-08-07T00:00:00	2024-11-08T12:00:00	1	Precipitación	0
159408	7	Sololá	719	Santiago Atitlán	14	Cerro de Oro	7	Julio	2023-08-07T00:00:00	2024-11-08T12:00:00	8	Radiación solar	499
159409	7	Sololá	719	Santiago Atitlán	14	Cerro de Oro	7	Julio	2023-08-07T00:00:00	2024-11-08T13:00:00	2	Temperatura media	21.4
159410	7	Sololá	719	Santiago Atitlán	14	Cerro de Oro	7	Julio	2023-08-07T00:00:00	2024-11-08T13:00:00	4	Temperatura máxima	22.9
159411	7	Sololá	719	Santiago Atitlán	14	Cerro de Oro	7	Julio	2023-08-07T00:00:00	2024-11-08T13:00:00	3	Temperatura mínima	21.4
159412	7	Sololá	719	Santiago Atitlán	14	Cerro de Oro	7	Julio	2023-08-07T00:00:00	2024-11-08T13:00:00	5	Humedad	82
159413	7	Sololá	719	Santiago Atitlán	14	Cerro de Oro	7	Julio	2023-08-07T00:00:00	2024-11-08T13:00:00	6	Velocidad del viento	6.4
159414	7	Sololá	719	Santiago Atitlán	14	Cerro de Oro	7	Julio	2023-08-07T00:00:00	2024-11-08T13:00:00	7	Dirección del viento	6.44
159415	7	Sololá	719	Santiago Atitlán	14	Cerro de Oro	7	Julio	2023-08-07T00:00:00	2024-11-08T13:00:00	1	Precipitación	0
159416	7	Sololá	719	Santiago Atitlán	14	Cerro de Oro	7	Julio	2023-08-07T00:00:00	2024-11-08T13:00:00	8	Radiación solar	549
159417	7	Sololá	719	Santiago Atitlán	14	Cerro de Oro	7	Julio	2023-08-07T00:00:00	2024-11-08T14:00:00	2	Temperatura media	20.2
159418	7	Sololá	719	Santiago Atitlán	14	Cerro de Oro	7	Julio	2023-08-07T00:00:00	2024-11-08T14:00:00	4	Temperatura máxima	22
159419	7	Sololá	719	Santiago Atitlán	14	Cerro de Oro	7	Julio	2023-08-07T00:00:00	2024-11-08T14:00:00	3	Temperatura mínima	20.2
159420	7	Sololá	719	Santiago Atitlán	14	Cerro de Oro	7	Julio	2023-08-07T00:00:00	2024-11-08T14:00:00	5	Humedad	87
159421	7	Sololá	719	Santiago Atitlán	14	Cerro de Oro	7	Julio	2023-08-07T00:00:00	2024-11-08T14:00:00	6	Velocidad del viento	8
159422	7	Sololá	719	Santiago Atitlán	14	Cerro de Oro	7	Julio	2023-08-07T00:00:00	2024-11-08T14:00:00	7	Dirección del viento	8.05
159423	7	Sololá	719	Santiago Atitlán	14	Cerro de Oro	7	Julio	2023-08-07T00:00:00	2024-11-08T14:00:00	1	Precipitación	0
159424	7	Sololá	719	Santiago Atitlán	14	Cerro de Oro	7	Julio	2023-08-07T00:00:00	2024-11-08T14:00:00	8	Radiación solar	393
159425	7	Sololá	719	Santiago Atitlán	14	Cerro de Oro	7	Julio	2023-08-07T00:00:00	2024-11-08T15:00:00	2	Temperatura media	19.7
159426	7	Sololá	719	Santiago Atitlán	14	Cerro de Oro	7	Julio	2023-08-07T00:00:00	2024-11-08T15:00:00	4	Temperatura máxima	20.7
159427	7	Sololá	719	Santiago Atitlán	14	Cerro de Oro	7	Julio	2023-08-07T00:00:00	2024-11-08T15:00:00	3	Temperatura mínima	19.7
159428	7	Sololá	719	Santiago Atitlán	14	Cerro de Oro	7	Julio	2023-08-07T00:00:00	2024-11-08T15:00:00	5	Humedad	89
159429	7	Sololá	719	Santiago Atitlán	14	Cerro de Oro	7	Julio	2023-08-07T00:00:00	2024-11-08T15:00:00	6	Velocidad del viento	4.8
159430	7	Sololá	719	Santiago Atitlán	14	Cerro de Oro	7	Julio	2023-08-07T00:00:00	2024-11-08T15:00:00	7	Dirección del viento	4.83
159431	7	Sololá	719	Santiago Atitlán	14	Cerro de Oro	7	Julio	2023-08-07T00:00:00	2024-11-08T15:00:00	1	Precipitación	0
159432	7	Sololá	719	Santiago Atitlán	14	Cerro de Oro	7	Julio	2023-08-07T00:00:00	2024-11-08T15:00:00	8	Radiación solar	207
159433	7	Sololá	719	Santiago Atitlán	14	Cerro de Oro	7	Julio	2023-08-07T00:00:00	2024-11-08T16:00:00	2	Temperatura media	18.3
159434	7	Sololá	719	Santiago Atitlán	14	Cerro de Oro	7	Julio	2023-08-07T00:00:00	2024-11-08T16:00:00	4	Temperatura máxima	19.7
159435	7	Sololá	719	Santiago Atitlán	14	Cerro de Oro	7	Julio	2023-08-07T00:00:00	2024-11-08T16:00:00	3	Temperatura mínima	18.2
159436	7	Sololá	719	Santiago Atitlán	14	Cerro de Oro	7	Julio	2023-08-07T00:00:00	2024-11-08T16:00:00	5	Humedad	93
159437	7	Sololá	719	Santiago Atitlán	14	Cerro de Oro	7	Julio	2023-08-07T00:00:00	2024-11-08T16:00:00	6	Velocidad del viento	4.8
159438	7	Sololá	719	Santiago Atitlán	14	Cerro de Oro	7	Julio	2023-08-07T00:00:00	2024-11-08T16:00:00	7	Dirección del viento	4.83
159439	7	Sololá	719	Santiago Atitlán	14	Cerro de Oro	7	Julio	2023-08-07T00:00:00	2024-11-08T16:00:00	1	Precipitación	3.4
159440	7	Sololá	719	Santiago Atitlán	14	Cerro de Oro	7	Julio	2023-08-07T00:00:00	2024-11-08T16:00:00	8	Radiación solar	95
159441	7	Sololá	719	Santiago Atitlán	14	Cerro de Oro	7	Julio	2023-08-07T00:00:00	2024-11-08T17:00:00	2	Temperatura media	17.8
159442	7	Sololá	719	Santiago Atitlán	14	Cerro de Oro	7	Julio	2023-08-07T00:00:00	2024-11-08T17:00:00	4	Temperatura máxima	18.3
159443	7	Sololá	719	Santiago Atitlán	14	Cerro de Oro	7	Julio	2023-08-07T00:00:00	2024-11-08T17:00:00	3	Temperatura mínima	17.8
159444	7	Sololá	719	Santiago Atitlán	14	Cerro de Oro	7	Julio	2023-08-07T00:00:00	2024-11-08T17:00:00	5	Humedad	92
159445	7	Sololá	719	Santiago Atitlán	14	Cerro de Oro	7	Julio	2023-08-07T00:00:00	2024-11-08T17:00:00	6	Velocidad del viento	4.8
159446	7	Sololá	719	Santiago Atitlán	14	Cerro de Oro	7	Julio	2023-08-07T00:00:00	2024-11-08T17:00:00	7	Dirección del viento	4.83
159447	7	Sololá	719	Santiago Atitlán	14	Cerro de Oro	7	Julio	2023-08-07T00:00:00	2024-11-08T17:00:00	1	Precipitación	5
159448	7	Sololá	719	Santiago Atitlán	14	Cerro de Oro	7	Julio	2023-08-07T00:00:00	2024-11-08T17:00:00	8	Radiación solar	20
159449	7	Sololá	719	Santiago Atitlán	14	Cerro de Oro	7	Julio	2023-08-07T00:00:00	2024-11-08T18:00:00	2	Temperatura media	17.7
159450	7	Sololá	719	Santiago Atitlán	14	Cerro de Oro	7	Julio	2023-08-07T00:00:00	2024-11-08T18:00:00	4	Temperatura máxima	17.9
159451	7	Sololá	719	Santiago Atitlán	14	Cerro de Oro	7	Julio	2023-08-07T00:00:00	2024-11-08T18:00:00	3	Temperatura mínima	17.7
159452	7	Sololá	719	Santiago Atitlán	14	Cerro de Oro	7	Julio	2023-08-07T00:00:00	2024-11-08T18:00:00	5	Humedad	92
159453	7	Sololá	719	Santiago Atitlán	14	Cerro de Oro	7	Julio	2023-08-07T00:00:00	2024-11-08T18:00:00	6	Velocidad del viento	3.2
159454	7	Sololá	719	Santiago Atitlán	14	Cerro de Oro	7	Julio	2023-08-07T00:00:00	2024-11-08T18:00:00	7	Dirección del viento	3.22
159455	7	Sololá	719	Santiago Atitlán	14	Cerro de Oro	7	Julio	2023-08-07T00:00:00	2024-11-08T18:00:00	1	Precipitación	0.2
159456	7	Sololá	719	Santiago Atitlán	14	Cerro de Oro	7	Julio	2023-08-07T00:00:00	2024-11-08T18:00:00	8	Radiación solar	21
159457	7	Sololá	719	Santiago Atitlán	14	Cerro de Oro	7	Julio	2023-08-07T00:00:00	2024-11-08T19:00:00	2	Temperatura media	18
159458	7	Sololá	719	Santiago Atitlán	14	Cerro de Oro	7	Julio	2023-08-07T00:00:00	2024-11-08T19:00:00	4	Temperatura máxima	18.1
159459	7	Sololá	719	Santiago Atitlán	14	Cerro de Oro	7	Julio	2023-08-07T00:00:00	2024-11-08T19:00:00	3	Temperatura mínima	17.7
159460	7	Sololá	719	Santiago Atitlán	14	Cerro de Oro	7	Julio	2023-08-07T00:00:00	2024-11-08T19:00:00	5	Humedad	91
159461	7	Sololá	719	Santiago Atitlán	14	Cerro de Oro	7	Julio	2023-08-07T00:00:00	2024-11-08T19:00:00	6	Velocidad del viento	4.8
159462	7	Sololá	719	Santiago Atitlán	14	Cerro de Oro	7	Julio	2023-08-07T00:00:00	2024-11-08T19:00:00	7	Dirección del viento	4.83
159463	7	Sololá	719	Santiago Atitlán	14	Cerro de Oro	7	Julio	2023-08-07T00:00:00	2024-11-08T19:00:00	1	Precipitación	0
159464	7	Sololá	719	Santiago Atitlán	14	Cerro de Oro	7	Julio	2023-08-07T00:00:00	2024-11-08T19:00:00	8	Radiación solar	0
159465	7	Sololá	719	Santiago Atitlán	14	Cerro de Oro	7	Julio	2023-08-07T00:00:00	2024-11-08T20:00:00	2	Temperatura media	18.3
159466	7	Sololá	719	Santiago Atitlán	14	Cerro de Oro	7	Julio	2023-08-07T00:00:00	2024-11-08T20:00:00	4	Temperatura máxima	18.4
159467	7	Sololá	719	Santiago Atitlán	14	Cerro de Oro	7	Julio	2023-08-07T00:00:00	2024-11-08T20:00:00	3	Temperatura mínima	17.9
159468	7	Sololá	719	Santiago Atitlán	14	Cerro de Oro	7	Julio	2023-08-07T00:00:00	2024-11-08T20:00:00	5	Humedad	91
159469	7	Sololá	719	Santiago Atitlán	14	Cerro de Oro	7	Julio	2023-08-07T00:00:00	2024-11-08T20:00:00	6	Velocidad del viento	4.8
159470	7	Sololá	719	Santiago Atitlán	14	Cerro de Oro	7	Julio	2023-08-07T00:00:00	2024-11-08T20:00:00	7	Dirección del viento	4.83
159471	7	Sololá	719	Santiago Atitlán	14	Cerro de Oro	7	Julio	2023-08-07T00:00:00	2024-11-08T20:00:00	1	Precipitación	0
159472	7	Sololá	719	Santiago Atitlán	14	Cerro de Oro	7	Julio	2023-08-07T00:00:00	2024-11-08T20:00:00	8	Radiación solar	0
159473	7	Sololá	719	Santiago Atitlán	14	Cerro de Oro	7	Julio	2023-08-07T00:00:00	2024-11-08T21:00:00	2	Temperatura media	18.3
159474	7	Sololá	719	Santiago Atitlán	14	Cerro de Oro	7	Julio	2023-08-07T00:00:00	2024-11-08T21:00:00	4	Temperatura máxima	18.4
159475	7	Sololá	719	Santiago Atitlán	14	Cerro de Oro	7	Julio	2023-08-07T00:00:00	2024-11-08T21:00:00	3	Temperatura mínima	18.2
159476	7	Sololá	719	Santiago Atitlán	14	Cerro de Oro	7	Julio	2023-08-07T00:00:00	2024-11-08T21:00:00	5	Humedad	89
159477	7	Sololá	719	Santiago Atitlán	14	Cerro de Oro	7	Julio	2023-08-07T00:00:00	2024-11-08T21:00:00	6	Velocidad del viento	4.8
159478	7	Sololá	719	Santiago Atitlán	14	Cerro de Oro	7	Julio	2023-08-07T00:00:00	2024-11-08T21:00:00	7	Dirección del viento	4.83
159479	7	Sololá	719	Santiago Atitlán	14	Cerro de Oro	7	Julio	2023-08-07T00:00:00	2024-11-08T21:00:00	1	Precipitación	0
159480	7	Sololá	719	Santiago Atitlán	14	Cerro de Oro	7	Julio	2023-08-07T00:00:00	2024-11-08T21:00:00	8	Radiación solar	0
159481	7	Sololá	719	Santiago Atitlán	14	Cerro de Oro	7	Julio	2023-08-07T00:00:00	2024-11-08T22:00:00	2	Temperatura media	17.8
159482	7	Sololá	719	Santiago Atitlán	14	Cerro de Oro	7	Julio	2023-08-07T00:00:00	2024-11-08T22:00:00	4	Temperatura máxima	18.4
159483	7	Sololá	719	Santiago Atitlán	14	Cerro de Oro	7	Julio	2023-08-07T00:00:00	2024-11-08T22:00:00	3	Temperatura mínima	17.8
159484	7	Sololá	719	Santiago Atitlán	14	Cerro de Oro	7	Julio	2023-08-07T00:00:00	2024-11-08T22:00:00	5	Humedad	91
159485	7	Sololá	719	Santiago Atitlán	14	Cerro de Oro	7	Julio	2023-08-07T00:00:00	2024-11-08T22:00:00	6	Velocidad del viento	4.8
159486	7	Sololá	719	Santiago Atitlán	14	Cerro de Oro	7	Julio	2023-08-07T00:00:00	2024-11-08T22:00:00	7	Dirección del viento	4.83
159487	7	Sololá	719	Santiago Atitlán	14	Cerro de Oro	7	Julio	2023-08-07T00:00:00	2024-11-08T22:00:00	1	Precipitación	0
159488	7	Sololá	719	Santiago Atitlán	14	Cerro de Oro	7	Julio	2023-08-07T00:00:00	2024-11-08T22:00:00	8	Radiación solar	0
159489	7	Sololá	719	Santiago Atitlán	14	Cerro de Oro	7	Julio	2023-08-07T00:00:00	2024-11-08T23:00:00	2	Temperatura media	18.3
159490	7	Sololá	719	Santiago Atitlán	14	Cerro de Oro	7	Julio	2023-08-07T00:00:00	2024-11-08T23:00:00	4	Temperatura máxima	18.4
159491	7	Sololá	719	Santiago Atitlán	14	Cerro de Oro	7	Julio	2023-08-07T00:00:00	2024-11-08T23:00:00	3	Temperatura mínima	17.8
159492	7	Sololá	719	Santiago Atitlán	14	Cerro de Oro	7	Julio	2023-08-07T00:00:00	2024-11-08T23:00:00	5	Humedad	90
159493	7	Sololá	719	Santiago Atitlán	14	Cerro de Oro	7	Julio	2023-08-07T00:00:00	2024-11-08T23:00:00	6	Velocidad del viento	3.2
159494	7	Sololá	719	Santiago Atitlán	14	Cerro de Oro	7	Julio	2023-08-07T00:00:00	2024-11-08T23:00:00	7	Dirección del viento	3.22
159495	7	Sololá	719	Santiago Atitlán	14	Cerro de Oro	7	Julio	2023-08-07T00:00:00	2024-11-08T23:00:00	1	Precipitación	0
159496	7	Sololá	719	Santiago Atitlán	14	Cerro de Oro	7	Julio	2023-08-07T00:00:00	2024-11-08T23:00:00	8	Radiación solar	0
159497	7	Sololá	719	Santiago Atitlán	14	Cerro de Oro	7	Julio	2023-09-07T00:00:00	2024-11-08T00:00:00	2	Temperatura media	18.4
159498	7	Sololá	719	Santiago Atitlán	14	Cerro de Oro	7	Julio	2023-09-07T00:00:00	2024-11-08T00:00:00	4	Temperatura máxima	18.4
159499	7	Sololá	719	Santiago Atitlán	14	Cerro de Oro	7	Julio	2023-09-07T00:00:00	2024-11-08T00:00:00	3	Temperatura mínima	18.2
159500	7	Sololá	719	Santiago Atitlán	14	Cerro de Oro	7	Julio	2023-09-07T00:00:00	2024-11-08T00:00:00	5	Humedad	91
159501	7	Sololá	719	Santiago Atitlán	14	Cerro de Oro	7	Julio	2023-09-07T00:00:00	2024-11-08T00:00:00	6	Velocidad del viento	3.2
159502	7	Sololá	719	Santiago Atitlán	14	Cerro de Oro	7	Julio	2023-09-07T00:00:00	2024-11-08T00:00:00	7	Dirección del viento	3.22
159503	7	Sololá	719	Santiago Atitlán	14	Cerro de Oro	7	Julio	2023-09-07T00:00:00	2024-11-08T00:00:00	1	Precipitación	0
159504	7	Sololá	719	Santiago Atitlán	14	Cerro de Oro	7	Julio	2023-09-07T00:00:00	2024-11-08T00:00:00	8	Radiación solar	0
159505	7	Sololá	719	Santiago Atitlán	14	Cerro de Oro	7	Julio	2023-09-07T00:00:00	2024-11-08T01:00:00	2	Temperatura media	18
159506	7	Sololá	719	Santiago Atitlán	14	Cerro de Oro	7	Julio	2023-09-07T00:00:00	2024-11-08T01:00:00	4	Temperatura máxima	18.4
159507	7	Sololá	719	Santiago Atitlán	14	Cerro de Oro	7	Julio	2023-09-07T00:00:00	2024-11-08T01:00:00	3	Temperatura mínima	17.9
159508	7	Sololá	719	Santiago Atitlán	14	Cerro de Oro	7	Julio	2023-09-07T00:00:00	2024-11-08T01:00:00	5	Humedad	90
159509	7	Sololá	719	Santiago Atitlán	14	Cerro de Oro	7	Julio	2023-09-07T00:00:00	2024-11-08T01:00:00	6	Velocidad del viento	6.4
159510	7	Sololá	719	Santiago Atitlán	14	Cerro de Oro	7	Julio	2023-09-07T00:00:00	2024-11-08T01:00:00	7	Dirección del viento	6.44
159511	7	Sololá	719	Santiago Atitlán	14	Cerro de Oro	7	Julio	2023-09-07T00:00:00	2024-11-08T01:00:00	1	Precipitación	0
159512	7	Sololá	719	Santiago Atitlán	14	Cerro de Oro	7	Julio	2023-09-07T00:00:00	2024-11-08T01:00:00	8	Radiación solar	0
159513	7	Sololá	719	Santiago Atitlán	14	Cerro de Oro	7	Julio	2023-09-07T00:00:00	2024-11-08T02:00:00	2	Temperatura media	17.7
159514	7	Sololá	719	Santiago Atitlán	14	Cerro de Oro	7	Julio	2023-09-07T00:00:00	2024-11-08T02:00:00	4	Temperatura máxima	18.2
159515	7	Sololá	719	Santiago Atitlán	14	Cerro de Oro	7	Julio	2023-09-07T00:00:00	2024-11-08T02:00:00	3	Temperatura mínima	17.7
159516	7	Sololá	719	Santiago Atitlán	14	Cerro de Oro	7	Julio	2023-09-07T00:00:00	2024-11-08T02:00:00	5	Humedad	90
159517	7	Sololá	719	Santiago Atitlán	14	Cerro de Oro	7	Julio	2023-09-07T00:00:00	2024-11-08T02:00:00	6	Velocidad del viento	4.8
159518	7	Sololá	719	Santiago Atitlán	14	Cerro de Oro	7	Julio	2023-09-07T00:00:00	2024-11-08T02:00:00	7	Dirección del viento	4.83
159519	7	Sololá	719	Santiago Atitlán	14	Cerro de Oro	7	Julio	2023-09-07T00:00:00	2024-11-08T02:00:00	1	Precipitación	0
159520	7	Sololá	719	Santiago Atitlán	14	Cerro de Oro	7	Julio	2023-09-07T00:00:00	2024-11-08T02:00:00	8	Radiación solar	0
159521	7	Sololá	719	Santiago Atitlán	14	Cerro de Oro	7	Julio	2023-09-07T00:00:00	2024-11-08T03:00:00	2	Temperatura media	18.3
159522	7	Sololá	719	Santiago Atitlán	14	Cerro de Oro	7	Julio	2023-09-07T00:00:00	2024-11-08T03:00:00	4	Temperatura máxima	18.3
159523	7	Sololá	719	Santiago Atitlán	14	Cerro de Oro	7	Julio	2023-09-07T00:00:00	2024-11-08T03:00:00	3	Temperatura mínima	17.6
159524	7	Sololá	719	Santiago Atitlán	14	Cerro de Oro	7	Julio	2023-09-07T00:00:00	2024-11-08T03:00:00	5	Humedad	91
159525	7	Sololá	719	Santiago Atitlán	14	Cerro de Oro	7	Julio	2023-09-07T00:00:00	2024-11-08T03:00:00	6	Velocidad del viento	4.8
159526	7	Sololá	719	Santiago Atitlán	14	Cerro de Oro	7	Julio	2023-09-07T00:00:00	2024-11-08T03:00:00	7	Dirección del viento	4.83
159527	7	Sololá	719	Santiago Atitlán	14	Cerro de Oro	7	Julio	2023-09-07T00:00:00	2024-11-08T03:00:00	1	Precipitación	0
159528	7	Sololá	719	Santiago Atitlán	14	Cerro de Oro	7	Julio	2023-09-07T00:00:00	2024-11-08T03:00:00	8	Radiación solar	0
159529	7	Sololá	719	Santiago Atitlán	14	Cerro de Oro	7	Julio	2023-09-07T00:00:00	2024-11-08T04:00:00	2	Temperatura media	18
159530	7	Sololá	719	Santiago Atitlán	14	Cerro de Oro	7	Julio	2023-09-07T00:00:00	2024-11-08T04:00:00	4	Temperatura máxima	18.4
159531	7	Sololá	719	Santiago Atitlán	14	Cerro de Oro	7	Julio	2023-09-07T00:00:00	2024-11-08T04:00:00	3	Temperatura mínima	18
159532	7	Sololá	719	Santiago Atitlán	14	Cerro de Oro	7	Julio	2023-09-07T00:00:00	2024-11-08T04:00:00	5	Humedad	90
159533	7	Sololá	719	Santiago Atitlán	14	Cerro de Oro	7	Julio	2023-09-07T00:00:00	2024-11-08T04:00:00	6	Velocidad del viento	4.8
159534	7	Sololá	719	Santiago Atitlán	14	Cerro de Oro	7	Julio	2023-09-07T00:00:00	2024-11-08T04:00:00	7	Dirección del viento	4.83
159535	7	Sololá	719	Santiago Atitlán	14	Cerro de Oro	7	Julio	2023-09-07T00:00:00	2024-11-08T04:00:00	1	Precipitación	0
159536	7	Sololá	719	Santiago Atitlán	14	Cerro de Oro	7	Julio	2023-09-07T00:00:00	2024-11-08T04:00:00	8	Radiación solar	0
159537	7	Sololá	719	Santiago Atitlán	14	Cerro de Oro	7	Julio	2023-09-07T00:00:00	2024-11-08T05:00:00	2	Temperatura media	18
159538	7	Sololá	719	Santiago Atitlán	14	Cerro de Oro	7	Julio	2023-09-07T00:00:00	2024-11-08T05:00:00	4	Temperatura máxima	18.3
159539	7	Sololá	719	Santiago Atitlán	14	Cerro de Oro	7	Julio	2023-09-07T00:00:00	2024-11-08T05:00:00	3	Temperatura mínima	17.9
159540	7	Sololá	719	Santiago Atitlán	14	Cerro de Oro	7	Julio	2023-09-07T00:00:00	2024-11-08T05:00:00	5	Humedad	89
159541	7	Sololá	719	Santiago Atitlán	14	Cerro de Oro	7	Julio	2023-09-07T00:00:00	2024-11-08T05:00:00	6	Velocidad del viento	6.4
159542	7	Sololá	719	Santiago Atitlán	14	Cerro de Oro	7	Julio	2023-09-07T00:00:00	2024-11-08T05:00:00	7	Dirección del viento	6.44
159543	7	Sololá	719	Santiago Atitlán	14	Cerro de Oro	7	Julio	2023-09-07T00:00:00	2024-11-08T05:00:00	1	Precipitación	0
159544	7	Sololá	719	Santiago Atitlán	14	Cerro de Oro	7	Julio	2023-09-07T00:00:00	2024-11-08T05:00:00	8	Radiación solar	0
159545	7	Sololá	719	Santiago Atitlán	14	Cerro de Oro	7	Julio	2023-09-07T00:00:00	2024-11-08T06:00:00	2	Temperatura media	17.7
159546	7	Sololá	719	Santiago Atitlán	14	Cerro de Oro	7	Julio	2023-09-07T00:00:00	2024-11-08T06:00:00	4	Temperatura máxima	18.1
159547	7	Sololá	719	Santiago Atitlán	14	Cerro de Oro	7	Julio	2023-09-07T00:00:00	2024-11-08T06:00:00	3	Temperatura mínima	17.7
159548	7	Sololá	719	Santiago Atitlán	14	Cerro de Oro	7	Julio	2023-09-07T00:00:00	2024-11-08T06:00:00	5	Humedad	90
159549	7	Sololá	719	Santiago Atitlán	14	Cerro de Oro	7	Julio	2023-09-07T00:00:00	2024-11-08T06:00:00	6	Velocidad del viento	4.8
159550	7	Sololá	719	Santiago Atitlán	14	Cerro de Oro	7	Julio	2023-09-07T00:00:00	2024-11-08T06:00:00	7	Dirección del viento	4.83
159551	7	Sololá	719	Santiago Atitlán	14	Cerro de Oro	7	Julio	2023-09-07T00:00:00	2024-11-08T06:00:00	1	Precipitación	0
159552	7	Sololá	719	Santiago Atitlán	14	Cerro de Oro	7	Julio	2023-09-07T00:00:00	2024-11-08T06:00:00	8	Radiación solar	5
159553	7	Sololá	719	Santiago Atitlán	14	Cerro de Oro	7	Julio	2023-09-07T00:00:00	2024-11-08T07:00:00	2	Temperatura media	20.1
159554	7	Sololá	719	Santiago Atitlán	14	Cerro de Oro	7	Julio	2023-09-07T00:00:00	2024-11-08T07:00:00	4	Temperatura máxima	20.1
159555	7	Sololá	719	Santiago Atitlán	14	Cerro de Oro	7	Julio	2023-09-07T00:00:00	2024-11-08T07:00:00	3	Temperatura mínima	17.7
159556	7	Sololá	719	Santiago Atitlán	14	Cerro de Oro	7	Julio	2023-09-07T00:00:00	2024-11-08T07:00:00	5	Humedad	83
159557	7	Sololá	719	Santiago Atitlán	14	Cerro de Oro	7	Julio	2023-09-07T00:00:00	2024-11-08T07:00:00	6	Velocidad del viento	3.2
159558	7	Sololá	719	Santiago Atitlán	14	Cerro de Oro	7	Julio	2023-09-07T00:00:00	2024-11-08T07:00:00	7	Dirección del viento	3.22
159559	7	Sololá	719	Santiago Atitlán	14	Cerro de Oro	7	Julio	2023-09-07T00:00:00	2024-11-08T07:00:00	1	Precipitación	0
159560	7	Sololá	719	Santiago Atitlán	14	Cerro de Oro	7	Julio	2023-09-07T00:00:00	2024-11-08T07:00:00	8	Radiación solar	104
159561	7	Sololá	719	Santiago Atitlán	14	Cerro de Oro	7	Julio	2023-09-07T00:00:00	2024-11-08T08:00:00	2	Temperatura media	21.1
159562	7	Sololá	719	Santiago Atitlán	14	Cerro de Oro	7	Julio	2023-09-07T00:00:00	2024-11-08T08:00:00	4	Temperatura máxima	21.1
159563	7	Sololá	719	Santiago Atitlán	14	Cerro de Oro	7	Julio	2023-09-07T00:00:00	2024-11-08T08:00:00	3	Temperatura mínima	19.8
159564	7	Sololá	719	Santiago Atitlán	14	Cerro de Oro	7	Julio	2023-09-07T00:00:00	2024-11-08T08:00:00	5	Humedad	79
159565	7	Sololá	719	Santiago Atitlán	14	Cerro de Oro	7	Julio	2023-09-07T00:00:00	2024-11-08T08:00:00	6	Velocidad del viento	1.6
159566	7	Sololá	719	Santiago Atitlán	14	Cerro de Oro	7	Julio	2023-09-07T00:00:00	2024-11-08T08:00:00	7	Dirección del viento	1.61
159567	7	Sololá	719	Santiago Atitlán	14	Cerro de Oro	7	Julio	2023-09-07T00:00:00	2024-11-08T08:00:00	1	Precipitación	0
159568	7	Sololá	719	Santiago Atitlán	14	Cerro de Oro	7	Julio	2023-09-07T00:00:00	2024-11-08T08:00:00	8	Radiación solar	250
159569	7	Sololá	719	Santiago Atitlán	14	Cerro de Oro	7	Julio	2023-09-07T00:00:00	2024-11-08T09:00:00	2	Temperatura media	22.4
159570	7	Sololá	719	Santiago Atitlán	14	Cerro de Oro	7	Julio	2023-09-07T00:00:00	2024-11-08T09:00:00	4	Temperatura máxima	22.4
159571	7	Sololá	719	Santiago Atitlán	14	Cerro de Oro	7	Julio	2023-09-07T00:00:00	2024-11-08T09:00:00	3	Temperatura mínima	21.1
159572	7	Sololá	719	Santiago Atitlán	14	Cerro de Oro	7	Julio	2023-09-07T00:00:00	2024-11-08T09:00:00	5	Humedad	74
159573	7	Sololá	719	Santiago Atitlán	14	Cerro de Oro	7	Julio	2023-09-07T00:00:00	2024-11-08T09:00:00	6	Velocidad del viento	4.8
159574	7	Sololá	719	Santiago Atitlán	14	Cerro de Oro	7	Julio	2023-09-07T00:00:00	2024-11-08T09:00:00	7	Dirección del viento	4.83
159575	7	Sololá	719	Santiago Atitlán	14	Cerro de Oro	7	Julio	2023-09-07T00:00:00	2024-11-08T09:00:00	1	Precipitación	0
159576	7	Sololá	719	Santiago Atitlán	14	Cerro de Oro	7	Julio	2023-09-07T00:00:00	2024-11-08T09:00:00	8	Radiación solar	459
159577	7	Sololá	719	Santiago Atitlán	14	Cerro de Oro	7	Julio	2023-09-07T00:00:00	2024-11-08T10:00:00	2	Temperatura media	23.2
159578	7	Sololá	719	Santiago Atitlán	14	Cerro de Oro	7	Julio	2023-09-07T00:00:00	2024-11-08T10:00:00	4	Temperatura máxima	23.6
159579	7	Sololá	719	Santiago Atitlán	14	Cerro de Oro	7	Julio	2023-09-07T00:00:00	2024-11-08T10:00:00	3	Temperatura mínima	22.4
159580	7	Sololá	719	Santiago Atitlán	14	Cerro de Oro	7	Julio	2023-09-07T00:00:00	2024-11-08T10:00:00	5	Humedad	75
159581	7	Sololá	719	Santiago Atitlán	14	Cerro de Oro	7	Julio	2023-09-07T00:00:00	2024-11-08T10:00:00	6	Velocidad del viento	6.4
159582	7	Sololá	719	Santiago Atitlán	14	Cerro de Oro	7	Julio	2023-09-07T00:00:00	2024-11-08T10:00:00	7	Dirección del viento	6.44
159583	7	Sololá	719	Santiago Atitlán	14	Cerro de Oro	7	Julio	2023-09-07T00:00:00	2024-11-08T10:00:00	1	Precipitación	0
159584	7	Sololá	719	Santiago Atitlán	14	Cerro de Oro	7	Julio	2023-09-07T00:00:00	2024-11-08T10:00:00	8	Radiación solar	634
159585	7	Sololá	719	Santiago Atitlán	14	Cerro de Oro	7	Julio	2023-09-07T00:00:00	2024-11-08T11:00:00	2	Temperatura media	22.9
159586	7	Sololá	719	Santiago Atitlán	14	Cerro de Oro	7	Julio	2023-09-07T00:00:00	2024-11-08T11:00:00	4	Temperatura máxima	23.3
159587	7	Sololá	719	Santiago Atitlán	14	Cerro de Oro	7	Julio	2023-09-07T00:00:00	2024-11-08T11:00:00	3	Temperatura mínima	21.9
159588	7	Sololá	719	Santiago Atitlán	14	Cerro de Oro	7	Julio	2023-09-07T00:00:00	2024-11-08T11:00:00	5	Humedad	72
159589	7	Sololá	719	Santiago Atitlán	14	Cerro de Oro	7	Julio	2023-09-07T00:00:00	2024-11-08T11:00:00	6	Velocidad del viento	9.7
159590	7	Sololá	719	Santiago Atitlán	14	Cerro de Oro	7	Julio	2023-09-07T00:00:00	2024-11-08T11:00:00	7	Dirección del viento	9.66
159591	7	Sololá	719	Santiago Atitlán	14	Cerro de Oro	7	Julio	2023-09-07T00:00:00	2024-11-08T11:00:00	1	Precipitación	0
159592	7	Sololá	719	Santiago Atitlán	14	Cerro de Oro	7	Julio	2023-09-07T00:00:00	2024-11-08T11:00:00	8	Radiación solar	481
159593	7	Sololá	719	Santiago Atitlán	14	Cerro de Oro	7	Julio	2023-09-07T00:00:00	2024-11-08T12:00:00	2	Temperatura media	24.3
159594	7	Sololá	719	Santiago Atitlán	14	Cerro de Oro	7	Julio	2023-09-07T00:00:00	2024-11-08T12:00:00	4	Temperatura máxima	24.3
159595	7	Sololá	719	Santiago Atitlán	14	Cerro de Oro	7	Julio	2023-09-07T00:00:00	2024-11-08T12:00:00	3	Temperatura mínima	22.9
159596	7	Sololá	719	Santiago Atitlán	14	Cerro de Oro	7	Julio	2023-09-07T00:00:00	2024-11-08T12:00:00	5	Humedad	71
159597	7	Sololá	719	Santiago Atitlán	14	Cerro de Oro	7	Julio	2023-09-07T00:00:00	2024-11-08T12:00:00	6	Velocidad del viento	3.2
159598	7	Sololá	719	Santiago Atitlán	14	Cerro de Oro	7	Julio	2023-09-07T00:00:00	2024-11-08T12:00:00	7	Dirección del viento	3.22
159599	7	Sololá	719	Santiago Atitlán	14	Cerro de Oro	7	Julio	2023-09-07T00:00:00	2024-11-08T12:00:00	1	Precipitación	0
159600	7	Sololá	719	Santiago Atitlán	14	Cerro de Oro	7	Julio	2023-09-07T00:00:00	2024-11-08T12:00:00	8	Radiación solar	460
159601	7	Sololá	719	Santiago Atitlán	14	Cerro de Oro	7	Julio	2023-09-07T00:00:00	2024-11-08T13:00:00	2	Temperatura media	24.9
159602	7	Sololá	719	Santiago Atitlán	14	Cerro de Oro	7	Julio	2023-09-07T00:00:00	2024-11-08T13:00:00	4	Temperatura máxima	25.3
159603	7	Sololá	719	Santiago Atitlán	14	Cerro de Oro	7	Julio	2023-09-07T00:00:00	2024-11-08T13:00:00	3	Temperatura mínima	23.9
159604	7	Sololá	719	Santiago Atitlán	14	Cerro de Oro	7	Julio	2023-09-07T00:00:00	2024-11-08T13:00:00	5	Humedad	68
159605	7	Sololá	719	Santiago Atitlán	14	Cerro de Oro	7	Julio	2023-09-07T00:00:00	2024-11-08T13:00:00	6	Velocidad del viento	3.2
159606	7	Sololá	719	Santiago Atitlán	14	Cerro de Oro	7	Julio	2023-09-07T00:00:00	2024-11-08T13:00:00	7	Dirección del viento	3.22
159607	7	Sololá	719	Santiago Atitlán	14	Cerro de Oro	7	Julio	2023-09-07T00:00:00	2024-11-08T13:00:00	1	Precipitación	0
159608	7	Sololá	719	Santiago Atitlán	14	Cerro de Oro	7	Julio	2023-09-07T00:00:00	2024-11-08T13:00:00	8	Radiación solar	786
159609	7	Sololá	719	Santiago Atitlán	14	Cerro de Oro	7	Julio	2023-09-07T00:00:00	2024-11-08T14:00:00	2	Temperatura media	23.2
159610	7	Sololá	719	Santiago Atitlán	14	Cerro de Oro	7	Julio	2023-09-07T00:00:00	2024-11-08T14:00:00	4	Temperatura máxima	24.9
159611	7	Sololá	719	Santiago Atitlán	14	Cerro de Oro	7	Julio	2023-09-07T00:00:00	2024-11-08T14:00:00	3	Temperatura mínima	21.8
159612	7	Sololá	719	Santiago Atitlán	14	Cerro de Oro	7	Julio	2023-09-07T00:00:00	2024-11-08T14:00:00	5	Humedad	81
159613	7	Sololá	719	Santiago Atitlán	14	Cerro de Oro	7	Julio	2023-09-07T00:00:00	2024-11-08T14:00:00	6	Velocidad del viento	11.3
159614	7	Sololá	719	Santiago Atitlán	14	Cerro de Oro	7	Julio	2023-09-07T00:00:00	2024-11-08T14:00:00	7	Dirección del viento	11.27
159615	7	Sololá	719	Santiago Atitlán	14	Cerro de Oro	7	Julio	2023-09-07T00:00:00	2024-11-08T14:00:00	1	Precipitación	0
159616	7	Sololá	719	Santiago Atitlán	14	Cerro de Oro	7	Julio	2023-09-07T00:00:00	2024-11-08T14:00:00	8	Radiación solar	625
159617	7	Sololá	719	Santiago Atitlán	14	Cerro de Oro	7	Julio	2023-09-07T00:00:00	2024-11-08T15:00:00	2	Temperatura media	20.3
159618	7	Sololá	719	Santiago Atitlán	14	Cerro de Oro	7	Julio	2023-09-07T00:00:00	2024-11-08T15:00:00	4	Temperatura máxima	23.4
159619	7	Sololá	719	Santiago Atitlán	14	Cerro de Oro	7	Julio	2023-09-07T00:00:00	2024-11-08T15:00:00	3	Temperatura mínima	20.3
159620	7	Sololá	719	Santiago Atitlán	14	Cerro de Oro	7	Julio	2023-09-07T00:00:00	2024-11-08T15:00:00	5	Humedad	87
159621	7	Sololá	719	Santiago Atitlán	14	Cerro de Oro	7	Julio	2023-09-07T00:00:00	2024-11-08T15:00:00	6	Velocidad del viento	12.9
159622	7	Sololá	719	Santiago Atitlán	14	Cerro de Oro	7	Julio	2023-09-07T00:00:00	2024-11-08T15:00:00	7	Dirección del viento	12.87
159623	7	Sololá	719	Santiago Atitlán	14	Cerro de Oro	7	Julio	2023-09-07T00:00:00	2024-11-08T15:00:00	1	Precipitación	2
159624	7	Sololá	719	Santiago Atitlán	14	Cerro de Oro	7	Julio	2023-09-07T00:00:00	2024-11-08T15:00:00	8	Radiación solar	233
159625	7	Sololá	719	Santiago Atitlán	14	Cerro de Oro	7	Julio	2023-09-07T00:00:00	2024-11-08T16:00:00	2	Temperatura media	19.7
159626	7	Sololá	719	Santiago Atitlán	14	Cerro de Oro	7	Julio	2023-09-07T00:00:00	2024-11-08T16:00:00	4	Temperatura máxima	20.7
159627	7	Sololá	719	Santiago Atitlán	14	Cerro de Oro	7	Julio	2023-09-07T00:00:00	2024-11-08T16:00:00	3	Temperatura mínima	19.7
159628	7	Sololá	719	Santiago Atitlán	14	Cerro de Oro	7	Julio	2023-09-07T00:00:00	2024-11-08T16:00:00	5	Humedad	88
159629	7	Sololá	719	Santiago Atitlán	14	Cerro de Oro	7	Julio	2023-09-07T00:00:00	2024-11-08T16:00:00	6	Velocidad del viento	6.4
159630	7	Sololá	719	Santiago Atitlán	14	Cerro de Oro	7	Julio	2023-09-07T00:00:00	2024-11-08T16:00:00	7	Dirección del viento	6.44
159631	7	Sololá	719	Santiago Atitlán	14	Cerro de Oro	7	Julio	2023-09-07T00:00:00	2024-11-08T16:00:00	1	Precipitación	1.4
159632	7	Sololá	719	Santiago Atitlán	14	Cerro de Oro	7	Julio	2023-09-07T00:00:00	2024-11-08T16:00:00	8	Radiación solar	51
159633	7	Sololá	719	Santiago Atitlán	14	Cerro de Oro	7	Julio	2023-09-07T00:00:00	2024-11-08T17:00:00	2	Temperatura media	19.7
159634	7	Sololá	719	Santiago Atitlán	14	Cerro de Oro	7	Julio	2023-09-07T00:00:00	2024-11-08T17:00:00	4	Temperatura máxima	19.8
159635	7	Sololá	719	Santiago Atitlán	14	Cerro de Oro	7	Julio	2023-09-07T00:00:00	2024-11-08T17:00:00	3	Temperatura mínima	19.4
159636	7	Sololá	719	Santiago Atitlán	14	Cerro de Oro	7	Julio	2023-09-07T00:00:00	2024-11-08T17:00:00	5	Humedad	87
159637	7	Sololá	719	Santiago Atitlán	14	Cerro de Oro	7	Julio	2023-09-07T00:00:00	2024-11-08T17:00:00	6	Velocidad del viento	4.8
159638	7	Sololá	719	Santiago Atitlán	14	Cerro de Oro	7	Julio	2023-09-07T00:00:00	2024-11-08T17:00:00	7	Dirección del viento	4.83
159639	7	Sololá	719	Santiago Atitlán	14	Cerro de Oro	7	Julio	2023-09-07T00:00:00	2024-11-08T17:00:00	1	Precipitación	0.4
159640	7	Sololá	719	Santiago Atitlán	14	Cerro de Oro	7	Julio	2023-09-07T00:00:00	2024-11-08T17:00:00	8	Radiación solar	91
159641	7	Sololá	719	Santiago Atitlán	14	Cerro de Oro	7	Julio	2023-09-07T00:00:00	2024-11-08T18:00:00	2	Temperatura media	19.8
159642	7	Sololá	719	Santiago Atitlán	14	Cerro de Oro	7	Julio	2023-09-07T00:00:00	2024-11-08T18:00:00	4	Temperatura máxima	20.1
159643	7	Sololá	719	Santiago Atitlán	14	Cerro de Oro	7	Julio	2023-09-07T00:00:00	2024-11-08T18:00:00	3	Temperatura mínima	19.7
159644	7	Sololá	719	Santiago Atitlán	14	Cerro de Oro	7	Julio	2023-09-07T00:00:00	2024-11-08T18:00:00	5	Humedad	87
159645	7	Sololá	719	Santiago Atitlán	14	Cerro de Oro	7	Julio	2023-09-07T00:00:00	2024-11-08T18:00:00	6	Velocidad del viento	1.6
159646	7	Sololá	719	Santiago Atitlán	14	Cerro de Oro	7	Julio	2023-09-07T00:00:00	2024-11-08T18:00:00	7	Dirección del viento	1.61
159647	7	Sololá	719	Santiago Atitlán	14	Cerro de Oro	7	Julio	2023-09-07T00:00:00	2024-11-08T18:00:00	1	Precipitación	0
159648	7	Sololá	719	Santiago Atitlán	14	Cerro de Oro	7	Julio	2023-09-07T00:00:00	2024-11-08T18:00:00	8	Radiación solar	69
159649	7	Sololá	719	Santiago Atitlán	14	Cerro de Oro	7	Julio	2023-09-07T00:00:00	2024-11-08T19:00:00	2	Temperatura media	19.4
159650	7	Sololá	719	Santiago Atitlán	14	Cerro de Oro	7	Julio	2023-09-07T00:00:00	2024-11-08T19:00:00	4	Temperatura máxima	19.9
159651	7	Sololá	719	Santiago Atitlán	14	Cerro de Oro	7	Julio	2023-09-07T00:00:00	2024-11-08T19:00:00	3	Temperatura mínima	19.2
159652	7	Sololá	719	Santiago Atitlán	14	Cerro de Oro	7	Julio	2023-09-07T00:00:00	2024-11-08T19:00:00	5	Humedad	87
159653	7	Sololá	719	Santiago Atitlán	14	Cerro de Oro	7	Julio	2023-09-07T00:00:00	2024-11-08T19:00:00	6	Velocidad del viento	4.8
159654	7	Sololá	719	Santiago Atitlán	14	Cerro de Oro	7	Julio	2023-09-07T00:00:00	2024-11-08T19:00:00	7	Dirección del viento	4.83
159655	7	Sololá	719	Santiago Atitlán	14	Cerro de Oro	7	Julio	2023-09-07T00:00:00	2024-11-08T19:00:00	1	Precipitación	0
159656	7	Sololá	719	Santiago Atitlán	14	Cerro de Oro	7	Julio	2023-09-07T00:00:00	2024-11-08T19:00:00	8	Radiación solar	0
159657	7	Sololá	719	Santiago Atitlán	14	Cerro de Oro	7	Julio	2023-09-07T00:00:00	2024-11-08T20:00:00	2	Temperatura media	19.1
159658	7	Sololá	719	Santiago Atitlán	14	Cerro de Oro	7	Julio	2023-09-07T00:00:00	2024-11-08T20:00:00	4	Temperatura máxima	19.4
159659	7	Sololá	719	Santiago Atitlán	14	Cerro de Oro	7	Julio	2023-09-07T00:00:00	2024-11-08T20:00:00	3	Temperatura mínima	18.6
159660	7	Sololá	719	Santiago Atitlán	14	Cerro de Oro	7	Julio	2023-09-07T00:00:00	2024-11-08T20:00:00	5	Humedad	91
159661	7	Sololá	719	Santiago Atitlán	14	Cerro de Oro	7	Julio	2023-09-07T00:00:00	2024-11-08T20:00:00	6	Velocidad del viento	3.2
159662	7	Sololá	719	Santiago Atitlán	14	Cerro de Oro	7	Julio	2023-09-07T00:00:00	2024-11-08T20:00:00	7	Dirección del viento	3.22
159663	7	Sololá	719	Santiago Atitlán	14	Cerro de Oro	7	Julio	2023-09-07T00:00:00	2024-11-08T20:00:00	1	Precipitación	0
159664	7	Sololá	719	Santiago Atitlán	14	Cerro de Oro	7	Julio	2023-09-07T00:00:00	2024-11-08T20:00:00	8	Radiación solar	0
159665	7	Sololá	719	Santiago Atitlán	14	Cerro de Oro	7	Julio	2023-09-07T00:00:00	2024-11-08T21:00:00	2	Temperatura media	18.6
159666	7	Sololá	719	Santiago Atitlán	14	Cerro de Oro	7	Julio	2023-09-07T00:00:00	2024-11-08T21:00:00	4	Temperatura máxima	19.4
159667	7	Sololá	719	Santiago Atitlán	14	Cerro de Oro	7	Julio	2023-09-07T00:00:00	2024-11-08T21:00:00	3	Temperatura mínima	18.6
159668	7	Sololá	719	Santiago Atitlán	14	Cerro de Oro	7	Julio	2023-09-07T00:00:00	2024-11-08T21:00:00	5	Humedad	91
159669	7	Sololá	719	Santiago Atitlán	14	Cerro de Oro	7	Julio	2023-09-07T00:00:00	2024-11-08T21:00:00	6	Velocidad del viento	4.8
159670	7	Sololá	719	Santiago Atitlán	14	Cerro de Oro	7	Julio	2023-09-07T00:00:00	2024-11-08T21:00:00	7	Dirección del viento	4.83
159671	7	Sololá	719	Santiago Atitlán	14	Cerro de Oro	7	Julio	2023-09-07T00:00:00	2024-11-08T21:00:00	1	Precipitación	0
159672	7	Sololá	719	Santiago Atitlán	14	Cerro de Oro	7	Julio	2023-09-07T00:00:00	2024-11-08T21:00:00	8	Radiación solar	0
159673	7	Sololá	719	Santiago Atitlán	14	Cerro de Oro	7	Julio	2023-09-07T00:00:00	2024-11-08T22:00:00	2	Temperatura media	19.3
159674	7	Sololá	719	Santiago Atitlán	14	Cerro de Oro	7	Julio	2023-09-07T00:00:00	2024-11-08T22:00:00	4	Temperatura máxima	19.4
159675	7	Sololá	719	Santiago Atitlán	14	Cerro de Oro	7	Julio	2023-09-07T00:00:00	2024-11-08T22:00:00	3	Temperatura mínima	18.6
159676	7	Sololá	719	Santiago Atitlán	14	Cerro de Oro	7	Julio	2023-09-07T00:00:00	2024-11-08T22:00:00	5	Humedad	85
159677	7	Sololá	719	Santiago Atitlán	14	Cerro de Oro	7	Julio	2023-09-07T00:00:00	2024-11-08T22:00:00	6	Velocidad del viento	4.8
159678	7	Sololá	719	Santiago Atitlán	14	Cerro de Oro	7	Julio	2023-09-07T00:00:00	2024-11-08T22:00:00	7	Dirección del viento	4.83
159679	7	Sololá	719	Santiago Atitlán	14	Cerro de Oro	7	Julio	2023-09-07T00:00:00	2024-11-08T22:00:00	1	Precipitación	0
159680	7	Sololá	719	Santiago Atitlán	14	Cerro de Oro	7	Julio	2023-09-07T00:00:00	2024-11-08T22:00:00	8	Radiación solar	0
159681	7	Sololá	719	Santiago Atitlán	14	Cerro de Oro	7	Julio	2023-09-07T00:00:00	2024-11-08T23:00:00	2	Temperatura media	19.1
159682	7	Sololá	719	Santiago Atitlán	14	Cerro de Oro	7	Julio	2023-09-07T00:00:00	2024-11-08T23:00:00	4	Temperatura máxima	19.5
159683	7	Sololá	719	Santiago Atitlán	14	Cerro de Oro	7	Julio	2023-09-07T00:00:00	2024-11-08T23:00:00	3	Temperatura mínima	18.7
159684	7	Sololá	719	Santiago Atitlán	14	Cerro de Oro	7	Julio	2023-09-07T00:00:00	2024-11-08T23:00:00	5	Humedad	85
159685	7	Sololá	719	Santiago Atitlán	14	Cerro de Oro	7	Julio	2023-09-07T00:00:00	2024-11-08T23:00:00	6	Velocidad del viento	3.2
159686	7	Sololá	719	Santiago Atitlán	14	Cerro de Oro	7	Julio	2023-09-07T00:00:00	2024-11-08T23:00:00	7	Dirección del viento	3.22
159687	7	Sololá	719	Santiago Atitlán	14	Cerro de Oro	7	Julio	2023-09-07T00:00:00	2024-11-08T23:00:00	1	Precipitación	0
159688	7	Sololá	719	Santiago Atitlán	14	Cerro de Oro	7	Julio	2023-09-07T00:00:00	2024-11-08T23:00:00	8	Radiación solar	0
159689	7	Sololá	719	Santiago Atitlán	14	Cerro de Oro	7	Julio	2023-10-07T00:00:00	2024-11-08T00:00:00	2	Temperatura media	18.7
159690	7	Sololá	719	Santiago Atitlán	14	Cerro de Oro	7	Julio	2023-10-07T00:00:00	2024-11-08T00:00:00	4	Temperatura máxima	19.1
159691	7	Sololá	719	Santiago Atitlán	14	Cerro de Oro	7	Julio	2023-10-07T00:00:00	2024-11-08T00:00:00	3	Temperatura mínima	18.3
159692	7	Sololá	719	Santiago Atitlán	14	Cerro de Oro	7	Julio	2023-10-07T00:00:00	2024-11-08T00:00:00	5	Humedad	86
159693	7	Sololá	719	Santiago Atitlán	14	Cerro de Oro	7	Julio	2023-10-07T00:00:00	2024-11-08T00:00:00	6	Velocidad del viento	4.8
159694	7	Sololá	719	Santiago Atitlán	14	Cerro de Oro	7	Julio	2023-10-07T00:00:00	2024-11-08T00:00:00	7	Dirección del viento	4.83
159695	7	Sololá	719	Santiago Atitlán	14	Cerro de Oro	7	Julio	2023-10-07T00:00:00	2024-11-08T00:00:00	1	Precipitación	0
159696	7	Sololá	719	Santiago Atitlán	14	Cerro de Oro	7	Julio	2023-10-07T00:00:00	2024-11-08T00:00:00	8	Radiación solar	0
159697	7	Sololá	719	Santiago Atitlán	14	Cerro de Oro	7	Julio	2023-10-07T00:00:00	2024-11-08T01:00:00	2	Temperatura media	18.9
159698	7	Sololá	719	Santiago Atitlán	14	Cerro de Oro	7	Julio	2023-10-07T00:00:00	2024-11-08T01:00:00	4	Temperatura máxima	19.3
159699	7	Sololá	719	Santiago Atitlán	14	Cerro de Oro	7	Julio	2023-10-07T00:00:00	2024-11-08T01:00:00	3	Temperatura mínima	18.8
159700	7	Sololá	719	Santiago Atitlán	14	Cerro de Oro	7	Julio	2023-10-07T00:00:00	2024-11-08T01:00:00	5	Humedad	87
159701	7	Sololá	719	Santiago Atitlán	14	Cerro de Oro	7	Julio	2023-10-07T00:00:00	2024-11-08T01:00:00	6	Velocidad del viento	4.8
159702	7	Sololá	719	Santiago Atitlán	14	Cerro de Oro	7	Julio	2023-10-07T00:00:00	2024-11-08T01:00:00	7	Dirección del viento	4.83
159703	7	Sololá	719	Santiago Atitlán	14	Cerro de Oro	7	Julio	2023-10-07T00:00:00	2024-11-08T01:00:00	1	Precipitación	0
159704	7	Sololá	719	Santiago Atitlán	14	Cerro de Oro	7	Julio	2023-10-07T00:00:00	2024-11-08T01:00:00	8	Radiación solar	0
159705	7	Sololá	719	Santiago Atitlán	14	Cerro de Oro	7	Julio	2023-10-07T00:00:00	2024-11-08T02:00:00	2	Temperatura media	17.9
159706	7	Sololá	719	Santiago Atitlán	14	Cerro de Oro	7	Julio	2023-10-07T00:00:00	2024-11-08T02:00:00	4	Temperatura máxima	18.9
159707	7	Sololá	719	Santiago Atitlán	14	Cerro de Oro	7	Julio	2023-10-07T00:00:00	2024-11-08T02:00:00	3	Temperatura mínima	17.9
159708	7	Sololá	719	Santiago Atitlán	14	Cerro de Oro	7	Julio	2023-10-07T00:00:00	2024-11-08T02:00:00	5	Humedad	88
159709	7	Sololá	719	Santiago Atitlán	14	Cerro de Oro	7	Julio	2023-10-07T00:00:00	2024-11-08T02:00:00	6	Velocidad del viento	4.8
159710	7	Sololá	719	Santiago Atitlán	14	Cerro de Oro	7	Julio	2023-10-07T00:00:00	2024-11-08T02:00:00	7	Dirección del viento	4.83
159711	7	Sololá	719	Santiago Atitlán	14	Cerro de Oro	7	Julio	2023-10-07T00:00:00	2024-11-08T02:00:00	1	Precipitación	0
159712	7	Sololá	719	Santiago Atitlán	14	Cerro de Oro	7	Julio	2023-10-07T00:00:00	2024-11-08T02:00:00	8	Radiación solar	0
159713	7	Sololá	719	Santiago Atitlán	14	Cerro de Oro	7	Julio	2023-10-07T00:00:00	2024-11-08T03:00:00	2	Temperatura media	18
159714	7	Sololá	719	Santiago Atitlán	14	Cerro de Oro	7	Julio	2023-10-07T00:00:00	2024-11-08T03:00:00	4	Temperatura máxima	18.1
159715	7	Sololá	719	Santiago Atitlán	14	Cerro de Oro	7	Julio	2023-10-07T00:00:00	2024-11-08T03:00:00	3	Temperatura mínima	17.7
159716	7	Sololá	719	Santiago Atitlán	14	Cerro de Oro	7	Julio	2023-10-07T00:00:00	2024-11-08T03:00:00	5	Humedad	86
159717	7	Sololá	719	Santiago Atitlán	14	Cerro de Oro	7	Julio	2023-10-07T00:00:00	2024-11-08T03:00:00	6	Velocidad del viento	3.2
159718	7	Sololá	719	Santiago Atitlán	14	Cerro de Oro	7	Julio	2023-10-07T00:00:00	2024-11-08T03:00:00	7	Dirección del viento	3.22
159719	7	Sololá	719	Santiago Atitlán	14	Cerro de Oro	7	Julio	2023-10-07T00:00:00	2024-11-08T03:00:00	1	Precipitación	0
159720	7	Sololá	719	Santiago Atitlán	14	Cerro de Oro	7	Julio	2023-10-07T00:00:00	2024-11-08T03:00:00	8	Radiación solar	0
159721	7	Sololá	719	Santiago Atitlán	14	Cerro de Oro	7	Julio	2023-10-07T00:00:00	2024-11-08T04:00:00	2	Temperatura media	18.1
159722	7	Sololá	719	Santiago Atitlán	14	Cerro de Oro	7	Julio	2023-10-07T00:00:00	2024-11-08T04:00:00	4	Temperatura máxima	18.6
159723	7	Sololá	719	Santiago Atitlán	14	Cerro de Oro	7	Julio	2023-10-07T00:00:00	2024-11-08T04:00:00	3	Temperatura mínima	17.9
159724	7	Sololá	719	Santiago Atitlán	14	Cerro de Oro	7	Julio	2023-10-07T00:00:00	2024-11-08T04:00:00	5	Humedad	85
159725	7	Sololá	719	Santiago Atitlán	14	Cerro de Oro	7	Julio	2023-10-07T00:00:00	2024-11-08T04:00:00	6	Velocidad del viento	3.2
159726	7	Sololá	719	Santiago Atitlán	14	Cerro de Oro	7	Julio	2023-10-07T00:00:00	2024-11-08T04:00:00	7	Dirección del viento	3.22
159727	7	Sololá	719	Santiago Atitlán	14	Cerro de Oro	7	Julio	2023-10-07T00:00:00	2024-11-08T04:00:00	1	Precipitación	0
159728	7	Sololá	719	Santiago Atitlán	14	Cerro de Oro	7	Julio	2023-10-07T00:00:00	2024-11-08T04:00:00	8	Radiación solar	0
159729	7	Sololá	719	Santiago Atitlán	14	Cerro de Oro	7	Julio	2023-10-07T00:00:00	2024-11-08T05:00:00	2	Temperatura media	18.2
159730	7	Sololá	719	Santiago Atitlán	14	Cerro de Oro	7	Julio	2023-10-07T00:00:00	2024-11-08T05:00:00	4	Temperatura máxima	18.7
159731	7	Sololá	719	Santiago Atitlán	14	Cerro de Oro	7	Julio	2023-10-07T00:00:00	2024-11-08T05:00:00	3	Temperatura mínima	18.1
159732	7	Sololá	719	Santiago Atitlán	14	Cerro de Oro	7	Julio	2023-10-07T00:00:00	2024-11-08T05:00:00	5	Humedad	85
159733	7	Sololá	719	Santiago Atitlán	14	Cerro de Oro	7	Julio	2023-10-07T00:00:00	2024-11-08T05:00:00	6	Velocidad del viento	4.8
159734	7	Sololá	719	Santiago Atitlán	14	Cerro de Oro	7	Julio	2023-10-07T00:00:00	2024-11-08T05:00:00	7	Dirección del viento	4.83
159735	7	Sololá	719	Santiago Atitlán	14	Cerro de Oro	7	Julio	2023-10-07T00:00:00	2024-11-08T05:00:00	1	Precipitación	0
159736	7	Sololá	719	Santiago Atitlán	14	Cerro de Oro	7	Julio	2023-10-07T00:00:00	2024-11-08T05:00:00	8	Radiación solar	0
159737	7	Sololá	719	Santiago Atitlán	14	Cerro de Oro	7	Julio	2023-10-07T00:00:00	2024-11-08T06:00:00	2	Temperatura media	18.2
159738	7	Sololá	719	Santiago Atitlán	14	Cerro de Oro	7	Julio	2023-10-07T00:00:00	2024-11-08T06:00:00	4	Temperatura máxima	18.8
159739	7	Sololá	719	Santiago Atitlán	14	Cerro de Oro	7	Julio	2023-10-07T00:00:00	2024-11-08T06:00:00	3	Temperatura mínima	18.1
159740	7	Sololá	719	Santiago Atitlán	14	Cerro de Oro	7	Julio	2023-10-07T00:00:00	2024-11-08T06:00:00	5	Humedad	83
159741	7	Sololá	719	Santiago Atitlán	14	Cerro de Oro	7	Julio	2023-10-07T00:00:00	2024-11-08T06:00:00	6	Velocidad del viento	4.8
159742	7	Sololá	719	Santiago Atitlán	14	Cerro de Oro	7	Julio	2023-10-07T00:00:00	2024-11-08T06:00:00	7	Dirección del viento	4.83
159743	7	Sololá	719	Santiago Atitlán	14	Cerro de Oro	7	Julio	2023-10-07T00:00:00	2024-11-08T06:00:00	1	Precipitación	0
159744	7	Sololá	719	Santiago Atitlán	14	Cerro de Oro	7	Julio	2023-10-07T00:00:00	2024-11-08T06:00:00	8	Radiación solar	2
159745	7	Sololá	719	Santiago Atitlán	14	Cerro de Oro	7	Julio	2023-10-07T00:00:00	2024-11-08T07:00:00	2	Temperatura media	19.8
159746	7	Sololá	719	Santiago Atitlán	14	Cerro de Oro	7	Julio	2023-10-07T00:00:00	2024-11-08T07:00:00	4	Temperatura máxima	19.8
159747	7	Sololá	719	Santiago Atitlán	14	Cerro de Oro	7	Julio	2023-10-07T00:00:00	2024-11-08T07:00:00	3	Temperatura mínima	18.1
159748	7	Sololá	719	Santiago Atitlán	14	Cerro de Oro	7	Julio	2023-10-07T00:00:00	2024-11-08T07:00:00	5	Humedad	79
159749	7	Sololá	719	Santiago Atitlán	14	Cerro de Oro	7	Julio	2023-10-07T00:00:00	2024-11-08T07:00:00	6	Velocidad del viento	4.8
159750	7	Sololá	719	Santiago Atitlán	14	Cerro de Oro	7	Julio	2023-10-07T00:00:00	2024-11-08T07:00:00	7	Dirección del viento	4.83
159751	7	Sololá	719	Santiago Atitlán	14	Cerro de Oro	7	Julio	2023-10-07T00:00:00	2024-11-08T07:00:00	1	Precipitación	0
159752	7	Sololá	719	Santiago Atitlán	14	Cerro de Oro	7	Julio	2023-10-07T00:00:00	2024-11-08T07:00:00	8	Radiación solar	56
159753	7	Sololá	719	Santiago Atitlán	14	Cerro de Oro	7	Julio	2023-10-07T00:00:00	2024-11-08T08:00:00	2	Temperatura media	21.8
159754	7	Sololá	719	Santiago Atitlán	14	Cerro de Oro	7	Julio	2023-10-07T00:00:00	2024-11-08T08:00:00	4	Temperatura máxima	22.1
159755	7	Sololá	719	Santiago Atitlán	14	Cerro de Oro	7	Julio	2023-10-07T00:00:00	2024-11-08T08:00:00	3	Temperatura mínima	19.8
159756	7	Sololá	719	Santiago Atitlán	14	Cerro de Oro	7	Julio	2023-10-07T00:00:00	2024-11-08T08:00:00	5	Humedad	70
159757	7	Sololá	719	Santiago Atitlán	14	Cerro de Oro	7	Julio	2023-10-07T00:00:00	2024-11-08T08:00:00	6	Velocidad del viento	4.8
159758	7	Sololá	719	Santiago Atitlán	14	Cerro de Oro	7	Julio	2023-10-07T00:00:00	2024-11-08T08:00:00	7	Dirección del viento	4.83
159759	7	Sololá	719	Santiago Atitlán	14	Cerro de Oro	7	Julio	2023-10-07T00:00:00	2024-11-08T08:00:00	1	Precipitación	0
159760	7	Sololá	719	Santiago Atitlán	14	Cerro de Oro	7	Julio	2023-10-07T00:00:00	2024-11-08T08:00:00	8	Radiación solar	297
159761	7	Sololá	719	Santiago Atitlán	14	Cerro de Oro	7	Julio	2023-10-07T00:00:00	2024-11-08T09:00:00	2	Temperatura media	22.7
159762	7	Sololá	719	Santiago Atitlán	14	Cerro de Oro	7	Julio	2023-10-07T00:00:00	2024-11-08T09:00:00	4	Temperatura máxima	22.7
159763	7	Sololá	719	Santiago Atitlán	14	Cerro de Oro	7	Julio	2023-10-07T00:00:00	2024-11-08T09:00:00	3	Temperatura mínima	21.8
159764	7	Sololá	719	Santiago Atitlán	14	Cerro de Oro	7	Julio	2023-10-07T00:00:00	2024-11-08T09:00:00	5	Humedad	69
159765	7	Sololá	719	Santiago Atitlán	14	Cerro de Oro	7	Julio	2023-10-07T00:00:00	2024-11-08T09:00:00	6	Velocidad del viento	4.8
159766	7	Sololá	719	Santiago Atitlán	14	Cerro de Oro	7	Julio	2023-10-07T00:00:00	2024-11-08T09:00:00	7	Dirección del viento	4.83
159767	7	Sololá	719	Santiago Atitlán	14	Cerro de Oro	7	Julio	2023-10-07T00:00:00	2024-11-08T09:00:00	1	Precipitación	0
159768	7	Sololá	719	Santiago Atitlán	14	Cerro de Oro	7	Julio	2023-10-07T00:00:00	2024-11-08T09:00:00	8	Radiación solar	482
159769	7	Sololá	719	Santiago Atitlán	14	Cerro de Oro	7	Julio	2023-10-07T00:00:00	2024-11-08T10:00:00	2	Temperatura media	23.7
159770	7	Sololá	719	Santiago Atitlán	14	Cerro de Oro	7	Julio	2023-10-07T00:00:00	2024-11-08T10:00:00	4	Temperatura máxima	23.8
159771	7	Sololá	719	Santiago Atitlán	14	Cerro de Oro	7	Julio	2023-10-07T00:00:00	2024-11-08T10:00:00	3	Temperatura mínima	22.6
159772	7	Sololá	719	Santiago Atitlán	14	Cerro de Oro	7	Julio	2023-10-07T00:00:00	2024-11-08T10:00:00	5	Humedad	64
159773	7	Sololá	719	Santiago Atitlán	14	Cerro de Oro	7	Julio	2023-10-07T00:00:00	2024-11-08T10:00:00	6	Velocidad del viento	6.4
159774	7	Sololá	719	Santiago Atitlán	14	Cerro de Oro	7	Julio	2023-10-07T00:00:00	2024-11-08T10:00:00	7	Dirección del viento	6.44
159775	7	Sololá	719	Santiago Atitlán	14	Cerro de Oro	7	Julio	2023-10-07T00:00:00	2024-11-08T10:00:00	1	Precipitación	0
159776	7	Sololá	719	Santiago Atitlán	14	Cerro de Oro	7	Julio	2023-10-07T00:00:00	2024-11-08T10:00:00	8	Radiación solar	687
159777	7	Sololá	719	Santiago Atitlán	14	Cerro de Oro	7	Julio	2023-10-07T00:00:00	2024-11-08T11:00:00	2	Temperatura media	24.3
159778	7	Sololá	719	Santiago Atitlán	14	Cerro de Oro	7	Julio	2023-10-07T00:00:00	2024-11-08T11:00:00	4	Temperatura máxima	24.4
159779	7	Sololá	719	Santiago Atitlán	14	Cerro de Oro	7	Julio	2023-10-07T00:00:00	2024-11-08T11:00:00	3	Temperatura mínima	23.4
159780	7	Sololá	719	Santiago Atitlán	14	Cerro de Oro	7	Julio	2023-10-07T00:00:00	2024-11-08T11:00:00	5	Humedad	61
159781	7	Sololá	719	Santiago Atitlán	14	Cerro de Oro	7	Julio	2023-10-07T00:00:00	2024-11-08T11:00:00	6	Velocidad del viento	14.5
159782	7	Sololá	719	Santiago Atitlán	14	Cerro de Oro	7	Julio	2023-10-07T00:00:00	2024-11-08T11:00:00	7	Dirección del viento	14.48
159783	7	Sololá	719	Santiago Atitlán	14	Cerro de Oro	7	Julio	2023-10-07T00:00:00	2024-11-08T11:00:00	1	Precipitación	0
159784	7	Sololá	719	Santiago Atitlán	14	Cerro de Oro	7	Julio	2023-10-07T00:00:00	2024-11-08T11:00:00	8	Radiación solar	884
159785	7	Sololá	719	Santiago Atitlán	14	Cerro de Oro	7	Julio	2023-10-07T00:00:00	2024-11-08T12:00:00	2	Temperatura media	25.1
159786	7	Sololá	719	Santiago Atitlán	14	Cerro de Oro	7	Julio	2023-10-07T00:00:00	2024-11-08T12:00:00	4	Temperatura máxima	25.1
159787	7	Sololá	719	Santiago Atitlán	14	Cerro de Oro	7	Julio	2023-10-07T00:00:00	2024-11-08T12:00:00	3	Temperatura mínima	24.3
159788	7	Sololá	719	Santiago Atitlán	14	Cerro de Oro	7	Julio	2023-10-07T00:00:00	2024-11-08T12:00:00	5	Humedad	60
159789	7	Sololá	719	Santiago Atitlán	14	Cerro de Oro	7	Julio	2023-10-07T00:00:00	2024-11-08T12:00:00	6	Velocidad del viento	12.9
159790	7	Sololá	719	Santiago Atitlán	14	Cerro de Oro	7	Julio	2023-10-07T00:00:00	2024-11-08T12:00:00	7	Dirección del viento	12.87
159791	7	Sololá	719	Santiago Atitlán	14	Cerro de Oro	7	Julio	2023-10-07T00:00:00	2024-11-08T12:00:00	1	Precipitación	0
159792	7	Sololá	719	Santiago Atitlán	14	Cerro de Oro	7	Julio	2023-10-07T00:00:00	2024-11-08T12:00:00	8	Radiación solar	985
159793	7	Sololá	719	Santiago Atitlán	14	Cerro de Oro	7	Julio	2023-10-07T00:00:00	2024-11-08T13:00:00	2	Temperatura media	25.7
159794	7	Sololá	719	Santiago Atitlán	14	Cerro de Oro	7	Julio	2023-10-07T00:00:00	2024-11-08T13:00:00	4	Temperatura máxima	25.7
159795	7	Sololá	719	Santiago Atitlán	14	Cerro de Oro	7	Julio	2023-10-07T00:00:00	2024-11-08T13:00:00	3	Temperatura mínima	25.1
159796	7	Sololá	719	Santiago Atitlán	14	Cerro de Oro	7	Julio	2023-10-07T00:00:00	2024-11-08T13:00:00	5	Humedad	58
159797	7	Sololá	719	Santiago Atitlán	14	Cerro de Oro	7	Julio	2023-10-07T00:00:00	2024-11-08T13:00:00	6	Velocidad del viento	11.3
159798	7	Sololá	719	Santiago Atitlán	14	Cerro de Oro	7	Julio	2023-10-07T00:00:00	2024-11-08T13:00:00	7	Dirección del viento	11.27
159799	7	Sololá	719	Santiago Atitlán	14	Cerro de Oro	7	Julio	2023-10-07T00:00:00	2024-11-08T13:00:00	1	Precipitación	0
159800	7	Sololá	719	Santiago Atitlán	14	Cerro de Oro	7	Julio	2023-10-07T00:00:00	2024-11-08T13:00:00	8	Radiación solar	952
159801	7	Sololá	719	Santiago Atitlán	14	Cerro de Oro	7	Julio	2023-10-07T00:00:00	2024-11-08T14:00:00	2	Temperatura media	25.8
159802	7	Sololá	719	Santiago Atitlán	14	Cerro de Oro	7	Julio	2023-10-07T00:00:00	2024-11-08T14:00:00	4	Temperatura máxima	26.4
159803	7	Sololá	719	Santiago Atitlán	14	Cerro de Oro	7	Julio	2023-10-07T00:00:00	2024-11-08T14:00:00	3	Temperatura mínima	25.7
159804	7	Sololá	719	Santiago Atitlán	14	Cerro de Oro	7	Julio	2023-10-07T00:00:00	2024-11-08T14:00:00	5	Humedad	67
159805	7	Sololá	719	Santiago Atitlán	14	Cerro de Oro	7	Julio	2023-10-07T00:00:00	2024-11-08T14:00:00	6	Velocidad del viento	9.7
159806	7	Sololá	719	Santiago Atitlán	14	Cerro de Oro	7	Julio	2023-10-07T00:00:00	2024-11-08T14:00:00	7	Dirección del viento	9.66
159807	7	Sololá	719	Santiago Atitlán	14	Cerro de Oro	7	Julio	2023-10-07T00:00:00	2024-11-08T14:00:00	1	Precipitación	0
159808	7	Sololá	719	Santiago Atitlán	14	Cerro de Oro	7	Julio	2023-10-07T00:00:00	2024-11-08T14:00:00	8	Radiación solar	886
159809	7	Sololá	719	Santiago Atitlán	14	Cerro de Oro	7	Julio	2023-10-07T00:00:00	2024-11-08T15:00:00	2	Temperatura media	25.8
159810	7	Sololá	719	Santiago Atitlán	14	Cerro de Oro	7	Julio	2023-10-07T00:00:00	2024-11-08T15:00:00	4	Temperatura máxima	26.2
159811	7	Sololá	719	Santiago Atitlán	14	Cerro de Oro	7	Julio	2023-10-07T00:00:00	2024-11-08T15:00:00	3	Temperatura mínima	25.1
159812	7	Sololá	719	Santiago Atitlán	14	Cerro de Oro	7	Julio	2023-10-07T00:00:00	2024-11-08T15:00:00	5	Humedad	73
159813	7	Sololá	719	Santiago Atitlán	14	Cerro de Oro	7	Julio	2023-10-07T00:00:00	2024-11-08T15:00:00	6	Velocidad del viento	9.7
159814	7	Sololá	719	Santiago Atitlán	14	Cerro de Oro	7	Julio	2023-10-07T00:00:00	2024-11-08T15:00:00	7	Dirección del viento	9.66
159815	7	Sololá	719	Santiago Atitlán	14	Cerro de Oro	7	Julio	2023-10-07T00:00:00	2024-11-08T15:00:00	1	Precipitación	0
159816	7	Sololá	719	Santiago Atitlán	14	Cerro de Oro	7	Julio	2023-10-07T00:00:00	2024-11-08T15:00:00	8	Radiación solar	780
159817	7	Sololá	719	Santiago Atitlán	14	Cerro de Oro	7	Julio	2023-10-07T00:00:00	2024-11-08T16:00:00	2	Temperatura media	22
159818	7	Sololá	719	Santiago Atitlán	14	Cerro de Oro	7	Julio	2023-10-07T00:00:00	2024-11-08T16:00:00	4	Temperatura máxima	26.1
159819	7	Sololá	719	Santiago Atitlán	14	Cerro de Oro	7	Julio	2023-10-07T00:00:00	2024-11-08T16:00:00	3	Temperatura mínima	21.9
159820	7	Sololá	719	Santiago Atitlán	14	Cerro de Oro	7	Julio	2023-10-07T00:00:00	2024-11-08T16:00:00	5	Humedad	79
159821	7	Sololá	719	Santiago Atitlán	14	Cerro de Oro	7	Julio	2023-10-07T00:00:00	2024-11-08T16:00:00	6	Velocidad del viento	11.3
159822	7	Sololá	719	Santiago Atitlán	14	Cerro de Oro	7	Julio	2023-10-07T00:00:00	2024-11-08T16:00:00	7	Dirección del viento	11.27
159823	7	Sololá	719	Santiago Atitlán	14	Cerro de Oro	7	Julio	2023-10-07T00:00:00	2024-11-08T16:00:00	1	Precipitación	0
159824	7	Sololá	719	Santiago Atitlán	14	Cerro de Oro	7	Julio	2023-10-07T00:00:00	2024-11-08T16:00:00	8	Radiación solar	252
159825	7	Sololá	719	Santiago Atitlán	14	Cerro de Oro	7	Julio	2023-10-07T00:00:00	2024-11-08T17:00:00	2	Temperatura media	21.4
159826	7	Sololá	719	Santiago Atitlán	14	Cerro de Oro	7	Julio	2023-10-07T00:00:00	2024-11-08T17:00:00	4	Temperatura máxima	21.9
159827	7	Sololá	719	Santiago Atitlán	14	Cerro de Oro	7	Julio	2023-10-07T00:00:00	2024-11-08T17:00:00	3	Temperatura mínima	20.7
159828	7	Sololá	719	Santiago Atitlán	14	Cerro de Oro	7	Julio	2023-10-07T00:00:00	2024-11-08T17:00:00	5	Humedad	80
159829	7	Sololá	719	Santiago Atitlán	14	Cerro de Oro	7	Julio	2023-10-07T00:00:00	2024-11-08T17:00:00	6	Velocidad del viento	6.4
159830	7	Sololá	719	Santiago Atitlán	14	Cerro de Oro	7	Julio	2023-10-07T00:00:00	2024-11-08T17:00:00	7	Dirección del viento	6.44
159831	7	Sololá	719	Santiago Atitlán	14	Cerro de Oro	7	Julio	2023-10-07T00:00:00	2024-11-08T17:00:00	1	Precipitación	0
159832	7	Sololá	719	Santiago Atitlán	14	Cerro de Oro	7	Julio	2023-10-07T00:00:00	2024-11-08T17:00:00	8	Radiación solar	32
159833	7	Sololá	719	Santiago Atitlán	14	Cerro de Oro	7	Julio	2023-10-07T00:00:00	2024-11-08T18:00:00	2	Temperatura media	20.2
159834	7	Sololá	719	Santiago Atitlán	14	Cerro de Oro	7	Julio	2023-10-07T00:00:00	2024-11-08T18:00:00	4	Temperatura máxima	21.6
159835	7	Sololá	719	Santiago Atitlán	14	Cerro de Oro	7	Julio	2023-10-07T00:00:00	2024-11-08T18:00:00	3	Temperatura mínima	20.2
159836	7	Sololá	719	Santiago Atitlán	14	Cerro de Oro	7	Julio	2023-10-07T00:00:00	2024-11-08T18:00:00	5	Humedad	89
159837	7	Sololá	719	Santiago Atitlán	14	Cerro de Oro	7	Julio	2023-10-07T00:00:00	2024-11-08T18:00:00	6	Velocidad del viento	3.2
159838	7	Sololá	719	Santiago Atitlán	14	Cerro de Oro	7	Julio	2023-10-07T00:00:00	2024-11-08T18:00:00	7	Dirección del viento	3.22
159839	7	Sololá	719	Santiago Atitlán	14	Cerro de Oro	7	Julio	2023-10-07T00:00:00	2024-11-08T18:00:00	1	Precipitación	1
159840	7	Sololá	719	Santiago Atitlán	14	Cerro de Oro	7	Julio	2023-10-07T00:00:00	2024-11-08T18:00:00	8	Radiación solar	20
159841	7	Sololá	719	Santiago Atitlán	14	Cerro de Oro	7	Julio	2023-10-07T00:00:00	2024-11-08T19:00:00	2	Temperatura media	19.7
159842	7	Sololá	719	Santiago Atitlán	14	Cerro de Oro	7	Julio	2023-10-07T00:00:00	2024-11-08T19:00:00	4	Temperatura máxima	20.2
159843	7	Sololá	719	Santiago Atitlán	14	Cerro de Oro	7	Julio	2023-10-07T00:00:00	2024-11-08T19:00:00	3	Temperatura mínima	19.7
159844	7	Sololá	719	Santiago Atitlán	14	Cerro de Oro	7	Julio	2023-10-07T00:00:00	2024-11-08T19:00:00	5	Humedad	88
159845	7	Sololá	719	Santiago Atitlán	14	Cerro de Oro	7	Julio	2023-10-07T00:00:00	2024-11-08T19:00:00	6	Velocidad del viento	3.2
159846	7	Sololá	719	Santiago Atitlán	14	Cerro de Oro	7	Julio	2023-10-07T00:00:00	2024-11-08T19:00:00	7	Dirección del viento	3.22
159847	7	Sololá	719	Santiago Atitlán	14	Cerro de Oro	7	Julio	2023-10-07T00:00:00	2024-11-08T19:00:00	1	Precipitación	5.2
159848	7	Sololá	719	Santiago Atitlán	14	Cerro de Oro	7	Julio	2023-10-07T00:00:00	2024-11-08T19:00:00	8	Radiación solar	0
159849	7	Sololá	719	Santiago Atitlán	14	Cerro de Oro	7	Julio	2023-10-07T00:00:00	2024-11-08T20:00:00	2	Temperatura media	18.7
159850	7	Sololá	719	Santiago Atitlán	14	Cerro de Oro	7	Julio	2023-10-07T00:00:00	2024-11-08T20:00:00	4	Temperatura máxima	19.7
159851	7	Sololá	719	Santiago Atitlán	14	Cerro de Oro	7	Julio	2023-10-07T00:00:00	2024-11-08T20:00:00	3	Temperatura mínima	18.3
159852	7	Sololá	719	Santiago Atitlán	14	Cerro de Oro	7	Julio	2023-10-07T00:00:00	2024-11-08T20:00:00	5	Humedad	82
159853	7	Sololá	719	Santiago Atitlán	14	Cerro de Oro	7	Julio	2023-10-07T00:00:00	2024-11-08T20:00:00	6	Velocidad del viento	4.8
159854	7	Sololá	719	Santiago Atitlán	14	Cerro de Oro	7	Julio	2023-10-07T00:00:00	2024-11-08T20:00:00	7	Dirección del viento	4.83
159855	7	Sololá	719	Santiago Atitlán	14	Cerro de Oro	7	Julio	2023-10-07T00:00:00	2024-11-08T20:00:00	1	Precipitación	5.8
159856	7	Sololá	719	Santiago Atitlán	14	Cerro de Oro	7	Julio	2023-10-07T00:00:00	2024-11-08T20:00:00	8	Radiación solar	0
159857	7	Sololá	719	Santiago Atitlán	14	Cerro de Oro	7	Julio	2023-10-07T00:00:00	2024-11-08T21:00:00	2	Temperatura media	18.1
159858	7	Sololá	719	Santiago Atitlán	14	Cerro de Oro	7	Julio	2023-10-07T00:00:00	2024-11-08T21:00:00	4	Temperatura máxima	18.7
159859	7	Sololá	719	Santiago Atitlán	14	Cerro de Oro	7	Julio	2023-10-07T00:00:00	2024-11-08T21:00:00	3	Temperatura mínima	17.8
159860	7	Sololá	719	Santiago Atitlán	14	Cerro de Oro	7	Julio	2023-10-07T00:00:00	2024-11-08T21:00:00	5	Humedad	88
159861	7	Sololá	719	Santiago Atitlán	14	Cerro de Oro	7	Julio	2023-10-07T00:00:00	2024-11-08T21:00:00	6	Velocidad del viento	4.8
159862	7	Sololá	719	Santiago Atitlán	14	Cerro de Oro	7	Julio	2023-10-07T00:00:00	2024-11-08T21:00:00	7	Dirección del viento	4.83
159863	7	Sololá	719	Santiago Atitlán	14	Cerro de Oro	7	Julio	2023-10-07T00:00:00	2024-11-08T21:00:00	1	Precipitación	1.6
159864	7	Sololá	719	Santiago Atitlán	14	Cerro de Oro	7	Julio	2023-10-07T00:00:00	2024-11-08T21:00:00	8	Radiación solar	0
159865	7	Sololá	719	Santiago Atitlán	14	Cerro de Oro	7	Julio	2023-10-07T00:00:00	2024-11-08T22:00:00	2	Temperatura media	18.4
159866	7	Sololá	719	Santiago Atitlán	14	Cerro de Oro	7	Julio	2023-10-07T00:00:00	2024-11-08T22:00:00	4	Temperatura máxima	18.7
159867	7	Sololá	719	Santiago Atitlán	14	Cerro de Oro	7	Julio	2023-10-07T00:00:00	2024-11-08T22:00:00	3	Temperatura mínima	18
159868	7	Sololá	719	Santiago Atitlán	14	Cerro de Oro	7	Julio	2023-10-07T00:00:00	2024-11-08T22:00:00	5	Humedad	84
159869	7	Sololá	719	Santiago Atitlán	14	Cerro de Oro	7	Julio	2023-10-07T00:00:00	2024-11-08T22:00:00	6	Velocidad del viento	4.8
159870	7	Sololá	719	Santiago Atitlán	14	Cerro de Oro	7	Julio	2023-10-07T00:00:00	2024-11-08T22:00:00	7	Dirección del viento	4.83
159871	7	Sololá	719	Santiago Atitlán	14	Cerro de Oro	7	Julio	2023-10-07T00:00:00	2024-11-08T22:00:00	1	Precipitación	0.4
159872	7	Sololá	719	Santiago Atitlán	14	Cerro de Oro	7	Julio	2023-10-07T00:00:00	2024-11-08T22:00:00	8	Radiación solar	0
159873	7	Sololá	719	Santiago Atitlán	14	Cerro de Oro	7	Julio	2023-10-07T00:00:00	2024-11-08T23:00:00	2	Temperatura media	20.2
159874	7	Sololá	719	Santiago Atitlán	14	Cerro de Oro	7	Julio	2023-10-07T00:00:00	2024-11-08T23:00:00	4	Temperatura máxima	20.4
159875	7	Sololá	719	Santiago Atitlán	14	Cerro de Oro	7	Julio	2023-10-07T00:00:00	2024-11-08T23:00:00	3	Temperatura mínima	18.4
159876	7	Sololá	719	Santiago Atitlán	14	Cerro de Oro	7	Julio	2023-10-07T00:00:00	2024-11-08T23:00:00	5	Humedad	75
159877	7	Sololá	719	Santiago Atitlán	14	Cerro de Oro	7	Julio	2023-10-07T00:00:00	2024-11-08T23:00:00	6	Velocidad del viento	6.4
159878	7	Sololá	719	Santiago Atitlán	14	Cerro de Oro	7	Julio	2023-10-07T00:00:00	2024-11-08T23:00:00	7	Dirección del viento	6.44
159879	7	Sololá	719	Santiago Atitlán	14	Cerro de Oro	7	Julio	2023-10-07T00:00:00	2024-11-08T23:00:00	1	Precipitación	0
159880	7	Sololá	719	Santiago Atitlán	14	Cerro de Oro	7	Julio	2023-10-07T00:00:00	2024-11-08T23:00:00	8	Radiación solar	0
159881	7	Sololá	719	Santiago Atitlán	14	Cerro de Oro	7	Julio	2023-11-07T00:00:00	2024-11-08T00:00:00	2	Temperatura media	20.1
159882	7	Sololá	719	Santiago Atitlán	14	Cerro de Oro	7	Julio	2023-11-07T00:00:00	2024-11-08T00:00:00	4	Temperatura máxima	20.5
159883	7	Sololá	719	Santiago Atitlán	14	Cerro de Oro	7	Julio	2023-11-07T00:00:00	2024-11-08T00:00:00	3	Temperatura mínima	18.9
159884	7	Sololá	719	Santiago Atitlán	14	Cerro de Oro	7	Julio	2023-11-07T00:00:00	2024-11-08T00:00:00	5	Humedad	78
159885	7	Sololá	719	Santiago Atitlán	14	Cerro de Oro	7	Julio	2023-11-07T00:00:00	2024-11-08T00:00:00	6	Velocidad del viento	6.4
159886	7	Sololá	719	Santiago Atitlán	14	Cerro de Oro	7	Julio	2023-11-07T00:00:00	2024-11-08T00:00:00	7	Dirección del viento	6.44
159887	7	Sololá	719	Santiago Atitlán	14	Cerro de Oro	7	Julio	2023-11-07T00:00:00	2024-11-08T00:00:00	1	Precipitación	0
159888	7	Sololá	719	Santiago Atitlán	14	Cerro de Oro	7	Julio	2023-11-07T00:00:00	2024-11-08T00:00:00	8	Radiación solar	0
159889	7	Sololá	719	Santiago Atitlán	14	Cerro de Oro	7	Julio	2023-11-07T00:00:00	2024-11-08T01:00:00	2	Temperatura media	19.3
159890	7	Sololá	719	Santiago Atitlán	14	Cerro de Oro	7	Julio	2023-11-07T00:00:00	2024-11-08T01:00:00	4	Temperatura máxima	20.1
159891	7	Sololá	719	Santiago Atitlán	14	Cerro de Oro	7	Julio	2023-11-07T00:00:00	2024-11-08T01:00:00	3	Temperatura mínima	19.1
159892	7	Sololá	719	Santiago Atitlán	14	Cerro de Oro	7	Julio	2023-11-07T00:00:00	2024-11-08T01:00:00	5	Humedad	78
159893	7	Sololá	719	Santiago Atitlán	14	Cerro de Oro	7	Julio	2023-11-07T00:00:00	2024-11-08T01:00:00	6	Velocidad del viento	4.8
159894	7	Sololá	719	Santiago Atitlán	14	Cerro de Oro	7	Julio	2023-11-07T00:00:00	2024-11-08T01:00:00	7	Dirección del viento	4.83
159895	7	Sololá	719	Santiago Atitlán	14	Cerro de Oro	7	Julio	2023-11-07T00:00:00	2024-11-08T01:00:00	1	Precipitación	0
159896	7	Sololá	719	Santiago Atitlán	14	Cerro de Oro	7	Julio	2023-11-07T00:00:00	2024-11-08T01:00:00	8	Radiación solar	0
159897	7	Sololá	719	Santiago Atitlán	14	Cerro de Oro	7	Julio	2023-11-07T00:00:00	2024-11-08T02:00:00	2	Temperatura media	19.9
159898	7	Sololá	719	Santiago Atitlán	14	Cerro de Oro	7	Julio	2023-11-07T00:00:00	2024-11-08T02:00:00	4	Temperatura máxima	20.2
159899	7	Sololá	719	Santiago Atitlán	14	Cerro de Oro	7	Julio	2023-11-07T00:00:00	2024-11-08T02:00:00	3	Temperatura mínima	19.3
159900	7	Sololá	719	Santiago Atitlán	14	Cerro de Oro	7	Julio	2023-11-07T00:00:00	2024-11-08T02:00:00	5	Humedad	76
159901	7	Sololá	719	Santiago Atitlán	14	Cerro de Oro	7	Julio	2023-11-07T00:00:00	2024-11-08T02:00:00	6	Velocidad del viento	6.4
159902	7	Sololá	719	Santiago Atitlán	14	Cerro de Oro	7	Julio	2023-11-07T00:00:00	2024-11-08T02:00:00	7	Dirección del viento	6.44
159903	7	Sololá	719	Santiago Atitlán	14	Cerro de Oro	7	Julio	2023-11-07T00:00:00	2024-11-08T02:00:00	1	Precipitación	0
159904	7	Sololá	719	Santiago Atitlán	14	Cerro de Oro	7	Julio	2023-11-07T00:00:00	2024-11-08T02:00:00	8	Radiación solar	0
159905	7	Sololá	719	Santiago Atitlán	14	Cerro de Oro	7	Julio	2023-11-07T00:00:00	2024-11-08T03:00:00	2	Temperatura media	19.9
159906	7	Sololá	719	Santiago Atitlán	14	Cerro de Oro	7	Julio	2023-11-07T00:00:00	2024-11-08T03:00:00	4	Temperatura máxima	19.9
159907	7	Sololá	719	Santiago Atitlán	14	Cerro de Oro	7	Julio	2023-11-07T00:00:00	2024-11-08T03:00:00	3	Temperatura mínima	19.5
159908	7	Sololá	719	Santiago Atitlán	14	Cerro de Oro	7	Julio	2023-11-07T00:00:00	2024-11-08T03:00:00	5	Humedad	73
159909	7	Sololá	719	Santiago Atitlán	14	Cerro de Oro	7	Julio	2023-11-07T00:00:00	2024-11-08T03:00:00	6	Velocidad del viento	6.4
159910	7	Sololá	719	Santiago Atitlán	14	Cerro de Oro	7	Julio	2023-11-07T00:00:00	2024-11-08T03:00:00	7	Dirección del viento	6.44
159911	7	Sololá	719	Santiago Atitlán	14	Cerro de Oro	7	Julio	2023-11-07T00:00:00	2024-11-08T03:00:00	1	Precipitación	0
159912	7	Sololá	719	Santiago Atitlán	14	Cerro de Oro	7	Julio	2023-11-07T00:00:00	2024-11-08T03:00:00	8	Radiación solar	0
159913	7	Sololá	719	Santiago Atitlán	14	Cerro de Oro	7	Julio	2023-11-07T00:00:00	2024-11-08T04:00:00	2	Temperatura media	19.8
159914	7	Sololá	719	Santiago Atitlán	14	Cerro de Oro	7	Julio	2023-11-07T00:00:00	2024-11-08T04:00:00	4	Temperatura máxima	19.9
159915	7	Sololá	719	Santiago Atitlán	14	Cerro de Oro	7	Julio	2023-11-07T00:00:00	2024-11-08T04:00:00	3	Temperatura mínima	19.1
159916	7	Sololá	719	Santiago Atitlán	14	Cerro de Oro	7	Julio	2023-11-07T00:00:00	2024-11-08T04:00:00	5	Humedad	76
159917	7	Sololá	719	Santiago Atitlán	14	Cerro de Oro	7	Julio	2023-11-07T00:00:00	2024-11-08T04:00:00	6	Velocidad del viento	4.8
159918	7	Sololá	719	Santiago Atitlán	14	Cerro de Oro	7	Julio	2023-11-07T00:00:00	2024-11-08T04:00:00	7	Dirección del viento	4.83
159919	7	Sololá	719	Santiago Atitlán	14	Cerro de Oro	7	Julio	2023-11-07T00:00:00	2024-11-08T04:00:00	1	Precipitación	0
159920	7	Sololá	719	Santiago Atitlán	14	Cerro de Oro	7	Julio	2023-11-07T00:00:00	2024-11-08T04:00:00	8	Radiación solar	0
159921	7	Sololá	719	Santiago Atitlán	14	Cerro de Oro	7	Julio	2023-11-07T00:00:00	2024-11-08T05:00:00	2	Temperatura media	19.3
159922	7	Sololá	719	Santiago Atitlán	14	Cerro de Oro	7	Julio	2023-11-07T00:00:00	2024-11-08T05:00:00	4	Temperatura máxima	20
159923	7	Sololá	719	Santiago Atitlán	14	Cerro de Oro	7	Julio	2023-11-07T00:00:00	2024-11-08T05:00:00	3	Temperatura mínima	19.3
159924	7	Sololá	719	Santiago Atitlán	14	Cerro de Oro	7	Julio	2023-11-07T00:00:00	2024-11-08T05:00:00	5	Humedad	76
159925	7	Sololá	719	Santiago Atitlán	14	Cerro de Oro	7	Julio	2023-11-07T00:00:00	2024-11-08T05:00:00	6	Velocidad del viento	6.4
159926	7	Sololá	719	Santiago Atitlán	14	Cerro de Oro	7	Julio	2023-11-07T00:00:00	2024-11-08T05:00:00	7	Dirección del viento	6.44
159927	7	Sololá	719	Santiago Atitlán	14	Cerro de Oro	7	Julio	2023-11-07T00:00:00	2024-11-08T05:00:00	1	Precipitación	0
159928	7	Sololá	719	Santiago Atitlán	14	Cerro de Oro	7	Julio	2023-11-07T00:00:00	2024-11-08T05:00:00	8	Radiación solar	0
159929	7	Sololá	719	Santiago Atitlán	14	Cerro de Oro	7	Julio	2023-11-07T00:00:00	2024-11-08T06:00:00	2	Temperatura media	20.4
159930	7	Sololá	719	Santiago Atitlán	14	Cerro de Oro	7	Julio	2023-11-07T00:00:00	2024-11-08T06:00:00	4	Temperatura máxima	20.5
159931	7	Sololá	719	Santiago Atitlán	14	Cerro de Oro	7	Julio	2023-11-07T00:00:00	2024-11-08T06:00:00	3	Temperatura mínima	18.8
159932	7	Sololá	719	Santiago Atitlán	14	Cerro de Oro	7	Julio	2023-11-07T00:00:00	2024-11-08T06:00:00	5	Humedad	73
159933	7	Sololá	719	Santiago Atitlán	14	Cerro de Oro	7	Julio	2023-11-07T00:00:00	2024-11-08T06:00:00	6	Velocidad del viento	8
159934	7	Sololá	719	Santiago Atitlán	14	Cerro de Oro	7	Julio	2023-11-07T00:00:00	2024-11-08T06:00:00	7	Dirección del viento	8.05
159935	7	Sololá	719	Santiago Atitlán	14	Cerro de Oro	7	Julio	2023-11-07T00:00:00	2024-11-08T06:00:00	1	Precipitación	0
159936	7	Sololá	719	Santiago Atitlán	14	Cerro de Oro	7	Julio	2023-11-07T00:00:00	2024-11-08T06:00:00	8	Radiación solar	2
159937	7	Sololá	719	Santiago Atitlán	14	Cerro de Oro	7	Julio	2023-11-07T00:00:00	2024-11-08T07:00:00	2	Temperatura media	20.6
159938	7	Sololá	719	Santiago Atitlán	14	Cerro de Oro	7	Julio	2023-11-07T00:00:00	2024-11-08T07:00:00	4	Temperatura máxima	20.8
159939	7	Sololá	719	Santiago Atitlán	14	Cerro de Oro	7	Julio	2023-11-07T00:00:00	2024-11-08T07:00:00	3	Temperatura mínima	20.3
159940	7	Sololá	719	Santiago Atitlán	14	Cerro de Oro	7	Julio	2023-11-07T00:00:00	2024-11-08T07:00:00	5	Humedad	72
159941	7	Sololá	719	Santiago Atitlán	14	Cerro de Oro	7	Julio	2023-11-07T00:00:00	2024-11-08T07:00:00	6	Velocidad del viento	6.4
159942	7	Sololá	719	Santiago Atitlán	14	Cerro de Oro	7	Julio	2023-11-07T00:00:00	2024-11-08T07:00:00	7	Dirección del viento	6.44
159943	7	Sololá	719	Santiago Atitlán	14	Cerro de Oro	7	Julio	2023-11-07T00:00:00	2024-11-08T07:00:00	1	Precipitación	0
159944	7	Sololá	719	Santiago Atitlán	14	Cerro de Oro	7	Julio	2023-11-07T00:00:00	2024-11-08T07:00:00	8	Radiación solar	68
159945	7	Sololá	719	Santiago Atitlán	14	Cerro de Oro	7	Julio	2023-11-07T00:00:00	2024-11-08T08:00:00	2	Temperatura media	21.7
159946	7	Sololá	719	Santiago Atitlán	14	Cerro de Oro	7	Julio	2023-11-07T00:00:00	2024-11-08T08:00:00	4	Temperatura máxima	21.9
159947	7	Sololá	719	Santiago Atitlán	14	Cerro de Oro	7	Julio	2023-11-07T00:00:00	2024-11-08T08:00:00	3	Temperatura mínima	20.6
159948	7	Sololá	719	Santiago Atitlán	14	Cerro de Oro	7	Julio	2023-11-07T00:00:00	2024-11-08T08:00:00	5	Humedad	70
159949	7	Sololá	719	Santiago Atitlán	14	Cerro de Oro	7	Julio	2023-11-07T00:00:00	2024-11-08T08:00:00	6	Velocidad del viento	4.8
159950	7	Sololá	719	Santiago Atitlán	14	Cerro de Oro	7	Julio	2023-11-07T00:00:00	2024-11-08T08:00:00	7	Dirección del viento	4.83
159951	7	Sololá	719	Santiago Atitlán	14	Cerro de Oro	7	Julio	2023-11-07T00:00:00	2024-11-08T08:00:00	1	Precipitación	0
159952	7	Sololá	719	Santiago Atitlán	14	Cerro de Oro	7	Julio	2023-11-07T00:00:00	2024-11-08T08:00:00	8	Radiación solar	183
159953	7	Sololá	719	Santiago Atitlán	14	Cerro de Oro	7	Julio	2023-11-07T00:00:00	2024-11-08T09:00:00	2	Temperatura media	23.7
159954	7	Sololá	719	Santiago Atitlán	14	Cerro de Oro	7	Julio	2023-11-07T00:00:00	2024-11-08T09:00:00	4	Temperatura máxima	23.7
159955	7	Sololá	719	Santiago Atitlán	14	Cerro de Oro	7	Julio	2023-11-07T00:00:00	2024-11-08T09:00:00	3	Temperatura mínima	21.6
159956	7	Sololá	719	Santiago Atitlán	14	Cerro de Oro	7	Julio	2023-11-07T00:00:00	2024-11-08T09:00:00	5	Humedad	65
159957	7	Sololá	719	Santiago Atitlán	14	Cerro de Oro	7	Julio	2023-11-07T00:00:00	2024-11-08T09:00:00	6	Velocidad del viento	1.6
159958	7	Sololá	719	Santiago Atitlán	14	Cerro de Oro	7	Julio	2023-11-07T00:00:00	2024-11-08T09:00:00	7	Dirección del viento	1.61
159959	7	Sololá	719	Santiago Atitlán	14	Cerro de Oro	7	Julio	2023-11-07T00:00:00	2024-11-08T09:00:00	1	Precipitación	0
159960	7	Sololá	719	Santiago Atitlán	14	Cerro de Oro	7	Julio	2023-11-07T00:00:00	2024-11-08T09:00:00	8	Radiación solar	310
159961	7	Sololá	719	Santiago Atitlán	14	Cerro de Oro	7	Julio	2023-11-07T00:00:00	2024-11-08T10:00:00	2	Temperatura media	24.5
159962	7	Sololá	719	Santiago Atitlán	14	Cerro de Oro	7	Julio	2023-11-07T00:00:00	2024-11-08T10:00:00	4	Temperatura máxima	24.8
159963	7	Sololá	719	Santiago Atitlán	14	Cerro de Oro	7	Julio	2023-11-07T00:00:00	2024-11-08T10:00:00	3	Temperatura mínima	23.6
159964	7	Sololá	719	Santiago Atitlán	14	Cerro de Oro	7	Julio	2023-11-07T00:00:00	2024-11-08T10:00:00	5	Humedad	60
159965	7	Sololá	719	Santiago Atitlán	14	Cerro de Oro	7	Julio	2023-11-07T00:00:00	2024-11-08T10:00:00	6	Velocidad del viento	12.9
159966	7	Sololá	719	Santiago Atitlán	14	Cerro de Oro	7	Julio	2023-11-07T00:00:00	2024-11-08T10:00:00	7	Dirección del viento	12.87
159967	7	Sololá	719	Santiago Atitlán	14	Cerro de Oro	7	Julio	2023-11-07T00:00:00	2024-11-08T10:00:00	1	Precipitación	0
159968	7	Sololá	719	Santiago Atitlán	14	Cerro de Oro	7	Julio	2023-11-07T00:00:00	2024-11-08T10:00:00	8	Radiación solar	622
159969	7	Sololá	719	Santiago Atitlán	14	Cerro de Oro	7	Julio	2023-11-07T00:00:00	2024-11-08T11:00:00	2	Temperatura media	24.6
159970	7	Sololá	719	Santiago Atitlán	14	Cerro de Oro	7	Julio	2023-11-07T00:00:00	2024-11-08T11:00:00	4	Temperatura máxima	24.6
159971	7	Sololá	719	Santiago Atitlán	14	Cerro de Oro	7	Julio	2023-11-07T00:00:00	2024-11-08T11:00:00	3	Temperatura mínima	24.2
159972	7	Sololá	719	Santiago Atitlán	14	Cerro de Oro	7	Julio	2023-11-07T00:00:00	2024-11-08T11:00:00	5	Humedad	59
159973	7	Sololá	719	Santiago Atitlán	14	Cerro de Oro	7	Julio	2023-11-07T00:00:00	2024-11-08T11:00:00	6	Velocidad del viento	17.7
159974	7	Sololá	719	Santiago Atitlán	14	Cerro de Oro	7	Julio	2023-11-07T00:00:00	2024-11-08T11:00:00	7	Dirección del viento	17.7
159975	7	Sololá	719	Santiago Atitlán	14	Cerro de Oro	7	Julio	2023-11-07T00:00:00	2024-11-08T11:00:00	1	Precipitación	0
159976	7	Sololá	719	Santiago Atitlán	14	Cerro de Oro	7	Julio	2023-11-07T00:00:00	2024-11-08T11:00:00	8	Radiación solar	475
159977	7	Sololá	719	Santiago Atitlán	14	Cerro de Oro	7	Julio	2023-11-07T00:00:00	2024-11-08T12:00:00	2	Temperatura media	25.8
159978	7	Sololá	719	Santiago Atitlán	14	Cerro de Oro	7	Julio	2023-11-07T00:00:00	2024-11-08T12:00:00	4	Temperatura máxima	26.1
159979	7	Sololá	719	Santiago Atitlán	14	Cerro de Oro	7	Julio	2023-11-07T00:00:00	2024-11-08T12:00:00	3	Temperatura mínima	24.6
159980	7	Sololá	719	Santiago Atitlán	14	Cerro de Oro	7	Julio	2023-11-07T00:00:00	2024-11-08T12:00:00	5	Humedad	54
159981	7	Sololá	719	Santiago Atitlán	14	Cerro de Oro	7	Julio	2023-11-07T00:00:00	2024-11-08T12:00:00	6	Velocidad del viento	11.3
159982	7	Sololá	719	Santiago Atitlán	14	Cerro de Oro	7	Julio	2023-11-07T00:00:00	2024-11-08T12:00:00	7	Dirección del viento	11.27
159983	7	Sololá	719	Santiago Atitlán	14	Cerro de Oro	7	Julio	2023-11-07T00:00:00	2024-11-08T12:00:00	1	Precipitación	0
159984	7	Sololá	719	Santiago Atitlán	14	Cerro de Oro	7	Julio	2023-11-07T00:00:00	2024-11-08T12:00:00	8	Radiación solar	852
159985	7	Sololá	719	Santiago Atitlán	14	Cerro de Oro	7	Julio	2023-11-07T00:00:00	2024-11-08T13:00:00	2	Temperatura media	26.7
159986	7	Sololá	719	Santiago Atitlán	14	Cerro de Oro	7	Julio	2023-11-07T00:00:00	2024-11-08T13:00:00	4	Temperatura máxima	26.7
159987	7	Sololá	719	Santiago Atitlán	14	Cerro de Oro	7	Julio	2023-11-07T00:00:00	2024-11-08T13:00:00	3	Temperatura mínima	25.8
159988	7	Sololá	719	Santiago Atitlán	14	Cerro de Oro	7	Julio	2023-11-07T00:00:00	2024-11-08T13:00:00	5	Humedad	52
159989	7	Sololá	719	Santiago Atitlán	14	Cerro de Oro	7	Julio	2023-11-07T00:00:00	2024-11-08T13:00:00	6	Velocidad del viento	11.3
159990	7	Sololá	719	Santiago Atitlán	14	Cerro de Oro	7	Julio	2023-11-07T00:00:00	2024-11-08T13:00:00	7	Dirección del viento	11.27
159991	7	Sololá	719	Santiago Atitlán	14	Cerro de Oro	7	Julio	2023-11-07T00:00:00	2024-11-08T13:00:00	1	Precipitación	0
159992	7	Sololá	719	Santiago Atitlán	14	Cerro de Oro	7	Julio	2023-11-07T00:00:00	2024-11-08T13:00:00	8	Radiación solar	770
159993	7	Sololá	719	Santiago Atitlán	14	Cerro de Oro	7	Julio	2023-11-07T00:00:00	2024-11-08T14:00:00	2	Temperatura media	26.2
159994	7	Sololá	719	Santiago Atitlán	14	Cerro de Oro	7	Julio	2023-11-07T00:00:00	2024-11-08T14:00:00	4	Temperatura máxima	26.8
159995	7	Sololá	719	Santiago Atitlán	14	Cerro de Oro	7	Julio	2023-11-07T00:00:00	2024-11-08T14:00:00	3	Temperatura mínima	26.2
159996	7	Sololá	719	Santiago Atitlán	14	Cerro de Oro	7	Julio	2023-11-07T00:00:00	2024-11-08T14:00:00	5	Humedad	55
159997	7	Sololá	719	Santiago Atitlán	14	Cerro de Oro	7	Julio	2023-11-07T00:00:00	2024-11-08T14:00:00	6	Velocidad del viento	12.9
159998	7	Sololá	719	Santiago Atitlán	14	Cerro de Oro	7	Julio	2023-11-07T00:00:00	2024-11-08T14:00:00	7	Dirección del viento	12.87
159999	7	Sololá	719	Santiago Atitlán	14	Cerro de Oro	7	Julio	2023-11-07T00:00:00	2024-11-08T14:00:00	1	Precipitación	0
160000	7	Sololá	719	Santiago Atitlán	14	Cerro de Oro	7	Julio	2023-11-07T00:00:00	2024-11-08T14:00:00	8	Radiación solar	735
160001	7	Sololá	719	Santiago Atitlán	14	Cerro de Oro	7	Julio	2023-11-07T00:00:00	2024-11-08T15:00:00	2	Temperatura media	26.6
160002	7	Sololá	719	Santiago Atitlán	14	Cerro de Oro	7	Julio	2023-11-07T00:00:00	2024-11-08T15:00:00	4	Temperatura máxima	26.8
160003	7	Sololá	719	Santiago Atitlán	14	Cerro de Oro	7	Julio	2023-11-07T00:00:00	2024-11-08T15:00:00	3	Temperatura mínima	25.9
160004	7	Sololá	719	Santiago Atitlán	14	Cerro de Oro	7	Julio	2023-11-07T00:00:00	2024-11-08T15:00:00	5	Humedad	53
160005	7	Sololá	719	Santiago Atitlán	14	Cerro de Oro	7	Julio	2023-11-07T00:00:00	2024-11-08T15:00:00	6	Velocidad del viento	14.5
160006	7	Sololá	719	Santiago Atitlán	14	Cerro de Oro	7	Julio	2023-11-07T00:00:00	2024-11-08T15:00:00	7	Dirección del viento	14.48
160007	7	Sololá	719	Santiago Atitlán	14	Cerro de Oro	7	Julio	2023-11-07T00:00:00	2024-11-08T15:00:00	1	Precipitación	0
160008	7	Sololá	719	Santiago Atitlán	14	Cerro de Oro	7	Julio	2023-11-07T00:00:00	2024-11-08T15:00:00	8	Radiación solar	775
160009	7	Sololá	719	Santiago Atitlán	14	Cerro de Oro	7	Julio	2023-11-07T00:00:00	2024-11-08T16:00:00	2	Temperatura media	26.9
160010	7	Sololá	719	Santiago Atitlán	14	Cerro de Oro	7	Julio	2023-11-07T00:00:00	2024-11-08T16:00:00	4	Temperatura máxima	26.9
160011	7	Sololá	719	Santiago Atitlán	14	Cerro de Oro	7	Julio	2023-11-07T00:00:00	2024-11-08T16:00:00	3	Temperatura mínima	26.3
160012	7	Sololá	719	Santiago Atitlán	14	Cerro de Oro	7	Julio	2023-11-07T00:00:00	2024-11-08T16:00:00	5	Humedad	53
160013	7	Sololá	719	Santiago Atitlán	14	Cerro de Oro	7	Julio	2023-11-07T00:00:00	2024-11-08T16:00:00	6	Velocidad del viento	12.9
160014	7	Sololá	719	Santiago Atitlán	14	Cerro de Oro	7	Julio	2023-11-07T00:00:00	2024-11-08T16:00:00	7	Dirección del viento	12.87
160015	7	Sololá	719	Santiago Atitlán	14	Cerro de Oro	7	Julio	2023-11-07T00:00:00	2024-11-08T16:00:00	1	Precipitación	0
160016	7	Sololá	719	Santiago Atitlán	14	Cerro de Oro	7	Julio	2023-11-07T00:00:00	2024-11-08T16:00:00	8	Radiación solar	674
160017	7	Sololá	719	Santiago Atitlán	14	Cerro de Oro	7	Julio	2023-11-07T00:00:00	2024-11-08T17:00:00	2	Temperatura media	25.6
160018	7	Sololá	719	Santiago Atitlán	14	Cerro de Oro	7	Julio	2023-11-07T00:00:00	2024-11-08T17:00:00	4	Temperatura máxima	26.8
160019	7	Sololá	719	Santiago Atitlán	14	Cerro de Oro	7	Julio	2023-11-07T00:00:00	2024-11-08T17:00:00	3	Temperatura mínima	25.6
160020	7	Sololá	719	Santiago Atitlán	14	Cerro de Oro	7	Julio	2023-11-07T00:00:00	2024-11-08T17:00:00	5	Humedad	56
160021	7	Sololá	719	Santiago Atitlán	14	Cerro de Oro	7	Julio	2023-11-07T00:00:00	2024-11-08T17:00:00	6	Velocidad del viento	11.3
160022	7	Sololá	719	Santiago Atitlán	14	Cerro de Oro	7	Julio	2023-11-07T00:00:00	2024-11-08T17:00:00	7	Dirección del viento	11.27
160023	7	Sololá	719	Santiago Atitlán	14	Cerro de Oro	7	Julio	2023-11-07T00:00:00	2024-11-08T17:00:00	1	Precipitación	0
160024	7	Sololá	719	Santiago Atitlán	14	Cerro de Oro	7	Julio	2023-11-07T00:00:00	2024-11-08T17:00:00	8	Radiación solar	257
160025	7	Sololá	719	Santiago Atitlán	14	Cerro de Oro	7	Julio	2023-11-07T00:00:00	2024-11-08T18:00:00	2	Temperatura media	23.9
160026	7	Sololá	719	Santiago Atitlán	14	Cerro de Oro	7	Julio	2023-11-07T00:00:00	2024-11-08T18:00:00	4	Temperatura máxima	25.7
160027	7	Sololá	719	Santiago Atitlán	14	Cerro de Oro	7	Julio	2023-11-07T00:00:00	2024-11-08T18:00:00	3	Temperatura mínima	23.9
160028	7	Sololá	719	Santiago Atitlán	14	Cerro de Oro	7	Julio	2023-11-07T00:00:00	2024-11-08T18:00:00	5	Humedad	64
160029	7	Sololá	719	Santiago Atitlán	14	Cerro de Oro	7	Julio	2023-11-07T00:00:00	2024-11-08T18:00:00	6	Velocidad del viento	11.3
160030	7	Sololá	719	Santiago Atitlán	14	Cerro de Oro	7	Julio	2023-11-07T00:00:00	2024-11-08T18:00:00	7	Dirección del viento	11.27
160031	7	Sololá	719	Santiago Atitlán	14	Cerro de Oro	7	Julio	2023-11-07T00:00:00	2024-11-08T18:00:00	1	Precipitación	0
160032	7	Sololá	719	Santiago Atitlán	14	Cerro de Oro	7	Julio	2023-11-07T00:00:00	2024-11-08T18:00:00	8	Radiación solar	53
160033	7	Sololá	719	Santiago Atitlán	14	Cerro de Oro	7	Julio	2023-11-07T00:00:00	2024-11-08T19:00:00	2	Temperatura media	23.2
160034	7	Sololá	719	Santiago Atitlán	14	Cerro de Oro	7	Julio	2023-11-07T00:00:00	2024-11-08T19:00:00	4	Temperatura máxima	23.9
160035	7	Sololá	719	Santiago Atitlán	14	Cerro de Oro	7	Julio	2023-11-07T00:00:00	2024-11-08T19:00:00	3	Temperatura mínima	23.1
160036	7	Sololá	719	Santiago Atitlán	14	Cerro de Oro	7	Julio	2023-11-07T00:00:00	2024-11-08T19:00:00	5	Humedad	69
160037	7	Sololá	719	Santiago Atitlán	14	Cerro de Oro	7	Julio	2023-11-07T00:00:00	2024-11-08T19:00:00	6	Velocidad del viento	12.9
160038	7	Sololá	719	Santiago Atitlán	14	Cerro de Oro	7	Julio	2023-11-07T00:00:00	2024-11-08T19:00:00	7	Dirección del viento	12.87
160039	7	Sololá	719	Santiago Atitlán	14	Cerro de Oro	7	Julio	2023-11-07T00:00:00	2024-11-08T19:00:00	1	Precipitación	0
160040	7	Sololá	719	Santiago Atitlán	14	Cerro de Oro	7	Julio	2023-11-07T00:00:00	2024-11-08T19:00:00	8	Radiación solar	0
160041	7	Sololá	719	Santiago Atitlán	14	Cerro de Oro	7	Julio	2023-11-07T00:00:00	2024-11-08T20:00:00	2	Temperatura media	22.4
160042	7	Sololá	719	Santiago Atitlán	14	Cerro de Oro	7	Julio	2023-11-07T00:00:00	2024-11-08T20:00:00	4	Temperatura máxima	23.1
160043	7	Sololá	719	Santiago Atitlán	14	Cerro de Oro	7	Julio	2023-11-07T00:00:00	2024-11-08T20:00:00	3	Temperatura mínima	22.4
160044	7	Sololá	719	Santiago Atitlán	14	Cerro de Oro	7	Julio	2023-11-07T00:00:00	2024-11-08T20:00:00	5	Humedad	71
160045	7	Sololá	719	Santiago Atitlán	14	Cerro de Oro	7	Julio	2023-11-07T00:00:00	2024-11-08T20:00:00	6	Velocidad del viento	11.3
160046	7	Sololá	719	Santiago Atitlán	14	Cerro de Oro	7	Julio	2023-11-07T00:00:00	2024-11-08T20:00:00	7	Dirección del viento	11.27
160047	7	Sololá	719	Santiago Atitlán	14	Cerro de Oro	7	Julio	2023-11-07T00:00:00	2024-11-08T20:00:00	1	Precipitación	0
160048	7	Sololá	719	Santiago Atitlán	14	Cerro de Oro	7	Julio	2023-11-07T00:00:00	2024-11-08T20:00:00	8	Radiación solar	0
160049	7	Sololá	719	Santiago Atitlán	14	Cerro de Oro	7	Julio	2023-11-07T00:00:00	2024-11-08T21:00:00	2	Temperatura media	21.8
160050	7	Sololá	719	Santiago Atitlán	14	Cerro de Oro	7	Julio	2023-11-07T00:00:00	2024-11-08T21:00:00	4	Temperatura máxima	22.4
160051	7	Sololá	719	Santiago Atitlán	14	Cerro de Oro	7	Julio	2023-11-07T00:00:00	2024-11-08T21:00:00	3	Temperatura mínima	21.8
160052	7	Sololá	719	Santiago Atitlán	14	Cerro de Oro	7	Julio	2023-11-07T00:00:00	2024-11-08T21:00:00	5	Humedad	73
160053	7	Sololá	719	Santiago Atitlán	14	Cerro de Oro	7	Julio	2023-11-07T00:00:00	2024-11-08T21:00:00	6	Velocidad del viento	9.7
160054	7	Sololá	719	Santiago Atitlán	14	Cerro de Oro	7	Julio	2023-11-07T00:00:00	2024-11-08T21:00:00	7	Dirección del viento	9.66
160055	7	Sololá	719	Santiago Atitlán	14	Cerro de Oro	7	Julio	2023-11-07T00:00:00	2024-11-08T21:00:00	1	Precipitación	0
160056	7	Sololá	719	Santiago Atitlán	14	Cerro de Oro	7	Julio	2023-11-07T00:00:00	2024-11-08T21:00:00	8	Radiación solar	0
160057	7	Sololá	719	Santiago Atitlán	14	Cerro de Oro	7	Julio	2023-11-07T00:00:00	2024-11-08T22:00:00	2	Temperatura media	21.3
160058	7	Sololá	719	Santiago Atitlán	14	Cerro de Oro	7	Julio	2023-11-07T00:00:00	2024-11-08T22:00:00	4	Temperatura máxima	21.9
160059	7	Sololá	719	Santiago Atitlán	14	Cerro de Oro	7	Julio	2023-11-07T00:00:00	2024-11-08T22:00:00	3	Temperatura mínima	21.3
160060	7	Sololá	719	Santiago Atitlán	14	Cerro de Oro	7	Julio	2023-11-07T00:00:00	2024-11-08T22:00:00	5	Humedad	73
160061	7	Sololá	719	Santiago Atitlán	14	Cerro de Oro	7	Julio	2023-11-07T00:00:00	2024-11-08T22:00:00	6	Velocidad del viento	8
160062	7	Sololá	719	Santiago Atitlán	14	Cerro de Oro	7	Julio	2023-11-07T00:00:00	2024-11-08T22:00:00	7	Dirección del viento	8.05
160063	7	Sololá	719	Santiago Atitlán	14	Cerro de Oro	7	Julio	2023-11-07T00:00:00	2024-11-08T22:00:00	1	Precipitación	0
160064	7	Sololá	719	Santiago Atitlán	14	Cerro de Oro	7	Julio	2023-11-07T00:00:00	2024-11-08T22:00:00	8	Radiación solar	0
160065	7	Sololá	719	Santiago Atitlán	14	Cerro de Oro	7	Julio	2023-11-07T00:00:00	2024-11-08T23:00:00	2	Temperatura media	21.6
160066	7	Sololá	719	Santiago Atitlán	14	Cerro de Oro	7	Julio	2023-11-07T00:00:00	2024-11-08T23:00:00	4	Temperatura máxima	21.6
160067	7	Sololá	719	Santiago Atitlán	14	Cerro de Oro	7	Julio	2023-11-07T00:00:00	2024-11-08T23:00:00	3	Temperatura mínima	20.3
160068	7	Sololá	719	Santiago Atitlán	14	Cerro de Oro	7	Julio	2023-11-07T00:00:00	2024-11-08T23:00:00	5	Humedad	70
160069	7	Sololá	719	Santiago Atitlán	14	Cerro de Oro	7	Julio	2023-11-07T00:00:00	2024-11-08T23:00:00	6	Velocidad del viento	6.4
160070	7	Sololá	719	Santiago Atitlán	14	Cerro de Oro	7	Julio	2023-11-07T00:00:00	2024-11-08T23:00:00	7	Dirección del viento	6.44
160071	7	Sololá	719	Santiago Atitlán	14	Cerro de Oro	7	Julio	2023-11-07T00:00:00	2024-11-08T23:00:00	1	Precipitación	0
160072	7	Sololá	719	Santiago Atitlán	14	Cerro de Oro	7	Julio	2023-11-07T00:00:00	2024-11-08T23:00:00	8	Radiación solar	0
160073	7	Sololá	719	Santiago Atitlán	14	Cerro de Oro	7	Julio	2023-12-07T00:00:00	2024-11-08T00:00:00	2	Temperatura media	21.3
160074	7	Sololá	719	Santiago Atitlán	14	Cerro de Oro	7	Julio	2023-12-07T00:00:00	2024-11-08T00:00:00	4	Temperatura máxima	21.7
160075	7	Sololá	719	Santiago Atitlán	14	Cerro de Oro	7	Julio	2023-12-07T00:00:00	2024-11-08T00:00:00	3	Temperatura mínima	21.2
160076	7	Sololá	719	Santiago Atitlán	14	Cerro de Oro	7	Julio	2023-12-07T00:00:00	2024-11-08T00:00:00	5	Humedad	72
160077	7	Sololá	719	Santiago Atitlán	14	Cerro de Oro	7	Julio	2023-12-07T00:00:00	2024-11-08T00:00:00	6	Velocidad del viento	6.4
160078	7	Sololá	719	Santiago Atitlán	14	Cerro de Oro	7	Julio	2023-12-07T00:00:00	2024-11-08T00:00:00	7	Dirección del viento	6.44
160079	7	Sololá	719	Santiago Atitlán	14	Cerro de Oro	7	Julio	2023-12-07T00:00:00	2024-11-08T00:00:00	1	Precipitación	0
160080	7	Sololá	719	Santiago Atitlán	14	Cerro de Oro	7	Julio	2023-12-07T00:00:00	2024-11-08T00:00:00	8	Radiación solar	0
160081	7	Sololá	719	Santiago Atitlán	14	Cerro de Oro	7	Julio	2023-12-07T00:00:00	2024-11-08T01:00:00	2	Temperatura media	20.3
160082	7	Sololá	719	Santiago Atitlán	14	Cerro de Oro	7	Julio	2023-12-07T00:00:00	2024-11-08T01:00:00	4	Temperatura máxima	21.3
160083	7	Sololá	719	Santiago Atitlán	14	Cerro de Oro	7	Julio	2023-12-07T00:00:00	2024-11-08T01:00:00	3	Temperatura mínima	20.1
160084	7	Sololá	719	Santiago Atitlán	14	Cerro de Oro	7	Julio	2023-12-07T00:00:00	2024-11-08T01:00:00	5	Humedad	71
160085	7	Sololá	719	Santiago Atitlán	14	Cerro de Oro	7	Julio	2023-12-07T00:00:00	2024-11-08T01:00:00	6	Velocidad del viento	4.8
160086	7	Sololá	719	Santiago Atitlán	14	Cerro de Oro	7	Julio	2023-12-07T00:00:00	2024-11-08T01:00:00	7	Dirección del viento	4.83
160087	7	Sololá	719	Santiago Atitlán	14	Cerro de Oro	7	Julio	2023-12-07T00:00:00	2024-11-08T01:00:00	1	Precipitación	0
160088	7	Sololá	719	Santiago Atitlán	14	Cerro de Oro	7	Julio	2023-12-07T00:00:00	2024-11-08T01:00:00	8	Radiación solar	0
160089	7	Sololá	719	Santiago Atitlán	14	Cerro de Oro	7	Julio	2023-12-07T00:00:00	2024-11-08T02:00:00	2	Temperatura media	19.5
160090	7	Sololá	719	Santiago Atitlán	14	Cerro de Oro	7	Julio	2023-12-07T00:00:00	2024-11-08T02:00:00	4	Temperatura máxima	20.3
160091	7	Sololá	719	Santiago Atitlán	14	Cerro de Oro	7	Julio	2023-12-07T00:00:00	2024-11-08T02:00:00	3	Temperatura mínima	19
160092	7	Sololá	719	Santiago Atitlán	14	Cerro de Oro	7	Julio	2023-12-07T00:00:00	2024-11-08T02:00:00	5	Humedad	73
160093	7	Sololá	719	Santiago Atitlán	14	Cerro de Oro	7	Julio	2023-12-07T00:00:00	2024-11-08T02:00:00	6	Velocidad del viento	6.4
160094	7	Sololá	719	Santiago Atitlán	14	Cerro de Oro	7	Julio	2023-12-07T00:00:00	2024-11-08T02:00:00	7	Dirección del viento	6.44
160095	7	Sololá	719	Santiago Atitlán	14	Cerro de Oro	7	Julio	2023-12-07T00:00:00	2024-11-08T02:00:00	1	Precipitación	0
160096	7	Sololá	719	Santiago Atitlán	14	Cerro de Oro	7	Julio	2023-12-07T00:00:00	2024-11-08T02:00:00	8	Radiación solar	0
160097	7	Sololá	719	Santiago Atitlán	14	Cerro de Oro	7	Julio	2023-12-07T00:00:00	2024-11-08T03:00:00	2	Temperatura media	20.5
160098	7	Sololá	719	Santiago Atitlán	14	Cerro de Oro	7	Julio	2023-12-07T00:00:00	2024-11-08T03:00:00	4	Temperatura máxima	21
160099	7	Sololá	719	Santiago Atitlán	14	Cerro de Oro	7	Julio	2023-12-07T00:00:00	2024-11-08T03:00:00	3	Temperatura mínima	19.4
160100	7	Sololá	719	Santiago Atitlán	14	Cerro de Oro	7	Julio	2023-12-07T00:00:00	2024-11-08T03:00:00	5	Humedad	70
160101	7	Sololá	719	Santiago Atitlán	14	Cerro de Oro	7	Julio	2023-12-07T00:00:00	2024-11-08T03:00:00	6	Velocidad del viento	6.4
160102	7	Sololá	719	Santiago Atitlán	14	Cerro de Oro	7	Julio	2023-12-07T00:00:00	2024-11-08T03:00:00	7	Dirección del viento	6.44
160103	7	Sololá	719	Santiago Atitlán	14	Cerro de Oro	7	Julio	2023-12-07T00:00:00	2024-11-08T03:00:00	1	Precipitación	0
160104	7	Sololá	719	Santiago Atitlán	14	Cerro de Oro	7	Julio	2023-12-07T00:00:00	2024-11-08T03:00:00	8	Radiación solar	0
160105	7	Sololá	719	Santiago Atitlán	14	Cerro de Oro	7	Julio	2023-12-07T00:00:00	2024-11-08T04:00:00	2	Temperatura media	20.5
160106	7	Sololá	719	Santiago Atitlán	14	Cerro de Oro	7	Julio	2023-12-07T00:00:00	2024-11-08T04:00:00	4	Temperatura máxima	21
160107	7	Sololá	719	Santiago Atitlán	14	Cerro de Oro	7	Julio	2023-12-07T00:00:00	2024-11-08T04:00:00	3	Temperatura mínima	19.9
160108	7	Sololá	719	Santiago Atitlán	14	Cerro de Oro	7	Julio	2023-12-07T00:00:00	2024-11-08T04:00:00	5	Humedad	70
160109	7	Sololá	719	Santiago Atitlán	14	Cerro de Oro	7	Julio	2023-12-07T00:00:00	2024-11-08T04:00:00	6	Velocidad del viento	4.8
160110	7	Sololá	719	Santiago Atitlán	14	Cerro de Oro	7	Julio	2023-12-07T00:00:00	2024-11-08T04:00:00	7	Dirección del viento	4.83
160111	7	Sololá	719	Santiago Atitlán	14	Cerro de Oro	7	Julio	2023-12-07T00:00:00	2024-11-08T04:00:00	1	Precipitación	0
160112	7	Sololá	719	Santiago Atitlán	14	Cerro de Oro	7	Julio	2023-12-07T00:00:00	2024-11-08T04:00:00	8	Radiación solar	0
160113	7	Sololá	719	Santiago Atitlán	14	Cerro de Oro	7	Julio	2023-12-07T00:00:00	2024-11-08T05:00:00	2	Temperatura media	19.9
160114	7	Sololá	719	Santiago Atitlán	14	Cerro de Oro	7	Julio	2023-12-07T00:00:00	2024-11-08T05:00:00	4	Temperatura máxima	20.6
160115	7	Sololá	719	Santiago Atitlán	14	Cerro de Oro	7	Julio	2023-12-07T00:00:00	2024-11-08T05:00:00	3	Temperatura mínima	19.9
160116	7	Sololá	719	Santiago Atitlán	14	Cerro de Oro	7	Julio	2023-12-07T00:00:00	2024-11-08T05:00:00	5	Humedad	73
160117	7	Sololá	719	Santiago Atitlán	14	Cerro de Oro	7	Julio	2023-12-07T00:00:00	2024-11-08T05:00:00	6	Velocidad del viento	6.4
160118	7	Sololá	719	Santiago Atitlán	14	Cerro de Oro	7	Julio	2023-12-07T00:00:00	2024-11-08T05:00:00	7	Dirección del viento	6.44
160119	7	Sololá	719	Santiago Atitlán	14	Cerro de Oro	7	Julio	2023-12-07T00:00:00	2024-11-08T05:00:00	1	Precipitación	0
160120	7	Sololá	719	Santiago Atitlán	14	Cerro de Oro	7	Julio	2023-12-07T00:00:00	2024-11-08T05:00:00	8	Radiación solar	0
160121	7	Sololá	719	Santiago Atitlán	14	Cerro de Oro	7	Julio	2023-12-07T00:00:00	2024-11-08T06:00:00	2	Temperatura media	21.2
160122	7	Sololá	719	Santiago Atitlán	14	Cerro de Oro	7	Julio	2023-12-07T00:00:00	2024-11-08T06:00:00	4	Temperatura máxima	21.2
160123	7	Sololá	719	Santiago Atitlán	14	Cerro de Oro	7	Julio	2023-12-07T00:00:00	2024-11-08T06:00:00	3	Temperatura mínima	19.1
160124	7	Sololá	719	Santiago Atitlán	14	Cerro de Oro	7	Julio	2023-12-07T00:00:00	2024-11-08T06:00:00	5	Humedad	69
160125	7	Sololá	719	Santiago Atitlán	14	Cerro de Oro	7	Julio	2023-12-07T00:00:00	2024-11-08T06:00:00	6	Velocidad del viento	8
160126	7	Sololá	719	Santiago Atitlán	14	Cerro de Oro	7	Julio	2023-12-07T00:00:00	2024-11-08T06:00:00	7	Dirección del viento	8.05
160127	7	Sololá	719	Santiago Atitlán	14	Cerro de Oro	7	Julio	2023-12-07T00:00:00	2024-11-08T06:00:00	1	Precipitación	0
160128	7	Sololá	719	Santiago Atitlán	14	Cerro de Oro	7	Julio	2023-12-07T00:00:00	2024-11-08T06:00:00	8	Radiación solar	3
160129	7	Sololá	719	Santiago Atitlán	14	Cerro de Oro	7	Julio	2023-12-07T00:00:00	2024-11-08T07:00:00	2	Temperatura media	21.9
160130	7	Sololá	719	Santiago Atitlán	14	Cerro de Oro	7	Julio	2023-12-07T00:00:00	2024-11-08T07:00:00	4	Temperatura máxima	21.9
160131	7	Sololá	719	Santiago Atitlán	14	Cerro de Oro	7	Julio	2023-12-07T00:00:00	2024-11-08T07:00:00	3	Temperatura mínima	21.1
160132	7	Sololá	719	Santiago Atitlán	14	Cerro de Oro	7	Julio	2023-12-07T00:00:00	2024-11-08T07:00:00	5	Humedad	64
160133	7	Sololá	719	Santiago Atitlán	14	Cerro de Oro	7	Julio	2023-12-07T00:00:00	2024-11-08T07:00:00	6	Velocidad del viento	8
160134	7	Sololá	719	Santiago Atitlán	14	Cerro de Oro	7	Julio	2023-12-07T00:00:00	2024-11-08T07:00:00	7	Dirección del viento	8.05
160135	7	Sololá	719	Santiago Atitlán	14	Cerro de Oro	7	Julio	2023-12-07T00:00:00	2024-11-08T07:00:00	1	Precipitación	0
160136	7	Sololá	719	Santiago Atitlán	14	Cerro de Oro	7	Julio	2023-12-07T00:00:00	2024-11-08T07:00:00	8	Radiación solar	104
160137	7	Sololá	719	Santiago Atitlán	14	Cerro de Oro	7	Julio	2023-12-07T00:00:00	2024-11-08T08:00:00	2	Temperatura media	21.5
160138	7	Sololá	719	Santiago Atitlán	14	Cerro de Oro	7	Julio	2023-12-07T00:00:00	2024-11-08T08:00:00	4	Temperatura máxima	22.1
160139	7	Sololá	719	Santiago Atitlán	14	Cerro de Oro	7	Julio	2023-12-07T00:00:00	2024-11-08T08:00:00	3	Temperatura mínima	21.4
160140	7	Sololá	719	Santiago Atitlán	14	Cerro de Oro	7	Julio	2023-12-07T00:00:00	2024-11-08T08:00:00	5	Humedad	68
160141	7	Sololá	719	Santiago Atitlán	14	Cerro de Oro	7	Julio	2023-12-07T00:00:00	2024-11-08T08:00:00	6	Velocidad del viento	9.7
160142	7	Sololá	719	Santiago Atitlán	14	Cerro de Oro	7	Julio	2023-12-07T00:00:00	2024-11-08T08:00:00	7	Dirección del viento	9.66
160143	7	Sololá	719	Santiago Atitlán	14	Cerro de Oro	7	Julio	2023-12-07T00:00:00	2024-11-08T08:00:00	1	Precipitación	0
160144	7	Sololá	719	Santiago Atitlán	14	Cerro de Oro	7	Julio	2023-12-07T00:00:00	2024-11-08T08:00:00	8	Radiación solar	215
160145	7	Sololá	719	Santiago Atitlán	14	Cerro de Oro	7	Julio	2023-12-07T00:00:00	2024-11-08T09:00:00	2	Temperatura media	24.1
160146	7	Sololá	719	Santiago Atitlán	14	Cerro de Oro	7	Julio	2023-12-07T00:00:00	2024-11-08T09:00:00	4	Temperatura máxima	24.1
160147	7	Sololá	719	Santiago Atitlán	14	Cerro de Oro	7	Julio	2023-12-07T00:00:00	2024-11-08T09:00:00	3	Temperatura mínima	21.5
160148	7	Sololá	719	Santiago Atitlán	14	Cerro de Oro	7	Julio	2023-12-07T00:00:00	2024-11-08T09:00:00	5	Humedad	59
160149	7	Sololá	719	Santiago Atitlán	14	Cerro de Oro	7	Julio	2023-12-07T00:00:00	2024-11-08T09:00:00	6	Velocidad del viento	6.4
160150	7	Sololá	719	Santiago Atitlán	14	Cerro de Oro	7	Julio	2023-12-07T00:00:00	2024-11-08T09:00:00	7	Dirección del viento	6.44
160151	7	Sololá	719	Santiago Atitlán	14	Cerro de Oro	7	Julio	2023-12-07T00:00:00	2024-11-08T09:00:00	1	Precipitación	0
160152	7	Sololá	719	Santiago Atitlán	14	Cerro de Oro	7	Julio	2023-12-07T00:00:00	2024-11-08T09:00:00	8	Radiación solar	387
160153	7	Sololá	719	Santiago Atitlán	14	Cerro de Oro	7	Julio	2023-12-07T00:00:00	2024-11-08T10:00:00	2	Temperatura media	24.1
160154	7	Sololá	719	Santiago Atitlán	14	Cerro de Oro	7	Julio	2023-12-07T00:00:00	2024-11-08T10:00:00	4	Temperatura máxima	24.7
160155	7	Sololá	719	Santiago Atitlán	14	Cerro de Oro	7	Julio	2023-12-07T00:00:00	2024-11-08T10:00:00	3	Temperatura mínima	23.8
160156	7	Sololá	719	Santiago Atitlán	14	Cerro de Oro	7	Julio	2023-12-07T00:00:00	2024-11-08T10:00:00	5	Humedad	59
160157	7	Sololá	719	Santiago Atitlán	14	Cerro de Oro	7	Julio	2023-12-07T00:00:00	2024-11-08T10:00:00	6	Velocidad del viento	11.3
160158	7	Sololá	719	Santiago Atitlán	14	Cerro de Oro	7	Julio	2023-12-07T00:00:00	2024-11-08T10:00:00	7	Dirección del viento	11.27
160159	7	Sololá	719	Santiago Atitlán	14	Cerro de Oro	7	Julio	2023-12-07T00:00:00	2024-11-08T10:00:00	1	Precipitación	0
160160	7	Sololá	719	Santiago Atitlán	14	Cerro de Oro	7	Julio	2023-12-07T00:00:00	2024-11-08T10:00:00	8	Radiación solar	683
160161	7	Sololá	719	Santiago Atitlán	14	Cerro de Oro	7	Julio	2023-12-07T00:00:00	2024-11-08T11:00:00	2	Temperatura media	24.9
160162	7	Sololá	719	Santiago Atitlán	14	Cerro de Oro	7	Julio	2023-12-07T00:00:00	2024-11-08T11:00:00	4	Temperatura máxima	25.1
160163	7	Sololá	719	Santiago Atitlán	14	Cerro de Oro	7	Julio	2023-12-07T00:00:00	2024-11-08T11:00:00	3	Temperatura mínima	24.1
160164	7	Sololá	719	Santiago Atitlán	14	Cerro de Oro	7	Julio	2023-12-07T00:00:00	2024-11-08T11:00:00	5	Humedad	56
160165	7	Sololá	719	Santiago Atitlán	14	Cerro de Oro	7	Julio	2023-12-07T00:00:00	2024-11-08T11:00:00	6	Velocidad del viento	11.3
160166	7	Sololá	719	Santiago Atitlán	14	Cerro de Oro	7	Julio	2023-12-07T00:00:00	2024-11-08T11:00:00	7	Dirección del viento	11.27
160167	7	Sololá	719	Santiago Atitlán	14	Cerro de Oro	7	Julio	2023-12-07T00:00:00	2024-11-08T11:00:00	1	Precipitación	0
160168	7	Sololá	719	Santiago Atitlán	14	Cerro de Oro	7	Julio	2023-12-07T00:00:00	2024-11-08T11:00:00	8	Radiación solar	805
160169	7	Sololá	719	Santiago Atitlán	14	Cerro de Oro	7	Julio	2023-12-07T00:00:00	2024-11-08T12:00:00	2	Temperatura media	25.3
160170	7	Sololá	719	Santiago Atitlán	14	Cerro de Oro	7	Julio	2023-12-07T00:00:00	2024-11-08T12:00:00	4	Temperatura máxima	25.3
160171	7	Sololá	719	Santiago Atitlán	14	Cerro de Oro	7	Julio	2023-12-07T00:00:00	2024-11-08T12:00:00	3	Temperatura mínima	24.9
160172	7	Sololá	719	Santiago Atitlán	14	Cerro de Oro	7	Julio	2023-12-07T00:00:00	2024-11-08T12:00:00	5	Humedad	58
160173	7	Sololá	719	Santiago Atitlán	14	Cerro de Oro	7	Julio	2023-12-07T00:00:00	2024-11-08T12:00:00	6	Velocidad del viento	11.3
160174	7	Sololá	719	Santiago Atitlán	14	Cerro de Oro	7	Julio	2023-12-07T00:00:00	2024-11-08T12:00:00	7	Dirección del viento	11.27
160175	7	Sololá	719	Santiago Atitlán	14	Cerro de Oro	7	Julio	2023-12-07T00:00:00	2024-11-08T12:00:00	1	Precipitación	0
160176	7	Sololá	719	Santiago Atitlán	14	Cerro de Oro	7	Julio	2023-12-07T00:00:00	2024-11-08T12:00:00	8	Radiación solar	881
160177	7	Sololá	719	Santiago Atitlán	14	Cerro de Oro	7	Julio	2023-12-07T00:00:00	2024-11-08T13:00:00	2	Temperatura media	26.3
160178	7	Sololá	719	Santiago Atitlán	14	Cerro de Oro	7	Julio	2023-12-07T00:00:00	2024-11-08T13:00:00	4	Temperatura máxima	26.3
160179	7	Sololá	719	Santiago Atitlán	14	Cerro de Oro	7	Julio	2023-12-07T00:00:00	2024-11-08T13:00:00	3	Temperatura mínima	25.3
160180	7	Sololá	719	Santiago Atitlán	14	Cerro de Oro	7	Julio	2023-12-07T00:00:00	2024-11-08T13:00:00	5	Humedad	55
160181	7	Sololá	719	Santiago Atitlán	14	Cerro de Oro	7	Julio	2023-12-07T00:00:00	2024-11-08T13:00:00	6	Velocidad del viento	12.9
160182	7	Sololá	719	Santiago Atitlán	14	Cerro de Oro	7	Julio	2023-12-07T00:00:00	2024-11-08T13:00:00	7	Dirección del viento	12.87
160183	7	Sololá	719	Santiago Atitlán	14	Cerro de Oro	7	Julio	2023-12-07T00:00:00	2024-11-08T13:00:00	1	Precipitación	0
160184	7	Sololá	719	Santiago Atitlán	14	Cerro de Oro	7	Julio	2023-12-07T00:00:00	2024-11-08T13:00:00	8	Radiación solar	989
160185	7	Sololá	719	Santiago Atitlán	14	Cerro de Oro	7	Julio	2023-12-07T00:00:00	2024-11-08T14:00:00	2	Temperatura media	26.4
160186	7	Sololá	719	Santiago Atitlán	14	Cerro de Oro	7	Julio	2023-12-07T00:00:00	2024-11-08T14:00:00	4	Temperatura máxima	26.4
160187	7	Sololá	719	Santiago Atitlán	14	Cerro de Oro	7	Julio	2023-12-07T00:00:00	2024-11-08T14:00:00	3	Temperatura mínima	26
160188	7	Sololá	719	Santiago Atitlán	14	Cerro de Oro	7	Julio	2023-12-07T00:00:00	2024-11-08T14:00:00	5	Humedad	63
160189	7	Sololá	719	Santiago Atitlán	14	Cerro de Oro	7	Julio	2023-12-07T00:00:00	2024-11-08T14:00:00	6	Velocidad del viento	9.7
160190	7	Sololá	719	Santiago Atitlán	14	Cerro de Oro	7	Julio	2023-12-07T00:00:00	2024-11-08T14:00:00	7	Dirección del viento	9.66
160191	7	Sololá	719	Santiago Atitlán	14	Cerro de Oro	7	Julio	2023-12-07T00:00:00	2024-11-08T14:00:00	1	Precipitación	0
160192	7	Sololá	719	Santiago Atitlán	14	Cerro de Oro	7	Julio	2023-12-07T00:00:00	2024-11-08T14:00:00	8	Radiación solar	808
160193	7	Sololá	719	Santiago Atitlán	14	Cerro de Oro	7	Julio	2023-12-07T00:00:00	2024-11-08T15:00:00	2	Temperatura media	26.9
160194	7	Sololá	719	Santiago Atitlán	14	Cerro de Oro	7	Julio	2023-12-07T00:00:00	2024-11-08T15:00:00	4	Temperatura máxima	26.9
160195	7	Sololá	719	Santiago Atitlán	14	Cerro de Oro	7	Julio	2023-12-07T00:00:00	2024-11-08T15:00:00	3	Temperatura mínima	25.9
160196	7	Sololá	719	Santiago Atitlán	14	Cerro de Oro	7	Julio	2023-12-07T00:00:00	2024-11-08T15:00:00	5	Humedad	57
160197	7	Sololá	719	Santiago Atitlán	14	Cerro de Oro	7	Julio	2023-12-07T00:00:00	2024-11-08T15:00:00	6	Velocidad del viento	8
160198	7	Sololá	719	Santiago Atitlán	14	Cerro de Oro	7	Julio	2023-12-07T00:00:00	2024-11-08T15:00:00	7	Dirección del viento	8.05
160199	7	Sololá	719	Santiago Atitlán	14	Cerro de Oro	7	Julio	2023-12-07T00:00:00	2024-11-08T15:00:00	1	Precipitación	0
160200	7	Sololá	719	Santiago Atitlán	14	Cerro de Oro	7	Julio	2023-12-07T00:00:00	2024-11-08T15:00:00	8	Radiación solar	722
160201	7	Sololá	719	Santiago Atitlán	14	Cerro de Oro	7	Julio	2023-12-07T00:00:00	2024-11-08T16:00:00	2	Temperatura media	25.5
160202	7	Sololá	719	Santiago Atitlán	14	Cerro de Oro	7	Julio	2023-12-07T00:00:00	2024-11-08T16:00:00	4	Temperatura máxima	26.9
160203	7	Sololá	719	Santiago Atitlán	14	Cerro de Oro	7	Julio	2023-12-07T00:00:00	2024-11-08T16:00:00	3	Temperatura mínima	25.4
160204	7	Sololá	719	Santiago Atitlán	14	Cerro de Oro	7	Julio	2023-12-07T00:00:00	2024-11-08T16:00:00	5	Humedad	72
160205	7	Sololá	719	Santiago Atitlán	14	Cerro de Oro	7	Julio	2023-12-07T00:00:00	2024-11-08T16:00:00	6	Velocidad del viento	8
160206	7	Sololá	719	Santiago Atitlán	14	Cerro de Oro	7	Julio	2023-12-07T00:00:00	2024-11-08T16:00:00	7	Dirección del viento	8.05
160207	7	Sololá	719	Santiago Atitlán	14	Cerro de Oro	7	Julio	2023-12-07T00:00:00	2024-11-08T16:00:00	1	Precipitación	0
160208	7	Sololá	719	Santiago Atitlán	14	Cerro de Oro	7	Julio	2023-12-07T00:00:00	2024-11-08T16:00:00	8	Radiación solar	520
160209	7	Sololá	719	Santiago Atitlán	14	Cerro de Oro	7	Julio	2023-12-07T00:00:00	2024-11-08T17:00:00	2	Temperatura media	22.9
160210	7	Sololá	719	Santiago Atitlán	14	Cerro de Oro	7	Julio	2023-12-07T00:00:00	2024-11-08T17:00:00	4	Temperatura máxima	25.5
160211	7	Sololá	719	Santiago Atitlán	14	Cerro de Oro	7	Julio	2023-12-07T00:00:00	2024-11-08T17:00:00	3	Temperatura mínima	22.7
160212	7	Sololá	719	Santiago Atitlán	14	Cerro de Oro	7	Julio	2023-12-07T00:00:00	2024-11-08T17:00:00	5	Humedad	78
160213	7	Sololá	719	Santiago Atitlán	14	Cerro de Oro	7	Julio	2023-12-07T00:00:00	2024-11-08T17:00:00	6	Velocidad del viento	12.9
160214	7	Sololá	719	Santiago Atitlán	14	Cerro de Oro	7	Julio	2023-12-07T00:00:00	2024-11-08T17:00:00	7	Dirección del viento	12.87
160215	7	Sololá	719	Santiago Atitlán	14	Cerro de Oro	7	Julio	2023-12-07T00:00:00	2024-11-08T17:00:00	1	Precipitación	0
160216	7	Sololá	719	Santiago Atitlán	14	Cerro de Oro	7	Julio	2023-12-07T00:00:00	2024-11-08T17:00:00	8	Radiación solar	345
160217	7	Sololá	719	Santiago Atitlán	14	Cerro de Oro	7	Julio	2023-12-07T00:00:00	2024-11-08T18:00:00	2	Temperatura media	22.9
160218	7	Sololá	719	Santiago Atitlán	14	Cerro de Oro	7	Julio	2023-12-07T00:00:00	2024-11-08T18:00:00	4	Temperatura máxima	23.3
160219	7	Sololá	719	Santiago Atitlán	14	Cerro de Oro	7	Julio	2023-12-07T00:00:00	2024-11-08T18:00:00	3	Temperatura mínima	22.1
160220	7	Sololá	719	Santiago Atitlán	14	Cerro de Oro	7	Julio	2023-12-07T00:00:00	2024-11-08T18:00:00	5	Humedad	71
160221	7	Sololá	719	Santiago Atitlán	14	Cerro de Oro	7	Julio	2023-12-07T00:00:00	2024-11-08T18:00:00	6	Velocidad del viento	8
160222	7	Sololá	719	Santiago Atitlán	14	Cerro de Oro	7	Julio	2023-12-07T00:00:00	2024-11-08T18:00:00	7	Dirección del viento	8.05
160223	7	Sololá	719	Santiago Atitlán	14	Cerro de Oro	7	Julio	2023-12-07T00:00:00	2024-11-08T18:00:00	1	Precipitación	0
160224	7	Sololá	719	Santiago Atitlán	14	Cerro de Oro	7	Julio	2023-12-07T00:00:00	2024-11-08T18:00:00	8	Radiación solar	80
160225	7	Sololá	719	Santiago Atitlán	14	Cerro de Oro	7	Julio	2023-12-07T00:00:00	2024-11-08T19:00:00	2	Temperatura media	22.2
160226	7	Sololá	719	Santiago Atitlán	14	Cerro de Oro	7	Julio	2023-12-07T00:00:00	2024-11-08T19:00:00	4	Temperatura máxima	22.9
160227	7	Sololá	719	Santiago Atitlán	14	Cerro de Oro	7	Julio	2023-12-07T00:00:00	2024-11-08T19:00:00	3	Temperatura mínima	22.2
160228	7	Sololá	719	Santiago Atitlán	14	Cerro de Oro	7	Julio	2023-12-07T00:00:00	2024-11-08T19:00:00	5	Humedad	72
160229	7	Sololá	719	Santiago Atitlán	14	Cerro de Oro	7	Julio	2023-12-07T00:00:00	2024-11-08T19:00:00	6	Velocidad del viento	6.4
160230	7	Sololá	719	Santiago Atitlán	14	Cerro de Oro	7	Julio	2023-12-07T00:00:00	2024-11-08T19:00:00	7	Dirección del viento	6.44
160231	7	Sololá	719	Santiago Atitlán	14	Cerro de Oro	7	Julio	2023-12-07T00:00:00	2024-11-08T19:00:00	1	Precipitación	0
160232	7	Sololá	719	Santiago Atitlán	14	Cerro de Oro	7	Julio	2023-12-07T00:00:00	2024-11-08T19:00:00	8	Radiación solar	0
160233	7	Sololá	719	Santiago Atitlán	14	Cerro de Oro	7	Julio	2023-12-07T00:00:00	2024-11-08T20:00:00	2	Temperatura media	19.3
160234	7	Sololá	719	Santiago Atitlán	14	Cerro de Oro	7	Julio	2023-12-07T00:00:00	2024-11-08T20:00:00	4	Temperatura máxima	22.3
160235	7	Sololá	719	Santiago Atitlán	14	Cerro de Oro	7	Julio	2023-12-07T00:00:00	2024-11-08T20:00:00	3	Temperatura mínima	19.3
160236	7	Sololá	719	Santiago Atitlán	14	Cerro de Oro	7	Julio	2023-12-07T00:00:00	2024-11-08T20:00:00	5	Humedad	86
160237	7	Sololá	719	Santiago Atitlán	14	Cerro de Oro	7	Julio	2023-12-07T00:00:00	2024-11-08T20:00:00	6	Velocidad del viento	8
160238	7	Sololá	719	Santiago Atitlán	14	Cerro de Oro	7	Julio	2023-12-07T00:00:00	2024-11-08T20:00:00	7	Dirección del viento	8.05
160239	7	Sololá	719	Santiago Atitlán	14	Cerro de Oro	7	Julio	2023-12-07T00:00:00	2024-11-08T20:00:00	1	Precipitación	0.2
160240	7	Sololá	719	Santiago Atitlán	14	Cerro de Oro	7	Julio	2023-12-07T00:00:00	2024-11-08T20:00:00	8	Radiación solar	0
160241	7	Sololá	719	Santiago Atitlán	14	Cerro de Oro	7	Julio	2023-12-07T00:00:00	2024-11-08T21:00:00	2	Temperatura media	18.6
160242	7	Sololá	719	Santiago Atitlán	14	Cerro de Oro	7	Julio	2023-12-07T00:00:00	2024-11-08T21:00:00	4	Temperatura máxima	19.8
160243	7	Sololá	719	Santiago Atitlán	14	Cerro de Oro	7	Julio	2023-12-07T00:00:00	2024-11-08T21:00:00	3	Temperatura mínima	18.6
160244	7	Sololá	719	Santiago Atitlán	14	Cerro de Oro	7	Julio	2023-12-07T00:00:00	2024-11-08T21:00:00	5	Humedad	82
160245	7	Sololá	719	Santiago Atitlán	14	Cerro de Oro	7	Julio	2023-12-07T00:00:00	2024-11-08T21:00:00	6	Velocidad del viento	9.7
160246	7	Sololá	719	Santiago Atitlán	14	Cerro de Oro	7	Julio	2023-12-07T00:00:00	2024-11-08T21:00:00	7	Dirección del viento	9.66
160247	7	Sololá	719	Santiago Atitlán	14	Cerro de Oro	7	Julio	2023-12-07T00:00:00	2024-11-08T21:00:00	1	Precipitación	0.4
160248	7	Sololá	719	Santiago Atitlán	14	Cerro de Oro	7	Julio	2023-12-07T00:00:00	2024-11-08T21:00:00	8	Radiación solar	0
160249	7	Sololá	719	Santiago Atitlán	14	Cerro de Oro	7	Julio	2023-12-07T00:00:00	2024-11-08T22:00:00	2	Temperatura media	18.5
160250	7	Sololá	719	Santiago Atitlán	14	Cerro de Oro	7	Julio	2023-12-07T00:00:00	2024-11-08T22:00:00	4	Temperatura máxima	18.5
160251	7	Sololá	719	Santiago Atitlán	14	Cerro de Oro	7	Julio	2023-12-07T00:00:00	2024-11-08T22:00:00	3	Temperatura mínima	17.9
160252	7	Sololá	719	Santiago Atitlán	14	Cerro de Oro	7	Julio	2023-12-07T00:00:00	2024-11-08T22:00:00	5	Humedad	84
160253	7	Sololá	719	Santiago Atitlán	14	Cerro de Oro	7	Julio	2023-12-07T00:00:00	2024-11-08T22:00:00	6	Velocidad del viento	6.4
160254	7	Sololá	719	Santiago Atitlán	14	Cerro de Oro	7	Julio	2023-12-07T00:00:00	2024-11-08T22:00:00	7	Dirección del viento	6.44
160255	7	Sololá	719	Santiago Atitlán	14	Cerro de Oro	7	Julio	2023-12-07T00:00:00	2024-11-08T22:00:00	1	Precipitación	0.8
160256	7	Sololá	719	Santiago Atitlán	14	Cerro de Oro	7	Julio	2023-12-07T00:00:00	2024-11-08T22:00:00	8	Radiación solar	0
160257	7	Sololá	719	Santiago Atitlán	14	Cerro de Oro	7	Julio	2023-12-07T00:00:00	2024-11-08T23:00:00	2	Temperatura media	18.3
160258	7	Sololá	719	Santiago Atitlán	14	Cerro de Oro	7	Julio	2023-12-07T00:00:00	2024-11-08T23:00:00	4	Temperatura máxima	18.7
160259	7	Sololá	719	Santiago Atitlán	14	Cerro de Oro	7	Julio	2023-12-07T00:00:00	2024-11-08T23:00:00	3	Temperatura mínima	17.7
160260	7	Sololá	719	Santiago Atitlán	14	Cerro de Oro	7	Julio	2023-12-07T00:00:00	2024-11-08T23:00:00	5	Humedad	86
160261	7	Sololá	719	Santiago Atitlán	14	Cerro de Oro	7	Julio	2023-12-07T00:00:00	2024-11-08T23:00:00	6	Velocidad del viento	4.8
160262	7	Sololá	719	Santiago Atitlán	14	Cerro de Oro	7	Julio	2023-12-07T00:00:00	2024-11-08T23:00:00	7	Dirección del viento	4.83
160263	7	Sololá	719	Santiago Atitlán	14	Cerro de Oro	7	Julio	2023-12-07T00:00:00	2024-11-08T23:00:00	1	Precipitación	0
160264	7	Sololá	719	Santiago Atitlán	14	Cerro de Oro	7	Julio	2023-12-07T00:00:00	2024-11-08T23:00:00	8	Radiación solar	0
160265	7	Sololá	719	Santiago Atitlán	14	Cerro de Oro	7	Julio	2023-07-13T00:00:00	2024-11-08T00:00:00	2	Temperatura media	19.8
160266	7	Sololá	719	Santiago Atitlán	14	Cerro de Oro	7	Julio	2023-07-13T00:00:00	2024-11-08T00:00:00	4	Temperatura máxima	19.8
160267	7	Sololá	719	Santiago Atitlán	14	Cerro de Oro	7	Julio	2023-07-13T00:00:00	2024-11-08T00:00:00	3	Temperatura mínima	17.8
160268	7	Sololá	719	Santiago Atitlán	14	Cerro de Oro	7	Julio	2023-07-13T00:00:00	2024-11-08T00:00:00	5	Humedad	79
160269	7	Sololá	719	Santiago Atitlán	14	Cerro de Oro	7	Julio	2023-07-13T00:00:00	2024-11-08T00:00:00	6	Velocidad del viento	6.4
160270	7	Sololá	719	Santiago Atitlán	14	Cerro de Oro	7	Julio	2023-07-13T00:00:00	2024-11-08T00:00:00	7	Dirección del viento	6.44
160271	7	Sololá	719	Santiago Atitlán	14	Cerro de Oro	7	Julio	2023-07-13T00:00:00	2024-11-08T00:00:00	1	Precipitación	0
160272	7	Sololá	719	Santiago Atitlán	14	Cerro de Oro	7	Julio	2023-07-13T00:00:00	2024-11-08T00:00:00	8	Radiación solar	0
160273	7	Sololá	719	Santiago Atitlán	14	Cerro de Oro	7	Julio	2023-07-13T00:00:00	2024-11-08T01:00:00	2	Temperatura media	20.7
160274	7	Sololá	719	Santiago Atitlán	14	Cerro de Oro	7	Julio	2023-07-13T00:00:00	2024-11-08T01:00:00	4	Temperatura máxima	20.9
160275	7	Sololá	719	Santiago Atitlán	14	Cerro de Oro	7	Julio	2023-07-13T00:00:00	2024-11-08T01:00:00	3	Temperatura mínima	19.8
160276	7	Sololá	719	Santiago Atitlán	14	Cerro de Oro	7	Julio	2023-07-13T00:00:00	2024-11-08T01:00:00	5	Humedad	74
160277	7	Sololá	719	Santiago Atitlán	14	Cerro de Oro	7	Julio	2023-07-13T00:00:00	2024-11-08T01:00:00	6	Velocidad del viento	6.4
160278	7	Sololá	719	Santiago Atitlán	14	Cerro de Oro	7	Julio	2023-07-13T00:00:00	2024-11-08T01:00:00	7	Dirección del viento	6.44
160279	7	Sololá	719	Santiago Atitlán	14	Cerro de Oro	7	Julio	2023-07-13T00:00:00	2024-11-08T01:00:00	1	Precipitación	0
160280	7	Sololá	719	Santiago Atitlán	14	Cerro de Oro	7	Julio	2023-07-13T00:00:00	2024-11-08T01:00:00	8	Radiación solar	0
160281	7	Sololá	719	Santiago Atitlán	14	Cerro de Oro	7	Julio	2023-07-13T00:00:00	2024-11-08T02:00:00	2	Temperatura media	19.8
160282	7	Sololá	719	Santiago Atitlán	14	Cerro de Oro	7	Julio	2023-07-13T00:00:00	2024-11-08T02:00:00	4	Temperatura máxima	20.7
160283	7	Sololá	719	Santiago Atitlán	14	Cerro de Oro	7	Julio	2023-07-13T00:00:00	2024-11-08T02:00:00	3	Temperatura mínima	19.7
160284	7	Sololá	719	Santiago Atitlán	14	Cerro de Oro	7	Julio	2023-07-13T00:00:00	2024-11-08T02:00:00	5	Humedad	74
160285	7	Sololá	719	Santiago Atitlán	14	Cerro de Oro	7	Julio	2023-07-13T00:00:00	2024-11-08T02:00:00	6	Velocidad del viento	6.4
160286	7	Sololá	719	Santiago Atitlán	14	Cerro de Oro	7	Julio	2023-07-13T00:00:00	2024-11-08T02:00:00	7	Dirección del viento	6.44
160287	7	Sololá	719	Santiago Atitlán	14	Cerro de Oro	7	Julio	2023-07-13T00:00:00	2024-11-08T02:00:00	1	Precipitación	0
160288	7	Sololá	719	Santiago Atitlán	14	Cerro de Oro	7	Julio	2023-07-13T00:00:00	2024-11-08T02:00:00	8	Radiación solar	0
160289	7	Sololá	719	Santiago Atitlán	14	Cerro de Oro	7	Julio	2023-07-13T00:00:00	2024-11-08T03:00:00	2	Temperatura media	19.9
160290	7	Sololá	719	Santiago Atitlán	14	Cerro de Oro	7	Julio	2023-07-13T00:00:00	2024-11-08T03:00:00	4	Temperatura máxima	20.2
160291	7	Sololá	719	Santiago Atitlán	14	Cerro de Oro	7	Julio	2023-07-13T00:00:00	2024-11-08T03:00:00	3	Temperatura mínima	19.5
160292	7	Sololá	719	Santiago Atitlán	14	Cerro de Oro	7	Julio	2023-07-13T00:00:00	2024-11-08T03:00:00	5	Humedad	69
160293	7	Sololá	719	Santiago Atitlán	14	Cerro de Oro	7	Julio	2023-07-13T00:00:00	2024-11-08T03:00:00	6	Velocidad del viento	4.8
160294	7	Sololá	719	Santiago Atitlán	14	Cerro de Oro	7	Julio	2023-07-13T00:00:00	2024-11-08T03:00:00	7	Dirección del viento	4.83
160295	7	Sololá	719	Santiago Atitlán	14	Cerro de Oro	7	Julio	2023-07-13T00:00:00	2024-11-08T03:00:00	1	Precipitación	0
160296	7	Sololá	719	Santiago Atitlán	14	Cerro de Oro	7	Julio	2023-07-13T00:00:00	2024-11-08T03:00:00	8	Radiación solar	0
160297	7	Sololá	719	Santiago Atitlán	14	Cerro de Oro	7	Julio	2023-07-13T00:00:00	2024-11-08T04:00:00	2	Temperatura media	19.1
160298	7	Sololá	719	Santiago Atitlán	14	Cerro de Oro	7	Julio	2023-07-13T00:00:00	2024-11-08T04:00:00	4	Temperatura máxima	20.7
160299	7	Sololá	719	Santiago Atitlán	14	Cerro de Oro	7	Julio	2023-07-13T00:00:00	2024-11-08T04:00:00	3	Temperatura mínima	19
160300	7	Sololá	719	Santiago Atitlán	14	Cerro de Oro	7	Julio	2023-07-13T00:00:00	2024-11-08T04:00:00	5	Humedad	71
160301	7	Sololá	719	Santiago Atitlán	14	Cerro de Oro	7	Julio	2023-07-13T00:00:00	2024-11-08T04:00:00	6	Velocidad del viento	4.8
160302	7	Sololá	719	Santiago Atitlán	14	Cerro de Oro	7	Julio	2023-07-13T00:00:00	2024-11-08T04:00:00	7	Dirección del viento	4.83
160303	7	Sololá	719	Santiago Atitlán	14	Cerro de Oro	7	Julio	2023-07-13T00:00:00	2024-11-08T04:00:00	1	Precipitación	0
160304	7	Sololá	719	Santiago Atitlán	14	Cerro de Oro	7	Julio	2023-07-13T00:00:00	2024-11-08T04:00:00	8	Radiación solar	0
160305	7	Sololá	719	Santiago Atitlán	14	Cerro de Oro	7	Julio	2023-07-13T00:00:00	2024-11-08T05:00:00	2	Temperatura media	20.6
160306	7	Sololá	719	Santiago Atitlán	14	Cerro de Oro	7	Julio	2023-07-13T00:00:00	2024-11-08T05:00:00	4	Temperatura máxima	20.6
160307	7	Sololá	719	Santiago Atitlán	14	Cerro de Oro	7	Julio	2023-07-13T00:00:00	2024-11-08T05:00:00	3	Temperatura mínima	19.1
160308	7	Sololá	719	Santiago Atitlán	14	Cerro de Oro	7	Julio	2023-07-13T00:00:00	2024-11-08T05:00:00	5	Humedad	68
160309	7	Sololá	719	Santiago Atitlán	14	Cerro de Oro	7	Julio	2023-07-13T00:00:00	2024-11-08T05:00:00	6	Velocidad del viento	8
160310	7	Sololá	719	Santiago Atitlán	14	Cerro de Oro	7	Julio	2023-07-13T00:00:00	2024-11-08T05:00:00	7	Dirección del viento	8.05
160311	7	Sololá	719	Santiago Atitlán	14	Cerro de Oro	7	Julio	2023-07-13T00:00:00	2024-11-08T05:00:00	1	Precipitación	0
160312	7	Sololá	719	Santiago Atitlán	14	Cerro de Oro	7	Julio	2023-07-13T00:00:00	2024-11-08T05:00:00	8	Radiación solar	0
160313	7	Sololá	719	Santiago Atitlán	14	Cerro de Oro	7	Julio	2023-07-13T00:00:00	2024-11-08T06:00:00	2	Temperatura media	19.4
160314	7	Sololá	719	Santiago Atitlán	14	Cerro de Oro	7	Julio	2023-07-13T00:00:00	2024-11-08T06:00:00	4	Temperatura máxima	20.6
160315	7	Sololá	719	Santiago Atitlán	14	Cerro de Oro	7	Julio	2023-07-13T00:00:00	2024-11-08T06:00:00	3	Temperatura mínima	19.2
160316	7	Sololá	719	Santiago Atitlán	14	Cerro de Oro	7	Julio	2023-07-13T00:00:00	2024-11-08T06:00:00	5	Humedad	72
160317	7	Sololá	719	Santiago Atitlán	14	Cerro de Oro	7	Julio	2023-07-13T00:00:00	2024-11-08T06:00:00	6	Velocidad del viento	6.4
160318	7	Sololá	719	Santiago Atitlán	14	Cerro de Oro	7	Julio	2023-07-13T00:00:00	2024-11-08T06:00:00	7	Dirección del viento	6.44
160319	7	Sololá	719	Santiago Atitlán	14	Cerro de Oro	7	Julio	2023-07-13T00:00:00	2024-11-08T06:00:00	1	Precipitación	0
160320	7	Sololá	719	Santiago Atitlán	14	Cerro de Oro	7	Julio	2023-07-13T00:00:00	2024-11-08T06:00:00	8	Radiación solar	3
160321	7	Sololá	719	Santiago Atitlán	14	Cerro de Oro	7	Julio	2023-07-13T00:00:00	2024-11-08T07:00:00	2	Temperatura media	20.7
160322	7	Sololá	719	Santiago Atitlán	14	Cerro de Oro	7	Julio	2023-07-13T00:00:00	2024-11-08T07:00:00	4	Temperatura máxima	20.7
160323	7	Sololá	719	Santiago Atitlán	14	Cerro de Oro	7	Julio	2023-07-13T00:00:00	2024-11-08T07:00:00	3	Temperatura mínima	19.4
160324	7	Sololá	719	Santiago Atitlán	14	Cerro de Oro	7	Julio	2023-07-13T00:00:00	2024-11-08T07:00:00	5	Humedad	72
160325	7	Sololá	719	Santiago Atitlán	14	Cerro de Oro	7	Julio	2023-07-13T00:00:00	2024-11-08T07:00:00	6	Velocidad del viento	8
160326	7	Sololá	719	Santiago Atitlán	14	Cerro de Oro	7	Julio	2023-07-13T00:00:00	2024-11-08T07:00:00	7	Dirección del viento	8.05
160327	7	Sololá	719	Santiago Atitlán	14	Cerro de Oro	7	Julio	2023-07-13T00:00:00	2024-11-08T07:00:00	1	Precipitación	0
160328	7	Sololá	719	Santiago Atitlán	14	Cerro de Oro	7	Julio	2023-07-13T00:00:00	2024-11-08T07:00:00	8	Radiación solar	79
160329	7	Sololá	719	Santiago Atitlán	14	Cerro de Oro	7	Julio	2023-07-13T00:00:00	2024-11-08T08:00:00	2	Temperatura media	22.4
160330	7	Sololá	719	Santiago Atitlán	14	Cerro de Oro	7	Julio	2023-07-13T00:00:00	2024-11-08T08:00:00	4	Temperatura máxima	22.4
160331	7	Sololá	719	Santiago Atitlán	14	Cerro de Oro	7	Julio	2023-07-13T00:00:00	2024-11-08T08:00:00	3	Temperatura mínima	20.7
160332	7	Sololá	719	Santiago Atitlán	14	Cerro de Oro	7	Julio	2023-07-13T00:00:00	2024-11-08T08:00:00	5	Humedad	67
160333	7	Sololá	719	Santiago Atitlán	14	Cerro de Oro	7	Julio	2023-07-13T00:00:00	2024-11-08T08:00:00	6	Velocidad del viento	4.8
160334	7	Sololá	719	Santiago Atitlán	14	Cerro de Oro	7	Julio	2023-07-13T00:00:00	2024-11-08T08:00:00	7	Dirección del viento	4.83
160335	7	Sololá	719	Santiago Atitlán	14	Cerro de Oro	7	Julio	2023-07-13T00:00:00	2024-11-08T08:00:00	1	Precipitación	0
160336	7	Sololá	719	Santiago Atitlán	14	Cerro de Oro	7	Julio	2023-07-13T00:00:00	2024-11-08T08:00:00	8	Radiación solar	265
160337	7	Sololá	719	Santiago Atitlán	14	Cerro de Oro	7	Julio	2023-07-13T00:00:00	2024-11-08T09:00:00	2	Temperatura media	22.8
160338	7	Sololá	719	Santiago Atitlán	14	Cerro de Oro	7	Julio	2023-07-13T00:00:00	2024-11-08T09:00:00	4	Temperatura máxima	23.2
160339	7	Sololá	719	Santiago Atitlán	14	Cerro de Oro	7	Julio	2023-07-13T00:00:00	2024-11-08T09:00:00	3	Temperatura mínima	22.4
160340	7	Sololá	719	Santiago Atitlán	14	Cerro de Oro	7	Julio	2023-07-13T00:00:00	2024-11-08T09:00:00	5	Humedad	62
160341	7	Sololá	719	Santiago Atitlán	14	Cerro de Oro	7	Julio	2023-07-13T00:00:00	2024-11-08T09:00:00	6	Velocidad del viento	8
160342	7	Sololá	719	Santiago Atitlán	14	Cerro de Oro	7	Julio	2023-07-13T00:00:00	2024-11-08T09:00:00	7	Dirección del viento	8.05
160343	7	Sololá	719	Santiago Atitlán	14	Cerro de Oro	7	Julio	2023-07-13T00:00:00	2024-11-08T09:00:00	1	Precipitación	0
160344	7	Sololá	719	Santiago Atitlán	14	Cerro de Oro	7	Julio	2023-07-13T00:00:00	2024-11-08T09:00:00	8	Radiación solar	516
160345	7	Sololá	719	Santiago Atitlán	14	Cerro de Oro	7	Julio	2023-07-13T00:00:00	2024-11-08T10:00:00	2	Temperatura media	24.3
160346	7	Sololá	719	Santiago Atitlán	14	Cerro de Oro	7	Julio	2023-07-13T00:00:00	2024-11-08T10:00:00	4	Temperatura máxima	24.4
160347	7	Sololá	719	Santiago Atitlán	14	Cerro de Oro	7	Julio	2023-07-13T00:00:00	2024-11-08T10:00:00	3	Temperatura mínima	22.8
160348	7	Sololá	719	Santiago Atitlán	14	Cerro de Oro	7	Julio	2023-07-13T00:00:00	2024-11-08T10:00:00	5	Humedad	61
160349	7	Sololá	719	Santiago Atitlán	14	Cerro de Oro	7	Julio	2023-07-13T00:00:00	2024-11-08T10:00:00	6	Velocidad del viento	6.4
160350	7	Sololá	719	Santiago Atitlán	14	Cerro de Oro	7	Julio	2023-07-13T00:00:00	2024-11-08T10:00:00	7	Dirección del viento	6.44
160351	7	Sololá	719	Santiago Atitlán	14	Cerro de Oro	7	Julio	2023-07-13T00:00:00	2024-11-08T10:00:00	1	Precipitación	0
160352	7	Sololá	719	Santiago Atitlán	14	Cerro de Oro	7	Julio	2023-07-13T00:00:00	2024-11-08T10:00:00	8	Radiación solar	715
160353	7	Sololá	719	Santiago Atitlán	14	Cerro de Oro	7	Julio	2023-07-13T00:00:00	2024-11-08T11:00:00	2	Temperatura media	24.6
160354	7	Sololá	719	Santiago Atitlán	14	Cerro de Oro	7	Julio	2023-07-13T00:00:00	2024-11-08T11:00:00	4	Temperatura máxima	24.6
160355	7	Sololá	719	Santiago Atitlán	14	Cerro de Oro	7	Julio	2023-07-13T00:00:00	2024-11-08T11:00:00	3	Temperatura mínima	23.8
160356	7	Sololá	719	Santiago Atitlán	14	Cerro de Oro	7	Julio	2023-07-13T00:00:00	2024-11-08T11:00:00	5	Humedad	59
160357	7	Sololá	719	Santiago Atitlán	14	Cerro de Oro	7	Julio	2023-07-13T00:00:00	2024-11-08T11:00:00	6	Velocidad del viento	11.3
160358	7	Sololá	719	Santiago Atitlán	14	Cerro de Oro	7	Julio	2023-07-13T00:00:00	2024-11-08T11:00:00	7	Dirección del viento	11.27
160359	7	Sololá	719	Santiago Atitlán	14	Cerro de Oro	7	Julio	2023-07-13T00:00:00	2024-11-08T11:00:00	1	Precipitación	0
160360	7	Sololá	719	Santiago Atitlán	14	Cerro de Oro	7	Julio	2023-07-13T00:00:00	2024-11-08T11:00:00	8	Radiación solar	904
160361	7	Sololá	719	Santiago Atitlán	14	Cerro de Oro	7	Julio	2023-07-13T00:00:00	2024-11-08T12:00:00	2	Temperatura media	24.9
160362	7	Sololá	719	Santiago Atitlán	14	Cerro de Oro	7	Julio	2023-07-13T00:00:00	2024-11-08T12:00:00	4	Temperatura máxima	24.9
160363	7	Sololá	719	Santiago Atitlán	14	Cerro de Oro	7	Julio	2023-07-13T00:00:00	2024-11-08T12:00:00	3	Temperatura mínima	24.2
160364	7	Sololá	719	Santiago Atitlán	14	Cerro de Oro	7	Julio	2023-07-13T00:00:00	2024-11-08T12:00:00	5	Humedad	52
160365	7	Sololá	719	Santiago Atitlán	14	Cerro de Oro	7	Julio	2023-07-13T00:00:00	2024-11-08T12:00:00	6	Velocidad del viento	14.5
160366	7	Sololá	719	Santiago Atitlán	14	Cerro de Oro	7	Julio	2023-07-13T00:00:00	2024-11-08T12:00:00	7	Dirección del viento	14.48
160367	7	Sololá	719	Santiago Atitlán	14	Cerro de Oro	7	Julio	2023-07-13T00:00:00	2024-11-08T12:00:00	1	Precipitación	0
160368	7	Sololá	719	Santiago Atitlán	14	Cerro de Oro	7	Julio	2023-07-13T00:00:00	2024-11-08T12:00:00	8	Radiación solar	928
160369	7	Sololá	719	Santiago Atitlán	14	Cerro de Oro	7	Julio	2023-07-13T00:00:00	2024-11-08T13:00:00	2	Temperatura media	25
160370	7	Sololá	719	Santiago Atitlán	14	Cerro de Oro	7	Julio	2023-07-13T00:00:00	2024-11-08T13:00:00	4	Temperatura máxima	25.5
160371	7	Sololá	719	Santiago Atitlán	14	Cerro de Oro	7	Julio	2023-07-13T00:00:00	2024-11-08T13:00:00	3	Temperatura mínima	24.9
160372	7	Sololá	719	Santiago Atitlán	14	Cerro de Oro	7	Julio	2023-07-13T00:00:00	2024-11-08T13:00:00	5	Humedad	66
160373	7	Sololá	719	Santiago Atitlán	14	Cerro de Oro	7	Julio	2023-07-13T00:00:00	2024-11-08T13:00:00	6	Velocidad del viento	11.3
160374	7	Sololá	719	Santiago Atitlán	14	Cerro de Oro	7	Julio	2023-07-13T00:00:00	2024-11-08T13:00:00	7	Dirección del viento	11.27
160375	7	Sololá	719	Santiago Atitlán	14	Cerro de Oro	7	Julio	2023-07-13T00:00:00	2024-11-08T13:00:00	1	Precipitación	0
160376	7	Sololá	719	Santiago Atitlán	14	Cerro de Oro	7	Julio	2023-07-13T00:00:00	2024-11-08T13:00:00	8	Radiación solar	874
160377	7	Sololá	719	Santiago Atitlán	14	Cerro de Oro	7	Julio	2023-07-13T00:00:00	2024-11-08T14:00:00	2	Temperatura media	25.8
160378	7	Sololá	719	Santiago Atitlán	14	Cerro de Oro	7	Julio	2023-07-13T00:00:00	2024-11-08T14:00:00	4	Temperatura máxima	26.2
160379	7	Sololá	719	Santiago Atitlán	14	Cerro de Oro	7	Julio	2023-07-13T00:00:00	2024-11-08T14:00:00	3	Temperatura mínima	25.1
160380	7	Sololá	719	Santiago Atitlán	14	Cerro de Oro	7	Julio	2023-07-13T00:00:00	2024-11-08T14:00:00	5	Humedad	58
160381	7	Sololá	719	Santiago Atitlán	14	Cerro de Oro	7	Julio	2023-07-13T00:00:00	2024-11-08T14:00:00	6	Velocidad del viento	9.7
160382	7	Sololá	719	Santiago Atitlán	14	Cerro de Oro	7	Julio	2023-07-13T00:00:00	2024-11-08T14:00:00	7	Dirección del viento	9.66
160383	7	Sololá	719	Santiago Atitlán	14	Cerro de Oro	7	Julio	2023-07-13T00:00:00	2024-11-08T14:00:00	1	Precipitación	0
160384	7	Sololá	719	Santiago Atitlán	14	Cerro de Oro	7	Julio	2023-07-13T00:00:00	2024-11-08T14:00:00	8	Radiación solar	903
160385	7	Sololá	719	Santiago Atitlán	14	Cerro de Oro	7	Julio	2023-07-13T00:00:00	2024-11-08T15:00:00	2	Temperatura media	25.8
160386	7	Sololá	719	Santiago Atitlán	14	Cerro de Oro	7	Julio	2023-07-13T00:00:00	2024-11-08T15:00:00	4	Temperatura máxima	26.3
160387	7	Sololá	719	Santiago Atitlán	14	Cerro de Oro	7	Julio	2023-07-13T00:00:00	2024-11-08T15:00:00	3	Temperatura mínima	25.6
160388	7	Sololá	719	Santiago Atitlán	14	Cerro de Oro	7	Julio	2023-07-13T00:00:00	2024-11-08T15:00:00	5	Humedad	59
160389	7	Sololá	719	Santiago Atitlán	14	Cerro de Oro	7	Julio	2023-07-13T00:00:00	2024-11-08T15:00:00	6	Velocidad del viento	9.7
160390	7	Sololá	719	Santiago Atitlán	14	Cerro de Oro	7	Julio	2023-07-13T00:00:00	2024-11-08T15:00:00	7	Dirección del viento	9.66
160391	7	Sololá	719	Santiago Atitlán	14	Cerro de Oro	7	Julio	2023-07-13T00:00:00	2024-11-08T15:00:00	1	Precipitación	0
160392	7	Sololá	719	Santiago Atitlán	14	Cerro de Oro	7	Julio	2023-07-13T00:00:00	2024-11-08T15:00:00	8	Radiación solar	728
160393	7	Sololá	719	Santiago Atitlán	14	Cerro de Oro	7	Julio	2023-07-13T00:00:00	2024-11-08T16:00:00	2	Temperatura media	25.5
160394	7	Sololá	719	Santiago Atitlán	14	Cerro de Oro	7	Julio	2023-07-13T00:00:00	2024-11-08T16:00:00	4	Temperatura máxima	25.9
160395	7	Sololá	719	Santiago Atitlán	14	Cerro de Oro	7	Julio	2023-07-13T00:00:00	2024-11-08T16:00:00	3	Temperatura mínima	24.8
160396	7	Sololá	719	Santiago Atitlán	14	Cerro de Oro	7	Julio	2023-07-13T00:00:00	2024-11-08T16:00:00	5	Humedad	61
160397	7	Sololá	719	Santiago Atitlán	14	Cerro de Oro	7	Julio	2023-07-13T00:00:00	2024-11-08T16:00:00	6	Velocidad del viento	9.7
160398	7	Sololá	719	Santiago Atitlán	14	Cerro de Oro	7	Julio	2023-07-13T00:00:00	2024-11-08T16:00:00	7	Dirección del viento	9.66
160399	7	Sololá	719	Santiago Atitlán	14	Cerro de Oro	7	Julio	2023-07-13T00:00:00	2024-11-08T16:00:00	1	Precipitación	0
160400	7	Sololá	719	Santiago Atitlán	14	Cerro de Oro	7	Julio	2023-07-13T00:00:00	2024-11-08T16:00:00	8	Radiación solar	557
160401	7	Sololá	719	Santiago Atitlán	14	Cerro de Oro	7	Julio	2023-07-13T00:00:00	2024-11-08T17:00:00	2	Temperatura media	22.4
160402	7	Sololá	719	Santiago Atitlán	14	Cerro de Oro	7	Julio	2023-07-13T00:00:00	2024-11-08T17:00:00	4	Temperatura máxima	25.7
160403	7	Sololá	719	Santiago Atitlán	14	Cerro de Oro	7	Julio	2023-07-13T00:00:00	2024-11-08T17:00:00	3	Temperatura mínima	22.4
160404	7	Sololá	719	Santiago Atitlán	14	Cerro de Oro	7	Julio	2023-07-13T00:00:00	2024-11-08T17:00:00	5	Humedad	78
160405	7	Sololá	719	Santiago Atitlán	14	Cerro de Oro	7	Julio	2023-07-13T00:00:00	2024-11-08T17:00:00	6	Velocidad del viento	12.9
160406	7	Sololá	719	Santiago Atitlán	14	Cerro de Oro	7	Julio	2023-07-13T00:00:00	2024-11-08T17:00:00	7	Dirección del viento	12.87
160407	7	Sololá	719	Santiago Atitlán	14	Cerro de Oro	7	Julio	2023-07-13T00:00:00	2024-11-08T17:00:00	1	Precipitación	0
160408	7	Sololá	719	Santiago Atitlán	14	Cerro de Oro	7	Julio	2023-07-13T00:00:00	2024-11-08T17:00:00	8	Radiación solar	357
160409	7	Sololá	719	Santiago Atitlán	14	Cerro de Oro	7	Julio	2023-07-13T00:00:00	2024-11-08T18:00:00	2	Temperatura media	23.3
160410	7	Sololá	719	Santiago Atitlán	14	Cerro de Oro	7	Julio	2023-07-13T00:00:00	2024-11-08T18:00:00	4	Temperatura máxima	23.5
160411	7	Sololá	719	Santiago Atitlán	14	Cerro de Oro	7	Julio	2023-07-13T00:00:00	2024-11-08T18:00:00	3	Temperatura mínima	22.4
160412	7	Sololá	719	Santiago Atitlán	14	Cerro de Oro	7	Julio	2023-07-13T00:00:00	2024-11-08T18:00:00	5	Humedad	73
160413	7	Sololá	719	Santiago Atitlán	14	Cerro de Oro	7	Julio	2023-07-13T00:00:00	2024-11-08T18:00:00	6	Velocidad del viento	4.8
160414	7	Sololá	719	Santiago Atitlán	14	Cerro de Oro	7	Julio	2023-07-13T00:00:00	2024-11-08T18:00:00	7	Dirección del viento	4.83
160415	7	Sololá	719	Santiago Atitlán	14	Cerro de Oro	7	Julio	2023-07-13T00:00:00	2024-11-08T18:00:00	1	Precipitación	0
160416	7	Sololá	719	Santiago Atitlán	14	Cerro de Oro	7	Julio	2023-07-13T00:00:00	2024-11-08T18:00:00	8	Radiación solar	98
160417	7	Sololá	719	Santiago Atitlán	14	Cerro de Oro	7	Julio	2023-07-13T00:00:00	2024-11-08T19:00:00	2	Temperatura media	22.1
160418	7	Sololá	719	Santiago Atitlán	14	Cerro de Oro	7	Julio	2023-07-13T00:00:00	2024-11-08T19:00:00	4	Temperatura máxima	23.3
160419	7	Sololá	719	Santiago Atitlán	14	Cerro de Oro	7	Julio	2023-07-13T00:00:00	2024-11-08T19:00:00	3	Temperatura mínima	22.1
160420	7	Sololá	719	Santiago Atitlán	14	Cerro de Oro	7	Julio	2023-07-13T00:00:00	2024-11-08T19:00:00	5	Humedad	73
160421	7	Sololá	719	Santiago Atitlán	14	Cerro de Oro	7	Julio	2023-07-13T00:00:00	2024-11-08T19:00:00	6	Velocidad del viento	3.2
160422	7	Sololá	719	Santiago Atitlán	14	Cerro de Oro	7	Julio	2023-07-13T00:00:00	2024-11-08T19:00:00	7	Dirección del viento	3.22
160423	7	Sololá	719	Santiago Atitlán	14	Cerro de Oro	7	Julio	2023-07-13T00:00:00	2024-11-08T19:00:00	1	Precipitación	0
160424	7	Sololá	719	Santiago Atitlán	14	Cerro de Oro	7	Julio	2023-07-13T00:00:00	2024-11-08T19:00:00	8	Radiación solar	0
160425	7	Sololá	719	Santiago Atitlán	14	Cerro de Oro	7	Julio	2023-07-13T00:00:00	2024-11-08T20:00:00	2	Temperatura media	21.8
160426	7	Sololá	719	Santiago Atitlán	14	Cerro de Oro	7	Julio	2023-07-13T00:00:00	2024-11-08T20:00:00	4	Temperatura máxima	22.1
160427	7	Sololá	719	Santiago Atitlán	14	Cerro de Oro	7	Julio	2023-07-13T00:00:00	2024-11-08T20:00:00	3	Temperatura mínima	21.6
160428	7	Sololá	719	Santiago Atitlán	14	Cerro de Oro	7	Julio	2023-07-13T00:00:00	2024-11-08T20:00:00	5	Humedad	74
160429	7	Sololá	719	Santiago Atitlán	14	Cerro de Oro	7	Julio	2023-07-13T00:00:00	2024-11-08T20:00:00	6	Velocidad del viento	3.2
160430	7	Sololá	719	Santiago Atitlán	14	Cerro de Oro	7	Julio	2023-07-13T00:00:00	2024-11-08T20:00:00	7	Dirección del viento	3.22
160431	7	Sololá	719	Santiago Atitlán	14	Cerro de Oro	7	Julio	2023-07-13T00:00:00	2024-11-08T20:00:00	1	Precipitación	0
160432	7	Sololá	719	Santiago Atitlán	14	Cerro de Oro	7	Julio	2023-07-13T00:00:00	2024-11-08T20:00:00	8	Radiación solar	0
160433	7	Sololá	719	Santiago Atitlán	14	Cerro de Oro	7	Julio	2023-07-13T00:00:00	2024-11-08T21:00:00	2	Temperatura media	21.7
160434	7	Sololá	719	Santiago Atitlán	14	Cerro de Oro	7	Julio	2023-07-13T00:00:00	2024-11-08T21:00:00	4	Temperatura máxima	21.8
160435	7	Sololá	719	Santiago Atitlán	14	Cerro de Oro	7	Julio	2023-07-13T00:00:00	2024-11-08T21:00:00	3	Temperatura mínima	21.5
160436	7	Sololá	719	Santiago Atitlán	14	Cerro de Oro	7	Julio	2023-07-13T00:00:00	2024-11-08T21:00:00	5	Humedad	72
160437	7	Sololá	719	Santiago Atitlán	14	Cerro de Oro	7	Julio	2023-07-13T00:00:00	2024-11-08T21:00:00	6	Velocidad del viento	3.2
160438	7	Sololá	719	Santiago Atitlán	14	Cerro de Oro	7	Julio	2023-07-13T00:00:00	2024-11-08T21:00:00	7	Dirección del viento	3.22
160439	7	Sololá	719	Santiago Atitlán	14	Cerro de Oro	7	Julio	2023-07-13T00:00:00	2024-11-08T21:00:00	1	Precipitación	0
160440	7	Sololá	719	Santiago Atitlán	14	Cerro de Oro	7	Julio	2023-07-13T00:00:00	2024-11-08T21:00:00	8	Radiación solar	0
160441	7	Sololá	719	Santiago Atitlán	14	Cerro de Oro	7	Julio	2023-07-13T00:00:00	2024-11-08T22:00:00	2	Temperatura media	21.5
160442	7	Sololá	719	Santiago Atitlán	14	Cerro de Oro	7	Julio	2023-07-13T00:00:00	2024-11-08T22:00:00	4	Temperatura máxima	21.8
160443	7	Sololá	719	Santiago Atitlán	14	Cerro de Oro	7	Julio	2023-07-13T00:00:00	2024-11-08T22:00:00	3	Temperatura mínima	21.2
160444	7	Sololá	719	Santiago Atitlán	14	Cerro de Oro	7	Julio	2023-07-13T00:00:00	2024-11-08T22:00:00	5	Humedad	72
160445	7	Sololá	719	Santiago Atitlán	14	Cerro de Oro	7	Julio	2023-07-13T00:00:00	2024-11-08T22:00:00	6	Velocidad del viento	4.8
160446	7	Sololá	719	Santiago Atitlán	14	Cerro de Oro	7	Julio	2023-07-13T00:00:00	2024-11-08T22:00:00	7	Dirección del viento	4.83
160447	7	Sololá	719	Santiago Atitlán	14	Cerro de Oro	7	Julio	2023-07-13T00:00:00	2024-11-08T22:00:00	1	Precipitación	0
160448	7	Sololá	719	Santiago Atitlán	14	Cerro de Oro	7	Julio	2023-07-13T00:00:00	2024-11-08T22:00:00	8	Radiación solar	0
160449	7	Sololá	719	Santiago Atitlán	14	Cerro de Oro	7	Julio	2023-07-13T00:00:00	2024-11-08T23:00:00	2	Temperatura media	18.3
160450	7	Sololá	719	Santiago Atitlán	14	Cerro de Oro	7	Julio	2023-07-13T00:00:00	2024-11-08T23:00:00	4	Temperatura máxima	21.6
160451	7	Sololá	719	Santiago Atitlán	14	Cerro de Oro	7	Julio	2023-07-13T00:00:00	2024-11-08T23:00:00	3	Temperatura mínima	18.3
160452	7	Sololá	719	Santiago Atitlán	14	Cerro de Oro	7	Julio	2023-07-13T00:00:00	2024-11-08T23:00:00	5	Humedad	89
160453	7	Sololá	719	Santiago Atitlán	14	Cerro de Oro	7	Julio	2023-07-13T00:00:00	2024-11-08T23:00:00	6	Velocidad del viento	8
160454	7	Sololá	719	Santiago Atitlán	14	Cerro de Oro	7	Julio	2023-07-13T00:00:00	2024-11-08T23:00:00	7	Dirección del viento	8.05
160455	7	Sololá	719	Santiago Atitlán	14	Cerro de Oro	7	Julio	2023-07-13T00:00:00	2024-11-08T23:00:00	1	Precipitación	2.6
160456	7	Sololá	719	Santiago Atitlán	14	Cerro de Oro	7	Julio	2023-07-13T00:00:00	2024-11-08T23:00:00	8	Radiación solar	0
160457	7	Sololá	719	Santiago Atitlán	14	Cerro de Oro	7	Julio	2023-07-14T00:00:00	2024-11-08T00:00:00	2	Temperatura media	18.2
160458	7	Sololá	719	Santiago Atitlán	14	Cerro de Oro	7	Julio	2023-07-14T00:00:00	2024-11-08T00:00:00	4	Temperatura máxima	18.4
160459	7	Sololá	719	Santiago Atitlán	14	Cerro de Oro	7	Julio	2023-07-14T00:00:00	2024-11-08T00:00:00	3	Temperatura mínima	18
160460	7	Sololá	719	Santiago Atitlán	14	Cerro de Oro	7	Julio	2023-07-14T00:00:00	2024-11-08T00:00:00	5	Humedad	86
160461	7	Sololá	719	Santiago Atitlán	14	Cerro de Oro	7	Julio	2023-07-14T00:00:00	2024-11-08T00:00:00	6	Velocidad del viento	4.8
160462	7	Sololá	719	Santiago Atitlán	14	Cerro de Oro	7	Julio	2023-07-14T00:00:00	2024-11-08T00:00:00	7	Dirección del viento	4.83
160463	7	Sololá	719	Santiago Atitlán	14	Cerro de Oro	7	Julio	2023-07-14T00:00:00	2024-11-08T00:00:00	1	Precipitación	0.8
160464	7	Sololá	719	Santiago Atitlán	14	Cerro de Oro	7	Julio	2023-07-14T00:00:00	2024-11-08T00:00:00	8	Radiación solar	0
160465	7	Sololá	719	Santiago Atitlán	14	Cerro de Oro	7	Julio	2023-07-14T00:00:00	2024-11-08T01:00:00	2	Temperatura media	17.8
160466	7	Sololá	719	Santiago Atitlán	14	Cerro de Oro	7	Julio	2023-07-14T00:00:00	2024-11-08T01:00:00	4	Temperatura máxima	18.2
160467	7	Sololá	719	Santiago Atitlán	14	Cerro de Oro	7	Julio	2023-07-14T00:00:00	2024-11-08T01:00:00	3	Temperatura mínima	17.5
160468	7	Sololá	719	Santiago Atitlán	14	Cerro de Oro	7	Julio	2023-07-14T00:00:00	2024-11-08T01:00:00	5	Humedad	88
160469	7	Sololá	719	Santiago Atitlán	14	Cerro de Oro	7	Julio	2023-07-14T00:00:00	2024-11-08T01:00:00	6	Velocidad del viento	4.8
160470	7	Sololá	719	Santiago Atitlán	14	Cerro de Oro	7	Julio	2023-07-14T00:00:00	2024-11-08T01:00:00	7	Dirección del viento	4.83
160471	7	Sololá	719	Santiago Atitlán	14	Cerro de Oro	7	Julio	2023-07-14T00:00:00	2024-11-08T01:00:00	1	Precipitación	0
160472	7	Sololá	719	Santiago Atitlán	14	Cerro de Oro	7	Julio	2023-07-14T00:00:00	2024-11-08T01:00:00	8	Radiación solar	0
160473	7	Sololá	719	Santiago Atitlán	14	Cerro de Oro	7	Julio	2023-07-14T00:00:00	2024-11-08T02:00:00	2	Temperatura media	18.3
160474	7	Sololá	719	Santiago Atitlán	14	Cerro de Oro	7	Julio	2023-07-14T00:00:00	2024-11-08T02:00:00	4	Temperatura máxima	18.7
160475	7	Sololá	719	Santiago Atitlán	14	Cerro de Oro	7	Julio	2023-07-14T00:00:00	2024-11-08T02:00:00	3	Temperatura mínima	17.8
160476	7	Sololá	719	Santiago Atitlán	14	Cerro de Oro	7	Julio	2023-07-14T00:00:00	2024-11-08T02:00:00	5	Humedad	83
160477	7	Sololá	719	Santiago Atitlán	14	Cerro de Oro	7	Julio	2023-07-14T00:00:00	2024-11-08T02:00:00	6	Velocidad del viento	6.4
160478	7	Sololá	719	Santiago Atitlán	14	Cerro de Oro	7	Julio	2023-07-14T00:00:00	2024-11-08T02:00:00	7	Dirección del viento	6.44
160479	7	Sololá	719	Santiago Atitlán	14	Cerro de Oro	7	Julio	2023-07-14T00:00:00	2024-11-08T02:00:00	1	Precipitación	0
160480	7	Sololá	719	Santiago Atitlán	14	Cerro de Oro	7	Julio	2023-07-14T00:00:00	2024-11-08T02:00:00	8	Radiación solar	0
160481	7	Sololá	719	Santiago Atitlán	14	Cerro de Oro	7	Julio	2023-07-14T00:00:00	2024-11-08T03:00:00	2	Temperatura media	17.9
160482	7	Sololá	719	Santiago Atitlán	14	Cerro de Oro	7	Julio	2023-07-14T00:00:00	2024-11-08T03:00:00	4	Temperatura máxima	18.6
160483	7	Sololá	719	Santiago Atitlán	14	Cerro de Oro	7	Julio	2023-07-14T00:00:00	2024-11-08T03:00:00	3	Temperatura mínima	17.7
160484	7	Sololá	719	Santiago Atitlán	14	Cerro de Oro	7	Julio	2023-07-14T00:00:00	2024-11-08T03:00:00	5	Humedad	81
160485	7	Sololá	719	Santiago Atitlán	14	Cerro de Oro	7	Julio	2023-07-14T00:00:00	2024-11-08T03:00:00	6	Velocidad del viento	6.4
160486	7	Sololá	719	Santiago Atitlán	14	Cerro de Oro	7	Julio	2023-07-14T00:00:00	2024-11-08T03:00:00	7	Dirección del viento	6.44
160487	7	Sololá	719	Santiago Atitlán	14	Cerro de Oro	7	Julio	2023-07-14T00:00:00	2024-11-08T03:00:00	1	Precipitación	0
160488	7	Sololá	719	Santiago Atitlán	14	Cerro de Oro	7	Julio	2023-07-14T00:00:00	2024-11-08T03:00:00	8	Radiación solar	0
160489	7	Sololá	719	Santiago Atitlán	14	Cerro de Oro	7	Julio	2023-07-14T00:00:00	2024-11-08T04:00:00	2	Temperatura media	19.2
160490	7	Sololá	719	Santiago Atitlán	14	Cerro de Oro	7	Julio	2023-07-14T00:00:00	2024-11-08T04:00:00	4	Temperatura máxima	19.4
160491	7	Sololá	719	Santiago Atitlán	14	Cerro de Oro	7	Julio	2023-07-14T00:00:00	2024-11-08T04:00:00	3	Temperatura mínima	17.9
160492	7	Sololá	719	Santiago Atitlán	14	Cerro de Oro	7	Julio	2023-07-14T00:00:00	2024-11-08T04:00:00	5	Humedad	70
160493	7	Sololá	719	Santiago Atitlán	14	Cerro de Oro	7	Julio	2023-07-14T00:00:00	2024-11-08T04:00:00	6	Velocidad del viento	4.8
160494	7	Sololá	719	Santiago Atitlán	14	Cerro de Oro	7	Julio	2023-07-14T00:00:00	2024-11-08T04:00:00	7	Dirección del viento	4.83
160495	7	Sololá	719	Santiago Atitlán	14	Cerro de Oro	7	Julio	2023-07-14T00:00:00	2024-11-08T04:00:00	1	Precipitación	0
160496	7	Sololá	719	Santiago Atitlán	14	Cerro de Oro	7	Julio	2023-07-14T00:00:00	2024-11-08T04:00:00	8	Radiación solar	0
160497	7	Sololá	719	Santiago Atitlán	14	Cerro de Oro	7	Julio	2023-07-14T00:00:00	2024-11-08T05:00:00	2	Temperatura media	19.1
160498	7	Sololá	719	Santiago Atitlán	14	Cerro de Oro	7	Julio	2023-07-14T00:00:00	2024-11-08T05:00:00	4	Temperatura máxima	19.6
160499	7	Sololá	719	Santiago Atitlán	14	Cerro de Oro	7	Julio	2023-07-14T00:00:00	2024-11-08T05:00:00	3	Temperatura mínima	18.7
160500	7	Sololá	719	Santiago Atitlán	14	Cerro de Oro	7	Julio	2023-07-14T00:00:00	2024-11-08T05:00:00	5	Humedad	70
160501	7	Sololá	719	Santiago Atitlán	14	Cerro de Oro	7	Julio	2023-07-14T00:00:00	2024-11-08T05:00:00	6	Velocidad del viento	4.8
160502	7	Sololá	719	Santiago Atitlán	14	Cerro de Oro	7	Julio	2023-07-14T00:00:00	2024-11-08T05:00:00	7	Dirección del viento	4.83
160503	7	Sololá	719	Santiago Atitlán	14	Cerro de Oro	7	Julio	2023-07-14T00:00:00	2024-11-08T05:00:00	1	Precipitación	0
160504	7	Sololá	719	Santiago Atitlán	14	Cerro de Oro	7	Julio	2023-07-14T00:00:00	2024-11-08T05:00:00	8	Radiación solar	0
160505	7	Sololá	719	Santiago Atitlán	14	Cerro de Oro	7	Julio	2023-07-14T00:00:00	2024-11-08T06:00:00	2	Temperatura media	19.1
160506	7	Sololá	719	Santiago Atitlán	14	Cerro de Oro	7	Julio	2023-07-14T00:00:00	2024-11-08T06:00:00	4	Temperatura máxima	19.2
160507	7	Sololá	719	Santiago Atitlán	14	Cerro de Oro	7	Julio	2023-07-14T00:00:00	2024-11-08T06:00:00	3	Temperatura mínima	18.6
160508	7	Sololá	719	Santiago Atitlán	14	Cerro de Oro	7	Julio	2023-07-14T00:00:00	2024-11-08T06:00:00	5	Humedad	72
160509	7	Sololá	719	Santiago Atitlán	14	Cerro de Oro	7	Julio	2023-07-14T00:00:00	2024-11-08T06:00:00	6	Velocidad del viento	6.4
160510	7	Sololá	719	Santiago Atitlán	14	Cerro de Oro	7	Julio	2023-07-14T00:00:00	2024-11-08T06:00:00	7	Dirección del viento	6.44
160511	7	Sololá	719	Santiago Atitlán	14	Cerro de Oro	7	Julio	2023-07-14T00:00:00	2024-11-08T06:00:00	1	Precipitación	0
160512	7	Sololá	719	Santiago Atitlán	14	Cerro de Oro	7	Julio	2023-07-14T00:00:00	2024-11-08T06:00:00	8	Radiación solar	4
160513	7	Sololá	719	Santiago Atitlán	14	Cerro de Oro	7	Julio	2023-07-14T00:00:00	2024-11-08T07:00:00	2	Temperatura media	20.4
160514	7	Sololá	719	Santiago Atitlán	14	Cerro de Oro	7	Julio	2023-07-14T00:00:00	2024-11-08T07:00:00	4	Temperatura máxima	20.4
160515	7	Sololá	719	Santiago Atitlán	14	Cerro de Oro	7	Julio	2023-07-14T00:00:00	2024-11-08T07:00:00	3	Temperatura mínima	19.1
160516	7	Sololá	719	Santiago Atitlán	14	Cerro de Oro	7	Julio	2023-07-14T00:00:00	2024-11-08T07:00:00	5	Humedad	68
160517	7	Sololá	719	Santiago Atitlán	14	Cerro de Oro	7	Julio	2023-07-14T00:00:00	2024-11-08T07:00:00	6	Velocidad del viento	6.4
160518	7	Sololá	719	Santiago Atitlán	14	Cerro de Oro	7	Julio	2023-07-14T00:00:00	2024-11-08T07:00:00	7	Dirección del viento	6.44
160519	7	Sololá	719	Santiago Atitlán	14	Cerro de Oro	7	Julio	2023-07-14T00:00:00	2024-11-08T07:00:00	1	Precipitación	0
160520	7	Sololá	719	Santiago Atitlán	14	Cerro de Oro	7	Julio	2023-07-14T00:00:00	2024-11-08T07:00:00	8	Radiación solar	91
160521	7	Sololá	719	Santiago Atitlán	14	Cerro de Oro	7	Julio	2023-07-14T00:00:00	2024-11-08T08:00:00	2	Temperatura media	21.3
160522	7	Sololá	719	Santiago Atitlán	14	Cerro de Oro	7	Julio	2023-07-14T00:00:00	2024-11-08T08:00:00	4	Temperatura máxima	21.4
160523	7	Sololá	719	Santiago Atitlán	14	Cerro de Oro	7	Julio	2023-07-14T00:00:00	2024-11-08T08:00:00	3	Temperatura mínima	20.4
160524	7	Sololá	719	Santiago Atitlán	14	Cerro de Oro	7	Julio	2023-07-14T00:00:00	2024-11-08T08:00:00	5	Humedad	65
160525	7	Sololá	719	Santiago Atitlán	14	Cerro de Oro	7	Julio	2023-07-14T00:00:00	2024-11-08T08:00:00	6	Velocidad del viento	6.4
160526	7	Sololá	719	Santiago Atitlán	14	Cerro de Oro	7	Julio	2023-07-14T00:00:00	2024-11-08T08:00:00	7	Dirección del viento	6.44
160527	7	Sololá	719	Santiago Atitlán	14	Cerro de Oro	7	Julio	2023-07-14T00:00:00	2024-11-08T08:00:00	1	Precipitación	0
160528	7	Sololá	719	Santiago Atitlán	14	Cerro de Oro	7	Julio	2023-07-14T00:00:00	2024-11-08T08:00:00	8	Radiación solar	264
160529	7	Sololá	719	Santiago Atitlán	14	Cerro de Oro	7	Julio	2023-07-14T00:00:00	2024-11-08T09:00:00	2	Temperatura media	22.4
160530	7	Sololá	719	Santiago Atitlán	14	Cerro de Oro	7	Julio	2023-07-14T00:00:00	2024-11-08T09:00:00	4	Temperatura máxima	22.4
160531	7	Sololá	719	Santiago Atitlán	14	Cerro de Oro	7	Julio	2023-07-14T00:00:00	2024-11-08T09:00:00	3	Temperatura mínima	21.2
160532	7	Sololá	719	Santiago Atitlán	14	Cerro de Oro	7	Julio	2023-07-14T00:00:00	2024-11-08T09:00:00	5	Humedad	60
160533	7	Sololá	719	Santiago Atitlán	14	Cerro de Oro	7	Julio	2023-07-14T00:00:00	2024-11-08T09:00:00	6	Velocidad del viento	6.4
160534	7	Sololá	719	Santiago Atitlán	14	Cerro de Oro	7	Julio	2023-07-14T00:00:00	2024-11-08T09:00:00	7	Dirección del viento	6.44
160535	7	Sololá	719	Santiago Atitlán	14	Cerro de Oro	7	Julio	2023-07-14T00:00:00	2024-11-08T09:00:00	1	Precipitación	0
160536	7	Sololá	719	Santiago Atitlán	14	Cerro de Oro	7	Julio	2023-07-14T00:00:00	2024-11-08T09:00:00	8	Radiación solar	369
160537	7	Sololá	719	Santiago Atitlán	14	Cerro de Oro	7	Julio	2023-07-14T00:00:00	2024-11-08T10:00:00	2	Temperatura media	23
160538	7	Sololá	719	Santiago Atitlán	14	Cerro de Oro	7	Julio	2023-07-14T00:00:00	2024-11-08T10:00:00	4	Temperatura máxima	23.1
160539	7	Sololá	719	Santiago Atitlán	14	Cerro de Oro	7	Julio	2023-07-14T00:00:00	2024-11-08T10:00:00	3	Temperatura mínima	22
160540	7	Sololá	719	Santiago Atitlán	14	Cerro de Oro	7	Julio	2023-07-14T00:00:00	2024-11-08T10:00:00	5	Humedad	59
160541	7	Sololá	719	Santiago Atitlán	14	Cerro de Oro	7	Julio	2023-07-14T00:00:00	2024-11-08T10:00:00	6	Velocidad del viento	6.4
160542	7	Sololá	719	Santiago Atitlán	14	Cerro de Oro	7	Julio	2023-07-14T00:00:00	2024-11-08T10:00:00	7	Dirección del viento	6.44
160543	7	Sololá	719	Santiago Atitlán	14	Cerro de Oro	7	Julio	2023-07-14T00:00:00	2024-11-08T10:00:00	1	Precipitación	0
160544	7	Sololá	719	Santiago Atitlán	14	Cerro de Oro	7	Julio	2023-07-14T00:00:00	2024-11-08T10:00:00	8	Radiación solar	379
160545	7	Sololá	719	Santiago Atitlán	14	Cerro de Oro	7	Julio	2023-07-14T00:00:00	2024-11-08T11:00:00	2	Temperatura media	24.6
160546	7	Sololá	719	Santiago Atitlán	14	Cerro de Oro	7	Julio	2023-07-14T00:00:00	2024-11-08T11:00:00	4	Temperatura máxima	24.6
160547	7	Sololá	719	Santiago Atitlán	14	Cerro de Oro	7	Julio	2023-07-14T00:00:00	2024-11-08T11:00:00	3	Temperatura mínima	23
160548	7	Sololá	719	Santiago Atitlán	14	Cerro de Oro	7	Julio	2023-07-14T00:00:00	2024-11-08T11:00:00	5	Humedad	52
160549	7	Sololá	719	Santiago Atitlán	14	Cerro de Oro	7	Julio	2023-07-14T00:00:00	2024-11-08T11:00:00	6	Velocidad del viento	9.7
160550	7	Sololá	719	Santiago Atitlán	14	Cerro de Oro	7	Julio	2023-07-14T00:00:00	2024-11-08T11:00:00	7	Dirección del viento	9.66
160551	7	Sololá	719	Santiago Atitlán	14	Cerro de Oro	7	Julio	2023-07-14T00:00:00	2024-11-08T11:00:00	1	Precipitación	0
160552	7	Sololá	719	Santiago Atitlán	14	Cerro de Oro	7	Julio	2023-07-14T00:00:00	2024-11-08T11:00:00	8	Radiación solar	671
160553	7	Sololá	719	Santiago Atitlán	14	Cerro de Oro	7	Julio	2023-07-14T00:00:00	2024-11-08T12:00:00	2	Temperatura media	24.8
160554	7	Sololá	719	Santiago Atitlán	14	Cerro de Oro	7	Julio	2023-07-14T00:00:00	2024-11-08T12:00:00	4	Temperatura máxima	25.1
160555	7	Sololá	719	Santiago Atitlán	14	Cerro de Oro	7	Julio	2023-07-14T00:00:00	2024-11-08T12:00:00	3	Temperatura mínima	24.4
160556	7	Sololá	719	Santiago Atitlán	14	Cerro de Oro	7	Julio	2023-07-14T00:00:00	2024-11-08T12:00:00	5	Humedad	53
160557	7	Sololá	719	Santiago Atitlán	14	Cerro de Oro	7	Julio	2023-07-14T00:00:00	2024-11-08T12:00:00	6	Velocidad del viento	14.5
160558	7	Sololá	719	Santiago Atitlán	14	Cerro de Oro	7	Julio	2023-07-14T00:00:00	2024-11-08T12:00:00	7	Dirección del viento	14.48
160559	7	Sololá	719	Santiago Atitlán	14	Cerro de Oro	7	Julio	2023-07-14T00:00:00	2024-11-08T12:00:00	1	Precipitación	0
160560	7	Sololá	719	Santiago Atitlán	14	Cerro de Oro	7	Julio	2023-07-14T00:00:00	2024-11-08T12:00:00	8	Radiación solar	878
160561	7	Sololá	719	Santiago Atitlán	14	Cerro de Oro	7	Julio	2023-07-14T00:00:00	2024-11-08T13:00:00	2	Temperatura media	25.4
160562	7	Sololá	719	Santiago Atitlán	14	Cerro de Oro	7	Julio	2023-07-14T00:00:00	2024-11-08T13:00:00	4	Temperatura máxima	25.6
160563	7	Sololá	719	Santiago Atitlán	14	Cerro de Oro	7	Julio	2023-07-14T00:00:00	2024-11-08T13:00:00	3	Temperatura mínima	24.8
160564	7	Sololá	719	Santiago Atitlán	14	Cerro de Oro	7	Julio	2023-07-14T00:00:00	2024-11-08T13:00:00	5	Humedad	49
160565	7	Sololá	719	Santiago Atitlán	14	Cerro de Oro	7	Julio	2023-07-14T00:00:00	2024-11-08T13:00:00	6	Velocidad del viento	16.1
160566	7	Sololá	719	Santiago Atitlán	14	Cerro de Oro	7	Julio	2023-07-14T00:00:00	2024-11-08T13:00:00	7	Dirección del viento	16.09
160567	7	Sololá	719	Santiago Atitlán	14	Cerro de Oro	7	Julio	2023-07-14T00:00:00	2024-11-08T13:00:00	1	Precipitación	0
160568	7	Sololá	719	Santiago Atitlán	14	Cerro de Oro	7	Julio	2023-07-14T00:00:00	2024-11-08T13:00:00	8	Radiación solar	874
160569	7	Sololá	719	Santiago Atitlán	14	Cerro de Oro	7	Julio	2023-07-14T00:00:00	2024-11-08T14:00:00	2	Temperatura media	26.2
160570	7	Sololá	719	Santiago Atitlán	14	Cerro de Oro	7	Julio	2023-07-14T00:00:00	2024-11-08T14:00:00	4	Temperatura máxima	26.3
160571	7	Sololá	719	Santiago Atitlán	14	Cerro de Oro	7	Julio	2023-07-14T00:00:00	2024-11-08T14:00:00	3	Temperatura mínima	25.4
160572	7	Sololá	719	Santiago Atitlán	14	Cerro de Oro	7	Julio	2023-07-14T00:00:00	2024-11-08T14:00:00	5	Humedad	50
160573	7	Sololá	719	Santiago Atitlán	14	Cerro de Oro	7	Julio	2023-07-14T00:00:00	2024-11-08T14:00:00	6	Velocidad del viento	12.9
160574	7	Sololá	719	Santiago Atitlán	14	Cerro de Oro	7	Julio	2023-07-14T00:00:00	2024-11-08T14:00:00	7	Dirección del viento	12.87
160575	7	Sololá	719	Santiago Atitlán	14	Cerro de Oro	7	Julio	2023-07-14T00:00:00	2024-11-08T14:00:00	1	Precipitación	0
160576	7	Sololá	719	Santiago Atitlán	14	Cerro de Oro	7	Julio	2023-07-14T00:00:00	2024-11-08T14:00:00	8	Radiación solar	902
160577	7	Sololá	719	Santiago Atitlán	14	Cerro de Oro	7	Julio	2023-07-14T00:00:00	2024-11-08T15:00:00	2	Temperatura media	26
160578	7	Sololá	719	Santiago Atitlán	14	Cerro de Oro	7	Julio	2023-07-14T00:00:00	2024-11-08T15:00:00	4	Temperatura máxima	26.6
160579	7	Sololá	719	Santiago Atitlán	14	Cerro de Oro	7	Julio	2023-07-14T00:00:00	2024-11-08T15:00:00	3	Temperatura mínima	25.9
160580	7	Sololá	719	Santiago Atitlán	14	Cerro de Oro	7	Julio	2023-07-14T00:00:00	2024-11-08T15:00:00	5	Humedad	51
160581	7	Sololá	719	Santiago Atitlán	14	Cerro de Oro	7	Julio	2023-07-14T00:00:00	2024-11-08T15:00:00	6	Velocidad del viento	11.3
160582	7	Sololá	719	Santiago Atitlán	14	Cerro de Oro	7	Julio	2023-07-14T00:00:00	2024-11-08T15:00:00	7	Dirección del viento	11.27
160583	7	Sololá	719	Santiago Atitlán	14	Cerro de Oro	7	Julio	2023-07-14T00:00:00	2024-11-08T15:00:00	1	Precipitación	0
160584	7	Sololá	719	Santiago Atitlán	14	Cerro de Oro	7	Julio	2023-07-14T00:00:00	2024-11-08T15:00:00	8	Radiación solar	750
160585	7	Sololá	719	Santiago Atitlán	14	Cerro de Oro	7	Julio	2023-07-14T00:00:00	2024-11-08T16:00:00	2	Temperatura media	25.5
160586	7	Sololá	719	Santiago Atitlán	14	Cerro de Oro	7	Julio	2023-07-14T00:00:00	2024-11-08T16:00:00	4	Temperatura máxima	25.9
160587	7	Sololá	719	Santiago Atitlán	14	Cerro de Oro	7	Julio	2023-07-14T00:00:00	2024-11-08T16:00:00	3	Temperatura mínima	25.4
160588	7	Sololá	719	Santiago Atitlán	14	Cerro de Oro	7	Julio	2023-07-14T00:00:00	2024-11-08T16:00:00	5	Humedad	56
160589	7	Sololá	719	Santiago Atitlán	14	Cerro de Oro	7	Julio	2023-07-14T00:00:00	2024-11-08T16:00:00	6	Velocidad del viento	9.7
160590	7	Sololá	719	Santiago Atitlán	14	Cerro de Oro	7	Julio	2023-07-14T00:00:00	2024-11-08T16:00:00	7	Dirección del viento	9.66
160591	7	Sololá	719	Santiago Atitlán	14	Cerro de Oro	7	Julio	2023-07-14T00:00:00	2024-11-08T16:00:00	1	Precipitación	0
160592	7	Sololá	719	Santiago Atitlán	14	Cerro de Oro	7	Julio	2023-07-14T00:00:00	2024-11-08T16:00:00	8	Radiación solar	380
160593	7	Sololá	719	Santiago Atitlán	14	Cerro de Oro	7	Julio	2023-07-14T00:00:00	2024-11-08T17:00:00	2	Temperatura media	24.4
160594	7	Sololá	719	Santiago Atitlán	14	Cerro de Oro	7	Julio	2023-07-14T00:00:00	2024-11-08T17:00:00	4	Temperatura máxima	25.7
160595	7	Sololá	719	Santiago Atitlán	14	Cerro de Oro	7	Julio	2023-07-14T00:00:00	2024-11-08T17:00:00	3	Temperatura mínima	24.4
160596	7	Sololá	719	Santiago Atitlán	14	Cerro de Oro	7	Julio	2023-07-14T00:00:00	2024-11-08T17:00:00	5	Humedad	58
160597	7	Sololá	719	Santiago Atitlán	14	Cerro de Oro	7	Julio	2023-07-14T00:00:00	2024-11-08T17:00:00	6	Velocidad del viento	11.3
160598	7	Sololá	719	Santiago Atitlán	14	Cerro de Oro	7	Julio	2023-07-14T00:00:00	2024-11-08T17:00:00	7	Dirección del viento	11.27
160599	7	Sololá	719	Santiago Atitlán	14	Cerro de Oro	7	Julio	2023-07-14T00:00:00	2024-11-08T17:00:00	1	Precipitación	0
160600	7	Sololá	719	Santiago Atitlán	14	Cerro de Oro	7	Julio	2023-07-14T00:00:00	2024-11-08T17:00:00	8	Radiación solar	302
160601	7	Sololá	719	Santiago Atitlán	14	Cerro de Oro	7	Julio	2023-07-14T00:00:00	2024-11-08T18:00:00	2	Temperatura media	24
160602	7	Sololá	719	Santiago Atitlán	14	Cerro de Oro	7	Julio	2023-07-14T00:00:00	2024-11-08T18:00:00	4	Temperatura máxima	24.4
160603	7	Sololá	719	Santiago Atitlán	14	Cerro de Oro	7	Julio	2023-07-14T00:00:00	2024-11-08T18:00:00	3	Temperatura mínima	23.7
160604	7	Sololá	719	Santiago Atitlán	14	Cerro de Oro	7	Julio	2023-07-14T00:00:00	2024-11-08T18:00:00	5	Humedad	59
160605	7	Sololá	719	Santiago Atitlán	14	Cerro de Oro	7	Julio	2023-07-14T00:00:00	2024-11-08T18:00:00	6	Velocidad del viento	12.9
160606	7	Sololá	719	Santiago Atitlán	14	Cerro de Oro	7	Julio	2023-07-14T00:00:00	2024-11-08T18:00:00	7	Dirección del viento	12.87
160607	7	Sololá	719	Santiago Atitlán	14	Cerro de Oro	7	Julio	2023-07-14T00:00:00	2024-11-08T18:00:00	1	Precipitación	0
160608	7	Sololá	719	Santiago Atitlán	14	Cerro de Oro	7	Julio	2023-07-14T00:00:00	2024-11-08T18:00:00	8	Radiación solar	103
160609	7	Sololá	719	Santiago Atitlán	14	Cerro de Oro	7	Julio	2023-07-14T00:00:00	2024-11-08T19:00:00	2	Temperatura media	22.9
160610	7	Sololá	719	Santiago Atitlán	14	Cerro de Oro	7	Julio	2023-07-14T00:00:00	2024-11-08T19:00:00	4	Temperatura máxima	24.1
160611	7	Sololá	719	Santiago Atitlán	14	Cerro de Oro	7	Julio	2023-07-14T00:00:00	2024-11-08T19:00:00	3	Temperatura mínima	22.4
160612	7	Sololá	719	Santiago Atitlán	14	Cerro de Oro	7	Julio	2023-07-14T00:00:00	2024-11-08T19:00:00	5	Humedad	60
160613	7	Sololá	719	Santiago Atitlán	14	Cerro de Oro	7	Julio	2023-07-14T00:00:00	2024-11-08T19:00:00	6	Velocidad del viento	6.4
160614	7	Sololá	719	Santiago Atitlán	14	Cerro de Oro	7	Julio	2023-07-14T00:00:00	2024-11-08T19:00:00	7	Dirección del viento	6.44
160615	7	Sololá	719	Santiago Atitlán	14	Cerro de Oro	7	Julio	2023-07-14T00:00:00	2024-11-08T19:00:00	1	Precipitación	0
160616	7	Sololá	719	Santiago Atitlán	14	Cerro de Oro	7	Julio	2023-07-14T00:00:00	2024-11-08T19:00:00	8	Radiación solar	0
160617	7	Sololá	719	Santiago Atitlán	14	Cerro de Oro	7	Julio	2023-07-14T00:00:00	2024-11-08T20:00:00	2	Temperatura media	21.4
160618	7	Sololá	719	Santiago Atitlán	14	Cerro de Oro	7	Julio	2023-07-14T00:00:00	2024-11-08T20:00:00	4	Temperatura máxima	22.9
160619	7	Sololá	719	Santiago Atitlán	14	Cerro de Oro	7	Julio	2023-07-14T00:00:00	2024-11-08T20:00:00	3	Temperatura mínima	21.3
160620	7	Sololá	719	Santiago Atitlán	14	Cerro de Oro	7	Julio	2023-07-14T00:00:00	2024-11-08T20:00:00	5	Humedad	70
160621	7	Sololá	719	Santiago Atitlán	14	Cerro de Oro	7	Julio	2023-07-14T00:00:00	2024-11-08T20:00:00	6	Velocidad del viento	4.8
160622	7	Sololá	719	Santiago Atitlán	14	Cerro de Oro	7	Julio	2023-07-14T00:00:00	2024-11-08T20:00:00	7	Dirección del viento	4.83
160623	7	Sololá	719	Santiago Atitlán	14	Cerro de Oro	7	Julio	2023-07-14T00:00:00	2024-11-08T20:00:00	1	Precipitación	0
160624	7	Sololá	719	Santiago Atitlán	14	Cerro de Oro	7	Julio	2023-07-14T00:00:00	2024-11-08T20:00:00	8	Radiación solar	0
160625	7	Sololá	719	Santiago Atitlán	14	Cerro de Oro	7	Julio	2023-07-14T00:00:00	2024-11-08T21:00:00	2	Temperatura media	20.5
160626	7	Sololá	719	Santiago Atitlán	14	Cerro de Oro	7	Julio	2023-07-14T00:00:00	2024-11-08T21:00:00	4	Temperatura máxima	21.8
160627	7	Sololá	719	Santiago Atitlán	14	Cerro de Oro	7	Julio	2023-07-14T00:00:00	2024-11-08T21:00:00	3	Temperatura mínima	20.5
160628	7	Sololá	719	Santiago Atitlán	14	Cerro de Oro	7	Julio	2023-07-14T00:00:00	2024-11-08T21:00:00	5	Humedad	75
160629	7	Sololá	719	Santiago Atitlán	14	Cerro de Oro	7	Julio	2023-07-14T00:00:00	2024-11-08T21:00:00	6	Velocidad del viento	4.8
160630	7	Sololá	719	Santiago Atitlán	14	Cerro de Oro	7	Julio	2023-07-14T00:00:00	2024-11-08T21:00:00	7	Dirección del viento	4.83
160631	7	Sololá	719	Santiago Atitlán	14	Cerro de Oro	7	Julio	2023-07-14T00:00:00	2024-11-08T21:00:00	1	Precipitación	0
160632	7	Sololá	719	Santiago Atitlán	14	Cerro de Oro	7	Julio	2023-07-14T00:00:00	2024-11-08T21:00:00	8	Radiación solar	0
160633	7	Sololá	719	Santiago Atitlán	14	Cerro de Oro	7	Julio	2023-07-14T00:00:00	2024-11-08T22:00:00	2	Temperatura media	20.6
160634	7	Sololá	719	Santiago Atitlán	14	Cerro de Oro	7	Julio	2023-07-14T00:00:00	2024-11-08T22:00:00	4	Temperatura máxima	20.6
160635	7	Sololá	719	Santiago Atitlán	14	Cerro de Oro	7	Julio	2023-07-14T00:00:00	2024-11-08T22:00:00	3	Temperatura mínima	20.2
160636	7	Sololá	719	Santiago Atitlán	14	Cerro de Oro	7	Julio	2023-07-14T00:00:00	2024-11-08T22:00:00	5	Humedad	75
160637	7	Sololá	719	Santiago Atitlán	14	Cerro de Oro	7	Julio	2023-07-14T00:00:00	2024-11-08T22:00:00	6	Velocidad del viento	3.2
160638	7	Sololá	719	Santiago Atitlán	14	Cerro de Oro	7	Julio	2023-07-14T00:00:00	2024-11-08T22:00:00	7	Dirección del viento	3.22
160639	7	Sololá	719	Santiago Atitlán	14	Cerro de Oro	7	Julio	2023-07-14T00:00:00	2024-11-08T22:00:00	1	Precipitación	0
160640	7	Sololá	719	Santiago Atitlán	14	Cerro de Oro	7	Julio	2023-07-14T00:00:00	2024-11-08T22:00:00	8	Radiación solar	0
160641	7	Sololá	719	Santiago Atitlán	14	Cerro de Oro	7	Julio	2023-07-14T00:00:00	2024-11-08T23:00:00	2	Temperatura media	21.3
160642	7	Sololá	719	Santiago Atitlán	14	Cerro de Oro	7	Julio	2023-07-14T00:00:00	2024-11-08T23:00:00	4	Temperatura máxima	21.9
160643	7	Sololá	719	Santiago Atitlán	14	Cerro de Oro	7	Julio	2023-07-14T00:00:00	2024-11-08T23:00:00	3	Temperatura mínima	20.6
160644	7	Sololá	719	Santiago Atitlán	14	Cerro de Oro	7	Julio	2023-07-14T00:00:00	2024-11-08T23:00:00	5	Humedad	66
160645	7	Sololá	719	Santiago Atitlán	14	Cerro de Oro	7	Julio	2023-07-14T00:00:00	2024-11-08T23:00:00	6	Velocidad del viento	8
160646	7	Sololá	719	Santiago Atitlán	14	Cerro de Oro	7	Julio	2023-07-14T00:00:00	2024-11-08T23:00:00	7	Dirección del viento	8.05
160647	7	Sololá	719	Santiago Atitlán	14	Cerro de Oro	7	Julio	2023-07-14T00:00:00	2024-11-08T23:00:00	1	Precipitación	0
160648	7	Sololá	719	Santiago Atitlán	14	Cerro de Oro	7	Julio	2023-07-14T00:00:00	2024-11-08T23:00:00	8	Radiación solar	0
160649	7	Sololá	719	Santiago Atitlán	14	Cerro de Oro	7	Julio	2023-07-15T00:00:00	2024-11-08T00:00:00	2	Temperatura media	20.9
160650	7	Sololá	719	Santiago Atitlán	14	Cerro de Oro	7	Julio	2023-07-15T00:00:00	2024-11-08T00:00:00	4	Temperatura máxima	21.3
160651	7	Sololá	719	Santiago Atitlán	14	Cerro de Oro	7	Julio	2023-07-15T00:00:00	2024-11-08T00:00:00	3	Temperatura mínima	20.9
160652	7	Sololá	719	Santiago Atitlán	14	Cerro de Oro	7	Julio	2023-07-15T00:00:00	2024-11-08T00:00:00	5	Humedad	66
160653	7	Sololá	719	Santiago Atitlán	14	Cerro de Oro	7	Julio	2023-07-15T00:00:00	2024-11-08T00:00:00	6	Velocidad del viento	9.7
160654	7	Sololá	719	Santiago Atitlán	14	Cerro de Oro	7	Julio	2023-07-15T00:00:00	2024-11-08T00:00:00	7	Dirección del viento	9.66
160655	7	Sololá	719	Santiago Atitlán	14	Cerro de Oro	7	Julio	2023-07-15T00:00:00	2024-11-08T00:00:00	1	Precipitación	0
160656	7	Sololá	719	Santiago Atitlán	14	Cerro de Oro	7	Julio	2023-07-15T00:00:00	2024-11-08T00:00:00	8	Radiación solar	0
160657	7	Sololá	719	Santiago Atitlán	14	Cerro de Oro	7	Julio	2023-07-15T00:00:00	2024-11-08T01:00:00	2	Temperatura media	20.7
160658	7	Sololá	719	Santiago Atitlán	14	Cerro de Oro	7	Julio	2023-07-15T00:00:00	2024-11-08T01:00:00	4	Temperatura máxima	21.1
160659	7	Sololá	719	Santiago Atitlán	14	Cerro de Oro	7	Julio	2023-07-15T00:00:00	2024-11-08T01:00:00	3	Temperatura mínima	20.7
160660	7	Sololá	719	Santiago Atitlán	14	Cerro de Oro	7	Julio	2023-07-15T00:00:00	2024-11-08T01:00:00	5	Humedad	67
160661	7	Sololá	719	Santiago Atitlán	14	Cerro de Oro	7	Julio	2023-07-15T00:00:00	2024-11-08T01:00:00	6	Velocidad del viento	8
160662	7	Sololá	719	Santiago Atitlán	14	Cerro de Oro	7	Julio	2023-07-15T00:00:00	2024-11-08T01:00:00	7	Dirección del viento	8.05
160663	7	Sololá	719	Santiago Atitlán	14	Cerro de Oro	7	Julio	2023-07-15T00:00:00	2024-11-08T01:00:00	1	Precipitación	0
160664	7	Sololá	719	Santiago Atitlán	14	Cerro de Oro	7	Julio	2023-07-15T00:00:00	2024-11-08T01:00:00	8	Radiación solar	0
160665	7	Sololá	719	Santiago Atitlán	14	Cerro de Oro	7	Julio	2023-07-15T00:00:00	2024-11-08T02:00:00	2	Temperatura media	20.6
160666	7	Sololá	719	Santiago Atitlán	14	Cerro de Oro	7	Julio	2023-07-15T00:00:00	2024-11-08T02:00:00	4	Temperatura máxima	20.7
160667	7	Sololá	719	Santiago Atitlán	14	Cerro de Oro	7	Julio	2023-07-15T00:00:00	2024-11-08T02:00:00	3	Temperatura mínima	20.3
160668	7	Sololá	719	Santiago Atitlán	14	Cerro de Oro	7	Julio	2023-07-15T00:00:00	2024-11-08T02:00:00	5	Humedad	68
160669	7	Sololá	719	Santiago Atitlán	14	Cerro de Oro	7	Julio	2023-07-15T00:00:00	2024-11-08T02:00:00	6	Velocidad del viento	6.4
160670	7	Sololá	719	Santiago Atitlán	14	Cerro de Oro	7	Julio	2023-07-15T00:00:00	2024-11-08T02:00:00	7	Dirección del viento	6.44
160671	7	Sololá	719	Santiago Atitlán	14	Cerro de Oro	7	Julio	2023-07-15T00:00:00	2024-11-08T02:00:00	1	Precipitación	0
160672	7	Sololá	719	Santiago Atitlán	14	Cerro de Oro	7	Julio	2023-07-15T00:00:00	2024-11-08T02:00:00	8	Radiación solar	0
160673	7	Sololá	719	Santiago Atitlán	14	Cerro de Oro	7	Julio	2023-07-15T00:00:00	2024-11-08T03:00:00	2	Temperatura media	19.8
160674	7	Sololá	719	Santiago Atitlán	14	Cerro de Oro	7	Julio	2023-07-15T00:00:00	2024-11-08T03:00:00	4	Temperatura máxima	20.8
160675	7	Sololá	719	Santiago Atitlán	14	Cerro de Oro	7	Julio	2023-07-15T00:00:00	2024-11-08T03:00:00	3	Temperatura mínima	19.8
160676	7	Sololá	719	Santiago Atitlán	14	Cerro de Oro	7	Julio	2023-07-15T00:00:00	2024-11-08T03:00:00	5	Humedad	70
160677	7	Sololá	719	Santiago Atitlán	14	Cerro de Oro	7	Julio	2023-07-15T00:00:00	2024-11-08T03:00:00	6	Velocidad del viento	4.8
160678	7	Sololá	719	Santiago Atitlán	14	Cerro de Oro	7	Julio	2023-07-15T00:00:00	2024-11-08T03:00:00	7	Dirección del viento	4.83
160679	7	Sololá	719	Santiago Atitlán	14	Cerro de Oro	7	Julio	2023-07-15T00:00:00	2024-11-08T03:00:00	1	Precipitación	0
160680	7	Sololá	719	Santiago Atitlán	14	Cerro de Oro	7	Julio	2023-07-15T00:00:00	2024-11-08T03:00:00	8	Radiación solar	0
160681	7	Sololá	719	Santiago Atitlán	14	Cerro de Oro	7	Julio	2023-07-15T00:00:00	2024-11-08T04:00:00	2	Temperatura media	20.1
160682	7	Sololá	719	Santiago Atitlán	14	Cerro de Oro	7	Julio	2023-07-15T00:00:00	2024-11-08T04:00:00	4	Temperatura máxima	20.2
160683	7	Sololá	719	Santiago Atitlán	14	Cerro de Oro	7	Julio	2023-07-15T00:00:00	2024-11-08T04:00:00	3	Temperatura mínima	19.8
160684	7	Sololá	719	Santiago Atitlán	14	Cerro de Oro	7	Julio	2023-07-15T00:00:00	2024-11-08T04:00:00	5	Humedad	71
160685	7	Sololá	719	Santiago Atitlán	14	Cerro de Oro	7	Julio	2023-07-15T00:00:00	2024-11-08T04:00:00	6	Velocidad del viento	4.8
160686	7	Sololá	719	Santiago Atitlán	14	Cerro de Oro	7	Julio	2023-07-15T00:00:00	2024-11-08T04:00:00	7	Dirección del viento	4.83
160687	7	Sololá	719	Santiago Atitlán	14	Cerro de Oro	7	Julio	2023-07-15T00:00:00	2024-11-08T04:00:00	1	Precipitación	0
160688	7	Sololá	719	Santiago Atitlán	14	Cerro de Oro	7	Julio	2023-07-15T00:00:00	2024-11-08T04:00:00	8	Radiación solar	0
160689	7	Sololá	719	Santiago Atitlán	14	Cerro de Oro	7	Julio	2023-07-15T00:00:00	2024-11-08T05:00:00	2	Temperatura media	20.3
160690	7	Sololá	719	Santiago Atitlán	14	Cerro de Oro	7	Julio	2023-07-15T00:00:00	2024-11-08T05:00:00	4	Temperatura máxima	20.3
160691	7	Sololá	719	Santiago Atitlán	14	Cerro de Oro	7	Julio	2023-07-15T00:00:00	2024-11-08T05:00:00	3	Temperatura mínima	19
160692	7	Sololá	719	Santiago Atitlán	14	Cerro de Oro	7	Julio	2023-07-15T00:00:00	2024-11-08T05:00:00	5	Humedad	70
160693	7	Sololá	719	Santiago Atitlán	14	Cerro de Oro	7	Julio	2023-07-15T00:00:00	2024-11-08T05:00:00	6	Velocidad del viento	4.8
160694	7	Sololá	719	Santiago Atitlán	14	Cerro de Oro	7	Julio	2023-07-15T00:00:00	2024-11-08T05:00:00	7	Dirección del viento	4.83
160695	7	Sololá	719	Santiago Atitlán	14	Cerro de Oro	7	Julio	2023-07-15T00:00:00	2024-11-08T05:00:00	1	Precipitación	0
160696	7	Sololá	719	Santiago Atitlán	14	Cerro de Oro	7	Julio	2023-07-15T00:00:00	2024-11-08T05:00:00	8	Radiación solar	0
160697	7	Sololá	719	Santiago Atitlán	14	Cerro de Oro	7	Julio	2023-07-15T00:00:00	2024-11-08T06:00:00	2	Temperatura media	19.1
160698	7	Sololá	719	Santiago Atitlán	14	Cerro de Oro	7	Julio	2023-07-15T00:00:00	2024-11-08T06:00:00	4	Temperatura máxima	20.3
160699	7	Sololá	719	Santiago Atitlán	14	Cerro de Oro	7	Julio	2023-07-15T00:00:00	2024-11-08T06:00:00	3	Temperatura mínima	19.1
160700	7	Sololá	719	Santiago Atitlán	14	Cerro de Oro	7	Julio	2023-07-15T00:00:00	2024-11-08T06:00:00	5	Humedad	75
160701	7	Sololá	719	Santiago Atitlán	14	Cerro de Oro	7	Julio	2023-07-15T00:00:00	2024-11-08T06:00:00	6	Velocidad del viento	4.8
160702	7	Sololá	719	Santiago Atitlán	14	Cerro de Oro	7	Julio	2023-07-15T00:00:00	2024-11-08T06:00:00	7	Dirección del viento	4.83
160703	7	Sololá	719	Santiago Atitlán	14	Cerro de Oro	7	Julio	2023-07-15T00:00:00	2024-11-08T06:00:00	1	Precipitación	0
160704	7	Sololá	719	Santiago Atitlán	14	Cerro de Oro	7	Julio	2023-07-15T00:00:00	2024-11-08T06:00:00	8	Radiación solar	3
160705	7	Sololá	719	Santiago Atitlán	14	Cerro de Oro	7	Julio	2023-07-15T00:00:00	2024-11-08T07:00:00	2	Temperatura media	19.6
160706	7	Sololá	719	Santiago Atitlán	14	Cerro de Oro	7	Julio	2023-07-15T00:00:00	2024-11-08T07:00:00	4	Temperatura máxima	19.7
160707	7	Sololá	719	Santiago Atitlán	14	Cerro de Oro	7	Julio	2023-07-15T00:00:00	2024-11-08T07:00:00	3	Temperatura mínima	19.1
160708	7	Sololá	719	Santiago Atitlán	14	Cerro de Oro	7	Julio	2023-07-15T00:00:00	2024-11-08T07:00:00	5	Humedad	74
160709	7	Sololá	719	Santiago Atitlán	14	Cerro de Oro	7	Julio	2023-07-15T00:00:00	2024-11-08T07:00:00	6	Velocidad del viento	3.2
160710	7	Sololá	719	Santiago Atitlán	14	Cerro de Oro	7	Julio	2023-07-15T00:00:00	2024-11-08T07:00:00	7	Dirección del viento	3.22
160711	7	Sololá	719	Santiago Atitlán	14	Cerro de Oro	7	Julio	2023-07-15T00:00:00	2024-11-08T07:00:00	1	Precipitación	0
160712	7	Sololá	719	Santiago Atitlán	14	Cerro de Oro	7	Julio	2023-07-15T00:00:00	2024-11-08T07:00:00	8	Radiación solar	48
160713	7	Sololá	719	Santiago Atitlán	14	Cerro de Oro	7	Julio	2023-07-15T00:00:00	2024-11-08T08:00:00	2	Temperatura media	20.8
160714	7	Sololá	719	Santiago Atitlán	14	Cerro de Oro	7	Julio	2023-07-15T00:00:00	2024-11-08T08:00:00	4	Temperatura máxima	20.8
160715	7	Sololá	719	Santiago Atitlán	14	Cerro de Oro	7	Julio	2023-07-15T00:00:00	2024-11-08T08:00:00	3	Temperatura mínima	19.6
160716	7	Sololá	719	Santiago Atitlán	14	Cerro de Oro	7	Julio	2023-07-15T00:00:00	2024-11-08T08:00:00	5	Humedad	72
160717	7	Sololá	719	Santiago Atitlán	14	Cerro de Oro	7	Julio	2023-07-15T00:00:00	2024-11-08T08:00:00	6	Velocidad del viento	3.2
160718	7	Sololá	719	Santiago Atitlán	14	Cerro de Oro	7	Julio	2023-07-15T00:00:00	2024-11-08T08:00:00	7	Dirección del viento	3.22
160719	7	Sololá	719	Santiago Atitlán	14	Cerro de Oro	7	Julio	2023-07-15T00:00:00	2024-11-08T08:00:00	1	Precipitación	0
160720	7	Sololá	719	Santiago Atitlán	14	Cerro de Oro	7	Julio	2023-07-15T00:00:00	2024-11-08T08:00:00	8	Radiación solar	160
160721	7	Sololá	719	Santiago Atitlán	14	Cerro de Oro	7	Julio	2023-07-15T00:00:00	2024-11-08T09:00:00	2	Temperatura media	22.4
160722	7	Sololá	719	Santiago Atitlán	14	Cerro de Oro	7	Julio	2023-07-15T00:00:00	2024-11-08T09:00:00	4	Temperatura máxima	22.4
160723	7	Sololá	719	Santiago Atitlán	14	Cerro de Oro	7	Julio	2023-07-15T00:00:00	2024-11-08T09:00:00	3	Temperatura mínima	20.8
160724	7	Sololá	719	Santiago Atitlán	14	Cerro de Oro	7	Julio	2023-07-15T00:00:00	2024-11-08T09:00:00	5	Humedad	68
160725	7	Sololá	719	Santiago Atitlán	14	Cerro de Oro	7	Julio	2023-07-15T00:00:00	2024-11-08T09:00:00	6	Velocidad del viento	3.2
160726	7	Sololá	719	Santiago Atitlán	14	Cerro de Oro	7	Julio	2023-07-15T00:00:00	2024-11-08T09:00:00	7	Dirección del viento	3.22
160727	7	Sololá	719	Santiago Atitlán	14	Cerro de Oro	7	Julio	2023-07-15T00:00:00	2024-11-08T09:00:00	1	Precipitación	0
160728	7	Sololá	719	Santiago Atitlán	14	Cerro de Oro	7	Julio	2023-07-15T00:00:00	2024-11-08T09:00:00	8	Radiación solar	290
160729	7	Sololá	719	Santiago Atitlán	14	Cerro de Oro	7	Julio	2023-07-15T00:00:00	2024-11-08T10:00:00	2	Temperatura media	24
160730	7	Sololá	719	Santiago Atitlán	14	Cerro de Oro	7	Julio	2023-07-15T00:00:00	2024-11-08T10:00:00	4	Temperatura máxima	24
160731	7	Sololá	719	Santiago Atitlán	14	Cerro de Oro	7	Julio	2023-07-15T00:00:00	2024-11-08T10:00:00	3	Temperatura mínima	22.4
160732	7	Sololá	719	Santiago Atitlán	14	Cerro de Oro	7	Julio	2023-07-15T00:00:00	2024-11-08T10:00:00	5	Humedad	58
160733	7	Sololá	719	Santiago Atitlán	14	Cerro de Oro	7	Julio	2023-07-15T00:00:00	2024-11-08T10:00:00	6	Velocidad del viento	3.2
160734	7	Sololá	719	Santiago Atitlán	14	Cerro de Oro	7	Julio	2023-07-15T00:00:00	2024-11-08T10:00:00	7	Dirección del viento	3.22
160735	7	Sololá	719	Santiago Atitlán	14	Cerro de Oro	7	Julio	2023-07-15T00:00:00	2024-11-08T10:00:00	1	Precipitación	0
160736	7	Sololá	719	Santiago Atitlán	14	Cerro de Oro	7	Julio	2023-07-15T00:00:00	2024-11-08T10:00:00	8	Radiación solar	430
160737	7	Sololá	719	Santiago Atitlán	14	Cerro de Oro	7	Julio	2023-07-15T00:00:00	2024-11-08T11:00:00	2	Temperatura media	25
160738	7	Sololá	719	Santiago Atitlán	14	Cerro de Oro	7	Julio	2023-07-15T00:00:00	2024-11-08T11:00:00	4	Temperatura máxima	25.1
160739	7	Sololá	719	Santiago Atitlán	14	Cerro de Oro	7	Julio	2023-07-15T00:00:00	2024-11-08T11:00:00	3	Temperatura mínima	24
160740	7	Sololá	719	Santiago Atitlán	14	Cerro de Oro	7	Julio	2023-07-15T00:00:00	2024-11-08T11:00:00	5	Humedad	56
160741	7	Sololá	719	Santiago Atitlán	14	Cerro de Oro	7	Julio	2023-07-15T00:00:00	2024-11-08T11:00:00	6	Velocidad del viento	3.2
160742	7	Sololá	719	Santiago Atitlán	14	Cerro de Oro	7	Julio	2023-07-15T00:00:00	2024-11-08T11:00:00	7	Dirección del viento	3.22
160743	7	Sololá	719	Santiago Atitlán	14	Cerro de Oro	7	Julio	2023-07-15T00:00:00	2024-11-08T11:00:00	1	Precipitación	0
160744	7	Sololá	719	Santiago Atitlán	14	Cerro de Oro	7	Julio	2023-07-15T00:00:00	2024-11-08T11:00:00	8	Radiación solar	729
160745	7	Sololá	719	Santiago Atitlán	14	Cerro de Oro	7	Julio	2023-07-15T00:00:00	2024-11-08T12:00:00	2	Temperatura media	23.7
160746	7	Sololá	719	Santiago Atitlán	14	Cerro de Oro	7	Julio	2023-07-15T00:00:00	2024-11-08T12:00:00	4	Temperatura máxima	25.7
160747	7	Sololá	719	Santiago Atitlán	14	Cerro de Oro	7	Julio	2023-07-15T00:00:00	2024-11-08T12:00:00	3	Temperatura mínima	23.7
160748	7	Sololá	719	Santiago Atitlán	14	Cerro de Oro	7	Julio	2023-07-15T00:00:00	2024-11-08T12:00:00	5	Humedad	71
160749	7	Sololá	719	Santiago Atitlán	14	Cerro de Oro	7	Julio	2023-07-15T00:00:00	2024-11-08T12:00:00	6	Velocidad del viento	9.7
160750	7	Sololá	719	Santiago Atitlán	14	Cerro de Oro	7	Julio	2023-07-15T00:00:00	2024-11-08T12:00:00	7	Dirección del viento	9.66
160751	7	Sololá	719	Santiago Atitlán	14	Cerro de Oro	7	Julio	2023-07-15T00:00:00	2024-11-08T12:00:00	1	Precipitación	0
160752	7	Sololá	719	Santiago Atitlán	14	Cerro de Oro	7	Julio	2023-07-15T00:00:00	2024-11-08T12:00:00	8	Radiación solar	648
160753	7	Sololá	719	Santiago Atitlán	14	Cerro de Oro	7	Julio	2023-07-15T00:00:00	2024-11-08T13:00:00	2	Temperatura media	23.6
160754	7	Sololá	719	Santiago Atitlán	14	Cerro de Oro	7	Julio	2023-07-15T00:00:00	2024-11-08T13:00:00	4	Temperatura máxima	23.6
160755	7	Sololá	719	Santiago Atitlán	14	Cerro de Oro	7	Julio	2023-07-15T00:00:00	2024-11-08T13:00:00	3	Temperatura mínima	22.2
160756	7	Sololá	719	Santiago Atitlán	14	Cerro de Oro	7	Julio	2023-07-15T00:00:00	2024-11-08T13:00:00	5	Humedad	69
160757	7	Sololá	719	Santiago Atitlán	14	Cerro de Oro	7	Julio	2023-07-15T00:00:00	2024-11-08T13:00:00	6	Velocidad del viento	12.9
160758	7	Sololá	719	Santiago Atitlán	14	Cerro de Oro	7	Julio	2023-07-15T00:00:00	2024-11-08T13:00:00	7	Dirección del viento	12.87
160759	7	Sololá	719	Santiago Atitlán	14	Cerro de Oro	7	Julio	2023-07-15T00:00:00	2024-11-08T13:00:00	1	Precipitación	0
160760	7	Sololá	719	Santiago Atitlán	14	Cerro de Oro	7	Julio	2023-07-15T00:00:00	2024-11-08T13:00:00	8	Radiación solar	401
160761	7	Sololá	719	Santiago Atitlán	14	Cerro de Oro	7	Julio	2023-07-15T00:00:00	2024-11-08T14:00:00	2	Temperatura media	23.2
160762	7	Sololá	719	Santiago Atitlán	14	Cerro de Oro	7	Julio	2023-07-15T00:00:00	2024-11-08T14:00:00	4	Temperatura máxima	25.5
160763	7	Sololá	719	Santiago Atitlán	14	Cerro de Oro	7	Julio	2023-07-15T00:00:00	2024-11-08T14:00:00	3	Temperatura mínima	23.1
160764	7	Sololá	719	Santiago Atitlán	14	Cerro de Oro	7	Julio	2023-07-15T00:00:00	2024-11-08T14:00:00	5	Humedad	76
160765	7	Sololá	719	Santiago Atitlán	14	Cerro de Oro	7	Julio	2023-07-15T00:00:00	2024-11-08T14:00:00	6	Velocidad del viento	9.7
160766	7	Sololá	719	Santiago Atitlán	14	Cerro de Oro	7	Julio	2023-07-15T00:00:00	2024-11-08T14:00:00	7	Dirección del viento	9.66
160767	7	Sololá	719	Santiago Atitlán	14	Cerro de Oro	7	Julio	2023-07-15T00:00:00	2024-11-08T14:00:00	1	Precipitación	0
160768	7	Sololá	719	Santiago Atitlán	14	Cerro de Oro	7	Julio	2023-07-15T00:00:00	2024-11-08T14:00:00	8	Radiación solar	634
160769	7	Sololá	719	Santiago Atitlán	14	Cerro de Oro	7	Julio	2023-07-15T00:00:00	2024-11-08T15:00:00	2	Temperatura media	23.3
160770	7	Sololá	719	Santiago Atitlán	14	Cerro de Oro	7	Julio	2023-07-15T00:00:00	2024-11-08T15:00:00	4	Temperatura máxima	23.8
160771	7	Sololá	719	Santiago Atitlán	14	Cerro de Oro	7	Julio	2023-07-15T00:00:00	2024-11-08T15:00:00	3	Temperatura mínima	22.7
160772	7	Sololá	719	Santiago Atitlán	14	Cerro de Oro	7	Julio	2023-07-15T00:00:00	2024-11-08T15:00:00	5	Humedad	76
160773	7	Sololá	719	Santiago Atitlán	14	Cerro de Oro	7	Julio	2023-07-15T00:00:00	2024-11-08T15:00:00	6	Velocidad del viento	11.3
160774	7	Sololá	719	Santiago Atitlán	14	Cerro de Oro	7	Julio	2023-07-15T00:00:00	2024-11-08T15:00:00	7	Dirección del viento	11.27
160775	7	Sololá	719	Santiago Atitlán	14	Cerro de Oro	7	Julio	2023-07-15T00:00:00	2024-11-08T15:00:00	1	Precipitación	0
160776	7	Sololá	719	Santiago Atitlán	14	Cerro de Oro	7	Julio	2023-07-15T00:00:00	2024-11-08T15:00:00	8	Radiación solar	741
160777	7	Sololá	719	Santiago Atitlán	14	Cerro de Oro	7	Julio	2023-07-15T00:00:00	2024-11-08T16:00:00	2	Temperatura media	22.8
160778	7	Sololá	719	Santiago Atitlán	14	Cerro de Oro	7	Julio	2023-07-15T00:00:00	2024-11-08T16:00:00	4	Temperatura máxima	23.6
160779	7	Sololá	719	Santiago Atitlán	14	Cerro de Oro	7	Julio	2023-07-15T00:00:00	2024-11-08T16:00:00	3	Temperatura mínima	22.8
160780	7	Sololá	719	Santiago Atitlán	14	Cerro de Oro	7	Julio	2023-07-15T00:00:00	2024-11-08T16:00:00	5	Humedad	76
160781	7	Sololá	719	Santiago Atitlán	14	Cerro de Oro	7	Julio	2023-07-15T00:00:00	2024-11-08T16:00:00	6	Velocidad del viento	8
160782	7	Sololá	719	Santiago Atitlán	14	Cerro de Oro	7	Julio	2023-07-15T00:00:00	2024-11-08T16:00:00	7	Dirección del viento	8.05
160783	7	Sololá	719	Santiago Atitlán	14	Cerro de Oro	7	Julio	2023-07-15T00:00:00	2024-11-08T16:00:00	1	Precipitación	0
160784	7	Sololá	719	Santiago Atitlán	14	Cerro de Oro	7	Julio	2023-07-15T00:00:00	2024-11-08T16:00:00	8	Radiación solar	555
160785	7	Sololá	719	Santiago Atitlán	14	Cerro de Oro	7	Julio	2023-07-15T00:00:00	2024-11-08T17:00:00	2	Temperatura media	21.3
160786	7	Sololá	719	Santiago Atitlán	14	Cerro de Oro	7	Julio	2023-07-15T00:00:00	2024-11-08T17:00:00	4	Temperatura máxima	22.8
160787	7	Sololá	719	Santiago Atitlán	14	Cerro de Oro	7	Julio	2023-07-15T00:00:00	2024-11-08T17:00:00	3	Temperatura mínima	21.2
160788	7	Sololá	719	Santiago Atitlán	14	Cerro de Oro	7	Julio	2023-07-15T00:00:00	2024-11-08T17:00:00	5	Humedad	81
160789	7	Sololá	719	Santiago Atitlán	14	Cerro de Oro	7	Julio	2023-07-15T00:00:00	2024-11-08T17:00:00	6	Velocidad del viento	9.7
160790	7	Sololá	719	Santiago Atitlán	14	Cerro de Oro	7	Julio	2023-07-15T00:00:00	2024-11-08T17:00:00	7	Dirección del viento	9.66
160791	7	Sololá	719	Santiago Atitlán	14	Cerro de Oro	7	Julio	2023-07-15T00:00:00	2024-11-08T17:00:00	1	Precipitación	0
160792	7	Sololá	719	Santiago Atitlán	14	Cerro de Oro	7	Julio	2023-07-15T00:00:00	2024-11-08T17:00:00	8	Radiación solar	275
160793	7	Sololá	719	Santiago Atitlán	14	Cerro de Oro	7	Julio	2023-07-15T00:00:00	2024-11-08T18:00:00	2	Temperatura media	21.3
160794	7	Sololá	719	Santiago Atitlán	14	Cerro de Oro	7	Julio	2023-07-15T00:00:00	2024-11-08T18:00:00	4	Temperatura máxima	21.8
160795	7	Sololá	719	Santiago Atitlán	14	Cerro de Oro	7	Julio	2023-07-15T00:00:00	2024-11-08T18:00:00	3	Temperatura mínima	21.3
160796	7	Sololá	719	Santiago Atitlán	14	Cerro de Oro	7	Julio	2023-07-15T00:00:00	2024-11-08T18:00:00	5	Humedad	81
160797	7	Sololá	719	Santiago Atitlán	14	Cerro de Oro	7	Julio	2023-07-15T00:00:00	2024-11-08T18:00:00	6	Velocidad del viento	4.8
160798	7	Sololá	719	Santiago Atitlán	14	Cerro de Oro	7	Julio	2023-07-15T00:00:00	2024-11-08T18:00:00	7	Dirección del viento	4.83
160799	7	Sololá	719	Santiago Atitlán	14	Cerro de Oro	7	Julio	2023-07-15T00:00:00	2024-11-08T18:00:00	1	Precipitación	0
160800	7	Sololá	719	Santiago Atitlán	14	Cerro de Oro	7	Julio	2023-07-15T00:00:00	2024-11-08T18:00:00	8	Radiación solar	134
160801	7	Sololá	719	Santiago Atitlán	14	Cerro de Oro	7	Julio	2023-07-15T00:00:00	2024-11-08T19:00:00	2	Temperatura media	20.6
160802	7	Sololá	719	Santiago Atitlán	14	Cerro de Oro	7	Julio	2023-07-15T00:00:00	2024-11-08T19:00:00	4	Temperatura máxima	21.3
160803	7	Sololá	719	Santiago Atitlán	14	Cerro de Oro	7	Julio	2023-07-15T00:00:00	2024-11-08T19:00:00	3	Temperatura mínima	20.6
160804	7	Sololá	719	Santiago Atitlán	14	Cerro de Oro	7	Julio	2023-07-15T00:00:00	2024-11-08T19:00:00	5	Humedad	82
160805	7	Sololá	719	Santiago Atitlán	14	Cerro de Oro	7	Julio	2023-07-15T00:00:00	2024-11-08T19:00:00	6	Velocidad del viento	3.2
160806	7	Sololá	719	Santiago Atitlán	14	Cerro de Oro	7	Julio	2023-07-15T00:00:00	2024-11-08T19:00:00	7	Dirección del viento	3.22
160807	7	Sololá	719	Santiago Atitlán	14	Cerro de Oro	7	Julio	2023-07-15T00:00:00	2024-11-08T19:00:00	1	Precipitación	0
160808	7	Sololá	719	Santiago Atitlán	14	Cerro de Oro	7	Julio	2023-07-15T00:00:00	2024-11-08T19:00:00	8	Radiación solar	0
160809	7	Sololá	719	Santiago Atitlán	14	Cerro de Oro	7	Julio	2023-07-15T00:00:00	2024-11-08T20:00:00	2	Temperatura media	20.5
160810	7	Sololá	719	Santiago Atitlán	14	Cerro de Oro	7	Julio	2023-07-15T00:00:00	2024-11-08T20:00:00	4	Temperatura máxima	20.7
160811	7	Sololá	719	Santiago Atitlán	14	Cerro de Oro	7	Julio	2023-07-15T00:00:00	2024-11-08T20:00:00	3	Temperatura mínima	20.1
160812	7	Sololá	719	Santiago Atitlán	14	Cerro de Oro	7	Julio	2023-07-15T00:00:00	2024-11-08T20:00:00	5	Humedad	80
160813	7	Sololá	719	Santiago Atitlán	14	Cerro de Oro	7	Julio	2023-07-15T00:00:00	2024-11-08T20:00:00	6	Velocidad del viento	3.2
160814	7	Sololá	719	Santiago Atitlán	14	Cerro de Oro	7	Julio	2023-07-15T00:00:00	2024-11-08T20:00:00	7	Dirección del viento	3.22
160815	7	Sololá	719	Santiago Atitlán	14	Cerro de Oro	7	Julio	2023-07-15T00:00:00	2024-11-08T20:00:00	1	Precipitación	0
160816	7	Sololá	719	Santiago Atitlán	14	Cerro de Oro	7	Julio	2023-07-15T00:00:00	2024-11-08T20:00:00	8	Radiación solar	0
160817	7	Sololá	719	Santiago Atitlán	14	Cerro de Oro	7	Julio	2023-07-15T00:00:00	2024-11-08T21:00:00	2	Temperatura media	21.8
160818	7	Sololá	719	Santiago Atitlán	14	Cerro de Oro	7	Julio	2023-07-15T00:00:00	2024-11-08T21:00:00	4	Temperatura máxima	22.1
160819	7	Sololá	719	Santiago Atitlán	14	Cerro de Oro	7	Julio	2023-07-15T00:00:00	2024-11-08T21:00:00	3	Temperatura mínima	20.5
160820	7	Sololá	719	Santiago Atitlán	14	Cerro de Oro	7	Julio	2023-07-15T00:00:00	2024-11-08T21:00:00	5	Humedad	73
160821	7	Sololá	719	Santiago Atitlán	14	Cerro de Oro	7	Julio	2023-07-15T00:00:00	2024-11-08T21:00:00	6	Velocidad del viento	4.8
160822	7	Sololá	719	Santiago Atitlán	14	Cerro de Oro	7	Julio	2023-07-15T00:00:00	2024-11-08T21:00:00	7	Dirección del viento	4.83
160823	7	Sololá	719	Santiago Atitlán	14	Cerro de Oro	7	Julio	2023-07-15T00:00:00	2024-11-08T21:00:00	1	Precipitación	0
160824	7	Sololá	719	Santiago Atitlán	14	Cerro de Oro	7	Julio	2023-07-15T00:00:00	2024-11-08T21:00:00	8	Radiación solar	0
160825	7	Sololá	719	Santiago Atitlán	14	Cerro de Oro	7	Julio	2023-07-15T00:00:00	2024-11-08T22:00:00	2	Temperatura media	21.3
160826	7	Sololá	719	Santiago Atitlán	14	Cerro de Oro	7	Julio	2023-07-15T00:00:00	2024-11-08T22:00:00	4	Temperatura máxima	21.8
160827	7	Sololá	719	Santiago Atitlán	14	Cerro de Oro	7	Julio	2023-07-15T00:00:00	2024-11-08T22:00:00	3	Temperatura mínima	21.3
160828	7	Sololá	719	Santiago Atitlán	14	Cerro de Oro	7	Julio	2023-07-15T00:00:00	2024-11-08T22:00:00	5	Humedad	72
160829	7	Sololá	719	Santiago Atitlán	14	Cerro de Oro	7	Julio	2023-07-15T00:00:00	2024-11-08T22:00:00	6	Velocidad del viento	6.4
160830	7	Sololá	719	Santiago Atitlán	14	Cerro de Oro	7	Julio	2023-07-15T00:00:00	2024-11-08T22:00:00	7	Dirección del viento	6.44
160831	7	Sololá	719	Santiago Atitlán	14	Cerro de Oro	7	Julio	2023-07-15T00:00:00	2024-11-08T22:00:00	1	Precipitación	0
160832	7	Sololá	719	Santiago Atitlán	14	Cerro de Oro	7	Julio	2023-07-15T00:00:00	2024-11-08T22:00:00	8	Radiación solar	0
160833	7	Sololá	719	Santiago Atitlán	14	Cerro de Oro	7	Julio	2023-07-15T00:00:00	2024-11-08T23:00:00	2	Temperatura media	20.8
160834	7	Sololá	719	Santiago Atitlán	14	Cerro de Oro	7	Julio	2023-07-15T00:00:00	2024-11-08T23:00:00	4	Temperatura máxima	21.3
160835	7	Sololá	719	Santiago Atitlán	14	Cerro de Oro	7	Julio	2023-07-15T00:00:00	2024-11-08T23:00:00	3	Temperatura mínima	20.6
160836	7	Sololá	719	Santiago Atitlán	14	Cerro de Oro	7	Julio	2023-07-15T00:00:00	2024-11-08T23:00:00	5	Humedad	72
160837	7	Sololá	719	Santiago Atitlán	14	Cerro de Oro	7	Julio	2023-07-15T00:00:00	2024-11-08T23:00:00	6	Velocidad del viento	6.4
160838	7	Sololá	719	Santiago Atitlán	14	Cerro de Oro	7	Julio	2023-07-15T00:00:00	2024-11-08T23:00:00	7	Dirección del viento	6.44
160839	7	Sololá	719	Santiago Atitlán	14	Cerro de Oro	7	Julio	2023-07-15T00:00:00	2024-11-08T23:00:00	1	Precipitación	0
160840	7	Sololá	719	Santiago Atitlán	14	Cerro de Oro	7	Julio	2023-07-15T00:00:00	2024-11-08T23:00:00	8	Radiación solar	0
160841	7	Sololá	719	Santiago Atitlán	14	Cerro de Oro	7	Julio	2023-07-16T00:00:00	2024-11-08T00:00:00	2	Temperatura media	20
160842	7	Sololá	719	Santiago Atitlán	14	Cerro de Oro	7	Julio	2023-07-16T00:00:00	2024-11-08T00:00:00	4	Temperatura máxima	20.9
160843	7	Sololá	719	Santiago Atitlán	14	Cerro de Oro	7	Julio	2023-07-16T00:00:00	2024-11-08T00:00:00	3	Temperatura mínima	20
160844	7	Sololá	719	Santiago Atitlán	14	Cerro de Oro	7	Julio	2023-07-16T00:00:00	2024-11-08T00:00:00	5	Humedad	74
160845	7	Sololá	719	Santiago Atitlán	14	Cerro de Oro	7	Julio	2023-07-16T00:00:00	2024-11-08T00:00:00	6	Velocidad del viento	4.8
160846	7	Sololá	719	Santiago Atitlán	14	Cerro de Oro	7	Julio	2023-07-16T00:00:00	2024-11-08T00:00:00	7	Dirección del viento	4.83
160847	7	Sololá	719	Santiago Atitlán	14	Cerro de Oro	7	Julio	2023-07-16T00:00:00	2024-11-08T00:00:00	1	Precipitación	0
160848	7	Sololá	719	Santiago Atitlán	14	Cerro de Oro	7	Julio	2023-07-16T00:00:00	2024-11-08T00:00:00	8	Radiación solar	0
160849	7	Sololá	719	Santiago Atitlán	14	Cerro de Oro	7	Julio	2023-07-16T00:00:00	2024-11-08T01:00:00	2	Temperatura media	20.3
160850	7	Sololá	719	Santiago Atitlán	14	Cerro de Oro	7	Julio	2023-07-16T00:00:00	2024-11-08T01:00:00	4	Temperatura máxima	20.3
160851	7	Sololá	719	Santiago Atitlán	14	Cerro de Oro	7	Julio	2023-07-16T00:00:00	2024-11-08T01:00:00	3	Temperatura mínima	19.8
160852	7	Sololá	719	Santiago Atitlán	14	Cerro de Oro	7	Julio	2023-07-16T00:00:00	2024-11-08T01:00:00	5	Humedad	73
160853	7	Sololá	719	Santiago Atitlán	14	Cerro de Oro	7	Julio	2023-07-16T00:00:00	2024-11-08T01:00:00	6	Velocidad del viento	4.8
160854	7	Sololá	719	Santiago Atitlán	14	Cerro de Oro	7	Julio	2023-07-16T00:00:00	2024-11-08T01:00:00	7	Dirección del viento	4.83
160855	7	Sololá	719	Santiago Atitlán	14	Cerro de Oro	7	Julio	2023-07-16T00:00:00	2024-11-08T01:00:00	1	Precipitación	0
160856	7	Sololá	719	Santiago Atitlán	14	Cerro de Oro	7	Julio	2023-07-16T00:00:00	2024-11-08T01:00:00	8	Radiación solar	0
160857	7	Sololá	719	Santiago Atitlán	14	Cerro de Oro	7	Julio	2023-07-16T00:00:00	2024-11-08T02:00:00	2	Temperatura media	20.6
160858	7	Sololá	719	Santiago Atitlán	14	Cerro de Oro	7	Julio	2023-07-16T00:00:00	2024-11-08T02:00:00	4	Temperatura máxima	20.6
160859	7	Sololá	719	Santiago Atitlán	14	Cerro de Oro	7	Julio	2023-07-16T00:00:00	2024-11-08T02:00:00	3	Temperatura mínima	20.2
160860	7	Sololá	719	Santiago Atitlán	14	Cerro de Oro	7	Julio	2023-07-16T00:00:00	2024-11-08T02:00:00	5	Humedad	75
160861	7	Sololá	719	Santiago Atitlán	14	Cerro de Oro	7	Julio	2023-07-16T00:00:00	2024-11-08T02:00:00	6	Velocidad del viento	3.2
160862	7	Sololá	719	Santiago Atitlán	14	Cerro de Oro	7	Julio	2023-07-16T00:00:00	2024-11-08T02:00:00	7	Dirección del viento	3.22
160863	7	Sololá	719	Santiago Atitlán	14	Cerro de Oro	7	Julio	2023-07-16T00:00:00	2024-11-08T02:00:00	1	Precipitación	0
160864	7	Sololá	719	Santiago Atitlán	14	Cerro de Oro	7	Julio	2023-07-16T00:00:00	2024-11-08T02:00:00	8	Radiación solar	0
160865	7	Sololá	719	Santiago Atitlán	14	Cerro de Oro	7	Julio	2023-07-16T00:00:00	2024-11-08T03:00:00	2	Temperatura media	19.4
160866	7	Sololá	719	Santiago Atitlán	14	Cerro de Oro	7	Julio	2023-07-16T00:00:00	2024-11-08T03:00:00	4	Temperatura máxima	20.7
160867	7	Sololá	719	Santiago Atitlán	14	Cerro de Oro	7	Julio	2023-07-16T00:00:00	2024-11-08T03:00:00	3	Temperatura mínima	18.9
160868	7	Sololá	719	Santiago Atitlán	14	Cerro de Oro	7	Julio	2023-07-16T00:00:00	2024-11-08T03:00:00	5	Humedad	77
160869	7	Sololá	719	Santiago Atitlán	14	Cerro de Oro	7	Julio	2023-07-16T00:00:00	2024-11-08T03:00:00	6	Velocidad del viento	6.4
160870	7	Sololá	719	Santiago Atitlán	14	Cerro de Oro	7	Julio	2023-07-16T00:00:00	2024-11-08T03:00:00	7	Dirección del viento	6.44
160871	7	Sololá	719	Santiago Atitlán	14	Cerro de Oro	7	Julio	2023-07-16T00:00:00	2024-11-08T03:00:00	1	Precipitación	0
160872	7	Sololá	719	Santiago Atitlán	14	Cerro de Oro	7	Julio	2023-07-16T00:00:00	2024-11-08T03:00:00	8	Radiación solar	0
160873	7	Sololá	719	Santiago Atitlán	14	Cerro de Oro	7	Julio	2023-07-16T00:00:00	2024-11-08T04:00:00	2	Temperatura media	19
160874	7	Sololá	719	Santiago Atitlán	14	Cerro de Oro	7	Julio	2023-07-16T00:00:00	2024-11-08T04:00:00	4	Temperatura máxima	19.7
160875	7	Sololá	719	Santiago Atitlán	14	Cerro de Oro	7	Julio	2023-07-16T00:00:00	2024-11-08T04:00:00	3	Temperatura mínima	19
160876	7	Sololá	719	Santiago Atitlán	14	Cerro de Oro	7	Julio	2023-07-16T00:00:00	2024-11-08T04:00:00	5	Humedad	78
160877	7	Sololá	719	Santiago Atitlán	14	Cerro de Oro	7	Julio	2023-07-16T00:00:00	2024-11-08T04:00:00	6	Velocidad del viento	4.8
160878	7	Sololá	719	Santiago Atitlán	14	Cerro de Oro	7	Julio	2023-07-16T00:00:00	2024-11-08T04:00:00	7	Dirección del viento	4.83
160879	7	Sololá	719	Santiago Atitlán	14	Cerro de Oro	7	Julio	2023-07-16T00:00:00	2024-11-08T04:00:00	1	Precipitación	0
160880	7	Sololá	719	Santiago Atitlán	14	Cerro de Oro	7	Julio	2023-07-16T00:00:00	2024-11-08T04:00:00	8	Radiación solar	0
160881	7	Sololá	719	Santiago Atitlán	14	Cerro de Oro	7	Julio	2023-07-16T00:00:00	2024-11-08T05:00:00	2	Temperatura media	18.9
160882	7	Sololá	719	Santiago Atitlán	14	Cerro de Oro	7	Julio	2023-07-16T00:00:00	2024-11-08T05:00:00	4	Temperatura máxima	19.1
160883	7	Sololá	719	Santiago Atitlán	14	Cerro de Oro	7	Julio	2023-07-16T00:00:00	2024-11-08T05:00:00	3	Temperatura mínima	18.8
160884	7	Sololá	719	Santiago Atitlán	14	Cerro de Oro	7	Julio	2023-07-16T00:00:00	2024-11-08T05:00:00	5	Humedad	79
160885	7	Sololá	719	Santiago Atitlán	14	Cerro de Oro	7	Julio	2023-07-16T00:00:00	2024-11-08T05:00:00	6	Velocidad del viento	6.4
160886	7	Sololá	719	Santiago Atitlán	14	Cerro de Oro	7	Julio	2023-07-16T00:00:00	2024-11-08T05:00:00	7	Dirección del viento	6.44
160887	7	Sololá	719	Santiago Atitlán	14	Cerro de Oro	7	Julio	2023-07-16T00:00:00	2024-11-08T05:00:00	1	Precipitación	0
160888	7	Sololá	719	Santiago Atitlán	14	Cerro de Oro	7	Julio	2023-07-16T00:00:00	2024-11-08T05:00:00	8	Radiación solar	0
160889	7	Sololá	719	Santiago Atitlán	14	Cerro de Oro	7	Julio	2023-07-16T00:00:00	2024-11-08T06:00:00	2	Temperatura media	19.3
160890	7	Sololá	719	Santiago Atitlán	14	Cerro de Oro	7	Julio	2023-07-16T00:00:00	2024-11-08T06:00:00	4	Temperatura máxima	19.3
160891	7	Sololá	719	Santiago Atitlán	14	Cerro de Oro	7	Julio	2023-07-16T00:00:00	2024-11-08T06:00:00	3	Temperatura mínima	18.8
160892	7	Sololá	719	Santiago Atitlán	14	Cerro de Oro	7	Julio	2023-07-16T00:00:00	2024-11-08T06:00:00	5	Humedad	75
160893	7	Sololá	719	Santiago Atitlán	14	Cerro de Oro	7	Julio	2023-07-16T00:00:00	2024-11-08T06:00:00	6	Velocidad del viento	4.8
160894	7	Sololá	719	Santiago Atitlán	14	Cerro de Oro	7	Julio	2023-07-16T00:00:00	2024-11-08T06:00:00	7	Dirección del viento	4.83
160895	7	Sololá	719	Santiago Atitlán	14	Cerro de Oro	7	Julio	2023-07-16T00:00:00	2024-11-08T06:00:00	1	Precipitación	0
160896	7	Sololá	719	Santiago Atitlán	14	Cerro de Oro	7	Julio	2023-07-16T00:00:00	2024-11-08T06:00:00	8	Radiación solar	3
160897	7	Sololá	719	Santiago Atitlán	14	Cerro de Oro	7	Julio	2023-07-16T00:00:00	2024-11-08T07:00:00	2	Temperatura media	21.4
160898	7	Sololá	719	Santiago Atitlán	14	Cerro de Oro	7	Julio	2023-07-16T00:00:00	2024-11-08T07:00:00	4	Temperatura máxima	21.4
160899	7	Sololá	719	Santiago Atitlán	14	Cerro de Oro	7	Julio	2023-07-16T00:00:00	2024-11-08T07:00:00	3	Temperatura mínima	19.3
160900	7	Sololá	719	Santiago Atitlán	14	Cerro de Oro	7	Julio	2023-07-16T00:00:00	2024-11-08T07:00:00	5	Humedad	70
160901	7	Sololá	719	Santiago Atitlán	14	Cerro de Oro	7	Julio	2023-07-16T00:00:00	2024-11-08T07:00:00	6	Velocidad del viento	4.8
160902	7	Sololá	719	Santiago Atitlán	14	Cerro de Oro	7	Julio	2023-07-16T00:00:00	2024-11-08T07:00:00	7	Dirección del viento	4.83
160903	7	Sololá	719	Santiago Atitlán	14	Cerro de Oro	7	Julio	2023-07-16T00:00:00	2024-11-08T07:00:00	1	Precipitación	0
160904	7	Sololá	719	Santiago Atitlán	14	Cerro de Oro	7	Julio	2023-07-16T00:00:00	2024-11-08T07:00:00	8	Radiación solar	68
160905	7	Sololá	719	Santiago Atitlán	14	Cerro de Oro	7	Julio	2023-07-16T00:00:00	2024-11-08T08:00:00	2	Temperatura media	21.9
160906	7	Sololá	719	Santiago Atitlán	14	Cerro de Oro	7	Julio	2023-07-16T00:00:00	2024-11-08T08:00:00	4	Temperatura máxima	22.1
160907	7	Sololá	719	Santiago Atitlán	14	Cerro de Oro	7	Julio	2023-07-16T00:00:00	2024-11-08T08:00:00	3	Temperatura mínima	21.4
160908	7	Sololá	719	Santiago Atitlán	14	Cerro de Oro	7	Julio	2023-07-16T00:00:00	2024-11-08T08:00:00	5	Humedad	66
160909	7	Sololá	719	Santiago Atitlán	14	Cerro de Oro	7	Julio	2023-07-16T00:00:00	2024-11-08T08:00:00	6	Velocidad del viento	16.1
160910	7	Sololá	719	Santiago Atitlán	14	Cerro de Oro	7	Julio	2023-07-16T00:00:00	2024-11-08T08:00:00	7	Dirección del viento	16.09
160911	7	Sololá	719	Santiago Atitlán	14	Cerro de Oro	7	Julio	2023-07-16T00:00:00	2024-11-08T08:00:00	1	Precipitación	0
160912	7	Sololá	719	Santiago Atitlán	14	Cerro de Oro	7	Julio	2023-07-16T00:00:00	2024-11-08T08:00:00	8	Radiación solar	170
160913	7	Sololá	719	Santiago Atitlán	14	Cerro de Oro	7	Julio	2023-07-16T00:00:00	2024-11-08T09:00:00	2	Temperatura media	21.9
160914	7	Sololá	719	Santiago Atitlán	14	Cerro de Oro	7	Julio	2023-07-16T00:00:00	2024-11-08T09:00:00	4	Temperatura máxima	22.1
160915	7	Sololá	719	Santiago Atitlán	14	Cerro de Oro	7	Julio	2023-07-16T00:00:00	2024-11-08T09:00:00	3	Temperatura mínima	21.8
160916	7	Sololá	719	Santiago Atitlán	14	Cerro de Oro	7	Julio	2023-07-16T00:00:00	2024-11-08T09:00:00	5	Humedad	67
160917	7	Sololá	719	Santiago Atitlán	14	Cerro de Oro	7	Julio	2023-07-16T00:00:00	2024-11-08T09:00:00	6	Velocidad del viento	14.5
160918	7	Sololá	719	Santiago Atitlán	14	Cerro de Oro	7	Julio	2023-07-16T00:00:00	2024-11-08T09:00:00	7	Dirección del viento	14.48
160919	7	Sololá	719	Santiago Atitlán	14	Cerro de Oro	7	Julio	2023-07-16T00:00:00	2024-11-08T09:00:00	1	Precipitación	0
160920	7	Sololá	719	Santiago Atitlán	14	Cerro de Oro	7	Julio	2023-07-16T00:00:00	2024-11-08T09:00:00	8	Radiación solar	164
160921	7	Sololá	719	Santiago Atitlán	14	Cerro de Oro	7	Julio	2023-07-16T00:00:00	2024-11-08T10:00:00	2	Temperatura media	22.4
160922	7	Sololá	719	Santiago Atitlán	14	Cerro de Oro	7	Julio	2023-07-16T00:00:00	2024-11-08T10:00:00	4	Temperatura máxima	22.4
160923	7	Sololá	719	Santiago Atitlán	14	Cerro de Oro	7	Julio	2023-07-16T00:00:00	2024-11-08T10:00:00	3	Temperatura mínima	21.9
160924	7	Sololá	719	Santiago Atitlán	14	Cerro de Oro	7	Julio	2023-07-16T00:00:00	2024-11-08T10:00:00	5	Humedad	69
160925	7	Sololá	719	Santiago Atitlán	14	Cerro de Oro	7	Julio	2023-07-16T00:00:00	2024-11-08T10:00:00	6	Velocidad del viento	17.7
160926	7	Sololá	719	Santiago Atitlán	14	Cerro de Oro	7	Julio	2023-07-16T00:00:00	2024-11-08T10:00:00	7	Dirección del viento	17.7
160927	7	Sololá	719	Santiago Atitlán	14	Cerro de Oro	7	Julio	2023-07-16T00:00:00	2024-11-08T10:00:00	1	Precipitación	0
160928	7	Sololá	719	Santiago Atitlán	14	Cerro de Oro	7	Julio	2023-07-16T00:00:00	2024-11-08T10:00:00	8	Radiación solar	197
160929	7	Sololá	719	Santiago Atitlán	14	Cerro de Oro	7	Julio	2023-07-16T00:00:00	2024-11-08T11:00:00	2	Temperatura media	24.1
160930	7	Sololá	719	Santiago Atitlán	14	Cerro de Oro	7	Julio	2023-07-16T00:00:00	2024-11-08T11:00:00	4	Temperatura máxima	24.1
160931	7	Sololá	719	Santiago Atitlán	14	Cerro de Oro	7	Julio	2023-07-16T00:00:00	2024-11-08T11:00:00	3	Temperatura mínima	22.4
160932	7	Sololá	719	Santiago Atitlán	14	Cerro de Oro	7	Julio	2023-07-16T00:00:00	2024-11-08T11:00:00	5	Humedad	65
160933	7	Sololá	719	Santiago Atitlán	14	Cerro de Oro	7	Julio	2023-07-16T00:00:00	2024-11-08T11:00:00	6	Velocidad del viento	12.9
160934	7	Sololá	719	Santiago Atitlán	14	Cerro de Oro	7	Julio	2023-07-16T00:00:00	2024-11-08T11:00:00	7	Dirección del viento	12.87
160935	7	Sololá	719	Santiago Atitlán	14	Cerro de Oro	7	Julio	2023-07-16T00:00:00	2024-11-08T11:00:00	1	Precipitación	0
160936	7	Sololá	719	Santiago Atitlán	14	Cerro de Oro	7	Julio	2023-07-16T00:00:00	2024-11-08T11:00:00	8	Radiación solar	384
160937	7	Sololá	719	Santiago Atitlán	14	Cerro de Oro	7	Julio	2023-07-16T00:00:00	2024-11-08T12:00:00	2	Temperatura media	24.5
160938	7	Sololá	719	Santiago Atitlán	14	Cerro de Oro	7	Julio	2023-07-16T00:00:00	2024-11-08T12:00:00	4	Temperatura máxima	24.6
160939	7	Sololá	719	Santiago Atitlán	14	Cerro de Oro	7	Julio	2023-07-16T00:00:00	2024-11-08T12:00:00	3	Temperatura mínima	23.7
160940	7	Sololá	719	Santiago Atitlán	14	Cerro de Oro	7	Julio	2023-07-16T00:00:00	2024-11-08T12:00:00	5	Humedad	62
160941	7	Sololá	719	Santiago Atitlán	14	Cerro de Oro	7	Julio	2023-07-16T00:00:00	2024-11-08T12:00:00	6	Velocidad del viento	8
160942	7	Sololá	719	Santiago Atitlán	14	Cerro de Oro	7	Julio	2023-07-16T00:00:00	2024-11-08T12:00:00	7	Dirección del viento	8.05
160943	7	Sololá	719	Santiago Atitlán	14	Cerro de Oro	7	Julio	2023-07-16T00:00:00	2024-11-08T12:00:00	1	Precipitación	0
160944	7	Sololá	719	Santiago Atitlán	14	Cerro de Oro	7	Julio	2023-07-16T00:00:00	2024-11-08T12:00:00	8	Radiación solar	594
160945	7	Sololá	719	Santiago Atitlán	14	Cerro de Oro	7	Julio	2023-07-16T00:00:00	2024-11-08T13:00:00	2	Temperatura media	24.8
160946	7	Sololá	719	Santiago Atitlán	14	Cerro de Oro	7	Julio	2023-07-16T00:00:00	2024-11-08T13:00:00	4	Temperatura máxima	25.4
160947	7	Sololá	719	Santiago Atitlán	14	Cerro de Oro	7	Julio	2023-07-16T00:00:00	2024-11-08T13:00:00	3	Temperatura mínima	24.4
160948	7	Sololá	719	Santiago Atitlán	14	Cerro de Oro	7	Julio	2023-07-16T00:00:00	2024-11-08T13:00:00	5	Humedad	61
160949	7	Sololá	719	Santiago Atitlán	14	Cerro de Oro	7	Julio	2023-07-16T00:00:00	2024-11-08T13:00:00	6	Velocidad del viento	11.3
160950	7	Sololá	719	Santiago Atitlán	14	Cerro de Oro	7	Julio	2023-07-16T00:00:00	2024-11-08T13:00:00	7	Dirección del viento	11.27
160951	7	Sololá	719	Santiago Atitlán	14	Cerro de Oro	7	Julio	2023-07-16T00:00:00	2024-11-08T13:00:00	1	Precipitación	0
160952	7	Sololá	719	Santiago Atitlán	14	Cerro de Oro	7	Julio	2023-07-16T00:00:00	2024-11-08T13:00:00	8	Radiación solar	770
160953	7	Sololá	719	Santiago Atitlán	14	Cerro de Oro	7	Julio	2023-07-16T00:00:00	2024-11-08T14:00:00	2	Temperatura media	25.3
160954	7	Sololá	719	Santiago Atitlán	14	Cerro de Oro	7	Julio	2023-07-16T00:00:00	2024-11-08T14:00:00	4	Temperatura máxima	25.3
160955	7	Sololá	719	Santiago Atitlán	14	Cerro de Oro	7	Julio	2023-07-16T00:00:00	2024-11-08T14:00:00	3	Temperatura mínima	24.4
160956	7	Sololá	719	Santiago Atitlán	14	Cerro de Oro	7	Julio	2023-07-16T00:00:00	2024-11-08T14:00:00	5	Humedad	62
160957	7	Sololá	719	Santiago Atitlán	14	Cerro de Oro	7	Julio	2023-07-16T00:00:00	2024-11-08T14:00:00	6	Velocidad del viento	9.7
160958	7	Sololá	719	Santiago Atitlán	14	Cerro de Oro	7	Julio	2023-07-16T00:00:00	2024-11-08T14:00:00	7	Dirección del viento	9.66
160959	7	Sololá	719	Santiago Atitlán	14	Cerro de Oro	7	Julio	2023-07-16T00:00:00	2024-11-08T14:00:00	1	Precipitación	0
160960	7	Sololá	719	Santiago Atitlán	14	Cerro de Oro	7	Julio	2023-07-16T00:00:00	2024-11-08T14:00:00	8	Radiación solar	563
160961	7	Sololá	719	Santiago Atitlán	14	Cerro de Oro	7	Julio	2023-07-16T00:00:00	2024-11-08T15:00:00	2	Temperatura media	23.4
160962	7	Sololá	719	Santiago Atitlán	14	Cerro de Oro	7	Julio	2023-07-16T00:00:00	2024-11-08T15:00:00	4	Temperatura máxima	25.9
160963	7	Sololá	719	Santiago Atitlán	14	Cerro de Oro	7	Julio	2023-07-16T00:00:00	2024-11-08T15:00:00	3	Temperatura mínima	23.4
160964	7	Sololá	719	Santiago Atitlán	14	Cerro de Oro	7	Julio	2023-07-16T00:00:00	2024-11-08T15:00:00	5	Humedad	68
160965	7	Sololá	719	Santiago Atitlán	14	Cerro de Oro	7	Julio	2023-07-16T00:00:00	2024-11-08T15:00:00	6	Velocidad del viento	9.7
160966	7	Sololá	719	Santiago Atitlán	14	Cerro de Oro	7	Julio	2023-07-16T00:00:00	2024-11-08T15:00:00	7	Dirección del viento	9.66
160967	7	Sololá	719	Santiago Atitlán	14	Cerro de Oro	7	Julio	2023-07-16T00:00:00	2024-11-08T15:00:00	1	Precipitación	0
160968	7	Sololá	719	Santiago Atitlán	14	Cerro de Oro	7	Julio	2023-07-16T00:00:00	2024-11-08T15:00:00	8	Radiación solar	337
160969	7	Sololá	719	Santiago Atitlán	14	Cerro de Oro	7	Julio	2023-07-16T00:00:00	2024-11-08T16:00:00	2	Temperatura media	21.7
160970	7	Sololá	719	Santiago Atitlán	14	Cerro de Oro	7	Julio	2023-07-16T00:00:00	2024-11-08T16:00:00	4	Temperatura máxima	23.4
160971	7	Sololá	719	Santiago Atitlán	14	Cerro de Oro	7	Julio	2023-07-16T00:00:00	2024-11-08T16:00:00	3	Temperatura mínima	21.7
160972	7	Sololá	719	Santiago Atitlán	14	Cerro de Oro	7	Julio	2023-07-16T00:00:00	2024-11-08T16:00:00	5	Humedad	71
160973	7	Sololá	719	Santiago Atitlán	14	Cerro de Oro	7	Julio	2023-07-16T00:00:00	2024-11-08T16:00:00	6	Velocidad del viento	8
160974	7	Sololá	719	Santiago Atitlán	14	Cerro de Oro	7	Julio	2023-07-16T00:00:00	2024-11-08T16:00:00	7	Dirección del viento	8.05
160975	7	Sololá	719	Santiago Atitlán	14	Cerro de Oro	7	Julio	2023-07-16T00:00:00	2024-11-08T16:00:00	1	Precipitación	0
160976	7	Sololá	719	Santiago Atitlán	14	Cerro de Oro	7	Julio	2023-07-16T00:00:00	2024-11-08T16:00:00	8	Radiación solar	24
160977	7	Sololá	719	Santiago Atitlán	14	Cerro de Oro	7	Julio	2023-07-16T00:00:00	2024-11-08T17:00:00	2	Temperatura media	21.8
160978	7	Sololá	719	Santiago Atitlán	14	Cerro de Oro	7	Julio	2023-07-16T00:00:00	2024-11-08T17:00:00	4	Temperatura máxima	22.1
160979	7	Sololá	719	Santiago Atitlán	14	Cerro de Oro	7	Julio	2023-07-16T00:00:00	2024-11-08T17:00:00	3	Temperatura mínima	21.7
160980	7	Sololá	719	Santiago Atitlán	14	Cerro de Oro	7	Julio	2023-07-16T00:00:00	2024-11-08T17:00:00	5	Humedad	73
160981	7	Sololá	719	Santiago Atitlán	14	Cerro de Oro	7	Julio	2023-07-16T00:00:00	2024-11-08T17:00:00	6	Velocidad del viento	6.4
160982	7	Sololá	719	Santiago Atitlán	14	Cerro de Oro	7	Julio	2023-07-16T00:00:00	2024-11-08T17:00:00	7	Dirección del viento	6.44
160983	7	Sololá	719	Santiago Atitlán	14	Cerro de Oro	7	Julio	2023-07-16T00:00:00	2024-11-08T17:00:00	1	Precipitación	0
160984	7	Sololá	719	Santiago Atitlán	14	Cerro de Oro	7	Julio	2023-07-16T00:00:00	2024-11-08T17:00:00	8	Radiación solar	4
160985	7	Sololá	719	Santiago Atitlán	14	Cerro de Oro	7	Julio	2023-07-16T00:00:00	2024-11-08T18:00:00	2	Temperatura media	20.7
160986	7	Sololá	719	Santiago Atitlán	14	Cerro de Oro	7	Julio	2023-07-16T00:00:00	2024-11-08T18:00:00	4	Temperatura máxima	21.8
160987	7	Sololá	719	Santiago Atitlán	14	Cerro de Oro	7	Julio	2023-07-16T00:00:00	2024-11-08T18:00:00	3	Temperatura mínima	20.3
160988	7	Sololá	719	Santiago Atitlán	14	Cerro de Oro	7	Julio	2023-07-16T00:00:00	2024-11-08T18:00:00	5	Humedad	77
160989	7	Sololá	719	Santiago Atitlán	14	Cerro de Oro	7	Julio	2023-07-16T00:00:00	2024-11-08T18:00:00	6	Velocidad del viento	9.7
160990	7	Sololá	719	Santiago Atitlán	14	Cerro de Oro	7	Julio	2023-07-16T00:00:00	2024-11-08T18:00:00	7	Dirección del viento	9.66
160991	7	Sololá	719	Santiago Atitlán	14	Cerro de Oro	7	Julio	2023-07-16T00:00:00	2024-11-08T18:00:00	1	Precipitación	1
160992	7	Sololá	719	Santiago Atitlán	14	Cerro de Oro	7	Julio	2023-07-16T00:00:00	2024-11-08T18:00:00	8	Radiación solar	0
160993	7	Sololá	719	Santiago Atitlán	14	Cerro de Oro	7	Julio	2023-07-16T00:00:00	2024-11-08T19:00:00	2	Temperatura media	20.6
160994	7	Sololá	719	Santiago Atitlán	14	Cerro de Oro	7	Julio	2023-07-16T00:00:00	2024-11-08T19:00:00	4	Temperatura máxima	20.8
160995	7	Sololá	719	Santiago Atitlán	14	Cerro de Oro	7	Julio	2023-07-16T00:00:00	2024-11-08T19:00:00	3	Temperatura mínima	20.3
160996	7	Sololá	719	Santiago Atitlán	14	Cerro de Oro	7	Julio	2023-07-16T00:00:00	2024-11-08T19:00:00	5	Humedad	76
160997	7	Sololá	719	Santiago Atitlán	14	Cerro de Oro	7	Julio	2023-07-16T00:00:00	2024-11-08T19:00:00	6	Velocidad del viento	9.7
160998	7	Sololá	719	Santiago Atitlán	14	Cerro de Oro	7	Julio	2023-07-16T00:00:00	2024-11-08T19:00:00	7	Dirección del viento	9.66
160999	7	Sololá	719	Santiago Atitlán	14	Cerro de Oro	7	Julio	2023-07-16T00:00:00	2024-11-08T19:00:00	1	Precipitación	0
161000	7	Sololá	719	Santiago Atitlán	14	Cerro de Oro	7	Julio	2023-07-16T00:00:00	2024-11-08T19:00:00	8	Radiación solar	0
161001	7	Sololá	719	Santiago Atitlán	14	Cerro de Oro	7	Julio	2023-07-16T00:00:00	2024-11-08T20:00:00	2	Temperatura media	20.6
161002	7	Sololá	719	Santiago Atitlán	14	Cerro de Oro	7	Julio	2023-07-16T00:00:00	2024-11-08T20:00:00	4	Temperatura máxima	20.7
161003	7	Sololá	719	Santiago Atitlán	14	Cerro de Oro	7	Julio	2023-07-16T00:00:00	2024-11-08T20:00:00	3	Temperatura mínima	20.3
161004	7	Sololá	719	Santiago Atitlán	14	Cerro de Oro	7	Julio	2023-07-16T00:00:00	2024-11-08T20:00:00	5	Humedad	72
161005	7	Sololá	719	Santiago Atitlán	14	Cerro de Oro	7	Julio	2023-07-16T00:00:00	2024-11-08T20:00:00	6	Velocidad del viento	11.3
161006	7	Sololá	719	Santiago Atitlán	14	Cerro de Oro	7	Julio	2023-07-16T00:00:00	2024-11-08T20:00:00	7	Dirección del viento	11.27
161007	7	Sololá	719	Santiago Atitlán	14	Cerro de Oro	7	Julio	2023-07-16T00:00:00	2024-11-08T20:00:00	1	Precipitación	0
161008	7	Sololá	719	Santiago Atitlán	14	Cerro de Oro	7	Julio	2023-07-16T00:00:00	2024-11-08T20:00:00	8	Radiación solar	0
161009	7	Sololá	719	Santiago Atitlán	14	Cerro de Oro	7	Julio	2023-07-16T00:00:00	2024-11-08T21:00:00	2	Temperatura media	20.7
161010	7	Sololá	719	Santiago Atitlán	14	Cerro de Oro	7	Julio	2023-07-16T00:00:00	2024-11-08T21:00:00	4	Temperatura máxima	20.8
161011	7	Sololá	719	Santiago Atitlán	14	Cerro de Oro	7	Julio	2023-07-16T00:00:00	2024-11-08T21:00:00	3	Temperatura mínima	20.6
161012	7	Sololá	719	Santiago Atitlán	14	Cerro de Oro	7	Julio	2023-07-16T00:00:00	2024-11-08T21:00:00	5	Humedad	67
161013	7	Sololá	719	Santiago Atitlán	14	Cerro de Oro	7	Julio	2023-07-16T00:00:00	2024-11-08T21:00:00	6	Velocidad del viento	16.1
161014	7	Sololá	719	Santiago Atitlán	14	Cerro de Oro	7	Julio	2023-07-16T00:00:00	2024-11-08T21:00:00	7	Dirección del viento	16.09
161015	7	Sololá	719	Santiago Atitlán	14	Cerro de Oro	7	Julio	2023-07-16T00:00:00	2024-11-08T21:00:00	1	Precipitación	0
161016	7	Sololá	719	Santiago Atitlán	14	Cerro de Oro	7	Julio	2023-07-16T00:00:00	2024-11-08T21:00:00	8	Radiación solar	0
161017	7	Sololá	719	Santiago Atitlán	14	Cerro de Oro	7	Julio	2023-07-16T00:00:00	2024-11-08T22:00:00	2	Temperatura media	20.8
161018	7	Sololá	719	Santiago Atitlán	14	Cerro de Oro	7	Julio	2023-07-16T00:00:00	2024-11-08T22:00:00	4	Temperatura máxima	20.8
161019	7	Sololá	719	Santiago Atitlán	14	Cerro de Oro	7	Julio	2023-07-16T00:00:00	2024-11-08T22:00:00	3	Temperatura mínima	20.5
161020	7	Sololá	719	Santiago Atitlán	14	Cerro de Oro	7	Julio	2023-07-16T00:00:00	2024-11-08T22:00:00	5	Humedad	71
161021	7	Sololá	719	Santiago Atitlán	14	Cerro de Oro	7	Julio	2023-07-16T00:00:00	2024-11-08T22:00:00	6	Velocidad del viento	9.7
161022	7	Sololá	719	Santiago Atitlán	14	Cerro de Oro	7	Julio	2023-07-16T00:00:00	2024-11-08T22:00:00	7	Dirección del viento	9.66
161023	7	Sololá	719	Santiago Atitlán	14	Cerro de Oro	7	Julio	2023-07-16T00:00:00	2024-11-08T22:00:00	1	Precipitación	0
161024	7	Sololá	719	Santiago Atitlán	14	Cerro de Oro	7	Julio	2023-07-16T00:00:00	2024-11-08T22:00:00	8	Radiación solar	0
161025	7	Sololá	719	Santiago Atitlán	14	Cerro de Oro	7	Julio	2023-07-16T00:00:00	2024-11-08T23:00:00	2	Temperatura media	20.6
161026	7	Sololá	719	Santiago Atitlán	14	Cerro de Oro	7	Julio	2023-07-16T00:00:00	2024-11-08T23:00:00	4	Temperatura máxima	20.8
161027	7	Sololá	719	Santiago Atitlán	14	Cerro de Oro	7	Julio	2023-07-16T00:00:00	2024-11-08T23:00:00	3	Temperatura mínima	20.6
161028	7	Sololá	719	Santiago Atitlán	14	Cerro de Oro	7	Julio	2023-07-16T00:00:00	2024-11-08T23:00:00	5	Humedad	72
161029	7	Sololá	719	Santiago Atitlán	14	Cerro de Oro	7	Julio	2023-07-16T00:00:00	2024-11-08T23:00:00	6	Velocidad del viento	11.3
161030	7	Sololá	719	Santiago Atitlán	14	Cerro de Oro	7	Julio	2023-07-16T00:00:00	2024-11-08T23:00:00	7	Dirección del viento	11.27
161031	7	Sololá	719	Santiago Atitlán	14	Cerro de Oro	7	Julio	2023-07-16T00:00:00	2024-11-08T23:00:00	1	Precipitación	0
161032	7	Sololá	719	Santiago Atitlán	14	Cerro de Oro	7	Julio	2023-07-16T00:00:00	2024-11-08T23:00:00	8	Radiación solar	0
161033	7	Sololá	719	Santiago Atitlán	14	Cerro de Oro	7	Julio	2023-07-17T00:00:00	2024-11-08T00:00:00	2	Temperatura media	20.6
161034	7	Sololá	719	Santiago Atitlán	14	Cerro de Oro	7	Julio	2023-07-17T00:00:00	2024-11-08T00:00:00	4	Temperatura máxima	20.6
161035	7	Sololá	719	Santiago Atitlán	14	Cerro de Oro	7	Julio	2023-07-17T00:00:00	2024-11-08T00:00:00	3	Temperatura mínima	20.4
161036	7	Sololá	719	Santiago Atitlán	14	Cerro de Oro	7	Julio	2023-07-17T00:00:00	2024-11-08T00:00:00	5	Humedad	71
161037	7	Sololá	719	Santiago Atitlán	14	Cerro de Oro	7	Julio	2023-07-17T00:00:00	2024-11-08T00:00:00	6	Velocidad del viento	11.3
161038	7	Sololá	719	Santiago Atitlán	14	Cerro de Oro	7	Julio	2023-07-17T00:00:00	2024-11-08T00:00:00	7	Dirección del viento	11.27
161039	7	Sololá	719	Santiago Atitlán	14	Cerro de Oro	7	Julio	2023-07-17T00:00:00	2024-11-08T00:00:00	1	Precipitación	0
161040	7	Sololá	719	Santiago Atitlán	14	Cerro de Oro	7	Julio	2023-07-17T00:00:00	2024-11-08T00:00:00	8	Radiación solar	0
161041	7	Sololá	719	Santiago Atitlán	14	Cerro de Oro	7	Julio	2023-07-17T00:00:00	2024-11-08T01:00:00	2	Temperatura media	20.6
161042	7	Sololá	719	Santiago Atitlán	14	Cerro de Oro	7	Julio	2023-07-17T00:00:00	2024-11-08T01:00:00	4	Temperatura máxima	20.7
161043	7	Sololá	719	Santiago Atitlán	14	Cerro de Oro	7	Julio	2023-07-17T00:00:00	2024-11-08T01:00:00	3	Temperatura mínima	20.5
161044	7	Sololá	719	Santiago Atitlán	14	Cerro de Oro	7	Julio	2023-07-17T00:00:00	2024-11-08T01:00:00	5	Humedad	69
161045	7	Sololá	719	Santiago Atitlán	14	Cerro de Oro	7	Julio	2023-07-17T00:00:00	2024-11-08T01:00:00	6	Velocidad del viento	8
161046	7	Sololá	719	Santiago Atitlán	14	Cerro de Oro	7	Julio	2023-07-17T00:00:00	2024-11-08T01:00:00	7	Dirección del viento	8.05
161047	7	Sololá	719	Santiago Atitlán	14	Cerro de Oro	7	Julio	2023-07-17T00:00:00	2024-11-08T01:00:00	1	Precipitación	0
161048	7	Sololá	719	Santiago Atitlán	14	Cerro de Oro	7	Julio	2023-07-17T00:00:00	2024-11-08T01:00:00	8	Radiación solar	0
161049	7	Sololá	719	Santiago Atitlán	14	Cerro de Oro	7	Julio	2023-07-17T00:00:00	2024-11-08T02:00:00	2	Temperatura media	19.7
161050	7	Sololá	719	Santiago Atitlán	14	Cerro de Oro	7	Julio	2023-07-17T00:00:00	2024-11-08T02:00:00	4	Temperatura máxima	20.8
161051	7	Sololá	719	Santiago Atitlán	14	Cerro de Oro	7	Julio	2023-07-17T00:00:00	2024-11-08T02:00:00	3	Temperatura mínima	19.7
161052	7	Sololá	719	Santiago Atitlán	14	Cerro de Oro	7	Julio	2023-07-17T00:00:00	2024-11-08T02:00:00	5	Humedad	71
161053	7	Sololá	719	Santiago Atitlán	14	Cerro de Oro	7	Julio	2023-07-17T00:00:00	2024-11-08T02:00:00	6	Velocidad del viento	4.8
161054	7	Sololá	719	Santiago Atitlán	14	Cerro de Oro	7	Julio	2023-07-17T00:00:00	2024-11-08T02:00:00	7	Dirección del viento	4.83
161055	7	Sololá	719	Santiago Atitlán	14	Cerro de Oro	7	Julio	2023-07-17T00:00:00	2024-11-08T02:00:00	1	Precipitación	0
161056	7	Sololá	719	Santiago Atitlán	14	Cerro de Oro	7	Julio	2023-07-17T00:00:00	2024-11-08T02:00:00	8	Radiación solar	0
161057	7	Sololá	719	Santiago Atitlán	14	Cerro de Oro	7	Julio	2023-07-17T00:00:00	2024-11-08T03:00:00	2	Temperatura media	20.3
161058	7	Sololá	719	Santiago Atitlán	14	Cerro de Oro	7	Julio	2023-07-17T00:00:00	2024-11-08T03:00:00	4	Temperatura máxima	20.5
161059	7	Sololá	719	Santiago Atitlán	14	Cerro de Oro	7	Julio	2023-07-17T00:00:00	2024-11-08T03:00:00	3	Temperatura mínima	19.5
161060	7	Sololá	719	Santiago Atitlán	14	Cerro de Oro	7	Julio	2023-07-17T00:00:00	2024-11-08T03:00:00	5	Humedad	71
161061	7	Sololá	719	Santiago Atitlán	14	Cerro de Oro	7	Julio	2023-07-17T00:00:00	2024-11-08T03:00:00	6	Velocidad del viento	6.4
161062	7	Sololá	719	Santiago Atitlán	14	Cerro de Oro	7	Julio	2023-07-17T00:00:00	2024-11-08T03:00:00	7	Dirección del viento	6.44
161063	7	Sololá	719	Santiago Atitlán	14	Cerro de Oro	7	Julio	2023-07-17T00:00:00	2024-11-08T03:00:00	1	Precipitación	0
161064	7	Sololá	719	Santiago Atitlán	14	Cerro de Oro	7	Julio	2023-07-17T00:00:00	2024-11-08T03:00:00	8	Radiación solar	0
161065	7	Sololá	719	Santiago Atitlán	14	Cerro de Oro	7	Julio	2023-07-17T00:00:00	2024-11-08T04:00:00	2	Temperatura media	19.2
161066	7	Sololá	719	Santiago Atitlán	14	Cerro de Oro	7	Julio	2023-07-17T00:00:00	2024-11-08T04:00:00	4	Temperatura máxima	20.3
161067	7	Sololá	719	Santiago Atitlán	14	Cerro de Oro	7	Julio	2023-07-17T00:00:00	2024-11-08T04:00:00	3	Temperatura mínima	19.1
161068	7	Sololá	719	Santiago Atitlán	14	Cerro de Oro	7	Julio	2023-07-17T00:00:00	2024-11-08T04:00:00	5	Humedad	72
161069	7	Sololá	719	Santiago Atitlán	14	Cerro de Oro	7	Julio	2023-07-17T00:00:00	2024-11-08T04:00:00	6	Velocidad del viento	4.8
161070	7	Sololá	719	Santiago Atitlán	14	Cerro de Oro	7	Julio	2023-07-17T00:00:00	2024-11-08T04:00:00	7	Dirección del viento	4.83
161071	7	Sololá	719	Santiago Atitlán	14	Cerro de Oro	7	Julio	2023-07-17T00:00:00	2024-11-08T04:00:00	1	Precipitación	0
161072	7	Sololá	719	Santiago Atitlán	14	Cerro de Oro	7	Julio	2023-07-17T00:00:00	2024-11-08T04:00:00	8	Radiación solar	0
161073	7	Sololá	719	Santiago Atitlán	14	Cerro de Oro	7	Julio	2023-07-17T00:00:00	2024-11-08T05:00:00	2	Temperatura media	19.8
161074	7	Sololá	719	Santiago Atitlán	14	Cerro de Oro	7	Julio	2023-07-17T00:00:00	2024-11-08T05:00:00	4	Temperatura máxima	20.4
161075	7	Sololá	719	Santiago Atitlán	14	Cerro de Oro	7	Julio	2023-07-17T00:00:00	2024-11-08T05:00:00	3	Temperatura mínima	18.9
161076	7	Sololá	719	Santiago Atitlán	14	Cerro de Oro	7	Julio	2023-07-17T00:00:00	2024-11-08T05:00:00	5	Humedad	70
161077	7	Sololá	719	Santiago Atitlán	14	Cerro de Oro	7	Julio	2023-07-17T00:00:00	2024-11-08T05:00:00	6	Velocidad del viento	4.8
161078	7	Sololá	719	Santiago Atitlán	14	Cerro de Oro	7	Julio	2023-07-17T00:00:00	2024-11-08T05:00:00	7	Dirección del viento	4.83
161079	7	Sololá	719	Santiago Atitlán	14	Cerro de Oro	7	Julio	2023-07-17T00:00:00	2024-11-08T05:00:00	1	Precipitación	0
161080	7	Sololá	719	Santiago Atitlán	14	Cerro de Oro	7	Julio	2023-07-17T00:00:00	2024-11-08T05:00:00	8	Radiación solar	0
161081	7	Sololá	719	Santiago Atitlán	14	Cerro de Oro	7	Julio	2023-07-17T00:00:00	2024-11-08T06:00:00	2	Temperatura media	20.2
161082	7	Sololá	719	Santiago Atitlán	14	Cerro de Oro	7	Julio	2023-07-17T00:00:00	2024-11-08T06:00:00	4	Temperatura máxima	20.3
161083	7	Sololá	719	Santiago Atitlán	14	Cerro de Oro	7	Julio	2023-07-17T00:00:00	2024-11-08T06:00:00	3	Temperatura mínima	19.2
161084	7	Sololá	719	Santiago Atitlán	14	Cerro de Oro	7	Julio	2023-07-17T00:00:00	2024-11-08T06:00:00	5	Humedad	64
161085	7	Sololá	719	Santiago Atitlán	14	Cerro de Oro	7	Julio	2023-07-17T00:00:00	2024-11-08T06:00:00	6	Velocidad del viento	6.4
161086	7	Sololá	719	Santiago Atitlán	14	Cerro de Oro	7	Julio	2023-07-17T00:00:00	2024-11-08T06:00:00	7	Dirección del viento	6.44
161087	7	Sololá	719	Santiago Atitlán	14	Cerro de Oro	7	Julio	2023-07-17T00:00:00	2024-11-08T06:00:00	1	Precipitación	0
161088	7	Sololá	719	Santiago Atitlán	14	Cerro de Oro	7	Julio	2023-07-17T00:00:00	2024-11-08T06:00:00	8	Radiación solar	2
161089	7	Sololá	719	Santiago Atitlán	14	Cerro de Oro	7	Julio	2023-07-17T00:00:00	2024-11-08T07:00:00	2	Temperatura media	20.8
161090	7	Sololá	719	Santiago Atitlán	14	Cerro de Oro	7	Julio	2023-07-17T00:00:00	2024-11-08T07:00:00	4	Temperatura máxima	20.9
161091	7	Sololá	719	Santiago Atitlán	14	Cerro de Oro	7	Julio	2023-07-17T00:00:00	2024-11-08T07:00:00	3	Temperatura mínima	20.1
161092	7	Sololá	719	Santiago Atitlán	14	Cerro de Oro	7	Julio	2023-07-17T00:00:00	2024-11-08T07:00:00	5	Humedad	65
161093	7	Sololá	719	Santiago Atitlán	14	Cerro de Oro	7	Julio	2023-07-17T00:00:00	2024-11-08T07:00:00	6	Velocidad del viento	4.8
161094	7	Sololá	719	Santiago Atitlán	14	Cerro de Oro	7	Julio	2023-07-17T00:00:00	2024-11-08T07:00:00	7	Dirección del viento	4.83
161095	7	Sololá	719	Santiago Atitlán	14	Cerro de Oro	7	Julio	2023-07-17T00:00:00	2024-11-08T07:00:00	1	Precipitación	0
161096	7	Sololá	719	Santiago Atitlán	14	Cerro de Oro	7	Julio	2023-07-17T00:00:00	2024-11-08T07:00:00	8	Radiación solar	83
161097	7	Sololá	719	Santiago Atitlán	14	Cerro de Oro	7	Julio	2023-07-17T00:00:00	2024-11-08T08:00:00	2	Temperatura media	22.3
161098	7	Sololá	719	Santiago Atitlán	14	Cerro de Oro	7	Julio	2023-07-17T00:00:00	2024-11-08T08:00:00	4	Temperatura máxima	22.3
161099	7	Sololá	719	Santiago Atitlán	14	Cerro de Oro	7	Julio	2023-07-17T00:00:00	2024-11-08T08:00:00	3	Temperatura mínima	20.7
161100	7	Sololá	719	Santiago Atitlán	14	Cerro de Oro	7	Julio	2023-07-17T00:00:00	2024-11-08T08:00:00	5	Humedad	58
161101	7	Sololá	719	Santiago Atitlán	14	Cerro de Oro	7	Julio	2023-07-17T00:00:00	2024-11-08T08:00:00	6	Velocidad del viento	6.4
161102	7	Sololá	719	Santiago Atitlán	14	Cerro de Oro	7	Julio	2023-07-17T00:00:00	2024-11-08T08:00:00	7	Dirección del viento	6.44
161103	7	Sololá	719	Santiago Atitlán	14	Cerro de Oro	7	Julio	2023-07-17T00:00:00	2024-11-08T08:00:00	1	Precipitación	0
161104	7	Sololá	719	Santiago Atitlán	14	Cerro de Oro	7	Julio	2023-07-17T00:00:00	2024-11-08T08:00:00	8	Radiación solar	314
161105	7	Sololá	719	Santiago Atitlán	14	Cerro de Oro	7	Julio	2023-07-17T00:00:00	2024-11-08T09:00:00	2	Temperatura media	23.2
161106	7	Sololá	719	Santiago Atitlán	14	Cerro de Oro	7	Julio	2023-07-17T00:00:00	2024-11-08T09:00:00	4	Temperatura máxima	23.5
161107	7	Sololá	719	Santiago Atitlán	14	Cerro de Oro	7	Julio	2023-07-17T00:00:00	2024-11-08T09:00:00	3	Temperatura mínima	22.2
161108	7	Sololá	719	Santiago Atitlán	14	Cerro de Oro	7	Julio	2023-07-17T00:00:00	2024-11-08T09:00:00	5	Humedad	57
161109	7	Sololá	719	Santiago Atitlán	14	Cerro de Oro	7	Julio	2023-07-17T00:00:00	2024-11-08T09:00:00	6	Velocidad del viento	3.2
161110	7	Sololá	719	Santiago Atitlán	14	Cerro de Oro	7	Julio	2023-07-17T00:00:00	2024-11-08T09:00:00	7	Dirección del viento	3.22
161111	7	Sololá	719	Santiago Atitlán	14	Cerro de Oro	7	Julio	2023-07-17T00:00:00	2024-11-08T09:00:00	1	Precipitación	0
161112	7	Sololá	719	Santiago Atitlán	14	Cerro de Oro	7	Julio	2023-07-17T00:00:00	2024-11-08T09:00:00	8	Radiación solar	550
161113	7	Sololá	719	Santiago Atitlán	14	Cerro de Oro	7	Julio	2023-07-17T00:00:00	2024-11-08T10:00:00	2	Temperatura media	24.7
161114	7	Sololá	719	Santiago Atitlán	14	Cerro de Oro	7	Julio	2023-07-17T00:00:00	2024-11-08T10:00:00	4	Temperatura máxima	24.7
161115	7	Sololá	719	Santiago Atitlán	14	Cerro de Oro	7	Julio	2023-07-17T00:00:00	2024-11-08T10:00:00	3	Temperatura mínima	23.1
161116	7	Sololá	719	Santiago Atitlán	14	Cerro de Oro	7	Julio	2023-07-17T00:00:00	2024-11-08T10:00:00	5	Humedad	51
161117	7	Sololá	719	Santiago Atitlán	14	Cerro de Oro	7	Julio	2023-07-17T00:00:00	2024-11-08T10:00:00	6	Velocidad del viento	4.8
161118	7	Sololá	719	Santiago Atitlán	14	Cerro de Oro	7	Julio	2023-07-17T00:00:00	2024-11-08T10:00:00	7	Dirección del viento	4.83
161119	7	Sololá	719	Santiago Atitlán	14	Cerro de Oro	7	Julio	2023-07-17T00:00:00	2024-11-08T10:00:00	1	Precipitación	0
161120	7	Sololá	719	Santiago Atitlán	14	Cerro de Oro	7	Julio	2023-07-17T00:00:00	2024-11-08T10:00:00	8	Radiación solar	703
161121	7	Sololá	719	Santiago Atitlán	14	Cerro de Oro	7	Julio	2023-07-17T00:00:00	2024-11-08T11:00:00	2	Temperatura media	24.4
161122	7	Sololá	719	Santiago Atitlán	14	Cerro de Oro	7	Julio	2023-07-17T00:00:00	2024-11-08T11:00:00	4	Temperatura máxima	24.8
161123	7	Sololá	719	Santiago Atitlán	14	Cerro de Oro	7	Julio	2023-07-17T00:00:00	2024-11-08T11:00:00	3	Temperatura mínima	24.1
161124	7	Sololá	719	Santiago Atitlán	14	Cerro de Oro	7	Julio	2023-07-17T00:00:00	2024-11-08T11:00:00	5	Humedad	52
161125	7	Sololá	719	Santiago Atitlán	14	Cerro de Oro	7	Julio	2023-07-17T00:00:00	2024-11-08T11:00:00	6	Velocidad del viento	12.9
161126	7	Sololá	719	Santiago Atitlán	14	Cerro de Oro	7	Julio	2023-07-17T00:00:00	2024-11-08T11:00:00	7	Dirección del viento	12.87
161127	7	Sololá	719	Santiago Atitlán	14	Cerro de Oro	7	Julio	2023-07-17T00:00:00	2024-11-08T11:00:00	1	Precipitación	0
161128	7	Sololá	719	Santiago Atitlán	14	Cerro de Oro	7	Julio	2023-07-17T00:00:00	2024-11-08T11:00:00	8	Radiación solar	840
161129	7	Sololá	719	Santiago Atitlán	14	Cerro de Oro	7	Julio	2023-07-17T00:00:00	2024-11-08T12:00:00	2	Temperatura media	24.9
161130	7	Sololá	719	Santiago Atitlán	14	Cerro de Oro	7	Julio	2023-07-17T00:00:00	2024-11-08T12:00:00	4	Temperatura máxima	25.6
161131	7	Sololá	719	Santiago Atitlán	14	Cerro de Oro	7	Julio	2023-07-17T00:00:00	2024-11-08T12:00:00	3	Temperatura mínima	24.4
161132	7	Sololá	719	Santiago Atitlán	14	Cerro de Oro	7	Julio	2023-07-17T00:00:00	2024-11-08T12:00:00	5	Humedad	46
161133	7	Sololá	719	Santiago Atitlán	14	Cerro de Oro	7	Julio	2023-07-17T00:00:00	2024-11-08T12:00:00	6	Velocidad del viento	14.5
161134	7	Sololá	719	Santiago Atitlán	14	Cerro de Oro	7	Julio	2023-07-17T00:00:00	2024-11-08T12:00:00	7	Dirección del viento	14.48
161135	7	Sololá	719	Santiago Atitlán	14	Cerro de Oro	7	Julio	2023-07-17T00:00:00	2024-11-08T12:00:00	1	Precipitación	0
161136	7	Sololá	719	Santiago Atitlán	14	Cerro de Oro	7	Julio	2023-07-17T00:00:00	2024-11-08T12:00:00	8	Radiación solar	936
161137	7	Sololá	719	Santiago Atitlán	14	Cerro de Oro	7	Julio	2023-07-17T00:00:00	2024-11-08T13:00:00	2	Temperatura media	25.4
161138	7	Sololá	719	Santiago Atitlán	14	Cerro de Oro	7	Julio	2023-07-17T00:00:00	2024-11-08T13:00:00	4	Temperatura máxima	25.4
161139	7	Sololá	719	Santiago Atitlán	14	Cerro de Oro	7	Julio	2023-07-17T00:00:00	2024-11-08T13:00:00	3	Temperatura mínima	24.9
161140	7	Sololá	719	Santiago Atitlán	14	Cerro de Oro	7	Julio	2023-07-17T00:00:00	2024-11-08T13:00:00	5	Humedad	44
161141	7	Sololá	719	Santiago Atitlán	14	Cerro de Oro	7	Julio	2023-07-17T00:00:00	2024-11-08T13:00:00	6	Velocidad del viento	16.1
161142	7	Sololá	719	Santiago Atitlán	14	Cerro de Oro	7	Julio	2023-07-17T00:00:00	2024-11-08T13:00:00	7	Dirección del viento	16.09
161143	7	Sololá	719	Santiago Atitlán	14	Cerro de Oro	7	Julio	2023-07-17T00:00:00	2024-11-08T13:00:00	1	Precipitación	0
161144	7	Sololá	719	Santiago Atitlán	14	Cerro de Oro	7	Julio	2023-07-17T00:00:00	2024-11-08T13:00:00	8	Radiación solar	886
161145	7	Sololá	719	Santiago Atitlán	14	Cerro de Oro	7	Julio	2023-07-17T00:00:00	2024-11-08T14:00:00	2	Temperatura media	25.5
161146	7	Sololá	719	Santiago Atitlán	14	Cerro de Oro	7	Julio	2023-07-17T00:00:00	2024-11-08T14:00:00	4	Temperatura máxima	25.8
161147	7	Sololá	719	Santiago Atitlán	14	Cerro de Oro	7	Julio	2023-07-17T00:00:00	2024-11-08T14:00:00	3	Temperatura mínima	25.4
161148	7	Sololá	719	Santiago Atitlán	14	Cerro de Oro	7	Julio	2023-07-17T00:00:00	2024-11-08T14:00:00	5	Humedad	43
161149	7	Sololá	719	Santiago Atitlán	14	Cerro de Oro	7	Julio	2023-07-17T00:00:00	2024-11-08T14:00:00	6	Velocidad del viento	14.5
161150	7	Sololá	719	Santiago Atitlán	14	Cerro de Oro	7	Julio	2023-07-17T00:00:00	2024-11-08T14:00:00	7	Dirección del viento	14.48
161151	7	Sololá	719	Santiago Atitlán	14	Cerro de Oro	7	Julio	2023-07-17T00:00:00	2024-11-08T14:00:00	1	Precipitación	0
161152	7	Sololá	719	Santiago Atitlán	14	Cerro de Oro	7	Julio	2023-07-17T00:00:00	2024-11-08T14:00:00	8	Radiación solar	852
161153	7	Sololá	719	Santiago Atitlán	14	Cerro de Oro	7	Julio	2023-07-17T00:00:00	2024-11-08T15:00:00	2	Temperatura media	25.8
161154	7	Sololá	719	Santiago Atitlán	14	Cerro de Oro	7	Julio	2023-07-17T00:00:00	2024-11-08T15:00:00	4	Temperatura máxima	25.9
161155	7	Sololá	719	Santiago Atitlán	14	Cerro de Oro	7	Julio	2023-07-17T00:00:00	2024-11-08T15:00:00	3	Temperatura mínima	25.4
161156	7	Sololá	719	Santiago Atitlán	14	Cerro de Oro	7	Julio	2023-07-17T00:00:00	2024-11-08T15:00:00	5	Humedad	49
161157	7	Sololá	719	Santiago Atitlán	14	Cerro de Oro	7	Julio	2023-07-17T00:00:00	2024-11-08T15:00:00	6	Velocidad del viento	16.1
161158	7	Sololá	719	Santiago Atitlán	14	Cerro de Oro	7	Julio	2023-07-17T00:00:00	2024-11-08T15:00:00	7	Dirección del viento	16.09
161159	7	Sololá	719	Santiago Atitlán	14	Cerro de Oro	7	Julio	2023-07-17T00:00:00	2024-11-08T15:00:00	1	Precipitación	0
161160	7	Sololá	719	Santiago Atitlán	14	Cerro de Oro	7	Julio	2023-07-17T00:00:00	2024-11-08T15:00:00	8	Radiación solar	770
161161	7	Sololá	719	Santiago Atitlán	14	Cerro de Oro	7	Julio	2023-07-17T00:00:00	2024-11-08T16:00:00	2	Temperatura media	25.1
161162	7	Sololá	719	Santiago Atitlán	14	Cerro de Oro	7	Julio	2023-07-17T00:00:00	2024-11-08T16:00:00	4	Temperatura máxima	25.9
161163	7	Sololá	719	Santiago Atitlán	14	Cerro de Oro	7	Julio	2023-07-17T00:00:00	2024-11-08T16:00:00	3	Temperatura mínima	25
161164	7	Sololá	719	Santiago Atitlán	14	Cerro de Oro	7	Julio	2023-07-17T00:00:00	2024-11-08T16:00:00	5	Humedad	53
161165	7	Sololá	719	Santiago Atitlán	14	Cerro de Oro	7	Julio	2023-07-17T00:00:00	2024-11-08T16:00:00	6	Velocidad del viento	17.7
161166	7	Sololá	719	Santiago Atitlán	14	Cerro de Oro	7	Julio	2023-07-17T00:00:00	2024-11-08T16:00:00	7	Dirección del viento	17.7
161167	7	Sololá	719	Santiago Atitlán	14	Cerro de Oro	7	Julio	2023-07-17T00:00:00	2024-11-08T16:00:00	1	Precipitación	0
161168	7	Sololá	719	Santiago Atitlán	14	Cerro de Oro	7	Julio	2023-07-17T00:00:00	2024-11-08T16:00:00	8	Radiación solar	520
161169	7	Sololá	719	Santiago Atitlán	14	Cerro de Oro	7	Julio	2023-07-17T00:00:00	2024-11-08T17:00:00	2	Temperatura media	25
161170	7	Sololá	719	Santiago Atitlán	14	Cerro de Oro	7	Julio	2023-07-17T00:00:00	2024-11-08T17:00:00	4	Temperatura máxima	25.4
161171	7	Sololá	719	Santiago Atitlán	14	Cerro de Oro	7	Julio	2023-07-17T00:00:00	2024-11-08T17:00:00	3	Temperatura mínima	24.8
161172	7	Sololá	719	Santiago Atitlán	14	Cerro de Oro	7	Julio	2023-07-17T00:00:00	2024-11-08T17:00:00	5	Humedad	50
161173	7	Sololá	719	Santiago Atitlán	14	Cerro de Oro	7	Julio	2023-07-17T00:00:00	2024-11-08T17:00:00	6	Velocidad del viento	14.5
161174	7	Sololá	719	Santiago Atitlán	14	Cerro de Oro	7	Julio	2023-07-17T00:00:00	2024-11-08T17:00:00	7	Dirección del viento	14.48
161175	7	Sololá	719	Santiago Atitlán	14	Cerro de Oro	7	Julio	2023-07-17T00:00:00	2024-11-08T17:00:00	1	Precipitación	0
161176	7	Sololá	719	Santiago Atitlán	14	Cerro de Oro	7	Julio	2023-07-17T00:00:00	2024-11-08T17:00:00	8	Radiación solar	307
161177	7	Sololá	719	Santiago Atitlán	14	Cerro de Oro	7	Julio	2023-07-17T00:00:00	2024-11-08T18:00:00	2	Temperatura media	24.3
161178	7	Sololá	719	Santiago Atitlán	14	Cerro de Oro	7	Julio	2023-07-17T00:00:00	2024-11-08T18:00:00	4	Temperatura máxima	25.1
161179	7	Sololá	719	Santiago Atitlán	14	Cerro de Oro	7	Julio	2023-07-17T00:00:00	2024-11-08T18:00:00	3	Temperatura mínima	24.2
161180	7	Sololá	719	Santiago Atitlán	14	Cerro de Oro	7	Julio	2023-07-17T00:00:00	2024-11-08T18:00:00	5	Humedad	57
161181	7	Sololá	719	Santiago Atitlán	14	Cerro de Oro	7	Julio	2023-07-17T00:00:00	2024-11-08T18:00:00	6	Velocidad del viento	12.9
161182	7	Sololá	719	Santiago Atitlán	14	Cerro de Oro	7	Julio	2023-07-17T00:00:00	2024-11-08T18:00:00	7	Dirección del viento	12.87
161183	7	Sololá	719	Santiago Atitlán	14	Cerro de Oro	7	Julio	2023-07-17T00:00:00	2024-11-08T18:00:00	1	Precipitación	0
161184	7	Sololá	719	Santiago Atitlán	14	Cerro de Oro	7	Julio	2023-07-17T00:00:00	2024-11-08T18:00:00	8	Radiación solar	181
161185	7	Sololá	719	Santiago Atitlán	14	Cerro de Oro	7	Julio	2023-07-17T00:00:00	2024-11-08T19:00:00	2	Temperatura media	23.2
161186	7	Sololá	719	Santiago Atitlán	14	Cerro de Oro	7	Julio	2023-07-17T00:00:00	2024-11-08T19:00:00	4	Temperatura máxima	24.3
161187	7	Sololá	719	Santiago Atitlán	14	Cerro de Oro	7	Julio	2023-07-17T00:00:00	2024-11-08T19:00:00	3	Temperatura mínima	23.2
161188	7	Sololá	719	Santiago Atitlán	14	Cerro de Oro	7	Julio	2023-07-17T00:00:00	2024-11-08T19:00:00	5	Humedad	62
161189	7	Sololá	719	Santiago Atitlán	14	Cerro de Oro	7	Julio	2023-07-17T00:00:00	2024-11-08T19:00:00	6	Velocidad del viento	11.3
161190	7	Sololá	719	Santiago Atitlán	14	Cerro de Oro	7	Julio	2023-07-17T00:00:00	2024-11-08T19:00:00	7	Dirección del viento	11.27
161191	7	Sololá	719	Santiago Atitlán	14	Cerro de Oro	7	Julio	2023-07-17T00:00:00	2024-11-08T19:00:00	1	Precipitación	0
161192	7	Sololá	719	Santiago Atitlán	14	Cerro de Oro	7	Julio	2023-07-17T00:00:00	2024-11-08T19:00:00	8	Radiación solar	0
161193	7	Sololá	719	Santiago Atitlán	14	Cerro de Oro	7	Julio	2023-07-17T00:00:00	2024-11-08T20:00:00	2	Temperatura media	21.9
161194	7	Sololá	719	Santiago Atitlán	14	Cerro de Oro	7	Julio	2023-07-17T00:00:00	2024-11-08T20:00:00	4	Temperatura máxima	23.2
161195	7	Sololá	719	Santiago Atitlán	14	Cerro de Oro	7	Julio	2023-07-17T00:00:00	2024-11-08T20:00:00	3	Temperatura mínima	21.8
161196	7	Sololá	719	Santiago Atitlán	14	Cerro de Oro	7	Julio	2023-07-17T00:00:00	2024-11-08T20:00:00	5	Humedad	66
161197	7	Sololá	719	Santiago Atitlán	14	Cerro de Oro	7	Julio	2023-07-17T00:00:00	2024-11-08T20:00:00	6	Velocidad del viento	6.4
161198	7	Sololá	719	Santiago Atitlán	14	Cerro de Oro	7	Julio	2023-07-17T00:00:00	2024-11-08T20:00:00	7	Dirección del viento	6.44
161199	7	Sololá	719	Santiago Atitlán	14	Cerro de Oro	7	Julio	2023-07-17T00:00:00	2024-11-08T20:00:00	1	Precipitación	0
161200	7	Sololá	719	Santiago Atitlán	14	Cerro de Oro	7	Julio	2023-07-17T00:00:00	2024-11-08T20:00:00	8	Radiación solar	0
161201	7	Sololá	719	Santiago Atitlán	14	Cerro de Oro	7	Julio	2023-07-17T00:00:00	2024-11-08T21:00:00	2	Temperatura media	21.7
161202	7	Sololá	719	Santiago Atitlán	14	Cerro de Oro	7	Julio	2023-07-17T00:00:00	2024-11-08T21:00:00	4	Temperatura máxima	21.9
161203	7	Sololá	719	Santiago Atitlán	14	Cerro de Oro	7	Julio	2023-07-17T00:00:00	2024-11-08T21:00:00	3	Temperatura mínima	21.6
161204	7	Sololá	719	Santiago Atitlán	14	Cerro de Oro	7	Julio	2023-07-17T00:00:00	2024-11-08T21:00:00	5	Humedad	64
161205	7	Sololá	719	Santiago Atitlán	14	Cerro de Oro	7	Julio	2023-07-17T00:00:00	2024-11-08T21:00:00	6	Velocidad del viento	9.7
161206	7	Sololá	719	Santiago Atitlán	14	Cerro de Oro	7	Julio	2023-07-17T00:00:00	2024-11-08T21:00:00	7	Dirección del viento	9.66
161207	7	Sololá	719	Santiago Atitlán	14	Cerro de Oro	7	Julio	2023-07-17T00:00:00	2024-11-08T21:00:00	1	Precipitación	0
161208	7	Sololá	719	Santiago Atitlán	14	Cerro de Oro	7	Julio	2023-07-17T00:00:00	2024-11-08T21:00:00	8	Radiación solar	0
161209	7	Sololá	719	Santiago Atitlán	14	Cerro de Oro	7	Julio	2023-07-17T00:00:00	2024-11-08T22:00:00	2	Temperatura media	21.6
161210	7	Sololá	719	Santiago Atitlán	14	Cerro de Oro	7	Julio	2023-07-17T00:00:00	2024-11-08T22:00:00	4	Temperatura máxima	21.9
161211	7	Sololá	719	Santiago Atitlán	14	Cerro de Oro	7	Julio	2023-07-17T00:00:00	2024-11-08T22:00:00	3	Temperatura mínima	21.3
161212	7	Sololá	719	Santiago Atitlán	14	Cerro de Oro	7	Julio	2023-07-17T00:00:00	2024-11-08T22:00:00	5	Humedad	63
161213	7	Sololá	719	Santiago Atitlán	14	Cerro de Oro	7	Julio	2023-07-17T00:00:00	2024-11-08T22:00:00	6	Velocidad del viento	9.7
161214	7	Sololá	719	Santiago Atitlán	14	Cerro de Oro	7	Julio	2023-07-17T00:00:00	2024-11-08T22:00:00	7	Dirección del viento	9.66
161215	7	Sololá	719	Santiago Atitlán	14	Cerro de Oro	7	Julio	2023-07-17T00:00:00	2024-11-08T22:00:00	1	Precipitación	0
161216	7	Sololá	719	Santiago Atitlán	14	Cerro de Oro	7	Julio	2023-07-17T00:00:00	2024-11-08T22:00:00	8	Radiación solar	0
161217	7	Sololá	719	Santiago Atitlán	14	Cerro de Oro	7	Julio	2023-07-17T00:00:00	2024-11-08T23:00:00	2	Temperatura media	21
161218	7	Sololá	719	Santiago Atitlán	14	Cerro de Oro	7	Julio	2023-07-17T00:00:00	2024-11-08T23:00:00	4	Temperatura máxima	21.6
161219	7	Sololá	719	Santiago Atitlán	14	Cerro de Oro	7	Julio	2023-07-17T00:00:00	2024-11-08T23:00:00	3	Temperatura mínima	20.4
161220	7	Sololá	719	Santiago Atitlán	14	Cerro de Oro	7	Julio	2023-07-17T00:00:00	2024-11-08T23:00:00	5	Humedad	66
161221	7	Sololá	719	Santiago Atitlán	14	Cerro de Oro	7	Julio	2023-07-17T00:00:00	2024-11-08T23:00:00	6	Velocidad del viento	6.4
161222	7	Sololá	719	Santiago Atitlán	14	Cerro de Oro	7	Julio	2023-07-17T00:00:00	2024-11-08T23:00:00	7	Dirección del viento	6.44
161223	7	Sololá	719	Santiago Atitlán	14	Cerro de Oro	7	Julio	2023-07-17T00:00:00	2024-11-08T23:00:00	1	Precipitación	0
161224	7	Sololá	719	Santiago Atitlán	14	Cerro de Oro	7	Julio	2023-07-17T00:00:00	2024-11-08T23:00:00	8	Radiación solar	0
161225	7	Sololá	719	Santiago Atitlán	14	Cerro de Oro	7	Julio	2023-07-18T00:00:00	2024-11-08T00:00:00	2	Temperatura media	20.3
161226	7	Sololá	719	Santiago Atitlán	14	Cerro de Oro	7	Julio	2023-07-18T00:00:00	2024-11-08T00:00:00	4	Temperatura máxima	21.2
161227	7	Sololá	719	Santiago Atitlán	14	Cerro de Oro	7	Julio	2023-07-18T00:00:00	2024-11-08T00:00:00	3	Temperatura mínima	20.3
161228	7	Sololá	719	Santiago Atitlán	14	Cerro de Oro	7	Julio	2023-07-18T00:00:00	2024-11-08T00:00:00	5	Humedad	69
161229	7	Sololá	719	Santiago Atitlán	14	Cerro de Oro	7	Julio	2023-07-18T00:00:00	2024-11-08T00:00:00	6	Velocidad del viento	9.7
161230	7	Sololá	719	Santiago Atitlán	14	Cerro de Oro	7	Julio	2023-07-18T00:00:00	2024-11-08T00:00:00	7	Dirección del viento	9.66
161231	7	Sololá	719	Santiago Atitlán	14	Cerro de Oro	7	Julio	2023-07-18T00:00:00	2024-11-08T00:00:00	1	Precipitación	0
161232	7	Sololá	719	Santiago Atitlán	14	Cerro de Oro	7	Julio	2023-07-18T00:00:00	2024-11-08T00:00:00	8	Radiación solar	0
161233	7	Sololá	719	Santiago Atitlán	14	Cerro de Oro	7	Julio	2023-07-18T00:00:00	2024-11-08T01:00:00	2	Temperatura media	19.4
161234	7	Sololá	719	Santiago Atitlán	14	Cerro de Oro	7	Julio	2023-07-18T00:00:00	2024-11-08T01:00:00	4	Temperatura máxima	20.5
161235	7	Sololá	719	Santiago Atitlán	14	Cerro de Oro	7	Julio	2023-07-18T00:00:00	2024-11-08T01:00:00	3	Temperatura mínima	18.9
161236	7	Sololá	719	Santiago Atitlán	14	Cerro de Oro	7	Julio	2023-07-18T00:00:00	2024-11-08T01:00:00	5	Humedad	69
161237	7	Sololá	719	Santiago Atitlán	14	Cerro de Oro	7	Julio	2023-07-18T00:00:00	2024-11-08T01:00:00	6	Velocidad del viento	4.8
161238	7	Sololá	719	Santiago Atitlán	14	Cerro de Oro	7	Julio	2023-07-18T00:00:00	2024-11-08T01:00:00	7	Dirección del viento	4.83
161239	7	Sololá	719	Santiago Atitlán	14	Cerro de Oro	7	Julio	2023-07-18T00:00:00	2024-11-08T01:00:00	1	Precipitación	0
161240	7	Sololá	719	Santiago Atitlán	14	Cerro de Oro	7	Julio	2023-07-18T00:00:00	2024-11-08T01:00:00	8	Radiación solar	0
161241	7	Sololá	719	Santiago Atitlán	14	Cerro de Oro	7	Julio	2023-07-18T00:00:00	2024-11-08T02:00:00	2	Temperatura media	19.8
161242	7	Sololá	719	Santiago Atitlán	14	Cerro de Oro	7	Julio	2023-07-18T00:00:00	2024-11-08T02:00:00	4	Temperatura máxima	20
161243	7	Sololá	719	Santiago Atitlán	14	Cerro de Oro	7	Julio	2023-07-18T00:00:00	2024-11-08T02:00:00	3	Temperatura mínima	19.4
161244	7	Sololá	719	Santiago Atitlán	14	Cerro de Oro	7	Julio	2023-07-18T00:00:00	2024-11-08T02:00:00	5	Humedad	70
161245	7	Sololá	719	Santiago Atitlán	14	Cerro de Oro	7	Julio	2023-07-18T00:00:00	2024-11-08T02:00:00	6	Velocidad del viento	6.4
161246	7	Sololá	719	Santiago Atitlán	14	Cerro de Oro	7	Julio	2023-07-18T00:00:00	2024-11-08T02:00:00	7	Dirección del viento	6.44
161247	7	Sololá	719	Santiago Atitlán	14	Cerro de Oro	7	Julio	2023-07-18T00:00:00	2024-11-08T02:00:00	1	Precipitación	0
161248	7	Sololá	719	Santiago Atitlán	14	Cerro de Oro	7	Julio	2023-07-18T00:00:00	2024-11-08T02:00:00	8	Radiación solar	0
161249	7	Sololá	719	Santiago Atitlán	14	Cerro de Oro	7	Julio	2023-07-18T00:00:00	2024-11-08T03:00:00	2	Temperatura media	18.8
161250	7	Sololá	719	Santiago Atitlán	14	Cerro de Oro	7	Julio	2023-07-18T00:00:00	2024-11-08T03:00:00	4	Temperatura máxima	20.1
161251	7	Sololá	719	Santiago Atitlán	14	Cerro de Oro	7	Julio	2023-07-18T00:00:00	2024-11-08T03:00:00	3	Temperatura mínima	18.7
161252	7	Sololá	719	Santiago Atitlán	14	Cerro de Oro	7	Julio	2023-07-18T00:00:00	2024-11-08T03:00:00	5	Humedad	73
161253	7	Sololá	719	Santiago Atitlán	14	Cerro de Oro	7	Julio	2023-07-18T00:00:00	2024-11-08T03:00:00	6	Velocidad del viento	4.8
161254	7	Sololá	719	Santiago Atitlán	14	Cerro de Oro	7	Julio	2023-07-18T00:00:00	2024-11-08T03:00:00	7	Dirección del viento	4.83
161255	7	Sololá	719	Santiago Atitlán	14	Cerro de Oro	7	Julio	2023-07-18T00:00:00	2024-11-08T03:00:00	1	Precipitación	0
161256	7	Sololá	719	Santiago Atitlán	14	Cerro de Oro	7	Julio	2023-07-18T00:00:00	2024-11-08T03:00:00	8	Radiación solar	0
161257	7	Sololá	719	Santiago Atitlán	14	Cerro de Oro	7	Julio	2023-07-18T00:00:00	2024-11-08T04:00:00	2	Temperatura media	19.3
161258	7	Sololá	719	Santiago Atitlán	14	Cerro de Oro	7	Julio	2023-07-18T00:00:00	2024-11-08T04:00:00	4	Temperatura máxima	19.4
161259	7	Sololá	719	Santiago Atitlán	14	Cerro de Oro	7	Julio	2023-07-18T00:00:00	2024-11-08T04:00:00	3	Temperatura mínima	18.8
161260	7	Sololá	719	Santiago Atitlán	14	Cerro de Oro	7	Julio	2023-07-18T00:00:00	2024-11-08T04:00:00	5	Humedad	71
161261	7	Sololá	719	Santiago Atitlán	14	Cerro de Oro	7	Julio	2023-07-18T00:00:00	2024-11-08T04:00:00	6	Velocidad del viento	4.8
161262	7	Sololá	719	Santiago Atitlán	14	Cerro de Oro	7	Julio	2023-07-18T00:00:00	2024-11-08T04:00:00	7	Dirección del viento	4.83
161263	7	Sololá	719	Santiago Atitlán	14	Cerro de Oro	7	Julio	2023-07-18T00:00:00	2024-11-08T04:00:00	1	Precipitación	0
161264	7	Sololá	719	Santiago Atitlán	14	Cerro de Oro	7	Julio	2023-07-18T00:00:00	2024-11-08T04:00:00	8	Radiación solar	0
161265	7	Sololá	719	Santiago Atitlán	14	Cerro de Oro	7	Julio	2023-07-18T00:00:00	2024-11-08T05:00:00	2	Temperatura media	20.2
161266	7	Sololá	719	Santiago Atitlán	14	Cerro de Oro	7	Julio	2023-07-18T00:00:00	2024-11-08T05:00:00	4	Temperatura máxima	20.2
161267	7	Sololá	719	Santiago Atitlán	14	Cerro de Oro	7	Julio	2023-07-18T00:00:00	2024-11-08T05:00:00	3	Temperatura mínima	19.1
161268	7	Sololá	719	Santiago Atitlán	14	Cerro de Oro	7	Julio	2023-07-18T00:00:00	2024-11-08T05:00:00	5	Humedad	68
161269	7	Sololá	719	Santiago Atitlán	14	Cerro de Oro	7	Julio	2023-07-18T00:00:00	2024-11-08T05:00:00	6	Velocidad del viento	4.8
161270	7	Sololá	719	Santiago Atitlán	14	Cerro de Oro	7	Julio	2023-07-18T00:00:00	2024-11-08T05:00:00	7	Dirección del viento	4.83
161271	7	Sololá	719	Santiago Atitlán	14	Cerro de Oro	7	Julio	2023-07-18T00:00:00	2024-11-08T05:00:00	1	Precipitación	0
161272	7	Sololá	719	Santiago Atitlán	14	Cerro de Oro	7	Julio	2023-07-18T00:00:00	2024-11-08T05:00:00	8	Radiación solar	0
161273	7	Sololá	719	Santiago Atitlán	14	Cerro de Oro	7	Julio	2023-07-18T00:00:00	2024-11-08T06:00:00	2	Temperatura media	20.3
161274	7	Sololá	719	Santiago Atitlán	14	Cerro de Oro	7	Julio	2023-07-18T00:00:00	2024-11-08T06:00:00	4	Temperatura máxima	20.6
161275	7	Sololá	719	Santiago Atitlán	14	Cerro de Oro	7	Julio	2023-07-18T00:00:00	2024-11-08T06:00:00	3	Temperatura mínima	19.8
161276	7	Sololá	719	Santiago Atitlán	14	Cerro de Oro	7	Julio	2023-07-18T00:00:00	2024-11-08T06:00:00	5	Humedad	68
161277	7	Sololá	719	Santiago Atitlán	14	Cerro de Oro	7	Julio	2023-07-18T00:00:00	2024-11-08T06:00:00	6	Velocidad del viento	6.4
161278	7	Sololá	719	Santiago Atitlán	14	Cerro de Oro	7	Julio	2023-07-18T00:00:00	2024-11-08T06:00:00	7	Dirección del viento	6.44
161279	7	Sololá	719	Santiago Atitlán	14	Cerro de Oro	7	Julio	2023-07-18T00:00:00	2024-11-08T06:00:00	1	Precipitación	0
161280	7	Sololá	719	Santiago Atitlán	14	Cerro de Oro	7	Julio	2023-07-18T00:00:00	2024-11-08T06:00:00	8	Radiación solar	2
161281	7	Sololá	719	Santiago Atitlán	14	Cerro de Oro	7	Julio	2023-07-18T00:00:00	2024-11-08T07:00:00	2	Temperatura media	21.7
161282	7	Sololá	719	Santiago Atitlán	14	Cerro de Oro	7	Julio	2023-07-18T00:00:00	2024-11-08T07:00:00	4	Temperatura máxima	21.7
161283	7	Sololá	719	Santiago Atitlán	14	Cerro de Oro	7	Julio	2023-07-18T00:00:00	2024-11-08T07:00:00	3	Temperatura mínima	20.2
161284	7	Sololá	719	Santiago Atitlán	14	Cerro de Oro	7	Julio	2023-07-18T00:00:00	2024-11-08T07:00:00	5	Humedad	64
161285	7	Sololá	719	Santiago Atitlán	14	Cerro de Oro	7	Julio	2023-07-18T00:00:00	2024-11-08T07:00:00	6	Velocidad del viento	8
161286	7	Sololá	719	Santiago Atitlán	14	Cerro de Oro	7	Julio	2023-07-18T00:00:00	2024-11-08T07:00:00	7	Dirección del viento	8.05
161287	7	Sololá	719	Santiago Atitlán	14	Cerro de Oro	7	Julio	2023-07-18T00:00:00	2024-11-08T07:00:00	1	Precipitación	0
161288	7	Sololá	719	Santiago Atitlán	14	Cerro de Oro	7	Julio	2023-07-18T00:00:00	2024-11-08T07:00:00	8	Radiación solar	99
161289	7	Sololá	719	Santiago Atitlán	14	Cerro de Oro	7	Julio	2023-07-18T00:00:00	2024-11-08T08:00:00	2	Temperatura media	22.4
161290	7	Sololá	719	Santiago Atitlán	14	Cerro de Oro	7	Julio	2023-07-18T00:00:00	2024-11-08T08:00:00	4	Temperatura máxima	22.4
161291	7	Sololá	719	Santiago Atitlán	14	Cerro de Oro	7	Julio	2023-07-18T00:00:00	2024-11-08T08:00:00	3	Temperatura mínima	21.7
161292	7	Sololá	719	Santiago Atitlán	14	Cerro de Oro	7	Julio	2023-07-18T00:00:00	2024-11-08T08:00:00	5	Humedad	60
161293	7	Sololá	719	Santiago Atitlán	14	Cerro de Oro	7	Julio	2023-07-18T00:00:00	2024-11-08T08:00:00	6	Velocidad del viento	3.2
161294	7	Sololá	719	Santiago Atitlán	14	Cerro de Oro	7	Julio	2023-07-18T00:00:00	2024-11-08T08:00:00	7	Dirección del viento	3.22
161295	7	Sololá	719	Santiago Atitlán	14	Cerro de Oro	7	Julio	2023-07-18T00:00:00	2024-11-08T08:00:00	1	Precipitación	0
161296	7	Sololá	719	Santiago Atitlán	14	Cerro de Oro	7	Julio	2023-07-18T00:00:00	2024-11-08T08:00:00	8	Radiación solar	298
161297	7	Sololá	719	Santiago Atitlán	14	Cerro de Oro	7	Julio	2023-07-18T00:00:00	2024-11-08T09:00:00	2	Temperatura media	23.6
161298	7	Sololá	719	Santiago Atitlán	14	Cerro de Oro	7	Julio	2023-07-18T00:00:00	2024-11-08T09:00:00	4	Temperatura máxima	23.9
161299	7	Sololá	719	Santiago Atitlán	14	Cerro de Oro	7	Julio	2023-07-18T00:00:00	2024-11-08T09:00:00	3	Temperatura mínima	22.4
161300	7	Sololá	719	Santiago Atitlán	14	Cerro de Oro	7	Julio	2023-07-18T00:00:00	2024-11-08T09:00:00	5	Humedad	54
161301	7	Sololá	719	Santiago Atitlán	14	Cerro de Oro	7	Julio	2023-07-18T00:00:00	2024-11-08T09:00:00	6	Velocidad del viento	6.4
161302	7	Sololá	719	Santiago Atitlán	14	Cerro de Oro	7	Julio	2023-07-18T00:00:00	2024-11-08T09:00:00	7	Dirección del viento	6.44
161303	7	Sololá	719	Santiago Atitlán	14	Cerro de Oro	7	Julio	2023-07-18T00:00:00	2024-11-08T09:00:00	1	Precipitación	0
161304	7	Sololá	719	Santiago Atitlán	14	Cerro de Oro	7	Julio	2023-07-18T00:00:00	2024-11-08T09:00:00	8	Radiación solar	504
161305	7	Sololá	719	Santiago Atitlán	14	Cerro de Oro	7	Julio	2023-07-18T00:00:00	2024-11-08T10:00:00	2	Temperatura media	24.3
161306	7	Sololá	719	Santiago Atitlán	14	Cerro de Oro	7	Julio	2023-07-18T00:00:00	2024-11-08T10:00:00	4	Temperatura máxima	24.5
161307	7	Sololá	719	Santiago Atitlán	14	Cerro de Oro	7	Julio	2023-07-18T00:00:00	2024-11-08T10:00:00	3	Temperatura mínima	23.6
161308	7	Sololá	719	Santiago Atitlán	14	Cerro de Oro	7	Julio	2023-07-18T00:00:00	2024-11-08T10:00:00	5	Humedad	52
161309	7	Sololá	719	Santiago Atitlán	14	Cerro de Oro	7	Julio	2023-07-18T00:00:00	2024-11-08T10:00:00	6	Velocidad del viento	8
161310	7	Sololá	719	Santiago Atitlán	14	Cerro de Oro	7	Julio	2023-07-18T00:00:00	2024-11-08T10:00:00	7	Dirección del viento	8.05
161311	7	Sololá	719	Santiago Atitlán	14	Cerro de Oro	7	Julio	2023-07-18T00:00:00	2024-11-08T10:00:00	1	Precipitación	0
161312	7	Sololá	719	Santiago Atitlán	14	Cerro de Oro	7	Julio	2023-07-18T00:00:00	2024-11-08T10:00:00	8	Radiación solar	691
161313	7	Sololá	719	Santiago Atitlán	14	Cerro de Oro	7	Julio	2023-07-18T00:00:00	2024-11-08T11:00:00	2	Temperatura media	24.1
161314	7	Sololá	719	Santiago Atitlán	14	Cerro de Oro	7	Julio	2023-07-18T00:00:00	2024-11-08T11:00:00	4	Temperatura máxima	24.5
161315	7	Sololá	719	Santiago Atitlán	14	Cerro de Oro	7	Julio	2023-07-18T00:00:00	2024-11-08T11:00:00	3	Temperatura mínima	23.8
161316	7	Sololá	719	Santiago Atitlán	14	Cerro de Oro	7	Julio	2023-07-18T00:00:00	2024-11-08T11:00:00	5	Humedad	56
161317	7	Sololá	719	Santiago Atitlán	14	Cerro de Oro	7	Julio	2023-07-18T00:00:00	2024-11-08T11:00:00	6	Velocidad del viento	16.1
161318	7	Sololá	719	Santiago Atitlán	14	Cerro de Oro	7	Julio	2023-07-18T00:00:00	2024-11-08T11:00:00	7	Dirección del viento	16.09
161319	7	Sololá	719	Santiago Atitlán	14	Cerro de Oro	7	Julio	2023-07-18T00:00:00	2024-11-08T11:00:00	1	Precipitación	0
161320	7	Sololá	719	Santiago Atitlán	14	Cerro de Oro	7	Julio	2023-07-18T00:00:00	2024-11-08T11:00:00	8	Radiación solar	831
161321	7	Sololá	719	Santiago Atitlán	14	Cerro de Oro	7	Julio	2023-07-18T00:00:00	2024-11-08T12:00:00	2	Temperatura media	25.4
161322	7	Sololá	719	Santiago Atitlán	14	Cerro de Oro	7	Julio	2023-07-18T00:00:00	2024-11-08T12:00:00	4	Temperatura máxima	25.4
161323	7	Sololá	719	Santiago Atitlán	14	Cerro de Oro	7	Julio	2023-07-18T00:00:00	2024-11-08T12:00:00	3	Temperatura mínima	24.1
161324	7	Sololá	719	Santiago Atitlán	14	Cerro de Oro	7	Julio	2023-07-18T00:00:00	2024-11-08T12:00:00	5	Humedad	46
161325	7	Sololá	719	Santiago Atitlán	14	Cerro de Oro	7	Julio	2023-07-18T00:00:00	2024-11-08T12:00:00	6	Velocidad del viento	14.5
161326	7	Sololá	719	Santiago Atitlán	14	Cerro de Oro	7	Julio	2023-07-18T00:00:00	2024-11-08T12:00:00	7	Dirección del viento	14.48
161327	7	Sololá	719	Santiago Atitlán	14	Cerro de Oro	7	Julio	2023-07-18T00:00:00	2024-11-08T12:00:00	1	Precipitación	0
161328	7	Sololá	719	Santiago Atitlán	14	Cerro de Oro	7	Julio	2023-07-18T00:00:00	2024-11-08T12:00:00	8	Radiación solar	949
161329	7	Sololá	719	Santiago Atitlán	14	Cerro de Oro	7	Julio	2023-07-18T00:00:00	2024-11-08T13:00:00	2	Temperatura media	25.3
161330	7	Sololá	719	Santiago Atitlán	14	Cerro de Oro	7	Julio	2023-07-18T00:00:00	2024-11-08T13:00:00	4	Temperatura máxima	25.6
161331	7	Sololá	719	Santiago Atitlán	14	Cerro de Oro	7	Julio	2023-07-18T00:00:00	2024-11-08T13:00:00	3	Temperatura mínima	25.3
161332	7	Sololá	719	Santiago Atitlán	14	Cerro de Oro	7	Julio	2023-07-18T00:00:00	2024-11-08T13:00:00	5	Humedad	46
161333	7	Sololá	719	Santiago Atitlán	14	Cerro de Oro	7	Julio	2023-07-18T00:00:00	2024-11-08T13:00:00	6	Velocidad del viento	14.5
161334	7	Sololá	719	Santiago Atitlán	14	Cerro de Oro	7	Julio	2023-07-18T00:00:00	2024-11-08T13:00:00	7	Dirección del viento	14.48
161335	7	Sololá	719	Santiago Atitlán	14	Cerro de Oro	7	Julio	2023-07-18T00:00:00	2024-11-08T13:00:00	1	Precipitación	0
161336	7	Sololá	719	Santiago Atitlán	14	Cerro de Oro	7	Julio	2023-07-18T00:00:00	2024-11-08T13:00:00	8	Radiación solar	967
161337	7	Sololá	719	Santiago Atitlán	14	Cerro de Oro	7	Julio	2023-07-18T00:00:00	2024-11-08T14:00:00	2	Temperatura media	25.8
161338	7	Sololá	719	Santiago Atitlán	14	Cerro de Oro	7	Julio	2023-07-18T00:00:00	2024-11-08T14:00:00	4	Temperatura máxima	26
161339	7	Sololá	719	Santiago Atitlán	14	Cerro de Oro	7	Julio	2023-07-18T00:00:00	2024-11-08T14:00:00	3	Temperatura mínima	25.3
161340	7	Sololá	719	Santiago Atitlán	14	Cerro de Oro	7	Julio	2023-07-18T00:00:00	2024-11-08T14:00:00	5	Humedad	44
161341	7	Sololá	719	Santiago Atitlán	14	Cerro de Oro	7	Julio	2023-07-18T00:00:00	2024-11-08T14:00:00	6	Velocidad del viento	16.1
161342	7	Sololá	719	Santiago Atitlán	14	Cerro de Oro	7	Julio	2023-07-18T00:00:00	2024-11-08T14:00:00	7	Dirección del viento	16.09
161343	7	Sololá	719	Santiago Atitlán	14	Cerro de Oro	7	Julio	2023-07-18T00:00:00	2024-11-08T14:00:00	1	Precipitación	0
161344	7	Sololá	719	Santiago Atitlán	14	Cerro de Oro	7	Julio	2023-07-18T00:00:00	2024-11-08T14:00:00	8	Radiación solar	893
161345	7	Sololá	719	Santiago Atitlán	14	Cerro de Oro	7	Julio	2023-07-18T00:00:00	2024-11-08T15:00:00	2	Temperatura media	24.8
161346	7	Sololá	719	Santiago Atitlán	14	Cerro de Oro	7	Julio	2023-07-18T00:00:00	2024-11-08T15:00:00	4	Temperatura máxima	25.8
161347	7	Sololá	719	Santiago Atitlán	14	Cerro de Oro	7	Julio	2023-07-18T00:00:00	2024-11-08T15:00:00	3	Temperatura mínima	24.8
161348	7	Sololá	719	Santiago Atitlán	14	Cerro de Oro	7	Julio	2023-07-18T00:00:00	2024-11-08T15:00:00	5	Humedad	37
161349	7	Sololá	719	Santiago Atitlán	14	Cerro de Oro	7	Julio	2023-07-18T00:00:00	2024-11-08T15:00:00	6	Velocidad del viento	16.1
161350	7	Sololá	719	Santiago Atitlán	14	Cerro de Oro	7	Julio	2023-07-18T00:00:00	2024-11-08T15:00:00	7	Dirección del viento	16.09
161351	7	Sololá	719	Santiago Atitlán	14	Cerro de Oro	7	Julio	2023-07-18T00:00:00	2024-11-08T15:00:00	1	Precipitación	0
161352	7	Sololá	719	Santiago Atitlán	14	Cerro de Oro	7	Julio	2023-07-18T00:00:00	2024-11-08T15:00:00	8	Radiación solar	484
161353	7	Sololá	719	Santiago Atitlán	14	Cerro de Oro	7	Julio	2023-07-18T00:00:00	2024-11-08T16:00:00	2	Temperatura media	24.4
161354	7	Sololá	719	Santiago Atitlán	14	Cerro de Oro	7	Julio	2023-07-18T00:00:00	2024-11-08T16:00:00	4	Temperatura máxima	24.9
161355	7	Sololá	719	Santiago Atitlán	14	Cerro de Oro	7	Julio	2023-07-18T00:00:00	2024-11-08T16:00:00	3	Temperatura mínima	24.4
161356	7	Sololá	719	Santiago Atitlán	14	Cerro de Oro	7	Julio	2023-07-18T00:00:00	2024-11-08T16:00:00	5	Humedad	39
161357	7	Sololá	719	Santiago Atitlán	14	Cerro de Oro	7	Julio	2023-07-18T00:00:00	2024-11-08T16:00:00	6	Velocidad del viento	14.5
161358	7	Sololá	719	Santiago Atitlán	14	Cerro de Oro	7	Julio	2023-07-18T00:00:00	2024-11-08T16:00:00	7	Dirección del viento	14.48
161359	7	Sololá	719	Santiago Atitlán	14	Cerro de Oro	7	Julio	2023-07-18T00:00:00	2024-11-08T16:00:00	1	Precipitación	0
161360	7	Sololá	719	Santiago Atitlán	14	Cerro de Oro	7	Julio	2023-07-18T00:00:00	2024-11-08T16:00:00	8	Radiación solar	291
161361	7	Sololá	719	Santiago Atitlán	14	Cerro de Oro	7	Julio	2023-07-18T00:00:00	2024-11-08T17:00:00	2	Temperatura media	23.9
161362	7	Sololá	719	Santiago Atitlán	14	Cerro de Oro	7	Julio	2023-07-18T00:00:00	2024-11-08T17:00:00	4	Temperatura máxima	24.4
161363	7	Sololá	719	Santiago Atitlán	14	Cerro de Oro	7	Julio	2023-07-18T00:00:00	2024-11-08T17:00:00	3	Temperatura mínima	23.9
161364	7	Sololá	719	Santiago Atitlán	14	Cerro de Oro	7	Julio	2023-07-18T00:00:00	2024-11-08T17:00:00	5	Humedad	51
161365	7	Sololá	719	Santiago Atitlán	14	Cerro de Oro	7	Julio	2023-07-18T00:00:00	2024-11-08T17:00:00	6	Velocidad del viento	11.3
161366	7	Sololá	719	Santiago Atitlán	14	Cerro de Oro	7	Julio	2023-07-18T00:00:00	2024-11-08T17:00:00	7	Dirección del viento	11.27
161367	7	Sololá	719	Santiago Atitlán	14	Cerro de Oro	7	Julio	2023-07-18T00:00:00	2024-11-08T17:00:00	1	Precipitación	0
161368	7	Sololá	719	Santiago Atitlán	14	Cerro de Oro	7	Julio	2023-07-18T00:00:00	2024-11-08T17:00:00	8	Radiación solar	216
161369	7	Sololá	719	Santiago Atitlán	14	Cerro de Oro	7	Julio	2023-07-18T00:00:00	2024-11-08T18:00:00	2	Temperatura media	23.3
161370	7	Sololá	719	Santiago Atitlán	14	Cerro de Oro	7	Julio	2023-07-18T00:00:00	2024-11-08T18:00:00	4	Temperatura máxima	24.2
161371	7	Sololá	719	Santiago Atitlán	14	Cerro de Oro	7	Julio	2023-07-18T00:00:00	2024-11-08T18:00:00	3	Temperatura mínima	23.3
161372	7	Sololá	719	Santiago Atitlán	14	Cerro de Oro	7	Julio	2023-07-18T00:00:00	2024-11-08T18:00:00	5	Humedad	52
161373	7	Sololá	719	Santiago Atitlán	14	Cerro de Oro	7	Julio	2023-07-18T00:00:00	2024-11-08T18:00:00	6	Velocidad del viento	12.9
161374	7	Sololá	719	Santiago Atitlán	14	Cerro de Oro	7	Julio	2023-07-18T00:00:00	2024-11-08T18:00:00	7	Dirección del viento	12.87
161375	7	Sololá	719	Santiago Atitlán	14	Cerro de Oro	7	Julio	2023-07-18T00:00:00	2024-11-08T18:00:00	1	Precipitación	0
161376	7	Sololá	719	Santiago Atitlán	14	Cerro de Oro	7	Julio	2023-07-18T00:00:00	2024-11-08T18:00:00	8	Radiación solar	156
161377	7	Sololá	719	Santiago Atitlán	14	Cerro de Oro	7	Julio	2023-07-18T00:00:00	2024-11-08T19:00:00	2	Temperatura media	22.4
161378	7	Sololá	719	Santiago Atitlán	14	Cerro de Oro	7	Julio	2023-07-18T00:00:00	2024-11-08T19:00:00	4	Temperatura máxima	23.3
161379	7	Sololá	719	Santiago Atitlán	14	Cerro de Oro	7	Julio	2023-07-18T00:00:00	2024-11-08T19:00:00	3	Temperatura mínima	22.4
161380	7	Sololá	719	Santiago Atitlán	14	Cerro de Oro	7	Julio	2023-07-18T00:00:00	2024-11-08T19:00:00	5	Humedad	62
161381	7	Sololá	719	Santiago Atitlán	14	Cerro de Oro	7	Julio	2023-07-18T00:00:00	2024-11-08T19:00:00	6	Velocidad del viento	9.7
161382	7	Sololá	719	Santiago Atitlán	14	Cerro de Oro	7	Julio	2023-07-18T00:00:00	2024-11-08T19:00:00	7	Dirección del viento	9.66
161383	7	Sololá	719	Santiago Atitlán	14	Cerro de Oro	7	Julio	2023-07-18T00:00:00	2024-11-08T19:00:00	1	Precipitación	0
161384	7	Sololá	719	Santiago Atitlán	14	Cerro de Oro	7	Julio	2023-07-18T00:00:00	2024-11-08T19:00:00	8	Radiación solar	0
161385	7	Sololá	719	Santiago Atitlán	14	Cerro de Oro	7	Julio	2023-07-18T00:00:00	2024-11-08T20:00:00	2	Temperatura media	21.7
161386	7	Sololá	719	Santiago Atitlán	14	Cerro de Oro	7	Julio	2023-07-18T00:00:00	2024-11-08T20:00:00	4	Temperatura máxima	22.4
161387	7	Sololá	719	Santiago Atitlán	14	Cerro de Oro	7	Julio	2023-07-18T00:00:00	2024-11-08T20:00:00	3	Temperatura mínima	21.6
161388	7	Sololá	719	Santiago Atitlán	14	Cerro de Oro	7	Julio	2023-07-18T00:00:00	2024-11-08T20:00:00	5	Humedad	64
161389	7	Sololá	719	Santiago Atitlán	14	Cerro de Oro	7	Julio	2023-07-18T00:00:00	2024-11-08T20:00:00	6	Velocidad del viento	4.8
161390	7	Sololá	719	Santiago Atitlán	14	Cerro de Oro	7	Julio	2023-07-18T00:00:00	2024-11-08T20:00:00	7	Dirección del viento	4.83
161391	7	Sololá	719	Santiago Atitlán	14	Cerro de Oro	7	Julio	2023-07-18T00:00:00	2024-11-08T20:00:00	1	Precipitación	0
161392	7	Sololá	719	Santiago Atitlán	14	Cerro de Oro	7	Julio	2023-07-18T00:00:00	2024-11-08T20:00:00	8	Radiación solar	0
161393	7	Sololá	719	Santiago Atitlán	14	Cerro de Oro	7	Julio	2023-07-18T00:00:00	2024-11-08T21:00:00	2	Temperatura media	21.1
161394	7	Sololá	719	Santiago Atitlán	14	Cerro de Oro	7	Julio	2023-07-18T00:00:00	2024-11-08T21:00:00	4	Temperatura máxima	21.7
161395	7	Sololá	719	Santiago Atitlán	14	Cerro de Oro	7	Julio	2023-07-18T00:00:00	2024-11-08T21:00:00	3	Temperatura mínima	21.1
161396	7	Sololá	719	Santiago Atitlán	14	Cerro de Oro	7	Julio	2023-07-18T00:00:00	2024-11-08T21:00:00	5	Humedad	66
161397	7	Sololá	719	Santiago Atitlán	14	Cerro de Oro	7	Julio	2023-07-18T00:00:00	2024-11-08T21:00:00	6	Velocidad del viento	9.7
161398	7	Sololá	719	Santiago Atitlán	14	Cerro de Oro	7	Julio	2023-07-18T00:00:00	2024-11-08T21:00:00	7	Dirección del viento	9.66
161399	7	Sololá	719	Santiago Atitlán	14	Cerro de Oro	7	Julio	2023-07-18T00:00:00	2024-11-08T21:00:00	1	Precipitación	0
161400	7	Sololá	719	Santiago Atitlán	14	Cerro de Oro	7	Julio	2023-07-18T00:00:00	2024-11-08T21:00:00	8	Radiación solar	0
161401	7	Sololá	719	Santiago Atitlán	14	Cerro de Oro	7	Julio	2023-07-18T00:00:00	2024-11-08T22:00:00	2	Temperatura media	20.7
161402	7	Sololá	719	Santiago Atitlán	14	Cerro de Oro	7	Julio	2023-07-18T00:00:00	2024-11-08T22:00:00	4	Temperatura máxima	21.1
161403	7	Sololá	719	Santiago Atitlán	14	Cerro de Oro	7	Julio	2023-07-18T00:00:00	2024-11-08T22:00:00	3	Temperatura mínima	20.5
161404	7	Sololá	719	Santiago Atitlán	14	Cerro de Oro	7	Julio	2023-07-18T00:00:00	2024-11-08T22:00:00	5	Humedad	59
161405	7	Sololá	719	Santiago Atitlán	14	Cerro de Oro	7	Julio	2023-07-18T00:00:00	2024-11-08T22:00:00	6	Velocidad del viento	6.4
161406	7	Sololá	719	Santiago Atitlán	14	Cerro de Oro	7	Julio	2023-07-18T00:00:00	2024-11-08T22:00:00	7	Dirección del viento	6.44
161407	7	Sololá	719	Santiago Atitlán	14	Cerro de Oro	7	Julio	2023-07-18T00:00:00	2024-11-08T22:00:00	1	Precipitación	0
161408	7	Sololá	719	Santiago Atitlán	14	Cerro de Oro	7	Julio	2023-07-18T00:00:00	2024-11-08T22:00:00	8	Radiación solar	0
161409	7	Sololá	719	Santiago Atitlán	14	Cerro de Oro	7	Julio	2023-07-18T00:00:00	2024-11-08T23:00:00	2	Temperatura media	20.4
161410	7	Sololá	719	Santiago Atitlán	14	Cerro de Oro	7	Julio	2023-07-18T00:00:00	2024-11-08T23:00:00	4	Temperatura máxima	20.8
161411	7	Sololá	719	Santiago Atitlán	14	Cerro de Oro	7	Julio	2023-07-18T00:00:00	2024-11-08T23:00:00	3	Temperatura mínima	20.4
161412	7	Sololá	719	Santiago Atitlán	14	Cerro de Oro	7	Julio	2023-07-18T00:00:00	2024-11-08T23:00:00	5	Humedad	62
161413	7	Sololá	719	Santiago Atitlán	14	Cerro de Oro	7	Julio	2023-07-18T00:00:00	2024-11-08T23:00:00	6	Velocidad del viento	8
161414	7	Sololá	719	Santiago Atitlán	14	Cerro de Oro	7	Julio	2023-07-18T00:00:00	2024-11-08T23:00:00	7	Dirección del viento	8.05
161415	7	Sololá	719	Santiago Atitlán	14	Cerro de Oro	7	Julio	2023-07-18T00:00:00	2024-11-08T23:00:00	1	Precipitación	0
161416	7	Sololá	719	Santiago Atitlán	14	Cerro de Oro	7	Julio	2023-07-18T00:00:00	2024-11-08T23:00:00	8	Radiación solar	0
161417	7	Sololá	719	Santiago Atitlán	14	Cerro de Oro	7	Julio	2023-07-19T00:00:00	2024-11-08T00:00:00	2	Temperatura media	20.3
161418	7	Sololá	719	Santiago Atitlán	14	Cerro de Oro	7	Julio	2023-07-19T00:00:00	2024-11-08T00:00:00	4	Temperatura máxima	20.5
161419	7	Sololá	719	Santiago Atitlán	14	Cerro de Oro	7	Julio	2023-07-19T00:00:00	2024-11-08T00:00:00	3	Temperatura mínima	20.1
161420	7	Sololá	719	Santiago Atitlán	14	Cerro de Oro	7	Julio	2023-07-19T00:00:00	2024-11-08T00:00:00	5	Humedad	65
161421	7	Sololá	719	Santiago Atitlán	14	Cerro de Oro	7	Julio	2023-07-19T00:00:00	2024-11-08T00:00:00	6	Velocidad del viento	4.8
161422	7	Sololá	719	Santiago Atitlán	14	Cerro de Oro	7	Julio	2023-07-19T00:00:00	2024-11-08T00:00:00	7	Dirección del viento	4.83
161423	7	Sololá	719	Santiago Atitlán	14	Cerro de Oro	7	Julio	2023-07-19T00:00:00	2024-11-08T00:00:00	1	Precipitación	0
161424	7	Sololá	719	Santiago Atitlán	14	Cerro de Oro	7	Julio	2023-07-19T00:00:00	2024-11-08T00:00:00	8	Radiación solar	0
161425	7	Sololá	719	Santiago Atitlán	14	Cerro de Oro	7	Julio	2023-07-19T00:00:00	2024-11-08T01:00:00	2	Temperatura media	18.9
161426	7	Sololá	719	Santiago Atitlán	14	Cerro de Oro	7	Julio	2023-07-19T00:00:00	2024-11-08T01:00:00	4	Temperatura máxima	20.4
161427	7	Sololá	719	Santiago Atitlán	14	Cerro de Oro	7	Julio	2023-07-19T00:00:00	2024-11-08T01:00:00	3	Temperatura mínima	18.7
161428	7	Sololá	719	Santiago Atitlán	14	Cerro de Oro	7	Julio	2023-07-19T00:00:00	2024-11-08T01:00:00	5	Humedad	69
161429	7	Sololá	719	Santiago Atitlán	14	Cerro de Oro	7	Julio	2023-07-19T00:00:00	2024-11-08T01:00:00	6	Velocidad del viento	4.8
161430	7	Sololá	719	Santiago Atitlán	14	Cerro de Oro	7	Julio	2023-07-19T00:00:00	2024-11-08T01:00:00	7	Dirección del viento	4.83
161431	7	Sololá	719	Santiago Atitlán	14	Cerro de Oro	7	Julio	2023-07-19T00:00:00	2024-11-08T01:00:00	1	Precipitación	0
161432	7	Sololá	719	Santiago Atitlán	14	Cerro de Oro	7	Julio	2023-07-19T00:00:00	2024-11-08T01:00:00	8	Radiación solar	0
161433	7	Sololá	719	Santiago Atitlán	14	Cerro de Oro	7	Julio	2023-07-19T00:00:00	2024-11-08T02:00:00	2	Temperatura media	19.8
161434	7	Sololá	719	Santiago Atitlán	14	Cerro de Oro	7	Julio	2023-07-19T00:00:00	2024-11-08T02:00:00	4	Temperatura máxima	19.8
161435	7	Sololá	719	Santiago Atitlán	14	Cerro de Oro	7	Julio	2023-07-19T00:00:00	2024-11-08T02:00:00	3	Temperatura mínima	18.7
161436	7	Sololá	719	Santiago Atitlán	14	Cerro de Oro	7	Julio	2023-07-19T00:00:00	2024-11-08T02:00:00	5	Humedad	65
161437	7	Sololá	719	Santiago Atitlán	14	Cerro de Oro	7	Julio	2023-07-19T00:00:00	2024-11-08T02:00:00	6	Velocidad del viento	3.2
161438	7	Sololá	719	Santiago Atitlán	14	Cerro de Oro	7	Julio	2023-07-19T00:00:00	2024-11-08T02:00:00	7	Dirección del viento	3.22
161439	7	Sololá	719	Santiago Atitlán	14	Cerro de Oro	7	Julio	2023-07-19T00:00:00	2024-11-08T02:00:00	1	Precipitación	0
161440	7	Sololá	719	Santiago Atitlán	14	Cerro de Oro	7	Julio	2023-07-19T00:00:00	2024-11-08T02:00:00	8	Radiación solar	0
161441	7	Sololá	719	Santiago Atitlán	14	Cerro de Oro	7	Julio	2023-07-19T00:00:00	2024-11-08T03:00:00	2	Temperatura media	19.9
161442	7	Sololá	719	Santiago Atitlán	14	Cerro de Oro	7	Julio	2023-07-19T00:00:00	2024-11-08T03:00:00	4	Temperatura máxima	20
161443	7	Sololá	719	Santiago Atitlán	14	Cerro de Oro	7	Julio	2023-07-19T00:00:00	2024-11-08T03:00:00	3	Temperatura mínima	19.7
161444	7	Sololá	719	Santiago Atitlán	14	Cerro de Oro	7	Julio	2023-07-19T00:00:00	2024-11-08T03:00:00	5	Humedad	51
161445	7	Sololá	719	Santiago Atitlán	14	Cerro de Oro	7	Julio	2023-07-19T00:00:00	2024-11-08T03:00:00	6	Velocidad del viento	6.4
161446	7	Sololá	719	Santiago Atitlán	14	Cerro de Oro	7	Julio	2023-07-19T00:00:00	2024-11-08T03:00:00	7	Dirección del viento	6.44
161447	7	Sololá	719	Santiago Atitlán	14	Cerro de Oro	7	Julio	2023-07-19T00:00:00	2024-11-08T03:00:00	1	Precipitación	0
161448	7	Sololá	719	Santiago Atitlán	14	Cerro de Oro	7	Julio	2023-07-19T00:00:00	2024-11-08T03:00:00	8	Radiación solar	0
161449	7	Sololá	719	Santiago Atitlán	14	Cerro de Oro	7	Julio	2023-07-19T00:00:00	2024-11-08T04:00:00	2	Temperatura media	20.1
161450	7	Sololá	719	Santiago Atitlán	14	Cerro de Oro	7	Julio	2023-07-19T00:00:00	2024-11-08T04:00:00	4	Temperatura máxima	20.6
161451	7	Sololá	719	Santiago Atitlán	14	Cerro de Oro	7	Julio	2023-07-19T00:00:00	2024-11-08T04:00:00	3	Temperatura mínima	19.9
161452	7	Sololá	719	Santiago Atitlán	14	Cerro de Oro	7	Julio	2023-07-19T00:00:00	2024-11-08T04:00:00	5	Humedad	48
161453	7	Sololá	719	Santiago Atitlán	14	Cerro de Oro	7	Julio	2023-07-19T00:00:00	2024-11-08T04:00:00	6	Velocidad del viento	9.7
161454	7	Sololá	719	Santiago Atitlán	14	Cerro de Oro	7	Julio	2023-07-19T00:00:00	2024-11-08T04:00:00	7	Dirección del viento	9.66
161455	7	Sololá	719	Santiago Atitlán	14	Cerro de Oro	7	Julio	2023-07-19T00:00:00	2024-11-08T04:00:00	1	Precipitación	0
161456	7	Sololá	719	Santiago Atitlán	14	Cerro de Oro	7	Julio	2023-07-19T00:00:00	2024-11-08T04:00:00	8	Radiación solar	0
161457	7	Sololá	719	Santiago Atitlán	14	Cerro de Oro	7	Julio	2023-07-19T00:00:00	2024-11-08T05:00:00	2	Temperatura media	19.7
161458	7	Sololá	719	Santiago Atitlán	14	Cerro de Oro	7	Julio	2023-07-19T00:00:00	2024-11-08T05:00:00	4	Temperatura máxima	20.1
161459	7	Sololá	719	Santiago Atitlán	14	Cerro de Oro	7	Julio	2023-07-19T00:00:00	2024-11-08T05:00:00	3	Temperatura mínima	19.6
161460	7	Sololá	719	Santiago Atitlán	14	Cerro de Oro	7	Julio	2023-07-19T00:00:00	2024-11-08T05:00:00	5	Humedad	53
161461	7	Sololá	719	Santiago Atitlán	14	Cerro de Oro	7	Julio	2023-07-19T00:00:00	2024-11-08T05:00:00	6	Velocidad del viento	11.3
161462	7	Sololá	719	Santiago Atitlán	14	Cerro de Oro	7	Julio	2023-07-19T00:00:00	2024-11-08T05:00:00	7	Dirección del viento	11.27
161463	7	Sololá	719	Santiago Atitlán	14	Cerro de Oro	7	Julio	2023-07-19T00:00:00	2024-11-08T05:00:00	1	Precipitación	0
161464	7	Sololá	719	Santiago Atitlán	14	Cerro de Oro	7	Julio	2023-07-19T00:00:00	2024-11-08T05:00:00	8	Radiación solar	0
161465	7	Sololá	719	Santiago Atitlán	14	Cerro de Oro	7	Julio	2023-07-19T00:00:00	2024-11-08T06:00:00	2	Temperatura media	19.5
161466	7	Sololá	719	Santiago Atitlán	14	Cerro de Oro	7	Julio	2023-07-19T00:00:00	2024-11-08T06:00:00	4	Temperatura máxima	20
161467	7	Sololá	719	Santiago Atitlán	14	Cerro de Oro	7	Julio	2023-07-19T00:00:00	2024-11-08T06:00:00	3	Temperatura mínima	19.4
161468	7	Sololá	719	Santiago Atitlán	14	Cerro de Oro	7	Julio	2023-07-19T00:00:00	2024-11-08T06:00:00	5	Humedad	61
161469	7	Sololá	719	Santiago Atitlán	14	Cerro de Oro	7	Julio	2023-07-19T00:00:00	2024-11-08T06:00:00	6	Velocidad del viento	9.7
161470	7	Sololá	719	Santiago Atitlán	14	Cerro de Oro	7	Julio	2023-07-19T00:00:00	2024-11-08T06:00:00	7	Dirección del viento	9.66
161471	7	Sololá	719	Santiago Atitlán	14	Cerro de Oro	7	Julio	2023-07-19T00:00:00	2024-11-08T06:00:00	1	Precipitación	0
161472	7	Sololá	719	Santiago Atitlán	14	Cerro de Oro	7	Julio	2023-07-19T00:00:00	2024-11-08T06:00:00	8	Radiación solar	2
161473	7	Sololá	719	Santiago Atitlán	14	Cerro de Oro	7	Julio	2023-07-19T00:00:00	2024-11-08T07:00:00	2	Temperatura media	20.4
161474	7	Sololá	719	Santiago Atitlán	14	Cerro de Oro	7	Julio	2023-07-19T00:00:00	2024-11-08T07:00:00	4	Temperatura máxima	20.4
161475	7	Sololá	719	Santiago Atitlán	14	Cerro de Oro	7	Julio	2023-07-19T00:00:00	2024-11-08T07:00:00	3	Temperatura mínima	19.4
161476	7	Sololá	719	Santiago Atitlán	14	Cerro de Oro	7	Julio	2023-07-19T00:00:00	2024-11-08T07:00:00	5	Humedad	63
161477	7	Sololá	719	Santiago Atitlán	14	Cerro de Oro	7	Julio	2023-07-19T00:00:00	2024-11-08T07:00:00	6	Velocidad del viento	9.7
161478	7	Sololá	719	Santiago Atitlán	14	Cerro de Oro	7	Julio	2023-07-19T00:00:00	2024-11-08T07:00:00	7	Dirección del viento	9.66
161479	7	Sololá	719	Santiago Atitlán	14	Cerro de Oro	7	Julio	2023-07-19T00:00:00	2024-11-08T07:00:00	1	Precipitación	0
161480	7	Sololá	719	Santiago Atitlán	14	Cerro de Oro	7	Julio	2023-07-19T00:00:00	2024-11-08T07:00:00	8	Radiación solar	94
161481	7	Sololá	719	Santiago Atitlán	14	Cerro de Oro	7	Julio	2023-07-19T00:00:00	2024-11-08T08:00:00	2	Temperatura media	20.9
161482	7	Sololá	719	Santiago Atitlán	14	Cerro de Oro	7	Julio	2023-07-19T00:00:00	2024-11-08T08:00:00	4	Temperatura máxima	20.9
161483	7	Sololá	719	Santiago Atitlán	14	Cerro de Oro	7	Julio	2023-07-19T00:00:00	2024-11-08T08:00:00	3	Temperatura mínima	20.2
161484	7	Sololá	719	Santiago Atitlán	14	Cerro de Oro	7	Julio	2023-07-19T00:00:00	2024-11-08T08:00:00	5	Humedad	63
161485	7	Sololá	719	Santiago Atitlán	14	Cerro de Oro	7	Julio	2023-07-19T00:00:00	2024-11-08T08:00:00	6	Velocidad del viento	4.8
161486	7	Sololá	719	Santiago Atitlán	14	Cerro de Oro	7	Julio	2023-07-19T00:00:00	2024-11-08T08:00:00	7	Dirección del viento	4.83
161487	7	Sololá	719	Santiago Atitlán	14	Cerro de Oro	7	Julio	2023-07-19T00:00:00	2024-11-08T08:00:00	1	Precipitación	0
161488	7	Sololá	719	Santiago Atitlán	14	Cerro de Oro	7	Julio	2023-07-19T00:00:00	2024-11-08T08:00:00	8	Radiación solar	195
161489	7	Sololá	719	Santiago Atitlán	14	Cerro de Oro	7	Julio	2023-07-19T00:00:00	2024-11-08T09:00:00	2	Temperatura media	22.9
161490	7	Sololá	719	Santiago Atitlán	14	Cerro de Oro	7	Julio	2023-07-19T00:00:00	2024-11-08T09:00:00	4	Temperatura máxima	22.9
161491	7	Sololá	719	Santiago Atitlán	14	Cerro de Oro	7	Julio	2023-07-19T00:00:00	2024-11-08T09:00:00	3	Temperatura mínima	20.9
161492	7	Sololá	719	Santiago Atitlán	14	Cerro de Oro	7	Julio	2023-07-19T00:00:00	2024-11-08T09:00:00	5	Humedad	58
161493	7	Sololá	719	Santiago Atitlán	14	Cerro de Oro	7	Julio	2023-07-19T00:00:00	2024-11-08T09:00:00	6	Velocidad del viento	6.4
161494	7	Sololá	719	Santiago Atitlán	14	Cerro de Oro	7	Julio	2023-07-19T00:00:00	2024-11-08T09:00:00	7	Dirección del viento	6.44
161495	7	Sololá	719	Santiago Atitlán	14	Cerro de Oro	7	Julio	2023-07-19T00:00:00	2024-11-08T09:00:00	1	Precipitación	0
161496	7	Sololá	719	Santiago Atitlán	14	Cerro de Oro	7	Julio	2023-07-19T00:00:00	2024-11-08T09:00:00	8	Radiación solar	550
161497	7	Sololá	719	Santiago Atitlán	14	Cerro de Oro	7	Julio	2023-07-19T00:00:00	2024-11-08T10:00:00	2	Temperatura media	23.9
161498	7	Sololá	719	Santiago Atitlán	14	Cerro de Oro	7	Julio	2023-07-19T00:00:00	2024-11-08T10:00:00	4	Temperatura máxima	24.1
161499	7	Sololá	719	Santiago Atitlán	14	Cerro de Oro	7	Julio	2023-07-19T00:00:00	2024-11-08T10:00:00	3	Temperatura mínima	22.9
161500	7	Sololá	719	Santiago Atitlán	14	Cerro de Oro	7	Julio	2023-07-19T00:00:00	2024-11-08T10:00:00	5	Humedad	56
161501	7	Sololá	719	Santiago Atitlán	14	Cerro de Oro	7	Julio	2023-07-19T00:00:00	2024-11-08T10:00:00	6	Velocidad del viento	4.8
161502	7	Sololá	719	Santiago Atitlán	14	Cerro de Oro	7	Julio	2023-07-19T00:00:00	2024-11-08T10:00:00	7	Dirección del viento	4.83
161503	7	Sololá	719	Santiago Atitlán	14	Cerro de Oro	7	Julio	2023-07-19T00:00:00	2024-11-08T10:00:00	1	Precipitación	0
161504	7	Sololá	719	Santiago Atitlán	14	Cerro de Oro	7	Julio	2023-07-19T00:00:00	2024-11-08T10:00:00	8	Radiación solar	714
161505	7	Sololá	719	Santiago Atitlán	14	Cerro de Oro	7	Julio	2023-07-19T00:00:00	2024-11-08T11:00:00	2	Temperatura media	24.2
161506	7	Sololá	719	Santiago Atitlán	14	Cerro de Oro	7	Julio	2023-07-19T00:00:00	2024-11-08T11:00:00	4	Temperatura máxima	24.4
161507	7	Sololá	719	Santiago Atitlán	14	Cerro de Oro	7	Julio	2023-07-19T00:00:00	2024-11-08T11:00:00	3	Temperatura mínima	23.8
161508	7	Sololá	719	Santiago Atitlán	14	Cerro de Oro	7	Julio	2023-07-19T00:00:00	2024-11-08T11:00:00	5	Humedad	53
161509	7	Sololá	719	Santiago Atitlán	14	Cerro de Oro	7	Julio	2023-07-19T00:00:00	2024-11-08T11:00:00	6	Velocidad del viento	6.4
161510	7	Sololá	719	Santiago Atitlán	14	Cerro de Oro	7	Julio	2023-07-19T00:00:00	2024-11-08T11:00:00	7	Dirección del viento	6.44
161511	7	Sololá	719	Santiago Atitlán	14	Cerro de Oro	7	Julio	2023-07-19T00:00:00	2024-11-08T11:00:00	1	Precipitación	0
161512	7	Sololá	719	Santiago Atitlán	14	Cerro de Oro	7	Julio	2023-07-19T00:00:00	2024-11-08T11:00:00	8	Radiación solar	812
161513	7	Sololá	719	Santiago Atitlán	14	Cerro de Oro	7	Julio	2023-07-19T00:00:00	2024-11-08T12:00:00	2	Temperatura media	24.8
161514	7	Sololá	719	Santiago Atitlán	14	Cerro de Oro	7	Julio	2023-07-19T00:00:00	2024-11-08T12:00:00	4	Temperatura máxima	24.9
161515	7	Sololá	719	Santiago Atitlán	14	Cerro de Oro	7	Julio	2023-07-19T00:00:00	2024-11-08T12:00:00	3	Temperatura mínima	24.2
161516	7	Sololá	719	Santiago Atitlán	14	Cerro de Oro	7	Julio	2023-07-19T00:00:00	2024-11-08T12:00:00	5	Humedad	57
161517	7	Sololá	719	Santiago Atitlán	14	Cerro de Oro	7	Julio	2023-07-19T00:00:00	2024-11-08T12:00:00	6	Velocidad del viento	12.9
161518	7	Sololá	719	Santiago Atitlán	14	Cerro de Oro	7	Julio	2023-07-19T00:00:00	2024-11-08T12:00:00	7	Dirección del viento	12.87
161519	7	Sololá	719	Santiago Atitlán	14	Cerro de Oro	7	Julio	2023-07-19T00:00:00	2024-11-08T12:00:00	1	Precipitación	0
161520	7	Sololá	719	Santiago Atitlán	14	Cerro de Oro	7	Julio	2023-07-19T00:00:00	2024-11-08T12:00:00	8	Radiación solar	897
161521	7	Sololá	719	Santiago Atitlán	14	Cerro de Oro	7	Julio	2023-07-19T00:00:00	2024-11-08T13:00:00	2	Temperatura media	25.4
161522	7	Sololá	719	Santiago Atitlán	14	Cerro de Oro	7	Julio	2023-07-19T00:00:00	2024-11-08T13:00:00	4	Temperatura máxima	25.4
161523	7	Sololá	719	Santiago Atitlán	14	Cerro de Oro	7	Julio	2023-07-19T00:00:00	2024-11-08T13:00:00	3	Temperatura mínima	24.7
161524	7	Sololá	719	Santiago Atitlán	14	Cerro de Oro	7	Julio	2023-07-19T00:00:00	2024-11-08T13:00:00	5	Humedad	50
161525	7	Sololá	719	Santiago Atitlán	14	Cerro de Oro	7	Julio	2023-07-19T00:00:00	2024-11-08T13:00:00	6	Velocidad del viento	16.1
161526	7	Sololá	719	Santiago Atitlán	14	Cerro de Oro	7	Julio	2023-07-19T00:00:00	2024-11-08T13:00:00	7	Dirección del viento	16.09
161527	7	Sololá	719	Santiago Atitlán	14	Cerro de Oro	7	Julio	2023-07-19T00:00:00	2024-11-08T13:00:00	1	Precipitación	0
161528	7	Sololá	719	Santiago Atitlán	14	Cerro de Oro	7	Julio	2023-07-19T00:00:00	2024-11-08T13:00:00	8	Radiación solar	916
161529	7	Sololá	719	Santiago Atitlán	14	Cerro de Oro	7	Julio	2023-07-19T00:00:00	2024-11-08T14:00:00	2	Temperatura media	26
161530	7	Sololá	719	Santiago Atitlán	14	Cerro de Oro	7	Julio	2023-07-19T00:00:00	2024-11-08T14:00:00	4	Temperatura máxima	26.1
161531	7	Sololá	719	Santiago Atitlán	14	Cerro de Oro	7	Julio	2023-07-19T00:00:00	2024-11-08T14:00:00	3	Temperatura mínima	25.4
161532	7	Sololá	719	Santiago Atitlán	14	Cerro de Oro	7	Julio	2023-07-19T00:00:00	2024-11-08T14:00:00	5	Humedad	51
161533	7	Sololá	719	Santiago Atitlán	14	Cerro de Oro	7	Julio	2023-07-19T00:00:00	2024-11-08T14:00:00	6	Velocidad del viento	12.9
161534	7	Sololá	719	Santiago Atitlán	14	Cerro de Oro	7	Julio	2023-07-19T00:00:00	2024-11-08T14:00:00	7	Dirección del viento	12.87
161535	7	Sololá	719	Santiago Atitlán	14	Cerro de Oro	7	Julio	2023-07-19T00:00:00	2024-11-08T14:00:00	1	Precipitación	0
161536	7	Sololá	719	Santiago Atitlán	14	Cerro de Oro	7	Julio	2023-07-19T00:00:00	2024-11-08T14:00:00	8	Radiación solar	902
161537	7	Sololá	719	Santiago Atitlán	14	Cerro de Oro	7	Julio	2023-07-19T00:00:00	2024-11-08T15:00:00	2	Temperatura media	25.4
161538	7	Sololá	719	Santiago Atitlán	14	Cerro de Oro	7	Julio	2023-07-19T00:00:00	2024-11-08T15:00:00	4	Temperatura máxima	26.3
161539	7	Sololá	719	Santiago Atitlán	14	Cerro de Oro	7	Julio	2023-07-19T00:00:00	2024-11-08T15:00:00	3	Temperatura mínima	25.3
161540	7	Sololá	719	Santiago Atitlán	14	Cerro de Oro	7	Julio	2023-07-19T00:00:00	2024-11-08T15:00:00	5	Humedad	53
161541	7	Sololá	719	Santiago Atitlán	14	Cerro de Oro	7	Julio	2023-07-19T00:00:00	2024-11-08T15:00:00	6	Velocidad del viento	11.3
161542	7	Sololá	719	Santiago Atitlán	14	Cerro de Oro	7	Julio	2023-07-19T00:00:00	2024-11-08T15:00:00	7	Dirección del viento	11.27
161543	7	Sololá	719	Santiago Atitlán	14	Cerro de Oro	7	Julio	2023-07-19T00:00:00	2024-11-08T15:00:00	1	Precipitación	0
161544	7	Sololá	719	Santiago Atitlán	14	Cerro de Oro	7	Julio	2023-07-19T00:00:00	2024-11-08T15:00:00	8	Radiación solar	548
161545	7	Sololá	719	Santiago Atitlán	14	Cerro de Oro	7	Julio	2023-07-19T00:00:00	2024-11-08T16:00:00	2	Temperatura media	24.9
161546	7	Sololá	719	Santiago Atitlán	14	Cerro de Oro	7	Julio	2023-07-19T00:00:00	2024-11-08T16:00:00	4	Temperatura máxima	25.4
161547	7	Sololá	719	Santiago Atitlán	14	Cerro de Oro	7	Julio	2023-07-19T00:00:00	2024-11-08T16:00:00	3	Temperatura mínima	24.9
161548	7	Sololá	719	Santiago Atitlán	14	Cerro de Oro	7	Julio	2023-07-19T00:00:00	2024-11-08T16:00:00	5	Humedad	57
161549	7	Sololá	719	Santiago Atitlán	14	Cerro de Oro	7	Julio	2023-07-19T00:00:00	2024-11-08T16:00:00	6	Velocidad del viento	11.3
161550	7	Sololá	719	Santiago Atitlán	14	Cerro de Oro	7	Julio	2023-07-19T00:00:00	2024-11-08T16:00:00	7	Dirección del viento	11.27
161551	7	Sololá	719	Santiago Atitlán	14	Cerro de Oro	7	Julio	2023-07-19T00:00:00	2024-11-08T16:00:00	1	Precipitación	0
161552	7	Sololá	719	Santiago Atitlán	14	Cerro de Oro	7	Julio	2023-07-19T00:00:00	2024-11-08T16:00:00	8	Radiación solar	251
161553	7	Sololá	719	Santiago Atitlán	14	Cerro de Oro	7	Julio	2023-07-19T00:00:00	2024-11-08T17:00:00	2	Temperatura media	24.8
161554	7	Sololá	719	Santiago Atitlán	14	Cerro de Oro	7	Julio	2023-07-19T00:00:00	2024-11-08T17:00:00	4	Temperatura máxima	25.1
161555	7	Sololá	719	Santiago Atitlán	14	Cerro de Oro	7	Julio	2023-07-19T00:00:00	2024-11-08T17:00:00	3	Temperatura mínima	24.7
161556	7	Sololá	719	Santiago Atitlán	14	Cerro de Oro	7	Julio	2023-07-19T00:00:00	2024-11-08T17:00:00	5	Humedad	55
161557	7	Sololá	719	Santiago Atitlán	14	Cerro de Oro	7	Julio	2023-07-19T00:00:00	2024-11-08T17:00:00	6	Velocidad del viento	8
161558	7	Sololá	719	Santiago Atitlán	14	Cerro de Oro	7	Julio	2023-07-19T00:00:00	2024-11-08T17:00:00	7	Dirección del viento	8.05
161559	7	Sololá	719	Santiago Atitlán	14	Cerro de Oro	7	Julio	2023-07-19T00:00:00	2024-11-08T17:00:00	1	Precipitación	0
161560	7	Sololá	719	Santiago Atitlán	14	Cerro de Oro	7	Julio	2023-07-19T00:00:00	2024-11-08T17:00:00	8	Radiación solar	224
161561	7	Sololá	719	Santiago Atitlán	14	Cerro de Oro	7	Julio	2023-07-19T00:00:00	2024-11-08T18:00:00	2	Temperatura media	24.1
161562	7	Sololá	719	Santiago Atitlán	14	Cerro de Oro	7	Julio	2023-07-19T00:00:00	2024-11-08T18:00:00	4	Temperatura máxima	24.8
161563	7	Sololá	719	Santiago Atitlán	14	Cerro de Oro	7	Julio	2023-07-19T00:00:00	2024-11-08T18:00:00	3	Temperatura mínima	24.1
161564	7	Sololá	719	Santiago Atitlán	14	Cerro de Oro	7	Julio	2023-07-19T00:00:00	2024-11-08T18:00:00	5	Humedad	59
161565	7	Sololá	719	Santiago Atitlán	14	Cerro de Oro	7	Julio	2023-07-19T00:00:00	2024-11-08T18:00:00	6	Velocidad del viento	8
161566	7	Sololá	719	Santiago Atitlán	14	Cerro de Oro	7	Julio	2023-07-19T00:00:00	2024-11-08T18:00:00	7	Dirección del viento	8.05
161567	7	Sololá	719	Santiago Atitlán	14	Cerro de Oro	7	Julio	2023-07-19T00:00:00	2024-11-08T18:00:00	1	Precipitación	0
161568	7	Sololá	719	Santiago Atitlán	14	Cerro de Oro	7	Julio	2023-07-19T00:00:00	2024-11-08T18:00:00	8	Radiación solar	89
161569	7	Sololá	719	Santiago Atitlán	14	Cerro de Oro	7	Julio	2023-07-19T00:00:00	2024-11-08T19:00:00	2	Temperatura media	23.2
161570	7	Sololá	719	Santiago Atitlán	14	Cerro de Oro	7	Julio	2023-07-19T00:00:00	2024-11-08T19:00:00	4	Temperatura máxima	24.1
161571	7	Sololá	719	Santiago Atitlán	14	Cerro de Oro	7	Julio	2023-07-19T00:00:00	2024-11-08T19:00:00	3	Temperatura mínima	23.2
161572	7	Sololá	719	Santiago Atitlán	14	Cerro de Oro	7	Julio	2023-07-19T00:00:00	2024-11-08T19:00:00	5	Humedad	65
161573	7	Sololá	719	Santiago Atitlán	14	Cerro de Oro	7	Julio	2023-07-19T00:00:00	2024-11-08T19:00:00	6	Velocidad del viento	6.4
161574	7	Sololá	719	Santiago Atitlán	14	Cerro de Oro	7	Julio	2023-07-19T00:00:00	2024-11-08T19:00:00	7	Dirección del viento	6.44
161575	7	Sololá	719	Santiago Atitlán	14	Cerro de Oro	7	Julio	2023-07-19T00:00:00	2024-11-08T19:00:00	1	Precipitación	0
161576	7	Sololá	719	Santiago Atitlán	14	Cerro de Oro	7	Julio	2023-07-19T00:00:00	2024-11-08T19:00:00	8	Radiación solar	0
161577	7	Sololá	719	Santiago Atitlán	14	Cerro de Oro	7	Julio	2023-07-19T00:00:00	2024-11-08T20:00:00	2	Temperatura media	22.4
161578	7	Sololá	719	Santiago Atitlán	14	Cerro de Oro	7	Julio	2023-07-19T00:00:00	2024-11-08T20:00:00	4	Temperatura máxima	23.2
161579	7	Sololá	719	Santiago Atitlán	14	Cerro de Oro	7	Julio	2023-07-19T00:00:00	2024-11-08T20:00:00	3	Temperatura mínima	22.4
161580	7	Sololá	719	Santiago Atitlán	14	Cerro de Oro	7	Julio	2023-07-19T00:00:00	2024-11-08T20:00:00	5	Humedad	68
161581	7	Sololá	719	Santiago Atitlán	14	Cerro de Oro	7	Julio	2023-07-19T00:00:00	2024-11-08T20:00:00	6	Velocidad del viento	11.3
161582	7	Sololá	719	Santiago Atitlán	14	Cerro de Oro	7	Julio	2023-07-19T00:00:00	2024-11-08T20:00:00	7	Dirección del viento	11.27
161583	7	Sololá	719	Santiago Atitlán	14	Cerro de Oro	7	Julio	2023-07-19T00:00:00	2024-11-08T20:00:00	1	Precipitación	0
161584	7	Sololá	719	Santiago Atitlán	14	Cerro de Oro	7	Julio	2023-07-19T00:00:00	2024-11-08T20:00:00	8	Radiación solar	0
161585	7	Sololá	719	Santiago Atitlán	14	Cerro de Oro	7	Julio	2023-07-19T00:00:00	2024-11-08T21:00:00	2	Temperatura media	22.1
161586	7	Sololá	719	Santiago Atitlán	14	Cerro de Oro	7	Julio	2023-07-19T00:00:00	2024-11-08T21:00:00	4	Temperatura máxima	22.4
161587	7	Sololá	719	Santiago Atitlán	14	Cerro de Oro	7	Julio	2023-07-19T00:00:00	2024-11-08T21:00:00	3	Temperatura mínima	22.1
161588	7	Sololá	719	Santiago Atitlán	14	Cerro de Oro	7	Julio	2023-07-19T00:00:00	2024-11-08T21:00:00	5	Humedad	68
161589	7	Sololá	719	Santiago Atitlán	14	Cerro de Oro	7	Julio	2023-07-19T00:00:00	2024-11-08T21:00:00	6	Velocidad del viento	11.3
161590	7	Sololá	719	Santiago Atitlán	14	Cerro de Oro	7	Julio	2023-07-19T00:00:00	2024-11-08T21:00:00	7	Dirección del viento	11.27
161591	7	Sololá	719	Santiago Atitlán	14	Cerro de Oro	7	Julio	2023-07-19T00:00:00	2024-11-08T21:00:00	1	Precipitación	0
161592	7	Sololá	719	Santiago Atitlán	14	Cerro de Oro	7	Julio	2023-07-19T00:00:00	2024-11-08T21:00:00	8	Radiación solar	0
161593	7	Sololá	719	Santiago Atitlán	14	Cerro de Oro	7	Julio	2023-07-19T00:00:00	2024-11-08T22:00:00	2	Temperatura media	20.8
161594	7	Sololá	719	Santiago Atitlán	14	Cerro de Oro	7	Julio	2023-07-19T00:00:00	2024-11-08T22:00:00	4	Temperatura máxima	22.1
161595	7	Sololá	719	Santiago Atitlán	14	Cerro de Oro	7	Julio	2023-07-19T00:00:00	2024-11-08T22:00:00	3	Temperatura mínima	20.5
161596	7	Sololá	719	Santiago Atitlán	14	Cerro de Oro	7	Julio	2023-07-19T00:00:00	2024-11-08T22:00:00	5	Humedad	71
161597	7	Sololá	719	Santiago Atitlán	14	Cerro de Oro	7	Julio	2023-07-19T00:00:00	2024-11-08T22:00:00	6	Velocidad del viento	4.8
161598	7	Sololá	719	Santiago Atitlán	14	Cerro de Oro	7	Julio	2023-07-19T00:00:00	2024-11-08T22:00:00	7	Dirección del viento	4.83
161599	7	Sololá	719	Santiago Atitlán	14	Cerro de Oro	7	Julio	2023-07-19T00:00:00	2024-11-08T22:00:00	1	Precipitación	0
161600	7	Sololá	719	Santiago Atitlán	14	Cerro de Oro	7	Julio	2023-07-19T00:00:00	2024-11-08T22:00:00	8	Radiación solar	0
161601	7	Sololá	719	Santiago Atitlán	14	Cerro de Oro	7	Julio	2023-07-19T00:00:00	2024-11-08T23:00:00	2	Temperatura media	21
161602	7	Sololá	719	Santiago Atitlán	14	Cerro de Oro	7	Julio	2023-07-19T00:00:00	2024-11-08T23:00:00	4	Temperatura máxima	21.3
161603	7	Sololá	719	Santiago Atitlán	14	Cerro de Oro	7	Julio	2023-07-19T00:00:00	2024-11-08T23:00:00	3	Temperatura mínima	20.7
161604	7	Sololá	719	Santiago Atitlán	14	Cerro de Oro	7	Julio	2023-07-19T00:00:00	2024-11-08T23:00:00	5	Humedad	71
161605	7	Sololá	719	Santiago Atitlán	14	Cerro de Oro	7	Julio	2023-07-19T00:00:00	2024-11-08T23:00:00	6	Velocidad del viento	4.8
161606	7	Sololá	719	Santiago Atitlán	14	Cerro de Oro	7	Julio	2023-07-19T00:00:00	2024-11-08T23:00:00	7	Dirección del viento	4.83
161607	7	Sololá	719	Santiago Atitlán	14	Cerro de Oro	7	Julio	2023-07-19T00:00:00	2024-11-08T23:00:00	1	Precipitación	0
161608	7	Sololá	719	Santiago Atitlán	14	Cerro de Oro	7	Julio	2023-07-19T00:00:00	2024-11-08T23:00:00	8	Radiación solar	0
161609	7	Sololá	719	Santiago Atitlán	14	Cerro de Oro	7	Julio	2023-07-20T00:00:00	2024-11-08T00:00:00	2	Temperatura media	20.9
161610	7	Sololá	719	Santiago Atitlán	14	Cerro de Oro	7	Julio	2023-07-20T00:00:00	2024-11-08T00:00:00	4	Temperatura máxima	21.6
161611	7	Sololá	719	Santiago Atitlán	14	Cerro de Oro	7	Julio	2023-07-20T00:00:00	2024-11-08T00:00:00	3	Temperatura mínima	20.7
161612	7	Sololá	719	Santiago Atitlán	14	Cerro de Oro	7	Julio	2023-07-20T00:00:00	2024-11-08T00:00:00	5	Humedad	73
161613	7	Sololá	719	Santiago Atitlán	14	Cerro de Oro	7	Julio	2023-07-20T00:00:00	2024-11-08T00:00:00	6	Velocidad del viento	4.8
161614	7	Sololá	719	Santiago Atitlán	14	Cerro de Oro	7	Julio	2023-07-20T00:00:00	2024-11-08T00:00:00	7	Dirección del viento	4.83
161615	7	Sololá	719	Santiago Atitlán	14	Cerro de Oro	7	Julio	2023-07-20T00:00:00	2024-11-08T00:00:00	1	Precipitación	0
161616	7	Sololá	719	Santiago Atitlán	14	Cerro de Oro	7	Julio	2023-07-20T00:00:00	2024-11-08T00:00:00	8	Radiación solar	0
161617	7	Sololá	719	Santiago Atitlán	14	Cerro de Oro	7	Julio	2023-07-20T00:00:00	2024-11-08T01:00:00	2	Temperatura media	19.7
161618	7	Sololá	719	Santiago Atitlán	14	Cerro de Oro	7	Julio	2023-07-20T00:00:00	2024-11-08T01:00:00	4	Temperatura máxima	21.2
161619	7	Sololá	719	Santiago Atitlán	14	Cerro de Oro	7	Julio	2023-07-20T00:00:00	2024-11-08T01:00:00	3	Temperatura mínima	19.7
161620	7	Sololá	719	Santiago Atitlán	14	Cerro de Oro	7	Julio	2023-07-20T00:00:00	2024-11-08T01:00:00	5	Humedad	74
161621	7	Sololá	719	Santiago Atitlán	14	Cerro de Oro	7	Julio	2023-07-20T00:00:00	2024-11-08T01:00:00	6	Velocidad del viento	6.4
161622	7	Sololá	719	Santiago Atitlán	14	Cerro de Oro	7	Julio	2023-07-20T00:00:00	2024-11-08T01:00:00	7	Dirección del viento	6.44
161623	7	Sololá	719	Santiago Atitlán	14	Cerro de Oro	7	Julio	2023-07-20T00:00:00	2024-11-08T01:00:00	1	Precipitación	0
161624	7	Sololá	719	Santiago Atitlán	14	Cerro de Oro	7	Julio	2023-07-20T00:00:00	2024-11-08T01:00:00	8	Radiación solar	0
161625	7	Sololá	719	Santiago Atitlán	14	Cerro de Oro	7	Julio	2023-07-20T00:00:00	2024-11-08T02:00:00	2	Temperatura media	20.2
161626	7	Sololá	719	Santiago Atitlán	14	Cerro de Oro	7	Julio	2023-07-20T00:00:00	2024-11-08T02:00:00	4	Temperatura máxima	20.6
161627	7	Sololá	719	Santiago Atitlán	14	Cerro de Oro	7	Julio	2023-07-20T00:00:00	2024-11-08T02:00:00	3	Temperatura mínima	19.2
161628	7	Sololá	719	Santiago Atitlán	14	Cerro de Oro	7	Julio	2023-07-20T00:00:00	2024-11-08T02:00:00	5	Humedad	73
161629	7	Sololá	719	Santiago Atitlán	14	Cerro de Oro	7	Julio	2023-07-20T00:00:00	2024-11-08T02:00:00	6	Velocidad del viento	3.2
161630	7	Sololá	719	Santiago Atitlán	14	Cerro de Oro	7	Julio	2023-07-20T00:00:00	2024-11-08T02:00:00	7	Dirección del viento	3.22
161631	7	Sololá	719	Santiago Atitlán	14	Cerro de Oro	7	Julio	2023-07-20T00:00:00	2024-11-08T02:00:00	1	Precipitación	0
161632	7	Sololá	719	Santiago Atitlán	14	Cerro de Oro	7	Julio	2023-07-20T00:00:00	2024-11-08T02:00:00	8	Radiación solar	0
161633	7	Sololá	719	Santiago Atitlán	14	Cerro de Oro	7	Julio	2023-07-20T00:00:00	2024-11-08T03:00:00	2	Temperatura media	19.6
161634	7	Sololá	719	Santiago Atitlán	14	Cerro de Oro	7	Julio	2023-07-20T00:00:00	2024-11-08T03:00:00	4	Temperatura máxima	20.2
161635	7	Sololá	719	Santiago Atitlán	14	Cerro de Oro	7	Julio	2023-07-20T00:00:00	2024-11-08T03:00:00	3	Temperatura mínima	19.3
161636	7	Sololá	719	Santiago Atitlán	14	Cerro de Oro	7	Julio	2023-07-20T00:00:00	2024-11-08T03:00:00	5	Humedad	74
161637	7	Sololá	719	Santiago Atitlán	14	Cerro de Oro	7	Julio	2023-07-20T00:00:00	2024-11-08T03:00:00	6	Velocidad del viento	6.4
161638	7	Sololá	719	Santiago Atitlán	14	Cerro de Oro	7	Julio	2023-07-20T00:00:00	2024-11-08T03:00:00	7	Dirección del viento	6.44
161639	7	Sololá	719	Santiago Atitlán	14	Cerro de Oro	7	Julio	2023-07-20T00:00:00	2024-11-08T03:00:00	1	Precipitación	0
161640	7	Sololá	719	Santiago Atitlán	14	Cerro de Oro	7	Julio	2023-07-20T00:00:00	2024-11-08T03:00:00	8	Radiación solar	0
161641	7	Sololá	719	Santiago Atitlán	14	Cerro de Oro	7	Julio	2023-07-20T00:00:00	2024-11-08T04:00:00	2	Temperatura media	19.7
161642	7	Sololá	719	Santiago Atitlán	14	Cerro de Oro	7	Julio	2023-07-20T00:00:00	2024-11-08T04:00:00	4	Temperatura máxima	20.4
161643	7	Sololá	719	Santiago Atitlán	14	Cerro de Oro	7	Julio	2023-07-20T00:00:00	2024-11-08T04:00:00	3	Temperatura mínima	19.6
161644	7	Sololá	719	Santiago Atitlán	14	Cerro de Oro	7	Julio	2023-07-20T00:00:00	2024-11-08T04:00:00	5	Humedad	73
161645	7	Sololá	719	Santiago Atitlán	14	Cerro de Oro	7	Julio	2023-07-20T00:00:00	2024-11-08T04:00:00	6	Velocidad del viento	4.8
161646	7	Sololá	719	Santiago Atitlán	14	Cerro de Oro	7	Julio	2023-07-20T00:00:00	2024-11-08T04:00:00	7	Dirección del viento	4.83
161647	7	Sololá	719	Santiago Atitlán	14	Cerro de Oro	7	Julio	2023-07-20T00:00:00	2024-11-08T04:00:00	1	Precipitación	0
161648	7	Sololá	719	Santiago Atitlán	14	Cerro de Oro	7	Julio	2023-07-20T00:00:00	2024-11-08T04:00:00	8	Radiación solar	0
161649	7	Sololá	719	Santiago Atitlán	14	Cerro de Oro	7	Julio	2023-07-20T00:00:00	2024-11-08T05:00:00	2	Temperatura media	19.4
161650	7	Sololá	719	Santiago Atitlán	14	Cerro de Oro	7	Julio	2023-07-20T00:00:00	2024-11-08T05:00:00	4	Temperatura máxima	20.6
161651	7	Sololá	719	Santiago Atitlán	14	Cerro de Oro	7	Julio	2023-07-20T00:00:00	2024-11-08T05:00:00	3	Temperatura mínima	19.3
161652	7	Sololá	719	Santiago Atitlán	14	Cerro de Oro	7	Julio	2023-07-20T00:00:00	2024-11-08T05:00:00	5	Humedad	73
161653	7	Sololá	719	Santiago Atitlán	14	Cerro de Oro	7	Julio	2023-07-20T00:00:00	2024-11-08T05:00:00	6	Velocidad del viento	4.8
161654	7	Sololá	719	Santiago Atitlán	14	Cerro de Oro	7	Julio	2023-07-20T00:00:00	2024-11-08T05:00:00	7	Dirección del viento	4.83
161655	7	Sololá	719	Santiago Atitlán	14	Cerro de Oro	7	Julio	2023-07-20T00:00:00	2024-11-08T05:00:00	1	Precipitación	0
161656	7	Sololá	719	Santiago Atitlán	14	Cerro de Oro	7	Julio	2023-07-20T00:00:00	2024-11-08T05:00:00	8	Radiación solar	0
161657	7	Sololá	719	Santiago Atitlán	14	Cerro de Oro	7	Julio	2023-07-20T00:00:00	2024-11-08T06:00:00	2	Temperatura media	19.5
161658	7	Sololá	719	Santiago Atitlán	14	Cerro de Oro	7	Julio	2023-07-20T00:00:00	2024-11-08T06:00:00	4	Temperatura máxima	20.7
161659	7	Sololá	719	Santiago Atitlán	14	Cerro de Oro	7	Julio	2023-07-20T00:00:00	2024-11-08T06:00:00	3	Temperatura mínima	19.4
161660	7	Sololá	719	Santiago Atitlán	14	Cerro de Oro	7	Julio	2023-07-20T00:00:00	2024-11-08T06:00:00	5	Humedad	75
161661	7	Sololá	719	Santiago Atitlán	14	Cerro de Oro	7	Julio	2023-07-20T00:00:00	2024-11-08T06:00:00	6	Velocidad del viento	4.8
161662	7	Sololá	719	Santiago Atitlán	14	Cerro de Oro	7	Julio	2023-07-20T00:00:00	2024-11-08T06:00:00	7	Dirección del viento	4.83
161663	7	Sololá	719	Santiago Atitlán	14	Cerro de Oro	7	Julio	2023-07-20T00:00:00	2024-11-08T06:00:00	1	Precipitación	0
161664	7	Sololá	719	Santiago Atitlán	14	Cerro de Oro	7	Julio	2023-07-20T00:00:00	2024-11-08T06:00:00	8	Radiación solar	2
161665	7	Sololá	719	Santiago Atitlán	14	Cerro de Oro	7	Julio	2023-07-20T00:00:00	2024-11-08T07:00:00	2	Temperatura media	21.1
161666	7	Sololá	719	Santiago Atitlán	14	Cerro de Oro	7	Julio	2023-07-20T00:00:00	2024-11-08T07:00:00	4	Temperatura máxima	21.2
161667	7	Sololá	719	Santiago Atitlán	14	Cerro de Oro	7	Julio	2023-07-20T00:00:00	2024-11-08T07:00:00	3	Temperatura mínima	19.4
161668	7	Sololá	719	Santiago Atitlán	14	Cerro de Oro	7	Julio	2023-07-20T00:00:00	2024-11-08T07:00:00	5	Humedad	70
161669	7	Sololá	719	Santiago Atitlán	14	Cerro de Oro	7	Julio	2023-07-20T00:00:00	2024-11-08T07:00:00	6	Velocidad del viento	3.2
161670	7	Sololá	719	Santiago Atitlán	14	Cerro de Oro	7	Julio	2023-07-20T00:00:00	2024-11-08T07:00:00	7	Dirección del viento	3.22
161671	7	Sololá	719	Santiago Atitlán	14	Cerro de Oro	7	Julio	2023-07-20T00:00:00	2024-11-08T07:00:00	1	Precipitación	0
161672	7	Sololá	719	Santiago Atitlán	14	Cerro de Oro	7	Julio	2023-07-20T00:00:00	2024-11-08T07:00:00	8	Radiación solar	75
161673	7	Sololá	719	Santiago Atitlán	14	Cerro de Oro	7	Julio	2023-07-20T00:00:00	2024-11-08T08:00:00	2	Temperatura media	23.1
161674	7	Sololá	719	Santiago Atitlán	14	Cerro de Oro	7	Julio	2023-07-20T00:00:00	2024-11-08T08:00:00	4	Temperatura máxima	23.2
161675	7	Sololá	719	Santiago Atitlán	14	Cerro de Oro	7	Julio	2023-07-20T00:00:00	2024-11-08T08:00:00	3	Temperatura mínima	21.2
161676	7	Sololá	719	Santiago Atitlán	14	Cerro de Oro	7	Julio	2023-07-20T00:00:00	2024-11-08T08:00:00	5	Humedad	62
161677	7	Sololá	719	Santiago Atitlán	14	Cerro de Oro	7	Julio	2023-07-20T00:00:00	2024-11-08T08:00:00	6	Velocidad del viento	3.2
161678	7	Sololá	719	Santiago Atitlán	14	Cerro de Oro	7	Julio	2023-07-20T00:00:00	2024-11-08T08:00:00	7	Dirección del viento	3.22
161679	7	Sololá	719	Santiago Atitlán	14	Cerro de Oro	7	Julio	2023-07-20T00:00:00	2024-11-08T08:00:00	1	Precipitación	0
161680	7	Sololá	719	Santiago Atitlán	14	Cerro de Oro	7	Julio	2023-07-20T00:00:00	2024-11-08T08:00:00	8	Radiación solar	275
161681	7	Sololá	719	Santiago Atitlán	14	Cerro de Oro	7	Julio	2023-07-20T00:00:00	2024-11-08T09:00:00	2	Temperatura media	23.4
161682	7	Sololá	719	Santiago Atitlán	14	Cerro de Oro	7	Julio	2023-07-20T00:00:00	2024-11-08T09:00:00	4	Temperatura máxima	23.5
161683	7	Sololá	719	Santiago Atitlán	14	Cerro de Oro	7	Julio	2023-07-20T00:00:00	2024-11-08T09:00:00	3	Temperatura mínima	22.9
161684	7	Sololá	719	Santiago Atitlán	14	Cerro de Oro	7	Julio	2023-07-20T00:00:00	2024-11-08T09:00:00	5	Humedad	64
161685	7	Sololá	719	Santiago Atitlán	14	Cerro de Oro	7	Julio	2023-07-20T00:00:00	2024-11-08T09:00:00	6	Velocidad del viento	4.8
161686	7	Sololá	719	Santiago Atitlán	14	Cerro de Oro	7	Julio	2023-07-20T00:00:00	2024-11-08T09:00:00	7	Dirección del viento	4.83
161687	7	Sololá	719	Santiago Atitlán	14	Cerro de Oro	7	Julio	2023-07-20T00:00:00	2024-11-08T09:00:00	1	Precipitación	0
161688	7	Sololá	719	Santiago Atitlán	14	Cerro de Oro	7	Julio	2023-07-20T00:00:00	2024-11-08T09:00:00	8	Radiación solar	483
161689	7	Sololá	719	Santiago Atitlán	14	Cerro de Oro	7	Julio	2023-07-20T00:00:00	2024-11-08T10:00:00	2	Temperatura media	24.7
161690	7	Sololá	719	Santiago Atitlán	14	Cerro de Oro	7	Julio	2023-07-20T00:00:00	2024-11-08T10:00:00	4	Temperatura máxima	24.7
161691	7	Sololá	719	Santiago Atitlán	14	Cerro de Oro	7	Julio	2023-07-20T00:00:00	2024-11-08T10:00:00	3	Temperatura mínima	23.5
161692	7	Sololá	719	Santiago Atitlán	14	Cerro de Oro	7	Julio	2023-07-20T00:00:00	2024-11-08T10:00:00	5	Humedad	61
161693	7	Sololá	719	Santiago Atitlán	14	Cerro de Oro	7	Julio	2023-07-20T00:00:00	2024-11-08T10:00:00	6	Velocidad del viento	3.2
161694	7	Sololá	719	Santiago Atitlán	14	Cerro de Oro	7	Julio	2023-07-20T00:00:00	2024-11-08T10:00:00	7	Dirección del viento	3.22
161695	7	Sololá	719	Santiago Atitlán	14	Cerro de Oro	7	Julio	2023-07-20T00:00:00	2024-11-08T10:00:00	1	Precipitación	0
161696	7	Sololá	719	Santiago Atitlán	14	Cerro de Oro	7	Julio	2023-07-20T00:00:00	2024-11-08T10:00:00	8	Radiación solar	689
161697	7	Sololá	719	Santiago Atitlán	14	Cerro de Oro	7	Julio	2023-07-20T00:00:00	2024-11-08T11:00:00	2	Temperatura media	25.7
161698	7	Sololá	719	Santiago Atitlán	14	Cerro de Oro	7	Julio	2023-07-20T00:00:00	2024-11-08T11:00:00	4	Temperatura máxima	25.7
161699	7	Sololá	719	Santiago Atitlán	14	Cerro de Oro	7	Julio	2023-07-20T00:00:00	2024-11-08T11:00:00	3	Temperatura mínima	24.6
161700	7	Sololá	719	Santiago Atitlán	14	Cerro de Oro	7	Julio	2023-07-20T00:00:00	2024-11-08T11:00:00	5	Humedad	59
161701	7	Sololá	719	Santiago Atitlán	14	Cerro de Oro	7	Julio	2023-07-20T00:00:00	2024-11-08T11:00:00	6	Velocidad del viento	4.8
161702	7	Sololá	719	Santiago Atitlán	14	Cerro de Oro	7	Julio	2023-07-20T00:00:00	2024-11-08T11:00:00	7	Dirección del viento	4.83
161703	7	Sololá	719	Santiago Atitlán	14	Cerro de Oro	7	Julio	2023-07-20T00:00:00	2024-11-08T11:00:00	1	Precipitación	0
161704	7	Sololá	719	Santiago Atitlán	14	Cerro de Oro	7	Julio	2023-07-20T00:00:00	2024-11-08T11:00:00	8	Radiación solar	827
161705	7	Sololá	719	Santiago Atitlán	14	Cerro de Oro	7	Julio	2023-07-20T00:00:00	2024-11-08T12:00:00	2	Temperatura media	25.8
161706	7	Sololá	719	Santiago Atitlán	14	Cerro de Oro	7	Julio	2023-07-20T00:00:00	2024-11-08T12:00:00	4	Temperatura máxima	25.9
161707	7	Sololá	719	Santiago Atitlán	14	Cerro de Oro	7	Julio	2023-07-20T00:00:00	2024-11-08T12:00:00	3	Temperatura mínima	25.2
161708	7	Sololá	719	Santiago Atitlán	14	Cerro de Oro	7	Julio	2023-07-20T00:00:00	2024-11-08T12:00:00	5	Humedad	59
161709	7	Sololá	719	Santiago Atitlán	14	Cerro de Oro	7	Julio	2023-07-20T00:00:00	2024-11-08T12:00:00	6	Velocidad del viento	12.9
161710	7	Sololá	719	Santiago Atitlán	14	Cerro de Oro	7	Julio	2023-07-20T00:00:00	2024-11-08T12:00:00	7	Dirección del viento	12.87
161711	7	Sololá	719	Santiago Atitlán	14	Cerro de Oro	7	Julio	2023-07-20T00:00:00	2024-11-08T12:00:00	1	Precipitación	0
161712	7	Sololá	719	Santiago Atitlán	14	Cerro de Oro	7	Julio	2023-07-20T00:00:00	2024-11-08T12:00:00	8	Radiación solar	932
161713	7	Sololá	719	Santiago Atitlán	14	Cerro de Oro	7	Julio	2023-07-20T00:00:00	2024-11-08T13:00:00	2	Temperatura media	25.9
161714	7	Sololá	719	Santiago Atitlán	14	Cerro de Oro	7	Julio	2023-07-20T00:00:00	2024-11-08T13:00:00	4	Temperatura máxima	26.3
161715	7	Sololá	719	Santiago Atitlán	14	Cerro de Oro	7	Julio	2023-07-20T00:00:00	2024-11-08T13:00:00	3	Temperatura mínima	25.3
161716	7	Sololá	719	Santiago Atitlán	14	Cerro de Oro	7	Julio	2023-07-20T00:00:00	2024-11-08T13:00:00	5	Humedad	54
161717	7	Sololá	719	Santiago Atitlán	14	Cerro de Oro	7	Julio	2023-07-20T00:00:00	2024-11-08T13:00:00	6	Velocidad del viento	12.9
161718	7	Sololá	719	Santiago Atitlán	14	Cerro de Oro	7	Julio	2023-07-20T00:00:00	2024-11-08T13:00:00	7	Dirección del viento	12.87
161719	7	Sololá	719	Santiago Atitlán	14	Cerro de Oro	7	Julio	2023-07-20T00:00:00	2024-11-08T13:00:00	1	Precipitación	0
161720	7	Sololá	719	Santiago Atitlán	14	Cerro de Oro	7	Julio	2023-07-20T00:00:00	2024-11-08T13:00:00	8	Radiación solar	911
161721	7	Sololá	719	Santiago Atitlán	14	Cerro de Oro	7	Julio	2023-07-20T00:00:00	2024-11-08T14:00:00	2	Temperatura media	26.5
161722	7	Sololá	719	Santiago Atitlán	14	Cerro de Oro	7	Julio	2023-07-20T00:00:00	2024-11-08T14:00:00	4	Temperatura máxima	26.6
161723	7	Sololá	719	Santiago Atitlán	14	Cerro de Oro	7	Julio	2023-07-20T00:00:00	2024-11-08T14:00:00	3	Temperatura mínima	25.9
161724	7	Sololá	719	Santiago Atitlán	14	Cerro de Oro	7	Julio	2023-07-20T00:00:00	2024-11-08T14:00:00	5	Humedad	56
161725	7	Sololá	719	Santiago Atitlán	14	Cerro de Oro	7	Julio	2023-07-20T00:00:00	2024-11-08T14:00:00	6	Velocidad del viento	12.9
161726	7	Sololá	719	Santiago Atitlán	14	Cerro de Oro	7	Julio	2023-07-20T00:00:00	2024-11-08T14:00:00	7	Dirección del viento	12.87
161727	7	Sololá	719	Santiago Atitlán	14	Cerro de Oro	7	Julio	2023-07-20T00:00:00	2024-11-08T14:00:00	1	Precipitación	0
161728	7	Sololá	719	Santiago Atitlán	14	Cerro de Oro	7	Julio	2023-07-20T00:00:00	2024-11-08T14:00:00	8	Radiación solar	872
161729	7	Sololá	719	Santiago Atitlán	14	Cerro de Oro	7	Julio	2023-07-20T00:00:00	2024-11-08T15:00:00	2	Temperatura media	26.2
161730	7	Sololá	719	Santiago Atitlán	14	Cerro de Oro	7	Julio	2023-07-20T00:00:00	2024-11-08T15:00:00	4	Temperatura máxima	26.6
161731	7	Sololá	719	Santiago Atitlán	14	Cerro de Oro	7	Julio	2023-07-20T00:00:00	2024-11-08T15:00:00	3	Temperatura mínima	26.1
161732	7	Sololá	719	Santiago Atitlán	14	Cerro de Oro	7	Julio	2023-07-20T00:00:00	2024-11-08T15:00:00	5	Humedad	53
161733	7	Sololá	719	Santiago Atitlán	14	Cerro de Oro	7	Julio	2023-07-20T00:00:00	2024-11-08T15:00:00	6	Velocidad del viento	12.9
161734	7	Sololá	719	Santiago Atitlán	14	Cerro de Oro	7	Julio	2023-07-20T00:00:00	2024-11-08T15:00:00	7	Dirección del viento	12.87
161735	7	Sololá	719	Santiago Atitlán	14	Cerro de Oro	7	Julio	2023-07-20T00:00:00	2024-11-08T15:00:00	1	Precipitación	0
161736	7	Sololá	719	Santiago Atitlán	14	Cerro de Oro	7	Julio	2023-07-20T00:00:00	2024-11-08T15:00:00	8	Radiación solar	668
161737	7	Sololá	719	Santiago Atitlán	14	Cerro de Oro	7	Julio	2023-07-20T00:00:00	2024-11-08T16:00:00	2	Temperatura media	25.6
161738	7	Sololá	719	Santiago Atitlán	14	Cerro de Oro	7	Julio	2023-07-20T00:00:00	2024-11-08T16:00:00	4	Temperatura máxima	26.3
161739	7	Sololá	719	Santiago Atitlán	14	Cerro de Oro	7	Julio	2023-07-20T00:00:00	2024-11-08T16:00:00	3	Temperatura mínima	25.1
161740	7	Sololá	719	Santiago Atitlán	14	Cerro de Oro	7	Julio	2023-07-20T00:00:00	2024-11-08T16:00:00	5	Humedad	58
161741	7	Sololá	719	Santiago Atitlán	14	Cerro de Oro	7	Julio	2023-07-20T00:00:00	2024-11-08T16:00:00	6	Velocidad del viento	14.5
161742	7	Sololá	719	Santiago Atitlán	14	Cerro de Oro	7	Julio	2023-07-20T00:00:00	2024-11-08T16:00:00	7	Dirección del viento	14.48
161743	7	Sololá	719	Santiago Atitlán	14	Cerro de Oro	7	Julio	2023-07-20T00:00:00	2024-11-08T16:00:00	1	Precipitación	0
161744	7	Sololá	719	Santiago Atitlán	14	Cerro de Oro	7	Julio	2023-07-20T00:00:00	2024-11-08T16:00:00	8	Radiación solar	387
161745	7	Sololá	719	Santiago Atitlán	14	Cerro de Oro	7	Julio	2023-07-20T00:00:00	2024-11-08T17:00:00	2	Temperatura media	25.2
161746	7	Sololá	719	Santiago Atitlán	14	Cerro de Oro	7	Julio	2023-07-20T00:00:00	2024-11-08T17:00:00	4	Temperatura máxima	25.7
161747	7	Sololá	719	Santiago Atitlán	14	Cerro de Oro	7	Julio	2023-07-20T00:00:00	2024-11-08T17:00:00	3	Temperatura mínima	25.1
161748	7	Sololá	719	Santiago Atitlán	14	Cerro de Oro	7	Julio	2023-07-20T00:00:00	2024-11-08T17:00:00	5	Humedad	58
161749	7	Sololá	719	Santiago Atitlán	14	Cerro de Oro	7	Julio	2023-07-20T00:00:00	2024-11-08T17:00:00	6	Velocidad del viento	17.7
161750	7	Sololá	719	Santiago Atitlán	14	Cerro de Oro	7	Julio	2023-07-20T00:00:00	2024-11-08T17:00:00	7	Dirección del viento	17.7
161751	7	Sololá	719	Santiago Atitlán	14	Cerro de Oro	7	Julio	2023-07-20T00:00:00	2024-11-08T17:00:00	1	Precipitación	0
161752	7	Sololá	719	Santiago Atitlán	14	Cerro de Oro	7	Julio	2023-07-20T00:00:00	2024-11-08T17:00:00	8	Radiación solar	375
161753	7	Sololá	719	Santiago Atitlán	14	Cerro de Oro	7	Julio	2023-07-20T00:00:00	2024-11-08T18:00:00	2	Temperatura media	24.6
161754	7	Sololá	719	Santiago Atitlán	14	Cerro de Oro	7	Julio	2023-07-20T00:00:00	2024-11-08T18:00:00	4	Temperatura máxima	25.5
161755	7	Sololá	719	Santiago Atitlán	14	Cerro de Oro	7	Julio	2023-07-20T00:00:00	2024-11-08T18:00:00	3	Temperatura mínima	24.6
161756	7	Sololá	719	Santiago Atitlán	14	Cerro de Oro	7	Julio	2023-07-20T00:00:00	2024-11-08T18:00:00	5	Humedad	60
161757	7	Sololá	719	Santiago Atitlán	14	Cerro de Oro	7	Julio	2023-07-20T00:00:00	2024-11-08T18:00:00	6	Velocidad del viento	14.5
161758	7	Sololá	719	Santiago Atitlán	14	Cerro de Oro	7	Julio	2023-07-20T00:00:00	2024-11-08T18:00:00	7	Dirección del viento	14.48
161759	7	Sololá	719	Santiago Atitlán	14	Cerro de Oro	7	Julio	2023-07-20T00:00:00	2024-11-08T18:00:00	1	Precipitación	0
161760	7	Sololá	719	Santiago Atitlán	14	Cerro de Oro	7	Julio	2023-07-20T00:00:00	2024-11-08T18:00:00	8	Radiación solar	190
161761	7	Sololá	719	Santiago Atitlán	14	Cerro de Oro	7	Julio	2023-07-20T00:00:00	2024-11-08T19:00:00	2	Temperatura media	22.7
161762	7	Sololá	719	Santiago Atitlán	14	Cerro de Oro	7	Julio	2023-07-20T00:00:00	2024-11-08T19:00:00	4	Temperatura máxima	24.6
161763	7	Sololá	719	Santiago Atitlán	14	Cerro de Oro	7	Julio	2023-07-20T00:00:00	2024-11-08T19:00:00	3	Temperatura mínima	22.7
161764	7	Sololá	719	Santiago Atitlán	14	Cerro de Oro	7	Julio	2023-07-20T00:00:00	2024-11-08T19:00:00	5	Humedad	67
161765	7	Sololá	719	Santiago Atitlán	14	Cerro de Oro	7	Julio	2023-07-20T00:00:00	2024-11-08T19:00:00	6	Velocidad del viento	11.3
161766	7	Sololá	719	Santiago Atitlán	14	Cerro de Oro	7	Julio	2023-07-20T00:00:00	2024-11-08T19:00:00	7	Dirección del viento	11.27
161767	7	Sololá	719	Santiago Atitlán	14	Cerro de Oro	7	Julio	2023-07-20T00:00:00	2024-11-08T19:00:00	1	Precipitación	0
161768	7	Sololá	719	Santiago Atitlán	14	Cerro de Oro	7	Julio	2023-07-20T00:00:00	2024-11-08T19:00:00	8	Radiación solar	0
161769	7	Sololá	719	Santiago Atitlán	14	Cerro de Oro	7	Julio	2023-07-20T00:00:00	2024-11-08T20:00:00	2	Temperatura media	22.2
161770	7	Sololá	719	Santiago Atitlán	14	Cerro de Oro	7	Julio	2023-07-20T00:00:00	2024-11-08T20:00:00	4	Temperatura máxima	22.7
161771	7	Sololá	719	Santiago Atitlán	14	Cerro de Oro	7	Julio	2023-07-20T00:00:00	2024-11-08T20:00:00	3	Temperatura mínima	22.1
161772	7	Sololá	719	Santiago Atitlán	14	Cerro de Oro	7	Julio	2023-07-20T00:00:00	2024-11-08T20:00:00	5	Humedad	67
161773	7	Sololá	719	Santiago Atitlán	14	Cerro de Oro	7	Julio	2023-07-20T00:00:00	2024-11-08T20:00:00	6	Velocidad del viento	11.3
161774	7	Sololá	719	Santiago Atitlán	14	Cerro de Oro	7	Julio	2023-07-20T00:00:00	2024-11-08T20:00:00	7	Dirección del viento	11.27
161775	7	Sololá	719	Santiago Atitlán	14	Cerro de Oro	7	Julio	2023-07-20T00:00:00	2024-11-08T20:00:00	1	Precipitación	0
161776	7	Sololá	719	Santiago Atitlán	14	Cerro de Oro	7	Julio	2023-07-20T00:00:00	2024-11-08T20:00:00	8	Radiación solar	0
161777	7	Sololá	719	Santiago Atitlán	14	Cerro de Oro	7	Julio	2023-07-20T00:00:00	2024-11-08T21:00:00	2	Temperatura media	22.1
161778	7	Sololá	719	Santiago Atitlán	14	Cerro de Oro	7	Julio	2023-07-20T00:00:00	2024-11-08T21:00:00	4	Temperatura máxima	22.3
161779	7	Sololá	719	Santiago Atitlán	14	Cerro de Oro	7	Julio	2023-07-20T00:00:00	2024-11-08T21:00:00	3	Temperatura mínima	21.9
161780	7	Sololá	719	Santiago Atitlán	14	Cerro de Oro	7	Julio	2023-07-20T00:00:00	2024-11-08T21:00:00	5	Humedad	66
161781	7	Sololá	719	Santiago Atitlán	14	Cerro de Oro	7	Julio	2023-07-20T00:00:00	2024-11-08T21:00:00	6	Velocidad del viento	4.8
161782	7	Sololá	719	Santiago Atitlán	14	Cerro de Oro	7	Julio	2023-07-20T00:00:00	2024-11-08T21:00:00	7	Dirección del viento	4.83
161783	7	Sololá	719	Santiago Atitlán	14	Cerro de Oro	7	Julio	2023-07-20T00:00:00	2024-11-08T21:00:00	1	Precipitación	0
161784	7	Sololá	719	Santiago Atitlán	14	Cerro de Oro	7	Julio	2023-07-20T00:00:00	2024-11-08T21:00:00	8	Radiación solar	0
161785	7	Sololá	719	Santiago Atitlán	14	Cerro de Oro	7	Julio	2023-07-20T00:00:00	2024-11-08T22:00:00	2	Temperatura media	21.9
161786	7	Sololá	719	Santiago Atitlán	14	Cerro de Oro	7	Julio	2023-07-20T00:00:00	2024-11-08T22:00:00	4	Temperatura máxima	22.2
161787	7	Sololá	719	Santiago Atitlán	14	Cerro de Oro	7	Julio	2023-07-20T00:00:00	2024-11-08T22:00:00	3	Temperatura mínima	21.7
161788	7	Sololá	719	Santiago Atitlán	14	Cerro de Oro	7	Julio	2023-07-20T00:00:00	2024-11-08T22:00:00	5	Humedad	66
161789	7	Sololá	719	Santiago Atitlán	14	Cerro de Oro	7	Julio	2023-07-20T00:00:00	2024-11-08T22:00:00	6	Velocidad del viento	3.2
161790	7	Sololá	719	Santiago Atitlán	14	Cerro de Oro	7	Julio	2023-07-20T00:00:00	2024-11-08T22:00:00	7	Dirección del viento	3.22
161791	7	Sololá	719	Santiago Atitlán	14	Cerro de Oro	7	Julio	2023-07-20T00:00:00	2024-11-08T22:00:00	1	Precipitación	0
161792	7	Sololá	719	Santiago Atitlán	14	Cerro de Oro	7	Julio	2023-07-20T00:00:00	2024-11-08T22:00:00	8	Radiación solar	0
161793	7	Sololá	719	Santiago Atitlán	14	Cerro de Oro	7	Julio	2023-07-20T00:00:00	2024-11-08T23:00:00	2	Temperatura media	22.1
161794	7	Sololá	719	Santiago Atitlán	14	Cerro de Oro	7	Julio	2023-07-20T00:00:00	2024-11-08T23:00:00	4	Temperatura máxima	22.1
161795	7	Sololá	719	Santiago Atitlán	14	Cerro de Oro	7	Julio	2023-07-20T00:00:00	2024-11-08T23:00:00	3	Temperatura mínima	21.8
161796	7	Sololá	719	Santiago Atitlán	14	Cerro de Oro	7	Julio	2023-07-20T00:00:00	2024-11-08T23:00:00	5	Humedad	64
161797	7	Sololá	719	Santiago Atitlán	14	Cerro de Oro	7	Julio	2023-07-20T00:00:00	2024-11-08T23:00:00	6	Velocidad del viento	8
161798	7	Sololá	719	Santiago Atitlán	14	Cerro de Oro	7	Julio	2023-07-20T00:00:00	2024-11-08T23:00:00	7	Dirección del viento	8.05
161799	7	Sololá	719	Santiago Atitlán	14	Cerro de Oro	7	Julio	2023-07-20T00:00:00	2024-11-08T23:00:00	1	Precipitación	0
161800	7	Sololá	719	Santiago Atitlán	14	Cerro de Oro	7	Julio	2023-07-20T00:00:00	2024-11-08T23:00:00	8	Radiación solar	0
161801	7	Sololá	719	Santiago Atitlán	14	Cerro de Oro	7	Julio	2023-07-21T00:00:00	2024-11-08T00:00:00	2	Temperatura media	21.2
161802	7	Sololá	719	Santiago Atitlán	14	Cerro de Oro	7	Julio	2023-07-21T00:00:00	2024-11-08T00:00:00	4	Temperatura máxima	22.2
161803	7	Sololá	719	Santiago Atitlán	14	Cerro de Oro	7	Julio	2023-07-21T00:00:00	2024-11-08T00:00:00	3	Temperatura mínima	21.2
161804	7	Sololá	719	Santiago Atitlán	14	Cerro de Oro	7	Julio	2023-07-21T00:00:00	2024-11-08T00:00:00	5	Humedad	70
161805	7	Sololá	719	Santiago Atitlán	14	Cerro de Oro	7	Julio	2023-07-21T00:00:00	2024-11-08T00:00:00	6	Velocidad del viento	6.4
161806	7	Sololá	719	Santiago Atitlán	14	Cerro de Oro	7	Julio	2023-07-21T00:00:00	2024-11-08T00:00:00	7	Dirección del viento	6.44
161807	7	Sololá	719	Santiago Atitlán	14	Cerro de Oro	7	Julio	2023-07-21T00:00:00	2024-11-08T00:00:00	1	Precipitación	0
161808	7	Sololá	719	Santiago Atitlán	14	Cerro de Oro	7	Julio	2023-07-21T00:00:00	2024-11-08T00:00:00	8	Radiación solar	0
161809	7	Sololá	719	Santiago Atitlán	14	Cerro de Oro	7	Julio	2023-07-21T00:00:00	2024-11-08T01:00:00	2	Temperatura media	20.1
161810	7	Sololá	719	Santiago Atitlán	14	Cerro de Oro	7	Julio	2023-07-21T00:00:00	2024-11-08T01:00:00	4	Temperatura máxima	21.2
161811	7	Sololá	719	Santiago Atitlán	14	Cerro de Oro	7	Julio	2023-07-21T00:00:00	2024-11-08T01:00:00	3	Temperatura mínima	20.1
161812	7	Sololá	719	Santiago Atitlán	14	Cerro de Oro	7	Julio	2023-07-21T00:00:00	2024-11-08T01:00:00	5	Humedad	71
161813	7	Sololá	719	Santiago Atitlán	14	Cerro de Oro	7	Julio	2023-07-21T00:00:00	2024-11-08T01:00:00	6	Velocidad del viento	3.2
161814	7	Sololá	719	Santiago Atitlán	14	Cerro de Oro	7	Julio	2023-07-21T00:00:00	2024-11-08T01:00:00	7	Dirección del viento	3.22
161815	7	Sololá	719	Santiago Atitlán	14	Cerro de Oro	7	Julio	2023-07-21T00:00:00	2024-11-08T01:00:00	1	Precipitación	0
161816	7	Sololá	719	Santiago Atitlán	14	Cerro de Oro	7	Julio	2023-07-21T00:00:00	2024-11-08T01:00:00	8	Radiación solar	0
161817	7	Sololá	719	Santiago Atitlán	14	Cerro de Oro	7	Julio	2023-07-21T00:00:00	2024-11-08T02:00:00	2	Temperatura media	19.4
161818	7	Sololá	719	Santiago Atitlán	14	Cerro de Oro	7	Julio	2023-07-21T00:00:00	2024-11-08T02:00:00	4	Temperatura máxima	20.1
161819	7	Sololá	719	Santiago Atitlán	14	Cerro de Oro	7	Julio	2023-07-21T00:00:00	2024-11-08T02:00:00	3	Temperatura mínima	19.3
161820	7	Sololá	719	Santiago Atitlán	14	Cerro de Oro	7	Julio	2023-07-21T00:00:00	2024-11-08T02:00:00	5	Humedad	73
161821	7	Sololá	719	Santiago Atitlán	14	Cerro de Oro	7	Julio	2023-07-21T00:00:00	2024-11-08T02:00:00	6	Velocidad del viento	6.4
161822	7	Sololá	719	Santiago Atitlán	14	Cerro de Oro	7	Julio	2023-07-21T00:00:00	2024-11-08T02:00:00	7	Dirección del viento	6.44
161823	7	Sololá	719	Santiago Atitlán	14	Cerro de Oro	7	Julio	2023-07-21T00:00:00	2024-11-08T02:00:00	1	Precipitación	0
161824	7	Sololá	719	Santiago Atitlán	14	Cerro de Oro	7	Julio	2023-07-21T00:00:00	2024-11-08T02:00:00	8	Radiación solar	0
161825	7	Sololá	719	Santiago Atitlán	14	Cerro de Oro	7	Julio	2023-07-21T00:00:00	2024-11-08T03:00:00	2	Temperatura media	19.7
161826	7	Sololá	719	Santiago Atitlán	14	Cerro de Oro	7	Julio	2023-07-21T00:00:00	2024-11-08T03:00:00	4	Temperatura máxima	19.8
161827	7	Sololá	719	Santiago Atitlán	14	Cerro de Oro	7	Julio	2023-07-21T00:00:00	2024-11-08T03:00:00	3	Temperatura mínima	19.3
161828	7	Sololá	719	Santiago Atitlán	14	Cerro de Oro	7	Julio	2023-07-21T00:00:00	2024-11-08T03:00:00	5	Humedad	72
161829	7	Sololá	719	Santiago Atitlán	14	Cerro de Oro	7	Julio	2023-07-21T00:00:00	2024-11-08T03:00:00	6	Velocidad del viento	3.2
161830	7	Sololá	719	Santiago Atitlán	14	Cerro de Oro	7	Julio	2023-07-21T00:00:00	2024-11-08T03:00:00	7	Dirección del viento	3.22
161831	7	Sololá	719	Santiago Atitlán	14	Cerro de Oro	7	Julio	2023-07-21T00:00:00	2024-11-08T03:00:00	1	Precipitación	0
161832	7	Sololá	719	Santiago Atitlán	14	Cerro de Oro	7	Julio	2023-07-21T00:00:00	2024-11-08T03:00:00	8	Radiación solar	0
161833	7	Sololá	719	Santiago Atitlán	14	Cerro de Oro	7	Julio	2023-07-21T00:00:00	2024-11-08T04:00:00	2	Temperatura media	18.7
161834	7	Sololá	719	Santiago Atitlán	14	Cerro de Oro	7	Julio	2023-07-21T00:00:00	2024-11-08T04:00:00	4	Temperatura máxima	19.7
161835	7	Sololá	719	Santiago Atitlán	14	Cerro de Oro	7	Julio	2023-07-21T00:00:00	2024-11-08T04:00:00	3	Temperatura mínima	18.5
161836	7	Sololá	719	Santiago Atitlán	14	Cerro de Oro	7	Julio	2023-07-21T00:00:00	2024-11-08T04:00:00	5	Humedad	76
161837	7	Sololá	719	Santiago Atitlán	14	Cerro de Oro	7	Julio	2023-07-21T00:00:00	2024-11-08T04:00:00	6	Velocidad del viento	4.8
161838	7	Sololá	719	Santiago Atitlán	14	Cerro de Oro	7	Julio	2023-07-21T00:00:00	2024-11-08T04:00:00	7	Dirección del viento	4.83
161839	7	Sololá	719	Santiago Atitlán	14	Cerro de Oro	7	Julio	2023-07-21T00:00:00	2024-11-08T04:00:00	1	Precipitación	0
161840	7	Sololá	719	Santiago Atitlán	14	Cerro de Oro	7	Julio	2023-07-21T00:00:00	2024-11-08T04:00:00	8	Radiación solar	0
161841	7	Sololá	719	Santiago Atitlán	14	Cerro de Oro	7	Julio	2023-07-21T00:00:00	2024-11-08T05:00:00	2	Temperatura media	19.3
161842	7	Sololá	719	Santiago Atitlán	14	Cerro de Oro	7	Julio	2023-07-21T00:00:00	2024-11-08T05:00:00	4	Temperatura máxima	19.9
161843	7	Sololá	719	Santiago Atitlán	14	Cerro de Oro	7	Julio	2023-07-21T00:00:00	2024-11-08T05:00:00	3	Temperatura mínima	18.7
161844	7	Sololá	719	Santiago Atitlán	14	Cerro de Oro	7	Julio	2023-07-21T00:00:00	2024-11-08T05:00:00	5	Humedad	75
161845	7	Sololá	719	Santiago Atitlán	14	Cerro de Oro	7	Julio	2023-07-21T00:00:00	2024-11-08T05:00:00	6	Velocidad del viento	4.8
161846	7	Sololá	719	Santiago Atitlán	14	Cerro de Oro	7	Julio	2023-07-21T00:00:00	2024-11-08T05:00:00	7	Dirección del viento	4.83
161847	7	Sololá	719	Santiago Atitlán	14	Cerro de Oro	7	Julio	2023-07-21T00:00:00	2024-11-08T05:00:00	1	Precipitación	0
161848	7	Sololá	719	Santiago Atitlán	14	Cerro de Oro	7	Julio	2023-07-21T00:00:00	2024-11-08T05:00:00	8	Radiación solar	0
161849	7	Sololá	719	Santiago Atitlán	14	Cerro de Oro	7	Julio	2023-07-21T00:00:00	2024-11-08T06:00:00	2	Temperatura media	19.1
161850	7	Sololá	719	Santiago Atitlán	14	Cerro de Oro	7	Julio	2023-07-21T00:00:00	2024-11-08T06:00:00	4	Temperatura máxima	19.7
161851	7	Sololá	719	Santiago Atitlán	14	Cerro de Oro	7	Julio	2023-07-21T00:00:00	2024-11-08T06:00:00	3	Temperatura mínima	18.7
161852	7	Sololá	719	Santiago Atitlán	14	Cerro de Oro	7	Julio	2023-07-21T00:00:00	2024-11-08T06:00:00	5	Humedad	74
161853	7	Sololá	719	Santiago Atitlán	14	Cerro de Oro	7	Julio	2023-07-21T00:00:00	2024-11-08T06:00:00	6	Velocidad del viento	4.8
161854	7	Sololá	719	Santiago Atitlán	14	Cerro de Oro	7	Julio	2023-07-21T00:00:00	2024-11-08T06:00:00	7	Dirección del viento	4.83
161855	7	Sololá	719	Santiago Atitlán	14	Cerro de Oro	7	Julio	2023-07-21T00:00:00	2024-11-08T06:00:00	1	Precipitación	0
161856	7	Sololá	719	Santiago Atitlán	14	Cerro de Oro	7	Julio	2023-07-21T00:00:00	2024-11-08T06:00:00	8	Radiación solar	1
161857	7	Sololá	719	Santiago Atitlán	14	Cerro de Oro	7	Julio	2023-07-21T00:00:00	2024-11-08T07:00:00	2	Temperatura media	22.2
161858	7	Sololá	719	Santiago Atitlán	14	Cerro de Oro	7	Julio	2023-07-21T00:00:00	2024-11-08T07:00:00	4	Temperatura máxima	22.2
161859	7	Sololá	719	Santiago Atitlán	14	Cerro de Oro	7	Julio	2023-07-21T00:00:00	2024-11-08T07:00:00	3	Temperatura mínima	18.9
161860	7	Sololá	719	Santiago Atitlán	14	Cerro de Oro	7	Julio	2023-07-21T00:00:00	2024-11-08T07:00:00	5	Humedad	67
161861	7	Sololá	719	Santiago Atitlán	14	Cerro de Oro	7	Julio	2023-07-21T00:00:00	2024-11-08T07:00:00	6	Velocidad del viento	4.8
161862	7	Sololá	719	Santiago Atitlán	14	Cerro de Oro	7	Julio	2023-07-21T00:00:00	2024-11-08T07:00:00	7	Dirección del viento	4.83
161863	7	Sololá	719	Santiago Atitlán	14	Cerro de Oro	7	Julio	2023-07-21T00:00:00	2024-11-08T07:00:00	1	Precipitación	0
161864	7	Sololá	719	Santiago Atitlán	14	Cerro de Oro	7	Julio	2023-07-21T00:00:00	2024-11-08T07:00:00	8	Radiación solar	90
161865	7	Sololá	719	Santiago Atitlán	14	Cerro de Oro	7	Julio	2023-07-21T00:00:00	2024-11-08T08:00:00	2	Temperatura media	22.4
161866	7	Sololá	719	Santiago Atitlán	14	Cerro de Oro	7	Julio	2023-07-21T00:00:00	2024-11-08T08:00:00	4	Temperatura máxima	22.6
161867	7	Sololá	719	Santiago Atitlán	14	Cerro de Oro	7	Julio	2023-07-21T00:00:00	2024-11-08T08:00:00	3	Temperatura mínima	22.2
161868	7	Sololá	719	Santiago Atitlán	14	Cerro de Oro	7	Julio	2023-07-21T00:00:00	2024-11-08T08:00:00	5	Humedad	67
161869	7	Sololá	719	Santiago Atitlán	14	Cerro de Oro	7	Julio	2023-07-21T00:00:00	2024-11-08T08:00:00	6	Velocidad del viento	6.4
161870	7	Sololá	719	Santiago Atitlán	14	Cerro de Oro	7	Julio	2023-07-21T00:00:00	2024-11-08T08:00:00	7	Dirección del viento	6.44
161871	7	Sololá	719	Santiago Atitlán	14	Cerro de Oro	7	Julio	2023-07-21T00:00:00	2024-11-08T08:00:00	1	Precipitación	0
161872	7	Sololá	719	Santiago Atitlán	14	Cerro de Oro	7	Julio	2023-07-21T00:00:00	2024-11-08T08:00:00	8	Radiación solar	298
161873	7	Sololá	719	Santiago Atitlán	14	Cerro de Oro	7	Julio	2023-07-21T00:00:00	2024-11-08T09:00:00	2	Temperatura media	23.7
161874	7	Sololá	719	Santiago Atitlán	14	Cerro de Oro	7	Julio	2023-07-21T00:00:00	2024-11-08T09:00:00	4	Temperatura máxima	23.7
161875	7	Sololá	719	Santiago Atitlán	14	Cerro de Oro	7	Julio	2023-07-21T00:00:00	2024-11-08T09:00:00	3	Temperatura mínima	22.4
161876	7	Sololá	719	Santiago Atitlán	14	Cerro de Oro	7	Julio	2023-07-21T00:00:00	2024-11-08T09:00:00	5	Humedad	65
161877	7	Sololá	719	Santiago Atitlán	14	Cerro de Oro	7	Julio	2023-07-21T00:00:00	2024-11-08T09:00:00	6	Velocidad del viento	8
161878	7	Sololá	719	Santiago Atitlán	14	Cerro de Oro	7	Julio	2023-07-21T00:00:00	2024-11-08T09:00:00	7	Dirección del viento	8.05
161879	7	Sololá	719	Santiago Atitlán	14	Cerro de Oro	7	Julio	2023-07-21T00:00:00	2024-11-08T09:00:00	1	Precipitación	0
161880	7	Sololá	719	Santiago Atitlán	14	Cerro de Oro	7	Julio	2023-07-21T00:00:00	2024-11-08T09:00:00	8	Radiación solar	506
161881	7	Sololá	719	Santiago Atitlán	14	Cerro de Oro	7	Julio	2023-07-21T00:00:00	2024-11-08T10:00:00	2	Temperatura media	25.3
161882	7	Sololá	719	Santiago Atitlán	14	Cerro de Oro	7	Julio	2023-07-21T00:00:00	2024-11-08T10:00:00	4	Temperatura máxima	25.3
161883	7	Sololá	719	Santiago Atitlán	14	Cerro de Oro	7	Julio	2023-07-21T00:00:00	2024-11-08T10:00:00	3	Temperatura mínima	23.6
161884	7	Sololá	719	Santiago Atitlán	14	Cerro de Oro	7	Julio	2023-07-21T00:00:00	2024-11-08T10:00:00	5	Humedad	60
161885	7	Sololá	719	Santiago Atitlán	14	Cerro de Oro	7	Julio	2023-07-21T00:00:00	2024-11-08T10:00:00	6	Velocidad del viento	4.8
161886	7	Sololá	719	Santiago Atitlán	14	Cerro de Oro	7	Julio	2023-07-21T00:00:00	2024-11-08T10:00:00	7	Dirección del viento	4.83
161887	7	Sololá	719	Santiago Atitlán	14	Cerro de Oro	7	Julio	2023-07-21T00:00:00	2024-11-08T10:00:00	1	Precipitación	0
161888	7	Sololá	719	Santiago Atitlán	14	Cerro de Oro	7	Julio	2023-07-21T00:00:00	2024-11-08T10:00:00	8	Radiación solar	679
161889	7	Sololá	719	Santiago Atitlán	14	Cerro de Oro	7	Julio	2023-07-21T00:00:00	2024-11-08T11:00:00	2	Temperatura media	26.1
161890	7	Sololá	719	Santiago Atitlán	14	Cerro de Oro	7	Julio	2023-07-21T00:00:00	2024-11-08T11:00:00	4	Temperatura máxima	26.1
161891	7	Sololá	719	Santiago Atitlán	14	Cerro de Oro	7	Julio	2023-07-21T00:00:00	2024-11-08T11:00:00	3	Temperatura mínima	25.2
161892	7	Sololá	719	Santiago Atitlán	14	Cerro de Oro	7	Julio	2023-07-21T00:00:00	2024-11-08T11:00:00	5	Humedad	57
161893	7	Sololá	719	Santiago Atitlán	14	Cerro de Oro	7	Julio	2023-07-21T00:00:00	2024-11-08T11:00:00	6	Velocidad del viento	8
161894	7	Sololá	719	Santiago Atitlán	14	Cerro de Oro	7	Julio	2023-07-21T00:00:00	2024-11-08T11:00:00	7	Dirección del viento	8.05
161895	7	Sololá	719	Santiago Atitlán	14	Cerro de Oro	7	Julio	2023-07-21T00:00:00	2024-11-08T11:00:00	1	Precipitación	0
161896	7	Sololá	719	Santiago Atitlán	14	Cerro de Oro	7	Julio	2023-07-21T00:00:00	2024-11-08T11:00:00	8	Radiación solar	815
161897	7	Sololá	719	Santiago Atitlán	14	Cerro de Oro	7	Julio	2023-07-21T00:00:00	2024-11-08T12:00:00	2	Temperatura media	27.5
161898	7	Sololá	719	Santiago Atitlán	14	Cerro de Oro	7	Julio	2023-07-21T00:00:00	2024-11-08T12:00:00	4	Temperatura máxima	27.5
161899	7	Sololá	719	Santiago Atitlán	14	Cerro de Oro	7	Julio	2023-07-21T00:00:00	2024-11-08T12:00:00	3	Temperatura mínima	26.1
161900	7	Sololá	719	Santiago Atitlán	14	Cerro de Oro	7	Julio	2023-07-21T00:00:00	2024-11-08T12:00:00	5	Humedad	49
161901	7	Sololá	719	Santiago Atitlán	14	Cerro de Oro	7	Julio	2023-07-21T00:00:00	2024-11-08T12:00:00	6	Velocidad del viento	6.4
161902	7	Sololá	719	Santiago Atitlán	14	Cerro de Oro	7	Julio	2023-07-21T00:00:00	2024-11-08T12:00:00	7	Dirección del viento	6.44
161903	7	Sololá	719	Santiago Atitlán	14	Cerro de Oro	7	Julio	2023-07-21T00:00:00	2024-11-08T12:00:00	1	Precipitación	0
161904	7	Sololá	719	Santiago Atitlán	14	Cerro de Oro	7	Julio	2023-07-21T00:00:00	2024-11-08T12:00:00	8	Radiación solar	913
161905	7	Sololá	719	Santiago Atitlán	14	Cerro de Oro	7	Julio	2023-07-21T00:00:00	2024-11-08T13:00:00	2	Temperatura media	27.4
161906	7	Sololá	719	Santiago Atitlán	14	Cerro de Oro	7	Julio	2023-07-21T00:00:00	2024-11-08T13:00:00	4	Temperatura máxima	27.8
161907	7	Sololá	719	Santiago Atitlán	14	Cerro de Oro	7	Julio	2023-07-21T00:00:00	2024-11-08T13:00:00	3	Temperatura mínima	26.9
161908	7	Sololá	719	Santiago Atitlán	14	Cerro de Oro	7	Julio	2023-07-21T00:00:00	2024-11-08T13:00:00	5	Humedad	62
161909	7	Sololá	719	Santiago Atitlán	14	Cerro de Oro	7	Julio	2023-07-21T00:00:00	2024-11-08T13:00:00	6	Velocidad del viento	9.7
161910	7	Sololá	719	Santiago Atitlán	14	Cerro de Oro	7	Julio	2023-07-21T00:00:00	2024-11-08T13:00:00	7	Dirección del viento	9.66
161911	7	Sololá	719	Santiago Atitlán	14	Cerro de Oro	7	Julio	2023-07-21T00:00:00	2024-11-08T13:00:00	1	Precipitación	0
161912	7	Sololá	719	Santiago Atitlán	14	Cerro de Oro	7	Julio	2023-07-21T00:00:00	2024-11-08T13:00:00	8	Radiación solar	942
161913	7	Sololá	719	Santiago Atitlán	14	Cerro de Oro	7	Julio	2023-07-21T00:00:00	2024-11-08T14:00:00	2	Temperatura media	27.2
161914	7	Sololá	719	Santiago Atitlán	14	Cerro de Oro	7	Julio	2023-07-21T00:00:00	2024-11-08T14:00:00	4	Temperatura máxima	27.5
161915	7	Sololá	719	Santiago Atitlán	14	Cerro de Oro	7	Julio	2023-07-21T00:00:00	2024-11-08T14:00:00	3	Temperatura mínima	27
161916	7	Sololá	719	Santiago Atitlán	14	Cerro de Oro	7	Julio	2023-07-21T00:00:00	2024-11-08T14:00:00	5	Humedad	64
161917	7	Sololá	719	Santiago Atitlán	14	Cerro de Oro	7	Julio	2023-07-21T00:00:00	2024-11-08T14:00:00	6	Velocidad del viento	11.3
161918	7	Sololá	719	Santiago Atitlán	14	Cerro de Oro	7	Julio	2023-07-21T00:00:00	2024-11-08T14:00:00	7	Dirección del viento	11.27
161919	7	Sololá	719	Santiago Atitlán	14	Cerro de Oro	7	Julio	2023-07-21T00:00:00	2024-11-08T14:00:00	1	Precipitación	0
161920	7	Sololá	719	Santiago Atitlán	14	Cerro de Oro	7	Julio	2023-07-21T00:00:00	2024-11-08T14:00:00	8	Radiación solar	869
161921	7	Sololá	719	Santiago Atitlán	14	Cerro de Oro	7	Julio	2023-07-21T00:00:00	2024-11-08T15:00:00	2	Temperatura media	25.9
161922	7	Sololá	719	Santiago Atitlán	14	Cerro de Oro	7	Julio	2023-07-21T00:00:00	2024-11-08T15:00:00	4	Temperatura máxima	27.2
161923	7	Sololá	719	Santiago Atitlán	14	Cerro de Oro	7	Julio	2023-07-21T00:00:00	2024-11-08T15:00:00	3	Temperatura mínima	25.6
161924	7	Sololá	719	Santiago Atitlán	14	Cerro de Oro	7	Julio	2023-07-21T00:00:00	2024-11-08T15:00:00	5	Humedad	69
161925	7	Sololá	719	Santiago Atitlán	14	Cerro de Oro	7	Julio	2023-07-21T00:00:00	2024-11-08T15:00:00	6	Velocidad del viento	14.5
161926	7	Sololá	719	Santiago Atitlán	14	Cerro de Oro	7	Julio	2023-07-21T00:00:00	2024-11-08T15:00:00	7	Dirección del viento	14.48
161927	7	Sololá	719	Santiago Atitlán	14	Cerro de Oro	7	Julio	2023-07-21T00:00:00	2024-11-08T15:00:00	1	Precipitación	0
161928	7	Sololá	719	Santiago Atitlán	14	Cerro de Oro	7	Julio	2023-07-21T00:00:00	2024-11-08T15:00:00	8	Radiación solar	725
161929	7	Sololá	719	Santiago Atitlán	14	Cerro de Oro	7	Julio	2023-07-21T00:00:00	2024-11-08T16:00:00	2	Temperatura media	24.9
161930	7	Sololá	719	Santiago Atitlán	14	Cerro de Oro	7	Julio	2023-07-21T00:00:00	2024-11-08T16:00:00	4	Temperatura máxima	25.9
161931	7	Sololá	719	Santiago Atitlán	14	Cerro de Oro	7	Julio	2023-07-21T00:00:00	2024-11-08T16:00:00	3	Temperatura mínima	24.9
161932	7	Sololá	719	Santiago Atitlán	14	Cerro de Oro	7	Julio	2023-07-21T00:00:00	2024-11-08T16:00:00	5	Humedad	73
161933	7	Sololá	719	Santiago Atitlán	14	Cerro de Oro	7	Julio	2023-07-21T00:00:00	2024-11-08T16:00:00	6	Velocidad del viento	12.9
161934	7	Sololá	719	Santiago Atitlán	14	Cerro de Oro	7	Julio	2023-07-21T00:00:00	2024-11-08T16:00:00	7	Dirección del viento	12.87
161935	7	Sololá	719	Santiago Atitlán	14	Cerro de Oro	7	Julio	2023-07-21T00:00:00	2024-11-08T16:00:00	1	Precipitación	0
161936	7	Sololá	719	Santiago Atitlán	14	Cerro de Oro	7	Julio	2023-07-21T00:00:00	2024-11-08T16:00:00	8	Radiación solar	536
161937	7	Sololá	719	Santiago Atitlán	14	Cerro de Oro	7	Julio	2023-07-21T00:00:00	2024-11-08T17:00:00	2	Temperatura media	24.4
161938	7	Sololá	719	Santiago Atitlán	14	Cerro de Oro	7	Julio	2023-07-21T00:00:00	2024-11-08T17:00:00	4	Temperatura máxima	24.9
161939	7	Sololá	719	Santiago Atitlán	14	Cerro de Oro	7	Julio	2023-07-21T00:00:00	2024-11-08T17:00:00	3	Temperatura mínima	24.3
161940	7	Sololá	719	Santiago Atitlán	14	Cerro de Oro	7	Julio	2023-07-21T00:00:00	2024-11-08T17:00:00	5	Humedad	76
161941	7	Sololá	719	Santiago Atitlán	14	Cerro de Oro	7	Julio	2023-07-21T00:00:00	2024-11-08T17:00:00	6	Velocidad del viento	8
161942	7	Sololá	719	Santiago Atitlán	14	Cerro de Oro	7	Julio	2023-07-21T00:00:00	2024-11-08T17:00:00	7	Dirección del viento	8.05
161943	7	Sololá	719	Santiago Atitlán	14	Cerro de Oro	7	Julio	2023-07-21T00:00:00	2024-11-08T17:00:00	1	Precipitación	0
161944	7	Sololá	719	Santiago Atitlán	14	Cerro de Oro	7	Julio	2023-07-21T00:00:00	2024-11-08T17:00:00	8	Radiación solar	274
161945	7	Sololá	719	Santiago Atitlán	14	Cerro de Oro	7	Julio	2023-07-21T00:00:00	2024-11-08T18:00:00	2	Temperatura media	23.2
161946	7	Sololá	719	Santiago Atitlán	14	Cerro de Oro	7	Julio	2023-07-21T00:00:00	2024-11-08T18:00:00	4	Temperatura máxima	24.4
161947	7	Sololá	719	Santiago Atitlán	14	Cerro de Oro	7	Julio	2023-07-21T00:00:00	2024-11-08T18:00:00	3	Temperatura mínima	22.8
161948	7	Sololá	719	Santiago Atitlán	14	Cerro de Oro	7	Julio	2023-07-21T00:00:00	2024-11-08T18:00:00	5	Humedad	78
161949	7	Sololá	719	Santiago Atitlán	14	Cerro de Oro	7	Julio	2023-07-21T00:00:00	2024-11-08T18:00:00	6	Velocidad del viento	8
161950	7	Sololá	719	Santiago Atitlán	14	Cerro de Oro	7	Julio	2023-07-21T00:00:00	2024-11-08T18:00:00	7	Dirección del viento	8.05
161951	7	Sololá	719	Santiago Atitlán	14	Cerro de Oro	7	Julio	2023-07-21T00:00:00	2024-11-08T18:00:00	1	Precipitación	0
161952	7	Sololá	719	Santiago Atitlán	14	Cerro de Oro	7	Julio	2023-07-21T00:00:00	2024-11-08T18:00:00	8	Radiación solar	118
161953	7	Sololá	719	Santiago Atitlán	14	Cerro de Oro	7	Julio	2023-07-21T00:00:00	2024-11-08T19:00:00	2	Temperatura media	21.9
161954	7	Sololá	719	Santiago Atitlán	14	Cerro de Oro	7	Julio	2023-07-21T00:00:00	2024-11-08T19:00:00	4	Temperatura máxima	23.2
161955	7	Sololá	719	Santiago Atitlán	14	Cerro de Oro	7	Julio	2023-07-21T00:00:00	2024-11-08T19:00:00	3	Temperatura mínima	21.9
161956	7	Sololá	719	Santiago Atitlán	14	Cerro de Oro	7	Julio	2023-07-21T00:00:00	2024-11-08T19:00:00	5	Humedad	80
161957	7	Sololá	719	Santiago Atitlán	14	Cerro de Oro	7	Julio	2023-07-21T00:00:00	2024-11-08T19:00:00	6	Velocidad del viento	1.6
161958	7	Sololá	719	Santiago Atitlán	14	Cerro de Oro	7	Julio	2023-07-21T00:00:00	2024-11-08T19:00:00	7	Dirección del viento	1.61
161959	7	Sololá	719	Santiago Atitlán	14	Cerro de Oro	7	Julio	2023-07-21T00:00:00	2024-11-08T19:00:00	1	Precipitación	0
161960	7	Sololá	719	Santiago Atitlán	14	Cerro de Oro	7	Julio	2023-07-21T00:00:00	2024-11-08T19:00:00	8	Radiación solar	0
161961	7	Sololá	719	Santiago Atitlán	14	Cerro de Oro	7	Julio	2023-07-21T00:00:00	2024-11-08T20:00:00	2	Temperatura media	21.2
161962	7	Sololá	719	Santiago Atitlán	14	Cerro de Oro	7	Julio	2023-07-21T00:00:00	2024-11-08T20:00:00	4	Temperatura máxima	21.9
161963	7	Sololá	719	Santiago Atitlán	14	Cerro de Oro	7	Julio	2023-07-21T00:00:00	2024-11-08T20:00:00	3	Temperatura mínima	21.1
161964	7	Sololá	719	Santiago Atitlán	14	Cerro de Oro	7	Julio	2023-07-21T00:00:00	2024-11-08T20:00:00	5	Humedad	79
161965	7	Sololá	719	Santiago Atitlán	14	Cerro de Oro	7	Julio	2023-07-21T00:00:00	2024-11-08T20:00:00	6	Velocidad del viento	1.6
161966	7	Sololá	719	Santiago Atitlán	14	Cerro de Oro	7	Julio	2023-07-21T00:00:00	2024-11-08T20:00:00	7	Dirección del viento	1.61
161967	7	Sololá	719	Santiago Atitlán	14	Cerro de Oro	7	Julio	2023-07-21T00:00:00	2024-11-08T20:00:00	1	Precipitación	0
161968	7	Sololá	719	Santiago Atitlán	14	Cerro de Oro	7	Julio	2023-07-21T00:00:00	2024-11-08T20:00:00	8	Radiación solar	0
161969	7	Sololá	719	Santiago Atitlán	14	Cerro de Oro	7	Julio	2023-07-21T00:00:00	2024-11-08T21:00:00	2	Temperatura media	21.4
161970	7	Sololá	719	Santiago Atitlán	14	Cerro de Oro	7	Julio	2023-07-21T00:00:00	2024-11-08T21:00:00	4	Temperatura máxima	21.4
161971	7	Sololá	719	Santiago Atitlán	14	Cerro de Oro	7	Julio	2023-07-21T00:00:00	2024-11-08T21:00:00	3	Temperatura mínima	21.1
161972	7	Sololá	719	Santiago Atitlán	14	Cerro de Oro	7	Julio	2023-07-21T00:00:00	2024-11-08T21:00:00	5	Humedad	78
161973	7	Sololá	719	Santiago Atitlán	14	Cerro de Oro	7	Julio	2023-07-21T00:00:00	2024-11-08T21:00:00	6	Velocidad del viento	3.2
161974	7	Sololá	719	Santiago Atitlán	14	Cerro de Oro	7	Julio	2023-07-21T00:00:00	2024-11-08T21:00:00	7	Dirección del viento	3.22
161975	7	Sololá	719	Santiago Atitlán	14	Cerro de Oro	7	Julio	2023-07-21T00:00:00	2024-11-08T21:00:00	1	Precipitación	0
161976	7	Sololá	719	Santiago Atitlán	14	Cerro de Oro	7	Julio	2023-07-21T00:00:00	2024-11-08T21:00:00	8	Radiación solar	0
161977	7	Sololá	719	Santiago Atitlán	14	Cerro de Oro	7	Julio	2023-07-21T00:00:00	2024-11-08T22:00:00	2	Temperatura media	21.1
161978	7	Sololá	719	Santiago Atitlán	14	Cerro de Oro	7	Julio	2023-07-21T00:00:00	2024-11-08T22:00:00	4	Temperatura máxima	21.6
161979	7	Sololá	719	Santiago Atitlán	14	Cerro de Oro	7	Julio	2023-07-21T00:00:00	2024-11-08T22:00:00	3	Temperatura mínima	20.8
161980	7	Sololá	719	Santiago Atitlán	14	Cerro de Oro	7	Julio	2023-07-21T00:00:00	2024-11-08T22:00:00	5	Humedad	76
161981	7	Sololá	719	Santiago Atitlán	14	Cerro de Oro	7	Julio	2023-07-21T00:00:00	2024-11-08T22:00:00	6	Velocidad del viento	3.2
161982	7	Sololá	719	Santiago Atitlán	14	Cerro de Oro	7	Julio	2023-07-21T00:00:00	2024-11-08T22:00:00	7	Dirección del viento	3.22
161983	7	Sololá	719	Santiago Atitlán	14	Cerro de Oro	7	Julio	2023-07-21T00:00:00	2024-11-08T22:00:00	1	Precipitación	0
161984	7	Sololá	719	Santiago Atitlán	14	Cerro de Oro	7	Julio	2023-07-21T00:00:00	2024-11-08T22:00:00	8	Radiación solar	0
161985	7	Sololá	719	Santiago Atitlán	14	Cerro de Oro	7	Julio	2023-07-21T00:00:00	2024-11-08T23:00:00	2	Temperatura media	20.3
161986	7	Sololá	719	Santiago Atitlán	14	Cerro de Oro	7	Julio	2023-07-21T00:00:00	2024-11-08T23:00:00	4	Temperatura máxima	21.7
161987	7	Sololá	719	Santiago Atitlán	14	Cerro de Oro	7	Julio	2023-07-21T00:00:00	2024-11-08T23:00:00	3	Temperatura mínima	20.3
161988	7	Sololá	719	Santiago Atitlán	14	Cerro de Oro	7	Julio	2023-07-21T00:00:00	2024-11-08T23:00:00	5	Humedad	77
161989	7	Sololá	719	Santiago Atitlán	14	Cerro de Oro	7	Julio	2023-07-21T00:00:00	2024-11-08T23:00:00	6	Velocidad del viento	4.8
161990	7	Sololá	719	Santiago Atitlán	14	Cerro de Oro	7	Julio	2023-07-21T00:00:00	2024-11-08T23:00:00	7	Dirección del viento	4.83
161991	7	Sololá	719	Santiago Atitlán	14	Cerro de Oro	7	Julio	2023-07-21T00:00:00	2024-11-08T23:00:00	1	Precipitación	0
161992	7	Sololá	719	Santiago Atitlán	14	Cerro de Oro	7	Julio	2023-07-21T00:00:00	2024-11-08T23:00:00	8	Radiación solar	0
161993	7	Sololá	719	Santiago Atitlán	14	Cerro de Oro	7	Julio	2023-07-22T00:00:00	2024-11-08T00:00:00	2	Temperatura media	20.1
161994	7	Sololá	719	Santiago Atitlán	14	Cerro de Oro	7	Julio	2023-07-22T00:00:00	2024-11-08T00:00:00	4	Temperatura máxima	20.5
161995	7	Sololá	719	Santiago Atitlán	14	Cerro de Oro	7	Julio	2023-07-22T00:00:00	2024-11-08T00:00:00	3	Temperatura mínima	19.9
161996	7	Sololá	719	Santiago Atitlán	14	Cerro de Oro	7	Julio	2023-07-22T00:00:00	2024-11-08T00:00:00	5	Humedad	78
161997	7	Sololá	719	Santiago Atitlán	14	Cerro de Oro	7	Julio	2023-07-22T00:00:00	2024-11-08T00:00:00	6	Velocidad del viento	4.8
161998	7	Sololá	719	Santiago Atitlán	14	Cerro de Oro	7	Julio	2023-07-22T00:00:00	2024-11-08T00:00:00	7	Dirección del viento	4.83
161999	7	Sololá	719	Santiago Atitlán	14	Cerro de Oro	7	Julio	2023-07-22T00:00:00	2024-11-08T00:00:00	1	Precipitación	0
162000	7	Sololá	719	Santiago Atitlán	14	Cerro de Oro	7	Julio	2023-07-22T00:00:00	2024-11-08T00:00:00	8	Radiación solar	0
162001	7	Sololá	719	Santiago Atitlán	14	Cerro de Oro	7	Julio	2023-07-22T00:00:00	2024-11-08T01:00:00	2	Temperatura media	20.1
162002	7	Sololá	719	Santiago Atitlán	14	Cerro de Oro	7	Julio	2023-07-22T00:00:00	2024-11-08T01:00:00	4	Temperatura máxima	20.5
162003	7	Sololá	719	Santiago Atitlán	14	Cerro de Oro	7	Julio	2023-07-22T00:00:00	2024-11-08T01:00:00	3	Temperatura mínima	20.1
162004	7	Sololá	719	Santiago Atitlán	14	Cerro de Oro	7	Julio	2023-07-22T00:00:00	2024-11-08T01:00:00	5	Humedad	77
162005	7	Sololá	719	Santiago Atitlán	14	Cerro de Oro	7	Julio	2023-07-22T00:00:00	2024-11-08T01:00:00	6	Velocidad del viento	4.8
162006	7	Sololá	719	Santiago Atitlán	14	Cerro de Oro	7	Julio	2023-07-22T00:00:00	2024-11-08T01:00:00	7	Dirección del viento	4.83
162007	7	Sololá	719	Santiago Atitlán	14	Cerro de Oro	7	Julio	2023-07-22T00:00:00	2024-11-08T01:00:00	1	Precipitación	0
162008	7	Sololá	719	Santiago Atitlán	14	Cerro de Oro	7	Julio	2023-07-22T00:00:00	2024-11-08T01:00:00	8	Radiación solar	0
162009	7	Sololá	719	Santiago Atitlán	14	Cerro de Oro	7	Julio	2023-07-22T00:00:00	2024-11-08T02:00:00	2	Temperatura media	19.6
162010	7	Sololá	719	Santiago Atitlán	14	Cerro de Oro	7	Julio	2023-07-22T00:00:00	2024-11-08T02:00:00	4	Temperatura máxima	20.1
162011	7	Sololá	719	Santiago Atitlán	14	Cerro de Oro	7	Julio	2023-07-22T00:00:00	2024-11-08T02:00:00	3	Temperatura mínima	19.6
162012	7	Sololá	719	Santiago Atitlán	14	Cerro de Oro	7	Julio	2023-07-22T00:00:00	2024-11-08T02:00:00	5	Humedad	79
162013	7	Sololá	719	Santiago Atitlán	14	Cerro de Oro	7	Julio	2023-07-22T00:00:00	2024-11-08T02:00:00	6	Velocidad del viento	3.2
162014	7	Sololá	719	Santiago Atitlán	14	Cerro de Oro	7	Julio	2023-07-22T00:00:00	2024-11-08T02:00:00	7	Dirección del viento	3.22
162015	7	Sololá	719	Santiago Atitlán	14	Cerro de Oro	7	Julio	2023-07-22T00:00:00	2024-11-08T02:00:00	1	Precipitación	0
162016	7	Sololá	719	Santiago Atitlán	14	Cerro de Oro	7	Julio	2023-07-22T00:00:00	2024-11-08T02:00:00	8	Radiación solar	0
162017	7	Sololá	719	Santiago Atitlán	14	Cerro de Oro	7	Julio	2023-07-22T00:00:00	2024-11-08T03:00:00	2	Temperatura media	19
162018	7	Sololá	719	Santiago Atitlán	14	Cerro de Oro	7	Julio	2023-07-22T00:00:00	2024-11-08T03:00:00	4	Temperatura máxima	19.6
162019	7	Sololá	719	Santiago Atitlán	14	Cerro de Oro	7	Julio	2023-07-22T00:00:00	2024-11-08T03:00:00	3	Temperatura mínima	18.9
162020	7	Sololá	719	Santiago Atitlán	14	Cerro de Oro	7	Julio	2023-07-22T00:00:00	2024-11-08T03:00:00	5	Humedad	81
162021	7	Sololá	719	Santiago Atitlán	14	Cerro de Oro	7	Julio	2023-07-22T00:00:00	2024-11-08T03:00:00	6	Velocidad del viento	3.2
162022	7	Sololá	719	Santiago Atitlán	14	Cerro de Oro	7	Julio	2023-07-22T00:00:00	2024-11-08T03:00:00	7	Dirección del viento	3.22
162023	7	Sololá	719	Santiago Atitlán	14	Cerro de Oro	7	Julio	2023-07-22T00:00:00	2024-11-08T03:00:00	1	Precipitación	0
162024	7	Sololá	719	Santiago Atitlán	14	Cerro de Oro	7	Julio	2023-07-22T00:00:00	2024-11-08T03:00:00	8	Radiación solar	0
162025	7	Sololá	719	Santiago Atitlán	14	Cerro de Oro	7	Julio	2023-07-22T00:00:00	2024-11-08T04:00:00	2	Temperatura media	18.9
162026	7	Sololá	719	Santiago Atitlán	14	Cerro de Oro	7	Julio	2023-07-22T00:00:00	2024-11-08T04:00:00	4	Temperatura máxima	19.3
162027	7	Sololá	719	Santiago Atitlán	14	Cerro de Oro	7	Julio	2023-07-22T00:00:00	2024-11-08T04:00:00	3	Temperatura mínima	18.9
162028	7	Sololá	719	Santiago Atitlán	14	Cerro de Oro	7	Julio	2023-07-22T00:00:00	2024-11-08T04:00:00	5	Humedad	81
162029	7	Sololá	719	Santiago Atitlán	14	Cerro de Oro	7	Julio	2023-07-22T00:00:00	2024-11-08T04:00:00	6	Velocidad del viento	1.6
162030	7	Sololá	719	Santiago Atitlán	14	Cerro de Oro	7	Julio	2023-07-22T00:00:00	2024-11-08T04:00:00	7	Dirección del viento	1.61
162031	7	Sololá	719	Santiago Atitlán	14	Cerro de Oro	7	Julio	2023-07-22T00:00:00	2024-11-08T04:00:00	1	Precipitación	0
162032	7	Sololá	719	Santiago Atitlán	14	Cerro de Oro	7	Julio	2023-07-22T00:00:00	2024-11-08T04:00:00	8	Radiación solar	0
162033	7	Sololá	719	Santiago Atitlán	14	Cerro de Oro	7	Julio	2023-07-22T00:00:00	2024-11-08T05:00:00	2	Temperatura media	19.1
162034	7	Sololá	719	Santiago Atitlán	14	Cerro de Oro	7	Julio	2023-07-22T00:00:00	2024-11-08T05:00:00	4	Temperatura máxima	19.2
162035	7	Sololá	719	Santiago Atitlán	14	Cerro de Oro	7	Julio	2023-07-22T00:00:00	2024-11-08T05:00:00	3	Temperatura mínima	18.7
162036	7	Sololá	719	Santiago Atitlán	14	Cerro de Oro	7	Julio	2023-07-22T00:00:00	2024-11-08T05:00:00	5	Humedad	78
162037	7	Sololá	719	Santiago Atitlán	14	Cerro de Oro	7	Julio	2023-07-22T00:00:00	2024-11-08T05:00:00	6	Velocidad del viento	3.2
162038	7	Sololá	719	Santiago Atitlán	14	Cerro de Oro	7	Julio	2023-07-22T00:00:00	2024-11-08T05:00:00	7	Dirección del viento	3.22
162039	7	Sololá	719	Santiago Atitlán	14	Cerro de Oro	7	Julio	2023-07-22T00:00:00	2024-11-08T05:00:00	1	Precipitación	0
162040	7	Sololá	719	Santiago Atitlán	14	Cerro de Oro	7	Julio	2023-07-22T00:00:00	2024-11-08T05:00:00	8	Radiación solar	0
162041	7	Sololá	719	Santiago Atitlán	14	Cerro de Oro	7	Julio	2023-07-22T00:00:00	2024-11-08T06:00:00	2	Temperatura media	19.2
162042	7	Sololá	719	Santiago Atitlán	14	Cerro de Oro	7	Julio	2023-07-22T00:00:00	2024-11-08T06:00:00	4	Temperatura máxima	19.4
162043	7	Sololá	719	Santiago Atitlán	14	Cerro de Oro	7	Julio	2023-07-22T00:00:00	2024-11-08T06:00:00	3	Temperatura mínima	18.9
162044	7	Sololá	719	Santiago Atitlán	14	Cerro de Oro	7	Julio	2023-07-22T00:00:00	2024-11-08T06:00:00	5	Humedad	79
162045	7	Sololá	719	Santiago Atitlán	14	Cerro de Oro	7	Julio	2023-07-22T00:00:00	2024-11-08T06:00:00	6	Velocidad del viento	3.2
162046	7	Sololá	719	Santiago Atitlán	14	Cerro de Oro	7	Julio	2023-07-22T00:00:00	2024-11-08T06:00:00	7	Dirección del viento	3.22
162047	7	Sololá	719	Santiago Atitlán	14	Cerro de Oro	7	Julio	2023-07-22T00:00:00	2024-11-08T06:00:00	1	Precipitación	0
162048	7	Sololá	719	Santiago Atitlán	14	Cerro de Oro	7	Julio	2023-07-22T00:00:00	2024-11-08T06:00:00	8	Radiación solar	1
162049	7	Sololá	719	Santiago Atitlán	14	Cerro de Oro	7	Julio	2023-07-22T00:00:00	2024-11-08T07:00:00	2	Temperatura media	20.6
162050	7	Sololá	719	Santiago Atitlán	14	Cerro de Oro	7	Julio	2023-07-22T00:00:00	2024-11-08T07:00:00	4	Temperatura máxima	20.6
162051	7	Sololá	719	Santiago Atitlán	14	Cerro de Oro	7	Julio	2023-07-22T00:00:00	2024-11-08T07:00:00	3	Temperatura mínima	19.2
162052	7	Sololá	719	Santiago Atitlán	14	Cerro de Oro	7	Julio	2023-07-22T00:00:00	2024-11-08T07:00:00	5	Humedad	74
162053	7	Sololá	719	Santiago Atitlán	14	Cerro de Oro	7	Julio	2023-07-22T00:00:00	2024-11-08T07:00:00	6	Velocidad del viento	3.2
162054	7	Sololá	719	Santiago Atitlán	14	Cerro de Oro	7	Julio	2023-07-22T00:00:00	2024-11-08T07:00:00	7	Dirección del viento	3.22
162055	7	Sololá	719	Santiago Atitlán	14	Cerro de Oro	7	Julio	2023-07-22T00:00:00	2024-11-08T07:00:00	1	Precipitación	0
162056	7	Sololá	719	Santiago Atitlán	14	Cerro de Oro	7	Julio	2023-07-22T00:00:00	2024-11-08T07:00:00	8	Radiación solar	79
162057	7	Sololá	719	Santiago Atitlán	14	Cerro de Oro	7	Julio	2023-07-22T00:00:00	2024-11-08T08:00:00	2	Temperatura media	22.8
162058	7	Sololá	719	Santiago Atitlán	14	Cerro de Oro	7	Julio	2023-07-22T00:00:00	2024-11-08T08:00:00	4	Temperatura máxima	22.8
162059	7	Sololá	719	Santiago Atitlán	14	Cerro de Oro	7	Julio	2023-07-22T00:00:00	2024-11-08T08:00:00	3	Temperatura mínima	20.6
162060	7	Sololá	719	Santiago Atitlán	14	Cerro de Oro	7	Julio	2023-07-22T00:00:00	2024-11-08T08:00:00	5	Humedad	69
162061	7	Sololá	719	Santiago Atitlán	14	Cerro de Oro	7	Julio	2023-07-22T00:00:00	2024-11-08T08:00:00	6	Velocidad del viento	3.2
162062	7	Sololá	719	Santiago Atitlán	14	Cerro de Oro	7	Julio	2023-07-22T00:00:00	2024-11-08T08:00:00	7	Dirección del viento	3.22
162063	7	Sololá	719	Santiago Atitlán	14	Cerro de Oro	7	Julio	2023-07-22T00:00:00	2024-11-08T08:00:00	1	Precipitación	0
162064	7	Sololá	719	Santiago Atitlán	14	Cerro de Oro	7	Julio	2023-07-22T00:00:00	2024-11-08T08:00:00	8	Radiación solar	275
162065	7	Sololá	719	Santiago Atitlán	14	Cerro de Oro	7	Julio	2023-07-22T00:00:00	2024-11-08T09:00:00	2	Temperatura media	23.3
162066	7	Sololá	719	Santiago Atitlán	14	Cerro de Oro	7	Julio	2023-07-22T00:00:00	2024-11-08T09:00:00	4	Temperatura máxima	23.6
162067	7	Sololá	719	Santiago Atitlán	14	Cerro de Oro	7	Julio	2023-07-22T00:00:00	2024-11-08T09:00:00	3	Temperatura mínima	22.8
162068	7	Sololá	719	Santiago Atitlán	14	Cerro de Oro	7	Julio	2023-07-22T00:00:00	2024-11-08T09:00:00	5	Humedad	64
162069	7	Sololá	719	Santiago Atitlán	14	Cerro de Oro	7	Julio	2023-07-22T00:00:00	2024-11-08T09:00:00	6	Velocidad del viento	3.2
162070	7	Sololá	719	Santiago Atitlán	14	Cerro de Oro	7	Julio	2023-07-22T00:00:00	2024-11-08T09:00:00	7	Dirección del viento	3.22
162071	7	Sololá	719	Santiago Atitlán	14	Cerro de Oro	7	Julio	2023-07-22T00:00:00	2024-11-08T09:00:00	1	Precipitación	0
162072	7	Sololá	719	Santiago Atitlán	14	Cerro de Oro	7	Julio	2023-07-22T00:00:00	2024-11-08T09:00:00	8	Radiación solar	413
162073	7	Sololá	719	Santiago Atitlán	14	Cerro de Oro	7	Julio	2023-07-22T00:00:00	2024-11-08T10:00:00	2	Temperatura media	23.7
162074	7	Sololá	719	Santiago Atitlán	14	Cerro de Oro	7	Julio	2023-07-22T00:00:00	2024-11-08T10:00:00	4	Temperatura máxima	23.7
162075	7	Sololá	719	Santiago Atitlán	14	Cerro de Oro	7	Julio	2023-07-22T00:00:00	2024-11-08T10:00:00	3	Temperatura mínima	23
162076	7	Sololá	719	Santiago Atitlán	14	Cerro de Oro	7	Julio	2023-07-22T00:00:00	2024-11-08T10:00:00	5	Humedad	72
162077	7	Sololá	719	Santiago Atitlán	14	Cerro de Oro	7	Julio	2023-07-22T00:00:00	2024-11-08T10:00:00	6	Velocidad del viento	3.2
162078	7	Sololá	719	Santiago Atitlán	14	Cerro de Oro	7	Julio	2023-07-22T00:00:00	2024-11-08T10:00:00	7	Dirección del viento	3.22
162079	7	Sololá	719	Santiago Atitlán	14	Cerro de Oro	7	Julio	2023-07-22T00:00:00	2024-11-08T10:00:00	1	Precipitación	0
162080	7	Sololá	719	Santiago Atitlán	14	Cerro de Oro	7	Julio	2023-07-22T00:00:00	2024-11-08T10:00:00	8	Radiación solar	461
162081	7	Sololá	719	Santiago Atitlán	14	Cerro de Oro	7	Julio	2023-07-22T00:00:00	2024-11-08T11:00:00	2	Temperatura media	25.2
162082	7	Sololá	719	Santiago Atitlán	14	Cerro de Oro	7	Julio	2023-07-22T00:00:00	2024-11-08T11:00:00	4	Temperatura máxima	25.6
162083	7	Sololá	719	Santiago Atitlán	14	Cerro de Oro	7	Julio	2023-07-22T00:00:00	2024-11-08T11:00:00	3	Temperatura mínima	23.7
162084	7	Sololá	719	Santiago Atitlán	14	Cerro de Oro	7	Julio	2023-07-22T00:00:00	2024-11-08T11:00:00	5	Humedad	70
162085	7	Sololá	719	Santiago Atitlán	14	Cerro de Oro	7	Julio	2023-07-22T00:00:00	2024-11-08T11:00:00	6	Velocidad del viento	6.4
162086	7	Sololá	719	Santiago Atitlán	14	Cerro de Oro	7	Julio	2023-07-22T00:00:00	2024-11-08T11:00:00	7	Dirección del viento	6.44
162087	7	Sololá	719	Santiago Atitlán	14	Cerro de Oro	7	Julio	2023-07-22T00:00:00	2024-11-08T11:00:00	1	Precipitación	0
162088	7	Sololá	719	Santiago Atitlán	14	Cerro de Oro	7	Julio	2023-07-22T00:00:00	2024-11-08T11:00:00	8	Radiación solar	897
162089	7	Sololá	719	Santiago Atitlán	14	Cerro de Oro	7	Julio	2023-07-22T00:00:00	2024-11-08T12:00:00	2	Temperatura media	24
162090	7	Sololá	719	Santiago Atitlán	14	Cerro de Oro	7	Julio	2023-07-22T00:00:00	2024-11-08T12:00:00	4	Temperatura máxima	25.1
162091	7	Sololá	719	Santiago Atitlán	14	Cerro de Oro	7	Julio	2023-07-22T00:00:00	2024-11-08T12:00:00	3	Temperatura mínima	23.6
162092	7	Sololá	719	Santiago Atitlán	14	Cerro de Oro	7	Julio	2023-07-22T00:00:00	2024-11-08T12:00:00	5	Humedad	75
162093	7	Sololá	719	Santiago Atitlán	14	Cerro de Oro	7	Julio	2023-07-22T00:00:00	2024-11-08T12:00:00	6	Velocidad del viento	11.3
162094	7	Sololá	719	Santiago Atitlán	14	Cerro de Oro	7	Julio	2023-07-22T00:00:00	2024-11-08T12:00:00	7	Dirección del viento	11.27
162095	7	Sololá	719	Santiago Atitlán	14	Cerro de Oro	7	Julio	2023-07-22T00:00:00	2024-11-08T12:00:00	1	Precipitación	0
162096	7	Sololá	719	Santiago Atitlán	14	Cerro de Oro	7	Julio	2023-07-22T00:00:00	2024-11-08T12:00:00	8	Radiación solar	814
162097	7	Sololá	719	Santiago Atitlán	14	Cerro de Oro	7	Julio	2023-07-22T00:00:00	2024-11-08T13:00:00	2	Temperatura media	22.2
162098	7	Sololá	719	Santiago Atitlán	14	Cerro de Oro	7	Julio	2023-07-22T00:00:00	2024-11-08T13:00:00	4	Temperatura máxima	24.3
162099	7	Sololá	719	Santiago Atitlán	14	Cerro de Oro	7	Julio	2023-07-22T00:00:00	2024-11-08T13:00:00	3	Temperatura mínima	22.2
162100	7	Sololá	719	Santiago Atitlán	14	Cerro de Oro	7	Julio	2023-07-22T00:00:00	2024-11-08T13:00:00	5	Humedad	82
162101	7	Sololá	719	Santiago Atitlán	14	Cerro de Oro	7	Julio	2023-07-22T00:00:00	2024-11-08T13:00:00	6	Velocidad del viento	9.7
162102	7	Sololá	719	Santiago Atitlán	14	Cerro de Oro	7	Julio	2023-07-22T00:00:00	2024-11-08T13:00:00	7	Dirección del viento	9.66
162103	7	Sololá	719	Santiago Atitlán	14	Cerro de Oro	7	Julio	2023-07-22T00:00:00	2024-11-08T13:00:00	1	Precipitación	0
162104	7	Sololá	719	Santiago Atitlán	14	Cerro de Oro	7	Julio	2023-07-22T00:00:00	2024-11-08T13:00:00	8	Radiación solar	421
162105	7	Sololá	719	Santiago Atitlán	14	Cerro de Oro	7	Julio	2023-07-22T00:00:00	2024-11-08T14:00:00	2	Temperatura media	20.7
162106	7	Sololá	719	Santiago Atitlán	14	Cerro de Oro	7	Julio	2023-07-22T00:00:00	2024-11-08T14:00:00	4	Temperatura máxima	22.2
162107	7	Sololá	719	Santiago Atitlán	14	Cerro de Oro	7	Julio	2023-07-22T00:00:00	2024-11-08T14:00:00	3	Temperatura mínima	20.7
162108	7	Sololá	719	Santiago Atitlán	14	Cerro de Oro	7	Julio	2023-07-22T00:00:00	2024-11-08T14:00:00	5	Humedad	79
162109	7	Sololá	719	Santiago Atitlán	14	Cerro de Oro	7	Julio	2023-07-22T00:00:00	2024-11-08T14:00:00	6	Velocidad del viento	3.2
162110	7	Sololá	719	Santiago Atitlán	14	Cerro de Oro	7	Julio	2023-07-22T00:00:00	2024-11-08T14:00:00	7	Dirección del viento	3.22
162111	7	Sololá	719	Santiago Atitlán	14	Cerro de Oro	7	Julio	2023-07-22T00:00:00	2024-11-08T14:00:00	1	Precipitación	0
162112	7	Sololá	719	Santiago Atitlán	14	Cerro de Oro	7	Julio	2023-07-22T00:00:00	2024-11-08T14:00:00	8	Radiación solar	135
162113	7	Sololá	719	Santiago Atitlán	14	Cerro de Oro	7	Julio	2023-07-22T00:00:00	2024-11-08T15:00:00	2	Temperatura media	19.7
162114	7	Sololá	719	Santiago Atitlán	14	Cerro de Oro	7	Julio	2023-07-22T00:00:00	2024-11-08T15:00:00	4	Temperatura máxima	20.7
162115	7	Sololá	719	Santiago Atitlán	14	Cerro de Oro	7	Julio	2023-07-22T00:00:00	2024-11-08T15:00:00	3	Temperatura mínima	19.7
162116	7	Sololá	719	Santiago Atitlán	14	Cerro de Oro	7	Julio	2023-07-22T00:00:00	2024-11-08T15:00:00	5	Humedad	85
162117	7	Sololá	719	Santiago Atitlán	14	Cerro de Oro	7	Julio	2023-07-22T00:00:00	2024-11-08T15:00:00	6	Velocidad del viento	3.2
162118	7	Sololá	719	Santiago Atitlán	14	Cerro de Oro	7	Julio	2023-07-22T00:00:00	2024-11-08T15:00:00	7	Dirección del viento	3.22
162119	7	Sololá	719	Santiago Atitlán	14	Cerro de Oro	7	Julio	2023-07-22T00:00:00	2024-11-08T15:00:00	1	Precipitación	0.4
162120	7	Sololá	719	Santiago Atitlán	14	Cerro de Oro	7	Julio	2023-07-22T00:00:00	2024-11-08T15:00:00	8	Radiación solar	36
162121	7	Sololá	719	Santiago Atitlán	14	Cerro de Oro	7	Julio	2023-07-22T00:00:00	2024-11-08T16:00:00	2	Temperatura media	19.4
162122	7	Sololá	719	Santiago Atitlán	14	Cerro de Oro	7	Julio	2023-07-22T00:00:00	2024-11-08T16:00:00	4	Temperatura máxima	19.8
162123	7	Sololá	719	Santiago Atitlán	14	Cerro de Oro	7	Julio	2023-07-22T00:00:00	2024-11-08T16:00:00	3	Temperatura mínima	19.3
162124	7	Sololá	719	Santiago Atitlán	14	Cerro de Oro	7	Julio	2023-07-22T00:00:00	2024-11-08T16:00:00	5	Humedad	88
162125	7	Sololá	719	Santiago Atitlán	14	Cerro de Oro	7	Julio	2023-07-22T00:00:00	2024-11-08T16:00:00	6	Velocidad del viento	1.6
162126	7	Sololá	719	Santiago Atitlán	14	Cerro de Oro	7	Julio	2023-07-22T00:00:00	2024-11-08T16:00:00	7	Dirección del viento	1.61
162127	7	Sololá	719	Santiago Atitlán	14	Cerro de Oro	7	Julio	2023-07-22T00:00:00	2024-11-08T16:00:00	1	Precipitación	0.4
162128	7	Sololá	719	Santiago Atitlán	14	Cerro de Oro	7	Julio	2023-07-22T00:00:00	2024-11-08T16:00:00	8	Radiación solar	46
162129	7	Sololá	719	Santiago Atitlán	14	Cerro de Oro	7	Julio	2023-07-22T00:00:00	2024-11-08T17:00:00	2	Temperatura media	19
162130	7	Sololá	719	Santiago Atitlán	14	Cerro de Oro	7	Julio	2023-07-22T00:00:00	2024-11-08T17:00:00	4	Temperatura máxima	19.5
162131	7	Sololá	719	Santiago Atitlán	14	Cerro de Oro	7	Julio	2023-07-22T00:00:00	2024-11-08T17:00:00	3	Temperatura mínima	18.8
162132	7	Sololá	719	Santiago Atitlán	14	Cerro de Oro	7	Julio	2023-07-22T00:00:00	2024-11-08T17:00:00	5	Humedad	88
162133	7	Sololá	719	Santiago Atitlán	14	Cerro de Oro	7	Julio	2023-07-22T00:00:00	2024-11-08T17:00:00	6	Velocidad del viento	3.2
162134	7	Sololá	719	Santiago Atitlán	14	Cerro de Oro	7	Julio	2023-07-22T00:00:00	2024-11-08T17:00:00	7	Dirección del viento	3.22
162135	7	Sololá	719	Santiago Atitlán	14	Cerro de Oro	7	Julio	2023-07-22T00:00:00	2024-11-08T17:00:00	1	Precipitación	0.2
162136	7	Sololá	719	Santiago Atitlán	14	Cerro de Oro	7	Julio	2023-07-22T00:00:00	2024-11-08T17:00:00	8	Radiación solar	38
162137	7	Sololá	719	Santiago Atitlán	14	Cerro de Oro	7	Julio	2023-07-22T00:00:00	2024-11-08T18:00:00	2	Temperatura media	19.1
162138	7	Sololá	719	Santiago Atitlán	14	Cerro de Oro	7	Julio	2023-07-22T00:00:00	2024-11-08T18:00:00	4	Temperatura máxima	19.6
162139	7	Sololá	719	Santiago Atitlán	14	Cerro de Oro	7	Julio	2023-07-22T00:00:00	2024-11-08T18:00:00	3	Temperatura mínima	19
162140	7	Sololá	719	Santiago Atitlán	14	Cerro de Oro	7	Julio	2023-07-22T00:00:00	2024-11-08T18:00:00	5	Humedad	87
162141	7	Sololá	719	Santiago Atitlán	14	Cerro de Oro	7	Julio	2023-07-22T00:00:00	2024-11-08T18:00:00	6	Velocidad del viento	3.2
162142	7	Sololá	719	Santiago Atitlán	14	Cerro de Oro	7	Julio	2023-07-22T00:00:00	2024-11-08T18:00:00	7	Dirección del viento	3.22
162143	7	Sololá	719	Santiago Atitlán	14	Cerro de Oro	7	Julio	2023-07-22T00:00:00	2024-11-08T18:00:00	1	Precipitación	0
162144	7	Sololá	719	Santiago Atitlán	14	Cerro de Oro	7	Julio	2023-07-22T00:00:00	2024-11-08T18:00:00	8	Radiación solar	28
162145	7	Sololá	719	Santiago Atitlán	14	Cerro de Oro	7	Julio	2023-07-22T00:00:00	2024-11-08T19:00:00	2	Temperatura media	18.7
162146	7	Sololá	719	Santiago Atitlán	14	Cerro de Oro	7	Julio	2023-07-22T00:00:00	2024-11-08T19:00:00	4	Temperatura máxima	19.1
162147	7	Sololá	719	Santiago Atitlán	14	Cerro de Oro	7	Julio	2023-07-22T00:00:00	2024-11-08T19:00:00	3	Temperatura mínima	18.7
162148	7	Sololá	719	Santiago Atitlán	14	Cerro de Oro	7	Julio	2023-07-22T00:00:00	2024-11-08T19:00:00	5	Humedad	89
162149	7	Sololá	719	Santiago Atitlán	14	Cerro de Oro	7	Julio	2023-07-22T00:00:00	2024-11-08T19:00:00	6	Velocidad del viento	3.2
162150	7	Sololá	719	Santiago Atitlán	14	Cerro de Oro	7	Julio	2023-07-22T00:00:00	2024-11-08T19:00:00	7	Dirección del viento	3.22
162151	7	Sololá	719	Santiago Atitlán	14	Cerro de Oro	7	Julio	2023-07-22T00:00:00	2024-11-08T19:00:00	1	Precipitación	0
162152	7	Sololá	719	Santiago Atitlán	14	Cerro de Oro	7	Julio	2023-07-22T00:00:00	2024-11-08T19:00:00	8	Radiación solar	0
162153	7	Sololá	719	Santiago Atitlán	14	Cerro de Oro	7	Julio	2023-07-22T00:00:00	2024-11-08T20:00:00	2	Temperatura media	18.5
162154	7	Sololá	719	Santiago Atitlán	14	Cerro de Oro	7	Julio	2023-07-22T00:00:00	2024-11-08T20:00:00	4	Temperatura máxima	18.9
162155	7	Sololá	719	Santiago Atitlán	14	Cerro de Oro	7	Julio	2023-07-22T00:00:00	2024-11-08T20:00:00	3	Temperatura mínima	18.4
162156	7	Sololá	719	Santiago Atitlán	14	Cerro de Oro	7	Julio	2023-07-22T00:00:00	2024-11-08T20:00:00	5	Humedad	89
162157	7	Sololá	719	Santiago Atitlán	14	Cerro de Oro	7	Julio	2023-07-22T00:00:00	2024-11-08T20:00:00	6	Velocidad del viento	4.8
162158	7	Sololá	719	Santiago Atitlán	14	Cerro de Oro	7	Julio	2023-07-22T00:00:00	2024-11-08T20:00:00	7	Dirección del viento	4.83
162159	7	Sololá	719	Santiago Atitlán	14	Cerro de Oro	7	Julio	2023-07-22T00:00:00	2024-11-08T20:00:00	1	Precipitación	0
162160	7	Sololá	719	Santiago Atitlán	14	Cerro de Oro	7	Julio	2023-07-22T00:00:00	2024-11-08T20:00:00	8	Radiación solar	0
162161	7	Sololá	719	Santiago Atitlán	14	Cerro de Oro	7	Julio	2023-07-22T00:00:00	2024-11-08T21:00:00	2	Temperatura media	18.6
162162	7	Sololá	719	Santiago Atitlán	14	Cerro de Oro	7	Julio	2023-07-22T00:00:00	2024-11-08T21:00:00	4	Temperatura máxima	18.9
162163	7	Sololá	719	Santiago Atitlán	14	Cerro de Oro	7	Julio	2023-07-22T00:00:00	2024-11-08T21:00:00	3	Temperatura mínima	18.3
162164	7	Sololá	719	Santiago Atitlán	14	Cerro de Oro	7	Julio	2023-07-22T00:00:00	2024-11-08T21:00:00	5	Humedad	88
162165	7	Sololá	719	Santiago Atitlán	14	Cerro de Oro	7	Julio	2023-07-22T00:00:00	2024-11-08T21:00:00	6	Velocidad del viento	4.8
162166	7	Sololá	719	Santiago Atitlán	14	Cerro de Oro	7	Julio	2023-07-22T00:00:00	2024-11-08T21:00:00	7	Dirección del viento	4.83
162167	7	Sololá	719	Santiago Atitlán	14	Cerro de Oro	7	Julio	2023-07-22T00:00:00	2024-11-08T21:00:00	1	Precipitación	0
162168	7	Sololá	719	Santiago Atitlán	14	Cerro de Oro	7	Julio	2023-07-22T00:00:00	2024-11-08T21:00:00	8	Radiación solar	0
162169	7	Sololá	719	Santiago Atitlán	14	Cerro de Oro	7	Julio	2023-07-22T00:00:00	2024-11-08T22:00:00	2	Temperatura media	18.7
162170	7	Sololá	719	Santiago Atitlán	14	Cerro de Oro	7	Julio	2023-07-22T00:00:00	2024-11-08T22:00:00	4	Temperatura máxima	18.7
162171	7	Sololá	719	Santiago Atitlán	14	Cerro de Oro	7	Julio	2023-07-22T00:00:00	2024-11-08T22:00:00	3	Temperatura mínima	18.3
162172	7	Sololá	719	Santiago Atitlán	14	Cerro de Oro	7	Julio	2023-07-22T00:00:00	2024-11-08T22:00:00	5	Humedad	90
162173	7	Sololá	719	Santiago Atitlán	14	Cerro de Oro	7	Julio	2023-07-22T00:00:00	2024-11-08T22:00:00	6	Velocidad del viento	4.8
162174	7	Sololá	719	Santiago Atitlán	14	Cerro de Oro	7	Julio	2023-07-22T00:00:00	2024-11-08T22:00:00	7	Dirección del viento	4.83
162175	7	Sololá	719	Santiago Atitlán	14	Cerro de Oro	7	Julio	2023-07-22T00:00:00	2024-11-08T22:00:00	1	Precipitación	0
162176	7	Sololá	719	Santiago Atitlán	14	Cerro de Oro	7	Julio	2023-07-22T00:00:00	2024-11-08T22:00:00	8	Radiación solar	0
162177	7	Sololá	719	Santiago Atitlán	14	Cerro de Oro	7	Julio	2023-07-22T00:00:00	2024-11-08T23:00:00	2	Temperatura media	18.8
162178	7	Sololá	719	Santiago Atitlán	14	Cerro de Oro	7	Julio	2023-07-22T00:00:00	2024-11-08T23:00:00	4	Temperatura máxima	18.9
162179	7	Sololá	719	Santiago Atitlán	14	Cerro de Oro	7	Julio	2023-07-22T00:00:00	2024-11-08T23:00:00	3	Temperatura mínima	18.5
162180	7	Sololá	719	Santiago Atitlán	14	Cerro de Oro	7	Julio	2023-07-22T00:00:00	2024-11-08T23:00:00	5	Humedad	88
162181	7	Sololá	719	Santiago Atitlán	14	Cerro de Oro	7	Julio	2023-07-22T00:00:00	2024-11-08T23:00:00	6	Velocidad del viento	3.2
162182	7	Sololá	719	Santiago Atitlán	14	Cerro de Oro	7	Julio	2023-07-22T00:00:00	2024-11-08T23:00:00	7	Dirección del viento	3.22
162183	7	Sololá	719	Santiago Atitlán	14	Cerro de Oro	7	Julio	2023-07-22T00:00:00	2024-11-08T23:00:00	1	Precipitación	0
162184	7	Sololá	719	Santiago Atitlán	14	Cerro de Oro	7	Julio	2023-07-22T00:00:00	2024-11-08T23:00:00	8	Radiación solar	0
162185	7	Sololá	719	Santiago Atitlán	14	Cerro de Oro	7	Julio	2023-07-23T00:00:00	2024-11-08T00:00:00	2	Temperatura media	18.8
162186	7	Sololá	719	Santiago Atitlán	14	Cerro de Oro	7	Julio	2023-07-23T00:00:00	2024-11-08T00:00:00	4	Temperatura máxima	18.9
162187	7	Sololá	719	Santiago Atitlán	14	Cerro de Oro	7	Julio	2023-07-23T00:00:00	2024-11-08T00:00:00	3	Temperatura mínima	18.3
162188	7	Sololá	719	Santiago Atitlán	14	Cerro de Oro	7	Julio	2023-07-23T00:00:00	2024-11-08T00:00:00	5	Humedad	85
162189	7	Sololá	719	Santiago Atitlán	14	Cerro de Oro	7	Julio	2023-07-23T00:00:00	2024-11-08T00:00:00	6	Velocidad del viento	3.2
162190	7	Sololá	719	Santiago Atitlán	14	Cerro de Oro	7	Julio	2023-07-23T00:00:00	2024-11-08T00:00:00	7	Dirección del viento	3.22
162191	7	Sololá	719	Santiago Atitlán	14	Cerro de Oro	7	Julio	2023-07-23T00:00:00	2024-11-08T00:00:00	1	Precipitación	0
162192	7	Sololá	719	Santiago Atitlán	14	Cerro de Oro	7	Julio	2023-07-23T00:00:00	2024-11-08T00:00:00	8	Radiación solar	0
162193	7	Sololá	719	Santiago Atitlán	14	Cerro de Oro	7	Julio	2023-07-23T00:00:00	2024-11-08T01:00:00	2	Temperatura media	18.2
162194	7	Sololá	719	Santiago Atitlán	14	Cerro de Oro	7	Julio	2023-07-23T00:00:00	2024-11-08T01:00:00	4	Temperatura máxima	18.8
162195	7	Sololá	719	Santiago Atitlán	14	Cerro de Oro	7	Julio	2023-07-23T00:00:00	2024-11-08T01:00:00	3	Temperatura mínima	18.1
162196	7	Sololá	719	Santiago Atitlán	14	Cerro de Oro	7	Julio	2023-07-23T00:00:00	2024-11-08T01:00:00	5	Humedad	86
162197	7	Sololá	719	Santiago Atitlán	14	Cerro de Oro	7	Julio	2023-07-23T00:00:00	2024-11-08T01:00:00	6	Velocidad del viento	4.8
162198	7	Sololá	719	Santiago Atitlán	14	Cerro de Oro	7	Julio	2023-07-23T00:00:00	2024-11-08T01:00:00	7	Dirección del viento	4.83
162199	7	Sololá	719	Santiago Atitlán	14	Cerro de Oro	7	Julio	2023-07-23T00:00:00	2024-11-08T01:00:00	1	Precipitación	0
162200	7	Sololá	719	Santiago Atitlán	14	Cerro de Oro	7	Julio	2023-07-23T00:00:00	2024-11-08T01:00:00	8	Radiación solar	0
162201	7	Sololá	719	Santiago Atitlán	14	Cerro de Oro	7	Julio	2023-07-23T00:00:00	2024-11-08T02:00:00	2	Temperatura media	18.4
162202	7	Sololá	719	Santiago Atitlán	14	Cerro de Oro	7	Julio	2023-07-23T00:00:00	2024-11-08T02:00:00	4	Temperatura máxima	18.8
162203	7	Sololá	719	Santiago Atitlán	14	Cerro de Oro	7	Julio	2023-07-23T00:00:00	2024-11-08T02:00:00	3	Temperatura mínima	18.1
162204	7	Sololá	719	Santiago Atitlán	14	Cerro de Oro	7	Julio	2023-07-23T00:00:00	2024-11-08T02:00:00	5	Humedad	85
162205	7	Sololá	719	Santiago Atitlán	14	Cerro de Oro	7	Julio	2023-07-23T00:00:00	2024-11-08T02:00:00	6	Velocidad del viento	3.2
162206	7	Sololá	719	Santiago Atitlán	14	Cerro de Oro	7	Julio	2023-07-23T00:00:00	2024-11-08T02:00:00	7	Dirección del viento	3.22
162207	7	Sololá	719	Santiago Atitlán	14	Cerro de Oro	7	Julio	2023-07-23T00:00:00	2024-11-08T02:00:00	1	Precipitación	0
162208	7	Sololá	719	Santiago Atitlán	14	Cerro de Oro	7	Julio	2023-07-23T00:00:00	2024-11-08T02:00:00	8	Radiación solar	0
162209	7	Sololá	719	Santiago Atitlán	14	Cerro de Oro	7	Julio	2023-07-23T00:00:00	2024-11-08T03:00:00	2	Temperatura media	18.9
162210	7	Sololá	719	Santiago Atitlán	14	Cerro de Oro	7	Julio	2023-07-23T00:00:00	2024-11-08T03:00:00	4	Temperatura máxima	18.9
162211	7	Sololá	719	Santiago Atitlán	14	Cerro de Oro	7	Julio	2023-07-23T00:00:00	2024-11-08T03:00:00	3	Temperatura mínima	18.4
162212	7	Sololá	719	Santiago Atitlán	14	Cerro de Oro	7	Julio	2023-07-23T00:00:00	2024-11-08T03:00:00	5	Humedad	81
162213	7	Sololá	719	Santiago Atitlán	14	Cerro de Oro	7	Julio	2023-07-23T00:00:00	2024-11-08T03:00:00	6	Velocidad del viento	3.2
162214	7	Sololá	719	Santiago Atitlán	14	Cerro de Oro	7	Julio	2023-07-23T00:00:00	2024-11-08T03:00:00	7	Dirección del viento	3.22
162215	7	Sololá	719	Santiago Atitlán	14	Cerro de Oro	7	Julio	2023-07-23T00:00:00	2024-11-08T03:00:00	1	Precipitación	0
162216	7	Sololá	719	Santiago Atitlán	14	Cerro de Oro	7	Julio	2023-07-23T00:00:00	2024-11-08T03:00:00	8	Radiación solar	0
162217	7	Sololá	719	Santiago Atitlán	14	Cerro de Oro	7	Julio	2023-07-23T00:00:00	2024-11-08T04:00:00	2	Temperatura media	18.7
162218	7	Sololá	719	Santiago Atitlán	14	Cerro de Oro	7	Julio	2023-07-23T00:00:00	2024-11-08T04:00:00	4	Temperatura máxima	19.3
162219	7	Sololá	719	Santiago Atitlán	14	Cerro de Oro	7	Julio	2023-07-23T00:00:00	2024-11-08T04:00:00	3	Temperatura mínima	18.7
162220	7	Sololá	719	Santiago Atitlán	14	Cerro de Oro	7	Julio	2023-07-23T00:00:00	2024-11-08T04:00:00	5	Humedad	83
162221	7	Sololá	719	Santiago Atitlán	14	Cerro de Oro	7	Julio	2023-07-23T00:00:00	2024-11-08T04:00:00	6	Velocidad del viento	3.2
162222	7	Sololá	719	Santiago Atitlán	14	Cerro de Oro	7	Julio	2023-07-23T00:00:00	2024-11-08T04:00:00	7	Dirección del viento	3.22
162223	7	Sololá	719	Santiago Atitlán	14	Cerro de Oro	7	Julio	2023-07-23T00:00:00	2024-11-08T04:00:00	1	Precipitación	0
162224	7	Sololá	719	Santiago Atitlán	14	Cerro de Oro	7	Julio	2023-07-23T00:00:00	2024-11-08T04:00:00	8	Radiación solar	0
162225	7	Sololá	719	Santiago Atitlán	14	Cerro de Oro	7	Julio	2023-07-23T00:00:00	2024-11-08T05:00:00	2	Temperatura media	17.8
162226	7	Sololá	719	Santiago Atitlán	14	Cerro de Oro	7	Julio	2023-07-23T00:00:00	2024-11-08T05:00:00	4	Temperatura máxima	18.8
162227	7	Sololá	719	Santiago Atitlán	14	Cerro de Oro	7	Julio	2023-07-23T00:00:00	2024-11-08T05:00:00	3	Temperatura mínima	17.8
162228	7	Sololá	719	Santiago Atitlán	14	Cerro de Oro	7	Julio	2023-07-23T00:00:00	2024-11-08T05:00:00	5	Humedad	88
162229	7	Sololá	719	Santiago Atitlán	14	Cerro de Oro	7	Julio	2023-07-23T00:00:00	2024-11-08T05:00:00	6	Velocidad del viento	4.8
162230	7	Sololá	719	Santiago Atitlán	14	Cerro de Oro	7	Julio	2023-07-23T00:00:00	2024-11-08T05:00:00	7	Dirección del viento	4.83
162231	7	Sololá	719	Santiago Atitlán	14	Cerro de Oro	7	Julio	2023-07-23T00:00:00	2024-11-08T05:00:00	1	Precipitación	0
162232	7	Sololá	719	Santiago Atitlán	14	Cerro de Oro	7	Julio	2023-07-23T00:00:00	2024-11-08T05:00:00	8	Radiación solar	0
162233	7	Sololá	719	Santiago Atitlán	14	Cerro de Oro	7	Julio	2023-07-23T00:00:00	2024-11-08T06:00:00	2	Temperatura media	18.2
162234	7	Sololá	719	Santiago Atitlán	14	Cerro de Oro	7	Julio	2023-07-23T00:00:00	2024-11-08T06:00:00	4	Temperatura máxima	18.2
162235	7	Sololá	719	Santiago Atitlán	14	Cerro de Oro	7	Julio	2023-07-23T00:00:00	2024-11-08T06:00:00	3	Temperatura mínima	17.6
162236	7	Sololá	719	Santiago Atitlán	14	Cerro de Oro	7	Julio	2023-07-23T00:00:00	2024-11-08T06:00:00	5	Humedad	85
162237	7	Sololá	719	Santiago Atitlán	14	Cerro de Oro	7	Julio	2023-07-23T00:00:00	2024-11-08T06:00:00	6	Velocidad del viento	4.8
162238	7	Sololá	719	Santiago Atitlán	14	Cerro de Oro	7	Julio	2023-07-23T00:00:00	2024-11-08T06:00:00	7	Dirección del viento	4.83
162239	7	Sololá	719	Santiago Atitlán	14	Cerro de Oro	7	Julio	2023-07-23T00:00:00	2024-11-08T06:00:00	1	Precipitación	0
162240	7	Sololá	719	Santiago Atitlán	14	Cerro de Oro	7	Julio	2023-07-23T00:00:00	2024-11-08T06:00:00	8	Radiación solar	2
162241	7	Sololá	719	Santiago Atitlán	14	Cerro de Oro	7	Julio	2023-07-23T00:00:00	2024-11-08T07:00:00	2	Temperatura media	19.3
162242	7	Sololá	719	Santiago Atitlán	14	Cerro de Oro	7	Julio	2023-07-23T00:00:00	2024-11-08T07:00:00	4	Temperatura máxima	19.3
162243	7	Sololá	719	Santiago Atitlán	14	Cerro de Oro	7	Julio	2023-07-23T00:00:00	2024-11-08T07:00:00	3	Temperatura mínima	18.1
162244	7	Sololá	719	Santiago Atitlán	14	Cerro de Oro	7	Julio	2023-07-23T00:00:00	2024-11-08T07:00:00	5	Humedad	83
162245	7	Sololá	719	Santiago Atitlán	14	Cerro de Oro	7	Julio	2023-07-23T00:00:00	2024-11-08T07:00:00	6	Velocidad del viento	3.2
162246	7	Sololá	719	Santiago Atitlán	14	Cerro de Oro	7	Julio	2023-07-23T00:00:00	2024-11-08T07:00:00	7	Dirección del viento	3.22
162247	7	Sololá	719	Santiago Atitlán	14	Cerro de Oro	7	Julio	2023-07-23T00:00:00	2024-11-08T07:00:00	1	Precipitación	0
162248	7	Sololá	719	Santiago Atitlán	14	Cerro de Oro	7	Julio	2023-07-23T00:00:00	2024-11-08T07:00:00	8	Radiación solar	57
162249	7	Sololá	719	Santiago Atitlán	14	Cerro de Oro	7	Julio	2023-07-23T00:00:00	2024-11-08T08:00:00	2	Temperatura media	20.2
162250	7	Sololá	719	Santiago Atitlán	14	Cerro de Oro	7	Julio	2023-07-23T00:00:00	2024-11-08T08:00:00	4	Temperatura máxima	20.2
162251	7	Sololá	719	Santiago Atitlán	14	Cerro de Oro	7	Julio	2023-07-23T00:00:00	2024-11-08T08:00:00	3	Temperatura mínima	19.2
162252	7	Sololá	719	Santiago Atitlán	14	Cerro de Oro	7	Julio	2023-07-23T00:00:00	2024-11-08T08:00:00	5	Humedad	79
162253	7	Sololá	719	Santiago Atitlán	14	Cerro de Oro	7	Julio	2023-07-23T00:00:00	2024-11-08T08:00:00	6	Velocidad del viento	3.2
162254	7	Sololá	719	Santiago Atitlán	14	Cerro de Oro	7	Julio	2023-07-23T00:00:00	2024-11-08T08:00:00	7	Dirección del viento	3.22
162255	7	Sololá	719	Santiago Atitlán	14	Cerro de Oro	7	Julio	2023-07-23T00:00:00	2024-11-08T08:00:00	1	Precipitación	0
162256	7	Sololá	719	Santiago Atitlán	14	Cerro de Oro	7	Julio	2023-07-23T00:00:00	2024-11-08T08:00:00	8	Radiación solar	114
162257	7	Sololá	719	Santiago Atitlán	14	Cerro de Oro	7	Julio	2023-07-23T00:00:00	2024-11-08T09:00:00	2	Temperatura media	23.1
162258	7	Sololá	719	Santiago Atitlán	14	Cerro de Oro	7	Julio	2023-07-23T00:00:00	2024-11-08T09:00:00	4	Temperatura máxima	23.2
162259	7	Sololá	719	Santiago Atitlán	14	Cerro de Oro	7	Julio	2023-07-23T00:00:00	2024-11-08T09:00:00	3	Temperatura mínima	20.2
162260	7	Sololá	719	Santiago Atitlán	14	Cerro de Oro	7	Julio	2023-07-23T00:00:00	2024-11-08T09:00:00	5	Humedad	71
162261	7	Sololá	719	Santiago Atitlán	14	Cerro de Oro	7	Julio	2023-07-23T00:00:00	2024-11-08T09:00:00	6	Velocidad del viento	1.6
162262	7	Sololá	719	Santiago Atitlán	14	Cerro de Oro	7	Julio	2023-07-23T00:00:00	2024-11-08T09:00:00	7	Dirección del viento	1.61
162263	7	Sololá	719	Santiago Atitlán	14	Cerro de Oro	7	Julio	2023-07-23T00:00:00	2024-11-08T09:00:00	1	Precipitación	0
162264	7	Sololá	719	Santiago Atitlán	14	Cerro de Oro	7	Julio	2023-07-23T00:00:00	2024-11-08T09:00:00	8	Radiación solar	455
162265	7	Sololá	719	Santiago Atitlán	14	Cerro de Oro	7	Julio	2023-07-23T00:00:00	2024-11-08T10:00:00	2	Temperatura media	22.6
162266	7	Sololá	719	Santiago Atitlán	14	Cerro de Oro	7	Julio	2023-07-23T00:00:00	2024-11-08T10:00:00	4	Temperatura máxima	23.4
162267	7	Sololá	719	Santiago Atitlán	14	Cerro de Oro	7	Julio	2023-07-23T00:00:00	2024-11-08T10:00:00	3	Temperatura mínima	22.1
162268	7	Sololá	719	Santiago Atitlán	14	Cerro de Oro	7	Julio	2023-07-23T00:00:00	2024-11-08T10:00:00	5	Humedad	75
162269	7	Sololá	719	Santiago Atitlán	14	Cerro de Oro	7	Julio	2023-07-23T00:00:00	2024-11-08T10:00:00	6	Velocidad del viento	3.2
162270	7	Sololá	719	Santiago Atitlán	14	Cerro de Oro	7	Julio	2023-07-23T00:00:00	2024-11-08T10:00:00	7	Dirección del viento	3.22
162271	7	Sololá	719	Santiago Atitlán	14	Cerro de Oro	7	Julio	2023-07-23T00:00:00	2024-11-08T10:00:00	1	Precipitación	0
162272	7	Sololá	719	Santiago Atitlán	14	Cerro de Oro	7	Julio	2023-07-23T00:00:00	2024-11-08T10:00:00	8	Radiación solar	442
162273	7	Sololá	719	Santiago Atitlán	14	Cerro de Oro	7	Julio	2023-07-23T00:00:00	2024-11-08T11:00:00	2	Temperatura media	24.4
162274	7	Sololá	719	Santiago Atitlán	14	Cerro de Oro	7	Julio	2023-07-23T00:00:00	2024-11-08T11:00:00	4	Temperatura máxima	24.5
162275	7	Sololá	719	Santiago Atitlán	14	Cerro de Oro	7	Julio	2023-07-23T00:00:00	2024-11-08T11:00:00	3	Temperatura mínima	22.6
162276	7	Sololá	719	Santiago Atitlán	14	Cerro de Oro	7	Julio	2023-07-23T00:00:00	2024-11-08T11:00:00	5	Humedad	74
162277	7	Sololá	719	Santiago Atitlán	14	Cerro de Oro	7	Julio	2023-07-23T00:00:00	2024-11-08T11:00:00	6	Velocidad del viento	4.8
162278	7	Sololá	719	Santiago Atitlán	14	Cerro de Oro	7	Julio	2023-07-23T00:00:00	2024-11-08T11:00:00	7	Dirección del viento	4.83
162279	7	Sololá	719	Santiago Atitlán	14	Cerro de Oro	7	Julio	2023-07-23T00:00:00	2024-11-08T11:00:00	1	Precipitación	0
162280	7	Sololá	719	Santiago Atitlán	14	Cerro de Oro	7	Julio	2023-07-23T00:00:00	2024-11-08T11:00:00	8	Radiación solar	873
162281	7	Sololá	719	Santiago Atitlán	14	Cerro de Oro	7	Julio	2023-07-23T00:00:00	2024-11-08T12:00:00	2	Temperatura media	24.8
162282	7	Sololá	719	Santiago Atitlán	14	Cerro de Oro	7	Julio	2023-07-23T00:00:00	2024-11-08T12:00:00	4	Temperatura máxima	24.9
162283	7	Sololá	719	Santiago Atitlán	14	Cerro de Oro	7	Julio	2023-07-23T00:00:00	2024-11-08T12:00:00	3	Temperatura mínima	23.7
162284	7	Sololá	719	Santiago Atitlán	14	Cerro de Oro	7	Julio	2023-07-23T00:00:00	2024-11-08T12:00:00	5	Humedad	73
162285	7	Sololá	719	Santiago Atitlán	14	Cerro de Oro	7	Julio	2023-07-23T00:00:00	2024-11-08T12:00:00	6	Velocidad del viento	8
162286	7	Sololá	719	Santiago Atitlán	14	Cerro de Oro	7	Julio	2023-07-23T00:00:00	2024-11-08T12:00:00	7	Dirección del viento	8.05
162287	7	Sololá	719	Santiago Atitlán	14	Cerro de Oro	7	Julio	2023-07-23T00:00:00	2024-11-08T12:00:00	1	Precipitación	0
162288	7	Sololá	719	Santiago Atitlán	14	Cerro de Oro	7	Julio	2023-07-23T00:00:00	2024-11-08T12:00:00	8	Radiación solar	521
162289	7	Sololá	719	Santiago Atitlán	14	Cerro de Oro	7	Julio	2023-07-23T00:00:00	2024-11-08T13:00:00	2	Temperatura media	21.7
162290	7	Sololá	719	Santiago Atitlán	14	Cerro de Oro	7	Julio	2023-07-23T00:00:00	2024-11-08T13:00:00	4	Temperatura máxima	24.9
162291	7	Sololá	719	Santiago Atitlán	14	Cerro de Oro	7	Julio	2023-07-23T00:00:00	2024-11-08T13:00:00	3	Temperatura mínima	21.7
162292	7	Sololá	719	Santiago Atitlán	14	Cerro de Oro	7	Julio	2023-07-23T00:00:00	2024-11-08T13:00:00	5	Humedad	84
162293	7	Sololá	719	Santiago Atitlán	14	Cerro de Oro	7	Julio	2023-07-23T00:00:00	2024-11-08T13:00:00	6	Velocidad del viento	9.7
162294	7	Sololá	719	Santiago Atitlán	14	Cerro de Oro	7	Julio	2023-07-23T00:00:00	2024-11-08T13:00:00	7	Dirección del viento	9.66
162295	7	Sololá	719	Santiago Atitlán	14	Cerro de Oro	7	Julio	2023-07-23T00:00:00	2024-11-08T13:00:00	1	Precipitación	0
162296	7	Sololá	719	Santiago Atitlán	14	Cerro de Oro	7	Julio	2023-07-23T00:00:00	2024-11-08T13:00:00	8	Radiación solar	469
162297	7	Sololá	719	Santiago Atitlán	14	Cerro de Oro	7	Julio	2023-07-23T00:00:00	2024-11-08T14:00:00	2	Temperatura media	21.9
162298	7	Sololá	719	Santiago Atitlán	14	Cerro de Oro	7	Julio	2023-07-23T00:00:00	2024-11-08T14:00:00	4	Temperatura máxima	22.6
162299	7	Sololá	719	Santiago Atitlán	14	Cerro de Oro	7	Julio	2023-07-23T00:00:00	2024-11-08T14:00:00	3	Temperatura mínima	21.6
162300	7	Sololá	719	Santiago Atitlán	14	Cerro de Oro	7	Julio	2023-07-23T00:00:00	2024-11-08T14:00:00	5	Humedad	83
162301	7	Sololá	719	Santiago Atitlán	14	Cerro de Oro	7	Julio	2023-07-23T00:00:00	2024-11-08T14:00:00	6	Velocidad del viento	8
162302	7	Sololá	719	Santiago Atitlán	14	Cerro de Oro	7	Julio	2023-07-23T00:00:00	2024-11-08T14:00:00	7	Dirección del viento	8.05
162303	7	Sololá	719	Santiago Atitlán	14	Cerro de Oro	7	Julio	2023-07-23T00:00:00	2024-11-08T14:00:00	1	Precipitación	0
162304	7	Sololá	719	Santiago Atitlán	14	Cerro de Oro	7	Julio	2023-07-23T00:00:00	2024-11-08T14:00:00	8	Radiación solar	386
162305	7	Sololá	719	Santiago Atitlán	14	Cerro de Oro	7	Julio	2023-07-23T00:00:00	2024-11-08T15:00:00	2	Temperatura media	21.4
162306	7	Sololá	719	Santiago Atitlán	14	Cerro de Oro	7	Julio	2023-07-23T00:00:00	2024-11-08T15:00:00	4	Temperatura máxima	22.1
162307	7	Sololá	719	Santiago Atitlán	14	Cerro de Oro	7	Julio	2023-07-23T00:00:00	2024-11-08T15:00:00	3	Temperatura mínima	21.3
162308	7	Sololá	719	Santiago Atitlán	14	Cerro de Oro	7	Julio	2023-07-23T00:00:00	2024-11-08T15:00:00	5	Humedad	82
162309	7	Sololá	719	Santiago Atitlán	14	Cerro de Oro	7	Julio	2023-07-23T00:00:00	2024-11-08T15:00:00	6	Velocidad del viento	11.3
162310	7	Sololá	719	Santiago Atitlán	14	Cerro de Oro	7	Julio	2023-07-23T00:00:00	2024-11-08T15:00:00	7	Dirección del viento	11.27
162311	7	Sololá	719	Santiago Atitlán	14	Cerro de Oro	7	Julio	2023-07-23T00:00:00	2024-11-08T15:00:00	1	Precipitación	0
162312	7	Sololá	719	Santiago Atitlán	14	Cerro de Oro	7	Julio	2023-07-23T00:00:00	2024-11-08T15:00:00	8	Radiación solar	376
162313	7	Sololá	719	Santiago Atitlán	14	Cerro de Oro	7	Julio	2023-07-23T00:00:00	2024-11-08T16:00:00	2	Temperatura media	20.8
162314	7	Sololá	719	Santiago Atitlán	14	Cerro de Oro	7	Julio	2023-07-23T00:00:00	2024-11-08T16:00:00	4	Temperatura máxima	21.4
162315	7	Sololá	719	Santiago Atitlán	14	Cerro de Oro	7	Julio	2023-07-23T00:00:00	2024-11-08T16:00:00	3	Temperatura mínima	20.8
162316	7	Sololá	719	Santiago Atitlán	14	Cerro de Oro	7	Julio	2023-07-23T00:00:00	2024-11-08T16:00:00	5	Humedad	81
162317	7	Sololá	719	Santiago Atitlán	14	Cerro de Oro	7	Julio	2023-07-23T00:00:00	2024-11-08T16:00:00	6	Velocidad del viento	6.4
162318	7	Sololá	719	Santiago Atitlán	14	Cerro de Oro	7	Julio	2023-07-23T00:00:00	2024-11-08T16:00:00	7	Dirección del viento	6.44
162319	7	Sololá	719	Santiago Atitlán	14	Cerro de Oro	7	Julio	2023-07-23T00:00:00	2024-11-08T16:00:00	1	Precipitación	0
162320	7	Sololá	719	Santiago Atitlán	14	Cerro de Oro	7	Julio	2023-07-23T00:00:00	2024-11-08T16:00:00	8	Radiación solar	202
162321	7	Sololá	719	Santiago Atitlán	14	Cerro de Oro	7	Julio	2023-07-23T00:00:00	2024-11-08T17:00:00	2	Temperatura media	21.2
162322	7	Sololá	719	Santiago Atitlán	14	Cerro de Oro	7	Julio	2023-07-23T00:00:00	2024-11-08T17:00:00	4	Temperatura máxima	21.3
162323	7	Sololá	719	Santiago Atitlán	14	Cerro de Oro	7	Julio	2023-07-23T00:00:00	2024-11-08T17:00:00	3	Temperatura mínima	20.8
162324	7	Sololá	719	Santiago Atitlán	14	Cerro de Oro	7	Julio	2023-07-23T00:00:00	2024-11-08T17:00:00	5	Humedad	81
162325	7	Sololá	719	Santiago Atitlán	14	Cerro de Oro	7	Julio	2023-07-23T00:00:00	2024-11-08T17:00:00	6	Velocidad del viento	1.6
162326	7	Sololá	719	Santiago Atitlán	14	Cerro de Oro	7	Julio	2023-07-23T00:00:00	2024-11-08T17:00:00	7	Dirección del viento	1.61
162327	7	Sololá	719	Santiago Atitlán	14	Cerro de Oro	7	Julio	2023-07-23T00:00:00	2024-11-08T17:00:00	1	Precipitación	0.2
162328	7	Sololá	719	Santiago Atitlán	14	Cerro de Oro	7	Julio	2023-07-23T00:00:00	2024-11-08T17:00:00	8	Radiación solar	77
162329	7	Sololá	719	Santiago Atitlán	14	Cerro de Oro	7	Julio	2023-07-23T00:00:00	2024-11-08T18:00:00	2	Temperatura media	21.1
162330	7	Sololá	719	Santiago Atitlán	14	Cerro de Oro	7	Julio	2023-07-23T00:00:00	2024-11-08T18:00:00	4	Temperatura máxima	21.4
162331	7	Sololá	719	Santiago Atitlán	14	Cerro de Oro	7	Julio	2023-07-23T00:00:00	2024-11-08T18:00:00	3	Temperatura mínima	21.1
162332	7	Sololá	719	Santiago Atitlán	14	Cerro de Oro	7	Julio	2023-07-23T00:00:00	2024-11-08T18:00:00	5	Humedad	81
162333	7	Sololá	719	Santiago Atitlán	14	Cerro de Oro	7	Julio	2023-07-23T00:00:00	2024-11-08T18:00:00	6	Velocidad del viento	1.6
162334	7	Sololá	719	Santiago Atitlán	14	Cerro de Oro	7	Julio	2023-07-23T00:00:00	2024-11-08T18:00:00	7	Dirección del viento	1.61
162335	7	Sololá	719	Santiago Atitlán	14	Cerro de Oro	7	Julio	2023-07-23T00:00:00	2024-11-08T18:00:00	1	Precipitación	0
162336	7	Sololá	719	Santiago Atitlán	14	Cerro de Oro	7	Julio	2023-07-23T00:00:00	2024-11-08T18:00:00	8	Radiación solar	102
162337	7	Sololá	719	Santiago Atitlán	14	Cerro de Oro	7	Julio	2023-07-23T00:00:00	2024-11-08T19:00:00	2	Temperatura media	19.5
162338	7	Sololá	719	Santiago Atitlán	14	Cerro de Oro	7	Julio	2023-07-23T00:00:00	2024-11-08T19:00:00	4	Temperatura máxima	21.1
162339	7	Sololá	719	Santiago Atitlán	14	Cerro de Oro	7	Julio	2023-07-23T00:00:00	2024-11-08T19:00:00	3	Temperatura mínima	19.4
162340	7	Sololá	719	Santiago Atitlán	14	Cerro de Oro	7	Julio	2023-07-23T00:00:00	2024-11-08T19:00:00	5	Humedad	84
162341	7	Sololá	719	Santiago Atitlán	14	Cerro de Oro	7	Julio	2023-07-23T00:00:00	2024-11-08T19:00:00	6	Velocidad del viento	3.2
162342	7	Sololá	719	Santiago Atitlán	14	Cerro de Oro	7	Julio	2023-07-23T00:00:00	2024-11-08T19:00:00	7	Dirección del viento	3.22
162343	7	Sololá	719	Santiago Atitlán	14	Cerro de Oro	7	Julio	2023-07-23T00:00:00	2024-11-08T19:00:00	1	Precipitación	0
162344	7	Sololá	719	Santiago Atitlán	14	Cerro de Oro	7	Julio	2023-07-23T00:00:00	2024-11-08T19:00:00	8	Radiación solar	0
162345	7	Sololá	719	Santiago Atitlán	14	Cerro de Oro	7	Julio	2023-07-23T00:00:00	2024-11-08T20:00:00	2	Temperatura media	19.6
162346	7	Sololá	719	Santiago Atitlán	14	Cerro de Oro	7	Julio	2023-07-23T00:00:00	2024-11-08T20:00:00	4	Temperatura máxima	19.6
162347	7	Sololá	719	Santiago Atitlán	14	Cerro de Oro	7	Julio	2023-07-23T00:00:00	2024-11-08T20:00:00	3	Temperatura mínima	18.9
162348	7	Sololá	719	Santiago Atitlán	14	Cerro de Oro	7	Julio	2023-07-23T00:00:00	2024-11-08T20:00:00	5	Humedad	84
162349	7	Sololá	719	Santiago Atitlán	14	Cerro de Oro	7	Julio	2023-07-23T00:00:00	2024-11-08T20:00:00	6	Velocidad del viento	3.2
162350	7	Sololá	719	Santiago Atitlán	14	Cerro de Oro	7	Julio	2023-07-23T00:00:00	2024-11-08T20:00:00	7	Dirección del viento	3.22
162351	7	Sololá	719	Santiago Atitlán	14	Cerro de Oro	7	Julio	2023-07-23T00:00:00	2024-11-08T20:00:00	1	Precipitación	0
162352	7	Sololá	719	Santiago Atitlán	14	Cerro de Oro	7	Julio	2023-07-23T00:00:00	2024-11-08T20:00:00	8	Radiación solar	0
162353	7	Sololá	719	Santiago Atitlán	14	Cerro de Oro	7	Julio	2023-07-23T00:00:00	2024-11-08T21:00:00	2	Temperatura media	18.8
162354	7	Sololá	719	Santiago Atitlán	14	Cerro de Oro	7	Julio	2023-07-23T00:00:00	2024-11-08T21:00:00	4	Temperatura máxima	19.7
162355	7	Sololá	719	Santiago Atitlán	14	Cerro de Oro	7	Julio	2023-07-23T00:00:00	2024-11-08T21:00:00	3	Temperatura mínima	18.7
162356	7	Sololá	719	Santiago Atitlán	14	Cerro de Oro	7	Julio	2023-07-23T00:00:00	2024-11-08T21:00:00	5	Humedad	85
162357	7	Sololá	719	Santiago Atitlán	14	Cerro de Oro	7	Julio	2023-07-23T00:00:00	2024-11-08T21:00:00	6	Velocidad del viento	4.8
162358	7	Sololá	719	Santiago Atitlán	14	Cerro de Oro	7	Julio	2023-07-23T00:00:00	2024-11-08T21:00:00	7	Dirección del viento	4.83
162359	7	Sololá	719	Santiago Atitlán	14	Cerro de Oro	7	Julio	2023-07-23T00:00:00	2024-11-08T21:00:00	1	Precipitación	0
162360	7	Sololá	719	Santiago Atitlán	14	Cerro de Oro	7	Julio	2023-07-23T00:00:00	2024-11-08T21:00:00	8	Radiación solar	0
162361	7	Sololá	719	Santiago Atitlán	14	Cerro de Oro	7	Julio	2023-07-23T00:00:00	2024-11-08T22:00:00	2	Temperatura media	19
162362	7	Sololá	719	Santiago Atitlán	14	Cerro de Oro	7	Julio	2023-07-23T00:00:00	2024-11-08T22:00:00	4	Temperatura máxima	19.1
162363	7	Sololá	719	Santiago Atitlán	14	Cerro de Oro	7	Julio	2023-07-23T00:00:00	2024-11-08T22:00:00	3	Temperatura mínima	18.3
162364	7	Sololá	719	Santiago Atitlán	14	Cerro de Oro	7	Julio	2023-07-23T00:00:00	2024-11-08T22:00:00	5	Humedad	87
162365	7	Sololá	719	Santiago Atitlán	14	Cerro de Oro	7	Julio	2023-07-23T00:00:00	2024-11-08T22:00:00	6	Velocidad del viento	4.8
162366	7	Sololá	719	Santiago Atitlán	14	Cerro de Oro	7	Julio	2023-07-23T00:00:00	2024-11-08T22:00:00	7	Dirección del viento	4.83
162367	7	Sololá	719	Santiago Atitlán	14	Cerro de Oro	7	Julio	2023-07-23T00:00:00	2024-11-08T22:00:00	1	Precipitación	0
162368	7	Sololá	719	Santiago Atitlán	14	Cerro de Oro	7	Julio	2023-07-23T00:00:00	2024-11-08T22:00:00	8	Radiación solar	0
162369	7	Sololá	719	Santiago Atitlán	14	Cerro de Oro	7	Julio	2023-07-23T00:00:00	2024-11-08T23:00:00	2	Temperatura media	19
162370	7	Sololá	719	Santiago Atitlán	14	Cerro de Oro	7	Julio	2023-07-23T00:00:00	2024-11-08T23:00:00	4	Temperatura máxima	19.1
162371	7	Sololá	719	Santiago Atitlán	14	Cerro de Oro	7	Julio	2023-07-23T00:00:00	2024-11-08T23:00:00	3	Temperatura mínima	18.8
162372	7	Sololá	719	Santiago Atitlán	14	Cerro de Oro	7	Julio	2023-07-23T00:00:00	2024-11-08T23:00:00	5	Humedad	82
162373	7	Sololá	719	Santiago Atitlán	14	Cerro de Oro	7	Julio	2023-07-23T00:00:00	2024-11-08T23:00:00	6	Velocidad del viento	3.2
162374	7	Sololá	719	Santiago Atitlán	14	Cerro de Oro	7	Julio	2023-07-23T00:00:00	2024-11-08T23:00:00	7	Dirección del viento	3.22
162375	7	Sololá	719	Santiago Atitlán	14	Cerro de Oro	7	Julio	2023-07-23T00:00:00	2024-11-08T23:00:00	1	Precipitación	0
162376	7	Sololá	719	Santiago Atitlán	14	Cerro de Oro	7	Julio	2023-07-23T00:00:00	2024-11-08T23:00:00	8	Radiación solar	0
162377	7	Sololá	719	Santiago Atitlán	14	Cerro de Oro	7	Julio	2023-07-24T00:00:00	2024-11-08T00:00:00	2	Temperatura media	18.8
162378	7	Sololá	719	Santiago Atitlán	14	Cerro de Oro	7	Julio	2023-07-24T00:00:00	2024-11-08T00:00:00	4	Temperatura máxima	19.1
162379	7	Sololá	719	Santiago Atitlán	14	Cerro de Oro	7	Julio	2023-07-24T00:00:00	2024-11-08T00:00:00	3	Temperatura mínima	18.5
162380	7	Sololá	719	Santiago Atitlán	14	Cerro de Oro	7	Julio	2023-07-24T00:00:00	2024-11-08T00:00:00	5	Humedad	86
162381	7	Sololá	719	Santiago Atitlán	14	Cerro de Oro	7	Julio	2023-07-24T00:00:00	2024-11-08T00:00:00	6	Velocidad del viento	3.2
162382	7	Sololá	719	Santiago Atitlán	14	Cerro de Oro	7	Julio	2023-07-24T00:00:00	2024-11-08T00:00:00	7	Dirección del viento	3.22
162383	7	Sololá	719	Santiago Atitlán	14	Cerro de Oro	7	Julio	2023-07-24T00:00:00	2024-11-08T00:00:00	1	Precipitación	0
162384	7	Sololá	719	Santiago Atitlán	14	Cerro de Oro	7	Julio	2023-07-24T00:00:00	2024-11-08T00:00:00	8	Radiación solar	0
162385	7	Sololá	719	Santiago Atitlán	14	Cerro de Oro	7	Julio	2023-07-24T00:00:00	2024-11-08T01:00:00	2	Temperatura media	19.1
162386	7	Sololá	719	Santiago Atitlán	14	Cerro de Oro	7	Julio	2023-07-24T00:00:00	2024-11-08T01:00:00	4	Temperatura máxima	19.2
162387	7	Sololá	719	Santiago Atitlán	14	Cerro de Oro	7	Julio	2023-07-24T00:00:00	2024-11-08T01:00:00	3	Temperatura mínima	18.7
162388	7	Sololá	719	Santiago Atitlán	14	Cerro de Oro	7	Julio	2023-07-24T00:00:00	2024-11-08T01:00:00	5	Humedad	86
162389	7	Sololá	719	Santiago Atitlán	14	Cerro de Oro	7	Julio	2023-07-24T00:00:00	2024-11-08T01:00:00	6	Velocidad del viento	3.2
162390	7	Sololá	719	Santiago Atitlán	14	Cerro de Oro	7	Julio	2023-07-24T00:00:00	2024-11-08T01:00:00	7	Dirección del viento	3.22
162391	7	Sololá	719	Santiago Atitlán	14	Cerro de Oro	7	Julio	2023-07-24T00:00:00	2024-11-08T01:00:00	1	Precipitación	0
162392	7	Sololá	719	Santiago Atitlán	14	Cerro de Oro	7	Julio	2023-07-24T00:00:00	2024-11-08T01:00:00	8	Radiación solar	0
162393	7	Sololá	719	Santiago Atitlán	14	Cerro de Oro	7	Julio	2023-07-24T00:00:00	2024-11-08T02:00:00	2	Temperatura media	17.9
162394	7	Sololá	719	Santiago Atitlán	14	Cerro de Oro	7	Julio	2023-07-24T00:00:00	2024-11-08T02:00:00	4	Temperatura máxima	19.1
162395	7	Sololá	719	Santiago Atitlán	14	Cerro de Oro	7	Julio	2023-07-24T00:00:00	2024-11-08T02:00:00	3	Temperatura mínima	17.8
162396	7	Sololá	719	Santiago Atitlán	14	Cerro de Oro	7	Julio	2023-07-24T00:00:00	2024-11-08T02:00:00	5	Humedad	91
162397	7	Sololá	719	Santiago Atitlán	14	Cerro de Oro	7	Julio	2023-07-24T00:00:00	2024-11-08T02:00:00	6	Velocidad del viento	3.2
162398	7	Sololá	719	Santiago Atitlán	14	Cerro de Oro	7	Julio	2023-07-24T00:00:00	2024-11-08T02:00:00	7	Dirección del viento	3.22
162399	7	Sololá	719	Santiago Atitlán	14	Cerro de Oro	7	Julio	2023-07-24T00:00:00	2024-11-08T02:00:00	1	Precipitación	1.4
162400	7	Sololá	719	Santiago Atitlán	14	Cerro de Oro	7	Julio	2023-07-24T00:00:00	2024-11-08T02:00:00	8	Radiación solar	0
162401	7	Sololá	719	Santiago Atitlán	14	Cerro de Oro	7	Julio	2023-07-24T00:00:00	2024-11-08T03:00:00	2	Temperatura media	18
162402	7	Sololá	719	Santiago Atitlán	14	Cerro de Oro	7	Julio	2023-07-24T00:00:00	2024-11-08T03:00:00	4	Temperatura máxima	18.1
162403	7	Sololá	719	Santiago Atitlán	14	Cerro de Oro	7	Julio	2023-07-24T00:00:00	2024-11-08T03:00:00	3	Temperatura mínima	17.7
162404	7	Sololá	719	Santiago Atitlán	14	Cerro de Oro	7	Julio	2023-07-24T00:00:00	2024-11-08T03:00:00	5	Humedad	90
162405	7	Sololá	719	Santiago Atitlán	14	Cerro de Oro	7	Julio	2023-07-24T00:00:00	2024-11-08T03:00:00	6	Velocidad del viento	4.8
162406	7	Sololá	719	Santiago Atitlán	14	Cerro de Oro	7	Julio	2023-07-24T00:00:00	2024-11-08T03:00:00	7	Dirección del viento	4.83
162407	7	Sololá	719	Santiago Atitlán	14	Cerro de Oro	7	Julio	2023-07-24T00:00:00	2024-11-08T03:00:00	1	Precipitación	0
162408	7	Sololá	719	Santiago Atitlán	14	Cerro de Oro	7	Julio	2023-07-24T00:00:00	2024-11-08T03:00:00	8	Radiación solar	0
162409	7	Sololá	719	Santiago Atitlán	14	Cerro de Oro	7	Julio	2023-07-24T00:00:00	2024-11-08T04:00:00	2	Temperatura media	17.7
162410	7	Sololá	719	Santiago Atitlán	14	Cerro de Oro	7	Julio	2023-07-24T00:00:00	2024-11-08T04:00:00	4	Temperatura máxima	18
162411	7	Sololá	719	Santiago Atitlán	14	Cerro de Oro	7	Julio	2023-07-24T00:00:00	2024-11-08T04:00:00	3	Temperatura mínima	17.5
162412	7	Sololá	719	Santiago Atitlán	14	Cerro de Oro	7	Julio	2023-07-24T00:00:00	2024-11-08T04:00:00	5	Humedad	90
162413	7	Sololá	719	Santiago Atitlán	14	Cerro de Oro	7	Julio	2023-07-24T00:00:00	2024-11-08T04:00:00	6	Velocidad del viento	4.8
162414	7	Sololá	719	Santiago Atitlán	14	Cerro de Oro	7	Julio	2023-07-24T00:00:00	2024-11-08T04:00:00	7	Dirección del viento	4.83
162415	7	Sololá	719	Santiago Atitlán	14	Cerro de Oro	7	Julio	2023-07-24T00:00:00	2024-11-08T04:00:00	1	Precipitación	0
162416	7	Sololá	719	Santiago Atitlán	14	Cerro de Oro	7	Julio	2023-07-24T00:00:00	2024-11-08T04:00:00	8	Radiación solar	0
162417	7	Sololá	719	Santiago Atitlán	14	Cerro de Oro	7	Julio	2023-07-24T00:00:00	2024-11-08T05:00:00	2	Temperatura media	18.3
162418	7	Sololá	719	Santiago Atitlán	14	Cerro de Oro	7	Julio	2023-07-24T00:00:00	2024-11-08T05:00:00	4	Temperatura máxima	18.4
162419	7	Sololá	719	Santiago Atitlán	14	Cerro de Oro	7	Julio	2023-07-24T00:00:00	2024-11-08T05:00:00	3	Temperatura mínima	17.6
162420	7	Sololá	719	Santiago Atitlán	14	Cerro de Oro	7	Julio	2023-07-24T00:00:00	2024-11-08T05:00:00	5	Humedad	88
162421	7	Sololá	719	Santiago Atitlán	14	Cerro de Oro	7	Julio	2023-07-24T00:00:00	2024-11-08T05:00:00	6	Velocidad del viento	4.8
162422	7	Sololá	719	Santiago Atitlán	14	Cerro de Oro	7	Julio	2023-07-24T00:00:00	2024-11-08T05:00:00	7	Dirección del viento	4.83
162423	7	Sololá	719	Santiago Atitlán	14	Cerro de Oro	7	Julio	2023-07-24T00:00:00	2024-11-08T05:00:00	1	Precipitación	0
162424	7	Sololá	719	Santiago Atitlán	14	Cerro de Oro	7	Julio	2023-07-24T00:00:00	2024-11-08T05:00:00	8	Radiación solar	0
162425	7	Sololá	719	Santiago Atitlán	14	Cerro de Oro	7	Julio	2023-07-24T00:00:00	2024-11-08T06:00:00	2	Temperatura media	19.1
162426	7	Sololá	719	Santiago Atitlán	14	Cerro de Oro	7	Julio	2023-07-24T00:00:00	2024-11-08T06:00:00	4	Temperatura máxima	19.1
162427	7	Sololá	719	Santiago Atitlán	14	Cerro de Oro	7	Julio	2023-07-24T00:00:00	2024-11-08T06:00:00	3	Temperatura mínima	17.8
162428	7	Sololá	719	Santiago Atitlán	14	Cerro de Oro	7	Julio	2023-07-24T00:00:00	2024-11-08T06:00:00	5	Humedad	82
162429	7	Sololá	719	Santiago Atitlán	14	Cerro de Oro	7	Julio	2023-07-24T00:00:00	2024-11-08T06:00:00	6	Velocidad del viento	4.8
162430	7	Sololá	719	Santiago Atitlán	14	Cerro de Oro	7	Julio	2023-07-24T00:00:00	2024-11-08T06:00:00	7	Dirección del viento	4.83
162431	7	Sololá	719	Santiago Atitlán	14	Cerro de Oro	7	Julio	2023-07-24T00:00:00	2024-11-08T06:00:00	1	Precipitación	0
162432	7	Sololá	719	Santiago Atitlán	14	Cerro de Oro	7	Julio	2023-07-24T00:00:00	2024-11-08T06:00:00	8	Radiación solar	3
162433	7	Sololá	719	Santiago Atitlán	14	Cerro de Oro	7	Julio	2023-07-24T00:00:00	2024-11-08T07:00:00	2	Temperatura media	21.6
162434	7	Sololá	719	Santiago Atitlán	14	Cerro de Oro	7	Julio	2023-07-24T00:00:00	2024-11-08T07:00:00	4	Temperatura máxima	21.6
162435	7	Sololá	719	Santiago Atitlán	14	Cerro de Oro	7	Julio	2023-07-24T00:00:00	2024-11-08T07:00:00	3	Temperatura mínima	19.1
162436	7	Sololá	719	Santiago Atitlán	14	Cerro de Oro	7	Julio	2023-07-24T00:00:00	2024-11-08T07:00:00	5	Humedad	73
162437	7	Sololá	719	Santiago Atitlán	14	Cerro de Oro	7	Julio	2023-07-24T00:00:00	2024-11-08T07:00:00	6	Velocidad del viento	4.8
162438	7	Sololá	719	Santiago Atitlán	14	Cerro de Oro	7	Julio	2023-07-24T00:00:00	2024-11-08T07:00:00	7	Dirección del viento	4.83
162439	7	Sololá	719	Santiago Atitlán	14	Cerro de Oro	7	Julio	2023-07-24T00:00:00	2024-11-08T07:00:00	1	Precipitación	0
162440	7	Sololá	719	Santiago Atitlán	14	Cerro de Oro	7	Julio	2023-07-24T00:00:00	2024-11-08T07:00:00	8	Radiación solar	128
162441	7	Sololá	719	Santiago Atitlán	14	Cerro de Oro	7	Julio	2023-07-24T00:00:00	2024-11-08T08:00:00	2	Temperatura media	21.1
162442	7	Sololá	719	Santiago Atitlán	14	Cerro de Oro	7	Julio	2023-07-24T00:00:00	2024-11-08T08:00:00	4	Temperatura máxima	21.8
162443	7	Sololá	719	Santiago Atitlán	14	Cerro de Oro	7	Julio	2023-07-24T00:00:00	2024-11-08T08:00:00	3	Temperatura mínima	20.5
162444	7	Sololá	719	Santiago Atitlán	14	Cerro de Oro	7	Julio	2023-07-24T00:00:00	2024-11-08T08:00:00	5	Humedad	74
162445	7	Sololá	719	Santiago Atitlán	14	Cerro de Oro	7	Julio	2023-07-24T00:00:00	2024-11-08T08:00:00	6	Velocidad del viento	4.8
162446	7	Sololá	719	Santiago Atitlán	14	Cerro de Oro	7	Julio	2023-07-24T00:00:00	2024-11-08T08:00:00	7	Dirección del viento	4.83
162447	7	Sololá	719	Santiago Atitlán	14	Cerro de Oro	7	Julio	2023-07-24T00:00:00	2024-11-08T08:00:00	1	Precipitación	0
162448	7	Sololá	719	Santiago Atitlán	14	Cerro de Oro	7	Julio	2023-07-24T00:00:00	2024-11-08T08:00:00	8	Radiación solar	105
162449	7	Sololá	719	Santiago Atitlán	14	Cerro de Oro	7	Julio	2023-07-24T00:00:00	2024-11-08T09:00:00	2	Temperatura media	23.7
162450	7	Sololá	719	Santiago Atitlán	14	Cerro de Oro	7	Julio	2023-07-24T00:00:00	2024-11-08T09:00:00	4	Temperatura máxima	23.7
162451	7	Sololá	719	Santiago Atitlán	14	Cerro de Oro	7	Julio	2023-07-24T00:00:00	2024-11-08T09:00:00	3	Temperatura mínima	21.1
162452	7	Sololá	719	Santiago Atitlán	14	Cerro de Oro	7	Julio	2023-07-24T00:00:00	2024-11-08T09:00:00	5	Humedad	65
162453	7	Sololá	719	Santiago Atitlán	14	Cerro de Oro	7	Julio	2023-07-24T00:00:00	2024-11-08T09:00:00	6	Velocidad del viento	6.4
162454	7	Sololá	719	Santiago Atitlán	14	Cerro de Oro	7	Julio	2023-07-24T00:00:00	2024-11-08T09:00:00	7	Dirección del viento	6.44
162455	7	Sololá	719	Santiago Atitlán	14	Cerro de Oro	7	Julio	2023-07-24T00:00:00	2024-11-08T09:00:00	1	Precipitación	0
162456	7	Sololá	719	Santiago Atitlán	14	Cerro de Oro	7	Julio	2023-07-24T00:00:00	2024-11-08T09:00:00	8	Radiación solar	480
162457	7	Sololá	719	Santiago Atitlán	14	Cerro de Oro	7	Julio	2023-07-24T00:00:00	2024-11-08T10:00:00	2	Temperatura media	24.7
162458	7	Sololá	719	Santiago Atitlán	14	Cerro de Oro	7	Julio	2023-07-24T00:00:00	2024-11-08T10:00:00	4	Temperatura máxima	24.7
162459	7	Sololá	719	Santiago Atitlán	14	Cerro de Oro	7	Julio	2023-07-24T00:00:00	2024-11-08T10:00:00	3	Temperatura mínima	23.4
162460	7	Sololá	719	Santiago Atitlán	14	Cerro de Oro	7	Julio	2023-07-24T00:00:00	2024-11-08T10:00:00	5	Humedad	59
162461	7	Sololá	719	Santiago Atitlán	14	Cerro de Oro	7	Julio	2023-07-24T00:00:00	2024-11-08T10:00:00	6	Velocidad del viento	6.4
162462	7	Sololá	719	Santiago Atitlán	14	Cerro de Oro	7	Julio	2023-07-24T00:00:00	2024-11-08T10:00:00	7	Dirección del viento	6.44
162463	7	Sololá	719	Santiago Atitlán	14	Cerro de Oro	7	Julio	2023-07-24T00:00:00	2024-11-08T10:00:00	1	Precipitación	0
162464	7	Sololá	719	Santiago Atitlán	14	Cerro de Oro	7	Julio	2023-07-24T00:00:00	2024-11-08T10:00:00	8	Radiación solar	714
162465	7	Sololá	719	Santiago Atitlán	14	Cerro de Oro	7	Julio	2023-07-24T00:00:00	2024-11-08T11:00:00	2	Temperatura media	25.2
162466	7	Sololá	719	Santiago Atitlán	14	Cerro de Oro	7	Julio	2023-07-24T00:00:00	2024-11-08T11:00:00	4	Temperatura máxima	25.4
162467	7	Sololá	719	Santiago Atitlán	14	Cerro de Oro	7	Julio	2023-07-24T00:00:00	2024-11-08T11:00:00	3	Temperatura mínima	24.6
162468	7	Sololá	719	Santiago Atitlán	14	Cerro de Oro	7	Julio	2023-07-24T00:00:00	2024-11-08T11:00:00	5	Humedad	62
162469	7	Sololá	719	Santiago Atitlán	14	Cerro de Oro	7	Julio	2023-07-24T00:00:00	2024-11-08T11:00:00	6	Velocidad del viento	6.4
162470	7	Sololá	719	Santiago Atitlán	14	Cerro de Oro	7	Julio	2023-07-24T00:00:00	2024-11-08T11:00:00	7	Dirección del viento	6.44
162471	7	Sololá	719	Santiago Atitlán	14	Cerro de Oro	7	Julio	2023-07-24T00:00:00	2024-11-08T11:00:00	1	Precipitación	0
162472	7	Sololá	719	Santiago Atitlán	14	Cerro de Oro	7	Julio	2023-07-24T00:00:00	2024-11-08T11:00:00	8	Radiación solar	843
162473	7	Sololá	719	Santiago Atitlán	14	Cerro de Oro	7	Julio	2023-07-24T00:00:00	2024-11-08T12:00:00	2	Temperatura media	26.2
162474	7	Sololá	719	Santiago Atitlán	14	Cerro de Oro	7	Julio	2023-07-24T00:00:00	2024-11-08T12:00:00	4	Temperatura máxima	26.6
162475	7	Sololá	719	Santiago Atitlán	14	Cerro de Oro	7	Julio	2023-07-24T00:00:00	2024-11-08T12:00:00	3	Temperatura mínima	25.2
162476	7	Sololá	719	Santiago Atitlán	14	Cerro de Oro	7	Julio	2023-07-24T00:00:00	2024-11-08T12:00:00	5	Humedad	63
162477	7	Sololá	719	Santiago Atitlán	14	Cerro de Oro	7	Julio	2023-07-24T00:00:00	2024-11-08T12:00:00	6	Velocidad del viento	6.4
162478	7	Sololá	719	Santiago Atitlán	14	Cerro de Oro	7	Julio	2023-07-24T00:00:00	2024-11-08T12:00:00	7	Dirección del viento	6.44
162479	7	Sololá	719	Santiago Atitlán	14	Cerro de Oro	7	Julio	2023-07-24T00:00:00	2024-11-08T12:00:00	1	Precipitación	0
162480	7	Sololá	719	Santiago Atitlán	14	Cerro de Oro	7	Julio	2023-07-24T00:00:00	2024-11-08T12:00:00	8	Radiación solar	937
162481	7	Sololá	719	Santiago Atitlán	14	Cerro de Oro	7	Julio	2023-07-24T00:00:00	2024-11-08T13:00:00	2	Temperatura media	25.5
162482	7	Sololá	719	Santiago Atitlán	14	Cerro de Oro	7	Julio	2023-07-24T00:00:00	2024-11-08T13:00:00	4	Temperatura máxima	26.4
162483	7	Sololá	719	Santiago Atitlán	14	Cerro de Oro	7	Julio	2023-07-24T00:00:00	2024-11-08T13:00:00	3	Temperatura mínima	25
162484	7	Sololá	719	Santiago Atitlán	14	Cerro de Oro	7	Julio	2023-07-24T00:00:00	2024-11-08T13:00:00	5	Humedad	72
162485	7	Sololá	719	Santiago Atitlán	14	Cerro de Oro	7	Julio	2023-07-24T00:00:00	2024-11-08T13:00:00	6	Velocidad del viento	9.7
162486	7	Sololá	719	Santiago Atitlán	14	Cerro de Oro	7	Julio	2023-07-24T00:00:00	2024-11-08T13:00:00	7	Dirección del viento	9.66
162487	7	Sololá	719	Santiago Atitlán	14	Cerro de Oro	7	Julio	2023-07-24T00:00:00	2024-11-08T13:00:00	1	Precipitación	0
162488	7	Sololá	719	Santiago Atitlán	14	Cerro de Oro	7	Julio	2023-07-24T00:00:00	2024-11-08T13:00:00	8	Radiación solar	903
162489	7	Sololá	719	Santiago Atitlán	14	Cerro de Oro	7	Julio	2023-07-24T00:00:00	2024-11-08T14:00:00	2	Temperatura media	23.7
162490	7	Sololá	719	Santiago Atitlán	14	Cerro de Oro	7	Julio	2023-07-24T00:00:00	2024-11-08T14:00:00	4	Temperatura máxima	26.3
162491	7	Sololá	719	Santiago Atitlán	14	Cerro de Oro	7	Julio	2023-07-24T00:00:00	2024-11-08T14:00:00	3	Temperatura mínima	23.7
162492	7	Sololá	719	Santiago Atitlán	14	Cerro de Oro	7	Julio	2023-07-24T00:00:00	2024-11-08T14:00:00	5	Humedad	75
162493	7	Sololá	719	Santiago Atitlán	14	Cerro de Oro	7	Julio	2023-07-24T00:00:00	2024-11-08T14:00:00	6	Velocidad del viento	11.3
162494	7	Sololá	719	Santiago Atitlán	14	Cerro de Oro	7	Julio	2023-07-24T00:00:00	2024-11-08T14:00:00	7	Dirección del viento	11.27
162495	7	Sololá	719	Santiago Atitlán	14	Cerro de Oro	7	Julio	2023-07-24T00:00:00	2024-11-08T14:00:00	1	Precipitación	0
162496	7	Sololá	719	Santiago Atitlán	14	Cerro de Oro	7	Julio	2023-07-24T00:00:00	2024-11-08T14:00:00	8	Radiación solar	804
162497	7	Sololá	719	Santiago Atitlán	14	Cerro de Oro	7	Julio	2023-07-24T00:00:00	2024-11-08T15:00:00	2	Temperatura media	20.3
162498	7	Sololá	719	Santiago Atitlán	14	Cerro de Oro	7	Julio	2023-07-24T00:00:00	2024-11-08T15:00:00	4	Temperatura máxima	23.7
162499	7	Sololá	719	Santiago Atitlán	14	Cerro de Oro	7	Julio	2023-07-24T00:00:00	2024-11-08T15:00:00	3	Temperatura mínima	20.3
162500	7	Sololá	719	Santiago Atitlán	14	Cerro de Oro	7	Julio	2023-07-24T00:00:00	2024-11-08T15:00:00	5	Humedad	84
162501	7	Sololá	719	Santiago Atitlán	14	Cerro de Oro	7	Julio	2023-07-24T00:00:00	2024-11-08T15:00:00	6	Velocidad del viento	17.7
162502	7	Sololá	719	Santiago Atitlán	14	Cerro de Oro	7	Julio	2023-07-24T00:00:00	2024-11-08T15:00:00	7	Dirección del viento	17.7
162503	7	Sololá	719	Santiago Atitlán	14	Cerro de Oro	7	Julio	2023-07-24T00:00:00	2024-11-08T15:00:00	1	Precipitación	0
162504	7	Sololá	719	Santiago Atitlán	14	Cerro de Oro	7	Julio	2023-07-24T00:00:00	2024-11-08T15:00:00	8	Radiación solar	497
162505	7	Sololá	719	Santiago Atitlán	14	Cerro de Oro	7	Julio	2023-07-24T00:00:00	2024-11-08T16:00:00	2	Temperatura media	19.9
162506	7	Sololá	719	Santiago Atitlán	14	Cerro de Oro	7	Julio	2023-07-24T00:00:00	2024-11-08T16:00:00	4	Temperatura máxima	20.3
162507	7	Sololá	719	Santiago Atitlán	14	Cerro de Oro	7	Julio	2023-07-24T00:00:00	2024-11-08T16:00:00	3	Temperatura mínima	18.9
162508	7	Sololá	719	Santiago Atitlán	14	Cerro de Oro	7	Julio	2023-07-24T00:00:00	2024-11-08T16:00:00	5	Humedad	88
162509	7	Sololá	719	Santiago Atitlán	14	Cerro de Oro	7	Julio	2023-07-24T00:00:00	2024-11-08T16:00:00	6	Velocidad del viento	11.3
162510	7	Sololá	719	Santiago Atitlán	14	Cerro de Oro	7	Julio	2023-07-24T00:00:00	2024-11-08T16:00:00	7	Dirección del viento	11.27
162511	7	Sololá	719	Santiago Atitlán	14	Cerro de Oro	7	Julio	2023-07-24T00:00:00	2024-11-08T16:00:00	1	Precipitación	1.4
162512	7	Sololá	719	Santiago Atitlán	14	Cerro de Oro	7	Julio	2023-07-24T00:00:00	2024-11-08T16:00:00	8	Radiación solar	139
162513	7	Sololá	719	Santiago Atitlán	14	Cerro de Oro	7	Julio	2023-07-24T00:00:00	2024-11-08T17:00:00	2	Temperatura media	20.4
162514	7	Sololá	719	Santiago Atitlán	14	Cerro de Oro	7	Julio	2023-07-24T00:00:00	2024-11-08T17:00:00	4	Temperatura máxima	20.7
162515	7	Sololá	719	Santiago Atitlán	14	Cerro de Oro	7	Julio	2023-07-24T00:00:00	2024-11-08T17:00:00	3	Temperatura mínima	19.9
162516	7	Sololá	719	Santiago Atitlán	14	Cerro de Oro	7	Julio	2023-07-24T00:00:00	2024-11-08T17:00:00	5	Humedad	83
162517	7	Sololá	719	Santiago Atitlán	14	Cerro de Oro	7	Julio	2023-07-24T00:00:00	2024-11-08T17:00:00	6	Velocidad del viento	3.2
162518	7	Sololá	719	Santiago Atitlán	14	Cerro de Oro	7	Julio	2023-07-24T00:00:00	2024-11-08T17:00:00	7	Dirección del viento	3.22
162519	7	Sololá	719	Santiago Atitlán	14	Cerro de Oro	7	Julio	2023-07-24T00:00:00	2024-11-08T17:00:00	1	Precipitación	0
162520	7	Sololá	719	Santiago Atitlán	14	Cerro de Oro	7	Julio	2023-07-24T00:00:00	2024-11-08T17:00:00	8	Radiación solar	268
162521	7	Sololá	719	Santiago Atitlán	14	Cerro de Oro	7	Julio	2023-07-24T00:00:00	2024-11-08T18:00:00	2	Temperatura media	20
162522	7	Sololá	719	Santiago Atitlán	14	Cerro de Oro	7	Julio	2023-07-24T00:00:00	2024-11-08T18:00:00	4	Temperatura máxima	20.4
162523	7	Sololá	719	Santiago Atitlán	14	Cerro de Oro	7	Julio	2023-07-24T00:00:00	2024-11-08T18:00:00	3	Temperatura mínima	19.6
162524	7	Sololá	719	Santiago Atitlán	14	Cerro de Oro	7	Julio	2023-07-24T00:00:00	2024-11-08T18:00:00	5	Humedad	83
162525	7	Sololá	719	Santiago Atitlán	14	Cerro de Oro	7	Julio	2023-07-24T00:00:00	2024-11-08T18:00:00	6	Velocidad del viento	6.4
162526	7	Sololá	719	Santiago Atitlán	14	Cerro de Oro	7	Julio	2023-07-24T00:00:00	2024-11-08T18:00:00	7	Dirección del viento	6.44
162527	7	Sololá	719	Santiago Atitlán	14	Cerro de Oro	7	Julio	2023-07-24T00:00:00	2024-11-08T18:00:00	1	Precipitación	0
162528	7	Sololá	719	Santiago Atitlán	14	Cerro de Oro	7	Julio	2023-07-24T00:00:00	2024-11-08T18:00:00	8	Radiación solar	56
162529	7	Sololá	719	Santiago Atitlán	14	Cerro de Oro	7	Julio	2023-07-24T00:00:00	2024-11-08T19:00:00	2	Temperatura media	19.7
162530	7	Sololá	719	Santiago Atitlán	14	Cerro de Oro	7	Julio	2023-07-24T00:00:00	2024-11-08T19:00:00	4	Temperatura máxima	20.1
162531	7	Sololá	719	Santiago Atitlán	14	Cerro de Oro	7	Julio	2023-07-24T00:00:00	2024-11-08T19:00:00	3	Temperatura mínima	19.7
162532	7	Sololá	719	Santiago Atitlán	14	Cerro de Oro	7	Julio	2023-07-24T00:00:00	2024-11-08T19:00:00	5	Humedad	81
162533	7	Sololá	719	Santiago Atitlán	14	Cerro de Oro	7	Julio	2023-07-24T00:00:00	2024-11-08T19:00:00	6	Velocidad del viento	3.2
162534	7	Sololá	719	Santiago Atitlán	14	Cerro de Oro	7	Julio	2023-07-24T00:00:00	2024-11-08T19:00:00	7	Dirección del viento	3.22
162535	7	Sololá	719	Santiago Atitlán	14	Cerro de Oro	7	Julio	2023-07-24T00:00:00	2024-11-08T19:00:00	1	Precipitación	0
162536	7	Sololá	719	Santiago Atitlán	14	Cerro de Oro	7	Julio	2023-07-24T00:00:00	2024-11-08T19:00:00	8	Radiación solar	0
162537	7	Sololá	719	Santiago Atitlán	14	Cerro de Oro	7	Julio	2023-07-24T00:00:00	2024-11-08T20:00:00	2	Temperatura media	19.3
162538	7	Sololá	719	Santiago Atitlán	14	Cerro de Oro	7	Julio	2023-07-24T00:00:00	2024-11-08T20:00:00	4	Temperatura máxima	19.7
162539	7	Sololá	719	Santiago Atitlán	14	Cerro de Oro	7	Julio	2023-07-24T00:00:00	2024-11-08T20:00:00	3	Temperatura mínima	19
162540	7	Sololá	719	Santiago Atitlán	14	Cerro de Oro	7	Julio	2023-07-24T00:00:00	2024-11-08T20:00:00	5	Humedad	84
162541	7	Sololá	719	Santiago Atitlán	14	Cerro de Oro	7	Julio	2023-07-24T00:00:00	2024-11-08T20:00:00	6	Velocidad del viento	3.2
162542	7	Sololá	719	Santiago Atitlán	14	Cerro de Oro	7	Julio	2023-07-24T00:00:00	2024-11-08T20:00:00	7	Dirección del viento	3.22
162543	7	Sololá	719	Santiago Atitlán	14	Cerro de Oro	7	Julio	2023-07-24T00:00:00	2024-11-08T20:00:00	1	Precipitación	0.6
162544	7	Sololá	719	Santiago Atitlán	14	Cerro de Oro	7	Julio	2023-07-24T00:00:00	2024-11-08T20:00:00	8	Radiación solar	0
162545	7	Sololá	719	Santiago Atitlán	14	Cerro de Oro	7	Julio	2023-07-24T00:00:00	2024-11-08T21:00:00	2	Temperatura media	20.2
162546	7	Sololá	719	Santiago Atitlán	14	Cerro de Oro	7	Julio	2023-07-24T00:00:00	2024-11-08T21:00:00	4	Temperatura máxima	20.2
162547	7	Sololá	719	Santiago Atitlán	14	Cerro de Oro	7	Julio	2023-07-24T00:00:00	2024-11-08T21:00:00	3	Temperatura mínima	18.8
162548	7	Sololá	719	Santiago Atitlán	14	Cerro de Oro	7	Julio	2023-07-24T00:00:00	2024-11-08T21:00:00	5	Humedad	76
162549	7	Sololá	719	Santiago Atitlán	14	Cerro de Oro	7	Julio	2023-07-24T00:00:00	2024-11-08T21:00:00	6	Velocidad del viento	4.8
162550	7	Sololá	719	Santiago Atitlán	14	Cerro de Oro	7	Julio	2023-07-24T00:00:00	2024-11-08T21:00:00	7	Dirección del viento	4.83
162551	7	Sololá	719	Santiago Atitlán	14	Cerro de Oro	7	Julio	2023-07-24T00:00:00	2024-11-08T21:00:00	1	Precipitación	0
162552	7	Sololá	719	Santiago Atitlán	14	Cerro de Oro	7	Julio	2023-07-24T00:00:00	2024-11-08T21:00:00	8	Radiación solar	0
162553	7	Sololá	719	Santiago Atitlán	14	Cerro de Oro	7	Julio	2023-07-24T00:00:00	2024-11-08T22:00:00	2	Temperatura media	20.2
162554	7	Sololá	719	Santiago Atitlán	14	Cerro de Oro	7	Julio	2023-07-24T00:00:00	2024-11-08T22:00:00	4	Temperatura máxima	20.4
162555	7	Sololá	719	Santiago Atitlán	14	Cerro de Oro	7	Julio	2023-07-24T00:00:00	2024-11-08T22:00:00	3	Temperatura mínima	20.2
162556	7	Sololá	719	Santiago Atitlán	14	Cerro de Oro	7	Julio	2023-07-24T00:00:00	2024-11-08T22:00:00	5	Humedad	72
162557	7	Sololá	719	Santiago Atitlán	14	Cerro de Oro	7	Julio	2023-07-24T00:00:00	2024-11-08T22:00:00	6	Velocidad del viento	8
162558	7	Sololá	719	Santiago Atitlán	14	Cerro de Oro	7	Julio	2023-07-24T00:00:00	2024-11-08T22:00:00	7	Dirección del viento	8.05
162559	7	Sololá	719	Santiago Atitlán	14	Cerro de Oro	7	Julio	2023-07-24T00:00:00	2024-11-08T22:00:00	1	Precipitación	0
162560	7	Sololá	719	Santiago Atitlán	14	Cerro de Oro	7	Julio	2023-07-24T00:00:00	2024-11-08T22:00:00	8	Radiación solar	0
162561	7	Sololá	719	Santiago Atitlán	14	Cerro de Oro	7	Julio	2023-07-24T00:00:00	2024-11-08T23:00:00	2	Temperatura media	20.3
162562	7	Sololá	719	Santiago Atitlán	14	Cerro de Oro	7	Julio	2023-07-24T00:00:00	2024-11-08T23:00:00	4	Temperatura máxima	20.3
162563	7	Sololá	719	Santiago Atitlán	14	Cerro de Oro	7	Julio	2023-07-24T00:00:00	2024-11-08T23:00:00	3	Temperatura mínima	19.3
162564	7	Sololá	719	Santiago Atitlán	14	Cerro de Oro	7	Julio	2023-07-24T00:00:00	2024-11-08T23:00:00	5	Humedad	73
162565	7	Sololá	719	Santiago Atitlán	14	Cerro de Oro	7	Julio	2023-07-24T00:00:00	2024-11-08T23:00:00	6	Velocidad del viento	3.2
162566	7	Sololá	719	Santiago Atitlán	14	Cerro de Oro	7	Julio	2023-07-24T00:00:00	2024-11-08T23:00:00	7	Dirección del viento	3.22
162567	7	Sololá	719	Santiago Atitlán	14	Cerro de Oro	7	Julio	2023-07-24T00:00:00	2024-11-08T23:00:00	1	Precipitación	0
162568	7	Sololá	719	Santiago Atitlán	14	Cerro de Oro	7	Julio	2023-07-24T00:00:00	2024-11-08T23:00:00	8	Radiación solar	0
162569	7	Sololá	719	Santiago Atitlán	14	Cerro de Oro	7	Julio	2023-07-25T00:00:00	2024-11-08T00:00:00	2	Temperatura media	20.7
162570	7	Sololá	719	Santiago Atitlán	14	Cerro de Oro	7	Julio	2023-07-25T00:00:00	2024-11-08T00:00:00	4	Temperatura máxima	20.8
162571	7	Sololá	719	Santiago Atitlán	14	Cerro de Oro	7	Julio	2023-07-25T00:00:00	2024-11-08T00:00:00	3	Temperatura mínima	20.3
162572	7	Sololá	719	Santiago Atitlán	14	Cerro de Oro	7	Julio	2023-07-25T00:00:00	2024-11-08T00:00:00	5	Humedad	71
162573	7	Sololá	719	Santiago Atitlán	14	Cerro de Oro	7	Julio	2023-07-25T00:00:00	2024-11-08T00:00:00	6	Velocidad del viento	8
162574	7	Sololá	719	Santiago Atitlán	14	Cerro de Oro	7	Julio	2023-07-25T00:00:00	2024-11-08T00:00:00	7	Dirección del viento	8.05
162575	7	Sololá	719	Santiago Atitlán	14	Cerro de Oro	7	Julio	2023-07-25T00:00:00	2024-11-08T00:00:00	1	Precipitación	0
162576	7	Sololá	719	Santiago Atitlán	14	Cerro de Oro	7	Julio	2023-07-25T00:00:00	2024-11-08T00:00:00	8	Radiación solar	0
162577	7	Sololá	719	Santiago Atitlán	14	Cerro de Oro	7	Julio	2023-07-25T00:00:00	2024-11-08T01:00:00	2	Temperatura media	20.7
162578	7	Sololá	719	Santiago Atitlán	14	Cerro de Oro	7	Julio	2023-07-25T00:00:00	2024-11-08T01:00:00	4	Temperatura máxima	20.7
162579	7	Sololá	719	Santiago Atitlán	14	Cerro de Oro	7	Julio	2023-07-25T00:00:00	2024-11-08T01:00:00	3	Temperatura mínima	20.2
162580	7	Sololá	719	Santiago Atitlán	14	Cerro de Oro	7	Julio	2023-07-25T00:00:00	2024-11-08T01:00:00	5	Humedad	70
162581	7	Sololá	719	Santiago Atitlán	14	Cerro de Oro	7	Julio	2023-07-25T00:00:00	2024-11-08T01:00:00	6	Velocidad del viento	6.4
162582	7	Sololá	719	Santiago Atitlán	14	Cerro de Oro	7	Julio	2023-07-25T00:00:00	2024-11-08T01:00:00	7	Dirección del viento	6.44
162583	7	Sololá	719	Santiago Atitlán	14	Cerro de Oro	7	Julio	2023-07-25T00:00:00	2024-11-08T01:00:00	1	Precipitación	0
162584	7	Sololá	719	Santiago Atitlán	14	Cerro de Oro	7	Julio	2023-07-25T00:00:00	2024-11-08T01:00:00	8	Radiación solar	0
162585	7	Sololá	719	Santiago Atitlán	14	Cerro de Oro	7	Julio	2023-07-25T00:00:00	2024-11-08T02:00:00	2	Temperatura media	19.2
162586	7	Sololá	719	Santiago Atitlán	14	Cerro de Oro	7	Julio	2023-07-25T00:00:00	2024-11-08T02:00:00	4	Temperatura máxima	20.9
162587	7	Sololá	719	Santiago Atitlán	14	Cerro de Oro	7	Julio	2023-07-25T00:00:00	2024-11-08T02:00:00	3	Temperatura mínima	19.2
162588	7	Sololá	719	Santiago Atitlán	14	Cerro de Oro	7	Julio	2023-07-25T00:00:00	2024-11-08T02:00:00	5	Humedad	77
162589	7	Sololá	719	Santiago Atitlán	14	Cerro de Oro	7	Julio	2023-07-25T00:00:00	2024-11-08T02:00:00	6	Velocidad del viento	4.8
162590	7	Sololá	719	Santiago Atitlán	14	Cerro de Oro	7	Julio	2023-07-25T00:00:00	2024-11-08T02:00:00	7	Dirección del viento	4.83
162591	7	Sololá	719	Santiago Atitlán	14	Cerro de Oro	7	Julio	2023-07-25T00:00:00	2024-11-08T02:00:00	1	Precipitación	0
162592	7	Sololá	719	Santiago Atitlán	14	Cerro de Oro	7	Julio	2023-07-25T00:00:00	2024-11-08T02:00:00	8	Radiación solar	0
162593	7	Sololá	719	Santiago Atitlán	14	Cerro de Oro	7	Julio	2023-07-25T00:00:00	2024-11-08T03:00:00	2	Temperatura media	19.3
162594	7	Sololá	719	Santiago Atitlán	14	Cerro de Oro	7	Julio	2023-07-25T00:00:00	2024-11-08T03:00:00	4	Temperatura máxima	20.4
162595	7	Sololá	719	Santiago Atitlán	14	Cerro de Oro	7	Julio	2023-07-25T00:00:00	2024-11-08T03:00:00	3	Temperatura mínima	18.8
162596	7	Sololá	719	Santiago Atitlán	14	Cerro de Oro	7	Julio	2023-07-25T00:00:00	2024-11-08T03:00:00	5	Humedad	69
162597	7	Sololá	719	Santiago Atitlán	14	Cerro de Oro	7	Julio	2023-07-25T00:00:00	2024-11-08T03:00:00	6	Velocidad del viento	6.4
162598	7	Sololá	719	Santiago Atitlán	14	Cerro de Oro	7	Julio	2023-07-25T00:00:00	2024-11-08T03:00:00	7	Dirección del viento	6.44
162599	7	Sololá	719	Santiago Atitlán	14	Cerro de Oro	7	Julio	2023-07-25T00:00:00	2024-11-08T03:00:00	1	Precipitación	0
162600	7	Sololá	719	Santiago Atitlán	14	Cerro de Oro	7	Julio	2023-07-25T00:00:00	2024-11-08T03:00:00	8	Radiación solar	0
162601	7	Sololá	719	Santiago Atitlán	14	Cerro de Oro	7	Julio	2023-07-25T00:00:00	2024-11-08T04:00:00	2	Temperatura media	19.4
162602	7	Sololá	719	Santiago Atitlán	14	Cerro de Oro	7	Julio	2023-07-25T00:00:00	2024-11-08T04:00:00	4	Temperatura máxima	20.1
162603	7	Sololá	719	Santiago Atitlán	14	Cerro de Oro	7	Julio	2023-07-25T00:00:00	2024-11-08T04:00:00	3	Temperatura mínima	19.2
162604	7	Sololá	719	Santiago Atitlán	14	Cerro de Oro	7	Julio	2023-07-25T00:00:00	2024-11-08T04:00:00	5	Humedad	70
162605	7	Sololá	719	Santiago Atitlán	14	Cerro de Oro	7	Julio	2023-07-25T00:00:00	2024-11-08T04:00:00	6	Velocidad del viento	4.8
162606	7	Sololá	719	Santiago Atitlán	14	Cerro de Oro	7	Julio	2023-07-25T00:00:00	2024-11-08T04:00:00	7	Dirección del viento	4.83
162607	7	Sololá	719	Santiago Atitlán	14	Cerro de Oro	7	Julio	2023-07-25T00:00:00	2024-11-08T04:00:00	1	Precipitación	0
162608	7	Sololá	719	Santiago Atitlán	14	Cerro de Oro	7	Julio	2023-07-25T00:00:00	2024-11-08T04:00:00	8	Radiación solar	0
162609	7	Sololá	719	Santiago Atitlán	14	Cerro de Oro	7	Julio	2023-07-25T00:00:00	2024-11-08T05:00:00	2	Temperatura media	19.4
162610	7	Sololá	719	Santiago Atitlán	14	Cerro de Oro	7	Julio	2023-07-25T00:00:00	2024-11-08T05:00:00	4	Temperatura máxima	19.4
162611	7	Sololá	719	Santiago Atitlán	14	Cerro de Oro	7	Julio	2023-07-25T00:00:00	2024-11-08T05:00:00	3	Temperatura mínima	18.8
162612	7	Sololá	719	Santiago Atitlán	14	Cerro de Oro	7	Julio	2023-07-25T00:00:00	2024-11-08T05:00:00	5	Humedad	70
162613	7	Sololá	719	Santiago Atitlán	14	Cerro de Oro	7	Julio	2023-07-25T00:00:00	2024-11-08T05:00:00	6	Velocidad del viento	4.8
162614	7	Sololá	719	Santiago Atitlán	14	Cerro de Oro	7	Julio	2023-07-25T00:00:00	2024-11-08T05:00:00	7	Dirección del viento	4.83
162615	7	Sololá	719	Santiago Atitlán	14	Cerro de Oro	7	Julio	2023-07-25T00:00:00	2024-11-08T05:00:00	1	Precipitación	0
162616	7	Sololá	719	Santiago Atitlán	14	Cerro de Oro	7	Julio	2023-07-25T00:00:00	2024-11-08T05:00:00	8	Radiación solar	0
162617	7	Sololá	719	Santiago Atitlán	14	Cerro de Oro	7	Julio	2023-07-25T00:00:00	2024-11-08T06:00:00	2	Temperatura media	18.8
162618	7	Sololá	719	Santiago Atitlán	14	Cerro de Oro	7	Julio	2023-07-25T00:00:00	2024-11-08T06:00:00	4	Temperatura máxima	19.5
162619	7	Sololá	719	Santiago Atitlán	14	Cerro de Oro	7	Julio	2023-07-25T00:00:00	2024-11-08T06:00:00	3	Temperatura mínima	18.8
162620	7	Sololá	719	Santiago Atitlán	14	Cerro de Oro	7	Julio	2023-07-25T00:00:00	2024-11-08T06:00:00	5	Humedad	74
162621	7	Sololá	719	Santiago Atitlán	14	Cerro de Oro	7	Julio	2023-07-25T00:00:00	2024-11-08T06:00:00	6	Velocidad del viento	4.8
162622	7	Sololá	719	Santiago Atitlán	14	Cerro de Oro	7	Julio	2023-07-25T00:00:00	2024-11-08T06:00:00	7	Dirección del viento	4.83
162623	7	Sololá	719	Santiago Atitlán	14	Cerro de Oro	7	Julio	2023-07-25T00:00:00	2024-11-08T06:00:00	1	Precipitación	0
162624	7	Sololá	719	Santiago Atitlán	14	Cerro de Oro	7	Julio	2023-07-25T00:00:00	2024-11-08T06:00:00	8	Radiación solar	2
162625	7	Sololá	719	Santiago Atitlán	14	Cerro de Oro	7	Julio	2023-07-25T00:00:00	2024-11-08T07:00:00	2	Temperatura media	20.8
162626	7	Sololá	719	Santiago Atitlán	14	Cerro de Oro	7	Julio	2023-07-25T00:00:00	2024-11-08T07:00:00	4	Temperatura máxima	21
162627	7	Sololá	719	Santiago Atitlán	14	Cerro de Oro	7	Julio	2023-07-25T00:00:00	2024-11-08T07:00:00	3	Temperatura mínima	18.7
162628	7	Sololá	719	Santiago Atitlán	14	Cerro de Oro	7	Julio	2023-07-25T00:00:00	2024-11-08T07:00:00	5	Humedad	68
162629	7	Sololá	719	Santiago Atitlán	14	Cerro de Oro	7	Julio	2023-07-25T00:00:00	2024-11-08T07:00:00	6	Velocidad del viento	4.8
162630	7	Sololá	719	Santiago Atitlán	14	Cerro de Oro	7	Julio	2023-07-25T00:00:00	2024-11-08T07:00:00	7	Dirección del viento	4.83
162631	7	Sololá	719	Santiago Atitlán	14	Cerro de Oro	7	Julio	2023-07-25T00:00:00	2024-11-08T07:00:00	1	Precipitación	0
162632	7	Sololá	719	Santiago Atitlán	14	Cerro de Oro	7	Julio	2023-07-25T00:00:00	2024-11-08T07:00:00	8	Radiación solar	81
162633	7	Sololá	719	Santiago Atitlán	14	Cerro de Oro	7	Julio	2023-07-25T00:00:00	2024-11-08T08:00:00	2	Temperatura media	22.6
162634	7	Sololá	719	Santiago Atitlán	14	Cerro de Oro	7	Julio	2023-07-25T00:00:00	2024-11-08T08:00:00	4	Temperatura máxima	22.7
162635	7	Sololá	719	Santiago Atitlán	14	Cerro de Oro	7	Julio	2023-07-25T00:00:00	2024-11-08T08:00:00	3	Temperatura mínima	20.8
162636	7	Sololá	719	Santiago Atitlán	14	Cerro de Oro	7	Julio	2023-07-25T00:00:00	2024-11-08T08:00:00	5	Humedad	62
162637	7	Sololá	719	Santiago Atitlán	14	Cerro de Oro	7	Julio	2023-07-25T00:00:00	2024-11-08T08:00:00	6	Velocidad del viento	4.8
162638	7	Sololá	719	Santiago Atitlán	14	Cerro de Oro	7	Julio	2023-07-25T00:00:00	2024-11-08T08:00:00	7	Dirección del viento	4.83
162639	7	Sololá	719	Santiago Atitlán	14	Cerro de Oro	7	Julio	2023-07-25T00:00:00	2024-11-08T08:00:00	1	Precipitación	0
162640	7	Sololá	719	Santiago Atitlán	14	Cerro de Oro	7	Julio	2023-07-25T00:00:00	2024-11-08T08:00:00	8	Radiación solar	291
162641	7	Sololá	719	Santiago Atitlán	14	Cerro de Oro	7	Julio	2023-07-25T00:00:00	2024-11-08T09:00:00	2	Temperatura media	23.6
162642	7	Sololá	719	Santiago Atitlán	14	Cerro de Oro	7	Julio	2023-07-25T00:00:00	2024-11-08T09:00:00	4	Temperatura máxima	23.6
162643	7	Sololá	719	Santiago Atitlán	14	Cerro de Oro	7	Julio	2023-07-25T00:00:00	2024-11-08T09:00:00	3	Temperatura mínima	22.6
162644	7	Sololá	719	Santiago Atitlán	14	Cerro de Oro	7	Julio	2023-07-25T00:00:00	2024-11-08T09:00:00	5	Humedad	61
162645	7	Sololá	719	Santiago Atitlán	14	Cerro de Oro	7	Julio	2023-07-25T00:00:00	2024-11-08T09:00:00	6	Velocidad del viento	3.2
162646	7	Sololá	719	Santiago Atitlán	14	Cerro de Oro	7	Julio	2023-07-25T00:00:00	2024-11-08T09:00:00	7	Dirección del viento	3.22
162647	7	Sololá	719	Santiago Atitlán	14	Cerro de Oro	7	Julio	2023-07-25T00:00:00	2024-11-08T09:00:00	1	Precipitación	0
162648	7	Sololá	719	Santiago Atitlán	14	Cerro de Oro	7	Julio	2023-07-25T00:00:00	2024-11-08T09:00:00	8	Radiación solar	474
162649	7	Sololá	719	Santiago Atitlán	14	Cerro de Oro	7	Julio	2023-07-25T00:00:00	2024-11-08T10:00:00	2	Temperatura media	25.1
162650	7	Sololá	719	Santiago Atitlán	14	Cerro de Oro	7	Julio	2023-07-25T00:00:00	2024-11-08T10:00:00	4	Temperatura máxima	25.1
162651	7	Sololá	719	Santiago Atitlán	14	Cerro de Oro	7	Julio	2023-07-25T00:00:00	2024-11-08T10:00:00	3	Temperatura mínima	23.6
162652	7	Sololá	719	Santiago Atitlán	14	Cerro de Oro	7	Julio	2023-07-25T00:00:00	2024-11-08T10:00:00	5	Humedad	50
162653	7	Sololá	719	Santiago Atitlán	14	Cerro de Oro	7	Julio	2023-07-25T00:00:00	2024-11-08T10:00:00	6	Velocidad del viento	3.2
162654	7	Sololá	719	Santiago Atitlán	14	Cerro de Oro	7	Julio	2023-07-25T00:00:00	2024-11-08T10:00:00	7	Dirección del viento	3.22
162655	7	Sololá	719	Santiago Atitlán	14	Cerro de Oro	7	Julio	2023-07-25T00:00:00	2024-11-08T10:00:00	1	Precipitación	0
162656	7	Sololá	719	Santiago Atitlán	14	Cerro de Oro	7	Julio	2023-07-25T00:00:00	2024-11-08T10:00:00	8	Radiación solar	665
162657	7	Sololá	719	Santiago Atitlán	14	Cerro de Oro	7	Julio	2023-07-25T00:00:00	2024-11-08T11:00:00	2	Temperatura media	26.2
162658	7	Sololá	719	Santiago Atitlán	14	Cerro de Oro	7	Julio	2023-07-25T00:00:00	2024-11-08T11:00:00	4	Temperatura máxima	26.2
162659	7	Sololá	719	Santiago Atitlán	14	Cerro de Oro	7	Julio	2023-07-25T00:00:00	2024-11-08T11:00:00	3	Temperatura mínima	25
162660	7	Sololá	719	Santiago Atitlán	14	Cerro de Oro	7	Julio	2023-07-25T00:00:00	2024-11-08T11:00:00	5	Humedad	44
162661	7	Sololá	719	Santiago Atitlán	14	Cerro de Oro	7	Julio	2023-07-25T00:00:00	2024-11-08T11:00:00	6	Velocidad del viento	3.2
162662	7	Sololá	719	Santiago Atitlán	14	Cerro de Oro	7	Julio	2023-07-25T00:00:00	2024-11-08T11:00:00	7	Dirección del viento	3.22
162663	7	Sololá	719	Santiago Atitlán	14	Cerro de Oro	7	Julio	2023-07-25T00:00:00	2024-11-08T11:00:00	1	Precipitación	0
162664	7	Sololá	719	Santiago Atitlán	14	Cerro de Oro	7	Julio	2023-07-25T00:00:00	2024-11-08T11:00:00	8	Radiación solar	822
162665	7	Sololá	719	Santiago Atitlán	14	Cerro de Oro	7	Julio	2023-07-25T00:00:00	2024-11-08T12:00:00	2	Temperatura media	26.2
162666	7	Sololá	719	Santiago Atitlán	14	Cerro de Oro	7	Julio	2023-07-25T00:00:00	2024-11-08T12:00:00	4	Temperatura máxima	26.4
162667	7	Sololá	719	Santiago Atitlán	14	Cerro de Oro	7	Julio	2023-07-25T00:00:00	2024-11-08T12:00:00	3	Temperatura mínima	25.9
162668	7	Sololá	719	Santiago Atitlán	14	Cerro de Oro	7	Julio	2023-07-25T00:00:00	2024-11-08T12:00:00	5	Humedad	46
162669	7	Sololá	719	Santiago Atitlán	14	Cerro de Oro	7	Julio	2023-07-25T00:00:00	2024-11-08T12:00:00	6	Velocidad del viento	11.3
162670	7	Sololá	719	Santiago Atitlán	14	Cerro de Oro	7	Julio	2023-07-25T00:00:00	2024-11-08T12:00:00	7	Dirección del viento	11.27
162671	7	Sololá	719	Santiago Atitlán	14	Cerro de Oro	7	Julio	2023-07-25T00:00:00	2024-11-08T12:00:00	1	Precipitación	0
162672	7	Sololá	719	Santiago Atitlán	14	Cerro de Oro	7	Julio	2023-07-25T00:00:00	2024-11-08T12:00:00	8	Radiación solar	878
162673	7	Sololá	719	Santiago Atitlán	14	Cerro de Oro	7	Julio	2023-07-25T00:00:00	2024-11-08T13:00:00	2	Temperatura media	26.6
162674	7	Sololá	719	Santiago Atitlán	14	Cerro de Oro	7	Julio	2023-07-25T00:00:00	2024-11-08T13:00:00	4	Temperatura máxima	26.9
162675	7	Sololá	719	Santiago Atitlán	14	Cerro de Oro	7	Julio	2023-07-25T00:00:00	2024-11-08T13:00:00	3	Temperatura mínima	26.2
162676	7	Sololá	719	Santiago Atitlán	14	Cerro de Oro	7	Julio	2023-07-25T00:00:00	2024-11-08T13:00:00	5	Humedad	40
162677	7	Sololá	719	Santiago Atitlán	14	Cerro de Oro	7	Julio	2023-07-25T00:00:00	2024-11-08T13:00:00	6	Velocidad del viento	11.3
162678	7	Sololá	719	Santiago Atitlán	14	Cerro de Oro	7	Julio	2023-07-25T00:00:00	2024-11-08T13:00:00	7	Dirección del viento	11.27
162679	7	Sololá	719	Santiago Atitlán	14	Cerro de Oro	7	Julio	2023-07-25T00:00:00	2024-11-08T13:00:00	1	Precipitación	0
162680	7	Sololá	719	Santiago Atitlán	14	Cerro de Oro	7	Julio	2023-07-25T00:00:00	2024-11-08T13:00:00	8	Radiación solar	910
162681	7	Sololá	719	Santiago Atitlán	14	Cerro de Oro	7	Julio	2023-07-25T00:00:00	2024-11-08T14:00:00	2	Temperatura media	26.2
162682	7	Sololá	719	Santiago Atitlán	14	Cerro de Oro	7	Julio	2023-07-25T00:00:00	2024-11-08T14:00:00	4	Temperatura máxima	26.7
162683	7	Sololá	719	Santiago Atitlán	14	Cerro de Oro	7	Julio	2023-07-25T00:00:00	2024-11-08T14:00:00	3	Temperatura mínima	25.9
162684	7	Sololá	719	Santiago Atitlán	14	Cerro de Oro	7	Julio	2023-07-25T00:00:00	2024-11-08T14:00:00	5	Humedad	41
162685	7	Sololá	719	Santiago Atitlán	14	Cerro de Oro	7	Julio	2023-07-25T00:00:00	2024-11-08T14:00:00	6	Velocidad del viento	14.5
162686	7	Sololá	719	Santiago Atitlán	14	Cerro de Oro	7	Julio	2023-07-25T00:00:00	2024-11-08T14:00:00	7	Dirección del viento	14.48
162687	7	Sololá	719	Santiago Atitlán	14	Cerro de Oro	7	Julio	2023-07-25T00:00:00	2024-11-08T14:00:00	1	Precipitación	0
162688	7	Sololá	719	Santiago Atitlán	14	Cerro de Oro	7	Julio	2023-07-25T00:00:00	2024-11-08T14:00:00	8	Radiación solar	854
162689	7	Sololá	719	Santiago Atitlán	14	Cerro de Oro	7	Julio	2023-07-25T00:00:00	2024-11-08T15:00:00	2	Temperatura media	26.1
162690	7	Sololá	719	Santiago Atitlán	14	Cerro de Oro	7	Julio	2023-07-25T00:00:00	2024-11-08T15:00:00	4	Temperatura máxima	26.7
162691	7	Sololá	719	Santiago Atitlán	14	Cerro de Oro	7	Julio	2023-07-25T00:00:00	2024-11-08T15:00:00	3	Temperatura mínima	26.1
162692	7	Sololá	719	Santiago Atitlán	14	Cerro de Oro	7	Julio	2023-07-25T00:00:00	2024-11-08T15:00:00	5	Humedad	48
162693	7	Sololá	719	Santiago Atitlán	14	Cerro de Oro	7	Julio	2023-07-25T00:00:00	2024-11-08T15:00:00	6	Velocidad del viento	14.5
162694	7	Sololá	719	Santiago Atitlán	14	Cerro de Oro	7	Julio	2023-07-25T00:00:00	2024-11-08T15:00:00	7	Dirección del viento	14.48
162695	7	Sololá	719	Santiago Atitlán	14	Cerro de Oro	7	Julio	2023-07-25T00:00:00	2024-11-08T15:00:00	1	Precipitación	0
162696	7	Sololá	719	Santiago Atitlán	14	Cerro de Oro	7	Julio	2023-07-25T00:00:00	2024-11-08T15:00:00	8	Radiación solar	763
162697	7	Sololá	719	Santiago Atitlán	14	Cerro de Oro	7	Julio	2023-07-25T00:00:00	2024-11-08T16:00:00	2	Temperatura media	25
162698	7	Sololá	719	Santiago Atitlán	14	Cerro de Oro	7	Julio	2023-07-25T00:00:00	2024-11-08T16:00:00	4	Temperatura máxima	26.4
162699	7	Sololá	719	Santiago Atitlán	14	Cerro de Oro	7	Julio	2023-07-25T00:00:00	2024-11-08T16:00:00	3	Temperatura mínima	24.4
162700	7	Sololá	719	Santiago Atitlán	14	Cerro de Oro	7	Julio	2023-07-25T00:00:00	2024-11-08T16:00:00	5	Humedad	57
162701	7	Sololá	719	Santiago Atitlán	14	Cerro de Oro	7	Julio	2023-07-25T00:00:00	2024-11-08T16:00:00	6	Velocidad del viento	9.7
162702	7	Sololá	719	Santiago Atitlán	14	Cerro de Oro	7	Julio	2023-07-25T00:00:00	2024-11-08T16:00:00	7	Dirección del viento	9.66
162703	7	Sololá	719	Santiago Atitlán	14	Cerro de Oro	7	Julio	2023-07-25T00:00:00	2024-11-08T16:00:00	1	Precipitación	0
162704	7	Sololá	719	Santiago Atitlán	14	Cerro de Oro	7	Julio	2023-07-25T00:00:00	2024-11-08T16:00:00	8	Radiación solar	387
162705	7	Sololá	719	Santiago Atitlán	14	Cerro de Oro	7	Julio	2023-07-25T00:00:00	2024-11-08T17:00:00	2	Temperatura media	24.1
162706	7	Sololá	719	Santiago Atitlán	14	Cerro de Oro	7	Julio	2023-07-25T00:00:00	2024-11-08T17:00:00	4	Temperatura máxima	25.1
162707	7	Sololá	719	Santiago Atitlán	14	Cerro de Oro	7	Julio	2023-07-25T00:00:00	2024-11-08T17:00:00	3	Temperatura mínima	24.1
162708	7	Sololá	719	Santiago Atitlán	14	Cerro de Oro	7	Julio	2023-07-25T00:00:00	2024-11-08T17:00:00	5	Humedad	61
162709	7	Sololá	719	Santiago Atitlán	14	Cerro de Oro	7	Julio	2023-07-25T00:00:00	2024-11-08T17:00:00	6	Velocidad del viento	9.7
162710	7	Sololá	719	Santiago Atitlán	14	Cerro de Oro	7	Julio	2023-07-25T00:00:00	2024-11-08T17:00:00	7	Dirección del viento	9.66
162711	7	Sololá	719	Santiago Atitlán	14	Cerro de Oro	7	Julio	2023-07-25T00:00:00	2024-11-08T17:00:00	1	Precipitación	0
162712	7	Sololá	719	Santiago Atitlán	14	Cerro de Oro	7	Julio	2023-07-25T00:00:00	2024-11-08T17:00:00	8	Radiación solar	155
162713	7	Sololá	719	Santiago Atitlán	14	Cerro de Oro	7	Julio	2023-07-25T00:00:00	2024-11-08T18:00:00	2	Temperatura media	23.9
162714	7	Sololá	719	Santiago Atitlán	14	Cerro de Oro	7	Julio	2023-07-25T00:00:00	2024-11-08T18:00:00	4	Temperatura máxima	24.4
162715	7	Sololá	719	Santiago Atitlán	14	Cerro de Oro	7	Julio	2023-07-25T00:00:00	2024-11-08T18:00:00	3	Temperatura mínima	23.9
162716	7	Sololá	719	Santiago Atitlán	14	Cerro de Oro	7	Julio	2023-07-25T00:00:00	2024-11-08T18:00:00	5	Humedad	61
162717	7	Sololá	719	Santiago Atitlán	14	Cerro de Oro	7	Julio	2023-07-25T00:00:00	2024-11-08T18:00:00	6	Velocidad del viento	11.3
162718	7	Sololá	719	Santiago Atitlán	14	Cerro de Oro	7	Julio	2023-07-25T00:00:00	2024-11-08T18:00:00	7	Dirección del viento	11.27
162719	7	Sololá	719	Santiago Atitlán	14	Cerro de Oro	7	Julio	2023-07-25T00:00:00	2024-11-08T18:00:00	1	Precipitación	0
162720	7	Sololá	719	Santiago Atitlán	14	Cerro de Oro	7	Julio	2023-07-25T00:00:00	2024-11-08T18:00:00	8	Radiación solar	131
162721	7	Sololá	719	Santiago Atitlán	14	Cerro de Oro	7	Julio	2023-07-25T00:00:00	2024-11-08T19:00:00	2	Temperatura media	22.7
162722	7	Sololá	719	Santiago Atitlán	14	Cerro de Oro	7	Julio	2023-07-25T00:00:00	2024-11-08T19:00:00	4	Temperatura máxima	23.9
162723	7	Sololá	719	Santiago Atitlán	14	Cerro de Oro	7	Julio	2023-07-25T00:00:00	2024-11-08T19:00:00	3	Temperatura mínima	22.7
162724	7	Sololá	719	Santiago Atitlán	14	Cerro de Oro	7	Julio	2023-07-25T00:00:00	2024-11-08T19:00:00	5	Humedad	62
162725	7	Sololá	719	Santiago Atitlán	14	Cerro de Oro	7	Julio	2023-07-25T00:00:00	2024-11-08T19:00:00	6	Velocidad del viento	9.7
162726	7	Sololá	719	Santiago Atitlán	14	Cerro de Oro	7	Julio	2023-07-25T00:00:00	2024-11-08T19:00:00	7	Dirección del viento	9.66
162727	7	Sololá	719	Santiago Atitlán	14	Cerro de Oro	7	Julio	2023-07-25T00:00:00	2024-11-08T19:00:00	1	Precipitación	0
162728	7	Sololá	719	Santiago Atitlán	14	Cerro de Oro	7	Julio	2023-07-25T00:00:00	2024-11-08T19:00:00	8	Radiación solar	0
162729	7	Sololá	719	Santiago Atitlán	14	Cerro de Oro	7	Julio	2023-07-25T00:00:00	2024-11-08T20:00:00	2	Temperatura media	21.8
162730	7	Sololá	719	Santiago Atitlán	14	Cerro de Oro	7	Julio	2023-07-25T00:00:00	2024-11-08T20:00:00	4	Temperatura máxima	22.7
162731	7	Sololá	719	Santiago Atitlán	14	Cerro de Oro	7	Julio	2023-07-25T00:00:00	2024-11-08T20:00:00	3	Temperatura mínima	21.8
162732	7	Sololá	719	Santiago Atitlán	14	Cerro de Oro	7	Julio	2023-07-25T00:00:00	2024-11-08T20:00:00	5	Humedad	63
162733	7	Sololá	719	Santiago Atitlán	14	Cerro de Oro	7	Julio	2023-07-25T00:00:00	2024-11-08T20:00:00	6	Velocidad del viento	9.7
162734	7	Sololá	719	Santiago Atitlán	14	Cerro de Oro	7	Julio	2023-07-25T00:00:00	2024-11-08T20:00:00	7	Dirección del viento	9.66
162735	7	Sololá	719	Santiago Atitlán	14	Cerro de Oro	7	Julio	2023-07-25T00:00:00	2024-11-08T20:00:00	1	Precipitación	0
162736	7	Sololá	719	Santiago Atitlán	14	Cerro de Oro	7	Julio	2023-07-25T00:00:00	2024-11-08T20:00:00	8	Radiación solar	0
162737	7	Sololá	719	Santiago Atitlán	14	Cerro de Oro	7	Julio	2023-07-25T00:00:00	2024-11-08T21:00:00	2	Temperatura media	20.2
162738	7	Sololá	719	Santiago Atitlán	14	Cerro de Oro	7	Julio	2023-07-25T00:00:00	2024-11-08T21:00:00	4	Temperatura máxima	21.8
162739	7	Sololá	719	Santiago Atitlán	14	Cerro de Oro	7	Julio	2023-07-25T00:00:00	2024-11-08T21:00:00	3	Temperatura mínima	19.9
162740	7	Sololá	719	Santiago Atitlán	14	Cerro de Oro	7	Julio	2023-07-25T00:00:00	2024-11-08T21:00:00	5	Humedad	70
162741	7	Sololá	719	Santiago Atitlán	14	Cerro de Oro	7	Julio	2023-07-25T00:00:00	2024-11-08T21:00:00	6	Velocidad del viento	6.4
162742	7	Sololá	719	Santiago Atitlán	14	Cerro de Oro	7	Julio	2023-07-25T00:00:00	2024-11-08T21:00:00	7	Dirección del viento	6.44
162743	7	Sololá	719	Santiago Atitlán	14	Cerro de Oro	7	Julio	2023-07-25T00:00:00	2024-11-08T21:00:00	1	Precipitación	0
162744	7	Sololá	719	Santiago Atitlán	14	Cerro de Oro	7	Julio	2023-07-25T00:00:00	2024-11-08T21:00:00	8	Radiación solar	0
162745	7	Sololá	719	Santiago Atitlán	14	Cerro de Oro	7	Julio	2023-07-25T00:00:00	2024-11-08T22:00:00	2	Temperatura media	21.4
162746	7	Sololá	719	Santiago Atitlán	14	Cerro de Oro	7	Julio	2023-07-25T00:00:00	2024-11-08T22:00:00	4	Temperatura máxima	21.5
162747	7	Sololá	719	Santiago Atitlán	14	Cerro de Oro	7	Julio	2023-07-25T00:00:00	2024-11-08T22:00:00	3	Temperatura mínima	19.6
162748	7	Sololá	719	Santiago Atitlán	14	Cerro de Oro	7	Julio	2023-07-25T00:00:00	2024-11-08T22:00:00	5	Humedad	60
162749	7	Sololá	719	Santiago Atitlán	14	Cerro de Oro	7	Julio	2023-07-25T00:00:00	2024-11-08T22:00:00	6	Velocidad del viento	6.4
162750	7	Sololá	719	Santiago Atitlán	14	Cerro de Oro	7	Julio	2023-07-25T00:00:00	2024-11-08T22:00:00	7	Dirección del viento	6.44
162751	7	Sololá	719	Santiago Atitlán	14	Cerro de Oro	7	Julio	2023-07-25T00:00:00	2024-11-08T22:00:00	1	Precipitación	0
162752	7	Sololá	719	Santiago Atitlán	14	Cerro de Oro	7	Julio	2023-07-25T00:00:00	2024-11-08T22:00:00	8	Radiación solar	0
162753	7	Sololá	719	Santiago Atitlán	14	Cerro de Oro	7	Julio	2023-07-25T00:00:00	2024-11-08T23:00:00	2	Temperatura media	20.9
162754	7	Sololá	719	Santiago Atitlán	14	Cerro de Oro	7	Julio	2023-07-25T00:00:00	2024-11-08T23:00:00	4	Temperatura máxima	21.5
162755	7	Sololá	719	Santiago Atitlán	14	Cerro de Oro	7	Julio	2023-07-25T00:00:00	2024-11-08T23:00:00	3	Temperatura mínima	20.9
162756	7	Sololá	719	Santiago Atitlán	14	Cerro de Oro	7	Julio	2023-07-25T00:00:00	2024-11-08T23:00:00	5	Humedad	61
162757	7	Sololá	719	Santiago Atitlán	14	Cerro de Oro	7	Julio	2023-07-25T00:00:00	2024-11-08T23:00:00	6	Velocidad del viento	12.9
162758	7	Sololá	719	Santiago Atitlán	14	Cerro de Oro	7	Julio	2023-07-25T00:00:00	2024-11-08T23:00:00	7	Dirección del viento	12.87
162759	7	Sololá	719	Santiago Atitlán	14	Cerro de Oro	7	Julio	2023-07-25T00:00:00	2024-11-08T23:00:00	1	Precipitación	0
162760	7	Sololá	719	Santiago Atitlán	14	Cerro de Oro	7	Julio	2023-07-25T00:00:00	2024-11-08T23:00:00	8	Radiación solar	0
162761	7	Sololá	719	Santiago Atitlán	14	Cerro de Oro	7	Julio	2023-07-26T00:00:00	2024-11-08T00:00:00	2	Temperatura media	20.1
162762	7	Sololá	719	Santiago Atitlán	14	Cerro de Oro	7	Julio	2023-07-26T00:00:00	2024-11-08T00:00:00	4	Temperatura máxima	20.9
162763	7	Sololá	719	Santiago Atitlán	14	Cerro de Oro	7	Julio	2023-07-26T00:00:00	2024-11-08T00:00:00	3	Temperatura mínima	20
162764	7	Sololá	719	Santiago Atitlán	14	Cerro de Oro	7	Julio	2023-07-26T00:00:00	2024-11-08T00:00:00	5	Humedad	58
162765	7	Sololá	719	Santiago Atitlán	14	Cerro de Oro	7	Julio	2023-07-26T00:00:00	2024-11-08T00:00:00	6	Velocidad del viento	9.7
162766	7	Sololá	719	Santiago Atitlán	14	Cerro de Oro	7	Julio	2023-07-26T00:00:00	2024-11-08T00:00:00	7	Dirección del viento	9.66
162767	7	Sololá	719	Santiago Atitlán	14	Cerro de Oro	7	Julio	2023-07-26T00:00:00	2024-11-08T00:00:00	1	Precipitación	0
162768	7	Sololá	719	Santiago Atitlán	14	Cerro de Oro	7	Julio	2023-07-26T00:00:00	2024-11-08T00:00:00	8	Radiación solar	0
162769	7	Sololá	719	Santiago Atitlán	14	Cerro de Oro	7	Julio	2023-07-26T00:00:00	2024-11-08T01:00:00	2	Temperatura media	19.4
162770	7	Sololá	719	Santiago Atitlán	14	Cerro de Oro	7	Julio	2023-07-26T00:00:00	2024-11-08T01:00:00	4	Temperatura máxima	20.2
162771	7	Sololá	719	Santiago Atitlán	14	Cerro de Oro	7	Julio	2023-07-26T00:00:00	2024-11-08T01:00:00	3	Temperatura mínima	19.3
162772	7	Sololá	719	Santiago Atitlán	14	Cerro de Oro	7	Julio	2023-07-26T00:00:00	2024-11-08T01:00:00	5	Humedad	57
162773	7	Sololá	719	Santiago Atitlán	14	Cerro de Oro	7	Julio	2023-07-26T00:00:00	2024-11-08T01:00:00	6	Velocidad del viento	6.4
162774	7	Sololá	719	Santiago Atitlán	14	Cerro de Oro	7	Julio	2023-07-26T00:00:00	2024-11-08T01:00:00	7	Dirección del viento	6.44
162775	7	Sololá	719	Santiago Atitlán	14	Cerro de Oro	7	Julio	2023-07-26T00:00:00	2024-11-08T01:00:00	1	Precipitación	0
162776	7	Sololá	719	Santiago Atitlán	14	Cerro de Oro	7	Julio	2023-07-26T00:00:00	2024-11-08T01:00:00	8	Radiación solar	0
162777	7	Sololá	719	Santiago Atitlán	14	Cerro de Oro	7	Julio	2023-07-26T00:00:00	2024-11-08T02:00:00	2	Temperatura media	19.2
162778	7	Sololá	719	Santiago Atitlán	14	Cerro de Oro	7	Julio	2023-07-26T00:00:00	2024-11-08T02:00:00	4	Temperatura máxima	19.8
162779	7	Sololá	719	Santiago Atitlán	14	Cerro de Oro	7	Julio	2023-07-26T00:00:00	2024-11-08T02:00:00	3	Temperatura mínima	19.2
162780	7	Sololá	719	Santiago Atitlán	14	Cerro de Oro	7	Julio	2023-07-26T00:00:00	2024-11-08T02:00:00	5	Humedad	62
162781	7	Sololá	719	Santiago Atitlán	14	Cerro de Oro	7	Julio	2023-07-26T00:00:00	2024-11-08T02:00:00	6	Velocidad del viento	6.4
162782	7	Sololá	719	Santiago Atitlán	14	Cerro de Oro	7	Julio	2023-07-26T00:00:00	2024-11-08T02:00:00	7	Dirección del viento	6.44
162783	7	Sololá	719	Santiago Atitlán	14	Cerro de Oro	7	Julio	2023-07-26T00:00:00	2024-11-08T02:00:00	1	Precipitación	0
162784	7	Sololá	719	Santiago Atitlán	14	Cerro de Oro	7	Julio	2023-07-26T00:00:00	2024-11-08T02:00:00	8	Radiación solar	0
162785	7	Sololá	719	Santiago Atitlán	14	Cerro de Oro	7	Julio	2023-07-26T00:00:00	2024-11-08T03:00:00	2	Temperatura media	18.8
162786	7	Sololá	719	Santiago Atitlán	14	Cerro de Oro	7	Julio	2023-07-26T00:00:00	2024-11-08T03:00:00	4	Temperatura máxima	19.5
162787	7	Sololá	719	Santiago Atitlán	14	Cerro de Oro	7	Julio	2023-07-26T00:00:00	2024-11-08T03:00:00	3	Temperatura mínima	18.6
162788	7	Sololá	719	Santiago Atitlán	14	Cerro de Oro	7	Julio	2023-07-26T00:00:00	2024-11-08T03:00:00	5	Humedad	62
162789	7	Sololá	719	Santiago Atitlán	14	Cerro de Oro	7	Julio	2023-07-26T00:00:00	2024-11-08T03:00:00	6	Velocidad del viento	4.8
162790	7	Sololá	719	Santiago Atitlán	14	Cerro de Oro	7	Julio	2023-07-26T00:00:00	2024-11-08T03:00:00	7	Dirección del viento	4.83
162791	7	Sololá	719	Santiago Atitlán	14	Cerro de Oro	7	Julio	2023-07-26T00:00:00	2024-11-08T03:00:00	1	Precipitación	0
162792	7	Sololá	719	Santiago Atitlán	14	Cerro de Oro	7	Julio	2023-07-26T00:00:00	2024-11-08T03:00:00	8	Radiación solar	0
162793	7	Sololá	719	Santiago Atitlán	14	Cerro de Oro	7	Julio	2023-07-26T00:00:00	2024-11-08T04:00:00	2	Temperatura media	18.1
162794	7	Sololá	719	Santiago Atitlán	14	Cerro de Oro	7	Julio	2023-07-26T00:00:00	2024-11-08T04:00:00	4	Temperatura máxima	19.7
162795	7	Sololá	719	Santiago Atitlán	14	Cerro de Oro	7	Julio	2023-07-26T00:00:00	2024-11-08T04:00:00	3	Temperatura mínima	18.1
162796	7	Sololá	719	Santiago Atitlán	14	Cerro de Oro	7	Julio	2023-07-26T00:00:00	2024-11-08T04:00:00	5	Humedad	61
162797	7	Sololá	719	Santiago Atitlán	14	Cerro de Oro	7	Julio	2023-07-26T00:00:00	2024-11-08T04:00:00	6	Velocidad del viento	6.4
162798	7	Sololá	719	Santiago Atitlán	14	Cerro de Oro	7	Julio	2023-07-26T00:00:00	2024-11-08T04:00:00	7	Dirección del viento	6.44
162799	7	Sololá	719	Santiago Atitlán	14	Cerro de Oro	7	Julio	2023-07-26T00:00:00	2024-11-08T04:00:00	1	Precipitación	0
162800	7	Sololá	719	Santiago Atitlán	14	Cerro de Oro	7	Julio	2023-07-26T00:00:00	2024-11-08T04:00:00	8	Radiación solar	0
162801	7	Sololá	719	Santiago Atitlán	14	Cerro de Oro	7	Julio	2023-07-26T00:00:00	2024-11-08T05:00:00	2	Temperatura media	17.8
162802	7	Sololá	719	Santiago Atitlán	14	Cerro de Oro	7	Julio	2023-07-26T00:00:00	2024-11-08T05:00:00	4	Temperatura máxima	18.1
162803	7	Sololá	719	Santiago Atitlán	14	Cerro de Oro	7	Julio	2023-07-26T00:00:00	2024-11-08T05:00:00	3	Temperatura mínima	17.6
162804	7	Sololá	719	Santiago Atitlán	14	Cerro de Oro	7	Julio	2023-07-26T00:00:00	2024-11-08T05:00:00	5	Humedad	65
162805	7	Sololá	719	Santiago Atitlán	14	Cerro de Oro	7	Julio	2023-07-26T00:00:00	2024-11-08T05:00:00	6	Velocidad del viento	4.8
162806	7	Sololá	719	Santiago Atitlán	14	Cerro de Oro	7	Julio	2023-07-26T00:00:00	2024-11-08T05:00:00	7	Dirección del viento	4.83
162807	7	Sololá	719	Santiago Atitlán	14	Cerro de Oro	7	Julio	2023-07-26T00:00:00	2024-11-08T05:00:00	1	Precipitación	0
162808	7	Sololá	719	Santiago Atitlán	14	Cerro de Oro	7	Julio	2023-07-26T00:00:00	2024-11-08T05:00:00	8	Radiación solar	0
162809	7	Sololá	719	Santiago Atitlán	14	Cerro de Oro	7	Julio	2023-07-26T00:00:00	2024-11-08T06:00:00	2	Temperatura media	18.3
162810	7	Sololá	719	Santiago Atitlán	14	Cerro de Oro	7	Julio	2023-07-26T00:00:00	2024-11-08T06:00:00	4	Temperatura máxima	18.3
162811	7	Sololá	719	Santiago Atitlán	14	Cerro de Oro	7	Julio	2023-07-26T00:00:00	2024-11-08T06:00:00	3	Temperatura mínima	17.5
162812	7	Sololá	719	Santiago Atitlán	14	Cerro de Oro	7	Julio	2023-07-26T00:00:00	2024-11-08T06:00:00	5	Humedad	63
162813	7	Sololá	719	Santiago Atitlán	14	Cerro de Oro	7	Julio	2023-07-26T00:00:00	2024-11-08T06:00:00	6	Velocidad del viento	4.8
162814	7	Sololá	719	Santiago Atitlán	14	Cerro de Oro	7	Julio	2023-07-26T00:00:00	2024-11-08T06:00:00	7	Dirección del viento	4.83
162815	7	Sololá	719	Santiago Atitlán	14	Cerro de Oro	7	Julio	2023-07-26T00:00:00	2024-11-08T06:00:00	1	Precipitación	0
162816	7	Sololá	719	Santiago Atitlán	14	Cerro de Oro	7	Julio	2023-07-26T00:00:00	2024-11-08T06:00:00	8	Radiación solar	2
162817	7	Sololá	719	Santiago Atitlán	14	Cerro de Oro	7	Julio	2023-07-26T00:00:00	2024-11-08T07:00:00	2	Temperatura media	20.7
162818	7	Sololá	719	Santiago Atitlán	14	Cerro de Oro	7	Julio	2023-07-26T00:00:00	2024-11-08T07:00:00	4	Temperatura máxima	20.8
162819	7	Sololá	719	Santiago Atitlán	14	Cerro de Oro	7	Julio	2023-07-26T00:00:00	2024-11-08T07:00:00	3	Temperatura mínima	18.3
162820	7	Sololá	719	Santiago Atitlán	14	Cerro de Oro	7	Julio	2023-07-26T00:00:00	2024-11-08T07:00:00	5	Humedad	54
162821	7	Sololá	719	Santiago Atitlán	14	Cerro de Oro	7	Julio	2023-07-26T00:00:00	2024-11-08T07:00:00	6	Velocidad del viento	3.2
162822	7	Sololá	719	Santiago Atitlán	14	Cerro de Oro	7	Julio	2023-07-26T00:00:00	2024-11-08T07:00:00	7	Dirección del viento	3.22
162823	7	Sololá	719	Santiago Atitlán	14	Cerro de Oro	7	Julio	2023-07-26T00:00:00	2024-11-08T07:00:00	1	Precipitación	0
162824	7	Sololá	719	Santiago Atitlán	14	Cerro de Oro	7	Julio	2023-07-26T00:00:00	2024-11-08T07:00:00	8	Radiación solar	87
162825	7	Sololá	719	Santiago Atitlán	14	Cerro de Oro	7	Julio	2023-07-26T00:00:00	2024-11-08T08:00:00	2	Temperatura media	22.2
162826	7	Sololá	719	Santiago Atitlán	14	Cerro de Oro	7	Julio	2023-07-26T00:00:00	2024-11-08T08:00:00	4	Temperatura máxima	22.5
162827	7	Sololá	719	Santiago Atitlán	14	Cerro de Oro	7	Julio	2023-07-26T00:00:00	2024-11-08T08:00:00	3	Temperatura mínima	20.8
162828	7	Sololá	719	Santiago Atitlán	14	Cerro de Oro	7	Julio	2023-07-26T00:00:00	2024-11-08T08:00:00	5	Humedad	51
162829	7	Sololá	719	Santiago Atitlán	14	Cerro de Oro	7	Julio	2023-07-26T00:00:00	2024-11-08T08:00:00	6	Velocidad del viento	3.2
162830	7	Sololá	719	Santiago Atitlán	14	Cerro de Oro	7	Julio	2023-07-26T00:00:00	2024-11-08T08:00:00	7	Dirección del viento	3.22
162831	7	Sololá	719	Santiago Atitlán	14	Cerro de Oro	7	Julio	2023-07-26T00:00:00	2024-11-08T08:00:00	1	Precipitación	0
162832	7	Sololá	719	Santiago Atitlán	14	Cerro de Oro	7	Julio	2023-07-26T00:00:00	2024-11-08T08:00:00	8	Radiación solar	285
162833	7	Sololá	719	Santiago Atitlán	14	Cerro de Oro	7	Julio	2023-07-26T00:00:00	2024-11-08T09:00:00	2	Temperatura media	23.9
162834	7	Sololá	719	Santiago Atitlán	14	Cerro de Oro	7	Julio	2023-07-26T00:00:00	2024-11-08T09:00:00	4	Temperatura máxima	23.9
162835	7	Sololá	719	Santiago Atitlán	14	Cerro de Oro	7	Julio	2023-07-26T00:00:00	2024-11-08T09:00:00	3	Temperatura mínima	22.1
162836	7	Sololá	719	Santiago Atitlán	14	Cerro de Oro	7	Julio	2023-07-26T00:00:00	2024-11-08T09:00:00	5	Humedad	49
162837	7	Sololá	719	Santiago Atitlán	14	Cerro de Oro	7	Julio	2023-07-26T00:00:00	2024-11-08T09:00:00	6	Velocidad del viento	4.8
162838	7	Sololá	719	Santiago Atitlán	14	Cerro de Oro	7	Julio	2023-07-26T00:00:00	2024-11-08T09:00:00	7	Dirección del viento	4.83
162839	7	Sololá	719	Santiago Atitlán	14	Cerro de Oro	7	Julio	2023-07-26T00:00:00	2024-11-08T09:00:00	1	Precipitación	0
162840	7	Sololá	719	Santiago Atitlán	14	Cerro de Oro	7	Julio	2023-07-26T00:00:00	2024-11-08T09:00:00	8	Radiación solar	514
162841	7	Sololá	719	Santiago Atitlán	14	Cerro de Oro	7	Julio	2023-07-26T00:00:00	2024-11-08T10:00:00	2	Temperatura media	24.7
162842	7	Sololá	719	Santiago Atitlán	14	Cerro de Oro	7	Julio	2023-07-26T00:00:00	2024-11-08T10:00:00	4	Temperatura máxima	24.7
162843	7	Sololá	719	Santiago Atitlán	14	Cerro de Oro	7	Julio	2023-07-26T00:00:00	2024-11-08T10:00:00	3	Temperatura mínima	23.8
162844	7	Sololá	719	Santiago Atitlán	14	Cerro de Oro	7	Julio	2023-07-26T00:00:00	2024-11-08T10:00:00	5	Humedad	46
162845	7	Sololá	719	Santiago Atitlán	14	Cerro de Oro	7	Julio	2023-07-26T00:00:00	2024-11-08T10:00:00	6	Velocidad del viento	4.8
162846	7	Sololá	719	Santiago Atitlán	14	Cerro de Oro	7	Julio	2023-07-26T00:00:00	2024-11-08T10:00:00	7	Dirección del viento	4.83
162847	7	Sololá	719	Santiago Atitlán	14	Cerro de Oro	7	Julio	2023-07-26T00:00:00	2024-11-08T10:00:00	1	Precipitación	0
162848	7	Sololá	719	Santiago Atitlán	14	Cerro de Oro	7	Julio	2023-07-26T00:00:00	2024-11-08T10:00:00	8	Radiación solar	697
162849	7	Sololá	719	Santiago Atitlán	14	Cerro de Oro	7	Julio	2023-07-26T00:00:00	2024-11-08T11:00:00	2	Temperatura media	26.1
162850	7	Sololá	719	Santiago Atitlán	14	Cerro de Oro	7	Julio	2023-07-26T00:00:00	2024-11-08T11:00:00	4	Temperatura máxima	26.3
162851	7	Sololá	719	Santiago Atitlán	14	Cerro de Oro	7	Julio	2023-07-26T00:00:00	2024-11-08T11:00:00	3	Temperatura mínima	24.7
162852	7	Sololá	719	Santiago Atitlán	14	Cerro de Oro	7	Julio	2023-07-26T00:00:00	2024-11-08T11:00:00	5	Humedad	45
162853	7	Sololá	719	Santiago Atitlán	14	Cerro de Oro	7	Julio	2023-07-26T00:00:00	2024-11-08T11:00:00	6	Velocidad del viento	3.2
162854	7	Sololá	719	Santiago Atitlán	14	Cerro de Oro	7	Julio	2023-07-26T00:00:00	2024-11-08T11:00:00	7	Dirección del viento	3.22
162855	7	Sololá	719	Santiago Atitlán	14	Cerro de Oro	7	Julio	2023-07-26T00:00:00	2024-11-08T11:00:00	1	Precipitación	0
162856	7	Sololá	719	Santiago Atitlán	14	Cerro de Oro	7	Julio	2023-07-26T00:00:00	2024-11-08T11:00:00	8	Radiación solar	833
162857	7	Sololá	719	Santiago Atitlán	14	Cerro de Oro	7	Julio	2023-07-26T00:00:00	2024-11-08T12:00:00	2	Temperatura media	25.8
162858	7	Sololá	719	Santiago Atitlán	14	Cerro de Oro	7	Julio	2023-07-26T00:00:00	2024-11-08T12:00:00	4	Temperatura máxima	26.1
162859	7	Sololá	719	Santiago Atitlán	14	Cerro de Oro	7	Julio	2023-07-26T00:00:00	2024-11-08T12:00:00	3	Temperatura mínima	25.6
162860	7	Sololá	719	Santiago Atitlán	14	Cerro de Oro	7	Julio	2023-07-26T00:00:00	2024-11-08T12:00:00	5	Humedad	53
162861	7	Sololá	719	Santiago Atitlán	14	Cerro de Oro	7	Julio	2023-07-26T00:00:00	2024-11-08T12:00:00	6	Velocidad del viento	8
162862	7	Sololá	719	Santiago Atitlán	14	Cerro de Oro	7	Julio	2023-07-26T00:00:00	2024-11-08T12:00:00	7	Dirección del viento	8.05
162863	7	Sololá	719	Santiago Atitlán	14	Cerro de Oro	7	Julio	2023-07-26T00:00:00	2024-11-08T12:00:00	1	Precipitación	0
162864	7	Sololá	719	Santiago Atitlán	14	Cerro de Oro	7	Julio	2023-07-26T00:00:00	2024-11-08T12:00:00	8	Radiación solar	910
162865	7	Sololá	719	Santiago Atitlán	14	Cerro de Oro	7	Julio	2023-07-26T00:00:00	2024-11-08T13:00:00	2	Temperatura media	26.1
162866	7	Sololá	719	Santiago Atitlán	14	Cerro de Oro	7	Julio	2023-07-26T00:00:00	2024-11-08T13:00:00	4	Temperatura máxima	26.2
162867	7	Sololá	719	Santiago Atitlán	14	Cerro de Oro	7	Julio	2023-07-26T00:00:00	2024-11-08T13:00:00	3	Temperatura mínima	25.7
162868	7	Sololá	719	Santiago Atitlán	14	Cerro de Oro	7	Julio	2023-07-26T00:00:00	2024-11-08T13:00:00	5	Humedad	50
162869	7	Sololá	719	Santiago Atitlán	14	Cerro de Oro	7	Julio	2023-07-26T00:00:00	2024-11-08T13:00:00	6	Velocidad del viento	12.9
162870	7	Sololá	719	Santiago Atitlán	14	Cerro de Oro	7	Julio	2023-07-26T00:00:00	2024-11-08T13:00:00	7	Dirección del viento	12.87
162871	7	Sololá	719	Santiago Atitlán	14	Cerro de Oro	7	Julio	2023-07-26T00:00:00	2024-11-08T13:00:00	1	Precipitación	0
162872	7	Sololá	719	Santiago Atitlán	14	Cerro de Oro	7	Julio	2023-07-26T00:00:00	2024-11-08T13:00:00	8	Radiación solar	917
162873	7	Sololá	719	Santiago Atitlán	14	Cerro de Oro	7	Julio	2023-07-26T00:00:00	2024-11-08T14:00:00	2	Temperatura media	25.7
162874	7	Sololá	719	Santiago Atitlán	14	Cerro de Oro	7	Julio	2023-07-26T00:00:00	2024-11-08T14:00:00	4	Temperatura máxima	26.4
162875	7	Sololá	719	Santiago Atitlán	14	Cerro de Oro	7	Julio	2023-07-26T00:00:00	2024-11-08T14:00:00	3	Temperatura mínima	25.6
162876	7	Sololá	719	Santiago Atitlán	14	Cerro de Oro	7	Julio	2023-07-26T00:00:00	2024-11-08T14:00:00	5	Humedad	54
162877	7	Sololá	719	Santiago Atitlán	14	Cerro de Oro	7	Julio	2023-07-26T00:00:00	2024-11-08T14:00:00	6	Velocidad del viento	11.3
162878	7	Sololá	719	Santiago Atitlán	14	Cerro de Oro	7	Julio	2023-07-26T00:00:00	2024-11-08T14:00:00	7	Dirección del viento	11.27
162879	7	Sololá	719	Santiago Atitlán	14	Cerro de Oro	7	Julio	2023-07-26T00:00:00	2024-11-08T14:00:00	1	Precipitación	0
162880	7	Sololá	719	Santiago Atitlán	14	Cerro de Oro	7	Julio	2023-07-26T00:00:00	2024-11-08T14:00:00	8	Radiación solar	540
162881	7	Sololá	719	Santiago Atitlán	14	Cerro de Oro	7	Julio	2023-07-26T00:00:00	2024-11-08T15:00:00	2	Temperatura media	25
162882	7	Sololá	719	Santiago Atitlán	14	Cerro de Oro	7	Julio	2023-07-26T00:00:00	2024-11-08T15:00:00	4	Temperatura máxima	25.7
162883	7	Sololá	719	Santiago Atitlán	14	Cerro de Oro	7	Julio	2023-07-26T00:00:00	2024-11-08T15:00:00	3	Temperatura mínima	24.9
162884	7	Sololá	719	Santiago Atitlán	14	Cerro de Oro	7	Julio	2023-07-26T00:00:00	2024-11-08T15:00:00	5	Humedad	57
162885	7	Sololá	719	Santiago Atitlán	14	Cerro de Oro	7	Julio	2023-07-26T00:00:00	2024-11-08T15:00:00	6	Velocidad del viento	11.3
162886	7	Sololá	719	Santiago Atitlán	14	Cerro de Oro	7	Julio	2023-07-26T00:00:00	2024-11-08T15:00:00	7	Dirección del viento	11.27
162887	7	Sololá	719	Santiago Atitlán	14	Cerro de Oro	7	Julio	2023-07-26T00:00:00	2024-11-08T15:00:00	1	Precipitación	0
162888	7	Sololá	719	Santiago Atitlán	14	Cerro de Oro	7	Julio	2023-07-26T00:00:00	2024-11-08T15:00:00	8	Radiación solar	236
162889	7	Sololá	719	Santiago Atitlán	14	Cerro de Oro	7	Julio	2023-07-26T00:00:00	2024-11-08T16:00:00	2	Temperatura media	25.1
162890	7	Sololá	719	Santiago Atitlán	14	Cerro de Oro	7	Julio	2023-07-26T00:00:00	2024-11-08T16:00:00	4	Temperatura máxima	26
162891	7	Sololá	719	Santiago Atitlán	14	Cerro de Oro	7	Julio	2023-07-26T00:00:00	2024-11-08T16:00:00	3	Temperatura mínima	24.8
162892	7	Sololá	719	Santiago Atitlán	14	Cerro de Oro	7	Julio	2023-07-26T00:00:00	2024-11-08T16:00:00	5	Humedad	54
162893	7	Sololá	719	Santiago Atitlán	14	Cerro de Oro	7	Julio	2023-07-26T00:00:00	2024-11-08T16:00:00	6	Velocidad del viento	16.1
162894	7	Sololá	719	Santiago Atitlán	14	Cerro de Oro	7	Julio	2023-07-26T00:00:00	2024-11-08T16:00:00	7	Dirección del viento	16.09
162895	7	Sololá	719	Santiago Atitlán	14	Cerro de Oro	7	Julio	2023-07-26T00:00:00	2024-11-08T16:00:00	1	Precipitación	0
162896	7	Sololá	719	Santiago Atitlán	14	Cerro de Oro	7	Julio	2023-07-26T00:00:00	2024-11-08T16:00:00	8	Radiación solar	550
162897	7	Sololá	719	Santiago Atitlán	14	Cerro de Oro	7	Julio	2023-07-26T00:00:00	2024-11-08T17:00:00	2	Temperatura media	24.4
162898	7	Sololá	719	Santiago Atitlán	14	Cerro de Oro	7	Julio	2023-07-26T00:00:00	2024-11-08T17:00:00	4	Temperatura máxima	25.3
162899	7	Sololá	719	Santiago Atitlán	14	Cerro de Oro	7	Julio	2023-07-26T00:00:00	2024-11-08T17:00:00	3	Temperatura mínima	24.4
162900	7	Sololá	719	Santiago Atitlán	14	Cerro de Oro	7	Julio	2023-07-26T00:00:00	2024-11-08T17:00:00	5	Humedad	54
162901	7	Sololá	719	Santiago Atitlán	14	Cerro de Oro	7	Julio	2023-07-26T00:00:00	2024-11-08T17:00:00	6	Velocidad del viento	11.3
162902	7	Sololá	719	Santiago Atitlán	14	Cerro de Oro	7	Julio	2023-07-26T00:00:00	2024-11-08T17:00:00	7	Dirección del viento	11.27
162903	7	Sololá	719	Santiago Atitlán	14	Cerro de Oro	7	Julio	2023-07-26T00:00:00	2024-11-08T17:00:00	1	Precipitación	0
162904	7	Sololá	719	Santiago Atitlán	14	Cerro de Oro	7	Julio	2023-07-26T00:00:00	2024-11-08T17:00:00	8	Radiación solar	399
162905	7	Sololá	719	Santiago Atitlán	14	Cerro de Oro	7	Julio	2023-07-26T00:00:00	2024-11-08T18:00:00	2	Temperatura media	23.8
162906	7	Sololá	719	Santiago Atitlán	14	Cerro de Oro	7	Julio	2023-07-26T00:00:00	2024-11-08T18:00:00	4	Temperatura máxima	24.6
162907	7	Sololá	719	Santiago Atitlán	14	Cerro de Oro	7	Julio	2023-07-26T00:00:00	2024-11-08T18:00:00	3	Temperatura mínima	23.8
162908	7	Sololá	719	Santiago Atitlán	14	Cerro de Oro	7	Julio	2023-07-26T00:00:00	2024-11-08T18:00:00	5	Humedad	59
162909	7	Sololá	719	Santiago Atitlán	14	Cerro de Oro	7	Julio	2023-07-26T00:00:00	2024-11-08T18:00:00	6	Velocidad del viento	11.3
162910	7	Sololá	719	Santiago Atitlán	14	Cerro de Oro	7	Julio	2023-07-26T00:00:00	2024-11-08T18:00:00	7	Dirección del viento	11.27
162911	7	Sololá	719	Santiago Atitlán	14	Cerro de Oro	7	Julio	2023-07-26T00:00:00	2024-11-08T18:00:00	1	Precipitación	0
162912	7	Sololá	719	Santiago Atitlán	14	Cerro de Oro	7	Julio	2023-07-26T00:00:00	2024-11-08T18:00:00	8	Radiación solar	160
162913	7	Sololá	719	Santiago Atitlán	14	Cerro de Oro	7	Julio	2023-07-26T00:00:00	2024-11-08T19:00:00	2	Temperatura media	22.8
162914	7	Sololá	719	Santiago Atitlán	14	Cerro de Oro	7	Julio	2023-07-26T00:00:00	2024-11-08T19:00:00	4	Temperatura máxima	23.8
162915	7	Sololá	719	Santiago Atitlán	14	Cerro de Oro	7	Julio	2023-07-26T00:00:00	2024-11-08T19:00:00	3	Temperatura mínima	22.8
162916	7	Sololá	719	Santiago Atitlán	14	Cerro de Oro	7	Julio	2023-07-26T00:00:00	2024-11-08T19:00:00	5	Humedad	60
162917	7	Sololá	719	Santiago Atitlán	14	Cerro de Oro	7	Julio	2023-07-26T00:00:00	2024-11-08T19:00:00	6	Velocidad del viento	8
162918	7	Sololá	719	Santiago Atitlán	14	Cerro de Oro	7	Julio	2023-07-26T00:00:00	2024-11-08T19:00:00	7	Dirección del viento	8.05
162919	7	Sololá	719	Santiago Atitlán	14	Cerro de Oro	7	Julio	2023-07-26T00:00:00	2024-11-08T19:00:00	1	Precipitación	0
162920	7	Sololá	719	Santiago Atitlán	14	Cerro de Oro	7	Julio	2023-07-26T00:00:00	2024-11-08T19:00:00	8	Radiación solar	0
162921	7	Sololá	719	Santiago Atitlán	14	Cerro de Oro	7	Julio	2023-07-26T00:00:00	2024-11-08T20:00:00	2	Temperatura media	22
162922	7	Sololá	719	Santiago Atitlán	14	Cerro de Oro	7	Julio	2023-07-26T00:00:00	2024-11-08T20:00:00	4	Temperatura máxima	22.8
162923	7	Sololá	719	Santiago Atitlán	14	Cerro de Oro	7	Julio	2023-07-26T00:00:00	2024-11-08T20:00:00	3	Temperatura mínima	21.9
162924	7	Sololá	719	Santiago Atitlán	14	Cerro de Oro	7	Julio	2023-07-26T00:00:00	2024-11-08T20:00:00	5	Humedad	63
162925	7	Sololá	719	Santiago Atitlán	14	Cerro de Oro	7	Julio	2023-07-26T00:00:00	2024-11-08T20:00:00	6	Velocidad del viento	6.4
162926	7	Sololá	719	Santiago Atitlán	14	Cerro de Oro	7	Julio	2023-07-26T00:00:00	2024-11-08T20:00:00	7	Dirección del viento	6.44
162927	7	Sololá	719	Santiago Atitlán	14	Cerro de Oro	7	Julio	2023-07-26T00:00:00	2024-11-08T20:00:00	1	Precipitación	0
162928	7	Sololá	719	Santiago Atitlán	14	Cerro de Oro	7	Julio	2023-07-26T00:00:00	2024-11-08T20:00:00	8	Radiación solar	0
162929	7	Sololá	719	Santiago Atitlán	14	Cerro de Oro	7	Julio	2023-07-26T00:00:00	2024-11-08T21:00:00	2	Temperatura media	20.8
162930	7	Sololá	719	Santiago Atitlán	14	Cerro de Oro	7	Julio	2023-07-26T00:00:00	2024-11-08T21:00:00	4	Temperatura máxima	21.9
162931	7	Sololá	719	Santiago Atitlán	14	Cerro de Oro	7	Julio	2023-07-26T00:00:00	2024-11-08T21:00:00	3	Temperatura mínima	20.3
162932	7	Sololá	719	Santiago Atitlán	14	Cerro de Oro	7	Julio	2023-07-26T00:00:00	2024-11-08T21:00:00	5	Humedad	64
162933	7	Sololá	719	Santiago Atitlán	14	Cerro de Oro	7	Julio	2023-07-26T00:00:00	2024-11-08T21:00:00	6	Velocidad del viento	4.8
162934	7	Sololá	719	Santiago Atitlán	14	Cerro de Oro	7	Julio	2023-07-26T00:00:00	2024-11-08T21:00:00	7	Dirección del viento	4.83
162935	7	Sololá	719	Santiago Atitlán	14	Cerro de Oro	7	Julio	2023-07-26T00:00:00	2024-11-08T21:00:00	1	Precipitación	0
162936	7	Sololá	719	Santiago Atitlán	14	Cerro de Oro	7	Julio	2023-07-26T00:00:00	2024-11-08T21:00:00	8	Radiación solar	0
162937	7	Sololá	719	Santiago Atitlán	14	Cerro de Oro	7	Julio	2023-07-26T00:00:00	2024-11-08T22:00:00	2	Temperatura media	21.2
162938	7	Sololá	719	Santiago Atitlán	14	Cerro de Oro	7	Julio	2023-07-26T00:00:00	2024-11-08T22:00:00	4	Temperatura máxima	21.2
162939	7	Sololá	719	Santiago Atitlán	14	Cerro de Oro	7	Julio	2023-07-26T00:00:00	2024-11-08T22:00:00	3	Temperatura mínima	20.1
162940	7	Sololá	719	Santiago Atitlán	14	Cerro de Oro	7	Julio	2023-07-26T00:00:00	2024-11-08T22:00:00	5	Humedad	66
162941	7	Sololá	719	Santiago Atitlán	14	Cerro de Oro	7	Julio	2023-07-26T00:00:00	2024-11-08T22:00:00	6	Velocidad del viento	6.4
162942	7	Sololá	719	Santiago Atitlán	14	Cerro de Oro	7	Julio	2023-07-26T00:00:00	2024-11-08T22:00:00	7	Dirección del viento	6.44
162943	7	Sololá	719	Santiago Atitlán	14	Cerro de Oro	7	Julio	2023-07-26T00:00:00	2024-11-08T22:00:00	1	Precipitación	0
162944	7	Sololá	719	Santiago Atitlán	14	Cerro de Oro	7	Julio	2023-07-26T00:00:00	2024-11-08T22:00:00	8	Radiación solar	0
162945	7	Sololá	719	Santiago Atitlán	14	Cerro de Oro	7	Julio	2023-07-26T00:00:00	2024-11-08T23:00:00	2	Temperatura media	19.1
162946	7	Sololá	719	Santiago Atitlán	14	Cerro de Oro	7	Julio	2023-07-26T00:00:00	2024-11-08T23:00:00	4	Temperatura máxima	21.3
162947	7	Sololá	719	Santiago Atitlán	14	Cerro de Oro	7	Julio	2023-07-26T00:00:00	2024-11-08T23:00:00	3	Temperatura mínima	19.1
162948	7	Sololá	719	Santiago Atitlán	14	Cerro de Oro	7	Julio	2023-07-26T00:00:00	2024-11-08T23:00:00	5	Humedad	71
162949	7	Sololá	719	Santiago Atitlán	14	Cerro de Oro	7	Julio	2023-07-26T00:00:00	2024-11-08T23:00:00	6	Velocidad del viento	4.8
162950	7	Sololá	719	Santiago Atitlán	14	Cerro de Oro	7	Julio	2023-07-26T00:00:00	2024-11-08T23:00:00	7	Dirección del viento	4.83
162951	7	Sololá	719	Santiago Atitlán	14	Cerro de Oro	7	Julio	2023-07-26T00:00:00	2024-11-08T23:00:00	1	Precipitación	0
162952	7	Sololá	719	Santiago Atitlán	14	Cerro de Oro	7	Julio	2023-07-26T00:00:00	2024-11-08T23:00:00	8	Radiación solar	0
162953	7	Sololá	719	Santiago Atitlán	14	Cerro de Oro	7	Julio	2023-07-27T00:00:00	2024-11-08T00:00:00	2	Temperatura media	20.8
162954	7	Sololá	719	Santiago Atitlán	14	Cerro de Oro	7	Julio	2023-07-27T00:00:00	2024-11-08T00:00:00	4	Temperatura máxima	20.8
162955	7	Sololá	719	Santiago Atitlán	14	Cerro de Oro	7	Julio	2023-07-27T00:00:00	2024-11-08T00:00:00	3	Temperatura mínima	19.2
162956	7	Sololá	719	Santiago Atitlán	14	Cerro de Oro	7	Julio	2023-07-27T00:00:00	2024-11-08T00:00:00	5	Humedad	66
162957	7	Sololá	719	Santiago Atitlán	14	Cerro de Oro	7	Julio	2023-07-27T00:00:00	2024-11-08T00:00:00	6	Velocidad del viento	4.8
162958	7	Sololá	719	Santiago Atitlán	14	Cerro de Oro	7	Julio	2023-07-27T00:00:00	2024-11-08T00:00:00	7	Dirección del viento	4.83
162959	7	Sololá	719	Santiago Atitlán	14	Cerro de Oro	7	Julio	2023-07-27T00:00:00	2024-11-08T00:00:00	1	Precipitación	0
162960	7	Sololá	719	Santiago Atitlán	14	Cerro de Oro	7	Julio	2023-07-27T00:00:00	2024-11-08T00:00:00	8	Radiación solar	0
162961	7	Sololá	719	Santiago Atitlán	14	Cerro de Oro	7	Julio	2023-07-27T00:00:00	2024-11-08T01:00:00	2	Temperatura media	20.6
162962	7	Sololá	719	Santiago Atitlán	14	Cerro de Oro	7	Julio	2023-07-27T00:00:00	2024-11-08T01:00:00	4	Temperatura máxima	20.9
162963	7	Sololá	719	Santiago Atitlán	14	Cerro de Oro	7	Julio	2023-07-27T00:00:00	2024-11-08T01:00:00	3	Temperatura mínima	20.6
162964	7	Sololá	719	Santiago Atitlán	14	Cerro de Oro	7	Julio	2023-07-27T00:00:00	2024-11-08T01:00:00	5	Humedad	68
162965	7	Sololá	719	Santiago Atitlán	14	Cerro de Oro	7	Julio	2023-07-27T00:00:00	2024-11-08T01:00:00	6	Velocidad del viento	6.4
162966	7	Sololá	719	Santiago Atitlán	14	Cerro de Oro	7	Julio	2023-07-27T00:00:00	2024-11-08T01:00:00	7	Dirección del viento	6.44
162967	7	Sololá	719	Santiago Atitlán	14	Cerro de Oro	7	Julio	2023-07-27T00:00:00	2024-11-08T01:00:00	1	Precipitación	0
162968	7	Sololá	719	Santiago Atitlán	14	Cerro de Oro	7	Julio	2023-07-27T00:00:00	2024-11-08T01:00:00	8	Radiación solar	0
162969	7	Sololá	719	Santiago Atitlán	14	Cerro de Oro	7	Julio	2023-07-27T00:00:00	2024-11-08T02:00:00	2	Temperatura media	20.7
162970	7	Sololá	719	Santiago Atitlán	14	Cerro de Oro	7	Julio	2023-07-27T00:00:00	2024-11-08T02:00:00	4	Temperatura máxima	20.9
162971	7	Sololá	719	Santiago Atitlán	14	Cerro de Oro	7	Julio	2023-07-27T00:00:00	2024-11-08T02:00:00	3	Temperatura mínima	20.4
162972	7	Sololá	719	Santiago Atitlán	14	Cerro de Oro	7	Julio	2023-07-27T00:00:00	2024-11-08T02:00:00	5	Humedad	65
162973	7	Sololá	719	Santiago Atitlán	14	Cerro de Oro	7	Julio	2023-07-27T00:00:00	2024-11-08T02:00:00	6	Velocidad del viento	4.8
162974	7	Sololá	719	Santiago Atitlán	14	Cerro de Oro	7	Julio	2023-07-27T00:00:00	2024-11-08T02:00:00	7	Dirección del viento	4.83
162975	7	Sololá	719	Santiago Atitlán	14	Cerro de Oro	7	Julio	2023-07-27T00:00:00	2024-11-08T02:00:00	1	Precipitación	0
162976	7	Sololá	719	Santiago Atitlán	14	Cerro de Oro	7	Julio	2023-07-27T00:00:00	2024-11-08T02:00:00	8	Radiación solar	0
162977	7	Sololá	719	Santiago Atitlán	14	Cerro de Oro	7	Julio	2023-07-27T00:00:00	2024-11-08T03:00:00	2	Temperatura media	18.9
162978	7	Sololá	719	Santiago Atitlán	14	Cerro de Oro	7	Julio	2023-07-27T00:00:00	2024-11-08T03:00:00	4	Temperatura máxima	20.9
162979	7	Sololá	719	Santiago Atitlán	14	Cerro de Oro	7	Julio	2023-07-27T00:00:00	2024-11-08T03:00:00	3	Temperatura mínima	18.9
162980	7	Sololá	719	Santiago Atitlán	14	Cerro de Oro	7	Julio	2023-07-27T00:00:00	2024-11-08T03:00:00	5	Humedad	71
162981	7	Sololá	719	Santiago Atitlán	14	Cerro de Oro	7	Julio	2023-07-27T00:00:00	2024-11-08T03:00:00	6	Velocidad del viento	6.4
162982	7	Sololá	719	Santiago Atitlán	14	Cerro de Oro	7	Julio	2023-07-27T00:00:00	2024-11-08T03:00:00	7	Dirección del viento	6.44
162983	7	Sololá	719	Santiago Atitlán	14	Cerro de Oro	7	Julio	2023-07-27T00:00:00	2024-11-08T03:00:00	1	Precipitación	0
162984	7	Sololá	719	Santiago Atitlán	14	Cerro de Oro	7	Julio	2023-07-27T00:00:00	2024-11-08T03:00:00	8	Radiación solar	0
162985	7	Sololá	719	Santiago Atitlán	14	Cerro de Oro	7	Julio	2023-07-27T00:00:00	2024-11-08T04:00:00	2	Temperatura media	18.2
162986	7	Sololá	719	Santiago Atitlán	14	Cerro de Oro	7	Julio	2023-07-27T00:00:00	2024-11-08T04:00:00	4	Temperatura máxima	18.9
162987	7	Sololá	719	Santiago Atitlán	14	Cerro de Oro	7	Julio	2023-07-27T00:00:00	2024-11-08T04:00:00	3	Temperatura mínima	17.8
162988	7	Sololá	719	Santiago Atitlán	14	Cerro de Oro	7	Julio	2023-07-27T00:00:00	2024-11-08T04:00:00	5	Humedad	71
162989	7	Sololá	719	Santiago Atitlán	14	Cerro de Oro	7	Julio	2023-07-27T00:00:00	2024-11-08T04:00:00	6	Velocidad del viento	6.4
162990	7	Sololá	719	Santiago Atitlán	14	Cerro de Oro	7	Julio	2023-07-27T00:00:00	2024-11-08T04:00:00	7	Dirección del viento	6.44
162991	7	Sololá	719	Santiago Atitlán	14	Cerro de Oro	7	Julio	2023-07-27T00:00:00	2024-11-08T04:00:00	1	Precipitación	0
162992	7	Sololá	719	Santiago Atitlán	14	Cerro de Oro	7	Julio	2023-07-27T00:00:00	2024-11-08T04:00:00	8	Radiación solar	0
162993	7	Sololá	719	Santiago Atitlán	14	Cerro de Oro	7	Julio	2023-07-27T00:00:00	2024-11-08T05:00:00	2	Temperatura media	18.9
162994	7	Sololá	719	Santiago Atitlán	14	Cerro de Oro	7	Julio	2023-07-27T00:00:00	2024-11-08T05:00:00	4	Temperatura máxima	19.1
162995	7	Sololá	719	Santiago Atitlán	14	Cerro de Oro	7	Julio	2023-07-27T00:00:00	2024-11-08T05:00:00	3	Temperatura mínima	18.2
162996	7	Sololá	719	Santiago Atitlán	14	Cerro de Oro	7	Julio	2023-07-27T00:00:00	2024-11-08T05:00:00	5	Humedad	69
162997	7	Sololá	719	Santiago Atitlán	14	Cerro de Oro	7	Julio	2023-07-27T00:00:00	2024-11-08T05:00:00	6	Velocidad del viento	4.8
162998	7	Sololá	719	Santiago Atitlán	14	Cerro de Oro	7	Julio	2023-07-27T00:00:00	2024-11-08T05:00:00	7	Dirección del viento	4.83
162999	7	Sololá	719	Santiago Atitlán	14	Cerro de Oro	7	Julio	2023-07-27T00:00:00	2024-11-08T05:00:00	1	Precipitación	0
163000	7	Sololá	719	Santiago Atitlán	14	Cerro de Oro	7	Julio	2023-07-27T00:00:00	2024-11-08T05:00:00	8	Radiación solar	0
163001	7	Sololá	719	Santiago Atitlán	14	Cerro de Oro	7	Julio	2023-07-27T00:00:00	2024-11-08T06:00:00	2	Temperatura media	17.6
163002	7	Sololá	719	Santiago Atitlán	14	Cerro de Oro	7	Julio	2023-07-27T00:00:00	2024-11-08T06:00:00	4	Temperatura máxima	18.9
163003	7	Sololá	719	Santiago Atitlán	14	Cerro de Oro	7	Julio	2023-07-27T00:00:00	2024-11-08T06:00:00	3	Temperatura mínima	17.6
163004	7	Sololá	719	Santiago Atitlán	14	Cerro de Oro	7	Julio	2023-07-27T00:00:00	2024-11-08T06:00:00	5	Humedad	72
163005	7	Sololá	719	Santiago Atitlán	14	Cerro de Oro	7	Julio	2023-07-27T00:00:00	2024-11-08T06:00:00	6	Velocidad del viento	4.8
163006	7	Sololá	719	Santiago Atitlán	14	Cerro de Oro	7	Julio	2023-07-27T00:00:00	2024-11-08T06:00:00	7	Dirección del viento	4.83
163007	7	Sololá	719	Santiago Atitlán	14	Cerro de Oro	7	Julio	2023-07-27T00:00:00	2024-11-08T06:00:00	1	Precipitación	0
163008	7	Sololá	719	Santiago Atitlán	14	Cerro de Oro	7	Julio	2023-07-27T00:00:00	2024-11-08T06:00:00	8	Radiación solar	2
163009	7	Sololá	719	Santiago Atitlán	14	Cerro de Oro	7	Julio	2023-07-27T00:00:00	2024-11-08T07:00:00	2	Temperatura media	21.1
163010	7	Sololá	719	Santiago Atitlán	14	Cerro de Oro	7	Julio	2023-07-27T00:00:00	2024-11-08T07:00:00	4	Temperatura máxima	21.1
163011	7	Sololá	719	Santiago Atitlán	14	Cerro de Oro	7	Julio	2023-07-27T00:00:00	2024-11-08T07:00:00	3	Temperatura mínima	17.5
163012	7	Sololá	719	Santiago Atitlán	14	Cerro de Oro	7	Julio	2023-07-27T00:00:00	2024-11-08T07:00:00	5	Humedad	62
163013	7	Sololá	719	Santiago Atitlán	14	Cerro de Oro	7	Julio	2023-07-27T00:00:00	2024-11-08T07:00:00	6	Velocidad del viento	4.8
163014	7	Sololá	719	Santiago Atitlán	14	Cerro de Oro	7	Julio	2023-07-27T00:00:00	2024-11-08T07:00:00	7	Dirección del viento	4.83
163015	7	Sololá	719	Santiago Atitlán	14	Cerro de Oro	7	Julio	2023-07-27T00:00:00	2024-11-08T07:00:00	1	Precipitación	0
163016	7	Sololá	719	Santiago Atitlán	14	Cerro de Oro	7	Julio	2023-07-27T00:00:00	2024-11-08T07:00:00	8	Radiación solar	87
163017	7	Sololá	719	Santiago Atitlán	14	Cerro de Oro	7	Julio	2023-07-27T00:00:00	2024-11-08T08:00:00	2	Temperatura media	22.3
163018	7	Sololá	719	Santiago Atitlán	14	Cerro de Oro	7	Julio	2023-07-27T00:00:00	2024-11-08T08:00:00	4	Temperatura máxima	22.4
163019	7	Sololá	719	Santiago Atitlán	14	Cerro de Oro	7	Julio	2023-07-27T00:00:00	2024-11-08T08:00:00	3	Temperatura mínima	21.1
163020	7	Sololá	719	Santiago Atitlán	14	Cerro de Oro	7	Julio	2023-07-27T00:00:00	2024-11-08T08:00:00	5	Humedad	60
163021	7	Sololá	719	Santiago Atitlán	14	Cerro de Oro	7	Julio	2023-07-27T00:00:00	2024-11-08T08:00:00	6	Velocidad del viento	3.2
163022	7	Sololá	719	Santiago Atitlán	14	Cerro de Oro	7	Julio	2023-07-27T00:00:00	2024-11-08T08:00:00	7	Dirección del viento	3.22
163023	7	Sololá	719	Santiago Atitlán	14	Cerro de Oro	7	Julio	2023-07-27T00:00:00	2024-11-08T08:00:00	1	Precipitación	0
163024	7	Sololá	719	Santiago Atitlán	14	Cerro de Oro	7	Julio	2023-07-27T00:00:00	2024-11-08T08:00:00	8	Radiación solar	285
163025	7	Sololá	719	Santiago Atitlán	14	Cerro de Oro	7	Julio	2023-07-27T00:00:00	2024-11-08T09:00:00	2	Temperatura media	23.2
163026	7	Sololá	719	Santiago Atitlán	14	Cerro de Oro	7	Julio	2023-07-27T00:00:00	2024-11-08T09:00:00	4	Temperatura máxima	23.3
163027	7	Sololá	719	Santiago Atitlán	14	Cerro de Oro	7	Julio	2023-07-27T00:00:00	2024-11-08T09:00:00	3	Temperatura mínima	22.3
163028	7	Sololá	719	Santiago Atitlán	14	Cerro de Oro	7	Julio	2023-07-27T00:00:00	2024-11-08T09:00:00	5	Humedad	58
163029	7	Sololá	719	Santiago Atitlán	14	Cerro de Oro	7	Julio	2023-07-27T00:00:00	2024-11-08T09:00:00	6	Velocidad del viento	3.2
163030	7	Sololá	719	Santiago Atitlán	14	Cerro de Oro	7	Julio	2023-07-27T00:00:00	2024-11-08T09:00:00	7	Dirección del viento	3.22
163031	7	Sololá	719	Santiago Atitlán	14	Cerro de Oro	7	Julio	2023-07-27T00:00:00	2024-11-08T09:00:00	1	Precipitación	0
163032	7	Sololá	719	Santiago Atitlán	14	Cerro de Oro	7	Julio	2023-07-27T00:00:00	2024-11-08T09:00:00	8	Radiación solar	504
163033	7	Sololá	719	Santiago Atitlán	14	Cerro de Oro	7	Julio	2023-07-27T00:00:00	2024-11-08T10:00:00	2	Temperatura media	24.3
163034	7	Sololá	719	Santiago Atitlán	14	Cerro de Oro	7	Julio	2023-07-27T00:00:00	2024-11-08T10:00:00	4	Temperatura máxima	24.6
163035	7	Sololá	719	Santiago Atitlán	14	Cerro de Oro	7	Julio	2023-07-27T00:00:00	2024-11-08T10:00:00	3	Temperatura mínima	23.1
163036	7	Sololá	719	Santiago Atitlán	14	Cerro de Oro	7	Julio	2023-07-27T00:00:00	2024-11-08T10:00:00	5	Humedad	56
163037	7	Sololá	719	Santiago Atitlán	14	Cerro de Oro	7	Julio	2023-07-27T00:00:00	2024-11-08T10:00:00	6	Velocidad del viento	4.8
163038	7	Sololá	719	Santiago Atitlán	14	Cerro de Oro	7	Julio	2023-07-27T00:00:00	2024-11-08T10:00:00	7	Dirección del viento	4.83
163039	7	Sololá	719	Santiago Atitlán	14	Cerro de Oro	7	Julio	2023-07-27T00:00:00	2024-11-08T10:00:00	1	Precipitación	0
163040	7	Sololá	719	Santiago Atitlán	14	Cerro de Oro	7	Julio	2023-07-27T00:00:00	2024-11-08T10:00:00	8	Radiación solar	691
163041	7	Sololá	719	Santiago Atitlán	14	Cerro de Oro	7	Julio	2023-07-27T00:00:00	2024-11-08T11:00:00	2	Temperatura media	25.8
163042	7	Sololá	719	Santiago Atitlán	14	Cerro de Oro	7	Julio	2023-07-27T00:00:00	2024-11-08T11:00:00	4	Temperatura máxima	25.8
163043	7	Sololá	719	Santiago Atitlán	14	Cerro de Oro	7	Julio	2023-07-27T00:00:00	2024-11-08T11:00:00	3	Temperatura mínima	24.3
163044	7	Sololá	719	Santiago Atitlán	14	Cerro de Oro	7	Julio	2023-07-27T00:00:00	2024-11-08T11:00:00	5	Humedad	53
163045	7	Sololá	719	Santiago Atitlán	14	Cerro de Oro	7	Julio	2023-07-27T00:00:00	2024-11-08T11:00:00	6	Velocidad del viento	4.8
163046	7	Sololá	719	Santiago Atitlán	14	Cerro de Oro	7	Julio	2023-07-27T00:00:00	2024-11-08T11:00:00	7	Dirección del viento	4.83
163047	7	Sololá	719	Santiago Atitlán	14	Cerro de Oro	7	Julio	2023-07-27T00:00:00	2024-11-08T11:00:00	1	Precipitación	0
163048	7	Sololá	719	Santiago Atitlán	14	Cerro de Oro	7	Julio	2023-07-27T00:00:00	2024-11-08T11:00:00	8	Radiación solar	846
163049	7	Sololá	719	Santiago Atitlán	14	Cerro de Oro	7	Julio	2023-07-27T00:00:00	2024-11-08T12:00:00	2	Temperatura media	25.3
163050	7	Sololá	719	Santiago Atitlán	14	Cerro de Oro	7	Julio	2023-07-27T00:00:00	2024-11-08T12:00:00	4	Temperatura máxima	26.5
163051	7	Sololá	719	Santiago Atitlán	14	Cerro de Oro	7	Julio	2023-07-27T00:00:00	2024-11-08T12:00:00	3	Temperatura mínima	25.2
163052	7	Sololá	719	Santiago Atitlán	14	Cerro de Oro	7	Julio	2023-07-27T00:00:00	2024-11-08T12:00:00	5	Humedad	56
163053	7	Sololá	719	Santiago Atitlán	14	Cerro de Oro	7	Julio	2023-07-27T00:00:00	2024-11-08T12:00:00	6	Velocidad del viento	4.8
163054	7	Sololá	719	Santiago Atitlán	14	Cerro de Oro	7	Julio	2023-07-27T00:00:00	2024-11-08T12:00:00	7	Dirección del viento	4.83
163055	7	Sololá	719	Santiago Atitlán	14	Cerro de Oro	7	Julio	2023-07-27T00:00:00	2024-11-08T12:00:00	1	Precipitación	0
163056	7	Sololá	719	Santiago Atitlán	14	Cerro de Oro	7	Julio	2023-07-27T00:00:00	2024-11-08T12:00:00	8	Radiación solar	547
163057	7	Sololá	719	Santiago Atitlán	14	Cerro de Oro	7	Julio	2023-07-27T00:00:00	2024-11-08T13:00:00	2	Temperatura media	26.3
163058	7	Sololá	719	Santiago Atitlán	14	Cerro de Oro	7	Julio	2023-07-27T00:00:00	2024-11-08T13:00:00	4	Temperatura máxima	26.3
163059	7	Sololá	719	Santiago Atitlán	14	Cerro de Oro	7	Julio	2023-07-27T00:00:00	2024-11-08T13:00:00	3	Temperatura mínima	25.1
163060	7	Sololá	719	Santiago Atitlán	14	Cerro de Oro	7	Julio	2023-07-27T00:00:00	2024-11-08T13:00:00	5	Humedad	51
163061	7	Sololá	719	Santiago Atitlán	14	Cerro de Oro	7	Julio	2023-07-27T00:00:00	2024-11-08T13:00:00	6	Velocidad del viento	8
163062	7	Sololá	719	Santiago Atitlán	14	Cerro de Oro	7	Julio	2023-07-27T00:00:00	2024-11-08T13:00:00	7	Dirección del viento	8.05
163063	7	Sololá	719	Santiago Atitlán	14	Cerro de Oro	7	Julio	2023-07-27T00:00:00	2024-11-08T13:00:00	1	Precipitación	0
163064	7	Sololá	719	Santiago Atitlán	14	Cerro de Oro	7	Julio	2023-07-27T00:00:00	2024-11-08T13:00:00	8	Radiación solar	631
163065	7	Sololá	719	Santiago Atitlán	14	Cerro de Oro	7	Julio	2023-07-27T00:00:00	2024-11-08T14:00:00	2	Temperatura media	26.1
163066	7	Sololá	719	Santiago Atitlán	14	Cerro de Oro	7	Julio	2023-07-27T00:00:00	2024-11-08T14:00:00	4	Temperatura máxima	26.3
163067	7	Sololá	719	Santiago Atitlán	14	Cerro de Oro	7	Julio	2023-07-27T00:00:00	2024-11-08T14:00:00	3	Temperatura mínima	25.5
163068	7	Sololá	719	Santiago Atitlán	14	Cerro de Oro	7	Julio	2023-07-27T00:00:00	2024-11-08T14:00:00	5	Humedad	51
163069	7	Sololá	719	Santiago Atitlán	14	Cerro de Oro	7	Julio	2023-07-27T00:00:00	2024-11-08T14:00:00	6	Velocidad del viento	9.7
163070	7	Sololá	719	Santiago Atitlán	14	Cerro de Oro	7	Julio	2023-07-27T00:00:00	2024-11-08T14:00:00	7	Dirección del viento	9.66
163071	7	Sololá	719	Santiago Atitlán	14	Cerro de Oro	7	Julio	2023-07-27T00:00:00	2024-11-08T14:00:00	1	Precipitación	0
163072	7	Sololá	719	Santiago Atitlán	14	Cerro de Oro	7	Julio	2023-07-27T00:00:00	2024-11-08T14:00:00	8	Radiación solar	459
163073	7	Sololá	719	Santiago Atitlán	14	Cerro de Oro	7	Julio	2023-07-27T00:00:00	2024-11-08T15:00:00	2	Temperatura media	26.9
163074	7	Sololá	719	Santiago Atitlán	14	Cerro de Oro	7	Julio	2023-07-27T00:00:00	2024-11-08T15:00:00	4	Temperatura máxima	26.9
163075	7	Sololá	719	Santiago Atitlán	14	Cerro de Oro	7	Julio	2023-07-27T00:00:00	2024-11-08T15:00:00	3	Temperatura mínima	25.8
163076	7	Sololá	719	Santiago Atitlán	14	Cerro de Oro	7	Julio	2023-07-27T00:00:00	2024-11-08T15:00:00	5	Humedad	59
163077	7	Sololá	719	Santiago Atitlán	14	Cerro de Oro	7	Julio	2023-07-27T00:00:00	2024-11-08T15:00:00	6	Velocidad del viento	11.3
163078	7	Sololá	719	Santiago Atitlán	14	Cerro de Oro	7	Julio	2023-07-27T00:00:00	2024-11-08T15:00:00	7	Dirección del viento	11.27
163079	7	Sololá	719	Santiago Atitlán	14	Cerro de Oro	7	Julio	2023-07-27T00:00:00	2024-11-08T15:00:00	1	Precipitación	0
163080	7	Sololá	719	Santiago Atitlán	14	Cerro de Oro	7	Julio	2023-07-27T00:00:00	2024-11-08T15:00:00	8	Radiación solar	601
163081	7	Sololá	719	Santiago Atitlán	14	Cerro de Oro	7	Julio	2023-07-27T00:00:00	2024-11-08T16:00:00	2	Temperatura media	26.2
163082	7	Sololá	719	Santiago Atitlán	14	Cerro de Oro	7	Julio	2023-07-27T00:00:00	2024-11-08T16:00:00	4	Temperatura máxima	26.9
163083	7	Sololá	719	Santiago Atitlán	14	Cerro de Oro	7	Julio	2023-07-27T00:00:00	2024-11-08T16:00:00	3	Temperatura mínima	26.1
163084	7	Sololá	719	Santiago Atitlán	14	Cerro de Oro	7	Julio	2023-07-27T00:00:00	2024-11-08T16:00:00	5	Humedad	59
163085	7	Sololá	719	Santiago Atitlán	14	Cerro de Oro	7	Julio	2023-07-27T00:00:00	2024-11-08T16:00:00	6	Velocidad del viento	9.7
163086	7	Sololá	719	Santiago Atitlán	14	Cerro de Oro	7	Julio	2023-07-27T00:00:00	2024-11-08T16:00:00	7	Dirección del viento	9.66
163087	7	Sololá	719	Santiago Atitlán	14	Cerro de Oro	7	Julio	2023-07-27T00:00:00	2024-11-08T16:00:00	1	Precipitación	0
163088	7	Sololá	719	Santiago Atitlán	14	Cerro de Oro	7	Julio	2023-07-27T00:00:00	2024-11-08T16:00:00	8	Radiación solar	632
163089	7	Sololá	719	Santiago Atitlán	14	Cerro de Oro	7	Julio	2023-07-27T00:00:00	2024-11-08T17:00:00	2	Temperatura media	24.6
163090	7	Sololá	719	Santiago Atitlán	14	Cerro de Oro	7	Julio	2023-07-27T00:00:00	2024-11-08T17:00:00	4	Temperatura máxima	26.2
163091	7	Sololá	719	Santiago Atitlán	14	Cerro de Oro	7	Julio	2023-07-27T00:00:00	2024-11-08T17:00:00	3	Temperatura mínima	24.1
163092	7	Sololá	719	Santiago Atitlán	14	Cerro de Oro	7	Julio	2023-07-27T00:00:00	2024-11-08T17:00:00	5	Humedad	66
163093	7	Sololá	719	Santiago Atitlán	14	Cerro de Oro	7	Julio	2023-07-27T00:00:00	2024-11-08T17:00:00	6	Velocidad del viento	12.9
163094	7	Sololá	719	Santiago Atitlán	14	Cerro de Oro	7	Julio	2023-07-27T00:00:00	2024-11-08T17:00:00	7	Dirección del viento	12.87
163095	7	Sololá	719	Santiago Atitlán	14	Cerro de Oro	7	Julio	2023-07-27T00:00:00	2024-11-08T17:00:00	1	Precipitación	0
163096	7	Sololá	719	Santiago Atitlán	14	Cerro de Oro	7	Julio	2023-07-27T00:00:00	2024-11-08T17:00:00	8	Radiación solar	352
163097	7	Sololá	719	Santiago Atitlán	14	Cerro de Oro	7	Julio	2023-07-27T00:00:00	2024-11-08T18:00:00	2	Temperatura media	23.1
163098	7	Sololá	719	Santiago Atitlán	14	Cerro de Oro	7	Julio	2023-07-27T00:00:00	2024-11-08T18:00:00	4	Temperatura máxima	24.7
163099	7	Sololá	719	Santiago Atitlán	14	Cerro de Oro	7	Julio	2023-07-27T00:00:00	2024-11-08T18:00:00	3	Temperatura mínima	22.7
163100	7	Sololá	719	Santiago Atitlán	14	Cerro de Oro	7	Julio	2023-07-27T00:00:00	2024-11-08T18:00:00	5	Humedad	71
163101	7	Sololá	719	Santiago Atitlán	14	Cerro de Oro	7	Julio	2023-07-27T00:00:00	2024-11-08T18:00:00	6	Velocidad del viento	8
163102	7	Sololá	719	Santiago Atitlán	14	Cerro de Oro	7	Julio	2023-07-27T00:00:00	2024-11-08T18:00:00	7	Dirección del viento	8.05
163103	7	Sololá	719	Santiago Atitlán	14	Cerro de Oro	7	Julio	2023-07-27T00:00:00	2024-11-08T18:00:00	1	Precipitación	0
163104	7	Sololá	719	Santiago Atitlán	14	Cerro de Oro	7	Julio	2023-07-27T00:00:00	2024-11-08T18:00:00	8	Radiación solar	81
163105	7	Sololá	719	Santiago Atitlán	14	Cerro de Oro	7	Julio	2023-07-27T00:00:00	2024-11-08T19:00:00	2	Temperatura media	21.9
163106	7	Sololá	719	Santiago Atitlán	14	Cerro de Oro	7	Julio	2023-07-27T00:00:00	2024-11-08T19:00:00	4	Temperatura máxima	23.1
163107	7	Sololá	719	Santiago Atitlán	14	Cerro de Oro	7	Julio	2023-07-27T00:00:00	2024-11-08T19:00:00	3	Temperatura mínima	21.7
163108	7	Sololá	719	Santiago Atitlán	14	Cerro de Oro	7	Julio	2023-07-27T00:00:00	2024-11-08T19:00:00	5	Humedad	76
163109	7	Sololá	719	Santiago Atitlán	14	Cerro de Oro	7	Julio	2023-07-27T00:00:00	2024-11-08T19:00:00	6	Velocidad del viento	6.4
163110	7	Sololá	719	Santiago Atitlán	14	Cerro de Oro	7	Julio	2023-07-27T00:00:00	2024-11-08T19:00:00	7	Dirección del viento	6.44
163111	7	Sololá	719	Santiago Atitlán	14	Cerro de Oro	7	Julio	2023-07-27T00:00:00	2024-11-08T19:00:00	1	Precipitación	0
163112	7	Sololá	719	Santiago Atitlán	14	Cerro de Oro	7	Julio	2023-07-27T00:00:00	2024-11-08T19:00:00	8	Radiación solar	0
163113	7	Sololá	719	Santiago Atitlán	14	Cerro de Oro	7	Julio	2023-07-27T00:00:00	2024-11-08T20:00:00	2	Temperatura media	22.6
163114	7	Sololá	719	Santiago Atitlán	14	Cerro de Oro	7	Julio	2023-07-27T00:00:00	2024-11-08T20:00:00	4	Temperatura máxima	22.6
163115	7	Sololá	719	Santiago Atitlán	14	Cerro de Oro	7	Julio	2023-07-27T00:00:00	2024-11-08T20:00:00	3	Temperatura mínima	21.9
163116	7	Sololá	719	Santiago Atitlán	14	Cerro de Oro	7	Julio	2023-07-27T00:00:00	2024-11-08T20:00:00	5	Humedad	62
163117	7	Sololá	719	Santiago Atitlán	14	Cerro de Oro	7	Julio	2023-07-27T00:00:00	2024-11-08T20:00:00	6	Velocidad del viento	6.4
163118	7	Sololá	719	Santiago Atitlán	14	Cerro de Oro	7	Julio	2023-07-27T00:00:00	2024-11-08T20:00:00	7	Dirección del viento	6.44
163119	7	Sololá	719	Santiago Atitlán	14	Cerro de Oro	7	Julio	2023-07-27T00:00:00	2024-11-08T20:00:00	1	Precipitación	0
163120	7	Sololá	719	Santiago Atitlán	14	Cerro de Oro	7	Julio	2023-07-27T00:00:00	2024-11-08T20:00:00	8	Radiación solar	0
163121	7	Sololá	719	Santiago Atitlán	14	Cerro de Oro	7	Julio	2023-07-27T00:00:00	2024-11-08T21:00:00	2	Temperatura media	21.3
163122	7	Sololá	719	Santiago Atitlán	14	Cerro de Oro	7	Julio	2023-07-27T00:00:00	2024-11-08T21:00:00	4	Temperatura máxima	22.7
163123	7	Sololá	719	Santiago Atitlán	14	Cerro de Oro	7	Julio	2023-07-27T00:00:00	2024-11-08T21:00:00	3	Temperatura mínima	21.3
163124	7	Sololá	719	Santiago Atitlán	14	Cerro de Oro	7	Julio	2023-07-27T00:00:00	2024-11-08T21:00:00	5	Humedad	68
163125	7	Sololá	719	Santiago Atitlán	14	Cerro de Oro	7	Julio	2023-07-27T00:00:00	2024-11-08T21:00:00	6	Velocidad del viento	4.8
163126	7	Sololá	719	Santiago Atitlán	14	Cerro de Oro	7	Julio	2023-07-27T00:00:00	2024-11-08T21:00:00	7	Dirección del viento	4.83
163127	7	Sololá	719	Santiago Atitlán	14	Cerro de Oro	7	Julio	2023-07-27T00:00:00	2024-11-08T21:00:00	1	Precipitación	0
163128	7	Sololá	719	Santiago Atitlán	14	Cerro de Oro	7	Julio	2023-07-27T00:00:00	2024-11-08T21:00:00	8	Radiación solar	0
163129	7	Sololá	719	Santiago Atitlán	14	Cerro de Oro	7	Julio	2023-07-27T00:00:00	2024-11-08T22:00:00	2	Temperatura media	20.8
163130	7	Sololá	719	Santiago Atitlán	14	Cerro de Oro	7	Julio	2023-07-27T00:00:00	2024-11-08T22:00:00	4	Temperatura máxima	21.3
163131	7	Sololá	719	Santiago Atitlán	14	Cerro de Oro	7	Julio	2023-07-27T00:00:00	2024-11-08T22:00:00	3	Temperatura mínima	20.4
163132	7	Sololá	719	Santiago Atitlán	14	Cerro de Oro	7	Julio	2023-07-27T00:00:00	2024-11-08T22:00:00	5	Humedad	70
163133	7	Sololá	719	Santiago Atitlán	14	Cerro de Oro	7	Julio	2023-07-27T00:00:00	2024-11-08T22:00:00	6	Velocidad del viento	3.2
163134	7	Sololá	719	Santiago Atitlán	14	Cerro de Oro	7	Julio	2023-07-27T00:00:00	2024-11-08T22:00:00	7	Dirección del viento	3.22
163135	7	Sololá	719	Santiago Atitlán	14	Cerro de Oro	7	Julio	2023-07-27T00:00:00	2024-11-08T22:00:00	1	Precipitación	0
163136	7	Sololá	719	Santiago Atitlán	14	Cerro de Oro	7	Julio	2023-07-27T00:00:00	2024-11-08T22:00:00	8	Radiación solar	0
163137	7	Sololá	719	Santiago Atitlán	14	Cerro de Oro	7	Julio	2023-07-27T00:00:00	2024-11-08T23:00:00	2	Temperatura media	21.2
163138	7	Sololá	719	Santiago Atitlán	14	Cerro de Oro	7	Julio	2023-07-27T00:00:00	2024-11-08T23:00:00	4	Temperatura máxima	21.4
163139	7	Sololá	719	Santiago Atitlán	14	Cerro de Oro	7	Julio	2023-07-27T00:00:00	2024-11-08T23:00:00	3	Temperatura mínima	20.6
163140	7	Sololá	719	Santiago Atitlán	14	Cerro de Oro	7	Julio	2023-07-27T00:00:00	2024-11-08T23:00:00	5	Humedad	66
163141	7	Sololá	719	Santiago Atitlán	14	Cerro de Oro	7	Julio	2023-07-27T00:00:00	2024-11-08T23:00:00	6	Velocidad del viento	4.8
163142	7	Sololá	719	Santiago Atitlán	14	Cerro de Oro	7	Julio	2023-07-27T00:00:00	2024-11-08T23:00:00	7	Dirección del viento	4.83
163143	7	Sololá	719	Santiago Atitlán	14	Cerro de Oro	7	Julio	2023-07-27T00:00:00	2024-11-08T23:00:00	1	Precipitación	0
163144	7	Sololá	719	Santiago Atitlán	14	Cerro de Oro	7	Julio	2023-07-27T00:00:00	2024-11-08T23:00:00	8	Radiación solar	0
163145	7	Sololá	719	Santiago Atitlán	14	Cerro de Oro	7	Julio	2023-07-28T00:00:00	2024-11-08T00:00:00	2	Temperatura media	20
163146	7	Sololá	719	Santiago Atitlán	14	Cerro de Oro	7	Julio	2023-07-28T00:00:00	2024-11-08T00:00:00	4	Temperatura máxima	21.3
163147	7	Sololá	719	Santiago Atitlán	14	Cerro de Oro	7	Julio	2023-07-28T00:00:00	2024-11-08T00:00:00	3	Temperatura mínima	19.9
163148	7	Sololá	719	Santiago Atitlán	14	Cerro de Oro	7	Julio	2023-07-28T00:00:00	2024-11-08T00:00:00	5	Humedad	68
163149	7	Sololá	719	Santiago Atitlán	14	Cerro de Oro	7	Julio	2023-07-28T00:00:00	2024-11-08T00:00:00	6	Velocidad del viento	4.8
163150	7	Sololá	719	Santiago Atitlán	14	Cerro de Oro	7	Julio	2023-07-28T00:00:00	2024-11-08T00:00:00	7	Dirección del viento	4.83
163151	7	Sololá	719	Santiago Atitlán	14	Cerro de Oro	7	Julio	2023-07-28T00:00:00	2024-11-08T00:00:00	1	Precipitación	0
163152	7	Sololá	719	Santiago Atitlán	14	Cerro de Oro	7	Julio	2023-07-28T00:00:00	2024-11-08T00:00:00	8	Radiación solar	0
163153	7	Sololá	719	Santiago Atitlán	14	Cerro de Oro	7	Julio	2023-07-28T00:00:00	2024-11-08T01:00:00	2	Temperatura media	19.9
163154	7	Sololá	719	Santiago Atitlán	14	Cerro de Oro	7	Julio	2023-07-28T00:00:00	2024-11-08T01:00:00	4	Temperatura máxima	20.1
163155	7	Sololá	719	Santiago Atitlán	14	Cerro de Oro	7	Julio	2023-07-28T00:00:00	2024-11-08T01:00:00	3	Temperatura mínima	19.7
163156	7	Sololá	719	Santiago Atitlán	14	Cerro de Oro	7	Julio	2023-07-28T00:00:00	2024-11-08T01:00:00	5	Humedad	67
163157	7	Sololá	719	Santiago Atitlán	14	Cerro de Oro	7	Julio	2023-07-28T00:00:00	2024-11-08T01:00:00	6	Velocidad del viento	3.2
163158	7	Sololá	719	Santiago Atitlán	14	Cerro de Oro	7	Julio	2023-07-28T00:00:00	2024-11-08T01:00:00	7	Dirección del viento	3.22
163159	7	Sololá	719	Santiago Atitlán	14	Cerro de Oro	7	Julio	2023-07-28T00:00:00	2024-11-08T01:00:00	1	Precipitación	0
163160	7	Sololá	719	Santiago Atitlán	14	Cerro de Oro	7	Julio	2023-07-28T00:00:00	2024-11-08T01:00:00	8	Radiación solar	0
163161	7	Sololá	719	Santiago Atitlán	14	Cerro de Oro	7	Julio	2023-07-28T00:00:00	2024-11-08T02:00:00	2	Temperatura media	19.7
163162	7	Sololá	719	Santiago Atitlán	14	Cerro de Oro	7	Julio	2023-07-28T00:00:00	2024-11-08T02:00:00	4	Temperatura máxima	19.9
163163	7	Sololá	719	Santiago Atitlán	14	Cerro de Oro	7	Julio	2023-07-28T00:00:00	2024-11-08T02:00:00	3	Temperatura mínima	19.3
163164	7	Sololá	719	Santiago Atitlán	14	Cerro de Oro	7	Julio	2023-07-28T00:00:00	2024-11-08T02:00:00	5	Humedad	68
163165	7	Sololá	719	Santiago Atitlán	14	Cerro de Oro	7	Julio	2023-07-28T00:00:00	2024-11-08T02:00:00	6	Velocidad del viento	4.8
163166	7	Sololá	719	Santiago Atitlán	14	Cerro de Oro	7	Julio	2023-07-28T00:00:00	2024-11-08T02:00:00	7	Dirección del viento	4.83
163167	7	Sololá	719	Santiago Atitlán	14	Cerro de Oro	7	Julio	2023-07-28T00:00:00	2024-11-08T02:00:00	1	Precipitación	0
163168	7	Sololá	719	Santiago Atitlán	14	Cerro de Oro	7	Julio	2023-07-28T00:00:00	2024-11-08T02:00:00	8	Radiación solar	0
163169	7	Sololá	719	Santiago Atitlán	14	Cerro de Oro	7	Julio	2023-07-28T00:00:00	2024-11-08T03:00:00	2	Temperatura media	19.5
163170	7	Sololá	719	Santiago Atitlán	14	Cerro de Oro	7	Julio	2023-07-28T00:00:00	2024-11-08T03:00:00	4	Temperatura máxima	20.2
163171	7	Sololá	719	Santiago Atitlán	14	Cerro de Oro	7	Julio	2023-07-28T00:00:00	2024-11-08T03:00:00	3	Temperatura mínima	19.3
163172	7	Sololá	719	Santiago Atitlán	14	Cerro de Oro	7	Julio	2023-07-28T00:00:00	2024-11-08T03:00:00	5	Humedad	68
163173	7	Sololá	719	Santiago Atitlán	14	Cerro de Oro	7	Julio	2023-07-28T00:00:00	2024-11-08T03:00:00	6	Velocidad del viento	4.8
163174	7	Sololá	719	Santiago Atitlán	14	Cerro de Oro	7	Julio	2023-07-28T00:00:00	2024-11-08T03:00:00	7	Dirección del viento	4.83
163175	7	Sololá	719	Santiago Atitlán	14	Cerro de Oro	7	Julio	2023-07-28T00:00:00	2024-11-08T03:00:00	1	Precipitación	0
163176	7	Sololá	719	Santiago Atitlán	14	Cerro de Oro	7	Julio	2023-07-28T00:00:00	2024-11-08T03:00:00	8	Radiación solar	0
163177	7	Sololá	719	Santiago Atitlán	14	Cerro de Oro	7	Julio	2023-07-28T00:00:00	2024-11-08T04:00:00	2	Temperatura media	18.4
163178	7	Sololá	719	Santiago Atitlán	14	Cerro de Oro	7	Julio	2023-07-28T00:00:00	2024-11-08T04:00:00	4	Temperatura máxima	19.6
163179	7	Sololá	719	Santiago Atitlán	14	Cerro de Oro	7	Julio	2023-07-28T00:00:00	2024-11-08T04:00:00	3	Temperatura mínima	18.2
163180	7	Sololá	719	Santiago Atitlán	14	Cerro de Oro	7	Julio	2023-07-28T00:00:00	2024-11-08T04:00:00	5	Humedad	70
163181	7	Sololá	719	Santiago Atitlán	14	Cerro de Oro	7	Julio	2023-07-28T00:00:00	2024-11-08T04:00:00	6	Velocidad del viento	6.4
163182	7	Sololá	719	Santiago Atitlán	14	Cerro de Oro	7	Julio	2023-07-28T00:00:00	2024-11-08T04:00:00	7	Dirección del viento	6.44
163183	7	Sololá	719	Santiago Atitlán	14	Cerro de Oro	7	Julio	2023-07-28T00:00:00	2024-11-08T04:00:00	1	Precipitación	0
163184	7	Sololá	719	Santiago Atitlán	14	Cerro de Oro	7	Julio	2023-07-28T00:00:00	2024-11-08T04:00:00	8	Radiación solar	0
163185	7	Sololá	719	Santiago Atitlán	14	Cerro de Oro	7	Julio	2023-07-28T00:00:00	2024-11-08T05:00:00	2	Temperatura media	18.2
163186	7	Sololá	719	Santiago Atitlán	14	Cerro de Oro	7	Julio	2023-07-28T00:00:00	2024-11-08T05:00:00	4	Temperatura máxima	19.1
163187	7	Sololá	719	Santiago Atitlán	14	Cerro de Oro	7	Julio	2023-07-28T00:00:00	2024-11-08T05:00:00	3	Temperatura mínima	18
163188	7	Sololá	719	Santiago Atitlán	14	Cerro de Oro	7	Julio	2023-07-28T00:00:00	2024-11-08T05:00:00	5	Humedad	73
163189	7	Sololá	719	Santiago Atitlán	14	Cerro de Oro	7	Julio	2023-07-28T00:00:00	2024-11-08T05:00:00	6	Velocidad del viento	4.8
163190	7	Sololá	719	Santiago Atitlán	14	Cerro de Oro	7	Julio	2023-07-28T00:00:00	2024-11-08T05:00:00	7	Dirección del viento	4.83
163191	7	Sololá	719	Santiago Atitlán	14	Cerro de Oro	7	Julio	2023-07-28T00:00:00	2024-11-08T05:00:00	1	Precipitación	0
163192	7	Sololá	719	Santiago Atitlán	14	Cerro de Oro	7	Julio	2023-07-28T00:00:00	2024-11-08T05:00:00	8	Radiación solar	0
163193	7	Sololá	719	Santiago Atitlán	14	Cerro de Oro	7	Julio	2023-07-28T00:00:00	2024-11-08T06:00:00	2	Temperatura media	18.7
163194	7	Sololá	719	Santiago Atitlán	14	Cerro de Oro	7	Julio	2023-07-28T00:00:00	2024-11-08T06:00:00	4	Temperatura máxima	19.2
163195	7	Sololá	719	Santiago Atitlán	14	Cerro de Oro	7	Julio	2023-07-28T00:00:00	2024-11-08T06:00:00	3	Temperatura mínima	18.2
163196	7	Sololá	719	Santiago Atitlán	14	Cerro de Oro	7	Julio	2023-07-28T00:00:00	2024-11-08T06:00:00	5	Humedad	72
163197	7	Sololá	719	Santiago Atitlán	14	Cerro de Oro	7	Julio	2023-07-28T00:00:00	2024-11-08T06:00:00	6	Velocidad del viento	4.8
163198	7	Sololá	719	Santiago Atitlán	14	Cerro de Oro	7	Julio	2023-07-28T00:00:00	2024-11-08T06:00:00	7	Dirección del viento	4.83
163199	7	Sololá	719	Santiago Atitlán	14	Cerro de Oro	7	Julio	2023-07-28T00:00:00	2024-11-08T06:00:00	1	Precipitación	0
163200	7	Sololá	719	Santiago Atitlán	14	Cerro de Oro	7	Julio	2023-07-28T00:00:00	2024-11-08T06:00:00	8	Radiación solar	1
163201	7	Sololá	719	Santiago Atitlán	14	Cerro de Oro	7	Julio	2023-07-28T00:00:00	2024-11-08T07:00:00	2	Temperatura media	21.3
163202	7	Sololá	719	Santiago Atitlán	14	Cerro de Oro	7	Julio	2023-07-28T00:00:00	2024-11-08T07:00:00	4	Temperatura máxima	21.3
163203	7	Sololá	719	Santiago Atitlán	14	Cerro de Oro	7	Julio	2023-07-28T00:00:00	2024-11-08T07:00:00	3	Temperatura mínima	18.3
163204	7	Sololá	719	Santiago Atitlán	14	Cerro de Oro	7	Julio	2023-07-28T00:00:00	2024-11-08T07:00:00	5	Humedad	66
163205	7	Sololá	719	Santiago Atitlán	14	Cerro de Oro	7	Julio	2023-07-28T00:00:00	2024-11-08T07:00:00	6	Velocidad del viento	4.8
163206	7	Sololá	719	Santiago Atitlán	14	Cerro de Oro	7	Julio	2023-07-28T00:00:00	2024-11-08T07:00:00	7	Dirección del viento	4.83
163207	7	Sololá	719	Santiago Atitlán	14	Cerro de Oro	7	Julio	2023-07-28T00:00:00	2024-11-08T07:00:00	1	Precipitación	0
163208	7	Sololá	719	Santiago Atitlán	14	Cerro de Oro	7	Julio	2023-07-28T00:00:00	2024-11-08T07:00:00	8	Radiación solar	73
163209	7	Sololá	719	Santiago Atitlán	14	Cerro de Oro	7	Julio	2023-07-28T00:00:00	2024-11-08T08:00:00	2	Temperatura media	22.6
163210	7	Sololá	719	Santiago Atitlán	14	Cerro de Oro	7	Julio	2023-07-28T00:00:00	2024-11-08T08:00:00	4	Temperatura máxima	22.6
163211	7	Sololá	719	Santiago Atitlán	14	Cerro de Oro	7	Julio	2023-07-28T00:00:00	2024-11-08T08:00:00	3	Temperatura mínima	21.3
163212	7	Sololá	719	Santiago Atitlán	14	Cerro de Oro	7	Julio	2023-07-28T00:00:00	2024-11-08T08:00:00	5	Humedad	65
163213	7	Sololá	719	Santiago Atitlán	14	Cerro de Oro	7	Julio	2023-07-28T00:00:00	2024-11-08T08:00:00	6	Velocidad del viento	6.4
163214	7	Sololá	719	Santiago Atitlán	14	Cerro de Oro	7	Julio	2023-07-28T00:00:00	2024-11-08T08:00:00	7	Dirección del viento	6.44
163215	7	Sololá	719	Santiago Atitlán	14	Cerro de Oro	7	Julio	2023-07-28T00:00:00	2024-11-08T08:00:00	1	Precipitación	0
163216	7	Sololá	719	Santiago Atitlán	14	Cerro de Oro	7	Julio	2023-07-28T00:00:00	2024-11-08T08:00:00	8	Radiación solar	289
163217	7	Sololá	719	Santiago Atitlán	14	Cerro de Oro	7	Julio	2023-07-28T00:00:00	2024-11-08T09:00:00	2	Temperatura media	23.1
163218	7	Sololá	719	Santiago Atitlán	14	Cerro de Oro	7	Julio	2023-07-28T00:00:00	2024-11-08T09:00:00	4	Temperatura máxima	23.3
163219	7	Sololá	719	Santiago Atitlán	14	Cerro de Oro	7	Julio	2023-07-28T00:00:00	2024-11-08T09:00:00	3	Temperatura mínima	22.5
163220	7	Sololá	719	Santiago Atitlán	14	Cerro de Oro	7	Julio	2023-07-28T00:00:00	2024-11-08T09:00:00	5	Humedad	59
163221	7	Sololá	719	Santiago Atitlán	14	Cerro de Oro	7	Julio	2023-07-28T00:00:00	2024-11-08T09:00:00	6	Velocidad del viento	9.7
163222	7	Sololá	719	Santiago Atitlán	14	Cerro de Oro	7	Julio	2023-07-28T00:00:00	2024-11-08T09:00:00	7	Dirección del viento	9.66
163223	7	Sololá	719	Santiago Atitlán	14	Cerro de Oro	7	Julio	2023-07-28T00:00:00	2024-11-08T09:00:00	1	Precipitación	0
163224	7	Sololá	719	Santiago Atitlán	14	Cerro de Oro	7	Julio	2023-07-28T00:00:00	2024-11-08T09:00:00	8	Radiación solar	518
163225	7	Sololá	719	Santiago Atitlán	14	Cerro de Oro	7	Julio	2023-07-28T00:00:00	2024-11-08T10:00:00	2	Temperatura media	24.6
163226	7	Sololá	719	Santiago Atitlán	14	Cerro de Oro	7	Julio	2023-07-28T00:00:00	2024-11-08T10:00:00	4	Temperatura máxima	24.6
163227	7	Sololá	719	Santiago Atitlán	14	Cerro de Oro	7	Julio	2023-07-28T00:00:00	2024-11-08T10:00:00	3	Temperatura mínima	23.1
163228	7	Sololá	719	Santiago Atitlán	14	Cerro de Oro	7	Julio	2023-07-28T00:00:00	2024-11-08T10:00:00	5	Humedad	59
163229	7	Sololá	719	Santiago Atitlán	14	Cerro de Oro	7	Julio	2023-07-28T00:00:00	2024-11-08T10:00:00	6	Velocidad del viento	9.7
163230	7	Sololá	719	Santiago Atitlán	14	Cerro de Oro	7	Julio	2023-07-28T00:00:00	2024-11-08T10:00:00	7	Dirección del viento	9.66
163231	7	Sololá	719	Santiago Atitlán	14	Cerro de Oro	7	Julio	2023-07-28T00:00:00	2024-11-08T10:00:00	1	Precipitación	0
163232	7	Sololá	719	Santiago Atitlán	14	Cerro de Oro	7	Julio	2023-07-28T00:00:00	2024-11-08T10:00:00	8	Radiación solar	697
163233	7	Sololá	719	Santiago Atitlán	14	Cerro de Oro	7	Julio	2023-07-28T00:00:00	2024-11-08T11:00:00	2	Temperatura media	24.7
163234	7	Sololá	719	Santiago Atitlán	14	Cerro de Oro	7	Julio	2023-07-28T00:00:00	2024-11-08T11:00:00	4	Temperatura máxima	25
163235	7	Sololá	719	Santiago Atitlán	14	Cerro de Oro	7	Julio	2023-07-28T00:00:00	2024-11-08T11:00:00	3	Temperatura mínima	24.4
163236	7	Sololá	719	Santiago Atitlán	14	Cerro de Oro	7	Julio	2023-07-28T00:00:00	2024-11-08T11:00:00	5	Humedad	61
163237	7	Sololá	719	Santiago Atitlán	14	Cerro de Oro	7	Julio	2023-07-28T00:00:00	2024-11-08T11:00:00	6	Velocidad del viento	12.9
163238	7	Sololá	719	Santiago Atitlán	14	Cerro de Oro	7	Julio	2023-07-28T00:00:00	2024-11-08T11:00:00	7	Dirección del viento	12.87
163239	7	Sololá	719	Santiago Atitlán	14	Cerro de Oro	7	Julio	2023-07-28T00:00:00	2024-11-08T11:00:00	1	Precipitación	0
163240	7	Sololá	719	Santiago Atitlán	14	Cerro de Oro	7	Julio	2023-07-28T00:00:00	2024-11-08T11:00:00	8	Radiación solar	844
163241	7	Sololá	719	Santiago Atitlán	14	Cerro de Oro	7	Julio	2023-07-28T00:00:00	2024-11-08T12:00:00	2	Temperatura media	25.3
163242	7	Sololá	719	Santiago Atitlán	14	Cerro de Oro	7	Julio	2023-07-28T00:00:00	2024-11-08T12:00:00	4	Temperatura máxima	25.3
163243	7	Sololá	719	Santiago Atitlán	14	Cerro de Oro	7	Julio	2023-07-28T00:00:00	2024-11-08T12:00:00	3	Temperatura mínima	24.7
163244	7	Sololá	719	Santiago Atitlán	14	Cerro de Oro	7	Julio	2023-07-28T00:00:00	2024-11-08T12:00:00	5	Humedad	58
163245	7	Sololá	719	Santiago Atitlán	14	Cerro de Oro	7	Julio	2023-07-28T00:00:00	2024-11-08T12:00:00	6	Velocidad del viento	11.3
163246	7	Sololá	719	Santiago Atitlán	14	Cerro de Oro	7	Julio	2023-07-28T00:00:00	2024-11-08T12:00:00	7	Dirección del viento	11.27
163247	7	Sololá	719	Santiago Atitlán	14	Cerro de Oro	7	Julio	2023-07-28T00:00:00	2024-11-08T12:00:00	1	Precipitación	0
163248	7	Sololá	719	Santiago Atitlán	14	Cerro de Oro	7	Julio	2023-07-28T00:00:00	2024-11-08T12:00:00	8	Radiación solar	739
163249	7	Sololá	719	Santiago Atitlán	14	Cerro de Oro	7	Julio	2023-07-28T00:00:00	2024-11-08T13:00:00	2	Temperatura media	26.7
163250	7	Sololá	719	Santiago Atitlán	14	Cerro de Oro	7	Julio	2023-07-28T00:00:00	2024-11-08T13:00:00	4	Temperatura máxima	26.8
163251	7	Sololá	719	Santiago Atitlán	14	Cerro de Oro	7	Julio	2023-07-28T00:00:00	2024-11-08T13:00:00	3	Temperatura mínima	25.3
163252	7	Sololá	719	Santiago Atitlán	14	Cerro de Oro	7	Julio	2023-07-28T00:00:00	2024-11-08T13:00:00	5	Humedad	51
163253	7	Sololá	719	Santiago Atitlán	14	Cerro de Oro	7	Julio	2023-07-28T00:00:00	2024-11-08T13:00:00	6	Velocidad del viento	8
163254	7	Sololá	719	Santiago Atitlán	14	Cerro de Oro	7	Julio	2023-07-28T00:00:00	2024-11-08T13:00:00	7	Dirección del viento	8.05
163255	7	Sololá	719	Santiago Atitlán	14	Cerro de Oro	7	Julio	2023-07-28T00:00:00	2024-11-08T13:00:00	1	Precipitación	0
163256	7	Sololá	719	Santiago Atitlán	14	Cerro de Oro	7	Julio	2023-07-28T00:00:00	2024-11-08T13:00:00	8	Radiación solar	938
163257	7	Sololá	719	Santiago Atitlán	14	Cerro de Oro	7	Julio	2023-07-28T00:00:00	2024-11-08T14:00:00	2	Temperatura media	27.3
163258	7	Sololá	719	Santiago Atitlán	14	Cerro de Oro	7	Julio	2023-07-28T00:00:00	2024-11-08T14:00:00	4	Temperatura máxima	27.3
163259	7	Sololá	719	Santiago Atitlán	14	Cerro de Oro	7	Julio	2023-07-28T00:00:00	2024-11-08T14:00:00	3	Temperatura mínima	26.7
163260	7	Sololá	719	Santiago Atitlán	14	Cerro de Oro	7	Julio	2023-07-28T00:00:00	2024-11-08T14:00:00	5	Humedad	48
163261	7	Sololá	719	Santiago Atitlán	14	Cerro de Oro	7	Julio	2023-07-28T00:00:00	2024-11-08T14:00:00	6	Velocidad del viento	12.9
163262	7	Sololá	719	Santiago Atitlán	14	Cerro de Oro	7	Julio	2023-07-28T00:00:00	2024-11-08T14:00:00	7	Dirección del viento	12.87
163263	7	Sololá	719	Santiago Atitlán	14	Cerro de Oro	7	Julio	2023-07-28T00:00:00	2024-11-08T14:00:00	1	Precipitación	0
163264	7	Sololá	719	Santiago Atitlán	14	Cerro de Oro	7	Julio	2023-07-28T00:00:00	2024-11-08T14:00:00	8	Radiación solar	874
163265	7	Sololá	719	Santiago Atitlán	14	Cerro de Oro	7	Julio	2023-07-28T00:00:00	2024-11-08T15:00:00	2	Temperatura media	26.7
163266	7	Sololá	719	Santiago Atitlán	14	Cerro de Oro	7	Julio	2023-07-28T00:00:00	2024-11-08T15:00:00	4	Temperatura máxima	27.4
163267	7	Sololá	719	Santiago Atitlán	14	Cerro de Oro	7	Julio	2023-07-28T00:00:00	2024-11-08T15:00:00	3	Temperatura mínima	26.1
163268	7	Sololá	719	Santiago Atitlán	14	Cerro de Oro	7	Julio	2023-07-28T00:00:00	2024-11-08T15:00:00	5	Humedad	61
163269	7	Sololá	719	Santiago Atitlán	14	Cerro de Oro	7	Julio	2023-07-28T00:00:00	2024-11-08T15:00:00	6	Velocidad del viento	11.3
163270	7	Sololá	719	Santiago Atitlán	14	Cerro de Oro	7	Julio	2023-07-28T00:00:00	2024-11-08T15:00:00	7	Dirección del viento	11.27
163271	7	Sololá	719	Santiago Atitlán	14	Cerro de Oro	7	Julio	2023-07-28T00:00:00	2024-11-08T15:00:00	1	Precipitación	0
163272	7	Sololá	719	Santiago Atitlán	14	Cerro de Oro	7	Julio	2023-07-28T00:00:00	2024-11-08T15:00:00	8	Radiación solar	751
163273	7	Sololá	719	Santiago Atitlán	14	Cerro de Oro	7	Julio	2023-07-28T00:00:00	2024-11-08T16:00:00	2	Temperatura media	26.2
163274	7	Sololá	719	Santiago Atitlán	14	Cerro de Oro	7	Julio	2023-07-28T00:00:00	2024-11-08T16:00:00	4	Temperatura máxima	26.9
163275	7	Sololá	719	Santiago Atitlán	14	Cerro de Oro	7	Julio	2023-07-28T00:00:00	2024-11-08T16:00:00	3	Temperatura mínima	26
163276	7	Sololá	719	Santiago Atitlán	14	Cerro de Oro	7	Julio	2023-07-28T00:00:00	2024-11-08T16:00:00	5	Humedad	59
163277	7	Sololá	719	Santiago Atitlán	14	Cerro de Oro	7	Julio	2023-07-28T00:00:00	2024-11-08T16:00:00	6	Velocidad del viento	8
163278	7	Sololá	719	Santiago Atitlán	14	Cerro de Oro	7	Julio	2023-07-28T00:00:00	2024-11-08T16:00:00	7	Dirección del viento	8.05
163279	7	Sololá	719	Santiago Atitlán	14	Cerro de Oro	7	Julio	2023-07-28T00:00:00	2024-11-08T16:00:00	1	Precipitación	0
163280	7	Sololá	719	Santiago Atitlán	14	Cerro de Oro	7	Julio	2023-07-28T00:00:00	2024-11-08T16:00:00	8	Radiación solar	481
163281	7	Sololá	719	Santiago Atitlán	14	Cerro de Oro	7	Julio	2023-07-28T00:00:00	2024-11-08T17:00:00	2	Temperatura media	24.2
163282	7	Sololá	719	Santiago Atitlán	14	Cerro de Oro	7	Julio	2023-07-28T00:00:00	2024-11-08T17:00:00	4	Temperatura máxima	26.3
163283	7	Sololá	719	Santiago Atitlán	14	Cerro de Oro	7	Julio	2023-07-28T00:00:00	2024-11-08T17:00:00	3	Temperatura mínima	24.2
163284	7	Sololá	719	Santiago Atitlán	14	Cerro de Oro	7	Julio	2023-07-28T00:00:00	2024-11-08T17:00:00	5	Humedad	71
163285	7	Sololá	719	Santiago Atitlán	14	Cerro de Oro	7	Julio	2023-07-28T00:00:00	2024-11-08T17:00:00	6	Velocidad del viento	6.4
163286	7	Sololá	719	Santiago Atitlán	14	Cerro de Oro	7	Julio	2023-07-28T00:00:00	2024-11-08T17:00:00	7	Dirección del viento	6.44
163287	7	Sololá	719	Santiago Atitlán	14	Cerro de Oro	7	Julio	2023-07-28T00:00:00	2024-11-08T17:00:00	1	Precipitación	0
163288	7	Sololá	719	Santiago Atitlán	14	Cerro de Oro	7	Julio	2023-07-28T00:00:00	2024-11-08T17:00:00	8	Radiación solar	173
163289	7	Sololá	719	Santiago Atitlán	14	Cerro de Oro	7	Julio	2023-07-28T00:00:00	2024-11-08T18:00:00	2	Temperatura media	24.6
163290	7	Sololá	719	Santiago Atitlán	14	Cerro de Oro	7	Julio	2023-07-28T00:00:00	2024-11-08T18:00:00	4	Temperatura máxima	25.2
163291	7	Sololá	719	Santiago Atitlán	14	Cerro de Oro	7	Julio	2023-07-28T00:00:00	2024-11-08T18:00:00	3	Temperatura mínima	24.2
163292	7	Sololá	719	Santiago Atitlán	14	Cerro de Oro	7	Julio	2023-07-28T00:00:00	2024-11-08T18:00:00	5	Humedad	69
163293	7	Sololá	719	Santiago Atitlán	14	Cerro de Oro	7	Julio	2023-07-28T00:00:00	2024-11-08T18:00:00	6	Velocidad del viento	4.8
163294	7	Sololá	719	Santiago Atitlán	14	Cerro de Oro	7	Julio	2023-07-28T00:00:00	2024-11-08T18:00:00	7	Dirección del viento	4.83
163295	7	Sololá	719	Santiago Atitlán	14	Cerro de Oro	7	Julio	2023-07-28T00:00:00	2024-11-08T18:00:00	1	Precipitación	0
163296	7	Sololá	719	Santiago Atitlán	14	Cerro de Oro	7	Julio	2023-07-28T00:00:00	2024-11-08T18:00:00	8	Radiación solar	110
163297	7	Sololá	719	Santiago Atitlán	14	Cerro de Oro	7	Julio	2023-07-28T00:00:00	2024-11-08T19:00:00	2	Temperatura media	22.9
163298	7	Sololá	719	Santiago Atitlán	14	Cerro de Oro	7	Julio	2023-07-28T00:00:00	2024-11-08T19:00:00	4	Temperatura máxima	24.6
163299	7	Sololá	719	Santiago Atitlán	14	Cerro de Oro	7	Julio	2023-07-28T00:00:00	2024-11-08T19:00:00	3	Temperatura mínima	22.9
163300	7	Sololá	719	Santiago Atitlán	14	Cerro de Oro	7	Julio	2023-07-28T00:00:00	2024-11-08T19:00:00	5	Humedad	72
163301	7	Sololá	719	Santiago Atitlán	14	Cerro de Oro	7	Julio	2023-07-28T00:00:00	2024-11-08T19:00:00	6	Velocidad del viento	3.2
163302	7	Sololá	719	Santiago Atitlán	14	Cerro de Oro	7	Julio	2023-07-28T00:00:00	2024-11-08T19:00:00	7	Dirección del viento	3.22
163303	7	Sololá	719	Santiago Atitlán	14	Cerro de Oro	7	Julio	2023-07-28T00:00:00	2024-11-08T19:00:00	1	Precipitación	0
163304	7	Sololá	719	Santiago Atitlán	14	Cerro de Oro	7	Julio	2023-07-28T00:00:00	2024-11-08T19:00:00	8	Radiación solar	0
163305	7	Sololá	719	Santiago Atitlán	14	Cerro de Oro	7	Julio	2023-07-28T00:00:00	2024-11-08T20:00:00	2	Temperatura media	22.2
163306	7	Sololá	719	Santiago Atitlán	14	Cerro de Oro	7	Julio	2023-07-28T00:00:00	2024-11-08T20:00:00	4	Temperatura máxima	22.9
163307	7	Sololá	719	Santiago Atitlán	14	Cerro de Oro	7	Julio	2023-07-28T00:00:00	2024-11-08T20:00:00	3	Temperatura mínima	22
163308	7	Sololá	719	Santiago Atitlán	14	Cerro de Oro	7	Julio	2023-07-28T00:00:00	2024-11-08T20:00:00	5	Humedad	75
163309	7	Sololá	719	Santiago Atitlán	14	Cerro de Oro	7	Julio	2023-07-28T00:00:00	2024-11-08T20:00:00	6	Velocidad del viento	1.6
163310	7	Sololá	719	Santiago Atitlán	14	Cerro de Oro	7	Julio	2023-07-28T00:00:00	2024-11-08T20:00:00	7	Dirección del viento	1.61
163311	7	Sololá	719	Santiago Atitlán	14	Cerro de Oro	7	Julio	2023-07-28T00:00:00	2024-11-08T20:00:00	1	Precipitación	0
163312	7	Sololá	719	Santiago Atitlán	14	Cerro de Oro	7	Julio	2023-07-28T00:00:00	2024-11-08T20:00:00	8	Radiación solar	0
163313	7	Sololá	719	Santiago Atitlán	14	Cerro de Oro	7	Julio	2023-07-28T00:00:00	2024-11-08T21:00:00	2	Temperatura media	22.2
163314	7	Sololá	719	Santiago Atitlán	14	Cerro de Oro	7	Julio	2023-07-28T00:00:00	2024-11-08T21:00:00	4	Temperatura máxima	22.6
163315	7	Sololá	719	Santiago Atitlán	14	Cerro de Oro	7	Julio	2023-07-28T00:00:00	2024-11-08T21:00:00	3	Temperatura mínima	22.2
163316	7	Sololá	719	Santiago Atitlán	14	Cerro de Oro	7	Julio	2023-07-28T00:00:00	2024-11-08T21:00:00	5	Humedad	72
163317	7	Sololá	719	Santiago Atitlán	14	Cerro de Oro	7	Julio	2023-07-28T00:00:00	2024-11-08T21:00:00	6	Velocidad del viento	3.2
163318	7	Sololá	719	Santiago Atitlán	14	Cerro de Oro	7	Julio	2023-07-28T00:00:00	2024-11-08T21:00:00	7	Dirección del viento	3.22
163319	7	Sololá	719	Santiago Atitlán	14	Cerro de Oro	7	Julio	2023-07-28T00:00:00	2024-11-08T21:00:00	1	Precipitación	0
163320	7	Sololá	719	Santiago Atitlán	14	Cerro de Oro	7	Julio	2023-07-28T00:00:00	2024-11-08T21:00:00	8	Radiación solar	0
163321	7	Sololá	719	Santiago Atitlán	14	Cerro de Oro	7	Julio	2023-07-28T00:00:00	2024-11-08T22:00:00	2	Temperatura media	22.2
163322	7	Sololá	719	Santiago Atitlán	14	Cerro de Oro	7	Julio	2023-07-28T00:00:00	2024-11-08T22:00:00	4	Temperatura máxima	22.2
163323	7	Sololá	719	Santiago Atitlán	14	Cerro de Oro	7	Julio	2023-07-28T00:00:00	2024-11-08T22:00:00	3	Temperatura mínima	21.7
163324	7	Sololá	719	Santiago Atitlán	14	Cerro de Oro	7	Julio	2023-07-28T00:00:00	2024-11-08T22:00:00	5	Humedad	75
163325	7	Sololá	719	Santiago Atitlán	14	Cerro de Oro	7	Julio	2023-07-28T00:00:00	2024-11-08T22:00:00	6	Velocidad del viento	3.2
163326	7	Sololá	719	Santiago Atitlán	14	Cerro de Oro	7	Julio	2023-07-28T00:00:00	2024-11-08T22:00:00	7	Dirección del viento	3.22
163327	7	Sololá	719	Santiago Atitlán	14	Cerro de Oro	7	Julio	2023-07-28T00:00:00	2024-11-08T22:00:00	1	Precipitación	0
163328	7	Sololá	719	Santiago Atitlán	14	Cerro de Oro	7	Julio	2023-07-28T00:00:00	2024-11-08T22:00:00	8	Radiación solar	0
163329	7	Sololá	719	Santiago Atitlán	14	Cerro de Oro	7	Julio	2023-07-28T00:00:00	2024-11-08T23:00:00	2	Temperatura media	21.3
163330	7	Sololá	719	Santiago Atitlán	14	Cerro de Oro	7	Julio	2023-07-28T00:00:00	2024-11-08T23:00:00	4	Temperatura máxima	22.2
163331	7	Sololá	719	Santiago Atitlán	14	Cerro de Oro	7	Julio	2023-07-28T00:00:00	2024-11-08T23:00:00	3	Temperatura mínima	21.3
163332	7	Sololá	719	Santiago Atitlán	14	Cerro de Oro	7	Julio	2023-07-28T00:00:00	2024-11-08T23:00:00	5	Humedad	76
163333	7	Sololá	719	Santiago Atitlán	14	Cerro de Oro	7	Julio	2023-07-28T00:00:00	2024-11-08T23:00:00	6	Velocidad del viento	8
163334	7	Sololá	719	Santiago Atitlán	14	Cerro de Oro	7	Julio	2023-07-28T00:00:00	2024-11-08T23:00:00	7	Dirección del viento	8.05
163335	7	Sololá	719	Santiago Atitlán	14	Cerro de Oro	7	Julio	2023-07-28T00:00:00	2024-11-08T23:00:00	1	Precipitación	0
163336	7	Sololá	719	Santiago Atitlán	14	Cerro de Oro	7	Julio	2023-07-28T00:00:00	2024-11-08T23:00:00	8	Radiación solar	0
163337	7	Sololá	719	Santiago Atitlán	14	Cerro de Oro	7	Julio	2023-07-29T00:00:00	2024-11-08T00:00:00	2	Temperatura media	21.3
163338	7	Sololá	719	Santiago Atitlán	14	Cerro de Oro	7	Julio	2023-07-29T00:00:00	2024-11-08T00:00:00	4	Temperatura máxima	21.5
163339	7	Sololá	719	Santiago Atitlán	14	Cerro de Oro	7	Julio	2023-07-29T00:00:00	2024-11-08T00:00:00	3	Temperatura mínima	21
163340	7	Sololá	719	Santiago Atitlán	14	Cerro de Oro	7	Julio	2023-07-29T00:00:00	2024-11-08T00:00:00	5	Humedad	71
163341	7	Sololá	719	Santiago Atitlán	14	Cerro de Oro	7	Julio	2023-07-29T00:00:00	2024-11-08T00:00:00	6	Velocidad del viento	4.8
163342	7	Sololá	719	Santiago Atitlán	14	Cerro de Oro	7	Julio	2023-07-29T00:00:00	2024-11-08T00:00:00	7	Dirección del viento	4.83
163343	7	Sololá	719	Santiago Atitlán	14	Cerro de Oro	7	Julio	2023-07-29T00:00:00	2024-11-08T00:00:00	1	Precipitación	0
163344	7	Sololá	719	Santiago Atitlán	14	Cerro de Oro	7	Julio	2023-07-29T00:00:00	2024-11-08T00:00:00	8	Radiación solar	0
163345	7	Sololá	719	Santiago Atitlán	14	Cerro de Oro	7	Julio	2023-07-29T00:00:00	2024-11-08T01:00:00	2	Temperatura media	21.3
163346	7	Sololá	719	Santiago Atitlán	14	Cerro de Oro	7	Julio	2023-07-29T00:00:00	2024-11-08T01:00:00	4	Temperatura máxima	21.6
163347	7	Sololá	719	Santiago Atitlán	14	Cerro de Oro	7	Julio	2023-07-29T00:00:00	2024-11-08T01:00:00	3	Temperatura mínima	21.3
163348	7	Sololá	719	Santiago Atitlán	14	Cerro de Oro	7	Julio	2023-07-29T00:00:00	2024-11-08T01:00:00	5	Humedad	69
163349	7	Sololá	719	Santiago Atitlán	14	Cerro de Oro	7	Julio	2023-07-29T00:00:00	2024-11-08T01:00:00	6	Velocidad del viento	6.4
163350	7	Sololá	719	Santiago Atitlán	14	Cerro de Oro	7	Julio	2023-07-29T00:00:00	2024-11-08T01:00:00	7	Dirección del viento	6.44
163351	7	Sololá	719	Santiago Atitlán	14	Cerro de Oro	7	Julio	2023-07-29T00:00:00	2024-11-08T01:00:00	1	Precipitación	0
163352	7	Sololá	719	Santiago Atitlán	14	Cerro de Oro	7	Julio	2023-07-29T00:00:00	2024-11-08T01:00:00	8	Radiación solar	0
163353	7	Sololá	719	Santiago Atitlán	14	Cerro de Oro	7	Julio	2023-07-29T00:00:00	2024-11-08T02:00:00	2	Temperatura media	21.3
163354	7	Sololá	719	Santiago Atitlán	14	Cerro de Oro	7	Julio	2023-07-29T00:00:00	2024-11-08T02:00:00	4	Temperatura máxima	21.4
163355	7	Sololá	719	Santiago Atitlán	14	Cerro de Oro	7	Julio	2023-07-29T00:00:00	2024-11-08T02:00:00	3	Temperatura mínima	21.2
163356	7	Sololá	719	Santiago Atitlán	14	Cerro de Oro	7	Julio	2023-07-29T00:00:00	2024-11-08T02:00:00	5	Humedad	71
163357	7	Sololá	719	Santiago Atitlán	14	Cerro de Oro	7	Julio	2023-07-29T00:00:00	2024-11-08T02:00:00	6	Velocidad del viento	4.8
163358	7	Sololá	719	Santiago Atitlán	14	Cerro de Oro	7	Julio	2023-07-29T00:00:00	2024-11-08T02:00:00	7	Dirección del viento	4.83
163359	7	Sololá	719	Santiago Atitlán	14	Cerro de Oro	7	Julio	2023-07-29T00:00:00	2024-11-08T02:00:00	1	Precipitación	0
163360	7	Sololá	719	Santiago Atitlán	14	Cerro de Oro	7	Julio	2023-07-29T00:00:00	2024-11-08T02:00:00	8	Radiación solar	0
163361	7	Sololá	719	Santiago Atitlán	14	Cerro de Oro	7	Julio	2023-07-29T00:00:00	2024-11-08T03:00:00	2	Temperatura media	19.8
163362	7	Sololá	719	Santiago Atitlán	14	Cerro de Oro	7	Julio	2023-07-29T00:00:00	2024-11-08T03:00:00	4	Temperatura máxima	21.4
163363	7	Sololá	719	Santiago Atitlán	14	Cerro de Oro	7	Julio	2023-07-29T00:00:00	2024-11-08T03:00:00	3	Temperatura mínima	19.2
163364	7	Sololá	719	Santiago Atitlán	14	Cerro de Oro	7	Julio	2023-07-29T00:00:00	2024-11-08T03:00:00	5	Humedad	80
163365	7	Sololá	719	Santiago Atitlán	14	Cerro de Oro	7	Julio	2023-07-29T00:00:00	2024-11-08T03:00:00	6	Velocidad del viento	6.4
163366	7	Sololá	719	Santiago Atitlán	14	Cerro de Oro	7	Julio	2023-07-29T00:00:00	2024-11-08T03:00:00	7	Dirección del viento	6.44
163367	7	Sololá	719	Santiago Atitlán	14	Cerro de Oro	7	Julio	2023-07-29T00:00:00	2024-11-08T03:00:00	1	Precipitación	0.4
163368	7	Sololá	719	Santiago Atitlán	14	Cerro de Oro	7	Julio	2023-07-29T00:00:00	2024-11-08T03:00:00	8	Radiación solar	0
163369	7	Sololá	719	Santiago Atitlán	14	Cerro de Oro	7	Julio	2023-07-29T00:00:00	2024-11-08T04:00:00	2	Temperatura media	19.2
163370	7	Sololá	719	Santiago Atitlán	14	Cerro de Oro	7	Julio	2023-07-29T00:00:00	2024-11-08T04:00:00	4	Temperatura máxima	19.8
163371	7	Sololá	719	Santiago Atitlán	14	Cerro de Oro	7	Julio	2023-07-29T00:00:00	2024-11-08T04:00:00	3	Temperatura mínima	19.2
163372	7	Sololá	719	Santiago Atitlán	14	Cerro de Oro	7	Julio	2023-07-29T00:00:00	2024-11-08T04:00:00	5	Humedad	82
163373	7	Sololá	719	Santiago Atitlán	14	Cerro de Oro	7	Julio	2023-07-29T00:00:00	2024-11-08T04:00:00	6	Velocidad del viento	8
163374	7	Sololá	719	Santiago Atitlán	14	Cerro de Oro	7	Julio	2023-07-29T00:00:00	2024-11-08T04:00:00	7	Dirección del viento	8.05
163375	7	Sololá	719	Santiago Atitlán	14	Cerro de Oro	7	Julio	2023-07-29T00:00:00	2024-11-08T04:00:00	1	Precipitación	0.4
163376	7	Sololá	719	Santiago Atitlán	14	Cerro de Oro	7	Julio	2023-07-29T00:00:00	2024-11-08T04:00:00	8	Radiación solar	0
163377	7	Sololá	719	Santiago Atitlán	14	Cerro de Oro	7	Julio	2023-07-29T00:00:00	2024-11-08T05:00:00	2	Temperatura media	17.9
163378	7	Sololá	719	Santiago Atitlán	14	Cerro de Oro	7	Julio	2023-07-29T00:00:00	2024-11-08T05:00:00	4	Temperatura máxima	19.2
163379	7	Sololá	719	Santiago Atitlán	14	Cerro de Oro	7	Julio	2023-07-29T00:00:00	2024-11-08T05:00:00	3	Temperatura mínima	17.9
163380	7	Sololá	719	Santiago Atitlán	14	Cerro de Oro	7	Julio	2023-07-29T00:00:00	2024-11-08T05:00:00	5	Humedad	87
163381	7	Sololá	719	Santiago Atitlán	14	Cerro de Oro	7	Julio	2023-07-29T00:00:00	2024-11-08T05:00:00	6	Velocidad del viento	6.4
163382	7	Sololá	719	Santiago Atitlán	14	Cerro de Oro	7	Julio	2023-07-29T00:00:00	2024-11-08T05:00:00	7	Dirección del viento	6.44
163383	7	Sololá	719	Santiago Atitlán	14	Cerro de Oro	7	Julio	2023-07-29T00:00:00	2024-11-08T05:00:00	1	Precipitación	2.2
163384	7	Sololá	719	Santiago Atitlán	14	Cerro de Oro	7	Julio	2023-07-29T00:00:00	2024-11-08T05:00:00	8	Radiación solar	0
163385	7	Sololá	719	Santiago Atitlán	14	Cerro de Oro	7	Julio	2023-07-29T00:00:00	2024-11-08T06:00:00	2	Temperatura media	17.7
163386	7	Sololá	719	Santiago Atitlán	14	Cerro de Oro	7	Julio	2023-07-29T00:00:00	2024-11-08T06:00:00	4	Temperatura máxima	17.9
163387	7	Sololá	719	Santiago Atitlán	14	Cerro de Oro	7	Julio	2023-07-29T00:00:00	2024-11-08T06:00:00	3	Temperatura mínima	17.6
163388	7	Sololá	719	Santiago Atitlán	14	Cerro de Oro	7	Julio	2023-07-29T00:00:00	2024-11-08T06:00:00	5	Humedad	90
163389	7	Sololá	719	Santiago Atitlán	14	Cerro de Oro	7	Julio	2023-07-29T00:00:00	2024-11-08T06:00:00	6	Velocidad del viento	3.2
163390	7	Sololá	719	Santiago Atitlán	14	Cerro de Oro	7	Julio	2023-07-29T00:00:00	2024-11-08T06:00:00	7	Dirección del viento	3.22
163391	7	Sololá	719	Santiago Atitlán	14	Cerro de Oro	7	Julio	2023-07-29T00:00:00	2024-11-08T06:00:00	1	Precipitación	1.4
163392	7	Sololá	719	Santiago Atitlán	14	Cerro de Oro	7	Julio	2023-07-29T00:00:00	2024-11-08T06:00:00	8	Radiación solar	1
163393	7	Sololá	719	Santiago Atitlán	14	Cerro de Oro	7	Julio	2023-07-29T00:00:00	2024-11-08T07:00:00	2	Temperatura media	18.6
163394	7	Sololá	719	Santiago Atitlán	14	Cerro de Oro	7	Julio	2023-07-29T00:00:00	2024-11-08T07:00:00	4	Temperatura máxima	18.7
163395	7	Sololá	719	Santiago Atitlán	14	Cerro de Oro	7	Julio	2023-07-29T00:00:00	2024-11-08T07:00:00	3	Temperatura mínima	17.7
163396	7	Sololá	719	Santiago Atitlán	14	Cerro de Oro	7	Julio	2023-07-29T00:00:00	2024-11-08T07:00:00	5	Humedad	86
163397	7	Sololá	719	Santiago Atitlán	14	Cerro de Oro	7	Julio	2023-07-29T00:00:00	2024-11-08T07:00:00	6	Velocidad del viento	3.2
163398	7	Sololá	719	Santiago Atitlán	14	Cerro de Oro	7	Julio	2023-07-29T00:00:00	2024-11-08T07:00:00	7	Dirección del viento	3.22
163399	7	Sololá	719	Santiago Atitlán	14	Cerro de Oro	7	Julio	2023-07-29T00:00:00	2024-11-08T07:00:00	1	Precipitación	0.2
163400	7	Sololá	719	Santiago Atitlán	14	Cerro de Oro	7	Julio	2023-07-29T00:00:00	2024-11-08T07:00:00	8	Radiación solar	23
163401	7	Sololá	719	Santiago Atitlán	14	Cerro de Oro	7	Julio	2023-07-29T00:00:00	2024-11-08T08:00:00	2	Temperatura media	20
163402	7	Sololá	719	Santiago Atitlán	14	Cerro de Oro	7	Julio	2023-07-29T00:00:00	2024-11-08T08:00:00	4	Temperatura máxima	20
163403	7	Sololá	719	Santiago Atitlán	14	Cerro de Oro	7	Julio	2023-07-29T00:00:00	2024-11-08T08:00:00	3	Temperatura mínima	18.7
163404	7	Sololá	719	Santiago Atitlán	14	Cerro de Oro	7	Julio	2023-07-29T00:00:00	2024-11-08T08:00:00	5	Humedad	83
163405	7	Sololá	719	Santiago Atitlán	14	Cerro de Oro	7	Julio	2023-07-29T00:00:00	2024-11-08T08:00:00	6	Velocidad del viento	3.2
163406	7	Sololá	719	Santiago Atitlán	14	Cerro de Oro	7	Julio	2023-07-29T00:00:00	2024-11-08T08:00:00	7	Dirección del viento	3.22
163407	7	Sololá	719	Santiago Atitlán	14	Cerro de Oro	7	Julio	2023-07-29T00:00:00	2024-11-08T08:00:00	1	Precipitación	0
163408	7	Sololá	719	Santiago Atitlán	14	Cerro de Oro	7	Julio	2023-07-29T00:00:00	2024-11-08T08:00:00	8	Radiación solar	126
163409	7	Sololá	719	Santiago Atitlán	14	Cerro de Oro	7	Julio	2023-07-29T00:00:00	2024-11-08T09:00:00	2	Temperatura media	21
163410	7	Sololá	719	Santiago Atitlán	14	Cerro de Oro	7	Julio	2023-07-29T00:00:00	2024-11-08T09:00:00	4	Temperatura máxima	21.1
163411	7	Sololá	719	Santiago Atitlán	14	Cerro de Oro	7	Julio	2023-07-29T00:00:00	2024-11-08T09:00:00	3	Temperatura mínima	20
163412	7	Sololá	719	Santiago Atitlán	14	Cerro de Oro	7	Julio	2023-07-29T00:00:00	2024-11-08T09:00:00	5	Humedad	78
163413	7	Sololá	719	Santiago Atitlán	14	Cerro de Oro	7	Julio	2023-07-29T00:00:00	2024-11-08T09:00:00	6	Velocidad del viento	6.4
163414	7	Sololá	719	Santiago Atitlán	14	Cerro de Oro	7	Julio	2023-07-29T00:00:00	2024-11-08T09:00:00	7	Dirección del viento	6.44
163415	7	Sololá	719	Santiago Atitlán	14	Cerro de Oro	7	Julio	2023-07-29T00:00:00	2024-11-08T09:00:00	1	Precipitación	0
163416	7	Sololá	719	Santiago Atitlán	14	Cerro de Oro	7	Julio	2023-07-29T00:00:00	2024-11-08T09:00:00	8	Radiación solar	178
163417	7	Sololá	719	Santiago Atitlán	14	Cerro de Oro	7	Julio	2023-07-29T00:00:00	2024-11-08T10:00:00	2	Temperatura media	20.7
163418	7	Sololá	719	Santiago Atitlán	14	Cerro de Oro	7	Julio	2023-07-29T00:00:00	2024-11-08T10:00:00	4	Temperatura máxima	21
163419	7	Sololá	719	Santiago Atitlán	14	Cerro de Oro	7	Julio	2023-07-29T00:00:00	2024-11-08T10:00:00	3	Temperatura mínima	20.1
163420	7	Sololá	719	Santiago Atitlán	14	Cerro de Oro	7	Julio	2023-07-29T00:00:00	2024-11-08T10:00:00	5	Humedad	79
163421	7	Sololá	719	Santiago Atitlán	14	Cerro de Oro	7	Julio	2023-07-29T00:00:00	2024-11-08T10:00:00	6	Velocidad del viento	6.4
163422	7	Sololá	719	Santiago Atitlán	14	Cerro de Oro	7	Julio	2023-07-29T00:00:00	2024-11-08T10:00:00	7	Dirección del viento	6.44
163423	7	Sololá	719	Santiago Atitlán	14	Cerro de Oro	7	Julio	2023-07-29T00:00:00	2024-11-08T10:00:00	1	Precipitación	0.2
163424	7	Sololá	719	Santiago Atitlán	14	Cerro de Oro	7	Julio	2023-07-29T00:00:00	2024-11-08T10:00:00	8	Radiación solar	165
163425	7	Sololá	719	Santiago Atitlán	14	Cerro de Oro	7	Julio	2023-07-29T00:00:00	2024-11-08T11:00:00	2	Temperatura media	21.1
163426	7	Sololá	719	Santiago Atitlán	14	Cerro de Oro	7	Julio	2023-07-29T00:00:00	2024-11-08T11:00:00	4	Temperatura máxima	21.1
163427	7	Sololá	719	Santiago Atitlán	14	Cerro de Oro	7	Julio	2023-07-29T00:00:00	2024-11-08T11:00:00	3	Temperatura mínima	20.7
163428	7	Sololá	719	Santiago Atitlán	14	Cerro de Oro	7	Julio	2023-07-29T00:00:00	2024-11-08T11:00:00	5	Humedad	76
163429	7	Sololá	719	Santiago Atitlán	14	Cerro de Oro	7	Julio	2023-07-29T00:00:00	2024-11-08T11:00:00	6	Velocidad del viento	9.7
163430	7	Sololá	719	Santiago Atitlán	14	Cerro de Oro	7	Julio	2023-07-29T00:00:00	2024-11-08T11:00:00	7	Dirección del viento	9.66
163431	7	Sololá	719	Santiago Atitlán	14	Cerro de Oro	7	Julio	2023-07-29T00:00:00	2024-11-08T11:00:00	1	Precipitación	0
163432	7	Sololá	719	Santiago Atitlán	14	Cerro de Oro	7	Julio	2023-07-29T00:00:00	2024-11-08T11:00:00	8	Radiación solar	144
163433	7	Sololá	719	Santiago Atitlán	14	Cerro de Oro	7	Julio	2023-07-29T00:00:00	2024-11-08T12:00:00	2	Temperatura media	21.3
163434	7	Sololá	719	Santiago Atitlán	14	Cerro de Oro	7	Julio	2023-07-29T00:00:00	2024-11-08T12:00:00	4	Temperatura máxima	21.8
163435	7	Sololá	719	Santiago Atitlán	14	Cerro de Oro	7	Julio	2023-07-29T00:00:00	2024-11-08T12:00:00	3	Temperatura mínima	21
163436	7	Sololá	719	Santiago Atitlán	14	Cerro de Oro	7	Julio	2023-07-29T00:00:00	2024-11-08T12:00:00	5	Humedad	76
163437	7	Sololá	719	Santiago Atitlán	14	Cerro de Oro	7	Julio	2023-07-29T00:00:00	2024-11-08T12:00:00	6	Velocidad del viento	8
163438	7	Sololá	719	Santiago Atitlán	14	Cerro de Oro	7	Julio	2023-07-29T00:00:00	2024-11-08T12:00:00	7	Dirección del viento	8.05
163439	7	Sololá	719	Santiago Atitlán	14	Cerro de Oro	7	Julio	2023-07-29T00:00:00	2024-11-08T12:00:00	1	Precipitación	0
163440	7	Sololá	719	Santiago Atitlán	14	Cerro de Oro	7	Julio	2023-07-29T00:00:00	2024-11-08T12:00:00	8	Radiación solar	209
163441	7	Sololá	719	Santiago Atitlán	14	Cerro de Oro	7	Julio	2023-07-29T00:00:00	2024-11-08T13:00:00	2	Temperatura media	19.8
163442	7	Sololá	719	Santiago Atitlán	14	Cerro de Oro	7	Julio	2023-07-29T00:00:00	2024-11-08T13:00:00	4	Temperatura máxima	21.3
163443	7	Sololá	719	Santiago Atitlán	14	Cerro de Oro	7	Julio	2023-07-29T00:00:00	2024-11-08T13:00:00	3	Temperatura mínima	19.8
163444	7	Sololá	719	Santiago Atitlán	14	Cerro de Oro	7	Julio	2023-07-29T00:00:00	2024-11-08T13:00:00	5	Humedad	83
163445	7	Sololá	719	Santiago Atitlán	14	Cerro de Oro	7	Julio	2023-07-29T00:00:00	2024-11-08T13:00:00	6	Velocidad del viento	8
163446	7	Sololá	719	Santiago Atitlán	14	Cerro de Oro	7	Julio	2023-07-29T00:00:00	2024-11-08T13:00:00	7	Dirección del viento	8.05
163447	7	Sololá	719	Santiago Atitlán	14	Cerro de Oro	7	Julio	2023-07-29T00:00:00	2024-11-08T13:00:00	1	Precipitación	1.6
163448	7	Sololá	719	Santiago Atitlán	14	Cerro de Oro	7	Julio	2023-07-29T00:00:00	2024-11-08T13:00:00	8	Radiación solar	169
163449	7	Sololá	719	Santiago Atitlán	14	Cerro de Oro	7	Julio	2023-07-29T00:00:00	2024-11-08T14:00:00	2	Temperatura media	20.8
163450	7	Sololá	719	Santiago Atitlán	14	Cerro de Oro	7	Julio	2023-07-29T00:00:00	2024-11-08T14:00:00	4	Temperatura máxima	20.8
163451	7	Sololá	719	Santiago Atitlán	14	Cerro de Oro	7	Julio	2023-07-29T00:00:00	2024-11-08T14:00:00	3	Temperatura mínima	19.3
163452	7	Sololá	719	Santiago Atitlán	14	Cerro de Oro	7	Julio	2023-07-29T00:00:00	2024-11-08T14:00:00	5	Humedad	86
163453	7	Sololá	719	Santiago Atitlán	14	Cerro de Oro	7	Julio	2023-07-29T00:00:00	2024-11-08T14:00:00	6	Velocidad del viento	6.4
163454	7	Sololá	719	Santiago Atitlán	14	Cerro de Oro	7	Julio	2023-07-29T00:00:00	2024-11-08T14:00:00	7	Dirección del viento	6.44
163455	7	Sololá	719	Santiago Atitlán	14	Cerro de Oro	7	Julio	2023-07-29T00:00:00	2024-11-08T14:00:00	1	Precipitación	0
163456	7	Sololá	719	Santiago Atitlán	14	Cerro de Oro	7	Julio	2023-07-29T00:00:00	2024-11-08T14:00:00	8	Radiación solar	214
163457	7	Sololá	719	Santiago Atitlán	14	Cerro de Oro	7	Julio	2023-07-29T00:00:00	2024-11-08T15:00:00	2	Temperatura media	22.1
163458	7	Sololá	719	Santiago Atitlán	14	Cerro de Oro	7	Julio	2023-07-29T00:00:00	2024-11-08T15:00:00	4	Temperatura máxima	22.2
163459	7	Sololá	719	Santiago Atitlán	14	Cerro de Oro	7	Julio	2023-07-29T00:00:00	2024-11-08T15:00:00	3	Temperatura mínima	20.8
163460	7	Sololá	719	Santiago Atitlán	14	Cerro de Oro	7	Julio	2023-07-29T00:00:00	2024-11-08T15:00:00	5	Humedad	75
163461	7	Sololá	719	Santiago Atitlán	14	Cerro de Oro	7	Julio	2023-07-29T00:00:00	2024-11-08T15:00:00	6	Velocidad del viento	3.2
163462	7	Sololá	719	Santiago Atitlán	14	Cerro de Oro	7	Julio	2023-07-29T00:00:00	2024-11-08T15:00:00	7	Dirección del viento	3.22
163463	7	Sololá	719	Santiago Atitlán	14	Cerro de Oro	7	Julio	2023-07-29T00:00:00	2024-11-08T15:00:00	1	Precipitación	0
163464	7	Sololá	719	Santiago Atitlán	14	Cerro de Oro	7	Julio	2023-07-29T00:00:00	2024-11-08T15:00:00	8	Radiación solar	487
163465	7	Sololá	719	Santiago Atitlán	14	Cerro de Oro	7	Julio	2023-07-29T00:00:00	2024-11-08T16:00:00	2	Temperatura media	23.4
163466	7	Sololá	719	Santiago Atitlán	14	Cerro de Oro	7	Julio	2023-07-29T00:00:00	2024-11-08T16:00:00	4	Temperatura máxima	23.5
163467	7	Sololá	719	Santiago Atitlán	14	Cerro de Oro	7	Julio	2023-07-29T00:00:00	2024-11-08T16:00:00	3	Temperatura mínima	22.2
163468	7	Sololá	719	Santiago Atitlán	14	Cerro de Oro	7	Julio	2023-07-29T00:00:00	2024-11-08T16:00:00	5	Humedad	71
163469	7	Sololá	719	Santiago Atitlán	14	Cerro de Oro	7	Julio	2023-07-29T00:00:00	2024-11-08T16:00:00	6	Velocidad del viento	3.2
163470	7	Sololá	719	Santiago Atitlán	14	Cerro de Oro	7	Julio	2023-07-29T00:00:00	2024-11-08T16:00:00	7	Dirección del viento	3.22
163471	7	Sololá	719	Santiago Atitlán	14	Cerro de Oro	7	Julio	2023-07-29T00:00:00	2024-11-08T16:00:00	1	Precipitación	0
163472	7	Sololá	719	Santiago Atitlán	14	Cerro de Oro	7	Julio	2023-07-29T00:00:00	2024-11-08T16:00:00	8	Radiación solar	474
163473	7	Sololá	719	Santiago Atitlán	14	Cerro de Oro	7	Julio	2023-07-29T00:00:00	2024-11-08T17:00:00	2	Temperatura media	22.1
163474	7	Sololá	719	Santiago Atitlán	14	Cerro de Oro	7	Julio	2023-07-29T00:00:00	2024-11-08T17:00:00	4	Temperatura máxima	23.4
163475	7	Sololá	719	Santiago Atitlán	14	Cerro de Oro	7	Julio	2023-07-29T00:00:00	2024-11-08T17:00:00	3	Temperatura mínima	22.1
163476	7	Sololá	719	Santiago Atitlán	14	Cerro de Oro	7	Julio	2023-07-29T00:00:00	2024-11-08T17:00:00	5	Humedad	79
163477	7	Sololá	719	Santiago Atitlán	14	Cerro de Oro	7	Julio	2023-07-29T00:00:00	2024-11-08T17:00:00	6	Velocidad del viento	3.2
163478	7	Sololá	719	Santiago Atitlán	14	Cerro de Oro	7	Julio	2023-07-29T00:00:00	2024-11-08T17:00:00	7	Dirección del viento	3.22
163479	7	Sololá	719	Santiago Atitlán	14	Cerro de Oro	7	Julio	2023-07-29T00:00:00	2024-11-08T17:00:00	1	Precipitación	0.8
163480	7	Sololá	719	Santiago Atitlán	14	Cerro de Oro	7	Julio	2023-07-29T00:00:00	2024-11-08T17:00:00	8	Radiación solar	158
163481	7	Sololá	719	Santiago Atitlán	14	Cerro de Oro	7	Julio	2023-07-29T00:00:00	2024-11-08T18:00:00	2	Temperatura media	18.5
163482	7	Sololá	719	Santiago Atitlán	14	Cerro de Oro	7	Julio	2023-07-29T00:00:00	2024-11-08T18:00:00	4	Temperatura máxima	22
163483	7	Sololá	719	Santiago Atitlán	14	Cerro de Oro	7	Julio	2023-07-29T00:00:00	2024-11-08T18:00:00	3	Temperatura mínima	18.4
163484	7	Sololá	719	Santiago Atitlán	14	Cerro de Oro	7	Julio	2023-07-29T00:00:00	2024-11-08T18:00:00	5	Humedad	91
163485	7	Sololá	719	Santiago Atitlán	14	Cerro de Oro	7	Julio	2023-07-29T00:00:00	2024-11-08T18:00:00	6	Velocidad del viento	6.4
163486	7	Sololá	719	Santiago Atitlán	14	Cerro de Oro	7	Julio	2023-07-29T00:00:00	2024-11-08T18:00:00	7	Dirección del viento	6.44
163487	7	Sololá	719	Santiago Atitlán	14	Cerro de Oro	7	Julio	2023-07-29T00:00:00	2024-11-08T18:00:00	1	Precipitación	10.4
163488	7	Sololá	719	Santiago Atitlán	14	Cerro de Oro	7	Julio	2023-07-29T00:00:00	2024-11-08T18:00:00	8	Radiación solar	21
163489	7	Sololá	719	Santiago Atitlán	14	Cerro de Oro	7	Julio	2023-07-29T00:00:00	2024-11-08T19:00:00	2	Temperatura media	18.1
163490	7	Sololá	719	Santiago Atitlán	14	Cerro de Oro	7	Julio	2023-07-29T00:00:00	2024-11-08T19:00:00	4	Temperatura máxima	18.4
163491	7	Sololá	719	Santiago Atitlán	14	Cerro de Oro	7	Julio	2023-07-29T00:00:00	2024-11-08T19:00:00	3	Temperatura mínima	18
163492	7	Sololá	719	Santiago Atitlán	14	Cerro de Oro	7	Julio	2023-07-29T00:00:00	2024-11-08T19:00:00	5	Humedad	93
163493	7	Sololá	719	Santiago Atitlán	14	Cerro de Oro	7	Julio	2023-07-29T00:00:00	2024-11-08T19:00:00	6	Velocidad del viento	4.8
163494	7	Sololá	719	Santiago Atitlán	14	Cerro de Oro	7	Julio	2023-07-29T00:00:00	2024-11-08T19:00:00	7	Dirección del viento	4.83
163495	7	Sololá	719	Santiago Atitlán	14	Cerro de Oro	7	Julio	2023-07-29T00:00:00	2024-11-08T19:00:00	1	Precipitación	7.6
163496	7	Sololá	719	Santiago Atitlán	14	Cerro de Oro	7	Julio	2023-07-29T00:00:00	2024-11-08T19:00:00	8	Radiación solar	0
163497	7	Sololá	719	Santiago Atitlán	14	Cerro de Oro	7	Julio	2023-07-29T00:00:00	2024-11-08T20:00:00	2	Temperatura media	18.3
163498	7	Sololá	719	Santiago Atitlán	14	Cerro de Oro	7	Julio	2023-07-29T00:00:00	2024-11-08T20:00:00	4	Temperatura máxima	18.3
163499	7	Sololá	719	Santiago Atitlán	14	Cerro de Oro	7	Julio	2023-07-29T00:00:00	2024-11-08T20:00:00	3	Temperatura mínima	18
163500	7	Sololá	719	Santiago Atitlán	14	Cerro de Oro	7	Julio	2023-07-29T00:00:00	2024-11-08T20:00:00	5	Humedad	93
163501	7	Sololá	719	Santiago Atitlán	14	Cerro de Oro	7	Julio	2023-07-29T00:00:00	2024-11-08T20:00:00	6	Velocidad del viento	3.2
163502	7	Sololá	719	Santiago Atitlán	14	Cerro de Oro	7	Julio	2023-07-29T00:00:00	2024-11-08T20:00:00	7	Dirección del viento	3.22
163503	7	Sololá	719	Santiago Atitlán	14	Cerro de Oro	7	Julio	2023-07-29T00:00:00	2024-11-08T20:00:00	1	Precipitación	1.2
163504	7	Sololá	719	Santiago Atitlán	14	Cerro de Oro	7	Julio	2023-07-29T00:00:00	2024-11-08T20:00:00	8	Radiación solar	0
163505	7	Sololá	719	Santiago Atitlán	14	Cerro de Oro	7	Julio	2023-07-29T00:00:00	2024-11-08T21:00:00	2	Temperatura media	17.8
163506	7	Sololá	719	Santiago Atitlán	14	Cerro de Oro	7	Julio	2023-07-29T00:00:00	2024-11-08T21:00:00	4	Temperatura máxima	18.4
163507	7	Sololá	719	Santiago Atitlán	14	Cerro de Oro	7	Julio	2023-07-29T00:00:00	2024-11-08T21:00:00	3	Temperatura mínima	17.8
163508	7	Sololá	719	Santiago Atitlán	14	Cerro de Oro	7	Julio	2023-07-29T00:00:00	2024-11-08T21:00:00	5	Humedad	91
163509	7	Sololá	719	Santiago Atitlán	14	Cerro de Oro	7	Julio	2023-07-29T00:00:00	2024-11-08T21:00:00	6	Velocidad del viento	4.8
163510	7	Sololá	719	Santiago Atitlán	14	Cerro de Oro	7	Julio	2023-07-29T00:00:00	2024-11-08T21:00:00	7	Dirección del viento	4.83
163511	7	Sololá	719	Santiago Atitlán	14	Cerro de Oro	7	Julio	2023-07-29T00:00:00	2024-11-08T21:00:00	1	Precipitación	5.8
163512	7	Sololá	719	Santiago Atitlán	14	Cerro de Oro	7	Julio	2023-07-29T00:00:00	2024-11-08T21:00:00	8	Radiación solar	0
163513	7	Sololá	719	Santiago Atitlán	14	Cerro de Oro	7	Julio	2023-07-29T00:00:00	2024-11-08T22:00:00	2	Temperatura media	17.3
163514	7	Sololá	719	Santiago Atitlán	14	Cerro de Oro	7	Julio	2023-07-29T00:00:00	2024-11-08T22:00:00	4	Temperatura máxima	17.8
163515	7	Sololá	719	Santiago Atitlán	14	Cerro de Oro	7	Julio	2023-07-29T00:00:00	2024-11-08T22:00:00	3	Temperatura mínima	17.2
163516	7	Sololá	719	Santiago Atitlán	14	Cerro de Oro	7	Julio	2023-07-29T00:00:00	2024-11-08T22:00:00	5	Humedad	91
163517	7	Sololá	719	Santiago Atitlán	14	Cerro de Oro	7	Julio	2023-07-29T00:00:00	2024-11-08T22:00:00	6	Velocidad del viento	4.8
163518	7	Sololá	719	Santiago Atitlán	14	Cerro de Oro	7	Julio	2023-07-29T00:00:00	2024-11-08T22:00:00	7	Dirección del viento	4.83
163519	7	Sololá	719	Santiago Atitlán	14	Cerro de Oro	7	Julio	2023-07-29T00:00:00	2024-11-08T22:00:00	1	Precipitación	1.8
163520	7	Sololá	719	Santiago Atitlán	14	Cerro de Oro	7	Julio	2023-07-29T00:00:00	2024-11-08T22:00:00	8	Radiación solar	0
163521	7	Sololá	719	Santiago Atitlán	14	Cerro de Oro	7	Julio	2023-07-29T00:00:00	2024-11-08T23:00:00	2	Temperatura media	17.4
163522	7	Sololá	719	Santiago Atitlán	14	Cerro de Oro	7	Julio	2023-07-29T00:00:00	2024-11-08T23:00:00	4	Temperatura máxima	17.4
163523	7	Sololá	719	Santiago Atitlán	14	Cerro de Oro	7	Julio	2023-07-29T00:00:00	2024-11-08T23:00:00	3	Temperatura mínima	17.2
163524	7	Sololá	719	Santiago Atitlán	14	Cerro de Oro	7	Julio	2023-07-29T00:00:00	2024-11-08T23:00:00	5	Humedad	92
163525	7	Sololá	719	Santiago Atitlán	14	Cerro de Oro	7	Julio	2023-07-29T00:00:00	2024-11-08T23:00:00	6	Velocidad del viento	4.8
163526	7	Sololá	719	Santiago Atitlán	14	Cerro de Oro	7	Julio	2023-07-29T00:00:00	2024-11-08T23:00:00	7	Dirección del viento	4.83
163527	7	Sololá	719	Santiago Atitlán	14	Cerro de Oro	7	Julio	2023-07-29T00:00:00	2024-11-08T23:00:00	1	Precipitación	0
163528	7	Sololá	719	Santiago Atitlán	14	Cerro de Oro	7	Julio	2023-07-29T00:00:00	2024-11-08T23:00:00	8	Radiación solar	0
163529	7	Sololá	719	Santiago Atitlán	14	Cerro de Oro	7	Julio	2023-07-30T00:00:00	2024-11-08T00:00:00	2	Temperatura media	18.7
163530	7	Sololá	719	Santiago Atitlán	14	Cerro de Oro	7	Julio	2023-07-30T00:00:00	2024-11-08T00:00:00	4	Temperatura máxima	18.7
163531	7	Sololá	719	Santiago Atitlán	14	Cerro de Oro	7	Julio	2023-07-30T00:00:00	2024-11-08T00:00:00	3	Temperatura mínima	17.4
163532	7	Sololá	719	Santiago Atitlán	14	Cerro de Oro	7	Julio	2023-07-30T00:00:00	2024-11-08T00:00:00	5	Humedad	87
163533	7	Sololá	719	Santiago Atitlán	14	Cerro de Oro	7	Julio	2023-07-30T00:00:00	2024-11-08T00:00:00	6	Velocidad del viento	4.8
163534	7	Sololá	719	Santiago Atitlán	14	Cerro de Oro	7	Julio	2023-07-30T00:00:00	2024-11-08T00:00:00	7	Dirección del viento	4.83
163535	7	Sololá	719	Santiago Atitlán	14	Cerro de Oro	7	Julio	2023-07-30T00:00:00	2024-11-08T00:00:00	1	Precipitación	0
163536	7	Sololá	719	Santiago Atitlán	14	Cerro de Oro	7	Julio	2023-07-30T00:00:00	2024-11-08T00:00:00	8	Radiación solar	0
163537	7	Sololá	719	Santiago Atitlán	14	Cerro de Oro	7	Julio	2023-07-30T00:00:00	2024-11-08T01:00:00	2	Temperatura media	17.7
163538	7	Sololá	719	Santiago Atitlán	14	Cerro de Oro	7	Julio	2023-07-30T00:00:00	2024-11-08T01:00:00	4	Temperatura máxima	18.8
163539	7	Sololá	719	Santiago Atitlán	14	Cerro de Oro	7	Julio	2023-07-30T00:00:00	2024-11-08T01:00:00	3	Temperatura mínima	17.7
163540	7	Sololá	719	Santiago Atitlán	14	Cerro de Oro	7	Julio	2023-07-30T00:00:00	2024-11-08T01:00:00	5	Humedad	90
163541	7	Sololá	719	Santiago Atitlán	14	Cerro de Oro	7	Julio	2023-07-30T00:00:00	2024-11-08T01:00:00	6	Velocidad del viento	3.2
163542	7	Sololá	719	Santiago Atitlán	14	Cerro de Oro	7	Julio	2023-07-30T00:00:00	2024-11-08T01:00:00	7	Dirección del viento	3.22
163543	7	Sololá	719	Santiago Atitlán	14	Cerro de Oro	7	Julio	2023-07-30T00:00:00	2024-11-08T01:00:00	1	Precipitación	0
163544	7	Sololá	719	Santiago Atitlán	14	Cerro de Oro	7	Julio	2023-07-30T00:00:00	2024-11-08T01:00:00	8	Radiación solar	0
163545	7	Sololá	719	Santiago Atitlán	14	Cerro de Oro	7	Julio	2023-07-30T00:00:00	2024-11-08T02:00:00	2	Temperatura media	18.2
163546	7	Sololá	719	Santiago Atitlán	14	Cerro de Oro	7	Julio	2023-07-30T00:00:00	2024-11-08T02:00:00	4	Temperatura máxima	18.5
163547	7	Sololá	719	Santiago Atitlán	14	Cerro de Oro	7	Julio	2023-07-30T00:00:00	2024-11-08T02:00:00	3	Temperatura mínima	17.6
163548	7	Sololá	719	Santiago Atitlán	14	Cerro de Oro	7	Julio	2023-07-30T00:00:00	2024-11-08T02:00:00	5	Humedad	85
163549	7	Sololá	719	Santiago Atitlán	14	Cerro de Oro	7	Julio	2023-07-30T00:00:00	2024-11-08T02:00:00	6	Velocidad del viento	4.8
163550	7	Sololá	719	Santiago Atitlán	14	Cerro de Oro	7	Julio	2023-07-30T00:00:00	2024-11-08T02:00:00	7	Dirección del viento	4.83
163551	7	Sololá	719	Santiago Atitlán	14	Cerro de Oro	7	Julio	2023-07-30T00:00:00	2024-11-08T02:00:00	1	Precipitación	0
163552	7	Sololá	719	Santiago Atitlán	14	Cerro de Oro	7	Julio	2023-07-30T00:00:00	2024-11-08T02:00:00	8	Radiación solar	0
163553	7	Sololá	719	Santiago Atitlán	14	Cerro de Oro	7	Julio	2023-07-30T00:00:00	2024-11-08T03:00:00	2	Temperatura media	18.7
163554	7	Sololá	719	Santiago Atitlán	14	Cerro de Oro	7	Julio	2023-07-30T00:00:00	2024-11-08T03:00:00	4	Temperatura máxima	18.8
163555	7	Sololá	719	Santiago Atitlán	14	Cerro de Oro	7	Julio	2023-07-30T00:00:00	2024-11-08T03:00:00	3	Temperatura mínima	17.7
163556	7	Sololá	719	Santiago Atitlán	14	Cerro de Oro	7	Julio	2023-07-30T00:00:00	2024-11-08T03:00:00	5	Humedad	82
163557	7	Sololá	719	Santiago Atitlán	14	Cerro de Oro	7	Julio	2023-07-30T00:00:00	2024-11-08T03:00:00	6	Velocidad del viento	4.8
163558	7	Sololá	719	Santiago Atitlán	14	Cerro de Oro	7	Julio	2023-07-30T00:00:00	2024-11-08T03:00:00	7	Dirección del viento	4.83
163559	7	Sololá	719	Santiago Atitlán	14	Cerro de Oro	7	Julio	2023-07-30T00:00:00	2024-11-08T03:00:00	1	Precipitación	0
163560	7	Sololá	719	Santiago Atitlán	14	Cerro de Oro	7	Julio	2023-07-30T00:00:00	2024-11-08T03:00:00	8	Radiación solar	0
163561	7	Sololá	719	Santiago Atitlán	14	Cerro de Oro	7	Julio	2023-07-30T00:00:00	2024-11-08T04:00:00	2	Temperatura media	18.5
163562	7	Sololá	719	Santiago Atitlán	14	Cerro de Oro	7	Julio	2023-07-30T00:00:00	2024-11-08T04:00:00	4	Temperatura máxima	18.8
163563	7	Sololá	719	Santiago Atitlán	14	Cerro de Oro	7	Julio	2023-07-30T00:00:00	2024-11-08T04:00:00	3	Temperatura mínima	18.2
163564	7	Sololá	719	Santiago Atitlán	14	Cerro de Oro	7	Julio	2023-07-30T00:00:00	2024-11-08T04:00:00	5	Humedad	82
163565	7	Sololá	719	Santiago Atitlán	14	Cerro de Oro	7	Julio	2023-07-30T00:00:00	2024-11-08T04:00:00	6	Velocidad del viento	4.8
163566	7	Sololá	719	Santiago Atitlán	14	Cerro de Oro	7	Julio	2023-07-30T00:00:00	2024-11-08T04:00:00	7	Dirección del viento	4.83
163567	7	Sololá	719	Santiago Atitlán	14	Cerro de Oro	7	Julio	2023-07-30T00:00:00	2024-11-08T04:00:00	1	Precipitación	0
163568	7	Sololá	719	Santiago Atitlán	14	Cerro de Oro	7	Julio	2023-07-30T00:00:00	2024-11-08T04:00:00	8	Radiación solar	0
163569	7	Sololá	719	Santiago Atitlán	14	Cerro de Oro	7	Julio	2023-07-30T00:00:00	2024-11-08T05:00:00	2	Temperatura media	19.3
163570	7	Sololá	719	Santiago Atitlán	14	Cerro de Oro	7	Julio	2023-07-30T00:00:00	2024-11-08T05:00:00	4	Temperatura máxima	19.3
163571	7	Sololá	719	Santiago Atitlán	14	Cerro de Oro	7	Julio	2023-07-30T00:00:00	2024-11-08T05:00:00	3	Temperatura mínima	18.2
163572	7	Sololá	719	Santiago Atitlán	14	Cerro de Oro	7	Julio	2023-07-30T00:00:00	2024-11-08T05:00:00	5	Humedad	78
163573	7	Sololá	719	Santiago Atitlán	14	Cerro de Oro	7	Julio	2023-07-30T00:00:00	2024-11-08T05:00:00	6	Velocidad del viento	4.8
163574	7	Sololá	719	Santiago Atitlán	14	Cerro de Oro	7	Julio	2023-07-30T00:00:00	2024-11-08T05:00:00	7	Dirección del viento	4.83
163575	7	Sololá	719	Santiago Atitlán	14	Cerro de Oro	7	Julio	2023-07-30T00:00:00	2024-11-08T05:00:00	1	Precipitación	0
163576	7	Sololá	719	Santiago Atitlán	14	Cerro de Oro	7	Julio	2023-07-30T00:00:00	2024-11-08T05:00:00	8	Radiación solar	0
163577	7	Sololá	719	Santiago Atitlán	14	Cerro de Oro	7	Julio	2023-07-30T00:00:00	2024-11-08T06:00:00	2	Temperatura media	19.9
163578	7	Sololá	719	Santiago Atitlán	14	Cerro de Oro	7	Julio	2023-07-30T00:00:00	2024-11-08T06:00:00	4	Temperatura máxima	20.2
163579	7	Sololá	719	Santiago Atitlán	14	Cerro de Oro	7	Julio	2023-07-30T00:00:00	2024-11-08T06:00:00	3	Temperatura mínima	18.8
163580	7	Sololá	719	Santiago Atitlán	14	Cerro de Oro	7	Julio	2023-07-30T00:00:00	2024-11-08T06:00:00	5	Humedad	78
163581	7	Sololá	719	Santiago Atitlán	14	Cerro de Oro	7	Julio	2023-07-30T00:00:00	2024-11-08T06:00:00	6	Velocidad del viento	8
163582	7	Sololá	719	Santiago Atitlán	14	Cerro de Oro	7	Julio	2023-07-30T00:00:00	2024-11-08T06:00:00	7	Dirección del viento	8.05
163583	7	Sololá	719	Santiago Atitlán	14	Cerro de Oro	7	Julio	2023-07-30T00:00:00	2024-11-08T06:00:00	1	Precipitación	0
163584	7	Sololá	719	Santiago Atitlán	14	Cerro de Oro	7	Julio	2023-07-30T00:00:00	2024-11-08T06:00:00	8	Radiación solar	2
163585	7	Sololá	719	Santiago Atitlán	14	Cerro de Oro	7	Julio	2023-07-30T00:00:00	2024-11-08T07:00:00	2	Temperatura media	21.2
163586	7	Sololá	719	Santiago Atitlán	14	Cerro de Oro	7	Julio	2023-07-30T00:00:00	2024-11-08T07:00:00	4	Temperatura máxima	21.2
163587	7	Sololá	719	Santiago Atitlán	14	Cerro de Oro	7	Julio	2023-07-30T00:00:00	2024-11-08T07:00:00	3	Temperatura mínima	18.9
163588	7	Sololá	719	Santiago Atitlán	14	Cerro de Oro	7	Julio	2023-07-30T00:00:00	2024-11-08T07:00:00	5	Humedad	73
163589	7	Sololá	719	Santiago Atitlán	14	Cerro de Oro	7	Julio	2023-07-30T00:00:00	2024-11-08T07:00:00	6	Velocidad del viento	3.2
163590	7	Sololá	719	Santiago Atitlán	14	Cerro de Oro	7	Julio	2023-07-30T00:00:00	2024-11-08T07:00:00	7	Dirección del viento	3.22
163591	7	Sololá	719	Santiago Atitlán	14	Cerro de Oro	7	Julio	2023-07-30T00:00:00	2024-11-08T07:00:00	1	Precipitación	0
163592	7	Sololá	719	Santiago Atitlán	14	Cerro de Oro	7	Julio	2023-07-30T00:00:00	2024-11-08T07:00:00	8	Radiación solar	77
163593	7	Sololá	719	Santiago Atitlán	14	Cerro de Oro	7	Julio	2023-07-30T00:00:00	2024-11-08T08:00:00	2	Temperatura media	22.9
163594	7	Sololá	719	Santiago Atitlán	14	Cerro de Oro	7	Julio	2023-07-30T00:00:00	2024-11-08T08:00:00	4	Temperatura máxima	23.1
163595	7	Sololá	719	Santiago Atitlán	14	Cerro de Oro	7	Julio	2023-07-30T00:00:00	2024-11-08T08:00:00	3	Temperatura mínima	21.2
163596	7	Sololá	719	Santiago Atitlán	14	Cerro de Oro	7	Julio	2023-07-30T00:00:00	2024-11-08T08:00:00	5	Humedad	66
163597	7	Sololá	719	Santiago Atitlán	14	Cerro de Oro	7	Julio	2023-07-30T00:00:00	2024-11-08T08:00:00	6	Velocidad del viento	1.6
163598	7	Sololá	719	Santiago Atitlán	14	Cerro de Oro	7	Julio	2023-07-30T00:00:00	2024-11-08T08:00:00	7	Dirección del viento	1.61
163599	7	Sololá	719	Santiago Atitlán	14	Cerro de Oro	7	Julio	2023-07-30T00:00:00	2024-11-08T08:00:00	1	Precipitación	0
163600	7	Sololá	719	Santiago Atitlán	14	Cerro de Oro	7	Julio	2023-07-30T00:00:00	2024-11-08T08:00:00	8	Radiación solar	261
163601	7	Sololá	719	Santiago Atitlán	14	Cerro de Oro	7	Julio	2023-07-30T00:00:00	2024-11-08T09:00:00	2	Temperatura media	24.5
163602	7	Sololá	719	Santiago Atitlán	14	Cerro de Oro	7	Julio	2023-07-30T00:00:00	2024-11-08T09:00:00	4	Temperatura máxima	24.5
163603	7	Sololá	719	Santiago Atitlán	14	Cerro de Oro	7	Julio	2023-07-30T00:00:00	2024-11-08T09:00:00	3	Temperatura mínima	22.9
163604	7	Sololá	719	Santiago Atitlán	14	Cerro de Oro	7	Julio	2023-07-30T00:00:00	2024-11-08T09:00:00	5	Humedad	60
163605	7	Sololá	719	Santiago Atitlán	14	Cerro de Oro	7	Julio	2023-07-30T00:00:00	2024-11-08T09:00:00	6	Velocidad del viento	1.6
163606	7	Sololá	719	Santiago Atitlán	14	Cerro de Oro	7	Julio	2023-07-30T00:00:00	2024-11-08T09:00:00	7	Dirección del viento	1.61
163607	7	Sololá	719	Santiago Atitlán	14	Cerro de Oro	7	Julio	2023-07-30T00:00:00	2024-11-08T09:00:00	1	Precipitación	0
163608	7	Sololá	719	Santiago Atitlán	14	Cerro de Oro	7	Julio	2023-07-30T00:00:00	2024-11-08T09:00:00	8	Radiación solar	508
163609	7	Sololá	719	Santiago Atitlán	14	Cerro de Oro	7	Julio	2023-07-30T00:00:00	2024-11-08T10:00:00	2	Temperatura media	24.6
163610	7	Sololá	719	Santiago Atitlán	14	Cerro de Oro	7	Julio	2023-07-30T00:00:00	2024-11-08T10:00:00	4	Temperatura máxima	24.9
163611	7	Sololá	719	Santiago Atitlán	14	Cerro de Oro	7	Julio	2023-07-30T00:00:00	2024-11-08T10:00:00	3	Temperatura mínima	24.4
163612	7	Sololá	719	Santiago Atitlán	14	Cerro de Oro	7	Julio	2023-07-30T00:00:00	2024-11-08T10:00:00	5	Humedad	69
163613	7	Sololá	719	Santiago Atitlán	14	Cerro de Oro	7	Julio	2023-07-30T00:00:00	2024-11-08T10:00:00	6	Velocidad del viento	3.2
163614	7	Sololá	719	Santiago Atitlán	14	Cerro de Oro	7	Julio	2023-07-30T00:00:00	2024-11-08T10:00:00	7	Dirección del viento	3.22
163615	7	Sololá	719	Santiago Atitlán	14	Cerro de Oro	7	Julio	2023-07-30T00:00:00	2024-11-08T10:00:00	1	Precipitación	0
163616	7	Sololá	719	Santiago Atitlán	14	Cerro de Oro	7	Julio	2023-07-30T00:00:00	2024-11-08T10:00:00	8	Radiación solar	697
163617	7	Sololá	719	Santiago Atitlán	14	Cerro de Oro	7	Julio	2023-07-30T00:00:00	2024-11-08T11:00:00	2	Temperatura media	25.7
163618	7	Sololá	719	Santiago Atitlán	14	Cerro de Oro	7	Julio	2023-07-30T00:00:00	2024-11-08T11:00:00	4	Temperatura máxima	25.9
163619	7	Sololá	719	Santiago Atitlán	14	Cerro de Oro	7	Julio	2023-07-30T00:00:00	2024-11-08T11:00:00	3	Temperatura mínima	24.1
163620	7	Sololá	719	Santiago Atitlán	14	Cerro de Oro	7	Julio	2023-07-30T00:00:00	2024-11-08T11:00:00	5	Humedad	65
163621	7	Sololá	719	Santiago Atitlán	14	Cerro de Oro	7	Julio	2023-07-30T00:00:00	2024-11-08T11:00:00	6	Velocidad del viento	6.4
163622	7	Sololá	719	Santiago Atitlán	14	Cerro de Oro	7	Julio	2023-07-30T00:00:00	2024-11-08T11:00:00	7	Dirección del viento	6.44
163623	7	Sololá	719	Santiago Atitlán	14	Cerro de Oro	7	Julio	2023-07-30T00:00:00	2024-11-08T11:00:00	1	Precipitación	0
163624	7	Sololá	719	Santiago Atitlán	14	Cerro de Oro	7	Julio	2023-07-30T00:00:00	2024-11-08T11:00:00	8	Radiación solar	844
163625	7	Sololá	719	Santiago Atitlán	14	Cerro de Oro	7	Julio	2023-07-30T00:00:00	2024-11-08T12:00:00	2	Temperatura media	25.7
163626	7	Sololá	719	Santiago Atitlán	14	Cerro de Oro	7	Julio	2023-07-30T00:00:00	2024-11-08T12:00:00	4	Temperatura máxima	26.1
163627	7	Sololá	719	Santiago Atitlán	14	Cerro de Oro	7	Julio	2023-07-30T00:00:00	2024-11-08T12:00:00	3	Temperatura mínima	25.3
163628	7	Sololá	719	Santiago Atitlán	14	Cerro de Oro	7	Julio	2023-07-30T00:00:00	2024-11-08T12:00:00	5	Humedad	65
163629	7	Sololá	719	Santiago Atitlán	14	Cerro de Oro	7	Julio	2023-07-30T00:00:00	2024-11-08T12:00:00	6	Velocidad del viento	9.7
163630	7	Sololá	719	Santiago Atitlán	14	Cerro de Oro	7	Julio	2023-07-30T00:00:00	2024-11-08T12:00:00	7	Dirección del viento	9.66
163631	7	Sololá	719	Santiago Atitlán	14	Cerro de Oro	7	Julio	2023-07-30T00:00:00	2024-11-08T12:00:00	1	Precipitación	0
163632	7	Sololá	719	Santiago Atitlán	14	Cerro de Oro	7	Julio	2023-07-30T00:00:00	2024-11-08T12:00:00	8	Radiación solar	884
163633	7	Sololá	719	Santiago Atitlán	14	Cerro de Oro	7	Julio	2023-07-30T00:00:00	2024-11-08T13:00:00	2	Temperatura media	25
163634	7	Sololá	719	Santiago Atitlán	14	Cerro de Oro	7	Julio	2023-07-30T00:00:00	2024-11-08T13:00:00	4	Temperatura máxima	25.7
163635	7	Sololá	719	Santiago Atitlán	14	Cerro de Oro	7	Julio	2023-07-30T00:00:00	2024-11-08T13:00:00	3	Temperatura mínima	24.6
163636	7	Sololá	719	Santiago Atitlán	14	Cerro de Oro	7	Julio	2023-07-30T00:00:00	2024-11-08T13:00:00	5	Humedad	67
163637	7	Sololá	719	Santiago Atitlán	14	Cerro de Oro	7	Julio	2023-07-30T00:00:00	2024-11-08T13:00:00	6	Velocidad del viento	12.9
163638	7	Sololá	719	Santiago Atitlán	14	Cerro de Oro	7	Julio	2023-07-30T00:00:00	2024-11-08T13:00:00	7	Dirección del viento	12.87
163639	7	Sololá	719	Santiago Atitlán	14	Cerro de Oro	7	Julio	2023-07-30T00:00:00	2024-11-08T13:00:00	1	Precipitación	0
163640	7	Sololá	719	Santiago Atitlán	14	Cerro de Oro	7	Julio	2023-07-30T00:00:00	2024-11-08T13:00:00	8	Radiación solar	887
163641	7	Sololá	719	Santiago Atitlán	14	Cerro de Oro	7	Julio	2023-07-30T00:00:00	2024-11-08T14:00:00	2	Temperatura media	24.5
163642	7	Sololá	719	Santiago Atitlán	14	Cerro de Oro	7	Julio	2023-07-30T00:00:00	2024-11-08T14:00:00	4	Temperatura máxima	25.8
163643	7	Sololá	719	Santiago Atitlán	14	Cerro de Oro	7	Julio	2023-07-30T00:00:00	2024-11-08T14:00:00	3	Temperatura mínima	24.5
163644	7	Sololá	719	Santiago Atitlán	14	Cerro de Oro	7	Julio	2023-07-30T00:00:00	2024-11-08T14:00:00	5	Humedad	74
163645	7	Sololá	719	Santiago Atitlán	14	Cerro de Oro	7	Julio	2023-07-30T00:00:00	2024-11-08T14:00:00	6	Velocidad del viento	11.3
163646	7	Sololá	719	Santiago Atitlán	14	Cerro de Oro	7	Julio	2023-07-30T00:00:00	2024-11-08T14:00:00	7	Dirección del viento	11.27
163647	7	Sololá	719	Santiago Atitlán	14	Cerro de Oro	7	Julio	2023-07-30T00:00:00	2024-11-08T14:00:00	1	Precipitación	0
163648	7	Sololá	719	Santiago Atitlán	14	Cerro de Oro	7	Julio	2023-07-30T00:00:00	2024-11-08T14:00:00	8	Radiación solar	865
163649	7	Sololá	719	Santiago Atitlán	14	Cerro de Oro	7	Julio	2023-07-30T00:00:00	2024-11-08T15:00:00	2	Temperatura media	24.6
163650	7	Sololá	719	Santiago Atitlán	14	Cerro de Oro	7	Julio	2023-07-30T00:00:00	2024-11-08T15:00:00	4	Temperatura máxima	25.2
163651	7	Sololá	719	Santiago Atitlán	14	Cerro de Oro	7	Julio	2023-07-30T00:00:00	2024-11-08T15:00:00	3	Temperatura mínima	24
163652	7	Sololá	719	Santiago Atitlán	14	Cerro de Oro	7	Julio	2023-07-30T00:00:00	2024-11-08T15:00:00	5	Humedad	76
163653	7	Sololá	719	Santiago Atitlán	14	Cerro de Oro	7	Julio	2023-07-30T00:00:00	2024-11-08T15:00:00	6	Velocidad del viento	14.5
163654	7	Sololá	719	Santiago Atitlán	14	Cerro de Oro	7	Julio	2023-07-30T00:00:00	2024-11-08T15:00:00	7	Dirección del viento	14.48
163655	7	Sololá	719	Santiago Atitlán	14	Cerro de Oro	7	Julio	2023-07-30T00:00:00	2024-11-08T15:00:00	1	Precipitación	0
163656	7	Sololá	719	Santiago Atitlán	14	Cerro de Oro	7	Julio	2023-07-30T00:00:00	2024-11-08T15:00:00	8	Radiación solar	769
163657	7	Sololá	719	Santiago Atitlán	14	Cerro de Oro	7	Julio	2023-07-30T00:00:00	2024-11-08T16:00:00	2	Temperatura media	22.9
163658	7	Sololá	719	Santiago Atitlán	14	Cerro de Oro	7	Julio	2023-07-30T00:00:00	2024-11-08T16:00:00	4	Temperatura máxima	24.6
163659	7	Sololá	719	Santiago Atitlán	14	Cerro de Oro	7	Julio	2023-07-30T00:00:00	2024-11-08T16:00:00	3	Temperatura mínima	22.9
163660	7	Sololá	719	Santiago Atitlán	14	Cerro de Oro	7	Julio	2023-07-30T00:00:00	2024-11-08T16:00:00	5	Humedad	81
163661	7	Sololá	719	Santiago Atitlán	14	Cerro de Oro	7	Julio	2023-07-30T00:00:00	2024-11-08T16:00:00	6	Velocidad del viento	11.3
163662	7	Sololá	719	Santiago Atitlán	14	Cerro de Oro	7	Julio	2023-07-30T00:00:00	2024-11-08T16:00:00	7	Dirección del viento	11.27
163663	7	Sololá	719	Santiago Atitlán	14	Cerro de Oro	7	Julio	2023-07-30T00:00:00	2024-11-08T16:00:00	1	Precipitación	0
163664	7	Sololá	719	Santiago Atitlán	14	Cerro de Oro	7	Julio	2023-07-30T00:00:00	2024-11-08T16:00:00	8	Radiación solar	412
163665	7	Sololá	719	Santiago Atitlán	14	Cerro de Oro	7	Julio	2023-07-30T00:00:00	2024-11-08T17:00:00	2	Temperatura media	22.9
163666	7	Sololá	719	Santiago Atitlán	14	Cerro de Oro	7	Julio	2023-07-30T00:00:00	2024-11-08T17:00:00	4	Temperatura máxima	23.6
163667	7	Sololá	719	Santiago Atitlán	14	Cerro de Oro	7	Julio	2023-07-30T00:00:00	2024-11-08T17:00:00	3	Temperatura mínima	22.7
163668	7	Sololá	719	Santiago Atitlán	14	Cerro de Oro	7	Julio	2023-07-30T00:00:00	2024-11-08T17:00:00	5	Humedad	82
163669	7	Sololá	719	Santiago Atitlán	14	Cerro de Oro	7	Julio	2023-07-30T00:00:00	2024-11-08T17:00:00	6	Velocidad del viento	6.4
163670	7	Sololá	719	Santiago Atitlán	14	Cerro de Oro	7	Julio	2023-07-30T00:00:00	2024-11-08T17:00:00	7	Dirección del viento	6.44
163671	7	Sololá	719	Santiago Atitlán	14	Cerro de Oro	7	Julio	2023-07-30T00:00:00	2024-11-08T17:00:00	1	Precipitación	0
163672	7	Sololá	719	Santiago Atitlán	14	Cerro de Oro	7	Julio	2023-07-30T00:00:00	2024-11-08T17:00:00	8	Radiación solar	307
163673	7	Sololá	719	Santiago Atitlán	14	Cerro de Oro	7	Julio	2023-07-30T00:00:00	2024-11-08T18:00:00	2	Temperatura media	23.2
163674	7	Sololá	719	Santiago Atitlán	14	Cerro de Oro	7	Julio	2023-07-30T00:00:00	2024-11-08T18:00:00	4	Temperatura máxima	23.6
163675	7	Sololá	719	Santiago Atitlán	14	Cerro de Oro	7	Julio	2023-07-30T00:00:00	2024-11-08T18:00:00	3	Temperatura mínima	22.7
163676	7	Sololá	719	Santiago Atitlán	14	Cerro de Oro	7	Julio	2023-07-30T00:00:00	2024-11-08T18:00:00	5	Humedad	81
163677	7	Sololá	719	Santiago Atitlán	14	Cerro de Oro	7	Julio	2023-07-30T00:00:00	2024-11-08T18:00:00	6	Velocidad del viento	6.4
163678	7	Sololá	719	Santiago Atitlán	14	Cerro de Oro	7	Julio	2023-07-30T00:00:00	2024-11-08T18:00:00	7	Dirección del viento	6.44
163679	7	Sololá	719	Santiago Atitlán	14	Cerro de Oro	7	Julio	2023-07-30T00:00:00	2024-11-08T18:00:00	1	Precipitación	0
163680	7	Sololá	719	Santiago Atitlán	14	Cerro de Oro	7	Julio	2023-07-30T00:00:00	2024-11-08T18:00:00	8	Radiación solar	184
163681	7	Sololá	719	Santiago Atitlán	14	Cerro de Oro	7	Julio	2023-07-30T00:00:00	2024-11-08T19:00:00	2	Temperatura media	21.8
163682	7	Sololá	719	Santiago Atitlán	14	Cerro de Oro	7	Julio	2023-07-30T00:00:00	2024-11-08T19:00:00	4	Temperatura máxima	23.2
163683	7	Sololá	719	Santiago Atitlán	14	Cerro de Oro	7	Julio	2023-07-30T00:00:00	2024-11-08T19:00:00	3	Temperatura mínima	21.7
163684	7	Sololá	719	Santiago Atitlán	14	Cerro de Oro	7	Julio	2023-07-30T00:00:00	2024-11-08T19:00:00	5	Humedad	84
163685	7	Sololá	719	Santiago Atitlán	14	Cerro de Oro	7	Julio	2023-07-30T00:00:00	2024-11-08T19:00:00	6	Velocidad del viento	6.4
163686	7	Sololá	719	Santiago Atitlán	14	Cerro de Oro	7	Julio	2023-07-30T00:00:00	2024-11-08T19:00:00	7	Dirección del viento	6.44
163687	7	Sololá	719	Santiago Atitlán	14	Cerro de Oro	7	Julio	2023-07-30T00:00:00	2024-11-08T19:00:00	1	Precipitación	0
163688	7	Sololá	719	Santiago Atitlán	14	Cerro de Oro	7	Julio	2023-07-30T00:00:00	2024-11-08T19:00:00	8	Radiación solar	0
163689	7	Sololá	719	Santiago Atitlán	14	Cerro de Oro	7	Julio	2023-07-30T00:00:00	2024-11-08T20:00:00	2	Temperatura media	20.9
163690	7	Sololá	719	Santiago Atitlán	14	Cerro de Oro	7	Julio	2023-07-30T00:00:00	2024-11-08T20:00:00	4	Temperatura máxima	21.7
163691	7	Sololá	719	Santiago Atitlán	14	Cerro de Oro	7	Julio	2023-07-30T00:00:00	2024-11-08T20:00:00	3	Temperatura mínima	20.9
163692	7	Sololá	719	Santiago Atitlán	14	Cerro de Oro	7	Julio	2023-07-30T00:00:00	2024-11-08T20:00:00	5	Humedad	85
163693	7	Sololá	719	Santiago Atitlán	14	Cerro de Oro	7	Julio	2023-07-30T00:00:00	2024-11-08T20:00:00	6	Velocidad del viento	3.2
163694	7	Sololá	719	Santiago Atitlán	14	Cerro de Oro	7	Julio	2023-07-30T00:00:00	2024-11-08T20:00:00	7	Dirección del viento	3.22
163695	7	Sololá	719	Santiago Atitlán	14	Cerro de Oro	7	Julio	2023-07-30T00:00:00	2024-11-08T20:00:00	1	Precipitación	0
163696	7	Sololá	719	Santiago Atitlán	14	Cerro de Oro	7	Julio	2023-07-30T00:00:00	2024-11-08T20:00:00	8	Radiación solar	0
163697	7	Sololá	719	Santiago Atitlán	14	Cerro de Oro	7	Julio	2023-07-30T00:00:00	2024-11-08T21:00:00	2	Temperatura media	20.8
163698	7	Sololá	719	Santiago Atitlán	14	Cerro de Oro	7	Julio	2023-07-30T00:00:00	2024-11-08T21:00:00	4	Temperatura máxima	21.2
163699	7	Sololá	719	Santiago Atitlán	14	Cerro de Oro	7	Julio	2023-07-30T00:00:00	2024-11-08T21:00:00	3	Temperatura mínima	20.7
163700	7	Sololá	719	Santiago Atitlán	14	Cerro de Oro	7	Julio	2023-07-30T00:00:00	2024-11-08T21:00:00	5	Humedad	84
163701	7	Sololá	719	Santiago Atitlán	14	Cerro de Oro	7	Julio	2023-07-30T00:00:00	2024-11-08T21:00:00	6	Velocidad del viento	3.2
163702	7	Sololá	719	Santiago Atitlán	14	Cerro de Oro	7	Julio	2023-07-30T00:00:00	2024-11-08T21:00:00	7	Dirección del viento	3.22
163703	7	Sololá	719	Santiago Atitlán	14	Cerro de Oro	7	Julio	2023-07-30T00:00:00	2024-11-08T21:00:00	1	Precipitación	0
163704	7	Sololá	719	Santiago Atitlán	14	Cerro de Oro	7	Julio	2023-07-30T00:00:00	2024-11-08T21:00:00	8	Radiación solar	0
163705	7	Sololá	719	Santiago Atitlán	14	Cerro de Oro	7	Julio	2023-07-30T00:00:00	2024-11-08T22:00:00	2	Temperatura media	21.1
163706	7	Sololá	719	Santiago Atitlán	14	Cerro de Oro	7	Julio	2023-07-30T00:00:00	2024-11-08T22:00:00	4	Temperatura máxima	21.2
163707	7	Sololá	719	Santiago Atitlán	14	Cerro de Oro	7	Julio	2023-07-30T00:00:00	2024-11-08T22:00:00	3	Temperatura mínima	20.7
163708	7	Sololá	719	Santiago Atitlán	14	Cerro de Oro	7	Julio	2023-07-30T00:00:00	2024-11-08T22:00:00	5	Humedad	77
163709	7	Sololá	719	Santiago Atitlán	14	Cerro de Oro	7	Julio	2023-07-30T00:00:00	2024-11-08T22:00:00	6	Velocidad del viento	3.2
163710	7	Sololá	719	Santiago Atitlán	14	Cerro de Oro	7	Julio	2023-07-30T00:00:00	2024-11-08T22:00:00	7	Dirección del viento	3.22
163711	7	Sololá	719	Santiago Atitlán	14	Cerro de Oro	7	Julio	2023-07-30T00:00:00	2024-11-08T22:00:00	1	Precipitación	0
163712	7	Sololá	719	Santiago Atitlán	14	Cerro de Oro	7	Julio	2023-07-30T00:00:00	2024-11-08T22:00:00	8	Radiación solar	0
163713	7	Sololá	719	Santiago Atitlán	14	Cerro de Oro	7	Julio	2023-07-30T00:00:00	2024-11-08T23:00:00	2	Temperatura media	20.3
163714	7	Sololá	719	Santiago Atitlán	14	Cerro de Oro	7	Julio	2023-07-30T00:00:00	2024-11-08T23:00:00	4	Temperatura máxima	21.3
163715	7	Sololá	719	Santiago Atitlán	14	Cerro de Oro	7	Julio	2023-07-30T00:00:00	2024-11-08T23:00:00	3	Temperatura mínima	20.3
163716	7	Sololá	719	Santiago Atitlán	14	Cerro de Oro	7	Julio	2023-07-30T00:00:00	2024-11-08T23:00:00	5	Humedad	78
163717	7	Sololá	719	Santiago Atitlán	14	Cerro de Oro	7	Julio	2023-07-30T00:00:00	2024-11-08T23:00:00	6	Velocidad del viento	8
163718	7	Sololá	719	Santiago Atitlán	14	Cerro de Oro	7	Julio	2023-07-30T00:00:00	2024-11-08T23:00:00	7	Dirección del viento	8.05
163719	7	Sololá	719	Santiago Atitlán	14	Cerro de Oro	7	Julio	2023-07-30T00:00:00	2024-11-08T23:00:00	1	Precipitación	0.6
163720	7	Sololá	719	Santiago Atitlán	14	Cerro de Oro	7	Julio	2023-07-30T00:00:00	2024-11-08T23:00:00	8	Radiación solar	0
163721	7	Sololá	719	Santiago Atitlán	14	Cerro de Oro	7	Julio	2023-07-31T00:00:00	2024-11-08T00:00:00	2	Temperatura media	18.6
163722	7	Sololá	719	Santiago Atitlán	14	Cerro de Oro	7	Julio	2023-07-31T00:00:00	2024-11-08T00:00:00	4	Temperatura máxima	20.3
163723	7	Sololá	719	Santiago Atitlán	14	Cerro de Oro	7	Julio	2023-07-31T00:00:00	2024-11-08T00:00:00	3	Temperatura mínima	18.2
163724	7	Sololá	719	Santiago Atitlán	14	Cerro de Oro	7	Julio	2023-07-31T00:00:00	2024-11-08T00:00:00	5	Humedad	86
163725	7	Sololá	719	Santiago Atitlán	14	Cerro de Oro	7	Julio	2023-07-31T00:00:00	2024-11-08T00:00:00	6	Velocidad del viento	6.4
163726	7	Sololá	719	Santiago Atitlán	14	Cerro de Oro	7	Julio	2023-07-31T00:00:00	2024-11-08T00:00:00	7	Dirección del viento	6.44
163727	7	Sololá	719	Santiago Atitlán	14	Cerro de Oro	7	Julio	2023-07-31T00:00:00	2024-11-08T00:00:00	1	Precipitación	1
163728	7	Sololá	719	Santiago Atitlán	14	Cerro de Oro	7	Julio	2023-07-31T00:00:00	2024-11-08T00:00:00	8	Radiación solar	0
163729	7	Sololá	719	Santiago Atitlán	14	Cerro de Oro	7	Julio	2023-07-31T00:00:00	2024-11-08T01:00:00	2	Temperatura media	19.1
163730	7	Sololá	719	Santiago Atitlán	14	Cerro de Oro	7	Julio	2023-07-31T00:00:00	2024-11-08T01:00:00	4	Temperatura máxima	19.1
163731	7	Sololá	719	Santiago Atitlán	14	Cerro de Oro	7	Julio	2023-07-31T00:00:00	2024-11-08T01:00:00	3	Temperatura mínima	18.3
163732	7	Sololá	719	Santiago Atitlán	14	Cerro de Oro	7	Julio	2023-07-31T00:00:00	2024-11-08T01:00:00	5	Humedad	80
163733	7	Sololá	719	Santiago Atitlán	14	Cerro de Oro	7	Julio	2023-07-31T00:00:00	2024-11-08T01:00:00	6	Velocidad del viento	8
163734	7	Sololá	719	Santiago Atitlán	14	Cerro de Oro	7	Julio	2023-07-31T00:00:00	2024-11-08T01:00:00	7	Dirección del viento	8.05
163735	7	Sololá	719	Santiago Atitlán	14	Cerro de Oro	7	Julio	2023-07-31T00:00:00	2024-11-08T01:00:00	1	Precipitación	0
163736	7	Sololá	719	Santiago Atitlán	14	Cerro de Oro	7	Julio	2023-07-31T00:00:00	2024-11-08T01:00:00	8	Radiación solar	0
163737	7	Sololá	719	Santiago Atitlán	14	Cerro de Oro	7	Julio	2023-07-31T00:00:00	2024-11-08T02:00:00	2	Temperatura media	17.7
163738	7	Sololá	719	Santiago Atitlán	14	Cerro de Oro	7	Julio	2023-07-31T00:00:00	2024-11-08T02:00:00	4	Temperatura máxima	19.6
163739	7	Sololá	719	Santiago Atitlán	14	Cerro de Oro	7	Julio	2023-07-31T00:00:00	2024-11-08T02:00:00	3	Temperatura mínima	17.7
163740	7	Sololá	719	Santiago Atitlán	14	Cerro de Oro	7	Julio	2023-07-31T00:00:00	2024-11-08T02:00:00	5	Humedad	88
163741	7	Sololá	719	Santiago Atitlán	14	Cerro de Oro	7	Julio	2023-07-31T00:00:00	2024-11-08T02:00:00	6	Velocidad del viento	9.7
163742	7	Sololá	719	Santiago Atitlán	14	Cerro de Oro	7	Julio	2023-07-31T00:00:00	2024-11-08T02:00:00	7	Dirección del viento	9.66
163743	7	Sololá	719	Santiago Atitlán	14	Cerro de Oro	7	Julio	2023-07-31T00:00:00	2024-11-08T02:00:00	1	Precipitación	4
163744	7	Sololá	719	Santiago Atitlán	14	Cerro de Oro	7	Julio	2023-07-31T00:00:00	2024-11-08T02:00:00	8	Radiación solar	0
163745	7	Sololá	719	Santiago Atitlán	14	Cerro de Oro	7	Julio	2023-07-31T00:00:00	2024-11-08T03:00:00	2	Temperatura media	17.1
163746	7	Sololá	719	Santiago Atitlán	14	Cerro de Oro	7	Julio	2023-07-31T00:00:00	2024-11-08T03:00:00	4	Temperatura máxima	18.1
163747	7	Sololá	719	Santiago Atitlán	14	Cerro de Oro	7	Julio	2023-07-31T00:00:00	2024-11-08T03:00:00	3	Temperatura mínima	17
163748	7	Sololá	719	Santiago Atitlán	14	Cerro de Oro	7	Julio	2023-07-31T00:00:00	2024-11-08T03:00:00	5	Humedad	87
163749	7	Sololá	719	Santiago Atitlán	14	Cerro de Oro	7	Julio	2023-07-31T00:00:00	2024-11-08T03:00:00	6	Velocidad del viento	6.4
163750	7	Sololá	719	Santiago Atitlán	14	Cerro de Oro	7	Julio	2023-07-31T00:00:00	2024-11-08T03:00:00	7	Dirección del viento	6.44
163751	7	Sololá	719	Santiago Atitlán	14	Cerro de Oro	7	Julio	2023-07-31T00:00:00	2024-11-08T03:00:00	1	Precipitación	3.2
163752	7	Sololá	719	Santiago Atitlán	14	Cerro de Oro	7	Julio	2023-07-31T00:00:00	2024-11-08T03:00:00	8	Radiación solar	0
163753	7	Sololá	719	Santiago Atitlán	14	Cerro de Oro	7	Julio	2023-07-31T00:00:00	2024-11-08T04:00:00	2	Temperatura media	17.2
163754	7	Sololá	719	Santiago Atitlán	14	Cerro de Oro	7	Julio	2023-07-31T00:00:00	2024-11-08T04:00:00	4	Temperatura máxima	17.2
163755	7	Sololá	719	Santiago Atitlán	14	Cerro de Oro	7	Julio	2023-07-31T00:00:00	2024-11-08T04:00:00	3	Temperatura mínima	16.6
163756	7	Sololá	719	Santiago Atitlán	14	Cerro de Oro	7	Julio	2023-07-31T00:00:00	2024-11-08T04:00:00	5	Humedad	86
163757	7	Sololá	719	Santiago Atitlán	14	Cerro de Oro	7	Julio	2023-07-31T00:00:00	2024-11-08T04:00:00	6	Velocidad del viento	6.4
163758	7	Sololá	719	Santiago Atitlán	14	Cerro de Oro	7	Julio	2023-07-31T00:00:00	2024-11-08T04:00:00	7	Dirección del viento	6.44
163759	7	Sololá	719	Santiago Atitlán	14	Cerro de Oro	7	Julio	2023-07-31T00:00:00	2024-11-08T04:00:00	1	Precipitación	0.2
163760	7	Sololá	719	Santiago Atitlán	14	Cerro de Oro	7	Julio	2023-07-31T00:00:00	2024-11-08T04:00:00	8	Radiación solar	0
163761	7	Sololá	719	Santiago Atitlán	14	Cerro de Oro	7	Julio	2023-07-31T00:00:00	2024-11-08T05:00:00	2	Temperatura media	16.7
163762	7	Sololá	719	Santiago Atitlán	14	Cerro de Oro	7	Julio	2023-07-31T00:00:00	2024-11-08T05:00:00	4	Temperatura máxima	17.4
163763	7	Sololá	719	Santiago Atitlán	14	Cerro de Oro	7	Julio	2023-07-31T00:00:00	2024-11-08T05:00:00	3	Temperatura mínima	16.7
163764	7	Sololá	719	Santiago Atitlán	14	Cerro de Oro	7	Julio	2023-07-31T00:00:00	2024-11-08T05:00:00	5	Humedad	88
163765	7	Sololá	719	Santiago Atitlán	14	Cerro de Oro	7	Julio	2023-07-31T00:00:00	2024-11-08T05:00:00	6	Velocidad del viento	4.8
163766	7	Sololá	719	Santiago Atitlán	14	Cerro de Oro	7	Julio	2023-07-31T00:00:00	2024-11-08T05:00:00	7	Dirección del viento	4.83
163767	7	Sololá	719	Santiago Atitlán	14	Cerro de Oro	7	Julio	2023-07-31T00:00:00	2024-11-08T05:00:00	1	Precipitación	0.4
163768	7	Sololá	719	Santiago Atitlán	14	Cerro de Oro	7	Julio	2023-07-31T00:00:00	2024-11-08T05:00:00	8	Radiación solar	0
163769	7	Sololá	719	Santiago Atitlán	14	Cerro de Oro	7	Julio	2023-07-31T00:00:00	2024-11-08T06:00:00	2	Temperatura media	17.1
163770	7	Sololá	719	Santiago Atitlán	14	Cerro de Oro	7	Julio	2023-07-31T00:00:00	2024-11-08T06:00:00	4	Temperatura máxima	17.1
163771	7	Sololá	719	Santiago Atitlán	14	Cerro de Oro	7	Julio	2023-07-31T00:00:00	2024-11-08T06:00:00	3	Temperatura mínima	16.3
163772	7	Sololá	719	Santiago Atitlán	14	Cerro de Oro	7	Julio	2023-07-31T00:00:00	2024-11-08T06:00:00	5	Humedad	88
163773	7	Sololá	719	Santiago Atitlán	14	Cerro de Oro	7	Julio	2023-07-31T00:00:00	2024-11-08T06:00:00	6	Velocidad del viento	4.8
163774	7	Sololá	719	Santiago Atitlán	14	Cerro de Oro	7	Julio	2023-07-31T00:00:00	2024-11-08T06:00:00	7	Dirección del viento	4.83
163775	7	Sololá	719	Santiago Atitlán	14	Cerro de Oro	7	Julio	2023-07-31T00:00:00	2024-11-08T06:00:00	1	Precipitación	0
163776	7	Sololá	719	Santiago Atitlán	14	Cerro de Oro	7	Julio	2023-07-31T00:00:00	2024-11-08T06:00:00	8	Radiación solar	2
163777	7	Sololá	719	Santiago Atitlán	14	Cerro de Oro	7	Julio	2023-07-31T00:00:00	2024-11-08T07:00:00	2	Temperatura media	19.4
163778	7	Sololá	719	Santiago Atitlán	14	Cerro de Oro	7	Julio	2023-07-31T00:00:00	2024-11-08T07:00:00	4	Temperatura máxima	19.4
163779	7	Sololá	719	Santiago Atitlán	14	Cerro de Oro	7	Julio	2023-07-31T00:00:00	2024-11-08T07:00:00	3	Temperatura mínima	16.8
163780	7	Sololá	719	Santiago Atitlán	14	Cerro de Oro	7	Julio	2023-07-31T00:00:00	2024-11-08T07:00:00	5	Humedad	81
163781	7	Sololá	719	Santiago Atitlán	14	Cerro de Oro	7	Julio	2023-07-31T00:00:00	2024-11-08T07:00:00	6	Velocidad del viento	4.8
163782	7	Sololá	719	Santiago Atitlán	14	Cerro de Oro	7	Julio	2023-07-31T00:00:00	2024-11-08T07:00:00	7	Dirección del viento	4.83
163783	7	Sololá	719	Santiago Atitlán	14	Cerro de Oro	7	Julio	2023-07-31T00:00:00	2024-11-08T07:00:00	1	Precipitación	0
163784	7	Sololá	719	Santiago Atitlán	14	Cerro de Oro	7	Julio	2023-07-31T00:00:00	2024-11-08T07:00:00	8	Radiación solar	93
163785	7	Sololá	719	Santiago Atitlán	14	Cerro de Oro	7	Julio	2023-07-31T00:00:00	2024-11-08T08:00:00	2	Temperatura media	20.8
163786	7	Sololá	719	Santiago Atitlán	14	Cerro de Oro	7	Julio	2023-07-31T00:00:00	2024-11-08T08:00:00	4	Temperatura máxima	20.8
163787	7	Sololá	719	Santiago Atitlán	14	Cerro de Oro	7	Julio	2023-07-31T00:00:00	2024-11-08T08:00:00	3	Temperatura mínima	19.4
163788	7	Sololá	719	Santiago Atitlán	14	Cerro de Oro	7	Julio	2023-07-31T00:00:00	2024-11-08T08:00:00	5	Humedad	74
163789	7	Sololá	719	Santiago Atitlán	14	Cerro de Oro	7	Julio	2023-07-31T00:00:00	2024-11-08T08:00:00	6	Velocidad del viento	3.2
163790	7	Sololá	719	Santiago Atitlán	14	Cerro de Oro	7	Julio	2023-07-31T00:00:00	2024-11-08T08:00:00	7	Dirección del viento	3.22
163791	7	Sololá	719	Santiago Atitlán	14	Cerro de Oro	7	Julio	2023-07-31T00:00:00	2024-11-08T08:00:00	1	Precipitación	0
163792	7	Sololá	719	Santiago Atitlán	14	Cerro de Oro	7	Julio	2023-07-31T00:00:00	2024-11-08T08:00:00	8	Radiación solar	206
163793	7	Sololá	719	Santiago Atitlán	14	Cerro de Oro	7	Julio	2023-07-31T00:00:00	2024-11-08T09:00:00	2	Temperatura media	22.4
163794	7	Sololá	719	Santiago Atitlán	14	Cerro de Oro	7	Julio	2023-07-31T00:00:00	2024-11-08T09:00:00	4	Temperatura máxima	22.9
163795	7	Sololá	719	Santiago Atitlán	14	Cerro de Oro	7	Julio	2023-07-31T00:00:00	2024-11-08T09:00:00	3	Temperatura mínima	20.8
163796	7	Sololá	719	Santiago Atitlán	14	Cerro de Oro	7	Julio	2023-07-31T00:00:00	2024-11-08T09:00:00	5	Humedad	68
163797	7	Sololá	719	Santiago Atitlán	14	Cerro de Oro	7	Julio	2023-07-31T00:00:00	2024-11-08T09:00:00	6	Velocidad del viento	3.2
163798	7	Sololá	719	Santiago Atitlán	14	Cerro de Oro	7	Julio	2023-07-31T00:00:00	2024-11-08T09:00:00	7	Dirección del viento	3.22
163799	7	Sololá	719	Santiago Atitlán	14	Cerro de Oro	7	Julio	2023-07-31T00:00:00	2024-11-08T09:00:00	1	Precipitación	0
163800	7	Sololá	719	Santiago Atitlán	14	Cerro de Oro	7	Julio	2023-07-31T00:00:00	2024-11-08T09:00:00	8	Radiación solar	329
163801	7	Sololá	719	Santiago Atitlán	14	Cerro de Oro	7	Julio	2023-07-31T00:00:00	2024-11-08T10:00:00	2	Temperatura media	24.7
163802	7	Sololá	719	Santiago Atitlán	14	Cerro de Oro	7	Julio	2023-07-31T00:00:00	2024-11-08T10:00:00	4	Temperatura máxima	24.7
163803	7	Sololá	719	Santiago Atitlán	14	Cerro de Oro	7	Julio	2023-07-31T00:00:00	2024-11-08T10:00:00	3	Temperatura mínima	22.4
163804	7	Sololá	719	Santiago Atitlán	14	Cerro de Oro	7	Julio	2023-07-31T00:00:00	2024-11-08T10:00:00	5	Humedad	65
163805	7	Sololá	719	Santiago Atitlán	14	Cerro de Oro	7	Julio	2023-07-31T00:00:00	2024-11-08T10:00:00	6	Velocidad del viento	3.2
163806	7	Sololá	719	Santiago Atitlán	14	Cerro de Oro	7	Julio	2023-07-31T00:00:00	2024-11-08T10:00:00	7	Dirección del viento	3.22
163807	7	Sololá	719	Santiago Atitlán	14	Cerro de Oro	7	Julio	2023-07-31T00:00:00	2024-11-08T10:00:00	1	Precipitación	0
163808	7	Sololá	719	Santiago Atitlán	14	Cerro de Oro	7	Julio	2023-07-31T00:00:00	2024-11-08T10:00:00	8	Radiación solar	760
163809	7	Sololá	719	Santiago Atitlán	14	Cerro de Oro	7	Julio	2023-07-31T00:00:00	2024-11-08T11:00:00	2	Temperatura media	24.3
163810	7	Sololá	719	Santiago Atitlán	14	Cerro de Oro	7	Julio	2023-07-31T00:00:00	2024-11-08T11:00:00	4	Temperatura máxima	24.7
163811	7	Sololá	719	Santiago Atitlán	14	Cerro de Oro	7	Julio	2023-07-31T00:00:00	2024-11-08T11:00:00	3	Temperatura mínima	23.9
163812	7	Sololá	719	Santiago Atitlán	14	Cerro de Oro	7	Julio	2023-07-31T00:00:00	2024-11-08T11:00:00	5	Humedad	69
163813	7	Sololá	719	Santiago Atitlán	14	Cerro de Oro	7	Julio	2023-07-31T00:00:00	2024-11-08T11:00:00	6	Velocidad del viento	3.2
163814	7	Sololá	719	Santiago Atitlán	14	Cerro de Oro	7	Julio	2023-07-31T00:00:00	2024-11-08T11:00:00	7	Dirección del viento	3.22
163815	7	Sololá	719	Santiago Atitlán	14	Cerro de Oro	7	Julio	2023-07-31T00:00:00	2024-11-08T11:00:00	1	Precipitación	0
163816	7	Sololá	719	Santiago Atitlán	14	Cerro de Oro	7	Julio	2023-07-31T00:00:00	2024-11-08T11:00:00	8	Radiación solar	436
163817	7	Sololá	719	Santiago Atitlán	14	Cerro de Oro	7	Julio	2023-07-31T00:00:00	2024-11-08T12:00:00	2	Temperatura media	25.8
163818	7	Sololá	719	Santiago Atitlán	14	Cerro de Oro	7	Julio	2023-07-31T00:00:00	2024-11-08T12:00:00	4	Temperatura máxima	25.8
163819	7	Sololá	719	Santiago Atitlán	14	Cerro de Oro	7	Julio	2023-07-31T00:00:00	2024-11-08T12:00:00	3	Temperatura mínima	24.3
163820	7	Sololá	719	Santiago Atitlán	14	Cerro de Oro	7	Julio	2023-07-31T00:00:00	2024-11-08T12:00:00	5	Humedad	61
163821	7	Sololá	719	Santiago Atitlán	14	Cerro de Oro	7	Julio	2023-07-31T00:00:00	2024-11-08T12:00:00	6	Velocidad del viento	6.4
163822	7	Sololá	719	Santiago Atitlán	14	Cerro de Oro	7	Julio	2023-07-31T00:00:00	2024-11-08T12:00:00	7	Dirección del viento	6.44
163823	7	Sololá	719	Santiago Atitlán	14	Cerro de Oro	7	Julio	2023-07-31T00:00:00	2024-11-08T12:00:00	1	Precipitación	0
163824	7	Sololá	719	Santiago Atitlán	14	Cerro de Oro	7	Julio	2023-07-31T00:00:00	2024-11-08T12:00:00	8	Radiación solar	548
163825	7	Sololá	719	Santiago Atitlán	14	Cerro de Oro	7	Julio	2023-07-31T00:00:00	2024-11-08T13:00:00	2	Temperatura media	26.9
163826	7	Sololá	719	Santiago Atitlán	14	Cerro de Oro	7	Julio	2023-07-31T00:00:00	2024-11-08T13:00:00	4	Temperatura máxima	27
163827	7	Sololá	719	Santiago Atitlán	14	Cerro de Oro	7	Julio	2023-07-31T00:00:00	2024-11-08T13:00:00	3	Temperatura mínima	25.4
163828	7	Sololá	719	Santiago Atitlán	14	Cerro de Oro	7	Julio	2023-07-31T00:00:00	2024-11-08T13:00:00	5	Humedad	66
163829	7	Sololá	719	Santiago Atitlán	14	Cerro de Oro	7	Julio	2023-07-31T00:00:00	2024-11-08T13:00:00	6	Velocidad del viento	4.8
163830	7	Sololá	719	Santiago Atitlán	14	Cerro de Oro	7	Julio	2023-07-31T00:00:00	2024-11-08T13:00:00	7	Dirección del viento	4.83
163831	7	Sololá	719	Santiago Atitlán	14	Cerro de Oro	7	Julio	2023-07-31T00:00:00	2024-11-08T13:00:00	1	Precipitación	0
163832	7	Sololá	719	Santiago Atitlán	14	Cerro de Oro	7	Julio	2023-07-31T00:00:00	2024-11-08T13:00:00	8	Radiación solar	817
163833	7	Sololá	719	Santiago Atitlán	14	Cerro de Oro	7	Julio	2023-07-31T00:00:00	2024-11-08T14:00:00	2	Temperatura media	25.5
163834	7	Sololá	719	Santiago Atitlán	14	Cerro de Oro	7	Julio	2023-07-31T00:00:00	2024-11-08T14:00:00	4	Temperatura máxima	26.8
163835	7	Sololá	719	Santiago Atitlán	14	Cerro de Oro	7	Julio	2023-07-31T00:00:00	2024-11-08T14:00:00	3	Temperatura mínima	25.4
163836	7	Sololá	719	Santiago Atitlán	14	Cerro de Oro	7	Julio	2023-07-31T00:00:00	2024-11-08T14:00:00	5	Humedad	72
163837	7	Sololá	719	Santiago Atitlán	14	Cerro de Oro	7	Julio	2023-07-31T00:00:00	2024-11-08T14:00:00	6	Velocidad del viento	11.3
163838	7	Sololá	719	Santiago Atitlán	14	Cerro de Oro	7	Julio	2023-07-31T00:00:00	2024-11-08T14:00:00	7	Dirección del viento	11.27
163839	7	Sololá	719	Santiago Atitlán	14	Cerro de Oro	7	Julio	2023-07-31T00:00:00	2024-11-08T14:00:00	1	Precipitación	0
163840	7	Sololá	719	Santiago Atitlán	14	Cerro de Oro	7	Julio	2023-07-31T00:00:00	2024-11-08T14:00:00	8	Radiación solar	923
163841	7	Sololá	719	Santiago Atitlán	14	Cerro de Oro	7	Julio	2023-07-31T00:00:00	2024-11-08T15:00:00	2	Temperatura media	24.3
163842	7	Sololá	719	Santiago Atitlán	14	Cerro de Oro	7	Julio	2023-07-31T00:00:00	2024-11-08T15:00:00	4	Temperatura máxima	25.7
163843	7	Sololá	719	Santiago Atitlán	14	Cerro de Oro	7	Julio	2023-07-31T00:00:00	2024-11-08T15:00:00	3	Temperatura mínima	24.3
163844	7	Sololá	719	Santiago Atitlán	14	Cerro de Oro	7	Julio	2023-07-31T00:00:00	2024-11-08T15:00:00	5	Humedad	76
163845	7	Sololá	719	Santiago Atitlán	14	Cerro de Oro	7	Julio	2023-07-31T00:00:00	2024-11-08T15:00:00	6	Velocidad del viento	12.9
163846	7	Sololá	719	Santiago Atitlán	14	Cerro de Oro	7	Julio	2023-07-31T00:00:00	2024-11-08T15:00:00	7	Dirección del viento	12.87
163847	7	Sololá	719	Santiago Atitlán	14	Cerro de Oro	7	Julio	2023-07-31T00:00:00	2024-11-08T15:00:00	1	Precipitación	0
163848	7	Sololá	719	Santiago Atitlán	14	Cerro de Oro	7	Julio	2023-07-31T00:00:00	2024-11-08T15:00:00	8	Radiación solar	780
163849	7	Sololá	719	Santiago Atitlán	14	Cerro de Oro	7	Julio	2023-07-31T00:00:00	2024-11-08T16:00:00	2	Temperatura media	23.2
163850	7	Sololá	719	Santiago Atitlán	14	Cerro de Oro	7	Julio	2023-07-31T00:00:00	2024-11-08T16:00:00	4	Temperatura máxima	24.8
163851	7	Sololá	719	Santiago Atitlán	14	Cerro de Oro	7	Julio	2023-07-31T00:00:00	2024-11-08T16:00:00	3	Temperatura mínima	23.1
163852	7	Sololá	719	Santiago Atitlán	14	Cerro de Oro	7	Julio	2023-07-31T00:00:00	2024-11-08T16:00:00	5	Humedad	80
163853	7	Sololá	719	Santiago Atitlán	14	Cerro de Oro	7	Julio	2023-07-31T00:00:00	2024-11-08T16:00:00	6	Velocidad del viento	14.5
163854	7	Sololá	719	Santiago Atitlán	14	Cerro de Oro	7	Julio	2023-07-31T00:00:00	2024-11-08T16:00:00	7	Dirección del viento	14.48
163855	7	Sololá	719	Santiago Atitlán	14	Cerro de Oro	7	Julio	2023-07-31T00:00:00	2024-11-08T16:00:00	1	Precipitación	0
163856	7	Sololá	719	Santiago Atitlán	14	Cerro de Oro	7	Julio	2023-07-31T00:00:00	2024-11-08T16:00:00	8	Radiación solar	588
163857	7	Sololá	719	Santiago Atitlán	14	Cerro de Oro	7	Julio	2023-07-31T00:00:00	2024-11-08T17:00:00	2	Temperatura media	22
163858	7	Sololá	719	Santiago Atitlán	14	Cerro de Oro	7	Julio	2023-07-31T00:00:00	2024-11-08T17:00:00	4	Temperatura máxima	23.8
163859	7	Sololá	719	Santiago Atitlán	14	Cerro de Oro	7	Julio	2023-07-31T00:00:00	2024-11-08T17:00:00	3	Temperatura mínima	21.9
163860	7	Sololá	719	Santiago Atitlán	14	Cerro de Oro	7	Julio	2023-07-31T00:00:00	2024-11-08T17:00:00	5	Humedad	84
163861	7	Sololá	719	Santiago Atitlán	14	Cerro de Oro	7	Julio	2023-07-31T00:00:00	2024-11-08T17:00:00	6	Velocidad del viento	9.7
163862	7	Sololá	719	Santiago Atitlán	14	Cerro de Oro	7	Julio	2023-07-31T00:00:00	2024-11-08T17:00:00	7	Dirección del viento	9.66
163863	7	Sololá	719	Santiago Atitlán	14	Cerro de Oro	7	Julio	2023-07-31T00:00:00	2024-11-08T17:00:00	1	Precipitación	0
163864	7	Sololá	719	Santiago Atitlán	14	Cerro de Oro	7	Julio	2023-07-31T00:00:00	2024-11-08T17:00:00	8	Radiación solar	216
163865	7	Sololá	719	Santiago Atitlán	14	Cerro de Oro	7	Julio	2023-07-31T00:00:00	2024-11-08T18:00:00	2	Temperatura media	22.3
163866	7	Sololá	719	Santiago Atitlán	14	Cerro de Oro	7	Julio	2023-07-31T00:00:00	2024-11-08T18:00:00	4	Temperatura máxima	22.3
163867	7	Sololá	719	Santiago Atitlán	14	Cerro de Oro	7	Julio	2023-07-31T00:00:00	2024-11-08T18:00:00	3	Temperatura mínima	21.7
163868	7	Sololá	719	Santiago Atitlán	14	Cerro de Oro	7	Julio	2023-07-31T00:00:00	2024-11-08T18:00:00	5	Humedad	84
163869	7	Sololá	719	Santiago Atitlán	14	Cerro de Oro	7	Julio	2023-07-31T00:00:00	2024-11-08T18:00:00	6	Velocidad del viento	4.8
163870	7	Sololá	719	Santiago Atitlán	14	Cerro de Oro	7	Julio	2023-07-31T00:00:00	2024-11-08T18:00:00	7	Dirección del viento	4.83
163871	7	Sololá	719	Santiago Atitlán	14	Cerro de Oro	7	Julio	2023-07-31T00:00:00	2024-11-08T18:00:00	1	Precipitación	0
163872	7	Sololá	719	Santiago Atitlán	14	Cerro de Oro	7	Julio	2023-07-31T00:00:00	2024-11-08T18:00:00	8	Radiación solar	118
163873	7	Sololá	719	Santiago Atitlán	14	Cerro de Oro	7	Julio	2023-07-31T00:00:00	2024-11-08T19:00:00	2	Temperatura media	21.3
163874	7	Sololá	719	Santiago Atitlán	14	Cerro de Oro	7	Julio	2023-07-31T00:00:00	2024-11-08T19:00:00	4	Temperatura máxima	22.3
163875	7	Sololá	719	Santiago Atitlán	14	Cerro de Oro	7	Julio	2023-07-31T00:00:00	2024-11-08T19:00:00	3	Temperatura mínima	21.2
163876	7	Sololá	719	Santiago Atitlán	14	Cerro de Oro	7	Julio	2023-07-31T00:00:00	2024-11-08T19:00:00	5	Humedad	84
163877	7	Sololá	719	Santiago Atitlán	14	Cerro de Oro	7	Julio	2023-07-31T00:00:00	2024-11-08T19:00:00	6	Velocidad del viento	3.2
163878	7	Sololá	719	Santiago Atitlán	14	Cerro de Oro	7	Julio	2023-07-31T00:00:00	2024-11-08T19:00:00	7	Dirección del viento	3.22
163879	7	Sololá	719	Santiago Atitlán	14	Cerro de Oro	7	Julio	2023-07-31T00:00:00	2024-11-08T19:00:00	1	Precipitación	0
163880	7	Sololá	719	Santiago Atitlán	14	Cerro de Oro	7	Julio	2023-07-31T00:00:00	2024-11-08T19:00:00	8	Radiación solar	0
163881	7	Sololá	719	Santiago Atitlán	14	Cerro de Oro	7	Julio	2023-07-31T00:00:00	2024-11-08T20:00:00	2	Temperatura media	20.9
163882	7	Sololá	719	Santiago Atitlán	14	Cerro de Oro	7	Julio	2023-07-31T00:00:00	2024-11-08T20:00:00	4	Temperatura máxima	21.4
163883	7	Sololá	719	Santiago Atitlán	14	Cerro de Oro	7	Julio	2023-07-31T00:00:00	2024-11-08T20:00:00	3	Temperatura mínima	20.8
163884	7	Sololá	719	Santiago Atitlán	14	Cerro de Oro	7	Julio	2023-07-31T00:00:00	2024-11-08T20:00:00	5	Humedad	83
163885	7	Sololá	719	Santiago Atitlán	14	Cerro de Oro	7	Julio	2023-07-31T00:00:00	2024-11-08T20:00:00	6	Velocidad del viento	3.2
163886	7	Sololá	719	Santiago Atitlán	14	Cerro de Oro	7	Julio	2023-07-31T00:00:00	2024-11-08T20:00:00	7	Dirección del viento	3.22
163887	7	Sololá	719	Santiago Atitlán	14	Cerro de Oro	7	Julio	2023-07-31T00:00:00	2024-11-08T20:00:00	1	Precipitación	0
163888	7	Sololá	719	Santiago Atitlán	14	Cerro de Oro	7	Julio	2023-07-31T00:00:00	2024-11-08T20:00:00	8	Radiación solar	0
163889	7	Sololá	719	Santiago Atitlán	14	Cerro de Oro	7	Julio	2023-07-31T00:00:00	2024-11-08T21:00:00	2	Temperatura media	21.2
163890	7	Sololá	719	Santiago Atitlán	14	Cerro de Oro	7	Julio	2023-07-31T00:00:00	2024-11-08T21:00:00	4	Temperatura máxima	21.2
163891	7	Sololá	719	Santiago Atitlán	14	Cerro de Oro	7	Julio	2023-07-31T00:00:00	2024-11-08T21:00:00	3	Temperatura mínima	20.8
163892	7	Sololá	719	Santiago Atitlán	14	Cerro de Oro	7	Julio	2023-07-31T00:00:00	2024-11-08T21:00:00	5	Humedad	76
163893	7	Sololá	719	Santiago Atitlán	14	Cerro de Oro	7	Julio	2023-07-31T00:00:00	2024-11-08T21:00:00	6	Velocidad del viento	4.8
163894	7	Sololá	719	Santiago Atitlán	14	Cerro de Oro	7	Julio	2023-07-31T00:00:00	2024-11-08T21:00:00	7	Dirección del viento	4.83
163895	7	Sololá	719	Santiago Atitlán	14	Cerro de Oro	7	Julio	2023-07-31T00:00:00	2024-11-08T21:00:00	1	Precipitación	0
163896	7	Sololá	719	Santiago Atitlán	14	Cerro de Oro	7	Julio	2023-07-31T00:00:00	2024-11-08T21:00:00	8	Radiación solar	0
163897	7	Sololá	719	Santiago Atitlán	14	Cerro de Oro	7	Julio	2023-07-31T00:00:00	2024-11-08T22:00:00	2	Temperatura media	21.2
163898	7	Sololá	719	Santiago Atitlán	14	Cerro de Oro	7	Julio	2023-07-31T00:00:00	2024-11-08T22:00:00	4	Temperatura máxima	21.6
163899	7	Sololá	719	Santiago Atitlán	14	Cerro de Oro	7	Julio	2023-07-31T00:00:00	2024-11-08T22:00:00	3	Temperatura mínima	21.2
163900	7	Sololá	719	Santiago Atitlán	14	Cerro de Oro	7	Julio	2023-07-31T00:00:00	2024-11-08T22:00:00	5	Humedad	75
163901	7	Sololá	719	Santiago Atitlán	14	Cerro de Oro	7	Julio	2023-07-31T00:00:00	2024-11-08T22:00:00	6	Velocidad del viento	8
163902	7	Sololá	719	Santiago Atitlán	14	Cerro de Oro	7	Julio	2023-07-31T00:00:00	2024-11-08T22:00:00	7	Dirección del viento	8.05
163903	7	Sololá	719	Santiago Atitlán	14	Cerro de Oro	7	Julio	2023-07-31T00:00:00	2024-11-08T22:00:00	1	Precipitación	0
163904	7	Sololá	719	Santiago Atitlán	14	Cerro de Oro	7	Julio	2023-07-31T00:00:00	2024-11-08T22:00:00	8	Radiación solar	0
163905	7	Sololá	719	Santiago Atitlán	14	Cerro de Oro	7	Julio	2023-07-31T00:00:00	2024-11-08T23:00:00	2	Temperatura media	21
163906	7	Sololá	719	Santiago Atitlán	14	Cerro de Oro	7	Julio	2023-07-31T00:00:00	2024-11-08T23:00:00	4	Temperatura máxima	21.2
163907	7	Sololá	719	Santiago Atitlán	14	Cerro de Oro	7	Julio	2023-07-31T00:00:00	2024-11-08T23:00:00	3	Temperatura mínima	20.3
163908	7	Sololá	719	Santiago Atitlán	14	Cerro de Oro	7	Julio	2023-07-31T00:00:00	2024-11-08T23:00:00	5	Humedad	75
163909	7	Sololá	719	Santiago Atitlán	14	Cerro de Oro	7	Julio	2023-07-31T00:00:00	2024-11-08T23:00:00	6	Velocidad del viento	4.8
163910	7	Sololá	719	Santiago Atitlán	14	Cerro de Oro	7	Julio	2023-07-31T00:00:00	2024-11-08T23:00:00	7	Dirección del viento	4.83
163911	7	Sololá	719	Santiago Atitlán	14	Cerro de Oro	7	Julio	2023-07-31T00:00:00	2024-11-08T23:00:00	1	Precipitación	0
163912	7	Sololá	719	Santiago Atitlán	14	Cerro de Oro	7	Julio	2023-07-31T00:00:00	2024-11-08T23:00:00	8	Radiación solar	0
163913	7	Sololá	719	Santiago Atitlán	14	Cerro de Oro	8	Agosto	2023-01-08T00:00:00	2024-11-08T00:00:00	2	Temperatura media	19.9
163914	7	Sololá	719	Santiago Atitlán	14	Cerro de Oro	8	Agosto	2023-01-08T00:00:00	2024-11-08T00:00:00	4	Temperatura máxima	21.2
163915	7	Sololá	719	Santiago Atitlán	14	Cerro de Oro	8	Agosto	2023-01-08T00:00:00	2024-11-08T00:00:00	3	Temperatura mínima	19.9
163916	7	Sololá	719	Santiago Atitlán	14	Cerro de Oro	8	Agosto	2023-01-08T00:00:00	2024-11-08T00:00:00	5	Humedad	78
163917	7	Sololá	719	Santiago Atitlán	14	Cerro de Oro	8	Agosto	2023-01-08T00:00:00	2024-11-08T00:00:00	6	Velocidad del viento	4.8
163918	7	Sololá	719	Santiago Atitlán	14	Cerro de Oro	8	Agosto	2023-01-08T00:00:00	2024-11-08T00:00:00	7	Dirección del viento	4.83
163919	7	Sololá	719	Santiago Atitlán	14	Cerro de Oro	8	Agosto	2023-01-08T00:00:00	2024-11-08T00:00:00	1	Precipitación	0
163920	7	Sololá	719	Santiago Atitlán	14	Cerro de Oro	8	Agosto	2023-01-08T00:00:00	2024-11-08T00:00:00	8	Radiación solar	0
163921	7	Sololá	719	Santiago Atitlán	14	Cerro de Oro	8	Agosto	2023-01-08T00:00:00	2024-11-08T01:00:00	2	Temperatura media	19.9
163922	7	Sololá	719	Santiago Atitlán	14	Cerro de Oro	8	Agosto	2023-01-08T00:00:00	2024-11-08T01:00:00	4	Temperatura máxima	20.2
163923	7	Sololá	719	Santiago Atitlán	14	Cerro de Oro	8	Agosto	2023-01-08T00:00:00	2024-11-08T01:00:00	3	Temperatura mínima	19.8
163924	7	Sololá	719	Santiago Atitlán	14	Cerro de Oro	8	Agosto	2023-01-08T00:00:00	2024-11-08T01:00:00	5	Humedad	79
163925	7	Sololá	719	Santiago Atitlán	14	Cerro de Oro	8	Agosto	2023-01-08T00:00:00	2024-11-08T01:00:00	6	Velocidad del viento	4.8
163926	7	Sololá	719	Santiago Atitlán	14	Cerro de Oro	8	Agosto	2023-01-08T00:00:00	2024-11-08T01:00:00	7	Dirección del viento	4.83
163927	7	Sololá	719	Santiago Atitlán	14	Cerro de Oro	8	Agosto	2023-01-08T00:00:00	2024-11-08T01:00:00	1	Precipitación	0
163928	7	Sololá	719	Santiago Atitlán	14	Cerro de Oro	8	Agosto	2023-01-08T00:00:00	2024-11-08T01:00:00	8	Radiación solar	0
163929	7	Sololá	719	Santiago Atitlán	14	Cerro de Oro	8	Agosto	2023-01-08T00:00:00	2024-11-08T02:00:00	2	Temperatura media	19.6
163930	7	Sololá	719	Santiago Atitlán	14	Cerro de Oro	8	Agosto	2023-01-08T00:00:00	2024-11-08T02:00:00	4	Temperatura máxima	19.9
163931	7	Sololá	719	Santiago Atitlán	14	Cerro de Oro	8	Agosto	2023-01-08T00:00:00	2024-11-08T02:00:00	3	Temperatura mínima	19.6
163932	7	Sololá	719	Santiago Atitlán	14	Cerro de Oro	8	Agosto	2023-01-08T00:00:00	2024-11-08T02:00:00	5	Humedad	82
163933	7	Sololá	719	Santiago Atitlán	14	Cerro de Oro	8	Agosto	2023-01-08T00:00:00	2024-11-08T02:00:00	6	Velocidad del viento	3.2
163934	7	Sololá	719	Santiago Atitlán	14	Cerro de Oro	8	Agosto	2023-01-08T00:00:00	2024-11-08T02:00:00	7	Dirección del viento	3.22
163935	7	Sololá	719	Santiago Atitlán	14	Cerro de Oro	8	Agosto	2023-01-08T00:00:00	2024-11-08T02:00:00	1	Precipitación	0.2
163936	7	Sololá	719	Santiago Atitlán	14	Cerro de Oro	8	Agosto	2023-01-08T00:00:00	2024-11-08T02:00:00	8	Radiación solar	0
163937	7	Sololá	719	Santiago Atitlán	14	Cerro de Oro	8	Agosto	2023-01-08T00:00:00	2024-11-08T03:00:00	2	Temperatura media	18.2
163938	7	Sololá	719	Santiago Atitlán	14	Cerro de Oro	8	Agosto	2023-01-08T00:00:00	2024-11-08T03:00:00	4	Temperatura máxima	19.6
163939	7	Sololá	719	Santiago Atitlán	14	Cerro de Oro	8	Agosto	2023-01-08T00:00:00	2024-11-08T03:00:00	3	Temperatura mínima	18.1
163940	7	Sololá	719	Santiago Atitlán	14	Cerro de Oro	8	Agosto	2023-01-08T00:00:00	2024-11-08T03:00:00	5	Humedad	87
163941	7	Sololá	719	Santiago Atitlán	14	Cerro de Oro	8	Agosto	2023-01-08T00:00:00	2024-11-08T03:00:00	6	Velocidad del viento	6.4
163942	7	Sololá	719	Santiago Atitlán	14	Cerro de Oro	8	Agosto	2023-01-08T00:00:00	2024-11-08T03:00:00	7	Dirección del viento	6.44
163943	7	Sololá	719	Santiago Atitlán	14	Cerro de Oro	8	Agosto	2023-01-08T00:00:00	2024-11-08T03:00:00	1	Precipitación	1
163944	7	Sololá	719	Santiago Atitlán	14	Cerro de Oro	8	Agosto	2023-01-08T00:00:00	2024-11-08T03:00:00	8	Radiación solar	0
163945	7	Sololá	719	Santiago Atitlán	14	Cerro de Oro	8	Agosto	2023-01-08T00:00:00	2024-11-08T04:00:00	2	Temperatura media	18.4
163946	7	Sololá	719	Santiago Atitlán	14	Cerro de Oro	8	Agosto	2023-01-08T00:00:00	2024-11-08T04:00:00	4	Temperatura máxima	18.7
163947	7	Sololá	719	Santiago Atitlán	14	Cerro de Oro	8	Agosto	2023-01-08T00:00:00	2024-11-08T04:00:00	3	Temperatura mínima	18.2
163948	7	Sololá	719	Santiago Atitlán	14	Cerro de Oro	8	Agosto	2023-01-08T00:00:00	2024-11-08T04:00:00	5	Humedad	87
163949	7	Sololá	719	Santiago Atitlán	14	Cerro de Oro	8	Agosto	2023-01-08T00:00:00	2024-11-08T04:00:00	6	Velocidad del viento	4.8
163950	7	Sololá	719	Santiago Atitlán	14	Cerro de Oro	8	Agosto	2023-01-08T00:00:00	2024-11-08T04:00:00	7	Dirección del viento	4.83
163951	7	Sololá	719	Santiago Atitlán	14	Cerro de Oro	8	Agosto	2023-01-08T00:00:00	2024-11-08T04:00:00	1	Precipitación	0
163952	7	Sololá	719	Santiago Atitlán	14	Cerro de Oro	8	Agosto	2023-01-08T00:00:00	2024-11-08T04:00:00	8	Radiación solar	0
163953	7	Sololá	719	Santiago Atitlán	14	Cerro de Oro	8	Agosto	2023-01-08T00:00:00	2024-11-08T05:00:00	2	Temperatura media	18.1
163954	7	Sololá	719	Santiago Atitlán	14	Cerro de Oro	8	Agosto	2023-01-08T00:00:00	2024-11-08T05:00:00	4	Temperatura máxima	18.5
163955	7	Sololá	719	Santiago Atitlán	14	Cerro de Oro	8	Agosto	2023-01-08T00:00:00	2024-11-08T05:00:00	3	Temperatura mínima	17.9
163956	7	Sololá	719	Santiago Atitlán	14	Cerro de Oro	8	Agosto	2023-01-08T00:00:00	2024-11-08T05:00:00	5	Humedad	88
163957	7	Sololá	719	Santiago Atitlán	14	Cerro de Oro	8	Agosto	2023-01-08T00:00:00	2024-11-08T05:00:00	6	Velocidad del viento	3.2
163958	7	Sololá	719	Santiago Atitlán	14	Cerro de Oro	8	Agosto	2023-01-08T00:00:00	2024-11-08T05:00:00	7	Dirección del viento	3.22
163959	7	Sololá	719	Santiago Atitlán	14	Cerro de Oro	8	Agosto	2023-01-08T00:00:00	2024-11-08T05:00:00	1	Precipitación	0
163960	7	Sololá	719	Santiago Atitlán	14	Cerro de Oro	8	Agosto	2023-01-08T00:00:00	2024-11-08T05:00:00	8	Radiación solar	0
163961	7	Sololá	719	Santiago Atitlán	14	Cerro de Oro	8	Agosto	2023-01-08T00:00:00	2024-11-08T06:00:00	2	Temperatura media	18.3
163962	7	Sololá	719	Santiago Atitlán	14	Cerro de Oro	8	Agosto	2023-01-08T00:00:00	2024-11-08T06:00:00	4	Temperatura máxima	18.4
163963	7	Sololá	719	Santiago Atitlán	14	Cerro de Oro	8	Agosto	2023-01-08T00:00:00	2024-11-08T06:00:00	3	Temperatura mínima	17.9
163964	7	Sololá	719	Santiago Atitlán	14	Cerro de Oro	8	Agosto	2023-01-08T00:00:00	2024-11-08T06:00:00	5	Humedad	83
163965	7	Sololá	719	Santiago Atitlán	14	Cerro de Oro	8	Agosto	2023-01-08T00:00:00	2024-11-08T06:00:00	6	Velocidad del viento	4.8
163966	7	Sololá	719	Santiago Atitlán	14	Cerro de Oro	8	Agosto	2023-01-08T00:00:00	2024-11-08T06:00:00	7	Dirección del viento	4.83
163967	7	Sololá	719	Santiago Atitlán	14	Cerro de Oro	8	Agosto	2023-01-08T00:00:00	2024-11-08T06:00:00	1	Precipitación	0
163968	7	Sololá	719	Santiago Atitlán	14	Cerro de Oro	8	Agosto	2023-01-08T00:00:00	2024-11-08T06:00:00	8	Radiación solar	2
163969	7	Sololá	719	Santiago Atitlán	14	Cerro de Oro	8	Agosto	2023-01-08T00:00:00	2024-11-08T07:00:00	2	Temperatura media	21.4
163970	7	Sololá	719	Santiago Atitlán	14	Cerro de Oro	8	Agosto	2023-01-08T00:00:00	2024-11-08T07:00:00	4	Temperatura máxima	21.4
163971	7	Sololá	719	Santiago Atitlán	14	Cerro de Oro	8	Agosto	2023-01-08T00:00:00	2024-11-08T07:00:00	3	Temperatura mínima	18.3
163972	7	Sololá	719	Santiago Atitlán	14	Cerro de Oro	8	Agosto	2023-01-08T00:00:00	2024-11-08T07:00:00	5	Humedad	76
163973	7	Sololá	719	Santiago Atitlán	14	Cerro de Oro	8	Agosto	2023-01-08T00:00:00	2024-11-08T07:00:00	6	Velocidad del viento	3.2
163974	7	Sololá	719	Santiago Atitlán	14	Cerro de Oro	8	Agosto	2023-01-08T00:00:00	2024-11-08T07:00:00	7	Dirección del viento	3.22
163975	7	Sololá	719	Santiago Atitlán	14	Cerro de Oro	8	Agosto	2023-01-08T00:00:00	2024-11-08T07:00:00	1	Precipitación	0
163976	7	Sololá	719	Santiago Atitlán	14	Cerro de Oro	8	Agosto	2023-01-08T00:00:00	2024-11-08T07:00:00	8	Radiación solar	88
163977	7	Sololá	719	Santiago Atitlán	14	Cerro de Oro	8	Agosto	2023-01-08T00:00:00	2024-11-08T08:00:00	2	Temperatura media	21.4
163978	7	Sololá	719	Santiago Atitlán	14	Cerro de Oro	8	Agosto	2023-01-08T00:00:00	2024-11-08T08:00:00	4	Temperatura máxima	22.1
163979	7	Sololá	719	Santiago Atitlán	14	Cerro de Oro	8	Agosto	2023-01-08T00:00:00	2024-11-08T08:00:00	3	Temperatura mínima	21.4
163980	7	Sololá	719	Santiago Atitlán	14	Cerro de Oro	8	Agosto	2023-01-08T00:00:00	2024-11-08T08:00:00	5	Humedad	77
163981	7	Sololá	719	Santiago Atitlán	14	Cerro de Oro	8	Agosto	2023-01-08T00:00:00	2024-11-08T08:00:00	6	Velocidad del viento	3.2
163982	7	Sololá	719	Santiago Atitlán	14	Cerro de Oro	8	Agosto	2023-01-08T00:00:00	2024-11-08T08:00:00	7	Dirección del viento	3.22
163983	7	Sololá	719	Santiago Atitlán	14	Cerro de Oro	8	Agosto	2023-01-08T00:00:00	2024-11-08T08:00:00	1	Precipitación	0
163984	7	Sololá	719	Santiago Atitlán	14	Cerro de Oro	8	Agosto	2023-01-08T00:00:00	2024-11-08T08:00:00	8	Radiación solar	238
163985	7	Sololá	719	Santiago Atitlán	14	Cerro de Oro	8	Agosto	2023-01-08T00:00:00	2024-11-08T09:00:00	2	Temperatura media	23.7
163986	7	Sololá	719	Santiago Atitlán	14	Cerro de Oro	8	Agosto	2023-01-08T00:00:00	2024-11-08T09:00:00	4	Temperatura máxima	23.7
163987	7	Sololá	719	Santiago Atitlán	14	Cerro de Oro	8	Agosto	2023-01-08T00:00:00	2024-11-08T09:00:00	3	Temperatura mínima	21.5
163988	7	Sololá	719	Santiago Atitlán	14	Cerro de Oro	8	Agosto	2023-01-08T00:00:00	2024-11-08T09:00:00	5	Humedad	66
163989	7	Sololá	719	Santiago Atitlán	14	Cerro de Oro	8	Agosto	2023-01-08T00:00:00	2024-11-08T09:00:00	6	Velocidad del viento	3.2
163990	7	Sololá	719	Santiago Atitlán	14	Cerro de Oro	8	Agosto	2023-01-08T00:00:00	2024-11-08T09:00:00	7	Dirección del viento	3.22
163991	7	Sololá	719	Santiago Atitlán	14	Cerro de Oro	8	Agosto	2023-01-08T00:00:00	2024-11-08T09:00:00	1	Precipitación	0
163992	7	Sololá	719	Santiago Atitlán	14	Cerro de Oro	8	Agosto	2023-01-08T00:00:00	2024-11-08T09:00:00	8	Radiación solar	528
163993	7	Sololá	719	Santiago Atitlán	14	Cerro de Oro	8	Agosto	2023-01-08T00:00:00	2024-11-08T10:00:00	2	Temperatura media	24.5
163994	7	Sololá	719	Santiago Atitlán	14	Cerro de Oro	8	Agosto	2023-01-08T00:00:00	2024-11-08T10:00:00	4	Temperatura máxima	24.5
163995	7	Sololá	719	Santiago Atitlán	14	Cerro de Oro	8	Agosto	2023-01-08T00:00:00	2024-11-08T10:00:00	3	Temperatura mínima	23.7
163996	7	Sololá	719	Santiago Atitlán	14	Cerro de Oro	8	Agosto	2023-01-08T00:00:00	2024-11-08T10:00:00	5	Humedad	64
163997	7	Sololá	719	Santiago Atitlán	14	Cerro de Oro	8	Agosto	2023-01-08T00:00:00	2024-11-08T10:00:00	6	Velocidad del viento	3.2
163998	7	Sololá	719	Santiago Atitlán	14	Cerro de Oro	8	Agosto	2023-01-08T00:00:00	2024-11-08T10:00:00	7	Dirección del viento	3.22
163999	7	Sololá	719	Santiago Atitlán	14	Cerro de Oro	8	Agosto	2023-01-08T00:00:00	2024-11-08T10:00:00	1	Precipitación	0
164000	7	Sololá	719	Santiago Atitlán	14	Cerro de Oro	8	Agosto	2023-01-08T00:00:00	2024-11-08T10:00:00	8	Radiación solar	704
164001	7	Sololá	719	Santiago Atitlán	14	Cerro de Oro	8	Agosto	2023-01-08T00:00:00	2024-11-08T11:00:00	2	Temperatura media	24.7
164002	7	Sololá	719	Santiago Atitlán	14	Cerro de Oro	8	Agosto	2023-01-08T00:00:00	2024-11-08T11:00:00	4	Temperatura máxima	25.3
164003	7	Sololá	719	Santiago Atitlán	14	Cerro de Oro	8	Agosto	2023-01-08T00:00:00	2024-11-08T11:00:00	3	Temperatura mínima	24.1
164004	7	Sololá	719	Santiago Atitlán	14	Cerro de Oro	8	Agosto	2023-01-08T00:00:00	2024-11-08T11:00:00	5	Humedad	70
164005	7	Sololá	719	Santiago Atitlán	14	Cerro de Oro	8	Agosto	2023-01-08T00:00:00	2024-11-08T11:00:00	6	Velocidad del viento	4.8
164006	7	Sololá	719	Santiago Atitlán	14	Cerro de Oro	8	Agosto	2023-01-08T00:00:00	2024-11-08T11:00:00	7	Dirección del viento	4.83
164007	7	Sololá	719	Santiago Atitlán	14	Cerro de Oro	8	Agosto	2023-01-08T00:00:00	2024-11-08T11:00:00	1	Precipitación	0
164008	7	Sololá	719	Santiago Atitlán	14	Cerro de Oro	8	Agosto	2023-01-08T00:00:00	2024-11-08T11:00:00	8	Radiación solar	636
164009	7	Sololá	719	Santiago Atitlán	14	Cerro de Oro	8	Agosto	2023-01-08T00:00:00	2024-11-08T12:00:00	2	Temperatura media	26.4
164010	7	Sololá	719	Santiago Atitlán	14	Cerro de Oro	8	Agosto	2023-01-08T00:00:00	2024-11-08T12:00:00	4	Temperatura máxima	26.4
164011	7	Sololá	719	Santiago Atitlán	14	Cerro de Oro	8	Agosto	2023-01-08T00:00:00	2024-11-08T12:00:00	3	Temperatura mínima	26.4
164012	7	Sololá	719	Santiago Atitlán	14	Cerro de Oro	8	Agosto	2023-01-08T00:00:00	2024-11-08T12:00:00	5	Humedad	67
164013	7	Sololá	719	Santiago Atitlán	14	Cerro de Oro	8	Agosto	2023-01-08T00:00:00	2024-11-08T12:00:00	6	Velocidad del viento	11.3
164014	7	Sololá	719	Santiago Atitlán	14	Cerro de Oro	8	Agosto	2023-01-08T00:00:00	2024-11-08T12:00:00	7	Dirección del viento	0.19
164015	7	Sololá	719	Santiago Atitlán	14	Cerro de Oro	8	Agosto	2023-01-08T00:00:00	2024-11-08T12:00:00	1	Precipitación	0
164016	7	Sololá	719	Santiago Atitlán	14	Cerro de Oro	8	Agosto	2023-01-08T00:00:00	2024-11-08T12:00:00	8	Radiación solar	988
164017	7	Sololá	719	Santiago Atitlán	14	Cerro de Oro	8	Agosto	2023-01-08T00:00:00	2024-11-08T13:00:00	2	Temperatura media	25.9
164018	7	Sololá	719	Santiago Atitlán	14	Cerro de Oro	8	Agosto	2023-01-08T00:00:00	2024-11-08T13:00:00	4	Temperatura máxima	26
164019	7	Sololá	719	Santiago Atitlán	14	Cerro de Oro	8	Agosto	2023-01-08T00:00:00	2024-11-08T13:00:00	3	Temperatura mínima	25.3
164020	7	Sololá	719	Santiago Atitlán	14	Cerro de Oro	8	Agosto	2023-01-08T00:00:00	2024-11-08T13:00:00	5	Humedad	70
164021	7	Sololá	719	Santiago Atitlán	14	Cerro de Oro	8	Agosto	2023-01-08T00:00:00	2024-11-08T13:00:00	6	Velocidad del viento	12.9
164022	7	Sololá	719	Santiago Atitlán	14	Cerro de Oro	8	Agosto	2023-01-08T00:00:00	2024-11-08T13:00:00	7	Dirección del viento	12.87
164023	7	Sololá	719	Santiago Atitlán	14	Cerro de Oro	8	Agosto	2023-01-08T00:00:00	2024-11-08T13:00:00	1	Precipitación	0
164024	7	Sololá	719	Santiago Atitlán	14	Cerro de Oro	8	Agosto	2023-01-08T00:00:00	2024-11-08T13:00:00	8	Radiación solar	983
164025	7	Sololá	719	Santiago Atitlán	14	Cerro de Oro	8	Agosto	2023-01-08T00:00:00	2024-11-08T14:00:00	2	Temperatura media	25.1
164026	7	Sololá	719	Santiago Atitlán	14	Cerro de Oro	8	Agosto	2023-01-08T00:00:00	2024-11-08T14:00:00	4	Temperatura máxima	26.1
164027	7	Sololá	719	Santiago Atitlán	14	Cerro de Oro	8	Agosto	2023-01-08T00:00:00	2024-11-08T14:00:00	3	Temperatura mínima	25
164028	7	Sololá	719	Santiago Atitlán	14	Cerro de Oro	8	Agosto	2023-01-08T00:00:00	2024-11-08T14:00:00	5	Humedad	73
164029	7	Sololá	719	Santiago Atitlán	14	Cerro de Oro	8	Agosto	2023-01-08T00:00:00	2024-11-08T14:00:00	6	Velocidad del viento	9.7
164030	7	Sololá	719	Santiago Atitlán	14	Cerro de Oro	8	Agosto	2023-01-08T00:00:00	2024-11-08T14:00:00	7	Dirección del viento	9.66
164031	7	Sololá	719	Santiago Atitlán	14	Cerro de Oro	8	Agosto	2023-01-08T00:00:00	2024-11-08T14:00:00	1	Precipitación	0
164032	7	Sololá	719	Santiago Atitlán	14	Cerro de Oro	8	Agosto	2023-01-08T00:00:00	2024-11-08T14:00:00	8	Radiación solar	908
164033	7	Sololá	719	Santiago Atitlán	14	Cerro de Oro	8	Agosto	2023-01-08T00:00:00	2024-11-08T15:00:00	2	Temperatura media	24.6
164034	7	Sololá	719	Santiago Atitlán	14	Cerro de Oro	8	Agosto	2023-01-08T00:00:00	2024-11-08T15:00:00	4	Temperatura máxima	25.4
164035	7	Sololá	719	Santiago Atitlán	14	Cerro de Oro	8	Agosto	2023-01-08T00:00:00	2024-11-08T15:00:00	3	Temperatura mínima	24.4
164036	7	Sololá	719	Santiago Atitlán	14	Cerro de Oro	8	Agosto	2023-01-08T00:00:00	2024-11-08T15:00:00	5	Humedad	77
164037	7	Sololá	719	Santiago Atitlán	14	Cerro de Oro	8	Agosto	2023-01-08T00:00:00	2024-11-08T15:00:00	6	Velocidad del viento	12.9
164038	7	Sololá	719	Santiago Atitlán	14	Cerro de Oro	8	Agosto	2023-01-08T00:00:00	2024-11-08T15:00:00	7	Dirección del viento	12.87
164039	7	Sololá	719	Santiago Atitlán	14	Cerro de Oro	8	Agosto	2023-01-08T00:00:00	2024-11-08T15:00:00	1	Precipitación	0
164040	7	Sololá	719	Santiago Atitlán	14	Cerro de Oro	8	Agosto	2023-01-08T00:00:00	2024-11-08T15:00:00	8	Radiación solar	825
164041	7	Sololá	719	Santiago Atitlán	14	Cerro de Oro	8	Agosto	2023-01-08T00:00:00	2024-11-08T16:00:00	2	Temperatura media	20.9
164042	7	Sololá	719	Santiago Atitlán	14	Cerro de Oro	8	Agosto	2023-01-08T00:00:00	2024-11-08T16:00:00	4	Temperatura máxima	24.6
164043	7	Sololá	719	Santiago Atitlán	14	Cerro de Oro	8	Agosto	2023-01-08T00:00:00	2024-11-08T16:00:00	3	Temperatura mínima	20.9
164044	7	Sololá	719	Santiago Atitlán	14	Cerro de Oro	8	Agosto	2023-01-08T00:00:00	2024-11-08T16:00:00	5	Humedad	86
164045	7	Sololá	719	Santiago Atitlán	14	Cerro de Oro	8	Agosto	2023-01-08T00:00:00	2024-11-08T16:00:00	6	Velocidad del viento	12.9
164046	7	Sololá	719	Santiago Atitlán	14	Cerro de Oro	8	Agosto	2023-01-08T00:00:00	2024-11-08T16:00:00	7	Dirección del viento	12.87
164047	7	Sololá	719	Santiago Atitlán	14	Cerro de Oro	8	Agosto	2023-01-08T00:00:00	2024-11-08T16:00:00	1	Precipitación	0
164048	7	Sololá	719	Santiago Atitlán	14	Cerro de Oro	8	Agosto	2023-01-08T00:00:00	2024-11-08T16:00:00	8	Radiación solar	288
164049	7	Sololá	719	Santiago Atitlán	14	Cerro de Oro	8	Agosto	2023-01-08T00:00:00	2024-11-08T17:00:00	2	Temperatura media	18.9
164050	7	Sololá	719	Santiago Atitlán	14	Cerro de Oro	8	Agosto	2023-01-08T00:00:00	2024-11-08T17:00:00	4	Temperatura máxima	20.9
164051	7	Sololá	719	Santiago Atitlán	14	Cerro de Oro	8	Agosto	2023-01-08T00:00:00	2024-11-08T17:00:00	3	Temperatura mínima	18.7
164052	7	Sololá	719	Santiago Atitlán	14	Cerro de Oro	8	Agosto	2023-01-08T00:00:00	2024-11-08T17:00:00	5	Humedad	87
164053	7	Sololá	719	Santiago Atitlán	14	Cerro de Oro	8	Agosto	2023-01-08T00:00:00	2024-11-08T17:00:00	6	Velocidad del viento	12.9
164054	7	Sololá	719	Santiago Atitlán	14	Cerro de Oro	8	Agosto	2023-01-08T00:00:00	2024-11-08T17:00:00	7	Dirección del viento	12.87
164055	7	Sololá	719	Santiago Atitlán	14	Cerro de Oro	8	Agosto	2023-01-08T00:00:00	2024-11-08T17:00:00	1	Precipitación	0
164056	7	Sololá	719	Santiago Atitlán	14	Cerro de Oro	8	Agosto	2023-01-08T00:00:00	2024-11-08T17:00:00	8	Radiación solar	49
164057	7	Sololá	719	Santiago Atitlán	14	Cerro de Oro	8	Agosto	2023-01-08T00:00:00	2024-11-08T18:00:00	2	Temperatura media	19.3
164058	7	Sololá	719	Santiago Atitlán	14	Cerro de Oro	8	Agosto	2023-01-08T00:00:00	2024-11-08T18:00:00	4	Temperatura máxima	19.3
164059	7	Sololá	719	Santiago Atitlán	14	Cerro de Oro	8	Agosto	2023-01-08T00:00:00	2024-11-08T18:00:00	3	Temperatura mínima	18.8
164060	7	Sololá	719	Santiago Atitlán	14	Cerro de Oro	8	Agosto	2023-01-08T00:00:00	2024-11-08T18:00:00	5	Humedad	87
164061	7	Sololá	719	Santiago Atitlán	14	Cerro de Oro	8	Agosto	2023-01-08T00:00:00	2024-11-08T18:00:00	6	Velocidad del viento	8
164062	7	Sololá	719	Santiago Atitlán	14	Cerro de Oro	8	Agosto	2023-01-08T00:00:00	2024-11-08T18:00:00	7	Dirección del viento	8.05
164063	7	Sololá	719	Santiago Atitlán	14	Cerro de Oro	8	Agosto	2023-01-08T00:00:00	2024-11-08T18:00:00	1	Precipitación	0
164064	7	Sololá	719	Santiago Atitlán	14	Cerro de Oro	8	Agosto	2023-01-08T00:00:00	2024-11-08T18:00:00	8	Radiación solar	24
164065	7	Sololá	719	Santiago Atitlán	14	Cerro de Oro	8	Agosto	2023-01-08T00:00:00	2024-11-08T19:00:00	2	Temperatura media	19.3
164066	7	Sololá	719	Santiago Atitlán	14	Cerro de Oro	8	Agosto	2023-01-08T00:00:00	2024-11-08T19:00:00	4	Temperatura máxima	19.5
164067	7	Sololá	719	Santiago Atitlán	14	Cerro de Oro	8	Agosto	2023-01-08T00:00:00	2024-11-08T19:00:00	3	Temperatura mínima	19.2
164068	7	Sololá	719	Santiago Atitlán	14	Cerro de Oro	8	Agosto	2023-01-08T00:00:00	2024-11-08T19:00:00	5	Humedad	88
164069	7	Sololá	719	Santiago Atitlán	14	Cerro de Oro	8	Agosto	2023-01-08T00:00:00	2024-11-08T19:00:00	6	Velocidad del viento	1.6
164070	7	Sololá	719	Santiago Atitlán	14	Cerro de Oro	8	Agosto	2023-01-08T00:00:00	2024-11-08T19:00:00	7	Dirección del viento	1.61
164071	7	Sololá	719	Santiago Atitlán	14	Cerro de Oro	8	Agosto	2023-01-08T00:00:00	2024-11-08T19:00:00	1	Precipitación	0
164072	7	Sololá	719	Santiago Atitlán	14	Cerro de Oro	8	Agosto	2023-01-08T00:00:00	2024-11-08T19:00:00	8	Radiación solar	0
164073	7	Sololá	719	Santiago Atitlán	14	Cerro de Oro	8	Agosto	2023-01-08T00:00:00	2024-11-08T20:00:00	2	Temperatura media	19.5
164074	7	Sololá	719	Santiago Atitlán	14	Cerro de Oro	8	Agosto	2023-01-08T00:00:00	2024-11-08T20:00:00	4	Temperatura máxima	19.7
164075	7	Sololá	719	Santiago Atitlán	14	Cerro de Oro	8	Agosto	2023-01-08T00:00:00	2024-11-08T20:00:00	3	Temperatura mínima	19.2
164076	7	Sololá	719	Santiago Atitlán	14	Cerro de Oro	8	Agosto	2023-01-08T00:00:00	2024-11-08T20:00:00	5	Humedad	88
164077	7	Sololá	719	Santiago Atitlán	14	Cerro de Oro	8	Agosto	2023-01-08T00:00:00	2024-11-08T20:00:00	6	Velocidad del viento	4.8
164078	7	Sololá	719	Santiago Atitlán	14	Cerro de Oro	8	Agosto	2023-01-08T00:00:00	2024-11-08T20:00:00	7	Dirección del viento	4.83
164079	7	Sololá	719	Santiago Atitlán	14	Cerro de Oro	8	Agosto	2023-01-08T00:00:00	2024-11-08T20:00:00	1	Precipitación	0
164080	7	Sololá	719	Santiago Atitlán	14	Cerro de Oro	8	Agosto	2023-01-08T00:00:00	2024-11-08T20:00:00	8	Radiación solar	0
164081	7	Sololá	719	Santiago Atitlán	14	Cerro de Oro	8	Agosto	2023-01-08T00:00:00	2024-11-08T21:00:00	2	Temperatura media	18.8
164082	7	Sololá	719	Santiago Atitlán	14	Cerro de Oro	8	Agosto	2023-01-08T00:00:00	2024-11-08T21:00:00	4	Temperatura máxima	19.6
164083	7	Sololá	719	Santiago Atitlán	14	Cerro de Oro	8	Agosto	2023-01-08T00:00:00	2024-11-08T21:00:00	3	Temperatura mínima	18.2
164084	7	Sololá	719	Santiago Atitlán	14	Cerro de Oro	8	Agosto	2023-01-08T00:00:00	2024-11-08T21:00:00	5	Humedad	81
164085	7	Sololá	719	Santiago Atitlán	14	Cerro de Oro	8	Agosto	2023-01-08T00:00:00	2024-11-08T21:00:00	6	Velocidad del viento	11.3
164086	7	Sololá	719	Santiago Atitlán	14	Cerro de Oro	8	Agosto	2023-01-08T00:00:00	2024-11-08T21:00:00	7	Dirección del viento	11.27
164087	7	Sololá	719	Santiago Atitlán	14	Cerro de Oro	8	Agosto	2023-01-08T00:00:00	2024-11-08T21:00:00	1	Precipitación	0.2
164088	7	Sololá	719	Santiago Atitlán	14	Cerro de Oro	8	Agosto	2023-01-08T00:00:00	2024-11-08T21:00:00	8	Radiación solar	0
164089	7	Sololá	719	Santiago Atitlán	14	Cerro de Oro	8	Agosto	2023-01-08T00:00:00	2024-11-08T22:00:00	2	Temperatura media	18.3
164090	7	Sololá	719	Santiago Atitlán	14	Cerro de Oro	8	Agosto	2023-01-08T00:00:00	2024-11-08T22:00:00	4	Temperatura máxima	19.1
164091	7	Sololá	719	Santiago Atitlán	14	Cerro de Oro	8	Agosto	2023-01-08T00:00:00	2024-11-08T22:00:00	3	Temperatura mínima	18.2
164092	7	Sololá	719	Santiago Atitlán	14	Cerro de Oro	8	Agosto	2023-01-08T00:00:00	2024-11-08T22:00:00	5	Humedad	81
164093	7	Sololá	719	Santiago Atitlán	14	Cerro de Oro	8	Agosto	2023-01-08T00:00:00	2024-11-08T22:00:00	6	Velocidad del viento	4.8
164094	7	Sololá	719	Santiago Atitlán	14	Cerro de Oro	8	Agosto	2023-01-08T00:00:00	2024-11-08T22:00:00	7	Dirección del viento	4.83
164095	7	Sololá	719	Santiago Atitlán	14	Cerro de Oro	8	Agosto	2023-01-08T00:00:00	2024-11-08T22:00:00	1	Precipitación	1.4
164096	7	Sololá	719	Santiago Atitlán	14	Cerro de Oro	8	Agosto	2023-01-08T00:00:00	2024-11-08T22:00:00	8	Radiación solar	0
164097	7	Sololá	719	Santiago Atitlán	14	Cerro de Oro	8	Agosto	2023-01-08T00:00:00	2024-11-08T23:00:00	2	Temperatura media	19.3
164098	7	Sololá	719	Santiago Atitlán	14	Cerro de Oro	8	Agosto	2023-01-08T00:00:00	2024-11-08T23:00:00	4	Temperatura máxima	19.3
164099	7	Sololá	719	Santiago Atitlán	14	Cerro de Oro	8	Agosto	2023-01-08T00:00:00	2024-11-08T23:00:00	3	Temperatura mínima	18.1
164100	7	Sololá	719	Santiago Atitlán	14	Cerro de Oro	8	Agosto	2023-01-08T00:00:00	2024-11-08T23:00:00	5	Humedad	74
164101	7	Sololá	719	Santiago Atitlán	14	Cerro de Oro	8	Agosto	2023-01-08T00:00:00	2024-11-08T23:00:00	6	Velocidad del viento	11.3
164102	7	Sololá	719	Santiago Atitlán	14	Cerro de Oro	8	Agosto	2023-01-08T00:00:00	2024-11-08T23:00:00	7	Dirección del viento	11.27
164103	7	Sololá	719	Santiago Atitlán	14	Cerro de Oro	8	Agosto	2023-01-08T00:00:00	2024-11-08T23:00:00	1	Precipitación	0
164104	7	Sololá	719	Santiago Atitlán	14	Cerro de Oro	8	Agosto	2023-01-08T00:00:00	2024-11-08T23:00:00	8	Radiación solar	0
164105	7	Sololá	719	Santiago Atitlán	14	Cerro de Oro	8	Agosto	2023-02-08T00:00:00	2024-11-08T00:00:00	2	Temperatura media	19.3
164106	7	Sololá	719	Santiago Atitlán	14	Cerro de Oro	8	Agosto	2023-02-08T00:00:00	2024-11-08T00:00:00	4	Temperatura máxima	19.5
164107	7	Sololá	719	Santiago Atitlán	14	Cerro de Oro	8	Agosto	2023-02-08T00:00:00	2024-11-08T00:00:00	3	Temperatura mínima	18.4
164108	7	Sololá	719	Santiago Atitlán	14	Cerro de Oro	8	Agosto	2023-02-08T00:00:00	2024-11-08T00:00:00	5	Humedad	72
164109	7	Sololá	719	Santiago Atitlán	14	Cerro de Oro	8	Agosto	2023-02-08T00:00:00	2024-11-08T00:00:00	6	Velocidad del viento	11.3
164110	7	Sololá	719	Santiago Atitlán	14	Cerro de Oro	8	Agosto	2023-02-08T00:00:00	2024-11-08T00:00:00	7	Dirección del viento	11.27
164111	7	Sololá	719	Santiago Atitlán	14	Cerro de Oro	8	Agosto	2023-02-08T00:00:00	2024-11-08T00:00:00	1	Precipitación	0.6
164112	7	Sololá	719	Santiago Atitlán	14	Cerro de Oro	8	Agosto	2023-02-08T00:00:00	2024-11-08T00:00:00	8	Radiación solar	0
164113	7	Sololá	719	Santiago Atitlán	14	Cerro de Oro	8	Agosto	2023-02-08T00:00:00	2024-11-08T01:00:00	2	Temperatura media	19.3
164114	7	Sololá	719	Santiago Atitlán	14	Cerro de Oro	8	Agosto	2023-02-08T00:00:00	2024-11-08T01:00:00	4	Temperatura máxima	19.3
164115	7	Sololá	719	Santiago Atitlán	14	Cerro de Oro	8	Agosto	2023-02-08T00:00:00	2024-11-08T01:00:00	3	Temperatura mínima	18.8
164116	7	Sololá	719	Santiago Atitlán	14	Cerro de Oro	8	Agosto	2023-02-08T00:00:00	2024-11-08T01:00:00	5	Humedad	75
164117	7	Sololá	719	Santiago Atitlán	14	Cerro de Oro	8	Agosto	2023-02-08T00:00:00	2024-11-08T01:00:00	6	Velocidad del viento	9.7
164118	7	Sololá	719	Santiago Atitlán	14	Cerro de Oro	8	Agosto	2023-02-08T00:00:00	2024-11-08T01:00:00	7	Dirección del viento	9.66
164119	7	Sololá	719	Santiago Atitlán	14	Cerro de Oro	8	Agosto	2023-02-08T00:00:00	2024-11-08T01:00:00	1	Precipitación	0
164120	7	Sololá	719	Santiago Atitlán	14	Cerro de Oro	8	Agosto	2023-02-08T00:00:00	2024-11-08T01:00:00	8	Radiación solar	0
164121	7	Sololá	719	Santiago Atitlán	14	Cerro de Oro	8	Agosto	2023-02-08T00:00:00	2024-11-08T02:00:00	2	Temperatura media	18.1
164122	7	Sololá	719	Santiago Atitlán	14	Cerro de Oro	8	Agosto	2023-02-08T00:00:00	2024-11-08T02:00:00	4	Temperatura máxima	19.3
164123	7	Sololá	719	Santiago Atitlán	14	Cerro de Oro	8	Agosto	2023-02-08T00:00:00	2024-11-08T02:00:00	3	Temperatura mínima	17.8
164124	7	Sololá	719	Santiago Atitlán	14	Cerro de Oro	8	Agosto	2023-02-08T00:00:00	2024-11-08T02:00:00	5	Humedad	82
164125	7	Sololá	719	Santiago Atitlán	14	Cerro de Oro	8	Agosto	2023-02-08T00:00:00	2024-11-08T02:00:00	6	Velocidad del viento	4.8
164126	7	Sololá	719	Santiago Atitlán	14	Cerro de Oro	8	Agosto	2023-02-08T00:00:00	2024-11-08T02:00:00	7	Dirección del viento	4.83
164127	7	Sololá	719	Santiago Atitlán	14	Cerro de Oro	8	Agosto	2023-02-08T00:00:00	2024-11-08T02:00:00	1	Precipitación	0
164128	7	Sololá	719	Santiago Atitlán	14	Cerro de Oro	8	Agosto	2023-02-08T00:00:00	2024-11-08T02:00:00	8	Radiación solar	0
164129	7	Sololá	719	Santiago Atitlán	14	Cerro de Oro	8	Agosto	2023-02-08T00:00:00	2024-11-08T03:00:00	2	Temperatura media	18.7
164130	7	Sololá	719	Santiago Atitlán	14	Cerro de Oro	8	Agosto	2023-02-08T00:00:00	2024-11-08T03:00:00	4	Temperatura máxima	19.3
164131	7	Sololá	719	Santiago Atitlán	14	Cerro de Oro	8	Agosto	2023-02-08T00:00:00	2024-11-08T03:00:00	3	Temperatura mínima	18
164132	7	Sololá	719	Santiago Atitlán	14	Cerro de Oro	8	Agosto	2023-02-08T00:00:00	2024-11-08T03:00:00	5	Humedad	75
164133	7	Sololá	719	Santiago Atitlán	14	Cerro de Oro	8	Agosto	2023-02-08T00:00:00	2024-11-08T03:00:00	6	Velocidad del viento	4.8
164134	7	Sololá	719	Santiago Atitlán	14	Cerro de Oro	8	Agosto	2023-02-08T00:00:00	2024-11-08T03:00:00	7	Dirección del viento	4.83
164135	7	Sololá	719	Santiago Atitlán	14	Cerro de Oro	8	Agosto	2023-02-08T00:00:00	2024-11-08T03:00:00	1	Precipitación	0
164136	7	Sololá	719	Santiago Atitlán	14	Cerro de Oro	8	Agosto	2023-02-08T00:00:00	2024-11-08T03:00:00	8	Radiación solar	0
164137	7	Sololá	719	Santiago Atitlán	14	Cerro de Oro	8	Agosto	2023-02-08T00:00:00	2024-11-08T04:00:00	2	Temperatura media	18.2
164138	7	Sololá	719	Santiago Atitlán	14	Cerro de Oro	8	Agosto	2023-02-08T00:00:00	2024-11-08T04:00:00	4	Temperatura máxima	19.2
164139	7	Sololá	719	Santiago Atitlán	14	Cerro de Oro	8	Agosto	2023-02-08T00:00:00	2024-11-08T04:00:00	3	Temperatura mínima	18.1
164140	7	Sololá	719	Santiago Atitlán	14	Cerro de Oro	8	Agosto	2023-02-08T00:00:00	2024-11-08T04:00:00	5	Humedad	72
164141	7	Sololá	719	Santiago Atitlán	14	Cerro de Oro	8	Agosto	2023-02-08T00:00:00	2024-11-08T04:00:00	6	Velocidad del viento	4.8
164142	7	Sololá	719	Santiago Atitlán	14	Cerro de Oro	8	Agosto	2023-02-08T00:00:00	2024-11-08T04:00:00	7	Dirección del viento	4.83
164143	7	Sololá	719	Santiago Atitlán	14	Cerro de Oro	8	Agosto	2023-02-08T00:00:00	2024-11-08T04:00:00	1	Precipitación	0
164144	7	Sololá	719	Santiago Atitlán	14	Cerro de Oro	8	Agosto	2023-02-08T00:00:00	2024-11-08T04:00:00	8	Radiación solar	0
164145	7	Sololá	719	Santiago Atitlán	14	Cerro de Oro	8	Agosto	2023-02-08T00:00:00	2024-11-08T05:00:00	2	Temperatura media	19.5
164146	7	Sololá	719	Santiago Atitlán	14	Cerro de Oro	8	Agosto	2023-02-08T00:00:00	2024-11-08T05:00:00	4	Temperatura máxima	19.5
164147	7	Sololá	719	Santiago Atitlán	14	Cerro de Oro	8	Agosto	2023-02-08T00:00:00	2024-11-08T05:00:00	3	Temperatura mínima	18.2
164148	7	Sololá	719	Santiago Atitlán	14	Cerro de Oro	8	Agosto	2023-02-08T00:00:00	2024-11-08T05:00:00	5	Humedad	70
164149	7	Sololá	719	Santiago Atitlán	14	Cerro de Oro	8	Agosto	2023-02-08T00:00:00	2024-11-08T05:00:00	6	Velocidad del viento	4.8
164150	7	Sololá	719	Santiago Atitlán	14	Cerro de Oro	8	Agosto	2023-02-08T00:00:00	2024-11-08T05:00:00	7	Dirección del viento	4.83
164151	7	Sololá	719	Santiago Atitlán	14	Cerro de Oro	8	Agosto	2023-02-08T00:00:00	2024-11-08T05:00:00	1	Precipitación	0
164152	7	Sololá	719	Santiago Atitlán	14	Cerro de Oro	8	Agosto	2023-02-08T00:00:00	2024-11-08T05:00:00	8	Radiación solar	0
164153	7	Sololá	719	Santiago Atitlán	14	Cerro de Oro	8	Agosto	2023-02-08T00:00:00	2024-11-08T06:00:00	2	Temperatura media	18.9
164154	7	Sololá	719	Santiago Atitlán	14	Cerro de Oro	8	Agosto	2023-02-08T00:00:00	2024-11-08T06:00:00	4	Temperatura máxima	19.8
164155	7	Sololá	719	Santiago Atitlán	14	Cerro de Oro	8	Agosto	2023-02-08T00:00:00	2024-11-08T06:00:00	3	Temperatura mínima	18.7
164156	7	Sololá	719	Santiago Atitlán	14	Cerro de Oro	8	Agosto	2023-02-08T00:00:00	2024-11-08T06:00:00	5	Humedad	72
164157	7	Sololá	719	Santiago Atitlán	14	Cerro de Oro	8	Agosto	2023-02-08T00:00:00	2024-11-08T06:00:00	6	Velocidad del viento	6.4
164158	7	Sololá	719	Santiago Atitlán	14	Cerro de Oro	8	Agosto	2023-02-08T00:00:00	2024-11-08T06:00:00	7	Dirección del viento	6.44
164159	7	Sololá	719	Santiago Atitlán	14	Cerro de Oro	8	Agosto	2023-02-08T00:00:00	2024-11-08T06:00:00	1	Precipitación	0
164160	7	Sololá	719	Santiago Atitlán	14	Cerro de Oro	8	Agosto	2023-02-08T00:00:00	2024-11-08T06:00:00	8	Radiación solar	0
164161	7	Sololá	719	Santiago Atitlán	14	Cerro de Oro	8	Agosto	2023-02-08T00:00:00	2024-11-08T07:00:00	2	Temperatura media	19.5
164162	7	Sololá	719	Santiago Atitlán	14	Cerro de Oro	8	Agosto	2023-02-08T00:00:00	2024-11-08T07:00:00	4	Temperatura máxima	19.7
164163	7	Sololá	719	Santiago Atitlán	14	Cerro de Oro	8	Agosto	2023-02-08T00:00:00	2024-11-08T07:00:00	3	Temperatura mínima	18.9
164164	7	Sololá	719	Santiago Atitlán	14	Cerro de Oro	8	Agosto	2023-02-08T00:00:00	2024-11-08T07:00:00	5	Humedad	70
164165	7	Sololá	719	Santiago Atitlán	14	Cerro de Oro	8	Agosto	2023-02-08T00:00:00	2024-11-08T07:00:00	6	Velocidad del viento	6.4
164166	7	Sololá	719	Santiago Atitlán	14	Cerro de Oro	8	Agosto	2023-02-08T00:00:00	2024-11-08T07:00:00	7	Dirección del viento	6.44
164167	7	Sololá	719	Santiago Atitlán	14	Cerro de Oro	8	Agosto	2023-02-08T00:00:00	2024-11-08T07:00:00	1	Precipitación	0
164168	7	Sololá	719	Santiago Atitlán	14	Cerro de Oro	8	Agosto	2023-02-08T00:00:00	2024-11-08T07:00:00	8	Radiación solar	33
164169	7	Sololá	719	Santiago Atitlán	14	Cerro de Oro	8	Agosto	2023-02-08T00:00:00	2024-11-08T08:00:00	2	Temperatura media	19.7
164170	7	Sololá	719	Santiago Atitlán	14	Cerro de Oro	8	Agosto	2023-02-08T00:00:00	2024-11-08T08:00:00	4	Temperatura máxima	19.8
164171	7	Sololá	719	Santiago Atitlán	14	Cerro de Oro	8	Agosto	2023-02-08T00:00:00	2024-11-08T08:00:00	3	Temperatura mínima	19.5
164172	7	Sololá	719	Santiago Atitlán	14	Cerro de Oro	8	Agosto	2023-02-08T00:00:00	2024-11-08T08:00:00	5	Humedad	71
164173	7	Sololá	719	Santiago Atitlán	14	Cerro de Oro	8	Agosto	2023-02-08T00:00:00	2024-11-08T08:00:00	6	Velocidad del viento	4.8
164174	7	Sololá	719	Santiago Atitlán	14	Cerro de Oro	8	Agosto	2023-02-08T00:00:00	2024-11-08T08:00:00	7	Dirección del viento	4.83
164175	7	Sololá	719	Santiago Atitlán	14	Cerro de Oro	8	Agosto	2023-02-08T00:00:00	2024-11-08T08:00:00	1	Precipitación	0
164176	7	Sololá	719	Santiago Atitlán	14	Cerro de Oro	8	Agosto	2023-02-08T00:00:00	2024-11-08T08:00:00	8	Radiación solar	103
164177	7	Sololá	719	Santiago Atitlán	14	Cerro de Oro	8	Agosto	2023-02-08T00:00:00	2024-11-08T09:00:00	2	Temperatura media	20.7
164178	7	Sololá	719	Santiago Atitlán	14	Cerro de Oro	8	Agosto	2023-02-08T00:00:00	2024-11-08T09:00:00	4	Temperatura máxima	20.7
164179	7	Sololá	719	Santiago Atitlán	14	Cerro de Oro	8	Agosto	2023-02-08T00:00:00	2024-11-08T09:00:00	3	Temperatura mínima	19.7
164180	7	Sololá	719	Santiago Atitlán	14	Cerro de Oro	8	Agosto	2023-02-08T00:00:00	2024-11-08T09:00:00	5	Humedad	70
164181	7	Sololá	719	Santiago Atitlán	14	Cerro de Oro	8	Agosto	2023-02-08T00:00:00	2024-11-08T09:00:00	6	Velocidad del viento	4.8
164182	7	Sololá	719	Santiago Atitlán	14	Cerro de Oro	8	Agosto	2023-02-08T00:00:00	2024-11-08T09:00:00	7	Dirección del viento	4.83
164183	7	Sololá	719	Santiago Atitlán	14	Cerro de Oro	8	Agosto	2023-02-08T00:00:00	2024-11-08T09:00:00	1	Precipitación	0
164184	7	Sololá	719	Santiago Atitlán	14	Cerro de Oro	8	Agosto	2023-02-08T00:00:00	2024-11-08T09:00:00	8	Radiación solar	219
164185	7	Sololá	719	Santiago Atitlán	14	Cerro de Oro	8	Agosto	2023-02-08T00:00:00	2024-11-08T10:00:00	2	Temperatura media	21.4
164186	7	Sololá	719	Santiago Atitlán	14	Cerro de Oro	8	Agosto	2023-02-08T00:00:00	2024-11-08T10:00:00	4	Temperatura máxima	21.4
164187	7	Sololá	719	Santiago Atitlán	14	Cerro de Oro	8	Agosto	2023-02-08T00:00:00	2024-11-08T10:00:00	3	Temperatura mínima	20.7
164188	7	Sololá	719	Santiago Atitlán	14	Cerro de Oro	8	Agosto	2023-02-08T00:00:00	2024-11-08T10:00:00	5	Humedad	69
164189	7	Sololá	719	Santiago Atitlán	14	Cerro de Oro	8	Agosto	2023-02-08T00:00:00	2024-11-08T10:00:00	6	Velocidad del viento	6.4
164190	7	Sololá	719	Santiago Atitlán	14	Cerro de Oro	8	Agosto	2023-02-08T00:00:00	2024-11-08T10:00:00	7	Dirección del viento	6.44
164191	7	Sololá	719	Santiago Atitlán	14	Cerro de Oro	8	Agosto	2023-02-08T00:00:00	2024-11-08T10:00:00	1	Precipitación	0
164192	7	Sololá	719	Santiago Atitlán	14	Cerro de Oro	8	Agosto	2023-02-08T00:00:00	2024-11-08T10:00:00	8	Radiación solar	344
164193	7	Sololá	719	Santiago Atitlán	14	Cerro de Oro	8	Agosto	2023-02-08T00:00:00	2024-11-08T11:00:00	2	Temperatura media	21.2
164194	7	Sololá	719	Santiago Atitlán	14	Cerro de Oro	8	Agosto	2023-02-08T00:00:00	2024-11-08T11:00:00	4	Temperatura máxima	21.7
164195	7	Sololá	719	Santiago Atitlán	14	Cerro de Oro	8	Agosto	2023-02-08T00:00:00	2024-11-08T11:00:00	3	Temperatura mínima	21.2
164196	7	Sololá	719	Santiago Atitlán	14	Cerro de Oro	8	Agosto	2023-02-08T00:00:00	2024-11-08T11:00:00	5	Humedad	70
164197	7	Sololá	719	Santiago Atitlán	14	Cerro de Oro	8	Agosto	2023-02-08T00:00:00	2024-11-08T11:00:00	6	Velocidad del viento	9.7
164198	7	Sololá	719	Santiago Atitlán	14	Cerro de Oro	8	Agosto	2023-02-08T00:00:00	2024-11-08T11:00:00	7	Dirección del viento	9.66
164199	7	Sololá	719	Santiago Atitlán	14	Cerro de Oro	8	Agosto	2023-02-08T00:00:00	2024-11-08T11:00:00	1	Precipitación	0
164200	7	Sololá	719	Santiago Atitlán	14	Cerro de Oro	8	Agosto	2023-02-08T00:00:00	2024-11-08T11:00:00	8	Radiación solar	318
164201	7	Sololá	719	Santiago Atitlán	14	Cerro de Oro	8	Agosto	2023-02-08T00:00:00	2024-11-08T12:00:00	2	Temperatura media	21.9
164202	7	Sololá	719	Santiago Atitlán	14	Cerro de Oro	8	Agosto	2023-02-08T00:00:00	2024-11-08T12:00:00	4	Temperatura máxima	22.1
164203	7	Sololá	719	Santiago Atitlán	14	Cerro de Oro	8	Agosto	2023-02-08T00:00:00	2024-11-08T12:00:00	3	Temperatura mínima	21.2
164204	7	Sololá	719	Santiago Atitlán	14	Cerro de Oro	8	Agosto	2023-02-08T00:00:00	2024-11-08T12:00:00	5	Humedad	70
164205	7	Sololá	719	Santiago Atitlán	14	Cerro de Oro	8	Agosto	2023-02-08T00:00:00	2024-11-08T12:00:00	6	Velocidad del viento	8
164206	7	Sololá	719	Santiago Atitlán	14	Cerro de Oro	8	Agosto	2023-02-08T00:00:00	2024-11-08T12:00:00	7	Dirección del viento	8.05
164207	7	Sololá	719	Santiago Atitlán	14	Cerro de Oro	8	Agosto	2023-02-08T00:00:00	2024-11-08T12:00:00	1	Precipitación	0
164208	7	Sololá	719	Santiago Atitlán	14	Cerro de Oro	8	Agosto	2023-02-08T00:00:00	2024-11-08T12:00:00	8	Radiación solar	416
164209	7	Sololá	719	Santiago Atitlán	14	Cerro de Oro	8	Agosto	2023-02-08T00:00:00	2024-11-08T13:00:00	2	Temperatura media	22
164210	7	Sololá	719	Santiago Atitlán	14	Cerro de Oro	8	Agosto	2023-02-08T00:00:00	2024-11-08T13:00:00	4	Temperatura máxima	22.2
164211	7	Sololá	719	Santiago Atitlán	14	Cerro de Oro	8	Agosto	2023-02-08T00:00:00	2024-11-08T13:00:00	3	Temperatura mínima	21.9
164212	7	Sololá	719	Santiago Atitlán	14	Cerro de Oro	8	Agosto	2023-02-08T00:00:00	2024-11-08T13:00:00	5	Humedad	68
164213	7	Sololá	719	Santiago Atitlán	14	Cerro de Oro	8	Agosto	2023-02-08T00:00:00	2024-11-08T13:00:00	6	Velocidad del viento	9.7
164214	7	Sololá	719	Santiago Atitlán	14	Cerro de Oro	8	Agosto	2023-02-08T00:00:00	2024-11-08T13:00:00	7	Dirección del viento	9.66
164215	7	Sololá	719	Santiago Atitlán	14	Cerro de Oro	8	Agosto	2023-02-08T00:00:00	2024-11-08T13:00:00	1	Precipitación	0
164216	7	Sololá	719	Santiago Atitlán	14	Cerro de Oro	8	Agosto	2023-02-08T00:00:00	2024-11-08T13:00:00	8	Radiación solar	335
164217	7	Sololá	719	Santiago Atitlán	14	Cerro de Oro	8	Agosto	2023-02-08T00:00:00	2024-11-08T14:00:00	2	Temperatura media	22.2
164218	7	Sololá	719	Santiago Atitlán	14	Cerro de Oro	8	Agosto	2023-02-08T00:00:00	2024-11-08T14:00:00	4	Temperatura máxima	22.4
164219	7	Sololá	719	Santiago Atitlán	14	Cerro de Oro	8	Agosto	2023-02-08T00:00:00	2024-11-08T14:00:00	3	Temperatura mínima	21.9
164220	7	Sololá	719	Santiago Atitlán	14	Cerro de Oro	8	Agosto	2023-02-08T00:00:00	2024-11-08T14:00:00	5	Humedad	70
164221	7	Sololá	719	Santiago Atitlán	14	Cerro de Oro	8	Agosto	2023-02-08T00:00:00	2024-11-08T14:00:00	6	Velocidad del viento	6.4
164222	7	Sololá	719	Santiago Atitlán	14	Cerro de Oro	8	Agosto	2023-02-08T00:00:00	2024-11-08T14:00:00	7	Dirección del viento	6.44
164223	7	Sololá	719	Santiago Atitlán	14	Cerro de Oro	8	Agosto	2023-02-08T00:00:00	2024-11-08T14:00:00	1	Precipitación	0
164224	7	Sololá	719	Santiago Atitlán	14	Cerro de Oro	8	Agosto	2023-02-08T00:00:00	2024-11-08T14:00:00	8	Radiación solar	298
164225	7	Sololá	719	Santiago Atitlán	14	Cerro de Oro	8	Agosto	2023-02-08T00:00:00	2024-11-08T15:00:00	2	Temperatura media	21.7
164226	7	Sololá	719	Santiago Atitlán	14	Cerro de Oro	8	Agosto	2023-02-08T00:00:00	2024-11-08T15:00:00	4	Temperatura máxima	22.2
164227	7	Sololá	719	Santiago Atitlán	14	Cerro de Oro	8	Agosto	2023-02-08T00:00:00	2024-11-08T15:00:00	3	Temperatura mínima	21.7
164228	7	Sololá	719	Santiago Atitlán	14	Cerro de Oro	8	Agosto	2023-02-08T00:00:00	2024-11-08T15:00:00	5	Humedad	72
164229	7	Sololá	719	Santiago Atitlán	14	Cerro de Oro	8	Agosto	2023-02-08T00:00:00	2024-11-08T15:00:00	6	Velocidad del viento	4.8
164230	7	Sololá	719	Santiago Atitlán	14	Cerro de Oro	8	Agosto	2023-02-08T00:00:00	2024-11-08T15:00:00	7	Dirección del viento	4.83
164231	7	Sololá	719	Santiago Atitlán	14	Cerro de Oro	8	Agosto	2023-02-08T00:00:00	2024-11-08T15:00:00	1	Precipitación	0
164232	7	Sololá	719	Santiago Atitlán	14	Cerro de Oro	8	Agosto	2023-02-08T00:00:00	2024-11-08T15:00:00	8	Radiación solar	187
164233	7	Sololá	719	Santiago Atitlán	14	Cerro de Oro	8	Agosto	2023-02-08T00:00:00	2024-11-08T16:00:00	2	Temperatura media	21.2
164234	7	Sololá	719	Santiago Atitlán	14	Cerro de Oro	8	Agosto	2023-02-08T00:00:00	2024-11-08T16:00:00	4	Temperatura máxima	21.8
164235	7	Sololá	719	Santiago Atitlán	14	Cerro de Oro	8	Agosto	2023-02-08T00:00:00	2024-11-08T16:00:00	3	Temperatura mínima	21.2
164236	7	Sololá	719	Santiago Atitlán	14	Cerro de Oro	8	Agosto	2023-02-08T00:00:00	2024-11-08T16:00:00	5	Humedad	75
164237	7	Sololá	719	Santiago Atitlán	14	Cerro de Oro	8	Agosto	2023-02-08T00:00:00	2024-11-08T16:00:00	6	Velocidad del viento	3.2
164238	7	Sololá	719	Santiago Atitlán	14	Cerro de Oro	8	Agosto	2023-02-08T00:00:00	2024-11-08T16:00:00	7	Dirección del viento	3.22
164239	7	Sololá	719	Santiago Atitlán	14	Cerro de Oro	8	Agosto	2023-02-08T00:00:00	2024-11-08T16:00:00	1	Precipitación	0
164240	7	Sololá	719	Santiago Atitlán	14	Cerro de Oro	8	Agosto	2023-02-08T00:00:00	2024-11-08T16:00:00	8	Radiación solar	69
164241	7	Sololá	719	Santiago Atitlán	14	Cerro de Oro	8	Agosto	2023-02-08T00:00:00	2024-11-08T17:00:00	2	Temperatura media	21.4
164242	7	Sololá	719	Santiago Atitlán	14	Cerro de Oro	8	Agosto	2023-02-08T00:00:00	2024-11-08T17:00:00	4	Temperatura máxima	21.6
164243	7	Sololá	719	Santiago Atitlán	14	Cerro de Oro	8	Agosto	2023-02-08T00:00:00	2024-11-08T17:00:00	3	Temperatura mínima	20.6
164244	7	Sololá	719	Santiago Atitlán	14	Cerro de Oro	8	Agosto	2023-02-08T00:00:00	2024-11-08T17:00:00	5	Humedad	72
164245	7	Sololá	719	Santiago Atitlán	14	Cerro de Oro	8	Agosto	2023-02-08T00:00:00	2024-11-08T17:00:00	6	Velocidad del viento	6.4
164246	7	Sololá	719	Santiago Atitlán	14	Cerro de Oro	8	Agosto	2023-02-08T00:00:00	2024-11-08T17:00:00	7	Dirección del viento	6.44
164247	7	Sololá	719	Santiago Atitlán	14	Cerro de Oro	8	Agosto	2023-02-08T00:00:00	2024-11-08T17:00:00	1	Precipitación	0
164248	7	Sololá	719	Santiago Atitlán	14	Cerro de Oro	8	Agosto	2023-02-08T00:00:00	2024-11-08T17:00:00	8	Radiación solar	106
164249	7	Sololá	719	Santiago Atitlán	14	Cerro de Oro	8	Agosto	2023-02-08T00:00:00	2024-11-08T18:00:00	2	Temperatura media	20.5
164250	7	Sololá	719	Santiago Atitlán	14	Cerro de Oro	8	Agosto	2023-02-08T00:00:00	2024-11-08T18:00:00	4	Temperatura máxima	21.4
164251	7	Sololá	719	Santiago Atitlán	14	Cerro de Oro	8	Agosto	2023-02-08T00:00:00	2024-11-08T18:00:00	3	Temperatura mínima	20.4
164252	7	Sololá	719	Santiago Atitlán	14	Cerro de Oro	8	Agosto	2023-02-08T00:00:00	2024-11-08T18:00:00	5	Humedad	73
164253	7	Sololá	719	Santiago Atitlán	14	Cerro de Oro	8	Agosto	2023-02-08T00:00:00	2024-11-08T18:00:00	6	Velocidad del viento	8
164254	7	Sololá	719	Santiago Atitlán	14	Cerro de Oro	8	Agosto	2023-02-08T00:00:00	2024-11-08T18:00:00	7	Dirección del viento	8.05
164255	7	Sololá	719	Santiago Atitlán	14	Cerro de Oro	8	Agosto	2023-02-08T00:00:00	2024-11-08T18:00:00	1	Precipitación	0
164256	7	Sololá	719	Santiago Atitlán	14	Cerro de Oro	8	Agosto	2023-02-08T00:00:00	2024-11-08T18:00:00	8	Radiación solar	16
164257	7	Sololá	719	Santiago Atitlán	14	Cerro de Oro	8	Agosto	2023-02-08T00:00:00	2024-11-08T19:00:00	2	Temperatura media	20.4
164258	7	Sololá	719	Santiago Atitlán	14	Cerro de Oro	8	Agosto	2023-02-08T00:00:00	2024-11-08T19:00:00	4	Temperatura máxima	20.7
164259	7	Sololá	719	Santiago Atitlán	14	Cerro de Oro	8	Agosto	2023-02-08T00:00:00	2024-11-08T19:00:00	3	Temperatura mínima	20.4
164260	7	Sololá	719	Santiago Atitlán	14	Cerro de Oro	8	Agosto	2023-02-08T00:00:00	2024-11-08T19:00:00	5	Humedad	73
164261	7	Sololá	719	Santiago Atitlán	14	Cerro de Oro	8	Agosto	2023-02-08T00:00:00	2024-11-08T19:00:00	6	Velocidad del viento	9.7
164262	7	Sololá	719	Santiago Atitlán	14	Cerro de Oro	8	Agosto	2023-02-08T00:00:00	2024-11-08T19:00:00	7	Dirección del viento	9.66
164263	7	Sololá	719	Santiago Atitlán	14	Cerro de Oro	8	Agosto	2023-02-08T00:00:00	2024-11-08T19:00:00	1	Precipitación	0
164264	7	Sololá	719	Santiago Atitlán	14	Cerro de Oro	8	Agosto	2023-02-08T00:00:00	2024-11-08T19:00:00	8	Radiación solar	0
164265	7	Sololá	719	Santiago Atitlán	14	Cerro de Oro	8	Agosto	2023-02-08T00:00:00	2024-11-08T20:00:00	2	Temperatura media	20.1
164266	7	Sololá	719	Santiago Atitlán	14	Cerro de Oro	8	Agosto	2023-02-08T00:00:00	2024-11-08T20:00:00	4	Temperatura máxima	20.6
164267	7	Sololá	719	Santiago Atitlán	14	Cerro de Oro	8	Agosto	2023-02-08T00:00:00	2024-11-08T20:00:00	3	Temperatura mínima	20.1
164268	7	Sololá	719	Santiago Atitlán	14	Cerro de Oro	8	Agosto	2023-02-08T00:00:00	2024-11-08T20:00:00	5	Humedad	73
164269	7	Sololá	719	Santiago Atitlán	14	Cerro de Oro	8	Agosto	2023-02-08T00:00:00	2024-11-08T20:00:00	6	Velocidad del viento	8
164270	7	Sololá	719	Santiago Atitlán	14	Cerro de Oro	8	Agosto	2023-02-08T00:00:00	2024-11-08T20:00:00	7	Dirección del viento	8.05
164271	7	Sololá	719	Santiago Atitlán	14	Cerro de Oro	8	Agosto	2023-02-08T00:00:00	2024-11-08T20:00:00	1	Precipitación	0
164272	7	Sololá	719	Santiago Atitlán	14	Cerro de Oro	8	Agosto	2023-02-08T00:00:00	2024-11-08T20:00:00	8	Radiación solar	0
164273	7	Sololá	719	Santiago Atitlán	14	Cerro de Oro	8	Agosto	2023-02-08T00:00:00	2024-11-08T21:00:00	2	Temperatura media	20.3
164274	7	Sololá	719	Santiago Atitlán	14	Cerro de Oro	8	Agosto	2023-02-08T00:00:00	2024-11-08T21:00:00	4	Temperatura máxima	20.4
164275	7	Sololá	719	Santiago Atitlán	14	Cerro de Oro	8	Agosto	2023-02-08T00:00:00	2024-11-08T21:00:00	3	Temperatura mínima	20
164276	7	Sololá	719	Santiago Atitlán	14	Cerro de Oro	8	Agosto	2023-02-08T00:00:00	2024-11-08T21:00:00	5	Humedad	73
164277	7	Sololá	719	Santiago Atitlán	14	Cerro de Oro	8	Agosto	2023-02-08T00:00:00	2024-11-08T21:00:00	6	Velocidad del viento	8
164278	7	Sololá	719	Santiago Atitlán	14	Cerro de Oro	8	Agosto	2023-02-08T00:00:00	2024-11-08T21:00:00	7	Dirección del viento	8.05
164279	7	Sololá	719	Santiago Atitlán	14	Cerro de Oro	8	Agosto	2023-02-08T00:00:00	2024-11-08T21:00:00	1	Precipitación	0
164280	7	Sololá	719	Santiago Atitlán	14	Cerro de Oro	8	Agosto	2023-02-08T00:00:00	2024-11-08T21:00:00	8	Radiación solar	0
164281	7	Sololá	719	Santiago Atitlán	14	Cerro de Oro	8	Agosto	2023-02-08T00:00:00	2024-11-08T22:00:00	2	Temperatura media	20.1
164282	7	Sololá	719	Santiago Atitlán	14	Cerro de Oro	8	Agosto	2023-02-08T00:00:00	2024-11-08T22:00:00	4	Temperatura máxima	20.4
164283	7	Sololá	719	Santiago Atitlán	14	Cerro de Oro	8	Agosto	2023-02-08T00:00:00	2024-11-08T22:00:00	3	Temperatura mínima	20
164284	7	Sololá	719	Santiago Atitlán	14	Cerro de Oro	8	Agosto	2023-02-08T00:00:00	2024-11-08T22:00:00	5	Humedad	76
164285	7	Sololá	719	Santiago Atitlán	14	Cerro de Oro	8	Agosto	2023-02-08T00:00:00	2024-11-08T22:00:00	6	Velocidad del viento	8
164286	7	Sololá	719	Santiago Atitlán	14	Cerro de Oro	8	Agosto	2023-02-08T00:00:00	2024-11-08T22:00:00	7	Dirección del viento	8.05
164287	7	Sololá	719	Santiago Atitlán	14	Cerro de Oro	8	Agosto	2023-02-08T00:00:00	2024-11-08T22:00:00	1	Precipitación	0
164288	7	Sololá	719	Santiago Atitlán	14	Cerro de Oro	8	Agosto	2023-02-08T00:00:00	2024-11-08T22:00:00	8	Radiación solar	0
164289	7	Sololá	719	Santiago Atitlán	14	Cerro de Oro	8	Agosto	2023-02-08T00:00:00	2024-11-08T23:00:00	2	Temperatura media	19.9
164290	7	Sololá	719	Santiago Atitlán	14	Cerro de Oro	8	Agosto	2023-02-08T00:00:00	2024-11-08T23:00:00	4	Temperatura máxima	20.3
164291	7	Sololá	719	Santiago Atitlán	14	Cerro de Oro	8	Agosto	2023-02-08T00:00:00	2024-11-08T23:00:00	3	Temperatura mínima	19.9
164292	7	Sololá	719	Santiago Atitlán	14	Cerro de Oro	8	Agosto	2023-02-08T00:00:00	2024-11-08T23:00:00	5	Humedad	77
164293	7	Sololá	719	Santiago Atitlán	14	Cerro de Oro	8	Agosto	2023-02-08T00:00:00	2024-11-08T23:00:00	6	Velocidad del viento	4.8
164294	7	Sololá	719	Santiago Atitlán	14	Cerro de Oro	8	Agosto	2023-02-08T00:00:00	2024-11-08T23:00:00	7	Dirección del viento	4.83
164295	7	Sololá	719	Santiago Atitlán	14	Cerro de Oro	8	Agosto	2023-02-08T00:00:00	2024-11-08T23:00:00	1	Precipitación	0
164296	7	Sololá	719	Santiago Atitlán	14	Cerro de Oro	8	Agosto	2023-02-08T00:00:00	2024-11-08T23:00:00	8	Radiación solar	0
164297	7	Sololá	719	Santiago Atitlán	14	Cerro de Oro	8	Agosto	2023-03-08T00:00:00	2024-11-08T00:00:00	2	Temperatura media	20.3
164298	7	Sololá	719	Santiago Atitlán	14	Cerro de Oro	8	Agosto	2023-03-08T00:00:00	2024-11-08T00:00:00	4	Temperatura máxima	20.4
164299	7	Sololá	719	Santiago Atitlán	14	Cerro de Oro	8	Agosto	2023-03-08T00:00:00	2024-11-08T00:00:00	3	Temperatura mínima	19.8
164300	7	Sololá	719	Santiago Atitlán	14	Cerro de Oro	8	Agosto	2023-03-08T00:00:00	2024-11-08T00:00:00	5	Humedad	76
164301	7	Sololá	719	Santiago Atitlán	14	Cerro de Oro	8	Agosto	2023-03-08T00:00:00	2024-11-08T00:00:00	6	Velocidad del viento	6.4
164302	7	Sololá	719	Santiago Atitlán	14	Cerro de Oro	8	Agosto	2023-03-08T00:00:00	2024-11-08T00:00:00	7	Dirección del viento	6.44
164303	7	Sololá	719	Santiago Atitlán	14	Cerro de Oro	8	Agosto	2023-03-08T00:00:00	2024-11-08T00:00:00	1	Precipitación	0
164304	7	Sololá	719	Santiago Atitlán	14	Cerro de Oro	8	Agosto	2023-03-08T00:00:00	2024-11-08T00:00:00	8	Radiación solar	0
164305	7	Sololá	719	Santiago Atitlán	14	Cerro de Oro	8	Agosto	2023-03-08T00:00:00	2024-11-08T01:00:00	2	Temperatura media	20.2
164306	7	Sololá	719	Santiago Atitlán	14	Cerro de Oro	8	Agosto	2023-03-08T00:00:00	2024-11-08T01:00:00	4	Temperatura máxima	20.4
164307	7	Sololá	719	Santiago Atitlán	14	Cerro de Oro	8	Agosto	2023-03-08T00:00:00	2024-11-08T01:00:00	3	Temperatura mínima	20.2
164308	7	Sololá	719	Santiago Atitlán	14	Cerro de Oro	8	Agosto	2023-03-08T00:00:00	2024-11-08T01:00:00	5	Humedad	75
164309	7	Sololá	719	Santiago Atitlán	14	Cerro de Oro	8	Agosto	2023-03-08T00:00:00	2024-11-08T01:00:00	6	Velocidad del viento	4.8
164310	7	Sololá	719	Santiago Atitlán	14	Cerro de Oro	8	Agosto	2023-03-08T00:00:00	2024-11-08T01:00:00	7	Dirección del viento	4.83
164311	7	Sololá	719	Santiago Atitlán	14	Cerro de Oro	8	Agosto	2023-03-08T00:00:00	2024-11-08T01:00:00	1	Precipitación	0
164312	7	Sololá	719	Santiago Atitlán	14	Cerro de Oro	8	Agosto	2023-03-08T00:00:00	2024-11-08T01:00:00	8	Radiación solar	0
164313	7	Sololá	719	Santiago Atitlán	14	Cerro de Oro	8	Agosto	2023-03-08T00:00:00	2024-11-08T02:00:00	2	Temperatura media	19.7
164314	7	Sololá	719	Santiago Atitlán	14	Cerro de Oro	8	Agosto	2023-03-08T00:00:00	2024-11-08T02:00:00	4	Temperatura máxima	20.4
164315	7	Sololá	719	Santiago Atitlán	14	Cerro de Oro	8	Agosto	2023-03-08T00:00:00	2024-11-08T02:00:00	3	Temperatura mínima	19.5
164316	7	Sololá	719	Santiago Atitlán	14	Cerro de Oro	8	Agosto	2023-03-08T00:00:00	2024-11-08T02:00:00	5	Humedad	77
164317	7	Sololá	719	Santiago Atitlán	14	Cerro de Oro	8	Agosto	2023-03-08T00:00:00	2024-11-08T02:00:00	6	Velocidad del viento	6.4
164318	7	Sololá	719	Santiago Atitlán	14	Cerro de Oro	8	Agosto	2023-03-08T00:00:00	2024-11-08T02:00:00	7	Dirección del viento	6.44
164319	7	Sololá	719	Santiago Atitlán	14	Cerro de Oro	8	Agosto	2023-03-08T00:00:00	2024-11-08T02:00:00	1	Precipitación	0
164320	7	Sololá	719	Santiago Atitlán	14	Cerro de Oro	8	Agosto	2023-03-08T00:00:00	2024-11-08T02:00:00	8	Radiación solar	0
164321	7	Sololá	719	Santiago Atitlán	14	Cerro de Oro	8	Agosto	2023-03-08T00:00:00	2024-11-08T03:00:00	2	Temperatura media	19.3
164322	7	Sololá	719	Santiago Atitlán	14	Cerro de Oro	8	Agosto	2023-03-08T00:00:00	2024-11-08T03:00:00	4	Temperatura máxima	20.4
164323	7	Sololá	719	Santiago Atitlán	14	Cerro de Oro	8	Agosto	2023-03-08T00:00:00	2024-11-08T03:00:00	3	Temperatura mínima	19.3
164324	7	Sololá	719	Santiago Atitlán	14	Cerro de Oro	8	Agosto	2023-03-08T00:00:00	2024-11-08T03:00:00	5	Humedad	78
164325	7	Sololá	719	Santiago Atitlán	14	Cerro de Oro	8	Agosto	2023-03-08T00:00:00	2024-11-08T03:00:00	6	Velocidad del viento	6.4
164326	7	Sololá	719	Santiago Atitlán	14	Cerro de Oro	8	Agosto	2023-03-08T00:00:00	2024-11-08T03:00:00	7	Dirección del viento	6.44
164327	7	Sololá	719	Santiago Atitlán	14	Cerro de Oro	8	Agosto	2023-03-08T00:00:00	2024-11-08T03:00:00	1	Precipitación	0
164328	7	Sololá	719	Santiago Atitlán	14	Cerro de Oro	8	Agosto	2023-03-08T00:00:00	2024-11-08T03:00:00	8	Radiación solar	0
164329	7	Sololá	719	Santiago Atitlán	14	Cerro de Oro	8	Agosto	2023-03-08T00:00:00	2024-11-08T04:00:00	2	Temperatura media	19.2
164330	7	Sololá	719	Santiago Atitlán	14	Cerro de Oro	8	Agosto	2023-03-08T00:00:00	2024-11-08T04:00:00	4	Temperatura máxima	19.5
164331	7	Sololá	719	Santiago Atitlán	14	Cerro de Oro	8	Agosto	2023-03-08T00:00:00	2024-11-08T04:00:00	3	Temperatura mínima	19.2
164332	7	Sololá	719	Santiago Atitlán	14	Cerro de Oro	8	Agosto	2023-03-08T00:00:00	2024-11-08T04:00:00	5	Humedad	77
164333	7	Sololá	719	Santiago Atitlán	14	Cerro de Oro	8	Agosto	2023-03-08T00:00:00	2024-11-08T04:00:00	6	Velocidad del viento	4.8
164334	7	Sololá	719	Santiago Atitlán	14	Cerro de Oro	8	Agosto	2023-03-08T00:00:00	2024-11-08T04:00:00	7	Dirección del viento	4.83
164335	7	Sololá	719	Santiago Atitlán	14	Cerro de Oro	8	Agosto	2023-03-08T00:00:00	2024-11-08T04:00:00	1	Precipitación	0
164336	7	Sololá	719	Santiago Atitlán	14	Cerro de Oro	8	Agosto	2023-03-08T00:00:00	2024-11-08T04:00:00	8	Radiación solar	0
164337	7	Sololá	719	Santiago Atitlán	14	Cerro de Oro	8	Agosto	2023-03-08T00:00:00	2024-11-08T05:00:00	2	Temperatura media	18.4
164338	7	Sololá	719	Santiago Atitlán	14	Cerro de Oro	8	Agosto	2023-03-08T00:00:00	2024-11-08T05:00:00	4	Temperatura máxima	19.2
164339	7	Sololá	719	Santiago Atitlán	14	Cerro de Oro	8	Agosto	2023-03-08T00:00:00	2024-11-08T05:00:00	3	Temperatura mínima	18.3
164340	7	Sololá	719	Santiago Atitlán	14	Cerro de Oro	8	Agosto	2023-03-08T00:00:00	2024-11-08T05:00:00	5	Humedad	80
164341	7	Sololá	719	Santiago Atitlán	14	Cerro de Oro	8	Agosto	2023-03-08T00:00:00	2024-11-08T05:00:00	6	Velocidad del viento	3.2
164342	7	Sololá	719	Santiago Atitlán	14	Cerro de Oro	8	Agosto	2023-03-08T00:00:00	2024-11-08T05:00:00	7	Dirección del viento	3.22
164343	7	Sololá	719	Santiago Atitlán	14	Cerro de Oro	8	Agosto	2023-03-08T00:00:00	2024-11-08T05:00:00	1	Precipitación	0
164344	7	Sololá	719	Santiago Atitlán	14	Cerro de Oro	8	Agosto	2023-03-08T00:00:00	2024-11-08T05:00:00	8	Radiación solar	0
164345	7	Sololá	719	Santiago Atitlán	14	Cerro de Oro	8	Agosto	2023-03-08T00:00:00	2024-11-08T06:00:00	2	Temperatura media	18.5
164346	7	Sololá	719	Santiago Atitlán	14	Cerro de Oro	8	Agosto	2023-03-08T00:00:00	2024-11-08T06:00:00	4	Temperatura máxima	18.6
164347	7	Sololá	719	Santiago Atitlán	14	Cerro de Oro	8	Agosto	2023-03-08T00:00:00	2024-11-08T06:00:00	3	Temperatura mínima	18.2
164348	7	Sololá	719	Santiago Atitlán	14	Cerro de Oro	8	Agosto	2023-03-08T00:00:00	2024-11-08T06:00:00	5	Humedad	80
164349	7	Sololá	719	Santiago Atitlán	14	Cerro de Oro	8	Agosto	2023-03-08T00:00:00	2024-11-08T06:00:00	6	Velocidad del viento	3.2
164350	7	Sololá	719	Santiago Atitlán	14	Cerro de Oro	8	Agosto	2023-03-08T00:00:00	2024-11-08T06:00:00	7	Dirección del viento	3.22
164351	7	Sololá	719	Santiago Atitlán	14	Cerro de Oro	8	Agosto	2023-03-08T00:00:00	2024-11-08T06:00:00	1	Precipitación	0
164352	7	Sololá	719	Santiago Atitlán	14	Cerro de Oro	8	Agosto	2023-03-08T00:00:00	2024-11-08T06:00:00	8	Radiación solar	2
164353	7	Sololá	719	Santiago Atitlán	14	Cerro de Oro	8	Agosto	2023-03-08T00:00:00	2024-11-08T07:00:00	2	Temperatura media	20.8
164354	7	Sololá	719	Santiago Atitlán	14	Cerro de Oro	8	Agosto	2023-03-08T00:00:00	2024-11-08T07:00:00	4	Temperatura máxima	20.8
164355	7	Sololá	719	Santiago Atitlán	14	Cerro de Oro	8	Agosto	2023-03-08T00:00:00	2024-11-08T07:00:00	3	Temperatura mínima	18.4
164356	7	Sololá	719	Santiago Atitlán	14	Cerro de Oro	8	Agosto	2023-03-08T00:00:00	2024-11-08T07:00:00	5	Humedad	74
164357	7	Sololá	719	Santiago Atitlán	14	Cerro de Oro	8	Agosto	2023-03-08T00:00:00	2024-11-08T07:00:00	6	Velocidad del viento	3.2
164358	7	Sololá	719	Santiago Atitlán	14	Cerro de Oro	8	Agosto	2023-03-08T00:00:00	2024-11-08T07:00:00	7	Dirección del viento	3.22
164359	7	Sololá	719	Santiago Atitlán	14	Cerro de Oro	8	Agosto	2023-03-08T00:00:00	2024-11-08T07:00:00	1	Precipitación	0
164360	7	Sololá	719	Santiago Atitlán	14	Cerro de Oro	8	Agosto	2023-03-08T00:00:00	2024-11-08T07:00:00	8	Radiación solar	76
164361	7	Sololá	719	Santiago Atitlán	14	Cerro de Oro	8	Agosto	2023-03-08T00:00:00	2024-11-08T08:00:00	2	Temperatura media	22.3
164362	7	Sololá	719	Santiago Atitlán	14	Cerro de Oro	8	Agosto	2023-03-08T00:00:00	2024-11-08T08:00:00	4	Temperatura máxima	22.3
164363	7	Sololá	719	Santiago Atitlán	14	Cerro de Oro	8	Agosto	2023-03-08T00:00:00	2024-11-08T08:00:00	3	Temperatura mínima	20.8
164364	7	Sololá	719	Santiago Atitlán	14	Cerro de Oro	8	Agosto	2023-03-08T00:00:00	2024-11-08T08:00:00	5	Humedad	68
164365	7	Sololá	719	Santiago Atitlán	14	Cerro de Oro	8	Agosto	2023-03-08T00:00:00	2024-11-08T08:00:00	6	Velocidad del viento	3.2
164366	7	Sololá	719	Santiago Atitlán	14	Cerro de Oro	8	Agosto	2023-03-08T00:00:00	2024-11-08T08:00:00	7	Dirección del viento	3.22
164367	7	Sololá	719	Santiago Atitlán	14	Cerro de Oro	8	Agosto	2023-03-08T00:00:00	2024-11-08T08:00:00	1	Precipitación	0
164368	7	Sololá	719	Santiago Atitlán	14	Cerro de Oro	8	Agosto	2023-03-08T00:00:00	2024-11-08T08:00:00	8	Radiación solar	265
164369	7	Sololá	719	Santiago Atitlán	14	Cerro de Oro	8	Agosto	2023-03-08T00:00:00	2024-11-08T09:00:00	2	Temperatura media	23
164370	7	Sololá	719	Santiago Atitlán	14	Cerro de Oro	8	Agosto	2023-03-08T00:00:00	2024-11-08T09:00:00	4	Temperatura máxima	23
164371	7	Sololá	719	Santiago Atitlán	14	Cerro de Oro	8	Agosto	2023-03-08T00:00:00	2024-11-08T09:00:00	3	Temperatura mínima	22.1
164372	7	Sololá	719	Santiago Atitlán	14	Cerro de Oro	8	Agosto	2023-03-08T00:00:00	2024-11-08T09:00:00	5	Humedad	71
164373	7	Sololá	719	Santiago Atitlán	14	Cerro de Oro	8	Agosto	2023-03-08T00:00:00	2024-11-08T09:00:00	6	Velocidad del viento	3.2
164374	7	Sololá	719	Santiago Atitlán	14	Cerro de Oro	8	Agosto	2023-03-08T00:00:00	2024-11-08T09:00:00	7	Dirección del viento	3.22
164375	7	Sololá	719	Santiago Atitlán	14	Cerro de Oro	8	Agosto	2023-03-08T00:00:00	2024-11-08T09:00:00	1	Precipitación	0
164376	7	Sololá	719	Santiago Atitlán	14	Cerro de Oro	8	Agosto	2023-03-08T00:00:00	2024-11-08T09:00:00	8	Radiación solar	508
164377	7	Sololá	719	Santiago Atitlán	14	Cerro de Oro	8	Agosto	2023-03-08T00:00:00	2024-11-08T10:00:00	2	Temperatura media	23.6
164378	7	Sololá	719	Santiago Atitlán	14	Cerro de Oro	8	Agosto	2023-03-08T00:00:00	2024-11-08T10:00:00	4	Temperatura máxima	23.6
164379	7	Sololá	719	Santiago Atitlán	14	Cerro de Oro	8	Agosto	2023-03-08T00:00:00	2024-11-08T10:00:00	3	Temperatura mínima	22.5
164380	7	Sololá	719	Santiago Atitlán	14	Cerro de Oro	8	Agosto	2023-03-08T00:00:00	2024-11-08T10:00:00	5	Humedad	70
164381	7	Sololá	719	Santiago Atitlán	14	Cerro de Oro	8	Agosto	2023-03-08T00:00:00	2024-11-08T10:00:00	6	Velocidad del viento	4.8
164382	7	Sololá	719	Santiago Atitlán	14	Cerro de Oro	8	Agosto	2023-03-08T00:00:00	2024-11-08T10:00:00	7	Dirección del viento	4.83
164383	7	Sololá	719	Santiago Atitlán	14	Cerro de Oro	8	Agosto	2023-03-08T00:00:00	2024-11-08T10:00:00	1	Precipitación	0
164384	7	Sololá	719	Santiago Atitlán	14	Cerro de Oro	8	Agosto	2023-03-08T00:00:00	2024-11-08T10:00:00	8	Radiación solar	695
164385	7	Sololá	719	Santiago Atitlán	14	Cerro de Oro	8	Agosto	2023-03-08T00:00:00	2024-11-08T11:00:00	2	Temperatura media	23.8
164386	7	Sololá	719	Santiago Atitlán	14	Cerro de Oro	8	Agosto	2023-03-08T00:00:00	2024-11-08T11:00:00	4	Temperatura máxima	23.8
164387	7	Sololá	719	Santiago Atitlán	14	Cerro de Oro	8	Agosto	2023-03-08T00:00:00	2024-11-08T11:00:00	3	Temperatura mínima	22.9
164388	7	Sololá	719	Santiago Atitlán	14	Cerro de Oro	8	Agosto	2023-03-08T00:00:00	2024-11-08T11:00:00	5	Humedad	76
164389	7	Sololá	719	Santiago Atitlán	14	Cerro de Oro	8	Agosto	2023-03-08T00:00:00	2024-11-08T11:00:00	6	Velocidad del viento	6.4
164390	7	Sololá	719	Santiago Atitlán	14	Cerro de Oro	8	Agosto	2023-03-08T00:00:00	2024-11-08T11:00:00	7	Dirección del viento	6.44
164391	7	Sololá	719	Santiago Atitlán	14	Cerro de Oro	8	Agosto	2023-03-08T00:00:00	2024-11-08T11:00:00	1	Precipitación	0
164392	7	Sololá	719	Santiago Atitlán	14	Cerro de Oro	8	Agosto	2023-03-08T00:00:00	2024-11-08T11:00:00	8	Radiación solar	786
164393	7	Sololá	719	Santiago Atitlán	14	Cerro de Oro	8	Agosto	2023-03-08T00:00:00	2024-11-08T12:00:00	2	Temperatura media	24.5
164394	7	Sololá	719	Santiago Atitlán	14	Cerro de Oro	8	Agosto	2023-03-08T00:00:00	2024-11-08T12:00:00	4	Temperatura máxima	24.5
164395	7	Sololá	719	Santiago Atitlán	14	Cerro de Oro	8	Agosto	2023-03-08T00:00:00	2024-11-08T12:00:00	3	Temperatura mínima	23.7
164396	7	Sololá	719	Santiago Atitlán	14	Cerro de Oro	8	Agosto	2023-03-08T00:00:00	2024-11-08T12:00:00	5	Humedad	70
164397	7	Sololá	719	Santiago Atitlán	14	Cerro de Oro	8	Agosto	2023-03-08T00:00:00	2024-11-08T12:00:00	6	Velocidad del viento	11.3
164398	7	Sololá	719	Santiago Atitlán	14	Cerro de Oro	8	Agosto	2023-03-08T00:00:00	2024-11-08T12:00:00	7	Dirección del viento	11.27
164399	7	Sololá	719	Santiago Atitlán	14	Cerro de Oro	8	Agosto	2023-03-08T00:00:00	2024-11-08T12:00:00	1	Precipitación	0
164400	7	Sololá	719	Santiago Atitlán	14	Cerro de Oro	8	Agosto	2023-03-08T00:00:00	2024-11-08T12:00:00	8	Radiación solar	973
164401	7	Sololá	719	Santiago Atitlán	14	Cerro de Oro	8	Agosto	2023-03-08T00:00:00	2024-11-08T13:00:00	2	Temperatura media	24.1
164402	7	Sololá	719	Santiago Atitlán	14	Cerro de Oro	8	Agosto	2023-03-08T00:00:00	2024-11-08T13:00:00	4	Temperatura máxima	24.8
164403	7	Sololá	719	Santiago Atitlán	14	Cerro de Oro	8	Agosto	2023-03-08T00:00:00	2024-11-08T13:00:00	3	Temperatura mínima	23.4
164404	7	Sololá	719	Santiago Atitlán	14	Cerro de Oro	8	Agosto	2023-03-08T00:00:00	2024-11-08T13:00:00	5	Humedad	74
164405	7	Sololá	719	Santiago Atitlán	14	Cerro de Oro	8	Agosto	2023-03-08T00:00:00	2024-11-08T13:00:00	6	Velocidad del viento	9.7
164406	7	Sololá	719	Santiago Atitlán	14	Cerro de Oro	8	Agosto	2023-03-08T00:00:00	2024-11-08T13:00:00	7	Dirección del viento	9.66
164407	7	Sololá	719	Santiago Atitlán	14	Cerro de Oro	8	Agosto	2023-03-08T00:00:00	2024-11-08T13:00:00	1	Precipitación	0
164408	7	Sololá	719	Santiago Atitlán	14	Cerro de Oro	8	Agosto	2023-03-08T00:00:00	2024-11-08T13:00:00	8	Radiación solar	766
164409	7	Sololá	719	Santiago Atitlán	14	Cerro de Oro	8	Agosto	2023-03-08T00:00:00	2024-11-08T14:00:00	2	Temperatura media	20.6
164410	7	Sololá	719	Santiago Atitlán	14	Cerro de Oro	8	Agosto	2023-03-08T00:00:00	2024-11-08T14:00:00	4	Temperatura máxima	24.4
164411	7	Sololá	719	Santiago Atitlán	14	Cerro de Oro	8	Agosto	2023-03-08T00:00:00	2024-11-08T14:00:00	3	Temperatura mínima	20.6
164412	7	Sololá	719	Santiago Atitlán	14	Cerro de Oro	8	Agosto	2023-03-08T00:00:00	2024-11-08T14:00:00	5	Humedad	80
164413	7	Sololá	719	Santiago Atitlán	14	Cerro de Oro	8	Agosto	2023-03-08T00:00:00	2024-11-08T14:00:00	6	Velocidad del viento	8
164414	7	Sololá	719	Santiago Atitlán	14	Cerro de Oro	8	Agosto	2023-03-08T00:00:00	2024-11-08T14:00:00	7	Dirección del viento	8.05
164415	7	Sololá	719	Santiago Atitlán	14	Cerro de Oro	8	Agosto	2023-03-08T00:00:00	2024-11-08T14:00:00	1	Precipitación	0
164416	7	Sololá	719	Santiago Atitlán	14	Cerro de Oro	8	Agosto	2023-03-08T00:00:00	2024-11-08T14:00:00	8	Radiación solar	97
164417	7	Sololá	719	Santiago Atitlán	14	Cerro de Oro	8	Agosto	2023-03-08T00:00:00	2024-11-08T15:00:00	2	Temperatura media	20.8
164418	7	Sololá	719	Santiago Atitlán	14	Cerro de Oro	8	Agosto	2023-03-08T00:00:00	2024-11-08T15:00:00	4	Temperatura máxima	20.9
164419	7	Sololá	719	Santiago Atitlán	14	Cerro de Oro	8	Agosto	2023-03-08T00:00:00	2024-11-08T15:00:00	3	Temperatura mínima	19.8
164420	7	Sololá	719	Santiago Atitlán	14	Cerro de Oro	8	Agosto	2023-03-08T00:00:00	2024-11-08T15:00:00	5	Humedad	82
164421	7	Sololá	719	Santiago Atitlán	14	Cerro de Oro	8	Agosto	2023-03-08T00:00:00	2024-11-08T15:00:00	6	Velocidad del viento	4.8
164422	7	Sololá	719	Santiago Atitlán	14	Cerro de Oro	8	Agosto	2023-03-08T00:00:00	2024-11-08T15:00:00	7	Dirección del viento	4.83
164423	7	Sololá	719	Santiago Atitlán	14	Cerro de Oro	8	Agosto	2023-03-08T00:00:00	2024-11-08T15:00:00	1	Precipitación	0
164424	7	Sololá	719	Santiago Atitlán	14	Cerro de Oro	8	Agosto	2023-03-08T00:00:00	2024-11-08T15:00:00	8	Radiación solar	148
164425	7	Sololá	719	Santiago Atitlán	14	Cerro de Oro	8	Agosto	2023-03-08T00:00:00	2024-11-08T16:00:00	2	Temperatura media	20.2
164426	7	Sololá	719	Santiago Atitlán	14	Cerro de Oro	8	Agosto	2023-03-08T00:00:00	2024-11-08T16:00:00	4	Temperatura máxima	20.8
164427	7	Sololá	719	Santiago Atitlán	14	Cerro de Oro	8	Agosto	2023-03-08T00:00:00	2024-11-08T16:00:00	3	Temperatura mínima	20.1
164428	7	Sololá	719	Santiago Atitlán	14	Cerro de Oro	8	Agosto	2023-03-08T00:00:00	2024-11-08T16:00:00	5	Humedad	86
164429	7	Sololá	719	Santiago Atitlán	14	Cerro de Oro	8	Agosto	2023-03-08T00:00:00	2024-11-08T16:00:00	6	Velocidad del viento	4.8
164430	7	Sololá	719	Santiago Atitlán	14	Cerro de Oro	8	Agosto	2023-03-08T00:00:00	2024-11-08T16:00:00	7	Dirección del viento	4.83
164431	7	Sololá	719	Santiago Atitlán	14	Cerro de Oro	8	Agosto	2023-03-08T00:00:00	2024-11-08T16:00:00	1	Precipitación	0
164432	7	Sololá	719	Santiago Atitlán	14	Cerro de Oro	8	Agosto	2023-03-08T00:00:00	2024-11-08T16:00:00	8	Radiación solar	123
164433	7	Sololá	719	Santiago Atitlán	14	Cerro de Oro	8	Agosto	2023-03-08T00:00:00	2024-11-08T17:00:00	2	Temperatura media	18.8
164434	7	Sololá	719	Santiago Atitlán	14	Cerro de Oro	8	Agosto	2023-03-08T00:00:00	2024-11-08T17:00:00	4	Temperatura máxima	20.2
164435	7	Sololá	719	Santiago Atitlán	14	Cerro de Oro	8	Agosto	2023-03-08T00:00:00	2024-11-08T17:00:00	3	Temperatura mínima	18.8
164436	7	Sololá	719	Santiago Atitlán	14	Cerro de Oro	8	Agosto	2023-03-08T00:00:00	2024-11-08T17:00:00	5	Humedad	90
164437	7	Sololá	719	Santiago Atitlán	14	Cerro de Oro	8	Agosto	2023-03-08T00:00:00	2024-11-08T17:00:00	6	Velocidad del viento	4.8
164438	7	Sololá	719	Santiago Atitlán	14	Cerro de Oro	8	Agosto	2023-03-08T00:00:00	2024-11-08T17:00:00	7	Dirección del viento	4.83
164439	7	Sololá	719	Santiago Atitlán	14	Cerro de Oro	8	Agosto	2023-03-08T00:00:00	2024-11-08T17:00:00	1	Precipitación	1.6
164440	7	Sololá	719	Santiago Atitlán	14	Cerro de Oro	8	Agosto	2023-03-08T00:00:00	2024-11-08T17:00:00	8	Radiación solar	92
164441	7	Sololá	719	Santiago Atitlán	14	Cerro de Oro	8	Agosto	2023-03-08T00:00:00	2024-11-08T18:00:00	2	Temperatura media	18.1
164442	7	Sololá	719	Santiago Atitlán	14	Cerro de Oro	8	Agosto	2023-03-08T00:00:00	2024-11-08T18:00:00	4	Temperatura máxima	18.8
164443	7	Sololá	719	Santiago Atitlán	14	Cerro de Oro	8	Agosto	2023-03-08T00:00:00	2024-11-08T18:00:00	3	Temperatura mínima	18.1
164444	7	Sololá	719	Santiago Atitlán	14	Cerro de Oro	8	Agosto	2023-03-08T00:00:00	2024-11-08T18:00:00	5	Humedad	91
164445	7	Sololá	719	Santiago Atitlán	14	Cerro de Oro	8	Agosto	2023-03-08T00:00:00	2024-11-08T18:00:00	6	Velocidad del viento	3.2
164446	7	Sololá	719	Santiago Atitlán	14	Cerro de Oro	8	Agosto	2023-03-08T00:00:00	2024-11-08T18:00:00	7	Dirección del viento	3.22
164447	7	Sololá	719	Santiago Atitlán	14	Cerro de Oro	8	Agosto	2023-03-08T00:00:00	2024-11-08T18:00:00	1	Precipitación	4.2
164448	7	Sololá	719	Santiago Atitlán	14	Cerro de Oro	8	Agosto	2023-03-08T00:00:00	2024-11-08T18:00:00	8	Radiación solar	13
164449	7	Sololá	719	Santiago Atitlán	14	Cerro de Oro	8	Agosto	2023-03-08T00:00:00	2024-11-08T19:00:00	2	Temperatura media	18.1
164450	7	Sololá	719	Santiago Atitlán	14	Cerro de Oro	8	Agosto	2023-03-08T00:00:00	2024-11-08T19:00:00	4	Temperatura máxima	18.2
164451	7	Sololá	719	Santiago Atitlán	14	Cerro de Oro	8	Agosto	2023-03-08T00:00:00	2024-11-08T19:00:00	3	Temperatura mínima	17.9
164452	7	Sololá	719	Santiago Atitlán	14	Cerro de Oro	8	Agosto	2023-03-08T00:00:00	2024-11-08T19:00:00	5	Humedad	90
164453	7	Sololá	719	Santiago Atitlán	14	Cerro de Oro	8	Agosto	2023-03-08T00:00:00	2024-11-08T19:00:00	6	Velocidad del viento	4.8
164454	7	Sololá	719	Santiago Atitlán	14	Cerro de Oro	8	Agosto	2023-03-08T00:00:00	2024-11-08T19:00:00	7	Dirección del viento	4.83
164455	7	Sololá	719	Santiago Atitlán	14	Cerro de Oro	8	Agosto	2023-03-08T00:00:00	2024-11-08T19:00:00	1	Precipitación	0.6
164456	7	Sololá	719	Santiago Atitlán	14	Cerro de Oro	8	Agosto	2023-03-08T00:00:00	2024-11-08T19:00:00	8	Radiación solar	0
164457	7	Sololá	719	Santiago Atitlán	14	Cerro de Oro	8	Agosto	2023-03-08T00:00:00	2024-11-08T20:00:00	2	Temperatura media	18.1
164458	7	Sololá	719	Santiago Atitlán	14	Cerro de Oro	8	Agosto	2023-03-08T00:00:00	2024-11-08T20:00:00	4	Temperatura máxima	18.6
164459	7	Sololá	719	Santiago Atitlán	14	Cerro de Oro	8	Agosto	2023-03-08T00:00:00	2024-11-08T20:00:00	3	Temperatura mínima	18
164460	7	Sololá	719	Santiago Atitlán	14	Cerro de Oro	8	Agosto	2023-03-08T00:00:00	2024-11-08T20:00:00	5	Humedad	90
164461	7	Sololá	719	Santiago Atitlán	14	Cerro de Oro	8	Agosto	2023-03-08T00:00:00	2024-11-08T20:00:00	6	Velocidad del viento	4.8
164462	7	Sololá	719	Santiago Atitlán	14	Cerro de Oro	8	Agosto	2023-03-08T00:00:00	2024-11-08T20:00:00	7	Dirección del viento	4.83
164463	7	Sololá	719	Santiago Atitlán	14	Cerro de Oro	8	Agosto	2023-03-08T00:00:00	2024-11-08T20:00:00	1	Precipitación	1
164464	7	Sololá	719	Santiago Atitlán	14	Cerro de Oro	8	Agosto	2023-03-08T00:00:00	2024-11-08T20:00:00	8	Radiación solar	0
164465	7	Sololá	719	Santiago Atitlán	14	Cerro de Oro	8	Agosto	2023-03-08T00:00:00	2024-11-08T21:00:00	2	Temperatura media	18.2
164466	7	Sololá	719	Santiago Atitlán	14	Cerro de Oro	8	Agosto	2023-03-08T00:00:00	2024-11-08T21:00:00	4	Temperatura máxima	18.2
164467	7	Sololá	719	Santiago Atitlán	14	Cerro de Oro	8	Agosto	2023-03-08T00:00:00	2024-11-08T21:00:00	3	Temperatura mínima	17.8
164468	7	Sololá	719	Santiago Atitlán	14	Cerro de Oro	8	Agosto	2023-03-08T00:00:00	2024-11-08T21:00:00	5	Humedad	88
164469	7	Sololá	719	Santiago Atitlán	14	Cerro de Oro	8	Agosto	2023-03-08T00:00:00	2024-11-08T21:00:00	6	Velocidad del viento	8
164470	7	Sololá	719	Santiago Atitlán	14	Cerro de Oro	8	Agosto	2023-03-08T00:00:00	2024-11-08T21:00:00	7	Dirección del viento	8.05
164471	7	Sololá	719	Santiago Atitlán	14	Cerro de Oro	8	Agosto	2023-03-08T00:00:00	2024-11-08T21:00:00	1	Precipitación	2.2
164472	7	Sololá	719	Santiago Atitlán	14	Cerro de Oro	8	Agosto	2023-03-08T00:00:00	2024-11-08T21:00:00	8	Radiación solar	0
164473	7	Sololá	719	Santiago Atitlán	14	Cerro de Oro	8	Agosto	2023-03-08T00:00:00	2024-11-08T22:00:00	2	Temperatura media	18.2
164474	7	Sololá	719	Santiago Atitlán	14	Cerro de Oro	8	Agosto	2023-03-08T00:00:00	2024-11-08T22:00:00	4	Temperatura máxima	18.4
164475	7	Sololá	719	Santiago Atitlán	14	Cerro de Oro	8	Agosto	2023-03-08T00:00:00	2024-11-08T22:00:00	3	Temperatura mínima	18.2
164476	7	Sololá	719	Santiago Atitlán	14	Cerro de Oro	8	Agosto	2023-03-08T00:00:00	2024-11-08T22:00:00	5	Humedad	88
164477	7	Sololá	719	Santiago Atitlán	14	Cerro de Oro	8	Agosto	2023-03-08T00:00:00	2024-11-08T22:00:00	6	Velocidad del viento	4.8
164478	7	Sololá	719	Santiago Atitlán	14	Cerro de Oro	8	Agosto	2023-03-08T00:00:00	2024-11-08T22:00:00	7	Dirección del viento	4.83
164479	7	Sololá	719	Santiago Atitlán	14	Cerro de Oro	8	Agosto	2023-03-08T00:00:00	2024-11-08T22:00:00	1	Precipitación	0.2
164480	7	Sololá	719	Santiago Atitlán	14	Cerro de Oro	8	Agosto	2023-03-08T00:00:00	2024-11-08T22:00:00	8	Radiación solar	0
164481	7	Sololá	719	Santiago Atitlán	14	Cerro de Oro	8	Agosto	2023-03-08T00:00:00	2024-11-08T23:00:00	2	Temperatura media	18.3
164482	7	Sololá	719	Santiago Atitlán	14	Cerro de Oro	8	Agosto	2023-03-08T00:00:00	2024-11-08T23:00:00	4	Temperatura máxima	18.3
164483	7	Sololá	719	Santiago Atitlán	14	Cerro de Oro	8	Agosto	2023-03-08T00:00:00	2024-11-08T23:00:00	3	Temperatura mínima	17.8
164484	7	Sololá	719	Santiago Atitlán	14	Cerro de Oro	8	Agosto	2023-03-08T00:00:00	2024-11-08T23:00:00	5	Humedad	85
164485	7	Sololá	719	Santiago Atitlán	14	Cerro de Oro	8	Agosto	2023-03-08T00:00:00	2024-11-08T23:00:00	6	Velocidad del viento	3.2
164486	7	Sololá	719	Santiago Atitlán	14	Cerro de Oro	8	Agosto	2023-03-08T00:00:00	2024-11-08T23:00:00	7	Dirección del viento	3.22
164487	7	Sololá	719	Santiago Atitlán	14	Cerro de Oro	8	Agosto	2023-03-08T00:00:00	2024-11-08T23:00:00	1	Precipitación	0
164488	7	Sololá	719	Santiago Atitlán	14	Cerro de Oro	8	Agosto	2023-03-08T00:00:00	2024-11-08T23:00:00	8	Radiación solar	0
164489	7	Sololá	719	Santiago Atitlán	14	Cerro de Oro	8	Agosto	2023-04-08T00:00:00	2024-11-08T00:00:00	2	Temperatura media	18.2
164490	7	Sololá	719	Santiago Atitlán	14	Cerro de Oro	8	Agosto	2023-04-08T00:00:00	2024-11-08T00:00:00	4	Temperatura máxima	18.4
164491	7	Sololá	719	Santiago Atitlán	14	Cerro de Oro	8	Agosto	2023-04-08T00:00:00	2024-11-08T00:00:00	3	Temperatura mínima	18.2
164492	7	Sololá	719	Santiago Atitlán	14	Cerro de Oro	8	Agosto	2023-04-08T00:00:00	2024-11-08T00:00:00	5	Humedad	85
164493	7	Sololá	719	Santiago Atitlán	14	Cerro de Oro	8	Agosto	2023-04-08T00:00:00	2024-11-08T00:00:00	6	Velocidad del viento	4.8
164494	7	Sololá	719	Santiago Atitlán	14	Cerro de Oro	8	Agosto	2023-04-08T00:00:00	2024-11-08T00:00:00	7	Dirección del viento	4.83
164495	7	Sololá	719	Santiago Atitlán	14	Cerro de Oro	8	Agosto	2023-04-08T00:00:00	2024-11-08T00:00:00	1	Precipitación	0
164496	7	Sololá	719	Santiago Atitlán	14	Cerro de Oro	8	Agosto	2023-04-08T00:00:00	2024-11-08T00:00:00	8	Radiación solar	0
164497	7	Sololá	719	Santiago Atitlán	14	Cerro de Oro	8	Agosto	2023-04-08T00:00:00	2024-11-08T01:00:00	2	Temperatura media	18.6
164498	7	Sololá	719	Santiago Atitlán	14	Cerro de Oro	8	Agosto	2023-04-08T00:00:00	2024-11-08T01:00:00	4	Temperatura máxima	18.6
164499	7	Sololá	719	Santiago Atitlán	14	Cerro de Oro	8	Agosto	2023-04-08T00:00:00	2024-11-08T01:00:00	3	Temperatura mínima	18.1
164500	7	Sololá	719	Santiago Atitlán	14	Cerro de Oro	8	Agosto	2023-04-08T00:00:00	2024-11-08T01:00:00	5	Humedad	84
164501	7	Sololá	719	Santiago Atitlán	14	Cerro de Oro	8	Agosto	2023-04-08T00:00:00	2024-11-08T01:00:00	6	Velocidad del viento	6.4
164502	7	Sololá	719	Santiago Atitlán	14	Cerro de Oro	8	Agosto	2023-04-08T00:00:00	2024-11-08T01:00:00	7	Dirección del viento	6.44
164503	7	Sololá	719	Santiago Atitlán	14	Cerro de Oro	8	Agosto	2023-04-08T00:00:00	2024-11-08T01:00:00	1	Precipitación	0
164504	7	Sololá	719	Santiago Atitlán	14	Cerro de Oro	8	Agosto	2023-04-08T00:00:00	2024-11-08T01:00:00	8	Radiación solar	0
164505	7	Sololá	719	Santiago Atitlán	14	Cerro de Oro	8	Agosto	2023-04-08T00:00:00	2024-11-08T02:00:00	2	Temperatura media	18.1
164506	7	Sololá	719	Santiago Atitlán	14	Cerro de Oro	8	Agosto	2023-04-08T00:00:00	2024-11-08T02:00:00	4	Temperatura máxima	18.9
164507	7	Sololá	719	Santiago Atitlán	14	Cerro de Oro	8	Agosto	2023-04-08T00:00:00	2024-11-08T02:00:00	3	Temperatura mínima	17.9
164508	7	Sololá	719	Santiago Atitlán	14	Cerro de Oro	8	Agosto	2023-04-08T00:00:00	2024-11-08T02:00:00	5	Humedad	87
164509	7	Sololá	719	Santiago Atitlán	14	Cerro de Oro	8	Agosto	2023-04-08T00:00:00	2024-11-08T02:00:00	6	Velocidad del viento	6.4
164510	7	Sololá	719	Santiago Atitlán	14	Cerro de Oro	8	Agosto	2023-04-08T00:00:00	2024-11-08T02:00:00	7	Dirección del viento	6.44
164511	7	Sololá	719	Santiago Atitlán	14	Cerro de Oro	8	Agosto	2023-04-08T00:00:00	2024-11-08T02:00:00	1	Precipitación	0
164512	7	Sololá	719	Santiago Atitlán	14	Cerro de Oro	8	Agosto	2023-04-08T00:00:00	2024-11-08T02:00:00	8	Radiación solar	0
164513	7	Sololá	719	Santiago Atitlán	14	Cerro de Oro	8	Agosto	2023-04-08T00:00:00	2024-11-08T03:00:00	2	Temperatura media	18.7
164514	7	Sololá	719	Santiago Atitlán	14	Cerro de Oro	8	Agosto	2023-04-08T00:00:00	2024-11-08T03:00:00	4	Temperatura máxima	18.8
164515	7	Sololá	719	Santiago Atitlán	14	Cerro de Oro	8	Agosto	2023-04-08T00:00:00	2024-11-08T03:00:00	3	Temperatura mínima	18
164516	7	Sololá	719	Santiago Atitlán	14	Cerro de Oro	8	Agosto	2023-04-08T00:00:00	2024-11-08T03:00:00	5	Humedad	82
164517	7	Sololá	719	Santiago Atitlán	14	Cerro de Oro	8	Agosto	2023-04-08T00:00:00	2024-11-08T03:00:00	6	Velocidad del viento	4.8
164518	7	Sololá	719	Santiago Atitlán	14	Cerro de Oro	8	Agosto	2023-04-08T00:00:00	2024-11-08T03:00:00	7	Dirección del viento	4.83
164519	7	Sololá	719	Santiago Atitlán	14	Cerro de Oro	8	Agosto	2023-04-08T00:00:00	2024-11-08T03:00:00	1	Precipitación	0
164520	7	Sololá	719	Santiago Atitlán	14	Cerro de Oro	8	Agosto	2023-04-08T00:00:00	2024-11-08T03:00:00	8	Radiación solar	0
164521	7	Sololá	719	Santiago Atitlán	14	Cerro de Oro	8	Agosto	2023-04-08T00:00:00	2024-11-08T04:00:00	2	Temperatura media	18.2
164522	7	Sololá	719	Santiago Atitlán	14	Cerro de Oro	8	Agosto	2023-04-08T00:00:00	2024-11-08T04:00:00	4	Temperatura máxima	18.7
164523	7	Sololá	719	Santiago Atitlán	14	Cerro de Oro	8	Agosto	2023-04-08T00:00:00	2024-11-08T04:00:00	3	Temperatura mínima	18.1
164524	7	Sololá	719	Santiago Atitlán	14	Cerro de Oro	8	Agosto	2023-04-08T00:00:00	2024-11-08T04:00:00	5	Humedad	80
164525	7	Sololá	719	Santiago Atitlán	14	Cerro de Oro	8	Agosto	2023-04-08T00:00:00	2024-11-08T04:00:00	6	Velocidad del viento	3.2
164526	7	Sololá	719	Santiago Atitlán	14	Cerro de Oro	8	Agosto	2023-04-08T00:00:00	2024-11-08T04:00:00	7	Dirección del viento	3.22
164527	7	Sololá	719	Santiago Atitlán	14	Cerro de Oro	8	Agosto	2023-04-08T00:00:00	2024-11-08T04:00:00	1	Precipitación	0
164528	7	Sololá	719	Santiago Atitlán	14	Cerro de Oro	8	Agosto	2023-04-08T00:00:00	2024-11-08T04:00:00	8	Radiación solar	0
164529	7	Sololá	719	Santiago Atitlán	14	Cerro de Oro	8	Agosto	2023-04-08T00:00:00	2024-11-08T05:00:00	2	Temperatura media	18.3
164530	7	Sololá	719	Santiago Atitlán	14	Cerro de Oro	8	Agosto	2023-04-08T00:00:00	2024-11-08T05:00:00	4	Temperatura máxima	18.6
164531	7	Sololá	719	Santiago Atitlán	14	Cerro de Oro	8	Agosto	2023-04-08T00:00:00	2024-11-08T05:00:00	3	Temperatura mínima	18.1
164532	7	Sololá	719	Santiago Atitlán	14	Cerro de Oro	8	Agosto	2023-04-08T00:00:00	2024-11-08T05:00:00	5	Humedad	80
164533	7	Sololá	719	Santiago Atitlán	14	Cerro de Oro	8	Agosto	2023-04-08T00:00:00	2024-11-08T05:00:00	6	Velocidad del viento	3.2
164534	7	Sololá	719	Santiago Atitlán	14	Cerro de Oro	8	Agosto	2023-04-08T00:00:00	2024-11-08T05:00:00	7	Dirección del viento	3.22
164535	7	Sololá	719	Santiago Atitlán	14	Cerro de Oro	8	Agosto	2023-04-08T00:00:00	2024-11-08T05:00:00	1	Precipitación	0
164536	7	Sololá	719	Santiago Atitlán	14	Cerro de Oro	8	Agosto	2023-04-08T00:00:00	2024-11-08T05:00:00	8	Radiación solar	0
164537	7	Sololá	719	Santiago Atitlán	14	Cerro de Oro	8	Agosto	2023-04-08T00:00:00	2024-11-08T06:00:00	2	Temperatura media	18.3
164538	7	Sololá	719	Santiago Atitlán	14	Cerro de Oro	8	Agosto	2023-04-08T00:00:00	2024-11-08T06:00:00	4	Temperatura máxima	18.4
164539	7	Sololá	719	Santiago Atitlán	14	Cerro de Oro	8	Agosto	2023-04-08T00:00:00	2024-11-08T06:00:00	3	Temperatura mínima	18.1
164540	7	Sololá	719	Santiago Atitlán	14	Cerro de Oro	8	Agosto	2023-04-08T00:00:00	2024-11-08T06:00:00	5	Humedad	82
164541	7	Sololá	719	Santiago Atitlán	14	Cerro de Oro	8	Agosto	2023-04-08T00:00:00	2024-11-08T06:00:00	6	Velocidad del viento	3.2
164542	7	Sololá	719	Santiago Atitlán	14	Cerro de Oro	8	Agosto	2023-04-08T00:00:00	2024-11-08T06:00:00	7	Dirección del viento	3.22
164543	7	Sololá	719	Santiago Atitlán	14	Cerro de Oro	8	Agosto	2023-04-08T00:00:00	2024-11-08T06:00:00	1	Precipitación	0
164544	7	Sololá	719	Santiago Atitlán	14	Cerro de Oro	8	Agosto	2023-04-08T00:00:00	2024-11-08T06:00:00	8	Radiación solar	1
164545	7	Sololá	719	Santiago Atitlán	14	Cerro de Oro	8	Agosto	2023-04-08T00:00:00	2024-11-08T07:00:00	2	Temperatura media	19.7
164546	7	Sololá	719	Santiago Atitlán	14	Cerro de Oro	8	Agosto	2023-04-08T00:00:00	2024-11-08T07:00:00	4	Temperatura máxima	19.7
164547	7	Sololá	719	Santiago Atitlán	14	Cerro de Oro	8	Agosto	2023-04-08T00:00:00	2024-11-08T07:00:00	3	Temperatura mínima	18.3
164548	7	Sololá	719	Santiago Atitlán	14	Cerro de Oro	8	Agosto	2023-04-08T00:00:00	2024-11-08T07:00:00	5	Humedad	82
164549	7	Sololá	719	Santiago Atitlán	14	Cerro de Oro	8	Agosto	2023-04-08T00:00:00	2024-11-08T07:00:00	6	Velocidad del viento	3.2
164550	7	Sololá	719	Santiago Atitlán	14	Cerro de Oro	8	Agosto	2023-04-08T00:00:00	2024-11-08T07:00:00	7	Dirección del viento	3.22
164551	7	Sololá	719	Santiago Atitlán	14	Cerro de Oro	8	Agosto	2023-04-08T00:00:00	2024-11-08T07:00:00	1	Precipitación	0
164552	7	Sololá	719	Santiago Atitlán	14	Cerro de Oro	8	Agosto	2023-04-08T00:00:00	2024-11-08T07:00:00	8	Radiación solar	81
164553	7	Sololá	719	Santiago Atitlán	14	Cerro de Oro	8	Agosto	2023-04-08T00:00:00	2024-11-08T08:00:00	2	Temperatura media	20.6
164554	7	Sololá	719	Santiago Atitlán	14	Cerro de Oro	8	Agosto	2023-04-08T00:00:00	2024-11-08T08:00:00	4	Temperatura máxima	20.6
164555	7	Sololá	719	Santiago Atitlán	14	Cerro de Oro	8	Agosto	2023-04-08T00:00:00	2024-11-08T08:00:00	3	Temperatura mínima	19.7
164556	7	Sololá	719	Santiago Atitlán	14	Cerro de Oro	8	Agosto	2023-04-08T00:00:00	2024-11-08T08:00:00	5	Humedad	81
164557	7	Sololá	719	Santiago Atitlán	14	Cerro de Oro	8	Agosto	2023-04-08T00:00:00	2024-11-08T08:00:00	6	Velocidad del viento	1.6
164558	7	Sololá	719	Santiago Atitlán	14	Cerro de Oro	8	Agosto	2023-04-08T00:00:00	2024-11-08T08:00:00	7	Dirección del viento	1.61
164559	7	Sololá	719	Santiago Atitlán	14	Cerro de Oro	8	Agosto	2023-04-08T00:00:00	2024-11-08T08:00:00	1	Precipitación	0
164560	7	Sololá	719	Santiago Atitlán	14	Cerro de Oro	8	Agosto	2023-04-08T00:00:00	2024-11-08T08:00:00	8	Radiación solar	194
164561	7	Sololá	719	Santiago Atitlán	14	Cerro de Oro	8	Agosto	2023-04-08T00:00:00	2024-11-08T09:00:00	2	Temperatura media	21.1
164562	7	Sololá	719	Santiago Atitlán	14	Cerro de Oro	8	Agosto	2023-04-08T00:00:00	2024-11-08T09:00:00	4	Temperatura máxima	21.3
164563	7	Sololá	719	Santiago Atitlán	14	Cerro de Oro	8	Agosto	2023-04-08T00:00:00	2024-11-08T09:00:00	3	Temperatura mínima	20.6
164564	7	Sololá	719	Santiago Atitlán	14	Cerro de Oro	8	Agosto	2023-04-08T00:00:00	2024-11-08T09:00:00	5	Humedad	78
164565	7	Sololá	719	Santiago Atitlán	14	Cerro de Oro	8	Agosto	2023-04-08T00:00:00	2024-11-08T09:00:00	6	Velocidad del viento	1.6
164566	7	Sololá	719	Santiago Atitlán	14	Cerro de Oro	8	Agosto	2023-04-08T00:00:00	2024-11-08T09:00:00	7	Dirección del viento	1.61
164567	7	Sololá	719	Santiago Atitlán	14	Cerro de Oro	8	Agosto	2023-04-08T00:00:00	2024-11-08T09:00:00	1	Precipitación	0
164568	7	Sololá	719	Santiago Atitlán	14	Cerro de Oro	8	Agosto	2023-04-08T00:00:00	2024-11-08T09:00:00	8	Radiación solar	345
164569	7	Sololá	719	Santiago Atitlán	14	Cerro de Oro	8	Agosto	2023-04-08T00:00:00	2024-11-08T10:00:00	2	Temperatura media	23.1
164570	7	Sololá	719	Santiago Atitlán	14	Cerro de Oro	8	Agosto	2023-04-08T00:00:00	2024-11-08T10:00:00	4	Temperatura máxima	23.1
164571	7	Sololá	719	Santiago Atitlán	14	Cerro de Oro	8	Agosto	2023-04-08T00:00:00	2024-11-08T10:00:00	3	Temperatura mínima	21.1
164572	7	Sololá	719	Santiago Atitlán	14	Cerro de Oro	8	Agosto	2023-04-08T00:00:00	2024-11-08T10:00:00	5	Humedad	74
164573	7	Sololá	719	Santiago Atitlán	14	Cerro de Oro	8	Agosto	2023-04-08T00:00:00	2024-11-08T10:00:00	6	Velocidad del viento	3.2
164574	7	Sololá	719	Santiago Atitlán	14	Cerro de Oro	8	Agosto	2023-04-08T00:00:00	2024-11-08T10:00:00	7	Dirección del viento	3.22
164575	7	Sololá	719	Santiago Atitlán	14	Cerro de Oro	8	Agosto	2023-04-08T00:00:00	2024-11-08T10:00:00	1	Precipitación	0
164576	7	Sololá	719	Santiago Atitlán	14	Cerro de Oro	8	Agosto	2023-04-08T00:00:00	2024-11-08T10:00:00	8	Radiación solar	698
164577	7	Sololá	719	Santiago Atitlán	14	Cerro de Oro	8	Agosto	2023-04-08T00:00:00	2024-11-08T11:00:00	2	Temperatura media	23.5
164578	7	Sololá	719	Santiago Atitlán	14	Cerro de Oro	8	Agosto	2023-04-08T00:00:00	2024-11-08T11:00:00	4	Temperatura máxima	23.5
164579	7	Sololá	719	Santiago Atitlán	14	Cerro de Oro	8	Agosto	2023-04-08T00:00:00	2024-11-08T11:00:00	3	Temperatura mínima	22.3
164580	7	Sololá	719	Santiago Atitlán	14	Cerro de Oro	8	Agosto	2023-04-08T00:00:00	2024-11-08T11:00:00	5	Humedad	73
164581	7	Sololá	719	Santiago Atitlán	14	Cerro de Oro	8	Agosto	2023-04-08T00:00:00	2024-11-08T11:00:00	6	Velocidad del viento	4.8
164582	7	Sololá	719	Santiago Atitlán	14	Cerro de Oro	8	Agosto	2023-04-08T00:00:00	2024-11-08T11:00:00	7	Dirección del viento	4.83
164583	7	Sololá	719	Santiago Atitlán	14	Cerro de Oro	8	Agosto	2023-04-08T00:00:00	2024-11-08T11:00:00	1	Precipitación	0
164584	7	Sololá	719	Santiago Atitlán	14	Cerro de Oro	8	Agosto	2023-04-08T00:00:00	2024-11-08T11:00:00	8	Radiación solar	667
164585	7	Sololá	719	Santiago Atitlán	14	Cerro de Oro	8	Agosto	2023-04-08T00:00:00	2024-11-08T12:00:00	2	Temperatura media	24.5
164586	7	Sololá	719	Santiago Atitlán	14	Cerro de Oro	8	Agosto	2023-04-08T00:00:00	2024-11-08T12:00:00	4	Temperatura máxima	25.1
164587	7	Sololá	719	Santiago Atitlán	14	Cerro de Oro	8	Agosto	2023-04-08T00:00:00	2024-11-08T12:00:00	3	Temperatura mínima	23.6
164588	7	Sololá	719	Santiago Atitlán	14	Cerro de Oro	8	Agosto	2023-04-08T00:00:00	2024-11-08T12:00:00	5	Humedad	68
164589	7	Sololá	719	Santiago Atitlán	14	Cerro de Oro	8	Agosto	2023-04-08T00:00:00	2024-11-08T12:00:00	6	Velocidad del viento	4.8
164590	7	Sololá	719	Santiago Atitlán	14	Cerro de Oro	8	Agosto	2023-04-08T00:00:00	2024-11-08T12:00:00	7	Dirección del viento	4.83
164591	7	Sololá	719	Santiago Atitlán	14	Cerro de Oro	8	Agosto	2023-04-08T00:00:00	2024-11-08T12:00:00	1	Precipitación	0
164592	7	Sololá	719	Santiago Atitlán	14	Cerro de Oro	8	Agosto	2023-04-08T00:00:00	2024-11-08T12:00:00	8	Radiación solar	639
164593	7	Sololá	719	Santiago Atitlán	14	Cerro de Oro	8	Agosto	2023-04-08T00:00:00	2024-11-08T13:00:00	2	Temperatura media	26.7
164594	7	Sololá	719	Santiago Atitlán	14	Cerro de Oro	8	Agosto	2023-04-08T00:00:00	2024-11-08T13:00:00	4	Temperatura máxima	26.7
164595	7	Sololá	719	Santiago Atitlán	14	Cerro de Oro	8	Agosto	2023-04-08T00:00:00	2024-11-08T13:00:00	3	Temperatura mínima	24.5
164596	7	Sololá	719	Santiago Atitlán	14	Cerro de Oro	8	Agosto	2023-04-08T00:00:00	2024-11-08T13:00:00	5	Humedad	65
164597	7	Sololá	719	Santiago Atitlán	14	Cerro de Oro	8	Agosto	2023-04-08T00:00:00	2024-11-08T13:00:00	6	Velocidad del viento	6.4
164598	7	Sololá	719	Santiago Atitlán	14	Cerro de Oro	8	Agosto	2023-04-08T00:00:00	2024-11-08T13:00:00	7	Dirección del viento	6.44
164599	7	Sololá	719	Santiago Atitlán	14	Cerro de Oro	8	Agosto	2023-04-08T00:00:00	2024-11-08T13:00:00	1	Precipitación	0
164600	7	Sololá	719	Santiago Atitlán	14	Cerro de Oro	8	Agosto	2023-04-08T00:00:00	2024-11-08T13:00:00	8	Radiación solar	1003
164601	7	Sololá	719	Santiago Atitlán	14	Cerro de Oro	8	Agosto	2023-04-08T00:00:00	2024-11-08T14:00:00	2	Temperatura media	26.1
164602	7	Sololá	719	Santiago Atitlán	14	Cerro de Oro	8	Agosto	2023-04-08T00:00:00	2024-11-08T14:00:00	4	Temperatura máxima	26.7
164603	7	Sololá	719	Santiago Atitlán	14	Cerro de Oro	8	Agosto	2023-04-08T00:00:00	2024-11-08T14:00:00	3	Temperatura mínima	25.4
164604	7	Sololá	719	Santiago Atitlán	14	Cerro de Oro	8	Agosto	2023-04-08T00:00:00	2024-11-08T14:00:00	5	Humedad	66
164605	7	Sololá	719	Santiago Atitlán	14	Cerro de Oro	8	Agosto	2023-04-08T00:00:00	2024-11-08T14:00:00	6	Velocidad del viento	8
164606	7	Sololá	719	Santiago Atitlán	14	Cerro de Oro	8	Agosto	2023-04-08T00:00:00	2024-11-08T14:00:00	7	Dirección del viento	8.05
164607	7	Sololá	719	Santiago Atitlán	14	Cerro de Oro	8	Agosto	2023-04-08T00:00:00	2024-11-08T14:00:00	1	Precipitación	0
164608	7	Sololá	719	Santiago Atitlán	14	Cerro de Oro	8	Agosto	2023-04-08T00:00:00	2024-11-08T14:00:00	8	Radiación solar	694
164609	7	Sololá	719	Santiago Atitlán	14	Cerro de Oro	8	Agosto	2023-04-08T00:00:00	2024-11-08T15:00:00	2	Temperatura media	25.7
164610	7	Sololá	719	Santiago Atitlán	14	Cerro de Oro	8	Agosto	2023-04-08T00:00:00	2024-11-08T15:00:00	4	Temperatura máxima	26.3
164611	7	Sololá	719	Santiago Atitlán	14	Cerro de Oro	8	Agosto	2023-04-08T00:00:00	2024-11-08T15:00:00	3	Temperatura mínima	25.7
164612	7	Sololá	719	Santiago Atitlán	14	Cerro de Oro	8	Agosto	2023-04-08T00:00:00	2024-11-08T15:00:00	5	Humedad	69
164613	7	Sololá	719	Santiago Atitlán	14	Cerro de Oro	8	Agosto	2023-04-08T00:00:00	2024-11-08T15:00:00	6	Velocidad del viento	8
164614	7	Sololá	719	Santiago Atitlán	14	Cerro de Oro	8	Agosto	2023-04-08T00:00:00	2024-11-08T15:00:00	7	Dirección del viento	8.05
164615	7	Sololá	719	Santiago Atitlán	14	Cerro de Oro	8	Agosto	2023-04-08T00:00:00	2024-11-08T15:00:00	1	Precipitación	0
164616	7	Sololá	719	Santiago Atitlán	14	Cerro de Oro	8	Agosto	2023-04-08T00:00:00	2024-11-08T15:00:00	8	Radiación solar	568
164617	7	Sololá	719	Santiago Atitlán	14	Cerro de Oro	8	Agosto	2023-04-08T00:00:00	2024-11-08T16:00:00	2	Temperatura media	24.2
164618	7	Sololá	719	Santiago Atitlán	14	Cerro de Oro	8	Agosto	2023-04-08T00:00:00	2024-11-08T16:00:00	4	Temperatura máxima	25.7
164619	7	Sololá	719	Santiago Atitlán	14	Cerro de Oro	8	Agosto	2023-04-08T00:00:00	2024-11-08T16:00:00	3	Temperatura mínima	24.2
164620	7	Sololá	719	Santiago Atitlán	14	Cerro de Oro	8	Agosto	2023-04-08T00:00:00	2024-11-08T16:00:00	5	Humedad	77
164621	7	Sololá	719	Santiago Atitlán	14	Cerro de Oro	8	Agosto	2023-04-08T00:00:00	2024-11-08T16:00:00	6	Velocidad del viento	12.9
164622	7	Sololá	719	Santiago Atitlán	14	Cerro de Oro	8	Agosto	2023-04-08T00:00:00	2024-11-08T16:00:00	7	Dirección del viento	12.87
164623	7	Sololá	719	Santiago Atitlán	14	Cerro de Oro	8	Agosto	2023-04-08T00:00:00	2024-11-08T16:00:00	1	Precipitación	0
164624	7	Sololá	719	Santiago Atitlán	14	Cerro de Oro	8	Agosto	2023-04-08T00:00:00	2024-11-08T16:00:00	8	Radiación solar	415
164625	7	Sololá	719	Santiago Atitlán	14	Cerro de Oro	8	Agosto	2023-04-08T00:00:00	2024-11-08T17:00:00	2	Temperatura media	22.8
164626	7	Sololá	719	Santiago Atitlán	14	Cerro de Oro	8	Agosto	2023-04-08T00:00:00	2024-11-08T17:00:00	4	Temperatura máxima	24.4
164627	7	Sololá	719	Santiago Atitlán	14	Cerro de Oro	8	Agosto	2023-04-08T00:00:00	2024-11-08T17:00:00	3	Temperatura mínima	22.8
164628	7	Sololá	719	Santiago Atitlán	14	Cerro de Oro	8	Agosto	2023-04-08T00:00:00	2024-11-08T17:00:00	5	Humedad	67
164629	7	Sololá	719	Santiago Atitlán	14	Cerro de Oro	8	Agosto	2023-04-08T00:00:00	2024-11-08T17:00:00	6	Velocidad del viento	12.9
164630	7	Sololá	719	Santiago Atitlán	14	Cerro de Oro	8	Agosto	2023-04-08T00:00:00	2024-11-08T17:00:00	7	Dirección del viento	12.87
164631	7	Sololá	719	Santiago Atitlán	14	Cerro de Oro	8	Agosto	2023-04-08T00:00:00	2024-11-08T17:00:00	1	Precipitación	0
164632	7	Sololá	719	Santiago Atitlán	14	Cerro de Oro	8	Agosto	2023-04-08T00:00:00	2024-11-08T17:00:00	8	Radiación solar	296
164633	7	Sololá	719	Santiago Atitlán	14	Cerro de Oro	8	Agosto	2023-04-08T00:00:00	2024-11-08T18:00:00	2	Temperatura media	20.9
164634	7	Sololá	719	Santiago Atitlán	14	Cerro de Oro	8	Agosto	2023-04-08T00:00:00	2024-11-08T18:00:00	4	Temperatura máxima	22.8
164635	7	Sololá	719	Santiago Atitlán	14	Cerro de Oro	8	Agosto	2023-04-08T00:00:00	2024-11-08T18:00:00	3	Temperatura mínima	18.9
164636	7	Sololá	719	Santiago Atitlán	14	Cerro de Oro	8	Agosto	2023-04-08T00:00:00	2024-11-08T18:00:00	5	Humedad	74
164637	7	Sololá	719	Santiago Atitlán	14	Cerro de Oro	8	Agosto	2023-04-08T00:00:00	2024-11-08T18:00:00	6	Velocidad del viento	12.9
164638	7	Sololá	719	Santiago Atitlán	14	Cerro de Oro	8	Agosto	2023-04-08T00:00:00	2024-11-08T18:00:00	7	Dirección del viento	12.87
164639	7	Sololá	719	Santiago Atitlán	14	Cerro de Oro	8	Agosto	2023-04-08T00:00:00	2024-11-08T18:00:00	1	Precipitación	0
164640	7	Sololá	719	Santiago Atitlán	14	Cerro de Oro	8	Agosto	2023-04-08T00:00:00	2024-11-08T18:00:00	8	Radiación solar	128
164641	7	Sololá	719	Santiago Atitlán	14	Cerro de Oro	8	Agosto	2023-04-08T00:00:00	2024-11-08T19:00:00	2	Temperatura media	20.4
164642	7	Sololá	719	Santiago Atitlán	14	Cerro de Oro	8	Agosto	2023-04-08T00:00:00	2024-11-08T19:00:00	4	Temperatura máxima	20.9
164643	7	Sololá	719	Santiago Atitlán	14	Cerro de Oro	8	Agosto	2023-04-08T00:00:00	2024-11-08T19:00:00	3	Temperatura mínima	20
164644	7	Sololá	719	Santiago Atitlán	14	Cerro de Oro	8	Agosto	2023-04-08T00:00:00	2024-11-08T19:00:00	5	Humedad	77
164645	7	Sololá	719	Santiago Atitlán	14	Cerro de Oro	8	Agosto	2023-04-08T00:00:00	2024-11-08T19:00:00	6	Velocidad del viento	3.2
164646	7	Sololá	719	Santiago Atitlán	14	Cerro de Oro	8	Agosto	2023-04-08T00:00:00	2024-11-08T19:00:00	7	Dirección del viento	3.22
164647	7	Sololá	719	Santiago Atitlán	14	Cerro de Oro	8	Agosto	2023-04-08T00:00:00	2024-11-08T19:00:00	1	Precipitación	0
164648	7	Sololá	719	Santiago Atitlán	14	Cerro de Oro	8	Agosto	2023-04-08T00:00:00	2024-11-08T19:00:00	8	Radiación solar	0
164649	7	Sololá	719	Santiago Atitlán	14	Cerro de Oro	8	Agosto	2023-04-08T00:00:00	2024-11-08T20:00:00	2	Temperatura media	20.1
164650	7	Sololá	719	Santiago Atitlán	14	Cerro de Oro	8	Agosto	2023-04-08T00:00:00	2024-11-08T20:00:00	4	Temperatura máxima	20.7
164651	7	Sololá	719	Santiago Atitlán	14	Cerro de Oro	8	Agosto	2023-04-08T00:00:00	2024-11-08T20:00:00	3	Temperatura mínima	20.1
164652	7	Sololá	719	Santiago Atitlán	14	Cerro de Oro	8	Agosto	2023-04-08T00:00:00	2024-11-08T20:00:00	5	Humedad	77
164653	7	Sololá	719	Santiago Atitlán	14	Cerro de Oro	8	Agosto	2023-04-08T00:00:00	2024-11-08T20:00:00	6	Velocidad del viento	4.8
164654	7	Sololá	719	Santiago Atitlán	14	Cerro de Oro	8	Agosto	2023-04-08T00:00:00	2024-11-08T20:00:00	7	Dirección del viento	4.83
164655	7	Sololá	719	Santiago Atitlán	14	Cerro de Oro	8	Agosto	2023-04-08T00:00:00	2024-11-08T20:00:00	1	Precipitación	0
164656	7	Sololá	719	Santiago Atitlán	14	Cerro de Oro	8	Agosto	2023-04-08T00:00:00	2024-11-08T20:00:00	8	Radiación solar	0
164657	7	Sololá	719	Santiago Atitlán	14	Cerro de Oro	8	Agosto	2023-04-08T00:00:00	2024-11-08T21:00:00	2	Temperatura media	19.8
164658	7	Sololá	719	Santiago Atitlán	14	Cerro de Oro	8	Agosto	2023-04-08T00:00:00	2024-11-08T21:00:00	4	Temperatura máxima	20.2
164659	7	Sololá	719	Santiago Atitlán	14	Cerro de Oro	8	Agosto	2023-04-08T00:00:00	2024-11-08T21:00:00	3	Temperatura mínima	19.7
164660	7	Sololá	719	Santiago Atitlán	14	Cerro de Oro	8	Agosto	2023-04-08T00:00:00	2024-11-08T21:00:00	5	Humedad	80
164661	7	Sololá	719	Santiago Atitlán	14	Cerro de Oro	8	Agosto	2023-04-08T00:00:00	2024-11-08T21:00:00	6	Velocidad del viento	3.2
164662	7	Sololá	719	Santiago Atitlán	14	Cerro de Oro	8	Agosto	2023-04-08T00:00:00	2024-11-08T21:00:00	7	Dirección del viento	3.22
164663	7	Sololá	719	Santiago Atitlán	14	Cerro de Oro	8	Agosto	2023-04-08T00:00:00	2024-11-08T21:00:00	1	Precipitación	0
164664	7	Sololá	719	Santiago Atitlán	14	Cerro de Oro	8	Agosto	2023-04-08T00:00:00	2024-11-08T21:00:00	8	Radiación solar	0
164665	7	Sololá	719	Santiago Atitlán	14	Cerro de Oro	8	Agosto	2023-04-08T00:00:00	2024-11-08T22:00:00	2	Temperatura media	19.4
164666	7	Sololá	719	Santiago Atitlán	14	Cerro de Oro	8	Agosto	2023-04-08T00:00:00	2024-11-08T22:00:00	4	Temperatura máxima	19.9
164667	7	Sololá	719	Santiago Atitlán	14	Cerro de Oro	8	Agosto	2023-04-08T00:00:00	2024-11-08T22:00:00	3	Temperatura mínima	19.4
164668	7	Sololá	719	Santiago Atitlán	14	Cerro de Oro	8	Agosto	2023-04-08T00:00:00	2024-11-08T22:00:00	5	Humedad	80
164669	7	Sololá	719	Santiago Atitlán	14	Cerro de Oro	8	Agosto	2023-04-08T00:00:00	2024-11-08T22:00:00	6	Velocidad del viento	3.2
164670	7	Sololá	719	Santiago Atitlán	14	Cerro de Oro	8	Agosto	2023-04-08T00:00:00	2024-11-08T22:00:00	7	Dirección del viento	3.22
164671	7	Sololá	719	Santiago Atitlán	14	Cerro de Oro	8	Agosto	2023-04-08T00:00:00	2024-11-08T22:00:00	1	Precipitación	0
164672	7	Sololá	719	Santiago Atitlán	14	Cerro de Oro	8	Agosto	2023-04-08T00:00:00	2024-11-08T22:00:00	8	Radiación solar	0
164673	7	Sololá	719	Santiago Atitlán	14	Cerro de Oro	8	Agosto	2023-04-08T00:00:00	2024-11-08T23:00:00	2	Temperatura media	19.3
164674	7	Sololá	719	Santiago Atitlán	14	Cerro de Oro	8	Agosto	2023-04-08T00:00:00	2024-11-08T23:00:00	4	Temperatura máxima	19.6
164675	7	Sololá	719	Santiago Atitlán	14	Cerro de Oro	8	Agosto	2023-04-08T00:00:00	2024-11-08T23:00:00	3	Temperatura mínima	19.2
164676	7	Sololá	719	Santiago Atitlán	14	Cerro de Oro	8	Agosto	2023-04-08T00:00:00	2024-11-08T23:00:00	5	Humedad	84
164677	7	Sololá	719	Santiago Atitlán	14	Cerro de Oro	8	Agosto	2023-04-08T00:00:00	2024-11-08T23:00:00	6	Velocidad del viento	4.8
164678	7	Sololá	719	Santiago Atitlán	14	Cerro de Oro	8	Agosto	2023-04-08T00:00:00	2024-11-08T23:00:00	7	Dirección del viento	4.83
164679	7	Sololá	719	Santiago Atitlán	14	Cerro de Oro	8	Agosto	2023-04-08T00:00:00	2024-11-08T23:00:00	1	Precipitación	0
164680	7	Sololá	719	Santiago Atitlán	14	Cerro de Oro	8	Agosto	2023-04-08T00:00:00	2024-11-08T23:00:00	8	Radiación solar	0
164681	7	Sololá	719	Santiago Atitlán	14	Cerro de Oro	8	Agosto	2023-05-08T00:00:00	2024-11-08T00:00:00	2	Temperatura media	19.3
164682	7	Sololá	719	Santiago Atitlán	14	Cerro de Oro	8	Agosto	2023-05-08T00:00:00	2024-11-08T00:00:00	4	Temperatura máxima	19.3
164683	7	Sololá	719	Santiago Atitlán	14	Cerro de Oro	8	Agosto	2023-05-08T00:00:00	2024-11-08T00:00:00	3	Temperatura mínima	18.8
164684	7	Sololá	719	Santiago Atitlán	14	Cerro de Oro	8	Agosto	2023-05-08T00:00:00	2024-11-08T00:00:00	5	Humedad	83
164685	7	Sololá	719	Santiago Atitlán	14	Cerro de Oro	8	Agosto	2023-05-08T00:00:00	2024-11-08T00:00:00	6	Velocidad del viento	3.2
164686	7	Sololá	719	Santiago Atitlán	14	Cerro de Oro	8	Agosto	2023-05-08T00:00:00	2024-11-08T00:00:00	7	Dirección del viento	3.22
164687	7	Sololá	719	Santiago Atitlán	14	Cerro de Oro	8	Agosto	2023-05-08T00:00:00	2024-11-08T00:00:00	1	Precipitación	0
164688	7	Sololá	719	Santiago Atitlán	14	Cerro de Oro	8	Agosto	2023-05-08T00:00:00	2024-11-08T00:00:00	8	Radiación solar	0
164689	7	Sololá	719	Santiago Atitlán	14	Cerro de Oro	8	Agosto	2023-05-08T00:00:00	2024-11-08T01:00:00	2	Temperatura media	19.2
164690	7	Sololá	719	Santiago Atitlán	14	Cerro de Oro	8	Agosto	2023-05-08T00:00:00	2024-11-08T01:00:00	4	Temperatura máxima	19.6
164691	7	Sololá	719	Santiago Atitlán	14	Cerro de Oro	8	Agosto	2023-05-08T00:00:00	2024-11-08T01:00:00	3	Temperatura mínima	19.1
164692	7	Sololá	719	Santiago Atitlán	14	Cerro de Oro	8	Agosto	2023-05-08T00:00:00	2024-11-08T01:00:00	5	Humedad	82
164693	7	Sololá	719	Santiago Atitlán	14	Cerro de Oro	8	Agosto	2023-05-08T00:00:00	2024-11-08T01:00:00	6	Velocidad del viento	1.6
164694	7	Sololá	719	Santiago Atitlán	14	Cerro de Oro	8	Agosto	2023-05-08T00:00:00	2024-11-08T01:00:00	7	Dirección del viento	1.61
164695	7	Sololá	719	Santiago Atitlán	14	Cerro de Oro	8	Agosto	2023-05-08T00:00:00	2024-11-08T01:00:00	1	Precipitación	0
164696	7	Sololá	719	Santiago Atitlán	14	Cerro de Oro	8	Agosto	2023-05-08T00:00:00	2024-11-08T01:00:00	8	Radiación solar	0
164697	7	Sololá	719	Santiago Atitlán	14	Cerro de Oro	8	Agosto	2023-05-08T00:00:00	2024-11-08T02:00:00	2	Temperatura media	18.8
164698	7	Sololá	719	Santiago Atitlán	14	Cerro de Oro	8	Agosto	2023-05-08T00:00:00	2024-11-08T02:00:00	4	Temperatura máxima	19.2
164699	7	Sololá	719	Santiago Atitlán	14	Cerro de Oro	8	Agosto	2023-05-08T00:00:00	2024-11-08T02:00:00	3	Temperatura mínima	18.4
164700	7	Sololá	719	Santiago Atitlán	14	Cerro de Oro	8	Agosto	2023-05-08T00:00:00	2024-11-08T02:00:00	5	Humedad	82
164701	7	Sololá	719	Santiago Atitlán	14	Cerro de Oro	8	Agosto	2023-05-08T00:00:00	2024-11-08T02:00:00	6	Velocidad del viento	3.2
164702	7	Sololá	719	Santiago Atitlán	14	Cerro de Oro	8	Agosto	2023-05-08T00:00:00	2024-11-08T02:00:00	7	Dirección del viento	3.22
164703	7	Sololá	719	Santiago Atitlán	14	Cerro de Oro	8	Agosto	2023-05-08T00:00:00	2024-11-08T02:00:00	1	Precipitación	0
164704	7	Sololá	719	Santiago Atitlán	14	Cerro de Oro	8	Agosto	2023-05-08T00:00:00	2024-11-08T02:00:00	8	Radiación solar	0
164705	7	Sololá	719	Santiago Atitlán	14	Cerro de Oro	8	Agosto	2023-05-08T00:00:00	2024-11-08T03:00:00	2	Temperatura media	18.2
164706	7	Sololá	719	Santiago Atitlán	14	Cerro de Oro	8	Agosto	2023-05-08T00:00:00	2024-11-08T03:00:00	4	Temperatura máxima	18.9
164707	7	Sololá	719	Santiago Atitlán	14	Cerro de Oro	8	Agosto	2023-05-08T00:00:00	2024-11-08T03:00:00	3	Temperatura mínima	18.2
164708	7	Sololá	719	Santiago Atitlán	14	Cerro de Oro	8	Agosto	2023-05-08T00:00:00	2024-11-08T03:00:00	5	Humedad	86
164709	7	Sololá	719	Santiago Atitlán	14	Cerro de Oro	8	Agosto	2023-05-08T00:00:00	2024-11-08T03:00:00	6	Velocidad del viento	4.8
164710	7	Sololá	719	Santiago Atitlán	14	Cerro de Oro	8	Agosto	2023-05-08T00:00:00	2024-11-08T03:00:00	7	Dirección del viento	4.83
164711	7	Sololá	719	Santiago Atitlán	14	Cerro de Oro	8	Agosto	2023-05-08T00:00:00	2024-11-08T03:00:00	1	Precipitación	0
164712	7	Sololá	719	Santiago Atitlán	14	Cerro de Oro	8	Agosto	2023-05-08T00:00:00	2024-11-08T03:00:00	8	Radiación solar	0
164713	7	Sololá	719	Santiago Atitlán	14	Cerro de Oro	8	Agosto	2023-05-08T00:00:00	2024-11-08T04:00:00	2	Temperatura media	18.4
164714	7	Sololá	719	Santiago Atitlán	14	Cerro de Oro	8	Agosto	2023-05-08T00:00:00	2024-11-08T04:00:00	4	Temperatura máxima	18.7
164715	7	Sololá	719	Santiago Atitlán	14	Cerro de Oro	8	Agosto	2023-05-08T00:00:00	2024-11-08T04:00:00	3	Temperatura mínima	18.2
164716	7	Sololá	719	Santiago Atitlán	14	Cerro de Oro	8	Agosto	2023-05-08T00:00:00	2024-11-08T04:00:00	5	Humedad	81
164717	7	Sololá	719	Santiago Atitlán	14	Cerro de Oro	8	Agosto	2023-05-08T00:00:00	2024-11-08T04:00:00	6	Velocidad del viento	4.8
164718	7	Sololá	719	Santiago Atitlán	14	Cerro de Oro	8	Agosto	2023-05-08T00:00:00	2024-11-08T04:00:00	7	Dirección del viento	4.83
164719	7	Sololá	719	Santiago Atitlán	14	Cerro de Oro	8	Agosto	2023-05-08T00:00:00	2024-11-08T04:00:00	1	Precipitación	0
164720	7	Sololá	719	Santiago Atitlán	14	Cerro de Oro	8	Agosto	2023-05-08T00:00:00	2024-11-08T04:00:00	8	Radiación solar	0
164721	7	Sololá	719	Santiago Atitlán	14	Cerro de Oro	8	Agosto	2023-05-08T00:00:00	2024-11-08T05:00:00	2	Temperatura media	18.8
164722	7	Sololá	719	Santiago Atitlán	14	Cerro de Oro	8	Agosto	2023-05-08T00:00:00	2024-11-08T05:00:00	4	Temperatura máxima	19.2
164723	7	Sololá	719	Santiago Atitlán	14	Cerro de Oro	8	Agosto	2023-05-08T00:00:00	2024-11-08T05:00:00	3	Temperatura mínima	18.1
164724	7	Sololá	719	Santiago Atitlán	14	Cerro de Oro	8	Agosto	2023-05-08T00:00:00	2024-11-08T05:00:00	5	Humedad	77
164725	7	Sololá	719	Santiago Atitlán	14	Cerro de Oro	8	Agosto	2023-05-08T00:00:00	2024-11-08T05:00:00	6	Velocidad del viento	4.8
164726	7	Sololá	719	Santiago Atitlán	14	Cerro de Oro	8	Agosto	2023-05-08T00:00:00	2024-11-08T05:00:00	7	Dirección del viento	4.83
164727	7	Sololá	719	Santiago Atitlán	14	Cerro de Oro	8	Agosto	2023-05-08T00:00:00	2024-11-08T05:00:00	1	Precipitación	0
164728	7	Sololá	719	Santiago Atitlán	14	Cerro de Oro	8	Agosto	2023-05-08T00:00:00	2024-11-08T05:00:00	8	Radiación solar	0
164729	7	Sololá	719	Santiago Atitlán	14	Cerro de Oro	8	Agosto	2023-05-08T00:00:00	2024-11-08T06:00:00	2	Temperatura media	18.3
164730	7	Sololá	719	Santiago Atitlán	14	Cerro de Oro	8	Agosto	2023-05-08T00:00:00	2024-11-08T06:00:00	4	Temperatura máxima	19.1
164731	7	Sololá	719	Santiago Atitlán	14	Cerro de Oro	8	Agosto	2023-05-08T00:00:00	2024-11-08T06:00:00	3	Temperatura mínima	17.8
164732	7	Sololá	719	Santiago Atitlán	14	Cerro de Oro	8	Agosto	2023-05-08T00:00:00	2024-11-08T06:00:00	5	Humedad	79
164733	7	Sololá	719	Santiago Atitlán	14	Cerro de Oro	8	Agosto	2023-05-08T00:00:00	2024-11-08T06:00:00	6	Velocidad del viento	6.4
164734	7	Sololá	719	Santiago Atitlán	14	Cerro de Oro	8	Agosto	2023-05-08T00:00:00	2024-11-08T06:00:00	7	Dirección del viento	6.44
164735	7	Sololá	719	Santiago Atitlán	14	Cerro de Oro	8	Agosto	2023-05-08T00:00:00	2024-11-08T06:00:00	1	Precipitación	0
164736	7	Sololá	719	Santiago Atitlán	14	Cerro de Oro	8	Agosto	2023-05-08T00:00:00	2024-11-08T06:00:00	8	Radiación solar	2
164737	7	Sololá	719	Santiago Atitlán	14	Cerro de Oro	8	Agosto	2023-05-08T00:00:00	2024-11-08T07:00:00	2	Temperatura media	20.3
164738	7	Sololá	719	Santiago Atitlán	14	Cerro de Oro	8	Agosto	2023-05-08T00:00:00	2024-11-08T07:00:00	4	Temperatura máxima	20.3
164739	7	Sololá	719	Santiago Atitlán	14	Cerro de Oro	8	Agosto	2023-05-08T00:00:00	2024-11-08T07:00:00	3	Temperatura mínima	18.3
164740	7	Sololá	719	Santiago Atitlán	14	Cerro de Oro	8	Agosto	2023-05-08T00:00:00	2024-11-08T07:00:00	5	Humedad	79
164741	7	Sololá	719	Santiago Atitlán	14	Cerro de Oro	8	Agosto	2023-05-08T00:00:00	2024-11-08T07:00:00	6	Velocidad del viento	4.8
164742	7	Sololá	719	Santiago Atitlán	14	Cerro de Oro	8	Agosto	2023-05-08T00:00:00	2024-11-08T07:00:00	7	Dirección del viento	4.83
164743	7	Sololá	719	Santiago Atitlán	14	Cerro de Oro	8	Agosto	2023-05-08T00:00:00	2024-11-08T07:00:00	1	Precipitación	0
164744	7	Sololá	719	Santiago Atitlán	14	Cerro de Oro	8	Agosto	2023-05-08T00:00:00	2024-11-08T07:00:00	8	Radiación solar	69
164745	7	Sololá	719	Santiago Atitlán	14	Cerro de Oro	8	Agosto	2023-05-08T00:00:00	2024-11-08T08:00:00	2	Temperatura media	23.1
164746	7	Sololá	719	Santiago Atitlán	14	Cerro de Oro	8	Agosto	2023-05-08T00:00:00	2024-11-08T08:00:00	4	Temperatura máxima	23.3
164747	7	Sololá	719	Santiago Atitlán	14	Cerro de Oro	8	Agosto	2023-05-08T00:00:00	2024-11-08T08:00:00	3	Temperatura mínima	20.3
164748	7	Sololá	719	Santiago Atitlán	14	Cerro de Oro	8	Agosto	2023-05-08T00:00:00	2024-11-08T08:00:00	5	Humedad	68
164749	7	Sololá	719	Santiago Atitlán	14	Cerro de Oro	8	Agosto	2023-05-08T00:00:00	2024-11-08T08:00:00	6	Velocidad del viento	3.2
164750	7	Sololá	719	Santiago Atitlán	14	Cerro de Oro	8	Agosto	2023-05-08T00:00:00	2024-11-08T08:00:00	7	Dirección del viento	3.22
164751	7	Sololá	719	Santiago Atitlán	14	Cerro de Oro	8	Agosto	2023-05-08T00:00:00	2024-11-08T08:00:00	1	Precipitación	0
164752	7	Sololá	719	Santiago Atitlán	14	Cerro de Oro	8	Agosto	2023-05-08T00:00:00	2024-11-08T08:00:00	8	Radiación solar	274
164753	7	Sololá	719	Santiago Atitlán	14	Cerro de Oro	8	Agosto	2023-05-08T00:00:00	2024-11-08T09:00:00	2	Temperatura media	24.8
164754	7	Sololá	719	Santiago Atitlán	14	Cerro de Oro	8	Agosto	2023-05-08T00:00:00	2024-11-08T09:00:00	4	Temperatura máxima	24.8
164755	7	Sololá	719	Santiago Atitlán	14	Cerro de Oro	8	Agosto	2023-05-08T00:00:00	2024-11-08T09:00:00	3	Temperatura mínima	23
164756	7	Sololá	719	Santiago Atitlán	14	Cerro de Oro	8	Agosto	2023-05-08T00:00:00	2024-11-08T09:00:00	5	Humedad	62
164757	7	Sololá	719	Santiago Atitlán	14	Cerro de Oro	8	Agosto	2023-05-08T00:00:00	2024-11-08T09:00:00	6	Velocidad del viento	3.2
164758	7	Sololá	719	Santiago Atitlán	14	Cerro de Oro	8	Agosto	2023-05-08T00:00:00	2024-11-08T09:00:00	7	Dirección del viento	3.22
164759	7	Sololá	719	Santiago Atitlán	14	Cerro de Oro	8	Agosto	2023-05-08T00:00:00	2024-11-08T09:00:00	1	Precipitación	0
164760	7	Sololá	719	Santiago Atitlán	14	Cerro de Oro	8	Agosto	2023-05-08T00:00:00	2024-11-08T09:00:00	8	Radiación solar	499
164761	7	Sololá	719	Santiago Atitlán	14	Cerro de Oro	8	Agosto	2023-05-08T00:00:00	2024-11-08T10:00:00	2	Temperatura media	25.8
164762	7	Sololá	719	Santiago Atitlán	14	Cerro de Oro	8	Agosto	2023-05-08T00:00:00	2024-11-08T10:00:00	4	Temperatura máxima	25.8
164763	7	Sololá	719	Santiago Atitlán	14	Cerro de Oro	8	Agosto	2023-05-08T00:00:00	2024-11-08T10:00:00	3	Temperatura mínima	24.4
164764	7	Sololá	719	Santiago Atitlán	14	Cerro de Oro	8	Agosto	2023-05-08T00:00:00	2024-11-08T10:00:00	5	Humedad	56
164765	7	Sololá	719	Santiago Atitlán	14	Cerro de Oro	8	Agosto	2023-05-08T00:00:00	2024-11-08T10:00:00	6	Velocidad del viento	4.8
164766	7	Sololá	719	Santiago Atitlán	14	Cerro de Oro	8	Agosto	2023-05-08T00:00:00	2024-11-08T10:00:00	7	Dirección del viento	4.83
164767	7	Sololá	719	Santiago Atitlán	14	Cerro de Oro	8	Agosto	2023-05-08T00:00:00	2024-11-08T10:00:00	1	Precipitación	0
164768	7	Sololá	719	Santiago Atitlán	14	Cerro de Oro	8	Agosto	2023-05-08T00:00:00	2024-11-08T10:00:00	8	Radiación solar	681
164769	7	Sololá	719	Santiago Atitlán	14	Cerro de Oro	8	Agosto	2023-05-08T00:00:00	2024-11-08T11:00:00	2	Temperatura media	26.6
164770	7	Sololá	719	Santiago Atitlán	14	Cerro de Oro	8	Agosto	2023-05-08T00:00:00	2024-11-08T11:00:00	4	Temperatura máxima	26.7
164771	7	Sololá	719	Santiago Atitlán	14	Cerro de Oro	8	Agosto	2023-05-08T00:00:00	2024-11-08T11:00:00	3	Temperatura mínima	25.8
164772	7	Sololá	719	Santiago Atitlán	14	Cerro de Oro	8	Agosto	2023-05-08T00:00:00	2024-11-08T11:00:00	5	Humedad	47
164773	7	Sololá	719	Santiago Atitlán	14	Cerro de Oro	8	Agosto	2023-05-08T00:00:00	2024-11-08T11:00:00	6	Velocidad del viento	6.4
164774	7	Sololá	719	Santiago Atitlán	14	Cerro de Oro	8	Agosto	2023-05-08T00:00:00	2024-11-08T11:00:00	7	Dirección del viento	6.44
164775	7	Sololá	719	Santiago Atitlán	14	Cerro de Oro	8	Agosto	2023-05-08T00:00:00	2024-11-08T11:00:00	1	Precipitación	0
164776	7	Sololá	719	Santiago Atitlán	14	Cerro de Oro	8	Agosto	2023-05-08T00:00:00	2024-11-08T11:00:00	8	Radiación solar	899
164777	7	Sololá	719	Santiago Atitlán	14	Cerro de Oro	8	Agosto	2023-05-08T00:00:00	2024-11-08T12:00:00	2	Temperatura media	26.8
164778	7	Sololá	719	Santiago Atitlán	14	Cerro de Oro	8	Agosto	2023-05-08T00:00:00	2024-11-08T12:00:00	4	Temperatura máxima	26.9
164779	7	Sololá	719	Santiago Atitlán	14	Cerro de Oro	8	Agosto	2023-05-08T00:00:00	2024-11-08T12:00:00	3	Temperatura mínima	26.3
164780	7	Sololá	719	Santiago Atitlán	14	Cerro de Oro	8	Agosto	2023-05-08T00:00:00	2024-11-08T12:00:00	5	Humedad	58
164781	7	Sololá	719	Santiago Atitlán	14	Cerro de Oro	8	Agosto	2023-05-08T00:00:00	2024-11-08T12:00:00	6	Velocidad del viento	8
164782	7	Sololá	719	Santiago Atitlán	14	Cerro de Oro	8	Agosto	2023-05-08T00:00:00	2024-11-08T12:00:00	7	Dirección del viento	8.05
164783	7	Sololá	719	Santiago Atitlán	14	Cerro de Oro	8	Agosto	2023-05-08T00:00:00	2024-11-08T12:00:00	1	Precipitación	0
164784	7	Sololá	719	Santiago Atitlán	14	Cerro de Oro	8	Agosto	2023-05-08T00:00:00	2024-11-08T12:00:00	8	Radiación solar	930
164785	7	Sololá	719	Santiago Atitlán	14	Cerro de Oro	8	Agosto	2023-05-08T00:00:00	2024-11-08T13:00:00	2	Temperatura media	27
164786	7	Sololá	719	Santiago Atitlán	14	Cerro de Oro	8	Agosto	2023-05-08T00:00:00	2024-11-08T13:00:00	4	Temperatura máxima	27
164787	7	Sololá	719	Santiago Atitlán	14	Cerro de Oro	8	Agosto	2023-05-08T00:00:00	2024-11-08T13:00:00	3	Temperatura mínima	26.5
164788	7	Sololá	719	Santiago Atitlán	14	Cerro de Oro	8	Agosto	2023-05-08T00:00:00	2024-11-08T13:00:00	5	Humedad	47
164789	7	Sololá	719	Santiago Atitlán	14	Cerro de Oro	8	Agosto	2023-05-08T00:00:00	2024-11-08T13:00:00	6	Velocidad del viento	11.3
164790	7	Sololá	719	Santiago Atitlán	14	Cerro de Oro	8	Agosto	2023-05-08T00:00:00	2024-11-08T13:00:00	7	Dirección del viento	11.27
164791	7	Sololá	719	Santiago Atitlán	14	Cerro de Oro	8	Agosto	2023-05-08T00:00:00	2024-11-08T13:00:00	1	Precipitación	0
164792	7	Sololá	719	Santiago Atitlán	14	Cerro de Oro	8	Agosto	2023-05-08T00:00:00	2024-11-08T13:00:00	8	Radiación solar	933
164793	7	Sololá	719	Santiago Atitlán	14	Cerro de Oro	8	Agosto	2023-05-08T00:00:00	2024-11-08T14:00:00	2	Temperatura media	26.4
164794	7	Sololá	719	Santiago Atitlán	14	Cerro de Oro	8	Agosto	2023-05-08T00:00:00	2024-11-08T14:00:00	4	Temperatura máxima	27.3
164795	7	Sololá	719	Santiago Atitlán	14	Cerro de Oro	8	Agosto	2023-05-08T00:00:00	2024-11-08T14:00:00	3	Temperatura mínima	26.3
164796	7	Sololá	719	Santiago Atitlán	14	Cerro de Oro	8	Agosto	2023-05-08T00:00:00	2024-11-08T14:00:00	5	Humedad	60
164797	7	Sololá	719	Santiago Atitlán	14	Cerro de Oro	8	Agosto	2023-05-08T00:00:00	2024-11-08T14:00:00	6	Velocidad del viento	11.3
164798	7	Sololá	719	Santiago Atitlán	14	Cerro de Oro	8	Agosto	2023-05-08T00:00:00	2024-11-08T14:00:00	7	Dirección del viento	11.27
164799	7	Sololá	719	Santiago Atitlán	14	Cerro de Oro	8	Agosto	2023-05-08T00:00:00	2024-11-08T14:00:00	1	Precipitación	0
164800	7	Sololá	719	Santiago Atitlán	14	Cerro de Oro	8	Agosto	2023-05-08T00:00:00	2024-11-08T14:00:00	8	Radiación solar	880
164801	7	Sololá	719	Santiago Atitlán	14	Cerro de Oro	8	Agosto	2023-05-08T00:00:00	2024-11-08T15:00:00	2	Temperatura media	26.9
164802	7	Sololá	719	Santiago Atitlán	14	Cerro de Oro	8	Agosto	2023-05-08T00:00:00	2024-11-08T15:00:00	4	Temperatura máxima	27.2
164803	7	Sololá	719	Santiago Atitlán	14	Cerro de Oro	8	Agosto	2023-05-08T00:00:00	2024-11-08T15:00:00	3	Temperatura mínima	26.4
164804	7	Sololá	719	Santiago Atitlán	14	Cerro de Oro	8	Agosto	2023-05-08T00:00:00	2024-11-08T15:00:00	5	Humedad	43
164805	7	Sololá	719	Santiago Atitlán	14	Cerro de Oro	8	Agosto	2023-05-08T00:00:00	2024-11-08T15:00:00	6	Velocidad del viento	11.3
164806	7	Sololá	719	Santiago Atitlán	14	Cerro de Oro	8	Agosto	2023-05-08T00:00:00	2024-11-08T15:00:00	7	Dirección del viento	11.27
164807	7	Sololá	719	Santiago Atitlán	14	Cerro de Oro	8	Agosto	2023-05-08T00:00:00	2024-11-08T15:00:00	1	Precipitación	0
164808	7	Sololá	719	Santiago Atitlán	14	Cerro de Oro	8	Agosto	2023-05-08T00:00:00	2024-11-08T15:00:00	8	Radiación solar	774
164809	7	Sololá	719	Santiago Atitlán	14	Cerro de Oro	8	Agosto	2023-05-08T00:00:00	2024-11-08T16:00:00	2	Temperatura media	27.2
164810	7	Sololá	719	Santiago Atitlán	14	Cerro de Oro	8	Agosto	2023-05-08T00:00:00	2024-11-08T16:00:00	4	Temperatura máxima	27.2
164811	7	Sololá	719	Santiago Atitlán	14	Cerro de Oro	8	Agosto	2023-05-08T00:00:00	2024-11-08T16:00:00	3	Temperatura mínima	26.5
164812	7	Sololá	719	Santiago Atitlán	14	Cerro de Oro	8	Agosto	2023-05-08T00:00:00	2024-11-08T16:00:00	5	Humedad	55
164813	7	Sololá	719	Santiago Atitlán	14	Cerro de Oro	8	Agosto	2023-05-08T00:00:00	2024-11-08T16:00:00	6	Velocidad del viento	12.9
164814	7	Sololá	719	Santiago Atitlán	14	Cerro de Oro	8	Agosto	2023-05-08T00:00:00	2024-11-08T16:00:00	7	Dirección del viento	12.87
164815	7	Sololá	719	Santiago Atitlán	14	Cerro de Oro	8	Agosto	2023-05-08T00:00:00	2024-11-08T16:00:00	1	Precipitación	0
164816	7	Sololá	719	Santiago Atitlán	14	Cerro de Oro	8	Agosto	2023-05-08T00:00:00	2024-11-08T16:00:00	8	Radiación solar	558
164817	7	Sololá	719	Santiago Atitlán	14	Cerro de Oro	8	Agosto	2023-05-08T00:00:00	2024-11-08T17:00:00	2	Temperatura media	26.3
164818	7	Sololá	719	Santiago Atitlán	14	Cerro de Oro	8	Agosto	2023-05-08T00:00:00	2024-11-08T17:00:00	4	Temperatura máxima	27.2
164819	7	Sololá	719	Santiago Atitlán	14	Cerro de Oro	8	Agosto	2023-05-08T00:00:00	2024-11-08T17:00:00	3	Temperatura mínima	26.2
164820	7	Sololá	719	Santiago Atitlán	14	Cerro de Oro	8	Agosto	2023-05-08T00:00:00	2024-11-08T17:00:00	5	Humedad	55
164821	7	Sololá	719	Santiago Atitlán	14	Cerro de Oro	8	Agosto	2023-05-08T00:00:00	2024-11-08T17:00:00	6	Velocidad del viento	11.3
164822	7	Sololá	719	Santiago Atitlán	14	Cerro de Oro	8	Agosto	2023-05-08T00:00:00	2024-11-08T17:00:00	7	Dirección del viento	11.27
164823	7	Sololá	719	Santiago Atitlán	14	Cerro de Oro	8	Agosto	2023-05-08T00:00:00	2024-11-08T17:00:00	1	Precipitación	0
164824	7	Sololá	719	Santiago Atitlán	14	Cerro de Oro	8	Agosto	2023-05-08T00:00:00	2024-11-08T17:00:00	8	Radiación solar	384
164825	7	Sololá	719	Santiago Atitlán	14	Cerro de Oro	8	Agosto	2023-05-08T00:00:00	2024-11-08T18:00:00	2	Temperatura media	24
164826	7	Sololá	719	Santiago Atitlán	14	Cerro de Oro	8	Agosto	2023-05-08T00:00:00	2024-11-08T18:00:00	4	Temperatura máxima	26.3
164827	7	Sololá	719	Santiago Atitlán	14	Cerro de Oro	8	Agosto	2023-05-08T00:00:00	2024-11-08T18:00:00	3	Temperatura mínima	24
164828	7	Sololá	719	Santiago Atitlán	14	Cerro de Oro	8	Agosto	2023-05-08T00:00:00	2024-11-08T18:00:00	5	Humedad	68
164829	7	Sololá	719	Santiago Atitlán	14	Cerro de Oro	8	Agosto	2023-05-08T00:00:00	2024-11-08T18:00:00	6	Velocidad del viento	9.7
164830	7	Sololá	719	Santiago Atitlán	14	Cerro de Oro	8	Agosto	2023-05-08T00:00:00	2024-11-08T18:00:00	7	Dirección del viento	9.66
164831	7	Sololá	719	Santiago Atitlán	14	Cerro de Oro	8	Agosto	2023-05-08T00:00:00	2024-11-08T18:00:00	1	Precipitación	0
164832	7	Sololá	719	Santiago Atitlán	14	Cerro de Oro	8	Agosto	2023-05-08T00:00:00	2024-11-08T18:00:00	8	Radiación solar	151
164833	7	Sololá	719	Santiago Atitlán	14	Cerro de Oro	8	Agosto	2023-05-08T00:00:00	2024-11-08T19:00:00	2	Temperatura media	23.2
164834	7	Sololá	719	Santiago Atitlán	14	Cerro de Oro	8	Agosto	2023-05-08T00:00:00	2024-11-08T19:00:00	4	Temperatura máxima	23.9
164835	7	Sololá	719	Santiago Atitlán	14	Cerro de Oro	8	Agosto	2023-05-08T00:00:00	2024-11-08T19:00:00	3	Temperatura mínima	22.4
164836	7	Sololá	719	Santiago Atitlán	14	Cerro de Oro	8	Agosto	2023-05-08T00:00:00	2024-11-08T19:00:00	5	Humedad	68
164837	7	Sololá	719	Santiago Atitlán	14	Cerro de Oro	8	Agosto	2023-05-08T00:00:00	2024-11-08T19:00:00	6	Velocidad del viento	9.7
164838	7	Sololá	719	Santiago Atitlán	14	Cerro de Oro	8	Agosto	2023-05-08T00:00:00	2024-11-08T19:00:00	7	Dirección del viento	9.66
164839	7	Sololá	719	Santiago Atitlán	14	Cerro de Oro	8	Agosto	2023-05-08T00:00:00	2024-11-08T19:00:00	1	Precipitación	0
164840	7	Sololá	719	Santiago Atitlán	14	Cerro de Oro	8	Agosto	2023-05-08T00:00:00	2024-11-08T19:00:00	8	Radiación solar	0
164841	7	Sololá	719	Santiago Atitlán	14	Cerro de Oro	8	Agosto	2023-05-08T00:00:00	2024-11-08T20:00:00	2	Temperatura media	22.2
164842	7	Sololá	719	Santiago Atitlán	14	Cerro de Oro	8	Agosto	2023-05-08T00:00:00	2024-11-08T20:00:00	4	Temperatura máxima	23.2
164843	7	Sololá	719	Santiago Atitlán	14	Cerro de Oro	8	Agosto	2023-05-08T00:00:00	2024-11-08T20:00:00	3	Temperatura mínima	21.7
164844	7	Sololá	719	Santiago Atitlán	14	Cerro de Oro	8	Agosto	2023-05-08T00:00:00	2024-11-08T20:00:00	5	Humedad	74
164845	7	Sololá	719	Santiago Atitlán	14	Cerro de Oro	8	Agosto	2023-05-08T00:00:00	2024-11-08T20:00:00	6	Velocidad del viento	9.7
164846	7	Sololá	719	Santiago Atitlán	14	Cerro de Oro	8	Agosto	2023-05-08T00:00:00	2024-11-08T20:00:00	7	Dirección del viento	9.66
164847	7	Sololá	719	Santiago Atitlán	14	Cerro de Oro	8	Agosto	2023-05-08T00:00:00	2024-11-08T20:00:00	1	Precipitación	0
164848	7	Sololá	719	Santiago Atitlán	14	Cerro de Oro	8	Agosto	2023-05-08T00:00:00	2024-11-08T20:00:00	8	Radiación solar	0
164849	7	Sololá	719	Santiago Atitlán	14	Cerro de Oro	8	Agosto	2023-05-08T00:00:00	2024-11-08T21:00:00	2	Temperatura media	22.1
164850	7	Sololá	719	Santiago Atitlán	14	Cerro de Oro	8	Agosto	2023-05-08T00:00:00	2024-11-08T21:00:00	4	Temperatura máxima	22.4
164851	7	Sololá	719	Santiago Atitlán	14	Cerro de Oro	8	Agosto	2023-05-08T00:00:00	2024-11-08T21:00:00	3	Temperatura mínima	21.9
164852	7	Sololá	719	Santiago Atitlán	14	Cerro de Oro	8	Agosto	2023-05-08T00:00:00	2024-11-08T21:00:00	5	Humedad	69
164853	7	Sololá	719	Santiago Atitlán	14	Cerro de Oro	8	Agosto	2023-05-08T00:00:00	2024-11-08T21:00:00	6	Velocidad del viento	6.4
164854	7	Sololá	719	Santiago Atitlán	14	Cerro de Oro	8	Agosto	2023-05-08T00:00:00	2024-11-08T21:00:00	7	Dirección del viento	6.44
164855	7	Sololá	719	Santiago Atitlán	14	Cerro de Oro	8	Agosto	2023-05-08T00:00:00	2024-11-08T21:00:00	1	Precipitación	0
164856	7	Sololá	719	Santiago Atitlán	14	Cerro de Oro	8	Agosto	2023-05-08T00:00:00	2024-11-08T21:00:00	8	Radiación solar	0
164857	7	Sololá	719	Santiago Atitlán	14	Cerro de Oro	8	Agosto	2023-05-08T00:00:00	2024-11-08T22:00:00	2	Temperatura media	21.9
164858	7	Sololá	719	Santiago Atitlán	14	Cerro de Oro	8	Agosto	2023-05-08T00:00:00	2024-11-08T22:00:00	4	Temperatura máxima	22.2
164859	7	Sololá	719	Santiago Atitlán	14	Cerro de Oro	8	Agosto	2023-05-08T00:00:00	2024-11-08T22:00:00	3	Temperatura mínima	21.9
164860	7	Sololá	719	Santiago Atitlán	14	Cerro de Oro	8	Agosto	2023-05-08T00:00:00	2024-11-08T22:00:00	5	Humedad	67
164861	7	Sololá	719	Santiago Atitlán	14	Cerro de Oro	8	Agosto	2023-05-08T00:00:00	2024-11-08T22:00:00	6	Velocidad del viento	4.8
164862	7	Sololá	719	Santiago Atitlán	14	Cerro de Oro	8	Agosto	2023-05-08T00:00:00	2024-11-08T22:00:00	7	Dirección del viento	4.83
164863	7	Sololá	719	Santiago Atitlán	14	Cerro de Oro	8	Agosto	2023-05-08T00:00:00	2024-11-08T22:00:00	1	Precipitación	0
164864	7	Sololá	719	Santiago Atitlán	14	Cerro de Oro	8	Agosto	2023-05-08T00:00:00	2024-11-08T22:00:00	8	Radiación solar	0
164865	7	Sololá	719	Santiago Atitlán	14	Cerro de Oro	8	Agosto	2023-05-08T00:00:00	2024-11-08T23:00:00	2	Temperatura media	21.2
164866	7	Sololá	719	Santiago Atitlán	14	Cerro de Oro	8	Agosto	2023-05-08T00:00:00	2024-11-08T23:00:00	4	Temperatura máxima	21.9
164867	7	Sololá	719	Santiago Atitlán	14	Cerro de Oro	8	Agosto	2023-05-08T00:00:00	2024-11-08T23:00:00	3	Temperatura mínima	21
164868	7	Sololá	719	Santiago Atitlán	14	Cerro de Oro	8	Agosto	2023-05-08T00:00:00	2024-11-08T23:00:00	5	Humedad	72
164869	7	Sololá	719	Santiago Atitlán	14	Cerro de Oro	8	Agosto	2023-05-08T00:00:00	2024-11-08T23:00:00	6	Velocidad del viento	9.7
164870	7	Sololá	719	Santiago Atitlán	14	Cerro de Oro	8	Agosto	2023-05-08T00:00:00	2024-11-08T23:00:00	7	Dirección del viento	9.66
164871	7	Sololá	719	Santiago Atitlán	14	Cerro de Oro	8	Agosto	2023-05-08T00:00:00	2024-11-08T23:00:00	1	Precipitación	0
164872	7	Sololá	719	Santiago Atitlán	14	Cerro de Oro	8	Agosto	2023-05-08T00:00:00	2024-11-08T23:00:00	8	Radiación solar	0
164873	7	Sololá	719	Santiago Atitlán	14	Cerro de Oro	8	Agosto	2023-06-08T00:00:00	2024-11-08T00:00:00	2	Temperatura media	20.1
164874	7	Sololá	719	Santiago Atitlán	14	Cerro de Oro	8	Agosto	2023-06-08T00:00:00	2024-11-08T00:00:00	4	Temperatura máxima	21.6
164875	7	Sololá	719	Santiago Atitlán	14	Cerro de Oro	8	Agosto	2023-06-08T00:00:00	2024-11-08T00:00:00	3	Temperatura mínima	20.1
164876	7	Sololá	719	Santiago Atitlán	14	Cerro de Oro	8	Agosto	2023-06-08T00:00:00	2024-11-08T00:00:00	5	Humedad	71
164877	7	Sololá	719	Santiago Atitlán	14	Cerro de Oro	8	Agosto	2023-06-08T00:00:00	2024-11-08T00:00:00	6	Velocidad del viento	8
164878	7	Sololá	719	Santiago Atitlán	14	Cerro de Oro	8	Agosto	2023-06-08T00:00:00	2024-11-08T00:00:00	7	Dirección del viento	8.05
164879	7	Sololá	719	Santiago Atitlán	14	Cerro de Oro	8	Agosto	2023-06-08T00:00:00	2024-11-08T00:00:00	1	Precipitación	0
164880	7	Sololá	719	Santiago Atitlán	14	Cerro de Oro	8	Agosto	2023-06-08T00:00:00	2024-11-08T00:00:00	8	Radiación solar	0
164881	7	Sololá	719	Santiago Atitlán	14	Cerro de Oro	8	Agosto	2023-06-08T00:00:00	2024-11-08T01:00:00	2	Temperatura media	19.9
164882	7	Sololá	719	Santiago Atitlán	14	Cerro de Oro	8	Agosto	2023-06-08T00:00:00	2024-11-08T01:00:00	4	Temperatura máxima	20.3
164883	7	Sololá	719	Santiago Atitlán	14	Cerro de Oro	8	Agosto	2023-06-08T00:00:00	2024-11-08T01:00:00	3	Temperatura mínima	19.5
164884	7	Sololá	719	Santiago Atitlán	14	Cerro de Oro	8	Agosto	2023-06-08T00:00:00	2024-11-08T01:00:00	5	Humedad	70
164885	7	Sololá	719	Santiago Atitlán	14	Cerro de Oro	8	Agosto	2023-06-08T00:00:00	2024-11-08T01:00:00	6	Velocidad del viento	4.8
164886	7	Sololá	719	Santiago Atitlán	14	Cerro de Oro	8	Agosto	2023-06-08T00:00:00	2024-11-08T01:00:00	7	Dirección del viento	4.83
164887	7	Sololá	719	Santiago Atitlán	14	Cerro de Oro	8	Agosto	2023-06-08T00:00:00	2024-11-08T01:00:00	1	Precipitación	0
164888	7	Sololá	719	Santiago Atitlán	14	Cerro de Oro	8	Agosto	2023-06-08T00:00:00	2024-11-08T01:00:00	8	Radiación solar	0
164889	7	Sololá	719	Santiago Atitlán	14	Cerro de Oro	8	Agosto	2023-06-08T00:00:00	2024-11-08T02:00:00	2	Temperatura media	19.5
164890	7	Sololá	719	Santiago Atitlán	14	Cerro de Oro	8	Agosto	2023-06-08T00:00:00	2024-11-08T02:00:00	4	Temperatura máxima	19.9
164891	7	Sololá	719	Santiago Atitlán	14	Cerro de Oro	8	Agosto	2023-06-08T00:00:00	2024-11-08T02:00:00	3	Temperatura mínima	18.9
164892	7	Sololá	719	Santiago Atitlán	14	Cerro de Oro	8	Agosto	2023-06-08T00:00:00	2024-11-08T02:00:00	5	Humedad	71
164893	7	Sololá	719	Santiago Atitlán	14	Cerro de Oro	8	Agosto	2023-06-08T00:00:00	2024-11-08T02:00:00	6	Velocidad del viento	6.4
164894	7	Sololá	719	Santiago Atitlán	14	Cerro de Oro	8	Agosto	2023-06-08T00:00:00	2024-11-08T02:00:00	7	Dirección del viento	6.44
164895	7	Sololá	719	Santiago Atitlán	14	Cerro de Oro	8	Agosto	2023-06-08T00:00:00	2024-11-08T02:00:00	1	Precipitación	0
164896	7	Sololá	719	Santiago Atitlán	14	Cerro de Oro	8	Agosto	2023-06-08T00:00:00	2024-11-08T02:00:00	8	Radiación solar	0
164897	7	Sololá	719	Santiago Atitlán	14	Cerro de Oro	8	Agosto	2023-06-08T00:00:00	2024-11-08T03:00:00	2	Temperatura media	18.6
164898	7	Sololá	719	Santiago Atitlán	14	Cerro de Oro	8	Agosto	2023-06-08T00:00:00	2024-11-08T03:00:00	4	Temperatura máxima	20.2
164899	7	Sololá	719	Santiago Atitlán	14	Cerro de Oro	8	Agosto	2023-06-08T00:00:00	2024-11-08T03:00:00	3	Temperatura mínima	18.6
164900	7	Sololá	719	Santiago Atitlán	14	Cerro de Oro	8	Agosto	2023-06-08T00:00:00	2024-11-08T03:00:00	5	Humedad	75
164901	7	Sololá	719	Santiago Atitlán	14	Cerro de Oro	8	Agosto	2023-06-08T00:00:00	2024-11-08T03:00:00	6	Velocidad del viento	3.2
164902	7	Sololá	719	Santiago Atitlán	14	Cerro de Oro	8	Agosto	2023-06-08T00:00:00	2024-11-08T03:00:00	7	Dirección del viento	3.22
164903	7	Sololá	719	Santiago Atitlán	14	Cerro de Oro	8	Agosto	2023-06-08T00:00:00	2024-11-08T03:00:00	1	Precipitación	0
164904	7	Sololá	719	Santiago Atitlán	14	Cerro de Oro	8	Agosto	2023-06-08T00:00:00	2024-11-08T03:00:00	8	Radiación solar	0
164905	7	Sololá	719	Santiago Atitlán	14	Cerro de Oro	8	Agosto	2023-06-08T00:00:00	2024-11-08T04:00:00	2	Temperatura media	18.8
164906	7	Sololá	719	Santiago Atitlán	14	Cerro de Oro	8	Agosto	2023-06-08T00:00:00	2024-11-08T04:00:00	4	Temperatura máxima	19.3
164907	7	Sololá	719	Santiago Atitlán	14	Cerro de Oro	8	Agosto	2023-06-08T00:00:00	2024-11-08T04:00:00	3	Temperatura mínima	18
164908	7	Sololá	719	Santiago Atitlán	14	Cerro de Oro	8	Agosto	2023-06-08T00:00:00	2024-11-08T04:00:00	5	Humedad	74
164909	7	Sololá	719	Santiago Atitlán	14	Cerro de Oro	8	Agosto	2023-06-08T00:00:00	2024-11-08T04:00:00	6	Velocidad del viento	4.8
164910	7	Sololá	719	Santiago Atitlán	14	Cerro de Oro	8	Agosto	2023-06-08T00:00:00	2024-11-08T04:00:00	7	Dirección del viento	4.83
164911	7	Sololá	719	Santiago Atitlán	14	Cerro de Oro	8	Agosto	2023-06-08T00:00:00	2024-11-08T04:00:00	1	Precipitación	0
164912	7	Sololá	719	Santiago Atitlán	14	Cerro de Oro	8	Agosto	2023-06-08T00:00:00	2024-11-08T04:00:00	8	Radiación solar	0
164913	7	Sololá	719	Santiago Atitlán	14	Cerro de Oro	8	Agosto	2023-06-08T00:00:00	2024-11-08T05:00:00	2	Temperatura media	18.8
164914	7	Sololá	719	Santiago Atitlán	14	Cerro de Oro	8	Agosto	2023-06-08T00:00:00	2024-11-08T05:00:00	4	Temperatura máxima	19.1
164915	7	Sololá	719	Santiago Atitlán	14	Cerro de Oro	8	Agosto	2023-06-08T00:00:00	2024-11-08T05:00:00	3	Temperatura mínima	18.6
164916	7	Sololá	719	Santiago Atitlán	14	Cerro de Oro	8	Agosto	2023-06-08T00:00:00	2024-11-08T05:00:00	5	Humedad	75
164917	7	Sololá	719	Santiago Atitlán	14	Cerro de Oro	8	Agosto	2023-06-08T00:00:00	2024-11-08T05:00:00	6	Velocidad del viento	3.2
164918	7	Sololá	719	Santiago Atitlán	14	Cerro de Oro	8	Agosto	2023-06-08T00:00:00	2024-11-08T05:00:00	7	Dirección del viento	3.22
164919	7	Sololá	719	Santiago Atitlán	14	Cerro de Oro	8	Agosto	2023-06-08T00:00:00	2024-11-08T05:00:00	1	Precipitación	0
164920	7	Sololá	719	Santiago Atitlán	14	Cerro de Oro	8	Agosto	2023-06-08T00:00:00	2024-11-08T05:00:00	8	Radiación solar	0
164921	7	Sololá	719	Santiago Atitlán	14	Cerro de Oro	8	Agosto	2023-06-08T00:00:00	2024-11-08T06:00:00	2	Temperatura media	18.4
164922	7	Sololá	719	Santiago Atitlán	14	Cerro de Oro	8	Agosto	2023-06-08T00:00:00	2024-11-08T06:00:00	4	Temperatura máxima	19.1
164923	7	Sololá	719	Santiago Atitlán	14	Cerro de Oro	8	Agosto	2023-06-08T00:00:00	2024-11-08T06:00:00	3	Temperatura mínima	18.3
164924	7	Sololá	719	Santiago Atitlán	14	Cerro de Oro	8	Agosto	2023-06-08T00:00:00	2024-11-08T06:00:00	5	Humedad	74
164925	7	Sololá	719	Santiago Atitlán	14	Cerro de Oro	8	Agosto	2023-06-08T00:00:00	2024-11-08T06:00:00	6	Velocidad del viento	3.2
164926	7	Sololá	719	Santiago Atitlán	14	Cerro de Oro	8	Agosto	2023-06-08T00:00:00	2024-11-08T06:00:00	7	Dirección del viento	3.22
164927	7	Sololá	719	Santiago Atitlán	14	Cerro de Oro	8	Agosto	2023-06-08T00:00:00	2024-11-08T06:00:00	1	Precipitación	0
164928	7	Sololá	719	Santiago Atitlán	14	Cerro de Oro	8	Agosto	2023-06-08T00:00:00	2024-11-08T06:00:00	8	Radiación solar	2
164929	7	Sololá	719	Santiago Atitlán	14	Cerro de Oro	8	Agosto	2023-06-08T00:00:00	2024-11-08T07:00:00	2	Temperatura media	21.3
164930	7	Sololá	719	Santiago Atitlán	14	Cerro de Oro	8	Agosto	2023-06-08T00:00:00	2024-11-08T07:00:00	4	Temperatura máxima	21.3
164931	7	Sololá	719	Santiago Atitlán	14	Cerro de Oro	8	Agosto	2023-06-08T00:00:00	2024-11-08T07:00:00	3	Temperatura mínima	17.9
164932	7	Sololá	719	Santiago Atitlán	14	Cerro de Oro	8	Agosto	2023-06-08T00:00:00	2024-11-08T07:00:00	5	Humedad	68
164933	7	Sololá	719	Santiago Atitlán	14	Cerro de Oro	8	Agosto	2023-06-08T00:00:00	2024-11-08T07:00:00	6	Velocidad del viento	4.8
164934	7	Sololá	719	Santiago Atitlán	14	Cerro de Oro	8	Agosto	2023-06-08T00:00:00	2024-11-08T07:00:00	7	Dirección del viento	4.83
164935	7	Sololá	719	Santiago Atitlán	14	Cerro de Oro	8	Agosto	2023-06-08T00:00:00	2024-11-08T07:00:00	1	Precipitación	0
164936	7	Sololá	719	Santiago Atitlán	14	Cerro de Oro	8	Agosto	2023-06-08T00:00:00	2024-11-08T07:00:00	8	Radiación solar	69
164937	7	Sololá	719	Santiago Atitlán	14	Cerro de Oro	8	Agosto	2023-06-08T00:00:00	2024-11-08T08:00:00	2	Temperatura media	23.1
164938	7	Sololá	719	Santiago Atitlán	14	Cerro de Oro	8	Agosto	2023-06-08T00:00:00	2024-11-08T08:00:00	4	Temperatura máxima	23.2
164939	7	Sololá	719	Santiago Atitlán	14	Cerro de Oro	8	Agosto	2023-06-08T00:00:00	2024-11-08T08:00:00	3	Temperatura mínima	21.3
164940	7	Sololá	719	Santiago Atitlán	14	Cerro de Oro	8	Agosto	2023-06-08T00:00:00	2024-11-08T08:00:00	5	Humedad	62
164941	7	Sololá	719	Santiago Atitlán	14	Cerro de Oro	8	Agosto	2023-06-08T00:00:00	2024-11-08T08:00:00	6	Velocidad del viento	3.2
164942	7	Sololá	719	Santiago Atitlán	14	Cerro de Oro	8	Agosto	2023-06-08T00:00:00	2024-11-08T08:00:00	7	Dirección del viento	3.22
164943	7	Sololá	719	Santiago Atitlán	14	Cerro de Oro	8	Agosto	2023-06-08T00:00:00	2024-11-08T08:00:00	1	Precipitación	0
164944	7	Sololá	719	Santiago Atitlán	14	Cerro de Oro	8	Agosto	2023-06-08T00:00:00	2024-11-08T08:00:00	8	Radiación solar	297
164945	7	Sololá	719	Santiago Atitlán	14	Cerro de Oro	8	Agosto	2023-06-08T00:00:00	2024-11-08T09:00:00	2	Temperatura media	24.6
164946	7	Sololá	719	Santiago Atitlán	14	Cerro de Oro	8	Agosto	2023-06-08T00:00:00	2024-11-08T09:00:00	4	Temperatura máxima	24.6
164947	7	Sololá	719	Santiago Atitlán	14	Cerro de Oro	8	Agosto	2023-06-08T00:00:00	2024-11-08T09:00:00	3	Temperatura mínima	22.8
164948	7	Sololá	719	Santiago Atitlán	14	Cerro de Oro	8	Agosto	2023-06-08T00:00:00	2024-11-08T09:00:00	5	Humedad	60
164949	7	Sololá	719	Santiago Atitlán	14	Cerro de Oro	8	Agosto	2023-06-08T00:00:00	2024-11-08T09:00:00	6	Velocidad del viento	3.2
164950	7	Sololá	719	Santiago Atitlán	14	Cerro de Oro	8	Agosto	2023-06-08T00:00:00	2024-11-08T09:00:00	7	Dirección del viento	3.22
164951	7	Sololá	719	Santiago Atitlán	14	Cerro de Oro	8	Agosto	2023-06-08T00:00:00	2024-11-08T09:00:00	1	Precipitación	0
164952	7	Sololá	719	Santiago Atitlán	14	Cerro de Oro	8	Agosto	2023-06-08T00:00:00	2024-11-08T09:00:00	8	Radiación solar	519
164953	7	Sololá	719	Santiago Atitlán	14	Cerro de Oro	8	Agosto	2023-06-08T00:00:00	2024-11-08T10:00:00	2	Temperatura media	24.3
164954	7	Sololá	719	Santiago Atitlán	14	Cerro de Oro	8	Agosto	2023-06-08T00:00:00	2024-11-08T10:00:00	4	Temperatura máxima	24.8
164955	7	Sololá	719	Santiago Atitlán	14	Cerro de Oro	8	Agosto	2023-06-08T00:00:00	2024-11-08T10:00:00	3	Temperatura mínima	23.6
164956	7	Sololá	719	Santiago Atitlán	14	Cerro de Oro	8	Agosto	2023-06-08T00:00:00	2024-11-08T10:00:00	5	Humedad	66
164957	7	Sololá	719	Santiago Atitlán	14	Cerro de Oro	8	Agosto	2023-06-08T00:00:00	2024-11-08T10:00:00	6	Velocidad del viento	4.8
164958	7	Sololá	719	Santiago Atitlán	14	Cerro de Oro	8	Agosto	2023-06-08T00:00:00	2024-11-08T10:00:00	7	Dirección del viento	4.83
164959	7	Sololá	719	Santiago Atitlán	14	Cerro de Oro	8	Agosto	2023-06-08T00:00:00	2024-11-08T10:00:00	1	Precipitación	0
164960	7	Sololá	719	Santiago Atitlán	14	Cerro de Oro	8	Agosto	2023-06-08T00:00:00	2024-11-08T10:00:00	8	Radiación solar	701
164961	7	Sololá	719	Santiago Atitlán	14	Cerro de Oro	8	Agosto	2023-06-08T00:00:00	2024-11-08T11:00:00	2	Temperatura media	25.7
164962	7	Sololá	719	Santiago Atitlán	14	Cerro de Oro	8	Agosto	2023-06-08T00:00:00	2024-11-08T11:00:00	4	Temperatura máxima	26.7
164963	7	Sololá	719	Santiago Atitlán	14	Cerro de Oro	8	Agosto	2023-06-08T00:00:00	2024-11-08T11:00:00	3	Temperatura mínima	24
164964	7	Sololá	719	Santiago Atitlán	14	Cerro de Oro	8	Agosto	2023-06-08T00:00:00	2024-11-08T11:00:00	5	Humedad	48
164965	7	Sololá	719	Santiago Atitlán	14	Cerro de Oro	8	Agosto	2023-06-08T00:00:00	2024-11-08T11:00:00	6	Velocidad del viento	4.8
164966	7	Sololá	719	Santiago Atitlán	14	Cerro de Oro	8	Agosto	2023-06-08T00:00:00	2024-11-08T11:00:00	7	Dirección del viento	4.83
164967	7	Sololá	719	Santiago Atitlán	14	Cerro de Oro	8	Agosto	2023-06-08T00:00:00	2024-11-08T11:00:00	1	Precipitación	0
164968	7	Sololá	719	Santiago Atitlán	14	Cerro de Oro	8	Agosto	2023-06-08T00:00:00	2024-11-08T11:00:00	8	Radiación solar	844
164969	7	Sololá	719	Santiago Atitlán	14	Cerro de Oro	8	Agosto	2023-06-08T00:00:00	2024-11-08T12:00:00	2	Temperatura media	27.1
164970	7	Sololá	719	Santiago Atitlán	14	Cerro de Oro	8	Agosto	2023-06-08T00:00:00	2024-11-08T12:00:00	4	Temperatura máxima	27.2
164971	7	Sololá	719	Santiago Atitlán	14	Cerro de Oro	8	Agosto	2023-06-08T00:00:00	2024-11-08T12:00:00	3	Temperatura mínima	25.7
164972	7	Sololá	719	Santiago Atitlán	14	Cerro de Oro	8	Agosto	2023-06-08T00:00:00	2024-11-08T12:00:00	5	Humedad	63
164973	7	Sololá	719	Santiago Atitlán	14	Cerro de Oro	8	Agosto	2023-06-08T00:00:00	2024-11-08T12:00:00	6	Velocidad del viento	9.7
164974	7	Sololá	719	Santiago Atitlán	14	Cerro de Oro	8	Agosto	2023-06-08T00:00:00	2024-11-08T12:00:00	7	Dirección del viento	9.66
164975	7	Sololá	719	Santiago Atitlán	14	Cerro de Oro	8	Agosto	2023-06-08T00:00:00	2024-11-08T12:00:00	1	Precipitación	0
164976	7	Sololá	719	Santiago Atitlán	14	Cerro de Oro	8	Agosto	2023-06-08T00:00:00	2024-11-08T12:00:00	8	Radiación solar	921
164977	7	Sololá	719	Santiago Atitlán	14	Cerro de Oro	8	Agosto	2023-06-08T00:00:00	2024-11-08T13:00:00	2	Temperatura media	25.9
164978	7	Sololá	719	Santiago Atitlán	14	Cerro de Oro	8	Agosto	2023-06-08T00:00:00	2024-11-08T13:00:00	4	Temperatura máxima	27.1
164979	7	Sololá	719	Santiago Atitlán	14	Cerro de Oro	8	Agosto	2023-06-08T00:00:00	2024-11-08T13:00:00	3	Temperatura mínima	25.9
164980	7	Sololá	719	Santiago Atitlán	14	Cerro de Oro	8	Agosto	2023-06-08T00:00:00	2024-11-08T13:00:00	5	Humedad	67
164981	7	Sololá	719	Santiago Atitlán	14	Cerro de Oro	8	Agosto	2023-06-08T00:00:00	2024-11-08T13:00:00	6	Velocidad del viento	12.9
164982	7	Sololá	719	Santiago Atitlán	14	Cerro de Oro	8	Agosto	2023-06-08T00:00:00	2024-11-08T13:00:00	7	Dirección del viento	12.87
164983	7	Sololá	719	Santiago Atitlán	14	Cerro de Oro	8	Agosto	2023-06-08T00:00:00	2024-11-08T13:00:00	1	Precipitación	0
164984	7	Sololá	719	Santiago Atitlán	14	Cerro de Oro	8	Agosto	2023-06-08T00:00:00	2024-11-08T13:00:00	8	Radiación solar	927
164985	7	Sololá	719	Santiago Atitlán	14	Cerro de Oro	8	Agosto	2023-06-08T00:00:00	2024-11-08T14:00:00	2	Temperatura media	25.3
164986	7	Sololá	719	Santiago Atitlán	14	Cerro de Oro	8	Agosto	2023-06-08T00:00:00	2024-11-08T14:00:00	4	Temperatura máxima	26.4
164987	7	Sololá	719	Santiago Atitlán	14	Cerro de Oro	8	Agosto	2023-06-08T00:00:00	2024-11-08T14:00:00	3	Temperatura mínima	25.2
164988	7	Sololá	719	Santiago Atitlán	14	Cerro de Oro	8	Agosto	2023-06-08T00:00:00	2024-11-08T14:00:00	5	Humedad	70
164989	7	Sololá	719	Santiago Atitlán	14	Cerro de Oro	8	Agosto	2023-06-08T00:00:00	2024-11-08T14:00:00	6	Velocidad del viento	14.5
164990	7	Sololá	719	Santiago Atitlán	14	Cerro de Oro	8	Agosto	2023-06-08T00:00:00	2024-11-08T14:00:00	7	Dirección del viento	14.48
164991	7	Sololá	719	Santiago Atitlán	14	Cerro de Oro	8	Agosto	2023-06-08T00:00:00	2024-11-08T14:00:00	1	Precipitación	0
164992	7	Sololá	719	Santiago Atitlán	14	Cerro de Oro	8	Agosto	2023-06-08T00:00:00	2024-11-08T14:00:00	8	Radiación solar	883
164993	7	Sololá	719	Santiago Atitlán	14	Cerro de Oro	8	Agosto	2023-06-08T00:00:00	2024-11-08T15:00:00	2	Temperatura media	24.9
164994	7	Sololá	719	Santiago Atitlán	14	Cerro de Oro	8	Agosto	2023-06-08T00:00:00	2024-11-08T15:00:00	4	Temperatura máxima	26.2
164995	7	Sololá	719	Santiago Atitlán	14	Cerro de Oro	8	Agosto	2023-06-08T00:00:00	2024-11-08T15:00:00	3	Temperatura mínima	24.8
164996	7	Sololá	719	Santiago Atitlán	14	Cerro de Oro	8	Agosto	2023-06-08T00:00:00	2024-11-08T15:00:00	5	Humedad	71
164997	7	Sololá	719	Santiago Atitlán	14	Cerro de Oro	8	Agosto	2023-06-08T00:00:00	2024-11-08T15:00:00	6	Velocidad del viento	14.5
164998	7	Sololá	719	Santiago Atitlán	14	Cerro de Oro	8	Agosto	2023-06-08T00:00:00	2024-11-08T15:00:00	7	Dirección del viento	14.48
164999	7	Sololá	719	Santiago Atitlán	14	Cerro de Oro	8	Agosto	2023-06-08T00:00:00	2024-11-08T15:00:00	1	Precipitación	0
165000	7	Sololá	719	Santiago Atitlán	14	Cerro de Oro	8	Agosto	2023-06-08T00:00:00	2024-11-08T15:00:00	8	Radiación solar	643
165001	7	Sololá	719	Santiago Atitlán	14	Cerro de Oro	8	Agosto	2023-06-08T00:00:00	2024-11-08T16:00:00	2	Temperatura media	24.8
165002	7	Sololá	719	Santiago Atitlán	14	Cerro de Oro	8	Agosto	2023-06-08T00:00:00	2024-11-08T16:00:00	4	Temperatura máxima	25.7
165003	7	Sololá	719	Santiago Atitlán	14	Cerro de Oro	8	Agosto	2023-06-08T00:00:00	2024-11-08T16:00:00	3	Temperatura mínima	24.6
165004	7	Sololá	719	Santiago Atitlán	14	Cerro de Oro	8	Agosto	2023-06-08T00:00:00	2024-11-08T16:00:00	5	Humedad	69
165005	7	Sololá	719	Santiago Atitlán	14	Cerro de Oro	8	Agosto	2023-06-08T00:00:00	2024-11-08T16:00:00	6	Velocidad del viento	11.3
165006	7	Sololá	719	Santiago Atitlán	14	Cerro de Oro	8	Agosto	2023-06-08T00:00:00	2024-11-08T16:00:00	7	Dirección del viento	11.27
165007	7	Sololá	719	Santiago Atitlán	14	Cerro de Oro	8	Agosto	2023-06-08T00:00:00	2024-11-08T16:00:00	1	Precipitación	0
165008	7	Sololá	719	Santiago Atitlán	14	Cerro de Oro	8	Agosto	2023-06-08T00:00:00	2024-11-08T16:00:00	8	Radiación solar	291
165009	7	Sololá	719	Santiago Atitlán	14	Cerro de Oro	8	Agosto	2023-06-08T00:00:00	2024-11-08T17:00:00	2	Temperatura media	23.1
165010	7	Sololá	719	Santiago Atitlán	14	Cerro de Oro	8	Agosto	2023-06-08T00:00:00	2024-11-08T17:00:00	4	Temperatura máxima	24.8
165011	7	Sololá	719	Santiago Atitlán	14	Cerro de Oro	8	Agosto	2023-06-08T00:00:00	2024-11-08T17:00:00	3	Temperatura mínima	23
165012	7	Sololá	719	Santiago Atitlán	14	Cerro de Oro	8	Agosto	2023-06-08T00:00:00	2024-11-08T17:00:00	5	Humedad	76
165013	7	Sololá	719	Santiago Atitlán	14	Cerro de Oro	8	Agosto	2023-06-08T00:00:00	2024-11-08T17:00:00	6	Velocidad del viento	11.3
165014	7	Sololá	719	Santiago Atitlán	14	Cerro de Oro	8	Agosto	2023-06-08T00:00:00	2024-11-08T17:00:00	7	Dirección del viento	11.27
165015	7	Sololá	719	Santiago Atitlán	14	Cerro de Oro	8	Agosto	2023-06-08T00:00:00	2024-11-08T17:00:00	1	Precipitación	0
165016	7	Sololá	719	Santiago Atitlán	14	Cerro de Oro	8	Agosto	2023-06-08T00:00:00	2024-11-08T17:00:00	8	Radiación solar	72
165017	7	Sololá	719	Santiago Atitlán	14	Cerro de Oro	8	Agosto	2023-06-08T00:00:00	2024-11-08T18:00:00	2	Temperatura media	23.1
165018	7	Sololá	719	Santiago Atitlán	14	Cerro de Oro	8	Agosto	2023-06-08T00:00:00	2024-11-08T18:00:00	4	Temperatura máxima	23.7
165019	7	Sololá	719	Santiago Atitlán	14	Cerro de Oro	8	Agosto	2023-06-08T00:00:00	2024-11-08T18:00:00	3	Temperatura mínima	23.1
165020	7	Sololá	719	Santiago Atitlán	14	Cerro de Oro	8	Agosto	2023-06-08T00:00:00	2024-11-08T18:00:00	5	Humedad	75
165021	7	Sololá	719	Santiago Atitlán	14	Cerro de Oro	8	Agosto	2023-06-08T00:00:00	2024-11-08T18:00:00	6	Velocidad del viento	8
165022	7	Sololá	719	Santiago Atitlán	14	Cerro de Oro	8	Agosto	2023-06-08T00:00:00	2024-11-08T18:00:00	7	Dirección del viento	8.05
165023	7	Sololá	719	Santiago Atitlán	14	Cerro de Oro	8	Agosto	2023-06-08T00:00:00	2024-11-08T18:00:00	1	Precipitación	0
165024	7	Sololá	719	Santiago Atitlán	14	Cerro de Oro	8	Agosto	2023-06-08T00:00:00	2024-11-08T18:00:00	8	Radiación solar	38
165025	7	Sololá	719	Santiago Atitlán	14	Cerro de Oro	8	Agosto	2023-06-08T00:00:00	2024-11-08T19:00:00	2	Temperatura media	22.7
165026	7	Sololá	719	Santiago Atitlán	14	Cerro de Oro	8	Agosto	2023-06-08T00:00:00	2024-11-08T19:00:00	4	Temperatura máxima	23.1
165027	7	Sololá	719	Santiago Atitlán	14	Cerro de Oro	8	Agosto	2023-06-08T00:00:00	2024-11-08T19:00:00	3	Temperatura mínima	22.2
165028	7	Sololá	719	Santiago Atitlán	14	Cerro de Oro	8	Agosto	2023-06-08T00:00:00	2024-11-08T19:00:00	5	Humedad	70
165029	7	Sololá	719	Santiago Atitlán	14	Cerro de Oro	8	Agosto	2023-06-08T00:00:00	2024-11-08T19:00:00	6	Velocidad del viento	8
165030	7	Sololá	719	Santiago Atitlán	14	Cerro de Oro	8	Agosto	2023-06-08T00:00:00	2024-11-08T19:00:00	7	Dirección del viento	8.05
165031	7	Sololá	719	Santiago Atitlán	14	Cerro de Oro	8	Agosto	2023-06-08T00:00:00	2024-11-08T19:00:00	1	Precipitación	0
165032	7	Sololá	719	Santiago Atitlán	14	Cerro de Oro	8	Agosto	2023-06-08T00:00:00	2024-11-08T19:00:00	8	Radiación solar	0
165033	7	Sololá	719	Santiago Atitlán	14	Cerro de Oro	8	Agosto	2023-06-08T00:00:00	2024-11-08T20:00:00	2	Temperatura media	22.4
165034	7	Sololá	719	Santiago Atitlán	14	Cerro de Oro	8	Agosto	2023-06-08T00:00:00	2024-11-08T20:00:00	4	Temperatura máxima	22.8
165035	7	Sololá	719	Santiago Atitlán	14	Cerro de Oro	8	Agosto	2023-06-08T00:00:00	2024-11-08T20:00:00	3	Temperatura mínima	22.4
165036	7	Sololá	719	Santiago Atitlán	14	Cerro de Oro	8	Agosto	2023-06-08T00:00:00	2024-11-08T20:00:00	5	Humedad	70
165037	7	Sololá	719	Santiago Atitlán	14	Cerro de Oro	8	Agosto	2023-06-08T00:00:00	2024-11-08T20:00:00	6	Velocidad del viento	8
165038	7	Sololá	719	Santiago Atitlán	14	Cerro de Oro	8	Agosto	2023-06-08T00:00:00	2024-11-08T20:00:00	7	Dirección del viento	8.05
165039	7	Sololá	719	Santiago Atitlán	14	Cerro de Oro	8	Agosto	2023-06-08T00:00:00	2024-11-08T20:00:00	1	Precipitación	0
165040	7	Sololá	719	Santiago Atitlán	14	Cerro de Oro	8	Agosto	2023-06-08T00:00:00	2024-11-08T20:00:00	8	Radiación solar	0
165041	7	Sololá	719	Santiago Atitlán	14	Cerro de Oro	8	Agosto	2023-06-08T00:00:00	2024-11-08T21:00:00	2	Temperatura media	22.3
165042	7	Sololá	719	Santiago Atitlán	14	Cerro de Oro	8	Agosto	2023-06-08T00:00:00	2024-11-08T21:00:00	4	Temperatura máxima	22.4
165043	7	Sololá	719	Santiago Atitlán	14	Cerro de Oro	8	Agosto	2023-06-08T00:00:00	2024-11-08T21:00:00	3	Temperatura mínima	22.2
165044	7	Sololá	719	Santiago Atitlán	14	Cerro de Oro	8	Agosto	2023-06-08T00:00:00	2024-11-08T21:00:00	5	Humedad	71
165045	7	Sololá	719	Santiago Atitlán	14	Cerro de Oro	8	Agosto	2023-06-08T00:00:00	2024-11-08T21:00:00	6	Velocidad del viento	6.4
165046	7	Sololá	719	Santiago Atitlán	14	Cerro de Oro	8	Agosto	2023-06-08T00:00:00	2024-11-08T21:00:00	7	Dirección del viento	6.44
165047	7	Sololá	719	Santiago Atitlán	14	Cerro de Oro	8	Agosto	2023-06-08T00:00:00	2024-11-08T21:00:00	1	Precipitación	0
165048	7	Sololá	719	Santiago Atitlán	14	Cerro de Oro	8	Agosto	2023-06-08T00:00:00	2024-11-08T21:00:00	8	Radiación solar	0
165049	7	Sololá	719	Santiago Atitlán	14	Cerro de Oro	8	Agosto	2023-06-08T00:00:00	2024-11-08T22:00:00	2	Temperatura media	21.9
165050	7	Sololá	719	Santiago Atitlán	14	Cerro de Oro	8	Agosto	2023-06-08T00:00:00	2024-11-08T22:00:00	4	Temperatura máxima	22.3
165051	7	Sololá	719	Santiago Atitlán	14	Cerro de Oro	8	Agosto	2023-06-08T00:00:00	2024-11-08T22:00:00	3	Temperatura mínima	21.8
165052	7	Sololá	719	Santiago Atitlán	14	Cerro de Oro	8	Agosto	2023-06-08T00:00:00	2024-11-08T22:00:00	5	Humedad	72
165053	7	Sololá	719	Santiago Atitlán	14	Cerro de Oro	8	Agosto	2023-06-08T00:00:00	2024-11-08T22:00:00	6	Velocidad del viento	6.4
165054	7	Sololá	719	Santiago Atitlán	14	Cerro de Oro	8	Agosto	2023-06-08T00:00:00	2024-11-08T22:00:00	7	Dirección del viento	6.44
165055	7	Sololá	719	Santiago Atitlán	14	Cerro de Oro	8	Agosto	2023-06-08T00:00:00	2024-11-08T22:00:00	1	Precipitación	0
165056	7	Sololá	719	Santiago Atitlán	14	Cerro de Oro	8	Agosto	2023-06-08T00:00:00	2024-11-08T22:00:00	8	Radiación solar	0
165057	7	Sololá	719	Santiago Atitlán	14	Cerro de Oro	8	Agosto	2023-06-08T00:00:00	2024-11-08T23:00:00	2	Temperatura media	21.6
165058	7	Sololá	719	Santiago Atitlán	14	Cerro de Oro	8	Agosto	2023-06-08T00:00:00	2024-11-08T23:00:00	4	Temperatura máxima	22
165059	7	Sololá	719	Santiago Atitlán	14	Cerro de Oro	8	Agosto	2023-06-08T00:00:00	2024-11-08T23:00:00	3	Temperatura mínima	20.8
165060	7	Sololá	719	Santiago Atitlán	14	Cerro de Oro	8	Agosto	2023-06-08T00:00:00	2024-11-08T23:00:00	5	Humedad	68
165061	7	Sololá	719	Santiago Atitlán	14	Cerro de Oro	8	Agosto	2023-06-08T00:00:00	2024-11-08T23:00:00	6	Velocidad del viento	4.8
165062	7	Sololá	719	Santiago Atitlán	14	Cerro de Oro	8	Agosto	2023-06-08T00:00:00	2024-11-08T23:00:00	7	Dirección del viento	4.83
165063	7	Sololá	719	Santiago Atitlán	14	Cerro de Oro	8	Agosto	2023-06-08T00:00:00	2024-11-08T23:00:00	1	Precipitación	0
165064	7	Sololá	719	Santiago Atitlán	14	Cerro de Oro	8	Agosto	2023-06-08T00:00:00	2024-11-08T23:00:00	8	Radiación solar	0
165065	7	Sololá	719	Santiago Atitlán	14	Cerro de Oro	8	Agosto	2023-07-08T00:00:00	2024-11-08T00:00:00	2	Temperatura media	20.3
165066	7	Sololá	719	Santiago Atitlán	14	Cerro de Oro	8	Agosto	2023-07-08T00:00:00	2024-11-08T00:00:00	4	Temperatura máxima	21.6
165067	7	Sololá	719	Santiago Atitlán	14	Cerro de Oro	8	Agosto	2023-07-08T00:00:00	2024-11-08T00:00:00	3	Temperatura mínima	19.9
165068	7	Sololá	719	Santiago Atitlán	14	Cerro de Oro	8	Agosto	2023-07-08T00:00:00	2024-11-08T00:00:00	5	Humedad	72
165069	7	Sololá	719	Santiago Atitlán	14	Cerro de Oro	8	Agosto	2023-07-08T00:00:00	2024-11-08T00:00:00	6	Velocidad del viento	4.8
165070	7	Sololá	719	Santiago Atitlán	14	Cerro de Oro	8	Agosto	2023-07-08T00:00:00	2024-11-08T00:00:00	7	Dirección del viento	4.83
165071	7	Sololá	719	Santiago Atitlán	14	Cerro de Oro	8	Agosto	2023-07-08T00:00:00	2024-11-08T00:00:00	1	Precipitación	0
165072	7	Sololá	719	Santiago Atitlán	14	Cerro de Oro	8	Agosto	2023-07-08T00:00:00	2024-11-08T00:00:00	8	Radiación solar	0
165073	7	Sololá	719	Santiago Atitlán	14	Cerro de Oro	8	Agosto	2023-07-08T00:00:00	2024-11-08T01:00:00	2	Temperatura media	20.2
165074	7	Sololá	719	Santiago Atitlán	14	Cerro de Oro	8	Agosto	2023-07-08T00:00:00	2024-11-08T01:00:00	4	Temperatura máxima	20.6
165075	7	Sololá	719	Santiago Atitlán	14	Cerro de Oro	8	Agosto	2023-07-08T00:00:00	2024-11-08T01:00:00	3	Temperatura mínima	20.2
165076	7	Sololá	719	Santiago Atitlán	14	Cerro de Oro	8	Agosto	2023-07-08T00:00:00	2024-11-08T01:00:00	5	Humedad	72
165077	7	Sololá	719	Santiago Atitlán	14	Cerro de Oro	8	Agosto	2023-07-08T00:00:00	2024-11-08T01:00:00	6	Velocidad del viento	4.8
165078	7	Sololá	719	Santiago Atitlán	14	Cerro de Oro	8	Agosto	2023-07-08T00:00:00	2024-11-08T01:00:00	7	Dirección del viento	4.83
165079	7	Sololá	719	Santiago Atitlán	14	Cerro de Oro	8	Agosto	2023-07-08T00:00:00	2024-11-08T01:00:00	1	Precipitación	0
165080	7	Sololá	719	Santiago Atitlán	14	Cerro de Oro	8	Agosto	2023-07-08T00:00:00	2024-11-08T01:00:00	8	Radiación solar	0
165081	7	Sololá	719	Santiago Atitlán	14	Cerro de Oro	8	Agosto	2023-07-08T00:00:00	2024-11-08T02:00:00	2	Temperatura media	19.7
165082	7	Sololá	719	Santiago Atitlán	14	Cerro de Oro	8	Agosto	2023-07-08T00:00:00	2024-11-08T02:00:00	4	Temperatura máxima	20.3
165083	7	Sololá	719	Santiago Atitlán	14	Cerro de Oro	8	Agosto	2023-07-08T00:00:00	2024-11-08T02:00:00	3	Temperatura mínima	19.4
165084	7	Sololá	719	Santiago Atitlán	14	Cerro de Oro	8	Agosto	2023-07-08T00:00:00	2024-11-08T02:00:00	5	Humedad	73
165085	7	Sololá	719	Santiago Atitlán	14	Cerro de Oro	8	Agosto	2023-07-08T00:00:00	2024-11-08T02:00:00	6	Velocidad del viento	3.2
165086	7	Sololá	719	Santiago Atitlán	14	Cerro de Oro	8	Agosto	2023-07-08T00:00:00	2024-11-08T02:00:00	7	Dirección del viento	3.22
165087	7	Sololá	719	Santiago Atitlán	14	Cerro de Oro	8	Agosto	2023-07-08T00:00:00	2024-11-08T02:00:00	1	Precipitación	0
165088	7	Sololá	719	Santiago Atitlán	14	Cerro de Oro	8	Agosto	2023-07-08T00:00:00	2024-11-08T02:00:00	8	Radiación solar	0
165089	7	Sololá	719	Santiago Atitlán	14	Cerro de Oro	8	Agosto	2023-07-08T00:00:00	2024-11-08T03:00:00	2	Temperatura media	19.7
165090	7	Sololá	719	Santiago Atitlán	14	Cerro de Oro	8	Agosto	2023-07-08T00:00:00	2024-11-08T03:00:00	4	Temperatura máxima	20.1
165091	7	Sololá	719	Santiago Atitlán	14	Cerro de Oro	8	Agosto	2023-07-08T00:00:00	2024-11-08T03:00:00	3	Temperatura mínima	19.5
165092	7	Sololá	719	Santiago Atitlán	14	Cerro de Oro	8	Agosto	2023-07-08T00:00:00	2024-11-08T03:00:00	5	Humedad	73
165093	7	Sololá	719	Santiago Atitlán	14	Cerro de Oro	8	Agosto	2023-07-08T00:00:00	2024-11-08T03:00:00	6	Velocidad del viento	3.2
165094	7	Sololá	719	Santiago Atitlán	14	Cerro de Oro	8	Agosto	2023-07-08T00:00:00	2024-11-08T03:00:00	7	Dirección del viento	3.22
165095	7	Sololá	719	Santiago Atitlán	14	Cerro de Oro	8	Agosto	2023-07-08T00:00:00	2024-11-08T03:00:00	1	Precipitación	0
165096	7	Sololá	719	Santiago Atitlán	14	Cerro de Oro	8	Agosto	2023-07-08T00:00:00	2024-11-08T03:00:00	8	Radiación solar	0
165097	7	Sololá	719	Santiago Atitlán	14	Cerro de Oro	8	Agosto	2023-07-08T00:00:00	2024-11-08T04:00:00	2	Temperatura media	19.4
165098	7	Sololá	719	Santiago Atitlán	14	Cerro de Oro	8	Agosto	2023-07-08T00:00:00	2024-11-08T04:00:00	4	Temperatura máxima	19.8
165099	7	Sololá	719	Santiago Atitlán	14	Cerro de Oro	8	Agosto	2023-07-08T00:00:00	2024-11-08T04:00:00	3	Temperatura mínima	18.5
165100	7	Sololá	719	Santiago Atitlán	14	Cerro de Oro	8	Agosto	2023-07-08T00:00:00	2024-11-08T04:00:00	5	Humedad	74
165101	7	Sololá	719	Santiago Atitlán	14	Cerro de Oro	8	Agosto	2023-07-08T00:00:00	2024-11-08T04:00:00	6	Velocidad del viento	4.8
165102	7	Sololá	719	Santiago Atitlán	14	Cerro de Oro	8	Agosto	2023-07-08T00:00:00	2024-11-08T04:00:00	7	Dirección del viento	4.83
165103	7	Sololá	719	Santiago Atitlán	14	Cerro de Oro	8	Agosto	2023-07-08T00:00:00	2024-11-08T04:00:00	1	Precipitación	0
165104	7	Sololá	719	Santiago Atitlán	14	Cerro de Oro	8	Agosto	2023-07-08T00:00:00	2024-11-08T04:00:00	8	Radiación solar	0
165105	7	Sololá	719	Santiago Atitlán	14	Cerro de Oro	8	Agosto	2023-07-08T00:00:00	2024-11-08T05:00:00	2	Temperatura media	18.4
165106	7	Sololá	719	Santiago Atitlán	14	Cerro de Oro	8	Agosto	2023-07-08T00:00:00	2024-11-08T05:00:00	4	Temperatura máxima	19.7
165107	7	Sololá	719	Santiago Atitlán	14	Cerro de Oro	8	Agosto	2023-07-08T00:00:00	2024-11-08T05:00:00	3	Temperatura mínima	17.9
165108	7	Sololá	719	Santiago Atitlán	14	Cerro de Oro	8	Agosto	2023-07-08T00:00:00	2024-11-08T05:00:00	5	Humedad	75
165109	7	Sololá	719	Santiago Atitlán	14	Cerro de Oro	8	Agosto	2023-07-08T00:00:00	2024-11-08T05:00:00	6	Velocidad del viento	6.4
165110	7	Sololá	719	Santiago Atitlán	14	Cerro de Oro	8	Agosto	2023-07-08T00:00:00	2024-11-08T05:00:00	7	Dirección del viento	6.44
165111	7	Sololá	719	Santiago Atitlán	14	Cerro de Oro	8	Agosto	2023-07-08T00:00:00	2024-11-08T05:00:00	1	Precipitación	0
165112	7	Sololá	719	Santiago Atitlán	14	Cerro de Oro	8	Agosto	2023-07-08T00:00:00	2024-11-08T05:00:00	8	Radiación solar	0
165113	7	Sololá	719	Santiago Atitlán	14	Cerro de Oro	8	Agosto	2023-07-08T00:00:00	2024-11-08T06:00:00	2	Temperatura media	18.8
165114	7	Sololá	719	Santiago Atitlán	14	Cerro de Oro	8	Agosto	2023-07-08T00:00:00	2024-11-08T06:00:00	4	Temperatura máxima	18.9
165115	7	Sololá	719	Santiago Atitlán	14	Cerro de Oro	8	Agosto	2023-07-08T00:00:00	2024-11-08T06:00:00	3	Temperatura mínima	18.3
165116	7	Sololá	719	Santiago Atitlán	14	Cerro de Oro	8	Agosto	2023-07-08T00:00:00	2024-11-08T06:00:00	5	Humedad	74
165117	7	Sololá	719	Santiago Atitlán	14	Cerro de Oro	8	Agosto	2023-07-08T00:00:00	2024-11-08T06:00:00	6	Velocidad del viento	6.4
165118	7	Sololá	719	Santiago Atitlán	14	Cerro de Oro	8	Agosto	2023-07-08T00:00:00	2024-11-08T06:00:00	7	Dirección del viento	6.44
165119	7	Sololá	719	Santiago Atitlán	14	Cerro de Oro	8	Agosto	2023-07-08T00:00:00	2024-11-08T06:00:00	1	Precipitación	0
165120	7	Sololá	719	Santiago Atitlán	14	Cerro de Oro	8	Agosto	2023-07-08T00:00:00	2024-11-08T06:00:00	8	Radiación solar	1
165121	7	Sololá	719	Santiago Atitlán	14	Cerro de Oro	8	Agosto	2023-07-08T00:00:00	2024-11-08T07:00:00	2	Temperatura media	20.7
165122	7	Sololá	719	Santiago Atitlán	14	Cerro de Oro	8	Agosto	2023-07-08T00:00:00	2024-11-08T07:00:00	4	Temperatura máxima	20.7
165123	7	Sololá	719	Santiago Atitlán	14	Cerro de Oro	8	Agosto	2023-07-08T00:00:00	2024-11-08T07:00:00	3	Temperatura mínima	18.8
165124	7	Sololá	719	Santiago Atitlán	14	Cerro de Oro	8	Agosto	2023-07-08T00:00:00	2024-11-08T07:00:00	5	Humedad	71
165125	7	Sololá	719	Santiago Atitlán	14	Cerro de Oro	8	Agosto	2023-07-08T00:00:00	2024-11-08T07:00:00	6	Velocidad del viento	4.8
165126	7	Sololá	719	Santiago Atitlán	14	Cerro de Oro	8	Agosto	2023-07-08T00:00:00	2024-11-08T07:00:00	7	Dirección del viento	4.83
165127	7	Sololá	719	Santiago Atitlán	14	Cerro de Oro	8	Agosto	2023-07-08T00:00:00	2024-11-08T07:00:00	1	Precipitación	0
165128	7	Sololá	719	Santiago Atitlán	14	Cerro de Oro	8	Agosto	2023-07-08T00:00:00	2024-11-08T07:00:00	8	Radiación solar	57
165129	7	Sololá	719	Santiago Atitlán	14	Cerro de Oro	8	Agosto	2023-07-08T00:00:00	2024-11-08T08:00:00	2	Temperatura media	23.2
165130	7	Sololá	719	Santiago Atitlán	14	Cerro de Oro	8	Agosto	2023-07-08T00:00:00	2024-11-08T08:00:00	4	Temperatura máxima	23.3
165131	7	Sololá	719	Santiago Atitlán	14	Cerro de Oro	8	Agosto	2023-07-08T00:00:00	2024-11-08T08:00:00	3	Temperatura mínima	20.8
165132	7	Sololá	719	Santiago Atitlán	14	Cerro de Oro	8	Agosto	2023-07-08T00:00:00	2024-11-08T08:00:00	5	Humedad	63
165133	7	Sololá	719	Santiago Atitlán	14	Cerro de Oro	8	Agosto	2023-07-08T00:00:00	2024-11-08T08:00:00	6	Velocidad del viento	3.2
165134	7	Sololá	719	Santiago Atitlán	14	Cerro de Oro	8	Agosto	2023-07-08T00:00:00	2024-11-08T08:00:00	7	Dirección del viento	3.22
165135	7	Sololá	719	Santiago Atitlán	14	Cerro de Oro	8	Agosto	2023-07-08T00:00:00	2024-11-08T08:00:00	1	Precipitación	0
165136	7	Sololá	719	Santiago Atitlán	14	Cerro de Oro	8	Agosto	2023-07-08T00:00:00	2024-11-08T08:00:00	8	Radiación solar	285
165137	7	Sololá	719	Santiago Atitlán	14	Cerro de Oro	8	Agosto	2023-07-08T00:00:00	2024-11-08T09:00:00	2	Temperatura media	24.4
165138	7	Sololá	719	Santiago Atitlán	14	Cerro de Oro	8	Agosto	2023-07-08T00:00:00	2024-11-08T09:00:00	4	Temperatura máxima	24.4
165139	7	Sololá	719	Santiago Atitlán	14	Cerro de Oro	8	Agosto	2023-07-08T00:00:00	2024-11-08T09:00:00	3	Temperatura mínima	23
165140	7	Sololá	719	Santiago Atitlán	14	Cerro de Oro	8	Agosto	2023-07-08T00:00:00	2024-11-08T09:00:00	5	Humedad	59
165141	7	Sololá	719	Santiago Atitlán	14	Cerro de Oro	8	Agosto	2023-07-08T00:00:00	2024-11-08T09:00:00	6	Velocidad del viento	3.2
165142	7	Sololá	719	Santiago Atitlán	14	Cerro de Oro	8	Agosto	2023-07-08T00:00:00	2024-11-08T09:00:00	7	Dirección del viento	3.22
165143	7	Sololá	719	Santiago Atitlán	14	Cerro de Oro	8	Agosto	2023-07-08T00:00:00	2024-11-08T09:00:00	1	Precipitación	0
165144	7	Sololá	719	Santiago Atitlán	14	Cerro de Oro	8	Agosto	2023-07-08T00:00:00	2024-11-08T09:00:00	8	Radiación solar	507
165145	7	Sololá	719	Santiago Atitlán	14	Cerro de Oro	8	Agosto	2023-07-08T00:00:00	2024-11-08T10:00:00	2	Temperatura media	24.8
165146	7	Sololá	719	Santiago Atitlán	14	Cerro de Oro	8	Agosto	2023-07-08T00:00:00	2024-11-08T10:00:00	4	Temperatura máxima	24.9
165147	7	Sololá	719	Santiago Atitlán	14	Cerro de Oro	8	Agosto	2023-07-08T00:00:00	2024-11-08T10:00:00	3	Temperatura mínima	24.4
165148	7	Sololá	719	Santiago Atitlán	14	Cerro de Oro	8	Agosto	2023-07-08T00:00:00	2024-11-08T10:00:00	5	Humedad	58
165149	7	Sololá	719	Santiago Atitlán	14	Cerro de Oro	8	Agosto	2023-07-08T00:00:00	2024-11-08T10:00:00	6	Velocidad del viento	6.4
165150	7	Sololá	719	Santiago Atitlán	14	Cerro de Oro	8	Agosto	2023-07-08T00:00:00	2024-11-08T10:00:00	7	Dirección del viento	6.44
165151	7	Sololá	719	Santiago Atitlán	14	Cerro de Oro	8	Agosto	2023-07-08T00:00:00	2024-11-08T10:00:00	1	Precipitación	0
165152	7	Sololá	719	Santiago Atitlán	14	Cerro de Oro	8	Agosto	2023-07-08T00:00:00	2024-11-08T10:00:00	8	Radiación solar	687
165153	7	Sololá	719	Santiago Atitlán	14	Cerro de Oro	8	Agosto	2023-07-08T00:00:00	2024-11-08T11:00:00	2	Temperatura media	25.5
165154	7	Sololá	719	Santiago Atitlán	14	Cerro de Oro	8	Agosto	2023-07-08T00:00:00	2024-11-08T11:00:00	4	Temperatura máxima	25.9
165155	7	Sololá	719	Santiago Atitlán	14	Cerro de Oro	8	Agosto	2023-07-08T00:00:00	2024-11-08T11:00:00	3	Temperatura mínima	24.8
165156	7	Sololá	719	Santiago Atitlán	14	Cerro de Oro	8	Agosto	2023-07-08T00:00:00	2024-11-08T11:00:00	5	Humedad	57
165157	7	Sololá	719	Santiago Atitlán	14	Cerro de Oro	8	Agosto	2023-07-08T00:00:00	2024-11-08T11:00:00	6	Velocidad del viento	6.4
165158	7	Sololá	719	Santiago Atitlán	14	Cerro de Oro	8	Agosto	2023-07-08T00:00:00	2024-11-08T11:00:00	7	Dirección del viento	6.44
165159	7	Sololá	719	Santiago Atitlán	14	Cerro de Oro	8	Agosto	2023-07-08T00:00:00	2024-11-08T11:00:00	1	Precipitación	0
165160	7	Sololá	719	Santiago Atitlán	14	Cerro de Oro	8	Agosto	2023-07-08T00:00:00	2024-11-08T11:00:00	8	Radiación solar	852
165161	7	Sololá	719	Santiago Atitlán	14	Cerro de Oro	8	Agosto	2023-07-08T00:00:00	2024-11-08T12:00:00	2	Temperatura media	25.7
165162	7	Sololá	719	Santiago Atitlán	14	Cerro de Oro	8	Agosto	2023-07-08T00:00:00	2024-11-08T12:00:00	4	Temperatura máxima	25.8
165163	7	Sololá	719	Santiago Atitlán	14	Cerro de Oro	8	Agosto	2023-07-08T00:00:00	2024-11-08T12:00:00	3	Temperatura mínima	25.2
165164	7	Sololá	719	Santiago Atitlán	14	Cerro de Oro	8	Agosto	2023-07-08T00:00:00	2024-11-08T12:00:00	5	Humedad	55
165165	7	Sololá	719	Santiago Atitlán	14	Cerro de Oro	8	Agosto	2023-07-08T00:00:00	2024-11-08T12:00:00	6	Velocidad del viento	9.7
165166	7	Sololá	719	Santiago Atitlán	14	Cerro de Oro	8	Agosto	2023-07-08T00:00:00	2024-11-08T12:00:00	7	Dirección del viento	9.66
165167	7	Sololá	719	Santiago Atitlán	14	Cerro de Oro	8	Agosto	2023-07-08T00:00:00	2024-11-08T12:00:00	1	Precipitación	0
165168	7	Sololá	719	Santiago Atitlán	14	Cerro de Oro	8	Agosto	2023-07-08T00:00:00	2024-11-08T12:00:00	8	Radiación solar	740
165169	7	Sololá	719	Santiago Atitlán	14	Cerro de Oro	8	Agosto	2023-07-08T00:00:00	2024-11-08T13:00:00	2	Temperatura media	26.9
165170	7	Sololá	719	Santiago Atitlán	14	Cerro de Oro	8	Agosto	2023-07-08T00:00:00	2024-11-08T13:00:00	4	Temperatura máxima	27
165171	7	Sololá	719	Santiago Atitlán	14	Cerro de Oro	8	Agosto	2023-07-08T00:00:00	2024-11-08T13:00:00	3	Temperatura mínima	25.7
165172	7	Sololá	719	Santiago Atitlán	14	Cerro de Oro	8	Agosto	2023-07-08T00:00:00	2024-11-08T13:00:00	5	Humedad	51
165173	7	Sololá	719	Santiago Atitlán	14	Cerro de Oro	8	Agosto	2023-07-08T00:00:00	2024-11-08T13:00:00	6	Velocidad del viento	8
165174	7	Sololá	719	Santiago Atitlán	14	Cerro de Oro	8	Agosto	2023-07-08T00:00:00	2024-11-08T13:00:00	7	Dirección del viento	8.05
165175	7	Sololá	719	Santiago Atitlán	14	Cerro de Oro	8	Agosto	2023-07-08T00:00:00	2024-11-08T13:00:00	1	Precipitación	0
165176	7	Sololá	719	Santiago Atitlán	14	Cerro de Oro	8	Agosto	2023-07-08T00:00:00	2024-11-08T13:00:00	8	Radiación solar	930
165177	7	Sololá	719	Santiago Atitlán	14	Cerro de Oro	8	Agosto	2023-07-08T00:00:00	2024-11-08T14:00:00	2	Temperatura media	25.9
165178	7	Sololá	719	Santiago Atitlán	14	Cerro de Oro	8	Agosto	2023-07-08T00:00:00	2024-11-08T14:00:00	4	Temperatura máxima	26.9
165179	7	Sololá	719	Santiago Atitlán	14	Cerro de Oro	8	Agosto	2023-07-08T00:00:00	2024-11-08T14:00:00	3	Temperatura mínima	25.7
165180	7	Sololá	719	Santiago Atitlán	14	Cerro de Oro	8	Agosto	2023-07-08T00:00:00	2024-11-08T14:00:00	5	Humedad	54
165181	7	Sololá	719	Santiago Atitlán	14	Cerro de Oro	8	Agosto	2023-07-08T00:00:00	2024-11-08T14:00:00	6	Velocidad del viento	12.9
165182	7	Sololá	719	Santiago Atitlán	14	Cerro de Oro	8	Agosto	2023-07-08T00:00:00	2024-11-08T14:00:00	7	Dirección del viento	12.87
165183	7	Sololá	719	Santiago Atitlán	14	Cerro de Oro	8	Agosto	2023-07-08T00:00:00	2024-11-08T14:00:00	1	Precipitación	0
165184	7	Sololá	719	Santiago Atitlán	14	Cerro de Oro	8	Agosto	2023-07-08T00:00:00	2024-11-08T14:00:00	8	Radiación solar	861
165185	7	Sololá	719	Santiago Atitlán	14	Cerro de Oro	8	Agosto	2023-07-08T00:00:00	2024-11-08T15:00:00	2	Temperatura media	26.8
165186	7	Sololá	719	Santiago Atitlán	14	Cerro de Oro	8	Agosto	2023-07-08T00:00:00	2024-11-08T15:00:00	4	Temperatura máxima	26.8
165187	7	Sololá	719	Santiago Atitlán	14	Cerro de Oro	8	Agosto	2023-07-08T00:00:00	2024-11-08T15:00:00	3	Temperatura mínima	25.9
165188	7	Sololá	719	Santiago Atitlán	14	Cerro de Oro	8	Agosto	2023-07-08T00:00:00	2024-11-08T15:00:00	5	Humedad	53
165189	7	Sololá	719	Santiago Atitlán	14	Cerro de Oro	8	Agosto	2023-07-08T00:00:00	2024-11-08T15:00:00	6	Velocidad del viento	11.3
165190	7	Sololá	719	Santiago Atitlán	14	Cerro de Oro	8	Agosto	2023-07-08T00:00:00	2024-11-08T15:00:00	7	Dirección del viento	11.27
165191	7	Sololá	719	Santiago Atitlán	14	Cerro de Oro	8	Agosto	2023-07-08T00:00:00	2024-11-08T15:00:00	1	Precipitación	0
165192	7	Sololá	719	Santiago Atitlán	14	Cerro de Oro	8	Agosto	2023-07-08T00:00:00	2024-11-08T15:00:00	8	Radiación solar	792
165193	7	Sololá	719	Santiago Atitlán	14	Cerro de Oro	8	Agosto	2023-07-08T00:00:00	2024-11-08T16:00:00	2	Temperatura media	26.3
165194	7	Sololá	719	Santiago Atitlán	14	Cerro de Oro	8	Agosto	2023-07-08T00:00:00	2024-11-08T16:00:00	4	Temperatura máxima	26.9
165195	7	Sololá	719	Santiago Atitlán	14	Cerro de Oro	8	Agosto	2023-07-08T00:00:00	2024-11-08T16:00:00	3	Temperatura mínima	26
165196	7	Sololá	719	Santiago Atitlán	14	Cerro de Oro	8	Agosto	2023-07-08T00:00:00	2024-11-08T16:00:00	5	Humedad	67
165197	7	Sololá	719	Santiago Atitlán	14	Cerro de Oro	8	Agosto	2023-07-08T00:00:00	2024-11-08T16:00:00	6	Velocidad del viento	11.3
165198	7	Sololá	719	Santiago Atitlán	14	Cerro de Oro	8	Agosto	2023-07-08T00:00:00	2024-11-08T16:00:00	7	Dirección del viento	11.27
165199	7	Sololá	719	Santiago Atitlán	14	Cerro de Oro	8	Agosto	2023-07-08T00:00:00	2024-11-08T16:00:00	1	Precipitación	0
165200	7	Sololá	719	Santiago Atitlán	14	Cerro de Oro	8	Agosto	2023-07-08T00:00:00	2024-11-08T16:00:00	8	Radiación solar	704
165201	7	Sololá	719	Santiago Atitlán	14	Cerro de Oro	8	Agosto	2023-07-08T00:00:00	2024-11-08T17:00:00	2	Temperatura media	25.2
165202	7	Sololá	719	Santiago Atitlán	14	Cerro de Oro	8	Agosto	2023-07-08T00:00:00	2024-11-08T17:00:00	4	Temperatura máxima	26.3
165203	7	Sololá	719	Santiago Atitlán	14	Cerro de Oro	8	Agosto	2023-07-08T00:00:00	2024-11-08T17:00:00	3	Temperatura mínima	25.1
165204	7	Sololá	719	Santiago Atitlán	14	Cerro de Oro	8	Agosto	2023-07-08T00:00:00	2024-11-08T17:00:00	5	Humedad	66
165205	7	Sololá	719	Santiago Atitlán	14	Cerro de Oro	8	Agosto	2023-07-08T00:00:00	2024-11-08T17:00:00	6	Velocidad del viento	11.3
165206	7	Sololá	719	Santiago Atitlán	14	Cerro de Oro	8	Agosto	2023-07-08T00:00:00	2024-11-08T17:00:00	7	Dirección del viento	11.27
165207	7	Sololá	719	Santiago Atitlán	14	Cerro de Oro	8	Agosto	2023-07-08T00:00:00	2024-11-08T17:00:00	1	Precipitación	0
165208	7	Sololá	719	Santiago Atitlán	14	Cerro de Oro	8	Agosto	2023-07-08T00:00:00	2024-11-08T17:00:00	8	Radiación solar	483
165209	7	Sololá	719	Santiago Atitlán	14	Cerro de Oro	8	Agosto	2023-07-08T00:00:00	2024-11-08T18:00:00	2	Temperatura media	23.2
165210	7	Sololá	719	Santiago Atitlán	14	Cerro de Oro	8	Agosto	2023-07-08T00:00:00	2024-11-08T18:00:00	4	Temperatura máxima	25.5
165211	7	Sololá	719	Santiago Atitlán	14	Cerro de Oro	8	Agosto	2023-07-08T00:00:00	2024-11-08T18:00:00	3	Temperatura mínima	23.2
165212	7	Sololá	719	Santiago Atitlán	14	Cerro de Oro	8	Agosto	2023-07-08T00:00:00	2024-11-08T18:00:00	5	Humedad	76
165213	7	Sololá	719	Santiago Atitlán	14	Cerro de Oro	8	Agosto	2023-07-08T00:00:00	2024-11-08T18:00:00	6	Velocidad del viento	9.7
165214	7	Sololá	719	Santiago Atitlán	14	Cerro de Oro	8	Agosto	2023-07-08T00:00:00	2024-11-08T18:00:00	7	Dirección del viento	9.66
165215	7	Sololá	719	Santiago Atitlán	14	Cerro de Oro	8	Agosto	2023-07-08T00:00:00	2024-11-08T18:00:00	1	Precipitación	0
165216	7	Sololá	719	Santiago Atitlán	14	Cerro de Oro	8	Agosto	2023-07-08T00:00:00	2024-11-08T18:00:00	8	Radiación solar	202
165217	7	Sololá	719	Santiago Atitlán	14	Cerro de Oro	8	Agosto	2023-07-08T00:00:00	2024-11-08T19:00:00	2	Temperatura media	22.4
165218	7	Sololá	719	Santiago Atitlán	14	Cerro de Oro	8	Agosto	2023-07-08T00:00:00	2024-11-08T19:00:00	4	Temperatura máxima	23.4
165219	7	Sololá	719	Santiago Atitlán	14	Cerro de Oro	8	Agosto	2023-07-08T00:00:00	2024-11-08T19:00:00	3	Temperatura mínima	22.4
165220	7	Sololá	719	Santiago Atitlán	14	Cerro de Oro	8	Agosto	2023-07-08T00:00:00	2024-11-08T19:00:00	5	Humedad	75
165221	7	Sololá	719	Santiago Atitlán	14	Cerro de Oro	8	Agosto	2023-07-08T00:00:00	2024-11-08T19:00:00	6	Velocidad del viento	9.7
165222	7	Sololá	719	Santiago Atitlán	14	Cerro de Oro	8	Agosto	2023-07-08T00:00:00	2024-11-08T19:00:00	7	Dirección del viento	9.66
165223	7	Sololá	719	Santiago Atitlán	14	Cerro de Oro	8	Agosto	2023-07-08T00:00:00	2024-11-08T19:00:00	1	Precipitación	0
165224	7	Sololá	719	Santiago Atitlán	14	Cerro de Oro	8	Agosto	2023-07-08T00:00:00	2024-11-08T19:00:00	8	Radiación solar	0
165225	7	Sololá	719	Santiago Atitlán	14	Cerro de Oro	8	Agosto	2023-07-08T00:00:00	2024-11-08T20:00:00	2	Temperatura media	21.5
165226	7	Sololá	719	Santiago Atitlán	14	Cerro de Oro	8	Agosto	2023-07-08T00:00:00	2024-11-08T20:00:00	4	Temperatura máxima	22.4
165227	7	Sololá	719	Santiago Atitlán	14	Cerro de Oro	8	Agosto	2023-07-08T00:00:00	2024-11-08T20:00:00	3	Temperatura mínima	21.4
165228	7	Sololá	719	Santiago Atitlán	14	Cerro de Oro	8	Agosto	2023-07-08T00:00:00	2024-11-08T20:00:00	5	Humedad	75
165229	7	Sololá	719	Santiago Atitlán	14	Cerro de Oro	8	Agosto	2023-07-08T00:00:00	2024-11-08T20:00:00	6	Velocidad del viento	4.8
165230	7	Sololá	719	Santiago Atitlán	14	Cerro de Oro	8	Agosto	2023-07-08T00:00:00	2024-11-08T20:00:00	7	Dirección del viento	4.83
165231	7	Sololá	719	Santiago Atitlán	14	Cerro de Oro	8	Agosto	2023-07-08T00:00:00	2024-11-08T20:00:00	1	Precipitación	0
165232	7	Sololá	719	Santiago Atitlán	14	Cerro de Oro	8	Agosto	2023-07-08T00:00:00	2024-11-08T20:00:00	8	Radiación solar	0
165233	7	Sololá	719	Santiago Atitlán	14	Cerro de Oro	8	Agosto	2023-07-08T00:00:00	2024-11-08T21:00:00	2	Temperatura media	21.4
165234	7	Sololá	719	Santiago Atitlán	14	Cerro de Oro	8	Agosto	2023-07-08T00:00:00	2024-11-08T21:00:00	4	Temperatura máxima	21.5
165235	7	Sololá	719	Santiago Atitlán	14	Cerro de Oro	8	Agosto	2023-07-08T00:00:00	2024-11-08T21:00:00	3	Temperatura mínima	21.2
165236	7	Sololá	719	Santiago Atitlán	14	Cerro de Oro	8	Agosto	2023-07-08T00:00:00	2024-11-08T21:00:00	5	Humedad	73
165237	7	Sololá	719	Santiago Atitlán	14	Cerro de Oro	8	Agosto	2023-07-08T00:00:00	2024-11-08T21:00:00	6	Velocidad del viento	4.8
165238	7	Sololá	719	Santiago Atitlán	14	Cerro de Oro	8	Agosto	2023-07-08T00:00:00	2024-11-08T21:00:00	7	Dirección del viento	4.83
165239	7	Sololá	719	Santiago Atitlán	14	Cerro de Oro	8	Agosto	2023-07-08T00:00:00	2024-11-08T21:00:00	1	Precipitación	0
165240	7	Sololá	719	Santiago Atitlán	14	Cerro de Oro	8	Agosto	2023-07-08T00:00:00	2024-11-08T21:00:00	8	Radiación solar	0
165241	7	Sololá	719	Santiago Atitlán	14	Cerro de Oro	8	Agosto	2023-07-08T00:00:00	2024-11-08T22:00:00	2	Temperatura media	21.3
165242	7	Sololá	719	Santiago Atitlán	14	Cerro de Oro	8	Agosto	2023-07-08T00:00:00	2024-11-08T22:00:00	4	Temperatura máxima	21.5
165243	7	Sololá	719	Santiago Atitlán	14	Cerro de Oro	8	Agosto	2023-07-08T00:00:00	2024-11-08T22:00:00	3	Temperatura mínima	20.9
165244	7	Sololá	719	Santiago Atitlán	14	Cerro de Oro	8	Agosto	2023-07-08T00:00:00	2024-11-08T22:00:00	5	Humedad	74
165245	7	Sololá	719	Santiago Atitlán	14	Cerro de Oro	8	Agosto	2023-07-08T00:00:00	2024-11-08T22:00:00	6	Velocidad del viento	4.8
165246	7	Sololá	719	Santiago Atitlán	14	Cerro de Oro	8	Agosto	2023-07-08T00:00:00	2024-11-08T22:00:00	7	Dirección del viento	4.83
165247	7	Sololá	719	Santiago Atitlán	14	Cerro de Oro	8	Agosto	2023-07-08T00:00:00	2024-11-08T22:00:00	1	Precipitación	0
165248	7	Sololá	719	Santiago Atitlán	14	Cerro de Oro	8	Agosto	2023-07-08T00:00:00	2024-11-08T22:00:00	8	Radiación solar	0
165249	7	Sololá	719	Santiago Atitlán	14	Cerro de Oro	8	Agosto	2023-07-08T00:00:00	2024-11-08T23:00:00	2	Temperatura media	20.7
165250	7	Sololá	719	Santiago Atitlán	14	Cerro de Oro	8	Agosto	2023-07-08T00:00:00	2024-11-08T23:00:00	4	Temperatura máxima	21.3
165251	7	Sololá	719	Santiago Atitlán	14	Cerro de Oro	8	Agosto	2023-07-08T00:00:00	2024-11-08T23:00:00	3	Temperatura mínima	20.2
165252	7	Sololá	719	Santiago Atitlán	14	Cerro de Oro	8	Agosto	2023-07-08T00:00:00	2024-11-08T23:00:00	5	Humedad	75
165253	7	Sololá	719	Santiago Atitlán	14	Cerro de Oro	8	Agosto	2023-07-08T00:00:00	2024-11-08T23:00:00	6	Velocidad del viento	6.4
165254	7	Sololá	719	Santiago Atitlán	14	Cerro de Oro	8	Agosto	2023-07-08T00:00:00	2024-11-08T23:00:00	7	Dirección del viento	6.44
165255	7	Sololá	719	Santiago Atitlán	14	Cerro de Oro	8	Agosto	2023-07-08T00:00:00	2024-11-08T23:00:00	1	Precipitación	0
165256	7	Sololá	719	Santiago Atitlán	14	Cerro de Oro	8	Agosto	2023-07-08T00:00:00	2024-11-08T23:00:00	8	Radiación solar	0
165257	7	Sololá	719	Santiago Atitlán	14	Cerro de Oro	8	Agosto	2023-08-08T00:00:00	2024-11-08T00:00:00	2	Temperatura media	20.2
165258	7	Sololá	719	Santiago Atitlán	14	Cerro de Oro	8	Agosto	2023-08-08T00:00:00	2024-11-08T00:00:00	4	Temperatura máxima	20.8
165259	7	Sololá	719	Santiago Atitlán	14	Cerro de Oro	8	Agosto	2023-08-08T00:00:00	2024-11-08T00:00:00	3	Temperatura mínima	20.1
165260	7	Sololá	719	Santiago Atitlán	14	Cerro de Oro	8	Agosto	2023-08-08T00:00:00	2024-11-08T00:00:00	5	Humedad	75
165261	7	Sololá	719	Santiago Atitlán	14	Cerro de Oro	8	Agosto	2023-08-08T00:00:00	2024-11-08T00:00:00	6	Velocidad del viento	6.4
165262	7	Sololá	719	Santiago Atitlán	14	Cerro de Oro	8	Agosto	2023-08-08T00:00:00	2024-11-08T00:00:00	7	Dirección del viento	6.44
165263	7	Sololá	719	Santiago Atitlán	14	Cerro de Oro	8	Agosto	2023-08-08T00:00:00	2024-11-08T00:00:00	1	Precipitación	0
165264	7	Sololá	719	Santiago Atitlán	14	Cerro de Oro	8	Agosto	2023-08-08T00:00:00	2024-11-08T00:00:00	8	Radiación solar	0
165265	7	Sololá	719	Santiago Atitlán	14	Cerro de Oro	8	Agosto	2023-08-08T00:00:00	2024-11-08T01:00:00	2	Temperatura media	20.6
165266	7	Sololá	719	Santiago Atitlán	14	Cerro de Oro	8	Agosto	2023-08-08T00:00:00	2024-11-08T01:00:00	4	Temperatura máxima	21.1
165267	7	Sololá	719	Santiago Atitlán	14	Cerro de Oro	8	Agosto	2023-08-08T00:00:00	2024-11-08T01:00:00	3	Temperatura mínima	20.2
165268	7	Sololá	719	Santiago Atitlán	14	Cerro de Oro	8	Agosto	2023-08-08T00:00:00	2024-11-08T01:00:00	5	Humedad	74
165269	7	Sololá	719	Santiago Atitlán	14	Cerro de Oro	8	Agosto	2023-08-08T00:00:00	2024-11-08T01:00:00	6	Velocidad del viento	4.8
165270	7	Sololá	719	Santiago Atitlán	14	Cerro de Oro	8	Agosto	2023-08-08T00:00:00	2024-11-08T01:00:00	7	Dirección del viento	4.83
165271	7	Sololá	719	Santiago Atitlán	14	Cerro de Oro	8	Agosto	2023-08-08T00:00:00	2024-11-08T01:00:00	1	Precipitación	0
165272	7	Sololá	719	Santiago Atitlán	14	Cerro de Oro	8	Agosto	2023-08-08T00:00:00	2024-11-08T01:00:00	8	Radiación solar	0
165273	7	Sololá	719	Santiago Atitlán	14	Cerro de Oro	8	Agosto	2023-08-08T00:00:00	2024-11-08T02:00:00	2	Temperatura media	20.1
165274	7	Sololá	719	Santiago Atitlán	14	Cerro de Oro	8	Agosto	2023-08-08T00:00:00	2024-11-08T02:00:00	4	Temperatura máxima	20.8
165275	7	Sololá	719	Santiago Atitlán	14	Cerro de Oro	8	Agosto	2023-08-08T00:00:00	2024-11-08T02:00:00	3	Temperatura mínima	20.1
165276	7	Sololá	719	Santiago Atitlán	14	Cerro de Oro	8	Agosto	2023-08-08T00:00:00	2024-11-08T02:00:00	5	Humedad	76
165277	7	Sololá	719	Santiago Atitlán	14	Cerro de Oro	8	Agosto	2023-08-08T00:00:00	2024-11-08T02:00:00	6	Velocidad del viento	4.8
165278	7	Sololá	719	Santiago Atitlán	14	Cerro de Oro	8	Agosto	2023-08-08T00:00:00	2024-11-08T02:00:00	7	Dirección del viento	4.83
165279	7	Sololá	719	Santiago Atitlán	14	Cerro de Oro	8	Agosto	2023-08-08T00:00:00	2024-11-08T02:00:00	1	Precipitación	0
165280	7	Sololá	719	Santiago Atitlán	14	Cerro de Oro	8	Agosto	2023-08-08T00:00:00	2024-11-08T02:00:00	8	Radiación solar	0
165281	7	Sololá	719	Santiago Atitlán	14	Cerro de Oro	8	Agosto	2023-08-08T00:00:00	2024-11-08T03:00:00	2	Temperatura media	20.8
165282	7	Sololá	719	Santiago Atitlán	14	Cerro de Oro	8	Agosto	2023-08-08T00:00:00	2024-11-08T03:00:00	4	Temperatura máxima	20.8
165283	7	Sololá	719	Santiago Atitlán	14	Cerro de Oro	8	Agosto	2023-08-08T00:00:00	2024-11-08T03:00:00	3	Temperatura mínima	19.8
165284	7	Sololá	719	Santiago Atitlán	14	Cerro de Oro	8	Agosto	2023-08-08T00:00:00	2024-11-08T03:00:00	5	Humedad	72
165285	7	Sololá	719	Santiago Atitlán	14	Cerro de Oro	8	Agosto	2023-08-08T00:00:00	2024-11-08T03:00:00	6	Velocidad del viento	4.8
165286	7	Sololá	719	Santiago Atitlán	14	Cerro de Oro	8	Agosto	2023-08-08T00:00:00	2024-11-08T03:00:00	7	Dirección del viento	4.83
165287	7	Sololá	719	Santiago Atitlán	14	Cerro de Oro	8	Agosto	2023-08-08T00:00:00	2024-11-08T03:00:00	1	Precipitación	0
165288	7	Sololá	719	Santiago Atitlán	14	Cerro de Oro	8	Agosto	2023-08-08T00:00:00	2024-11-08T03:00:00	8	Radiación solar	0
165289	7	Sololá	719	Santiago Atitlán	14	Cerro de Oro	8	Agosto	2023-08-08T00:00:00	2024-11-08T04:00:00	2	Temperatura media	21.1
165290	7	Sololá	719	Santiago Atitlán	14	Cerro de Oro	8	Agosto	2023-08-08T00:00:00	2024-11-08T04:00:00	4	Temperatura máxima	21.3
165291	7	Sololá	719	Santiago Atitlán	14	Cerro de Oro	8	Agosto	2023-08-08T00:00:00	2024-11-08T04:00:00	3	Temperatura mínima	20.4
165292	7	Sololá	719	Santiago Atitlán	14	Cerro de Oro	8	Agosto	2023-08-08T00:00:00	2024-11-08T04:00:00	5	Humedad	70
165293	7	Sololá	719	Santiago Atitlán	14	Cerro de Oro	8	Agosto	2023-08-08T00:00:00	2024-11-08T04:00:00	6	Velocidad del viento	3.2
165294	7	Sololá	719	Santiago Atitlán	14	Cerro de Oro	8	Agosto	2023-08-08T00:00:00	2024-11-08T04:00:00	7	Dirección del viento	3.22
165295	7	Sololá	719	Santiago Atitlán	14	Cerro de Oro	8	Agosto	2023-08-08T00:00:00	2024-11-08T04:00:00	1	Precipitación	0
165296	7	Sololá	719	Santiago Atitlán	14	Cerro de Oro	8	Agosto	2023-08-08T00:00:00	2024-11-08T04:00:00	8	Radiación solar	0
165297	7	Sololá	719	Santiago Atitlán	14	Cerro de Oro	8	Agosto	2023-08-08T00:00:00	2024-11-08T05:00:00	2	Temperatura media	20
165298	7	Sololá	719	Santiago Atitlán	14	Cerro de Oro	8	Agosto	2023-08-08T00:00:00	2024-11-08T05:00:00	4	Temperatura máxima	21.1
165299	7	Sololá	719	Santiago Atitlán	14	Cerro de Oro	8	Agosto	2023-08-08T00:00:00	2024-11-08T05:00:00	3	Temperatura mínima	20
165300	7	Sololá	719	Santiago Atitlán	14	Cerro de Oro	8	Agosto	2023-08-08T00:00:00	2024-11-08T05:00:00	5	Humedad	74
165301	7	Sololá	719	Santiago Atitlán	14	Cerro de Oro	8	Agosto	2023-08-08T00:00:00	2024-11-08T05:00:00	6	Velocidad del viento	3.2
165302	7	Sololá	719	Santiago Atitlán	14	Cerro de Oro	8	Agosto	2023-08-08T00:00:00	2024-11-08T05:00:00	7	Dirección del viento	3.22
165303	7	Sololá	719	Santiago Atitlán	14	Cerro de Oro	8	Agosto	2023-08-08T00:00:00	2024-11-08T05:00:00	1	Precipitación	0
165304	7	Sololá	719	Santiago Atitlán	14	Cerro de Oro	8	Agosto	2023-08-08T00:00:00	2024-11-08T05:00:00	8	Radiación solar	0
165305	7	Sololá	719	Santiago Atitlán	14	Cerro de Oro	8	Agosto	2023-08-08T00:00:00	2024-11-08T06:00:00	2	Temperatura media	20.8
165306	7	Sololá	719	Santiago Atitlán	14	Cerro de Oro	8	Agosto	2023-08-08T00:00:00	2024-11-08T06:00:00	4	Temperatura máxima	20.8
165307	7	Sololá	719	Santiago Atitlán	14	Cerro de Oro	8	Agosto	2023-08-08T00:00:00	2024-11-08T06:00:00	3	Temperatura mínima	19.9
165308	7	Sololá	719	Santiago Atitlán	14	Cerro de Oro	8	Agosto	2023-08-08T00:00:00	2024-11-08T06:00:00	5	Humedad	71
165309	7	Sololá	719	Santiago Atitlán	14	Cerro de Oro	8	Agosto	2023-08-08T00:00:00	2024-11-08T06:00:00	6	Velocidad del viento	4.8
165310	7	Sololá	719	Santiago Atitlán	14	Cerro de Oro	8	Agosto	2023-08-08T00:00:00	2024-11-08T06:00:00	7	Dirección del viento	4.83
165311	7	Sololá	719	Santiago Atitlán	14	Cerro de Oro	8	Agosto	2023-08-08T00:00:00	2024-11-08T06:00:00	1	Precipitación	0
165312	7	Sololá	719	Santiago Atitlán	14	Cerro de Oro	8	Agosto	2023-08-08T00:00:00	2024-11-08T06:00:00	8	Radiación solar	1
165313	7	Sololá	719	Santiago Atitlán	14	Cerro de Oro	8	Agosto	2023-08-08T00:00:00	2024-11-08T07:00:00	2	Temperatura media	21.6
165314	7	Sololá	719	Santiago Atitlán	14	Cerro de Oro	8	Agosto	2023-08-08T00:00:00	2024-11-08T07:00:00	4	Temperatura máxima	21.6
165315	7	Sololá	719	Santiago Atitlán	14	Cerro de Oro	8	Agosto	2023-08-08T00:00:00	2024-11-08T07:00:00	3	Temperatura mínima	20.2
165316	7	Sololá	719	Santiago Atitlán	14	Cerro de Oro	8	Agosto	2023-08-08T00:00:00	2024-11-08T07:00:00	5	Humedad	70
165317	7	Sololá	719	Santiago Atitlán	14	Cerro de Oro	8	Agosto	2023-08-08T00:00:00	2024-11-08T07:00:00	6	Velocidad del viento	6.4
165318	7	Sololá	719	Santiago Atitlán	14	Cerro de Oro	8	Agosto	2023-08-08T00:00:00	2024-11-08T07:00:00	7	Dirección del viento	6.44
165319	7	Sololá	719	Santiago Atitlán	14	Cerro de Oro	8	Agosto	2023-08-08T00:00:00	2024-11-08T07:00:00	1	Precipitación	0
165320	7	Sololá	719	Santiago Atitlán	14	Cerro de Oro	8	Agosto	2023-08-08T00:00:00	2024-11-08T07:00:00	8	Radiación solar	68
165321	7	Sololá	719	Santiago Atitlán	14	Cerro de Oro	8	Agosto	2023-08-08T00:00:00	2024-11-08T08:00:00	2	Temperatura media	22.6
165322	7	Sololá	719	Santiago Atitlán	14	Cerro de Oro	8	Agosto	2023-08-08T00:00:00	2024-11-08T08:00:00	4	Temperatura máxima	22.7
165323	7	Sololá	719	Santiago Atitlán	14	Cerro de Oro	8	Agosto	2023-08-08T00:00:00	2024-11-08T08:00:00	3	Temperatura mínima	21.6
165324	7	Sololá	719	Santiago Atitlán	14	Cerro de Oro	8	Agosto	2023-08-08T00:00:00	2024-11-08T08:00:00	5	Humedad	67
165325	7	Sololá	719	Santiago Atitlán	14	Cerro de Oro	8	Agosto	2023-08-08T00:00:00	2024-11-08T08:00:00	6	Velocidad del viento	6.4
165326	7	Sololá	719	Santiago Atitlán	14	Cerro de Oro	8	Agosto	2023-08-08T00:00:00	2024-11-08T08:00:00	7	Dirección del viento	6.44
165327	7	Sololá	719	Santiago Atitlán	14	Cerro de Oro	8	Agosto	2023-08-08T00:00:00	2024-11-08T08:00:00	1	Precipitación	0
165328	7	Sololá	719	Santiago Atitlán	14	Cerro de Oro	8	Agosto	2023-08-08T00:00:00	2024-11-08T08:00:00	8	Radiación solar	192
165329	7	Sololá	719	Santiago Atitlán	14	Cerro de Oro	8	Agosto	2023-08-08T00:00:00	2024-11-08T09:00:00	2	Temperatura media	25.1
165330	7	Sololá	719	Santiago Atitlán	14	Cerro de Oro	8	Agosto	2023-08-08T00:00:00	2024-11-08T09:00:00	4	Temperatura máxima	25.1
165331	7	Sololá	719	Santiago Atitlán	14	Cerro de Oro	8	Agosto	2023-08-08T00:00:00	2024-11-08T09:00:00	3	Temperatura mínima	22.6
165332	7	Sololá	719	Santiago Atitlán	14	Cerro de Oro	8	Agosto	2023-08-08T00:00:00	2024-11-08T09:00:00	5	Humedad	59
165333	7	Sololá	719	Santiago Atitlán	14	Cerro de Oro	8	Agosto	2023-08-08T00:00:00	2024-11-08T09:00:00	6	Velocidad del viento	4.8
165334	7	Sololá	719	Santiago Atitlán	14	Cerro de Oro	8	Agosto	2023-08-08T00:00:00	2024-11-08T09:00:00	7	Dirección del viento	4.83
165335	7	Sololá	719	Santiago Atitlán	14	Cerro de Oro	8	Agosto	2023-08-08T00:00:00	2024-11-08T09:00:00	1	Precipitación	0
165336	7	Sololá	719	Santiago Atitlán	14	Cerro de Oro	8	Agosto	2023-08-08T00:00:00	2024-11-08T09:00:00	8	Radiación solar	462
165337	7	Sololá	719	Santiago Atitlán	14	Cerro de Oro	8	Agosto	2023-08-08T00:00:00	2024-11-08T10:00:00	2	Temperatura media	25.1
165338	7	Sololá	719	Santiago Atitlán	14	Cerro de Oro	8	Agosto	2023-08-08T00:00:00	2024-11-08T10:00:00	4	Temperatura máxima	25.3
165339	7	Sololá	719	Santiago Atitlán	14	Cerro de Oro	8	Agosto	2023-08-08T00:00:00	2024-11-08T10:00:00	3	Temperatura mínima	24.7
165340	7	Sololá	719	Santiago Atitlán	14	Cerro de Oro	8	Agosto	2023-08-08T00:00:00	2024-11-08T10:00:00	5	Humedad	59
165341	7	Sololá	719	Santiago Atitlán	14	Cerro de Oro	8	Agosto	2023-08-08T00:00:00	2024-11-08T10:00:00	6	Velocidad del viento	9.7
165342	7	Sololá	719	Santiago Atitlán	14	Cerro de Oro	8	Agosto	2023-08-08T00:00:00	2024-11-08T10:00:00	7	Dirección del viento	9.66
165343	7	Sololá	719	Santiago Atitlán	14	Cerro de Oro	8	Agosto	2023-08-08T00:00:00	2024-11-08T10:00:00	1	Precipitación	0
165344	7	Sololá	719	Santiago Atitlán	14	Cerro de Oro	8	Agosto	2023-08-08T00:00:00	2024-11-08T10:00:00	8	Radiación solar	740
165345	7	Sololá	719	Santiago Atitlán	14	Cerro de Oro	8	Agosto	2023-08-08T00:00:00	2024-11-08T11:00:00	2	Temperatura media	25.5
165346	7	Sololá	719	Santiago Atitlán	14	Cerro de Oro	8	Agosto	2023-08-08T00:00:00	2024-11-08T11:00:00	4	Temperatura máxima	26.1
165347	7	Sololá	719	Santiago Atitlán	14	Cerro de Oro	8	Agosto	2023-08-08T00:00:00	2024-11-08T11:00:00	3	Temperatura mínima	25.1
165348	7	Sololá	719	Santiago Atitlán	14	Cerro de Oro	8	Agosto	2023-08-08T00:00:00	2024-11-08T11:00:00	5	Humedad	59
165349	7	Sololá	719	Santiago Atitlán	14	Cerro de Oro	8	Agosto	2023-08-08T00:00:00	2024-11-08T11:00:00	6	Velocidad del viento	12.9
165350	7	Sololá	719	Santiago Atitlán	14	Cerro de Oro	8	Agosto	2023-08-08T00:00:00	2024-11-08T11:00:00	7	Dirección del viento	12.87
165351	7	Sololá	719	Santiago Atitlán	14	Cerro de Oro	8	Agosto	2023-08-08T00:00:00	2024-11-08T11:00:00	1	Precipitación	0
165352	7	Sololá	719	Santiago Atitlán	14	Cerro de Oro	8	Agosto	2023-08-08T00:00:00	2024-11-08T11:00:00	8	Radiación solar	829
165353	7	Sololá	719	Santiago Atitlán	14	Cerro de Oro	8	Agosto	2023-08-08T00:00:00	2024-11-08T12:00:00	2	Temperatura media	26.7
165354	7	Sololá	719	Santiago Atitlán	14	Cerro de Oro	8	Agosto	2023-08-08T00:00:00	2024-11-08T12:00:00	4	Temperatura máxima	26.8
165355	7	Sololá	719	Santiago Atitlán	14	Cerro de Oro	8	Agosto	2023-08-08T00:00:00	2024-11-08T12:00:00	3	Temperatura mínima	25.6
165356	7	Sololá	719	Santiago Atitlán	14	Cerro de Oro	8	Agosto	2023-08-08T00:00:00	2024-11-08T12:00:00	5	Humedad	52
165357	7	Sololá	719	Santiago Atitlán	14	Cerro de Oro	8	Agosto	2023-08-08T00:00:00	2024-11-08T12:00:00	6	Velocidad del viento	14.5
165358	7	Sololá	719	Santiago Atitlán	14	Cerro de Oro	8	Agosto	2023-08-08T00:00:00	2024-11-08T12:00:00	7	Dirección del viento	14.48
165359	7	Sololá	719	Santiago Atitlán	14	Cerro de Oro	8	Agosto	2023-08-08T00:00:00	2024-11-08T12:00:00	1	Precipitación	0
165360	7	Sololá	719	Santiago Atitlán	14	Cerro de Oro	8	Agosto	2023-08-08T00:00:00	2024-11-08T12:00:00	8	Radiación solar	1001
165361	7	Sololá	719	Santiago Atitlán	14	Cerro de Oro	8	Agosto	2023-08-08T00:00:00	2024-11-08T13:00:00	2	Temperatura media	25.9
165362	7	Sololá	719	Santiago Atitlán	14	Cerro de Oro	8	Agosto	2023-08-08T00:00:00	2024-11-08T13:00:00	4	Temperatura máxima	26.8
165363	7	Sololá	719	Santiago Atitlán	14	Cerro de Oro	8	Agosto	2023-08-08T00:00:00	2024-11-08T13:00:00	3	Temperatura mínima	25.6
165364	7	Sololá	719	Santiago Atitlán	14	Cerro de Oro	8	Agosto	2023-08-08T00:00:00	2024-11-08T13:00:00	5	Humedad	68
165365	7	Sololá	719	Santiago Atitlán	14	Cerro de Oro	8	Agosto	2023-08-08T00:00:00	2024-11-08T13:00:00	6	Velocidad del viento	12.9
165366	7	Sololá	719	Santiago Atitlán	14	Cerro de Oro	8	Agosto	2023-08-08T00:00:00	2024-11-08T13:00:00	7	Dirección del viento	12.87
165367	7	Sololá	719	Santiago Atitlán	14	Cerro de Oro	8	Agosto	2023-08-08T00:00:00	2024-11-08T13:00:00	1	Precipitación	0
165368	7	Sololá	719	Santiago Atitlán	14	Cerro de Oro	8	Agosto	2023-08-08T00:00:00	2024-11-08T13:00:00	8	Radiación solar	937
165369	7	Sololá	719	Santiago Atitlán	14	Cerro de Oro	8	Agosto	2023-08-08T00:00:00	2024-11-08T14:00:00	2	Temperatura media	26
165370	7	Sololá	719	Santiago Atitlán	14	Cerro de Oro	8	Agosto	2023-08-08T00:00:00	2024-11-08T14:00:00	4	Temperatura máxima	26.6
165371	7	Sololá	719	Santiago Atitlán	14	Cerro de Oro	8	Agosto	2023-08-08T00:00:00	2024-11-08T14:00:00	3	Temperatura mínima	25.6
165372	7	Sololá	719	Santiago Atitlán	14	Cerro de Oro	8	Agosto	2023-08-08T00:00:00	2024-11-08T14:00:00	5	Humedad	63
165373	7	Sololá	719	Santiago Atitlán	14	Cerro de Oro	8	Agosto	2023-08-08T00:00:00	2024-11-08T14:00:00	6	Velocidad del viento	14.5
165374	7	Sololá	719	Santiago Atitlán	14	Cerro de Oro	8	Agosto	2023-08-08T00:00:00	2024-11-08T14:00:00	7	Dirección del viento	14.48
165375	7	Sololá	719	Santiago Atitlán	14	Cerro de Oro	8	Agosto	2023-08-08T00:00:00	2024-11-08T14:00:00	1	Precipitación	0
165376	7	Sololá	719	Santiago Atitlán	14	Cerro de Oro	8	Agosto	2023-08-08T00:00:00	2024-11-08T14:00:00	8	Radiación solar	898
165377	7	Sololá	719	Santiago Atitlán	14	Cerro de Oro	8	Agosto	2023-08-08T00:00:00	2024-11-08T15:00:00	2	Temperatura media	25.7
165378	7	Sololá	719	Santiago Atitlán	14	Cerro de Oro	8	Agosto	2023-08-08T00:00:00	2024-11-08T15:00:00	4	Temperatura máxima	26.5
165379	7	Sololá	719	Santiago Atitlán	14	Cerro de Oro	8	Agosto	2023-08-08T00:00:00	2024-11-08T15:00:00	3	Temperatura mínima	25.1
165380	7	Sololá	719	Santiago Atitlán	14	Cerro de Oro	8	Agosto	2023-08-08T00:00:00	2024-11-08T15:00:00	5	Humedad	71
165381	7	Sololá	719	Santiago Atitlán	14	Cerro de Oro	8	Agosto	2023-08-08T00:00:00	2024-11-08T15:00:00	6	Velocidad del viento	12.9
165382	7	Sololá	719	Santiago Atitlán	14	Cerro de Oro	8	Agosto	2023-08-08T00:00:00	2024-11-08T15:00:00	7	Dirección del viento	12.87
165383	7	Sololá	719	Santiago Atitlán	14	Cerro de Oro	8	Agosto	2023-08-08T00:00:00	2024-11-08T15:00:00	1	Precipitación	0
165384	7	Sololá	719	Santiago Atitlán	14	Cerro de Oro	8	Agosto	2023-08-08T00:00:00	2024-11-08T15:00:00	8	Radiación solar	775
165385	7	Sololá	719	Santiago Atitlán	14	Cerro de Oro	8	Agosto	2023-08-08T00:00:00	2024-11-08T16:00:00	2	Temperatura media	24.6
165386	7	Sololá	719	Santiago Atitlán	14	Cerro de Oro	8	Agosto	2023-08-08T00:00:00	2024-11-08T16:00:00	4	Temperatura máxima	25.7
165387	7	Sololá	719	Santiago Atitlán	14	Cerro de Oro	8	Agosto	2023-08-08T00:00:00	2024-11-08T16:00:00	3	Temperatura mínima	24.4
165388	7	Sololá	719	Santiago Atitlán	14	Cerro de Oro	8	Agosto	2023-08-08T00:00:00	2024-11-08T16:00:00	5	Humedad	74
165389	7	Sololá	719	Santiago Atitlán	14	Cerro de Oro	8	Agosto	2023-08-08T00:00:00	2024-11-08T16:00:00	6	Velocidad del viento	12.9
165390	7	Sololá	719	Santiago Atitlán	14	Cerro de Oro	8	Agosto	2023-08-08T00:00:00	2024-11-08T16:00:00	7	Dirección del viento	12.87
165391	7	Sololá	719	Santiago Atitlán	14	Cerro de Oro	8	Agosto	2023-08-08T00:00:00	2024-11-08T16:00:00	1	Precipitación	0
165392	7	Sololá	719	Santiago Atitlán	14	Cerro de Oro	8	Agosto	2023-08-08T00:00:00	2024-11-08T16:00:00	8	Radiación solar	604
165393	7	Sololá	719	Santiago Atitlán	14	Cerro de Oro	8	Agosto	2023-08-08T00:00:00	2024-11-08T17:00:00	2	Temperatura media	22.8
165394	7	Sololá	719	Santiago Atitlán	14	Cerro de Oro	8	Agosto	2023-08-08T00:00:00	2024-11-08T17:00:00	4	Temperatura máxima	24.7
165395	7	Sololá	719	Santiago Atitlán	14	Cerro de Oro	8	Agosto	2023-08-08T00:00:00	2024-11-08T17:00:00	3	Temperatura mínima	22.7
165396	7	Sololá	719	Santiago Atitlán	14	Cerro de Oro	8	Agosto	2023-08-08T00:00:00	2024-11-08T17:00:00	5	Humedad	80
165397	7	Sololá	719	Santiago Atitlán	14	Cerro de Oro	8	Agosto	2023-08-08T00:00:00	2024-11-08T17:00:00	6	Velocidad del viento	9.7
165398	7	Sololá	719	Santiago Atitlán	14	Cerro de Oro	8	Agosto	2023-08-08T00:00:00	2024-11-08T17:00:00	7	Dirección del viento	9.66
165399	7	Sololá	719	Santiago Atitlán	14	Cerro de Oro	8	Agosto	2023-08-08T00:00:00	2024-11-08T17:00:00	1	Precipitación	0
165400	7	Sololá	719	Santiago Atitlán	14	Cerro de Oro	8	Agosto	2023-08-08T00:00:00	2024-11-08T17:00:00	8	Radiación solar	384
165401	7	Sololá	719	Santiago Atitlán	14	Cerro de Oro	8	Agosto	2023-08-08T00:00:00	2024-11-08T18:00:00	2	Temperatura media	21.2
165402	7	Sololá	719	Santiago Atitlán	14	Cerro de Oro	8	Agosto	2023-08-08T00:00:00	2024-11-08T18:00:00	4	Temperatura máxima	22.9
165403	7	Sololá	719	Santiago Atitlán	14	Cerro de Oro	8	Agosto	2023-08-08T00:00:00	2024-11-08T18:00:00	3	Temperatura mínima	20.9
165404	7	Sololá	719	Santiago Atitlán	14	Cerro de Oro	8	Agosto	2023-08-08T00:00:00	2024-11-08T18:00:00	5	Humedad	84
165405	7	Sololá	719	Santiago Atitlán	14	Cerro de Oro	8	Agosto	2023-08-08T00:00:00	2024-11-08T18:00:00	6	Velocidad del viento	9.7
165406	7	Sololá	719	Santiago Atitlán	14	Cerro de Oro	8	Agosto	2023-08-08T00:00:00	2024-11-08T18:00:00	7	Dirección del viento	9.66
165407	7	Sololá	719	Santiago Atitlán	14	Cerro de Oro	8	Agosto	2023-08-08T00:00:00	2024-11-08T18:00:00	1	Precipitación	0
165408	7	Sololá	719	Santiago Atitlán	14	Cerro de Oro	8	Agosto	2023-08-08T00:00:00	2024-11-08T18:00:00	8	Radiación solar	125
165409	7	Sololá	719	Santiago Atitlán	14	Cerro de Oro	8	Agosto	2023-08-08T00:00:00	2024-11-08T19:00:00	2	Temperatura media	20.7
165410	7	Sololá	719	Santiago Atitlán	14	Cerro de Oro	8	Agosto	2023-08-08T00:00:00	2024-11-08T19:00:00	4	Temperatura máxima	21.2
165411	7	Sololá	719	Santiago Atitlán	14	Cerro de Oro	8	Agosto	2023-08-08T00:00:00	2024-11-08T19:00:00	3	Temperatura mínima	20.4
165412	7	Sololá	719	Santiago Atitlán	14	Cerro de Oro	8	Agosto	2023-08-08T00:00:00	2024-11-08T19:00:00	5	Humedad	83
165413	7	Sololá	719	Santiago Atitlán	14	Cerro de Oro	8	Agosto	2023-08-08T00:00:00	2024-11-08T19:00:00	6	Velocidad del viento	3.2
165414	7	Sololá	719	Santiago Atitlán	14	Cerro de Oro	8	Agosto	2023-08-08T00:00:00	2024-11-08T19:00:00	7	Dirección del viento	3.22
165415	7	Sololá	719	Santiago Atitlán	14	Cerro de Oro	8	Agosto	2023-08-08T00:00:00	2024-11-08T19:00:00	1	Precipitación	0
165416	7	Sololá	719	Santiago Atitlán	14	Cerro de Oro	8	Agosto	2023-08-08T00:00:00	2024-11-08T19:00:00	8	Radiación solar	0
165417	7	Sololá	719	Santiago Atitlán	14	Cerro de Oro	8	Agosto	2023-08-08T00:00:00	2024-11-08T20:00:00	2	Temperatura media	20.1
165418	7	Sololá	719	Santiago Atitlán	14	Cerro de Oro	8	Agosto	2023-08-08T00:00:00	2024-11-08T20:00:00	4	Temperatura máxima	20.7
165419	7	Sololá	719	Santiago Atitlán	14	Cerro de Oro	8	Agosto	2023-08-08T00:00:00	2024-11-08T20:00:00	3	Temperatura mínima	19.6
165420	7	Sololá	719	Santiago Atitlán	14	Cerro de Oro	8	Agosto	2023-08-08T00:00:00	2024-11-08T20:00:00	5	Humedad	83
165421	7	Sololá	719	Santiago Atitlán	14	Cerro de Oro	8	Agosto	2023-08-08T00:00:00	2024-11-08T20:00:00	6	Velocidad del viento	6.4
165422	7	Sololá	719	Santiago Atitlán	14	Cerro de Oro	8	Agosto	2023-08-08T00:00:00	2024-11-08T20:00:00	7	Dirección del viento	6.44
165423	7	Sololá	719	Santiago Atitlán	14	Cerro de Oro	8	Agosto	2023-08-08T00:00:00	2024-11-08T20:00:00	1	Precipitación	0
165424	7	Sololá	719	Santiago Atitlán	14	Cerro de Oro	8	Agosto	2023-08-08T00:00:00	2024-11-08T20:00:00	8	Radiación solar	0
165425	7	Sololá	719	Santiago Atitlán	14	Cerro de Oro	8	Agosto	2023-08-08T00:00:00	2024-11-08T21:00:00	2	Temperatura media	19.6
165426	7	Sololá	719	Santiago Atitlán	14	Cerro de Oro	8	Agosto	2023-08-08T00:00:00	2024-11-08T21:00:00	4	Temperatura máxima	20.3
165427	7	Sololá	719	Santiago Atitlán	14	Cerro de Oro	8	Agosto	2023-08-08T00:00:00	2024-11-08T21:00:00	3	Temperatura mínima	19.5
165428	7	Sololá	719	Santiago Atitlán	14	Cerro de Oro	8	Agosto	2023-08-08T00:00:00	2024-11-08T21:00:00	5	Humedad	82
165429	7	Sololá	719	Santiago Atitlán	14	Cerro de Oro	8	Agosto	2023-08-08T00:00:00	2024-11-08T21:00:00	6	Velocidad del viento	3.2
165430	7	Sololá	719	Santiago Atitlán	14	Cerro de Oro	8	Agosto	2023-08-08T00:00:00	2024-11-08T21:00:00	7	Dirección del viento	3.22
165431	7	Sololá	719	Santiago Atitlán	14	Cerro de Oro	8	Agosto	2023-08-08T00:00:00	2024-11-08T21:00:00	1	Precipitación	0
165432	7	Sololá	719	Santiago Atitlán	14	Cerro de Oro	8	Agosto	2023-08-08T00:00:00	2024-11-08T21:00:00	8	Radiación solar	0
165433	7	Sololá	719	Santiago Atitlán	14	Cerro de Oro	8	Agosto	2023-08-08T00:00:00	2024-11-08T22:00:00	2	Temperatura media	19.6
165434	7	Sololá	719	Santiago Atitlán	14	Cerro de Oro	8	Agosto	2023-08-08T00:00:00	2024-11-08T22:00:00	4	Temperatura máxima	20.3
165435	7	Sololá	719	Santiago Atitlán	14	Cerro de Oro	8	Agosto	2023-08-08T00:00:00	2024-11-08T22:00:00	3	Temperatura mínima	19.5
165436	7	Sololá	719	Santiago Atitlán	14	Cerro de Oro	8	Agosto	2023-08-08T00:00:00	2024-11-08T22:00:00	5	Humedad	86
165437	7	Sololá	719	Santiago Atitlán	14	Cerro de Oro	8	Agosto	2023-08-08T00:00:00	2024-11-08T22:00:00	6	Velocidad del viento	3.2
165438	7	Sololá	719	Santiago Atitlán	14	Cerro de Oro	8	Agosto	2023-08-08T00:00:00	2024-11-08T22:00:00	7	Dirección del viento	3.22
165439	7	Sololá	719	Santiago Atitlán	14	Cerro de Oro	8	Agosto	2023-08-08T00:00:00	2024-11-08T22:00:00	1	Precipitación	0
165440	7	Sololá	719	Santiago Atitlán	14	Cerro de Oro	8	Agosto	2023-08-08T00:00:00	2024-11-08T22:00:00	8	Radiación solar	0
165441	7	Sololá	719	Santiago Atitlán	14	Cerro de Oro	8	Agosto	2023-08-08T00:00:00	2024-11-08T23:00:00	2	Temperatura media	19.5
165442	7	Sololá	719	Santiago Atitlán	14	Cerro de Oro	8	Agosto	2023-08-08T00:00:00	2024-11-08T23:00:00	4	Temperatura máxima	19.8
165443	7	Sololá	719	Santiago Atitlán	14	Cerro de Oro	8	Agosto	2023-08-08T00:00:00	2024-11-08T23:00:00	3	Temperatura mínima	19.2
165444	7	Sololá	719	Santiago Atitlán	14	Cerro de Oro	8	Agosto	2023-08-08T00:00:00	2024-11-08T23:00:00	5	Humedad	78
165445	7	Sololá	719	Santiago Atitlán	14	Cerro de Oro	8	Agosto	2023-08-08T00:00:00	2024-11-08T23:00:00	6	Velocidad del viento	6.4
165446	7	Sololá	719	Santiago Atitlán	14	Cerro de Oro	8	Agosto	2023-08-08T00:00:00	2024-11-08T23:00:00	7	Dirección del viento	6.44
165447	7	Sololá	719	Santiago Atitlán	14	Cerro de Oro	8	Agosto	2023-08-08T00:00:00	2024-11-08T23:00:00	1	Precipitación	0
165448	7	Sololá	719	Santiago Atitlán	14	Cerro de Oro	8	Agosto	2023-08-08T00:00:00	2024-11-08T23:00:00	8	Radiación solar	0
165449	7	Sololá	719	Santiago Atitlán	14	Cerro de Oro	8	Agosto	2023-09-08T00:00:00	2024-11-08T00:00:00	2	Temperatura media	19.9
165450	7	Sololá	719	Santiago Atitlán	14	Cerro de Oro	8	Agosto	2023-09-08T00:00:00	2024-11-08T00:00:00	4	Temperatura máxima	20.4
165451	7	Sololá	719	Santiago Atitlán	14	Cerro de Oro	8	Agosto	2023-09-08T00:00:00	2024-11-08T00:00:00	3	Temperatura mínima	19.1
165452	7	Sololá	719	Santiago Atitlán	14	Cerro de Oro	8	Agosto	2023-09-08T00:00:00	2024-11-08T00:00:00	5	Humedad	77
165453	7	Sololá	719	Santiago Atitlán	14	Cerro de Oro	8	Agosto	2023-09-08T00:00:00	2024-11-08T00:00:00	6	Velocidad del viento	3.2
165454	7	Sololá	719	Santiago Atitlán	14	Cerro de Oro	8	Agosto	2023-09-08T00:00:00	2024-11-08T00:00:00	7	Dirección del viento	3.22
165455	7	Sololá	719	Santiago Atitlán	14	Cerro de Oro	8	Agosto	2023-09-08T00:00:00	2024-11-08T00:00:00	1	Precipitación	0
165456	7	Sololá	719	Santiago Atitlán	14	Cerro de Oro	8	Agosto	2023-09-08T00:00:00	2024-11-08T00:00:00	8	Radiación solar	0
165457	7	Sololá	719	Santiago Atitlán	14	Cerro de Oro	8	Agosto	2023-09-08T00:00:00	2024-11-08T01:00:00	2	Temperatura media	19.1
165458	7	Sololá	719	Santiago Atitlán	14	Cerro de Oro	8	Agosto	2023-09-08T00:00:00	2024-11-08T01:00:00	4	Temperatura máxima	19.9
165459	7	Sololá	719	Santiago Atitlán	14	Cerro de Oro	8	Agosto	2023-09-08T00:00:00	2024-11-08T01:00:00	3	Temperatura mínima	18.9
165460	7	Sololá	719	Santiago Atitlán	14	Cerro de Oro	8	Agosto	2023-09-08T00:00:00	2024-11-08T01:00:00	5	Humedad	82
165461	7	Sololá	719	Santiago Atitlán	14	Cerro de Oro	8	Agosto	2023-09-08T00:00:00	2024-11-08T01:00:00	6	Velocidad del viento	4.8
165462	7	Sololá	719	Santiago Atitlán	14	Cerro de Oro	8	Agosto	2023-09-08T00:00:00	2024-11-08T01:00:00	7	Dirección del viento	4.83
165463	7	Sololá	719	Santiago Atitlán	14	Cerro de Oro	8	Agosto	2023-09-08T00:00:00	2024-11-08T01:00:00	1	Precipitación	0
165464	7	Sololá	719	Santiago Atitlán	14	Cerro de Oro	8	Agosto	2023-09-08T00:00:00	2024-11-08T01:00:00	8	Radiación solar	0
165465	7	Sololá	719	Santiago Atitlán	14	Cerro de Oro	8	Agosto	2023-09-08T00:00:00	2024-11-08T02:00:00	2	Temperatura media	18.9
165466	7	Sololá	719	Santiago Atitlán	14	Cerro de Oro	8	Agosto	2023-09-08T00:00:00	2024-11-08T02:00:00	4	Temperatura máxima	19.3
165467	7	Sololá	719	Santiago Atitlán	14	Cerro de Oro	8	Agosto	2023-09-08T00:00:00	2024-11-08T02:00:00	3	Temperatura mínima	18.6
165468	7	Sololá	719	Santiago Atitlán	14	Cerro de Oro	8	Agosto	2023-09-08T00:00:00	2024-11-08T02:00:00	5	Humedad	83
165469	7	Sololá	719	Santiago Atitlán	14	Cerro de Oro	8	Agosto	2023-09-08T00:00:00	2024-11-08T02:00:00	6	Velocidad del viento	3.2
165470	7	Sololá	719	Santiago Atitlán	14	Cerro de Oro	8	Agosto	2023-09-08T00:00:00	2024-11-08T02:00:00	7	Dirección del viento	3.22
165471	7	Sololá	719	Santiago Atitlán	14	Cerro de Oro	8	Agosto	2023-09-08T00:00:00	2024-11-08T02:00:00	1	Precipitación	0
165472	7	Sololá	719	Santiago Atitlán	14	Cerro de Oro	8	Agosto	2023-09-08T00:00:00	2024-11-08T02:00:00	8	Radiación solar	0
165473	7	Sololá	719	Santiago Atitlán	14	Cerro de Oro	8	Agosto	2023-09-08T00:00:00	2024-11-08T03:00:00	2	Temperatura media	18.1
165474	7	Sololá	719	Santiago Atitlán	14	Cerro de Oro	8	Agosto	2023-09-08T00:00:00	2024-11-08T03:00:00	4	Temperatura máxima	18.9
165475	7	Sololá	719	Santiago Atitlán	14	Cerro de Oro	8	Agosto	2023-09-08T00:00:00	2024-11-08T03:00:00	3	Temperatura mínima	18.1
165476	7	Sololá	719	Santiago Atitlán	14	Cerro de Oro	8	Agosto	2023-09-08T00:00:00	2024-11-08T03:00:00	5	Humedad	85
165477	7	Sololá	719	Santiago Atitlán	14	Cerro de Oro	8	Agosto	2023-09-08T00:00:00	2024-11-08T03:00:00	6	Velocidad del viento	3.2
165478	7	Sololá	719	Santiago Atitlán	14	Cerro de Oro	8	Agosto	2023-09-08T00:00:00	2024-11-08T03:00:00	7	Dirección del viento	3.22
165479	7	Sololá	719	Santiago Atitlán	14	Cerro de Oro	8	Agosto	2023-09-08T00:00:00	2024-11-08T03:00:00	1	Precipitación	0
165480	7	Sololá	719	Santiago Atitlán	14	Cerro de Oro	8	Agosto	2023-09-08T00:00:00	2024-11-08T03:00:00	8	Radiación solar	0
165481	7	Sololá	719	Santiago Atitlán	14	Cerro de Oro	8	Agosto	2023-09-08T00:00:00	2024-11-08T04:00:00	2	Temperatura media	18.5
165482	7	Sololá	719	Santiago Atitlán	14	Cerro de Oro	8	Agosto	2023-09-08T00:00:00	2024-11-08T04:00:00	4	Temperatura máxima	18.7
165483	7	Sololá	719	Santiago Atitlán	14	Cerro de Oro	8	Agosto	2023-09-08T00:00:00	2024-11-08T04:00:00	3	Temperatura mínima	18
165484	7	Sololá	719	Santiago Atitlán	14	Cerro de Oro	8	Agosto	2023-09-08T00:00:00	2024-11-08T04:00:00	5	Humedad	80
165485	7	Sololá	719	Santiago Atitlán	14	Cerro de Oro	8	Agosto	2023-09-08T00:00:00	2024-11-08T04:00:00	6	Velocidad del viento	6.4
165486	7	Sololá	719	Santiago Atitlán	14	Cerro de Oro	8	Agosto	2023-09-08T00:00:00	2024-11-08T04:00:00	7	Dirección del viento	6.44
165487	7	Sololá	719	Santiago Atitlán	14	Cerro de Oro	8	Agosto	2023-09-08T00:00:00	2024-11-08T04:00:00	1	Precipitación	0
165488	7	Sololá	719	Santiago Atitlán	14	Cerro de Oro	8	Agosto	2023-09-08T00:00:00	2024-11-08T04:00:00	8	Radiación solar	0
165489	7	Sololá	719	Santiago Atitlán	14	Cerro de Oro	8	Agosto	2023-09-08T00:00:00	2024-11-08T05:00:00	2	Temperatura media	18.8
165490	7	Sololá	719	Santiago Atitlán	14	Cerro de Oro	8	Agosto	2023-09-08T00:00:00	2024-11-08T05:00:00	4	Temperatura máxima	19.1
165491	7	Sololá	719	Santiago Atitlán	14	Cerro de Oro	8	Agosto	2023-09-08T00:00:00	2024-11-08T05:00:00	3	Temperatura mínima	18.4
165492	7	Sololá	719	Santiago Atitlán	14	Cerro de Oro	8	Agosto	2023-09-08T00:00:00	2024-11-08T05:00:00	5	Humedad	78
165493	7	Sololá	719	Santiago Atitlán	14	Cerro de Oro	8	Agosto	2023-09-08T00:00:00	2024-11-08T05:00:00	6	Velocidad del viento	4.8
165494	7	Sololá	719	Santiago Atitlán	14	Cerro de Oro	8	Agosto	2023-09-08T00:00:00	2024-11-08T05:00:00	7	Dirección del viento	4.83
165495	7	Sololá	719	Santiago Atitlán	14	Cerro de Oro	8	Agosto	2023-09-08T00:00:00	2024-11-08T05:00:00	1	Precipitación	0
165496	7	Sololá	719	Santiago Atitlán	14	Cerro de Oro	8	Agosto	2023-09-08T00:00:00	2024-11-08T05:00:00	8	Radiación solar	0
165497	7	Sololá	719	Santiago Atitlán	14	Cerro de Oro	8	Agosto	2023-09-08T00:00:00	2024-11-08T06:00:00	2	Temperatura media	18.8
165498	7	Sololá	719	Santiago Atitlán	14	Cerro de Oro	8	Agosto	2023-09-08T00:00:00	2024-11-08T06:00:00	4	Temperatura máxima	19.1
165499	7	Sololá	719	Santiago Atitlán	14	Cerro de Oro	8	Agosto	2023-09-08T00:00:00	2024-11-08T06:00:00	3	Temperatura mínima	18.7
165500	7	Sololá	719	Santiago Atitlán	14	Cerro de Oro	8	Agosto	2023-09-08T00:00:00	2024-11-08T06:00:00	5	Humedad	80
165501	7	Sololá	719	Santiago Atitlán	14	Cerro de Oro	8	Agosto	2023-09-08T00:00:00	2024-11-08T06:00:00	6	Velocidad del viento	3.2
165502	7	Sololá	719	Santiago Atitlán	14	Cerro de Oro	8	Agosto	2023-09-08T00:00:00	2024-11-08T06:00:00	7	Dirección del viento	3.22
165503	7	Sololá	719	Santiago Atitlán	14	Cerro de Oro	8	Agosto	2023-09-08T00:00:00	2024-11-08T06:00:00	1	Precipitación	0
165504	7	Sololá	719	Santiago Atitlán	14	Cerro de Oro	8	Agosto	2023-09-08T00:00:00	2024-11-08T06:00:00	8	Radiación solar	1
165505	7	Sololá	719	Santiago Atitlán	14	Cerro de Oro	8	Agosto	2023-09-08T00:00:00	2024-11-08T07:00:00	2	Temperatura media	21.1
165506	7	Sololá	719	Santiago Atitlán	14	Cerro de Oro	8	Agosto	2023-09-08T00:00:00	2024-11-08T07:00:00	4	Temperatura máxima	21.3
165507	7	Sololá	719	Santiago Atitlán	14	Cerro de Oro	8	Agosto	2023-09-08T00:00:00	2024-11-08T07:00:00	3	Temperatura mínima	18.7
165508	7	Sololá	719	Santiago Atitlán	14	Cerro de Oro	8	Agosto	2023-09-08T00:00:00	2024-11-08T07:00:00	5	Humedad	77
165509	7	Sololá	719	Santiago Atitlán	14	Cerro de Oro	8	Agosto	2023-09-08T00:00:00	2024-11-08T07:00:00	6	Velocidad del viento	3.2
165510	7	Sololá	719	Santiago Atitlán	14	Cerro de Oro	8	Agosto	2023-09-08T00:00:00	2024-11-08T07:00:00	7	Dirección del viento	3.22
165511	7	Sololá	719	Santiago Atitlán	14	Cerro de Oro	8	Agosto	2023-09-08T00:00:00	2024-11-08T07:00:00	1	Precipitación	0
165512	7	Sololá	719	Santiago Atitlán	14	Cerro de Oro	8	Agosto	2023-09-08T00:00:00	2024-11-08T07:00:00	8	Radiación solar	72
165513	7	Sololá	719	Santiago Atitlán	14	Cerro de Oro	8	Agosto	2023-09-08T00:00:00	2024-11-08T08:00:00	2	Temperatura media	22.2
165514	7	Sololá	719	Santiago Atitlán	14	Cerro de Oro	8	Agosto	2023-09-08T00:00:00	2024-11-08T08:00:00	4	Temperatura máxima	22.4
165515	7	Sololá	719	Santiago Atitlán	14	Cerro de Oro	8	Agosto	2023-09-08T00:00:00	2024-11-08T08:00:00	3	Temperatura mínima	21.1
165516	7	Sololá	719	Santiago Atitlán	14	Cerro de Oro	8	Agosto	2023-09-08T00:00:00	2024-11-08T08:00:00	5	Humedad	69
165517	7	Sololá	719	Santiago Atitlán	14	Cerro de Oro	8	Agosto	2023-09-08T00:00:00	2024-11-08T08:00:00	6	Velocidad del viento	3.2
165518	7	Sololá	719	Santiago Atitlán	14	Cerro de Oro	8	Agosto	2023-09-08T00:00:00	2024-11-08T08:00:00	7	Dirección del viento	3.22
165519	7	Sololá	719	Santiago Atitlán	14	Cerro de Oro	8	Agosto	2023-09-08T00:00:00	2024-11-08T08:00:00	1	Precipitación	0
165520	7	Sololá	719	Santiago Atitlán	14	Cerro de Oro	8	Agosto	2023-09-08T00:00:00	2024-11-08T08:00:00	8	Radiación solar	345
165521	7	Sololá	719	Santiago Atitlán	14	Cerro de Oro	8	Agosto	2023-09-08T00:00:00	2024-11-08T09:00:00	2	Temperatura media	24.2
165522	7	Sololá	719	Santiago Atitlán	14	Cerro de Oro	8	Agosto	2023-09-08T00:00:00	2024-11-08T09:00:00	4	Temperatura máxima	24.2
165523	7	Sololá	719	Santiago Atitlán	14	Cerro de Oro	8	Agosto	2023-09-08T00:00:00	2024-11-08T09:00:00	3	Temperatura mínima	22.2
165524	7	Sololá	719	Santiago Atitlán	14	Cerro de Oro	8	Agosto	2023-09-08T00:00:00	2024-11-08T09:00:00	5	Humedad	58
165525	7	Sololá	719	Santiago Atitlán	14	Cerro de Oro	8	Agosto	2023-09-08T00:00:00	2024-11-08T09:00:00	6	Velocidad del viento	3.2
165526	7	Sololá	719	Santiago Atitlán	14	Cerro de Oro	8	Agosto	2023-09-08T00:00:00	2024-11-08T09:00:00	7	Dirección del viento	3.22
165527	7	Sololá	719	Santiago Atitlán	14	Cerro de Oro	8	Agosto	2023-09-08T00:00:00	2024-11-08T09:00:00	1	Precipitación	0
165528	7	Sololá	719	Santiago Atitlán	14	Cerro de Oro	8	Agosto	2023-09-08T00:00:00	2024-11-08T09:00:00	8	Radiación solar	501
165529	7	Sololá	719	Santiago Atitlán	14	Cerro de Oro	8	Agosto	2023-09-08T00:00:00	2024-11-08T10:00:00	2	Temperatura media	23.6
165530	7	Sololá	719	Santiago Atitlán	14	Cerro de Oro	8	Agosto	2023-09-08T00:00:00	2024-11-08T10:00:00	4	Temperatura máxima	24.6
165531	7	Sololá	719	Santiago Atitlán	14	Cerro de Oro	8	Agosto	2023-09-08T00:00:00	2024-11-08T10:00:00	3	Temperatura mínima	23.5
165532	7	Sololá	719	Santiago Atitlán	14	Cerro de Oro	8	Agosto	2023-09-08T00:00:00	2024-11-08T10:00:00	5	Humedad	66
165533	7	Sololá	719	Santiago Atitlán	14	Cerro de Oro	8	Agosto	2023-09-08T00:00:00	2024-11-08T10:00:00	6	Velocidad del viento	4.8
165534	7	Sololá	719	Santiago Atitlán	14	Cerro de Oro	8	Agosto	2023-09-08T00:00:00	2024-11-08T10:00:00	7	Dirección del viento	4.83
165535	7	Sololá	719	Santiago Atitlán	14	Cerro de Oro	8	Agosto	2023-09-08T00:00:00	2024-11-08T10:00:00	1	Precipitación	0
165536	7	Sololá	719	Santiago Atitlán	14	Cerro de Oro	8	Agosto	2023-09-08T00:00:00	2024-11-08T10:00:00	8	Radiación solar	749
165537	7	Sololá	719	Santiago Atitlán	14	Cerro de Oro	8	Agosto	2023-09-08T00:00:00	2024-11-08T11:00:00	2	Temperatura media	23.7
165538	7	Sololá	719	Santiago Atitlán	14	Cerro de Oro	8	Agosto	2023-09-08T00:00:00	2024-11-08T11:00:00	4	Temperatura máxima	25.2
165539	7	Sololá	719	Santiago Atitlán	14	Cerro de Oro	8	Agosto	2023-09-08T00:00:00	2024-11-08T11:00:00	3	Temperatura mínima	23.6
165540	7	Sololá	719	Santiago Atitlán	14	Cerro de Oro	8	Agosto	2023-09-08T00:00:00	2024-11-08T11:00:00	5	Humedad	68
165541	7	Sololá	719	Santiago Atitlán	14	Cerro de Oro	8	Agosto	2023-09-08T00:00:00	2024-11-08T11:00:00	6	Velocidad del viento	6.4
165542	7	Sololá	719	Santiago Atitlán	14	Cerro de Oro	8	Agosto	2023-09-08T00:00:00	2024-11-08T11:00:00	7	Dirección del viento	6.44
165543	7	Sololá	719	Santiago Atitlán	14	Cerro de Oro	8	Agosto	2023-09-08T00:00:00	2024-11-08T11:00:00	1	Precipitación	0
165544	7	Sololá	719	Santiago Atitlán	14	Cerro de Oro	8	Agosto	2023-09-08T00:00:00	2024-11-08T11:00:00	8	Radiación solar	841
165545	7	Sololá	719	Santiago Atitlán	14	Cerro de Oro	8	Agosto	2023-09-08T00:00:00	2024-11-08T12:00:00	2	Temperatura media	26.8
165546	7	Sololá	719	Santiago Atitlán	14	Cerro de Oro	8	Agosto	2023-09-08T00:00:00	2024-11-08T12:00:00	4	Temperatura máxima	26.8
165547	7	Sololá	719	Santiago Atitlán	14	Cerro de Oro	8	Agosto	2023-09-08T00:00:00	2024-11-08T12:00:00	3	Temperatura mínima	23.7
165548	7	Sololá	719	Santiago Atitlán	14	Cerro de Oro	8	Agosto	2023-09-08T00:00:00	2024-11-08T12:00:00	5	Humedad	66
165549	7	Sololá	719	Santiago Atitlán	14	Cerro de Oro	8	Agosto	2023-09-08T00:00:00	2024-11-08T12:00:00	6	Velocidad del viento	6.4
165550	7	Sololá	719	Santiago Atitlán	14	Cerro de Oro	8	Agosto	2023-09-08T00:00:00	2024-11-08T12:00:00	7	Dirección del viento	6.44
165551	7	Sololá	719	Santiago Atitlán	14	Cerro de Oro	8	Agosto	2023-09-08T00:00:00	2024-11-08T12:00:00	1	Precipitación	0
165552	7	Sololá	719	Santiago Atitlán	14	Cerro de Oro	8	Agosto	2023-09-08T00:00:00	2024-11-08T12:00:00	8	Radiación solar	911
165553	7	Sololá	719	Santiago Atitlán	14	Cerro de Oro	8	Agosto	2023-09-08T00:00:00	2024-11-08T13:00:00	2	Temperatura media	25.4
165554	7	Sololá	719	Santiago Atitlán	14	Cerro de Oro	8	Agosto	2023-09-08T00:00:00	2024-11-08T13:00:00	4	Temperatura máxima	26.8
165555	7	Sololá	719	Santiago Atitlán	14	Cerro de Oro	8	Agosto	2023-09-08T00:00:00	2024-11-08T13:00:00	3	Temperatura mínima	24.6
165556	7	Sololá	719	Santiago Atitlán	14	Cerro de Oro	8	Agosto	2023-09-08T00:00:00	2024-11-08T13:00:00	5	Humedad	71
165557	7	Sololá	719	Santiago Atitlán	14	Cerro de Oro	8	Agosto	2023-09-08T00:00:00	2024-11-08T13:00:00	6	Velocidad del viento	12.9
165558	7	Sololá	719	Santiago Atitlán	14	Cerro de Oro	8	Agosto	2023-09-08T00:00:00	2024-11-08T13:00:00	7	Dirección del viento	12.87
165559	7	Sololá	719	Santiago Atitlán	14	Cerro de Oro	8	Agosto	2023-09-08T00:00:00	2024-11-08T13:00:00	1	Precipitación	0
165560	7	Sololá	719	Santiago Atitlán	14	Cerro de Oro	8	Agosto	2023-09-08T00:00:00	2024-11-08T13:00:00	8	Radiación solar	927
165561	7	Sololá	719	Santiago Atitlán	14	Cerro de Oro	8	Agosto	2023-09-08T00:00:00	2024-11-08T14:00:00	2	Temperatura media	24.9
165562	7	Sololá	719	Santiago Atitlán	14	Cerro de Oro	8	Agosto	2023-09-08T00:00:00	2024-11-08T14:00:00	4	Temperatura máxima	25.6
165563	7	Sololá	719	Santiago Atitlán	14	Cerro de Oro	8	Agosto	2023-09-08T00:00:00	2024-11-08T14:00:00	3	Temperatura mínima	24.8
165564	7	Sololá	719	Santiago Atitlán	14	Cerro de Oro	8	Agosto	2023-09-08T00:00:00	2024-11-08T14:00:00	5	Humedad	75
165565	7	Sololá	719	Santiago Atitlán	14	Cerro de Oro	8	Agosto	2023-09-08T00:00:00	2024-11-08T14:00:00	6	Velocidad del viento	12.9
165566	7	Sololá	719	Santiago Atitlán	14	Cerro de Oro	8	Agosto	2023-09-08T00:00:00	2024-11-08T14:00:00	7	Dirección del viento	12.87
165567	7	Sololá	719	Santiago Atitlán	14	Cerro de Oro	8	Agosto	2023-09-08T00:00:00	2024-11-08T14:00:00	1	Precipitación	0
165568	7	Sololá	719	Santiago Atitlán	14	Cerro de Oro	8	Agosto	2023-09-08T00:00:00	2024-11-08T14:00:00	8	Radiación solar	873
165569	7	Sololá	719	Santiago Atitlán	14	Cerro de Oro	8	Agosto	2023-09-08T00:00:00	2024-11-08T15:00:00	2	Temperatura media	22.1
165570	7	Sololá	719	Santiago Atitlán	14	Cerro de Oro	8	Agosto	2023-09-08T00:00:00	2024-11-08T15:00:00	4	Temperatura máxima	24.9
165571	7	Sololá	719	Santiago Atitlán	14	Cerro de Oro	8	Agosto	2023-09-08T00:00:00	2024-11-08T15:00:00	3	Temperatura mínima	21.9
165572	7	Sololá	719	Santiago Atitlán	14	Cerro de Oro	8	Agosto	2023-09-08T00:00:00	2024-11-08T15:00:00	5	Humedad	84
165573	7	Sololá	719	Santiago Atitlán	14	Cerro de Oro	8	Agosto	2023-09-08T00:00:00	2024-11-08T15:00:00	6	Velocidad del viento	12.9
165574	7	Sololá	719	Santiago Atitlán	14	Cerro de Oro	8	Agosto	2023-09-08T00:00:00	2024-11-08T15:00:00	7	Dirección del viento	12.87
165575	7	Sololá	719	Santiago Atitlán	14	Cerro de Oro	8	Agosto	2023-09-08T00:00:00	2024-11-08T15:00:00	1	Precipitación	0
165576	7	Sololá	719	Santiago Atitlán	14	Cerro de Oro	8	Agosto	2023-09-08T00:00:00	2024-11-08T15:00:00	8	Radiación solar	213
165577	7	Sololá	719	Santiago Atitlán	14	Cerro de Oro	8	Agosto	2023-09-08T00:00:00	2024-11-08T16:00:00	2	Temperatura media	21.1
165578	7	Sololá	719	Santiago Atitlán	14	Cerro de Oro	8	Agosto	2023-09-08T00:00:00	2024-11-08T16:00:00	4	Temperatura máxima	22.2
165579	7	Sololá	719	Santiago Atitlán	14	Cerro de Oro	8	Agosto	2023-09-08T00:00:00	2024-11-08T16:00:00	3	Temperatura mínima	20.9
165580	7	Sololá	719	Santiago Atitlán	14	Cerro de Oro	8	Agosto	2023-09-08T00:00:00	2024-11-08T16:00:00	5	Humedad	86
165581	7	Sololá	719	Santiago Atitlán	14	Cerro de Oro	8	Agosto	2023-09-08T00:00:00	2024-11-08T16:00:00	6	Velocidad del viento	9.7
165582	7	Sololá	719	Santiago Atitlán	14	Cerro de Oro	8	Agosto	2023-09-08T00:00:00	2024-11-08T16:00:00	7	Dirección del viento	9.66
165583	7	Sololá	719	Santiago Atitlán	14	Cerro de Oro	8	Agosto	2023-09-08T00:00:00	2024-11-08T16:00:00	1	Precipitación	0
165584	7	Sololá	719	Santiago Atitlán	14	Cerro de Oro	8	Agosto	2023-09-08T00:00:00	2024-11-08T16:00:00	8	Radiación solar	132
165585	7	Sololá	719	Santiago Atitlán	14	Cerro de Oro	8	Agosto	2023-09-08T00:00:00	2024-11-08T17:00:00	2	Temperatura media	20.7
165586	7	Sololá	719	Santiago Atitlán	14	Cerro de Oro	8	Agosto	2023-09-08T00:00:00	2024-11-08T17:00:00	4	Temperatura máxima	21.4
165587	7	Sololá	719	Santiago Atitlán	14	Cerro de Oro	8	Agosto	2023-09-08T00:00:00	2024-11-08T17:00:00	3	Temperatura mínima	20.6
165588	7	Sololá	719	Santiago Atitlán	14	Cerro de Oro	8	Agosto	2023-09-08T00:00:00	2024-11-08T17:00:00	5	Humedad	85
165589	7	Sololá	719	Santiago Atitlán	14	Cerro de Oro	8	Agosto	2023-09-08T00:00:00	2024-11-08T17:00:00	6	Velocidad del viento	6.4
165590	7	Sololá	719	Santiago Atitlán	14	Cerro de Oro	8	Agosto	2023-09-08T00:00:00	2024-11-08T17:00:00	7	Dirección del viento	6.44
165591	7	Sololá	719	Santiago Atitlán	14	Cerro de Oro	8	Agosto	2023-09-08T00:00:00	2024-11-08T17:00:00	1	Precipitación	0
165592	7	Sololá	719	Santiago Atitlán	14	Cerro de Oro	8	Agosto	2023-09-08T00:00:00	2024-11-08T17:00:00	8	Radiación solar	103
165593	7	Sololá	719	Santiago Atitlán	14	Cerro de Oro	8	Agosto	2023-09-08T00:00:00	2024-11-08T18:00:00	2	Temperatura media	21.5
165594	7	Sololá	719	Santiago Atitlán	14	Cerro de Oro	8	Agosto	2023-09-08T00:00:00	2024-11-08T18:00:00	4	Temperatura máxima	21.5
165595	7	Sololá	719	Santiago Atitlán	14	Cerro de Oro	8	Agosto	2023-09-08T00:00:00	2024-11-08T18:00:00	3	Temperatura mínima	20.7
165596	7	Sololá	719	Santiago Atitlán	14	Cerro de Oro	8	Agosto	2023-09-08T00:00:00	2024-11-08T18:00:00	5	Humedad	80
165597	7	Sololá	719	Santiago Atitlán	14	Cerro de Oro	8	Agosto	2023-09-08T00:00:00	2024-11-08T18:00:00	6	Velocidad del viento	1.6
165598	7	Sololá	719	Santiago Atitlán	14	Cerro de Oro	8	Agosto	2023-09-08T00:00:00	2024-11-08T18:00:00	7	Dirección del viento	1.61
165599	7	Sololá	719	Santiago Atitlán	14	Cerro de Oro	8	Agosto	2023-09-08T00:00:00	2024-11-08T18:00:00	1	Precipitación	0
165600	7	Sololá	719	Santiago Atitlán	14	Cerro de Oro	8	Agosto	2023-09-08T00:00:00	2024-11-08T18:00:00	8	Radiación solar	63
165601	7	Sololá	719	Santiago Atitlán	14	Cerro de Oro	8	Agosto	2023-09-08T00:00:00	2024-11-08T19:00:00	2	Temperatura media	20.4
165602	7	Sololá	719	Santiago Atitlán	14	Cerro de Oro	8	Agosto	2023-09-08T00:00:00	2024-11-08T19:00:00	4	Temperatura máxima	21.6
165603	7	Sololá	719	Santiago Atitlán	14	Cerro de Oro	8	Agosto	2023-09-08T00:00:00	2024-11-08T19:00:00	3	Temperatura mínima	20.1
165604	7	Sololá	719	Santiago Atitlán	14	Cerro de Oro	8	Agosto	2023-09-08T00:00:00	2024-11-08T19:00:00	5	Humedad	81
165605	7	Sololá	719	Santiago Atitlán	14	Cerro de Oro	8	Agosto	2023-09-08T00:00:00	2024-11-08T19:00:00	6	Velocidad del viento	6.4
165606	7	Sololá	719	Santiago Atitlán	14	Cerro de Oro	8	Agosto	2023-09-08T00:00:00	2024-11-08T19:00:00	7	Dirección del viento	6.44
165607	7	Sololá	719	Santiago Atitlán	14	Cerro de Oro	8	Agosto	2023-09-08T00:00:00	2024-11-08T19:00:00	1	Precipitación	0
165608	7	Sololá	719	Santiago Atitlán	14	Cerro de Oro	8	Agosto	2023-09-08T00:00:00	2024-11-08T19:00:00	8	Radiación solar	0
165609	7	Sololá	719	Santiago Atitlán	14	Cerro de Oro	8	Agosto	2023-09-08T00:00:00	2024-11-08T20:00:00	2	Temperatura media	19.8
165610	7	Sololá	719	Santiago Atitlán	14	Cerro de Oro	8	Agosto	2023-09-08T00:00:00	2024-11-08T20:00:00	4	Temperatura máxima	20.6
165611	7	Sololá	719	Santiago Atitlán	14	Cerro de Oro	8	Agosto	2023-09-08T00:00:00	2024-11-08T20:00:00	3	Temperatura mínima	19.7
165612	7	Sololá	719	Santiago Atitlán	14	Cerro de Oro	8	Agosto	2023-09-08T00:00:00	2024-11-08T20:00:00	5	Humedad	85
165613	7	Sololá	719	Santiago Atitlán	14	Cerro de Oro	8	Agosto	2023-09-08T00:00:00	2024-11-08T20:00:00	6	Velocidad del viento	4.8
165614	7	Sololá	719	Santiago Atitlán	14	Cerro de Oro	8	Agosto	2023-09-08T00:00:00	2024-11-08T20:00:00	7	Dirección del viento	4.83
165615	7	Sololá	719	Santiago Atitlán	14	Cerro de Oro	8	Agosto	2023-09-08T00:00:00	2024-11-08T20:00:00	1	Precipitación	0
165616	7	Sololá	719	Santiago Atitlán	14	Cerro de Oro	8	Agosto	2023-09-08T00:00:00	2024-11-08T20:00:00	8	Radiación solar	0
165617	7	Sololá	719	Santiago Atitlán	14	Cerro de Oro	8	Agosto	2023-09-08T00:00:00	2024-11-08T21:00:00	2	Temperatura media	19.7
165618	7	Sololá	719	Santiago Atitlán	14	Cerro de Oro	8	Agosto	2023-09-08T00:00:00	2024-11-08T21:00:00	4	Temperatura máxima	19.9
165619	7	Sololá	719	Santiago Atitlán	14	Cerro de Oro	8	Agosto	2023-09-08T00:00:00	2024-11-08T21:00:00	3	Temperatura mínima	19.5
165620	7	Sololá	719	Santiago Atitlán	14	Cerro de Oro	8	Agosto	2023-09-08T00:00:00	2024-11-08T21:00:00	5	Humedad	86
165621	7	Sololá	719	Santiago Atitlán	14	Cerro de Oro	8	Agosto	2023-09-08T00:00:00	2024-11-08T21:00:00	6	Velocidad del viento	3.2
165622	7	Sololá	719	Santiago Atitlán	14	Cerro de Oro	8	Agosto	2023-09-08T00:00:00	2024-11-08T21:00:00	7	Dirección del viento	3.22
165623	7	Sololá	719	Santiago Atitlán	14	Cerro de Oro	8	Agosto	2023-09-08T00:00:00	2024-11-08T21:00:00	1	Precipitación	0
165624	7	Sololá	719	Santiago Atitlán	14	Cerro de Oro	8	Agosto	2023-09-08T00:00:00	2024-11-08T21:00:00	8	Radiación solar	0
165625	7	Sololá	719	Santiago Atitlán	14	Cerro de Oro	8	Agosto	2023-09-08T00:00:00	2024-11-08T22:00:00	2	Temperatura media	19.4
165626	7	Sololá	719	Santiago Atitlán	14	Cerro de Oro	8	Agosto	2023-09-08T00:00:00	2024-11-08T22:00:00	4	Temperatura máxima	19.8
165627	7	Sololá	719	Santiago Atitlán	14	Cerro de Oro	8	Agosto	2023-09-08T00:00:00	2024-11-08T22:00:00	3	Temperatura mínima	19.4
165628	7	Sololá	719	Santiago Atitlán	14	Cerro de Oro	8	Agosto	2023-09-08T00:00:00	2024-11-08T22:00:00	5	Humedad	89
165629	7	Sololá	719	Santiago Atitlán	14	Cerro de Oro	8	Agosto	2023-09-08T00:00:00	2024-11-08T22:00:00	6	Velocidad del viento	3.2
165630	7	Sololá	719	Santiago Atitlán	14	Cerro de Oro	8	Agosto	2023-09-08T00:00:00	2024-11-08T22:00:00	7	Dirección del viento	3.22
165631	7	Sololá	719	Santiago Atitlán	14	Cerro de Oro	8	Agosto	2023-09-08T00:00:00	2024-11-08T22:00:00	1	Precipitación	0
165632	7	Sololá	719	Santiago Atitlán	14	Cerro de Oro	8	Agosto	2023-09-08T00:00:00	2024-11-08T22:00:00	8	Radiación solar	0
165633	7	Sololá	719	Santiago Atitlán	14	Cerro de Oro	8	Agosto	2023-09-08T00:00:00	2024-11-08T23:00:00	2	Temperatura media	19.3
165634	7	Sololá	719	Santiago Atitlán	14	Cerro de Oro	8	Agosto	2023-09-08T00:00:00	2024-11-08T23:00:00	4	Temperatura máxima	19.6
165635	7	Sololá	719	Santiago Atitlán	14	Cerro de Oro	8	Agosto	2023-09-08T00:00:00	2024-11-08T23:00:00	3	Temperatura mínima	19.2
165636	7	Sololá	719	Santiago Atitlán	14	Cerro de Oro	8	Agosto	2023-09-08T00:00:00	2024-11-08T23:00:00	5	Humedad	86
165637	7	Sololá	719	Santiago Atitlán	14	Cerro de Oro	8	Agosto	2023-09-08T00:00:00	2024-11-08T23:00:00	6	Velocidad del viento	4.8
165638	7	Sololá	719	Santiago Atitlán	14	Cerro de Oro	8	Agosto	2023-09-08T00:00:00	2024-11-08T23:00:00	7	Dirección del viento	4.83
165639	7	Sololá	719	Santiago Atitlán	14	Cerro de Oro	8	Agosto	2023-09-08T00:00:00	2024-11-08T23:00:00	1	Precipitación	0
165640	7	Sololá	719	Santiago Atitlán	14	Cerro de Oro	8	Agosto	2023-09-08T00:00:00	2024-11-08T23:00:00	8	Radiación solar	0
165641	7	Sololá	719	Santiago Atitlán	14	Cerro de Oro	8	Agosto	2023-10-08T00:00:00	2024-11-08T00:00:00	2	Temperatura media	19.5
165642	7	Sololá	719	Santiago Atitlán	14	Cerro de Oro	8	Agosto	2023-10-08T00:00:00	2024-11-08T00:00:00	4	Temperatura máxima	19.5
165643	7	Sololá	719	Santiago Atitlán	14	Cerro de Oro	8	Agosto	2023-10-08T00:00:00	2024-11-08T00:00:00	3	Temperatura mínima	19.2
165644	7	Sololá	719	Santiago Atitlán	14	Cerro de Oro	8	Agosto	2023-10-08T00:00:00	2024-11-08T00:00:00	5	Humedad	86
165645	7	Sololá	719	Santiago Atitlán	14	Cerro de Oro	8	Agosto	2023-10-08T00:00:00	2024-11-08T00:00:00	6	Velocidad del viento	3.2
165646	7	Sololá	719	Santiago Atitlán	14	Cerro de Oro	8	Agosto	2023-10-08T00:00:00	2024-11-08T00:00:00	7	Dirección del viento	3.22
165647	7	Sololá	719	Santiago Atitlán	14	Cerro de Oro	8	Agosto	2023-10-08T00:00:00	2024-11-08T00:00:00	1	Precipitación	0
165648	7	Sololá	719	Santiago Atitlán	14	Cerro de Oro	8	Agosto	2023-10-08T00:00:00	2024-11-08T00:00:00	8	Radiación solar	0
165649	7	Sololá	719	Santiago Atitlán	14	Cerro de Oro	8	Agosto	2023-10-08T00:00:00	2024-11-08T01:00:00	2	Temperatura media	19.5
165650	7	Sololá	719	Santiago Atitlán	14	Cerro de Oro	8	Agosto	2023-10-08T00:00:00	2024-11-08T01:00:00	4	Temperatura máxima	19.5
165651	7	Sololá	719	Santiago Atitlán	14	Cerro de Oro	8	Agosto	2023-10-08T00:00:00	2024-11-08T01:00:00	3	Temperatura mínima	19.2
165652	7	Sololá	719	Santiago Atitlán	14	Cerro de Oro	8	Agosto	2023-10-08T00:00:00	2024-11-08T01:00:00	5	Humedad	81
165653	7	Sololá	719	Santiago Atitlán	14	Cerro de Oro	8	Agosto	2023-10-08T00:00:00	2024-11-08T01:00:00	6	Velocidad del viento	4.8
165654	7	Sololá	719	Santiago Atitlán	14	Cerro de Oro	8	Agosto	2023-10-08T00:00:00	2024-11-08T01:00:00	7	Dirección del viento	4.83
165655	7	Sololá	719	Santiago Atitlán	14	Cerro de Oro	8	Agosto	2023-10-08T00:00:00	2024-11-08T01:00:00	1	Precipitación	0
165656	7	Sololá	719	Santiago Atitlán	14	Cerro de Oro	8	Agosto	2023-10-08T00:00:00	2024-11-08T01:00:00	8	Radiación solar	0
165657	7	Sololá	719	Santiago Atitlán	14	Cerro de Oro	8	Agosto	2023-10-08T00:00:00	2024-11-08T02:00:00	2	Temperatura media	18.9
165658	7	Sololá	719	Santiago Atitlán	14	Cerro de Oro	8	Agosto	2023-10-08T00:00:00	2024-11-08T02:00:00	4	Temperatura máxima	19.5
165659	7	Sololá	719	Santiago Atitlán	14	Cerro de Oro	8	Agosto	2023-10-08T00:00:00	2024-11-08T02:00:00	3	Temperatura mínima	18.7
165660	7	Sololá	719	Santiago Atitlán	14	Cerro de Oro	8	Agosto	2023-10-08T00:00:00	2024-11-08T02:00:00	5	Humedad	85
165661	7	Sololá	719	Santiago Atitlán	14	Cerro de Oro	8	Agosto	2023-10-08T00:00:00	2024-11-08T02:00:00	6	Velocidad del viento	4.8
165662	7	Sololá	719	Santiago Atitlán	14	Cerro de Oro	8	Agosto	2023-10-08T00:00:00	2024-11-08T02:00:00	7	Dirección del viento	4.83
165663	7	Sololá	719	Santiago Atitlán	14	Cerro de Oro	8	Agosto	2023-10-08T00:00:00	2024-11-08T02:00:00	1	Precipitación	0
165664	7	Sololá	719	Santiago Atitlán	14	Cerro de Oro	8	Agosto	2023-10-08T00:00:00	2024-11-08T02:00:00	8	Radiación solar	0
165665	7	Sololá	719	Santiago Atitlán	14	Cerro de Oro	8	Agosto	2023-10-08T00:00:00	2024-11-08T03:00:00	2	Temperatura media	18.6
165666	7	Sololá	719	Santiago Atitlán	14	Cerro de Oro	8	Agosto	2023-10-08T00:00:00	2024-11-08T03:00:00	4	Temperatura máxima	19.1
165667	7	Sololá	719	Santiago Atitlán	14	Cerro de Oro	8	Agosto	2023-10-08T00:00:00	2024-11-08T03:00:00	3	Temperatura mínima	18.6
165668	7	Sololá	719	Santiago Atitlán	14	Cerro de Oro	8	Agosto	2023-10-08T00:00:00	2024-11-08T03:00:00	5	Humedad	84
165669	7	Sololá	719	Santiago Atitlán	14	Cerro de Oro	8	Agosto	2023-10-08T00:00:00	2024-11-08T03:00:00	6	Velocidad del viento	3.2
165670	7	Sololá	719	Santiago Atitlán	14	Cerro de Oro	8	Agosto	2023-10-08T00:00:00	2024-11-08T03:00:00	7	Dirección del viento	3.22
165671	7	Sololá	719	Santiago Atitlán	14	Cerro de Oro	8	Agosto	2023-10-08T00:00:00	2024-11-08T03:00:00	1	Precipitación	0
165672	7	Sololá	719	Santiago Atitlán	14	Cerro de Oro	8	Agosto	2023-10-08T00:00:00	2024-11-08T03:00:00	8	Radiación solar	0
165673	7	Sololá	719	Santiago Atitlán	14	Cerro de Oro	8	Agosto	2023-10-08T00:00:00	2024-11-08T04:00:00	2	Temperatura media	18.8
165674	7	Sololá	719	Santiago Atitlán	14	Cerro de Oro	8	Agosto	2023-10-08T00:00:00	2024-11-08T04:00:00	4	Temperatura máxima	18.9
165675	7	Sololá	719	Santiago Atitlán	14	Cerro de Oro	8	Agosto	2023-10-08T00:00:00	2024-11-08T04:00:00	3	Temperatura mínima	18.6
165676	7	Sololá	719	Santiago Atitlán	14	Cerro de Oro	8	Agosto	2023-10-08T00:00:00	2024-11-08T04:00:00	5	Humedad	83
165677	7	Sololá	719	Santiago Atitlán	14	Cerro de Oro	8	Agosto	2023-10-08T00:00:00	2024-11-08T04:00:00	6	Velocidad del viento	3.2
165678	7	Sololá	719	Santiago Atitlán	14	Cerro de Oro	8	Agosto	2023-10-08T00:00:00	2024-11-08T04:00:00	7	Dirección del viento	3.22
165679	7	Sololá	719	Santiago Atitlán	14	Cerro de Oro	8	Agosto	2023-10-08T00:00:00	2024-11-08T04:00:00	1	Precipitación	0
165680	7	Sololá	719	Santiago Atitlán	14	Cerro de Oro	8	Agosto	2023-10-08T00:00:00	2024-11-08T04:00:00	8	Radiación solar	0
165681	7	Sololá	719	Santiago Atitlán	14	Cerro de Oro	8	Agosto	2023-10-08T00:00:00	2024-11-08T05:00:00	2	Temperatura media	19.1
165682	7	Sololá	719	Santiago Atitlán	14	Cerro de Oro	8	Agosto	2023-10-08T00:00:00	2024-11-08T05:00:00	4	Temperatura máxima	19.2
165683	7	Sololá	719	Santiago Atitlán	14	Cerro de Oro	8	Agosto	2023-10-08T00:00:00	2024-11-08T05:00:00	3	Temperatura mínima	18.8
165684	7	Sololá	719	Santiago Atitlán	14	Cerro de Oro	8	Agosto	2023-10-08T00:00:00	2024-11-08T05:00:00	5	Humedad	84
165685	7	Sololá	719	Santiago Atitlán	14	Cerro de Oro	8	Agosto	2023-10-08T00:00:00	2024-11-08T05:00:00	6	Velocidad del viento	4.8
165686	7	Sololá	719	Santiago Atitlán	14	Cerro de Oro	8	Agosto	2023-10-08T00:00:00	2024-11-08T05:00:00	7	Dirección del viento	4.83
165687	7	Sololá	719	Santiago Atitlán	14	Cerro de Oro	8	Agosto	2023-10-08T00:00:00	2024-11-08T05:00:00	1	Precipitación	0
165688	7	Sololá	719	Santiago Atitlán	14	Cerro de Oro	8	Agosto	2023-10-08T00:00:00	2024-11-08T05:00:00	8	Radiación solar	0
165689	7	Sololá	719	Santiago Atitlán	14	Cerro de Oro	8	Agosto	2023-10-08T00:00:00	2024-11-08T06:00:00	2	Temperatura media	18.6
165690	7	Sololá	719	Santiago Atitlán	14	Cerro de Oro	8	Agosto	2023-10-08T00:00:00	2024-11-08T06:00:00	4	Temperatura máxima	19.2
165691	7	Sololá	719	Santiago Atitlán	14	Cerro de Oro	8	Agosto	2023-10-08T00:00:00	2024-11-08T06:00:00	3	Temperatura mínima	18.3
165692	7	Sololá	719	Santiago Atitlán	14	Cerro de Oro	8	Agosto	2023-10-08T00:00:00	2024-11-08T06:00:00	5	Humedad	86
165693	7	Sololá	719	Santiago Atitlán	14	Cerro de Oro	8	Agosto	2023-10-08T00:00:00	2024-11-08T06:00:00	6	Velocidad del viento	3.2
165694	7	Sololá	719	Santiago Atitlán	14	Cerro de Oro	8	Agosto	2023-10-08T00:00:00	2024-11-08T06:00:00	7	Dirección del viento	3.22
165695	7	Sololá	719	Santiago Atitlán	14	Cerro de Oro	8	Agosto	2023-10-08T00:00:00	2024-11-08T06:00:00	1	Precipitación	0
165696	7	Sololá	719	Santiago Atitlán	14	Cerro de Oro	8	Agosto	2023-10-08T00:00:00	2024-11-08T06:00:00	8	Radiación solar	1
165697	7	Sololá	719	Santiago Atitlán	14	Cerro de Oro	8	Agosto	2023-10-08T00:00:00	2024-11-08T07:00:00	2	Temperatura media	20.9
165698	7	Sololá	719	Santiago Atitlán	14	Cerro de Oro	8	Agosto	2023-10-08T00:00:00	2024-11-08T07:00:00	4	Temperatura máxima	21
165699	7	Sololá	719	Santiago Atitlán	14	Cerro de Oro	8	Agosto	2023-10-08T00:00:00	2024-11-08T07:00:00	3	Temperatura mínima	18.5
165700	7	Sololá	719	Santiago Atitlán	14	Cerro de Oro	8	Agosto	2023-10-08T00:00:00	2024-11-08T07:00:00	5	Humedad	78
165701	7	Sololá	719	Santiago Atitlán	14	Cerro de Oro	8	Agosto	2023-10-08T00:00:00	2024-11-08T07:00:00	6	Velocidad del viento	3.2
165702	7	Sololá	719	Santiago Atitlán	14	Cerro de Oro	8	Agosto	2023-10-08T00:00:00	2024-11-08T07:00:00	7	Dirección del viento	3.22
165703	7	Sololá	719	Santiago Atitlán	14	Cerro de Oro	8	Agosto	2023-10-08T00:00:00	2024-11-08T07:00:00	1	Precipitación	0
165704	7	Sololá	719	Santiago Atitlán	14	Cerro de Oro	8	Agosto	2023-10-08T00:00:00	2024-11-08T07:00:00	8	Radiación solar	85
165705	7	Sololá	719	Santiago Atitlán	14	Cerro de Oro	8	Agosto	2023-10-08T00:00:00	2024-11-08T08:00:00	2	Temperatura media	22
165706	7	Sololá	719	Santiago Atitlán	14	Cerro de Oro	8	Agosto	2023-10-08T00:00:00	2024-11-08T08:00:00	4	Temperatura máxima	22
165707	7	Sololá	719	Santiago Atitlán	14	Cerro de Oro	8	Agosto	2023-10-08T00:00:00	2024-11-08T08:00:00	3	Temperatura mínima	20.8
165708	7	Sololá	719	Santiago Atitlán	14	Cerro de Oro	8	Agosto	2023-10-08T00:00:00	2024-11-08T08:00:00	5	Humedad	78
165709	7	Sololá	719	Santiago Atitlán	14	Cerro de Oro	8	Agosto	2023-10-08T00:00:00	2024-11-08T08:00:00	6	Velocidad del viento	3.2
165710	7	Sololá	719	Santiago Atitlán	14	Cerro de Oro	8	Agosto	2023-10-08T00:00:00	2024-11-08T08:00:00	7	Dirección del viento	3.22
165711	7	Sololá	719	Santiago Atitlán	14	Cerro de Oro	8	Agosto	2023-10-08T00:00:00	2024-11-08T08:00:00	1	Precipitación	0
165712	7	Sololá	719	Santiago Atitlán	14	Cerro de Oro	8	Agosto	2023-10-08T00:00:00	2024-11-08T08:00:00	8	Radiación solar	284
165713	7	Sololá	719	Santiago Atitlán	14	Cerro de Oro	8	Agosto	2023-10-08T00:00:00	2024-11-08T09:00:00	2	Temperatura media	22.7
165714	7	Sololá	719	Santiago Atitlán	14	Cerro de Oro	8	Agosto	2023-10-08T00:00:00	2024-11-08T09:00:00	4	Temperatura máxima	22.8
165715	7	Sololá	719	Santiago Atitlán	14	Cerro de Oro	8	Agosto	2023-10-08T00:00:00	2024-11-08T09:00:00	3	Temperatura mínima	21.9
165716	7	Sololá	719	Santiago Atitlán	14	Cerro de Oro	8	Agosto	2023-10-08T00:00:00	2024-11-08T09:00:00	5	Humedad	75
165717	7	Sololá	719	Santiago Atitlán	14	Cerro de Oro	8	Agosto	2023-10-08T00:00:00	2024-11-08T09:00:00	6	Velocidad del viento	3.2
165718	7	Sololá	719	Santiago Atitlán	14	Cerro de Oro	8	Agosto	2023-10-08T00:00:00	2024-11-08T09:00:00	7	Dirección del viento	3.22
165719	7	Sololá	719	Santiago Atitlán	14	Cerro de Oro	8	Agosto	2023-10-08T00:00:00	2024-11-08T09:00:00	1	Precipitación	0
165720	7	Sololá	719	Santiago Atitlán	14	Cerro de Oro	8	Agosto	2023-10-08T00:00:00	2024-11-08T09:00:00	8	Radiación solar	503
165721	7	Sololá	719	Santiago Atitlán	14	Cerro de Oro	8	Agosto	2023-10-08T00:00:00	2024-11-08T10:00:00	2	Temperatura media	23.4
165722	7	Sololá	719	Santiago Atitlán	14	Cerro de Oro	8	Agosto	2023-10-08T00:00:00	2024-11-08T10:00:00	4	Temperatura máxima	23.5
165723	7	Sololá	719	Santiago Atitlán	14	Cerro de Oro	8	Agosto	2023-10-08T00:00:00	2024-11-08T10:00:00	3	Temperatura mínima	22.2
165724	7	Sololá	719	Santiago Atitlán	14	Cerro de Oro	8	Agosto	2023-10-08T00:00:00	2024-11-08T10:00:00	5	Humedad	73
165725	7	Sololá	719	Santiago Atitlán	14	Cerro de Oro	8	Agosto	2023-10-08T00:00:00	2024-11-08T10:00:00	6	Velocidad del viento	4.8
165726	7	Sololá	719	Santiago Atitlán	14	Cerro de Oro	8	Agosto	2023-10-08T00:00:00	2024-11-08T10:00:00	7	Dirección del viento	4.83
165727	7	Sololá	719	Santiago Atitlán	14	Cerro de Oro	8	Agosto	2023-10-08T00:00:00	2024-11-08T10:00:00	1	Precipitación	0
165728	7	Sololá	719	Santiago Atitlán	14	Cerro de Oro	8	Agosto	2023-10-08T00:00:00	2024-11-08T10:00:00	8	Radiación solar	674
165729	7	Sololá	719	Santiago Atitlán	14	Cerro de Oro	8	Agosto	2023-10-08T00:00:00	2024-11-08T11:00:00	2	Temperatura media	24.3
165730	7	Sololá	719	Santiago Atitlán	14	Cerro de Oro	8	Agosto	2023-10-08T00:00:00	2024-11-08T11:00:00	4	Temperatura máxima	24.3
165731	7	Sololá	719	Santiago Atitlán	14	Cerro de Oro	8	Agosto	2023-10-08T00:00:00	2024-11-08T11:00:00	3	Temperatura mínima	23.3
165732	7	Sololá	719	Santiago Atitlán	14	Cerro de Oro	8	Agosto	2023-10-08T00:00:00	2024-11-08T11:00:00	5	Humedad	75
165733	7	Sololá	719	Santiago Atitlán	14	Cerro de Oro	8	Agosto	2023-10-08T00:00:00	2024-11-08T11:00:00	6	Velocidad del viento	6.4
165734	7	Sololá	719	Santiago Atitlán	14	Cerro de Oro	8	Agosto	2023-10-08T00:00:00	2024-11-08T11:00:00	7	Dirección del viento	6.44
165735	7	Sololá	719	Santiago Atitlán	14	Cerro de Oro	8	Agosto	2023-10-08T00:00:00	2024-11-08T11:00:00	1	Precipitación	0
165736	7	Sololá	719	Santiago Atitlán	14	Cerro de Oro	8	Agosto	2023-10-08T00:00:00	2024-11-08T11:00:00	8	Radiación solar	826
165737	7	Sololá	719	Santiago Atitlán	14	Cerro de Oro	8	Agosto	2023-10-08T00:00:00	2024-11-08T12:00:00	2	Temperatura media	24.4
165738	7	Sololá	719	Santiago Atitlán	14	Cerro de Oro	8	Agosto	2023-10-08T00:00:00	2024-11-08T12:00:00	4	Temperatura máxima	25.3
165739	7	Sololá	719	Santiago Atitlán	14	Cerro de Oro	8	Agosto	2023-10-08T00:00:00	2024-11-08T12:00:00	3	Temperatura mínima	24.3
165740	7	Sololá	719	Santiago Atitlán	14	Cerro de Oro	8	Agosto	2023-10-08T00:00:00	2024-11-08T12:00:00	5	Humedad	76
165741	7	Sololá	719	Santiago Atitlán	14	Cerro de Oro	8	Agosto	2023-10-08T00:00:00	2024-11-08T12:00:00	6	Velocidad del viento	11.3
165742	7	Sololá	719	Santiago Atitlán	14	Cerro de Oro	8	Agosto	2023-10-08T00:00:00	2024-11-08T12:00:00	7	Dirección del viento	11.27
165743	7	Sololá	719	Santiago Atitlán	14	Cerro de Oro	8	Agosto	2023-10-08T00:00:00	2024-11-08T12:00:00	1	Precipitación	0
165744	7	Sololá	719	Santiago Atitlán	14	Cerro de Oro	8	Agosto	2023-10-08T00:00:00	2024-11-08T12:00:00	8	Radiación solar	949
165745	7	Sololá	719	Santiago Atitlán	14	Cerro de Oro	8	Agosto	2023-10-08T00:00:00	2024-11-08T13:00:00	2	Temperatura media	23.8
165746	7	Sololá	719	Santiago Atitlán	14	Cerro de Oro	8	Agosto	2023-10-08T00:00:00	2024-11-08T13:00:00	4	Temperatura máxima	25.5
165747	7	Sololá	719	Santiago Atitlán	14	Cerro de Oro	8	Agosto	2023-10-08T00:00:00	2024-11-08T13:00:00	3	Temperatura mínima	23.8
165748	7	Sololá	719	Santiago Atitlán	14	Cerro de Oro	8	Agosto	2023-10-08T00:00:00	2024-11-08T13:00:00	5	Humedad	76
165749	7	Sololá	719	Santiago Atitlán	14	Cerro de Oro	8	Agosto	2023-10-08T00:00:00	2024-11-08T13:00:00	6	Velocidad del viento	12.9
165750	7	Sololá	719	Santiago Atitlán	14	Cerro de Oro	8	Agosto	2023-10-08T00:00:00	2024-11-08T13:00:00	7	Dirección del viento	12.87
165751	7	Sololá	719	Santiago Atitlán	14	Cerro de Oro	8	Agosto	2023-10-08T00:00:00	2024-11-08T13:00:00	1	Precipitación	0
165752	7	Sololá	719	Santiago Atitlán	14	Cerro de Oro	8	Agosto	2023-10-08T00:00:00	2024-11-08T13:00:00	8	Radiación solar	793
165753	7	Sololá	719	Santiago Atitlán	14	Cerro de Oro	8	Agosto	2023-10-08T00:00:00	2024-11-08T14:00:00	2	Temperatura media	23
165754	7	Sololá	719	Santiago Atitlán	14	Cerro de Oro	8	Agosto	2023-10-08T00:00:00	2024-11-08T14:00:00	4	Temperatura máxima	23.8
165755	7	Sololá	719	Santiago Atitlán	14	Cerro de Oro	8	Agosto	2023-10-08T00:00:00	2024-11-08T14:00:00	3	Temperatura mínima	22.8
165756	7	Sololá	719	Santiago Atitlán	14	Cerro de Oro	8	Agosto	2023-10-08T00:00:00	2024-11-08T14:00:00	5	Humedad	81
165757	7	Sololá	719	Santiago Atitlán	14	Cerro de Oro	8	Agosto	2023-10-08T00:00:00	2024-11-08T14:00:00	6	Velocidad del viento	9.7
165758	7	Sololá	719	Santiago Atitlán	14	Cerro de Oro	8	Agosto	2023-10-08T00:00:00	2024-11-08T14:00:00	7	Dirección del viento	9.66
165759	7	Sololá	719	Santiago Atitlán	14	Cerro de Oro	8	Agosto	2023-10-08T00:00:00	2024-11-08T14:00:00	1	Precipitación	0
165760	7	Sololá	719	Santiago Atitlán	14	Cerro de Oro	8	Agosto	2023-10-08T00:00:00	2024-11-08T14:00:00	8	Radiación solar	174
165761	7	Sololá	719	Santiago Atitlán	14	Cerro de Oro	8	Agosto	2023-10-08T00:00:00	2024-11-08T15:00:00	2	Temperatura media	22.2
165762	7	Sololá	719	Santiago Atitlán	14	Cerro de Oro	8	Agosto	2023-10-08T00:00:00	2024-11-08T15:00:00	4	Temperatura máxima	22.9
165763	7	Sololá	719	Santiago Atitlán	14	Cerro de Oro	8	Agosto	2023-10-08T00:00:00	2024-11-08T15:00:00	3	Temperatura mínima	22.1
165764	7	Sololá	719	Santiago Atitlán	14	Cerro de Oro	8	Agosto	2023-10-08T00:00:00	2024-11-08T15:00:00	5	Humedad	83
165765	7	Sololá	719	Santiago Atitlán	14	Cerro de Oro	8	Agosto	2023-10-08T00:00:00	2024-11-08T15:00:00	6	Velocidad del viento	8
165766	7	Sololá	719	Santiago Atitlán	14	Cerro de Oro	8	Agosto	2023-10-08T00:00:00	2024-11-08T15:00:00	7	Dirección del viento	8.05
165767	7	Sololá	719	Santiago Atitlán	14	Cerro de Oro	8	Agosto	2023-10-08T00:00:00	2024-11-08T15:00:00	1	Precipitación	0
165768	7	Sololá	719	Santiago Atitlán	14	Cerro de Oro	8	Agosto	2023-10-08T00:00:00	2024-11-08T15:00:00	8	Radiación solar	128
165769	7	Sololá	719	Santiago Atitlán	14	Cerro de Oro	8	Agosto	2023-10-08T00:00:00	2024-11-08T16:00:00	2	Temperatura media	22.9
165770	7	Sololá	719	Santiago Atitlán	14	Cerro de Oro	8	Agosto	2023-10-08T00:00:00	2024-11-08T16:00:00	4	Temperatura máxima	22.9
165771	7	Sololá	719	Santiago Atitlán	14	Cerro de Oro	8	Agosto	2023-10-08T00:00:00	2024-11-08T16:00:00	3	Temperatura mínima	22.2
165772	7	Sololá	719	Santiago Atitlán	14	Cerro de Oro	8	Agosto	2023-10-08T00:00:00	2024-11-08T16:00:00	5	Humedad	79
165773	7	Sololá	719	Santiago Atitlán	14	Cerro de Oro	8	Agosto	2023-10-08T00:00:00	2024-11-08T16:00:00	6	Velocidad del viento	4.8
165774	7	Sololá	719	Santiago Atitlán	14	Cerro de Oro	8	Agosto	2023-10-08T00:00:00	2024-11-08T16:00:00	7	Dirección del viento	4.83
165775	7	Sololá	719	Santiago Atitlán	14	Cerro de Oro	8	Agosto	2023-10-08T00:00:00	2024-11-08T16:00:00	1	Precipitación	0
165776	7	Sololá	719	Santiago Atitlán	14	Cerro de Oro	8	Agosto	2023-10-08T00:00:00	2024-11-08T16:00:00	8	Radiación solar	160
165777	7	Sololá	719	Santiago Atitlán	14	Cerro de Oro	8	Agosto	2023-10-08T00:00:00	2024-11-08T17:00:00	2	Temperatura media	22.7
165778	7	Sololá	719	Santiago Atitlán	14	Cerro de Oro	8	Agosto	2023-10-08T00:00:00	2024-11-08T17:00:00	4	Temperatura máxima	22.9
165779	7	Sololá	719	Santiago Atitlán	14	Cerro de Oro	8	Agosto	2023-10-08T00:00:00	2024-11-08T17:00:00	3	Temperatura mínima	22.5
165780	7	Sololá	719	Santiago Atitlán	14	Cerro de Oro	8	Agosto	2023-10-08T00:00:00	2024-11-08T17:00:00	5	Humedad	77
165781	7	Sololá	719	Santiago Atitlán	14	Cerro de Oro	8	Agosto	2023-10-08T00:00:00	2024-11-08T17:00:00	6	Velocidad del viento	3.2
165782	7	Sololá	719	Santiago Atitlán	14	Cerro de Oro	8	Agosto	2023-10-08T00:00:00	2024-11-08T17:00:00	7	Dirección del viento	3.22
165783	7	Sololá	719	Santiago Atitlán	14	Cerro de Oro	8	Agosto	2023-10-08T00:00:00	2024-11-08T17:00:00	1	Precipitación	0
165784	7	Sololá	719	Santiago Atitlán	14	Cerro de Oro	8	Agosto	2023-10-08T00:00:00	2024-11-08T17:00:00	8	Radiación solar	119
165785	7	Sololá	719	Santiago Atitlán	14	Cerro de Oro	8	Agosto	2023-10-08T00:00:00	2024-11-08T18:00:00	2	Temperatura media	23.6
165786	7	Sololá	719	Santiago Atitlán	14	Cerro de Oro	8	Agosto	2023-10-08T00:00:00	2024-11-08T18:00:00	4	Temperatura máxima	23.6
165787	7	Sololá	719	Santiago Atitlán	14	Cerro de Oro	8	Agosto	2023-10-08T00:00:00	2024-11-08T18:00:00	3	Temperatura mínima	22.6
165788	7	Sololá	719	Santiago Atitlán	14	Cerro de Oro	8	Agosto	2023-10-08T00:00:00	2024-11-08T18:00:00	5	Humedad	68
165789	7	Sololá	719	Santiago Atitlán	14	Cerro de Oro	8	Agosto	2023-10-08T00:00:00	2024-11-08T18:00:00	6	Velocidad del viento	4.8
165790	7	Sololá	719	Santiago Atitlán	14	Cerro de Oro	8	Agosto	2023-10-08T00:00:00	2024-11-08T18:00:00	7	Dirección del viento	4.83
165791	7	Sololá	719	Santiago Atitlán	14	Cerro de Oro	8	Agosto	2023-10-08T00:00:00	2024-11-08T18:00:00	1	Precipitación	0
165792	7	Sololá	719	Santiago Atitlán	14	Cerro de Oro	8	Agosto	2023-10-08T00:00:00	2024-11-08T18:00:00	8	Radiación solar	80
165793	7	Sololá	719	Santiago Atitlán	14	Cerro de Oro	8	Agosto	2023-10-08T00:00:00	2024-11-08T19:00:00	2	Temperatura media	22.7
165794	7	Sololá	719	Santiago Atitlán	14	Cerro de Oro	8	Agosto	2023-10-08T00:00:00	2024-11-08T19:00:00	4	Temperatura máxima	23.8
165795	7	Sololá	719	Santiago Atitlán	14	Cerro de Oro	8	Agosto	2023-10-08T00:00:00	2024-11-08T19:00:00	3	Temperatura mínima	22.7
165796	7	Sololá	719	Santiago Atitlán	14	Cerro de Oro	8	Agosto	2023-10-08T00:00:00	2024-11-08T19:00:00	5	Humedad	69
165797	7	Sololá	719	Santiago Atitlán	14	Cerro de Oro	8	Agosto	2023-10-08T00:00:00	2024-11-08T19:00:00	6	Velocidad del viento	6.4
165798	7	Sololá	719	Santiago Atitlán	14	Cerro de Oro	8	Agosto	2023-10-08T00:00:00	2024-11-08T19:00:00	7	Dirección del viento	6.44
165799	7	Sololá	719	Santiago Atitlán	14	Cerro de Oro	8	Agosto	2023-10-08T00:00:00	2024-11-08T19:00:00	1	Precipitación	0
165800	7	Sololá	719	Santiago Atitlán	14	Cerro de Oro	8	Agosto	2023-10-08T00:00:00	2024-11-08T19:00:00	8	Radiación solar	0
165801	7	Sololá	719	Santiago Atitlán	14	Cerro de Oro	8	Agosto	2023-10-08T00:00:00	2024-11-08T20:00:00	2	Temperatura media	22
165802	7	Sololá	719	Santiago Atitlán	14	Cerro de Oro	8	Agosto	2023-10-08T00:00:00	2024-11-08T20:00:00	4	Temperatura máxima	22.8
165803	7	Sololá	719	Santiago Atitlán	14	Cerro de Oro	8	Agosto	2023-10-08T00:00:00	2024-11-08T20:00:00	3	Temperatura mínima	21.9
165804	7	Sololá	719	Santiago Atitlán	14	Cerro de Oro	8	Agosto	2023-10-08T00:00:00	2024-11-08T20:00:00	5	Humedad	73
165805	7	Sololá	719	Santiago Atitlán	14	Cerro de Oro	8	Agosto	2023-10-08T00:00:00	2024-11-08T20:00:00	6	Velocidad del viento	1.6
165806	7	Sololá	719	Santiago Atitlán	14	Cerro de Oro	8	Agosto	2023-10-08T00:00:00	2024-11-08T20:00:00	7	Dirección del viento	1.61
165807	7	Sololá	719	Santiago Atitlán	14	Cerro de Oro	8	Agosto	2023-10-08T00:00:00	2024-11-08T20:00:00	1	Precipitación	0
165808	7	Sololá	719	Santiago Atitlán	14	Cerro de Oro	8	Agosto	2023-10-08T00:00:00	2024-11-08T20:00:00	8	Radiación solar	0
165809	7	Sololá	719	Santiago Atitlán	14	Cerro de Oro	8	Agosto	2023-10-08T00:00:00	2024-11-08T21:00:00	2	Temperatura media	20.8
165810	7	Sololá	719	Santiago Atitlán	14	Cerro de Oro	8	Agosto	2023-10-08T00:00:00	2024-11-08T21:00:00	4	Temperatura máxima	21.9
165811	7	Sololá	719	Santiago Atitlán	14	Cerro de Oro	8	Agosto	2023-10-08T00:00:00	2024-11-08T21:00:00	3	Temperatura mínima	20.8
165812	7	Sololá	719	Santiago Atitlán	14	Cerro de Oro	8	Agosto	2023-10-08T00:00:00	2024-11-08T21:00:00	5	Humedad	72
165813	7	Sololá	719	Santiago Atitlán	14	Cerro de Oro	8	Agosto	2023-10-08T00:00:00	2024-11-08T21:00:00	6	Velocidad del viento	4.8
165814	7	Sololá	719	Santiago Atitlán	14	Cerro de Oro	8	Agosto	2023-10-08T00:00:00	2024-11-08T21:00:00	7	Dirección del viento	4.83
165815	7	Sololá	719	Santiago Atitlán	14	Cerro de Oro	8	Agosto	2023-10-08T00:00:00	2024-11-08T21:00:00	1	Precipitación	0
165816	7	Sololá	719	Santiago Atitlán	14	Cerro de Oro	8	Agosto	2023-10-08T00:00:00	2024-11-08T21:00:00	8	Radiación solar	0
165817	7	Sololá	719	Santiago Atitlán	14	Cerro de Oro	8	Agosto	2023-10-08T00:00:00	2024-11-08T22:00:00	2	Temperatura media	20.9
165818	7	Sololá	719	Santiago Atitlán	14	Cerro de Oro	8	Agosto	2023-10-08T00:00:00	2024-11-08T22:00:00	4	Temperatura máxima	21.1
165819	7	Sololá	719	Santiago Atitlán	14	Cerro de Oro	8	Agosto	2023-10-08T00:00:00	2024-11-08T22:00:00	3	Temperatura mínima	20.3
165820	7	Sololá	719	Santiago Atitlán	14	Cerro de Oro	8	Agosto	2023-10-08T00:00:00	2024-11-08T22:00:00	5	Humedad	75
165821	7	Sololá	719	Santiago Atitlán	14	Cerro de Oro	8	Agosto	2023-10-08T00:00:00	2024-11-08T22:00:00	6	Velocidad del viento	4.8
165822	7	Sololá	719	Santiago Atitlán	14	Cerro de Oro	8	Agosto	2023-10-08T00:00:00	2024-11-08T22:00:00	7	Dirección del viento	4.83
165823	7	Sololá	719	Santiago Atitlán	14	Cerro de Oro	8	Agosto	2023-10-08T00:00:00	2024-11-08T22:00:00	1	Precipitación	0
165824	7	Sololá	719	Santiago Atitlán	14	Cerro de Oro	8	Agosto	2023-10-08T00:00:00	2024-11-08T22:00:00	8	Radiación solar	0
165825	7	Sololá	719	Santiago Atitlán	14	Cerro de Oro	8	Agosto	2023-10-08T00:00:00	2024-11-08T23:00:00	2	Temperatura media	19.9
165826	7	Sololá	719	Santiago Atitlán	14	Cerro de Oro	8	Agosto	2023-10-08T00:00:00	2024-11-08T23:00:00	4	Temperatura máxima	21.1
165827	7	Sololá	719	Santiago Atitlán	14	Cerro de Oro	8	Agosto	2023-10-08T00:00:00	2024-11-08T23:00:00	3	Temperatura mínima	19.9
165828	7	Sololá	719	Santiago Atitlán	14	Cerro de Oro	8	Agosto	2023-10-08T00:00:00	2024-11-08T23:00:00	5	Humedad	78
165829	7	Sololá	719	Santiago Atitlán	14	Cerro de Oro	8	Agosto	2023-10-08T00:00:00	2024-11-08T23:00:00	6	Velocidad del viento	4.8
165830	7	Sololá	719	Santiago Atitlán	14	Cerro de Oro	8	Agosto	2023-10-08T00:00:00	2024-11-08T23:00:00	7	Dirección del viento	4.83
165831	7	Sololá	719	Santiago Atitlán	14	Cerro de Oro	8	Agosto	2023-10-08T00:00:00	2024-11-08T23:00:00	1	Precipitación	0
165832	7	Sololá	719	Santiago Atitlán	14	Cerro de Oro	8	Agosto	2023-10-08T00:00:00	2024-11-08T23:00:00	8	Radiación solar	0
165833	7	Sololá	719	Santiago Atitlán	14	Cerro de Oro	8	Agosto	2023-11-08T00:00:00	2024-11-08T00:00:00	2	Temperatura media	20.7
165834	7	Sololá	719	Santiago Atitlán	14	Cerro de Oro	8	Agosto	2023-11-08T00:00:00	2024-11-08T00:00:00	4	Temperatura máxima	21.1
165835	7	Sololá	719	Santiago Atitlán	14	Cerro de Oro	8	Agosto	2023-11-08T00:00:00	2024-11-08T00:00:00	3	Temperatura mínima	19.9
165836	7	Sololá	719	Santiago Atitlán	14	Cerro de Oro	8	Agosto	2023-11-08T00:00:00	2024-11-08T00:00:00	5	Humedad	75
165837	7	Sololá	719	Santiago Atitlán	14	Cerro de Oro	8	Agosto	2023-11-08T00:00:00	2024-11-08T00:00:00	6	Velocidad del viento	4.8
165838	7	Sololá	719	Santiago Atitlán	14	Cerro de Oro	8	Agosto	2023-11-08T00:00:00	2024-11-08T00:00:00	7	Dirección del viento	4.83
165839	7	Sololá	719	Santiago Atitlán	14	Cerro de Oro	8	Agosto	2023-11-08T00:00:00	2024-11-08T00:00:00	1	Precipitación	0
165840	7	Sololá	719	Santiago Atitlán	14	Cerro de Oro	8	Agosto	2023-11-08T00:00:00	2024-11-08T00:00:00	8	Radiación solar	0
165841	7	Sololá	719	Santiago Atitlán	14	Cerro de Oro	8	Agosto	2023-11-08T00:00:00	2024-11-08T01:00:00	2	Temperatura media	20
165842	7	Sololá	719	Santiago Atitlán	14	Cerro de Oro	8	Agosto	2023-11-08T00:00:00	2024-11-08T01:00:00	4	Temperatura máxima	20.7
165843	7	Sololá	719	Santiago Atitlán	14	Cerro de Oro	8	Agosto	2023-11-08T00:00:00	2024-11-08T01:00:00	3	Temperatura mínima	19.9
165844	7	Sololá	719	Santiago Atitlán	14	Cerro de Oro	8	Agosto	2023-11-08T00:00:00	2024-11-08T01:00:00	5	Humedad	77
165845	7	Sololá	719	Santiago Atitlán	14	Cerro de Oro	8	Agosto	2023-11-08T00:00:00	2024-11-08T01:00:00	6	Velocidad del viento	4.8
165846	7	Sololá	719	Santiago Atitlán	14	Cerro de Oro	8	Agosto	2023-11-08T00:00:00	2024-11-08T01:00:00	7	Dirección del viento	4.83
165847	7	Sololá	719	Santiago Atitlán	14	Cerro de Oro	8	Agosto	2023-11-08T00:00:00	2024-11-08T01:00:00	1	Precipitación	0
165848	7	Sololá	719	Santiago Atitlán	14	Cerro de Oro	8	Agosto	2023-11-08T00:00:00	2024-11-08T01:00:00	8	Radiación solar	0
165849	7	Sololá	719	Santiago Atitlán	14	Cerro de Oro	8	Agosto	2023-11-08T00:00:00	2024-11-08T02:00:00	2	Temperatura media	20.3
165850	7	Sololá	719	Santiago Atitlán	14	Cerro de Oro	8	Agosto	2023-11-08T00:00:00	2024-11-08T02:00:00	4	Temperatura máxima	20.6
165851	7	Sololá	719	Santiago Atitlán	14	Cerro de Oro	8	Agosto	2023-11-08T00:00:00	2024-11-08T02:00:00	3	Temperatura mínima	20
165852	7	Sololá	719	Santiago Atitlán	14	Cerro de Oro	8	Agosto	2023-11-08T00:00:00	2024-11-08T02:00:00	5	Humedad	78
165853	7	Sololá	719	Santiago Atitlán	14	Cerro de Oro	8	Agosto	2023-11-08T00:00:00	2024-11-08T02:00:00	6	Velocidad del viento	4.8
165854	7	Sololá	719	Santiago Atitlán	14	Cerro de Oro	8	Agosto	2023-11-08T00:00:00	2024-11-08T02:00:00	7	Dirección del viento	4.83
165855	7	Sololá	719	Santiago Atitlán	14	Cerro de Oro	8	Agosto	2023-11-08T00:00:00	2024-11-08T02:00:00	1	Precipitación	0
165856	7	Sololá	719	Santiago Atitlán	14	Cerro de Oro	8	Agosto	2023-11-08T00:00:00	2024-11-08T02:00:00	8	Radiación solar	0
165857	7	Sololá	719	Santiago Atitlán	14	Cerro de Oro	8	Agosto	2023-11-08T00:00:00	2024-11-08T03:00:00	2	Temperatura media	19.1
165858	7	Sololá	719	Santiago Atitlán	14	Cerro de Oro	8	Agosto	2023-11-08T00:00:00	2024-11-08T03:00:00	4	Temperatura máxima	20.3
165859	7	Sololá	719	Santiago Atitlán	14	Cerro de Oro	8	Agosto	2023-11-08T00:00:00	2024-11-08T03:00:00	3	Temperatura mínima	18.9
165860	7	Sololá	719	Santiago Atitlán	14	Cerro de Oro	8	Agosto	2023-11-08T00:00:00	2024-11-08T03:00:00	5	Humedad	82
165861	7	Sololá	719	Santiago Atitlán	14	Cerro de Oro	8	Agosto	2023-11-08T00:00:00	2024-11-08T03:00:00	6	Velocidad del viento	4.8
165862	7	Sololá	719	Santiago Atitlán	14	Cerro de Oro	8	Agosto	2023-11-08T00:00:00	2024-11-08T03:00:00	7	Dirección del viento	4.83
165863	7	Sololá	719	Santiago Atitlán	14	Cerro de Oro	8	Agosto	2023-11-08T00:00:00	2024-11-08T03:00:00	1	Precipitación	0
165864	7	Sololá	719	Santiago Atitlán	14	Cerro de Oro	8	Agosto	2023-11-08T00:00:00	2024-11-08T03:00:00	8	Radiación solar	0
165865	7	Sololá	719	Santiago Atitlán	14	Cerro de Oro	8	Agosto	2023-11-08T00:00:00	2024-11-08T04:00:00	2	Temperatura media	18.4
165866	7	Sololá	719	Santiago Atitlán	14	Cerro de Oro	8	Agosto	2023-11-08T00:00:00	2024-11-08T04:00:00	4	Temperatura máxima	19.2
165867	7	Sololá	719	Santiago Atitlán	14	Cerro de Oro	8	Agosto	2023-11-08T00:00:00	2024-11-08T04:00:00	3	Temperatura mínima	18.2
165868	7	Sololá	719	Santiago Atitlán	14	Cerro de Oro	8	Agosto	2023-11-08T00:00:00	2024-11-08T04:00:00	5	Humedad	85
165869	7	Sololá	719	Santiago Atitlán	14	Cerro de Oro	8	Agosto	2023-11-08T00:00:00	2024-11-08T04:00:00	6	Velocidad del viento	4.8
165870	7	Sololá	719	Santiago Atitlán	14	Cerro de Oro	8	Agosto	2023-11-08T00:00:00	2024-11-08T04:00:00	7	Dirección del viento	4.83
165871	7	Sololá	719	Santiago Atitlán	14	Cerro de Oro	8	Agosto	2023-11-08T00:00:00	2024-11-08T04:00:00	1	Precipitación	0
165872	7	Sololá	719	Santiago Atitlán	14	Cerro de Oro	8	Agosto	2023-11-08T00:00:00	2024-11-08T04:00:00	8	Radiación solar	0
165873	7	Sololá	719	Santiago Atitlán	14	Cerro de Oro	8	Agosto	2023-11-08T00:00:00	2024-11-08T05:00:00	2	Temperatura media	18.1
165874	7	Sololá	719	Santiago Atitlán	14	Cerro de Oro	8	Agosto	2023-11-08T00:00:00	2024-11-08T05:00:00	4	Temperatura máxima	18.7
165875	7	Sololá	719	Santiago Atitlán	14	Cerro de Oro	8	Agosto	2023-11-08T00:00:00	2024-11-08T05:00:00	3	Temperatura mínima	17.9
165876	7	Sololá	719	Santiago Atitlán	14	Cerro de Oro	8	Agosto	2023-11-08T00:00:00	2024-11-08T05:00:00	5	Humedad	85
165877	7	Sololá	719	Santiago Atitlán	14	Cerro de Oro	8	Agosto	2023-11-08T00:00:00	2024-11-08T05:00:00	6	Velocidad del viento	3.2
165878	7	Sololá	719	Santiago Atitlán	14	Cerro de Oro	8	Agosto	2023-11-08T00:00:00	2024-11-08T05:00:00	7	Dirección del viento	3.22
165879	7	Sololá	719	Santiago Atitlán	14	Cerro de Oro	8	Agosto	2023-11-08T00:00:00	2024-11-08T05:00:00	1	Precipitación	0
165880	7	Sololá	719	Santiago Atitlán	14	Cerro de Oro	8	Agosto	2023-11-08T00:00:00	2024-11-08T05:00:00	8	Radiación solar	0
165881	7	Sololá	719	Santiago Atitlán	14	Cerro de Oro	8	Agosto	2023-11-08T00:00:00	2024-11-08T06:00:00	2	Temperatura media	18.3
165882	7	Sololá	719	Santiago Atitlán	14	Cerro de Oro	8	Agosto	2023-11-08T00:00:00	2024-11-08T06:00:00	4	Temperatura máxima	18.3
165883	7	Sololá	719	Santiago Atitlán	14	Cerro de Oro	8	Agosto	2023-11-08T00:00:00	2024-11-08T06:00:00	3	Temperatura mínima	17.8
165884	7	Sololá	719	Santiago Atitlán	14	Cerro de Oro	8	Agosto	2023-11-08T00:00:00	2024-11-08T06:00:00	5	Humedad	81
165885	7	Sololá	719	Santiago Atitlán	14	Cerro de Oro	8	Agosto	2023-11-08T00:00:00	2024-11-08T06:00:00	6	Velocidad del viento	3.2
165886	7	Sololá	719	Santiago Atitlán	14	Cerro de Oro	8	Agosto	2023-11-08T00:00:00	2024-11-08T06:00:00	7	Dirección del viento	3.22
165887	7	Sololá	719	Santiago Atitlán	14	Cerro de Oro	8	Agosto	2023-11-08T00:00:00	2024-11-08T06:00:00	1	Precipitación	0
165888	7	Sololá	719	Santiago Atitlán	14	Cerro de Oro	8	Agosto	2023-11-08T00:00:00	2024-11-08T06:00:00	8	Radiación solar	1
165889	7	Sololá	719	Santiago Atitlán	14	Cerro de Oro	8	Agosto	2023-11-08T00:00:00	2024-11-08T07:00:00	2	Temperatura media	20
165890	7	Sololá	719	Santiago Atitlán	14	Cerro de Oro	8	Agosto	2023-11-08T00:00:00	2024-11-08T07:00:00	4	Temperatura máxima	20.1
165891	7	Sololá	719	Santiago Atitlán	14	Cerro de Oro	8	Agosto	2023-11-08T00:00:00	2024-11-08T07:00:00	3	Temperatura mínima	18.2
165892	7	Sololá	719	Santiago Atitlán	14	Cerro de Oro	8	Agosto	2023-11-08T00:00:00	2024-11-08T07:00:00	5	Humedad	77
165893	7	Sololá	719	Santiago Atitlán	14	Cerro de Oro	8	Agosto	2023-11-08T00:00:00	2024-11-08T07:00:00	6	Velocidad del viento	3.2
165894	7	Sololá	719	Santiago Atitlán	14	Cerro de Oro	8	Agosto	2023-11-08T00:00:00	2024-11-08T07:00:00	7	Dirección del viento	3.22
165895	7	Sololá	719	Santiago Atitlán	14	Cerro de Oro	8	Agosto	2023-11-08T00:00:00	2024-11-08T07:00:00	1	Precipitación	0
165896	7	Sololá	719	Santiago Atitlán	14	Cerro de Oro	8	Agosto	2023-11-08T00:00:00	2024-11-08T07:00:00	8	Radiación solar	70
165897	7	Sololá	719	Santiago Atitlán	14	Cerro de Oro	8	Agosto	2023-11-08T00:00:00	2024-11-08T08:00:00	2	Temperatura media	22
165898	7	Sololá	719	Santiago Atitlán	14	Cerro de Oro	8	Agosto	2023-11-08T00:00:00	2024-11-08T08:00:00	4	Temperatura máxima	22.1
165899	7	Sololá	719	Santiago Atitlán	14	Cerro de Oro	8	Agosto	2023-11-08T00:00:00	2024-11-08T08:00:00	3	Temperatura mínima	20
165900	7	Sololá	719	Santiago Atitlán	14	Cerro de Oro	8	Agosto	2023-11-08T00:00:00	2024-11-08T08:00:00	5	Humedad	73
165901	7	Sololá	719	Santiago Atitlán	14	Cerro de Oro	8	Agosto	2023-11-08T00:00:00	2024-11-08T08:00:00	6	Velocidad del viento	3.2
165902	7	Sololá	719	Santiago Atitlán	14	Cerro de Oro	8	Agosto	2023-11-08T00:00:00	2024-11-08T08:00:00	7	Dirección del viento	3.22
165903	7	Sololá	719	Santiago Atitlán	14	Cerro de Oro	8	Agosto	2023-11-08T00:00:00	2024-11-08T08:00:00	1	Precipitación	0
165904	7	Sololá	719	Santiago Atitlán	14	Cerro de Oro	8	Agosto	2023-11-08T00:00:00	2024-11-08T08:00:00	8	Radiación solar	295
165905	7	Sololá	719	Santiago Atitlán	14	Cerro de Oro	8	Agosto	2023-11-08T00:00:00	2024-11-08T09:00:00	2	Temperatura media	22.2
165906	7	Sololá	719	Santiago Atitlán	14	Cerro de Oro	8	Agosto	2023-11-08T00:00:00	2024-11-08T09:00:00	4	Temperatura máxima	22.2
165907	7	Sololá	719	Santiago Atitlán	14	Cerro de Oro	8	Agosto	2023-11-08T00:00:00	2024-11-08T09:00:00	3	Temperatura mínima	21.4
165908	7	Sololá	719	Santiago Atitlán	14	Cerro de Oro	8	Agosto	2023-11-08T00:00:00	2024-11-08T09:00:00	5	Humedad	73
165909	7	Sololá	719	Santiago Atitlán	14	Cerro de Oro	8	Agosto	2023-11-08T00:00:00	2024-11-08T09:00:00	6	Velocidad del viento	3.2
165910	7	Sololá	719	Santiago Atitlán	14	Cerro de Oro	8	Agosto	2023-11-08T00:00:00	2024-11-08T09:00:00	7	Dirección del viento	3.22
165911	7	Sololá	719	Santiago Atitlán	14	Cerro de Oro	8	Agosto	2023-11-08T00:00:00	2024-11-08T09:00:00	1	Precipitación	0
165912	7	Sololá	719	Santiago Atitlán	14	Cerro de Oro	8	Agosto	2023-11-08T00:00:00	2024-11-08T09:00:00	8	Radiación solar	396
165913	7	Sololá	719	Santiago Atitlán	14	Cerro de Oro	8	Agosto	2023-11-08T00:00:00	2024-11-08T10:00:00	2	Temperatura media	22.1
165914	7	Sololá	719	Santiago Atitlán	14	Cerro de Oro	8	Agosto	2023-11-08T00:00:00	2024-11-08T10:00:00	4	Temperatura máxima	22.4
165915	7	Sololá	719	Santiago Atitlán	14	Cerro de Oro	8	Agosto	2023-11-08T00:00:00	2024-11-08T10:00:00	3	Temperatura mínima	21.9
165916	7	Sololá	719	Santiago Atitlán	14	Cerro de Oro	8	Agosto	2023-11-08T00:00:00	2024-11-08T10:00:00	5	Humedad	76
165917	7	Sololá	719	Santiago Atitlán	14	Cerro de Oro	8	Agosto	2023-11-08T00:00:00	2024-11-08T10:00:00	6	Velocidad del viento	4.8
165918	7	Sololá	719	Santiago Atitlán	14	Cerro de Oro	8	Agosto	2023-11-08T00:00:00	2024-11-08T10:00:00	7	Dirección del viento	4.83
165919	7	Sololá	719	Santiago Atitlán	14	Cerro de Oro	8	Agosto	2023-11-08T00:00:00	2024-11-08T10:00:00	1	Precipitación	0
165920	7	Sololá	719	Santiago Atitlán	14	Cerro de Oro	8	Agosto	2023-11-08T00:00:00	2024-11-08T10:00:00	8	Radiación solar	424
165921	7	Sololá	719	Santiago Atitlán	14	Cerro de Oro	8	Agosto	2023-11-08T00:00:00	2024-11-08T11:00:00	2	Temperatura media	22.9
165922	7	Sololá	719	Santiago Atitlán	14	Cerro de Oro	8	Agosto	2023-11-08T00:00:00	2024-11-08T11:00:00	4	Temperatura máxima	23.1
165923	7	Sololá	719	Santiago Atitlán	14	Cerro de Oro	8	Agosto	2023-11-08T00:00:00	2024-11-08T11:00:00	3	Temperatura mínima	22
165924	7	Sololá	719	Santiago Atitlán	14	Cerro de Oro	8	Agosto	2023-11-08T00:00:00	2024-11-08T11:00:00	5	Humedad	75
165925	7	Sololá	719	Santiago Atitlán	14	Cerro de Oro	8	Agosto	2023-11-08T00:00:00	2024-11-08T11:00:00	6	Velocidad del viento	4.8
165926	7	Sololá	719	Santiago Atitlán	14	Cerro de Oro	8	Agosto	2023-11-08T00:00:00	2024-11-08T11:00:00	7	Dirección del viento	4.83
165927	7	Sololá	719	Santiago Atitlán	14	Cerro de Oro	8	Agosto	2023-11-08T00:00:00	2024-11-08T11:00:00	1	Precipitación	0
165928	7	Sololá	719	Santiago Atitlán	14	Cerro de Oro	8	Agosto	2023-11-08T00:00:00	2024-11-08T11:00:00	8	Radiación solar	523
165929	7	Sololá	719	Santiago Atitlán	14	Cerro de Oro	8	Agosto	2023-11-08T00:00:00	2024-11-08T12:00:00	2	Temperatura media	24.5
165930	7	Sololá	719	Santiago Atitlán	14	Cerro de Oro	8	Agosto	2023-11-08T00:00:00	2024-11-08T12:00:00	4	Temperatura máxima	24.6
165931	7	Sololá	719	Santiago Atitlán	14	Cerro de Oro	8	Agosto	2023-11-08T00:00:00	2024-11-08T12:00:00	3	Temperatura mínima	22.9
165932	7	Sololá	719	Santiago Atitlán	14	Cerro de Oro	8	Agosto	2023-11-08T00:00:00	2024-11-08T12:00:00	5	Humedad	71
165933	7	Sololá	719	Santiago Atitlán	14	Cerro de Oro	8	Agosto	2023-11-08T00:00:00	2024-11-08T12:00:00	6	Velocidad del viento	6.4
165934	7	Sololá	719	Santiago Atitlán	14	Cerro de Oro	8	Agosto	2023-11-08T00:00:00	2024-11-08T12:00:00	7	Dirección del viento	6.44
165935	7	Sololá	719	Santiago Atitlán	14	Cerro de Oro	8	Agosto	2023-11-08T00:00:00	2024-11-08T12:00:00	1	Precipitación	0
165936	7	Sololá	719	Santiago Atitlán	14	Cerro de Oro	8	Agosto	2023-11-08T00:00:00	2024-11-08T12:00:00	8	Radiación solar	722
165937	7	Sololá	719	Santiago Atitlán	14	Cerro de Oro	8	Agosto	2023-11-08T00:00:00	2024-11-08T13:00:00	2	Temperatura media	25.2
165938	7	Sololá	719	Santiago Atitlán	14	Cerro de Oro	8	Agosto	2023-11-08T00:00:00	2024-11-08T13:00:00	4	Temperatura máxima	25.4
165939	7	Sololá	719	Santiago Atitlán	14	Cerro de Oro	8	Agosto	2023-11-08T00:00:00	2024-11-08T13:00:00	3	Temperatura mínima	24.3
165940	7	Sololá	719	Santiago Atitlán	14	Cerro de Oro	8	Agosto	2023-11-08T00:00:00	2024-11-08T13:00:00	5	Humedad	68
165941	7	Sololá	719	Santiago Atitlán	14	Cerro de Oro	8	Agosto	2023-11-08T00:00:00	2024-11-08T13:00:00	6	Velocidad del viento	6.4
165942	7	Sololá	719	Santiago Atitlán	14	Cerro de Oro	8	Agosto	2023-11-08T00:00:00	2024-11-08T13:00:00	7	Dirección del viento	6.44
165943	7	Sololá	719	Santiago Atitlán	14	Cerro de Oro	8	Agosto	2023-11-08T00:00:00	2024-11-08T13:00:00	1	Precipitación	0
165944	7	Sololá	719	Santiago Atitlán	14	Cerro de Oro	8	Agosto	2023-11-08T00:00:00	2024-11-08T13:00:00	8	Radiación solar	675
165945	7	Sololá	719	Santiago Atitlán	14	Cerro de Oro	8	Agosto	2023-11-08T00:00:00	2024-11-08T14:00:00	2	Temperatura media	24.8
165946	7	Sololá	719	Santiago Atitlán	14	Cerro de Oro	8	Agosto	2023-11-08T00:00:00	2024-11-08T14:00:00	4	Temperatura máxima	25.2
165947	7	Sololá	719	Santiago Atitlán	14	Cerro de Oro	8	Agosto	2023-11-08T00:00:00	2024-11-08T14:00:00	3	Temperatura mínima	24.4
165948	7	Sololá	719	Santiago Atitlán	14	Cerro de Oro	8	Agosto	2023-11-08T00:00:00	2024-11-08T14:00:00	5	Humedad	70
165949	7	Sololá	719	Santiago Atitlán	14	Cerro de Oro	8	Agosto	2023-11-08T00:00:00	2024-11-08T14:00:00	6	Velocidad del viento	6.4
165950	7	Sololá	719	Santiago Atitlán	14	Cerro de Oro	8	Agosto	2023-11-08T00:00:00	2024-11-08T14:00:00	7	Dirección del viento	6.44
165951	7	Sololá	719	Santiago Atitlán	14	Cerro de Oro	8	Agosto	2023-11-08T00:00:00	2024-11-08T14:00:00	1	Precipitación	0
165952	7	Sololá	719	Santiago Atitlán	14	Cerro de Oro	8	Agosto	2023-11-08T00:00:00	2024-11-08T14:00:00	8	Radiación solar	658
165953	7	Sololá	719	Santiago Atitlán	14	Cerro de Oro	8	Agosto	2023-11-08T00:00:00	2024-11-08T15:00:00	2	Temperatura media	23.6
165954	7	Sololá	719	Santiago Atitlán	14	Cerro de Oro	8	Agosto	2023-11-08T00:00:00	2024-11-08T15:00:00	4	Temperatura máxima	24.8
165955	7	Sololá	719	Santiago Atitlán	14	Cerro de Oro	8	Agosto	2023-11-08T00:00:00	2024-11-08T15:00:00	3	Temperatura mínima	23.6
165956	7	Sololá	719	Santiago Atitlán	14	Cerro de Oro	8	Agosto	2023-11-08T00:00:00	2024-11-08T15:00:00	5	Humedad	79
165957	7	Sololá	719	Santiago Atitlán	14	Cerro de Oro	8	Agosto	2023-11-08T00:00:00	2024-11-08T15:00:00	6	Velocidad del viento	6.4
165958	7	Sololá	719	Santiago Atitlán	14	Cerro de Oro	8	Agosto	2023-11-08T00:00:00	2024-11-08T15:00:00	7	Dirección del viento	6.44
165959	7	Sololá	719	Santiago Atitlán	14	Cerro de Oro	8	Agosto	2023-11-08T00:00:00	2024-11-08T15:00:00	1	Precipitación	0
165960	7	Sololá	719	Santiago Atitlán	14	Cerro de Oro	8	Agosto	2023-11-08T00:00:00	2024-11-08T15:00:00	8	Radiación solar	357
165961	7	Sololá	719	Santiago Atitlán	14	Cerro de Oro	8	Agosto	2023-11-08T00:00:00	2024-11-08T16:00:00	2	Temperatura media	23.8
165962	7	Sololá	719	Santiago Atitlán	14	Cerro de Oro	8	Agosto	2023-11-08T00:00:00	2024-11-08T16:00:00	4	Temperatura máxima	23.8
165963	7	Sololá	719	Santiago Atitlán	14	Cerro de Oro	8	Agosto	2023-11-08T00:00:00	2024-11-08T16:00:00	3	Temperatura mínima	23.4
165964	7	Sololá	719	Santiago Atitlán	14	Cerro de Oro	8	Agosto	2023-11-08T00:00:00	2024-11-08T16:00:00	5	Humedad	78
165965	7	Sololá	719	Santiago Atitlán	14	Cerro de Oro	8	Agosto	2023-11-08T00:00:00	2024-11-08T16:00:00	6	Velocidad del viento	9.7
165966	7	Sololá	719	Santiago Atitlán	14	Cerro de Oro	8	Agosto	2023-11-08T00:00:00	2024-11-08T16:00:00	7	Dirección del viento	9.66
165967	7	Sololá	719	Santiago Atitlán	14	Cerro de Oro	8	Agosto	2023-11-08T00:00:00	2024-11-08T16:00:00	1	Precipitación	0
165968	7	Sololá	719	Santiago Atitlán	14	Cerro de Oro	8	Agosto	2023-11-08T00:00:00	2024-11-08T16:00:00	8	Radiación solar	398
165969	7	Sololá	719	Santiago Atitlán	14	Cerro de Oro	8	Agosto	2023-11-08T00:00:00	2024-11-08T17:00:00	2	Temperatura media	23.3
165970	7	Sololá	719	Santiago Atitlán	14	Cerro de Oro	8	Agosto	2023-11-08T00:00:00	2024-11-08T17:00:00	4	Temperatura máxima	23.8
165971	7	Sololá	719	Santiago Atitlán	14	Cerro de Oro	8	Agosto	2023-11-08T00:00:00	2024-11-08T17:00:00	3	Temperatura mínima	23.3
165972	7	Sololá	719	Santiago Atitlán	14	Cerro de Oro	8	Agosto	2023-11-08T00:00:00	2024-11-08T17:00:00	5	Humedad	78
165973	7	Sololá	719	Santiago Atitlán	14	Cerro de Oro	8	Agosto	2023-11-08T00:00:00	2024-11-08T17:00:00	6	Velocidad del viento	4.8
165974	7	Sololá	719	Santiago Atitlán	14	Cerro de Oro	8	Agosto	2023-11-08T00:00:00	2024-11-08T17:00:00	7	Dirección del viento	4.83
165975	7	Sololá	719	Santiago Atitlán	14	Cerro de Oro	8	Agosto	2023-11-08T00:00:00	2024-11-08T17:00:00	1	Precipitación	0
165976	7	Sololá	719	Santiago Atitlán	14	Cerro de Oro	8	Agosto	2023-11-08T00:00:00	2024-11-08T17:00:00	8	Radiación solar	220
165977	7	Sololá	719	Santiago Atitlán	14	Cerro de Oro	8	Agosto	2023-11-08T00:00:00	2024-11-08T18:00:00	2	Temperatura media	21.7
165978	7	Sololá	719	Santiago Atitlán	14	Cerro de Oro	8	Agosto	2023-11-08T00:00:00	2024-11-08T18:00:00	4	Temperatura máxima	23.3
165979	7	Sololá	719	Santiago Atitlán	14	Cerro de Oro	8	Agosto	2023-11-08T00:00:00	2024-11-08T18:00:00	3	Temperatura mínima	21.7
165980	7	Sololá	719	Santiago Atitlán	14	Cerro de Oro	8	Agosto	2023-11-08T00:00:00	2024-11-08T18:00:00	5	Humedad	85
165981	7	Sololá	719	Santiago Atitlán	14	Cerro de Oro	8	Agosto	2023-11-08T00:00:00	2024-11-08T18:00:00	6	Velocidad del viento	6.4
165982	7	Sololá	719	Santiago Atitlán	14	Cerro de Oro	8	Agosto	2023-11-08T00:00:00	2024-11-08T18:00:00	7	Dirección del viento	6.44
165983	7	Sololá	719	Santiago Atitlán	14	Cerro de Oro	8	Agosto	2023-11-08T00:00:00	2024-11-08T18:00:00	1	Precipitación	0
165984	7	Sololá	719	Santiago Atitlán	14	Cerro de Oro	8	Agosto	2023-11-08T00:00:00	2024-11-08T18:00:00	8	Radiación solar	52
165985	7	Sololá	719	Santiago Atitlán	14	Cerro de Oro	8	Agosto	2023-11-08T00:00:00	2024-11-08T19:00:00	2	Temperatura media	20.9
165986	7	Sololá	719	Santiago Atitlán	14	Cerro de Oro	8	Agosto	2023-11-08T00:00:00	2024-11-08T19:00:00	4	Temperatura máxima	21.7
165987	7	Sololá	719	Santiago Atitlán	14	Cerro de Oro	8	Agosto	2023-11-08T00:00:00	2024-11-08T19:00:00	3	Temperatura mínima	20.9
165988	7	Sololá	719	Santiago Atitlán	14	Cerro de Oro	8	Agosto	2023-11-08T00:00:00	2024-11-08T19:00:00	5	Humedad	86
165989	7	Sololá	719	Santiago Atitlán	14	Cerro de Oro	8	Agosto	2023-11-08T00:00:00	2024-11-08T19:00:00	6	Velocidad del viento	3.2
165990	7	Sololá	719	Santiago Atitlán	14	Cerro de Oro	8	Agosto	2023-11-08T00:00:00	2024-11-08T19:00:00	7	Dirección del viento	3.22
165991	7	Sololá	719	Santiago Atitlán	14	Cerro de Oro	8	Agosto	2023-11-08T00:00:00	2024-11-08T19:00:00	1	Precipitación	0
165992	7	Sololá	719	Santiago Atitlán	14	Cerro de Oro	8	Agosto	2023-11-08T00:00:00	2024-11-08T19:00:00	8	Radiación solar	0
165993	7	Sololá	719	Santiago Atitlán	14	Cerro de Oro	8	Agosto	2023-11-08T00:00:00	2024-11-08T20:00:00	2	Temperatura media	21.2
165994	7	Sololá	719	Santiago Atitlán	14	Cerro de Oro	8	Agosto	2023-11-08T00:00:00	2024-11-08T20:00:00	4	Temperatura máxima	21.3
165995	7	Sololá	719	Santiago Atitlán	14	Cerro de Oro	8	Agosto	2023-11-08T00:00:00	2024-11-08T20:00:00	3	Temperatura mínima	20.8
165996	7	Sololá	719	Santiago Atitlán	14	Cerro de Oro	8	Agosto	2023-11-08T00:00:00	2024-11-08T20:00:00	5	Humedad	85
165997	7	Sololá	719	Santiago Atitlán	14	Cerro de Oro	8	Agosto	2023-11-08T00:00:00	2024-11-08T20:00:00	6	Velocidad del viento	4.8
165998	7	Sololá	719	Santiago Atitlán	14	Cerro de Oro	8	Agosto	2023-11-08T00:00:00	2024-11-08T20:00:00	7	Dirección del viento	4.83
165999	7	Sololá	719	Santiago Atitlán	14	Cerro de Oro	8	Agosto	2023-11-08T00:00:00	2024-11-08T20:00:00	1	Precipitación	0
166000	7	Sololá	719	Santiago Atitlán	14	Cerro de Oro	8	Agosto	2023-11-08T00:00:00	2024-11-08T20:00:00	8	Radiación solar	0
166001	7	Sololá	719	Santiago Atitlán	14	Cerro de Oro	8	Agosto	2023-11-08T00:00:00	2024-11-08T21:00:00	2	Temperatura media	21.2
166002	7	Sololá	719	Santiago Atitlán	14	Cerro de Oro	8	Agosto	2023-11-08T00:00:00	2024-11-08T21:00:00	4	Temperatura máxima	21.3
166003	7	Sololá	719	Santiago Atitlán	14	Cerro de Oro	8	Agosto	2023-11-08T00:00:00	2024-11-08T21:00:00	3	Temperatura mínima	21.1
166004	7	Sololá	719	Santiago Atitlán	14	Cerro de Oro	8	Agosto	2023-11-08T00:00:00	2024-11-08T21:00:00	5	Humedad	79
166005	7	Sololá	719	Santiago Atitlán	14	Cerro de Oro	8	Agosto	2023-11-08T00:00:00	2024-11-08T21:00:00	6	Velocidad del viento	4.8
166006	7	Sololá	719	Santiago Atitlán	14	Cerro de Oro	8	Agosto	2023-11-08T00:00:00	2024-11-08T21:00:00	7	Dirección del viento	4.83
166007	7	Sololá	719	Santiago Atitlán	14	Cerro de Oro	8	Agosto	2023-11-08T00:00:00	2024-11-08T21:00:00	1	Precipitación	0
166008	7	Sololá	719	Santiago Atitlán	14	Cerro de Oro	8	Agosto	2023-11-08T00:00:00	2024-11-08T21:00:00	8	Radiación solar	0
166009	7	Sololá	719	Santiago Atitlán	14	Cerro de Oro	8	Agosto	2023-11-08T00:00:00	2024-11-08T22:00:00	2	Temperatura media	20.6
166010	7	Sololá	719	Santiago Atitlán	14	Cerro de Oro	8	Agosto	2023-11-08T00:00:00	2024-11-08T22:00:00	4	Temperatura máxima	21.2
166011	7	Sololá	719	Santiago Atitlán	14	Cerro de Oro	8	Agosto	2023-11-08T00:00:00	2024-11-08T22:00:00	3	Temperatura mínima	20.6
166012	7	Sololá	719	Santiago Atitlán	14	Cerro de Oro	8	Agosto	2023-11-08T00:00:00	2024-11-08T22:00:00	5	Humedad	81
166013	7	Sololá	719	Santiago Atitlán	14	Cerro de Oro	8	Agosto	2023-11-08T00:00:00	2024-11-08T22:00:00	6	Velocidad del viento	4.8
166014	7	Sololá	719	Santiago Atitlán	14	Cerro de Oro	8	Agosto	2023-11-08T00:00:00	2024-11-08T22:00:00	7	Dirección del viento	4.83
166015	7	Sololá	719	Santiago Atitlán	14	Cerro de Oro	8	Agosto	2023-11-08T00:00:00	2024-11-08T22:00:00	1	Precipitación	0
166016	7	Sololá	719	Santiago Atitlán	14	Cerro de Oro	8	Agosto	2023-11-08T00:00:00	2024-11-08T22:00:00	8	Radiación solar	0
166017	7	Sololá	719	Santiago Atitlán	14	Cerro de Oro	8	Agosto	2023-11-08T00:00:00	2024-11-08T23:00:00	2	Temperatura media	20.4
166018	7	Sololá	719	Santiago Atitlán	14	Cerro de Oro	8	Agosto	2023-11-08T00:00:00	2024-11-08T23:00:00	4	Temperatura máxima	20.8
166019	7	Sololá	719	Santiago Atitlán	14	Cerro de Oro	8	Agosto	2023-11-08T00:00:00	2024-11-08T23:00:00	3	Temperatura mínima	20.3
166020	7	Sololá	719	Santiago Atitlán	14	Cerro de Oro	8	Agosto	2023-11-08T00:00:00	2024-11-08T23:00:00	5	Humedad	81
166021	7	Sololá	719	Santiago Atitlán	14	Cerro de Oro	8	Agosto	2023-11-08T00:00:00	2024-11-08T23:00:00	6	Velocidad del viento	4.8
166022	7	Sololá	719	Santiago Atitlán	14	Cerro de Oro	8	Agosto	2023-11-08T00:00:00	2024-11-08T23:00:00	7	Dirección del viento	4.83
166023	7	Sololá	719	Santiago Atitlán	14	Cerro de Oro	8	Agosto	2023-11-08T00:00:00	2024-11-08T23:00:00	1	Precipitación	0
166024	7	Sololá	719	Santiago Atitlán	14	Cerro de Oro	8	Agosto	2023-11-08T00:00:00	2024-11-08T23:00:00	8	Radiación solar	0
166025	7	Sololá	719	Santiago Atitlán	14	Cerro de Oro	8	Agosto	2023-12-08T00:00:00	2024-11-08T00:00:00	2	Temperatura media	20.1
166026	7	Sololá	719	Santiago Atitlán	14	Cerro de Oro	8	Agosto	2023-12-08T00:00:00	2024-11-08T00:00:00	4	Temperatura máxima	20.7
166027	7	Sololá	719	Santiago Atitlán	14	Cerro de Oro	8	Agosto	2023-12-08T00:00:00	2024-11-08T00:00:00	3	Temperatura mínima	20
166028	7	Sololá	719	Santiago Atitlán	14	Cerro de Oro	8	Agosto	2023-12-08T00:00:00	2024-11-08T00:00:00	5	Humedad	78
166029	7	Sololá	719	Santiago Atitlán	14	Cerro de Oro	8	Agosto	2023-12-08T00:00:00	2024-11-08T00:00:00	6	Velocidad del viento	4.8
166030	7	Sololá	719	Santiago Atitlán	14	Cerro de Oro	8	Agosto	2023-12-08T00:00:00	2024-11-08T00:00:00	7	Dirección del viento	4.83
166031	7	Sololá	719	Santiago Atitlán	14	Cerro de Oro	8	Agosto	2023-12-08T00:00:00	2024-11-08T00:00:00	1	Precipitación	0
166032	7	Sololá	719	Santiago Atitlán	14	Cerro de Oro	8	Agosto	2023-12-08T00:00:00	2024-11-08T00:00:00	8	Radiación solar	0
166033	7	Sololá	719	Santiago Atitlán	14	Cerro de Oro	8	Agosto	2023-12-08T00:00:00	2024-11-08T01:00:00	2	Temperatura media	20.3
166034	7	Sololá	719	Santiago Atitlán	14	Cerro de Oro	8	Agosto	2023-12-08T00:00:00	2024-11-08T01:00:00	4	Temperatura máxima	20.8
166035	7	Sololá	719	Santiago Atitlán	14	Cerro de Oro	8	Agosto	2023-12-08T00:00:00	2024-11-08T01:00:00	3	Temperatura mínima	19.8
166036	7	Sololá	719	Santiago Atitlán	14	Cerro de Oro	8	Agosto	2023-12-08T00:00:00	2024-11-08T01:00:00	5	Humedad	76
166037	7	Sololá	719	Santiago Atitlán	14	Cerro de Oro	8	Agosto	2023-12-08T00:00:00	2024-11-08T01:00:00	6	Velocidad del viento	4.8
166038	7	Sololá	719	Santiago Atitlán	14	Cerro de Oro	8	Agosto	2023-12-08T00:00:00	2024-11-08T01:00:00	7	Dirección del viento	4.83
166039	7	Sololá	719	Santiago Atitlán	14	Cerro de Oro	8	Agosto	2023-12-08T00:00:00	2024-11-08T01:00:00	1	Precipitación	0
166040	7	Sololá	719	Santiago Atitlán	14	Cerro de Oro	8	Agosto	2023-12-08T00:00:00	2024-11-08T01:00:00	8	Radiación solar	0
166041	7	Sololá	719	Santiago Atitlán	14	Cerro de Oro	8	Agosto	2023-12-08T00:00:00	2024-11-08T02:00:00	2	Temperatura media	20.4
166042	7	Sololá	719	Santiago Atitlán	14	Cerro de Oro	8	Agosto	2023-12-08T00:00:00	2024-11-08T02:00:00	4	Temperatura máxima	20.5
166043	7	Sololá	719	Santiago Atitlán	14	Cerro de Oro	8	Agosto	2023-12-08T00:00:00	2024-11-08T02:00:00	3	Temperatura mínima	18.9
166044	7	Sololá	719	Santiago Atitlán	14	Cerro de Oro	8	Agosto	2023-12-08T00:00:00	2024-11-08T02:00:00	5	Humedad	71
166045	7	Sololá	719	Santiago Atitlán	14	Cerro de Oro	8	Agosto	2023-12-08T00:00:00	2024-11-08T02:00:00	6	Velocidad del viento	4.8
166046	7	Sololá	719	Santiago Atitlán	14	Cerro de Oro	8	Agosto	2023-12-08T00:00:00	2024-11-08T02:00:00	7	Dirección del viento	4.83
166047	7	Sololá	719	Santiago Atitlán	14	Cerro de Oro	8	Agosto	2023-12-08T00:00:00	2024-11-08T02:00:00	1	Precipitación	0
166048	7	Sololá	719	Santiago Atitlán	14	Cerro de Oro	8	Agosto	2023-12-08T00:00:00	2024-11-08T02:00:00	8	Radiación solar	0
166049	7	Sololá	719	Santiago Atitlán	14	Cerro de Oro	8	Agosto	2023-12-08T00:00:00	2024-11-08T03:00:00	2	Temperatura media	19.1
166050	7	Sololá	719	Santiago Atitlán	14	Cerro de Oro	8	Agosto	2023-12-08T00:00:00	2024-11-08T03:00:00	4	Temperatura máxima	20.4
166051	7	Sololá	719	Santiago Atitlán	14	Cerro de Oro	8	Agosto	2023-12-08T00:00:00	2024-11-08T03:00:00	3	Temperatura mínima	18.9
166052	7	Sololá	719	Santiago Atitlán	14	Cerro de Oro	8	Agosto	2023-12-08T00:00:00	2024-11-08T03:00:00	5	Humedad	76
166053	7	Sololá	719	Santiago Atitlán	14	Cerro de Oro	8	Agosto	2023-12-08T00:00:00	2024-11-08T03:00:00	6	Velocidad del viento	4.8
166054	7	Sololá	719	Santiago Atitlán	14	Cerro de Oro	8	Agosto	2023-12-08T00:00:00	2024-11-08T03:00:00	7	Dirección del viento	4.83
166055	7	Sololá	719	Santiago Atitlán	14	Cerro de Oro	8	Agosto	2023-12-08T00:00:00	2024-11-08T03:00:00	1	Precipitación	0
166056	7	Sololá	719	Santiago Atitlán	14	Cerro de Oro	8	Agosto	2023-12-08T00:00:00	2024-11-08T03:00:00	8	Radiación solar	0
166057	7	Sololá	719	Santiago Atitlán	14	Cerro de Oro	8	Agosto	2023-12-08T00:00:00	2024-11-08T04:00:00	2	Temperatura media	19.9
166058	7	Sololá	719	Santiago Atitlán	14	Cerro de Oro	8	Agosto	2023-12-08T00:00:00	2024-11-08T04:00:00	4	Temperatura máxima	20.2
166059	7	Sololá	719	Santiago Atitlán	14	Cerro de Oro	8	Agosto	2023-12-08T00:00:00	2024-11-08T04:00:00	3	Temperatura mínima	19
166060	7	Sololá	719	Santiago Atitlán	14	Cerro de Oro	8	Agosto	2023-12-08T00:00:00	2024-11-08T04:00:00	5	Humedad	76
166061	7	Sololá	719	Santiago Atitlán	14	Cerro de Oro	8	Agosto	2023-12-08T00:00:00	2024-11-08T04:00:00	6	Velocidad del viento	4.8
166062	7	Sololá	719	Santiago Atitlán	14	Cerro de Oro	8	Agosto	2023-12-08T00:00:00	2024-11-08T04:00:00	7	Dirección del viento	4.83
166063	7	Sololá	719	Santiago Atitlán	14	Cerro de Oro	8	Agosto	2023-12-08T00:00:00	2024-11-08T04:00:00	1	Precipitación	0
166064	7	Sololá	719	Santiago Atitlán	14	Cerro de Oro	8	Agosto	2023-12-08T00:00:00	2024-11-08T04:00:00	8	Radiación solar	0
166065	7	Sololá	719	Santiago Atitlán	14	Cerro de Oro	8	Agosto	2023-12-08T00:00:00	2024-11-08T05:00:00	2	Temperatura media	19.8
166066	7	Sololá	719	Santiago Atitlán	14	Cerro de Oro	8	Agosto	2023-12-08T00:00:00	2024-11-08T05:00:00	4	Temperatura máxima	20.1
166067	7	Sololá	719	Santiago Atitlán	14	Cerro de Oro	8	Agosto	2023-12-08T00:00:00	2024-11-08T05:00:00	3	Temperatura mínima	19.4
166068	7	Sololá	719	Santiago Atitlán	14	Cerro de Oro	8	Agosto	2023-12-08T00:00:00	2024-11-08T05:00:00	5	Humedad	76
166069	7	Sololá	719	Santiago Atitlán	14	Cerro de Oro	8	Agosto	2023-12-08T00:00:00	2024-11-08T05:00:00	6	Velocidad del viento	4.8
166070	7	Sololá	719	Santiago Atitlán	14	Cerro de Oro	8	Agosto	2023-12-08T00:00:00	2024-11-08T05:00:00	7	Dirección del viento	4.83
166071	7	Sololá	719	Santiago Atitlán	14	Cerro de Oro	8	Agosto	2023-12-08T00:00:00	2024-11-08T05:00:00	1	Precipitación	0
166072	7	Sololá	719	Santiago Atitlán	14	Cerro de Oro	8	Agosto	2023-12-08T00:00:00	2024-11-08T05:00:00	8	Radiación solar	0
166073	7	Sololá	719	Santiago Atitlán	14	Cerro de Oro	8	Agosto	2023-12-08T00:00:00	2024-11-08T06:00:00	2	Temperatura media	18.9
166074	7	Sololá	719	Santiago Atitlán	14	Cerro de Oro	8	Agosto	2023-12-08T00:00:00	2024-11-08T06:00:00	4	Temperatura máxima	19.9
166075	7	Sololá	719	Santiago Atitlán	14	Cerro de Oro	8	Agosto	2023-12-08T00:00:00	2024-11-08T06:00:00	3	Temperatura mínima	18.9
166076	7	Sololá	719	Santiago Atitlán	14	Cerro de Oro	8	Agosto	2023-12-08T00:00:00	2024-11-08T06:00:00	5	Humedad	79
166077	7	Sololá	719	Santiago Atitlán	14	Cerro de Oro	8	Agosto	2023-12-08T00:00:00	2024-11-08T06:00:00	6	Velocidad del viento	4.8
166078	7	Sololá	719	Santiago Atitlán	14	Cerro de Oro	8	Agosto	2023-12-08T00:00:00	2024-11-08T06:00:00	7	Dirección del viento	4.83
166079	7	Sololá	719	Santiago Atitlán	14	Cerro de Oro	8	Agosto	2023-12-08T00:00:00	2024-11-08T06:00:00	1	Precipitación	0
166080	7	Sololá	719	Santiago Atitlán	14	Cerro de Oro	8	Agosto	2023-12-08T00:00:00	2024-11-08T06:00:00	8	Radiación solar	2
166081	7	Sololá	719	Santiago Atitlán	14	Cerro de Oro	8	Agosto	2023-12-08T00:00:00	2024-11-08T07:00:00	2	Temperatura media	20.4
166082	7	Sololá	719	Santiago Atitlán	14	Cerro de Oro	8	Agosto	2023-12-08T00:00:00	2024-11-08T07:00:00	4	Temperatura máxima	20.4
166083	7	Sololá	719	Santiago Atitlán	14	Cerro de Oro	8	Agosto	2023-12-08T00:00:00	2024-11-08T07:00:00	3	Temperatura mínima	18.9
166084	7	Sololá	719	Santiago Atitlán	14	Cerro de Oro	8	Agosto	2023-12-08T00:00:00	2024-11-08T07:00:00	5	Humedad	74
166085	7	Sololá	719	Santiago Atitlán	14	Cerro de Oro	8	Agosto	2023-12-08T00:00:00	2024-11-08T07:00:00	6	Velocidad del viento	3.2
166086	7	Sololá	719	Santiago Atitlán	14	Cerro de Oro	8	Agosto	2023-12-08T00:00:00	2024-11-08T07:00:00	7	Dirección del viento	3.22
166087	7	Sololá	719	Santiago Atitlán	14	Cerro de Oro	8	Agosto	2023-12-08T00:00:00	2024-11-08T07:00:00	1	Precipitación	0
166088	7	Sololá	719	Santiago Atitlán	14	Cerro de Oro	8	Agosto	2023-12-08T00:00:00	2024-11-08T07:00:00	8	Radiación solar	46
166089	7	Sololá	719	Santiago Atitlán	14	Cerro de Oro	8	Agosto	2023-12-08T00:00:00	2024-11-08T08:00:00	2	Temperatura media	21.8
166090	7	Sololá	719	Santiago Atitlán	14	Cerro de Oro	8	Agosto	2023-12-08T00:00:00	2024-11-08T08:00:00	4	Temperatura máxima	21.8
166091	7	Sololá	719	Santiago Atitlán	14	Cerro de Oro	8	Agosto	2023-12-08T00:00:00	2024-11-08T08:00:00	3	Temperatura mínima	20.1
166092	7	Sololá	719	Santiago Atitlán	14	Cerro de Oro	8	Agosto	2023-12-08T00:00:00	2024-11-08T08:00:00	5	Humedad	71
166093	7	Sololá	719	Santiago Atitlán	14	Cerro de Oro	8	Agosto	2023-12-08T00:00:00	2024-11-08T08:00:00	6	Velocidad del viento	1.6
166094	7	Sololá	719	Santiago Atitlán	14	Cerro de Oro	8	Agosto	2023-12-08T00:00:00	2024-11-08T08:00:00	7	Dirección del viento	1.61
166095	7	Sololá	719	Santiago Atitlán	14	Cerro de Oro	8	Agosto	2023-12-08T00:00:00	2024-11-08T08:00:00	1	Precipitación	0
166096	7	Sololá	719	Santiago Atitlán	14	Cerro de Oro	8	Agosto	2023-12-08T00:00:00	2024-11-08T08:00:00	8	Radiación solar	164
166097	7	Sololá	719	Santiago Atitlán	14	Cerro de Oro	8	Agosto	2023-12-08T00:00:00	2024-11-08T09:00:00	2	Temperatura media	23.3
166098	7	Sololá	719	Santiago Atitlán	14	Cerro de Oro	8	Agosto	2023-12-08T00:00:00	2024-11-08T09:00:00	4	Temperatura máxima	23.3
166099	7	Sololá	719	Santiago Atitlán	14	Cerro de Oro	8	Agosto	2023-12-08T00:00:00	2024-11-08T09:00:00	3	Temperatura mínima	21.8
166100	7	Sololá	719	Santiago Atitlán	14	Cerro de Oro	8	Agosto	2023-12-08T00:00:00	2024-11-08T09:00:00	5	Humedad	65
166101	7	Sololá	719	Santiago Atitlán	14	Cerro de Oro	8	Agosto	2023-12-08T00:00:00	2024-11-08T09:00:00	6	Velocidad del viento	3.2
166102	7	Sololá	719	Santiago Atitlán	14	Cerro de Oro	8	Agosto	2023-12-08T00:00:00	2024-11-08T09:00:00	7	Dirección del viento	3.22
166103	7	Sololá	719	Santiago Atitlán	14	Cerro de Oro	8	Agosto	2023-12-08T00:00:00	2024-11-08T09:00:00	1	Precipitación	0
166104	7	Sololá	719	Santiago Atitlán	14	Cerro de Oro	8	Agosto	2023-12-08T00:00:00	2024-11-08T09:00:00	8	Radiación solar	334
166105	7	Sololá	719	Santiago Atitlán	14	Cerro de Oro	8	Agosto	2023-12-08T00:00:00	2024-11-08T10:00:00	2	Temperatura media	24.5
166106	7	Sololá	719	Santiago Atitlán	14	Cerro de Oro	8	Agosto	2023-12-08T00:00:00	2024-11-08T10:00:00	4	Temperatura máxima	24.5
166107	7	Sololá	719	Santiago Atitlán	14	Cerro de Oro	8	Agosto	2023-12-08T00:00:00	2024-11-08T10:00:00	3	Temperatura mínima	23.3
166108	7	Sololá	719	Santiago Atitlán	14	Cerro de Oro	8	Agosto	2023-12-08T00:00:00	2024-11-08T10:00:00	5	Humedad	67
166109	7	Sololá	719	Santiago Atitlán	14	Cerro de Oro	8	Agosto	2023-12-08T00:00:00	2024-11-08T10:00:00	6	Velocidad del viento	4.8
166110	7	Sololá	719	Santiago Atitlán	14	Cerro de Oro	8	Agosto	2023-12-08T00:00:00	2024-11-08T10:00:00	7	Dirección del viento	4.83
166111	7	Sololá	719	Santiago Atitlán	14	Cerro de Oro	8	Agosto	2023-12-08T00:00:00	2024-11-08T10:00:00	1	Precipitación	0
166112	7	Sololá	719	Santiago Atitlán	14	Cerro de Oro	8	Agosto	2023-12-08T00:00:00	2024-11-08T10:00:00	8	Radiación solar	626
166113	7	Sololá	719	Santiago Atitlán	14	Cerro de Oro	8	Agosto	2023-12-08T00:00:00	2024-11-08T11:00:00	2	Temperatura media	24.3
166114	7	Sololá	719	Santiago Atitlán	14	Cerro de Oro	8	Agosto	2023-12-08T00:00:00	2024-11-08T11:00:00	4	Temperatura máxima	25.6
166115	7	Sololá	719	Santiago Atitlán	14	Cerro de Oro	8	Agosto	2023-12-08T00:00:00	2024-11-08T11:00:00	3	Temperatura mínima	24
166116	7	Sololá	719	Santiago Atitlán	14	Cerro de Oro	8	Agosto	2023-12-08T00:00:00	2024-11-08T11:00:00	5	Humedad	69
166117	7	Sololá	719	Santiago Atitlán	14	Cerro de Oro	8	Agosto	2023-12-08T00:00:00	2024-11-08T11:00:00	6	Velocidad del viento	6.4
166118	7	Sololá	719	Santiago Atitlán	14	Cerro de Oro	8	Agosto	2023-12-08T00:00:00	2024-11-08T11:00:00	7	Dirección del viento	6.44
166119	7	Sololá	719	Santiago Atitlán	14	Cerro de Oro	8	Agosto	2023-12-08T00:00:00	2024-11-08T11:00:00	1	Precipitación	0
166120	7	Sololá	719	Santiago Atitlán	14	Cerro de Oro	8	Agosto	2023-12-08T00:00:00	2024-11-08T11:00:00	8	Radiación solar	759
166121	7	Sololá	719	Santiago Atitlán	14	Cerro de Oro	8	Agosto	2023-12-08T00:00:00	2024-11-08T12:00:00	2	Temperatura media	24.8
166122	7	Sololá	719	Santiago Atitlán	14	Cerro de Oro	8	Agosto	2023-12-08T00:00:00	2024-11-08T12:00:00	4	Temperatura máxima	24.9
166123	7	Sololá	719	Santiago Atitlán	14	Cerro de Oro	8	Agosto	2023-12-08T00:00:00	2024-11-08T12:00:00	3	Temperatura mínima	23.6
166124	7	Sololá	719	Santiago Atitlán	14	Cerro de Oro	8	Agosto	2023-12-08T00:00:00	2024-11-08T12:00:00	5	Humedad	76
166125	7	Sololá	719	Santiago Atitlán	14	Cerro de Oro	8	Agosto	2023-12-08T00:00:00	2024-11-08T12:00:00	6	Velocidad del viento	9.7
166126	7	Sololá	719	Santiago Atitlán	14	Cerro de Oro	8	Agosto	2023-12-08T00:00:00	2024-11-08T12:00:00	7	Dirección del viento	9.66
166127	7	Sololá	719	Santiago Atitlán	14	Cerro de Oro	8	Agosto	2023-12-08T00:00:00	2024-11-08T12:00:00	1	Precipitación	0
166128	7	Sololá	719	Santiago Atitlán	14	Cerro de Oro	8	Agosto	2023-12-08T00:00:00	2024-11-08T12:00:00	8	Radiación solar	800
166129	7	Sololá	719	Santiago Atitlán	14	Cerro de Oro	8	Agosto	2023-12-08T00:00:00	2024-11-08T13:00:00	2	Temperatura media	25.9
166130	7	Sololá	719	Santiago Atitlán	14	Cerro de Oro	8	Agosto	2023-12-08T00:00:00	2024-11-08T13:00:00	4	Temperatura máxima	26
166131	7	Sololá	719	Santiago Atitlán	14	Cerro de Oro	8	Agosto	2023-12-08T00:00:00	2024-11-08T13:00:00	3	Temperatura mínima	24.8
166132	7	Sololá	719	Santiago Atitlán	14	Cerro de Oro	8	Agosto	2023-12-08T00:00:00	2024-11-08T13:00:00	5	Humedad	69
166133	7	Sololá	719	Santiago Atitlán	14	Cerro de Oro	8	Agosto	2023-12-08T00:00:00	2024-11-08T13:00:00	6	Velocidad del viento	8
166134	7	Sololá	719	Santiago Atitlán	14	Cerro de Oro	8	Agosto	2023-12-08T00:00:00	2024-11-08T13:00:00	7	Dirección del viento	8.05
166135	7	Sololá	719	Santiago Atitlán	14	Cerro de Oro	8	Agosto	2023-12-08T00:00:00	2024-11-08T13:00:00	1	Precipitación	0
166136	7	Sololá	719	Santiago Atitlán	14	Cerro de Oro	8	Agosto	2023-12-08T00:00:00	2024-11-08T13:00:00	8	Radiación solar	796
166137	7	Sololá	719	Santiago Atitlán	14	Cerro de Oro	8	Agosto	2023-12-08T00:00:00	2024-11-08T14:00:00	2	Temperatura media	24.4
166138	7	Sololá	719	Santiago Atitlán	14	Cerro de Oro	8	Agosto	2023-12-08T00:00:00	2024-11-08T14:00:00	4	Temperatura máxima	25.9
166139	7	Sololá	719	Santiago Atitlán	14	Cerro de Oro	8	Agosto	2023-12-08T00:00:00	2024-11-08T14:00:00	3	Temperatura mínima	24.3
166140	7	Sololá	719	Santiago Atitlán	14	Cerro de Oro	8	Agosto	2023-12-08T00:00:00	2024-11-08T14:00:00	5	Humedad	77
166141	7	Sololá	719	Santiago Atitlán	14	Cerro de Oro	8	Agosto	2023-12-08T00:00:00	2024-11-08T14:00:00	6	Velocidad del viento	8
166142	7	Sololá	719	Santiago Atitlán	14	Cerro de Oro	8	Agosto	2023-12-08T00:00:00	2024-11-08T14:00:00	7	Dirección del viento	8.05
166143	7	Sololá	719	Santiago Atitlán	14	Cerro de Oro	8	Agosto	2023-12-08T00:00:00	2024-11-08T14:00:00	1	Precipitación	0
166144	7	Sololá	719	Santiago Atitlán	14	Cerro de Oro	8	Agosto	2023-12-08T00:00:00	2024-11-08T14:00:00	8	Radiación solar	467
166145	7	Sololá	719	Santiago Atitlán	14	Cerro de Oro	8	Agosto	2023-12-08T00:00:00	2024-11-08T15:00:00	2	Temperatura media	25.9
166146	7	Sololá	719	Santiago Atitlán	14	Cerro de Oro	8	Agosto	2023-12-08T00:00:00	2024-11-08T15:00:00	4	Temperatura máxima	26.1
166147	7	Sololá	719	Santiago Atitlán	14	Cerro de Oro	8	Agosto	2023-12-08T00:00:00	2024-11-08T15:00:00	3	Temperatura mínima	24.3
166148	7	Sololá	719	Santiago Atitlán	14	Cerro de Oro	8	Agosto	2023-12-08T00:00:00	2024-11-08T15:00:00	5	Humedad	71
166149	7	Sololá	719	Santiago Atitlán	14	Cerro de Oro	8	Agosto	2023-12-08T00:00:00	2024-11-08T15:00:00	6	Velocidad del viento	9.7
166150	7	Sololá	719	Santiago Atitlán	14	Cerro de Oro	8	Agosto	2023-12-08T00:00:00	2024-11-08T15:00:00	7	Dirección del viento	9.66
166151	7	Sololá	719	Santiago Atitlán	14	Cerro de Oro	8	Agosto	2023-12-08T00:00:00	2024-11-08T15:00:00	1	Precipitación	0
166152	7	Sololá	719	Santiago Atitlán	14	Cerro de Oro	8	Agosto	2023-12-08T00:00:00	2024-11-08T15:00:00	8	Radiación solar	748
166153	7	Sololá	719	Santiago Atitlán	14	Cerro de Oro	8	Agosto	2023-12-08T00:00:00	2024-11-08T16:00:00	2	Temperatura media	24.3
166154	7	Sololá	719	Santiago Atitlán	14	Cerro de Oro	8	Agosto	2023-12-08T00:00:00	2024-11-08T16:00:00	4	Temperatura máxima	26.2
166155	7	Sololá	719	Santiago Atitlán	14	Cerro de Oro	8	Agosto	2023-12-08T00:00:00	2024-11-08T16:00:00	3	Temperatura mínima	24.3
166156	7	Sololá	719	Santiago Atitlán	14	Cerro de Oro	8	Agosto	2023-12-08T00:00:00	2024-11-08T16:00:00	5	Humedad	77
166157	7	Sololá	719	Santiago Atitlán	14	Cerro de Oro	8	Agosto	2023-12-08T00:00:00	2024-11-08T16:00:00	6	Velocidad del viento	4.8
166158	7	Sololá	719	Santiago Atitlán	14	Cerro de Oro	8	Agosto	2023-12-08T00:00:00	2024-11-08T16:00:00	7	Dirección del viento	4.83
166159	7	Sololá	719	Santiago Atitlán	14	Cerro de Oro	8	Agosto	2023-12-08T00:00:00	2024-11-08T16:00:00	1	Precipitación	0
166160	7	Sololá	719	Santiago Atitlán	14	Cerro de Oro	8	Agosto	2023-12-08T00:00:00	2024-11-08T16:00:00	8	Radiación solar	449
166161	7	Sololá	719	Santiago Atitlán	14	Cerro de Oro	8	Agosto	2023-12-08T00:00:00	2024-11-08T17:00:00	2	Temperatura media	23.2
166162	7	Sololá	719	Santiago Atitlán	14	Cerro de Oro	8	Agosto	2023-12-08T00:00:00	2024-11-08T17:00:00	4	Temperatura máxima	24.7
166163	7	Sololá	719	Santiago Atitlán	14	Cerro de Oro	8	Agosto	2023-12-08T00:00:00	2024-11-08T17:00:00	3	Temperatura mínima	23
166164	7	Sololá	719	Santiago Atitlán	14	Cerro de Oro	8	Agosto	2023-12-08T00:00:00	2024-11-08T17:00:00	5	Humedad	81
166165	7	Sololá	719	Santiago Atitlán	14	Cerro de Oro	8	Agosto	2023-12-08T00:00:00	2024-11-08T17:00:00	6	Velocidad del viento	8
166166	7	Sololá	719	Santiago Atitlán	14	Cerro de Oro	8	Agosto	2023-12-08T00:00:00	2024-11-08T17:00:00	7	Dirección del viento	8.05
166167	7	Sololá	719	Santiago Atitlán	14	Cerro de Oro	8	Agosto	2023-12-08T00:00:00	2024-11-08T17:00:00	1	Precipitación	0
166168	7	Sololá	719	Santiago Atitlán	14	Cerro de Oro	8	Agosto	2023-12-08T00:00:00	2024-11-08T17:00:00	8	Radiación solar	231
166169	7	Sololá	719	Santiago Atitlán	14	Cerro de Oro	8	Agosto	2023-12-08T00:00:00	2024-11-08T18:00:00	2	Temperatura media	21.5
166170	7	Sololá	719	Santiago Atitlán	14	Cerro de Oro	8	Agosto	2023-12-08T00:00:00	2024-11-08T18:00:00	4	Temperatura máxima	23.3
166171	7	Sololá	719	Santiago Atitlán	14	Cerro de Oro	8	Agosto	2023-12-08T00:00:00	2024-11-08T18:00:00	3	Temperatura mínima	21.4
166172	7	Sololá	719	Santiago Atitlán	14	Cerro de Oro	8	Agosto	2023-12-08T00:00:00	2024-11-08T18:00:00	5	Humedad	86
166173	7	Sololá	719	Santiago Atitlán	14	Cerro de Oro	8	Agosto	2023-12-08T00:00:00	2024-11-08T18:00:00	6	Velocidad del viento	6.4
166174	7	Sololá	719	Santiago Atitlán	14	Cerro de Oro	8	Agosto	2023-12-08T00:00:00	2024-11-08T18:00:00	7	Dirección del viento	6.44
166175	7	Sololá	719	Santiago Atitlán	14	Cerro de Oro	8	Agosto	2023-12-08T00:00:00	2024-11-08T18:00:00	1	Precipitación	0
166176	7	Sololá	719	Santiago Atitlán	14	Cerro de Oro	8	Agosto	2023-12-08T00:00:00	2024-11-08T18:00:00	8	Radiación solar	72
166177	7	Sololá	719	Santiago Atitlán	14	Cerro de Oro	8	Agosto	2023-12-08T00:00:00	2024-11-08T19:00:00	2	Temperatura media	22.8
166178	7	Sololá	719	Santiago Atitlán	14	Cerro de Oro	8	Agosto	2023-12-08T00:00:00	2024-11-08T19:00:00	4	Temperatura máxima	22.8
166179	7	Sololá	719	Santiago Atitlán	14	Cerro de Oro	8	Agosto	2023-12-08T00:00:00	2024-11-08T19:00:00	3	Temperatura mínima	21.4
166180	7	Sololá	719	Santiago Atitlán	14	Cerro de Oro	8	Agosto	2023-12-08T00:00:00	2024-11-08T19:00:00	5	Humedad	71
166181	7	Sololá	719	Santiago Atitlán	14	Cerro de Oro	8	Agosto	2023-12-08T00:00:00	2024-11-08T19:00:00	6	Velocidad del viento	8
166182	7	Sololá	719	Santiago Atitlán	14	Cerro de Oro	8	Agosto	2023-12-08T00:00:00	2024-11-08T19:00:00	7	Dirección del viento	8.05
166183	7	Sololá	719	Santiago Atitlán	14	Cerro de Oro	8	Agosto	2023-12-08T00:00:00	2024-11-08T19:00:00	1	Precipitación	0
166184	7	Sololá	719	Santiago Atitlán	14	Cerro de Oro	8	Agosto	2023-12-08T00:00:00	2024-11-08T19:00:00	8	Radiación solar	0
166185	7	Sololá	719	Santiago Atitlán	14	Cerro de Oro	8	Agosto	2023-12-08T00:00:00	2024-11-08T20:00:00	2	Temperatura media	22.7
166186	7	Sololá	719	Santiago Atitlán	14	Cerro de Oro	8	Agosto	2023-12-08T00:00:00	2024-11-08T20:00:00	4	Temperatura máxima	22.9
166187	7	Sololá	719	Santiago Atitlán	14	Cerro de Oro	8	Agosto	2023-12-08T00:00:00	2024-11-08T20:00:00	3	Temperatura mínima	22.6
166188	7	Sololá	719	Santiago Atitlán	14	Cerro de Oro	8	Agosto	2023-12-08T00:00:00	2024-11-08T20:00:00	5	Humedad	71
166189	7	Sololá	719	Santiago Atitlán	14	Cerro de Oro	8	Agosto	2023-12-08T00:00:00	2024-11-08T20:00:00	6	Velocidad del viento	8
166190	7	Sololá	719	Santiago Atitlán	14	Cerro de Oro	8	Agosto	2023-12-08T00:00:00	2024-11-08T20:00:00	7	Dirección del viento	8.05
166191	7	Sololá	719	Santiago Atitlán	14	Cerro de Oro	8	Agosto	2023-12-08T00:00:00	2024-11-08T20:00:00	1	Precipitación	0
166192	7	Sololá	719	Santiago Atitlán	14	Cerro de Oro	8	Agosto	2023-12-08T00:00:00	2024-11-08T20:00:00	8	Radiación solar	0
166193	7	Sololá	719	Santiago Atitlán	14	Cerro de Oro	8	Agosto	2023-12-08T00:00:00	2024-11-08T21:00:00	2	Temperatura media	21.6
166194	7	Sololá	719	Santiago Atitlán	14	Cerro de Oro	8	Agosto	2023-12-08T00:00:00	2024-11-08T21:00:00	4	Temperatura máxima	22.7
166195	7	Sololá	719	Santiago Atitlán	14	Cerro de Oro	8	Agosto	2023-12-08T00:00:00	2024-11-08T21:00:00	3	Temperatura mínima	21.6
166196	7	Sololá	719	Santiago Atitlán	14	Cerro de Oro	8	Agosto	2023-12-08T00:00:00	2024-11-08T21:00:00	5	Humedad	72
166197	7	Sololá	719	Santiago Atitlán	14	Cerro de Oro	8	Agosto	2023-12-08T00:00:00	2024-11-08T21:00:00	6	Velocidad del viento	6.4
166198	7	Sololá	719	Santiago Atitlán	14	Cerro de Oro	8	Agosto	2023-12-08T00:00:00	2024-11-08T21:00:00	7	Dirección del viento	6.44
166199	7	Sololá	719	Santiago Atitlán	14	Cerro de Oro	8	Agosto	2023-12-08T00:00:00	2024-11-08T21:00:00	1	Precipitación	0
166200	7	Sololá	719	Santiago Atitlán	14	Cerro de Oro	8	Agosto	2023-12-08T00:00:00	2024-11-08T21:00:00	8	Radiación solar	0
166201	7	Sololá	719	Santiago Atitlán	14	Cerro de Oro	8	Agosto	2023-12-08T00:00:00	2024-11-08T22:00:00	2	Temperatura media	20.5
166202	7	Sololá	719	Santiago Atitlán	14	Cerro de Oro	8	Agosto	2023-12-08T00:00:00	2024-11-08T22:00:00	4	Temperatura máxima	21.7
166203	7	Sololá	719	Santiago Atitlán	14	Cerro de Oro	8	Agosto	2023-12-08T00:00:00	2024-11-08T22:00:00	3	Temperatura mínima	20.4
166204	7	Sololá	719	Santiago Atitlán	14	Cerro de Oro	8	Agosto	2023-12-08T00:00:00	2024-11-08T22:00:00	5	Humedad	76
166205	7	Sololá	719	Santiago Atitlán	14	Cerro de Oro	8	Agosto	2023-12-08T00:00:00	2024-11-08T22:00:00	6	Velocidad del viento	4.8
166206	7	Sololá	719	Santiago Atitlán	14	Cerro de Oro	8	Agosto	2023-12-08T00:00:00	2024-11-08T22:00:00	7	Dirección del viento	4.83
166207	7	Sololá	719	Santiago Atitlán	14	Cerro de Oro	8	Agosto	2023-12-08T00:00:00	2024-11-08T22:00:00	1	Precipitación	0
166208	7	Sololá	719	Santiago Atitlán	14	Cerro de Oro	8	Agosto	2023-12-08T00:00:00	2024-11-08T22:00:00	8	Radiación solar	0
166209	7	Sololá	719	Santiago Atitlán	14	Cerro de Oro	8	Agosto	2023-12-08T00:00:00	2024-11-08T23:00:00	2	Temperatura media	21.9
166210	7	Sololá	719	Santiago Atitlán	14	Cerro de Oro	8	Agosto	2023-12-08T00:00:00	2024-11-08T23:00:00	4	Temperatura máxima	22
166211	7	Sololá	719	Santiago Atitlán	14	Cerro de Oro	8	Agosto	2023-12-08T00:00:00	2024-11-08T23:00:00	3	Temperatura mínima	20.4
166212	7	Sololá	719	Santiago Atitlán	14	Cerro de Oro	8	Agosto	2023-12-08T00:00:00	2024-11-08T23:00:00	5	Humedad	69
166213	7	Sololá	719	Santiago Atitlán	14	Cerro de Oro	8	Agosto	2023-12-08T00:00:00	2024-11-08T23:00:00	6	Velocidad del viento	3.2
166214	7	Sololá	719	Santiago Atitlán	14	Cerro de Oro	8	Agosto	2023-12-08T00:00:00	2024-11-08T23:00:00	7	Dirección del viento	3.22
166215	7	Sololá	719	Santiago Atitlán	14	Cerro de Oro	8	Agosto	2023-12-08T00:00:00	2024-11-08T23:00:00	1	Precipitación	0
166216	7	Sololá	719	Santiago Atitlán	14	Cerro de Oro	8	Agosto	2023-12-08T00:00:00	2024-11-08T23:00:00	8	Radiación solar	0
166217	7	Sololá	719	Santiago Atitlán	14	Cerro de Oro	8	Agosto	2023-08-13T00:00:00	2024-11-08T00:00:00	2	Temperatura media	20.3
166218	7	Sololá	719	Santiago Atitlán	14	Cerro de Oro	8	Agosto	2023-08-13T00:00:00	2024-11-08T00:00:00	4	Temperatura máxima	21.9
166219	7	Sololá	719	Santiago Atitlán	14	Cerro de Oro	8	Agosto	2023-08-13T00:00:00	2024-11-08T00:00:00	3	Temperatura mínima	20.3
166220	7	Sololá	719	Santiago Atitlán	14	Cerro de Oro	8	Agosto	2023-08-13T00:00:00	2024-11-08T00:00:00	5	Humedad	72
166221	7	Sololá	719	Santiago Atitlán	14	Cerro de Oro	8	Agosto	2023-08-13T00:00:00	2024-11-08T00:00:00	6	Velocidad del viento	3.2
166222	7	Sololá	719	Santiago Atitlán	14	Cerro de Oro	8	Agosto	2023-08-13T00:00:00	2024-11-08T00:00:00	7	Dirección del viento	3.22
166223	7	Sololá	719	Santiago Atitlán	14	Cerro de Oro	8	Agosto	2023-08-13T00:00:00	2024-11-08T00:00:00	1	Precipitación	0
166224	7	Sololá	719	Santiago Atitlán	14	Cerro de Oro	8	Agosto	2023-08-13T00:00:00	2024-11-08T00:00:00	8	Radiación solar	0
166225	7	Sololá	719	Santiago Atitlán	14	Cerro de Oro	8	Agosto	2023-08-13T00:00:00	2024-11-08T01:00:00	2	Temperatura media	21.6
166226	7	Sololá	719	Santiago Atitlán	14	Cerro de Oro	8	Agosto	2023-08-13T00:00:00	2024-11-08T01:00:00	4	Temperatura máxima	21.6
166227	7	Sololá	719	Santiago Atitlán	14	Cerro de Oro	8	Agosto	2023-08-13T00:00:00	2024-11-08T01:00:00	3	Temperatura mínima	20.2
166228	7	Sololá	719	Santiago Atitlán	14	Cerro de Oro	8	Agosto	2023-08-13T00:00:00	2024-11-08T01:00:00	5	Humedad	62
166229	7	Sololá	719	Santiago Atitlán	14	Cerro de Oro	8	Agosto	2023-08-13T00:00:00	2024-11-08T01:00:00	6	Velocidad del viento	9.7
166230	7	Sololá	719	Santiago Atitlán	14	Cerro de Oro	8	Agosto	2023-08-13T00:00:00	2024-11-08T01:00:00	7	Dirección del viento	9.66
166231	7	Sololá	719	Santiago Atitlán	14	Cerro de Oro	8	Agosto	2023-08-13T00:00:00	2024-11-08T01:00:00	1	Precipitación	0
166232	7	Sololá	719	Santiago Atitlán	14	Cerro de Oro	8	Agosto	2023-08-13T00:00:00	2024-11-08T01:00:00	8	Radiación solar	0
166233	7	Sololá	719	Santiago Atitlán	14	Cerro de Oro	8	Agosto	2023-08-13T00:00:00	2024-11-08T02:00:00	2	Temperatura media	21.2
166234	7	Sololá	719	Santiago Atitlán	14	Cerro de Oro	8	Agosto	2023-08-13T00:00:00	2024-11-08T02:00:00	4	Temperatura máxima	21.6
166235	7	Sololá	719	Santiago Atitlán	14	Cerro de Oro	8	Agosto	2023-08-13T00:00:00	2024-11-08T02:00:00	3	Temperatura mínima	21.1
166236	7	Sololá	719	Santiago Atitlán	14	Cerro de Oro	8	Agosto	2023-08-13T00:00:00	2024-11-08T02:00:00	5	Humedad	64
166237	7	Sololá	719	Santiago Atitlán	14	Cerro de Oro	8	Agosto	2023-08-13T00:00:00	2024-11-08T02:00:00	6	Velocidad del viento	12.9
166238	7	Sololá	719	Santiago Atitlán	14	Cerro de Oro	8	Agosto	2023-08-13T00:00:00	2024-11-08T02:00:00	7	Dirección del viento	12.87
166239	7	Sololá	719	Santiago Atitlán	14	Cerro de Oro	8	Agosto	2023-08-13T00:00:00	2024-11-08T02:00:00	1	Precipitación	0
166240	7	Sololá	719	Santiago Atitlán	14	Cerro de Oro	8	Agosto	2023-08-13T00:00:00	2024-11-08T02:00:00	8	Radiación solar	0
166241	7	Sololá	719	Santiago Atitlán	14	Cerro de Oro	8	Agosto	2023-08-13T00:00:00	2024-11-08T03:00:00	2	Temperatura media	20.6
166242	7	Sololá	719	Santiago Atitlán	14	Cerro de Oro	8	Agosto	2023-08-13T00:00:00	2024-11-08T03:00:00	4	Temperatura máxima	21.2
166243	7	Sololá	719	Santiago Atitlán	14	Cerro de Oro	8	Agosto	2023-08-13T00:00:00	2024-11-08T03:00:00	3	Temperatura mínima	20.5
166244	7	Sololá	719	Santiago Atitlán	14	Cerro de Oro	8	Agosto	2023-08-13T00:00:00	2024-11-08T03:00:00	5	Humedad	65
166245	7	Sololá	719	Santiago Atitlán	14	Cerro de Oro	8	Agosto	2023-08-13T00:00:00	2024-11-08T03:00:00	6	Velocidad del viento	8
166246	7	Sololá	719	Santiago Atitlán	14	Cerro de Oro	8	Agosto	2023-08-13T00:00:00	2024-11-08T03:00:00	7	Dirección del viento	8.05
166247	7	Sololá	719	Santiago Atitlán	14	Cerro de Oro	8	Agosto	2023-08-13T00:00:00	2024-11-08T03:00:00	1	Precipitación	0
166248	7	Sololá	719	Santiago Atitlán	14	Cerro de Oro	8	Agosto	2023-08-13T00:00:00	2024-11-08T03:00:00	8	Radiación solar	0
166249	7	Sololá	719	Santiago Atitlán	14	Cerro de Oro	8	Agosto	2023-08-13T00:00:00	2024-11-08T04:00:00	2	Temperatura media	20.3
166250	7	Sololá	719	Santiago Atitlán	14	Cerro de Oro	8	Agosto	2023-08-13T00:00:00	2024-11-08T04:00:00	4	Temperatura máxima	20.7
166251	7	Sololá	719	Santiago Atitlán	14	Cerro de Oro	8	Agosto	2023-08-13T00:00:00	2024-11-08T04:00:00	3	Temperatura mínima	20.3
166252	7	Sololá	719	Santiago Atitlán	14	Cerro de Oro	8	Agosto	2023-08-13T00:00:00	2024-11-08T04:00:00	5	Humedad	64
166253	7	Sololá	719	Santiago Atitlán	14	Cerro de Oro	8	Agosto	2023-08-13T00:00:00	2024-11-08T04:00:00	6	Velocidad del viento	6.4
166254	7	Sololá	719	Santiago Atitlán	14	Cerro de Oro	8	Agosto	2023-08-13T00:00:00	2024-11-08T04:00:00	7	Dirección del viento	6.44
166255	7	Sololá	719	Santiago Atitlán	14	Cerro de Oro	8	Agosto	2023-08-13T00:00:00	2024-11-08T04:00:00	1	Precipitación	0
166256	7	Sololá	719	Santiago Atitlán	14	Cerro de Oro	8	Agosto	2023-08-13T00:00:00	2024-11-08T04:00:00	8	Radiación solar	0
166257	7	Sololá	719	Santiago Atitlán	14	Cerro de Oro	8	Agosto	2023-08-13T00:00:00	2024-11-08T05:00:00	2	Temperatura media	19.9
166258	7	Sololá	719	Santiago Atitlán	14	Cerro de Oro	8	Agosto	2023-08-13T00:00:00	2024-11-08T05:00:00	4	Temperatura máxima	20.3
166259	7	Sololá	719	Santiago Atitlán	14	Cerro de Oro	8	Agosto	2023-08-13T00:00:00	2024-11-08T05:00:00	3	Temperatura mínima	19.6
166260	7	Sololá	719	Santiago Atitlán	14	Cerro de Oro	8	Agosto	2023-08-13T00:00:00	2024-11-08T05:00:00	5	Humedad	68
166261	7	Sololá	719	Santiago Atitlán	14	Cerro de Oro	8	Agosto	2023-08-13T00:00:00	2024-11-08T05:00:00	6	Velocidad del viento	4.8
166262	7	Sololá	719	Santiago Atitlán	14	Cerro de Oro	8	Agosto	2023-08-13T00:00:00	2024-11-08T05:00:00	7	Dirección del viento	4.83
166263	7	Sololá	719	Santiago Atitlán	14	Cerro de Oro	8	Agosto	2023-08-13T00:00:00	2024-11-08T05:00:00	1	Precipitación	0
166264	7	Sololá	719	Santiago Atitlán	14	Cerro de Oro	8	Agosto	2023-08-13T00:00:00	2024-11-08T05:00:00	8	Radiación solar	0
166265	7	Sololá	719	Santiago Atitlán	14	Cerro de Oro	8	Agosto	2023-08-13T00:00:00	2024-11-08T06:00:00	2	Temperatura media	20.8
166266	7	Sololá	719	Santiago Atitlán	14	Cerro de Oro	8	Agosto	2023-08-13T00:00:00	2024-11-08T06:00:00	4	Temperatura máxima	20.8
166267	7	Sololá	719	Santiago Atitlán	14	Cerro de Oro	8	Agosto	2023-08-13T00:00:00	2024-11-08T06:00:00	3	Temperatura mínima	19.8
166268	7	Sololá	719	Santiago Atitlán	14	Cerro de Oro	8	Agosto	2023-08-13T00:00:00	2024-11-08T06:00:00	5	Humedad	67
166269	7	Sololá	719	Santiago Atitlán	14	Cerro de Oro	8	Agosto	2023-08-13T00:00:00	2024-11-08T06:00:00	6	Velocidad del viento	4.8
166270	7	Sololá	719	Santiago Atitlán	14	Cerro de Oro	8	Agosto	2023-08-13T00:00:00	2024-11-08T06:00:00	7	Dirección del viento	4.83
166271	7	Sololá	719	Santiago Atitlán	14	Cerro de Oro	8	Agosto	2023-08-13T00:00:00	2024-11-08T06:00:00	1	Precipitación	0
166272	7	Sololá	719	Santiago Atitlán	14	Cerro de Oro	8	Agosto	2023-08-13T00:00:00	2024-11-08T06:00:00	8	Radiación solar	0
166273	7	Sololá	719	Santiago Atitlán	14	Cerro de Oro	8	Agosto	2023-08-13T00:00:00	2024-11-08T07:00:00	2	Temperatura media	21.1
166274	7	Sololá	719	Santiago Atitlán	14	Cerro de Oro	8	Agosto	2023-08-13T00:00:00	2024-11-08T07:00:00	4	Temperatura máxima	21.2
166275	7	Sololá	719	Santiago Atitlán	14	Cerro de Oro	8	Agosto	2023-08-13T00:00:00	2024-11-08T07:00:00	3	Temperatura mínima	20.5
166276	7	Sololá	719	Santiago Atitlán	14	Cerro de Oro	8	Agosto	2023-08-13T00:00:00	2024-11-08T07:00:00	5	Humedad	68
166277	7	Sololá	719	Santiago Atitlán	14	Cerro de Oro	8	Agosto	2023-08-13T00:00:00	2024-11-08T07:00:00	6	Velocidad del viento	4.8
166278	7	Sololá	719	Santiago Atitlán	14	Cerro de Oro	8	Agosto	2023-08-13T00:00:00	2024-11-08T07:00:00	7	Dirección del viento	4.83
166279	7	Sololá	719	Santiago Atitlán	14	Cerro de Oro	8	Agosto	2023-08-13T00:00:00	2024-11-08T07:00:00	1	Precipitación	0
166280	7	Sololá	719	Santiago Atitlán	14	Cerro de Oro	8	Agosto	2023-08-13T00:00:00	2024-11-08T07:00:00	8	Radiación solar	50
166281	7	Sololá	719	Santiago Atitlán	14	Cerro de Oro	8	Agosto	2023-08-13T00:00:00	2024-11-08T08:00:00	2	Temperatura media	22.7
166282	7	Sololá	719	Santiago Atitlán	14	Cerro de Oro	8	Agosto	2023-08-13T00:00:00	2024-11-08T08:00:00	4	Temperatura máxima	22.7
166283	7	Sololá	719	Santiago Atitlán	14	Cerro de Oro	8	Agosto	2023-08-13T00:00:00	2024-11-08T08:00:00	3	Temperatura mínima	20.9
166284	7	Sololá	719	Santiago Atitlán	14	Cerro de Oro	8	Agosto	2023-08-13T00:00:00	2024-11-08T08:00:00	5	Humedad	67
166285	7	Sololá	719	Santiago Atitlán	14	Cerro de Oro	8	Agosto	2023-08-13T00:00:00	2024-11-08T08:00:00	6	Velocidad del viento	3.2
166286	7	Sololá	719	Santiago Atitlán	14	Cerro de Oro	8	Agosto	2023-08-13T00:00:00	2024-11-08T08:00:00	7	Dirección del viento	3.22
166287	7	Sololá	719	Santiago Atitlán	14	Cerro de Oro	8	Agosto	2023-08-13T00:00:00	2024-11-08T08:00:00	1	Precipitación	0
166288	7	Sololá	719	Santiago Atitlán	14	Cerro de Oro	8	Agosto	2023-08-13T00:00:00	2024-11-08T08:00:00	8	Radiación solar	207
166289	7	Sololá	719	Santiago Atitlán	14	Cerro de Oro	8	Agosto	2023-08-13T00:00:00	2024-11-08T09:00:00	2	Temperatura media	23.1
166290	7	Sololá	719	Santiago Atitlán	14	Cerro de Oro	8	Agosto	2023-08-13T00:00:00	2024-11-08T09:00:00	4	Temperatura máxima	23.2
166291	7	Sololá	719	Santiago Atitlán	14	Cerro de Oro	8	Agosto	2023-08-13T00:00:00	2024-11-08T09:00:00	3	Temperatura mínima	22.7
166292	7	Sololá	719	Santiago Atitlán	14	Cerro de Oro	8	Agosto	2023-08-13T00:00:00	2024-11-08T09:00:00	5	Humedad	64
166293	7	Sololá	719	Santiago Atitlán	14	Cerro de Oro	8	Agosto	2023-08-13T00:00:00	2024-11-08T09:00:00	6	Velocidad del viento	8
166294	7	Sololá	719	Santiago Atitlán	14	Cerro de Oro	8	Agosto	2023-08-13T00:00:00	2024-11-08T09:00:00	7	Dirección del viento	8.05
166295	7	Sololá	719	Santiago Atitlán	14	Cerro de Oro	8	Agosto	2023-08-13T00:00:00	2024-11-08T09:00:00	1	Precipitación	0
166296	7	Sololá	719	Santiago Atitlán	14	Cerro de Oro	8	Agosto	2023-08-13T00:00:00	2024-11-08T09:00:00	8	Radiación solar	416
166297	7	Sololá	719	Santiago Atitlán	14	Cerro de Oro	8	Agosto	2023-08-13T00:00:00	2024-11-08T10:00:00	2	Temperatura media	24.8
166298	7	Sololá	719	Santiago Atitlán	14	Cerro de Oro	8	Agosto	2023-08-13T00:00:00	2024-11-08T10:00:00	4	Temperatura máxima	25.2
166299	7	Sololá	719	Santiago Atitlán	14	Cerro de Oro	8	Agosto	2023-08-13T00:00:00	2024-11-08T10:00:00	3	Temperatura mínima	23.1
166300	7	Sololá	719	Santiago Atitlán	14	Cerro de Oro	8	Agosto	2023-08-13T00:00:00	2024-11-08T10:00:00	5	Humedad	61
166301	7	Sololá	719	Santiago Atitlán	14	Cerro de Oro	8	Agosto	2023-08-13T00:00:00	2024-11-08T10:00:00	6	Velocidad del viento	6.4
166302	7	Sololá	719	Santiago Atitlán	14	Cerro de Oro	8	Agosto	2023-08-13T00:00:00	2024-11-08T10:00:00	7	Dirección del viento	6.44
166303	7	Sololá	719	Santiago Atitlán	14	Cerro de Oro	8	Agosto	2023-08-13T00:00:00	2024-11-08T10:00:00	1	Precipitación	0
166304	7	Sololá	719	Santiago Atitlán	14	Cerro de Oro	8	Agosto	2023-08-13T00:00:00	2024-11-08T10:00:00	8	Radiación solar	748
166305	7	Sololá	719	Santiago Atitlán	14	Cerro de Oro	8	Agosto	2023-08-13T00:00:00	2024-11-08T11:00:00	2	Temperatura media	24.4
166306	7	Sololá	719	Santiago Atitlán	14	Cerro de Oro	8	Agosto	2023-08-13T00:00:00	2024-11-08T11:00:00	4	Temperatura máxima	25.1
166307	7	Sololá	719	Santiago Atitlán	14	Cerro de Oro	8	Agosto	2023-08-13T00:00:00	2024-11-08T11:00:00	3	Temperatura mínima	24.3
166308	7	Sololá	719	Santiago Atitlán	14	Cerro de Oro	8	Agosto	2023-08-13T00:00:00	2024-11-08T11:00:00	5	Humedad	61
166309	7	Sololá	719	Santiago Atitlán	14	Cerro de Oro	8	Agosto	2023-08-13T00:00:00	2024-11-08T11:00:00	6	Velocidad del viento	12.9
166310	7	Sololá	719	Santiago Atitlán	14	Cerro de Oro	8	Agosto	2023-08-13T00:00:00	2024-11-08T11:00:00	7	Dirección del viento	12.87
166311	7	Sololá	719	Santiago Atitlán	14	Cerro de Oro	8	Agosto	2023-08-13T00:00:00	2024-11-08T11:00:00	1	Precipitación	0
166312	7	Sololá	719	Santiago Atitlán	14	Cerro de Oro	8	Agosto	2023-08-13T00:00:00	2024-11-08T11:00:00	8	Radiación solar	871
166313	7	Sololá	719	Santiago Atitlán	14	Cerro de Oro	8	Agosto	2023-08-13T00:00:00	2024-11-08T12:00:00	2	Temperatura media	24.5
166314	7	Sololá	719	Santiago Atitlán	14	Cerro de Oro	8	Agosto	2023-08-13T00:00:00	2024-11-08T12:00:00	4	Temperatura máxima	25.6
166315	7	Sololá	719	Santiago Atitlán	14	Cerro de Oro	8	Agosto	2023-08-13T00:00:00	2024-11-08T12:00:00	3	Temperatura mínima	24
166316	7	Sololá	719	Santiago Atitlán	14	Cerro de Oro	8	Agosto	2023-08-13T00:00:00	2024-11-08T12:00:00	5	Humedad	62
166317	7	Sololá	719	Santiago Atitlán	14	Cerro de Oro	8	Agosto	2023-08-13T00:00:00	2024-11-08T12:00:00	6	Velocidad del viento	9.7
166318	7	Sololá	719	Santiago Atitlán	14	Cerro de Oro	8	Agosto	2023-08-13T00:00:00	2024-11-08T12:00:00	7	Dirección del viento	9.66
166319	7	Sololá	719	Santiago Atitlán	14	Cerro de Oro	8	Agosto	2023-08-13T00:00:00	2024-11-08T12:00:00	1	Precipitación	0
166320	7	Sololá	719	Santiago Atitlán	14	Cerro de Oro	8	Agosto	2023-08-13T00:00:00	2024-11-08T12:00:00	8	Radiación solar	569
166321	7	Sololá	719	Santiago Atitlán	14	Cerro de Oro	8	Agosto	2023-08-13T00:00:00	2024-11-08T13:00:00	2	Temperatura media	23.1
166322	7	Sololá	719	Santiago Atitlán	14	Cerro de Oro	8	Agosto	2023-08-13T00:00:00	2024-11-08T13:00:00	4	Temperatura máxima	24.7
166323	7	Sololá	719	Santiago Atitlán	14	Cerro de Oro	8	Agosto	2023-08-13T00:00:00	2024-11-08T13:00:00	3	Temperatura mínima	22.1
166324	7	Sololá	719	Santiago Atitlán	14	Cerro de Oro	8	Agosto	2023-08-13T00:00:00	2024-11-08T13:00:00	5	Humedad	71
166325	7	Sololá	719	Santiago Atitlán	14	Cerro de Oro	8	Agosto	2023-08-13T00:00:00	2024-11-08T13:00:00	6	Velocidad del viento	11.3
166326	7	Sololá	719	Santiago Atitlán	14	Cerro de Oro	8	Agosto	2023-08-13T00:00:00	2024-11-08T13:00:00	7	Dirección del viento	11.27
166327	7	Sololá	719	Santiago Atitlán	14	Cerro de Oro	8	Agosto	2023-08-13T00:00:00	2024-11-08T13:00:00	1	Precipitación	0
166328	7	Sololá	719	Santiago Atitlán	14	Cerro de Oro	8	Agosto	2023-08-13T00:00:00	2024-11-08T13:00:00	8	Radiación solar	321
166329	7	Sololá	719	Santiago Atitlán	14	Cerro de Oro	8	Agosto	2023-08-13T00:00:00	2024-11-08T14:00:00	2	Temperatura media	22.3
166330	7	Sololá	719	Santiago Atitlán	14	Cerro de Oro	8	Agosto	2023-08-13T00:00:00	2024-11-08T14:00:00	4	Temperatura máxima	24.1
166331	7	Sololá	719	Santiago Atitlán	14	Cerro de Oro	8	Agosto	2023-08-13T00:00:00	2024-11-08T14:00:00	3	Temperatura mínima	22.2
166332	7	Sololá	719	Santiago Atitlán	14	Cerro de Oro	8	Agosto	2023-08-13T00:00:00	2024-11-08T14:00:00	5	Humedad	80
166333	7	Sololá	719	Santiago Atitlán	14	Cerro de Oro	8	Agosto	2023-08-13T00:00:00	2024-11-08T14:00:00	6	Velocidad del viento	9.7
166334	7	Sololá	719	Santiago Atitlán	14	Cerro de Oro	8	Agosto	2023-08-13T00:00:00	2024-11-08T14:00:00	7	Dirección del viento	9.66
166335	7	Sololá	719	Santiago Atitlán	14	Cerro de Oro	8	Agosto	2023-08-13T00:00:00	2024-11-08T14:00:00	1	Precipitación	0
166336	7	Sololá	719	Santiago Atitlán	14	Cerro de Oro	8	Agosto	2023-08-13T00:00:00	2024-11-08T14:00:00	8	Radiación solar	221
166337	7	Sololá	719	Santiago Atitlán	14	Cerro de Oro	8	Agosto	2023-08-13T00:00:00	2024-11-08T15:00:00	2	Temperatura media	21.1
166338	7	Sololá	719	Santiago Atitlán	14	Cerro de Oro	8	Agosto	2023-08-13T00:00:00	2024-11-08T15:00:00	4	Temperatura máxima	22.8
166339	7	Sololá	719	Santiago Atitlán	14	Cerro de Oro	8	Agosto	2023-08-13T00:00:00	2024-11-08T15:00:00	3	Temperatura mínima	21.1
166340	7	Sololá	719	Santiago Atitlán	14	Cerro de Oro	8	Agosto	2023-08-13T00:00:00	2024-11-08T15:00:00	5	Humedad	84
166341	7	Sololá	719	Santiago Atitlán	14	Cerro de Oro	8	Agosto	2023-08-13T00:00:00	2024-11-08T15:00:00	6	Velocidad del viento	12.9
166342	7	Sololá	719	Santiago Atitlán	14	Cerro de Oro	8	Agosto	2023-08-13T00:00:00	2024-11-08T15:00:00	7	Dirección del viento	12.87
166343	7	Sololá	719	Santiago Atitlán	14	Cerro de Oro	8	Agosto	2023-08-13T00:00:00	2024-11-08T15:00:00	1	Precipitación	0
166344	7	Sololá	719	Santiago Atitlán	14	Cerro de Oro	8	Agosto	2023-08-13T00:00:00	2024-11-08T15:00:00	8	Radiación solar	358
166345	7	Sololá	719	Santiago Atitlán	14	Cerro de Oro	8	Agosto	2023-08-13T00:00:00	2024-11-08T16:00:00	2	Temperatura media	20.9
166346	7	Sololá	719	Santiago Atitlán	14	Cerro de Oro	8	Agosto	2023-08-13T00:00:00	2024-11-08T16:00:00	4	Temperatura máxima	21.4
166347	7	Sololá	719	Santiago Atitlán	14	Cerro de Oro	8	Agosto	2023-08-13T00:00:00	2024-11-08T16:00:00	3	Temperatura mínima	20.4
166348	7	Sololá	719	Santiago Atitlán	14	Cerro de Oro	8	Agosto	2023-08-13T00:00:00	2024-11-08T16:00:00	5	Humedad	82
166349	7	Sololá	719	Santiago Atitlán	14	Cerro de Oro	8	Agosto	2023-08-13T00:00:00	2024-11-08T16:00:00	6	Velocidad del viento	11.3
166350	7	Sololá	719	Santiago Atitlán	14	Cerro de Oro	8	Agosto	2023-08-13T00:00:00	2024-11-08T16:00:00	7	Dirección del viento	11.27
166351	7	Sololá	719	Santiago Atitlán	14	Cerro de Oro	8	Agosto	2023-08-13T00:00:00	2024-11-08T16:00:00	1	Precipitación	0
166352	7	Sololá	719	Santiago Atitlán	14	Cerro de Oro	8	Agosto	2023-08-13T00:00:00	2024-11-08T16:00:00	8	Radiación solar	214
166353	7	Sololá	719	Santiago Atitlán	14	Cerro de Oro	8	Agosto	2023-08-13T00:00:00	2024-11-08T17:00:00	2	Temperatura media	20.3
166354	7	Sololá	719	Santiago Atitlán	14	Cerro de Oro	8	Agosto	2023-08-13T00:00:00	2024-11-08T17:00:00	4	Temperatura máxima	21.3
166355	7	Sololá	719	Santiago Atitlán	14	Cerro de Oro	8	Agosto	2023-08-13T00:00:00	2024-11-08T17:00:00	3	Temperatura mínima	20.2
166356	7	Sololá	719	Santiago Atitlán	14	Cerro de Oro	8	Agosto	2023-08-13T00:00:00	2024-11-08T17:00:00	5	Humedad	84
166357	7	Sololá	719	Santiago Atitlán	14	Cerro de Oro	8	Agosto	2023-08-13T00:00:00	2024-11-08T17:00:00	6	Velocidad del viento	9.7
166358	7	Sololá	719	Santiago Atitlán	14	Cerro de Oro	8	Agosto	2023-08-13T00:00:00	2024-11-08T17:00:00	7	Dirección del viento	9.66
166359	7	Sololá	719	Santiago Atitlán	14	Cerro de Oro	8	Agosto	2023-08-13T00:00:00	2024-11-08T17:00:00	1	Precipitación	0
166360	7	Sololá	719	Santiago Atitlán	14	Cerro de Oro	8	Agosto	2023-08-13T00:00:00	2024-11-08T17:00:00	8	Radiación solar	149
166361	7	Sololá	719	Santiago Atitlán	14	Cerro de Oro	8	Agosto	2023-08-13T00:00:00	2024-11-08T18:00:00	2	Temperatura media	20.1
166362	7	Sololá	719	Santiago Atitlán	14	Cerro de Oro	8	Agosto	2023-08-13T00:00:00	2024-11-08T18:00:00	4	Temperatura máxima	20.4
166363	7	Sololá	719	Santiago Atitlán	14	Cerro de Oro	8	Agosto	2023-08-13T00:00:00	2024-11-08T18:00:00	3	Temperatura mínima	19.9
166364	7	Sololá	719	Santiago Atitlán	14	Cerro de Oro	8	Agosto	2023-08-13T00:00:00	2024-11-08T18:00:00	5	Humedad	84
166365	7	Sololá	719	Santiago Atitlán	14	Cerro de Oro	8	Agosto	2023-08-13T00:00:00	2024-11-08T18:00:00	6	Velocidad del viento	9.7
166366	7	Sololá	719	Santiago Atitlán	14	Cerro de Oro	8	Agosto	2023-08-13T00:00:00	2024-11-08T18:00:00	7	Dirección del viento	9.66
166367	7	Sololá	719	Santiago Atitlán	14	Cerro de Oro	8	Agosto	2023-08-13T00:00:00	2024-11-08T18:00:00	1	Precipitación	0
166368	7	Sololá	719	Santiago Atitlán	14	Cerro de Oro	8	Agosto	2023-08-13T00:00:00	2024-11-08T18:00:00	8	Radiación solar	77
166369	7	Sololá	719	Santiago Atitlán	14	Cerro de Oro	8	Agosto	2023-08-13T00:00:00	2024-11-08T19:00:00	2	Temperatura media	18.7
166370	7	Sololá	719	Santiago Atitlán	14	Cerro de Oro	8	Agosto	2023-08-13T00:00:00	2024-11-08T19:00:00	4	Temperatura máxima	20.3
166371	7	Sololá	719	Santiago Atitlán	14	Cerro de Oro	8	Agosto	2023-08-13T00:00:00	2024-11-08T19:00:00	3	Temperatura mínima	18.6
166372	7	Sololá	719	Santiago Atitlán	14	Cerro de Oro	8	Agosto	2023-08-13T00:00:00	2024-11-08T19:00:00	5	Humedad	91
166373	7	Sololá	719	Santiago Atitlán	14	Cerro de Oro	8	Agosto	2023-08-13T00:00:00	2024-11-08T19:00:00	6	Velocidad del viento	4.8
166374	7	Sololá	719	Santiago Atitlán	14	Cerro de Oro	8	Agosto	2023-08-13T00:00:00	2024-11-08T19:00:00	7	Dirección del viento	4.83
166375	7	Sololá	719	Santiago Atitlán	14	Cerro de Oro	8	Agosto	2023-08-13T00:00:00	2024-11-08T19:00:00	1	Precipitación	8.8
166376	7	Sololá	719	Santiago Atitlán	14	Cerro de Oro	8	Agosto	2023-08-13T00:00:00	2024-11-08T19:00:00	8	Radiación solar	0
166377	7	Sololá	719	Santiago Atitlán	14	Cerro de Oro	8	Agosto	2023-08-13T00:00:00	2024-11-08T20:00:00	2	Temperatura media	18.2
166378	7	Sololá	719	Santiago Atitlán	14	Cerro de Oro	8	Agosto	2023-08-13T00:00:00	2024-11-08T20:00:00	4	Temperatura máxima	18.7
166379	7	Sololá	719	Santiago Atitlán	14	Cerro de Oro	8	Agosto	2023-08-13T00:00:00	2024-11-08T20:00:00	3	Temperatura mínima	18.2
166380	7	Sololá	719	Santiago Atitlán	14	Cerro de Oro	8	Agosto	2023-08-13T00:00:00	2024-11-08T20:00:00	5	Humedad	88
166381	7	Sololá	719	Santiago Atitlán	14	Cerro de Oro	8	Agosto	2023-08-13T00:00:00	2024-11-08T20:00:00	6	Velocidad del viento	6.4
166382	7	Sololá	719	Santiago Atitlán	14	Cerro de Oro	8	Agosto	2023-08-13T00:00:00	2024-11-08T20:00:00	7	Dirección del viento	6.44
166383	7	Sololá	719	Santiago Atitlán	14	Cerro de Oro	8	Agosto	2023-08-13T00:00:00	2024-11-08T20:00:00	1	Precipitación	0
166384	7	Sololá	719	Santiago Atitlán	14	Cerro de Oro	8	Agosto	2023-08-13T00:00:00	2024-11-08T20:00:00	8	Radiación solar	0
166385	7	Sololá	719	Santiago Atitlán	14	Cerro de Oro	8	Agosto	2023-08-13T00:00:00	2024-11-08T21:00:00	2	Temperatura media	18.9
166386	7	Sololá	719	Santiago Atitlán	14	Cerro de Oro	8	Agosto	2023-08-13T00:00:00	2024-11-08T21:00:00	4	Temperatura máxima	18.9
166387	7	Sololá	719	Santiago Atitlán	14	Cerro de Oro	8	Agosto	2023-08-13T00:00:00	2024-11-08T21:00:00	3	Temperatura mínima	18.2
166388	7	Sololá	719	Santiago Atitlán	14	Cerro de Oro	8	Agosto	2023-08-13T00:00:00	2024-11-08T21:00:00	5	Humedad	83
166389	7	Sololá	719	Santiago Atitlán	14	Cerro de Oro	8	Agosto	2023-08-13T00:00:00	2024-11-08T21:00:00	6	Velocidad del viento	6.4
166390	7	Sololá	719	Santiago Atitlán	14	Cerro de Oro	8	Agosto	2023-08-13T00:00:00	2024-11-08T21:00:00	7	Dirección del viento	6.44
166391	7	Sololá	719	Santiago Atitlán	14	Cerro de Oro	8	Agosto	2023-08-13T00:00:00	2024-11-08T21:00:00	1	Precipitación	0
166392	7	Sololá	719	Santiago Atitlán	14	Cerro de Oro	8	Agosto	2023-08-13T00:00:00	2024-11-08T21:00:00	8	Radiación solar	0
166393	7	Sololá	719	Santiago Atitlán	14	Cerro de Oro	8	Agosto	2023-08-13T00:00:00	2024-11-08T22:00:00	2	Temperatura media	19.5
166394	7	Sololá	719	Santiago Atitlán	14	Cerro de Oro	8	Agosto	2023-08-13T00:00:00	2024-11-08T22:00:00	4	Temperatura máxima	19.7
166395	7	Sololá	719	Santiago Atitlán	14	Cerro de Oro	8	Agosto	2023-08-13T00:00:00	2024-11-08T22:00:00	3	Temperatura mínima	18.9
166396	7	Sololá	719	Santiago Atitlán	14	Cerro de Oro	8	Agosto	2023-08-13T00:00:00	2024-11-08T22:00:00	5	Humedad	82
166397	7	Sololá	719	Santiago Atitlán	14	Cerro de Oro	8	Agosto	2023-08-13T00:00:00	2024-11-08T22:00:00	6	Velocidad del viento	8
166398	7	Sololá	719	Santiago Atitlán	14	Cerro de Oro	8	Agosto	2023-08-13T00:00:00	2024-11-08T22:00:00	7	Dirección del viento	8.05
166399	7	Sololá	719	Santiago Atitlán	14	Cerro de Oro	8	Agosto	2023-08-13T00:00:00	2024-11-08T22:00:00	1	Precipitación	0
166400	7	Sololá	719	Santiago Atitlán	14	Cerro de Oro	8	Agosto	2023-08-13T00:00:00	2024-11-08T22:00:00	8	Radiación solar	0
166401	7	Sololá	719	Santiago Atitlán	14	Cerro de Oro	8	Agosto	2023-08-13T00:00:00	2024-11-08T23:00:00	2	Temperatura media	19.3
166402	7	Sololá	719	Santiago Atitlán	14	Cerro de Oro	8	Agosto	2023-08-13T00:00:00	2024-11-08T23:00:00	4	Temperatura máxima	20.4
166403	7	Sololá	719	Santiago Atitlán	14	Cerro de Oro	8	Agosto	2023-08-13T00:00:00	2024-11-08T23:00:00	3	Temperatura mínima	19.3
166404	7	Sololá	719	Santiago Atitlán	14	Cerro de Oro	8	Agosto	2023-08-13T00:00:00	2024-11-08T23:00:00	5	Humedad	82
166405	7	Sololá	719	Santiago Atitlán	14	Cerro de Oro	8	Agosto	2023-08-13T00:00:00	2024-11-08T23:00:00	6	Velocidad del viento	4.8
166406	7	Sololá	719	Santiago Atitlán	14	Cerro de Oro	8	Agosto	2023-08-13T00:00:00	2024-11-08T23:00:00	7	Dirección del viento	4.83
166407	7	Sololá	719	Santiago Atitlán	14	Cerro de Oro	8	Agosto	2023-08-13T00:00:00	2024-11-08T23:00:00	1	Precipitación	0
166408	7	Sololá	719	Santiago Atitlán	14	Cerro de Oro	8	Agosto	2023-08-13T00:00:00	2024-11-08T23:00:00	8	Radiación solar	0
166409	7	Sololá	719	Santiago Atitlán	14	Cerro de Oro	8	Agosto	2023-08-14T00:00:00	2024-11-08T00:00:00	2	Temperatura media	20.3
166410	7	Sololá	719	Santiago Atitlán	14	Cerro de Oro	8	Agosto	2023-08-14T00:00:00	2024-11-08T00:00:00	4	Temperatura máxima	20.3
166411	7	Sololá	719	Santiago Atitlán	14	Cerro de Oro	8	Agosto	2023-08-14T00:00:00	2024-11-08T00:00:00	3	Temperatura mínima	19.2
166412	7	Sololá	719	Santiago Atitlán	14	Cerro de Oro	8	Agosto	2023-08-14T00:00:00	2024-11-08T00:00:00	5	Humedad	75
166413	7	Sololá	719	Santiago Atitlán	14	Cerro de Oro	8	Agosto	2023-08-14T00:00:00	2024-11-08T00:00:00	6	Velocidad del viento	6.4
166414	7	Sololá	719	Santiago Atitlán	14	Cerro de Oro	8	Agosto	2023-08-14T00:00:00	2024-11-08T00:00:00	7	Dirección del viento	6.44
166415	7	Sololá	719	Santiago Atitlán	14	Cerro de Oro	8	Agosto	2023-08-14T00:00:00	2024-11-08T00:00:00	1	Precipitación	0
166416	7	Sololá	719	Santiago Atitlán	14	Cerro de Oro	8	Agosto	2023-08-14T00:00:00	2024-11-08T00:00:00	8	Radiación solar	0
166417	7	Sololá	719	Santiago Atitlán	14	Cerro de Oro	8	Agosto	2023-08-14T00:00:00	2024-11-08T01:00:00	2	Temperatura media	20.6
166418	7	Sololá	719	Santiago Atitlán	14	Cerro de Oro	8	Agosto	2023-08-14T00:00:00	2024-11-08T01:00:00	4	Temperatura máxima	20.7
166419	7	Sololá	719	Santiago Atitlán	14	Cerro de Oro	8	Agosto	2023-08-14T00:00:00	2024-11-08T01:00:00	3	Temperatura mínima	20.3
166420	7	Sololá	719	Santiago Atitlán	14	Cerro de Oro	8	Agosto	2023-08-14T00:00:00	2024-11-08T01:00:00	5	Humedad	75
166421	7	Sololá	719	Santiago Atitlán	14	Cerro de Oro	8	Agosto	2023-08-14T00:00:00	2024-11-08T01:00:00	6	Velocidad del viento	9.7
166422	7	Sololá	719	Santiago Atitlán	14	Cerro de Oro	8	Agosto	2023-08-14T00:00:00	2024-11-08T01:00:00	7	Dirección del viento	9.66
166423	7	Sololá	719	Santiago Atitlán	14	Cerro de Oro	8	Agosto	2023-08-14T00:00:00	2024-11-08T01:00:00	1	Precipitación	0
166424	7	Sololá	719	Santiago Atitlán	14	Cerro de Oro	8	Agosto	2023-08-14T00:00:00	2024-11-08T01:00:00	8	Radiación solar	0
166425	7	Sololá	719	Santiago Atitlán	14	Cerro de Oro	8	Agosto	2023-08-14T00:00:00	2024-11-08T02:00:00	2	Temperatura media	20.2
166426	7	Sololá	719	Santiago Atitlán	14	Cerro de Oro	8	Agosto	2023-08-14T00:00:00	2024-11-08T02:00:00	4	Temperatura máxima	20.6
166427	7	Sololá	719	Santiago Atitlán	14	Cerro de Oro	8	Agosto	2023-08-14T00:00:00	2024-11-08T02:00:00	3	Temperatura mínima	20.2
166428	7	Sololá	719	Santiago Atitlán	14	Cerro de Oro	8	Agosto	2023-08-14T00:00:00	2024-11-08T02:00:00	5	Humedad	73
166429	7	Sololá	719	Santiago Atitlán	14	Cerro de Oro	8	Agosto	2023-08-14T00:00:00	2024-11-08T02:00:00	6	Velocidad del viento	6.4
166430	7	Sololá	719	Santiago Atitlán	14	Cerro de Oro	8	Agosto	2023-08-14T00:00:00	2024-11-08T02:00:00	7	Dirección del viento	6.44
166431	7	Sololá	719	Santiago Atitlán	14	Cerro de Oro	8	Agosto	2023-08-14T00:00:00	2024-11-08T02:00:00	1	Precipitación	0
166432	7	Sololá	719	Santiago Atitlán	14	Cerro de Oro	8	Agosto	2023-08-14T00:00:00	2024-11-08T02:00:00	8	Radiación solar	0
166433	7	Sololá	719	Santiago Atitlán	14	Cerro de Oro	8	Agosto	2023-08-14T00:00:00	2024-11-08T03:00:00	2	Temperatura media	20.3
166434	7	Sololá	719	Santiago Atitlán	14	Cerro de Oro	8	Agosto	2023-08-14T00:00:00	2024-11-08T03:00:00	4	Temperatura máxima	20.6
166435	7	Sololá	719	Santiago Atitlán	14	Cerro de Oro	8	Agosto	2023-08-14T00:00:00	2024-11-08T03:00:00	3	Temperatura mínima	19.9
166436	7	Sololá	719	Santiago Atitlán	14	Cerro de Oro	8	Agosto	2023-08-14T00:00:00	2024-11-08T03:00:00	5	Humedad	73
166437	7	Sololá	719	Santiago Atitlán	14	Cerro de Oro	8	Agosto	2023-08-14T00:00:00	2024-11-08T03:00:00	6	Velocidad del viento	8
166438	7	Sololá	719	Santiago Atitlán	14	Cerro de Oro	8	Agosto	2023-08-14T00:00:00	2024-11-08T03:00:00	7	Dirección del viento	8.05
166439	7	Sololá	719	Santiago Atitlán	14	Cerro de Oro	8	Agosto	2023-08-14T00:00:00	2024-11-08T03:00:00	1	Precipitación	0
166440	7	Sololá	719	Santiago Atitlán	14	Cerro de Oro	8	Agosto	2023-08-14T00:00:00	2024-11-08T03:00:00	8	Radiación solar	0
166441	7	Sololá	719	Santiago Atitlán	14	Cerro de Oro	8	Agosto	2023-08-14T00:00:00	2024-11-08T04:00:00	2	Temperatura media	19.5
166442	7	Sololá	719	Santiago Atitlán	14	Cerro de Oro	8	Agosto	2023-08-14T00:00:00	2024-11-08T04:00:00	4	Temperatura máxima	20.3
166443	7	Sololá	719	Santiago Atitlán	14	Cerro de Oro	8	Agosto	2023-08-14T00:00:00	2024-11-08T04:00:00	3	Temperatura mínima	19.3
166444	7	Sololá	719	Santiago Atitlán	14	Cerro de Oro	8	Agosto	2023-08-14T00:00:00	2024-11-08T04:00:00	5	Humedad	74
166445	7	Sololá	719	Santiago Atitlán	14	Cerro de Oro	8	Agosto	2023-08-14T00:00:00	2024-11-08T04:00:00	6	Velocidad del viento	6.4
166446	7	Sololá	719	Santiago Atitlán	14	Cerro de Oro	8	Agosto	2023-08-14T00:00:00	2024-11-08T04:00:00	7	Dirección del viento	6.44
166447	7	Sololá	719	Santiago Atitlán	14	Cerro de Oro	8	Agosto	2023-08-14T00:00:00	2024-11-08T04:00:00	1	Precipitación	0
166448	7	Sololá	719	Santiago Atitlán	14	Cerro de Oro	8	Agosto	2023-08-14T00:00:00	2024-11-08T04:00:00	8	Radiación solar	0
166449	7	Sololá	719	Santiago Atitlán	14	Cerro de Oro	8	Agosto	2023-08-14T00:00:00	2024-11-08T05:00:00	2	Temperatura media	19.7
166450	7	Sololá	719	Santiago Atitlán	14	Cerro de Oro	8	Agosto	2023-08-14T00:00:00	2024-11-08T05:00:00	4	Temperatura máxima	20.2
166451	7	Sololá	719	Santiago Atitlán	14	Cerro de Oro	8	Agosto	2023-08-14T00:00:00	2024-11-08T05:00:00	3	Temperatura mínima	19.5
166452	7	Sololá	719	Santiago Atitlán	14	Cerro de Oro	8	Agosto	2023-08-14T00:00:00	2024-11-08T05:00:00	5	Humedad	73
166453	7	Sololá	719	Santiago Atitlán	14	Cerro de Oro	8	Agosto	2023-08-14T00:00:00	2024-11-08T05:00:00	6	Velocidad del viento	8
166454	7	Sololá	719	Santiago Atitlán	14	Cerro de Oro	8	Agosto	2023-08-14T00:00:00	2024-11-08T05:00:00	7	Dirección del viento	8.05
166455	7	Sololá	719	Santiago Atitlán	14	Cerro de Oro	8	Agosto	2023-08-14T00:00:00	2024-11-08T05:00:00	1	Precipitación	0
166456	7	Sololá	719	Santiago Atitlán	14	Cerro de Oro	8	Agosto	2023-08-14T00:00:00	2024-11-08T05:00:00	8	Radiación solar	0
166457	7	Sololá	719	Santiago Atitlán	14	Cerro de Oro	8	Agosto	2023-08-14T00:00:00	2024-11-08T06:00:00	2	Temperatura media	19.1
166458	7	Sololá	719	Santiago Atitlán	14	Cerro de Oro	8	Agosto	2023-08-14T00:00:00	2024-11-08T06:00:00	4	Temperatura máxima	19.7
166459	7	Sololá	719	Santiago Atitlán	14	Cerro de Oro	8	Agosto	2023-08-14T00:00:00	2024-11-08T06:00:00	3	Temperatura mínima	18.8
166460	7	Sololá	719	Santiago Atitlán	14	Cerro de Oro	8	Agosto	2023-08-14T00:00:00	2024-11-08T06:00:00	5	Humedad	73
166461	7	Sololá	719	Santiago Atitlán	14	Cerro de Oro	8	Agosto	2023-08-14T00:00:00	2024-11-08T06:00:00	6	Velocidad del viento	6.4
166462	7	Sololá	719	Santiago Atitlán	14	Cerro de Oro	8	Agosto	2023-08-14T00:00:00	2024-11-08T06:00:00	7	Dirección del viento	6.44
166463	7	Sololá	719	Santiago Atitlán	14	Cerro de Oro	8	Agosto	2023-08-14T00:00:00	2024-11-08T06:00:00	1	Precipitación	0
166464	7	Sololá	719	Santiago Atitlán	14	Cerro de Oro	8	Agosto	2023-08-14T00:00:00	2024-11-08T06:00:00	8	Radiación solar	1
166465	7	Sololá	719	Santiago Atitlán	14	Cerro de Oro	8	Agosto	2023-08-14T00:00:00	2024-11-08T07:00:00	2	Temperatura media	19.2
166466	7	Sololá	719	Santiago Atitlán	14	Cerro de Oro	8	Agosto	2023-08-14T00:00:00	2024-11-08T07:00:00	4	Temperatura máxima	19.2
166467	7	Sololá	719	Santiago Atitlán	14	Cerro de Oro	8	Agosto	2023-08-14T00:00:00	2024-11-08T07:00:00	3	Temperatura mínima	18.8
166468	7	Sololá	719	Santiago Atitlán	14	Cerro de Oro	8	Agosto	2023-08-14T00:00:00	2024-11-08T07:00:00	5	Humedad	77
166469	7	Sololá	719	Santiago Atitlán	14	Cerro de Oro	8	Agosto	2023-08-14T00:00:00	2024-11-08T07:00:00	6	Velocidad del viento	6.4
166470	7	Sololá	719	Santiago Atitlán	14	Cerro de Oro	8	Agosto	2023-08-14T00:00:00	2024-11-08T07:00:00	7	Dirección del viento	6.44
166471	7	Sololá	719	Santiago Atitlán	14	Cerro de Oro	8	Agosto	2023-08-14T00:00:00	2024-11-08T07:00:00	1	Precipitación	0
166472	7	Sololá	719	Santiago Atitlán	14	Cerro de Oro	8	Agosto	2023-08-14T00:00:00	2024-11-08T07:00:00	8	Radiación solar	52
166473	7	Sololá	719	Santiago Atitlán	14	Cerro de Oro	8	Agosto	2023-08-14T00:00:00	2024-11-08T08:00:00	2	Temperatura media	22.6
166474	7	Sololá	719	Santiago Atitlán	14	Cerro de Oro	8	Agosto	2023-08-14T00:00:00	2024-11-08T08:00:00	4	Temperatura máxima	22.7
166475	7	Sololá	719	Santiago Atitlán	14	Cerro de Oro	8	Agosto	2023-08-14T00:00:00	2024-11-08T08:00:00	3	Temperatura mínima	19.2
166476	7	Sololá	719	Santiago Atitlán	14	Cerro de Oro	8	Agosto	2023-08-14T00:00:00	2024-11-08T08:00:00	5	Humedad	58
166477	7	Sololá	719	Santiago Atitlán	14	Cerro de Oro	8	Agosto	2023-08-14T00:00:00	2024-11-08T08:00:00	6	Velocidad del viento	4.8
166478	7	Sololá	719	Santiago Atitlán	14	Cerro de Oro	8	Agosto	2023-08-14T00:00:00	2024-11-08T08:00:00	7	Dirección del viento	4.83
166479	7	Sololá	719	Santiago Atitlán	14	Cerro de Oro	8	Agosto	2023-08-14T00:00:00	2024-11-08T08:00:00	1	Precipitación	0
166480	7	Sololá	719	Santiago Atitlán	14	Cerro de Oro	8	Agosto	2023-08-14T00:00:00	2024-11-08T08:00:00	8	Radiación solar	244
166481	7	Sololá	719	Santiago Atitlán	14	Cerro de Oro	8	Agosto	2023-08-14T00:00:00	2024-11-08T09:00:00	2	Temperatura media	22.8
166482	7	Sololá	719	Santiago Atitlán	14	Cerro de Oro	8	Agosto	2023-08-14T00:00:00	2024-11-08T09:00:00	4	Temperatura máxima	23
166483	7	Sololá	719	Santiago Atitlán	14	Cerro de Oro	8	Agosto	2023-08-14T00:00:00	2024-11-08T09:00:00	3	Temperatura mínima	22.4
166484	7	Sololá	719	Santiago Atitlán	14	Cerro de Oro	8	Agosto	2023-08-14T00:00:00	2024-11-08T09:00:00	5	Humedad	59
166485	7	Sololá	719	Santiago Atitlán	14	Cerro de Oro	8	Agosto	2023-08-14T00:00:00	2024-11-08T09:00:00	6	Velocidad del viento	14.5
166486	7	Sololá	719	Santiago Atitlán	14	Cerro de Oro	8	Agosto	2023-08-14T00:00:00	2024-11-08T09:00:00	7	Dirección del viento	14.48
166487	7	Sololá	719	Santiago Atitlán	14	Cerro de Oro	8	Agosto	2023-08-14T00:00:00	2024-11-08T09:00:00	1	Precipitación	0
166488	7	Sololá	719	Santiago Atitlán	14	Cerro de Oro	8	Agosto	2023-08-14T00:00:00	2024-11-08T09:00:00	8	Radiación solar	534
166489	7	Sololá	719	Santiago Atitlán	14	Cerro de Oro	8	Agosto	2023-08-14T00:00:00	2024-11-08T10:00:00	2	Temperatura media	23.6
166490	7	Sololá	719	Santiago Atitlán	14	Cerro de Oro	8	Agosto	2023-08-14T00:00:00	2024-11-08T10:00:00	4	Temperatura máxima	23.6
166491	7	Sololá	719	Santiago Atitlán	14	Cerro de Oro	8	Agosto	2023-08-14T00:00:00	2024-11-08T10:00:00	3	Temperatura mínima	22.8
166492	7	Sololá	719	Santiago Atitlán	14	Cerro de Oro	8	Agosto	2023-08-14T00:00:00	2024-11-08T10:00:00	5	Humedad	56
166493	7	Sololá	719	Santiago Atitlán	14	Cerro de Oro	8	Agosto	2023-08-14T00:00:00	2024-11-08T10:00:00	6	Velocidad del viento	14.5
166494	7	Sololá	719	Santiago Atitlán	14	Cerro de Oro	8	Agosto	2023-08-14T00:00:00	2024-11-08T10:00:00	7	Dirección del viento	14.48
166495	7	Sololá	719	Santiago Atitlán	14	Cerro de Oro	8	Agosto	2023-08-14T00:00:00	2024-11-08T10:00:00	1	Precipitación	0
166496	7	Sololá	719	Santiago Atitlán	14	Cerro de Oro	8	Agosto	2023-08-14T00:00:00	2024-11-08T10:00:00	8	Radiación solar	686
166497	7	Sololá	719	Santiago Atitlán	14	Cerro de Oro	8	Agosto	2023-08-14T00:00:00	2024-11-08T11:00:00	2	Temperatura media	24.4
166498	7	Sololá	719	Santiago Atitlán	14	Cerro de Oro	8	Agosto	2023-08-14T00:00:00	2024-11-08T11:00:00	4	Temperatura máxima	24.8
166499	7	Sololá	719	Santiago Atitlán	14	Cerro de Oro	8	Agosto	2023-08-14T00:00:00	2024-11-08T11:00:00	3	Temperatura mínima	23.6
166500	7	Sololá	719	Santiago Atitlán	14	Cerro de Oro	8	Agosto	2023-08-14T00:00:00	2024-11-08T11:00:00	5	Humedad	55
166501	7	Sololá	719	Santiago Atitlán	14	Cerro de Oro	8	Agosto	2023-08-14T00:00:00	2024-11-08T11:00:00	6	Velocidad del viento	11.3
166502	7	Sololá	719	Santiago Atitlán	14	Cerro de Oro	8	Agosto	2023-08-14T00:00:00	2024-11-08T11:00:00	7	Dirección del viento	11.27
166503	7	Sololá	719	Santiago Atitlán	14	Cerro de Oro	8	Agosto	2023-08-14T00:00:00	2024-11-08T11:00:00	1	Precipitación	0
166504	7	Sololá	719	Santiago Atitlán	14	Cerro de Oro	8	Agosto	2023-08-14T00:00:00	2024-11-08T11:00:00	8	Radiación solar	889
166505	7	Sololá	719	Santiago Atitlán	14	Cerro de Oro	8	Agosto	2023-08-14T00:00:00	2024-11-08T12:00:00	2	Temperatura media	24.6
166506	7	Sololá	719	Santiago Atitlán	14	Cerro de Oro	8	Agosto	2023-08-14T00:00:00	2024-11-08T12:00:00	4	Temperatura máxima	24.8
166507	7	Sololá	719	Santiago Atitlán	14	Cerro de Oro	8	Agosto	2023-08-14T00:00:00	2024-11-08T12:00:00	3	Temperatura mínima	24.3
166508	7	Sololá	719	Santiago Atitlán	14	Cerro de Oro	8	Agosto	2023-08-14T00:00:00	2024-11-08T12:00:00	5	Humedad	52
166509	7	Sololá	719	Santiago Atitlán	14	Cerro de Oro	8	Agosto	2023-08-14T00:00:00	2024-11-08T12:00:00	6	Velocidad del viento	12.9
166510	7	Sololá	719	Santiago Atitlán	14	Cerro de Oro	8	Agosto	2023-08-14T00:00:00	2024-11-08T12:00:00	7	Dirección del viento	12.87
166511	7	Sololá	719	Santiago Atitlán	14	Cerro de Oro	8	Agosto	2023-08-14T00:00:00	2024-11-08T12:00:00	1	Precipitación	0
166512	7	Sololá	719	Santiago Atitlán	14	Cerro de Oro	8	Agosto	2023-08-14T00:00:00	2024-11-08T12:00:00	8	Radiación solar	959
166513	7	Sololá	719	Santiago Atitlán	14	Cerro de Oro	8	Agosto	2023-08-14T00:00:00	2024-11-08T13:00:00	2	Temperatura media	25.2
166514	7	Sololá	719	Santiago Atitlán	14	Cerro de Oro	8	Agosto	2023-08-14T00:00:00	2024-11-08T13:00:00	4	Temperatura máxima	25.2
166515	7	Sololá	719	Santiago Atitlán	14	Cerro de Oro	8	Agosto	2023-08-14T00:00:00	2024-11-08T13:00:00	3	Temperatura mínima	24.3
166516	7	Sololá	719	Santiago Atitlán	14	Cerro de Oro	8	Agosto	2023-08-14T00:00:00	2024-11-08T13:00:00	5	Humedad	54
166517	7	Sololá	719	Santiago Atitlán	14	Cerro de Oro	8	Agosto	2023-08-14T00:00:00	2024-11-08T13:00:00	6	Velocidad del viento	11.3
166518	7	Sololá	719	Santiago Atitlán	14	Cerro de Oro	8	Agosto	2023-08-14T00:00:00	2024-11-08T13:00:00	7	Dirección del viento	11.27
166519	7	Sololá	719	Santiago Atitlán	14	Cerro de Oro	8	Agosto	2023-08-14T00:00:00	2024-11-08T13:00:00	1	Precipitación	0
166520	7	Sololá	719	Santiago Atitlán	14	Cerro de Oro	8	Agosto	2023-08-14T00:00:00	2024-11-08T13:00:00	8	Radiación solar	831
166521	7	Sololá	719	Santiago Atitlán	14	Cerro de Oro	8	Agosto	2023-08-14T00:00:00	2024-11-08T14:00:00	2	Temperatura media	26
166522	7	Sololá	719	Santiago Atitlán	14	Cerro de Oro	8	Agosto	2023-08-14T00:00:00	2024-11-08T14:00:00	4	Temperatura máxima	26.1
166523	7	Sololá	719	Santiago Atitlán	14	Cerro de Oro	8	Agosto	2023-08-14T00:00:00	2024-11-08T14:00:00	3	Temperatura mínima	25.2
166524	7	Sololá	719	Santiago Atitlán	14	Cerro de Oro	8	Agosto	2023-08-14T00:00:00	2024-11-08T14:00:00	5	Humedad	52
166525	7	Sololá	719	Santiago Atitlán	14	Cerro de Oro	8	Agosto	2023-08-14T00:00:00	2024-11-08T14:00:00	6	Velocidad del viento	9.7
166526	7	Sololá	719	Santiago Atitlán	14	Cerro de Oro	8	Agosto	2023-08-14T00:00:00	2024-11-08T14:00:00	7	Dirección del viento	9.66
166527	7	Sololá	719	Santiago Atitlán	14	Cerro de Oro	8	Agosto	2023-08-14T00:00:00	2024-11-08T14:00:00	1	Precipitación	0
166528	7	Sololá	719	Santiago Atitlán	14	Cerro de Oro	8	Agosto	2023-08-14T00:00:00	2024-11-08T14:00:00	8	Radiación solar	944
166529	7	Sololá	719	Santiago Atitlán	14	Cerro de Oro	8	Agosto	2023-08-14T00:00:00	2024-11-08T15:00:00	2	Temperatura media	25.8
166530	7	Sololá	719	Santiago Atitlán	14	Cerro de Oro	8	Agosto	2023-08-14T00:00:00	2024-11-08T15:00:00	4	Temperatura máxima	26.5
166531	7	Sololá	719	Santiago Atitlán	14	Cerro de Oro	8	Agosto	2023-08-14T00:00:00	2024-11-08T15:00:00	3	Temperatura mínima	25.6
166532	7	Sololá	719	Santiago Atitlán	14	Cerro de Oro	8	Agosto	2023-08-14T00:00:00	2024-11-08T15:00:00	5	Humedad	60
166533	7	Sololá	719	Santiago Atitlán	14	Cerro de Oro	8	Agosto	2023-08-14T00:00:00	2024-11-08T15:00:00	6	Velocidad del viento	8
166534	7	Sololá	719	Santiago Atitlán	14	Cerro de Oro	8	Agosto	2023-08-14T00:00:00	2024-11-08T15:00:00	7	Dirección del viento	8.05
166535	7	Sololá	719	Santiago Atitlán	14	Cerro de Oro	8	Agosto	2023-08-14T00:00:00	2024-11-08T15:00:00	1	Precipitación	0
166536	7	Sololá	719	Santiago Atitlán	14	Cerro de Oro	8	Agosto	2023-08-14T00:00:00	2024-11-08T15:00:00	8	Radiación solar	775
166537	7	Sololá	719	Santiago Atitlán	14	Cerro de Oro	8	Agosto	2023-08-14T00:00:00	2024-11-08T16:00:00	2	Temperatura media	24.6
166538	7	Sololá	719	Santiago Atitlán	14	Cerro de Oro	8	Agosto	2023-08-14T00:00:00	2024-11-08T16:00:00	4	Temperatura máxima	25.8
166539	7	Sololá	719	Santiago Atitlán	14	Cerro de Oro	8	Agosto	2023-08-14T00:00:00	2024-11-08T16:00:00	3	Temperatura mínima	23.6
166540	7	Sololá	719	Santiago Atitlán	14	Cerro de Oro	8	Agosto	2023-08-14T00:00:00	2024-11-08T16:00:00	5	Humedad	66
166541	7	Sololá	719	Santiago Atitlán	14	Cerro de Oro	8	Agosto	2023-08-14T00:00:00	2024-11-08T16:00:00	6	Velocidad del viento	9.7
166542	7	Sololá	719	Santiago Atitlán	14	Cerro de Oro	8	Agosto	2023-08-14T00:00:00	2024-11-08T16:00:00	7	Dirección del viento	9.66
166543	7	Sololá	719	Santiago Atitlán	14	Cerro de Oro	8	Agosto	2023-08-14T00:00:00	2024-11-08T16:00:00	1	Precipitación	0
166544	7	Sololá	719	Santiago Atitlán	14	Cerro de Oro	8	Agosto	2023-08-14T00:00:00	2024-11-08T16:00:00	8	Radiación solar	585
166545	7	Sololá	719	Santiago Atitlán	14	Cerro de Oro	8	Agosto	2023-08-14T00:00:00	2024-11-08T17:00:00	2	Temperatura media	24.5
166546	7	Sololá	719	Santiago Atitlán	14	Cerro de Oro	8	Agosto	2023-08-14T00:00:00	2024-11-08T17:00:00	4	Temperatura máxima	24.7
166547	7	Sololá	719	Santiago Atitlán	14	Cerro de Oro	8	Agosto	2023-08-14T00:00:00	2024-11-08T17:00:00	3	Temperatura mínima	24.3
166548	7	Sololá	719	Santiago Atitlán	14	Cerro de Oro	8	Agosto	2023-08-14T00:00:00	2024-11-08T17:00:00	5	Humedad	62
166549	7	Sololá	719	Santiago Atitlán	14	Cerro de Oro	8	Agosto	2023-08-14T00:00:00	2024-11-08T17:00:00	6	Velocidad del viento	4.8
166550	7	Sololá	719	Santiago Atitlán	14	Cerro de Oro	8	Agosto	2023-08-14T00:00:00	2024-11-08T17:00:00	7	Dirección del viento	4.83
166551	7	Sololá	719	Santiago Atitlán	14	Cerro de Oro	8	Agosto	2023-08-14T00:00:00	2024-11-08T17:00:00	1	Precipitación	0
166552	7	Sololá	719	Santiago Atitlán	14	Cerro de Oro	8	Agosto	2023-08-14T00:00:00	2024-11-08T17:00:00	8	Radiación solar	301
166553	7	Sololá	719	Santiago Atitlán	14	Cerro de Oro	8	Agosto	2023-08-14T00:00:00	2024-11-08T18:00:00	2	Temperatura media	22
166554	7	Sololá	719	Santiago Atitlán	14	Cerro de Oro	8	Agosto	2023-08-14T00:00:00	2024-11-08T18:00:00	4	Temperatura máxima	24.4
166555	7	Sololá	719	Santiago Atitlán	14	Cerro de Oro	8	Agosto	2023-08-14T00:00:00	2024-11-08T18:00:00	3	Temperatura mínima	22
166556	7	Sololá	719	Santiago Atitlán	14	Cerro de Oro	8	Agosto	2023-08-14T00:00:00	2024-11-08T18:00:00	5	Humedad	76
166557	7	Sololá	719	Santiago Atitlán	14	Cerro de Oro	8	Agosto	2023-08-14T00:00:00	2024-11-08T18:00:00	6	Velocidad del viento	8
166558	7	Sololá	719	Santiago Atitlán	14	Cerro de Oro	8	Agosto	2023-08-14T00:00:00	2024-11-08T18:00:00	7	Dirección del viento	8.05
166559	7	Sololá	719	Santiago Atitlán	14	Cerro de Oro	8	Agosto	2023-08-14T00:00:00	2024-11-08T18:00:00	1	Precipitación	0
166560	7	Sololá	719	Santiago Atitlán	14	Cerro de Oro	8	Agosto	2023-08-14T00:00:00	2024-11-08T18:00:00	8	Radiación solar	113
166561	7	Sololá	719	Santiago Atitlán	14	Cerro de Oro	8	Agosto	2023-08-14T00:00:00	2024-11-08T19:00:00	2	Temperatura media	21.2
166562	7	Sololá	719	Santiago Atitlán	14	Cerro de Oro	8	Agosto	2023-08-14T00:00:00	2024-11-08T19:00:00	4	Temperatura máxima	22.1
166563	7	Sololá	719	Santiago Atitlán	14	Cerro de Oro	8	Agosto	2023-08-14T00:00:00	2024-11-08T19:00:00	3	Temperatura mínima	20.9
166564	7	Sololá	719	Santiago Atitlán	14	Cerro de Oro	8	Agosto	2023-08-14T00:00:00	2024-11-08T19:00:00	5	Humedad	76
166565	7	Sololá	719	Santiago Atitlán	14	Cerro de Oro	8	Agosto	2023-08-14T00:00:00	2024-11-08T19:00:00	6	Velocidad del viento	8
166566	7	Sololá	719	Santiago Atitlán	14	Cerro de Oro	8	Agosto	2023-08-14T00:00:00	2024-11-08T19:00:00	7	Dirección del viento	8.05
166567	7	Sololá	719	Santiago Atitlán	14	Cerro de Oro	8	Agosto	2023-08-14T00:00:00	2024-11-08T19:00:00	1	Precipitación	0
166568	7	Sololá	719	Santiago Atitlán	14	Cerro de Oro	8	Agosto	2023-08-14T00:00:00	2024-11-08T19:00:00	8	Radiación solar	0
166569	7	Sololá	719	Santiago Atitlán	14	Cerro de Oro	8	Agosto	2023-08-14T00:00:00	2024-11-08T20:00:00	2	Temperatura media	21.1
166570	7	Sololá	719	Santiago Atitlán	14	Cerro de Oro	8	Agosto	2023-08-14T00:00:00	2024-11-08T20:00:00	4	Temperatura máxima	21.3
166571	7	Sololá	719	Santiago Atitlán	14	Cerro de Oro	8	Agosto	2023-08-14T00:00:00	2024-11-08T20:00:00	3	Temperatura mínima	21.1
166572	7	Sololá	719	Santiago Atitlán	14	Cerro de Oro	8	Agosto	2023-08-14T00:00:00	2024-11-08T20:00:00	5	Humedad	74
166573	7	Sololá	719	Santiago Atitlán	14	Cerro de Oro	8	Agosto	2023-08-14T00:00:00	2024-11-08T20:00:00	6	Velocidad del viento	6.4
166574	7	Sololá	719	Santiago Atitlán	14	Cerro de Oro	8	Agosto	2023-08-14T00:00:00	2024-11-08T20:00:00	7	Dirección del viento	6.44
166575	7	Sololá	719	Santiago Atitlán	14	Cerro de Oro	8	Agosto	2023-08-14T00:00:00	2024-11-08T20:00:00	1	Precipitación	0
166576	7	Sololá	719	Santiago Atitlán	14	Cerro de Oro	8	Agosto	2023-08-14T00:00:00	2024-11-08T20:00:00	8	Radiación solar	0
166577	7	Sololá	719	Santiago Atitlán	14	Cerro de Oro	8	Agosto	2023-08-14T00:00:00	2024-11-08T21:00:00	2	Temperatura media	19.3
166578	7	Sololá	719	Santiago Atitlán	14	Cerro de Oro	8	Agosto	2023-08-14T00:00:00	2024-11-08T21:00:00	4	Temperatura máxima	21.1
166579	7	Sololá	719	Santiago Atitlán	14	Cerro de Oro	8	Agosto	2023-08-14T00:00:00	2024-11-08T21:00:00	3	Temperatura mínima	19.3
166580	7	Sololá	719	Santiago Atitlán	14	Cerro de Oro	8	Agosto	2023-08-14T00:00:00	2024-11-08T21:00:00	5	Humedad	84
166581	7	Sololá	719	Santiago Atitlán	14	Cerro de Oro	8	Agosto	2023-08-14T00:00:00	2024-11-08T21:00:00	6	Velocidad del viento	8
166582	7	Sololá	719	Santiago Atitlán	14	Cerro de Oro	8	Agosto	2023-08-14T00:00:00	2024-11-08T21:00:00	7	Dirección del viento	8.05
166583	7	Sololá	719	Santiago Atitlán	14	Cerro de Oro	8	Agosto	2023-08-14T00:00:00	2024-11-08T21:00:00	1	Precipitación	0
166584	7	Sololá	719	Santiago Atitlán	14	Cerro de Oro	8	Agosto	2023-08-14T00:00:00	2024-11-08T21:00:00	8	Radiación solar	0
166585	7	Sololá	719	Santiago Atitlán	14	Cerro de Oro	8	Agosto	2023-08-14T00:00:00	2024-11-08T22:00:00	2	Temperatura media	19.1
166586	7	Sololá	719	Santiago Atitlán	14	Cerro de Oro	8	Agosto	2023-08-14T00:00:00	2024-11-08T22:00:00	4	Temperatura máxima	19.6
166587	7	Sololá	719	Santiago Atitlán	14	Cerro de Oro	8	Agosto	2023-08-14T00:00:00	2024-11-08T22:00:00	3	Temperatura mínima	18.9
166588	7	Sololá	719	Santiago Atitlán	14	Cerro de Oro	8	Agosto	2023-08-14T00:00:00	2024-11-08T22:00:00	5	Humedad	81
166589	7	Sololá	719	Santiago Atitlán	14	Cerro de Oro	8	Agosto	2023-08-14T00:00:00	2024-11-08T22:00:00	6	Velocidad del viento	4.8
166590	7	Sololá	719	Santiago Atitlán	14	Cerro de Oro	8	Agosto	2023-08-14T00:00:00	2024-11-08T22:00:00	7	Dirección del viento	4.83
166591	7	Sololá	719	Santiago Atitlán	14	Cerro de Oro	8	Agosto	2023-08-14T00:00:00	2024-11-08T22:00:00	1	Precipitación	0
166592	7	Sololá	719	Santiago Atitlán	14	Cerro de Oro	8	Agosto	2023-08-14T00:00:00	2024-11-08T22:00:00	8	Radiación solar	0
166593	7	Sololá	719	Santiago Atitlán	14	Cerro de Oro	8	Agosto	2023-08-14T00:00:00	2024-11-08T23:00:00	2	Temperatura media	18.9
166594	7	Sololá	719	Santiago Atitlán	14	Cerro de Oro	8	Agosto	2023-08-14T00:00:00	2024-11-08T23:00:00	4	Temperatura máxima	20.3
166595	7	Sololá	719	Santiago Atitlán	14	Cerro de Oro	8	Agosto	2023-08-14T00:00:00	2024-11-08T23:00:00	3	Temperatura mínima	18.9
166596	7	Sololá	719	Santiago Atitlán	14	Cerro de Oro	8	Agosto	2023-08-14T00:00:00	2024-11-08T23:00:00	5	Humedad	85
166597	7	Sololá	719	Santiago Atitlán	14	Cerro de Oro	8	Agosto	2023-08-14T00:00:00	2024-11-08T23:00:00	6	Velocidad del viento	9.7
166598	7	Sololá	719	Santiago Atitlán	14	Cerro de Oro	8	Agosto	2023-08-14T00:00:00	2024-11-08T23:00:00	7	Dirección del viento	9.66
166599	7	Sololá	719	Santiago Atitlán	14	Cerro de Oro	8	Agosto	2023-08-14T00:00:00	2024-11-08T23:00:00	1	Precipitación	0
166600	7	Sololá	719	Santiago Atitlán	14	Cerro de Oro	8	Agosto	2023-08-14T00:00:00	2024-11-08T23:00:00	8	Radiación solar	0
166601	7	Sololá	719	Santiago Atitlán	14	Cerro de Oro	8	Agosto	2023-08-15T00:00:00	2024-11-08T00:00:00	2	Temperatura media	18.4
166602	7	Sololá	719	Santiago Atitlán	14	Cerro de Oro	8	Agosto	2023-08-15T00:00:00	2024-11-08T00:00:00	4	Temperatura máxima	18.9
166603	7	Sololá	719	Santiago Atitlán	14	Cerro de Oro	8	Agosto	2023-08-15T00:00:00	2024-11-08T00:00:00	3	Temperatura mínima	18.2
166604	7	Sololá	719	Santiago Atitlán	14	Cerro de Oro	8	Agosto	2023-08-15T00:00:00	2024-11-08T00:00:00	5	Humedad	85
166605	7	Sololá	719	Santiago Atitlán	14	Cerro de Oro	8	Agosto	2023-08-15T00:00:00	2024-11-08T00:00:00	6	Velocidad del viento	6.4
166606	7	Sololá	719	Santiago Atitlán	14	Cerro de Oro	8	Agosto	2023-08-15T00:00:00	2024-11-08T00:00:00	7	Dirección del viento	6.44
166607	7	Sololá	719	Santiago Atitlán	14	Cerro de Oro	8	Agosto	2023-08-15T00:00:00	2024-11-08T00:00:00	1	Precipitación	0.2
166608	7	Sololá	719	Santiago Atitlán	14	Cerro de Oro	8	Agosto	2023-08-15T00:00:00	2024-11-08T00:00:00	8	Radiación solar	0
166609	7	Sololá	719	Santiago Atitlán	14	Cerro de Oro	8	Agosto	2023-08-15T00:00:00	2024-11-08T01:00:00	2	Temperatura media	17.7
166610	7	Sololá	719	Santiago Atitlán	14	Cerro de Oro	8	Agosto	2023-08-15T00:00:00	2024-11-08T01:00:00	4	Temperatura máxima	18.4
166611	7	Sololá	719	Santiago Atitlán	14	Cerro de Oro	8	Agosto	2023-08-15T00:00:00	2024-11-08T01:00:00	3	Temperatura mínima	17.6
166612	7	Sololá	719	Santiago Atitlán	14	Cerro de Oro	8	Agosto	2023-08-15T00:00:00	2024-11-08T01:00:00	5	Humedad	91
166613	7	Sololá	719	Santiago Atitlán	14	Cerro de Oro	8	Agosto	2023-08-15T00:00:00	2024-11-08T01:00:00	6	Velocidad del viento	1.6
166614	7	Sololá	719	Santiago Atitlán	14	Cerro de Oro	8	Agosto	2023-08-15T00:00:00	2024-11-08T01:00:00	7	Dirección del viento	1.61
166615	7	Sololá	719	Santiago Atitlán	14	Cerro de Oro	8	Agosto	2023-08-15T00:00:00	2024-11-08T01:00:00	1	Precipitación	0.4
166616	7	Sololá	719	Santiago Atitlán	14	Cerro de Oro	8	Agosto	2023-08-15T00:00:00	2024-11-08T01:00:00	8	Radiación solar	0
166617	7	Sololá	719	Santiago Atitlán	14	Cerro de Oro	8	Agosto	2023-08-15T00:00:00	2024-11-08T02:00:00	2	Temperatura media	16.9
166618	7	Sololá	719	Santiago Atitlán	14	Cerro de Oro	8	Agosto	2023-08-15T00:00:00	2024-11-08T02:00:00	4	Temperatura máxima	17.7
166619	7	Sololá	719	Santiago Atitlán	14	Cerro de Oro	8	Agosto	2023-08-15T00:00:00	2024-11-08T02:00:00	3	Temperatura mínima	16.9
166620	7	Sololá	719	Santiago Atitlán	14	Cerro de Oro	8	Agosto	2023-08-15T00:00:00	2024-11-08T02:00:00	5	Humedad	91
166621	7	Sololá	719	Santiago Atitlán	14	Cerro de Oro	8	Agosto	2023-08-15T00:00:00	2024-11-08T02:00:00	6	Velocidad del viento	4.8
166622	7	Sololá	719	Santiago Atitlán	14	Cerro de Oro	8	Agosto	2023-08-15T00:00:00	2024-11-08T02:00:00	7	Dirección del viento	4.83
166623	7	Sololá	719	Santiago Atitlán	14	Cerro de Oro	8	Agosto	2023-08-15T00:00:00	2024-11-08T02:00:00	1	Precipitación	0
166624	7	Sololá	719	Santiago Atitlán	14	Cerro de Oro	8	Agosto	2023-08-15T00:00:00	2024-11-08T02:00:00	8	Radiación solar	0
166625	7	Sololá	719	Santiago Atitlán	14	Cerro de Oro	8	Agosto	2023-08-15T00:00:00	2024-11-08T03:00:00	2	Temperatura media	17.4
166626	7	Sololá	719	Santiago Atitlán	14	Cerro de Oro	8	Agosto	2023-08-15T00:00:00	2024-11-08T03:00:00	4	Temperatura máxima	17.5
166627	7	Sololá	719	Santiago Atitlán	14	Cerro de Oro	8	Agosto	2023-08-15T00:00:00	2024-11-08T03:00:00	3	Temperatura mínima	16.9
166628	7	Sololá	719	Santiago Atitlán	14	Cerro de Oro	8	Agosto	2023-08-15T00:00:00	2024-11-08T03:00:00	5	Humedad	83
166629	7	Sololá	719	Santiago Atitlán	14	Cerro de Oro	8	Agosto	2023-08-15T00:00:00	2024-11-08T03:00:00	6	Velocidad del viento	6.4
166630	7	Sololá	719	Santiago Atitlán	14	Cerro de Oro	8	Agosto	2023-08-15T00:00:00	2024-11-08T03:00:00	7	Dirección del viento	6.44
166631	7	Sololá	719	Santiago Atitlán	14	Cerro de Oro	8	Agosto	2023-08-15T00:00:00	2024-11-08T03:00:00	1	Precipitación	0
166632	7	Sololá	719	Santiago Atitlán	14	Cerro de Oro	8	Agosto	2023-08-15T00:00:00	2024-11-08T03:00:00	8	Radiación solar	0
166633	7	Sololá	719	Santiago Atitlán	14	Cerro de Oro	8	Agosto	2023-08-15T00:00:00	2024-11-08T04:00:00	2	Temperatura media	16.8
166634	7	Sololá	719	Santiago Atitlán	14	Cerro de Oro	8	Agosto	2023-08-15T00:00:00	2024-11-08T04:00:00	4	Temperatura máxima	17.5
166635	7	Sololá	719	Santiago Atitlán	14	Cerro de Oro	8	Agosto	2023-08-15T00:00:00	2024-11-08T04:00:00	3	Temperatura mínima	16.4
166636	7	Sololá	719	Santiago Atitlán	14	Cerro de Oro	8	Agosto	2023-08-15T00:00:00	2024-11-08T04:00:00	5	Humedad	86
166637	7	Sololá	719	Santiago Atitlán	14	Cerro de Oro	8	Agosto	2023-08-15T00:00:00	2024-11-08T04:00:00	6	Velocidad del viento	3.2
166638	7	Sololá	719	Santiago Atitlán	14	Cerro de Oro	8	Agosto	2023-08-15T00:00:00	2024-11-08T04:00:00	7	Dirección del viento	3.22
166639	7	Sololá	719	Santiago Atitlán	14	Cerro de Oro	8	Agosto	2023-08-15T00:00:00	2024-11-08T04:00:00	1	Precipitación	0
166640	7	Sololá	719	Santiago Atitlán	14	Cerro de Oro	8	Agosto	2023-08-15T00:00:00	2024-11-08T04:00:00	8	Radiación solar	0
166641	7	Sololá	719	Santiago Atitlán	14	Cerro de Oro	8	Agosto	2023-08-15T00:00:00	2024-11-08T05:00:00	2	Temperatura media	18.5
166642	7	Sololá	719	Santiago Atitlán	14	Cerro de Oro	8	Agosto	2023-08-15T00:00:00	2024-11-08T05:00:00	4	Temperatura máxima	18.6
166643	7	Sololá	719	Santiago Atitlán	14	Cerro de Oro	8	Agosto	2023-08-15T00:00:00	2024-11-08T05:00:00	3	Temperatura mínima	16.8
166644	7	Sololá	719	Santiago Atitlán	14	Cerro de Oro	8	Agosto	2023-08-15T00:00:00	2024-11-08T05:00:00	5	Humedad	79
166645	7	Sololá	719	Santiago Atitlán	14	Cerro de Oro	8	Agosto	2023-08-15T00:00:00	2024-11-08T05:00:00	6	Velocidad del viento	8
166646	7	Sololá	719	Santiago Atitlán	14	Cerro de Oro	8	Agosto	2023-08-15T00:00:00	2024-11-08T05:00:00	7	Dirección del viento	8.05
166647	7	Sololá	719	Santiago Atitlán	14	Cerro de Oro	8	Agosto	2023-08-15T00:00:00	2024-11-08T05:00:00	1	Precipitación	0.2
166648	7	Sololá	719	Santiago Atitlán	14	Cerro de Oro	8	Agosto	2023-08-15T00:00:00	2024-11-08T05:00:00	8	Radiación solar	0
166649	7	Sololá	719	Santiago Atitlán	14	Cerro de Oro	8	Agosto	2023-08-15T00:00:00	2024-11-08T06:00:00	2	Temperatura media	18.1
166650	7	Sololá	719	Santiago Atitlán	14	Cerro de Oro	8	Agosto	2023-08-15T00:00:00	2024-11-08T06:00:00	4	Temperatura máxima	18.6
166651	7	Sololá	719	Santiago Atitlán	14	Cerro de Oro	8	Agosto	2023-08-15T00:00:00	2024-11-08T06:00:00	3	Temperatura mínima	17.8
166652	7	Sololá	719	Santiago Atitlán	14	Cerro de Oro	8	Agosto	2023-08-15T00:00:00	2024-11-08T06:00:00	5	Humedad	79
166653	7	Sololá	719	Santiago Atitlán	14	Cerro de Oro	8	Agosto	2023-08-15T00:00:00	2024-11-08T06:00:00	6	Velocidad del viento	4.8
166654	7	Sololá	719	Santiago Atitlán	14	Cerro de Oro	8	Agosto	2023-08-15T00:00:00	2024-11-08T06:00:00	7	Dirección del viento	4.83
166655	7	Sololá	719	Santiago Atitlán	14	Cerro de Oro	8	Agosto	2023-08-15T00:00:00	2024-11-08T06:00:00	1	Precipitación	0
166656	7	Sololá	719	Santiago Atitlán	14	Cerro de Oro	8	Agosto	2023-08-15T00:00:00	2024-11-08T06:00:00	8	Radiación solar	2
166657	7	Sololá	719	Santiago Atitlán	14	Cerro de Oro	8	Agosto	2023-08-15T00:00:00	2024-11-08T07:00:00	2	Temperatura media	20.6
166658	7	Sololá	719	Santiago Atitlán	14	Cerro de Oro	8	Agosto	2023-08-15T00:00:00	2024-11-08T07:00:00	4	Temperatura máxima	20.6
166659	7	Sololá	719	Santiago Atitlán	14	Cerro de Oro	8	Agosto	2023-08-15T00:00:00	2024-11-08T07:00:00	3	Temperatura mínima	18.1
166660	7	Sololá	719	Santiago Atitlán	14	Cerro de Oro	8	Agosto	2023-08-15T00:00:00	2024-11-08T07:00:00	5	Humedad	72
166661	7	Sololá	719	Santiago Atitlán	14	Cerro de Oro	8	Agosto	2023-08-15T00:00:00	2024-11-08T07:00:00	6	Velocidad del viento	8
166662	7	Sololá	719	Santiago Atitlán	14	Cerro de Oro	8	Agosto	2023-08-15T00:00:00	2024-11-08T07:00:00	7	Dirección del viento	8.05
166663	7	Sololá	719	Santiago Atitlán	14	Cerro de Oro	8	Agosto	2023-08-15T00:00:00	2024-11-08T07:00:00	1	Precipitación	0
166664	7	Sololá	719	Santiago Atitlán	14	Cerro de Oro	8	Agosto	2023-08-15T00:00:00	2024-11-08T07:00:00	8	Radiación solar	103
166665	7	Sololá	719	Santiago Atitlán	14	Cerro de Oro	8	Agosto	2023-08-15T00:00:00	2024-11-08T08:00:00	2	Temperatura media	21.4
166666	7	Sololá	719	Santiago Atitlán	14	Cerro de Oro	8	Agosto	2023-08-15T00:00:00	2024-11-08T08:00:00	4	Temperatura máxima	21.6
166667	7	Sololá	719	Santiago Atitlán	14	Cerro de Oro	8	Agosto	2023-08-15T00:00:00	2024-11-08T08:00:00	3	Temperatura mínima	20.6
166668	7	Sololá	719	Santiago Atitlán	14	Cerro de Oro	8	Agosto	2023-08-15T00:00:00	2024-11-08T08:00:00	5	Humedad	69
166669	7	Sololá	719	Santiago Atitlán	14	Cerro de Oro	8	Agosto	2023-08-15T00:00:00	2024-11-08T08:00:00	6	Velocidad del viento	8
166670	7	Sololá	719	Santiago Atitlán	14	Cerro de Oro	8	Agosto	2023-08-15T00:00:00	2024-11-08T08:00:00	7	Dirección del viento	8.05
166671	7	Sololá	719	Santiago Atitlán	14	Cerro de Oro	8	Agosto	2023-08-15T00:00:00	2024-11-08T08:00:00	1	Precipitación	0
166672	7	Sololá	719	Santiago Atitlán	14	Cerro de Oro	8	Agosto	2023-08-15T00:00:00	2024-11-08T08:00:00	8	Radiación solar	348
166673	7	Sololá	719	Santiago Atitlán	14	Cerro de Oro	8	Agosto	2023-08-15T00:00:00	2024-11-08T09:00:00	2	Temperatura media	22.9
166674	7	Sololá	719	Santiago Atitlán	14	Cerro de Oro	8	Agosto	2023-08-15T00:00:00	2024-11-08T09:00:00	4	Temperatura máxima	22.9
166675	7	Sololá	719	Santiago Atitlán	14	Cerro de Oro	8	Agosto	2023-08-15T00:00:00	2024-11-08T09:00:00	3	Temperatura mínima	21.4
166676	7	Sololá	719	Santiago Atitlán	14	Cerro de Oro	8	Agosto	2023-08-15T00:00:00	2024-11-08T09:00:00	5	Humedad	62
166677	7	Sololá	719	Santiago Atitlán	14	Cerro de Oro	8	Agosto	2023-08-15T00:00:00	2024-11-08T09:00:00	6	Velocidad del viento	6.4
166678	7	Sololá	719	Santiago Atitlán	14	Cerro de Oro	8	Agosto	2023-08-15T00:00:00	2024-11-08T09:00:00	7	Dirección del viento	6.44
166679	7	Sololá	719	Santiago Atitlán	14	Cerro de Oro	8	Agosto	2023-08-15T00:00:00	2024-11-08T09:00:00	1	Precipitación	0
166680	7	Sololá	719	Santiago Atitlán	14	Cerro de Oro	8	Agosto	2023-08-15T00:00:00	2024-11-08T09:00:00	8	Radiación solar	514
166681	7	Sololá	719	Santiago Atitlán	14	Cerro de Oro	8	Agosto	2023-08-15T00:00:00	2024-11-08T10:00:00	2	Temperatura media	22.8
166682	7	Sololá	719	Santiago Atitlán	14	Cerro de Oro	8	Agosto	2023-08-15T00:00:00	2024-11-08T10:00:00	4	Temperatura máxima	23.2
166683	7	Sololá	719	Santiago Atitlán	14	Cerro de Oro	8	Agosto	2023-08-15T00:00:00	2024-11-08T10:00:00	3	Temperatura mínima	22.2
166684	7	Sololá	719	Santiago Atitlán	14	Cerro de Oro	8	Agosto	2023-08-15T00:00:00	2024-11-08T10:00:00	5	Humedad	65
166685	7	Sololá	719	Santiago Atitlán	14	Cerro de Oro	8	Agosto	2023-08-15T00:00:00	2024-11-08T10:00:00	6	Velocidad del viento	9.7
166686	7	Sololá	719	Santiago Atitlán	14	Cerro de Oro	8	Agosto	2023-08-15T00:00:00	2024-11-08T10:00:00	7	Dirección del viento	9.66
166687	7	Sololá	719	Santiago Atitlán	14	Cerro de Oro	8	Agosto	2023-08-15T00:00:00	2024-11-08T10:00:00	1	Precipitación	0
166688	7	Sololá	719	Santiago Atitlán	14	Cerro de Oro	8	Agosto	2023-08-15T00:00:00	2024-11-08T10:00:00	8	Radiación solar	643
166689	7	Sololá	719	Santiago Atitlán	14	Cerro de Oro	8	Agosto	2023-08-15T00:00:00	2024-11-08T11:00:00	2	Temperatura media	23.6
166690	7	Sololá	719	Santiago Atitlán	14	Cerro de Oro	8	Agosto	2023-08-15T00:00:00	2024-11-08T11:00:00	4	Temperatura máxima	24.3
166691	7	Sololá	719	Santiago Atitlán	14	Cerro de Oro	8	Agosto	2023-08-15T00:00:00	2024-11-08T11:00:00	3	Temperatura mínima	22.8
166692	7	Sololá	719	Santiago Atitlán	14	Cerro de Oro	8	Agosto	2023-08-15T00:00:00	2024-11-08T11:00:00	5	Humedad	60
166693	7	Sololá	719	Santiago Atitlán	14	Cerro de Oro	8	Agosto	2023-08-15T00:00:00	2024-11-08T11:00:00	6	Velocidad del viento	8
166694	7	Sololá	719	Santiago Atitlán	14	Cerro de Oro	8	Agosto	2023-08-15T00:00:00	2024-11-08T11:00:00	7	Dirección del viento	8.05
166695	7	Sololá	719	Santiago Atitlán	14	Cerro de Oro	8	Agosto	2023-08-15T00:00:00	2024-11-08T11:00:00	1	Precipitación	0
166696	7	Sololá	719	Santiago Atitlán	14	Cerro de Oro	8	Agosto	2023-08-15T00:00:00	2024-11-08T11:00:00	8	Radiación solar	695
166697	7	Sololá	719	Santiago Atitlán	14	Cerro de Oro	8	Agosto	2023-08-15T00:00:00	2024-11-08T12:00:00	2	Temperatura media	24.1
166698	7	Sololá	719	Santiago Atitlán	14	Cerro de Oro	8	Agosto	2023-08-15T00:00:00	2024-11-08T12:00:00	4	Temperatura máxima	24.1
166699	7	Sololá	719	Santiago Atitlán	14	Cerro de Oro	8	Agosto	2023-08-15T00:00:00	2024-11-08T12:00:00	3	Temperatura mínima	23.3
166700	7	Sololá	719	Santiago Atitlán	14	Cerro de Oro	8	Agosto	2023-08-15T00:00:00	2024-11-08T12:00:00	5	Humedad	64
166701	7	Sololá	719	Santiago Atitlán	14	Cerro de Oro	8	Agosto	2023-08-15T00:00:00	2024-11-08T12:00:00	6	Velocidad del viento	11.3
166702	7	Sololá	719	Santiago Atitlán	14	Cerro de Oro	8	Agosto	2023-08-15T00:00:00	2024-11-08T12:00:00	7	Dirección del viento	11.27
166703	7	Sololá	719	Santiago Atitlán	14	Cerro de Oro	8	Agosto	2023-08-15T00:00:00	2024-11-08T12:00:00	1	Precipitación	0
166704	7	Sololá	719	Santiago Atitlán	14	Cerro de Oro	8	Agosto	2023-08-15T00:00:00	2024-11-08T12:00:00	8	Radiación solar	726
166705	7	Sololá	719	Santiago Atitlán	14	Cerro de Oro	8	Agosto	2023-08-15T00:00:00	2024-11-08T13:00:00	2	Temperatura media	22.5
166706	7	Sololá	719	Santiago Atitlán	14	Cerro de Oro	8	Agosto	2023-08-15T00:00:00	2024-11-08T13:00:00	4	Temperatura máxima	24.2
166707	7	Sololá	719	Santiago Atitlán	14	Cerro de Oro	8	Agosto	2023-08-15T00:00:00	2024-11-08T13:00:00	3	Temperatura mínima	22.1
166708	7	Sololá	719	Santiago Atitlán	14	Cerro de Oro	8	Agosto	2023-08-15T00:00:00	2024-11-08T13:00:00	5	Humedad	66
166709	7	Sololá	719	Santiago Atitlán	14	Cerro de Oro	8	Agosto	2023-08-15T00:00:00	2024-11-08T13:00:00	6	Velocidad del viento	12.9
166710	7	Sololá	719	Santiago Atitlán	14	Cerro de Oro	8	Agosto	2023-08-15T00:00:00	2024-11-08T13:00:00	7	Dirección del viento	12.87
166711	7	Sololá	719	Santiago Atitlán	14	Cerro de Oro	8	Agosto	2023-08-15T00:00:00	2024-11-08T13:00:00	1	Precipitación	0
166712	7	Sololá	719	Santiago Atitlán	14	Cerro de Oro	8	Agosto	2023-08-15T00:00:00	2024-11-08T13:00:00	8	Radiación solar	575
166713	7	Sololá	719	Santiago Atitlán	14	Cerro de Oro	8	Agosto	2023-08-15T00:00:00	2024-11-08T14:00:00	2	Temperatura media	23.5
166714	7	Sololá	719	Santiago Atitlán	14	Cerro de Oro	8	Agosto	2023-08-15T00:00:00	2024-11-08T14:00:00	4	Temperatura máxima	23.5
166715	7	Sololá	719	Santiago Atitlán	14	Cerro de Oro	8	Agosto	2023-08-15T00:00:00	2024-11-08T14:00:00	3	Temperatura mínima	22.5
166716	7	Sololá	719	Santiago Atitlán	14	Cerro de Oro	8	Agosto	2023-08-15T00:00:00	2024-11-08T14:00:00	5	Humedad	63
166717	7	Sololá	719	Santiago Atitlán	14	Cerro de Oro	8	Agosto	2023-08-15T00:00:00	2024-11-08T14:00:00	6	Velocidad del viento	9.7
166718	7	Sololá	719	Santiago Atitlán	14	Cerro de Oro	8	Agosto	2023-08-15T00:00:00	2024-11-08T14:00:00	7	Dirección del viento	9.66
166719	7	Sololá	719	Santiago Atitlán	14	Cerro de Oro	8	Agosto	2023-08-15T00:00:00	2024-11-08T14:00:00	1	Precipitación	0
166720	7	Sololá	719	Santiago Atitlán	14	Cerro de Oro	8	Agosto	2023-08-15T00:00:00	2024-11-08T14:00:00	8	Radiación solar	474
166721	7	Sololá	719	Santiago Atitlán	14	Cerro de Oro	8	Agosto	2023-08-15T00:00:00	2024-11-08T15:00:00	2	Temperatura media	22.8
166722	7	Sololá	719	Santiago Atitlán	14	Cerro de Oro	8	Agosto	2023-08-15T00:00:00	2024-11-08T15:00:00	4	Temperatura máxima	24.8
166723	7	Sololá	719	Santiago Atitlán	14	Cerro de Oro	8	Agosto	2023-08-15T00:00:00	2024-11-08T15:00:00	3	Temperatura mínima	22.8
166724	7	Sololá	719	Santiago Atitlán	14	Cerro de Oro	8	Agosto	2023-08-15T00:00:00	2024-11-08T15:00:00	5	Humedad	76
166725	7	Sololá	719	Santiago Atitlán	14	Cerro de Oro	8	Agosto	2023-08-15T00:00:00	2024-11-08T15:00:00	6	Velocidad del viento	8
166726	7	Sololá	719	Santiago Atitlán	14	Cerro de Oro	8	Agosto	2023-08-15T00:00:00	2024-11-08T15:00:00	7	Dirección del viento	8.05
166727	7	Sololá	719	Santiago Atitlán	14	Cerro de Oro	8	Agosto	2023-08-15T00:00:00	2024-11-08T15:00:00	1	Precipitación	0
166728	7	Sololá	719	Santiago Atitlán	14	Cerro de Oro	8	Agosto	2023-08-15T00:00:00	2024-11-08T15:00:00	8	Radiación solar	569
166729	7	Sololá	719	Santiago Atitlán	14	Cerro de Oro	8	Agosto	2023-08-15T00:00:00	2024-11-08T16:00:00	2	Temperatura media	20.3
166730	7	Sololá	719	Santiago Atitlán	14	Cerro de Oro	8	Agosto	2023-08-15T00:00:00	2024-11-08T16:00:00	4	Temperatura máxima	22.8
166731	7	Sololá	719	Santiago Atitlán	14	Cerro de Oro	8	Agosto	2023-08-15T00:00:00	2024-11-08T16:00:00	3	Temperatura mínima	19.6
166732	7	Sololá	719	Santiago Atitlán	14	Cerro de Oro	8	Agosto	2023-08-15T00:00:00	2024-11-08T16:00:00	5	Humedad	80
166733	7	Sololá	719	Santiago Atitlán	14	Cerro de Oro	8	Agosto	2023-08-15T00:00:00	2024-11-08T16:00:00	6	Velocidad del viento	11.3
166734	7	Sololá	719	Santiago Atitlán	14	Cerro de Oro	8	Agosto	2023-08-15T00:00:00	2024-11-08T16:00:00	7	Dirección del viento	11.27
166735	7	Sololá	719	Santiago Atitlán	14	Cerro de Oro	8	Agosto	2023-08-15T00:00:00	2024-11-08T16:00:00	1	Precipitación	0.6
166736	7	Sololá	719	Santiago Atitlán	14	Cerro de Oro	8	Agosto	2023-08-15T00:00:00	2024-11-08T16:00:00	8	Radiación solar	69
166737	7	Sololá	719	Santiago Atitlán	14	Cerro de Oro	8	Agosto	2023-08-15T00:00:00	2024-11-08T17:00:00	2	Temperatura media	21.6
166738	7	Sololá	719	Santiago Atitlán	14	Cerro de Oro	8	Agosto	2023-08-15T00:00:00	2024-11-08T17:00:00	4	Temperatura máxima	21.6
166739	7	Sololá	719	Santiago Atitlán	14	Cerro de Oro	8	Agosto	2023-08-15T00:00:00	2024-11-08T17:00:00	3	Temperatura mínima	20.3
166740	7	Sololá	719	Santiago Atitlán	14	Cerro de Oro	8	Agosto	2023-08-15T00:00:00	2024-11-08T17:00:00	5	Humedad	74
166741	7	Sololá	719	Santiago Atitlán	14	Cerro de Oro	8	Agosto	2023-08-15T00:00:00	2024-11-08T17:00:00	6	Velocidad del viento	4.8
166742	7	Sololá	719	Santiago Atitlán	14	Cerro de Oro	8	Agosto	2023-08-15T00:00:00	2024-11-08T17:00:00	7	Dirección del viento	4.83
166743	7	Sololá	719	Santiago Atitlán	14	Cerro de Oro	8	Agosto	2023-08-15T00:00:00	2024-11-08T17:00:00	1	Precipitación	0
166744	7	Sololá	719	Santiago Atitlán	14	Cerro de Oro	8	Agosto	2023-08-15T00:00:00	2024-11-08T17:00:00	8	Radiación solar	146
166745	7	Sololá	719	Santiago Atitlán	14	Cerro de Oro	8	Agosto	2023-08-15T00:00:00	2024-11-08T18:00:00	2	Temperatura media	20.8
166746	7	Sololá	719	Santiago Atitlán	14	Cerro de Oro	8	Agosto	2023-08-15T00:00:00	2024-11-08T18:00:00	4	Temperatura máxima	21.8
166747	7	Sololá	719	Santiago Atitlán	14	Cerro de Oro	8	Agosto	2023-08-15T00:00:00	2024-11-08T18:00:00	3	Temperatura mínima	20.8
166748	7	Sololá	719	Santiago Atitlán	14	Cerro de Oro	8	Agosto	2023-08-15T00:00:00	2024-11-08T18:00:00	5	Humedad	80
166749	7	Sololá	719	Santiago Atitlán	14	Cerro de Oro	8	Agosto	2023-08-15T00:00:00	2024-11-08T18:00:00	6	Velocidad del viento	3.2
166750	7	Sololá	719	Santiago Atitlán	14	Cerro de Oro	8	Agosto	2023-08-15T00:00:00	2024-11-08T18:00:00	7	Dirección del viento	3.22
166751	7	Sololá	719	Santiago Atitlán	14	Cerro de Oro	8	Agosto	2023-08-15T00:00:00	2024-11-08T18:00:00	1	Precipitación	0
166752	7	Sololá	719	Santiago Atitlán	14	Cerro de Oro	8	Agosto	2023-08-15T00:00:00	2024-11-08T18:00:00	8	Radiación solar	94
166753	7	Sololá	719	Santiago Atitlán	14	Cerro de Oro	8	Agosto	2023-08-15T00:00:00	2024-11-08T19:00:00	2	Temperatura media	21.1
166754	7	Sololá	719	Santiago Atitlán	14	Cerro de Oro	8	Agosto	2023-08-15T00:00:00	2024-11-08T19:00:00	4	Temperatura máxima	21.1
166755	7	Sololá	719	Santiago Atitlán	14	Cerro de Oro	8	Agosto	2023-08-15T00:00:00	2024-11-08T19:00:00	3	Temperatura mínima	20.5
166756	7	Sololá	719	Santiago Atitlán	14	Cerro de Oro	8	Agosto	2023-08-15T00:00:00	2024-11-08T19:00:00	5	Humedad	75
166757	7	Sololá	719	Santiago Atitlán	14	Cerro de Oro	8	Agosto	2023-08-15T00:00:00	2024-11-08T19:00:00	6	Velocidad del viento	3.2
166758	7	Sololá	719	Santiago Atitlán	14	Cerro de Oro	8	Agosto	2023-08-15T00:00:00	2024-11-08T19:00:00	7	Dirección del viento	3.22
166759	7	Sololá	719	Santiago Atitlán	14	Cerro de Oro	8	Agosto	2023-08-15T00:00:00	2024-11-08T19:00:00	1	Precipitación	0
166760	7	Sololá	719	Santiago Atitlán	14	Cerro de Oro	8	Agosto	2023-08-15T00:00:00	2024-11-08T19:00:00	8	Radiación solar	0
166761	7	Sololá	719	Santiago Atitlán	14	Cerro de Oro	8	Agosto	2023-08-15T00:00:00	2024-11-08T20:00:00	2	Temperatura media	21.2
166762	7	Sololá	719	Santiago Atitlán	14	Cerro de Oro	8	Agosto	2023-08-15T00:00:00	2024-11-08T20:00:00	4	Temperatura máxima	21.3
166763	7	Sololá	719	Santiago Atitlán	14	Cerro de Oro	8	Agosto	2023-08-15T00:00:00	2024-11-08T20:00:00	3	Temperatura mínima	21.1
166764	7	Sololá	719	Santiago Atitlán	14	Cerro de Oro	8	Agosto	2023-08-15T00:00:00	2024-11-08T20:00:00	5	Humedad	71
166765	7	Sololá	719	Santiago Atitlán	14	Cerro de Oro	8	Agosto	2023-08-15T00:00:00	2024-11-08T20:00:00	6	Velocidad del viento	6.4
166766	7	Sololá	719	Santiago Atitlán	14	Cerro de Oro	8	Agosto	2023-08-15T00:00:00	2024-11-08T20:00:00	7	Dirección del viento	6.44
166767	7	Sololá	719	Santiago Atitlán	14	Cerro de Oro	8	Agosto	2023-08-15T00:00:00	2024-11-08T20:00:00	1	Precipitación	0
166768	7	Sololá	719	Santiago Atitlán	14	Cerro de Oro	8	Agosto	2023-08-15T00:00:00	2024-11-08T20:00:00	8	Radiación solar	0
166769	7	Sololá	719	Santiago Atitlán	14	Cerro de Oro	8	Agosto	2023-08-15T00:00:00	2024-11-08T21:00:00	2	Temperatura media	20.7
166770	7	Sololá	719	Santiago Atitlán	14	Cerro de Oro	8	Agosto	2023-08-15T00:00:00	2024-11-08T21:00:00	4	Temperatura máxima	21.2
166771	7	Sololá	719	Santiago Atitlán	14	Cerro de Oro	8	Agosto	2023-08-15T00:00:00	2024-11-08T21:00:00	3	Temperatura mínima	20.7
166772	7	Sololá	719	Santiago Atitlán	14	Cerro de Oro	8	Agosto	2023-08-15T00:00:00	2024-11-08T21:00:00	5	Humedad	72
166773	7	Sololá	719	Santiago Atitlán	14	Cerro de Oro	8	Agosto	2023-08-15T00:00:00	2024-11-08T21:00:00	6	Velocidad del viento	8
166774	7	Sololá	719	Santiago Atitlán	14	Cerro de Oro	8	Agosto	2023-08-15T00:00:00	2024-11-08T21:00:00	7	Dirección del viento	8.05
166775	7	Sololá	719	Santiago Atitlán	14	Cerro de Oro	8	Agosto	2023-08-15T00:00:00	2024-11-08T21:00:00	1	Precipitación	0
166776	7	Sololá	719	Santiago Atitlán	14	Cerro de Oro	8	Agosto	2023-08-15T00:00:00	2024-11-08T21:00:00	8	Radiación solar	0
166777	7	Sololá	719	Santiago Atitlán	14	Cerro de Oro	8	Agosto	2023-08-15T00:00:00	2024-11-08T22:00:00	2	Temperatura media	20.4
166778	7	Sololá	719	Santiago Atitlán	14	Cerro de Oro	8	Agosto	2023-08-15T00:00:00	2024-11-08T22:00:00	4	Temperatura máxima	20.8
166779	7	Sololá	719	Santiago Atitlán	14	Cerro de Oro	8	Agosto	2023-08-15T00:00:00	2024-11-08T22:00:00	3	Temperatura mínima	20.4
166780	7	Sololá	719	Santiago Atitlán	14	Cerro de Oro	8	Agosto	2023-08-15T00:00:00	2024-11-08T22:00:00	5	Humedad	73
166781	7	Sololá	719	Santiago Atitlán	14	Cerro de Oro	8	Agosto	2023-08-15T00:00:00	2024-11-08T22:00:00	6	Velocidad del viento	8
166782	7	Sololá	719	Santiago Atitlán	14	Cerro de Oro	8	Agosto	2023-08-15T00:00:00	2024-11-08T22:00:00	7	Dirección del viento	8.05
166783	7	Sololá	719	Santiago Atitlán	14	Cerro de Oro	8	Agosto	2023-08-15T00:00:00	2024-11-08T22:00:00	1	Precipitación	0
166784	7	Sololá	719	Santiago Atitlán	14	Cerro de Oro	8	Agosto	2023-08-15T00:00:00	2024-11-08T22:00:00	8	Radiación solar	0
166785	7	Sololá	719	Santiago Atitlán	14	Cerro de Oro	8	Agosto	2023-08-15T00:00:00	2024-11-08T23:00:00	2	Temperatura media	20.1
166786	7	Sololá	719	Santiago Atitlán	14	Cerro de Oro	8	Agosto	2023-08-15T00:00:00	2024-11-08T23:00:00	4	Temperatura máxima	20.5
166787	7	Sololá	719	Santiago Atitlán	14	Cerro de Oro	8	Agosto	2023-08-15T00:00:00	2024-11-08T23:00:00	3	Temperatura mínima	20.1
166788	7	Sololá	719	Santiago Atitlán	14	Cerro de Oro	8	Agosto	2023-08-15T00:00:00	2024-11-08T23:00:00	5	Humedad	75
166789	7	Sololá	719	Santiago Atitlán	14	Cerro de Oro	8	Agosto	2023-08-15T00:00:00	2024-11-08T23:00:00	6	Velocidad del viento	6.4
166790	7	Sololá	719	Santiago Atitlán	14	Cerro de Oro	8	Agosto	2023-08-15T00:00:00	2024-11-08T23:00:00	7	Dirección del viento	6.44
166791	7	Sololá	719	Santiago Atitlán	14	Cerro de Oro	8	Agosto	2023-08-15T00:00:00	2024-11-08T23:00:00	1	Precipitación	0
166792	7	Sololá	719	Santiago Atitlán	14	Cerro de Oro	8	Agosto	2023-08-15T00:00:00	2024-11-08T23:00:00	8	Radiación solar	0
166793	7	Sololá	719	Santiago Atitlán	14	Cerro de Oro	8	Agosto	2023-08-16T00:00:00	2024-11-08T00:00:00	2	Temperatura media	19.9
166794	7	Sololá	719	Santiago Atitlán	14	Cerro de Oro	8	Agosto	2023-08-16T00:00:00	2024-11-08T00:00:00	4	Temperatura máxima	20.2
166795	7	Sololá	719	Santiago Atitlán	14	Cerro de Oro	8	Agosto	2023-08-16T00:00:00	2024-11-08T00:00:00	3	Temperatura mínima	19.8
166796	7	Sololá	719	Santiago Atitlán	14	Cerro de Oro	8	Agosto	2023-08-16T00:00:00	2024-11-08T00:00:00	5	Humedad	75
166797	7	Sololá	719	Santiago Atitlán	14	Cerro de Oro	8	Agosto	2023-08-16T00:00:00	2024-11-08T00:00:00	6	Velocidad del viento	9.7
166798	7	Sololá	719	Santiago Atitlán	14	Cerro de Oro	8	Agosto	2023-08-16T00:00:00	2024-11-08T00:00:00	7	Dirección del viento	9.66
166799	7	Sololá	719	Santiago Atitlán	14	Cerro de Oro	8	Agosto	2023-08-16T00:00:00	2024-11-08T00:00:00	1	Precipitación	0
166800	7	Sololá	719	Santiago Atitlán	14	Cerro de Oro	8	Agosto	2023-08-16T00:00:00	2024-11-08T00:00:00	8	Radiación solar	0
166801	7	Sololá	719	Santiago Atitlán	14	Cerro de Oro	8	Agosto	2023-08-16T00:00:00	2024-11-08T01:00:00	2	Temperatura media	18.7
166802	7	Sololá	719	Santiago Atitlán	14	Cerro de Oro	8	Agosto	2023-08-16T00:00:00	2024-11-08T01:00:00	4	Temperatura máxima	20.1
166803	7	Sololá	719	Santiago Atitlán	14	Cerro de Oro	8	Agosto	2023-08-16T00:00:00	2024-11-08T01:00:00	3	Temperatura mínima	18.7
166804	7	Sololá	719	Santiago Atitlán	14	Cerro de Oro	8	Agosto	2023-08-16T00:00:00	2024-11-08T01:00:00	5	Humedad	77
166805	7	Sololá	719	Santiago Atitlán	14	Cerro de Oro	8	Agosto	2023-08-16T00:00:00	2024-11-08T01:00:00	6	Velocidad del viento	6.4
166806	7	Sololá	719	Santiago Atitlán	14	Cerro de Oro	8	Agosto	2023-08-16T00:00:00	2024-11-08T01:00:00	7	Dirección del viento	6.44
166807	7	Sololá	719	Santiago Atitlán	14	Cerro de Oro	8	Agosto	2023-08-16T00:00:00	2024-11-08T01:00:00	1	Precipitación	0
166808	7	Sololá	719	Santiago Atitlán	14	Cerro de Oro	8	Agosto	2023-08-16T00:00:00	2024-11-08T01:00:00	8	Radiación solar	0
166809	7	Sololá	719	Santiago Atitlán	14	Cerro de Oro	8	Agosto	2023-08-16T00:00:00	2024-11-08T02:00:00	2	Temperatura media	18.6
166810	7	Sololá	719	Santiago Atitlán	14	Cerro de Oro	8	Agosto	2023-08-16T00:00:00	2024-11-08T02:00:00	4	Temperatura máxima	18.9
166811	7	Sololá	719	Santiago Atitlán	14	Cerro de Oro	8	Agosto	2023-08-16T00:00:00	2024-11-08T02:00:00	3	Temperatura mínima	18.6
166812	7	Sololá	719	Santiago Atitlán	14	Cerro de Oro	8	Agosto	2023-08-16T00:00:00	2024-11-08T02:00:00	5	Humedad	78
166813	7	Sololá	719	Santiago Atitlán	14	Cerro de Oro	8	Agosto	2023-08-16T00:00:00	2024-11-08T02:00:00	6	Velocidad del viento	4.8
166814	7	Sololá	719	Santiago Atitlán	14	Cerro de Oro	8	Agosto	2023-08-16T00:00:00	2024-11-08T02:00:00	7	Dirección del viento	4.83
166815	7	Sololá	719	Santiago Atitlán	14	Cerro de Oro	8	Agosto	2023-08-16T00:00:00	2024-11-08T02:00:00	1	Precipitación	0
166816	7	Sololá	719	Santiago Atitlán	14	Cerro de Oro	8	Agosto	2023-08-16T00:00:00	2024-11-08T02:00:00	8	Radiación solar	0
166817	7	Sololá	719	Santiago Atitlán	14	Cerro de Oro	8	Agosto	2023-08-16T00:00:00	2024-11-08T03:00:00	2	Temperatura media	18.3
166818	7	Sololá	719	Santiago Atitlán	14	Cerro de Oro	8	Agosto	2023-08-16T00:00:00	2024-11-08T03:00:00	4	Temperatura máxima	18.7
166819	7	Sololá	719	Santiago Atitlán	14	Cerro de Oro	8	Agosto	2023-08-16T00:00:00	2024-11-08T03:00:00	3	Temperatura mínima	18.2
166820	7	Sololá	719	Santiago Atitlán	14	Cerro de Oro	8	Agosto	2023-08-16T00:00:00	2024-11-08T03:00:00	5	Humedad	79
166821	7	Sololá	719	Santiago Atitlán	14	Cerro de Oro	8	Agosto	2023-08-16T00:00:00	2024-11-08T03:00:00	6	Velocidad del viento	6.4
166822	7	Sololá	719	Santiago Atitlán	14	Cerro de Oro	8	Agosto	2023-08-16T00:00:00	2024-11-08T03:00:00	7	Dirección del viento	6.44
166823	7	Sololá	719	Santiago Atitlán	14	Cerro de Oro	8	Agosto	2023-08-16T00:00:00	2024-11-08T03:00:00	1	Precipitación	0
166824	7	Sololá	719	Santiago Atitlán	14	Cerro de Oro	8	Agosto	2023-08-16T00:00:00	2024-11-08T03:00:00	8	Radiación solar	0
166825	7	Sololá	719	Santiago Atitlán	14	Cerro de Oro	8	Agosto	2023-08-16T00:00:00	2024-11-08T04:00:00	2	Temperatura media	18.6
166826	7	Sololá	719	Santiago Atitlán	14	Cerro de Oro	8	Agosto	2023-08-16T00:00:00	2024-11-08T04:00:00	4	Temperatura máxima	18.7
166827	7	Sololá	719	Santiago Atitlán	14	Cerro de Oro	8	Agosto	2023-08-16T00:00:00	2024-11-08T04:00:00	3	Temperatura mínima	17.9
166828	7	Sololá	719	Santiago Atitlán	14	Cerro de Oro	8	Agosto	2023-08-16T00:00:00	2024-11-08T04:00:00	5	Humedad	78
166829	7	Sololá	719	Santiago Atitlán	14	Cerro de Oro	8	Agosto	2023-08-16T00:00:00	2024-11-08T04:00:00	6	Velocidad del viento	6.4
166830	7	Sololá	719	Santiago Atitlán	14	Cerro de Oro	8	Agosto	2023-08-16T00:00:00	2024-11-08T04:00:00	7	Dirección del viento	6.44
166831	7	Sololá	719	Santiago Atitlán	14	Cerro de Oro	8	Agosto	2023-08-16T00:00:00	2024-11-08T04:00:00	1	Precipitación	0
166832	7	Sololá	719	Santiago Atitlán	14	Cerro de Oro	8	Agosto	2023-08-16T00:00:00	2024-11-08T04:00:00	8	Radiación solar	0
166833	7	Sololá	719	Santiago Atitlán	14	Cerro de Oro	8	Agosto	2023-08-16T00:00:00	2024-11-08T05:00:00	2	Temperatura media	18.6
166834	7	Sololá	719	Santiago Atitlán	14	Cerro de Oro	8	Agosto	2023-08-16T00:00:00	2024-11-08T05:00:00	4	Temperatura máxima	18.7
166835	7	Sololá	719	Santiago Atitlán	14	Cerro de Oro	8	Agosto	2023-08-16T00:00:00	2024-11-08T05:00:00	3	Temperatura mínima	18.5
166836	7	Sololá	719	Santiago Atitlán	14	Cerro de Oro	8	Agosto	2023-08-16T00:00:00	2024-11-08T05:00:00	5	Humedad	78
166837	7	Sololá	719	Santiago Atitlán	14	Cerro de Oro	8	Agosto	2023-08-16T00:00:00	2024-11-08T05:00:00	6	Velocidad del viento	4.8
166838	7	Sololá	719	Santiago Atitlán	14	Cerro de Oro	8	Agosto	2023-08-16T00:00:00	2024-11-08T05:00:00	7	Dirección del viento	4.83
166839	7	Sololá	719	Santiago Atitlán	14	Cerro de Oro	8	Agosto	2023-08-16T00:00:00	2024-11-08T05:00:00	1	Precipitación	0
166840	7	Sololá	719	Santiago Atitlán	14	Cerro de Oro	8	Agosto	2023-08-16T00:00:00	2024-11-08T05:00:00	8	Radiación solar	0
166841	7	Sololá	719	Santiago Atitlán	14	Cerro de Oro	8	Agosto	2023-08-16T00:00:00	2024-11-08T06:00:00	2	Temperatura media	18.5
166842	7	Sololá	719	Santiago Atitlán	14	Cerro de Oro	8	Agosto	2023-08-16T00:00:00	2024-11-08T06:00:00	4	Temperatura máxima	18.8
166843	7	Sololá	719	Santiago Atitlán	14	Cerro de Oro	8	Agosto	2023-08-16T00:00:00	2024-11-08T06:00:00	3	Temperatura mínima	18.4
166844	7	Sololá	719	Santiago Atitlán	14	Cerro de Oro	8	Agosto	2023-08-16T00:00:00	2024-11-08T06:00:00	5	Humedad	76
166845	7	Sololá	719	Santiago Atitlán	14	Cerro de Oro	8	Agosto	2023-08-16T00:00:00	2024-11-08T06:00:00	6	Velocidad del viento	4.8
166846	7	Sololá	719	Santiago Atitlán	14	Cerro de Oro	8	Agosto	2023-08-16T00:00:00	2024-11-08T06:00:00	7	Dirección del viento	4.83
166847	7	Sololá	719	Santiago Atitlán	14	Cerro de Oro	8	Agosto	2023-08-16T00:00:00	2024-11-08T06:00:00	1	Precipitación	0
166848	7	Sololá	719	Santiago Atitlán	14	Cerro de Oro	8	Agosto	2023-08-16T00:00:00	2024-11-08T06:00:00	8	Radiación solar	2
166849	7	Sololá	719	Santiago Atitlán	14	Cerro de Oro	8	Agosto	2023-08-16T00:00:00	2024-11-08T07:00:00	2	Temperatura media	19.7
166850	7	Sololá	719	Santiago Atitlán	14	Cerro de Oro	8	Agosto	2023-08-16T00:00:00	2024-11-08T07:00:00	4	Temperatura máxima	19.7
166851	7	Sololá	719	Santiago Atitlán	14	Cerro de Oro	8	Agosto	2023-08-16T00:00:00	2024-11-08T07:00:00	3	Temperatura mínima	17.8
166852	7	Sololá	719	Santiago Atitlán	14	Cerro de Oro	8	Agosto	2023-08-16T00:00:00	2024-11-08T07:00:00	5	Humedad	71
166853	7	Sololá	719	Santiago Atitlán	14	Cerro de Oro	8	Agosto	2023-08-16T00:00:00	2024-11-08T07:00:00	6	Velocidad del viento	4.8
166854	7	Sololá	719	Santiago Atitlán	14	Cerro de Oro	8	Agosto	2023-08-16T00:00:00	2024-11-08T07:00:00	7	Dirección del viento	4.83
166855	7	Sololá	719	Santiago Atitlán	14	Cerro de Oro	8	Agosto	2023-08-16T00:00:00	2024-11-08T07:00:00	1	Precipitación	0
166856	7	Sololá	719	Santiago Atitlán	14	Cerro de Oro	8	Agosto	2023-08-16T00:00:00	2024-11-08T07:00:00	8	Radiación solar	53
166857	7	Sololá	719	Santiago Atitlán	14	Cerro de Oro	8	Agosto	2023-08-16T00:00:00	2024-11-08T08:00:00	2	Temperatura media	22
166858	7	Sololá	719	Santiago Atitlán	14	Cerro de Oro	8	Agosto	2023-08-16T00:00:00	2024-11-08T08:00:00	4	Temperatura máxima	22
166859	7	Sololá	719	Santiago Atitlán	14	Cerro de Oro	8	Agosto	2023-08-16T00:00:00	2024-11-08T08:00:00	3	Temperatura mínima	19.7
166860	7	Sololá	719	Santiago Atitlán	14	Cerro de Oro	8	Agosto	2023-08-16T00:00:00	2024-11-08T08:00:00	5	Humedad	65
166861	7	Sololá	719	Santiago Atitlán	14	Cerro de Oro	8	Agosto	2023-08-16T00:00:00	2024-11-08T08:00:00	6	Velocidad del viento	3.2
166862	7	Sololá	719	Santiago Atitlán	14	Cerro de Oro	8	Agosto	2023-08-16T00:00:00	2024-11-08T08:00:00	7	Dirección del viento	3.22
166863	7	Sololá	719	Santiago Atitlán	14	Cerro de Oro	8	Agosto	2023-08-16T00:00:00	2024-11-08T08:00:00	1	Precipitación	0
166864	7	Sololá	719	Santiago Atitlán	14	Cerro de Oro	8	Agosto	2023-08-16T00:00:00	2024-11-08T08:00:00	8	Radiación solar	204
166865	7	Sololá	719	Santiago Atitlán	14	Cerro de Oro	8	Agosto	2023-08-16T00:00:00	2024-11-08T09:00:00	2	Temperatura media	23.3
166866	7	Sololá	719	Santiago Atitlán	14	Cerro de Oro	8	Agosto	2023-08-16T00:00:00	2024-11-08T09:00:00	4	Temperatura máxima	23.4
166867	7	Sololá	719	Santiago Atitlán	14	Cerro de Oro	8	Agosto	2023-08-16T00:00:00	2024-11-08T09:00:00	3	Temperatura mínima	22
166868	7	Sololá	719	Santiago Atitlán	14	Cerro de Oro	8	Agosto	2023-08-16T00:00:00	2024-11-08T09:00:00	5	Humedad	61
166869	7	Sololá	719	Santiago Atitlán	14	Cerro de Oro	8	Agosto	2023-08-16T00:00:00	2024-11-08T09:00:00	6	Velocidad del viento	3.2
166870	7	Sololá	719	Santiago Atitlán	14	Cerro de Oro	8	Agosto	2023-08-16T00:00:00	2024-11-08T09:00:00	7	Dirección del viento	3.22
166871	7	Sololá	719	Santiago Atitlán	14	Cerro de Oro	8	Agosto	2023-08-16T00:00:00	2024-11-08T09:00:00	1	Precipitación	0
166872	7	Sololá	719	Santiago Atitlán	14	Cerro de Oro	8	Agosto	2023-08-16T00:00:00	2024-11-08T09:00:00	8	Radiación solar	486
166873	7	Sololá	719	Santiago Atitlán	14	Cerro de Oro	8	Agosto	2023-08-16T00:00:00	2024-11-08T10:00:00	2	Temperatura media	24.4
166874	7	Sololá	719	Santiago Atitlán	14	Cerro de Oro	8	Agosto	2023-08-16T00:00:00	2024-11-08T10:00:00	4	Temperatura máxima	24.4
166875	7	Sololá	719	Santiago Atitlán	14	Cerro de Oro	8	Agosto	2023-08-16T00:00:00	2024-11-08T10:00:00	3	Temperatura mínima	23
166876	7	Sololá	719	Santiago Atitlán	14	Cerro de Oro	8	Agosto	2023-08-16T00:00:00	2024-11-08T10:00:00	5	Humedad	58
166877	7	Sololá	719	Santiago Atitlán	14	Cerro de Oro	8	Agosto	2023-08-16T00:00:00	2024-11-08T10:00:00	6	Velocidad del viento	3.2
166878	7	Sololá	719	Santiago Atitlán	14	Cerro de Oro	8	Agosto	2023-08-16T00:00:00	2024-11-08T10:00:00	7	Dirección del viento	3.22
166879	7	Sololá	719	Santiago Atitlán	14	Cerro de Oro	8	Agosto	2023-08-16T00:00:00	2024-11-08T10:00:00	1	Precipitación	0
166880	7	Sololá	719	Santiago Atitlán	14	Cerro de Oro	8	Agosto	2023-08-16T00:00:00	2024-11-08T10:00:00	8	Radiación solar	642
166881	7	Sololá	719	Santiago Atitlán	14	Cerro de Oro	8	Agosto	2023-08-16T00:00:00	2024-11-08T11:00:00	2	Temperatura media	25.1
166882	7	Sololá	719	Santiago Atitlán	14	Cerro de Oro	8	Agosto	2023-08-16T00:00:00	2024-11-08T11:00:00	4	Temperatura máxima	25.5
166883	7	Sololá	719	Santiago Atitlán	14	Cerro de Oro	8	Agosto	2023-08-16T00:00:00	2024-11-08T11:00:00	3	Temperatura mínima	24.4
166884	7	Sololá	719	Santiago Atitlán	14	Cerro de Oro	8	Agosto	2023-08-16T00:00:00	2024-11-08T11:00:00	5	Humedad	55
166885	7	Sololá	719	Santiago Atitlán	14	Cerro de Oro	8	Agosto	2023-08-16T00:00:00	2024-11-08T11:00:00	6	Velocidad del viento	4.8
166886	7	Sololá	719	Santiago Atitlán	14	Cerro de Oro	8	Agosto	2023-08-16T00:00:00	2024-11-08T11:00:00	7	Dirección del viento	4.83
166887	7	Sololá	719	Santiago Atitlán	14	Cerro de Oro	8	Agosto	2023-08-16T00:00:00	2024-11-08T11:00:00	1	Precipitación	0
166888	7	Sololá	719	Santiago Atitlán	14	Cerro de Oro	8	Agosto	2023-08-16T00:00:00	2024-11-08T11:00:00	8	Radiación solar	811
166889	7	Sololá	719	Santiago Atitlán	14	Cerro de Oro	8	Agosto	2023-08-16T00:00:00	2024-11-08T12:00:00	2	Temperatura media	25.5
166890	7	Sololá	719	Santiago Atitlán	14	Cerro de Oro	8	Agosto	2023-08-16T00:00:00	2024-11-08T12:00:00	4	Temperatura máxima	25.6
166891	7	Sololá	719	Santiago Atitlán	14	Cerro de Oro	8	Agosto	2023-08-16T00:00:00	2024-11-08T12:00:00	3	Temperatura mínima	24.4
166892	7	Sololá	719	Santiago Atitlán	14	Cerro de Oro	8	Agosto	2023-08-16T00:00:00	2024-11-08T12:00:00	5	Humedad	63
166893	7	Sololá	719	Santiago Atitlán	14	Cerro de Oro	8	Agosto	2023-08-16T00:00:00	2024-11-08T12:00:00	6	Velocidad del viento	9.7
166894	7	Sololá	719	Santiago Atitlán	14	Cerro de Oro	8	Agosto	2023-08-16T00:00:00	2024-11-08T12:00:00	7	Dirección del viento	9.66
166895	7	Sololá	719	Santiago Atitlán	14	Cerro de Oro	8	Agosto	2023-08-16T00:00:00	2024-11-08T12:00:00	1	Precipitación	0
166896	7	Sololá	719	Santiago Atitlán	14	Cerro de Oro	8	Agosto	2023-08-16T00:00:00	2024-11-08T12:00:00	8	Radiación solar	759
166897	7	Sololá	719	Santiago Atitlán	14	Cerro de Oro	8	Agosto	2023-08-16T00:00:00	2024-11-08T13:00:00	2	Temperatura media	25.1
166898	7	Sololá	719	Santiago Atitlán	14	Cerro de Oro	8	Agosto	2023-08-16T00:00:00	2024-11-08T13:00:00	4	Temperatura máxima	25.9
166899	7	Sololá	719	Santiago Atitlán	14	Cerro de Oro	8	Agosto	2023-08-16T00:00:00	2024-11-08T13:00:00	3	Temperatura mínima	24
166900	7	Sololá	719	Santiago Atitlán	14	Cerro de Oro	8	Agosto	2023-08-16T00:00:00	2024-11-08T13:00:00	5	Humedad	68
166901	7	Sololá	719	Santiago Atitlán	14	Cerro de Oro	8	Agosto	2023-08-16T00:00:00	2024-11-08T13:00:00	6	Velocidad del viento	11.3
166902	7	Sololá	719	Santiago Atitlán	14	Cerro de Oro	8	Agosto	2023-08-16T00:00:00	2024-11-08T13:00:00	7	Dirección del viento	11.27
166903	7	Sololá	719	Santiago Atitlán	14	Cerro de Oro	8	Agosto	2023-08-16T00:00:00	2024-11-08T13:00:00	1	Precipitación	0
166904	7	Sololá	719	Santiago Atitlán	14	Cerro de Oro	8	Agosto	2023-08-16T00:00:00	2024-11-08T13:00:00	8	Radiación solar	700
166905	7	Sololá	719	Santiago Atitlán	14	Cerro de Oro	8	Agosto	2023-08-16T00:00:00	2024-11-08T14:00:00	2	Temperatura media	24.2
166906	7	Sololá	719	Santiago Atitlán	14	Cerro de Oro	8	Agosto	2023-08-16T00:00:00	2024-11-08T14:00:00	4	Temperatura máxima	25.8
166907	7	Sololá	719	Santiago Atitlán	14	Cerro de Oro	8	Agosto	2023-08-16T00:00:00	2024-11-08T14:00:00	3	Temperatura mínima	24.2
166908	7	Sololá	719	Santiago Atitlán	14	Cerro de Oro	8	Agosto	2023-08-16T00:00:00	2024-11-08T14:00:00	5	Humedad	71
166909	7	Sololá	719	Santiago Atitlán	14	Cerro de Oro	8	Agosto	2023-08-16T00:00:00	2024-11-08T14:00:00	6	Velocidad del viento	11.3
166910	7	Sololá	719	Santiago Atitlán	14	Cerro de Oro	8	Agosto	2023-08-16T00:00:00	2024-11-08T14:00:00	7	Dirección del viento	11.27
166911	7	Sololá	719	Santiago Atitlán	14	Cerro de Oro	8	Agosto	2023-08-16T00:00:00	2024-11-08T14:00:00	1	Precipitación	0
166912	7	Sololá	719	Santiago Atitlán	14	Cerro de Oro	8	Agosto	2023-08-16T00:00:00	2024-11-08T14:00:00	8	Radiación solar	881
166913	7	Sololá	719	Santiago Atitlán	14	Cerro de Oro	8	Agosto	2023-08-16T00:00:00	2024-11-08T15:00:00	2	Temperatura media	22.2
166914	7	Sololá	719	Santiago Atitlán	14	Cerro de Oro	8	Agosto	2023-08-16T00:00:00	2024-11-08T15:00:00	4	Temperatura máxima	25.1
166915	7	Sololá	719	Santiago Atitlán	14	Cerro de Oro	8	Agosto	2023-08-16T00:00:00	2024-11-08T15:00:00	3	Temperatura mínima	22.2
166916	7	Sololá	719	Santiago Atitlán	14	Cerro de Oro	8	Agosto	2023-08-16T00:00:00	2024-11-08T15:00:00	5	Humedad	78
166917	7	Sololá	719	Santiago Atitlán	14	Cerro de Oro	8	Agosto	2023-08-16T00:00:00	2024-11-08T15:00:00	6	Velocidad del viento	12.9
166918	7	Sololá	719	Santiago Atitlán	14	Cerro de Oro	8	Agosto	2023-08-16T00:00:00	2024-11-08T15:00:00	7	Dirección del viento	12.87
166919	7	Sololá	719	Santiago Atitlán	14	Cerro de Oro	8	Agosto	2023-08-16T00:00:00	2024-11-08T15:00:00	1	Precipitación	0
166920	7	Sololá	719	Santiago Atitlán	14	Cerro de Oro	8	Agosto	2023-08-16T00:00:00	2024-11-08T15:00:00	8	Radiación solar	488
166921	7	Sololá	719	Santiago Atitlán	14	Cerro de Oro	8	Agosto	2023-08-16T00:00:00	2024-11-08T16:00:00	2	Temperatura media	21.8
166922	7	Sololá	719	Santiago Atitlán	14	Cerro de Oro	8	Agosto	2023-08-16T00:00:00	2024-11-08T16:00:00	4	Temperatura máxima	22.8
166923	7	Sololá	719	Santiago Atitlán	14	Cerro de Oro	8	Agosto	2023-08-16T00:00:00	2024-11-08T16:00:00	3	Temperatura mínima	21.8
166924	7	Sololá	719	Santiago Atitlán	14	Cerro de Oro	8	Agosto	2023-08-16T00:00:00	2024-11-08T16:00:00	5	Humedad	82
166925	7	Sololá	719	Santiago Atitlán	14	Cerro de Oro	8	Agosto	2023-08-16T00:00:00	2024-11-08T16:00:00	6	Velocidad del viento	8
166926	7	Sololá	719	Santiago Atitlán	14	Cerro de Oro	8	Agosto	2023-08-16T00:00:00	2024-11-08T16:00:00	7	Dirección del viento	8.05
166927	7	Sololá	719	Santiago Atitlán	14	Cerro de Oro	8	Agosto	2023-08-16T00:00:00	2024-11-08T16:00:00	1	Precipitación	0
166928	7	Sololá	719	Santiago Atitlán	14	Cerro de Oro	8	Agosto	2023-08-16T00:00:00	2024-11-08T16:00:00	8	Radiación solar	233
166929	7	Sololá	719	Santiago Atitlán	14	Cerro de Oro	8	Agosto	2023-08-16T00:00:00	2024-11-08T17:00:00	2	Temperatura media	20.1
166930	7	Sololá	719	Santiago Atitlán	14	Cerro de Oro	8	Agosto	2023-08-16T00:00:00	2024-11-08T17:00:00	4	Temperatura máxima	21.7
166931	7	Sololá	719	Santiago Atitlán	14	Cerro de Oro	8	Agosto	2023-08-16T00:00:00	2024-11-08T17:00:00	3	Temperatura mínima	20
166932	7	Sololá	719	Santiago Atitlán	14	Cerro de Oro	8	Agosto	2023-08-16T00:00:00	2024-11-08T17:00:00	5	Humedad	88
166933	7	Sololá	719	Santiago Atitlán	14	Cerro de Oro	8	Agosto	2023-08-16T00:00:00	2024-11-08T17:00:00	6	Velocidad del viento	9.7
166934	7	Sololá	719	Santiago Atitlán	14	Cerro de Oro	8	Agosto	2023-08-16T00:00:00	2024-11-08T17:00:00	7	Dirección del viento	9.66
166935	7	Sololá	719	Santiago Atitlán	14	Cerro de Oro	8	Agosto	2023-08-16T00:00:00	2024-11-08T17:00:00	1	Precipitación	0
166936	7	Sololá	719	Santiago Atitlán	14	Cerro de Oro	8	Agosto	2023-08-16T00:00:00	2024-11-08T17:00:00	8	Radiación solar	88
166937	7	Sololá	719	Santiago Atitlán	14	Cerro de Oro	8	Agosto	2023-08-16T00:00:00	2024-11-08T18:00:00	2	Temperatura media	20.3
166938	7	Sololá	719	Santiago Atitlán	14	Cerro de Oro	8	Agosto	2023-08-16T00:00:00	2024-11-08T18:00:00	4	Temperatura máxima	20.5
166939	7	Sololá	719	Santiago Atitlán	14	Cerro de Oro	8	Agosto	2023-08-16T00:00:00	2024-11-08T18:00:00	3	Temperatura mínima	20
166940	7	Sololá	719	Santiago Atitlán	14	Cerro de Oro	8	Agosto	2023-08-16T00:00:00	2024-11-08T18:00:00	5	Humedad	85
166941	7	Sololá	719	Santiago Atitlán	14	Cerro de Oro	8	Agosto	2023-08-16T00:00:00	2024-11-08T18:00:00	6	Velocidad del viento	6.4
166942	7	Sololá	719	Santiago Atitlán	14	Cerro de Oro	8	Agosto	2023-08-16T00:00:00	2024-11-08T18:00:00	7	Dirección del viento	6.44
166943	7	Sololá	719	Santiago Atitlán	14	Cerro de Oro	8	Agosto	2023-08-16T00:00:00	2024-11-08T18:00:00	1	Precipitación	0
166944	7	Sololá	719	Santiago Atitlán	14	Cerro de Oro	8	Agosto	2023-08-16T00:00:00	2024-11-08T18:00:00	8	Radiación solar	35
166945	7	Sololá	719	Santiago Atitlán	14	Cerro de Oro	8	Agosto	2023-08-16T00:00:00	2024-11-08T19:00:00	2	Temperatura media	19.9
166946	7	Sololá	719	Santiago Atitlán	14	Cerro de Oro	8	Agosto	2023-08-16T00:00:00	2024-11-08T19:00:00	4	Temperatura máxima	20.3
166947	7	Sololá	719	Santiago Atitlán	14	Cerro de Oro	8	Agosto	2023-08-16T00:00:00	2024-11-08T19:00:00	3	Temperatura mínima	19.8
166948	7	Sololá	719	Santiago Atitlán	14	Cerro de Oro	8	Agosto	2023-08-16T00:00:00	2024-11-08T19:00:00	5	Humedad	86
166949	7	Sololá	719	Santiago Atitlán	14	Cerro de Oro	8	Agosto	2023-08-16T00:00:00	2024-11-08T19:00:00	6	Velocidad del viento	4.8
166950	7	Sololá	719	Santiago Atitlán	14	Cerro de Oro	8	Agosto	2023-08-16T00:00:00	2024-11-08T19:00:00	7	Dirección del viento	4.83
166951	7	Sololá	719	Santiago Atitlán	14	Cerro de Oro	8	Agosto	2023-08-16T00:00:00	2024-11-08T19:00:00	1	Precipitación	0
166952	7	Sololá	719	Santiago Atitlán	14	Cerro de Oro	8	Agosto	2023-08-16T00:00:00	2024-11-08T19:00:00	8	Radiación solar	0
166953	7	Sololá	719	Santiago Atitlán	14	Cerro de Oro	8	Agosto	2023-08-16T00:00:00	2024-11-08T20:00:00	2	Temperatura media	19.6
166954	7	Sololá	719	Santiago Atitlán	14	Cerro de Oro	8	Agosto	2023-08-16T00:00:00	2024-11-08T20:00:00	4	Temperatura máxima	19.9
166955	7	Sololá	719	Santiago Atitlán	14	Cerro de Oro	8	Agosto	2023-08-16T00:00:00	2024-11-08T20:00:00	3	Temperatura mínima	19.6
166956	7	Sololá	719	Santiago Atitlán	14	Cerro de Oro	8	Agosto	2023-08-16T00:00:00	2024-11-08T20:00:00	5	Humedad	86
166957	7	Sololá	719	Santiago Atitlán	14	Cerro de Oro	8	Agosto	2023-08-16T00:00:00	2024-11-08T20:00:00	6	Velocidad del viento	3.2
166958	7	Sololá	719	Santiago Atitlán	14	Cerro de Oro	8	Agosto	2023-08-16T00:00:00	2024-11-08T20:00:00	7	Dirección del viento	3.22
166959	7	Sololá	719	Santiago Atitlán	14	Cerro de Oro	8	Agosto	2023-08-16T00:00:00	2024-11-08T20:00:00	1	Precipitación	0
166960	7	Sololá	719	Santiago Atitlán	14	Cerro de Oro	8	Agosto	2023-08-16T00:00:00	2024-11-08T20:00:00	8	Radiación solar	0
166961	7	Sololá	719	Santiago Atitlán	14	Cerro de Oro	8	Agosto	2023-08-16T00:00:00	2024-11-08T21:00:00	2	Temperatura media	19.4
166962	7	Sololá	719	Santiago Atitlán	14	Cerro de Oro	8	Agosto	2023-08-16T00:00:00	2024-11-08T21:00:00	4	Temperatura máxima	19.7
166963	7	Sololá	719	Santiago Atitlán	14	Cerro de Oro	8	Agosto	2023-08-16T00:00:00	2024-11-08T21:00:00	3	Temperatura mínima	19.3
166964	7	Sololá	719	Santiago Atitlán	14	Cerro de Oro	8	Agosto	2023-08-16T00:00:00	2024-11-08T21:00:00	5	Humedad	85
166965	7	Sololá	719	Santiago Atitlán	14	Cerro de Oro	8	Agosto	2023-08-16T00:00:00	2024-11-08T21:00:00	6	Velocidad del viento	4.8
166966	7	Sololá	719	Santiago Atitlán	14	Cerro de Oro	8	Agosto	2023-08-16T00:00:00	2024-11-08T21:00:00	7	Dirección del viento	4.83
166967	7	Sololá	719	Santiago Atitlán	14	Cerro de Oro	8	Agosto	2023-08-16T00:00:00	2024-11-08T21:00:00	1	Precipitación	0
166968	7	Sololá	719	Santiago Atitlán	14	Cerro de Oro	8	Agosto	2023-08-16T00:00:00	2024-11-08T21:00:00	8	Radiación solar	0
166969	7	Sololá	719	Santiago Atitlán	14	Cerro de Oro	8	Agosto	2023-08-16T00:00:00	2024-11-08T22:00:00	2	Temperatura media	20.4
166970	7	Sololá	719	Santiago Atitlán	14	Cerro de Oro	8	Agosto	2023-08-16T00:00:00	2024-11-08T22:00:00	4	Temperatura máxima	20.6
166971	7	Sololá	719	Santiago Atitlán	14	Cerro de Oro	8	Agosto	2023-08-16T00:00:00	2024-11-08T22:00:00	3	Temperatura mínima	19.3
166972	7	Sololá	719	Santiago Atitlán	14	Cerro de Oro	8	Agosto	2023-08-16T00:00:00	2024-11-08T22:00:00	5	Humedad	75
166973	7	Sololá	719	Santiago Atitlán	14	Cerro de Oro	8	Agosto	2023-08-16T00:00:00	2024-11-08T22:00:00	6	Velocidad del viento	6.4
166974	7	Sololá	719	Santiago Atitlán	14	Cerro de Oro	8	Agosto	2023-08-16T00:00:00	2024-11-08T22:00:00	7	Dirección del viento	6.44
166975	7	Sololá	719	Santiago Atitlán	14	Cerro de Oro	8	Agosto	2023-08-16T00:00:00	2024-11-08T22:00:00	1	Precipitación	0
166976	7	Sololá	719	Santiago Atitlán	14	Cerro de Oro	8	Agosto	2023-08-16T00:00:00	2024-11-08T22:00:00	8	Radiación solar	0
166977	7	Sololá	719	Santiago Atitlán	14	Cerro de Oro	8	Agosto	2023-08-16T00:00:00	2024-11-08T23:00:00	2	Temperatura media	19.9
166978	7	Sololá	719	Santiago Atitlán	14	Cerro de Oro	8	Agosto	2023-08-16T00:00:00	2024-11-08T23:00:00	4	Temperatura máxima	20.8
166979	7	Sololá	719	Santiago Atitlán	14	Cerro de Oro	8	Agosto	2023-08-16T00:00:00	2024-11-08T23:00:00	3	Temperatura mínima	19.9
166980	7	Sololá	719	Santiago Atitlán	14	Cerro de Oro	8	Agosto	2023-08-16T00:00:00	2024-11-08T23:00:00	5	Humedad	76
166981	7	Sololá	719	Santiago Atitlán	14	Cerro de Oro	8	Agosto	2023-08-16T00:00:00	2024-11-08T23:00:00	6	Velocidad del viento	4.8
166982	7	Sololá	719	Santiago Atitlán	14	Cerro de Oro	8	Agosto	2023-08-16T00:00:00	2024-11-08T23:00:00	7	Dirección del viento	4.83
166983	7	Sololá	719	Santiago Atitlán	14	Cerro de Oro	8	Agosto	2023-08-16T00:00:00	2024-11-08T23:00:00	1	Precipitación	0
166984	7	Sololá	719	Santiago Atitlán	14	Cerro de Oro	8	Agosto	2023-08-16T00:00:00	2024-11-08T23:00:00	8	Radiación solar	0
166985	7	Sololá	719	Santiago Atitlán	14	Cerro de Oro	8	Agosto	2023-08-17T00:00:00	2024-11-08T00:00:00	2	Temperatura media	19.2
166986	7	Sololá	719	Santiago Atitlán	14	Cerro de Oro	8	Agosto	2023-08-17T00:00:00	2024-11-08T00:00:00	4	Temperatura máxima	19.9
166987	7	Sololá	719	Santiago Atitlán	14	Cerro de Oro	8	Agosto	2023-08-17T00:00:00	2024-11-08T00:00:00	3	Temperatura mínima	19.1
166988	7	Sololá	719	Santiago Atitlán	14	Cerro de Oro	8	Agosto	2023-08-17T00:00:00	2024-11-08T00:00:00	5	Humedad	78
166989	7	Sololá	719	Santiago Atitlán	14	Cerro de Oro	8	Agosto	2023-08-17T00:00:00	2024-11-08T00:00:00	6	Velocidad del viento	6.4
166990	7	Sololá	719	Santiago Atitlán	14	Cerro de Oro	8	Agosto	2023-08-17T00:00:00	2024-11-08T00:00:00	7	Dirección del viento	6.44
166991	7	Sololá	719	Santiago Atitlán	14	Cerro de Oro	8	Agosto	2023-08-17T00:00:00	2024-11-08T00:00:00	1	Precipitación	0
166992	7	Sololá	719	Santiago Atitlán	14	Cerro de Oro	8	Agosto	2023-08-17T00:00:00	2024-11-08T00:00:00	8	Radiación solar	0
166993	7	Sololá	719	Santiago Atitlán	14	Cerro de Oro	8	Agosto	2023-08-17T00:00:00	2024-11-08T01:00:00	2	Temperatura media	19.5
166994	7	Sololá	719	Santiago Atitlán	14	Cerro de Oro	8	Agosto	2023-08-17T00:00:00	2024-11-08T01:00:00	4	Temperatura máxima	19.7
166995	7	Sololá	719	Santiago Atitlán	14	Cerro de Oro	8	Agosto	2023-08-17T00:00:00	2024-11-08T01:00:00	3	Temperatura mínima	19.2
166996	7	Sololá	719	Santiago Atitlán	14	Cerro de Oro	8	Agosto	2023-08-17T00:00:00	2024-11-08T01:00:00	5	Humedad	76
166997	7	Sololá	719	Santiago Atitlán	14	Cerro de Oro	8	Agosto	2023-08-17T00:00:00	2024-11-08T01:00:00	6	Velocidad del viento	3.2
166998	7	Sololá	719	Santiago Atitlán	14	Cerro de Oro	8	Agosto	2023-08-17T00:00:00	2024-11-08T01:00:00	7	Dirección del viento	3.22
166999	7	Sololá	719	Santiago Atitlán	14	Cerro de Oro	8	Agosto	2023-08-17T00:00:00	2024-11-08T01:00:00	1	Precipitación	0
167000	7	Sololá	719	Santiago Atitlán	14	Cerro de Oro	8	Agosto	2023-08-17T00:00:00	2024-11-08T01:00:00	8	Radiación solar	0
167001	7	Sololá	719	Santiago Atitlán	14	Cerro de Oro	8	Agosto	2023-08-17T00:00:00	2024-11-08T02:00:00	2	Temperatura media	19.1
167002	7	Sololá	719	Santiago Atitlán	14	Cerro de Oro	8	Agosto	2023-08-17T00:00:00	2024-11-08T02:00:00	4	Temperatura máxima	19.5
167003	7	Sololá	719	Santiago Atitlán	14	Cerro de Oro	8	Agosto	2023-08-17T00:00:00	2024-11-08T02:00:00	3	Temperatura mínima	18.9
167004	7	Sololá	719	Santiago Atitlán	14	Cerro de Oro	8	Agosto	2023-08-17T00:00:00	2024-11-08T02:00:00	5	Humedad	77
167005	7	Sololá	719	Santiago Atitlán	14	Cerro de Oro	8	Agosto	2023-08-17T00:00:00	2024-11-08T02:00:00	6	Velocidad del viento	4.8
167006	7	Sololá	719	Santiago Atitlán	14	Cerro de Oro	8	Agosto	2023-08-17T00:00:00	2024-11-08T02:00:00	7	Dirección del viento	4.83
167007	7	Sololá	719	Santiago Atitlán	14	Cerro de Oro	8	Agosto	2023-08-17T00:00:00	2024-11-08T02:00:00	1	Precipitación	0
167008	7	Sololá	719	Santiago Atitlán	14	Cerro de Oro	8	Agosto	2023-08-17T00:00:00	2024-11-08T02:00:00	8	Radiación solar	0
167009	7	Sololá	719	Santiago Atitlán	14	Cerro de Oro	8	Agosto	2023-08-17T00:00:00	2024-11-08T03:00:00	2	Temperatura media	18.8
167010	7	Sololá	719	Santiago Atitlán	14	Cerro de Oro	8	Agosto	2023-08-17T00:00:00	2024-11-08T03:00:00	4	Temperatura máxima	19.2
167011	7	Sololá	719	Santiago Atitlán	14	Cerro de Oro	8	Agosto	2023-08-17T00:00:00	2024-11-08T03:00:00	3	Temperatura mínima	18.8
167012	7	Sololá	719	Santiago Atitlán	14	Cerro de Oro	8	Agosto	2023-08-17T00:00:00	2024-11-08T03:00:00	5	Humedad	77
167013	7	Sololá	719	Santiago Atitlán	14	Cerro de Oro	8	Agosto	2023-08-17T00:00:00	2024-11-08T03:00:00	6	Velocidad del viento	4.8
167014	7	Sololá	719	Santiago Atitlán	14	Cerro de Oro	8	Agosto	2023-08-17T00:00:00	2024-11-08T03:00:00	7	Dirección del viento	4.83
167015	7	Sololá	719	Santiago Atitlán	14	Cerro de Oro	8	Agosto	2023-08-17T00:00:00	2024-11-08T03:00:00	1	Precipitación	0
167016	7	Sololá	719	Santiago Atitlán	14	Cerro de Oro	8	Agosto	2023-08-17T00:00:00	2024-11-08T03:00:00	8	Radiación solar	0
167017	7	Sololá	719	Santiago Atitlán	14	Cerro de Oro	8	Agosto	2023-08-17T00:00:00	2024-11-08T04:00:00	2	Temperatura media	18.3
167018	7	Sololá	719	Santiago Atitlán	14	Cerro de Oro	8	Agosto	2023-08-17T00:00:00	2024-11-08T04:00:00	4	Temperatura máxima	18.9
167019	7	Sololá	719	Santiago Atitlán	14	Cerro de Oro	8	Agosto	2023-08-17T00:00:00	2024-11-08T04:00:00	3	Temperatura mínima	18.3
167020	7	Sololá	719	Santiago Atitlán	14	Cerro de Oro	8	Agosto	2023-08-17T00:00:00	2024-11-08T04:00:00	5	Humedad	77
167021	7	Sololá	719	Santiago Atitlán	14	Cerro de Oro	8	Agosto	2023-08-17T00:00:00	2024-11-08T04:00:00	6	Velocidad del viento	4.8
167022	7	Sololá	719	Santiago Atitlán	14	Cerro de Oro	8	Agosto	2023-08-17T00:00:00	2024-11-08T04:00:00	7	Dirección del viento	4.83
167023	7	Sololá	719	Santiago Atitlán	14	Cerro de Oro	8	Agosto	2023-08-17T00:00:00	2024-11-08T04:00:00	1	Precipitación	0
167024	7	Sololá	719	Santiago Atitlán	14	Cerro de Oro	8	Agosto	2023-08-17T00:00:00	2024-11-08T04:00:00	8	Radiación solar	0
167025	7	Sololá	719	Santiago Atitlán	14	Cerro de Oro	8	Agosto	2023-08-17T00:00:00	2024-11-08T05:00:00	2	Temperatura media	17.9
167026	7	Sololá	719	Santiago Atitlán	14	Cerro de Oro	8	Agosto	2023-08-17T00:00:00	2024-11-08T05:00:00	4	Temperatura máxima	18.4
167027	7	Sololá	719	Santiago Atitlán	14	Cerro de Oro	8	Agosto	2023-08-17T00:00:00	2024-11-08T05:00:00	3	Temperatura mínima	17.8
167028	7	Sololá	719	Santiago Atitlán	14	Cerro de Oro	8	Agosto	2023-08-17T00:00:00	2024-11-08T05:00:00	5	Humedad	78
167029	7	Sololá	719	Santiago Atitlán	14	Cerro de Oro	8	Agosto	2023-08-17T00:00:00	2024-11-08T05:00:00	6	Velocidad del viento	4.8
167030	7	Sololá	719	Santiago Atitlán	14	Cerro de Oro	8	Agosto	2023-08-17T00:00:00	2024-11-08T05:00:00	7	Dirección del viento	4.83
167031	7	Sololá	719	Santiago Atitlán	14	Cerro de Oro	8	Agosto	2023-08-17T00:00:00	2024-11-08T05:00:00	1	Precipitación	0
167032	7	Sololá	719	Santiago Atitlán	14	Cerro de Oro	8	Agosto	2023-08-17T00:00:00	2024-11-08T05:00:00	8	Radiación solar	0
167033	7	Sololá	719	Santiago Atitlán	14	Cerro de Oro	8	Agosto	2023-08-17T00:00:00	2024-11-08T06:00:00	2	Temperatura media	18.4
167034	7	Sololá	719	Santiago Atitlán	14	Cerro de Oro	8	Agosto	2023-08-17T00:00:00	2024-11-08T06:00:00	4	Temperatura máxima	18.8
167035	7	Sololá	719	Santiago Atitlán	14	Cerro de Oro	8	Agosto	2023-08-17T00:00:00	2024-11-08T06:00:00	3	Temperatura mínima	17.9
167036	7	Sololá	719	Santiago Atitlán	14	Cerro de Oro	8	Agosto	2023-08-17T00:00:00	2024-11-08T06:00:00	5	Humedad	75
167037	7	Sololá	719	Santiago Atitlán	14	Cerro de Oro	8	Agosto	2023-08-17T00:00:00	2024-11-08T06:00:00	6	Velocidad del viento	3.2
167038	7	Sololá	719	Santiago Atitlán	14	Cerro de Oro	8	Agosto	2023-08-17T00:00:00	2024-11-08T06:00:00	7	Dirección del viento	3.22
167039	7	Sololá	719	Santiago Atitlán	14	Cerro de Oro	8	Agosto	2023-08-17T00:00:00	2024-11-08T06:00:00	1	Precipitación	0
167040	7	Sololá	719	Santiago Atitlán	14	Cerro de Oro	8	Agosto	2023-08-17T00:00:00	2024-11-08T06:00:00	8	Radiación solar	1
167041	7	Sololá	719	Santiago Atitlán	14	Cerro de Oro	8	Agosto	2023-08-17T00:00:00	2024-11-08T07:00:00	2	Temperatura media	19.6
167042	7	Sololá	719	Santiago Atitlán	14	Cerro de Oro	8	Agosto	2023-08-17T00:00:00	2024-11-08T07:00:00	4	Temperatura máxima	19.6
167043	7	Sololá	719	Santiago Atitlán	14	Cerro de Oro	8	Agosto	2023-08-17T00:00:00	2024-11-08T07:00:00	3	Temperatura mínima	18.4
167044	7	Sololá	719	Santiago Atitlán	14	Cerro de Oro	8	Agosto	2023-08-17T00:00:00	2024-11-08T07:00:00	5	Humedad	76
167045	7	Sololá	719	Santiago Atitlán	14	Cerro de Oro	8	Agosto	2023-08-17T00:00:00	2024-11-08T07:00:00	6	Velocidad del viento	3.2
167046	7	Sololá	719	Santiago Atitlán	14	Cerro de Oro	8	Agosto	2023-08-17T00:00:00	2024-11-08T07:00:00	7	Dirección del viento	3.22
167047	7	Sololá	719	Santiago Atitlán	14	Cerro de Oro	8	Agosto	2023-08-17T00:00:00	2024-11-08T07:00:00	1	Precipitación	0
167048	7	Sololá	719	Santiago Atitlán	14	Cerro de Oro	8	Agosto	2023-08-17T00:00:00	2024-11-08T07:00:00	8	Radiación solar	59
167049	7	Sololá	719	Santiago Atitlán	14	Cerro de Oro	8	Agosto	2023-08-17T00:00:00	2024-11-08T08:00:00	2	Temperatura media	22.4
167050	7	Sololá	719	Santiago Atitlán	14	Cerro de Oro	8	Agosto	2023-08-17T00:00:00	2024-11-08T08:00:00	4	Temperatura máxima	22.5
167051	7	Sololá	719	Santiago Atitlán	14	Cerro de Oro	8	Agosto	2023-08-17T00:00:00	2024-11-08T08:00:00	3	Temperatura mínima	19.6
167052	7	Sololá	719	Santiago Atitlán	14	Cerro de Oro	8	Agosto	2023-08-17T00:00:00	2024-11-08T08:00:00	5	Humedad	64
167053	7	Sololá	719	Santiago Atitlán	14	Cerro de Oro	8	Agosto	2023-08-17T00:00:00	2024-11-08T08:00:00	6	Velocidad del viento	3.2
167054	7	Sololá	719	Santiago Atitlán	14	Cerro de Oro	8	Agosto	2023-08-17T00:00:00	2024-11-08T08:00:00	7	Dirección del viento	3.22
167055	7	Sololá	719	Santiago Atitlán	14	Cerro de Oro	8	Agosto	2023-08-17T00:00:00	2024-11-08T08:00:00	1	Precipitación	0
167056	7	Sololá	719	Santiago Atitlán	14	Cerro de Oro	8	Agosto	2023-08-17T00:00:00	2024-11-08T08:00:00	8	Radiación solar	286
167057	7	Sololá	719	Santiago Atitlán	14	Cerro de Oro	8	Agosto	2023-08-17T00:00:00	2024-11-08T09:00:00	2	Temperatura media	22.4
167058	7	Sololá	719	Santiago Atitlán	14	Cerro de Oro	8	Agosto	2023-08-17T00:00:00	2024-11-08T09:00:00	4	Temperatura máxima	22.8
167059	7	Sololá	719	Santiago Atitlán	14	Cerro de Oro	8	Agosto	2023-08-17T00:00:00	2024-11-08T09:00:00	3	Temperatura mínima	22.2
167060	7	Sololá	719	Santiago Atitlán	14	Cerro de Oro	8	Agosto	2023-08-17T00:00:00	2024-11-08T09:00:00	5	Humedad	62
167061	7	Sololá	719	Santiago Atitlán	14	Cerro de Oro	8	Agosto	2023-08-17T00:00:00	2024-11-08T09:00:00	6	Velocidad del viento	3.2
167062	7	Sololá	719	Santiago Atitlán	14	Cerro de Oro	8	Agosto	2023-08-17T00:00:00	2024-11-08T09:00:00	7	Dirección del viento	3.22
167063	7	Sololá	719	Santiago Atitlán	14	Cerro de Oro	8	Agosto	2023-08-17T00:00:00	2024-11-08T09:00:00	1	Precipitación	0
167064	7	Sololá	719	Santiago Atitlán	14	Cerro de Oro	8	Agosto	2023-08-17T00:00:00	2024-11-08T09:00:00	8	Radiación solar	355
167065	7	Sololá	719	Santiago Atitlán	14	Cerro de Oro	8	Agosto	2023-08-17T00:00:00	2024-11-08T10:00:00	2	Temperatura media	24.7
167066	7	Sololá	719	Santiago Atitlán	14	Cerro de Oro	8	Agosto	2023-08-17T00:00:00	2024-11-08T10:00:00	4	Temperatura máxima	24.8
167067	7	Sololá	719	Santiago Atitlán	14	Cerro de Oro	8	Agosto	2023-08-17T00:00:00	2024-11-08T10:00:00	3	Temperatura mínima	22.4
167068	7	Sololá	719	Santiago Atitlán	14	Cerro de Oro	8	Agosto	2023-08-17T00:00:00	2024-11-08T10:00:00	5	Humedad	53
167069	7	Sololá	719	Santiago Atitlán	14	Cerro de Oro	8	Agosto	2023-08-17T00:00:00	2024-11-08T10:00:00	6	Velocidad del viento	3.2
167070	7	Sololá	719	Santiago Atitlán	14	Cerro de Oro	8	Agosto	2023-08-17T00:00:00	2024-11-08T10:00:00	7	Dirección del viento	3.22
167071	7	Sololá	719	Santiago Atitlán	14	Cerro de Oro	8	Agosto	2023-08-17T00:00:00	2024-11-08T10:00:00	1	Precipitación	0
167072	7	Sololá	719	Santiago Atitlán	14	Cerro de Oro	8	Agosto	2023-08-17T00:00:00	2024-11-08T10:00:00	8	Radiación solar	647
167073	7	Sololá	719	Santiago Atitlán	14	Cerro de Oro	8	Agosto	2023-08-17T00:00:00	2024-11-08T11:00:00	2	Temperatura media	26
167074	7	Sololá	719	Santiago Atitlán	14	Cerro de Oro	8	Agosto	2023-08-17T00:00:00	2024-11-08T11:00:00	4	Temperatura máxima	26.1
167075	7	Sololá	719	Santiago Atitlán	14	Cerro de Oro	8	Agosto	2023-08-17T00:00:00	2024-11-08T11:00:00	3	Temperatura mínima	24.7
167076	7	Sololá	719	Santiago Atitlán	14	Cerro de Oro	8	Agosto	2023-08-17T00:00:00	2024-11-08T11:00:00	5	Humedad	50
167077	7	Sololá	719	Santiago Atitlán	14	Cerro de Oro	8	Agosto	2023-08-17T00:00:00	2024-11-08T11:00:00	6	Velocidad del viento	3.2
167078	7	Sololá	719	Santiago Atitlán	14	Cerro de Oro	8	Agosto	2023-08-17T00:00:00	2024-11-08T11:00:00	7	Dirección del viento	3.22
167079	7	Sololá	719	Santiago Atitlán	14	Cerro de Oro	8	Agosto	2023-08-17T00:00:00	2024-11-08T11:00:00	1	Precipitación	0
167080	7	Sololá	719	Santiago Atitlán	14	Cerro de Oro	8	Agosto	2023-08-17T00:00:00	2024-11-08T11:00:00	8	Radiación solar	848
167081	7	Sololá	719	Santiago Atitlán	14	Cerro de Oro	8	Agosto	2023-08-17T00:00:00	2024-11-08T12:00:00	2	Temperatura media	26
167082	7	Sololá	719	Santiago Atitlán	14	Cerro de Oro	8	Agosto	2023-08-17T00:00:00	2024-11-08T12:00:00	4	Temperatura máxima	26.2
167083	7	Sololá	719	Santiago Atitlán	14	Cerro de Oro	8	Agosto	2023-08-17T00:00:00	2024-11-08T12:00:00	3	Temperatura mínima	25.4
167084	7	Sololá	719	Santiago Atitlán	14	Cerro de Oro	8	Agosto	2023-08-17T00:00:00	2024-11-08T12:00:00	5	Humedad	49
167085	7	Sololá	719	Santiago Atitlán	14	Cerro de Oro	8	Agosto	2023-08-17T00:00:00	2024-11-08T12:00:00	6	Velocidad del viento	11.3
167086	7	Sololá	719	Santiago Atitlán	14	Cerro de Oro	8	Agosto	2023-08-17T00:00:00	2024-11-08T12:00:00	7	Dirección del viento	11.27
167087	7	Sololá	719	Santiago Atitlán	14	Cerro de Oro	8	Agosto	2023-08-17T00:00:00	2024-11-08T12:00:00	1	Precipitación	0
167088	7	Sololá	719	Santiago Atitlán	14	Cerro de Oro	8	Agosto	2023-08-17T00:00:00	2024-11-08T12:00:00	8	Radiación solar	926
167089	7	Sololá	719	Santiago Atitlán	14	Cerro de Oro	8	Agosto	2023-08-17T00:00:00	2024-11-08T13:00:00	2	Temperatura media	24.6
167090	7	Sololá	719	Santiago Atitlán	14	Cerro de Oro	8	Agosto	2023-08-17T00:00:00	2024-11-08T13:00:00	4	Temperatura máxima	26.3
167091	7	Sololá	719	Santiago Atitlán	14	Cerro de Oro	8	Agosto	2023-08-17T00:00:00	2024-11-08T13:00:00	3	Temperatura mínima	24.6
167092	7	Sololá	719	Santiago Atitlán	14	Cerro de Oro	8	Agosto	2023-08-17T00:00:00	2024-11-08T13:00:00	5	Humedad	72
167093	7	Sololá	719	Santiago Atitlán	14	Cerro de Oro	8	Agosto	2023-08-17T00:00:00	2024-11-08T13:00:00	6	Velocidad del viento	11.3
167094	7	Sololá	719	Santiago Atitlán	14	Cerro de Oro	8	Agosto	2023-08-17T00:00:00	2024-11-08T13:00:00	7	Dirección del viento	11.27
167095	7	Sololá	719	Santiago Atitlán	14	Cerro de Oro	8	Agosto	2023-08-17T00:00:00	2024-11-08T13:00:00	1	Precipitación	0
167096	7	Sololá	719	Santiago Atitlán	14	Cerro de Oro	8	Agosto	2023-08-17T00:00:00	2024-11-08T13:00:00	8	Radiación solar	834
167097	7	Sololá	719	Santiago Atitlán	14	Cerro de Oro	8	Agosto	2023-08-17T00:00:00	2024-11-08T14:00:00	2	Temperatura media	25.1
167098	7	Sololá	719	Santiago Atitlán	14	Cerro de Oro	8	Agosto	2023-08-17T00:00:00	2024-11-08T14:00:00	4	Temperatura máxima	25.1
167099	7	Sololá	719	Santiago Atitlán	14	Cerro de Oro	8	Agosto	2023-08-17T00:00:00	2024-11-08T14:00:00	3	Temperatura mínima	23.9
167100	7	Sololá	719	Santiago Atitlán	14	Cerro de Oro	8	Agosto	2023-08-17T00:00:00	2024-11-08T14:00:00	5	Humedad	69
167101	7	Sololá	719	Santiago Atitlán	14	Cerro de Oro	8	Agosto	2023-08-17T00:00:00	2024-11-08T14:00:00	6	Velocidad del viento	12.9
167102	7	Sololá	719	Santiago Atitlán	14	Cerro de Oro	8	Agosto	2023-08-17T00:00:00	2024-11-08T14:00:00	7	Dirección del viento	12.87
167103	7	Sololá	719	Santiago Atitlán	14	Cerro de Oro	8	Agosto	2023-08-17T00:00:00	2024-11-08T14:00:00	1	Precipitación	0
167104	7	Sololá	719	Santiago Atitlán	14	Cerro de Oro	8	Agosto	2023-08-17T00:00:00	2024-11-08T14:00:00	8	Radiación solar	639
167105	7	Sololá	719	Santiago Atitlán	14	Cerro de Oro	8	Agosto	2023-08-17T00:00:00	2024-11-08T15:00:00	2	Temperatura media	25.3
167106	7	Sololá	719	Santiago Atitlán	14	Cerro de Oro	8	Agosto	2023-08-17T00:00:00	2024-11-08T15:00:00	4	Temperatura máxima	25.4
167107	7	Sololá	719	Santiago Atitlán	14	Cerro de Oro	8	Agosto	2023-08-17T00:00:00	2024-11-08T15:00:00	3	Temperatura mínima	24.8
167108	7	Sololá	719	Santiago Atitlán	14	Cerro de Oro	8	Agosto	2023-08-17T00:00:00	2024-11-08T15:00:00	5	Humedad	60
167109	7	Sololá	719	Santiago Atitlán	14	Cerro de Oro	8	Agosto	2023-08-17T00:00:00	2024-11-08T15:00:00	6	Velocidad del viento	12.9
167110	7	Sololá	719	Santiago Atitlán	14	Cerro de Oro	8	Agosto	2023-08-17T00:00:00	2024-11-08T15:00:00	7	Dirección del viento	12.87
167111	7	Sololá	719	Santiago Atitlán	14	Cerro de Oro	8	Agosto	2023-08-17T00:00:00	2024-11-08T15:00:00	1	Precipitación	0
167112	7	Sololá	719	Santiago Atitlán	14	Cerro de Oro	8	Agosto	2023-08-17T00:00:00	2024-11-08T15:00:00	8	Radiación solar	768
167113	7	Sololá	719	Santiago Atitlán	14	Cerro de Oro	8	Agosto	2023-08-17T00:00:00	2024-11-08T16:00:00	2	Temperatura media	23.6
167114	7	Sololá	719	Santiago Atitlán	14	Cerro de Oro	8	Agosto	2023-08-17T00:00:00	2024-11-08T16:00:00	4	Temperatura máxima	25.7
167115	7	Sololá	719	Santiago Atitlán	14	Cerro de Oro	8	Agosto	2023-08-17T00:00:00	2024-11-08T16:00:00	3	Temperatura mínima	23.4
167116	7	Sololá	719	Santiago Atitlán	14	Cerro de Oro	8	Agosto	2023-08-17T00:00:00	2024-11-08T16:00:00	5	Humedad	76
167117	7	Sololá	719	Santiago Atitlán	14	Cerro de Oro	8	Agosto	2023-08-17T00:00:00	2024-11-08T16:00:00	6	Velocidad del viento	8
167118	7	Sololá	719	Santiago Atitlán	14	Cerro de Oro	8	Agosto	2023-08-17T00:00:00	2024-11-08T16:00:00	7	Dirección del viento	8.05
167119	7	Sololá	719	Santiago Atitlán	14	Cerro de Oro	8	Agosto	2023-08-17T00:00:00	2024-11-08T16:00:00	1	Precipitación	0
167120	7	Sololá	719	Santiago Atitlán	14	Cerro de Oro	8	Agosto	2023-08-17T00:00:00	2024-11-08T16:00:00	8	Radiación solar	432
167121	7	Sololá	719	Santiago Atitlán	14	Cerro de Oro	8	Agosto	2023-08-17T00:00:00	2024-11-08T17:00:00	2	Temperatura media	23.4
167122	7	Sololá	719	Santiago Atitlán	14	Cerro de Oro	8	Agosto	2023-08-17T00:00:00	2024-11-08T17:00:00	4	Temperatura máxima	24.6
167123	7	Sololá	719	Santiago Atitlán	14	Cerro de Oro	8	Agosto	2023-08-17T00:00:00	2024-11-08T17:00:00	3	Temperatura mínima	23.4
167124	7	Sololá	719	Santiago Atitlán	14	Cerro de Oro	8	Agosto	2023-08-17T00:00:00	2024-11-08T17:00:00	5	Humedad	79
167125	7	Sololá	719	Santiago Atitlán	14	Cerro de Oro	8	Agosto	2023-08-17T00:00:00	2024-11-08T17:00:00	6	Velocidad del viento	9.7
167126	7	Sololá	719	Santiago Atitlán	14	Cerro de Oro	8	Agosto	2023-08-17T00:00:00	2024-11-08T17:00:00	7	Dirección del viento	9.66
167127	7	Sololá	719	Santiago Atitlán	14	Cerro de Oro	8	Agosto	2023-08-17T00:00:00	2024-11-08T17:00:00	1	Precipitación	0
167128	7	Sololá	719	Santiago Atitlán	14	Cerro de Oro	8	Agosto	2023-08-17T00:00:00	2024-11-08T17:00:00	8	Radiación solar	397
167129	7	Sololá	719	Santiago Atitlán	14	Cerro de Oro	8	Agosto	2023-08-17T00:00:00	2024-11-08T18:00:00	2	Temperatura media	21.7
167130	7	Sololá	719	Santiago Atitlán	14	Cerro de Oro	8	Agosto	2023-08-17T00:00:00	2024-11-08T18:00:00	4	Temperatura máxima	23.4
167131	7	Sololá	719	Santiago Atitlán	14	Cerro de Oro	8	Agosto	2023-08-17T00:00:00	2024-11-08T18:00:00	3	Temperatura mínima	21.7
167132	7	Sololá	719	Santiago Atitlán	14	Cerro de Oro	8	Agosto	2023-08-17T00:00:00	2024-11-08T18:00:00	5	Humedad	80
167133	7	Sololá	719	Santiago Atitlán	14	Cerro de Oro	8	Agosto	2023-08-17T00:00:00	2024-11-08T18:00:00	6	Velocidad del viento	8
167134	7	Sololá	719	Santiago Atitlán	14	Cerro de Oro	8	Agosto	2023-08-17T00:00:00	2024-11-08T18:00:00	7	Dirección del viento	8.05
167135	7	Sololá	719	Santiago Atitlán	14	Cerro de Oro	8	Agosto	2023-08-17T00:00:00	2024-11-08T18:00:00	1	Precipitación	0
167136	7	Sololá	719	Santiago Atitlán	14	Cerro de Oro	8	Agosto	2023-08-17T00:00:00	2024-11-08T18:00:00	8	Radiación solar	84
167137	7	Sololá	719	Santiago Atitlán	14	Cerro de Oro	8	Agosto	2023-08-17T00:00:00	2024-11-08T19:00:00	2	Temperatura media	20.9
167138	7	Sololá	719	Santiago Atitlán	14	Cerro de Oro	8	Agosto	2023-08-17T00:00:00	2024-11-08T19:00:00	4	Temperatura máxima	21.7
167139	7	Sololá	719	Santiago Atitlán	14	Cerro de Oro	8	Agosto	2023-08-17T00:00:00	2024-11-08T19:00:00	3	Temperatura mínima	20.6
167140	7	Sololá	719	Santiago Atitlán	14	Cerro de Oro	8	Agosto	2023-08-17T00:00:00	2024-11-08T19:00:00	5	Humedad	81
167141	7	Sololá	719	Santiago Atitlán	14	Cerro de Oro	8	Agosto	2023-08-17T00:00:00	2024-11-08T19:00:00	6	Velocidad del viento	8
167142	7	Sololá	719	Santiago Atitlán	14	Cerro de Oro	8	Agosto	2023-08-17T00:00:00	2024-11-08T19:00:00	7	Dirección del viento	8.05
167143	7	Sololá	719	Santiago Atitlán	14	Cerro de Oro	8	Agosto	2023-08-17T00:00:00	2024-11-08T19:00:00	1	Precipitación	0
167144	7	Sololá	719	Santiago Atitlán	14	Cerro de Oro	8	Agosto	2023-08-17T00:00:00	2024-11-08T19:00:00	8	Radiación solar	0
167145	7	Sololá	719	Santiago Atitlán	14	Cerro de Oro	8	Agosto	2023-08-17T00:00:00	2024-11-08T20:00:00	2	Temperatura media	21.7
167146	7	Sololá	719	Santiago Atitlán	14	Cerro de Oro	8	Agosto	2023-08-17T00:00:00	2024-11-08T20:00:00	4	Temperatura máxima	21.9
167147	7	Sololá	719	Santiago Atitlán	14	Cerro de Oro	8	Agosto	2023-08-17T00:00:00	2024-11-08T20:00:00	3	Temperatura mínima	20.9
167148	7	Sololá	719	Santiago Atitlán	14	Cerro de Oro	8	Agosto	2023-08-17T00:00:00	2024-11-08T20:00:00	5	Humedad	69
167149	7	Sololá	719	Santiago Atitlán	14	Cerro de Oro	8	Agosto	2023-08-17T00:00:00	2024-11-08T20:00:00	6	Velocidad del viento	6.4
167150	7	Sololá	719	Santiago Atitlán	14	Cerro de Oro	8	Agosto	2023-08-17T00:00:00	2024-11-08T20:00:00	7	Dirección del viento	6.44
167151	7	Sololá	719	Santiago Atitlán	14	Cerro de Oro	8	Agosto	2023-08-17T00:00:00	2024-11-08T20:00:00	1	Precipitación	0
167152	7	Sololá	719	Santiago Atitlán	14	Cerro de Oro	8	Agosto	2023-08-17T00:00:00	2024-11-08T20:00:00	8	Radiación solar	0
167153	7	Sololá	719	Santiago Atitlán	14	Cerro de Oro	8	Agosto	2023-08-17T00:00:00	2024-11-08T21:00:00	2	Temperatura media	20.3
167154	7	Sololá	719	Santiago Atitlán	14	Cerro de Oro	8	Agosto	2023-08-17T00:00:00	2024-11-08T21:00:00	4	Temperatura máxima	21.8
167155	7	Sololá	719	Santiago Atitlán	14	Cerro de Oro	8	Agosto	2023-08-17T00:00:00	2024-11-08T21:00:00	3	Temperatura mínima	20.3
167156	7	Sololá	719	Santiago Atitlán	14	Cerro de Oro	8	Agosto	2023-08-17T00:00:00	2024-11-08T21:00:00	5	Humedad	71
167157	7	Sololá	719	Santiago Atitlán	14	Cerro de Oro	8	Agosto	2023-08-17T00:00:00	2024-11-08T21:00:00	6	Velocidad del viento	3.2
167158	7	Sololá	719	Santiago Atitlán	14	Cerro de Oro	8	Agosto	2023-08-17T00:00:00	2024-11-08T21:00:00	7	Dirección del viento	3.22
167159	7	Sololá	719	Santiago Atitlán	14	Cerro de Oro	8	Agosto	2023-08-17T00:00:00	2024-11-08T21:00:00	1	Precipitación	0
167160	7	Sololá	719	Santiago Atitlán	14	Cerro de Oro	8	Agosto	2023-08-17T00:00:00	2024-11-08T21:00:00	8	Radiación solar	0
167161	7	Sololá	719	Santiago Atitlán	14	Cerro de Oro	8	Agosto	2023-08-17T00:00:00	2024-11-08T22:00:00	2	Temperatura media	20.4
167162	7	Sololá	719	Santiago Atitlán	14	Cerro de Oro	8	Agosto	2023-08-17T00:00:00	2024-11-08T22:00:00	4	Temperatura máxima	20.8
167163	7	Sololá	719	Santiago Atitlán	14	Cerro de Oro	8	Agosto	2023-08-17T00:00:00	2024-11-08T22:00:00	3	Temperatura mínima	20.3
167164	7	Sololá	719	Santiago Atitlán	14	Cerro de Oro	8	Agosto	2023-08-17T00:00:00	2024-11-08T22:00:00	5	Humedad	73
167165	7	Sololá	719	Santiago Atitlán	14	Cerro de Oro	8	Agosto	2023-08-17T00:00:00	2024-11-08T22:00:00	6	Velocidad del viento	6.4
167166	7	Sololá	719	Santiago Atitlán	14	Cerro de Oro	8	Agosto	2023-08-17T00:00:00	2024-11-08T22:00:00	7	Dirección del viento	6.44
167167	7	Sololá	719	Santiago Atitlán	14	Cerro de Oro	8	Agosto	2023-08-17T00:00:00	2024-11-08T22:00:00	1	Precipitación	0
167168	7	Sololá	719	Santiago Atitlán	14	Cerro de Oro	8	Agosto	2023-08-17T00:00:00	2024-11-08T22:00:00	8	Radiación solar	0
167169	7	Sololá	719	Santiago Atitlán	14	Cerro de Oro	8	Agosto	2023-08-17T00:00:00	2024-11-08T23:00:00	2	Temperatura media	20.4
167170	7	Sololá	719	Santiago Atitlán	14	Cerro de Oro	8	Agosto	2023-08-17T00:00:00	2024-11-08T23:00:00	4	Temperatura máxima	20.9
167171	7	Sololá	719	Santiago Atitlán	14	Cerro de Oro	8	Agosto	2023-08-17T00:00:00	2024-11-08T23:00:00	3	Temperatura mínima	19.9
167172	7	Sololá	719	Santiago Atitlán	14	Cerro de Oro	8	Agosto	2023-08-17T00:00:00	2024-11-08T23:00:00	5	Humedad	73
167173	7	Sololá	719	Santiago Atitlán	14	Cerro de Oro	8	Agosto	2023-08-17T00:00:00	2024-11-08T23:00:00	6	Velocidad del viento	6.4
167174	7	Sololá	719	Santiago Atitlán	14	Cerro de Oro	8	Agosto	2023-08-17T00:00:00	2024-11-08T23:00:00	7	Dirección del viento	6.44
167175	7	Sololá	719	Santiago Atitlán	14	Cerro de Oro	8	Agosto	2023-08-17T00:00:00	2024-11-08T23:00:00	1	Precipitación	0
167176	7	Sololá	719	Santiago Atitlán	14	Cerro de Oro	8	Agosto	2023-08-17T00:00:00	2024-11-08T23:00:00	8	Radiación solar	0
167177	7	Sololá	719	Santiago Atitlán	14	Cerro de Oro	8	Agosto	2023-08-18T00:00:00	2024-11-08T00:00:00	2	Temperatura media	19.1
167178	7	Sololá	719	Santiago Atitlán	14	Cerro de Oro	8	Agosto	2023-08-18T00:00:00	2024-11-08T00:00:00	4	Temperatura máxima	20.4
167179	7	Sololá	719	Santiago Atitlán	14	Cerro de Oro	8	Agosto	2023-08-18T00:00:00	2024-11-08T00:00:00	3	Temperatura mínima	19.1
167180	7	Sololá	719	Santiago Atitlán	14	Cerro de Oro	8	Agosto	2023-08-18T00:00:00	2024-11-08T00:00:00	5	Humedad	77
167181	7	Sololá	719	Santiago Atitlán	14	Cerro de Oro	8	Agosto	2023-08-18T00:00:00	2024-11-08T00:00:00	6	Velocidad del viento	4.8
167182	7	Sololá	719	Santiago Atitlán	14	Cerro de Oro	8	Agosto	2023-08-18T00:00:00	2024-11-08T00:00:00	7	Dirección del viento	4.83
167183	7	Sololá	719	Santiago Atitlán	14	Cerro de Oro	8	Agosto	2023-08-18T00:00:00	2024-11-08T00:00:00	1	Precipitación	0
167184	7	Sololá	719	Santiago Atitlán	14	Cerro de Oro	8	Agosto	2023-08-18T00:00:00	2024-11-08T00:00:00	8	Radiación solar	0
167185	7	Sololá	719	Santiago Atitlán	14	Cerro de Oro	8	Agosto	2023-08-18T00:00:00	2024-11-08T01:00:00	2	Temperatura media	19.6
167186	7	Sololá	719	Santiago Atitlán	14	Cerro de Oro	8	Agosto	2023-08-18T00:00:00	2024-11-08T01:00:00	4	Temperatura máxima	19.6
167187	7	Sololá	719	Santiago Atitlán	14	Cerro de Oro	8	Agosto	2023-08-18T00:00:00	2024-11-08T01:00:00	3	Temperatura mínima	18.8
167188	7	Sololá	719	Santiago Atitlán	14	Cerro de Oro	8	Agosto	2023-08-18T00:00:00	2024-11-08T01:00:00	5	Humedad	73
167189	7	Sololá	719	Santiago Atitlán	14	Cerro de Oro	8	Agosto	2023-08-18T00:00:00	2024-11-08T01:00:00	6	Velocidad del viento	6.4
167190	7	Sololá	719	Santiago Atitlán	14	Cerro de Oro	8	Agosto	2023-08-18T00:00:00	2024-11-08T01:00:00	7	Dirección del viento	6.44
167191	7	Sololá	719	Santiago Atitlán	14	Cerro de Oro	8	Agosto	2023-08-18T00:00:00	2024-11-08T01:00:00	1	Precipitación	0
167192	7	Sololá	719	Santiago Atitlán	14	Cerro de Oro	8	Agosto	2023-08-18T00:00:00	2024-11-08T01:00:00	8	Radiación solar	0
167193	7	Sololá	719	Santiago Atitlán	14	Cerro de Oro	8	Agosto	2023-08-18T00:00:00	2024-11-08T02:00:00	2	Temperatura media	19.2
167194	7	Sololá	719	Santiago Atitlán	14	Cerro de Oro	8	Agosto	2023-08-18T00:00:00	2024-11-08T02:00:00	4	Temperatura máxima	19.9
167195	7	Sololá	719	Santiago Atitlán	14	Cerro de Oro	8	Agosto	2023-08-18T00:00:00	2024-11-08T02:00:00	3	Temperatura mínima	19.2
167196	7	Sololá	719	Santiago Atitlán	14	Cerro de Oro	8	Agosto	2023-08-18T00:00:00	2024-11-08T02:00:00	5	Humedad	76
167197	7	Sololá	719	Santiago Atitlán	14	Cerro de Oro	8	Agosto	2023-08-18T00:00:00	2024-11-08T02:00:00	6	Velocidad del viento	3.2
167198	7	Sololá	719	Santiago Atitlán	14	Cerro de Oro	8	Agosto	2023-08-18T00:00:00	2024-11-08T02:00:00	7	Dirección del viento	3.22
167199	7	Sololá	719	Santiago Atitlán	14	Cerro de Oro	8	Agosto	2023-08-18T00:00:00	2024-11-08T02:00:00	1	Precipitación	0
167200	7	Sololá	719	Santiago Atitlán	14	Cerro de Oro	8	Agosto	2023-08-18T00:00:00	2024-11-08T02:00:00	8	Radiación solar	0
167201	7	Sololá	719	Santiago Atitlán	14	Cerro de Oro	8	Agosto	2023-08-18T00:00:00	2024-11-08T03:00:00	2	Temperatura media	19.7
167202	7	Sololá	719	Santiago Atitlán	14	Cerro de Oro	8	Agosto	2023-08-18T00:00:00	2024-11-08T03:00:00	4	Temperatura máxima	19.9
167203	7	Sololá	719	Santiago Atitlán	14	Cerro de Oro	8	Agosto	2023-08-18T00:00:00	2024-11-08T03:00:00	3	Temperatura mínima	19.2
167204	7	Sololá	719	Santiago Atitlán	14	Cerro de Oro	8	Agosto	2023-08-18T00:00:00	2024-11-08T03:00:00	5	Humedad	74
167205	7	Sololá	719	Santiago Atitlán	14	Cerro de Oro	8	Agosto	2023-08-18T00:00:00	2024-11-08T03:00:00	6	Velocidad del viento	4.8
167206	7	Sololá	719	Santiago Atitlán	14	Cerro de Oro	8	Agosto	2023-08-18T00:00:00	2024-11-08T03:00:00	7	Dirección del viento	4.83
167207	7	Sololá	719	Santiago Atitlán	14	Cerro de Oro	8	Agosto	2023-08-18T00:00:00	2024-11-08T03:00:00	1	Precipitación	0
167208	7	Sololá	719	Santiago Atitlán	14	Cerro de Oro	8	Agosto	2023-08-18T00:00:00	2024-11-08T03:00:00	8	Radiación solar	0
167209	7	Sololá	719	Santiago Atitlán	14	Cerro de Oro	8	Agosto	2023-08-18T00:00:00	2024-11-08T04:00:00	2	Temperatura media	19.9
167210	7	Sololá	719	Santiago Atitlán	14	Cerro de Oro	8	Agosto	2023-08-18T00:00:00	2024-11-08T04:00:00	4	Temperatura máxima	20
167211	7	Sololá	719	Santiago Atitlán	14	Cerro de Oro	8	Agosto	2023-08-18T00:00:00	2024-11-08T04:00:00	3	Temperatura mínima	19.6
167212	7	Sololá	719	Santiago Atitlán	14	Cerro de Oro	8	Agosto	2023-08-18T00:00:00	2024-11-08T04:00:00	5	Humedad	74
167213	7	Sololá	719	Santiago Atitlán	14	Cerro de Oro	8	Agosto	2023-08-18T00:00:00	2024-11-08T04:00:00	6	Velocidad del viento	3.2
167214	7	Sololá	719	Santiago Atitlán	14	Cerro de Oro	8	Agosto	2023-08-18T00:00:00	2024-11-08T04:00:00	7	Dirección del viento	3.22
167215	7	Sololá	719	Santiago Atitlán	14	Cerro de Oro	8	Agosto	2023-08-18T00:00:00	2024-11-08T04:00:00	1	Precipitación	0
167216	7	Sololá	719	Santiago Atitlán	14	Cerro de Oro	8	Agosto	2023-08-18T00:00:00	2024-11-08T04:00:00	8	Radiación solar	0
167217	7	Sololá	719	Santiago Atitlán	14	Cerro de Oro	8	Agosto	2023-08-18T00:00:00	2024-11-08T05:00:00	2	Temperatura media	19.7
167218	7	Sololá	719	Santiago Atitlán	14	Cerro de Oro	8	Agosto	2023-08-18T00:00:00	2024-11-08T05:00:00	4	Temperatura máxima	20.1
167219	7	Sololá	719	Santiago Atitlán	14	Cerro de Oro	8	Agosto	2023-08-18T00:00:00	2024-11-08T05:00:00	3	Temperatura mínima	19.5
167220	7	Sololá	719	Santiago Atitlán	14	Cerro de Oro	8	Agosto	2023-08-18T00:00:00	2024-11-08T05:00:00	5	Humedad	75
167221	7	Sololá	719	Santiago Atitlán	14	Cerro de Oro	8	Agosto	2023-08-18T00:00:00	2024-11-08T05:00:00	6	Velocidad del viento	4.8
167222	7	Sololá	719	Santiago Atitlán	14	Cerro de Oro	8	Agosto	2023-08-18T00:00:00	2024-11-08T05:00:00	7	Dirección del viento	4.83
167223	7	Sololá	719	Santiago Atitlán	14	Cerro de Oro	8	Agosto	2023-08-18T00:00:00	2024-11-08T05:00:00	1	Precipitación	0
167224	7	Sololá	719	Santiago Atitlán	14	Cerro de Oro	8	Agosto	2023-08-18T00:00:00	2024-11-08T05:00:00	8	Radiación solar	0
167225	7	Sololá	719	Santiago Atitlán	14	Cerro de Oro	8	Agosto	2023-08-18T00:00:00	2024-11-08T06:00:00	2	Temperatura media	19.3
167226	7	Sololá	719	Santiago Atitlán	14	Cerro de Oro	8	Agosto	2023-08-18T00:00:00	2024-11-08T06:00:00	4	Temperatura máxima	19.7
167227	7	Sololá	719	Santiago Atitlán	14	Cerro de Oro	8	Agosto	2023-08-18T00:00:00	2024-11-08T06:00:00	3	Temperatura mínima	19.1
167228	7	Sololá	719	Santiago Atitlán	14	Cerro de Oro	8	Agosto	2023-08-18T00:00:00	2024-11-08T06:00:00	5	Humedad	75
167229	7	Sololá	719	Santiago Atitlán	14	Cerro de Oro	8	Agosto	2023-08-18T00:00:00	2024-11-08T06:00:00	6	Velocidad del viento	4.8
167230	7	Sololá	719	Santiago Atitlán	14	Cerro de Oro	8	Agosto	2023-08-18T00:00:00	2024-11-08T06:00:00	7	Dirección del viento	4.83
167231	7	Sololá	719	Santiago Atitlán	14	Cerro de Oro	8	Agosto	2023-08-18T00:00:00	2024-11-08T06:00:00	1	Precipitación	0
167232	7	Sololá	719	Santiago Atitlán	14	Cerro de Oro	8	Agosto	2023-08-18T00:00:00	2024-11-08T06:00:00	8	Radiación solar	1
167233	7	Sololá	719	Santiago Atitlán	14	Cerro de Oro	8	Agosto	2023-08-18T00:00:00	2024-11-08T07:00:00	2	Temperatura media	21.2
167234	7	Sololá	719	Santiago Atitlán	14	Cerro de Oro	8	Agosto	2023-08-18T00:00:00	2024-11-08T07:00:00	4	Temperatura máxima	21.2
167235	7	Sololá	719	Santiago Atitlán	14	Cerro de Oro	8	Agosto	2023-08-18T00:00:00	2024-11-08T07:00:00	3	Temperatura mínima	19.2
167236	7	Sololá	719	Santiago Atitlán	14	Cerro de Oro	8	Agosto	2023-08-18T00:00:00	2024-11-08T07:00:00	5	Humedad	70
167237	7	Sololá	719	Santiago Atitlán	14	Cerro de Oro	8	Agosto	2023-08-18T00:00:00	2024-11-08T07:00:00	6	Velocidad del viento	4.8
167238	7	Sololá	719	Santiago Atitlán	14	Cerro de Oro	8	Agosto	2023-08-18T00:00:00	2024-11-08T07:00:00	7	Dirección del viento	4.83
167239	7	Sololá	719	Santiago Atitlán	14	Cerro de Oro	8	Agosto	2023-08-18T00:00:00	2024-11-08T07:00:00	1	Precipitación	0
167240	7	Sololá	719	Santiago Atitlán	14	Cerro de Oro	8	Agosto	2023-08-18T00:00:00	2024-11-08T07:00:00	8	Radiación solar	66
167241	7	Sololá	719	Santiago Atitlán	14	Cerro de Oro	8	Agosto	2023-08-18T00:00:00	2024-11-08T08:00:00	2	Temperatura media	21.9
167242	7	Sololá	719	Santiago Atitlán	14	Cerro de Oro	8	Agosto	2023-08-18T00:00:00	2024-11-08T08:00:00	4	Temperatura máxima	22.4
167243	7	Sololá	719	Santiago Atitlán	14	Cerro de Oro	8	Agosto	2023-08-18T00:00:00	2024-11-08T08:00:00	3	Temperatura mínima	21.2
167244	7	Sololá	719	Santiago Atitlán	14	Cerro de Oro	8	Agosto	2023-08-18T00:00:00	2024-11-08T08:00:00	5	Humedad	67
167245	7	Sololá	719	Santiago Atitlán	14	Cerro de Oro	8	Agosto	2023-08-18T00:00:00	2024-11-08T08:00:00	6	Velocidad del viento	8
167246	7	Sololá	719	Santiago Atitlán	14	Cerro de Oro	8	Agosto	2023-08-18T00:00:00	2024-11-08T08:00:00	7	Dirección del viento	8.05
167247	7	Sololá	719	Santiago Atitlán	14	Cerro de Oro	8	Agosto	2023-08-18T00:00:00	2024-11-08T08:00:00	1	Precipitación	0
167248	7	Sololá	719	Santiago Atitlán	14	Cerro de Oro	8	Agosto	2023-08-18T00:00:00	2024-11-08T08:00:00	8	Radiación solar	260
167249	7	Sololá	719	Santiago Atitlán	14	Cerro de Oro	8	Agosto	2023-08-18T00:00:00	2024-11-08T09:00:00	2	Temperatura media	23.8
167250	7	Sololá	719	Santiago Atitlán	14	Cerro de Oro	8	Agosto	2023-08-18T00:00:00	2024-11-08T09:00:00	4	Temperatura máxima	23.9
167251	7	Sololá	719	Santiago Atitlán	14	Cerro de Oro	8	Agosto	2023-08-18T00:00:00	2024-11-08T09:00:00	3	Temperatura mínima	21.9
167252	7	Sololá	719	Santiago Atitlán	14	Cerro de Oro	8	Agosto	2023-08-18T00:00:00	2024-11-08T09:00:00	5	Humedad	60
167253	7	Sololá	719	Santiago Atitlán	14	Cerro de Oro	8	Agosto	2023-08-18T00:00:00	2024-11-08T09:00:00	6	Velocidad del viento	6.4
167254	7	Sololá	719	Santiago Atitlán	14	Cerro de Oro	8	Agosto	2023-08-18T00:00:00	2024-11-08T09:00:00	7	Dirección del viento	6.44
167255	7	Sololá	719	Santiago Atitlán	14	Cerro de Oro	8	Agosto	2023-08-18T00:00:00	2024-11-08T09:00:00	1	Precipitación	0
167256	7	Sololá	719	Santiago Atitlán	14	Cerro de Oro	8	Agosto	2023-08-18T00:00:00	2024-11-08T09:00:00	8	Radiación solar	473
167257	7	Sololá	719	Santiago Atitlán	14	Cerro de Oro	8	Agosto	2023-08-18T00:00:00	2024-11-08T10:00:00	2	Temperatura media	24.3
167258	7	Sololá	719	Santiago Atitlán	14	Cerro de Oro	8	Agosto	2023-08-18T00:00:00	2024-11-08T10:00:00	4	Temperatura máxima	24.5
167259	7	Sololá	719	Santiago Atitlán	14	Cerro de Oro	8	Agosto	2023-08-18T00:00:00	2024-11-08T10:00:00	3	Temperatura mínima	23.7
167260	7	Sololá	719	Santiago Atitlán	14	Cerro de Oro	8	Agosto	2023-08-18T00:00:00	2024-11-08T10:00:00	5	Humedad	60
167261	7	Sololá	719	Santiago Atitlán	14	Cerro de Oro	8	Agosto	2023-08-18T00:00:00	2024-11-08T10:00:00	6	Velocidad del viento	11.3
167262	7	Sololá	719	Santiago Atitlán	14	Cerro de Oro	8	Agosto	2023-08-18T00:00:00	2024-11-08T10:00:00	7	Dirección del viento	11.27
167263	7	Sololá	719	Santiago Atitlán	14	Cerro de Oro	8	Agosto	2023-08-18T00:00:00	2024-11-08T10:00:00	1	Precipitación	0
167264	7	Sololá	719	Santiago Atitlán	14	Cerro de Oro	8	Agosto	2023-08-18T00:00:00	2024-11-08T10:00:00	8	Radiación solar	647
167265	7	Sololá	719	Santiago Atitlán	14	Cerro de Oro	8	Agosto	2023-08-18T00:00:00	2024-11-08T11:00:00	2	Temperatura media	25.7
167266	7	Sololá	719	Santiago Atitlán	14	Cerro de Oro	8	Agosto	2023-08-18T00:00:00	2024-11-08T11:00:00	4	Temperatura máxima	25.7
167267	7	Sololá	719	Santiago Atitlán	14	Cerro de Oro	8	Agosto	2023-08-18T00:00:00	2024-11-08T11:00:00	3	Temperatura mínima	24.3
167268	7	Sololá	719	Santiago Atitlán	14	Cerro de Oro	8	Agosto	2023-08-18T00:00:00	2024-11-08T11:00:00	5	Humedad	63
167269	7	Sololá	719	Santiago Atitlán	14	Cerro de Oro	8	Agosto	2023-08-18T00:00:00	2024-11-08T11:00:00	6	Velocidad del viento	8
167270	7	Sololá	719	Santiago Atitlán	14	Cerro de Oro	8	Agosto	2023-08-18T00:00:00	2024-11-08T11:00:00	7	Dirección del viento	8.05
167271	7	Sololá	719	Santiago Atitlán	14	Cerro de Oro	8	Agosto	2023-08-18T00:00:00	2024-11-08T11:00:00	1	Precipitación	0
167272	7	Sololá	719	Santiago Atitlán	14	Cerro de Oro	8	Agosto	2023-08-18T00:00:00	2024-11-08T11:00:00	8	Radiación solar	805
167273	7	Sololá	719	Santiago Atitlán	14	Cerro de Oro	8	Agosto	2023-08-18T00:00:00	2024-11-08T12:00:00	2	Temperatura media	25.3
167274	7	Sololá	719	Santiago Atitlán	14	Cerro de Oro	8	Agosto	2023-08-18T00:00:00	2024-11-08T12:00:00	4	Temperatura máxima	25.7
167275	7	Sololá	719	Santiago Atitlán	14	Cerro de Oro	8	Agosto	2023-08-18T00:00:00	2024-11-08T12:00:00	3	Temperatura mínima	24.1
167276	7	Sololá	719	Santiago Atitlán	14	Cerro de Oro	8	Agosto	2023-08-18T00:00:00	2024-11-08T12:00:00	5	Humedad	65
167277	7	Sololá	719	Santiago Atitlán	14	Cerro de Oro	8	Agosto	2023-08-18T00:00:00	2024-11-08T12:00:00	6	Velocidad del viento	11.3
167278	7	Sololá	719	Santiago Atitlán	14	Cerro de Oro	8	Agosto	2023-08-18T00:00:00	2024-11-08T12:00:00	7	Dirección del viento	11.27
167279	7	Sololá	719	Santiago Atitlán	14	Cerro de Oro	8	Agosto	2023-08-18T00:00:00	2024-11-08T12:00:00	1	Precipitación	0
167280	7	Sololá	719	Santiago Atitlán	14	Cerro de Oro	8	Agosto	2023-08-18T00:00:00	2024-11-08T12:00:00	8	Radiación solar	677
167281	7	Sololá	719	Santiago Atitlán	14	Cerro de Oro	8	Agosto	2023-08-18T00:00:00	2024-11-08T13:00:00	2	Temperatura media	25.9
167282	7	Sololá	719	Santiago Atitlán	14	Cerro de Oro	8	Agosto	2023-08-18T00:00:00	2024-11-08T13:00:00	4	Temperatura máxima	26.1
167283	7	Sololá	719	Santiago Atitlán	14	Cerro de Oro	8	Agosto	2023-08-18T00:00:00	2024-11-08T13:00:00	3	Temperatura mínima	24.9
167284	7	Sololá	719	Santiago Atitlán	14	Cerro de Oro	8	Agosto	2023-08-18T00:00:00	2024-11-08T13:00:00	5	Humedad	59
167285	7	Sololá	719	Santiago Atitlán	14	Cerro de Oro	8	Agosto	2023-08-18T00:00:00	2024-11-08T13:00:00	6	Velocidad del viento	8
167286	7	Sololá	719	Santiago Atitlán	14	Cerro de Oro	8	Agosto	2023-08-18T00:00:00	2024-11-08T13:00:00	7	Dirección del viento	8.05
167287	7	Sololá	719	Santiago Atitlán	14	Cerro de Oro	8	Agosto	2023-08-18T00:00:00	2024-11-08T13:00:00	1	Precipitación	0
167288	7	Sololá	719	Santiago Atitlán	14	Cerro de Oro	8	Agosto	2023-08-18T00:00:00	2024-11-08T13:00:00	8	Radiación solar	810
167289	7	Sololá	719	Santiago Atitlán	14	Cerro de Oro	8	Agosto	2023-08-18T00:00:00	2024-11-08T14:00:00	2	Temperatura media	25.8
167290	7	Sololá	719	Santiago Atitlán	14	Cerro de Oro	8	Agosto	2023-08-18T00:00:00	2024-11-08T14:00:00	4	Temperatura máxima	26.8
167291	7	Sololá	719	Santiago Atitlán	14	Cerro de Oro	8	Agosto	2023-08-18T00:00:00	2024-11-08T14:00:00	3	Temperatura mínima	25.8
167292	7	Sololá	719	Santiago Atitlán	14	Cerro de Oro	8	Agosto	2023-08-18T00:00:00	2024-11-08T14:00:00	5	Humedad	67
167293	7	Sololá	719	Santiago Atitlán	14	Cerro de Oro	8	Agosto	2023-08-18T00:00:00	2024-11-08T14:00:00	6	Velocidad del viento	9.7
167294	7	Sololá	719	Santiago Atitlán	14	Cerro de Oro	8	Agosto	2023-08-18T00:00:00	2024-11-08T14:00:00	7	Dirección del viento	9.66
167295	7	Sololá	719	Santiago Atitlán	14	Cerro de Oro	8	Agosto	2023-08-18T00:00:00	2024-11-08T14:00:00	1	Precipitación	0
167296	7	Sololá	719	Santiago Atitlán	14	Cerro de Oro	8	Agosto	2023-08-18T00:00:00	2024-11-08T14:00:00	8	Radiación solar	959
167297	7	Sololá	719	Santiago Atitlán	14	Cerro de Oro	8	Agosto	2023-08-18T00:00:00	2024-11-08T15:00:00	2	Temperatura media	24.6
167298	7	Sololá	719	Santiago Atitlán	14	Cerro de Oro	8	Agosto	2023-08-18T00:00:00	2024-11-08T15:00:00	4	Temperatura máxima	26.5
167299	7	Sololá	719	Santiago Atitlán	14	Cerro de Oro	8	Agosto	2023-08-18T00:00:00	2024-11-08T15:00:00	3	Temperatura mínima	24.3
167300	7	Sololá	719	Santiago Atitlán	14	Cerro de Oro	8	Agosto	2023-08-18T00:00:00	2024-11-08T15:00:00	5	Humedad	71
167301	7	Sololá	719	Santiago Atitlán	14	Cerro de Oro	8	Agosto	2023-08-18T00:00:00	2024-11-08T15:00:00	6	Velocidad del viento	11.3
167302	7	Sololá	719	Santiago Atitlán	14	Cerro de Oro	8	Agosto	2023-08-18T00:00:00	2024-11-08T15:00:00	7	Dirección del viento	11.27
167303	7	Sololá	719	Santiago Atitlán	14	Cerro de Oro	8	Agosto	2023-08-18T00:00:00	2024-11-08T15:00:00	1	Precipitación	0
167304	7	Sololá	719	Santiago Atitlán	14	Cerro de Oro	8	Agosto	2023-08-18T00:00:00	2024-11-08T15:00:00	8	Radiación solar	809
167305	7	Sololá	719	Santiago Atitlán	14	Cerro de Oro	8	Agosto	2023-08-18T00:00:00	2024-11-08T16:00:00	2	Temperatura media	24.9
167306	7	Sololá	719	Santiago Atitlán	14	Cerro de Oro	8	Agosto	2023-08-18T00:00:00	2024-11-08T16:00:00	4	Temperatura máxima	25.2
167307	7	Sololá	719	Santiago Atitlán	14	Cerro de Oro	8	Agosto	2023-08-18T00:00:00	2024-11-08T16:00:00	3	Temperatura mínima	22.9
167308	7	Sololá	719	Santiago Atitlán	14	Cerro de Oro	8	Agosto	2023-08-18T00:00:00	2024-11-08T16:00:00	5	Humedad	54
167309	7	Sololá	719	Santiago Atitlán	14	Cerro de Oro	8	Agosto	2023-08-18T00:00:00	2024-11-08T16:00:00	6	Velocidad del viento	11.3
167310	7	Sololá	719	Santiago Atitlán	14	Cerro de Oro	8	Agosto	2023-08-18T00:00:00	2024-11-08T16:00:00	7	Dirección del viento	11.27
167311	7	Sololá	719	Santiago Atitlán	14	Cerro de Oro	8	Agosto	2023-08-18T00:00:00	2024-11-08T16:00:00	1	Precipitación	0
167312	7	Sololá	719	Santiago Atitlán	14	Cerro de Oro	8	Agosto	2023-08-18T00:00:00	2024-11-08T16:00:00	8	Radiación solar	559
167313	7	Sololá	719	Santiago Atitlán	14	Cerro de Oro	8	Agosto	2023-08-18T00:00:00	2024-11-08T17:00:00	2	Temperatura media	23.7
167314	7	Sololá	719	Santiago Atitlán	14	Cerro de Oro	8	Agosto	2023-08-18T00:00:00	2024-11-08T17:00:00	4	Temperatura máxima	25
167315	7	Sololá	719	Santiago Atitlán	14	Cerro de Oro	8	Agosto	2023-08-18T00:00:00	2024-11-08T17:00:00	3	Temperatura mínima	23.7
167316	7	Sololá	719	Santiago Atitlán	14	Cerro de Oro	8	Agosto	2023-08-18T00:00:00	2024-11-08T17:00:00	5	Humedad	60
167317	7	Sololá	719	Santiago Atitlán	14	Cerro de Oro	8	Agosto	2023-08-18T00:00:00	2024-11-08T17:00:00	6	Velocidad del viento	9.7
167318	7	Sololá	719	Santiago Atitlán	14	Cerro de Oro	8	Agosto	2023-08-18T00:00:00	2024-11-08T17:00:00	7	Dirección del viento	9.66
167319	7	Sololá	719	Santiago Atitlán	14	Cerro de Oro	8	Agosto	2023-08-18T00:00:00	2024-11-08T17:00:00	1	Precipitación	0
167320	7	Sololá	719	Santiago Atitlán	14	Cerro de Oro	8	Agosto	2023-08-18T00:00:00	2024-11-08T17:00:00	8	Radiación solar	115
167321	7	Sololá	719	Santiago Atitlán	14	Cerro de Oro	8	Agosto	2023-08-18T00:00:00	2024-11-08T18:00:00	2	Temperatura media	21.9
167322	7	Sololá	719	Santiago Atitlán	14	Cerro de Oro	8	Agosto	2023-08-18T00:00:00	2024-11-08T18:00:00	4	Temperatura máxima	23.7
167323	7	Sololá	719	Santiago Atitlán	14	Cerro de Oro	8	Agosto	2023-08-18T00:00:00	2024-11-08T18:00:00	3	Temperatura mínima	21.8
167324	7	Sololá	719	Santiago Atitlán	14	Cerro de Oro	8	Agosto	2023-08-18T00:00:00	2024-11-08T18:00:00	5	Humedad	68
167325	7	Sololá	719	Santiago Atitlán	14	Cerro de Oro	8	Agosto	2023-08-18T00:00:00	2024-11-08T18:00:00	6	Velocidad del viento	6.4
167326	7	Sololá	719	Santiago Atitlán	14	Cerro de Oro	8	Agosto	2023-08-18T00:00:00	2024-11-08T18:00:00	7	Dirección del viento	6.44
167327	7	Sololá	719	Santiago Atitlán	14	Cerro de Oro	8	Agosto	2023-08-18T00:00:00	2024-11-08T18:00:00	1	Precipitación	0
167328	7	Sololá	719	Santiago Atitlán	14	Cerro de Oro	8	Agosto	2023-08-18T00:00:00	2024-11-08T18:00:00	8	Radiación solar	54
167329	7	Sololá	719	Santiago Atitlán	14	Cerro de Oro	8	Agosto	2023-08-18T00:00:00	2024-11-08T19:00:00	2	Temperatura media	21.5
167330	7	Sololá	719	Santiago Atitlán	14	Cerro de Oro	8	Agosto	2023-08-18T00:00:00	2024-11-08T19:00:00	4	Temperatura máxima	22.2
167331	7	Sololá	719	Santiago Atitlán	14	Cerro de Oro	8	Agosto	2023-08-18T00:00:00	2024-11-08T19:00:00	3	Temperatura mínima	21.5
167332	7	Sololá	719	Santiago Atitlán	14	Cerro de Oro	8	Agosto	2023-08-18T00:00:00	2024-11-08T19:00:00	5	Humedad	74
167333	7	Sololá	719	Santiago Atitlán	14	Cerro de Oro	8	Agosto	2023-08-18T00:00:00	2024-11-08T19:00:00	6	Velocidad del viento	1.6
167334	7	Sololá	719	Santiago Atitlán	14	Cerro de Oro	8	Agosto	2023-08-18T00:00:00	2024-11-08T19:00:00	7	Dirección del viento	1.61
167335	7	Sololá	719	Santiago Atitlán	14	Cerro de Oro	8	Agosto	2023-08-18T00:00:00	2024-11-08T19:00:00	1	Precipitación	0
167336	7	Sololá	719	Santiago Atitlán	14	Cerro de Oro	8	Agosto	2023-08-18T00:00:00	2024-11-08T19:00:00	8	Radiación solar	0
167337	7	Sololá	719	Santiago Atitlán	14	Cerro de Oro	8	Agosto	2023-08-18T00:00:00	2024-11-08T20:00:00	2	Temperatura media	20.8
167338	7	Sololá	719	Santiago Atitlán	14	Cerro de Oro	8	Agosto	2023-08-18T00:00:00	2024-11-08T20:00:00	4	Temperatura máxima	21.5
167339	7	Sololá	719	Santiago Atitlán	14	Cerro de Oro	8	Agosto	2023-08-18T00:00:00	2024-11-08T20:00:00	3	Temperatura mínima	20.6
167340	7	Sololá	719	Santiago Atitlán	14	Cerro de Oro	8	Agosto	2023-08-18T00:00:00	2024-11-08T20:00:00	5	Humedad	74
167341	7	Sololá	719	Santiago Atitlán	14	Cerro de Oro	8	Agosto	2023-08-18T00:00:00	2024-11-08T20:00:00	6	Velocidad del viento	3.2
167342	7	Sololá	719	Santiago Atitlán	14	Cerro de Oro	8	Agosto	2023-08-18T00:00:00	2024-11-08T20:00:00	7	Dirección del viento	3.22
167343	7	Sololá	719	Santiago Atitlán	14	Cerro de Oro	8	Agosto	2023-08-18T00:00:00	2024-11-08T20:00:00	1	Precipitación	0
167344	7	Sololá	719	Santiago Atitlán	14	Cerro de Oro	8	Agosto	2023-08-18T00:00:00	2024-11-08T20:00:00	8	Radiación solar	0
167345	7	Sololá	719	Santiago Atitlán	14	Cerro de Oro	8	Agosto	2023-08-18T00:00:00	2024-11-08T21:00:00	2	Temperatura media	21.4
167346	7	Sololá	719	Santiago Atitlán	14	Cerro de Oro	8	Agosto	2023-08-18T00:00:00	2024-11-08T21:00:00	4	Temperatura máxima	21.4
167347	7	Sololá	719	Santiago Atitlán	14	Cerro de Oro	8	Agosto	2023-08-18T00:00:00	2024-11-08T21:00:00	3	Temperatura mínima	20.7
167348	7	Sololá	719	Santiago Atitlán	14	Cerro de Oro	8	Agosto	2023-08-18T00:00:00	2024-11-08T21:00:00	5	Humedad	70
167349	7	Sololá	719	Santiago Atitlán	14	Cerro de Oro	8	Agosto	2023-08-18T00:00:00	2024-11-08T21:00:00	6	Velocidad del viento	8
167350	7	Sololá	719	Santiago Atitlán	14	Cerro de Oro	8	Agosto	2023-08-18T00:00:00	2024-11-08T21:00:00	7	Dirección del viento	8.05
167351	7	Sololá	719	Santiago Atitlán	14	Cerro de Oro	8	Agosto	2023-08-18T00:00:00	2024-11-08T21:00:00	1	Precipitación	0
167352	7	Sololá	719	Santiago Atitlán	14	Cerro de Oro	8	Agosto	2023-08-18T00:00:00	2024-11-08T21:00:00	8	Radiación solar	0
167353	7	Sololá	719	Santiago Atitlán	14	Cerro de Oro	8	Agosto	2023-08-18T00:00:00	2024-11-08T22:00:00	2	Temperatura media	20.5
167354	7	Sololá	719	Santiago Atitlán	14	Cerro de Oro	8	Agosto	2023-08-18T00:00:00	2024-11-08T22:00:00	4	Temperatura máxima	21.5
167355	7	Sololá	719	Santiago Atitlán	14	Cerro de Oro	8	Agosto	2023-08-18T00:00:00	2024-11-08T22:00:00	3	Temperatura mínima	20.4
167356	7	Sololá	719	Santiago Atitlán	14	Cerro de Oro	8	Agosto	2023-08-18T00:00:00	2024-11-08T22:00:00	5	Humedad	71
167357	7	Sololá	719	Santiago Atitlán	14	Cerro de Oro	8	Agosto	2023-08-18T00:00:00	2024-11-08T22:00:00	6	Velocidad del viento	4.8
167358	7	Sololá	719	Santiago Atitlán	14	Cerro de Oro	8	Agosto	2023-08-18T00:00:00	2024-11-08T22:00:00	7	Dirección del viento	4.83
167359	7	Sololá	719	Santiago Atitlán	14	Cerro de Oro	8	Agosto	2023-08-18T00:00:00	2024-11-08T22:00:00	1	Precipitación	0
167360	7	Sololá	719	Santiago Atitlán	14	Cerro de Oro	8	Agosto	2023-08-18T00:00:00	2024-11-08T22:00:00	8	Radiación solar	0
167361	7	Sololá	719	Santiago Atitlán	14	Cerro de Oro	8	Agosto	2023-08-18T00:00:00	2024-11-08T23:00:00	2	Temperatura media	19.7
167362	7	Sololá	719	Santiago Atitlán	14	Cerro de Oro	8	Agosto	2023-08-18T00:00:00	2024-11-08T23:00:00	4	Temperatura máxima	20.5
167363	7	Sololá	719	Santiago Atitlán	14	Cerro de Oro	8	Agosto	2023-08-18T00:00:00	2024-11-08T23:00:00	3	Temperatura mínima	19.4
167364	7	Sololá	719	Santiago Atitlán	14	Cerro de Oro	8	Agosto	2023-08-18T00:00:00	2024-11-08T23:00:00	5	Humedad	72
167365	7	Sololá	719	Santiago Atitlán	14	Cerro de Oro	8	Agosto	2023-08-18T00:00:00	2024-11-08T23:00:00	6	Velocidad del viento	3.2
167366	7	Sololá	719	Santiago Atitlán	14	Cerro de Oro	8	Agosto	2023-08-18T00:00:00	2024-11-08T23:00:00	7	Dirección del viento	3.22
167367	7	Sololá	719	Santiago Atitlán	14	Cerro de Oro	8	Agosto	2023-08-18T00:00:00	2024-11-08T23:00:00	1	Precipitación	0
167368	7	Sololá	719	Santiago Atitlán	14	Cerro de Oro	8	Agosto	2023-08-18T00:00:00	2024-11-08T23:00:00	8	Radiación solar	0
167369	7	Sololá	719	Santiago Atitlán	14	Cerro de Oro	8	Agosto	2023-08-19T00:00:00	2024-11-08T00:00:00	2	Temperatura media	20.4
167370	7	Sololá	719	Santiago Atitlán	14	Cerro de Oro	8	Agosto	2023-08-19T00:00:00	2024-11-08T00:00:00	4	Temperatura máxima	20.4
167371	7	Sololá	719	Santiago Atitlán	14	Cerro de Oro	8	Agosto	2023-08-19T00:00:00	2024-11-08T00:00:00	3	Temperatura mínima	19.2
167372	7	Sololá	719	Santiago Atitlán	14	Cerro de Oro	8	Agosto	2023-08-19T00:00:00	2024-11-08T00:00:00	5	Humedad	65
167373	7	Sololá	719	Santiago Atitlán	14	Cerro de Oro	8	Agosto	2023-08-19T00:00:00	2024-11-08T00:00:00	6	Velocidad del viento	6.4
167374	7	Sololá	719	Santiago Atitlán	14	Cerro de Oro	8	Agosto	2023-08-19T00:00:00	2024-11-08T00:00:00	7	Dirección del viento	6.44
167375	7	Sololá	719	Santiago Atitlán	14	Cerro de Oro	8	Agosto	2023-08-19T00:00:00	2024-11-08T00:00:00	1	Precipitación	0
167376	7	Sololá	719	Santiago Atitlán	14	Cerro de Oro	8	Agosto	2023-08-19T00:00:00	2024-11-08T00:00:00	8	Radiación solar	0
167377	7	Sololá	719	Santiago Atitlán	14	Cerro de Oro	8	Agosto	2023-08-19T00:00:00	2024-11-08T01:00:00	2	Temperatura media	20.6
167378	7	Sololá	719	Santiago Atitlán	14	Cerro de Oro	8	Agosto	2023-08-19T00:00:00	2024-11-08T01:00:00	4	Temperatura máxima	20.8
167379	7	Sololá	719	Santiago Atitlán	14	Cerro de Oro	8	Agosto	2023-08-19T00:00:00	2024-11-08T01:00:00	3	Temperatura mínima	20.4
167380	7	Sololá	719	Santiago Atitlán	14	Cerro de Oro	8	Agosto	2023-08-19T00:00:00	2024-11-08T01:00:00	5	Humedad	64
167381	7	Sololá	719	Santiago Atitlán	14	Cerro de Oro	8	Agosto	2023-08-19T00:00:00	2024-11-08T01:00:00	6	Velocidad del viento	8
167382	7	Sololá	719	Santiago Atitlán	14	Cerro de Oro	8	Agosto	2023-08-19T00:00:00	2024-11-08T01:00:00	7	Dirección del viento	8.05
167383	7	Sololá	719	Santiago Atitlán	14	Cerro de Oro	8	Agosto	2023-08-19T00:00:00	2024-11-08T01:00:00	1	Precipitación	0
167384	7	Sololá	719	Santiago Atitlán	14	Cerro de Oro	8	Agosto	2023-08-19T00:00:00	2024-11-08T01:00:00	8	Radiación solar	0
167385	7	Sololá	719	Santiago Atitlán	14	Cerro de Oro	8	Agosto	2023-08-19T00:00:00	2024-11-08T02:00:00	2	Temperatura media	20.1
167386	7	Sololá	719	Santiago Atitlán	14	Cerro de Oro	8	Agosto	2023-08-19T00:00:00	2024-11-08T02:00:00	4	Temperatura máxima	20.7
167387	7	Sololá	719	Santiago Atitlán	14	Cerro de Oro	8	Agosto	2023-08-19T00:00:00	2024-11-08T02:00:00	3	Temperatura mínima	20.1
167388	7	Sololá	719	Santiago Atitlán	14	Cerro de Oro	8	Agosto	2023-08-19T00:00:00	2024-11-08T02:00:00	5	Humedad	65
167389	7	Sololá	719	Santiago Atitlán	14	Cerro de Oro	8	Agosto	2023-08-19T00:00:00	2024-11-08T02:00:00	6	Velocidad del viento	9.7
167390	7	Sololá	719	Santiago Atitlán	14	Cerro de Oro	8	Agosto	2023-08-19T00:00:00	2024-11-08T02:00:00	7	Dirección del viento	9.66
167391	7	Sololá	719	Santiago Atitlán	14	Cerro de Oro	8	Agosto	2023-08-19T00:00:00	2024-11-08T02:00:00	1	Precipitación	0
167392	7	Sololá	719	Santiago Atitlán	14	Cerro de Oro	8	Agosto	2023-08-19T00:00:00	2024-11-08T02:00:00	8	Radiación solar	0
167393	7	Sololá	719	Santiago Atitlán	14	Cerro de Oro	8	Agosto	2023-08-19T00:00:00	2024-11-08T03:00:00	2	Temperatura media	18.6
167394	7	Sololá	719	Santiago Atitlán	14	Cerro de Oro	8	Agosto	2023-08-19T00:00:00	2024-11-08T03:00:00	4	Temperatura máxima	20.1
167395	7	Sololá	719	Santiago Atitlán	14	Cerro de Oro	8	Agosto	2023-08-19T00:00:00	2024-11-08T03:00:00	3	Temperatura mínima	18.5
167396	7	Sololá	719	Santiago Atitlán	14	Cerro de Oro	8	Agosto	2023-08-19T00:00:00	2024-11-08T03:00:00	5	Humedad	67
167397	7	Sololá	719	Santiago Atitlán	14	Cerro de Oro	8	Agosto	2023-08-19T00:00:00	2024-11-08T03:00:00	6	Velocidad del viento	3.2
167398	7	Sololá	719	Santiago Atitlán	14	Cerro de Oro	8	Agosto	2023-08-19T00:00:00	2024-11-08T03:00:00	7	Dirección del viento	3.22
167399	7	Sololá	719	Santiago Atitlán	14	Cerro de Oro	8	Agosto	2023-08-19T00:00:00	2024-11-08T03:00:00	1	Precipitación	0
167400	7	Sololá	719	Santiago Atitlán	14	Cerro de Oro	8	Agosto	2023-08-19T00:00:00	2024-11-08T03:00:00	8	Radiación solar	0
167401	7	Sololá	719	Santiago Atitlán	14	Cerro de Oro	8	Agosto	2023-08-19T00:00:00	2024-11-08T04:00:00	2	Temperatura media	18.9
167402	7	Sololá	719	Santiago Atitlán	14	Cerro de Oro	8	Agosto	2023-08-19T00:00:00	2024-11-08T04:00:00	4	Temperatura máxima	19
167403	7	Sololá	719	Santiago Atitlán	14	Cerro de Oro	8	Agosto	2023-08-19T00:00:00	2024-11-08T04:00:00	3	Temperatura mínima	18.3
167404	7	Sololá	719	Santiago Atitlán	14	Cerro de Oro	8	Agosto	2023-08-19T00:00:00	2024-11-08T04:00:00	5	Humedad	65
167405	7	Sololá	719	Santiago Atitlán	14	Cerro de Oro	8	Agosto	2023-08-19T00:00:00	2024-11-08T04:00:00	6	Velocidad del viento	3.2
167406	7	Sololá	719	Santiago Atitlán	14	Cerro de Oro	8	Agosto	2023-08-19T00:00:00	2024-11-08T04:00:00	7	Dirección del viento	3.22
167407	7	Sololá	719	Santiago Atitlán	14	Cerro de Oro	8	Agosto	2023-08-19T00:00:00	2024-11-08T04:00:00	1	Precipitación	0
167408	7	Sololá	719	Santiago Atitlán	14	Cerro de Oro	8	Agosto	2023-08-19T00:00:00	2024-11-08T04:00:00	8	Radiación solar	0
167409	7	Sololá	719	Santiago Atitlán	14	Cerro de Oro	8	Agosto	2023-08-19T00:00:00	2024-11-08T05:00:00	2	Temperatura media	16.8
167410	7	Sololá	719	Santiago Atitlán	14	Cerro de Oro	8	Agosto	2023-08-19T00:00:00	2024-11-08T05:00:00	4	Temperatura máxima	19
167411	7	Sololá	719	Santiago Atitlán	14	Cerro de Oro	8	Agosto	2023-08-19T00:00:00	2024-11-08T05:00:00	3	Temperatura mínima	16.8
167412	7	Sololá	719	Santiago Atitlán	14	Cerro de Oro	8	Agosto	2023-08-19T00:00:00	2024-11-08T05:00:00	5	Humedad	71
167413	7	Sololá	719	Santiago Atitlán	14	Cerro de Oro	8	Agosto	2023-08-19T00:00:00	2024-11-08T05:00:00	6	Velocidad del viento	4.8
167414	7	Sololá	719	Santiago Atitlán	14	Cerro de Oro	8	Agosto	2023-08-19T00:00:00	2024-11-08T05:00:00	7	Dirección del viento	4.83
167415	7	Sololá	719	Santiago Atitlán	14	Cerro de Oro	8	Agosto	2023-08-19T00:00:00	2024-11-08T05:00:00	1	Precipitación	0
167416	7	Sololá	719	Santiago Atitlán	14	Cerro de Oro	8	Agosto	2023-08-19T00:00:00	2024-11-08T05:00:00	8	Radiación solar	0
167417	7	Sololá	719	Santiago Atitlán	14	Cerro de Oro	8	Agosto	2023-08-19T00:00:00	2024-11-08T06:00:00	2	Temperatura media	17.9
167418	7	Sololá	719	Santiago Atitlán	14	Cerro de Oro	8	Agosto	2023-08-19T00:00:00	2024-11-08T06:00:00	4	Temperatura máxima	18
167419	7	Sololá	719	Santiago Atitlán	14	Cerro de Oro	8	Agosto	2023-08-19T00:00:00	2024-11-08T06:00:00	3	Temperatura mínima	16.8
167420	7	Sololá	719	Santiago Atitlán	14	Cerro de Oro	8	Agosto	2023-08-19T00:00:00	2024-11-08T06:00:00	5	Humedad	65
167421	7	Sololá	719	Santiago Atitlán	14	Cerro de Oro	8	Agosto	2023-08-19T00:00:00	2024-11-08T06:00:00	6	Velocidad del viento	3.2
167422	7	Sololá	719	Santiago Atitlán	14	Cerro de Oro	8	Agosto	2023-08-19T00:00:00	2024-11-08T06:00:00	7	Dirección del viento	3.22
167423	7	Sololá	719	Santiago Atitlán	14	Cerro de Oro	8	Agosto	2023-08-19T00:00:00	2024-11-08T06:00:00	1	Precipitación	0
167424	7	Sololá	719	Santiago Atitlán	14	Cerro de Oro	8	Agosto	2023-08-19T00:00:00	2024-11-08T06:00:00	8	Radiación solar	2
167425	7	Sololá	719	Santiago Atitlán	14	Cerro de Oro	8	Agosto	2023-08-19T00:00:00	2024-11-08T07:00:00	2	Temperatura media	20.3
167426	7	Sololá	719	Santiago Atitlán	14	Cerro de Oro	8	Agosto	2023-08-19T00:00:00	2024-11-08T07:00:00	4	Temperatura máxima	20.3
167427	7	Sololá	719	Santiago Atitlán	14	Cerro de Oro	8	Agosto	2023-08-19T00:00:00	2024-11-08T07:00:00	3	Temperatura mínima	17.5
167428	7	Sololá	719	Santiago Atitlán	14	Cerro de Oro	8	Agosto	2023-08-19T00:00:00	2024-11-08T07:00:00	5	Humedad	59
167429	7	Sololá	719	Santiago Atitlán	14	Cerro de Oro	8	Agosto	2023-08-19T00:00:00	2024-11-08T07:00:00	6	Velocidad del viento	4.8
167430	7	Sololá	719	Santiago Atitlán	14	Cerro de Oro	8	Agosto	2023-08-19T00:00:00	2024-11-08T07:00:00	7	Dirección del viento	4.83
167431	7	Sololá	719	Santiago Atitlán	14	Cerro de Oro	8	Agosto	2023-08-19T00:00:00	2024-11-08T07:00:00	1	Precipitación	0
167432	7	Sololá	719	Santiago Atitlán	14	Cerro de Oro	8	Agosto	2023-08-19T00:00:00	2024-11-08T07:00:00	8	Radiación solar	80
167433	7	Sololá	719	Santiago Atitlán	14	Cerro de Oro	8	Agosto	2023-08-19T00:00:00	2024-11-08T08:00:00	2	Temperatura media	21.9
167434	7	Sololá	719	Santiago Atitlán	14	Cerro de Oro	8	Agosto	2023-08-19T00:00:00	2024-11-08T08:00:00	4	Temperatura máxima	21.9
167435	7	Sololá	719	Santiago Atitlán	14	Cerro de Oro	8	Agosto	2023-08-19T00:00:00	2024-11-08T08:00:00	3	Temperatura mínima	20.3
167436	7	Sololá	719	Santiago Atitlán	14	Cerro de Oro	8	Agosto	2023-08-19T00:00:00	2024-11-08T08:00:00	5	Humedad	55
167437	7	Sololá	719	Santiago Atitlán	14	Cerro de Oro	8	Agosto	2023-08-19T00:00:00	2024-11-08T08:00:00	6	Velocidad del viento	3.2
167438	7	Sololá	719	Santiago Atitlán	14	Cerro de Oro	8	Agosto	2023-08-19T00:00:00	2024-11-08T08:00:00	7	Dirección del viento	3.22
167439	7	Sololá	719	Santiago Atitlán	14	Cerro de Oro	8	Agosto	2023-08-19T00:00:00	2024-11-08T08:00:00	1	Precipitación	0
167440	7	Sololá	719	Santiago Atitlán	14	Cerro de Oro	8	Agosto	2023-08-19T00:00:00	2024-11-08T08:00:00	8	Radiación solar	253
167441	7	Sololá	719	Santiago Atitlán	14	Cerro de Oro	8	Agosto	2023-08-19T00:00:00	2024-11-08T09:00:00	2	Temperatura media	23.3
167442	7	Sololá	719	Santiago Atitlán	14	Cerro de Oro	8	Agosto	2023-08-19T00:00:00	2024-11-08T09:00:00	4	Temperatura máxima	23.4
167443	7	Sololá	719	Santiago Atitlán	14	Cerro de Oro	8	Agosto	2023-08-19T00:00:00	2024-11-08T09:00:00	3	Temperatura mínima	21.8
167444	7	Sololá	719	Santiago Atitlán	14	Cerro de Oro	8	Agosto	2023-08-19T00:00:00	2024-11-08T09:00:00	5	Humedad	53
167445	7	Sololá	719	Santiago Atitlán	14	Cerro de Oro	8	Agosto	2023-08-19T00:00:00	2024-11-08T09:00:00	6	Velocidad del viento	3.2
167446	7	Sololá	719	Santiago Atitlán	14	Cerro de Oro	8	Agosto	2023-08-19T00:00:00	2024-11-08T09:00:00	7	Dirección del viento	3.22
167447	7	Sololá	719	Santiago Atitlán	14	Cerro de Oro	8	Agosto	2023-08-19T00:00:00	2024-11-08T09:00:00	1	Precipitación	0
167448	7	Sololá	719	Santiago Atitlán	14	Cerro de Oro	8	Agosto	2023-08-19T00:00:00	2024-11-08T09:00:00	8	Radiación solar	496
167449	7	Sololá	719	Santiago Atitlán	14	Cerro de Oro	8	Agosto	2023-08-19T00:00:00	2024-11-08T10:00:00	2	Temperatura media	24.7
167450	7	Sololá	719	Santiago Atitlán	14	Cerro de Oro	8	Agosto	2023-08-19T00:00:00	2024-11-08T10:00:00	4	Temperatura máxima	24.7
167451	7	Sololá	719	Santiago Atitlán	14	Cerro de Oro	8	Agosto	2023-08-19T00:00:00	2024-11-08T10:00:00	3	Temperatura mínima	23.2
167452	7	Sololá	719	Santiago Atitlán	14	Cerro de Oro	8	Agosto	2023-08-19T00:00:00	2024-11-08T10:00:00	5	Humedad	50
167453	7	Sololá	719	Santiago Atitlán	14	Cerro de Oro	8	Agosto	2023-08-19T00:00:00	2024-11-08T10:00:00	6	Velocidad del viento	4.8
167454	7	Sololá	719	Santiago Atitlán	14	Cerro de Oro	8	Agosto	2023-08-19T00:00:00	2024-11-08T10:00:00	7	Dirección del viento	4.83
167455	7	Sololá	719	Santiago Atitlán	14	Cerro de Oro	8	Agosto	2023-08-19T00:00:00	2024-11-08T10:00:00	1	Precipitación	0
167456	7	Sololá	719	Santiago Atitlán	14	Cerro de Oro	8	Agosto	2023-08-19T00:00:00	2024-11-08T10:00:00	8	Radiación solar	615
167457	7	Sololá	719	Santiago Atitlán	14	Cerro de Oro	8	Agosto	2023-08-19T00:00:00	2024-11-08T11:00:00	2	Temperatura media	25.9
167458	7	Sololá	719	Santiago Atitlán	14	Cerro de Oro	8	Agosto	2023-08-19T00:00:00	2024-11-08T11:00:00	4	Temperatura máxima	25.9
167459	7	Sololá	719	Santiago Atitlán	14	Cerro de Oro	8	Agosto	2023-08-19T00:00:00	2024-11-08T11:00:00	3	Temperatura mínima	24.7
167460	7	Sololá	719	Santiago Atitlán	14	Cerro de Oro	8	Agosto	2023-08-19T00:00:00	2024-11-08T11:00:00	5	Humedad	50
167461	7	Sololá	719	Santiago Atitlán	14	Cerro de Oro	8	Agosto	2023-08-19T00:00:00	2024-11-08T11:00:00	6	Velocidad del viento	3.2
167462	7	Sololá	719	Santiago Atitlán	14	Cerro de Oro	8	Agosto	2023-08-19T00:00:00	2024-11-08T11:00:00	7	Dirección del viento	3.22
167463	7	Sololá	719	Santiago Atitlán	14	Cerro de Oro	8	Agosto	2023-08-19T00:00:00	2024-11-08T11:00:00	1	Precipitación	0
167464	7	Sololá	719	Santiago Atitlán	14	Cerro de Oro	8	Agosto	2023-08-19T00:00:00	2024-11-08T11:00:00	8	Radiación solar	792
167465	7	Sololá	719	Santiago Atitlán	14	Cerro de Oro	8	Agosto	2023-08-19T00:00:00	2024-11-08T12:00:00	2	Temperatura media	26.3
167466	7	Sololá	719	Santiago Atitlán	14	Cerro de Oro	8	Agosto	2023-08-19T00:00:00	2024-11-08T12:00:00	4	Temperatura máxima	26.4
167467	7	Sololá	719	Santiago Atitlán	14	Cerro de Oro	8	Agosto	2023-08-19T00:00:00	2024-11-08T12:00:00	3	Temperatura mínima	25.6
167468	7	Sololá	719	Santiago Atitlán	14	Cerro de Oro	8	Agosto	2023-08-19T00:00:00	2024-11-08T12:00:00	5	Humedad	47
167469	7	Sololá	719	Santiago Atitlán	14	Cerro de Oro	8	Agosto	2023-08-19T00:00:00	2024-11-08T12:00:00	6	Velocidad del viento	4.8
167470	7	Sololá	719	Santiago Atitlán	14	Cerro de Oro	8	Agosto	2023-08-19T00:00:00	2024-11-08T12:00:00	7	Dirección del viento	4.83
167471	7	Sololá	719	Santiago Atitlán	14	Cerro de Oro	8	Agosto	2023-08-19T00:00:00	2024-11-08T12:00:00	1	Precipitación	0
167472	7	Sololá	719	Santiago Atitlán	14	Cerro de Oro	8	Agosto	2023-08-19T00:00:00	2024-11-08T12:00:00	8	Radiación solar	928
167473	7	Sololá	719	Santiago Atitlán	14	Cerro de Oro	8	Agosto	2023-08-19T00:00:00	2024-11-08T13:00:00	2	Temperatura media	24.6
167474	7	Sololá	719	Santiago Atitlán	14	Cerro de Oro	8	Agosto	2023-08-19T00:00:00	2024-11-08T13:00:00	4	Temperatura máxima	26.3
167475	7	Sololá	719	Santiago Atitlán	14	Cerro de Oro	8	Agosto	2023-08-19T00:00:00	2024-11-08T13:00:00	3	Temperatura mínima	24.6
167476	7	Sololá	719	Santiago Atitlán	14	Cerro de Oro	8	Agosto	2023-08-19T00:00:00	2024-11-08T13:00:00	5	Humedad	64
167477	7	Sololá	719	Santiago Atitlán	14	Cerro de Oro	8	Agosto	2023-08-19T00:00:00	2024-11-08T13:00:00	6	Velocidad del viento	11.3
167478	7	Sololá	719	Santiago Atitlán	14	Cerro de Oro	8	Agosto	2023-08-19T00:00:00	2024-11-08T13:00:00	7	Dirección del viento	11.27
167479	7	Sololá	719	Santiago Atitlán	14	Cerro de Oro	8	Agosto	2023-08-19T00:00:00	2024-11-08T13:00:00	1	Precipitación	0
167480	7	Sololá	719	Santiago Atitlán	14	Cerro de Oro	8	Agosto	2023-08-19T00:00:00	2024-11-08T13:00:00	8	Radiación solar	638
167481	7	Sololá	719	Santiago Atitlán	14	Cerro de Oro	8	Agosto	2023-08-19T00:00:00	2024-11-08T14:00:00	2	Temperatura media	24.3
167482	7	Sololá	719	Santiago Atitlán	14	Cerro de Oro	8	Agosto	2023-08-19T00:00:00	2024-11-08T14:00:00	4	Temperatura máxima	25.1
167483	7	Sololá	719	Santiago Atitlán	14	Cerro de Oro	8	Agosto	2023-08-19T00:00:00	2024-11-08T14:00:00	3	Temperatura mínima	24
167484	7	Sololá	719	Santiago Atitlán	14	Cerro de Oro	8	Agosto	2023-08-19T00:00:00	2024-11-08T14:00:00	5	Humedad	68
167485	7	Sololá	719	Santiago Atitlán	14	Cerro de Oro	8	Agosto	2023-08-19T00:00:00	2024-11-08T14:00:00	6	Velocidad del viento	11.3
167486	7	Sololá	719	Santiago Atitlán	14	Cerro de Oro	8	Agosto	2023-08-19T00:00:00	2024-11-08T14:00:00	7	Dirección del viento	11.27
167487	7	Sololá	719	Santiago Atitlán	14	Cerro de Oro	8	Agosto	2023-08-19T00:00:00	2024-11-08T14:00:00	1	Precipitación	0
167488	7	Sololá	719	Santiago Atitlán	14	Cerro de Oro	8	Agosto	2023-08-19T00:00:00	2024-11-08T14:00:00	8	Radiación solar	478
167489	7	Sololá	719	Santiago Atitlán	14	Cerro de Oro	8	Agosto	2023-08-19T00:00:00	2024-11-08T15:00:00	2	Temperatura media	23
167490	7	Sololá	719	Santiago Atitlán	14	Cerro de Oro	8	Agosto	2023-08-19T00:00:00	2024-11-08T15:00:00	4	Temperatura máxima	25.1
167491	7	Sololá	719	Santiago Atitlán	14	Cerro de Oro	8	Agosto	2023-08-19T00:00:00	2024-11-08T15:00:00	3	Temperatura mínima	23
167492	7	Sololá	719	Santiago Atitlán	14	Cerro de Oro	8	Agosto	2023-08-19T00:00:00	2024-11-08T15:00:00	5	Humedad	74
167493	7	Sololá	719	Santiago Atitlán	14	Cerro de Oro	8	Agosto	2023-08-19T00:00:00	2024-11-08T15:00:00	6	Velocidad del viento	11.3
167494	7	Sololá	719	Santiago Atitlán	14	Cerro de Oro	8	Agosto	2023-08-19T00:00:00	2024-11-08T15:00:00	7	Dirección del viento	11.27
167495	7	Sololá	719	Santiago Atitlán	14	Cerro de Oro	8	Agosto	2023-08-19T00:00:00	2024-11-08T15:00:00	1	Precipitación	0
167496	7	Sololá	719	Santiago Atitlán	14	Cerro de Oro	8	Agosto	2023-08-19T00:00:00	2024-11-08T15:00:00	8	Radiación solar	224
167497	7	Sololá	719	Santiago Atitlán	14	Cerro de Oro	8	Agosto	2023-08-19T00:00:00	2024-11-08T16:00:00	2	Temperatura media	23.9
167498	7	Sololá	719	Santiago Atitlán	14	Cerro de Oro	8	Agosto	2023-08-19T00:00:00	2024-11-08T16:00:00	4	Temperatura máxima	24.2
167499	7	Sololá	719	Santiago Atitlán	14	Cerro de Oro	8	Agosto	2023-08-19T00:00:00	2024-11-08T16:00:00	3	Temperatura mínima	22.9
167500	7	Sololá	719	Santiago Atitlán	14	Cerro de Oro	8	Agosto	2023-08-19T00:00:00	2024-11-08T16:00:00	5	Humedad	72
167501	7	Sololá	719	Santiago Atitlán	14	Cerro de Oro	8	Agosto	2023-08-19T00:00:00	2024-11-08T16:00:00	6	Velocidad del viento	12.9
167502	7	Sololá	719	Santiago Atitlán	14	Cerro de Oro	8	Agosto	2023-08-19T00:00:00	2024-11-08T16:00:00	7	Dirección del viento	12.87
167503	7	Sololá	719	Santiago Atitlán	14	Cerro de Oro	8	Agosto	2023-08-19T00:00:00	2024-11-08T16:00:00	1	Precipitación	0
167504	7	Sololá	719	Santiago Atitlán	14	Cerro de Oro	8	Agosto	2023-08-19T00:00:00	2024-11-08T16:00:00	8	Radiación solar	356
167505	7	Sololá	719	Santiago Atitlán	14	Cerro de Oro	8	Agosto	2023-08-19T00:00:00	2024-11-08T17:00:00	2	Temperatura media	22.1
167506	7	Sololá	719	Santiago Atitlán	14	Cerro de Oro	8	Agosto	2023-08-19T00:00:00	2024-11-08T17:00:00	4	Temperatura máxima	23.9
167507	7	Sololá	719	Santiago Atitlán	14	Cerro de Oro	8	Agosto	2023-08-19T00:00:00	2024-11-08T17:00:00	3	Temperatura mínima	21.8
167508	7	Sololá	719	Santiago Atitlán	14	Cerro de Oro	8	Agosto	2023-08-19T00:00:00	2024-11-08T17:00:00	5	Humedad	80
167509	7	Sololá	719	Santiago Atitlán	14	Cerro de Oro	8	Agosto	2023-08-19T00:00:00	2024-11-08T17:00:00	6	Velocidad del viento	11.3
167510	7	Sololá	719	Santiago Atitlán	14	Cerro de Oro	8	Agosto	2023-08-19T00:00:00	2024-11-08T17:00:00	7	Dirección del viento	11.27
167511	7	Sololá	719	Santiago Atitlán	14	Cerro de Oro	8	Agosto	2023-08-19T00:00:00	2024-11-08T17:00:00	1	Precipitación	0
167512	7	Sololá	719	Santiago Atitlán	14	Cerro de Oro	8	Agosto	2023-08-19T00:00:00	2024-11-08T17:00:00	8	Radiación solar	90
167513	7	Sololá	719	Santiago Atitlán	14	Cerro de Oro	8	Agosto	2023-08-19T00:00:00	2024-11-08T18:00:00	2	Temperatura media	21.6
167514	7	Sololá	719	Santiago Atitlán	14	Cerro de Oro	8	Agosto	2023-08-19T00:00:00	2024-11-08T18:00:00	4	Temperatura máxima	22.1
167515	7	Sololá	719	Santiago Atitlán	14	Cerro de Oro	8	Agosto	2023-08-19T00:00:00	2024-11-08T18:00:00	3	Temperatura mínima	21
167516	7	Sololá	719	Santiago Atitlán	14	Cerro de Oro	8	Agosto	2023-08-19T00:00:00	2024-11-08T18:00:00	5	Humedad	78
167517	7	Sololá	719	Santiago Atitlán	14	Cerro de Oro	8	Agosto	2023-08-19T00:00:00	2024-11-08T18:00:00	6	Velocidad del viento	6.4
167518	7	Sololá	719	Santiago Atitlán	14	Cerro de Oro	8	Agosto	2023-08-19T00:00:00	2024-11-08T18:00:00	7	Dirección del viento	6.44
167519	7	Sololá	719	Santiago Atitlán	14	Cerro de Oro	8	Agosto	2023-08-19T00:00:00	2024-11-08T18:00:00	1	Precipitación	0
167520	7	Sololá	719	Santiago Atitlán	14	Cerro de Oro	8	Agosto	2023-08-19T00:00:00	2024-11-08T18:00:00	8	Radiación solar	61
167521	7	Sololá	719	Santiago Atitlán	14	Cerro de Oro	8	Agosto	2023-08-19T00:00:00	2024-11-08T19:00:00	2	Temperatura media	20.9
167522	7	Sololá	719	Santiago Atitlán	14	Cerro de Oro	8	Agosto	2023-08-19T00:00:00	2024-11-08T19:00:00	4	Temperatura máxima	21.6
167523	7	Sololá	719	Santiago Atitlán	14	Cerro de Oro	8	Agosto	2023-08-19T00:00:00	2024-11-08T19:00:00	3	Temperatura mínima	20.6
167524	7	Sololá	719	Santiago Atitlán	14	Cerro de Oro	8	Agosto	2023-08-19T00:00:00	2024-11-08T19:00:00	5	Humedad	77
167525	7	Sololá	719	Santiago Atitlán	14	Cerro de Oro	8	Agosto	2023-08-19T00:00:00	2024-11-08T19:00:00	6	Velocidad del viento	8
167526	7	Sololá	719	Santiago Atitlán	14	Cerro de Oro	8	Agosto	2023-08-19T00:00:00	2024-11-08T19:00:00	7	Dirección del viento	8.05
167527	7	Sololá	719	Santiago Atitlán	14	Cerro de Oro	8	Agosto	2023-08-19T00:00:00	2024-11-08T19:00:00	1	Precipitación	0
167528	7	Sololá	719	Santiago Atitlán	14	Cerro de Oro	8	Agosto	2023-08-19T00:00:00	2024-11-08T19:00:00	8	Radiación solar	0
167529	7	Sololá	719	Santiago Atitlán	14	Cerro de Oro	8	Agosto	2023-08-19T00:00:00	2024-11-08T20:00:00	2	Temperatura media	18.7
167530	7	Sololá	719	Santiago Atitlán	14	Cerro de Oro	8	Agosto	2023-08-19T00:00:00	2024-11-08T20:00:00	4	Temperatura máxima	20.9
167531	7	Sololá	719	Santiago Atitlán	14	Cerro de Oro	8	Agosto	2023-08-19T00:00:00	2024-11-08T20:00:00	3	Temperatura mínima	18.7
167532	7	Sololá	719	Santiago Atitlán	14	Cerro de Oro	8	Agosto	2023-08-19T00:00:00	2024-11-08T20:00:00	5	Humedad	83
167533	7	Sololá	719	Santiago Atitlán	14	Cerro de Oro	8	Agosto	2023-08-19T00:00:00	2024-11-08T20:00:00	6	Velocidad del viento	8
167534	7	Sololá	719	Santiago Atitlán	14	Cerro de Oro	8	Agosto	2023-08-19T00:00:00	2024-11-08T20:00:00	7	Dirección del viento	8.05
167535	7	Sololá	719	Santiago Atitlán	14	Cerro de Oro	8	Agosto	2023-08-19T00:00:00	2024-11-08T20:00:00	1	Precipitación	0
167536	7	Sololá	719	Santiago Atitlán	14	Cerro de Oro	8	Agosto	2023-08-19T00:00:00	2024-11-08T20:00:00	8	Radiación solar	0
167537	7	Sololá	719	Santiago Atitlán	14	Cerro de Oro	8	Agosto	2023-08-19T00:00:00	2024-11-08T21:00:00	2	Temperatura media	19.4
167538	7	Sololá	719	Santiago Atitlán	14	Cerro de Oro	8	Agosto	2023-08-19T00:00:00	2024-11-08T21:00:00	4	Temperatura máxima	20.4
167539	7	Sololá	719	Santiago Atitlán	14	Cerro de Oro	8	Agosto	2023-08-19T00:00:00	2024-11-08T21:00:00	3	Temperatura mínima	18.7
167540	7	Sololá	719	Santiago Atitlán	14	Cerro de Oro	8	Agosto	2023-08-19T00:00:00	2024-11-08T21:00:00	5	Humedad	77
167541	7	Sololá	719	Santiago Atitlán	14	Cerro de Oro	8	Agosto	2023-08-19T00:00:00	2024-11-08T21:00:00	6	Velocidad del viento	3.2
167542	7	Sololá	719	Santiago Atitlán	14	Cerro de Oro	8	Agosto	2023-08-19T00:00:00	2024-11-08T21:00:00	7	Dirección del viento	3.22
167543	7	Sololá	719	Santiago Atitlán	14	Cerro de Oro	8	Agosto	2023-08-19T00:00:00	2024-11-08T21:00:00	1	Precipitación	0
167544	7	Sololá	719	Santiago Atitlán	14	Cerro de Oro	8	Agosto	2023-08-19T00:00:00	2024-11-08T21:00:00	8	Radiación solar	0
167545	7	Sololá	719	Santiago Atitlán	14	Cerro de Oro	8	Agosto	2023-08-19T00:00:00	2024-11-08T22:00:00	2	Temperatura media	20.3
167546	7	Sololá	719	Santiago Atitlán	14	Cerro de Oro	8	Agosto	2023-08-19T00:00:00	2024-11-08T22:00:00	4	Temperatura máxima	20.3
167547	7	Sololá	719	Santiago Atitlán	14	Cerro de Oro	8	Agosto	2023-08-19T00:00:00	2024-11-08T22:00:00	3	Temperatura mínima	19.1
167548	7	Sololá	719	Santiago Atitlán	14	Cerro de Oro	8	Agosto	2023-08-19T00:00:00	2024-11-08T22:00:00	5	Humedad	67
167549	7	Sololá	719	Santiago Atitlán	14	Cerro de Oro	8	Agosto	2023-08-19T00:00:00	2024-11-08T22:00:00	6	Velocidad del viento	4.8
167550	7	Sololá	719	Santiago Atitlán	14	Cerro de Oro	8	Agosto	2023-08-19T00:00:00	2024-11-08T22:00:00	7	Dirección del viento	4.83
167551	7	Sololá	719	Santiago Atitlán	14	Cerro de Oro	8	Agosto	2023-08-19T00:00:00	2024-11-08T22:00:00	1	Precipitación	0
167552	7	Sololá	719	Santiago Atitlán	14	Cerro de Oro	8	Agosto	2023-08-19T00:00:00	2024-11-08T22:00:00	8	Radiación solar	0
167553	7	Sololá	719	Santiago Atitlán	14	Cerro de Oro	8	Agosto	2023-08-19T00:00:00	2024-11-08T23:00:00	2	Temperatura media	20.1
167554	7	Sololá	719	Santiago Atitlán	14	Cerro de Oro	8	Agosto	2023-08-19T00:00:00	2024-11-08T23:00:00	4	Temperatura máxima	20.4
167555	7	Sololá	719	Santiago Atitlán	14	Cerro de Oro	8	Agosto	2023-08-19T00:00:00	2024-11-08T23:00:00	3	Temperatura mínima	19.9
167556	7	Sololá	719	Santiago Atitlán	14	Cerro de Oro	8	Agosto	2023-08-19T00:00:00	2024-11-08T23:00:00	5	Humedad	63
167557	7	Sololá	719	Santiago Atitlán	14	Cerro de Oro	8	Agosto	2023-08-19T00:00:00	2024-11-08T23:00:00	6	Velocidad del viento	9.7
167558	7	Sololá	719	Santiago Atitlán	14	Cerro de Oro	8	Agosto	2023-08-19T00:00:00	2024-11-08T23:00:00	7	Dirección del viento	9.66
167559	7	Sololá	719	Santiago Atitlán	14	Cerro de Oro	8	Agosto	2023-08-19T00:00:00	2024-11-08T23:00:00	1	Precipitación	0
167560	7	Sololá	719	Santiago Atitlán	14	Cerro de Oro	8	Agosto	2023-08-19T00:00:00	2024-11-08T23:00:00	8	Radiación solar	0
167561	7	Sololá	719	Santiago Atitlán	14	Cerro de Oro	8	Agosto	2023-08-20T00:00:00	2024-11-08T00:00:00	2	Temperatura media	20.3
167562	7	Sololá	719	Santiago Atitlán	14	Cerro de Oro	8	Agosto	2023-08-20T00:00:00	2024-11-08T00:00:00	4	Temperatura máxima	20.3
167563	7	Sololá	719	Santiago Atitlán	14	Cerro de Oro	8	Agosto	2023-08-20T00:00:00	2024-11-08T00:00:00	3	Temperatura mínima	19.8
167564	7	Sololá	719	Santiago Atitlán	14	Cerro de Oro	8	Agosto	2023-08-20T00:00:00	2024-11-08T00:00:00	5	Humedad	66
167565	7	Sololá	719	Santiago Atitlán	14	Cerro de Oro	8	Agosto	2023-08-20T00:00:00	2024-11-08T00:00:00	6	Velocidad del viento	8
167566	7	Sololá	719	Santiago Atitlán	14	Cerro de Oro	8	Agosto	2023-08-20T00:00:00	2024-11-08T00:00:00	7	Dirección del viento	8.05
167567	7	Sololá	719	Santiago Atitlán	14	Cerro de Oro	8	Agosto	2023-08-20T00:00:00	2024-11-08T00:00:00	1	Precipitación	0
167568	7	Sololá	719	Santiago Atitlán	14	Cerro de Oro	8	Agosto	2023-08-20T00:00:00	2024-11-08T00:00:00	8	Radiación solar	0
167569	7	Sololá	719	Santiago Atitlán	14	Cerro de Oro	8	Agosto	2023-08-20T00:00:00	2024-11-08T01:00:00	2	Temperatura media	20
167570	7	Sololá	719	Santiago Atitlán	14	Cerro de Oro	8	Agosto	2023-08-20T00:00:00	2024-11-08T01:00:00	4	Temperatura máxima	20.4
167571	7	Sololá	719	Santiago Atitlán	14	Cerro de Oro	8	Agosto	2023-08-20T00:00:00	2024-11-08T01:00:00	3	Temperatura mínima	19.9
167572	7	Sololá	719	Santiago Atitlán	14	Cerro de Oro	8	Agosto	2023-08-20T00:00:00	2024-11-08T01:00:00	5	Humedad	62
167573	7	Sololá	719	Santiago Atitlán	14	Cerro de Oro	8	Agosto	2023-08-20T00:00:00	2024-11-08T01:00:00	6	Velocidad del viento	11.3
167574	7	Sololá	719	Santiago Atitlán	14	Cerro de Oro	8	Agosto	2023-08-20T00:00:00	2024-11-08T01:00:00	7	Dirección del viento	11.27
167575	7	Sololá	719	Santiago Atitlán	14	Cerro de Oro	8	Agosto	2023-08-20T00:00:00	2024-11-08T01:00:00	1	Precipitación	0
167576	7	Sololá	719	Santiago Atitlán	14	Cerro de Oro	8	Agosto	2023-08-20T00:00:00	2024-11-08T01:00:00	8	Radiación solar	0
167577	7	Sololá	719	Santiago Atitlán	14	Cerro de Oro	8	Agosto	2023-08-20T00:00:00	2024-11-08T02:00:00	2	Temperatura media	18.1
167578	7	Sololá	719	Santiago Atitlán	14	Cerro de Oro	8	Agosto	2023-08-20T00:00:00	2024-11-08T02:00:00	4	Temperatura máxima	20.1
167579	7	Sololá	719	Santiago Atitlán	14	Cerro de Oro	8	Agosto	2023-08-20T00:00:00	2024-11-08T02:00:00	3	Temperatura mínima	18.1
167580	7	Sololá	719	Santiago Atitlán	14	Cerro de Oro	8	Agosto	2023-08-20T00:00:00	2024-11-08T02:00:00	5	Humedad	68
167581	7	Sololá	719	Santiago Atitlán	14	Cerro de Oro	8	Agosto	2023-08-20T00:00:00	2024-11-08T02:00:00	6	Velocidad del viento	4.8
167582	7	Sololá	719	Santiago Atitlán	14	Cerro de Oro	8	Agosto	2023-08-20T00:00:00	2024-11-08T02:00:00	7	Dirección del viento	4.83
167583	7	Sololá	719	Santiago Atitlán	14	Cerro de Oro	8	Agosto	2023-08-20T00:00:00	2024-11-08T02:00:00	1	Precipitación	0
167584	7	Sololá	719	Santiago Atitlán	14	Cerro de Oro	8	Agosto	2023-08-20T00:00:00	2024-11-08T02:00:00	8	Radiación solar	0
167585	7	Sololá	719	Santiago Atitlán	14	Cerro de Oro	8	Agosto	2023-08-20T00:00:00	2024-11-08T03:00:00	2	Temperatura media	18.6
167586	7	Sololá	719	Santiago Atitlán	14	Cerro de Oro	8	Agosto	2023-08-20T00:00:00	2024-11-08T03:00:00	4	Temperatura máxima	18.6
167587	7	Sololá	719	Santiago Atitlán	14	Cerro de Oro	8	Agosto	2023-08-20T00:00:00	2024-11-08T03:00:00	3	Temperatura mínima	17.6
167588	7	Sololá	719	Santiago Atitlán	14	Cerro de Oro	8	Agosto	2023-08-20T00:00:00	2024-11-08T03:00:00	5	Humedad	67
167589	7	Sololá	719	Santiago Atitlán	14	Cerro de Oro	8	Agosto	2023-08-20T00:00:00	2024-11-08T03:00:00	6	Velocidad del viento	4.8
167590	7	Sololá	719	Santiago Atitlán	14	Cerro de Oro	8	Agosto	2023-08-20T00:00:00	2024-11-08T03:00:00	7	Dirección del viento	4.83
167591	7	Sololá	719	Santiago Atitlán	14	Cerro de Oro	8	Agosto	2023-08-20T00:00:00	2024-11-08T03:00:00	1	Precipitación	0
167592	7	Sololá	719	Santiago Atitlán	14	Cerro de Oro	8	Agosto	2023-08-20T00:00:00	2024-11-08T03:00:00	8	Radiación solar	0
167593	7	Sololá	719	Santiago Atitlán	14	Cerro de Oro	8	Agosto	2023-08-20T00:00:00	2024-11-08T04:00:00	2	Temperatura media	17.3
167594	7	Sololá	719	Santiago Atitlán	14	Cerro de Oro	8	Agosto	2023-08-20T00:00:00	2024-11-08T04:00:00	4	Temperatura máxima	18.6
167595	7	Sololá	719	Santiago Atitlán	14	Cerro de Oro	8	Agosto	2023-08-20T00:00:00	2024-11-08T04:00:00	3	Temperatura mínima	17.3
167596	7	Sololá	719	Santiago Atitlán	14	Cerro de Oro	8	Agosto	2023-08-20T00:00:00	2024-11-08T04:00:00	5	Humedad	69
167597	7	Sololá	719	Santiago Atitlán	14	Cerro de Oro	8	Agosto	2023-08-20T00:00:00	2024-11-08T04:00:00	6	Velocidad del viento	4.8
167598	7	Sololá	719	Santiago Atitlán	14	Cerro de Oro	8	Agosto	2023-08-20T00:00:00	2024-11-08T04:00:00	7	Dirección del viento	4.83
167599	7	Sololá	719	Santiago Atitlán	14	Cerro de Oro	8	Agosto	2023-08-20T00:00:00	2024-11-08T04:00:00	1	Precipitación	0
167600	7	Sololá	719	Santiago Atitlán	14	Cerro de Oro	8	Agosto	2023-08-20T00:00:00	2024-11-08T04:00:00	8	Radiación solar	0
167601	7	Sololá	719	Santiago Atitlán	14	Cerro de Oro	8	Agosto	2023-08-20T00:00:00	2024-11-08T05:00:00	2	Temperatura media	17.7
167602	7	Sololá	719	Santiago Atitlán	14	Cerro de Oro	8	Agosto	2023-08-20T00:00:00	2024-11-08T05:00:00	4	Temperatura máxima	18.2
167603	7	Sololá	719	Santiago Atitlán	14	Cerro de Oro	8	Agosto	2023-08-20T00:00:00	2024-11-08T05:00:00	3	Temperatura mínima	17.3
167604	7	Sololá	719	Santiago Atitlán	14	Cerro de Oro	8	Agosto	2023-08-20T00:00:00	2024-11-08T05:00:00	5	Humedad	68
167605	7	Sololá	719	Santiago Atitlán	14	Cerro de Oro	8	Agosto	2023-08-20T00:00:00	2024-11-08T05:00:00	6	Velocidad del viento	4.8
167606	7	Sololá	719	Santiago Atitlán	14	Cerro de Oro	8	Agosto	2023-08-20T00:00:00	2024-11-08T05:00:00	7	Dirección del viento	4.83
167607	7	Sololá	719	Santiago Atitlán	14	Cerro de Oro	8	Agosto	2023-08-20T00:00:00	2024-11-08T05:00:00	1	Precipitación	0
167608	7	Sololá	719	Santiago Atitlán	14	Cerro de Oro	8	Agosto	2023-08-20T00:00:00	2024-11-08T05:00:00	8	Radiación solar	0
167609	7	Sololá	719	Santiago Atitlán	14	Cerro de Oro	8	Agosto	2023-08-20T00:00:00	2024-11-08T06:00:00	2	Temperatura media	17.1
167610	7	Sololá	719	Santiago Atitlán	14	Cerro de Oro	8	Agosto	2023-08-20T00:00:00	2024-11-08T06:00:00	4	Temperatura máxima	17.7
167611	7	Sololá	719	Santiago Atitlán	14	Cerro de Oro	8	Agosto	2023-08-20T00:00:00	2024-11-08T06:00:00	3	Temperatura mínima	17.1
167612	7	Sololá	719	Santiago Atitlán	14	Cerro de Oro	8	Agosto	2023-08-20T00:00:00	2024-11-08T06:00:00	5	Humedad	69
167613	7	Sololá	719	Santiago Atitlán	14	Cerro de Oro	8	Agosto	2023-08-20T00:00:00	2024-11-08T06:00:00	6	Velocidad del viento	3.2
167614	7	Sololá	719	Santiago Atitlán	14	Cerro de Oro	8	Agosto	2023-08-20T00:00:00	2024-11-08T06:00:00	7	Dirección del viento	3.22
167615	7	Sololá	719	Santiago Atitlán	14	Cerro de Oro	8	Agosto	2023-08-20T00:00:00	2024-11-08T06:00:00	1	Precipitación	0
167616	7	Sololá	719	Santiago Atitlán	14	Cerro de Oro	8	Agosto	2023-08-20T00:00:00	2024-11-08T06:00:00	8	Radiación solar	1
167617	7	Sololá	719	Santiago Atitlán	14	Cerro de Oro	8	Agosto	2023-08-20T00:00:00	2024-11-08T07:00:00	2	Temperatura media	20.6
167618	7	Sololá	719	Santiago Atitlán	14	Cerro de Oro	8	Agosto	2023-08-20T00:00:00	2024-11-08T07:00:00	4	Temperatura máxima	20.6
167619	7	Sololá	719	Santiago Atitlán	14	Cerro de Oro	8	Agosto	2023-08-20T00:00:00	2024-11-08T07:00:00	3	Temperatura mínima	17.1
167620	7	Sololá	719	Santiago Atitlán	14	Cerro de Oro	8	Agosto	2023-08-20T00:00:00	2024-11-08T07:00:00	5	Humedad	60
167621	7	Sololá	719	Santiago Atitlán	14	Cerro de Oro	8	Agosto	2023-08-20T00:00:00	2024-11-08T07:00:00	6	Velocidad del viento	4.8
167622	7	Sololá	719	Santiago Atitlán	14	Cerro de Oro	8	Agosto	2023-08-20T00:00:00	2024-11-08T07:00:00	7	Dirección del viento	4.83
167623	7	Sololá	719	Santiago Atitlán	14	Cerro de Oro	8	Agosto	2023-08-20T00:00:00	2024-11-08T07:00:00	1	Precipitación	0
167624	7	Sololá	719	Santiago Atitlán	14	Cerro de Oro	8	Agosto	2023-08-20T00:00:00	2024-11-08T07:00:00	8	Radiación solar	76
167625	7	Sololá	719	Santiago Atitlán	14	Cerro de Oro	8	Agosto	2023-08-20T00:00:00	2024-11-08T08:00:00	2	Temperatura media	22
167626	7	Sololá	719	Santiago Atitlán	14	Cerro de Oro	8	Agosto	2023-08-20T00:00:00	2024-11-08T08:00:00	4	Temperatura máxima	22
167627	7	Sololá	719	Santiago Atitlán	14	Cerro de Oro	8	Agosto	2023-08-20T00:00:00	2024-11-08T08:00:00	3	Temperatura mínima	20.6
167628	7	Sololá	719	Santiago Atitlán	14	Cerro de Oro	8	Agosto	2023-08-20T00:00:00	2024-11-08T08:00:00	5	Humedad	53
167629	7	Sololá	719	Santiago Atitlán	14	Cerro de Oro	8	Agosto	2023-08-20T00:00:00	2024-11-08T08:00:00	6	Velocidad del viento	3.2
167630	7	Sololá	719	Santiago Atitlán	14	Cerro de Oro	8	Agosto	2023-08-20T00:00:00	2024-11-08T08:00:00	7	Dirección del viento	3.22
167631	7	Sololá	719	Santiago Atitlán	14	Cerro de Oro	8	Agosto	2023-08-20T00:00:00	2024-11-08T08:00:00	1	Precipitación	0
167632	7	Sololá	719	Santiago Atitlán	14	Cerro de Oro	8	Agosto	2023-08-20T00:00:00	2024-11-08T08:00:00	8	Radiación solar	298
167633	7	Sololá	719	Santiago Atitlán	14	Cerro de Oro	8	Agosto	2023-08-20T00:00:00	2024-11-08T09:00:00	2	Temperatura media	24.2
167634	7	Sololá	719	Santiago Atitlán	14	Cerro de Oro	8	Agosto	2023-08-20T00:00:00	2024-11-08T09:00:00	4	Temperatura máxima	24.2
167635	7	Sololá	719	Santiago Atitlán	14	Cerro de Oro	8	Agosto	2023-08-20T00:00:00	2024-11-08T09:00:00	3	Temperatura mínima	21.9
167636	7	Sololá	719	Santiago Atitlán	14	Cerro de Oro	8	Agosto	2023-08-20T00:00:00	2024-11-08T09:00:00	5	Humedad	48
167637	7	Sololá	719	Santiago Atitlán	14	Cerro de Oro	8	Agosto	2023-08-20T00:00:00	2024-11-08T09:00:00	6	Velocidad del viento	3.2
167638	7	Sololá	719	Santiago Atitlán	14	Cerro de Oro	8	Agosto	2023-08-20T00:00:00	2024-11-08T09:00:00	7	Dirección del viento	3.22
167639	7	Sololá	719	Santiago Atitlán	14	Cerro de Oro	8	Agosto	2023-08-20T00:00:00	2024-11-08T09:00:00	1	Precipitación	0
167640	7	Sololá	719	Santiago Atitlán	14	Cerro de Oro	8	Agosto	2023-08-20T00:00:00	2024-11-08T09:00:00	8	Radiación solar	496
167641	7	Sololá	719	Santiago Atitlán	14	Cerro de Oro	8	Agosto	2023-08-20T00:00:00	2024-11-08T10:00:00	2	Temperatura media	24.6
167642	7	Sololá	719	Santiago Atitlán	14	Cerro de Oro	8	Agosto	2023-08-20T00:00:00	2024-11-08T10:00:00	4	Temperatura máxima	24.7
167643	7	Sololá	719	Santiago Atitlán	14	Cerro de Oro	8	Agosto	2023-08-20T00:00:00	2024-11-08T10:00:00	3	Temperatura mínima	24.2
167644	7	Sololá	719	Santiago Atitlán	14	Cerro de Oro	8	Agosto	2023-08-20T00:00:00	2024-11-08T10:00:00	5	Humedad	46
167645	7	Sololá	719	Santiago Atitlán	14	Cerro de Oro	8	Agosto	2023-08-20T00:00:00	2024-11-08T10:00:00	6	Velocidad del viento	4.8
167646	7	Sololá	719	Santiago Atitlán	14	Cerro de Oro	8	Agosto	2023-08-20T00:00:00	2024-11-08T10:00:00	7	Dirección del viento	4.83
167647	7	Sololá	719	Santiago Atitlán	14	Cerro de Oro	8	Agosto	2023-08-20T00:00:00	2024-11-08T10:00:00	1	Precipitación	0
167648	7	Sololá	719	Santiago Atitlán	14	Cerro de Oro	8	Agosto	2023-08-20T00:00:00	2024-11-08T10:00:00	8	Radiación solar	590
167649	7	Sololá	719	Santiago Atitlán	14	Cerro de Oro	8	Agosto	2023-08-20T00:00:00	2024-11-08T11:00:00	2	Temperatura media	26.2
167650	7	Sololá	719	Santiago Atitlán	14	Cerro de Oro	8	Agosto	2023-08-20T00:00:00	2024-11-08T11:00:00	4	Temperatura máxima	26.4
167651	7	Sololá	719	Santiago Atitlán	14	Cerro de Oro	8	Agosto	2023-08-20T00:00:00	2024-11-08T11:00:00	3	Temperatura mínima	24.6
167652	7	Sololá	719	Santiago Atitlán	14	Cerro de Oro	8	Agosto	2023-08-20T00:00:00	2024-11-08T11:00:00	5	Humedad	51
167653	7	Sololá	719	Santiago Atitlán	14	Cerro de Oro	8	Agosto	2023-08-20T00:00:00	2024-11-08T11:00:00	6	Velocidad del viento	4.8
167654	7	Sololá	719	Santiago Atitlán	14	Cerro de Oro	8	Agosto	2023-08-20T00:00:00	2024-11-08T11:00:00	7	Dirección del viento	4.83
167655	7	Sololá	719	Santiago Atitlán	14	Cerro de Oro	8	Agosto	2023-08-20T00:00:00	2024-11-08T11:00:00	1	Precipitación	0
167656	7	Sololá	719	Santiago Atitlán	14	Cerro de Oro	8	Agosto	2023-08-20T00:00:00	2024-11-08T11:00:00	8	Radiación solar	784
167657	7	Sololá	719	Santiago Atitlán	14	Cerro de Oro	8	Agosto	2023-08-20T00:00:00	2024-11-08T12:00:00	2	Temperatura media	25.7
167658	7	Sololá	719	Santiago Atitlán	14	Cerro de Oro	8	Agosto	2023-08-20T00:00:00	2024-11-08T12:00:00	4	Temperatura máxima	26.6
167659	7	Sololá	719	Santiago Atitlán	14	Cerro de Oro	8	Agosto	2023-08-20T00:00:00	2024-11-08T12:00:00	3	Temperatura mínima	25.4
167660	7	Sololá	719	Santiago Atitlán	14	Cerro de Oro	8	Agosto	2023-08-20T00:00:00	2024-11-08T12:00:00	5	Humedad	62
167661	7	Sololá	719	Santiago Atitlán	14	Cerro de Oro	8	Agosto	2023-08-20T00:00:00	2024-11-08T12:00:00	6	Velocidad del viento	9.7
167662	7	Sololá	719	Santiago Atitlán	14	Cerro de Oro	8	Agosto	2023-08-20T00:00:00	2024-11-08T12:00:00	7	Dirección del viento	9.66
167663	7	Sololá	719	Santiago Atitlán	14	Cerro de Oro	8	Agosto	2023-08-20T00:00:00	2024-11-08T12:00:00	1	Precipitación	0
167664	7	Sololá	719	Santiago Atitlán	14	Cerro de Oro	8	Agosto	2023-08-20T00:00:00	2024-11-08T12:00:00	8	Radiación solar	920
167665	7	Sololá	719	Santiago Atitlán	14	Cerro de Oro	8	Agosto	2023-08-20T00:00:00	2024-11-08T13:00:00	2	Temperatura media	24.9
167666	7	Sololá	719	Santiago Atitlán	14	Cerro de Oro	8	Agosto	2023-08-20T00:00:00	2024-11-08T13:00:00	4	Temperatura máxima	26.1
167667	7	Sololá	719	Santiago Atitlán	14	Cerro de Oro	8	Agosto	2023-08-20T00:00:00	2024-11-08T13:00:00	3	Temperatura mínima	24.9
167668	7	Sololá	719	Santiago Atitlán	14	Cerro de Oro	8	Agosto	2023-08-20T00:00:00	2024-11-08T13:00:00	5	Humedad	68
167669	7	Sololá	719	Santiago Atitlán	14	Cerro de Oro	8	Agosto	2023-08-20T00:00:00	2024-11-08T13:00:00	6	Velocidad del viento	11.3
167670	7	Sololá	719	Santiago Atitlán	14	Cerro de Oro	8	Agosto	2023-08-20T00:00:00	2024-11-08T13:00:00	7	Dirección del viento	11.27
167671	7	Sololá	719	Santiago Atitlán	14	Cerro de Oro	8	Agosto	2023-08-20T00:00:00	2024-11-08T13:00:00	1	Precipitación	0
167672	7	Sololá	719	Santiago Atitlán	14	Cerro de Oro	8	Agosto	2023-08-20T00:00:00	2024-11-08T13:00:00	8	Radiación solar	922
167673	7	Sololá	719	Santiago Atitlán	14	Cerro de Oro	8	Agosto	2023-08-20T00:00:00	2024-11-08T14:00:00	2	Temperatura media	23.8
167674	7	Sololá	719	Santiago Atitlán	14	Cerro de Oro	8	Agosto	2023-08-20T00:00:00	2024-11-08T14:00:00	4	Temperatura máxima	24.9
167675	7	Sololá	719	Santiago Atitlán	14	Cerro de Oro	8	Agosto	2023-08-20T00:00:00	2024-11-08T14:00:00	3	Temperatura mínima	23.2
167676	7	Sololá	719	Santiago Atitlán	14	Cerro de Oro	8	Agosto	2023-08-20T00:00:00	2024-11-08T14:00:00	5	Humedad	73
167677	7	Sololá	719	Santiago Atitlán	14	Cerro de Oro	8	Agosto	2023-08-20T00:00:00	2024-11-08T14:00:00	6	Velocidad del viento	16.1
167678	7	Sololá	719	Santiago Atitlán	14	Cerro de Oro	8	Agosto	2023-08-20T00:00:00	2024-11-08T14:00:00	7	Dirección del viento	16.09
167679	7	Sololá	719	Santiago Atitlán	14	Cerro de Oro	8	Agosto	2023-08-20T00:00:00	2024-11-08T14:00:00	1	Precipitación	0
167680	7	Sololá	719	Santiago Atitlán	14	Cerro de Oro	8	Agosto	2023-08-20T00:00:00	2024-11-08T14:00:00	8	Radiación solar	809
167681	7	Sololá	719	Santiago Atitlán	14	Cerro de Oro	8	Agosto	2023-08-20T00:00:00	2024-11-08T15:00:00	2	Temperatura media	24.2
167682	7	Sololá	719	Santiago Atitlán	14	Cerro de Oro	8	Agosto	2023-08-20T00:00:00	2024-11-08T15:00:00	4	Temperatura máxima	24.2
167683	7	Sololá	719	Santiago Atitlán	14	Cerro de Oro	8	Agosto	2023-08-20T00:00:00	2024-11-08T15:00:00	3	Temperatura mínima	23.3
167684	7	Sololá	719	Santiago Atitlán	14	Cerro de Oro	8	Agosto	2023-08-20T00:00:00	2024-11-08T15:00:00	5	Humedad	72
167685	7	Sololá	719	Santiago Atitlán	14	Cerro de Oro	8	Agosto	2023-08-20T00:00:00	2024-11-08T15:00:00	6	Velocidad del viento	8
167686	7	Sololá	719	Santiago Atitlán	14	Cerro de Oro	8	Agosto	2023-08-20T00:00:00	2024-11-08T15:00:00	7	Dirección del viento	8.05
167687	7	Sololá	719	Santiago Atitlán	14	Cerro de Oro	8	Agosto	2023-08-20T00:00:00	2024-11-08T15:00:00	1	Precipitación	0
167688	7	Sololá	719	Santiago Atitlán	14	Cerro de Oro	8	Agosto	2023-08-20T00:00:00	2024-11-08T15:00:00	8	Radiación solar	337
167689	7	Sololá	719	Santiago Atitlán	14	Cerro de Oro	8	Agosto	2023-08-20T00:00:00	2024-11-08T16:00:00	2	Temperatura media	24.4
167690	7	Sololá	719	Santiago Atitlán	14	Cerro de Oro	8	Agosto	2023-08-20T00:00:00	2024-11-08T16:00:00	4	Temperatura máxima	24.6
167691	7	Sololá	719	Santiago Atitlán	14	Cerro de Oro	8	Agosto	2023-08-20T00:00:00	2024-11-08T16:00:00	3	Temperatura mínima	23.8
167692	7	Sololá	719	Santiago Atitlán	14	Cerro de Oro	8	Agosto	2023-08-20T00:00:00	2024-11-08T16:00:00	5	Humedad	74
167693	7	Sololá	719	Santiago Atitlán	14	Cerro de Oro	8	Agosto	2023-08-20T00:00:00	2024-11-08T16:00:00	6	Velocidad del viento	8
167694	7	Sololá	719	Santiago Atitlán	14	Cerro de Oro	8	Agosto	2023-08-20T00:00:00	2024-11-08T16:00:00	7	Dirección del viento	8.05
167695	7	Sololá	719	Santiago Atitlán	14	Cerro de Oro	8	Agosto	2023-08-20T00:00:00	2024-11-08T16:00:00	1	Precipitación	0
167696	7	Sololá	719	Santiago Atitlán	14	Cerro de Oro	8	Agosto	2023-08-20T00:00:00	2024-11-08T16:00:00	8	Radiación solar	589
167697	7	Sololá	719	Santiago Atitlán	14	Cerro de Oro	8	Agosto	2023-08-20T00:00:00	2024-11-08T17:00:00	2	Temperatura media	23.2
167698	7	Sololá	719	Santiago Atitlán	14	Cerro de Oro	8	Agosto	2023-08-20T00:00:00	2024-11-08T17:00:00	4	Temperatura máxima	24.4
167699	7	Sololá	719	Santiago Atitlán	14	Cerro de Oro	8	Agosto	2023-08-20T00:00:00	2024-11-08T17:00:00	3	Temperatura mínima	22.9
167700	7	Sololá	719	Santiago Atitlán	14	Cerro de Oro	8	Agosto	2023-08-20T00:00:00	2024-11-08T17:00:00	5	Humedad	75
167701	7	Sololá	719	Santiago Atitlán	14	Cerro de Oro	8	Agosto	2023-08-20T00:00:00	2024-11-08T17:00:00	6	Velocidad del viento	9.7
167702	7	Sololá	719	Santiago Atitlán	14	Cerro de Oro	8	Agosto	2023-08-20T00:00:00	2024-11-08T17:00:00	7	Dirección del viento	9.66
167703	7	Sololá	719	Santiago Atitlán	14	Cerro de Oro	8	Agosto	2023-08-20T00:00:00	2024-11-08T17:00:00	1	Precipitación	0
167704	7	Sololá	719	Santiago Atitlán	14	Cerro de Oro	8	Agosto	2023-08-20T00:00:00	2024-11-08T17:00:00	8	Radiación solar	307
167705	7	Sololá	719	Santiago Atitlán	14	Cerro de Oro	8	Agosto	2023-08-20T00:00:00	2024-11-08T18:00:00	2	Temperatura media	21.2
167706	7	Sololá	719	Santiago Atitlán	14	Cerro de Oro	8	Agosto	2023-08-20T00:00:00	2024-11-08T18:00:00	4	Temperatura máxima	23.6
167707	7	Sololá	719	Santiago Atitlán	14	Cerro de Oro	8	Agosto	2023-08-20T00:00:00	2024-11-08T18:00:00	3	Temperatura mínima	21.2
167708	7	Sololá	719	Santiago Atitlán	14	Cerro de Oro	8	Agosto	2023-08-20T00:00:00	2024-11-08T18:00:00	5	Humedad	84
167709	7	Sololá	719	Santiago Atitlán	14	Cerro de Oro	8	Agosto	2023-08-20T00:00:00	2024-11-08T18:00:00	6	Velocidad del viento	4.8
167710	7	Sololá	719	Santiago Atitlán	14	Cerro de Oro	8	Agosto	2023-08-20T00:00:00	2024-11-08T18:00:00	7	Dirección del viento	4.83
167711	7	Sololá	719	Santiago Atitlán	14	Cerro de Oro	8	Agosto	2023-08-20T00:00:00	2024-11-08T18:00:00	1	Precipitación	0
167712	7	Sololá	719	Santiago Atitlán	14	Cerro de Oro	8	Agosto	2023-08-20T00:00:00	2024-11-08T18:00:00	8	Radiación solar	71
167713	7	Sololá	719	Santiago Atitlán	14	Cerro de Oro	8	Agosto	2023-08-20T00:00:00	2024-11-08T19:00:00	2	Temperatura media	20.7
167714	7	Sololá	719	Santiago Atitlán	14	Cerro de Oro	8	Agosto	2023-08-20T00:00:00	2024-11-08T19:00:00	4	Temperatura máxima	21.2
167715	7	Sololá	719	Santiago Atitlán	14	Cerro de Oro	8	Agosto	2023-08-20T00:00:00	2024-11-08T19:00:00	3	Temperatura mínima	20.7
167716	7	Sololá	719	Santiago Atitlán	14	Cerro de Oro	8	Agosto	2023-08-20T00:00:00	2024-11-08T19:00:00	5	Humedad	84
167717	7	Sololá	719	Santiago Atitlán	14	Cerro de Oro	8	Agosto	2023-08-20T00:00:00	2024-11-08T19:00:00	6	Velocidad del viento	4.8
167718	7	Sololá	719	Santiago Atitlán	14	Cerro de Oro	8	Agosto	2023-08-20T00:00:00	2024-11-08T19:00:00	7	Dirección del viento	4.83
167719	7	Sololá	719	Santiago Atitlán	14	Cerro de Oro	8	Agosto	2023-08-20T00:00:00	2024-11-08T19:00:00	1	Precipitación	0
167720	7	Sololá	719	Santiago Atitlán	14	Cerro de Oro	8	Agosto	2023-08-20T00:00:00	2024-11-08T19:00:00	8	Radiación solar	0
167721	7	Sololá	719	Santiago Atitlán	14	Cerro de Oro	8	Agosto	2023-08-20T00:00:00	2024-11-08T20:00:00	2	Temperatura media	21.2
167722	7	Sololá	719	Santiago Atitlán	14	Cerro de Oro	8	Agosto	2023-08-20T00:00:00	2024-11-08T20:00:00	4	Temperatura máxima	21.2
167723	7	Sololá	719	Santiago Atitlán	14	Cerro de Oro	8	Agosto	2023-08-20T00:00:00	2024-11-08T20:00:00	3	Temperatura mínima	20.6
167724	7	Sololá	719	Santiago Atitlán	14	Cerro de Oro	8	Agosto	2023-08-20T00:00:00	2024-11-08T20:00:00	5	Humedad	74
167725	7	Sololá	719	Santiago Atitlán	14	Cerro de Oro	8	Agosto	2023-08-20T00:00:00	2024-11-08T20:00:00	6	Velocidad del viento	4.8
167726	7	Sololá	719	Santiago Atitlán	14	Cerro de Oro	8	Agosto	2023-08-20T00:00:00	2024-11-08T20:00:00	7	Dirección del viento	4.83
167727	7	Sololá	719	Santiago Atitlán	14	Cerro de Oro	8	Agosto	2023-08-20T00:00:00	2024-11-08T20:00:00	1	Precipitación	0
167728	7	Sololá	719	Santiago Atitlán	14	Cerro de Oro	8	Agosto	2023-08-20T00:00:00	2024-11-08T20:00:00	8	Radiación solar	0
167729	7	Sololá	719	Santiago Atitlán	14	Cerro de Oro	8	Agosto	2023-08-20T00:00:00	2024-11-08T21:00:00	2	Temperatura media	21.5
167730	7	Sololá	719	Santiago Atitlán	14	Cerro de Oro	8	Agosto	2023-08-20T00:00:00	2024-11-08T21:00:00	4	Temperatura máxima	21.8
167731	7	Sololá	719	Santiago Atitlán	14	Cerro de Oro	8	Agosto	2023-08-20T00:00:00	2024-11-08T21:00:00	3	Temperatura mínima	21.2
167732	7	Sololá	719	Santiago Atitlán	14	Cerro de Oro	8	Agosto	2023-08-20T00:00:00	2024-11-08T21:00:00	5	Humedad	73
167733	7	Sololá	719	Santiago Atitlán	14	Cerro de Oro	8	Agosto	2023-08-20T00:00:00	2024-11-08T21:00:00	6	Velocidad del viento	6.4
167734	7	Sololá	719	Santiago Atitlán	14	Cerro de Oro	8	Agosto	2023-08-20T00:00:00	2024-11-08T21:00:00	7	Dirección del viento	6.44
167735	7	Sololá	719	Santiago Atitlán	14	Cerro de Oro	8	Agosto	2023-08-20T00:00:00	2024-11-08T21:00:00	1	Precipitación	0
167736	7	Sololá	719	Santiago Atitlán	14	Cerro de Oro	8	Agosto	2023-08-20T00:00:00	2024-11-08T21:00:00	8	Radiación solar	0
167737	7	Sololá	719	Santiago Atitlán	14	Cerro de Oro	8	Agosto	2023-08-20T00:00:00	2024-11-08T22:00:00	2	Temperatura media	21.2
167738	7	Sololá	719	Santiago Atitlán	14	Cerro de Oro	8	Agosto	2023-08-20T00:00:00	2024-11-08T22:00:00	4	Temperatura máxima	21.6
167739	7	Sololá	719	Santiago Atitlán	14	Cerro de Oro	8	Agosto	2023-08-20T00:00:00	2024-11-08T22:00:00	3	Temperatura mínima	21.2
167740	7	Sololá	719	Santiago Atitlán	14	Cerro de Oro	8	Agosto	2023-08-20T00:00:00	2024-11-08T22:00:00	5	Humedad	72
167741	7	Sololá	719	Santiago Atitlán	14	Cerro de Oro	8	Agosto	2023-08-20T00:00:00	2024-11-08T22:00:00	6	Velocidad del viento	6.4
167742	7	Sololá	719	Santiago Atitlán	14	Cerro de Oro	8	Agosto	2023-08-20T00:00:00	2024-11-08T22:00:00	7	Dirección del viento	6.44
167743	7	Sololá	719	Santiago Atitlán	14	Cerro de Oro	8	Agosto	2023-08-20T00:00:00	2024-11-08T22:00:00	1	Precipitación	0
167744	7	Sololá	719	Santiago Atitlán	14	Cerro de Oro	8	Agosto	2023-08-20T00:00:00	2024-11-08T22:00:00	8	Radiación solar	0
167745	7	Sololá	719	Santiago Atitlán	14	Cerro de Oro	8	Agosto	2023-08-20T00:00:00	2024-11-08T23:00:00	2	Temperatura media	20.9
167746	7	Sololá	719	Santiago Atitlán	14	Cerro de Oro	8	Agosto	2023-08-20T00:00:00	2024-11-08T23:00:00	4	Temperatura máxima	21.2
167747	7	Sololá	719	Santiago Atitlán	14	Cerro de Oro	8	Agosto	2023-08-20T00:00:00	2024-11-08T23:00:00	3	Temperatura mínima	20.8
167748	7	Sololá	719	Santiago Atitlán	14	Cerro de Oro	8	Agosto	2023-08-20T00:00:00	2024-11-08T23:00:00	5	Humedad	72
167749	7	Sololá	719	Santiago Atitlán	14	Cerro de Oro	8	Agosto	2023-08-20T00:00:00	2024-11-08T23:00:00	6	Velocidad del viento	4.8
167750	7	Sololá	719	Santiago Atitlán	14	Cerro de Oro	8	Agosto	2023-08-20T00:00:00	2024-11-08T23:00:00	7	Dirección del viento	4.83
167751	7	Sololá	719	Santiago Atitlán	14	Cerro de Oro	8	Agosto	2023-08-20T00:00:00	2024-11-08T23:00:00	1	Precipitación	0
167752	7	Sololá	719	Santiago Atitlán	14	Cerro de Oro	8	Agosto	2023-08-20T00:00:00	2024-11-08T23:00:00	8	Radiación solar	0
167753	7	Sololá	719	Santiago Atitlán	14	Cerro de Oro	8	Agosto	2023-08-21T00:00:00	2024-11-08T00:00:00	2	Temperatura media	20.3
167754	7	Sololá	719	Santiago Atitlán	14	Cerro de Oro	8	Agosto	2023-08-21T00:00:00	2024-11-08T00:00:00	4	Temperatura máxima	20.9
167755	7	Sololá	719	Santiago Atitlán	14	Cerro de Oro	8	Agosto	2023-08-21T00:00:00	2024-11-08T00:00:00	3	Temperatura mínima	19.5
167756	7	Sololá	719	Santiago Atitlán	14	Cerro de Oro	8	Agosto	2023-08-21T00:00:00	2024-11-08T00:00:00	5	Humedad	74
167757	7	Sololá	719	Santiago Atitlán	14	Cerro de Oro	8	Agosto	2023-08-21T00:00:00	2024-11-08T00:00:00	6	Velocidad del viento	4.8
167758	7	Sololá	719	Santiago Atitlán	14	Cerro de Oro	8	Agosto	2023-08-21T00:00:00	2024-11-08T00:00:00	7	Dirección del viento	4.83
167759	7	Sololá	719	Santiago Atitlán	14	Cerro de Oro	8	Agosto	2023-08-21T00:00:00	2024-11-08T00:00:00	1	Precipitación	0
167760	7	Sololá	719	Santiago Atitlán	14	Cerro de Oro	8	Agosto	2023-08-21T00:00:00	2024-11-08T00:00:00	8	Radiación solar	0
167761	7	Sololá	719	Santiago Atitlán	14	Cerro de Oro	8	Agosto	2023-08-21T00:00:00	2024-11-08T01:00:00	2	Temperatura media	19.4
167762	7	Sololá	719	Santiago Atitlán	14	Cerro de Oro	8	Agosto	2023-08-21T00:00:00	2024-11-08T01:00:00	4	Temperatura máxima	20.5
167763	7	Sololá	719	Santiago Atitlán	14	Cerro de Oro	8	Agosto	2023-08-21T00:00:00	2024-11-08T01:00:00	3	Temperatura mínima	19.1
167764	7	Sololá	719	Santiago Atitlán	14	Cerro de Oro	8	Agosto	2023-08-21T00:00:00	2024-11-08T01:00:00	5	Humedad	76
167765	7	Sololá	719	Santiago Atitlán	14	Cerro de Oro	8	Agosto	2023-08-21T00:00:00	2024-11-08T01:00:00	6	Velocidad del viento	6.4
167766	7	Sololá	719	Santiago Atitlán	14	Cerro de Oro	8	Agosto	2023-08-21T00:00:00	2024-11-08T01:00:00	7	Dirección del viento	6.44
167767	7	Sololá	719	Santiago Atitlán	14	Cerro de Oro	8	Agosto	2023-08-21T00:00:00	2024-11-08T01:00:00	1	Precipitación	0
167768	7	Sololá	719	Santiago Atitlán	14	Cerro de Oro	8	Agosto	2023-08-21T00:00:00	2024-11-08T01:00:00	8	Radiación solar	0
167769	7	Sololá	719	Santiago Atitlán	14	Cerro de Oro	8	Agosto	2023-08-21T00:00:00	2024-11-08T02:00:00	2	Temperatura media	18.6
167770	7	Sololá	719	Santiago Atitlán	14	Cerro de Oro	8	Agosto	2023-08-21T00:00:00	2024-11-08T02:00:00	4	Temperatura máxima	19.4
167771	7	Sololá	719	Santiago Atitlán	14	Cerro de Oro	8	Agosto	2023-08-21T00:00:00	2024-11-08T02:00:00	3	Temperatura mínima	18.6
167772	7	Sololá	719	Santiago Atitlán	14	Cerro de Oro	8	Agosto	2023-08-21T00:00:00	2024-11-08T02:00:00	5	Humedad	76
167773	7	Sololá	719	Santiago Atitlán	14	Cerro de Oro	8	Agosto	2023-08-21T00:00:00	2024-11-08T02:00:00	6	Velocidad del viento	4.8
167774	7	Sololá	719	Santiago Atitlán	14	Cerro de Oro	8	Agosto	2023-08-21T00:00:00	2024-11-08T02:00:00	7	Dirección del viento	4.83
167775	7	Sololá	719	Santiago Atitlán	14	Cerro de Oro	8	Agosto	2023-08-21T00:00:00	2024-11-08T02:00:00	1	Precipitación	0
167776	7	Sololá	719	Santiago Atitlán	14	Cerro de Oro	8	Agosto	2023-08-21T00:00:00	2024-11-08T02:00:00	8	Radiación solar	0
167777	7	Sololá	719	Santiago Atitlán	14	Cerro de Oro	8	Agosto	2023-08-21T00:00:00	2024-11-08T03:00:00	2	Temperatura media	17.9
167778	7	Sololá	719	Santiago Atitlán	14	Cerro de Oro	8	Agosto	2023-08-21T00:00:00	2024-11-08T03:00:00	4	Temperatura máxima	18.9
167779	7	Sololá	719	Santiago Atitlán	14	Cerro de Oro	8	Agosto	2023-08-21T00:00:00	2024-11-08T03:00:00	3	Temperatura mínima	17.9
167780	7	Sololá	719	Santiago Atitlán	14	Cerro de Oro	8	Agosto	2023-08-21T00:00:00	2024-11-08T03:00:00	5	Humedad	78
167781	7	Sololá	719	Santiago Atitlán	14	Cerro de Oro	8	Agosto	2023-08-21T00:00:00	2024-11-08T03:00:00	6	Velocidad del viento	6.4
167782	7	Sololá	719	Santiago Atitlán	14	Cerro de Oro	8	Agosto	2023-08-21T00:00:00	2024-11-08T03:00:00	7	Dirección del viento	6.44
167783	7	Sololá	719	Santiago Atitlán	14	Cerro de Oro	8	Agosto	2023-08-21T00:00:00	2024-11-08T03:00:00	1	Precipitación	0
167784	7	Sololá	719	Santiago Atitlán	14	Cerro de Oro	8	Agosto	2023-08-21T00:00:00	2024-11-08T03:00:00	8	Radiación solar	0
167785	7	Sololá	719	Santiago Atitlán	14	Cerro de Oro	8	Agosto	2023-08-21T00:00:00	2024-11-08T04:00:00	2	Temperatura media	19.2
167786	7	Sololá	719	Santiago Atitlán	14	Cerro de Oro	8	Agosto	2023-08-21T00:00:00	2024-11-08T04:00:00	4	Temperatura máxima	19.2
167787	7	Sololá	719	Santiago Atitlán	14	Cerro de Oro	8	Agosto	2023-08-21T00:00:00	2024-11-08T04:00:00	3	Temperatura mínima	17.9
167788	7	Sololá	719	Santiago Atitlán	14	Cerro de Oro	8	Agosto	2023-08-21T00:00:00	2024-11-08T04:00:00	5	Humedad	73
167789	7	Sololá	719	Santiago Atitlán	14	Cerro de Oro	8	Agosto	2023-08-21T00:00:00	2024-11-08T04:00:00	6	Velocidad del viento	4.8
167790	7	Sololá	719	Santiago Atitlán	14	Cerro de Oro	8	Agosto	2023-08-21T00:00:00	2024-11-08T04:00:00	7	Dirección del viento	4.83
167791	7	Sololá	719	Santiago Atitlán	14	Cerro de Oro	8	Agosto	2023-08-21T00:00:00	2024-11-08T04:00:00	1	Precipitación	0
167792	7	Sololá	719	Santiago Atitlán	14	Cerro de Oro	8	Agosto	2023-08-21T00:00:00	2024-11-08T04:00:00	8	Radiación solar	0
167793	7	Sololá	719	Santiago Atitlán	14	Cerro de Oro	8	Agosto	2023-08-21T00:00:00	2024-11-08T05:00:00	2	Temperatura media	19.4
167794	7	Sololá	719	Santiago Atitlán	14	Cerro de Oro	8	Agosto	2023-08-21T00:00:00	2024-11-08T05:00:00	4	Temperatura máxima	20.2
167795	7	Sololá	719	Santiago Atitlán	14	Cerro de Oro	8	Agosto	2023-08-21T00:00:00	2024-11-08T05:00:00	3	Temperatura mínima	19.2
167796	7	Sololá	719	Santiago Atitlán	14	Cerro de Oro	8	Agosto	2023-08-21T00:00:00	2024-11-08T05:00:00	5	Humedad	72
167797	7	Sololá	719	Santiago Atitlán	14	Cerro de Oro	8	Agosto	2023-08-21T00:00:00	2024-11-08T05:00:00	6	Velocidad del viento	4.8
167798	7	Sololá	719	Santiago Atitlán	14	Cerro de Oro	8	Agosto	2023-08-21T00:00:00	2024-11-08T05:00:00	7	Dirección del viento	4.83
167799	7	Sololá	719	Santiago Atitlán	14	Cerro de Oro	8	Agosto	2023-08-21T00:00:00	2024-11-08T05:00:00	1	Precipitación	0
167800	7	Sololá	719	Santiago Atitlán	14	Cerro de Oro	8	Agosto	2023-08-21T00:00:00	2024-11-08T05:00:00	8	Radiación solar	0
167801	7	Sololá	719	Santiago Atitlán	14	Cerro de Oro	8	Agosto	2023-08-21T00:00:00	2024-11-08T06:00:00	2	Temperatura media	18.6
167802	7	Sololá	719	Santiago Atitlán	14	Cerro de Oro	8	Agosto	2023-08-21T00:00:00	2024-11-08T06:00:00	4	Temperatura máxima	19.4
167803	7	Sololá	719	Santiago Atitlán	14	Cerro de Oro	8	Agosto	2023-08-21T00:00:00	2024-11-08T06:00:00	3	Temperatura mínima	18.6
167804	7	Sololá	719	Santiago Atitlán	14	Cerro de Oro	8	Agosto	2023-08-21T00:00:00	2024-11-08T06:00:00	5	Humedad	74
167805	7	Sololá	719	Santiago Atitlán	14	Cerro de Oro	8	Agosto	2023-08-21T00:00:00	2024-11-08T06:00:00	6	Velocidad del viento	4.8
167806	7	Sololá	719	Santiago Atitlán	14	Cerro de Oro	8	Agosto	2023-08-21T00:00:00	2024-11-08T06:00:00	7	Dirección del viento	4.83
167807	7	Sololá	719	Santiago Atitlán	14	Cerro de Oro	8	Agosto	2023-08-21T00:00:00	2024-11-08T06:00:00	1	Precipitación	0
167808	7	Sololá	719	Santiago Atitlán	14	Cerro de Oro	8	Agosto	2023-08-21T00:00:00	2024-11-08T06:00:00	8	Radiación solar	0
167809	7	Sololá	719	Santiago Atitlán	14	Cerro de Oro	8	Agosto	2023-08-21T00:00:00	2024-11-08T07:00:00	2	Temperatura media	19.1
167810	7	Sololá	719	Santiago Atitlán	14	Cerro de Oro	8	Agosto	2023-08-21T00:00:00	2024-11-08T07:00:00	4	Temperatura máxima	19.4
167811	7	Sololá	719	Santiago Atitlán	14	Cerro de Oro	8	Agosto	2023-08-21T00:00:00	2024-11-08T07:00:00	3	Temperatura mínima	18.5
167812	7	Sololá	719	Santiago Atitlán	14	Cerro de Oro	8	Agosto	2023-08-21T00:00:00	2024-11-08T07:00:00	5	Humedad	73
167813	7	Sololá	719	Santiago Atitlán	14	Cerro de Oro	8	Agosto	2023-08-21T00:00:00	2024-11-08T07:00:00	6	Velocidad del viento	3.2
167814	7	Sololá	719	Santiago Atitlán	14	Cerro de Oro	8	Agosto	2023-08-21T00:00:00	2024-11-08T07:00:00	7	Dirección del viento	3.22
167815	7	Sololá	719	Santiago Atitlán	14	Cerro de Oro	8	Agosto	2023-08-21T00:00:00	2024-11-08T07:00:00	1	Precipitación	0
167816	7	Sololá	719	Santiago Atitlán	14	Cerro de Oro	8	Agosto	2023-08-21T00:00:00	2024-11-08T07:00:00	8	Radiación solar	32
167817	7	Sololá	719	Santiago Atitlán	14	Cerro de Oro	8	Agosto	2023-08-21T00:00:00	2024-11-08T08:00:00	2	Temperatura media	20.6
167818	7	Sololá	719	Santiago Atitlán	14	Cerro de Oro	8	Agosto	2023-08-21T00:00:00	2024-11-08T08:00:00	4	Temperatura máxima	20.6
167819	7	Sololá	719	Santiago Atitlán	14	Cerro de Oro	8	Agosto	2023-08-21T00:00:00	2024-11-08T08:00:00	3	Temperatura mínima	19.1
167820	7	Sololá	719	Santiago Atitlán	14	Cerro de Oro	8	Agosto	2023-08-21T00:00:00	2024-11-08T08:00:00	5	Humedad	70
167821	7	Sololá	719	Santiago Atitlán	14	Cerro de Oro	8	Agosto	2023-08-21T00:00:00	2024-11-08T08:00:00	6	Velocidad del viento	1.6
167822	7	Sololá	719	Santiago Atitlán	14	Cerro de Oro	8	Agosto	2023-08-21T00:00:00	2024-11-08T08:00:00	7	Dirección del viento	1.61
167823	7	Sololá	719	Santiago Atitlán	14	Cerro de Oro	8	Agosto	2023-08-21T00:00:00	2024-11-08T08:00:00	1	Precipitación	0
167824	7	Sololá	719	Santiago Atitlán	14	Cerro de Oro	8	Agosto	2023-08-21T00:00:00	2024-11-08T08:00:00	8	Radiación solar	131
167825	7	Sololá	719	Santiago Atitlán	14	Cerro de Oro	8	Agosto	2023-08-21T00:00:00	2024-11-08T09:00:00	2	Temperatura media	21.9
167826	7	Sololá	719	Santiago Atitlán	14	Cerro de Oro	8	Agosto	2023-08-21T00:00:00	2024-11-08T09:00:00	4	Temperatura máxima	21.9
167827	7	Sololá	719	Santiago Atitlán	14	Cerro de Oro	8	Agosto	2023-08-21T00:00:00	2024-11-08T09:00:00	3	Temperatura mínima	20.6
167828	7	Sololá	719	Santiago Atitlán	14	Cerro de Oro	8	Agosto	2023-08-21T00:00:00	2024-11-08T09:00:00	5	Humedad	65
167829	7	Sololá	719	Santiago Atitlán	14	Cerro de Oro	8	Agosto	2023-08-21T00:00:00	2024-11-08T09:00:00	6	Velocidad del viento	1.6
167830	7	Sololá	719	Santiago Atitlán	14	Cerro de Oro	8	Agosto	2023-08-21T00:00:00	2024-11-08T09:00:00	7	Dirección del viento	1.61
167831	7	Sololá	719	Santiago Atitlán	14	Cerro de Oro	8	Agosto	2023-08-21T00:00:00	2024-11-08T09:00:00	1	Precipitación	0
167832	7	Sololá	719	Santiago Atitlán	14	Cerro de Oro	8	Agosto	2023-08-21T00:00:00	2024-11-08T09:00:00	8	Radiación solar	255
167833	7	Sololá	719	Santiago Atitlán	14	Cerro de Oro	8	Agosto	2023-08-21T00:00:00	2024-11-08T10:00:00	2	Temperatura media	22.8
167834	7	Sololá	719	Santiago Atitlán	14	Cerro de Oro	8	Agosto	2023-08-21T00:00:00	2024-11-08T10:00:00	4	Temperatura máxima	22.9
167835	7	Sololá	719	Santiago Atitlán	14	Cerro de Oro	8	Agosto	2023-08-21T00:00:00	2024-11-08T10:00:00	3	Temperatura mínima	21.9
167836	7	Sololá	719	Santiago Atitlán	14	Cerro de Oro	8	Agosto	2023-08-21T00:00:00	2024-11-08T10:00:00	5	Humedad	62
167837	7	Sololá	719	Santiago Atitlán	14	Cerro de Oro	8	Agosto	2023-08-21T00:00:00	2024-11-08T10:00:00	6	Velocidad del viento	3.2
167838	7	Sololá	719	Santiago Atitlán	14	Cerro de Oro	8	Agosto	2023-08-21T00:00:00	2024-11-08T10:00:00	7	Dirección del viento	3.22
167839	7	Sololá	719	Santiago Atitlán	14	Cerro de Oro	8	Agosto	2023-08-21T00:00:00	2024-11-08T10:00:00	1	Precipitación	0
167840	7	Sololá	719	Santiago Atitlán	14	Cerro de Oro	8	Agosto	2023-08-21T00:00:00	2024-11-08T10:00:00	8	Radiación solar	463
167841	7	Sololá	719	Santiago Atitlán	14	Cerro de Oro	8	Agosto	2023-08-21T00:00:00	2024-11-08T11:00:00	2	Temperatura media	23.8
167842	7	Sololá	719	Santiago Atitlán	14	Cerro de Oro	8	Agosto	2023-08-21T00:00:00	2024-11-08T11:00:00	4	Temperatura máxima	23.9
167843	7	Sololá	719	Santiago Atitlán	14	Cerro de Oro	8	Agosto	2023-08-21T00:00:00	2024-11-08T11:00:00	3	Temperatura mínima	22.8
167844	7	Sololá	719	Santiago Atitlán	14	Cerro de Oro	8	Agosto	2023-08-21T00:00:00	2024-11-08T11:00:00	5	Humedad	64
167845	7	Sololá	719	Santiago Atitlán	14	Cerro de Oro	8	Agosto	2023-08-21T00:00:00	2024-11-08T11:00:00	6	Velocidad del viento	4.8
167846	7	Sololá	719	Santiago Atitlán	14	Cerro de Oro	8	Agosto	2023-08-21T00:00:00	2024-11-08T11:00:00	7	Dirección del viento	4.83
167847	7	Sololá	719	Santiago Atitlán	14	Cerro de Oro	8	Agosto	2023-08-21T00:00:00	2024-11-08T11:00:00	1	Precipitación	0
167848	7	Sololá	719	Santiago Atitlán	14	Cerro de Oro	8	Agosto	2023-08-21T00:00:00	2024-11-08T11:00:00	8	Radiación solar	702
167849	7	Sololá	719	Santiago Atitlán	14	Cerro de Oro	8	Agosto	2023-08-21T00:00:00	2024-11-08T12:00:00	2	Temperatura media	25.3
167850	7	Sololá	719	Santiago Atitlán	14	Cerro de Oro	8	Agosto	2023-08-21T00:00:00	2024-11-08T12:00:00	4	Temperatura máxima	25.6
167851	7	Sololá	719	Santiago Atitlán	14	Cerro de Oro	8	Agosto	2023-08-21T00:00:00	2024-11-08T12:00:00	3	Temperatura mínima	23.7
167852	7	Sololá	719	Santiago Atitlán	14	Cerro de Oro	8	Agosto	2023-08-21T00:00:00	2024-11-08T12:00:00	5	Humedad	66
167853	7	Sololá	719	Santiago Atitlán	14	Cerro de Oro	8	Agosto	2023-08-21T00:00:00	2024-11-08T12:00:00	6	Velocidad del viento	4.8
167854	7	Sololá	719	Santiago Atitlán	14	Cerro de Oro	8	Agosto	2023-08-21T00:00:00	2024-11-08T12:00:00	7	Dirección del viento	4.83
167855	7	Sololá	719	Santiago Atitlán	14	Cerro de Oro	8	Agosto	2023-08-21T00:00:00	2024-11-08T12:00:00	1	Precipitación	0
167856	7	Sololá	719	Santiago Atitlán	14	Cerro de Oro	8	Agosto	2023-08-21T00:00:00	2024-11-08T12:00:00	8	Radiación solar	735
167857	7	Sololá	719	Santiago Atitlán	14	Cerro de Oro	8	Agosto	2023-08-21T00:00:00	2024-11-08T13:00:00	2	Temperatura media	22.9
167858	7	Sololá	719	Santiago Atitlán	14	Cerro de Oro	8	Agosto	2023-08-21T00:00:00	2024-11-08T13:00:00	4	Temperatura máxima	25.3
167859	7	Sololá	719	Santiago Atitlán	14	Cerro de Oro	8	Agosto	2023-08-21T00:00:00	2024-11-08T13:00:00	3	Temperatura mínima	22.6
167860	7	Sololá	719	Santiago Atitlán	14	Cerro de Oro	8	Agosto	2023-08-21T00:00:00	2024-11-08T13:00:00	5	Humedad	78
167861	7	Sololá	719	Santiago Atitlán	14	Cerro de Oro	8	Agosto	2023-08-21T00:00:00	2024-11-08T13:00:00	6	Velocidad del viento	12.9
167862	7	Sololá	719	Santiago Atitlán	14	Cerro de Oro	8	Agosto	2023-08-21T00:00:00	2024-11-08T13:00:00	7	Dirección del viento	12.87
167863	7	Sololá	719	Santiago Atitlán	14	Cerro de Oro	8	Agosto	2023-08-21T00:00:00	2024-11-08T13:00:00	1	Precipitación	0
167864	7	Sololá	719	Santiago Atitlán	14	Cerro de Oro	8	Agosto	2023-08-21T00:00:00	2024-11-08T13:00:00	8	Radiación solar	467
167865	7	Sololá	719	Santiago Atitlán	14	Cerro de Oro	8	Agosto	2023-08-21T00:00:00	2024-11-08T14:00:00	2	Temperatura media	23.6
167866	7	Sololá	719	Santiago Atitlán	14	Cerro de Oro	8	Agosto	2023-08-21T00:00:00	2024-11-08T14:00:00	4	Temperatura máxima	24.2
167867	7	Sololá	719	Santiago Atitlán	14	Cerro de Oro	8	Agosto	2023-08-21T00:00:00	2024-11-08T14:00:00	3	Temperatura mínima	22.9
167868	7	Sololá	719	Santiago Atitlán	14	Cerro de Oro	8	Agosto	2023-08-21T00:00:00	2024-11-08T14:00:00	5	Humedad	77
167869	7	Sololá	719	Santiago Atitlán	14	Cerro de Oro	8	Agosto	2023-08-21T00:00:00	2024-11-08T14:00:00	6	Velocidad del viento	9.7
167870	7	Sololá	719	Santiago Atitlán	14	Cerro de Oro	8	Agosto	2023-08-21T00:00:00	2024-11-08T14:00:00	7	Dirección del viento	9.66
167871	7	Sololá	719	Santiago Atitlán	14	Cerro de Oro	8	Agosto	2023-08-21T00:00:00	2024-11-08T14:00:00	1	Precipitación	0
167872	7	Sololá	719	Santiago Atitlán	14	Cerro de Oro	8	Agosto	2023-08-21T00:00:00	2024-11-08T14:00:00	8	Radiación solar	743
167873	7	Sololá	719	Santiago Atitlán	14	Cerro de Oro	8	Agosto	2023-08-21T00:00:00	2024-11-08T15:00:00	2	Temperatura media	23.7
167874	7	Sololá	719	Santiago Atitlán	14	Cerro de Oro	8	Agosto	2023-08-21T00:00:00	2024-11-08T15:00:00	4	Temperatura máxima	24.3
167875	7	Sololá	719	Santiago Atitlán	14	Cerro de Oro	8	Agosto	2023-08-21T00:00:00	2024-11-08T15:00:00	3	Temperatura mínima	22.9
167876	7	Sololá	719	Santiago Atitlán	14	Cerro de Oro	8	Agosto	2023-08-21T00:00:00	2024-11-08T15:00:00	5	Humedad	75
167877	7	Sololá	719	Santiago Atitlán	14	Cerro de Oro	8	Agosto	2023-08-21T00:00:00	2024-11-08T15:00:00	6	Velocidad del viento	11.3
167878	7	Sololá	719	Santiago Atitlán	14	Cerro de Oro	8	Agosto	2023-08-21T00:00:00	2024-11-08T15:00:00	7	Dirección del viento	11.27
167879	7	Sololá	719	Santiago Atitlán	14	Cerro de Oro	8	Agosto	2023-08-21T00:00:00	2024-11-08T15:00:00	1	Precipitación	0
167880	7	Sololá	719	Santiago Atitlán	14	Cerro de Oro	8	Agosto	2023-08-21T00:00:00	2024-11-08T15:00:00	8	Radiación solar	666
167881	7	Sololá	719	Santiago Atitlán	14	Cerro de Oro	8	Agosto	2023-08-21T00:00:00	2024-11-08T16:00:00	2	Temperatura media	20.2
167882	7	Sololá	719	Santiago Atitlán	14	Cerro de Oro	8	Agosto	2023-08-21T00:00:00	2024-11-08T16:00:00	4	Temperatura máxima	23.9
167883	7	Sololá	719	Santiago Atitlán	14	Cerro de Oro	8	Agosto	2023-08-21T00:00:00	2024-11-08T16:00:00	3	Temperatura mínima	20.2
167884	7	Sololá	719	Santiago Atitlán	14	Cerro de Oro	8	Agosto	2023-08-21T00:00:00	2024-11-08T16:00:00	5	Humedad	87
167885	7	Sololá	719	Santiago Atitlán	14	Cerro de Oro	8	Agosto	2023-08-21T00:00:00	2024-11-08T16:00:00	6	Velocidad del viento	12.9
167886	7	Sololá	719	Santiago Atitlán	14	Cerro de Oro	8	Agosto	2023-08-21T00:00:00	2024-11-08T16:00:00	7	Dirección del viento	12.87
167887	7	Sololá	719	Santiago Atitlán	14	Cerro de Oro	8	Agosto	2023-08-21T00:00:00	2024-11-08T16:00:00	1	Precipitación	0
167888	7	Sololá	719	Santiago Atitlán	14	Cerro de Oro	8	Agosto	2023-08-21T00:00:00	2024-11-08T16:00:00	8	Radiación solar	193
167889	7	Sololá	719	Santiago Atitlán	14	Cerro de Oro	8	Agosto	2023-08-21T00:00:00	2024-11-08T17:00:00	2	Temperatura media	20.4
167890	7	Sololá	719	Santiago Atitlán	14	Cerro de Oro	8	Agosto	2023-08-21T00:00:00	2024-11-08T17:00:00	4	Temperatura máxima	20.5
167891	7	Sololá	719	Santiago Atitlán	14	Cerro de Oro	8	Agosto	2023-08-21T00:00:00	2024-11-08T17:00:00	3	Temperatura mínima	19.9
167892	7	Sololá	719	Santiago Atitlán	14	Cerro de Oro	8	Agosto	2023-08-21T00:00:00	2024-11-08T17:00:00	5	Humedad	82
167893	7	Sololá	719	Santiago Atitlán	14	Cerro de Oro	8	Agosto	2023-08-21T00:00:00	2024-11-08T17:00:00	6	Velocidad del viento	9.7
167894	7	Sololá	719	Santiago Atitlán	14	Cerro de Oro	8	Agosto	2023-08-21T00:00:00	2024-11-08T17:00:00	7	Dirección del viento	9.66
167895	7	Sololá	719	Santiago Atitlán	14	Cerro de Oro	8	Agosto	2023-08-21T00:00:00	2024-11-08T17:00:00	1	Precipitación	0
167896	7	Sololá	719	Santiago Atitlán	14	Cerro de Oro	8	Agosto	2023-08-21T00:00:00	2024-11-08T17:00:00	8	Radiación solar	17
167897	7	Sololá	719	Santiago Atitlán	14	Cerro de Oro	8	Agosto	2023-08-21T00:00:00	2024-11-08T18:00:00	2	Temperatura media	19.9
167898	7	Sololá	719	Santiago Atitlán	14	Cerro de Oro	8	Agosto	2023-08-21T00:00:00	2024-11-08T18:00:00	4	Temperatura máxima	20.7
167899	7	Sololá	719	Santiago Atitlán	14	Cerro de Oro	8	Agosto	2023-08-21T00:00:00	2024-11-08T18:00:00	3	Temperatura mínima	19.8
167900	7	Sololá	719	Santiago Atitlán	14	Cerro de Oro	8	Agosto	2023-08-21T00:00:00	2024-11-08T18:00:00	5	Humedad	85
167901	7	Sololá	719	Santiago Atitlán	14	Cerro de Oro	8	Agosto	2023-08-21T00:00:00	2024-11-08T18:00:00	6	Velocidad del viento	3.2
167902	7	Sololá	719	Santiago Atitlán	14	Cerro de Oro	8	Agosto	2023-08-21T00:00:00	2024-11-08T18:00:00	7	Dirección del viento	3.22
167903	7	Sololá	719	Santiago Atitlán	14	Cerro de Oro	8	Agosto	2023-08-21T00:00:00	2024-11-08T18:00:00	1	Precipitación	0
167904	7	Sololá	719	Santiago Atitlán	14	Cerro de Oro	8	Agosto	2023-08-21T00:00:00	2024-11-08T18:00:00	8	Radiación solar	9
167905	7	Sololá	719	Santiago Atitlán	14	Cerro de Oro	8	Agosto	2023-08-21T00:00:00	2024-11-08T19:00:00	2	Temperatura media	20.1
167906	7	Sololá	719	Santiago Atitlán	14	Cerro de Oro	8	Agosto	2023-08-21T00:00:00	2024-11-08T19:00:00	4	Temperatura máxima	20.2
167907	7	Sololá	719	Santiago Atitlán	14	Cerro de Oro	8	Agosto	2023-08-21T00:00:00	2024-11-08T19:00:00	3	Temperatura mínima	19.9
167908	7	Sololá	719	Santiago Atitlán	14	Cerro de Oro	8	Agosto	2023-08-21T00:00:00	2024-11-08T19:00:00	5	Humedad	84
167909	7	Sololá	719	Santiago Atitlán	14	Cerro de Oro	8	Agosto	2023-08-21T00:00:00	2024-11-08T19:00:00	6	Velocidad del viento	1.6
167910	7	Sololá	719	Santiago Atitlán	14	Cerro de Oro	8	Agosto	2023-08-21T00:00:00	2024-11-08T19:00:00	7	Dirección del viento	1.61
167911	7	Sololá	719	Santiago Atitlán	14	Cerro de Oro	8	Agosto	2023-08-21T00:00:00	2024-11-08T19:00:00	1	Precipitación	0
167912	7	Sololá	719	Santiago Atitlán	14	Cerro de Oro	8	Agosto	2023-08-21T00:00:00	2024-11-08T19:00:00	8	Radiación solar	0
167913	7	Sololá	719	Santiago Atitlán	14	Cerro de Oro	8	Agosto	2023-08-21T00:00:00	2024-11-08T20:00:00	2	Temperatura media	19.9
167914	7	Sololá	719	Santiago Atitlán	14	Cerro de Oro	8	Agosto	2023-08-21T00:00:00	2024-11-08T20:00:00	4	Temperatura máxima	20.1
167915	7	Sololá	719	Santiago Atitlán	14	Cerro de Oro	8	Agosto	2023-08-21T00:00:00	2024-11-08T20:00:00	3	Temperatura mínima	19.8
167916	7	Sololá	719	Santiago Atitlán	14	Cerro de Oro	8	Agosto	2023-08-21T00:00:00	2024-11-08T20:00:00	5	Humedad	85
167917	7	Sololá	719	Santiago Atitlán	14	Cerro de Oro	8	Agosto	2023-08-21T00:00:00	2024-11-08T20:00:00	6	Velocidad del viento	1.6
167918	7	Sololá	719	Santiago Atitlán	14	Cerro de Oro	8	Agosto	2023-08-21T00:00:00	2024-11-08T20:00:00	7	Dirección del viento	1.61
167919	7	Sololá	719	Santiago Atitlán	14	Cerro de Oro	8	Agosto	2023-08-21T00:00:00	2024-11-08T20:00:00	1	Precipitación	0
167920	7	Sololá	719	Santiago Atitlán	14	Cerro de Oro	8	Agosto	2023-08-21T00:00:00	2024-11-08T20:00:00	8	Radiación solar	0
167921	7	Sololá	719	Santiago Atitlán	14	Cerro de Oro	8	Agosto	2023-08-21T00:00:00	2024-11-08T21:00:00	2	Temperatura media	19.9
167922	7	Sololá	719	Santiago Atitlán	14	Cerro de Oro	8	Agosto	2023-08-21T00:00:00	2024-11-08T21:00:00	4	Temperatura máxima	20.1
167923	7	Sololá	719	Santiago Atitlán	14	Cerro de Oro	8	Agosto	2023-08-21T00:00:00	2024-11-08T21:00:00	3	Temperatura mínima	19.7
167924	7	Sololá	719	Santiago Atitlán	14	Cerro de Oro	8	Agosto	2023-08-21T00:00:00	2024-11-08T21:00:00	5	Humedad	80
167925	7	Sololá	719	Santiago Atitlán	14	Cerro de Oro	8	Agosto	2023-08-21T00:00:00	2024-11-08T21:00:00	6	Velocidad del viento	3.2
167926	7	Sololá	719	Santiago Atitlán	14	Cerro de Oro	8	Agosto	2023-08-21T00:00:00	2024-11-08T21:00:00	7	Dirección del viento	3.22
167927	7	Sololá	719	Santiago Atitlán	14	Cerro de Oro	8	Agosto	2023-08-21T00:00:00	2024-11-08T21:00:00	1	Precipitación	0
167928	7	Sololá	719	Santiago Atitlán	14	Cerro de Oro	8	Agosto	2023-08-21T00:00:00	2024-11-08T21:00:00	8	Radiación solar	0
167929	7	Sololá	719	Santiago Atitlán	14	Cerro de Oro	8	Agosto	2023-08-21T00:00:00	2024-11-08T22:00:00	2	Temperatura media	20.3
167930	7	Sololá	719	Santiago Atitlán	14	Cerro de Oro	8	Agosto	2023-08-21T00:00:00	2024-11-08T22:00:00	4	Temperatura máxima	20.7
167931	7	Sololá	719	Santiago Atitlán	14	Cerro de Oro	8	Agosto	2023-08-21T00:00:00	2024-11-08T22:00:00	3	Temperatura mínima	19.9
167932	7	Sololá	719	Santiago Atitlán	14	Cerro de Oro	8	Agosto	2023-08-21T00:00:00	2024-11-08T22:00:00	5	Humedad	76
167933	7	Sololá	719	Santiago Atitlán	14	Cerro de Oro	8	Agosto	2023-08-21T00:00:00	2024-11-08T22:00:00	6	Velocidad del viento	4.8
167934	7	Sololá	719	Santiago Atitlán	14	Cerro de Oro	8	Agosto	2023-08-21T00:00:00	2024-11-08T22:00:00	7	Dirección del viento	4.83
167935	7	Sololá	719	Santiago Atitlán	14	Cerro de Oro	8	Agosto	2023-08-21T00:00:00	2024-11-08T22:00:00	1	Precipitación	0
167936	7	Sololá	719	Santiago Atitlán	14	Cerro de Oro	8	Agosto	2023-08-21T00:00:00	2024-11-08T22:00:00	8	Radiación solar	0
167937	7	Sololá	719	Santiago Atitlán	14	Cerro de Oro	8	Agosto	2023-08-21T00:00:00	2024-11-08T23:00:00	2	Temperatura media	20.2
167938	7	Sololá	719	Santiago Atitlán	14	Cerro de Oro	8	Agosto	2023-08-21T00:00:00	2024-11-08T23:00:00	4	Temperatura máxima	20.3
167939	7	Sololá	719	Santiago Atitlán	14	Cerro de Oro	8	Agosto	2023-08-21T00:00:00	2024-11-08T23:00:00	3	Temperatura mínima	19.9
167940	7	Sololá	719	Santiago Atitlán	14	Cerro de Oro	8	Agosto	2023-08-21T00:00:00	2024-11-08T23:00:00	5	Humedad	74
167941	7	Sololá	719	Santiago Atitlán	14	Cerro de Oro	8	Agosto	2023-08-21T00:00:00	2024-11-08T23:00:00	6	Velocidad del viento	4.8
167942	7	Sololá	719	Santiago Atitlán	14	Cerro de Oro	8	Agosto	2023-08-21T00:00:00	2024-11-08T23:00:00	7	Dirección del viento	4.83
167943	7	Sololá	719	Santiago Atitlán	14	Cerro de Oro	8	Agosto	2023-08-21T00:00:00	2024-11-08T23:00:00	1	Precipitación	0
167944	7	Sololá	719	Santiago Atitlán	14	Cerro de Oro	8	Agosto	2023-08-21T00:00:00	2024-11-08T23:00:00	8	Radiación solar	0
167945	7	Sololá	719	Santiago Atitlán	14	Cerro de Oro	8	Agosto	2023-08-22T00:00:00	2024-11-08T00:00:00	2	Temperatura media	19.7
167946	7	Sololá	719	Santiago Atitlán	14	Cerro de Oro	8	Agosto	2023-08-22T00:00:00	2024-11-08T00:00:00	4	Temperatura máxima	20.2
167947	7	Sololá	719	Santiago Atitlán	14	Cerro de Oro	8	Agosto	2023-08-22T00:00:00	2024-11-08T00:00:00	3	Temperatura mínima	19.6
167948	7	Sololá	719	Santiago Atitlán	14	Cerro de Oro	8	Agosto	2023-08-22T00:00:00	2024-11-08T00:00:00	5	Humedad	76
167949	7	Sololá	719	Santiago Atitlán	14	Cerro de Oro	8	Agosto	2023-08-22T00:00:00	2024-11-08T00:00:00	6	Velocidad del viento	4.8
167950	7	Sololá	719	Santiago Atitlán	14	Cerro de Oro	8	Agosto	2023-08-22T00:00:00	2024-11-08T00:00:00	7	Dirección del viento	4.83
167951	7	Sololá	719	Santiago Atitlán	14	Cerro de Oro	8	Agosto	2023-08-22T00:00:00	2024-11-08T00:00:00	1	Precipitación	0
167952	7	Sololá	719	Santiago Atitlán	14	Cerro de Oro	8	Agosto	2023-08-22T00:00:00	2024-11-08T00:00:00	8	Radiación solar	0
167953	7	Sololá	719	Santiago Atitlán	14	Cerro de Oro	8	Agosto	2023-08-22T00:00:00	2024-11-08T01:00:00	2	Temperatura media	19.9
167954	7	Sololá	719	Santiago Atitlán	14	Cerro de Oro	8	Agosto	2023-08-22T00:00:00	2024-11-08T01:00:00	4	Temperatura máxima	20
167955	7	Sololá	719	Santiago Atitlán	14	Cerro de Oro	8	Agosto	2023-08-22T00:00:00	2024-11-08T01:00:00	3	Temperatura mínima	19.5
167956	7	Sololá	719	Santiago Atitlán	14	Cerro de Oro	8	Agosto	2023-08-22T00:00:00	2024-11-08T01:00:00	5	Humedad	76
167957	7	Sololá	719	Santiago Atitlán	14	Cerro de Oro	8	Agosto	2023-08-22T00:00:00	2024-11-08T01:00:00	6	Velocidad del viento	3.2
167958	7	Sololá	719	Santiago Atitlán	14	Cerro de Oro	8	Agosto	2023-08-22T00:00:00	2024-11-08T01:00:00	7	Dirección del viento	3.22
167959	7	Sololá	719	Santiago Atitlán	14	Cerro de Oro	8	Agosto	2023-08-22T00:00:00	2024-11-08T01:00:00	1	Precipitación	0
167960	7	Sololá	719	Santiago Atitlán	14	Cerro de Oro	8	Agosto	2023-08-22T00:00:00	2024-11-08T01:00:00	8	Radiación solar	0
167961	7	Sololá	719	Santiago Atitlán	14	Cerro de Oro	8	Agosto	2023-08-22T00:00:00	2024-11-08T02:00:00	2	Temperatura media	19.9
167962	7	Sololá	719	Santiago Atitlán	14	Cerro de Oro	8	Agosto	2023-08-22T00:00:00	2024-11-08T02:00:00	4	Temperatura máxima	20.1
167963	7	Sololá	719	Santiago Atitlán	14	Cerro de Oro	8	Agosto	2023-08-22T00:00:00	2024-11-08T02:00:00	3	Temperatura mínima	19.9
167964	7	Sololá	719	Santiago Atitlán	14	Cerro de Oro	8	Agosto	2023-08-22T00:00:00	2024-11-08T02:00:00	5	Humedad	76
167965	7	Sololá	719	Santiago Atitlán	14	Cerro de Oro	8	Agosto	2023-08-22T00:00:00	2024-11-08T02:00:00	6	Velocidad del viento	3.2
167966	7	Sololá	719	Santiago Atitlán	14	Cerro de Oro	8	Agosto	2023-08-22T00:00:00	2024-11-08T02:00:00	7	Dirección del viento	3.22
167967	7	Sololá	719	Santiago Atitlán	14	Cerro de Oro	8	Agosto	2023-08-22T00:00:00	2024-11-08T02:00:00	1	Precipitación	0
167968	7	Sololá	719	Santiago Atitlán	14	Cerro de Oro	8	Agosto	2023-08-22T00:00:00	2024-11-08T02:00:00	8	Radiación solar	0
167969	7	Sololá	719	Santiago Atitlán	14	Cerro de Oro	8	Agosto	2023-08-22T00:00:00	2024-11-08T03:00:00	2	Temperatura media	19.3
167970	7	Sololá	719	Santiago Atitlán	14	Cerro de Oro	8	Agosto	2023-08-22T00:00:00	2024-11-08T03:00:00	4	Temperatura máxima	19.9
167971	7	Sololá	719	Santiago Atitlán	14	Cerro de Oro	8	Agosto	2023-08-22T00:00:00	2024-11-08T03:00:00	3	Temperatura mínima	19.3
167972	7	Sololá	719	Santiago Atitlán	14	Cerro de Oro	8	Agosto	2023-08-22T00:00:00	2024-11-08T03:00:00	5	Humedad	76
167973	7	Sololá	719	Santiago Atitlán	14	Cerro de Oro	8	Agosto	2023-08-22T00:00:00	2024-11-08T03:00:00	6	Velocidad del viento	1.6
167974	7	Sololá	719	Santiago Atitlán	14	Cerro de Oro	8	Agosto	2023-08-22T00:00:00	2024-11-08T03:00:00	7	Dirección del viento	1.61
167975	7	Sololá	719	Santiago Atitlán	14	Cerro de Oro	8	Agosto	2023-08-22T00:00:00	2024-11-08T03:00:00	1	Precipitación	0
167976	7	Sololá	719	Santiago Atitlán	14	Cerro de Oro	8	Agosto	2023-08-22T00:00:00	2024-11-08T03:00:00	8	Radiación solar	0
167977	7	Sololá	719	Santiago Atitlán	14	Cerro de Oro	8	Agosto	2023-08-22T00:00:00	2024-11-08T04:00:00	2	Temperatura media	19.8
167978	7	Sololá	719	Santiago Atitlán	14	Cerro de Oro	8	Agosto	2023-08-22T00:00:00	2024-11-08T04:00:00	4	Temperatura máxima	19.9
167979	7	Sololá	719	Santiago Atitlán	14	Cerro de Oro	8	Agosto	2023-08-22T00:00:00	2024-11-08T04:00:00	3	Temperatura mínima	19.1
167980	7	Sololá	719	Santiago Atitlán	14	Cerro de Oro	8	Agosto	2023-08-22T00:00:00	2024-11-08T04:00:00	5	Humedad	70
167981	7	Sololá	719	Santiago Atitlán	14	Cerro de Oro	8	Agosto	2023-08-22T00:00:00	2024-11-08T04:00:00	6	Velocidad del viento	6.4
167982	7	Sololá	719	Santiago Atitlán	14	Cerro de Oro	8	Agosto	2023-08-22T00:00:00	2024-11-08T04:00:00	7	Dirección del viento	6.44
167983	7	Sololá	719	Santiago Atitlán	14	Cerro de Oro	8	Agosto	2023-08-22T00:00:00	2024-11-08T04:00:00	1	Precipitación	0
167984	7	Sololá	719	Santiago Atitlán	14	Cerro de Oro	8	Agosto	2023-08-22T00:00:00	2024-11-08T04:00:00	8	Radiación solar	0
167985	7	Sololá	719	Santiago Atitlán	14	Cerro de Oro	8	Agosto	2023-08-22T00:00:00	2024-11-08T05:00:00	2	Temperatura media	18.6
167986	7	Sololá	719	Santiago Atitlán	14	Cerro de Oro	8	Agosto	2023-08-22T00:00:00	2024-11-08T05:00:00	4	Temperatura máxima	20.1
167987	7	Sololá	719	Santiago Atitlán	14	Cerro de Oro	8	Agosto	2023-08-22T00:00:00	2024-11-08T05:00:00	3	Temperatura mínima	18.5
167988	7	Sololá	719	Santiago Atitlán	14	Cerro de Oro	8	Agosto	2023-08-22T00:00:00	2024-11-08T05:00:00	5	Humedad	75
167989	7	Sololá	719	Santiago Atitlán	14	Cerro de Oro	8	Agosto	2023-08-22T00:00:00	2024-11-08T05:00:00	6	Velocidad del viento	4.8
167990	7	Sololá	719	Santiago Atitlán	14	Cerro de Oro	8	Agosto	2023-08-22T00:00:00	2024-11-08T05:00:00	7	Dirección del viento	4.83
167991	7	Sololá	719	Santiago Atitlán	14	Cerro de Oro	8	Agosto	2023-08-22T00:00:00	2024-11-08T05:00:00	1	Precipitación	0
167992	7	Sololá	719	Santiago Atitlán	14	Cerro de Oro	8	Agosto	2023-08-22T00:00:00	2024-11-08T05:00:00	8	Radiación solar	0
167993	7	Sololá	719	Santiago Atitlán	14	Cerro de Oro	8	Agosto	2023-08-22T00:00:00	2024-11-08T06:00:00	2	Temperatura media	18.2
167994	7	Sololá	719	Santiago Atitlán	14	Cerro de Oro	8	Agosto	2023-08-22T00:00:00	2024-11-08T06:00:00	4	Temperatura máxima	18.9
167995	7	Sololá	719	Santiago Atitlán	14	Cerro de Oro	8	Agosto	2023-08-22T00:00:00	2024-11-08T06:00:00	3	Temperatura mínima	18.2
167996	7	Sololá	719	Santiago Atitlán	14	Cerro de Oro	8	Agosto	2023-08-22T00:00:00	2024-11-08T06:00:00	5	Humedad	76
167997	7	Sololá	719	Santiago Atitlán	14	Cerro de Oro	8	Agosto	2023-08-22T00:00:00	2024-11-08T06:00:00	6	Velocidad del viento	4.8
167998	7	Sololá	719	Santiago Atitlán	14	Cerro de Oro	8	Agosto	2023-08-22T00:00:00	2024-11-08T06:00:00	7	Dirección del viento	4.83
167999	7	Sololá	719	Santiago Atitlán	14	Cerro de Oro	8	Agosto	2023-08-22T00:00:00	2024-11-08T06:00:00	1	Precipitación	0
168000	7	Sololá	719	Santiago Atitlán	14	Cerro de Oro	8	Agosto	2023-08-22T00:00:00	2024-11-08T06:00:00	8	Radiación solar	1
168001	7	Sololá	719	Santiago Atitlán	14	Cerro de Oro	8	Agosto	2023-08-22T00:00:00	2024-11-08T07:00:00	2	Temperatura media	20.3
168002	7	Sololá	719	Santiago Atitlán	14	Cerro de Oro	8	Agosto	2023-08-22T00:00:00	2024-11-08T07:00:00	4	Temperatura máxima	20.3
168003	7	Sololá	719	Santiago Atitlán	14	Cerro de Oro	8	Agosto	2023-08-22T00:00:00	2024-11-08T07:00:00	3	Temperatura mínima	18.1
168004	7	Sololá	719	Santiago Atitlán	14	Cerro de Oro	8	Agosto	2023-08-22T00:00:00	2024-11-08T07:00:00	5	Humedad	72
168005	7	Sololá	719	Santiago Atitlán	14	Cerro de Oro	8	Agosto	2023-08-22T00:00:00	2024-11-08T07:00:00	6	Velocidad del viento	3.2
168006	7	Sololá	719	Santiago Atitlán	14	Cerro de Oro	8	Agosto	2023-08-22T00:00:00	2024-11-08T07:00:00	7	Dirección del viento	3.22
168007	7	Sololá	719	Santiago Atitlán	14	Cerro de Oro	8	Agosto	2023-08-22T00:00:00	2024-11-08T07:00:00	1	Precipitación	0
168008	7	Sololá	719	Santiago Atitlán	14	Cerro de Oro	8	Agosto	2023-08-22T00:00:00	2024-11-08T07:00:00	8	Radiación solar	82
168009	7	Sololá	719	Santiago Atitlán	14	Cerro de Oro	8	Agosto	2023-08-22T00:00:00	2024-11-08T08:00:00	2	Temperatura media	22
168010	7	Sololá	719	Santiago Atitlán	14	Cerro de Oro	8	Agosto	2023-08-22T00:00:00	2024-11-08T08:00:00	4	Temperatura máxima	22.1
168011	7	Sololá	719	Santiago Atitlán	14	Cerro de Oro	8	Agosto	2023-08-22T00:00:00	2024-11-08T08:00:00	3	Temperatura mínima	20.3
168012	7	Sololá	719	Santiago Atitlán	14	Cerro de Oro	8	Agosto	2023-08-22T00:00:00	2024-11-08T08:00:00	5	Humedad	64
168013	7	Sololá	719	Santiago Atitlán	14	Cerro de Oro	8	Agosto	2023-08-22T00:00:00	2024-11-08T08:00:00	6	Velocidad del viento	1.6
168014	7	Sololá	719	Santiago Atitlán	14	Cerro de Oro	8	Agosto	2023-08-22T00:00:00	2024-11-08T08:00:00	7	Dirección del viento	1.61
168015	7	Sololá	719	Santiago Atitlán	14	Cerro de Oro	8	Agosto	2023-08-22T00:00:00	2024-11-08T08:00:00	1	Precipitación	0
168016	7	Sololá	719	Santiago Atitlán	14	Cerro de Oro	8	Agosto	2023-08-22T00:00:00	2024-11-08T08:00:00	8	Radiación solar	237
168017	7	Sololá	719	Santiago Atitlán	14	Cerro de Oro	8	Agosto	2023-08-22T00:00:00	2024-11-08T09:00:00	2	Temperatura media	22.2
168018	7	Sololá	719	Santiago Atitlán	14	Cerro de Oro	8	Agosto	2023-08-22T00:00:00	2024-11-08T09:00:00	4	Temperatura máxima	22.8
168019	7	Sololá	719	Santiago Atitlán	14	Cerro de Oro	8	Agosto	2023-08-22T00:00:00	2024-11-08T09:00:00	3	Temperatura mínima	22
168020	7	Sololá	719	Santiago Atitlán	14	Cerro de Oro	8	Agosto	2023-08-22T00:00:00	2024-11-08T09:00:00	5	Humedad	62
168021	7	Sololá	719	Santiago Atitlán	14	Cerro de Oro	8	Agosto	2023-08-22T00:00:00	2024-11-08T09:00:00	6	Velocidad del viento	1.6
168022	7	Sololá	719	Santiago Atitlán	14	Cerro de Oro	8	Agosto	2023-08-22T00:00:00	2024-11-08T09:00:00	7	Dirección del viento	1.61
168023	7	Sololá	719	Santiago Atitlán	14	Cerro de Oro	8	Agosto	2023-08-22T00:00:00	2024-11-08T09:00:00	1	Precipitación	0
168024	7	Sololá	719	Santiago Atitlán	14	Cerro de Oro	8	Agosto	2023-08-22T00:00:00	2024-11-08T09:00:00	8	Radiación solar	264
168025	7	Sololá	719	Santiago Atitlán	14	Cerro de Oro	8	Agosto	2023-08-22T00:00:00	2024-11-08T10:00:00	2	Temperatura media	23.9
168026	7	Sololá	719	Santiago Atitlán	14	Cerro de Oro	8	Agosto	2023-08-22T00:00:00	2024-11-08T10:00:00	4	Temperatura máxima	23.9
168027	7	Sololá	719	Santiago Atitlán	14	Cerro de Oro	8	Agosto	2023-08-22T00:00:00	2024-11-08T10:00:00	3	Temperatura mínima	22.2
168028	7	Sololá	719	Santiago Atitlán	14	Cerro de Oro	8	Agosto	2023-08-22T00:00:00	2024-11-08T10:00:00	5	Humedad	63
168029	7	Sololá	719	Santiago Atitlán	14	Cerro de Oro	8	Agosto	2023-08-22T00:00:00	2024-11-08T10:00:00	6	Velocidad del viento	3.2
168030	7	Sololá	719	Santiago Atitlán	14	Cerro de Oro	8	Agosto	2023-08-22T00:00:00	2024-11-08T10:00:00	7	Dirección del viento	3.22
168031	7	Sololá	719	Santiago Atitlán	14	Cerro de Oro	8	Agosto	2023-08-22T00:00:00	2024-11-08T10:00:00	1	Precipitación	0
168032	7	Sololá	719	Santiago Atitlán	14	Cerro de Oro	8	Agosto	2023-08-22T00:00:00	2024-11-08T10:00:00	8	Radiación solar	388
168033	7	Sololá	719	Santiago Atitlán	14	Cerro de Oro	8	Agosto	2023-08-22T00:00:00	2024-11-08T11:00:00	2	Temperatura media	23.4
168034	7	Sololá	719	Santiago Atitlán	14	Cerro de Oro	8	Agosto	2023-08-22T00:00:00	2024-11-08T11:00:00	4	Temperatura máxima	24.9
168035	7	Sololá	719	Santiago Atitlán	14	Cerro de Oro	8	Agosto	2023-08-22T00:00:00	2024-11-08T11:00:00	3	Temperatura mínima	23.2
168036	7	Sololá	719	Santiago Atitlán	14	Cerro de Oro	8	Agosto	2023-08-22T00:00:00	2024-11-08T11:00:00	5	Humedad	72
168037	7	Sololá	719	Santiago Atitlán	14	Cerro de Oro	8	Agosto	2023-08-22T00:00:00	2024-11-08T11:00:00	6	Velocidad del viento	11.3
168038	7	Sololá	719	Santiago Atitlán	14	Cerro de Oro	8	Agosto	2023-08-22T00:00:00	2024-11-08T11:00:00	7	Dirección del viento	11.27
168039	7	Sololá	719	Santiago Atitlán	14	Cerro de Oro	8	Agosto	2023-08-22T00:00:00	2024-11-08T11:00:00	1	Precipitación	0
168040	7	Sololá	719	Santiago Atitlán	14	Cerro de Oro	8	Agosto	2023-08-22T00:00:00	2024-11-08T11:00:00	8	Radiación solar	829
168041	7	Sololá	719	Santiago Atitlán	14	Cerro de Oro	8	Agosto	2023-08-22T00:00:00	2024-11-08T12:00:00	2	Temperatura media	24.3
168042	7	Sololá	719	Santiago Atitlán	14	Cerro de Oro	8	Agosto	2023-08-22T00:00:00	2024-11-08T12:00:00	4	Temperatura máxima	25.7
168043	7	Sololá	719	Santiago Atitlán	14	Cerro de Oro	8	Agosto	2023-08-22T00:00:00	2024-11-08T12:00:00	3	Temperatura mínima	23.4
168044	7	Sololá	719	Santiago Atitlán	14	Cerro de Oro	8	Agosto	2023-08-22T00:00:00	2024-11-08T12:00:00	5	Humedad	71
168045	7	Sololá	719	Santiago Atitlán	14	Cerro de Oro	8	Agosto	2023-08-22T00:00:00	2024-11-08T12:00:00	6	Velocidad del viento	9.7
168046	7	Sololá	719	Santiago Atitlán	14	Cerro de Oro	8	Agosto	2023-08-22T00:00:00	2024-11-08T12:00:00	7	Dirección del viento	9.66
168047	7	Sololá	719	Santiago Atitlán	14	Cerro de Oro	8	Agosto	2023-08-22T00:00:00	2024-11-08T12:00:00	1	Precipitación	0
168048	7	Sololá	719	Santiago Atitlán	14	Cerro de Oro	8	Agosto	2023-08-22T00:00:00	2024-11-08T12:00:00	8	Radiación solar	868
168049	7	Sololá	719	Santiago Atitlán	14	Cerro de Oro	8	Agosto	2023-08-22T00:00:00	2024-11-08T13:00:00	2	Temperatura media	25.3
168050	7	Sololá	719	Santiago Atitlán	14	Cerro de Oro	8	Agosto	2023-08-22T00:00:00	2024-11-08T13:00:00	4	Temperatura máxima	25.3
168051	7	Sololá	719	Santiago Atitlán	14	Cerro de Oro	8	Agosto	2023-08-22T00:00:00	2024-11-08T13:00:00	3	Temperatura mínima	23.6
168052	7	Sololá	719	Santiago Atitlán	14	Cerro de Oro	8	Agosto	2023-08-22T00:00:00	2024-11-08T13:00:00	5	Humedad	64
168053	7	Sololá	719	Santiago Atitlán	14	Cerro de Oro	8	Agosto	2023-08-22T00:00:00	2024-11-08T13:00:00	6	Velocidad del viento	12.9
168054	7	Sololá	719	Santiago Atitlán	14	Cerro de Oro	8	Agosto	2023-08-22T00:00:00	2024-11-08T13:00:00	7	Dirección del viento	12.87
168055	7	Sololá	719	Santiago Atitlán	14	Cerro de Oro	8	Agosto	2023-08-22T00:00:00	2024-11-08T13:00:00	1	Precipitación	0
168056	7	Sololá	719	Santiago Atitlán	14	Cerro de Oro	8	Agosto	2023-08-22T00:00:00	2024-11-08T13:00:00	8	Radiación solar	880
168057	7	Sololá	719	Santiago Atitlán	14	Cerro de Oro	8	Agosto	2023-08-22T00:00:00	2024-11-08T14:00:00	2	Temperatura media	24.9
168058	7	Sololá	719	Santiago Atitlán	14	Cerro de Oro	8	Agosto	2023-08-22T00:00:00	2024-11-08T14:00:00	4	Temperatura máxima	25.4
168059	7	Sololá	719	Santiago Atitlán	14	Cerro de Oro	8	Agosto	2023-08-22T00:00:00	2024-11-08T14:00:00	3	Temperatura mínima	24.6
168060	7	Sololá	719	Santiago Atitlán	14	Cerro de Oro	8	Agosto	2023-08-22T00:00:00	2024-11-08T14:00:00	5	Humedad	67
168061	7	Sololá	719	Santiago Atitlán	14	Cerro de Oro	8	Agosto	2023-08-22T00:00:00	2024-11-08T14:00:00	6	Velocidad del viento	12.9
168062	7	Sololá	719	Santiago Atitlán	14	Cerro de Oro	8	Agosto	2023-08-22T00:00:00	2024-11-08T14:00:00	7	Dirección del viento	12.87
168063	7	Sololá	719	Santiago Atitlán	14	Cerro de Oro	8	Agosto	2023-08-22T00:00:00	2024-11-08T14:00:00	1	Precipitación	0
168064	7	Sololá	719	Santiago Atitlán	14	Cerro de Oro	8	Agosto	2023-08-22T00:00:00	2024-11-08T14:00:00	8	Radiación solar	822
168065	7	Sololá	719	Santiago Atitlán	14	Cerro de Oro	8	Agosto	2023-08-22T00:00:00	2024-11-08T15:00:00	2	Temperatura media	24.4
168066	7	Sololá	719	Santiago Atitlán	14	Cerro de Oro	8	Agosto	2023-08-22T00:00:00	2024-11-08T15:00:00	4	Temperatura máxima	25.3
168067	7	Sololá	719	Santiago Atitlán	14	Cerro de Oro	8	Agosto	2023-08-22T00:00:00	2024-11-08T15:00:00	3	Temperatura mínima	24.3
168068	7	Sololá	719	Santiago Atitlán	14	Cerro de Oro	8	Agosto	2023-08-22T00:00:00	2024-11-08T15:00:00	5	Humedad	71
168069	7	Sololá	719	Santiago Atitlán	14	Cerro de Oro	8	Agosto	2023-08-22T00:00:00	2024-11-08T15:00:00	6	Velocidad del viento	9.7
168070	7	Sololá	719	Santiago Atitlán	14	Cerro de Oro	8	Agosto	2023-08-22T00:00:00	2024-11-08T15:00:00	7	Dirección del viento	9.66
168071	7	Sololá	719	Santiago Atitlán	14	Cerro de Oro	8	Agosto	2023-08-22T00:00:00	2024-11-08T15:00:00	1	Precipitación	0
168072	7	Sololá	719	Santiago Atitlán	14	Cerro de Oro	8	Agosto	2023-08-22T00:00:00	2024-11-08T15:00:00	8	Radiación solar	540
168073	7	Sololá	719	Santiago Atitlán	14	Cerro de Oro	8	Agosto	2023-08-22T00:00:00	2024-11-08T16:00:00	2	Temperatura media	22.7
168074	7	Sololá	719	Santiago Atitlán	14	Cerro de Oro	8	Agosto	2023-08-22T00:00:00	2024-11-08T16:00:00	4	Temperatura máxima	24.4
168075	7	Sololá	719	Santiago Atitlán	14	Cerro de Oro	8	Agosto	2023-08-22T00:00:00	2024-11-08T16:00:00	3	Temperatura mínima	22.7
168076	7	Sololá	719	Santiago Atitlán	14	Cerro de Oro	8	Agosto	2023-08-22T00:00:00	2024-11-08T16:00:00	5	Humedad	77
168077	7	Sololá	719	Santiago Atitlán	14	Cerro de Oro	8	Agosto	2023-08-22T00:00:00	2024-11-08T16:00:00	6	Velocidad del viento	9.7
168078	7	Sololá	719	Santiago Atitlán	14	Cerro de Oro	8	Agosto	2023-08-22T00:00:00	2024-11-08T16:00:00	7	Dirección del viento	9.66
168079	7	Sololá	719	Santiago Atitlán	14	Cerro de Oro	8	Agosto	2023-08-22T00:00:00	2024-11-08T16:00:00	1	Precipitación	0
168080	7	Sololá	719	Santiago Atitlán	14	Cerro de Oro	8	Agosto	2023-08-22T00:00:00	2024-11-08T16:00:00	8	Radiación solar	305
168081	7	Sololá	719	Santiago Atitlán	14	Cerro de Oro	8	Agosto	2023-08-22T00:00:00	2024-11-08T17:00:00	2	Temperatura media	22.1
168082	7	Sololá	719	Santiago Atitlán	14	Cerro de Oro	8	Agosto	2023-08-22T00:00:00	2024-11-08T17:00:00	4	Temperatura máxima	23.1
168083	7	Sololá	719	Santiago Atitlán	14	Cerro de Oro	8	Agosto	2023-08-22T00:00:00	2024-11-08T17:00:00	3	Temperatura mínima	22.1
168084	7	Sololá	719	Santiago Atitlán	14	Cerro de Oro	8	Agosto	2023-08-22T00:00:00	2024-11-08T17:00:00	5	Humedad	78
168085	7	Sololá	719	Santiago Atitlán	14	Cerro de Oro	8	Agosto	2023-08-22T00:00:00	2024-11-08T17:00:00	6	Velocidad del viento	11.3
168086	7	Sololá	719	Santiago Atitlán	14	Cerro de Oro	8	Agosto	2023-08-22T00:00:00	2024-11-08T17:00:00	7	Dirección del viento	11.27
168087	7	Sololá	719	Santiago Atitlán	14	Cerro de Oro	8	Agosto	2023-08-22T00:00:00	2024-11-08T17:00:00	1	Precipitación	0
168088	7	Sololá	719	Santiago Atitlán	14	Cerro de Oro	8	Agosto	2023-08-22T00:00:00	2024-11-08T17:00:00	8	Radiación solar	188
168089	7	Sololá	719	Santiago Atitlán	14	Cerro de Oro	8	Agosto	2023-08-22T00:00:00	2024-11-08T18:00:00	2	Temperatura media	22.3
168090	7	Sololá	719	Santiago Atitlán	14	Cerro de Oro	8	Agosto	2023-08-22T00:00:00	2024-11-08T18:00:00	4	Temperatura máxima	22.3
168091	7	Sololá	719	Santiago Atitlán	14	Cerro de Oro	8	Agosto	2023-08-22T00:00:00	2024-11-08T18:00:00	3	Temperatura mínima	21.7
168092	7	Sololá	719	Santiago Atitlán	14	Cerro de Oro	8	Agosto	2023-08-22T00:00:00	2024-11-08T18:00:00	5	Humedad	70
168093	7	Sololá	719	Santiago Atitlán	14	Cerro de Oro	8	Agosto	2023-08-22T00:00:00	2024-11-08T18:00:00	6	Velocidad del viento	8
168094	7	Sololá	719	Santiago Atitlán	14	Cerro de Oro	8	Agosto	2023-08-22T00:00:00	2024-11-08T18:00:00	7	Dirección del viento	8.05
168095	7	Sololá	719	Santiago Atitlán	14	Cerro de Oro	8	Agosto	2023-08-22T00:00:00	2024-11-08T18:00:00	1	Precipitación	0
168096	7	Sololá	719	Santiago Atitlán	14	Cerro de Oro	8	Agosto	2023-08-22T00:00:00	2024-11-08T18:00:00	8	Radiación solar	88
168097	7	Sololá	719	Santiago Atitlán	14	Cerro de Oro	8	Agosto	2023-08-22T00:00:00	2024-11-08T19:00:00	2	Temperatura media	21.2
168098	7	Sololá	719	Santiago Atitlán	14	Cerro de Oro	8	Agosto	2023-08-22T00:00:00	2024-11-08T19:00:00	4	Temperatura máxima	22.3
168099	7	Sololá	719	Santiago Atitlán	14	Cerro de Oro	8	Agosto	2023-08-22T00:00:00	2024-11-08T19:00:00	3	Temperatura mínima	21.1
168100	7	Sololá	719	Santiago Atitlán	14	Cerro de Oro	8	Agosto	2023-08-22T00:00:00	2024-11-08T19:00:00	5	Humedad	72
168101	7	Sololá	719	Santiago Atitlán	14	Cerro de Oro	8	Agosto	2023-08-22T00:00:00	2024-11-08T19:00:00	6	Velocidad del viento	8
168102	7	Sololá	719	Santiago Atitlán	14	Cerro de Oro	8	Agosto	2023-08-22T00:00:00	2024-11-08T19:00:00	7	Dirección del viento	8.05
168103	7	Sololá	719	Santiago Atitlán	14	Cerro de Oro	8	Agosto	2023-08-22T00:00:00	2024-11-08T19:00:00	1	Precipitación	0
168104	7	Sololá	719	Santiago Atitlán	14	Cerro de Oro	8	Agosto	2023-08-22T00:00:00	2024-11-08T19:00:00	8	Radiación solar	0
168105	7	Sololá	719	Santiago Atitlán	14	Cerro de Oro	8	Agosto	2023-08-22T00:00:00	2024-11-08T20:00:00	2	Temperatura media	21.6
168106	7	Sololá	719	Santiago Atitlán	14	Cerro de Oro	8	Agosto	2023-08-22T00:00:00	2024-11-08T20:00:00	4	Temperatura máxima	21.6
168107	7	Sololá	719	Santiago Atitlán	14	Cerro de Oro	8	Agosto	2023-08-22T00:00:00	2024-11-08T20:00:00	3	Temperatura mínima	21.1
168108	7	Sololá	719	Santiago Atitlán	14	Cerro de Oro	8	Agosto	2023-08-22T00:00:00	2024-11-08T20:00:00	5	Humedad	72
168109	7	Sololá	719	Santiago Atitlán	14	Cerro de Oro	8	Agosto	2023-08-22T00:00:00	2024-11-08T20:00:00	6	Velocidad del viento	8
168110	7	Sololá	719	Santiago Atitlán	14	Cerro de Oro	8	Agosto	2023-08-22T00:00:00	2024-11-08T20:00:00	7	Dirección del viento	8.05
168111	7	Sololá	719	Santiago Atitlán	14	Cerro de Oro	8	Agosto	2023-08-22T00:00:00	2024-11-08T20:00:00	1	Precipitación	0
168112	7	Sololá	719	Santiago Atitlán	14	Cerro de Oro	8	Agosto	2023-08-22T00:00:00	2024-11-08T20:00:00	8	Radiación solar	0
168113	7	Sololá	719	Santiago Atitlán	14	Cerro de Oro	8	Agosto	2023-08-22T00:00:00	2024-11-08T21:00:00	2	Temperatura media	20.8
168114	7	Sololá	719	Santiago Atitlán	14	Cerro de Oro	8	Agosto	2023-08-22T00:00:00	2024-11-08T21:00:00	4	Temperatura máxima	21.6
168115	7	Sololá	719	Santiago Atitlán	14	Cerro de Oro	8	Agosto	2023-08-22T00:00:00	2024-11-08T21:00:00	3	Temperatura mínima	20.8
168116	7	Sololá	719	Santiago Atitlán	14	Cerro de Oro	8	Agosto	2023-08-22T00:00:00	2024-11-08T21:00:00	5	Humedad	73
168117	7	Sololá	719	Santiago Atitlán	14	Cerro de Oro	8	Agosto	2023-08-22T00:00:00	2024-11-08T21:00:00	6	Velocidad del viento	3.2
168118	7	Sololá	719	Santiago Atitlán	14	Cerro de Oro	8	Agosto	2023-08-22T00:00:00	2024-11-08T21:00:00	7	Dirección del viento	3.22
168119	7	Sololá	719	Santiago Atitlán	14	Cerro de Oro	8	Agosto	2023-08-22T00:00:00	2024-11-08T21:00:00	1	Precipitación	0
168120	7	Sololá	719	Santiago Atitlán	14	Cerro de Oro	8	Agosto	2023-08-22T00:00:00	2024-11-08T21:00:00	8	Radiación solar	0
168121	7	Sololá	719	Santiago Atitlán	14	Cerro de Oro	8	Agosto	2023-08-22T00:00:00	2024-11-08T22:00:00	2	Temperatura media	21.1
168122	7	Sololá	719	Santiago Atitlán	14	Cerro de Oro	8	Agosto	2023-08-22T00:00:00	2024-11-08T22:00:00	4	Temperatura máxima	21.1
168123	7	Sololá	719	Santiago Atitlán	14	Cerro de Oro	8	Agosto	2023-08-22T00:00:00	2024-11-08T22:00:00	3	Temperatura mínima	20.1
168124	7	Sololá	719	Santiago Atitlán	14	Cerro de Oro	8	Agosto	2023-08-22T00:00:00	2024-11-08T22:00:00	5	Humedad	68
168125	7	Sololá	719	Santiago Atitlán	14	Cerro de Oro	8	Agosto	2023-08-22T00:00:00	2024-11-08T22:00:00	6	Velocidad del viento	4.8
168126	7	Sololá	719	Santiago Atitlán	14	Cerro de Oro	8	Agosto	2023-08-22T00:00:00	2024-11-08T22:00:00	7	Dirección del viento	4.83
168127	7	Sololá	719	Santiago Atitlán	14	Cerro de Oro	8	Agosto	2023-08-22T00:00:00	2024-11-08T22:00:00	1	Precipitación	0
168128	7	Sololá	719	Santiago Atitlán	14	Cerro de Oro	8	Agosto	2023-08-22T00:00:00	2024-11-08T22:00:00	8	Radiación solar	0
168129	7	Sololá	719	Santiago Atitlán	14	Cerro de Oro	8	Agosto	2023-08-22T00:00:00	2024-11-08T23:00:00	2	Temperatura media	20.4
168130	7	Sololá	719	Santiago Atitlán	14	Cerro de Oro	8	Agosto	2023-08-22T00:00:00	2024-11-08T23:00:00	4	Temperatura máxima	21.2
168131	7	Sololá	719	Santiago Atitlán	14	Cerro de Oro	8	Agosto	2023-08-22T00:00:00	2024-11-08T23:00:00	3	Temperatura mínima	20.3
168132	7	Sololá	719	Santiago Atitlán	14	Cerro de Oro	8	Agosto	2023-08-22T00:00:00	2024-11-08T23:00:00	5	Humedad	72
168133	7	Sololá	719	Santiago Atitlán	14	Cerro de Oro	8	Agosto	2023-08-22T00:00:00	2024-11-08T23:00:00	6	Velocidad del viento	4.8
168134	7	Sololá	719	Santiago Atitlán	14	Cerro de Oro	8	Agosto	2023-08-22T00:00:00	2024-11-08T23:00:00	7	Dirección del viento	4.83
168135	7	Sololá	719	Santiago Atitlán	14	Cerro de Oro	8	Agosto	2023-08-22T00:00:00	2024-11-08T23:00:00	1	Precipitación	0
168136	7	Sololá	719	Santiago Atitlán	14	Cerro de Oro	8	Agosto	2023-08-22T00:00:00	2024-11-08T23:00:00	8	Radiación solar	0
168137	7	Sololá	719	Santiago Atitlán	14	Cerro de Oro	8	Agosto	2023-08-23T00:00:00	2024-11-08T00:00:00	2	Temperatura media	19.3
168138	7	Sololá	719	Santiago Atitlán	14	Cerro de Oro	8	Agosto	2023-08-23T00:00:00	2024-11-08T00:00:00	4	Temperatura máxima	20.4
168139	7	Sololá	719	Santiago Atitlán	14	Cerro de Oro	8	Agosto	2023-08-23T00:00:00	2024-11-08T00:00:00	3	Temperatura mínima	19
168140	7	Sololá	719	Santiago Atitlán	14	Cerro de Oro	8	Agosto	2023-08-23T00:00:00	2024-11-08T00:00:00	5	Humedad	75
168141	7	Sololá	719	Santiago Atitlán	14	Cerro de Oro	8	Agosto	2023-08-23T00:00:00	2024-11-08T00:00:00	6	Velocidad del viento	3.2
168142	7	Sololá	719	Santiago Atitlán	14	Cerro de Oro	8	Agosto	2023-08-23T00:00:00	2024-11-08T00:00:00	7	Dirección del viento	3.22
168143	7	Sololá	719	Santiago Atitlán	14	Cerro de Oro	8	Agosto	2023-08-23T00:00:00	2024-11-08T00:00:00	1	Precipitación	0
168144	7	Sololá	719	Santiago Atitlán	14	Cerro de Oro	8	Agosto	2023-08-23T00:00:00	2024-11-08T00:00:00	8	Radiación solar	0
168145	7	Sololá	719	Santiago Atitlán	14	Cerro de Oro	8	Agosto	2023-08-23T00:00:00	2024-11-08T01:00:00	2	Temperatura media	19.3
168146	7	Sololá	719	Santiago Atitlán	14	Cerro de Oro	8	Agosto	2023-08-23T00:00:00	2024-11-08T01:00:00	4	Temperatura máxima	19.5
168147	7	Sololá	719	Santiago Atitlán	14	Cerro de Oro	8	Agosto	2023-08-23T00:00:00	2024-11-08T01:00:00	3	Temperatura mínima	18.7
168148	7	Sololá	719	Santiago Atitlán	14	Cerro de Oro	8	Agosto	2023-08-23T00:00:00	2024-11-08T01:00:00	5	Humedad	73
168149	7	Sololá	719	Santiago Atitlán	14	Cerro de Oro	8	Agosto	2023-08-23T00:00:00	2024-11-08T01:00:00	6	Velocidad del viento	3.2
168150	7	Sololá	719	Santiago Atitlán	14	Cerro de Oro	8	Agosto	2023-08-23T00:00:00	2024-11-08T01:00:00	7	Dirección del viento	3.22
168151	7	Sololá	719	Santiago Atitlán	14	Cerro de Oro	8	Agosto	2023-08-23T00:00:00	2024-11-08T01:00:00	1	Precipitación	0
168152	7	Sololá	719	Santiago Atitlán	14	Cerro de Oro	8	Agosto	2023-08-23T00:00:00	2024-11-08T01:00:00	8	Radiación solar	0
168153	7	Sololá	719	Santiago Atitlán	14	Cerro de Oro	8	Agosto	2023-08-23T00:00:00	2024-11-08T02:00:00	2	Temperatura media	19.3
168154	7	Sololá	719	Santiago Atitlán	14	Cerro de Oro	8	Agosto	2023-08-23T00:00:00	2024-11-08T02:00:00	4	Temperatura máxima	19.5
168155	7	Sololá	719	Santiago Atitlán	14	Cerro de Oro	8	Agosto	2023-08-23T00:00:00	2024-11-08T02:00:00	3	Temperatura mínima	18.4
168156	7	Sololá	719	Santiago Atitlán	14	Cerro de Oro	8	Agosto	2023-08-23T00:00:00	2024-11-08T02:00:00	5	Humedad	70
168157	7	Sololá	719	Santiago Atitlán	14	Cerro de Oro	8	Agosto	2023-08-23T00:00:00	2024-11-08T02:00:00	6	Velocidad del viento	3.2
168158	7	Sololá	719	Santiago Atitlán	14	Cerro de Oro	8	Agosto	2023-08-23T00:00:00	2024-11-08T02:00:00	7	Dirección del viento	3.22
168159	7	Sololá	719	Santiago Atitlán	14	Cerro de Oro	8	Agosto	2023-08-23T00:00:00	2024-11-08T02:00:00	1	Precipitación	0
168160	7	Sololá	719	Santiago Atitlán	14	Cerro de Oro	8	Agosto	2023-08-23T00:00:00	2024-11-08T02:00:00	8	Radiación solar	0
168161	7	Sololá	719	Santiago Atitlán	14	Cerro de Oro	8	Agosto	2023-08-23T00:00:00	2024-11-08T03:00:00	2	Temperatura media	19.3
168162	7	Sololá	719	Santiago Atitlán	14	Cerro de Oro	8	Agosto	2023-08-23T00:00:00	2024-11-08T03:00:00	4	Temperatura máxima	19.5
168163	7	Sololá	719	Santiago Atitlán	14	Cerro de Oro	8	Agosto	2023-08-23T00:00:00	2024-11-08T03:00:00	3	Temperatura mínima	18.7
168164	7	Sololá	719	Santiago Atitlán	14	Cerro de Oro	8	Agosto	2023-08-23T00:00:00	2024-11-08T03:00:00	5	Humedad	70
168165	7	Sololá	719	Santiago Atitlán	14	Cerro de Oro	8	Agosto	2023-08-23T00:00:00	2024-11-08T03:00:00	6	Velocidad del viento	8
168166	7	Sololá	719	Santiago Atitlán	14	Cerro de Oro	8	Agosto	2023-08-23T00:00:00	2024-11-08T03:00:00	7	Dirección del viento	8.05
168167	7	Sololá	719	Santiago Atitlán	14	Cerro de Oro	8	Agosto	2023-08-23T00:00:00	2024-11-08T03:00:00	1	Precipitación	0
168168	7	Sololá	719	Santiago Atitlán	14	Cerro de Oro	8	Agosto	2023-08-23T00:00:00	2024-11-08T03:00:00	8	Radiación solar	0
168169	7	Sololá	719	Santiago Atitlán	14	Cerro de Oro	8	Agosto	2023-08-23T00:00:00	2024-11-08T04:00:00	2	Temperatura media	18.6
168170	7	Sololá	719	Santiago Atitlán	14	Cerro de Oro	8	Agosto	2023-08-23T00:00:00	2024-11-08T04:00:00	4	Temperatura máxima	19.4
168171	7	Sololá	719	Santiago Atitlán	14	Cerro de Oro	8	Agosto	2023-08-23T00:00:00	2024-11-08T04:00:00	3	Temperatura mínima	18.6
168172	7	Sololá	719	Santiago Atitlán	14	Cerro de Oro	8	Agosto	2023-08-23T00:00:00	2024-11-08T04:00:00	5	Humedad	71
168173	7	Sololá	719	Santiago Atitlán	14	Cerro de Oro	8	Agosto	2023-08-23T00:00:00	2024-11-08T04:00:00	6	Velocidad del viento	4.8
168174	7	Sololá	719	Santiago Atitlán	14	Cerro de Oro	8	Agosto	2023-08-23T00:00:00	2024-11-08T04:00:00	7	Dirección del viento	4.83
168175	7	Sololá	719	Santiago Atitlán	14	Cerro de Oro	8	Agosto	2023-08-23T00:00:00	2024-11-08T04:00:00	1	Precipitación	0
168176	7	Sololá	719	Santiago Atitlán	14	Cerro de Oro	8	Agosto	2023-08-23T00:00:00	2024-11-08T04:00:00	8	Radiación solar	0
168177	7	Sololá	719	Santiago Atitlán	14	Cerro de Oro	8	Agosto	2023-08-23T00:00:00	2024-11-08T05:00:00	2	Temperatura media	17.7
168178	7	Sololá	719	Santiago Atitlán	14	Cerro de Oro	8	Agosto	2023-08-23T00:00:00	2024-11-08T05:00:00	4	Temperatura máxima	18.6
168179	7	Sololá	719	Santiago Atitlán	14	Cerro de Oro	8	Agosto	2023-08-23T00:00:00	2024-11-08T05:00:00	3	Temperatura mínima	17.4
168180	7	Sololá	719	Santiago Atitlán	14	Cerro de Oro	8	Agosto	2023-08-23T00:00:00	2024-11-08T05:00:00	5	Humedad	73
168181	7	Sololá	719	Santiago Atitlán	14	Cerro de Oro	8	Agosto	2023-08-23T00:00:00	2024-11-08T05:00:00	6	Velocidad del viento	4.8
168182	7	Sololá	719	Santiago Atitlán	14	Cerro de Oro	8	Agosto	2023-08-23T00:00:00	2024-11-08T05:00:00	7	Dirección del viento	4.83
168183	7	Sololá	719	Santiago Atitlán	14	Cerro de Oro	8	Agosto	2023-08-23T00:00:00	2024-11-08T05:00:00	1	Precipitación	0
168184	7	Sololá	719	Santiago Atitlán	14	Cerro de Oro	8	Agosto	2023-08-23T00:00:00	2024-11-08T05:00:00	8	Radiación solar	0
168185	7	Sololá	719	Santiago Atitlán	14	Cerro de Oro	8	Agosto	2023-08-23T00:00:00	2024-11-08T06:00:00	2	Temperatura media	18.2
168186	7	Sololá	719	Santiago Atitlán	14	Cerro de Oro	8	Agosto	2023-08-23T00:00:00	2024-11-08T06:00:00	4	Temperatura máxima	18.3
168187	7	Sololá	719	Santiago Atitlán	14	Cerro de Oro	8	Agosto	2023-08-23T00:00:00	2024-11-08T06:00:00	3	Temperatura mínima	17.7
168188	7	Sololá	719	Santiago Atitlán	14	Cerro de Oro	8	Agosto	2023-08-23T00:00:00	2024-11-08T06:00:00	5	Humedad	71
168189	7	Sololá	719	Santiago Atitlán	14	Cerro de Oro	8	Agosto	2023-08-23T00:00:00	2024-11-08T06:00:00	6	Velocidad del viento	4.8
168190	7	Sololá	719	Santiago Atitlán	14	Cerro de Oro	8	Agosto	2023-08-23T00:00:00	2024-11-08T06:00:00	7	Dirección del viento	4.83
168191	7	Sololá	719	Santiago Atitlán	14	Cerro de Oro	8	Agosto	2023-08-23T00:00:00	2024-11-08T06:00:00	1	Precipitación	0
168192	7	Sololá	719	Santiago Atitlán	14	Cerro de Oro	8	Agosto	2023-08-23T00:00:00	2024-11-08T06:00:00	8	Radiación solar	0
168193	7	Sololá	719	Santiago Atitlán	14	Cerro de Oro	8	Agosto	2023-08-23T00:00:00	2024-11-08T07:00:00	2	Temperatura media	18.8
168194	7	Sololá	719	Santiago Atitlán	14	Cerro de Oro	8	Agosto	2023-08-23T00:00:00	2024-11-08T07:00:00	4	Temperatura máxima	18.9
168195	7	Sololá	719	Santiago Atitlán	14	Cerro de Oro	8	Agosto	2023-08-23T00:00:00	2024-11-08T07:00:00	3	Temperatura mínima	18
168196	7	Sololá	719	Santiago Atitlán	14	Cerro de Oro	8	Agosto	2023-08-23T00:00:00	2024-11-08T07:00:00	5	Humedad	70
168197	7	Sololá	719	Santiago Atitlán	14	Cerro de Oro	8	Agosto	2023-08-23T00:00:00	2024-11-08T07:00:00	6	Velocidad del viento	3.2
168198	7	Sololá	719	Santiago Atitlán	14	Cerro de Oro	8	Agosto	2023-08-23T00:00:00	2024-11-08T07:00:00	7	Dirección del viento	3.22
168199	7	Sololá	719	Santiago Atitlán	14	Cerro de Oro	8	Agosto	2023-08-23T00:00:00	2024-11-08T07:00:00	1	Precipitación	0
168200	7	Sololá	719	Santiago Atitlán	14	Cerro de Oro	8	Agosto	2023-08-23T00:00:00	2024-11-08T07:00:00	8	Radiación solar	43
168201	7	Sololá	719	Santiago Atitlán	14	Cerro de Oro	8	Agosto	2023-08-23T00:00:00	2024-11-08T08:00:00	2	Temperatura media	21.1
168202	7	Sololá	719	Santiago Atitlán	14	Cerro de Oro	8	Agosto	2023-08-23T00:00:00	2024-11-08T08:00:00	4	Temperatura máxima	21.1
168203	7	Sololá	719	Santiago Atitlán	14	Cerro de Oro	8	Agosto	2023-08-23T00:00:00	2024-11-08T08:00:00	3	Temperatura mínima	18.8
168204	7	Sololá	719	Santiago Atitlán	14	Cerro de Oro	8	Agosto	2023-08-23T00:00:00	2024-11-08T08:00:00	5	Humedad	66
168205	7	Sololá	719	Santiago Atitlán	14	Cerro de Oro	8	Agosto	2023-08-23T00:00:00	2024-11-08T08:00:00	6	Velocidad del viento	1.6
168206	7	Sololá	719	Santiago Atitlán	14	Cerro de Oro	8	Agosto	2023-08-23T00:00:00	2024-11-08T08:00:00	7	Dirección del viento	1.61
168207	7	Sololá	719	Santiago Atitlán	14	Cerro de Oro	8	Agosto	2023-08-23T00:00:00	2024-11-08T08:00:00	1	Precipitación	0
168208	7	Sololá	719	Santiago Atitlán	14	Cerro de Oro	8	Agosto	2023-08-23T00:00:00	2024-11-08T08:00:00	8	Radiación solar	193
168209	7	Sololá	719	Santiago Atitlán	14	Cerro de Oro	8	Agosto	2023-08-23T00:00:00	2024-11-08T09:00:00	2	Temperatura media	22.2
168210	7	Sololá	719	Santiago Atitlán	14	Cerro de Oro	8	Agosto	2023-08-23T00:00:00	2024-11-08T09:00:00	4	Temperatura máxima	22.2
168211	7	Sololá	719	Santiago Atitlán	14	Cerro de Oro	8	Agosto	2023-08-23T00:00:00	2024-11-08T09:00:00	3	Temperatura mínima	21.1
168212	7	Sololá	719	Santiago Atitlán	14	Cerro de Oro	8	Agosto	2023-08-23T00:00:00	2024-11-08T09:00:00	5	Humedad	63
168213	7	Sololá	719	Santiago Atitlán	14	Cerro de Oro	8	Agosto	2023-08-23T00:00:00	2024-11-08T09:00:00	6	Velocidad del viento	4.8
168214	7	Sololá	719	Santiago Atitlán	14	Cerro de Oro	8	Agosto	2023-08-23T00:00:00	2024-11-08T09:00:00	7	Dirección del viento	4.83
168215	7	Sololá	719	Santiago Atitlán	14	Cerro de Oro	8	Agosto	2023-08-23T00:00:00	2024-11-08T09:00:00	1	Precipitación	0
168216	7	Sololá	719	Santiago Atitlán	14	Cerro de Oro	8	Agosto	2023-08-23T00:00:00	2024-11-08T09:00:00	8	Radiación solar	350
168217	7	Sololá	719	Santiago Atitlán	14	Cerro de Oro	8	Agosto	2023-08-23T00:00:00	2024-11-08T10:00:00	2	Temperatura media	23.1
168218	7	Sololá	719	Santiago Atitlán	14	Cerro de Oro	8	Agosto	2023-08-23T00:00:00	2024-11-08T10:00:00	4	Temperatura máxima	23.1
168219	7	Sololá	719	Santiago Atitlán	14	Cerro de Oro	8	Agosto	2023-08-23T00:00:00	2024-11-08T10:00:00	3	Temperatura mínima	22.2
168220	7	Sololá	719	Santiago Atitlán	14	Cerro de Oro	8	Agosto	2023-08-23T00:00:00	2024-11-08T10:00:00	5	Humedad	64
168221	7	Sololá	719	Santiago Atitlán	14	Cerro de Oro	8	Agosto	2023-08-23T00:00:00	2024-11-08T10:00:00	6	Velocidad del viento	4.8
168222	7	Sololá	719	Santiago Atitlán	14	Cerro de Oro	8	Agosto	2023-08-23T00:00:00	2024-11-08T10:00:00	7	Dirección del viento	4.83
168223	7	Sololá	719	Santiago Atitlán	14	Cerro de Oro	8	Agosto	2023-08-23T00:00:00	2024-11-08T10:00:00	1	Precipitación	0
168224	7	Sololá	719	Santiago Atitlán	14	Cerro de Oro	8	Agosto	2023-08-23T00:00:00	2024-11-08T10:00:00	8	Radiación solar	592
168225	7	Sololá	719	Santiago Atitlán	14	Cerro de Oro	8	Agosto	2023-08-23T00:00:00	2024-11-08T11:00:00	2	Temperatura media	22.6
168226	7	Sololá	719	Santiago Atitlán	14	Cerro de Oro	8	Agosto	2023-08-23T00:00:00	2024-11-08T11:00:00	4	Temperatura máxima	23.1
168227	7	Sololá	719	Santiago Atitlán	14	Cerro de Oro	8	Agosto	2023-08-23T00:00:00	2024-11-08T11:00:00	3	Temperatura mínima	21.9
168228	7	Sololá	719	Santiago Atitlán	14	Cerro de Oro	8	Agosto	2023-08-23T00:00:00	2024-11-08T11:00:00	5	Humedad	69
168229	7	Sololá	719	Santiago Atitlán	14	Cerro de Oro	8	Agosto	2023-08-23T00:00:00	2024-11-08T11:00:00	6	Velocidad del viento	4.8
168230	7	Sololá	719	Santiago Atitlán	14	Cerro de Oro	8	Agosto	2023-08-23T00:00:00	2024-11-08T11:00:00	7	Dirección del viento	4.83
168231	7	Sololá	719	Santiago Atitlán	14	Cerro de Oro	8	Agosto	2023-08-23T00:00:00	2024-11-08T11:00:00	1	Precipitación	0
168232	7	Sololá	719	Santiago Atitlán	14	Cerro de Oro	8	Agosto	2023-08-23T00:00:00	2024-11-08T11:00:00	8	Radiación solar	472
168233	7	Sololá	719	Santiago Atitlán	14	Cerro de Oro	8	Agosto	2023-08-23T00:00:00	2024-11-08T12:00:00	2	Temperatura media	23.1
168234	7	Sololá	719	Santiago Atitlán	14	Cerro de Oro	8	Agosto	2023-08-23T00:00:00	2024-11-08T12:00:00	4	Temperatura máxima	23.2
168235	7	Sololá	719	Santiago Atitlán	14	Cerro de Oro	8	Agosto	2023-08-23T00:00:00	2024-11-08T12:00:00	3	Temperatura mínima	22.4
168236	7	Sololá	719	Santiago Atitlán	14	Cerro de Oro	8	Agosto	2023-08-23T00:00:00	2024-11-08T12:00:00	5	Humedad	75
168237	7	Sololá	719	Santiago Atitlán	14	Cerro de Oro	8	Agosto	2023-08-23T00:00:00	2024-11-08T12:00:00	6	Velocidad del viento	4.8
168238	7	Sololá	719	Santiago Atitlán	14	Cerro de Oro	8	Agosto	2023-08-23T00:00:00	2024-11-08T12:00:00	7	Dirección del viento	4.83
168239	7	Sololá	719	Santiago Atitlán	14	Cerro de Oro	8	Agosto	2023-08-23T00:00:00	2024-11-08T12:00:00	1	Precipitación	0
168240	7	Sololá	719	Santiago Atitlán	14	Cerro de Oro	8	Agosto	2023-08-23T00:00:00	2024-11-08T12:00:00	8	Radiación solar	522
168241	7	Sololá	719	Santiago Atitlán	14	Cerro de Oro	8	Agosto	2023-08-23T00:00:00	2024-11-08T13:00:00	2	Temperatura media	22.1
168242	7	Sololá	719	Santiago Atitlán	14	Cerro de Oro	8	Agosto	2023-08-23T00:00:00	2024-11-08T13:00:00	4	Temperatura máxima	23.1
168243	7	Sololá	719	Santiago Atitlán	14	Cerro de Oro	8	Agosto	2023-08-23T00:00:00	2024-11-08T13:00:00	3	Temperatura mínima	21.9
168244	7	Sololá	719	Santiago Atitlán	14	Cerro de Oro	8	Agosto	2023-08-23T00:00:00	2024-11-08T13:00:00	5	Humedad	78
168245	7	Sololá	719	Santiago Atitlán	14	Cerro de Oro	8	Agosto	2023-08-23T00:00:00	2024-11-08T13:00:00	6	Velocidad del viento	11.3
168246	7	Sololá	719	Santiago Atitlán	14	Cerro de Oro	8	Agosto	2023-08-23T00:00:00	2024-11-08T13:00:00	7	Dirección del viento	11.27
168247	7	Sololá	719	Santiago Atitlán	14	Cerro de Oro	8	Agosto	2023-08-23T00:00:00	2024-11-08T13:00:00	1	Precipitación	0
168248	7	Sololá	719	Santiago Atitlán	14	Cerro de Oro	8	Agosto	2023-08-23T00:00:00	2024-11-08T13:00:00	8	Radiación solar	569
168249	7	Sololá	719	Santiago Atitlán	14	Cerro de Oro	8	Agosto	2023-08-23T00:00:00	2024-11-08T14:00:00	2	Temperatura media	22.5
168250	7	Sololá	719	Santiago Atitlán	14	Cerro de Oro	8	Agosto	2023-08-23T00:00:00	2024-11-08T14:00:00	4	Temperatura máxima	23.2
168251	7	Sololá	719	Santiago Atitlán	14	Cerro de Oro	8	Agosto	2023-08-23T00:00:00	2024-11-08T14:00:00	3	Temperatura mínima	22.1
168252	7	Sololá	719	Santiago Atitlán	14	Cerro de Oro	8	Agosto	2023-08-23T00:00:00	2024-11-08T14:00:00	5	Humedad	77
168253	7	Sololá	719	Santiago Atitlán	14	Cerro de Oro	8	Agosto	2023-08-23T00:00:00	2024-11-08T14:00:00	6	Velocidad del viento	11.3
168254	7	Sololá	719	Santiago Atitlán	14	Cerro de Oro	8	Agosto	2023-08-23T00:00:00	2024-11-08T14:00:00	7	Dirección del viento	11.27
168255	7	Sololá	719	Santiago Atitlán	14	Cerro de Oro	8	Agosto	2023-08-23T00:00:00	2024-11-08T14:00:00	1	Precipitación	0
168256	7	Sololá	719	Santiago Atitlán	14	Cerro de Oro	8	Agosto	2023-08-23T00:00:00	2024-11-08T14:00:00	8	Radiación solar	543
168257	7	Sololá	719	Santiago Atitlán	14	Cerro de Oro	8	Agosto	2023-08-23T00:00:00	2024-11-08T15:00:00	2	Temperatura media	23.7
168258	7	Sololá	719	Santiago Atitlán	14	Cerro de Oro	8	Agosto	2023-08-23T00:00:00	2024-11-08T15:00:00	4	Temperatura máxima	23.8
168259	7	Sololá	719	Santiago Atitlán	14	Cerro de Oro	8	Agosto	2023-08-23T00:00:00	2024-11-08T15:00:00	3	Temperatura mínima	22.5
168260	7	Sololá	719	Santiago Atitlán	14	Cerro de Oro	8	Agosto	2023-08-23T00:00:00	2024-11-08T15:00:00	5	Humedad	71
168261	7	Sololá	719	Santiago Atitlán	14	Cerro de Oro	8	Agosto	2023-08-23T00:00:00	2024-11-08T15:00:00	6	Velocidad del viento	6.4
168262	7	Sololá	719	Santiago Atitlán	14	Cerro de Oro	8	Agosto	2023-08-23T00:00:00	2024-11-08T15:00:00	7	Dirección del viento	6.44
168263	7	Sololá	719	Santiago Atitlán	14	Cerro de Oro	8	Agosto	2023-08-23T00:00:00	2024-11-08T15:00:00	1	Precipitación	0
168264	7	Sololá	719	Santiago Atitlán	14	Cerro de Oro	8	Agosto	2023-08-23T00:00:00	2024-11-08T15:00:00	8	Radiación solar	419
168265	7	Sololá	719	Santiago Atitlán	14	Cerro de Oro	8	Agosto	2023-08-23T00:00:00	2024-11-08T16:00:00	2	Temperatura media	23.2
168266	7	Sololá	719	Santiago Atitlán	14	Cerro de Oro	8	Agosto	2023-08-23T00:00:00	2024-11-08T16:00:00	4	Temperatura máxima	23.8
168267	7	Sololá	719	Santiago Atitlán	14	Cerro de Oro	8	Agosto	2023-08-23T00:00:00	2024-11-08T16:00:00	3	Temperatura mínima	22.9
168268	7	Sololá	719	Santiago Atitlán	14	Cerro de Oro	8	Agosto	2023-08-23T00:00:00	2024-11-08T16:00:00	5	Humedad	65
168269	7	Sololá	719	Santiago Atitlán	14	Cerro de Oro	8	Agosto	2023-08-23T00:00:00	2024-11-08T16:00:00	6	Velocidad del viento	3.2
168270	7	Sololá	719	Santiago Atitlán	14	Cerro de Oro	8	Agosto	2023-08-23T00:00:00	2024-11-08T16:00:00	7	Dirección del viento	3.22
168271	7	Sololá	719	Santiago Atitlán	14	Cerro de Oro	8	Agosto	2023-08-23T00:00:00	2024-11-08T16:00:00	1	Precipitación	0
168272	7	Sololá	719	Santiago Atitlán	14	Cerro de Oro	8	Agosto	2023-08-23T00:00:00	2024-11-08T16:00:00	8	Radiación solar	282
168273	7	Sololá	719	Santiago Atitlán	14	Cerro de Oro	8	Agosto	2023-08-23T00:00:00	2024-11-08T17:00:00	2	Temperatura media	22.1
168274	7	Sololá	719	Santiago Atitlán	14	Cerro de Oro	8	Agosto	2023-08-23T00:00:00	2024-11-08T17:00:00	4	Temperatura máxima	23.5
168275	7	Sololá	719	Santiago Atitlán	14	Cerro de Oro	8	Agosto	2023-08-23T00:00:00	2024-11-08T17:00:00	3	Temperatura mínima	21.2
168276	7	Sololá	719	Santiago Atitlán	14	Cerro de Oro	8	Agosto	2023-08-23T00:00:00	2024-11-08T17:00:00	5	Humedad	70
168277	7	Sololá	719	Santiago Atitlán	14	Cerro de Oro	8	Agosto	2023-08-23T00:00:00	2024-11-08T17:00:00	6	Velocidad del viento	6.4
168278	7	Sololá	719	Santiago Atitlán	14	Cerro de Oro	8	Agosto	2023-08-23T00:00:00	2024-11-08T17:00:00	7	Dirección del viento	6.44
168279	7	Sololá	719	Santiago Atitlán	14	Cerro de Oro	8	Agosto	2023-08-23T00:00:00	2024-11-08T17:00:00	1	Precipitación	0
168280	7	Sololá	719	Santiago Atitlán	14	Cerro de Oro	8	Agosto	2023-08-23T00:00:00	2024-11-08T17:00:00	8	Radiación solar	152
168281	7	Sololá	719	Santiago Atitlán	14	Cerro de Oro	8	Agosto	2023-08-23T00:00:00	2024-11-08T18:00:00	2	Temperatura media	19.8
168282	7	Sololá	719	Santiago Atitlán	14	Cerro de Oro	8	Agosto	2023-08-23T00:00:00	2024-11-08T18:00:00	4	Temperatura máxima	22.4
168283	7	Sololá	719	Santiago Atitlán	14	Cerro de Oro	8	Agosto	2023-08-23T00:00:00	2024-11-08T18:00:00	3	Temperatura mínima	19.8
168284	7	Sololá	719	Santiago Atitlán	14	Cerro de Oro	8	Agosto	2023-08-23T00:00:00	2024-11-08T18:00:00	5	Humedad	86
168285	7	Sololá	719	Santiago Atitlán	14	Cerro de Oro	8	Agosto	2023-08-23T00:00:00	2024-11-08T18:00:00	6	Velocidad del viento	4.8
168286	7	Sololá	719	Santiago Atitlán	14	Cerro de Oro	8	Agosto	2023-08-23T00:00:00	2024-11-08T18:00:00	7	Dirección del viento	4.83
168287	7	Sololá	719	Santiago Atitlán	14	Cerro de Oro	8	Agosto	2023-08-23T00:00:00	2024-11-08T18:00:00	1	Precipitación	0
168288	7	Sololá	719	Santiago Atitlán	14	Cerro de Oro	8	Agosto	2023-08-23T00:00:00	2024-11-08T18:00:00	8	Radiación solar	55
168289	7	Sololá	719	Santiago Atitlán	14	Cerro de Oro	8	Agosto	2023-08-23T00:00:00	2024-11-08T19:00:00	2	Temperatura media	19.3
168290	7	Sololá	719	Santiago Atitlán	14	Cerro de Oro	8	Agosto	2023-08-23T00:00:00	2024-11-08T19:00:00	4	Temperatura máxima	19.8
168291	7	Sololá	719	Santiago Atitlán	14	Cerro de Oro	8	Agosto	2023-08-23T00:00:00	2024-11-08T19:00:00	3	Temperatura mínima	19.2
168292	7	Sololá	719	Santiago Atitlán	14	Cerro de Oro	8	Agosto	2023-08-23T00:00:00	2024-11-08T19:00:00	5	Humedad	85
168293	7	Sololá	719	Santiago Atitlán	14	Cerro de Oro	8	Agosto	2023-08-23T00:00:00	2024-11-08T19:00:00	6	Velocidad del viento	6.4
168294	7	Sololá	719	Santiago Atitlán	14	Cerro de Oro	8	Agosto	2023-08-23T00:00:00	2024-11-08T19:00:00	7	Dirección del viento	6.44
168295	7	Sololá	719	Santiago Atitlán	14	Cerro de Oro	8	Agosto	2023-08-23T00:00:00	2024-11-08T19:00:00	1	Precipitación	0
168296	7	Sololá	719	Santiago Atitlán	14	Cerro de Oro	8	Agosto	2023-08-23T00:00:00	2024-11-08T19:00:00	8	Radiación solar	0
168297	7	Sololá	719	Santiago Atitlán	14	Cerro de Oro	8	Agosto	2023-08-23T00:00:00	2024-11-08T20:00:00	2	Temperatura media	19.5
168298	7	Sololá	719	Santiago Atitlán	14	Cerro de Oro	8	Agosto	2023-08-23T00:00:00	2024-11-08T20:00:00	4	Temperatura máxima	19.8
168299	7	Sololá	719	Santiago Atitlán	14	Cerro de Oro	8	Agosto	2023-08-23T00:00:00	2024-11-08T20:00:00	3	Temperatura mínima	19.3
168300	7	Sololá	719	Santiago Atitlán	14	Cerro de Oro	8	Agosto	2023-08-23T00:00:00	2024-11-08T20:00:00	5	Humedad	83
168301	7	Sololá	719	Santiago Atitlán	14	Cerro de Oro	8	Agosto	2023-08-23T00:00:00	2024-11-08T20:00:00	6	Velocidad del viento	1.6
168302	7	Sololá	719	Santiago Atitlán	14	Cerro de Oro	8	Agosto	2023-08-23T00:00:00	2024-11-08T20:00:00	7	Dirección del viento	1.61
168303	7	Sololá	719	Santiago Atitlán	14	Cerro de Oro	8	Agosto	2023-08-23T00:00:00	2024-11-08T20:00:00	1	Precipitación	0
168304	7	Sololá	719	Santiago Atitlán	14	Cerro de Oro	8	Agosto	2023-08-23T00:00:00	2024-11-08T20:00:00	8	Radiación solar	0
168305	7	Sololá	719	Santiago Atitlán	14	Cerro de Oro	8	Agosto	2023-08-23T00:00:00	2024-11-08T21:00:00	2	Temperatura media	19.8
168306	7	Sololá	719	Santiago Atitlán	14	Cerro de Oro	8	Agosto	2023-08-23T00:00:00	2024-11-08T21:00:00	4	Temperatura máxima	19.9
168307	7	Sololá	719	Santiago Atitlán	14	Cerro de Oro	8	Agosto	2023-08-23T00:00:00	2024-11-08T21:00:00	3	Temperatura mínima	19.4
168308	7	Sololá	719	Santiago Atitlán	14	Cerro de Oro	8	Agosto	2023-08-23T00:00:00	2024-11-08T21:00:00	5	Humedad	85
168309	7	Sololá	719	Santiago Atitlán	14	Cerro de Oro	8	Agosto	2023-08-23T00:00:00	2024-11-08T21:00:00	6	Velocidad del viento	3.2
168310	7	Sololá	719	Santiago Atitlán	14	Cerro de Oro	8	Agosto	2023-08-23T00:00:00	2024-11-08T21:00:00	7	Dirección del viento	3.22
168311	7	Sololá	719	Santiago Atitlán	14	Cerro de Oro	8	Agosto	2023-08-23T00:00:00	2024-11-08T21:00:00	1	Precipitación	0
168312	7	Sololá	719	Santiago Atitlán	14	Cerro de Oro	8	Agosto	2023-08-23T00:00:00	2024-11-08T21:00:00	8	Radiación solar	0
168313	7	Sololá	719	Santiago Atitlán	14	Cerro de Oro	8	Agosto	2023-08-23T00:00:00	2024-11-08T22:00:00	2	Temperatura media	19.6
168314	7	Sololá	719	Santiago Atitlán	14	Cerro de Oro	8	Agosto	2023-08-23T00:00:00	2024-11-08T22:00:00	4	Temperatura máxima	19.9
168315	7	Sololá	719	Santiago Atitlán	14	Cerro de Oro	8	Agosto	2023-08-23T00:00:00	2024-11-08T22:00:00	3	Temperatura mínima	19
168316	7	Sololá	719	Santiago Atitlán	14	Cerro de Oro	8	Agosto	2023-08-23T00:00:00	2024-11-08T22:00:00	5	Humedad	79
168317	7	Sololá	719	Santiago Atitlán	14	Cerro de Oro	8	Agosto	2023-08-23T00:00:00	2024-11-08T22:00:00	6	Velocidad del viento	4.8
168318	7	Sololá	719	Santiago Atitlán	14	Cerro de Oro	8	Agosto	2023-08-23T00:00:00	2024-11-08T22:00:00	7	Dirección del viento	4.83
168319	7	Sololá	719	Santiago Atitlán	14	Cerro de Oro	8	Agosto	2023-08-23T00:00:00	2024-11-08T22:00:00	1	Precipitación	0
168320	7	Sololá	719	Santiago Atitlán	14	Cerro de Oro	8	Agosto	2023-08-23T00:00:00	2024-11-08T22:00:00	8	Radiación solar	0
168321	7	Sololá	719	Santiago Atitlán	14	Cerro de Oro	8	Agosto	2023-08-23T00:00:00	2024-11-08T23:00:00	2	Temperatura media	20.3
168322	7	Sololá	719	Santiago Atitlán	14	Cerro de Oro	8	Agosto	2023-08-23T00:00:00	2024-11-08T23:00:00	4	Temperatura máxima	20.3
168323	7	Sololá	719	Santiago Atitlán	14	Cerro de Oro	8	Agosto	2023-08-23T00:00:00	2024-11-08T23:00:00	3	Temperatura mínima	19.4
168324	7	Sololá	719	Santiago Atitlán	14	Cerro de Oro	8	Agosto	2023-08-23T00:00:00	2024-11-08T23:00:00	5	Humedad	75
168325	7	Sololá	719	Santiago Atitlán	14	Cerro de Oro	8	Agosto	2023-08-23T00:00:00	2024-11-08T23:00:00	6	Velocidad del viento	4.8
168326	7	Sololá	719	Santiago Atitlán	14	Cerro de Oro	8	Agosto	2023-08-23T00:00:00	2024-11-08T23:00:00	7	Dirección del viento	4.83
168327	7	Sololá	719	Santiago Atitlán	14	Cerro de Oro	8	Agosto	2023-08-23T00:00:00	2024-11-08T23:00:00	1	Precipitación	0
168328	7	Sololá	719	Santiago Atitlán	14	Cerro de Oro	8	Agosto	2023-08-23T00:00:00	2024-11-08T23:00:00	8	Radiación solar	0
168329	7	Sololá	719	Santiago Atitlán	14	Cerro de Oro	8	Agosto	2023-08-24T00:00:00	2024-11-08T00:00:00	2	Temperatura media	19.2
168330	7	Sololá	719	Santiago Atitlán	14	Cerro de Oro	8	Agosto	2023-08-24T00:00:00	2024-11-08T00:00:00	4	Temperatura máxima	20.3
168331	7	Sololá	719	Santiago Atitlán	14	Cerro de Oro	8	Agosto	2023-08-24T00:00:00	2024-11-08T00:00:00	3	Temperatura mínima	19.2
168332	7	Sololá	719	Santiago Atitlán	14	Cerro de Oro	8	Agosto	2023-08-24T00:00:00	2024-11-08T00:00:00	5	Humedad	77
168333	7	Sololá	719	Santiago Atitlán	14	Cerro de Oro	8	Agosto	2023-08-24T00:00:00	2024-11-08T00:00:00	6	Velocidad del viento	4.8
168334	7	Sololá	719	Santiago Atitlán	14	Cerro de Oro	8	Agosto	2023-08-24T00:00:00	2024-11-08T00:00:00	7	Dirección del viento	4.83
168335	7	Sololá	719	Santiago Atitlán	14	Cerro de Oro	8	Agosto	2023-08-24T00:00:00	2024-11-08T00:00:00	1	Precipitación	0
168336	7	Sololá	719	Santiago Atitlán	14	Cerro de Oro	8	Agosto	2023-08-24T00:00:00	2024-11-08T00:00:00	8	Radiación solar	0
168337	7	Sololá	719	Santiago Atitlán	14	Cerro de Oro	8	Agosto	2023-08-24T00:00:00	2024-11-08T01:00:00	2	Temperatura media	18.2
168338	7	Sololá	719	Santiago Atitlán	14	Cerro de Oro	8	Agosto	2023-08-24T00:00:00	2024-11-08T01:00:00	4	Temperatura máxima	19.2
168339	7	Sololá	719	Santiago Atitlán	14	Cerro de Oro	8	Agosto	2023-08-24T00:00:00	2024-11-08T01:00:00	3	Temperatura mínima	18.2
168340	7	Sololá	719	Santiago Atitlán	14	Cerro de Oro	8	Agosto	2023-08-24T00:00:00	2024-11-08T01:00:00	5	Humedad	77
168341	7	Sololá	719	Santiago Atitlán	14	Cerro de Oro	8	Agosto	2023-08-24T00:00:00	2024-11-08T01:00:00	6	Velocidad del viento	4.8
168342	7	Sololá	719	Santiago Atitlán	14	Cerro de Oro	8	Agosto	2023-08-24T00:00:00	2024-11-08T01:00:00	7	Dirección del viento	4.83
168343	7	Sololá	719	Santiago Atitlán	14	Cerro de Oro	8	Agosto	2023-08-24T00:00:00	2024-11-08T01:00:00	1	Precipitación	0
168344	7	Sololá	719	Santiago Atitlán	14	Cerro de Oro	8	Agosto	2023-08-24T00:00:00	2024-11-08T01:00:00	8	Radiación solar	0
168345	7	Sololá	719	Santiago Atitlán	14	Cerro de Oro	8	Agosto	2023-08-24T00:00:00	2024-11-08T02:00:00	2	Temperatura media	18.3
168346	7	Sololá	719	Santiago Atitlán	14	Cerro de Oro	8	Agosto	2023-08-24T00:00:00	2024-11-08T02:00:00	4	Temperatura máxima	18.5
168347	7	Sololá	719	Santiago Atitlán	14	Cerro de Oro	8	Agosto	2023-08-24T00:00:00	2024-11-08T02:00:00	3	Temperatura mínima	18.1
168348	7	Sololá	719	Santiago Atitlán	14	Cerro de Oro	8	Agosto	2023-08-24T00:00:00	2024-11-08T02:00:00	5	Humedad	80
168349	7	Sololá	719	Santiago Atitlán	14	Cerro de Oro	8	Agosto	2023-08-24T00:00:00	2024-11-08T02:00:00	6	Velocidad del viento	4.8
168350	7	Sololá	719	Santiago Atitlán	14	Cerro de Oro	8	Agosto	2023-08-24T00:00:00	2024-11-08T02:00:00	7	Dirección del viento	4.83
168351	7	Sololá	719	Santiago Atitlán	14	Cerro de Oro	8	Agosto	2023-08-24T00:00:00	2024-11-08T02:00:00	1	Precipitación	0
168352	7	Sololá	719	Santiago Atitlán	14	Cerro de Oro	8	Agosto	2023-08-24T00:00:00	2024-11-08T02:00:00	8	Radiación solar	0
168353	7	Sololá	719	Santiago Atitlán	14	Cerro de Oro	8	Agosto	2023-08-24T00:00:00	2024-11-08T03:00:00	2	Temperatura media	18.4
168354	7	Sololá	719	Santiago Atitlán	14	Cerro de Oro	8	Agosto	2023-08-24T00:00:00	2024-11-08T03:00:00	4	Temperatura máxima	18.4
168355	7	Sololá	719	Santiago Atitlán	14	Cerro de Oro	8	Agosto	2023-08-24T00:00:00	2024-11-08T03:00:00	3	Temperatura mínima	17.9
168356	7	Sololá	719	Santiago Atitlán	14	Cerro de Oro	8	Agosto	2023-08-24T00:00:00	2024-11-08T03:00:00	5	Humedad	84
168357	7	Sololá	719	Santiago Atitlán	14	Cerro de Oro	8	Agosto	2023-08-24T00:00:00	2024-11-08T03:00:00	6	Velocidad del viento	4.8
168358	7	Sololá	719	Santiago Atitlán	14	Cerro de Oro	8	Agosto	2023-08-24T00:00:00	2024-11-08T03:00:00	7	Dirección del viento	4.83
168359	7	Sololá	719	Santiago Atitlán	14	Cerro de Oro	8	Agosto	2023-08-24T00:00:00	2024-11-08T03:00:00	1	Precipitación	0
168360	7	Sololá	719	Santiago Atitlán	14	Cerro de Oro	8	Agosto	2023-08-24T00:00:00	2024-11-08T03:00:00	8	Radiación solar	0
168361	7	Sololá	719	Santiago Atitlán	14	Cerro de Oro	8	Agosto	2023-08-24T00:00:00	2024-11-08T04:00:00	2	Temperatura media	17.9
168362	7	Sololá	719	Santiago Atitlán	14	Cerro de Oro	8	Agosto	2023-08-24T00:00:00	2024-11-08T04:00:00	4	Temperatura máxima	18.4
168363	7	Sololá	719	Santiago Atitlán	14	Cerro de Oro	8	Agosto	2023-08-24T00:00:00	2024-11-08T04:00:00	3	Temperatura mínima	17.9
168364	7	Sololá	719	Santiago Atitlán	14	Cerro de Oro	8	Agosto	2023-08-24T00:00:00	2024-11-08T04:00:00	5	Humedad	83
168365	7	Sololá	719	Santiago Atitlán	14	Cerro de Oro	8	Agosto	2023-08-24T00:00:00	2024-11-08T04:00:00	6	Velocidad del viento	6.4
168366	7	Sololá	719	Santiago Atitlán	14	Cerro de Oro	8	Agosto	2023-08-24T00:00:00	2024-11-08T04:00:00	7	Dirección del viento	6.44
168367	7	Sololá	719	Santiago Atitlán	14	Cerro de Oro	8	Agosto	2023-08-24T00:00:00	2024-11-08T04:00:00	1	Precipitación	0
168368	7	Sololá	719	Santiago Atitlán	14	Cerro de Oro	8	Agosto	2023-08-24T00:00:00	2024-11-08T04:00:00	8	Radiación solar	0
168369	7	Sololá	719	Santiago Atitlán	14	Cerro de Oro	8	Agosto	2023-08-24T00:00:00	2024-11-08T05:00:00	2	Temperatura media	17.8
168370	7	Sololá	719	Santiago Atitlán	14	Cerro de Oro	8	Agosto	2023-08-24T00:00:00	2024-11-08T05:00:00	4	Temperatura máxima	17.9
168371	7	Sololá	719	Santiago Atitlán	14	Cerro de Oro	8	Agosto	2023-08-24T00:00:00	2024-11-08T05:00:00	3	Temperatura mínima	17.7
168372	7	Sololá	719	Santiago Atitlán	14	Cerro de Oro	8	Agosto	2023-08-24T00:00:00	2024-11-08T05:00:00	5	Humedad	86
168373	7	Sololá	719	Santiago Atitlán	14	Cerro de Oro	8	Agosto	2023-08-24T00:00:00	2024-11-08T05:00:00	6	Velocidad del viento	3.2
168374	7	Sololá	719	Santiago Atitlán	14	Cerro de Oro	8	Agosto	2023-08-24T00:00:00	2024-11-08T05:00:00	7	Dirección del viento	3.22
168375	7	Sololá	719	Santiago Atitlán	14	Cerro de Oro	8	Agosto	2023-08-24T00:00:00	2024-11-08T05:00:00	1	Precipitación	0
168376	7	Sololá	719	Santiago Atitlán	14	Cerro de Oro	8	Agosto	2023-08-24T00:00:00	2024-11-08T05:00:00	8	Radiación solar	0
168377	7	Sololá	719	Santiago Atitlán	14	Cerro de Oro	8	Agosto	2023-08-24T00:00:00	2024-11-08T06:00:00	2	Temperatura media	17.9
168378	7	Sololá	719	Santiago Atitlán	14	Cerro de Oro	8	Agosto	2023-08-24T00:00:00	2024-11-08T06:00:00	4	Temperatura máxima	17.9
168379	7	Sololá	719	Santiago Atitlán	14	Cerro de Oro	8	Agosto	2023-08-24T00:00:00	2024-11-08T06:00:00	3	Temperatura mínima	17.6
168380	7	Sololá	719	Santiago Atitlán	14	Cerro de Oro	8	Agosto	2023-08-24T00:00:00	2024-11-08T06:00:00	5	Humedad	85
168381	7	Sololá	719	Santiago Atitlán	14	Cerro de Oro	8	Agosto	2023-08-24T00:00:00	2024-11-08T06:00:00	6	Velocidad del viento	3.2
168382	7	Sololá	719	Santiago Atitlán	14	Cerro de Oro	8	Agosto	2023-08-24T00:00:00	2024-11-08T06:00:00	7	Dirección del viento	3.22
168383	7	Sololá	719	Santiago Atitlán	14	Cerro de Oro	8	Agosto	2023-08-24T00:00:00	2024-11-08T06:00:00	1	Precipitación	0
168384	7	Sololá	719	Santiago Atitlán	14	Cerro de Oro	8	Agosto	2023-08-24T00:00:00	2024-11-08T06:00:00	8	Radiación solar	0
168385	7	Sololá	719	Santiago Atitlán	14	Cerro de Oro	8	Agosto	2023-08-24T00:00:00	2024-11-08T07:00:00	2	Temperatura media	18.6
168386	7	Sololá	719	Santiago Atitlán	14	Cerro de Oro	8	Agosto	2023-08-24T00:00:00	2024-11-08T07:00:00	4	Temperatura máxima	18.6
168387	7	Sololá	719	Santiago Atitlán	14	Cerro de Oro	8	Agosto	2023-08-24T00:00:00	2024-11-08T07:00:00	3	Temperatura mínima	17.9
168388	7	Sololá	719	Santiago Atitlán	14	Cerro de Oro	8	Agosto	2023-08-24T00:00:00	2024-11-08T07:00:00	5	Humedad	82
168389	7	Sololá	719	Santiago Atitlán	14	Cerro de Oro	8	Agosto	2023-08-24T00:00:00	2024-11-08T07:00:00	6	Velocidad del viento	3.2
168390	7	Sololá	719	Santiago Atitlán	14	Cerro de Oro	8	Agosto	2023-08-24T00:00:00	2024-11-08T07:00:00	7	Dirección del viento	3.22
168391	7	Sololá	719	Santiago Atitlán	14	Cerro de Oro	8	Agosto	2023-08-24T00:00:00	2024-11-08T07:00:00	1	Precipitación	0
168392	7	Sololá	719	Santiago Atitlán	14	Cerro de Oro	8	Agosto	2023-08-24T00:00:00	2024-11-08T07:00:00	8	Radiación solar	34
168393	7	Sololá	719	Santiago Atitlán	14	Cerro de Oro	8	Agosto	2023-08-24T00:00:00	2024-11-08T08:00:00	2	Temperatura media	19.8
168394	7	Sololá	719	Santiago Atitlán	14	Cerro de Oro	8	Agosto	2023-08-24T00:00:00	2024-11-08T08:00:00	4	Temperatura máxima	19.8
168395	7	Sololá	719	Santiago Atitlán	14	Cerro de Oro	8	Agosto	2023-08-24T00:00:00	2024-11-08T08:00:00	3	Temperatura mínima	18.6
168396	7	Sololá	719	Santiago Atitlán	14	Cerro de Oro	8	Agosto	2023-08-24T00:00:00	2024-11-08T08:00:00	5	Humedad	77
168397	7	Sololá	719	Santiago Atitlán	14	Cerro de Oro	8	Agosto	2023-08-24T00:00:00	2024-11-08T08:00:00	6	Velocidad del viento	1.6
168398	7	Sololá	719	Santiago Atitlán	14	Cerro de Oro	8	Agosto	2023-08-24T00:00:00	2024-11-08T08:00:00	7	Dirección del viento	1.61
168399	7	Sololá	719	Santiago Atitlán	14	Cerro de Oro	8	Agosto	2023-08-24T00:00:00	2024-11-08T08:00:00	1	Precipitación	0
168400	7	Sololá	719	Santiago Atitlán	14	Cerro de Oro	8	Agosto	2023-08-24T00:00:00	2024-11-08T08:00:00	8	Radiación solar	103
168401	7	Sololá	719	Santiago Atitlán	14	Cerro de Oro	8	Agosto	2023-08-24T00:00:00	2024-11-08T09:00:00	2	Temperatura media	20.6
168402	7	Sololá	719	Santiago Atitlán	14	Cerro de Oro	8	Agosto	2023-08-24T00:00:00	2024-11-08T09:00:00	4	Temperatura máxima	20.6
168403	7	Sololá	719	Santiago Atitlán	14	Cerro de Oro	8	Agosto	2023-08-24T00:00:00	2024-11-08T09:00:00	3	Temperatura mínima	19.8
168404	7	Sololá	719	Santiago Atitlán	14	Cerro de Oro	8	Agosto	2023-08-24T00:00:00	2024-11-08T09:00:00	5	Humedad	76
168405	7	Sololá	719	Santiago Atitlán	14	Cerro de Oro	8	Agosto	2023-08-24T00:00:00	2024-11-08T09:00:00	6	Velocidad del viento	1.6
168406	7	Sololá	719	Santiago Atitlán	14	Cerro de Oro	8	Agosto	2023-08-24T00:00:00	2024-11-08T09:00:00	7	Dirección del viento	1.61
168407	7	Sololá	719	Santiago Atitlán	14	Cerro de Oro	8	Agosto	2023-08-24T00:00:00	2024-11-08T09:00:00	1	Precipitación	0
168408	7	Sololá	719	Santiago Atitlán	14	Cerro de Oro	8	Agosto	2023-08-24T00:00:00	2024-11-08T09:00:00	8	Radiación solar	167
168409	7	Sololá	719	Santiago Atitlán	14	Cerro de Oro	8	Agosto	2023-08-24T00:00:00	2024-11-08T10:00:00	2	Temperatura media	21.3
168410	7	Sololá	719	Santiago Atitlán	14	Cerro de Oro	8	Agosto	2023-08-24T00:00:00	2024-11-08T10:00:00	4	Temperatura máxima	21.3
168411	7	Sololá	719	Santiago Atitlán	14	Cerro de Oro	8	Agosto	2023-08-24T00:00:00	2024-11-08T10:00:00	3	Temperatura mínima	20.6
168412	7	Sololá	719	Santiago Atitlán	14	Cerro de Oro	8	Agosto	2023-08-24T00:00:00	2024-11-08T10:00:00	5	Humedad	75
168413	7	Sololá	719	Santiago Atitlán	14	Cerro de Oro	8	Agosto	2023-08-24T00:00:00	2024-11-08T10:00:00	6	Velocidad del viento	1.6
168414	7	Sololá	719	Santiago Atitlán	14	Cerro de Oro	8	Agosto	2023-08-24T00:00:00	2024-11-08T10:00:00	7	Dirección del viento	1.61
168415	7	Sololá	719	Santiago Atitlán	14	Cerro de Oro	8	Agosto	2023-08-24T00:00:00	2024-11-08T10:00:00	1	Precipitación	0
168416	7	Sololá	719	Santiago Atitlán	14	Cerro de Oro	8	Agosto	2023-08-24T00:00:00	2024-11-08T10:00:00	8	Radiación solar	265
168417	7	Sololá	719	Santiago Atitlán	14	Cerro de Oro	8	Agosto	2023-08-24T00:00:00	2024-11-08T11:00:00	2	Temperatura media	21.1
168418	7	Sololá	719	Santiago Atitlán	14	Cerro de Oro	8	Agosto	2023-08-24T00:00:00	2024-11-08T11:00:00	4	Temperatura máxima	21.7
168419	7	Sololá	719	Santiago Atitlán	14	Cerro de Oro	8	Agosto	2023-08-24T00:00:00	2024-11-08T11:00:00	3	Temperatura mínima	21
168420	7	Sololá	719	Santiago Atitlán	14	Cerro de Oro	8	Agosto	2023-08-24T00:00:00	2024-11-08T11:00:00	5	Humedad	80
168421	7	Sololá	719	Santiago Atitlán	14	Cerro de Oro	8	Agosto	2023-08-24T00:00:00	2024-11-08T11:00:00	6	Velocidad del viento	4.8
168422	7	Sololá	719	Santiago Atitlán	14	Cerro de Oro	8	Agosto	2023-08-24T00:00:00	2024-11-08T11:00:00	7	Dirección del viento	4.83
168423	7	Sololá	719	Santiago Atitlán	14	Cerro de Oro	8	Agosto	2023-08-24T00:00:00	2024-11-08T11:00:00	1	Precipitación	0
168424	7	Sololá	719	Santiago Atitlán	14	Cerro de Oro	8	Agosto	2023-08-24T00:00:00	2024-11-08T11:00:00	8	Radiación solar	358
168425	7	Sololá	719	Santiago Atitlán	14	Cerro de Oro	8	Agosto	2023-08-24T00:00:00	2024-11-08T12:00:00	2	Temperatura media	20.9
168426	7	Sololá	719	Santiago Atitlán	14	Cerro de Oro	8	Agosto	2023-08-24T00:00:00	2024-11-08T12:00:00	4	Temperatura máxima	21.2
168427	7	Sololá	719	Santiago Atitlán	14	Cerro de Oro	8	Agosto	2023-08-24T00:00:00	2024-11-08T12:00:00	3	Temperatura mínima	20.7
168428	7	Sololá	719	Santiago Atitlán	14	Cerro de Oro	8	Agosto	2023-08-24T00:00:00	2024-11-08T12:00:00	5	Humedad	80
168429	7	Sololá	719	Santiago Atitlán	14	Cerro de Oro	8	Agosto	2023-08-24T00:00:00	2024-11-08T12:00:00	6	Velocidad del viento	6.4
168430	7	Sololá	719	Santiago Atitlán	14	Cerro de Oro	8	Agosto	2023-08-24T00:00:00	2024-11-08T12:00:00	7	Dirección del viento	6.44
168431	7	Sololá	719	Santiago Atitlán	14	Cerro de Oro	8	Agosto	2023-08-24T00:00:00	2024-11-08T12:00:00	1	Precipitación	0
168432	7	Sololá	719	Santiago Atitlán	14	Cerro de Oro	8	Agosto	2023-08-24T00:00:00	2024-11-08T12:00:00	8	Radiación solar	370
168433	7	Sololá	719	Santiago Atitlán	14	Cerro de Oro	8	Agosto	2023-08-24T00:00:00	2024-11-08T13:00:00	2	Temperatura media	20.9
168434	7	Sololá	719	Santiago Atitlán	14	Cerro de Oro	8	Agosto	2023-08-24T00:00:00	2024-11-08T13:00:00	4	Temperatura máxima	21.1
168435	7	Sololá	719	Santiago Atitlán	14	Cerro de Oro	8	Agosto	2023-08-24T00:00:00	2024-11-08T13:00:00	3	Temperatura mínima	20.8
168436	7	Sololá	719	Santiago Atitlán	14	Cerro de Oro	8	Agosto	2023-08-24T00:00:00	2024-11-08T13:00:00	5	Humedad	81
168437	7	Sololá	719	Santiago Atitlán	14	Cerro de Oro	8	Agosto	2023-08-24T00:00:00	2024-11-08T13:00:00	6	Velocidad del viento	4.8
168438	7	Sololá	719	Santiago Atitlán	14	Cerro de Oro	8	Agosto	2023-08-24T00:00:00	2024-11-08T13:00:00	7	Dirección del viento	4.83
168439	7	Sololá	719	Santiago Atitlán	14	Cerro de Oro	8	Agosto	2023-08-24T00:00:00	2024-11-08T13:00:00	1	Precipitación	0
168440	7	Sololá	719	Santiago Atitlán	14	Cerro de Oro	8	Agosto	2023-08-24T00:00:00	2024-11-08T13:00:00	8	Radiación solar	291
168441	7	Sololá	719	Santiago Atitlán	14	Cerro de Oro	8	Agosto	2023-08-24T00:00:00	2024-11-08T14:00:00	2	Temperatura media	21
168442	7	Sololá	719	Santiago Atitlán	14	Cerro de Oro	8	Agosto	2023-08-24T00:00:00	2024-11-08T14:00:00	4	Temperatura máxima	21
168443	7	Sololá	719	Santiago Atitlán	14	Cerro de Oro	8	Agosto	2023-08-24T00:00:00	2024-11-08T14:00:00	3	Temperatura mínima	20.8
168444	7	Sololá	719	Santiago Atitlán	14	Cerro de Oro	8	Agosto	2023-08-24T00:00:00	2024-11-08T14:00:00	5	Humedad	82
168445	7	Sololá	719	Santiago Atitlán	14	Cerro de Oro	8	Agosto	2023-08-24T00:00:00	2024-11-08T14:00:00	6	Velocidad del viento	6.4
168446	7	Sololá	719	Santiago Atitlán	14	Cerro de Oro	8	Agosto	2023-08-24T00:00:00	2024-11-08T14:00:00	7	Dirección del viento	6.44
168447	7	Sololá	719	Santiago Atitlán	14	Cerro de Oro	8	Agosto	2023-08-24T00:00:00	2024-11-08T14:00:00	1	Precipitación	0
168448	7	Sololá	719	Santiago Atitlán	14	Cerro de Oro	8	Agosto	2023-08-24T00:00:00	2024-11-08T14:00:00	8	Radiación solar	269
168449	7	Sololá	719	Santiago Atitlán	14	Cerro de Oro	8	Agosto	2023-08-24T00:00:00	2024-11-08T15:00:00	2	Temperatura media	21.5
168450	7	Sololá	719	Santiago Atitlán	14	Cerro de Oro	8	Agosto	2023-08-24T00:00:00	2024-11-08T15:00:00	4	Temperatura máxima	21.5
168451	7	Sololá	719	Santiago Atitlán	14	Cerro de Oro	8	Agosto	2023-08-24T00:00:00	2024-11-08T15:00:00	3	Temperatura mínima	20.8
168452	7	Sololá	719	Santiago Atitlán	14	Cerro de Oro	8	Agosto	2023-08-24T00:00:00	2024-11-08T15:00:00	5	Humedad	79
168453	7	Sololá	719	Santiago Atitlán	14	Cerro de Oro	8	Agosto	2023-08-24T00:00:00	2024-11-08T15:00:00	6	Velocidad del viento	4.8
168454	7	Sololá	719	Santiago Atitlán	14	Cerro de Oro	8	Agosto	2023-08-24T00:00:00	2024-11-08T15:00:00	7	Dirección del viento	4.83
168455	7	Sololá	719	Santiago Atitlán	14	Cerro de Oro	8	Agosto	2023-08-24T00:00:00	2024-11-08T15:00:00	1	Precipitación	0
168456	7	Sololá	719	Santiago Atitlán	14	Cerro de Oro	8	Agosto	2023-08-24T00:00:00	2024-11-08T15:00:00	8	Radiación solar	357
168457	7	Sololá	719	Santiago Atitlán	14	Cerro de Oro	8	Agosto	2023-08-24T00:00:00	2024-11-08T16:00:00	2	Temperatura media	21.2
168458	7	Sololá	719	Santiago Atitlán	14	Cerro de Oro	8	Agosto	2023-08-24T00:00:00	2024-11-08T16:00:00	4	Temperatura máxima	21.8
168459	7	Sololá	719	Santiago Atitlán	14	Cerro de Oro	8	Agosto	2023-08-24T00:00:00	2024-11-08T16:00:00	3	Temperatura mínima	21.2
168460	7	Sololá	719	Santiago Atitlán	14	Cerro de Oro	8	Agosto	2023-08-24T00:00:00	2024-11-08T16:00:00	5	Humedad	82
168461	7	Sololá	719	Santiago Atitlán	14	Cerro de Oro	8	Agosto	2023-08-24T00:00:00	2024-11-08T16:00:00	6	Velocidad del viento	4.8
168462	7	Sololá	719	Santiago Atitlán	14	Cerro de Oro	8	Agosto	2023-08-24T00:00:00	2024-11-08T16:00:00	7	Dirección del viento	4.83
168463	7	Sololá	719	Santiago Atitlán	14	Cerro de Oro	8	Agosto	2023-08-24T00:00:00	2024-11-08T16:00:00	1	Precipitación	0
168464	7	Sololá	719	Santiago Atitlán	14	Cerro de Oro	8	Agosto	2023-08-24T00:00:00	2024-11-08T16:00:00	8	Radiación solar	262
168465	7	Sololá	719	Santiago Atitlán	14	Cerro de Oro	8	Agosto	2023-08-24T00:00:00	2024-11-08T17:00:00	2	Temperatura media	20.7
168466	7	Sololá	719	Santiago Atitlán	14	Cerro de Oro	8	Agosto	2023-08-24T00:00:00	2024-11-08T17:00:00	4	Temperatura máxima	21.2
168467	7	Sololá	719	Santiago Atitlán	14	Cerro de Oro	8	Agosto	2023-08-24T00:00:00	2024-11-08T17:00:00	3	Temperatura mínima	20.3
168468	7	Sololá	719	Santiago Atitlán	14	Cerro de Oro	8	Agosto	2023-08-24T00:00:00	2024-11-08T17:00:00	5	Humedad	80
168469	7	Sololá	719	Santiago Atitlán	14	Cerro de Oro	8	Agosto	2023-08-24T00:00:00	2024-11-08T17:00:00	6	Velocidad del viento	3.2
168470	7	Sololá	719	Santiago Atitlán	14	Cerro de Oro	8	Agosto	2023-08-24T00:00:00	2024-11-08T17:00:00	7	Dirección del viento	3.22
168471	7	Sololá	719	Santiago Atitlán	14	Cerro de Oro	8	Agosto	2023-08-24T00:00:00	2024-11-08T17:00:00	1	Precipitación	0
168472	7	Sololá	719	Santiago Atitlán	14	Cerro de Oro	8	Agosto	2023-08-24T00:00:00	2024-11-08T17:00:00	8	Radiación solar	100
168473	7	Sololá	719	Santiago Atitlán	14	Cerro de Oro	8	Agosto	2023-08-24T00:00:00	2024-11-08T18:00:00	2	Temperatura media	20.8
168474	7	Sololá	719	Santiago Atitlán	14	Cerro de Oro	8	Agosto	2023-08-24T00:00:00	2024-11-08T18:00:00	4	Temperatura máxima	20.9
168475	7	Sololá	719	Santiago Atitlán	14	Cerro de Oro	8	Agosto	2023-08-24T00:00:00	2024-11-08T18:00:00	3	Temperatura mínima	20.6
168476	7	Sololá	719	Santiago Atitlán	14	Cerro de Oro	8	Agosto	2023-08-24T00:00:00	2024-11-08T18:00:00	5	Humedad	80
168477	7	Sololá	719	Santiago Atitlán	14	Cerro de Oro	8	Agosto	2023-08-24T00:00:00	2024-11-08T18:00:00	6	Velocidad del viento	1.6
168478	7	Sololá	719	Santiago Atitlán	14	Cerro de Oro	8	Agosto	2023-08-24T00:00:00	2024-11-08T18:00:00	7	Dirección del viento	1.61
168479	7	Sololá	719	Santiago Atitlán	14	Cerro de Oro	8	Agosto	2023-08-24T00:00:00	2024-11-08T18:00:00	1	Precipitación	0
168480	7	Sololá	719	Santiago Atitlán	14	Cerro de Oro	8	Agosto	2023-08-24T00:00:00	2024-11-08T18:00:00	8	Radiación solar	46
168481	7	Sololá	719	Santiago Atitlán	14	Cerro de Oro	8	Agosto	2023-08-24T00:00:00	2024-11-08T19:00:00	2	Temperatura media	20.2
168482	7	Sololá	719	Santiago Atitlán	14	Cerro de Oro	8	Agosto	2023-08-24T00:00:00	2024-11-08T19:00:00	4	Temperatura máxima	20.8
168483	7	Sololá	719	Santiago Atitlán	14	Cerro de Oro	8	Agosto	2023-08-24T00:00:00	2024-11-08T19:00:00	3	Temperatura mínima	20.2
168484	7	Sololá	719	Santiago Atitlán	14	Cerro de Oro	8	Agosto	2023-08-24T00:00:00	2024-11-08T19:00:00	5	Humedad	80
168485	7	Sololá	719	Santiago Atitlán	14	Cerro de Oro	8	Agosto	2023-08-24T00:00:00	2024-11-08T19:00:00	6	Velocidad del viento	1.6
168486	7	Sololá	719	Santiago Atitlán	14	Cerro de Oro	8	Agosto	2023-08-24T00:00:00	2024-11-08T19:00:00	7	Dirección del viento	1.61
168487	7	Sololá	719	Santiago Atitlán	14	Cerro de Oro	8	Agosto	2023-08-24T00:00:00	2024-11-08T19:00:00	1	Precipitación	0
168488	7	Sololá	719	Santiago Atitlán	14	Cerro de Oro	8	Agosto	2023-08-24T00:00:00	2024-11-08T19:00:00	8	Radiación solar	0
168489	7	Sololá	719	Santiago Atitlán	14	Cerro de Oro	8	Agosto	2023-08-24T00:00:00	2024-11-08T20:00:00	2	Temperatura media	19.5
168490	7	Sololá	719	Santiago Atitlán	14	Cerro de Oro	8	Agosto	2023-08-24T00:00:00	2024-11-08T20:00:00	4	Temperatura máxima	20.2
168491	7	Sololá	719	Santiago Atitlán	14	Cerro de Oro	8	Agosto	2023-08-24T00:00:00	2024-11-08T20:00:00	3	Temperatura mínima	19.4
168492	7	Sololá	719	Santiago Atitlán	14	Cerro de Oro	8	Agosto	2023-08-24T00:00:00	2024-11-08T20:00:00	5	Humedad	82
168493	7	Sololá	719	Santiago Atitlán	14	Cerro de Oro	8	Agosto	2023-08-24T00:00:00	2024-11-08T20:00:00	6	Velocidad del viento	3.2
168494	7	Sololá	719	Santiago Atitlán	14	Cerro de Oro	8	Agosto	2023-08-24T00:00:00	2024-11-08T20:00:00	7	Dirección del viento	3.22
168495	7	Sololá	719	Santiago Atitlán	14	Cerro de Oro	8	Agosto	2023-08-24T00:00:00	2024-11-08T20:00:00	1	Precipitación	0
168496	7	Sololá	719	Santiago Atitlán	14	Cerro de Oro	8	Agosto	2023-08-24T00:00:00	2024-11-08T20:00:00	8	Radiación solar	0
168497	7	Sololá	719	Santiago Atitlán	14	Cerro de Oro	8	Agosto	2023-08-24T00:00:00	2024-11-08T21:00:00	2	Temperatura media	19.3
168498	7	Sololá	719	Santiago Atitlán	14	Cerro de Oro	8	Agosto	2023-08-24T00:00:00	2024-11-08T21:00:00	4	Temperatura máxima	19.7
168499	7	Sololá	719	Santiago Atitlán	14	Cerro de Oro	8	Agosto	2023-08-24T00:00:00	2024-11-08T21:00:00	3	Temperatura mínima	19.3
168500	7	Sololá	719	Santiago Atitlán	14	Cerro de Oro	8	Agosto	2023-08-24T00:00:00	2024-11-08T21:00:00	5	Humedad	85
168501	7	Sololá	719	Santiago Atitlán	14	Cerro de Oro	8	Agosto	2023-08-24T00:00:00	2024-11-08T21:00:00	6	Velocidad del viento	3.2
168502	7	Sololá	719	Santiago Atitlán	14	Cerro de Oro	8	Agosto	2023-08-24T00:00:00	2024-11-08T21:00:00	7	Dirección del viento	3.22
168503	7	Sololá	719	Santiago Atitlán	14	Cerro de Oro	8	Agosto	2023-08-24T00:00:00	2024-11-08T21:00:00	1	Precipitación	0
168504	7	Sololá	719	Santiago Atitlán	14	Cerro de Oro	8	Agosto	2023-08-24T00:00:00	2024-11-08T21:00:00	8	Radiación solar	0
168505	7	Sololá	719	Santiago Atitlán	14	Cerro de Oro	8	Agosto	2023-08-24T00:00:00	2024-11-08T22:00:00	2	Temperatura media	18.2
168506	7	Sololá	719	Santiago Atitlán	14	Cerro de Oro	8	Agosto	2023-08-24T00:00:00	2024-11-08T22:00:00	4	Temperatura máxima	19.3
168507	7	Sololá	719	Santiago Atitlán	14	Cerro de Oro	8	Agosto	2023-08-24T00:00:00	2024-11-08T22:00:00	3	Temperatura mínima	18.2
168508	7	Sololá	719	Santiago Atitlán	14	Cerro de Oro	8	Agosto	2023-08-24T00:00:00	2024-11-08T22:00:00	5	Humedad	87
168509	7	Sololá	719	Santiago Atitlán	14	Cerro de Oro	8	Agosto	2023-08-24T00:00:00	2024-11-08T22:00:00	6	Velocidad del viento	4.8
168510	7	Sololá	719	Santiago Atitlán	14	Cerro de Oro	8	Agosto	2023-08-24T00:00:00	2024-11-08T22:00:00	7	Dirección del viento	4.83
168511	7	Sololá	719	Santiago Atitlán	14	Cerro de Oro	8	Agosto	2023-08-24T00:00:00	2024-11-08T22:00:00	1	Precipitación	0
168512	7	Sololá	719	Santiago Atitlán	14	Cerro de Oro	8	Agosto	2023-08-24T00:00:00	2024-11-08T22:00:00	8	Radiación solar	0
168513	7	Sololá	719	Santiago Atitlán	14	Cerro de Oro	8	Agosto	2023-08-24T00:00:00	2024-11-08T23:00:00	2	Temperatura media	18.1
168514	7	Sololá	719	Santiago Atitlán	14	Cerro de Oro	8	Agosto	2023-08-24T00:00:00	2024-11-08T23:00:00	4	Temperatura máxima	18.3
168515	7	Sololá	719	Santiago Atitlán	14	Cerro de Oro	8	Agosto	2023-08-24T00:00:00	2024-11-08T23:00:00	3	Temperatura mínima	17.7
168516	7	Sololá	719	Santiago Atitlán	14	Cerro de Oro	8	Agosto	2023-08-24T00:00:00	2024-11-08T23:00:00	5	Humedad	89
168517	7	Sololá	719	Santiago Atitlán	14	Cerro de Oro	8	Agosto	2023-08-24T00:00:00	2024-11-08T23:00:00	6	Velocidad del viento	4.8
168518	7	Sololá	719	Santiago Atitlán	14	Cerro de Oro	8	Agosto	2023-08-24T00:00:00	2024-11-08T23:00:00	7	Dirección del viento	4.83
168519	7	Sololá	719	Santiago Atitlán	14	Cerro de Oro	8	Agosto	2023-08-24T00:00:00	2024-11-08T23:00:00	1	Precipitación	0
168520	7	Sololá	719	Santiago Atitlán	14	Cerro de Oro	8	Agosto	2023-08-24T00:00:00	2024-11-08T23:00:00	8	Radiación solar	0
168521	7	Sololá	719	Santiago Atitlán	14	Cerro de Oro	8	Agosto	2023-08-25T00:00:00	2024-11-08T00:00:00	2	Temperatura media	18.2
168522	7	Sololá	719	Santiago Atitlán	14	Cerro de Oro	8	Agosto	2023-08-25T00:00:00	2024-11-08T00:00:00	4	Temperatura máxima	18.3
168523	7	Sololá	719	Santiago Atitlán	14	Cerro de Oro	8	Agosto	2023-08-25T00:00:00	2024-11-08T00:00:00	3	Temperatura mínima	18
168524	7	Sololá	719	Santiago Atitlán	14	Cerro de Oro	8	Agosto	2023-08-25T00:00:00	2024-11-08T00:00:00	5	Humedad	89
168525	7	Sololá	719	Santiago Atitlán	14	Cerro de Oro	8	Agosto	2023-08-25T00:00:00	2024-11-08T00:00:00	6	Velocidad del viento	3.2
168526	7	Sololá	719	Santiago Atitlán	14	Cerro de Oro	8	Agosto	2023-08-25T00:00:00	2024-11-08T00:00:00	7	Dirección del viento	3.22
168527	7	Sololá	719	Santiago Atitlán	14	Cerro de Oro	8	Agosto	2023-08-25T00:00:00	2024-11-08T00:00:00	1	Precipitación	0
168528	7	Sololá	719	Santiago Atitlán	14	Cerro de Oro	8	Agosto	2023-08-25T00:00:00	2024-11-08T00:00:00	8	Radiación solar	0
168529	7	Sololá	719	Santiago Atitlán	14	Cerro de Oro	8	Agosto	2023-08-25T00:00:00	2024-11-08T01:00:00	2	Temperatura media	18.3
168530	7	Sololá	719	Santiago Atitlán	14	Cerro de Oro	8	Agosto	2023-08-25T00:00:00	2024-11-08T01:00:00	4	Temperatura máxima	18.4
168531	7	Sololá	719	Santiago Atitlán	14	Cerro de Oro	8	Agosto	2023-08-25T00:00:00	2024-11-08T01:00:00	3	Temperatura mínima	18.2
168532	7	Sololá	719	Santiago Atitlán	14	Cerro de Oro	8	Agosto	2023-08-25T00:00:00	2024-11-08T01:00:00	5	Humedad	87
168533	7	Sololá	719	Santiago Atitlán	14	Cerro de Oro	8	Agosto	2023-08-25T00:00:00	2024-11-08T01:00:00	6	Velocidad del viento	3.2
168534	7	Sololá	719	Santiago Atitlán	14	Cerro de Oro	8	Agosto	2023-08-25T00:00:00	2024-11-08T01:00:00	7	Dirección del viento	3.22
168535	7	Sololá	719	Santiago Atitlán	14	Cerro de Oro	8	Agosto	2023-08-25T00:00:00	2024-11-08T01:00:00	1	Precipitación	0
168536	7	Sololá	719	Santiago Atitlán	14	Cerro de Oro	8	Agosto	2023-08-25T00:00:00	2024-11-08T01:00:00	8	Radiación solar	0
168537	7	Sololá	719	Santiago Atitlán	14	Cerro de Oro	8	Agosto	2023-08-25T00:00:00	2024-11-08T02:00:00	2	Temperatura media	17.9
168538	7	Sololá	719	Santiago Atitlán	14	Cerro de Oro	8	Agosto	2023-08-25T00:00:00	2024-11-08T02:00:00	4	Temperatura máxima	18.3
168539	7	Sololá	719	Santiago Atitlán	14	Cerro de Oro	8	Agosto	2023-08-25T00:00:00	2024-11-08T02:00:00	3	Temperatura mínima	17.8
168540	7	Sololá	719	Santiago Atitlán	14	Cerro de Oro	8	Agosto	2023-08-25T00:00:00	2024-11-08T02:00:00	5	Humedad	89
168541	7	Sololá	719	Santiago Atitlán	14	Cerro de Oro	8	Agosto	2023-08-25T00:00:00	2024-11-08T02:00:00	6	Velocidad del viento	1.6
168542	7	Sololá	719	Santiago Atitlán	14	Cerro de Oro	8	Agosto	2023-08-25T00:00:00	2024-11-08T02:00:00	7	Dirección del viento	1.61
168543	7	Sololá	719	Santiago Atitlán	14	Cerro de Oro	8	Agosto	2023-08-25T00:00:00	2024-11-08T02:00:00	1	Precipitación	0
168544	7	Sololá	719	Santiago Atitlán	14	Cerro de Oro	8	Agosto	2023-08-25T00:00:00	2024-11-08T02:00:00	8	Radiación solar	0
168545	7	Sololá	719	Santiago Atitlán	14	Cerro de Oro	8	Agosto	2023-08-25T00:00:00	2024-11-08T03:00:00	2	Temperatura media	18
168546	7	Sololá	719	Santiago Atitlán	14	Cerro de Oro	8	Agosto	2023-08-25T00:00:00	2024-11-08T03:00:00	4	Temperatura máxima	18
168547	7	Sololá	719	Santiago Atitlán	14	Cerro de Oro	8	Agosto	2023-08-25T00:00:00	2024-11-08T03:00:00	3	Temperatura mínima	17.6
168548	7	Sololá	719	Santiago Atitlán	14	Cerro de Oro	8	Agosto	2023-08-25T00:00:00	2024-11-08T03:00:00	5	Humedad	89
168549	7	Sololá	719	Santiago Atitlán	14	Cerro de Oro	8	Agosto	2023-08-25T00:00:00	2024-11-08T03:00:00	6	Velocidad del viento	4.8
168550	7	Sololá	719	Santiago Atitlán	14	Cerro de Oro	8	Agosto	2023-08-25T00:00:00	2024-11-08T03:00:00	7	Dirección del viento	4.83
168551	7	Sololá	719	Santiago Atitlán	14	Cerro de Oro	8	Agosto	2023-08-25T00:00:00	2024-11-08T03:00:00	1	Precipitación	0
168552	7	Sololá	719	Santiago Atitlán	14	Cerro de Oro	8	Agosto	2023-08-25T00:00:00	2024-11-08T03:00:00	8	Radiación solar	0
168553	7	Sololá	719	Santiago Atitlán	14	Cerro de Oro	8	Agosto	2023-08-25T00:00:00	2024-11-08T04:00:00	2	Temperatura media	17.9
168554	7	Sololá	719	Santiago Atitlán	14	Cerro de Oro	8	Agosto	2023-08-25T00:00:00	2024-11-08T04:00:00	4	Temperatura máxima	18.2
168555	7	Sololá	719	Santiago Atitlán	14	Cerro de Oro	8	Agosto	2023-08-25T00:00:00	2024-11-08T04:00:00	3	Temperatura mínima	17.8
168556	7	Sololá	719	Santiago Atitlán	14	Cerro de Oro	8	Agosto	2023-08-25T00:00:00	2024-11-08T04:00:00	5	Humedad	87
168557	7	Sololá	719	Santiago Atitlán	14	Cerro de Oro	8	Agosto	2023-08-25T00:00:00	2024-11-08T04:00:00	6	Velocidad del viento	3.2
168558	7	Sololá	719	Santiago Atitlán	14	Cerro de Oro	8	Agosto	2023-08-25T00:00:00	2024-11-08T04:00:00	7	Dirección del viento	3.22
168559	7	Sololá	719	Santiago Atitlán	14	Cerro de Oro	8	Agosto	2023-08-25T00:00:00	2024-11-08T04:00:00	1	Precipitación	0
168560	7	Sololá	719	Santiago Atitlán	14	Cerro de Oro	8	Agosto	2023-08-25T00:00:00	2024-11-08T04:00:00	8	Radiación solar	0
168561	7	Sololá	719	Santiago Atitlán	14	Cerro de Oro	8	Agosto	2023-08-25T00:00:00	2024-11-08T05:00:00	2	Temperatura media	18
168562	7	Sololá	719	Santiago Atitlán	14	Cerro de Oro	8	Agosto	2023-08-25T00:00:00	2024-11-08T05:00:00	4	Temperatura máxima	18.2
168563	7	Sololá	719	Santiago Atitlán	14	Cerro de Oro	8	Agosto	2023-08-25T00:00:00	2024-11-08T05:00:00	3	Temperatura mínima	17.9
168564	7	Sololá	719	Santiago Atitlán	14	Cerro de Oro	8	Agosto	2023-08-25T00:00:00	2024-11-08T05:00:00	5	Humedad	87
168565	7	Sololá	719	Santiago Atitlán	14	Cerro de Oro	8	Agosto	2023-08-25T00:00:00	2024-11-08T05:00:00	6	Velocidad del viento	3.2
168566	7	Sololá	719	Santiago Atitlán	14	Cerro de Oro	8	Agosto	2023-08-25T00:00:00	2024-11-08T05:00:00	7	Dirección del viento	3.22
168567	7	Sololá	719	Santiago Atitlán	14	Cerro de Oro	8	Agosto	2023-08-25T00:00:00	2024-11-08T05:00:00	1	Precipitación	0
168568	7	Sololá	719	Santiago Atitlán	14	Cerro de Oro	8	Agosto	2023-08-25T00:00:00	2024-11-08T05:00:00	8	Radiación solar	0
168569	7	Sololá	719	Santiago Atitlán	14	Cerro de Oro	8	Agosto	2023-08-25T00:00:00	2024-11-08T06:00:00	2	Temperatura media	17.7
168570	7	Sololá	719	Santiago Atitlán	14	Cerro de Oro	8	Agosto	2023-08-25T00:00:00	2024-11-08T06:00:00	4	Temperatura máxima	18.2
168571	7	Sololá	719	Santiago Atitlán	14	Cerro de Oro	8	Agosto	2023-08-25T00:00:00	2024-11-08T06:00:00	3	Temperatura mínima	17.6
168572	7	Sololá	719	Santiago Atitlán	14	Cerro de Oro	8	Agosto	2023-08-25T00:00:00	2024-11-08T06:00:00	5	Humedad	89
168573	7	Sololá	719	Santiago Atitlán	14	Cerro de Oro	8	Agosto	2023-08-25T00:00:00	2024-11-08T06:00:00	6	Velocidad del viento	3.2
168574	7	Sololá	719	Santiago Atitlán	14	Cerro de Oro	8	Agosto	2023-08-25T00:00:00	2024-11-08T06:00:00	7	Dirección del viento	3.22
168575	7	Sololá	719	Santiago Atitlán	14	Cerro de Oro	8	Agosto	2023-08-25T00:00:00	2024-11-08T06:00:00	1	Precipitación	0
168576	7	Sololá	719	Santiago Atitlán	14	Cerro de Oro	8	Agosto	2023-08-25T00:00:00	2024-11-08T06:00:00	8	Radiación solar	1
168577	7	Sololá	719	Santiago Atitlán	14	Cerro de Oro	8	Agosto	2023-08-25T00:00:00	2024-11-08T07:00:00	2	Temperatura media	18.2
168578	7	Sololá	719	Santiago Atitlán	14	Cerro de Oro	8	Agosto	2023-08-25T00:00:00	2024-11-08T07:00:00	4	Temperatura máxima	18.6
168579	7	Sololá	719	Santiago Atitlán	14	Cerro de Oro	8	Agosto	2023-08-25T00:00:00	2024-11-08T07:00:00	3	Temperatura mínima	17.6
168580	7	Sololá	719	Santiago Atitlán	14	Cerro de Oro	8	Agosto	2023-08-25T00:00:00	2024-11-08T07:00:00	5	Humedad	87
168581	7	Sololá	719	Santiago Atitlán	14	Cerro de Oro	8	Agosto	2023-08-25T00:00:00	2024-11-08T07:00:00	6	Velocidad del viento	3.2
168582	7	Sololá	719	Santiago Atitlán	14	Cerro de Oro	8	Agosto	2023-08-25T00:00:00	2024-11-08T07:00:00	7	Dirección del viento	3.22
168583	7	Sololá	719	Santiago Atitlán	14	Cerro de Oro	8	Agosto	2023-08-25T00:00:00	2024-11-08T07:00:00	1	Precipitación	0
168584	7	Sololá	719	Santiago Atitlán	14	Cerro de Oro	8	Agosto	2023-08-25T00:00:00	2024-11-08T07:00:00	8	Radiación solar	26
168585	7	Sololá	719	Santiago Atitlán	14	Cerro de Oro	8	Agosto	2023-08-25T00:00:00	2024-11-08T08:00:00	2	Temperatura media	21.3
168586	7	Sololá	719	Santiago Atitlán	14	Cerro de Oro	8	Agosto	2023-08-25T00:00:00	2024-11-08T08:00:00	4	Temperatura máxima	21.3
168587	7	Sololá	719	Santiago Atitlán	14	Cerro de Oro	8	Agosto	2023-08-25T00:00:00	2024-11-08T08:00:00	3	Temperatura mínima	18.2
168588	7	Sololá	719	Santiago Atitlán	14	Cerro de Oro	8	Agosto	2023-08-25T00:00:00	2024-11-08T08:00:00	5	Humedad	80
168589	7	Sololá	719	Santiago Atitlán	14	Cerro de Oro	8	Agosto	2023-08-25T00:00:00	2024-11-08T08:00:00	6	Velocidad del viento	1.6
168590	7	Sololá	719	Santiago Atitlán	14	Cerro de Oro	8	Agosto	2023-08-25T00:00:00	2024-11-08T08:00:00	7	Dirección del viento	1.61
168591	7	Sololá	719	Santiago Atitlán	14	Cerro de Oro	8	Agosto	2023-08-25T00:00:00	2024-11-08T08:00:00	1	Precipitación	0
168592	7	Sololá	719	Santiago Atitlán	14	Cerro de Oro	8	Agosto	2023-08-25T00:00:00	2024-11-08T08:00:00	8	Radiación solar	258
168593	7	Sololá	719	Santiago Atitlán	14	Cerro de Oro	8	Agosto	2023-08-25T00:00:00	2024-11-08T09:00:00	2	Temperatura media	21.8
168594	7	Sololá	719	Santiago Atitlán	14	Cerro de Oro	8	Agosto	2023-08-25T00:00:00	2024-11-08T09:00:00	4	Temperatura máxima	21.9
168595	7	Sololá	719	Santiago Atitlán	14	Cerro de Oro	8	Agosto	2023-08-25T00:00:00	2024-11-08T09:00:00	3	Temperatura mínima	21
168596	7	Sololá	719	Santiago Atitlán	14	Cerro de Oro	8	Agosto	2023-08-25T00:00:00	2024-11-08T09:00:00	5	Humedad	79
168597	7	Sololá	719	Santiago Atitlán	14	Cerro de Oro	8	Agosto	2023-08-25T00:00:00	2024-11-08T09:00:00	6	Velocidad del viento	4.8
168598	7	Sololá	719	Santiago Atitlán	14	Cerro de Oro	8	Agosto	2023-08-25T00:00:00	2024-11-08T09:00:00	7	Dirección del viento	4.83
168599	7	Sololá	719	Santiago Atitlán	14	Cerro de Oro	8	Agosto	2023-08-25T00:00:00	2024-11-08T09:00:00	1	Precipitación	0
168600	7	Sololá	719	Santiago Atitlán	14	Cerro de Oro	8	Agosto	2023-08-25T00:00:00	2024-11-08T09:00:00	8	Radiación solar	493
168601	7	Sololá	719	Santiago Atitlán	14	Cerro de Oro	8	Agosto	2023-08-25T00:00:00	2024-11-08T10:00:00	2	Temperatura media	22.7
168602	7	Sololá	719	Santiago Atitlán	14	Cerro de Oro	8	Agosto	2023-08-25T00:00:00	2024-11-08T10:00:00	4	Temperatura máxima	23.1
168603	7	Sololá	719	Santiago Atitlán	14	Cerro de Oro	8	Agosto	2023-08-25T00:00:00	2024-11-08T10:00:00	3	Temperatura mínima	21.7
168604	7	Sololá	719	Santiago Atitlán	14	Cerro de Oro	8	Agosto	2023-08-25T00:00:00	2024-11-08T10:00:00	5	Humedad	76
168605	7	Sololá	719	Santiago Atitlán	14	Cerro de Oro	8	Agosto	2023-08-25T00:00:00	2024-11-08T10:00:00	6	Velocidad del viento	8
168606	7	Sololá	719	Santiago Atitlán	14	Cerro de Oro	8	Agosto	2023-08-25T00:00:00	2024-11-08T10:00:00	7	Dirección del viento	8.05
168607	7	Sololá	719	Santiago Atitlán	14	Cerro de Oro	8	Agosto	2023-08-25T00:00:00	2024-11-08T10:00:00	1	Precipitación	0
168608	7	Sololá	719	Santiago Atitlán	14	Cerro de Oro	8	Agosto	2023-08-25T00:00:00	2024-11-08T10:00:00	8	Radiación solar	611
168609	7	Sololá	719	Santiago Atitlán	14	Cerro de Oro	8	Agosto	2023-08-25T00:00:00	2024-11-08T11:00:00	2	Temperatura media	23.6
168610	7	Sololá	719	Santiago Atitlán	14	Cerro de Oro	8	Agosto	2023-08-25T00:00:00	2024-11-08T11:00:00	4	Temperatura máxima	23.6
168611	7	Sololá	719	Santiago Atitlán	14	Cerro de Oro	8	Agosto	2023-08-25T00:00:00	2024-11-08T11:00:00	3	Temperatura mínima	21.8
168612	7	Sololá	719	Santiago Atitlán	14	Cerro de Oro	8	Agosto	2023-08-25T00:00:00	2024-11-08T11:00:00	5	Humedad	74
168613	7	Sololá	719	Santiago Atitlán	14	Cerro de Oro	8	Agosto	2023-08-25T00:00:00	2024-11-08T11:00:00	6	Velocidad del viento	9.7
168614	7	Sololá	719	Santiago Atitlán	14	Cerro de Oro	8	Agosto	2023-08-25T00:00:00	2024-11-08T11:00:00	7	Dirección del viento	9.66
168615	7	Sololá	719	Santiago Atitlán	14	Cerro de Oro	8	Agosto	2023-08-25T00:00:00	2024-11-08T11:00:00	1	Precipitación	0
168616	7	Sololá	719	Santiago Atitlán	14	Cerro de Oro	8	Agosto	2023-08-25T00:00:00	2024-11-08T11:00:00	8	Radiación solar	867
168617	7	Sololá	719	Santiago Atitlán	14	Cerro de Oro	8	Agosto	2023-08-25T00:00:00	2024-11-08T12:00:00	2	Temperatura media	23.1
168618	7	Sololá	719	Santiago Atitlán	14	Cerro de Oro	8	Agosto	2023-08-25T00:00:00	2024-11-08T12:00:00	4	Temperatura máxima	23.8
168619	7	Sololá	719	Santiago Atitlán	14	Cerro de Oro	8	Agosto	2023-08-25T00:00:00	2024-11-08T12:00:00	3	Temperatura mínima	23.1
168620	7	Sololá	719	Santiago Atitlán	14	Cerro de Oro	8	Agosto	2023-08-25T00:00:00	2024-11-08T12:00:00	5	Humedad	72
168621	7	Sololá	719	Santiago Atitlán	14	Cerro de Oro	8	Agosto	2023-08-25T00:00:00	2024-11-08T12:00:00	6	Velocidad del viento	3.2
168622	7	Sololá	719	Santiago Atitlán	14	Cerro de Oro	8	Agosto	2023-08-25T00:00:00	2024-11-08T12:00:00	7	Dirección del viento	3.22
168623	7	Sololá	719	Santiago Atitlán	14	Cerro de Oro	8	Agosto	2023-08-25T00:00:00	2024-11-08T12:00:00	1	Precipitación	0
168624	7	Sololá	719	Santiago Atitlán	14	Cerro de Oro	8	Agosto	2023-08-25T00:00:00	2024-11-08T12:00:00	8	Radiación solar	395
168625	7	Sololá	719	Santiago Atitlán	14	Cerro de Oro	8	Agosto	2023-08-25T00:00:00	2024-11-08T13:00:00	2	Temperatura media	22.9
168626	7	Sololá	719	Santiago Atitlán	14	Cerro de Oro	8	Agosto	2023-08-25T00:00:00	2024-11-08T13:00:00	4	Temperatura máxima	23.3
168627	7	Sololá	719	Santiago Atitlán	14	Cerro de Oro	8	Agosto	2023-08-25T00:00:00	2024-11-08T13:00:00	3	Temperatura mínima	22.5
168628	7	Sololá	719	Santiago Atitlán	14	Cerro de Oro	8	Agosto	2023-08-25T00:00:00	2024-11-08T13:00:00	5	Humedad	76
168629	7	Sololá	719	Santiago Atitlán	14	Cerro de Oro	8	Agosto	2023-08-25T00:00:00	2024-11-08T13:00:00	6	Velocidad del viento	8
168630	7	Sololá	719	Santiago Atitlán	14	Cerro de Oro	8	Agosto	2023-08-25T00:00:00	2024-11-08T13:00:00	7	Dirección del viento	8.05
168631	7	Sololá	719	Santiago Atitlán	14	Cerro de Oro	8	Agosto	2023-08-25T00:00:00	2024-11-08T13:00:00	1	Precipitación	0
168632	7	Sololá	719	Santiago Atitlán	14	Cerro de Oro	8	Agosto	2023-08-25T00:00:00	2024-11-08T13:00:00	8	Radiación solar	389
168633	7	Sololá	719	Santiago Atitlán	14	Cerro de Oro	8	Agosto	2023-08-25T00:00:00	2024-11-08T14:00:00	2	Temperatura media	22.4
168634	7	Sololá	719	Santiago Atitlán	14	Cerro de Oro	8	Agosto	2023-08-25T00:00:00	2024-11-08T14:00:00	4	Temperatura máxima	22.9
168635	7	Sololá	719	Santiago Atitlán	14	Cerro de Oro	8	Agosto	2023-08-25T00:00:00	2024-11-08T14:00:00	3	Temperatura mínima	22.3
168636	7	Sololá	719	Santiago Atitlán	14	Cerro de Oro	8	Agosto	2023-08-25T00:00:00	2024-11-08T14:00:00	5	Humedad	79
168637	7	Sololá	719	Santiago Atitlán	14	Cerro de Oro	8	Agosto	2023-08-25T00:00:00	2024-11-08T14:00:00	6	Velocidad del viento	9.7
168638	7	Sololá	719	Santiago Atitlán	14	Cerro de Oro	8	Agosto	2023-08-25T00:00:00	2024-11-08T14:00:00	7	Dirección del viento	9.66
168639	7	Sololá	719	Santiago Atitlán	14	Cerro de Oro	8	Agosto	2023-08-25T00:00:00	2024-11-08T14:00:00	1	Precipitación	0
168640	7	Sololá	719	Santiago Atitlán	14	Cerro de Oro	8	Agosto	2023-08-25T00:00:00	2024-11-08T14:00:00	8	Radiación solar	345
168641	7	Sololá	719	Santiago Atitlán	14	Cerro de Oro	8	Agosto	2023-08-25T00:00:00	2024-11-08T15:00:00	2	Temperatura media	21.8
168642	7	Sololá	719	Santiago Atitlán	14	Cerro de Oro	8	Agosto	2023-08-25T00:00:00	2024-11-08T15:00:00	4	Temperatura máxima	22.5
168643	7	Sololá	719	Santiago Atitlán	14	Cerro de Oro	8	Agosto	2023-08-25T00:00:00	2024-11-08T15:00:00	3	Temperatura mínima	21.7
168644	7	Sololá	719	Santiago Atitlán	14	Cerro de Oro	8	Agosto	2023-08-25T00:00:00	2024-11-08T15:00:00	5	Humedad	81
168645	7	Sololá	719	Santiago Atitlán	14	Cerro de Oro	8	Agosto	2023-08-25T00:00:00	2024-11-08T15:00:00	6	Velocidad del viento	11.3
168646	7	Sololá	719	Santiago Atitlán	14	Cerro de Oro	8	Agosto	2023-08-25T00:00:00	2024-11-08T15:00:00	7	Dirección del viento	11.27
168647	7	Sololá	719	Santiago Atitlán	14	Cerro de Oro	8	Agosto	2023-08-25T00:00:00	2024-11-08T15:00:00	1	Precipitación	0
168648	7	Sololá	719	Santiago Atitlán	14	Cerro de Oro	8	Agosto	2023-08-25T00:00:00	2024-11-08T15:00:00	8	Radiación solar	212
168649	7	Sololá	719	Santiago Atitlán	14	Cerro de Oro	8	Agosto	2023-08-25T00:00:00	2024-11-08T16:00:00	2	Temperatura media	21.5
168650	7	Sololá	719	Santiago Atitlán	14	Cerro de Oro	8	Agosto	2023-08-25T00:00:00	2024-11-08T16:00:00	4	Temperatura máxima	22.3
168651	7	Sololá	719	Santiago Atitlán	14	Cerro de Oro	8	Agosto	2023-08-25T00:00:00	2024-11-08T16:00:00	3	Temperatura mínima	21.3
168652	7	Sololá	719	Santiago Atitlán	14	Cerro de Oro	8	Agosto	2023-08-25T00:00:00	2024-11-08T16:00:00	5	Humedad	83
168653	7	Sololá	719	Santiago Atitlán	14	Cerro de Oro	8	Agosto	2023-08-25T00:00:00	2024-11-08T16:00:00	6	Velocidad del viento	11.3
168654	7	Sololá	719	Santiago Atitlán	14	Cerro de Oro	8	Agosto	2023-08-25T00:00:00	2024-11-08T16:00:00	7	Dirección del viento	11.27
168655	7	Sololá	719	Santiago Atitlán	14	Cerro de Oro	8	Agosto	2023-08-25T00:00:00	2024-11-08T16:00:00	1	Precipitación	0
168656	7	Sololá	719	Santiago Atitlán	14	Cerro de Oro	8	Agosto	2023-08-25T00:00:00	2024-11-08T16:00:00	8	Radiación solar	198
168657	7	Sololá	719	Santiago Atitlán	14	Cerro de Oro	8	Agosto	2023-08-25T00:00:00	2024-11-08T17:00:00	2	Temperatura media	21
168658	7	Sololá	719	Santiago Atitlán	14	Cerro de Oro	8	Agosto	2023-08-25T00:00:00	2024-11-08T17:00:00	4	Temperatura máxima	21.9
168659	7	Sololá	719	Santiago Atitlán	14	Cerro de Oro	8	Agosto	2023-08-25T00:00:00	2024-11-08T17:00:00	3	Temperatura mínima	21
168660	7	Sololá	719	Santiago Atitlán	14	Cerro de Oro	8	Agosto	2023-08-25T00:00:00	2024-11-08T17:00:00	5	Humedad	85
168661	7	Sololá	719	Santiago Atitlán	14	Cerro de Oro	8	Agosto	2023-08-25T00:00:00	2024-11-08T17:00:00	6	Velocidad del viento	9.7
168662	7	Sololá	719	Santiago Atitlán	14	Cerro de Oro	8	Agosto	2023-08-25T00:00:00	2024-11-08T17:00:00	7	Dirección del viento	9.66
168663	7	Sololá	719	Santiago Atitlán	14	Cerro de Oro	8	Agosto	2023-08-25T00:00:00	2024-11-08T17:00:00	1	Precipitación	0
168664	7	Sololá	719	Santiago Atitlán	14	Cerro de Oro	8	Agosto	2023-08-25T00:00:00	2024-11-08T17:00:00	8	Radiación solar	187
168665	7	Sololá	719	Santiago Atitlán	14	Cerro de Oro	8	Agosto	2023-08-25T00:00:00	2024-11-08T18:00:00	2	Temperatura media	20.6
168666	7	Sololá	719	Santiago Atitlán	14	Cerro de Oro	8	Agosto	2023-08-25T00:00:00	2024-11-08T18:00:00	4	Temperatura máxima	21
168667	7	Sololá	719	Santiago Atitlán	14	Cerro de Oro	8	Agosto	2023-08-25T00:00:00	2024-11-08T18:00:00	3	Temperatura mínima	20.6
168668	7	Sololá	719	Santiago Atitlán	14	Cerro de Oro	8	Agosto	2023-08-25T00:00:00	2024-11-08T18:00:00	5	Humedad	86
168669	7	Sololá	719	Santiago Atitlán	14	Cerro de Oro	8	Agosto	2023-08-25T00:00:00	2024-11-08T18:00:00	6	Velocidad del viento	4.8
168670	7	Sololá	719	Santiago Atitlán	14	Cerro de Oro	8	Agosto	2023-08-25T00:00:00	2024-11-08T18:00:00	7	Dirección del viento	4.83
168671	7	Sololá	719	Santiago Atitlán	14	Cerro de Oro	8	Agosto	2023-08-25T00:00:00	2024-11-08T18:00:00	1	Precipitación	0
168672	7	Sololá	719	Santiago Atitlán	14	Cerro de Oro	8	Agosto	2023-08-25T00:00:00	2024-11-08T18:00:00	8	Radiación solar	27
168673	7	Sololá	719	Santiago Atitlán	14	Cerro de Oro	8	Agosto	2023-08-25T00:00:00	2024-11-08T19:00:00	2	Temperatura media	20.2
168674	7	Sololá	719	Santiago Atitlán	14	Cerro de Oro	8	Agosto	2023-08-25T00:00:00	2024-11-08T19:00:00	4	Temperatura máxima	20.6
168675	7	Sololá	719	Santiago Atitlán	14	Cerro de Oro	8	Agosto	2023-08-25T00:00:00	2024-11-08T19:00:00	3	Temperatura mínima	20.2
168676	7	Sololá	719	Santiago Atitlán	14	Cerro de Oro	8	Agosto	2023-08-25T00:00:00	2024-11-08T19:00:00	5	Humedad	86
168677	7	Sololá	719	Santiago Atitlán	14	Cerro de Oro	8	Agosto	2023-08-25T00:00:00	2024-11-08T19:00:00	6	Velocidad del viento	3.2
168678	7	Sololá	719	Santiago Atitlán	14	Cerro de Oro	8	Agosto	2023-08-25T00:00:00	2024-11-08T19:00:00	7	Dirección del viento	3.22
168679	7	Sololá	719	Santiago Atitlán	14	Cerro de Oro	8	Agosto	2023-08-25T00:00:00	2024-11-08T19:00:00	1	Precipitación	0
168680	7	Sololá	719	Santiago Atitlán	14	Cerro de Oro	8	Agosto	2023-08-25T00:00:00	2024-11-08T19:00:00	8	Radiación solar	0
168681	7	Sololá	719	Santiago Atitlán	14	Cerro de Oro	8	Agosto	2023-08-25T00:00:00	2024-11-08T20:00:00	2	Temperatura media	19.3
168682	7	Sololá	719	Santiago Atitlán	14	Cerro de Oro	8	Agosto	2023-08-25T00:00:00	2024-11-08T20:00:00	4	Temperatura máxima	20.2
168683	7	Sololá	719	Santiago Atitlán	14	Cerro de Oro	8	Agosto	2023-08-25T00:00:00	2024-11-08T20:00:00	3	Temperatura mínima	19.3
168684	7	Sololá	719	Santiago Atitlán	14	Cerro de Oro	8	Agosto	2023-08-25T00:00:00	2024-11-08T20:00:00	5	Humedad	89
168685	7	Sololá	719	Santiago Atitlán	14	Cerro de Oro	8	Agosto	2023-08-25T00:00:00	2024-11-08T20:00:00	6	Velocidad del viento	3.2
168686	7	Sololá	719	Santiago Atitlán	14	Cerro de Oro	8	Agosto	2023-08-25T00:00:00	2024-11-08T20:00:00	7	Dirección del viento	3.22
168687	7	Sololá	719	Santiago Atitlán	14	Cerro de Oro	8	Agosto	2023-08-25T00:00:00	2024-11-08T20:00:00	1	Precipitación	0
168688	7	Sololá	719	Santiago Atitlán	14	Cerro de Oro	8	Agosto	2023-08-25T00:00:00	2024-11-08T20:00:00	8	Radiación solar	0
168689	7	Sololá	719	Santiago Atitlán	14	Cerro de Oro	8	Agosto	2023-08-25T00:00:00	2024-11-08T21:00:00	2	Temperatura media	19.2
168690	7	Sololá	719	Santiago Atitlán	14	Cerro de Oro	8	Agosto	2023-08-25T00:00:00	2024-11-08T21:00:00	4	Temperatura máxima	19.4
168691	7	Sololá	719	Santiago Atitlán	14	Cerro de Oro	8	Agosto	2023-08-25T00:00:00	2024-11-08T21:00:00	3	Temperatura mínima	19.2
168692	7	Sololá	719	Santiago Atitlán	14	Cerro de Oro	8	Agosto	2023-08-25T00:00:00	2024-11-08T21:00:00	5	Humedad	89
168693	7	Sololá	719	Santiago Atitlán	14	Cerro de Oro	8	Agosto	2023-08-25T00:00:00	2024-11-08T21:00:00	6	Velocidad del viento	3.2
168694	7	Sololá	719	Santiago Atitlán	14	Cerro de Oro	8	Agosto	2023-08-25T00:00:00	2024-11-08T21:00:00	7	Dirección del viento	3.22
168695	7	Sololá	719	Santiago Atitlán	14	Cerro de Oro	8	Agosto	2023-08-25T00:00:00	2024-11-08T21:00:00	1	Precipitación	0
168696	7	Sololá	719	Santiago Atitlán	14	Cerro de Oro	8	Agosto	2023-08-25T00:00:00	2024-11-08T21:00:00	8	Radiación solar	0
168697	7	Sololá	719	Santiago Atitlán	14	Cerro de Oro	8	Agosto	2023-08-25T00:00:00	2024-11-08T22:00:00	2	Temperatura media	19.2
168698	7	Sololá	719	Santiago Atitlán	14	Cerro de Oro	8	Agosto	2023-08-25T00:00:00	2024-11-08T22:00:00	4	Temperatura máxima	19.4
168699	7	Sololá	719	Santiago Atitlán	14	Cerro de Oro	8	Agosto	2023-08-25T00:00:00	2024-11-08T22:00:00	3	Temperatura mínima	18.9
168700	7	Sololá	719	Santiago Atitlán	14	Cerro de Oro	8	Agosto	2023-08-25T00:00:00	2024-11-08T22:00:00	5	Humedad	88
168701	7	Sololá	719	Santiago Atitlán	14	Cerro de Oro	8	Agosto	2023-08-25T00:00:00	2024-11-08T22:00:00	6	Velocidad del viento	3.2
168702	7	Sololá	719	Santiago Atitlán	14	Cerro de Oro	8	Agosto	2023-08-25T00:00:00	2024-11-08T22:00:00	7	Dirección del viento	3.22
168703	7	Sololá	719	Santiago Atitlán	14	Cerro de Oro	8	Agosto	2023-08-25T00:00:00	2024-11-08T22:00:00	1	Precipitación	0
168704	7	Sololá	719	Santiago Atitlán	14	Cerro de Oro	8	Agosto	2023-08-25T00:00:00	2024-11-08T22:00:00	8	Radiación solar	0
168705	7	Sololá	719	Santiago Atitlán	14	Cerro de Oro	8	Agosto	2023-08-25T00:00:00	2024-11-08T23:00:00	2	Temperatura media	18.7
168706	7	Sololá	719	Santiago Atitlán	14	Cerro de Oro	8	Agosto	2023-08-25T00:00:00	2024-11-08T23:00:00	4	Temperatura máxima	19.2
168707	7	Sololá	719	Santiago Atitlán	14	Cerro de Oro	8	Agosto	2023-08-25T00:00:00	2024-11-08T23:00:00	3	Temperatura mínima	18.4
168708	7	Sololá	719	Santiago Atitlán	14	Cerro de Oro	8	Agosto	2023-08-25T00:00:00	2024-11-08T23:00:00	5	Humedad	89
168709	7	Sololá	719	Santiago Atitlán	14	Cerro de Oro	8	Agosto	2023-08-25T00:00:00	2024-11-08T23:00:00	6	Velocidad del viento	3.2
168710	7	Sololá	719	Santiago Atitlán	14	Cerro de Oro	8	Agosto	2023-08-25T00:00:00	2024-11-08T23:00:00	7	Dirección del viento	3.22
168711	7	Sololá	719	Santiago Atitlán	14	Cerro de Oro	8	Agosto	2023-08-25T00:00:00	2024-11-08T23:00:00	1	Precipitación	0
168712	7	Sololá	719	Santiago Atitlán	14	Cerro de Oro	8	Agosto	2023-08-25T00:00:00	2024-11-08T23:00:00	8	Radiación solar	0
168713	7	Sololá	719	Santiago Atitlán	14	Cerro de Oro	8	Agosto	2023-08-26T00:00:00	2024-11-08T00:00:00	2	Temperatura media	18.5
168714	7	Sololá	719	Santiago Atitlán	14	Cerro de Oro	8	Agosto	2023-08-26T00:00:00	2024-11-08T00:00:00	4	Temperatura máxima	18.8
168715	7	Sololá	719	Santiago Atitlán	14	Cerro de Oro	8	Agosto	2023-08-26T00:00:00	2024-11-08T00:00:00	3	Temperatura mínima	18.3
168716	7	Sololá	719	Santiago Atitlán	14	Cerro de Oro	8	Agosto	2023-08-26T00:00:00	2024-11-08T00:00:00	5	Humedad	88
168717	7	Sololá	719	Santiago Atitlán	14	Cerro de Oro	8	Agosto	2023-08-26T00:00:00	2024-11-08T00:00:00	6	Velocidad del viento	3.2
168718	7	Sololá	719	Santiago Atitlán	14	Cerro de Oro	8	Agosto	2023-08-26T00:00:00	2024-11-08T00:00:00	7	Dirección del viento	3.22
168719	7	Sololá	719	Santiago Atitlán	14	Cerro de Oro	8	Agosto	2023-08-26T00:00:00	2024-11-08T00:00:00	1	Precipitación	0
168720	7	Sololá	719	Santiago Atitlán	14	Cerro de Oro	8	Agosto	2023-08-26T00:00:00	2024-11-08T00:00:00	8	Radiación solar	0
168721	7	Sololá	719	Santiago Atitlán	14	Cerro de Oro	8	Agosto	2023-08-26T00:00:00	2024-11-08T01:00:00	2	Temperatura media	18.2
168722	7	Sololá	719	Santiago Atitlán	14	Cerro de Oro	8	Agosto	2023-08-26T00:00:00	2024-11-08T01:00:00	4	Temperatura máxima	18.4
168723	7	Sololá	719	Santiago Atitlán	14	Cerro de Oro	8	Agosto	2023-08-26T00:00:00	2024-11-08T01:00:00	3	Temperatura mínima	18.2
168724	7	Sololá	719	Santiago Atitlán	14	Cerro de Oro	8	Agosto	2023-08-26T00:00:00	2024-11-08T01:00:00	5	Humedad	88
168725	7	Sololá	719	Santiago Atitlán	14	Cerro de Oro	8	Agosto	2023-08-26T00:00:00	2024-11-08T01:00:00	6	Velocidad del viento	4.8
168726	7	Sololá	719	Santiago Atitlán	14	Cerro de Oro	8	Agosto	2023-08-26T00:00:00	2024-11-08T01:00:00	7	Dirección del viento	4.83
168727	7	Sololá	719	Santiago Atitlán	14	Cerro de Oro	8	Agosto	2023-08-26T00:00:00	2024-11-08T01:00:00	1	Precipitación	0
168728	7	Sololá	719	Santiago Atitlán	14	Cerro de Oro	8	Agosto	2023-08-26T00:00:00	2024-11-08T01:00:00	8	Radiación solar	0
168729	7	Sololá	719	Santiago Atitlán	14	Cerro de Oro	8	Agosto	2023-08-26T00:00:00	2024-11-08T02:00:00	2	Temperatura media	18.1
168730	7	Sololá	719	Santiago Atitlán	14	Cerro de Oro	8	Agosto	2023-08-26T00:00:00	2024-11-08T02:00:00	4	Temperatura máxima	18.3
168731	7	Sololá	719	Santiago Atitlán	14	Cerro de Oro	8	Agosto	2023-08-26T00:00:00	2024-11-08T02:00:00	3	Temperatura mínima	17.9
168732	7	Sololá	719	Santiago Atitlán	14	Cerro de Oro	8	Agosto	2023-08-26T00:00:00	2024-11-08T02:00:00	5	Humedad	89
168733	7	Sololá	719	Santiago Atitlán	14	Cerro de Oro	8	Agosto	2023-08-26T00:00:00	2024-11-08T02:00:00	6	Velocidad del viento	3.2
168734	7	Sololá	719	Santiago Atitlán	14	Cerro de Oro	8	Agosto	2023-08-26T00:00:00	2024-11-08T02:00:00	7	Dirección del viento	3.22
168735	7	Sololá	719	Santiago Atitlán	14	Cerro de Oro	8	Agosto	2023-08-26T00:00:00	2024-11-08T02:00:00	1	Precipitación	0
168736	7	Sololá	719	Santiago Atitlán	14	Cerro de Oro	8	Agosto	2023-08-26T00:00:00	2024-11-08T02:00:00	8	Radiación solar	0
168737	7	Sololá	719	Santiago Atitlán	14	Cerro de Oro	8	Agosto	2023-08-26T00:00:00	2024-11-08T03:00:00	2	Temperatura media	18.3
168738	7	Sololá	719	Santiago Atitlán	14	Cerro de Oro	8	Agosto	2023-08-26T00:00:00	2024-11-08T03:00:00	4	Temperatura máxima	18.3
168739	7	Sololá	719	Santiago Atitlán	14	Cerro de Oro	8	Agosto	2023-08-26T00:00:00	2024-11-08T03:00:00	3	Temperatura mínima	17.9
168740	7	Sololá	719	Santiago Atitlán	14	Cerro de Oro	8	Agosto	2023-08-26T00:00:00	2024-11-08T03:00:00	5	Humedad	88
168741	7	Sololá	719	Santiago Atitlán	14	Cerro de Oro	8	Agosto	2023-08-26T00:00:00	2024-11-08T03:00:00	6	Velocidad del viento	3.2
168742	7	Sololá	719	Santiago Atitlán	14	Cerro de Oro	8	Agosto	2023-08-26T00:00:00	2024-11-08T03:00:00	7	Dirección del viento	3.22
168743	7	Sololá	719	Santiago Atitlán	14	Cerro de Oro	8	Agosto	2023-08-26T00:00:00	2024-11-08T03:00:00	1	Precipitación	0
168744	7	Sololá	719	Santiago Atitlán	14	Cerro de Oro	8	Agosto	2023-08-26T00:00:00	2024-11-08T03:00:00	8	Radiación solar	0
168745	7	Sololá	719	Santiago Atitlán	14	Cerro de Oro	8	Agosto	2023-08-26T00:00:00	2024-11-08T04:00:00	2	Temperatura media	18.4
168746	7	Sololá	719	Santiago Atitlán	14	Cerro de Oro	8	Agosto	2023-08-26T00:00:00	2024-11-08T04:00:00	4	Temperatura máxima	18.8
168747	7	Sololá	719	Santiago Atitlán	14	Cerro de Oro	8	Agosto	2023-08-26T00:00:00	2024-11-08T04:00:00	3	Temperatura mínima	18.3
168748	7	Sololá	719	Santiago Atitlán	14	Cerro de Oro	8	Agosto	2023-08-26T00:00:00	2024-11-08T04:00:00	5	Humedad	88
168749	7	Sololá	719	Santiago Atitlán	14	Cerro de Oro	8	Agosto	2023-08-26T00:00:00	2024-11-08T04:00:00	6	Velocidad del viento	1.6
168750	7	Sololá	719	Santiago Atitlán	14	Cerro de Oro	8	Agosto	2023-08-26T00:00:00	2024-11-08T04:00:00	7	Dirección del viento	1.61
168751	7	Sololá	719	Santiago Atitlán	14	Cerro de Oro	8	Agosto	2023-08-26T00:00:00	2024-11-08T04:00:00	1	Precipitación	0
168752	7	Sololá	719	Santiago Atitlán	14	Cerro de Oro	8	Agosto	2023-08-26T00:00:00	2024-11-08T04:00:00	8	Radiación solar	0
168753	7	Sololá	719	Santiago Atitlán	14	Cerro de Oro	8	Agosto	2023-08-26T00:00:00	2024-11-08T05:00:00	2	Temperatura media	18.2
168754	7	Sololá	719	Santiago Atitlán	14	Cerro de Oro	8	Agosto	2023-08-26T00:00:00	2024-11-08T05:00:00	4	Temperatura máxima	18.4
168755	7	Sololá	719	Santiago Atitlán	14	Cerro de Oro	8	Agosto	2023-08-26T00:00:00	2024-11-08T05:00:00	3	Temperatura mínima	18.1
168756	7	Sololá	719	Santiago Atitlán	14	Cerro de Oro	8	Agosto	2023-08-26T00:00:00	2024-11-08T05:00:00	5	Humedad	89
168757	7	Sololá	719	Santiago Atitlán	14	Cerro de Oro	8	Agosto	2023-08-26T00:00:00	2024-11-08T05:00:00	6	Velocidad del viento	4.8
168758	7	Sololá	719	Santiago Atitlán	14	Cerro de Oro	8	Agosto	2023-08-26T00:00:00	2024-11-08T05:00:00	7	Dirección del viento	4.83
168759	7	Sololá	719	Santiago Atitlán	14	Cerro de Oro	8	Agosto	2023-08-26T00:00:00	2024-11-08T05:00:00	1	Precipitación	0
168760	7	Sololá	719	Santiago Atitlán	14	Cerro de Oro	8	Agosto	2023-08-26T00:00:00	2024-11-08T05:00:00	8	Radiación solar	0
168761	7	Sololá	719	Santiago Atitlán	14	Cerro de Oro	8	Agosto	2023-08-26T00:00:00	2024-11-08T06:00:00	2	Temperatura media	18.5
168762	7	Sololá	719	Santiago Atitlán	14	Cerro de Oro	8	Agosto	2023-08-26T00:00:00	2024-11-08T06:00:00	4	Temperatura máxima	18.6
168763	7	Sololá	719	Santiago Atitlán	14	Cerro de Oro	8	Agosto	2023-08-26T00:00:00	2024-11-08T06:00:00	3	Temperatura mínima	18.3
168764	7	Sololá	719	Santiago Atitlán	14	Cerro de Oro	8	Agosto	2023-08-26T00:00:00	2024-11-08T06:00:00	5	Humedad	87
168765	7	Sololá	719	Santiago Atitlán	14	Cerro de Oro	8	Agosto	2023-08-26T00:00:00	2024-11-08T06:00:00	6	Velocidad del viento	4.8
168766	7	Sololá	719	Santiago Atitlán	14	Cerro de Oro	8	Agosto	2023-08-26T00:00:00	2024-11-08T06:00:00	7	Dirección del viento	4.83
168767	7	Sololá	719	Santiago Atitlán	14	Cerro de Oro	8	Agosto	2023-08-26T00:00:00	2024-11-08T06:00:00	1	Precipitación	0
168768	7	Sololá	719	Santiago Atitlán	14	Cerro de Oro	8	Agosto	2023-08-26T00:00:00	2024-11-08T06:00:00	8	Radiación solar	1
168769	7	Sololá	719	Santiago Atitlán	14	Cerro de Oro	8	Agosto	2023-08-26T00:00:00	2024-11-08T07:00:00	2	Temperatura media	20.8
168770	7	Sololá	719	Santiago Atitlán	14	Cerro de Oro	8	Agosto	2023-08-26T00:00:00	2024-11-08T07:00:00	4	Temperatura máxima	20.8
168771	7	Sololá	719	Santiago Atitlán	14	Cerro de Oro	8	Agosto	2023-08-26T00:00:00	2024-11-08T07:00:00	3	Temperatura mínima	18.4
168772	7	Sololá	719	Santiago Atitlán	14	Cerro de Oro	8	Agosto	2023-08-26T00:00:00	2024-11-08T07:00:00	5	Humedad	83
168773	7	Sololá	719	Santiago Atitlán	14	Cerro de Oro	8	Agosto	2023-08-26T00:00:00	2024-11-08T07:00:00	6	Velocidad del viento	1.6
168774	7	Sololá	719	Santiago Atitlán	14	Cerro de Oro	8	Agosto	2023-08-26T00:00:00	2024-11-08T07:00:00	7	Dirección del viento	1.61
168775	7	Sololá	719	Santiago Atitlán	14	Cerro de Oro	8	Agosto	2023-08-26T00:00:00	2024-11-08T07:00:00	1	Precipitación	0
168776	7	Sololá	719	Santiago Atitlán	14	Cerro de Oro	8	Agosto	2023-08-26T00:00:00	2024-11-08T07:00:00	8	Radiación solar	81
168777	7	Sololá	719	Santiago Atitlán	14	Cerro de Oro	8	Agosto	2023-08-26T00:00:00	2024-11-08T08:00:00	2	Temperatura media	21.7
168778	7	Sololá	719	Santiago Atitlán	14	Cerro de Oro	8	Agosto	2023-08-26T00:00:00	2024-11-08T08:00:00	4	Temperatura máxima	21.8
168779	7	Sololá	719	Santiago Atitlán	14	Cerro de Oro	8	Agosto	2023-08-26T00:00:00	2024-11-08T08:00:00	3	Temperatura mínima	20.8
168780	7	Sololá	719	Santiago Atitlán	14	Cerro de Oro	8	Agosto	2023-08-26T00:00:00	2024-11-08T08:00:00	5	Humedad	78
168781	7	Sololá	719	Santiago Atitlán	14	Cerro de Oro	8	Agosto	2023-08-26T00:00:00	2024-11-08T08:00:00	6	Velocidad del viento	3.2
168782	7	Sololá	719	Santiago Atitlán	14	Cerro de Oro	8	Agosto	2023-08-26T00:00:00	2024-11-08T08:00:00	7	Dirección del viento	3.22
168783	7	Sololá	719	Santiago Atitlán	14	Cerro de Oro	8	Agosto	2023-08-26T00:00:00	2024-11-08T08:00:00	1	Precipitación	0
168784	7	Sololá	719	Santiago Atitlán	14	Cerro de Oro	8	Agosto	2023-08-26T00:00:00	2024-11-08T08:00:00	8	Radiación solar	245
168785	7	Sololá	719	Santiago Atitlán	14	Cerro de Oro	8	Agosto	2023-08-26T00:00:00	2024-11-08T09:00:00	2	Temperatura media	22.1
168786	7	Sololá	719	Santiago Atitlán	14	Cerro de Oro	8	Agosto	2023-08-26T00:00:00	2024-11-08T09:00:00	4	Temperatura máxima	22.2
168787	7	Sololá	719	Santiago Atitlán	14	Cerro de Oro	8	Agosto	2023-08-26T00:00:00	2024-11-08T09:00:00	3	Temperatura mínima	21.6
168788	7	Sololá	719	Santiago Atitlán	14	Cerro de Oro	8	Agosto	2023-08-26T00:00:00	2024-11-08T09:00:00	5	Humedad	78
168789	7	Sololá	719	Santiago Atitlán	14	Cerro de Oro	8	Agosto	2023-08-26T00:00:00	2024-11-08T09:00:00	6	Velocidad del viento	4.8
168790	7	Sololá	719	Santiago Atitlán	14	Cerro de Oro	8	Agosto	2023-08-26T00:00:00	2024-11-08T09:00:00	7	Dirección del viento	4.83
168791	7	Sololá	719	Santiago Atitlán	14	Cerro de Oro	8	Agosto	2023-08-26T00:00:00	2024-11-08T09:00:00	1	Precipitación	0
168792	7	Sololá	719	Santiago Atitlán	14	Cerro de Oro	8	Agosto	2023-08-26T00:00:00	2024-11-08T09:00:00	8	Radiación solar	432
168793	7	Sololá	719	Santiago Atitlán	14	Cerro de Oro	8	Agosto	2023-08-26T00:00:00	2024-11-08T10:00:00	2	Temperatura media	23.5
168794	7	Sololá	719	Santiago Atitlán	14	Cerro de Oro	8	Agosto	2023-08-26T00:00:00	2024-11-08T10:00:00	4	Temperatura máxima	23.5
168795	7	Sololá	719	Santiago Atitlán	14	Cerro de Oro	8	Agosto	2023-08-26T00:00:00	2024-11-08T10:00:00	3	Temperatura mínima	22
168796	7	Sololá	719	Santiago Atitlán	14	Cerro de Oro	8	Agosto	2023-08-26T00:00:00	2024-11-08T10:00:00	5	Humedad	77
168797	7	Sololá	719	Santiago Atitlán	14	Cerro de Oro	8	Agosto	2023-08-26T00:00:00	2024-11-08T10:00:00	6	Velocidad del viento	6.4
168798	7	Sololá	719	Santiago Atitlán	14	Cerro de Oro	8	Agosto	2023-08-26T00:00:00	2024-11-08T10:00:00	7	Dirección del viento	6.44
168799	7	Sololá	719	Santiago Atitlán	14	Cerro de Oro	8	Agosto	2023-08-26T00:00:00	2024-11-08T10:00:00	1	Precipitación	0
168800	7	Sololá	719	Santiago Atitlán	14	Cerro de Oro	8	Agosto	2023-08-26T00:00:00	2024-11-08T10:00:00	8	Radiación solar	572
168801	7	Sololá	719	Santiago Atitlán	14	Cerro de Oro	8	Agosto	2023-08-26T00:00:00	2024-11-08T11:00:00	2	Temperatura media	25.2
168802	7	Sololá	719	Santiago Atitlán	14	Cerro de Oro	8	Agosto	2023-08-26T00:00:00	2024-11-08T11:00:00	4	Temperatura máxima	25.2
168803	7	Sololá	719	Santiago Atitlán	14	Cerro de Oro	8	Agosto	2023-08-26T00:00:00	2024-11-08T11:00:00	3	Temperatura mínima	23.4
168804	7	Sololá	719	Santiago Atitlán	14	Cerro de Oro	8	Agosto	2023-08-26T00:00:00	2024-11-08T11:00:00	5	Humedad	70
168805	7	Sololá	719	Santiago Atitlán	14	Cerro de Oro	8	Agosto	2023-08-26T00:00:00	2024-11-08T11:00:00	6	Velocidad del viento	6.4
168806	7	Sololá	719	Santiago Atitlán	14	Cerro de Oro	8	Agosto	2023-08-26T00:00:00	2024-11-08T11:00:00	7	Dirección del viento	6.44
168807	7	Sololá	719	Santiago Atitlán	14	Cerro de Oro	8	Agosto	2023-08-26T00:00:00	2024-11-08T11:00:00	1	Precipitación	0
168808	7	Sololá	719	Santiago Atitlán	14	Cerro de Oro	8	Agosto	2023-08-26T00:00:00	2024-11-08T11:00:00	8	Radiación solar	817
168809	7	Sololá	719	Santiago Atitlán	14	Cerro de Oro	8	Agosto	2023-08-26T00:00:00	2024-11-08T12:00:00	2	Temperatura media	24.9
168810	7	Sololá	719	Santiago Atitlán	14	Cerro de Oro	8	Agosto	2023-08-26T00:00:00	2024-11-08T12:00:00	4	Temperatura máxima	26.1
168811	7	Sololá	719	Santiago Atitlán	14	Cerro de Oro	8	Agosto	2023-08-26T00:00:00	2024-11-08T12:00:00	3	Temperatura mínima	24.8
168812	7	Sololá	719	Santiago Atitlán	14	Cerro de Oro	8	Agosto	2023-08-26T00:00:00	2024-11-08T12:00:00	5	Humedad	72
168813	7	Sololá	719	Santiago Atitlán	14	Cerro de Oro	8	Agosto	2023-08-26T00:00:00	2024-11-08T12:00:00	6	Velocidad del viento	8
168814	7	Sololá	719	Santiago Atitlán	14	Cerro de Oro	8	Agosto	2023-08-26T00:00:00	2024-11-08T12:00:00	7	Dirección del viento	8.05
168815	7	Sololá	719	Santiago Atitlán	14	Cerro de Oro	8	Agosto	2023-08-26T00:00:00	2024-11-08T12:00:00	1	Precipitación	0
168816	7	Sololá	719	Santiago Atitlán	14	Cerro de Oro	8	Agosto	2023-08-26T00:00:00	2024-11-08T12:00:00	8	Radiación solar	978
168817	7	Sololá	719	Santiago Atitlán	14	Cerro de Oro	8	Agosto	2023-08-26T00:00:00	2024-11-08T13:00:00	2	Temperatura media	23.4
168818	7	Sololá	719	Santiago Atitlán	14	Cerro de Oro	8	Agosto	2023-08-26T00:00:00	2024-11-08T13:00:00	4	Temperatura máxima	24.9
168819	7	Sololá	719	Santiago Atitlán	14	Cerro de Oro	8	Agosto	2023-08-26T00:00:00	2024-11-08T13:00:00	3	Temperatura mínima	23
168820	7	Sololá	719	Santiago Atitlán	14	Cerro de Oro	8	Agosto	2023-08-26T00:00:00	2024-11-08T13:00:00	5	Humedad	77
168821	7	Sololá	719	Santiago Atitlán	14	Cerro de Oro	8	Agosto	2023-08-26T00:00:00	2024-11-08T13:00:00	6	Velocidad del viento	11.3
168822	7	Sololá	719	Santiago Atitlán	14	Cerro de Oro	8	Agosto	2023-08-26T00:00:00	2024-11-08T13:00:00	7	Dirección del viento	11.27
168823	7	Sololá	719	Santiago Atitlán	14	Cerro de Oro	8	Agosto	2023-08-26T00:00:00	2024-11-08T13:00:00	1	Precipitación	0
168824	7	Sololá	719	Santiago Atitlán	14	Cerro de Oro	8	Agosto	2023-08-26T00:00:00	2024-11-08T13:00:00	8	Radiación solar	491
168825	7	Sololá	719	Santiago Atitlán	14	Cerro de Oro	8	Agosto	2023-08-26T00:00:00	2024-11-08T14:00:00	2	Temperatura media	23
168826	7	Sololá	719	Santiago Atitlán	14	Cerro de Oro	8	Agosto	2023-08-26T00:00:00	2024-11-08T14:00:00	4	Temperatura máxima	23.7
168827	7	Sololá	719	Santiago Atitlán	14	Cerro de Oro	8	Agosto	2023-08-26T00:00:00	2024-11-08T14:00:00	3	Temperatura mínima	22.6
168828	7	Sololá	719	Santiago Atitlán	14	Cerro de Oro	8	Agosto	2023-08-26T00:00:00	2024-11-08T14:00:00	5	Humedad	78
168829	7	Sololá	719	Santiago Atitlán	14	Cerro de Oro	8	Agosto	2023-08-26T00:00:00	2024-11-08T14:00:00	6	Velocidad del viento	12.9
168830	7	Sololá	719	Santiago Atitlán	14	Cerro de Oro	8	Agosto	2023-08-26T00:00:00	2024-11-08T14:00:00	7	Dirección del viento	12.87
168831	7	Sololá	719	Santiago Atitlán	14	Cerro de Oro	8	Agosto	2023-08-26T00:00:00	2024-11-08T14:00:00	1	Precipitación	0
168832	7	Sololá	719	Santiago Atitlán	14	Cerro de Oro	8	Agosto	2023-08-26T00:00:00	2024-11-08T14:00:00	8	Radiación solar	354
168833	7	Sololá	719	Santiago Atitlán	14	Cerro de Oro	8	Agosto	2023-08-26T00:00:00	2024-11-08T15:00:00	2	Temperatura media	22.1
168834	7	Sololá	719	Santiago Atitlán	14	Cerro de Oro	8	Agosto	2023-08-26T00:00:00	2024-11-08T15:00:00	4	Temperatura máxima	23
168835	7	Sololá	719	Santiago Atitlán	14	Cerro de Oro	8	Agosto	2023-08-26T00:00:00	2024-11-08T15:00:00	3	Temperatura mínima	22.1
168836	7	Sololá	719	Santiago Atitlán	14	Cerro de Oro	8	Agosto	2023-08-26T00:00:00	2024-11-08T15:00:00	5	Humedad	82
168837	7	Sololá	719	Santiago Atitlán	14	Cerro de Oro	8	Agosto	2023-08-26T00:00:00	2024-11-08T15:00:00	6	Velocidad del viento	11.3
168838	7	Sololá	719	Santiago Atitlán	14	Cerro de Oro	8	Agosto	2023-08-26T00:00:00	2024-11-08T15:00:00	7	Dirección del viento	11.27
168839	7	Sololá	719	Santiago Atitlán	14	Cerro de Oro	8	Agosto	2023-08-26T00:00:00	2024-11-08T15:00:00	1	Precipitación	0
168840	7	Sololá	719	Santiago Atitlán	14	Cerro de Oro	8	Agosto	2023-08-26T00:00:00	2024-11-08T15:00:00	8	Radiación solar	232
168841	7	Sololá	719	Santiago Atitlán	14	Cerro de Oro	8	Agosto	2023-08-26T00:00:00	2024-11-08T16:00:00	2	Temperatura media	21.8
168842	7	Sololá	719	Santiago Atitlán	14	Cerro de Oro	8	Agosto	2023-08-26T00:00:00	2024-11-08T16:00:00	4	Temperatura máxima	22.1
168843	7	Sololá	719	Santiago Atitlán	14	Cerro de Oro	8	Agosto	2023-08-26T00:00:00	2024-11-08T16:00:00	3	Temperatura mínima	21.7
168844	7	Sololá	719	Santiago Atitlán	14	Cerro de Oro	8	Agosto	2023-08-26T00:00:00	2024-11-08T16:00:00	5	Humedad	83
168845	7	Sololá	719	Santiago Atitlán	14	Cerro de Oro	8	Agosto	2023-08-26T00:00:00	2024-11-08T16:00:00	6	Velocidad del viento	9.7
168846	7	Sololá	719	Santiago Atitlán	14	Cerro de Oro	8	Agosto	2023-08-26T00:00:00	2024-11-08T16:00:00	7	Dirección del viento	9.66
168847	7	Sololá	719	Santiago Atitlán	14	Cerro de Oro	8	Agosto	2023-08-26T00:00:00	2024-11-08T16:00:00	1	Precipitación	0
168848	7	Sololá	719	Santiago Atitlán	14	Cerro de Oro	8	Agosto	2023-08-26T00:00:00	2024-11-08T16:00:00	8	Radiación solar	232
168849	7	Sololá	719	Santiago Atitlán	14	Cerro de Oro	8	Agosto	2023-08-26T00:00:00	2024-11-08T17:00:00	2	Temperatura media	22.2
168850	7	Sololá	719	Santiago Atitlán	14	Cerro de Oro	8	Agosto	2023-08-26T00:00:00	2024-11-08T17:00:00	4	Temperatura máxima	22.6
168851	7	Sololá	719	Santiago Atitlán	14	Cerro de Oro	8	Agosto	2023-08-26T00:00:00	2024-11-08T17:00:00	3	Temperatura mínima	21.7
168852	7	Sololá	719	Santiago Atitlán	14	Cerro de Oro	8	Agosto	2023-08-26T00:00:00	2024-11-08T17:00:00	5	Humedad	81
168853	7	Sololá	719	Santiago Atitlán	14	Cerro de Oro	8	Agosto	2023-08-26T00:00:00	2024-11-08T17:00:00	6	Velocidad del viento	8
168854	7	Sololá	719	Santiago Atitlán	14	Cerro de Oro	8	Agosto	2023-08-26T00:00:00	2024-11-08T17:00:00	7	Dirección del viento	8.05
168855	7	Sololá	719	Santiago Atitlán	14	Cerro de Oro	8	Agosto	2023-08-26T00:00:00	2024-11-08T17:00:00	1	Precipitación	0
168856	7	Sololá	719	Santiago Atitlán	14	Cerro de Oro	8	Agosto	2023-08-26T00:00:00	2024-11-08T17:00:00	8	Radiación solar	243
168857	7	Sololá	719	Santiago Atitlán	14	Cerro de Oro	8	Agosto	2023-08-26T00:00:00	2024-11-08T18:00:00	2	Temperatura media	21.1
168858	7	Sololá	719	Santiago Atitlán	14	Cerro de Oro	8	Agosto	2023-08-26T00:00:00	2024-11-08T18:00:00	4	Temperatura máxima	22.2
168859	7	Sololá	719	Santiago Atitlán	14	Cerro de Oro	8	Agosto	2023-08-26T00:00:00	2024-11-08T18:00:00	3	Temperatura mínima	21.1
168860	7	Sololá	719	Santiago Atitlán	14	Cerro de Oro	8	Agosto	2023-08-26T00:00:00	2024-11-08T18:00:00	5	Humedad	85
168861	7	Sololá	719	Santiago Atitlán	14	Cerro de Oro	8	Agosto	2023-08-26T00:00:00	2024-11-08T18:00:00	6	Velocidad del viento	6.4
168862	7	Sololá	719	Santiago Atitlán	14	Cerro de Oro	8	Agosto	2023-08-26T00:00:00	2024-11-08T18:00:00	7	Dirección del viento	6.44
168863	7	Sololá	719	Santiago Atitlán	14	Cerro de Oro	8	Agosto	2023-08-26T00:00:00	2024-11-08T18:00:00	1	Precipitación	0
168864	7	Sololá	719	Santiago Atitlán	14	Cerro de Oro	8	Agosto	2023-08-26T00:00:00	2024-11-08T18:00:00	8	Radiación solar	70
168865	7	Sololá	719	Santiago Atitlán	14	Cerro de Oro	8	Agosto	2023-08-26T00:00:00	2024-11-08T19:00:00	2	Temperatura media	20.4
168866	7	Sololá	719	Santiago Atitlán	14	Cerro de Oro	8	Agosto	2023-08-26T00:00:00	2024-11-08T19:00:00	4	Temperatura máxima	21.1
168867	7	Sololá	719	Santiago Atitlán	14	Cerro de Oro	8	Agosto	2023-08-26T00:00:00	2024-11-08T19:00:00	3	Temperatura mínima	20.4
168868	7	Sololá	719	Santiago Atitlán	14	Cerro de Oro	8	Agosto	2023-08-26T00:00:00	2024-11-08T19:00:00	5	Humedad	87
168869	7	Sololá	719	Santiago Atitlán	14	Cerro de Oro	8	Agosto	2023-08-26T00:00:00	2024-11-08T19:00:00	6	Velocidad del viento	6.4
168870	7	Sololá	719	Santiago Atitlán	14	Cerro de Oro	8	Agosto	2023-08-26T00:00:00	2024-11-08T19:00:00	7	Dirección del viento	6.44
168871	7	Sololá	719	Santiago Atitlán	14	Cerro de Oro	8	Agosto	2023-08-26T00:00:00	2024-11-08T19:00:00	1	Precipitación	0
168872	7	Sololá	719	Santiago Atitlán	14	Cerro de Oro	8	Agosto	2023-08-26T00:00:00	2024-11-08T19:00:00	8	Radiación solar	0
168873	7	Sololá	719	Santiago Atitlán	14	Cerro de Oro	8	Agosto	2023-08-26T00:00:00	2024-11-08T20:00:00	2	Temperatura media	20.6
168874	7	Sololá	719	Santiago Atitlán	14	Cerro de Oro	8	Agosto	2023-08-26T00:00:00	2024-11-08T20:00:00	4	Temperatura máxima	20.6
168875	7	Sololá	719	Santiago Atitlán	14	Cerro de Oro	8	Agosto	2023-08-26T00:00:00	2024-11-08T20:00:00	3	Temperatura mínima	20.3
168876	7	Sololá	719	Santiago Atitlán	14	Cerro de Oro	8	Agosto	2023-08-26T00:00:00	2024-11-08T20:00:00	5	Humedad	86
168877	7	Sololá	719	Santiago Atitlán	14	Cerro de Oro	8	Agosto	2023-08-26T00:00:00	2024-11-08T20:00:00	6	Velocidad del viento	6.4
168878	7	Sololá	719	Santiago Atitlán	14	Cerro de Oro	8	Agosto	2023-08-26T00:00:00	2024-11-08T20:00:00	7	Dirección del viento	6.44
168879	7	Sololá	719	Santiago Atitlán	14	Cerro de Oro	8	Agosto	2023-08-26T00:00:00	2024-11-08T20:00:00	1	Precipitación	0
168880	7	Sololá	719	Santiago Atitlán	14	Cerro de Oro	8	Agosto	2023-08-26T00:00:00	2024-11-08T20:00:00	8	Radiación solar	0
168881	7	Sololá	719	Santiago Atitlán	14	Cerro de Oro	8	Agosto	2023-08-26T00:00:00	2024-11-08T21:00:00	2	Temperatura media	19.7
168882	7	Sololá	719	Santiago Atitlán	14	Cerro de Oro	8	Agosto	2023-08-26T00:00:00	2024-11-08T21:00:00	4	Temperatura máxima	20.6
168883	7	Sololá	719	Santiago Atitlán	14	Cerro de Oro	8	Agosto	2023-08-26T00:00:00	2024-11-08T21:00:00	3	Temperatura mínima	19.7
168884	7	Sololá	719	Santiago Atitlán	14	Cerro de Oro	8	Agosto	2023-08-26T00:00:00	2024-11-08T21:00:00	5	Humedad	90
168885	7	Sololá	719	Santiago Atitlán	14	Cerro de Oro	8	Agosto	2023-08-26T00:00:00	2024-11-08T21:00:00	6	Velocidad del viento	3.2
168886	7	Sololá	719	Santiago Atitlán	14	Cerro de Oro	8	Agosto	2023-08-26T00:00:00	2024-11-08T21:00:00	7	Dirección del viento	3.22
168887	7	Sololá	719	Santiago Atitlán	14	Cerro de Oro	8	Agosto	2023-08-26T00:00:00	2024-11-08T21:00:00	1	Precipitación	0
168888	7	Sololá	719	Santiago Atitlán	14	Cerro de Oro	8	Agosto	2023-08-26T00:00:00	2024-11-08T21:00:00	8	Radiación solar	0
168889	7	Sololá	719	Santiago Atitlán	14	Cerro de Oro	8	Agosto	2023-08-26T00:00:00	2024-11-08T22:00:00	2	Temperatura media	19.5
168890	7	Sololá	719	Santiago Atitlán	14	Cerro de Oro	8	Agosto	2023-08-26T00:00:00	2024-11-08T22:00:00	4	Temperatura máxima	19.7
168891	7	Sololá	719	Santiago Atitlán	14	Cerro de Oro	8	Agosto	2023-08-26T00:00:00	2024-11-08T22:00:00	3	Temperatura mínima	19.5
168892	7	Sololá	719	Santiago Atitlán	14	Cerro de Oro	8	Agosto	2023-08-26T00:00:00	2024-11-08T22:00:00	5	Humedad	89
168893	7	Sololá	719	Santiago Atitlán	14	Cerro de Oro	8	Agosto	2023-08-26T00:00:00	2024-11-08T22:00:00	6	Velocidad del viento	4.8
168894	7	Sololá	719	Santiago Atitlán	14	Cerro de Oro	8	Agosto	2023-08-26T00:00:00	2024-11-08T22:00:00	7	Dirección del viento	4.83
168895	7	Sololá	719	Santiago Atitlán	14	Cerro de Oro	8	Agosto	2023-08-26T00:00:00	2024-11-08T22:00:00	1	Precipitación	0
168896	7	Sololá	719	Santiago Atitlán	14	Cerro de Oro	8	Agosto	2023-08-26T00:00:00	2024-11-08T22:00:00	8	Radiación solar	0
168897	7	Sololá	719	Santiago Atitlán	14	Cerro de Oro	8	Agosto	2023-08-26T00:00:00	2024-11-08T23:00:00	2	Temperatura media	19.3
168898	7	Sololá	719	Santiago Atitlán	14	Cerro de Oro	8	Agosto	2023-08-26T00:00:00	2024-11-08T23:00:00	4	Temperatura máxima	19.7
168899	7	Sololá	719	Santiago Atitlán	14	Cerro de Oro	8	Agosto	2023-08-26T00:00:00	2024-11-08T23:00:00	3	Temperatura mínima	19.3
168900	7	Sololá	719	Santiago Atitlán	14	Cerro de Oro	8	Agosto	2023-08-26T00:00:00	2024-11-08T23:00:00	5	Humedad	86
168901	7	Sololá	719	Santiago Atitlán	14	Cerro de Oro	8	Agosto	2023-08-26T00:00:00	2024-11-08T23:00:00	6	Velocidad del viento	4.8
168902	7	Sololá	719	Santiago Atitlán	14	Cerro de Oro	8	Agosto	2023-08-26T00:00:00	2024-11-08T23:00:00	7	Dirección del viento	4.83
168903	7	Sololá	719	Santiago Atitlán	14	Cerro de Oro	8	Agosto	2023-08-26T00:00:00	2024-11-08T23:00:00	1	Precipitación	0
168904	7	Sololá	719	Santiago Atitlán	14	Cerro de Oro	8	Agosto	2023-08-26T00:00:00	2024-11-08T23:00:00	8	Radiación solar	0
168905	7	Sololá	719	Santiago Atitlán	14	Cerro de Oro	8	Agosto	2023-08-27T00:00:00	2024-11-08T00:00:00	2	Temperatura media	19.6
168906	7	Sololá	719	Santiago Atitlán	14	Cerro de Oro	8	Agosto	2023-08-27T00:00:00	2024-11-08T00:00:00	4	Temperatura máxima	19.6
168907	7	Sololá	719	Santiago Atitlán	14	Cerro de Oro	8	Agosto	2023-08-27T00:00:00	2024-11-08T00:00:00	3	Temperatura mínima	19.3
168908	7	Sololá	719	Santiago Atitlán	14	Cerro de Oro	8	Agosto	2023-08-27T00:00:00	2024-11-08T00:00:00	5	Humedad	86
168909	7	Sololá	719	Santiago Atitlán	14	Cerro de Oro	8	Agosto	2023-08-27T00:00:00	2024-11-08T00:00:00	6	Velocidad del viento	1.6
168910	7	Sololá	719	Santiago Atitlán	14	Cerro de Oro	8	Agosto	2023-08-27T00:00:00	2024-11-08T00:00:00	7	Dirección del viento	1.61
168911	7	Sololá	719	Santiago Atitlán	14	Cerro de Oro	8	Agosto	2023-08-27T00:00:00	2024-11-08T00:00:00	1	Precipitación	0
168912	7	Sololá	719	Santiago Atitlán	14	Cerro de Oro	8	Agosto	2023-08-27T00:00:00	2024-11-08T00:00:00	8	Radiación solar	0
168913	7	Sololá	719	Santiago Atitlán	14	Cerro de Oro	8	Agosto	2023-08-27T00:00:00	2024-11-08T01:00:00	2	Temperatura media	19.2
168914	7	Sololá	719	Santiago Atitlán	14	Cerro de Oro	8	Agosto	2023-08-27T00:00:00	2024-11-08T01:00:00	4	Temperatura máxima	19.6
168915	7	Sololá	719	Santiago Atitlán	14	Cerro de Oro	8	Agosto	2023-08-27T00:00:00	2024-11-08T01:00:00	3	Temperatura mínima	18.8
168916	7	Sololá	719	Santiago Atitlán	14	Cerro de Oro	8	Agosto	2023-08-27T00:00:00	2024-11-08T01:00:00	5	Humedad	86
168917	7	Sololá	719	Santiago Atitlán	14	Cerro de Oro	8	Agosto	2023-08-27T00:00:00	2024-11-08T01:00:00	6	Velocidad del viento	3.2
168918	7	Sololá	719	Santiago Atitlán	14	Cerro de Oro	8	Agosto	2023-08-27T00:00:00	2024-11-08T01:00:00	7	Dirección del viento	3.22
168919	7	Sololá	719	Santiago Atitlán	14	Cerro de Oro	8	Agosto	2023-08-27T00:00:00	2024-11-08T01:00:00	1	Precipitación	0
168920	7	Sololá	719	Santiago Atitlán	14	Cerro de Oro	8	Agosto	2023-08-27T00:00:00	2024-11-08T01:00:00	8	Radiación solar	0
168921	7	Sololá	719	Santiago Atitlán	14	Cerro de Oro	8	Agosto	2023-08-27T00:00:00	2024-11-08T02:00:00	2	Temperatura media	18.9
168922	7	Sololá	719	Santiago Atitlán	14	Cerro de Oro	8	Agosto	2023-08-27T00:00:00	2024-11-08T02:00:00	4	Temperatura máxima	19.2
168923	7	Sololá	719	Santiago Atitlán	14	Cerro de Oro	8	Agosto	2023-08-27T00:00:00	2024-11-08T02:00:00	3	Temperatura mínima	18.8
168924	7	Sololá	719	Santiago Atitlán	14	Cerro de Oro	8	Agosto	2023-08-27T00:00:00	2024-11-08T02:00:00	5	Humedad	87
168925	7	Sololá	719	Santiago Atitlán	14	Cerro de Oro	8	Agosto	2023-08-27T00:00:00	2024-11-08T02:00:00	6	Velocidad del viento	1.6
168926	7	Sololá	719	Santiago Atitlán	14	Cerro de Oro	8	Agosto	2023-08-27T00:00:00	2024-11-08T02:00:00	7	Dirección del viento	1.61
168927	7	Sololá	719	Santiago Atitlán	14	Cerro de Oro	8	Agosto	2023-08-27T00:00:00	2024-11-08T02:00:00	1	Precipitación	0
168928	7	Sololá	719	Santiago Atitlán	14	Cerro de Oro	8	Agosto	2023-08-27T00:00:00	2024-11-08T02:00:00	8	Radiación solar	0
168929	7	Sololá	719	Santiago Atitlán	14	Cerro de Oro	8	Agosto	2023-08-27T00:00:00	2024-11-08T03:00:00	2	Temperatura media	18.9
168930	7	Sololá	719	Santiago Atitlán	14	Cerro de Oro	8	Agosto	2023-08-27T00:00:00	2024-11-08T03:00:00	4	Temperatura máxima	19.2
168931	7	Sololá	719	Santiago Atitlán	14	Cerro de Oro	8	Agosto	2023-08-27T00:00:00	2024-11-08T03:00:00	3	Temperatura mínima	18.7
168932	7	Sololá	719	Santiago Atitlán	14	Cerro de Oro	8	Agosto	2023-08-27T00:00:00	2024-11-08T03:00:00	5	Humedad	86
168933	7	Sololá	719	Santiago Atitlán	14	Cerro de Oro	8	Agosto	2023-08-27T00:00:00	2024-11-08T03:00:00	6	Velocidad del viento	4.8
168934	7	Sololá	719	Santiago Atitlán	14	Cerro de Oro	8	Agosto	2023-08-27T00:00:00	2024-11-08T03:00:00	7	Dirección del viento	4.83
168935	7	Sololá	719	Santiago Atitlán	14	Cerro de Oro	8	Agosto	2023-08-27T00:00:00	2024-11-08T03:00:00	1	Precipitación	0
168936	7	Sololá	719	Santiago Atitlán	14	Cerro de Oro	8	Agosto	2023-08-27T00:00:00	2024-11-08T03:00:00	8	Radiación solar	0
168937	7	Sololá	719	Santiago Atitlán	14	Cerro de Oro	8	Agosto	2023-08-27T00:00:00	2024-11-08T04:00:00	2	Temperatura media	18.9
168938	7	Sololá	719	Santiago Atitlán	14	Cerro de Oro	8	Agosto	2023-08-27T00:00:00	2024-11-08T04:00:00	4	Temperatura máxima	19
168939	7	Sololá	719	Santiago Atitlán	14	Cerro de Oro	8	Agosto	2023-08-27T00:00:00	2024-11-08T04:00:00	3	Temperatura mínima	18.6
168940	7	Sololá	719	Santiago Atitlán	14	Cerro de Oro	8	Agosto	2023-08-27T00:00:00	2024-11-08T04:00:00	5	Humedad	86
168941	7	Sololá	719	Santiago Atitlán	14	Cerro de Oro	8	Agosto	2023-08-27T00:00:00	2024-11-08T04:00:00	6	Velocidad del viento	3.2
168942	7	Sololá	719	Santiago Atitlán	14	Cerro de Oro	8	Agosto	2023-08-27T00:00:00	2024-11-08T04:00:00	7	Dirección del viento	3.22
168943	7	Sololá	719	Santiago Atitlán	14	Cerro de Oro	8	Agosto	2023-08-27T00:00:00	2024-11-08T04:00:00	1	Precipitación	0
168944	7	Sololá	719	Santiago Atitlán	14	Cerro de Oro	8	Agosto	2023-08-27T00:00:00	2024-11-08T04:00:00	8	Radiación solar	0
168945	7	Sololá	719	Santiago Atitlán	14	Cerro de Oro	8	Agosto	2023-08-27T00:00:00	2024-11-08T05:00:00	2	Temperatura media	18.6
168946	7	Sololá	719	Santiago Atitlán	14	Cerro de Oro	8	Agosto	2023-08-27T00:00:00	2024-11-08T05:00:00	4	Temperatura máxima	18.9
168947	7	Sololá	719	Santiago Atitlán	14	Cerro de Oro	8	Agosto	2023-08-27T00:00:00	2024-11-08T05:00:00	3	Temperatura mínima	18.3
168948	7	Sololá	719	Santiago Atitlán	14	Cerro de Oro	8	Agosto	2023-08-27T00:00:00	2024-11-08T05:00:00	5	Humedad	88
168949	7	Sololá	719	Santiago Atitlán	14	Cerro de Oro	8	Agosto	2023-08-27T00:00:00	2024-11-08T05:00:00	6	Velocidad del viento	3.2
168950	7	Sololá	719	Santiago Atitlán	14	Cerro de Oro	8	Agosto	2023-08-27T00:00:00	2024-11-08T05:00:00	7	Dirección del viento	3.22
168951	7	Sololá	719	Santiago Atitlán	14	Cerro de Oro	8	Agosto	2023-08-27T00:00:00	2024-11-08T05:00:00	1	Precipitación	0
168952	7	Sololá	719	Santiago Atitlán	14	Cerro de Oro	8	Agosto	2023-08-27T00:00:00	2024-11-08T05:00:00	8	Radiación solar	0
168953	7	Sololá	719	Santiago Atitlán	14	Cerro de Oro	8	Agosto	2023-08-27T00:00:00	2024-11-08T06:00:00	2	Temperatura media	18.8
168954	7	Sololá	719	Santiago Atitlán	14	Cerro de Oro	8	Agosto	2023-08-27T00:00:00	2024-11-08T06:00:00	4	Temperatura máxima	18.8
168955	7	Sololá	719	Santiago Atitlán	14	Cerro de Oro	8	Agosto	2023-08-27T00:00:00	2024-11-08T06:00:00	3	Temperatura mínima	18.3
168956	7	Sololá	719	Santiago Atitlán	14	Cerro de Oro	8	Agosto	2023-08-27T00:00:00	2024-11-08T06:00:00	5	Humedad	87
168957	7	Sololá	719	Santiago Atitlán	14	Cerro de Oro	8	Agosto	2023-08-27T00:00:00	2024-11-08T06:00:00	6	Velocidad del viento	3.2
168958	7	Sololá	719	Santiago Atitlán	14	Cerro de Oro	8	Agosto	2023-08-27T00:00:00	2024-11-08T06:00:00	7	Dirección del viento	3.22
168959	7	Sololá	719	Santiago Atitlán	14	Cerro de Oro	8	Agosto	2023-08-27T00:00:00	2024-11-08T06:00:00	1	Precipitación	0
168960	7	Sololá	719	Santiago Atitlán	14	Cerro de Oro	8	Agosto	2023-08-27T00:00:00	2024-11-08T06:00:00	8	Radiación solar	0
168961	7	Sololá	719	Santiago Atitlán	14	Cerro de Oro	8	Agosto	2023-08-27T00:00:00	2024-11-08T07:00:00	2	Temperatura media	19.5
168962	7	Sololá	719	Santiago Atitlán	14	Cerro de Oro	8	Agosto	2023-08-27T00:00:00	2024-11-08T07:00:00	4	Temperatura máxima	19.7
168963	7	Sololá	719	Santiago Atitlán	14	Cerro de Oro	8	Agosto	2023-08-27T00:00:00	2024-11-08T07:00:00	3	Temperatura mínima	18.7
168964	7	Sololá	719	Santiago Atitlán	14	Cerro de Oro	8	Agosto	2023-08-27T00:00:00	2024-11-08T07:00:00	5	Humedad	87
168965	7	Sololá	719	Santiago Atitlán	14	Cerro de Oro	8	Agosto	2023-08-27T00:00:00	2024-11-08T07:00:00	6	Velocidad del viento	3.2
168966	7	Sololá	719	Santiago Atitlán	14	Cerro de Oro	8	Agosto	2023-08-27T00:00:00	2024-11-08T07:00:00	7	Dirección del viento	3.22
168967	7	Sololá	719	Santiago Atitlán	14	Cerro de Oro	8	Agosto	2023-08-27T00:00:00	2024-11-08T07:00:00	1	Precipitación	0
168968	7	Sololá	719	Santiago Atitlán	14	Cerro de Oro	8	Agosto	2023-08-27T00:00:00	2024-11-08T07:00:00	8	Radiación solar	42
168969	7	Sololá	719	Santiago Atitlán	14	Cerro de Oro	8	Agosto	2023-08-27T00:00:00	2024-11-08T08:00:00	2	Temperatura media	22.2
168970	7	Sololá	719	Santiago Atitlán	14	Cerro de Oro	8	Agosto	2023-08-27T00:00:00	2024-11-08T08:00:00	4	Temperatura máxima	22.2
168971	7	Sololá	719	Santiago Atitlán	14	Cerro de Oro	8	Agosto	2023-08-27T00:00:00	2024-11-08T08:00:00	3	Temperatura mínima	19.4
168972	7	Sololá	719	Santiago Atitlán	14	Cerro de Oro	8	Agosto	2023-08-27T00:00:00	2024-11-08T08:00:00	5	Humedad	78
168973	7	Sololá	719	Santiago Atitlán	14	Cerro de Oro	8	Agosto	2023-08-27T00:00:00	2024-11-08T08:00:00	6	Velocidad del viento	1.6
168974	7	Sololá	719	Santiago Atitlán	14	Cerro de Oro	8	Agosto	2023-08-27T00:00:00	2024-11-08T08:00:00	7	Dirección del viento	1.61
168975	7	Sololá	719	Santiago Atitlán	14	Cerro de Oro	8	Agosto	2023-08-27T00:00:00	2024-11-08T08:00:00	1	Precipitación	0
168976	7	Sololá	719	Santiago Atitlán	14	Cerro de Oro	8	Agosto	2023-08-27T00:00:00	2024-11-08T08:00:00	8	Radiación solar	225
168977	7	Sololá	719	Santiago Atitlán	14	Cerro de Oro	8	Agosto	2023-08-27T00:00:00	2024-11-08T09:00:00	2	Temperatura media	22.1
168978	7	Sololá	719	Santiago Atitlán	14	Cerro de Oro	8	Agosto	2023-08-27T00:00:00	2024-11-08T09:00:00	4	Temperatura máxima	22.7
168979	7	Sololá	719	Santiago Atitlán	14	Cerro de Oro	8	Agosto	2023-08-27T00:00:00	2024-11-08T09:00:00	3	Temperatura mínima	22.1
168980	7	Sololá	719	Santiago Atitlán	14	Cerro de Oro	8	Agosto	2023-08-27T00:00:00	2024-11-08T09:00:00	5	Humedad	80
168981	7	Sololá	719	Santiago Atitlán	14	Cerro de Oro	8	Agosto	2023-08-27T00:00:00	2024-11-08T09:00:00	6	Velocidad del viento	3.2
168982	7	Sololá	719	Santiago Atitlán	14	Cerro de Oro	8	Agosto	2023-08-27T00:00:00	2024-11-08T09:00:00	7	Dirección del viento	3.22
168983	7	Sololá	719	Santiago Atitlán	14	Cerro de Oro	8	Agosto	2023-08-27T00:00:00	2024-11-08T09:00:00	1	Precipitación	0
168984	7	Sololá	719	Santiago Atitlán	14	Cerro de Oro	8	Agosto	2023-08-27T00:00:00	2024-11-08T09:00:00	8	Radiación solar	397
168985	7	Sololá	719	Santiago Atitlán	14	Cerro de Oro	8	Agosto	2023-08-27T00:00:00	2024-11-08T10:00:00	2	Temperatura media	22.7
168986	7	Sololá	719	Santiago Atitlán	14	Cerro de Oro	8	Agosto	2023-08-27T00:00:00	2024-11-08T10:00:00	4	Temperatura máxima	22.7
168987	7	Sololá	719	Santiago Atitlán	14	Cerro de Oro	8	Agosto	2023-08-27T00:00:00	2024-11-08T10:00:00	3	Temperatura mínima	21.5
168988	7	Sololá	719	Santiago Atitlán	14	Cerro de Oro	8	Agosto	2023-08-27T00:00:00	2024-11-08T10:00:00	5	Humedad	79
168989	7	Sololá	719	Santiago Atitlán	14	Cerro de Oro	8	Agosto	2023-08-27T00:00:00	2024-11-08T10:00:00	6	Velocidad del viento	3.2
168990	7	Sololá	719	Santiago Atitlán	14	Cerro de Oro	8	Agosto	2023-08-27T00:00:00	2024-11-08T10:00:00	7	Dirección del viento	3.22
168991	7	Sololá	719	Santiago Atitlán	14	Cerro de Oro	8	Agosto	2023-08-27T00:00:00	2024-11-08T10:00:00	1	Precipitación	0
168992	7	Sololá	719	Santiago Atitlán	14	Cerro de Oro	8	Agosto	2023-08-27T00:00:00	2024-11-08T10:00:00	8	Radiación solar	242
168993	7	Sololá	719	Santiago Atitlán	14	Cerro de Oro	8	Agosto	2023-08-27T00:00:00	2024-11-08T11:00:00	2	Temperatura media	24.9
168994	7	Sololá	719	Santiago Atitlán	14	Cerro de Oro	8	Agosto	2023-08-27T00:00:00	2024-11-08T11:00:00	4	Temperatura máxima	24.9
168995	7	Sololá	719	Santiago Atitlán	14	Cerro de Oro	8	Agosto	2023-08-27T00:00:00	2024-11-08T11:00:00	3	Temperatura mínima	22.7
168996	7	Sololá	719	Santiago Atitlán	14	Cerro de Oro	8	Agosto	2023-08-27T00:00:00	2024-11-08T11:00:00	5	Humedad	71
168997	7	Sololá	719	Santiago Atitlán	14	Cerro de Oro	8	Agosto	2023-08-27T00:00:00	2024-11-08T11:00:00	6	Velocidad del viento	6.4
168998	7	Sololá	719	Santiago Atitlán	14	Cerro de Oro	8	Agosto	2023-08-27T00:00:00	2024-11-08T11:00:00	7	Dirección del viento	6.44
168999	7	Sololá	719	Santiago Atitlán	14	Cerro de Oro	8	Agosto	2023-08-27T00:00:00	2024-11-08T11:00:00	1	Precipitación	0
169000	7	Sololá	719	Santiago Atitlán	14	Cerro de Oro	8	Agosto	2023-08-27T00:00:00	2024-11-08T11:00:00	8	Radiación solar	819
169001	7	Sololá	719	Santiago Atitlán	14	Cerro de Oro	8	Agosto	2023-08-27T00:00:00	2024-11-08T12:00:00	2	Temperatura media	22.9
169002	7	Sololá	719	Santiago Atitlán	14	Cerro de Oro	8	Agosto	2023-08-27T00:00:00	2024-11-08T12:00:00	4	Temperatura máxima	24.9
169003	7	Sololá	719	Santiago Atitlán	14	Cerro de Oro	8	Agosto	2023-08-27T00:00:00	2024-11-08T12:00:00	3	Temperatura mínima	22.9
169004	7	Sololá	719	Santiago Atitlán	14	Cerro de Oro	8	Agosto	2023-08-27T00:00:00	2024-11-08T12:00:00	5	Humedad	76
169005	7	Sololá	719	Santiago Atitlán	14	Cerro de Oro	8	Agosto	2023-08-27T00:00:00	2024-11-08T12:00:00	6	Velocidad del viento	9.7
169006	7	Sololá	719	Santiago Atitlán	14	Cerro de Oro	8	Agosto	2023-08-27T00:00:00	2024-11-08T12:00:00	7	Dirección del viento	9.66
169007	7	Sololá	719	Santiago Atitlán	14	Cerro de Oro	8	Agosto	2023-08-27T00:00:00	2024-11-08T12:00:00	1	Precipitación	0
169008	7	Sololá	719	Santiago Atitlán	14	Cerro de Oro	8	Agosto	2023-08-27T00:00:00	2024-11-08T12:00:00	8	Radiación solar	361
169009	7	Sololá	719	Santiago Atitlán	14	Cerro de Oro	8	Agosto	2023-08-27T00:00:00	2024-11-08T13:00:00	2	Temperatura media	23.8
169010	7	Sololá	719	Santiago Atitlán	14	Cerro de Oro	8	Agosto	2023-08-27T00:00:00	2024-11-08T13:00:00	4	Temperatura máxima	23.9
169011	7	Sololá	719	Santiago Atitlán	14	Cerro de Oro	8	Agosto	2023-08-27T00:00:00	2024-11-08T13:00:00	3	Temperatura mínima	22.6
169012	7	Sololá	719	Santiago Atitlán	14	Cerro de Oro	8	Agosto	2023-08-27T00:00:00	2024-11-08T13:00:00	5	Humedad	75
169013	7	Sololá	719	Santiago Atitlán	14	Cerro de Oro	8	Agosto	2023-08-27T00:00:00	2024-11-08T13:00:00	6	Velocidad del viento	12.9
169014	7	Sololá	719	Santiago Atitlán	14	Cerro de Oro	8	Agosto	2023-08-27T00:00:00	2024-11-08T13:00:00	7	Dirección del viento	12.87
169015	7	Sololá	719	Santiago Atitlán	14	Cerro de Oro	8	Agosto	2023-08-27T00:00:00	2024-11-08T13:00:00	1	Precipitación	0
169016	7	Sololá	719	Santiago Atitlán	14	Cerro de Oro	8	Agosto	2023-08-27T00:00:00	2024-11-08T13:00:00	8	Radiación solar	461
169017	7	Sololá	719	Santiago Atitlán	14	Cerro de Oro	8	Agosto	2023-08-27T00:00:00	2024-11-08T14:00:00	2	Temperatura media	23.6
169018	7	Sololá	719	Santiago Atitlán	14	Cerro de Oro	8	Agosto	2023-08-27T00:00:00	2024-11-08T14:00:00	4	Temperatura máxima	23.8
169019	7	Sololá	719	Santiago Atitlán	14	Cerro de Oro	8	Agosto	2023-08-27T00:00:00	2024-11-08T14:00:00	3	Temperatura mínima	23.1
169020	7	Sololá	719	Santiago Atitlán	14	Cerro de Oro	8	Agosto	2023-08-27T00:00:00	2024-11-08T14:00:00	5	Humedad	78
169021	7	Sololá	719	Santiago Atitlán	14	Cerro de Oro	8	Agosto	2023-08-27T00:00:00	2024-11-08T14:00:00	6	Velocidad del viento	9.7
169022	7	Sololá	719	Santiago Atitlán	14	Cerro de Oro	8	Agosto	2023-08-27T00:00:00	2024-11-08T14:00:00	7	Dirección del viento	9.66
169023	7	Sololá	719	Santiago Atitlán	14	Cerro de Oro	8	Agosto	2023-08-27T00:00:00	2024-11-08T14:00:00	1	Precipitación	0
169024	7	Sololá	719	Santiago Atitlán	14	Cerro de Oro	8	Agosto	2023-08-27T00:00:00	2024-11-08T14:00:00	8	Radiación solar	326
169025	7	Sololá	719	Santiago Atitlán	14	Cerro de Oro	8	Agosto	2023-08-27T00:00:00	2024-11-08T15:00:00	2	Temperatura media	22.7
169026	7	Sololá	719	Santiago Atitlán	14	Cerro de Oro	8	Agosto	2023-08-27T00:00:00	2024-11-08T15:00:00	4	Temperatura máxima	23.6
169027	7	Sololá	719	Santiago Atitlán	14	Cerro de Oro	8	Agosto	2023-08-27T00:00:00	2024-11-08T15:00:00	3	Temperatura mínima	22.7
169028	7	Sololá	719	Santiago Atitlán	14	Cerro de Oro	8	Agosto	2023-08-27T00:00:00	2024-11-08T15:00:00	5	Humedad	80
169029	7	Sololá	719	Santiago Atitlán	14	Cerro de Oro	8	Agosto	2023-08-27T00:00:00	2024-11-08T15:00:00	6	Velocidad del viento	9.7
169030	7	Sololá	719	Santiago Atitlán	14	Cerro de Oro	8	Agosto	2023-08-27T00:00:00	2024-11-08T15:00:00	7	Dirección del viento	9.66
169031	7	Sololá	719	Santiago Atitlán	14	Cerro de Oro	8	Agosto	2023-08-27T00:00:00	2024-11-08T15:00:00	1	Precipitación	0
169032	7	Sololá	719	Santiago Atitlán	14	Cerro de Oro	8	Agosto	2023-08-27T00:00:00	2024-11-08T15:00:00	8	Radiación solar	276
169033	7	Sololá	719	Santiago Atitlán	14	Cerro de Oro	8	Agosto	2023-08-27T00:00:00	2024-11-08T16:00:00	2	Temperatura media	22.3
169034	7	Sololá	719	Santiago Atitlán	14	Cerro de Oro	8	Agosto	2023-08-27T00:00:00	2024-11-08T16:00:00	4	Temperatura máxima	23
169035	7	Sololá	719	Santiago Atitlán	14	Cerro de Oro	8	Agosto	2023-08-27T00:00:00	2024-11-08T16:00:00	3	Temperatura mínima	22.3
169036	7	Sololá	719	Santiago Atitlán	14	Cerro de Oro	8	Agosto	2023-08-27T00:00:00	2024-11-08T16:00:00	5	Humedad	82
169037	7	Sololá	719	Santiago Atitlán	14	Cerro de Oro	8	Agosto	2023-08-27T00:00:00	2024-11-08T16:00:00	6	Velocidad del viento	8
169038	7	Sololá	719	Santiago Atitlán	14	Cerro de Oro	8	Agosto	2023-08-27T00:00:00	2024-11-08T16:00:00	7	Dirección del viento	8.05
169039	7	Sololá	719	Santiago Atitlán	14	Cerro de Oro	8	Agosto	2023-08-27T00:00:00	2024-11-08T16:00:00	1	Precipitación	0
169040	7	Sololá	719	Santiago Atitlán	14	Cerro de Oro	8	Agosto	2023-08-27T00:00:00	2024-11-08T16:00:00	8	Radiación solar	208
169041	7	Sololá	719	Santiago Atitlán	14	Cerro de Oro	8	Agosto	2023-08-27T00:00:00	2024-11-08T17:00:00	2	Temperatura media	22.5
169042	7	Sololá	719	Santiago Atitlán	14	Cerro de Oro	8	Agosto	2023-08-27T00:00:00	2024-11-08T17:00:00	4	Temperatura máxima	22.7
169043	7	Sololá	719	Santiago Atitlán	14	Cerro de Oro	8	Agosto	2023-08-27T00:00:00	2024-11-08T17:00:00	3	Temperatura mínima	22.2
169044	7	Sololá	719	Santiago Atitlán	14	Cerro de Oro	8	Agosto	2023-08-27T00:00:00	2024-11-08T17:00:00	5	Humedad	82
169045	7	Sololá	719	Santiago Atitlán	14	Cerro de Oro	8	Agosto	2023-08-27T00:00:00	2024-11-08T17:00:00	6	Velocidad del viento	9.7
169046	7	Sololá	719	Santiago Atitlán	14	Cerro de Oro	8	Agosto	2023-08-27T00:00:00	2024-11-08T17:00:00	7	Dirección del viento	9.66
169047	7	Sololá	719	Santiago Atitlán	14	Cerro de Oro	8	Agosto	2023-08-27T00:00:00	2024-11-08T17:00:00	1	Precipitación	0
169048	7	Sololá	719	Santiago Atitlán	14	Cerro de Oro	8	Agosto	2023-08-27T00:00:00	2024-11-08T17:00:00	8	Radiación solar	229
169049	7	Sololá	719	Santiago Atitlán	14	Cerro de Oro	8	Agosto	2023-08-27T00:00:00	2024-11-08T18:00:00	2	Temperatura media	21.1
169050	7	Sololá	719	Santiago Atitlán	14	Cerro de Oro	8	Agosto	2023-08-27T00:00:00	2024-11-08T18:00:00	4	Temperatura máxima	22.6
169051	7	Sololá	719	Santiago Atitlán	14	Cerro de Oro	8	Agosto	2023-08-27T00:00:00	2024-11-08T18:00:00	3	Temperatura mínima	21.1
169052	7	Sololá	719	Santiago Atitlán	14	Cerro de Oro	8	Agosto	2023-08-27T00:00:00	2024-11-08T18:00:00	5	Humedad	86
169053	7	Sololá	719	Santiago Atitlán	14	Cerro de Oro	8	Agosto	2023-08-27T00:00:00	2024-11-08T18:00:00	6	Velocidad del viento	8
169054	7	Sololá	719	Santiago Atitlán	14	Cerro de Oro	8	Agosto	2023-08-27T00:00:00	2024-11-08T18:00:00	7	Dirección del viento	8.05
169055	7	Sololá	719	Santiago Atitlán	14	Cerro de Oro	8	Agosto	2023-08-27T00:00:00	2024-11-08T18:00:00	1	Precipitación	0
169056	7	Sololá	719	Santiago Atitlán	14	Cerro de Oro	8	Agosto	2023-08-27T00:00:00	2024-11-08T18:00:00	8	Radiación solar	108
169057	7	Sololá	719	Santiago Atitlán	14	Cerro de Oro	8	Agosto	2023-08-27T00:00:00	2024-11-08T19:00:00	2	Temperatura media	20.7
169058	7	Sololá	719	Santiago Atitlán	14	Cerro de Oro	8	Agosto	2023-08-27T00:00:00	2024-11-08T19:00:00	4	Temperatura máxima	21.2
169059	7	Sololá	719	Santiago Atitlán	14	Cerro de Oro	8	Agosto	2023-08-27T00:00:00	2024-11-08T19:00:00	3	Temperatura mínima	20.7
169060	7	Sololá	719	Santiago Atitlán	14	Cerro de Oro	8	Agosto	2023-08-27T00:00:00	2024-11-08T19:00:00	5	Humedad	85
169061	7	Sololá	719	Santiago Atitlán	14	Cerro de Oro	8	Agosto	2023-08-27T00:00:00	2024-11-08T19:00:00	6	Velocidad del viento	6.4
169062	7	Sololá	719	Santiago Atitlán	14	Cerro de Oro	8	Agosto	2023-08-27T00:00:00	2024-11-08T19:00:00	7	Dirección del viento	6.44
169063	7	Sololá	719	Santiago Atitlán	14	Cerro de Oro	8	Agosto	2023-08-27T00:00:00	2024-11-08T19:00:00	1	Precipitación	0
169064	7	Sololá	719	Santiago Atitlán	14	Cerro de Oro	8	Agosto	2023-08-27T00:00:00	2024-11-08T19:00:00	8	Radiación solar	0
169065	7	Sololá	719	Santiago Atitlán	14	Cerro de Oro	8	Agosto	2023-08-27T00:00:00	2024-11-08T20:00:00	2	Temperatura media	21.3
169066	7	Sololá	719	Santiago Atitlán	14	Cerro de Oro	8	Agosto	2023-08-27T00:00:00	2024-11-08T20:00:00	4	Temperatura máxima	21.6
169067	7	Sololá	719	Santiago Atitlán	14	Cerro de Oro	8	Agosto	2023-08-27T00:00:00	2024-11-08T20:00:00	3	Temperatura mínima	20.7
169068	7	Sololá	719	Santiago Atitlán	14	Cerro de Oro	8	Agosto	2023-08-27T00:00:00	2024-11-08T20:00:00	5	Humedad	83
169069	7	Sololá	719	Santiago Atitlán	14	Cerro de Oro	8	Agosto	2023-08-27T00:00:00	2024-11-08T20:00:00	6	Velocidad del viento	4.8
169070	7	Sololá	719	Santiago Atitlán	14	Cerro de Oro	8	Agosto	2023-08-27T00:00:00	2024-11-08T20:00:00	7	Dirección del viento	4.83
169071	7	Sololá	719	Santiago Atitlán	14	Cerro de Oro	8	Agosto	2023-08-27T00:00:00	2024-11-08T20:00:00	1	Precipitación	0
169072	7	Sololá	719	Santiago Atitlán	14	Cerro de Oro	8	Agosto	2023-08-27T00:00:00	2024-11-08T20:00:00	8	Radiación solar	0
169073	7	Sololá	719	Santiago Atitlán	14	Cerro de Oro	8	Agosto	2023-08-27T00:00:00	2024-11-08T21:00:00	2	Temperatura media	19.5
169074	7	Sololá	719	Santiago Atitlán	14	Cerro de Oro	8	Agosto	2023-08-27T00:00:00	2024-11-08T21:00:00	4	Temperatura máxima	21.3
169075	7	Sololá	719	Santiago Atitlán	14	Cerro de Oro	8	Agosto	2023-08-27T00:00:00	2024-11-08T21:00:00	3	Temperatura mínima	19.4
169076	7	Sololá	719	Santiago Atitlán	14	Cerro de Oro	8	Agosto	2023-08-27T00:00:00	2024-11-08T21:00:00	5	Humedad	85
169077	7	Sololá	719	Santiago Atitlán	14	Cerro de Oro	8	Agosto	2023-08-27T00:00:00	2024-11-08T21:00:00	6	Velocidad del viento	8
169078	7	Sololá	719	Santiago Atitlán	14	Cerro de Oro	8	Agosto	2023-08-27T00:00:00	2024-11-08T21:00:00	7	Dirección del viento	8.05
169079	7	Sololá	719	Santiago Atitlán	14	Cerro de Oro	8	Agosto	2023-08-27T00:00:00	2024-11-08T21:00:00	1	Precipitación	0
169080	7	Sololá	719	Santiago Atitlán	14	Cerro de Oro	8	Agosto	2023-08-27T00:00:00	2024-11-08T21:00:00	8	Radiación solar	0
169081	7	Sololá	719	Santiago Atitlán	14	Cerro de Oro	8	Agosto	2023-08-27T00:00:00	2024-11-08T22:00:00	2	Temperatura media	18.4
169082	7	Sololá	719	Santiago Atitlán	14	Cerro de Oro	8	Agosto	2023-08-27T00:00:00	2024-11-08T22:00:00	4	Temperatura máxima	19.5
169083	7	Sololá	719	Santiago Atitlán	14	Cerro de Oro	8	Agosto	2023-08-27T00:00:00	2024-11-08T22:00:00	3	Temperatura mínima	18.4
169084	7	Sololá	719	Santiago Atitlán	14	Cerro de Oro	8	Agosto	2023-08-27T00:00:00	2024-11-08T22:00:00	5	Humedad	91
169085	7	Sololá	719	Santiago Atitlán	14	Cerro de Oro	8	Agosto	2023-08-27T00:00:00	2024-11-08T22:00:00	6	Velocidad del viento	3.2
169086	7	Sololá	719	Santiago Atitlán	14	Cerro de Oro	8	Agosto	2023-08-27T00:00:00	2024-11-08T22:00:00	7	Dirección del viento	3.22
169087	7	Sololá	719	Santiago Atitlán	14	Cerro de Oro	8	Agosto	2023-08-27T00:00:00	2024-11-08T22:00:00	1	Precipitación	2.8
169088	7	Sololá	719	Santiago Atitlán	14	Cerro de Oro	8	Agosto	2023-08-27T00:00:00	2024-11-08T22:00:00	8	Radiación solar	0
169089	7	Sololá	719	Santiago Atitlán	14	Cerro de Oro	8	Agosto	2023-08-27T00:00:00	2024-11-08T23:00:00	2	Temperatura media	18.3
169090	7	Sololá	719	Santiago Atitlán	14	Cerro de Oro	8	Agosto	2023-08-27T00:00:00	2024-11-08T23:00:00	4	Temperatura máxima	18.4
169091	7	Sololá	719	Santiago Atitlán	14	Cerro de Oro	8	Agosto	2023-08-27T00:00:00	2024-11-08T23:00:00	3	Temperatura mínima	18.2
169092	7	Sololá	719	Santiago Atitlán	14	Cerro de Oro	8	Agosto	2023-08-27T00:00:00	2024-11-08T23:00:00	5	Humedad	92
169093	7	Sololá	719	Santiago Atitlán	14	Cerro de Oro	8	Agosto	2023-08-27T00:00:00	2024-11-08T23:00:00	6	Velocidad del viento	3.2
169094	7	Sololá	719	Santiago Atitlán	14	Cerro de Oro	8	Agosto	2023-08-27T00:00:00	2024-11-08T23:00:00	7	Dirección del viento	3.22
169095	7	Sololá	719	Santiago Atitlán	14	Cerro de Oro	8	Agosto	2023-08-27T00:00:00	2024-11-08T23:00:00	1	Precipitación	0.8
169096	7	Sololá	719	Santiago Atitlán	14	Cerro de Oro	8	Agosto	2023-08-27T00:00:00	2024-11-08T23:00:00	8	Radiación solar	0
169097	7	Sololá	719	Santiago Atitlán	14	Cerro de Oro	8	Agosto	2023-08-28T00:00:00	2024-11-08T00:00:00	2	Temperatura media	18.3
169098	7	Sololá	719	Santiago Atitlán	14	Cerro de Oro	8	Agosto	2023-08-28T00:00:00	2024-11-08T00:00:00	4	Temperatura máxima	18.6
169099	7	Sololá	719	Santiago Atitlán	14	Cerro de Oro	8	Agosto	2023-08-28T00:00:00	2024-11-08T00:00:00	3	Temperatura mínima	18.3
169100	7	Sololá	719	Santiago Atitlán	14	Cerro de Oro	8	Agosto	2023-08-28T00:00:00	2024-11-08T00:00:00	5	Humedad	91
169101	7	Sololá	719	Santiago Atitlán	14	Cerro de Oro	8	Agosto	2023-08-28T00:00:00	2024-11-08T00:00:00	6	Velocidad del viento	3.2
169102	7	Sololá	719	Santiago Atitlán	14	Cerro de Oro	8	Agosto	2023-08-28T00:00:00	2024-11-08T00:00:00	7	Dirección del viento	3.22
169103	7	Sololá	719	Santiago Atitlán	14	Cerro de Oro	8	Agosto	2023-08-28T00:00:00	2024-11-08T00:00:00	1	Precipitación	0.8
169104	7	Sololá	719	Santiago Atitlán	14	Cerro de Oro	8	Agosto	2023-08-28T00:00:00	2024-11-08T00:00:00	8	Radiación solar	0
169105	7	Sololá	719	Santiago Atitlán	14	Cerro de Oro	8	Agosto	2023-08-28T00:00:00	2024-11-08T01:00:00	2	Temperatura media	17.8
169106	7	Sololá	719	Santiago Atitlán	14	Cerro de Oro	8	Agosto	2023-08-28T00:00:00	2024-11-08T01:00:00	4	Temperatura máxima	18.4
169107	7	Sololá	719	Santiago Atitlán	14	Cerro de Oro	8	Agosto	2023-08-28T00:00:00	2024-11-08T01:00:00	3	Temperatura mínima	17.7
169108	7	Sololá	719	Santiago Atitlán	14	Cerro de Oro	8	Agosto	2023-08-28T00:00:00	2024-11-08T01:00:00	5	Humedad	92
169109	7	Sololá	719	Santiago Atitlán	14	Cerro de Oro	8	Agosto	2023-08-28T00:00:00	2024-11-08T01:00:00	6	Velocidad del viento	8
169110	7	Sololá	719	Santiago Atitlán	14	Cerro de Oro	8	Agosto	2023-08-28T00:00:00	2024-11-08T01:00:00	7	Dirección del viento	8.05
169111	7	Sololá	719	Santiago Atitlán	14	Cerro de Oro	8	Agosto	2023-08-28T00:00:00	2024-11-08T01:00:00	1	Precipitación	0.2
169112	7	Sololá	719	Santiago Atitlán	14	Cerro de Oro	8	Agosto	2023-08-28T00:00:00	2024-11-08T01:00:00	8	Radiación solar	0
169113	7	Sololá	719	Santiago Atitlán	14	Cerro de Oro	8	Agosto	2023-08-28T00:00:00	2024-11-08T02:00:00	2	Temperatura media	17.2
169114	7	Sololá	719	Santiago Atitlán	14	Cerro de Oro	8	Agosto	2023-08-28T00:00:00	2024-11-08T02:00:00	4	Temperatura máxima	17.8
169115	7	Sololá	719	Santiago Atitlán	14	Cerro de Oro	8	Agosto	2023-08-28T00:00:00	2024-11-08T02:00:00	3	Temperatura mínima	17.2
169116	7	Sololá	719	Santiago Atitlán	14	Cerro de Oro	8	Agosto	2023-08-28T00:00:00	2024-11-08T02:00:00	5	Humedad	92
169117	7	Sololá	719	Santiago Atitlán	14	Cerro de Oro	8	Agosto	2023-08-28T00:00:00	2024-11-08T02:00:00	6	Velocidad del viento	6.4
169118	7	Sololá	719	Santiago Atitlán	14	Cerro de Oro	8	Agosto	2023-08-28T00:00:00	2024-11-08T02:00:00	7	Dirección del viento	6.44
169119	7	Sololá	719	Santiago Atitlán	14	Cerro de Oro	8	Agosto	2023-08-28T00:00:00	2024-11-08T02:00:00	1	Precipitación	2.2
169120	7	Sololá	719	Santiago Atitlán	14	Cerro de Oro	8	Agosto	2023-08-28T00:00:00	2024-11-08T02:00:00	8	Radiación solar	0
169121	7	Sololá	719	Santiago Atitlán	14	Cerro de Oro	8	Agosto	2023-08-28T00:00:00	2024-11-08T03:00:00	2	Temperatura media	17.4
169122	7	Sololá	719	Santiago Atitlán	14	Cerro de Oro	8	Agosto	2023-08-28T00:00:00	2024-11-08T03:00:00	4	Temperatura máxima	17.7
169123	7	Sololá	719	Santiago Atitlán	14	Cerro de Oro	8	Agosto	2023-08-28T00:00:00	2024-11-08T03:00:00	3	Temperatura mínima	17.1
169124	7	Sololá	719	Santiago Atitlán	14	Cerro de Oro	8	Agosto	2023-08-28T00:00:00	2024-11-08T03:00:00	5	Humedad	91
169125	7	Sololá	719	Santiago Atitlán	14	Cerro de Oro	8	Agosto	2023-08-28T00:00:00	2024-11-08T03:00:00	6	Velocidad del viento	6.4
169126	7	Sololá	719	Santiago Atitlán	14	Cerro de Oro	8	Agosto	2023-08-28T00:00:00	2024-11-08T03:00:00	7	Dirección del viento	6.44
169127	7	Sololá	719	Santiago Atitlán	14	Cerro de Oro	8	Agosto	2023-08-28T00:00:00	2024-11-08T03:00:00	1	Precipitación	0
169128	7	Sololá	719	Santiago Atitlán	14	Cerro de Oro	8	Agosto	2023-08-28T00:00:00	2024-11-08T03:00:00	8	Radiación solar	0
169129	7	Sololá	719	Santiago Atitlán	14	Cerro de Oro	8	Agosto	2023-08-28T00:00:00	2024-11-08T04:00:00	2	Temperatura media	17.4
169130	7	Sololá	719	Santiago Atitlán	14	Cerro de Oro	8	Agosto	2023-08-28T00:00:00	2024-11-08T04:00:00	4	Temperatura máxima	17.6
169131	7	Sololá	719	Santiago Atitlán	14	Cerro de Oro	8	Agosto	2023-08-28T00:00:00	2024-11-08T04:00:00	3	Temperatura mínima	17.3
169132	7	Sololá	719	Santiago Atitlán	14	Cerro de Oro	8	Agosto	2023-08-28T00:00:00	2024-11-08T04:00:00	5	Humedad	91
169133	7	Sololá	719	Santiago Atitlán	14	Cerro de Oro	8	Agosto	2023-08-28T00:00:00	2024-11-08T04:00:00	6	Velocidad del viento	6.4
169134	7	Sololá	719	Santiago Atitlán	14	Cerro de Oro	8	Agosto	2023-08-28T00:00:00	2024-11-08T04:00:00	7	Dirección del viento	6.44
169135	7	Sololá	719	Santiago Atitlán	14	Cerro de Oro	8	Agosto	2023-08-28T00:00:00	2024-11-08T04:00:00	1	Precipitación	0.2
169136	7	Sololá	719	Santiago Atitlán	14	Cerro de Oro	8	Agosto	2023-08-28T00:00:00	2024-11-08T04:00:00	8	Radiación solar	0
169137	7	Sololá	719	Santiago Atitlán	14	Cerro de Oro	8	Agosto	2023-08-28T00:00:00	2024-11-08T05:00:00	2	Temperatura media	17.5
169138	7	Sololá	719	Santiago Atitlán	14	Cerro de Oro	8	Agosto	2023-08-28T00:00:00	2024-11-08T05:00:00	4	Temperatura máxima	17.5
169139	7	Sololá	719	Santiago Atitlán	14	Cerro de Oro	8	Agosto	2023-08-28T00:00:00	2024-11-08T05:00:00	3	Temperatura mínima	17.3
169140	7	Sololá	719	Santiago Atitlán	14	Cerro de Oro	8	Agosto	2023-08-28T00:00:00	2024-11-08T05:00:00	5	Humedad	92
169141	7	Sololá	719	Santiago Atitlán	14	Cerro de Oro	8	Agosto	2023-08-28T00:00:00	2024-11-08T05:00:00	6	Velocidad del viento	4.8
169142	7	Sololá	719	Santiago Atitlán	14	Cerro de Oro	8	Agosto	2023-08-28T00:00:00	2024-11-08T05:00:00	7	Dirección del viento	4.83
169143	7	Sololá	719	Santiago Atitlán	14	Cerro de Oro	8	Agosto	2023-08-28T00:00:00	2024-11-08T05:00:00	1	Precipitación	0
169144	7	Sololá	719	Santiago Atitlán	14	Cerro de Oro	8	Agosto	2023-08-28T00:00:00	2024-11-08T05:00:00	8	Radiación solar	0
169145	7	Sololá	719	Santiago Atitlán	14	Cerro de Oro	8	Agosto	2023-08-28T00:00:00	2024-11-08T06:00:00	2	Temperatura media	17.3
169146	7	Sololá	719	Santiago Atitlán	14	Cerro de Oro	8	Agosto	2023-08-28T00:00:00	2024-11-08T06:00:00	4	Temperatura máxima	17.6
169147	7	Sololá	719	Santiago Atitlán	14	Cerro de Oro	8	Agosto	2023-08-28T00:00:00	2024-11-08T06:00:00	3	Temperatura mínima	17.2
169148	7	Sololá	719	Santiago Atitlán	14	Cerro de Oro	8	Agosto	2023-08-28T00:00:00	2024-11-08T06:00:00	5	Humedad	92
169149	7	Sololá	719	Santiago Atitlán	14	Cerro de Oro	8	Agosto	2023-08-28T00:00:00	2024-11-08T06:00:00	6	Velocidad del viento	4.8
169150	7	Sololá	719	Santiago Atitlán	14	Cerro de Oro	8	Agosto	2023-08-28T00:00:00	2024-11-08T06:00:00	7	Dirección del viento	4.83
169151	7	Sololá	719	Santiago Atitlán	14	Cerro de Oro	8	Agosto	2023-08-28T00:00:00	2024-11-08T06:00:00	1	Precipitación	0
169152	7	Sololá	719	Santiago Atitlán	14	Cerro de Oro	8	Agosto	2023-08-28T00:00:00	2024-11-08T06:00:00	8	Radiación solar	0
169153	7	Sololá	719	Santiago Atitlán	14	Cerro de Oro	8	Agosto	2023-08-28T00:00:00	2024-11-08T07:00:00	2	Temperatura media	18.7
169154	7	Sololá	719	Santiago Atitlán	14	Cerro de Oro	8	Agosto	2023-08-28T00:00:00	2024-11-08T07:00:00	4	Temperatura máxima	18.7
169155	7	Sololá	719	Santiago Atitlán	14	Cerro de Oro	8	Agosto	2023-08-28T00:00:00	2024-11-08T07:00:00	3	Temperatura mínima	17.3
169156	7	Sololá	719	Santiago Atitlán	14	Cerro de Oro	8	Agosto	2023-08-28T00:00:00	2024-11-08T07:00:00	5	Humedad	89
169157	7	Sololá	719	Santiago Atitlán	14	Cerro de Oro	8	Agosto	2023-08-28T00:00:00	2024-11-08T07:00:00	6	Velocidad del viento	4.8
169158	7	Sololá	719	Santiago Atitlán	14	Cerro de Oro	8	Agosto	2023-08-28T00:00:00	2024-11-08T07:00:00	7	Dirección del viento	4.83
169159	7	Sololá	719	Santiago Atitlán	14	Cerro de Oro	8	Agosto	2023-08-28T00:00:00	2024-11-08T07:00:00	1	Precipitación	0
169160	7	Sololá	719	Santiago Atitlán	14	Cerro de Oro	8	Agosto	2023-08-28T00:00:00	2024-11-08T07:00:00	8	Radiación solar	60
169161	7	Sololá	719	Santiago Atitlán	14	Cerro de Oro	8	Agosto	2023-08-28T00:00:00	2024-11-08T08:00:00	2	Temperatura media	21.1
169162	7	Sololá	719	Santiago Atitlán	14	Cerro de Oro	8	Agosto	2023-08-28T00:00:00	2024-11-08T08:00:00	4	Temperatura máxima	21.3
169163	7	Sololá	719	Santiago Atitlán	14	Cerro de Oro	8	Agosto	2023-08-28T00:00:00	2024-11-08T08:00:00	3	Temperatura mínima	18.7
169164	7	Sololá	719	Santiago Atitlán	14	Cerro de Oro	8	Agosto	2023-08-28T00:00:00	2024-11-08T08:00:00	5	Humedad	82
169165	7	Sololá	719	Santiago Atitlán	14	Cerro de Oro	8	Agosto	2023-08-28T00:00:00	2024-11-08T08:00:00	6	Velocidad del viento	1.6
169166	7	Sololá	719	Santiago Atitlán	14	Cerro de Oro	8	Agosto	2023-08-28T00:00:00	2024-11-08T08:00:00	7	Dirección del viento	1.61
169167	7	Sololá	719	Santiago Atitlán	14	Cerro de Oro	8	Agosto	2023-08-28T00:00:00	2024-11-08T08:00:00	1	Precipitación	0
169168	7	Sololá	719	Santiago Atitlán	14	Cerro de Oro	8	Agosto	2023-08-28T00:00:00	2024-11-08T08:00:00	8	Radiación solar	281
169169	7	Sololá	719	Santiago Atitlán	14	Cerro de Oro	8	Agosto	2023-08-28T00:00:00	2024-11-08T09:00:00	2	Temperatura media	21.9
169170	7	Sololá	719	Santiago Atitlán	14	Cerro de Oro	8	Agosto	2023-08-28T00:00:00	2024-11-08T09:00:00	4	Temperatura máxima	21.9
169171	7	Sololá	719	Santiago Atitlán	14	Cerro de Oro	8	Agosto	2023-08-28T00:00:00	2024-11-08T09:00:00	3	Temperatura mínima	20.3
169172	7	Sololá	719	Santiago Atitlán	14	Cerro de Oro	8	Agosto	2023-08-28T00:00:00	2024-11-08T09:00:00	5	Humedad	76
169173	7	Sololá	719	Santiago Atitlán	14	Cerro de Oro	8	Agosto	2023-08-28T00:00:00	2024-11-08T09:00:00	6	Velocidad del viento	3.2
169174	7	Sololá	719	Santiago Atitlán	14	Cerro de Oro	8	Agosto	2023-08-28T00:00:00	2024-11-08T09:00:00	7	Dirección del viento	3.22
169175	7	Sololá	719	Santiago Atitlán	14	Cerro de Oro	8	Agosto	2023-08-28T00:00:00	2024-11-08T09:00:00	1	Precipitación	0
169176	7	Sololá	719	Santiago Atitlán	14	Cerro de Oro	8	Agosto	2023-08-28T00:00:00	2024-11-08T09:00:00	8	Radiación solar	406
169177	7	Sololá	719	Santiago Atitlán	14	Cerro de Oro	8	Agosto	2023-08-28T00:00:00	2024-11-08T10:00:00	2	Temperatura media	21.8
169178	7	Sololá	719	Santiago Atitlán	14	Cerro de Oro	8	Agosto	2023-08-28T00:00:00	2024-11-08T10:00:00	4	Temperatura máxima	22.1
169179	7	Sololá	719	Santiago Atitlán	14	Cerro de Oro	8	Agosto	2023-08-28T00:00:00	2024-11-08T10:00:00	3	Temperatura mínima	21.2
169180	7	Sololá	719	Santiago Atitlán	14	Cerro de Oro	8	Agosto	2023-08-28T00:00:00	2024-11-08T10:00:00	5	Humedad	77
169181	7	Sololá	719	Santiago Atitlán	14	Cerro de Oro	8	Agosto	2023-08-28T00:00:00	2024-11-08T10:00:00	6	Velocidad del viento	4.8
169182	7	Sololá	719	Santiago Atitlán	14	Cerro de Oro	8	Agosto	2023-08-28T00:00:00	2024-11-08T10:00:00	7	Dirección del viento	4.83
169183	7	Sololá	719	Santiago Atitlán	14	Cerro de Oro	8	Agosto	2023-08-28T00:00:00	2024-11-08T10:00:00	1	Precipitación	0
169184	7	Sololá	719	Santiago Atitlán	14	Cerro de Oro	8	Agosto	2023-08-28T00:00:00	2024-11-08T10:00:00	8	Radiación solar	480
169185	7	Sololá	719	Santiago Atitlán	14	Cerro de Oro	8	Agosto	2023-08-28T00:00:00	2024-11-08T11:00:00	2	Temperatura media	22.2
169186	7	Sololá	719	Santiago Atitlán	14	Cerro de Oro	8	Agosto	2023-08-28T00:00:00	2024-11-08T11:00:00	4	Temperatura máxima	22.8
169187	7	Sololá	719	Santiago Atitlán	14	Cerro de Oro	8	Agosto	2023-08-28T00:00:00	2024-11-08T11:00:00	3	Temperatura mínima	21.6
169188	7	Sololá	719	Santiago Atitlán	14	Cerro de Oro	8	Agosto	2023-08-28T00:00:00	2024-11-08T11:00:00	5	Humedad	75
169189	7	Sololá	719	Santiago Atitlán	14	Cerro de Oro	8	Agosto	2023-08-28T00:00:00	2024-11-08T11:00:00	6	Velocidad del viento	4.8
169190	7	Sololá	719	Santiago Atitlán	14	Cerro de Oro	8	Agosto	2023-08-28T00:00:00	2024-11-08T11:00:00	7	Dirección del viento	4.83
169191	7	Sololá	719	Santiago Atitlán	14	Cerro de Oro	8	Agosto	2023-08-28T00:00:00	2024-11-08T11:00:00	1	Precipitación	0
169192	7	Sololá	719	Santiago Atitlán	14	Cerro de Oro	8	Agosto	2023-08-28T00:00:00	2024-11-08T11:00:00	8	Radiación solar	503
169193	7	Sololá	719	Santiago Atitlán	14	Cerro de Oro	8	Agosto	2023-08-28T00:00:00	2024-11-08T12:00:00	2	Temperatura media	21.9
169194	7	Sololá	719	Santiago Atitlán	14	Cerro de Oro	8	Agosto	2023-08-28T00:00:00	2024-11-08T12:00:00	4	Temperatura máxima	23.4
169195	7	Sololá	719	Santiago Atitlán	14	Cerro de Oro	8	Agosto	2023-08-28T00:00:00	2024-11-08T12:00:00	3	Temperatura mínima	21.9
169196	7	Sololá	719	Santiago Atitlán	14	Cerro de Oro	8	Agosto	2023-08-28T00:00:00	2024-11-08T12:00:00	5	Humedad	80
169197	7	Sololá	719	Santiago Atitlán	14	Cerro de Oro	8	Agosto	2023-08-28T00:00:00	2024-11-08T12:00:00	6	Velocidad del viento	8
169198	7	Sololá	719	Santiago Atitlán	14	Cerro de Oro	8	Agosto	2023-08-28T00:00:00	2024-11-08T12:00:00	7	Dirección del viento	8.05
169199	7	Sololá	719	Santiago Atitlán	14	Cerro de Oro	8	Agosto	2023-08-28T00:00:00	2024-11-08T12:00:00	1	Precipitación	0
169200	7	Sololá	719	Santiago Atitlán	14	Cerro de Oro	8	Agosto	2023-08-28T00:00:00	2024-11-08T12:00:00	8	Radiación solar	511
169201	7	Sololá	719	Santiago Atitlán	14	Cerro de Oro	8	Agosto	2023-08-28T00:00:00	2024-11-08T13:00:00	2	Temperatura media	22.4
169202	7	Sololá	719	Santiago Atitlán	14	Cerro de Oro	8	Agosto	2023-08-28T00:00:00	2024-11-08T13:00:00	4	Temperatura máxima	22.5
169203	7	Sololá	719	Santiago Atitlán	14	Cerro de Oro	8	Agosto	2023-08-28T00:00:00	2024-11-08T13:00:00	3	Temperatura mínima	21.7
169204	7	Sololá	719	Santiago Atitlán	14	Cerro de Oro	8	Agosto	2023-08-28T00:00:00	2024-11-08T13:00:00	5	Humedad	81
169205	7	Sololá	719	Santiago Atitlán	14	Cerro de Oro	8	Agosto	2023-08-28T00:00:00	2024-11-08T13:00:00	6	Velocidad del viento	8
169206	7	Sololá	719	Santiago Atitlán	14	Cerro de Oro	8	Agosto	2023-08-28T00:00:00	2024-11-08T13:00:00	7	Dirección del viento	8.05
169207	7	Sololá	719	Santiago Atitlán	14	Cerro de Oro	8	Agosto	2023-08-28T00:00:00	2024-11-08T13:00:00	1	Precipitación	0
169208	7	Sololá	719	Santiago Atitlán	14	Cerro de Oro	8	Agosto	2023-08-28T00:00:00	2024-11-08T13:00:00	8	Radiación solar	340
169209	7	Sololá	719	Santiago Atitlán	14	Cerro de Oro	8	Agosto	2023-08-28T00:00:00	2024-11-08T14:00:00	2	Temperatura media	21
169210	7	Sololá	719	Santiago Atitlán	14	Cerro de Oro	8	Agosto	2023-08-28T00:00:00	2024-11-08T14:00:00	4	Temperatura máxima	22.6
169211	7	Sololá	719	Santiago Atitlán	14	Cerro de Oro	8	Agosto	2023-08-28T00:00:00	2024-11-08T14:00:00	3	Temperatura mínima	21
169212	7	Sololá	719	Santiago Atitlán	14	Cerro de Oro	8	Agosto	2023-08-28T00:00:00	2024-11-08T14:00:00	5	Humedad	85
169213	7	Sololá	719	Santiago Atitlán	14	Cerro de Oro	8	Agosto	2023-08-28T00:00:00	2024-11-08T14:00:00	6	Velocidad del viento	11.3
169214	7	Sololá	719	Santiago Atitlán	14	Cerro de Oro	8	Agosto	2023-08-28T00:00:00	2024-11-08T14:00:00	7	Dirección del viento	11.27
169215	7	Sololá	719	Santiago Atitlán	14	Cerro de Oro	8	Agosto	2023-08-28T00:00:00	2024-11-08T14:00:00	1	Precipitación	0
169216	7	Sololá	719	Santiago Atitlán	14	Cerro de Oro	8	Agosto	2023-08-28T00:00:00	2024-11-08T14:00:00	8	Radiación solar	335
169217	7	Sololá	719	Santiago Atitlán	14	Cerro de Oro	8	Agosto	2023-08-28T00:00:00	2024-11-08T15:00:00	2	Temperatura media	19.9
169218	7	Sololá	719	Santiago Atitlán	14	Cerro de Oro	8	Agosto	2023-08-28T00:00:00	2024-11-08T15:00:00	4	Temperatura máxima	21
169219	7	Sololá	719	Santiago Atitlán	14	Cerro de Oro	8	Agosto	2023-08-28T00:00:00	2024-11-08T15:00:00	3	Temperatura mínima	19.9
169220	7	Sololá	719	Santiago Atitlán	14	Cerro de Oro	8	Agosto	2023-08-28T00:00:00	2024-11-08T15:00:00	5	Humedad	90
169221	7	Sololá	719	Santiago Atitlán	14	Cerro de Oro	8	Agosto	2023-08-28T00:00:00	2024-11-08T15:00:00	6	Velocidad del viento	8
169222	7	Sololá	719	Santiago Atitlán	14	Cerro de Oro	8	Agosto	2023-08-28T00:00:00	2024-11-08T15:00:00	7	Dirección del viento	8.05
169223	7	Sololá	719	Santiago Atitlán	14	Cerro de Oro	8	Agosto	2023-08-28T00:00:00	2024-11-08T15:00:00	1	Precipitación	1
169224	7	Sololá	719	Santiago Atitlán	14	Cerro de Oro	8	Agosto	2023-08-28T00:00:00	2024-11-08T15:00:00	8	Radiación solar	156
169225	7	Sololá	719	Santiago Atitlán	14	Cerro de Oro	8	Agosto	2023-08-28T00:00:00	2024-11-08T16:00:00	2	Temperatura media	19.2
169226	7	Sololá	719	Santiago Atitlán	14	Cerro de Oro	8	Agosto	2023-08-28T00:00:00	2024-11-08T16:00:00	4	Temperatura máxima	19.9
169227	7	Sololá	719	Santiago Atitlán	14	Cerro de Oro	8	Agosto	2023-08-28T00:00:00	2024-11-08T16:00:00	3	Temperatura mínima	19.2
169228	7	Sololá	719	Santiago Atitlán	14	Cerro de Oro	8	Agosto	2023-08-28T00:00:00	2024-11-08T16:00:00	5	Humedad	91
169229	7	Sololá	719	Santiago Atitlán	14	Cerro de Oro	8	Agosto	2023-08-28T00:00:00	2024-11-08T16:00:00	6	Velocidad del viento	3.2
169230	7	Sololá	719	Santiago Atitlán	14	Cerro de Oro	8	Agosto	2023-08-28T00:00:00	2024-11-08T16:00:00	7	Dirección del viento	3.22
169231	7	Sololá	719	Santiago Atitlán	14	Cerro de Oro	8	Agosto	2023-08-28T00:00:00	2024-11-08T16:00:00	1	Precipitación	2.8
169232	7	Sololá	719	Santiago Atitlán	14	Cerro de Oro	8	Agosto	2023-08-28T00:00:00	2024-11-08T16:00:00	8	Radiación solar	69
169233	7	Sololá	719	Santiago Atitlán	14	Cerro de Oro	8	Agosto	2023-08-28T00:00:00	2024-11-08T17:00:00	2	Temperatura media	18.4
169234	7	Sololá	719	Santiago Atitlán	14	Cerro de Oro	8	Agosto	2023-08-28T00:00:00	2024-11-08T17:00:00	4	Temperatura máxima	19.2
169235	7	Sololá	719	Santiago Atitlán	14	Cerro de Oro	8	Agosto	2023-08-28T00:00:00	2024-11-08T17:00:00	3	Temperatura mínima	18.3
169236	7	Sololá	719	Santiago Atitlán	14	Cerro de Oro	8	Agosto	2023-08-28T00:00:00	2024-11-08T17:00:00	5	Humedad	93
169237	7	Sololá	719	Santiago Atitlán	14	Cerro de Oro	8	Agosto	2023-08-28T00:00:00	2024-11-08T17:00:00	6	Velocidad del viento	4.8
169238	7	Sololá	719	Santiago Atitlán	14	Cerro de Oro	8	Agosto	2023-08-28T00:00:00	2024-11-08T17:00:00	7	Dirección del viento	4.83
169239	7	Sololá	719	Santiago Atitlán	14	Cerro de Oro	8	Agosto	2023-08-28T00:00:00	2024-11-08T17:00:00	1	Precipitación	4.6
169240	7	Sololá	719	Santiago Atitlán	14	Cerro de Oro	8	Agosto	2023-08-28T00:00:00	2024-11-08T17:00:00	8	Radiación solar	16
169241	7	Sololá	719	Santiago Atitlán	14	Cerro de Oro	8	Agosto	2023-08-28T00:00:00	2024-11-08T18:00:00	2	Temperatura media	18.3
169242	7	Sololá	719	Santiago Atitlán	14	Cerro de Oro	8	Agosto	2023-08-28T00:00:00	2024-11-08T18:00:00	4	Temperatura máxima	18.5
169243	7	Sololá	719	Santiago Atitlán	14	Cerro de Oro	8	Agosto	2023-08-28T00:00:00	2024-11-08T18:00:00	3	Temperatura mínima	18.3
169244	7	Sololá	719	Santiago Atitlán	14	Cerro de Oro	8	Agosto	2023-08-28T00:00:00	2024-11-08T18:00:00	5	Humedad	92
169245	7	Sololá	719	Santiago Atitlán	14	Cerro de Oro	8	Agosto	2023-08-28T00:00:00	2024-11-08T18:00:00	6	Velocidad del viento	4.8
169246	7	Sololá	719	Santiago Atitlán	14	Cerro de Oro	8	Agosto	2023-08-28T00:00:00	2024-11-08T18:00:00	7	Dirección del viento	4.83
169247	7	Sololá	719	Santiago Atitlán	14	Cerro de Oro	8	Agosto	2023-08-28T00:00:00	2024-11-08T18:00:00	1	Precipitación	1.6
169248	7	Sololá	719	Santiago Atitlán	14	Cerro de Oro	8	Agosto	2023-08-28T00:00:00	2024-11-08T18:00:00	8	Radiación solar	14
169249	7	Sololá	719	Santiago Atitlán	14	Cerro de Oro	8	Agosto	2023-08-28T00:00:00	2024-11-08T19:00:00	2	Temperatura media	18.2
169250	7	Sololá	719	Santiago Atitlán	14	Cerro de Oro	8	Agosto	2023-08-28T00:00:00	2024-11-08T19:00:00	4	Temperatura máxima	18.4
169251	7	Sololá	719	Santiago Atitlán	14	Cerro de Oro	8	Agosto	2023-08-28T00:00:00	2024-11-08T19:00:00	3	Temperatura mínima	18
169252	7	Sololá	719	Santiago Atitlán	14	Cerro de Oro	8	Agosto	2023-08-28T00:00:00	2024-11-08T19:00:00	5	Humedad	92
169253	7	Sololá	719	Santiago Atitlán	14	Cerro de Oro	8	Agosto	2023-08-28T00:00:00	2024-11-08T19:00:00	6	Velocidad del viento	3.2
169254	7	Sololá	719	Santiago Atitlán	14	Cerro de Oro	8	Agosto	2023-08-28T00:00:00	2024-11-08T19:00:00	7	Dirección del viento	3.22
169255	7	Sololá	719	Santiago Atitlán	14	Cerro de Oro	8	Agosto	2023-08-28T00:00:00	2024-11-08T19:00:00	1	Precipitación	0.2
169256	7	Sololá	719	Santiago Atitlán	14	Cerro de Oro	8	Agosto	2023-08-28T00:00:00	2024-11-08T19:00:00	8	Radiación solar	0
169257	7	Sololá	719	Santiago Atitlán	14	Cerro de Oro	8	Agosto	2023-08-28T00:00:00	2024-11-08T20:00:00	2	Temperatura media	17.9
169258	7	Sololá	719	Santiago Atitlán	14	Cerro de Oro	8	Agosto	2023-08-28T00:00:00	2024-11-08T20:00:00	4	Temperatura máxima	18.2
169259	7	Sololá	719	Santiago Atitlán	14	Cerro de Oro	8	Agosto	2023-08-28T00:00:00	2024-11-08T20:00:00	3	Temperatura mínima	17.8
169260	7	Sololá	719	Santiago Atitlán	14	Cerro de Oro	8	Agosto	2023-08-28T00:00:00	2024-11-08T20:00:00	5	Humedad	91
169261	7	Sololá	719	Santiago Atitlán	14	Cerro de Oro	8	Agosto	2023-08-28T00:00:00	2024-11-08T20:00:00	6	Velocidad del viento	3.2
169262	7	Sololá	719	Santiago Atitlán	14	Cerro de Oro	8	Agosto	2023-08-28T00:00:00	2024-11-08T20:00:00	7	Dirección del viento	3.22
169263	7	Sololá	719	Santiago Atitlán	14	Cerro de Oro	8	Agosto	2023-08-28T00:00:00	2024-11-08T20:00:00	1	Precipitación	0
169264	7	Sololá	719	Santiago Atitlán	14	Cerro de Oro	8	Agosto	2023-08-28T00:00:00	2024-11-08T20:00:00	8	Radiación solar	0
169265	7	Sololá	719	Santiago Atitlán	14	Cerro de Oro	8	Agosto	2023-08-28T00:00:00	2024-11-08T21:00:00	2	Temperatura media	17.7
169266	7	Sololá	719	Santiago Atitlán	14	Cerro de Oro	8	Agosto	2023-08-28T00:00:00	2024-11-08T21:00:00	4	Temperatura máxima	17.9
169267	7	Sololá	719	Santiago Atitlán	14	Cerro de Oro	8	Agosto	2023-08-28T00:00:00	2024-11-08T21:00:00	3	Temperatura mínima	17.7
169268	7	Sololá	719	Santiago Atitlán	14	Cerro de Oro	8	Agosto	2023-08-28T00:00:00	2024-11-08T21:00:00	5	Humedad	92
169269	7	Sololá	719	Santiago Atitlán	14	Cerro de Oro	8	Agosto	2023-08-28T00:00:00	2024-11-08T21:00:00	6	Velocidad del viento	4.8
169270	7	Sololá	719	Santiago Atitlán	14	Cerro de Oro	8	Agosto	2023-08-28T00:00:00	2024-11-08T21:00:00	7	Dirección del viento	4.83
169271	7	Sololá	719	Santiago Atitlán	14	Cerro de Oro	8	Agosto	2023-08-28T00:00:00	2024-11-08T21:00:00	1	Precipitación	0.4
169272	7	Sololá	719	Santiago Atitlán	14	Cerro de Oro	8	Agosto	2023-08-28T00:00:00	2024-11-08T21:00:00	8	Radiación solar	0
169273	7	Sololá	719	Santiago Atitlán	14	Cerro de Oro	8	Agosto	2023-08-28T00:00:00	2024-11-08T22:00:00	2	Temperatura media	17.8
169274	7	Sololá	719	Santiago Atitlán	14	Cerro de Oro	8	Agosto	2023-08-28T00:00:00	2024-11-08T22:00:00	4	Temperatura máxima	18
169275	7	Sololá	719	Santiago Atitlán	14	Cerro de Oro	8	Agosto	2023-08-28T00:00:00	2024-11-08T22:00:00	3	Temperatura mínima	17.7
169276	7	Sololá	719	Santiago Atitlán	14	Cerro de Oro	8	Agosto	2023-08-28T00:00:00	2024-11-08T22:00:00	5	Humedad	92
169277	7	Sololá	719	Santiago Atitlán	14	Cerro de Oro	8	Agosto	2023-08-28T00:00:00	2024-11-08T22:00:00	6	Velocidad del viento	4.8
169278	7	Sololá	719	Santiago Atitlán	14	Cerro de Oro	8	Agosto	2023-08-28T00:00:00	2024-11-08T22:00:00	7	Dirección del viento	4.83
169279	7	Sololá	719	Santiago Atitlán	14	Cerro de Oro	8	Agosto	2023-08-28T00:00:00	2024-11-08T22:00:00	1	Precipitación	0
169280	7	Sololá	719	Santiago Atitlán	14	Cerro de Oro	8	Agosto	2023-08-28T00:00:00	2024-11-08T22:00:00	8	Radiación solar	0
169281	7	Sololá	719	Santiago Atitlán	14	Cerro de Oro	8	Agosto	2023-08-28T00:00:00	2024-11-08T23:00:00	2	Temperatura media	18.1
169282	7	Sololá	719	Santiago Atitlán	14	Cerro de Oro	8	Agosto	2023-08-28T00:00:00	2024-11-08T23:00:00	4	Temperatura máxima	18.2
169283	7	Sololá	719	Santiago Atitlán	14	Cerro de Oro	8	Agosto	2023-08-28T00:00:00	2024-11-08T23:00:00	3	Temperatura mínima	17.7
169284	7	Sololá	719	Santiago Atitlán	14	Cerro de Oro	8	Agosto	2023-08-28T00:00:00	2024-11-08T23:00:00	5	Humedad	92
169285	7	Sololá	719	Santiago Atitlán	14	Cerro de Oro	8	Agosto	2023-08-28T00:00:00	2024-11-08T23:00:00	6	Velocidad del viento	3.2
169286	7	Sololá	719	Santiago Atitlán	14	Cerro de Oro	8	Agosto	2023-08-28T00:00:00	2024-11-08T23:00:00	7	Dirección del viento	3.22
169287	7	Sololá	719	Santiago Atitlán	14	Cerro de Oro	8	Agosto	2023-08-28T00:00:00	2024-11-08T23:00:00	1	Precipitación	0
169288	7	Sololá	719	Santiago Atitlán	14	Cerro de Oro	8	Agosto	2023-08-28T00:00:00	2024-11-08T23:00:00	8	Radiación solar	0
169289	7	Sololá	719	Santiago Atitlán	14	Cerro de Oro	8	Agosto	2023-08-29T00:00:00	2024-11-08T00:00:00	2	Temperatura media	17.8
169290	7	Sololá	719	Santiago Atitlán	14	Cerro de Oro	8	Agosto	2023-08-29T00:00:00	2024-11-08T00:00:00	4	Temperatura máxima	18.2
169291	7	Sololá	719	Santiago Atitlán	14	Cerro de Oro	8	Agosto	2023-08-29T00:00:00	2024-11-08T00:00:00	3	Temperatura mínima	17.8
169292	7	Sololá	719	Santiago Atitlán	14	Cerro de Oro	8	Agosto	2023-08-29T00:00:00	2024-11-08T00:00:00	5	Humedad	92
169293	7	Sololá	719	Santiago Atitlán	14	Cerro de Oro	8	Agosto	2023-08-29T00:00:00	2024-11-08T00:00:00	6	Velocidad del viento	4.8
169294	7	Sololá	719	Santiago Atitlán	14	Cerro de Oro	8	Agosto	2023-08-29T00:00:00	2024-11-08T00:00:00	7	Dirección del viento	4.83
169295	7	Sololá	719	Santiago Atitlán	14	Cerro de Oro	8	Agosto	2023-08-29T00:00:00	2024-11-08T00:00:00	1	Precipitación	0
169296	7	Sololá	719	Santiago Atitlán	14	Cerro de Oro	8	Agosto	2023-08-29T00:00:00	2024-11-08T00:00:00	8	Radiación solar	0
169297	7	Sololá	719	Santiago Atitlán	14	Cerro de Oro	8	Agosto	2023-08-29T00:00:00	2024-11-08T01:00:00	2	Temperatura media	18.1
169298	7	Sololá	719	Santiago Atitlán	14	Cerro de Oro	8	Agosto	2023-08-29T00:00:00	2024-11-08T01:00:00	4	Temperatura máxima	18.2
169299	7	Sololá	719	Santiago Atitlán	14	Cerro de Oro	8	Agosto	2023-08-29T00:00:00	2024-11-08T01:00:00	3	Temperatura mínima	17.8
169300	7	Sololá	719	Santiago Atitlán	14	Cerro de Oro	8	Agosto	2023-08-29T00:00:00	2024-11-08T01:00:00	5	Humedad	92
169301	7	Sololá	719	Santiago Atitlán	14	Cerro de Oro	8	Agosto	2023-08-29T00:00:00	2024-11-08T01:00:00	6	Velocidad del viento	3.2
169302	7	Sololá	719	Santiago Atitlán	14	Cerro de Oro	8	Agosto	2023-08-29T00:00:00	2024-11-08T01:00:00	7	Dirección del viento	3.22
169303	7	Sololá	719	Santiago Atitlán	14	Cerro de Oro	8	Agosto	2023-08-29T00:00:00	2024-11-08T01:00:00	1	Precipitación	0
169304	7	Sololá	719	Santiago Atitlán	14	Cerro de Oro	8	Agosto	2023-08-29T00:00:00	2024-11-08T01:00:00	8	Radiación solar	0
169305	7	Sololá	719	Santiago Atitlán	14	Cerro de Oro	8	Agosto	2023-08-29T00:00:00	2024-11-08T02:00:00	2	Temperatura media	17.9
169306	7	Sololá	719	Santiago Atitlán	14	Cerro de Oro	8	Agosto	2023-08-29T00:00:00	2024-11-08T02:00:00	4	Temperatura máxima	18.2
169307	7	Sololá	719	Santiago Atitlán	14	Cerro de Oro	8	Agosto	2023-08-29T00:00:00	2024-11-08T02:00:00	3	Temperatura mínima	17.9
169308	7	Sololá	719	Santiago Atitlán	14	Cerro de Oro	8	Agosto	2023-08-29T00:00:00	2024-11-08T02:00:00	5	Humedad	92
169309	7	Sololá	719	Santiago Atitlán	14	Cerro de Oro	8	Agosto	2023-08-29T00:00:00	2024-11-08T02:00:00	6	Velocidad del viento	4.8
169310	7	Sololá	719	Santiago Atitlán	14	Cerro de Oro	8	Agosto	2023-08-29T00:00:00	2024-11-08T02:00:00	7	Dirección del viento	4.83
169311	7	Sololá	719	Santiago Atitlán	14	Cerro de Oro	8	Agosto	2023-08-29T00:00:00	2024-11-08T02:00:00	1	Precipitación	0
169312	7	Sololá	719	Santiago Atitlán	14	Cerro de Oro	8	Agosto	2023-08-29T00:00:00	2024-11-08T02:00:00	8	Radiación solar	0
169313	7	Sololá	719	Santiago Atitlán	14	Cerro de Oro	8	Agosto	2023-08-29T00:00:00	2024-11-08T03:00:00	2	Temperatura media	17.8
169314	7	Sololá	719	Santiago Atitlán	14	Cerro de Oro	8	Agosto	2023-08-29T00:00:00	2024-11-08T03:00:00	4	Temperatura máxima	18.2
169315	7	Sololá	719	Santiago Atitlán	14	Cerro de Oro	8	Agosto	2023-08-29T00:00:00	2024-11-08T03:00:00	3	Temperatura mínima	17.7
169316	7	Sololá	719	Santiago Atitlán	14	Cerro de Oro	8	Agosto	2023-08-29T00:00:00	2024-11-08T03:00:00	5	Humedad	92
169317	7	Sololá	719	Santiago Atitlán	14	Cerro de Oro	8	Agosto	2023-08-29T00:00:00	2024-11-08T03:00:00	6	Velocidad del viento	3.2
169318	7	Sololá	719	Santiago Atitlán	14	Cerro de Oro	8	Agosto	2023-08-29T00:00:00	2024-11-08T03:00:00	7	Dirección del viento	3.22
169319	7	Sololá	719	Santiago Atitlán	14	Cerro de Oro	8	Agosto	2023-08-29T00:00:00	2024-11-08T03:00:00	1	Precipitación	0
169320	7	Sololá	719	Santiago Atitlán	14	Cerro de Oro	8	Agosto	2023-08-29T00:00:00	2024-11-08T03:00:00	8	Radiación solar	0
169321	7	Sololá	719	Santiago Atitlán	14	Cerro de Oro	8	Agosto	2023-08-29T00:00:00	2024-11-08T04:00:00	2	Temperatura media	18.2
169322	7	Sololá	719	Santiago Atitlán	14	Cerro de Oro	8	Agosto	2023-08-29T00:00:00	2024-11-08T04:00:00	4	Temperatura máxima	18.2
169323	7	Sololá	719	Santiago Atitlán	14	Cerro de Oro	8	Agosto	2023-08-29T00:00:00	2024-11-08T04:00:00	3	Temperatura mínima	17.7
169324	7	Sololá	719	Santiago Atitlán	14	Cerro de Oro	8	Agosto	2023-08-29T00:00:00	2024-11-08T04:00:00	5	Humedad	91
169325	7	Sololá	719	Santiago Atitlán	14	Cerro de Oro	8	Agosto	2023-08-29T00:00:00	2024-11-08T04:00:00	6	Velocidad del viento	4.8
169326	7	Sololá	719	Santiago Atitlán	14	Cerro de Oro	8	Agosto	2023-08-29T00:00:00	2024-11-08T04:00:00	7	Dirección del viento	4.83
169327	7	Sololá	719	Santiago Atitlán	14	Cerro de Oro	8	Agosto	2023-08-29T00:00:00	2024-11-08T04:00:00	1	Precipitación	0
169328	7	Sololá	719	Santiago Atitlán	14	Cerro de Oro	8	Agosto	2023-08-29T00:00:00	2024-11-08T04:00:00	8	Radiación solar	0
169329	7	Sololá	719	Santiago Atitlán	14	Cerro de Oro	8	Agosto	2023-08-29T00:00:00	2024-11-08T05:00:00	2	Temperatura media	17.7
169330	7	Sololá	719	Santiago Atitlán	14	Cerro de Oro	8	Agosto	2023-08-29T00:00:00	2024-11-08T05:00:00	4	Temperatura máxima	18.2
169331	7	Sololá	719	Santiago Atitlán	14	Cerro de Oro	8	Agosto	2023-08-29T00:00:00	2024-11-08T05:00:00	3	Temperatura mínima	17.6
169332	7	Sololá	719	Santiago Atitlán	14	Cerro de Oro	8	Agosto	2023-08-29T00:00:00	2024-11-08T05:00:00	5	Humedad	92
169333	7	Sololá	719	Santiago Atitlán	14	Cerro de Oro	8	Agosto	2023-08-29T00:00:00	2024-11-08T05:00:00	6	Velocidad del viento	4.8
169334	7	Sololá	719	Santiago Atitlán	14	Cerro de Oro	8	Agosto	2023-08-29T00:00:00	2024-11-08T05:00:00	7	Dirección del viento	4.83
169335	7	Sololá	719	Santiago Atitlán	14	Cerro de Oro	8	Agosto	2023-08-29T00:00:00	2024-11-08T05:00:00	1	Precipitación	0
169336	7	Sololá	719	Santiago Atitlán	14	Cerro de Oro	8	Agosto	2023-08-29T00:00:00	2024-11-08T05:00:00	8	Radiación solar	0
169337	7	Sololá	719	Santiago Atitlán	14	Cerro de Oro	8	Agosto	2023-08-29T00:00:00	2024-11-08T06:00:00	2	Temperatura media	17.7
169338	7	Sololá	719	Santiago Atitlán	14	Cerro de Oro	8	Agosto	2023-08-29T00:00:00	2024-11-08T06:00:00	4	Temperatura máxima	17.8
169339	7	Sololá	719	Santiago Atitlán	14	Cerro de Oro	8	Agosto	2023-08-29T00:00:00	2024-11-08T06:00:00	3	Temperatura mínima	17.3
169340	7	Sololá	719	Santiago Atitlán	14	Cerro de Oro	8	Agosto	2023-08-29T00:00:00	2024-11-08T06:00:00	5	Humedad	92
169341	7	Sololá	719	Santiago Atitlán	14	Cerro de Oro	8	Agosto	2023-08-29T00:00:00	2024-11-08T06:00:00	6	Velocidad del viento	1.6
169342	7	Sololá	719	Santiago Atitlán	14	Cerro de Oro	8	Agosto	2023-08-29T00:00:00	2024-11-08T06:00:00	7	Dirección del viento	1.61
169343	7	Sololá	719	Santiago Atitlán	14	Cerro de Oro	8	Agosto	2023-08-29T00:00:00	2024-11-08T06:00:00	1	Precipitación	0
169344	7	Sololá	719	Santiago Atitlán	14	Cerro de Oro	8	Agosto	2023-08-29T00:00:00	2024-11-08T06:00:00	8	Radiación solar	0
169345	7	Sololá	719	Santiago Atitlán	14	Cerro de Oro	8	Agosto	2023-08-29T00:00:00	2024-11-08T07:00:00	2	Temperatura media	18.4
169346	7	Sololá	719	Santiago Atitlán	14	Cerro de Oro	8	Agosto	2023-08-29T00:00:00	2024-11-08T07:00:00	4	Temperatura máxima	18.4
169347	7	Sololá	719	Santiago Atitlán	14	Cerro de Oro	8	Agosto	2023-08-29T00:00:00	2024-11-08T07:00:00	3	Temperatura mínima	17.7
169348	7	Sololá	719	Santiago Atitlán	14	Cerro de Oro	8	Agosto	2023-08-29T00:00:00	2024-11-08T07:00:00	5	Humedad	89
169349	7	Sololá	719	Santiago Atitlán	14	Cerro de Oro	8	Agosto	2023-08-29T00:00:00	2024-11-08T07:00:00	6	Velocidad del viento	1.6
169350	7	Sololá	719	Santiago Atitlán	14	Cerro de Oro	8	Agosto	2023-08-29T00:00:00	2024-11-08T07:00:00	7	Dirección del viento	1.61
169351	7	Sololá	719	Santiago Atitlán	14	Cerro de Oro	8	Agosto	2023-08-29T00:00:00	2024-11-08T07:00:00	1	Precipitación	0
169352	7	Sololá	719	Santiago Atitlán	14	Cerro de Oro	8	Agosto	2023-08-29T00:00:00	2024-11-08T07:00:00	8	Radiación solar	43
169353	7	Sololá	719	Santiago Atitlán	14	Cerro de Oro	8	Agosto	2023-08-29T00:00:00	2024-11-08T08:00:00	2	Temperatura media	19.7
169354	7	Sololá	719	Santiago Atitlán	14	Cerro de Oro	8	Agosto	2023-08-29T00:00:00	2024-11-08T08:00:00	4	Temperatura máxima	19.7
169355	7	Sololá	719	Santiago Atitlán	14	Cerro de Oro	8	Agosto	2023-08-29T00:00:00	2024-11-08T08:00:00	3	Temperatura mínima	18.4
169356	7	Sololá	719	Santiago Atitlán	14	Cerro de Oro	8	Agosto	2023-08-29T00:00:00	2024-11-08T08:00:00	5	Humedad	86
169357	7	Sololá	719	Santiago Atitlán	14	Cerro de Oro	8	Agosto	2023-08-29T00:00:00	2024-11-08T08:00:00	6	Velocidad del viento	1.6
169358	7	Sololá	719	Santiago Atitlán	14	Cerro de Oro	8	Agosto	2023-08-29T00:00:00	2024-11-08T08:00:00	7	Dirección del viento	1.61
169359	7	Sololá	719	Santiago Atitlán	14	Cerro de Oro	8	Agosto	2023-08-29T00:00:00	2024-11-08T08:00:00	1	Precipitación	0
169360	7	Sololá	719	Santiago Atitlán	14	Cerro de Oro	8	Agosto	2023-08-29T00:00:00	2024-11-08T08:00:00	8	Radiación solar	134
169361	7	Sololá	719	Santiago Atitlán	14	Cerro de Oro	8	Agosto	2023-08-29T00:00:00	2024-11-08T09:00:00	2	Temperatura media	20.4
169362	7	Sololá	719	Santiago Atitlán	14	Cerro de Oro	8	Agosto	2023-08-29T00:00:00	2024-11-08T09:00:00	4	Temperatura máxima	20.5
169363	7	Sololá	719	Santiago Atitlán	14	Cerro de Oro	8	Agosto	2023-08-29T00:00:00	2024-11-08T09:00:00	3	Temperatura mínima	19.6
169364	7	Sololá	719	Santiago Atitlán	14	Cerro de Oro	8	Agosto	2023-08-29T00:00:00	2024-11-08T09:00:00	5	Humedad	82
169365	7	Sololá	719	Santiago Atitlán	14	Cerro de Oro	8	Agosto	2023-08-29T00:00:00	2024-11-08T09:00:00	6	Velocidad del viento	1.6
169366	7	Sololá	719	Santiago Atitlán	14	Cerro de Oro	8	Agosto	2023-08-29T00:00:00	2024-11-08T09:00:00	7	Dirección del viento	1.61
169367	7	Sololá	719	Santiago Atitlán	14	Cerro de Oro	8	Agosto	2023-08-29T00:00:00	2024-11-08T09:00:00	1	Precipitación	0
169368	7	Sololá	719	Santiago Atitlán	14	Cerro de Oro	8	Agosto	2023-08-29T00:00:00	2024-11-08T09:00:00	8	Radiación solar	248
169369	7	Sololá	719	Santiago Atitlán	14	Cerro de Oro	8	Agosto	2023-08-29T00:00:00	2024-11-08T10:00:00	2	Temperatura media	21.6
169370	7	Sololá	719	Santiago Atitlán	14	Cerro de Oro	8	Agosto	2023-08-29T00:00:00	2024-11-08T10:00:00	4	Temperatura máxima	21.8
169371	7	Sololá	719	Santiago Atitlán	14	Cerro de Oro	8	Agosto	2023-08-29T00:00:00	2024-11-08T10:00:00	3	Temperatura mínima	20.4
169372	7	Sololá	719	Santiago Atitlán	14	Cerro de Oro	8	Agosto	2023-08-29T00:00:00	2024-11-08T10:00:00	5	Humedad	78
169373	7	Sololá	719	Santiago Atitlán	14	Cerro de Oro	8	Agosto	2023-08-29T00:00:00	2024-11-08T10:00:00	6	Velocidad del viento	3.2
169374	7	Sololá	719	Santiago Atitlán	14	Cerro de Oro	8	Agosto	2023-08-29T00:00:00	2024-11-08T10:00:00	7	Dirección del viento	3.22
169375	7	Sololá	719	Santiago Atitlán	14	Cerro de Oro	8	Agosto	2023-08-29T00:00:00	2024-11-08T10:00:00	1	Precipitación	0
169376	7	Sololá	719	Santiago Atitlán	14	Cerro de Oro	8	Agosto	2023-08-29T00:00:00	2024-11-08T10:00:00	8	Radiación solar	533
169377	7	Sololá	719	Santiago Atitlán	14	Cerro de Oro	8	Agosto	2023-08-29T00:00:00	2024-11-08T11:00:00	2	Temperatura media	22.1
169378	7	Sololá	719	Santiago Atitlán	14	Cerro de Oro	8	Agosto	2023-08-29T00:00:00	2024-11-08T11:00:00	4	Temperatura máxima	22.3
169379	7	Sololá	719	Santiago Atitlán	14	Cerro de Oro	8	Agosto	2023-08-29T00:00:00	2024-11-08T11:00:00	3	Temperatura mínima	21.6
169380	7	Sololá	719	Santiago Atitlán	14	Cerro de Oro	8	Agosto	2023-08-29T00:00:00	2024-11-08T11:00:00	5	Humedad	81
169381	7	Sololá	719	Santiago Atitlán	14	Cerro de Oro	8	Agosto	2023-08-29T00:00:00	2024-11-08T11:00:00	6	Velocidad del viento	4.8
169382	7	Sololá	719	Santiago Atitlán	14	Cerro de Oro	8	Agosto	2023-08-29T00:00:00	2024-11-08T11:00:00	7	Dirección del viento	4.83
169383	7	Sololá	719	Santiago Atitlán	14	Cerro de Oro	8	Agosto	2023-08-29T00:00:00	2024-11-08T11:00:00	1	Precipitación	0
169384	7	Sololá	719	Santiago Atitlán	14	Cerro de Oro	8	Agosto	2023-08-29T00:00:00	2024-11-08T11:00:00	8	Radiación solar	591
169385	7	Sololá	719	Santiago Atitlán	14	Cerro de Oro	8	Agosto	2023-08-29T00:00:00	2024-11-08T12:00:00	2	Temperatura media	22.2
169386	7	Sololá	719	Santiago Atitlán	14	Cerro de Oro	8	Agosto	2023-08-29T00:00:00	2024-11-08T12:00:00	4	Temperatura máxima	23.2
169387	7	Sololá	719	Santiago Atitlán	14	Cerro de Oro	8	Agosto	2023-08-29T00:00:00	2024-11-08T12:00:00	3	Temperatura mínima	21.8
169388	7	Sololá	719	Santiago Atitlán	14	Cerro de Oro	8	Agosto	2023-08-29T00:00:00	2024-11-08T12:00:00	5	Humedad	80
169389	7	Sololá	719	Santiago Atitlán	14	Cerro de Oro	8	Agosto	2023-08-29T00:00:00	2024-11-08T12:00:00	6	Velocidad del viento	9.7
169390	7	Sololá	719	Santiago Atitlán	14	Cerro de Oro	8	Agosto	2023-08-29T00:00:00	2024-11-08T12:00:00	7	Dirección del viento	9.66
169391	7	Sololá	719	Santiago Atitlán	14	Cerro de Oro	8	Agosto	2023-08-29T00:00:00	2024-11-08T12:00:00	1	Precipitación	0
169392	7	Sololá	719	Santiago Atitlán	14	Cerro de Oro	8	Agosto	2023-08-29T00:00:00	2024-11-08T12:00:00	8	Radiación solar	706
169393	7	Sololá	719	Santiago Atitlán	14	Cerro de Oro	8	Agosto	2023-08-29T00:00:00	2024-11-08T13:00:00	2	Temperatura media	22.3
169394	7	Sololá	719	Santiago Atitlán	14	Cerro de Oro	8	Agosto	2023-08-29T00:00:00	2024-11-08T13:00:00	4	Temperatura máxima	22.7
169395	7	Sololá	719	Santiago Atitlán	14	Cerro de Oro	8	Agosto	2023-08-29T00:00:00	2024-11-08T13:00:00	3	Temperatura mínima	22.1
169396	7	Sololá	719	Santiago Atitlán	14	Cerro de Oro	8	Agosto	2023-08-29T00:00:00	2024-11-08T13:00:00	5	Humedad	79
169397	7	Sololá	719	Santiago Atitlán	14	Cerro de Oro	8	Agosto	2023-08-29T00:00:00	2024-11-08T13:00:00	6	Velocidad del viento	9.7
169398	7	Sololá	719	Santiago Atitlán	14	Cerro de Oro	8	Agosto	2023-08-29T00:00:00	2024-11-08T13:00:00	7	Dirección del viento	9.66
169399	7	Sololá	719	Santiago Atitlán	14	Cerro de Oro	8	Agosto	2023-08-29T00:00:00	2024-11-08T13:00:00	1	Precipitación	0
169400	7	Sololá	719	Santiago Atitlán	14	Cerro de Oro	8	Agosto	2023-08-29T00:00:00	2024-11-08T13:00:00	8	Radiación solar	409
169401	7	Sololá	719	Santiago Atitlán	14	Cerro de Oro	8	Agosto	2023-08-29T00:00:00	2024-11-08T14:00:00	2	Temperatura media	22.4
169402	7	Sololá	719	Santiago Atitlán	14	Cerro de Oro	8	Agosto	2023-08-29T00:00:00	2024-11-08T14:00:00	4	Temperatura máxima	23.2
169403	7	Sololá	719	Santiago Atitlán	14	Cerro de Oro	8	Agosto	2023-08-29T00:00:00	2024-11-08T14:00:00	3	Temperatura mínima	22.1
169404	7	Sololá	719	Santiago Atitlán	14	Cerro de Oro	8	Agosto	2023-08-29T00:00:00	2024-11-08T14:00:00	5	Humedad	81
169405	7	Sololá	719	Santiago Atitlán	14	Cerro de Oro	8	Agosto	2023-08-29T00:00:00	2024-11-08T14:00:00	6	Velocidad del viento	8
169406	7	Sololá	719	Santiago Atitlán	14	Cerro de Oro	8	Agosto	2023-08-29T00:00:00	2024-11-08T14:00:00	7	Dirección del viento	8.05
169407	7	Sololá	719	Santiago Atitlán	14	Cerro de Oro	8	Agosto	2023-08-29T00:00:00	2024-11-08T14:00:00	1	Precipitación	0
169408	7	Sololá	719	Santiago Atitlán	14	Cerro de Oro	8	Agosto	2023-08-29T00:00:00	2024-11-08T14:00:00	8	Radiación solar	382
169409	7	Sololá	719	Santiago Atitlán	14	Cerro de Oro	8	Agosto	2023-08-29T00:00:00	2024-11-08T15:00:00	2	Temperatura media	21.9
169410	7	Sololá	719	Santiago Atitlán	14	Cerro de Oro	8	Agosto	2023-08-29T00:00:00	2024-11-08T15:00:00	4	Temperatura máxima	22.4
169411	7	Sololá	719	Santiago Atitlán	14	Cerro de Oro	8	Agosto	2023-08-29T00:00:00	2024-11-08T15:00:00	3	Temperatura mínima	21.9
169412	7	Sololá	719	Santiago Atitlán	14	Cerro de Oro	8	Agosto	2023-08-29T00:00:00	2024-11-08T15:00:00	5	Humedad	82
169413	7	Sololá	719	Santiago Atitlán	14	Cerro de Oro	8	Agosto	2023-08-29T00:00:00	2024-11-08T15:00:00	6	Velocidad del viento	6.4
169414	7	Sololá	719	Santiago Atitlán	14	Cerro de Oro	8	Agosto	2023-08-29T00:00:00	2024-11-08T15:00:00	7	Dirección del viento	6.44
169415	7	Sololá	719	Santiago Atitlán	14	Cerro de Oro	8	Agosto	2023-08-29T00:00:00	2024-11-08T15:00:00	1	Precipitación	0
169416	7	Sololá	719	Santiago Atitlán	14	Cerro de Oro	8	Agosto	2023-08-29T00:00:00	2024-11-08T15:00:00	8	Radiación solar	204
169417	7	Sololá	719	Santiago Atitlán	14	Cerro de Oro	8	Agosto	2023-08-29T00:00:00	2024-11-08T16:00:00	2	Temperatura media	21.6
169418	7	Sololá	719	Santiago Atitlán	14	Cerro de Oro	8	Agosto	2023-08-29T00:00:00	2024-11-08T16:00:00	4	Temperatura máxima	21.9
169419	7	Sololá	719	Santiago Atitlán	14	Cerro de Oro	8	Agosto	2023-08-29T00:00:00	2024-11-08T16:00:00	3	Temperatura mínima	21.3
169420	7	Sololá	719	Santiago Atitlán	14	Cerro de Oro	8	Agosto	2023-08-29T00:00:00	2024-11-08T16:00:00	5	Humedad	84
169421	7	Sololá	719	Santiago Atitlán	14	Cerro de Oro	8	Agosto	2023-08-29T00:00:00	2024-11-08T16:00:00	6	Velocidad del viento	4.8
169422	7	Sololá	719	Santiago Atitlán	14	Cerro de Oro	8	Agosto	2023-08-29T00:00:00	2024-11-08T16:00:00	7	Dirección del viento	4.83
169423	7	Sololá	719	Santiago Atitlán	14	Cerro de Oro	8	Agosto	2023-08-29T00:00:00	2024-11-08T16:00:00	1	Precipitación	0
169424	7	Sololá	719	Santiago Atitlán	14	Cerro de Oro	8	Agosto	2023-08-29T00:00:00	2024-11-08T16:00:00	8	Radiación solar	115
169425	7	Sololá	719	Santiago Atitlán	14	Cerro de Oro	8	Agosto	2023-08-29T00:00:00	2024-11-08T17:00:00	2	Temperatura media	20.6
169426	7	Sololá	719	Santiago Atitlán	14	Cerro de Oro	8	Agosto	2023-08-29T00:00:00	2024-11-08T17:00:00	4	Temperatura máxima	21.6
169427	7	Sololá	719	Santiago Atitlán	14	Cerro de Oro	8	Agosto	2023-08-29T00:00:00	2024-11-08T17:00:00	3	Temperatura mínima	20.6
169428	7	Sololá	719	Santiago Atitlán	14	Cerro de Oro	8	Agosto	2023-08-29T00:00:00	2024-11-08T17:00:00	5	Humedad	86
169429	7	Sololá	719	Santiago Atitlán	14	Cerro de Oro	8	Agosto	2023-08-29T00:00:00	2024-11-08T17:00:00	6	Velocidad del viento	4.8
169430	7	Sololá	719	Santiago Atitlán	14	Cerro de Oro	8	Agosto	2023-08-29T00:00:00	2024-11-08T17:00:00	7	Dirección del viento	4.83
169431	7	Sololá	719	Santiago Atitlán	14	Cerro de Oro	8	Agosto	2023-08-29T00:00:00	2024-11-08T17:00:00	1	Precipitación	0
169432	7	Sololá	719	Santiago Atitlán	14	Cerro de Oro	8	Agosto	2023-08-29T00:00:00	2024-11-08T17:00:00	8	Radiación solar	50
169433	7	Sololá	719	Santiago Atitlán	14	Cerro de Oro	8	Agosto	2023-08-29T00:00:00	2024-11-08T18:00:00	2	Temperatura media	19.2
169434	7	Sololá	719	Santiago Atitlán	14	Cerro de Oro	8	Agosto	2023-08-29T00:00:00	2024-11-08T18:00:00	4	Temperatura máxima	20.5
169435	7	Sololá	719	Santiago Atitlán	14	Cerro de Oro	8	Agosto	2023-08-29T00:00:00	2024-11-08T18:00:00	3	Temperatura mínima	19.2
169436	7	Sololá	719	Santiago Atitlán	14	Cerro de Oro	8	Agosto	2023-08-29T00:00:00	2024-11-08T18:00:00	5	Humedad	89
169437	7	Sololá	719	Santiago Atitlán	14	Cerro de Oro	8	Agosto	2023-08-29T00:00:00	2024-11-08T18:00:00	6	Velocidad del viento	8
169438	7	Sololá	719	Santiago Atitlán	14	Cerro de Oro	8	Agosto	2023-08-29T00:00:00	2024-11-08T18:00:00	7	Dirección del viento	8.05
169439	7	Sololá	719	Santiago Atitlán	14	Cerro de Oro	8	Agosto	2023-08-29T00:00:00	2024-11-08T18:00:00	1	Precipitación	0
169440	7	Sololá	719	Santiago Atitlán	14	Cerro de Oro	8	Agosto	2023-08-29T00:00:00	2024-11-08T18:00:00	8	Radiación solar	13
169441	7	Sololá	719	Santiago Atitlán	14	Cerro de Oro	8	Agosto	2023-08-29T00:00:00	2024-11-08T19:00:00	2	Temperatura media	18.7
169442	7	Sololá	719	Santiago Atitlán	14	Cerro de Oro	8	Agosto	2023-08-29T00:00:00	2024-11-08T19:00:00	4	Temperatura máxima	19.2
169443	7	Sololá	719	Santiago Atitlán	14	Cerro de Oro	8	Agosto	2023-08-29T00:00:00	2024-11-08T19:00:00	3	Temperatura mínima	18.7
169444	7	Sololá	719	Santiago Atitlán	14	Cerro de Oro	8	Agosto	2023-08-29T00:00:00	2024-11-08T19:00:00	5	Humedad	90
169445	7	Sololá	719	Santiago Atitlán	14	Cerro de Oro	8	Agosto	2023-08-29T00:00:00	2024-11-08T19:00:00	6	Velocidad del viento	8
169446	7	Sololá	719	Santiago Atitlán	14	Cerro de Oro	8	Agosto	2023-08-29T00:00:00	2024-11-08T19:00:00	7	Dirección del viento	8.05
169447	7	Sololá	719	Santiago Atitlán	14	Cerro de Oro	8	Agosto	2023-08-29T00:00:00	2024-11-08T19:00:00	1	Precipitación	1.6
169448	7	Sololá	719	Santiago Atitlán	14	Cerro de Oro	8	Agosto	2023-08-29T00:00:00	2024-11-08T19:00:00	8	Radiación solar	0
169449	7	Sololá	719	Santiago Atitlán	14	Cerro de Oro	8	Agosto	2023-08-29T00:00:00	2024-11-08T20:00:00	2	Temperatura media	17.6
169450	7	Sololá	719	Santiago Atitlán	14	Cerro de Oro	8	Agosto	2023-08-29T00:00:00	2024-11-08T20:00:00	4	Temperatura máxima	18.7
169451	7	Sololá	719	Santiago Atitlán	14	Cerro de Oro	8	Agosto	2023-08-29T00:00:00	2024-11-08T20:00:00	3	Temperatura mínima	17.6
169452	7	Sololá	719	Santiago Atitlán	14	Cerro de Oro	8	Agosto	2023-08-29T00:00:00	2024-11-08T20:00:00	5	Humedad	92
169453	7	Sololá	719	Santiago Atitlán	14	Cerro de Oro	8	Agosto	2023-08-29T00:00:00	2024-11-08T20:00:00	6	Velocidad del viento	6.4
169454	7	Sololá	719	Santiago Atitlán	14	Cerro de Oro	8	Agosto	2023-08-29T00:00:00	2024-11-08T20:00:00	7	Dirección del viento	6.44
169455	7	Sololá	719	Santiago Atitlán	14	Cerro de Oro	8	Agosto	2023-08-29T00:00:00	2024-11-08T20:00:00	1	Precipitación	4
169456	7	Sololá	719	Santiago Atitlán	14	Cerro de Oro	8	Agosto	2023-08-29T00:00:00	2024-11-08T20:00:00	8	Radiación solar	0
169457	7	Sololá	719	Santiago Atitlán	14	Cerro de Oro	8	Agosto	2023-08-29T00:00:00	2024-11-08T21:00:00	2	Temperatura media	18.1
169458	7	Sololá	719	Santiago Atitlán	14	Cerro de Oro	8	Agosto	2023-08-29T00:00:00	2024-11-08T21:00:00	4	Temperatura máxima	18.1
169459	7	Sololá	719	Santiago Atitlán	14	Cerro de Oro	8	Agosto	2023-08-29T00:00:00	2024-11-08T21:00:00	3	Temperatura mínima	17.6
169460	7	Sololá	719	Santiago Atitlán	14	Cerro de Oro	8	Agosto	2023-08-29T00:00:00	2024-11-08T21:00:00	5	Humedad	94
169461	7	Sololá	719	Santiago Atitlán	14	Cerro de Oro	8	Agosto	2023-08-29T00:00:00	2024-11-08T21:00:00	6	Velocidad del viento	3.2
169462	7	Sololá	719	Santiago Atitlán	14	Cerro de Oro	8	Agosto	2023-08-29T00:00:00	2024-11-08T21:00:00	7	Dirección del viento	3.22
169463	7	Sololá	719	Santiago Atitlán	14	Cerro de Oro	8	Agosto	2023-08-29T00:00:00	2024-11-08T21:00:00	1	Precipitación	1.4
169464	7	Sololá	719	Santiago Atitlán	14	Cerro de Oro	8	Agosto	2023-08-29T00:00:00	2024-11-08T21:00:00	8	Radiación solar	0
169465	7	Sololá	719	Santiago Atitlán	14	Cerro de Oro	8	Agosto	2023-08-29T00:00:00	2024-11-08T22:00:00	2	Temperatura media	17.8
169466	7	Sololá	719	Santiago Atitlán	14	Cerro de Oro	8	Agosto	2023-08-29T00:00:00	2024-11-08T22:00:00	4	Temperatura máxima	18.2
169467	7	Sololá	719	Santiago Atitlán	14	Cerro de Oro	8	Agosto	2023-08-29T00:00:00	2024-11-08T22:00:00	3	Temperatura mínima	17.8
169468	7	Sololá	719	Santiago Atitlán	14	Cerro de Oro	8	Agosto	2023-08-29T00:00:00	2024-11-08T22:00:00	5	Humedad	93
169469	7	Sololá	719	Santiago Atitlán	14	Cerro de Oro	8	Agosto	2023-08-29T00:00:00	2024-11-08T22:00:00	6	Velocidad del viento	1.6
169470	7	Sololá	719	Santiago Atitlán	14	Cerro de Oro	8	Agosto	2023-08-29T00:00:00	2024-11-08T22:00:00	7	Dirección del viento	1.61
169471	7	Sololá	719	Santiago Atitlán	14	Cerro de Oro	8	Agosto	2023-08-29T00:00:00	2024-11-08T22:00:00	1	Precipitación	0.2
169472	7	Sololá	719	Santiago Atitlán	14	Cerro de Oro	8	Agosto	2023-08-29T00:00:00	2024-11-08T22:00:00	8	Radiación solar	0
169473	7	Sololá	719	Santiago Atitlán	14	Cerro de Oro	8	Agosto	2023-08-29T00:00:00	2024-11-08T23:00:00	2	Temperatura media	17.9
169474	7	Sololá	719	Santiago Atitlán	14	Cerro de Oro	8	Agosto	2023-08-29T00:00:00	2024-11-08T23:00:00	4	Temperatura máxima	17.9
169475	7	Sololá	719	Santiago Atitlán	14	Cerro de Oro	8	Agosto	2023-08-29T00:00:00	2024-11-08T23:00:00	3	Temperatura mínima	17.8
169476	7	Sololá	719	Santiago Atitlán	14	Cerro de Oro	8	Agosto	2023-08-29T00:00:00	2024-11-08T23:00:00	5	Humedad	93
169477	7	Sololá	719	Santiago Atitlán	14	Cerro de Oro	8	Agosto	2023-08-29T00:00:00	2024-11-08T23:00:00	6	Velocidad del viento	3.2
169478	7	Sololá	719	Santiago Atitlán	14	Cerro de Oro	8	Agosto	2023-08-29T00:00:00	2024-11-08T23:00:00	7	Dirección del viento	3.22
169479	7	Sololá	719	Santiago Atitlán	14	Cerro de Oro	8	Agosto	2023-08-29T00:00:00	2024-11-08T23:00:00	1	Precipitación	0
169480	7	Sololá	719	Santiago Atitlán	14	Cerro de Oro	8	Agosto	2023-08-29T00:00:00	2024-11-08T23:00:00	8	Radiación solar	0
169481	7	Sololá	719	Santiago Atitlán	14	Cerro de Oro	8	Agosto	2023-08-30T00:00:00	2024-11-08T00:00:00	2	Temperatura media	18.2
169482	7	Sololá	719	Santiago Atitlán	14	Cerro de Oro	8	Agosto	2023-08-30T00:00:00	2024-11-08T00:00:00	4	Temperatura máxima	18.2
169483	7	Sololá	719	Santiago Atitlán	14	Cerro de Oro	8	Agosto	2023-08-30T00:00:00	2024-11-08T00:00:00	3	Temperatura mínima	17.9
169484	7	Sololá	719	Santiago Atitlán	14	Cerro de Oro	8	Agosto	2023-08-30T00:00:00	2024-11-08T00:00:00	5	Humedad	93
169485	7	Sololá	719	Santiago Atitlán	14	Cerro de Oro	8	Agosto	2023-08-30T00:00:00	2024-11-08T00:00:00	6	Velocidad del viento	4.8
169486	7	Sololá	719	Santiago Atitlán	14	Cerro de Oro	8	Agosto	2023-08-30T00:00:00	2024-11-08T00:00:00	7	Dirección del viento	4.83
169487	7	Sololá	719	Santiago Atitlán	14	Cerro de Oro	8	Agosto	2023-08-30T00:00:00	2024-11-08T00:00:00	1	Precipitación	0
169488	7	Sololá	719	Santiago Atitlán	14	Cerro de Oro	8	Agosto	2023-08-30T00:00:00	2024-11-08T00:00:00	8	Radiación solar	0
169489	7	Sololá	719	Santiago Atitlán	14	Cerro de Oro	8	Agosto	2023-08-30T00:00:00	2024-11-08T01:00:00	2	Temperatura media	18.4
169490	7	Sololá	719	Santiago Atitlán	14	Cerro de Oro	8	Agosto	2023-08-30T00:00:00	2024-11-08T01:00:00	4	Temperatura máxima	18.5
169491	7	Sololá	719	Santiago Atitlán	14	Cerro de Oro	8	Agosto	2023-08-30T00:00:00	2024-11-08T01:00:00	3	Temperatura mínima	18.2
169492	7	Sololá	719	Santiago Atitlán	14	Cerro de Oro	8	Agosto	2023-08-30T00:00:00	2024-11-08T01:00:00	5	Humedad	92
169493	7	Sololá	719	Santiago Atitlán	14	Cerro de Oro	8	Agosto	2023-08-30T00:00:00	2024-11-08T01:00:00	6	Velocidad del viento	4.8
169494	7	Sololá	719	Santiago Atitlán	14	Cerro de Oro	8	Agosto	2023-08-30T00:00:00	2024-11-08T01:00:00	7	Dirección del viento	4.83
169495	7	Sololá	719	Santiago Atitlán	14	Cerro de Oro	8	Agosto	2023-08-30T00:00:00	2024-11-08T01:00:00	1	Precipitación	0
169496	7	Sololá	719	Santiago Atitlán	14	Cerro de Oro	8	Agosto	2023-08-30T00:00:00	2024-11-08T01:00:00	8	Radiación solar	0
169497	7	Sololá	719	Santiago Atitlán	14	Cerro de Oro	8	Agosto	2023-08-30T00:00:00	2024-11-08T02:00:00	2	Temperatura media	18.6
169498	7	Sololá	719	Santiago Atitlán	14	Cerro de Oro	8	Agosto	2023-08-30T00:00:00	2024-11-08T02:00:00	4	Temperatura máxima	18.6
169499	7	Sololá	719	Santiago Atitlán	14	Cerro de Oro	8	Agosto	2023-08-30T00:00:00	2024-11-08T02:00:00	3	Temperatura mínima	18.3
169500	7	Sololá	719	Santiago Atitlán	14	Cerro de Oro	8	Agosto	2023-08-30T00:00:00	2024-11-08T02:00:00	5	Humedad	93
169501	7	Sololá	719	Santiago Atitlán	14	Cerro de Oro	8	Agosto	2023-08-30T00:00:00	2024-11-08T02:00:00	6	Velocidad del viento	1.6
169502	7	Sololá	719	Santiago Atitlán	14	Cerro de Oro	8	Agosto	2023-08-30T00:00:00	2024-11-08T02:00:00	7	Dirección del viento	1.61
169503	7	Sololá	719	Santiago Atitlán	14	Cerro de Oro	8	Agosto	2023-08-30T00:00:00	2024-11-08T02:00:00	1	Precipitación	0
169504	7	Sololá	719	Santiago Atitlán	14	Cerro de Oro	8	Agosto	2023-08-30T00:00:00	2024-11-08T02:00:00	8	Radiación solar	0
169505	7	Sololá	719	Santiago Atitlán	14	Cerro de Oro	8	Agosto	2023-08-30T00:00:00	2024-11-08T03:00:00	2	Temperatura media	18.7
169506	7	Sololá	719	Santiago Atitlán	14	Cerro de Oro	8	Agosto	2023-08-30T00:00:00	2024-11-08T03:00:00	4	Temperatura máxima	18.9
169507	7	Sololá	719	Santiago Atitlán	14	Cerro de Oro	8	Agosto	2023-08-30T00:00:00	2024-11-08T03:00:00	3	Temperatura mínima	18.6
169508	7	Sololá	719	Santiago Atitlán	14	Cerro de Oro	8	Agosto	2023-08-30T00:00:00	2024-11-08T03:00:00	5	Humedad	91
169509	7	Sololá	719	Santiago Atitlán	14	Cerro de Oro	8	Agosto	2023-08-30T00:00:00	2024-11-08T03:00:00	6	Velocidad del viento	3.2
169510	7	Sololá	719	Santiago Atitlán	14	Cerro de Oro	8	Agosto	2023-08-30T00:00:00	2024-11-08T03:00:00	7	Dirección del viento	3.22
169511	7	Sololá	719	Santiago Atitlán	14	Cerro de Oro	8	Agosto	2023-08-30T00:00:00	2024-11-08T03:00:00	1	Precipitación	0
169512	7	Sololá	719	Santiago Atitlán	14	Cerro de Oro	8	Agosto	2023-08-30T00:00:00	2024-11-08T03:00:00	8	Radiación solar	0
169513	7	Sololá	719	Santiago Atitlán	14	Cerro de Oro	8	Agosto	2023-08-30T00:00:00	2024-11-08T04:00:00	2	Temperatura media	19.1
169514	7	Sololá	719	Santiago Atitlán	14	Cerro de Oro	8	Agosto	2023-08-30T00:00:00	2024-11-08T04:00:00	4	Temperatura máxima	19.2
169515	7	Sololá	719	Santiago Atitlán	14	Cerro de Oro	8	Agosto	2023-08-30T00:00:00	2024-11-08T04:00:00	3	Temperatura mínima	18.6
169516	7	Sololá	719	Santiago Atitlán	14	Cerro de Oro	8	Agosto	2023-08-30T00:00:00	2024-11-08T04:00:00	5	Humedad	89
169517	7	Sololá	719	Santiago Atitlán	14	Cerro de Oro	8	Agosto	2023-08-30T00:00:00	2024-11-08T04:00:00	6	Velocidad del viento	3.2
169518	7	Sololá	719	Santiago Atitlán	14	Cerro de Oro	8	Agosto	2023-08-30T00:00:00	2024-11-08T04:00:00	7	Dirección del viento	3.22
169519	7	Sololá	719	Santiago Atitlán	14	Cerro de Oro	8	Agosto	2023-08-30T00:00:00	2024-11-08T04:00:00	1	Precipitación	0
169520	7	Sololá	719	Santiago Atitlán	14	Cerro de Oro	8	Agosto	2023-08-30T00:00:00	2024-11-08T04:00:00	8	Radiación solar	0
169521	7	Sololá	719	Santiago Atitlán	14	Cerro de Oro	8	Agosto	2023-08-30T00:00:00	2024-11-08T05:00:00	2	Temperatura media	18.8
169522	7	Sololá	719	Santiago Atitlán	14	Cerro de Oro	8	Agosto	2023-08-30T00:00:00	2024-11-08T05:00:00	4	Temperatura máxima	19.1
169523	7	Sololá	719	Santiago Atitlán	14	Cerro de Oro	8	Agosto	2023-08-30T00:00:00	2024-11-08T05:00:00	3	Temperatura mínima	18.4
169524	7	Sololá	719	Santiago Atitlán	14	Cerro de Oro	8	Agosto	2023-08-30T00:00:00	2024-11-08T05:00:00	5	Humedad	90
169525	7	Sololá	719	Santiago Atitlán	14	Cerro de Oro	8	Agosto	2023-08-30T00:00:00	2024-11-08T05:00:00	6	Velocidad del viento	4.8
169526	7	Sololá	719	Santiago Atitlán	14	Cerro de Oro	8	Agosto	2023-08-30T00:00:00	2024-11-08T05:00:00	7	Dirección del viento	4.83
169527	7	Sololá	719	Santiago Atitlán	14	Cerro de Oro	8	Agosto	2023-08-30T00:00:00	2024-11-08T05:00:00	1	Precipitación	0
169528	7	Sololá	719	Santiago Atitlán	14	Cerro de Oro	8	Agosto	2023-08-30T00:00:00	2024-11-08T05:00:00	8	Radiación solar	0
169529	7	Sololá	719	Santiago Atitlán	14	Cerro de Oro	8	Agosto	2023-08-30T00:00:00	2024-11-08T06:00:00	2	Temperatura media	18.7
169530	7	Sololá	719	Santiago Atitlán	14	Cerro de Oro	8	Agosto	2023-08-30T00:00:00	2024-11-08T06:00:00	4	Temperatura máxima	19
169531	7	Sololá	719	Santiago Atitlán	14	Cerro de Oro	8	Agosto	2023-08-30T00:00:00	2024-11-08T06:00:00	3	Temperatura mínima	18.5
169532	7	Sololá	719	Santiago Atitlán	14	Cerro de Oro	8	Agosto	2023-08-30T00:00:00	2024-11-08T06:00:00	5	Humedad	92
169533	7	Sololá	719	Santiago Atitlán	14	Cerro de Oro	8	Agosto	2023-08-30T00:00:00	2024-11-08T06:00:00	6	Velocidad del viento	3.2
169534	7	Sololá	719	Santiago Atitlán	14	Cerro de Oro	8	Agosto	2023-08-30T00:00:00	2024-11-08T06:00:00	7	Dirección del viento	3.22
169535	7	Sololá	719	Santiago Atitlán	14	Cerro de Oro	8	Agosto	2023-08-30T00:00:00	2024-11-08T06:00:00	1	Precipitación	0
169536	7	Sololá	719	Santiago Atitlán	14	Cerro de Oro	8	Agosto	2023-08-30T00:00:00	2024-11-08T06:00:00	8	Radiación solar	0
169537	7	Sololá	719	Santiago Atitlán	14	Cerro de Oro	8	Agosto	2023-08-30T00:00:00	2024-11-08T07:00:00	2	Temperatura media	19.1
169538	7	Sololá	719	Santiago Atitlán	14	Cerro de Oro	8	Agosto	2023-08-30T00:00:00	2024-11-08T07:00:00	4	Temperatura máxima	19.1
169539	7	Sololá	719	Santiago Atitlán	14	Cerro de Oro	8	Agosto	2023-08-30T00:00:00	2024-11-08T07:00:00	3	Temperatura mínima	18.6
169540	7	Sololá	719	Santiago Atitlán	14	Cerro de Oro	8	Agosto	2023-08-30T00:00:00	2024-11-08T07:00:00	5	Humedad	91
169541	7	Sololá	719	Santiago Atitlán	14	Cerro de Oro	8	Agosto	2023-08-30T00:00:00	2024-11-08T07:00:00	6	Velocidad del viento	3.2
169542	7	Sololá	719	Santiago Atitlán	14	Cerro de Oro	8	Agosto	2023-08-30T00:00:00	2024-11-08T07:00:00	7	Dirección del viento	3.22
169543	7	Sololá	719	Santiago Atitlán	14	Cerro de Oro	8	Agosto	2023-08-30T00:00:00	2024-11-08T07:00:00	1	Precipitación	0
169544	7	Sololá	719	Santiago Atitlán	14	Cerro de Oro	8	Agosto	2023-08-30T00:00:00	2024-11-08T07:00:00	8	Radiación solar	38
169545	7	Sololá	719	Santiago Atitlán	14	Cerro de Oro	8	Agosto	2023-08-30T00:00:00	2024-11-08T08:00:00	2	Temperatura media	20.8
169546	7	Sololá	719	Santiago Atitlán	14	Cerro de Oro	8	Agosto	2023-08-30T00:00:00	2024-11-08T08:00:00	4	Temperatura máxima	20.8
169547	7	Sololá	719	Santiago Atitlán	14	Cerro de Oro	8	Agosto	2023-08-30T00:00:00	2024-11-08T08:00:00	3	Temperatura mínima	19.1
169548	7	Sololá	719	Santiago Atitlán	14	Cerro de Oro	8	Agosto	2023-08-30T00:00:00	2024-11-08T08:00:00	5	Humedad	84
169549	7	Sololá	719	Santiago Atitlán	14	Cerro de Oro	8	Agosto	2023-08-30T00:00:00	2024-11-08T08:00:00	6	Velocidad del viento	1.6
169550	7	Sololá	719	Santiago Atitlán	14	Cerro de Oro	8	Agosto	2023-08-30T00:00:00	2024-11-08T08:00:00	7	Dirección del viento	1.61
169551	7	Sololá	719	Santiago Atitlán	14	Cerro de Oro	8	Agosto	2023-08-30T00:00:00	2024-11-08T08:00:00	1	Precipitación	0
169552	7	Sololá	719	Santiago Atitlán	14	Cerro de Oro	8	Agosto	2023-08-30T00:00:00	2024-11-08T08:00:00	8	Radiación solar	184
169553	7	Sololá	719	Santiago Atitlán	14	Cerro de Oro	8	Agosto	2023-08-30T00:00:00	2024-11-08T09:00:00	2	Temperatura media	21.3
169554	7	Sololá	719	Santiago Atitlán	14	Cerro de Oro	8	Agosto	2023-08-30T00:00:00	2024-11-08T09:00:00	4	Temperatura máxima	21.3
169555	7	Sololá	719	Santiago Atitlán	14	Cerro de Oro	8	Agosto	2023-08-30T00:00:00	2024-11-08T09:00:00	3	Temperatura mínima	20.8
169556	7	Sololá	719	Santiago Atitlán	14	Cerro de Oro	8	Agosto	2023-08-30T00:00:00	2024-11-08T09:00:00	5	Humedad	82
169557	7	Sololá	719	Santiago Atitlán	14	Cerro de Oro	8	Agosto	2023-08-30T00:00:00	2024-11-08T09:00:00	6	Velocidad del viento	1.6
169558	7	Sololá	719	Santiago Atitlán	14	Cerro de Oro	8	Agosto	2023-08-30T00:00:00	2024-11-08T09:00:00	7	Dirección del viento	1.61
169559	7	Sololá	719	Santiago Atitlán	14	Cerro de Oro	8	Agosto	2023-08-30T00:00:00	2024-11-08T09:00:00	1	Precipitación	0
169560	7	Sololá	719	Santiago Atitlán	14	Cerro de Oro	8	Agosto	2023-08-30T00:00:00	2024-11-08T09:00:00	8	Radiación solar	262
169561	7	Sololá	719	Santiago Atitlán	14	Cerro de Oro	8	Agosto	2023-08-30T00:00:00	2024-11-08T10:00:00	2	Temperatura media	22.3
169562	7	Sololá	719	Santiago Atitlán	14	Cerro de Oro	8	Agosto	2023-08-30T00:00:00	2024-11-08T10:00:00	4	Temperatura máxima	22.4
169563	7	Sololá	719	Santiago Atitlán	14	Cerro de Oro	8	Agosto	2023-08-30T00:00:00	2024-11-08T10:00:00	3	Temperatura mínima	21.2
169564	7	Sololá	719	Santiago Atitlán	14	Cerro de Oro	8	Agosto	2023-08-30T00:00:00	2024-11-08T10:00:00	5	Humedad	82
169565	7	Sololá	719	Santiago Atitlán	14	Cerro de Oro	8	Agosto	2023-08-30T00:00:00	2024-11-08T10:00:00	6	Velocidad del viento	3.2
169566	7	Sololá	719	Santiago Atitlán	14	Cerro de Oro	8	Agosto	2023-08-30T00:00:00	2024-11-08T10:00:00	7	Dirección del viento	3.22
169567	7	Sololá	719	Santiago Atitlán	14	Cerro de Oro	8	Agosto	2023-08-30T00:00:00	2024-11-08T10:00:00	1	Precipitación	0
169568	7	Sololá	719	Santiago Atitlán	14	Cerro de Oro	8	Agosto	2023-08-30T00:00:00	2024-11-08T10:00:00	8	Radiación solar	484
169569	7	Sololá	719	Santiago Atitlán	14	Cerro de Oro	8	Agosto	2023-08-30T00:00:00	2024-11-08T11:00:00	2	Temperatura media	23.5
169570	7	Sololá	719	Santiago Atitlán	14	Cerro de Oro	8	Agosto	2023-08-30T00:00:00	2024-11-08T11:00:00	4	Temperatura máxima	23.5
169571	7	Sololá	719	Santiago Atitlán	14	Cerro de Oro	8	Agosto	2023-08-30T00:00:00	2024-11-08T11:00:00	3	Temperatura mínima	22.3
169572	7	Sololá	719	Santiago Atitlán	14	Cerro de Oro	8	Agosto	2023-08-30T00:00:00	2024-11-08T11:00:00	5	Humedad	75
169573	7	Sololá	719	Santiago Atitlán	14	Cerro de Oro	8	Agosto	2023-08-30T00:00:00	2024-11-08T11:00:00	6	Velocidad del viento	6.4
169574	7	Sololá	719	Santiago Atitlán	14	Cerro de Oro	8	Agosto	2023-08-30T00:00:00	2024-11-08T11:00:00	7	Dirección del viento	6.44
169575	7	Sololá	719	Santiago Atitlán	14	Cerro de Oro	8	Agosto	2023-08-30T00:00:00	2024-11-08T11:00:00	1	Precipitación	0
169576	7	Sololá	719	Santiago Atitlán	14	Cerro de Oro	8	Agosto	2023-08-30T00:00:00	2024-11-08T11:00:00	8	Radiación solar	766
169577	7	Sololá	719	Santiago Atitlán	14	Cerro de Oro	8	Agosto	2023-08-30T00:00:00	2024-11-08T12:00:00	2	Temperatura media	22.9
169578	7	Sololá	719	Santiago Atitlán	14	Cerro de Oro	8	Agosto	2023-08-30T00:00:00	2024-11-08T12:00:00	4	Temperatura máxima	24.4
169579	7	Sololá	719	Santiago Atitlán	14	Cerro de Oro	8	Agosto	2023-08-30T00:00:00	2024-11-08T12:00:00	3	Temperatura mínima	22.9
169580	7	Sololá	719	Santiago Atitlán	14	Cerro de Oro	8	Agosto	2023-08-30T00:00:00	2024-11-08T12:00:00	5	Humedad	75
169581	7	Sololá	719	Santiago Atitlán	14	Cerro de Oro	8	Agosto	2023-08-30T00:00:00	2024-11-08T12:00:00	6	Velocidad del viento	9.7
169582	7	Sololá	719	Santiago Atitlán	14	Cerro de Oro	8	Agosto	2023-08-30T00:00:00	2024-11-08T12:00:00	7	Dirección del viento	9.66
169583	7	Sololá	719	Santiago Atitlán	14	Cerro de Oro	8	Agosto	2023-08-30T00:00:00	2024-11-08T12:00:00	1	Precipitación	0
169584	7	Sololá	719	Santiago Atitlán	14	Cerro de Oro	8	Agosto	2023-08-30T00:00:00	2024-11-08T12:00:00	8	Radiación solar	656
169585	7	Sololá	719	Santiago Atitlán	14	Cerro de Oro	8	Agosto	2023-08-30T00:00:00	2024-11-08T13:00:00	2	Temperatura media	24.5
169586	7	Sololá	719	Santiago Atitlán	14	Cerro de Oro	8	Agosto	2023-08-30T00:00:00	2024-11-08T13:00:00	4	Temperatura máxima	24.5
169587	7	Sololá	719	Santiago Atitlán	14	Cerro de Oro	8	Agosto	2023-08-30T00:00:00	2024-11-08T13:00:00	3	Temperatura mínima	22.9
169588	7	Sololá	719	Santiago Atitlán	14	Cerro de Oro	8	Agosto	2023-08-30T00:00:00	2024-11-08T13:00:00	5	Humedad	71
169589	7	Sololá	719	Santiago Atitlán	14	Cerro de Oro	8	Agosto	2023-08-30T00:00:00	2024-11-08T13:00:00	6	Velocidad del viento	11.3
169590	7	Sololá	719	Santiago Atitlán	14	Cerro de Oro	8	Agosto	2023-08-30T00:00:00	2024-11-08T13:00:00	7	Dirección del viento	11.27
169591	7	Sololá	719	Santiago Atitlán	14	Cerro de Oro	8	Agosto	2023-08-30T00:00:00	2024-11-08T13:00:00	1	Precipitación	0
169592	7	Sololá	719	Santiago Atitlán	14	Cerro de Oro	8	Agosto	2023-08-30T00:00:00	2024-11-08T13:00:00	8	Radiación solar	674
169593	7	Sololá	719	Santiago Atitlán	14	Cerro de Oro	8	Agosto	2023-08-30T00:00:00	2024-11-08T14:00:00	2	Temperatura media	23
169594	7	Sololá	719	Santiago Atitlán	14	Cerro de Oro	8	Agosto	2023-08-30T00:00:00	2024-11-08T14:00:00	4	Temperatura máxima	25.1
169595	7	Sololá	719	Santiago Atitlán	14	Cerro de Oro	8	Agosto	2023-08-30T00:00:00	2024-11-08T14:00:00	3	Temperatura mínima	22.9
169596	7	Sololá	719	Santiago Atitlán	14	Cerro de Oro	8	Agosto	2023-08-30T00:00:00	2024-11-08T14:00:00	5	Humedad	78
169597	7	Sololá	719	Santiago Atitlán	14	Cerro de Oro	8	Agosto	2023-08-30T00:00:00	2024-11-08T14:00:00	6	Velocidad del viento	11.3
169598	7	Sololá	719	Santiago Atitlán	14	Cerro de Oro	8	Agosto	2023-08-30T00:00:00	2024-11-08T14:00:00	7	Dirección del viento	11.27
169599	7	Sololá	719	Santiago Atitlán	14	Cerro de Oro	8	Agosto	2023-08-30T00:00:00	2024-11-08T14:00:00	1	Precipitación	0
169600	7	Sololá	719	Santiago Atitlán	14	Cerro de Oro	8	Agosto	2023-08-30T00:00:00	2024-11-08T14:00:00	8	Radiación solar	619
169601	7	Sololá	719	Santiago Atitlán	14	Cerro de Oro	8	Agosto	2023-08-30T00:00:00	2024-11-08T15:00:00	2	Temperatura media	21.8
169602	7	Sololá	719	Santiago Atitlán	14	Cerro de Oro	8	Agosto	2023-08-30T00:00:00	2024-11-08T15:00:00	4	Temperatura máxima	22.9
169603	7	Sololá	719	Santiago Atitlán	14	Cerro de Oro	8	Agosto	2023-08-30T00:00:00	2024-11-08T15:00:00	3	Temperatura mínima	21.6
169604	7	Sololá	719	Santiago Atitlán	14	Cerro de Oro	8	Agosto	2023-08-30T00:00:00	2024-11-08T15:00:00	5	Humedad	87
169605	7	Sololá	719	Santiago Atitlán	14	Cerro de Oro	8	Agosto	2023-08-30T00:00:00	2024-11-08T15:00:00	6	Velocidad del viento	6.4
169606	7	Sololá	719	Santiago Atitlán	14	Cerro de Oro	8	Agosto	2023-08-30T00:00:00	2024-11-08T15:00:00	7	Dirección del viento	6.44
169607	7	Sololá	719	Santiago Atitlán	14	Cerro de Oro	8	Agosto	2023-08-30T00:00:00	2024-11-08T15:00:00	1	Precipitación	0.2
169608	7	Sololá	719	Santiago Atitlán	14	Cerro de Oro	8	Agosto	2023-08-30T00:00:00	2024-11-08T15:00:00	8	Radiación solar	232
169609	7	Sololá	719	Santiago Atitlán	14	Cerro de Oro	8	Agosto	2023-08-30T00:00:00	2024-11-08T16:00:00	2	Temperatura media	22.2
169610	7	Sololá	719	Santiago Atitlán	14	Cerro de Oro	8	Agosto	2023-08-30T00:00:00	2024-11-08T16:00:00	4	Temperatura máxima	22.2
169611	7	Sololá	719	Santiago Atitlán	14	Cerro de Oro	8	Agosto	2023-08-30T00:00:00	2024-11-08T16:00:00	3	Temperatura mínima	21.7
169612	7	Sololá	719	Santiago Atitlán	14	Cerro de Oro	8	Agosto	2023-08-30T00:00:00	2024-11-08T16:00:00	5	Humedad	83
169613	7	Sololá	719	Santiago Atitlán	14	Cerro de Oro	8	Agosto	2023-08-30T00:00:00	2024-11-08T16:00:00	6	Velocidad del viento	3.2
169614	7	Sololá	719	Santiago Atitlán	14	Cerro de Oro	8	Agosto	2023-08-30T00:00:00	2024-11-08T16:00:00	7	Dirección del viento	3.22
169615	7	Sololá	719	Santiago Atitlán	14	Cerro de Oro	8	Agosto	2023-08-30T00:00:00	2024-11-08T16:00:00	1	Precipitación	0
169616	7	Sololá	719	Santiago Atitlán	14	Cerro de Oro	8	Agosto	2023-08-30T00:00:00	2024-11-08T16:00:00	8	Radiación solar	295
169617	7	Sololá	719	Santiago Atitlán	14	Cerro de Oro	8	Agosto	2023-08-30T00:00:00	2024-11-08T17:00:00	2	Temperatura media	21.8
169618	7	Sololá	719	Santiago Atitlán	14	Cerro de Oro	8	Agosto	2023-08-30T00:00:00	2024-11-08T17:00:00	4	Temperatura máxima	22.4
169619	7	Sololá	719	Santiago Atitlán	14	Cerro de Oro	8	Agosto	2023-08-30T00:00:00	2024-11-08T17:00:00	3	Temperatura mínima	21.8
169620	7	Sololá	719	Santiago Atitlán	14	Cerro de Oro	8	Agosto	2023-08-30T00:00:00	2024-11-08T17:00:00	5	Humedad	84
169621	7	Sololá	719	Santiago Atitlán	14	Cerro de Oro	8	Agosto	2023-08-30T00:00:00	2024-11-08T17:00:00	6	Velocidad del viento	1.6
169622	7	Sololá	719	Santiago Atitlán	14	Cerro de Oro	8	Agosto	2023-08-30T00:00:00	2024-11-08T17:00:00	7	Dirección del viento	1.61
169623	7	Sololá	719	Santiago Atitlán	14	Cerro de Oro	8	Agosto	2023-08-30T00:00:00	2024-11-08T17:00:00	1	Precipitación	0
169624	7	Sololá	719	Santiago Atitlán	14	Cerro de Oro	8	Agosto	2023-08-30T00:00:00	2024-11-08T17:00:00	8	Radiación solar	138
169625	7	Sololá	719	Santiago Atitlán	14	Cerro de Oro	8	Agosto	2023-08-30T00:00:00	2024-11-08T18:00:00	2	Temperatura media	21
169626	7	Sololá	719	Santiago Atitlán	14	Cerro de Oro	8	Agosto	2023-08-30T00:00:00	2024-11-08T18:00:00	4	Temperatura máxima	21.8
169627	7	Sololá	719	Santiago Atitlán	14	Cerro de Oro	8	Agosto	2023-08-30T00:00:00	2024-11-08T18:00:00	3	Temperatura mínima	21
169628	7	Sololá	719	Santiago Atitlán	14	Cerro de Oro	8	Agosto	2023-08-30T00:00:00	2024-11-08T18:00:00	5	Humedad	88
169629	7	Sololá	719	Santiago Atitlán	14	Cerro de Oro	8	Agosto	2023-08-30T00:00:00	2024-11-08T18:00:00	6	Velocidad del viento	1.6
169630	7	Sololá	719	Santiago Atitlán	14	Cerro de Oro	8	Agosto	2023-08-30T00:00:00	2024-11-08T18:00:00	7	Dirección del viento	1.61
169631	7	Sololá	719	Santiago Atitlán	14	Cerro de Oro	8	Agosto	2023-08-30T00:00:00	2024-11-08T18:00:00	1	Precipitación	0
169632	7	Sololá	719	Santiago Atitlán	14	Cerro de Oro	8	Agosto	2023-08-30T00:00:00	2024-11-08T18:00:00	8	Radiación solar	32
169633	7	Sololá	719	Santiago Atitlán	14	Cerro de Oro	8	Agosto	2023-08-30T00:00:00	2024-11-08T19:00:00	2	Temperatura media	20.5
169634	7	Sololá	719	Santiago Atitlán	14	Cerro de Oro	8	Agosto	2023-08-30T00:00:00	2024-11-08T19:00:00	4	Temperatura máxima	21
169635	7	Sololá	719	Santiago Atitlán	14	Cerro de Oro	8	Agosto	2023-08-30T00:00:00	2024-11-08T19:00:00	3	Temperatura mínima	20.3
169636	7	Sololá	719	Santiago Atitlán	14	Cerro de Oro	8	Agosto	2023-08-30T00:00:00	2024-11-08T19:00:00	5	Humedad	87
169637	7	Sololá	719	Santiago Atitlán	14	Cerro de Oro	8	Agosto	2023-08-30T00:00:00	2024-11-08T19:00:00	6	Velocidad del viento	3.2
169638	7	Sololá	719	Santiago Atitlán	14	Cerro de Oro	8	Agosto	2023-08-30T00:00:00	2024-11-08T19:00:00	7	Dirección del viento	3.22
169639	7	Sololá	719	Santiago Atitlán	14	Cerro de Oro	8	Agosto	2023-08-30T00:00:00	2024-11-08T19:00:00	1	Precipitación	0
169640	7	Sololá	719	Santiago Atitlán	14	Cerro de Oro	8	Agosto	2023-08-30T00:00:00	2024-11-08T19:00:00	8	Radiación solar	0
169641	7	Sololá	719	Santiago Atitlán	14	Cerro de Oro	8	Agosto	2023-08-30T00:00:00	2024-11-08T20:00:00	2	Temperatura media	20.1
169642	7	Sololá	719	Santiago Atitlán	14	Cerro de Oro	8	Agosto	2023-08-30T00:00:00	2024-11-08T20:00:00	4	Temperatura máxima	20.6
169643	7	Sololá	719	Santiago Atitlán	14	Cerro de Oro	8	Agosto	2023-08-30T00:00:00	2024-11-08T20:00:00	3	Temperatura mínima	20.1
169644	7	Sololá	719	Santiago Atitlán	14	Cerro de Oro	8	Agosto	2023-08-30T00:00:00	2024-11-08T20:00:00	5	Humedad	87
169645	7	Sololá	719	Santiago Atitlán	14	Cerro de Oro	8	Agosto	2023-08-30T00:00:00	2024-11-08T20:00:00	6	Velocidad del viento	3.2
169646	7	Sololá	719	Santiago Atitlán	14	Cerro de Oro	8	Agosto	2023-08-30T00:00:00	2024-11-08T20:00:00	7	Dirección del viento	3.22
169647	7	Sololá	719	Santiago Atitlán	14	Cerro de Oro	8	Agosto	2023-08-30T00:00:00	2024-11-08T20:00:00	1	Precipitación	0
169648	7	Sololá	719	Santiago Atitlán	14	Cerro de Oro	8	Agosto	2023-08-30T00:00:00	2024-11-08T20:00:00	8	Radiación solar	0
169649	7	Sololá	719	Santiago Atitlán	14	Cerro de Oro	8	Agosto	2023-08-30T00:00:00	2024-11-08T21:00:00	2	Temperatura media	19.6
169650	7	Sololá	719	Santiago Atitlán	14	Cerro de Oro	8	Agosto	2023-08-30T00:00:00	2024-11-08T21:00:00	4	Temperatura máxima	20.2
169651	7	Sololá	719	Santiago Atitlán	14	Cerro de Oro	8	Agosto	2023-08-30T00:00:00	2024-11-08T21:00:00	3	Temperatura mínima	19.5
169652	7	Sololá	719	Santiago Atitlán	14	Cerro de Oro	8	Agosto	2023-08-30T00:00:00	2024-11-08T21:00:00	5	Humedad	85
169653	7	Sololá	719	Santiago Atitlán	14	Cerro de Oro	8	Agosto	2023-08-30T00:00:00	2024-11-08T21:00:00	6	Velocidad del viento	3.2
169654	7	Sololá	719	Santiago Atitlán	14	Cerro de Oro	8	Agosto	2023-08-30T00:00:00	2024-11-08T21:00:00	7	Dirección del viento	3.22
169655	7	Sololá	719	Santiago Atitlán	14	Cerro de Oro	8	Agosto	2023-08-30T00:00:00	2024-11-08T21:00:00	1	Precipitación	0
169656	7	Sololá	719	Santiago Atitlán	14	Cerro de Oro	8	Agosto	2023-08-30T00:00:00	2024-11-08T21:00:00	8	Radiación solar	0
169657	7	Sololá	719	Santiago Atitlán	14	Cerro de Oro	8	Agosto	2023-08-30T00:00:00	2024-11-08T22:00:00	2	Temperatura media	19.9
169658	7	Sololá	719	Santiago Atitlán	14	Cerro de Oro	8	Agosto	2023-08-30T00:00:00	2024-11-08T22:00:00	4	Temperatura máxima	19.9
169659	7	Sololá	719	Santiago Atitlán	14	Cerro de Oro	8	Agosto	2023-08-30T00:00:00	2024-11-08T22:00:00	3	Temperatura mínima	19.3
169660	7	Sololá	719	Santiago Atitlán	14	Cerro de Oro	8	Agosto	2023-08-30T00:00:00	2024-11-08T22:00:00	5	Humedad	88
169661	7	Sololá	719	Santiago Atitlán	14	Cerro de Oro	8	Agosto	2023-08-30T00:00:00	2024-11-08T22:00:00	6	Velocidad del viento	4.8
169662	7	Sololá	719	Santiago Atitlán	14	Cerro de Oro	8	Agosto	2023-08-30T00:00:00	2024-11-08T22:00:00	7	Dirección del viento	4.83
169663	7	Sololá	719	Santiago Atitlán	14	Cerro de Oro	8	Agosto	2023-08-30T00:00:00	2024-11-08T22:00:00	1	Precipitación	0
169664	7	Sololá	719	Santiago Atitlán	14	Cerro de Oro	8	Agosto	2023-08-30T00:00:00	2024-11-08T22:00:00	8	Radiación solar	0
169665	7	Sololá	719	Santiago Atitlán	14	Cerro de Oro	8	Agosto	2023-08-30T00:00:00	2024-11-08T23:00:00	2	Temperatura media	19.7
169666	7	Sololá	719	Santiago Atitlán	14	Cerro de Oro	8	Agosto	2023-08-30T00:00:00	2024-11-08T23:00:00	4	Temperatura máxima	20.1
169667	7	Sololá	719	Santiago Atitlán	14	Cerro de Oro	8	Agosto	2023-08-30T00:00:00	2024-11-08T23:00:00	3	Temperatura mínima	19.4
169668	7	Sololá	719	Santiago Atitlán	14	Cerro de Oro	8	Agosto	2023-08-30T00:00:00	2024-11-08T23:00:00	5	Humedad	89
169669	7	Sololá	719	Santiago Atitlán	14	Cerro de Oro	8	Agosto	2023-08-30T00:00:00	2024-11-08T23:00:00	6	Velocidad del viento	3.2
169670	7	Sololá	719	Santiago Atitlán	14	Cerro de Oro	8	Agosto	2023-08-30T00:00:00	2024-11-08T23:00:00	7	Dirección del viento	3.22
169671	7	Sololá	719	Santiago Atitlán	14	Cerro de Oro	8	Agosto	2023-08-30T00:00:00	2024-11-08T23:00:00	1	Precipitación	0
169672	7	Sololá	719	Santiago Atitlán	14	Cerro de Oro	8	Agosto	2023-08-30T00:00:00	2024-11-08T23:00:00	8	Radiación solar	0
169673	7	Sololá	719	Santiago Atitlán	14	Cerro de Oro	8	Agosto	2023-08-31T00:00:00	2024-11-08T00:00:00	2	Temperatura media	19.9
169674	7	Sololá	719	Santiago Atitlán	14	Cerro de Oro	8	Agosto	2023-08-31T00:00:00	2024-11-08T00:00:00	4	Temperatura máxima	19.9
169675	7	Sololá	719	Santiago Atitlán	14	Cerro de Oro	8	Agosto	2023-08-31T00:00:00	2024-11-08T00:00:00	3	Temperatura mínima	19.6
169676	7	Sololá	719	Santiago Atitlán	14	Cerro de Oro	8	Agosto	2023-08-31T00:00:00	2024-11-08T00:00:00	5	Humedad	89
169677	7	Sololá	719	Santiago Atitlán	14	Cerro de Oro	8	Agosto	2023-08-31T00:00:00	2024-11-08T00:00:00	6	Velocidad del viento	3.2
169678	7	Sololá	719	Santiago Atitlán	14	Cerro de Oro	8	Agosto	2023-08-31T00:00:00	2024-11-08T00:00:00	7	Dirección del viento	3.22
169679	7	Sololá	719	Santiago Atitlán	14	Cerro de Oro	8	Agosto	2023-08-31T00:00:00	2024-11-08T00:00:00	1	Precipitación	0
169680	7	Sololá	719	Santiago Atitlán	14	Cerro de Oro	8	Agosto	2023-08-31T00:00:00	2024-11-08T00:00:00	8	Radiación solar	0
169681	7	Sololá	719	Santiago Atitlán	14	Cerro de Oro	8	Agosto	2023-08-31T00:00:00	2024-11-08T01:00:00	2	Temperatura media	19.4
169682	7	Sololá	719	Santiago Atitlán	14	Cerro de Oro	8	Agosto	2023-08-31T00:00:00	2024-11-08T01:00:00	4	Temperatura máxima	20
169683	7	Sololá	719	Santiago Atitlán	14	Cerro de Oro	8	Agosto	2023-08-31T00:00:00	2024-11-08T01:00:00	3	Temperatura mínima	19.2
169684	7	Sololá	719	Santiago Atitlán	14	Cerro de Oro	8	Agosto	2023-08-31T00:00:00	2024-11-08T01:00:00	5	Humedad	88
169685	7	Sololá	719	Santiago Atitlán	14	Cerro de Oro	8	Agosto	2023-08-31T00:00:00	2024-11-08T01:00:00	6	Velocidad del viento	3.2
169686	7	Sololá	719	Santiago Atitlán	14	Cerro de Oro	8	Agosto	2023-08-31T00:00:00	2024-11-08T01:00:00	7	Dirección del viento	3.22
169687	7	Sololá	719	Santiago Atitlán	14	Cerro de Oro	8	Agosto	2023-08-31T00:00:00	2024-11-08T01:00:00	1	Precipitación	0
169688	7	Sololá	719	Santiago Atitlán	14	Cerro de Oro	8	Agosto	2023-08-31T00:00:00	2024-11-08T01:00:00	8	Radiación solar	0
169689	7	Sololá	719	Santiago Atitlán	14	Cerro de Oro	8	Agosto	2023-08-31T00:00:00	2024-11-08T02:00:00	2	Temperatura media	19.9
169690	7	Sololá	719	Santiago Atitlán	14	Cerro de Oro	8	Agosto	2023-08-31T00:00:00	2024-11-08T02:00:00	4	Temperatura máxima	20
169691	7	Sololá	719	Santiago Atitlán	14	Cerro de Oro	8	Agosto	2023-08-31T00:00:00	2024-11-08T02:00:00	3	Temperatura mínima	19.4
169692	7	Sololá	719	Santiago Atitlán	14	Cerro de Oro	8	Agosto	2023-08-31T00:00:00	2024-11-08T02:00:00	5	Humedad	87
169693	7	Sololá	719	Santiago Atitlán	14	Cerro de Oro	8	Agosto	2023-08-31T00:00:00	2024-11-08T02:00:00	6	Velocidad del viento	3.2
169694	7	Sololá	719	Santiago Atitlán	14	Cerro de Oro	8	Agosto	2023-08-31T00:00:00	2024-11-08T02:00:00	7	Dirección del viento	3.22
169695	7	Sololá	719	Santiago Atitlán	14	Cerro de Oro	8	Agosto	2023-08-31T00:00:00	2024-11-08T02:00:00	1	Precipitación	0
169696	7	Sololá	719	Santiago Atitlán	14	Cerro de Oro	8	Agosto	2023-08-31T00:00:00	2024-11-08T02:00:00	8	Radiación solar	0
169697	7	Sololá	719	Santiago Atitlán	14	Cerro de Oro	8	Agosto	2023-08-31T00:00:00	2024-11-08T03:00:00	2	Temperatura media	19.1
169698	7	Sololá	719	Santiago Atitlán	14	Cerro de Oro	8	Agosto	2023-08-31T00:00:00	2024-11-08T03:00:00	4	Temperatura máxima	19.9
169699	7	Sololá	719	Santiago Atitlán	14	Cerro de Oro	8	Agosto	2023-08-31T00:00:00	2024-11-08T03:00:00	3	Temperatura mínima	19
169700	7	Sololá	719	Santiago Atitlán	14	Cerro de Oro	8	Agosto	2023-08-31T00:00:00	2024-11-08T03:00:00	5	Humedad	89
169701	7	Sololá	719	Santiago Atitlán	14	Cerro de Oro	8	Agosto	2023-08-31T00:00:00	2024-11-08T03:00:00	6	Velocidad del viento	3.2
169702	7	Sololá	719	Santiago Atitlán	14	Cerro de Oro	8	Agosto	2023-08-31T00:00:00	2024-11-08T03:00:00	7	Dirección del viento	3.22
169703	7	Sololá	719	Santiago Atitlán	14	Cerro de Oro	8	Agosto	2023-08-31T00:00:00	2024-11-08T03:00:00	1	Precipitación	0
169704	7	Sololá	719	Santiago Atitlán	14	Cerro de Oro	8	Agosto	2023-08-31T00:00:00	2024-11-08T03:00:00	8	Radiación solar	0
169705	7	Sololá	719	Santiago Atitlán	14	Cerro de Oro	8	Agosto	2023-08-31T00:00:00	2024-11-08T04:00:00	2	Temperatura media	19.1
169706	7	Sololá	719	Santiago Atitlán	14	Cerro de Oro	8	Agosto	2023-08-31T00:00:00	2024-11-08T04:00:00	4	Temperatura máxima	19.2
169707	7	Sololá	719	Santiago Atitlán	14	Cerro de Oro	8	Agosto	2023-08-31T00:00:00	2024-11-08T04:00:00	3	Temperatura mínima	19
169708	7	Sololá	719	Santiago Atitlán	14	Cerro de Oro	8	Agosto	2023-08-31T00:00:00	2024-11-08T04:00:00	5	Humedad	91
169709	7	Sololá	719	Santiago Atitlán	14	Cerro de Oro	8	Agosto	2023-08-31T00:00:00	2024-11-08T04:00:00	6	Velocidad del viento	1.6
169710	7	Sololá	719	Santiago Atitlán	14	Cerro de Oro	8	Agosto	2023-08-31T00:00:00	2024-11-08T04:00:00	7	Dirección del viento	1.61
169711	7	Sololá	719	Santiago Atitlán	14	Cerro de Oro	8	Agosto	2023-08-31T00:00:00	2024-11-08T04:00:00	1	Precipitación	0
169712	7	Sololá	719	Santiago Atitlán	14	Cerro de Oro	8	Agosto	2023-08-31T00:00:00	2024-11-08T04:00:00	8	Radiación solar	0
169713	7	Sololá	719	Santiago Atitlán	14	Cerro de Oro	8	Agosto	2023-08-31T00:00:00	2024-11-08T05:00:00	2	Temperatura media	19.3
169714	7	Sololá	719	Santiago Atitlán	14	Cerro de Oro	8	Agosto	2023-08-31T00:00:00	2024-11-08T05:00:00	4	Temperatura máxima	19.3
169715	7	Sololá	719	Santiago Atitlán	14	Cerro de Oro	8	Agosto	2023-08-31T00:00:00	2024-11-08T05:00:00	3	Temperatura mínima	19
169716	7	Sololá	719	Santiago Atitlán	14	Cerro de Oro	8	Agosto	2023-08-31T00:00:00	2024-11-08T05:00:00	5	Humedad	84
169717	7	Sololá	719	Santiago Atitlán	14	Cerro de Oro	8	Agosto	2023-08-31T00:00:00	2024-11-08T05:00:00	6	Velocidad del viento	1.6
169718	7	Sololá	719	Santiago Atitlán	14	Cerro de Oro	8	Agosto	2023-08-31T00:00:00	2024-11-08T05:00:00	7	Dirección del viento	1.61
169719	7	Sololá	719	Santiago Atitlán	14	Cerro de Oro	8	Agosto	2023-08-31T00:00:00	2024-11-08T05:00:00	1	Precipitación	0
169720	7	Sololá	719	Santiago Atitlán	14	Cerro de Oro	8	Agosto	2023-08-31T00:00:00	2024-11-08T05:00:00	8	Radiación solar	0
169721	7	Sololá	719	Santiago Atitlán	14	Cerro de Oro	8	Agosto	2023-08-31T00:00:00	2024-11-08T06:00:00	2	Temperatura media	19.3
169722	7	Sololá	719	Santiago Atitlán	14	Cerro de Oro	8	Agosto	2023-08-31T00:00:00	2024-11-08T06:00:00	4	Temperatura máxima	19.4
169723	7	Sololá	719	Santiago Atitlán	14	Cerro de Oro	8	Agosto	2023-08-31T00:00:00	2024-11-08T06:00:00	3	Temperatura mínima	19.1
169724	7	Sololá	719	Santiago Atitlán	14	Cerro de Oro	8	Agosto	2023-08-31T00:00:00	2024-11-08T06:00:00	5	Humedad	86
169725	7	Sololá	719	Santiago Atitlán	14	Cerro de Oro	8	Agosto	2023-08-31T00:00:00	2024-11-08T06:00:00	6	Velocidad del viento	3.2
169726	7	Sololá	719	Santiago Atitlán	14	Cerro de Oro	8	Agosto	2023-08-31T00:00:00	2024-11-08T06:00:00	7	Dirección del viento	3.22
169727	7	Sololá	719	Santiago Atitlán	14	Cerro de Oro	8	Agosto	2023-08-31T00:00:00	2024-11-08T06:00:00	1	Precipitación	0
169728	7	Sololá	719	Santiago Atitlán	14	Cerro de Oro	8	Agosto	2023-08-31T00:00:00	2024-11-08T06:00:00	8	Radiación solar	0
169729	7	Sololá	719	Santiago Atitlán	14	Cerro de Oro	8	Agosto	2023-08-31T00:00:00	2024-11-08T07:00:00	2	Temperatura media	19.7
169730	7	Sololá	719	Santiago Atitlán	14	Cerro de Oro	8	Agosto	2023-08-31T00:00:00	2024-11-08T07:00:00	4	Temperatura máxima	19.7
169731	7	Sololá	719	Santiago Atitlán	14	Cerro de Oro	8	Agosto	2023-08-31T00:00:00	2024-11-08T07:00:00	3	Temperatura mínima	19.2
169732	7	Sololá	719	Santiago Atitlán	14	Cerro de Oro	8	Agosto	2023-08-31T00:00:00	2024-11-08T07:00:00	5	Humedad	87
169733	7	Sololá	719	Santiago Atitlán	14	Cerro de Oro	8	Agosto	2023-08-31T00:00:00	2024-11-08T07:00:00	6	Velocidad del viento	1.6
169734	7	Sololá	719	Santiago Atitlán	14	Cerro de Oro	8	Agosto	2023-08-31T00:00:00	2024-11-08T07:00:00	7	Dirección del viento	1.61
169735	7	Sololá	719	Santiago Atitlán	14	Cerro de Oro	8	Agosto	2023-08-31T00:00:00	2024-11-08T07:00:00	1	Precipitación	0
169736	7	Sololá	719	Santiago Atitlán	14	Cerro de Oro	8	Agosto	2023-08-31T00:00:00	2024-11-08T07:00:00	8	Radiación solar	52
169737	7	Sololá	719	Santiago Atitlán	14	Cerro de Oro	8	Agosto	2023-08-31T00:00:00	2024-11-08T08:00:00	2	Temperatura media	21.9
169738	7	Sololá	719	Santiago Atitlán	14	Cerro de Oro	8	Agosto	2023-08-31T00:00:00	2024-11-08T08:00:00	4	Temperatura máxima	22.2
169739	7	Sololá	719	Santiago Atitlán	14	Cerro de Oro	8	Agosto	2023-08-31T00:00:00	2024-11-08T08:00:00	3	Temperatura mínima	19.7
169740	7	Sololá	719	Santiago Atitlán	14	Cerro de Oro	8	Agosto	2023-08-31T00:00:00	2024-11-08T08:00:00	5	Humedad	73
169741	7	Sololá	719	Santiago Atitlán	14	Cerro de Oro	8	Agosto	2023-08-31T00:00:00	2024-11-08T08:00:00	6	Velocidad del viento	1.6
169742	7	Sololá	719	Santiago Atitlán	14	Cerro de Oro	8	Agosto	2023-08-31T00:00:00	2024-11-08T08:00:00	7	Dirección del viento	1.61
169743	7	Sololá	719	Santiago Atitlán	14	Cerro de Oro	8	Agosto	2023-08-31T00:00:00	2024-11-08T08:00:00	1	Precipitación	0
169744	7	Sololá	719	Santiago Atitlán	14	Cerro de Oro	8	Agosto	2023-08-31T00:00:00	2024-11-08T08:00:00	8	Radiación solar	196
169745	7	Sololá	719	Santiago Atitlán	14	Cerro de Oro	8	Agosto	2023-08-31T00:00:00	2024-11-08T09:00:00	2	Temperatura media	22.8
169746	7	Sololá	719	Santiago Atitlán	14	Cerro de Oro	8	Agosto	2023-08-31T00:00:00	2024-11-08T09:00:00	4	Temperatura máxima	22.8
169747	7	Sololá	719	Santiago Atitlán	14	Cerro de Oro	8	Agosto	2023-08-31T00:00:00	2024-11-08T09:00:00	3	Temperatura mínima	21.9
169748	7	Sololá	719	Santiago Atitlán	14	Cerro de Oro	8	Agosto	2023-08-31T00:00:00	2024-11-08T09:00:00	5	Humedad	75
169749	7	Sololá	719	Santiago Atitlán	14	Cerro de Oro	8	Agosto	2023-08-31T00:00:00	2024-11-08T09:00:00	6	Velocidad del viento	4.8
169750	7	Sololá	719	Santiago Atitlán	14	Cerro de Oro	8	Agosto	2023-08-31T00:00:00	2024-11-08T09:00:00	7	Dirección del viento	4.83
169751	7	Sololá	719	Santiago Atitlán	14	Cerro de Oro	8	Agosto	2023-08-31T00:00:00	2024-11-08T09:00:00	1	Precipitación	0
169752	7	Sololá	719	Santiago Atitlán	14	Cerro de Oro	8	Agosto	2023-08-31T00:00:00	2024-11-08T09:00:00	8	Radiación solar	419
169753	7	Sololá	719	Santiago Atitlán	14	Cerro de Oro	8	Agosto	2023-08-31T00:00:00	2024-11-08T10:00:00	2	Temperatura media	23.6
169754	7	Sololá	719	Santiago Atitlán	14	Cerro de Oro	8	Agosto	2023-08-31T00:00:00	2024-11-08T10:00:00	4	Temperatura máxima	23.9
169755	7	Sololá	719	Santiago Atitlán	14	Cerro de Oro	8	Agosto	2023-08-31T00:00:00	2024-11-08T10:00:00	3	Temperatura mínima	22.7
169756	7	Sololá	719	Santiago Atitlán	14	Cerro de Oro	8	Agosto	2023-08-31T00:00:00	2024-11-08T10:00:00	5	Humedad	72
169757	7	Sololá	719	Santiago Atitlán	14	Cerro de Oro	8	Agosto	2023-08-31T00:00:00	2024-11-08T10:00:00	6	Velocidad del viento	4.8
169758	7	Sololá	719	Santiago Atitlán	14	Cerro de Oro	8	Agosto	2023-08-31T00:00:00	2024-11-08T10:00:00	7	Dirección del viento	4.83
169759	7	Sololá	719	Santiago Atitlán	14	Cerro de Oro	8	Agosto	2023-08-31T00:00:00	2024-11-08T10:00:00	1	Precipitación	0
169760	7	Sololá	719	Santiago Atitlán	14	Cerro de Oro	8	Agosto	2023-08-31T00:00:00	2024-11-08T10:00:00	8	Radiación solar	612
169761	7	Sololá	719	Santiago Atitlán	14	Cerro de Oro	8	Agosto	2023-08-31T00:00:00	2024-11-08T11:00:00	2	Temperatura media	24.6
169762	7	Sololá	719	Santiago Atitlán	14	Cerro de Oro	8	Agosto	2023-08-31T00:00:00	2024-11-08T11:00:00	4	Temperatura máxima	24.8
169763	7	Sololá	719	Santiago Atitlán	14	Cerro de Oro	8	Agosto	2023-08-31T00:00:00	2024-11-08T11:00:00	3	Temperatura mínima	23
169764	7	Sololá	719	Santiago Atitlán	14	Cerro de Oro	8	Agosto	2023-08-31T00:00:00	2024-11-08T11:00:00	5	Humedad	74
169765	7	Sololá	719	Santiago Atitlán	14	Cerro de Oro	8	Agosto	2023-08-31T00:00:00	2024-11-08T11:00:00	6	Velocidad del viento	8
169766	7	Sololá	719	Santiago Atitlán	14	Cerro de Oro	8	Agosto	2023-08-31T00:00:00	2024-11-08T11:00:00	7	Dirección del viento	8.05
169767	7	Sololá	719	Santiago Atitlán	14	Cerro de Oro	8	Agosto	2023-08-31T00:00:00	2024-11-08T11:00:00	1	Precipitación	0
169768	7	Sololá	719	Santiago Atitlán	14	Cerro de Oro	8	Agosto	2023-08-31T00:00:00	2024-11-08T11:00:00	8	Radiación solar	838
169769	7	Sololá	719	Santiago Atitlán	14	Cerro de Oro	8	Agosto	2023-08-31T00:00:00	2024-11-08T12:00:00	2	Temperatura media	24.8
169770	7	Sololá	719	Santiago Atitlán	14	Cerro de Oro	8	Agosto	2023-08-31T00:00:00	2024-11-08T12:00:00	4	Temperatura máxima	25.3
169771	7	Sololá	719	Santiago Atitlán	14	Cerro de Oro	8	Agosto	2023-08-31T00:00:00	2024-11-08T12:00:00	3	Temperatura mínima	24.6
169772	7	Sololá	719	Santiago Atitlán	14	Cerro de Oro	8	Agosto	2023-08-31T00:00:00	2024-11-08T12:00:00	5	Humedad	72
169773	7	Sololá	719	Santiago Atitlán	14	Cerro de Oro	8	Agosto	2023-08-31T00:00:00	2024-11-08T12:00:00	6	Velocidad del viento	12.9
169774	7	Sololá	719	Santiago Atitlán	14	Cerro de Oro	8	Agosto	2023-08-31T00:00:00	2024-11-08T12:00:00	7	Dirección del viento	12.87
169775	7	Sololá	719	Santiago Atitlán	14	Cerro de Oro	8	Agosto	2023-08-31T00:00:00	2024-11-08T12:00:00	1	Precipitación	0
169776	7	Sololá	719	Santiago Atitlán	14	Cerro de Oro	8	Agosto	2023-08-31T00:00:00	2024-11-08T12:00:00	8	Radiación solar	957
169777	7	Sololá	719	Santiago Atitlán	14	Cerro de Oro	8	Agosto	2023-08-31T00:00:00	2024-11-08T13:00:00	2	Temperatura media	23.1
169778	7	Sololá	719	Santiago Atitlán	14	Cerro de Oro	8	Agosto	2023-08-31T00:00:00	2024-11-08T13:00:00	4	Temperatura máxima	25
169779	7	Sololá	719	Santiago Atitlán	14	Cerro de Oro	8	Agosto	2023-08-31T00:00:00	2024-11-08T13:00:00	3	Temperatura mínima	23.1
169780	7	Sololá	719	Santiago Atitlán	14	Cerro de Oro	8	Agosto	2023-08-31T00:00:00	2024-11-08T13:00:00	5	Humedad	79
169781	7	Sololá	719	Santiago Atitlán	14	Cerro de Oro	8	Agosto	2023-08-31T00:00:00	2024-11-08T13:00:00	6	Velocidad del viento	12.9
169782	7	Sololá	719	Santiago Atitlán	14	Cerro de Oro	8	Agosto	2023-08-31T00:00:00	2024-11-08T13:00:00	7	Dirección del viento	12.87
169783	7	Sololá	719	Santiago Atitlán	14	Cerro de Oro	8	Agosto	2023-08-31T00:00:00	2024-11-08T13:00:00	1	Precipitación	0
169784	7	Sololá	719	Santiago Atitlán	14	Cerro de Oro	8	Agosto	2023-08-31T00:00:00	2024-11-08T13:00:00	8	Radiación solar	522
169785	7	Sololá	719	Santiago Atitlán	14	Cerro de Oro	8	Agosto	2023-08-31T00:00:00	2024-11-08T14:00:00	2	Temperatura media	21.5
169786	7	Sololá	719	Santiago Atitlán	14	Cerro de Oro	8	Agosto	2023-08-31T00:00:00	2024-11-08T14:00:00	4	Temperatura máxima	23.1
169787	7	Sololá	719	Santiago Atitlán	14	Cerro de Oro	8	Agosto	2023-08-31T00:00:00	2024-11-08T14:00:00	3	Temperatura mínima	21.5
169788	7	Sololá	719	Santiago Atitlán	14	Cerro de Oro	8	Agosto	2023-08-31T00:00:00	2024-11-08T14:00:00	5	Humedad	85
169789	7	Sololá	719	Santiago Atitlán	14	Cerro de Oro	8	Agosto	2023-08-31T00:00:00	2024-11-08T14:00:00	6	Velocidad del viento	11.3
169790	7	Sololá	719	Santiago Atitlán	14	Cerro de Oro	8	Agosto	2023-08-31T00:00:00	2024-11-08T14:00:00	7	Dirección del viento	11.27
169791	7	Sololá	719	Santiago Atitlán	14	Cerro de Oro	8	Agosto	2023-08-31T00:00:00	2024-11-08T14:00:00	1	Precipitación	0
169792	7	Sololá	719	Santiago Atitlán	14	Cerro de Oro	8	Agosto	2023-08-31T00:00:00	2024-11-08T14:00:00	8	Radiación solar	146
169793	7	Sololá	719	Santiago Atitlán	14	Cerro de Oro	8	Agosto	2023-08-31T00:00:00	2024-11-08T15:00:00	2	Temperatura media	21.4
169794	7	Sololá	719	Santiago Atitlán	14	Cerro de Oro	8	Agosto	2023-08-31T00:00:00	2024-11-08T15:00:00	4	Temperatura máxima	21.6
169795	7	Sololá	719	Santiago Atitlán	14	Cerro de Oro	8	Agosto	2023-08-31T00:00:00	2024-11-08T15:00:00	3	Temperatura mínima	21.3
169796	7	Sololá	719	Santiago Atitlán	14	Cerro de Oro	8	Agosto	2023-08-31T00:00:00	2024-11-08T15:00:00	5	Humedad	85
169797	7	Sololá	719	Santiago Atitlán	14	Cerro de Oro	8	Agosto	2023-08-31T00:00:00	2024-11-08T15:00:00	6	Velocidad del viento	4.8
169798	7	Sololá	719	Santiago Atitlán	14	Cerro de Oro	8	Agosto	2023-08-31T00:00:00	2024-11-08T15:00:00	7	Dirección del viento	4.83
169799	7	Sololá	719	Santiago Atitlán	14	Cerro de Oro	8	Agosto	2023-08-31T00:00:00	2024-11-08T15:00:00	1	Precipitación	0
169800	7	Sololá	719	Santiago Atitlán	14	Cerro de Oro	8	Agosto	2023-08-31T00:00:00	2024-11-08T15:00:00	8	Radiación solar	61
169801	7	Sololá	719	Santiago Atitlán	14	Cerro de Oro	8	Agosto	2023-08-31T00:00:00	2024-11-08T16:00:00	2	Temperatura media	21.9
169802	7	Sololá	719	Santiago Atitlán	14	Cerro de Oro	8	Agosto	2023-08-31T00:00:00	2024-11-08T16:00:00	4	Temperatura máxima	22
169803	7	Sololá	719	Santiago Atitlán	14	Cerro de Oro	8	Agosto	2023-08-31T00:00:00	2024-11-08T16:00:00	3	Temperatura mínima	21.4
169804	7	Sololá	719	Santiago Atitlán	14	Cerro de Oro	8	Agosto	2023-08-31T00:00:00	2024-11-08T16:00:00	5	Humedad	81
169805	7	Sololá	719	Santiago Atitlán	14	Cerro de Oro	8	Agosto	2023-08-31T00:00:00	2024-11-08T16:00:00	6	Velocidad del viento	1.6
169806	7	Sololá	719	Santiago Atitlán	14	Cerro de Oro	8	Agosto	2023-08-31T00:00:00	2024-11-08T16:00:00	7	Dirección del viento	1.61
169807	7	Sololá	719	Santiago Atitlán	14	Cerro de Oro	8	Agosto	2023-08-31T00:00:00	2024-11-08T16:00:00	1	Precipitación	0
169808	7	Sololá	719	Santiago Atitlán	14	Cerro de Oro	8	Agosto	2023-08-31T00:00:00	2024-11-08T16:00:00	8	Radiación solar	74
169809	7	Sololá	719	Santiago Atitlán	14	Cerro de Oro	8	Agosto	2023-08-31T00:00:00	2024-11-08T17:00:00	2	Temperatura media	20.8
169810	7	Sololá	719	Santiago Atitlán	14	Cerro de Oro	8	Agosto	2023-08-31T00:00:00	2024-11-08T17:00:00	4	Temperatura máxima	21.9
169811	7	Sololá	719	Santiago Atitlán	14	Cerro de Oro	8	Agosto	2023-08-31T00:00:00	2024-11-08T17:00:00	3	Temperatura mínima	20.8
169812	7	Sololá	719	Santiago Atitlán	14	Cerro de Oro	8	Agosto	2023-08-31T00:00:00	2024-11-08T17:00:00	5	Humedad	85
169813	7	Sololá	719	Santiago Atitlán	14	Cerro de Oro	8	Agosto	2023-08-31T00:00:00	2024-11-08T17:00:00	6	Velocidad del viento	1.6
169814	7	Sololá	719	Santiago Atitlán	14	Cerro de Oro	8	Agosto	2023-08-31T00:00:00	2024-11-08T17:00:00	7	Dirección del viento	1.61
169815	7	Sololá	719	Santiago Atitlán	14	Cerro de Oro	8	Agosto	2023-08-31T00:00:00	2024-11-08T17:00:00	1	Precipitación	0
169816	7	Sololá	719	Santiago Atitlán	14	Cerro de Oro	8	Agosto	2023-08-31T00:00:00	2024-11-08T17:00:00	8	Radiación solar	24
169817	7	Sololá	719	Santiago Atitlán	14	Cerro de Oro	8	Agosto	2023-08-31T00:00:00	2024-11-08T18:00:00	2	Temperatura media	20.8
169818	7	Sololá	719	Santiago Atitlán	14	Cerro de Oro	8	Agosto	2023-08-31T00:00:00	2024-11-08T18:00:00	4	Temperatura máxima	20.9
169819	7	Sololá	719	Santiago Atitlán	14	Cerro de Oro	8	Agosto	2023-08-31T00:00:00	2024-11-08T18:00:00	3	Temperatura mínima	20.7
169820	7	Sololá	719	Santiago Atitlán	14	Cerro de Oro	8	Agosto	2023-08-31T00:00:00	2024-11-08T18:00:00	5	Humedad	82
169821	7	Sololá	719	Santiago Atitlán	14	Cerro de Oro	8	Agosto	2023-08-31T00:00:00	2024-11-08T18:00:00	6	Velocidad del viento	3.2
169822	7	Sololá	719	Santiago Atitlán	14	Cerro de Oro	8	Agosto	2023-08-31T00:00:00	2024-11-08T18:00:00	7	Dirección del viento	3.22
169823	7	Sololá	719	Santiago Atitlán	14	Cerro de Oro	8	Agosto	2023-08-31T00:00:00	2024-11-08T18:00:00	1	Precipitación	0
169824	7	Sololá	719	Santiago Atitlán	14	Cerro de Oro	8	Agosto	2023-08-31T00:00:00	2024-11-08T18:00:00	8	Radiación solar	0
169825	7	Sololá	719	Santiago Atitlán	14	Cerro de Oro	8	Agosto	2023-08-31T00:00:00	2024-11-08T19:00:00	2	Temperatura media	19.9
169826	7	Sololá	719	Santiago Atitlán	14	Cerro de Oro	8	Agosto	2023-08-31T00:00:00	2024-11-08T19:00:00	4	Temperatura máxima	21.1
169827	7	Sololá	719	Santiago Atitlán	14	Cerro de Oro	8	Agosto	2023-08-31T00:00:00	2024-11-08T19:00:00	3	Temperatura mínima	19.9
169828	7	Sololá	719	Santiago Atitlán	14	Cerro de Oro	8	Agosto	2023-08-31T00:00:00	2024-11-08T19:00:00	5	Humedad	90
169829	7	Sololá	719	Santiago Atitlán	14	Cerro de Oro	8	Agosto	2023-08-31T00:00:00	2024-11-08T19:00:00	6	Velocidad del viento	3.2
169830	7	Sololá	719	Santiago Atitlán	14	Cerro de Oro	8	Agosto	2023-08-31T00:00:00	2024-11-08T19:00:00	7	Dirección del viento	3.22
169831	7	Sololá	719	Santiago Atitlán	14	Cerro de Oro	8	Agosto	2023-08-31T00:00:00	2024-11-08T19:00:00	1	Precipitación	0.8
169832	7	Sololá	719	Santiago Atitlán	14	Cerro de Oro	8	Agosto	2023-08-31T00:00:00	2024-11-08T19:00:00	8	Radiación solar	0
169833	7	Sololá	719	Santiago Atitlán	14	Cerro de Oro	8	Agosto	2023-08-31T00:00:00	2024-11-08T20:00:00	2	Temperatura media	19.4
169834	7	Sololá	719	Santiago Atitlán	14	Cerro de Oro	8	Agosto	2023-08-31T00:00:00	2024-11-08T20:00:00	4	Temperatura máxima	20
169835	7	Sololá	719	Santiago Atitlán	14	Cerro de Oro	8	Agosto	2023-08-31T00:00:00	2024-11-08T20:00:00	3	Temperatura mínima	19.4
169836	7	Sololá	719	Santiago Atitlán	14	Cerro de Oro	8	Agosto	2023-08-31T00:00:00	2024-11-08T20:00:00	5	Humedad	89
169837	7	Sololá	719	Santiago Atitlán	14	Cerro de Oro	8	Agosto	2023-08-31T00:00:00	2024-11-08T20:00:00	6	Velocidad del viento	3.2
169838	7	Sololá	719	Santiago Atitlán	14	Cerro de Oro	8	Agosto	2023-08-31T00:00:00	2024-11-08T20:00:00	7	Dirección del viento	3.22
169839	7	Sololá	719	Santiago Atitlán	14	Cerro de Oro	8	Agosto	2023-08-31T00:00:00	2024-11-08T20:00:00	1	Precipitación	1.4
169840	7	Sololá	719	Santiago Atitlán	14	Cerro de Oro	8	Agosto	2023-08-31T00:00:00	2024-11-08T20:00:00	8	Radiación solar	0
169841	7	Sololá	719	Santiago Atitlán	14	Cerro de Oro	8	Agosto	2023-08-31T00:00:00	2024-11-08T21:00:00	2	Temperatura media	19.3
169842	7	Sololá	719	Santiago Atitlán	14	Cerro de Oro	8	Agosto	2023-08-31T00:00:00	2024-11-08T21:00:00	4	Temperatura máxima	19.5
169843	7	Sololá	719	Santiago Atitlán	14	Cerro de Oro	8	Agosto	2023-08-31T00:00:00	2024-11-08T21:00:00	3	Temperatura mínima	19.2
169844	7	Sololá	719	Santiago Atitlán	14	Cerro de Oro	8	Agosto	2023-08-31T00:00:00	2024-11-08T21:00:00	5	Humedad	90
169845	7	Sololá	719	Santiago Atitlán	14	Cerro de Oro	8	Agosto	2023-08-31T00:00:00	2024-11-08T21:00:00	6	Velocidad del viento	3.2
169846	7	Sololá	719	Santiago Atitlán	14	Cerro de Oro	8	Agosto	2023-08-31T00:00:00	2024-11-08T21:00:00	7	Dirección del viento	3.22
169847	7	Sololá	719	Santiago Atitlán	14	Cerro de Oro	8	Agosto	2023-08-31T00:00:00	2024-11-08T21:00:00	1	Precipitación	0
169848	7	Sololá	719	Santiago Atitlán	14	Cerro de Oro	8	Agosto	2023-08-31T00:00:00	2024-11-08T21:00:00	8	Radiación solar	0
169849	7	Sololá	719	Santiago Atitlán	14	Cerro de Oro	8	Agosto	2023-08-31T00:00:00	2024-11-08T22:00:00	2	Temperatura media	19.1
169850	7	Sololá	719	Santiago Atitlán	14	Cerro de Oro	8	Agosto	2023-08-31T00:00:00	2024-11-08T22:00:00	4	Temperatura máxima	19.3
169851	7	Sololá	719	Santiago Atitlán	14	Cerro de Oro	8	Agosto	2023-08-31T00:00:00	2024-11-08T22:00:00	3	Temperatura mínima	18.7
169852	7	Sololá	719	Santiago Atitlán	14	Cerro de Oro	8	Agosto	2023-08-31T00:00:00	2024-11-08T22:00:00	5	Humedad	89
169853	7	Sololá	719	Santiago Atitlán	14	Cerro de Oro	8	Agosto	2023-08-31T00:00:00	2024-11-08T22:00:00	6	Velocidad del viento	4.8
169854	7	Sololá	719	Santiago Atitlán	14	Cerro de Oro	8	Agosto	2023-08-31T00:00:00	2024-11-08T22:00:00	7	Dirección del viento	4.83
169855	7	Sololá	719	Santiago Atitlán	14	Cerro de Oro	8	Agosto	2023-08-31T00:00:00	2024-11-08T22:00:00	1	Precipitación	0
169856	7	Sololá	719	Santiago Atitlán	14	Cerro de Oro	8	Agosto	2023-08-31T00:00:00	2024-11-08T22:00:00	8	Radiación solar	0
169857	7	Sololá	719	Santiago Atitlán	14	Cerro de Oro	8	Agosto	2023-08-31T00:00:00	2024-11-08T23:00:00	2	Temperatura media	18.7
169858	7	Sololá	719	Santiago Atitlán	14	Cerro de Oro	8	Agosto	2023-08-31T00:00:00	2024-11-08T23:00:00	4	Temperatura máxima	19.3
169859	7	Sololá	719	Santiago Atitlán	14	Cerro de Oro	8	Agosto	2023-08-31T00:00:00	2024-11-08T23:00:00	3	Temperatura mínima	18.6
169860	7	Sololá	719	Santiago Atitlán	14	Cerro de Oro	8	Agosto	2023-08-31T00:00:00	2024-11-08T23:00:00	5	Humedad	91
169861	7	Sololá	719	Santiago Atitlán	14	Cerro de Oro	8	Agosto	2023-08-31T00:00:00	2024-11-08T23:00:00	6	Velocidad del viento	6.4
169862	7	Sololá	719	Santiago Atitlán	14	Cerro de Oro	8	Agosto	2023-08-31T00:00:00	2024-11-08T23:00:00	7	Dirección del viento	6.44
169863	7	Sololá	719	Santiago Atitlán	14	Cerro de Oro	8	Agosto	2023-08-31T00:00:00	2024-11-08T23:00:00	1	Precipitación	0
169864	7	Sololá	719	Santiago Atitlán	14	Cerro de Oro	8	Agosto	2023-08-31T00:00:00	2024-11-08T23:00:00	8	Radiación solar	0
169865	7	Sololá	719	Santiago Atitlán	14	Cerro de Oro	9	Septiembre	2023-01-09T00:00:00	2024-11-08T00:00:00	2	Temperatura media	18.8
169866	7	Sololá	719	Santiago Atitlán	14	Cerro de Oro	9	Septiembre	2023-01-09T00:00:00	2024-11-08T00:00:00	4	Temperatura máxima	19.1
169867	7	Sololá	719	Santiago Atitlán	14	Cerro de Oro	9	Septiembre	2023-01-09T00:00:00	2024-11-08T00:00:00	3	Temperatura mínima	18.6
169868	7	Sololá	719	Santiago Atitlán	14	Cerro de Oro	9	Septiembre	2023-01-09T00:00:00	2024-11-08T00:00:00	5	Humedad	91
169869	7	Sololá	719	Santiago Atitlán	14	Cerro de Oro	9	Septiembre	2023-01-09T00:00:00	2024-11-08T00:00:00	6	Velocidad del viento	4.8
169870	7	Sololá	719	Santiago Atitlán	14	Cerro de Oro	9	Septiembre	2023-01-09T00:00:00	2024-11-08T00:00:00	7	Dirección del viento	4.83
169871	7	Sololá	719	Santiago Atitlán	14	Cerro de Oro	9	Septiembre	2023-01-09T00:00:00	2024-11-08T00:00:00	1	Precipitación	0
169872	7	Sololá	719	Santiago Atitlán	14	Cerro de Oro	9	Septiembre	2023-01-09T00:00:00	2024-11-08T00:00:00	8	Radiación solar	0
169873	7	Sololá	719	Santiago Atitlán	14	Cerro de Oro	9	Septiembre	2023-01-09T00:00:00	2024-11-08T01:00:00	2	Temperatura media	18.9
169874	7	Sololá	719	Santiago Atitlán	14	Cerro de Oro	9	Septiembre	2023-01-09T00:00:00	2024-11-08T01:00:00	4	Temperatura máxima	19.2
169875	7	Sololá	719	Santiago Atitlán	14	Cerro de Oro	9	Septiembre	2023-01-09T00:00:00	2024-11-08T01:00:00	3	Temperatura mínima	18.7
169876	7	Sololá	719	Santiago Atitlán	14	Cerro de Oro	9	Septiembre	2023-01-09T00:00:00	2024-11-08T01:00:00	5	Humedad	78
169877	7	Sololá	719	Santiago Atitlán	14	Cerro de Oro	9	Septiembre	2023-01-09T00:00:00	2024-11-08T01:00:00	6	Velocidad del viento	6.4
169878	7	Sololá	719	Santiago Atitlán	14	Cerro de Oro	9	Septiembre	2023-01-09T00:00:00	2024-11-08T01:00:00	7	Dirección del viento	6.44
169879	7	Sololá	719	Santiago Atitlán	14	Cerro de Oro	9	Septiembre	2023-01-09T00:00:00	2024-11-08T01:00:00	1	Precipitación	0
169880	7	Sololá	719	Santiago Atitlán	14	Cerro de Oro	9	Septiembre	2023-01-09T00:00:00	2024-11-08T01:00:00	8	Radiación solar	0
169881	7	Sololá	719	Santiago Atitlán	14	Cerro de Oro	9	Septiembre	2023-01-09T00:00:00	2024-11-08T02:00:00	2	Temperatura media	19.3
169882	7	Sololá	719	Santiago Atitlán	14	Cerro de Oro	9	Septiembre	2023-01-09T00:00:00	2024-11-08T02:00:00	4	Temperatura máxima	19.4
169883	7	Sololá	719	Santiago Atitlán	14	Cerro de Oro	9	Septiembre	2023-01-09T00:00:00	2024-11-08T02:00:00	3	Temperatura mínima	18.8
169884	7	Sololá	719	Santiago Atitlán	14	Cerro de Oro	9	Septiembre	2023-01-09T00:00:00	2024-11-08T02:00:00	5	Humedad	74
169885	7	Sololá	719	Santiago Atitlán	14	Cerro de Oro	9	Septiembre	2023-01-09T00:00:00	2024-11-08T02:00:00	6	Velocidad del viento	4.8
169886	7	Sololá	719	Santiago Atitlán	14	Cerro de Oro	9	Septiembre	2023-01-09T00:00:00	2024-11-08T02:00:00	7	Dirección del viento	4.83
169887	7	Sololá	719	Santiago Atitlán	14	Cerro de Oro	9	Septiembre	2023-01-09T00:00:00	2024-11-08T02:00:00	1	Precipitación	0
169888	7	Sololá	719	Santiago Atitlán	14	Cerro de Oro	9	Septiembre	2023-01-09T00:00:00	2024-11-08T02:00:00	8	Radiación solar	0
169889	7	Sololá	719	Santiago Atitlán	14	Cerro de Oro	9	Septiembre	2023-01-09T00:00:00	2024-11-08T03:00:00	2	Temperatura media	18.9
169890	7	Sololá	719	Santiago Atitlán	14	Cerro de Oro	9	Septiembre	2023-01-09T00:00:00	2024-11-08T03:00:00	4	Temperatura máxima	19.3
169891	7	Sololá	719	Santiago Atitlán	14	Cerro de Oro	9	Septiembre	2023-01-09T00:00:00	2024-11-08T03:00:00	3	Temperatura mínima	18.6
169892	7	Sololá	719	Santiago Atitlán	14	Cerro de Oro	9	Septiembre	2023-01-09T00:00:00	2024-11-08T03:00:00	5	Humedad	79
169893	7	Sololá	719	Santiago Atitlán	14	Cerro de Oro	9	Septiembre	2023-01-09T00:00:00	2024-11-08T03:00:00	6	Velocidad del viento	3.2
169894	7	Sololá	719	Santiago Atitlán	14	Cerro de Oro	9	Septiembre	2023-01-09T00:00:00	2024-11-08T03:00:00	7	Dirección del viento	3.22
169895	7	Sololá	719	Santiago Atitlán	14	Cerro de Oro	9	Septiembre	2023-01-09T00:00:00	2024-11-08T03:00:00	1	Precipitación	0
169896	7	Sololá	719	Santiago Atitlán	14	Cerro de Oro	9	Septiembre	2023-01-09T00:00:00	2024-11-08T03:00:00	8	Radiación solar	0
169897	7	Sololá	719	Santiago Atitlán	14	Cerro de Oro	9	Septiembre	2023-01-09T00:00:00	2024-11-08T04:00:00	2	Temperatura media	18.4
169898	7	Sololá	719	Santiago Atitlán	14	Cerro de Oro	9	Septiembre	2023-01-09T00:00:00	2024-11-08T04:00:00	4	Temperatura máxima	18.9
169899	7	Sololá	719	Santiago Atitlán	14	Cerro de Oro	9	Septiembre	2023-01-09T00:00:00	2024-11-08T04:00:00	3	Temperatura mínima	18.2
169900	7	Sololá	719	Santiago Atitlán	14	Cerro de Oro	9	Septiembre	2023-01-09T00:00:00	2024-11-08T04:00:00	5	Humedad	82
169901	7	Sololá	719	Santiago Atitlán	14	Cerro de Oro	9	Septiembre	2023-01-09T00:00:00	2024-11-08T04:00:00	6	Velocidad del viento	3.2
169902	7	Sololá	719	Santiago Atitlán	14	Cerro de Oro	9	Septiembre	2023-01-09T00:00:00	2024-11-08T04:00:00	7	Dirección del viento	3.22
169903	7	Sololá	719	Santiago Atitlán	14	Cerro de Oro	9	Septiembre	2023-01-09T00:00:00	2024-11-08T04:00:00	1	Precipitación	0
169904	7	Sololá	719	Santiago Atitlán	14	Cerro de Oro	9	Septiembre	2023-01-09T00:00:00	2024-11-08T04:00:00	8	Radiación solar	0
169905	7	Sololá	719	Santiago Atitlán	14	Cerro de Oro	9	Septiembre	2023-01-09T00:00:00	2024-11-08T05:00:00	2	Temperatura media	18.7
169906	7	Sololá	719	Santiago Atitlán	14	Cerro de Oro	9	Septiembre	2023-01-09T00:00:00	2024-11-08T05:00:00	4	Temperatura máxima	18.8
169907	7	Sololá	719	Santiago Atitlán	14	Cerro de Oro	9	Septiembre	2023-01-09T00:00:00	2024-11-08T05:00:00	3	Temperatura mínima	18.1
169908	7	Sololá	719	Santiago Atitlán	14	Cerro de Oro	9	Septiembre	2023-01-09T00:00:00	2024-11-08T05:00:00	5	Humedad	75
169909	7	Sololá	719	Santiago Atitlán	14	Cerro de Oro	9	Septiembre	2023-01-09T00:00:00	2024-11-08T05:00:00	6	Velocidad del viento	4.8
169910	7	Sololá	719	Santiago Atitlán	14	Cerro de Oro	9	Septiembre	2023-01-09T00:00:00	2024-11-08T05:00:00	7	Dirección del viento	4.83
169911	7	Sololá	719	Santiago Atitlán	14	Cerro de Oro	9	Septiembre	2023-01-09T00:00:00	2024-11-08T05:00:00	1	Precipitación	0
169912	7	Sololá	719	Santiago Atitlán	14	Cerro de Oro	9	Septiembre	2023-01-09T00:00:00	2024-11-08T05:00:00	8	Radiación solar	0
169913	7	Sololá	719	Santiago Atitlán	14	Cerro de Oro	9	Septiembre	2023-01-09T00:00:00	2024-11-08T06:00:00	2	Temperatura media	18.3
169914	7	Sololá	719	Santiago Atitlán	14	Cerro de Oro	9	Septiembre	2023-01-09T00:00:00	2024-11-08T06:00:00	4	Temperatura máxima	18.6
169915	7	Sololá	719	Santiago Atitlán	14	Cerro de Oro	9	Septiembre	2023-01-09T00:00:00	2024-11-08T06:00:00	3	Temperatura mínima	17.7
169916	7	Sololá	719	Santiago Atitlán	14	Cerro de Oro	9	Septiembre	2023-01-09T00:00:00	2024-11-08T06:00:00	5	Humedad	80
169917	7	Sololá	719	Santiago Atitlán	14	Cerro de Oro	9	Septiembre	2023-01-09T00:00:00	2024-11-08T06:00:00	6	Velocidad del viento	4.8
169918	7	Sololá	719	Santiago Atitlán	14	Cerro de Oro	9	Septiembre	2023-01-09T00:00:00	2024-11-08T06:00:00	7	Dirección del viento	4.83
169919	7	Sololá	719	Santiago Atitlán	14	Cerro de Oro	9	Septiembre	2023-01-09T00:00:00	2024-11-08T06:00:00	1	Precipitación	0
169920	7	Sololá	719	Santiago Atitlán	14	Cerro de Oro	9	Septiembre	2023-01-09T00:00:00	2024-11-08T06:00:00	8	Radiación solar	1
169921	7	Sololá	719	Santiago Atitlán	14	Cerro de Oro	9	Septiembre	2023-01-09T00:00:00	2024-11-08T07:00:00	2	Temperatura media	20.3
169922	7	Sololá	719	Santiago Atitlán	14	Cerro de Oro	9	Septiembre	2023-01-09T00:00:00	2024-11-08T07:00:00	4	Temperatura máxima	20.3
169923	7	Sololá	719	Santiago Atitlán	14	Cerro de Oro	9	Septiembre	2023-01-09T00:00:00	2024-11-08T07:00:00	3	Temperatura mínima	18.3
169924	7	Sololá	719	Santiago Atitlán	14	Cerro de Oro	9	Septiembre	2023-01-09T00:00:00	2024-11-08T07:00:00	5	Humedad	77
169925	7	Sololá	719	Santiago Atitlán	14	Cerro de Oro	9	Septiembre	2023-01-09T00:00:00	2024-11-08T07:00:00	6	Velocidad del viento	3.2
169926	7	Sololá	719	Santiago Atitlán	14	Cerro de Oro	9	Septiembre	2023-01-09T00:00:00	2024-11-08T07:00:00	7	Dirección del viento	3.22
169927	7	Sololá	719	Santiago Atitlán	14	Cerro de Oro	9	Septiembre	2023-01-09T00:00:00	2024-11-08T07:00:00	1	Precipitación	0
169928	7	Sololá	719	Santiago Atitlán	14	Cerro de Oro	9	Septiembre	2023-01-09T00:00:00	2024-11-08T07:00:00	8	Radiación solar	79
169929	7	Sololá	719	Santiago Atitlán	14	Cerro de Oro	9	Septiembre	2023-01-09T00:00:00	2024-11-08T08:00:00	2	Temperatura media	22.9
169930	7	Sololá	719	Santiago Atitlán	14	Cerro de Oro	9	Septiembre	2023-01-09T00:00:00	2024-11-08T08:00:00	4	Temperatura máxima	22.9
169931	7	Sololá	719	Santiago Atitlán	14	Cerro de Oro	9	Septiembre	2023-01-09T00:00:00	2024-11-08T08:00:00	3	Temperatura mínima	20.2
169932	7	Sololá	719	Santiago Atitlán	14	Cerro de Oro	9	Septiembre	2023-01-09T00:00:00	2024-11-08T08:00:00	5	Humedad	62
169933	7	Sololá	719	Santiago Atitlán	14	Cerro de Oro	9	Septiembre	2023-01-09T00:00:00	2024-11-08T08:00:00	6	Velocidad del viento	3.2
169934	7	Sololá	719	Santiago Atitlán	14	Cerro de Oro	9	Septiembre	2023-01-09T00:00:00	2024-11-08T08:00:00	7	Dirección del viento	3.22
169935	7	Sololá	719	Santiago Atitlán	14	Cerro de Oro	9	Septiembre	2023-01-09T00:00:00	2024-11-08T08:00:00	1	Precipitación	0
169936	7	Sololá	719	Santiago Atitlán	14	Cerro de Oro	9	Septiembre	2023-01-09T00:00:00	2024-11-08T08:00:00	8	Radiación solar	243
169937	7	Sololá	719	Santiago Atitlán	14	Cerro de Oro	9	Septiembre	2023-01-09T00:00:00	2024-11-08T09:00:00	2	Temperatura media	25.6
169938	7	Sololá	719	Santiago Atitlán	14	Cerro de Oro	9	Septiembre	2023-01-09T00:00:00	2024-11-08T09:00:00	4	Temperatura máxima	25.6
169939	7	Sololá	719	Santiago Atitlán	14	Cerro de Oro	9	Septiembre	2023-01-09T00:00:00	2024-11-08T09:00:00	3	Temperatura mínima	23
169940	7	Sololá	719	Santiago Atitlán	14	Cerro de Oro	9	Septiembre	2023-01-09T00:00:00	2024-11-08T09:00:00	5	Humedad	52
169941	7	Sololá	719	Santiago Atitlán	14	Cerro de Oro	9	Septiembre	2023-01-09T00:00:00	2024-11-08T09:00:00	6	Velocidad del viento	3.2
169942	7	Sololá	719	Santiago Atitlán	14	Cerro de Oro	9	Septiembre	2023-01-09T00:00:00	2024-11-08T09:00:00	7	Dirección del viento	3.22
169943	7	Sololá	719	Santiago Atitlán	14	Cerro de Oro	9	Septiembre	2023-01-09T00:00:00	2024-11-08T09:00:00	1	Precipitación	0
169944	7	Sololá	719	Santiago Atitlán	14	Cerro de Oro	9	Septiembre	2023-01-09T00:00:00	2024-11-08T09:00:00	8	Radiación solar	414
169945	7	Sololá	719	Santiago Atitlán	14	Cerro de Oro	9	Septiembre	2023-01-09T00:00:00	2024-11-08T10:00:00	2	Temperatura media	26.8
169946	7	Sololá	719	Santiago Atitlán	14	Cerro de Oro	9	Septiembre	2023-01-09T00:00:00	2024-11-08T10:00:00	4	Temperatura máxima	26.8
169947	7	Sololá	719	Santiago Atitlán	14	Cerro de Oro	9	Septiembre	2023-01-09T00:00:00	2024-11-08T10:00:00	3	Temperatura mínima	25.6
169948	7	Sololá	719	Santiago Atitlán	14	Cerro de Oro	9	Septiembre	2023-01-09T00:00:00	2024-11-08T10:00:00	5	Humedad	51
169949	7	Sololá	719	Santiago Atitlán	14	Cerro de Oro	9	Septiembre	2023-01-09T00:00:00	2024-11-08T10:00:00	6	Velocidad del viento	3.2
169950	7	Sololá	719	Santiago Atitlán	14	Cerro de Oro	9	Septiembre	2023-01-09T00:00:00	2024-11-08T10:00:00	7	Dirección del viento	3.22
169951	7	Sololá	719	Santiago Atitlán	14	Cerro de Oro	9	Septiembre	2023-01-09T00:00:00	2024-11-08T10:00:00	1	Precipitación	0
169952	7	Sololá	719	Santiago Atitlán	14	Cerro de Oro	9	Septiembre	2023-01-09T00:00:00	2024-11-08T10:00:00	8	Radiación solar	595
169953	7	Sololá	719	Santiago Atitlán	14	Cerro de Oro	9	Septiembre	2023-01-09T00:00:00	2024-11-08T11:00:00	2	Temperatura media	27.3
169954	7	Sololá	719	Santiago Atitlán	14	Cerro de Oro	9	Septiembre	2023-01-09T00:00:00	2024-11-08T11:00:00	4	Temperatura máxima	27.3
169955	7	Sololá	719	Santiago Atitlán	14	Cerro de Oro	9	Septiembre	2023-01-09T00:00:00	2024-11-08T11:00:00	3	Temperatura mínima	26.7
169956	7	Sololá	719	Santiago Atitlán	14	Cerro de Oro	9	Septiembre	2023-01-09T00:00:00	2024-11-08T11:00:00	5	Humedad	47
169957	7	Sololá	719	Santiago Atitlán	14	Cerro de Oro	9	Septiembre	2023-01-09T00:00:00	2024-11-08T11:00:00	6	Velocidad del viento	4.8
169958	7	Sololá	719	Santiago Atitlán	14	Cerro de Oro	9	Septiembre	2023-01-09T00:00:00	2024-11-08T11:00:00	7	Dirección del viento	4.83
169959	7	Sololá	719	Santiago Atitlán	14	Cerro de Oro	9	Septiembre	2023-01-09T00:00:00	2024-11-08T11:00:00	1	Precipitación	0
169960	7	Sololá	719	Santiago Atitlán	14	Cerro de Oro	9	Septiembre	2023-01-09T00:00:00	2024-11-08T11:00:00	8	Radiación solar	842
169961	7	Sololá	719	Santiago Atitlán	14	Cerro de Oro	9	Septiembre	2023-01-09T00:00:00	2024-11-08T12:00:00	2	Temperatura media	27.3
169962	7	Sololá	719	Santiago Atitlán	14	Cerro de Oro	9	Septiembre	2023-01-09T00:00:00	2024-11-08T12:00:00	4	Temperatura máxima	27.6
169963	7	Sololá	719	Santiago Atitlán	14	Cerro de Oro	9	Septiembre	2023-01-09T00:00:00	2024-11-08T12:00:00	3	Temperatura mínima	27.2
169964	7	Sololá	719	Santiago Atitlán	14	Cerro de Oro	9	Septiembre	2023-01-09T00:00:00	2024-11-08T12:00:00	5	Humedad	59
169965	7	Sololá	719	Santiago Atitlán	14	Cerro de Oro	9	Septiembre	2023-01-09T00:00:00	2024-11-08T12:00:00	6	Velocidad del viento	8
169966	7	Sololá	719	Santiago Atitlán	14	Cerro de Oro	9	Septiembre	2023-01-09T00:00:00	2024-11-08T12:00:00	7	Dirección del viento	8.05
169967	7	Sololá	719	Santiago Atitlán	14	Cerro de Oro	9	Septiembre	2023-01-09T00:00:00	2024-11-08T12:00:00	1	Precipitación	0
169968	7	Sololá	719	Santiago Atitlán	14	Cerro de Oro	9	Septiembre	2023-01-09T00:00:00	2024-11-08T12:00:00	8	Radiación solar	928
169969	7	Sololá	719	Santiago Atitlán	14	Cerro de Oro	9	Septiembre	2023-01-09T00:00:00	2024-11-08T13:00:00	2	Temperatura media	26
169970	7	Sololá	719	Santiago Atitlán	14	Cerro de Oro	9	Septiembre	2023-01-09T00:00:00	2024-11-08T13:00:00	4	Temperatura máxima	27.4
169971	7	Sololá	719	Santiago Atitlán	14	Cerro de Oro	9	Septiembre	2023-01-09T00:00:00	2024-11-08T13:00:00	3	Temperatura mínima	26
169972	7	Sololá	719	Santiago Atitlán	14	Cerro de Oro	9	Septiembre	2023-01-09T00:00:00	2024-11-08T13:00:00	5	Humedad	71
169973	7	Sololá	719	Santiago Atitlán	14	Cerro de Oro	9	Septiembre	2023-01-09T00:00:00	2024-11-08T13:00:00	6	Velocidad del viento	11.3
169974	7	Sololá	719	Santiago Atitlán	14	Cerro de Oro	9	Septiembre	2023-01-09T00:00:00	2024-11-08T13:00:00	7	Dirección del viento	11.27
169975	7	Sololá	719	Santiago Atitlán	14	Cerro de Oro	9	Septiembre	2023-01-09T00:00:00	2024-11-08T13:00:00	1	Precipitación	0
169976	7	Sololá	719	Santiago Atitlán	14	Cerro de Oro	9	Septiembre	2023-01-09T00:00:00	2024-11-08T13:00:00	8	Radiación solar	948
169977	7	Sololá	719	Santiago Atitlán	14	Cerro de Oro	9	Septiembre	2023-01-09T00:00:00	2024-11-08T14:00:00	2	Temperatura media	25
169978	7	Sololá	719	Santiago Atitlán	14	Cerro de Oro	9	Septiembre	2023-01-09T00:00:00	2024-11-08T14:00:00	4	Temperatura máxima	26
169979	7	Sololá	719	Santiago Atitlán	14	Cerro de Oro	9	Septiembre	2023-01-09T00:00:00	2024-11-08T14:00:00	3	Temperatura mínima	24.3
169980	7	Sololá	719	Santiago Atitlán	14	Cerro de Oro	9	Septiembre	2023-01-09T00:00:00	2024-11-08T14:00:00	5	Humedad	74
169981	7	Sololá	719	Santiago Atitlán	14	Cerro de Oro	9	Septiembre	2023-01-09T00:00:00	2024-11-08T14:00:00	6	Velocidad del viento	14.5
169982	7	Sololá	719	Santiago Atitlán	14	Cerro de Oro	9	Septiembre	2023-01-09T00:00:00	2024-11-08T14:00:00	7	Dirección del viento	14.48
169983	7	Sololá	719	Santiago Atitlán	14	Cerro de Oro	9	Septiembre	2023-01-09T00:00:00	2024-11-08T14:00:00	1	Precipitación	0
169984	7	Sololá	719	Santiago Atitlán	14	Cerro de Oro	9	Septiembre	2023-01-09T00:00:00	2024-11-08T14:00:00	8	Radiación solar	910
169985	7	Sololá	719	Santiago Atitlán	14	Cerro de Oro	9	Septiembre	2023-01-09T00:00:00	2024-11-08T15:00:00	2	Temperatura media	24.6
169986	7	Sololá	719	Santiago Atitlán	14	Cerro de Oro	9	Septiembre	2023-01-09T00:00:00	2024-11-08T15:00:00	4	Temperatura máxima	25.1
169987	7	Sololá	719	Santiago Atitlán	14	Cerro de Oro	9	Septiembre	2023-01-09T00:00:00	2024-11-08T15:00:00	3	Temperatura mínima	24.2
169988	7	Sololá	719	Santiago Atitlán	14	Cerro de Oro	9	Septiembre	2023-01-09T00:00:00	2024-11-08T15:00:00	5	Humedad	77
169989	7	Sololá	719	Santiago Atitlán	14	Cerro de Oro	9	Septiembre	2023-01-09T00:00:00	2024-11-08T15:00:00	6	Velocidad del viento	12.9
169990	7	Sololá	719	Santiago Atitlán	14	Cerro de Oro	9	Septiembre	2023-01-09T00:00:00	2024-11-08T15:00:00	7	Dirección del viento	12.87
169991	7	Sololá	719	Santiago Atitlán	14	Cerro de Oro	9	Septiembre	2023-01-09T00:00:00	2024-11-08T15:00:00	1	Precipitación	0
169992	7	Sololá	719	Santiago Atitlán	14	Cerro de Oro	9	Septiembre	2023-01-09T00:00:00	2024-11-08T15:00:00	8	Radiación solar	735
169993	7	Sololá	719	Santiago Atitlán	14	Cerro de Oro	9	Septiembre	2023-01-09T00:00:00	2024-11-08T16:00:00	2	Temperatura media	22.9
169994	7	Sololá	719	Santiago Atitlán	14	Cerro de Oro	9	Septiembre	2023-01-09T00:00:00	2024-11-08T16:00:00	4	Temperatura máxima	24.6
169995	7	Sololá	719	Santiago Atitlán	14	Cerro de Oro	9	Septiembre	2023-01-09T00:00:00	2024-11-08T16:00:00	3	Temperatura mínima	22.9
169996	7	Sololá	719	Santiago Atitlán	14	Cerro de Oro	9	Septiembre	2023-01-09T00:00:00	2024-11-08T16:00:00	5	Humedad	81
169997	7	Sololá	719	Santiago Atitlán	14	Cerro de Oro	9	Septiembre	2023-01-09T00:00:00	2024-11-08T16:00:00	6	Velocidad del viento	11.3
169998	7	Sololá	719	Santiago Atitlán	14	Cerro de Oro	9	Septiembre	2023-01-09T00:00:00	2024-11-08T16:00:00	7	Dirección del viento	11.27
169999	7	Sololá	719	Santiago Atitlán	14	Cerro de Oro	9	Septiembre	2023-01-09T00:00:00	2024-11-08T16:00:00	1	Precipitación	0
170000	7	Sololá	719	Santiago Atitlán	14	Cerro de Oro	9	Septiembre	2023-01-09T00:00:00	2024-11-08T16:00:00	8	Radiación solar	420
170001	7	Sololá	719	Santiago Atitlán	14	Cerro de Oro	9	Septiembre	2023-01-09T00:00:00	2024-11-08T17:00:00	2	Temperatura media	21.6
170002	7	Sololá	719	Santiago Atitlán	14	Cerro de Oro	9	Septiembre	2023-01-09T00:00:00	2024-11-08T17:00:00	4	Temperatura máxima	23.3
170003	7	Sololá	719	Santiago Atitlán	14	Cerro de Oro	9	Septiembre	2023-01-09T00:00:00	2024-11-08T17:00:00	3	Temperatura mínima	21.6
170004	7	Sololá	719	Santiago Atitlán	14	Cerro de Oro	9	Septiembre	2023-01-09T00:00:00	2024-11-08T17:00:00	5	Humedad	85
170005	7	Sololá	719	Santiago Atitlán	14	Cerro de Oro	9	Septiembre	2023-01-09T00:00:00	2024-11-08T17:00:00	6	Velocidad del viento	8
170006	7	Sololá	719	Santiago Atitlán	14	Cerro de Oro	9	Septiembre	2023-01-09T00:00:00	2024-11-08T17:00:00	7	Dirección del viento	8.05
170007	7	Sololá	719	Santiago Atitlán	14	Cerro de Oro	9	Septiembre	2023-01-09T00:00:00	2024-11-08T17:00:00	1	Precipitación	0
170008	7	Sololá	719	Santiago Atitlán	14	Cerro de Oro	9	Septiembre	2023-01-09T00:00:00	2024-11-08T17:00:00	8	Radiación solar	101
170009	7	Sololá	719	Santiago Atitlán	14	Cerro de Oro	9	Septiembre	2023-01-09T00:00:00	2024-11-08T18:00:00	2	Temperatura media	21.2
170010	7	Sololá	719	Santiago Atitlán	14	Cerro de Oro	9	Septiembre	2023-01-09T00:00:00	2024-11-08T18:00:00	4	Temperatura máxima	21.6
170011	7	Sololá	719	Santiago Atitlán	14	Cerro de Oro	9	Septiembre	2023-01-09T00:00:00	2024-11-08T18:00:00	3	Temperatura mínima	21.2
170012	7	Sololá	719	Santiago Atitlán	14	Cerro de Oro	9	Septiembre	2023-01-09T00:00:00	2024-11-08T18:00:00	5	Humedad	86
170013	7	Sololá	719	Santiago Atitlán	14	Cerro de Oro	9	Septiembre	2023-01-09T00:00:00	2024-11-08T18:00:00	6	Velocidad del viento	6.4
170014	7	Sololá	719	Santiago Atitlán	14	Cerro de Oro	9	Septiembre	2023-01-09T00:00:00	2024-11-08T18:00:00	7	Dirección del viento	6.44
170015	7	Sololá	719	Santiago Atitlán	14	Cerro de Oro	9	Septiembre	2023-01-09T00:00:00	2024-11-08T18:00:00	1	Precipitación	0
170016	7	Sololá	719	Santiago Atitlán	14	Cerro de Oro	9	Septiembre	2023-01-09T00:00:00	2024-11-08T18:00:00	8	Radiación solar	24
170017	7	Sololá	719	Santiago Atitlán	14	Cerro de Oro	9	Septiembre	2023-01-09T00:00:00	2024-11-08T19:00:00	2	Temperatura media	20.8
170018	7	Sololá	719	Santiago Atitlán	14	Cerro de Oro	9	Septiembre	2023-01-09T00:00:00	2024-11-08T19:00:00	4	Temperatura máxima	21.4
170019	7	Sololá	719	Santiago Atitlán	14	Cerro de Oro	9	Septiembre	2023-01-09T00:00:00	2024-11-08T19:00:00	3	Temperatura mínima	20.8
170020	7	Sololá	719	Santiago Atitlán	14	Cerro de Oro	9	Septiembre	2023-01-09T00:00:00	2024-11-08T19:00:00	5	Humedad	87
170021	7	Sololá	719	Santiago Atitlán	14	Cerro de Oro	9	Septiembre	2023-01-09T00:00:00	2024-11-08T19:00:00	6	Velocidad del viento	6.4
170022	7	Sololá	719	Santiago Atitlán	14	Cerro de Oro	9	Septiembre	2023-01-09T00:00:00	2024-11-08T19:00:00	7	Dirección del viento	6.44
170023	7	Sololá	719	Santiago Atitlán	14	Cerro de Oro	9	Septiembre	2023-01-09T00:00:00	2024-11-08T19:00:00	1	Precipitación	0
170024	7	Sololá	719	Santiago Atitlán	14	Cerro de Oro	9	Septiembre	2023-01-09T00:00:00	2024-11-08T19:00:00	8	Radiación solar	0
170025	7	Sololá	719	Santiago Atitlán	14	Cerro de Oro	9	Septiembre	2023-01-09T00:00:00	2024-11-08T20:00:00	2	Temperatura media	19.8
170026	7	Sololá	719	Santiago Atitlán	14	Cerro de Oro	9	Septiembre	2023-01-09T00:00:00	2024-11-08T20:00:00	4	Temperatura máxima	21.1
170027	7	Sololá	719	Santiago Atitlán	14	Cerro de Oro	9	Septiembre	2023-01-09T00:00:00	2024-11-08T20:00:00	3	Temperatura mínima	19.8
170028	7	Sololá	719	Santiago Atitlán	14	Cerro de Oro	9	Septiembre	2023-01-09T00:00:00	2024-11-08T20:00:00	5	Humedad	84
170029	7	Sololá	719	Santiago Atitlán	14	Cerro de Oro	9	Septiembre	2023-01-09T00:00:00	2024-11-08T20:00:00	6	Velocidad del viento	6.4
170030	7	Sololá	719	Santiago Atitlán	14	Cerro de Oro	9	Septiembre	2023-01-09T00:00:00	2024-11-08T20:00:00	7	Dirección del viento	6.44
170031	7	Sololá	719	Santiago Atitlán	14	Cerro de Oro	9	Septiembre	2023-01-09T00:00:00	2024-11-08T20:00:00	1	Precipitación	0.2
170032	7	Sololá	719	Santiago Atitlán	14	Cerro de Oro	9	Septiembre	2023-01-09T00:00:00	2024-11-08T20:00:00	8	Radiación solar	0
170033	7	Sololá	719	Santiago Atitlán	14	Cerro de Oro	9	Septiembre	2023-01-09T00:00:00	2024-11-08T21:00:00	2	Temperatura media	19.2
170034	7	Sololá	719	Santiago Atitlán	14	Cerro de Oro	9	Septiembre	2023-01-09T00:00:00	2024-11-08T21:00:00	4	Temperatura máxima	20.1
170035	7	Sololá	719	Santiago Atitlán	14	Cerro de Oro	9	Septiembre	2023-01-09T00:00:00	2024-11-08T21:00:00	3	Temperatura mínima	18.7
170036	7	Sololá	719	Santiago Atitlán	14	Cerro de Oro	9	Septiembre	2023-01-09T00:00:00	2024-11-08T21:00:00	5	Humedad	85
170037	7	Sololá	719	Santiago Atitlán	14	Cerro de Oro	9	Septiembre	2023-01-09T00:00:00	2024-11-08T21:00:00	6	Velocidad del viento	6.4
170038	7	Sololá	719	Santiago Atitlán	14	Cerro de Oro	9	Septiembre	2023-01-09T00:00:00	2024-11-08T21:00:00	7	Dirección del viento	6.44
170039	7	Sololá	719	Santiago Atitlán	14	Cerro de Oro	9	Septiembre	2023-01-09T00:00:00	2024-11-08T21:00:00	1	Precipitación	1.4
170040	7	Sololá	719	Santiago Atitlán	14	Cerro de Oro	9	Septiembre	2023-01-09T00:00:00	2024-11-08T21:00:00	8	Radiación solar	0
170041	7	Sololá	719	Santiago Atitlán	14	Cerro de Oro	9	Septiembre	2023-01-09T00:00:00	2024-11-08T22:00:00	2	Temperatura media	19.3
170042	7	Sololá	719	Santiago Atitlán	14	Cerro de Oro	9	Septiembre	2023-01-09T00:00:00	2024-11-08T22:00:00	4	Temperatura máxima	19.3
170043	7	Sololá	719	Santiago Atitlán	14	Cerro de Oro	9	Septiembre	2023-01-09T00:00:00	2024-11-08T22:00:00	3	Temperatura mínima	18.4
170044	7	Sololá	719	Santiago Atitlán	14	Cerro de Oro	9	Septiembre	2023-01-09T00:00:00	2024-11-08T22:00:00	5	Humedad	83
170045	7	Sololá	719	Santiago Atitlán	14	Cerro de Oro	9	Septiembre	2023-01-09T00:00:00	2024-11-08T22:00:00	6	Velocidad del viento	6.4
170046	7	Sololá	719	Santiago Atitlán	14	Cerro de Oro	9	Septiembre	2023-01-09T00:00:00	2024-11-08T22:00:00	7	Dirección del viento	6.44
170047	7	Sololá	719	Santiago Atitlán	14	Cerro de Oro	9	Septiembre	2023-01-09T00:00:00	2024-11-08T22:00:00	1	Precipitación	0
170048	7	Sololá	719	Santiago Atitlán	14	Cerro de Oro	9	Septiembre	2023-01-09T00:00:00	2024-11-08T22:00:00	8	Radiación solar	0
170049	7	Sololá	719	Santiago Atitlán	14	Cerro de Oro	9	Septiembre	2023-01-09T00:00:00	2024-11-08T23:00:00	2	Temperatura media	19.4
170050	7	Sololá	719	Santiago Atitlán	14	Cerro de Oro	9	Septiembre	2023-01-09T00:00:00	2024-11-08T23:00:00	4	Temperatura máxima	19.4
170051	7	Sololá	719	Santiago Atitlán	14	Cerro de Oro	9	Septiembre	2023-01-09T00:00:00	2024-11-08T23:00:00	3	Temperatura mínima	18.4
170052	7	Sololá	719	Santiago Atitlán	14	Cerro de Oro	9	Septiembre	2023-01-09T00:00:00	2024-11-08T23:00:00	5	Humedad	81
170053	7	Sololá	719	Santiago Atitlán	14	Cerro de Oro	9	Septiembre	2023-01-09T00:00:00	2024-11-08T23:00:00	6	Velocidad del viento	6.4
170054	7	Sololá	719	Santiago Atitlán	14	Cerro de Oro	9	Septiembre	2023-01-09T00:00:00	2024-11-08T23:00:00	7	Dirección del viento	6.44
170055	7	Sololá	719	Santiago Atitlán	14	Cerro de Oro	9	Septiembre	2023-01-09T00:00:00	2024-11-08T23:00:00	1	Precipitación	0
170056	7	Sololá	719	Santiago Atitlán	14	Cerro de Oro	9	Septiembre	2023-01-09T00:00:00	2024-11-08T23:00:00	8	Radiación solar	0
170057	7	Sololá	719	Santiago Atitlán	14	Cerro de Oro	9	Septiembre	2023-02-09T00:00:00	2024-11-08T00:00:00	2	Temperatura media	20.2
170058	7	Sololá	719	Santiago Atitlán	14	Cerro de Oro	9	Septiembre	2023-02-09T00:00:00	2024-11-08T00:00:00	4	Temperatura máxima	20.2
170059	7	Sololá	719	Santiago Atitlán	14	Cerro de Oro	9	Septiembre	2023-02-09T00:00:00	2024-11-08T00:00:00	3	Temperatura mínima	19.4
170060	7	Sololá	719	Santiago Atitlán	14	Cerro de Oro	9	Septiembre	2023-02-09T00:00:00	2024-11-08T00:00:00	5	Humedad	76
170061	7	Sololá	719	Santiago Atitlán	14	Cerro de Oro	9	Septiembre	2023-02-09T00:00:00	2024-11-08T00:00:00	6	Velocidad del viento	6.4
170062	7	Sololá	719	Santiago Atitlán	14	Cerro de Oro	9	Septiembre	2023-02-09T00:00:00	2024-11-08T00:00:00	7	Dirección del viento	6.44
170063	7	Sololá	719	Santiago Atitlán	14	Cerro de Oro	9	Septiembre	2023-02-09T00:00:00	2024-11-08T00:00:00	1	Precipitación	0
170064	7	Sololá	719	Santiago Atitlán	14	Cerro de Oro	9	Septiembre	2023-02-09T00:00:00	2024-11-08T00:00:00	8	Radiación solar	0
170065	7	Sololá	719	Santiago Atitlán	14	Cerro de Oro	9	Septiembre	2023-02-09T00:00:00	2024-11-08T01:00:00	2	Temperatura media	19.8
170066	7	Sololá	719	Santiago Atitlán	14	Cerro de Oro	9	Septiembre	2023-02-09T00:00:00	2024-11-08T01:00:00	4	Temperatura máxima	20.5
170067	7	Sololá	719	Santiago Atitlán	14	Cerro de Oro	9	Septiembre	2023-02-09T00:00:00	2024-11-08T01:00:00	3	Temperatura mínima	19.8
170068	7	Sololá	719	Santiago Atitlán	14	Cerro de Oro	9	Septiembre	2023-02-09T00:00:00	2024-11-08T01:00:00	5	Humedad	78
170069	7	Sololá	719	Santiago Atitlán	14	Cerro de Oro	9	Septiembre	2023-02-09T00:00:00	2024-11-08T01:00:00	6	Velocidad del viento	4.8
170070	7	Sololá	719	Santiago Atitlán	14	Cerro de Oro	9	Septiembre	2023-02-09T00:00:00	2024-11-08T01:00:00	7	Dirección del viento	4.83
170071	7	Sololá	719	Santiago Atitlán	14	Cerro de Oro	9	Septiembre	2023-02-09T00:00:00	2024-11-08T01:00:00	1	Precipitación	0
170072	7	Sololá	719	Santiago Atitlán	14	Cerro de Oro	9	Septiembre	2023-02-09T00:00:00	2024-11-08T01:00:00	8	Radiación solar	0
170073	7	Sololá	719	Santiago Atitlán	14	Cerro de Oro	9	Septiembre	2023-02-09T00:00:00	2024-11-08T02:00:00	2	Temperatura media	19.9
170074	7	Sololá	719	Santiago Atitlán	14	Cerro de Oro	9	Septiembre	2023-02-09T00:00:00	2024-11-08T02:00:00	4	Temperatura máxima	19.9
170075	7	Sololá	719	Santiago Atitlán	14	Cerro de Oro	9	Septiembre	2023-02-09T00:00:00	2024-11-08T02:00:00	3	Temperatura mínima	19.5
170076	7	Sololá	719	Santiago Atitlán	14	Cerro de Oro	9	Septiembre	2023-02-09T00:00:00	2024-11-08T02:00:00	5	Humedad	77
170077	7	Sololá	719	Santiago Atitlán	14	Cerro de Oro	9	Septiembre	2023-02-09T00:00:00	2024-11-08T02:00:00	6	Velocidad del viento	4.8
170078	7	Sololá	719	Santiago Atitlán	14	Cerro de Oro	9	Septiembre	2023-02-09T00:00:00	2024-11-08T02:00:00	7	Dirección del viento	4.83
170079	7	Sololá	719	Santiago Atitlán	14	Cerro de Oro	9	Septiembre	2023-02-09T00:00:00	2024-11-08T02:00:00	1	Precipitación	0
170080	7	Sololá	719	Santiago Atitlán	14	Cerro de Oro	9	Septiembre	2023-02-09T00:00:00	2024-11-08T02:00:00	8	Radiación solar	0
170081	7	Sololá	719	Santiago Atitlán	14	Cerro de Oro	9	Septiembre	2023-02-09T00:00:00	2024-11-08T03:00:00	2	Temperatura media	20.1
170082	7	Sololá	719	Santiago Atitlán	14	Cerro de Oro	9	Septiembre	2023-02-09T00:00:00	2024-11-08T03:00:00	4	Temperatura máxima	20.1
170083	7	Sololá	719	Santiago Atitlán	14	Cerro de Oro	9	Septiembre	2023-02-09T00:00:00	2024-11-08T03:00:00	3	Temperatura mínima	19.4
170084	7	Sololá	719	Santiago Atitlán	14	Cerro de Oro	9	Septiembre	2023-02-09T00:00:00	2024-11-08T03:00:00	5	Humedad	73
170085	7	Sololá	719	Santiago Atitlán	14	Cerro de Oro	9	Septiembre	2023-02-09T00:00:00	2024-11-08T03:00:00	6	Velocidad del viento	4.8
170086	7	Sololá	719	Santiago Atitlán	14	Cerro de Oro	9	Septiembre	2023-02-09T00:00:00	2024-11-08T03:00:00	7	Dirección del viento	4.83
170087	7	Sololá	719	Santiago Atitlán	14	Cerro de Oro	9	Septiembre	2023-02-09T00:00:00	2024-11-08T03:00:00	1	Precipitación	0
170088	7	Sololá	719	Santiago Atitlán	14	Cerro de Oro	9	Septiembre	2023-02-09T00:00:00	2024-11-08T03:00:00	8	Radiación solar	0
170089	7	Sololá	719	Santiago Atitlán	14	Cerro de Oro	9	Septiembre	2023-02-09T00:00:00	2024-11-08T04:00:00	2	Temperatura media	20.3
170090	7	Sololá	719	Santiago Atitlán	14	Cerro de Oro	9	Septiembre	2023-02-09T00:00:00	2024-11-08T04:00:00	4	Temperatura máxima	21.1
170091	7	Sololá	719	Santiago Atitlán	14	Cerro de Oro	9	Septiembre	2023-02-09T00:00:00	2024-11-08T04:00:00	3	Temperatura mínima	19.6
170092	7	Sololá	719	Santiago Atitlán	14	Cerro de Oro	9	Septiembre	2023-02-09T00:00:00	2024-11-08T04:00:00	5	Humedad	70
170093	7	Sololá	719	Santiago Atitlán	14	Cerro de Oro	9	Septiembre	2023-02-09T00:00:00	2024-11-08T04:00:00	6	Velocidad del viento	6.4
170094	7	Sololá	719	Santiago Atitlán	14	Cerro de Oro	9	Septiembre	2023-02-09T00:00:00	2024-11-08T04:00:00	7	Dirección del viento	6.44
170095	7	Sololá	719	Santiago Atitlán	14	Cerro de Oro	9	Septiembre	2023-02-09T00:00:00	2024-11-08T04:00:00	1	Precipitación	0
170096	7	Sololá	719	Santiago Atitlán	14	Cerro de Oro	9	Septiembre	2023-02-09T00:00:00	2024-11-08T04:00:00	8	Radiación solar	0
170097	7	Sololá	719	Santiago Atitlán	14	Cerro de Oro	9	Septiembre	2023-02-09T00:00:00	2024-11-08T05:00:00	2	Temperatura media	19.8
170098	7	Sololá	719	Santiago Atitlán	14	Cerro de Oro	9	Septiembre	2023-02-09T00:00:00	2024-11-08T05:00:00	4	Temperatura máxima	20.2
170099	7	Sololá	719	Santiago Atitlán	14	Cerro de Oro	9	Septiembre	2023-02-09T00:00:00	2024-11-08T05:00:00	3	Temperatura mínima	18.9
170100	7	Sololá	719	Santiago Atitlán	14	Cerro de Oro	9	Septiembre	2023-02-09T00:00:00	2024-11-08T05:00:00	5	Humedad	72
170101	7	Sololá	719	Santiago Atitlán	14	Cerro de Oro	9	Septiembre	2023-02-09T00:00:00	2024-11-08T05:00:00	6	Velocidad del viento	6.4
170102	7	Sololá	719	Santiago Atitlán	14	Cerro de Oro	9	Septiembre	2023-02-09T00:00:00	2024-11-08T05:00:00	7	Dirección del viento	6.44
170103	7	Sololá	719	Santiago Atitlán	14	Cerro de Oro	9	Septiembre	2023-02-09T00:00:00	2024-11-08T05:00:00	1	Precipitación	0
170104	7	Sololá	719	Santiago Atitlán	14	Cerro de Oro	9	Septiembre	2023-02-09T00:00:00	2024-11-08T05:00:00	8	Radiación solar	0
170105	7	Sololá	719	Santiago Atitlán	14	Cerro de Oro	9	Septiembre	2023-02-09T00:00:00	2024-11-08T06:00:00	2	Temperatura media	18.7
170106	7	Sololá	719	Santiago Atitlán	14	Cerro de Oro	9	Septiembre	2023-02-09T00:00:00	2024-11-08T06:00:00	4	Temperatura máxima	20
170107	7	Sololá	719	Santiago Atitlán	14	Cerro de Oro	9	Septiembre	2023-02-09T00:00:00	2024-11-08T06:00:00	3	Temperatura mínima	18.7
170108	7	Sololá	719	Santiago Atitlán	14	Cerro de Oro	9	Septiembre	2023-02-09T00:00:00	2024-11-08T06:00:00	5	Humedad	76
170109	7	Sololá	719	Santiago Atitlán	14	Cerro de Oro	9	Septiembre	2023-02-09T00:00:00	2024-11-08T06:00:00	6	Velocidad del viento	4.8
170110	7	Sololá	719	Santiago Atitlán	14	Cerro de Oro	9	Septiembre	2023-02-09T00:00:00	2024-11-08T06:00:00	7	Dirección del viento	4.83
170111	7	Sololá	719	Santiago Atitlán	14	Cerro de Oro	9	Septiembre	2023-02-09T00:00:00	2024-11-08T06:00:00	1	Precipitación	0
170112	7	Sololá	719	Santiago Atitlán	14	Cerro de Oro	9	Septiembre	2023-02-09T00:00:00	2024-11-08T06:00:00	8	Radiación solar	1
170113	7	Sololá	719	Santiago Atitlán	14	Cerro de Oro	9	Septiembre	2023-02-09T00:00:00	2024-11-08T07:00:00	2	Temperatura media	20.8
170114	7	Sololá	719	Santiago Atitlán	14	Cerro de Oro	9	Septiembre	2023-02-09T00:00:00	2024-11-08T07:00:00	4	Temperatura máxima	20.9
170115	7	Sololá	719	Santiago Atitlán	14	Cerro de Oro	9	Septiembre	2023-02-09T00:00:00	2024-11-08T07:00:00	3	Temperatura mínima	18.5
170116	7	Sololá	719	Santiago Atitlán	14	Cerro de Oro	9	Septiembre	2023-02-09T00:00:00	2024-11-08T07:00:00	5	Humedad	72
170117	7	Sololá	719	Santiago Atitlán	14	Cerro de Oro	9	Septiembre	2023-02-09T00:00:00	2024-11-08T07:00:00	6	Velocidad del viento	4.8
170118	7	Sololá	719	Santiago Atitlán	14	Cerro de Oro	9	Septiembre	2023-02-09T00:00:00	2024-11-08T07:00:00	7	Dirección del viento	4.83
170119	7	Sololá	719	Santiago Atitlán	14	Cerro de Oro	9	Septiembre	2023-02-09T00:00:00	2024-11-08T07:00:00	1	Precipitación	0
170120	7	Sololá	719	Santiago Atitlán	14	Cerro de Oro	9	Septiembre	2023-02-09T00:00:00	2024-11-08T07:00:00	8	Radiación solar	71
170121	7	Sololá	719	Santiago Atitlán	14	Cerro de Oro	9	Septiembre	2023-02-09T00:00:00	2024-11-08T08:00:00	2	Temperatura media	22.9
170122	7	Sololá	719	Santiago Atitlán	14	Cerro de Oro	9	Septiembre	2023-02-09T00:00:00	2024-11-08T08:00:00	4	Temperatura máxima	22.9
170123	7	Sololá	719	Santiago Atitlán	14	Cerro de Oro	9	Septiembre	2023-02-09T00:00:00	2024-11-08T08:00:00	3	Temperatura mínima	20.8
170124	7	Sololá	719	Santiago Atitlán	14	Cerro de Oro	9	Septiembre	2023-02-09T00:00:00	2024-11-08T08:00:00	5	Humedad	65
170125	7	Sololá	719	Santiago Atitlán	14	Cerro de Oro	9	Septiembre	2023-02-09T00:00:00	2024-11-08T08:00:00	6	Velocidad del viento	3.2
170126	7	Sololá	719	Santiago Atitlán	14	Cerro de Oro	9	Septiembre	2023-02-09T00:00:00	2024-11-08T08:00:00	7	Dirección del viento	3.22
170127	7	Sololá	719	Santiago Atitlán	14	Cerro de Oro	9	Septiembre	2023-02-09T00:00:00	2024-11-08T08:00:00	1	Precipitación	0
170128	7	Sololá	719	Santiago Atitlán	14	Cerro de Oro	9	Septiembre	2023-02-09T00:00:00	2024-11-08T08:00:00	8	Radiación solar	249
170129	7	Sololá	719	Santiago Atitlán	14	Cerro de Oro	9	Septiembre	2023-02-09T00:00:00	2024-11-08T09:00:00	2	Temperatura media	24.1
170130	7	Sololá	719	Santiago Atitlán	14	Cerro de Oro	9	Septiembre	2023-02-09T00:00:00	2024-11-08T09:00:00	4	Temperatura máxima	24.1
170131	7	Sololá	719	Santiago Atitlán	14	Cerro de Oro	9	Septiembre	2023-02-09T00:00:00	2024-11-08T09:00:00	3	Temperatura mínima	22.9
170132	7	Sololá	719	Santiago Atitlán	14	Cerro de Oro	9	Septiembre	2023-02-09T00:00:00	2024-11-08T09:00:00	5	Humedad	58
170133	7	Sololá	719	Santiago Atitlán	14	Cerro de Oro	9	Septiembre	2023-02-09T00:00:00	2024-11-08T09:00:00	6	Velocidad del viento	4.8
170134	7	Sololá	719	Santiago Atitlán	14	Cerro de Oro	9	Septiembre	2023-02-09T00:00:00	2024-11-08T09:00:00	7	Dirección del viento	4.83
170135	7	Sololá	719	Santiago Atitlán	14	Cerro de Oro	9	Septiembre	2023-02-09T00:00:00	2024-11-08T09:00:00	1	Precipitación	0
170136	7	Sololá	719	Santiago Atitlán	14	Cerro de Oro	9	Septiembre	2023-02-09T00:00:00	2024-11-08T09:00:00	8	Radiación solar	405
170137	7	Sololá	719	Santiago Atitlán	14	Cerro de Oro	9	Septiembre	2023-02-09T00:00:00	2024-11-08T10:00:00	2	Temperatura media	25.1
170138	7	Sololá	719	Santiago Atitlán	14	Cerro de Oro	9	Septiembre	2023-02-09T00:00:00	2024-11-08T10:00:00	4	Temperatura máxima	25.1
170139	7	Sololá	719	Santiago Atitlán	14	Cerro de Oro	9	Septiembre	2023-02-09T00:00:00	2024-11-08T10:00:00	3	Temperatura mínima	23.9
170140	7	Sololá	719	Santiago Atitlán	14	Cerro de Oro	9	Septiembre	2023-02-09T00:00:00	2024-11-08T10:00:00	5	Humedad	60
170141	7	Sololá	719	Santiago Atitlán	14	Cerro de Oro	9	Septiembre	2023-02-09T00:00:00	2024-11-08T10:00:00	6	Velocidad del viento	6.4
170142	7	Sololá	719	Santiago Atitlán	14	Cerro de Oro	9	Septiembre	2023-02-09T00:00:00	2024-11-08T10:00:00	7	Dirección del viento	6.44
170143	7	Sololá	719	Santiago Atitlán	14	Cerro de Oro	9	Septiembre	2023-02-09T00:00:00	2024-11-08T10:00:00	1	Precipitación	0
170144	7	Sololá	719	Santiago Atitlán	14	Cerro de Oro	9	Septiembre	2023-02-09T00:00:00	2024-11-08T10:00:00	8	Radiación solar	614
170145	7	Sololá	719	Santiago Atitlán	14	Cerro de Oro	9	Septiembre	2023-02-09T00:00:00	2024-11-08T11:00:00	2	Temperatura media	25.5
170146	7	Sololá	719	Santiago Atitlán	14	Cerro de Oro	9	Septiembre	2023-02-09T00:00:00	2024-11-08T11:00:00	4	Temperatura máxima	25.6
170147	7	Sololá	719	Santiago Atitlán	14	Cerro de Oro	9	Septiembre	2023-02-09T00:00:00	2024-11-08T11:00:00	3	Temperatura mínima	24.9
170148	7	Sololá	719	Santiago Atitlán	14	Cerro de Oro	9	Septiembre	2023-02-09T00:00:00	2024-11-08T11:00:00	5	Humedad	57
170149	7	Sololá	719	Santiago Atitlán	14	Cerro de Oro	9	Septiembre	2023-02-09T00:00:00	2024-11-08T11:00:00	6	Velocidad del viento	11.3
170150	7	Sololá	719	Santiago Atitlán	14	Cerro de Oro	9	Septiembre	2023-02-09T00:00:00	2024-11-08T11:00:00	7	Dirección del viento	11.27
170151	7	Sololá	719	Santiago Atitlán	14	Cerro de Oro	9	Septiembre	2023-02-09T00:00:00	2024-11-08T11:00:00	1	Precipitación	0
170152	7	Sololá	719	Santiago Atitlán	14	Cerro de Oro	9	Septiembre	2023-02-09T00:00:00	2024-11-08T11:00:00	8	Radiación solar	859
170153	7	Sololá	719	Santiago Atitlán	14	Cerro de Oro	9	Septiembre	2023-02-09T00:00:00	2024-11-08T12:00:00	2	Temperatura media	25.1
170154	7	Sololá	719	Santiago Atitlán	14	Cerro de Oro	9	Septiembre	2023-02-09T00:00:00	2024-11-08T12:00:00	4	Temperatura máxima	26.4
170155	7	Sololá	719	Santiago Atitlán	14	Cerro de Oro	9	Septiembre	2023-02-09T00:00:00	2024-11-08T12:00:00	3	Temperatura mínima	24.9
170156	7	Sololá	719	Santiago Atitlán	14	Cerro de Oro	9	Septiembre	2023-02-09T00:00:00	2024-11-08T12:00:00	5	Humedad	73
170157	7	Sololá	719	Santiago Atitlán	14	Cerro de Oro	9	Septiembre	2023-02-09T00:00:00	2024-11-08T12:00:00	6	Velocidad del viento	11.3
170158	7	Sololá	719	Santiago Atitlán	14	Cerro de Oro	9	Septiembre	2023-02-09T00:00:00	2024-11-08T12:00:00	7	Dirección del viento	11.27
170159	7	Sololá	719	Santiago Atitlán	14	Cerro de Oro	9	Septiembre	2023-02-09T00:00:00	2024-11-08T12:00:00	1	Precipitación	0
170160	7	Sololá	719	Santiago Atitlán	14	Cerro de Oro	9	Septiembre	2023-02-09T00:00:00	2024-11-08T12:00:00	8	Radiación solar	892
170161	7	Sololá	719	Santiago Atitlán	14	Cerro de Oro	9	Septiembre	2023-02-09T00:00:00	2024-11-08T13:00:00	2	Temperatura media	26
170162	7	Sololá	719	Santiago Atitlán	14	Cerro de Oro	9	Septiembre	2023-02-09T00:00:00	2024-11-08T13:00:00	4	Temperatura máxima	26.2
170163	7	Sololá	719	Santiago Atitlán	14	Cerro de Oro	9	Septiembre	2023-02-09T00:00:00	2024-11-08T13:00:00	3	Temperatura mínima	25.1
170164	7	Sololá	719	Santiago Atitlán	14	Cerro de Oro	9	Septiembre	2023-02-09T00:00:00	2024-11-08T13:00:00	5	Humedad	64
170165	7	Sololá	719	Santiago Atitlán	14	Cerro de Oro	9	Septiembre	2023-02-09T00:00:00	2024-11-08T13:00:00	6	Velocidad del viento	9.7
170166	7	Sololá	719	Santiago Atitlán	14	Cerro de Oro	9	Septiembre	2023-02-09T00:00:00	2024-11-08T13:00:00	7	Dirección del viento	9.66
170167	7	Sololá	719	Santiago Atitlán	14	Cerro de Oro	9	Septiembre	2023-02-09T00:00:00	2024-11-08T13:00:00	1	Precipitación	0
170168	7	Sololá	719	Santiago Atitlán	14	Cerro de Oro	9	Septiembre	2023-02-09T00:00:00	2024-11-08T13:00:00	8	Radiación solar	960
170169	7	Sololá	719	Santiago Atitlán	14	Cerro de Oro	9	Septiembre	2023-02-09T00:00:00	2024-11-08T14:00:00	2	Temperatura media	21.6
170170	7	Sololá	719	Santiago Atitlán	14	Cerro de Oro	9	Septiembre	2023-02-09T00:00:00	2024-11-08T14:00:00	4	Temperatura máxima	26
170171	7	Sololá	719	Santiago Atitlán	14	Cerro de Oro	9	Septiembre	2023-02-09T00:00:00	2024-11-08T14:00:00	3	Temperatura mínima	21.1
170172	7	Sololá	719	Santiago Atitlán	14	Cerro de Oro	9	Septiembre	2023-02-09T00:00:00	2024-11-08T14:00:00	5	Humedad	77
170173	7	Sololá	719	Santiago Atitlán	14	Cerro de Oro	9	Septiembre	2023-02-09T00:00:00	2024-11-08T14:00:00	6	Velocidad del viento	11.3
170174	7	Sololá	719	Santiago Atitlán	14	Cerro de Oro	9	Septiembre	2023-02-09T00:00:00	2024-11-08T14:00:00	7	Dirección del viento	11.27
170175	7	Sololá	719	Santiago Atitlán	14	Cerro de Oro	9	Septiembre	2023-02-09T00:00:00	2024-11-08T14:00:00	1	Precipitación	0
170176	7	Sololá	719	Santiago Atitlán	14	Cerro de Oro	9	Septiembre	2023-02-09T00:00:00	2024-11-08T14:00:00	8	Radiación solar	220
170177	7	Sololá	719	Santiago Atitlán	14	Cerro de Oro	9	Septiembre	2023-02-09T00:00:00	2024-11-08T15:00:00	2	Temperatura media	21.3
170178	7	Sololá	719	Santiago Atitlán	14	Cerro de Oro	9	Septiembre	2023-02-09T00:00:00	2024-11-08T15:00:00	4	Temperatura máxima	21.4
170179	7	Sololá	719	Santiago Atitlán	14	Cerro de Oro	9	Septiembre	2023-02-09T00:00:00	2024-11-08T15:00:00	3	Temperatura mínima	19.4
170180	7	Sololá	719	Santiago Atitlán	14	Cerro de Oro	9	Septiembre	2023-02-09T00:00:00	2024-11-08T15:00:00	5	Humedad	76
170181	7	Sololá	719	Santiago Atitlán	14	Cerro de Oro	9	Septiembre	2023-02-09T00:00:00	2024-11-08T15:00:00	6	Velocidad del viento	14.5
170182	7	Sololá	719	Santiago Atitlán	14	Cerro de Oro	9	Septiembre	2023-02-09T00:00:00	2024-11-08T15:00:00	7	Dirección del viento	14.48
170183	7	Sololá	719	Santiago Atitlán	14	Cerro de Oro	9	Septiembre	2023-02-09T00:00:00	2024-11-08T15:00:00	1	Precipitación	0
170184	7	Sololá	719	Santiago Atitlán	14	Cerro de Oro	9	Septiembre	2023-02-09T00:00:00	2024-11-08T15:00:00	8	Radiación solar	101
170185	7	Sololá	719	Santiago Atitlán	14	Cerro de Oro	9	Septiembre	2023-02-09T00:00:00	2024-11-08T16:00:00	2	Temperatura media	23.2
170186	7	Sololá	719	Santiago Atitlán	14	Cerro de Oro	9	Septiembre	2023-02-09T00:00:00	2024-11-08T16:00:00	4	Temperatura máxima	23.2
170187	7	Sololá	719	Santiago Atitlán	14	Cerro de Oro	9	Septiembre	2023-02-09T00:00:00	2024-11-08T16:00:00	3	Temperatura mínima	21.3
170188	7	Sololá	719	Santiago Atitlán	14	Cerro de Oro	9	Septiembre	2023-02-09T00:00:00	2024-11-08T16:00:00	5	Humedad	73
170189	7	Sololá	719	Santiago Atitlán	14	Cerro de Oro	9	Septiembre	2023-02-09T00:00:00	2024-11-08T16:00:00	6	Velocidad del viento	3.2
170190	7	Sololá	719	Santiago Atitlán	14	Cerro de Oro	9	Septiembre	2023-02-09T00:00:00	2024-11-08T16:00:00	7	Dirección del viento	3.22
170191	7	Sololá	719	Santiago Atitlán	14	Cerro de Oro	9	Septiembre	2023-02-09T00:00:00	2024-11-08T16:00:00	1	Precipitación	0
170192	7	Sololá	719	Santiago Atitlán	14	Cerro de Oro	9	Septiembre	2023-02-09T00:00:00	2024-11-08T16:00:00	8	Radiación solar	269
170193	7	Sololá	719	Santiago Atitlán	14	Cerro de Oro	9	Septiembre	2023-02-09T00:00:00	2024-11-08T17:00:00	2	Temperatura media	22.8
170194	7	Sololá	719	Santiago Atitlán	14	Cerro de Oro	9	Septiembre	2023-02-09T00:00:00	2024-11-08T17:00:00	4	Temperatura máxima	23.3
170195	7	Sololá	719	Santiago Atitlán	14	Cerro de Oro	9	Septiembre	2023-02-09T00:00:00	2024-11-08T17:00:00	3	Temperatura mínima	22.5
170196	7	Sololá	719	Santiago Atitlán	14	Cerro de Oro	9	Septiembre	2023-02-09T00:00:00	2024-11-08T17:00:00	5	Humedad	72
170197	7	Sololá	719	Santiago Atitlán	14	Cerro de Oro	9	Septiembre	2023-02-09T00:00:00	2024-11-08T17:00:00	6	Velocidad del viento	4.8
170198	7	Sololá	719	Santiago Atitlán	14	Cerro de Oro	9	Septiembre	2023-02-09T00:00:00	2024-11-08T17:00:00	7	Dirección del viento	4.83
170199	7	Sololá	719	Santiago Atitlán	14	Cerro de Oro	9	Septiembre	2023-02-09T00:00:00	2024-11-08T17:00:00	1	Precipitación	0
170200	7	Sololá	719	Santiago Atitlán	14	Cerro de Oro	9	Septiembre	2023-02-09T00:00:00	2024-11-08T17:00:00	8	Radiación solar	182
170201	7	Sololá	719	Santiago Atitlán	14	Cerro de Oro	9	Septiembre	2023-02-09T00:00:00	2024-11-08T18:00:00	2	Temperatura media	22.1
170202	7	Sololá	719	Santiago Atitlán	14	Cerro de Oro	9	Septiembre	2023-02-09T00:00:00	2024-11-08T18:00:00	4	Temperatura máxima	22.8
170203	7	Sololá	719	Santiago Atitlán	14	Cerro de Oro	9	Septiembre	2023-02-09T00:00:00	2024-11-08T18:00:00	3	Temperatura mínima	22.1
170204	7	Sololá	719	Santiago Atitlán	14	Cerro de Oro	9	Septiembre	2023-02-09T00:00:00	2024-11-08T18:00:00	5	Humedad	68
170205	7	Sololá	719	Santiago Atitlán	14	Cerro de Oro	9	Septiembre	2023-02-09T00:00:00	2024-11-08T18:00:00	6	Velocidad del viento	4.8
170206	7	Sololá	719	Santiago Atitlán	14	Cerro de Oro	9	Septiembre	2023-02-09T00:00:00	2024-11-08T18:00:00	7	Dirección del viento	4.83
170207	7	Sololá	719	Santiago Atitlán	14	Cerro de Oro	9	Septiembre	2023-02-09T00:00:00	2024-11-08T18:00:00	1	Precipitación	0
170208	7	Sololá	719	Santiago Atitlán	14	Cerro de Oro	9	Septiembre	2023-02-09T00:00:00	2024-11-08T18:00:00	8	Radiación solar	45
170209	7	Sololá	719	Santiago Atitlán	14	Cerro de Oro	9	Septiembre	2023-02-09T00:00:00	2024-11-08T19:00:00	2	Temperatura media	21.9
170210	7	Sololá	719	Santiago Atitlán	14	Cerro de Oro	9	Septiembre	2023-02-09T00:00:00	2024-11-08T19:00:00	4	Temperatura máxima	22.1
170211	7	Sololá	719	Santiago Atitlán	14	Cerro de Oro	9	Septiembre	2023-02-09T00:00:00	2024-11-08T19:00:00	3	Temperatura mínima	21.6
170212	7	Sololá	719	Santiago Atitlán	14	Cerro de Oro	9	Septiembre	2023-02-09T00:00:00	2024-11-08T19:00:00	5	Humedad	70
170213	7	Sololá	719	Santiago Atitlán	14	Cerro de Oro	9	Septiembre	2023-02-09T00:00:00	2024-11-08T19:00:00	6	Velocidad del viento	8
170214	7	Sololá	719	Santiago Atitlán	14	Cerro de Oro	9	Septiembre	2023-02-09T00:00:00	2024-11-08T19:00:00	7	Dirección del viento	8.05
170215	7	Sololá	719	Santiago Atitlán	14	Cerro de Oro	9	Septiembre	2023-02-09T00:00:00	2024-11-08T19:00:00	1	Precipitación	0
170216	7	Sololá	719	Santiago Atitlán	14	Cerro de Oro	9	Septiembre	2023-02-09T00:00:00	2024-11-08T19:00:00	8	Radiación solar	0
170217	7	Sololá	719	Santiago Atitlán	14	Cerro de Oro	9	Septiembre	2023-02-09T00:00:00	2024-11-08T20:00:00	2	Temperatura media	21
170218	7	Sololá	719	Santiago Atitlán	14	Cerro de Oro	9	Septiembre	2023-02-09T00:00:00	2024-11-08T20:00:00	4	Temperatura máxima	21.9
170219	7	Sololá	719	Santiago Atitlán	14	Cerro de Oro	9	Septiembre	2023-02-09T00:00:00	2024-11-08T20:00:00	3	Temperatura mínima	21
170220	7	Sololá	719	Santiago Atitlán	14	Cerro de Oro	9	Septiembre	2023-02-09T00:00:00	2024-11-08T20:00:00	5	Humedad	70
170221	7	Sololá	719	Santiago Atitlán	14	Cerro de Oro	9	Septiembre	2023-02-09T00:00:00	2024-11-08T20:00:00	6	Velocidad del viento	6.4
170222	7	Sololá	719	Santiago Atitlán	14	Cerro de Oro	9	Septiembre	2023-02-09T00:00:00	2024-11-08T20:00:00	7	Dirección del viento	6.44
170223	7	Sololá	719	Santiago Atitlán	14	Cerro de Oro	9	Septiembre	2023-02-09T00:00:00	2024-11-08T20:00:00	1	Precipitación	0
170224	7	Sololá	719	Santiago Atitlán	14	Cerro de Oro	9	Septiembre	2023-02-09T00:00:00	2024-11-08T20:00:00	8	Radiación solar	0
170225	7	Sololá	719	Santiago Atitlán	14	Cerro de Oro	9	Septiembre	2023-02-09T00:00:00	2024-11-08T21:00:00	2	Temperatura media	20.2
170226	7	Sololá	719	Santiago Atitlán	14	Cerro de Oro	9	Septiembre	2023-02-09T00:00:00	2024-11-08T21:00:00	4	Temperatura máxima	21
170227	7	Sololá	719	Santiago Atitlán	14	Cerro de Oro	9	Septiembre	2023-02-09T00:00:00	2024-11-08T21:00:00	3	Temperatura mínima	20.2
170228	7	Sololá	719	Santiago Atitlán	14	Cerro de Oro	9	Septiembre	2023-02-09T00:00:00	2024-11-08T21:00:00	5	Humedad	77
170229	7	Sololá	719	Santiago Atitlán	14	Cerro de Oro	9	Septiembre	2023-02-09T00:00:00	2024-11-08T21:00:00	6	Velocidad del viento	4.8
170230	7	Sololá	719	Santiago Atitlán	14	Cerro de Oro	9	Septiembre	2023-02-09T00:00:00	2024-11-08T21:00:00	7	Dirección del viento	4.83
170231	7	Sololá	719	Santiago Atitlán	14	Cerro de Oro	9	Septiembre	2023-02-09T00:00:00	2024-11-08T21:00:00	1	Precipitación	0
170232	7	Sololá	719	Santiago Atitlán	14	Cerro de Oro	9	Septiembre	2023-02-09T00:00:00	2024-11-08T21:00:00	8	Radiación solar	0
170233	7	Sololá	719	Santiago Atitlán	14	Cerro de Oro	9	Septiembre	2023-02-09T00:00:00	2024-11-08T22:00:00	2	Temperatura media	21.4
170234	7	Sololá	719	Santiago Atitlán	14	Cerro de Oro	9	Septiembre	2023-02-09T00:00:00	2024-11-08T22:00:00	4	Temperatura máxima	21.4
170235	7	Sololá	719	Santiago Atitlán	14	Cerro de Oro	9	Septiembre	2023-02-09T00:00:00	2024-11-08T22:00:00	3	Temperatura mínima	20.1
170236	7	Sololá	719	Santiago Atitlán	14	Cerro de Oro	9	Septiembre	2023-02-09T00:00:00	2024-11-08T22:00:00	5	Humedad	72
170237	7	Sololá	719	Santiago Atitlán	14	Cerro de Oro	9	Septiembre	2023-02-09T00:00:00	2024-11-08T22:00:00	6	Velocidad del viento	4.8
170238	7	Sololá	719	Santiago Atitlán	14	Cerro de Oro	9	Septiembre	2023-02-09T00:00:00	2024-11-08T22:00:00	7	Dirección del viento	4.83
170239	7	Sololá	719	Santiago Atitlán	14	Cerro de Oro	9	Septiembre	2023-02-09T00:00:00	2024-11-08T22:00:00	1	Precipitación	0
170240	7	Sololá	719	Santiago Atitlán	14	Cerro de Oro	9	Septiembre	2023-02-09T00:00:00	2024-11-08T22:00:00	8	Radiación solar	0
170241	7	Sololá	719	Santiago Atitlán	14	Cerro de Oro	9	Septiembre	2023-02-09T00:00:00	2024-11-08T23:00:00	2	Temperatura media	21.3
170242	7	Sololá	719	Santiago Atitlán	14	Cerro de Oro	9	Septiembre	2023-02-09T00:00:00	2024-11-08T23:00:00	4	Temperatura máxima	21.6
170243	7	Sololá	719	Santiago Atitlán	14	Cerro de Oro	9	Septiembre	2023-02-09T00:00:00	2024-11-08T23:00:00	3	Temperatura mínima	21.3
170244	7	Sololá	719	Santiago Atitlán	14	Cerro de Oro	9	Septiembre	2023-02-09T00:00:00	2024-11-08T23:00:00	5	Humedad	71
170245	7	Sololá	719	Santiago Atitlán	14	Cerro de Oro	9	Septiembre	2023-02-09T00:00:00	2024-11-08T23:00:00	6	Velocidad del viento	8
170246	7	Sololá	719	Santiago Atitlán	14	Cerro de Oro	9	Septiembre	2023-02-09T00:00:00	2024-11-08T23:00:00	7	Dirección del viento	8.05
170247	7	Sololá	719	Santiago Atitlán	14	Cerro de Oro	9	Septiembre	2023-02-09T00:00:00	2024-11-08T23:00:00	1	Precipitación	0
170248	7	Sololá	719	Santiago Atitlán	14	Cerro de Oro	9	Septiembre	2023-02-09T00:00:00	2024-11-08T23:00:00	8	Radiación solar	0
170249	7	Sololá	719	Santiago Atitlán	14	Cerro de Oro	9	Septiembre	2023-03-09T00:00:00	2024-11-08T00:00:00	2	Temperatura media	20.1
170250	7	Sololá	719	Santiago Atitlán	14	Cerro de Oro	9	Septiembre	2023-03-09T00:00:00	2024-11-08T00:00:00	4	Temperatura máxima	21.3
170251	7	Sololá	719	Santiago Atitlán	14	Cerro de Oro	9	Septiembre	2023-03-09T00:00:00	2024-11-08T00:00:00	3	Temperatura mínima	20.1
170252	7	Sololá	719	Santiago Atitlán	14	Cerro de Oro	9	Septiembre	2023-03-09T00:00:00	2024-11-08T00:00:00	5	Humedad	75
170253	7	Sololá	719	Santiago Atitlán	14	Cerro de Oro	9	Septiembre	2023-03-09T00:00:00	2024-11-08T00:00:00	6	Velocidad del viento	4.8
170254	7	Sololá	719	Santiago Atitlán	14	Cerro de Oro	9	Septiembre	2023-03-09T00:00:00	2024-11-08T00:00:00	7	Dirección del viento	4.83
170255	7	Sololá	719	Santiago Atitlán	14	Cerro de Oro	9	Septiembre	2023-03-09T00:00:00	2024-11-08T00:00:00	1	Precipitación	0
170256	7	Sololá	719	Santiago Atitlán	14	Cerro de Oro	9	Septiembre	2023-03-09T00:00:00	2024-11-08T00:00:00	8	Radiación solar	0
170257	7	Sololá	719	Santiago Atitlán	14	Cerro de Oro	9	Septiembre	2023-03-09T00:00:00	2024-11-08T01:00:00	2	Temperatura media	19.6
170258	7	Sololá	719	Santiago Atitlán	14	Cerro de Oro	9	Septiembre	2023-03-09T00:00:00	2024-11-08T01:00:00	4	Temperatura máxima	20.1
170259	7	Sololá	719	Santiago Atitlán	14	Cerro de Oro	9	Septiembre	2023-03-09T00:00:00	2024-11-08T01:00:00	3	Temperatura mínima	19.6
170260	7	Sololá	719	Santiago Atitlán	14	Cerro de Oro	9	Septiembre	2023-03-09T00:00:00	2024-11-08T01:00:00	5	Humedad	76
170261	7	Sololá	719	Santiago Atitlán	14	Cerro de Oro	9	Septiembre	2023-03-09T00:00:00	2024-11-08T01:00:00	6	Velocidad del viento	4.8
170262	7	Sololá	719	Santiago Atitlán	14	Cerro de Oro	9	Septiembre	2023-03-09T00:00:00	2024-11-08T01:00:00	7	Dirección del viento	4.83
170263	7	Sololá	719	Santiago Atitlán	14	Cerro de Oro	9	Septiembre	2023-03-09T00:00:00	2024-11-08T01:00:00	1	Precipitación	0
170264	7	Sololá	719	Santiago Atitlán	14	Cerro de Oro	9	Septiembre	2023-03-09T00:00:00	2024-11-08T01:00:00	8	Radiación solar	0
170265	7	Sololá	719	Santiago Atitlán	14	Cerro de Oro	9	Septiembre	2023-03-09T00:00:00	2024-11-08T02:00:00	2	Temperatura media	19.5
170266	7	Sololá	719	Santiago Atitlán	14	Cerro de Oro	9	Septiembre	2023-03-09T00:00:00	2024-11-08T02:00:00	4	Temperatura máxima	20.2
170267	7	Sololá	719	Santiago Atitlán	14	Cerro de Oro	9	Septiembre	2023-03-09T00:00:00	2024-11-08T02:00:00	3	Temperatura mínima	19.4
170268	7	Sololá	719	Santiago Atitlán	14	Cerro de Oro	9	Septiembre	2023-03-09T00:00:00	2024-11-08T02:00:00	5	Humedad	76
170269	7	Sololá	719	Santiago Atitlán	14	Cerro de Oro	9	Septiembre	2023-03-09T00:00:00	2024-11-08T02:00:00	6	Velocidad del viento	4.8
170270	7	Sololá	719	Santiago Atitlán	14	Cerro de Oro	9	Septiembre	2023-03-09T00:00:00	2024-11-08T02:00:00	7	Dirección del viento	4.83
170271	7	Sololá	719	Santiago Atitlán	14	Cerro de Oro	9	Septiembre	2023-03-09T00:00:00	2024-11-08T02:00:00	1	Precipitación	0
170272	7	Sololá	719	Santiago Atitlán	14	Cerro de Oro	9	Septiembre	2023-03-09T00:00:00	2024-11-08T02:00:00	8	Radiación solar	0
170273	7	Sololá	719	Santiago Atitlán	14	Cerro de Oro	9	Septiembre	2023-03-09T00:00:00	2024-11-08T03:00:00	2	Temperatura media	20.7
170274	7	Sololá	719	Santiago Atitlán	14	Cerro de Oro	9	Septiembre	2023-03-09T00:00:00	2024-11-08T03:00:00	4	Temperatura máxima	20.7
170275	7	Sololá	719	Santiago Atitlán	14	Cerro de Oro	9	Septiembre	2023-03-09T00:00:00	2024-11-08T03:00:00	3	Temperatura mínima	19.5
170276	7	Sololá	719	Santiago Atitlán	14	Cerro de Oro	9	Septiembre	2023-03-09T00:00:00	2024-11-08T03:00:00	5	Humedad	74
170277	7	Sololá	719	Santiago Atitlán	14	Cerro de Oro	9	Septiembre	2023-03-09T00:00:00	2024-11-08T03:00:00	6	Velocidad del viento	6.4
170278	7	Sololá	719	Santiago Atitlán	14	Cerro de Oro	9	Septiembre	2023-03-09T00:00:00	2024-11-08T03:00:00	7	Dirección del viento	6.44
170279	7	Sololá	719	Santiago Atitlán	14	Cerro de Oro	9	Septiembre	2023-03-09T00:00:00	2024-11-08T03:00:00	1	Precipitación	0
170280	7	Sololá	719	Santiago Atitlán	14	Cerro de Oro	9	Septiembre	2023-03-09T00:00:00	2024-11-08T03:00:00	8	Radiación solar	0
170281	7	Sololá	719	Santiago Atitlán	14	Cerro de Oro	9	Septiembre	2023-03-09T00:00:00	2024-11-08T04:00:00	2	Temperatura media	19.3
170282	7	Sololá	719	Santiago Atitlán	14	Cerro de Oro	9	Septiembre	2023-03-09T00:00:00	2024-11-08T04:00:00	4	Temperatura máxima	20.7
170283	7	Sololá	719	Santiago Atitlán	14	Cerro de Oro	9	Septiembre	2023-03-09T00:00:00	2024-11-08T04:00:00	3	Temperatura mínima	19.3
170284	7	Sololá	719	Santiago Atitlán	14	Cerro de Oro	9	Septiembre	2023-03-09T00:00:00	2024-11-08T04:00:00	5	Humedad	75
170285	7	Sololá	719	Santiago Atitlán	14	Cerro de Oro	9	Septiembre	2023-03-09T00:00:00	2024-11-08T04:00:00	6	Velocidad del viento	4.8
170286	7	Sololá	719	Santiago Atitlán	14	Cerro de Oro	9	Septiembre	2023-03-09T00:00:00	2024-11-08T04:00:00	7	Dirección del viento	4.83
170287	7	Sololá	719	Santiago Atitlán	14	Cerro de Oro	9	Septiembre	2023-03-09T00:00:00	2024-11-08T04:00:00	1	Precipitación	0
170288	7	Sololá	719	Santiago Atitlán	14	Cerro de Oro	9	Septiembre	2023-03-09T00:00:00	2024-11-08T04:00:00	8	Radiación solar	0
170289	7	Sololá	719	Santiago Atitlán	14	Cerro de Oro	9	Septiembre	2023-03-09T00:00:00	2024-11-08T05:00:00	2	Temperatura media	18.9
170290	7	Sololá	719	Santiago Atitlán	14	Cerro de Oro	9	Septiembre	2023-03-09T00:00:00	2024-11-08T05:00:00	4	Temperatura máxima	19.4
170291	7	Sololá	719	Santiago Atitlán	14	Cerro de Oro	9	Septiembre	2023-03-09T00:00:00	2024-11-08T05:00:00	3	Temperatura mínima	18.3
170292	7	Sololá	719	Santiago Atitlán	14	Cerro de Oro	9	Septiembre	2023-03-09T00:00:00	2024-11-08T05:00:00	5	Humedad	76
170293	7	Sololá	719	Santiago Atitlán	14	Cerro de Oro	9	Septiembre	2023-03-09T00:00:00	2024-11-08T05:00:00	6	Velocidad del viento	4.8
170294	7	Sololá	719	Santiago Atitlán	14	Cerro de Oro	9	Septiembre	2023-03-09T00:00:00	2024-11-08T05:00:00	7	Dirección del viento	4.83
170295	7	Sololá	719	Santiago Atitlán	14	Cerro de Oro	9	Septiembre	2023-03-09T00:00:00	2024-11-08T05:00:00	1	Precipitación	0
170296	7	Sololá	719	Santiago Atitlán	14	Cerro de Oro	9	Septiembre	2023-03-09T00:00:00	2024-11-08T05:00:00	8	Radiación solar	0
170297	7	Sololá	719	Santiago Atitlán	14	Cerro de Oro	9	Septiembre	2023-03-09T00:00:00	2024-11-08T06:00:00	2	Temperatura media	19.8
170298	7	Sololá	719	Santiago Atitlán	14	Cerro de Oro	9	Septiembre	2023-03-09T00:00:00	2024-11-08T06:00:00	4	Temperatura máxima	20
170299	7	Sololá	719	Santiago Atitlán	14	Cerro de Oro	9	Septiembre	2023-03-09T00:00:00	2024-11-08T06:00:00	3	Temperatura mínima	18.8
170300	7	Sololá	719	Santiago Atitlán	14	Cerro de Oro	9	Septiembre	2023-03-09T00:00:00	2024-11-08T06:00:00	5	Humedad	71
170301	7	Sololá	719	Santiago Atitlán	14	Cerro de Oro	9	Septiembre	2023-03-09T00:00:00	2024-11-08T06:00:00	6	Velocidad del viento	6.4
170302	7	Sololá	719	Santiago Atitlán	14	Cerro de Oro	9	Septiembre	2023-03-09T00:00:00	2024-11-08T06:00:00	7	Dirección del viento	6.44
170303	7	Sololá	719	Santiago Atitlán	14	Cerro de Oro	9	Septiembre	2023-03-09T00:00:00	2024-11-08T06:00:00	1	Precipitación	0
170304	7	Sololá	719	Santiago Atitlán	14	Cerro de Oro	9	Septiembre	2023-03-09T00:00:00	2024-11-08T06:00:00	8	Radiación solar	1
170305	7	Sololá	719	Santiago Atitlán	14	Cerro de Oro	9	Septiembre	2023-03-09T00:00:00	2024-11-08T07:00:00	2	Temperatura media	21.3
170306	7	Sololá	719	Santiago Atitlán	14	Cerro de Oro	9	Septiembre	2023-03-09T00:00:00	2024-11-08T07:00:00	4	Temperatura máxima	21.3
170307	7	Sololá	719	Santiago Atitlán	14	Cerro de Oro	9	Septiembre	2023-03-09T00:00:00	2024-11-08T07:00:00	3	Temperatura mínima	19.5
170308	7	Sololá	719	Santiago Atitlán	14	Cerro de Oro	9	Septiembre	2023-03-09T00:00:00	2024-11-08T07:00:00	5	Humedad	69
170309	7	Sololá	719	Santiago Atitlán	14	Cerro de Oro	9	Septiembre	2023-03-09T00:00:00	2024-11-08T07:00:00	6	Velocidad del viento	4.8
170310	7	Sololá	719	Santiago Atitlán	14	Cerro de Oro	9	Septiembre	2023-03-09T00:00:00	2024-11-08T07:00:00	7	Dirección del viento	4.83
170311	7	Sololá	719	Santiago Atitlán	14	Cerro de Oro	9	Septiembre	2023-03-09T00:00:00	2024-11-08T07:00:00	1	Precipitación	0
170312	7	Sololá	719	Santiago Atitlán	14	Cerro de Oro	9	Septiembre	2023-03-09T00:00:00	2024-11-08T07:00:00	8	Radiación solar	65
170313	7	Sololá	719	Santiago Atitlán	14	Cerro de Oro	9	Septiembre	2023-03-09T00:00:00	2024-11-08T08:00:00	2	Temperatura media	22.5
170314	7	Sololá	719	Santiago Atitlán	14	Cerro de Oro	9	Septiembre	2023-03-09T00:00:00	2024-11-08T08:00:00	4	Temperatura máxima	22.7
170315	7	Sololá	719	Santiago Atitlán	14	Cerro de Oro	9	Septiembre	2023-03-09T00:00:00	2024-11-08T08:00:00	3	Temperatura mínima	21.3
170316	7	Sololá	719	Santiago Atitlán	14	Cerro de Oro	9	Septiembre	2023-03-09T00:00:00	2024-11-08T08:00:00	5	Humedad	66
170317	7	Sololá	719	Santiago Atitlán	14	Cerro de Oro	9	Septiembre	2023-03-09T00:00:00	2024-11-08T08:00:00	6	Velocidad del viento	1.6
170318	7	Sololá	719	Santiago Atitlán	14	Cerro de Oro	9	Septiembre	2023-03-09T00:00:00	2024-11-08T08:00:00	7	Dirección del viento	1.61
170319	7	Sololá	719	Santiago Atitlán	14	Cerro de Oro	9	Septiembre	2023-03-09T00:00:00	2024-11-08T08:00:00	1	Precipitación	0
170320	7	Sololá	719	Santiago Atitlán	14	Cerro de Oro	9	Septiembre	2023-03-09T00:00:00	2024-11-08T08:00:00	8	Radiación solar	224
170321	7	Sololá	719	Santiago Atitlán	14	Cerro de Oro	9	Septiembre	2023-03-09T00:00:00	2024-11-08T09:00:00	2	Temperatura media	24.3
170322	7	Sololá	719	Santiago Atitlán	14	Cerro de Oro	9	Septiembre	2023-03-09T00:00:00	2024-11-08T09:00:00	4	Temperatura máxima	24.3
170323	7	Sololá	719	Santiago Atitlán	14	Cerro de Oro	9	Septiembre	2023-03-09T00:00:00	2024-11-08T09:00:00	3	Temperatura mínima	22.5
170324	7	Sololá	719	Santiago Atitlán	14	Cerro de Oro	9	Septiembre	2023-03-09T00:00:00	2024-11-08T09:00:00	5	Humedad	60
170325	7	Sololá	719	Santiago Atitlán	14	Cerro de Oro	9	Septiembre	2023-03-09T00:00:00	2024-11-08T09:00:00	6	Velocidad del viento	3.2
170326	7	Sololá	719	Santiago Atitlán	14	Cerro de Oro	9	Septiembre	2023-03-09T00:00:00	2024-11-08T09:00:00	7	Dirección del viento	3.22
170327	7	Sololá	719	Santiago Atitlán	14	Cerro de Oro	9	Septiembre	2023-03-09T00:00:00	2024-11-08T09:00:00	1	Precipitación	0
170328	7	Sololá	719	Santiago Atitlán	14	Cerro de Oro	9	Septiembre	2023-03-09T00:00:00	2024-11-08T09:00:00	8	Radiación solar	412
170329	7	Sololá	719	Santiago Atitlán	14	Cerro de Oro	9	Septiembre	2023-03-09T00:00:00	2024-11-08T10:00:00	2	Temperatura media	24.7
170330	7	Sololá	719	Santiago Atitlán	14	Cerro de Oro	9	Septiembre	2023-03-09T00:00:00	2024-11-08T10:00:00	4	Temperatura máxima	24.8
170331	7	Sololá	719	Santiago Atitlán	14	Cerro de Oro	9	Septiembre	2023-03-09T00:00:00	2024-11-08T10:00:00	3	Temperatura mínima	23.7
170332	7	Sololá	719	Santiago Atitlán	14	Cerro de Oro	9	Septiembre	2023-03-09T00:00:00	2024-11-08T10:00:00	5	Humedad	61
170333	7	Sololá	719	Santiago Atitlán	14	Cerro de Oro	9	Septiembre	2023-03-09T00:00:00	2024-11-08T10:00:00	6	Velocidad del viento	3.2
170334	7	Sololá	719	Santiago Atitlán	14	Cerro de Oro	9	Septiembre	2023-03-09T00:00:00	2024-11-08T10:00:00	7	Dirección del viento	3.22
170335	7	Sololá	719	Santiago Atitlán	14	Cerro de Oro	9	Septiembre	2023-03-09T00:00:00	2024-11-08T10:00:00	1	Precipitación	0
170336	7	Sololá	719	Santiago Atitlán	14	Cerro de Oro	9	Septiembre	2023-03-09T00:00:00	2024-11-08T10:00:00	8	Radiación solar	631
170337	7	Sololá	719	Santiago Atitlán	14	Cerro de Oro	9	Septiembre	2023-03-09T00:00:00	2024-11-08T11:00:00	2	Temperatura media	26
170338	7	Sololá	719	Santiago Atitlán	14	Cerro de Oro	9	Septiembre	2023-03-09T00:00:00	2024-11-08T11:00:00	4	Temperatura máxima	26.2
170339	7	Sololá	719	Santiago Atitlán	14	Cerro de Oro	9	Septiembre	2023-03-09T00:00:00	2024-11-08T11:00:00	3	Temperatura mínima	24.7
170340	7	Sololá	719	Santiago Atitlán	14	Cerro de Oro	9	Septiembre	2023-03-09T00:00:00	2024-11-08T11:00:00	5	Humedad	61
170341	7	Sololá	719	Santiago Atitlán	14	Cerro de Oro	9	Septiembre	2023-03-09T00:00:00	2024-11-08T11:00:00	6	Velocidad del viento	6.4
170342	7	Sololá	719	Santiago Atitlán	14	Cerro de Oro	9	Septiembre	2023-03-09T00:00:00	2024-11-08T11:00:00	7	Dirección del viento	6.44
170343	7	Sololá	719	Santiago Atitlán	14	Cerro de Oro	9	Septiembre	2023-03-09T00:00:00	2024-11-08T11:00:00	1	Precipitación	0.2
170344	7	Sololá	719	Santiago Atitlán	14	Cerro de Oro	9	Septiembre	2023-03-09T00:00:00	2024-11-08T11:00:00	8	Radiación solar	840
170345	7	Sololá	719	Santiago Atitlán	14	Cerro de Oro	9	Septiembre	2023-03-09T00:00:00	2024-11-08T12:00:00	2	Temperatura media	25.1
170346	7	Sololá	719	Santiago Atitlán	14	Cerro de Oro	9	Septiembre	2023-03-09T00:00:00	2024-11-08T12:00:00	4	Temperatura máxima	26.6
170347	7	Sololá	719	Santiago Atitlán	14	Cerro de Oro	9	Septiembre	2023-03-09T00:00:00	2024-11-08T12:00:00	3	Temperatura mínima	24.9
170348	7	Sololá	719	Santiago Atitlán	14	Cerro de Oro	9	Septiembre	2023-03-09T00:00:00	2024-11-08T12:00:00	5	Humedad	70
170349	7	Sololá	719	Santiago Atitlán	14	Cerro de Oro	9	Septiembre	2023-03-09T00:00:00	2024-11-08T12:00:00	6	Velocidad del viento	11.3
170350	7	Sololá	719	Santiago Atitlán	14	Cerro de Oro	9	Septiembre	2023-03-09T00:00:00	2024-11-08T12:00:00	7	Dirección del viento	11.27
170351	7	Sololá	719	Santiago Atitlán	14	Cerro de Oro	9	Septiembre	2023-03-09T00:00:00	2024-11-08T12:00:00	1	Precipitación	0
170352	7	Sololá	719	Santiago Atitlán	14	Cerro de Oro	9	Septiembre	2023-03-09T00:00:00	2024-11-08T12:00:00	8	Radiación solar	952
170353	7	Sololá	719	Santiago Atitlán	14	Cerro de Oro	9	Septiembre	2023-03-09T00:00:00	2024-11-08T13:00:00	2	Temperatura media	25.1
170354	7	Sololá	719	Santiago Atitlán	14	Cerro de Oro	9	Septiembre	2023-03-09T00:00:00	2024-11-08T13:00:00	4	Temperatura máxima	25.3
170355	7	Sololá	719	Santiago Atitlán	14	Cerro de Oro	9	Septiembre	2023-03-09T00:00:00	2024-11-08T13:00:00	3	Temperatura mínima	24.1
170356	7	Sololá	719	Santiago Atitlán	14	Cerro de Oro	9	Septiembre	2023-03-09T00:00:00	2024-11-08T13:00:00	5	Humedad	69
170357	7	Sololá	719	Santiago Atitlán	14	Cerro de Oro	9	Septiembre	2023-03-09T00:00:00	2024-11-08T13:00:00	6	Velocidad del viento	12.9
170358	7	Sololá	719	Santiago Atitlán	14	Cerro de Oro	9	Septiembre	2023-03-09T00:00:00	2024-11-08T13:00:00	7	Dirección del viento	12.87
170359	7	Sololá	719	Santiago Atitlán	14	Cerro de Oro	9	Septiembre	2023-03-09T00:00:00	2024-11-08T13:00:00	1	Precipitación	0
170360	7	Sololá	719	Santiago Atitlán	14	Cerro de Oro	9	Septiembre	2023-03-09T00:00:00	2024-11-08T13:00:00	8	Radiación solar	930
170361	7	Sololá	719	Santiago Atitlán	14	Cerro de Oro	9	Septiembre	2023-03-09T00:00:00	2024-11-08T14:00:00	2	Temperatura media	24.6
170362	7	Sololá	719	Santiago Atitlán	14	Cerro de Oro	9	Septiembre	2023-03-09T00:00:00	2024-11-08T14:00:00	4	Temperatura máxima	25.1
170363	7	Sololá	719	Santiago Atitlán	14	Cerro de Oro	9	Septiembre	2023-03-09T00:00:00	2024-11-08T14:00:00	3	Temperatura mínima	24.1
170364	7	Sololá	719	Santiago Atitlán	14	Cerro de Oro	9	Septiembre	2023-03-09T00:00:00	2024-11-08T14:00:00	5	Humedad	71
170365	7	Sololá	719	Santiago Atitlán	14	Cerro de Oro	9	Septiembre	2023-03-09T00:00:00	2024-11-08T14:00:00	6	Velocidad del viento	14.5
170366	7	Sololá	719	Santiago Atitlán	14	Cerro de Oro	9	Septiembre	2023-03-09T00:00:00	2024-11-08T14:00:00	7	Dirección del viento	14.48
170367	7	Sololá	719	Santiago Atitlán	14	Cerro de Oro	9	Septiembre	2023-03-09T00:00:00	2024-11-08T14:00:00	1	Precipitación	0
170368	7	Sololá	719	Santiago Atitlán	14	Cerro de Oro	9	Septiembre	2023-03-09T00:00:00	2024-11-08T14:00:00	8	Radiación solar	891
170369	7	Sololá	719	Santiago Atitlán	14	Cerro de Oro	9	Septiembre	2023-03-09T00:00:00	2024-11-08T15:00:00	2	Temperatura media	23.9
170370	7	Sololá	719	Santiago Atitlán	14	Cerro de Oro	9	Septiembre	2023-03-09T00:00:00	2024-11-08T15:00:00	4	Temperatura máxima	24.8
170371	7	Sololá	719	Santiago Atitlán	14	Cerro de Oro	9	Septiembre	2023-03-09T00:00:00	2024-11-08T15:00:00	3	Temperatura mínima	23.9
170372	7	Sololá	719	Santiago Atitlán	14	Cerro de Oro	9	Septiembre	2023-03-09T00:00:00	2024-11-08T15:00:00	5	Humedad	73
170373	7	Sololá	719	Santiago Atitlán	14	Cerro de Oro	9	Septiembre	2023-03-09T00:00:00	2024-11-08T15:00:00	6	Velocidad del viento	11.3
170374	7	Sololá	719	Santiago Atitlán	14	Cerro de Oro	9	Septiembre	2023-03-09T00:00:00	2024-11-08T15:00:00	7	Dirección del viento	11.27
170375	7	Sololá	719	Santiago Atitlán	14	Cerro de Oro	9	Septiembre	2023-03-09T00:00:00	2024-11-08T15:00:00	1	Precipitación	0
170376	7	Sololá	719	Santiago Atitlán	14	Cerro de Oro	9	Septiembre	2023-03-09T00:00:00	2024-11-08T15:00:00	8	Radiación solar	698
170377	7	Sololá	719	Santiago Atitlán	14	Cerro de Oro	9	Septiembre	2023-03-09T00:00:00	2024-11-08T16:00:00	2	Temperatura media	22.1
170378	7	Sololá	719	Santiago Atitlán	14	Cerro de Oro	9	Septiembre	2023-03-09T00:00:00	2024-11-08T16:00:00	4	Temperatura máxima	24.3
170379	7	Sololá	719	Santiago Atitlán	14	Cerro de Oro	9	Septiembre	2023-03-09T00:00:00	2024-11-08T16:00:00	3	Temperatura mínima	22.1
170380	7	Sololá	719	Santiago Atitlán	14	Cerro de Oro	9	Septiembre	2023-03-09T00:00:00	2024-11-08T16:00:00	5	Humedad	80
170381	7	Sololá	719	Santiago Atitlán	14	Cerro de Oro	9	Septiembre	2023-03-09T00:00:00	2024-11-08T16:00:00	6	Velocidad del viento	11.3
170382	7	Sololá	719	Santiago Atitlán	14	Cerro de Oro	9	Septiembre	2023-03-09T00:00:00	2024-11-08T16:00:00	7	Dirección del viento	11.27
170383	7	Sololá	719	Santiago Atitlán	14	Cerro de Oro	9	Septiembre	2023-03-09T00:00:00	2024-11-08T16:00:00	1	Precipitación	0
170384	7	Sololá	719	Santiago Atitlán	14	Cerro de Oro	9	Septiembre	2023-03-09T00:00:00	2024-11-08T16:00:00	8	Radiación solar	445
170385	7	Sololá	719	Santiago Atitlán	14	Cerro de Oro	9	Septiembre	2023-03-09T00:00:00	2024-11-08T17:00:00	2	Temperatura media	20.8
170386	7	Sololá	719	Santiago Atitlán	14	Cerro de Oro	9	Septiembre	2023-03-09T00:00:00	2024-11-08T17:00:00	4	Temperatura máxima	22.8
170387	7	Sololá	719	Santiago Atitlán	14	Cerro de Oro	9	Septiembre	2023-03-09T00:00:00	2024-11-08T17:00:00	3	Temperatura mínima	20.8
170388	7	Sololá	719	Santiago Atitlán	14	Cerro de Oro	9	Septiembre	2023-03-09T00:00:00	2024-11-08T17:00:00	5	Humedad	84
170389	7	Sololá	719	Santiago Atitlán	14	Cerro de Oro	9	Septiembre	2023-03-09T00:00:00	2024-11-08T17:00:00	6	Velocidad del viento	9.7
170390	7	Sololá	719	Santiago Atitlán	14	Cerro de Oro	9	Septiembre	2023-03-09T00:00:00	2024-11-08T17:00:00	7	Dirección del viento	9.66
170391	7	Sololá	719	Santiago Atitlán	14	Cerro de Oro	9	Septiembre	2023-03-09T00:00:00	2024-11-08T17:00:00	1	Precipitación	0
170392	7	Sololá	719	Santiago Atitlán	14	Cerro de Oro	9	Septiembre	2023-03-09T00:00:00	2024-11-08T17:00:00	8	Radiación solar	136
170393	7	Sololá	719	Santiago Atitlán	14	Cerro de Oro	9	Septiembre	2023-03-09T00:00:00	2024-11-08T18:00:00	2	Temperatura media	17.9
170394	7	Sololá	719	Santiago Atitlán	14	Cerro de Oro	9	Septiembre	2023-03-09T00:00:00	2024-11-08T18:00:00	4	Temperatura máxima	20.8
170395	7	Sololá	719	Santiago Atitlán	14	Cerro de Oro	9	Septiembre	2023-03-09T00:00:00	2024-11-08T18:00:00	3	Temperatura mínima	17.9
170396	7	Sololá	719	Santiago Atitlán	14	Cerro de Oro	9	Septiembre	2023-03-09T00:00:00	2024-11-08T18:00:00	5	Humedad	89
170397	7	Sololá	719	Santiago Atitlán	14	Cerro de Oro	9	Septiembre	2023-03-09T00:00:00	2024-11-08T18:00:00	6	Velocidad del viento	8
170398	7	Sololá	719	Santiago Atitlán	14	Cerro de Oro	9	Septiembre	2023-03-09T00:00:00	2024-11-08T18:00:00	7	Dirección del viento	8.05
170399	7	Sololá	719	Santiago Atitlán	14	Cerro de Oro	9	Septiembre	2023-03-09T00:00:00	2024-11-08T18:00:00	1	Precipitación	4.2
170400	7	Sololá	719	Santiago Atitlán	14	Cerro de Oro	9	Septiembre	2023-03-09T00:00:00	2024-11-08T18:00:00	8	Radiación solar	16
170401	7	Sololá	719	Santiago Atitlán	14	Cerro de Oro	9	Septiembre	2023-03-09T00:00:00	2024-11-08T19:00:00	2	Temperatura media	17.1
170402	7	Sololá	719	Santiago Atitlán	14	Cerro de Oro	9	Septiembre	2023-03-09T00:00:00	2024-11-08T19:00:00	4	Temperatura máxima	17.9
170403	7	Sololá	719	Santiago Atitlán	14	Cerro de Oro	9	Septiembre	2023-03-09T00:00:00	2024-11-08T19:00:00	3	Temperatura mínima	16.9
170404	7	Sololá	719	Santiago Atitlán	14	Cerro de Oro	9	Septiembre	2023-03-09T00:00:00	2024-11-08T19:00:00	5	Humedad	94
170405	7	Sololá	719	Santiago Atitlán	14	Cerro de Oro	9	Septiembre	2023-03-09T00:00:00	2024-11-08T19:00:00	6	Velocidad del viento	6.4
170406	7	Sololá	719	Santiago Atitlán	14	Cerro de Oro	9	Septiembre	2023-03-09T00:00:00	2024-11-08T19:00:00	7	Dirección del viento	6.44
170407	7	Sololá	719	Santiago Atitlán	14	Cerro de Oro	9	Septiembre	2023-03-09T00:00:00	2024-11-08T19:00:00	1	Precipitación	22
170408	7	Sololá	719	Santiago Atitlán	14	Cerro de Oro	9	Septiembre	2023-03-09T00:00:00	2024-11-08T19:00:00	8	Radiación solar	0
170409	7	Sololá	719	Santiago Atitlán	14	Cerro de Oro	9	Septiembre	2023-03-09T00:00:00	2024-11-08T20:00:00	2	Temperatura media	16.8
170410	7	Sololá	719	Santiago Atitlán	14	Cerro de Oro	9	Septiembre	2023-03-09T00:00:00	2024-11-08T20:00:00	4	Temperatura máxima	17.1
170411	7	Sololá	719	Santiago Atitlán	14	Cerro de Oro	9	Septiembre	2023-03-09T00:00:00	2024-11-08T20:00:00	3	Temperatura mínima	16.8
170412	7	Sololá	719	Santiago Atitlán	14	Cerro de Oro	9	Septiembre	2023-03-09T00:00:00	2024-11-08T20:00:00	5	Humedad	93
170413	7	Sololá	719	Santiago Atitlán	14	Cerro de Oro	9	Septiembre	2023-03-09T00:00:00	2024-11-08T20:00:00	6	Velocidad del viento	4.8
170414	7	Sololá	719	Santiago Atitlán	14	Cerro de Oro	9	Septiembre	2023-03-09T00:00:00	2024-11-08T20:00:00	7	Dirección del viento	4.83
170415	7	Sololá	719	Santiago Atitlán	14	Cerro de Oro	9	Septiembre	2023-03-09T00:00:00	2024-11-08T20:00:00	1	Precipitación	0.2
170416	7	Sololá	719	Santiago Atitlán	14	Cerro de Oro	9	Septiembre	2023-03-09T00:00:00	2024-11-08T20:00:00	8	Radiación solar	0
170417	7	Sololá	719	Santiago Atitlán	14	Cerro de Oro	9	Septiembre	2023-03-09T00:00:00	2024-11-08T21:00:00	2	Temperatura media	17
170418	7	Sololá	719	Santiago Atitlán	14	Cerro de Oro	9	Septiembre	2023-03-09T00:00:00	2024-11-08T21:00:00	4	Temperatura máxima	17
170419	7	Sololá	719	Santiago Atitlán	14	Cerro de Oro	9	Septiembre	2023-03-09T00:00:00	2024-11-08T21:00:00	3	Temperatura mínima	16.7
170420	7	Sololá	719	Santiago Atitlán	14	Cerro de Oro	9	Septiembre	2023-03-09T00:00:00	2024-11-08T21:00:00	5	Humedad	93
170421	7	Sololá	719	Santiago Atitlán	14	Cerro de Oro	9	Septiembre	2023-03-09T00:00:00	2024-11-08T21:00:00	6	Velocidad del viento	4.8
170422	7	Sololá	719	Santiago Atitlán	14	Cerro de Oro	9	Septiembre	2023-03-09T00:00:00	2024-11-08T21:00:00	7	Dirección del viento	4.83
170423	7	Sololá	719	Santiago Atitlán	14	Cerro de Oro	9	Septiembre	2023-03-09T00:00:00	2024-11-08T21:00:00	1	Precipitación	0.4
170424	7	Sololá	719	Santiago Atitlán	14	Cerro de Oro	9	Septiembre	2023-03-09T00:00:00	2024-11-08T21:00:00	8	Radiación solar	0
170425	7	Sololá	719	Santiago Atitlán	14	Cerro de Oro	9	Septiembre	2023-03-09T00:00:00	2024-11-08T22:00:00	2	Temperatura media	17.2
170426	7	Sololá	719	Santiago Atitlán	14	Cerro de Oro	9	Septiembre	2023-03-09T00:00:00	2024-11-08T22:00:00	4	Temperatura máxima	17.6
170427	7	Sololá	719	Santiago Atitlán	14	Cerro de Oro	9	Septiembre	2023-03-09T00:00:00	2024-11-08T22:00:00	3	Temperatura mínima	17
170428	7	Sololá	719	Santiago Atitlán	14	Cerro de Oro	9	Septiembre	2023-03-09T00:00:00	2024-11-08T22:00:00	5	Humedad	93
170429	7	Sololá	719	Santiago Atitlán	14	Cerro de Oro	9	Septiembre	2023-03-09T00:00:00	2024-11-08T22:00:00	6	Velocidad del viento	4.8
170430	7	Sololá	719	Santiago Atitlán	14	Cerro de Oro	9	Septiembre	2023-03-09T00:00:00	2024-11-08T22:00:00	7	Dirección del viento	4.83
170431	7	Sololá	719	Santiago Atitlán	14	Cerro de Oro	9	Septiembre	2023-03-09T00:00:00	2024-11-08T22:00:00	1	Precipitación	4
170432	7	Sololá	719	Santiago Atitlán	14	Cerro de Oro	9	Septiembre	2023-03-09T00:00:00	2024-11-08T22:00:00	8	Radiación solar	0
170433	7	Sololá	719	Santiago Atitlán	14	Cerro de Oro	9	Septiembre	2023-03-09T00:00:00	2024-11-08T23:00:00	2	Temperatura media	17.1
170434	7	Sololá	719	Santiago Atitlán	14	Cerro de Oro	9	Septiembre	2023-03-09T00:00:00	2024-11-08T23:00:00	4	Temperatura máxima	17.3
170435	7	Sololá	719	Santiago Atitlán	14	Cerro de Oro	9	Septiembre	2023-03-09T00:00:00	2024-11-08T23:00:00	3	Temperatura mínima	17
170436	7	Sololá	719	Santiago Atitlán	14	Cerro de Oro	9	Septiembre	2023-03-09T00:00:00	2024-11-08T23:00:00	5	Humedad	90
170437	7	Sololá	719	Santiago Atitlán	14	Cerro de Oro	9	Septiembre	2023-03-09T00:00:00	2024-11-08T23:00:00	6	Velocidad del viento	4.8
170438	7	Sololá	719	Santiago Atitlán	14	Cerro de Oro	9	Septiembre	2023-03-09T00:00:00	2024-11-08T23:00:00	7	Dirección del viento	4.83
170439	7	Sololá	719	Santiago Atitlán	14	Cerro de Oro	9	Septiembre	2023-03-09T00:00:00	2024-11-08T23:00:00	1	Precipitación	1
170440	7	Sololá	719	Santiago Atitlán	14	Cerro de Oro	9	Septiembre	2023-03-09T00:00:00	2024-11-08T23:00:00	8	Radiación solar	0
170441	7	Sololá	719	Santiago Atitlán	14	Cerro de Oro	9	Septiembre	2023-04-09T00:00:00	2024-11-08T00:00:00	2	Temperatura media	17.2
170442	7	Sololá	719	Santiago Atitlán	14	Cerro de Oro	9	Septiembre	2023-04-09T00:00:00	2024-11-08T00:00:00	4	Temperatura máxima	17.4
170443	7	Sololá	719	Santiago Atitlán	14	Cerro de Oro	9	Septiembre	2023-04-09T00:00:00	2024-11-08T00:00:00	3	Temperatura mínima	17.1
170444	7	Sololá	719	Santiago Atitlán	14	Cerro de Oro	9	Septiembre	2023-04-09T00:00:00	2024-11-08T00:00:00	5	Humedad	91
170445	7	Sololá	719	Santiago Atitlán	14	Cerro de Oro	9	Septiembre	2023-04-09T00:00:00	2024-11-08T00:00:00	6	Velocidad del viento	3.2
170446	7	Sololá	719	Santiago Atitlán	14	Cerro de Oro	9	Septiembre	2023-04-09T00:00:00	2024-11-08T00:00:00	7	Dirección del viento	3.22
170447	7	Sololá	719	Santiago Atitlán	14	Cerro de Oro	9	Septiembre	2023-04-09T00:00:00	2024-11-08T00:00:00	1	Precipitación	0.2
170448	7	Sololá	719	Santiago Atitlán	14	Cerro de Oro	9	Septiembre	2023-04-09T00:00:00	2024-11-08T00:00:00	8	Radiación solar	0
170449	7	Sololá	719	Santiago Atitlán	14	Cerro de Oro	9	Septiembre	2023-04-09T00:00:00	2024-11-08T01:00:00	2	Temperatura media	17
170450	7	Sololá	719	Santiago Atitlán	14	Cerro de Oro	9	Septiembre	2023-04-09T00:00:00	2024-11-08T01:00:00	4	Temperatura máxima	17.2
170451	7	Sololá	719	Santiago Atitlán	14	Cerro de Oro	9	Septiembre	2023-04-09T00:00:00	2024-11-08T01:00:00	3	Temperatura mínima	17
170452	7	Sololá	719	Santiago Atitlán	14	Cerro de Oro	9	Septiembre	2023-04-09T00:00:00	2024-11-08T01:00:00	5	Humedad	91
170453	7	Sololá	719	Santiago Atitlán	14	Cerro de Oro	9	Septiembre	2023-04-09T00:00:00	2024-11-08T01:00:00	6	Velocidad del viento	4.8
170454	7	Sololá	719	Santiago Atitlán	14	Cerro de Oro	9	Septiembre	2023-04-09T00:00:00	2024-11-08T01:00:00	7	Dirección del viento	4.83
170455	7	Sololá	719	Santiago Atitlán	14	Cerro de Oro	9	Septiembre	2023-04-09T00:00:00	2024-11-08T01:00:00	1	Precipitación	0
170456	7	Sololá	719	Santiago Atitlán	14	Cerro de Oro	9	Septiembre	2023-04-09T00:00:00	2024-11-08T01:00:00	8	Radiación solar	0
170457	7	Sololá	719	Santiago Atitlán	14	Cerro de Oro	9	Septiembre	2023-04-09T00:00:00	2024-11-08T02:00:00	2	Temperatura media	17.1
170458	7	Sololá	719	Santiago Atitlán	14	Cerro de Oro	9	Septiembre	2023-04-09T00:00:00	2024-11-08T02:00:00	4	Temperatura máxima	17.2
170459	7	Sololá	719	Santiago Atitlán	14	Cerro de Oro	9	Septiembre	2023-04-09T00:00:00	2024-11-08T02:00:00	3	Temperatura mínima	16.8
170460	7	Sololá	719	Santiago Atitlán	14	Cerro de Oro	9	Septiembre	2023-04-09T00:00:00	2024-11-08T02:00:00	5	Humedad	92
170461	7	Sololá	719	Santiago Atitlán	14	Cerro de Oro	9	Septiembre	2023-04-09T00:00:00	2024-11-08T02:00:00	6	Velocidad del viento	4.8
170462	7	Sololá	719	Santiago Atitlán	14	Cerro de Oro	9	Septiembre	2023-04-09T00:00:00	2024-11-08T02:00:00	7	Dirección del viento	4.83
170463	7	Sololá	719	Santiago Atitlán	14	Cerro de Oro	9	Septiembre	2023-04-09T00:00:00	2024-11-08T02:00:00	1	Precipitación	0
170464	7	Sololá	719	Santiago Atitlán	14	Cerro de Oro	9	Septiembre	2023-04-09T00:00:00	2024-11-08T02:00:00	8	Radiación solar	0
170465	7	Sololá	719	Santiago Atitlán	14	Cerro de Oro	9	Septiembre	2023-04-09T00:00:00	2024-11-08T03:00:00	2	Temperatura media	17.1
170466	7	Sololá	719	Santiago Atitlán	14	Cerro de Oro	9	Septiembre	2023-04-09T00:00:00	2024-11-08T03:00:00	4	Temperatura máxima	17.4
170467	7	Sololá	719	Santiago Atitlán	14	Cerro de Oro	9	Septiembre	2023-04-09T00:00:00	2024-11-08T03:00:00	3	Temperatura mínima	16.9
170468	7	Sololá	719	Santiago Atitlán	14	Cerro de Oro	9	Septiembre	2023-04-09T00:00:00	2024-11-08T03:00:00	5	Humedad	92
170469	7	Sololá	719	Santiago Atitlán	14	Cerro de Oro	9	Septiembre	2023-04-09T00:00:00	2024-11-08T03:00:00	6	Velocidad del viento	4.8
170470	7	Sololá	719	Santiago Atitlán	14	Cerro de Oro	9	Septiembre	2023-04-09T00:00:00	2024-11-08T03:00:00	7	Dirección del viento	4.83
170471	7	Sololá	719	Santiago Atitlán	14	Cerro de Oro	9	Septiembre	2023-04-09T00:00:00	2024-11-08T03:00:00	1	Precipitación	0
170472	7	Sololá	719	Santiago Atitlán	14	Cerro de Oro	9	Septiembre	2023-04-09T00:00:00	2024-11-08T03:00:00	8	Radiación solar	0
170473	7	Sololá	719	Santiago Atitlán	14	Cerro de Oro	9	Septiembre	2023-04-09T00:00:00	2024-11-08T04:00:00	2	Temperatura media	17.1
170474	7	Sololá	719	Santiago Atitlán	14	Cerro de Oro	9	Septiembre	2023-04-09T00:00:00	2024-11-08T04:00:00	4	Temperatura máxima	17.5
170475	7	Sololá	719	Santiago Atitlán	14	Cerro de Oro	9	Septiembre	2023-04-09T00:00:00	2024-11-08T04:00:00	3	Temperatura mínima	16.8
170476	7	Sololá	719	Santiago Atitlán	14	Cerro de Oro	9	Septiembre	2023-04-09T00:00:00	2024-11-08T04:00:00	5	Humedad	87
170477	7	Sololá	719	Santiago Atitlán	14	Cerro de Oro	9	Septiembre	2023-04-09T00:00:00	2024-11-08T04:00:00	6	Velocidad del viento	6.4
170478	7	Sololá	719	Santiago Atitlán	14	Cerro de Oro	9	Septiembre	2023-04-09T00:00:00	2024-11-08T04:00:00	7	Dirección del viento	6.44
170479	7	Sololá	719	Santiago Atitlán	14	Cerro de Oro	9	Septiembre	2023-04-09T00:00:00	2024-11-08T04:00:00	1	Precipitación	0
170480	7	Sololá	719	Santiago Atitlán	14	Cerro de Oro	9	Septiembre	2023-04-09T00:00:00	2024-11-08T04:00:00	8	Radiación solar	0
170481	7	Sololá	719	Santiago Atitlán	14	Cerro de Oro	9	Septiembre	2023-04-09T00:00:00	2024-11-08T05:00:00	2	Temperatura media	16.4
170482	7	Sololá	719	Santiago Atitlán	14	Cerro de Oro	9	Septiembre	2023-04-09T00:00:00	2024-11-08T05:00:00	4	Temperatura máxima	17.1
170483	7	Sololá	719	Santiago Atitlán	14	Cerro de Oro	9	Septiembre	2023-04-09T00:00:00	2024-11-08T05:00:00	3	Temperatura mínima	16.4
170484	7	Sololá	719	Santiago Atitlán	14	Cerro de Oro	9	Septiembre	2023-04-09T00:00:00	2024-11-08T05:00:00	5	Humedad	90
170485	7	Sololá	719	Santiago Atitlán	14	Cerro de Oro	9	Septiembre	2023-04-09T00:00:00	2024-11-08T05:00:00	6	Velocidad del viento	4.8
170486	7	Sololá	719	Santiago Atitlán	14	Cerro de Oro	9	Septiembre	2023-04-09T00:00:00	2024-11-08T05:00:00	7	Dirección del viento	4.83
170487	7	Sololá	719	Santiago Atitlán	14	Cerro de Oro	9	Septiembre	2023-04-09T00:00:00	2024-11-08T05:00:00	1	Precipitación	0
170488	7	Sololá	719	Santiago Atitlán	14	Cerro de Oro	9	Septiembre	2023-04-09T00:00:00	2024-11-08T05:00:00	8	Radiación solar	0
170489	7	Sololá	719	Santiago Atitlán	14	Cerro de Oro	9	Septiembre	2023-04-09T00:00:00	2024-11-08T06:00:00	2	Temperatura media	16.8
170490	7	Sololá	719	Santiago Atitlán	14	Cerro de Oro	9	Septiembre	2023-04-09T00:00:00	2024-11-08T06:00:00	4	Temperatura máxima	16.9
170491	7	Sololá	719	Santiago Atitlán	14	Cerro de Oro	9	Septiembre	2023-04-09T00:00:00	2024-11-08T06:00:00	3	Temperatura mínima	16.4
170492	7	Sololá	719	Santiago Atitlán	14	Cerro de Oro	9	Septiembre	2023-04-09T00:00:00	2024-11-08T06:00:00	5	Humedad	90
170493	7	Sololá	719	Santiago Atitlán	14	Cerro de Oro	9	Septiembre	2023-04-09T00:00:00	2024-11-08T06:00:00	6	Velocidad del viento	3.2
170494	7	Sololá	719	Santiago Atitlán	14	Cerro de Oro	9	Septiembre	2023-04-09T00:00:00	2024-11-08T06:00:00	7	Dirección del viento	3.22
170495	7	Sololá	719	Santiago Atitlán	14	Cerro de Oro	9	Septiembre	2023-04-09T00:00:00	2024-11-08T06:00:00	1	Precipitación	0
170496	7	Sololá	719	Santiago Atitlán	14	Cerro de Oro	9	Septiembre	2023-04-09T00:00:00	2024-11-08T06:00:00	8	Radiación solar	1
170497	7	Sololá	719	Santiago Atitlán	14	Cerro de Oro	9	Septiembre	2023-04-09T00:00:00	2024-11-08T07:00:00	2	Temperatura media	18.2
170498	7	Sololá	719	Santiago Atitlán	14	Cerro de Oro	9	Septiembre	2023-04-09T00:00:00	2024-11-08T07:00:00	4	Temperatura máxima	18.3
170499	7	Sololá	719	Santiago Atitlán	14	Cerro de Oro	9	Septiembre	2023-04-09T00:00:00	2024-11-08T07:00:00	3	Temperatura mínima	16.7
170500	7	Sololá	719	Santiago Atitlán	14	Cerro de Oro	9	Septiembre	2023-04-09T00:00:00	2024-11-08T07:00:00	5	Humedad	82
170501	7	Sololá	719	Santiago Atitlán	14	Cerro de Oro	9	Septiembre	2023-04-09T00:00:00	2024-11-08T07:00:00	6	Velocidad del viento	3.2
170502	7	Sololá	719	Santiago Atitlán	14	Cerro de Oro	9	Septiembre	2023-04-09T00:00:00	2024-11-08T07:00:00	7	Dirección del viento	3.22
170503	7	Sololá	719	Santiago Atitlán	14	Cerro de Oro	9	Septiembre	2023-04-09T00:00:00	2024-11-08T07:00:00	1	Precipitación	0
170504	7	Sololá	719	Santiago Atitlán	14	Cerro de Oro	9	Septiembre	2023-04-09T00:00:00	2024-11-08T07:00:00	8	Radiación solar	68
170505	7	Sololá	719	Santiago Atitlán	14	Cerro de Oro	9	Septiembre	2023-04-09T00:00:00	2024-11-08T08:00:00	2	Temperatura media	20.9
170506	7	Sololá	719	Santiago Atitlán	14	Cerro de Oro	9	Septiembre	2023-04-09T00:00:00	2024-11-08T08:00:00	4	Temperatura máxima	20.9
170507	7	Sololá	719	Santiago Atitlán	14	Cerro de Oro	9	Septiembre	2023-04-09T00:00:00	2024-11-08T08:00:00	3	Temperatura mínima	18.2
170508	7	Sololá	719	Santiago Atitlán	14	Cerro de Oro	9	Septiembre	2023-04-09T00:00:00	2024-11-08T08:00:00	5	Humedad	75
170509	7	Sololá	719	Santiago Atitlán	14	Cerro de Oro	9	Septiembre	2023-04-09T00:00:00	2024-11-08T08:00:00	6	Velocidad del viento	1.6
170510	7	Sololá	719	Santiago Atitlán	14	Cerro de Oro	9	Septiembre	2023-04-09T00:00:00	2024-11-08T08:00:00	7	Dirección del viento	1.61
170511	7	Sololá	719	Santiago Atitlán	14	Cerro de Oro	9	Septiembre	2023-04-09T00:00:00	2024-11-08T08:00:00	1	Precipitación	0
170512	7	Sololá	719	Santiago Atitlán	14	Cerro de Oro	9	Septiembre	2023-04-09T00:00:00	2024-11-08T08:00:00	8	Radiación solar	244
170513	7	Sololá	719	Santiago Atitlán	14	Cerro de Oro	9	Septiembre	2023-04-09T00:00:00	2024-11-08T09:00:00	2	Temperatura media	22.6
170514	7	Sololá	719	Santiago Atitlán	14	Cerro de Oro	9	Septiembre	2023-04-09T00:00:00	2024-11-08T09:00:00	4	Temperatura máxima	22.8
170515	7	Sololá	719	Santiago Atitlán	14	Cerro de Oro	9	Septiembre	2023-04-09T00:00:00	2024-11-08T09:00:00	3	Temperatura mínima	21
170516	7	Sololá	719	Santiago Atitlán	14	Cerro de Oro	9	Septiembre	2023-04-09T00:00:00	2024-11-08T09:00:00	5	Humedad	71
170517	7	Sololá	719	Santiago Atitlán	14	Cerro de Oro	9	Septiembre	2023-04-09T00:00:00	2024-11-08T09:00:00	6	Velocidad del viento	1.6
170518	7	Sololá	719	Santiago Atitlán	14	Cerro de Oro	9	Septiembre	2023-04-09T00:00:00	2024-11-08T09:00:00	7	Dirección del viento	1.61
170519	7	Sololá	719	Santiago Atitlán	14	Cerro de Oro	9	Septiembre	2023-04-09T00:00:00	2024-11-08T09:00:00	1	Precipitación	0
170520	7	Sololá	719	Santiago Atitlán	14	Cerro de Oro	9	Septiembre	2023-04-09T00:00:00	2024-11-08T09:00:00	8	Radiación solar	428
170521	7	Sololá	719	Santiago Atitlán	14	Cerro de Oro	9	Septiembre	2023-04-09T00:00:00	2024-11-08T10:00:00	2	Temperatura media	22.4
170522	7	Sololá	719	Santiago Atitlán	14	Cerro de Oro	9	Septiembre	2023-04-09T00:00:00	2024-11-08T10:00:00	4	Temperatura máxima	22.6
170523	7	Sololá	719	Santiago Atitlán	14	Cerro de Oro	9	Septiembre	2023-04-09T00:00:00	2024-11-08T10:00:00	3	Temperatura mínima	21.7
170524	7	Sololá	719	Santiago Atitlán	14	Cerro de Oro	9	Septiembre	2023-04-09T00:00:00	2024-11-08T10:00:00	5	Humedad	74
170525	7	Sololá	719	Santiago Atitlán	14	Cerro de Oro	9	Septiembre	2023-04-09T00:00:00	2024-11-08T10:00:00	6	Velocidad del viento	4.8
170526	7	Sololá	719	Santiago Atitlán	14	Cerro de Oro	9	Septiembre	2023-04-09T00:00:00	2024-11-08T10:00:00	7	Dirección del viento	4.83
170527	7	Sololá	719	Santiago Atitlán	14	Cerro de Oro	9	Septiembre	2023-04-09T00:00:00	2024-11-08T10:00:00	1	Precipitación	0
170528	7	Sololá	719	Santiago Atitlán	14	Cerro de Oro	9	Septiembre	2023-04-09T00:00:00	2024-11-08T10:00:00	8	Radiación solar	641
170529	7	Sololá	719	Santiago Atitlán	14	Cerro de Oro	9	Septiembre	2023-04-09T00:00:00	2024-11-08T11:00:00	2	Temperatura media	25
170530	7	Sololá	719	Santiago Atitlán	14	Cerro de Oro	9	Septiembre	2023-04-09T00:00:00	2024-11-08T11:00:00	4	Temperatura máxima	25.1
170531	7	Sololá	719	Santiago Atitlán	14	Cerro de Oro	9	Septiembre	2023-04-09T00:00:00	2024-11-08T11:00:00	3	Temperatura mínima	21.9
170532	7	Sololá	719	Santiago Atitlán	14	Cerro de Oro	9	Septiembre	2023-04-09T00:00:00	2024-11-08T11:00:00	5	Humedad	62
170533	7	Sololá	719	Santiago Atitlán	14	Cerro de Oro	9	Septiembre	2023-04-09T00:00:00	2024-11-08T11:00:00	6	Velocidad del viento	3.2
170534	7	Sololá	719	Santiago Atitlán	14	Cerro de Oro	9	Septiembre	2023-04-09T00:00:00	2024-11-08T11:00:00	7	Dirección del viento	3.22
170535	7	Sololá	719	Santiago Atitlán	14	Cerro de Oro	9	Septiembre	2023-04-09T00:00:00	2024-11-08T11:00:00	1	Precipitación	0
170536	7	Sololá	719	Santiago Atitlán	14	Cerro de Oro	9	Septiembre	2023-04-09T00:00:00	2024-11-08T11:00:00	8	Radiación solar	755
170537	7	Sololá	719	Santiago Atitlán	14	Cerro de Oro	9	Septiembre	2023-04-09T00:00:00	2024-11-08T12:00:00	2	Temperatura media	24.7
170538	7	Sololá	719	Santiago Atitlán	14	Cerro de Oro	9	Septiembre	2023-04-09T00:00:00	2024-11-08T12:00:00	4	Temperatura máxima	25
170539	7	Sololá	719	Santiago Atitlán	14	Cerro de Oro	9	Septiembre	2023-04-09T00:00:00	2024-11-08T12:00:00	3	Temperatura mínima	23.3
170540	7	Sololá	719	Santiago Atitlán	14	Cerro de Oro	9	Septiembre	2023-04-09T00:00:00	2024-11-08T12:00:00	5	Humedad	71
170541	7	Sololá	719	Santiago Atitlán	14	Cerro de Oro	9	Septiembre	2023-04-09T00:00:00	2024-11-08T12:00:00	6	Velocidad del viento	8
170542	7	Sololá	719	Santiago Atitlán	14	Cerro de Oro	9	Septiembre	2023-04-09T00:00:00	2024-11-08T12:00:00	7	Dirección del viento	8.05
170543	7	Sololá	719	Santiago Atitlán	14	Cerro de Oro	9	Septiembre	2023-04-09T00:00:00	2024-11-08T12:00:00	1	Precipitación	0
170544	7	Sololá	719	Santiago Atitlán	14	Cerro de Oro	9	Septiembre	2023-04-09T00:00:00	2024-11-08T12:00:00	8	Radiación solar	944
170545	7	Sololá	719	Santiago Atitlán	14	Cerro de Oro	9	Septiembre	2023-04-09T00:00:00	2024-11-08T13:00:00	2	Temperatura media	22.8
170546	7	Sololá	719	Santiago Atitlán	14	Cerro de Oro	9	Septiembre	2023-04-09T00:00:00	2024-11-08T13:00:00	4	Temperatura máxima	24.8
170547	7	Sololá	719	Santiago Atitlán	14	Cerro de Oro	9	Septiembre	2023-04-09T00:00:00	2024-11-08T13:00:00	3	Temperatura mínima	22.8
170548	7	Sololá	719	Santiago Atitlán	14	Cerro de Oro	9	Septiembre	2023-04-09T00:00:00	2024-11-08T13:00:00	5	Humedad	78
170549	7	Sololá	719	Santiago Atitlán	14	Cerro de Oro	9	Septiembre	2023-04-09T00:00:00	2024-11-08T13:00:00	6	Velocidad del viento	14.5
170550	7	Sololá	719	Santiago Atitlán	14	Cerro de Oro	9	Septiembre	2023-04-09T00:00:00	2024-11-08T13:00:00	7	Dirección del viento	14.48
170551	7	Sololá	719	Santiago Atitlán	14	Cerro de Oro	9	Septiembre	2023-04-09T00:00:00	2024-11-08T13:00:00	1	Precipitación	0
170552	7	Sololá	719	Santiago Atitlán	14	Cerro de Oro	9	Septiembre	2023-04-09T00:00:00	2024-11-08T13:00:00	8	Radiación solar	796
170553	7	Sololá	719	Santiago Atitlán	14	Cerro de Oro	9	Septiembre	2023-04-09T00:00:00	2024-11-08T14:00:00	2	Temperatura media	21.3
170554	7	Sololá	719	Santiago Atitlán	14	Cerro de Oro	9	Septiembre	2023-04-09T00:00:00	2024-11-08T14:00:00	4	Temperatura máxima	22.9
170555	7	Sololá	719	Santiago Atitlán	14	Cerro de Oro	9	Septiembre	2023-04-09T00:00:00	2024-11-08T14:00:00	3	Temperatura mínima	21.3
170556	7	Sololá	719	Santiago Atitlán	14	Cerro de Oro	9	Septiembre	2023-04-09T00:00:00	2024-11-08T14:00:00	5	Humedad	82
170557	7	Sololá	719	Santiago Atitlán	14	Cerro de Oro	9	Septiembre	2023-04-09T00:00:00	2024-11-08T14:00:00	6	Velocidad del viento	14.5
170558	7	Sololá	719	Santiago Atitlán	14	Cerro de Oro	9	Septiembre	2023-04-09T00:00:00	2024-11-08T14:00:00	7	Dirección del viento	14.48
170559	7	Sololá	719	Santiago Atitlán	14	Cerro de Oro	9	Septiembre	2023-04-09T00:00:00	2024-11-08T14:00:00	1	Precipitación	0
170560	7	Sololá	719	Santiago Atitlán	14	Cerro de Oro	9	Septiembre	2023-04-09T00:00:00	2024-11-08T14:00:00	8	Radiación solar	333
170561	7	Sololá	719	Santiago Atitlán	14	Cerro de Oro	9	Septiembre	2023-04-09T00:00:00	2024-11-08T15:00:00	2	Temperatura media	20.5
170562	7	Sololá	719	Santiago Atitlán	14	Cerro de Oro	9	Septiembre	2023-04-09T00:00:00	2024-11-08T15:00:00	4	Temperatura máxima	21.9
170563	7	Sololá	719	Santiago Atitlán	14	Cerro de Oro	9	Septiembre	2023-04-09T00:00:00	2024-11-08T15:00:00	3	Temperatura mínima	20.5
170564	7	Sololá	719	Santiago Atitlán	14	Cerro de Oro	9	Septiembre	2023-04-09T00:00:00	2024-11-08T15:00:00	5	Humedad	84
170565	7	Sololá	719	Santiago Atitlán	14	Cerro de Oro	9	Septiembre	2023-04-09T00:00:00	2024-11-08T15:00:00	6	Velocidad del viento	8
170566	7	Sololá	719	Santiago Atitlán	14	Cerro de Oro	9	Septiembre	2023-04-09T00:00:00	2024-11-08T15:00:00	7	Dirección del viento	8.05
170567	7	Sololá	719	Santiago Atitlán	14	Cerro de Oro	9	Septiembre	2023-04-09T00:00:00	2024-11-08T15:00:00	1	Precipitación	0
170568	7	Sololá	719	Santiago Atitlán	14	Cerro de Oro	9	Septiembre	2023-04-09T00:00:00	2024-11-08T15:00:00	8	Radiación solar	363
170569	7	Sololá	719	Santiago Atitlán	14	Cerro de Oro	9	Septiembre	2023-04-09T00:00:00	2024-11-08T16:00:00	2	Temperatura media	19.4
170570	7	Sololá	719	Santiago Atitlán	14	Cerro de Oro	9	Septiembre	2023-04-09T00:00:00	2024-11-08T16:00:00	4	Temperatura máxima	20.5
170571	7	Sololá	719	Santiago Atitlán	14	Cerro de Oro	9	Septiembre	2023-04-09T00:00:00	2024-11-08T16:00:00	3	Temperatura mínima	19.2
170572	7	Sololá	719	Santiago Atitlán	14	Cerro de Oro	9	Septiembre	2023-04-09T00:00:00	2024-11-08T16:00:00	5	Humedad	83
170573	7	Sololá	719	Santiago Atitlán	14	Cerro de Oro	9	Septiembre	2023-04-09T00:00:00	2024-11-08T16:00:00	6	Velocidad del viento	9.7
170574	7	Sololá	719	Santiago Atitlán	14	Cerro de Oro	9	Septiembre	2023-04-09T00:00:00	2024-11-08T16:00:00	7	Dirección del viento	9.66
170575	7	Sololá	719	Santiago Atitlán	14	Cerro de Oro	9	Septiembre	2023-04-09T00:00:00	2024-11-08T16:00:00	1	Precipitación	0
170576	7	Sololá	719	Santiago Atitlán	14	Cerro de Oro	9	Septiembre	2023-04-09T00:00:00	2024-11-08T16:00:00	8	Radiación solar	86
170577	7	Sololá	719	Santiago Atitlán	14	Cerro de Oro	9	Septiembre	2023-04-09T00:00:00	2024-11-08T17:00:00	2	Temperatura media	18.1
170578	7	Sololá	719	Santiago Atitlán	14	Cerro de Oro	9	Septiembre	2023-04-09T00:00:00	2024-11-08T17:00:00	4	Temperatura máxima	19.4
170579	7	Sololá	719	Santiago Atitlán	14	Cerro de Oro	9	Septiembre	2023-04-09T00:00:00	2024-11-08T17:00:00	3	Temperatura mínima	17.9
170580	7	Sololá	719	Santiago Atitlán	14	Cerro de Oro	9	Septiembre	2023-04-09T00:00:00	2024-11-08T17:00:00	5	Humedad	93
170581	7	Sololá	719	Santiago Atitlán	14	Cerro de Oro	9	Septiembre	2023-04-09T00:00:00	2024-11-08T17:00:00	6	Velocidad del viento	4.8
170582	7	Sololá	719	Santiago Atitlán	14	Cerro de Oro	9	Septiembre	2023-04-09T00:00:00	2024-11-08T17:00:00	7	Dirección del viento	4.83
170583	7	Sololá	719	Santiago Atitlán	14	Cerro de Oro	9	Septiembre	2023-04-09T00:00:00	2024-11-08T17:00:00	1	Precipitación	7.4
170584	7	Sololá	719	Santiago Atitlán	14	Cerro de Oro	9	Septiembre	2023-04-09T00:00:00	2024-11-08T17:00:00	8	Radiación solar	35
170585	7	Sololá	719	Santiago Atitlán	14	Cerro de Oro	9	Septiembre	2023-04-09T00:00:00	2024-11-08T18:00:00	2	Temperatura media	17.8
170586	7	Sololá	719	Santiago Atitlán	14	Cerro de Oro	9	Septiembre	2023-04-09T00:00:00	2024-11-08T18:00:00	4	Temperatura máxima	18.1
170587	7	Sololá	719	Santiago Atitlán	14	Cerro de Oro	9	Septiembre	2023-04-09T00:00:00	2024-11-08T18:00:00	3	Temperatura mínima	17.8
170588	7	Sololá	719	Santiago Atitlán	14	Cerro de Oro	9	Septiembre	2023-04-09T00:00:00	2024-11-08T18:00:00	5	Humedad	91
170589	7	Sololá	719	Santiago Atitlán	14	Cerro de Oro	9	Septiembre	2023-04-09T00:00:00	2024-11-08T18:00:00	6	Velocidad del viento	3.2
170590	7	Sololá	719	Santiago Atitlán	14	Cerro de Oro	9	Septiembre	2023-04-09T00:00:00	2024-11-08T18:00:00	7	Dirección del viento	3.22
170591	7	Sololá	719	Santiago Atitlán	14	Cerro de Oro	9	Septiembre	2023-04-09T00:00:00	2024-11-08T18:00:00	1	Precipitación	1.4
170592	7	Sololá	719	Santiago Atitlán	14	Cerro de Oro	9	Septiembre	2023-04-09T00:00:00	2024-11-08T18:00:00	8	Radiación solar	13
170593	7	Sololá	719	Santiago Atitlán	14	Cerro de Oro	9	Septiembre	2023-04-09T00:00:00	2024-11-08T19:00:00	2	Temperatura media	17.8
170594	7	Sololá	719	Santiago Atitlán	14	Cerro de Oro	9	Septiembre	2023-04-09T00:00:00	2024-11-08T19:00:00	4	Temperatura máxima	17.8
170595	7	Sololá	719	Santiago Atitlán	14	Cerro de Oro	9	Septiembre	2023-04-09T00:00:00	2024-11-08T19:00:00	3	Temperatura mínima	17.6
170596	7	Sololá	719	Santiago Atitlán	14	Cerro de Oro	9	Septiembre	2023-04-09T00:00:00	2024-11-08T19:00:00	5	Humedad	93
170597	7	Sololá	719	Santiago Atitlán	14	Cerro de Oro	9	Septiembre	2023-04-09T00:00:00	2024-11-08T19:00:00	6	Velocidad del viento	1.6
170598	7	Sololá	719	Santiago Atitlán	14	Cerro de Oro	9	Septiembre	2023-04-09T00:00:00	2024-11-08T19:00:00	7	Dirección del viento	1.61
170599	7	Sololá	719	Santiago Atitlán	14	Cerro de Oro	9	Septiembre	2023-04-09T00:00:00	2024-11-08T19:00:00	1	Precipitación	0
170600	7	Sololá	719	Santiago Atitlán	14	Cerro de Oro	9	Septiembre	2023-04-09T00:00:00	2024-11-08T19:00:00	8	Radiación solar	0
170601	7	Sololá	719	Santiago Atitlán	14	Cerro de Oro	9	Septiembre	2023-04-09T00:00:00	2024-11-08T20:00:00	2	Temperatura media	17.9
170602	7	Sololá	719	Santiago Atitlán	14	Cerro de Oro	9	Septiembre	2023-04-09T00:00:00	2024-11-08T20:00:00	4	Temperatura máxima	18
170603	7	Sololá	719	Santiago Atitlán	14	Cerro de Oro	9	Septiembre	2023-04-09T00:00:00	2024-11-08T20:00:00	3	Temperatura mínima	17.7
170604	7	Sololá	719	Santiago Atitlán	14	Cerro de Oro	9	Septiembre	2023-04-09T00:00:00	2024-11-08T20:00:00	5	Humedad	93
170605	7	Sololá	719	Santiago Atitlán	14	Cerro de Oro	9	Septiembre	2023-04-09T00:00:00	2024-11-08T20:00:00	6	Velocidad del viento	1.6
170606	7	Sololá	719	Santiago Atitlán	14	Cerro de Oro	9	Septiembre	2023-04-09T00:00:00	2024-11-08T20:00:00	7	Dirección del viento	1.61
170607	7	Sololá	719	Santiago Atitlán	14	Cerro de Oro	9	Septiembre	2023-04-09T00:00:00	2024-11-08T20:00:00	1	Precipitación	0
170608	7	Sololá	719	Santiago Atitlán	14	Cerro de Oro	9	Septiembre	2023-04-09T00:00:00	2024-11-08T20:00:00	8	Radiación solar	0
170609	7	Sololá	719	Santiago Atitlán	14	Cerro de Oro	9	Septiembre	2023-04-09T00:00:00	2024-11-08T21:00:00	2	Temperatura media	17.6
170610	7	Sololá	719	Santiago Atitlán	14	Cerro de Oro	9	Septiembre	2023-04-09T00:00:00	2024-11-08T21:00:00	4	Temperatura máxima	18
170611	7	Sololá	719	Santiago Atitlán	14	Cerro de Oro	9	Septiembre	2023-04-09T00:00:00	2024-11-08T21:00:00	3	Temperatura mínima	17.6
170612	7	Sololá	719	Santiago Atitlán	14	Cerro de Oro	9	Septiembre	2023-04-09T00:00:00	2024-11-08T21:00:00	5	Humedad	93
170613	7	Sololá	719	Santiago Atitlán	14	Cerro de Oro	9	Septiembre	2023-04-09T00:00:00	2024-11-08T21:00:00	6	Velocidad del viento	3.2
170614	7	Sololá	719	Santiago Atitlán	14	Cerro de Oro	9	Septiembre	2023-04-09T00:00:00	2024-11-08T21:00:00	7	Dirección del viento	3.22
170615	7	Sololá	719	Santiago Atitlán	14	Cerro de Oro	9	Septiembre	2023-04-09T00:00:00	2024-11-08T21:00:00	1	Precipitación	0
170616	7	Sololá	719	Santiago Atitlán	14	Cerro de Oro	9	Septiembre	2023-04-09T00:00:00	2024-11-08T21:00:00	8	Radiación solar	0
170617	7	Sololá	719	Santiago Atitlán	14	Cerro de Oro	9	Septiembre	2023-04-09T00:00:00	2024-11-08T22:00:00	2	Temperatura media	17.7
170618	7	Sololá	719	Santiago Atitlán	14	Cerro de Oro	9	Septiembre	2023-04-09T00:00:00	2024-11-08T22:00:00	4	Temperatura máxima	17.9
170619	7	Sololá	719	Santiago Atitlán	14	Cerro de Oro	9	Septiembre	2023-04-09T00:00:00	2024-11-08T22:00:00	3	Temperatura mínima	17.5
170620	7	Sololá	719	Santiago Atitlán	14	Cerro de Oro	9	Septiembre	2023-04-09T00:00:00	2024-11-08T22:00:00	5	Humedad	92
170621	7	Sololá	719	Santiago Atitlán	14	Cerro de Oro	9	Septiembre	2023-04-09T00:00:00	2024-11-08T22:00:00	6	Velocidad del viento	3.2
170622	7	Sololá	719	Santiago Atitlán	14	Cerro de Oro	9	Septiembre	2023-04-09T00:00:00	2024-11-08T22:00:00	7	Dirección del viento	3.22
170623	7	Sololá	719	Santiago Atitlán	14	Cerro de Oro	9	Septiembre	2023-04-09T00:00:00	2024-11-08T22:00:00	1	Precipitación	0
170624	7	Sololá	719	Santiago Atitlán	14	Cerro de Oro	9	Septiembre	2023-04-09T00:00:00	2024-11-08T22:00:00	8	Radiación solar	0
170625	7	Sololá	719	Santiago Atitlán	14	Cerro de Oro	9	Septiembre	2023-04-09T00:00:00	2024-11-08T23:00:00	2	Temperatura media	17.7
170626	7	Sololá	719	Santiago Atitlán	14	Cerro de Oro	9	Septiembre	2023-04-09T00:00:00	2024-11-08T23:00:00	4	Temperatura máxima	17.8
170627	7	Sololá	719	Santiago Atitlán	14	Cerro de Oro	9	Septiembre	2023-04-09T00:00:00	2024-11-08T23:00:00	3	Temperatura mínima	17.6
170628	7	Sololá	719	Santiago Atitlán	14	Cerro de Oro	9	Septiembre	2023-04-09T00:00:00	2024-11-08T23:00:00	5	Humedad	93
170629	7	Sololá	719	Santiago Atitlán	14	Cerro de Oro	9	Septiembre	2023-04-09T00:00:00	2024-11-08T23:00:00	6	Velocidad del viento	3.2
170630	7	Sololá	719	Santiago Atitlán	14	Cerro de Oro	9	Septiembre	2023-04-09T00:00:00	2024-11-08T23:00:00	7	Dirección del viento	3.22
170631	7	Sololá	719	Santiago Atitlán	14	Cerro de Oro	9	Septiembre	2023-04-09T00:00:00	2024-11-08T23:00:00	1	Precipitación	0
170632	7	Sololá	719	Santiago Atitlán	14	Cerro de Oro	9	Septiembre	2023-04-09T00:00:00	2024-11-08T23:00:00	8	Radiación solar	0
170633	7	Sololá	719	Santiago Atitlán	14	Cerro de Oro	9	Septiembre	2023-05-09T00:00:00	2024-11-08T00:00:00	2	Temperatura media	17.7
170634	7	Sololá	719	Santiago Atitlán	14	Cerro de Oro	9	Septiembre	2023-05-09T00:00:00	2024-11-08T00:00:00	4	Temperatura máxima	17.8
170635	7	Sololá	719	Santiago Atitlán	14	Cerro de Oro	9	Septiembre	2023-05-09T00:00:00	2024-11-08T00:00:00	3	Temperatura mínima	17.6
170636	7	Sololá	719	Santiago Atitlán	14	Cerro de Oro	9	Septiembre	2023-05-09T00:00:00	2024-11-08T00:00:00	5	Humedad	92
170637	7	Sololá	719	Santiago Atitlán	14	Cerro de Oro	9	Septiembre	2023-05-09T00:00:00	2024-11-08T00:00:00	6	Velocidad del viento	3.2
170638	7	Sololá	719	Santiago Atitlán	14	Cerro de Oro	9	Septiembre	2023-05-09T00:00:00	2024-11-08T00:00:00	7	Dirección del viento	3.22
170639	7	Sololá	719	Santiago Atitlán	14	Cerro de Oro	9	Septiembre	2023-05-09T00:00:00	2024-11-08T00:00:00	1	Precipitación	0
170640	7	Sololá	719	Santiago Atitlán	14	Cerro de Oro	9	Septiembre	2023-05-09T00:00:00	2024-11-08T00:00:00	8	Radiación solar	0
170641	7	Sololá	719	Santiago Atitlán	14	Cerro de Oro	9	Septiembre	2023-05-09T00:00:00	2024-11-08T01:00:00	2	Temperatura media	17.7
170642	7	Sololá	719	Santiago Atitlán	14	Cerro de Oro	9	Septiembre	2023-05-09T00:00:00	2024-11-08T01:00:00	4	Temperatura máxima	18
170643	7	Sololá	719	Santiago Atitlán	14	Cerro de Oro	9	Septiembre	2023-05-09T00:00:00	2024-11-08T01:00:00	3	Temperatura mínima	17.7
170644	7	Sololá	719	Santiago Atitlán	14	Cerro de Oro	9	Septiembre	2023-05-09T00:00:00	2024-11-08T01:00:00	5	Humedad	92
170645	7	Sololá	719	Santiago Atitlán	14	Cerro de Oro	9	Septiembre	2023-05-09T00:00:00	2024-11-08T01:00:00	6	Velocidad del viento	3.2
170646	7	Sololá	719	Santiago Atitlán	14	Cerro de Oro	9	Septiembre	2023-05-09T00:00:00	2024-11-08T01:00:00	7	Dirección del viento	3.22
170647	7	Sololá	719	Santiago Atitlán	14	Cerro de Oro	9	Septiembre	2023-05-09T00:00:00	2024-11-08T01:00:00	1	Precipitación	0
170648	7	Sololá	719	Santiago Atitlán	14	Cerro de Oro	9	Septiembre	2023-05-09T00:00:00	2024-11-08T01:00:00	8	Radiación solar	0
170649	7	Sololá	719	Santiago Atitlán	14	Cerro de Oro	9	Septiembre	2023-05-09T00:00:00	2024-11-08T02:00:00	2	Temperatura media	17.9
170650	7	Sololá	719	Santiago Atitlán	14	Cerro de Oro	9	Septiembre	2023-05-09T00:00:00	2024-11-08T02:00:00	4	Temperatura máxima	18.1
170651	7	Sololá	719	Santiago Atitlán	14	Cerro de Oro	9	Septiembre	2023-05-09T00:00:00	2024-11-08T02:00:00	3	Temperatura mínima	17.7
170652	7	Sololá	719	Santiago Atitlán	14	Cerro de Oro	9	Septiembre	2023-05-09T00:00:00	2024-11-08T02:00:00	5	Humedad	92
170653	7	Sololá	719	Santiago Atitlán	14	Cerro de Oro	9	Septiembre	2023-05-09T00:00:00	2024-11-08T02:00:00	6	Velocidad del viento	3.2
170654	7	Sololá	719	Santiago Atitlán	14	Cerro de Oro	9	Septiembre	2023-05-09T00:00:00	2024-11-08T02:00:00	7	Dirección del viento	3.22
170655	7	Sololá	719	Santiago Atitlán	14	Cerro de Oro	9	Septiembre	2023-05-09T00:00:00	2024-11-08T02:00:00	1	Precipitación	0
170656	7	Sololá	719	Santiago Atitlán	14	Cerro de Oro	9	Septiembre	2023-05-09T00:00:00	2024-11-08T02:00:00	8	Radiación solar	0
170657	7	Sololá	719	Santiago Atitlán	14	Cerro de Oro	9	Septiembre	2023-05-09T00:00:00	2024-11-08T03:00:00	2	Temperatura media	17.7
170658	7	Sololá	719	Santiago Atitlán	14	Cerro de Oro	9	Septiembre	2023-05-09T00:00:00	2024-11-08T03:00:00	4	Temperatura máxima	17.9
170659	7	Sololá	719	Santiago Atitlán	14	Cerro de Oro	9	Septiembre	2023-05-09T00:00:00	2024-11-08T03:00:00	3	Temperatura mínima	17.6
170660	7	Sololá	719	Santiago Atitlán	14	Cerro de Oro	9	Septiembre	2023-05-09T00:00:00	2024-11-08T03:00:00	5	Humedad	92
170661	7	Sololá	719	Santiago Atitlán	14	Cerro de Oro	9	Septiembre	2023-05-09T00:00:00	2024-11-08T03:00:00	6	Velocidad del viento	3.2
170662	7	Sololá	719	Santiago Atitlán	14	Cerro de Oro	9	Septiembre	2023-05-09T00:00:00	2024-11-08T03:00:00	7	Dirección del viento	3.22
170663	7	Sololá	719	Santiago Atitlán	14	Cerro de Oro	9	Septiembre	2023-05-09T00:00:00	2024-11-08T03:00:00	1	Precipitación	0
170664	7	Sololá	719	Santiago Atitlán	14	Cerro de Oro	9	Septiembre	2023-05-09T00:00:00	2024-11-08T03:00:00	8	Radiación solar	0
170665	7	Sololá	719	Santiago Atitlán	14	Cerro de Oro	9	Septiembre	2023-05-09T00:00:00	2024-11-08T04:00:00	2	Temperatura media	17.7
170666	7	Sololá	719	Santiago Atitlán	14	Cerro de Oro	9	Septiembre	2023-05-09T00:00:00	2024-11-08T04:00:00	4	Temperatura máxima	17.9
170667	7	Sololá	719	Santiago Atitlán	14	Cerro de Oro	9	Septiembre	2023-05-09T00:00:00	2024-11-08T04:00:00	3	Temperatura mínima	17.7
170668	7	Sololá	719	Santiago Atitlán	14	Cerro de Oro	9	Septiembre	2023-05-09T00:00:00	2024-11-08T04:00:00	5	Humedad	91
170669	7	Sololá	719	Santiago Atitlán	14	Cerro de Oro	9	Septiembre	2023-05-09T00:00:00	2024-11-08T04:00:00	6	Velocidad del viento	4.8
170670	7	Sololá	719	Santiago Atitlán	14	Cerro de Oro	9	Septiembre	2023-05-09T00:00:00	2024-11-08T04:00:00	7	Dirección del viento	4.83
170671	7	Sololá	719	Santiago Atitlán	14	Cerro de Oro	9	Septiembre	2023-05-09T00:00:00	2024-11-08T04:00:00	1	Precipitación	0
170672	7	Sololá	719	Santiago Atitlán	14	Cerro de Oro	9	Septiembre	2023-05-09T00:00:00	2024-11-08T04:00:00	8	Radiación solar	0
170673	7	Sololá	719	Santiago Atitlán	14	Cerro de Oro	9	Septiembre	2023-05-09T00:00:00	2024-11-08T05:00:00	2	Temperatura media	17.3
170674	7	Sololá	719	Santiago Atitlán	14	Cerro de Oro	9	Septiembre	2023-05-09T00:00:00	2024-11-08T05:00:00	4	Temperatura máxima	17.8
170675	7	Sololá	719	Santiago Atitlán	14	Cerro de Oro	9	Septiembre	2023-05-09T00:00:00	2024-11-08T05:00:00	3	Temperatura mínima	17.3
170676	7	Sololá	719	Santiago Atitlán	14	Cerro de Oro	9	Septiembre	2023-05-09T00:00:00	2024-11-08T05:00:00	5	Humedad	90
170677	7	Sololá	719	Santiago Atitlán	14	Cerro de Oro	9	Septiembre	2023-05-09T00:00:00	2024-11-08T05:00:00	6	Velocidad del viento	3.2
170678	7	Sololá	719	Santiago Atitlán	14	Cerro de Oro	9	Septiembre	2023-05-09T00:00:00	2024-11-08T05:00:00	7	Dirección del viento	3.22
170679	7	Sololá	719	Santiago Atitlán	14	Cerro de Oro	9	Septiembre	2023-05-09T00:00:00	2024-11-08T05:00:00	1	Precipitación	0
170680	7	Sololá	719	Santiago Atitlán	14	Cerro de Oro	9	Septiembre	2023-05-09T00:00:00	2024-11-08T05:00:00	8	Radiación solar	0
170681	7	Sololá	719	Santiago Atitlán	14	Cerro de Oro	9	Septiembre	2023-05-09T00:00:00	2024-11-08T06:00:00	2	Temperatura media	17.5
170682	7	Sololá	719	Santiago Atitlán	14	Cerro de Oro	9	Septiembre	2023-05-09T00:00:00	2024-11-08T06:00:00	4	Temperatura máxima	17.6
170683	7	Sololá	719	Santiago Atitlán	14	Cerro de Oro	9	Septiembre	2023-05-09T00:00:00	2024-11-08T06:00:00	3	Temperatura mínima	17
170684	7	Sololá	719	Santiago Atitlán	14	Cerro de Oro	9	Septiembre	2023-05-09T00:00:00	2024-11-08T06:00:00	5	Humedad	89
170685	7	Sololá	719	Santiago Atitlán	14	Cerro de Oro	9	Septiembre	2023-05-09T00:00:00	2024-11-08T06:00:00	6	Velocidad del viento	4.8
170686	7	Sololá	719	Santiago Atitlán	14	Cerro de Oro	9	Septiembre	2023-05-09T00:00:00	2024-11-08T06:00:00	7	Dirección del viento	4.83
170687	7	Sololá	719	Santiago Atitlán	14	Cerro de Oro	9	Septiembre	2023-05-09T00:00:00	2024-11-08T06:00:00	1	Precipitación	0
170688	7	Sololá	719	Santiago Atitlán	14	Cerro de Oro	9	Septiembre	2023-05-09T00:00:00	2024-11-08T06:00:00	8	Radiación solar	1
170689	7	Sololá	719	Santiago Atitlán	14	Cerro de Oro	9	Septiembre	2023-05-09T00:00:00	2024-11-08T07:00:00	2	Temperatura media	19.6
170690	7	Sololá	719	Santiago Atitlán	14	Cerro de Oro	9	Septiembre	2023-05-09T00:00:00	2024-11-08T07:00:00	4	Temperatura máxima	19.6
170691	7	Sololá	719	Santiago Atitlán	14	Cerro de Oro	9	Septiembre	2023-05-09T00:00:00	2024-11-08T07:00:00	3	Temperatura mínima	17.5
170692	7	Sololá	719	Santiago Atitlán	14	Cerro de Oro	9	Septiembre	2023-05-09T00:00:00	2024-11-08T07:00:00	5	Humedad	80
170693	7	Sololá	719	Santiago Atitlán	14	Cerro de Oro	9	Septiembre	2023-05-09T00:00:00	2024-11-08T07:00:00	6	Velocidad del viento	4.8
170694	7	Sololá	719	Santiago Atitlán	14	Cerro de Oro	9	Septiembre	2023-05-09T00:00:00	2024-11-08T07:00:00	7	Dirección del viento	4.83
170695	7	Sololá	719	Santiago Atitlán	14	Cerro de Oro	9	Septiembre	2023-05-09T00:00:00	2024-11-08T07:00:00	1	Precipitación	0
170696	7	Sololá	719	Santiago Atitlán	14	Cerro de Oro	9	Septiembre	2023-05-09T00:00:00	2024-11-08T07:00:00	8	Radiación solar	96
170697	7	Sololá	719	Santiago Atitlán	14	Cerro de Oro	9	Septiembre	2023-05-09T00:00:00	2024-11-08T08:00:00	2	Temperatura media	20.9
170698	7	Sololá	719	Santiago Atitlán	14	Cerro de Oro	9	Septiembre	2023-05-09T00:00:00	2024-11-08T08:00:00	4	Temperatura máxima	20.9
170699	7	Sololá	719	Santiago Atitlán	14	Cerro de Oro	9	Septiembre	2023-05-09T00:00:00	2024-11-08T08:00:00	3	Temperatura mínima	19.6
170700	7	Sololá	719	Santiago Atitlán	14	Cerro de Oro	9	Septiembre	2023-05-09T00:00:00	2024-11-08T08:00:00	5	Humedad	77
170701	7	Sololá	719	Santiago Atitlán	14	Cerro de Oro	9	Septiembre	2023-05-09T00:00:00	2024-11-08T08:00:00	6	Velocidad del viento	3.2
170702	7	Sololá	719	Santiago Atitlán	14	Cerro de Oro	9	Septiembre	2023-05-09T00:00:00	2024-11-08T08:00:00	7	Dirección del viento	3.22
170703	7	Sololá	719	Santiago Atitlán	14	Cerro de Oro	9	Septiembre	2023-05-09T00:00:00	2024-11-08T08:00:00	1	Precipitación	0
170704	7	Sololá	719	Santiago Atitlán	14	Cerro de Oro	9	Septiembre	2023-05-09T00:00:00	2024-11-08T08:00:00	8	Radiación solar	308
170705	7	Sololá	719	Santiago Atitlán	14	Cerro de Oro	9	Septiembre	2023-05-09T00:00:00	2024-11-08T09:00:00	2	Temperatura media	21.4
170706	7	Sololá	719	Santiago Atitlán	14	Cerro de Oro	9	Septiembre	2023-05-09T00:00:00	2024-11-08T09:00:00	4	Temperatura máxima	21.7
170707	7	Sololá	719	Santiago Atitlán	14	Cerro de Oro	9	Septiembre	2023-05-09T00:00:00	2024-11-08T09:00:00	3	Temperatura mínima	20.9
170708	7	Sololá	719	Santiago Atitlán	14	Cerro de Oro	9	Septiembre	2023-05-09T00:00:00	2024-11-08T09:00:00	5	Humedad	77
170709	7	Sololá	719	Santiago Atitlán	14	Cerro de Oro	9	Septiembre	2023-05-09T00:00:00	2024-11-08T09:00:00	6	Velocidad del viento	3.2
170710	7	Sololá	719	Santiago Atitlán	14	Cerro de Oro	9	Septiembre	2023-05-09T00:00:00	2024-11-08T09:00:00	7	Dirección del viento	3.22
170711	7	Sololá	719	Santiago Atitlán	14	Cerro de Oro	9	Septiembre	2023-05-09T00:00:00	2024-11-08T09:00:00	1	Precipitación	0
170712	7	Sololá	719	Santiago Atitlán	14	Cerro de Oro	9	Septiembre	2023-05-09T00:00:00	2024-11-08T09:00:00	8	Radiación solar	405
170713	7	Sololá	719	Santiago Atitlán	14	Cerro de Oro	9	Septiembre	2023-05-09T00:00:00	2024-11-08T10:00:00	2	Temperatura media	23
170714	7	Sololá	719	Santiago Atitlán	14	Cerro de Oro	9	Septiembre	2023-05-09T00:00:00	2024-11-08T10:00:00	4	Temperatura máxima	23
170715	7	Sololá	719	Santiago Atitlán	14	Cerro de Oro	9	Septiembre	2023-05-09T00:00:00	2024-11-08T10:00:00	3	Temperatura mínima	21.4
170716	7	Sololá	719	Santiago Atitlán	14	Cerro de Oro	9	Septiembre	2023-05-09T00:00:00	2024-11-08T10:00:00	5	Humedad	73
170717	7	Sololá	719	Santiago Atitlán	14	Cerro de Oro	9	Septiembre	2023-05-09T00:00:00	2024-11-08T10:00:00	6	Velocidad del viento	6.4
170718	7	Sololá	719	Santiago Atitlán	14	Cerro de Oro	9	Septiembre	2023-05-09T00:00:00	2024-11-08T10:00:00	7	Dirección del viento	6.44
170719	7	Sololá	719	Santiago Atitlán	14	Cerro de Oro	9	Septiembre	2023-05-09T00:00:00	2024-11-08T10:00:00	1	Precipitación	0
170720	7	Sololá	719	Santiago Atitlán	14	Cerro de Oro	9	Septiembre	2023-05-09T00:00:00	2024-11-08T10:00:00	8	Radiación solar	625
170721	7	Sololá	719	Santiago Atitlán	14	Cerro de Oro	9	Septiembre	2023-05-09T00:00:00	2024-11-08T11:00:00	2	Temperatura media	23.6
170722	7	Sololá	719	Santiago Atitlán	14	Cerro de Oro	9	Septiembre	2023-05-09T00:00:00	2024-11-08T11:00:00	4	Temperatura máxima	24.1
170723	7	Sololá	719	Santiago Atitlán	14	Cerro de Oro	9	Septiembre	2023-05-09T00:00:00	2024-11-08T11:00:00	3	Temperatura mínima	23.1
170724	7	Sololá	719	Santiago Atitlán	14	Cerro de Oro	9	Septiembre	2023-05-09T00:00:00	2024-11-08T11:00:00	5	Humedad	74
170725	7	Sololá	719	Santiago Atitlán	14	Cerro de Oro	9	Septiembre	2023-05-09T00:00:00	2024-11-08T11:00:00	6	Velocidad del viento	9.7
170726	7	Sololá	719	Santiago Atitlán	14	Cerro de Oro	9	Septiembre	2023-05-09T00:00:00	2024-11-08T11:00:00	7	Dirección del viento	9.66
170727	7	Sololá	719	Santiago Atitlán	14	Cerro de Oro	9	Septiembre	2023-05-09T00:00:00	2024-11-08T11:00:00	1	Precipitación	0
170728	7	Sololá	719	Santiago Atitlán	14	Cerro de Oro	9	Septiembre	2023-05-09T00:00:00	2024-11-08T11:00:00	8	Radiación solar	865
170729	7	Sololá	719	Santiago Atitlán	14	Cerro de Oro	9	Septiembre	2023-05-09T00:00:00	2024-11-08T12:00:00	2	Temperatura media	22.6
170730	7	Sololá	719	Santiago Atitlán	14	Cerro de Oro	9	Septiembre	2023-05-09T00:00:00	2024-11-08T12:00:00	4	Temperatura máxima	23.8
170731	7	Sololá	719	Santiago Atitlán	14	Cerro de Oro	9	Septiembre	2023-05-09T00:00:00	2024-11-08T12:00:00	3	Temperatura mínima	22.6
170732	7	Sololá	719	Santiago Atitlán	14	Cerro de Oro	9	Septiembre	2023-05-09T00:00:00	2024-11-08T12:00:00	5	Humedad	78
170733	7	Sololá	719	Santiago Atitlán	14	Cerro de Oro	9	Septiembre	2023-05-09T00:00:00	2024-11-08T12:00:00	6	Velocidad del viento	11.3
170734	7	Sololá	719	Santiago Atitlán	14	Cerro de Oro	9	Septiembre	2023-05-09T00:00:00	2024-11-08T12:00:00	7	Dirección del viento	11.27
170735	7	Sololá	719	Santiago Atitlán	14	Cerro de Oro	9	Septiembre	2023-05-09T00:00:00	2024-11-08T12:00:00	1	Precipitación	0
170736	7	Sololá	719	Santiago Atitlán	14	Cerro de Oro	9	Septiembre	2023-05-09T00:00:00	2024-11-08T12:00:00	8	Radiación solar	944
170737	7	Sololá	719	Santiago Atitlán	14	Cerro de Oro	9	Septiembre	2023-05-09T00:00:00	2024-11-08T13:00:00	2	Temperatura media	23.3
170738	7	Sololá	719	Santiago Atitlán	14	Cerro de Oro	9	Septiembre	2023-05-09T00:00:00	2024-11-08T13:00:00	4	Temperatura máxima	23.8
170739	7	Sololá	719	Santiago Atitlán	14	Cerro de Oro	9	Septiembre	2023-05-09T00:00:00	2024-11-08T13:00:00	3	Temperatura mínima	22.6
170740	7	Sololá	719	Santiago Atitlán	14	Cerro de Oro	9	Septiembre	2023-05-09T00:00:00	2024-11-08T13:00:00	5	Humedad	77
170741	7	Sololá	719	Santiago Atitlán	14	Cerro de Oro	9	Septiembre	2023-05-09T00:00:00	2024-11-08T13:00:00	6	Velocidad del viento	9.7
170742	7	Sololá	719	Santiago Atitlán	14	Cerro de Oro	9	Septiembre	2023-05-09T00:00:00	2024-11-08T13:00:00	7	Dirección del viento	9.66
170743	7	Sololá	719	Santiago Atitlán	14	Cerro de Oro	9	Septiembre	2023-05-09T00:00:00	2024-11-08T13:00:00	1	Precipitación	0
170744	7	Sololá	719	Santiago Atitlán	14	Cerro de Oro	9	Septiembre	2023-05-09T00:00:00	2024-11-08T13:00:00	8	Radiación solar	951
170745	7	Sololá	719	Santiago Atitlán	14	Cerro de Oro	9	Septiembre	2023-05-09T00:00:00	2024-11-08T14:00:00	2	Temperatura media	20.1
170746	7	Sololá	719	Santiago Atitlán	14	Cerro de Oro	9	Septiembre	2023-05-09T00:00:00	2024-11-08T14:00:00	4	Temperatura máxima	23.4
170747	7	Sololá	719	Santiago Atitlán	14	Cerro de Oro	9	Septiembre	2023-05-09T00:00:00	2024-11-08T14:00:00	3	Temperatura mínima	20
170748	7	Sololá	719	Santiago Atitlán	14	Cerro de Oro	9	Septiembre	2023-05-09T00:00:00	2024-11-08T14:00:00	5	Humedad	91
170749	7	Sololá	719	Santiago Atitlán	14	Cerro de Oro	9	Septiembre	2023-05-09T00:00:00	2024-11-08T14:00:00	6	Velocidad del viento	9.7
170750	7	Sololá	719	Santiago Atitlán	14	Cerro de Oro	9	Septiembre	2023-05-09T00:00:00	2024-11-08T14:00:00	7	Dirección del viento	9.66
170751	7	Sololá	719	Santiago Atitlán	14	Cerro de Oro	9	Septiembre	2023-05-09T00:00:00	2024-11-08T14:00:00	1	Precipitación	4.8
170752	7	Sololá	719	Santiago Atitlán	14	Cerro de Oro	9	Septiembre	2023-05-09T00:00:00	2024-11-08T14:00:00	8	Radiación solar	268
170753	7	Sololá	719	Santiago Atitlán	14	Cerro de Oro	9	Septiembre	2023-05-09T00:00:00	2024-11-08T15:00:00	2	Temperatura media	18.2
170754	7	Sololá	719	Santiago Atitlán	14	Cerro de Oro	9	Septiembre	2023-05-09T00:00:00	2024-11-08T15:00:00	4	Temperatura máxima	20
170755	7	Sololá	719	Santiago Atitlán	14	Cerro de Oro	9	Septiembre	2023-05-09T00:00:00	2024-11-08T15:00:00	3	Temperatura mínima	18.2
170756	7	Sololá	719	Santiago Atitlán	14	Cerro de Oro	9	Septiembre	2023-05-09T00:00:00	2024-11-08T15:00:00	5	Humedad	88
170757	7	Sololá	719	Santiago Atitlán	14	Cerro de Oro	9	Septiembre	2023-05-09T00:00:00	2024-11-08T15:00:00	6	Velocidad del viento	4.8
170758	7	Sololá	719	Santiago Atitlán	14	Cerro de Oro	9	Septiembre	2023-05-09T00:00:00	2024-11-08T15:00:00	7	Dirección del viento	4.83
170759	7	Sololá	719	Santiago Atitlán	14	Cerro de Oro	9	Septiembre	2023-05-09T00:00:00	2024-11-08T15:00:00	1	Precipitación	3.2
170760	7	Sololá	719	Santiago Atitlán	14	Cerro de Oro	9	Septiembre	2023-05-09T00:00:00	2024-11-08T15:00:00	8	Radiación solar	36
170761	7	Sololá	719	Santiago Atitlán	14	Cerro de Oro	9	Septiembre	2023-05-09T00:00:00	2024-11-08T16:00:00	2	Temperatura media	17.8
170762	7	Sololá	719	Santiago Atitlán	14	Cerro de Oro	9	Septiembre	2023-05-09T00:00:00	2024-11-08T16:00:00	4	Temperatura máxima	18.2
170763	7	Sololá	719	Santiago Atitlán	14	Cerro de Oro	9	Septiembre	2023-05-09T00:00:00	2024-11-08T16:00:00	3	Temperatura mínima	17.5
170764	7	Sololá	719	Santiago Atitlán	14	Cerro de Oro	9	Septiembre	2023-05-09T00:00:00	2024-11-08T16:00:00	5	Humedad	91
170765	7	Sololá	719	Santiago Atitlán	14	Cerro de Oro	9	Septiembre	2023-05-09T00:00:00	2024-11-08T16:00:00	6	Velocidad del viento	3.2
170766	7	Sololá	719	Santiago Atitlán	14	Cerro de Oro	9	Septiembre	2023-05-09T00:00:00	2024-11-08T16:00:00	7	Dirección del viento	3.22
170767	7	Sololá	719	Santiago Atitlán	14	Cerro de Oro	9	Septiembre	2023-05-09T00:00:00	2024-11-08T16:00:00	1	Precipitación	1.4
170768	7	Sololá	719	Santiago Atitlán	14	Cerro de Oro	9	Septiembre	2023-05-09T00:00:00	2024-11-08T16:00:00	8	Radiación solar	15
170769	7	Sololá	719	Santiago Atitlán	14	Cerro de Oro	9	Septiembre	2023-05-09T00:00:00	2024-11-08T17:00:00	2	Temperatura media	17.7
170770	7	Sololá	719	Santiago Atitlán	14	Cerro de Oro	9	Septiembre	2023-05-09T00:00:00	2024-11-08T17:00:00	4	Temperatura máxima	17.9
170771	7	Sololá	719	Santiago Atitlán	14	Cerro de Oro	9	Septiembre	2023-05-09T00:00:00	2024-11-08T17:00:00	3	Temperatura mínima	17.6
170772	7	Sololá	719	Santiago Atitlán	14	Cerro de Oro	9	Septiembre	2023-05-09T00:00:00	2024-11-08T17:00:00	5	Humedad	92
170773	7	Sololá	719	Santiago Atitlán	14	Cerro de Oro	9	Septiembre	2023-05-09T00:00:00	2024-11-08T17:00:00	6	Velocidad del viento	3.2
170774	7	Sololá	719	Santiago Atitlán	14	Cerro de Oro	9	Septiembre	2023-05-09T00:00:00	2024-11-08T17:00:00	7	Dirección del viento	3.22
170775	7	Sololá	719	Santiago Atitlán	14	Cerro de Oro	9	Septiembre	2023-05-09T00:00:00	2024-11-08T17:00:00	1	Precipitación	0
170776	7	Sololá	719	Santiago Atitlán	14	Cerro de Oro	9	Septiembre	2023-05-09T00:00:00	2024-11-08T17:00:00	8	Radiación solar	12
170777	7	Sololá	719	Santiago Atitlán	14	Cerro de Oro	9	Septiembre	2023-05-09T00:00:00	2024-11-08T18:00:00	2	Temperatura media	18
170778	7	Sololá	719	Santiago Atitlán	14	Cerro de Oro	9	Septiembre	2023-05-09T00:00:00	2024-11-08T18:00:00	4	Temperatura máxima	18.1
170779	7	Sololá	719	Santiago Atitlán	14	Cerro de Oro	9	Septiembre	2023-05-09T00:00:00	2024-11-08T18:00:00	3	Temperatura mínima	17.6
170780	7	Sololá	719	Santiago Atitlán	14	Cerro de Oro	9	Septiembre	2023-05-09T00:00:00	2024-11-08T18:00:00	5	Humedad	91
170781	7	Sololá	719	Santiago Atitlán	14	Cerro de Oro	9	Septiembre	2023-05-09T00:00:00	2024-11-08T18:00:00	6	Velocidad del viento	3.2
170782	7	Sololá	719	Santiago Atitlán	14	Cerro de Oro	9	Septiembre	2023-05-09T00:00:00	2024-11-08T18:00:00	7	Dirección del viento	3.22
170783	7	Sololá	719	Santiago Atitlán	14	Cerro de Oro	9	Septiembre	2023-05-09T00:00:00	2024-11-08T18:00:00	1	Precipitación	0.2
170784	7	Sololá	719	Santiago Atitlán	14	Cerro de Oro	9	Septiembre	2023-05-09T00:00:00	2024-11-08T18:00:00	8	Radiación solar	3
170785	7	Sololá	719	Santiago Atitlán	14	Cerro de Oro	9	Septiembre	2023-05-09T00:00:00	2024-11-08T19:00:00	2	Temperatura media	18.2
170786	7	Sololá	719	Santiago Atitlán	14	Cerro de Oro	9	Septiembre	2023-05-09T00:00:00	2024-11-08T19:00:00	4	Temperatura máxima	18.3
170787	7	Sololá	719	Santiago Atitlán	14	Cerro de Oro	9	Septiembre	2023-05-09T00:00:00	2024-11-08T19:00:00	3	Temperatura mínima	17.8
170788	7	Sololá	719	Santiago Atitlán	14	Cerro de Oro	9	Septiembre	2023-05-09T00:00:00	2024-11-08T19:00:00	5	Humedad	92
170789	7	Sololá	719	Santiago Atitlán	14	Cerro de Oro	9	Septiembre	2023-05-09T00:00:00	2024-11-08T19:00:00	6	Velocidad del viento	4.8
170790	7	Sololá	719	Santiago Atitlán	14	Cerro de Oro	9	Septiembre	2023-05-09T00:00:00	2024-11-08T19:00:00	7	Dirección del viento	4.83
170791	7	Sololá	719	Santiago Atitlán	14	Cerro de Oro	9	Septiembre	2023-05-09T00:00:00	2024-11-08T19:00:00	1	Precipitación	0
170792	7	Sololá	719	Santiago Atitlán	14	Cerro de Oro	9	Septiembre	2023-05-09T00:00:00	2024-11-08T19:00:00	8	Radiación solar	0
170793	7	Sololá	719	Santiago Atitlán	14	Cerro de Oro	9	Septiembre	2023-05-09T00:00:00	2024-11-08T20:00:00	2	Temperatura media	17.7
170794	7	Sololá	719	Santiago Atitlán	14	Cerro de Oro	9	Septiembre	2023-05-09T00:00:00	2024-11-08T20:00:00	4	Temperatura máxima	18.4
170795	7	Sololá	719	Santiago Atitlán	14	Cerro de Oro	9	Septiembre	2023-05-09T00:00:00	2024-11-08T20:00:00	3	Temperatura mínima	17.7
170796	7	Sololá	719	Santiago Atitlán	14	Cerro de Oro	9	Septiembre	2023-05-09T00:00:00	2024-11-08T20:00:00	5	Humedad	93
170797	7	Sololá	719	Santiago Atitlán	14	Cerro de Oro	9	Septiembre	2023-05-09T00:00:00	2024-11-08T20:00:00	6	Velocidad del viento	3.2
170798	7	Sololá	719	Santiago Atitlán	14	Cerro de Oro	9	Septiembre	2023-05-09T00:00:00	2024-11-08T20:00:00	7	Dirección del viento	3.22
170799	7	Sololá	719	Santiago Atitlán	14	Cerro de Oro	9	Septiembre	2023-05-09T00:00:00	2024-11-08T20:00:00	1	Precipitación	0
170800	7	Sololá	719	Santiago Atitlán	14	Cerro de Oro	9	Septiembre	2023-05-09T00:00:00	2024-11-08T20:00:00	8	Radiación solar	0
170801	7	Sololá	719	Santiago Atitlán	14	Cerro de Oro	9	Septiembre	2023-05-09T00:00:00	2024-11-08T21:00:00	2	Temperatura media	17.9
170802	7	Sololá	719	Santiago Atitlán	14	Cerro de Oro	9	Septiembre	2023-05-09T00:00:00	2024-11-08T21:00:00	4	Temperatura máxima	18.4
170803	7	Sololá	719	Santiago Atitlán	14	Cerro de Oro	9	Septiembre	2023-05-09T00:00:00	2024-11-08T21:00:00	3	Temperatura mínima	17.7
170804	7	Sololá	719	Santiago Atitlán	14	Cerro de Oro	9	Septiembre	2023-05-09T00:00:00	2024-11-08T21:00:00	5	Humedad	89
170805	7	Sololá	719	Santiago Atitlán	14	Cerro de Oro	9	Septiembre	2023-05-09T00:00:00	2024-11-08T21:00:00	6	Velocidad del viento	4.8
170806	7	Sololá	719	Santiago Atitlán	14	Cerro de Oro	9	Septiembre	2023-05-09T00:00:00	2024-11-08T21:00:00	7	Dirección del viento	4.83
170807	7	Sololá	719	Santiago Atitlán	14	Cerro de Oro	9	Septiembre	2023-05-09T00:00:00	2024-11-08T21:00:00	1	Precipitación	0
170808	7	Sololá	719	Santiago Atitlán	14	Cerro de Oro	9	Septiembre	2023-05-09T00:00:00	2024-11-08T21:00:00	8	Radiación solar	0
170809	7	Sololá	719	Santiago Atitlán	14	Cerro de Oro	9	Septiembre	2023-05-09T00:00:00	2024-11-08T22:00:00	2	Temperatura media	19.9
170810	7	Sololá	719	Santiago Atitlán	14	Cerro de Oro	9	Septiembre	2023-05-09T00:00:00	2024-11-08T22:00:00	4	Temperatura máxima	19.9
170811	7	Sololá	719	Santiago Atitlán	14	Cerro de Oro	9	Septiembre	2023-05-09T00:00:00	2024-11-08T22:00:00	3	Temperatura mínima	17.8
170812	7	Sololá	719	Santiago Atitlán	14	Cerro de Oro	9	Septiembre	2023-05-09T00:00:00	2024-11-08T22:00:00	5	Humedad	78
170813	7	Sololá	719	Santiago Atitlán	14	Cerro de Oro	9	Septiembre	2023-05-09T00:00:00	2024-11-08T22:00:00	6	Velocidad del viento	6.4
170814	7	Sololá	719	Santiago Atitlán	14	Cerro de Oro	9	Septiembre	2023-05-09T00:00:00	2024-11-08T22:00:00	7	Dirección del viento	6.44
170815	7	Sololá	719	Santiago Atitlán	14	Cerro de Oro	9	Septiembre	2023-05-09T00:00:00	2024-11-08T22:00:00	1	Precipitación	0
170816	7	Sololá	719	Santiago Atitlán	14	Cerro de Oro	9	Septiembre	2023-05-09T00:00:00	2024-11-08T22:00:00	8	Radiación solar	0
170817	7	Sololá	719	Santiago Atitlán	14	Cerro de Oro	9	Septiembre	2023-05-09T00:00:00	2024-11-08T23:00:00	2	Temperatura media	18.7
170818	7	Sololá	719	Santiago Atitlán	14	Cerro de Oro	9	Septiembre	2023-05-09T00:00:00	2024-11-08T23:00:00	4	Temperatura máxima	20.2
170819	7	Sololá	719	Santiago Atitlán	14	Cerro de Oro	9	Septiembre	2023-05-09T00:00:00	2024-11-08T23:00:00	3	Temperatura mínima	18.4
170820	7	Sololá	719	Santiago Atitlán	14	Cerro de Oro	9	Septiembre	2023-05-09T00:00:00	2024-11-08T23:00:00	5	Humedad	82
170821	7	Sololá	719	Santiago Atitlán	14	Cerro de Oro	9	Septiembre	2023-05-09T00:00:00	2024-11-08T23:00:00	6	Velocidad del viento	6.4
170822	7	Sololá	719	Santiago Atitlán	14	Cerro de Oro	9	Septiembre	2023-05-09T00:00:00	2024-11-08T23:00:00	7	Dirección del viento	6.44
170823	7	Sololá	719	Santiago Atitlán	14	Cerro de Oro	9	Septiembre	2023-05-09T00:00:00	2024-11-08T23:00:00	1	Precipitación	0
170824	7	Sololá	719	Santiago Atitlán	14	Cerro de Oro	9	Septiembre	2023-05-09T00:00:00	2024-11-08T23:00:00	8	Radiación solar	0
170825	7	Sololá	719	Santiago Atitlán	14	Cerro de Oro	9	Septiembre	2023-06-09T00:00:00	2024-11-08T00:00:00	2	Temperatura media	18.9
170826	7	Sololá	719	Santiago Atitlán	14	Cerro de Oro	9	Septiembre	2023-06-09T00:00:00	2024-11-08T00:00:00	4	Temperatura máxima	19.2
170827	7	Sololá	719	Santiago Atitlán	14	Cerro de Oro	9	Septiembre	2023-06-09T00:00:00	2024-11-08T00:00:00	3	Temperatura mínima	18.5
170828	7	Sololá	719	Santiago Atitlán	14	Cerro de Oro	9	Septiembre	2023-06-09T00:00:00	2024-11-08T00:00:00	5	Humedad	82
170829	7	Sololá	719	Santiago Atitlán	14	Cerro de Oro	9	Septiembre	2023-06-09T00:00:00	2024-11-08T00:00:00	6	Velocidad del viento	4.8
170830	7	Sololá	719	Santiago Atitlán	14	Cerro de Oro	9	Septiembre	2023-06-09T00:00:00	2024-11-08T00:00:00	7	Dirección del viento	4.83
170831	7	Sololá	719	Santiago Atitlán	14	Cerro de Oro	9	Septiembre	2023-06-09T00:00:00	2024-11-08T00:00:00	1	Precipitación	0
170832	7	Sololá	719	Santiago Atitlán	14	Cerro de Oro	9	Septiembre	2023-06-09T00:00:00	2024-11-08T00:00:00	8	Radiación solar	0
170833	7	Sololá	719	Santiago Atitlán	14	Cerro de Oro	9	Septiembre	2023-06-09T00:00:00	2024-11-08T01:00:00	2	Temperatura media	18.6
170834	7	Sololá	719	Santiago Atitlán	14	Cerro de Oro	9	Septiembre	2023-06-09T00:00:00	2024-11-08T01:00:00	4	Temperatura máxima	19.2
170835	7	Sololá	719	Santiago Atitlán	14	Cerro de Oro	9	Septiembre	2023-06-09T00:00:00	2024-11-08T01:00:00	3	Temperatura mínima	18.4
170836	7	Sololá	719	Santiago Atitlán	14	Cerro de Oro	9	Septiembre	2023-06-09T00:00:00	2024-11-08T01:00:00	5	Humedad	83
170837	7	Sololá	719	Santiago Atitlán	14	Cerro de Oro	9	Septiembre	2023-06-09T00:00:00	2024-11-08T01:00:00	6	Velocidad del viento	4.8
170838	7	Sololá	719	Santiago Atitlán	14	Cerro de Oro	9	Septiembre	2023-06-09T00:00:00	2024-11-08T01:00:00	7	Dirección del viento	4.83
170839	7	Sololá	719	Santiago Atitlán	14	Cerro de Oro	9	Septiembre	2023-06-09T00:00:00	2024-11-08T01:00:00	1	Precipitación	0
170840	7	Sololá	719	Santiago Atitlán	14	Cerro de Oro	9	Septiembre	2023-06-09T00:00:00	2024-11-08T01:00:00	8	Radiación solar	0
170841	7	Sololá	719	Santiago Atitlán	14	Cerro de Oro	9	Septiembre	2023-06-09T00:00:00	2024-11-08T02:00:00	2	Temperatura media	19.2
170842	7	Sololá	719	Santiago Atitlán	14	Cerro de Oro	9	Septiembre	2023-06-09T00:00:00	2024-11-08T02:00:00	4	Temperatura máxima	19.3
170843	7	Sololá	719	Santiago Atitlán	14	Cerro de Oro	9	Septiembre	2023-06-09T00:00:00	2024-11-08T02:00:00	3	Temperatura mínima	18.6
170844	7	Sololá	719	Santiago Atitlán	14	Cerro de Oro	9	Septiembre	2023-06-09T00:00:00	2024-11-08T02:00:00	5	Humedad	79
170845	7	Sololá	719	Santiago Atitlán	14	Cerro de Oro	9	Septiembre	2023-06-09T00:00:00	2024-11-08T02:00:00	6	Velocidad del viento	4.8
170846	7	Sololá	719	Santiago Atitlán	14	Cerro de Oro	9	Septiembre	2023-06-09T00:00:00	2024-11-08T02:00:00	7	Dirección del viento	4.83
170847	7	Sololá	719	Santiago Atitlán	14	Cerro de Oro	9	Septiembre	2023-06-09T00:00:00	2024-11-08T02:00:00	1	Precipitación	0
170848	7	Sololá	719	Santiago Atitlán	14	Cerro de Oro	9	Septiembre	2023-06-09T00:00:00	2024-11-08T02:00:00	8	Radiación solar	0
170849	7	Sololá	719	Santiago Atitlán	14	Cerro de Oro	9	Septiembre	2023-06-09T00:00:00	2024-11-08T03:00:00	2	Temperatura media	18.7
170850	7	Sololá	719	Santiago Atitlán	14	Cerro de Oro	9	Septiembre	2023-06-09T00:00:00	2024-11-08T03:00:00	4	Temperatura máxima	19.2
170851	7	Sololá	719	Santiago Atitlán	14	Cerro de Oro	9	Septiembre	2023-06-09T00:00:00	2024-11-08T03:00:00	3	Temperatura mínima	18.3
170852	7	Sololá	719	Santiago Atitlán	14	Cerro de Oro	9	Septiembre	2023-06-09T00:00:00	2024-11-08T03:00:00	5	Humedad	81
170853	7	Sololá	719	Santiago Atitlán	14	Cerro de Oro	9	Septiembre	2023-06-09T00:00:00	2024-11-08T03:00:00	6	Velocidad del viento	4.8
170854	7	Sololá	719	Santiago Atitlán	14	Cerro de Oro	9	Septiembre	2023-06-09T00:00:00	2024-11-08T03:00:00	7	Dirección del viento	4.83
170855	7	Sololá	719	Santiago Atitlán	14	Cerro de Oro	9	Septiembre	2023-06-09T00:00:00	2024-11-08T03:00:00	1	Precipitación	0
170856	7	Sololá	719	Santiago Atitlán	14	Cerro de Oro	9	Septiembre	2023-06-09T00:00:00	2024-11-08T03:00:00	8	Radiación solar	0
170857	7	Sololá	719	Santiago Atitlán	14	Cerro de Oro	9	Septiembre	2023-06-09T00:00:00	2024-11-08T04:00:00	2	Temperatura media	18.7
170858	7	Sololá	719	Santiago Atitlán	14	Cerro de Oro	9	Septiembre	2023-06-09T00:00:00	2024-11-08T04:00:00	4	Temperatura máxima	19.3
170859	7	Sololá	719	Santiago Atitlán	14	Cerro de Oro	9	Septiembre	2023-06-09T00:00:00	2024-11-08T04:00:00	3	Temperatura mínima	18.6
170860	7	Sololá	719	Santiago Atitlán	14	Cerro de Oro	9	Septiembre	2023-06-09T00:00:00	2024-11-08T04:00:00	5	Humedad	79
170861	7	Sololá	719	Santiago Atitlán	14	Cerro de Oro	9	Septiembre	2023-06-09T00:00:00	2024-11-08T04:00:00	6	Velocidad del viento	4.8
170862	7	Sololá	719	Santiago Atitlán	14	Cerro de Oro	9	Septiembre	2023-06-09T00:00:00	2024-11-08T04:00:00	7	Dirección del viento	4.83
170863	7	Sololá	719	Santiago Atitlán	14	Cerro de Oro	9	Septiembre	2023-06-09T00:00:00	2024-11-08T04:00:00	1	Precipitación	0
170864	7	Sololá	719	Santiago Atitlán	14	Cerro de Oro	9	Septiembre	2023-06-09T00:00:00	2024-11-08T04:00:00	8	Radiación solar	0
170865	7	Sololá	719	Santiago Atitlán	14	Cerro de Oro	9	Septiembre	2023-06-09T00:00:00	2024-11-08T05:00:00	2	Temperatura media	18.7
170866	7	Sololá	719	Santiago Atitlán	14	Cerro de Oro	9	Septiembre	2023-06-09T00:00:00	2024-11-08T05:00:00	4	Temperatura máxima	18.9
170867	7	Sololá	719	Santiago Atitlán	14	Cerro de Oro	9	Septiembre	2023-06-09T00:00:00	2024-11-08T05:00:00	3	Temperatura mínima	18.3
170868	7	Sololá	719	Santiago Atitlán	14	Cerro de Oro	9	Septiembre	2023-06-09T00:00:00	2024-11-08T05:00:00	5	Humedad	79
170869	7	Sololá	719	Santiago Atitlán	14	Cerro de Oro	9	Septiembre	2023-06-09T00:00:00	2024-11-08T05:00:00	6	Velocidad del viento	3.2
170870	7	Sololá	719	Santiago Atitlán	14	Cerro de Oro	9	Septiembre	2023-06-09T00:00:00	2024-11-08T05:00:00	7	Dirección del viento	3.22
170871	7	Sololá	719	Santiago Atitlán	14	Cerro de Oro	9	Septiembre	2023-06-09T00:00:00	2024-11-08T05:00:00	1	Precipitación	0
170872	7	Sololá	719	Santiago Atitlán	14	Cerro de Oro	9	Septiembre	2023-06-09T00:00:00	2024-11-08T05:00:00	8	Radiación solar	0
170873	7	Sololá	719	Santiago Atitlán	14	Cerro de Oro	9	Septiembre	2023-06-09T00:00:00	2024-11-08T06:00:00	2	Temperatura media	18.3
170874	7	Sololá	719	Santiago Atitlán	14	Cerro de Oro	9	Septiembre	2023-06-09T00:00:00	2024-11-08T06:00:00	4	Temperatura máxima	18.8
170875	7	Sololá	719	Santiago Atitlán	14	Cerro de Oro	9	Septiembre	2023-06-09T00:00:00	2024-11-08T06:00:00	3	Temperatura mínima	18.3
170876	7	Sololá	719	Santiago Atitlán	14	Cerro de Oro	9	Septiembre	2023-06-09T00:00:00	2024-11-08T06:00:00	5	Humedad	81
170877	7	Sololá	719	Santiago Atitlán	14	Cerro de Oro	9	Septiembre	2023-06-09T00:00:00	2024-11-08T06:00:00	6	Velocidad del viento	4.8
170878	7	Sololá	719	Santiago Atitlán	14	Cerro de Oro	9	Septiembre	2023-06-09T00:00:00	2024-11-08T06:00:00	7	Dirección del viento	4.83
170879	7	Sololá	719	Santiago Atitlán	14	Cerro de Oro	9	Septiembre	2023-06-09T00:00:00	2024-11-08T06:00:00	1	Precipitación	0
170880	7	Sololá	719	Santiago Atitlán	14	Cerro de Oro	9	Septiembre	2023-06-09T00:00:00	2024-11-08T06:00:00	8	Radiación solar	0
170881	7	Sololá	719	Santiago Atitlán	14	Cerro de Oro	9	Septiembre	2023-06-09T00:00:00	2024-11-08T07:00:00	2	Temperatura media	18.8
170882	7	Sololá	719	Santiago Atitlán	14	Cerro de Oro	9	Septiembre	2023-06-09T00:00:00	2024-11-08T07:00:00	4	Temperatura máxima	19.1
170883	7	Sololá	719	Santiago Atitlán	14	Cerro de Oro	9	Septiembre	2023-06-09T00:00:00	2024-11-08T07:00:00	3	Temperatura mínima	18.3
170884	7	Sololá	719	Santiago Atitlán	14	Cerro de Oro	9	Septiembre	2023-06-09T00:00:00	2024-11-08T07:00:00	5	Humedad	83
170885	7	Sololá	719	Santiago Atitlán	14	Cerro de Oro	9	Septiembre	2023-06-09T00:00:00	2024-11-08T07:00:00	6	Velocidad del viento	1.6
170886	7	Sololá	719	Santiago Atitlán	14	Cerro de Oro	9	Septiembre	2023-06-09T00:00:00	2024-11-08T07:00:00	7	Dirección del viento	1.61
170887	7	Sololá	719	Santiago Atitlán	14	Cerro de Oro	9	Septiembre	2023-06-09T00:00:00	2024-11-08T07:00:00	1	Precipitación	0
170888	7	Sololá	719	Santiago Atitlán	14	Cerro de Oro	9	Septiembre	2023-06-09T00:00:00	2024-11-08T07:00:00	8	Radiación solar	48
170889	7	Sololá	719	Santiago Atitlán	14	Cerro de Oro	9	Septiembre	2023-06-09T00:00:00	2024-11-08T08:00:00	2	Temperatura media	20.6
170890	7	Sololá	719	Santiago Atitlán	14	Cerro de Oro	9	Septiembre	2023-06-09T00:00:00	2024-11-08T08:00:00	4	Temperatura máxima	20.7
170891	7	Sololá	719	Santiago Atitlán	14	Cerro de Oro	9	Septiembre	2023-06-09T00:00:00	2024-11-08T08:00:00	3	Temperatura mínima	18.8
170892	7	Sololá	719	Santiago Atitlán	14	Cerro de Oro	9	Septiembre	2023-06-09T00:00:00	2024-11-08T08:00:00	5	Humedad	78
170893	7	Sololá	719	Santiago Atitlán	14	Cerro de Oro	9	Septiembre	2023-06-09T00:00:00	2024-11-08T08:00:00	6	Velocidad del viento	1.6
170894	7	Sololá	719	Santiago Atitlán	14	Cerro de Oro	9	Septiembre	2023-06-09T00:00:00	2024-11-08T08:00:00	7	Dirección del viento	1.61
170895	7	Sololá	719	Santiago Atitlán	14	Cerro de Oro	9	Septiembre	2023-06-09T00:00:00	2024-11-08T08:00:00	1	Precipitación	0
170896	7	Sololá	719	Santiago Atitlán	14	Cerro de Oro	9	Septiembre	2023-06-09T00:00:00	2024-11-08T08:00:00	8	Radiación solar	167
170897	7	Sololá	719	Santiago Atitlán	14	Cerro de Oro	9	Septiembre	2023-06-09T00:00:00	2024-11-08T09:00:00	2	Temperatura media	21.9
170898	7	Sololá	719	Santiago Atitlán	14	Cerro de Oro	9	Septiembre	2023-06-09T00:00:00	2024-11-08T09:00:00	4	Temperatura máxima	22.3
170899	7	Sololá	719	Santiago Atitlán	14	Cerro de Oro	9	Septiembre	2023-06-09T00:00:00	2024-11-08T09:00:00	3	Temperatura mínima	20.6
170900	7	Sololá	719	Santiago Atitlán	14	Cerro de Oro	9	Septiembre	2023-06-09T00:00:00	2024-11-08T09:00:00	5	Humedad	68
170901	7	Sololá	719	Santiago Atitlán	14	Cerro de Oro	9	Septiembre	2023-06-09T00:00:00	2024-11-08T09:00:00	6	Velocidad del viento	3.2
170902	7	Sololá	719	Santiago Atitlán	14	Cerro de Oro	9	Septiembre	2023-06-09T00:00:00	2024-11-08T09:00:00	7	Dirección del viento	3.22
170903	7	Sololá	719	Santiago Atitlán	14	Cerro de Oro	9	Septiembre	2023-06-09T00:00:00	2024-11-08T09:00:00	1	Precipitación	0
170904	7	Sololá	719	Santiago Atitlán	14	Cerro de Oro	9	Septiembre	2023-06-09T00:00:00	2024-11-08T09:00:00	8	Radiación solar	321
170905	7	Sololá	719	Santiago Atitlán	14	Cerro de Oro	9	Septiembre	2023-06-09T00:00:00	2024-11-08T10:00:00	2	Temperatura media	22.2
170906	7	Sololá	719	Santiago Atitlán	14	Cerro de Oro	9	Septiembre	2023-06-09T00:00:00	2024-11-08T10:00:00	4	Temperatura máxima	23.4
170907	7	Sololá	719	Santiago Atitlán	14	Cerro de Oro	9	Septiembre	2023-06-09T00:00:00	2024-11-08T10:00:00	3	Temperatura mínima	21.8
170908	7	Sololá	719	Santiago Atitlán	14	Cerro de Oro	9	Septiembre	2023-06-09T00:00:00	2024-11-08T10:00:00	5	Humedad	76
170909	7	Sololá	719	Santiago Atitlán	14	Cerro de Oro	9	Septiembre	2023-06-09T00:00:00	2024-11-08T10:00:00	6	Velocidad del viento	4.8
170910	7	Sololá	719	Santiago Atitlán	14	Cerro de Oro	9	Septiembre	2023-06-09T00:00:00	2024-11-08T10:00:00	7	Dirección del viento	4.83
170911	7	Sololá	719	Santiago Atitlán	14	Cerro de Oro	9	Septiembre	2023-06-09T00:00:00	2024-11-08T10:00:00	1	Precipitación	0
170912	7	Sololá	719	Santiago Atitlán	14	Cerro de Oro	9	Septiembre	2023-06-09T00:00:00	2024-11-08T10:00:00	8	Radiación solar	509
170913	7	Sololá	719	Santiago Atitlán	14	Cerro de Oro	9	Septiembre	2023-06-09T00:00:00	2024-11-08T11:00:00	2	Temperatura media	23.7
170914	7	Sololá	719	Santiago Atitlán	14	Cerro de Oro	9	Septiembre	2023-06-09T00:00:00	2024-11-08T11:00:00	4	Temperatura máxima	24.2
170915	7	Sololá	719	Santiago Atitlán	14	Cerro de Oro	9	Septiembre	2023-06-09T00:00:00	2024-11-08T11:00:00	3	Temperatura mínima	22.1
170916	7	Sololá	719	Santiago Atitlán	14	Cerro de Oro	9	Septiembre	2023-06-09T00:00:00	2024-11-08T11:00:00	5	Humedad	65
170917	7	Sololá	719	Santiago Atitlán	14	Cerro de Oro	9	Septiembre	2023-06-09T00:00:00	2024-11-08T11:00:00	6	Velocidad del viento	6.4
170918	7	Sololá	719	Santiago Atitlán	14	Cerro de Oro	9	Septiembre	2023-06-09T00:00:00	2024-11-08T11:00:00	7	Dirección del viento	6.44
170919	7	Sololá	719	Santiago Atitlán	14	Cerro de Oro	9	Septiembre	2023-06-09T00:00:00	2024-11-08T11:00:00	1	Precipitación	0
170920	7	Sololá	719	Santiago Atitlán	14	Cerro de Oro	9	Septiembre	2023-06-09T00:00:00	2024-11-08T11:00:00	8	Radiación solar	693
170921	7	Sololá	719	Santiago Atitlán	14	Cerro de Oro	9	Septiembre	2023-06-09T00:00:00	2024-11-08T12:00:00	2	Temperatura media	24.1
170922	7	Sololá	719	Santiago Atitlán	14	Cerro de Oro	9	Septiembre	2023-06-09T00:00:00	2024-11-08T12:00:00	4	Temperatura máxima	24.5
170923	7	Sololá	719	Santiago Atitlán	14	Cerro de Oro	9	Septiembre	2023-06-09T00:00:00	2024-11-08T12:00:00	3	Temperatura mínima	23.6
170924	7	Sololá	719	Santiago Atitlán	14	Cerro de Oro	9	Septiembre	2023-06-09T00:00:00	2024-11-08T12:00:00	5	Humedad	70
170925	7	Sololá	719	Santiago Atitlán	14	Cerro de Oro	9	Septiembre	2023-06-09T00:00:00	2024-11-08T12:00:00	6	Velocidad del viento	4.8
170926	7	Sololá	719	Santiago Atitlán	14	Cerro de Oro	9	Septiembre	2023-06-09T00:00:00	2024-11-08T12:00:00	7	Dirección del viento	4.83
170927	7	Sololá	719	Santiago Atitlán	14	Cerro de Oro	9	Septiembre	2023-06-09T00:00:00	2024-11-08T12:00:00	1	Precipitación	0
170928	7	Sololá	719	Santiago Atitlán	14	Cerro de Oro	9	Septiembre	2023-06-09T00:00:00	2024-11-08T12:00:00	8	Radiación solar	883
170929	7	Sololá	719	Santiago Atitlán	14	Cerro de Oro	9	Septiembre	2023-06-09T00:00:00	2024-11-08T13:00:00	2	Temperatura media	24.3
170930	7	Sololá	719	Santiago Atitlán	14	Cerro de Oro	9	Septiembre	2023-06-09T00:00:00	2024-11-08T13:00:00	4	Temperatura máxima	24.3
170931	7	Sololá	719	Santiago Atitlán	14	Cerro de Oro	9	Septiembre	2023-06-09T00:00:00	2024-11-08T13:00:00	3	Temperatura mínima	23.2
170932	7	Sololá	719	Santiago Atitlán	14	Cerro de Oro	9	Septiembre	2023-06-09T00:00:00	2024-11-08T13:00:00	5	Humedad	72
170933	7	Sololá	719	Santiago Atitlán	14	Cerro de Oro	9	Septiembre	2023-06-09T00:00:00	2024-11-08T13:00:00	6	Velocidad del viento	4.8
170934	7	Sololá	719	Santiago Atitlán	14	Cerro de Oro	9	Septiembre	2023-06-09T00:00:00	2024-11-08T13:00:00	7	Dirección del viento	4.83
170935	7	Sololá	719	Santiago Atitlán	14	Cerro de Oro	9	Septiembre	2023-06-09T00:00:00	2024-11-08T13:00:00	1	Precipitación	0
170936	7	Sololá	719	Santiago Atitlán	14	Cerro de Oro	9	Septiembre	2023-06-09T00:00:00	2024-11-08T13:00:00	8	Radiación solar	653
170937	7	Sololá	719	Santiago Atitlán	14	Cerro de Oro	9	Septiembre	2023-06-09T00:00:00	2024-11-08T14:00:00	2	Temperatura media	24.6
170938	7	Sololá	719	Santiago Atitlán	14	Cerro de Oro	9	Septiembre	2023-06-09T00:00:00	2024-11-08T14:00:00	4	Temperatura máxima	25.2
170939	7	Sololá	719	Santiago Atitlán	14	Cerro de Oro	9	Septiembre	2023-06-09T00:00:00	2024-11-08T14:00:00	3	Temperatura mínima	23.6
170940	7	Sololá	719	Santiago Atitlán	14	Cerro de Oro	9	Septiembre	2023-06-09T00:00:00	2024-11-08T14:00:00	5	Humedad	74
170941	7	Sololá	719	Santiago Atitlán	14	Cerro de Oro	9	Septiembre	2023-06-09T00:00:00	2024-11-08T14:00:00	6	Velocidad del viento	6.4
170942	7	Sololá	719	Santiago Atitlán	14	Cerro de Oro	9	Septiembre	2023-06-09T00:00:00	2024-11-08T14:00:00	7	Dirección del viento	6.44
170943	7	Sololá	719	Santiago Atitlán	14	Cerro de Oro	9	Septiembre	2023-06-09T00:00:00	2024-11-08T14:00:00	1	Precipitación	0
170944	7	Sololá	719	Santiago Atitlán	14	Cerro de Oro	9	Septiembre	2023-06-09T00:00:00	2024-11-08T14:00:00	8	Radiación solar	839
170945	7	Sololá	719	Santiago Atitlán	14	Cerro de Oro	9	Septiembre	2023-06-09T00:00:00	2024-11-08T15:00:00	2	Temperatura media	23.9
170946	7	Sololá	719	Santiago Atitlán	14	Cerro de Oro	9	Septiembre	2023-06-09T00:00:00	2024-11-08T15:00:00	4	Temperatura máxima	25.2
170947	7	Sololá	719	Santiago Atitlán	14	Cerro de Oro	9	Septiembre	2023-06-09T00:00:00	2024-11-08T15:00:00	3	Temperatura mínima	23.6
170948	7	Sololá	719	Santiago Atitlán	14	Cerro de Oro	9	Septiembre	2023-06-09T00:00:00	2024-11-08T15:00:00	5	Humedad	75
170949	7	Sololá	719	Santiago Atitlán	14	Cerro de Oro	9	Septiembre	2023-06-09T00:00:00	2024-11-08T15:00:00	6	Velocidad del viento	9.7
170950	7	Sololá	719	Santiago Atitlán	14	Cerro de Oro	9	Septiembre	2023-06-09T00:00:00	2024-11-08T15:00:00	7	Dirección del viento	9.66
170951	7	Sololá	719	Santiago Atitlán	14	Cerro de Oro	9	Septiembre	2023-06-09T00:00:00	2024-11-08T15:00:00	1	Precipitación	0
170952	7	Sololá	719	Santiago Atitlán	14	Cerro de Oro	9	Septiembre	2023-06-09T00:00:00	2024-11-08T15:00:00	8	Radiación solar	715
170953	7	Sololá	719	Santiago Atitlán	14	Cerro de Oro	9	Septiembre	2023-06-09T00:00:00	2024-11-08T16:00:00	2	Temperatura media	22.8
170954	7	Sololá	719	Santiago Atitlán	14	Cerro de Oro	9	Septiembre	2023-06-09T00:00:00	2024-11-08T16:00:00	4	Temperatura máxima	24.7
170955	7	Sololá	719	Santiago Atitlán	14	Cerro de Oro	9	Septiembre	2023-06-09T00:00:00	2024-11-08T16:00:00	3	Temperatura mínima	22.8
170956	7	Sololá	719	Santiago Atitlán	14	Cerro de Oro	9	Septiembre	2023-06-09T00:00:00	2024-11-08T16:00:00	5	Humedad	82
170957	7	Sololá	719	Santiago Atitlán	14	Cerro de Oro	9	Septiembre	2023-06-09T00:00:00	2024-11-08T16:00:00	6	Velocidad del viento	9.7
170958	7	Sololá	719	Santiago Atitlán	14	Cerro de Oro	9	Septiembre	2023-06-09T00:00:00	2024-11-08T16:00:00	7	Dirección del viento	9.66
170959	7	Sololá	719	Santiago Atitlán	14	Cerro de Oro	9	Septiembre	2023-06-09T00:00:00	2024-11-08T16:00:00	1	Precipitación	0
170960	7	Sololá	719	Santiago Atitlán	14	Cerro de Oro	9	Septiembre	2023-06-09T00:00:00	2024-11-08T16:00:00	8	Radiación solar	470
170961	7	Sololá	719	Santiago Atitlán	14	Cerro de Oro	9	Septiembre	2023-06-09T00:00:00	2024-11-08T17:00:00	2	Temperatura media	23.1
170962	7	Sololá	719	Santiago Atitlán	14	Cerro de Oro	9	Septiembre	2023-06-09T00:00:00	2024-11-08T17:00:00	4	Temperatura máxima	23.9
170963	7	Sololá	719	Santiago Atitlán	14	Cerro de Oro	9	Septiembre	2023-06-09T00:00:00	2024-11-08T17:00:00	3	Temperatura mínima	22.4
170964	7	Sololá	719	Santiago Atitlán	14	Cerro de Oro	9	Septiembre	2023-06-09T00:00:00	2024-11-08T17:00:00	5	Humedad	81
170965	7	Sololá	719	Santiago Atitlán	14	Cerro de Oro	9	Septiembre	2023-06-09T00:00:00	2024-11-08T17:00:00	6	Velocidad del viento	11.3
170966	7	Sololá	719	Santiago Atitlán	14	Cerro de Oro	9	Septiembre	2023-06-09T00:00:00	2024-11-08T17:00:00	7	Dirección del viento	11.27
170967	7	Sololá	719	Santiago Atitlán	14	Cerro de Oro	9	Septiembre	2023-06-09T00:00:00	2024-11-08T17:00:00	1	Precipitación	0
170968	7	Sololá	719	Santiago Atitlán	14	Cerro de Oro	9	Septiembre	2023-06-09T00:00:00	2024-11-08T17:00:00	8	Radiación solar	323
170969	7	Sololá	719	Santiago Atitlán	14	Cerro de Oro	9	Septiembre	2023-06-09T00:00:00	2024-11-08T18:00:00	2	Temperatura media	21.1
170970	7	Sololá	719	Santiago Atitlán	14	Cerro de Oro	9	Septiembre	2023-06-09T00:00:00	2024-11-08T18:00:00	4	Temperatura máxima	23.1
170971	7	Sololá	719	Santiago Atitlán	14	Cerro de Oro	9	Septiembre	2023-06-09T00:00:00	2024-11-08T18:00:00	3	Temperatura mínima	21.1
170972	7	Sololá	719	Santiago Atitlán	14	Cerro de Oro	9	Septiembre	2023-06-09T00:00:00	2024-11-08T18:00:00	5	Humedad	82
170973	7	Sololá	719	Santiago Atitlán	14	Cerro de Oro	9	Septiembre	2023-06-09T00:00:00	2024-11-08T18:00:00	6	Velocidad del viento	6.4
170974	7	Sololá	719	Santiago Atitlán	14	Cerro de Oro	9	Septiembre	2023-06-09T00:00:00	2024-11-08T18:00:00	7	Dirección del viento	6.44
170975	7	Sololá	719	Santiago Atitlán	14	Cerro de Oro	9	Septiembre	2023-06-09T00:00:00	2024-11-08T18:00:00	1	Precipitación	0
170976	7	Sololá	719	Santiago Atitlán	14	Cerro de Oro	9	Septiembre	2023-06-09T00:00:00	2024-11-08T18:00:00	8	Radiación solar	106
170977	7	Sololá	719	Santiago Atitlán	14	Cerro de Oro	9	Septiembre	2023-06-09T00:00:00	2024-11-08T19:00:00	2	Temperatura media	20.2
170978	7	Sololá	719	Santiago Atitlán	14	Cerro de Oro	9	Septiembre	2023-06-09T00:00:00	2024-11-08T19:00:00	4	Temperatura máxima	21.2
170979	7	Sololá	719	Santiago Atitlán	14	Cerro de Oro	9	Septiembre	2023-06-09T00:00:00	2024-11-08T19:00:00	3	Temperatura mínima	20.1
170980	7	Sololá	719	Santiago Atitlán	14	Cerro de Oro	9	Septiembre	2023-06-09T00:00:00	2024-11-08T19:00:00	5	Humedad	82
170981	7	Sololá	719	Santiago Atitlán	14	Cerro de Oro	9	Septiembre	2023-06-09T00:00:00	2024-11-08T19:00:00	6	Velocidad del viento	3.2
170982	7	Sololá	719	Santiago Atitlán	14	Cerro de Oro	9	Septiembre	2023-06-09T00:00:00	2024-11-08T19:00:00	7	Dirección del viento	3.22
170983	7	Sololá	719	Santiago Atitlán	14	Cerro de Oro	9	Septiembre	2023-06-09T00:00:00	2024-11-08T19:00:00	1	Precipitación	0
170984	7	Sololá	719	Santiago Atitlán	14	Cerro de Oro	9	Septiembre	2023-06-09T00:00:00	2024-11-08T19:00:00	8	Radiación solar	0
170985	7	Sololá	719	Santiago Atitlán	14	Cerro de Oro	9	Septiembre	2023-06-09T00:00:00	2024-11-08T20:00:00	2	Temperatura media	20.8
170986	7	Sololá	719	Santiago Atitlán	14	Cerro de Oro	9	Septiembre	2023-06-09T00:00:00	2024-11-08T20:00:00	4	Temperatura máxima	20.9
170987	7	Sololá	719	Santiago Atitlán	14	Cerro de Oro	9	Septiembre	2023-06-09T00:00:00	2024-11-08T20:00:00	3	Temperatura mínima	20
170988	7	Sololá	719	Santiago Atitlán	14	Cerro de Oro	9	Septiembre	2023-06-09T00:00:00	2024-11-08T20:00:00	5	Humedad	79
170989	7	Sololá	719	Santiago Atitlán	14	Cerro de Oro	9	Septiembre	2023-06-09T00:00:00	2024-11-08T20:00:00	6	Velocidad del viento	4.8
170990	7	Sololá	719	Santiago Atitlán	14	Cerro de Oro	9	Septiembre	2023-06-09T00:00:00	2024-11-08T20:00:00	7	Dirección del viento	4.83
170991	7	Sololá	719	Santiago Atitlán	14	Cerro de Oro	9	Septiembre	2023-06-09T00:00:00	2024-11-08T20:00:00	1	Precipitación	0
170992	7	Sololá	719	Santiago Atitlán	14	Cerro de Oro	9	Septiembre	2023-06-09T00:00:00	2024-11-08T20:00:00	8	Radiación solar	0
170993	7	Sololá	719	Santiago Atitlán	14	Cerro de Oro	9	Septiembre	2023-06-09T00:00:00	2024-11-08T21:00:00	2	Temperatura media	20.9
170994	7	Sololá	719	Santiago Atitlán	14	Cerro de Oro	9	Septiembre	2023-06-09T00:00:00	2024-11-08T21:00:00	4	Temperatura máxima	20.9
170995	7	Sololá	719	Santiago Atitlán	14	Cerro de Oro	9	Septiembre	2023-06-09T00:00:00	2024-11-08T21:00:00	3	Temperatura mínima	20.1
170996	7	Sololá	719	Santiago Atitlán	14	Cerro de Oro	9	Septiembre	2023-06-09T00:00:00	2024-11-08T21:00:00	5	Humedad	77
170997	7	Sololá	719	Santiago Atitlán	14	Cerro de Oro	9	Septiembre	2023-06-09T00:00:00	2024-11-08T21:00:00	6	Velocidad del viento	3.2
170998	7	Sololá	719	Santiago Atitlán	14	Cerro de Oro	9	Septiembre	2023-06-09T00:00:00	2024-11-08T21:00:00	7	Dirección del viento	3.22
170999	7	Sololá	719	Santiago Atitlán	14	Cerro de Oro	9	Septiembre	2023-06-09T00:00:00	2024-11-08T21:00:00	1	Precipitación	0
171000	7	Sololá	719	Santiago Atitlán	14	Cerro de Oro	9	Septiembre	2023-06-09T00:00:00	2024-11-08T21:00:00	8	Radiación solar	0
171001	7	Sololá	719	Santiago Atitlán	14	Cerro de Oro	9	Septiembre	2023-06-09T00:00:00	2024-11-08T22:00:00	2	Temperatura media	19.4
171002	7	Sololá	719	Santiago Atitlán	14	Cerro de Oro	9	Septiembre	2023-06-09T00:00:00	2024-11-08T22:00:00	4	Temperatura máxima	21.4
171003	7	Sololá	719	Santiago Atitlán	14	Cerro de Oro	9	Septiembre	2023-06-09T00:00:00	2024-11-08T22:00:00	3	Temperatura mínima	19.4
171004	7	Sololá	719	Santiago Atitlán	14	Cerro de Oro	9	Septiembre	2023-06-09T00:00:00	2024-11-08T22:00:00	5	Humedad	80
171005	7	Sololá	719	Santiago Atitlán	14	Cerro de Oro	9	Septiembre	2023-06-09T00:00:00	2024-11-08T22:00:00	6	Velocidad del viento	6.4
171006	7	Sololá	719	Santiago Atitlán	14	Cerro de Oro	9	Septiembre	2023-06-09T00:00:00	2024-11-08T22:00:00	7	Dirección del viento	6.44
171007	7	Sololá	719	Santiago Atitlán	14	Cerro de Oro	9	Septiembre	2023-06-09T00:00:00	2024-11-08T22:00:00	1	Precipitación	0
171008	7	Sololá	719	Santiago Atitlán	14	Cerro de Oro	9	Septiembre	2023-06-09T00:00:00	2024-11-08T22:00:00	8	Radiación solar	0
171009	7	Sololá	719	Santiago Atitlán	14	Cerro de Oro	9	Septiembre	2023-06-09T00:00:00	2024-11-08T23:00:00	2	Temperatura media	19.8
171010	7	Sololá	719	Santiago Atitlán	14	Cerro de Oro	9	Septiembre	2023-06-09T00:00:00	2024-11-08T23:00:00	4	Temperatura máxima	20.7
171011	7	Sololá	719	Santiago Atitlán	14	Cerro de Oro	9	Septiembre	2023-06-09T00:00:00	2024-11-08T23:00:00	3	Temperatura mínima	19.4
171012	7	Sololá	719	Santiago Atitlán	14	Cerro de Oro	9	Septiembre	2023-06-09T00:00:00	2024-11-08T23:00:00	5	Humedad	80
171013	7	Sololá	719	Santiago Atitlán	14	Cerro de Oro	9	Septiembre	2023-06-09T00:00:00	2024-11-08T23:00:00	6	Velocidad del viento	4.8
171014	7	Sololá	719	Santiago Atitlán	14	Cerro de Oro	9	Septiembre	2023-06-09T00:00:00	2024-11-08T23:00:00	7	Dirección del viento	4.83
171015	7	Sololá	719	Santiago Atitlán	14	Cerro de Oro	9	Septiembre	2023-06-09T00:00:00	2024-11-08T23:00:00	1	Precipitación	0
171016	7	Sololá	719	Santiago Atitlán	14	Cerro de Oro	9	Septiembre	2023-06-09T00:00:00	2024-11-08T23:00:00	8	Radiación solar	0
171017	7	Sololá	719	Santiago Atitlán	14	Cerro de Oro	9	Septiembre	2023-07-09T00:00:00	2024-11-08T00:00:00	2	Temperatura media	19.1
171018	7	Sololá	719	Santiago Atitlán	14	Cerro de Oro	9	Septiembre	2023-07-09T00:00:00	2024-11-08T00:00:00	4	Temperatura máxima	20.1
171019	7	Sololá	719	Santiago Atitlán	14	Cerro de Oro	9	Septiembre	2023-07-09T00:00:00	2024-11-08T00:00:00	3	Temperatura mínima	19
171020	7	Sololá	719	Santiago Atitlán	14	Cerro de Oro	9	Septiembre	2023-07-09T00:00:00	2024-11-08T00:00:00	5	Humedad	83
171021	7	Sololá	719	Santiago Atitlán	14	Cerro de Oro	9	Septiembre	2023-07-09T00:00:00	2024-11-08T00:00:00	6	Velocidad del viento	4.8
171022	7	Sololá	719	Santiago Atitlán	14	Cerro de Oro	9	Septiembre	2023-07-09T00:00:00	2024-11-08T00:00:00	7	Dirección del viento	4.83
171023	7	Sololá	719	Santiago Atitlán	14	Cerro de Oro	9	Septiembre	2023-07-09T00:00:00	2024-11-08T00:00:00	1	Precipitación	0
171024	7	Sololá	719	Santiago Atitlán	14	Cerro de Oro	9	Septiembre	2023-07-09T00:00:00	2024-11-08T00:00:00	8	Radiación solar	0
171025	7	Sololá	719	Santiago Atitlán	14	Cerro de Oro	9	Septiembre	2023-07-09T00:00:00	2024-11-08T01:00:00	2	Temperatura media	19.5
171026	7	Sololá	719	Santiago Atitlán	14	Cerro de Oro	9	Septiembre	2023-07-09T00:00:00	2024-11-08T01:00:00	4	Temperatura máxima	19.6
171027	7	Sololá	719	Santiago Atitlán	14	Cerro de Oro	9	Septiembre	2023-07-09T00:00:00	2024-11-08T01:00:00	3	Temperatura mínima	19
171028	7	Sololá	719	Santiago Atitlán	14	Cerro de Oro	9	Septiembre	2023-07-09T00:00:00	2024-11-08T01:00:00	5	Humedad	81
171029	7	Sololá	719	Santiago Atitlán	14	Cerro de Oro	9	Septiembre	2023-07-09T00:00:00	2024-11-08T01:00:00	6	Velocidad del viento	4.8
171030	7	Sololá	719	Santiago Atitlán	14	Cerro de Oro	9	Septiembre	2023-07-09T00:00:00	2024-11-08T01:00:00	7	Dirección del viento	4.83
171031	7	Sololá	719	Santiago Atitlán	14	Cerro de Oro	9	Septiembre	2023-07-09T00:00:00	2024-11-08T01:00:00	1	Precipitación	0
171032	7	Sololá	719	Santiago Atitlán	14	Cerro de Oro	9	Septiembre	2023-07-09T00:00:00	2024-11-08T01:00:00	8	Radiación solar	0
171033	7	Sololá	719	Santiago Atitlán	14	Cerro de Oro	9	Septiembre	2023-07-09T00:00:00	2024-11-08T02:00:00	2	Temperatura media	18.6
171034	7	Sololá	719	Santiago Atitlán	14	Cerro de Oro	9	Septiembre	2023-07-09T00:00:00	2024-11-08T02:00:00	4	Temperatura máxima	19.6
171035	7	Sololá	719	Santiago Atitlán	14	Cerro de Oro	9	Septiembre	2023-07-09T00:00:00	2024-11-08T02:00:00	3	Temperatura mínima	18.6
171036	7	Sololá	719	Santiago Atitlán	14	Cerro de Oro	9	Septiembre	2023-07-09T00:00:00	2024-11-08T02:00:00	5	Humedad	83
171037	7	Sololá	719	Santiago Atitlán	14	Cerro de Oro	9	Septiembre	2023-07-09T00:00:00	2024-11-08T02:00:00	6	Velocidad del viento	4.8
171038	7	Sololá	719	Santiago Atitlán	14	Cerro de Oro	9	Septiembre	2023-07-09T00:00:00	2024-11-08T02:00:00	7	Dirección del viento	4.83
171039	7	Sololá	719	Santiago Atitlán	14	Cerro de Oro	9	Septiembre	2023-07-09T00:00:00	2024-11-08T02:00:00	1	Precipitación	0
171040	7	Sololá	719	Santiago Atitlán	14	Cerro de Oro	9	Septiembre	2023-07-09T00:00:00	2024-11-08T02:00:00	8	Radiación solar	0
171041	7	Sololá	719	Santiago Atitlán	14	Cerro de Oro	9	Septiembre	2023-07-09T00:00:00	2024-11-08T03:00:00	2	Temperatura media	18.8
171042	7	Sololá	719	Santiago Atitlán	14	Cerro de Oro	9	Septiembre	2023-07-09T00:00:00	2024-11-08T03:00:00	4	Temperatura máxima	19.5
171043	7	Sololá	719	Santiago Atitlán	14	Cerro de Oro	9	Septiembre	2023-07-09T00:00:00	2024-11-08T03:00:00	3	Temperatura mínima	18.7
171044	7	Sololá	719	Santiago Atitlán	14	Cerro de Oro	9	Septiembre	2023-07-09T00:00:00	2024-11-08T03:00:00	5	Humedad	85
171045	7	Sololá	719	Santiago Atitlán	14	Cerro de Oro	9	Septiembre	2023-07-09T00:00:00	2024-11-08T03:00:00	6	Velocidad del viento	3.2
171046	7	Sololá	719	Santiago Atitlán	14	Cerro de Oro	9	Septiembre	2023-07-09T00:00:00	2024-11-08T03:00:00	7	Dirección del viento	3.22
171047	7	Sololá	719	Santiago Atitlán	14	Cerro de Oro	9	Septiembre	2023-07-09T00:00:00	2024-11-08T03:00:00	1	Precipitación	0
171048	7	Sololá	719	Santiago Atitlán	14	Cerro de Oro	9	Septiembre	2023-07-09T00:00:00	2024-11-08T03:00:00	8	Radiación solar	0
171049	7	Sololá	719	Santiago Atitlán	14	Cerro de Oro	9	Septiembre	2023-07-09T00:00:00	2024-11-08T04:00:00	2	Temperatura media	18.8
171050	7	Sololá	719	Santiago Atitlán	14	Cerro de Oro	9	Septiembre	2023-07-09T00:00:00	2024-11-08T04:00:00	4	Temperatura máxima	19
171051	7	Sololá	719	Santiago Atitlán	14	Cerro de Oro	9	Septiembre	2023-07-09T00:00:00	2024-11-08T04:00:00	3	Temperatura mínima	18.6
171052	7	Sololá	719	Santiago Atitlán	14	Cerro de Oro	9	Septiembre	2023-07-09T00:00:00	2024-11-08T04:00:00	5	Humedad	85
171053	7	Sololá	719	Santiago Atitlán	14	Cerro de Oro	9	Septiembre	2023-07-09T00:00:00	2024-11-08T04:00:00	6	Velocidad del viento	3.2
171054	7	Sololá	719	Santiago Atitlán	14	Cerro de Oro	9	Septiembre	2023-07-09T00:00:00	2024-11-08T04:00:00	7	Dirección del viento	3.22
171055	7	Sololá	719	Santiago Atitlán	14	Cerro de Oro	9	Septiembre	2023-07-09T00:00:00	2024-11-08T04:00:00	1	Precipitación	0
171056	7	Sololá	719	Santiago Atitlán	14	Cerro de Oro	9	Septiembre	2023-07-09T00:00:00	2024-11-08T04:00:00	8	Radiación solar	0
171057	7	Sololá	719	Santiago Atitlán	14	Cerro de Oro	9	Septiembre	2023-07-09T00:00:00	2024-11-08T05:00:00	2	Temperatura media	18.4
171058	7	Sololá	719	Santiago Atitlán	14	Cerro de Oro	9	Septiembre	2023-07-09T00:00:00	2024-11-08T05:00:00	4	Temperatura máxima	18.9
171059	7	Sololá	719	Santiago Atitlán	14	Cerro de Oro	9	Septiembre	2023-07-09T00:00:00	2024-11-08T05:00:00	3	Temperatura mínima	18.3
171060	7	Sololá	719	Santiago Atitlán	14	Cerro de Oro	9	Septiembre	2023-07-09T00:00:00	2024-11-08T05:00:00	5	Humedad	85
171061	7	Sololá	719	Santiago Atitlán	14	Cerro de Oro	9	Septiembre	2023-07-09T00:00:00	2024-11-08T05:00:00	6	Velocidad del viento	3.2
171062	7	Sololá	719	Santiago Atitlán	14	Cerro de Oro	9	Septiembre	2023-07-09T00:00:00	2024-11-08T05:00:00	7	Dirección del viento	3.22
171063	7	Sololá	719	Santiago Atitlán	14	Cerro de Oro	9	Septiembre	2023-07-09T00:00:00	2024-11-08T05:00:00	1	Precipitación	0
171064	7	Sololá	719	Santiago Atitlán	14	Cerro de Oro	9	Septiembre	2023-07-09T00:00:00	2024-11-08T05:00:00	8	Radiación solar	0
171065	7	Sololá	719	Santiago Atitlán	14	Cerro de Oro	9	Septiembre	2023-07-09T00:00:00	2024-11-08T06:00:00	2	Temperatura media	18.6
171066	7	Sololá	719	Santiago Atitlán	14	Cerro de Oro	9	Septiembre	2023-07-09T00:00:00	2024-11-08T06:00:00	4	Temperatura máxima	18.7
171067	7	Sololá	719	Santiago Atitlán	14	Cerro de Oro	9	Septiembre	2023-07-09T00:00:00	2024-11-08T06:00:00	3	Temperatura mínima	18.3
171068	7	Sololá	719	Santiago Atitlán	14	Cerro de Oro	9	Septiembre	2023-07-09T00:00:00	2024-11-08T06:00:00	5	Humedad	84
171069	7	Sololá	719	Santiago Atitlán	14	Cerro de Oro	9	Septiembre	2023-07-09T00:00:00	2024-11-08T06:00:00	6	Velocidad del viento	4.8
171070	7	Sololá	719	Santiago Atitlán	14	Cerro de Oro	9	Septiembre	2023-07-09T00:00:00	2024-11-08T06:00:00	7	Dirección del viento	4.83
171071	7	Sololá	719	Santiago Atitlán	14	Cerro de Oro	9	Septiembre	2023-07-09T00:00:00	2024-11-08T06:00:00	1	Precipitación	0
171072	7	Sololá	719	Santiago Atitlán	14	Cerro de Oro	9	Septiembre	2023-07-09T00:00:00	2024-11-08T06:00:00	8	Radiación solar	1
171073	7	Sololá	719	Santiago Atitlán	14	Cerro de Oro	9	Septiembre	2023-07-09T00:00:00	2024-11-08T07:00:00	2	Temperatura media	19.8
171074	7	Sololá	719	Santiago Atitlán	14	Cerro de Oro	9	Septiembre	2023-07-09T00:00:00	2024-11-08T07:00:00	4	Temperatura máxima	20
171075	7	Sololá	719	Santiago Atitlán	14	Cerro de Oro	9	Septiembre	2023-07-09T00:00:00	2024-11-08T07:00:00	3	Temperatura mínima	18.6
171076	7	Sololá	719	Santiago Atitlán	14	Cerro de Oro	9	Septiembre	2023-07-09T00:00:00	2024-11-08T07:00:00	5	Humedad	82
171077	7	Sololá	719	Santiago Atitlán	14	Cerro de Oro	9	Septiembre	2023-07-09T00:00:00	2024-11-08T07:00:00	6	Velocidad del viento	3.2
171078	7	Sololá	719	Santiago Atitlán	14	Cerro de Oro	9	Septiembre	2023-07-09T00:00:00	2024-11-08T07:00:00	7	Dirección del viento	3.22
171079	7	Sololá	719	Santiago Atitlán	14	Cerro de Oro	9	Septiembre	2023-07-09T00:00:00	2024-11-08T07:00:00	1	Precipitación	0
171080	7	Sololá	719	Santiago Atitlán	14	Cerro de Oro	9	Septiembre	2023-07-09T00:00:00	2024-11-08T07:00:00	8	Radiación solar	52
171081	7	Sololá	719	Santiago Atitlán	14	Cerro de Oro	9	Septiembre	2023-07-09T00:00:00	2024-11-08T08:00:00	2	Temperatura media	22.2
171082	7	Sololá	719	Santiago Atitlán	14	Cerro de Oro	9	Septiembre	2023-07-09T00:00:00	2024-11-08T08:00:00	4	Temperatura máxima	22.2
171083	7	Sololá	719	Santiago Atitlán	14	Cerro de Oro	9	Septiembre	2023-07-09T00:00:00	2024-11-08T08:00:00	3	Temperatura mínima	19.7
171084	7	Sololá	719	Santiago Atitlán	14	Cerro de Oro	9	Septiembre	2023-07-09T00:00:00	2024-11-08T08:00:00	5	Humedad	73
171085	7	Sololá	719	Santiago Atitlán	14	Cerro de Oro	9	Septiembre	2023-07-09T00:00:00	2024-11-08T08:00:00	6	Velocidad del viento	3.2
171086	7	Sololá	719	Santiago Atitlán	14	Cerro de Oro	9	Septiembre	2023-07-09T00:00:00	2024-11-08T08:00:00	7	Dirección del viento	3.22
171087	7	Sololá	719	Santiago Atitlán	14	Cerro de Oro	9	Septiembre	2023-07-09T00:00:00	2024-11-08T08:00:00	1	Precipitación	0
171088	7	Sololá	719	Santiago Atitlán	14	Cerro de Oro	9	Septiembre	2023-07-09T00:00:00	2024-11-08T08:00:00	8	Radiación solar	206
171089	7	Sololá	719	Santiago Atitlán	14	Cerro de Oro	9	Septiembre	2023-07-09T00:00:00	2024-11-08T09:00:00	2	Temperatura media	23.4
171090	7	Sololá	719	Santiago Atitlán	14	Cerro de Oro	9	Septiembre	2023-07-09T00:00:00	2024-11-08T09:00:00	4	Temperatura máxima	23.5
171091	7	Sololá	719	Santiago Atitlán	14	Cerro de Oro	9	Septiembre	2023-07-09T00:00:00	2024-11-08T09:00:00	3	Temperatura mínima	22.2
171092	7	Sololá	719	Santiago Atitlán	14	Cerro de Oro	9	Septiembre	2023-07-09T00:00:00	2024-11-08T09:00:00	5	Humedad	67
171093	7	Sololá	719	Santiago Atitlán	14	Cerro de Oro	9	Septiembre	2023-07-09T00:00:00	2024-11-08T09:00:00	6	Velocidad del viento	4.8
171094	7	Sololá	719	Santiago Atitlán	14	Cerro de Oro	9	Septiembre	2023-07-09T00:00:00	2024-11-08T09:00:00	7	Dirección del viento	4.83
171095	7	Sololá	719	Santiago Atitlán	14	Cerro de Oro	9	Septiembre	2023-07-09T00:00:00	2024-11-08T09:00:00	1	Precipitación	0
171096	7	Sololá	719	Santiago Atitlán	14	Cerro de Oro	9	Septiembre	2023-07-09T00:00:00	2024-11-08T09:00:00	8	Radiación solar	398
171097	7	Sololá	719	Santiago Atitlán	14	Cerro de Oro	9	Septiembre	2023-07-09T00:00:00	2024-11-08T10:00:00	2	Temperatura media	25.2
171098	7	Sololá	719	Santiago Atitlán	14	Cerro de Oro	9	Septiembre	2023-07-09T00:00:00	2024-11-08T10:00:00	4	Temperatura máxima	25.3
171099	7	Sololá	719	Santiago Atitlán	14	Cerro de Oro	9	Septiembre	2023-07-09T00:00:00	2024-11-08T10:00:00	3	Temperatura mínima	23.4
171100	7	Sololá	719	Santiago Atitlán	14	Cerro de Oro	9	Septiembre	2023-07-09T00:00:00	2024-11-08T10:00:00	5	Humedad	56
171101	7	Sololá	719	Santiago Atitlán	14	Cerro de Oro	9	Septiembre	2023-07-09T00:00:00	2024-11-08T10:00:00	6	Velocidad del viento	3.2
171102	7	Sololá	719	Santiago Atitlán	14	Cerro de Oro	9	Septiembre	2023-07-09T00:00:00	2024-11-08T10:00:00	7	Dirección del viento	3.22
171103	7	Sololá	719	Santiago Atitlán	14	Cerro de Oro	9	Septiembre	2023-07-09T00:00:00	2024-11-08T10:00:00	1	Precipitación	0
171104	7	Sololá	719	Santiago Atitlán	14	Cerro de Oro	9	Septiembre	2023-07-09T00:00:00	2024-11-08T10:00:00	8	Radiación solar	612
171105	7	Sololá	719	Santiago Atitlán	14	Cerro de Oro	9	Septiembre	2023-07-09T00:00:00	2024-11-08T11:00:00	2	Temperatura media	24.6
171106	7	Sololá	719	Santiago Atitlán	14	Cerro de Oro	9	Septiembre	2023-07-09T00:00:00	2024-11-08T11:00:00	4	Temperatura máxima	25.3
171107	7	Sololá	719	Santiago Atitlán	14	Cerro de Oro	9	Septiembre	2023-07-09T00:00:00	2024-11-08T11:00:00	3	Temperatura mínima	24.2
171108	7	Sololá	719	Santiago Atitlán	14	Cerro de Oro	9	Septiembre	2023-07-09T00:00:00	2024-11-08T11:00:00	5	Humedad	67
171109	7	Sololá	719	Santiago Atitlán	14	Cerro de Oro	9	Septiembre	2023-07-09T00:00:00	2024-11-08T11:00:00	6	Velocidad del viento	4.8
171110	7	Sololá	719	Santiago Atitlán	14	Cerro de Oro	9	Septiembre	2023-07-09T00:00:00	2024-11-08T11:00:00	7	Dirección del viento	4.83
171111	7	Sololá	719	Santiago Atitlán	14	Cerro de Oro	9	Septiembre	2023-07-09T00:00:00	2024-11-08T11:00:00	1	Precipitación	0
171112	7	Sololá	719	Santiago Atitlán	14	Cerro de Oro	9	Septiembre	2023-07-09T00:00:00	2024-11-08T11:00:00	8	Radiación solar	769
171113	7	Sololá	719	Santiago Atitlán	14	Cerro de Oro	9	Septiembre	2023-07-09T00:00:00	2024-11-08T12:00:00	2	Temperatura media	24.1
171114	7	Sololá	719	Santiago Atitlán	14	Cerro de Oro	9	Septiembre	2023-07-09T00:00:00	2024-11-08T12:00:00	4	Temperatura máxima	24.8
171115	7	Sololá	719	Santiago Atitlán	14	Cerro de Oro	9	Septiembre	2023-07-09T00:00:00	2024-11-08T12:00:00	3	Temperatura mínima	24.1
171116	7	Sololá	719	Santiago Atitlán	14	Cerro de Oro	9	Septiembre	2023-07-09T00:00:00	2024-11-08T12:00:00	5	Humedad	71
171117	7	Sololá	719	Santiago Atitlán	14	Cerro de Oro	9	Septiembre	2023-07-09T00:00:00	2024-11-08T12:00:00	6	Velocidad del viento	4.8
171118	7	Sololá	719	Santiago Atitlán	14	Cerro de Oro	9	Septiembre	2023-07-09T00:00:00	2024-11-08T12:00:00	7	Dirección del viento	4.83
171119	7	Sololá	719	Santiago Atitlán	14	Cerro de Oro	9	Septiembre	2023-07-09T00:00:00	2024-11-08T12:00:00	1	Precipitación	0
171120	7	Sololá	719	Santiago Atitlán	14	Cerro de Oro	9	Septiembre	2023-07-09T00:00:00	2024-11-08T12:00:00	8	Radiación solar	837
171121	7	Sololá	719	Santiago Atitlán	14	Cerro de Oro	9	Septiembre	2023-07-09T00:00:00	2024-11-08T13:00:00	2	Temperatura media	23.9
171122	7	Sololá	719	Santiago Atitlán	14	Cerro de Oro	9	Septiembre	2023-07-09T00:00:00	2024-11-08T13:00:00	4	Temperatura máxima	25.3
171123	7	Sololá	719	Santiago Atitlán	14	Cerro de Oro	9	Septiembre	2023-07-09T00:00:00	2024-11-08T13:00:00	3	Temperatura mínima	23.9
171124	7	Sololá	719	Santiago Atitlán	14	Cerro de Oro	9	Septiembre	2023-07-09T00:00:00	2024-11-08T13:00:00	5	Humedad	79
171125	7	Sololá	719	Santiago Atitlán	14	Cerro de Oro	9	Septiembre	2023-07-09T00:00:00	2024-11-08T13:00:00	6	Velocidad del viento	9.7
171126	7	Sololá	719	Santiago Atitlán	14	Cerro de Oro	9	Septiembre	2023-07-09T00:00:00	2024-11-08T13:00:00	7	Dirección del viento	9.66
171127	7	Sololá	719	Santiago Atitlán	14	Cerro de Oro	9	Septiembre	2023-07-09T00:00:00	2024-11-08T13:00:00	1	Precipitación	0
171128	7	Sololá	719	Santiago Atitlán	14	Cerro de Oro	9	Septiembre	2023-07-09T00:00:00	2024-11-08T13:00:00	8	Radiación solar	854
171129	7	Sololá	719	Santiago Atitlán	14	Cerro de Oro	9	Septiembre	2023-07-09T00:00:00	2024-11-08T14:00:00	2	Temperatura media	23.1
171130	7	Sololá	719	Santiago Atitlán	14	Cerro de Oro	9	Septiembre	2023-07-09T00:00:00	2024-11-08T14:00:00	4	Temperatura máxima	24.4
171131	7	Sololá	719	Santiago Atitlán	14	Cerro de Oro	9	Septiembre	2023-07-09T00:00:00	2024-11-08T14:00:00	3	Temperatura mínima	23.1
171132	7	Sololá	719	Santiago Atitlán	14	Cerro de Oro	9	Septiembre	2023-07-09T00:00:00	2024-11-08T14:00:00	5	Humedad	79
171133	7	Sololá	719	Santiago Atitlán	14	Cerro de Oro	9	Septiembre	2023-07-09T00:00:00	2024-11-08T14:00:00	6	Velocidad del viento	12.9
171134	7	Sololá	719	Santiago Atitlán	14	Cerro de Oro	9	Septiembre	2023-07-09T00:00:00	2024-11-08T14:00:00	7	Dirección del viento	12.87
171135	7	Sololá	719	Santiago Atitlán	14	Cerro de Oro	9	Septiembre	2023-07-09T00:00:00	2024-11-08T14:00:00	1	Precipitación	0
171136	7	Sololá	719	Santiago Atitlán	14	Cerro de Oro	9	Septiembre	2023-07-09T00:00:00	2024-11-08T14:00:00	8	Radiación solar	730
171137	7	Sololá	719	Santiago Atitlán	14	Cerro de Oro	9	Septiembre	2023-07-09T00:00:00	2024-11-08T15:00:00	2	Temperatura media	22.1
171138	7	Sololá	719	Santiago Atitlán	14	Cerro de Oro	9	Septiembre	2023-07-09T00:00:00	2024-11-08T15:00:00	4	Temperatura máxima	23.1
171139	7	Sololá	719	Santiago Atitlán	14	Cerro de Oro	9	Septiembre	2023-07-09T00:00:00	2024-11-08T15:00:00	3	Temperatura mínima	21.9
171140	7	Sololá	719	Santiago Atitlán	14	Cerro de Oro	9	Septiembre	2023-07-09T00:00:00	2024-11-08T15:00:00	5	Humedad	86
171141	7	Sololá	719	Santiago Atitlán	14	Cerro de Oro	9	Septiembre	2023-07-09T00:00:00	2024-11-08T15:00:00	6	Velocidad del viento	9.7
171142	7	Sololá	719	Santiago Atitlán	14	Cerro de Oro	9	Septiembre	2023-07-09T00:00:00	2024-11-08T15:00:00	7	Dirección del viento	9.66
171143	7	Sololá	719	Santiago Atitlán	14	Cerro de Oro	9	Septiembre	2023-07-09T00:00:00	2024-11-08T15:00:00	1	Precipitación	0
171144	7	Sololá	719	Santiago Atitlán	14	Cerro de Oro	9	Septiembre	2023-07-09T00:00:00	2024-11-08T15:00:00	8	Radiación solar	280
171145	7	Sololá	719	Santiago Atitlán	14	Cerro de Oro	9	Septiembre	2023-07-09T00:00:00	2024-11-08T16:00:00	2	Temperatura media	20.2
171146	7	Sololá	719	Santiago Atitlán	14	Cerro de Oro	9	Septiembre	2023-07-09T00:00:00	2024-11-08T16:00:00	4	Temperatura máxima	22
171147	7	Sololá	719	Santiago Atitlán	14	Cerro de Oro	9	Septiembre	2023-07-09T00:00:00	2024-11-08T16:00:00	3	Temperatura mínima	20.2
171148	7	Sololá	719	Santiago Atitlán	14	Cerro de Oro	9	Septiembre	2023-07-09T00:00:00	2024-11-08T16:00:00	5	Humedad	91
171149	7	Sololá	719	Santiago Atitlán	14	Cerro de Oro	9	Septiembre	2023-07-09T00:00:00	2024-11-08T16:00:00	6	Velocidad del viento	9.7
171150	7	Sololá	719	Santiago Atitlán	14	Cerro de Oro	9	Septiembre	2023-07-09T00:00:00	2024-11-08T16:00:00	7	Dirección del viento	9.66
171151	7	Sololá	719	Santiago Atitlán	14	Cerro de Oro	9	Septiembre	2023-07-09T00:00:00	2024-11-08T16:00:00	1	Precipitación	0
171152	7	Sololá	719	Santiago Atitlán	14	Cerro de Oro	9	Septiembre	2023-07-09T00:00:00	2024-11-08T16:00:00	8	Radiación solar	223
171153	7	Sololá	719	Santiago Atitlán	14	Cerro de Oro	9	Septiembre	2023-07-09T00:00:00	2024-11-08T17:00:00	2	Temperatura media	20.7
171154	7	Sololá	719	Santiago Atitlán	14	Cerro de Oro	9	Septiembre	2023-07-09T00:00:00	2024-11-08T17:00:00	4	Temperatura máxima	20.7
171155	7	Sololá	719	Santiago Atitlán	14	Cerro de Oro	9	Septiembre	2023-07-09T00:00:00	2024-11-08T17:00:00	3	Temperatura mínima	20.1
171156	7	Sololá	719	Santiago Atitlán	14	Cerro de Oro	9	Septiembre	2023-07-09T00:00:00	2024-11-08T17:00:00	5	Humedad	88
171157	7	Sololá	719	Santiago Atitlán	14	Cerro de Oro	9	Septiembre	2023-07-09T00:00:00	2024-11-08T17:00:00	6	Velocidad del viento	6.4
171158	7	Sololá	719	Santiago Atitlán	14	Cerro de Oro	9	Septiembre	2023-07-09T00:00:00	2024-11-08T17:00:00	7	Dirección del viento	6.44
171159	7	Sololá	719	Santiago Atitlán	14	Cerro de Oro	9	Septiembre	2023-07-09T00:00:00	2024-11-08T17:00:00	1	Precipitación	0
171160	7	Sololá	719	Santiago Atitlán	14	Cerro de Oro	9	Septiembre	2023-07-09T00:00:00	2024-11-08T17:00:00	8	Radiación solar	67
171161	7	Sololá	719	Santiago Atitlán	14	Cerro de Oro	9	Septiembre	2023-07-09T00:00:00	2024-11-08T18:00:00	2	Temperatura media	20.1
171162	7	Sololá	719	Santiago Atitlán	14	Cerro de Oro	9	Septiembre	2023-07-09T00:00:00	2024-11-08T18:00:00	4	Temperatura máxima	20.7
171163	7	Sololá	719	Santiago Atitlán	14	Cerro de Oro	9	Septiembre	2023-07-09T00:00:00	2024-11-08T18:00:00	3	Temperatura mínima	20
171164	7	Sololá	719	Santiago Atitlán	14	Cerro de Oro	9	Septiembre	2023-07-09T00:00:00	2024-11-08T18:00:00	5	Humedad	90
171165	7	Sololá	719	Santiago Atitlán	14	Cerro de Oro	9	Septiembre	2023-07-09T00:00:00	2024-11-08T18:00:00	6	Velocidad del viento	4.8
171166	7	Sololá	719	Santiago Atitlán	14	Cerro de Oro	9	Septiembre	2023-07-09T00:00:00	2024-11-08T18:00:00	7	Dirección del viento	4.83
171167	7	Sololá	719	Santiago Atitlán	14	Cerro de Oro	9	Septiembre	2023-07-09T00:00:00	2024-11-08T18:00:00	1	Precipitación	0
171168	7	Sololá	719	Santiago Atitlán	14	Cerro de Oro	9	Septiembre	2023-07-09T00:00:00	2024-11-08T18:00:00	8	Radiación solar	23
171169	7	Sololá	719	Santiago Atitlán	14	Cerro de Oro	9	Septiembre	2023-07-09T00:00:00	2024-11-08T19:00:00	2	Temperatura media	18.7
171170	7	Sololá	719	Santiago Atitlán	14	Cerro de Oro	9	Septiembre	2023-07-09T00:00:00	2024-11-08T19:00:00	4	Temperatura máxima	20.2
171171	7	Sololá	719	Santiago Atitlán	14	Cerro de Oro	9	Septiembre	2023-07-09T00:00:00	2024-11-08T19:00:00	3	Temperatura mínima	18.6
171172	7	Sololá	719	Santiago Atitlán	14	Cerro de Oro	9	Septiembre	2023-07-09T00:00:00	2024-11-08T19:00:00	5	Humedad	89
171173	7	Sololá	719	Santiago Atitlán	14	Cerro de Oro	9	Septiembre	2023-07-09T00:00:00	2024-11-08T19:00:00	6	Velocidad del viento	6.4
171174	7	Sololá	719	Santiago Atitlán	14	Cerro de Oro	9	Septiembre	2023-07-09T00:00:00	2024-11-08T19:00:00	7	Dirección del viento	6.44
171175	7	Sololá	719	Santiago Atitlán	14	Cerro de Oro	9	Septiembre	2023-07-09T00:00:00	2024-11-08T19:00:00	1	Precipitación	1
171176	7	Sololá	719	Santiago Atitlán	14	Cerro de Oro	9	Septiembre	2023-07-09T00:00:00	2024-11-08T19:00:00	8	Radiación solar	0
171177	7	Sololá	719	Santiago Atitlán	14	Cerro de Oro	9	Septiembre	2023-07-09T00:00:00	2024-11-08T20:00:00	2	Temperatura media	19.1
171178	7	Sololá	719	Santiago Atitlán	14	Cerro de Oro	9	Septiembre	2023-07-09T00:00:00	2024-11-08T20:00:00	4	Temperatura máxima	19.2
171179	7	Sololá	719	Santiago Atitlán	14	Cerro de Oro	9	Septiembre	2023-07-09T00:00:00	2024-11-08T20:00:00	3	Temperatura mínima	18.7
171180	7	Sololá	719	Santiago Atitlán	14	Cerro de Oro	9	Septiembre	2023-07-09T00:00:00	2024-11-08T20:00:00	5	Humedad	87
171181	7	Sololá	719	Santiago Atitlán	14	Cerro de Oro	9	Septiembre	2023-07-09T00:00:00	2024-11-08T20:00:00	6	Velocidad del viento	4.8
171182	7	Sololá	719	Santiago Atitlán	14	Cerro de Oro	9	Septiembre	2023-07-09T00:00:00	2024-11-08T20:00:00	7	Dirección del viento	4.83
171183	7	Sololá	719	Santiago Atitlán	14	Cerro de Oro	9	Septiembre	2023-07-09T00:00:00	2024-11-08T20:00:00	1	Precipitación	0
171184	7	Sololá	719	Santiago Atitlán	14	Cerro de Oro	9	Septiembre	2023-07-09T00:00:00	2024-11-08T20:00:00	8	Radiación solar	0
171185	7	Sololá	719	Santiago Atitlán	14	Cerro de Oro	9	Septiembre	2023-07-09T00:00:00	2024-11-08T21:00:00	2	Temperatura media	19.1
171186	7	Sololá	719	Santiago Atitlán	14	Cerro de Oro	9	Septiembre	2023-07-09T00:00:00	2024-11-08T21:00:00	4	Temperatura máxima	19.4
171187	7	Sololá	719	Santiago Atitlán	14	Cerro de Oro	9	Septiembre	2023-07-09T00:00:00	2024-11-08T21:00:00	3	Temperatura mínima	18.9
171188	7	Sololá	719	Santiago Atitlán	14	Cerro de Oro	9	Septiembre	2023-07-09T00:00:00	2024-11-08T21:00:00	5	Humedad	87
171189	7	Sololá	719	Santiago Atitlán	14	Cerro de Oro	9	Septiembre	2023-07-09T00:00:00	2024-11-08T21:00:00	6	Velocidad del viento	4.8
171190	7	Sololá	719	Santiago Atitlán	14	Cerro de Oro	9	Septiembre	2023-07-09T00:00:00	2024-11-08T21:00:00	7	Dirección del viento	4.83
171191	7	Sololá	719	Santiago Atitlán	14	Cerro de Oro	9	Septiembre	2023-07-09T00:00:00	2024-11-08T21:00:00	1	Precipitación	0
171192	7	Sololá	719	Santiago Atitlán	14	Cerro de Oro	9	Septiembre	2023-07-09T00:00:00	2024-11-08T21:00:00	8	Radiación solar	0
171193	7	Sololá	719	Santiago Atitlán	14	Cerro de Oro	9	Septiembre	2023-07-09T00:00:00	2024-11-08T22:00:00	2	Temperatura media	19.2
171194	7	Sololá	719	Santiago Atitlán	14	Cerro de Oro	9	Septiembre	2023-07-09T00:00:00	2024-11-08T22:00:00	4	Temperatura máxima	19.2
171195	7	Sololá	719	Santiago Atitlán	14	Cerro de Oro	9	Septiembre	2023-07-09T00:00:00	2024-11-08T22:00:00	3	Temperatura mínima	18.9
171196	7	Sololá	719	Santiago Atitlán	14	Cerro de Oro	9	Septiembre	2023-07-09T00:00:00	2024-11-08T22:00:00	5	Humedad	87
171197	7	Sololá	719	Santiago Atitlán	14	Cerro de Oro	9	Septiembre	2023-07-09T00:00:00	2024-11-08T22:00:00	6	Velocidad del viento	3.2
171198	7	Sololá	719	Santiago Atitlán	14	Cerro de Oro	9	Septiembre	2023-07-09T00:00:00	2024-11-08T22:00:00	7	Dirección del viento	3.22
171199	7	Sololá	719	Santiago Atitlán	14	Cerro de Oro	9	Septiembre	2023-07-09T00:00:00	2024-11-08T22:00:00	1	Precipitación	0
171200	7	Sololá	719	Santiago Atitlán	14	Cerro de Oro	9	Septiembre	2023-07-09T00:00:00	2024-11-08T22:00:00	8	Radiación solar	0
171201	7	Sololá	719	Santiago Atitlán	14	Cerro de Oro	9	Septiembre	2023-07-09T00:00:00	2024-11-08T23:00:00	2	Temperatura media	18.7
171202	7	Sololá	719	Santiago Atitlán	14	Cerro de Oro	9	Septiembre	2023-07-09T00:00:00	2024-11-08T23:00:00	4	Temperatura máxima	19.2
171203	7	Sololá	719	Santiago Atitlán	14	Cerro de Oro	9	Septiembre	2023-07-09T00:00:00	2024-11-08T23:00:00	3	Temperatura mínima	18.5
171204	7	Sololá	719	Santiago Atitlán	14	Cerro de Oro	9	Septiembre	2023-07-09T00:00:00	2024-11-08T23:00:00	5	Humedad	83
171205	7	Sololá	719	Santiago Atitlán	14	Cerro de Oro	9	Septiembre	2023-07-09T00:00:00	2024-11-08T23:00:00	6	Velocidad del viento	6.4
171206	7	Sololá	719	Santiago Atitlán	14	Cerro de Oro	9	Septiembre	2023-07-09T00:00:00	2024-11-08T23:00:00	7	Dirección del viento	6.44
171207	7	Sololá	719	Santiago Atitlán	14	Cerro de Oro	9	Septiembre	2023-07-09T00:00:00	2024-11-08T23:00:00	1	Precipitación	0
171208	7	Sololá	719	Santiago Atitlán	14	Cerro de Oro	9	Septiembre	2023-07-09T00:00:00	2024-11-08T23:00:00	8	Radiación solar	0
171209	7	Sololá	719	Santiago Atitlán	14	Cerro de Oro	9	Septiembre	2023-08-09T00:00:00	2024-11-08T00:00:00	2	Temperatura media	19.2
171210	7	Sololá	719	Santiago Atitlán	14	Cerro de Oro	9	Septiembre	2023-08-09T00:00:00	2024-11-08T00:00:00	4	Temperatura máxima	19.3
171211	7	Sololá	719	Santiago Atitlán	14	Cerro de Oro	9	Septiembre	2023-08-09T00:00:00	2024-11-08T00:00:00	3	Temperatura mínima	18.7
171212	7	Sololá	719	Santiago Atitlán	14	Cerro de Oro	9	Septiembre	2023-08-09T00:00:00	2024-11-08T00:00:00	5	Humedad	76
171213	7	Sololá	719	Santiago Atitlán	14	Cerro de Oro	9	Septiembre	2023-08-09T00:00:00	2024-11-08T00:00:00	6	Velocidad del viento	6.4
171214	7	Sololá	719	Santiago Atitlán	14	Cerro de Oro	9	Septiembre	2023-08-09T00:00:00	2024-11-08T00:00:00	7	Dirección del viento	6.44
171215	7	Sololá	719	Santiago Atitlán	14	Cerro de Oro	9	Septiembre	2023-08-09T00:00:00	2024-11-08T00:00:00	1	Precipitación	0
171216	7	Sololá	719	Santiago Atitlán	14	Cerro de Oro	9	Septiembre	2023-08-09T00:00:00	2024-11-08T00:00:00	8	Radiación solar	0
171217	7	Sololá	719	Santiago Atitlán	14	Cerro de Oro	9	Septiembre	2023-08-09T00:00:00	2024-11-08T01:00:00	2	Temperatura media	18.9
171218	7	Sololá	719	Santiago Atitlán	14	Cerro de Oro	9	Septiembre	2023-08-09T00:00:00	2024-11-08T01:00:00	4	Temperatura máxima	19.5
171219	7	Sololá	719	Santiago Atitlán	14	Cerro de Oro	9	Septiembre	2023-08-09T00:00:00	2024-11-08T01:00:00	3	Temperatura mínima	18.6
171220	7	Sololá	719	Santiago Atitlán	14	Cerro de Oro	9	Septiembre	2023-08-09T00:00:00	2024-11-08T01:00:00	5	Humedad	79
171221	7	Sololá	719	Santiago Atitlán	14	Cerro de Oro	9	Septiembre	2023-08-09T00:00:00	2024-11-08T01:00:00	6	Velocidad del viento	4.8
171222	7	Sololá	719	Santiago Atitlán	14	Cerro de Oro	9	Septiembre	2023-08-09T00:00:00	2024-11-08T01:00:00	7	Dirección del viento	4.83
171223	7	Sololá	719	Santiago Atitlán	14	Cerro de Oro	9	Septiembre	2023-08-09T00:00:00	2024-11-08T01:00:00	1	Precipitación	0
171224	7	Sololá	719	Santiago Atitlán	14	Cerro de Oro	9	Septiembre	2023-08-09T00:00:00	2024-11-08T01:00:00	8	Radiación solar	0
171225	7	Sololá	719	Santiago Atitlán	14	Cerro de Oro	9	Septiembre	2023-08-09T00:00:00	2024-11-08T02:00:00	2	Temperatura media	19
171226	7	Sololá	719	Santiago Atitlán	14	Cerro de Oro	9	Septiembre	2023-08-09T00:00:00	2024-11-08T02:00:00	4	Temperatura máxima	19.8
171227	7	Sololá	719	Santiago Atitlán	14	Cerro de Oro	9	Septiembre	2023-08-09T00:00:00	2024-11-08T02:00:00	3	Temperatura mínima	18.9
171228	7	Sololá	719	Santiago Atitlán	14	Cerro de Oro	9	Septiembre	2023-08-09T00:00:00	2024-11-08T02:00:00	5	Humedad	76
171229	7	Sololá	719	Santiago Atitlán	14	Cerro de Oro	9	Septiembre	2023-08-09T00:00:00	2024-11-08T02:00:00	6	Velocidad del viento	4.8
171230	7	Sololá	719	Santiago Atitlán	14	Cerro de Oro	9	Septiembre	2023-08-09T00:00:00	2024-11-08T02:00:00	7	Dirección del viento	4.83
171231	7	Sololá	719	Santiago Atitlán	14	Cerro de Oro	9	Septiembre	2023-08-09T00:00:00	2024-11-08T02:00:00	1	Precipitación	0
171232	7	Sololá	719	Santiago Atitlán	14	Cerro de Oro	9	Septiembre	2023-08-09T00:00:00	2024-11-08T02:00:00	8	Radiación solar	0
171233	7	Sololá	719	Santiago Atitlán	14	Cerro de Oro	9	Septiembre	2023-08-09T00:00:00	2024-11-08T03:00:00	2	Temperatura media	17.8
171234	7	Sololá	719	Santiago Atitlán	14	Cerro de Oro	9	Septiembre	2023-08-09T00:00:00	2024-11-08T03:00:00	4	Temperatura máxima	19.2
171235	7	Sololá	719	Santiago Atitlán	14	Cerro de Oro	9	Septiembre	2023-08-09T00:00:00	2024-11-08T03:00:00	3	Temperatura mínima	17.8
171236	7	Sololá	719	Santiago Atitlán	14	Cerro de Oro	9	Septiembre	2023-08-09T00:00:00	2024-11-08T03:00:00	5	Humedad	78
171237	7	Sololá	719	Santiago Atitlán	14	Cerro de Oro	9	Septiembre	2023-08-09T00:00:00	2024-11-08T03:00:00	6	Velocidad del viento	4.8
171238	7	Sololá	719	Santiago Atitlán	14	Cerro de Oro	9	Septiembre	2023-08-09T00:00:00	2024-11-08T03:00:00	7	Dirección del viento	4.83
171239	7	Sololá	719	Santiago Atitlán	14	Cerro de Oro	9	Septiembre	2023-08-09T00:00:00	2024-11-08T03:00:00	1	Precipitación	0
171240	7	Sololá	719	Santiago Atitlán	14	Cerro de Oro	9	Septiembre	2023-08-09T00:00:00	2024-11-08T03:00:00	8	Radiación solar	0
171241	7	Sololá	719	Santiago Atitlán	14	Cerro de Oro	9	Septiembre	2023-08-09T00:00:00	2024-11-08T04:00:00	2	Temperatura media	18.7
171242	7	Sololá	719	Santiago Atitlán	14	Cerro de Oro	9	Septiembre	2023-08-09T00:00:00	2024-11-08T04:00:00	4	Temperatura máxima	18.8
171243	7	Sololá	719	Santiago Atitlán	14	Cerro de Oro	9	Septiembre	2023-08-09T00:00:00	2024-11-08T04:00:00	3	Temperatura mínima	17.8
171244	7	Sololá	719	Santiago Atitlán	14	Cerro de Oro	9	Septiembre	2023-08-09T00:00:00	2024-11-08T04:00:00	5	Humedad	77
171245	7	Sololá	719	Santiago Atitlán	14	Cerro de Oro	9	Septiembre	2023-08-09T00:00:00	2024-11-08T04:00:00	6	Velocidad del viento	3.2
171246	7	Sololá	719	Santiago Atitlán	14	Cerro de Oro	9	Septiembre	2023-08-09T00:00:00	2024-11-08T04:00:00	7	Dirección del viento	3.22
171247	7	Sololá	719	Santiago Atitlán	14	Cerro de Oro	9	Septiembre	2023-08-09T00:00:00	2024-11-08T04:00:00	1	Precipitación	0
171248	7	Sololá	719	Santiago Atitlán	14	Cerro de Oro	9	Septiembre	2023-08-09T00:00:00	2024-11-08T04:00:00	8	Radiación solar	0
171249	7	Sololá	719	Santiago Atitlán	14	Cerro de Oro	9	Septiembre	2023-08-09T00:00:00	2024-11-08T05:00:00	2	Temperatura media	18.6
171250	7	Sololá	719	Santiago Atitlán	14	Cerro de Oro	9	Septiembre	2023-08-09T00:00:00	2024-11-08T05:00:00	4	Temperatura máxima	19.5
171251	7	Sololá	719	Santiago Atitlán	14	Cerro de Oro	9	Septiembre	2023-08-09T00:00:00	2024-11-08T05:00:00	3	Temperatura mínima	18.6
171252	7	Sololá	719	Santiago Atitlán	14	Cerro de Oro	9	Septiembre	2023-08-09T00:00:00	2024-11-08T05:00:00	5	Humedad	76
171253	7	Sololá	719	Santiago Atitlán	14	Cerro de Oro	9	Septiembre	2023-08-09T00:00:00	2024-11-08T05:00:00	6	Velocidad del viento	3.2
171254	7	Sololá	719	Santiago Atitlán	14	Cerro de Oro	9	Septiembre	2023-08-09T00:00:00	2024-11-08T05:00:00	7	Dirección del viento	3.22
171255	7	Sololá	719	Santiago Atitlán	14	Cerro de Oro	9	Septiembre	2023-08-09T00:00:00	2024-11-08T05:00:00	1	Precipitación	0
171256	7	Sololá	719	Santiago Atitlán	14	Cerro de Oro	9	Septiembre	2023-08-09T00:00:00	2024-11-08T05:00:00	8	Radiación solar	0
171257	7	Sololá	719	Santiago Atitlán	14	Cerro de Oro	9	Septiembre	2023-08-09T00:00:00	2024-11-08T06:00:00	2	Temperatura media	19.2
171258	7	Sololá	719	Santiago Atitlán	14	Cerro de Oro	9	Septiembre	2023-08-09T00:00:00	2024-11-08T06:00:00	4	Temperatura máxima	19.2
171259	7	Sololá	719	Santiago Atitlán	14	Cerro de Oro	9	Septiembre	2023-08-09T00:00:00	2024-11-08T06:00:00	3	Temperatura mínima	18.1
171260	7	Sololá	719	Santiago Atitlán	14	Cerro de Oro	9	Septiembre	2023-08-09T00:00:00	2024-11-08T06:00:00	5	Humedad	73
171261	7	Sololá	719	Santiago Atitlán	14	Cerro de Oro	9	Septiembre	2023-08-09T00:00:00	2024-11-08T06:00:00	6	Velocidad del viento	4.8
171262	7	Sololá	719	Santiago Atitlán	14	Cerro de Oro	9	Septiembre	2023-08-09T00:00:00	2024-11-08T06:00:00	7	Dirección del viento	4.83
171263	7	Sololá	719	Santiago Atitlán	14	Cerro de Oro	9	Septiembre	2023-08-09T00:00:00	2024-11-08T06:00:00	1	Precipitación	0
171264	7	Sololá	719	Santiago Atitlán	14	Cerro de Oro	9	Septiembre	2023-08-09T00:00:00	2024-11-08T06:00:00	8	Radiación solar	1
171265	7	Sololá	719	Santiago Atitlán	14	Cerro de Oro	9	Septiembre	2023-08-09T00:00:00	2024-11-08T07:00:00	2	Temperatura media	21
171266	7	Sololá	719	Santiago Atitlán	14	Cerro de Oro	9	Septiembre	2023-08-09T00:00:00	2024-11-08T07:00:00	4	Temperatura máxima	21.1
171267	7	Sololá	719	Santiago Atitlán	14	Cerro de Oro	9	Septiembre	2023-08-09T00:00:00	2024-11-08T07:00:00	3	Temperatura mínima	19.2
171268	7	Sololá	719	Santiago Atitlán	14	Cerro de Oro	9	Septiembre	2023-08-09T00:00:00	2024-11-08T07:00:00	5	Humedad	70
171269	7	Sololá	719	Santiago Atitlán	14	Cerro de Oro	9	Septiembre	2023-08-09T00:00:00	2024-11-08T07:00:00	6	Velocidad del viento	3.2
171270	7	Sololá	719	Santiago Atitlán	14	Cerro de Oro	9	Septiembre	2023-08-09T00:00:00	2024-11-08T07:00:00	7	Dirección del viento	3.22
171271	7	Sololá	719	Santiago Atitlán	14	Cerro de Oro	9	Septiembre	2023-08-09T00:00:00	2024-11-08T07:00:00	1	Precipitación	0
171272	7	Sololá	719	Santiago Atitlán	14	Cerro de Oro	9	Septiembre	2023-08-09T00:00:00	2024-11-08T07:00:00	8	Radiación solar	81
171273	7	Sololá	719	Santiago Atitlán	14	Cerro de Oro	9	Septiembre	2023-08-09T00:00:00	2024-11-08T08:00:00	2	Temperatura media	23.1
171274	7	Sololá	719	Santiago Atitlán	14	Cerro de Oro	9	Septiembre	2023-08-09T00:00:00	2024-11-08T08:00:00	4	Temperatura máxima	23.1
171275	7	Sololá	719	Santiago Atitlán	14	Cerro de Oro	9	Septiembre	2023-08-09T00:00:00	2024-11-08T08:00:00	3	Temperatura mínima	21.1
171276	7	Sololá	719	Santiago Atitlán	14	Cerro de Oro	9	Septiembre	2023-08-09T00:00:00	2024-11-08T08:00:00	5	Humedad	62
171277	7	Sololá	719	Santiago Atitlán	14	Cerro de Oro	9	Septiembre	2023-08-09T00:00:00	2024-11-08T08:00:00	6	Velocidad del viento	3.2
171278	7	Sololá	719	Santiago Atitlán	14	Cerro de Oro	9	Septiembre	2023-08-09T00:00:00	2024-11-08T08:00:00	7	Dirección del viento	3.22
171279	7	Sololá	719	Santiago Atitlán	14	Cerro de Oro	9	Septiembre	2023-08-09T00:00:00	2024-11-08T08:00:00	1	Precipitación	0
171280	7	Sololá	719	Santiago Atitlán	14	Cerro de Oro	9	Septiembre	2023-08-09T00:00:00	2024-11-08T08:00:00	8	Radiación solar	267
171281	7	Sololá	719	Santiago Atitlán	14	Cerro de Oro	9	Septiembre	2023-08-09T00:00:00	2024-11-08T09:00:00	2	Temperatura media	23.3
171282	7	Sololá	719	Santiago Atitlán	14	Cerro de Oro	9	Septiembre	2023-08-09T00:00:00	2024-11-08T09:00:00	4	Temperatura máxima	23.9
171283	7	Sololá	719	Santiago Atitlán	14	Cerro de Oro	9	Septiembre	2023-08-09T00:00:00	2024-11-08T09:00:00	3	Temperatura mínima	23.1
171284	7	Sololá	719	Santiago Atitlán	14	Cerro de Oro	9	Septiembre	2023-08-09T00:00:00	2024-11-08T09:00:00	5	Humedad	70
171285	7	Sololá	719	Santiago Atitlán	14	Cerro de Oro	9	Septiembre	2023-08-09T00:00:00	2024-11-08T09:00:00	6	Velocidad del viento	4.8
171286	7	Sololá	719	Santiago Atitlán	14	Cerro de Oro	9	Septiembre	2023-08-09T00:00:00	2024-11-08T09:00:00	7	Dirección del viento	4.83
171287	7	Sololá	719	Santiago Atitlán	14	Cerro de Oro	9	Septiembre	2023-08-09T00:00:00	2024-11-08T09:00:00	1	Precipitación	0
171288	7	Sololá	719	Santiago Atitlán	14	Cerro de Oro	9	Septiembre	2023-08-09T00:00:00	2024-11-08T09:00:00	8	Radiación solar	397
171289	7	Sololá	719	Santiago Atitlán	14	Cerro de Oro	9	Septiembre	2023-08-09T00:00:00	2024-11-08T10:00:00	2	Temperatura media	24.1
171290	7	Sololá	719	Santiago Atitlán	14	Cerro de Oro	9	Septiembre	2023-08-09T00:00:00	2024-11-08T10:00:00	4	Temperatura máxima	24.2
171291	7	Sololá	719	Santiago Atitlán	14	Cerro de Oro	9	Septiembre	2023-08-09T00:00:00	2024-11-08T10:00:00	3	Temperatura mínima	23.3
171292	7	Sololá	719	Santiago Atitlán	14	Cerro de Oro	9	Septiembre	2023-08-09T00:00:00	2024-11-08T10:00:00	5	Humedad	68
171293	7	Sololá	719	Santiago Atitlán	14	Cerro de Oro	9	Septiembre	2023-08-09T00:00:00	2024-11-08T10:00:00	6	Velocidad del viento	8
171294	7	Sololá	719	Santiago Atitlán	14	Cerro de Oro	9	Septiembre	2023-08-09T00:00:00	2024-11-08T10:00:00	7	Dirección del viento	8.05
171295	7	Sololá	719	Santiago Atitlán	14	Cerro de Oro	9	Septiembre	2023-08-09T00:00:00	2024-11-08T10:00:00	1	Precipitación	0
171296	7	Sololá	719	Santiago Atitlán	14	Cerro de Oro	9	Septiembre	2023-08-09T00:00:00	2024-11-08T10:00:00	8	Radiación solar	637
171297	7	Sololá	719	Santiago Atitlán	14	Cerro de Oro	9	Septiembre	2023-08-09T00:00:00	2024-11-08T11:00:00	2	Temperatura media	24.2
171298	7	Sololá	719	Santiago Atitlán	14	Cerro de Oro	9	Septiembre	2023-08-09T00:00:00	2024-11-08T11:00:00	4	Temperatura máxima	24.3
171299	7	Sololá	719	Santiago Atitlán	14	Cerro de Oro	9	Septiembre	2023-08-09T00:00:00	2024-11-08T11:00:00	3	Temperatura mínima	23.4
171300	7	Sololá	719	Santiago Atitlán	14	Cerro de Oro	9	Septiembre	2023-08-09T00:00:00	2024-11-08T11:00:00	5	Humedad	70
171301	7	Sololá	719	Santiago Atitlán	14	Cerro de Oro	9	Septiembre	2023-08-09T00:00:00	2024-11-08T11:00:00	6	Velocidad del viento	9.7
171302	7	Sololá	719	Santiago Atitlán	14	Cerro de Oro	9	Septiembre	2023-08-09T00:00:00	2024-11-08T11:00:00	7	Dirección del viento	9.66
171303	7	Sololá	719	Santiago Atitlán	14	Cerro de Oro	9	Septiembre	2023-08-09T00:00:00	2024-11-08T11:00:00	1	Precipitación	0
171304	7	Sololá	719	Santiago Atitlán	14	Cerro de Oro	9	Septiembre	2023-08-09T00:00:00	2024-11-08T11:00:00	8	Radiación solar	833
171305	7	Sololá	719	Santiago Atitlán	14	Cerro de Oro	9	Septiembre	2023-08-09T00:00:00	2024-11-08T12:00:00	2	Temperatura media	25.5
171306	7	Sololá	719	Santiago Atitlán	14	Cerro de Oro	9	Septiembre	2023-08-09T00:00:00	2024-11-08T12:00:00	4	Temperatura máxima	25.7
171307	7	Sololá	719	Santiago Atitlán	14	Cerro de Oro	9	Septiembre	2023-08-09T00:00:00	2024-11-08T12:00:00	3	Temperatura mínima	24.2
171308	7	Sololá	719	Santiago Atitlán	14	Cerro de Oro	9	Septiembre	2023-08-09T00:00:00	2024-11-08T12:00:00	5	Humedad	65
171309	7	Sololá	719	Santiago Atitlán	14	Cerro de Oro	9	Septiembre	2023-08-09T00:00:00	2024-11-08T12:00:00	6	Velocidad del viento	8
171310	7	Sololá	719	Santiago Atitlán	14	Cerro de Oro	9	Septiembre	2023-08-09T00:00:00	2024-11-08T12:00:00	7	Dirección del viento	8.05
171311	7	Sololá	719	Santiago Atitlán	14	Cerro de Oro	9	Septiembre	2023-08-09T00:00:00	2024-11-08T12:00:00	1	Precipitación	0
171312	7	Sololá	719	Santiago Atitlán	14	Cerro de Oro	9	Septiembre	2023-08-09T00:00:00	2024-11-08T12:00:00	8	Radiación solar	958
171313	7	Sololá	719	Santiago Atitlán	14	Cerro de Oro	9	Septiembre	2023-08-09T00:00:00	2024-11-08T13:00:00	2	Temperatura media	24.8
171314	7	Sololá	719	Santiago Atitlán	14	Cerro de Oro	9	Septiembre	2023-08-09T00:00:00	2024-11-08T13:00:00	4	Temperatura máxima	25.7
171315	7	Sololá	719	Santiago Atitlán	14	Cerro de Oro	9	Septiembre	2023-08-09T00:00:00	2024-11-08T13:00:00	3	Temperatura mínima	24.7
171316	7	Sololá	719	Santiago Atitlán	14	Cerro de Oro	9	Septiembre	2023-08-09T00:00:00	2024-11-08T13:00:00	5	Humedad	71
171317	7	Sololá	719	Santiago Atitlán	14	Cerro de Oro	9	Septiembre	2023-08-09T00:00:00	2024-11-08T13:00:00	6	Velocidad del viento	11.3
171318	7	Sololá	719	Santiago Atitlán	14	Cerro de Oro	9	Septiembre	2023-08-09T00:00:00	2024-11-08T13:00:00	7	Dirección del viento	11.27
171319	7	Sololá	719	Santiago Atitlán	14	Cerro de Oro	9	Septiembre	2023-08-09T00:00:00	2024-11-08T13:00:00	1	Precipitación	0
171320	7	Sololá	719	Santiago Atitlán	14	Cerro de Oro	9	Septiembre	2023-08-09T00:00:00	2024-11-08T13:00:00	8	Radiación solar	917
171321	7	Sololá	719	Santiago Atitlán	14	Cerro de Oro	9	Septiembre	2023-08-09T00:00:00	2024-11-08T14:00:00	2	Temperatura media	25.1
171322	7	Sololá	719	Santiago Atitlán	14	Cerro de Oro	9	Septiembre	2023-08-09T00:00:00	2024-11-08T14:00:00	4	Temperatura máxima	25.3
171323	7	Sololá	719	Santiago Atitlán	14	Cerro de Oro	9	Septiembre	2023-08-09T00:00:00	2024-11-08T14:00:00	3	Temperatura mínima	24.3
171324	7	Sololá	719	Santiago Atitlán	14	Cerro de Oro	9	Septiembre	2023-08-09T00:00:00	2024-11-08T14:00:00	5	Humedad	72
171325	7	Sololá	719	Santiago Atitlán	14	Cerro de Oro	9	Septiembre	2023-08-09T00:00:00	2024-11-08T14:00:00	6	Velocidad del viento	9.7
171326	7	Sololá	719	Santiago Atitlán	14	Cerro de Oro	9	Septiembre	2023-08-09T00:00:00	2024-11-08T14:00:00	7	Dirección del viento	9.66
171327	7	Sololá	719	Santiago Atitlán	14	Cerro de Oro	9	Septiembre	2023-08-09T00:00:00	2024-11-08T14:00:00	1	Precipitación	0
171328	7	Sololá	719	Santiago Atitlán	14	Cerro de Oro	9	Septiembre	2023-08-09T00:00:00	2024-11-08T14:00:00	8	Radiación solar	789
171329	7	Sololá	719	Santiago Atitlán	14	Cerro de Oro	9	Septiembre	2023-08-09T00:00:00	2024-11-08T15:00:00	2	Temperatura media	24.1
171330	7	Sololá	719	Santiago Atitlán	14	Cerro de Oro	9	Septiembre	2023-08-09T00:00:00	2024-11-08T15:00:00	4	Temperatura máxima	25.2
171331	7	Sololá	719	Santiago Atitlán	14	Cerro de Oro	9	Septiembre	2023-08-09T00:00:00	2024-11-08T15:00:00	3	Temperatura mínima	23.8
171332	7	Sololá	719	Santiago Atitlán	14	Cerro de Oro	9	Septiembre	2023-08-09T00:00:00	2024-11-08T15:00:00	5	Humedad	75
171333	7	Sololá	719	Santiago Atitlán	14	Cerro de Oro	9	Septiembre	2023-08-09T00:00:00	2024-11-08T15:00:00	6	Velocidad del viento	11.3
171334	7	Sololá	719	Santiago Atitlán	14	Cerro de Oro	9	Septiembre	2023-08-09T00:00:00	2024-11-08T15:00:00	7	Dirección del viento	11.27
171335	7	Sololá	719	Santiago Atitlán	14	Cerro de Oro	9	Septiembre	2023-08-09T00:00:00	2024-11-08T15:00:00	1	Precipitación	0
171336	7	Sololá	719	Santiago Atitlán	14	Cerro de Oro	9	Septiembre	2023-08-09T00:00:00	2024-11-08T15:00:00	8	Radiación solar	702
171337	7	Sololá	719	Santiago Atitlán	14	Cerro de Oro	9	Septiembre	2023-08-09T00:00:00	2024-11-08T16:00:00	2	Temperatura media	23.7
171338	7	Sololá	719	Santiago Atitlán	14	Cerro de Oro	9	Septiembre	2023-08-09T00:00:00	2024-11-08T16:00:00	4	Temperatura máxima	24.2
171339	7	Sololá	719	Santiago Atitlán	14	Cerro de Oro	9	Septiembre	2023-08-09T00:00:00	2024-11-08T16:00:00	3	Temperatura mínima	23.2
171340	7	Sololá	719	Santiago Atitlán	14	Cerro de Oro	9	Septiembre	2023-08-09T00:00:00	2024-11-08T16:00:00	5	Humedad	78
171341	7	Sololá	719	Santiago Atitlán	14	Cerro de Oro	9	Septiembre	2023-08-09T00:00:00	2024-11-08T16:00:00	6	Velocidad del viento	11.3
171342	7	Sololá	719	Santiago Atitlán	14	Cerro de Oro	9	Septiembre	2023-08-09T00:00:00	2024-11-08T16:00:00	7	Dirección del viento	11.27
171343	7	Sololá	719	Santiago Atitlán	14	Cerro de Oro	9	Septiembre	2023-08-09T00:00:00	2024-11-08T16:00:00	1	Precipitación	0
171344	7	Sololá	719	Santiago Atitlán	14	Cerro de Oro	9	Septiembre	2023-08-09T00:00:00	2024-11-08T16:00:00	8	Radiación solar	358
171345	7	Sololá	719	Santiago Atitlán	14	Cerro de Oro	9	Septiembre	2023-08-09T00:00:00	2024-11-08T17:00:00	2	Temperatura media	21.3
171346	7	Sololá	719	Santiago Atitlán	14	Cerro de Oro	9	Septiembre	2023-08-09T00:00:00	2024-11-08T17:00:00	4	Temperatura máxima	23.7
171347	7	Sololá	719	Santiago Atitlán	14	Cerro de Oro	9	Septiembre	2023-08-09T00:00:00	2024-11-08T17:00:00	3	Temperatura mínima	21.3
171348	7	Sololá	719	Santiago Atitlán	14	Cerro de Oro	9	Septiembre	2023-08-09T00:00:00	2024-11-08T17:00:00	5	Humedad	86
171349	7	Sololá	719	Santiago Atitlán	14	Cerro de Oro	9	Septiembre	2023-08-09T00:00:00	2024-11-08T17:00:00	6	Velocidad del viento	6.4
171350	7	Sololá	719	Santiago Atitlán	14	Cerro de Oro	9	Septiembre	2023-08-09T00:00:00	2024-11-08T17:00:00	7	Dirección del viento	6.44
171351	7	Sololá	719	Santiago Atitlán	14	Cerro de Oro	9	Septiembre	2023-08-09T00:00:00	2024-11-08T17:00:00	1	Precipitación	0
171352	7	Sololá	719	Santiago Atitlán	14	Cerro de Oro	9	Septiembre	2023-08-09T00:00:00	2024-11-08T17:00:00	8	Radiación solar	114
171353	7	Sololá	719	Santiago Atitlán	14	Cerro de Oro	9	Septiembre	2023-08-09T00:00:00	2024-11-08T18:00:00	2	Temperatura media	18.4
171354	7	Sololá	719	Santiago Atitlán	14	Cerro de Oro	9	Septiembre	2023-08-09T00:00:00	2024-11-08T18:00:00	4	Temperatura máxima	21.3
171355	7	Sololá	719	Santiago Atitlán	14	Cerro de Oro	9	Septiembre	2023-08-09T00:00:00	2024-11-08T18:00:00	3	Temperatura mínima	18.4
171356	7	Sololá	719	Santiago Atitlán	14	Cerro de Oro	9	Septiembre	2023-08-09T00:00:00	2024-11-08T18:00:00	5	Humedad	88
171357	7	Sololá	719	Santiago Atitlán	14	Cerro de Oro	9	Septiembre	2023-08-09T00:00:00	2024-11-08T18:00:00	6	Velocidad del viento	6.4
171358	7	Sololá	719	Santiago Atitlán	14	Cerro de Oro	9	Septiembre	2023-08-09T00:00:00	2024-11-08T18:00:00	7	Dirección del viento	6.44
171359	7	Sololá	719	Santiago Atitlán	14	Cerro de Oro	9	Septiembre	2023-08-09T00:00:00	2024-11-08T18:00:00	1	Precipitación	14.8
171360	7	Sololá	719	Santiago Atitlán	14	Cerro de Oro	9	Septiembre	2023-08-09T00:00:00	2024-11-08T18:00:00	8	Radiación solar	13
171361	7	Sololá	719	Santiago Atitlán	14	Cerro de Oro	9	Septiembre	2023-08-09T00:00:00	2024-11-08T19:00:00	2	Temperatura media	16.9
171362	7	Sololá	719	Santiago Atitlán	14	Cerro de Oro	9	Septiembre	2023-08-09T00:00:00	2024-11-08T19:00:00	4	Temperatura máxima	18.8
171363	7	Sololá	719	Santiago Atitlán	14	Cerro de Oro	9	Septiembre	2023-08-09T00:00:00	2024-11-08T19:00:00	3	Temperatura mínima	16.9
171364	7	Sololá	719	Santiago Atitlán	14	Cerro de Oro	9	Septiembre	2023-08-09T00:00:00	2024-11-08T19:00:00	5	Humedad	89
171365	7	Sololá	719	Santiago Atitlán	14	Cerro de Oro	9	Septiembre	2023-08-09T00:00:00	2024-11-08T19:00:00	6	Velocidad del viento	8
171366	7	Sololá	719	Santiago Atitlán	14	Cerro de Oro	9	Septiembre	2023-08-09T00:00:00	2024-11-08T19:00:00	7	Dirección del viento	8.05
171367	7	Sololá	719	Santiago Atitlán	14	Cerro de Oro	9	Septiembre	2023-08-09T00:00:00	2024-11-08T19:00:00	1	Precipitación	21.6
171368	7	Sololá	719	Santiago Atitlán	14	Cerro de Oro	9	Septiembre	2023-08-09T00:00:00	2024-11-08T19:00:00	8	Radiación solar	0
171369	7	Sololá	719	Santiago Atitlán	14	Cerro de Oro	9	Septiembre	2023-08-09T00:00:00	2024-11-08T20:00:00	2	Temperatura media	17.7
171370	7	Sololá	719	Santiago Atitlán	14	Cerro de Oro	9	Septiembre	2023-08-09T00:00:00	2024-11-08T20:00:00	4	Temperatura máxima	18.1
171371	7	Sololá	719	Santiago Atitlán	14	Cerro de Oro	9	Septiembre	2023-08-09T00:00:00	2024-11-08T20:00:00	3	Temperatura mínima	16.6
171372	7	Sololá	719	Santiago Atitlán	14	Cerro de Oro	9	Septiembre	2023-08-09T00:00:00	2024-11-08T20:00:00	5	Humedad	91
171373	7	Sololá	719	Santiago Atitlán	14	Cerro de Oro	9	Septiembre	2023-08-09T00:00:00	2024-11-08T20:00:00	6	Velocidad del viento	6.4
171374	7	Sololá	719	Santiago Atitlán	14	Cerro de Oro	9	Septiembre	2023-08-09T00:00:00	2024-11-08T20:00:00	7	Dirección del viento	6.44
171375	7	Sololá	719	Santiago Atitlán	14	Cerro de Oro	9	Septiembre	2023-08-09T00:00:00	2024-11-08T20:00:00	1	Precipitación	2.8
171376	7	Sololá	719	Santiago Atitlán	14	Cerro de Oro	9	Septiembre	2023-08-09T00:00:00	2024-11-08T20:00:00	8	Radiación solar	0
171377	7	Sololá	719	Santiago Atitlán	14	Cerro de Oro	9	Septiembre	2023-08-09T00:00:00	2024-11-08T21:00:00	2	Temperatura media	17.6
171378	7	Sololá	719	Santiago Atitlán	14	Cerro de Oro	9	Septiembre	2023-08-09T00:00:00	2024-11-08T21:00:00	4	Temperatura máxima	17.7
171379	7	Sololá	719	Santiago Atitlán	14	Cerro de Oro	9	Septiembre	2023-08-09T00:00:00	2024-11-08T21:00:00	3	Temperatura mínima	17.3
171380	7	Sololá	719	Santiago Atitlán	14	Cerro de Oro	9	Septiembre	2023-08-09T00:00:00	2024-11-08T21:00:00	5	Humedad	93
171381	7	Sololá	719	Santiago Atitlán	14	Cerro de Oro	9	Septiembre	2023-08-09T00:00:00	2024-11-08T21:00:00	6	Velocidad del viento	4.8
171382	7	Sololá	719	Santiago Atitlán	14	Cerro de Oro	9	Septiembre	2023-08-09T00:00:00	2024-11-08T21:00:00	7	Dirección del viento	4.83
171383	7	Sololá	719	Santiago Atitlán	14	Cerro de Oro	9	Septiembre	2023-08-09T00:00:00	2024-11-08T21:00:00	1	Precipitación	0
171384	7	Sololá	719	Santiago Atitlán	14	Cerro de Oro	9	Septiembre	2023-08-09T00:00:00	2024-11-08T21:00:00	8	Radiación solar	0
171385	7	Sololá	719	Santiago Atitlán	14	Cerro de Oro	9	Septiembre	2023-08-09T00:00:00	2024-11-08T22:00:00	2	Temperatura media	17.8
171386	7	Sololá	719	Santiago Atitlán	14	Cerro de Oro	9	Septiembre	2023-08-09T00:00:00	2024-11-08T22:00:00	4	Temperatura máxima	18.1
171387	7	Sololá	719	Santiago Atitlán	14	Cerro de Oro	9	Septiembre	2023-08-09T00:00:00	2024-11-08T22:00:00	3	Temperatura mínima	17.6
171388	7	Sololá	719	Santiago Atitlán	14	Cerro de Oro	9	Septiembre	2023-08-09T00:00:00	2024-11-08T22:00:00	5	Humedad	91
171389	7	Sololá	719	Santiago Atitlán	14	Cerro de Oro	9	Septiembre	2023-08-09T00:00:00	2024-11-08T22:00:00	6	Velocidad del viento	4.8
171390	7	Sololá	719	Santiago Atitlán	14	Cerro de Oro	9	Septiembre	2023-08-09T00:00:00	2024-11-08T22:00:00	7	Dirección del viento	4.83
171391	7	Sololá	719	Santiago Atitlán	14	Cerro de Oro	9	Septiembre	2023-08-09T00:00:00	2024-11-08T22:00:00	1	Precipitación	0.2
171392	7	Sololá	719	Santiago Atitlán	14	Cerro de Oro	9	Septiembre	2023-08-09T00:00:00	2024-11-08T22:00:00	8	Radiación solar	0
171393	7	Sololá	719	Santiago Atitlán	14	Cerro de Oro	9	Septiembre	2023-08-09T00:00:00	2024-11-08T23:00:00	2	Temperatura media	17.7
171394	7	Sololá	719	Santiago Atitlán	14	Cerro de Oro	9	Septiembre	2023-08-09T00:00:00	2024-11-08T23:00:00	4	Temperatura máxima	18
171395	7	Sololá	719	Santiago Atitlán	14	Cerro de Oro	9	Septiembre	2023-08-09T00:00:00	2024-11-08T23:00:00	3	Temperatura mínima	17.5
171396	7	Sololá	719	Santiago Atitlán	14	Cerro de Oro	9	Septiembre	2023-08-09T00:00:00	2024-11-08T23:00:00	5	Humedad	90
171397	7	Sololá	719	Santiago Atitlán	14	Cerro de Oro	9	Septiembre	2023-08-09T00:00:00	2024-11-08T23:00:00	6	Velocidad del viento	4.8
171398	7	Sololá	719	Santiago Atitlán	14	Cerro de Oro	9	Septiembre	2023-08-09T00:00:00	2024-11-08T23:00:00	7	Dirección del viento	4.83
171399	7	Sololá	719	Santiago Atitlán	14	Cerro de Oro	9	Septiembre	2023-08-09T00:00:00	2024-11-08T23:00:00	1	Precipitación	0
171400	7	Sololá	719	Santiago Atitlán	14	Cerro de Oro	9	Septiembre	2023-08-09T00:00:00	2024-11-08T23:00:00	8	Radiación solar	0
171401	7	Sololá	719	Santiago Atitlán	14	Cerro de Oro	9	Septiembre	2023-09-09T00:00:00	2024-11-08T00:00:00	2	Temperatura media	17.4
171402	7	Sololá	719	Santiago Atitlán	14	Cerro de Oro	9	Septiembre	2023-09-09T00:00:00	2024-11-08T00:00:00	4	Temperatura máxima	17.8
171403	7	Sololá	719	Santiago Atitlán	14	Cerro de Oro	9	Septiembre	2023-09-09T00:00:00	2024-11-08T00:00:00	3	Temperatura mínima	17
171404	7	Sololá	719	Santiago Atitlán	14	Cerro de Oro	9	Septiembre	2023-09-09T00:00:00	2024-11-08T00:00:00	5	Humedad	91
171405	7	Sololá	719	Santiago Atitlán	14	Cerro de Oro	9	Septiembre	2023-09-09T00:00:00	2024-11-08T00:00:00	6	Velocidad del viento	3.2
171406	7	Sololá	719	Santiago Atitlán	14	Cerro de Oro	9	Septiembre	2023-09-09T00:00:00	2024-11-08T00:00:00	7	Dirección del viento	3.22
171407	7	Sololá	719	Santiago Atitlán	14	Cerro de Oro	9	Septiembre	2023-09-09T00:00:00	2024-11-08T00:00:00	1	Precipitación	0
171408	7	Sololá	719	Santiago Atitlán	14	Cerro de Oro	9	Septiembre	2023-09-09T00:00:00	2024-11-08T00:00:00	8	Radiación solar	0
171409	7	Sololá	719	Santiago Atitlán	14	Cerro de Oro	9	Septiembre	2023-09-09T00:00:00	2024-11-08T01:00:00	2	Temperatura media	17.5
171410	7	Sololá	719	Santiago Atitlán	14	Cerro de Oro	9	Septiembre	2023-09-09T00:00:00	2024-11-08T01:00:00	4	Temperatura máxima	17.7
171411	7	Sololá	719	Santiago Atitlán	14	Cerro de Oro	9	Septiembre	2023-09-09T00:00:00	2024-11-08T01:00:00	3	Temperatura mínima	17.4
171412	7	Sololá	719	Santiago Atitlán	14	Cerro de Oro	9	Septiembre	2023-09-09T00:00:00	2024-11-08T01:00:00	5	Humedad	89
171413	7	Sololá	719	Santiago Atitlán	14	Cerro de Oro	9	Septiembre	2023-09-09T00:00:00	2024-11-08T01:00:00	6	Velocidad del viento	4.8
171414	7	Sololá	719	Santiago Atitlán	14	Cerro de Oro	9	Septiembre	2023-09-09T00:00:00	2024-11-08T01:00:00	7	Dirección del viento	4.83
171415	7	Sololá	719	Santiago Atitlán	14	Cerro de Oro	9	Septiembre	2023-09-09T00:00:00	2024-11-08T01:00:00	1	Precipitación	0
171416	7	Sololá	719	Santiago Atitlán	14	Cerro de Oro	9	Septiembre	2023-09-09T00:00:00	2024-11-08T01:00:00	8	Radiación solar	0
171417	7	Sololá	719	Santiago Atitlán	14	Cerro de Oro	9	Septiembre	2023-09-09T00:00:00	2024-11-08T02:00:00	2	Temperatura media	18.2
171418	7	Sololá	719	Santiago Atitlán	14	Cerro de Oro	9	Septiembre	2023-09-09T00:00:00	2024-11-08T02:00:00	4	Temperatura máxima	18.2
171419	7	Sololá	719	Santiago Atitlán	14	Cerro de Oro	9	Septiembre	2023-09-09T00:00:00	2024-11-08T02:00:00	3	Temperatura mínima	17.5
171420	7	Sololá	719	Santiago Atitlán	14	Cerro de Oro	9	Septiembre	2023-09-09T00:00:00	2024-11-08T02:00:00	5	Humedad	84
171421	7	Sololá	719	Santiago Atitlán	14	Cerro de Oro	9	Septiembre	2023-09-09T00:00:00	2024-11-08T02:00:00	6	Velocidad del viento	4.8
171422	7	Sololá	719	Santiago Atitlán	14	Cerro de Oro	9	Septiembre	2023-09-09T00:00:00	2024-11-08T02:00:00	7	Dirección del viento	4.83
171423	7	Sololá	719	Santiago Atitlán	14	Cerro de Oro	9	Septiembre	2023-09-09T00:00:00	2024-11-08T02:00:00	1	Precipitación	0
171424	7	Sololá	719	Santiago Atitlán	14	Cerro de Oro	9	Septiembre	2023-09-09T00:00:00	2024-11-08T02:00:00	8	Radiación solar	0
171425	7	Sololá	719	Santiago Atitlán	14	Cerro de Oro	9	Septiembre	2023-09-09T00:00:00	2024-11-08T03:00:00	2	Temperatura media	18.7
171426	7	Sololá	719	Santiago Atitlán	14	Cerro de Oro	9	Septiembre	2023-09-09T00:00:00	2024-11-08T03:00:00	4	Temperatura máxima	18.7
171427	7	Sololá	719	Santiago Atitlán	14	Cerro de Oro	9	Septiembre	2023-09-09T00:00:00	2024-11-08T03:00:00	3	Temperatura mínima	17.7
171428	7	Sololá	719	Santiago Atitlán	14	Cerro de Oro	9	Septiembre	2023-09-09T00:00:00	2024-11-08T03:00:00	5	Humedad	83
171429	7	Sololá	719	Santiago Atitlán	14	Cerro de Oro	9	Septiembre	2023-09-09T00:00:00	2024-11-08T03:00:00	6	Velocidad del viento	4.8
171430	7	Sololá	719	Santiago Atitlán	14	Cerro de Oro	9	Septiembre	2023-09-09T00:00:00	2024-11-08T03:00:00	7	Dirección del viento	4.83
171431	7	Sololá	719	Santiago Atitlán	14	Cerro de Oro	9	Septiembre	2023-09-09T00:00:00	2024-11-08T03:00:00	1	Precipitación	0
171432	7	Sololá	719	Santiago Atitlán	14	Cerro de Oro	9	Septiembre	2023-09-09T00:00:00	2024-11-08T03:00:00	8	Radiación solar	0
171433	7	Sololá	719	Santiago Atitlán	14	Cerro de Oro	9	Septiembre	2023-09-09T00:00:00	2024-11-08T04:00:00	2	Temperatura media	18
171434	7	Sololá	719	Santiago Atitlán	14	Cerro de Oro	9	Septiembre	2023-09-09T00:00:00	2024-11-08T04:00:00	4	Temperatura máxima	19.4
171435	7	Sololá	719	Santiago Atitlán	14	Cerro de Oro	9	Septiembre	2023-09-09T00:00:00	2024-11-08T04:00:00	3	Temperatura mínima	17.7
171436	7	Sololá	719	Santiago Atitlán	14	Cerro de Oro	9	Septiembre	2023-09-09T00:00:00	2024-11-08T04:00:00	5	Humedad	82
171437	7	Sololá	719	Santiago Atitlán	14	Cerro de Oro	9	Septiembre	2023-09-09T00:00:00	2024-11-08T04:00:00	6	Velocidad del viento	6.4
171438	7	Sololá	719	Santiago Atitlán	14	Cerro de Oro	9	Septiembre	2023-09-09T00:00:00	2024-11-08T04:00:00	7	Dirección del viento	6.44
171439	7	Sololá	719	Santiago Atitlán	14	Cerro de Oro	9	Septiembre	2023-09-09T00:00:00	2024-11-08T04:00:00	1	Precipitación	0
171440	7	Sololá	719	Santiago Atitlán	14	Cerro de Oro	9	Septiembre	2023-09-09T00:00:00	2024-11-08T04:00:00	8	Radiación solar	0
171441	7	Sololá	719	Santiago Atitlán	14	Cerro de Oro	9	Septiembre	2023-09-09T00:00:00	2024-11-08T05:00:00	2	Temperatura media	18.4
171442	7	Sololá	719	Santiago Atitlán	14	Cerro de Oro	9	Septiembre	2023-09-09T00:00:00	2024-11-08T05:00:00	4	Temperatura máxima	18.4
171443	7	Sololá	719	Santiago Atitlán	14	Cerro de Oro	9	Septiembre	2023-09-09T00:00:00	2024-11-08T05:00:00	3	Temperatura mínima	17.5
171444	7	Sololá	719	Santiago Atitlán	14	Cerro de Oro	9	Septiembre	2023-09-09T00:00:00	2024-11-08T05:00:00	5	Humedad	78
171445	7	Sololá	719	Santiago Atitlán	14	Cerro de Oro	9	Septiembre	2023-09-09T00:00:00	2024-11-08T05:00:00	6	Velocidad del viento	4.8
171446	7	Sololá	719	Santiago Atitlán	14	Cerro de Oro	9	Septiembre	2023-09-09T00:00:00	2024-11-08T05:00:00	7	Dirección del viento	4.83
171447	7	Sololá	719	Santiago Atitlán	14	Cerro de Oro	9	Septiembre	2023-09-09T00:00:00	2024-11-08T05:00:00	1	Precipitación	0
171448	7	Sololá	719	Santiago Atitlán	14	Cerro de Oro	9	Septiembre	2023-09-09T00:00:00	2024-11-08T05:00:00	8	Radiación solar	0
171449	7	Sololá	719	Santiago Atitlán	14	Cerro de Oro	9	Septiembre	2023-09-09T00:00:00	2024-11-08T06:00:00	2	Temperatura media	18.1
171450	7	Sololá	719	Santiago Atitlán	14	Cerro de Oro	9	Septiembre	2023-09-09T00:00:00	2024-11-08T06:00:00	4	Temperatura máxima	18.8
171451	7	Sololá	719	Santiago Atitlán	14	Cerro de Oro	9	Septiembre	2023-09-09T00:00:00	2024-11-08T06:00:00	3	Temperatura mínima	18.1
171452	7	Sololá	719	Santiago Atitlán	14	Cerro de Oro	9	Septiembre	2023-09-09T00:00:00	2024-11-08T06:00:00	5	Humedad	79
171453	7	Sololá	719	Santiago Atitlán	14	Cerro de Oro	9	Septiembre	2023-09-09T00:00:00	2024-11-08T06:00:00	6	Velocidad del viento	4.8
171454	7	Sololá	719	Santiago Atitlán	14	Cerro de Oro	9	Septiembre	2023-09-09T00:00:00	2024-11-08T06:00:00	7	Dirección del viento	4.83
171455	7	Sololá	719	Santiago Atitlán	14	Cerro de Oro	9	Septiembre	2023-09-09T00:00:00	2024-11-08T06:00:00	1	Precipitación	0
171456	7	Sololá	719	Santiago Atitlán	14	Cerro de Oro	9	Septiembre	2023-09-09T00:00:00	2024-11-08T06:00:00	8	Radiación solar	2
171457	7	Sololá	719	Santiago Atitlán	14	Cerro de Oro	9	Septiembre	2023-09-09T00:00:00	2024-11-08T07:00:00	2	Temperatura media	18.9
171458	7	Sololá	719	Santiago Atitlán	14	Cerro de Oro	9	Septiembre	2023-09-09T00:00:00	2024-11-08T07:00:00	4	Temperatura máxima	18.9
171459	7	Sololá	719	Santiago Atitlán	14	Cerro de Oro	9	Septiembre	2023-09-09T00:00:00	2024-11-08T07:00:00	3	Temperatura mínima	17.8
171460	7	Sololá	719	Santiago Atitlán	14	Cerro de Oro	9	Septiembre	2023-09-09T00:00:00	2024-11-08T07:00:00	5	Humedad	78
171461	7	Sololá	719	Santiago Atitlán	14	Cerro de Oro	9	Septiembre	2023-09-09T00:00:00	2024-11-08T07:00:00	6	Velocidad del viento	3.2
171462	7	Sololá	719	Santiago Atitlán	14	Cerro de Oro	9	Septiembre	2023-09-09T00:00:00	2024-11-08T07:00:00	7	Dirección del viento	3.22
171463	7	Sololá	719	Santiago Atitlán	14	Cerro de Oro	9	Septiembre	2023-09-09T00:00:00	2024-11-08T07:00:00	1	Precipitación	0
171464	7	Sololá	719	Santiago Atitlán	14	Cerro de Oro	9	Septiembre	2023-09-09T00:00:00	2024-11-08T07:00:00	8	Radiación solar	59
171465	7	Sololá	719	Santiago Atitlán	14	Cerro de Oro	9	Septiembre	2023-09-09T00:00:00	2024-11-08T08:00:00	2	Temperatura media	19.9
171466	7	Sololá	719	Santiago Atitlán	14	Cerro de Oro	9	Septiembre	2023-09-09T00:00:00	2024-11-08T08:00:00	4	Temperatura máxima	20.1
171467	7	Sololá	719	Santiago Atitlán	14	Cerro de Oro	9	Septiembre	2023-09-09T00:00:00	2024-11-08T08:00:00	3	Temperatura mínima	18.9
171468	7	Sololá	719	Santiago Atitlán	14	Cerro de Oro	9	Septiembre	2023-09-09T00:00:00	2024-11-08T08:00:00	5	Humedad	77
171469	7	Sololá	719	Santiago Atitlán	14	Cerro de Oro	9	Septiembre	2023-09-09T00:00:00	2024-11-08T08:00:00	6	Velocidad del viento	1.6
171470	7	Sololá	719	Santiago Atitlán	14	Cerro de Oro	9	Septiembre	2023-09-09T00:00:00	2024-11-08T08:00:00	7	Dirección del viento	1.61
171471	7	Sololá	719	Santiago Atitlán	14	Cerro de Oro	9	Septiembre	2023-09-09T00:00:00	2024-11-08T08:00:00	1	Precipitación	0
171472	7	Sololá	719	Santiago Atitlán	14	Cerro de Oro	9	Septiembre	2023-09-09T00:00:00	2024-11-08T08:00:00	8	Radiación solar	151
171473	7	Sololá	719	Santiago Atitlán	14	Cerro de Oro	9	Septiembre	2023-09-09T00:00:00	2024-11-08T09:00:00	2	Temperatura media	21.4
171474	7	Sololá	719	Santiago Atitlán	14	Cerro de Oro	9	Septiembre	2023-09-09T00:00:00	2024-11-08T09:00:00	4	Temperatura máxima	21.6
171475	7	Sololá	719	Santiago Atitlán	14	Cerro de Oro	9	Septiembre	2023-09-09T00:00:00	2024-11-08T09:00:00	3	Temperatura mínima	19.9
171476	7	Sololá	719	Santiago Atitlán	14	Cerro de Oro	9	Septiembre	2023-09-09T00:00:00	2024-11-08T09:00:00	5	Humedad	72
171477	7	Sololá	719	Santiago Atitlán	14	Cerro de Oro	9	Septiembre	2023-09-09T00:00:00	2024-11-08T09:00:00	6	Velocidad del viento	1.6
171478	7	Sololá	719	Santiago Atitlán	14	Cerro de Oro	9	Septiembre	2023-09-09T00:00:00	2024-11-08T09:00:00	7	Dirección del viento	1.61
171479	7	Sololá	719	Santiago Atitlán	14	Cerro de Oro	9	Septiembre	2023-09-09T00:00:00	2024-11-08T09:00:00	1	Precipitación	0
171480	7	Sololá	719	Santiago Atitlán	14	Cerro de Oro	9	Septiembre	2023-09-09T00:00:00	2024-11-08T09:00:00	8	Radiación solar	337
171481	7	Sololá	719	Santiago Atitlán	14	Cerro de Oro	9	Septiembre	2023-09-09T00:00:00	2024-11-08T10:00:00	2	Temperatura media	22.2
171482	7	Sololá	719	Santiago Atitlán	14	Cerro de Oro	9	Septiembre	2023-09-09T00:00:00	2024-11-08T10:00:00	4	Temperatura máxima	22.2
171483	7	Sololá	719	Santiago Atitlán	14	Cerro de Oro	9	Septiembre	2023-09-09T00:00:00	2024-11-08T10:00:00	3	Temperatura mínima	21.3
171484	7	Sololá	719	Santiago Atitlán	14	Cerro de Oro	9	Septiembre	2023-09-09T00:00:00	2024-11-08T10:00:00	5	Humedad	71
171485	7	Sololá	719	Santiago Atitlán	14	Cerro de Oro	9	Septiembre	2023-09-09T00:00:00	2024-11-08T10:00:00	6	Velocidad del viento	3.2
171486	7	Sololá	719	Santiago Atitlán	14	Cerro de Oro	9	Septiembre	2023-09-09T00:00:00	2024-11-08T10:00:00	7	Dirección del viento	3.22
171487	7	Sololá	719	Santiago Atitlán	14	Cerro de Oro	9	Septiembre	2023-09-09T00:00:00	2024-11-08T10:00:00	1	Precipitación	0
171488	7	Sololá	719	Santiago Atitlán	14	Cerro de Oro	9	Septiembre	2023-09-09T00:00:00	2024-11-08T10:00:00	8	Radiación solar	607
171489	7	Sololá	719	Santiago Atitlán	14	Cerro de Oro	9	Septiembre	2023-09-09T00:00:00	2024-11-08T11:00:00	2	Temperatura media	23.4
171490	7	Sololá	719	Santiago Atitlán	14	Cerro de Oro	9	Septiembre	2023-09-09T00:00:00	2024-11-08T11:00:00	4	Temperatura máxima	23.4
171491	7	Sololá	719	Santiago Atitlán	14	Cerro de Oro	9	Septiembre	2023-09-09T00:00:00	2024-11-08T11:00:00	3	Temperatura mínima	21.8
171492	7	Sololá	719	Santiago Atitlán	14	Cerro de Oro	9	Septiembre	2023-09-09T00:00:00	2024-11-08T11:00:00	5	Humedad	68
171493	7	Sololá	719	Santiago Atitlán	14	Cerro de Oro	9	Septiembre	2023-09-09T00:00:00	2024-11-08T11:00:00	6	Velocidad del viento	6.4
171494	7	Sololá	719	Santiago Atitlán	14	Cerro de Oro	9	Septiembre	2023-09-09T00:00:00	2024-11-08T11:00:00	7	Dirección del viento	6.44
171495	7	Sololá	719	Santiago Atitlán	14	Cerro de Oro	9	Septiembre	2023-09-09T00:00:00	2024-11-08T11:00:00	1	Precipitación	0
171496	7	Sololá	719	Santiago Atitlán	14	Cerro de Oro	9	Septiembre	2023-09-09T00:00:00	2024-11-08T11:00:00	8	Radiación solar	846
171497	7	Sololá	719	Santiago Atitlán	14	Cerro de Oro	9	Septiembre	2023-09-09T00:00:00	2024-11-08T12:00:00	2	Temperatura media	24.3
171498	7	Sololá	719	Santiago Atitlán	14	Cerro de Oro	9	Septiembre	2023-09-09T00:00:00	2024-11-08T12:00:00	4	Temperatura máxima	24.4
171499	7	Sololá	719	Santiago Atitlán	14	Cerro de Oro	9	Septiembre	2023-09-09T00:00:00	2024-11-08T12:00:00	3	Temperatura mínima	23.3
171500	7	Sololá	719	Santiago Atitlán	14	Cerro de Oro	9	Septiembre	2023-09-09T00:00:00	2024-11-08T12:00:00	5	Humedad	71
171501	7	Sololá	719	Santiago Atitlán	14	Cerro de Oro	9	Septiembre	2023-09-09T00:00:00	2024-11-08T12:00:00	6	Velocidad del viento	8
171502	7	Sololá	719	Santiago Atitlán	14	Cerro de Oro	9	Septiembre	2023-09-09T00:00:00	2024-11-08T12:00:00	7	Dirección del viento	8.05
171503	7	Sololá	719	Santiago Atitlán	14	Cerro de Oro	9	Septiembre	2023-09-09T00:00:00	2024-11-08T12:00:00	1	Precipitación	0
171504	7	Sololá	719	Santiago Atitlán	14	Cerro de Oro	9	Septiembre	2023-09-09T00:00:00	2024-11-08T12:00:00	8	Radiación solar	889
171505	7	Sololá	719	Santiago Atitlán	14	Cerro de Oro	9	Septiembre	2023-09-09T00:00:00	2024-11-08T13:00:00	2	Temperatura media	24.6
171506	7	Sololá	719	Santiago Atitlán	14	Cerro de Oro	9	Septiembre	2023-09-09T00:00:00	2024-11-08T13:00:00	4	Temperatura máxima	24.6
171507	7	Sololá	719	Santiago Atitlán	14	Cerro de Oro	9	Septiembre	2023-09-09T00:00:00	2024-11-08T13:00:00	3	Temperatura mínima	23.8
171508	7	Sololá	719	Santiago Atitlán	14	Cerro de Oro	9	Septiembre	2023-09-09T00:00:00	2024-11-08T13:00:00	5	Humedad	72
171509	7	Sololá	719	Santiago Atitlán	14	Cerro de Oro	9	Septiembre	2023-09-09T00:00:00	2024-11-08T13:00:00	6	Velocidad del viento	6.4
171510	7	Sololá	719	Santiago Atitlán	14	Cerro de Oro	9	Septiembre	2023-09-09T00:00:00	2024-11-08T13:00:00	7	Dirección del viento	6.44
171511	7	Sololá	719	Santiago Atitlán	14	Cerro de Oro	9	Septiembre	2023-09-09T00:00:00	2024-11-08T13:00:00	1	Precipitación	0
171512	7	Sololá	719	Santiago Atitlán	14	Cerro de Oro	9	Septiembre	2023-09-09T00:00:00	2024-11-08T13:00:00	8	Radiación solar	725
171513	7	Sololá	719	Santiago Atitlán	14	Cerro de Oro	9	Septiembre	2023-09-09T00:00:00	2024-11-08T14:00:00	2	Temperatura media	23.4
171514	7	Sololá	719	Santiago Atitlán	14	Cerro de Oro	9	Septiembre	2023-09-09T00:00:00	2024-11-08T14:00:00	4	Temperatura máxima	25.1
171515	7	Sololá	719	Santiago Atitlán	14	Cerro de Oro	9	Septiembre	2023-09-09T00:00:00	2024-11-08T14:00:00	3	Temperatura mínima	23.4
171516	7	Sololá	719	Santiago Atitlán	14	Cerro de Oro	9	Septiembre	2023-09-09T00:00:00	2024-11-08T14:00:00	5	Humedad	72
171517	7	Sololá	719	Santiago Atitlán	14	Cerro de Oro	9	Septiembre	2023-09-09T00:00:00	2024-11-08T14:00:00	6	Velocidad del viento	6.4
171518	7	Sololá	719	Santiago Atitlán	14	Cerro de Oro	9	Septiembre	2023-09-09T00:00:00	2024-11-08T14:00:00	7	Dirección del viento	6.44
171519	7	Sololá	719	Santiago Atitlán	14	Cerro de Oro	9	Septiembre	2023-09-09T00:00:00	2024-11-08T14:00:00	1	Precipitación	0
171520	7	Sololá	719	Santiago Atitlán	14	Cerro de Oro	9	Septiembre	2023-09-09T00:00:00	2024-11-08T14:00:00	8	Radiación solar	497
171521	7	Sololá	719	Santiago Atitlán	14	Cerro de Oro	9	Septiembre	2023-09-09T00:00:00	2024-11-08T15:00:00	2	Temperatura media	21.2
171522	7	Sololá	719	Santiago Atitlán	14	Cerro de Oro	9	Septiembre	2023-09-09T00:00:00	2024-11-08T15:00:00	4	Temperatura máxima	23.4
171523	7	Sololá	719	Santiago Atitlán	14	Cerro de Oro	9	Septiembre	2023-09-09T00:00:00	2024-11-08T15:00:00	3	Temperatura mínima	21.2
171524	7	Sololá	719	Santiago Atitlán	14	Cerro de Oro	9	Septiembre	2023-09-09T00:00:00	2024-11-08T15:00:00	5	Humedad	83
171525	7	Sololá	719	Santiago Atitlán	14	Cerro de Oro	9	Septiembre	2023-09-09T00:00:00	2024-11-08T15:00:00	6	Velocidad del viento	8
171526	7	Sololá	719	Santiago Atitlán	14	Cerro de Oro	9	Septiembre	2023-09-09T00:00:00	2024-11-08T15:00:00	7	Dirección del viento	8.05
171527	7	Sololá	719	Santiago Atitlán	14	Cerro de Oro	9	Septiembre	2023-09-09T00:00:00	2024-11-08T15:00:00	1	Precipitación	0.2
171528	7	Sololá	719	Santiago Atitlán	14	Cerro de Oro	9	Septiembre	2023-09-09T00:00:00	2024-11-08T15:00:00	8	Radiación solar	148
171529	7	Sololá	719	Santiago Atitlán	14	Cerro de Oro	9	Septiembre	2023-09-09T00:00:00	2024-11-08T16:00:00	2	Temperatura media	19.3
171530	7	Sololá	719	Santiago Atitlán	14	Cerro de Oro	9	Septiembre	2023-09-09T00:00:00	2024-11-08T16:00:00	4	Temperatura máxima	21.2
171531	7	Sololá	719	Santiago Atitlán	14	Cerro de Oro	9	Septiembre	2023-09-09T00:00:00	2024-11-08T16:00:00	3	Temperatura mínima	19.3
171532	7	Sololá	719	Santiago Atitlán	14	Cerro de Oro	9	Septiembre	2023-09-09T00:00:00	2024-11-08T16:00:00	5	Humedad	92
171533	7	Sololá	719	Santiago Atitlán	14	Cerro de Oro	9	Septiembre	2023-09-09T00:00:00	2024-11-08T16:00:00	6	Velocidad del viento	8
171534	7	Sololá	719	Santiago Atitlán	14	Cerro de Oro	9	Septiembre	2023-09-09T00:00:00	2024-11-08T16:00:00	7	Dirección del viento	8.05
171535	7	Sololá	719	Santiago Atitlán	14	Cerro de Oro	9	Septiembre	2023-09-09T00:00:00	2024-11-08T16:00:00	1	Precipitación	0.8
171536	7	Sololá	719	Santiago Atitlán	14	Cerro de Oro	9	Septiembre	2023-09-09T00:00:00	2024-11-08T16:00:00	8	Radiación solar	78
171537	7	Sololá	719	Santiago Atitlán	14	Cerro de Oro	9	Septiembre	2023-09-09T00:00:00	2024-11-08T17:00:00	2	Temperatura media	19.1
171538	7	Sololá	719	Santiago Atitlán	14	Cerro de Oro	9	Septiembre	2023-09-09T00:00:00	2024-11-08T17:00:00	4	Temperatura máxima	19.7
171539	7	Sololá	719	Santiago Atitlán	14	Cerro de Oro	9	Septiembre	2023-09-09T00:00:00	2024-11-08T17:00:00	3	Temperatura mínima	18.9
171540	7	Sololá	719	Santiago Atitlán	14	Cerro de Oro	9	Septiembre	2023-09-09T00:00:00	2024-11-08T17:00:00	5	Humedad	93
171541	7	Sololá	719	Santiago Atitlán	14	Cerro de Oro	9	Septiembre	2023-09-09T00:00:00	2024-11-08T17:00:00	6	Velocidad del viento	1.6
171542	7	Sololá	719	Santiago Atitlán	14	Cerro de Oro	9	Septiembre	2023-09-09T00:00:00	2024-11-08T17:00:00	7	Dirección del viento	1.61
171543	7	Sololá	719	Santiago Atitlán	14	Cerro de Oro	9	Septiembre	2023-09-09T00:00:00	2024-11-08T17:00:00	1	Precipitación	2.4
171544	7	Sololá	719	Santiago Atitlán	14	Cerro de Oro	9	Septiembre	2023-09-09T00:00:00	2024-11-08T17:00:00	8	Radiación solar	16
171545	7	Sololá	719	Santiago Atitlán	14	Cerro de Oro	9	Septiembre	2023-09-09T00:00:00	2024-11-08T18:00:00	2	Temperatura media	19
171546	7	Sololá	719	Santiago Atitlán	14	Cerro de Oro	9	Septiembre	2023-09-09T00:00:00	2024-11-08T18:00:00	4	Temperatura máxima	19.1
171547	7	Sololá	719	Santiago Atitlán	14	Cerro de Oro	9	Septiembre	2023-09-09T00:00:00	2024-11-08T18:00:00	3	Temperatura mínima	18.9
171548	7	Sololá	719	Santiago Atitlán	14	Cerro de Oro	9	Septiembre	2023-09-09T00:00:00	2024-11-08T18:00:00	5	Humedad	94
171549	7	Sololá	719	Santiago Atitlán	14	Cerro de Oro	9	Septiembre	2023-09-09T00:00:00	2024-11-08T18:00:00	6	Velocidad del viento	1.6
171550	7	Sololá	719	Santiago Atitlán	14	Cerro de Oro	9	Septiembre	2023-09-09T00:00:00	2024-11-08T18:00:00	7	Dirección del viento	1.61
171551	7	Sololá	719	Santiago Atitlán	14	Cerro de Oro	9	Septiembre	2023-09-09T00:00:00	2024-11-08T18:00:00	1	Precipitación	0.4
171552	7	Sololá	719	Santiago Atitlán	14	Cerro de Oro	9	Septiembre	2023-09-09T00:00:00	2024-11-08T18:00:00	8	Radiación solar	11
171553	7	Sololá	719	Santiago Atitlán	14	Cerro de Oro	9	Septiembre	2023-09-09T00:00:00	2024-11-08T19:00:00	2	Temperatura media	18.7
171554	7	Sololá	719	Santiago Atitlán	14	Cerro de Oro	9	Septiembre	2023-09-09T00:00:00	2024-11-08T19:00:00	4	Temperatura máxima	19.1
171555	7	Sololá	719	Santiago Atitlán	14	Cerro de Oro	9	Septiembre	2023-09-09T00:00:00	2024-11-08T19:00:00	3	Temperatura mínima	18.7
171556	7	Sololá	719	Santiago Atitlán	14	Cerro de Oro	9	Septiembre	2023-09-09T00:00:00	2024-11-08T19:00:00	5	Humedad	92
171557	7	Sololá	719	Santiago Atitlán	14	Cerro de Oro	9	Septiembre	2023-09-09T00:00:00	2024-11-08T19:00:00	6	Velocidad del viento	3.2
171558	7	Sololá	719	Santiago Atitlán	14	Cerro de Oro	9	Septiembre	2023-09-09T00:00:00	2024-11-08T19:00:00	7	Dirección del viento	3.22
171559	7	Sololá	719	Santiago Atitlán	14	Cerro de Oro	9	Septiembre	2023-09-09T00:00:00	2024-11-08T19:00:00	1	Precipitación	0
171560	7	Sololá	719	Santiago Atitlán	14	Cerro de Oro	9	Septiembre	2023-09-09T00:00:00	2024-11-08T19:00:00	8	Radiación solar	0
171561	7	Sololá	719	Santiago Atitlán	14	Cerro de Oro	9	Septiembre	2023-09-09T00:00:00	2024-11-08T20:00:00	2	Temperatura media	18.7
171562	7	Sololá	719	Santiago Atitlán	14	Cerro de Oro	9	Septiembre	2023-09-09T00:00:00	2024-11-08T20:00:00	4	Temperatura máxima	19
171563	7	Sololá	719	Santiago Atitlán	14	Cerro de Oro	9	Septiembre	2023-09-09T00:00:00	2024-11-08T20:00:00	3	Temperatura mínima	18.6
171564	7	Sololá	719	Santiago Atitlán	14	Cerro de Oro	9	Septiembre	2023-09-09T00:00:00	2024-11-08T20:00:00	5	Humedad	93
171565	7	Sololá	719	Santiago Atitlán	14	Cerro de Oro	9	Septiembre	2023-09-09T00:00:00	2024-11-08T20:00:00	6	Velocidad del viento	3.2
171566	7	Sololá	719	Santiago Atitlán	14	Cerro de Oro	9	Septiembre	2023-09-09T00:00:00	2024-11-08T20:00:00	7	Dirección del viento	3.22
171567	7	Sololá	719	Santiago Atitlán	14	Cerro de Oro	9	Septiembre	2023-09-09T00:00:00	2024-11-08T20:00:00	1	Precipitación	0.2
171568	7	Sololá	719	Santiago Atitlán	14	Cerro de Oro	9	Septiembre	2023-09-09T00:00:00	2024-11-08T20:00:00	8	Radiación solar	0
171569	7	Sololá	719	Santiago Atitlán	14	Cerro de Oro	9	Septiembre	2023-09-09T00:00:00	2024-11-08T21:00:00	2	Temperatura media	19.2
171570	7	Sololá	719	Santiago Atitlán	14	Cerro de Oro	9	Septiembre	2023-09-09T00:00:00	2024-11-08T21:00:00	4	Temperatura máxima	19.2
171571	7	Sololá	719	Santiago Atitlán	14	Cerro de Oro	9	Septiembre	2023-09-09T00:00:00	2024-11-08T21:00:00	3	Temperatura mínima	18.6
171572	7	Sololá	719	Santiago Atitlán	14	Cerro de Oro	9	Septiembre	2023-09-09T00:00:00	2024-11-08T21:00:00	5	Humedad	92
171573	7	Sololá	719	Santiago Atitlán	14	Cerro de Oro	9	Septiembre	2023-09-09T00:00:00	2024-11-08T21:00:00	6	Velocidad del viento	3.2
171574	7	Sololá	719	Santiago Atitlán	14	Cerro de Oro	9	Septiembre	2023-09-09T00:00:00	2024-11-08T21:00:00	7	Dirección del viento	3.22
171575	7	Sololá	719	Santiago Atitlán	14	Cerro de Oro	9	Septiembre	2023-09-09T00:00:00	2024-11-08T21:00:00	1	Precipitación	0
171576	7	Sololá	719	Santiago Atitlán	14	Cerro de Oro	9	Septiembre	2023-09-09T00:00:00	2024-11-08T21:00:00	8	Radiación solar	0
171577	7	Sololá	719	Santiago Atitlán	14	Cerro de Oro	9	Septiembre	2023-09-09T00:00:00	2024-11-08T22:00:00	2	Temperatura media	19.1
171578	7	Sololá	719	Santiago Atitlán	14	Cerro de Oro	9	Septiembre	2023-09-09T00:00:00	2024-11-08T22:00:00	4	Temperatura máxima	19.2
171579	7	Sololá	719	Santiago Atitlán	14	Cerro de Oro	9	Septiembre	2023-09-09T00:00:00	2024-11-08T22:00:00	3	Temperatura mínima	18.7
171580	7	Sololá	719	Santiago Atitlán	14	Cerro de Oro	9	Septiembre	2023-09-09T00:00:00	2024-11-08T22:00:00	5	Humedad	93
171581	7	Sololá	719	Santiago Atitlán	14	Cerro de Oro	9	Septiembre	2023-09-09T00:00:00	2024-11-08T22:00:00	6	Velocidad del viento	3.2
171582	7	Sololá	719	Santiago Atitlán	14	Cerro de Oro	9	Septiembre	2023-09-09T00:00:00	2024-11-08T22:00:00	7	Dirección del viento	3.22
171583	7	Sololá	719	Santiago Atitlán	14	Cerro de Oro	9	Septiembre	2023-09-09T00:00:00	2024-11-08T22:00:00	1	Precipitación	0
171584	7	Sololá	719	Santiago Atitlán	14	Cerro de Oro	9	Septiembre	2023-09-09T00:00:00	2024-11-08T22:00:00	8	Radiación solar	0
171585	7	Sololá	719	Santiago Atitlán	14	Cerro de Oro	9	Septiembre	2023-09-09T00:00:00	2024-11-08T23:00:00	2	Temperatura media	19.2
171586	7	Sololá	719	Santiago Atitlán	14	Cerro de Oro	9	Septiembre	2023-09-09T00:00:00	2024-11-08T23:00:00	4	Temperatura máxima	19.3
171587	7	Sololá	719	Santiago Atitlán	14	Cerro de Oro	9	Septiembre	2023-09-09T00:00:00	2024-11-08T23:00:00	3	Temperatura mínima	18.9
171588	7	Sololá	719	Santiago Atitlán	14	Cerro de Oro	9	Septiembre	2023-09-09T00:00:00	2024-11-08T23:00:00	5	Humedad	92
171589	7	Sololá	719	Santiago Atitlán	14	Cerro de Oro	9	Septiembre	2023-09-09T00:00:00	2024-11-08T23:00:00	6	Velocidad del viento	3.2
171590	7	Sololá	719	Santiago Atitlán	14	Cerro de Oro	9	Septiembre	2023-09-09T00:00:00	2024-11-08T23:00:00	7	Dirección del viento	3.22
171591	7	Sololá	719	Santiago Atitlán	14	Cerro de Oro	9	Septiembre	2023-09-09T00:00:00	2024-11-08T23:00:00	1	Precipitación	0
171592	7	Sololá	719	Santiago Atitlán	14	Cerro de Oro	9	Septiembre	2023-09-09T00:00:00	2024-11-08T23:00:00	8	Radiación solar	0
171593	7	Sololá	719	Santiago Atitlán	14	Cerro de Oro	9	Septiembre	2023-10-09T00:00:00	2024-11-08T00:00:00	2	Temperatura media	18.8
171594	7	Sololá	719	Santiago Atitlán	14	Cerro de Oro	9	Septiembre	2023-10-09T00:00:00	2024-11-08T00:00:00	4	Temperatura máxima	20.1
171595	7	Sololá	719	Santiago Atitlán	14	Cerro de Oro	9	Septiembre	2023-10-09T00:00:00	2024-11-08T00:00:00	3	Temperatura mínima	18.8
171596	7	Sololá	719	Santiago Atitlán	14	Cerro de Oro	9	Septiembre	2023-10-09T00:00:00	2024-11-08T00:00:00	5	Humedad	83
171597	7	Sololá	719	Santiago Atitlán	14	Cerro de Oro	9	Septiembre	2023-10-09T00:00:00	2024-11-08T00:00:00	6	Velocidad del viento	6.4
171598	7	Sololá	719	Santiago Atitlán	14	Cerro de Oro	9	Septiembre	2023-10-09T00:00:00	2024-11-08T00:00:00	7	Dirección del viento	6.44
171599	7	Sololá	719	Santiago Atitlán	14	Cerro de Oro	9	Septiembre	2023-10-09T00:00:00	2024-11-08T00:00:00	1	Precipitación	0
171600	7	Sololá	719	Santiago Atitlán	14	Cerro de Oro	9	Septiembre	2023-10-09T00:00:00	2024-11-08T00:00:00	8	Radiación solar	0
171601	7	Sololá	719	Santiago Atitlán	14	Cerro de Oro	9	Septiembre	2023-10-09T00:00:00	2024-11-08T01:00:00	2	Temperatura media	18.4
171602	7	Sololá	719	Santiago Atitlán	14	Cerro de Oro	9	Septiembre	2023-10-09T00:00:00	2024-11-08T01:00:00	4	Temperatura máxima	19.1
171603	7	Sololá	719	Santiago Atitlán	14	Cerro de Oro	9	Septiembre	2023-10-09T00:00:00	2024-11-08T01:00:00	3	Temperatura mínima	18.4
171604	7	Sololá	719	Santiago Atitlán	14	Cerro de Oro	9	Septiembre	2023-10-09T00:00:00	2024-11-08T01:00:00	5	Humedad	84
171605	7	Sololá	719	Santiago Atitlán	14	Cerro de Oro	9	Septiembre	2023-10-09T00:00:00	2024-11-08T01:00:00	6	Velocidad del viento	6.4
171606	7	Sololá	719	Santiago Atitlán	14	Cerro de Oro	9	Septiembre	2023-10-09T00:00:00	2024-11-08T01:00:00	7	Dirección del viento	6.44
171607	7	Sololá	719	Santiago Atitlán	14	Cerro de Oro	9	Septiembre	2023-10-09T00:00:00	2024-11-08T01:00:00	1	Precipitación	0
171608	7	Sololá	719	Santiago Atitlán	14	Cerro de Oro	9	Septiembre	2023-10-09T00:00:00	2024-11-08T01:00:00	8	Radiación solar	0
171609	7	Sololá	719	Santiago Atitlán	14	Cerro de Oro	9	Septiembre	2023-10-09T00:00:00	2024-11-08T02:00:00	2	Temperatura media	19.4
171610	7	Sololá	719	Santiago Atitlán	14	Cerro de Oro	9	Septiembre	2023-10-09T00:00:00	2024-11-08T02:00:00	4	Temperatura máxima	19.4
171611	7	Sololá	719	Santiago Atitlán	14	Cerro de Oro	9	Septiembre	2023-10-09T00:00:00	2024-11-08T02:00:00	3	Temperatura mínima	18.4
171612	7	Sololá	719	Santiago Atitlán	14	Cerro de Oro	9	Septiembre	2023-10-09T00:00:00	2024-11-08T02:00:00	5	Humedad	79
171613	7	Sololá	719	Santiago Atitlán	14	Cerro de Oro	9	Septiembre	2023-10-09T00:00:00	2024-11-08T02:00:00	6	Velocidad del viento	4.8
171614	7	Sololá	719	Santiago Atitlán	14	Cerro de Oro	9	Septiembre	2023-10-09T00:00:00	2024-11-08T02:00:00	7	Dirección del viento	4.83
171615	7	Sololá	719	Santiago Atitlán	14	Cerro de Oro	9	Septiembre	2023-10-09T00:00:00	2024-11-08T02:00:00	1	Precipitación	0
171616	7	Sololá	719	Santiago Atitlán	14	Cerro de Oro	9	Septiembre	2023-10-09T00:00:00	2024-11-08T02:00:00	8	Radiación solar	0
171617	7	Sololá	719	Santiago Atitlán	14	Cerro de Oro	9	Septiembre	2023-10-09T00:00:00	2024-11-08T03:00:00	2	Temperatura media	19.8
171618	7	Sololá	719	Santiago Atitlán	14	Cerro de Oro	9	Septiembre	2023-10-09T00:00:00	2024-11-08T03:00:00	4	Temperatura máxima	20.1
171619	7	Sololá	719	Santiago Atitlán	14	Cerro de Oro	9	Septiembre	2023-10-09T00:00:00	2024-11-08T03:00:00	3	Temperatura mínima	19.5
171620	7	Sololá	719	Santiago Atitlán	14	Cerro de Oro	9	Septiembre	2023-10-09T00:00:00	2024-11-08T03:00:00	5	Humedad	75
171621	7	Sololá	719	Santiago Atitlán	14	Cerro de Oro	9	Septiembre	2023-10-09T00:00:00	2024-11-08T03:00:00	6	Velocidad del viento	8
171622	7	Sololá	719	Santiago Atitlán	14	Cerro de Oro	9	Septiembre	2023-10-09T00:00:00	2024-11-08T03:00:00	7	Dirección del viento	8.05
171623	7	Sololá	719	Santiago Atitlán	14	Cerro de Oro	9	Septiembre	2023-10-09T00:00:00	2024-11-08T03:00:00	1	Precipitación	0
171624	7	Sololá	719	Santiago Atitlán	14	Cerro de Oro	9	Septiembre	2023-10-09T00:00:00	2024-11-08T03:00:00	8	Radiación solar	0
171625	7	Sololá	719	Santiago Atitlán	14	Cerro de Oro	9	Septiembre	2023-10-09T00:00:00	2024-11-08T04:00:00	2	Temperatura media	18.3
171626	7	Sololá	719	Santiago Atitlán	14	Cerro de Oro	9	Septiembre	2023-10-09T00:00:00	2024-11-08T04:00:00	4	Temperatura máxima	19.8
171627	7	Sololá	719	Santiago Atitlán	14	Cerro de Oro	9	Septiembre	2023-10-09T00:00:00	2024-11-08T04:00:00	3	Temperatura mínima	18.3
171628	7	Sololá	719	Santiago Atitlán	14	Cerro de Oro	9	Septiembre	2023-10-09T00:00:00	2024-11-08T04:00:00	5	Humedad	81
171629	7	Sololá	719	Santiago Atitlán	14	Cerro de Oro	9	Septiembre	2023-10-09T00:00:00	2024-11-08T04:00:00	6	Velocidad del viento	4.8
171630	7	Sololá	719	Santiago Atitlán	14	Cerro de Oro	9	Septiembre	2023-10-09T00:00:00	2024-11-08T04:00:00	7	Dirección del viento	4.83
171631	7	Sololá	719	Santiago Atitlán	14	Cerro de Oro	9	Septiembre	2023-10-09T00:00:00	2024-11-08T04:00:00	1	Precipitación	0
171632	7	Sololá	719	Santiago Atitlán	14	Cerro de Oro	9	Septiembre	2023-10-09T00:00:00	2024-11-08T04:00:00	8	Radiación solar	0
171633	7	Sololá	719	Santiago Atitlán	14	Cerro de Oro	9	Septiembre	2023-10-09T00:00:00	2024-11-08T05:00:00	2	Temperatura media	18.9
171634	7	Sololá	719	Santiago Atitlán	14	Cerro de Oro	9	Septiembre	2023-10-09T00:00:00	2024-11-08T05:00:00	4	Temperatura máxima	19.1
171635	7	Sololá	719	Santiago Atitlán	14	Cerro de Oro	9	Septiembre	2023-10-09T00:00:00	2024-11-08T05:00:00	3	Temperatura mínima	18.3
171636	7	Sololá	719	Santiago Atitlán	14	Cerro de Oro	9	Septiembre	2023-10-09T00:00:00	2024-11-08T05:00:00	5	Humedad	77
171637	7	Sololá	719	Santiago Atitlán	14	Cerro de Oro	9	Septiembre	2023-10-09T00:00:00	2024-11-08T05:00:00	6	Velocidad del viento	4.8
171638	7	Sololá	719	Santiago Atitlán	14	Cerro de Oro	9	Septiembre	2023-10-09T00:00:00	2024-11-08T05:00:00	7	Dirección del viento	4.83
171639	7	Sololá	719	Santiago Atitlán	14	Cerro de Oro	9	Septiembre	2023-10-09T00:00:00	2024-11-08T05:00:00	1	Precipitación	0
171640	7	Sololá	719	Santiago Atitlán	14	Cerro de Oro	9	Septiembre	2023-10-09T00:00:00	2024-11-08T05:00:00	8	Radiación solar	0
171641	7	Sololá	719	Santiago Atitlán	14	Cerro de Oro	9	Septiembre	2023-10-09T00:00:00	2024-11-08T06:00:00	2	Temperatura media	18.1
171642	7	Sololá	719	Santiago Atitlán	14	Cerro de Oro	9	Septiembre	2023-10-09T00:00:00	2024-11-08T06:00:00	4	Temperatura máxima	18.9
171643	7	Sololá	719	Santiago Atitlán	14	Cerro de Oro	9	Septiembre	2023-10-09T00:00:00	2024-11-08T06:00:00	3	Temperatura mínima	18
171644	7	Sololá	719	Santiago Atitlán	14	Cerro de Oro	9	Septiembre	2023-10-09T00:00:00	2024-11-08T06:00:00	5	Humedad	80
171645	7	Sololá	719	Santiago Atitlán	14	Cerro de Oro	9	Septiembre	2023-10-09T00:00:00	2024-11-08T06:00:00	6	Velocidad del viento	4.8
171646	7	Sololá	719	Santiago Atitlán	14	Cerro de Oro	9	Septiembre	2023-10-09T00:00:00	2024-11-08T06:00:00	7	Dirección del viento	4.83
171647	7	Sololá	719	Santiago Atitlán	14	Cerro de Oro	9	Septiembre	2023-10-09T00:00:00	2024-11-08T06:00:00	1	Precipitación	0
171648	7	Sololá	719	Santiago Atitlán	14	Cerro de Oro	9	Septiembre	2023-10-09T00:00:00	2024-11-08T06:00:00	8	Radiación solar	0
171649	7	Sololá	719	Santiago Atitlán	14	Cerro de Oro	9	Septiembre	2023-10-09T00:00:00	2024-11-08T07:00:00	2	Temperatura media	19.1
171650	7	Sololá	719	Santiago Atitlán	14	Cerro de Oro	9	Septiembre	2023-10-09T00:00:00	2024-11-08T07:00:00	4	Temperatura máxima	19.1
171651	7	Sololá	719	Santiago Atitlán	14	Cerro de Oro	9	Septiembre	2023-10-09T00:00:00	2024-11-08T07:00:00	3	Temperatura mínima	18.1
171652	7	Sololá	719	Santiago Atitlán	14	Cerro de Oro	9	Septiembre	2023-10-09T00:00:00	2024-11-08T07:00:00	5	Humedad	78
171653	7	Sololá	719	Santiago Atitlán	14	Cerro de Oro	9	Septiembre	2023-10-09T00:00:00	2024-11-08T07:00:00	6	Velocidad del viento	4.8
171654	7	Sololá	719	Santiago Atitlán	14	Cerro de Oro	9	Septiembre	2023-10-09T00:00:00	2024-11-08T07:00:00	7	Dirección del viento	4.83
171655	7	Sololá	719	Santiago Atitlán	14	Cerro de Oro	9	Septiembre	2023-10-09T00:00:00	2024-11-08T07:00:00	1	Precipitación	0
171656	7	Sololá	719	Santiago Atitlán	14	Cerro de Oro	9	Septiembre	2023-10-09T00:00:00	2024-11-08T07:00:00	8	Radiación solar	21
171657	7	Sololá	719	Santiago Atitlán	14	Cerro de Oro	9	Septiembre	2023-10-09T00:00:00	2024-11-08T08:00:00	2	Temperatura media	19.3
171658	7	Sololá	719	Santiago Atitlán	14	Cerro de Oro	9	Septiembre	2023-10-09T00:00:00	2024-11-08T08:00:00	4	Temperatura máxima	19.3
171659	7	Sololá	719	Santiago Atitlán	14	Cerro de Oro	9	Septiembre	2023-10-09T00:00:00	2024-11-08T08:00:00	3	Temperatura mínima	19.1
171660	7	Sololá	719	Santiago Atitlán	14	Cerro de Oro	9	Septiembre	2023-10-09T00:00:00	2024-11-08T08:00:00	5	Humedad	79
171661	7	Sololá	719	Santiago Atitlán	14	Cerro de Oro	9	Septiembre	2023-10-09T00:00:00	2024-11-08T08:00:00	6	Velocidad del viento	3.2
171662	7	Sololá	719	Santiago Atitlán	14	Cerro de Oro	9	Septiembre	2023-10-09T00:00:00	2024-11-08T08:00:00	7	Dirección del viento	3.22
171663	7	Sololá	719	Santiago Atitlán	14	Cerro de Oro	9	Septiembre	2023-10-09T00:00:00	2024-11-08T08:00:00	1	Precipitación	0
171664	7	Sololá	719	Santiago Atitlán	14	Cerro de Oro	9	Septiembre	2023-10-09T00:00:00	2024-11-08T08:00:00	8	Radiación solar	80
171665	7	Sololá	719	Santiago Atitlán	14	Cerro de Oro	9	Septiembre	2023-10-09T00:00:00	2024-11-08T09:00:00	2	Temperatura media	21
171666	7	Sololá	719	Santiago Atitlán	14	Cerro de Oro	9	Septiembre	2023-10-09T00:00:00	2024-11-08T09:00:00	4	Temperatura máxima	21
171667	7	Sololá	719	Santiago Atitlán	14	Cerro de Oro	9	Septiembre	2023-10-09T00:00:00	2024-11-08T09:00:00	3	Temperatura mínima	19.3
171668	7	Sololá	719	Santiago Atitlán	14	Cerro de Oro	9	Septiembre	2023-10-09T00:00:00	2024-11-08T09:00:00	5	Humedad	73
171669	7	Sololá	719	Santiago Atitlán	14	Cerro de Oro	9	Septiembre	2023-10-09T00:00:00	2024-11-08T09:00:00	6	Velocidad del viento	4.8
171670	7	Sololá	719	Santiago Atitlán	14	Cerro de Oro	9	Septiembre	2023-10-09T00:00:00	2024-11-08T09:00:00	7	Dirección del viento	4.83
171671	7	Sololá	719	Santiago Atitlán	14	Cerro de Oro	9	Septiembre	2023-10-09T00:00:00	2024-11-08T09:00:00	1	Precipitación	0
171672	7	Sololá	719	Santiago Atitlán	14	Cerro de Oro	9	Septiembre	2023-10-09T00:00:00	2024-11-08T09:00:00	8	Radiación solar	160
171673	7	Sololá	719	Santiago Atitlán	14	Cerro de Oro	9	Septiembre	2023-10-09T00:00:00	2024-11-08T10:00:00	2	Temperatura media	22.3
171674	7	Sololá	719	Santiago Atitlán	14	Cerro de Oro	9	Septiembre	2023-10-09T00:00:00	2024-11-08T10:00:00	4	Temperatura máxima	22.3
171675	7	Sololá	719	Santiago Atitlán	14	Cerro de Oro	9	Septiembre	2023-10-09T00:00:00	2024-11-08T10:00:00	3	Temperatura mínima	21
171676	7	Sololá	719	Santiago Atitlán	14	Cerro de Oro	9	Septiembre	2023-10-09T00:00:00	2024-11-08T10:00:00	5	Humedad	71
171677	7	Sololá	719	Santiago Atitlán	14	Cerro de Oro	9	Septiembre	2023-10-09T00:00:00	2024-11-08T10:00:00	6	Velocidad del viento	3.2
171678	7	Sololá	719	Santiago Atitlán	14	Cerro de Oro	9	Septiembre	2023-10-09T00:00:00	2024-11-08T10:00:00	7	Dirección del viento	3.22
171679	7	Sololá	719	Santiago Atitlán	14	Cerro de Oro	9	Septiembre	2023-10-09T00:00:00	2024-11-08T10:00:00	1	Precipitación	0
171680	7	Sololá	719	Santiago Atitlán	14	Cerro de Oro	9	Septiembre	2023-10-09T00:00:00	2024-11-08T10:00:00	8	Radiación solar	277
171681	7	Sololá	719	Santiago Atitlán	14	Cerro de Oro	9	Septiembre	2023-10-09T00:00:00	2024-11-08T11:00:00	2	Temperatura media	23.6
171682	7	Sololá	719	Santiago Atitlán	14	Cerro de Oro	9	Septiembre	2023-10-09T00:00:00	2024-11-08T11:00:00	4	Temperatura máxima	23.8
171683	7	Sololá	719	Santiago Atitlán	14	Cerro de Oro	9	Septiembre	2023-10-09T00:00:00	2024-11-08T11:00:00	3	Temperatura mínima	22.3
171684	7	Sololá	719	Santiago Atitlán	14	Cerro de Oro	9	Septiembre	2023-10-09T00:00:00	2024-11-08T11:00:00	5	Humedad	68
171685	7	Sololá	719	Santiago Atitlán	14	Cerro de Oro	9	Septiembre	2023-10-09T00:00:00	2024-11-08T11:00:00	6	Velocidad del viento	3.2
171686	7	Sololá	719	Santiago Atitlán	14	Cerro de Oro	9	Septiembre	2023-10-09T00:00:00	2024-11-08T11:00:00	7	Dirección del viento	3.22
171687	7	Sololá	719	Santiago Atitlán	14	Cerro de Oro	9	Septiembre	2023-10-09T00:00:00	2024-11-08T11:00:00	1	Precipitación	0
171688	7	Sololá	719	Santiago Atitlán	14	Cerro de Oro	9	Septiembre	2023-10-09T00:00:00	2024-11-08T11:00:00	8	Radiación solar	665
171689	7	Sololá	719	Santiago Atitlán	14	Cerro de Oro	9	Septiembre	2023-10-09T00:00:00	2024-11-08T12:00:00	2	Temperatura media	23.6
171690	7	Sololá	719	Santiago Atitlán	14	Cerro de Oro	9	Septiembre	2023-10-09T00:00:00	2024-11-08T12:00:00	4	Temperatura máxima	24.8
171691	7	Sololá	719	Santiago Atitlán	14	Cerro de Oro	9	Septiembre	2023-10-09T00:00:00	2024-11-08T12:00:00	3	Temperatura mínima	23.4
171692	7	Sololá	719	Santiago Atitlán	14	Cerro de Oro	9	Septiembre	2023-10-09T00:00:00	2024-11-08T12:00:00	5	Humedad	78
171693	7	Sololá	719	Santiago Atitlán	14	Cerro de Oro	9	Septiembre	2023-10-09T00:00:00	2024-11-08T12:00:00	6	Velocidad del viento	4.8
171694	7	Sololá	719	Santiago Atitlán	14	Cerro de Oro	9	Septiembre	2023-10-09T00:00:00	2024-11-08T12:00:00	7	Dirección del viento	4.83
171695	7	Sololá	719	Santiago Atitlán	14	Cerro de Oro	9	Septiembre	2023-10-09T00:00:00	2024-11-08T12:00:00	1	Precipitación	0
171696	7	Sololá	719	Santiago Atitlán	14	Cerro de Oro	9	Septiembre	2023-10-09T00:00:00	2024-11-08T12:00:00	8	Radiación solar	936
171697	7	Sololá	719	Santiago Atitlán	14	Cerro de Oro	9	Septiembre	2023-10-09T00:00:00	2024-11-08T13:00:00	2	Temperatura media	24
171698	7	Sololá	719	Santiago Atitlán	14	Cerro de Oro	9	Septiembre	2023-10-09T00:00:00	2024-11-08T13:00:00	4	Temperatura máxima	24.1
171699	7	Sololá	719	Santiago Atitlán	14	Cerro de Oro	9	Septiembre	2023-10-09T00:00:00	2024-11-08T13:00:00	3	Temperatura mínima	23.6
171700	7	Sololá	719	Santiago Atitlán	14	Cerro de Oro	9	Septiembre	2023-10-09T00:00:00	2024-11-08T13:00:00	5	Humedad	75
171701	7	Sololá	719	Santiago Atitlán	14	Cerro de Oro	9	Septiembre	2023-10-09T00:00:00	2024-11-08T13:00:00	6	Velocidad del viento	9.7
171702	7	Sololá	719	Santiago Atitlán	14	Cerro de Oro	9	Septiembre	2023-10-09T00:00:00	2024-11-08T13:00:00	7	Dirección del viento	9.66
171703	7	Sololá	719	Santiago Atitlán	14	Cerro de Oro	9	Septiembre	2023-10-09T00:00:00	2024-11-08T13:00:00	1	Precipitación	0
171704	7	Sololá	719	Santiago Atitlán	14	Cerro de Oro	9	Septiembre	2023-10-09T00:00:00	2024-11-08T13:00:00	8	Radiación solar	934
171705	7	Sololá	719	Santiago Atitlán	14	Cerro de Oro	9	Septiembre	2023-10-09T00:00:00	2024-11-08T14:00:00	2	Temperatura media	23.7
171706	7	Sololá	719	Santiago Atitlán	14	Cerro de Oro	9	Septiembre	2023-10-09T00:00:00	2024-11-08T14:00:00	4	Temperatura máxima	24.3
171707	7	Sololá	719	Santiago Atitlán	14	Cerro de Oro	9	Septiembre	2023-10-09T00:00:00	2024-11-08T14:00:00	3	Temperatura mínima	23.2
171708	7	Sololá	719	Santiago Atitlán	14	Cerro de Oro	9	Septiembre	2023-10-09T00:00:00	2024-11-08T14:00:00	5	Humedad	77
171709	7	Sololá	719	Santiago Atitlán	14	Cerro de Oro	9	Septiembre	2023-10-09T00:00:00	2024-11-08T14:00:00	6	Velocidad del viento	9.7
171710	7	Sololá	719	Santiago Atitlán	14	Cerro de Oro	9	Septiembre	2023-10-09T00:00:00	2024-11-08T14:00:00	7	Dirección del viento	9.66
171711	7	Sololá	719	Santiago Atitlán	14	Cerro de Oro	9	Septiembre	2023-10-09T00:00:00	2024-11-08T14:00:00	1	Precipitación	0
171712	7	Sololá	719	Santiago Atitlán	14	Cerro de Oro	9	Septiembre	2023-10-09T00:00:00	2024-11-08T14:00:00	8	Radiación solar	803
171713	7	Sololá	719	Santiago Atitlán	14	Cerro de Oro	9	Septiembre	2023-10-09T00:00:00	2024-11-08T15:00:00	2	Temperatura media	23.6
171714	7	Sololá	719	Santiago Atitlán	14	Cerro de Oro	9	Septiembre	2023-10-09T00:00:00	2024-11-08T15:00:00	4	Temperatura máxima	23.8
171715	7	Sololá	719	Santiago Atitlán	14	Cerro de Oro	9	Septiembre	2023-10-09T00:00:00	2024-11-08T15:00:00	3	Temperatura mínima	23.6
171716	7	Sololá	719	Santiago Atitlán	14	Cerro de Oro	9	Septiembre	2023-10-09T00:00:00	2024-11-08T15:00:00	5	Humedad	76
171717	7	Sololá	719	Santiago Atitlán	14	Cerro de Oro	9	Septiembre	2023-10-09T00:00:00	2024-11-08T15:00:00	6	Velocidad del viento	11.3
171718	7	Sololá	719	Santiago Atitlán	14	Cerro de Oro	9	Septiembre	2023-10-09T00:00:00	2024-11-08T15:00:00	7	Dirección del viento	11.27
171719	7	Sololá	719	Santiago Atitlán	14	Cerro de Oro	9	Septiembre	2023-10-09T00:00:00	2024-11-08T15:00:00	1	Precipitación	0
171720	7	Sololá	719	Santiago Atitlán	14	Cerro de Oro	9	Septiembre	2023-10-09T00:00:00	2024-11-08T15:00:00	8	Radiación solar	741
171721	7	Sololá	719	Santiago Atitlán	14	Cerro de Oro	9	Septiembre	2023-10-09T00:00:00	2024-11-08T16:00:00	2	Temperatura media	23.4
171722	7	Sololá	719	Santiago Atitlán	14	Cerro de Oro	9	Septiembre	2023-10-09T00:00:00	2024-11-08T16:00:00	4	Temperatura máxima	24.3
171723	7	Sololá	719	Santiago Atitlán	14	Cerro de Oro	9	Septiembre	2023-10-09T00:00:00	2024-11-08T16:00:00	3	Temperatura mínima	23.1
171724	7	Sololá	719	Santiago Atitlán	14	Cerro de Oro	9	Septiembre	2023-10-09T00:00:00	2024-11-08T16:00:00	5	Humedad	78
171725	7	Sololá	719	Santiago Atitlán	14	Cerro de Oro	9	Septiembre	2023-10-09T00:00:00	2024-11-08T16:00:00	6	Velocidad del viento	8
171726	7	Sololá	719	Santiago Atitlán	14	Cerro de Oro	9	Septiembre	2023-10-09T00:00:00	2024-11-08T16:00:00	7	Dirección del viento	8.05
171727	7	Sololá	719	Santiago Atitlán	14	Cerro de Oro	9	Septiembre	2023-10-09T00:00:00	2024-11-08T16:00:00	1	Precipitación	0
171728	7	Sololá	719	Santiago Atitlán	14	Cerro de Oro	9	Septiembre	2023-10-09T00:00:00	2024-11-08T16:00:00	8	Radiación solar	453
171729	7	Sololá	719	Santiago Atitlán	14	Cerro de Oro	9	Septiembre	2023-10-09T00:00:00	2024-11-08T17:00:00	2	Temperatura media	21.2
171730	7	Sololá	719	Santiago Atitlán	14	Cerro de Oro	9	Septiembre	2023-10-09T00:00:00	2024-11-08T17:00:00	4	Temperatura máxima	23.4
171731	7	Sololá	719	Santiago Atitlán	14	Cerro de Oro	9	Septiembre	2023-10-09T00:00:00	2024-11-08T17:00:00	3	Temperatura mínima	21.2
171732	7	Sololá	719	Santiago Atitlán	14	Cerro de Oro	9	Septiembre	2023-10-09T00:00:00	2024-11-08T17:00:00	5	Humedad	85
171733	7	Sololá	719	Santiago Atitlán	14	Cerro de Oro	9	Septiembre	2023-10-09T00:00:00	2024-11-08T17:00:00	6	Velocidad del viento	8
171734	7	Sololá	719	Santiago Atitlán	14	Cerro de Oro	9	Septiembre	2023-10-09T00:00:00	2024-11-08T17:00:00	7	Dirección del viento	8.05
171735	7	Sololá	719	Santiago Atitlán	14	Cerro de Oro	9	Septiembre	2023-10-09T00:00:00	2024-11-08T17:00:00	1	Precipitación	0
171736	7	Sololá	719	Santiago Atitlán	14	Cerro de Oro	9	Septiembre	2023-10-09T00:00:00	2024-11-08T17:00:00	8	Radiación solar	173
171737	7	Sololá	719	Santiago Atitlán	14	Cerro de Oro	9	Septiembre	2023-10-09T00:00:00	2024-11-08T18:00:00	2	Temperatura media	20.6
171738	7	Sololá	719	Santiago Atitlán	14	Cerro de Oro	9	Septiembre	2023-10-09T00:00:00	2024-11-08T18:00:00	4	Temperatura máxima	21.2
171739	7	Sololá	719	Santiago Atitlán	14	Cerro de Oro	9	Septiembre	2023-10-09T00:00:00	2024-11-08T18:00:00	3	Temperatura mínima	19.9
171740	7	Sololá	719	Santiago Atitlán	14	Cerro de Oro	9	Septiembre	2023-10-09T00:00:00	2024-11-08T18:00:00	5	Humedad	86
171741	7	Sololá	719	Santiago Atitlán	14	Cerro de Oro	9	Septiembre	2023-10-09T00:00:00	2024-11-08T18:00:00	6	Velocidad del viento	6.4
171742	7	Sololá	719	Santiago Atitlán	14	Cerro de Oro	9	Septiembre	2023-10-09T00:00:00	2024-11-08T18:00:00	7	Dirección del viento	6.44
171743	7	Sololá	719	Santiago Atitlán	14	Cerro de Oro	9	Septiembre	2023-10-09T00:00:00	2024-11-08T18:00:00	1	Precipitación	0
171744	7	Sololá	719	Santiago Atitlán	14	Cerro de Oro	9	Septiembre	2023-10-09T00:00:00	2024-11-08T18:00:00	8	Radiación solar	21
171745	7	Sololá	719	Santiago Atitlán	14	Cerro de Oro	9	Septiembre	2023-10-09T00:00:00	2024-11-08T19:00:00	2	Temperatura media	20.4
171746	7	Sololá	719	Santiago Atitlán	14	Cerro de Oro	9	Septiembre	2023-10-09T00:00:00	2024-11-08T19:00:00	4	Temperatura máxima	20.8
171747	7	Sololá	719	Santiago Atitlán	14	Cerro de Oro	9	Septiembre	2023-10-09T00:00:00	2024-11-08T19:00:00	3	Temperatura mínima	20.4
171748	7	Sololá	719	Santiago Atitlán	14	Cerro de Oro	9	Septiembre	2023-10-09T00:00:00	2024-11-08T19:00:00	5	Humedad	85
171749	7	Sololá	719	Santiago Atitlán	14	Cerro de Oro	9	Septiembre	2023-10-09T00:00:00	2024-11-08T19:00:00	6	Velocidad del viento	3.2
171750	7	Sololá	719	Santiago Atitlán	14	Cerro de Oro	9	Septiembre	2023-10-09T00:00:00	2024-11-08T19:00:00	7	Dirección del viento	3.22
171751	7	Sololá	719	Santiago Atitlán	14	Cerro de Oro	9	Septiembre	2023-10-09T00:00:00	2024-11-08T19:00:00	1	Precipitación	0
171752	7	Sololá	719	Santiago Atitlán	14	Cerro de Oro	9	Septiembre	2023-10-09T00:00:00	2024-11-08T19:00:00	8	Radiación solar	0
171753	7	Sololá	719	Santiago Atitlán	14	Cerro de Oro	9	Septiembre	2023-10-09T00:00:00	2024-11-08T20:00:00	2	Temperatura media	19.6
171754	7	Sololá	719	Santiago Atitlán	14	Cerro de Oro	9	Septiembre	2023-10-09T00:00:00	2024-11-08T20:00:00	4	Temperatura máxima	20.4
171755	7	Sololá	719	Santiago Atitlán	14	Cerro de Oro	9	Septiembre	2023-10-09T00:00:00	2024-11-08T20:00:00	3	Temperatura mínima	19.4
171756	7	Sololá	719	Santiago Atitlán	14	Cerro de Oro	9	Septiembre	2023-10-09T00:00:00	2024-11-08T20:00:00	5	Humedad	84
171757	7	Sololá	719	Santiago Atitlán	14	Cerro de Oro	9	Septiembre	2023-10-09T00:00:00	2024-11-08T20:00:00	6	Velocidad del viento	3.2
171758	7	Sololá	719	Santiago Atitlán	14	Cerro de Oro	9	Septiembre	2023-10-09T00:00:00	2024-11-08T20:00:00	7	Dirección del viento	3.22
171759	7	Sololá	719	Santiago Atitlán	14	Cerro de Oro	9	Septiembre	2023-10-09T00:00:00	2024-11-08T20:00:00	1	Precipitación	0
171760	7	Sololá	719	Santiago Atitlán	14	Cerro de Oro	9	Septiembre	2023-10-09T00:00:00	2024-11-08T20:00:00	8	Radiación solar	0
171761	7	Sololá	719	Santiago Atitlán	14	Cerro de Oro	9	Septiembre	2023-10-09T00:00:00	2024-11-08T21:00:00	2	Temperatura media	19.7
171762	7	Sololá	719	Santiago Atitlán	14	Cerro de Oro	9	Septiembre	2023-10-09T00:00:00	2024-11-08T21:00:00	4	Temperatura máxima	19.8
171763	7	Sololá	719	Santiago Atitlán	14	Cerro de Oro	9	Septiembre	2023-10-09T00:00:00	2024-11-08T21:00:00	3	Temperatura mínima	19.4
171764	7	Sololá	719	Santiago Atitlán	14	Cerro de Oro	9	Septiembre	2023-10-09T00:00:00	2024-11-08T21:00:00	5	Humedad	87
171765	7	Sololá	719	Santiago Atitlán	14	Cerro de Oro	9	Septiembre	2023-10-09T00:00:00	2024-11-08T21:00:00	6	Velocidad del viento	1.6
171766	7	Sololá	719	Santiago Atitlán	14	Cerro de Oro	9	Septiembre	2023-10-09T00:00:00	2024-11-08T21:00:00	7	Dirección del viento	1.61
171767	7	Sololá	719	Santiago Atitlán	14	Cerro de Oro	9	Septiembre	2023-10-09T00:00:00	2024-11-08T21:00:00	1	Precipitación	0
171768	7	Sololá	719	Santiago Atitlán	14	Cerro de Oro	9	Septiembre	2023-10-09T00:00:00	2024-11-08T21:00:00	8	Radiación solar	0
171769	7	Sololá	719	Santiago Atitlán	14	Cerro de Oro	9	Septiembre	2023-10-09T00:00:00	2024-11-08T22:00:00	2	Temperatura media	20.2
171770	7	Sololá	719	Santiago Atitlán	14	Cerro de Oro	9	Septiembre	2023-10-09T00:00:00	2024-11-08T22:00:00	4	Temperatura máxima	20.2
171771	7	Sololá	719	Santiago Atitlán	14	Cerro de Oro	9	Septiembre	2023-10-09T00:00:00	2024-11-08T22:00:00	3	Temperatura mínima	19.2
171772	7	Sololá	719	Santiago Atitlán	14	Cerro de Oro	9	Septiembre	2023-10-09T00:00:00	2024-11-08T22:00:00	5	Humedad	82
171773	7	Sololá	719	Santiago Atitlán	14	Cerro de Oro	9	Septiembre	2023-10-09T00:00:00	2024-11-08T22:00:00	6	Velocidad del viento	4.8
171774	7	Sololá	719	Santiago Atitlán	14	Cerro de Oro	9	Septiembre	2023-10-09T00:00:00	2024-11-08T22:00:00	7	Dirección del viento	4.83
171775	7	Sololá	719	Santiago Atitlán	14	Cerro de Oro	9	Septiembre	2023-10-09T00:00:00	2024-11-08T22:00:00	1	Precipitación	0
171776	7	Sololá	719	Santiago Atitlán	14	Cerro de Oro	9	Septiembre	2023-10-09T00:00:00	2024-11-08T22:00:00	8	Radiación solar	0
171777	7	Sololá	719	Santiago Atitlán	14	Cerro de Oro	9	Septiembre	2023-10-09T00:00:00	2024-11-08T23:00:00	2	Temperatura media	19.9
171778	7	Sololá	719	Santiago Atitlán	14	Cerro de Oro	9	Septiembre	2023-10-09T00:00:00	2024-11-08T23:00:00	4	Temperatura máxima	20.3
171779	7	Sololá	719	Santiago Atitlán	14	Cerro de Oro	9	Septiembre	2023-10-09T00:00:00	2024-11-08T23:00:00	3	Temperatura mínima	19.7
171780	7	Sololá	719	Santiago Atitlán	14	Cerro de Oro	9	Septiembre	2023-10-09T00:00:00	2024-11-08T23:00:00	5	Humedad	81
171781	7	Sololá	719	Santiago Atitlán	14	Cerro de Oro	9	Septiembre	2023-10-09T00:00:00	2024-11-08T23:00:00	6	Velocidad del viento	3.2
171782	7	Sololá	719	Santiago Atitlán	14	Cerro de Oro	9	Septiembre	2023-10-09T00:00:00	2024-11-08T23:00:00	7	Dirección del viento	3.22
171783	7	Sololá	719	Santiago Atitlán	14	Cerro de Oro	9	Septiembre	2023-10-09T00:00:00	2024-11-08T23:00:00	1	Precipitación	0
171784	7	Sololá	719	Santiago Atitlán	14	Cerro de Oro	9	Septiembre	2023-10-09T00:00:00	2024-11-08T23:00:00	8	Radiación solar	0
171785	7	Sololá	719	Santiago Atitlán	14	Cerro de Oro	9	Septiembre	2023-11-09T00:00:00	2024-11-08T00:00:00	2	Temperatura media	18.9
171786	7	Sololá	719	Santiago Atitlán	14	Cerro de Oro	9	Septiembre	2023-11-09T00:00:00	2024-11-08T00:00:00	4	Temperatura máxima	19.9
171787	7	Sololá	719	Santiago Atitlán	14	Cerro de Oro	9	Septiembre	2023-11-09T00:00:00	2024-11-08T00:00:00	3	Temperatura mínima	18.9
171788	7	Sololá	719	Santiago Atitlán	14	Cerro de Oro	9	Septiembre	2023-11-09T00:00:00	2024-11-08T00:00:00	5	Humedad	83
171789	7	Sololá	719	Santiago Atitlán	14	Cerro de Oro	9	Septiembre	2023-11-09T00:00:00	2024-11-08T00:00:00	6	Velocidad del viento	4.8
171790	7	Sololá	719	Santiago Atitlán	14	Cerro de Oro	9	Septiembre	2023-11-09T00:00:00	2024-11-08T00:00:00	7	Dirección del viento	4.83
171791	7	Sololá	719	Santiago Atitlán	14	Cerro de Oro	9	Septiembre	2023-11-09T00:00:00	2024-11-08T00:00:00	1	Precipitación	0
171792	7	Sololá	719	Santiago Atitlán	14	Cerro de Oro	9	Septiembre	2023-11-09T00:00:00	2024-11-08T00:00:00	8	Radiación solar	0
171793	7	Sololá	719	Santiago Atitlán	14	Cerro de Oro	9	Septiembre	2023-11-09T00:00:00	2024-11-08T01:00:00	2	Temperatura media	18.8
171794	7	Sololá	719	Santiago Atitlán	14	Cerro de Oro	9	Septiembre	2023-11-09T00:00:00	2024-11-08T01:00:00	4	Temperatura máxima	19.3
171795	7	Sololá	719	Santiago Atitlán	14	Cerro de Oro	9	Septiembre	2023-11-09T00:00:00	2024-11-08T01:00:00	3	Temperatura mínima	18.6
171796	7	Sololá	719	Santiago Atitlán	14	Cerro de Oro	9	Septiembre	2023-11-09T00:00:00	2024-11-08T01:00:00	5	Humedad	81
171797	7	Sololá	719	Santiago Atitlán	14	Cerro de Oro	9	Septiembre	2023-11-09T00:00:00	2024-11-08T01:00:00	6	Velocidad del viento	4.8
171798	7	Sololá	719	Santiago Atitlán	14	Cerro de Oro	9	Septiembre	2023-11-09T00:00:00	2024-11-08T01:00:00	7	Dirección del viento	4.83
171799	7	Sololá	719	Santiago Atitlán	14	Cerro de Oro	9	Septiembre	2023-11-09T00:00:00	2024-11-08T01:00:00	1	Precipitación	0
171800	7	Sololá	719	Santiago Atitlán	14	Cerro de Oro	9	Septiembre	2023-11-09T00:00:00	2024-11-08T01:00:00	8	Radiación solar	0
171801	7	Sololá	719	Santiago Atitlán	14	Cerro de Oro	9	Septiembre	2023-11-09T00:00:00	2024-11-08T02:00:00	2	Temperatura media	19.9
171802	7	Sololá	719	Santiago Atitlán	14	Cerro de Oro	9	Septiembre	2023-11-09T00:00:00	2024-11-08T02:00:00	4	Temperatura máxima	20.4
171803	7	Sololá	719	Santiago Atitlán	14	Cerro de Oro	9	Septiembre	2023-11-09T00:00:00	2024-11-08T02:00:00	3	Temperatura mínima	18.8
171804	7	Sololá	719	Santiago Atitlán	14	Cerro de Oro	9	Septiembre	2023-11-09T00:00:00	2024-11-08T02:00:00	5	Humedad	76
171805	7	Sololá	719	Santiago Atitlán	14	Cerro de Oro	9	Septiembre	2023-11-09T00:00:00	2024-11-08T02:00:00	6	Velocidad del viento	4.8
171806	7	Sololá	719	Santiago Atitlán	14	Cerro de Oro	9	Septiembre	2023-11-09T00:00:00	2024-11-08T02:00:00	7	Dirección del viento	4.83
171807	7	Sololá	719	Santiago Atitlán	14	Cerro de Oro	9	Septiembre	2023-11-09T00:00:00	2024-11-08T02:00:00	1	Precipitación	0
171808	7	Sololá	719	Santiago Atitlán	14	Cerro de Oro	9	Septiembre	2023-11-09T00:00:00	2024-11-08T02:00:00	8	Radiación solar	0
171809	7	Sololá	719	Santiago Atitlán	14	Cerro de Oro	9	Septiembre	2023-11-09T00:00:00	2024-11-08T03:00:00	2	Temperatura media	19.4
171810	7	Sololá	719	Santiago Atitlán	14	Cerro de Oro	9	Septiembre	2023-11-09T00:00:00	2024-11-08T03:00:00	4	Temperatura máxima	19.9
171811	7	Sololá	719	Santiago Atitlán	14	Cerro de Oro	9	Septiembre	2023-11-09T00:00:00	2024-11-08T03:00:00	3	Temperatura mínima	19.4
171812	7	Sololá	719	Santiago Atitlán	14	Cerro de Oro	9	Septiembre	2023-11-09T00:00:00	2024-11-08T03:00:00	5	Humedad	76
171813	7	Sololá	719	Santiago Atitlán	14	Cerro de Oro	9	Septiembre	2023-11-09T00:00:00	2024-11-08T03:00:00	6	Velocidad del viento	4.8
171814	7	Sololá	719	Santiago Atitlán	14	Cerro de Oro	9	Septiembre	2023-11-09T00:00:00	2024-11-08T03:00:00	7	Dirección del viento	4.83
171815	7	Sololá	719	Santiago Atitlán	14	Cerro de Oro	9	Septiembre	2023-11-09T00:00:00	2024-11-08T03:00:00	1	Precipitación	0
171816	7	Sololá	719	Santiago Atitlán	14	Cerro de Oro	9	Septiembre	2023-11-09T00:00:00	2024-11-08T03:00:00	8	Radiación solar	0
171817	7	Sololá	719	Santiago Atitlán	14	Cerro de Oro	9	Septiembre	2023-11-09T00:00:00	2024-11-08T04:00:00	2	Temperatura media	18.8
171818	7	Sololá	719	Santiago Atitlán	14	Cerro de Oro	9	Septiembre	2023-11-09T00:00:00	2024-11-08T04:00:00	4	Temperatura máxima	19.9
171819	7	Sololá	719	Santiago Atitlán	14	Cerro de Oro	9	Septiembre	2023-11-09T00:00:00	2024-11-08T04:00:00	3	Temperatura mínima	18.7
171820	7	Sololá	719	Santiago Atitlán	14	Cerro de Oro	9	Septiembre	2023-11-09T00:00:00	2024-11-08T04:00:00	5	Humedad	77
171821	7	Sololá	719	Santiago Atitlán	14	Cerro de Oro	9	Septiembre	2023-11-09T00:00:00	2024-11-08T04:00:00	6	Velocidad del viento	4.8
171822	7	Sololá	719	Santiago Atitlán	14	Cerro de Oro	9	Septiembre	2023-11-09T00:00:00	2024-11-08T04:00:00	7	Dirección del viento	4.83
171823	7	Sololá	719	Santiago Atitlán	14	Cerro de Oro	9	Septiembre	2023-11-09T00:00:00	2024-11-08T04:00:00	1	Precipitación	0
171824	7	Sololá	719	Santiago Atitlán	14	Cerro de Oro	9	Septiembre	2023-11-09T00:00:00	2024-11-08T04:00:00	8	Radiación solar	0
171825	7	Sololá	719	Santiago Atitlán	14	Cerro de Oro	9	Septiembre	2023-11-09T00:00:00	2024-11-08T05:00:00	2	Temperatura media	19.8
171826	7	Sololá	719	Santiago Atitlán	14	Cerro de Oro	9	Septiembre	2023-11-09T00:00:00	2024-11-08T05:00:00	4	Temperatura máxima	19.8
171827	7	Sololá	719	Santiago Atitlán	14	Cerro de Oro	9	Septiembre	2023-11-09T00:00:00	2024-11-08T05:00:00	3	Temperatura mínima	18.2
171828	7	Sololá	719	Santiago Atitlán	14	Cerro de Oro	9	Septiembre	2023-11-09T00:00:00	2024-11-08T05:00:00	5	Humedad	74
171829	7	Sololá	719	Santiago Atitlán	14	Cerro de Oro	9	Septiembre	2023-11-09T00:00:00	2024-11-08T05:00:00	6	Velocidad del viento	8
171830	7	Sololá	719	Santiago Atitlán	14	Cerro de Oro	9	Septiembre	2023-11-09T00:00:00	2024-11-08T05:00:00	7	Dirección del viento	8.05
171831	7	Sololá	719	Santiago Atitlán	14	Cerro de Oro	9	Septiembre	2023-11-09T00:00:00	2024-11-08T05:00:00	1	Precipitación	0
171832	7	Sololá	719	Santiago Atitlán	14	Cerro de Oro	9	Septiembre	2023-11-09T00:00:00	2024-11-08T05:00:00	8	Radiación solar	0
171833	7	Sololá	719	Santiago Atitlán	14	Cerro de Oro	9	Septiembre	2023-11-09T00:00:00	2024-11-08T06:00:00	2	Temperatura media	18.6
171834	7	Sololá	719	Santiago Atitlán	14	Cerro de Oro	9	Septiembre	2023-11-09T00:00:00	2024-11-08T06:00:00	4	Temperatura máxima	19.8
171835	7	Sololá	719	Santiago Atitlán	14	Cerro de Oro	9	Septiembre	2023-11-09T00:00:00	2024-11-08T06:00:00	3	Temperatura mínima	18.6
171836	7	Sololá	719	Santiago Atitlán	14	Cerro de Oro	9	Septiembre	2023-11-09T00:00:00	2024-11-08T06:00:00	5	Humedad	77
171837	7	Sololá	719	Santiago Atitlán	14	Cerro de Oro	9	Septiembre	2023-11-09T00:00:00	2024-11-08T06:00:00	6	Velocidad del viento	6.4
171838	7	Sololá	719	Santiago Atitlán	14	Cerro de Oro	9	Septiembre	2023-11-09T00:00:00	2024-11-08T06:00:00	7	Dirección del viento	6.44
171839	7	Sololá	719	Santiago Atitlán	14	Cerro de Oro	9	Septiembre	2023-11-09T00:00:00	2024-11-08T06:00:00	1	Precipitación	0
171840	7	Sololá	719	Santiago Atitlán	14	Cerro de Oro	9	Septiembre	2023-11-09T00:00:00	2024-11-08T06:00:00	8	Radiación solar	1
171841	7	Sololá	719	Santiago Atitlán	14	Cerro de Oro	9	Septiembre	2023-11-09T00:00:00	2024-11-08T07:00:00	2	Temperatura media	19.1
171842	7	Sololá	719	Santiago Atitlán	14	Cerro de Oro	9	Septiembre	2023-11-09T00:00:00	2024-11-08T07:00:00	4	Temperatura máxima	19.1
171843	7	Sololá	719	Santiago Atitlán	14	Cerro de Oro	9	Septiembre	2023-11-09T00:00:00	2024-11-08T07:00:00	3	Temperatura mínima	18.4
171844	7	Sololá	719	Santiago Atitlán	14	Cerro de Oro	9	Septiembre	2023-11-09T00:00:00	2024-11-08T07:00:00	5	Humedad	76
171845	7	Sololá	719	Santiago Atitlán	14	Cerro de Oro	9	Septiembre	2023-11-09T00:00:00	2024-11-08T07:00:00	6	Velocidad del viento	4.8
171846	7	Sololá	719	Santiago Atitlán	14	Cerro de Oro	9	Septiembre	2023-11-09T00:00:00	2024-11-08T07:00:00	7	Dirección del viento	4.83
171847	7	Sololá	719	Santiago Atitlán	14	Cerro de Oro	9	Septiembre	2023-11-09T00:00:00	2024-11-08T07:00:00	1	Precipitación	0
171848	7	Sololá	719	Santiago Atitlán	14	Cerro de Oro	9	Septiembre	2023-11-09T00:00:00	2024-11-08T07:00:00	8	Radiación solar	58
171849	7	Sololá	719	Santiago Atitlán	14	Cerro de Oro	9	Septiembre	2023-11-09T00:00:00	2024-11-08T08:00:00	2	Temperatura media	20.8
171850	7	Sololá	719	Santiago Atitlán	14	Cerro de Oro	9	Septiembre	2023-11-09T00:00:00	2024-11-08T08:00:00	4	Temperatura máxima	20.8
171851	7	Sololá	719	Santiago Atitlán	14	Cerro de Oro	9	Septiembre	2023-11-09T00:00:00	2024-11-08T08:00:00	3	Temperatura mínima	19.2
171852	7	Sololá	719	Santiago Atitlán	14	Cerro de Oro	9	Septiembre	2023-11-09T00:00:00	2024-11-08T08:00:00	5	Humedad	73
171853	7	Sololá	719	Santiago Atitlán	14	Cerro de Oro	9	Septiembre	2023-11-09T00:00:00	2024-11-08T08:00:00	6	Velocidad del viento	3.2
171854	7	Sololá	719	Santiago Atitlán	14	Cerro de Oro	9	Septiembre	2023-11-09T00:00:00	2024-11-08T08:00:00	7	Dirección del viento	3.22
171855	7	Sololá	719	Santiago Atitlán	14	Cerro de Oro	9	Septiembre	2023-11-09T00:00:00	2024-11-08T08:00:00	1	Precipitación	0
171856	7	Sololá	719	Santiago Atitlán	14	Cerro de Oro	9	Septiembre	2023-11-09T00:00:00	2024-11-08T08:00:00	8	Radiación solar	146
171857	7	Sololá	719	Santiago Atitlán	14	Cerro de Oro	9	Septiembre	2023-11-09T00:00:00	2024-11-08T09:00:00	2	Temperatura media	22.8
171858	7	Sololá	719	Santiago Atitlán	14	Cerro de Oro	9	Septiembre	2023-11-09T00:00:00	2024-11-08T09:00:00	4	Temperatura máxima	22.9
171859	7	Sololá	719	Santiago Atitlán	14	Cerro de Oro	9	Septiembre	2023-11-09T00:00:00	2024-11-08T09:00:00	3	Temperatura mínima	20.8
171860	7	Sololá	719	Santiago Atitlán	14	Cerro de Oro	9	Septiembre	2023-11-09T00:00:00	2024-11-08T09:00:00	5	Humedad	68
171861	7	Sololá	719	Santiago Atitlán	14	Cerro de Oro	9	Septiembre	2023-11-09T00:00:00	2024-11-08T09:00:00	6	Velocidad del viento	3.2
171862	7	Sololá	719	Santiago Atitlán	14	Cerro de Oro	9	Septiembre	2023-11-09T00:00:00	2024-11-08T09:00:00	7	Dirección del viento	3.22
171863	7	Sololá	719	Santiago Atitlán	14	Cerro de Oro	9	Septiembre	2023-11-09T00:00:00	2024-11-08T09:00:00	1	Precipitación	0
171864	7	Sololá	719	Santiago Atitlán	14	Cerro de Oro	9	Septiembre	2023-11-09T00:00:00	2024-11-08T09:00:00	8	Radiación solar	426
171865	7	Sololá	719	Santiago Atitlán	14	Cerro de Oro	9	Septiembre	2023-11-09T00:00:00	2024-11-08T10:00:00	2	Temperatura media	23.2
171866	7	Sololá	719	Santiago Atitlán	14	Cerro de Oro	9	Septiembre	2023-11-09T00:00:00	2024-11-08T10:00:00	4	Temperatura máxima	23.3
171867	7	Sololá	719	Santiago Atitlán	14	Cerro de Oro	9	Septiembre	2023-11-09T00:00:00	2024-11-08T10:00:00	3	Temperatura mínima	22.7
171868	7	Sololá	719	Santiago Atitlán	14	Cerro de Oro	9	Septiembre	2023-11-09T00:00:00	2024-11-08T10:00:00	5	Humedad	68
171869	7	Sololá	719	Santiago Atitlán	14	Cerro de Oro	9	Septiembre	2023-11-09T00:00:00	2024-11-08T10:00:00	6	Velocidad del viento	4.8
171870	7	Sololá	719	Santiago Atitlán	14	Cerro de Oro	9	Septiembre	2023-11-09T00:00:00	2024-11-08T10:00:00	7	Dirección del viento	4.83
171871	7	Sololá	719	Santiago Atitlán	14	Cerro de Oro	9	Septiembre	2023-11-09T00:00:00	2024-11-08T10:00:00	1	Precipitación	0
171872	7	Sololá	719	Santiago Atitlán	14	Cerro de Oro	9	Septiembre	2023-11-09T00:00:00	2024-11-08T10:00:00	8	Radiación solar	660
171873	7	Sololá	719	Santiago Atitlán	14	Cerro de Oro	9	Septiembre	2023-11-09T00:00:00	2024-11-08T11:00:00	2	Temperatura media	25.2
171874	7	Sololá	719	Santiago Atitlán	14	Cerro de Oro	9	Septiembre	2023-11-09T00:00:00	2024-11-08T11:00:00	4	Temperatura máxima	25.2
171875	7	Sololá	719	Santiago Atitlán	14	Cerro de Oro	9	Septiembre	2023-11-09T00:00:00	2024-11-08T11:00:00	3	Temperatura mínima	22.9
171876	7	Sololá	719	Santiago Atitlán	14	Cerro de Oro	9	Septiembre	2023-11-09T00:00:00	2024-11-08T11:00:00	5	Humedad	67
171877	7	Sololá	719	Santiago Atitlán	14	Cerro de Oro	9	Septiembre	2023-11-09T00:00:00	2024-11-08T11:00:00	6	Velocidad del viento	6.4
171878	7	Sololá	719	Santiago Atitlán	14	Cerro de Oro	9	Septiembre	2023-11-09T00:00:00	2024-11-08T11:00:00	7	Dirección del viento	6.44
171879	7	Sololá	719	Santiago Atitlán	14	Cerro de Oro	9	Septiembre	2023-11-09T00:00:00	2024-11-08T11:00:00	1	Precipitación	0
171880	7	Sololá	719	Santiago Atitlán	14	Cerro de Oro	9	Septiembre	2023-11-09T00:00:00	2024-11-08T11:00:00	8	Radiación solar	816
171881	7	Sololá	719	Santiago Atitlán	14	Cerro de Oro	9	Septiembre	2023-11-09T00:00:00	2024-11-08T12:00:00	2	Temperatura media	23.9
171882	7	Sololá	719	Santiago Atitlán	14	Cerro de Oro	9	Septiembre	2023-11-09T00:00:00	2024-11-08T12:00:00	4	Temperatura máxima	25.2
171883	7	Sololá	719	Santiago Atitlán	14	Cerro de Oro	9	Septiembre	2023-11-09T00:00:00	2024-11-08T12:00:00	3	Temperatura mínima	23.9
171884	7	Sololá	719	Santiago Atitlán	14	Cerro de Oro	9	Septiembre	2023-11-09T00:00:00	2024-11-08T12:00:00	5	Humedad	76
171885	7	Sololá	719	Santiago Atitlán	14	Cerro de Oro	9	Septiembre	2023-11-09T00:00:00	2024-11-08T12:00:00	6	Velocidad del viento	9.7
171886	7	Sololá	719	Santiago Atitlán	14	Cerro de Oro	9	Septiembre	2023-11-09T00:00:00	2024-11-08T12:00:00	7	Dirección del viento	9.66
171887	7	Sololá	719	Santiago Atitlán	14	Cerro de Oro	9	Septiembre	2023-11-09T00:00:00	2024-11-08T12:00:00	1	Precipitación	0
171888	7	Sololá	719	Santiago Atitlán	14	Cerro de Oro	9	Septiembre	2023-11-09T00:00:00	2024-11-08T12:00:00	8	Radiación solar	981
171889	7	Sololá	719	Santiago Atitlán	14	Cerro de Oro	9	Septiembre	2023-11-09T00:00:00	2024-11-08T13:00:00	2	Temperatura media	24.2
171890	7	Sololá	719	Santiago Atitlán	14	Cerro de Oro	9	Septiembre	2023-11-09T00:00:00	2024-11-08T13:00:00	4	Temperatura máxima	24.3
171891	7	Sololá	719	Santiago Atitlán	14	Cerro de Oro	9	Septiembre	2023-11-09T00:00:00	2024-11-08T13:00:00	3	Temperatura mínima	23.3
171892	7	Sololá	719	Santiago Atitlán	14	Cerro de Oro	9	Septiembre	2023-11-09T00:00:00	2024-11-08T13:00:00	5	Humedad	76
171893	7	Sololá	719	Santiago Atitlán	14	Cerro de Oro	9	Septiembre	2023-11-09T00:00:00	2024-11-08T13:00:00	6	Velocidad del viento	9.7
171894	7	Sololá	719	Santiago Atitlán	14	Cerro de Oro	9	Septiembre	2023-11-09T00:00:00	2024-11-08T13:00:00	7	Dirección del viento	9.66
171895	7	Sololá	719	Santiago Atitlán	14	Cerro de Oro	9	Septiembre	2023-11-09T00:00:00	2024-11-08T13:00:00	1	Precipitación	0
171896	7	Sololá	719	Santiago Atitlán	14	Cerro de Oro	9	Septiembre	2023-11-09T00:00:00	2024-11-08T13:00:00	8	Radiación solar	488
171897	7	Sololá	719	Santiago Atitlán	14	Cerro de Oro	9	Septiembre	2023-11-09T00:00:00	2024-11-08T14:00:00	2	Temperatura media	24.7
171898	7	Sololá	719	Santiago Atitlán	14	Cerro de Oro	9	Septiembre	2023-11-09T00:00:00	2024-11-08T14:00:00	4	Temperatura máxima	24.8
171899	7	Sololá	719	Santiago Atitlán	14	Cerro de Oro	9	Septiembre	2023-11-09T00:00:00	2024-11-08T14:00:00	3	Temperatura mínima	23.4
171900	7	Sololá	719	Santiago Atitlán	14	Cerro de Oro	9	Septiembre	2023-11-09T00:00:00	2024-11-08T14:00:00	5	Humedad	75
171901	7	Sololá	719	Santiago Atitlán	14	Cerro de Oro	9	Septiembre	2023-11-09T00:00:00	2024-11-08T14:00:00	6	Velocidad del viento	11.3
171902	7	Sololá	719	Santiago Atitlán	14	Cerro de Oro	9	Septiembre	2023-11-09T00:00:00	2024-11-08T14:00:00	7	Dirección del viento	11.27
171903	7	Sololá	719	Santiago Atitlán	14	Cerro de Oro	9	Septiembre	2023-11-09T00:00:00	2024-11-08T14:00:00	1	Precipitación	0
171904	7	Sololá	719	Santiago Atitlán	14	Cerro de Oro	9	Septiembre	2023-11-09T00:00:00	2024-11-08T14:00:00	8	Radiación solar	784
171905	7	Sololá	719	Santiago Atitlán	14	Cerro de Oro	9	Septiembre	2023-11-09T00:00:00	2024-11-08T15:00:00	2	Temperatura media	23.6
171906	7	Sololá	719	Santiago Atitlán	14	Cerro de Oro	9	Septiembre	2023-11-09T00:00:00	2024-11-08T15:00:00	4	Temperatura máxima	24.6
171907	7	Sololá	719	Santiago Atitlán	14	Cerro de Oro	9	Septiembre	2023-11-09T00:00:00	2024-11-08T15:00:00	3	Temperatura mínima	23.1
171908	7	Sololá	719	Santiago Atitlán	14	Cerro de Oro	9	Septiembre	2023-11-09T00:00:00	2024-11-08T15:00:00	5	Humedad	78
171909	7	Sololá	719	Santiago Atitlán	14	Cerro de Oro	9	Septiembre	2023-11-09T00:00:00	2024-11-08T15:00:00	6	Velocidad del viento	11.3
171910	7	Sololá	719	Santiago Atitlán	14	Cerro de Oro	9	Septiembre	2023-11-09T00:00:00	2024-11-08T15:00:00	7	Dirección del viento	11.27
171911	7	Sololá	719	Santiago Atitlán	14	Cerro de Oro	9	Septiembre	2023-11-09T00:00:00	2024-11-08T15:00:00	1	Precipitación	0
171912	7	Sololá	719	Santiago Atitlán	14	Cerro de Oro	9	Septiembre	2023-11-09T00:00:00	2024-11-08T15:00:00	8	Radiación solar	486
171913	7	Sololá	719	Santiago Atitlán	14	Cerro de Oro	9	Septiembre	2023-11-09T00:00:00	2024-11-08T16:00:00	2	Temperatura media	21.4
171914	7	Sololá	719	Santiago Atitlán	14	Cerro de Oro	9	Septiembre	2023-11-09T00:00:00	2024-11-08T16:00:00	4	Temperatura máxima	23.6
171915	7	Sololá	719	Santiago Atitlán	14	Cerro de Oro	9	Septiembre	2023-11-09T00:00:00	2024-11-08T16:00:00	3	Temperatura mínima	21.2
171916	7	Sololá	719	Santiago Atitlán	14	Cerro de Oro	9	Septiembre	2023-11-09T00:00:00	2024-11-08T16:00:00	5	Humedad	84
171917	7	Sololá	719	Santiago Atitlán	14	Cerro de Oro	9	Septiembre	2023-11-09T00:00:00	2024-11-08T16:00:00	6	Velocidad del viento	12.9
171918	7	Sololá	719	Santiago Atitlán	14	Cerro de Oro	9	Septiembre	2023-11-09T00:00:00	2024-11-08T16:00:00	7	Dirección del viento	12.87
171919	7	Sololá	719	Santiago Atitlán	14	Cerro de Oro	9	Septiembre	2023-11-09T00:00:00	2024-11-08T16:00:00	1	Precipitación	0
171920	7	Sololá	719	Santiago Atitlán	14	Cerro de Oro	9	Septiembre	2023-11-09T00:00:00	2024-11-08T16:00:00	8	Radiación solar	153
171921	7	Sololá	719	Santiago Atitlán	14	Cerro de Oro	9	Septiembre	2023-11-09T00:00:00	2024-11-08T17:00:00	2	Temperatura media	20.4
171922	7	Sololá	719	Santiago Atitlán	14	Cerro de Oro	9	Septiembre	2023-11-09T00:00:00	2024-11-08T17:00:00	4	Temperatura máxima	21.4
171923	7	Sololá	719	Santiago Atitlán	14	Cerro de Oro	9	Septiembre	2023-11-09T00:00:00	2024-11-08T17:00:00	3	Temperatura mínima	20.3
171924	7	Sololá	719	Santiago Atitlán	14	Cerro de Oro	9	Septiembre	2023-11-09T00:00:00	2024-11-08T17:00:00	5	Humedad	88
171925	7	Sololá	719	Santiago Atitlán	14	Cerro de Oro	9	Septiembre	2023-11-09T00:00:00	2024-11-08T17:00:00	6	Velocidad del viento	11.3
171926	7	Sololá	719	Santiago Atitlán	14	Cerro de Oro	9	Septiembre	2023-11-09T00:00:00	2024-11-08T17:00:00	7	Dirección del viento	11.27
171927	7	Sololá	719	Santiago Atitlán	14	Cerro de Oro	9	Septiembre	2023-11-09T00:00:00	2024-11-08T17:00:00	1	Precipitación	0
171928	7	Sololá	719	Santiago Atitlán	14	Cerro de Oro	9	Septiembre	2023-11-09T00:00:00	2024-11-08T17:00:00	8	Radiación solar	41
171929	7	Sololá	719	Santiago Atitlán	14	Cerro de Oro	9	Septiembre	2023-11-09T00:00:00	2024-11-08T18:00:00	2	Temperatura media	20.4
171930	7	Sololá	719	Santiago Atitlán	14	Cerro de Oro	9	Septiembre	2023-11-09T00:00:00	2024-11-08T18:00:00	4	Temperatura máxima	20.5
171931	7	Sololá	719	Santiago Atitlán	14	Cerro de Oro	9	Septiembre	2023-11-09T00:00:00	2024-11-08T18:00:00	3	Temperatura mínima	20.2
171932	7	Sololá	719	Santiago Atitlán	14	Cerro de Oro	9	Septiembre	2023-11-09T00:00:00	2024-11-08T18:00:00	5	Humedad	85
171933	7	Sololá	719	Santiago Atitlán	14	Cerro de Oro	9	Septiembre	2023-11-09T00:00:00	2024-11-08T18:00:00	6	Velocidad del viento	4.8
171934	7	Sololá	719	Santiago Atitlán	14	Cerro de Oro	9	Septiembre	2023-11-09T00:00:00	2024-11-08T18:00:00	7	Dirección del viento	4.83
171935	7	Sololá	719	Santiago Atitlán	14	Cerro de Oro	9	Septiembre	2023-11-09T00:00:00	2024-11-08T18:00:00	1	Precipitación	0
171936	7	Sololá	719	Santiago Atitlán	14	Cerro de Oro	9	Septiembre	2023-11-09T00:00:00	2024-11-08T18:00:00	8	Radiación solar	13
171937	7	Sololá	719	Santiago Atitlán	14	Cerro de Oro	9	Septiembre	2023-11-09T00:00:00	2024-11-08T19:00:00	2	Temperatura media	20.3
171938	7	Sololá	719	Santiago Atitlán	14	Cerro de Oro	9	Septiembre	2023-11-09T00:00:00	2024-11-08T19:00:00	4	Temperatura máxima	20.4
171939	7	Sololá	719	Santiago Atitlán	14	Cerro de Oro	9	Septiembre	2023-11-09T00:00:00	2024-11-08T19:00:00	3	Temperatura mínima	20.1
171940	7	Sololá	719	Santiago Atitlán	14	Cerro de Oro	9	Septiembre	2023-11-09T00:00:00	2024-11-08T19:00:00	5	Humedad	86
171941	7	Sololá	719	Santiago Atitlán	14	Cerro de Oro	9	Septiembre	2023-11-09T00:00:00	2024-11-08T19:00:00	6	Velocidad del viento	3.2
171942	7	Sololá	719	Santiago Atitlán	14	Cerro de Oro	9	Septiembre	2023-11-09T00:00:00	2024-11-08T19:00:00	7	Dirección del viento	3.22
171943	7	Sololá	719	Santiago Atitlán	14	Cerro de Oro	9	Septiembre	2023-11-09T00:00:00	2024-11-08T19:00:00	1	Precipitación	0
171944	7	Sololá	719	Santiago Atitlán	14	Cerro de Oro	9	Septiembre	2023-11-09T00:00:00	2024-11-08T19:00:00	8	Radiación solar	0
171945	7	Sololá	719	Santiago Atitlán	14	Cerro de Oro	9	Septiembre	2023-11-09T00:00:00	2024-11-08T20:00:00	2	Temperatura media	19.7
171946	7	Sololá	719	Santiago Atitlán	14	Cerro de Oro	9	Septiembre	2023-11-09T00:00:00	2024-11-08T20:00:00	4	Temperatura máxima	20.4
171947	7	Sololá	719	Santiago Atitlán	14	Cerro de Oro	9	Septiembre	2023-11-09T00:00:00	2024-11-08T20:00:00	3	Temperatura mínima	19.6
171948	7	Sololá	719	Santiago Atitlán	14	Cerro de Oro	9	Septiembre	2023-11-09T00:00:00	2024-11-08T20:00:00	5	Humedad	90
171949	7	Sololá	719	Santiago Atitlán	14	Cerro de Oro	9	Septiembre	2023-11-09T00:00:00	2024-11-08T20:00:00	6	Velocidad del viento	1.6
171950	7	Sololá	719	Santiago Atitlán	14	Cerro de Oro	9	Septiembre	2023-11-09T00:00:00	2024-11-08T20:00:00	7	Dirección del viento	1.61
171951	7	Sololá	719	Santiago Atitlán	14	Cerro de Oro	9	Septiembre	2023-11-09T00:00:00	2024-11-08T20:00:00	1	Precipitación	0
171952	7	Sololá	719	Santiago Atitlán	14	Cerro de Oro	9	Septiembre	2023-11-09T00:00:00	2024-11-08T20:00:00	8	Radiación solar	0
171953	7	Sololá	719	Santiago Atitlán	14	Cerro de Oro	9	Septiembre	2023-11-09T00:00:00	2024-11-08T21:00:00	2	Temperatura media	19.3
171954	7	Sololá	719	Santiago Atitlán	14	Cerro de Oro	9	Septiembre	2023-11-09T00:00:00	2024-11-08T21:00:00	4	Temperatura máxima	19.7
171955	7	Sololá	719	Santiago Atitlán	14	Cerro de Oro	9	Septiembre	2023-11-09T00:00:00	2024-11-08T21:00:00	3	Temperatura mínima	19.3
171956	7	Sololá	719	Santiago Atitlán	14	Cerro de Oro	9	Septiembre	2023-11-09T00:00:00	2024-11-08T21:00:00	5	Humedad	90
171957	7	Sololá	719	Santiago Atitlán	14	Cerro de Oro	9	Septiembre	2023-11-09T00:00:00	2024-11-08T21:00:00	6	Velocidad del viento	3.2
171958	7	Sololá	719	Santiago Atitlán	14	Cerro de Oro	9	Septiembre	2023-11-09T00:00:00	2024-11-08T21:00:00	7	Dirección del viento	3.22
171959	7	Sololá	719	Santiago Atitlán	14	Cerro de Oro	9	Septiembre	2023-11-09T00:00:00	2024-11-08T21:00:00	1	Precipitación	0
171960	7	Sololá	719	Santiago Atitlán	14	Cerro de Oro	9	Septiembre	2023-11-09T00:00:00	2024-11-08T21:00:00	8	Radiación solar	0
171961	7	Sololá	719	Santiago Atitlán	14	Cerro de Oro	9	Septiembre	2023-11-09T00:00:00	2024-11-08T22:00:00	2	Temperatura media	19.4
171962	7	Sololá	719	Santiago Atitlán	14	Cerro de Oro	9	Septiembre	2023-11-09T00:00:00	2024-11-08T22:00:00	4	Temperatura máxima	19.5
171963	7	Sololá	719	Santiago Atitlán	14	Cerro de Oro	9	Septiembre	2023-11-09T00:00:00	2024-11-08T22:00:00	3	Temperatura mínima	19.2
171964	7	Sololá	719	Santiago Atitlán	14	Cerro de Oro	9	Septiembre	2023-11-09T00:00:00	2024-11-08T22:00:00	5	Humedad	85
171965	7	Sololá	719	Santiago Atitlán	14	Cerro de Oro	9	Septiembre	2023-11-09T00:00:00	2024-11-08T22:00:00	6	Velocidad del viento	3.2
171966	7	Sololá	719	Santiago Atitlán	14	Cerro de Oro	9	Septiembre	2023-11-09T00:00:00	2024-11-08T22:00:00	7	Dirección del viento	3.22
171967	7	Sololá	719	Santiago Atitlán	14	Cerro de Oro	9	Septiembre	2023-11-09T00:00:00	2024-11-08T22:00:00	1	Precipitación	0
171968	7	Sololá	719	Santiago Atitlán	14	Cerro de Oro	9	Septiembre	2023-11-09T00:00:00	2024-11-08T22:00:00	8	Radiación solar	0
171969	7	Sololá	719	Santiago Atitlán	14	Cerro de Oro	9	Septiembre	2023-11-09T00:00:00	2024-11-08T23:00:00	2	Temperatura media	19.7
171970	7	Sololá	719	Santiago Atitlán	14	Cerro de Oro	9	Septiembre	2023-11-09T00:00:00	2024-11-08T23:00:00	4	Temperatura máxima	19.9
171971	7	Sololá	719	Santiago Atitlán	14	Cerro de Oro	9	Septiembre	2023-11-09T00:00:00	2024-11-08T23:00:00	3	Temperatura mínima	19.2
171972	7	Sololá	719	Santiago Atitlán	14	Cerro de Oro	9	Septiembre	2023-11-09T00:00:00	2024-11-08T23:00:00	5	Humedad	80
171973	7	Sololá	719	Santiago Atitlán	14	Cerro de Oro	9	Septiembre	2023-11-09T00:00:00	2024-11-08T23:00:00	6	Velocidad del viento	4.8
171974	7	Sololá	719	Santiago Atitlán	14	Cerro de Oro	9	Septiembre	2023-11-09T00:00:00	2024-11-08T23:00:00	7	Dirección del viento	4.83
171975	7	Sololá	719	Santiago Atitlán	14	Cerro de Oro	9	Septiembre	2023-11-09T00:00:00	2024-11-08T23:00:00	1	Precipitación	0
171976	7	Sololá	719	Santiago Atitlán	14	Cerro de Oro	9	Septiembre	2023-11-09T00:00:00	2024-11-08T23:00:00	8	Radiación solar	0
171977	7	Sololá	719	Santiago Atitlán	14	Cerro de Oro	9	Septiembre	2023-12-09T00:00:00	2024-11-08T00:00:00	2	Temperatura media	18.9
171978	7	Sololá	719	Santiago Atitlán	14	Cerro de Oro	9	Septiembre	2023-12-09T00:00:00	2024-11-08T00:00:00	4	Temperatura máxima	19.8
171979	7	Sololá	719	Santiago Atitlán	14	Cerro de Oro	9	Septiembre	2023-12-09T00:00:00	2024-11-08T00:00:00	3	Temperatura mínima	18.9
171980	7	Sololá	719	Santiago Atitlán	14	Cerro de Oro	9	Septiembre	2023-12-09T00:00:00	2024-11-08T00:00:00	5	Humedad	82
171981	7	Sololá	719	Santiago Atitlán	14	Cerro de Oro	9	Septiembre	2023-12-09T00:00:00	2024-11-08T00:00:00	6	Velocidad del viento	4.8
171982	7	Sololá	719	Santiago Atitlán	14	Cerro de Oro	9	Septiembre	2023-12-09T00:00:00	2024-11-08T00:00:00	7	Dirección del viento	4.83
171983	7	Sololá	719	Santiago Atitlán	14	Cerro de Oro	9	Septiembre	2023-12-09T00:00:00	2024-11-08T00:00:00	1	Precipitación	0
171984	7	Sololá	719	Santiago Atitlán	14	Cerro de Oro	9	Septiembre	2023-12-09T00:00:00	2024-11-08T00:00:00	8	Radiación solar	0
171985	7	Sololá	719	Santiago Atitlán	14	Cerro de Oro	9	Septiembre	2023-12-09T00:00:00	2024-11-08T01:00:00	2	Temperatura media	19.1
171986	7	Sololá	719	Santiago Atitlán	14	Cerro de Oro	9	Septiembre	2023-12-09T00:00:00	2024-11-08T01:00:00	4	Temperatura máxima	19.5
171987	7	Sololá	719	Santiago Atitlán	14	Cerro de Oro	9	Septiembre	2023-12-09T00:00:00	2024-11-08T01:00:00	3	Temperatura mínima	18.8
171988	7	Sololá	719	Santiago Atitlán	14	Cerro de Oro	9	Septiembre	2023-12-09T00:00:00	2024-11-08T01:00:00	5	Humedad	82
171989	7	Sololá	719	Santiago Atitlán	14	Cerro de Oro	9	Septiembre	2023-12-09T00:00:00	2024-11-08T01:00:00	6	Velocidad del viento	3.2
171990	7	Sololá	719	Santiago Atitlán	14	Cerro de Oro	9	Septiembre	2023-12-09T00:00:00	2024-11-08T01:00:00	7	Dirección del viento	3.22
171991	7	Sololá	719	Santiago Atitlán	14	Cerro de Oro	9	Septiembre	2023-12-09T00:00:00	2024-11-08T01:00:00	1	Precipitación	0
171992	7	Sololá	719	Santiago Atitlán	14	Cerro de Oro	9	Septiembre	2023-12-09T00:00:00	2024-11-08T01:00:00	8	Radiación solar	0
171993	7	Sololá	719	Santiago Atitlán	14	Cerro de Oro	9	Septiembre	2023-12-09T00:00:00	2024-11-08T02:00:00	2	Temperatura media	18.8
171994	7	Sololá	719	Santiago Atitlán	14	Cerro de Oro	9	Septiembre	2023-12-09T00:00:00	2024-11-08T02:00:00	4	Temperatura máxima	19.1
171995	7	Sololá	719	Santiago Atitlán	14	Cerro de Oro	9	Septiembre	2023-12-09T00:00:00	2024-11-08T02:00:00	3	Temperatura mínima	18.5
171996	7	Sololá	719	Santiago Atitlán	14	Cerro de Oro	9	Septiembre	2023-12-09T00:00:00	2024-11-08T02:00:00	5	Humedad	80
171997	7	Sololá	719	Santiago Atitlán	14	Cerro de Oro	9	Septiembre	2023-12-09T00:00:00	2024-11-08T02:00:00	6	Velocidad del viento	4.8
171998	7	Sololá	719	Santiago Atitlán	14	Cerro de Oro	9	Septiembre	2023-12-09T00:00:00	2024-11-08T02:00:00	7	Dirección del viento	4.83
171999	7	Sololá	719	Santiago Atitlán	14	Cerro de Oro	9	Septiembre	2023-12-09T00:00:00	2024-11-08T02:00:00	1	Precipitación	0
172000	7	Sololá	719	Santiago Atitlán	14	Cerro de Oro	9	Septiembre	2023-12-09T00:00:00	2024-11-08T02:00:00	8	Radiación solar	0
172001	7	Sololá	719	Santiago Atitlán	14	Cerro de Oro	9	Septiembre	2023-12-09T00:00:00	2024-11-08T03:00:00	2	Temperatura media	18.7
172002	7	Sololá	719	Santiago Atitlán	14	Cerro de Oro	9	Septiembre	2023-12-09T00:00:00	2024-11-08T03:00:00	4	Temperatura máxima	19.1
172003	7	Sololá	719	Santiago Atitlán	14	Cerro de Oro	9	Septiembre	2023-12-09T00:00:00	2024-11-08T03:00:00	3	Temperatura mínima	18.6
172004	7	Sololá	719	Santiago Atitlán	14	Cerro de Oro	9	Septiembre	2023-12-09T00:00:00	2024-11-08T03:00:00	5	Humedad	80
172005	7	Sololá	719	Santiago Atitlán	14	Cerro de Oro	9	Septiembre	2023-12-09T00:00:00	2024-11-08T03:00:00	6	Velocidad del viento	4.8
172006	7	Sololá	719	Santiago Atitlán	14	Cerro de Oro	9	Septiembre	2023-12-09T00:00:00	2024-11-08T03:00:00	7	Dirección del viento	4.83
172007	7	Sololá	719	Santiago Atitlán	14	Cerro de Oro	9	Septiembre	2023-12-09T00:00:00	2024-11-08T03:00:00	1	Precipitación	0
172008	7	Sololá	719	Santiago Atitlán	14	Cerro de Oro	9	Septiembre	2023-12-09T00:00:00	2024-11-08T03:00:00	8	Radiación solar	0
172009	7	Sololá	719	Santiago Atitlán	14	Cerro de Oro	9	Septiembre	2023-12-09T00:00:00	2024-11-08T04:00:00	2	Temperatura media	18.5
172010	7	Sololá	719	Santiago Atitlán	14	Cerro de Oro	9	Septiembre	2023-12-09T00:00:00	2024-11-08T04:00:00	4	Temperatura máxima	19
172011	7	Sololá	719	Santiago Atitlán	14	Cerro de Oro	9	Septiembre	2023-12-09T00:00:00	2024-11-08T04:00:00	3	Temperatura mínima	18.4
172012	7	Sololá	719	Santiago Atitlán	14	Cerro de Oro	9	Septiembre	2023-12-09T00:00:00	2024-11-08T04:00:00	5	Humedad	86
172013	7	Sololá	719	Santiago Atitlán	14	Cerro de Oro	9	Septiembre	2023-12-09T00:00:00	2024-11-08T04:00:00	6	Velocidad del viento	4.8
172014	7	Sololá	719	Santiago Atitlán	14	Cerro de Oro	9	Septiembre	2023-12-09T00:00:00	2024-11-08T04:00:00	7	Dirección del viento	4.83
172015	7	Sololá	719	Santiago Atitlán	14	Cerro de Oro	9	Septiembre	2023-12-09T00:00:00	2024-11-08T04:00:00	1	Precipitación	0
172016	7	Sololá	719	Santiago Atitlán	14	Cerro de Oro	9	Septiembre	2023-12-09T00:00:00	2024-11-08T04:00:00	8	Radiación solar	0
172017	7	Sololá	719	Santiago Atitlán	14	Cerro de Oro	9	Septiembre	2023-12-09T00:00:00	2024-11-08T05:00:00	2	Temperatura media	17.9
172018	7	Sololá	719	Santiago Atitlán	14	Cerro de Oro	9	Septiembre	2023-12-09T00:00:00	2024-11-08T05:00:00	4	Temperatura máxima	18.6
172019	7	Sololá	719	Santiago Atitlán	14	Cerro de Oro	9	Septiembre	2023-12-09T00:00:00	2024-11-08T05:00:00	3	Temperatura mínima	17.9
172020	7	Sololá	719	Santiago Atitlán	14	Cerro de Oro	9	Septiembre	2023-12-09T00:00:00	2024-11-08T05:00:00	5	Humedad	85
172021	7	Sololá	719	Santiago Atitlán	14	Cerro de Oro	9	Septiembre	2023-12-09T00:00:00	2024-11-08T05:00:00	6	Velocidad del viento	4.8
172022	7	Sololá	719	Santiago Atitlán	14	Cerro de Oro	9	Septiembre	2023-12-09T00:00:00	2024-11-08T05:00:00	7	Dirección del viento	4.83
172023	7	Sololá	719	Santiago Atitlán	14	Cerro de Oro	9	Septiembre	2023-12-09T00:00:00	2024-11-08T05:00:00	1	Precipitación	0
172024	7	Sololá	719	Santiago Atitlán	14	Cerro de Oro	9	Septiembre	2023-12-09T00:00:00	2024-11-08T05:00:00	8	Radiación solar	0
172025	7	Sololá	719	Santiago Atitlán	14	Cerro de Oro	9	Septiembre	2023-12-09T00:00:00	2024-11-08T06:00:00	2	Temperatura media	18.4
172026	7	Sololá	719	Santiago Atitlán	14	Cerro de Oro	9	Septiembre	2023-12-09T00:00:00	2024-11-08T06:00:00	4	Temperatura máxima	18.4
172027	7	Sololá	719	Santiago Atitlán	14	Cerro de Oro	9	Septiembre	2023-12-09T00:00:00	2024-11-08T06:00:00	3	Temperatura mínima	17.8
172028	7	Sololá	719	Santiago Atitlán	14	Cerro de Oro	9	Septiembre	2023-12-09T00:00:00	2024-11-08T06:00:00	5	Humedad	83
172029	7	Sololá	719	Santiago Atitlán	14	Cerro de Oro	9	Septiembre	2023-12-09T00:00:00	2024-11-08T06:00:00	6	Velocidad del viento	3.2
172030	7	Sololá	719	Santiago Atitlán	14	Cerro de Oro	9	Septiembre	2023-12-09T00:00:00	2024-11-08T06:00:00	7	Dirección del viento	3.22
172031	7	Sololá	719	Santiago Atitlán	14	Cerro de Oro	9	Septiembre	2023-12-09T00:00:00	2024-11-08T06:00:00	1	Precipitación	0
172032	7	Sololá	719	Santiago Atitlán	14	Cerro de Oro	9	Septiembre	2023-12-09T00:00:00	2024-11-08T06:00:00	8	Radiación solar	1
172033	7	Sololá	719	Santiago Atitlán	14	Cerro de Oro	9	Septiembre	2023-12-09T00:00:00	2024-11-08T07:00:00	2	Temperatura media	20.8
172034	7	Sololá	719	Santiago Atitlán	14	Cerro de Oro	9	Septiembre	2023-12-09T00:00:00	2024-11-08T07:00:00	4	Temperatura máxima	20.8
172035	7	Sololá	719	Santiago Atitlán	14	Cerro de Oro	9	Septiembre	2023-12-09T00:00:00	2024-11-08T07:00:00	3	Temperatura mínima	18.2
172036	7	Sololá	719	Santiago Atitlán	14	Cerro de Oro	9	Septiembre	2023-12-09T00:00:00	2024-11-08T07:00:00	5	Humedad	72
172037	7	Sololá	719	Santiago Atitlán	14	Cerro de Oro	9	Septiembre	2023-12-09T00:00:00	2024-11-08T07:00:00	6	Velocidad del viento	3.2
172038	7	Sololá	719	Santiago Atitlán	14	Cerro de Oro	9	Septiembre	2023-12-09T00:00:00	2024-11-08T07:00:00	7	Dirección del viento	3.22
172039	7	Sololá	719	Santiago Atitlán	14	Cerro de Oro	9	Septiembre	2023-12-09T00:00:00	2024-11-08T07:00:00	1	Precipitación	0
172040	7	Sololá	719	Santiago Atitlán	14	Cerro de Oro	9	Septiembre	2023-12-09T00:00:00	2024-11-08T07:00:00	8	Radiación solar	67
172041	7	Sololá	719	Santiago Atitlán	14	Cerro de Oro	9	Septiembre	2023-12-09T00:00:00	2024-11-08T08:00:00	2	Temperatura media	22
172042	7	Sololá	719	Santiago Atitlán	14	Cerro de Oro	9	Septiembre	2023-12-09T00:00:00	2024-11-08T08:00:00	4	Temperatura máxima	22
172043	7	Sololá	719	Santiago Atitlán	14	Cerro de Oro	9	Septiembre	2023-12-09T00:00:00	2024-11-08T08:00:00	3	Temperatura mínima	20.8
172044	7	Sololá	719	Santiago Atitlán	14	Cerro de Oro	9	Septiembre	2023-12-09T00:00:00	2024-11-08T08:00:00	5	Humedad	69
172045	7	Sololá	719	Santiago Atitlán	14	Cerro de Oro	9	Septiembre	2023-12-09T00:00:00	2024-11-08T08:00:00	6	Velocidad del viento	3.2
172046	7	Sololá	719	Santiago Atitlán	14	Cerro de Oro	9	Septiembre	2023-12-09T00:00:00	2024-11-08T08:00:00	7	Dirección del viento	3.22
172047	7	Sololá	719	Santiago Atitlán	14	Cerro de Oro	9	Septiembre	2023-12-09T00:00:00	2024-11-08T08:00:00	1	Precipitación	0
172048	7	Sololá	719	Santiago Atitlán	14	Cerro de Oro	9	Septiembre	2023-12-09T00:00:00	2024-11-08T08:00:00	8	Radiación solar	222
172049	7	Sololá	719	Santiago Atitlán	14	Cerro de Oro	9	Septiembre	2023-12-09T00:00:00	2024-11-08T09:00:00	2	Temperatura media	23.1
172050	7	Sololá	719	Santiago Atitlán	14	Cerro de Oro	9	Septiembre	2023-12-09T00:00:00	2024-11-08T09:00:00	4	Temperatura máxima	23.1
172051	7	Sololá	719	Santiago Atitlán	14	Cerro de Oro	9	Septiembre	2023-12-09T00:00:00	2024-11-08T09:00:00	3	Temperatura mínima	22
172052	7	Sololá	719	Santiago Atitlán	14	Cerro de Oro	9	Septiembre	2023-12-09T00:00:00	2024-11-08T09:00:00	5	Humedad	66
172053	7	Sololá	719	Santiago Atitlán	14	Cerro de Oro	9	Septiembre	2023-12-09T00:00:00	2024-11-08T09:00:00	6	Velocidad del viento	3.2
172054	7	Sololá	719	Santiago Atitlán	14	Cerro de Oro	9	Septiembre	2023-12-09T00:00:00	2024-11-08T09:00:00	7	Dirección del viento	3.22
172055	7	Sololá	719	Santiago Atitlán	14	Cerro de Oro	9	Septiembre	2023-12-09T00:00:00	2024-11-08T09:00:00	1	Precipitación	0
172056	7	Sololá	719	Santiago Atitlán	14	Cerro de Oro	9	Septiembre	2023-12-09T00:00:00	2024-11-08T09:00:00	8	Radiación solar	392
172057	7	Sololá	719	Santiago Atitlán	14	Cerro de Oro	9	Septiembre	2023-12-09T00:00:00	2024-11-08T10:00:00	2	Temperatura media	23.2
172058	7	Sololá	719	Santiago Atitlán	14	Cerro de Oro	9	Septiembre	2023-12-09T00:00:00	2024-11-08T10:00:00	4	Temperatura máxima	23.4
172059	7	Sololá	719	Santiago Atitlán	14	Cerro de Oro	9	Septiembre	2023-12-09T00:00:00	2024-11-08T10:00:00	3	Temperatura mínima	23
172060	7	Sololá	719	Santiago Atitlán	14	Cerro de Oro	9	Septiembre	2023-12-09T00:00:00	2024-11-08T10:00:00	5	Humedad	68
172061	7	Sololá	719	Santiago Atitlán	14	Cerro de Oro	9	Septiembre	2023-12-09T00:00:00	2024-11-08T10:00:00	6	Velocidad del viento	4.8
172062	7	Sololá	719	Santiago Atitlán	14	Cerro de Oro	9	Septiembre	2023-12-09T00:00:00	2024-11-08T10:00:00	7	Dirección del viento	4.83
172063	7	Sololá	719	Santiago Atitlán	14	Cerro de Oro	9	Septiembre	2023-12-09T00:00:00	2024-11-08T10:00:00	1	Precipitación	0
172064	7	Sololá	719	Santiago Atitlán	14	Cerro de Oro	9	Septiembre	2023-12-09T00:00:00	2024-11-08T10:00:00	8	Radiación solar	670
172065	7	Sololá	719	Santiago Atitlán	14	Cerro de Oro	9	Septiembre	2023-12-09T00:00:00	2024-11-08T11:00:00	2	Temperatura media	23.9
172066	7	Sololá	719	Santiago Atitlán	14	Cerro de Oro	9	Septiembre	2023-12-09T00:00:00	2024-11-08T11:00:00	4	Temperatura máxima	25.2
172067	7	Sololá	719	Santiago Atitlán	14	Cerro de Oro	9	Septiembre	2023-12-09T00:00:00	2024-11-08T11:00:00	3	Temperatura mínima	23.2
172068	7	Sololá	719	Santiago Atitlán	14	Cerro de Oro	9	Septiembre	2023-12-09T00:00:00	2024-11-08T11:00:00	5	Humedad	72
172069	7	Sololá	719	Santiago Atitlán	14	Cerro de Oro	9	Septiembre	2023-12-09T00:00:00	2024-11-08T11:00:00	6	Velocidad del viento	8
172070	7	Sololá	719	Santiago Atitlán	14	Cerro de Oro	9	Septiembre	2023-12-09T00:00:00	2024-11-08T11:00:00	7	Dirección del viento	8.05
172071	7	Sololá	719	Santiago Atitlán	14	Cerro de Oro	9	Septiembre	2023-12-09T00:00:00	2024-11-08T11:00:00	1	Precipitación	0
172072	7	Sololá	719	Santiago Atitlán	14	Cerro de Oro	9	Septiembre	2023-12-09T00:00:00	2024-11-08T11:00:00	8	Radiación solar	841
172073	7	Sololá	719	Santiago Atitlán	14	Cerro de Oro	9	Septiembre	2023-12-09T00:00:00	2024-11-08T12:00:00	2	Temperatura media	24.3
172074	7	Sololá	719	Santiago Atitlán	14	Cerro de Oro	9	Septiembre	2023-12-09T00:00:00	2024-11-08T12:00:00	4	Temperatura máxima	24.8
172075	7	Sololá	719	Santiago Atitlán	14	Cerro de Oro	9	Septiembre	2023-12-09T00:00:00	2024-11-08T12:00:00	3	Temperatura mínima	23.5
172076	7	Sololá	719	Santiago Atitlán	14	Cerro de Oro	9	Septiembre	2023-12-09T00:00:00	2024-11-08T12:00:00	5	Humedad	74
172077	7	Sololá	719	Santiago Atitlán	14	Cerro de Oro	9	Septiembre	2023-12-09T00:00:00	2024-11-08T12:00:00	6	Velocidad del viento	11.3
172078	7	Sololá	719	Santiago Atitlán	14	Cerro de Oro	9	Septiembre	2023-12-09T00:00:00	2024-11-08T12:00:00	7	Dirección del viento	11.27
172079	7	Sololá	719	Santiago Atitlán	14	Cerro de Oro	9	Septiembre	2023-12-09T00:00:00	2024-11-08T12:00:00	1	Precipitación	0
172080	7	Sololá	719	Santiago Atitlán	14	Cerro de Oro	9	Septiembre	2023-12-09T00:00:00	2024-11-08T12:00:00	8	Radiación solar	972
172081	7	Sololá	719	Santiago Atitlán	14	Cerro de Oro	9	Septiembre	2023-12-09T00:00:00	2024-11-08T13:00:00	2	Temperatura media	24.6
172082	7	Sololá	719	Santiago Atitlán	14	Cerro de Oro	9	Septiembre	2023-12-09T00:00:00	2024-11-08T13:00:00	4	Temperatura máxima	25.1
172083	7	Sololá	719	Santiago Atitlán	14	Cerro de Oro	9	Septiembre	2023-12-09T00:00:00	2024-11-08T13:00:00	3	Temperatura mínima	24
172084	7	Sololá	719	Santiago Atitlán	14	Cerro de Oro	9	Septiembre	2023-12-09T00:00:00	2024-11-08T13:00:00	5	Humedad	74
172085	7	Sololá	719	Santiago Atitlán	14	Cerro de Oro	9	Septiembre	2023-12-09T00:00:00	2024-11-08T13:00:00	6	Velocidad del viento	11.3
172086	7	Sololá	719	Santiago Atitlán	14	Cerro de Oro	9	Septiembre	2023-12-09T00:00:00	2024-11-08T13:00:00	7	Dirección del viento	11.27
172087	7	Sololá	719	Santiago Atitlán	14	Cerro de Oro	9	Septiembre	2023-12-09T00:00:00	2024-11-08T13:00:00	1	Precipitación	0
172088	7	Sololá	719	Santiago Atitlán	14	Cerro de Oro	9	Septiembre	2023-12-09T00:00:00	2024-11-08T13:00:00	8	Radiación solar	939
172089	7	Sololá	719	Santiago Atitlán	14	Cerro de Oro	9	Septiembre	2023-12-09T00:00:00	2024-11-08T14:00:00	2	Temperatura media	23.7
172090	7	Sololá	719	Santiago Atitlán	14	Cerro de Oro	9	Septiembre	2023-12-09T00:00:00	2024-11-08T14:00:00	4	Temperatura máxima	24.8
172091	7	Sololá	719	Santiago Atitlán	14	Cerro de Oro	9	Septiembre	2023-12-09T00:00:00	2024-11-08T14:00:00	3	Temperatura mínima	23.7
172092	7	Sololá	719	Santiago Atitlán	14	Cerro de Oro	9	Septiembre	2023-12-09T00:00:00	2024-11-08T14:00:00	5	Humedad	78
172093	7	Sololá	719	Santiago Atitlán	14	Cerro de Oro	9	Septiembre	2023-12-09T00:00:00	2024-11-08T14:00:00	6	Velocidad del viento	11.3
172094	7	Sololá	719	Santiago Atitlán	14	Cerro de Oro	9	Septiembre	2023-12-09T00:00:00	2024-11-08T14:00:00	7	Dirección del viento	11.27
172095	7	Sololá	719	Santiago Atitlán	14	Cerro de Oro	9	Septiembre	2023-12-09T00:00:00	2024-11-08T14:00:00	1	Precipitación	0
172096	7	Sololá	719	Santiago Atitlán	14	Cerro de Oro	9	Septiembre	2023-12-09T00:00:00	2024-11-08T14:00:00	8	Radiación solar	882
172097	7	Sololá	719	Santiago Atitlán	14	Cerro de Oro	9	Septiembre	2023-12-09T00:00:00	2024-11-08T15:00:00	2	Temperatura media	23.4
172098	7	Sololá	719	Santiago Atitlán	14	Cerro de Oro	9	Septiembre	2023-12-09T00:00:00	2024-11-08T15:00:00	4	Temperatura máxima	24.2
172099	7	Sololá	719	Santiago Atitlán	14	Cerro de Oro	9	Septiembre	2023-12-09T00:00:00	2024-11-08T15:00:00	3	Temperatura mínima	23
172100	7	Sololá	719	Santiago Atitlán	14	Cerro de Oro	9	Septiembre	2023-12-09T00:00:00	2024-11-08T15:00:00	5	Humedad	78
172101	7	Sololá	719	Santiago Atitlán	14	Cerro de Oro	9	Septiembre	2023-12-09T00:00:00	2024-11-08T15:00:00	6	Velocidad del viento	11.3
172102	7	Sololá	719	Santiago Atitlán	14	Cerro de Oro	9	Septiembre	2023-12-09T00:00:00	2024-11-08T15:00:00	7	Dirección del viento	11.27
172103	7	Sololá	719	Santiago Atitlán	14	Cerro de Oro	9	Septiembre	2023-12-09T00:00:00	2024-11-08T15:00:00	1	Precipitación	0
172104	7	Sololá	719	Santiago Atitlán	14	Cerro de Oro	9	Septiembre	2023-12-09T00:00:00	2024-11-08T15:00:00	8	Radiación solar	601
172105	7	Sololá	719	Santiago Atitlán	14	Cerro de Oro	9	Septiembre	2023-12-09T00:00:00	2024-11-08T16:00:00	2	Temperatura media	22.4
172106	7	Sololá	719	Santiago Atitlán	14	Cerro de Oro	9	Septiembre	2023-12-09T00:00:00	2024-11-08T16:00:00	4	Temperatura máxima	23.6
172107	7	Sololá	719	Santiago Atitlán	14	Cerro de Oro	9	Septiembre	2023-12-09T00:00:00	2024-11-08T16:00:00	3	Temperatura mínima	22.4
172108	7	Sololá	719	Santiago Atitlán	14	Cerro de Oro	9	Septiembre	2023-12-09T00:00:00	2024-11-08T16:00:00	5	Humedad	81
172109	7	Sololá	719	Santiago Atitlán	14	Cerro de Oro	9	Septiembre	2023-12-09T00:00:00	2024-11-08T16:00:00	6	Velocidad del viento	9.7
172110	7	Sololá	719	Santiago Atitlán	14	Cerro de Oro	9	Septiembre	2023-12-09T00:00:00	2024-11-08T16:00:00	7	Dirección del viento	9.66
172111	7	Sololá	719	Santiago Atitlán	14	Cerro de Oro	9	Septiembre	2023-12-09T00:00:00	2024-11-08T16:00:00	1	Precipitación	0
172112	7	Sololá	719	Santiago Atitlán	14	Cerro de Oro	9	Septiembre	2023-12-09T00:00:00	2024-11-08T16:00:00	8	Radiación solar	347
172113	7	Sololá	719	Santiago Atitlán	14	Cerro de Oro	9	Septiembre	2023-12-09T00:00:00	2024-11-08T17:00:00	2	Temperatura media	21.2
172114	7	Sololá	719	Santiago Atitlán	14	Cerro de Oro	9	Septiembre	2023-12-09T00:00:00	2024-11-08T17:00:00	4	Temperatura máxima	22.7
172115	7	Sololá	719	Santiago Atitlán	14	Cerro de Oro	9	Septiembre	2023-12-09T00:00:00	2024-11-08T17:00:00	3	Temperatura mínima	21.2
172116	7	Sololá	719	Santiago Atitlán	14	Cerro de Oro	9	Septiembre	2023-12-09T00:00:00	2024-11-08T17:00:00	5	Humedad	87
172117	7	Sololá	719	Santiago Atitlán	14	Cerro de Oro	9	Septiembre	2023-12-09T00:00:00	2024-11-08T17:00:00	6	Velocidad del viento	9.7
172118	7	Sololá	719	Santiago Atitlán	14	Cerro de Oro	9	Septiembre	2023-12-09T00:00:00	2024-11-08T17:00:00	7	Dirección del viento	9.66
172119	7	Sololá	719	Santiago Atitlán	14	Cerro de Oro	9	Septiembre	2023-12-09T00:00:00	2024-11-08T17:00:00	1	Precipitación	0
172120	7	Sololá	719	Santiago Atitlán	14	Cerro de Oro	9	Septiembre	2023-12-09T00:00:00	2024-11-08T17:00:00	8	Radiación solar	134
172121	7	Sololá	719	Santiago Atitlán	14	Cerro de Oro	9	Septiembre	2023-12-09T00:00:00	2024-11-08T18:00:00	2	Temperatura media	20.4
172122	7	Sololá	719	Santiago Atitlán	14	Cerro de Oro	9	Septiembre	2023-12-09T00:00:00	2024-11-08T18:00:00	4	Temperatura máxima	21.2
172123	7	Sololá	719	Santiago Atitlán	14	Cerro de Oro	9	Septiembre	2023-12-09T00:00:00	2024-11-08T18:00:00	3	Temperatura mínima	20.4
172124	7	Sololá	719	Santiago Atitlán	14	Cerro de Oro	9	Septiembre	2023-12-09T00:00:00	2024-11-08T18:00:00	5	Humedad	88
172125	7	Sololá	719	Santiago Atitlán	14	Cerro de Oro	9	Septiembre	2023-12-09T00:00:00	2024-11-08T18:00:00	6	Velocidad del viento	8
172126	7	Sololá	719	Santiago Atitlán	14	Cerro de Oro	9	Septiembre	2023-12-09T00:00:00	2024-11-08T18:00:00	7	Dirección del viento	8.05
172127	7	Sololá	719	Santiago Atitlán	14	Cerro de Oro	9	Septiembre	2023-12-09T00:00:00	2024-11-08T18:00:00	1	Precipitación	0
172128	7	Sololá	719	Santiago Atitlán	14	Cerro de Oro	9	Septiembre	2023-12-09T00:00:00	2024-11-08T18:00:00	8	Radiación solar	46
172129	7	Sololá	719	Santiago Atitlán	14	Cerro de Oro	9	Septiembre	2023-12-09T00:00:00	2024-11-08T19:00:00	2	Temperatura media	20.8
172130	7	Sololá	719	Santiago Atitlán	14	Cerro de Oro	9	Septiembre	2023-12-09T00:00:00	2024-11-08T19:00:00	4	Temperatura máxima	20.8
172131	7	Sololá	719	Santiago Atitlán	14	Cerro de Oro	9	Septiembre	2023-12-09T00:00:00	2024-11-08T19:00:00	3	Temperatura mínima	20.3
172132	7	Sololá	719	Santiago Atitlán	14	Cerro de Oro	9	Septiembre	2023-12-09T00:00:00	2024-11-08T19:00:00	5	Humedad	84
172133	7	Sololá	719	Santiago Atitlán	14	Cerro de Oro	9	Septiembre	2023-12-09T00:00:00	2024-11-08T19:00:00	6	Velocidad del viento	4.8
172134	7	Sololá	719	Santiago Atitlán	14	Cerro de Oro	9	Septiembre	2023-12-09T00:00:00	2024-11-08T19:00:00	7	Dirección del viento	4.83
172135	7	Sololá	719	Santiago Atitlán	14	Cerro de Oro	9	Septiembre	2023-12-09T00:00:00	2024-11-08T19:00:00	1	Precipitación	0
172136	7	Sololá	719	Santiago Atitlán	14	Cerro de Oro	9	Septiembre	2023-12-09T00:00:00	2024-11-08T19:00:00	8	Radiación solar	0
172137	7	Sololá	719	Santiago Atitlán	14	Cerro de Oro	9	Septiembre	2023-12-09T00:00:00	2024-11-08T20:00:00	2	Temperatura media	19.3
172138	7	Sololá	719	Santiago Atitlán	14	Cerro de Oro	9	Septiembre	2023-12-09T00:00:00	2024-11-08T20:00:00	4	Temperatura máxima	20.8
172139	7	Sololá	719	Santiago Atitlán	14	Cerro de Oro	9	Septiembre	2023-12-09T00:00:00	2024-11-08T20:00:00	3	Temperatura mínima	19.2
172140	7	Sololá	719	Santiago Atitlán	14	Cerro de Oro	9	Septiembre	2023-12-09T00:00:00	2024-11-08T20:00:00	5	Humedad	90
172141	7	Sololá	719	Santiago Atitlán	14	Cerro de Oro	9	Septiembre	2023-12-09T00:00:00	2024-11-08T20:00:00	6	Velocidad del viento	11.3
172142	7	Sololá	719	Santiago Atitlán	14	Cerro de Oro	9	Septiembre	2023-12-09T00:00:00	2024-11-08T20:00:00	7	Dirección del viento	11.27
172143	7	Sololá	719	Santiago Atitlán	14	Cerro de Oro	9	Septiembre	2023-12-09T00:00:00	2024-11-08T20:00:00	1	Precipitación	0
172144	7	Sololá	719	Santiago Atitlán	14	Cerro de Oro	9	Septiembre	2023-12-09T00:00:00	2024-11-08T20:00:00	8	Radiación solar	0
172145	7	Sololá	719	Santiago Atitlán	14	Cerro de Oro	9	Septiembre	2023-12-09T00:00:00	2024-11-08T21:00:00	2	Temperatura media	19.4
172146	7	Sololá	719	Santiago Atitlán	14	Cerro de Oro	9	Septiembre	2023-12-09T00:00:00	2024-11-08T21:00:00	4	Temperatura máxima	19.7
172147	7	Sololá	719	Santiago Atitlán	14	Cerro de Oro	9	Septiembre	2023-12-09T00:00:00	2024-11-08T21:00:00	3	Temperatura mínima	19.1
172148	7	Sololá	719	Santiago Atitlán	14	Cerro de Oro	9	Septiembre	2023-12-09T00:00:00	2024-11-08T21:00:00	5	Humedad	89
172149	7	Sololá	719	Santiago Atitlán	14	Cerro de Oro	9	Septiembre	2023-12-09T00:00:00	2024-11-08T21:00:00	6	Velocidad del viento	4.8
172150	7	Sololá	719	Santiago Atitlán	14	Cerro de Oro	9	Septiembre	2023-12-09T00:00:00	2024-11-08T21:00:00	7	Dirección del viento	4.83
172151	7	Sololá	719	Santiago Atitlán	14	Cerro de Oro	9	Septiembre	2023-12-09T00:00:00	2024-11-08T21:00:00	1	Precipitación	0
172152	7	Sololá	719	Santiago Atitlán	14	Cerro de Oro	9	Septiembre	2023-12-09T00:00:00	2024-11-08T21:00:00	8	Radiación solar	0
172153	7	Sololá	719	Santiago Atitlán	14	Cerro de Oro	9	Septiembre	2023-12-09T00:00:00	2024-11-08T22:00:00	2	Temperatura media	19.4
172154	7	Sololá	719	Santiago Atitlán	14	Cerro de Oro	9	Septiembre	2023-12-09T00:00:00	2024-11-08T22:00:00	4	Temperatura máxima	20.1
172155	7	Sololá	719	Santiago Atitlán	14	Cerro de Oro	9	Septiembre	2023-12-09T00:00:00	2024-11-08T22:00:00	3	Temperatura mínima	19.4
172156	7	Sololá	719	Santiago Atitlán	14	Cerro de Oro	9	Septiembre	2023-12-09T00:00:00	2024-11-08T22:00:00	5	Humedad	88
172157	7	Sololá	719	Santiago Atitlán	14	Cerro de Oro	9	Septiembre	2023-12-09T00:00:00	2024-11-08T22:00:00	6	Velocidad del viento	3.2
172158	7	Sololá	719	Santiago Atitlán	14	Cerro de Oro	9	Septiembre	2023-12-09T00:00:00	2024-11-08T22:00:00	7	Dirección del viento	3.22
172159	7	Sololá	719	Santiago Atitlán	14	Cerro de Oro	9	Septiembre	2023-12-09T00:00:00	2024-11-08T22:00:00	1	Precipitación	0
172160	7	Sololá	719	Santiago Atitlán	14	Cerro de Oro	9	Septiembre	2023-12-09T00:00:00	2024-11-08T22:00:00	8	Radiación solar	0
172161	7	Sololá	719	Santiago Atitlán	14	Cerro de Oro	9	Septiembre	2023-12-09T00:00:00	2024-11-08T23:00:00	2	Temperatura media	19.4
172162	7	Sololá	719	Santiago Atitlán	14	Cerro de Oro	9	Septiembre	2023-12-09T00:00:00	2024-11-08T23:00:00	4	Temperatura máxima	19.7
172163	7	Sololá	719	Santiago Atitlán	14	Cerro de Oro	9	Septiembre	2023-12-09T00:00:00	2024-11-08T23:00:00	3	Temperatura mínima	19.3
172164	7	Sololá	719	Santiago Atitlán	14	Cerro de Oro	9	Septiembre	2023-12-09T00:00:00	2024-11-08T23:00:00	5	Humedad	84
172165	7	Sololá	719	Santiago Atitlán	14	Cerro de Oro	9	Septiembre	2023-12-09T00:00:00	2024-11-08T23:00:00	6	Velocidad del viento	3.2
172166	7	Sololá	719	Santiago Atitlán	14	Cerro de Oro	9	Septiembre	2023-12-09T00:00:00	2024-11-08T23:00:00	7	Dirección del viento	3.22
172167	7	Sololá	719	Santiago Atitlán	14	Cerro de Oro	9	Septiembre	2023-12-09T00:00:00	2024-11-08T23:00:00	1	Precipitación	0
172168	7	Sololá	719	Santiago Atitlán	14	Cerro de Oro	9	Septiembre	2023-12-09T00:00:00	2024-11-08T23:00:00	8	Radiación solar	0
172169	7	Sololá	719	Santiago Atitlán	14	Cerro de Oro	9	Septiembre	2023-09-13T00:00:00	2024-11-08T00:00:00	2	Temperatura media	19.6
172170	7	Sololá	719	Santiago Atitlán	14	Cerro de Oro	9	Septiembre	2023-09-13T00:00:00	2024-11-08T00:00:00	4	Temperatura máxima	20.1
172171	7	Sololá	719	Santiago Atitlán	14	Cerro de Oro	9	Septiembre	2023-09-13T00:00:00	2024-11-08T00:00:00	3	Temperatura mínima	19.4
172172	7	Sololá	719	Santiago Atitlán	14	Cerro de Oro	9	Septiembre	2023-09-13T00:00:00	2024-11-08T00:00:00	5	Humedad	84
172173	7	Sololá	719	Santiago Atitlán	14	Cerro de Oro	9	Septiembre	2023-09-13T00:00:00	2024-11-08T00:00:00	6	Velocidad del viento	3.2
172174	7	Sololá	719	Santiago Atitlán	14	Cerro de Oro	9	Septiembre	2023-09-13T00:00:00	2024-11-08T00:00:00	7	Dirección del viento	3.22
172175	7	Sololá	719	Santiago Atitlán	14	Cerro de Oro	9	Septiembre	2023-09-13T00:00:00	2024-11-08T00:00:00	1	Precipitación	0
172176	7	Sololá	719	Santiago Atitlán	14	Cerro de Oro	9	Septiembre	2023-09-13T00:00:00	2024-11-08T00:00:00	8	Radiación solar	0
172177	7	Sololá	719	Santiago Atitlán	14	Cerro de Oro	9	Septiembre	2023-09-13T00:00:00	2024-11-08T01:00:00	2	Temperatura media	19.6
172178	7	Sololá	719	Santiago Atitlán	14	Cerro de Oro	9	Septiembre	2023-09-13T00:00:00	2024-11-08T01:00:00	4	Temperatura máxima	19.8
172179	7	Sololá	719	Santiago Atitlán	14	Cerro de Oro	9	Septiembre	2023-09-13T00:00:00	2024-11-08T01:00:00	3	Temperatura mínima	19.4
172180	7	Sololá	719	Santiago Atitlán	14	Cerro de Oro	9	Septiembre	2023-09-13T00:00:00	2024-11-08T01:00:00	5	Humedad	86
172181	7	Sololá	719	Santiago Atitlán	14	Cerro de Oro	9	Septiembre	2023-09-13T00:00:00	2024-11-08T01:00:00	6	Velocidad del viento	1.6
172182	7	Sololá	719	Santiago Atitlán	14	Cerro de Oro	9	Septiembre	2023-09-13T00:00:00	2024-11-08T01:00:00	7	Dirección del viento	1.61
172183	7	Sololá	719	Santiago Atitlán	14	Cerro de Oro	9	Septiembre	2023-09-13T00:00:00	2024-11-08T01:00:00	1	Precipitación	0
172184	7	Sololá	719	Santiago Atitlán	14	Cerro de Oro	9	Septiembre	2023-09-13T00:00:00	2024-11-08T01:00:00	8	Radiación solar	0
172185	7	Sololá	719	Santiago Atitlán	14	Cerro de Oro	9	Septiembre	2023-09-13T00:00:00	2024-11-08T02:00:00	2	Temperatura media	19.4
172186	7	Sololá	719	Santiago Atitlán	14	Cerro de Oro	9	Septiembre	2023-09-13T00:00:00	2024-11-08T02:00:00	4	Temperatura máxima	19.6
172187	7	Sololá	719	Santiago Atitlán	14	Cerro de Oro	9	Septiembre	2023-09-13T00:00:00	2024-11-08T02:00:00	3	Temperatura mínima	19.3
172188	7	Sololá	719	Santiago Atitlán	14	Cerro de Oro	9	Septiembre	2023-09-13T00:00:00	2024-11-08T02:00:00	5	Humedad	86
172189	7	Sololá	719	Santiago Atitlán	14	Cerro de Oro	9	Septiembre	2023-09-13T00:00:00	2024-11-08T02:00:00	6	Velocidad del viento	3.2
172190	7	Sololá	719	Santiago Atitlán	14	Cerro de Oro	9	Septiembre	2023-09-13T00:00:00	2024-11-08T02:00:00	7	Dirección del viento	3.22
172191	7	Sololá	719	Santiago Atitlán	14	Cerro de Oro	9	Septiembre	2023-09-13T00:00:00	2024-11-08T02:00:00	1	Precipitación	0
172192	7	Sololá	719	Santiago Atitlán	14	Cerro de Oro	9	Septiembre	2023-09-13T00:00:00	2024-11-08T02:00:00	8	Radiación solar	0
172193	7	Sololá	719	Santiago Atitlán	14	Cerro de Oro	9	Septiembre	2023-09-13T00:00:00	2024-11-08T03:00:00	2	Temperatura media	19.8
172194	7	Sololá	719	Santiago Atitlán	14	Cerro de Oro	9	Septiembre	2023-09-13T00:00:00	2024-11-08T03:00:00	4	Temperatura máxima	19.8
172195	7	Sololá	719	Santiago Atitlán	14	Cerro de Oro	9	Septiembre	2023-09-13T00:00:00	2024-11-08T03:00:00	3	Temperatura mínima	19.2
172196	7	Sololá	719	Santiago Atitlán	14	Cerro de Oro	9	Septiembre	2023-09-13T00:00:00	2024-11-08T03:00:00	5	Humedad	84
172197	7	Sololá	719	Santiago Atitlán	14	Cerro de Oro	9	Septiembre	2023-09-13T00:00:00	2024-11-08T03:00:00	6	Velocidad del viento	3.2
172198	7	Sololá	719	Santiago Atitlán	14	Cerro de Oro	9	Septiembre	2023-09-13T00:00:00	2024-11-08T03:00:00	7	Dirección del viento	3.22
172199	7	Sololá	719	Santiago Atitlán	14	Cerro de Oro	9	Septiembre	2023-09-13T00:00:00	2024-11-08T03:00:00	1	Precipitación	0
172200	7	Sololá	719	Santiago Atitlán	14	Cerro de Oro	9	Septiembre	2023-09-13T00:00:00	2024-11-08T03:00:00	8	Radiación solar	0
172201	7	Sololá	719	Santiago Atitlán	14	Cerro de Oro	9	Septiembre	2023-09-13T00:00:00	2024-11-08T04:00:00	2	Temperatura media	19.4
172202	7	Sololá	719	Santiago Atitlán	14	Cerro de Oro	9	Septiembre	2023-09-13T00:00:00	2024-11-08T04:00:00	4	Temperatura máxima	19.8
172203	7	Sololá	719	Santiago Atitlán	14	Cerro de Oro	9	Septiembre	2023-09-13T00:00:00	2024-11-08T04:00:00	3	Temperatura mínima	19.3
172204	7	Sololá	719	Santiago Atitlán	14	Cerro de Oro	9	Septiembre	2023-09-13T00:00:00	2024-11-08T04:00:00	5	Humedad	85
172205	7	Sololá	719	Santiago Atitlán	14	Cerro de Oro	9	Septiembre	2023-09-13T00:00:00	2024-11-08T04:00:00	6	Velocidad del viento	3.2
172206	7	Sololá	719	Santiago Atitlán	14	Cerro de Oro	9	Septiembre	2023-09-13T00:00:00	2024-11-08T04:00:00	7	Dirección del viento	3.22
172207	7	Sololá	719	Santiago Atitlán	14	Cerro de Oro	9	Septiembre	2023-09-13T00:00:00	2024-11-08T04:00:00	1	Precipitación	0
172208	7	Sololá	719	Santiago Atitlán	14	Cerro de Oro	9	Septiembre	2023-09-13T00:00:00	2024-11-08T04:00:00	8	Radiación solar	0
172209	7	Sololá	719	Santiago Atitlán	14	Cerro de Oro	9	Septiembre	2023-09-13T00:00:00	2024-11-08T05:00:00	2	Temperatura media	19.2
172210	7	Sololá	719	Santiago Atitlán	14	Cerro de Oro	9	Septiembre	2023-09-13T00:00:00	2024-11-08T05:00:00	4	Temperatura máxima	19.7
172211	7	Sololá	719	Santiago Atitlán	14	Cerro de Oro	9	Septiembre	2023-09-13T00:00:00	2024-11-08T05:00:00	3	Temperatura mínima	19.2
172212	7	Sololá	719	Santiago Atitlán	14	Cerro de Oro	9	Septiembre	2023-09-13T00:00:00	2024-11-08T05:00:00	5	Humedad	85
172213	7	Sololá	719	Santiago Atitlán	14	Cerro de Oro	9	Septiembre	2023-09-13T00:00:00	2024-11-08T05:00:00	6	Velocidad del viento	3.2
172214	7	Sololá	719	Santiago Atitlán	14	Cerro de Oro	9	Septiembre	2023-09-13T00:00:00	2024-11-08T05:00:00	7	Dirección del viento	3.22
172215	7	Sololá	719	Santiago Atitlán	14	Cerro de Oro	9	Septiembre	2023-09-13T00:00:00	2024-11-08T05:00:00	1	Precipitación	0
172216	7	Sololá	719	Santiago Atitlán	14	Cerro de Oro	9	Septiembre	2023-09-13T00:00:00	2024-11-08T05:00:00	8	Radiación solar	0
172217	7	Sololá	719	Santiago Atitlán	14	Cerro de Oro	9	Septiembre	2023-09-13T00:00:00	2024-11-08T06:00:00	2	Temperatura media	19.2
172218	7	Sololá	719	Santiago Atitlán	14	Cerro de Oro	9	Septiembre	2023-09-13T00:00:00	2024-11-08T06:00:00	4	Temperatura máxima	19.2
172219	7	Sololá	719	Santiago Atitlán	14	Cerro de Oro	9	Septiembre	2023-09-13T00:00:00	2024-11-08T06:00:00	3	Temperatura mínima	18.9
172220	7	Sololá	719	Santiago Atitlán	14	Cerro de Oro	9	Septiembre	2023-09-13T00:00:00	2024-11-08T06:00:00	5	Humedad	85
172221	7	Sololá	719	Santiago Atitlán	14	Cerro de Oro	9	Septiembre	2023-09-13T00:00:00	2024-11-08T06:00:00	6	Velocidad del viento	4.8
172222	7	Sololá	719	Santiago Atitlán	14	Cerro de Oro	9	Septiembre	2023-09-13T00:00:00	2024-11-08T06:00:00	7	Dirección del viento	4.83
172223	7	Sololá	719	Santiago Atitlán	14	Cerro de Oro	9	Septiembre	2023-09-13T00:00:00	2024-11-08T06:00:00	1	Precipitación	0
172224	7	Sololá	719	Santiago Atitlán	14	Cerro de Oro	9	Septiembre	2023-09-13T00:00:00	2024-11-08T06:00:00	8	Radiación solar	1
172225	7	Sololá	719	Santiago Atitlán	14	Cerro de Oro	9	Septiembre	2023-09-13T00:00:00	2024-11-08T07:00:00	2	Temperatura media	20.5
172226	7	Sololá	719	Santiago Atitlán	14	Cerro de Oro	9	Septiembre	2023-09-13T00:00:00	2024-11-08T07:00:00	4	Temperatura máxima	20.5
172227	7	Sololá	719	Santiago Atitlán	14	Cerro de Oro	9	Septiembre	2023-09-13T00:00:00	2024-11-08T07:00:00	3	Temperatura mínima	19.1
172228	7	Sololá	719	Santiago Atitlán	14	Cerro de Oro	9	Septiembre	2023-09-13T00:00:00	2024-11-08T07:00:00	5	Humedad	81
172229	7	Sololá	719	Santiago Atitlán	14	Cerro de Oro	9	Septiembre	2023-09-13T00:00:00	2024-11-08T07:00:00	6	Velocidad del viento	6.4
172230	7	Sololá	719	Santiago Atitlán	14	Cerro de Oro	9	Septiembre	2023-09-13T00:00:00	2024-11-08T07:00:00	7	Dirección del viento	6.44
172231	7	Sololá	719	Santiago Atitlán	14	Cerro de Oro	9	Septiembre	2023-09-13T00:00:00	2024-11-08T07:00:00	1	Precipitación	0
172232	7	Sololá	719	Santiago Atitlán	14	Cerro de Oro	9	Septiembre	2023-09-13T00:00:00	2024-11-08T07:00:00	8	Radiación solar	64
172233	7	Sololá	719	Santiago Atitlán	14	Cerro de Oro	9	Septiembre	2023-09-13T00:00:00	2024-11-08T08:00:00	2	Temperatura media	21.6
172234	7	Sololá	719	Santiago Atitlán	14	Cerro de Oro	9	Septiembre	2023-09-13T00:00:00	2024-11-08T08:00:00	4	Temperatura máxima	21.6
172235	7	Sololá	719	Santiago Atitlán	14	Cerro de Oro	9	Septiembre	2023-09-13T00:00:00	2024-11-08T08:00:00	3	Temperatura mínima	20.4
172236	7	Sololá	719	Santiago Atitlán	14	Cerro de Oro	9	Septiembre	2023-09-13T00:00:00	2024-11-08T08:00:00	5	Humedad	76
172237	7	Sololá	719	Santiago Atitlán	14	Cerro de Oro	9	Septiembre	2023-09-13T00:00:00	2024-11-08T08:00:00	6	Velocidad del viento	3.2
172238	7	Sololá	719	Santiago Atitlán	14	Cerro de Oro	9	Septiembre	2023-09-13T00:00:00	2024-11-08T08:00:00	7	Dirección del viento	3.22
172239	7	Sololá	719	Santiago Atitlán	14	Cerro de Oro	9	Septiembre	2023-09-13T00:00:00	2024-11-08T08:00:00	1	Precipitación	0
172240	7	Sololá	719	Santiago Atitlán	14	Cerro de Oro	9	Septiembre	2023-09-13T00:00:00	2024-11-08T08:00:00	8	Radiación solar	176
172241	7	Sololá	719	Santiago Atitlán	14	Cerro de Oro	9	Septiembre	2023-09-13T00:00:00	2024-11-08T09:00:00	2	Temperatura media	23.1
172242	7	Sololá	719	Santiago Atitlán	14	Cerro de Oro	9	Septiembre	2023-09-13T00:00:00	2024-11-08T09:00:00	4	Temperatura máxima	23.4
172243	7	Sololá	719	Santiago Atitlán	14	Cerro de Oro	9	Septiembre	2023-09-13T00:00:00	2024-11-08T09:00:00	3	Temperatura mínima	21.6
172244	7	Sololá	719	Santiago Atitlán	14	Cerro de Oro	9	Septiembre	2023-09-13T00:00:00	2024-11-08T09:00:00	5	Humedad	76
172245	7	Sololá	719	Santiago Atitlán	14	Cerro de Oro	9	Septiembre	2023-09-13T00:00:00	2024-11-08T09:00:00	6	Velocidad del viento	6.4
172246	7	Sololá	719	Santiago Atitlán	14	Cerro de Oro	9	Septiembre	2023-09-13T00:00:00	2024-11-08T09:00:00	7	Dirección del viento	6.44
172247	7	Sololá	719	Santiago Atitlán	14	Cerro de Oro	9	Septiembre	2023-09-13T00:00:00	2024-11-08T09:00:00	1	Precipitación	0
172248	7	Sololá	719	Santiago Atitlán	14	Cerro de Oro	9	Septiembre	2023-09-13T00:00:00	2024-11-08T09:00:00	8	Radiación solar	490
172249	7	Sololá	719	Santiago Atitlán	14	Cerro de Oro	9	Septiembre	2023-09-13T00:00:00	2024-11-08T10:00:00	2	Temperatura media	23.4
172250	7	Sololá	719	Santiago Atitlán	14	Cerro de Oro	9	Septiembre	2023-09-13T00:00:00	2024-11-08T10:00:00	4	Temperatura máxima	23.7
172251	7	Sololá	719	Santiago Atitlán	14	Cerro de Oro	9	Septiembre	2023-09-13T00:00:00	2024-11-08T10:00:00	3	Temperatura mínima	22.9
172252	7	Sololá	719	Santiago Atitlán	14	Cerro de Oro	9	Septiembre	2023-09-13T00:00:00	2024-11-08T10:00:00	5	Humedad	75
172253	7	Sololá	719	Santiago Atitlán	14	Cerro de Oro	9	Septiembre	2023-09-13T00:00:00	2024-11-08T10:00:00	6	Velocidad del viento	9.7
172254	7	Sololá	719	Santiago Atitlán	14	Cerro de Oro	9	Septiembre	2023-09-13T00:00:00	2024-11-08T10:00:00	7	Dirección del viento	9.66
172255	7	Sololá	719	Santiago Atitlán	14	Cerro de Oro	9	Septiembre	2023-09-13T00:00:00	2024-11-08T10:00:00	1	Precipitación	0
172256	7	Sololá	719	Santiago Atitlán	14	Cerro de Oro	9	Septiembre	2023-09-13T00:00:00	2024-11-08T10:00:00	8	Radiación solar	716
172257	7	Sololá	719	Santiago Atitlán	14	Cerro de Oro	9	Septiembre	2023-09-13T00:00:00	2024-11-08T11:00:00	2	Temperatura media	24
172258	7	Sololá	719	Santiago Atitlán	14	Cerro de Oro	9	Septiembre	2023-09-13T00:00:00	2024-11-08T11:00:00	4	Temperatura máxima	24.4
172259	7	Sololá	719	Santiago Atitlán	14	Cerro de Oro	9	Septiembre	2023-09-13T00:00:00	2024-11-08T11:00:00	3	Temperatura mínima	23.3
172260	7	Sololá	719	Santiago Atitlán	14	Cerro de Oro	9	Septiembre	2023-09-13T00:00:00	2024-11-08T11:00:00	5	Humedad	72
172261	7	Sololá	719	Santiago Atitlán	14	Cerro de Oro	9	Septiembre	2023-09-13T00:00:00	2024-11-08T11:00:00	6	Velocidad del viento	8
172262	7	Sololá	719	Santiago Atitlán	14	Cerro de Oro	9	Septiembre	2023-09-13T00:00:00	2024-11-08T11:00:00	7	Dirección del viento	8.05
172263	7	Sololá	719	Santiago Atitlán	14	Cerro de Oro	9	Septiembre	2023-09-13T00:00:00	2024-11-08T11:00:00	1	Precipitación	0
172264	7	Sololá	719	Santiago Atitlán	14	Cerro de Oro	9	Septiembre	2023-09-13T00:00:00	2024-11-08T11:00:00	8	Radiación solar	783
172265	7	Sololá	719	Santiago Atitlán	14	Cerro de Oro	9	Septiembre	2023-09-13T00:00:00	2024-11-08T12:00:00	2	Temperatura media	23.8
172266	7	Sololá	719	Santiago Atitlán	14	Cerro de Oro	9	Septiembre	2023-09-13T00:00:00	2024-11-08T12:00:00	4	Temperatura máxima	24.3
172267	7	Sololá	719	Santiago Atitlán	14	Cerro de Oro	9	Septiembre	2023-09-13T00:00:00	2024-11-08T12:00:00	3	Temperatura mínima	23.3
172268	7	Sololá	719	Santiago Atitlán	14	Cerro de Oro	9	Septiembre	2023-09-13T00:00:00	2024-11-08T12:00:00	5	Humedad	78
172269	7	Sololá	719	Santiago Atitlán	14	Cerro de Oro	9	Septiembre	2023-09-13T00:00:00	2024-11-08T12:00:00	6	Velocidad del viento	9.7
172270	7	Sololá	719	Santiago Atitlán	14	Cerro de Oro	9	Septiembre	2023-09-13T00:00:00	2024-11-08T12:00:00	7	Dirección del viento	9.66
172271	7	Sololá	719	Santiago Atitlán	14	Cerro de Oro	9	Septiembre	2023-09-13T00:00:00	2024-11-08T12:00:00	1	Precipitación	0
172272	7	Sololá	719	Santiago Atitlán	14	Cerro de Oro	9	Septiembre	2023-09-13T00:00:00	2024-11-08T12:00:00	8	Radiación solar	487
172273	7	Sololá	719	Santiago Atitlán	14	Cerro de Oro	9	Septiembre	2023-09-13T00:00:00	2024-11-08T13:00:00	2	Temperatura media	24.6
172274	7	Sololá	719	Santiago Atitlán	14	Cerro de Oro	9	Septiembre	2023-09-13T00:00:00	2024-11-08T13:00:00	4	Temperatura máxima	24.6
172275	7	Sololá	719	Santiago Atitlán	14	Cerro de Oro	9	Septiembre	2023-09-13T00:00:00	2024-11-08T13:00:00	3	Temperatura mínima	23.8
172276	7	Sololá	719	Santiago Atitlán	14	Cerro de Oro	9	Septiembre	2023-09-13T00:00:00	2024-11-08T13:00:00	5	Humedad	77
172277	7	Sololá	719	Santiago Atitlán	14	Cerro de Oro	9	Septiembre	2023-09-13T00:00:00	2024-11-08T13:00:00	6	Velocidad del viento	9.7
172278	7	Sololá	719	Santiago Atitlán	14	Cerro de Oro	9	Septiembre	2023-09-13T00:00:00	2024-11-08T13:00:00	7	Dirección del viento	9.66
172279	7	Sololá	719	Santiago Atitlán	14	Cerro de Oro	9	Septiembre	2023-09-13T00:00:00	2024-11-08T13:00:00	1	Precipitación	0
172280	7	Sololá	719	Santiago Atitlán	14	Cerro de Oro	9	Septiembre	2023-09-13T00:00:00	2024-11-08T13:00:00	8	Radiación solar	588
172281	7	Sololá	719	Santiago Atitlán	14	Cerro de Oro	9	Septiembre	2023-09-13T00:00:00	2024-11-08T14:00:00	2	Temperatura media	23.9
172282	7	Sololá	719	Santiago Atitlán	14	Cerro de Oro	9	Septiembre	2023-09-13T00:00:00	2024-11-08T14:00:00	4	Temperatura máxima	25.1
172283	7	Sololá	719	Santiago Atitlán	14	Cerro de Oro	9	Septiembre	2023-09-13T00:00:00	2024-11-08T14:00:00	3	Temperatura mínima	23.4
172284	7	Sololá	719	Santiago Atitlán	14	Cerro de Oro	9	Septiembre	2023-09-13T00:00:00	2024-11-08T14:00:00	5	Humedad	78
172285	7	Sololá	719	Santiago Atitlán	14	Cerro de Oro	9	Septiembre	2023-09-13T00:00:00	2024-11-08T14:00:00	6	Velocidad del viento	9.7
172286	7	Sololá	719	Santiago Atitlán	14	Cerro de Oro	9	Septiembre	2023-09-13T00:00:00	2024-11-08T14:00:00	7	Dirección del viento	9.66
172287	7	Sololá	719	Santiago Atitlán	14	Cerro de Oro	9	Septiembre	2023-09-13T00:00:00	2024-11-08T14:00:00	1	Precipitación	0
172288	7	Sololá	719	Santiago Atitlán	14	Cerro de Oro	9	Septiembre	2023-09-13T00:00:00	2024-11-08T14:00:00	8	Radiación solar	692
172289	7	Sololá	719	Santiago Atitlán	14	Cerro de Oro	9	Septiembre	2023-09-13T00:00:00	2024-11-08T15:00:00	2	Temperatura media	21.2
172290	7	Sololá	719	Santiago Atitlán	14	Cerro de Oro	9	Septiembre	2023-09-13T00:00:00	2024-11-08T15:00:00	4	Temperatura máxima	23.8
172291	7	Sololá	719	Santiago Atitlán	14	Cerro de Oro	9	Septiembre	2023-09-13T00:00:00	2024-11-08T15:00:00	3	Temperatura mínima	21.2
172292	7	Sololá	719	Santiago Atitlán	14	Cerro de Oro	9	Septiembre	2023-09-13T00:00:00	2024-11-08T15:00:00	5	Humedad	88
172293	7	Sololá	719	Santiago Atitlán	14	Cerro de Oro	9	Septiembre	2023-09-13T00:00:00	2024-11-08T15:00:00	6	Velocidad del viento	8
172294	7	Sololá	719	Santiago Atitlán	14	Cerro de Oro	9	Septiembre	2023-09-13T00:00:00	2024-11-08T15:00:00	7	Dirección del viento	8.05
172295	7	Sololá	719	Santiago Atitlán	14	Cerro de Oro	9	Septiembre	2023-09-13T00:00:00	2024-11-08T15:00:00	1	Precipitación	0
172296	7	Sololá	719	Santiago Atitlán	14	Cerro de Oro	9	Septiembre	2023-09-13T00:00:00	2024-11-08T15:00:00	8	Radiación solar	228
172297	7	Sololá	719	Santiago Atitlán	14	Cerro de Oro	9	Septiembre	2023-09-13T00:00:00	2024-11-08T16:00:00	2	Temperatura media	19.9
172298	7	Sololá	719	Santiago Atitlán	14	Cerro de Oro	9	Septiembre	2023-09-13T00:00:00	2024-11-08T16:00:00	4	Temperatura máxima	21.3
172299	7	Sololá	719	Santiago Atitlán	14	Cerro de Oro	9	Septiembre	2023-09-13T00:00:00	2024-11-08T16:00:00	3	Temperatura mínima	19.9
172300	7	Sololá	719	Santiago Atitlán	14	Cerro de Oro	9	Septiembre	2023-09-13T00:00:00	2024-11-08T16:00:00	5	Humedad	91
172301	7	Sololá	719	Santiago Atitlán	14	Cerro de Oro	9	Septiembre	2023-09-13T00:00:00	2024-11-08T16:00:00	6	Velocidad del viento	6.4
172302	7	Sololá	719	Santiago Atitlán	14	Cerro de Oro	9	Septiembre	2023-09-13T00:00:00	2024-11-08T16:00:00	7	Dirección del viento	6.44
172303	7	Sololá	719	Santiago Atitlán	14	Cerro de Oro	9	Septiembre	2023-09-13T00:00:00	2024-11-08T16:00:00	1	Precipitación	0
172304	7	Sololá	719	Santiago Atitlán	14	Cerro de Oro	9	Septiembre	2023-09-13T00:00:00	2024-11-08T16:00:00	8	Radiación solar	44
172305	7	Sololá	719	Santiago Atitlán	14	Cerro de Oro	9	Septiembre	2023-09-13T00:00:00	2024-11-08T17:00:00	2	Temperatura media	19.7
172306	7	Sololá	719	Santiago Atitlán	14	Cerro de Oro	9	Septiembre	2023-09-13T00:00:00	2024-11-08T17:00:00	4	Temperatura máxima	20
172307	7	Sololá	719	Santiago Atitlán	14	Cerro de Oro	9	Septiembre	2023-09-13T00:00:00	2024-11-08T17:00:00	3	Temperatura mínima	19.7
172308	7	Sololá	719	Santiago Atitlán	14	Cerro de Oro	9	Septiembre	2023-09-13T00:00:00	2024-11-08T17:00:00	5	Humedad	93
172309	7	Sololá	719	Santiago Atitlán	14	Cerro de Oro	9	Septiembre	2023-09-13T00:00:00	2024-11-08T17:00:00	6	Velocidad del viento	4.8
172310	7	Sololá	719	Santiago Atitlán	14	Cerro de Oro	9	Septiembre	2023-09-13T00:00:00	2024-11-08T17:00:00	7	Dirección del viento	4.83
172311	7	Sololá	719	Santiago Atitlán	14	Cerro de Oro	9	Septiembre	2023-09-13T00:00:00	2024-11-08T17:00:00	1	Precipitación	2.4
172312	7	Sololá	719	Santiago Atitlán	14	Cerro de Oro	9	Septiembre	2023-09-13T00:00:00	2024-11-08T17:00:00	8	Radiación solar	64
172313	7	Sololá	719	Santiago Atitlán	14	Cerro de Oro	9	Septiembre	2023-09-13T00:00:00	2024-11-08T18:00:00	2	Temperatura media	19.7
172314	7	Sololá	719	Santiago Atitlán	14	Cerro de Oro	9	Septiembre	2023-09-13T00:00:00	2024-11-08T18:00:00	4	Temperatura máxima	19.8
172315	7	Sololá	719	Santiago Atitlán	14	Cerro de Oro	9	Septiembre	2023-09-13T00:00:00	2024-11-08T18:00:00	3	Temperatura mínima	19.6
172316	7	Sololá	719	Santiago Atitlán	14	Cerro de Oro	9	Septiembre	2023-09-13T00:00:00	2024-11-08T18:00:00	5	Humedad	93
172317	7	Sololá	719	Santiago Atitlán	14	Cerro de Oro	9	Septiembre	2023-09-13T00:00:00	2024-11-08T18:00:00	6	Velocidad del viento	3.2
172318	7	Sololá	719	Santiago Atitlán	14	Cerro de Oro	9	Septiembre	2023-09-13T00:00:00	2024-11-08T18:00:00	7	Dirección del viento	3.22
172319	7	Sololá	719	Santiago Atitlán	14	Cerro de Oro	9	Septiembre	2023-09-13T00:00:00	2024-11-08T18:00:00	1	Precipitación	0.2
172320	7	Sololá	719	Santiago Atitlán	14	Cerro de Oro	9	Septiembre	2023-09-13T00:00:00	2024-11-08T18:00:00	8	Radiación solar	36
172321	7	Sololá	719	Santiago Atitlán	14	Cerro de Oro	9	Septiembre	2023-09-13T00:00:00	2024-11-08T19:00:00	2	Temperatura media	19.6
172322	7	Sololá	719	Santiago Atitlán	14	Cerro de Oro	9	Septiembre	2023-09-13T00:00:00	2024-11-08T19:00:00	4	Temperatura máxima	19.8
172323	7	Sololá	719	Santiago Atitlán	14	Cerro de Oro	9	Septiembre	2023-09-13T00:00:00	2024-11-08T19:00:00	3	Temperatura mínima	19.6
172324	7	Sololá	719	Santiago Atitlán	14	Cerro de Oro	9	Septiembre	2023-09-13T00:00:00	2024-11-08T19:00:00	5	Humedad	93
172325	7	Sololá	719	Santiago Atitlán	14	Cerro de Oro	9	Septiembre	2023-09-13T00:00:00	2024-11-08T19:00:00	6	Velocidad del viento	1.6
172326	7	Sololá	719	Santiago Atitlán	14	Cerro de Oro	9	Septiembre	2023-09-13T00:00:00	2024-11-08T19:00:00	7	Dirección del viento	1.61
172327	7	Sololá	719	Santiago Atitlán	14	Cerro de Oro	9	Septiembre	2023-09-13T00:00:00	2024-11-08T19:00:00	1	Precipitación	2.2
172328	7	Sololá	719	Santiago Atitlán	14	Cerro de Oro	9	Septiembre	2023-09-13T00:00:00	2024-11-08T19:00:00	8	Radiación solar	0
172329	7	Sololá	719	Santiago Atitlán	14	Cerro de Oro	9	Septiembre	2023-09-13T00:00:00	2024-11-08T20:00:00	2	Temperatura media	19.1
172330	7	Sololá	719	Santiago Atitlán	14	Cerro de Oro	9	Septiembre	2023-09-13T00:00:00	2024-11-08T20:00:00	4	Temperatura máxima	19.6
172331	7	Sololá	719	Santiago Atitlán	14	Cerro de Oro	9	Septiembre	2023-09-13T00:00:00	2024-11-08T20:00:00	3	Temperatura mínima	19.1
172332	7	Sololá	719	Santiago Atitlán	14	Cerro de Oro	9	Septiembre	2023-09-13T00:00:00	2024-11-08T20:00:00	5	Humedad	92
172333	7	Sololá	719	Santiago Atitlán	14	Cerro de Oro	9	Septiembre	2023-09-13T00:00:00	2024-11-08T20:00:00	6	Velocidad del viento	3.2
172334	7	Sololá	719	Santiago Atitlán	14	Cerro de Oro	9	Septiembre	2023-09-13T00:00:00	2024-11-08T20:00:00	7	Dirección del viento	3.22
172335	7	Sololá	719	Santiago Atitlán	14	Cerro de Oro	9	Septiembre	2023-09-13T00:00:00	2024-11-08T20:00:00	1	Precipitación	1.8
172336	7	Sololá	719	Santiago Atitlán	14	Cerro de Oro	9	Septiembre	2023-09-13T00:00:00	2024-11-08T20:00:00	8	Radiación solar	0
172337	7	Sololá	719	Santiago Atitlán	14	Cerro de Oro	9	Septiembre	2023-09-13T00:00:00	2024-11-08T21:00:00	2	Temperatura media	18.8
172338	7	Sololá	719	Santiago Atitlán	14	Cerro de Oro	9	Septiembre	2023-09-13T00:00:00	2024-11-08T21:00:00	4	Temperatura máxima	19.3
172339	7	Sololá	719	Santiago Atitlán	14	Cerro de Oro	9	Septiembre	2023-09-13T00:00:00	2024-11-08T21:00:00	3	Temperatura mínima	18.7
172340	7	Sololá	719	Santiago Atitlán	14	Cerro de Oro	9	Septiembre	2023-09-13T00:00:00	2024-11-08T21:00:00	5	Humedad	92
172341	7	Sololá	719	Santiago Atitlán	14	Cerro de Oro	9	Septiembre	2023-09-13T00:00:00	2024-11-08T21:00:00	6	Velocidad del viento	3.2
172342	7	Sololá	719	Santiago Atitlán	14	Cerro de Oro	9	Septiembre	2023-09-13T00:00:00	2024-11-08T21:00:00	7	Dirección del viento	3.22
172343	7	Sololá	719	Santiago Atitlán	14	Cerro de Oro	9	Septiembre	2023-09-13T00:00:00	2024-11-08T21:00:00	1	Precipitación	0.2
172344	7	Sololá	719	Santiago Atitlán	14	Cerro de Oro	9	Septiembre	2023-09-13T00:00:00	2024-11-08T21:00:00	8	Radiación solar	0
172345	7	Sololá	719	Santiago Atitlán	14	Cerro de Oro	9	Septiembre	2023-09-13T00:00:00	2024-11-08T22:00:00	2	Temperatura media	19
172346	7	Sololá	719	Santiago Atitlán	14	Cerro de Oro	9	Septiembre	2023-09-13T00:00:00	2024-11-08T22:00:00	4	Temperatura máxima	19.1
172347	7	Sololá	719	Santiago Atitlán	14	Cerro de Oro	9	Septiembre	2023-09-13T00:00:00	2024-11-08T22:00:00	3	Temperatura mínima	18.7
172348	7	Sololá	719	Santiago Atitlán	14	Cerro de Oro	9	Septiembre	2023-09-13T00:00:00	2024-11-08T22:00:00	5	Humedad	92
172349	7	Sololá	719	Santiago Atitlán	14	Cerro de Oro	9	Septiembre	2023-09-13T00:00:00	2024-11-08T22:00:00	6	Velocidad del viento	3.2
172350	7	Sololá	719	Santiago Atitlán	14	Cerro de Oro	9	Septiembre	2023-09-13T00:00:00	2024-11-08T22:00:00	7	Dirección del viento	3.22
172351	7	Sololá	719	Santiago Atitlán	14	Cerro de Oro	9	Septiembre	2023-09-13T00:00:00	2024-11-08T22:00:00	1	Precipitación	0
172352	7	Sololá	719	Santiago Atitlán	14	Cerro de Oro	9	Septiembre	2023-09-13T00:00:00	2024-11-08T22:00:00	8	Radiación solar	0
172353	7	Sololá	719	Santiago Atitlán	14	Cerro de Oro	9	Septiembre	2023-09-13T00:00:00	2024-11-08T23:00:00	2	Temperatura media	19.1
172354	7	Sololá	719	Santiago Atitlán	14	Cerro de Oro	9	Septiembre	2023-09-13T00:00:00	2024-11-08T23:00:00	4	Temperatura máxima	19.3
172355	7	Sololá	719	Santiago Atitlán	14	Cerro de Oro	9	Septiembre	2023-09-13T00:00:00	2024-11-08T23:00:00	3	Temperatura mínima	19
172356	7	Sololá	719	Santiago Atitlán	14	Cerro de Oro	9	Septiembre	2023-09-13T00:00:00	2024-11-08T23:00:00	5	Humedad	92
172357	7	Sololá	719	Santiago Atitlán	14	Cerro de Oro	9	Septiembre	2023-09-13T00:00:00	2024-11-08T23:00:00	6	Velocidad del viento	4.8
172358	7	Sololá	719	Santiago Atitlán	14	Cerro de Oro	9	Septiembre	2023-09-13T00:00:00	2024-11-08T23:00:00	7	Dirección del viento	4.83
172359	7	Sololá	719	Santiago Atitlán	14	Cerro de Oro	9	Septiembre	2023-09-13T00:00:00	2024-11-08T23:00:00	1	Precipitación	0
172360	7	Sololá	719	Santiago Atitlán	14	Cerro de Oro	9	Septiembre	2023-09-13T00:00:00	2024-11-08T23:00:00	8	Radiación solar	0
172361	7	Sololá	719	Santiago Atitlán	14	Cerro de Oro	9	Septiembre	2023-09-14T00:00:00	2024-11-08T00:00:00	2	Temperatura media	18.6
172362	7	Sololá	719	Santiago Atitlán	14	Cerro de Oro	9	Septiembre	2023-09-14T00:00:00	2024-11-08T00:00:00	4	Temperatura máxima	19.1
172363	7	Sololá	719	Santiago Atitlán	14	Cerro de Oro	9	Septiembre	2023-09-14T00:00:00	2024-11-08T00:00:00	3	Temperatura mínima	18.6
172364	7	Sololá	719	Santiago Atitlán	14	Cerro de Oro	9	Septiembre	2023-09-14T00:00:00	2024-11-08T00:00:00	5	Humedad	91
172365	7	Sololá	719	Santiago Atitlán	14	Cerro de Oro	9	Septiembre	2023-09-14T00:00:00	2024-11-08T00:00:00	6	Velocidad del viento	4.8
172366	7	Sololá	719	Santiago Atitlán	14	Cerro de Oro	9	Septiembre	2023-09-14T00:00:00	2024-11-08T00:00:00	7	Dirección del viento	4.83
172367	7	Sololá	719	Santiago Atitlán	14	Cerro de Oro	9	Septiembre	2023-09-14T00:00:00	2024-11-08T00:00:00	1	Precipitación	0.2
172368	7	Sololá	719	Santiago Atitlán	14	Cerro de Oro	9	Septiembre	2023-09-14T00:00:00	2024-11-08T00:00:00	8	Radiación solar	0
172369	7	Sololá	719	Santiago Atitlán	14	Cerro de Oro	9	Septiembre	2023-09-14T00:00:00	2024-11-08T01:00:00	2	Temperatura media	18
172370	7	Sololá	719	Santiago Atitlán	14	Cerro de Oro	9	Septiembre	2023-09-14T00:00:00	2024-11-08T01:00:00	4	Temperatura máxima	18.6
172371	7	Sololá	719	Santiago Atitlán	14	Cerro de Oro	9	Septiembre	2023-09-14T00:00:00	2024-11-08T01:00:00	3	Temperatura mínima	18
172372	7	Sololá	719	Santiago Atitlán	14	Cerro de Oro	9	Septiembre	2023-09-14T00:00:00	2024-11-08T01:00:00	5	Humedad	91
172373	7	Sololá	719	Santiago Atitlán	14	Cerro de Oro	9	Septiembre	2023-09-14T00:00:00	2024-11-08T01:00:00	6	Velocidad del viento	4.8
172374	7	Sololá	719	Santiago Atitlán	14	Cerro de Oro	9	Septiembre	2023-09-14T00:00:00	2024-11-08T01:00:00	7	Dirección del viento	4.83
172375	7	Sololá	719	Santiago Atitlán	14	Cerro de Oro	9	Septiembre	2023-09-14T00:00:00	2024-11-08T01:00:00	1	Precipitación	0.4
172376	7	Sololá	719	Santiago Atitlán	14	Cerro de Oro	9	Septiembre	2023-09-14T00:00:00	2024-11-08T01:00:00	8	Radiación solar	0
172377	7	Sololá	719	Santiago Atitlán	14	Cerro de Oro	9	Septiembre	2023-09-14T00:00:00	2024-11-08T02:00:00	2	Temperatura media	17.7
172378	7	Sololá	719	Santiago Atitlán	14	Cerro de Oro	9	Septiembre	2023-09-14T00:00:00	2024-11-08T02:00:00	4	Temperatura máxima	18.4
172379	7	Sololá	719	Santiago Atitlán	14	Cerro de Oro	9	Septiembre	2023-09-14T00:00:00	2024-11-08T02:00:00	3	Temperatura mínima	17.6
172380	7	Sololá	719	Santiago Atitlán	14	Cerro de Oro	9	Septiembre	2023-09-14T00:00:00	2024-11-08T02:00:00	5	Humedad	87
172381	7	Sololá	719	Santiago Atitlán	14	Cerro de Oro	9	Septiembre	2023-09-14T00:00:00	2024-11-08T02:00:00	6	Velocidad del viento	4.8
172382	7	Sololá	719	Santiago Atitlán	14	Cerro de Oro	9	Septiembre	2023-09-14T00:00:00	2024-11-08T02:00:00	7	Dirección del viento	4.83
172383	7	Sololá	719	Santiago Atitlán	14	Cerro de Oro	9	Septiembre	2023-09-14T00:00:00	2024-11-08T02:00:00	1	Precipitación	0.2
172384	7	Sololá	719	Santiago Atitlán	14	Cerro de Oro	9	Septiembre	2023-09-14T00:00:00	2024-11-08T02:00:00	8	Radiación solar	0
172385	7	Sololá	719	Santiago Atitlán	14	Cerro de Oro	9	Septiembre	2023-09-14T00:00:00	2024-11-08T03:00:00	2	Temperatura media	17.4
172386	7	Sololá	719	Santiago Atitlán	14	Cerro de Oro	9	Septiembre	2023-09-14T00:00:00	2024-11-08T03:00:00	4	Temperatura máxima	18.4
172387	7	Sololá	719	Santiago Atitlán	14	Cerro de Oro	9	Septiembre	2023-09-14T00:00:00	2024-11-08T03:00:00	3	Temperatura mínima	17.3
172388	7	Sololá	719	Santiago Atitlán	14	Cerro de Oro	9	Septiembre	2023-09-14T00:00:00	2024-11-08T03:00:00	5	Humedad	87
172389	7	Sololá	719	Santiago Atitlán	14	Cerro de Oro	9	Septiembre	2023-09-14T00:00:00	2024-11-08T03:00:00	6	Velocidad del viento	4.8
172390	7	Sololá	719	Santiago Atitlán	14	Cerro de Oro	9	Septiembre	2023-09-14T00:00:00	2024-11-08T03:00:00	7	Dirección del viento	4.83
172391	7	Sololá	719	Santiago Atitlán	14	Cerro de Oro	9	Septiembre	2023-09-14T00:00:00	2024-11-08T03:00:00	1	Precipitación	0.2
172392	7	Sololá	719	Santiago Atitlán	14	Cerro de Oro	9	Septiembre	2023-09-14T00:00:00	2024-11-08T03:00:00	8	Radiación solar	0
172393	7	Sololá	719	Santiago Atitlán	14	Cerro de Oro	9	Septiembre	2023-09-14T00:00:00	2024-11-08T04:00:00	2	Temperatura media	18.2
172394	7	Sololá	719	Santiago Atitlán	14	Cerro de Oro	9	Septiembre	2023-09-14T00:00:00	2024-11-08T04:00:00	4	Temperatura máxima	18.4
172395	7	Sololá	719	Santiago Atitlán	14	Cerro de Oro	9	Septiembre	2023-09-14T00:00:00	2024-11-08T04:00:00	3	Temperatura mínima	17.4
172396	7	Sololá	719	Santiago Atitlán	14	Cerro de Oro	9	Septiembre	2023-09-14T00:00:00	2024-11-08T04:00:00	5	Humedad	85
172397	7	Sololá	719	Santiago Atitlán	14	Cerro de Oro	9	Septiembre	2023-09-14T00:00:00	2024-11-08T04:00:00	6	Velocidad del viento	4.8
172398	7	Sololá	719	Santiago Atitlán	14	Cerro de Oro	9	Septiembre	2023-09-14T00:00:00	2024-11-08T04:00:00	7	Dirección del viento	4.83
172399	7	Sololá	719	Santiago Atitlán	14	Cerro de Oro	9	Septiembre	2023-09-14T00:00:00	2024-11-08T04:00:00	1	Precipitación	0
172400	7	Sololá	719	Santiago Atitlán	14	Cerro de Oro	9	Septiembre	2023-09-14T00:00:00	2024-11-08T04:00:00	8	Radiación solar	0
172401	7	Sololá	719	Santiago Atitlán	14	Cerro de Oro	9	Septiembre	2023-09-14T00:00:00	2024-11-08T05:00:00	2	Temperatura media	18.1
172402	7	Sololá	719	Santiago Atitlán	14	Cerro de Oro	9	Septiembre	2023-09-14T00:00:00	2024-11-08T05:00:00	4	Temperatura máxima	18.4
172403	7	Sololá	719	Santiago Atitlán	14	Cerro de Oro	9	Septiembre	2023-09-14T00:00:00	2024-11-08T05:00:00	3	Temperatura mínima	17.7
172404	7	Sololá	719	Santiago Atitlán	14	Cerro de Oro	9	Septiembre	2023-09-14T00:00:00	2024-11-08T05:00:00	5	Humedad	85
172405	7	Sololá	719	Santiago Atitlán	14	Cerro de Oro	9	Septiembre	2023-09-14T00:00:00	2024-11-08T05:00:00	6	Velocidad del viento	4.8
172406	7	Sololá	719	Santiago Atitlán	14	Cerro de Oro	9	Septiembre	2023-09-14T00:00:00	2024-11-08T05:00:00	7	Dirección del viento	4.83
172407	7	Sololá	719	Santiago Atitlán	14	Cerro de Oro	9	Septiembre	2023-09-14T00:00:00	2024-11-08T05:00:00	1	Precipitación	0
172408	7	Sololá	719	Santiago Atitlán	14	Cerro de Oro	9	Septiembre	2023-09-14T00:00:00	2024-11-08T05:00:00	8	Radiación solar	0
172409	7	Sololá	719	Santiago Atitlán	14	Cerro de Oro	9	Septiembre	2023-09-14T00:00:00	2024-11-08T06:00:00	2	Temperatura media	17.9
172410	7	Sololá	719	Santiago Atitlán	14	Cerro de Oro	9	Septiembre	2023-09-14T00:00:00	2024-11-08T06:00:00	4	Temperatura máxima	18.6
172411	7	Sololá	719	Santiago Atitlán	14	Cerro de Oro	9	Septiembre	2023-09-14T00:00:00	2024-11-08T06:00:00	3	Temperatura mínima	17.8
172412	7	Sololá	719	Santiago Atitlán	14	Cerro de Oro	9	Septiembre	2023-09-14T00:00:00	2024-11-08T06:00:00	5	Humedad	83
172413	7	Sololá	719	Santiago Atitlán	14	Cerro de Oro	9	Septiembre	2023-09-14T00:00:00	2024-11-08T06:00:00	6	Velocidad del viento	4.8
172414	7	Sololá	719	Santiago Atitlán	14	Cerro de Oro	9	Septiembre	2023-09-14T00:00:00	2024-11-08T06:00:00	7	Dirección del viento	4.83
172415	7	Sololá	719	Santiago Atitlán	14	Cerro de Oro	9	Septiembre	2023-09-14T00:00:00	2024-11-08T06:00:00	1	Precipitación	0
172416	7	Sololá	719	Santiago Atitlán	14	Cerro de Oro	9	Septiembre	2023-09-14T00:00:00	2024-11-08T06:00:00	8	Radiación solar	0
172417	7	Sololá	719	Santiago Atitlán	14	Cerro de Oro	9	Septiembre	2023-09-14T00:00:00	2024-11-08T07:00:00	2	Temperatura media	18.2
172418	7	Sololá	719	Santiago Atitlán	14	Cerro de Oro	9	Septiembre	2023-09-14T00:00:00	2024-11-08T07:00:00	4	Temperatura máxima	18.3
172419	7	Sololá	719	Santiago Atitlán	14	Cerro de Oro	9	Septiembre	2023-09-14T00:00:00	2024-11-08T07:00:00	3	Temperatura mínima	17.2
172420	7	Sololá	719	Santiago Atitlán	14	Cerro de Oro	9	Septiembre	2023-09-14T00:00:00	2024-11-08T07:00:00	5	Humedad	89
172421	7	Sololá	719	Santiago Atitlán	14	Cerro de Oro	9	Septiembre	2023-09-14T00:00:00	2024-11-08T07:00:00	6	Velocidad del viento	8
172422	7	Sololá	719	Santiago Atitlán	14	Cerro de Oro	9	Septiembre	2023-09-14T00:00:00	2024-11-08T07:00:00	7	Dirección del viento	8.05
172423	7	Sololá	719	Santiago Atitlán	14	Cerro de Oro	9	Septiembre	2023-09-14T00:00:00	2024-11-08T07:00:00	1	Precipitación	0
172424	7	Sololá	719	Santiago Atitlán	14	Cerro de Oro	9	Septiembre	2023-09-14T00:00:00	2024-11-08T07:00:00	8	Radiación solar	52
172425	7	Sololá	719	Santiago Atitlán	14	Cerro de Oro	9	Septiembre	2023-09-14T00:00:00	2024-11-08T08:00:00	2	Temperatura media	19.6
172426	7	Sololá	719	Santiago Atitlán	14	Cerro de Oro	9	Septiembre	2023-09-14T00:00:00	2024-11-08T08:00:00	4	Temperatura máxima	19.7
172427	7	Sololá	719	Santiago Atitlán	14	Cerro de Oro	9	Septiembre	2023-09-14T00:00:00	2024-11-08T08:00:00	3	Temperatura mínima	18.1
172428	7	Sololá	719	Santiago Atitlán	14	Cerro de Oro	9	Septiembre	2023-09-14T00:00:00	2024-11-08T08:00:00	5	Humedad	84
172429	7	Sololá	719	Santiago Atitlán	14	Cerro de Oro	9	Septiembre	2023-09-14T00:00:00	2024-11-08T08:00:00	6	Velocidad del viento	3.2
172430	7	Sololá	719	Santiago Atitlán	14	Cerro de Oro	9	Septiembre	2023-09-14T00:00:00	2024-11-08T08:00:00	7	Dirección del viento	3.22
172431	7	Sololá	719	Santiago Atitlán	14	Cerro de Oro	9	Septiembre	2023-09-14T00:00:00	2024-11-08T08:00:00	1	Precipitación	0
172432	7	Sololá	719	Santiago Atitlán	14	Cerro de Oro	9	Septiembre	2023-09-14T00:00:00	2024-11-08T08:00:00	8	Radiación solar	138
172433	7	Sololá	719	Santiago Atitlán	14	Cerro de Oro	9	Septiembre	2023-09-14T00:00:00	2024-11-08T09:00:00	2	Temperatura media	21.4
172434	7	Sololá	719	Santiago Atitlán	14	Cerro de Oro	9	Septiembre	2023-09-14T00:00:00	2024-11-08T09:00:00	4	Temperatura máxima	21.4
172435	7	Sololá	719	Santiago Atitlán	14	Cerro de Oro	9	Septiembre	2023-09-14T00:00:00	2024-11-08T09:00:00	3	Temperatura mínima	19.6
172436	7	Sololá	719	Santiago Atitlán	14	Cerro de Oro	9	Septiembre	2023-09-14T00:00:00	2024-11-08T09:00:00	5	Humedad	79
172437	7	Sololá	719	Santiago Atitlán	14	Cerro de Oro	9	Septiembre	2023-09-14T00:00:00	2024-11-08T09:00:00	6	Velocidad del viento	3.2
172438	7	Sololá	719	Santiago Atitlán	14	Cerro de Oro	9	Septiembre	2023-09-14T00:00:00	2024-11-08T09:00:00	7	Dirección del viento	3.22
172439	7	Sololá	719	Santiago Atitlán	14	Cerro de Oro	9	Septiembre	2023-09-14T00:00:00	2024-11-08T09:00:00	1	Precipitación	0
172440	7	Sololá	719	Santiago Atitlán	14	Cerro de Oro	9	Septiembre	2023-09-14T00:00:00	2024-11-08T09:00:00	8	Radiación solar	286
172441	7	Sololá	719	Santiago Atitlán	14	Cerro de Oro	9	Septiembre	2023-09-14T00:00:00	2024-11-08T10:00:00	2	Temperatura media	22.4
172442	7	Sololá	719	Santiago Atitlán	14	Cerro de Oro	9	Septiembre	2023-09-14T00:00:00	2024-11-08T10:00:00	4	Temperatura máxima	22.6
172443	7	Sololá	719	Santiago Atitlán	14	Cerro de Oro	9	Septiembre	2023-09-14T00:00:00	2024-11-08T10:00:00	3	Temperatura mínima	21.4
172444	7	Sololá	719	Santiago Atitlán	14	Cerro de Oro	9	Septiembre	2023-09-14T00:00:00	2024-11-08T10:00:00	5	Humedad	79
172445	7	Sololá	719	Santiago Atitlán	14	Cerro de Oro	9	Septiembre	2023-09-14T00:00:00	2024-11-08T10:00:00	6	Velocidad del viento	3.2
172446	7	Sololá	719	Santiago Atitlán	14	Cerro de Oro	9	Septiembre	2023-09-14T00:00:00	2024-11-08T10:00:00	7	Dirección del viento	3.22
172447	7	Sololá	719	Santiago Atitlán	14	Cerro de Oro	9	Septiembre	2023-09-14T00:00:00	2024-11-08T10:00:00	1	Precipitación	0
172448	7	Sololá	719	Santiago Atitlán	14	Cerro de Oro	9	Septiembre	2023-09-14T00:00:00	2024-11-08T10:00:00	8	Radiación solar	690
172449	7	Sololá	719	Santiago Atitlán	14	Cerro de Oro	9	Septiembre	2023-09-14T00:00:00	2024-11-08T11:00:00	2	Temperatura media	22.9
172450	7	Sololá	719	Santiago Atitlán	14	Cerro de Oro	9	Septiembre	2023-09-14T00:00:00	2024-11-08T11:00:00	4	Temperatura máxima	23.4
172451	7	Sololá	719	Santiago Atitlán	14	Cerro de Oro	9	Septiembre	2023-09-14T00:00:00	2024-11-08T11:00:00	3	Temperatura mínima	22.4
172452	7	Sololá	719	Santiago Atitlán	14	Cerro de Oro	9	Septiembre	2023-09-14T00:00:00	2024-11-08T11:00:00	5	Humedad	78
172453	7	Sololá	719	Santiago Atitlán	14	Cerro de Oro	9	Septiembre	2023-09-14T00:00:00	2024-11-08T11:00:00	6	Velocidad del viento	4.8
172454	7	Sololá	719	Santiago Atitlán	14	Cerro de Oro	9	Septiembre	2023-09-14T00:00:00	2024-11-08T11:00:00	7	Dirección del viento	4.83
172455	7	Sololá	719	Santiago Atitlán	14	Cerro de Oro	9	Septiembre	2023-09-14T00:00:00	2024-11-08T11:00:00	1	Precipitación	0
172456	7	Sololá	719	Santiago Atitlán	14	Cerro de Oro	9	Septiembre	2023-09-14T00:00:00	2024-11-08T11:00:00	8	Radiación solar	858
172457	7	Sololá	719	Santiago Atitlán	14	Cerro de Oro	9	Septiembre	2023-09-14T00:00:00	2024-11-08T12:00:00	2	Temperatura media	23.4
172458	7	Sololá	719	Santiago Atitlán	14	Cerro de Oro	9	Septiembre	2023-09-14T00:00:00	2024-11-08T12:00:00	4	Temperatura máxima	23.8
172459	7	Sololá	719	Santiago Atitlán	14	Cerro de Oro	9	Septiembre	2023-09-14T00:00:00	2024-11-08T12:00:00	3	Temperatura mínima	22.8
172460	7	Sololá	719	Santiago Atitlán	14	Cerro de Oro	9	Septiembre	2023-09-14T00:00:00	2024-11-08T12:00:00	5	Humedad	76
172461	7	Sololá	719	Santiago Atitlán	14	Cerro de Oro	9	Septiembre	2023-09-14T00:00:00	2024-11-08T12:00:00	6	Velocidad del viento	4.8
172462	7	Sololá	719	Santiago Atitlán	14	Cerro de Oro	9	Septiembre	2023-09-14T00:00:00	2024-11-08T12:00:00	7	Dirección del viento	4.83
172463	7	Sololá	719	Santiago Atitlán	14	Cerro de Oro	9	Septiembre	2023-09-14T00:00:00	2024-11-08T12:00:00	1	Precipitación	0
172464	7	Sololá	719	Santiago Atitlán	14	Cerro de Oro	9	Septiembre	2023-09-14T00:00:00	2024-11-08T12:00:00	8	Radiación solar	852
172465	7	Sololá	719	Santiago Atitlán	14	Cerro de Oro	9	Septiembre	2023-09-14T00:00:00	2024-11-08T13:00:00	2	Temperatura media	25.4
172466	7	Sololá	719	Santiago Atitlán	14	Cerro de Oro	9	Septiembre	2023-09-14T00:00:00	2024-11-08T13:00:00	4	Temperatura máxima	25.5
172467	7	Sololá	719	Santiago Atitlán	14	Cerro de Oro	9	Septiembre	2023-09-14T00:00:00	2024-11-08T13:00:00	3	Temperatura mínima	23.4
172468	7	Sololá	719	Santiago Atitlán	14	Cerro de Oro	9	Septiembre	2023-09-14T00:00:00	2024-11-08T13:00:00	5	Humedad	74
172469	7	Sololá	719	Santiago Atitlán	14	Cerro de Oro	9	Septiembre	2023-09-14T00:00:00	2024-11-08T13:00:00	6	Velocidad del viento	6.4
172470	7	Sololá	719	Santiago Atitlán	14	Cerro de Oro	9	Septiembre	2023-09-14T00:00:00	2024-11-08T13:00:00	7	Dirección del viento	6.44
172471	7	Sololá	719	Santiago Atitlán	14	Cerro de Oro	9	Septiembre	2023-09-14T00:00:00	2024-11-08T13:00:00	1	Precipitación	0
172472	7	Sololá	719	Santiago Atitlán	14	Cerro de Oro	9	Septiembre	2023-09-14T00:00:00	2024-11-08T13:00:00	8	Radiación solar	945
172473	7	Sololá	719	Santiago Atitlán	14	Cerro de Oro	9	Septiembre	2023-09-14T00:00:00	2024-11-08T14:00:00	2	Temperatura media	23.5
172474	7	Sololá	719	Santiago Atitlán	14	Cerro de Oro	9	Septiembre	2023-09-14T00:00:00	2024-11-08T14:00:00	4	Temperatura máxima	25.8
172475	7	Sololá	719	Santiago Atitlán	14	Cerro de Oro	9	Septiembre	2023-09-14T00:00:00	2024-11-08T14:00:00	3	Temperatura mínima	23.3
172476	7	Sololá	719	Santiago Atitlán	14	Cerro de Oro	9	Septiembre	2023-09-14T00:00:00	2024-11-08T14:00:00	5	Humedad	80
172477	7	Sololá	719	Santiago Atitlán	14	Cerro de Oro	9	Septiembre	2023-09-14T00:00:00	2024-11-08T14:00:00	6	Velocidad del viento	9.7
172478	7	Sololá	719	Santiago Atitlán	14	Cerro de Oro	9	Septiembre	2023-09-14T00:00:00	2024-11-08T14:00:00	7	Dirección del viento	9.66
172479	7	Sololá	719	Santiago Atitlán	14	Cerro de Oro	9	Septiembre	2023-09-14T00:00:00	2024-11-08T14:00:00	1	Precipitación	0
172480	7	Sololá	719	Santiago Atitlán	14	Cerro de Oro	9	Septiembre	2023-09-14T00:00:00	2024-11-08T14:00:00	8	Radiación solar	860
172481	7	Sololá	719	Santiago Atitlán	14	Cerro de Oro	9	Septiembre	2023-09-14T00:00:00	2024-11-08T15:00:00	2	Temperatura media	21.1
172482	7	Sololá	719	Santiago Atitlán	14	Cerro de Oro	9	Septiembre	2023-09-14T00:00:00	2024-11-08T15:00:00	4	Temperatura máxima	23.6
172483	7	Sololá	719	Santiago Atitlán	14	Cerro de Oro	9	Septiembre	2023-09-14T00:00:00	2024-11-08T15:00:00	3	Temperatura mínima	21
172484	7	Sololá	719	Santiago Atitlán	14	Cerro de Oro	9	Septiembre	2023-09-14T00:00:00	2024-11-08T15:00:00	5	Humedad	88
172485	7	Sololá	719	Santiago Atitlán	14	Cerro de Oro	9	Septiembre	2023-09-14T00:00:00	2024-11-08T15:00:00	6	Velocidad del viento	11.3
172486	7	Sololá	719	Santiago Atitlán	14	Cerro de Oro	9	Septiembre	2023-09-14T00:00:00	2024-11-08T15:00:00	7	Dirección del viento	11.27
172487	7	Sololá	719	Santiago Atitlán	14	Cerro de Oro	9	Septiembre	2023-09-14T00:00:00	2024-11-08T15:00:00	1	Precipitación	0
172488	7	Sololá	719	Santiago Atitlán	14	Cerro de Oro	9	Septiembre	2023-09-14T00:00:00	2024-11-08T15:00:00	8	Radiación solar	215
172489	7	Sololá	719	Santiago Atitlán	14	Cerro de Oro	9	Septiembre	2023-09-14T00:00:00	2024-11-08T16:00:00	2	Temperatura media	21.2
172490	7	Sololá	719	Santiago Atitlán	14	Cerro de Oro	9	Septiembre	2023-09-14T00:00:00	2024-11-08T16:00:00	4	Temperatura máxima	21.3
172491	7	Sololá	719	Santiago Atitlán	14	Cerro de Oro	9	Septiembre	2023-09-14T00:00:00	2024-11-08T16:00:00	3	Temperatura mínima	20.8
172492	7	Sololá	719	Santiago Atitlán	14	Cerro de Oro	9	Septiembre	2023-09-14T00:00:00	2024-11-08T16:00:00	5	Humedad	87
172493	7	Sololá	719	Santiago Atitlán	14	Cerro de Oro	9	Septiembre	2023-09-14T00:00:00	2024-11-08T16:00:00	6	Velocidad del viento	6.4
172494	7	Sololá	719	Santiago Atitlán	14	Cerro de Oro	9	Septiembre	2023-09-14T00:00:00	2024-11-08T16:00:00	7	Dirección del viento	6.44
172495	7	Sololá	719	Santiago Atitlán	14	Cerro de Oro	9	Septiembre	2023-09-14T00:00:00	2024-11-08T16:00:00	1	Precipitación	0
172496	7	Sololá	719	Santiago Atitlán	14	Cerro de Oro	9	Septiembre	2023-09-14T00:00:00	2024-11-08T16:00:00	8	Radiación solar	169
172497	7	Sololá	719	Santiago Atitlán	14	Cerro de Oro	9	Septiembre	2023-09-14T00:00:00	2024-11-08T17:00:00	2	Temperatura media	20.6
172498	7	Sololá	719	Santiago Atitlán	14	Cerro de Oro	9	Septiembre	2023-09-14T00:00:00	2024-11-08T17:00:00	4	Temperatura máxima	21.2
172499	7	Sololá	719	Santiago Atitlán	14	Cerro de Oro	9	Septiembre	2023-09-14T00:00:00	2024-11-08T17:00:00	3	Temperatura mínima	20.6
172500	7	Sololá	719	Santiago Atitlán	14	Cerro de Oro	9	Septiembre	2023-09-14T00:00:00	2024-11-08T17:00:00	5	Humedad	89
172501	7	Sololá	719	Santiago Atitlán	14	Cerro de Oro	9	Septiembre	2023-09-14T00:00:00	2024-11-08T17:00:00	6	Velocidad del viento	8
172502	7	Sololá	719	Santiago Atitlán	14	Cerro de Oro	9	Septiembre	2023-09-14T00:00:00	2024-11-08T17:00:00	7	Dirección del viento	8.05
172503	7	Sololá	719	Santiago Atitlán	14	Cerro de Oro	9	Septiembre	2023-09-14T00:00:00	2024-11-08T17:00:00	1	Precipitación	0
172504	7	Sololá	719	Santiago Atitlán	14	Cerro de Oro	9	Septiembre	2023-09-14T00:00:00	2024-11-08T17:00:00	8	Radiación solar	121
172505	7	Sololá	719	Santiago Atitlán	14	Cerro de Oro	9	Septiembre	2023-09-14T00:00:00	2024-11-08T18:00:00	2	Temperatura media	20.4
172506	7	Sololá	719	Santiago Atitlán	14	Cerro de Oro	9	Septiembre	2023-09-14T00:00:00	2024-11-08T18:00:00	4	Temperatura máxima	20.6
172507	7	Sololá	719	Santiago Atitlán	14	Cerro de Oro	9	Septiembre	2023-09-14T00:00:00	2024-11-08T18:00:00	3	Temperatura mínima	20.3
172508	7	Sololá	719	Santiago Atitlán	14	Cerro de Oro	9	Septiembre	2023-09-14T00:00:00	2024-11-08T18:00:00	5	Humedad	89
172509	7	Sololá	719	Santiago Atitlán	14	Cerro de Oro	9	Septiembre	2023-09-14T00:00:00	2024-11-08T18:00:00	6	Velocidad del viento	6.4
172510	7	Sololá	719	Santiago Atitlán	14	Cerro de Oro	9	Septiembre	2023-09-14T00:00:00	2024-11-08T18:00:00	7	Dirección del viento	6.44
172511	7	Sololá	719	Santiago Atitlán	14	Cerro de Oro	9	Septiembre	2023-09-14T00:00:00	2024-11-08T18:00:00	1	Precipitación	0
172512	7	Sololá	719	Santiago Atitlán	14	Cerro de Oro	9	Septiembre	2023-09-14T00:00:00	2024-11-08T18:00:00	8	Radiación solar	31
172513	7	Sololá	719	Santiago Atitlán	14	Cerro de Oro	9	Septiembre	2023-09-14T00:00:00	2024-11-08T19:00:00	2	Temperatura media	20.1
172514	7	Sololá	719	Santiago Atitlán	14	Cerro de Oro	9	Septiembre	2023-09-14T00:00:00	2024-11-08T19:00:00	4	Temperatura máxima	20.4
172515	7	Sololá	719	Santiago Atitlán	14	Cerro de Oro	9	Septiembre	2023-09-14T00:00:00	2024-11-08T19:00:00	3	Temperatura mínima	20
172516	7	Sololá	719	Santiago Atitlán	14	Cerro de Oro	9	Septiembre	2023-09-14T00:00:00	2024-11-08T19:00:00	5	Humedad	90
172517	7	Sololá	719	Santiago Atitlán	14	Cerro de Oro	9	Septiembre	2023-09-14T00:00:00	2024-11-08T19:00:00	6	Velocidad del viento	3.2
172518	7	Sololá	719	Santiago Atitlán	14	Cerro de Oro	9	Septiembre	2023-09-14T00:00:00	2024-11-08T19:00:00	7	Dirección del viento	3.22
172519	7	Sololá	719	Santiago Atitlán	14	Cerro de Oro	9	Septiembre	2023-09-14T00:00:00	2024-11-08T19:00:00	1	Precipitación	0
172520	7	Sololá	719	Santiago Atitlán	14	Cerro de Oro	9	Septiembre	2023-09-14T00:00:00	2024-11-08T19:00:00	8	Radiación solar	0
172521	7	Sololá	719	Santiago Atitlán	14	Cerro de Oro	9	Septiembre	2023-09-14T00:00:00	2024-11-08T20:00:00	2	Temperatura media	19.7
172522	7	Sololá	719	Santiago Atitlán	14	Cerro de Oro	9	Septiembre	2023-09-14T00:00:00	2024-11-08T20:00:00	4	Temperatura máxima	20.1
172523	7	Sololá	719	Santiago Atitlán	14	Cerro de Oro	9	Septiembre	2023-09-14T00:00:00	2024-11-08T20:00:00	3	Temperatura mínima	19.5
172524	7	Sololá	719	Santiago Atitlán	14	Cerro de Oro	9	Septiembre	2023-09-14T00:00:00	2024-11-08T20:00:00	5	Humedad	89
172525	7	Sololá	719	Santiago Atitlán	14	Cerro de Oro	9	Septiembre	2023-09-14T00:00:00	2024-11-08T20:00:00	6	Velocidad del viento	4.8
172526	7	Sololá	719	Santiago Atitlán	14	Cerro de Oro	9	Septiembre	2023-09-14T00:00:00	2024-11-08T20:00:00	7	Dirección del viento	4.83
172527	7	Sololá	719	Santiago Atitlán	14	Cerro de Oro	9	Septiembre	2023-09-14T00:00:00	2024-11-08T20:00:00	1	Precipitación	0
172528	7	Sololá	719	Santiago Atitlán	14	Cerro de Oro	9	Septiembre	2023-09-14T00:00:00	2024-11-08T20:00:00	8	Radiación solar	0
172529	7	Sololá	719	Santiago Atitlán	14	Cerro de Oro	9	Septiembre	2023-09-14T00:00:00	2024-11-08T21:00:00	2	Temperatura media	20.4
172530	7	Sololá	719	Santiago Atitlán	14	Cerro de Oro	9	Septiembre	2023-09-14T00:00:00	2024-11-08T21:00:00	4	Temperatura máxima	20.4
172531	7	Sololá	719	Santiago Atitlán	14	Cerro de Oro	9	Septiembre	2023-09-14T00:00:00	2024-11-08T21:00:00	3	Temperatura mínima	19.7
172532	7	Sololá	719	Santiago Atitlán	14	Cerro de Oro	9	Septiembre	2023-09-14T00:00:00	2024-11-08T21:00:00	5	Humedad	83
172533	7	Sololá	719	Santiago Atitlán	14	Cerro de Oro	9	Septiembre	2023-09-14T00:00:00	2024-11-08T21:00:00	6	Velocidad del viento	4.8
172534	7	Sololá	719	Santiago Atitlán	14	Cerro de Oro	9	Septiembre	2023-09-14T00:00:00	2024-11-08T21:00:00	7	Dirección del viento	4.83
172535	7	Sololá	719	Santiago Atitlán	14	Cerro de Oro	9	Septiembre	2023-09-14T00:00:00	2024-11-08T21:00:00	1	Precipitación	0
172536	7	Sololá	719	Santiago Atitlán	14	Cerro de Oro	9	Septiembre	2023-09-14T00:00:00	2024-11-08T21:00:00	8	Radiación solar	0
172537	7	Sololá	719	Santiago Atitlán	14	Cerro de Oro	9	Septiembre	2023-09-14T00:00:00	2024-11-08T22:00:00	2	Temperatura media	20.6
172538	7	Sololá	719	Santiago Atitlán	14	Cerro de Oro	9	Septiembre	2023-09-14T00:00:00	2024-11-08T22:00:00	4	Temperatura máxima	20.6
172539	7	Sololá	719	Santiago Atitlán	14	Cerro de Oro	9	Septiembre	2023-09-14T00:00:00	2024-11-08T22:00:00	3	Temperatura mínima	20.1
172540	7	Sololá	719	Santiago Atitlán	14	Cerro de Oro	9	Septiembre	2023-09-14T00:00:00	2024-11-08T22:00:00	5	Humedad	82
172541	7	Sololá	719	Santiago Atitlán	14	Cerro de Oro	9	Septiembre	2023-09-14T00:00:00	2024-11-08T22:00:00	6	Velocidad del viento	3.2
172542	7	Sololá	719	Santiago Atitlán	14	Cerro de Oro	9	Septiembre	2023-09-14T00:00:00	2024-11-08T22:00:00	7	Dirección del viento	3.22
172543	7	Sololá	719	Santiago Atitlán	14	Cerro de Oro	9	Septiembre	2023-09-14T00:00:00	2024-11-08T22:00:00	1	Precipitación	0
172544	7	Sololá	719	Santiago Atitlán	14	Cerro de Oro	9	Septiembre	2023-09-14T00:00:00	2024-11-08T22:00:00	8	Radiación solar	0
172545	7	Sololá	719	Santiago Atitlán	14	Cerro de Oro	9	Septiembre	2023-09-14T00:00:00	2024-11-08T23:00:00	2	Temperatura media	20.1
172546	7	Sololá	719	Santiago Atitlán	14	Cerro de Oro	9	Septiembre	2023-09-14T00:00:00	2024-11-08T23:00:00	4	Temperatura máxima	21.1
172547	7	Sololá	719	Santiago Atitlán	14	Cerro de Oro	9	Septiembre	2023-09-14T00:00:00	2024-11-08T23:00:00	3	Temperatura mínima	20.1
172548	7	Sololá	719	Santiago Atitlán	14	Cerro de Oro	9	Septiembre	2023-09-14T00:00:00	2024-11-08T23:00:00	5	Humedad	83
172549	7	Sololá	719	Santiago Atitlán	14	Cerro de Oro	9	Septiembre	2023-09-14T00:00:00	2024-11-08T23:00:00	6	Velocidad del viento	3.2
172550	7	Sololá	719	Santiago Atitlán	14	Cerro de Oro	9	Septiembre	2023-09-14T00:00:00	2024-11-08T23:00:00	7	Dirección del viento	3.22
172551	7	Sololá	719	Santiago Atitlán	14	Cerro de Oro	9	Septiembre	2023-09-14T00:00:00	2024-11-08T23:00:00	1	Precipitación	0
172552	7	Sololá	719	Santiago Atitlán	14	Cerro de Oro	9	Septiembre	2023-09-14T00:00:00	2024-11-08T23:00:00	8	Radiación solar	0
172553	7	Sololá	719	Santiago Atitlán	14	Cerro de Oro	9	Septiembre	2023-09-15T00:00:00	2024-11-08T00:00:00	2	Temperatura media	19.9
172554	7	Sololá	719	Santiago Atitlán	14	Cerro de Oro	9	Septiembre	2023-09-15T00:00:00	2024-11-08T00:00:00	4	Temperatura máxima	20.6
172555	7	Sololá	719	Santiago Atitlán	14	Cerro de Oro	9	Septiembre	2023-09-15T00:00:00	2024-11-08T00:00:00	3	Temperatura mínima	19.6
172556	7	Sololá	719	Santiago Atitlán	14	Cerro de Oro	9	Septiembre	2023-09-15T00:00:00	2024-11-08T00:00:00	5	Humedad	82
172557	7	Sololá	719	Santiago Atitlán	14	Cerro de Oro	9	Septiembre	2023-09-15T00:00:00	2024-11-08T00:00:00	6	Velocidad del viento	4.8
172558	7	Sololá	719	Santiago Atitlán	14	Cerro de Oro	9	Septiembre	2023-09-15T00:00:00	2024-11-08T00:00:00	7	Dirección del viento	4.83
172559	7	Sololá	719	Santiago Atitlán	14	Cerro de Oro	9	Septiembre	2023-09-15T00:00:00	2024-11-08T00:00:00	1	Precipitación	0
172560	7	Sololá	719	Santiago Atitlán	14	Cerro de Oro	9	Septiembre	2023-09-15T00:00:00	2024-11-08T00:00:00	8	Radiación solar	0
172561	7	Sololá	719	Santiago Atitlán	14	Cerro de Oro	9	Septiembre	2023-09-15T00:00:00	2024-11-08T01:00:00	2	Temperatura media	20.7
172562	7	Sololá	719	Santiago Atitlán	14	Cerro de Oro	9	Septiembre	2023-09-15T00:00:00	2024-11-08T01:00:00	4	Temperatura máxima	20.9
172563	7	Sololá	719	Santiago Atitlán	14	Cerro de Oro	9	Septiembre	2023-09-15T00:00:00	2024-11-08T01:00:00	3	Temperatura mínima	19.8
172564	7	Sololá	719	Santiago Atitlán	14	Cerro de Oro	9	Septiembre	2023-09-15T00:00:00	2024-11-08T01:00:00	5	Humedad	79
172565	7	Sololá	719	Santiago Atitlán	14	Cerro de Oro	9	Septiembre	2023-09-15T00:00:00	2024-11-08T01:00:00	6	Velocidad del viento	6.4
172566	7	Sololá	719	Santiago Atitlán	14	Cerro de Oro	9	Septiembre	2023-09-15T00:00:00	2024-11-08T01:00:00	7	Dirección del viento	6.44
172567	7	Sololá	719	Santiago Atitlán	14	Cerro de Oro	9	Septiembre	2023-09-15T00:00:00	2024-11-08T01:00:00	1	Precipitación	0
172568	7	Sololá	719	Santiago Atitlán	14	Cerro de Oro	9	Septiembre	2023-09-15T00:00:00	2024-11-08T01:00:00	8	Radiación solar	0
172569	7	Sololá	719	Santiago Atitlán	14	Cerro de Oro	9	Septiembre	2023-09-15T00:00:00	2024-11-08T02:00:00	2	Temperatura media	19.5
172570	7	Sololá	719	Santiago Atitlán	14	Cerro de Oro	9	Septiembre	2023-09-15T00:00:00	2024-11-08T02:00:00	4	Temperatura máxima	20.8
172571	7	Sololá	719	Santiago Atitlán	14	Cerro de Oro	9	Septiembre	2023-09-15T00:00:00	2024-11-08T02:00:00	3	Temperatura mínima	19.5
172572	7	Sololá	719	Santiago Atitlán	14	Cerro de Oro	9	Septiembre	2023-09-15T00:00:00	2024-11-08T02:00:00	5	Humedad	81
172573	7	Sololá	719	Santiago Atitlán	14	Cerro de Oro	9	Septiembre	2023-09-15T00:00:00	2024-11-08T02:00:00	6	Velocidad del viento	4.8
172574	7	Sololá	719	Santiago Atitlán	14	Cerro de Oro	9	Septiembre	2023-09-15T00:00:00	2024-11-08T02:00:00	7	Dirección del viento	4.83
172575	7	Sololá	719	Santiago Atitlán	14	Cerro de Oro	9	Septiembre	2023-09-15T00:00:00	2024-11-08T02:00:00	1	Precipitación	0
172576	7	Sololá	719	Santiago Atitlán	14	Cerro de Oro	9	Septiembre	2023-09-15T00:00:00	2024-11-08T02:00:00	8	Radiación solar	0
172577	7	Sololá	719	Santiago Atitlán	14	Cerro de Oro	9	Septiembre	2023-09-15T00:00:00	2024-11-08T03:00:00	2	Temperatura media	19.2
172578	7	Sololá	719	Santiago Atitlán	14	Cerro de Oro	9	Septiembre	2023-09-15T00:00:00	2024-11-08T03:00:00	4	Temperatura máxima	19.5
172579	7	Sololá	719	Santiago Atitlán	14	Cerro de Oro	9	Septiembre	2023-09-15T00:00:00	2024-11-08T03:00:00	3	Temperatura mínima	19.2
172580	7	Sololá	719	Santiago Atitlán	14	Cerro de Oro	9	Septiembre	2023-09-15T00:00:00	2024-11-08T03:00:00	5	Humedad	79
172581	7	Sololá	719	Santiago Atitlán	14	Cerro de Oro	9	Septiembre	2023-09-15T00:00:00	2024-11-08T03:00:00	6	Velocidad del viento	4.8
172582	7	Sololá	719	Santiago Atitlán	14	Cerro de Oro	9	Septiembre	2023-09-15T00:00:00	2024-11-08T03:00:00	7	Dirección del viento	4.83
172583	7	Sololá	719	Santiago Atitlán	14	Cerro de Oro	9	Septiembre	2023-09-15T00:00:00	2024-11-08T03:00:00	1	Precipitación	0
172584	7	Sololá	719	Santiago Atitlán	14	Cerro de Oro	9	Septiembre	2023-09-15T00:00:00	2024-11-08T03:00:00	8	Radiación solar	0
172585	7	Sololá	719	Santiago Atitlán	14	Cerro de Oro	9	Septiembre	2023-09-15T00:00:00	2024-11-08T04:00:00	2	Temperatura media	19.1
172586	7	Sololá	719	Santiago Atitlán	14	Cerro de Oro	9	Septiembre	2023-09-15T00:00:00	2024-11-08T04:00:00	4	Temperatura máxima	20.1
172587	7	Sololá	719	Santiago Atitlán	14	Cerro de Oro	9	Septiembre	2023-09-15T00:00:00	2024-11-08T04:00:00	3	Temperatura mínima	19.1
172588	7	Sololá	719	Santiago Atitlán	14	Cerro de Oro	9	Septiembre	2023-09-15T00:00:00	2024-11-08T04:00:00	5	Humedad	79
172589	7	Sololá	719	Santiago Atitlán	14	Cerro de Oro	9	Septiembre	2023-09-15T00:00:00	2024-11-08T04:00:00	6	Velocidad del viento	4.8
172590	7	Sololá	719	Santiago Atitlán	14	Cerro de Oro	9	Septiembre	2023-09-15T00:00:00	2024-11-08T04:00:00	7	Dirección del viento	4.83
172591	7	Sololá	719	Santiago Atitlán	14	Cerro de Oro	9	Septiembre	2023-09-15T00:00:00	2024-11-08T04:00:00	1	Precipitación	0
172592	7	Sololá	719	Santiago Atitlán	14	Cerro de Oro	9	Septiembre	2023-09-15T00:00:00	2024-11-08T04:00:00	8	Radiación solar	0
172593	7	Sololá	719	Santiago Atitlán	14	Cerro de Oro	9	Septiembre	2023-09-15T00:00:00	2024-11-08T05:00:00	2	Temperatura media	18.7
172594	7	Sololá	719	Santiago Atitlán	14	Cerro de Oro	9	Septiembre	2023-09-15T00:00:00	2024-11-08T05:00:00	4	Temperatura máxima	19.1
172595	7	Sololá	719	Santiago Atitlán	14	Cerro de Oro	9	Septiembre	2023-09-15T00:00:00	2024-11-08T05:00:00	3	Temperatura mínima	18.4
172596	7	Sololá	719	Santiago Atitlán	14	Cerro de Oro	9	Septiembre	2023-09-15T00:00:00	2024-11-08T05:00:00	5	Humedad	79
172597	7	Sololá	719	Santiago Atitlán	14	Cerro de Oro	9	Septiembre	2023-09-15T00:00:00	2024-11-08T05:00:00	6	Velocidad del viento	4.8
172598	7	Sololá	719	Santiago Atitlán	14	Cerro de Oro	9	Septiembre	2023-09-15T00:00:00	2024-11-08T05:00:00	7	Dirección del viento	4.83
172599	7	Sololá	719	Santiago Atitlán	14	Cerro de Oro	9	Septiembre	2023-09-15T00:00:00	2024-11-08T05:00:00	1	Precipitación	0
172600	7	Sololá	719	Santiago Atitlán	14	Cerro de Oro	9	Septiembre	2023-09-15T00:00:00	2024-11-08T05:00:00	8	Radiación solar	0
172601	7	Sololá	719	Santiago Atitlán	14	Cerro de Oro	9	Septiembre	2023-09-15T00:00:00	2024-11-08T06:00:00	2	Temperatura media	19.2
172602	7	Sololá	719	Santiago Atitlán	14	Cerro de Oro	9	Septiembre	2023-09-15T00:00:00	2024-11-08T06:00:00	4	Temperatura máxima	19.2
172603	7	Sololá	719	Santiago Atitlán	14	Cerro de Oro	9	Septiembre	2023-09-15T00:00:00	2024-11-08T06:00:00	3	Temperatura mínima	18.3
172604	7	Sololá	719	Santiago Atitlán	14	Cerro de Oro	9	Septiembre	2023-09-15T00:00:00	2024-11-08T06:00:00	5	Humedad	77
172605	7	Sololá	719	Santiago Atitlán	14	Cerro de Oro	9	Septiembre	2023-09-15T00:00:00	2024-11-08T06:00:00	6	Velocidad del viento	4.8
172606	7	Sololá	719	Santiago Atitlán	14	Cerro de Oro	9	Septiembre	2023-09-15T00:00:00	2024-11-08T06:00:00	7	Dirección del viento	4.83
172607	7	Sololá	719	Santiago Atitlán	14	Cerro de Oro	9	Septiembre	2023-09-15T00:00:00	2024-11-08T06:00:00	1	Precipitación	0
172608	7	Sololá	719	Santiago Atitlán	14	Cerro de Oro	9	Septiembre	2023-09-15T00:00:00	2024-11-08T06:00:00	8	Radiación solar	1
172609	7	Sololá	719	Santiago Atitlán	14	Cerro de Oro	9	Septiembre	2023-09-15T00:00:00	2024-11-08T07:00:00	2	Temperatura media	20.3
172610	7	Sololá	719	Santiago Atitlán	14	Cerro de Oro	9	Septiembre	2023-09-15T00:00:00	2024-11-08T07:00:00	4	Temperatura máxima	20.3
172611	7	Sololá	719	Santiago Atitlán	14	Cerro de Oro	9	Septiembre	2023-09-15T00:00:00	2024-11-08T07:00:00	3	Temperatura mínima	19
172612	7	Sololá	719	Santiago Atitlán	14	Cerro de Oro	9	Septiembre	2023-09-15T00:00:00	2024-11-08T07:00:00	5	Humedad	79
172613	7	Sololá	719	Santiago Atitlán	14	Cerro de Oro	9	Septiembre	2023-09-15T00:00:00	2024-11-08T07:00:00	6	Velocidad del viento	4.8
172614	7	Sololá	719	Santiago Atitlán	14	Cerro de Oro	9	Septiembre	2023-09-15T00:00:00	2024-11-08T07:00:00	7	Dirección del viento	4.83
172615	7	Sololá	719	Santiago Atitlán	14	Cerro de Oro	9	Septiembre	2023-09-15T00:00:00	2024-11-08T07:00:00	1	Precipitación	0
172616	7	Sololá	719	Santiago Atitlán	14	Cerro de Oro	9	Septiembre	2023-09-15T00:00:00	2024-11-08T07:00:00	8	Radiación solar	55
172617	7	Sololá	719	Santiago Atitlán	14	Cerro de Oro	9	Septiembre	2023-09-15T00:00:00	2024-11-08T08:00:00	2	Temperatura media	22.3
172618	7	Sololá	719	Santiago Atitlán	14	Cerro de Oro	9	Septiembre	2023-09-15T00:00:00	2024-11-08T08:00:00	4	Temperatura máxima	22.3
172619	7	Sololá	719	Santiago Atitlán	14	Cerro de Oro	9	Septiembre	2023-09-15T00:00:00	2024-11-08T08:00:00	3	Temperatura mínima	20.3
172620	7	Sololá	719	Santiago Atitlán	14	Cerro de Oro	9	Septiembre	2023-09-15T00:00:00	2024-11-08T08:00:00	5	Humedad	71
172621	7	Sololá	719	Santiago Atitlán	14	Cerro de Oro	9	Septiembre	2023-09-15T00:00:00	2024-11-08T08:00:00	6	Velocidad del viento	3.2
172622	7	Sololá	719	Santiago Atitlán	14	Cerro de Oro	9	Septiembre	2023-09-15T00:00:00	2024-11-08T08:00:00	7	Dirección del viento	3.22
172623	7	Sololá	719	Santiago Atitlán	14	Cerro de Oro	9	Septiembre	2023-09-15T00:00:00	2024-11-08T08:00:00	1	Precipitación	0
172624	7	Sololá	719	Santiago Atitlán	14	Cerro de Oro	9	Septiembre	2023-09-15T00:00:00	2024-11-08T08:00:00	8	Radiación solar	241
172625	7	Sololá	719	Santiago Atitlán	14	Cerro de Oro	9	Septiembre	2023-09-15T00:00:00	2024-11-08T09:00:00	2	Temperatura media	23.6
172626	7	Sololá	719	Santiago Atitlán	14	Cerro de Oro	9	Septiembre	2023-09-15T00:00:00	2024-11-08T09:00:00	4	Temperatura máxima	23.8
172627	7	Sololá	719	Santiago Atitlán	14	Cerro de Oro	9	Septiembre	2023-09-15T00:00:00	2024-11-08T09:00:00	3	Temperatura mínima	22.4
172628	7	Sololá	719	Santiago Atitlán	14	Cerro de Oro	9	Septiembre	2023-09-15T00:00:00	2024-11-08T09:00:00	5	Humedad	65
172629	7	Sololá	719	Santiago Atitlán	14	Cerro de Oro	9	Septiembre	2023-09-15T00:00:00	2024-11-08T09:00:00	6	Velocidad del viento	3.2
172630	7	Sololá	719	Santiago Atitlán	14	Cerro de Oro	9	Septiembre	2023-09-15T00:00:00	2024-11-08T09:00:00	7	Dirección del viento	3.22
172631	7	Sololá	719	Santiago Atitlán	14	Cerro de Oro	9	Septiembre	2023-09-15T00:00:00	2024-11-08T09:00:00	1	Precipitación	0
172632	7	Sololá	719	Santiago Atitlán	14	Cerro de Oro	9	Septiembre	2023-09-15T00:00:00	2024-11-08T09:00:00	8	Radiación solar	405
172633	7	Sololá	719	Santiago Atitlán	14	Cerro de Oro	9	Septiembre	2023-09-15T00:00:00	2024-11-08T10:00:00	2	Temperatura media	23.8
172634	7	Sololá	719	Santiago Atitlán	14	Cerro de Oro	9	Septiembre	2023-09-15T00:00:00	2024-11-08T10:00:00	4	Temperatura máxima	24.1
172635	7	Sololá	719	Santiago Atitlán	14	Cerro de Oro	9	Septiembre	2023-09-15T00:00:00	2024-11-08T10:00:00	3	Temperatura mínima	23.4
172636	7	Sololá	719	Santiago Atitlán	14	Cerro de Oro	9	Septiembre	2023-09-15T00:00:00	2024-11-08T10:00:00	5	Humedad	66
172637	7	Sololá	719	Santiago Atitlán	14	Cerro de Oro	9	Septiembre	2023-09-15T00:00:00	2024-11-08T10:00:00	6	Velocidad del viento	3.2
172638	7	Sololá	719	Santiago Atitlán	14	Cerro de Oro	9	Septiembre	2023-09-15T00:00:00	2024-11-08T10:00:00	7	Dirección del viento	3.22
172639	7	Sololá	719	Santiago Atitlán	14	Cerro de Oro	9	Septiembre	2023-09-15T00:00:00	2024-11-08T10:00:00	1	Precipitación	0
172640	7	Sololá	719	Santiago Atitlán	14	Cerro de Oro	9	Septiembre	2023-09-15T00:00:00	2024-11-08T10:00:00	8	Radiación solar	701
172641	7	Sololá	719	Santiago Atitlán	14	Cerro de Oro	9	Septiembre	2023-09-15T00:00:00	2024-11-08T11:00:00	2	Temperatura media	24.8
172642	7	Sololá	719	Santiago Atitlán	14	Cerro de Oro	9	Septiembre	2023-09-15T00:00:00	2024-11-08T11:00:00	4	Temperatura máxima	24.8
172643	7	Sololá	719	Santiago Atitlán	14	Cerro de Oro	9	Septiembre	2023-09-15T00:00:00	2024-11-08T11:00:00	3	Temperatura mínima	23.7
172644	7	Sololá	719	Santiago Atitlán	14	Cerro de Oro	9	Septiembre	2023-09-15T00:00:00	2024-11-08T11:00:00	5	Humedad	69
172645	7	Sololá	719	Santiago Atitlán	14	Cerro de Oro	9	Septiembre	2023-09-15T00:00:00	2024-11-08T11:00:00	6	Velocidad del viento	4.8
172646	7	Sololá	719	Santiago Atitlán	14	Cerro de Oro	9	Septiembre	2023-09-15T00:00:00	2024-11-08T11:00:00	7	Dirección del viento	4.83
172647	7	Sololá	719	Santiago Atitlán	14	Cerro de Oro	9	Septiembre	2023-09-15T00:00:00	2024-11-08T11:00:00	1	Precipitación	0
172648	7	Sololá	719	Santiago Atitlán	14	Cerro de Oro	9	Septiembre	2023-09-15T00:00:00	2024-11-08T11:00:00	8	Radiación solar	854
172649	7	Sololá	719	Santiago Atitlán	14	Cerro de Oro	9	Septiembre	2023-09-15T00:00:00	2024-11-08T12:00:00	2	Temperatura media	25.3
172650	7	Sololá	719	Santiago Atitlán	14	Cerro de Oro	9	Septiembre	2023-09-15T00:00:00	2024-11-08T12:00:00	4	Temperatura máxima	26.3
172651	7	Sololá	719	Santiago Atitlán	14	Cerro de Oro	9	Septiembre	2023-09-15T00:00:00	2024-11-08T12:00:00	3	Temperatura mínima	24.6
172652	7	Sololá	719	Santiago Atitlán	14	Cerro de Oro	9	Septiembre	2023-09-15T00:00:00	2024-11-08T12:00:00	5	Humedad	73
172653	7	Sololá	719	Santiago Atitlán	14	Cerro de Oro	9	Septiembre	2023-09-15T00:00:00	2024-11-08T12:00:00	6	Velocidad del viento	6.4
172654	7	Sololá	719	Santiago Atitlán	14	Cerro de Oro	9	Septiembre	2023-09-15T00:00:00	2024-11-08T12:00:00	7	Dirección del viento	6.44
172655	7	Sololá	719	Santiago Atitlán	14	Cerro de Oro	9	Septiembre	2023-09-15T00:00:00	2024-11-08T12:00:00	1	Precipitación	0
172656	7	Sololá	719	Santiago Atitlán	14	Cerro de Oro	9	Septiembre	2023-09-15T00:00:00	2024-11-08T12:00:00	8	Radiación solar	936
172657	7	Sololá	719	Santiago Atitlán	14	Cerro de Oro	9	Septiembre	2023-09-15T00:00:00	2024-11-08T13:00:00	2	Temperatura media	25.5
172658	7	Sololá	719	Santiago Atitlán	14	Cerro de Oro	9	Septiembre	2023-09-15T00:00:00	2024-11-08T13:00:00	4	Temperatura máxima	25.8
172659	7	Sololá	719	Santiago Atitlán	14	Cerro de Oro	9	Septiembre	2023-09-15T00:00:00	2024-11-08T13:00:00	3	Temperatura mínima	24.9
172660	7	Sololá	719	Santiago Atitlán	14	Cerro de Oro	9	Septiembre	2023-09-15T00:00:00	2024-11-08T13:00:00	5	Humedad	71
172661	7	Sololá	719	Santiago Atitlán	14	Cerro de Oro	9	Septiembre	2023-09-15T00:00:00	2024-11-08T13:00:00	6	Velocidad del viento	9.7
172662	7	Sololá	719	Santiago Atitlán	14	Cerro de Oro	9	Septiembre	2023-09-15T00:00:00	2024-11-08T13:00:00	7	Dirección del viento	9.66
172663	7	Sololá	719	Santiago Atitlán	14	Cerro de Oro	9	Septiembre	2023-09-15T00:00:00	2024-11-08T13:00:00	1	Precipitación	0
172664	7	Sololá	719	Santiago Atitlán	14	Cerro de Oro	9	Septiembre	2023-09-15T00:00:00	2024-11-08T13:00:00	8	Radiación solar	982
172665	7	Sololá	719	Santiago Atitlán	14	Cerro de Oro	9	Septiembre	2023-09-15T00:00:00	2024-11-08T14:00:00	2	Temperatura media	21.3
172666	7	Sololá	719	Santiago Atitlán	14	Cerro de Oro	9	Septiembre	2023-09-15T00:00:00	2024-11-08T14:00:00	4	Temperatura máxima	25.7
172667	7	Sololá	719	Santiago Atitlán	14	Cerro de Oro	9	Septiembre	2023-09-15T00:00:00	2024-11-08T14:00:00	3	Temperatura mínima	21.3
172668	7	Sololá	719	Santiago Atitlán	14	Cerro de Oro	9	Septiembre	2023-09-15T00:00:00	2024-11-08T14:00:00	5	Humedad	83
172669	7	Sololá	719	Santiago Atitlán	14	Cerro de Oro	9	Septiembre	2023-09-15T00:00:00	2024-11-08T14:00:00	6	Velocidad del viento	12.9
172670	7	Sololá	719	Santiago Atitlán	14	Cerro de Oro	9	Septiembre	2023-09-15T00:00:00	2024-11-08T14:00:00	7	Dirección del viento	12.87
172671	7	Sololá	719	Santiago Atitlán	14	Cerro de Oro	9	Septiembre	2023-09-15T00:00:00	2024-11-08T14:00:00	1	Precipitación	0
172672	7	Sololá	719	Santiago Atitlán	14	Cerro de Oro	9	Septiembre	2023-09-15T00:00:00	2024-11-08T14:00:00	8	Radiación solar	283
172673	7	Sololá	719	Santiago Atitlán	14	Cerro de Oro	9	Septiembre	2023-09-15T00:00:00	2024-11-08T15:00:00	2	Temperatura media	20.7
172674	7	Sololá	719	Santiago Atitlán	14	Cerro de Oro	9	Septiembre	2023-09-15T00:00:00	2024-11-08T15:00:00	4	Temperatura máxima	22.7
172675	7	Sololá	719	Santiago Atitlán	14	Cerro de Oro	9	Septiembre	2023-09-15T00:00:00	2024-11-08T15:00:00	3	Temperatura mínima	20.6
172676	7	Sololá	719	Santiago Atitlán	14	Cerro de Oro	9	Septiembre	2023-09-15T00:00:00	2024-11-08T15:00:00	5	Humedad	87
172677	7	Sololá	719	Santiago Atitlán	14	Cerro de Oro	9	Septiembre	2023-09-15T00:00:00	2024-11-08T15:00:00	6	Velocidad del viento	12.9
172678	7	Sololá	719	Santiago Atitlán	14	Cerro de Oro	9	Septiembre	2023-09-15T00:00:00	2024-11-08T15:00:00	7	Dirección del viento	12.87
172679	7	Sololá	719	Santiago Atitlán	14	Cerro de Oro	9	Septiembre	2023-09-15T00:00:00	2024-11-08T15:00:00	1	Precipitación	0
172680	7	Sololá	719	Santiago Atitlán	14	Cerro de Oro	9	Septiembre	2023-09-15T00:00:00	2024-11-08T15:00:00	8	Radiación solar	252
172681	7	Sololá	719	Santiago Atitlán	14	Cerro de Oro	9	Septiembre	2023-09-15T00:00:00	2024-11-08T16:00:00	2	Temperatura media	21.1
172682	7	Sololá	719	Santiago Atitlán	14	Cerro de Oro	9	Septiembre	2023-09-15T00:00:00	2024-11-08T16:00:00	4	Temperatura máxima	21.5
172683	7	Sololá	719	Santiago Atitlán	14	Cerro de Oro	9	Septiembre	2023-09-15T00:00:00	2024-11-08T16:00:00	3	Temperatura mínima	20.7
172684	7	Sololá	719	Santiago Atitlán	14	Cerro de Oro	9	Septiembre	2023-09-15T00:00:00	2024-11-08T16:00:00	5	Humedad	86
172685	7	Sololá	719	Santiago Atitlán	14	Cerro de Oro	9	Septiembre	2023-09-15T00:00:00	2024-11-08T16:00:00	6	Velocidad del viento	9.7
172686	7	Sololá	719	Santiago Atitlán	14	Cerro de Oro	9	Septiembre	2023-09-15T00:00:00	2024-11-08T16:00:00	7	Dirección del viento	9.66
172687	7	Sololá	719	Santiago Atitlán	14	Cerro de Oro	9	Septiembre	2023-09-15T00:00:00	2024-11-08T16:00:00	1	Precipitación	0
172688	7	Sololá	719	Santiago Atitlán	14	Cerro de Oro	9	Septiembre	2023-09-15T00:00:00	2024-11-08T16:00:00	8	Radiación solar	247
172689	7	Sololá	719	Santiago Atitlán	14	Cerro de Oro	9	Septiembre	2023-09-15T00:00:00	2024-11-08T17:00:00	2	Temperatura media	19.8
172690	7	Sololá	719	Santiago Atitlán	14	Cerro de Oro	9	Septiembre	2023-09-15T00:00:00	2024-11-08T17:00:00	4	Temperatura máxima	21.2
172691	7	Sololá	719	Santiago Atitlán	14	Cerro de Oro	9	Septiembre	2023-09-15T00:00:00	2024-11-08T17:00:00	3	Temperatura mínima	19.8
172692	7	Sololá	719	Santiago Atitlán	14	Cerro de Oro	9	Septiembre	2023-09-15T00:00:00	2024-11-08T17:00:00	5	Humedad	89
172693	7	Sololá	719	Santiago Atitlán	14	Cerro de Oro	9	Septiembre	2023-09-15T00:00:00	2024-11-08T17:00:00	6	Velocidad del viento	4.8
172694	7	Sololá	719	Santiago Atitlán	14	Cerro de Oro	9	Septiembre	2023-09-15T00:00:00	2024-11-08T17:00:00	7	Dirección del viento	4.83
172695	7	Sololá	719	Santiago Atitlán	14	Cerro de Oro	9	Septiembre	2023-09-15T00:00:00	2024-11-08T17:00:00	1	Precipitación	0
172696	7	Sololá	719	Santiago Atitlán	14	Cerro de Oro	9	Septiembre	2023-09-15T00:00:00	2024-11-08T17:00:00	8	Radiación solar	92
172697	7	Sololá	719	Santiago Atitlán	14	Cerro de Oro	9	Septiembre	2023-09-15T00:00:00	2024-11-08T18:00:00	2	Temperatura media	18.9
172698	7	Sololá	719	Santiago Atitlán	14	Cerro de Oro	9	Septiembre	2023-09-15T00:00:00	2024-11-08T18:00:00	4	Temperatura máxima	19.9
172699	7	Sololá	719	Santiago Atitlán	14	Cerro de Oro	9	Septiembre	2023-09-15T00:00:00	2024-11-08T18:00:00	3	Temperatura mínima	18.9
172700	7	Sololá	719	Santiago Atitlán	14	Cerro de Oro	9	Septiembre	2023-09-15T00:00:00	2024-11-08T18:00:00	5	Humedad	92
172701	7	Sololá	719	Santiago Atitlán	14	Cerro de Oro	9	Septiembre	2023-09-15T00:00:00	2024-11-08T18:00:00	6	Velocidad del viento	3.2
172702	7	Sololá	719	Santiago Atitlán	14	Cerro de Oro	9	Septiembre	2023-09-15T00:00:00	2024-11-08T18:00:00	7	Dirección del viento	3.22
172703	7	Sololá	719	Santiago Atitlán	14	Cerro de Oro	9	Septiembre	2023-09-15T00:00:00	2024-11-08T18:00:00	1	Precipitación	0
172704	7	Sololá	719	Santiago Atitlán	14	Cerro de Oro	9	Septiembre	2023-09-15T00:00:00	2024-11-08T18:00:00	8	Radiación solar	24
172705	7	Sololá	719	Santiago Atitlán	14	Cerro de Oro	9	Septiembre	2023-09-15T00:00:00	2024-11-08T19:00:00	2	Temperatura media	18.7
172706	7	Sololá	719	Santiago Atitlán	14	Cerro de Oro	9	Septiembre	2023-09-15T00:00:00	2024-11-08T19:00:00	4	Temperatura máxima	19
172707	7	Sololá	719	Santiago Atitlán	14	Cerro de Oro	9	Septiembre	2023-09-15T00:00:00	2024-11-08T19:00:00	3	Temperatura mínima	18.6
172708	7	Sololá	719	Santiago Atitlán	14	Cerro de Oro	9	Septiembre	2023-09-15T00:00:00	2024-11-08T19:00:00	5	Humedad	91
172709	7	Sololá	719	Santiago Atitlán	14	Cerro de Oro	9	Septiembre	2023-09-15T00:00:00	2024-11-08T19:00:00	6	Velocidad del viento	3.2
172710	7	Sololá	719	Santiago Atitlán	14	Cerro de Oro	9	Septiembre	2023-09-15T00:00:00	2024-11-08T19:00:00	7	Dirección del viento	3.22
172711	7	Sololá	719	Santiago Atitlán	14	Cerro de Oro	9	Septiembre	2023-09-15T00:00:00	2024-11-08T19:00:00	1	Precipitación	0
172712	7	Sololá	719	Santiago Atitlán	14	Cerro de Oro	9	Septiembre	2023-09-15T00:00:00	2024-11-08T19:00:00	8	Radiación solar	0
172713	7	Sololá	719	Santiago Atitlán	14	Cerro de Oro	9	Septiembre	2023-09-15T00:00:00	2024-11-08T20:00:00	2	Temperatura media	18.5
172714	7	Sololá	719	Santiago Atitlán	14	Cerro de Oro	9	Septiembre	2023-09-15T00:00:00	2024-11-08T20:00:00	4	Temperatura máxima	18.7
172715	7	Sololá	719	Santiago Atitlán	14	Cerro de Oro	9	Septiembre	2023-09-15T00:00:00	2024-11-08T20:00:00	3	Temperatura mínima	18.3
172716	7	Sololá	719	Santiago Atitlán	14	Cerro de Oro	9	Septiembre	2023-09-15T00:00:00	2024-11-08T20:00:00	5	Humedad	91
172717	7	Sololá	719	Santiago Atitlán	14	Cerro de Oro	9	Septiembre	2023-09-15T00:00:00	2024-11-08T20:00:00	6	Velocidad del viento	3.2
172718	7	Sololá	719	Santiago Atitlán	14	Cerro de Oro	9	Septiembre	2023-09-15T00:00:00	2024-11-08T20:00:00	7	Dirección del viento	3.22
172719	7	Sololá	719	Santiago Atitlán	14	Cerro de Oro	9	Septiembre	2023-09-15T00:00:00	2024-11-08T20:00:00	1	Precipitación	0
172720	7	Sololá	719	Santiago Atitlán	14	Cerro de Oro	9	Septiembre	2023-09-15T00:00:00	2024-11-08T20:00:00	8	Radiación solar	0
172721	7	Sololá	719	Santiago Atitlán	14	Cerro de Oro	9	Septiembre	2023-09-15T00:00:00	2024-11-08T21:00:00	2	Temperatura media	18.4
172722	7	Sololá	719	Santiago Atitlán	14	Cerro de Oro	9	Septiembre	2023-09-15T00:00:00	2024-11-08T21:00:00	4	Temperatura máxima	18.6
172723	7	Sololá	719	Santiago Atitlán	14	Cerro de Oro	9	Septiembre	2023-09-15T00:00:00	2024-11-08T21:00:00	3	Temperatura mínima	18.4
172724	7	Sololá	719	Santiago Atitlán	14	Cerro de Oro	9	Septiembre	2023-09-15T00:00:00	2024-11-08T21:00:00	5	Humedad	91
172725	7	Sololá	719	Santiago Atitlán	14	Cerro de Oro	9	Septiembre	2023-09-15T00:00:00	2024-11-08T21:00:00	6	Velocidad del viento	3.2
172726	7	Sololá	719	Santiago Atitlán	14	Cerro de Oro	9	Septiembre	2023-09-15T00:00:00	2024-11-08T21:00:00	7	Dirección del viento	3.22
172727	7	Sololá	719	Santiago Atitlán	14	Cerro de Oro	9	Septiembre	2023-09-15T00:00:00	2024-11-08T21:00:00	1	Precipitación	0
172728	7	Sololá	719	Santiago Atitlán	14	Cerro de Oro	9	Septiembre	2023-09-15T00:00:00	2024-11-08T21:00:00	8	Radiación solar	0
172729	7	Sololá	719	Santiago Atitlán	14	Cerro de Oro	9	Septiembre	2023-09-15T00:00:00	2024-11-08T22:00:00	2	Temperatura media	18.4
172730	7	Sololá	719	Santiago Atitlán	14	Cerro de Oro	9	Septiembre	2023-09-15T00:00:00	2024-11-08T22:00:00	4	Temperatura máxima	18.7
172731	7	Sololá	719	Santiago Atitlán	14	Cerro de Oro	9	Septiembre	2023-09-15T00:00:00	2024-11-08T22:00:00	3	Temperatura mínima	18.1
172732	7	Sololá	719	Santiago Atitlán	14	Cerro de Oro	9	Septiembre	2023-09-15T00:00:00	2024-11-08T22:00:00	5	Humedad	90
172733	7	Sololá	719	Santiago Atitlán	14	Cerro de Oro	9	Septiembre	2023-09-15T00:00:00	2024-11-08T22:00:00	6	Velocidad del viento	3.2
172734	7	Sololá	719	Santiago Atitlán	14	Cerro de Oro	9	Septiembre	2023-09-15T00:00:00	2024-11-08T22:00:00	7	Dirección del viento	3.22
172735	7	Sololá	719	Santiago Atitlán	14	Cerro de Oro	9	Septiembre	2023-09-15T00:00:00	2024-11-08T22:00:00	1	Precipitación	0
172736	7	Sololá	719	Santiago Atitlán	14	Cerro de Oro	9	Septiembre	2023-09-15T00:00:00	2024-11-08T22:00:00	8	Radiación solar	0
172737	7	Sololá	719	Santiago Atitlán	14	Cerro de Oro	9	Septiembre	2023-09-15T00:00:00	2024-11-08T23:00:00	2	Temperatura media	18.2
172738	7	Sololá	719	Santiago Atitlán	14	Cerro de Oro	9	Septiembre	2023-09-15T00:00:00	2024-11-08T23:00:00	4	Temperatura máxima	18.6
172739	7	Sololá	719	Santiago Atitlán	14	Cerro de Oro	9	Septiembre	2023-09-15T00:00:00	2024-11-08T23:00:00	3	Temperatura mínima	17.8
172740	7	Sololá	719	Santiago Atitlán	14	Cerro de Oro	9	Septiembre	2023-09-15T00:00:00	2024-11-08T23:00:00	5	Humedad	91
172741	7	Sololá	719	Santiago Atitlán	14	Cerro de Oro	9	Septiembre	2023-09-15T00:00:00	2024-11-08T23:00:00	6	Velocidad del viento	3.2
172742	7	Sololá	719	Santiago Atitlán	14	Cerro de Oro	9	Septiembre	2023-09-15T00:00:00	2024-11-08T23:00:00	7	Dirección del viento	3.22
172743	7	Sololá	719	Santiago Atitlán	14	Cerro de Oro	9	Septiembre	2023-09-15T00:00:00	2024-11-08T23:00:00	1	Precipitación	0
172744	7	Sololá	719	Santiago Atitlán	14	Cerro de Oro	9	Septiembre	2023-09-15T00:00:00	2024-11-08T23:00:00	8	Radiación solar	0
172745	7	Sololá	719	Santiago Atitlán	14	Cerro de Oro	9	Septiembre	2023-09-16T00:00:00	2024-11-08T00:00:00	2	Temperatura media	18.3
172746	7	Sololá	719	Santiago Atitlán	14	Cerro de Oro	9	Septiembre	2023-09-16T00:00:00	2024-11-08T00:00:00	4	Temperatura máxima	18.5
172747	7	Sololá	719	Santiago Atitlán	14	Cerro de Oro	9	Septiembre	2023-09-16T00:00:00	2024-11-08T00:00:00	3	Temperatura mínima	18.1
172748	7	Sololá	719	Santiago Atitlán	14	Cerro de Oro	9	Septiembre	2023-09-16T00:00:00	2024-11-08T00:00:00	5	Humedad	91
172749	7	Sololá	719	Santiago Atitlán	14	Cerro de Oro	9	Septiembre	2023-09-16T00:00:00	2024-11-08T00:00:00	6	Velocidad del viento	3.2
172750	7	Sololá	719	Santiago Atitlán	14	Cerro de Oro	9	Septiembre	2023-09-16T00:00:00	2024-11-08T00:00:00	7	Dirección del viento	3.22
172751	7	Sololá	719	Santiago Atitlán	14	Cerro de Oro	9	Septiembre	2023-09-16T00:00:00	2024-11-08T00:00:00	1	Precipitación	0
172752	7	Sololá	719	Santiago Atitlán	14	Cerro de Oro	9	Septiembre	2023-09-16T00:00:00	2024-11-08T00:00:00	8	Radiación solar	0
172753	7	Sololá	719	Santiago Atitlán	14	Cerro de Oro	9	Septiembre	2023-09-16T00:00:00	2024-11-08T01:00:00	2	Temperatura media	18.1
172754	7	Sololá	719	Santiago Atitlán	14	Cerro de Oro	9	Septiembre	2023-09-16T00:00:00	2024-11-08T01:00:00	4	Temperatura máxima	18.8
172755	7	Sololá	719	Santiago Atitlán	14	Cerro de Oro	9	Septiembre	2023-09-16T00:00:00	2024-11-08T01:00:00	3	Temperatura mínima	17.6
172756	7	Sololá	719	Santiago Atitlán	14	Cerro de Oro	9	Septiembre	2023-09-16T00:00:00	2024-11-08T01:00:00	5	Humedad	86
172757	7	Sololá	719	Santiago Atitlán	14	Cerro de Oro	9	Septiembre	2023-09-16T00:00:00	2024-11-08T01:00:00	6	Velocidad del viento	4.8
172758	7	Sololá	719	Santiago Atitlán	14	Cerro de Oro	9	Septiembre	2023-09-16T00:00:00	2024-11-08T01:00:00	7	Dirección del viento	4.83
172759	7	Sololá	719	Santiago Atitlán	14	Cerro de Oro	9	Septiembre	2023-09-16T00:00:00	2024-11-08T01:00:00	1	Precipitación	0
172760	7	Sololá	719	Santiago Atitlán	14	Cerro de Oro	9	Septiembre	2023-09-16T00:00:00	2024-11-08T01:00:00	8	Radiación solar	0
172761	7	Sololá	719	Santiago Atitlán	14	Cerro de Oro	9	Septiembre	2023-09-16T00:00:00	2024-11-08T02:00:00	2	Temperatura media	18.4
172762	7	Sololá	719	Santiago Atitlán	14	Cerro de Oro	9	Septiembre	2023-09-16T00:00:00	2024-11-08T02:00:00	4	Temperatura máxima	18.4
172763	7	Sololá	719	Santiago Atitlán	14	Cerro de Oro	9	Septiembre	2023-09-16T00:00:00	2024-11-08T02:00:00	3	Temperatura mínima	17.7
172764	7	Sololá	719	Santiago Atitlán	14	Cerro de Oro	9	Septiembre	2023-09-16T00:00:00	2024-11-08T02:00:00	5	Humedad	81
172765	7	Sololá	719	Santiago Atitlán	14	Cerro de Oro	9	Septiembre	2023-09-16T00:00:00	2024-11-08T02:00:00	6	Velocidad del viento	4.8
172766	7	Sololá	719	Santiago Atitlán	14	Cerro de Oro	9	Septiembre	2023-09-16T00:00:00	2024-11-08T02:00:00	7	Dirección del viento	4.83
172767	7	Sololá	719	Santiago Atitlán	14	Cerro de Oro	9	Septiembre	2023-09-16T00:00:00	2024-11-08T02:00:00	1	Precipitación	0
172768	7	Sololá	719	Santiago Atitlán	14	Cerro de Oro	9	Septiembre	2023-09-16T00:00:00	2024-11-08T02:00:00	8	Radiación solar	0
172769	7	Sololá	719	Santiago Atitlán	14	Cerro de Oro	9	Septiembre	2023-09-16T00:00:00	2024-11-08T03:00:00	2	Temperatura media	18.5
172770	7	Sololá	719	Santiago Atitlán	14	Cerro de Oro	9	Septiembre	2023-09-16T00:00:00	2024-11-08T03:00:00	4	Temperatura máxima	18.6
172771	7	Sololá	719	Santiago Atitlán	14	Cerro de Oro	9	Septiembre	2023-09-16T00:00:00	2024-11-08T03:00:00	3	Temperatura mínima	17.9
172772	7	Sololá	719	Santiago Atitlán	14	Cerro de Oro	9	Septiembre	2023-09-16T00:00:00	2024-11-08T03:00:00	5	Humedad	79
172773	7	Sololá	719	Santiago Atitlán	14	Cerro de Oro	9	Septiembre	2023-09-16T00:00:00	2024-11-08T03:00:00	6	Velocidad del viento	4.8
172774	7	Sololá	719	Santiago Atitlán	14	Cerro de Oro	9	Septiembre	2023-09-16T00:00:00	2024-11-08T03:00:00	7	Dirección del viento	4.83
172775	7	Sololá	719	Santiago Atitlán	14	Cerro de Oro	9	Septiembre	2023-09-16T00:00:00	2024-11-08T03:00:00	1	Precipitación	0
172776	7	Sololá	719	Santiago Atitlán	14	Cerro de Oro	9	Septiembre	2023-09-16T00:00:00	2024-11-08T03:00:00	8	Radiación solar	0
172777	7	Sololá	719	Santiago Atitlán	14	Cerro de Oro	9	Septiembre	2023-09-16T00:00:00	2024-11-08T04:00:00	2	Temperatura media	18.3
172778	7	Sololá	719	Santiago Atitlán	14	Cerro de Oro	9	Septiembre	2023-09-16T00:00:00	2024-11-08T04:00:00	4	Temperatura máxima	18.6
172779	7	Sololá	719	Santiago Atitlán	14	Cerro de Oro	9	Septiembre	2023-09-16T00:00:00	2024-11-08T04:00:00	3	Temperatura mínima	17.9
172780	7	Sololá	719	Santiago Atitlán	14	Cerro de Oro	9	Septiembre	2023-09-16T00:00:00	2024-11-08T04:00:00	5	Humedad	79
172781	7	Sololá	719	Santiago Atitlán	14	Cerro de Oro	9	Septiembre	2023-09-16T00:00:00	2024-11-08T04:00:00	6	Velocidad del viento	3.2
172782	7	Sololá	719	Santiago Atitlán	14	Cerro de Oro	9	Septiembre	2023-09-16T00:00:00	2024-11-08T04:00:00	7	Dirección del viento	3.22
172783	7	Sololá	719	Santiago Atitlán	14	Cerro de Oro	9	Septiembre	2023-09-16T00:00:00	2024-11-08T04:00:00	1	Precipitación	0
172784	7	Sololá	719	Santiago Atitlán	14	Cerro de Oro	9	Septiembre	2023-09-16T00:00:00	2024-11-08T04:00:00	8	Radiación solar	0
172785	7	Sololá	719	Santiago Atitlán	14	Cerro de Oro	9	Septiembre	2023-09-16T00:00:00	2024-11-08T05:00:00	2	Temperatura media	18.5
172786	7	Sololá	719	Santiago Atitlán	14	Cerro de Oro	9	Septiembre	2023-09-16T00:00:00	2024-11-08T05:00:00	4	Temperatura máxima	18.6
172787	7	Sololá	719	Santiago Atitlán	14	Cerro de Oro	9	Septiembre	2023-09-16T00:00:00	2024-11-08T05:00:00	3	Temperatura mínima	17.6
172788	7	Sololá	719	Santiago Atitlán	14	Cerro de Oro	9	Septiembre	2023-09-16T00:00:00	2024-11-08T05:00:00	5	Humedad	76
172789	7	Sololá	719	Santiago Atitlán	14	Cerro de Oro	9	Septiembre	2023-09-16T00:00:00	2024-11-08T05:00:00	6	Velocidad del viento	6.4
172790	7	Sololá	719	Santiago Atitlán	14	Cerro de Oro	9	Septiembre	2023-09-16T00:00:00	2024-11-08T05:00:00	7	Dirección del viento	6.44
172791	7	Sololá	719	Santiago Atitlán	14	Cerro de Oro	9	Septiembre	2023-09-16T00:00:00	2024-11-08T05:00:00	1	Precipitación	0
172792	7	Sololá	719	Santiago Atitlán	14	Cerro de Oro	9	Septiembre	2023-09-16T00:00:00	2024-11-08T05:00:00	8	Radiación solar	0
172793	7	Sololá	719	Santiago Atitlán	14	Cerro de Oro	9	Septiembre	2023-09-16T00:00:00	2024-11-08T06:00:00	2	Temperatura media	18
172794	7	Sololá	719	Santiago Atitlán	14	Cerro de Oro	9	Septiembre	2023-09-16T00:00:00	2024-11-08T06:00:00	4	Temperatura máxima	18.6
172795	7	Sololá	719	Santiago Atitlán	14	Cerro de Oro	9	Septiembre	2023-09-16T00:00:00	2024-11-08T06:00:00	3	Temperatura mínima	18
172796	7	Sololá	719	Santiago Atitlán	14	Cerro de Oro	9	Septiembre	2023-09-16T00:00:00	2024-11-08T06:00:00	5	Humedad	79
172797	7	Sololá	719	Santiago Atitlán	14	Cerro de Oro	9	Septiembre	2023-09-16T00:00:00	2024-11-08T06:00:00	6	Velocidad del viento	4.8
172798	7	Sololá	719	Santiago Atitlán	14	Cerro de Oro	9	Septiembre	2023-09-16T00:00:00	2024-11-08T06:00:00	7	Dirección del viento	4.83
172799	7	Sololá	719	Santiago Atitlán	14	Cerro de Oro	9	Septiembre	2023-09-16T00:00:00	2024-11-08T06:00:00	1	Precipitación	0
172800	7	Sololá	719	Santiago Atitlán	14	Cerro de Oro	9	Septiembre	2023-09-16T00:00:00	2024-11-08T06:00:00	8	Radiación solar	1
172801	7	Sololá	719	Santiago Atitlán	14	Cerro de Oro	9	Septiembre	2023-09-16T00:00:00	2024-11-08T07:00:00	2	Temperatura media	20.7
172802	7	Sololá	719	Santiago Atitlán	14	Cerro de Oro	9	Septiembre	2023-09-16T00:00:00	2024-11-08T07:00:00	4	Temperatura máxima	20.7
172803	7	Sololá	719	Santiago Atitlán	14	Cerro de Oro	9	Septiembre	2023-09-16T00:00:00	2024-11-08T07:00:00	3	Temperatura mínima	17.9
172804	7	Sololá	719	Santiago Atitlán	14	Cerro de Oro	9	Septiembre	2023-09-16T00:00:00	2024-11-08T07:00:00	5	Humedad	72
172805	7	Sololá	719	Santiago Atitlán	14	Cerro de Oro	9	Septiembre	2023-09-16T00:00:00	2024-11-08T07:00:00	6	Velocidad del viento	3.2
172806	7	Sololá	719	Santiago Atitlán	14	Cerro de Oro	9	Septiembre	2023-09-16T00:00:00	2024-11-08T07:00:00	7	Dirección del viento	3.22
172807	7	Sololá	719	Santiago Atitlán	14	Cerro de Oro	9	Septiembre	2023-09-16T00:00:00	2024-11-08T07:00:00	1	Precipitación	0
172808	7	Sololá	719	Santiago Atitlán	14	Cerro de Oro	9	Septiembre	2023-09-16T00:00:00	2024-11-08T07:00:00	8	Radiación solar	67
172809	7	Sololá	719	Santiago Atitlán	14	Cerro de Oro	9	Septiembre	2023-09-16T00:00:00	2024-11-08T08:00:00	2	Temperatura media	22.4
172810	7	Sololá	719	Santiago Atitlán	14	Cerro de Oro	9	Septiembre	2023-09-16T00:00:00	2024-11-08T08:00:00	4	Temperatura máxima	22.4
172811	7	Sololá	719	Santiago Atitlán	14	Cerro de Oro	9	Septiembre	2023-09-16T00:00:00	2024-11-08T08:00:00	3	Temperatura mínima	20.8
172812	7	Sololá	719	Santiago Atitlán	14	Cerro de Oro	9	Septiembre	2023-09-16T00:00:00	2024-11-08T08:00:00	5	Humedad	68
172813	7	Sololá	719	Santiago Atitlán	14	Cerro de Oro	9	Septiembre	2023-09-16T00:00:00	2024-11-08T08:00:00	6	Velocidad del viento	3.2
172814	7	Sololá	719	Santiago Atitlán	14	Cerro de Oro	9	Septiembre	2023-09-16T00:00:00	2024-11-08T08:00:00	7	Dirección del viento	3.22
172815	7	Sololá	719	Santiago Atitlán	14	Cerro de Oro	9	Septiembre	2023-09-16T00:00:00	2024-11-08T08:00:00	1	Precipitación	0
172816	7	Sololá	719	Santiago Atitlán	14	Cerro de Oro	9	Septiembre	2023-09-16T00:00:00	2024-11-08T08:00:00	8	Radiación solar	219
172817	7	Sololá	719	Santiago Atitlán	14	Cerro de Oro	9	Septiembre	2023-09-16T00:00:00	2024-11-08T09:00:00	2	Temperatura media	23.3
172818	7	Sololá	719	Santiago Atitlán	14	Cerro de Oro	9	Septiembre	2023-09-16T00:00:00	2024-11-08T09:00:00	4	Temperatura máxima	23.3
172819	7	Sololá	719	Santiago Atitlán	14	Cerro de Oro	9	Septiembre	2023-09-16T00:00:00	2024-11-08T09:00:00	3	Temperatura mínima	22.3
172820	7	Sololá	719	Santiago Atitlán	14	Cerro de Oro	9	Septiembre	2023-09-16T00:00:00	2024-11-08T09:00:00	5	Humedad	62
172821	7	Sololá	719	Santiago Atitlán	14	Cerro de Oro	9	Septiembre	2023-09-16T00:00:00	2024-11-08T09:00:00	6	Velocidad del viento	3.2
172822	7	Sololá	719	Santiago Atitlán	14	Cerro de Oro	9	Septiembre	2023-09-16T00:00:00	2024-11-08T09:00:00	7	Dirección del viento	3.22
172823	7	Sololá	719	Santiago Atitlán	14	Cerro de Oro	9	Septiembre	2023-09-16T00:00:00	2024-11-08T09:00:00	1	Precipitación	0
172824	7	Sololá	719	Santiago Atitlán	14	Cerro de Oro	9	Septiembre	2023-09-16T00:00:00	2024-11-08T09:00:00	8	Radiación solar	397
172825	7	Sololá	719	Santiago Atitlán	14	Cerro de Oro	9	Septiembre	2023-09-16T00:00:00	2024-11-08T10:00:00	2	Temperatura media	23.9
172826	7	Sololá	719	Santiago Atitlán	14	Cerro de Oro	9	Septiembre	2023-09-16T00:00:00	2024-11-08T10:00:00	4	Temperatura máxima	24.4
172827	7	Sololá	719	Santiago Atitlán	14	Cerro de Oro	9	Septiembre	2023-09-16T00:00:00	2024-11-08T10:00:00	3	Temperatura mínima	23.2
172828	7	Sololá	719	Santiago Atitlán	14	Cerro de Oro	9	Septiembre	2023-09-16T00:00:00	2024-11-08T10:00:00	5	Humedad	58
172829	7	Sololá	719	Santiago Atitlán	14	Cerro de Oro	9	Septiembre	2023-09-16T00:00:00	2024-11-08T10:00:00	6	Velocidad del viento	3.2
172830	7	Sololá	719	Santiago Atitlán	14	Cerro de Oro	9	Septiembre	2023-09-16T00:00:00	2024-11-08T10:00:00	7	Dirección del viento	3.22
172831	7	Sololá	719	Santiago Atitlán	14	Cerro de Oro	9	Septiembre	2023-09-16T00:00:00	2024-11-08T10:00:00	1	Precipitación	0
172832	7	Sololá	719	Santiago Atitlán	14	Cerro de Oro	9	Septiembre	2023-09-16T00:00:00	2024-11-08T10:00:00	8	Radiación solar	705
172833	7	Sololá	719	Santiago Atitlán	14	Cerro de Oro	9	Septiembre	2023-09-16T00:00:00	2024-11-08T11:00:00	2	Temperatura media	25.3
172834	7	Sololá	719	Santiago Atitlán	14	Cerro de Oro	9	Septiembre	2023-09-16T00:00:00	2024-11-08T11:00:00	4	Temperatura máxima	25.3
172835	7	Sololá	719	Santiago Atitlán	14	Cerro de Oro	9	Septiembre	2023-09-16T00:00:00	2024-11-08T11:00:00	3	Temperatura mínima	24
172836	7	Sololá	719	Santiago Atitlán	14	Cerro de Oro	9	Septiembre	2023-09-16T00:00:00	2024-11-08T11:00:00	5	Humedad	65
172837	7	Sololá	719	Santiago Atitlán	14	Cerro de Oro	9	Septiembre	2023-09-16T00:00:00	2024-11-08T11:00:00	6	Velocidad del viento	4.8
172838	7	Sololá	719	Santiago Atitlán	14	Cerro de Oro	9	Septiembre	2023-09-16T00:00:00	2024-11-08T11:00:00	7	Dirección del viento	4.83
172839	7	Sololá	719	Santiago Atitlán	14	Cerro de Oro	9	Septiembre	2023-09-16T00:00:00	2024-11-08T11:00:00	1	Precipitación	0
172840	7	Sololá	719	Santiago Atitlán	14	Cerro de Oro	9	Septiembre	2023-09-16T00:00:00	2024-11-08T11:00:00	8	Radiación solar	866
172841	7	Sololá	719	Santiago Atitlán	14	Cerro de Oro	9	Septiembre	2023-09-16T00:00:00	2024-11-08T12:00:00	2	Temperatura media	25.6
172842	7	Sololá	719	Santiago Atitlán	14	Cerro de Oro	9	Septiembre	2023-09-16T00:00:00	2024-11-08T12:00:00	4	Temperatura máxima	25.7
172843	7	Sololá	719	Santiago Atitlán	14	Cerro de Oro	9	Septiembre	2023-09-16T00:00:00	2024-11-08T12:00:00	3	Temperatura mínima	25.2
172844	7	Sololá	719	Santiago Atitlán	14	Cerro de Oro	9	Septiembre	2023-09-16T00:00:00	2024-11-08T12:00:00	5	Humedad	66
172845	7	Sololá	719	Santiago Atitlán	14	Cerro de Oro	9	Septiembre	2023-09-16T00:00:00	2024-11-08T12:00:00	6	Velocidad del viento	8
172846	7	Sololá	719	Santiago Atitlán	14	Cerro de Oro	9	Septiembre	2023-09-16T00:00:00	2024-11-08T12:00:00	7	Dirección del viento	8.05
172847	7	Sololá	719	Santiago Atitlán	14	Cerro de Oro	9	Septiembre	2023-09-16T00:00:00	2024-11-08T12:00:00	1	Precipitación	0
172848	7	Sololá	719	Santiago Atitlán	14	Cerro de Oro	9	Septiembre	2023-09-16T00:00:00	2024-11-08T12:00:00	8	Radiación solar	841
172849	7	Sololá	719	Santiago Atitlán	14	Cerro de Oro	9	Septiembre	2023-09-16T00:00:00	2024-11-08T13:00:00	2	Temperatura media	25.7
172850	7	Sololá	719	Santiago Atitlán	14	Cerro de Oro	9	Septiembre	2023-09-16T00:00:00	2024-11-08T13:00:00	4	Temperatura máxima	26.4
172851	7	Sololá	719	Santiago Atitlán	14	Cerro de Oro	9	Septiembre	2023-09-16T00:00:00	2024-11-08T13:00:00	3	Temperatura mínima	25.4
172852	7	Sololá	719	Santiago Atitlán	14	Cerro de Oro	9	Septiembre	2023-09-16T00:00:00	2024-11-08T13:00:00	5	Humedad	64
172853	7	Sololá	719	Santiago Atitlán	14	Cerro de Oro	9	Septiembre	2023-09-16T00:00:00	2024-11-08T13:00:00	6	Velocidad del viento	6.4
172854	7	Sololá	719	Santiago Atitlán	14	Cerro de Oro	9	Septiembre	2023-09-16T00:00:00	2024-11-08T13:00:00	7	Dirección del viento	6.44
172855	7	Sololá	719	Santiago Atitlán	14	Cerro de Oro	9	Septiembre	2023-09-16T00:00:00	2024-11-08T13:00:00	1	Precipitación	0
172856	7	Sololá	719	Santiago Atitlán	14	Cerro de Oro	9	Septiembre	2023-09-16T00:00:00	2024-11-08T13:00:00	8	Radiación solar	531
172857	7	Sololá	719	Santiago Atitlán	14	Cerro de Oro	9	Septiembre	2023-09-16T00:00:00	2024-11-08T14:00:00	2	Temperatura media	25.6
172858	7	Sololá	719	Santiago Atitlán	14	Cerro de Oro	9	Septiembre	2023-09-16T00:00:00	2024-11-08T14:00:00	4	Temperatura máxima	25.8
172859	7	Sololá	719	Santiago Atitlán	14	Cerro de Oro	9	Septiembre	2023-09-16T00:00:00	2024-11-08T14:00:00	3	Temperatura mínima	24.9
172860	7	Sololá	719	Santiago Atitlán	14	Cerro de Oro	9	Septiembre	2023-09-16T00:00:00	2024-11-08T14:00:00	5	Humedad	68
172861	7	Sololá	719	Santiago Atitlán	14	Cerro de Oro	9	Septiembre	2023-09-16T00:00:00	2024-11-08T14:00:00	6	Velocidad del viento	9.7
172862	7	Sololá	719	Santiago Atitlán	14	Cerro de Oro	9	Septiembre	2023-09-16T00:00:00	2024-11-08T14:00:00	7	Dirección del viento	9.66
172863	7	Sololá	719	Santiago Atitlán	14	Cerro de Oro	9	Septiembre	2023-09-16T00:00:00	2024-11-08T14:00:00	1	Precipitación	0
172864	7	Sololá	719	Santiago Atitlán	14	Cerro de Oro	9	Septiembre	2023-09-16T00:00:00	2024-11-08T14:00:00	8	Radiación solar	597
172865	7	Sololá	719	Santiago Atitlán	14	Cerro de Oro	9	Septiembre	2023-09-16T00:00:00	2024-11-08T15:00:00	2	Temperatura media	25.1
172866	7	Sololá	719	Santiago Atitlán	14	Cerro de Oro	9	Septiembre	2023-09-16T00:00:00	2024-11-08T15:00:00	4	Temperatura máxima	26
172867	7	Sololá	719	Santiago Atitlán	14	Cerro de Oro	9	Septiembre	2023-09-16T00:00:00	2024-11-08T15:00:00	3	Temperatura mínima	24.7
172868	7	Sololá	719	Santiago Atitlán	14	Cerro de Oro	9	Septiembre	2023-09-16T00:00:00	2024-11-08T15:00:00	5	Humedad	70
172869	7	Sololá	719	Santiago Atitlán	14	Cerro de Oro	9	Septiembre	2023-09-16T00:00:00	2024-11-08T15:00:00	6	Velocidad del viento	14.5
172870	7	Sololá	719	Santiago Atitlán	14	Cerro de Oro	9	Septiembre	2023-09-16T00:00:00	2024-11-08T15:00:00	7	Dirección del viento	14.48
172871	7	Sololá	719	Santiago Atitlán	14	Cerro de Oro	9	Septiembre	2023-09-16T00:00:00	2024-11-08T15:00:00	1	Precipitación	0
172872	7	Sololá	719	Santiago Atitlán	14	Cerro de Oro	9	Septiembre	2023-09-16T00:00:00	2024-11-08T15:00:00	8	Radiación solar	685
172873	7	Sololá	719	Santiago Atitlán	14	Cerro de Oro	9	Septiembre	2023-09-16T00:00:00	2024-11-08T16:00:00	2	Temperatura media	25.5
172874	7	Sololá	719	Santiago Atitlán	14	Cerro de Oro	9	Septiembre	2023-09-16T00:00:00	2024-11-08T16:00:00	4	Temperatura máxima	25.8
172875	7	Sololá	719	Santiago Atitlán	14	Cerro de Oro	9	Septiembre	2023-09-16T00:00:00	2024-11-08T16:00:00	3	Temperatura mínima	24.6
172876	7	Sololá	719	Santiago Atitlán	14	Cerro de Oro	9	Septiembre	2023-09-16T00:00:00	2024-11-08T16:00:00	5	Humedad	72
172877	7	Sololá	719	Santiago Atitlán	14	Cerro de Oro	9	Septiembre	2023-09-16T00:00:00	2024-11-08T16:00:00	6	Velocidad del viento	11.3
172878	7	Sololá	719	Santiago Atitlán	14	Cerro de Oro	9	Septiembre	2023-09-16T00:00:00	2024-11-08T16:00:00	7	Dirección del viento	11.27
172879	7	Sololá	719	Santiago Atitlán	14	Cerro de Oro	9	Septiembre	2023-09-16T00:00:00	2024-11-08T16:00:00	1	Precipitación	0
172880	7	Sololá	719	Santiago Atitlán	14	Cerro de Oro	9	Septiembre	2023-09-16T00:00:00	2024-11-08T16:00:00	8	Radiación solar	523
172881	7	Sololá	719	Santiago Atitlán	14	Cerro de Oro	9	Septiembre	2023-09-16T00:00:00	2024-11-08T17:00:00	2	Temperatura media	23
172882	7	Sololá	719	Santiago Atitlán	14	Cerro de Oro	9	Septiembre	2023-09-16T00:00:00	2024-11-08T17:00:00	4	Temperatura máxima	25.4
172883	7	Sololá	719	Santiago Atitlán	14	Cerro de Oro	9	Septiembre	2023-09-16T00:00:00	2024-11-08T17:00:00	3	Temperatura mínima	23
172884	7	Sololá	719	Santiago Atitlán	14	Cerro de Oro	9	Septiembre	2023-09-16T00:00:00	2024-11-08T17:00:00	5	Humedad	79
172885	7	Sololá	719	Santiago Atitlán	14	Cerro de Oro	9	Septiembre	2023-09-16T00:00:00	2024-11-08T17:00:00	6	Velocidad del viento	11.3
172886	7	Sololá	719	Santiago Atitlán	14	Cerro de Oro	9	Septiembre	2023-09-16T00:00:00	2024-11-08T17:00:00	7	Dirección del viento	11.27
172887	7	Sololá	719	Santiago Atitlán	14	Cerro de Oro	9	Septiembre	2023-09-16T00:00:00	2024-11-08T17:00:00	1	Precipitación	0
172888	7	Sololá	719	Santiago Atitlán	14	Cerro de Oro	9	Septiembre	2023-09-16T00:00:00	2024-11-08T17:00:00	8	Radiación solar	321
172889	7	Sololá	719	Santiago Atitlán	14	Cerro de Oro	9	Septiembre	2023-09-16T00:00:00	2024-11-08T18:00:00	2	Temperatura media	21.8
172890	7	Sololá	719	Santiago Atitlán	14	Cerro de Oro	9	Septiembre	2023-09-16T00:00:00	2024-11-08T18:00:00	4	Temperatura máxima	23
172891	7	Sololá	719	Santiago Atitlán	14	Cerro de Oro	9	Septiembre	2023-09-16T00:00:00	2024-11-08T18:00:00	3	Temperatura mínima	21.2
172892	7	Sololá	719	Santiago Atitlán	14	Cerro de Oro	9	Septiembre	2023-09-16T00:00:00	2024-11-08T18:00:00	5	Humedad	82
172893	7	Sololá	719	Santiago Atitlán	14	Cerro de Oro	9	Septiembre	2023-09-16T00:00:00	2024-11-08T18:00:00	6	Velocidad del viento	11.3
172894	7	Sololá	719	Santiago Atitlán	14	Cerro de Oro	9	Septiembre	2023-09-16T00:00:00	2024-11-08T18:00:00	7	Dirección del viento	11.27
172895	7	Sololá	719	Santiago Atitlán	14	Cerro de Oro	9	Septiembre	2023-09-16T00:00:00	2024-11-08T18:00:00	1	Precipitación	0
172896	7	Sololá	719	Santiago Atitlán	14	Cerro de Oro	9	Septiembre	2023-09-16T00:00:00	2024-11-08T18:00:00	8	Radiación solar	55
172897	7	Sololá	719	Santiago Atitlán	14	Cerro de Oro	9	Septiembre	2023-09-16T00:00:00	2024-11-08T19:00:00	2	Temperatura media	21.4
172898	7	Sololá	719	Santiago Atitlán	14	Cerro de Oro	9	Septiembre	2023-09-16T00:00:00	2024-11-08T19:00:00	4	Temperatura máxima	21.8
172899	7	Sololá	719	Santiago Atitlán	14	Cerro de Oro	9	Septiembre	2023-09-16T00:00:00	2024-11-08T19:00:00	3	Temperatura mínima	20.9
172900	7	Sololá	719	Santiago Atitlán	14	Cerro de Oro	9	Septiembre	2023-09-16T00:00:00	2024-11-08T19:00:00	5	Humedad	79
172901	7	Sololá	719	Santiago Atitlán	14	Cerro de Oro	9	Septiembre	2023-09-16T00:00:00	2024-11-08T19:00:00	6	Velocidad del viento	9.7
172902	7	Sololá	719	Santiago Atitlán	14	Cerro de Oro	9	Septiembre	2023-09-16T00:00:00	2024-11-08T19:00:00	7	Dirección del viento	9.66
172903	7	Sololá	719	Santiago Atitlán	14	Cerro de Oro	9	Septiembre	2023-09-16T00:00:00	2024-11-08T19:00:00	1	Precipitación	0
172904	7	Sololá	719	Santiago Atitlán	14	Cerro de Oro	9	Septiembre	2023-09-16T00:00:00	2024-11-08T19:00:00	8	Radiación solar	0
172905	7	Sololá	719	Santiago Atitlán	14	Cerro de Oro	9	Septiembre	2023-09-16T00:00:00	2024-11-08T20:00:00	2	Temperatura media	21.6
172906	7	Sololá	719	Santiago Atitlán	14	Cerro de Oro	9	Septiembre	2023-09-16T00:00:00	2024-11-08T20:00:00	4	Temperatura máxima	21.8
172907	7	Sololá	719	Santiago Atitlán	14	Cerro de Oro	9	Septiembre	2023-09-16T00:00:00	2024-11-08T20:00:00	3	Temperatura mínima	21.3
172908	7	Sololá	719	Santiago Atitlán	14	Cerro de Oro	9	Septiembre	2023-09-16T00:00:00	2024-11-08T20:00:00	5	Humedad	75
172909	7	Sololá	719	Santiago Atitlán	14	Cerro de Oro	9	Septiembre	2023-09-16T00:00:00	2024-11-08T20:00:00	6	Velocidad del viento	8
172910	7	Sololá	719	Santiago Atitlán	14	Cerro de Oro	9	Septiembre	2023-09-16T00:00:00	2024-11-08T20:00:00	7	Dirección del viento	8.05
172911	7	Sololá	719	Santiago Atitlán	14	Cerro de Oro	9	Septiembre	2023-09-16T00:00:00	2024-11-08T20:00:00	1	Precipitación	0
172912	7	Sololá	719	Santiago Atitlán	14	Cerro de Oro	9	Septiembre	2023-09-16T00:00:00	2024-11-08T20:00:00	8	Radiación solar	0
172913	7	Sololá	719	Santiago Atitlán	14	Cerro de Oro	9	Septiembre	2023-09-16T00:00:00	2024-11-08T21:00:00	2	Temperatura media	21.2
172914	7	Sololá	719	Santiago Atitlán	14	Cerro de Oro	9	Septiembre	2023-09-16T00:00:00	2024-11-08T21:00:00	4	Temperatura máxima	21.8
172915	7	Sololá	719	Santiago Atitlán	14	Cerro de Oro	9	Septiembre	2023-09-16T00:00:00	2024-11-08T21:00:00	3	Temperatura mínima	21.2
172916	7	Sololá	719	Santiago Atitlán	14	Cerro de Oro	9	Septiembre	2023-09-16T00:00:00	2024-11-08T21:00:00	5	Humedad	77
172917	7	Sololá	719	Santiago Atitlán	14	Cerro de Oro	9	Septiembre	2023-09-16T00:00:00	2024-11-08T21:00:00	6	Velocidad del viento	6.4
172918	7	Sololá	719	Santiago Atitlán	14	Cerro de Oro	9	Septiembre	2023-09-16T00:00:00	2024-11-08T21:00:00	7	Dirección del viento	6.44
172919	7	Sololá	719	Santiago Atitlán	14	Cerro de Oro	9	Septiembre	2023-09-16T00:00:00	2024-11-08T21:00:00	1	Precipitación	0
172920	7	Sololá	719	Santiago Atitlán	14	Cerro de Oro	9	Septiembre	2023-09-16T00:00:00	2024-11-08T21:00:00	8	Radiación solar	0
172921	7	Sololá	719	Santiago Atitlán	14	Cerro de Oro	9	Septiembre	2023-09-16T00:00:00	2024-11-08T22:00:00	2	Temperatura media	20.6
172922	7	Sololá	719	Santiago Atitlán	14	Cerro de Oro	9	Septiembre	2023-09-16T00:00:00	2024-11-08T22:00:00	4	Temperatura máxima	21.2
172923	7	Sololá	719	Santiago Atitlán	14	Cerro de Oro	9	Septiembre	2023-09-16T00:00:00	2024-11-08T22:00:00	3	Temperatura mínima	20.2
172924	7	Sololá	719	Santiago Atitlán	14	Cerro de Oro	9	Septiembre	2023-09-16T00:00:00	2024-11-08T22:00:00	5	Humedad	78
172925	7	Sololá	719	Santiago Atitlán	14	Cerro de Oro	9	Septiembre	2023-09-16T00:00:00	2024-11-08T22:00:00	6	Velocidad del viento	4.8
172926	7	Sololá	719	Santiago Atitlán	14	Cerro de Oro	9	Septiembre	2023-09-16T00:00:00	2024-11-08T22:00:00	7	Dirección del viento	4.83
172927	7	Sololá	719	Santiago Atitlán	14	Cerro de Oro	9	Septiembre	2023-09-16T00:00:00	2024-11-08T22:00:00	1	Precipitación	0
172928	7	Sololá	719	Santiago Atitlán	14	Cerro de Oro	9	Septiembre	2023-09-16T00:00:00	2024-11-08T22:00:00	8	Radiación solar	0
172929	7	Sololá	719	Santiago Atitlán	14	Cerro de Oro	9	Septiembre	2023-09-16T00:00:00	2024-11-08T23:00:00	2	Temperatura media	19.9
172930	7	Sololá	719	Santiago Atitlán	14	Cerro de Oro	9	Septiembre	2023-09-16T00:00:00	2024-11-08T23:00:00	4	Temperatura máxima	20.6
172931	7	Sololá	719	Santiago Atitlán	14	Cerro de Oro	9	Septiembre	2023-09-16T00:00:00	2024-11-08T23:00:00	3	Temperatura mínima	19.8
172932	7	Sololá	719	Santiago Atitlán	14	Cerro de Oro	9	Septiembre	2023-09-16T00:00:00	2024-11-08T23:00:00	5	Humedad	76
172933	7	Sololá	719	Santiago Atitlán	14	Cerro de Oro	9	Septiembre	2023-09-16T00:00:00	2024-11-08T23:00:00	6	Velocidad del viento	4.8
172934	7	Sololá	719	Santiago Atitlán	14	Cerro de Oro	9	Septiembre	2023-09-16T00:00:00	2024-11-08T23:00:00	7	Dirección del viento	4.83
172935	7	Sololá	719	Santiago Atitlán	14	Cerro de Oro	9	Septiembre	2023-09-16T00:00:00	2024-11-08T23:00:00	1	Precipitación	0
172936	7	Sololá	719	Santiago Atitlán	14	Cerro de Oro	9	Septiembre	2023-09-16T00:00:00	2024-11-08T23:00:00	8	Radiación solar	0
172937	7	Sololá	719	Santiago Atitlán	14	Cerro de Oro	9	Septiembre	2023-09-17T00:00:00	2024-11-08T00:00:00	2	Temperatura media	19.4
172938	7	Sololá	719	Santiago Atitlán	14	Cerro de Oro	9	Septiembre	2023-09-17T00:00:00	2024-11-08T00:00:00	4	Temperatura máxima	19.9
172939	7	Sololá	719	Santiago Atitlán	14	Cerro de Oro	9	Septiembre	2023-09-17T00:00:00	2024-11-08T00:00:00	3	Temperatura mínima	19.4
172940	7	Sololá	719	Santiago Atitlán	14	Cerro de Oro	9	Septiembre	2023-09-17T00:00:00	2024-11-08T00:00:00	5	Humedad	76
172941	7	Sololá	719	Santiago Atitlán	14	Cerro de Oro	9	Septiembre	2023-09-17T00:00:00	2024-11-08T00:00:00	6	Velocidad del viento	4.8
172942	7	Sololá	719	Santiago Atitlán	14	Cerro de Oro	9	Septiembre	2023-09-17T00:00:00	2024-11-08T00:00:00	7	Dirección del viento	4.83
172943	7	Sololá	719	Santiago Atitlán	14	Cerro de Oro	9	Septiembre	2023-09-17T00:00:00	2024-11-08T00:00:00	1	Precipitación	0
172944	7	Sololá	719	Santiago Atitlán	14	Cerro de Oro	9	Septiembre	2023-09-17T00:00:00	2024-11-08T00:00:00	8	Radiación solar	0
172945	7	Sololá	719	Santiago Atitlán	14	Cerro de Oro	9	Septiembre	2023-09-17T00:00:00	2024-11-08T01:00:00	2	Temperatura media	18.8
172946	7	Sololá	719	Santiago Atitlán	14	Cerro de Oro	9	Septiembre	2023-09-17T00:00:00	2024-11-08T01:00:00	4	Temperatura máxima	19.6
172947	7	Sololá	719	Santiago Atitlán	14	Cerro de Oro	9	Septiembre	2023-09-17T00:00:00	2024-11-08T01:00:00	3	Temperatura mínima	18.6
172948	7	Sololá	719	Santiago Atitlán	14	Cerro de Oro	9	Septiembre	2023-09-17T00:00:00	2024-11-08T01:00:00	5	Humedad	76
172949	7	Sololá	719	Santiago Atitlán	14	Cerro de Oro	9	Septiembre	2023-09-17T00:00:00	2024-11-08T01:00:00	6	Velocidad del viento	4.8
172950	7	Sololá	719	Santiago Atitlán	14	Cerro de Oro	9	Septiembre	2023-09-17T00:00:00	2024-11-08T01:00:00	7	Dirección del viento	4.83
172951	7	Sololá	719	Santiago Atitlán	14	Cerro de Oro	9	Septiembre	2023-09-17T00:00:00	2024-11-08T01:00:00	1	Precipitación	0
172952	7	Sololá	719	Santiago Atitlán	14	Cerro de Oro	9	Septiembre	2023-09-17T00:00:00	2024-11-08T01:00:00	8	Radiación solar	0
172953	7	Sololá	719	Santiago Atitlán	14	Cerro de Oro	9	Septiembre	2023-09-17T00:00:00	2024-11-08T02:00:00	2	Temperatura media	19.3
172954	7	Sololá	719	Santiago Atitlán	14	Cerro de Oro	9	Septiembre	2023-09-17T00:00:00	2024-11-08T02:00:00	4	Temperatura máxima	19.4
172955	7	Sololá	719	Santiago Atitlán	14	Cerro de Oro	9	Septiembre	2023-09-17T00:00:00	2024-11-08T02:00:00	3	Temperatura mínima	18.6
172956	7	Sololá	719	Santiago Atitlán	14	Cerro de Oro	9	Septiembre	2023-09-17T00:00:00	2024-11-08T02:00:00	5	Humedad	77
172957	7	Sololá	719	Santiago Atitlán	14	Cerro de Oro	9	Septiembre	2023-09-17T00:00:00	2024-11-08T02:00:00	6	Velocidad del viento	3.2
172958	7	Sololá	719	Santiago Atitlán	14	Cerro de Oro	9	Septiembre	2023-09-17T00:00:00	2024-11-08T02:00:00	7	Dirección del viento	3.22
172959	7	Sololá	719	Santiago Atitlán	14	Cerro de Oro	9	Septiembre	2023-09-17T00:00:00	2024-11-08T02:00:00	1	Precipitación	0
172960	7	Sololá	719	Santiago Atitlán	14	Cerro de Oro	9	Septiembre	2023-09-17T00:00:00	2024-11-08T02:00:00	8	Radiación solar	0
172961	7	Sololá	719	Santiago Atitlán	14	Cerro de Oro	9	Septiembre	2023-09-17T00:00:00	2024-11-08T03:00:00	2	Temperatura media	17.9
172962	7	Sololá	719	Santiago Atitlán	14	Cerro de Oro	9	Septiembre	2023-09-17T00:00:00	2024-11-08T03:00:00	4	Temperatura máxima	19.6
172963	7	Sololá	719	Santiago Atitlán	14	Cerro de Oro	9	Septiembre	2023-09-17T00:00:00	2024-11-08T03:00:00	3	Temperatura mínima	17.9
172964	7	Sololá	719	Santiago Atitlán	14	Cerro de Oro	9	Septiembre	2023-09-17T00:00:00	2024-11-08T03:00:00	5	Humedad	77
172965	7	Sololá	719	Santiago Atitlán	14	Cerro de Oro	9	Septiembre	2023-09-17T00:00:00	2024-11-08T03:00:00	6	Velocidad del viento	6.4
172966	7	Sololá	719	Santiago Atitlán	14	Cerro de Oro	9	Septiembre	2023-09-17T00:00:00	2024-11-08T03:00:00	7	Dirección del viento	6.44
172967	7	Sololá	719	Santiago Atitlán	14	Cerro de Oro	9	Septiembre	2023-09-17T00:00:00	2024-11-08T03:00:00	1	Precipitación	0
172968	7	Sololá	719	Santiago Atitlán	14	Cerro de Oro	9	Septiembre	2023-09-17T00:00:00	2024-11-08T03:00:00	8	Radiación solar	0
172969	7	Sololá	719	Santiago Atitlán	14	Cerro de Oro	9	Septiembre	2023-09-17T00:00:00	2024-11-08T04:00:00	2	Temperatura media	17.7
172970	7	Sololá	719	Santiago Atitlán	14	Cerro de Oro	9	Septiembre	2023-09-17T00:00:00	2024-11-08T04:00:00	4	Temperatura máxima	18.6
172971	7	Sololá	719	Santiago Atitlán	14	Cerro de Oro	9	Septiembre	2023-09-17T00:00:00	2024-11-08T04:00:00	3	Temperatura mínima	17.6
172972	7	Sololá	719	Santiago Atitlán	14	Cerro de Oro	9	Septiembre	2023-09-17T00:00:00	2024-11-08T04:00:00	5	Humedad	79
172973	7	Sololá	719	Santiago Atitlán	14	Cerro de Oro	9	Septiembre	2023-09-17T00:00:00	2024-11-08T04:00:00	6	Velocidad del viento	4.8
172974	7	Sololá	719	Santiago Atitlán	14	Cerro de Oro	9	Septiembre	2023-09-17T00:00:00	2024-11-08T04:00:00	7	Dirección del viento	4.83
172975	7	Sololá	719	Santiago Atitlán	14	Cerro de Oro	9	Septiembre	2023-09-17T00:00:00	2024-11-08T04:00:00	1	Precipitación	0
172976	7	Sololá	719	Santiago Atitlán	14	Cerro de Oro	9	Septiembre	2023-09-17T00:00:00	2024-11-08T04:00:00	8	Radiación solar	0
172977	7	Sololá	719	Santiago Atitlán	14	Cerro de Oro	9	Septiembre	2023-09-17T00:00:00	2024-11-08T05:00:00	2	Temperatura media	18
172978	7	Sololá	719	Santiago Atitlán	14	Cerro de Oro	9	Septiembre	2023-09-17T00:00:00	2024-11-08T05:00:00	4	Temperatura máxima	18.2
172979	7	Sololá	719	Santiago Atitlán	14	Cerro de Oro	9	Septiembre	2023-09-17T00:00:00	2024-11-08T05:00:00	3	Temperatura mínima	17.6
172980	7	Sololá	719	Santiago Atitlán	14	Cerro de Oro	9	Septiembre	2023-09-17T00:00:00	2024-11-08T05:00:00	5	Humedad	75
172981	7	Sololá	719	Santiago Atitlán	14	Cerro de Oro	9	Septiembre	2023-09-17T00:00:00	2024-11-08T05:00:00	6	Velocidad del viento	4.8
172982	7	Sololá	719	Santiago Atitlán	14	Cerro de Oro	9	Septiembre	2023-09-17T00:00:00	2024-11-08T05:00:00	7	Dirección del viento	4.83
172983	7	Sololá	719	Santiago Atitlán	14	Cerro de Oro	9	Septiembre	2023-09-17T00:00:00	2024-11-08T05:00:00	1	Precipitación	0
172984	7	Sololá	719	Santiago Atitlán	14	Cerro de Oro	9	Septiembre	2023-09-17T00:00:00	2024-11-08T05:00:00	8	Radiación solar	0
172985	7	Sololá	719	Santiago Atitlán	14	Cerro de Oro	9	Septiembre	2023-09-17T00:00:00	2024-11-08T06:00:00	2	Temperatura media	17.4
172986	7	Sololá	719	Santiago Atitlán	14	Cerro de Oro	9	Septiembre	2023-09-17T00:00:00	2024-11-08T06:00:00	4	Temperatura máxima	18.1
172987	7	Sololá	719	Santiago Atitlán	14	Cerro de Oro	9	Septiembre	2023-09-17T00:00:00	2024-11-08T06:00:00	3	Temperatura mínima	17.3
172988	7	Sololá	719	Santiago Atitlán	14	Cerro de Oro	9	Septiembre	2023-09-17T00:00:00	2024-11-08T06:00:00	5	Humedad	76
172989	7	Sololá	719	Santiago Atitlán	14	Cerro de Oro	9	Septiembre	2023-09-17T00:00:00	2024-11-08T06:00:00	6	Velocidad del viento	3.2
172990	7	Sololá	719	Santiago Atitlán	14	Cerro de Oro	9	Septiembre	2023-09-17T00:00:00	2024-11-08T06:00:00	7	Dirección del viento	3.22
172991	7	Sololá	719	Santiago Atitlán	14	Cerro de Oro	9	Septiembre	2023-09-17T00:00:00	2024-11-08T06:00:00	1	Precipitación	0
172992	7	Sololá	719	Santiago Atitlán	14	Cerro de Oro	9	Septiembre	2023-09-17T00:00:00	2024-11-08T06:00:00	8	Radiación solar	1
172993	7	Sololá	719	Santiago Atitlán	14	Cerro de Oro	9	Septiembre	2023-09-17T00:00:00	2024-11-08T07:00:00	2	Temperatura media	18.3
172994	7	Sololá	719	Santiago Atitlán	14	Cerro de Oro	9	Septiembre	2023-09-17T00:00:00	2024-11-08T07:00:00	4	Temperatura máxima	18.3
172995	7	Sololá	719	Santiago Atitlán	14	Cerro de Oro	9	Septiembre	2023-09-17T00:00:00	2024-11-08T07:00:00	3	Temperatura mínima	17.4
172996	7	Sololá	719	Santiago Atitlán	14	Cerro de Oro	9	Septiembre	2023-09-17T00:00:00	2024-11-08T07:00:00	5	Humedad	72
172997	7	Sololá	719	Santiago Atitlán	14	Cerro de Oro	9	Septiembre	2023-09-17T00:00:00	2024-11-08T07:00:00	6	Velocidad del viento	4.8
172998	7	Sololá	719	Santiago Atitlán	14	Cerro de Oro	9	Septiembre	2023-09-17T00:00:00	2024-11-08T07:00:00	7	Dirección del viento	4.83
172999	7	Sololá	719	Santiago Atitlán	14	Cerro de Oro	9	Septiembre	2023-09-17T00:00:00	2024-11-08T07:00:00	1	Precipitación	0
173000	7	Sololá	719	Santiago Atitlán	14	Cerro de Oro	9	Septiembre	2023-09-17T00:00:00	2024-11-08T07:00:00	8	Radiación solar	41
173001	7	Sololá	719	Santiago Atitlán	14	Cerro de Oro	9	Septiembre	2023-09-17T00:00:00	2024-11-08T08:00:00	2	Temperatura media	20.8
173002	7	Sololá	719	Santiago Atitlán	14	Cerro de Oro	9	Septiembre	2023-09-17T00:00:00	2024-11-08T08:00:00	4	Temperatura máxima	20.8
173003	7	Sololá	719	Santiago Atitlán	14	Cerro de Oro	9	Septiembre	2023-09-17T00:00:00	2024-11-08T08:00:00	3	Temperatura mínima	18.3
173004	7	Sololá	719	Santiago Atitlán	14	Cerro de Oro	9	Septiembre	2023-09-17T00:00:00	2024-11-08T08:00:00	5	Humedad	66
173005	7	Sololá	719	Santiago Atitlán	14	Cerro de Oro	9	Septiembre	2023-09-17T00:00:00	2024-11-08T08:00:00	6	Velocidad del viento	3.2
173006	7	Sololá	719	Santiago Atitlán	14	Cerro de Oro	9	Septiembre	2023-09-17T00:00:00	2024-11-08T08:00:00	7	Dirección del viento	3.22
173007	7	Sololá	719	Santiago Atitlán	14	Cerro de Oro	9	Septiembre	2023-09-17T00:00:00	2024-11-08T08:00:00	1	Precipitación	0
173008	7	Sololá	719	Santiago Atitlán	14	Cerro de Oro	9	Septiembre	2023-09-17T00:00:00	2024-11-08T08:00:00	8	Radiación solar	156
173009	7	Sololá	719	Santiago Atitlán	14	Cerro de Oro	9	Septiembre	2023-09-17T00:00:00	2024-11-08T09:00:00	2	Temperatura media	22.7
173010	7	Sololá	719	Santiago Atitlán	14	Cerro de Oro	9	Septiembre	2023-09-17T00:00:00	2024-11-08T09:00:00	4	Temperatura máxima	22.7
173011	7	Sololá	719	Santiago Atitlán	14	Cerro de Oro	9	Septiembre	2023-09-17T00:00:00	2024-11-08T09:00:00	3	Temperatura mínima	20.8
173012	7	Sololá	719	Santiago Atitlán	14	Cerro de Oro	9	Septiembre	2023-09-17T00:00:00	2024-11-08T09:00:00	5	Humedad	62
173013	7	Sololá	719	Santiago Atitlán	14	Cerro de Oro	9	Septiembre	2023-09-17T00:00:00	2024-11-08T09:00:00	6	Velocidad del viento	3.2
173014	7	Sololá	719	Santiago Atitlán	14	Cerro de Oro	9	Septiembre	2023-09-17T00:00:00	2024-11-08T09:00:00	7	Dirección del viento	3.22
173015	7	Sololá	719	Santiago Atitlán	14	Cerro de Oro	9	Septiembre	2023-09-17T00:00:00	2024-11-08T09:00:00	1	Precipitación	0
173016	7	Sololá	719	Santiago Atitlán	14	Cerro de Oro	9	Septiembre	2023-09-17T00:00:00	2024-11-08T09:00:00	8	Radiación solar	362
173017	7	Sololá	719	Santiago Atitlán	14	Cerro de Oro	9	Septiembre	2023-09-17T00:00:00	2024-11-08T10:00:00	2	Temperatura media	23.4
173018	7	Sololá	719	Santiago Atitlán	14	Cerro de Oro	9	Septiembre	2023-09-17T00:00:00	2024-11-08T10:00:00	4	Temperatura máxima	24.2
173019	7	Sololá	719	Santiago Atitlán	14	Cerro de Oro	9	Septiembre	2023-09-17T00:00:00	2024-11-08T10:00:00	3	Temperatura mínima	22.7
173020	7	Sololá	719	Santiago Atitlán	14	Cerro de Oro	9	Septiembre	2023-09-17T00:00:00	2024-11-08T10:00:00	5	Humedad	60
173021	7	Sololá	719	Santiago Atitlán	14	Cerro de Oro	9	Septiembre	2023-09-17T00:00:00	2024-11-08T10:00:00	6	Velocidad del viento	3.2
173022	7	Sololá	719	Santiago Atitlán	14	Cerro de Oro	9	Septiembre	2023-09-17T00:00:00	2024-11-08T10:00:00	7	Dirección del viento	3.22
173023	7	Sololá	719	Santiago Atitlán	14	Cerro de Oro	9	Septiembre	2023-09-17T00:00:00	2024-11-08T10:00:00	1	Precipitación	0
173024	7	Sololá	719	Santiago Atitlán	14	Cerro de Oro	9	Septiembre	2023-09-17T00:00:00	2024-11-08T10:00:00	8	Radiación solar	676
173025	7	Sololá	719	Santiago Atitlán	14	Cerro de Oro	9	Septiembre	2023-09-17T00:00:00	2024-11-08T11:00:00	2	Temperatura media	23.9
173026	7	Sololá	719	Santiago Atitlán	14	Cerro de Oro	9	Septiembre	2023-09-17T00:00:00	2024-11-08T11:00:00	4	Temperatura máxima	24.4
173027	7	Sololá	719	Santiago Atitlán	14	Cerro de Oro	9	Septiembre	2023-09-17T00:00:00	2024-11-08T11:00:00	3	Temperatura mínima	23.4
173028	7	Sololá	719	Santiago Atitlán	14	Cerro de Oro	9	Septiembre	2023-09-17T00:00:00	2024-11-08T11:00:00	5	Humedad	63
173029	7	Sololá	719	Santiago Atitlán	14	Cerro de Oro	9	Septiembre	2023-09-17T00:00:00	2024-11-08T11:00:00	6	Velocidad del viento	4.8
173030	7	Sololá	719	Santiago Atitlán	14	Cerro de Oro	9	Septiembre	2023-09-17T00:00:00	2024-11-08T11:00:00	7	Dirección del viento	4.83
173031	7	Sololá	719	Santiago Atitlán	14	Cerro de Oro	9	Septiembre	2023-09-17T00:00:00	2024-11-08T11:00:00	1	Precipitación	0
173032	7	Sololá	719	Santiago Atitlán	14	Cerro de Oro	9	Septiembre	2023-09-17T00:00:00	2024-11-08T11:00:00	8	Radiación solar	851
173033	7	Sololá	719	Santiago Atitlán	14	Cerro de Oro	9	Septiembre	2023-09-17T00:00:00	2024-11-08T12:00:00	2	Temperatura media	25.2
173034	7	Sololá	719	Santiago Atitlán	14	Cerro de Oro	9	Septiembre	2023-09-17T00:00:00	2024-11-08T12:00:00	4	Temperatura máxima	25.2
173035	7	Sololá	719	Santiago Atitlán	14	Cerro de Oro	9	Septiembre	2023-09-17T00:00:00	2024-11-08T12:00:00	3	Temperatura mínima	23.9
173036	7	Sololá	719	Santiago Atitlán	14	Cerro de Oro	9	Septiembre	2023-09-17T00:00:00	2024-11-08T12:00:00	5	Humedad	68
173037	7	Sololá	719	Santiago Atitlán	14	Cerro de Oro	9	Septiembre	2023-09-17T00:00:00	2024-11-08T12:00:00	6	Velocidad del viento	6.4
173038	7	Sololá	719	Santiago Atitlán	14	Cerro de Oro	9	Septiembre	2023-09-17T00:00:00	2024-11-08T12:00:00	7	Dirección del viento	6.44
173039	7	Sololá	719	Santiago Atitlán	14	Cerro de Oro	9	Septiembre	2023-09-17T00:00:00	2024-11-08T12:00:00	1	Precipitación	0
173040	7	Sololá	719	Santiago Atitlán	14	Cerro de Oro	9	Septiembre	2023-09-17T00:00:00	2024-11-08T12:00:00	8	Radiación solar	885
173041	7	Sololá	719	Santiago Atitlán	14	Cerro de Oro	9	Septiembre	2023-09-17T00:00:00	2024-11-08T13:00:00	2	Temperatura media	24.3
173042	7	Sololá	719	Santiago Atitlán	14	Cerro de Oro	9	Septiembre	2023-09-17T00:00:00	2024-11-08T13:00:00	4	Temperatura máxima	25.2
173043	7	Sololá	719	Santiago Atitlán	14	Cerro de Oro	9	Septiembre	2023-09-17T00:00:00	2024-11-08T13:00:00	3	Temperatura mínima	23.8
173044	7	Sololá	719	Santiago Atitlán	14	Cerro de Oro	9	Septiembre	2023-09-17T00:00:00	2024-11-08T13:00:00	5	Humedad	72
173045	7	Sololá	719	Santiago Atitlán	14	Cerro de Oro	9	Septiembre	2023-09-17T00:00:00	2024-11-08T13:00:00	6	Velocidad del viento	9.7
173046	7	Sololá	719	Santiago Atitlán	14	Cerro de Oro	9	Septiembre	2023-09-17T00:00:00	2024-11-08T13:00:00	7	Dirección del viento	9.66
173047	7	Sololá	719	Santiago Atitlán	14	Cerro de Oro	9	Septiembre	2023-09-17T00:00:00	2024-11-08T13:00:00	1	Precipitación	0
173048	7	Sololá	719	Santiago Atitlán	14	Cerro de Oro	9	Septiembre	2023-09-17T00:00:00	2024-11-08T13:00:00	8	Radiación solar	891
173049	7	Sololá	719	Santiago Atitlán	14	Cerro de Oro	9	Septiembre	2023-09-17T00:00:00	2024-11-08T14:00:00	2	Temperatura media	23.7
173050	7	Sololá	719	Santiago Atitlán	14	Cerro de Oro	9	Septiembre	2023-09-17T00:00:00	2024-11-08T14:00:00	4	Temperatura máxima	24.6
173051	7	Sololá	719	Santiago Atitlán	14	Cerro de Oro	9	Septiembre	2023-09-17T00:00:00	2024-11-08T14:00:00	3	Temperatura mínima	23.7
173052	7	Sololá	719	Santiago Atitlán	14	Cerro de Oro	9	Septiembre	2023-09-17T00:00:00	2024-11-08T14:00:00	5	Humedad	75
173053	7	Sololá	719	Santiago Atitlán	14	Cerro de Oro	9	Septiembre	2023-09-17T00:00:00	2024-11-08T14:00:00	6	Velocidad del viento	11.3
173054	7	Sololá	719	Santiago Atitlán	14	Cerro de Oro	9	Septiembre	2023-09-17T00:00:00	2024-11-08T14:00:00	7	Dirección del viento	11.27
173055	7	Sololá	719	Santiago Atitlán	14	Cerro de Oro	9	Septiembre	2023-09-17T00:00:00	2024-11-08T14:00:00	1	Precipitación	0
173056	7	Sololá	719	Santiago Atitlán	14	Cerro de Oro	9	Septiembre	2023-09-17T00:00:00	2024-11-08T14:00:00	8	Radiación solar	810
173057	7	Sololá	719	Santiago Atitlán	14	Cerro de Oro	9	Septiembre	2023-09-17T00:00:00	2024-11-08T15:00:00	2	Temperatura media	24.4
173058	7	Sololá	719	Santiago Atitlán	14	Cerro de Oro	9	Septiembre	2023-09-17T00:00:00	2024-11-08T15:00:00	4	Temperatura máxima	24.4
173059	7	Sololá	719	Santiago Atitlán	14	Cerro de Oro	9	Septiembre	2023-09-17T00:00:00	2024-11-08T15:00:00	3	Temperatura mínima	23.4
173060	7	Sololá	719	Santiago Atitlán	14	Cerro de Oro	9	Septiembre	2023-09-17T00:00:00	2024-11-08T15:00:00	5	Humedad	72
173061	7	Sololá	719	Santiago Atitlán	14	Cerro de Oro	9	Septiembre	2023-09-17T00:00:00	2024-11-08T15:00:00	6	Velocidad del viento	6.4
173062	7	Sololá	719	Santiago Atitlán	14	Cerro de Oro	9	Septiembre	2023-09-17T00:00:00	2024-11-08T15:00:00	7	Dirección del viento	6.44
173063	7	Sololá	719	Santiago Atitlán	14	Cerro de Oro	9	Septiembre	2023-09-17T00:00:00	2024-11-08T15:00:00	1	Precipitación	0
173064	7	Sololá	719	Santiago Atitlán	14	Cerro de Oro	9	Septiembre	2023-09-17T00:00:00	2024-11-08T15:00:00	8	Radiación solar	539
173065	7	Sololá	719	Santiago Atitlán	14	Cerro de Oro	9	Septiembre	2023-09-17T00:00:00	2024-11-08T16:00:00	2	Temperatura media	24.2
173066	7	Sololá	719	Santiago Atitlán	14	Cerro de Oro	9	Septiembre	2023-09-17T00:00:00	2024-11-08T16:00:00	4	Temperatura máxima	24.9
173067	7	Sololá	719	Santiago Atitlán	14	Cerro de Oro	9	Septiembre	2023-09-17T00:00:00	2024-11-08T16:00:00	3	Temperatura mínima	24.2
173068	7	Sololá	719	Santiago Atitlán	14	Cerro de Oro	9	Septiembre	2023-09-17T00:00:00	2024-11-08T16:00:00	5	Humedad	77
173069	7	Sololá	719	Santiago Atitlán	14	Cerro de Oro	9	Septiembre	2023-09-17T00:00:00	2024-11-08T16:00:00	6	Velocidad del viento	6.4
173070	7	Sololá	719	Santiago Atitlán	14	Cerro de Oro	9	Septiembre	2023-09-17T00:00:00	2024-11-08T16:00:00	7	Dirección del viento	6.44
173071	7	Sololá	719	Santiago Atitlán	14	Cerro de Oro	9	Septiembre	2023-09-17T00:00:00	2024-11-08T16:00:00	1	Precipitación	0
173072	7	Sololá	719	Santiago Atitlán	14	Cerro de Oro	9	Septiembre	2023-09-17T00:00:00	2024-11-08T16:00:00	8	Radiación solar	523
173073	7	Sololá	719	Santiago Atitlán	14	Cerro de Oro	9	Septiembre	2023-09-17T00:00:00	2024-11-08T17:00:00	2	Temperatura media	23
173074	7	Sololá	719	Santiago Atitlán	14	Cerro de Oro	9	Septiembre	2023-09-17T00:00:00	2024-11-08T17:00:00	4	Temperatura máxima	24.2
173075	7	Sololá	719	Santiago Atitlán	14	Cerro de Oro	9	Septiembre	2023-09-17T00:00:00	2024-11-08T17:00:00	3	Temperatura mínima	22.9
173076	7	Sololá	719	Santiago Atitlán	14	Cerro de Oro	9	Septiembre	2023-09-17T00:00:00	2024-11-08T17:00:00	5	Humedad	80
173077	7	Sololá	719	Santiago Atitlán	14	Cerro de Oro	9	Septiembre	2023-09-17T00:00:00	2024-11-08T17:00:00	6	Velocidad del viento	8
173078	7	Sololá	719	Santiago Atitlán	14	Cerro de Oro	9	Septiembre	2023-09-17T00:00:00	2024-11-08T17:00:00	7	Dirección del viento	8.05
173079	7	Sololá	719	Santiago Atitlán	14	Cerro de Oro	9	Septiembre	2023-09-17T00:00:00	2024-11-08T17:00:00	1	Precipitación	0
173080	7	Sololá	719	Santiago Atitlán	14	Cerro de Oro	9	Septiembre	2023-09-17T00:00:00	2024-11-08T17:00:00	8	Radiación solar	267
173081	7	Sololá	719	Santiago Atitlán	14	Cerro de Oro	9	Septiembre	2023-09-17T00:00:00	2024-11-08T18:00:00	2	Temperatura media	21.7
173082	7	Sololá	719	Santiago Atitlán	14	Cerro de Oro	9	Septiembre	2023-09-17T00:00:00	2024-11-08T18:00:00	4	Temperatura máxima	23.1
173083	7	Sololá	719	Santiago Atitlán	14	Cerro de Oro	9	Septiembre	2023-09-17T00:00:00	2024-11-08T18:00:00	3	Temperatura mínima	21.7
173084	7	Sololá	719	Santiago Atitlán	14	Cerro de Oro	9	Septiembre	2023-09-17T00:00:00	2024-11-08T18:00:00	5	Humedad	83
173085	7	Sololá	719	Santiago Atitlán	14	Cerro de Oro	9	Septiembre	2023-09-17T00:00:00	2024-11-08T18:00:00	6	Velocidad del viento	9.7
173086	7	Sololá	719	Santiago Atitlán	14	Cerro de Oro	9	Septiembre	2023-09-17T00:00:00	2024-11-08T18:00:00	7	Dirección del viento	9.66
173087	7	Sololá	719	Santiago Atitlán	14	Cerro de Oro	9	Septiembre	2023-09-17T00:00:00	2024-11-08T18:00:00	1	Precipitación	0
173088	7	Sololá	719	Santiago Atitlán	14	Cerro de Oro	9	Septiembre	2023-09-17T00:00:00	2024-11-08T18:00:00	8	Radiación solar	50
173089	7	Sololá	719	Santiago Atitlán	14	Cerro de Oro	9	Septiembre	2023-09-17T00:00:00	2024-11-08T19:00:00	2	Temperatura media	20.8
173090	7	Sololá	719	Santiago Atitlán	14	Cerro de Oro	9	Septiembre	2023-09-17T00:00:00	2024-11-08T19:00:00	4	Temperatura máxima	21.7
173091	7	Sololá	719	Santiago Atitlán	14	Cerro de Oro	9	Septiembre	2023-09-17T00:00:00	2024-11-08T19:00:00	3	Temperatura mínima	20.8
173092	7	Sololá	719	Santiago Atitlán	14	Cerro de Oro	9	Septiembre	2023-09-17T00:00:00	2024-11-08T19:00:00	5	Humedad	84
173093	7	Sololá	719	Santiago Atitlán	14	Cerro de Oro	9	Septiembre	2023-09-17T00:00:00	2024-11-08T19:00:00	6	Velocidad del viento	6.4
173094	7	Sololá	719	Santiago Atitlán	14	Cerro de Oro	9	Septiembre	2023-09-17T00:00:00	2024-11-08T19:00:00	7	Dirección del viento	6.44
173095	7	Sololá	719	Santiago Atitlán	14	Cerro de Oro	9	Septiembre	2023-09-17T00:00:00	2024-11-08T19:00:00	1	Precipitación	0
173096	7	Sololá	719	Santiago Atitlán	14	Cerro de Oro	9	Septiembre	2023-09-17T00:00:00	2024-11-08T19:00:00	8	Radiación solar	0
173097	7	Sololá	719	Santiago Atitlán	14	Cerro de Oro	9	Septiembre	2023-09-17T00:00:00	2024-11-08T20:00:00	2	Temperatura media	20.8
173098	7	Sololá	719	Santiago Atitlán	14	Cerro de Oro	9	Septiembre	2023-09-17T00:00:00	2024-11-08T20:00:00	4	Temperatura máxima	20.9
173099	7	Sololá	719	Santiago Atitlán	14	Cerro de Oro	9	Septiembre	2023-09-17T00:00:00	2024-11-08T20:00:00	3	Temperatura mínima	20.6
173100	7	Sololá	719	Santiago Atitlán	14	Cerro de Oro	9	Septiembre	2023-09-17T00:00:00	2024-11-08T20:00:00	5	Humedad	81
173101	7	Sololá	719	Santiago Atitlán	14	Cerro de Oro	9	Septiembre	2023-09-17T00:00:00	2024-11-08T20:00:00	6	Velocidad del viento	3.2
173102	7	Sololá	719	Santiago Atitlán	14	Cerro de Oro	9	Septiembre	2023-09-17T00:00:00	2024-11-08T20:00:00	7	Dirección del viento	3.22
173103	7	Sololá	719	Santiago Atitlán	14	Cerro de Oro	9	Septiembre	2023-09-17T00:00:00	2024-11-08T20:00:00	1	Precipitación	0
173104	7	Sololá	719	Santiago Atitlán	14	Cerro de Oro	9	Septiembre	2023-09-17T00:00:00	2024-11-08T20:00:00	8	Radiación solar	0
173105	7	Sololá	719	Santiago Atitlán	14	Cerro de Oro	9	Septiembre	2023-09-17T00:00:00	2024-11-08T21:00:00	2	Temperatura media	20.9
173106	7	Sololá	719	Santiago Atitlán	14	Cerro de Oro	9	Septiembre	2023-09-17T00:00:00	2024-11-08T21:00:00	4	Temperatura máxima	21
173107	7	Sololá	719	Santiago Atitlán	14	Cerro de Oro	9	Septiembre	2023-09-17T00:00:00	2024-11-08T21:00:00	3	Temperatura mínima	20.6
173108	7	Sololá	719	Santiago Atitlán	14	Cerro de Oro	9	Septiembre	2023-09-17T00:00:00	2024-11-08T21:00:00	5	Humedad	81
173109	7	Sololá	719	Santiago Atitlán	14	Cerro de Oro	9	Septiembre	2023-09-17T00:00:00	2024-11-08T21:00:00	6	Velocidad del viento	4.8
173110	7	Sololá	719	Santiago Atitlán	14	Cerro de Oro	9	Septiembre	2023-09-17T00:00:00	2024-11-08T21:00:00	7	Dirección del viento	4.83
173111	7	Sololá	719	Santiago Atitlán	14	Cerro de Oro	9	Septiembre	2023-09-17T00:00:00	2024-11-08T21:00:00	1	Precipitación	0
173112	7	Sololá	719	Santiago Atitlán	14	Cerro de Oro	9	Septiembre	2023-09-17T00:00:00	2024-11-08T21:00:00	8	Radiación solar	0
173113	7	Sololá	719	Santiago Atitlán	14	Cerro de Oro	9	Septiembre	2023-09-17T00:00:00	2024-11-08T22:00:00	2	Temperatura media	18.1
173114	7	Sololá	719	Santiago Atitlán	14	Cerro de Oro	9	Septiembre	2023-09-17T00:00:00	2024-11-08T22:00:00	4	Temperatura máxima	21
173115	7	Sololá	719	Santiago Atitlán	14	Cerro de Oro	9	Septiembre	2023-09-17T00:00:00	2024-11-08T22:00:00	3	Temperatura mínima	18.1
173116	7	Sololá	719	Santiago Atitlán	14	Cerro de Oro	9	Septiembre	2023-09-17T00:00:00	2024-11-08T22:00:00	5	Humedad	93
173117	7	Sololá	719	Santiago Atitlán	14	Cerro de Oro	9	Septiembre	2023-09-17T00:00:00	2024-11-08T22:00:00	6	Velocidad del viento	11.3
173118	7	Sololá	719	Santiago Atitlán	14	Cerro de Oro	9	Septiembre	2023-09-17T00:00:00	2024-11-08T22:00:00	7	Dirección del viento	11.27
173119	7	Sololá	719	Santiago Atitlán	14	Cerro de Oro	9	Septiembre	2023-09-17T00:00:00	2024-11-08T22:00:00	1	Precipitación	0
173120	7	Sololá	719	Santiago Atitlán	14	Cerro de Oro	9	Septiembre	2023-09-17T00:00:00	2024-11-08T22:00:00	8	Radiación solar	0
173121	7	Sololá	719	Santiago Atitlán	14	Cerro de Oro	9	Septiembre	2023-09-17T00:00:00	2024-11-08T23:00:00	2	Temperatura media	17.8
173122	7	Sololá	719	Santiago Atitlán	14	Cerro de Oro	9	Septiembre	2023-09-17T00:00:00	2024-11-08T23:00:00	4	Temperatura máxima	18.3
173123	7	Sololá	719	Santiago Atitlán	14	Cerro de Oro	9	Septiembre	2023-09-17T00:00:00	2024-11-08T23:00:00	3	Temperatura mínima	17.8
173124	7	Sololá	719	Santiago Atitlán	14	Cerro de Oro	9	Septiembre	2023-09-17T00:00:00	2024-11-08T23:00:00	5	Humedad	93
173125	7	Sololá	719	Santiago Atitlán	14	Cerro de Oro	9	Septiembre	2023-09-17T00:00:00	2024-11-08T23:00:00	6	Velocidad del viento	4.8
173126	7	Sololá	719	Santiago Atitlán	14	Cerro de Oro	9	Septiembre	2023-09-17T00:00:00	2024-11-08T23:00:00	7	Dirección del viento	4.83
173127	7	Sololá	719	Santiago Atitlán	14	Cerro de Oro	9	Septiembre	2023-09-17T00:00:00	2024-11-08T23:00:00	1	Precipitación	0.8
173128	7	Sololá	719	Santiago Atitlán	14	Cerro de Oro	9	Septiembre	2023-09-17T00:00:00	2024-11-08T23:00:00	8	Radiación solar	0
173129	7	Sololá	719	Santiago Atitlán	14	Cerro de Oro	9	Septiembre	2023-09-18T00:00:00	2024-11-08T00:00:00	2	Temperatura media	17.4
173130	7	Sololá	719	Santiago Atitlán	14	Cerro de Oro	9	Septiembre	2023-09-18T00:00:00	2024-11-08T00:00:00	4	Temperatura máxima	17.9
173131	7	Sololá	719	Santiago Atitlán	14	Cerro de Oro	9	Septiembre	2023-09-18T00:00:00	2024-11-08T00:00:00	3	Temperatura mínima	17.2
173132	7	Sololá	719	Santiago Atitlán	14	Cerro de Oro	9	Septiembre	2023-09-18T00:00:00	2024-11-08T00:00:00	5	Humedad	93
173133	7	Sololá	719	Santiago Atitlán	14	Cerro de Oro	9	Septiembre	2023-09-18T00:00:00	2024-11-08T00:00:00	6	Velocidad del viento	4.8
173134	7	Sololá	719	Santiago Atitlán	14	Cerro de Oro	9	Septiembre	2023-09-18T00:00:00	2024-11-08T00:00:00	7	Dirección del viento	4.83
173135	7	Sololá	719	Santiago Atitlán	14	Cerro de Oro	9	Septiembre	2023-09-18T00:00:00	2024-11-08T00:00:00	1	Precipitación	3.8
173136	7	Sololá	719	Santiago Atitlán	14	Cerro de Oro	9	Septiembre	2023-09-18T00:00:00	2024-11-08T00:00:00	8	Radiación solar	0
173137	7	Sololá	719	Santiago Atitlán	14	Cerro de Oro	9	Septiembre	2023-09-18T00:00:00	2024-11-08T01:00:00	2	Temperatura media	17.5
173138	7	Sololá	719	Santiago Atitlán	14	Cerro de Oro	9	Septiembre	2023-09-18T00:00:00	2024-11-08T01:00:00	4	Temperatura máxima	17.5
173139	7	Sololá	719	Santiago Atitlán	14	Cerro de Oro	9	Septiembre	2023-09-18T00:00:00	2024-11-08T01:00:00	3	Temperatura mínima	17.3
173140	7	Sololá	719	Santiago Atitlán	14	Cerro de Oro	9	Septiembre	2023-09-18T00:00:00	2024-11-08T01:00:00	5	Humedad	92
173141	7	Sololá	719	Santiago Atitlán	14	Cerro de Oro	9	Septiembre	2023-09-18T00:00:00	2024-11-08T01:00:00	6	Velocidad del viento	4.8
173142	7	Sololá	719	Santiago Atitlán	14	Cerro de Oro	9	Septiembre	2023-09-18T00:00:00	2024-11-08T01:00:00	7	Dirección del viento	4.83
173143	7	Sololá	719	Santiago Atitlán	14	Cerro de Oro	9	Septiembre	2023-09-18T00:00:00	2024-11-08T01:00:00	1	Precipitación	0.2
173144	7	Sololá	719	Santiago Atitlán	14	Cerro de Oro	9	Septiembre	2023-09-18T00:00:00	2024-11-08T01:00:00	8	Radiación solar	0
173145	7	Sololá	719	Santiago Atitlán	14	Cerro de Oro	9	Septiembre	2023-09-18T00:00:00	2024-11-08T02:00:00	2	Temperatura media	17.4
173146	7	Sololá	719	Santiago Atitlán	14	Cerro de Oro	9	Septiembre	2023-09-18T00:00:00	2024-11-08T02:00:00	4	Temperatura máxima	18.1
173147	7	Sololá	719	Santiago Atitlán	14	Cerro de Oro	9	Septiembre	2023-09-18T00:00:00	2024-11-08T02:00:00	3	Temperatura mínima	17.3
173148	7	Sololá	719	Santiago Atitlán	14	Cerro de Oro	9	Septiembre	2023-09-18T00:00:00	2024-11-08T02:00:00	5	Humedad	87
173149	7	Sololá	719	Santiago Atitlán	14	Cerro de Oro	9	Septiembre	2023-09-18T00:00:00	2024-11-08T02:00:00	6	Velocidad del viento	6.4
173150	7	Sololá	719	Santiago Atitlán	14	Cerro de Oro	9	Septiembre	2023-09-18T00:00:00	2024-11-08T02:00:00	7	Dirección del viento	6.44
173151	7	Sololá	719	Santiago Atitlán	14	Cerro de Oro	9	Septiembre	2023-09-18T00:00:00	2024-11-08T02:00:00	1	Precipitación	0
173152	7	Sololá	719	Santiago Atitlán	14	Cerro de Oro	9	Septiembre	2023-09-18T00:00:00	2024-11-08T02:00:00	8	Radiación solar	0
173153	7	Sololá	719	Santiago Atitlán	14	Cerro de Oro	9	Septiembre	2023-09-18T00:00:00	2024-11-08T03:00:00	2	Temperatura media	17.8
173154	7	Sololá	719	Santiago Atitlán	14	Cerro de Oro	9	Septiembre	2023-09-18T00:00:00	2024-11-08T03:00:00	4	Temperatura máxima	17.8
173155	7	Sololá	719	Santiago Atitlán	14	Cerro de Oro	9	Septiembre	2023-09-18T00:00:00	2024-11-08T03:00:00	3	Temperatura mínima	17.4
173156	7	Sololá	719	Santiago Atitlán	14	Cerro de Oro	9	Septiembre	2023-09-18T00:00:00	2024-11-08T03:00:00	5	Humedad	80
173157	7	Sololá	719	Santiago Atitlán	14	Cerro de Oro	9	Septiembre	2023-09-18T00:00:00	2024-11-08T03:00:00	6	Velocidad del viento	6.4
173158	7	Sololá	719	Santiago Atitlán	14	Cerro de Oro	9	Septiembre	2023-09-18T00:00:00	2024-11-08T03:00:00	7	Dirección del viento	6.44
173159	7	Sololá	719	Santiago Atitlán	14	Cerro de Oro	9	Septiembre	2023-09-18T00:00:00	2024-11-08T03:00:00	1	Precipitación	0
173160	7	Sololá	719	Santiago Atitlán	14	Cerro de Oro	9	Septiembre	2023-09-18T00:00:00	2024-11-08T03:00:00	8	Radiación solar	0
173161	7	Sololá	719	Santiago Atitlán	14	Cerro de Oro	9	Septiembre	2023-09-18T00:00:00	2024-11-08T04:00:00	2	Temperatura media	18
173162	7	Sololá	719	Santiago Atitlán	14	Cerro de Oro	9	Septiembre	2023-09-18T00:00:00	2024-11-08T04:00:00	4	Temperatura máxima	18.1
173163	7	Sololá	719	Santiago Atitlán	14	Cerro de Oro	9	Septiembre	2023-09-18T00:00:00	2024-11-08T04:00:00	3	Temperatura mínima	17.5
173164	7	Sololá	719	Santiago Atitlán	14	Cerro de Oro	9	Septiembre	2023-09-18T00:00:00	2024-11-08T04:00:00	5	Humedad	82
173165	7	Sololá	719	Santiago Atitlán	14	Cerro de Oro	9	Septiembre	2023-09-18T00:00:00	2024-11-08T04:00:00	6	Velocidad del viento	4.8
173166	7	Sololá	719	Santiago Atitlán	14	Cerro de Oro	9	Septiembre	2023-09-18T00:00:00	2024-11-08T04:00:00	7	Dirección del viento	4.83
173167	7	Sololá	719	Santiago Atitlán	14	Cerro de Oro	9	Septiembre	2023-09-18T00:00:00	2024-11-08T04:00:00	1	Precipitación	0
173168	7	Sololá	719	Santiago Atitlán	14	Cerro de Oro	9	Septiembre	2023-09-18T00:00:00	2024-11-08T04:00:00	8	Radiación solar	0
173169	7	Sololá	719	Santiago Atitlán	14	Cerro de Oro	9	Septiembre	2023-09-18T00:00:00	2024-11-08T05:00:00	2	Temperatura media	18.1
173170	7	Sololá	719	Santiago Atitlán	14	Cerro de Oro	9	Septiembre	2023-09-18T00:00:00	2024-11-08T05:00:00	4	Temperatura máxima	18.1
173171	7	Sololá	719	Santiago Atitlán	14	Cerro de Oro	9	Septiembre	2023-09-18T00:00:00	2024-11-08T05:00:00	3	Temperatura mínima	17.7
173172	7	Sololá	719	Santiago Atitlán	14	Cerro de Oro	9	Septiembre	2023-09-18T00:00:00	2024-11-08T05:00:00	5	Humedad	75
173173	7	Sololá	719	Santiago Atitlán	14	Cerro de Oro	9	Septiembre	2023-09-18T00:00:00	2024-11-08T05:00:00	6	Velocidad del viento	4.8
173174	7	Sololá	719	Santiago Atitlán	14	Cerro de Oro	9	Septiembre	2023-09-18T00:00:00	2024-11-08T05:00:00	7	Dirección del viento	4.83
173175	7	Sololá	719	Santiago Atitlán	14	Cerro de Oro	9	Septiembre	2023-09-18T00:00:00	2024-11-08T05:00:00	1	Precipitación	0
173176	7	Sololá	719	Santiago Atitlán	14	Cerro de Oro	9	Septiembre	2023-09-18T00:00:00	2024-11-08T05:00:00	8	Radiación solar	0
173177	7	Sololá	719	Santiago Atitlán	14	Cerro de Oro	9	Septiembre	2023-09-18T00:00:00	2024-11-08T06:00:00	2	Temperatura media	19.4
173178	7	Sololá	719	Santiago Atitlán	14	Cerro de Oro	9	Septiembre	2023-09-18T00:00:00	2024-11-08T06:00:00	4	Temperatura máxima	19.7
173179	7	Sololá	719	Santiago Atitlán	14	Cerro de Oro	9	Septiembre	2023-09-18T00:00:00	2024-11-08T06:00:00	3	Temperatura mínima	18.1
173180	7	Sololá	719	Santiago Atitlán	14	Cerro de Oro	9	Septiembre	2023-09-18T00:00:00	2024-11-08T06:00:00	5	Humedad	69
173181	7	Sololá	719	Santiago Atitlán	14	Cerro de Oro	9	Septiembre	2023-09-18T00:00:00	2024-11-08T06:00:00	6	Velocidad del viento	8
173182	7	Sololá	719	Santiago Atitlán	14	Cerro de Oro	9	Septiembre	2023-09-18T00:00:00	2024-11-08T06:00:00	7	Dirección del viento	8.05
173183	7	Sololá	719	Santiago Atitlán	14	Cerro de Oro	9	Septiembre	2023-09-18T00:00:00	2024-11-08T06:00:00	1	Precipitación	0
173184	7	Sololá	719	Santiago Atitlán	14	Cerro de Oro	9	Septiembre	2023-09-18T00:00:00	2024-11-08T06:00:00	8	Radiación solar	0
173185	7	Sololá	719	Santiago Atitlán	14	Cerro de Oro	9	Septiembre	2023-09-18T00:00:00	2024-11-08T07:00:00	2	Temperatura media	20.1
173186	7	Sololá	719	Santiago Atitlán	14	Cerro de Oro	9	Septiembre	2023-09-18T00:00:00	2024-11-08T07:00:00	4	Temperatura máxima	20.1
173187	7	Sololá	719	Santiago Atitlán	14	Cerro de Oro	9	Septiembre	2023-09-18T00:00:00	2024-11-08T07:00:00	3	Temperatura mínima	19
173188	7	Sololá	719	Santiago Atitlán	14	Cerro de Oro	9	Septiembre	2023-09-18T00:00:00	2024-11-08T07:00:00	5	Humedad	66
173189	7	Sololá	719	Santiago Atitlán	14	Cerro de Oro	9	Septiembre	2023-09-18T00:00:00	2024-11-08T07:00:00	6	Velocidad del viento	6.4
173190	7	Sololá	719	Santiago Atitlán	14	Cerro de Oro	9	Septiembre	2023-09-18T00:00:00	2024-11-08T07:00:00	7	Dirección del viento	6.44
173191	7	Sololá	719	Santiago Atitlán	14	Cerro de Oro	9	Septiembre	2023-09-18T00:00:00	2024-11-08T07:00:00	1	Precipitación	0
173192	7	Sololá	719	Santiago Atitlán	14	Cerro de Oro	9	Septiembre	2023-09-18T00:00:00	2024-11-08T07:00:00	8	Radiación solar	46
173193	7	Sololá	719	Santiago Atitlán	14	Cerro de Oro	9	Septiembre	2023-09-18T00:00:00	2024-11-08T08:00:00	2	Temperatura media	21.4
173194	7	Sololá	719	Santiago Atitlán	14	Cerro de Oro	9	Septiembre	2023-09-18T00:00:00	2024-11-08T08:00:00	4	Temperatura máxima	21.4
173195	7	Sololá	719	Santiago Atitlán	14	Cerro de Oro	9	Septiembre	2023-09-18T00:00:00	2024-11-08T08:00:00	3	Temperatura mínima	19.9
173196	7	Sololá	719	Santiago Atitlán	14	Cerro de Oro	9	Septiembre	2023-09-18T00:00:00	2024-11-08T08:00:00	5	Humedad	65
173197	7	Sololá	719	Santiago Atitlán	14	Cerro de Oro	9	Septiembre	2023-09-18T00:00:00	2024-11-08T08:00:00	6	Velocidad del viento	4.8
173198	7	Sololá	719	Santiago Atitlán	14	Cerro de Oro	9	Septiembre	2023-09-18T00:00:00	2024-11-08T08:00:00	7	Dirección del viento	4.83
173199	7	Sololá	719	Santiago Atitlán	14	Cerro de Oro	9	Septiembre	2023-09-18T00:00:00	2024-11-08T08:00:00	1	Precipitación	0
173200	7	Sololá	719	Santiago Atitlán	14	Cerro de Oro	9	Septiembre	2023-09-18T00:00:00	2024-11-08T08:00:00	8	Radiación solar	161
173201	7	Sololá	719	Santiago Atitlán	14	Cerro de Oro	9	Septiembre	2023-09-18T00:00:00	2024-11-08T09:00:00	2	Temperatura media	22.4
173202	7	Sololá	719	Santiago Atitlán	14	Cerro de Oro	9	Septiembre	2023-09-18T00:00:00	2024-11-08T09:00:00	4	Temperatura máxima	22.7
173203	7	Sololá	719	Santiago Atitlán	14	Cerro de Oro	9	Septiembre	2023-09-18T00:00:00	2024-11-08T09:00:00	3	Temperatura mínima	21.4
173204	7	Sololá	719	Santiago Atitlán	14	Cerro de Oro	9	Septiembre	2023-09-18T00:00:00	2024-11-08T09:00:00	5	Humedad	57
173205	7	Sololá	719	Santiago Atitlán	14	Cerro de Oro	9	Septiembre	2023-09-18T00:00:00	2024-11-08T09:00:00	6	Velocidad del viento	4.8
173206	7	Sololá	719	Santiago Atitlán	14	Cerro de Oro	9	Septiembre	2023-09-18T00:00:00	2024-11-08T09:00:00	7	Dirección del viento	4.83
173207	7	Sololá	719	Santiago Atitlán	14	Cerro de Oro	9	Septiembre	2023-09-18T00:00:00	2024-11-08T09:00:00	1	Precipitación	0
173208	7	Sololá	719	Santiago Atitlán	14	Cerro de Oro	9	Septiembre	2023-09-18T00:00:00	2024-11-08T09:00:00	8	Radiación solar	365
173209	7	Sololá	719	Santiago Atitlán	14	Cerro de Oro	9	Septiembre	2023-09-18T00:00:00	2024-11-08T10:00:00	2	Temperatura media	24.3
173210	7	Sololá	719	Santiago Atitlán	14	Cerro de Oro	9	Septiembre	2023-09-18T00:00:00	2024-11-08T10:00:00	4	Temperatura máxima	24.3
173211	7	Sololá	719	Santiago Atitlán	14	Cerro de Oro	9	Septiembre	2023-09-18T00:00:00	2024-11-08T10:00:00	3	Temperatura mínima	22.4
173212	7	Sololá	719	Santiago Atitlán	14	Cerro de Oro	9	Septiembre	2023-09-18T00:00:00	2024-11-08T10:00:00	5	Humedad	54
173213	7	Sololá	719	Santiago Atitlán	14	Cerro de Oro	9	Septiembre	2023-09-18T00:00:00	2024-11-08T10:00:00	6	Velocidad del viento	3.2
173214	7	Sololá	719	Santiago Atitlán	14	Cerro de Oro	9	Septiembre	2023-09-18T00:00:00	2024-11-08T10:00:00	7	Dirección del viento	3.22
173215	7	Sololá	719	Santiago Atitlán	14	Cerro de Oro	9	Septiembre	2023-09-18T00:00:00	2024-11-08T10:00:00	1	Precipitación	0
173216	7	Sololá	719	Santiago Atitlán	14	Cerro de Oro	9	Septiembre	2023-09-18T00:00:00	2024-11-08T10:00:00	8	Radiación solar	709
173217	7	Sololá	719	Santiago Atitlán	14	Cerro de Oro	9	Septiembre	2023-09-18T00:00:00	2024-11-08T11:00:00	2	Temperatura media	23.9
173218	7	Sololá	719	Santiago Atitlán	14	Cerro de Oro	9	Septiembre	2023-09-18T00:00:00	2024-11-08T11:00:00	4	Temperatura máxima	24.6
173219	7	Sololá	719	Santiago Atitlán	14	Cerro de Oro	9	Septiembre	2023-09-18T00:00:00	2024-11-08T11:00:00	3	Temperatura mínima	23.9
173220	7	Sololá	719	Santiago Atitlán	14	Cerro de Oro	9	Septiembre	2023-09-18T00:00:00	2024-11-08T11:00:00	5	Humedad	71
173221	7	Sololá	719	Santiago Atitlán	14	Cerro de Oro	9	Septiembre	2023-09-18T00:00:00	2024-11-08T11:00:00	6	Velocidad del viento	9.7
173222	7	Sololá	719	Santiago Atitlán	14	Cerro de Oro	9	Septiembre	2023-09-18T00:00:00	2024-11-08T11:00:00	7	Dirección del viento	9.66
173223	7	Sololá	719	Santiago Atitlán	14	Cerro de Oro	9	Septiembre	2023-09-18T00:00:00	2024-11-08T11:00:00	1	Precipitación	0
173224	7	Sololá	719	Santiago Atitlán	14	Cerro de Oro	9	Septiembre	2023-09-18T00:00:00	2024-11-08T11:00:00	8	Radiación solar	861
173225	7	Sololá	719	Santiago Atitlán	14	Cerro de Oro	9	Septiembre	2023-09-18T00:00:00	2024-11-08T12:00:00	2	Temperatura media	24.2
173226	7	Sololá	719	Santiago Atitlán	14	Cerro de Oro	9	Septiembre	2023-09-18T00:00:00	2024-11-08T12:00:00	4	Temperatura máxima	24.6
173227	7	Sololá	719	Santiago Atitlán	14	Cerro de Oro	9	Septiembre	2023-09-18T00:00:00	2024-11-08T12:00:00	3	Temperatura mínima	23.8
173228	7	Sololá	719	Santiago Atitlán	14	Cerro de Oro	9	Septiembre	2023-09-18T00:00:00	2024-11-08T12:00:00	5	Humedad	73
173229	7	Sololá	719	Santiago Atitlán	14	Cerro de Oro	9	Septiembre	2023-09-18T00:00:00	2024-11-08T12:00:00	6	Velocidad del viento	11.3
173230	7	Sololá	719	Santiago Atitlán	14	Cerro de Oro	9	Septiembre	2023-09-18T00:00:00	2024-11-08T12:00:00	7	Dirección del viento	11.27
173231	7	Sololá	719	Santiago Atitlán	14	Cerro de Oro	9	Septiembre	2023-09-18T00:00:00	2024-11-08T12:00:00	1	Precipitación	0
173232	7	Sololá	719	Santiago Atitlán	14	Cerro de Oro	9	Septiembre	2023-09-18T00:00:00	2024-11-08T12:00:00	8	Radiación solar	945
173233	7	Sololá	719	Santiago Atitlán	14	Cerro de Oro	9	Septiembre	2023-09-18T00:00:00	2024-11-08T13:00:00	2	Temperatura media	23.9
173234	7	Sololá	719	Santiago Atitlán	14	Cerro de Oro	9	Septiembre	2023-09-18T00:00:00	2024-11-08T13:00:00	4	Temperatura máxima	24.2
173235	7	Sololá	719	Santiago Atitlán	14	Cerro de Oro	9	Septiembre	2023-09-18T00:00:00	2024-11-08T13:00:00	3	Temperatura mínima	23.3
173236	7	Sololá	719	Santiago Atitlán	14	Cerro de Oro	9	Septiembre	2023-09-18T00:00:00	2024-11-08T13:00:00	5	Humedad	74
173237	7	Sololá	719	Santiago Atitlán	14	Cerro de Oro	9	Septiembre	2023-09-18T00:00:00	2024-11-08T13:00:00	6	Velocidad del viento	12.9
173238	7	Sololá	719	Santiago Atitlán	14	Cerro de Oro	9	Septiembre	2023-09-18T00:00:00	2024-11-08T13:00:00	7	Dirección del viento	12.87
173239	7	Sololá	719	Santiago Atitlán	14	Cerro de Oro	9	Septiembre	2023-09-18T00:00:00	2024-11-08T13:00:00	1	Precipitación	0
173240	7	Sololá	719	Santiago Atitlán	14	Cerro de Oro	9	Septiembre	2023-09-18T00:00:00	2024-11-08T13:00:00	8	Radiación solar	1015
173241	7	Sololá	719	Santiago Atitlán	14	Cerro de Oro	9	Septiembre	2023-09-18T00:00:00	2024-11-08T14:00:00	2	Temperatura media	23.8
173242	7	Sololá	719	Santiago Atitlán	14	Cerro de Oro	9	Septiembre	2023-09-18T00:00:00	2024-11-08T14:00:00	4	Temperatura máxima	24
173243	7	Sololá	719	Santiago Atitlán	14	Cerro de Oro	9	Septiembre	2023-09-18T00:00:00	2024-11-08T14:00:00	3	Temperatura mínima	23.3
173244	7	Sololá	719	Santiago Atitlán	14	Cerro de Oro	9	Septiembre	2023-09-18T00:00:00	2024-11-08T14:00:00	5	Humedad	73
173245	7	Sololá	719	Santiago Atitlán	14	Cerro de Oro	9	Septiembre	2023-09-18T00:00:00	2024-11-08T14:00:00	6	Velocidad del viento	11.3
173246	7	Sololá	719	Santiago Atitlán	14	Cerro de Oro	9	Septiembre	2023-09-18T00:00:00	2024-11-08T14:00:00	7	Dirección del viento	11.27
173247	7	Sololá	719	Santiago Atitlán	14	Cerro de Oro	9	Septiembre	2023-09-18T00:00:00	2024-11-08T14:00:00	1	Precipitación	0
173248	7	Sololá	719	Santiago Atitlán	14	Cerro de Oro	9	Septiembre	2023-09-18T00:00:00	2024-11-08T14:00:00	8	Radiación solar	905
173249	7	Sololá	719	Santiago Atitlán	14	Cerro de Oro	9	Septiembre	2023-09-18T00:00:00	2024-11-08T15:00:00	2	Temperatura media	23.3
173250	7	Sololá	719	Santiago Atitlán	14	Cerro de Oro	9	Septiembre	2023-09-18T00:00:00	2024-11-08T15:00:00	4	Temperatura máxima	24.2
173251	7	Sololá	719	Santiago Atitlán	14	Cerro de Oro	9	Septiembre	2023-09-18T00:00:00	2024-11-08T15:00:00	3	Temperatura mínima	23.2
173252	7	Sololá	719	Santiago Atitlán	14	Cerro de Oro	9	Septiembre	2023-09-18T00:00:00	2024-11-08T15:00:00	5	Humedad	76
173253	7	Sololá	719	Santiago Atitlán	14	Cerro de Oro	9	Septiembre	2023-09-18T00:00:00	2024-11-08T15:00:00	6	Velocidad del viento	9.7
173254	7	Sololá	719	Santiago Atitlán	14	Cerro de Oro	9	Septiembre	2023-09-18T00:00:00	2024-11-08T15:00:00	7	Dirección del viento	9.66
173255	7	Sololá	719	Santiago Atitlán	14	Cerro de Oro	9	Septiembre	2023-09-18T00:00:00	2024-11-08T15:00:00	1	Precipitación	0
173256	7	Sololá	719	Santiago Atitlán	14	Cerro de Oro	9	Septiembre	2023-09-18T00:00:00	2024-11-08T15:00:00	8	Radiación solar	732
173257	7	Sololá	719	Santiago Atitlán	14	Cerro de Oro	9	Septiembre	2023-09-18T00:00:00	2024-11-08T16:00:00	2	Temperatura media	21.6
173258	7	Sololá	719	Santiago Atitlán	14	Cerro de Oro	9	Septiembre	2023-09-18T00:00:00	2024-11-08T16:00:00	4	Temperatura máxima	23.6
173259	7	Sololá	719	Santiago Atitlán	14	Cerro de Oro	9	Septiembre	2023-09-18T00:00:00	2024-11-08T16:00:00	3	Temperatura mínima	21.6
173260	7	Sololá	719	Santiago Atitlán	14	Cerro de Oro	9	Septiembre	2023-09-18T00:00:00	2024-11-08T16:00:00	5	Humedad	83
173261	7	Sololá	719	Santiago Atitlán	14	Cerro de Oro	9	Septiembre	2023-09-18T00:00:00	2024-11-08T16:00:00	6	Velocidad del viento	8
173262	7	Sololá	719	Santiago Atitlán	14	Cerro de Oro	9	Septiembre	2023-09-18T00:00:00	2024-11-08T16:00:00	7	Dirección del viento	8.05
173263	7	Sololá	719	Santiago Atitlán	14	Cerro de Oro	9	Septiembre	2023-09-18T00:00:00	2024-11-08T16:00:00	1	Precipitación	0
173264	7	Sololá	719	Santiago Atitlán	14	Cerro de Oro	9	Septiembre	2023-09-18T00:00:00	2024-11-08T16:00:00	8	Radiación solar	166
173265	7	Sololá	719	Santiago Atitlán	14	Cerro de Oro	9	Septiembre	2023-09-18T00:00:00	2024-11-08T17:00:00	2	Temperatura media	19.3
173266	7	Sololá	719	Santiago Atitlán	14	Cerro de Oro	9	Septiembre	2023-09-18T00:00:00	2024-11-08T17:00:00	4	Temperatura máxima	21.6
173267	7	Sololá	719	Santiago Atitlán	14	Cerro de Oro	9	Septiembre	2023-09-18T00:00:00	2024-11-08T17:00:00	3	Temperatura mínima	19.3
173268	7	Sololá	719	Santiago Atitlán	14	Cerro de Oro	9	Septiembre	2023-09-18T00:00:00	2024-11-08T17:00:00	5	Humedad	90
173269	7	Sololá	719	Santiago Atitlán	14	Cerro de Oro	9	Septiembre	2023-09-18T00:00:00	2024-11-08T17:00:00	6	Velocidad del viento	9.7
173270	7	Sololá	719	Santiago Atitlán	14	Cerro de Oro	9	Septiembre	2023-09-18T00:00:00	2024-11-08T17:00:00	7	Dirección del viento	9.66
173271	7	Sololá	719	Santiago Atitlán	14	Cerro de Oro	9	Septiembre	2023-09-18T00:00:00	2024-11-08T17:00:00	1	Precipitación	0
173272	7	Sololá	719	Santiago Atitlán	14	Cerro de Oro	9	Septiembre	2023-09-18T00:00:00	2024-11-08T17:00:00	8	Radiación solar	66
173273	7	Sololá	719	Santiago Atitlán	14	Cerro de Oro	9	Septiembre	2023-09-18T00:00:00	2024-11-08T18:00:00	2	Temperatura media	19.2
173274	7	Sololá	719	Santiago Atitlán	14	Cerro de Oro	9	Septiembre	2023-09-18T00:00:00	2024-11-08T18:00:00	4	Temperatura máxima	19.3
173275	7	Sololá	719	Santiago Atitlán	14	Cerro de Oro	9	Septiembre	2023-09-18T00:00:00	2024-11-08T18:00:00	3	Temperatura mínima	18.9
173276	7	Sololá	719	Santiago Atitlán	14	Cerro de Oro	9	Septiembre	2023-09-18T00:00:00	2024-11-08T18:00:00	5	Humedad	86
173277	7	Sololá	719	Santiago Atitlán	14	Cerro de Oro	9	Septiembre	2023-09-18T00:00:00	2024-11-08T18:00:00	6	Velocidad del viento	12.9
173278	7	Sololá	719	Santiago Atitlán	14	Cerro de Oro	9	Septiembre	2023-09-18T00:00:00	2024-11-08T18:00:00	7	Dirección del viento	12.87
173279	7	Sololá	719	Santiago Atitlán	14	Cerro de Oro	9	Septiembre	2023-09-18T00:00:00	2024-11-08T18:00:00	1	Precipitación	0
173280	7	Sololá	719	Santiago Atitlán	14	Cerro de Oro	9	Septiembre	2023-09-18T00:00:00	2024-11-08T18:00:00	8	Radiación solar	11
173281	7	Sololá	719	Santiago Atitlán	14	Cerro de Oro	9	Septiembre	2023-09-18T00:00:00	2024-11-08T19:00:00	2	Temperatura media	19
173282	7	Sololá	719	Santiago Atitlán	14	Cerro de Oro	9	Septiembre	2023-09-18T00:00:00	2024-11-08T19:00:00	4	Temperatura máxima	19.4
173283	7	Sololá	719	Santiago Atitlán	14	Cerro de Oro	9	Septiembre	2023-09-18T00:00:00	2024-11-08T19:00:00	3	Temperatura mínima	19
173284	7	Sololá	719	Santiago Atitlán	14	Cerro de Oro	9	Septiembre	2023-09-18T00:00:00	2024-11-08T19:00:00	5	Humedad	88
173285	7	Sololá	719	Santiago Atitlán	14	Cerro de Oro	9	Septiembre	2023-09-18T00:00:00	2024-11-08T19:00:00	6	Velocidad del viento	8
173286	7	Sololá	719	Santiago Atitlán	14	Cerro de Oro	9	Septiembre	2023-09-18T00:00:00	2024-11-08T19:00:00	7	Dirección del viento	8.05
173287	7	Sololá	719	Santiago Atitlán	14	Cerro de Oro	9	Septiembre	2023-09-18T00:00:00	2024-11-08T19:00:00	1	Precipitación	0
173288	7	Sololá	719	Santiago Atitlán	14	Cerro de Oro	9	Septiembre	2023-09-18T00:00:00	2024-11-08T19:00:00	8	Radiación solar	0
173289	7	Sololá	719	Santiago Atitlán	14	Cerro de Oro	9	Septiembre	2023-09-18T00:00:00	2024-11-08T20:00:00	2	Temperatura media	19.3
173290	7	Sololá	719	Santiago Atitlán	14	Cerro de Oro	9	Septiembre	2023-09-18T00:00:00	2024-11-08T20:00:00	4	Temperatura máxima	19.4
173291	7	Sololá	719	Santiago Atitlán	14	Cerro de Oro	9	Septiembre	2023-09-18T00:00:00	2024-11-08T20:00:00	3	Temperatura mínima	18.8
173292	7	Sololá	719	Santiago Atitlán	14	Cerro de Oro	9	Septiembre	2023-09-18T00:00:00	2024-11-08T20:00:00	5	Humedad	87
173293	7	Sololá	719	Santiago Atitlán	14	Cerro de Oro	9	Septiembre	2023-09-18T00:00:00	2024-11-08T20:00:00	6	Velocidad del viento	4.8
173294	7	Sololá	719	Santiago Atitlán	14	Cerro de Oro	9	Septiembre	2023-09-18T00:00:00	2024-11-08T20:00:00	7	Dirección del viento	4.83
173295	7	Sololá	719	Santiago Atitlán	14	Cerro de Oro	9	Septiembre	2023-09-18T00:00:00	2024-11-08T20:00:00	1	Precipitación	0
173296	7	Sololá	719	Santiago Atitlán	14	Cerro de Oro	9	Septiembre	2023-09-18T00:00:00	2024-11-08T20:00:00	8	Radiación solar	0
173297	7	Sololá	719	Santiago Atitlán	14	Cerro de Oro	9	Septiembre	2023-09-18T00:00:00	2024-11-08T21:00:00	2	Temperatura media	18.7
173298	7	Sololá	719	Santiago Atitlán	14	Cerro de Oro	9	Septiembre	2023-09-18T00:00:00	2024-11-08T21:00:00	4	Temperatura máxima	19.3
173299	7	Sololá	719	Santiago Atitlán	14	Cerro de Oro	9	Septiembre	2023-09-18T00:00:00	2024-11-08T21:00:00	3	Temperatura mínima	18.6
173300	7	Sololá	719	Santiago Atitlán	14	Cerro de Oro	9	Septiembre	2023-09-18T00:00:00	2024-11-08T21:00:00	5	Humedad	90
173301	7	Sololá	719	Santiago Atitlán	14	Cerro de Oro	9	Septiembre	2023-09-18T00:00:00	2024-11-08T21:00:00	6	Velocidad del viento	3.2
173302	7	Sololá	719	Santiago Atitlán	14	Cerro de Oro	9	Septiembre	2023-09-18T00:00:00	2024-11-08T21:00:00	7	Dirección del viento	3.22
173303	7	Sololá	719	Santiago Atitlán	14	Cerro de Oro	9	Septiembre	2023-09-18T00:00:00	2024-11-08T21:00:00	1	Precipitación	0
173304	7	Sololá	719	Santiago Atitlán	14	Cerro de Oro	9	Septiembre	2023-09-18T00:00:00	2024-11-08T21:00:00	8	Radiación solar	0
173305	7	Sololá	719	Santiago Atitlán	14	Cerro de Oro	9	Septiembre	2023-09-18T00:00:00	2024-11-08T22:00:00	2	Temperatura media	19.1
173306	7	Sololá	719	Santiago Atitlán	14	Cerro de Oro	9	Septiembre	2023-09-18T00:00:00	2024-11-08T22:00:00	4	Temperatura máxima	19.1
173307	7	Sololá	719	Santiago Atitlán	14	Cerro de Oro	9	Septiembre	2023-09-18T00:00:00	2024-11-08T22:00:00	3	Temperatura mínima	18.3
173308	7	Sololá	719	Santiago Atitlán	14	Cerro de Oro	9	Septiembre	2023-09-18T00:00:00	2024-11-08T22:00:00	5	Humedad	83
173309	7	Sololá	719	Santiago Atitlán	14	Cerro de Oro	9	Septiembre	2023-09-18T00:00:00	2024-11-08T22:00:00	6	Velocidad del viento	3.2
173310	7	Sololá	719	Santiago Atitlán	14	Cerro de Oro	9	Septiembre	2023-09-18T00:00:00	2024-11-08T22:00:00	7	Dirección del viento	3.22
173311	7	Sololá	719	Santiago Atitlán	14	Cerro de Oro	9	Septiembre	2023-09-18T00:00:00	2024-11-08T22:00:00	1	Precipitación	0
173312	7	Sololá	719	Santiago Atitlán	14	Cerro de Oro	9	Septiembre	2023-09-18T00:00:00	2024-11-08T22:00:00	8	Radiación solar	0
173313	7	Sololá	719	Santiago Atitlán	14	Cerro de Oro	9	Septiembre	2023-09-18T00:00:00	2024-11-08T23:00:00	2	Temperatura media	19.4
173314	7	Sololá	719	Santiago Atitlán	14	Cerro de Oro	9	Septiembre	2023-09-18T00:00:00	2024-11-08T23:00:00	4	Temperatura máxima	19.4
173315	7	Sololá	719	Santiago Atitlán	14	Cerro de Oro	9	Septiembre	2023-09-18T00:00:00	2024-11-08T23:00:00	3	Temperatura mínima	18.9
173316	7	Sololá	719	Santiago Atitlán	14	Cerro de Oro	9	Septiembre	2023-09-18T00:00:00	2024-11-08T23:00:00	5	Humedad	77
173317	7	Sololá	719	Santiago Atitlán	14	Cerro de Oro	9	Septiembre	2023-09-18T00:00:00	2024-11-08T23:00:00	6	Velocidad del viento	4.8
173318	7	Sololá	719	Santiago Atitlán	14	Cerro de Oro	9	Septiembre	2023-09-18T00:00:00	2024-11-08T23:00:00	7	Dirección del viento	4.83
173319	7	Sololá	719	Santiago Atitlán	14	Cerro de Oro	9	Septiembre	2023-09-18T00:00:00	2024-11-08T23:00:00	1	Precipitación	0
173320	7	Sololá	719	Santiago Atitlán	14	Cerro de Oro	9	Septiembre	2023-09-18T00:00:00	2024-11-08T23:00:00	8	Radiación solar	0
173321	7	Sololá	719	Santiago Atitlán	14	Cerro de Oro	9	Septiembre	2023-09-19T00:00:00	2024-11-08T00:00:00	2	Temperatura media	18.4
173322	7	Sololá	719	Santiago Atitlán	14	Cerro de Oro	9	Septiembre	2023-09-19T00:00:00	2024-11-08T00:00:00	4	Temperatura máxima	19.4
173323	7	Sololá	719	Santiago Atitlán	14	Cerro de Oro	9	Septiembre	2023-09-19T00:00:00	2024-11-08T00:00:00	3	Temperatura mínima	18.1
173324	7	Sololá	719	Santiago Atitlán	14	Cerro de Oro	9	Septiembre	2023-09-19T00:00:00	2024-11-08T00:00:00	5	Humedad	80
173325	7	Sololá	719	Santiago Atitlán	14	Cerro de Oro	9	Septiembre	2023-09-19T00:00:00	2024-11-08T00:00:00	6	Velocidad del viento	6.4
173326	7	Sololá	719	Santiago Atitlán	14	Cerro de Oro	9	Septiembre	2023-09-19T00:00:00	2024-11-08T00:00:00	7	Dirección del viento	6.44
173327	7	Sololá	719	Santiago Atitlán	14	Cerro de Oro	9	Septiembre	2023-09-19T00:00:00	2024-11-08T00:00:00	1	Precipitación	0
173328	7	Sololá	719	Santiago Atitlán	14	Cerro de Oro	9	Septiembre	2023-09-19T00:00:00	2024-11-08T00:00:00	8	Radiación solar	0
173329	7	Sololá	719	Santiago Atitlán	14	Cerro de Oro	9	Septiembre	2023-09-19T00:00:00	2024-11-08T01:00:00	2	Temperatura media	18.9
173330	7	Sololá	719	Santiago Atitlán	14	Cerro de Oro	9	Septiembre	2023-09-19T00:00:00	2024-11-08T01:00:00	4	Temperatura máxima	19
173331	7	Sololá	719	Santiago Atitlán	14	Cerro de Oro	9	Septiembre	2023-09-19T00:00:00	2024-11-08T01:00:00	3	Temperatura mínima	18.4
173332	7	Sololá	719	Santiago Atitlán	14	Cerro de Oro	9	Septiembre	2023-09-19T00:00:00	2024-11-08T01:00:00	5	Humedad	80
173333	7	Sololá	719	Santiago Atitlán	14	Cerro de Oro	9	Septiembre	2023-09-19T00:00:00	2024-11-08T01:00:00	6	Velocidad del viento	4.8
173334	7	Sololá	719	Santiago Atitlán	14	Cerro de Oro	9	Septiembre	2023-09-19T00:00:00	2024-11-08T01:00:00	7	Dirección del viento	4.83
173335	7	Sololá	719	Santiago Atitlán	14	Cerro de Oro	9	Septiembre	2023-09-19T00:00:00	2024-11-08T01:00:00	1	Precipitación	0
173336	7	Sololá	719	Santiago Atitlán	14	Cerro de Oro	9	Septiembre	2023-09-19T00:00:00	2024-11-08T01:00:00	8	Radiación solar	0
173337	7	Sololá	719	Santiago Atitlán	14	Cerro de Oro	9	Septiembre	2023-09-19T00:00:00	2024-11-08T02:00:00	2	Temperatura media	19.5
173338	7	Sololá	719	Santiago Atitlán	14	Cerro de Oro	9	Septiembre	2023-09-19T00:00:00	2024-11-08T02:00:00	4	Temperatura máxima	19.5
173339	7	Sololá	719	Santiago Atitlán	14	Cerro de Oro	9	Septiembre	2023-09-19T00:00:00	2024-11-08T02:00:00	3	Temperatura mínima	18.7
173340	7	Sololá	719	Santiago Atitlán	14	Cerro de Oro	9	Septiembre	2023-09-19T00:00:00	2024-11-08T02:00:00	5	Humedad	76
173341	7	Sololá	719	Santiago Atitlán	14	Cerro de Oro	9	Septiembre	2023-09-19T00:00:00	2024-11-08T02:00:00	6	Velocidad del viento	4.8
173342	7	Sololá	719	Santiago Atitlán	14	Cerro de Oro	9	Septiembre	2023-09-19T00:00:00	2024-11-08T02:00:00	7	Dirección del viento	4.83
173343	7	Sololá	719	Santiago Atitlán	14	Cerro de Oro	9	Septiembre	2023-09-19T00:00:00	2024-11-08T02:00:00	1	Precipitación	0
173344	7	Sololá	719	Santiago Atitlán	14	Cerro de Oro	9	Septiembre	2023-09-19T00:00:00	2024-11-08T02:00:00	8	Radiación solar	0
173345	7	Sololá	719	Santiago Atitlán	14	Cerro de Oro	9	Septiembre	2023-09-19T00:00:00	2024-11-08T03:00:00	2	Temperatura media	18.5
173346	7	Sololá	719	Santiago Atitlán	14	Cerro de Oro	9	Septiembre	2023-09-19T00:00:00	2024-11-08T03:00:00	4	Temperatura máxima	19.5
173347	7	Sololá	719	Santiago Atitlán	14	Cerro de Oro	9	Septiembre	2023-09-19T00:00:00	2024-11-08T03:00:00	3	Temperatura mínima	18.5
173348	7	Sololá	719	Santiago Atitlán	14	Cerro de Oro	9	Septiembre	2023-09-19T00:00:00	2024-11-08T03:00:00	5	Humedad	77
173349	7	Sololá	719	Santiago Atitlán	14	Cerro de Oro	9	Septiembre	2023-09-19T00:00:00	2024-11-08T03:00:00	6	Velocidad del viento	4.8
173350	7	Sololá	719	Santiago Atitlán	14	Cerro de Oro	9	Septiembre	2023-09-19T00:00:00	2024-11-08T03:00:00	7	Dirección del viento	4.83
173351	7	Sololá	719	Santiago Atitlán	14	Cerro de Oro	9	Septiembre	2023-09-19T00:00:00	2024-11-08T03:00:00	1	Precipitación	0
173352	7	Sololá	719	Santiago Atitlán	14	Cerro de Oro	9	Septiembre	2023-09-19T00:00:00	2024-11-08T03:00:00	8	Radiación solar	0
173353	7	Sololá	719	Santiago Atitlán	14	Cerro de Oro	9	Septiembre	2023-09-19T00:00:00	2024-11-08T04:00:00	2	Temperatura media	18.2
173354	7	Sololá	719	Santiago Atitlán	14	Cerro de Oro	9	Septiembre	2023-09-19T00:00:00	2024-11-08T04:00:00	4	Temperatura máxima	18.5
173355	7	Sololá	719	Santiago Atitlán	14	Cerro de Oro	9	Septiembre	2023-09-19T00:00:00	2024-11-08T04:00:00	3	Temperatura mínima	18.2
173356	7	Sololá	719	Santiago Atitlán	14	Cerro de Oro	9	Septiembre	2023-09-19T00:00:00	2024-11-08T04:00:00	5	Humedad	74
173357	7	Sololá	719	Santiago Atitlán	14	Cerro de Oro	9	Septiembre	2023-09-19T00:00:00	2024-11-08T04:00:00	6	Velocidad del viento	6.4
173358	7	Sololá	719	Santiago Atitlán	14	Cerro de Oro	9	Septiembre	2023-09-19T00:00:00	2024-11-08T04:00:00	7	Dirección del viento	6.44
173359	7	Sololá	719	Santiago Atitlán	14	Cerro de Oro	9	Septiembre	2023-09-19T00:00:00	2024-11-08T04:00:00	1	Precipitación	0
173360	7	Sololá	719	Santiago Atitlán	14	Cerro de Oro	9	Septiembre	2023-09-19T00:00:00	2024-11-08T04:00:00	8	Radiación solar	0
173361	7	Sololá	719	Santiago Atitlán	14	Cerro de Oro	9	Septiembre	2023-09-19T00:00:00	2024-11-08T05:00:00	2	Temperatura media	18.2
173362	7	Sololá	719	Santiago Atitlán	14	Cerro de Oro	9	Septiembre	2023-09-19T00:00:00	2024-11-08T05:00:00	4	Temperatura máxima	18.5
173363	7	Sololá	719	Santiago Atitlán	14	Cerro de Oro	9	Septiembre	2023-09-19T00:00:00	2024-11-08T05:00:00	3	Temperatura mínima	17.7
173364	7	Sololá	719	Santiago Atitlán	14	Cerro de Oro	9	Septiembre	2023-09-19T00:00:00	2024-11-08T05:00:00	5	Humedad	73
173365	7	Sololá	719	Santiago Atitlán	14	Cerro de Oro	9	Septiembre	2023-09-19T00:00:00	2024-11-08T05:00:00	6	Velocidad del viento	3.2
173366	7	Sololá	719	Santiago Atitlán	14	Cerro de Oro	9	Septiembre	2023-09-19T00:00:00	2024-11-08T05:00:00	7	Dirección del viento	3.22
173367	7	Sololá	719	Santiago Atitlán	14	Cerro de Oro	9	Septiembre	2023-09-19T00:00:00	2024-11-08T05:00:00	1	Precipitación	0
173368	7	Sololá	719	Santiago Atitlán	14	Cerro de Oro	9	Septiembre	2023-09-19T00:00:00	2024-11-08T05:00:00	8	Radiación solar	0
173369	7	Sololá	719	Santiago Atitlán	14	Cerro de Oro	9	Septiembre	2023-09-19T00:00:00	2024-11-08T06:00:00	2	Temperatura media	17.4
173370	7	Sololá	719	Santiago Atitlán	14	Cerro de Oro	9	Septiembre	2023-09-19T00:00:00	2024-11-08T06:00:00	4	Temperatura máxima	18.2
173371	7	Sololá	719	Santiago Atitlán	14	Cerro de Oro	9	Septiembre	2023-09-19T00:00:00	2024-11-08T06:00:00	3	Temperatura mínima	17.1
173372	7	Sololá	719	Santiago Atitlán	14	Cerro de Oro	9	Septiembre	2023-09-19T00:00:00	2024-11-08T06:00:00	5	Humedad	74
173373	7	Sololá	719	Santiago Atitlán	14	Cerro de Oro	9	Septiembre	2023-09-19T00:00:00	2024-11-08T06:00:00	6	Velocidad del viento	4.8
173374	7	Sololá	719	Santiago Atitlán	14	Cerro de Oro	9	Septiembre	2023-09-19T00:00:00	2024-11-08T06:00:00	7	Dirección del viento	4.83
173375	7	Sololá	719	Santiago Atitlán	14	Cerro de Oro	9	Septiembre	2023-09-19T00:00:00	2024-11-08T06:00:00	1	Precipitación	0
173376	7	Sololá	719	Santiago Atitlán	14	Cerro de Oro	9	Septiembre	2023-09-19T00:00:00	2024-11-08T06:00:00	8	Radiación solar	1
173377	7	Sololá	719	Santiago Atitlán	14	Cerro de Oro	9	Septiembre	2023-09-19T00:00:00	2024-11-08T07:00:00	2	Temperatura media	19.1
173378	7	Sololá	719	Santiago Atitlán	14	Cerro de Oro	9	Septiembre	2023-09-19T00:00:00	2024-11-08T07:00:00	4	Temperatura máxima	19.1
173379	7	Sololá	719	Santiago Atitlán	14	Cerro de Oro	9	Septiembre	2023-09-19T00:00:00	2024-11-08T07:00:00	3	Temperatura mínima	17.3
173380	7	Sololá	719	Santiago Atitlán	14	Cerro de Oro	9	Septiembre	2023-09-19T00:00:00	2024-11-08T07:00:00	5	Humedad	71
173381	7	Sololá	719	Santiago Atitlán	14	Cerro de Oro	9	Septiembre	2023-09-19T00:00:00	2024-11-08T07:00:00	6	Velocidad del viento	4.8
173382	7	Sololá	719	Santiago Atitlán	14	Cerro de Oro	9	Septiembre	2023-09-19T00:00:00	2024-11-08T07:00:00	7	Dirección del viento	4.83
173383	7	Sololá	719	Santiago Atitlán	14	Cerro de Oro	9	Septiembre	2023-09-19T00:00:00	2024-11-08T07:00:00	1	Precipitación	0
173384	7	Sololá	719	Santiago Atitlán	14	Cerro de Oro	9	Septiembre	2023-09-19T00:00:00	2024-11-08T07:00:00	8	Radiación solar	61
173385	7	Sololá	719	Santiago Atitlán	14	Cerro de Oro	9	Septiembre	2023-09-19T00:00:00	2024-11-08T08:00:00	2	Temperatura media	21.9
173386	7	Sololá	719	Santiago Atitlán	14	Cerro de Oro	9	Septiembre	2023-09-19T00:00:00	2024-11-08T08:00:00	4	Temperatura máxima	21.9
173387	7	Sololá	719	Santiago Atitlán	14	Cerro de Oro	9	Septiembre	2023-09-19T00:00:00	2024-11-08T08:00:00	3	Temperatura mínima	19.1
173388	7	Sololá	719	Santiago Atitlán	14	Cerro de Oro	9	Septiembre	2023-09-19T00:00:00	2024-11-08T08:00:00	5	Humedad	61
173389	7	Sololá	719	Santiago Atitlán	14	Cerro de Oro	9	Septiembre	2023-09-19T00:00:00	2024-11-08T08:00:00	6	Velocidad del viento	3.2
173390	7	Sololá	719	Santiago Atitlán	14	Cerro de Oro	9	Septiembre	2023-09-19T00:00:00	2024-11-08T08:00:00	7	Dirección del viento	3.22
173391	7	Sololá	719	Santiago Atitlán	14	Cerro de Oro	9	Septiembre	2023-09-19T00:00:00	2024-11-08T08:00:00	1	Precipitación	0
173392	7	Sololá	719	Santiago Atitlán	14	Cerro de Oro	9	Septiembre	2023-09-19T00:00:00	2024-11-08T08:00:00	8	Radiación solar	230
173393	7	Sololá	719	Santiago Atitlán	14	Cerro de Oro	9	Septiembre	2023-09-19T00:00:00	2024-11-08T09:00:00	2	Temperatura media	21.7
173394	7	Sololá	719	Santiago Atitlán	14	Cerro de Oro	9	Septiembre	2023-09-19T00:00:00	2024-11-08T09:00:00	4	Temperatura máxima	22.6
173395	7	Sololá	719	Santiago Atitlán	14	Cerro de Oro	9	Septiembre	2023-09-19T00:00:00	2024-11-08T09:00:00	3	Temperatura mínima	21.6
173396	7	Sololá	719	Santiago Atitlán	14	Cerro de Oro	9	Septiembre	2023-09-19T00:00:00	2024-11-08T09:00:00	5	Humedad	57
173397	7	Sololá	719	Santiago Atitlán	14	Cerro de Oro	9	Septiembre	2023-09-19T00:00:00	2024-11-08T09:00:00	6	Velocidad del viento	3.2
173398	7	Sololá	719	Santiago Atitlán	14	Cerro de Oro	9	Septiembre	2023-09-19T00:00:00	2024-11-08T09:00:00	7	Dirección del viento	3.22
173399	7	Sololá	719	Santiago Atitlán	14	Cerro de Oro	9	Septiembre	2023-09-19T00:00:00	2024-11-08T09:00:00	1	Precipitación	0
173400	7	Sololá	719	Santiago Atitlán	14	Cerro de Oro	9	Septiembre	2023-09-19T00:00:00	2024-11-08T09:00:00	8	Radiación solar	274
173401	7	Sololá	719	Santiago Atitlán	14	Cerro de Oro	9	Septiembre	2023-09-19T00:00:00	2024-11-08T10:00:00	2	Temperatura media	24
173402	7	Sololá	719	Santiago Atitlán	14	Cerro de Oro	9	Septiembre	2023-09-19T00:00:00	2024-11-08T10:00:00	4	Temperatura máxima	24.1
173403	7	Sololá	719	Santiago Atitlán	14	Cerro de Oro	9	Septiembre	2023-09-19T00:00:00	2024-11-08T10:00:00	3	Temperatura mínima	21.8
173404	7	Sololá	719	Santiago Atitlán	14	Cerro de Oro	9	Septiembre	2023-09-19T00:00:00	2024-11-08T10:00:00	5	Humedad	53
173405	7	Sololá	719	Santiago Atitlán	14	Cerro de Oro	9	Septiembre	2023-09-19T00:00:00	2024-11-08T10:00:00	6	Velocidad del viento	3.2
173406	7	Sololá	719	Santiago Atitlán	14	Cerro de Oro	9	Septiembre	2023-09-19T00:00:00	2024-11-08T10:00:00	7	Dirección del viento	3.22
173407	7	Sololá	719	Santiago Atitlán	14	Cerro de Oro	9	Septiembre	2023-09-19T00:00:00	2024-11-08T10:00:00	1	Precipitación	0
173408	7	Sololá	719	Santiago Atitlán	14	Cerro de Oro	9	Septiembre	2023-09-19T00:00:00	2024-11-08T10:00:00	8	Radiación solar	696
173409	7	Sololá	719	Santiago Atitlán	14	Cerro de Oro	9	Septiembre	2023-09-19T00:00:00	2024-11-08T11:00:00	2	Temperatura media	25.3
173410	7	Sololá	719	Santiago Atitlán	14	Cerro de Oro	9	Septiembre	2023-09-19T00:00:00	2024-11-08T11:00:00	4	Temperatura máxima	25.4
173411	7	Sololá	719	Santiago Atitlán	14	Cerro de Oro	9	Septiembre	2023-09-19T00:00:00	2024-11-08T11:00:00	3	Temperatura mínima	23.8
173412	7	Sololá	719	Santiago Atitlán	14	Cerro de Oro	9	Septiembre	2023-09-19T00:00:00	2024-11-08T11:00:00	5	Humedad	58
173413	7	Sololá	719	Santiago Atitlán	14	Cerro de Oro	9	Septiembre	2023-09-19T00:00:00	2024-11-08T11:00:00	6	Velocidad del viento	4.8
173414	7	Sololá	719	Santiago Atitlán	14	Cerro de Oro	9	Septiembre	2023-09-19T00:00:00	2024-11-08T11:00:00	7	Dirección del viento	4.83
173415	7	Sololá	719	Santiago Atitlán	14	Cerro de Oro	9	Septiembre	2023-09-19T00:00:00	2024-11-08T11:00:00	1	Precipitación	0
173416	7	Sololá	719	Santiago Atitlán	14	Cerro de Oro	9	Septiembre	2023-09-19T00:00:00	2024-11-08T11:00:00	8	Radiación solar	839
173417	7	Sololá	719	Santiago Atitlán	14	Cerro de Oro	9	Septiembre	2023-09-19T00:00:00	2024-11-08T12:00:00	2	Temperatura media	25.7
173418	7	Sololá	719	Santiago Atitlán	14	Cerro de Oro	9	Septiembre	2023-09-19T00:00:00	2024-11-08T12:00:00	4	Temperatura máxima	25.7
173419	7	Sololá	719	Santiago Atitlán	14	Cerro de Oro	9	Septiembre	2023-09-19T00:00:00	2024-11-08T12:00:00	3	Temperatura mínima	24.9
173420	7	Sololá	719	Santiago Atitlán	14	Cerro de Oro	9	Septiembre	2023-09-19T00:00:00	2024-11-08T12:00:00	5	Humedad	57
173421	7	Sololá	719	Santiago Atitlán	14	Cerro de Oro	9	Septiembre	2023-09-19T00:00:00	2024-11-08T12:00:00	6	Velocidad del viento	8
173422	7	Sololá	719	Santiago Atitlán	14	Cerro de Oro	9	Septiembre	2023-09-19T00:00:00	2024-11-08T12:00:00	7	Dirección del viento	8.05
173423	7	Sololá	719	Santiago Atitlán	14	Cerro de Oro	9	Septiembre	2023-09-19T00:00:00	2024-11-08T12:00:00	1	Precipitación	0
173424	7	Sololá	719	Santiago Atitlán	14	Cerro de Oro	9	Septiembre	2023-09-19T00:00:00	2024-11-08T12:00:00	8	Radiación solar	912
173425	7	Sololá	719	Santiago Atitlán	14	Cerro de Oro	9	Septiembre	2023-09-19T00:00:00	2024-11-08T13:00:00	2	Temperatura media	25.5
173426	7	Sololá	719	Santiago Atitlán	14	Cerro de Oro	9	Septiembre	2023-09-19T00:00:00	2024-11-08T13:00:00	4	Temperatura máxima	25.9
173427	7	Sololá	719	Santiago Atitlán	14	Cerro de Oro	9	Septiembre	2023-09-19T00:00:00	2024-11-08T13:00:00	3	Temperatura mínima	25.2
173428	7	Sololá	719	Santiago Atitlán	14	Cerro de Oro	9	Septiembre	2023-09-19T00:00:00	2024-11-08T13:00:00	5	Humedad	66
173429	7	Sololá	719	Santiago Atitlán	14	Cerro de Oro	9	Septiembre	2023-09-19T00:00:00	2024-11-08T13:00:00	6	Velocidad del viento	11.3
173430	7	Sololá	719	Santiago Atitlán	14	Cerro de Oro	9	Septiembre	2023-09-19T00:00:00	2024-11-08T13:00:00	7	Dirección del viento	11.27
173431	7	Sololá	719	Santiago Atitlán	14	Cerro de Oro	9	Septiembre	2023-09-19T00:00:00	2024-11-08T13:00:00	1	Precipitación	0
173432	7	Sololá	719	Santiago Atitlán	14	Cerro de Oro	9	Septiembre	2023-09-19T00:00:00	2024-11-08T13:00:00	8	Radiación solar	901
173433	7	Sololá	719	Santiago Atitlán	14	Cerro de Oro	9	Septiembre	2023-09-19T00:00:00	2024-11-08T14:00:00	2	Temperatura media	24.4
173434	7	Sololá	719	Santiago Atitlán	14	Cerro de Oro	9	Septiembre	2023-09-19T00:00:00	2024-11-08T14:00:00	4	Temperatura máxima	25.6
173435	7	Sololá	719	Santiago Atitlán	14	Cerro de Oro	9	Septiembre	2023-09-19T00:00:00	2024-11-08T14:00:00	3	Temperatura mínima	24.3
173436	7	Sololá	719	Santiago Atitlán	14	Cerro de Oro	9	Septiembre	2023-09-19T00:00:00	2024-11-08T14:00:00	5	Humedad	66
173437	7	Sololá	719	Santiago Atitlán	14	Cerro de Oro	9	Septiembre	2023-09-19T00:00:00	2024-11-08T14:00:00	6	Velocidad del viento	14.5
173438	7	Sololá	719	Santiago Atitlán	14	Cerro de Oro	9	Septiembre	2023-09-19T00:00:00	2024-11-08T14:00:00	7	Dirección del viento	14.48
173439	7	Sololá	719	Santiago Atitlán	14	Cerro de Oro	9	Septiembre	2023-09-19T00:00:00	2024-11-08T14:00:00	1	Precipitación	0
173440	7	Sololá	719	Santiago Atitlán	14	Cerro de Oro	9	Septiembre	2023-09-19T00:00:00	2024-11-08T14:00:00	8	Radiación solar	824
173441	7	Sololá	719	Santiago Atitlán	14	Cerro de Oro	9	Septiembre	2023-09-19T00:00:00	2024-11-08T15:00:00	2	Temperatura media	24.2
173442	7	Sololá	719	Santiago Atitlán	14	Cerro de Oro	9	Septiembre	2023-09-19T00:00:00	2024-11-08T15:00:00	4	Temperatura máxima	24.6
173443	7	Sololá	719	Santiago Atitlán	14	Cerro de Oro	9	Septiembre	2023-09-19T00:00:00	2024-11-08T15:00:00	3	Temperatura mínima	24
173444	7	Sololá	719	Santiago Atitlán	14	Cerro de Oro	9	Septiembre	2023-09-19T00:00:00	2024-11-08T15:00:00	5	Humedad	72
173445	7	Sololá	719	Santiago Atitlán	14	Cerro de Oro	9	Septiembre	2023-09-19T00:00:00	2024-11-08T15:00:00	6	Velocidad del viento	14.5
173446	7	Sololá	719	Santiago Atitlán	14	Cerro de Oro	9	Septiembre	2023-09-19T00:00:00	2024-11-08T15:00:00	7	Dirección del viento	14.48
173447	7	Sololá	719	Santiago Atitlán	14	Cerro de Oro	9	Septiembre	2023-09-19T00:00:00	2024-11-08T15:00:00	1	Precipitación	0
173448	7	Sololá	719	Santiago Atitlán	14	Cerro de Oro	9	Septiembre	2023-09-19T00:00:00	2024-11-08T15:00:00	8	Radiación solar	697
173449	7	Sololá	719	Santiago Atitlán	14	Cerro de Oro	9	Septiembre	2023-09-19T00:00:00	2024-11-08T16:00:00	2	Temperatura media	23.4
173450	7	Sololá	719	Santiago Atitlán	14	Cerro de Oro	9	Septiembre	2023-09-19T00:00:00	2024-11-08T16:00:00	4	Temperatura máxima	24.3
173451	7	Sololá	719	Santiago Atitlán	14	Cerro de Oro	9	Septiembre	2023-09-19T00:00:00	2024-11-08T16:00:00	3	Temperatura mínima	23.4
173452	7	Sololá	719	Santiago Atitlán	14	Cerro de Oro	9	Septiembre	2023-09-19T00:00:00	2024-11-08T16:00:00	5	Humedad	75
173453	7	Sololá	719	Santiago Atitlán	14	Cerro de Oro	9	Septiembre	2023-09-19T00:00:00	2024-11-08T16:00:00	6	Velocidad del viento	11.3
173454	7	Sololá	719	Santiago Atitlán	14	Cerro de Oro	9	Septiembre	2023-09-19T00:00:00	2024-11-08T16:00:00	7	Dirección del viento	11.27
173455	7	Sololá	719	Santiago Atitlán	14	Cerro de Oro	9	Septiembre	2023-09-19T00:00:00	2024-11-08T16:00:00	1	Precipitación	0
173456	7	Sololá	719	Santiago Atitlán	14	Cerro de Oro	9	Septiembre	2023-09-19T00:00:00	2024-11-08T16:00:00	8	Radiación solar	504
173457	7	Sololá	719	Santiago Atitlán	14	Cerro de Oro	9	Septiembre	2023-09-19T00:00:00	2024-11-08T17:00:00	2	Temperatura media	21.8
173458	7	Sololá	719	Santiago Atitlán	14	Cerro de Oro	9	Septiembre	2023-09-19T00:00:00	2024-11-08T17:00:00	4	Temperatura máxima	23.4
173459	7	Sololá	719	Santiago Atitlán	14	Cerro de Oro	9	Septiembre	2023-09-19T00:00:00	2024-11-08T17:00:00	3	Temperatura mínima	21.8
173460	7	Sololá	719	Santiago Atitlán	14	Cerro de Oro	9	Septiembre	2023-09-19T00:00:00	2024-11-08T17:00:00	5	Humedad	81
173461	7	Sololá	719	Santiago Atitlán	14	Cerro de Oro	9	Septiembre	2023-09-19T00:00:00	2024-11-08T17:00:00	6	Velocidad del viento	9.7
173462	7	Sololá	719	Santiago Atitlán	14	Cerro de Oro	9	Septiembre	2023-09-19T00:00:00	2024-11-08T17:00:00	7	Dirección del viento	9.66
173463	7	Sololá	719	Santiago Atitlán	14	Cerro de Oro	9	Septiembre	2023-09-19T00:00:00	2024-11-08T17:00:00	1	Precipitación	0
173464	7	Sololá	719	Santiago Atitlán	14	Cerro de Oro	9	Septiembre	2023-09-19T00:00:00	2024-11-08T17:00:00	8	Radiación solar	271
173465	7	Sololá	719	Santiago Atitlán	14	Cerro de Oro	9	Septiembre	2023-09-19T00:00:00	2024-11-08T18:00:00	2	Temperatura media	20.1
173466	7	Sololá	719	Santiago Atitlán	14	Cerro de Oro	9	Septiembre	2023-09-19T00:00:00	2024-11-08T18:00:00	4	Temperatura máxima	21.8
173467	7	Sololá	719	Santiago Atitlán	14	Cerro de Oro	9	Septiembre	2023-09-19T00:00:00	2024-11-08T18:00:00	3	Temperatura mínima	20.1
173468	7	Sololá	719	Santiago Atitlán	14	Cerro de Oro	9	Septiembre	2023-09-19T00:00:00	2024-11-08T18:00:00	5	Humedad	86
173469	7	Sololá	719	Santiago Atitlán	14	Cerro de Oro	9	Septiembre	2023-09-19T00:00:00	2024-11-08T18:00:00	6	Velocidad del viento	6.4
173470	7	Sololá	719	Santiago Atitlán	14	Cerro de Oro	9	Septiembre	2023-09-19T00:00:00	2024-11-08T18:00:00	7	Dirección del viento	6.44
173471	7	Sololá	719	Santiago Atitlán	14	Cerro de Oro	9	Septiembre	2023-09-19T00:00:00	2024-11-08T18:00:00	1	Precipitación	0
173472	7	Sololá	719	Santiago Atitlán	14	Cerro de Oro	9	Septiembre	2023-09-19T00:00:00	2024-11-08T18:00:00	8	Radiación solar	21
173473	7	Sololá	719	Santiago Atitlán	14	Cerro de Oro	9	Septiembre	2023-09-19T00:00:00	2024-11-08T19:00:00	2	Temperatura media	20
173474	7	Sololá	719	Santiago Atitlán	14	Cerro de Oro	9	Septiembre	2023-09-19T00:00:00	2024-11-08T19:00:00	4	Temperatura máxima	20.2
173475	7	Sololá	719	Santiago Atitlán	14	Cerro de Oro	9	Septiembre	2023-09-19T00:00:00	2024-11-08T19:00:00	3	Temperatura mínima	19.9
173476	7	Sololá	719	Santiago Atitlán	14	Cerro de Oro	9	Septiembre	2023-09-19T00:00:00	2024-11-08T19:00:00	5	Humedad	81
173477	7	Sololá	719	Santiago Atitlán	14	Cerro de Oro	9	Septiembre	2023-09-19T00:00:00	2024-11-08T19:00:00	6	Velocidad del viento	6.4
173478	7	Sololá	719	Santiago Atitlán	14	Cerro de Oro	9	Septiembre	2023-09-19T00:00:00	2024-11-08T19:00:00	7	Dirección del viento	6.44
173479	7	Sololá	719	Santiago Atitlán	14	Cerro de Oro	9	Septiembre	2023-09-19T00:00:00	2024-11-08T19:00:00	1	Precipitación	0
173480	7	Sololá	719	Santiago Atitlán	14	Cerro de Oro	9	Septiembre	2023-09-19T00:00:00	2024-11-08T19:00:00	8	Radiación solar	0
173481	7	Sololá	719	Santiago Atitlán	14	Cerro de Oro	9	Septiembre	2023-09-19T00:00:00	2024-11-08T20:00:00	2	Temperatura media	19.3
173482	7	Sololá	719	Santiago Atitlán	14	Cerro de Oro	9	Septiembre	2023-09-19T00:00:00	2024-11-08T20:00:00	4	Temperatura máxima	20
173483	7	Sololá	719	Santiago Atitlán	14	Cerro de Oro	9	Septiembre	2023-09-19T00:00:00	2024-11-08T20:00:00	3	Temperatura mínima	19.3
173484	7	Sololá	719	Santiago Atitlán	14	Cerro de Oro	9	Septiembre	2023-09-19T00:00:00	2024-11-08T20:00:00	5	Humedad	82
173485	7	Sololá	719	Santiago Atitlán	14	Cerro de Oro	9	Septiembre	2023-09-19T00:00:00	2024-11-08T20:00:00	6	Velocidad del viento	1.6
173486	7	Sololá	719	Santiago Atitlán	14	Cerro de Oro	9	Septiembre	2023-09-19T00:00:00	2024-11-08T20:00:00	7	Dirección del viento	1.61
173487	7	Sololá	719	Santiago Atitlán	14	Cerro de Oro	9	Septiembre	2023-09-19T00:00:00	2024-11-08T20:00:00	1	Precipitación	0
173488	7	Sololá	719	Santiago Atitlán	14	Cerro de Oro	9	Septiembre	2023-09-19T00:00:00	2024-11-08T20:00:00	8	Radiación solar	0
173489	7	Sololá	719	Santiago Atitlán	14	Cerro de Oro	9	Septiembre	2023-09-19T00:00:00	2024-11-08T21:00:00	2	Temperatura media	19.8
173490	7	Sololá	719	Santiago Atitlán	14	Cerro de Oro	9	Septiembre	2023-09-19T00:00:00	2024-11-08T21:00:00	4	Temperatura máxima	19.8
173491	7	Sololá	719	Santiago Atitlán	14	Cerro de Oro	9	Septiembre	2023-09-19T00:00:00	2024-11-08T21:00:00	3	Temperatura mínima	19.3
173492	7	Sololá	719	Santiago Atitlán	14	Cerro de Oro	9	Septiembre	2023-09-19T00:00:00	2024-11-08T21:00:00	5	Humedad	79
173493	7	Sololá	719	Santiago Atitlán	14	Cerro de Oro	9	Septiembre	2023-09-19T00:00:00	2024-11-08T21:00:00	6	Velocidad del viento	4.8
173494	7	Sololá	719	Santiago Atitlán	14	Cerro de Oro	9	Septiembre	2023-09-19T00:00:00	2024-11-08T21:00:00	7	Dirección del viento	4.83
173495	7	Sololá	719	Santiago Atitlán	14	Cerro de Oro	9	Septiembre	2023-09-19T00:00:00	2024-11-08T21:00:00	1	Precipitación	0
173496	7	Sololá	719	Santiago Atitlán	14	Cerro de Oro	9	Septiembre	2023-09-19T00:00:00	2024-11-08T21:00:00	8	Radiación solar	0
173497	7	Sololá	719	Santiago Atitlán	14	Cerro de Oro	9	Septiembre	2023-09-19T00:00:00	2024-11-08T22:00:00	2	Temperatura media	20.3
173498	7	Sololá	719	Santiago Atitlán	14	Cerro de Oro	9	Septiembre	2023-09-19T00:00:00	2024-11-08T22:00:00	4	Temperatura máxima	20.3
173499	7	Sololá	719	Santiago Atitlán	14	Cerro de Oro	9	Septiembre	2023-09-19T00:00:00	2024-11-08T22:00:00	3	Temperatura mínima	18.9
173500	7	Sololá	719	Santiago Atitlán	14	Cerro de Oro	9	Septiembre	2023-09-19T00:00:00	2024-11-08T22:00:00	5	Humedad	76
173501	7	Sololá	719	Santiago Atitlán	14	Cerro de Oro	9	Septiembre	2023-09-19T00:00:00	2024-11-08T22:00:00	6	Velocidad del viento	4.8
173502	7	Sololá	719	Santiago Atitlán	14	Cerro de Oro	9	Septiembre	2023-09-19T00:00:00	2024-11-08T22:00:00	7	Dirección del viento	4.83
173503	7	Sololá	719	Santiago Atitlán	14	Cerro de Oro	9	Septiembre	2023-09-19T00:00:00	2024-11-08T22:00:00	1	Precipitación	0
173504	7	Sololá	719	Santiago Atitlán	14	Cerro de Oro	9	Septiembre	2023-09-19T00:00:00	2024-11-08T22:00:00	8	Radiación solar	0
173505	7	Sololá	719	Santiago Atitlán	14	Cerro de Oro	9	Septiembre	2023-09-19T00:00:00	2024-11-08T23:00:00	2	Temperatura media	19.4
173506	7	Sololá	719	Santiago Atitlán	14	Cerro de Oro	9	Septiembre	2023-09-19T00:00:00	2024-11-08T23:00:00	4	Temperatura máxima	20.3
173507	7	Sololá	719	Santiago Atitlán	14	Cerro de Oro	9	Septiembre	2023-09-19T00:00:00	2024-11-08T23:00:00	3	Temperatura mínima	19.4
173508	7	Sololá	719	Santiago Atitlán	14	Cerro de Oro	9	Septiembre	2023-09-19T00:00:00	2024-11-08T23:00:00	5	Humedad	78
173509	7	Sololá	719	Santiago Atitlán	14	Cerro de Oro	9	Septiembre	2023-09-19T00:00:00	2024-11-08T23:00:00	6	Velocidad del viento	4.8
173510	7	Sololá	719	Santiago Atitlán	14	Cerro de Oro	9	Septiembre	2023-09-19T00:00:00	2024-11-08T23:00:00	7	Dirección del viento	4.83
173511	7	Sololá	719	Santiago Atitlán	14	Cerro de Oro	9	Septiembre	2023-09-19T00:00:00	2024-11-08T23:00:00	1	Precipitación	0
173512	7	Sololá	719	Santiago Atitlán	14	Cerro de Oro	9	Septiembre	2023-09-19T00:00:00	2024-11-08T23:00:00	8	Radiación solar	0
173513	7	Sololá	719	Santiago Atitlán	14	Cerro de Oro	9	Septiembre	2023-09-20T00:00:00	2024-11-08T00:00:00	2	Temperatura media	18.1
173514	7	Sololá	719	Santiago Atitlán	14	Cerro de Oro	9	Septiembre	2023-09-20T00:00:00	2024-11-08T00:00:00	4	Temperatura máxima	19.5
173515	7	Sololá	719	Santiago Atitlán	14	Cerro de Oro	9	Septiembre	2023-09-20T00:00:00	2024-11-08T00:00:00	3	Temperatura mínima	18.1
173516	7	Sololá	719	Santiago Atitlán	14	Cerro de Oro	9	Septiembre	2023-09-20T00:00:00	2024-11-08T00:00:00	5	Humedad	80
173517	7	Sololá	719	Santiago Atitlán	14	Cerro de Oro	9	Septiembre	2023-09-20T00:00:00	2024-11-08T00:00:00	6	Velocidad del viento	3.2
173518	7	Sololá	719	Santiago Atitlán	14	Cerro de Oro	9	Septiembre	2023-09-20T00:00:00	2024-11-08T00:00:00	7	Dirección del viento	3.22
173519	7	Sololá	719	Santiago Atitlán	14	Cerro de Oro	9	Septiembre	2023-09-20T00:00:00	2024-11-08T00:00:00	1	Precipitación	0
173520	7	Sololá	719	Santiago Atitlán	14	Cerro de Oro	9	Septiembre	2023-09-20T00:00:00	2024-11-08T00:00:00	8	Radiación solar	0
173521	7	Sololá	719	Santiago Atitlán	14	Cerro de Oro	9	Septiembre	2023-09-20T00:00:00	2024-11-08T01:00:00	2	Temperatura media	18.3
173522	7	Sololá	719	Santiago Atitlán	14	Cerro de Oro	9	Septiembre	2023-09-20T00:00:00	2024-11-08T01:00:00	4	Temperatura máxima	19.1
173523	7	Sololá	719	Santiago Atitlán	14	Cerro de Oro	9	Septiembre	2023-09-20T00:00:00	2024-11-08T01:00:00	3	Temperatura mínima	18
173524	7	Sololá	719	Santiago Atitlán	14	Cerro de Oro	9	Septiembre	2023-09-20T00:00:00	2024-11-08T01:00:00	5	Humedad	75
173525	7	Sololá	719	Santiago Atitlán	14	Cerro de Oro	9	Septiembre	2023-09-20T00:00:00	2024-11-08T01:00:00	6	Velocidad del viento	4.8
173526	7	Sololá	719	Santiago Atitlán	14	Cerro de Oro	9	Septiembre	2023-09-20T00:00:00	2024-11-08T01:00:00	7	Dirección del viento	4.83
173527	7	Sololá	719	Santiago Atitlán	14	Cerro de Oro	9	Septiembre	2023-09-20T00:00:00	2024-11-08T01:00:00	1	Precipitación	0
173528	7	Sololá	719	Santiago Atitlán	14	Cerro de Oro	9	Septiembre	2023-09-20T00:00:00	2024-11-08T01:00:00	8	Radiación solar	0
173529	7	Sololá	719	Santiago Atitlán	14	Cerro de Oro	9	Septiembre	2023-09-20T00:00:00	2024-11-08T02:00:00	2	Temperatura media	18.5
173530	7	Sololá	719	Santiago Atitlán	14	Cerro de Oro	9	Septiembre	2023-09-20T00:00:00	2024-11-08T02:00:00	4	Temperatura máxima	18.9
173531	7	Sololá	719	Santiago Atitlán	14	Cerro de Oro	9	Septiembre	2023-09-20T00:00:00	2024-11-08T02:00:00	3	Temperatura mínima	18.2
173532	7	Sololá	719	Santiago Atitlán	14	Cerro de Oro	9	Septiembre	2023-09-20T00:00:00	2024-11-08T02:00:00	5	Humedad	72
173533	7	Sololá	719	Santiago Atitlán	14	Cerro de Oro	9	Septiembre	2023-09-20T00:00:00	2024-11-08T02:00:00	6	Velocidad del viento	4.8
173534	7	Sololá	719	Santiago Atitlán	14	Cerro de Oro	9	Septiembre	2023-09-20T00:00:00	2024-11-08T02:00:00	7	Dirección del viento	4.83
173535	7	Sololá	719	Santiago Atitlán	14	Cerro de Oro	9	Septiembre	2023-09-20T00:00:00	2024-11-08T02:00:00	1	Precipitación	0
173536	7	Sololá	719	Santiago Atitlán	14	Cerro de Oro	9	Septiembre	2023-09-20T00:00:00	2024-11-08T02:00:00	8	Radiación solar	0
173537	7	Sololá	719	Santiago Atitlán	14	Cerro de Oro	9	Septiembre	2023-09-20T00:00:00	2024-11-08T03:00:00	2	Temperatura media	17.6
173538	7	Sololá	719	Santiago Atitlán	14	Cerro de Oro	9	Septiembre	2023-09-20T00:00:00	2024-11-08T03:00:00	4	Temperatura máxima	18.7
173539	7	Sololá	719	Santiago Atitlán	14	Cerro de Oro	9	Septiembre	2023-09-20T00:00:00	2024-11-08T03:00:00	3	Temperatura mínima	17.3
173540	7	Sololá	719	Santiago Atitlán	14	Cerro de Oro	9	Septiembre	2023-09-20T00:00:00	2024-11-08T03:00:00	5	Humedad	77
173541	7	Sololá	719	Santiago Atitlán	14	Cerro de Oro	9	Septiembre	2023-09-20T00:00:00	2024-11-08T03:00:00	6	Velocidad del viento	6.4
173542	7	Sololá	719	Santiago Atitlán	14	Cerro de Oro	9	Septiembre	2023-09-20T00:00:00	2024-11-08T03:00:00	7	Dirección del viento	6.44
173543	7	Sololá	719	Santiago Atitlán	14	Cerro de Oro	9	Septiembre	2023-09-20T00:00:00	2024-11-08T03:00:00	1	Precipitación	0
173544	7	Sololá	719	Santiago Atitlán	14	Cerro de Oro	9	Septiembre	2023-09-20T00:00:00	2024-11-08T03:00:00	8	Radiación solar	0
173545	7	Sololá	719	Santiago Atitlán	14	Cerro de Oro	9	Septiembre	2023-09-20T00:00:00	2024-11-08T04:00:00	2	Temperatura media	18.1
173546	7	Sololá	719	Santiago Atitlán	14	Cerro de Oro	9	Septiembre	2023-09-20T00:00:00	2024-11-08T04:00:00	4	Temperatura máxima	18.3
173547	7	Sololá	719	Santiago Atitlán	14	Cerro de Oro	9	Septiembre	2023-09-20T00:00:00	2024-11-08T04:00:00	3	Temperatura mínima	17.6
173548	7	Sololá	719	Santiago Atitlán	14	Cerro de Oro	9	Septiembre	2023-09-20T00:00:00	2024-11-08T04:00:00	5	Humedad	75
173549	7	Sololá	719	Santiago Atitlán	14	Cerro de Oro	9	Septiembre	2023-09-20T00:00:00	2024-11-08T04:00:00	6	Velocidad del viento	6.4
173550	7	Sololá	719	Santiago Atitlán	14	Cerro de Oro	9	Septiembre	2023-09-20T00:00:00	2024-11-08T04:00:00	7	Dirección del viento	6.44
173551	7	Sololá	719	Santiago Atitlán	14	Cerro de Oro	9	Septiembre	2023-09-20T00:00:00	2024-11-08T04:00:00	1	Precipitación	0
173552	7	Sololá	719	Santiago Atitlán	14	Cerro de Oro	9	Septiembre	2023-09-20T00:00:00	2024-11-08T04:00:00	8	Radiación solar	0
173553	7	Sololá	719	Santiago Atitlán	14	Cerro de Oro	9	Septiembre	2023-09-20T00:00:00	2024-11-08T05:00:00	2	Temperatura media	16.9
173554	7	Sololá	719	Santiago Atitlán	14	Cerro de Oro	9	Septiembre	2023-09-20T00:00:00	2024-11-08T05:00:00	4	Temperatura máxima	18.1
173555	7	Sololá	719	Santiago Atitlán	14	Cerro de Oro	9	Septiembre	2023-09-20T00:00:00	2024-11-08T05:00:00	3	Temperatura mínima	16.8
173556	7	Sololá	719	Santiago Atitlán	14	Cerro de Oro	9	Septiembre	2023-09-20T00:00:00	2024-11-08T05:00:00	5	Humedad	80
173557	7	Sololá	719	Santiago Atitlán	14	Cerro de Oro	9	Septiembre	2023-09-20T00:00:00	2024-11-08T05:00:00	6	Velocidad del viento	4.8
173558	7	Sololá	719	Santiago Atitlán	14	Cerro de Oro	9	Septiembre	2023-09-20T00:00:00	2024-11-08T05:00:00	7	Dirección del viento	4.83
173559	7	Sololá	719	Santiago Atitlán	14	Cerro de Oro	9	Septiembre	2023-09-20T00:00:00	2024-11-08T05:00:00	1	Precipitación	0
173560	7	Sololá	719	Santiago Atitlán	14	Cerro de Oro	9	Septiembre	2023-09-20T00:00:00	2024-11-08T05:00:00	8	Radiación solar	0
173561	7	Sololá	719	Santiago Atitlán	14	Cerro de Oro	9	Septiembre	2023-09-20T00:00:00	2024-11-08T06:00:00	2	Temperatura media	16.7
173562	7	Sololá	719	Santiago Atitlán	14	Cerro de Oro	9	Septiembre	2023-09-20T00:00:00	2024-11-08T06:00:00	4	Temperatura máxima	18
173563	7	Sololá	719	Santiago Atitlán	14	Cerro de Oro	9	Septiembre	2023-09-20T00:00:00	2024-11-08T06:00:00	3	Temperatura mínima	16.7
173564	7	Sololá	719	Santiago Atitlán	14	Cerro de Oro	9	Septiembre	2023-09-20T00:00:00	2024-11-08T06:00:00	5	Humedad	83
173565	7	Sololá	719	Santiago Atitlán	14	Cerro de Oro	9	Septiembre	2023-09-20T00:00:00	2024-11-08T06:00:00	6	Velocidad del viento	3.2
173566	7	Sololá	719	Santiago Atitlán	14	Cerro de Oro	9	Septiembre	2023-09-20T00:00:00	2024-11-08T06:00:00	7	Dirección del viento	3.22
173567	7	Sololá	719	Santiago Atitlán	14	Cerro de Oro	9	Septiembre	2023-09-20T00:00:00	2024-11-08T06:00:00	1	Precipitación	0
173568	7	Sololá	719	Santiago Atitlán	14	Cerro de Oro	9	Septiembre	2023-09-20T00:00:00	2024-11-08T06:00:00	8	Radiación solar	1
173569	7	Sololá	719	Santiago Atitlán	14	Cerro de Oro	9	Septiembre	2023-09-20T00:00:00	2024-11-08T07:00:00	2	Temperatura media	18.5
173570	7	Sololá	719	Santiago Atitlán	14	Cerro de Oro	9	Septiembre	2023-09-20T00:00:00	2024-11-08T07:00:00	4	Temperatura máxima	18.5
173571	7	Sololá	719	Santiago Atitlán	14	Cerro de Oro	9	Septiembre	2023-09-20T00:00:00	2024-11-08T07:00:00	3	Temperatura mínima	16.7
173572	7	Sololá	719	Santiago Atitlán	14	Cerro de Oro	9	Septiembre	2023-09-20T00:00:00	2024-11-08T07:00:00	5	Humedad	80
173573	7	Sololá	719	Santiago Atitlán	14	Cerro de Oro	9	Septiembre	2023-09-20T00:00:00	2024-11-08T07:00:00	6	Velocidad del viento	4.8
173574	7	Sololá	719	Santiago Atitlán	14	Cerro de Oro	9	Septiembre	2023-09-20T00:00:00	2024-11-08T07:00:00	7	Dirección del viento	4.83
173575	7	Sololá	719	Santiago Atitlán	14	Cerro de Oro	9	Septiembre	2023-09-20T00:00:00	2024-11-08T07:00:00	1	Precipitación	0
173576	7	Sololá	719	Santiago Atitlán	14	Cerro de Oro	9	Septiembre	2023-09-20T00:00:00	2024-11-08T07:00:00	8	Radiación solar	57
173577	7	Sololá	719	Santiago Atitlán	14	Cerro de Oro	9	Septiembre	2023-09-20T00:00:00	2024-11-08T08:00:00	2	Temperatura media	21.4
173578	7	Sololá	719	Santiago Atitlán	14	Cerro de Oro	9	Septiembre	2023-09-20T00:00:00	2024-11-08T08:00:00	4	Temperatura máxima	21.4
173579	7	Sololá	719	Santiago Atitlán	14	Cerro de Oro	9	Septiembre	2023-09-20T00:00:00	2024-11-08T08:00:00	3	Temperatura mínima	18.5
173580	7	Sololá	719	Santiago Atitlán	14	Cerro de Oro	9	Septiembre	2023-09-20T00:00:00	2024-11-08T08:00:00	5	Humedad	67
173581	7	Sololá	719	Santiago Atitlán	14	Cerro de Oro	9	Septiembre	2023-09-20T00:00:00	2024-11-08T08:00:00	6	Velocidad del viento	1.6
173582	7	Sololá	719	Santiago Atitlán	14	Cerro de Oro	9	Septiembre	2023-09-20T00:00:00	2024-11-08T08:00:00	7	Dirección del viento	1.61
173583	7	Sololá	719	Santiago Atitlán	14	Cerro de Oro	9	Septiembre	2023-09-20T00:00:00	2024-11-08T08:00:00	1	Precipitación	0
173584	7	Sololá	719	Santiago Atitlán	14	Cerro de Oro	9	Septiembre	2023-09-20T00:00:00	2024-11-08T08:00:00	8	Radiación solar	217
173585	7	Sololá	719	Santiago Atitlán	14	Cerro de Oro	9	Septiembre	2023-09-20T00:00:00	2024-11-08T09:00:00	2	Temperatura media	22.9
173586	7	Sololá	719	Santiago Atitlán	14	Cerro de Oro	9	Septiembre	2023-09-20T00:00:00	2024-11-08T09:00:00	4	Temperatura máxima	22.9
173587	7	Sololá	719	Santiago Atitlán	14	Cerro de Oro	9	Septiembre	2023-09-20T00:00:00	2024-11-08T09:00:00	3	Temperatura mínima	21.4
173588	7	Sololá	719	Santiago Atitlán	14	Cerro de Oro	9	Septiembre	2023-09-20T00:00:00	2024-11-08T09:00:00	5	Humedad	63
173589	7	Sololá	719	Santiago Atitlán	14	Cerro de Oro	9	Septiembre	2023-09-20T00:00:00	2024-11-08T09:00:00	6	Velocidad del viento	3.2
173590	7	Sololá	719	Santiago Atitlán	14	Cerro de Oro	9	Septiembre	2023-09-20T00:00:00	2024-11-08T09:00:00	7	Dirección del viento	3.22
173591	7	Sololá	719	Santiago Atitlán	14	Cerro de Oro	9	Septiembre	2023-09-20T00:00:00	2024-11-08T09:00:00	1	Precipitación	0
173592	7	Sololá	719	Santiago Atitlán	14	Cerro de Oro	9	Septiembre	2023-09-20T00:00:00	2024-11-08T09:00:00	8	Radiación solar	433
173593	7	Sololá	719	Santiago Atitlán	14	Cerro de Oro	9	Septiembre	2023-09-20T00:00:00	2024-11-08T10:00:00	2	Temperatura media	21.8
173594	7	Sololá	719	Santiago Atitlán	14	Cerro de Oro	9	Septiembre	2023-09-20T00:00:00	2024-11-08T10:00:00	4	Temperatura máxima	22.9
173595	7	Sololá	719	Santiago Atitlán	14	Cerro de Oro	9	Septiembre	2023-09-20T00:00:00	2024-11-08T10:00:00	3	Temperatura mínima	21.8
173596	7	Sololá	719	Santiago Atitlán	14	Cerro de Oro	9	Septiembre	2023-09-20T00:00:00	2024-11-08T10:00:00	5	Humedad	72
173597	7	Sololá	719	Santiago Atitlán	14	Cerro de Oro	9	Septiembre	2023-09-20T00:00:00	2024-11-08T10:00:00	6	Velocidad del viento	4.8
173598	7	Sololá	719	Santiago Atitlán	14	Cerro de Oro	9	Septiembre	2023-09-20T00:00:00	2024-11-08T10:00:00	7	Dirección del viento	4.83
173599	7	Sololá	719	Santiago Atitlán	14	Cerro de Oro	9	Septiembre	2023-09-20T00:00:00	2024-11-08T10:00:00	1	Precipitación	0
173600	7	Sololá	719	Santiago Atitlán	14	Cerro de Oro	9	Septiembre	2023-09-20T00:00:00	2024-11-08T10:00:00	8	Radiación solar	599
173601	7	Sololá	719	Santiago Atitlán	14	Cerro de Oro	9	Septiembre	2023-09-20T00:00:00	2024-11-08T11:00:00	2	Temperatura media	23
173602	7	Sololá	719	Santiago Atitlán	14	Cerro de Oro	9	Septiembre	2023-09-20T00:00:00	2024-11-08T11:00:00	4	Temperatura máxima	23
173603	7	Sololá	719	Santiago Atitlán	14	Cerro de Oro	9	Septiembre	2023-09-20T00:00:00	2024-11-08T11:00:00	3	Temperatura mínima	21.6
173604	7	Sololá	719	Santiago Atitlán	14	Cerro de Oro	9	Septiembre	2023-09-20T00:00:00	2024-11-08T11:00:00	5	Humedad	75
173605	7	Sololá	719	Santiago Atitlán	14	Cerro de Oro	9	Septiembre	2023-09-20T00:00:00	2024-11-08T11:00:00	6	Velocidad del viento	3.2
173606	7	Sololá	719	Santiago Atitlán	14	Cerro de Oro	9	Septiembre	2023-09-20T00:00:00	2024-11-08T11:00:00	7	Dirección del viento	3.22
173607	7	Sololá	719	Santiago Atitlán	14	Cerro de Oro	9	Septiembre	2023-09-20T00:00:00	2024-11-08T11:00:00	1	Precipitación	0
173608	7	Sololá	719	Santiago Atitlán	14	Cerro de Oro	9	Septiembre	2023-09-20T00:00:00	2024-11-08T11:00:00	8	Radiación solar	516
173609	7	Sololá	719	Santiago Atitlán	14	Cerro de Oro	9	Septiembre	2023-09-20T00:00:00	2024-11-08T12:00:00	2	Temperatura media	24.7
173610	7	Sololá	719	Santiago Atitlán	14	Cerro de Oro	9	Septiembre	2023-09-20T00:00:00	2024-11-08T12:00:00	4	Temperatura máxima	24.7
173611	7	Sololá	719	Santiago Atitlán	14	Cerro de Oro	9	Septiembre	2023-09-20T00:00:00	2024-11-08T12:00:00	3	Temperatura mínima	22.7
173612	7	Sololá	719	Santiago Atitlán	14	Cerro de Oro	9	Septiembre	2023-09-20T00:00:00	2024-11-08T12:00:00	5	Humedad	65
173613	7	Sololá	719	Santiago Atitlán	14	Cerro de Oro	9	Septiembre	2023-09-20T00:00:00	2024-11-08T12:00:00	6	Velocidad del viento	3.2
173614	7	Sololá	719	Santiago Atitlán	14	Cerro de Oro	9	Septiembre	2023-09-20T00:00:00	2024-11-08T12:00:00	7	Dirección del viento	3.22
173615	7	Sololá	719	Santiago Atitlán	14	Cerro de Oro	9	Septiembre	2023-09-20T00:00:00	2024-11-08T12:00:00	1	Precipitación	0
173616	7	Sololá	719	Santiago Atitlán	14	Cerro de Oro	9	Septiembre	2023-09-20T00:00:00	2024-11-08T12:00:00	8	Radiación solar	569
173617	7	Sololá	719	Santiago Atitlán	14	Cerro de Oro	9	Septiembre	2023-09-20T00:00:00	2024-11-08T13:00:00	2	Temperatura media	25.6
173618	7	Sololá	719	Santiago Atitlán	14	Cerro de Oro	9	Septiembre	2023-09-20T00:00:00	2024-11-08T13:00:00	4	Temperatura máxima	26.4
173619	7	Sololá	719	Santiago Atitlán	14	Cerro de Oro	9	Septiembre	2023-09-20T00:00:00	2024-11-08T13:00:00	3	Temperatura mínima	24.7
173620	7	Sololá	719	Santiago Atitlán	14	Cerro de Oro	9	Septiembre	2023-09-20T00:00:00	2024-11-08T13:00:00	5	Humedad	72
173621	7	Sololá	719	Santiago Atitlán	14	Cerro de Oro	9	Septiembre	2023-09-20T00:00:00	2024-11-08T13:00:00	6	Velocidad del viento	6.4
173622	7	Sololá	719	Santiago Atitlán	14	Cerro de Oro	9	Septiembre	2023-09-20T00:00:00	2024-11-08T13:00:00	7	Dirección del viento	6.44
173623	7	Sololá	719	Santiago Atitlán	14	Cerro de Oro	9	Septiembre	2023-09-20T00:00:00	2024-11-08T13:00:00	1	Precipitación	0
173624	7	Sololá	719	Santiago Atitlán	14	Cerro de Oro	9	Septiembre	2023-09-20T00:00:00	2024-11-08T13:00:00	8	Radiación solar	921
173625	7	Sololá	719	Santiago Atitlán	14	Cerro de Oro	9	Septiembre	2023-09-20T00:00:00	2024-11-08T14:00:00	2	Temperatura media	24.4
173626	7	Sololá	719	Santiago Atitlán	14	Cerro de Oro	9	Septiembre	2023-09-20T00:00:00	2024-11-08T14:00:00	4	Temperatura máxima	25.9
173627	7	Sololá	719	Santiago Atitlán	14	Cerro de Oro	9	Septiembre	2023-09-20T00:00:00	2024-11-08T14:00:00	3	Temperatura mínima	24
173628	7	Sololá	719	Santiago Atitlán	14	Cerro de Oro	9	Septiembre	2023-09-20T00:00:00	2024-11-08T14:00:00	5	Humedad	75
173629	7	Sololá	719	Santiago Atitlán	14	Cerro de Oro	9	Septiembre	2023-09-20T00:00:00	2024-11-08T14:00:00	6	Velocidad del viento	12.9
173630	7	Sololá	719	Santiago Atitlán	14	Cerro de Oro	9	Septiembre	2023-09-20T00:00:00	2024-11-08T14:00:00	7	Dirección del viento	12.87
173631	7	Sololá	719	Santiago Atitlán	14	Cerro de Oro	9	Septiembre	2023-09-20T00:00:00	2024-11-08T14:00:00	1	Precipitación	0
173632	7	Sololá	719	Santiago Atitlán	14	Cerro de Oro	9	Septiembre	2023-09-20T00:00:00	2024-11-08T14:00:00	8	Radiación solar	768
173633	7	Sololá	719	Santiago Atitlán	14	Cerro de Oro	9	Septiembre	2023-09-20T00:00:00	2024-11-08T15:00:00	2	Temperatura media	24
173634	7	Sololá	719	Santiago Atitlán	14	Cerro de Oro	9	Septiembre	2023-09-20T00:00:00	2024-11-08T15:00:00	4	Temperatura máxima	24.8
173635	7	Sololá	719	Santiago Atitlán	14	Cerro de Oro	9	Septiembre	2023-09-20T00:00:00	2024-11-08T15:00:00	3	Temperatura mínima	23.7
173636	7	Sololá	719	Santiago Atitlán	14	Cerro de Oro	9	Septiembre	2023-09-20T00:00:00	2024-11-08T15:00:00	5	Humedad	74
173637	7	Sololá	719	Santiago Atitlán	14	Cerro de Oro	9	Septiembre	2023-09-20T00:00:00	2024-11-08T15:00:00	6	Velocidad del viento	12.9
173638	7	Sololá	719	Santiago Atitlán	14	Cerro de Oro	9	Septiembre	2023-09-20T00:00:00	2024-11-08T15:00:00	7	Dirección del viento	12.87
173639	7	Sololá	719	Santiago Atitlán	14	Cerro de Oro	9	Septiembre	2023-09-20T00:00:00	2024-11-08T15:00:00	1	Precipitación	0
173640	7	Sololá	719	Santiago Atitlán	14	Cerro de Oro	9	Septiembre	2023-09-20T00:00:00	2024-11-08T15:00:00	8	Radiación solar	795
173641	7	Sololá	719	Santiago Atitlán	14	Cerro de Oro	9	Septiembre	2023-09-20T00:00:00	2024-11-08T16:00:00	2	Temperatura media	21.1
173642	7	Sololá	719	Santiago Atitlán	14	Cerro de Oro	9	Septiembre	2023-09-20T00:00:00	2024-11-08T16:00:00	4	Temperatura máxima	24.1
173643	7	Sololá	719	Santiago Atitlán	14	Cerro de Oro	9	Septiembre	2023-09-20T00:00:00	2024-11-08T16:00:00	3	Temperatura mínima	21.1
173644	7	Sololá	719	Santiago Atitlán	14	Cerro de Oro	9	Septiembre	2023-09-20T00:00:00	2024-11-08T16:00:00	5	Humedad	84
173645	7	Sololá	719	Santiago Atitlán	14	Cerro de Oro	9	Septiembre	2023-09-20T00:00:00	2024-11-08T16:00:00	6	Velocidad del viento	12.9
173646	7	Sololá	719	Santiago Atitlán	14	Cerro de Oro	9	Septiembre	2023-09-20T00:00:00	2024-11-08T16:00:00	7	Dirección del viento	12.87
173647	7	Sololá	719	Santiago Atitlán	14	Cerro de Oro	9	Septiembre	2023-09-20T00:00:00	2024-11-08T16:00:00	1	Precipitación	0
173648	7	Sololá	719	Santiago Atitlán	14	Cerro de Oro	9	Septiembre	2023-09-20T00:00:00	2024-11-08T16:00:00	8	Radiación solar	460
173649	7	Sololá	719	Santiago Atitlán	14	Cerro de Oro	9	Septiembre	2023-09-20T00:00:00	2024-11-08T17:00:00	2	Temperatura media	19.7
173650	7	Sololá	719	Santiago Atitlán	14	Cerro de Oro	9	Septiembre	2023-09-20T00:00:00	2024-11-08T17:00:00	4	Temperatura máxima	21.1
173651	7	Sololá	719	Santiago Atitlán	14	Cerro de Oro	9	Septiembre	2023-09-20T00:00:00	2024-11-08T17:00:00	3	Temperatura mínima	19.5
173652	7	Sololá	719	Santiago Atitlán	14	Cerro de Oro	9	Septiembre	2023-09-20T00:00:00	2024-11-08T17:00:00	5	Humedad	89
173653	7	Sololá	719	Santiago Atitlán	14	Cerro de Oro	9	Septiembre	2023-09-20T00:00:00	2024-11-08T17:00:00	6	Velocidad del viento	11.3
173654	7	Sololá	719	Santiago Atitlán	14	Cerro de Oro	9	Septiembre	2023-09-20T00:00:00	2024-11-08T17:00:00	7	Dirección del viento	11.27
173655	7	Sololá	719	Santiago Atitlán	14	Cerro de Oro	9	Septiembre	2023-09-20T00:00:00	2024-11-08T17:00:00	1	Precipitación	0
173656	7	Sololá	719	Santiago Atitlán	14	Cerro de Oro	9	Septiembre	2023-09-20T00:00:00	2024-11-08T17:00:00	8	Radiación solar	88
173657	7	Sololá	719	Santiago Atitlán	14	Cerro de Oro	9	Septiembre	2023-09-20T00:00:00	2024-11-08T18:00:00	2	Temperatura media	19.3
173658	7	Sololá	719	Santiago Atitlán	14	Cerro de Oro	9	Septiembre	2023-09-20T00:00:00	2024-11-08T18:00:00	4	Temperatura máxima	19.7
173659	7	Sololá	719	Santiago Atitlán	14	Cerro de Oro	9	Septiembre	2023-09-20T00:00:00	2024-11-08T18:00:00	3	Temperatura mínima	19.3
173660	7	Sololá	719	Santiago Atitlán	14	Cerro de Oro	9	Septiembre	2023-09-20T00:00:00	2024-11-08T18:00:00	5	Humedad	89
173661	7	Sololá	719	Santiago Atitlán	14	Cerro de Oro	9	Septiembre	2023-09-20T00:00:00	2024-11-08T18:00:00	6	Velocidad del viento	4.8
173662	7	Sololá	719	Santiago Atitlán	14	Cerro de Oro	9	Septiembre	2023-09-20T00:00:00	2024-11-08T18:00:00	7	Dirección del viento	4.83
173663	7	Sololá	719	Santiago Atitlán	14	Cerro de Oro	9	Septiembre	2023-09-20T00:00:00	2024-11-08T18:00:00	1	Precipitación	0
173664	7	Sololá	719	Santiago Atitlán	14	Cerro de Oro	9	Septiembre	2023-09-20T00:00:00	2024-11-08T18:00:00	8	Radiación solar	21
173665	7	Sololá	719	Santiago Atitlán	14	Cerro de Oro	9	Septiembre	2023-09-20T00:00:00	2024-11-08T19:00:00	2	Temperatura media	19.3
173666	7	Sololá	719	Santiago Atitlán	14	Cerro de Oro	9	Septiembre	2023-09-20T00:00:00	2024-11-08T19:00:00	4	Temperatura máxima	19.6
173667	7	Sololá	719	Santiago Atitlán	14	Cerro de Oro	9	Septiembre	2023-09-20T00:00:00	2024-11-08T19:00:00	3	Temperatura mínima	19.1
173668	7	Sololá	719	Santiago Atitlán	14	Cerro de Oro	9	Septiembre	2023-09-20T00:00:00	2024-11-08T19:00:00	5	Humedad	88
173669	7	Sololá	719	Santiago Atitlán	14	Cerro de Oro	9	Septiembre	2023-09-20T00:00:00	2024-11-08T19:00:00	6	Velocidad del viento	3.2
173670	7	Sololá	719	Santiago Atitlán	14	Cerro de Oro	9	Septiembre	2023-09-20T00:00:00	2024-11-08T19:00:00	7	Dirección del viento	3.22
173671	7	Sololá	719	Santiago Atitlán	14	Cerro de Oro	9	Septiembre	2023-09-20T00:00:00	2024-11-08T19:00:00	1	Precipitación	0
173672	7	Sololá	719	Santiago Atitlán	14	Cerro de Oro	9	Septiembre	2023-09-20T00:00:00	2024-11-08T19:00:00	8	Radiación solar	0
173673	7	Sololá	719	Santiago Atitlán	14	Cerro de Oro	9	Septiembre	2023-09-20T00:00:00	2024-11-08T20:00:00	2	Temperatura media	18.9
173674	7	Sololá	719	Santiago Atitlán	14	Cerro de Oro	9	Septiembre	2023-09-20T00:00:00	2024-11-08T20:00:00	4	Temperatura máxima	19.7
173675	7	Sololá	719	Santiago Atitlán	14	Cerro de Oro	9	Septiembre	2023-09-20T00:00:00	2024-11-08T20:00:00	3	Temperatura mínima	18.9
173676	7	Sololá	719	Santiago Atitlán	14	Cerro de Oro	9	Septiembre	2023-09-20T00:00:00	2024-11-08T20:00:00	5	Humedad	88
173677	7	Sololá	719	Santiago Atitlán	14	Cerro de Oro	9	Septiembre	2023-09-20T00:00:00	2024-11-08T20:00:00	6	Velocidad del viento	3.2
173678	7	Sololá	719	Santiago Atitlán	14	Cerro de Oro	9	Septiembre	2023-09-20T00:00:00	2024-11-08T20:00:00	7	Dirección del viento	3.22
173679	7	Sololá	719	Santiago Atitlán	14	Cerro de Oro	9	Septiembre	2023-09-20T00:00:00	2024-11-08T20:00:00	1	Precipitación	0
173680	7	Sololá	719	Santiago Atitlán	14	Cerro de Oro	9	Septiembre	2023-09-20T00:00:00	2024-11-08T20:00:00	8	Radiación solar	0
173681	7	Sololá	719	Santiago Atitlán	14	Cerro de Oro	9	Septiembre	2023-09-20T00:00:00	2024-11-08T21:00:00	2	Temperatura media	18.9
173682	7	Sololá	719	Santiago Atitlán	14	Cerro de Oro	9	Septiembre	2023-09-20T00:00:00	2024-11-08T21:00:00	4	Temperatura máxima	19
173683	7	Sololá	719	Santiago Atitlán	14	Cerro de Oro	9	Septiembre	2023-09-20T00:00:00	2024-11-08T21:00:00	3	Temperatura mínima	18.7
173684	7	Sololá	719	Santiago Atitlán	14	Cerro de Oro	9	Septiembre	2023-09-20T00:00:00	2024-11-08T21:00:00	5	Humedad	89
173685	7	Sololá	719	Santiago Atitlán	14	Cerro de Oro	9	Septiembre	2023-09-20T00:00:00	2024-11-08T21:00:00	6	Velocidad del viento	3.2
173686	7	Sololá	719	Santiago Atitlán	14	Cerro de Oro	9	Septiembre	2023-09-20T00:00:00	2024-11-08T21:00:00	7	Dirección del viento	3.22
173687	7	Sololá	719	Santiago Atitlán	14	Cerro de Oro	9	Septiembre	2023-09-20T00:00:00	2024-11-08T21:00:00	1	Precipitación	0
173688	7	Sololá	719	Santiago Atitlán	14	Cerro de Oro	9	Septiembre	2023-09-20T00:00:00	2024-11-08T21:00:00	8	Radiación solar	0
173689	7	Sololá	719	Santiago Atitlán	14	Cerro de Oro	9	Septiembre	2023-09-20T00:00:00	2024-11-08T22:00:00	2	Temperatura media	19.1
173690	7	Sololá	719	Santiago Atitlán	14	Cerro de Oro	9	Septiembre	2023-09-20T00:00:00	2024-11-08T22:00:00	4	Temperatura máxima	19.1
173691	7	Sololá	719	Santiago Atitlán	14	Cerro de Oro	9	Septiembre	2023-09-20T00:00:00	2024-11-08T22:00:00	3	Temperatura mínima	18.6
173692	7	Sololá	719	Santiago Atitlán	14	Cerro de Oro	9	Septiembre	2023-09-20T00:00:00	2024-11-08T22:00:00	5	Humedad	87
173693	7	Sololá	719	Santiago Atitlán	14	Cerro de Oro	9	Septiembre	2023-09-20T00:00:00	2024-11-08T22:00:00	6	Velocidad del viento	3.2
173694	7	Sololá	719	Santiago Atitlán	14	Cerro de Oro	9	Septiembre	2023-09-20T00:00:00	2024-11-08T22:00:00	7	Dirección del viento	3.22
173695	7	Sololá	719	Santiago Atitlán	14	Cerro de Oro	9	Septiembre	2023-09-20T00:00:00	2024-11-08T22:00:00	1	Precipitación	0
173696	7	Sololá	719	Santiago Atitlán	14	Cerro de Oro	9	Septiembre	2023-09-20T00:00:00	2024-11-08T22:00:00	8	Radiación solar	0
173697	7	Sololá	719	Santiago Atitlán	14	Cerro de Oro	9	Septiembre	2023-09-20T00:00:00	2024-11-08T23:00:00	2	Temperatura media	18.8
173698	7	Sololá	719	Santiago Atitlán	14	Cerro de Oro	9	Septiembre	2023-09-20T00:00:00	2024-11-08T23:00:00	4	Temperatura máxima	19.2
173699	7	Sololá	719	Santiago Atitlán	14	Cerro de Oro	9	Septiembre	2023-09-20T00:00:00	2024-11-08T23:00:00	3	Temperatura mínima	18.7
173700	7	Sololá	719	Santiago Atitlán	14	Cerro de Oro	9	Septiembre	2023-09-20T00:00:00	2024-11-08T23:00:00	5	Humedad	89
173701	7	Sololá	719	Santiago Atitlán	14	Cerro de Oro	9	Septiembre	2023-09-20T00:00:00	2024-11-08T23:00:00	6	Velocidad del viento	3.2
173702	7	Sololá	719	Santiago Atitlán	14	Cerro de Oro	9	Septiembre	2023-09-20T00:00:00	2024-11-08T23:00:00	7	Dirección del viento	3.22
173703	7	Sololá	719	Santiago Atitlán	14	Cerro de Oro	9	Septiembre	2023-09-20T00:00:00	2024-11-08T23:00:00	1	Precipitación	0
173704	7	Sololá	719	Santiago Atitlán	14	Cerro de Oro	9	Septiembre	2023-09-20T00:00:00	2024-11-08T23:00:00	8	Radiación solar	0
173705	7	Sololá	719	Santiago Atitlán	14	Cerro de Oro	9	Septiembre	2023-09-21T00:00:00	2024-11-08T00:00:00	2	Temperatura media	18.5
173706	7	Sololá	719	Santiago Atitlán	14	Cerro de Oro	9	Septiembre	2023-09-21T00:00:00	2024-11-08T00:00:00	4	Temperatura máxima	18.8
173707	7	Sololá	719	Santiago Atitlán	14	Cerro de Oro	9	Septiembre	2023-09-21T00:00:00	2024-11-08T00:00:00	3	Temperatura mínima	18.3
173708	7	Sololá	719	Santiago Atitlán	14	Cerro de Oro	9	Septiembre	2023-09-21T00:00:00	2024-11-08T00:00:00	5	Humedad	90
173709	7	Sololá	719	Santiago Atitlán	14	Cerro de Oro	9	Septiembre	2023-09-21T00:00:00	2024-11-08T00:00:00	6	Velocidad del viento	0
173710	7	Sololá	719	Santiago Atitlán	14	Cerro de Oro	9	Septiembre	2023-09-21T00:00:00	2024-11-08T00:00:00	7	Dirección del viento	0
173711	7	Sololá	719	Santiago Atitlán	14	Cerro de Oro	9	Septiembre	2023-09-21T00:00:00	2024-11-08T00:00:00	1	Precipitación	0
173712	7	Sololá	719	Santiago Atitlán	14	Cerro de Oro	9	Septiembre	2023-09-21T00:00:00	2024-11-08T00:00:00	8	Radiación solar	0
173713	7	Sololá	719	Santiago Atitlán	14	Cerro de Oro	9	Septiembre	2023-09-21T00:00:00	2024-11-08T01:00:00	2	Temperatura media	18.3
173714	7	Sololá	719	Santiago Atitlán	14	Cerro de Oro	9	Septiembre	2023-09-21T00:00:00	2024-11-08T01:00:00	4	Temperatura máxima	18.7
173715	7	Sololá	719	Santiago Atitlán	14	Cerro de Oro	9	Septiembre	2023-09-21T00:00:00	2024-11-08T01:00:00	3	Temperatura mínima	18.3
173716	7	Sololá	719	Santiago Atitlán	14	Cerro de Oro	9	Septiembre	2023-09-21T00:00:00	2024-11-08T01:00:00	5	Humedad	90
173717	7	Sololá	719	Santiago Atitlán	14	Cerro de Oro	9	Septiembre	2023-09-21T00:00:00	2024-11-08T01:00:00	6	Velocidad del viento	0
173718	7	Sololá	719	Santiago Atitlán	14	Cerro de Oro	9	Septiembre	2023-09-21T00:00:00	2024-11-08T01:00:00	7	Dirección del viento	0
173719	7	Sololá	719	Santiago Atitlán	14	Cerro de Oro	9	Septiembre	2023-09-21T00:00:00	2024-11-08T01:00:00	1	Precipitación	0
173720	7	Sololá	719	Santiago Atitlán	14	Cerro de Oro	9	Septiembre	2023-09-21T00:00:00	2024-11-08T01:00:00	8	Radiación solar	0
173721	7	Sololá	719	Santiago Atitlán	14	Cerro de Oro	9	Septiembre	2023-09-21T00:00:00	2024-11-08T02:00:00	2	Temperatura media	18.8
173722	7	Sololá	719	Santiago Atitlán	14	Cerro de Oro	9	Septiembre	2023-09-21T00:00:00	2024-11-08T02:00:00	4	Temperatura máxima	18.8
173723	7	Sololá	719	Santiago Atitlán	14	Cerro de Oro	9	Septiembre	2023-09-21T00:00:00	2024-11-08T02:00:00	3	Temperatura mínima	18.1
173724	7	Sololá	719	Santiago Atitlán	14	Cerro de Oro	9	Septiembre	2023-09-21T00:00:00	2024-11-08T02:00:00	5	Humedad	87
173725	7	Sololá	719	Santiago Atitlán	14	Cerro de Oro	9	Septiembre	2023-09-21T00:00:00	2024-11-08T02:00:00	6	Velocidad del viento	3.2
173726	7	Sololá	719	Santiago Atitlán	14	Cerro de Oro	9	Septiembre	2023-09-21T00:00:00	2024-11-08T02:00:00	7	Dirección del viento	3.22
173727	7	Sololá	719	Santiago Atitlán	14	Cerro de Oro	9	Septiembre	2023-09-21T00:00:00	2024-11-08T02:00:00	1	Precipitación	0
173728	7	Sololá	719	Santiago Atitlán	14	Cerro de Oro	9	Septiembre	2023-09-21T00:00:00	2024-11-08T02:00:00	8	Radiación solar	0
173729	7	Sololá	719	Santiago Atitlán	14	Cerro de Oro	9	Septiembre	2023-09-21T00:00:00	2024-11-08T03:00:00	2	Temperatura media	18.3
173730	7	Sololá	719	Santiago Atitlán	14	Cerro de Oro	9	Septiembre	2023-09-21T00:00:00	2024-11-08T03:00:00	4	Temperatura máxima	18.8
173731	7	Sololá	719	Santiago Atitlán	14	Cerro de Oro	9	Septiembre	2023-09-21T00:00:00	2024-11-08T03:00:00	3	Temperatura mínima	18.2
173732	7	Sololá	719	Santiago Atitlán	14	Cerro de Oro	9	Septiembre	2023-09-21T00:00:00	2024-11-08T03:00:00	5	Humedad	84
173733	7	Sololá	719	Santiago Atitlán	14	Cerro de Oro	9	Septiembre	2023-09-21T00:00:00	2024-11-08T03:00:00	6	Velocidad del viento	4.8
173734	7	Sololá	719	Santiago Atitlán	14	Cerro de Oro	9	Septiembre	2023-09-21T00:00:00	2024-11-08T03:00:00	7	Dirección del viento	4.83
173735	7	Sololá	719	Santiago Atitlán	14	Cerro de Oro	9	Septiembre	2023-09-21T00:00:00	2024-11-08T03:00:00	1	Precipitación	0
173736	7	Sololá	719	Santiago Atitlán	14	Cerro de Oro	9	Septiembre	2023-09-21T00:00:00	2024-11-08T03:00:00	8	Radiación solar	0
173737	7	Sololá	719	Santiago Atitlán	14	Cerro de Oro	9	Septiembre	2023-09-21T00:00:00	2024-11-08T04:00:00	2	Temperatura media	17.6
173738	7	Sololá	719	Santiago Atitlán	14	Cerro de Oro	9	Septiembre	2023-09-21T00:00:00	2024-11-08T04:00:00	4	Temperatura máxima	18.3
173739	7	Sololá	719	Santiago Atitlán	14	Cerro de Oro	9	Septiembre	2023-09-21T00:00:00	2024-11-08T04:00:00	3	Temperatura mínima	17.6
173740	7	Sololá	719	Santiago Atitlán	14	Cerro de Oro	9	Septiembre	2023-09-21T00:00:00	2024-11-08T04:00:00	5	Humedad	84
173741	7	Sololá	719	Santiago Atitlán	14	Cerro de Oro	9	Septiembre	2023-09-21T00:00:00	2024-11-08T04:00:00	6	Velocidad del viento	6.4
173742	7	Sololá	719	Santiago Atitlán	14	Cerro de Oro	9	Septiembre	2023-09-21T00:00:00	2024-11-08T04:00:00	7	Dirección del viento	6.44
173743	7	Sololá	719	Santiago Atitlán	14	Cerro de Oro	9	Septiembre	2023-09-21T00:00:00	2024-11-08T04:00:00	1	Precipitación	0
173744	7	Sololá	719	Santiago Atitlán	14	Cerro de Oro	9	Septiembre	2023-09-21T00:00:00	2024-11-08T04:00:00	8	Radiación solar	0
173745	7	Sololá	719	Santiago Atitlán	14	Cerro de Oro	9	Septiembre	2023-09-21T00:00:00	2024-11-08T05:00:00	2	Temperatura media	17.9
173746	7	Sololá	719	Santiago Atitlán	14	Cerro de Oro	9	Septiembre	2023-09-21T00:00:00	2024-11-08T05:00:00	4	Temperatura máxima	17.9
173747	7	Sololá	719	Santiago Atitlán	14	Cerro de Oro	9	Septiembre	2023-09-21T00:00:00	2024-11-08T05:00:00	3	Temperatura mínima	17.6
173748	7	Sololá	719	Santiago Atitlán	14	Cerro de Oro	9	Septiembre	2023-09-21T00:00:00	2024-11-08T05:00:00	5	Humedad	79
173749	7	Sololá	719	Santiago Atitlán	14	Cerro de Oro	9	Septiembre	2023-09-21T00:00:00	2024-11-08T05:00:00	6	Velocidad del viento	4.8
173750	7	Sololá	719	Santiago Atitlán	14	Cerro de Oro	9	Septiembre	2023-09-21T00:00:00	2024-11-08T05:00:00	7	Dirección del viento	4.83
173751	7	Sololá	719	Santiago Atitlán	14	Cerro de Oro	9	Septiembre	2023-09-21T00:00:00	2024-11-08T05:00:00	1	Precipitación	0
173752	7	Sololá	719	Santiago Atitlán	14	Cerro de Oro	9	Septiembre	2023-09-21T00:00:00	2024-11-08T05:00:00	8	Radiación solar	0
173753	7	Sololá	719	Santiago Atitlán	14	Cerro de Oro	9	Septiembre	2023-09-21T00:00:00	2024-11-08T06:00:00	2	Temperatura media	18.2
173754	7	Sololá	719	Santiago Atitlán	14	Cerro de Oro	9	Septiembre	2023-09-21T00:00:00	2024-11-08T06:00:00	4	Temperatura máxima	18.8
173755	7	Sololá	719	Santiago Atitlán	14	Cerro de Oro	9	Septiembre	2023-09-21T00:00:00	2024-11-08T06:00:00	3	Temperatura mínima	17.9
173756	7	Sololá	719	Santiago Atitlán	14	Cerro de Oro	9	Septiembre	2023-09-21T00:00:00	2024-11-08T06:00:00	5	Humedad	80
173757	7	Sololá	719	Santiago Atitlán	14	Cerro de Oro	9	Septiembre	2023-09-21T00:00:00	2024-11-08T06:00:00	6	Velocidad del viento	4.8
173758	7	Sololá	719	Santiago Atitlán	14	Cerro de Oro	9	Septiembre	2023-09-21T00:00:00	2024-11-08T06:00:00	7	Dirección del viento	4.83
173759	7	Sololá	719	Santiago Atitlán	14	Cerro de Oro	9	Septiembre	2023-09-21T00:00:00	2024-11-08T06:00:00	1	Precipitación	0
173760	7	Sololá	719	Santiago Atitlán	14	Cerro de Oro	9	Septiembre	2023-09-21T00:00:00	2024-11-08T06:00:00	8	Radiación solar	0
173761	7	Sololá	719	Santiago Atitlán	14	Cerro de Oro	9	Septiembre	2023-09-21T00:00:00	2024-11-08T07:00:00	2	Temperatura media	20.4
173762	7	Sololá	719	Santiago Atitlán	14	Cerro de Oro	9	Septiembre	2023-09-21T00:00:00	2024-11-08T07:00:00	4	Temperatura máxima	20.4
173763	7	Sololá	719	Santiago Atitlán	14	Cerro de Oro	9	Septiembre	2023-09-21T00:00:00	2024-11-08T07:00:00	3	Temperatura mínima	17.9
173764	7	Sololá	719	Santiago Atitlán	14	Cerro de Oro	9	Septiembre	2023-09-21T00:00:00	2024-11-08T07:00:00	5	Humedad	76
173765	7	Sololá	719	Santiago Atitlán	14	Cerro de Oro	9	Septiembre	2023-09-21T00:00:00	2024-11-08T07:00:00	6	Velocidad del viento	3.2
173766	7	Sololá	719	Santiago Atitlán	14	Cerro de Oro	9	Septiembre	2023-09-21T00:00:00	2024-11-08T07:00:00	7	Dirección del viento	3.22
173767	7	Sololá	719	Santiago Atitlán	14	Cerro de Oro	9	Septiembre	2023-09-21T00:00:00	2024-11-08T07:00:00	1	Precipitación	0
173768	7	Sololá	719	Santiago Atitlán	14	Cerro de Oro	9	Septiembre	2023-09-21T00:00:00	2024-11-08T07:00:00	8	Radiación solar	72
173769	7	Sololá	719	Santiago Atitlán	14	Cerro de Oro	9	Septiembre	2023-09-21T00:00:00	2024-11-08T08:00:00	2	Temperatura media	22.7
173770	7	Sololá	719	Santiago Atitlán	14	Cerro de Oro	9	Septiembre	2023-09-21T00:00:00	2024-11-08T08:00:00	4	Temperatura máxima	22.7
173771	7	Sololá	719	Santiago Atitlán	14	Cerro de Oro	9	Septiembre	2023-09-21T00:00:00	2024-11-08T08:00:00	3	Temperatura mínima	20.4
173772	7	Sololá	719	Santiago Atitlán	14	Cerro de Oro	9	Septiembre	2023-09-21T00:00:00	2024-11-08T08:00:00	5	Humedad	65
173773	7	Sololá	719	Santiago Atitlán	14	Cerro de Oro	9	Septiembre	2023-09-21T00:00:00	2024-11-08T08:00:00	6	Velocidad del viento	3.2
173774	7	Sololá	719	Santiago Atitlán	14	Cerro de Oro	9	Septiembre	2023-09-21T00:00:00	2024-11-08T08:00:00	7	Dirección del viento	3.22
173775	7	Sololá	719	Santiago Atitlán	14	Cerro de Oro	9	Septiembre	2023-09-21T00:00:00	2024-11-08T08:00:00	1	Precipitación	0
173776	7	Sololá	719	Santiago Atitlán	14	Cerro de Oro	9	Septiembre	2023-09-21T00:00:00	2024-11-08T08:00:00	8	Radiación solar	313
173777	7	Sololá	719	Santiago Atitlán	14	Cerro de Oro	9	Septiembre	2023-09-21T00:00:00	2024-11-08T09:00:00	2	Temperatura media	24.1
173778	7	Sololá	719	Santiago Atitlán	14	Cerro de Oro	9	Septiembre	2023-09-21T00:00:00	2024-11-08T09:00:00	4	Temperatura máxima	24.1
173779	7	Sololá	719	Santiago Atitlán	14	Cerro de Oro	9	Septiembre	2023-09-21T00:00:00	2024-11-08T09:00:00	3	Temperatura mínima	22.6
173780	7	Sololá	719	Santiago Atitlán	14	Cerro de Oro	9	Septiembre	2023-09-21T00:00:00	2024-11-08T09:00:00	5	Humedad	61
173781	7	Sololá	719	Santiago Atitlán	14	Cerro de Oro	9	Septiembre	2023-09-21T00:00:00	2024-11-08T09:00:00	6	Velocidad del viento	3.2
173782	7	Sololá	719	Santiago Atitlán	14	Cerro de Oro	9	Septiembre	2023-09-21T00:00:00	2024-11-08T09:00:00	7	Dirección del viento	3.22
173783	7	Sololá	719	Santiago Atitlán	14	Cerro de Oro	9	Septiembre	2023-09-21T00:00:00	2024-11-08T09:00:00	1	Precipitación	0
173784	7	Sololá	719	Santiago Atitlán	14	Cerro de Oro	9	Septiembre	2023-09-21T00:00:00	2024-11-08T09:00:00	8	Radiación solar	534
173785	7	Sololá	719	Santiago Atitlán	14	Cerro de Oro	9	Septiembre	2023-09-21T00:00:00	2024-11-08T10:00:00	2	Temperatura media	25.4
173786	7	Sololá	719	Santiago Atitlán	14	Cerro de Oro	9	Septiembre	2023-09-21T00:00:00	2024-11-08T10:00:00	4	Temperatura máxima	25.4
173787	7	Sololá	719	Santiago Atitlán	14	Cerro de Oro	9	Septiembre	2023-09-21T00:00:00	2024-11-08T10:00:00	3	Temperatura mínima	23.7
173788	7	Sololá	719	Santiago Atitlán	14	Cerro de Oro	9	Septiembre	2023-09-21T00:00:00	2024-11-08T10:00:00	5	Humedad	65
173789	7	Sololá	719	Santiago Atitlán	14	Cerro de Oro	9	Septiembre	2023-09-21T00:00:00	2024-11-08T10:00:00	6	Velocidad del viento	4.8
173790	7	Sololá	719	Santiago Atitlán	14	Cerro de Oro	9	Septiembre	2023-09-21T00:00:00	2024-11-08T10:00:00	7	Dirección del viento	4.83
173791	7	Sololá	719	Santiago Atitlán	14	Cerro de Oro	9	Septiembre	2023-09-21T00:00:00	2024-11-08T10:00:00	1	Precipitación	0
173792	7	Sololá	719	Santiago Atitlán	14	Cerro de Oro	9	Septiembre	2023-09-21T00:00:00	2024-11-08T10:00:00	8	Radiación solar	779
173793	7	Sololá	719	Santiago Atitlán	14	Cerro de Oro	9	Septiembre	2023-09-21T00:00:00	2024-11-08T11:00:00	2	Temperatura media	26
173794	7	Sololá	719	Santiago Atitlán	14	Cerro de Oro	9	Septiembre	2023-09-21T00:00:00	2024-11-08T11:00:00	4	Temperatura máxima	26
173795	7	Sololá	719	Santiago Atitlán	14	Cerro de Oro	9	Septiembre	2023-09-21T00:00:00	2024-11-08T11:00:00	3	Temperatura mínima	25
173796	7	Sololá	719	Santiago Atitlán	14	Cerro de Oro	9	Septiembre	2023-09-21T00:00:00	2024-11-08T11:00:00	5	Humedad	60
173797	7	Sololá	719	Santiago Atitlán	14	Cerro de Oro	9	Septiembre	2023-09-21T00:00:00	2024-11-08T11:00:00	6	Velocidad del viento	6.4
173798	7	Sololá	719	Santiago Atitlán	14	Cerro de Oro	9	Septiembre	2023-09-21T00:00:00	2024-11-08T11:00:00	7	Dirección del viento	6.44
173799	7	Sololá	719	Santiago Atitlán	14	Cerro de Oro	9	Septiembre	2023-09-21T00:00:00	2024-11-08T11:00:00	1	Precipitación	0
173800	7	Sololá	719	Santiago Atitlán	14	Cerro de Oro	9	Septiembre	2023-09-21T00:00:00	2024-11-08T11:00:00	8	Radiación solar	947
173801	7	Sololá	719	Santiago Atitlán	14	Cerro de Oro	9	Septiembre	2023-09-21T00:00:00	2024-11-08T12:00:00	2	Temperatura media	24.8
173802	7	Sololá	719	Santiago Atitlán	14	Cerro de Oro	9	Septiembre	2023-09-21T00:00:00	2024-11-08T12:00:00	4	Temperatura máxima	26.1
173803	7	Sololá	719	Santiago Atitlán	14	Cerro de Oro	9	Septiembre	2023-09-21T00:00:00	2024-11-08T12:00:00	3	Temperatura mínima	24.6
173804	7	Sololá	719	Santiago Atitlán	14	Cerro de Oro	9	Septiembre	2023-09-21T00:00:00	2024-11-08T12:00:00	5	Humedad	70
173805	7	Sololá	719	Santiago Atitlán	14	Cerro de Oro	9	Septiembre	2023-09-21T00:00:00	2024-11-08T12:00:00	6	Velocidad del viento	11.3
173806	7	Sololá	719	Santiago Atitlán	14	Cerro de Oro	9	Septiembre	2023-09-21T00:00:00	2024-11-08T12:00:00	7	Dirección del viento	11.27
173807	7	Sololá	719	Santiago Atitlán	14	Cerro de Oro	9	Septiembre	2023-09-21T00:00:00	2024-11-08T12:00:00	1	Precipitación	0
173808	7	Sololá	719	Santiago Atitlán	14	Cerro de Oro	9	Septiembre	2023-09-21T00:00:00	2024-11-08T12:00:00	8	Radiación solar	843
173809	7	Sololá	719	Santiago Atitlán	14	Cerro de Oro	9	Septiembre	2023-09-21T00:00:00	2024-11-08T13:00:00	2	Temperatura media	26.3
173810	7	Sololá	719	Santiago Atitlán	14	Cerro de Oro	9	Septiembre	2023-09-21T00:00:00	2024-11-08T13:00:00	4	Temperatura máxima	26.8
173811	7	Sololá	719	Santiago Atitlán	14	Cerro de Oro	9	Septiembre	2023-09-21T00:00:00	2024-11-08T13:00:00	3	Temperatura mínima	24.7
173812	7	Sololá	719	Santiago Atitlán	14	Cerro de Oro	9	Septiembre	2023-09-21T00:00:00	2024-11-08T13:00:00	5	Humedad	57
173813	7	Sololá	719	Santiago Atitlán	14	Cerro de Oro	9	Septiembre	2023-09-21T00:00:00	2024-11-08T13:00:00	6	Velocidad del viento	11.3
173814	7	Sololá	719	Santiago Atitlán	14	Cerro de Oro	9	Septiembre	2023-09-21T00:00:00	2024-11-08T13:00:00	7	Dirección del viento	11.27
173815	7	Sololá	719	Santiago Atitlán	14	Cerro de Oro	9	Septiembre	2023-09-21T00:00:00	2024-11-08T13:00:00	1	Precipitación	0
173816	7	Sololá	719	Santiago Atitlán	14	Cerro de Oro	9	Septiembre	2023-09-21T00:00:00	2024-11-08T13:00:00	8	Radiación solar	1006
173817	7	Sololá	719	Santiago Atitlán	14	Cerro de Oro	9	Septiembre	2023-09-21T00:00:00	2024-11-08T14:00:00	2	Temperatura media	27.5
173818	7	Sololá	719	Santiago Atitlán	14	Cerro de Oro	9	Septiembre	2023-09-21T00:00:00	2024-11-08T14:00:00	4	Temperatura máxima	27.5
173819	7	Sololá	719	Santiago Atitlán	14	Cerro de Oro	9	Septiembre	2023-09-21T00:00:00	2024-11-08T14:00:00	3	Temperatura mínima	26.1
173820	7	Sololá	719	Santiago Atitlán	14	Cerro de Oro	9	Septiembre	2023-09-21T00:00:00	2024-11-08T14:00:00	5	Humedad	57
173821	7	Sololá	719	Santiago Atitlán	14	Cerro de Oro	9	Septiembre	2023-09-21T00:00:00	2024-11-08T14:00:00	6	Velocidad del viento	9.7
173822	7	Sololá	719	Santiago Atitlán	14	Cerro de Oro	9	Septiembre	2023-09-21T00:00:00	2024-11-08T14:00:00	7	Dirección del viento	9.66
173823	7	Sololá	719	Santiago Atitlán	14	Cerro de Oro	9	Septiembre	2023-09-21T00:00:00	2024-11-08T14:00:00	1	Precipitación	0
173824	7	Sololá	719	Santiago Atitlán	14	Cerro de Oro	9	Septiembre	2023-09-21T00:00:00	2024-11-08T14:00:00	8	Radiación solar	929
173825	7	Sololá	719	Santiago Atitlán	14	Cerro de Oro	9	Septiembre	2023-09-21T00:00:00	2024-11-08T15:00:00	2	Temperatura media	26.2
173826	7	Sololá	719	Santiago Atitlán	14	Cerro de Oro	9	Septiembre	2023-09-21T00:00:00	2024-11-08T15:00:00	4	Temperatura máxima	27.6
173827	7	Sololá	719	Santiago Atitlán	14	Cerro de Oro	9	Septiembre	2023-09-21T00:00:00	2024-11-08T15:00:00	3	Temperatura mínima	25.9
173828	7	Sololá	719	Santiago Atitlán	14	Cerro de Oro	9	Septiembre	2023-09-21T00:00:00	2024-11-08T15:00:00	5	Humedad	67
173829	7	Sololá	719	Santiago Atitlán	14	Cerro de Oro	9	Septiembre	2023-09-21T00:00:00	2024-11-08T15:00:00	6	Velocidad del viento	9.7
173830	7	Sololá	719	Santiago Atitlán	14	Cerro de Oro	9	Septiembre	2023-09-21T00:00:00	2024-11-08T15:00:00	7	Dirección del viento	9.66
173831	7	Sololá	719	Santiago Atitlán	14	Cerro de Oro	9	Septiembre	2023-09-21T00:00:00	2024-11-08T15:00:00	1	Precipitación	0
173832	7	Sololá	719	Santiago Atitlán	14	Cerro de Oro	9	Septiembre	2023-09-21T00:00:00	2024-11-08T15:00:00	8	Radiación solar	628
173833	7	Sololá	719	Santiago Atitlán	14	Cerro de Oro	9	Septiembre	2023-09-21T00:00:00	2024-11-08T16:00:00	2	Temperatura media	23.4
173834	7	Sololá	719	Santiago Atitlán	14	Cerro de Oro	9	Septiembre	2023-09-21T00:00:00	2024-11-08T16:00:00	4	Temperatura máxima	26.2
173835	7	Sololá	719	Santiago Atitlán	14	Cerro de Oro	9	Septiembre	2023-09-21T00:00:00	2024-11-08T16:00:00	3	Temperatura mínima	23.3
173836	7	Sololá	719	Santiago Atitlán	14	Cerro de Oro	9	Septiembre	2023-09-21T00:00:00	2024-11-08T16:00:00	5	Humedad	78
173837	7	Sololá	719	Santiago Atitlán	14	Cerro de Oro	9	Septiembre	2023-09-21T00:00:00	2024-11-08T16:00:00	6	Velocidad del viento	14.5
173838	7	Sololá	719	Santiago Atitlán	14	Cerro de Oro	9	Septiembre	2023-09-21T00:00:00	2024-11-08T16:00:00	7	Dirección del viento	14.48
173839	7	Sololá	719	Santiago Atitlán	14	Cerro de Oro	9	Septiembre	2023-09-21T00:00:00	2024-11-08T16:00:00	1	Precipitación	0
173840	7	Sololá	719	Santiago Atitlán	14	Cerro de Oro	9	Septiembre	2023-09-21T00:00:00	2024-11-08T16:00:00	8	Radiación solar	503
173841	7	Sololá	719	Santiago Atitlán	14	Cerro de Oro	9	Septiembre	2023-09-21T00:00:00	2024-11-08T17:00:00	2	Temperatura media	21.8
173842	7	Sololá	719	Santiago Atitlán	14	Cerro de Oro	9	Septiembre	2023-09-21T00:00:00	2024-11-08T17:00:00	4	Temperatura máxima	23.4
173843	7	Sololá	719	Santiago Atitlán	14	Cerro de Oro	9	Septiembre	2023-09-21T00:00:00	2024-11-08T17:00:00	3	Temperatura mínima	21.6
173844	7	Sololá	719	Santiago Atitlán	14	Cerro de Oro	9	Septiembre	2023-09-21T00:00:00	2024-11-08T17:00:00	5	Humedad	83
173845	7	Sololá	719	Santiago Atitlán	14	Cerro de Oro	9	Septiembre	2023-09-21T00:00:00	2024-11-08T17:00:00	6	Velocidad del viento	12.9
173846	7	Sololá	719	Santiago Atitlán	14	Cerro de Oro	9	Septiembre	2023-09-21T00:00:00	2024-11-08T17:00:00	7	Dirección del viento	12.87
173847	7	Sololá	719	Santiago Atitlán	14	Cerro de Oro	9	Septiembre	2023-09-21T00:00:00	2024-11-08T17:00:00	1	Precipitación	0
173848	7	Sololá	719	Santiago Atitlán	14	Cerro de Oro	9	Septiembre	2023-09-21T00:00:00	2024-11-08T17:00:00	8	Radiación solar	145
173849	7	Sololá	719	Santiago Atitlán	14	Cerro de Oro	9	Septiembre	2023-09-21T00:00:00	2024-11-08T18:00:00	2	Temperatura media	21.2
173850	7	Sololá	719	Santiago Atitlán	14	Cerro de Oro	9	Septiembre	2023-09-21T00:00:00	2024-11-08T18:00:00	4	Temperatura máxima	22.1
173851	7	Sololá	719	Santiago Atitlán	14	Cerro de Oro	9	Septiembre	2023-09-21T00:00:00	2024-11-08T18:00:00	3	Temperatura mínima	21.2
173852	7	Sololá	719	Santiago Atitlán	14	Cerro de Oro	9	Septiembre	2023-09-21T00:00:00	2024-11-08T18:00:00	5	Humedad	80
173853	7	Sololá	719	Santiago Atitlán	14	Cerro de Oro	9	Septiembre	2023-09-21T00:00:00	2024-11-08T18:00:00	6	Velocidad del viento	4.8
173854	7	Sololá	719	Santiago Atitlán	14	Cerro de Oro	9	Septiembre	2023-09-21T00:00:00	2024-11-08T18:00:00	7	Dirección del viento	4.83
173855	7	Sololá	719	Santiago Atitlán	14	Cerro de Oro	9	Septiembre	2023-09-21T00:00:00	2024-11-08T18:00:00	1	Precipitación	0
173856	7	Sololá	719	Santiago Atitlán	14	Cerro de Oro	9	Septiembre	2023-09-21T00:00:00	2024-11-08T18:00:00	8	Radiación solar	41
173857	7	Sololá	719	Santiago Atitlán	14	Cerro de Oro	9	Septiembre	2023-09-21T00:00:00	2024-11-08T19:00:00	2	Temperatura media	20.4
173858	7	Sololá	719	Santiago Atitlán	14	Cerro de Oro	9	Septiembre	2023-09-21T00:00:00	2024-11-08T19:00:00	4	Temperatura máxima	21.2
173859	7	Sololá	719	Santiago Atitlán	14	Cerro de Oro	9	Septiembre	2023-09-21T00:00:00	2024-11-08T19:00:00	3	Temperatura mínima	20.3
173860	7	Sololá	719	Santiago Atitlán	14	Cerro de Oro	9	Septiembre	2023-09-21T00:00:00	2024-11-08T19:00:00	5	Humedad	80
173861	7	Sololá	719	Santiago Atitlán	14	Cerro de Oro	9	Septiembre	2023-09-21T00:00:00	2024-11-08T19:00:00	6	Velocidad del viento	4.8
173862	7	Sololá	719	Santiago Atitlán	14	Cerro de Oro	9	Septiembre	2023-09-21T00:00:00	2024-11-08T19:00:00	7	Dirección del viento	4.83
173863	7	Sololá	719	Santiago Atitlán	14	Cerro de Oro	9	Septiembre	2023-09-21T00:00:00	2024-11-08T19:00:00	1	Precipitación	0
173864	7	Sololá	719	Santiago Atitlán	14	Cerro de Oro	9	Septiembre	2023-09-21T00:00:00	2024-11-08T19:00:00	8	Radiación solar	0
173865	7	Sololá	719	Santiago Atitlán	14	Cerro de Oro	9	Septiembre	2023-09-21T00:00:00	2024-11-08T20:00:00	2	Temperatura media	19.4
173866	7	Sololá	719	Santiago Atitlán	14	Cerro de Oro	9	Septiembre	2023-09-21T00:00:00	2024-11-08T20:00:00	4	Temperatura máxima	20.4
173867	7	Sololá	719	Santiago Atitlán	14	Cerro de Oro	9	Septiembre	2023-09-21T00:00:00	2024-11-08T20:00:00	3	Temperatura mínima	18.9
173868	7	Sololá	719	Santiago Atitlán	14	Cerro de Oro	9	Septiembre	2023-09-21T00:00:00	2024-11-08T20:00:00	5	Humedad	89
173869	7	Sololá	719	Santiago Atitlán	14	Cerro de Oro	9	Septiembre	2023-09-21T00:00:00	2024-11-08T20:00:00	6	Velocidad del viento	6.4
173870	7	Sololá	719	Santiago Atitlán	14	Cerro de Oro	9	Septiembre	2023-09-21T00:00:00	2024-11-08T20:00:00	7	Dirección del viento	6.44
173871	7	Sololá	719	Santiago Atitlán	14	Cerro de Oro	9	Septiembre	2023-09-21T00:00:00	2024-11-08T20:00:00	1	Precipitación	0.8
173872	7	Sololá	719	Santiago Atitlán	14	Cerro de Oro	9	Septiembre	2023-09-21T00:00:00	2024-11-08T20:00:00	8	Radiación solar	0
173873	7	Sololá	719	Santiago Atitlán	14	Cerro de Oro	9	Septiembre	2023-09-21T00:00:00	2024-11-08T21:00:00	2	Temperatura media	19.5
173874	7	Sololá	719	Santiago Atitlán	14	Cerro de Oro	9	Septiembre	2023-09-21T00:00:00	2024-11-08T21:00:00	4	Temperatura máxima	19.7
173875	7	Sololá	719	Santiago Atitlán	14	Cerro de Oro	9	Septiembre	2023-09-21T00:00:00	2024-11-08T21:00:00	3	Temperatura mínima	19.3
173876	7	Sololá	719	Santiago Atitlán	14	Cerro de Oro	9	Septiembre	2023-09-21T00:00:00	2024-11-08T21:00:00	5	Humedad	88
173877	7	Sololá	719	Santiago Atitlán	14	Cerro de Oro	9	Septiembre	2023-09-21T00:00:00	2024-11-08T21:00:00	6	Velocidad del viento	4.8
173878	7	Sololá	719	Santiago Atitlán	14	Cerro de Oro	9	Septiembre	2023-09-21T00:00:00	2024-11-08T21:00:00	7	Dirección del viento	4.83
173879	7	Sololá	719	Santiago Atitlán	14	Cerro de Oro	9	Septiembre	2023-09-21T00:00:00	2024-11-08T21:00:00	1	Precipitación	0
173880	7	Sololá	719	Santiago Atitlán	14	Cerro de Oro	9	Septiembre	2023-09-21T00:00:00	2024-11-08T21:00:00	8	Radiación solar	0
173881	7	Sololá	719	Santiago Atitlán	14	Cerro de Oro	9	Septiembre	2023-09-21T00:00:00	2024-11-08T22:00:00	2	Temperatura media	19.1
173882	7	Sololá	719	Santiago Atitlán	14	Cerro de Oro	9	Septiembre	2023-09-21T00:00:00	2024-11-08T22:00:00	4	Temperatura máxima	19.5
173883	7	Sololá	719	Santiago Atitlán	14	Cerro de Oro	9	Septiembre	2023-09-21T00:00:00	2024-11-08T22:00:00	3	Temperatura mínima	19.1
173884	7	Sololá	719	Santiago Atitlán	14	Cerro de Oro	9	Septiembre	2023-09-21T00:00:00	2024-11-08T22:00:00	5	Humedad	91
173885	7	Sololá	719	Santiago Atitlán	14	Cerro de Oro	9	Septiembre	2023-09-21T00:00:00	2024-11-08T22:00:00	6	Velocidad del viento	8
173886	7	Sololá	719	Santiago Atitlán	14	Cerro de Oro	9	Septiembre	2023-09-21T00:00:00	2024-11-08T22:00:00	7	Dirección del viento	8.05
173887	7	Sololá	719	Santiago Atitlán	14	Cerro de Oro	9	Septiembre	2023-09-21T00:00:00	2024-11-08T22:00:00	1	Precipitación	0
173888	7	Sololá	719	Santiago Atitlán	14	Cerro de Oro	9	Septiembre	2023-09-21T00:00:00	2024-11-08T22:00:00	8	Radiación solar	0
173889	7	Sololá	719	Santiago Atitlán	14	Cerro de Oro	9	Septiembre	2023-09-21T00:00:00	2024-11-08T23:00:00	2	Temperatura media	18.8
173890	7	Sololá	719	Santiago Atitlán	14	Cerro de Oro	9	Septiembre	2023-09-21T00:00:00	2024-11-08T23:00:00	4	Temperatura máxima	19.1
173891	7	Sololá	719	Santiago Atitlán	14	Cerro de Oro	9	Septiembre	2023-09-21T00:00:00	2024-11-08T23:00:00	3	Temperatura mínima	18.4
173892	7	Sololá	719	Santiago Atitlán	14	Cerro de Oro	9	Septiembre	2023-09-21T00:00:00	2024-11-08T23:00:00	5	Humedad	89
173893	7	Sololá	719	Santiago Atitlán	14	Cerro de Oro	9	Septiembre	2023-09-21T00:00:00	2024-11-08T23:00:00	6	Velocidad del viento	9.7
173894	7	Sololá	719	Santiago Atitlán	14	Cerro de Oro	9	Septiembre	2023-09-21T00:00:00	2024-11-08T23:00:00	7	Dirección del viento	9.66
173895	7	Sololá	719	Santiago Atitlán	14	Cerro de Oro	9	Septiembre	2023-09-21T00:00:00	2024-11-08T23:00:00	1	Precipitación	2.2
173896	7	Sololá	719	Santiago Atitlán	14	Cerro de Oro	9	Septiembre	2023-09-21T00:00:00	2024-11-08T23:00:00	8	Radiación solar	0
173897	7	Sololá	719	Santiago Atitlán	14	Cerro de Oro	9	Septiembre	2023-09-22T00:00:00	2024-11-08T00:00:00	2	Temperatura media	18.4
173898	7	Sololá	719	Santiago Atitlán	14	Cerro de Oro	9	Septiembre	2023-09-22T00:00:00	2024-11-08T00:00:00	4	Temperatura máxima	18.8
173899	7	Sololá	719	Santiago Atitlán	14	Cerro de Oro	9	Septiembre	2023-09-22T00:00:00	2024-11-08T00:00:00	3	Temperatura mínima	18.1
173900	7	Sololá	719	Santiago Atitlán	14	Cerro de Oro	9	Septiembre	2023-09-22T00:00:00	2024-11-08T00:00:00	5	Humedad	90
173901	7	Sololá	719	Santiago Atitlán	14	Cerro de Oro	9	Septiembre	2023-09-22T00:00:00	2024-11-08T00:00:00	6	Velocidad del viento	6.4
173902	7	Sololá	719	Santiago Atitlán	14	Cerro de Oro	9	Septiembre	2023-09-22T00:00:00	2024-11-08T00:00:00	7	Dirección del viento	6.44
173903	7	Sololá	719	Santiago Atitlán	14	Cerro de Oro	9	Septiembre	2023-09-22T00:00:00	2024-11-08T00:00:00	1	Precipitación	0
173904	7	Sololá	719	Santiago Atitlán	14	Cerro de Oro	9	Septiembre	2023-09-22T00:00:00	2024-11-08T00:00:00	8	Radiación solar	0
173905	7	Sololá	719	Santiago Atitlán	14	Cerro de Oro	9	Septiembre	2023-09-22T00:00:00	2024-11-08T01:00:00	2	Temperatura media	18.2
173906	7	Sololá	719	Santiago Atitlán	14	Cerro de Oro	9	Septiembre	2023-09-22T00:00:00	2024-11-08T01:00:00	4	Temperatura máxima	18.6
173907	7	Sololá	719	Santiago Atitlán	14	Cerro de Oro	9	Septiembre	2023-09-22T00:00:00	2024-11-08T01:00:00	3	Temperatura mínima	18.2
173908	7	Sololá	719	Santiago Atitlán	14	Cerro de Oro	9	Septiembre	2023-09-22T00:00:00	2024-11-08T01:00:00	5	Humedad	90
173909	7	Sololá	719	Santiago Atitlán	14	Cerro de Oro	9	Septiembre	2023-09-22T00:00:00	2024-11-08T01:00:00	6	Velocidad del viento	4.8
173910	7	Sololá	719	Santiago Atitlán	14	Cerro de Oro	9	Septiembre	2023-09-22T00:00:00	2024-11-08T01:00:00	7	Dirección del viento	4.83
173911	7	Sololá	719	Santiago Atitlán	14	Cerro de Oro	9	Septiembre	2023-09-22T00:00:00	2024-11-08T01:00:00	1	Precipitación	0
173912	7	Sololá	719	Santiago Atitlán	14	Cerro de Oro	9	Septiembre	2023-09-22T00:00:00	2024-11-08T01:00:00	8	Radiación solar	0
173913	7	Sololá	719	Santiago Atitlán	14	Cerro de Oro	9	Septiembre	2023-09-22T00:00:00	2024-11-08T02:00:00	2	Temperatura media	18.6
173914	7	Sololá	719	Santiago Atitlán	14	Cerro de Oro	9	Septiembre	2023-09-22T00:00:00	2024-11-08T02:00:00	4	Temperatura máxima	18.7
173915	7	Sololá	719	Santiago Atitlán	14	Cerro de Oro	9	Septiembre	2023-09-22T00:00:00	2024-11-08T02:00:00	3	Temperatura mínima	18.2
173916	7	Sololá	719	Santiago Atitlán	14	Cerro de Oro	9	Septiembre	2023-09-22T00:00:00	2024-11-08T02:00:00	5	Humedad	87
173917	7	Sololá	719	Santiago Atitlán	14	Cerro de Oro	9	Septiembre	2023-09-22T00:00:00	2024-11-08T02:00:00	6	Velocidad del viento	3.2
173918	7	Sololá	719	Santiago Atitlán	14	Cerro de Oro	9	Septiembre	2023-09-22T00:00:00	2024-11-08T02:00:00	7	Dirección del viento	3.22
173919	7	Sololá	719	Santiago Atitlán	14	Cerro de Oro	9	Septiembre	2023-09-22T00:00:00	2024-11-08T02:00:00	1	Precipitación	0
173920	7	Sololá	719	Santiago Atitlán	14	Cerro de Oro	9	Septiembre	2023-09-22T00:00:00	2024-11-08T02:00:00	8	Radiación solar	0
173921	7	Sololá	719	Santiago Atitlán	14	Cerro de Oro	9	Septiembre	2023-09-22T00:00:00	2024-11-08T03:00:00	2	Temperatura media	19.2
173922	7	Sololá	719	Santiago Atitlán	14	Cerro de Oro	9	Septiembre	2023-09-22T00:00:00	2024-11-08T03:00:00	4	Temperatura máxima	19.2
173923	7	Sololá	719	Santiago Atitlán	14	Cerro de Oro	9	Septiembre	2023-09-22T00:00:00	2024-11-08T03:00:00	3	Temperatura mínima	18.3
173924	7	Sololá	719	Santiago Atitlán	14	Cerro de Oro	9	Septiembre	2023-09-22T00:00:00	2024-11-08T03:00:00	5	Humedad	83
173925	7	Sololá	719	Santiago Atitlán	14	Cerro de Oro	9	Septiembre	2023-09-22T00:00:00	2024-11-08T03:00:00	6	Velocidad del viento	3.2
173926	7	Sololá	719	Santiago Atitlán	14	Cerro de Oro	9	Septiembre	2023-09-22T00:00:00	2024-11-08T03:00:00	7	Dirección del viento	3.22
173927	7	Sololá	719	Santiago Atitlán	14	Cerro de Oro	9	Septiembre	2023-09-22T00:00:00	2024-11-08T03:00:00	1	Precipitación	0
173928	7	Sololá	719	Santiago Atitlán	14	Cerro de Oro	9	Septiembre	2023-09-22T00:00:00	2024-11-08T03:00:00	8	Radiación solar	0
173929	7	Sololá	719	Santiago Atitlán	14	Cerro de Oro	9	Septiembre	2023-09-22T00:00:00	2024-11-08T04:00:00	2	Temperatura media	19.1
173930	7	Sololá	719	Santiago Atitlán	14	Cerro de Oro	9	Septiembre	2023-09-22T00:00:00	2024-11-08T04:00:00	4	Temperatura máxima	19.3
173931	7	Sololá	719	Santiago Atitlán	14	Cerro de Oro	9	Septiembre	2023-09-22T00:00:00	2024-11-08T04:00:00	3	Temperatura mínima	18.3
173932	7	Sololá	719	Santiago Atitlán	14	Cerro de Oro	9	Septiembre	2023-09-22T00:00:00	2024-11-08T04:00:00	5	Humedad	83
173933	7	Sololá	719	Santiago Atitlán	14	Cerro de Oro	9	Septiembre	2023-09-22T00:00:00	2024-11-08T04:00:00	6	Velocidad del viento	4.8
173934	7	Sololá	719	Santiago Atitlán	14	Cerro de Oro	9	Septiembre	2023-09-22T00:00:00	2024-11-08T04:00:00	7	Dirección del viento	4.83
173935	7	Sololá	719	Santiago Atitlán	14	Cerro de Oro	9	Septiembre	2023-09-22T00:00:00	2024-11-08T04:00:00	1	Precipitación	0
173936	7	Sololá	719	Santiago Atitlán	14	Cerro de Oro	9	Septiembre	2023-09-22T00:00:00	2024-11-08T04:00:00	8	Radiación solar	0
173937	7	Sololá	719	Santiago Atitlán	14	Cerro de Oro	9	Septiembre	2023-09-22T00:00:00	2024-11-08T05:00:00	2	Temperatura media	18.4
173938	7	Sololá	719	Santiago Atitlán	14	Cerro de Oro	9	Septiembre	2023-09-22T00:00:00	2024-11-08T05:00:00	4	Temperatura máxima	19.2
173939	7	Sololá	719	Santiago Atitlán	14	Cerro de Oro	9	Septiembre	2023-09-22T00:00:00	2024-11-08T05:00:00	3	Temperatura mínima	18.4
173940	7	Sololá	719	Santiago Atitlán	14	Cerro de Oro	9	Septiembre	2023-09-22T00:00:00	2024-11-08T05:00:00	5	Humedad	82
173941	7	Sololá	719	Santiago Atitlán	14	Cerro de Oro	9	Septiembre	2023-09-22T00:00:00	2024-11-08T05:00:00	6	Velocidad del viento	4.8
173942	7	Sololá	719	Santiago Atitlán	14	Cerro de Oro	9	Septiembre	2023-09-22T00:00:00	2024-11-08T05:00:00	7	Dirección del viento	4.83
173943	7	Sololá	719	Santiago Atitlán	14	Cerro de Oro	9	Septiembre	2023-09-22T00:00:00	2024-11-08T05:00:00	1	Precipitación	0
173944	7	Sololá	719	Santiago Atitlán	14	Cerro de Oro	9	Septiembre	2023-09-22T00:00:00	2024-11-08T05:00:00	8	Radiación solar	0
173945	7	Sololá	719	Santiago Atitlán	14	Cerro de Oro	9	Septiembre	2023-09-22T00:00:00	2024-11-08T06:00:00	2	Temperatura media	17.8
173946	7	Sololá	719	Santiago Atitlán	14	Cerro de Oro	9	Septiembre	2023-09-22T00:00:00	2024-11-08T06:00:00	4	Temperatura máxima	18.7
173947	7	Sololá	719	Santiago Atitlán	14	Cerro de Oro	9	Septiembre	2023-09-22T00:00:00	2024-11-08T06:00:00	3	Temperatura mínima	17.6
173948	7	Sololá	719	Santiago Atitlán	14	Cerro de Oro	9	Septiembre	2023-09-22T00:00:00	2024-11-08T06:00:00	5	Humedad	84
173949	7	Sololá	719	Santiago Atitlán	14	Cerro de Oro	9	Septiembre	2023-09-22T00:00:00	2024-11-08T06:00:00	6	Velocidad del viento	6.4
173950	7	Sololá	719	Santiago Atitlán	14	Cerro de Oro	9	Septiembre	2023-09-22T00:00:00	2024-11-08T06:00:00	7	Dirección del viento	6.44
173951	7	Sololá	719	Santiago Atitlán	14	Cerro de Oro	9	Septiembre	2023-09-22T00:00:00	2024-11-08T06:00:00	1	Precipitación	0
173952	7	Sololá	719	Santiago Atitlán	14	Cerro de Oro	9	Septiembre	2023-09-22T00:00:00	2024-11-08T06:00:00	8	Radiación solar	1
173953	7	Sololá	719	Santiago Atitlán	14	Cerro de Oro	9	Septiembre	2023-09-22T00:00:00	2024-11-08T07:00:00	2	Temperatura media	20.9
173954	7	Sololá	719	Santiago Atitlán	14	Cerro de Oro	9	Septiembre	2023-09-22T00:00:00	2024-11-08T07:00:00	4	Temperatura máxima	20.9
173955	7	Sololá	719	Santiago Atitlán	14	Cerro de Oro	9	Septiembre	2023-09-22T00:00:00	2024-11-08T07:00:00	3	Temperatura mínima	17.8
173956	7	Sololá	719	Santiago Atitlán	14	Cerro de Oro	9	Septiembre	2023-09-22T00:00:00	2024-11-08T07:00:00	5	Humedad	75
173957	7	Sololá	719	Santiago Atitlán	14	Cerro de Oro	9	Septiembre	2023-09-22T00:00:00	2024-11-08T07:00:00	6	Velocidad del viento	6.4
173958	7	Sololá	719	Santiago Atitlán	14	Cerro de Oro	9	Septiembre	2023-09-22T00:00:00	2024-11-08T07:00:00	7	Dirección del viento	6.44
173959	7	Sololá	719	Santiago Atitlán	14	Cerro de Oro	9	Septiembre	2023-09-22T00:00:00	2024-11-08T07:00:00	1	Precipitación	0
173960	7	Sololá	719	Santiago Atitlán	14	Cerro de Oro	9	Septiembre	2023-09-22T00:00:00	2024-11-08T07:00:00	8	Radiación solar	64
173961	7	Sololá	719	Santiago Atitlán	14	Cerro de Oro	9	Septiembre	2023-09-22T00:00:00	2024-11-08T08:00:00	2	Temperatura media	22.7
173962	7	Sololá	719	Santiago Atitlán	14	Cerro de Oro	9	Septiembre	2023-09-22T00:00:00	2024-11-08T08:00:00	4	Temperatura máxima	22.8
173963	7	Sololá	719	Santiago Atitlán	14	Cerro de Oro	9	Septiembre	2023-09-22T00:00:00	2024-11-08T08:00:00	3	Temperatura mínima	20.9
173964	7	Sololá	719	Santiago Atitlán	14	Cerro de Oro	9	Septiembre	2023-09-22T00:00:00	2024-11-08T08:00:00	5	Humedad	69
173965	7	Sololá	719	Santiago Atitlán	14	Cerro de Oro	9	Septiembre	2023-09-22T00:00:00	2024-11-08T08:00:00	6	Velocidad del viento	6.4
173966	7	Sololá	719	Santiago Atitlán	14	Cerro de Oro	9	Septiembre	2023-09-22T00:00:00	2024-11-08T08:00:00	7	Dirección del viento	6.44
173967	7	Sololá	719	Santiago Atitlán	14	Cerro de Oro	9	Septiembre	2023-09-22T00:00:00	2024-11-08T08:00:00	1	Precipitación	0
173968	7	Sololá	719	Santiago Atitlán	14	Cerro de Oro	9	Septiembre	2023-09-22T00:00:00	2024-11-08T08:00:00	8	Radiación solar	245
173969	7	Sololá	719	Santiago Atitlán	14	Cerro de Oro	9	Septiembre	2023-09-22T00:00:00	2024-11-08T09:00:00	2	Temperatura media	23.7
173970	7	Sololá	719	Santiago Atitlán	14	Cerro de Oro	9	Septiembre	2023-09-22T00:00:00	2024-11-08T09:00:00	4	Temperatura máxima	23.8
173971	7	Sololá	719	Santiago Atitlán	14	Cerro de Oro	9	Septiembre	2023-09-22T00:00:00	2024-11-08T09:00:00	3	Temperatura mínima	22.7
173972	7	Sololá	719	Santiago Atitlán	14	Cerro de Oro	9	Septiembre	2023-09-22T00:00:00	2024-11-08T09:00:00	5	Humedad	66
173973	7	Sololá	719	Santiago Atitlán	14	Cerro de Oro	9	Septiembre	2023-09-22T00:00:00	2024-11-08T09:00:00	6	Velocidad del viento	8
173974	7	Sololá	719	Santiago Atitlán	14	Cerro de Oro	9	Septiembre	2023-09-22T00:00:00	2024-11-08T09:00:00	7	Dirección del viento	8.05
173975	7	Sololá	719	Santiago Atitlán	14	Cerro de Oro	9	Septiembre	2023-09-22T00:00:00	2024-11-08T09:00:00	1	Precipitación	0
173976	7	Sololá	719	Santiago Atitlán	14	Cerro de Oro	9	Septiembre	2023-09-22T00:00:00	2024-11-08T09:00:00	8	Radiación solar	484
173977	7	Sololá	719	Santiago Atitlán	14	Cerro de Oro	9	Septiembre	2023-09-22T00:00:00	2024-11-08T10:00:00	2	Temperatura media	23.7
173978	7	Sololá	719	Santiago Atitlán	14	Cerro de Oro	9	Septiembre	2023-09-22T00:00:00	2024-11-08T10:00:00	4	Temperatura máxima	23.9
173979	7	Sololá	719	Santiago Atitlán	14	Cerro de Oro	9	Septiembre	2023-09-22T00:00:00	2024-11-08T10:00:00	3	Temperatura mínima	23.2
173980	7	Sololá	719	Santiago Atitlán	14	Cerro de Oro	9	Septiembre	2023-09-22T00:00:00	2024-11-08T10:00:00	5	Humedad	63
173981	7	Sololá	719	Santiago Atitlán	14	Cerro de Oro	9	Septiembre	2023-09-22T00:00:00	2024-11-08T10:00:00	6	Velocidad del viento	9.7
173982	7	Sololá	719	Santiago Atitlán	14	Cerro de Oro	9	Septiembre	2023-09-22T00:00:00	2024-11-08T10:00:00	7	Dirección del viento	9.66
173983	7	Sololá	719	Santiago Atitlán	14	Cerro de Oro	9	Septiembre	2023-09-22T00:00:00	2024-11-08T10:00:00	1	Precipitación	0
173984	7	Sololá	719	Santiago Atitlán	14	Cerro de Oro	9	Septiembre	2023-09-22T00:00:00	2024-11-08T10:00:00	8	Radiación solar	473
173985	7	Sololá	719	Santiago Atitlán	14	Cerro de Oro	9	Septiembre	2023-09-22T00:00:00	2024-11-08T11:00:00	2	Temperatura media	25.6
173986	7	Sololá	719	Santiago Atitlán	14	Cerro de Oro	9	Septiembre	2023-09-22T00:00:00	2024-11-08T11:00:00	4	Temperatura máxima	25.7
173987	7	Sololá	719	Santiago Atitlán	14	Cerro de Oro	9	Septiembre	2023-09-22T00:00:00	2024-11-08T11:00:00	3	Temperatura mínima	23.7
173988	7	Sololá	719	Santiago Atitlán	14	Cerro de Oro	9	Septiembre	2023-09-22T00:00:00	2024-11-08T11:00:00	5	Humedad	59
173989	7	Sololá	719	Santiago Atitlán	14	Cerro de Oro	9	Septiembre	2023-09-22T00:00:00	2024-11-08T11:00:00	6	Velocidad del viento	6.4
173990	7	Sololá	719	Santiago Atitlán	14	Cerro de Oro	9	Septiembre	2023-09-22T00:00:00	2024-11-08T11:00:00	7	Dirección del viento	6.44
173991	7	Sololá	719	Santiago Atitlán	14	Cerro de Oro	9	Septiembre	2023-09-22T00:00:00	2024-11-08T11:00:00	1	Precipitación	0
173992	7	Sololá	719	Santiago Atitlán	14	Cerro de Oro	9	Septiembre	2023-09-22T00:00:00	2024-11-08T11:00:00	8	Radiación solar	879
173993	7	Sololá	719	Santiago Atitlán	14	Cerro de Oro	9	Septiembre	2023-09-22T00:00:00	2024-11-08T12:00:00	2	Temperatura media	25.2
173994	7	Sololá	719	Santiago Atitlán	14	Cerro de Oro	9	Septiembre	2023-09-22T00:00:00	2024-11-08T12:00:00	4	Temperatura máxima	25.9
173995	7	Sololá	719	Santiago Atitlán	14	Cerro de Oro	9	Septiembre	2023-09-22T00:00:00	2024-11-08T12:00:00	3	Temperatura mínima	25.2
173996	7	Sololá	719	Santiago Atitlán	14	Cerro de Oro	9	Septiembre	2023-09-22T00:00:00	2024-11-08T12:00:00	5	Humedad	69
173997	7	Sololá	719	Santiago Atitlán	14	Cerro de Oro	9	Septiembre	2023-09-22T00:00:00	2024-11-08T12:00:00	6	Velocidad del viento	8
173998	7	Sololá	719	Santiago Atitlán	14	Cerro de Oro	9	Septiembre	2023-09-22T00:00:00	2024-11-08T12:00:00	7	Dirección del viento	8.05
173999	7	Sololá	719	Santiago Atitlán	14	Cerro de Oro	9	Septiembre	2023-09-22T00:00:00	2024-11-08T12:00:00	1	Precipitación	0
174000	7	Sololá	719	Santiago Atitlán	14	Cerro de Oro	9	Septiembre	2023-09-22T00:00:00	2024-11-08T12:00:00	8	Radiación solar	922
174001	7	Sololá	719	Santiago Atitlán	14	Cerro de Oro	9	Septiembre	2023-09-22T00:00:00	2024-11-08T13:00:00	2	Temperatura media	24.4
174002	7	Sololá	719	Santiago Atitlán	14	Cerro de Oro	9	Septiembre	2023-09-22T00:00:00	2024-11-08T13:00:00	4	Temperatura máxima	25.2
174003	7	Sololá	719	Santiago Atitlán	14	Cerro de Oro	9	Septiembre	2023-09-22T00:00:00	2024-11-08T13:00:00	3	Temperatura mínima	24.2
174004	7	Sololá	719	Santiago Atitlán	14	Cerro de Oro	9	Septiembre	2023-09-22T00:00:00	2024-11-08T13:00:00	5	Humedad	71
174005	7	Sololá	719	Santiago Atitlán	14	Cerro de Oro	9	Septiembre	2023-09-22T00:00:00	2024-11-08T13:00:00	6	Velocidad del viento	11.3
174006	7	Sololá	719	Santiago Atitlán	14	Cerro de Oro	9	Septiembre	2023-09-22T00:00:00	2024-11-08T13:00:00	7	Dirección del viento	11.27
174007	7	Sololá	719	Santiago Atitlán	14	Cerro de Oro	9	Septiembre	2023-09-22T00:00:00	2024-11-08T13:00:00	1	Precipitación	0
174008	7	Sololá	719	Santiago Atitlán	14	Cerro de Oro	9	Septiembre	2023-09-22T00:00:00	2024-11-08T13:00:00	8	Radiación solar	831
174009	7	Sololá	719	Santiago Atitlán	14	Cerro de Oro	9	Septiembre	2023-09-22T00:00:00	2024-11-08T14:00:00	2	Temperatura media	25
174010	7	Sololá	719	Santiago Atitlán	14	Cerro de Oro	9	Septiembre	2023-09-22T00:00:00	2024-11-08T14:00:00	4	Temperatura máxima	25.3
174011	7	Sololá	719	Santiago Atitlán	14	Cerro de Oro	9	Septiembre	2023-09-22T00:00:00	2024-11-08T14:00:00	3	Temperatura mínima	24.4
174012	7	Sololá	719	Santiago Atitlán	14	Cerro de Oro	9	Septiembre	2023-09-22T00:00:00	2024-11-08T14:00:00	5	Humedad	71
174013	7	Sololá	719	Santiago Atitlán	14	Cerro de Oro	9	Septiembre	2023-09-22T00:00:00	2024-11-08T14:00:00	6	Velocidad del viento	9.7
174014	7	Sololá	719	Santiago Atitlán	14	Cerro de Oro	9	Septiembre	2023-09-22T00:00:00	2024-11-08T14:00:00	7	Dirección del viento	9.66
174015	7	Sololá	719	Santiago Atitlán	14	Cerro de Oro	9	Septiembre	2023-09-22T00:00:00	2024-11-08T14:00:00	1	Precipitación	0
174016	7	Sololá	719	Santiago Atitlán	14	Cerro de Oro	9	Septiembre	2023-09-22T00:00:00	2024-11-08T14:00:00	8	Radiación solar	875
174017	7	Sololá	719	Santiago Atitlán	14	Cerro de Oro	9	Septiembre	2023-09-22T00:00:00	2024-11-08T15:00:00	2	Temperatura media	25.1
174018	7	Sololá	719	Santiago Atitlán	14	Cerro de Oro	9	Septiembre	2023-09-22T00:00:00	2024-11-08T15:00:00	4	Temperatura máxima	25.2
174019	7	Sololá	719	Santiago Atitlán	14	Cerro de Oro	9	Septiembre	2023-09-22T00:00:00	2024-11-08T15:00:00	3	Temperatura mínima	24.7
174020	7	Sololá	719	Santiago Atitlán	14	Cerro de Oro	9	Septiembre	2023-09-22T00:00:00	2024-11-08T15:00:00	5	Humedad	73
174021	7	Sololá	719	Santiago Atitlán	14	Cerro de Oro	9	Septiembre	2023-09-22T00:00:00	2024-11-08T15:00:00	6	Velocidad del viento	9.7
174022	7	Sololá	719	Santiago Atitlán	14	Cerro de Oro	9	Septiembre	2023-09-22T00:00:00	2024-11-08T15:00:00	7	Dirección del viento	9.66
174023	7	Sololá	719	Santiago Atitlán	14	Cerro de Oro	9	Septiembre	2023-09-22T00:00:00	2024-11-08T15:00:00	1	Precipitación	0
174024	7	Sololá	719	Santiago Atitlán	14	Cerro de Oro	9	Septiembre	2023-09-22T00:00:00	2024-11-08T15:00:00	8	Radiación solar	701
174025	7	Sololá	719	Santiago Atitlán	14	Cerro de Oro	9	Septiembre	2023-09-22T00:00:00	2024-11-08T16:00:00	2	Temperatura media	23.2
174026	7	Sololá	719	Santiago Atitlán	14	Cerro de Oro	9	Septiembre	2023-09-22T00:00:00	2024-11-08T16:00:00	4	Temperatura máxima	25.1
174027	7	Sololá	719	Santiago Atitlán	14	Cerro de Oro	9	Septiembre	2023-09-22T00:00:00	2024-11-08T16:00:00	3	Temperatura mínima	23.2
174028	7	Sololá	719	Santiago Atitlán	14	Cerro de Oro	9	Septiembre	2023-09-22T00:00:00	2024-11-08T16:00:00	5	Humedad	78
174029	7	Sololá	719	Santiago Atitlán	14	Cerro de Oro	9	Septiembre	2023-09-22T00:00:00	2024-11-08T16:00:00	6	Velocidad del viento	9.7
174030	7	Sololá	719	Santiago Atitlán	14	Cerro de Oro	9	Septiembre	2023-09-22T00:00:00	2024-11-08T16:00:00	7	Dirección del viento	9.66
174031	7	Sololá	719	Santiago Atitlán	14	Cerro de Oro	9	Septiembre	2023-09-22T00:00:00	2024-11-08T16:00:00	1	Precipitación	0
174032	7	Sololá	719	Santiago Atitlán	14	Cerro de Oro	9	Septiembre	2023-09-22T00:00:00	2024-11-08T16:00:00	8	Radiación solar	484
174033	7	Sololá	719	Santiago Atitlán	14	Cerro de Oro	9	Septiembre	2023-09-22T00:00:00	2024-11-08T17:00:00	2	Temperatura media	22.3
174034	7	Sololá	719	Santiago Atitlán	14	Cerro de Oro	9	Septiembre	2023-09-22T00:00:00	2024-11-08T17:00:00	4	Temperatura máxima	23.2
174035	7	Sololá	719	Santiago Atitlán	14	Cerro de Oro	9	Septiembre	2023-09-22T00:00:00	2024-11-08T17:00:00	3	Temperatura mínima	22.3
174036	7	Sololá	719	Santiago Atitlán	14	Cerro de Oro	9	Septiembre	2023-09-22T00:00:00	2024-11-08T17:00:00	5	Humedad	81
174037	7	Sololá	719	Santiago Atitlán	14	Cerro de Oro	9	Septiembre	2023-09-22T00:00:00	2024-11-08T17:00:00	6	Velocidad del viento	11.3
174038	7	Sololá	719	Santiago Atitlán	14	Cerro de Oro	9	Septiembre	2023-09-22T00:00:00	2024-11-08T17:00:00	7	Dirección del viento	11.27
174039	7	Sololá	719	Santiago Atitlán	14	Cerro de Oro	9	Septiembre	2023-09-22T00:00:00	2024-11-08T17:00:00	1	Precipitación	0
174040	7	Sololá	719	Santiago Atitlán	14	Cerro de Oro	9	Septiembre	2023-09-22T00:00:00	2024-11-08T17:00:00	8	Radiación solar	218
174041	7	Sololá	719	Santiago Atitlán	14	Cerro de Oro	9	Septiembre	2023-09-22T00:00:00	2024-11-08T18:00:00	2	Temperatura media	20.9
174042	7	Sololá	719	Santiago Atitlán	14	Cerro de Oro	9	Septiembre	2023-09-22T00:00:00	2024-11-08T18:00:00	4	Temperatura máxima	22.3
174043	7	Sololá	719	Santiago Atitlán	14	Cerro de Oro	9	Septiembre	2023-09-22T00:00:00	2024-11-08T18:00:00	3	Temperatura mínima	20.9
174044	7	Sololá	719	Santiago Atitlán	14	Cerro de Oro	9	Septiembre	2023-09-22T00:00:00	2024-11-08T18:00:00	5	Humedad	86
174045	7	Sololá	719	Santiago Atitlán	14	Cerro de Oro	9	Septiembre	2023-09-22T00:00:00	2024-11-08T18:00:00	6	Velocidad del viento	8
174046	7	Sololá	719	Santiago Atitlán	14	Cerro de Oro	9	Septiembre	2023-09-22T00:00:00	2024-11-08T18:00:00	7	Dirección del viento	8.05
174047	7	Sololá	719	Santiago Atitlán	14	Cerro de Oro	9	Septiembre	2023-09-22T00:00:00	2024-11-08T18:00:00	1	Precipitación	0
174048	7	Sololá	719	Santiago Atitlán	14	Cerro de Oro	9	Septiembre	2023-09-22T00:00:00	2024-11-08T18:00:00	8	Radiación solar	48
174049	7	Sololá	719	Santiago Atitlán	14	Cerro de Oro	9	Septiembre	2023-09-22T00:00:00	2024-11-08T19:00:00	2	Temperatura media	20.6
174050	7	Sololá	719	Santiago Atitlán	14	Cerro de Oro	9	Septiembre	2023-09-22T00:00:00	2024-11-08T19:00:00	4	Temperatura máxima	21.2
174051	7	Sololá	719	Santiago Atitlán	14	Cerro de Oro	9	Septiembre	2023-09-22T00:00:00	2024-11-08T19:00:00	3	Temperatura mínima	20.6
174052	7	Sololá	719	Santiago Atitlán	14	Cerro de Oro	9	Septiembre	2023-09-22T00:00:00	2024-11-08T19:00:00	5	Humedad	87
174053	7	Sololá	719	Santiago Atitlán	14	Cerro de Oro	9	Septiembre	2023-09-22T00:00:00	2024-11-08T19:00:00	6	Velocidad del viento	6.4
174054	7	Sololá	719	Santiago Atitlán	14	Cerro de Oro	9	Septiembre	2023-09-22T00:00:00	2024-11-08T19:00:00	7	Dirección del viento	6.44
174055	7	Sololá	719	Santiago Atitlán	14	Cerro de Oro	9	Septiembre	2023-09-22T00:00:00	2024-11-08T19:00:00	1	Precipitación	0
174056	7	Sololá	719	Santiago Atitlán	14	Cerro de Oro	9	Septiembre	2023-09-22T00:00:00	2024-11-08T19:00:00	8	Radiación solar	0
174057	7	Sololá	719	Santiago Atitlán	14	Cerro de Oro	9	Septiembre	2023-09-22T00:00:00	2024-11-08T20:00:00	2	Temperatura media	20.1
174058	7	Sololá	719	Santiago Atitlán	14	Cerro de Oro	9	Septiembre	2023-09-22T00:00:00	2024-11-08T20:00:00	4	Temperatura máxima	20.7
174059	7	Sololá	719	Santiago Atitlán	14	Cerro de Oro	9	Septiembre	2023-09-22T00:00:00	2024-11-08T20:00:00	3	Temperatura mínima	20.1
174060	7	Sololá	719	Santiago Atitlán	14	Cerro de Oro	9	Septiembre	2023-09-22T00:00:00	2024-11-08T20:00:00	5	Humedad	89
174061	7	Sololá	719	Santiago Atitlán	14	Cerro de Oro	9	Septiembre	2023-09-22T00:00:00	2024-11-08T20:00:00	6	Velocidad del viento	8
174062	7	Sololá	719	Santiago Atitlán	14	Cerro de Oro	9	Septiembre	2023-09-22T00:00:00	2024-11-08T20:00:00	7	Dirección del viento	8.05
174063	7	Sololá	719	Santiago Atitlán	14	Cerro de Oro	9	Septiembre	2023-09-22T00:00:00	2024-11-08T20:00:00	1	Precipitación	0
174064	7	Sololá	719	Santiago Atitlán	14	Cerro de Oro	9	Septiembre	2023-09-22T00:00:00	2024-11-08T20:00:00	8	Radiación solar	0
174065	7	Sololá	719	Santiago Atitlán	14	Cerro de Oro	9	Septiembre	2023-09-22T00:00:00	2024-11-08T21:00:00	2	Temperatura media	21.3
174066	7	Sololá	719	Santiago Atitlán	14	Cerro de Oro	9	Septiembre	2023-09-22T00:00:00	2024-11-08T21:00:00	4	Temperatura máxima	21.7
174067	7	Sololá	719	Santiago Atitlán	14	Cerro de Oro	9	Septiembre	2023-09-22T00:00:00	2024-11-08T21:00:00	3	Temperatura mínima	20
174068	7	Sololá	719	Santiago Atitlán	14	Cerro de Oro	9	Septiembre	2023-09-22T00:00:00	2024-11-08T21:00:00	5	Humedad	73
174069	7	Sololá	719	Santiago Atitlán	14	Cerro de Oro	9	Septiembre	2023-09-22T00:00:00	2024-11-08T21:00:00	6	Velocidad del viento	6.4
174070	7	Sololá	719	Santiago Atitlán	14	Cerro de Oro	9	Septiembre	2023-09-22T00:00:00	2024-11-08T21:00:00	7	Dirección del viento	6.44
174071	7	Sololá	719	Santiago Atitlán	14	Cerro de Oro	9	Septiembre	2023-09-22T00:00:00	2024-11-08T21:00:00	1	Precipitación	0
174072	7	Sololá	719	Santiago Atitlán	14	Cerro de Oro	9	Septiembre	2023-09-22T00:00:00	2024-11-08T21:00:00	8	Radiación solar	0
174073	7	Sololá	719	Santiago Atitlán	14	Cerro de Oro	9	Septiembre	2023-09-22T00:00:00	2024-11-08T22:00:00	2	Temperatura media	21.2
174074	7	Sololá	719	Santiago Atitlán	14	Cerro de Oro	9	Septiembre	2023-09-22T00:00:00	2024-11-08T22:00:00	4	Temperatura máxima	21.4
174075	7	Sololá	719	Santiago Atitlán	14	Cerro de Oro	9	Septiembre	2023-09-22T00:00:00	2024-11-08T22:00:00	3	Temperatura mínima	21.2
174076	7	Sololá	719	Santiago Atitlán	14	Cerro de Oro	9	Septiembre	2023-09-22T00:00:00	2024-11-08T22:00:00	5	Humedad	74
174077	7	Sololá	719	Santiago Atitlán	14	Cerro de Oro	9	Septiembre	2023-09-22T00:00:00	2024-11-08T22:00:00	6	Velocidad del viento	4.8
174078	7	Sololá	719	Santiago Atitlán	14	Cerro de Oro	9	Septiembre	2023-09-22T00:00:00	2024-11-08T22:00:00	7	Dirección del viento	4.83
174079	7	Sololá	719	Santiago Atitlán	14	Cerro de Oro	9	Septiembre	2023-09-22T00:00:00	2024-11-08T22:00:00	1	Precipitación	0
174080	7	Sololá	719	Santiago Atitlán	14	Cerro de Oro	9	Septiembre	2023-09-22T00:00:00	2024-11-08T22:00:00	8	Radiación solar	0
174081	7	Sololá	719	Santiago Atitlán	14	Cerro de Oro	9	Septiembre	2023-09-22T00:00:00	2024-11-08T23:00:00	2	Temperatura media	19.7
174082	7	Sololá	719	Santiago Atitlán	14	Cerro de Oro	9	Septiembre	2023-09-22T00:00:00	2024-11-08T23:00:00	4	Temperatura máxima	21.3
174083	7	Sololá	719	Santiago Atitlán	14	Cerro de Oro	9	Septiembre	2023-09-22T00:00:00	2024-11-08T23:00:00	3	Temperatura mínima	19.7
174084	7	Sololá	719	Santiago Atitlán	14	Cerro de Oro	9	Septiembre	2023-09-22T00:00:00	2024-11-08T23:00:00	5	Humedad	77
174085	7	Sololá	719	Santiago Atitlán	14	Cerro de Oro	9	Septiembre	2023-09-22T00:00:00	2024-11-08T23:00:00	6	Velocidad del viento	4.8
174086	7	Sololá	719	Santiago Atitlán	14	Cerro de Oro	9	Septiembre	2023-09-22T00:00:00	2024-11-08T23:00:00	7	Dirección del viento	4.83
174087	7	Sololá	719	Santiago Atitlán	14	Cerro de Oro	9	Septiembre	2023-09-22T00:00:00	2024-11-08T23:00:00	1	Precipitación	0
174088	7	Sololá	719	Santiago Atitlán	14	Cerro de Oro	9	Septiembre	2023-09-22T00:00:00	2024-11-08T23:00:00	8	Radiación solar	0
174089	7	Sololá	719	Santiago Atitlán	14	Cerro de Oro	9	Septiembre	2023-09-23T00:00:00	2024-11-08T00:00:00	2	Temperatura media	19.6
174090	7	Sololá	719	Santiago Atitlán	14	Cerro de Oro	9	Septiembre	2023-09-23T00:00:00	2024-11-08T00:00:00	4	Temperatura máxima	20
174091	7	Sololá	719	Santiago Atitlán	14	Cerro de Oro	9	Septiembre	2023-09-23T00:00:00	2024-11-08T00:00:00	3	Temperatura mínima	19.6
174092	7	Sololá	719	Santiago Atitlán	14	Cerro de Oro	9	Septiembre	2023-09-23T00:00:00	2024-11-08T00:00:00	5	Humedad	77
174093	7	Sololá	719	Santiago Atitlán	14	Cerro de Oro	9	Septiembre	2023-09-23T00:00:00	2024-11-08T00:00:00	6	Velocidad del viento	4.8
174094	7	Sololá	719	Santiago Atitlán	14	Cerro de Oro	9	Septiembre	2023-09-23T00:00:00	2024-11-08T00:00:00	7	Dirección del viento	4.83
174095	7	Sololá	719	Santiago Atitlán	14	Cerro de Oro	9	Septiembre	2023-09-23T00:00:00	2024-11-08T00:00:00	1	Precipitación	0
174096	7	Sololá	719	Santiago Atitlán	14	Cerro de Oro	9	Septiembre	2023-09-23T00:00:00	2024-11-08T00:00:00	8	Radiación solar	0
174097	7	Sololá	719	Santiago Atitlán	14	Cerro de Oro	9	Septiembre	2023-09-23T00:00:00	2024-11-08T01:00:00	2	Temperatura media	19.1
174098	7	Sololá	719	Santiago Atitlán	14	Cerro de Oro	9	Septiembre	2023-09-23T00:00:00	2024-11-08T01:00:00	4	Temperatura máxima	19.8
174099	7	Sololá	719	Santiago Atitlán	14	Cerro de Oro	9	Septiembre	2023-09-23T00:00:00	2024-11-08T01:00:00	3	Temperatura mínima	19
174100	7	Sololá	719	Santiago Atitlán	14	Cerro de Oro	9	Septiembre	2023-09-23T00:00:00	2024-11-08T01:00:00	5	Humedad	80
174101	7	Sololá	719	Santiago Atitlán	14	Cerro de Oro	9	Septiembre	2023-09-23T00:00:00	2024-11-08T01:00:00	6	Velocidad del viento	3.2
174102	7	Sololá	719	Santiago Atitlán	14	Cerro de Oro	9	Septiembre	2023-09-23T00:00:00	2024-11-08T01:00:00	7	Dirección del viento	3.22
174103	7	Sololá	719	Santiago Atitlán	14	Cerro de Oro	9	Septiembre	2023-09-23T00:00:00	2024-11-08T01:00:00	1	Precipitación	0
174104	7	Sololá	719	Santiago Atitlán	14	Cerro de Oro	9	Septiembre	2023-09-23T00:00:00	2024-11-08T01:00:00	8	Radiación solar	0
174105	7	Sololá	719	Santiago Atitlán	14	Cerro de Oro	9	Septiembre	2023-09-23T00:00:00	2024-11-08T02:00:00	2	Temperatura media	19.2
174106	7	Sololá	719	Santiago Atitlán	14	Cerro de Oro	9	Septiembre	2023-09-23T00:00:00	2024-11-08T02:00:00	4	Temperatura máxima	19.5
174107	7	Sololá	719	Santiago Atitlán	14	Cerro de Oro	9	Septiembre	2023-09-23T00:00:00	2024-11-08T02:00:00	3	Temperatura mínima	18.7
174108	7	Sololá	719	Santiago Atitlán	14	Cerro de Oro	9	Septiembre	2023-09-23T00:00:00	2024-11-08T02:00:00	5	Humedad	76
174109	7	Sololá	719	Santiago Atitlán	14	Cerro de Oro	9	Septiembre	2023-09-23T00:00:00	2024-11-08T02:00:00	6	Velocidad del viento	4.8
174110	7	Sololá	719	Santiago Atitlán	14	Cerro de Oro	9	Septiembre	2023-09-23T00:00:00	2024-11-08T02:00:00	7	Dirección del viento	4.83
174111	7	Sololá	719	Santiago Atitlán	14	Cerro de Oro	9	Septiembre	2023-09-23T00:00:00	2024-11-08T02:00:00	1	Precipitación	0
174112	7	Sololá	719	Santiago Atitlán	14	Cerro de Oro	9	Septiembre	2023-09-23T00:00:00	2024-11-08T02:00:00	8	Radiación solar	0
174113	7	Sololá	719	Santiago Atitlán	14	Cerro de Oro	9	Septiembre	2023-09-23T00:00:00	2024-11-08T03:00:00	2	Temperatura media	18.9
174114	7	Sololá	719	Santiago Atitlán	14	Cerro de Oro	9	Septiembre	2023-09-23T00:00:00	2024-11-08T03:00:00	4	Temperatura máxima	19.3
174115	7	Sololá	719	Santiago Atitlán	14	Cerro de Oro	9	Septiembre	2023-09-23T00:00:00	2024-11-08T03:00:00	3	Temperatura mínima	18.8
174116	7	Sololá	719	Santiago Atitlán	14	Cerro de Oro	9	Septiembre	2023-09-23T00:00:00	2024-11-08T03:00:00	5	Humedad	75
174117	7	Sololá	719	Santiago Atitlán	14	Cerro de Oro	9	Septiembre	2023-09-23T00:00:00	2024-11-08T03:00:00	6	Velocidad del viento	3.2
174118	7	Sololá	719	Santiago Atitlán	14	Cerro de Oro	9	Septiembre	2023-09-23T00:00:00	2024-11-08T03:00:00	7	Dirección del viento	3.22
174119	7	Sololá	719	Santiago Atitlán	14	Cerro de Oro	9	Septiembre	2023-09-23T00:00:00	2024-11-08T03:00:00	1	Precipitación	0
174120	7	Sololá	719	Santiago Atitlán	14	Cerro de Oro	9	Septiembre	2023-09-23T00:00:00	2024-11-08T03:00:00	8	Radiación solar	0
174121	7	Sololá	719	Santiago Atitlán	14	Cerro de Oro	9	Septiembre	2023-09-23T00:00:00	2024-11-08T04:00:00	2	Temperatura media	18.2
174122	7	Sololá	719	Santiago Atitlán	14	Cerro de Oro	9	Septiembre	2023-09-23T00:00:00	2024-11-08T04:00:00	4	Temperatura máxima	19.1
174123	7	Sololá	719	Santiago Atitlán	14	Cerro de Oro	9	Septiembre	2023-09-23T00:00:00	2024-11-08T04:00:00	3	Temperatura mínima	18.2
174124	7	Sololá	719	Santiago Atitlán	14	Cerro de Oro	9	Septiembre	2023-09-23T00:00:00	2024-11-08T04:00:00	5	Humedad	81
174125	7	Sololá	719	Santiago Atitlán	14	Cerro de Oro	9	Septiembre	2023-09-23T00:00:00	2024-11-08T04:00:00	6	Velocidad del viento	4.8
174126	7	Sololá	719	Santiago Atitlán	14	Cerro de Oro	9	Septiembre	2023-09-23T00:00:00	2024-11-08T04:00:00	7	Dirección del viento	4.83
174127	7	Sololá	719	Santiago Atitlán	14	Cerro de Oro	9	Septiembre	2023-09-23T00:00:00	2024-11-08T04:00:00	1	Precipitación	0
174128	7	Sololá	719	Santiago Atitlán	14	Cerro de Oro	9	Septiembre	2023-09-23T00:00:00	2024-11-08T04:00:00	8	Radiación solar	0
174129	7	Sololá	719	Santiago Atitlán	14	Cerro de Oro	9	Septiembre	2023-09-23T00:00:00	2024-11-08T05:00:00	2	Temperatura media	18.4
174130	7	Sololá	719	Santiago Atitlán	14	Cerro de Oro	9	Septiembre	2023-09-23T00:00:00	2024-11-08T05:00:00	4	Temperatura máxima	18.4
174131	7	Sololá	719	Santiago Atitlán	14	Cerro de Oro	9	Septiembre	2023-09-23T00:00:00	2024-11-08T05:00:00	3	Temperatura mínima	17.9
174132	7	Sololá	719	Santiago Atitlán	14	Cerro de Oro	9	Septiembre	2023-09-23T00:00:00	2024-11-08T05:00:00	5	Humedad	79
174133	7	Sololá	719	Santiago Atitlán	14	Cerro de Oro	9	Septiembre	2023-09-23T00:00:00	2024-11-08T05:00:00	6	Velocidad del viento	3.2
174134	7	Sololá	719	Santiago Atitlán	14	Cerro de Oro	9	Septiembre	2023-09-23T00:00:00	2024-11-08T05:00:00	7	Dirección del viento	3.22
174135	7	Sololá	719	Santiago Atitlán	14	Cerro de Oro	9	Septiembre	2023-09-23T00:00:00	2024-11-08T05:00:00	1	Precipitación	0
174136	7	Sololá	719	Santiago Atitlán	14	Cerro de Oro	9	Septiembre	2023-09-23T00:00:00	2024-11-08T05:00:00	8	Radiación solar	0
174137	7	Sololá	719	Santiago Atitlán	14	Cerro de Oro	9	Septiembre	2023-09-23T00:00:00	2024-11-08T06:00:00	2	Temperatura media	17.8
174138	7	Sololá	719	Santiago Atitlán	14	Cerro de Oro	9	Septiembre	2023-09-23T00:00:00	2024-11-08T06:00:00	4	Temperatura máxima	18.4
174139	7	Sololá	719	Santiago Atitlán	14	Cerro de Oro	9	Septiembre	2023-09-23T00:00:00	2024-11-08T06:00:00	3	Temperatura mínima	17.8
174140	7	Sololá	719	Santiago Atitlán	14	Cerro de Oro	9	Septiembre	2023-09-23T00:00:00	2024-11-08T06:00:00	5	Humedad	79
174141	7	Sololá	719	Santiago Atitlán	14	Cerro de Oro	9	Septiembre	2023-09-23T00:00:00	2024-11-08T06:00:00	6	Velocidad del viento	3.2
174142	7	Sololá	719	Santiago Atitlán	14	Cerro de Oro	9	Septiembre	2023-09-23T00:00:00	2024-11-08T06:00:00	7	Dirección del viento	3.22
174143	7	Sololá	719	Santiago Atitlán	14	Cerro de Oro	9	Septiembre	2023-09-23T00:00:00	2024-11-08T06:00:00	1	Precipitación	0
174144	7	Sololá	719	Santiago Atitlán	14	Cerro de Oro	9	Septiembre	2023-09-23T00:00:00	2024-11-08T06:00:00	8	Radiación solar	1
174145	7	Sololá	719	Santiago Atitlán	14	Cerro de Oro	9	Septiembre	2023-09-23T00:00:00	2024-11-08T07:00:00	2	Temperatura media	19.7
174146	7	Sololá	719	Santiago Atitlán	14	Cerro de Oro	9	Septiembre	2023-09-23T00:00:00	2024-11-08T07:00:00	4	Temperatura máxima	19.7
174147	7	Sololá	719	Santiago Atitlán	14	Cerro de Oro	9	Septiembre	2023-09-23T00:00:00	2024-11-08T07:00:00	3	Temperatura mínima	17.6
174148	7	Sololá	719	Santiago Atitlán	14	Cerro de Oro	9	Septiembre	2023-09-23T00:00:00	2024-11-08T07:00:00	5	Humedad	73
174149	7	Sololá	719	Santiago Atitlán	14	Cerro de Oro	9	Septiembre	2023-09-23T00:00:00	2024-11-08T07:00:00	6	Velocidad del viento	3.2
174150	7	Sololá	719	Santiago Atitlán	14	Cerro de Oro	9	Septiembre	2023-09-23T00:00:00	2024-11-08T07:00:00	7	Dirección del viento	3.22
174151	7	Sololá	719	Santiago Atitlán	14	Cerro de Oro	9	Septiembre	2023-09-23T00:00:00	2024-11-08T07:00:00	1	Precipitación	0
174152	7	Sololá	719	Santiago Atitlán	14	Cerro de Oro	9	Septiembre	2023-09-23T00:00:00	2024-11-08T07:00:00	8	Radiación solar	53
174153	7	Sololá	719	Santiago Atitlán	14	Cerro de Oro	9	Septiembre	2023-09-23T00:00:00	2024-11-08T08:00:00	2	Temperatura media	21.6
174154	7	Sololá	719	Santiago Atitlán	14	Cerro de Oro	9	Septiembre	2023-09-23T00:00:00	2024-11-08T08:00:00	4	Temperatura máxima	21.6
174155	7	Sololá	719	Santiago Atitlán	14	Cerro de Oro	9	Septiembre	2023-09-23T00:00:00	2024-11-08T08:00:00	3	Temperatura mínima	19.7
174156	7	Sololá	719	Santiago Atitlán	14	Cerro de Oro	9	Septiembre	2023-09-23T00:00:00	2024-11-08T08:00:00	5	Humedad	68
174157	7	Sololá	719	Santiago Atitlán	14	Cerro de Oro	9	Septiembre	2023-09-23T00:00:00	2024-11-08T08:00:00	6	Velocidad del viento	1.6
174158	7	Sololá	719	Santiago Atitlán	14	Cerro de Oro	9	Septiembre	2023-09-23T00:00:00	2024-11-08T08:00:00	7	Dirección del viento	1.61
174159	7	Sololá	719	Santiago Atitlán	14	Cerro de Oro	9	Septiembre	2023-09-23T00:00:00	2024-11-08T08:00:00	1	Precipitación	0
174160	7	Sololá	719	Santiago Atitlán	14	Cerro de Oro	9	Septiembre	2023-09-23T00:00:00	2024-11-08T08:00:00	8	Radiación solar	220
174161	7	Sololá	719	Santiago Atitlán	14	Cerro de Oro	9	Septiembre	2023-09-23T00:00:00	2024-11-08T09:00:00	2	Temperatura media	22.7
174162	7	Sololá	719	Santiago Atitlán	14	Cerro de Oro	9	Septiembre	2023-09-23T00:00:00	2024-11-08T09:00:00	4	Temperatura máxima	22.8
174163	7	Sololá	719	Santiago Atitlán	14	Cerro de Oro	9	Septiembre	2023-09-23T00:00:00	2024-11-08T09:00:00	3	Temperatura mínima	21.6
174164	7	Sololá	719	Santiago Atitlán	14	Cerro de Oro	9	Septiembre	2023-09-23T00:00:00	2024-11-08T09:00:00	5	Humedad	67
174165	7	Sololá	719	Santiago Atitlán	14	Cerro de Oro	9	Septiembre	2023-09-23T00:00:00	2024-11-08T09:00:00	6	Velocidad del viento	3.2
174166	7	Sololá	719	Santiago Atitlán	14	Cerro de Oro	9	Septiembre	2023-09-23T00:00:00	2024-11-08T09:00:00	7	Dirección del viento	3.22
174167	7	Sololá	719	Santiago Atitlán	14	Cerro de Oro	9	Septiembre	2023-09-23T00:00:00	2024-11-08T09:00:00	1	Precipitación	0
174168	7	Sololá	719	Santiago Atitlán	14	Cerro de Oro	9	Septiembre	2023-09-23T00:00:00	2024-11-08T09:00:00	8	Radiación solar	443
174169	7	Sololá	719	Santiago Atitlán	14	Cerro de Oro	9	Septiembre	2023-09-23T00:00:00	2024-11-08T10:00:00	2	Temperatura media	23.2
174170	7	Sololá	719	Santiago Atitlán	14	Cerro de Oro	9	Septiembre	2023-09-23T00:00:00	2024-11-08T10:00:00	4	Temperatura máxima	24.1
174171	7	Sololá	719	Santiago Atitlán	14	Cerro de Oro	9	Septiembre	2023-09-23T00:00:00	2024-11-08T10:00:00	3	Temperatura mínima	22.6
174172	7	Sololá	719	Santiago Atitlán	14	Cerro de Oro	9	Septiembre	2023-09-23T00:00:00	2024-11-08T10:00:00	5	Humedad	69
174173	7	Sololá	719	Santiago Atitlán	14	Cerro de Oro	9	Septiembre	2023-09-23T00:00:00	2024-11-08T10:00:00	6	Velocidad del viento	4.8
174174	7	Sololá	719	Santiago Atitlán	14	Cerro de Oro	9	Septiembre	2023-09-23T00:00:00	2024-11-08T10:00:00	7	Dirección del viento	4.83
174175	7	Sololá	719	Santiago Atitlán	14	Cerro de Oro	9	Septiembre	2023-09-23T00:00:00	2024-11-08T10:00:00	1	Precipitación	0
174176	7	Sololá	719	Santiago Atitlán	14	Cerro de Oro	9	Septiembre	2023-09-23T00:00:00	2024-11-08T10:00:00	8	Radiación solar	707
174177	7	Sololá	719	Santiago Atitlán	14	Cerro de Oro	9	Septiembre	2023-09-23T00:00:00	2024-11-08T11:00:00	2	Temperatura media	23.7
174178	7	Sololá	719	Santiago Atitlán	14	Cerro de Oro	9	Septiembre	2023-09-23T00:00:00	2024-11-08T11:00:00	4	Temperatura máxima	23.7
174179	7	Sololá	719	Santiago Atitlán	14	Cerro de Oro	9	Septiembre	2023-09-23T00:00:00	2024-11-08T11:00:00	3	Temperatura mínima	22.7
174180	7	Sololá	719	Santiago Atitlán	14	Cerro de Oro	9	Septiembre	2023-09-23T00:00:00	2024-11-08T11:00:00	5	Humedad	67
174181	7	Sololá	719	Santiago Atitlán	14	Cerro de Oro	9	Septiembre	2023-09-23T00:00:00	2024-11-08T11:00:00	6	Velocidad del viento	6.4
174182	7	Sololá	719	Santiago Atitlán	14	Cerro de Oro	9	Septiembre	2023-09-23T00:00:00	2024-11-08T11:00:00	7	Dirección del viento	6.44
174183	7	Sololá	719	Santiago Atitlán	14	Cerro de Oro	9	Septiembre	2023-09-23T00:00:00	2024-11-08T11:00:00	1	Precipitación	0
174184	7	Sololá	719	Santiago Atitlán	14	Cerro de Oro	9	Septiembre	2023-09-23T00:00:00	2024-11-08T11:00:00	8	Radiación solar	841
174185	7	Sololá	719	Santiago Atitlán	14	Cerro de Oro	9	Septiembre	2023-09-23T00:00:00	2024-11-08T12:00:00	2	Temperatura media	26.3
174186	7	Sololá	719	Santiago Atitlán	14	Cerro de Oro	9	Septiembre	2023-09-23T00:00:00	2024-11-08T12:00:00	4	Temperatura máxima	26.3
174187	7	Sololá	719	Santiago Atitlán	14	Cerro de Oro	9	Septiembre	2023-09-23T00:00:00	2024-11-08T12:00:00	3	Temperatura mínima	23.7
174188	7	Sololá	719	Santiago Atitlán	14	Cerro de Oro	9	Septiembre	2023-09-23T00:00:00	2024-11-08T12:00:00	5	Humedad	57
174189	7	Sololá	719	Santiago Atitlán	14	Cerro de Oro	9	Septiembre	2023-09-23T00:00:00	2024-11-08T12:00:00	6	Velocidad del viento	4.8
174190	7	Sololá	719	Santiago Atitlán	14	Cerro de Oro	9	Septiembre	2023-09-23T00:00:00	2024-11-08T12:00:00	7	Dirección del viento	4.83
174191	7	Sololá	719	Santiago Atitlán	14	Cerro de Oro	9	Septiembre	2023-09-23T00:00:00	2024-11-08T12:00:00	1	Precipitación	0
174192	7	Sololá	719	Santiago Atitlán	14	Cerro de Oro	9	Septiembre	2023-09-23T00:00:00	2024-11-08T12:00:00	8	Radiación solar	914
174193	7	Sololá	719	Santiago Atitlán	14	Cerro de Oro	9	Septiembre	2023-09-23T00:00:00	2024-11-08T13:00:00	2	Temperatura media	25.9
174194	7	Sololá	719	Santiago Atitlán	14	Cerro de Oro	9	Septiembre	2023-09-23T00:00:00	2024-11-08T13:00:00	4	Temperatura máxima	26.9
174195	7	Sololá	719	Santiago Atitlán	14	Cerro de Oro	9	Septiembre	2023-09-23T00:00:00	2024-11-08T13:00:00	3	Temperatura mínima	25.6
174196	7	Sololá	719	Santiago Atitlán	14	Cerro de Oro	9	Septiembre	2023-09-23T00:00:00	2024-11-08T13:00:00	5	Humedad	71
174197	7	Sololá	719	Santiago Atitlán	14	Cerro de Oro	9	Septiembre	2023-09-23T00:00:00	2024-11-08T13:00:00	6	Velocidad del viento	9.7
174198	7	Sololá	719	Santiago Atitlán	14	Cerro de Oro	9	Septiembre	2023-09-23T00:00:00	2024-11-08T13:00:00	7	Dirección del viento	9.66
174199	7	Sololá	719	Santiago Atitlán	14	Cerro de Oro	9	Septiembre	2023-09-23T00:00:00	2024-11-08T13:00:00	1	Precipitación	0
174200	7	Sololá	719	Santiago Atitlán	14	Cerro de Oro	9	Septiembre	2023-09-23T00:00:00	2024-11-08T13:00:00	8	Radiación solar	905
174201	7	Sololá	719	Santiago Atitlán	14	Cerro de Oro	9	Septiembre	2023-09-23T00:00:00	2024-11-08T14:00:00	2	Temperatura media	24.9
174202	7	Sololá	719	Santiago Atitlán	14	Cerro de Oro	9	Septiembre	2023-09-23T00:00:00	2024-11-08T14:00:00	4	Temperatura máxima	26
174203	7	Sololá	719	Santiago Atitlán	14	Cerro de Oro	9	Septiembre	2023-09-23T00:00:00	2024-11-08T14:00:00	3	Temperatura mínima	24.4
174204	7	Sololá	719	Santiago Atitlán	14	Cerro de Oro	9	Septiembre	2023-09-23T00:00:00	2024-11-08T14:00:00	5	Humedad	74
174205	7	Sololá	719	Santiago Atitlán	14	Cerro de Oro	9	Septiembre	2023-09-23T00:00:00	2024-11-08T14:00:00	6	Velocidad del viento	12.9
174206	7	Sololá	719	Santiago Atitlán	14	Cerro de Oro	9	Septiembre	2023-09-23T00:00:00	2024-11-08T14:00:00	7	Dirección del viento	12.87
174207	7	Sololá	719	Santiago Atitlán	14	Cerro de Oro	9	Septiembre	2023-09-23T00:00:00	2024-11-08T14:00:00	1	Precipitación	0
174208	7	Sololá	719	Santiago Atitlán	14	Cerro de Oro	9	Septiembre	2023-09-23T00:00:00	2024-11-08T14:00:00	8	Radiación solar	789
174209	7	Sololá	719	Santiago Atitlán	14	Cerro de Oro	9	Septiembre	2023-09-23T00:00:00	2024-11-08T15:00:00	2	Temperatura media	24.5
174210	7	Sololá	719	Santiago Atitlán	14	Cerro de Oro	9	Septiembre	2023-09-23T00:00:00	2024-11-08T15:00:00	4	Temperatura máxima	25.2
174211	7	Sololá	719	Santiago Atitlán	14	Cerro de Oro	9	Septiembre	2023-09-23T00:00:00	2024-11-08T15:00:00	3	Temperatura mínima	24.5
174212	7	Sololá	719	Santiago Atitlán	14	Cerro de Oro	9	Septiembre	2023-09-23T00:00:00	2024-11-08T15:00:00	5	Humedad	74
174213	7	Sololá	719	Santiago Atitlán	14	Cerro de Oro	9	Septiembre	2023-09-23T00:00:00	2024-11-08T15:00:00	6	Velocidad del viento	14.5
174214	7	Sololá	719	Santiago Atitlán	14	Cerro de Oro	9	Septiembre	2023-09-23T00:00:00	2024-11-08T15:00:00	7	Dirección del viento	14.48
174215	7	Sololá	719	Santiago Atitlán	14	Cerro de Oro	9	Septiembre	2023-09-23T00:00:00	2024-11-08T15:00:00	1	Precipitación	0
174216	7	Sololá	719	Santiago Atitlán	14	Cerro de Oro	9	Septiembre	2023-09-23T00:00:00	2024-11-08T15:00:00	8	Radiación solar	722
174217	7	Sololá	719	Santiago Atitlán	14	Cerro de Oro	9	Septiembre	2023-09-23T00:00:00	2024-11-08T16:00:00	2	Temperatura media	23.8
174218	7	Sololá	719	Santiago Atitlán	14	Cerro de Oro	9	Septiembre	2023-09-23T00:00:00	2024-11-08T16:00:00	4	Temperatura máxima	24.6
174219	7	Sololá	719	Santiago Atitlán	14	Cerro de Oro	9	Septiembre	2023-09-23T00:00:00	2024-11-08T16:00:00	3	Temperatura mínima	23.8
174220	7	Sololá	719	Santiago Atitlán	14	Cerro de Oro	9	Septiembre	2023-09-23T00:00:00	2024-11-08T16:00:00	5	Humedad	78
174221	7	Sololá	719	Santiago Atitlán	14	Cerro de Oro	9	Septiembre	2023-09-23T00:00:00	2024-11-08T16:00:00	6	Velocidad del viento	11.3
174222	7	Sololá	719	Santiago Atitlán	14	Cerro de Oro	9	Septiembre	2023-09-23T00:00:00	2024-11-08T16:00:00	7	Dirección del viento	11.27
174223	7	Sololá	719	Santiago Atitlán	14	Cerro de Oro	9	Septiembre	2023-09-23T00:00:00	2024-11-08T16:00:00	1	Precipitación	0
174224	7	Sololá	719	Santiago Atitlán	14	Cerro de Oro	9	Septiembre	2023-09-23T00:00:00	2024-11-08T16:00:00	8	Radiación solar	538
174225	7	Sololá	719	Santiago Atitlán	14	Cerro de Oro	9	Septiembre	2023-09-23T00:00:00	2024-11-08T17:00:00	2	Temperatura media	21.9
174226	7	Sololá	719	Santiago Atitlán	14	Cerro de Oro	9	Septiembre	2023-09-23T00:00:00	2024-11-08T17:00:00	4	Temperatura máxima	23.8
174227	7	Sololá	719	Santiago Atitlán	14	Cerro de Oro	9	Septiembre	2023-09-23T00:00:00	2024-11-08T17:00:00	3	Temperatura mínima	21.8
174228	7	Sololá	719	Santiago Atitlán	14	Cerro de Oro	9	Septiembre	2023-09-23T00:00:00	2024-11-08T17:00:00	5	Humedad	84
174229	7	Sololá	719	Santiago Atitlán	14	Cerro de Oro	9	Septiembre	2023-09-23T00:00:00	2024-11-08T17:00:00	6	Velocidad del viento	9.7
174230	7	Sololá	719	Santiago Atitlán	14	Cerro de Oro	9	Septiembre	2023-09-23T00:00:00	2024-11-08T17:00:00	7	Dirección del viento	9.66
174231	7	Sololá	719	Santiago Atitlán	14	Cerro de Oro	9	Septiembre	2023-09-23T00:00:00	2024-11-08T17:00:00	1	Precipitación	0
174232	7	Sololá	719	Santiago Atitlán	14	Cerro de Oro	9	Septiembre	2023-09-23T00:00:00	2024-11-08T17:00:00	8	Radiación solar	102
174233	7	Sololá	719	Santiago Atitlán	14	Cerro de Oro	9	Septiembre	2023-09-23T00:00:00	2024-11-08T18:00:00	2	Temperatura media	20.7
174234	7	Sololá	719	Santiago Atitlán	14	Cerro de Oro	9	Septiembre	2023-09-23T00:00:00	2024-11-08T18:00:00	4	Temperatura máxima	21.9
174235	7	Sololá	719	Santiago Atitlán	14	Cerro de Oro	9	Septiembre	2023-09-23T00:00:00	2024-11-08T18:00:00	3	Temperatura mínima	20.7
174236	7	Sololá	719	Santiago Atitlán	14	Cerro de Oro	9	Septiembre	2023-09-23T00:00:00	2024-11-08T18:00:00	5	Humedad	87
174237	7	Sololá	719	Santiago Atitlán	14	Cerro de Oro	9	Septiembre	2023-09-23T00:00:00	2024-11-08T18:00:00	6	Velocidad del viento	9.7
174238	7	Sololá	719	Santiago Atitlán	14	Cerro de Oro	9	Septiembre	2023-09-23T00:00:00	2024-11-08T18:00:00	7	Dirección del viento	9.66
174239	7	Sololá	719	Santiago Atitlán	14	Cerro de Oro	9	Septiembre	2023-09-23T00:00:00	2024-11-08T18:00:00	1	Precipitación	0
174240	7	Sololá	719	Santiago Atitlán	14	Cerro de Oro	9	Septiembre	2023-09-23T00:00:00	2024-11-08T18:00:00	8	Radiación solar	16
174241	7	Sololá	719	Santiago Atitlán	14	Cerro de Oro	9	Septiembre	2023-09-23T00:00:00	2024-11-08T19:00:00	2	Temperatura media	20.4
174242	7	Sololá	719	Santiago Atitlán	14	Cerro de Oro	9	Septiembre	2023-09-23T00:00:00	2024-11-08T19:00:00	4	Temperatura máxima	21.1
174243	7	Sololá	719	Santiago Atitlán	14	Cerro de Oro	9	Septiembre	2023-09-23T00:00:00	2024-11-08T19:00:00	3	Temperatura mínima	20.4
174244	7	Sololá	719	Santiago Atitlán	14	Cerro de Oro	9	Septiembre	2023-09-23T00:00:00	2024-11-08T19:00:00	5	Humedad	89
174245	7	Sololá	719	Santiago Atitlán	14	Cerro de Oro	9	Septiembre	2023-09-23T00:00:00	2024-11-08T19:00:00	6	Velocidad del viento	8
174246	7	Sololá	719	Santiago Atitlán	14	Cerro de Oro	9	Septiembre	2023-09-23T00:00:00	2024-11-08T19:00:00	7	Dirección del viento	8.05
174247	7	Sololá	719	Santiago Atitlán	14	Cerro de Oro	9	Septiembre	2023-09-23T00:00:00	2024-11-08T19:00:00	1	Precipitación	0
174248	7	Sololá	719	Santiago Atitlán	14	Cerro de Oro	9	Septiembre	2023-09-23T00:00:00	2024-11-08T19:00:00	8	Radiación solar	0
174249	7	Sololá	719	Santiago Atitlán	14	Cerro de Oro	9	Septiembre	2023-09-23T00:00:00	2024-11-08T20:00:00	2	Temperatura media	19.3
174250	7	Sololá	719	Santiago Atitlán	14	Cerro de Oro	9	Septiembre	2023-09-23T00:00:00	2024-11-08T20:00:00	4	Temperatura máxima	20.4
174251	7	Sololá	719	Santiago Atitlán	14	Cerro de Oro	9	Septiembre	2023-09-23T00:00:00	2024-11-08T20:00:00	3	Temperatura mínima	18.9
174252	7	Sololá	719	Santiago Atitlán	14	Cerro de Oro	9	Septiembre	2023-09-23T00:00:00	2024-11-08T20:00:00	5	Humedad	91
174253	7	Sololá	719	Santiago Atitlán	14	Cerro de Oro	9	Septiembre	2023-09-23T00:00:00	2024-11-08T20:00:00	6	Velocidad del viento	6.4
174254	7	Sololá	719	Santiago Atitlán	14	Cerro de Oro	9	Septiembre	2023-09-23T00:00:00	2024-11-08T20:00:00	7	Dirección del viento	6.44
174255	7	Sololá	719	Santiago Atitlán	14	Cerro de Oro	9	Septiembre	2023-09-23T00:00:00	2024-11-08T20:00:00	1	Precipitación	0
174256	7	Sololá	719	Santiago Atitlán	14	Cerro de Oro	9	Septiembre	2023-09-23T00:00:00	2024-11-08T20:00:00	8	Radiación solar	0
174257	7	Sololá	719	Santiago Atitlán	14	Cerro de Oro	9	Septiembre	2023-09-23T00:00:00	2024-11-08T21:00:00	2	Temperatura media	19.5
174258	7	Sololá	719	Santiago Atitlán	14	Cerro de Oro	9	Septiembre	2023-09-23T00:00:00	2024-11-08T21:00:00	4	Temperatura máxima	19.7
174259	7	Sololá	719	Santiago Atitlán	14	Cerro de Oro	9	Septiembre	2023-09-23T00:00:00	2024-11-08T21:00:00	3	Temperatura mínima	19.3
174260	7	Sololá	719	Santiago Atitlán	14	Cerro de Oro	9	Septiembre	2023-09-23T00:00:00	2024-11-08T21:00:00	5	Humedad	87
174261	7	Sololá	719	Santiago Atitlán	14	Cerro de Oro	9	Septiembre	2023-09-23T00:00:00	2024-11-08T21:00:00	6	Velocidad del viento	3.2
174262	7	Sololá	719	Santiago Atitlán	14	Cerro de Oro	9	Septiembre	2023-09-23T00:00:00	2024-11-08T21:00:00	7	Dirección del viento	3.22
174263	7	Sololá	719	Santiago Atitlán	14	Cerro de Oro	9	Septiembre	2023-09-23T00:00:00	2024-11-08T21:00:00	1	Precipitación	0
174264	7	Sololá	719	Santiago Atitlán	14	Cerro de Oro	9	Septiembre	2023-09-23T00:00:00	2024-11-08T21:00:00	8	Radiación solar	0
174265	7	Sololá	719	Santiago Atitlán	14	Cerro de Oro	9	Septiembre	2023-09-23T00:00:00	2024-11-08T22:00:00	2	Temperatura media	19.7
174266	7	Sololá	719	Santiago Atitlán	14	Cerro de Oro	9	Septiembre	2023-09-23T00:00:00	2024-11-08T22:00:00	4	Temperatura máxima	19.8
174267	7	Sololá	719	Santiago Atitlán	14	Cerro de Oro	9	Septiembre	2023-09-23T00:00:00	2024-11-08T22:00:00	3	Temperatura mínima	19.5
174268	7	Sololá	719	Santiago Atitlán	14	Cerro de Oro	9	Septiembre	2023-09-23T00:00:00	2024-11-08T22:00:00	5	Humedad	85
174269	7	Sololá	719	Santiago Atitlán	14	Cerro de Oro	9	Septiembre	2023-09-23T00:00:00	2024-11-08T22:00:00	6	Velocidad del viento	3.2
174270	7	Sololá	719	Santiago Atitlán	14	Cerro de Oro	9	Septiembre	2023-09-23T00:00:00	2024-11-08T22:00:00	7	Dirección del viento	3.22
174271	7	Sololá	719	Santiago Atitlán	14	Cerro de Oro	9	Septiembre	2023-09-23T00:00:00	2024-11-08T22:00:00	1	Precipitación	0
174272	7	Sololá	719	Santiago Atitlán	14	Cerro de Oro	9	Septiembre	2023-09-23T00:00:00	2024-11-08T22:00:00	8	Radiación solar	0
174273	7	Sololá	719	Santiago Atitlán	14	Cerro de Oro	9	Septiembre	2023-09-23T00:00:00	2024-11-08T23:00:00	2	Temperatura media	19.4
174274	7	Sololá	719	Santiago Atitlán	14	Cerro de Oro	9	Septiembre	2023-09-23T00:00:00	2024-11-08T23:00:00	4	Temperatura máxima	19.7
174275	7	Sololá	719	Santiago Atitlán	14	Cerro de Oro	9	Septiembre	2023-09-23T00:00:00	2024-11-08T23:00:00	3	Temperatura mínima	19.3
174276	7	Sololá	719	Santiago Atitlán	14	Cerro de Oro	9	Septiembre	2023-09-23T00:00:00	2024-11-08T23:00:00	5	Humedad	88
174277	7	Sololá	719	Santiago Atitlán	14	Cerro de Oro	9	Septiembre	2023-09-23T00:00:00	2024-11-08T23:00:00	6	Velocidad del viento	3.2
174278	7	Sololá	719	Santiago Atitlán	14	Cerro de Oro	9	Septiembre	2023-09-23T00:00:00	2024-11-08T23:00:00	7	Dirección del viento	3.22
174279	7	Sololá	719	Santiago Atitlán	14	Cerro de Oro	9	Septiembre	2023-09-23T00:00:00	2024-11-08T23:00:00	1	Precipitación	0
174280	7	Sololá	719	Santiago Atitlán	14	Cerro de Oro	9	Septiembre	2023-09-23T00:00:00	2024-11-08T23:00:00	8	Radiación solar	0
174281	7	Sololá	719	Santiago Atitlán	14	Cerro de Oro	9	Septiembre	2023-09-24T00:00:00	2024-11-08T00:00:00	2	Temperatura media	18.9
174282	7	Sololá	719	Santiago Atitlán	14	Cerro de Oro	9	Septiembre	2023-09-24T00:00:00	2024-11-08T00:00:00	4	Temperatura máxima	19.4
174283	7	Sololá	719	Santiago Atitlán	14	Cerro de Oro	9	Septiembre	2023-09-24T00:00:00	2024-11-08T00:00:00	3	Temperatura mínima	18.9
174284	7	Sololá	719	Santiago Atitlán	14	Cerro de Oro	9	Septiembre	2023-09-24T00:00:00	2024-11-08T00:00:00	5	Humedad	89
174285	7	Sololá	719	Santiago Atitlán	14	Cerro de Oro	9	Septiembre	2023-09-24T00:00:00	2024-11-08T00:00:00	6	Velocidad del viento	4.8
174286	7	Sololá	719	Santiago Atitlán	14	Cerro de Oro	9	Septiembre	2023-09-24T00:00:00	2024-11-08T00:00:00	7	Dirección del viento	4.83
174287	7	Sololá	719	Santiago Atitlán	14	Cerro de Oro	9	Septiembre	2023-09-24T00:00:00	2024-11-08T00:00:00	1	Precipitación	0
174288	7	Sololá	719	Santiago Atitlán	14	Cerro de Oro	9	Septiembre	2023-09-24T00:00:00	2024-11-08T00:00:00	8	Radiación solar	0
174289	7	Sololá	719	Santiago Atitlán	14	Cerro de Oro	9	Septiembre	2023-09-24T00:00:00	2024-11-08T01:00:00	2	Temperatura media	18.7
174290	7	Sololá	719	Santiago Atitlán	14	Cerro de Oro	9	Septiembre	2023-09-24T00:00:00	2024-11-08T01:00:00	4	Temperatura máxima	19.1
174291	7	Sololá	719	Santiago Atitlán	14	Cerro de Oro	9	Septiembre	2023-09-24T00:00:00	2024-11-08T01:00:00	3	Temperatura mínima	18.6
174292	7	Sololá	719	Santiago Atitlán	14	Cerro de Oro	9	Septiembre	2023-09-24T00:00:00	2024-11-08T01:00:00	5	Humedad	87
174293	7	Sololá	719	Santiago Atitlán	14	Cerro de Oro	9	Septiembre	2023-09-24T00:00:00	2024-11-08T01:00:00	6	Velocidad del viento	4.8
174294	7	Sololá	719	Santiago Atitlán	14	Cerro de Oro	9	Septiembre	2023-09-24T00:00:00	2024-11-08T01:00:00	7	Dirección del viento	4.83
174295	7	Sololá	719	Santiago Atitlán	14	Cerro de Oro	9	Septiembre	2023-09-24T00:00:00	2024-11-08T01:00:00	1	Precipitación	0
174296	7	Sololá	719	Santiago Atitlán	14	Cerro de Oro	9	Septiembre	2023-09-24T00:00:00	2024-11-08T01:00:00	8	Radiación solar	0
174297	7	Sololá	719	Santiago Atitlán	14	Cerro de Oro	9	Septiembre	2023-09-24T00:00:00	2024-11-08T02:00:00	2	Temperatura media	18
174298	7	Sololá	719	Santiago Atitlán	14	Cerro de Oro	9	Septiembre	2023-09-24T00:00:00	2024-11-08T02:00:00	4	Temperatura máxima	18.7
174299	7	Sololá	719	Santiago Atitlán	14	Cerro de Oro	9	Septiembre	2023-09-24T00:00:00	2024-11-08T02:00:00	3	Temperatura mínima	17.7
174300	7	Sololá	719	Santiago Atitlán	14	Cerro de Oro	9	Septiembre	2023-09-24T00:00:00	2024-11-08T02:00:00	5	Humedad	90
174301	7	Sololá	719	Santiago Atitlán	14	Cerro de Oro	9	Septiembre	2023-09-24T00:00:00	2024-11-08T02:00:00	6	Velocidad del viento	4.8
174302	7	Sololá	719	Santiago Atitlán	14	Cerro de Oro	9	Septiembre	2023-09-24T00:00:00	2024-11-08T02:00:00	7	Dirección del viento	4.83
174303	7	Sololá	719	Santiago Atitlán	14	Cerro de Oro	9	Septiembre	2023-09-24T00:00:00	2024-11-08T02:00:00	1	Precipitación	0
174304	7	Sololá	719	Santiago Atitlán	14	Cerro de Oro	9	Septiembre	2023-09-24T00:00:00	2024-11-08T02:00:00	8	Radiación solar	0
174305	7	Sololá	719	Santiago Atitlán	14	Cerro de Oro	9	Septiembre	2023-09-24T00:00:00	2024-11-08T03:00:00	2	Temperatura media	18.5
174306	7	Sololá	719	Santiago Atitlán	14	Cerro de Oro	9	Septiembre	2023-09-24T00:00:00	2024-11-08T03:00:00	4	Temperatura máxima	18.7
174307	7	Sololá	719	Santiago Atitlán	14	Cerro de Oro	9	Septiembre	2023-09-24T00:00:00	2024-11-08T03:00:00	3	Temperatura mínima	17.9
174308	7	Sololá	719	Santiago Atitlán	14	Cerro de Oro	9	Septiembre	2023-09-24T00:00:00	2024-11-08T03:00:00	5	Humedad	85
174309	7	Sololá	719	Santiago Atitlán	14	Cerro de Oro	9	Septiembre	2023-09-24T00:00:00	2024-11-08T03:00:00	6	Velocidad del viento	4.8
174310	7	Sololá	719	Santiago Atitlán	14	Cerro de Oro	9	Septiembre	2023-09-24T00:00:00	2024-11-08T03:00:00	7	Dirección del viento	4.83
174311	7	Sololá	719	Santiago Atitlán	14	Cerro de Oro	9	Septiembre	2023-09-24T00:00:00	2024-11-08T03:00:00	1	Precipitación	0
174312	7	Sololá	719	Santiago Atitlán	14	Cerro de Oro	9	Septiembre	2023-09-24T00:00:00	2024-11-08T03:00:00	8	Radiación solar	0
174313	7	Sololá	719	Santiago Atitlán	14	Cerro de Oro	9	Septiembre	2023-09-24T00:00:00	2024-11-08T04:00:00	2	Temperatura media	18.1
174314	7	Sololá	719	Santiago Atitlán	14	Cerro de Oro	9	Septiembre	2023-09-24T00:00:00	2024-11-08T04:00:00	4	Temperatura máxima	18.5
174315	7	Sololá	719	Santiago Atitlán	14	Cerro de Oro	9	Septiembre	2023-09-24T00:00:00	2024-11-08T04:00:00	3	Temperatura mínima	17.8
174316	7	Sololá	719	Santiago Atitlán	14	Cerro de Oro	9	Septiembre	2023-09-24T00:00:00	2024-11-08T04:00:00	5	Humedad	86
174317	7	Sololá	719	Santiago Atitlán	14	Cerro de Oro	9	Septiembre	2023-09-24T00:00:00	2024-11-08T04:00:00	6	Velocidad del viento	4.8
174318	7	Sololá	719	Santiago Atitlán	14	Cerro de Oro	9	Septiembre	2023-09-24T00:00:00	2024-11-08T04:00:00	7	Dirección del viento	4.83
174319	7	Sololá	719	Santiago Atitlán	14	Cerro de Oro	9	Septiembre	2023-09-24T00:00:00	2024-11-08T04:00:00	1	Precipitación	0
174320	7	Sololá	719	Santiago Atitlán	14	Cerro de Oro	9	Septiembre	2023-09-24T00:00:00	2024-11-08T04:00:00	8	Radiación solar	0
174321	7	Sololá	719	Santiago Atitlán	14	Cerro de Oro	9	Septiembre	2023-09-24T00:00:00	2024-11-08T05:00:00	2	Temperatura media	18.7
174322	7	Sololá	719	Santiago Atitlán	14	Cerro de Oro	9	Septiembre	2023-09-24T00:00:00	2024-11-08T05:00:00	4	Temperatura máxima	18.7
174323	7	Sololá	719	Santiago Atitlán	14	Cerro de Oro	9	Septiembre	2023-09-24T00:00:00	2024-11-08T05:00:00	3	Temperatura mínima	18
174324	7	Sololá	719	Santiago Atitlán	14	Cerro de Oro	9	Septiembre	2023-09-24T00:00:00	2024-11-08T05:00:00	5	Humedad	78
174325	7	Sololá	719	Santiago Atitlán	14	Cerro de Oro	9	Septiembre	2023-09-24T00:00:00	2024-11-08T05:00:00	6	Velocidad del viento	4.8
174326	7	Sololá	719	Santiago Atitlán	14	Cerro de Oro	9	Septiembre	2023-09-24T00:00:00	2024-11-08T05:00:00	7	Dirección del viento	4.83
174327	7	Sololá	719	Santiago Atitlán	14	Cerro de Oro	9	Septiembre	2023-09-24T00:00:00	2024-11-08T05:00:00	1	Precipitación	0
174328	7	Sololá	719	Santiago Atitlán	14	Cerro de Oro	9	Septiembre	2023-09-24T00:00:00	2024-11-08T05:00:00	8	Radiación solar	0
174329	7	Sololá	719	Santiago Atitlán	14	Cerro de Oro	9	Septiembre	2023-09-24T00:00:00	2024-11-08T06:00:00	2	Temperatura media	18.1
174330	7	Sololá	719	Santiago Atitlán	14	Cerro de Oro	9	Septiembre	2023-09-24T00:00:00	2024-11-08T06:00:00	4	Temperatura máxima	18.8
174331	7	Sololá	719	Santiago Atitlán	14	Cerro de Oro	9	Septiembre	2023-09-24T00:00:00	2024-11-08T06:00:00	3	Temperatura mínima	17.9
174332	7	Sololá	719	Santiago Atitlán	14	Cerro de Oro	9	Septiembre	2023-09-24T00:00:00	2024-11-08T06:00:00	5	Humedad	80
174333	7	Sololá	719	Santiago Atitlán	14	Cerro de Oro	9	Septiembre	2023-09-24T00:00:00	2024-11-08T06:00:00	6	Velocidad del viento	3.2
174334	7	Sololá	719	Santiago Atitlán	14	Cerro de Oro	9	Septiembre	2023-09-24T00:00:00	2024-11-08T06:00:00	7	Dirección del viento	3.22
174335	7	Sololá	719	Santiago Atitlán	14	Cerro de Oro	9	Septiembre	2023-09-24T00:00:00	2024-11-08T06:00:00	1	Precipitación	0
174336	7	Sololá	719	Santiago Atitlán	14	Cerro de Oro	9	Septiembre	2023-09-24T00:00:00	2024-11-08T06:00:00	8	Radiación solar	3
174337	7	Sololá	719	Santiago Atitlán	14	Cerro de Oro	9	Septiembre	2023-09-24T00:00:00	2024-11-08T07:00:00	2	Temperatura media	18.8
174338	7	Sololá	719	Santiago Atitlán	14	Cerro de Oro	9	Septiembre	2023-09-24T00:00:00	2024-11-08T07:00:00	4	Temperatura máxima	19
174339	7	Sololá	719	Santiago Atitlán	14	Cerro de Oro	9	Septiembre	2023-09-24T00:00:00	2024-11-08T07:00:00	3	Temperatura mínima	17.9
174340	7	Sololá	719	Santiago Atitlán	14	Cerro de Oro	9	Septiembre	2023-09-24T00:00:00	2024-11-08T07:00:00	5	Humedad	86
174341	7	Sololá	719	Santiago Atitlán	14	Cerro de Oro	9	Septiembre	2023-09-24T00:00:00	2024-11-08T07:00:00	6	Velocidad del viento	4.8
174342	7	Sololá	719	Santiago Atitlán	14	Cerro de Oro	9	Septiembre	2023-09-24T00:00:00	2024-11-08T07:00:00	7	Dirección del viento	4.83
174343	7	Sololá	719	Santiago Atitlán	14	Cerro de Oro	9	Septiembre	2023-09-24T00:00:00	2024-11-08T07:00:00	1	Precipitación	0
174344	7	Sololá	719	Santiago Atitlán	14	Cerro de Oro	9	Septiembre	2023-09-24T00:00:00	2024-11-08T07:00:00	8	Radiación solar	68
174345	7	Sololá	719	Santiago Atitlán	14	Cerro de Oro	9	Septiembre	2023-09-24T00:00:00	2024-11-08T08:00:00	2	Temperatura media	20.7
174346	7	Sololá	719	Santiago Atitlán	14	Cerro de Oro	9	Septiembre	2023-09-24T00:00:00	2024-11-08T08:00:00	4	Temperatura máxima	20.8
174347	7	Sololá	719	Santiago Atitlán	14	Cerro de Oro	9	Septiembre	2023-09-24T00:00:00	2024-11-08T08:00:00	3	Temperatura mínima	18.7
174348	7	Sololá	719	Santiago Atitlán	14	Cerro de Oro	9	Septiembre	2023-09-24T00:00:00	2024-11-08T08:00:00	5	Humedad	80
174349	7	Sololá	719	Santiago Atitlán	14	Cerro de Oro	9	Septiembre	2023-09-24T00:00:00	2024-11-08T08:00:00	6	Velocidad del viento	3.2
174350	7	Sololá	719	Santiago Atitlán	14	Cerro de Oro	9	Septiembre	2023-09-24T00:00:00	2024-11-08T08:00:00	7	Dirección del viento	3.22
174351	7	Sololá	719	Santiago Atitlán	14	Cerro de Oro	9	Septiembre	2023-09-24T00:00:00	2024-11-08T08:00:00	1	Precipitación	0
174352	7	Sololá	719	Santiago Atitlán	14	Cerro de Oro	9	Septiembre	2023-09-24T00:00:00	2024-11-08T08:00:00	8	Radiación solar	235
174353	7	Sololá	719	Santiago Atitlán	14	Cerro de Oro	9	Septiembre	2023-09-24T00:00:00	2024-11-08T09:00:00	2	Temperatura media	21.2
174354	7	Sololá	719	Santiago Atitlán	14	Cerro de Oro	9	Septiembre	2023-09-24T00:00:00	2024-11-08T09:00:00	4	Temperatura máxima	21.2
174355	7	Sololá	719	Santiago Atitlán	14	Cerro de Oro	9	Septiembre	2023-09-24T00:00:00	2024-11-08T09:00:00	3	Temperatura mínima	20.6
174356	7	Sololá	719	Santiago Atitlán	14	Cerro de Oro	9	Septiembre	2023-09-24T00:00:00	2024-11-08T09:00:00	5	Humedad	78
174357	7	Sololá	719	Santiago Atitlán	14	Cerro de Oro	9	Septiembre	2023-09-24T00:00:00	2024-11-08T09:00:00	6	Velocidad del viento	3.2
174358	7	Sololá	719	Santiago Atitlán	14	Cerro de Oro	9	Septiembre	2023-09-24T00:00:00	2024-11-08T09:00:00	7	Dirección del viento	3.22
174359	7	Sololá	719	Santiago Atitlán	14	Cerro de Oro	9	Septiembre	2023-09-24T00:00:00	2024-11-08T09:00:00	1	Precipitación	0
174360	7	Sololá	719	Santiago Atitlán	14	Cerro de Oro	9	Septiembre	2023-09-24T00:00:00	2024-11-08T09:00:00	8	Radiación solar	308
174361	7	Sololá	719	Santiago Atitlán	14	Cerro de Oro	9	Septiembre	2023-09-24T00:00:00	2024-11-08T10:00:00	2	Temperatura media	23.1
174362	7	Sololá	719	Santiago Atitlán	14	Cerro de Oro	9	Septiembre	2023-09-24T00:00:00	2024-11-08T10:00:00	4	Temperatura máxima	23.4
174363	7	Sololá	719	Santiago Atitlán	14	Cerro de Oro	9	Septiembre	2023-09-24T00:00:00	2024-11-08T10:00:00	3	Temperatura mínima	21.2
174364	7	Sololá	719	Santiago Atitlán	14	Cerro de Oro	9	Septiembre	2023-09-24T00:00:00	2024-11-08T10:00:00	5	Humedad	69
174365	7	Sololá	719	Santiago Atitlán	14	Cerro de Oro	9	Septiembre	2023-09-24T00:00:00	2024-11-08T10:00:00	6	Velocidad del viento	4.8
174366	7	Sololá	719	Santiago Atitlán	14	Cerro de Oro	9	Septiembre	2023-09-24T00:00:00	2024-11-08T10:00:00	7	Dirección del viento	4.83
174367	7	Sololá	719	Santiago Atitlán	14	Cerro de Oro	9	Septiembre	2023-09-24T00:00:00	2024-11-08T10:00:00	1	Precipitación	0
174368	7	Sololá	719	Santiago Atitlán	14	Cerro de Oro	9	Septiembre	2023-09-24T00:00:00	2024-11-08T10:00:00	8	Radiación solar	598
174369	7	Sololá	719	Santiago Atitlán	14	Cerro de Oro	9	Septiembre	2023-09-24T00:00:00	2024-11-08T11:00:00	2	Temperatura media	23.8
174370	7	Sololá	719	Santiago Atitlán	14	Cerro de Oro	9	Septiembre	2023-09-24T00:00:00	2024-11-08T11:00:00	4	Temperatura máxima	24.2
174371	7	Sololá	719	Santiago Atitlán	14	Cerro de Oro	9	Septiembre	2023-09-24T00:00:00	2024-11-08T11:00:00	3	Temperatura mínima	22.7
174372	7	Sololá	719	Santiago Atitlán	14	Cerro de Oro	9	Septiembre	2023-09-24T00:00:00	2024-11-08T11:00:00	5	Humedad	72
174373	7	Sololá	719	Santiago Atitlán	14	Cerro de Oro	9	Septiembre	2023-09-24T00:00:00	2024-11-08T11:00:00	6	Velocidad del viento	8
174374	7	Sololá	719	Santiago Atitlán	14	Cerro de Oro	9	Septiembre	2023-09-24T00:00:00	2024-11-08T11:00:00	7	Dirección del viento	8.05
174375	7	Sololá	719	Santiago Atitlán	14	Cerro de Oro	9	Septiembre	2023-09-24T00:00:00	2024-11-08T11:00:00	1	Precipitación	0
174376	7	Sololá	719	Santiago Atitlán	14	Cerro de Oro	9	Septiembre	2023-09-24T00:00:00	2024-11-08T11:00:00	8	Radiación solar	742
174377	7	Sololá	719	Santiago Atitlán	14	Cerro de Oro	9	Septiembre	2023-09-24T00:00:00	2024-11-08T12:00:00	2	Temperatura media	23.4
174378	7	Sololá	719	Santiago Atitlán	14	Cerro de Oro	9	Septiembre	2023-09-24T00:00:00	2024-11-08T12:00:00	4	Temperatura máxima	23.9
174379	7	Sololá	719	Santiago Atitlán	14	Cerro de Oro	9	Septiembre	2023-09-24T00:00:00	2024-11-08T12:00:00	3	Temperatura mínima	22.9
174380	7	Sololá	719	Santiago Atitlán	14	Cerro de Oro	9	Septiembre	2023-09-24T00:00:00	2024-11-08T12:00:00	5	Humedad	75
174381	7	Sololá	719	Santiago Atitlán	14	Cerro de Oro	9	Septiembre	2023-09-24T00:00:00	2024-11-08T12:00:00	6	Velocidad del viento	12.9
174382	7	Sololá	719	Santiago Atitlán	14	Cerro de Oro	9	Septiembre	2023-09-24T00:00:00	2024-11-08T12:00:00	7	Dirección del viento	12.87
174383	7	Sololá	719	Santiago Atitlán	14	Cerro de Oro	9	Septiembre	2023-09-24T00:00:00	2024-11-08T12:00:00	1	Precipitación	0
174384	7	Sololá	719	Santiago Atitlán	14	Cerro de Oro	9	Septiembre	2023-09-24T00:00:00	2024-11-08T12:00:00	8	Radiación solar	951
174385	7	Sololá	719	Santiago Atitlán	14	Cerro de Oro	9	Septiembre	2023-09-24T00:00:00	2024-11-08T13:00:00	2	Temperatura media	22.4
174386	7	Sololá	719	Santiago Atitlán	14	Cerro de Oro	9	Septiembre	2023-09-24T00:00:00	2024-11-08T13:00:00	4	Temperatura máxima	23.9
174387	7	Sololá	719	Santiago Atitlán	14	Cerro de Oro	9	Septiembre	2023-09-24T00:00:00	2024-11-08T13:00:00	3	Temperatura mínima	22.4
174388	7	Sololá	719	Santiago Atitlán	14	Cerro de Oro	9	Septiembre	2023-09-24T00:00:00	2024-11-08T13:00:00	5	Humedad	77
174389	7	Sololá	719	Santiago Atitlán	14	Cerro de Oro	9	Septiembre	2023-09-24T00:00:00	2024-11-08T13:00:00	6	Velocidad del viento	11.3
174390	7	Sololá	719	Santiago Atitlán	14	Cerro de Oro	9	Septiembre	2023-09-24T00:00:00	2024-11-08T13:00:00	7	Dirección del viento	11.27
174391	7	Sololá	719	Santiago Atitlán	14	Cerro de Oro	9	Septiembre	2023-09-24T00:00:00	2024-11-08T13:00:00	1	Precipitación	0
174392	7	Sololá	719	Santiago Atitlán	14	Cerro de Oro	9	Septiembre	2023-09-24T00:00:00	2024-11-08T13:00:00	8	Radiación solar	400
174393	7	Sololá	719	Santiago Atitlán	14	Cerro de Oro	9	Septiembre	2023-09-24T00:00:00	2024-11-08T14:00:00	2	Temperatura media	22.1
174394	7	Sololá	719	Santiago Atitlán	14	Cerro de Oro	9	Septiembre	2023-09-24T00:00:00	2024-11-08T14:00:00	4	Temperatura máxima	22.4
174395	7	Sololá	719	Santiago Atitlán	14	Cerro de Oro	9	Septiembre	2023-09-24T00:00:00	2024-11-08T14:00:00	3	Temperatura mínima	21.9
174396	7	Sololá	719	Santiago Atitlán	14	Cerro de Oro	9	Septiembre	2023-09-24T00:00:00	2024-11-08T14:00:00	5	Humedad	81
174397	7	Sololá	719	Santiago Atitlán	14	Cerro de Oro	9	Septiembre	2023-09-24T00:00:00	2024-11-08T14:00:00	6	Velocidad del viento	8
174398	7	Sololá	719	Santiago Atitlán	14	Cerro de Oro	9	Septiembre	2023-09-24T00:00:00	2024-11-08T14:00:00	7	Dirección del viento	8.05
174399	7	Sololá	719	Santiago Atitlán	14	Cerro de Oro	9	Septiembre	2023-09-24T00:00:00	2024-11-08T14:00:00	1	Precipitación	0
174400	7	Sololá	719	Santiago Atitlán	14	Cerro de Oro	9	Septiembre	2023-09-24T00:00:00	2024-11-08T14:00:00	8	Radiación solar	165
174401	7	Sololá	719	Santiago Atitlán	14	Cerro de Oro	9	Septiembre	2023-09-24T00:00:00	2024-11-08T15:00:00	2	Temperatura media	20.9
174402	7	Sololá	719	Santiago Atitlán	14	Cerro de Oro	9	Septiembre	2023-09-24T00:00:00	2024-11-08T15:00:00	4	Temperatura máxima	22.1
174403	7	Sololá	719	Santiago Atitlán	14	Cerro de Oro	9	Septiembre	2023-09-24T00:00:00	2024-11-08T15:00:00	3	Temperatura mínima	20.4
174404	7	Sololá	719	Santiago Atitlán	14	Cerro de Oro	9	Septiembre	2023-09-24T00:00:00	2024-11-08T15:00:00	5	Humedad	87
174405	7	Sololá	719	Santiago Atitlán	14	Cerro de Oro	9	Septiembre	2023-09-24T00:00:00	2024-11-08T15:00:00	6	Velocidad del viento	4.8
174406	7	Sololá	719	Santiago Atitlán	14	Cerro de Oro	9	Septiembre	2023-09-24T00:00:00	2024-11-08T15:00:00	7	Dirección del viento	4.83
174407	7	Sololá	719	Santiago Atitlán	14	Cerro de Oro	9	Septiembre	2023-09-24T00:00:00	2024-11-08T15:00:00	1	Precipitación	0.6
174408	7	Sololá	719	Santiago Atitlán	14	Cerro de Oro	9	Septiembre	2023-09-24T00:00:00	2024-11-08T15:00:00	8	Radiación solar	152
174409	7	Sololá	719	Santiago Atitlán	14	Cerro de Oro	9	Septiembre	2023-09-24T00:00:00	2024-11-08T16:00:00	2	Temperatura media	21.6
174410	7	Sololá	719	Santiago Atitlán	14	Cerro de Oro	9	Septiembre	2023-09-24T00:00:00	2024-11-08T16:00:00	4	Temperatura máxima	22.2
174411	7	Sololá	719	Santiago Atitlán	14	Cerro de Oro	9	Septiembre	2023-09-24T00:00:00	2024-11-08T16:00:00	3	Temperatura mínima	20.9
174412	7	Sololá	719	Santiago Atitlán	14	Cerro de Oro	9	Septiembre	2023-09-24T00:00:00	2024-11-08T16:00:00	5	Humedad	83
174413	7	Sololá	719	Santiago Atitlán	14	Cerro de Oro	9	Septiembre	2023-09-24T00:00:00	2024-11-08T16:00:00	6	Velocidad del viento	4.8
174414	7	Sololá	719	Santiago Atitlán	14	Cerro de Oro	9	Septiembre	2023-09-24T00:00:00	2024-11-08T16:00:00	7	Dirección del viento	4.83
174415	7	Sololá	719	Santiago Atitlán	14	Cerro de Oro	9	Septiembre	2023-09-24T00:00:00	2024-11-08T16:00:00	1	Precipitación	0
174416	7	Sololá	719	Santiago Atitlán	14	Cerro de Oro	9	Septiembre	2023-09-24T00:00:00	2024-11-08T16:00:00	8	Radiación solar	286
174417	7	Sololá	719	Santiago Atitlán	14	Cerro de Oro	9	Septiembre	2023-09-24T00:00:00	2024-11-08T17:00:00	2	Temperatura media	20.9
174418	7	Sololá	719	Santiago Atitlán	14	Cerro de Oro	9	Septiembre	2023-09-24T00:00:00	2024-11-08T17:00:00	4	Temperatura máxima	21.6
174419	7	Sololá	719	Santiago Atitlán	14	Cerro de Oro	9	Septiembre	2023-09-24T00:00:00	2024-11-08T17:00:00	3	Temperatura mínima	20.8
174420	7	Sololá	719	Santiago Atitlán	14	Cerro de Oro	9	Septiembre	2023-09-24T00:00:00	2024-11-08T17:00:00	5	Humedad	83
174421	7	Sololá	719	Santiago Atitlán	14	Cerro de Oro	9	Septiembre	2023-09-24T00:00:00	2024-11-08T17:00:00	6	Velocidad del viento	3.2
174422	7	Sololá	719	Santiago Atitlán	14	Cerro de Oro	9	Septiembre	2023-09-24T00:00:00	2024-11-08T17:00:00	7	Dirección del viento	3.22
174423	7	Sololá	719	Santiago Atitlán	14	Cerro de Oro	9	Septiembre	2023-09-24T00:00:00	2024-11-08T17:00:00	1	Precipitación	0
174424	7	Sololá	719	Santiago Atitlán	14	Cerro de Oro	9	Septiembre	2023-09-24T00:00:00	2024-11-08T17:00:00	8	Radiación solar	84
174425	7	Sololá	719	Santiago Atitlán	14	Cerro de Oro	9	Septiembre	2023-09-24T00:00:00	2024-11-08T18:00:00	2	Temperatura media	20.2
174426	7	Sololá	719	Santiago Atitlán	14	Cerro de Oro	9	Septiembre	2023-09-24T00:00:00	2024-11-08T18:00:00	4	Temperatura máxima	20.9
174427	7	Sololá	719	Santiago Atitlán	14	Cerro de Oro	9	Septiembre	2023-09-24T00:00:00	2024-11-08T18:00:00	3	Temperatura mínima	20.1
174428	7	Sololá	719	Santiago Atitlán	14	Cerro de Oro	9	Septiembre	2023-09-24T00:00:00	2024-11-08T18:00:00	5	Humedad	84
174429	7	Sololá	719	Santiago Atitlán	14	Cerro de Oro	9	Septiembre	2023-09-24T00:00:00	2024-11-08T18:00:00	6	Velocidad del viento	3.2
174430	7	Sololá	719	Santiago Atitlán	14	Cerro de Oro	9	Septiembre	2023-09-24T00:00:00	2024-11-08T18:00:00	7	Dirección del viento	3.22
174431	7	Sololá	719	Santiago Atitlán	14	Cerro de Oro	9	Septiembre	2023-09-24T00:00:00	2024-11-08T18:00:00	1	Precipitación	0
174432	7	Sololá	719	Santiago Atitlán	14	Cerro de Oro	9	Septiembre	2023-09-24T00:00:00	2024-11-08T18:00:00	8	Radiación solar	6
174433	7	Sololá	719	Santiago Atitlán	14	Cerro de Oro	9	Septiembre	2023-09-24T00:00:00	2024-11-08T19:00:00	2	Temperatura media	19.8
174434	7	Sololá	719	Santiago Atitlán	14	Cerro de Oro	9	Septiembre	2023-09-24T00:00:00	2024-11-08T19:00:00	4	Temperatura máxima	20.2
174435	7	Sololá	719	Santiago Atitlán	14	Cerro de Oro	9	Septiembre	2023-09-24T00:00:00	2024-11-08T19:00:00	3	Temperatura mínima	19.8
174436	7	Sololá	719	Santiago Atitlán	14	Cerro de Oro	9	Septiembre	2023-09-24T00:00:00	2024-11-08T19:00:00	5	Humedad	86
174437	7	Sololá	719	Santiago Atitlán	14	Cerro de Oro	9	Septiembre	2023-09-24T00:00:00	2024-11-08T19:00:00	6	Velocidad del viento	9.7
174438	7	Sololá	719	Santiago Atitlán	14	Cerro de Oro	9	Septiembre	2023-09-24T00:00:00	2024-11-08T19:00:00	7	Dirección del viento	9.66
174439	7	Sololá	719	Santiago Atitlán	14	Cerro de Oro	9	Septiembre	2023-09-24T00:00:00	2024-11-08T19:00:00	1	Precipitación	0
174440	7	Sololá	719	Santiago Atitlán	14	Cerro de Oro	9	Septiembre	2023-09-24T00:00:00	2024-11-08T19:00:00	8	Radiación solar	0
174441	7	Sololá	719	Santiago Atitlán	14	Cerro de Oro	9	Septiembre	2023-09-24T00:00:00	2024-11-08T20:00:00	2	Temperatura media	18.6
174442	7	Sololá	719	Santiago Atitlán	14	Cerro de Oro	9	Septiembre	2023-09-24T00:00:00	2024-11-08T20:00:00	4	Temperatura máxima	19.8
174443	7	Sololá	719	Santiago Atitlán	14	Cerro de Oro	9	Septiembre	2023-09-24T00:00:00	2024-11-08T20:00:00	3	Temperatura mínima	18.6
174444	7	Sololá	719	Santiago Atitlán	14	Cerro de Oro	9	Septiembre	2023-09-24T00:00:00	2024-11-08T20:00:00	5	Humedad	90
174445	7	Sololá	719	Santiago Atitlán	14	Cerro de Oro	9	Septiembre	2023-09-24T00:00:00	2024-11-08T20:00:00	6	Velocidad del viento	4.8
174446	7	Sololá	719	Santiago Atitlán	14	Cerro de Oro	9	Septiembre	2023-09-24T00:00:00	2024-11-08T20:00:00	7	Dirección del viento	4.83
174447	7	Sololá	719	Santiago Atitlán	14	Cerro de Oro	9	Septiembre	2023-09-24T00:00:00	2024-11-08T20:00:00	1	Precipitación	0.8
174448	7	Sololá	719	Santiago Atitlán	14	Cerro de Oro	9	Septiembre	2023-09-24T00:00:00	2024-11-08T20:00:00	8	Radiación solar	0
174449	7	Sololá	719	Santiago Atitlán	14	Cerro de Oro	9	Septiembre	2023-09-24T00:00:00	2024-11-08T21:00:00	2	Temperatura media	18.8
174450	7	Sololá	719	Santiago Atitlán	14	Cerro de Oro	9	Septiembre	2023-09-24T00:00:00	2024-11-08T21:00:00	4	Temperatura máxima	18.9
174451	7	Sololá	719	Santiago Atitlán	14	Cerro de Oro	9	Septiembre	2023-09-24T00:00:00	2024-11-08T21:00:00	3	Temperatura mínima	18.5
174452	7	Sololá	719	Santiago Atitlán	14	Cerro de Oro	9	Septiembre	2023-09-24T00:00:00	2024-11-08T21:00:00	5	Humedad	90
174453	7	Sololá	719	Santiago Atitlán	14	Cerro de Oro	9	Septiembre	2023-09-24T00:00:00	2024-11-08T21:00:00	6	Velocidad del viento	4.8
174454	7	Sololá	719	Santiago Atitlán	14	Cerro de Oro	9	Septiembre	2023-09-24T00:00:00	2024-11-08T21:00:00	7	Dirección del viento	4.83
174455	7	Sololá	719	Santiago Atitlán	14	Cerro de Oro	9	Septiembre	2023-09-24T00:00:00	2024-11-08T21:00:00	1	Precipitación	0
174456	7	Sololá	719	Santiago Atitlán	14	Cerro de Oro	9	Septiembre	2023-09-24T00:00:00	2024-11-08T21:00:00	8	Radiación solar	0
174457	7	Sololá	719	Santiago Atitlán	14	Cerro de Oro	9	Septiembre	2023-09-24T00:00:00	2024-11-08T22:00:00	2	Temperatura media	18.4
174458	7	Sololá	719	Santiago Atitlán	14	Cerro de Oro	9	Septiembre	2023-09-24T00:00:00	2024-11-08T22:00:00	4	Temperatura máxima	18.8
174459	7	Sololá	719	Santiago Atitlán	14	Cerro de Oro	9	Septiembre	2023-09-24T00:00:00	2024-11-08T22:00:00	3	Temperatura mínima	18.4
174460	7	Sololá	719	Santiago Atitlán	14	Cerro de Oro	9	Septiembre	2023-09-24T00:00:00	2024-11-08T22:00:00	5	Humedad	91
174461	7	Sololá	719	Santiago Atitlán	14	Cerro de Oro	9	Septiembre	2023-09-24T00:00:00	2024-11-08T22:00:00	6	Velocidad del viento	3.2
174462	7	Sololá	719	Santiago Atitlán	14	Cerro de Oro	9	Septiembre	2023-09-24T00:00:00	2024-11-08T22:00:00	7	Dirección del viento	3.22
174463	7	Sololá	719	Santiago Atitlán	14	Cerro de Oro	9	Septiembre	2023-09-24T00:00:00	2024-11-08T22:00:00	1	Precipitación	1.8
174464	7	Sololá	719	Santiago Atitlán	14	Cerro de Oro	9	Septiembre	2023-09-24T00:00:00	2024-11-08T22:00:00	8	Radiación solar	0
174465	7	Sololá	719	Santiago Atitlán	14	Cerro de Oro	9	Septiembre	2023-09-24T00:00:00	2024-11-08T23:00:00	2	Temperatura media	18
174466	7	Sololá	719	Santiago Atitlán	14	Cerro de Oro	9	Septiembre	2023-09-24T00:00:00	2024-11-08T23:00:00	4	Temperatura máxima	18.4
174467	7	Sololá	719	Santiago Atitlán	14	Cerro de Oro	9	Septiembre	2023-09-24T00:00:00	2024-11-08T23:00:00	3	Temperatura mínima	18
174468	7	Sololá	719	Santiago Atitlán	14	Cerro de Oro	9	Septiembre	2023-09-24T00:00:00	2024-11-08T23:00:00	5	Humedad	93
174469	7	Sololá	719	Santiago Atitlán	14	Cerro de Oro	9	Septiembre	2023-09-24T00:00:00	2024-11-08T23:00:00	6	Velocidad del viento	1.6
174470	7	Sololá	719	Santiago Atitlán	14	Cerro de Oro	9	Septiembre	2023-09-24T00:00:00	2024-11-08T23:00:00	7	Dirección del viento	1.61
174471	7	Sololá	719	Santiago Atitlán	14	Cerro de Oro	9	Septiembre	2023-09-24T00:00:00	2024-11-08T23:00:00	1	Precipitación	0.4
174472	7	Sololá	719	Santiago Atitlán	14	Cerro de Oro	9	Septiembre	2023-09-24T00:00:00	2024-11-08T23:00:00	8	Radiación solar	0
174473	7	Sololá	719	Santiago Atitlán	14	Cerro de Oro	9	Septiembre	2023-09-25T00:00:00	2024-11-08T00:00:00	2	Temperatura media	17.8
174474	7	Sololá	719	Santiago Atitlán	14	Cerro de Oro	9	Septiembre	2023-09-25T00:00:00	2024-11-08T00:00:00	4	Temperatura máxima	18.1
174475	7	Sololá	719	Santiago Atitlán	14	Cerro de Oro	9	Septiembre	2023-09-25T00:00:00	2024-11-08T00:00:00	3	Temperatura mínima	17.8
174476	7	Sololá	719	Santiago Atitlán	14	Cerro de Oro	9	Septiembre	2023-09-25T00:00:00	2024-11-08T00:00:00	5	Humedad	94
174477	7	Sololá	719	Santiago Atitlán	14	Cerro de Oro	9	Septiembre	2023-09-25T00:00:00	2024-11-08T00:00:00	6	Velocidad del viento	1.6
174478	7	Sololá	719	Santiago Atitlán	14	Cerro de Oro	9	Septiembre	2023-09-25T00:00:00	2024-11-08T00:00:00	7	Dirección del viento	1.61
174479	7	Sololá	719	Santiago Atitlán	14	Cerro de Oro	9	Septiembre	2023-09-25T00:00:00	2024-11-08T00:00:00	1	Precipitación	4.6
174480	7	Sololá	719	Santiago Atitlán	14	Cerro de Oro	9	Septiembre	2023-09-25T00:00:00	2024-11-08T00:00:00	8	Radiación solar	0
174481	7	Sololá	719	Santiago Atitlán	14	Cerro de Oro	9	Septiembre	2023-09-25T00:00:00	2024-11-08T01:00:00	2	Temperatura media	17.6
174482	7	Sololá	719	Santiago Atitlán	14	Cerro de Oro	9	Septiembre	2023-09-25T00:00:00	2024-11-08T01:00:00	4	Temperatura máxima	17.8
174483	7	Sololá	719	Santiago Atitlán	14	Cerro de Oro	9	Septiembre	2023-09-25T00:00:00	2024-11-08T01:00:00	3	Temperatura mínima	17.5
174484	7	Sololá	719	Santiago Atitlán	14	Cerro de Oro	9	Septiembre	2023-09-25T00:00:00	2024-11-08T01:00:00	5	Humedad	94
174485	7	Sololá	719	Santiago Atitlán	14	Cerro de Oro	9	Septiembre	2023-09-25T00:00:00	2024-11-08T01:00:00	6	Velocidad del viento	1.6
174486	7	Sololá	719	Santiago Atitlán	14	Cerro de Oro	9	Septiembre	2023-09-25T00:00:00	2024-11-08T01:00:00	7	Dirección del viento	1.61
174487	7	Sololá	719	Santiago Atitlán	14	Cerro de Oro	9	Septiembre	2023-09-25T00:00:00	2024-11-08T01:00:00	1	Precipitación	3.6
174488	7	Sololá	719	Santiago Atitlán	14	Cerro de Oro	9	Septiembre	2023-09-25T00:00:00	2024-11-08T01:00:00	8	Radiación solar	0
174489	7	Sololá	719	Santiago Atitlán	14	Cerro de Oro	9	Septiembre	2023-09-25T00:00:00	2024-11-08T02:00:00	2	Temperatura media	17.2
174490	7	Sololá	719	Santiago Atitlán	14	Cerro de Oro	9	Septiembre	2023-09-25T00:00:00	2024-11-08T02:00:00	4	Temperatura máxima	17.6
174491	7	Sololá	719	Santiago Atitlán	14	Cerro de Oro	9	Septiembre	2023-09-25T00:00:00	2024-11-08T02:00:00	3	Temperatura mínima	17.2
174492	7	Sololá	719	Santiago Atitlán	14	Cerro de Oro	9	Septiembre	2023-09-25T00:00:00	2024-11-08T02:00:00	5	Humedad	94
174493	7	Sololá	719	Santiago Atitlán	14	Cerro de Oro	9	Septiembre	2023-09-25T00:00:00	2024-11-08T02:00:00	6	Velocidad del viento	3.2
174494	7	Sololá	719	Santiago Atitlán	14	Cerro de Oro	9	Septiembre	2023-09-25T00:00:00	2024-11-08T02:00:00	7	Dirección del viento	3.22
174495	7	Sololá	719	Santiago Atitlán	14	Cerro de Oro	9	Septiembre	2023-09-25T00:00:00	2024-11-08T02:00:00	1	Precipitación	7
174496	7	Sololá	719	Santiago Atitlán	14	Cerro de Oro	9	Septiembre	2023-09-25T00:00:00	2024-11-08T02:00:00	8	Radiación solar	0
174497	7	Sololá	719	Santiago Atitlán	14	Cerro de Oro	9	Septiembre	2023-09-25T00:00:00	2024-11-08T03:00:00	2	Temperatura media	16.9
174498	7	Sololá	719	Santiago Atitlán	14	Cerro de Oro	9	Septiembre	2023-09-25T00:00:00	2024-11-08T03:00:00	4	Temperatura máxima	17.3
174499	7	Sololá	719	Santiago Atitlán	14	Cerro de Oro	9	Septiembre	2023-09-25T00:00:00	2024-11-08T03:00:00	3	Temperatura mínima	16.8
174500	7	Sololá	719	Santiago Atitlán	14	Cerro de Oro	9	Septiembre	2023-09-25T00:00:00	2024-11-08T03:00:00	5	Humedad	94
174501	7	Sololá	719	Santiago Atitlán	14	Cerro de Oro	9	Septiembre	2023-09-25T00:00:00	2024-11-08T03:00:00	6	Velocidad del viento	3.2
174502	7	Sololá	719	Santiago Atitlán	14	Cerro de Oro	9	Septiembre	2023-09-25T00:00:00	2024-11-08T03:00:00	7	Dirección del viento	3.22
174503	7	Sololá	719	Santiago Atitlán	14	Cerro de Oro	9	Septiembre	2023-09-25T00:00:00	2024-11-08T03:00:00	1	Precipitación	1.4
174504	7	Sololá	719	Santiago Atitlán	14	Cerro de Oro	9	Septiembre	2023-09-25T00:00:00	2024-11-08T03:00:00	8	Radiación solar	0
174505	7	Sololá	719	Santiago Atitlán	14	Cerro de Oro	9	Septiembre	2023-09-25T00:00:00	2024-11-08T04:00:00	2	Temperatura media	17.1
174506	7	Sololá	719	Santiago Atitlán	14	Cerro de Oro	9	Septiembre	2023-09-25T00:00:00	2024-11-08T04:00:00	4	Temperatura máxima	17.2
174507	7	Sololá	719	Santiago Atitlán	14	Cerro de Oro	9	Septiembre	2023-09-25T00:00:00	2024-11-08T04:00:00	3	Temperatura mínima	16.8
174508	7	Sololá	719	Santiago Atitlán	14	Cerro de Oro	9	Septiembre	2023-09-25T00:00:00	2024-11-08T04:00:00	5	Humedad	93
174509	7	Sololá	719	Santiago Atitlán	14	Cerro de Oro	9	Septiembre	2023-09-25T00:00:00	2024-11-08T04:00:00	6	Velocidad del viento	4.8
174510	7	Sololá	719	Santiago Atitlán	14	Cerro de Oro	9	Septiembre	2023-09-25T00:00:00	2024-11-08T04:00:00	7	Dirección del viento	4.83
174511	7	Sololá	719	Santiago Atitlán	14	Cerro de Oro	9	Septiembre	2023-09-25T00:00:00	2024-11-08T04:00:00	1	Precipitación	0
174512	7	Sololá	719	Santiago Atitlán	14	Cerro de Oro	9	Septiembre	2023-09-25T00:00:00	2024-11-08T04:00:00	8	Radiación solar	0
174513	7	Sololá	719	Santiago Atitlán	14	Cerro de Oro	9	Septiembre	2023-09-25T00:00:00	2024-11-08T05:00:00	2	Temperatura media	17.1
174514	7	Sololá	719	Santiago Atitlán	14	Cerro de Oro	9	Septiembre	2023-09-25T00:00:00	2024-11-08T05:00:00	4	Temperatura máxima	17.2
174515	7	Sololá	719	Santiago Atitlán	14	Cerro de Oro	9	Septiembre	2023-09-25T00:00:00	2024-11-08T05:00:00	3	Temperatura mínima	16.9
174516	7	Sololá	719	Santiago Atitlán	14	Cerro de Oro	9	Septiembre	2023-09-25T00:00:00	2024-11-08T05:00:00	5	Humedad	92
174517	7	Sololá	719	Santiago Atitlán	14	Cerro de Oro	9	Septiembre	2023-09-25T00:00:00	2024-11-08T05:00:00	6	Velocidad del viento	4.8
174518	7	Sololá	719	Santiago Atitlán	14	Cerro de Oro	9	Septiembre	2023-09-25T00:00:00	2024-11-08T05:00:00	7	Dirección del viento	4.83
174519	7	Sololá	719	Santiago Atitlán	14	Cerro de Oro	9	Septiembre	2023-09-25T00:00:00	2024-11-08T05:00:00	1	Precipitación	0
174520	7	Sololá	719	Santiago Atitlán	14	Cerro de Oro	9	Septiembre	2023-09-25T00:00:00	2024-11-08T05:00:00	8	Radiación solar	0
174521	7	Sololá	719	Santiago Atitlán	14	Cerro de Oro	9	Septiembre	2023-09-25T00:00:00	2024-11-08T06:00:00	2	Temperatura media	17.1
174522	7	Sololá	719	Santiago Atitlán	14	Cerro de Oro	9	Septiembre	2023-09-25T00:00:00	2024-11-08T06:00:00	4	Temperatura máxima	17.4
174523	7	Sololá	719	Santiago Atitlán	14	Cerro de Oro	9	Septiembre	2023-09-25T00:00:00	2024-11-08T06:00:00	3	Temperatura mínima	17
174524	7	Sololá	719	Santiago Atitlán	14	Cerro de Oro	9	Septiembre	2023-09-25T00:00:00	2024-11-08T06:00:00	5	Humedad	92
174525	7	Sololá	719	Santiago Atitlán	14	Cerro de Oro	9	Septiembre	2023-09-25T00:00:00	2024-11-08T06:00:00	6	Velocidad del viento	3.2
174526	7	Sololá	719	Santiago Atitlán	14	Cerro de Oro	9	Septiembre	2023-09-25T00:00:00	2024-11-08T06:00:00	7	Dirección del viento	3.22
174527	7	Sololá	719	Santiago Atitlán	14	Cerro de Oro	9	Septiembre	2023-09-25T00:00:00	2024-11-08T06:00:00	1	Precipitación	0.4
174528	7	Sololá	719	Santiago Atitlán	14	Cerro de Oro	9	Septiembre	2023-09-25T00:00:00	2024-11-08T06:00:00	8	Radiación solar	0
174529	7	Sololá	719	Santiago Atitlán	14	Cerro de Oro	9	Septiembre	2023-09-25T00:00:00	2024-11-08T07:00:00	2	Temperatura media	17.3
174530	7	Sololá	719	Santiago Atitlán	14	Cerro de Oro	9	Septiembre	2023-09-25T00:00:00	2024-11-08T07:00:00	4	Temperatura máxima	17.3
174531	7	Sololá	719	Santiago Atitlán	14	Cerro de Oro	9	Septiembre	2023-09-25T00:00:00	2024-11-08T07:00:00	3	Temperatura mínima	16.8
174532	7	Sololá	719	Santiago Atitlán	14	Cerro de Oro	9	Septiembre	2023-09-25T00:00:00	2024-11-08T07:00:00	5	Humedad	91
174533	7	Sololá	719	Santiago Atitlán	14	Cerro de Oro	9	Septiembre	2023-09-25T00:00:00	2024-11-08T07:00:00	6	Velocidad del viento	4.8
174534	7	Sololá	719	Santiago Atitlán	14	Cerro de Oro	9	Septiembre	2023-09-25T00:00:00	2024-11-08T07:00:00	7	Dirección del viento	4.83
174535	7	Sololá	719	Santiago Atitlán	14	Cerro de Oro	9	Septiembre	2023-09-25T00:00:00	2024-11-08T07:00:00	1	Precipitación	0.8
174536	7	Sololá	719	Santiago Atitlán	14	Cerro de Oro	9	Septiembre	2023-09-25T00:00:00	2024-11-08T07:00:00	8	Radiación solar	48
174537	7	Sololá	719	Santiago Atitlán	14	Cerro de Oro	9	Septiembre	2023-09-25T00:00:00	2024-11-08T08:00:00	2	Temperatura media	20.6
174538	7	Sololá	719	Santiago Atitlán	14	Cerro de Oro	9	Septiembre	2023-09-25T00:00:00	2024-11-08T08:00:00	4	Temperatura máxima	20.6
174539	7	Sololá	719	Santiago Atitlán	14	Cerro de Oro	9	Septiembre	2023-09-25T00:00:00	2024-11-08T08:00:00	3	Temperatura mínima	17.3
174540	7	Sololá	719	Santiago Atitlán	14	Cerro de Oro	9	Septiembre	2023-09-25T00:00:00	2024-11-08T08:00:00	5	Humedad	76
174541	7	Sololá	719	Santiago Atitlán	14	Cerro de Oro	9	Septiembre	2023-09-25T00:00:00	2024-11-08T08:00:00	6	Velocidad del viento	1.6
174542	7	Sololá	719	Santiago Atitlán	14	Cerro de Oro	9	Septiembre	2023-09-25T00:00:00	2024-11-08T08:00:00	7	Dirección del viento	1.61
174543	7	Sololá	719	Santiago Atitlán	14	Cerro de Oro	9	Septiembre	2023-09-25T00:00:00	2024-11-08T08:00:00	1	Precipitación	0
174544	7	Sololá	719	Santiago Atitlán	14	Cerro de Oro	9	Septiembre	2023-09-25T00:00:00	2024-11-08T08:00:00	8	Radiación solar	227
174545	7	Sololá	719	Santiago Atitlán	14	Cerro de Oro	9	Septiembre	2023-09-25T00:00:00	2024-11-08T09:00:00	2	Temperatura media	21.7
174546	7	Sololá	719	Santiago Atitlán	14	Cerro de Oro	9	Septiembre	2023-09-25T00:00:00	2024-11-08T09:00:00	4	Temperatura máxima	21.9
174547	7	Sololá	719	Santiago Atitlán	14	Cerro de Oro	9	Septiembre	2023-09-25T00:00:00	2024-11-08T09:00:00	3	Temperatura mínima	20.6
174548	7	Sololá	719	Santiago Atitlán	14	Cerro de Oro	9	Septiembre	2023-09-25T00:00:00	2024-11-08T09:00:00	5	Humedad	71
174549	7	Sololá	719	Santiago Atitlán	14	Cerro de Oro	9	Septiembre	2023-09-25T00:00:00	2024-11-08T09:00:00	6	Velocidad del viento	1.6
174550	7	Sololá	719	Santiago Atitlán	14	Cerro de Oro	9	Septiembre	2023-09-25T00:00:00	2024-11-08T09:00:00	7	Dirección del viento	1.61
174551	7	Sololá	719	Santiago Atitlán	14	Cerro de Oro	9	Septiembre	2023-09-25T00:00:00	2024-11-08T09:00:00	1	Precipitación	0
174552	7	Sololá	719	Santiago Atitlán	14	Cerro de Oro	9	Septiembre	2023-09-25T00:00:00	2024-11-08T09:00:00	8	Radiación solar	426
174553	7	Sololá	719	Santiago Atitlán	14	Cerro de Oro	9	Septiembre	2023-09-25T00:00:00	2024-11-08T10:00:00	2	Temperatura media	22.8
174554	7	Sololá	719	Santiago Atitlán	14	Cerro de Oro	9	Septiembre	2023-09-25T00:00:00	2024-11-08T10:00:00	4	Temperatura máxima	22.8
174555	7	Sololá	719	Santiago Atitlán	14	Cerro de Oro	9	Septiembre	2023-09-25T00:00:00	2024-11-08T10:00:00	3	Temperatura mínima	21.7
174556	7	Sololá	719	Santiago Atitlán	14	Cerro de Oro	9	Septiembre	2023-09-25T00:00:00	2024-11-08T10:00:00	5	Humedad	67
174557	7	Sololá	719	Santiago Atitlán	14	Cerro de Oro	9	Septiembre	2023-09-25T00:00:00	2024-11-08T10:00:00	6	Velocidad del viento	4.8
174558	7	Sololá	719	Santiago Atitlán	14	Cerro de Oro	9	Septiembre	2023-09-25T00:00:00	2024-11-08T10:00:00	7	Dirección del viento	4.83
174559	7	Sololá	719	Santiago Atitlán	14	Cerro de Oro	9	Septiembre	2023-09-25T00:00:00	2024-11-08T10:00:00	1	Precipitación	0
174560	7	Sololá	719	Santiago Atitlán	14	Cerro de Oro	9	Septiembre	2023-09-25T00:00:00	2024-11-08T10:00:00	8	Radiación solar	615
174561	7	Sololá	719	Santiago Atitlán	14	Cerro de Oro	9	Septiembre	2023-09-25T00:00:00	2024-11-08T11:00:00	2	Temperatura media	22.3
174562	7	Sololá	719	Santiago Atitlán	14	Cerro de Oro	9	Septiembre	2023-09-25T00:00:00	2024-11-08T11:00:00	4	Temperatura máxima	22.8
174563	7	Sololá	719	Santiago Atitlán	14	Cerro de Oro	9	Septiembre	2023-09-25T00:00:00	2024-11-08T11:00:00	3	Temperatura mínima	21.7
174564	7	Sololá	719	Santiago Atitlán	14	Cerro de Oro	9	Septiembre	2023-09-25T00:00:00	2024-11-08T11:00:00	5	Humedad	73
174565	7	Sololá	719	Santiago Atitlán	14	Cerro de Oro	9	Septiembre	2023-09-25T00:00:00	2024-11-08T11:00:00	6	Velocidad del viento	4.8
174566	7	Sololá	719	Santiago Atitlán	14	Cerro de Oro	9	Septiembre	2023-09-25T00:00:00	2024-11-08T11:00:00	7	Dirección del viento	4.83
174567	7	Sololá	719	Santiago Atitlán	14	Cerro de Oro	9	Septiembre	2023-09-25T00:00:00	2024-11-08T11:00:00	1	Precipitación	0
174568	7	Sololá	719	Santiago Atitlán	14	Cerro de Oro	9	Septiembre	2023-09-25T00:00:00	2024-11-08T11:00:00	8	Radiación solar	465
174569	7	Sololá	719	Santiago Atitlán	14	Cerro de Oro	9	Septiembre	2023-09-25T00:00:00	2024-11-08T12:00:00	2	Temperatura media	20.6
174570	7	Sololá	719	Santiago Atitlán	14	Cerro de Oro	9	Septiembre	2023-09-25T00:00:00	2024-11-08T12:00:00	4	Temperatura máxima	23.4
174571	7	Sololá	719	Santiago Atitlán	14	Cerro de Oro	9	Septiembre	2023-09-25T00:00:00	2024-11-08T12:00:00	3	Temperatura mínima	20.6
174572	7	Sololá	719	Santiago Atitlán	14	Cerro de Oro	9	Septiembre	2023-09-25T00:00:00	2024-11-08T12:00:00	5	Humedad	87
174573	7	Sololá	719	Santiago Atitlán	14	Cerro de Oro	9	Septiembre	2023-09-25T00:00:00	2024-11-08T12:00:00	6	Velocidad del viento	11.3
174574	7	Sololá	719	Santiago Atitlán	14	Cerro de Oro	9	Septiembre	2023-09-25T00:00:00	2024-11-08T12:00:00	7	Dirección del viento	11.27
174575	7	Sololá	719	Santiago Atitlán	14	Cerro de Oro	9	Septiembre	2023-09-25T00:00:00	2024-11-08T12:00:00	1	Precipitación	0
174576	7	Sololá	719	Santiago Atitlán	14	Cerro de Oro	9	Septiembre	2023-09-25T00:00:00	2024-11-08T12:00:00	8	Radiación solar	473
174577	7	Sololá	719	Santiago Atitlán	14	Cerro de Oro	9	Septiembre	2023-09-25T00:00:00	2024-11-08T13:00:00	2	Temperatura media	21.1
174578	7	Sololá	719	Santiago Atitlán	14	Cerro de Oro	9	Septiembre	2023-09-25T00:00:00	2024-11-08T13:00:00	4	Temperatura máxima	21.7
174579	7	Sololá	719	Santiago Atitlán	14	Cerro de Oro	9	Septiembre	2023-09-25T00:00:00	2024-11-08T13:00:00	3	Temperatura mínima	20.4
174580	7	Sololá	719	Santiago Atitlán	14	Cerro de Oro	9	Septiembre	2023-09-25T00:00:00	2024-11-08T13:00:00	5	Humedad	82
174581	7	Sololá	719	Santiago Atitlán	14	Cerro de Oro	9	Septiembre	2023-09-25T00:00:00	2024-11-08T13:00:00	6	Velocidad del viento	12.9
174582	7	Sololá	719	Santiago Atitlán	14	Cerro de Oro	9	Septiembre	2023-09-25T00:00:00	2024-11-08T13:00:00	7	Dirección del viento	12.87
174583	7	Sololá	719	Santiago Atitlán	14	Cerro de Oro	9	Septiembre	2023-09-25T00:00:00	2024-11-08T13:00:00	1	Precipitación	0
174584	7	Sololá	719	Santiago Atitlán	14	Cerro de Oro	9	Septiembre	2023-09-25T00:00:00	2024-11-08T13:00:00	8	Radiación solar	686
174585	7	Sololá	719	Santiago Atitlán	14	Cerro de Oro	9	Septiembre	2023-09-25T00:00:00	2024-11-08T14:00:00	2	Temperatura media	21.2
174586	7	Sololá	719	Santiago Atitlán	14	Cerro de Oro	9	Septiembre	2023-09-25T00:00:00	2024-11-08T14:00:00	4	Temperatura máxima	21.6
174587	7	Sololá	719	Santiago Atitlán	14	Cerro de Oro	9	Septiembre	2023-09-25T00:00:00	2024-11-08T14:00:00	3	Temperatura mínima	20.6
174588	7	Sololá	719	Santiago Atitlán	14	Cerro de Oro	9	Septiembre	2023-09-25T00:00:00	2024-11-08T14:00:00	5	Humedad	79
174589	7	Sololá	719	Santiago Atitlán	14	Cerro de Oro	9	Septiembre	2023-09-25T00:00:00	2024-11-08T14:00:00	6	Velocidad del viento	9.7
174590	7	Sololá	719	Santiago Atitlán	14	Cerro de Oro	9	Septiembre	2023-09-25T00:00:00	2024-11-08T14:00:00	7	Dirección del viento	9.66
174591	7	Sololá	719	Santiago Atitlán	14	Cerro de Oro	9	Septiembre	2023-09-25T00:00:00	2024-11-08T14:00:00	1	Precipitación	0
174592	7	Sololá	719	Santiago Atitlán	14	Cerro de Oro	9	Septiembre	2023-09-25T00:00:00	2024-11-08T14:00:00	8	Radiación solar	395
174593	7	Sololá	719	Santiago Atitlán	14	Cerro de Oro	9	Septiembre	2023-09-25T00:00:00	2024-11-08T15:00:00	2	Temperatura media	20.8
174594	7	Sololá	719	Santiago Atitlán	14	Cerro de Oro	9	Septiembre	2023-09-25T00:00:00	2024-11-08T15:00:00	4	Temperatura máxima	21.7
174595	7	Sololá	719	Santiago Atitlán	14	Cerro de Oro	9	Septiembre	2023-09-25T00:00:00	2024-11-08T15:00:00	3	Temperatura mínima	20.8
174596	7	Sololá	719	Santiago Atitlán	14	Cerro de Oro	9	Septiembre	2023-09-25T00:00:00	2024-11-08T15:00:00	5	Humedad	82
174597	7	Sololá	719	Santiago Atitlán	14	Cerro de Oro	9	Septiembre	2023-09-25T00:00:00	2024-11-08T15:00:00	6	Velocidad del viento	3.2
174598	7	Sololá	719	Santiago Atitlán	14	Cerro de Oro	9	Septiembre	2023-09-25T00:00:00	2024-11-08T15:00:00	7	Dirección del viento	3.22
174599	7	Sololá	719	Santiago Atitlán	14	Cerro de Oro	9	Septiembre	2023-09-25T00:00:00	2024-11-08T15:00:00	1	Precipitación	0
174600	7	Sololá	719	Santiago Atitlán	14	Cerro de Oro	9	Septiembre	2023-09-25T00:00:00	2024-11-08T15:00:00	8	Radiación solar	211
174601	7	Sololá	719	Santiago Atitlán	14	Cerro de Oro	9	Septiembre	2023-09-25T00:00:00	2024-11-08T16:00:00	2	Temperatura media	20.6
174602	7	Sololá	719	Santiago Atitlán	14	Cerro de Oro	9	Septiembre	2023-09-25T00:00:00	2024-11-08T16:00:00	4	Temperatura máxima	20.9
174603	7	Sololá	719	Santiago Atitlán	14	Cerro de Oro	9	Septiembre	2023-09-25T00:00:00	2024-11-08T16:00:00	3	Temperatura mínima	20.6
174604	7	Sololá	719	Santiago Atitlán	14	Cerro de Oro	9	Septiembre	2023-09-25T00:00:00	2024-11-08T16:00:00	5	Humedad	84
174605	7	Sololá	719	Santiago Atitlán	14	Cerro de Oro	9	Septiembre	2023-09-25T00:00:00	2024-11-08T16:00:00	6	Velocidad del viento	3.2
174606	7	Sololá	719	Santiago Atitlán	14	Cerro de Oro	9	Septiembre	2023-09-25T00:00:00	2024-11-08T16:00:00	7	Dirección del viento	3.22
174607	7	Sololá	719	Santiago Atitlán	14	Cerro de Oro	9	Septiembre	2023-09-25T00:00:00	2024-11-08T16:00:00	1	Precipitación	0
174608	7	Sololá	719	Santiago Atitlán	14	Cerro de Oro	9	Septiembre	2023-09-25T00:00:00	2024-11-08T16:00:00	8	Radiación solar	113
174609	7	Sololá	719	Santiago Atitlán	14	Cerro de Oro	9	Septiembre	2023-09-25T00:00:00	2024-11-08T17:00:00	2	Temperatura media	20.2
174610	7	Sololá	719	Santiago Atitlán	14	Cerro de Oro	9	Septiembre	2023-09-25T00:00:00	2024-11-08T17:00:00	4	Temperatura máxima	20.6
174611	7	Sololá	719	Santiago Atitlán	14	Cerro de Oro	9	Septiembre	2023-09-25T00:00:00	2024-11-08T17:00:00	3	Temperatura mínima	20.1
174612	7	Sololá	719	Santiago Atitlán	14	Cerro de Oro	9	Septiembre	2023-09-25T00:00:00	2024-11-08T17:00:00	5	Humedad	87
174613	7	Sololá	719	Santiago Atitlán	14	Cerro de Oro	9	Septiembre	2023-09-25T00:00:00	2024-11-08T17:00:00	6	Velocidad del viento	3.2
174614	7	Sololá	719	Santiago Atitlán	14	Cerro de Oro	9	Septiembre	2023-09-25T00:00:00	2024-11-08T17:00:00	7	Dirección del viento	3.22
174615	7	Sololá	719	Santiago Atitlán	14	Cerro de Oro	9	Septiembre	2023-09-25T00:00:00	2024-11-08T17:00:00	1	Precipitación	0
174616	7	Sololá	719	Santiago Atitlán	14	Cerro de Oro	9	Septiembre	2023-09-25T00:00:00	2024-11-08T17:00:00	8	Radiación solar	75
174617	7	Sololá	719	Santiago Atitlán	14	Cerro de Oro	9	Septiembre	2023-09-25T00:00:00	2024-11-08T18:00:00	2	Temperatura media	19.6
174618	7	Sololá	719	Santiago Atitlán	14	Cerro de Oro	9	Septiembre	2023-09-25T00:00:00	2024-11-08T18:00:00	4	Temperatura máxima	20.3
174619	7	Sololá	719	Santiago Atitlán	14	Cerro de Oro	9	Septiembre	2023-09-25T00:00:00	2024-11-08T18:00:00	3	Temperatura mínima	19.6
174620	7	Sololá	719	Santiago Atitlán	14	Cerro de Oro	9	Septiembre	2023-09-25T00:00:00	2024-11-08T18:00:00	5	Humedad	87
174621	7	Sololá	719	Santiago Atitlán	14	Cerro de Oro	9	Septiembre	2023-09-25T00:00:00	2024-11-08T18:00:00	6	Velocidad del viento	3.2
174622	7	Sololá	719	Santiago Atitlán	14	Cerro de Oro	9	Septiembre	2023-09-25T00:00:00	2024-11-08T18:00:00	7	Dirección del viento	3.22
174623	7	Sololá	719	Santiago Atitlán	14	Cerro de Oro	9	Septiembre	2023-09-25T00:00:00	2024-11-08T18:00:00	1	Precipitación	0
174624	7	Sololá	719	Santiago Atitlán	14	Cerro de Oro	9	Septiembre	2023-09-25T00:00:00	2024-11-08T18:00:00	8	Radiación solar	25
174625	7	Sololá	719	Santiago Atitlán	14	Cerro de Oro	9	Septiembre	2023-09-25T00:00:00	2024-11-08T19:00:00	2	Temperatura media	19.3
174626	7	Sololá	719	Santiago Atitlán	14	Cerro de Oro	9	Septiembre	2023-09-25T00:00:00	2024-11-08T19:00:00	4	Temperatura máxima	19.7
174627	7	Sololá	719	Santiago Atitlán	14	Cerro de Oro	9	Septiembre	2023-09-25T00:00:00	2024-11-08T19:00:00	3	Temperatura mínima	19.2
174628	7	Sololá	719	Santiago Atitlán	14	Cerro de Oro	9	Septiembre	2023-09-25T00:00:00	2024-11-08T19:00:00	5	Humedad	87
174629	7	Sololá	719	Santiago Atitlán	14	Cerro de Oro	9	Septiembre	2023-09-25T00:00:00	2024-11-08T19:00:00	6	Velocidad del viento	1.6
174630	7	Sololá	719	Santiago Atitlán	14	Cerro de Oro	9	Septiembre	2023-09-25T00:00:00	2024-11-08T19:00:00	7	Dirección del viento	1.61
174631	7	Sololá	719	Santiago Atitlán	14	Cerro de Oro	9	Septiembre	2023-09-25T00:00:00	2024-11-08T19:00:00	1	Precipitación	0
174632	7	Sololá	719	Santiago Atitlán	14	Cerro de Oro	9	Septiembre	2023-09-25T00:00:00	2024-11-08T19:00:00	8	Radiación solar	0
174633	7	Sololá	719	Santiago Atitlán	14	Cerro de Oro	9	Septiembre	2023-09-25T00:00:00	2024-11-08T20:00:00	2	Temperatura media	18.9
174634	7	Sololá	719	Santiago Atitlán	14	Cerro de Oro	9	Septiembre	2023-09-25T00:00:00	2024-11-08T20:00:00	4	Temperatura máxima	19.4
174635	7	Sololá	719	Santiago Atitlán	14	Cerro de Oro	9	Septiembre	2023-09-25T00:00:00	2024-11-08T20:00:00	3	Temperatura mínima	18.9
174636	7	Sololá	719	Santiago Atitlán	14	Cerro de Oro	9	Septiembre	2023-09-25T00:00:00	2024-11-08T20:00:00	5	Humedad	86
174637	7	Sololá	719	Santiago Atitlán	14	Cerro de Oro	9	Septiembre	2023-09-25T00:00:00	2024-11-08T20:00:00	6	Velocidad del viento	3.2
174638	7	Sololá	719	Santiago Atitlán	14	Cerro de Oro	9	Septiembre	2023-09-25T00:00:00	2024-11-08T20:00:00	7	Dirección del viento	3.22
174639	7	Sololá	719	Santiago Atitlán	14	Cerro de Oro	9	Septiembre	2023-09-25T00:00:00	2024-11-08T20:00:00	1	Precipitación	0
174640	7	Sololá	719	Santiago Atitlán	14	Cerro de Oro	9	Septiembre	2023-09-25T00:00:00	2024-11-08T20:00:00	8	Radiación solar	0
174641	7	Sololá	719	Santiago Atitlán	14	Cerro de Oro	9	Septiembre	2023-09-25T00:00:00	2024-11-08T21:00:00	2	Temperatura media	18.5
174642	7	Sololá	719	Santiago Atitlán	14	Cerro de Oro	9	Septiembre	2023-09-25T00:00:00	2024-11-08T21:00:00	4	Temperatura máxima	19.3
174643	7	Sololá	719	Santiago Atitlán	14	Cerro de Oro	9	Septiembre	2023-09-25T00:00:00	2024-11-08T21:00:00	3	Temperatura mínima	18.4
174644	7	Sololá	719	Santiago Atitlán	14	Cerro de Oro	9	Septiembre	2023-09-25T00:00:00	2024-11-08T21:00:00	5	Humedad	87
174645	7	Sololá	719	Santiago Atitlán	14	Cerro de Oro	9	Septiembre	2023-09-25T00:00:00	2024-11-08T21:00:00	6	Velocidad del viento	4.8
174646	7	Sololá	719	Santiago Atitlán	14	Cerro de Oro	9	Septiembre	2023-09-25T00:00:00	2024-11-08T21:00:00	7	Dirección del viento	4.83
174647	7	Sololá	719	Santiago Atitlán	14	Cerro de Oro	9	Septiembre	2023-09-25T00:00:00	2024-11-08T21:00:00	1	Precipitación	0
174648	7	Sololá	719	Santiago Atitlán	14	Cerro de Oro	9	Septiembre	2023-09-25T00:00:00	2024-11-08T21:00:00	8	Radiación solar	0
174649	7	Sololá	719	Santiago Atitlán	14	Cerro de Oro	9	Septiembre	2023-09-25T00:00:00	2024-11-08T22:00:00	2	Temperatura media	18.7
174650	7	Sololá	719	Santiago Atitlán	14	Cerro de Oro	9	Septiembre	2023-09-25T00:00:00	2024-11-08T22:00:00	4	Temperatura máxima	19.1
174651	7	Sololá	719	Santiago Atitlán	14	Cerro de Oro	9	Septiembre	2023-09-25T00:00:00	2024-11-08T22:00:00	3	Temperatura mínima	18.4
174652	7	Sololá	719	Santiago Atitlán	14	Cerro de Oro	9	Septiembre	2023-09-25T00:00:00	2024-11-08T22:00:00	5	Humedad	88
174653	7	Sololá	719	Santiago Atitlán	14	Cerro de Oro	9	Septiembre	2023-09-25T00:00:00	2024-11-08T22:00:00	6	Velocidad del viento	4.8
174654	7	Sololá	719	Santiago Atitlán	14	Cerro de Oro	9	Septiembre	2023-09-25T00:00:00	2024-11-08T22:00:00	7	Dirección del viento	4.83
174655	7	Sololá	719	Santiago Atitlán	14	Cerro de Oro	9	Septiembre	2023-09-25T00:00:00	2024-11-08T22:00:00	1	Precipitación	0
174656	7	Sololá	719	Santiago Atitlán	14	Cerro de Oro	9	Septiembre	2023-09-25T00:00:00	2024-11-08T22:00:00	8	Radiación solar	0
174657	7	Sololá	719	Santiago Atitlán	14	Cerro de Oro	9	Septiembre	2023-09-25T00:00:00	2024-11-08T23:00:00	2	Temperatura media	19.2
174658	7	Sololá	719	Santiago Atitlán	14	Cerro de Oro	9	Septiembre	2023-09-25T00:00:00	2024-11-08T23:00:00	4	Temperatura máxima	19.3
174659	7	Sololá	719	Santiago Atitlán	14	Cerro de Oro	9	Septiembre	2023-09-25T00:00:00	2024-11-08T23:00:00	3	Temperatura mínima	18.7
174660	7	Sololá	719	Santiago Atitlán	14	Cerro de Oro	9	Septiembre	2023-09-25T00:00:00	2024-11-08T23:00:00	5	Humedad	88
174661	7	Sololá	719	Santiago Atitlán	14	Cerro de Oro	9	Septiembre	2023-09-25T00:00:00	2024-11-08T23:00:00	6	Velocidad del viento	3.2
174662	7	Sololá	719	Santiago Atitlán	14	Cerro de Oro	9	Septiembre	2023-09-25T00:00:00	2024-11-08T23:00:00	7	Dirección del viento	3.22
174663	7	Sololá	719	Santiago Atitlán	14	Cerro de Oro	9	Septiembre	2023-09-25T00:00:00	2024-11-08T23:00:00	1	Precipitación	0
174664	7	Sololá	719	Santiago Atitlán	14	Cerro de Oro	9	Septiembre	2023-09-25T00:00:00	2024-11-08T23:00:00	8	Radiación solar	0
174665	7	Sololá	719	Santiago Atitlán	14	Cerro de Oro	9	Septiembre	2023-09-26T00:00:00	2024-11-08T00:00:00	2	Temperatura media	19.1
174666	7	Sololá	719	Santiago Atitlán	14	Cerro de Oro	9	Septiembre	2023-09-26T00:00:00	2024-11-08T00:00:00	4	Temperatura máxima	19.3
174667	7	Sololá	719	Santiago Atitlán	14	Cerro de Oro	9	Septiembre	2023-09-26T00:00:00	2024-11-08T00:00:00	3	Temperatura mínima	19
174668	7	Sololá	719	Santiago Atitlán	14	Cerro de Oro	9	Septiembre	2023-09-26T00:00:00	2024-11-08T00:00:00	5	Humedad	89
174669	7	Sololá	719	Santiago Atitlán	14	Cerro de Oro	9	Septiembre	2023-09-26T00:00:00	2024-11-08T00:00:00	6	Velocidad del viento	4.8
174670	7	Sololá	719	Santiago Atitlán	14	Cerro de Oro	9	Septiembre	2023-09-26T00:00:00	2024-11-08T00:00:00	7	Dirección del viento	4.83
174671	7	Sololá	719	Santiago Atitlán	14	Cerro de Oro	9	Septiembre	2023-09-26T00:00:00	2024-11-08T00:00:00	1	Precipitación	0
174672	7	Sololá	719	Santiago Atitlán	14	Cerro de Oro	9	Septiembre	2023-09-26T00:00:00	2024-11-08T00:00:00	8	Radiación solar	0
174673	7	Sololá	719	Santiago Atitlán	14	Cerro de Oro	9	Septiembre	2023-09-26T00:00:00	2024-11-08T01:00:00	2	Temperatura media	18.6
174674	7	Sololá	719	Santiago Atitlán	14	Cerro de Oro	9	Septiembre	2023-09-26T00:00:00	2024-11-08T01:00:00	4	Temperatura máxima	19.1
174675	7	Sololá	719	Santiago Atitlán	14	Cerro de Oro	9	Septiembre	2023-09-26T00:00:00	2024-11-08T01:00:00	3	Temperatura mínima	18.6
174676	7	Sololá	719	Santiago Atitlán	14	Cerro de Oro	9	Septiembre	2023-09-26T00:00:00	2024-11-08T01:00:00	5	Humedad	86
174677	7	Sololá	719	Santiago Atitlán	14	Cerro de Oro	9	Septiembre	2023-09-26T00:00:00	2024-11-08T01:00:00	6	Velocidad del viento	3.2
174678	7	Sololá	719	Santiago Atitlán	14	Cerro de Oro	9	Septiembre	2023-09-26T00:00:00	2024-11-08T01:00:00	7	Dirección del viento	3.22
174679	7	Sololá	719	Santiago Atitlán	14	Cerro de Oro	9	Septiembre	2023-09-26T00:00:00	2024-11-08T01:00:00	1	Precipitación	0
174680	7	Sololá	719	Santiago Atitlán	14	Cerro de Oro	9	Septiembre	2023-09-26T00:00:00	2024-11-08T01:00:00	8	Radiación solar	0
174681	7	Sololá	719	Santiago Atitlán	14	Cerro de Oro	9	Septiembre	2023-09-26T00:00:00	2024-11-08T02:00:00	2	Temperatura media	18.6
174682	7	Sololá	719	Santiago Atitlán	14	Cerro de Oro	9	Septiembre	2023-09-26T00:00:00	2024-11-08T02:00:00	4	Temperatura máxima	18.9
174683	7	Sololá	719	Santiago Atitlán	14	Cerro de Oro	9	Septiembre	2023-09-26T00:00:00	2024-11-08T02:00:00	3	Temperatura mínima	18.2
174684	7	Sololá	719	Santiago Atitlán	14	Cerro de Oro	9	Septiembre	2023-09-26T00:00:00	2024-11-08T02:00:00	5	Humedad	89
174685	7	Sololá	719	Santiago Atitlán	14	Cerro de Oro	9	Septiembre	2023-09-26T00:00:00	2024-11-08T02:00:00	6	Velocidad del viento	3.2
174686	7	Sololá	719	Santiago Atitlán	14	Cerro de Oro	9	Septiembre	2023-09-26T00:00:00	2024-11-08T02:00:00	7	Dirección del viento	3.22
174687	7	Sololá	719	Santiago Atitlán	14	Cerro de Oro	9	Septiembre	2023-09-26T00:00:00	2024-11-08T02:00:00	1	Precipitación	0
174688	7	Sololá	719	Santiago Atitlán	14	Cerro de Oro	9	Septiembre	2023-09-26T00:00:00	2024-11-08T02:00:00	8	Radiación solar	0
174689	7	Sololá	719	Santiago Atitlán	14	Cerro de Oro	9	Septiembre	2023-09-26T00:00:00	2024-11-08T03:00:00	2	Temperatura media	18.1
174690	7	Sololá	719	Santiago Atitlán	14	Cerro de Oro	9	Septiembre	2023-09-26T00:00:00	2024-11-08T03:00:00	4	Temperatura máxima	18.7
174691	7	Sololá	719	Santiago Atitlán	14	Cerro de Oro	9	Septiembre	2023-09-26T00:00:00	2024-11-08T03:00:00	3	Temperatura mínima	18.1
174692	7	Sololá	719	Santiago Atitlán	14	Cerro de Oro	9	Septiembre	2023-09-26T00:00:00	2024-11-08T03:00:00	5	Humedad	90
174693	7	Sololá	719	Santiago Atitlán	14	Cerro de Oro	9	Septiembre	2023-09-26T00:00:00	2024-11-08T03:00:00	6	Velocidad del viento	4.8
174694	7	Sololá	719	Santiago Atitlán	14	Cerro de Oro	9	Septiembre	2023-09-26T00:00:00	2024-11-08T03:00:00	7	Dirección del viento	4.83
174695	7	Sololá	719	Santiago Atitlán	14	Cerro de Oro	9	Septiembre	2023-09-26T00:00:00	2024-11-08T03:00:00	1	Precipitación	0
174696	7	Sololá	719	Santiago Atitlán	14	Cerro de Oro	9	Septiembre	2023-09-26T00:00:00	2024-11-08T03:00:00	8	Radiación solar	0
174697	7	Sololá	719	Santiago Atitlán	14	Cerro de Oro	9	Septiembre	2023-09-26T00:00:00	2024-11-08T04:00:00	2	Temperatura media	18.2
174698	7	Sololá	719	Santiago Atitlán	14	Cerro de Oro	9	Septiembre	2023-09-26T00:00:00	2024-11-08T04:00:00	4	Temperatura máxima	18.3
174699	7	Sololá	719	Santiago Atitlán	14	Cerro de Oro	9	Septiembre	2023-09-26T00:00:00	2024-11-08T04:00:00	3	Temperatura mínima	17.9
174700	7	Sololá	719	Santiago Atitlán	14	Cerro de Oro	9	Septiembre	2023-09-26T00:00:00	2024-11-08T04:00:00	5	Humedad	87
174701	7	Sololá	719	Santiago Atitlán	14	Cerro de Oro	9	Septiembre	2023-09-26T00:00:00	2024-11-08T04:00:00	6	Velocidad del viento	3.2
174702	7	Sololá	719	Santiago Atitlán	14	Cerro de Oro	9	Septiembre	2023-09-26T00:00:00	2024-11-08T04:00:00	7	Dirección del viento	3.22
174703	7	Sololá	719	Santiago Atitlán	14	Cerro de Oro	9	Septiembre	2023-09-26T00:00:00	2024-11-08T04:00:00	1	Precipitación	0
174704	7	Sololá	719	Santiago Atitlán	14	Cerro de Oro	9	Septiembre	2023-09-26T00:00:00	2024-11-08T04:00:00	8	Radiación solar	0
174705	7	Sololá	719	Santiago Atitlán	14	Cerro de Oro	9	Septiembre	2023-09-26T00:00:00	2024-11-08T05:00:00	2	Temperatura media	17.8
174706	7	Sololá	719	Santiago Atitlán	14	Cerro de Oro	9	Septiembre	2023-09-26T00:00:00	2024-11-08T05:00:00	4	Temperatura máxima	18.4
174707	7	Sololá	719	Santiago Atitlán	14	Cerro de Oro	9	Septiembre	2023-09-26T00:00:00	2024-11-08T05:00:00	3	Temperatura mínima	17.8
174708	7	Sololá	719	Santiago Atitlán	14	Cerro de Oro	9	Septiembre	2023-09-26T00:00:00	2024-11-08T05:00:00	5	Humedad	86
174709	7	Sololá	719	Santiago Atitlán	14	Cerro de Oro	9	Septiembre	2023-09-26T00:00:00	2024-11-08T05:00:00	6	Velocidad del viento	4.8
174710	7	Sololá	719	Santiago Atitlán	14	Cerro de Oro	9	Septiembre	2023-09-26T00:00:00	2024-11-08T05:00:00	7	Dirección del viento	4.83
174711	7	Sololá	719	Santiago Atitlán	14	Cerro de Oro	9	Septiembre	2023-09-26T00:00:00	2024-11-08T05:00:00	1	Precipitación	0
174712	7	Sololá	719	Santiago Atitlán	14	Cerro de Oro	9	Septiembre	2023-09-26T00:00:00	2024-11-08T05:00:00	8	Radiación solar	0
174713	7	Sololá	719	Santiago Atitlán	14	Cerro de Oro	9	Septiembre	2023-09-26T00:00:00	2024-11-08T06:00:00	2	Temperatura media	17.8
174714	7	Sololá	719	Santiago Atitlán	14	Cerro de Oro	9	Septiembre	2023-09-26T00:00:00	2024-11-08T06:00:00	4	Temperatura máxima	17.9
174715	7	Sololá	719	Santiago Atitlán	14	Cerro de Oro	9	Septiembre	2023-09-26T00:00:00	2024-11-08T06:00:00	3	Temperatura mínima	17.6
174716	7	Sololá	719	Santiago Atitlán	14	Cerro de Oro	9	Septiembre	2023-09-26T00:00:00	2024-11-08T06:00:00	5	Humedad	87
174717	7	Sololá	719	Santiago Atitlán	14	Cerro de Oro	9	Septiembre	2023-09-26T00:00:00	2024-11-08T06:00:00	6	Velocidad del viento	3.2
174718	7	Sololá	719	Santiago Atitlán	14	Cerro de Oro	9	Septiembre	2023-09-26T00:00:00	2024-11-08T06:00:00	7	Dirección del viento	3.22
174719	7	Sololá	719	Santiago Atitlán	14	Cerro de Oro	9	Septiembre	2023-09-26T00:00:00	2024-11-08T06:00:00	1	Precipitación	0
174720	7	Sololá	719	Santiago Atitlán	14	Cerro de Oro	9	Septiembre	2023-09-26T00:00:00	2024-11-08T06:00:00	8	Radiación solar	0
174721	7	Sololá	719	Santiago Atitlán	14	Cerro de Oro	9	Septiembre	2023-09-26T00:00:00	2024-11-08T07:00:00	2	Temperatura media	19.7
174722	7	Sololá	719	Santiago Atitlán	14	Cerro de Oro	9	Septiembre	2023-09-26T00:00:00	2024-11-08T07:00:00	4	Temperatura máxima	19.7
174723	7	Sololá	719	Santiago Atitlán	14	Cerro de Oro	9	Septiembre	2023-09-26T00:00:00	2024-11-08T07:00:00	3	Temperatura mínima	17.8
174724	7	Sololá	719	Santiago Atitlán	14	Cerro de Oro	9	Septiembre	2023-09-26T00:00:00	2024-11-08T07:00:00	5	Humedad	79
174725	7	Sololá	719	Santiago Atitlán	14	Cerro de Oro	9	Septiembre	2023-09-26T00:00:00	2024-11-08T07:00:00	6	Velocidad del viento	4.8
174726	7	Sololá	719	Santiago Atitlán	14	Cerro de Oro	9	Septiembre	2023-09-26T00:00:00	2024-11-08T07:00:00	7	Dirección del viento	4.83
174727	7	Sololá	719	Santiago Atitlán	14	Cerro de Oro	9	Septiembre	2023-09-26T00:00:00	2024-11-08T07:00:00	1	Precipitación	0
174728	7	Sololá	719	Santiago Atitlán	14	Cerro de Oro	9	Septiembre	2023-09-26T00:00:00	2024-11-08T07:00:00	8	Radiación solar	60
174729	7	Sololá	719	Santiago Atitlán	14	Cerro de Oro	9	Septiembre	2023-09-26T00:00:00	2024-11-08T08:00:00	2	Temperatura media	21.2
174730	7	Sololá	719	Santiago Atitlán	14	Cerro de Oro	9	Septiembre	2023-09-26T00:00:00	2024-11-08T08:00:00	4	Temperatura máxima	21.2
174731	7	Sololá	719	Santiago Atitlán	14	Cerro de Oro	9	Septiembre	2023-09-26T00:00:00	2024-11-08T08:00:00	3	Temperatura mínima	19.7
174732	7	Sololá	719	Santiago Atitlán	14	Cerro de Oro	9	Septiembre	2023-09-26T00:00:00	2024-11-08T08:00:00	5	Humedad	73
174733	7	Sololá	719	Santiago Atitlán	14	Cerro de Oro	9	Septiembre	2023-09-26T00:00:00	2024-11-08T08:00:00	6	Velocidad del viento	3.2
174734	7	Sololá	719	Santiago Atitlán	14	Cerro de Oro	9	Septiembre	2023-09-26T00:00:00	2024-11-08T08:00:00	7	Dirección del viento	3.22
174735	7	Sololá	719	Santiago Atitlán	14	Cerro de Oro	9	Septiembre	2023-09-26T00:00:00	2024-11-08T08:00:00	1	Precipitación	0
174736	7	Sololá	719	Santiago Atitlán	14	Cerro de Oro	9	Septiembre	2023-09-26T00:00:00	2024-11-08T08:00:00	8	Radiación solar	225
174737	7	Sololá	719	Santiago Atitlán	14	Cerro de Oro	9	Septiembre	2023-09-26T00:00:00	2024-11-08T09:00:00	2	Temperatura media	22.4
174738	7	Sololá	719	Santiago Atitlán	14	Cerro de Oro	9	Septiembre	2023-09-26T00:00:00	2024-11-08T09:00:00	4	Temperatura máxima	22.5
174739	7	Sololá	719	Santiago Atitlán	14	Cerro de Oro	9	Septiembre	2023-09-26T00:00:00	2024-11-08T09:00:00	3	Temperatura mínima	21.2
174740	7	Sololá	719	Santiago Atitlán	14	Cerro de Oro	9	Septiembre	2023-09-26T00:00:00	2024-11-08T09:00:00	5	Humedad	71
174741	7	Sololá	719	Santiago Atitlán	14	Cerro de Oro	9	Septiembre	2023-09-26T00:00:00	2024-11-08T09:00:00	6	Velocidad del viento	1.6
174742	7	Sololá	719	Santiago Atitlán	14	Cerro de Oro	9	Septiembre	2023-09-26T00:00:00	2024-11-08T09:00:00	7	Dirección del viento	1.61
174743	7	Sololá	719	Santiago Atitlán	14	Cerro de Oro	9	Septiembre	2023-09-26T00:00:00	2024-11-08T09:00:00	1	Precipitación	0
174744	7	Sololá	719	Santiago Atitlán	14	Cerro de Oro	9	Septiembre	2023-09-26T00:00:00	2024-11-08T09:00:00	8	Radiación solar	473
174745	7	Sololá	719	Santiago Atitlán	14	Cerro de Oro	9	Septiembre	2023-09-26T00:00:00	2024-11-08T10:00:00	2	Temperatura media	22.4
174746	7	Sololá	719	Santiago Atitlán	14	Cerro de Oro	9	Septiembre	2023-09-26T00:00:00	2024-11-08T10:00:00	4	Temperatura máxima	23.1
174747	7	Sololá	719	Santiago Atitlán	14	Cerro de Oro	9	Septiembre	2023-09-26T00:00:00	2024-11-08T10:00:00	3	Temperatura mínima	22.1
174748	7	Sololá	719	Santiago Atitlán	14	Cerro de Oro	9	Septiembre	2023-09-26T00:00:00	2024-11-08T10:00:00	5	Humedad	74
174749	7	Sololá	719	Santiago Atitlán	14	Cerro de Oro	9	Septiembre	2023-09-26T00:00:00	2024-11-08T10:00:00	6	Velocidad del viento	4.8
174750	7	Sololá	719	Santiago Atitlán	14	Cerro de Oro	9	Septiembre	2023-09-26T00:00:00	2024-11-08T10:00:00	7	Dirección del viento	4.83
174751	7	Sololá	719	Santiago Atitlán	14	Cerro de Oro	9	Septiembre	2023-09-26T00:00:00	2024-11-08T10:00:00	1	Precipitación	0
174752	7	Sololá	719	Santiago Atitlán	14	Cerro de Oro	9	Septiembre	2023-09-26T00:00:00	2024-11-08T10:00:00	8	Radiación solar	696
174753	7	Sololá	719	Santiago Atitlán	14	Cerro de Oro	9	Septiembre	2023-09-26T00:00:00	2024-11-08T11:00:00	2	Temperatura media	24.3
174754	7	Sololá	719	Santiago Atitlán	14	Cerro de Oro	9	Septiembre	2023-09-26T00:00:00	2024-11-08T11:00:00	4	Temperatura máxima	24.3
174755	7	Sololá	719	Santiago Atitlán	14	Cerro de Oro	9	Septiembre	2023-09-26T00:00:00	2024-11-08T11:00:00	3	Temperatura mínima	22.4
174756	7	Sololá	719	Santiago Atitlán	14	Cerro de Oro	9	Septiembre	2023-09-26T00:00:00	2024-11-08T11:00:00	5	Humedad	77
174757	7	Sololá	719	Santiago Atitlán	14	Cerro de Oro	9	Septiembre	2023-09-26T00:00:00	2024-11-08T11:00:00	6	Velocidad del viento	4.8
174758	7	Sololá	719	Santiago Atitlán	14	Cerro de Oro	9	Septiembre	2023-09-26T00:00:00	2024-11-08T11:00:00	7	Dirección del viento	4.83
174759	7	Sololá	719	Santiago Atitlán	14	Cerro de Oro	9	Septiembre	2023-09-26T00:00:00	2024-11-08T11:00:00	1	Precipitación	0
174760	7	Sololá	719	Santiago Atitlán	14	Cerro de Oro	9	Septiembre	2023-09-26T00:00:00	2024-11-08T11:00:00	8	Radiación solar	833
174761	7	Sololá	719	Santiago Atitlán	14	Cerro de Oro	9	Septiembre	2023-09-26T00:00:00	2024-11-08T12:00:00	2	Temperatura media	24.3
174762	7	Sololá	719	Santiago Atitlán	14	Cerro de Oro	9	Septiembre	2023-09-26T00:00:00	2024-11-08T12:00:00	4	Temperatura máxima	25.1
174763	7	Sololá	719	Santiago Atitlán	14	Cerro de Oro	9	Septiembre	2023-09-26T00:00:00	2024-11-08T12:00:00	3	Temperatura mínima	23.7
174764	7	Sololá	719	Santiago Atitlán	14	Cerro de Oro	9	Septiembre	2023-09-26T00:00:00	2024-11-08T12:00:00	5	Humedad	76
174765	7	Sololá	719	Santiago Atitlán	14	Cerro de Oro	9	Septiembre	2023-09-26T00:00:00	2024-11-08T12:00:00	6	Velocidad del viento	6.4
174766	7	Sololá	719	Santiago Atitlán	14	Cerro de Oro	9	Septiembre	2023-09-26T00:00:00	2024-11-08T12:00:00	7	Dirección del viento	6.44
174767	7	Sololá	719	Santiago Atitlán	14	Cerro de Oro	9	Septiembre	2023-09-26T00:00:00	2024-11-08T12:00:00	1	Precipitación	0
174768	7	Sololá	719	Santiago Atitlán	14	Cerro de Oro	9	Septiembre	2023-09-26T00:00:00	2024-11-08T12:00:00	8	Radiación solar	908
174769	7	Sololá	719	Santiago Atitlán	14	Cerro de Oro	9	Septiembre	2023-09-26T00:00:00	2024-11-08T13:00:00	2	Temperatura media	23.8
174770	7	Sololá	719	Santiago Atitlán	14	Cerro de Oro	9	Septiembre	2023-09-26T00:00:00	2024-11-08T13:00:00	4	Temperatura máxima	24.7
174771	7	Sololá	719	Santiago Atitlán	14	Cerro de Oro	9	Septiembre	2023-09-26T00:00:00	2024-11-08T13:00:00	3	Temperatura mínima	23.8
174772	7	Sololá	719	Santiago Atitlán	14	Cerro de Oro	9	Septiembre	2023-09-26T00:00:00	2024-11-08T13:00:00	5	Humedad	76
174773	7	Sololá	719	Santiago Atitlán	14	Cerro de Oro	9	Septiembre	2023-09-26T00:00:00	2024-11-08T13:00:00	6	Velocidad del viento	11.3
174774	7	Sololá	719	Santiago Atitlán	14	Cerro de Oro	9	Septiembre	2023-09-26T00:00:00	2024-11-08T13:00:00	7	Dirección del viento	11.27
174775	7	Sololá	719	Santiago Atitlán	14	Cerro de Oro	9	Septiembre	2023-09-26T00:00:00	2024-11-08T13:00:00	1	Precipitación	0
174776	7	Sololá	719	Santiago Atitlán	14	Cerro de Oro	9	Septiembre	2023-09-26T00:00:00	2024-11-08T13:00:00	8	Radiación solar	778
174777	7	Sololá	719	Santiago Atitlán	14	Cerro de Oro	9	Septiembre	2023-09-26T00:00:00	2024-11-08T14:00:00	2	Temperatura media	22.3
174778	7	Sololá	719	Santiago Atitlán	14	Cerro de Oro	9	Septiembre	2023-09-26T00:00:00	2024-11-08T14:00:00	4	Temperatura máxima	23.8
174779	7	Sololá	719	Santiago Atitlán	14	Cerro de Oro	9	Septiembre	2023-09-26T00:00:00	2024-11-08T14:00:00	3	Temperatura mínima	21.7
174780	7	Sololá	719	Santiago Atitlán	14	Cerro de Oro	9	Septiembre	2023-09-26T00:00:00	2024-11-08T14:00:00	5	Humedad	84
174781	7	Sololá	719	Santiago Atitlán	14	Cerro de Oro	9	Septiembre	2023-09-26T00:00:00	2024-11-08T14:00:00	6	Velocidad del viento	11.3
174782	7	Sololá	719	Santiago Atitlán	14	Cerro de Oro	9	Septiembre	2023-09-26T00:00:00	2024-11-08T14:00:00	7	Dirección del viento	11.27
174783	7	Sololá	719	Santiago Atitlán	14	Cerro de Oro	9	Septiembre	2023-09-26T00:00:00	2024-11-08T14:00:00	1	Precipitación	0
174784	7	Sololá	719	Santiago Atitlán	14	Cerro de Oro	9	Septiembre	2023-09-26T00:00:00	2024-11-08T14:00:00	8	Radiación solar	187
174785	7	Sololá	719	Santiago Atitlán	14	Cerro de Oro	9	Septiembre	2023-09-26T00:00:00	2024-11-08T15:00:00	2	Temperatura media	22.1
174786	7	Sololá	719	Santiago Atitlán	14	Cerro de Oro	9	Septiembre	2023-09-26T00:00:00	2024-11-08T15:00:00	4	Temperatura máxima	22.9
174787	7	Sololá	719	Santiago Atitlán	14	Cerro de Oro	9	Septiembre	2023-09-26T00:00:00	2024-11-08T15:00:00	3	Temperatura mínima	21.5
174788	7	Sololá	719	Santiago Atitlán	14	Cerro de Oro	9	Septiembre	2023-09-26T00:00:00	2024-11-08T15:00:00	5	Humedad	87
174789	7	Sololá	719	Santiago Atitlán	14	Cerro de Oro	9	Septiembre	2023-09-26T00:00:00	2024-11-08T15:00:00	6	Velocidad del viento	8
174790	7	Sololá	719	Santiago Atitlán	14	Cerro de Oro	9	Septiembre	2023-09-26T00:00:00	2024-11-08T15:00:00	7	Dirección del viento	8.05
174791	7	Sololá	719	Santiago Atitlán	14	Cerro de Oro	9	Septiembre	2023-09-26T00:00:00	2024-11-08T15:00:00	1	Precipitación	0.6
174792	7	Sololá	719	Santiago Atitlán	14	Cerro de Oro	9	Septiembre	2023-09-26T00:00:00	2024-11-08T15:00:00	8	Radiación solar	263
174793	7	Sololá	719	Santiago Atitlán	14	Cerro de Oro	9	Septiembre	2023-09-26T00:00:00	2024-11-08T16:00:00	2	Temperatura media	20.5
174794	7	Sololá	719	Santiago Atitlán	14	Cerro de Oro	9	Septiembre	2023-09-26T00:00:00	2024-11-08T16:00:00	4	Temperatura máxima	22.2
174795	7	Sololá	719	Santiago Atitlán	14	Cerro de Oro	9	Septiembre	2023-09-26T00:00:00	2024-11-08T16:00:00	3	Temperatura mínima	20.5
174796	7	Sololá	719	Santiago Atitlán	14	Cerro de Oro	9	Septiembre	2023-09-26T00:00:00	2024-11-08T16:00:00	5	Humedad	82
174797	7	Sololá	719	Santiago Atitlán	14	Cerro de Oro	9	Septiembre	2023-09-26T00:00:00	2024-11-08T16:00:00	6	Velocidad del viento	9.7
174798	7	Sololá	719	Santiago Atitlán	14	Cerro de Oro	9	Septiembre	2023-09-26T00:00:00	2024-11-08T16:00:00	7	Dirección del viento	9.66
174799	7	Sololá	719	Santiago Atitlán	14	Cerro de Oro	9	Septiembre	2023-09-26T00:00:00	2024-11-08T16:00:00	1	Precipitación	0
174800	7	Sololá	719	Santiago Atitlán	14	Cerro de Oro	9	Septiembre	2023-09-26T00:00:00	2024-11-08T16:00:00	8	Radiación solar	162
174801	7	Sololá	719	Santiago Atitlán	14	Cerro de Oro	9	Septiembre	2023-09-26T00:00:00	2024-11-08T17:00:00	2	Temperatura media	19.1
174802	7	Sololá	719	Santiago Atitlán	14	Cerro de Oro	9	Septiembre	2023-09-26T00:00:00	2024-11-08T17:00:00	4	Temperatura máxima	20.5
174803	7	Sololá	719	Santiago Atitlán	14	Cerro de Oro	9	Septiembre	2023-09-26T00:00:00	2024-11-08T17:00:00	3	Temperatura mínima	19
174804	7	Sololá	719	Santiago Atitlán	14	Cerro de Oro	9	Septiembre	2023-09-26T00:00:00	2024-11-08T17:00:00	5	Humedad	91
174805	7	Sololá	719	Santiago Atitlán	14	Cerro de Oro	9	Septiembre	2023-09-26T00:00:00	2024-11-08T17:00:00	6	Velocidad del viento	4.8
174806	7	Sololá	719	Santiago Atitlán	14	Cerro de Oro	9	Septiembre	2023-09-26T00:00:00	2024-11-08T17:00:00	7	Dirección del viento	4.83
174807	7	Sololá	719	Santiago Atitlán	14	Cerro de Oro	9	Septiembre	2023-09-26T00:00:00	2024-11-08T17:00:00	1	Precipitación	2.4
174808	7	Sololá	719	Santiago Atitlán	14	Cerro de Oro	9	Septiembre	2023-09-26T00:00:00	2024-11-08T17:00:00	8	Radiación solar	1
174809	7	Sololá	719	Santiago Atitlán	14	Cerro de Oro	9	Septiembre	2023-09-26T00:00:00	2024-11-08T18:00:00	2	Temperatura media	17.9
174810	7	Sololá	719	Santiago Atitlán	14	Cerro de Oro	9	Septiembre	2023-09-26T00:00:00	2024-11-08T18:00:00	4	Temperatura máxima	19
174811	7	Sololá	719	Santiago Atitlán	14	Cerro de Oro	9	Septiembre	2023-09-26T00:00:00	2024-11-08T18:00:00	3	Temperatura mínima	17.7
174812	7	Sololá	719	Santiago Atitlán	14	Cerro de Oro	9	Septiembre	2023-09-26T00:00:00	2024-11-08T18:00:00	5	Humedad	92
174813	7	Sololá	719	Santiago Atitlán	14	Cerro de Oro	9	Septiembre	2023-09-26T00:00:00	2024-11-08T18:00:00	6	Velocidad del viento	8
174814	7	Sololá	719	Santiago Atitlán	14	Cerro de Oro	9	Septiembre	2023-09-26T00:00:00	2024-11-08T18:00:00	7	Dirección del viento	8.05
174815	7	Sololá	719	Santiago Atitlán	14	Cerro de Oro	9	Septiembre	2023-09-26T00:00:00	2024-11-08T18:00:00	1	Precipitación	1.2
174816	7	Sololá	719	Santiago Atitlán	14	Cerro de Oro	9	Septiembre	2023-09-26T00:00:00	2024-11-08T18:00:00	8	Radiación solar	0
174817	7	Sololá	719	Santiago Atitlán	14	Cerro de Oro	9	Septiembre	2023-09-26T00:00:00	2024-11-08T19:00:00	2	Temperatura media	17.9
174818	7	Sololá	719	Santiago Atitlán	14	Cerro de Oro	9	Septiembre	2023-09-26T00:00:00	2024-11-08T19:00:00	4	Temperatura máxima	18
174819	7	Sololá	719	Santiago Atitlán	14	Cerro de Oro	9	Septiembre	2023-09-26T00:00:00	2024-11-08T19:00:00	3	Temperatura mínima	17.7
174820	7	Sololá	719	Santiago Atitlán	14	Cerro de Oro	9	Septiembre	2023-09-26T00:00:00	2024-11-08T19:00:00	5	Humedad	92
174821	7	Sololá	719	Santiago Atitlán	14	Cerro de Oro	9	Septiembre	2023-09-26T00:00:00	2024-11-08T19:00:00	6	Velocidad del viento	4.8
174822	7	Sololá	719	Santiago Atitlán	14	Cerro de Oro	9	Septiembre	2023-09-26T00:00:00	2024-11-08T19:00:00	7	Dirección del viento	4.83
174823	7	Sololá	719	Santiago Atitlán	14	Cerro de Oro	9	Septiembre	2023-09-26T00:00:00	2024-11-08T19:00:00	1	Precipitación	1
174824	7	Sololá	719	Santiago Atitlán	14	Cerro de Oro	9	Septiembre	2023-09-26T00:00:00	2024-11-08T19:00:00	8	Radiación solar	0
174825	7	Sololá	719	Santiago Atitlán	14	Cerro de Oro	9	Septiembre	2023-09-26T00:00:00	2024-11-08T20:00:00	2	Temperatura media	18.1
174826	7	Sololá	719	Santiago Atitlán	14	Cerro de Oro	9	Septiembre	2023-09-26T00:00:00	2024-11-08T20:00:00	4	Temperatura máxima	18.1
174827	7	Sololá	719	Santiago Atitlán	14	Cerro de Oro	9	Septiembre	2023-09-26T00:00:00	2024-11-08T20:00:00	3	Temperatura mínima	17.7
174828	7	Sololá	719	Santiago Atitlán	14	Cerro de Oro	9	Septiembre	2023-09-26T00:00:00	2024-11-08T20:00:00	5	Humedad	91
174829	7	Sololá	719	Santiago Atitlán	14	Cerro de Oro	9	Septiembre	2023-09-26T00:00:00	2024-11-08T20:00:00	6	Velocidad del viento	4.8
174830	7	Sololá	719	Santiago Atitlán	14	Cerro de Oro	9	Septiembre	2023-09-26T00:00:00	2024-11-08T20:00:00	7	Dirección del viento	4.83
174831	7	Sololá	719	Santiago Atitlán	14	Cerro de Oro	9	Septiembre	2023-09-26T00:00:00	2024-11-08T20:00:00	1	Precipitación	1.4
174832	7	Sololá	719	Santiago Atitlán	14	Cerro de Oro	9	Septiembre	2023-09-26T00:00:00	2024-11-08T20:00:00	8	Radiación solar	0
174833	7	Sololá	719	Santiago Atitlán	14	Cerro de Oro	9	Septiembre	2023-09-26T00:00:00	2024-11-08T21:00:00	2	Temperatura media	17.8
174834	7	Sololá	719	Santiago Atitlán	14	Cerro de Oro	9	Septiembre	2023-09-26T00:00:00	2024-11-08T21:00:00	4	Temperatura máxima	18.3
174835	7	Sololá	719	Santiago Atitlán	14	Cerro de Oro	9	Septiembre	2023-09-26T00:00:00	2024-11-08T21:00:00	3	Temperatura mínima	17.8
174836	7	Sololá	719	Santiago Atitlán	14	Cerro de Oro	9	Septiembre	2023-09-26T00:00:00	2024-11-08T21:00:00	5	Humedad	93
174837	7	Sololá	719	Santiago Atitlán	14	Cerro de Oro	9	Septiembre	2023-09-26T00:00:00	2024-11-08T21:00:00	6	Velocidad del viento	3.2
174838	7	Sololá	719	Santiago Atitlán	14	Cerro de Oro	9	Septiembre	2023-09-26T00:00:00	2024-11-08T21:00:00	7	Dirección del viento	3.22
174839	7	Sololá	719	Santiago Atitlán	14	Cerro de Oro	9	Septiembre	2023-09-26T00:00:00	2024-11-08T21:00:00	1	Precipitación	0.2
174840	7	Sololá	719	Santiago Atitlán	14	Cerro de Oro	9	Septiembre	2023-09-26T00:00:00	2024-11-08T21:00:00	8	Radiación solar	0
174841	7	Sololá	719	Santiago Atitlán	14	Cerro de Oro	9	Septiembre	2023-09-26T00:00:00	2024-11-08T22:00:00	2	Temperatura media	18.3
174842	7	Sololá	719	Santiago Atitlán	14	Cerro de Oro	9	Septiembre	2023-09-26T00:00:00	2024-11-08T22:00:00	4	Temperatura máxima	18.3
174843	7	Sololá	719	Santiago Atitlán	14	Cerro de Oro	9	Septiembre	2023-09-26T00:00:00	2024-11-08T22:00:00	3	Temperatura mínima	17.8
174844	7	Sololá	719	Santiago Atitlán	14	Cerro de Oro	9	Septiembre	2023-09-26T00:00:00	2024-11-08T22:00:00	5	Humedad	91
174845	7	Sololá	719	Santiago Atitlán	14	Cerro de Oro	9	Septiembre	2023-09-26T00:00:00	2024-11-08T22:00:00	6	Velocidad del viento	3.2
174846	7	Sololá	719	Santiago Atitlán	14	Cerro de Oro	9	Septiembre	2023-09-26T00:00:00	2024-11-08T22:00:00	7	Dirección del viento	3.22
174847	7	Sololá	719	Santiago Atitlán	14	Cerro de Oro	9	Septiembre	2023-09-26T00:00:00	2024-11-08T22:00:00	1	Precipitación	0
174848	7	Sololá	719	Santiago Atitlán	14	Cerro de Oro	9	Septiembre	2023-09-26T00:00:00	2024-11-08T22:00:00	8	Radiación solar	0
174849	7	Sololá	719	Santiago Atitlán	14	Cerro de Oro	9	Septiembre	2023-09-26T00:00:00	2024-11-08T23:00:00	2	Temperatura media	18.2
174850	7	Sololá	719	Santiago Atitlán	14	Cerro de Oro	9	Septiembre	2023-09-26T00:00:00	2024-11-08T23:00:00	4	Temperatura máxima	18.4
174851	7	Sololá	719	Santiago Atitlán	14	Cerro de Oro	9	Septiembre	2023-09-26T00:00:00	2024-11-08T23:00:00	3	Temperatura mínima	18.2
174852	7	Sololá	719	Santiago Atitlán	14	Cerro de Oro	9	Septiembre	2023-09-26T00:00:00	2024-11-08T23:00:00	5	Humedad	92
174853	7	Sololá	719	Santiago Atitlán	14	Cerro de Oro	9	Septiembre	2023-09-26T00:00:00	2024-11-08T23:00:00	6	Velocidad del viento	3.2
174854	7	Sololá	719	Santiago Atitlán	14	Cerro de Oro	9	Septiembre	2023-09-26T00:00:00	2024-11-08T23:00:00	7	Dirección del viento	3.22
174855	7	Sololá	719	Santiago Atitlán	14	Cerro de Oro	9	Septiembre	2023-09-26T00:00:00	2024-11-08T23:00:00	1	Precipitación	0
174856	7	Sololá	719	Santiago Atitlán	14	Cerro de Oro	9	Septiembre	2023-09-26T00:00:00	2024-11-08T23:00:00	8	Radiación solar	0
174857	7	Sololá	719	Santiago Atitlán	14	Cerro de Oro	9	Septiembre	2023-09-27T00:00:00	2024-11-08T00:00:00	2	Temperatura media	17.9
174858	7	Sololá	719	Santiago Atitlán	14	Cerro de Oro	9	Septiembre	2023-09-27T00:00:00	2024-11-08T00:00:00	4	Temperatura máxima	18.3
174859	7	Sololá	719	Santiago Atitlán	14	Cerro de Oro	9	Septiembre	2023-09-27T00:00:00	2024-11-08T00:00:00	3	Temperatura mínima	17.9
174860	7	Sololá	719	Santiago Atitlán	14	Cerro de Oro	9	Septiembre	2023-09-27T00:00:00	2024-11-08T00:00:00	5	Humedad	92
174861	7	Sololá	719	Santiago Atitlán	14	Cerro de Oro	9	Septiembre	2023-09-27T00:00:00	2024-11-08T00:00:00	6	Velocidad del viento	3.2
174862	7	Sololá	719	Santiago Atitlán	14	Cerro de Oro	9	Septiembre	2023-09-27T00:00:00	2024-11-08T00:00:00	7	Dirección del viento	3.22
174863	7	Sololá	719	Santiago Atitlán	14	Cerro de Oro	9	Septiembre	2023-09-27T00:00:00	2024-11-08T00:00:00	1	Precipitación	0
174864	7	Sololá	719	Santiago Atitlán	14	Cerro de Oro	9	Septiembre	2023-09-27T00:00:00	2024-11-08T00:00:00	8	Radiación solar	0
174865	7	Sololá	719	Santiago Atitlán	14	Cerro de Oro	9	Septiembre	2023-09-27T00:00:00	2024-11-08T01:00:00	2	Temperatura media	18.2
174866	7	Sololá	719	Santiago Atitlán	14	Cerro de Oro	9	Septiembre	2023-09-27T00:00:00	2024-11-08T01:00:00	4	Temperatura máxima	18.2
174867	7	Sololá	719	Santiago Atitlán	14	Cerro de Oro	9	Septiembre	2023-09-27T00:00:00	2024-11-08T01:00:00	3	Temperatura mínima	17.9
174868	7	Sololá	719	Santiago Atitlán	14	Cerro de Oro	9	Septiembre	2023-09-27T00:00:00	2024-11-08T01:00:00	5	Humedad	92
174869	7	Sololá	719	Santiago Atitlán	14	Cerro de Oro	9	Septiembre	2023-09-27T00:00:00	2024-11-08T01:00:00	6	Velocidad del viento	3.2
174870	7	Sololá	719	Santiago Atitlán	14	Cerro de Oro	9	Septiembre	2023-09-27T00:00:00	2024-11-08T01:00:00	7	Dirección del viento	3.22
174871	7	Sololá	719	Santiago Atitlán	14	Cerro de Oro	9	Septiembre	2023-09-27T00:00:00	2024-11-08T01:00:00	1	Precipitación	0
174872	7	Sololá	719	Santiago Atitlán	14	Cerro de Oro	9	Septiembre	2023-09-27T00:00:00	2024-11-08T01:00:00	8	Radiación solar	0
174873	7	Sololá	719	Santiago Atitlán	14	Cerro de Oro	9	Septiembre	2023-09-27T00:00:00	2024-11-08T02:00:00	2	Temperatura media	18.3
174874	7	Sololá	719	Santiago Atitlán	14	Cerro de Oro	9	Septiembre	2023-09-27T00:00:00	2024-11-08T02:00:00	4	Temperatura máxima	18.5
174875	7	Sololá	719	Santiago Atitlán	14	Cerro de Oro	9	Septiembre	2023-09-27T00:00:00	2024-11-08T02:00:00	3	Temperatura mínima	18.2
174876	7	Sololá	719	Santiago Atitlán	14	Cerro de Oro	9	Septiembre	2023-09-27T00:00:00	2024-11-08T02:00:00	5	Humedad	91
174877	7	Sololá	719	Santiago Atitlán	14	Cerro de Oro	9	Septiembre	2023-09-27T00:00:00	2024-11-08T02:00:00	6	Velocidad del viento	3.2
174878	7	Sololá	719	Santiago Atitlán	14	Cerro de Oro	9	Septiembre	2023-09-27T00:00:00	2024-11-08T02:00:00	7	Dirección del viento	3.22
174879	7	Sololá	719	Santiago Atitlán	14	Cerro de Oro	9	Septiembre	2023-09-27T00:00:00	2024-11-08T02:00:00	1	Precipitación	0
174880	7	Sololá	719	Santiago Atitlán	14	Cerro de Oro	9	Septiembre	2023-09-27T00:00:00	2024-11-08T02:00:00	8	Radiación solar	0
174881	7	Sololá	719	Santiago Atitlán	14	Cerro de Oro	9	Septiembre	2023-09-27T00:00:00	2024-11-08T03:00:00	2	Temperatura media	18
174882	7	Sololá	719	Santiago Atitlán	14	Cerro de Oro	9	Septiembre	2023-09-27T00:00:00	2024-11-08T03:00:00	4	Temperatura máxima	18.3
174883	7	Sololá	719	Santiago Atitlán	14	Cerro de Oro	9	Septiembre	2023-09-27T00:00:00	2024-11-08T03:00:00	3	Temperatura mínima	17.9
174884	7	Sololá	719	Santiago Atitlán	14	Cerro de Oro	9	Septiembre	2023-09-27T00:00:00	2024-11-08T03:00:00	5	Humedad	91
174885	7	Sololá	719	Santiago Atitlán	14	Cerro de Oro	9	Septiembre	2023-09-27T00:00:00	2024-11-08T03:00:00	6	Velocidad del viento	4.8
174886	7	Sololá	719	Santiago Atitlán	14	Cerro de Oro	9	Septiembre	2023-09-27T00:00:00	2024-11-08T03:00:00	7	Dirección del viento	4.83
174887	7	Sololá	719	Santiago Atitlán	14	Cerro de Oro	9	Septiembre	2023-09-27T00:00:00	2024-11-08T03:00:00	1	Precipitación	0
174888	7	Sololá	719	Santiago Atitlán	14	Cerro de Oro	9	Septiembre	2023-09-27T00:00:00	2024-11-08T03:00:00	8	Radiación solar	0
174889	7	Sololá	719	Santiago Atitlán	14	Cerro de Oro	9	Septiembre	2023-09-27T00:00:00	2024-11-08T04:00:00	2	Temperatura media	18.2
174890	7	Sololá	719	Santiago Atitlán	14	Cerro de Oro	9	Septiembre	2023-09-27T00:00:00	2024-11-08T04:00:00	4	Temperatura máxima	18.3
174891	7	Sololá	719	Santiago Atitlán	14	Cerro de Oro	9	Septiembre	2023-09-27T00:00:00	2024-11-08T04:00:00	3	Temperatura mínima	17.9
174892	7	Sololá	719	Santiago Atitlán	14	Cerro de Oro	9	Septiembre	2023-09-27T00:00:00	2024-11-08T04:00:00	5	Humedad	90
174893	7	Sololá	719	Santiago Atitlán	14	Cerro de Oro	9	Septiembre	2023-09-27T00:00:00	2024-11-08T04:00:00	6	Velocidad del viento	3.2
174894	7	Sololá	719	Santiago Atitlán	14	Cerro de Oro	9	Septiembre	2023-09-27T00:00:00	2024-11-08T04:00:00	7	Dirección del viento	3.22
174895	7	Sololá	719	Santiago Atitlán	14	Cerro de Oro	9	Septiembre	2023-09-27T00:00:00	2024-11-08T04:00:00	1	Precipitación	0
174896	7	Sololá	719	Santiago Atitlán	14	Cerro de Oro	9	Septiembre	2023-09-27T00:00:00	2024-11-08T04:00:00	8	Radiación solar	0
174897	7	Sololá	719	Santiago Atitlán	14	Cerro de Oro	9	Septiembre	2023-09-27T00:00:00	2024-11-08T05:00:00	2	Temperatura media	17.8
174898	7	Sololá	719	Santiago Atitlán	14	Cerro de Oro	9	Septiembre	2023-09-27T00:00:00	2024-11-08T05:00:00	4	Temperatura máxima	18.3
174899	7	Sololá	719	Santiago Atitlán	14	Cerro de Oro	9	Septiembre	2023-09-27T00:00:00	2024-11-08T05:00:00	3	Temperatura mínima	17.7
174900	7	Sololá	719	Santiago Atitlán	14	Cerro de Oro	9	Septiembre	2023-09-27T00:00:00	2024-11-08T05:00:00	5	Humedad	91
174901	7	Sololá	719	Santiago Atitlán	14	Cerro de Oro	9	Septiembre	2023-09-27T00:00:00	2024-11-08T05:00:00	6	Velocidad del viento	3.2
174902	7	Sololá	719	Santiago Atitlán	14	Cerro de Oro	9	Septiembre	2023-09-27T00:00:00	2024-11-08T05:00:00	7	Dirección del viento	3.22
174903	7	Sololá	719	Santiago Atitlán	14	Cerro de Oro	9	Septiembre	2023-09-27T00:00:00	2024-11-08T05:00:00	1	Precipitación	0
174904	7	Sololá	719	Santiago Atitlán	14	Cerro de Oro	9	Septiembre	2023-09-27T00:00:00	2024-11-08T05:00:00	8	Radiación solar	0
174905	7	Sololá	719	Santiago Atitlán	14	Cerro de Oro	9	Septiembre	2023-09-27T00:00:00	2024-11-08T06:00:00	2	Temperatura media	17.9
174906	7	Sololá	719	Santiago Atitlán	14	Cerro de Oro	9	Septiembre	2023-09-27T00:00:00	2024-11-08T06:00:00	4	Temperatura máxima	18.1
174907	7	Sololá	719	Santiago Atitlán	14	Cerro de Oro	9	Septiembre	2023-09-27T00:00:00	2024-11-08T06:00:00	3	Temperatura mínima	17.7
174908	7	Sololá	719	Santiago Atitlán	14	Cerro de Oro	9	Septiembre	2023-09-27T00:00:00	2024-11-08T06:00:00	5	Humedad	88
174909	7	Sololá	719	Santiago Atitlán	14	Cerro de Oro	9	Septiembre	2023-09-27T00:00:00	2024-11-08T06:00:00	6	Velocidad del viento	3.2
174910	7	Sololá	719	Santiago Atitlán	14	Cerro de Oro	9	Septiembre	2023-09-27T00:00:00	2024-11-08T06:00:00	7	Dirección del viento	3.22
174911	7	Sololá	719	Santiago Atitlán	14	Cerro de Oro	9	Septiembre	2023-09-27T00:00:00	2024-11-08T06:00:00	1	Precipitación	0
174912	7	Sololá	719	Santiago Atitlán	14	Cerro de Oro	9	Septiembre	2023-09-27T00:00:00	2024-11-08T06:00:00	8	Radiación solar	1
174913	7	Sololá	719	Santiago Atitlán	14	Cerro de Oro	9	Septiembre	2023-09-27T00:00:00	2024-11-08T07:00:00	2	Temperatura media	19.5
174914	7	Sololá	719	Santiago Atitlán	14	Cerro de Oro	9	Septiembre	2023-09-27T00:00:00	2024-11-08T07:00:00	4	Temperatura máxima	19.5
174915	7	Sololá	719	Santiago Atitlán	14	Cerro de Oro	9	Septiembre	2023-09-27T00:00:00	2024-11-08T07:00:00	3	Temperatura mínima	17.8
174916	7	Sololá	719	Santiago Atitlán	14	Cerro de Oro	9	Septiembre	2023-09-27T00:00:00	2024-11-08T07:00:00	5	Humedad	83
174917	7	Sololá	719	Santiago Atitlán	14	Cerro de Oro	9	Septiembre	2023-09-27T00:00:00	2024-11-08T07:00:00	6	Velocidad del viento	3.2
174918	7	Sololá	719	Santiago Atitlán	14	Cerro de Oro	9	Septiembre	2023-09-27T00:00:00	2024-11-08T07:00:00	7	Dirección del viento	3.22
174919	7	Sololá	719	Santiago Atitlán	14	Cerro de Oro	9	Septiembre	2023-09-27T00:00:00	2024-11-08T07:00:00	1	Precipitación	0
174920	7	Sololá	719	Santiago Atitlán	14	Cerro de Oro	9	Septiembre	2023-09-27T00:00:00	2024-11-08T07:00:00	8	Radiación solar	52
174921	7	Sololá	719	Santiago Atitlán	14	Cerro de Oro	9	Septiembre	2023-09-27T00:00:00	2024-11-08T08:00:00	2	Temperatura media	20.9
174922	7	Sololá	719	Santiago Atitlán	14	Cerro de Oro	9	Septiembre	2023-09-27T00:00:00	2024-11-08T08:00:00	4	Temperatura máxima	20.9
174923	7	Sololá	719	Santiago Atitlán	14	Cerro de Oro	9	Septiembre	2023-09-27T00:00:00	2024-11-08T08:00:00	3	Temperatura mínima	19.5
174924	7	Sololá	719	Santiago Atitlán	14	Cerro de Oro	9	Septiembre	2023-09-27T00:00:00	2024-11-08T08:00:00	5	Humedad	84
174925	7	Sololá	719	Santiago Atitlán	14	Cerro de Oro	9	Septiembre	2023-09-27T00:00:00	2024-11-08T08:00:00	6	Velocidad del viento	3.2
174926	7	Sololá	719	Santiago Atitlán	14	Cerro de Oro	9	Septiembre	2023-09-27T00:00:00	2024-11-08T08:00:00	7	Dirección del viento	3.22
174927	7	Sololá	719	Santiago Atitlán	14	Cerro de Oro	9	Septiembre	2023-09-27T00:00:00	2024-11-08T08:00:00	1	Precipitación	0
174928	7	Sololá	719	Santiago Atitlán	14	Cerro de Oro	9	Septiembre	2023-09-27T00:00:00	2024-11-08T08:00:00	8	Radiación solar	213
174929	7	Sololá	719	Santiago Atitlán	14	Cerro de Oro	9	Septiembre	2023-09-27T00:00:00	2024-11-08T09:00:00	2	Temperatura media	21.5
174930	7	Sololá	719	Santiago Atitlán	14	Cerro de Oro	9	Septiembre	2023-09-27T00:00:00	2024-11-08T09:00:00	4	Temperatura máxima	21.5
174931	7	Sololá	719	Santiago Atitlán	14	Cerro de Oro	9	Septiembre	2023-09-27T00:00:00	2024-11-08T09:00:00	3	Temperatura mínima	20.7
174932	7	Sololá	719	Santiago Atitlán	14	Cerro de Oro	9	Septiembre	2023-09-27T00:00:00	2024-11-08T09:00:00	5	Humedad	77
174933	7	Sololá	719	Santiago Atitlán	14	Cerro de Oro	9	Septiembre	2023-09-27T00:00:00	2024-11-08T09:00:00	6	Velocidad del viento	3.2
174934	7	Sololá	719	Santiago Atitlán	14	Cerro de Oro	9	Septiembre	2023-09-27T00:00:00	2024-11-08T09:00:00	7	Dirección del viento	3.22
174935	7	Sololá	719	Santiago Atitlán	14	Cerro de Oro	9	Septiembre	2023-09-27T00:00:00	2024-11-08T09:00:00	1	Precipitación	0
174936	7	Sololá	719	Santiago Atitlán	14	Cerro de Oro	9	Septiembre	2023-09-27T00:00:00	2024-11-08T09:00:00	8	Radiación solar	483
174937	7	Sololá	719	Santiago Atitlán	14	Cerro de Oro	9	Septiembre	2023-09-27T00:00:00	2024-11-08T10:00:00	2	Temperatura media	21.9
174938	7	Sololá	719	Santiago Atitlán	14	Cerro de Oro	9	Septiembre	2023-09-27T00:00:00	2024-11-08T10:00:00	4	Temperatura máxima	22
174939	7	Sololá	719	Santiago Atitlán	14	Cerro de Oro	9	Septiembre	2023-09-27T00:00:00	2024-11-08T10:00:00	3	Temperatura mínima	21.4
174940	7	Sololá	719	Santiago Atitlán	14	Cerro de Oro	9	Septiembre	2023-09-27T00:00:00	2024-11-08T10:00:00	5	Humedad	77
174941	7	Sololá	719	Santiago Atitlán	14	Cerro de Oro	9	Septiembre	2023-09-27T00:00:00	2024-11-08T10:00:00	6	Velocidad del viento	4.8
174942	7	Sololá	719	Santiago Atitlán	14	Cerro de Oro	9	Septiembre	2023-09-27T00:00:00	2024-11-08T10:00:00	7	Dirección del viento	4.83
174943	7	Sololá	719	Santiago Atitlán	14	Cerro de Oro	9	Septiembre	2023-09-27T00:00:00	2024-11-08T10:00:00	1	Precipitación	0
174944	7	Sololá	719	Santiago Atitlán	14	Cerro de Oro	9	Septiembre	2023-09-27T00:00:00	2024-11-08T10:00:00	8	Radiación solar	604
174945	7	Sololá	719	Santiago Atitlán	14	Cerro de Oro	9	Septiembre	2023-09-27T00:00:00	2024-11-08T11:00:00	2	Temperatura media	23.3
174946	7	Sololá	719	Santiago Atitlán	14	Cerro de Oro	9	Septiembre	2023-09-27T00:00:00	2024-11-08T11:00:00	4	Temperatura máxima	23.3
174947	7	Sololá	719	Santiago Atitlán	14	Cerro de Oro	9	Septiembre	2023-09-27T00:00:00	2024-11-08T11:00:00	3	Temperatura mínima	21.9
174948	7	Sololá	719	Santiago Atitlán	14	Cerro de Oro	9	Septiembre	2023-09-27T00:00:00	2024-11-08T11:00:00	5	Humedad	70
174949	7	Sololá	719	Santiago Atitlán	14	Cerro de Oro	9	Septiembre	2023-09-27T00:00:00	2024-11-08T11:00:00	6	Velocidad del viento	4.8
174950	7	Sololá	719	Santiago Atitlán	14	Cerro de Oro	9	Septiembre	2023-09-27T00:00:00	2024-11-08T11:00:00	7	Dirección del viento	4.83
174951	7	Sololá	719	Santiago Atitlán	14	Cerro de Oro	9	Septiembre	2023-09-27T00:00:00	2024-11-08T11:00:00	1	Precipitación	0
174952	7	Sololá	719	Santiago Atitlán	14	Cerro de Oro	9	Septiembre	2023-09-27T00:00:00	2024-11-08T11:00:00	8	Radiación solar	858
174953	7	Sololá	719	Santiago Atitlán	14	Cerro de Oro	9	Septiembre	2023-09-27T00:00:00	2024-11-08T12:00:00	2	Temperatura media	24.4
174954	7	Sololá	719	Santiago Atitlán	14	Cerro de Oro	9	Septiembre	2023-09-27T00:00:00	2024-11-08T12:00:00	4	Temperatura máxima	24.6
174955	7	Sololá	719	Santiago Atitlán	14	Cerro de Oro	9	Septiembre	2023-09-27T00:00:00	2024-11-08T12:00:00	3	Temperatura mínima	23.1
174956	7	Sololá	719	Santiago Atitlán	14	Cerro de Oro	9	Septiembre	2023-09-27T00:00:00	2024-11-08T12:00:00	5	Humedad	74
174957	7	Sololá	719	Santiago Atitlán	14	Cerro de Oro	9	Septiembre	2023-09-27T00:00:00	2024-11-08T12:00:00	6	Velocidad del viento	4.8
174958	7	Sololá	719	Santiago Atitlán	14	Cerro de Oro	9	Septiembre	2023-09-27T00:00:00	2024-11-08T12:00:00	7	Dirección del viento	4.83
174959	7	Sololá	719	Santiago Atitlán	14	Cerro de Oro	9	Septiembre	2023-09-27T00:00:00	2024-11-08T12:00:00	1	Precipitación	0
174960	7	Sololá	719	Santiago Atitlán	14	Cerro de Oro	9	Septiembre	2023-09-27T00:00:00	2024-11-08T12:00:00	8	Radiación solar	868
174961	7	Sololá	719	Santiago Atitlán	14	Cerro de Oro	9	Septiembre	2023-09-27T00:00:00	2024-11-08T13:00:00	2	Temperatura media	23.9
174962	7	Sololá	719	Santiago Atitlán	14	Cerro de Oro	9	Septiembre	2023-09-27T00:00:00	2024-11-08T13:00:00	4	Temperatura máxima	24.9
174963	7	Sololá	719	Santiago Atitlán	14	Cerro de Oro	9	Septiembre	2023-09-27T00:00:00	2024-11-08T13:00:00	3	Temperatura mínima	23.7
174964	7	Sololá	719	Santiago Atitlán	14	Cerro de Oro	9	Septiembre	2023-09-27T00:00:00	2024-11-08T13:00:00	5	Humedad	78
174965	7	Sololá	719	Santiago Atitlán	14	Cerro de Oro	9	Septiembre	2023-09-27T00:00:00	2024-11-08T13:00:00	6	Velocidad del viento	9.7
174966	7	Sololá	719	Santiago Atitlán	14	Cerro de Oro	9	Septiembre	2023-09-27T00:00:00	2024-11-08T13:00:00	7	Dirección del viento	9.66
174967	7	Sololá	719	Santiago Atitlán	14	Cerro de Oro	9	Septiembre	2023-09-27T00:00:00	2024-11-08T13:00:00	1	Precipitación	0
174968	7	Sololá	719	Santiago Atitlán	14	Cerro de Oro	9	Septiembre	2023-09-27T00:00:00	2024-11-08T13:00:00	8	Radiación solar	876
174969	7	Sololá	719	Santiago Atitlán	14	Cerro de Oro	9	Septiembre	2023-09-27T00:00:00	2024-11-08T14:00:00	2	Temperatura media	22.7
174970	7	Sololá	719	Santiago Atitlán	14	Cerro de Oro	9	Septiembre	2023-09-27T00:00:00	2024-11-08T14:00:00	4	Temperatura máxima	24.3
174971	7	Sololá	719	Santiago Atitlán	14	Cerro de Oro	9	Septiembre	2023-09-27T00:00:00	2024-11-08T14:00:00	3	Temperatura mínima	22.7
174972	7	Sololá	719	Santiago Atitlán	14	Cerro de Oro	9	Septiembre	2023-09-27T00:00:00	2024-11-08T14:00:00	5	Humedad	83
174973	7	Sololá	719	Santiago Atitlán	14	Cerro de Oro	9	Septiembre	2023-09-27T00:00:00	2024-11-08T14:00:00	6	Velocidad del viento	11.3
174974	7	Sololá	719	Santiago Atitlán	14	Cerro de Oro	9	Septiembre	2023-09-27T00:00:00	2024-11-08T14:00:00	7	Dirección del viento	11.27
174975	7	Sololá	719	Santiago Atitlán	14	Cerro de Oro	9	Septiembre	2023-09-27T00:00:00	2024-11-08T14:00:00	1	Precipitación	0
174976	7	Sololá	719	Santiago Atitlán	14	Cerro de Oro	9	Septiembre	2023-09-27T00:00:00	2024-11-08T14:00:00	8	Radiación solar	690
174977	7	Sololá	719	Santiago Atitlán	14	Cerro de Oro	9	Septiembre	2023-09-27T00:00:00	2024-11-08T15:00:00	2	Temperatura media	19.4
174978	7	Sololá	719	Santiago Atitlán	14	Cerro de Oro	9	Septiembre	2023-09-27T00:00:00	2024-11-08T15:00:00	4	Temperatura máxima	22.7
174979	7	Sololá	719	Santiago Atitlán	14	Cerro de Oro	9	Septiembre	2023-09-27T00:00:00	2024-11-08T15:00:00	3	Temperatura mínima	19.4
174980	7	Sololá	719	Santiago Atitlán	14	Cerro de Oro	9	Septiembre	2023-09-27T00:00:00	2024-11-08T15:00:00	5	Humedad	87
174981	7	Sololá	719	Santiago Atitlán	14	Cerro de Oro	9	Septiembre	2023-09-27T00:00:00	2024-11-08T15:00:00	6	Velocidad del viento	11.3
174982	7	Sololá	719	Santiago Atitlán	14	Cerro de Oro	9	Septiembre	2023-09-27T00:00:00	2024-11-08T15:00:00	7	Dirección del viento	11.27
174983	7	Sololá	719	Santiago Atitlán	14	Cerro de Oro	9	Septiembre	2023-09-27T00:00:00	2024-11-08T15:00:00	1	Precipitación	0.6
174984	7	Sololá	719	Santiago Atitlán	14	Cerro de Oro	9	Septiembre	2023-09-27T00:00:00	2024-11-08T15:00:00	8	Radiación solar	50
174985	7	Sololá	719	Santiago Atitlán	14	Cerro de Oro	9	Septiembre	2023-09-27T00:00:00	2024-11-08T16:00:00	2	Temperatura media	19.6
174986	7	Sololá	719	Santiago Atitlán	14	Cerro de Oro	9	Septiembre	2023-09-27T00:00:00	2024-11-08T16:00:00	4	Temperatura máxima	19.6
174987	7	Sololá	719	Santiago Atitlán	14	Cerro de Oro	9	Septiembre	2023-09-27T00:00:00	2024-11-08T16:00:00	3	Temperatura mínima	19.2
174988	7	Sololá	719	Santiago Atitlán	14	Cerro de Oro	9	Septiembre	2023-09-27T00:00:00	2024-11-08T16:00:00	5	Humedad	92
174989	7	Sololá	719	Santiago Atitlán	14	Cerro de Oro	9	Septiembre	2023-09-27T00:00:00	2024-11-08T16:00:00	6	Velocidad del viento	3.2
174990	7	Sololá	719	Santiago Atitlán	14	Cerro de Oro	9	Septiembre	2023-09-27T00:00:00	2024-11-08T16:00:00	7	Dirección del viento	3.22
174991	7	Sololá	719	Santiago Atitlán	14	Cerro de Oro	9	Septiembre	2023-09-27T00:00:00	2024-11-08T16:00:00	1	Precipitación	0
174992	7	Sololá	719	Santiago Atitlán	14	Cerro de Oro	9	Septiembre	2023-09-27T00:00:00	2024-11-08T16:00:00	8	Radiación solar	33
174993	7	Sololá	719	Santiago Atitlán	14	Cerro de Oro	9	Septiembre	2023-09-27T00:00:00	2024-11-08T17:00:00	2	Temperatura media	20
174994	7	Sololá	719	Santiago Atitlán	14	Cerro de Oro	9	Septiembre	2023-09-27T00:00:00	2024-11-08T17:00:00	4	Temperatura máxima	20
174995	7	Sololá	719	Santiago Atitlán	14	Cerro de Oro	9	Septiembre	2023-09-27T00:00:00	2024-11-08T17:00:00	3	Temperatura mínima	19.6
174996	7	Sololá	719	Santiago Atitlán	14	Cerro de Oro	9	Septiembre	2023-09-27T00:00:00	2024-11-08T17:00:00	5	Humedad	90
174997	7	Sololá	719	Santiago Atitlán	14	Cerro de Oro	9	Septiembre	2023-09-27T00:00:00	2024-11-08T17:00:00	6	Velocidad del viento	1.6
174998	7	Sololá	719	Santiago Atitlán	14	Cerro de Oro	9	Septiembre	2023-09-27T00:00:00	2024-11-08T17:00:00	7	Dirección del viento	1.61
174999	7	Sololá	719	Santiago Atitlán	14	Cerro de Oro	9	Septiembre	2023-09-27T00:00:00	2024-11-08T17:00:00	1	Precipitación	0.2
175000	7	Sololá	719	Santiago Atitlán	14	Cerro de Oro	9	Septiembre	2023-09-27T00:00:00	2024-11-08T17:00:00	8	Radiación solar	43
175001	7	Sololá	719	Santiago Atitlán	14	Cerro de Oro	9	Septiembre	2023-09-27T00:00:00	2024-11-08T18:00:00	2	Temperatura media	19.6
175002	7	Sololá	719	Santiago Atitlán	14	Cerro de Oro	9	Septiembre	2023-09-27T00:00:00	2024-11-08T18:00:00	4	Temperatura máxima	19.9
175003	7	Sololá	719	Santiago Atitlán	14	Cerro de Oro	9	Septiembre	2023-09-27T00:00:00	2024-11-08T18:00:00	3	Temperatura mínima	19.4
175004	7	Sololá	719	Santiago Atitlán	14	Cerro de Oro	9	Septiembre	2023-09-27T00:00:00	2024-11-08T18:00:00	5	Humedad	91
175005	7	Sololá	719	Santiago Atitlán	14	Cerro de Oro	9	Septiembre	2023-09-27T00:00:00	2024-11-08T18:00:00	6	Velocidad del viento	3.2
175006	7	Sololá	719	Santiago Atitlán	14	Cerro de Oro	9	Septiembre	2023-09-27T00:00:00	2024-11-08T18:00:00	7	Dirección del viento	3.22
175007	7	Sololá	719	Santiago Atitlán	14	Cerro de Oro	9	Septiembre	2023-09-27T00:00:00	2024-11-08T18:00:00	1	Precipitación	0
175008	7	Sololá	719	Santiago Atitlán	14	Cerro de Oro	9	Septiembre	2023-09-27T00:00:00	2024-11-08T18:00:00	8	Radiación solar	4
175009	7	Sololá	719	Santiago Atitlán	14	Cerro de Oro	9	Septiembre	2023-09-27T00:00:00	2024-11-08T19:00:00	2	Temperatura media	19.1
175010	7	Sololá	719	Santiago Atitlán	14	Cerro de Oro	9	Septiembre	2023-09-27T00:00:00	2024-11-08T19:00:00	4	Temperatura máxima	19.6
175011	7	Sololá	719	Santiago Atitlán	14	Cerro de Oro	9	Septiembre	2023-09-27T00:00:00	2024-11-08T19:00:00	3	Temperatura mínima	19
175012	7	Sololá	719	Santiago Atitlán	14	Cerro de Oro	9	Septiembre	2023-09-27T00:00:00	2024-11-08T19:00:00	5	Humedad	92
175013	7	Sololá	719	Santiago Atitlán	14	Cerro de Oro	9	Septiembre	2023-09-27T00:00:00	2024-11-08T19:00:00	6	Velocidad del viento	6.4
175014	7	Sololá	719	Santiago Atitlán	14	Cerro de Oro	9	Septiembre	2023-09-27T00:00:00	2024-11-08T19:00:00	7	Dirección del viento	6.44
175015	7	Sololá	719	Santiago Atitlán	14	Cerro de Oro	9	Septiembre	2023-09-27T00:00:00	2024-11-08T19:00:00	1	Precipitación	0.4
175016	7	Sololá	719	Santiago Atitlán	14	Cerro de Oro	9	Septiembre	2023-09-27T00:00:00	2024-11-08T19:00:00	8	Radiación solar	0
175017	7	Sololá	719	Santiago Atitlán	14	Cerro de Oro	9	Septiembre	2023-09-27T00:00:00	2024-11-08T20:00:00	2	Temperatura media	18.8
175018	7	Sololá	719	Santiago Atitlán	14	Cerro de Oro	9	Septiembre	2023-09-27T00:00:00	2024-11-08T20:00:00	4	Temperatura máxima	19.2
175019	7	Sololá	719	Santiago Atitlán	14	Cerro de Oro	9	Septiembre	2023-09-27T00:00:00	2024-11-08T20:00:00	3	Temperatura mínima	18.7
175020	7	Sololá	719	Santiago Atitlán	14	Cerro de Oro	9	Septiembre	2023-09-27T00:00:00	2024-11-08T20:00:00	5	Humedad	89
175021	7	Sololá	719	Santiago Atitlán	14	Cerro de Oro	9	Septiembre	2023-09-27T00:00:00	2024-11-08T20:00:00	6	Velocidad del viento	4.8
175022	7	Sololá	719	Santiago Atitlán	14	Cerro de Oro	9	Septiembre	2023-09-27T00:00:00	2024-11-08T20:00:00	7	Dirección del viento	4.83
175023	7	Sololá	719	Santiago Atitlán	14	Cerro de Oro	9	Septiembre	2023-09-27T00:00:00	2024-11-08T20:00:00	1	Precipitación	0.8
175024	7	Sololá	719	Santiago Atitlán	14	Cerro de Oro	9	Septiembre	2023-09-27T00:00:00	2024-11-08T20:00:00	8	Radiación solar	0
175025	7	Sololá	719	Santiago Atitlán	14	Cerro de Oro	9	Septiembre	2023-09-27T00:00:00	2024-11-08T21:00:00	2	Temperatura media	18.5
175026	7	Sololá	719	Santiago Atitlán	14	Cerro de Oro	9	Septiembre	2023-09-27T00:00:00	2024-11-08T21:00:00	4	Temperatura máxima	18.9
175027	7	Sololá	719	Santiago Atitlán	14	Cerro de Oro	9	Septiembre	2023-09-27T00:00:00	2024-11-08T21:00:00	3	Temperatura mínima	18.4
175028	7	Sololá	719	Santiago Atitlán	14	Cerro de Oro	9	Septiembre	2023-09-27T00:00:00	2024-11-08T21:00:00	5	Humedad	91
175029	7	Sololá	719	Santiago Atitlán	14	Cerro de Oro	9	Septiembre	2023-09-27T00:00:00	2024-11-08T21:00:00	6	Velocidad del viento	3.2
175030	7	Sololá	719	Santiago Atitlán	14	Cerro de Oro	9	Septiembre	2023-09-27T00:00:00	2024-11-08T21:00:00	7	Dirección del viento	3.22
175031	7	Sololá	719	Santiago Atitlán	14	Cerro de Oro	9	Septiembre	2023-09-27T00:00:00	2024-11-08T21:00:00	1	Precipitación	1
175032	7	Sololá	719	Santiago Atitlán	14	Cerro de Oro	9	Septiembre	2023-09-27T00:00:00	2024-11-08T21:00:00	8	Radiación solar	0
175033	7	Sololá	719	Santiago Atitlán	14	Cerro de Oro	9	Septiembre	2023-09-27T00:00:00	2024-11-08T22:00:00	2	Temperatura media	18.1
175034	7	Sololá	719	Santiago Atitlán	14	Cerro de Oro	9	Septiembre	2023-09-27T00:00:00	2024-11-08T22:00:00	4	Temperatura máxima	18.7
175035	7	Sololá	719	Santiago Atitlán	14	Cerro de Oro	9	Septiembre	2023-09-27T00:00:00	2024-11-08T22:00:00	3	Temperatura mínima	18.1
175036	7	Sololá	719	Santiago Atitlán	14	Cerro de Oro	9	Septiembre	2023-09-27T00:00:00	2024-11-08T22:00:00	5	Humedad	90
175037	7	Sololá	719	Santiago Atitlán	14	Cerro de Oro	9	Septiembre	2023-09-27T00:00:00	2024-11-08T22:00:00	6	Velocidad del viento	4.8
175038	7	Sololá	719	Santiago Atitlán	14	Cerro de Oro	9	Septiembre	2023-09-27T00:00:00	2024-11-08T22:00:00	7	Dirección del viento	4.83
175039	7	Sololá	719	Santiago Atitlán	14	Cerro de Oro	9	Septiembre	2023-09-27T00:00:00	2024-11-08T22:00:00	1	Precipitación	0.2
175040	7	Sololá	719	Santiago Atitlán	14	Cerro de Oro	9	Septiembre	2023-09-27T00:00:00	2024-11-08T22:00:00	8	Radiación solar	0
175041	7	Sololá	719	Santiago Atitlán	14	Cerro de Oro	9	Septiembre	2023-09-27T00:00:00	2024-11-08T23:00:00	2	Temperatura media	18.3
175042	7	Sololá	719	Santiago Atitlán	14	Cerro de Oro	9	Septiembre	2023-09-27T00:00:00	2024-11-08T23:00:00	4	Temperatura máxima	18.5
175043	7	Sololá	719	Santiago Atitlán	14	Cerro de Oro	9	Septiembre	2023-09-27T00:00:00	2024-11-08T23:00:00	3	Temperatura mínima	18.1
175044	7	Sololá	719	Santiago Atitlán	14	Cerro de Oro	9	Septiembre	2023-09-27T00:00:00	2024-11-08T23:00:00	5	Humedad	90
175045	7	Sololá	719	Santiago Atitlán	14	Cerro de Oro	9	Septiembre	2023-09-27T00:00:00	2024-11-08T23:00:00	6	Velocidad del viento	4.8
175046	7	Sololá	719	Santiago Atitlán	14	Cerro de Oro	9	Septiembre	2023-09-27T00:00:00	2024-11-08T23:00:00	7	Dirección del viento	4.83
175047	7	Sololá	719	Santiago Atitlán	14	Cerro de Oro	9	Septiembre	2023-09-27T00:00:00	2024-11-08T23:00:00	1	Precipitación	0.8
175048	7	Sololá	719	Santiago Atitlán	14	Cerro de Oro	9	Septiembre	2023-09-27T00:00:00	2024-11-08T23:00:00	8	Radiación solar	0
175049	7	Sololá	719	Santiago Atitlán	14	Cerro de Oro	9	Septiembre	2023-09-28T00:00:00	2024-11-08T00:00:00	2	Temperatura media	18.8
175050	7	Sololá	719	Santiago Atitlán	14	Cerro de Oro	9	Septiembre	2023-09-28T00:00:00	2024-11-08T00:00:00	4	Temperatura máxima	18.9
175051	7	Sololá	719	Santiago Atitlán	14	Cerro de Oro	9	Septiembre	2023-09-28T00:00:00	2024-11-08T00:00:00	3	Temperatura mínima	18.2
175052	7	Sololá	719	Santiago Atitlán	14	Cerro de Oro	9	Septiembre	2023-09-28T00:00:00	2024-11-08T00:00:00	5	Humedad	88
175053	7	Sololá	719	Santiago Atitlán	14	Cerro de Oro	9	Septiembre	2023-09-28T00:00:00	2024-11-08T00:00:00	6	Velocidad del viento	4.8
175054	7	Sololá	719	Santiago Atitlán	14	Cerro de Oro	9	Septiembre	2023-09-28T00:00:00	2024-11-08T00:00:00	7	Dirección del viento	4.83
175055	7	Sololá	719	Santiago Atitlán	14	Cerro de Oro	9	Septiembre	2023-09-28T00:00:00	2024-11-08T00:00:00	1	Precipitación	0
175056	7	Sololá	719	Santiago Atitlán	14	Cerro de Oro	9	Septiembre	2023-09-28T00:00:00	2024-11-08T00:00:00	8	Radiación solar	0
175057	7	Sololá	719	Santiago Atitlán	14	Cerro de Oro	9	Septiembre	2023-09-28T00:00:00	2024-11-08T01:00:00	2	Temperatura media	18.6
175058	7	Sololá	719	Santiago Atitlán	14	Cerro de Oro	9	Septiembre	2023-09-28T00:00:00	2024-11-08T01:00:00	4	Temperatura máxima	18.9
175059	7	Sololá	719	Santiago Atitlán	14	Cerro de Oro	9	Septiembre	2023-09-28T00:00:00	2024-11-08T01:00:00	3	Temperatura mínima	18.5
175060	7	Sololá	719	Santiago Atitlán	14	Cerro de Oro	9	Septiembre	2023-09-28T00:00:00	2024-11-08T01:00:00	5	Humedad	87
175061	7	Sololá	719	Santiago Atitlán	14	Cerro de Oro	9	Septiembre	2023-09-28T00:00:00	2024-11-08T01:00:00	6	Velocidad del viento	4.8
175062	7	Sololá	719	Santiago Atitlán	14	Cerro de Oro	9	Septiembre	2023-09-28T00:00:00	2024-11-08T01:00:00	7	Dirección del viento	4.83
175063	7	Sololá	719	Santiago Atitlán	14	Cerro de Oro	9	Septiembre	2023-09-28T00:00:00	2024-11-08T01:00:00	1	Precipitación	0
175064	7	Sololá	719	Santiago Atitlán	14	Cerro de Oro	9	Septiembre	2023-09-28T00:00:00	2024-11-08T01:00:00	8	Radiación solar	0
175065	7	Sololá	719	Santiago Atitlán	14	Cerro de Oro	9	Septiembre	2023-09-28T00:00:00	2024-11-08T02:00:00	2	Temperatura media	18.7
175066	7	Sololá	719	Santiago Atitlán	14	Cerro de Oro	9	Septiembre	2023-09-28T00:00:00	2024-11-08T02:00:00	4	Temperatura máxima	18.7
175067	7	Sololá	719	Santiago Atitlán	14	Cerro de Oro	9	Septiembre	2023-09-28T00:00:00	2024-11-08T02:00:00	3	Temperatura mínima	18.2
175068	7	Sololá	719	Santiago Atitlán	14	Cerro de Oro	9	Septiembre	2023-09-28T00:00:00	2024-11-08T02:00:00	5	Humedad	85
175069	7	Sololá	719	Santiago Atitlán	14	Cerro de Oro	9	Septiembre	2023-09-28T00:00:00	2024-11-08T02:00:00	6	Velocidad del viento	4.8
175070	7	Sololá	719	Santiago Atitlán	14	Cerro de Oro	9	Septiembre	2023-09-28T00:00:00	2024-11-08T02:00:00	7	Dirección del viento	4.83
175071	7	Sololá	719	Santiago Atitlán	14	Cerro de Oro	9	Septiembre	2023-09-28T00:00:00	2024-11-08T02:00:00	1	Precipitación	0
175072	7	Sololá	719	Santiago Atitlán	14	Cerro de Oro	9	Septiembre	2023-09-28T00:00:00	2024-11-08T02:00:00	8	Radiación solar	0
175073	7	Sololá	719	Santiago Atitlán	14	Cerro de Oro	9	Septiembre	2023-09-28T00:00:00	2024-11-08T03:00:00	2	Temperatura media	19
175074	7	Sololá	719	Santiago Atitlán	14	Cerro de Oro	9	Septiembre	2023-09-28T00:00:00	2024-11-08T03:00:00	4	Temperatura máxima	19.2
175075	7	Sololá	719	Santiago Atitlán	14	Cerro de Oro	9	Septiembre	2023-09-28T00:00:00	2024-11-08T03:00:00	3	Temperatura mínima	18.7
175076	7	Sololá	719	Santiago Atitlán	14	Cerro de Oro	9	Septiembre	2023-09-28T00:00:00	2024-11-08T03:00:00	5	Humedad	87
175077	7	Sololá	719	Santiago Atitlán	14	Cerro de Oro	9	Septiembre	2023-09-28T00:00:00	2024-11-08T03:00:00	6	Velocidad del viento	3.2
175078	7	Sololá	719	Santiago Atitlán	14	Cerro de Oro	9	Septiembre	2023-09-28T00:00:00	2024-11-08T03:00:00	7	Dirección del viento	3.22
175079	7	Sololá	719	Santiago Atitlán	14	Cerro de Oro	9	Septiembre	2023-09-28T00:00:00	2024-11-08T03:00:00	1	Precipitación	0
175080	7	Sololá	719	Santiago Atitlán	14	Cerro de Oro	9	Septiembre	2023-09-28T00:00:00	2024-11-08T03:00:00	8	Radiación solar	0
175081	7	Sololá	719	Santiago Atitlán	14	Cerro de Oro	9	Septiembre	2023-09-28T00:00:00	2024-11-08T04:00:00	2	Temperatura media	18.5
175082	7	Sololá	719	Santiago Atitlán	14	Cerro de Oro	9	Septiembre	2023-09-28T00:00:00	2024-11-08T04:00:00	4	Temperatura máxima	19
175083	7	Sololá	719	Santiago Atitlán	14	Cerro de Oro	9	Septiembre	2023-09-28T00:00:00	2024-11-08T04:00:00	3	Temperatura mínima	18.4
175084	7	Sololá	719	Santiago Atitlán	14	Cerro de Oro	9	Septiembre	2023-09-28T00:00:00	2024-11-08T04:00:00	5	Humedad	88
175085	7	Sololá	719	Santiago Atitlán	14	Cerro de Oro	9	Septiembre	2023-09-28T00:00:00	2024-11-08T04:00:00	6	Velocidad del viento	3.2
175086	7	Sololá	719	Santiago Atitlán	14	Cerro de Oro	9	Septiembre	2023-09-28T00:00:00	2024-11-08T04:00:00	7	Dirección del viento	3.22
175087	7	Sololá	719	Santiago Atitlán	14	Cerro de Oro	9	Septiembre	2023-09-28T00:00:00	2024-11-08T04:00:00	1	Precipitación	0
175088	7	Sololá	719	Santiago Atitlán	14	Cerro de Oro	9	Septiembre	2023-09-28T00:00:00	2024-11-08T04:00:00	8	Radiación solar	0
175089	7	Sololá	719	Santiago Atitlán	14	Cerro de Oro	9	Septiembre	2023-09-28T00:00:00	2024-11-08T05:00:00	2	Temperatura media	18.5
175090	7	Sololá	719	Santiago Atitlán	14	Cerro de Oro	9	Septiembre	2023-09-28T00:00:00	2024-11-08T05:00:00	4	Temperatura máxima	18.9
175091	7	Sololá	719	Santiago Atitlán	14	Cerro de Oro	9	Septiembre	2023-09-28T00:00:00	2024-11-08T05:00:00	3	Temperatura mínima	18.2
175092	7	Sololá	719	Santiago Atitlán	14	Cerro de Oro	9	Septiembre	2023-09-28T00:00:00	2024-11-08T05:00:00	5	Humedad	85
175093	7	Sololá	719	Santiago Atitlán	14	Cerro de Oro	9	Septiembre	2023-09-28T00:00:00	2024-11-08T05:00:00	6	Velocidad del viento	4.8
175094	7	Sololá	719	Santiago Atitlán	14	Cerro de Oro	9	Septiembre	2023-09-28T00:00:00	2024-11-08T05:00:00	7	Dirección del viento	4.83
175095	7	Sololá	719	Santiago Atitlán	14	Cerro de Oro	9	Septiembre	2023-09-28T00:00:00	2024-11-08T05:00:00	1	Precipitación	0
175096	7	Sololá	719	Santiago Atitlán	14	Cerro de Oro	9	Septiembre	2023-09-28T00:00:00	2024-11-08T05:00:00	8	Radiación solar	0
175097	7	Sololá	719	Santiago Atitlán	14	Cerro de Oro	9	Septiembre	2023-09-28T00:00:00	2024-11-08T06:00:00	2	Temperatura media	18.6
175098	7	Sololá	719	Santiago Atitlán	14	Cerro de Oro	9	Septiembre	2023-09-28T00:00:00	2024-11-08T06:00:00	4	Temperatura máxima	18.7
175099	7	Sololá	719	Santiago Atitlán	14	Cerro de Oro	9	Septiembre	2023-09-28T00:00:00	2024-11-08T06:00:00	3	Temperatura mínima	18.4
175100	7	Sololá	719	Santiago Atitlán	14	Cerro de Oro	9	Septiembre	2023-09-28T00:00:00	2024-11-08T06:00:00	5	Humedad	85
175101	7	Sololá	719	Santiago Atitlán	14	Cerro de Oro	9	Septiembre	2023-09-28T00:00:00	2024-11-08T06:00:00	6	Velocidad del viento	3.2
175102	7	Sololá	719	Santiago Atitlán	14	Cerro de Oro	9	Septiembre	2023-09-28T00:00:00	2024-11-08T06:00:00	7	Dirección del viento	3.22
175103	7	Sololá	719	Santiago Atitlán	14	Cerro de Oro	9	Septiembre	2023-09-28T00:00:00	2024-11-08T06:00:00	1	Precipitación	0
175104	7	Sololá	719	Santiago Atitlán	14	Cerro de Oro	9	Septiembre	2023-09-28T00:00:00	2024-11-08T06:00:00	8	Radiación solar	0
175105	7	Sololá	719	Santiago Atitlán	14	Cerro de Oro	9	Septiembre	2023-09-28T00:00:00	2024-11-08T07:00:00	2	Temperatura media	19.7
175106	7	Sololá	719	Santiago Atitlán	14	Cerro de Oro	9	Septiembre	2023-09-28T00:00:00	2024-11-08T07:00:00	4	Temperatura máxima	19.7
175107	7	Sololá	719	Santiago Atitlán	14	Cerro de Oro	9	Septiembre	2023-09-28T00:00:00	2024-11-08T07:00:00	3	Temperatura mínima	18.4
175108	7	Sololá	719	Santiago Atitlán	14	Cerro de Oro	9	Septiembre	2023-09-28T00:00:00	2024-11-08T07:00:00	5	Humedad	84
175109	7	Sololá	719	Santiago Atitlán	14	Cerro de Oro	9	Septiembre	2023-09-28T00:00:00	2024-11-08T07:00:00	6	Velocidad del viento	3.2
175110	7	Sololá	719	Santiago Atitlán	14	Cerro de Oro	9	Septiembre	2023-09-28T00:00:00	2024-11-08T07:00:00	7	Dirección del viento	3.22
175111	7	Sololá	719	Santiago Atitlán	14	Cerro de Oro	9	Septiembre	2023-09-28T00:00:00	2024-11-08T07:00:00	1	Precipitación	0
175112	7	Sololá	719	Santiago Atitlán	14	Cerro de Oro	9	Septiembre	2023-09-28T00:00:00	2024-11-08T07:00:00	8	Radiación solar	52
175113	7	Sololá	719	Santiago Atitlán	14	Cerro de Oro	9	Septiembre	2023-09-28T00:00:00	2024-11-08T08:00:00	2	Temperatura media	21.5
175114	7	Sololá	719	Santiago Atitlán	14	Cerro de Oro	9	Septiembre	2023-09-28T00:00:00	2024-11-08T08:00:00	4	Temperatura máxima	21.5
175115	7	Sololá	719	Santiago Atitlán	14	Cerro de Oro	9	Septiembre	2023-09-28T00:00:00	2024-11-08T08:00:00	3	Temperatura mínima	19.7
175116	7	Sololá	719	Santiago Atitlán	14	Cerro de Oro	9	Septiembre	2023-09-28T00:00:00	2024-11-08T08:00:00	5	Humedad	76
175117	7	Sololá	719	Santiago Atitlán	14	Cerro de Oro	9	Septiembre	2023-09-28T00:00:00	2024-11-08T08:00:00	6	Velocidad del viento	1.6
175118	7	Sololá	719	Santiago Atitlán	14	Cerro de Oro	9	Septiembre	2023-09-28T00:00:00	2024-11-08T08:00:00	7	Dirección del viento	1.61
175119	7	Sololá	719	Santiago Atitlán	14	Cerro de Oro	9	Septiembre	2023-09-28T00:00:00	2024-11-08T08:00:00	1	Precipitación	0
175120	7	Sololá	719	Santiago Atitlán	14	Cerro de Oro	9	Septiembre	2023-09-28T00:00:00	2024-11-08T08:00:00	8	Radiación solar	215
175121	7	Sololá	719	Santiago Atitlán	14	Cerro de Oro	9	Septiembre	2023-09-28T00:00:00	2024-11-08T09:00:00	2	Temperatura media	22.4
175122	7	Sololá	719	Santiago Atitlán	14	Cerro de Oro	9	Septiembre	2023-09-28T00:00:00	2024-11-08T09:00:00	4	Temperatura máxima	22.4
175123	7	Sololá	719	Santiago Atitlán	14	Cerro de Oro	9	Septiembre	2023-09-28T00:00:00	2024-11-08T09:00:00	3	Temperatura mínima	21.5
175124	7	Sololá	719	Santiago Atitlán	14	Cerro de Oro	9	Septiembre	2023-09-28T00:00:00	2024-11-08T09:00:00	5	Humedad	76
175125	7	Sololá	719	Santiago Atitlán	14	Cerro de Oro	9	Septiembre	2023-09-28T00:00:00	2024-11-08T09:00:00	6	Velocidad del viento	3.2
175126	7	Sololá	719	Santiago Atitlán	14	Cerro de Oro	9	Septiembre	2023-09-28T00:00:00	2024-11-08T09:00:00	7	Dirección del viento	3.22
175127	7	Sololá	719	Santiago Atitlán	14	Cerro de Oro	9	Septiembre	2023-09-28T00:00:00	2024-11-08T09:00:00	1	Precipitación	0
175128	7	Sololá	719	Santiago Atitlán	14	Cerro de Oro	9	Septiembre	2023-09-28T00:00:00	2024-11-08T09:00:00	8	Radiación solar	467
175129	7	Sololá	719	Santiago Atitlán	14	Cerro de Oro	9	Septiembre	2023-09-28T00:00:00	2024-11-08T10:00:00	2	Temperatura media	23.5
175130	7	Sololá	719	Santiago Atitlán	14	Cerro de Oro	9	Septiembre	2023-09-28T00:00:00	2024-11-08T10:00:00	4	Temperatura máxima	23.5
175131	7	Sololá	719	Santiago Atitlán	14	Cerro de Oro	9	Septiembre	2023-09-28T00:00:00	2024-11-08T10:00:00	3	Temperatura mínima	22.4
175132	7	Sololá	719	Santiago Atitlán	14	Cerro de Oro	9	Septiembre	2023-09-28T00:00:00	2024-11-08T10:00:00	5	Humedad	69
175133	7	Sololá	719	Santiago Atitlán	14	Cerro de Oro	9	Septiembre	2023-09-28T00:00:00	2024-11-08T10:00:00	6	Velocidad del viento	3.2
175134	7	Sololá	719	Santiago Atitlán	14	Cerro de Oro	9	Septiembre	2023-09-28T00:00:00	2024-11-08T10:00:00	7	Dirección del viento	3.22
175135	7	Sololá	719	Santiago Atitlán	14	Cerro de Oro	9	Septiembre	2023-09-28T00:00:00	2024-11-08T10:00:00	1	Precipitación	0
175136	7	Sololá	719	Santiago Atitlán	14	Cerro de Oro	9	Septiembre	2023-09-28T00:00:00	2024-11-08T10:00:00	8	Radiación solar	703
175137	7	Sololá	719	Santiago Atitlán	14	Cerro de Oro	9	Septiembre	2023-09-28T00:00:00	2024-11-08T11:00:00	2	Temperatura media	24.6
175138	7	Sololá	719	Santiago Atitlán	14	Cerro de Oro	9	Septiembre	2023-09-28T00:00:00	2024-11-08T11:00:00	4	Temperatura máxima	24.9
175139	7	Sololá	719	Santiago Atitlán	14	Cerro de Oro	9	Septiembre	2023-09-28T00:00:00	2024-11-08T11:00:00	3	Temperatura mínima	23.4
175140	7	Sololá	719	Santiago Atitlán	14	Cerro de Oro	9	Septiembre	2023-09-28T00:00:00	2024-11-08T11:00:00	5	Humedad	70
175141	7	Sololá	719	Santiago Atitlán	14	Cerro de Oro	9	Septiembre	2023-09-28T00:00:00	2024-11-08T11:00:00	6	Velocidad del viento	6.4
175142	7	Sololá	719	Santiago Atitlán	14	Cerro de Oro	9	Septiembre	2023-09-28T00:00:00	2024-11-08T11:00:00	7	Dirección del viento	6.44
175143	7	Sololá	719	Santiago Atitlán	14	Cerro de Oro	9	Septiembre	2023-09-28T00:00:00	2024-11-08T11:00:00	1	Precipitación	0
175144	7	Sololá	719	Santiago Atitlán	14	Cerro de Oro	9	Septiembre	2023-09-28T00:00:00	2024-11-08T11:00:00	8	Radiación solar	847
175145	7	Sololá	719	Santiago Atitlán	14	Cerro de Oro	9	Septiembre	2023-09-28T00:00:00	2024-11-08T12:00:00	2	Temperatura media	25.3
175146	7	Sololá	719	Santiago Atitlán	14	Cerro de Oro	9	Septiembre	2023-09-28T00:00:00	2024-11-08T12:00:00	4	Temperatura máxima	25.4
175147	7	Sololá	719	Santiago Atitlán	14	Cerro de Oro	9	Septiembre	2023-09-28T00:00:00	2024-11-08T12:00:00	3	Temperatura mínima	24.5
175148	7	Sololá	719	Santiago Atitlán	14	Cerro de Oro	9	Septiembre	2023-09-28T00:00:00	2024-11-08T12:00:00	5	Humedad	73
175149	7	Sololá	719	Santiago Atitlán	14	Cerro de Oro	9	Septiembre	2023-09-28T00:00:00	2024-11-08T12:00:00	6	Velocidad del viento	9.7
175150	7	Sololá	719	Santiago Atitlán	14	Cerro de Oro	9	Septiembre	2023-09-28T00:00:00	2024-11-08T12:00:00	7	Dirección del viento	9.66
175151	7	Sololá	719	Santiago Atitlán	14	Cerro de Oro	9	Septiembre	2023-09-28T00:00:00	2024-11-08T12:00:00	1	Precipitación	0
175152	7	Sololá	719	Santiago Atitlán	14	Cerro de Oro	9	Septiembre	2023-09-28T00:00:00	2024-11-08T12:00:00	8	Radiación solar	943
175153	7	Sololá	719	Santiago Atitlán	14	Cerro de Oro	9	Septiembre	2023-09-28T00:00:00	2024-11-08T13:00:00	2	Temperatura media	24.5
175154	7	Sololá	719	Santiago Atitlán	14	Cerro de Oro	9	Septiembre	2023-09-28T00:00:00	2024-11-08T13:00:00	4	Temperatura máxima	25.5
175155	7	Sololá	719	Santiago Atitlán	14	Cerro de Oro	9	Septiembre	2023-09-28T00:00:00	2024-11-08T13:00:00	3	Temperatura mínima	24.5
175156	7	Sololá	719	Santiago Atitlán	14	Cerro de Oro	9	Septiembre	2023-09-28T00:00:00	2024-11-08T13:00:00	5	Humedad	76
175157	7	Sololá	719	Santiago Atitlán	14	Cerro de Oro	9	Septiembre	2023-09-28T00:00:00	2024-11-08T13:00:00	6	Velocidad del viento	11.3
175158	7	Sololá	719	Santiago Atitlán	14	Cerro de Oro	9	Septiembre	2023-09-28T00:00:00	2024-11-08T13:00:00	7	Dirección del viento	11.27
175159	7	Sololá	719	Santiago Atitlán	14	Cerro de Oro	9	Septiembre	2023-09-28T00:00:00	2024-11-08T13:00:00	1	Precipitación	0
175160	7	Sololá	719	Santiago Atitlán	14	Cerro de Oro	9	Septiembre	2023-09-28T00:00:00	2024-11-08T13:00:00	8	Radiación solar	956
175161	7	Sololá	719	Santiago Atitlán	14	Cerro de Oro	9	Septiembre	2023-09-28T00:00:00	2024-11-08T14:00:00	2	Temperatura media	25.3
175162	7	Sololá	719	Santiago Atitlán	14	Cerro de Oro	9	Septiembre	2023-09-28T00:00:00	2024-11-08T14:00:00	4	Temperatura máxima	25.5
175163	7	Sololá	719	Santiago Atitlán	14	Cerro de Oro	9	Septiembre	2023-09-28T00:00:00	2024-11-08T14:00:00	3	Temperatura mínima	24.1
175164	7	Sololá	719	Santiago Atitlán	14	Cerro de Oro	9	Septiembre	2023-09-28T00:00:00	2024-11-08T14:00:00	5	Humedad	75
175165	7	Sololá	719	Santiago Atitlán	14	Cerro de Oro	9	Septiembre	2023-09-28T00:00:00	2024-11-08T14:00:00	6	Velocidad del viento	11.3
175166	7	Sololá	719	Santiago Atitlán	14	Cerro de Oro	9	Septiembre	2023-09-28T00:00:00	2024-11-08T14:00:00	7	Dirección del viento	11.27
175167	7	Sololá	719	Santiago Atitlán	14	Cerro de Oro	9	Septiembre	2023-09-28T00:00:00	2024-11-08T14:00:00	1	Precipitación	0
175168	7	Sololá	719	Santiago Atitlán	14	Cerro de Oro	9	Septiembre	2023-09-28T00:00:00	2024-11-08T14:00:00	8	Radiación solar	992
175169	7	Sololá	719	Santiago Atitlán	14	Cerro de Oro	9	Septiembre	2023-09-28T00:00:00	2024-11-08T15:00:00	2	Temperatura media	19.5
175170	7	Sololá	719	Santiago Atitlán	14	Cerro de Oro	9	Septiembre	2023-09-28T00:00:00	2024-11-08T15:00:00	4	Temperatura máxima	25.3
175171	7	Sololá	719	Santiago Atitlán	14	Cerro de Oro	9	Septiembre	2023-09-28T00:00:00	2024-11-08T15:00:00	3	Temperatura mínima	19.5
175172	7	Sololá	719	Santiago Atitlán	14	Cerro de Oro	9	Septiembre	2023-09-28T00:00:00	2024-11-08T15:00:00	5	Humedad	87
175173	7	Sololá	719	Santiago Atitlán	14	Cerro de Oro	9	Septiembre	2023-09-28T00:00:00	2024-11-08T15:00:00	6	Velocidad del viento	12.9
175174	7	Sololá	719	Santiago Atitlán	14	Cerro de Oro	9	Septiembre	2023-09-28T00:00:00	2024-11-08T15:00:00	7	Dirección del viento	12.87
175175	7	Sololá	719	Santiago Atitlán	14	Cerro de Oro	9	Septiembre	2023-09-28T00:00:00	2024-11-08T15:00:00	1	Precipitación	10.6
175176	7	Sololá	719	Santiago Atitlán	14	Cerro de Oro	9	Septiembre	2023-09-28T00:00:00	2024-11-08T15:00:00	8	Radiación solar	138
175177	7	Sololá	719	Santiago Atitlán	14	Cerro de Oro	9	Septiembre	2023-09-28T00:00:00	2024-11-08T16:00:00	2	Temperatura media	19.9
175178	7	Sololá	719	Santiago Atitlán	14	Cerro de Oro	9	Septiembre	2023-09-28T00:00:00	2024-11-08T16:00:00	4	Temperatura máxima	19.9
175179	7	Sololá	719	Santiago Atitlán	14	Cerro de Oro	9	Septiembre	2023-09-28T00:00:00	2024-11-08T16:00:00	3	Temperatura mínima	19.3
175180	7	Sololá	719	Santiago Atitlán	14	Cerro de Oro	9	Septiembre	2023-09-28T00:00:00	2024-11-08T16:00:00	5	Humedad	89
175181	7	Sololá	719	Santiago Atitlán	14	Cerro de Oro	9	Septiembre	2023-09-28T00:00:00	2024-11-08T16:00:00	6	Velocidad del viento	6.4
175182	7	Sololá	719	Santiago Atitlán	14	Cerro de Oro	9	Septiembre	2023-09-28T00:00:00	2024-11-08T16:00:00	7	Dirección del viento	6.44
175183	7	Sololá	719	Santiago Atitlán	14	Cerro de Oro	9	Septiembre	2023-09-28T00:00:00	2024-11-08T16:00:00	1	Precipitación	0.4
175184	7	Sololá	719	Santiago Atitlán	14	Cerro de Oro	9	Septiembre	2023-09-28T00:00:00	2024-11-08T16:00:00	8	Radiación solar	21
175185	7	Sololá	719	Santiago Atitlán	14	Cerro de Oro	9	Septiembre	2023-09-28T00:00:00	2024-11-08T17:00:00	2	Temperatura media	19.3
175186	7	Sololá	719	Santiago Atitlán	14	Cerro de Oro	9	Septiembre	2023-09-28T00:00:00	2024-11-08T17:00:00	4	Temperatura máxima	19.9
175187	7	Sololá	719	Santiago Atitlán	14	Cerro de Oro	9	Septiembre	2023-09-28T00:00:00	2024-11-08T17:00:00	3	Temperatura mínima	19.2
175188	7	Sololá	719	Santiago Atitlán	14	Cerro de Oro	9	Septiembre	2023-09-28T00:00:00	2024-11-08T17:00:00	5	Humedad	92
175189	7	Sololá	719	Santiago Atitlán	14	Cerro de Oro	9	Septiembre	2023-09-28T00:00:00	2024-11-08T17:00:00	6	Velocidad del viento	3.2
175190	7	Sololá	719	Santiago Atitlán	14	Cerro de Oro	9	Septiembre	2023-09-28T00:00:00	2024-11-08T17:00:00	7	Dirección del viento	3.22
175191	7	Sololá	719	Santiago Atitlán	14	Cerro de Oro	9	Septiembre	2023-09-28T00:00:00	2024-11-08T17:00:00	1	Precipitación	0.2
175192	7	Sololá	719	Santiago Atitlán	14	Cerro de Oro	9	Septiembre	2023-09-28T00:00:00	2024-11-08T17:00:00	8	Radiación solar	5
175193	7	Sololá	719	Santiago Atitlán	14	Cerro de Oro	9	Septiembre	2023-09-28T00:00:00	2024-11-08T18:00:00	2	Temperatura media	19
175194	7	Sololá	719	Santiago Atitlán	14	Cerro de Oro	9	Septiembre	2023-09-28T00:00:00	2024-11-08T18:00:00	4	Temperatura máxima	19.3
175195	7	Sololá	719	Santiago Atitlán	14	Cerro de Oro	9	Septiembre	2023-09-28T00:00:00	2024-11-08T18:00:00	3	Temperatura mínima	18.8
175196	7	Sololá	719	Santiago Atitlán	14	Cerro de Oro	9	Septiembre	2023-09-28T00:00:00	2024-11-08T18:00:00	5	Humedad	93
175197	7	Sololá	719	Santiago Atitlán	14	Cerro de Oro	9	Septiembre	2023-09-28T00:00:00	2024-11-08T18:00:00	6	Velocidad del viento	3.2
175198	7	Sololá	719	Santiago Atitlán	14	Cerro de Oro	9	Septiembre	2023-09-28T00:00:00	2024-11-08T18:00:00	7	Dirección del viento	3.22
175199	7	Sololá	719	Santiago Atitlán	14	Cerro de Oro	9	Septiembre	2023-09-28T00:00:00	2024-11-08T18:00:00	1	Precipitación	2
175200	7	Sololá	719	Santiago Atitlán	14	Cerro de Oro	9	Septiembre	2023-09-28T00:00:00	2024-11-08T18:00:00	8	Radiación solar	0
175201	7	Sololá	719	Santiago Atitlán	14	Cerro de Oro	9	Septiembre	2023-09-28T00:00:00	2024-11-08T19:00:00	2	Temperatura media	19.1
175202	7	Sololá	719	Santiago Atitlán	14	Cerro de Oro	9	Septiembre	2023-09-28T00:00:00	2024-11-08T19:00:00	4	Temperatura máxima	19.2
175203	7	Sololá	719	Santiago Atitlán	14	Cerro de Oro	9	Septiembre	2023-09-28T00:00:00	2024-11-08T19:00:00	3	Temperatura mínima	18.9
175204	7	Sololá	719	Santiago Atitlán	14	Cerro de Oro	9	Septiembre	2023-09-28T00:00:00	2024-11-08T19:00:00	5	Humedad	93
175205	7	Sololá	719	Santiago Atitlán	14	Cerro de Oro	9	Septiembre	2023-09-28T00:00:00	2024-11-08T19:00:00	6	Velocidad del viento	1.6
175206	7	Sololá	719	Santiago Atitlán	14	Cerro de Oro	9	Septiembre	2023-09-28T00:00:00	2024-11-08T19:00:00	7	Dirección del viento	1.61
175207	7	Sololá	719	Santiago Atitlán	14	Cerro de Oro	9	Septiembre	2023-09-28T00:00:00	2024-11-08T19:00:00	1	Precipitación	0.2
175208	7	Sololá	719	Santiago Atitlán	14	Cerro de Oro	9	Septiembre	2023-09-28T00:00:00	2024-11-08T19:00:00	8	Radiación solar	0
175209	7	Sololá	719	Santiago Atitlán	14	Cerro de Oro	9	Septiembre	2023-09-28T00:00:00	2024-11-08T20:00:00	2	Temperatura media	18.9
175210	7	Sololá	719	Santiago Atitlán	14	Cerro de Oro	9	Septiembre	2023-09-28T00:00:00	2024-11-08T20:00:00	4	Temperatura máxima	19.1
175211	7	Sololá	719	Santiago Atitlán	14	Cerro de Oro	9	Septiembre	2023-09-28T00:00:00	2024-11-08T20:00:00	3	Temperatura mínima	18.8
175212	7	Sololá	719	Santiago Atitlán	14	Cerro de Oro	9	Septiembre	2023-09-28T00:00:00	2024-11-08T20:00:00	5	Humedad	93
175213	7	Sololá	719	Santiago Atitlán	14	Cerro de Oro	9	Septiembre	2023-09-28T00:00:00	2024-11-08T20:00:00	6	Velocidad del viento	3.2
175214	7	Sololá	719	Santiago Atitlán	14	Cerro de Oro	9	Septiembre	2023-09-28T00:00:00	2024-11-08T20:00:00	7	Dirección del viento	3.22
175215	7	Sololá	719	Santiago Atitlán	14	Cerro de Oro	9	Septiembre	2023-09-28T00:00:00	2024-11-08T20:00:00	1	Precipitación	0.2
175216	7	Sololá	719	Santiago Atitlán	14	Cerro de Oro	9	Septiembre	2023-09-28T00:00:00	2024-11-08T20:00:00	8	Radiación solar	0
175217	7	Sololá	719	Santiago Atitlán	14	Cerro de Oro	9	Septiembre	2023-09-28T00:00:00	2024-11-08T21:00:00	2	Temperatura media	18.8
175218	7	Sololá	719	Santiago Atitlán	14	Cerro de Oro	9	Septiembre	2023-09-28T00:00:00	2024-11-08T21:00:00	4	Temperatura máxima	19
175219	7	Sololá	719	Santiago Atitlán	14	Cerro de Oro	9	Septiembre	2023-09-28T00:00:00	2024-11-08T21:00:00	3	Temperatura mínima	18.7
175220	7	Sololá	719	Santiago Atitlán	14	Cerro de Oro	9	Septiembre	2023-09-28T00:00:00	2024-11-08T21:00:00	5	Humedad	93
175221	7	Sololá	719	Santiago Atitlán	14	Cerro de Oro	9	Septiembre	2023-09-28T00:00:00	2024-11-08T21:00:00	6	Velocidad del viento	4.8
175222	7	Sololá	719	Santiago Atitlán	14	Cerro de Oro	9	Septiembre	2023-09-28T00:00:00	2024-11-08T21:00:00	7	Dirección del viento	4.83
175223	7	Sololá	719	Santiago Atitlán	14	Cerro de Oro	9	Septiembre	2023-09-28T00:00:00	2024-11-08T21:00:00	1	Precipitación	0
175224	7	Sololá	719	Santiago Atitlán	14	Cerro de Oro	9	Septiembre	2023-09-28T00:00:00	2024-11-08T21:00:00	8	Radiación solar	0
175225	7	Sololá	719	Santiago Atitlán	14	Cerro de Oro	9	Septiembre	2023-09-28T00:00:00	2024-11-08T22:00:00	2	Temperatura media	18.6
175226	7	Sololá	719	Santiago Atitlán	14	Cerro de Oro	9	Septiembre	2023-09-28T00:00:00	2024-11-08T22:00:00	4	Temperatura máxima	18.9
175227	7	Sololá	719	Santiago Atitlán	14	Cerro de Oro	9	Septiembre	2023-09-28T00:00:00	2024-11-08T22:00:00	3	Temperatura mínima	18.6
175228	7	Sololá	719	Santiago Atitlán	14	Cerro de Oro	9	Septiembre	2023-09-28T00:00:00	2024-11-08T22:00:00	5	Humedad	93
175229	7	Sololá	719	Santiago Atitlán	14	Cerro de Oro	9	Septiembre	2023-09-28T00:00:00	2024-11-08T22:00:00	6	Velocidad del viento	1.6
175230	7	Sololá	719	Santiago Atitlán	14	Cerro de Oro	9	Septiembre	2023-09-28T00:00:00	2024-11-08T22:00:00	7	Dirección del viento	1.61
175231	7	Sololá	719	Santiago Atitlán	14	Cerro de Oro	9	Septiembre	2023-09-28T00:00:00	2024-11-08T22:00:00	1	Precipitación	0
175232	7	Sololá	719	Santiago Atitlán	14	Cerro de Oro	9	Septiembre	2023-09-28T00:00:00	2024-11-08T22:00:00	8	Radiación solar	0
175233	7	Sololá	719	Santiago Atitlán	14	Cerro de Oro	9	Septiembre	2023-09-28T00:00:00	2024-11-08T23:00:00	2	Temperatura media	18.6
175234	7	Sololá	719	Santiago Atitlán	14	Cerro de Oro	9	Septiembre	2023-09-28T00:00:00	2024-11-08T23:00:00	4	Temperatura máxima	18.7
175235	7	Sololá	719	Santiago Atitlán	14	Cerro de Oro	9	Septiembre	2023-09-28T00:00:00	2024-11-08T23:00:00	3	Temperatura mínima	18.2
175236	7	Sololá	719	Santiago Atitlán	14	Cerro de Oro	9	Septiembre	2023-09-28T00:00:00	2024-11-08T23:00:00	5	Humedad	93
175237	7	Sololá	719	Santiago Atitlán	14	Cerro de Oro	9	Septiembre	2023-09-28T00:00:00	2024-11-08T23:00:00	6	Velocidad del viento	3.2
175238	7	Sololá	719	Santiago Atitlán	14	Cerro de Oro	9	Septiembre	2023-09-28T00:00:00	2024-11-08T23:00:00	7	Dirección del viento	3.22
175239	7	Sololá	719	Santiago Atitlán	14	Cerro de Oro	9	Septiembre	2023-09-28T00:00:00	2024-11-08T23:00:00	1	Precipitación	0
175240	7	Sololá	719	Santiago Atitlán	14	Cerro de Oro	9	Septiembre	2023-09-28T00:00:00	2024-11-08T23:00:00	8	Radiación solar	0
175241	7	Sololá	719	Santiago Atitlán	14	Cerro de Oro	9	Septiembre	2023-09-29T00:00:00	2024-11-08T00:00:00	2	Temperatura media	18.6
175242	7	Sololá	719	Santiago Atitlán	14	Cerro de Oro	9	Septiembre	2023-09-29T00:00:00	2024-11-08T00:00:00	4	Temperatura máxima	18.9
175243	7	Sololá	719	Santiago Atitlán	14	Cerro de Oro	9	Septiembre	2023-09-29T00:00:00	2024-11-08T00:00:00	3	Temperatura mínima	18.3
175244	7	Sololá	719	Santiago Atitlán	14	Cerro de Oro	9	Septiembre	2023-09-29T00:00:00	2024-11-08T00:00:00	5	Humedad	91
175245	7	Sololá	719	Santiago Atitlán	14	Cerro de Oro	9	Septiembre	2023-09-29T00:00:00	2024-11-08T00:00:00	6	Velocidad del viento	4.8
175246	7	Sololá	719	Santiago Atitlán	14	Cerro de Oro	9	Septiembre	2023-09-29T00:00:00	2024-11-08T00:00:00	7	Dirección del viento	4.83
175247	7	Sololá	719	Santiago Atitlán	14	Cerro de Oro	9	Septiembre	2023-09-29T00:00:00	2024-11-08T00:00:00	1	Precipitación	0
175248	7	Sololá	719	Santiago Atitlán	14	Cerro de Oro	9	Septiembre	2023-09-29T00:00:00	2024-11-08T00:00:00	8	Radiación solar	0
175249	7	Sololá	719	Santiago Atitlán	14	Cerro de Oro	9	Septiembre	2023-09-29T00:00:00	2024-11-08T01:00:00	2	Temperatura media	18.5
175250	7	Sololá	719	Santiago Atitlán	14	Cerro de Oro	9	Septiembre	2023-09-29T00:00:00	2024-11-08T01:00:00	4	Temperatura máxima	18.7
175251	7	Sololá	719	Santiago Atitlán	14	Cerro de Oro	9	Septiembre	2023-09-29T00:00:00	2024-11-08T01:00:00	3	Temperatura mínima	18.4
175252	7	Sololá	719	Santiago Atitlán	14	Cerro de Oro	9	Septiembre	2023-09-29T00:00:00	2024-11-08T01:00:00	5	Humedad	89
175253	7	Sololá	719	Santiago Atitlán	14	Cerro de Oro	9	Septiembre	2023-09-29T00:00:00	2024-11-08T01:00:00	6	Velocidad del viento	6.4
175254	7	Sololá	719	Santiago Atitlán	14	Cerro de Oro	9	Septiembre	2023-09-29T00:00:00	2024-11-08T01:00:00	7	Dirección del viento	6.44
175255	7	Sololá	719	Santiago Atitlán	14	Cerro de Oro	9	Septiembre	2023-09-29T00:00:00	2024-11-08T01:00:00	1	Precipitación	0
175256	7	Sololá	719	Santiago Atitlán	14	Cerro de Oro	9	Septiembre	2023-09-29T00:00:00	2024-11-08T01:00:00	8	Radiación solar	0
175257	7	Sololá	719	Santiago Atitlán	14	Cerro de Oro	9	Septiembre	2023-09-29T00:00:00	2024-11-08T02:00:00	2	Temperatura media	19.1
175258	7	Sololá	719	Santiago Atitlán	14	Cerro de Oro	9	Septiembre	2023-09-29T00:00:00	2024-11-08T02:00:00	4	Temperatura máxima	19.4
175259	7	Sololá	719	Santiago Atitlán	14	Cerro de Oro	9	Septiembre	2023-09-29T00:00:00	2024-11-08T02:00:00	3	Temperatura mínima	18.4
175260	7	Sololá	719	Santiago Atitlán	14	Cerro de Oro	9	Septiembre	2023-09-29T00:00:00	2024-11-08T02:00:00	5	Humedad	86
175261	7	Sololá	719	Santiago Atitlán	14	Cerro de Oro	9	Septiembre	2023-09-29T00:00:00	2024-11-08T02:00:00	6	Velocidad del viento	6.4
175262	7	Sololá	719	Santiago Atitlán	14	Cerro de Oro	9	Septiembre	2023-09-29T00:00:00	2024-11-08T02:00:00	7	Dirección del viento	6.44
175263	7	Sololá	719	Santiago Atitlán	14	Cerro de Oro	9	Septiembre	2023-09-29T00:00:00	2024-11-08T02:00:00	1	Precipitación	0
175264	7	Sololá	719	Santiago Atitlán	14	Cerro de Oro	9	Septiembre	2023-09-29T00:00:00	2024-11-08T02:00:00	8	Radiación solar	0
175265	7	Sololá	719	Santiago Atitlán	14	Cerro de Oro	9	Septiembre	2023-09-29T00:00:00	2024-11-08T03:00:00	2	Temperatura media	19.2
175266	7	Sololá	719	Santiago Atitlán	14	Cerro de Oro	9	Septiembre	2023-09-29T00:00:00	2024-11-08T03:00:00	4	Temperatura máxima	19.3
175267	7	Sololá	719	Santiago Atitlán	14	Cerro de Oro	9	Septiembre	2023-09-29T00:00:00	2024-11-08T03:00:00	3	Temperatura mínima	19
175268	7	Sololá	719	Santiago Atitlán	14	Cerro de Oro	9	Septiembre	2023-09-29T00:00:00	2024-11-08T03:00:00	5	Humedad	86
175269	7	Sololá	719	Santiago Atitlán	14	Cerro de Oro	9	Septiembre	2023-09-29T00:00:00	2024-11-08T03:00:00	6	Velocidad del viento	3.2
175270	7	Sololá	719	Santiago Atitlán	14	Cerro de Oro	9	Septiembre	2023-09-29T00:00:00	2024-11-08T03:00:00	7	Dirección del viento	3.22
175271	7	Sololá	719	Santiago Atitlán	14	Cerro de Oro	9	Septiembre	2023-09-29T00:00:00	2024-11-08T03:00:00	1	Precipitación	0
175272	7	Sololá	719	Santiago Atitlán	14	Cerro de Oro	9	Septiembre	2023-09-29T00:00:00	2024-11-08T03:00:00	8	Radiación solar	0
175273	7	Sololá	719	Santiago Atitlán	14	Cerro de Oro	9	Septiembre	2023-09-29T00:00:00	2024-11-08T04:00:00	2	Temperatura media	19
175274	7	Sololá	719	Santiago Atitlán	14	Cerro de Oro	9	Septiembre	2023-09-29T00:00:00	2024-11-08T04:00:00	4	Temperatura máxima	19.4
175275	7	Sololá	719	Santiago Atitlán	14	Cerro de Oro	9	Septiembre	2023-09-29T00:00:00	2024-11-08T04:00:00	3	Temperatura mínima	18.8
175276	7	Sololá	719	Santiago Atitlán	14	Cerro de Oro	9	Septiembre	2023-09-29T00:00:00	2024-11-08T04:00:00	5	Humedad	85
175277	7	Sololá	719	Santiago Atitlán	14	Cerro de Oro	9	Septiembre	2023-09-29T00:00:00	2024-11-08T04:00:00	6	Velocidad del viento	4.8
175278	7	Sololá	719	Santiago Atitlán	14	Cerro de Oro	9	Septiembre	2023-09-29T00:00:00	2024-11-08T04:00:00	7	Dirección del viento	4.83
175279	7	Sololá	719	Santiago Atitlán	14	Cerro de Oro	9	Septiembre	2023-09-29T00:00:00	2024-11-08T04:00:00	1	Precipitación	0
175280	7	Sololá	719	Santiago Atitlán	14	Cerro de Oro	9	Septiembre	2023-09-29T00:00:00	2024-11-08T04:00:00	8	Radiación solar	0
175281	7	Sololá	719	Santiago Atitlán	14	Cerro de Oro	9	Septiembre	2023-09-29T00:00:00	2024-11-08T05:00:00	2	Temperatura media	18.9
175282	7	Sololá	719	Santiago Atitlán	14	Cerro de Oro	9	Septiembre	2023-09-29T00:00:00	2024-11-08T05:00:00	4	Temperatura máxima	19.2
175283	7	Sololá	719	Santiago Atitlán	14	Cerro de Oro	9	Septiembre	2023-09-29T00:00:00	2024-11-08T05:00:00	3	Temperatura mínima	18.8
175284	7	Sololá	719	Santiago Atitlán	14	Cerro de Oro	9	Septiembre	2023-09-29T00:00:00	2024-11-08T05:00:00	5	Humedad	85
175285	7	Sololá	719	Santiago Atitlán	14	Cerro de Oro	9	Septiembre	2023-09-29T00:00:00	2024-11-08T05:00:00	6	Velocidad del viento	3.2
175286	7	Sololá	719	Santiago Atitlán	14	Cerro de Oro	9	Septiembre	2023-09-29T00:00:00	2024-11-08T05:00:00	7	Dirección del viento	3.22
175287	7	Sololá	719	Santiago Atitlán	14	Cerro de Oro	9	Septiembre	2023-09-29T00:00:00	2024-11-08T05:00:00	1	Precipitación	0
175288	7	Sololá	719	Santiago Atitlán	14	Cerro de Oro	9	Septiembre	2023-09-29T00:00:00	2024-11-08T05:00:00	8	Radiación solar	0
175289	7	Sololá	719	Santiago Atitlán	14	Cerro de Oro	9	Septiembre	2023-09-29T00:00:00	2024-11-08T06:00:00	2	Temperatura media	19.1
175290	7	Sololá	719	Santiago Atitlán	14	Cerro de Oro	9	Septiembre	2023-09-29T00:00:00	2024-11-08T06:00:00	4	Temperatura máxima	19.2
175291	7	Sololá	719	Santiago Atitlán	14	Cerro de Oro	9	Septiembre	2023-09-29T00:00:00	2024-11-08T06:00:00	3	Temperatura mínima	18.6
175292	7	Sololá	719	Santiago Atitlán	14	Cerro de Oro	9	Septiembre	2023-09-29T00:00:00	2024-11-08T06:00:00	5	Humedad	85
175293	7	Sololá	719	Santiago Atitlán	14	Cerro de Oro	9	Septiembre	2023-09-29T00:00:00	2024-11-08T06:00:00	6	Velocidad del viento	4.8
175294	7	Sololá	719	Santiago Atitlán	14	Cerro de Oro	9	Septiembre	2023-09-29T00:00:00	2024-11-08T06:00:00	7	Dirección del viento	4.83
175295	7	Sololá	719	Santiago Atitlán	14	Cerro de Oro	9	Septiembre	2023-09-29T00:00:00	2024-11-08T06:00:00	1	Precipitación	0
175296	7	Sololá	719	Santiago Atitlán	14	Cerro de Oro	9	Septiembre	2023-09-29T00:00:00	2024-11-08T06:00:00	8	Radiación solar	0
175297	7	Sololá	719	Santiago Atitlán	14	Cerro de Oro	9	Septiembre	2023-09-29T00:00:00	2024-11-08T07:00:00	2	Temperatura media	19.4
175298	7	Sololá	719	Santiago Atitlán	14	Cerro de Oro	9	Septiembre	2023-09-29T00:00:00	2024-11-08T07:00:00	4	Temperatura máxima	19.4
175299	7	Sololá	719	Santiago Atitlán	14	Cerro de Oro	9	Septiembre	2023-09-29T00:00:00	2024-11-08T07:00:00	3	Temperatura mínima	18.6
175300	7	Sololá	719	Santiago Atitlán	14	Cerro de Oro	9	Septiembre	2023-09-29T00:00:00	2024-11-08T07:00:00	5	Humedad	86
175301	7	Sololá	719	Santiago Atitlán	14	Cerro de Oro	9	Septiembre	2023-09-29T00:00:00	2024-11-08T07:00:00	6	Velocidad del viento	3.2
175302	7	Sololá	719	Santiago Atitlán	14	Cerro de Oro	9	Septiembre	2023-09-29T00:00:00	2024-11-08T07:00:00	7	Dirección del viento	3.22
175303	7	Sololá	719	Santiago Atitlán	14	Cerro de Oro	9	Septiembre	2023-09-29T00:00:00	2024-11-08T07:00:00	1	Precipitación	0
175304	7	Sololá	719	Santiago Atitlán	14	Cerro de Oro	9	Septiembre	2023-09-29T00:00:00	2024-11-08T07:00:00	8	Radiación solar	49
175305	7	Sololá	719	Santiago Atitlán	14	Cerro de Oro	9	Septiembre	2023-09-29T00:00:00	2024-11-08T08:00:00	2	Temperatura media	20.3
175306	7	Sololá	719	Santiago Atitlán	14	Cerro de Oro	9	Septiembre	2023-09-29T00:00:00	2024-11-08T08:00:00	4	Temperatura máxima	20.3
175307	7	Sololá	719	Santiago Atitlán	14	Cerro de Oro	9	Septiembre	2023-09-29T00:00:00	2024-11-08T08:00:00	3	Temperatura mínima	19.4
175308	7	Sololá	719	Santiago Atitlán	14	Cerro de Oro	9	Septiembre	2023-09-29T00:00:00	2024-11-08T08:00:00	5	Humedad	87
175309	7	Sololá	719	Santiago Atitlán	14	Cerro de Oro	9	Septiembre	2023-09-29T00:00:00	2024-11-08T08:00:00	6	Velocidad del viento	1.6
175310	7	Sololá	719	Santiago Atitlán	14	Cerro de Oro	9	Septiembre	2023-09-29T00:00:00	2024-11-08T08:00:00	7	Dirección del viento	1.61
175311	7	Sololá	719	Santiago Atitlán	14	Cerro de Oro	9	Septiembre	2023-09-29T00:00:00	2024-11-08T08:00:00	1	Precipitación	0
175312	7	Sololá	719	Santiago Atitlán	14	Cerro de Oro	9	Septiembre	2023-09-29T00:00:00	2024-11-08T08:00:00	8	Radiación solar	131
175313	7	Sololá	719	Santiago Atitlán	14	Cerro de Oro	9	Septiembre	2023-09-29T00:00:00	2024-11-08T09:00:00	2	Temperatura media	21.3
175314	7	Sololá	719	Santiago Atitlán	14	Cerro de Oro	9	Septiembre	2023-09-29T00:00:00	2024-11-08T09:00:00	4	Temperatura máxima	21.4
175315	7	Sololá	719	Santiago Atitlán	14	Cerro de Oro	9	Septiembre	2023-09-29T00:00:00	2024-11-08T09:00:00	3	Temperatura mínima	20.3
175316	7	Sololá	719	Santiago Atitlán	14	Cerro de Oro	9	Septiembre	2023-09-29T00:00:00	2024-11-08T09:00:00	5	Humedad	81
175317	7	Sololá	719	Santiago Atitlán	14	Cerro de Oro	9	Septiembre	2023-09-29T00:00:00	2024-11-08T09:00:00	6	Velocidad del viento	1.6
175318	7	Sololá	719	Santiago Atitlán	14	Cerro de Oro	9	Septiembre	2023-09-29T00:00:00	2024-11-08T09:00:00	7	Dirección del viento	1.61
175319	7	Sololá	719	Santiago Atitlán	14	Cerro de Oro	9	Septiembre	2023-09-29T00:00:00	2024-11-08T09:00:00	1	Precipitación	0
175320	7	Sololá	719	Santiago Atitlán	14	Cerro de Oro	9	Septiembre	2023-09-29T00:00:00	2024-11-08T09:00:00	8	Radiación solar	222
175321	7	Sololá	719	Santiago Atitlán	14	Cerro de Oro	9	Septiembre	2023-09-29T00:00:00	2024-11-08T10:00:00	2	Temperatura media	23.6
175322	7	Sololá	719	Santiago Atitlán	14	Cerro de Oro	9	Septiembre	2023-09-29T00:00:00	2024-11-08T10:00:00	4	Temperatura máxima	23.6
175323	7	Sololá	719	Santiago Atitlán	14	Cerro de Oro	9	Septiembre	2023-09-29T00:00:00	2024-11-08T10:00:00	3	Temperatura mínima	21.3
175324	7	Sololá	719	Santiago Atitlán	14	Cerro de Oro	9	Septiembre	2023-09-29T00:00:00	2024-11-08T10:00:00	5	Humedad	75
175325	7	Sololá	719	Santiago Atitlán	14	Cerro de Oro	9	Septiembre	2023-09-29T00:00:00	2024-11-08T10:00:00	6	Velocidad del viento	1.6
175326	7	Sololá	719	Santiago Atitlán	14	Cerro de Oro	9	Septiembre	2023-09-29T00:00:00	2024-11-08T10:00:00	7	Dirección del viento	1.61
175327	7	Sololá	719	Santiago Atitlán	14	Cerro de Oro	9	Septiembre	2023-09-29T00:00:00	2024-11-08T10:00:00	1	Precipitación	0
175328	7	Sololá	719	Santiago Atitlán	14	Cerro de Oro	9	Septiembre	2023-09-29T00:00:00	2024-11-08T10:00:00	8	Radiación solar	485
175329	7	Sololá	719	Santiago Atitlán	14	Cerro de Oro	9	Septiembre	2023-09-29T00:00:00	2024-11-08T11:00:00	2	Temperatura media	22.6
175330	7	Sololá	719	Santiago Atitlán	14	Cerro de Oro	9	Septiembre	2023-09-29T00:00:00	2024-11-08T11:00:00	4	Temperatura máxima	23.7
175331	7	Sololá	719	Santiago Atitlán	14	Cerro de Oro	9	Septiembre	2023-09-29T00:00:00	2024-11-08T11:00:00	3	Temperatura mínima	22.5
175332	7	Sololá	719	Santiago Atitlán	14	Cerro de Oro	9	Septiembre	2023-09-29T00:00:00	2024-11-08T11:00:00	5	Humedad	81
175333	7	Sololá	719	Santiago Atitlán	14	Cerro de Oro	9	Septiembre	2023-09-29T00:00:00	2024-11-08T11:00:00	6	Velocidad del viento	4.8
175334	7	Sololá	719	Santiago Atitlán	14	Cerro de Oro	9	Septiembre	2023-09-29T00:00:00	2024-11-08T11:00:00	7	Dirección del viento	4.83
175335	7	Sololá	719	Santiago Atitlán	14	Cerro de Oro	9	Septiembre	2023-09-29T00:00:00	2024-11-08T11:00:00	1	Precipitación	0
175336	7	Sololá	719	Santiago Atitlán	14	Cerro de Oro	9	Septiembre	2023-09-29T00:00:00	2024-11-08T11:00:00	8	Radiación solar	587
175337	7	Sololá	719	Santiago Atitlán	14	Cerro de Oro	9	Septiembre	2023-09-29T00:00:00	2024-11-08T12:00:00	2	Temperatura media	23.6
175338	7	Sololá	719	Santiago Atitlán	14	Cerro de Oro	9	Septiembre	2023-09-29T00:00:00	2024-11-08T12:00:00	4	Temperatura máxima	24.1
175339	7	Sololá	719	Santiago Atitlán	14	Cerro de Oro	9	Septiembre	2023-09-29T00:00:00	2024-11-08T12:00:00	3	Temperatura mínima	22.5
175340	7	Sololá	719	Santiago Atitlán	14	Cerro de Oro	9	Septiembre	2023-09-29T00:00:00	2024-11-08T12:00:00	5	Humedad	83
175341	7	Sololá	719	Santiago Atitlán	14	Cerro de Oro	9	Septiembre	2023-09-29T00:00:00	2024-11-08T12:00:00	6	Velocidad del viento	8
175342	7	Sololá	719	Santiago Atitlán	14	Cerro de Oro	9	Septiembre	2023-09-29T00:00:00	2024-11-08T12:00:00	7	Dirección del viento	8.05
175343	7	Sololá	719	Santiago Atitlán	14	Cerro de Oro	9	Septiembre	2023-09-29T00:00:00	2024-11-08T12:00:00	1	Precipitación	0
175344	7	Sololá	719	Santiago Atitlán	14	Cerro de Oro	9	Septiembre	2023-09-29T00:00:00	2024-11-08T12:00:00	8	Radiación solar	841
175345	7	Sololá	719	Santiago Atitlán	14	Cerro de Oro	9	Septiembre	2023-09-29T00:00:00	2024-11-08T13:00:00	2	Temperatura media	22.2
175346	7	Sololá	719	Santiago Atitlán	14	Cerro de Oro	9	Septiembre	2023-09-29T00:00:00	2024-11-08T13:00:00	4	Temperatura máxima	23.9
175347	7	Sololá	719	Santiago Atitlán	14	Cerro de Oro	9	Septiembre	2023-09-29T00:00:00	2024-11-08T13:00:00	3	Temperatura mínima	22.2
175348	7	Sololá	719	Santiago Atitlán	14	Cerro de Oro	9	Septiembre	2023-09-29T00:00:00	2024-11-08T13:00:00	5	Humedad	86
175349	7	Sololá	719	Santiago Atitlán	14	Cerro de Oro	9	Septiembre	2023-09-29T00:00:00	2024-11-08T13:00:00	6	Velocidad del viento	11.3
175350	7	Sololá	719	Santiago Atitlán	14	Cerro de Oro	9	Septiembre	2023-09-29T00:00:00	2024-11-08T13:00:00	7	Dirección del viento	11.27
175351	7	Sololá	719	Santiago Atitlán	14	Cerro de Oro	9	Septiembre	2023-09-29T00:00:00	2024-11-08T13:00:00	1	Precipitación	0
175352	7	Sololá	719	Santiago Atitlán	14	Cerro de Oro	9	Septiembre	2023-09-29T00:00:00	2024-11-08T13:00:00	8	Radiación solar	339
175353	7	Sololá	719	Santiago Atitlán	14	Cerro de Oro	9	Septiembre	2023-09-29T00:00:00	2024-11-08T14:00:00	2	Temperatura media	21.9
175354	7	Sololá	719	Santiago Atitlán	14	Cerro de Oro	9	Septiembre	2023-09-29T00:00:00	2024-11-08T14:00:00	4	Temperatura máxima	22.2
175355	7	Sololá	719	Santiago Atitlán	14	Cerro de Oro	9	Septiembre	2023-09-29T00:00:00	2024-11-08T14:00:00	3	Temperatura mínima	20.8
175356	7	Sololá	719	Santiago Atitlán	14	Cerro de Oro	9	Septiembre	2023-09-29T00:00:00	2024-11-08T14:00:00	5	Humedad	91
175357	7	Sololá	719	Santiago Atitlán	14	Cerro de Oro	9	Septiembre	2023-09-29T00:00:00	2024-11-08T14:00:00	6	Velocidad del viento	6.4
175358	7	Sololá	719	Santiago Atitlán	14	Cerro de Oro	9	Septiembre	2023-09-29T00:00:00	2024-11-08T14:00:00	7	Dirección del viento	6.44
175359	7	Sololá	719	Santiago Atitlán	14	Cerro de Oro	9	Septiembre	2023-09-29T00:00:00	2024-11-08T14:00:00	1	Precipitación	1
175360	7	Sololá	719	Santiago Atitlán	14	Cerro de Oro	9	Septiembre	2023-09-29T00:00:00	2024-11-08T14:00:00	8	Radiación solar	228
175361	7	Sololá	719	Santiago Atitlán	14	Cerro de Oro	9	Septiembre	2023-09-29T00:00:00	2024-11-08T15:00:00	2	Temperatura media	20.7
175362	7	Sololá	719	Santiago Atitlán	14	Cerro de Oro	9	Septiembre	2023-09-29T00:00:00	2024-11-08T15:00:00	4	Temperatura máxima	22.2
175363	7	Sololá	719	Santiago Atitlán	14	Cerro de Oro	9	Septiembre	2023-09-29T00:00:00	2024-11-08T15:00:00	3	Temperatura mínima	20.7
175364	7	Sololá	719	Santiago Atitlán	14	Cerro de Oro	9	Septiembre	2023-09-29T00:00:00	2024-11-08T15:00:00	5	Humedad	92
175365	7	Sololá	719	Santiago Atitlán	14	Cerro de Oro	9	Septiembre	2023-09-29T00:00:00	2024-11-08T15:00:00	6	Velocidad del viento	3.2
175366	7	Sololá	719	Santiago Atitlán	14	Cerro de Oro	9	Septiembre	2023-09-29T00:00:00	2024-11-08T15:00:00	7	Dirección del viento	3.22
175367	7	Sololá	719	Santiago Atitlán	14	Cerro de Oro	9	Septiembre	2023-09-29T00:00:00	2024-11-08T15:00:00	1	Precipitación	5.8
175368	7	Sololá	719	Santiago Atitlán	14	Cerro de Oro	9	Septiembre	2023-09-29T00:00:00	2024-11-08T15:00:00	8	Radiación solar	91
175369	7	Sololá	719	Santiago Atitlán	14	Cerro de Oro	9	Septiembre	2023-09-29T00:00:00	2024-11-08T16:00:00	2	Temperatura media	19.4
175370	7	Sololá	719	Santiago Atitlán	14	Cerro de Oro	9	Septiembre	2023-09-29T00:00:00	2024-11-08T16:00:00	4	Temperatura máxima	20.7
175371	7	Sololá	719	Santiago Atitlán	14	Cerro de Oro	9	Septiembre	2023-09-29T00:00:00	2024-11-08T16:00:00	3	Temperatura mínima	19.2
175372	7	Sololá	719	Santiago Atitlán	14	Cerro de Oro	9	Septiembre	2023-09-29T00:00:00	2024-11-08T16:00:00	5	Humedad	93
175373	7	Sololá	719	Santiago Atitlán	14	Cerro de Oro	9	Septiembre	2023-09-29T00:00:00	2024-11-08T16:00:00	6	Velocidad del viento	6.4
175374	7	Sololá	719	Santiago Atitlán	14	Cerro de Oro	9	Septiembre	2023-09-29T00:00:00	2024-11-08T16:00:00	7	Dirección del viento	6.44
175375	7	Sololá	719	Santiago Atitlán	14	Cerro de Oro	9	Septiembre	2023-09-29T00:00:00	2024-11-08T16:00:00	1	Precipitación	8.4
175376	7	Sololá	719	Santiago Atitlán	14	Cerro de Oro	9	Septiembre	2023-09-29T00:00:00	2024-11-08T16:00:00	8	Radiación solar	12
175377	7	Sololá	719	Santiago Atitlán	14	Cerro de Oro	9	Septiembre	2023-09-29T00:00:00	2024-11-08T17:00:00	2	Temperatura media	19.3
175378	7	Sololá	719	Santiago Atitlán	14	Cerro de Oro	9	Septiembre	2023-09-29T00:00:00	2024-11-08T17:00:00	4	Temperatura máxima	19.7
175379	7	Sololá	719	Santiago Atitlán	14	Cerro de Oro	9	Septiembre	2023-09-29T00:00:00	2024-11-08T17:00:00	3	Temperatura mínima	19.3
175380	7	Sololá	719	Santiago Atitlán	14	Cerro de Oro	9	Septiembre	2023-09-29T00:00:00	2024-11-08T17:00:00	5	Humedad	91
175381	7	Sololá	719	Santiago Atitlán	14	Cerro de Oro	9	Septiembre	2023-09-29T00:00:00	2024-11-08T17:00:00	6	Velocidad del viento	1.6
175382	7	Sololá	719	Santiago Atitlán	14	Cerro de Oro	9	Septiembre	2023-09-29T00:00:00	2024-11-08T17:00:00	7	Dirección del viento	1.61
175383	7	Sololá	719	Santiago Atitlán	14	Cerro de Oro	9	Septiembre	2023-09-29T00:00:00	2024-11-08T17:00:00	1	Precipitación	0
175384	7	Sololá	719	Santiago Atitlán	14	Cerro de Oro	9	Septiembre	2023-09-29T00:00:00	2024-11-08T17:00:00	8	Radiación solar	3
175385	7	Sololá	719	Santiago Atitlán	14	Cerro de Oro	9	Septiembre	2023-09-29T00:00:00	2024-11-08T18:00:00	2	Temperatura media	18.8
175386	7	Sololá	719	Santiago Atitlán	14	Cerro de Oro	9	Septiembre	2023-09-29T00:00:00	2024-11-08T18:00:00	4	Temperatura máxima	19.3
175387	7	Sololá	719	Santiago Atitlán	14	Cerro de Oro	9	Septiembre	2023-09-29T00:00:00	2024-11-08T18:00:00	3	Temperatura mínima	18.7
175388	7	Sololá	719	Santiago Atitlán	14	Cerro de Oro	9	Septiembre	2023-09-29T00:00:00	2024-11-08T18:00:00	5	Humedad	93
175389	7	Sololá	719	Santiago Atitlán	14	Cerro de Oro	9	Septiembre	2023-09-29T00:00:00	2024-11-08T18:00:00	6	Velocidad del viento	1.6
175390	7	Sololá	719	Santiago Atitlán	14	Cerro de Oro	9	Septiembre	2023-09-29T00:00:00	2024-11-08T18:00:00	7	Dirección del viento	1.61
175391	7	Sololá	719	Santiago Atitlán	14	Cerro de Oro	9	Septiembre	2023-09-29T00:00:00	2024-11-08T18:00:00	1	Precipitación	0.2
175392	7	Sololá	719	Santiago Atitlán	14	Cerro de Oro	9	Septiembre	2023-09-29T00:00:00	2024-11-08T18:00:00	8	Radiación solar	0
175393	7	Sololá	719	Santiago Atitlán	14	Cerro de Oro	9	Septiembre	2023-09-29T00:00:00	2024-11-08T19:00:00	2	Temperatura media	18.8
175394	7	Sololá	719	Santiago Atitlán	14	Cerro de Oro	9	Septiembre	2023-09-29T00:00:00	2024-11-08T19:00:00	4	Temperatura máxima	18.9
175395	7	Sololá	719	Santiago Atitlán	14	Cerro de Oro	9	Septiembre	2023-09-29T00:00:00	2024-11-08T19:00:00	3	Temperatura mínima	18.8
175396	7	Sololá	719	Santiago Atitlán	14	Cerro de Oro	9	Septiembre	2023-09-29T00:00:00	2024-11-08T19:00:00	5	Humedad	91
175397	7	Sololá	719	Santiago Atitlán	14	Cerro de Oro	9	Septiembre	2023-09-29T00:00:00	2024-11-08T19:00:00	6	Velocidad del viento	4.8
175398	7	Sololá	719	Santiago Atitlán	14	Cerro de Oro	9	Septiembre	2023-09-29T00:00:00	2024-11-08T19:00:00	7	Dirección del viento	4.83
175399	7	Sololá	719	Santiago Atitlán	14	Cerro de Oro	9	Septiembre	2023-09-29T00:00:00	2024-11-08T19:00:00	1	Precipitación	0
175400	7	Sololá	719	Santiago Atitlán	14	Cerro de Oro	9	Septiembre	2023-09-29T00:00:00	2024-11-08T19:00:00	8	Radiación solar	0
175401	7	Sololá	719	Santiago Atitlán	14	Cerro de Oro	9	Septiembre	2023-09-29T00:00:00	2024-11-08T20:00:00	2	Temperatura media	19.2
175402	7	Sololá	719	Santiago Atitlán	14	Cerro de Oro	9	Septiembre	2023-09-29T00:00:00	2024-11-08T20:00:00	4	Temperatura máxima	19.3
175403	7	Sololá	719	Santiago Atitlán	14	Cerro de Oro	9	Septiembre	2023-09-29T00:00:00	2024-11-08T20:00:00	3	Temperatura mínima	18.8
175404	7	Sololá	719	Santiago Atitlán	14	Cerro de Oro	9	Septiembre	2023-09-29T00:00:00	2024-11-08T20:00:00	5	Humedad	92
175405	7	Sololá	719	Santiago Atitlán	14	Cerro de Oro	9	Septiembre	2023-09-29T00:00:00	2024-11-08T20:00:00	6	Velocidad del viento	4.8
175406	7	Sololá	719	Santiago Atitlán	14	Cerro de Oro	9	Septiembre	2023-09-29T00:00:00	2024-11-08T20:00:00	7	Dirección del viento	4.83
175407	7	Sololá	719	Santiago Atitlán	14	Cerro de Oro	9	Septiembre	2023-09-29T00:00:00	2024-11-08T20:00:00	1	Precipitación	0
175408	7	Sololá	719	Santiago Atitlán	14	Cerro de Oro	9	Septiembre	2023-09-29T00:00:00	2024-11-08T20:00:00	8	Radiación solar	0
175409	7	Sololá	719	Santiago Atitlán	14	Cerro de Oro	9	Septiembre	2023-09-29T00:00:00	2024-11-08T21:00:00	2	Temperatura media	19.3
175410	7	Sololá	719	Santiago Atitlán	14	Cerro de Oro	9	Septiembre	2023-09-29T00:00:00	2024-11-08T21:00:00	4	Temperatura máxima	19.4
175411	7	Sololá	719	Santiago Atitlán	14	Cerro de Oro	9	Septiembre	2023-09-29T00:00:00	2024-11-08T21:00:00	3	Temperatura mínima	18.9
175412	7	Sololá	719	Santiago Atitlán	14	Cerro de Oro	9	Septiembre	2023-09-29T00:00:00	2024-11-08T21:00:00	5	Humedad	92
175413	7	Sololá	719	Santiago Atitlán	14	Cerro de Oro	9	Septiembre	2023-09-29T00:00:00	2024-11-08T21:00:00	6	Velocidad del viento	3.2
175414	7	Sololá	719	Santiago Atitlán	14	Cerro de Oro	9	Septiembre	2023-09-29T00:00:00	2024-11-08T21:00:00	7	Dirección del viento	3.22
175415	7	Sololá	719	Santiago Atitlán	14	Cerro de Oro	9	Septiembre	2023-09-29T00:00:00	2024-11-08T21:00:00	1	Precipitación	0
175416	7	Sololá	719	Santiago Atitlán	14	Cerro de Oro	9	Septiembre	2023-09-29T00:00:00	2024-11-08T21:00:00	8	Radiación solar	0
175417	7	Sololá	719	Santiago Atitlán	14	Cerro de Oro	9	Septiembre	2023-09-29T00:00:00	2024-11-08T22:00:00	2	Temperatura media	19.5
175418	7	Sololá	719	Santiago Atitlán	14	Cerro de Oro	9	Septiembre	2023-09-29T00:00:00	2024-11-08T22:00:00	4	Temperatura máxima	19.5
175419	7	Sololá	719	Santiago Atitlán	14	Cerro de Oro	9	Septiembre	2023-09-29T00:00:00	2024-11-08T22:00:00	3	Temperatura mínima	19.1
175420	7	Sololá	719	Santiago Atitlán	14	Cerro de Oro	9	Septiembre	2023-09-29T00:00:00	2024-11-08T22:00:00	5	Humedad	92
175421	7	Sololá	719	Santiago Atitlán	14	Cerro de Oro	9	Septiembre	2023-09-29T00:00:00	2024-11-08T22:00:00	6	Velocidad del viento	3.2
175422	7	Sololá	719	Santiago Atitlán	14	Cerro de Oro	9	Septiembre	2023-09-29T00:00:00	2024-11-08T22:00:00	7	Dirección del viento	3.22
175423	7	Sololá	719	Santiago Atitlán	14	Cerro de Oro	9	Septiembre	2023-09-29T00:00:00	2024-11-08T22:00:00	1	Precipitación	0
175424	7	Sololá	719	Santiago Atitlán	14	Cerro de Oro	9	Septiembre	2023-09-29T00:00:00	2024-11-08T22:00:00	8	Radiación solar	0
175425	7	Sololá	719	Santiago Atitlán	14	Cerro de Oro	9	Septiembre	2023-09-29T00:00:00	2024-11-08T23:00:00	2	Temperatura media	19.4
175426	7	Sololá	719	Santiago Atitlán	14	Cerro de Oro	9	Septiembre	2023-09-29T00:00:00	2024-11-08T23:00:00	4	Temperatura máxima	19.5
175427	7	Sololá	719	Santiago Atitlán	14	Cerro de Oro	9	Septiembre	2023-09-29T00:00:00	2024-11-08T23:00:00	3	Temperatura mínima	19
175428	7	Sololá	719	Santiago Atitlán	14	Cerro de Oro	9	Septiembre	2023-09-29T00:00:00	2024-11-08T23:00:00	5	Humedad	92
175429	7	Sololá	719	Santiago Atitlán	14	Cerro de Oro	9	Septiembre	2023-09-29T00:00:00	2024-11-08T23:00:00	6	Velocidad del viento	3.2
175430	7	Sololá	719	Santiago Atitlán	14	Cerro de Oro	9	Septiembre	2023-09-29T00:00:00	2024-11-08T23:00:00	7	Dirección del viento	3.22
175431	7	Sololá	719	Santiago Atitlán	14	Cerro de Oro	9	Septiembre	2023-09-29T00:00:00	2024-11-08T23:00:00	1	Precipitación	0
175432	7	Sololá	719	Santiago Atitlán	14	Cerro de Oro	9	Septiembre	2023-09-29T00:00:00	2024-11-08T23:00:00	8	Radiación solar	0
175433	7	Sololá	719	Santiago Atitlán	14	Cerro de Oro	9	Septiembre	2023-09-30T00:00:00	2024-11-08T00:00:00	2	Temperatura media	19.4
175434	7	Sololá	719	Santiago Atitlán	14	Cerro de Oro	9	Septiembre	2023-09-30T00:00:00	2024-11-08T00:00:00	4	Temperatura máxima	19.4
175435	7	Sololá	719	Santiago Atitlán	14	Cerro de Oro	9	Septiembre	2023-09-30T00:00:00	2024-11-08T00:00:00	3	Temperatura mínima	19.2
175436	7	Sololá	719	Santiago Atitlán	14	Cerro de Oro	9	Septiembre	2023-09-30T00:00:00	2024-11-08T00:00:00	5	Humedad	92
175437	7	Sololá	719	Santiago Atitlán	14	Cerro de Oro	9	Septiembre	2023-09-30T00:00:00	2024-11-08T00:00:00	6	Velocidad del viento	3.2
175438	7	Sololá	719	Santiago Atitlán	14	Cerro de Oro	9	Septiembre	2023-09-30T00:00:00	2024-11-08T00:00:00	7	Dirección del viento	3.22
175439	7	Sololá	719	Santiago Atitlán	14	Cerro de Oro	9	Septiembre	2023-09-30T00:00:00	2024-11-08T00:00:00	1	Precipitación	0
175440	7	Sololá	719	Santiago Atitlán	14	Cerro de Oro	9	Septiembre	2023-09-30T00:00:00	2024-11-08T00:00:00	8	Radiación solar	0
175441	7	Sololá	719	Santiago Atitlán	14	Cerro de Oro	9	Septiembre	2023-09-30T00:00:00	2024-11-08T01:00:00	2	Temperatura media	19.2
175442	7	Sololá	719	Santiago Atitlán	14	Cerro de Oro	9	Septiembre	2023-09-30T00:00:00	2024-11-08T01:00:00	4	Temperatura máxima	19.5
175443	7	Sololá	719	Santiago Atitlán	14	Cerro de Oro	9	Septiembre	2023-09-30T00:00:00	2024-11-08T01:00:00	3	Temperatura mínima	19.2
175444	7	Sololá	719	Santiago Atitlán	14	Cerro de Oro	9	Septiembre	2023-09-30T00:00:00	2024-11-08T01:00:00	5	Humedad	92
175445	7	Sololá	719	Santiago Atitlán	14	Cerro de Oro	9	Septiembre	2023-09-30T00:00:00	2024-11-08T01:00:00	6	Velocidad del viento	3.2
175446	7	Sololá	719	Santiago Atitlán	14	Cerro de Oro	9	Septiembre	2023-09-30T00:00:00	2024-11-08T01:00:00	7	Dirección del viento	3.22
175447	7	Sololá	719	Santiago Atitlán	14	Cerro de Oro	9	Septiembre	2023-09-30T00:00:00	2024-11-08T01:00:00	1	Precipitación	0
175448	7	Sololá	719	Santiago Atitlán	14	Cerro de Oro	9	Septiembre	2023-09-30T00:00:00	2024-11-08T01:00:00	8	Radiación solar	0
175449	7	Sololá	719	Santiago Atitlán	14	Cerro de Oro	9	Septiembre	2023-09-30T00:00:00	2024-11-08T02:00:00	2	Temperatura media	18.9
175450	7	Sololá	719	Santiago Atitlán	14	Cerro de Oro	9	Septiembre	2023-09-30T00:00:00	2024-11-08T02:00:00	4	Temperatura máxima	19.5
175451	7	Sololá	719	Santiago Atitlán	14	Cerro de Oro	9	Septiembre	2023-09-30T00:00:00	2024-11-08T02:00:00	3	Temperatura mínima	18.8
175452	7	Sololá	719	Santiago Atitlán	14	Cerro de Oro	9	Septiembre	2023-09-30T00:00:00	2024-11-08T02:00:00	5	Humedad	91
175453	7	Sololá	719	Santiago Atitlán	14	Cerro de Oro	9	Septiembre	2023-09-30T00:00:00	2024-11-08T02:00:00	6	Velocidad del viento	3.2
175454	7	Sololá	719	Santiago Atitlán	14	Cerro de Oro	9	Septiembre	2023-09-30T00:00:00	2024-11-08T02:00:00	7	Dirección del viento	3.22
175455	7	Sololá	719	Santiago Atitlán	14	Cerro de Oro	9	Septiembre	2023-09-30T00:00:00	2024-11-08T02:00:00	1	Precipitación	0
175456	7	Sololá	719	Santiago Atitlán	14	Cerro de Oro	9	Septiembre	2023-09-30T00:00:00	2024-11-08T02:00:00	8	Radiación solar	0
175457	7	Sololá	719	Santiago Atitlán	14	Cerro de Oro	9	Septiembre	2023-09-30T00:00:00	2024-11-08T03:00:00	2	Temperatura media	18.7
175458	7	Sololá	719	Santiago Atitlán	14	Cerro de Oro	9	Septiembre	2023-09-30T00:00:00	2024-11-08T03:00:00	4	Temperatura máxima	19.2
175459	7	Sololá	719	Santiago Atitlán	14	Cerro de Oro	9	Septiembre	2023-09-30T00:00:00	2024-11-08T03:00:00	3	Temperatura mínima	18.7
175460	7	Sololá	719	Santiago Atitlán	14	Cerro de Oro	9	Septiembre	2023-09-30T00:00:00	2024-11-08T03:00:00	5	Humedad	90
175461	7	Sololá	719	Santiago Atitlán	14	Cerro de Oro	9	Septiembre	2023-09-30T00:00:00	2024-11-08T03:00:00	6	Velocidad del viento	4.8
175462	7	Sololá	719	Santiago Atitlán	14	Cerro de Oro	9	Septiembre	2023-09-30T00:00:00	2024-11-08T03:00:00	7	Dirección del viento	4.83
175463	7	Sololá	719	Santiago Atitlán	14	Cerro de Oro	9	Septiembre	2023-09-30T00:00:00	2024-11-08T03:00:00	1	Precipitación	0
175464	7	Sololá	719	Santiago Atitlán	14	Cerro de Oro	9	Septiembre	2023-09-30T00:00:00	2024-11-08T03:00:00	8	Radiación solar	0
175465	7	Sololá	719	Santiago Atitlán	14	Cerro de Oro	9	Septiembre	2023-09-30T00:00:00	2024-11-08T04:00:00	2	Temperatura media	19.2
175466	7	Sololá	719	Santiago Atitlán	14	Cerro de Oro	9	Septiembre	2023-09-30T00:00:00	2024-11-08T04:00:00	4	Temperatura máxima	19.2
175467	7	Sololá	719	Santiago Atitlán	14	Cerro de Oro	9	Septiembre	2023-09-30T00:00:00	2024-11-08T04:00:00	3	Temperatura mínima	18.7
175468	7	Sololá	719	Santiago Atitlán	14	Cerro de Oro	9	Septiembre	2023-09-30T00:00:00	2024-11-08T04:00:00	5	Humedad	89
175469	7	Sololá	719	Santiago Atitlán	14	Cerro de Oro	9	Septiembre	2023-09-30T00:00:00	2024-11-08T04:00:00	6	Velocidad del viento	3.2
175470	7	Sololá	719	Santiago Atitlán	14	Cerro de Oro	9	Septiembre	2023-09-30T00:00:00	2024-11-08T04:00:00	7	Dirección del viento	3.22
175471	7	Sololá	719	Santiago Atitlán	14	Cerro de Oro	9	Septiembre	2023-09-30T00:00:00	2024-11-08T04:00:00	1	Precipitación	0
175472	7	Sololá	719	Santiago Atitlán	14	Cerro de Oro	9	Septiembre	2023-09-30T00:00:00	2024-11-08T04:00:00	8	Radiación solar	0
175473	7	Sololá	719	Santiago Atitlán	14	Cerro de Oro	9	Septiembre	2023-09-30T00:00:00	2024-11-08T05:00:00	2	Temperatura media	18.7
175474	7	Sololá	719	Santiago Atitlán	14	Cerro de Oro	9	Septiembre	2023-09-30T00:00:00	2024-11-08T05:00:00	4	Temperatura máxima	19.2
175475	7	Sololá	719	Santiago Atitlán	14	Cerro de Oro	9	Septiembre	2023-09-30T00:00:00	2024-11-08T05:00:00	3	Temperatura mínima	18.6
175476	7	Sololá	719	Santiago Atitlán	14	Cerro de Oro	9	Septiembre	2023-09-30T00:00:00	2024-11-08T05:00:00	5	Humedad	89
175477	7	Sololá	719	Santiago Atitlán	14	Cerro de Oro	9	Septiembre	2023-09-30T00:00:00	2024-11-08T05:00:00	6	Velocidad del viento	4.8
175478	7	Sololá	719	Santiago Atitlán	14	Cerro de Oro	9	Septiembre	2023-09-30T00:00:00	2024-11-08T05:00:00	7	Dirección del viento	4.83
175479	7	Sololá	719	Santiago Atitlán	14	Cerro de Oro	9	Septiembre	2023-09-30T00:00:00	2024-11-08T05:00:00	1	Precipitación	0
175480	7	Sololá	719	Santiago Atitlán	14	Cerro de Oro	9	Septiembre	2023-09-30T00:00:00	2024-11-08T05:00:00	8	Radiación solar	0
175481	7	Sololá	719	Santiago Atitlán	14	Cerro de Oro	9	Septiembre	2023-09-30T00:00:00	2024-11-08T06:00:00	2	Temperatura media	19.1
175482	7	Sololá	719	Santiago Atitlán	14	Cerro de Oro	9	Septiembre	2023-09-30T00:00:00	2024-11-08T06:00:00	4	Temperatura máxima	19.2
175483	7	Sololá	719	Santiago Atitlán	14	Cerro de Oro	9	Septiembre	2023-09-30T00:00:00	2024-11-08T06:00:00	3	Temperatura mínima	18.4
175484	7	Sololá	719	Santiago Atitlán	14	Cerro de Oro	9	Septiembre	2023-09-30T00:00:00	2024-11-08T06:00:00	5	Humedad	86
175485	7	Sololá	719	Santiago Atitlán	14	Cerro de Oro	9	Septiembre	2023-09-30T00:00:00	2024-11-08T06:00:00	6	Velocidad del viento	3.2
175486	7	Sololá	719	Santiago Atitlán	14	Cerro de Oro	9	Septiembre	2023-09-30T00:00:00	2024-11-08T06:00:00	7	Dirección del viento	3.22
175487	7	Sololá	719	Santiago Atitlán	14	Cerro de Oro	9	Septiembre	2023-09-30T00:00:00	2024-11-08T06:00:00	1	Precipitación	0
175488	7	Sololá	719	Santiago Atitlán	14	Cerro de Oro	9	Septiembre	2023-09-30T00:00:00	2024-11-08T06:00:00	8	Radiación solar	0
175489	7	Sololá	719	Santiago Atitlán	14	Cerro de Oro	9	Septiembre	2023-09-30T00:00:00	2024-11-08T07:00:00	2	Temperatura media	20.1
175490	7	Sololá	719	Santiago Atitlán	14	Cerro de Oro	9	Septiembre	2023-09-30T00:00:00	2024-11-08T07:00:00	4	Temperatura máxima	20.2
175491	7	Sololá	719	Santiago Atitlán	14	Cerro de Oro	9	Septiembre	2023-09-30T00:00:00	2024-11-08T07:00:00	3	Temperatura mínima	19.1
175492	7	Sololá	719	Santiago Atitlán	14	Cerro de Oro	9	Septiembre	2023-09-30T00:00:00	2024-11-08T07:00:00	5	Humedad	88
175493	7	Sololá	719	Santiago Atitlán	14	Cerro de Oro	9	Septiembre	2023-09-30T00:00:00	2024-11-08T07:00:00	6	Velocidad del viento	1.6
175494	7	Sololá	719	Santiago Atitlán	14	Cerro de Oro	9	Septiembre	2023-09-30T00:00:00	2024-11-08T07:00:00	7	Dirección del viento	1.61
175495	7	Sololá	719	Santiago Atitlán	14	Cerro de Oro	9	Septiembre	2023-09-30T00:00:00	2024-11-08T07:00:00	1	Precipitación	0
175496	7	Sololá	719	Santiago Atitlán	14	Cerro de Oro	9	Septiembre	2023-09-30T00:00:00	2024-11-08T07:00:00	8	Radiación solar	69
175497	7	Sololá	719	Santiago Atitlán	14	Cerro de Oro	9	Septiembre	2023-09-30T00:00:00	2024-11-08T08:00:00	2	Temperatura media	22.3
175498	7	Sololá	719	Santiago Atitlán	14	Cerro de Oro	9	Septiembre	2023-09-30T00:00:00	2024-11-08T08:00:00	4	Temperatura máxima	22.4
175499	7	Sololá	719	Santiago Atitlán	14	Cerro de Oro	9	Septiembre	2023-09-30T00:00:00	2024-11-08T08:00:00	3	Temperatura mínima	20.1
175500	7	Sololá	719	Santiago Atitlán	14	Cerro de Oro	9	Septiembre	2023-09-30T00:00:00	2024-11-08T08:00:00	5	Humedad	76
175501	7	Sololá	719	Santiago Atitlán	14	Cerro de Oro	9	Septiembre	2023-09-30T00:00:00	2024-11-08T08:00:00	6	Velocidad del viento	1.6
175502	7	Sololá	719	Santiago Atitlán	14	Cerro de Oro	9	Septiembre	2023-09-30T00:00:00	2024-11-08T08:00:00	7	Dirección del viento	1.61
175503	7	Sololá	719	Santiago Atitlán	14	Cerro de Oro	9	Septiembre	2023-09-30T00:00:00	2024-11-08T08:00:00	1	Precipitación	0
175504	7	Sololá	719	Santiago Atitlán	14	Cerro de Oro	9	Septiembre	2023-09-30T00:00:00	2024-11-08T08:00:00	8	Radiación solar	242
175505	7	Sololá	719	Santiago Atitlán	14	Cerro de Oro	9	Septiembre	2023-09-30T00:00:00	2024-11-08T09:00:00	2	Temperatura media	24
175506	7	Sololá	719	Santiago Atitlán	14	Cerro de Oro	9	Septiembre	2023-09-30T00:00:00	2024-11-08T09:00:00	4	Temperatura máxima	24.1
175507	7	Sololá	719	Santiago Atitlán	14	Cerro de Oro	9	Septiembre	2023-09-30T00:00:00	2024-11-08T09:00:00	3	Temperatura mínima	22.2
175508	7	Sololá	719	Santiago Atitlán	14	Cerro de Oro	9	Septiembre	2023-09-30T00:00:00	2024-11-08T09:00:00	5	Humedad	69
175509	7	Sololá	719	Santiago Atitlán	14	Cerro de Oro	9	Septiembre	2023-09-30T00:00:00	2024-11-08T09:00:00	6	Velocidad del viento	3.2
175510	7	Sololá	719	Santiago Atitlán	14	Cerro de Oro	9	Septiembre	2023-09-30T00:00:00	2024-11-08T09:00:00	7	Dirección del viento	3.22
175511	7	Sololá	719	Santiago Atitlán	14	Cerro de Oro	9	Septiembre	2023-09-30T00:00:00	2024-11-08T09:00:00	1	Precipitación	0
175512	7	Sololá	719	Santiago Atitlán	14	Cerro de Oro	9	Septiembre	2023-09-30T00:00:00	2024-11-08T09:00:00	8	Radiación solar	472
175513	7	Sololá	719	Santiago Atitlán	14	Cerro de Oro	9	Septiembre	2023-09-30T00:00:00	2024-11-08T10:00:00	2	Temperatura media	24
175514	7	Sololá	719	Santiago Atitlán	14	Cerro de Oro	9	Septiembre	2023-09-30T00:00:00	2024-11-08T10:00:00	4	Temperatura máxima	24.2
175515	7	Sololá	719	Santiago Atitlán	14	Cerro de Oro	9	Septiembre	2023-09-30T00:00:00	2024-11-08T10:00:00	3	Temperatura mínima	23.4
175516	7	Sololá	719	Santiago Atitlán	14	Cerro de Oro	9	Septiembre	2023-09-30T00:00:00	2024-11-08T10:00:00	5	Humedad	77
175517	7	Sololá	719	Santiago Atitlán	14	Cerro de Oro	9	Septiembre	2023-09-30T00:00:00	2024-11-08T10:00:00	6	Velocidad del viento	3.2
175518	7	Sololá	719	Santiago Atitlán	14	Cerro de Oro	9	Septiembre	2023-09-30T00:00:00	2024-11-08T10:00:00	7	Dirección del viento	3.22
175519	7	Sololá	719	Santiago Atitlán	14	Cerro de Oro	9	Septiembre	2023-09-30T00:00:00	2024-11-08T10:00:00	1	Precipitación	0
175520	7	Sololá	719	Santiago Atitlán	14	Cerro de Oro	9	Septiembre	2023-09-30T00:00:00	2024-11-08T10:00:00	8	Radiación solar	694
175521	7	Sololá	719	Santiago Atitlán	14	Cerro de Oro	9	Septiembre	2023-09-30T00:00:00	2024-11-08T11:00:00	2	Temperatura media	24.6
175522	7	Sololá	719	Santiago Atitlán	14	Cerro de Oro	9	Septiembre	2023-09-30T00:00:00	2024-11-08T11:00:00	4	Temperatura máxima	24.6
175523	7	Sololá	719	Santiago Atitlán	14	Cerro de Oro	9	Septiembre	2023-09-30T00:00:00	2024-11-08T11:00:00	3	Temperatura mínima	23.1
175524	7	Sololá	719	Santiago Atitlán	14	Cerro de Oro	9	Septiembre	2023-09-30T00:00:00	2024-11-08T11:00:00	5	Humedad	73
175525	7	Sololá	719	Santiago Atitlán	14	Cerro de Oro	9	Septiembre	2023-09-30T00:00:00	2024-11-08T11:00:00	6	Velocidad del viento	4.8
175526	7	Sololá	719	Santiago Atitlán	14	Cerro de Oro	9	Septiembre	2023-09-30T00:00:00	2024-11-08T11:00:00	7	Dirección del viento	4.83
175527	7	Sololá	719	Santiago Atitlán	14	Cerro de Oro	9	Septiembre	2023-09-30T00:00:00	2024-11-08T11:00:00	1	Precipitación	0
175528	7	Sololá	719	Santiago Atitlán	14	Cerro de Oro	9	Septiembre	2023-09-30T00:00:00	2024-11-08T11:00:00	8	Radiación solar	561
175529	7	Sololá	719	Santiago Atitlán	14	Cerro de Oro	9	Septiembre	2023-09-30T00:00:00	2024-11-08T12:00:00	2	Temperatura media	24.7
175530	7	Sololá	719	Santiago Atitlán	14	Cerro de Oro	9	Septiembre	2023-09-30T00:00:00	2024-11-08T12:00:00	4	Temperatura máxima	25.4
175531	7	Sololá	719	Santiago Atitlán	14	Cerro de Oro	9	Septiembre	2023-09-30T00:00:00	2024-11-08T12:00:00	3	Temperatura mínima	24.2
175532	7	Sololá	719	Santiago Atitlán	14	Cerro de Oro	9	Septiembre	2023-09-30T00:00:00	2024-11-08T12:00:00	5	Humedad	77
175533	7	Sololá	719	Santiago Atitlán	14	Cerro de Oro	9	Septiembre	2023-09-30T00:00:00	2024-11-08T12:00:00	6	Velocidad del viento	6.4
175534	7	Sololá	719	Santiago Atitlán	14	Cerro de Oro	9	Septiembre	2023-09-30T00:00:00	2024-11-08T12:00:00	7	Dirección del viento	6.44
175535	7	Sololá	719	Santiago Atitlán	14	Cerro de Oro	9	Septiembre	2023-09-30T00:00:00	2024-11-08T12:00:00	1	Precipitación	0
175536	7	Sololá	719	Santiago Atitlán	14	Cerro de Oro	9	Septiembre	2023-09-30T00:00:00	2024-11-08T12:00:00	8	Radiación solar	906
175537	7	Sololá	719	Santiago Atitlán	14	Cerro de Oro	9	Septiembre	2023-09-30T00:00:00	2024-11-08T13:00:00	2	Temperatura media	23.1
175538	7	Sololá	719	Santiago Atitlán	14	Cerro de Oro	9	Septiembre	2023-09-30T00:00:00	2024-11-08T13:00:00	4	Temperatura máxima	24.8
175539	7	Sololá	719	Santiago Atitlán	14	Cerro de Oro	9	Septiembre	2023-09-30T00:00:00	2024-11-08T13:00:00	3	Temperatura mínima	23.1
175540	7	Sololá	719	Santiago Atitlán	14	Cerro de Oro	9	Septiembre	2023-09-30T00:00:00	2024-11-08T13:00:00	5	Humedad	82
175541	7	Sololá	719	Santiago Atitlán	14	Cerro de Oro	9	Septiembre	2023-09-30T00:00:00	2024-11-08T13:00:00	6	Velocidad del viento	11.3
175542	7	Sololá	719	Santiago Atitlán	14	Cerro de Oro	9	Septiembre	2023-09-30T00:00:00	2024-11-08T13:00:00	7	Dirección del viento	11.27
175543	7	Sololá	719	Santiago Atitlán	14	Cerro de Oro	9	Septiembre	2023-09-30T00:00:00	2024-11-08T13:00:00	1	Precipitación	0
175544	7	Sololá	719	Santiago Atitlán	14	Cerro de Oro	9	Septiembre	2023-09-30T00:00:00	2024-11-08T13:00:00	8	Radiación solar	506
175545	7	Sololá	719	Santiago Atitlán	14	Cerro de Oro	9	Septiembre	2023-09-30T00:00:00	2024-11-08T14:00:00	2	Temperatura media	24.1
175546	7	Sololá	719	Santiago Atitlán	14	Cerro de Oro	9	Septiembre	2023-09-30T00:00:00	2024-11-08T14:00:00	4	Temperatura máxima	24.5
175547	7	Sololá	719	Santiago Atitlán	14	Cerro de Oro	9	Septiembre	2023-09-30T00:00:00	2024-11-08T14:00:00	3	Temperatura mínima	22.8
175548	7	Sololá	719	Santiago Atitlán	14	Cerro de Oro	9	Septiembre	2023-09-30T00:00:00	2024-11-08T14:00:00	5	Humedad	77
175549	7	Sololá	719	Santiago Atitlán	14	Cerro de Oro	9	Septiembre	2023-09-30T00:00:00	2024-11-08T14:00:00	6	Velocidad del viento	12.9
175550	7	Sololá	719	Santiago Atitlán	14	Cerro de Oro	9	Septiembre	2023-09-30T00:00:00	2024-11-08T14:00:00	7	Dirección del viento	12.87
175551	7	Sololá	719	Santiago Atitlán	14	Cerro de Oro	9	Septiembre	2023-09-30T00:00:00	2024-11-08T14:00:00	1	Precipitación	0
175552	7	Sololá	719	Santiago Atitlán	14	Cerro de Oro	9	Septiembre	2023-09-30T00:00:00	2024-11-08T14:00:00	8	Radiación solar	670
175553	7	Sololá	719	Santiago Atitlán	14	Cerro de Oro	9	Septiembre	2023-09-30T00:00:00	2024-11-08T15:00:00	2	Temperatura media	22.3
175554	7	Sololá	719	Santiago Atitlán	14	Cerro de Oro	9	Septiembre	2023-09-30T00:00:00	2024-11-08T15:00:00	4	Temperatura máxima	24.4
175555	7	Sololá	719	Santiago Atitlán	14	Cerro de Oro	9	Septiembre	2023-09-30T00:00:00	2024-11-08T15:00:00	3	Temperatura mínima	22.3
175556	7	Sololá	719	Santiago Atitlán	14	Cerro de Oro	9	Septiembre	2023-09-30T00:00:00	2024-11-08T15:00:00	5	Humedad	83
175557	7	Sololá	719	Santiago Atitlán	14	Cerro de Oro	9	Septiembre	2023-09-30T00:00:00	2024-11-08T15:00:00	6	Velocidad del viento	8
175558	7	Sololá	719	Santiago Atitlán	14	Cerro de Oro	9	Septiembre	2023-09-30T00:00:00	2024-11-08T15:00:00	7	Dirección del viento	8.05
175559	7	Sololá	719	Santiago Atitlán	14	Cerro de Oro	9	Septiembre	2023-09-30T00:00:00	2024-11-08T15:00:00	1	Precipitación	0
175560	7	Sololá	719	Santiago Atitlán	14	Cerro de Oro	9	Septiembre	2023-09-30T00:00:00	2024-11-08T15:00:00	8	Radiación solar	271
175561	7	Sololá	719	Santiago Atitlán	14	Cerro de Oro	9	Septiembre	2023-09-30T00:00:00	2024-11-08T16:00:00	2	Temperatura media	21.4
175562	7	Sololá	719	Santiago Atitlán	14	Cerro de Oro	9	Septiembre	2023-09-30T00:00:00	2024-11-08T16:00:00	4	Temperatura máxima	22.4
175563	7	Sololá	719	Santiago Atitlán	14	Cerro de Oro	9	Septiembre	2023-09-30T00:00:00	2024-11-08T16:00:00	3	Temperatura mínima	20.9
175564	7	Sololá	719	Santiago Atitlán	14	Cerro de Oro	9	Septiembre	2023-09-30T00:00:00	2024-11-08T16:00:00	5	Humedad	89
175565	7	Sololá	719	Santiago Atitlán	14	Cerro de Oro	9	Septiembre	2023-09-30T00:00:00	2024-11-08T16:00:00	6	Velocidad del viento	3.2
175566	7	Sololá	719	Santiago Atitlán	14	Cerro de Oro	9	Septiembre	2023-09-30T00:00:00	2024-11-08T16:00:00	7	Dirección del viento	3.22
175567	7	Sololá	719	Santiago Atitlán	14	Cerro de Oro	9	Septiembre	2023-09-30T00:00:00	2024-11-08T16:00:00	1	Precipitación	0.2
175568	7	Sololá	719	Santiago Atitlán	14	Cerro de Oro	9	Septiembre	2023-09-30T00:00:00	2024-11-08T16:00:00	8	Radiación solar	83
175569	7	Sololá	719	Santiago Atitlán	14	Cerro de Oro	9	Septiembre	2023-09-30T00:00:00	2024-11-08T17:00:00	2	Temperatura media	21.6
175570	7	Sololá	719	Santiago Atitlán	14	Cerro de Oro	9	Septiembre	2023-09-30T00:00:00	2024-11-08T17:00:00	4	Temperatura máxima	21.6
175571	7	Sololá	719	Santiago Atitlán	14	Cerro de Oro	9	Septiembre	2023-09-30T00:00:00	2024-11-08T17:00:00	3	Temperatura mínima	21.3
175572	7	Sololá	719	Santiago Atitlán	14	Cerro de Oro	9	Septiembre	2023-09-30T00:00:00	2024-11-08T17:00:00	5	Humedad	85
175573	7	Sololá	719	Santiago Atitlán	14	Cerro de Oro	9	Septiembre	2023-09-30T00:00:00	2024-11-08T17:00:00	6	Velocidad del viento	0
175574	7	Sololá	719	Santiago Atitlán	14	Cerro de Oro	9	Septiembre	2023-09-30T00:00:00	2024-11-08T17:00:00	7	Dirección del viento	0
175575	7	Sololá	719	Santiago Atitlán	14	Cerro de Oro	9	Septiembre	2023-09-30T00:00:00	2024-11-08T17:00:00	1	Precipitación	0
175576	7	Sololá	719	Santiago Atitlán	14	Cerro de Oro	9	Septiembre	2023-09-30T00:00:00	2024-11-08T17:00:00	8	Radiación solar	84
175577	7	Sololá	719	Santiago Atitlán	14	Cerro de Oro	9	Septiembre	2023-09-30T00:00:00	2024-11-08T18:00:00	2	Temperatura media	20.7
175578	7	Sololá	719	Santiago Atitlán	14	Cerro de Oro	9	Septiembre	2023-09-30T00:00:00	2024-11-08T18:00:00	4	Temperatura máxima	21.7
175579	7	Sololá	719	Santiago Atitlán	14	Cerro de Oro	9	Septiembre	2023-09-30T00:00:00	2024-11-08T18:00:00	3	Temperatura mínima	20.7
175580	7	Sololá	719	Santiago Atitlán	14	Cerro de Oro	9	Septiembre	2023-09-30T00:00:00	2024-11-08T18:00:00	5	Humedad	89
175581	7	Sololá	719	Santiago Atitlán	14	Cerro de Oro	9	Septiembre	2023-09-30T00:00:00	2024-11-08T18:00:00	6	Velocidad del viento	3.2
175582	7	Sololá	719	Santiago Atitlán	14	Cerro de Oro	9	Septiembre	2023-09-30T00:00:00	2024-11-08T18:00:00	7	Dirección del viento	3.22
175583	7	Sololá	719	Santiago Atitlán	14	Cerro de Oro	9	Septiembre	2023-09-30T00:00:00	2024-11-08T18:00:00	1	Precipitación	0
175584	7	Sololá	719	Santiago Atitlán	14	Cerro de Oro	9	Septiembre	2023-09-30T00:00:00	2024-11-08T18:00:00	8	Radiación solar	16
175585	7	Sololá	719	Santiago Atitlán	14	Cerro de Oro	9	Septiembre	2023-09-30T00:00:00	2024-11-08T19:00:00	2	Temperatura media	20
175586	7	Sololá	719	Santiago Atitlán	14	Cerro de Oro	9	Septiembre	2023-09-30T00:00:00	2024-11-08T19:00:00	4	Temperatura máxima	20.7
175587	7	Sololá	719	Santiago Atitlán	14	Cerro de Oro	9	Septiembre	2023-09-30T00:00:00	2024-11-08T19:00:00	3	Temperatura mínima	19.8
175588	7	Sololá	719	Santiago Atitlán	14	Cerro de Oro	9	Septiembre	2023-09-30T00:00:00	2024-11-08T19:00:00	5	Humedad	90
175589	7	Sololá	719	Santiago Atitlán	14	Cerro de Oro	9	Septiembre	2023-09-30T00:00:00	2024-11-08T19:00:00	6	Velocidad del viento	4.8
175590	7	Sololá	719	Santiago Atitlán	14	Cerro de Oro	9	Septiembre	2023-09-30T00:00:00	2024-11-08T19:00:00	7	Dirección del viento	4.83
175591	7	Sololá	719	Santiago Atitlán	14	Cerro de Oro	9	Septiembre	2023-09-30T00:00:00	2024-11-08T19:00:00	1	Precipitación	0
175592	7	Sololá	719	Santiago Atitlán	14	Cerro de Oro	9	Septiembre	2023-09-30T00:00:00	2024-11-08T19:00:00	8	Radiación solar	0
175593	7	Sololá	719	Santiago Atitlán	14	Cerro de Oro	9	Septiembre	2023-09-30T00:00:00	2024-11-08T20:00:00	2	Temperatura media	19.1
175594	7	Sololá	719	Santiago Atitlán	14	Cerro de Oro	9	Septiembre	2023-09-30T00:00:00	2024-11-08T20:00:00	4	Temperatura máxima	20.1
175595	7	Sololá	719	Santiago Atitlán	14	Cerro de Oro	9	Septiembre	2023-09-30T00:00:00	2024-11-08T20:00:00	3	Temperatura mínima	19.1
175596	7	Sololá	719	Santiago Atitlán	14	Cerro de Oro	9	Septiembre	2023-09-30T00:00:00	2024-11-08T20:00:00	5	Humedad	94
175597	7	Sololá	719	Santiago Atitlán	14	Cerro de Oro	9	Septiembre	2023-09-30T00:00:00	2024-11-08T20:00:00	6	Velocidad del viento	6.4
175598	7	Sololá	719	Santiago Atitlán	14	Cerro de Oro	9	Septiembre	2023-09-30T00:00:00	2024-11-08T20:00:00	7	Dirección del viento	6.44
175599	7	Sololá	719	Santiago Atitlán	14	Cerro de Oro	9	Septiembre	2023-09-30T00:00:00	2024-11-08T20:00:00	1	Precipitación	0
175600	7	Sololá	719	Santiago Atitlán	14	Cerro de Oro	9	Septiembre	2023-09-30T00:00:00	2024-11-08T20:00:00	8	Radiación solar	0
175601	7	Sololá	719	Santiago Atitlán	14	Cerro de Oro	9	Septiembre	2023-09-30T00:00:00	2024-11-08T21:00:00	2	Temperatura media	19.4
175602	7	Sololá	719	Santiago Atitlán	14	Cerro de Oro	9	Septiembre	2023-09-30T00:00:00	2024-11-08T21:00:00	4	Temperatura máxima	19.4
175603	7	Sololá	719	Santiago Atitlán	14	Cerro de Oro	9	Septiembre	2023-09-30T00:00:00	2024-11-08T21:00:00	3	Temperatura mínima	18.9
175604	7	Sololá	719	Santiago Atitlán	14	Cerro de Oro	9	Septiembre	2023-09-30T00:00:00	2024-11-08T21:00:00	5	Humedad	92
175605	7	Sololá	719	Santiago Atitlán	14	Cerro de Oro	9	Septiembre	2023-09-30T00:00:00	2024-11-08T21:00:00	6	Velocidad del viento	1.6
175606	7	Sololá	719	Santiago Atitlán	14	Cerro de Oro	9	Septiembre	2023-09-30T00:00:00	2024-11-08T21:00:00	7	Dirección del viento	1.61
175607	7	Sololá	719	Santiago Atitlán	14	Cerro de Oro	9	Septiembre	2023-09-30T00:00:00	2024-11-08T21:00:00	1	Precipitación	0
175608	7	Sololá	719	Santiago Atitlán	14	Cerro de Oro	9	Septiembre	2023-09-30T00:00:00	2024-11-08T21:00:00	8	Radiación solar	0
175609	7	Sololá	719	Santiago Atitlán	14	Cerro de Oro	9	Septiembre	2023-09-30T00:00:00	2024-11-08T22:00:00	2	Temperatura media	19.6
175610	7	Sololá	719	Santiago Atitlán	14	Cerro de Oro	9	Septiembre	2023-09-30T00:00:00	2024-11-08T22:00:00	4	Temperatura máxima	19.7
175611	7	Sololá	719	Santiago Atitlán	14	Cerro de Oro	9	Septiembre	2023-09-30T00:00:00	2024-11-08T22:00:00	3	Temperatura mínima	19.4
175612	7	Sololá	719	Santiago Atitlán	14	Cerro de Oro	9	Septiembre	2023-09-30T00:00:00	2024-11-08T22:00:00	5	Humedad	91
175613	7	Sololá	719	Santiago Atitlán	14	Cerro de Oro	9	Septiembre	2023-09-30T00:00:00	2024-11-08T22:00:00	6	Velocidad del viento	3.2
175614	7	Sololá	719	Santiago Atitlán	14	Cerro de Oro	9	Septiembre	2023-09-30T00:00:00	2024-11-08T22:00:00	7	Dirección del viento	3.22
175615	7	Sololá	719	Santiago Atitlán	14	Cerro de Oro	9	Septiembre	2023-09-30T00:00:00	2024-11-08T22:00:00	1	Precipitación	0
175616	7	Sololá	719	Santiago Atitlán	14	Cerro de Oro	9	Septiembre	2023-09-30T00:00:00	2024-11-08T22:00:00	8	Radiación solar	0
175617	7	Sololá	719	Santiago Atitlán	14	Cerro de Oro	9	Septiembre	2023-09-30T00:00:00	2024-11-08T23:00:00	2	Temperatura media	19.8
175618	7	Sololá	719	Santiago Atitlán	14	Cerro de Oro	9	Septiembre	2023-09-30T00:00:00	2024-11-08T23:00:00	4	Temperatura máxima	19.8
175619	7	Sololá	719	Santiago Atitlán	14	Cerro de Oro	9	Septiembre	2023-09-30T00:00:00	2024-11-08T23:00:00	3	Temperatura mínima	19.6
175620	7	Sololá	719	Santiago Atitlán	14	Cerro de Oro	9	Septiembre	2023-09-30T00:00:00	2024-11-08T23:00:00	5	Humedad	86
175621	7	Sololá	719	Santiago Atitlán	14	Cerro de Oro	9	Septiembre	2023-09-30T00:00:00	2024-11-08T23:00:00	6	Velocidad del viento	3.2
175622	7	Sololá	719	Santiago Atitlán	14	Cerro de Oro	9	Septiembre	2023-09-30T00:00:00	2024-11-08T23:00:00	7	Dirección del viento	3.22
175623	7	Sololá	719	Santiago Atitlán	14	Cerro de Oro	9	Septiembre	2023-09-30T00:00:00	2024-11-08T23:00:00	1	Precipitación	0
175624	7	Sololá	719	Santiago Atitlán	14	Cerro de Oro	9	Septiembre	2023-09-30T00:00:00	2024-11-08T23:00:00	8	Radiación solar	0
175625	7	Sololá	719	Santiago Atitlán	14	Cerro de Oro	10	Octubre	2023-01-10T00:00:00	2024-11-08T00:00:00	2	Temperatura media	19.9
175626	7	Sololá	719	Santiago Atitlán	14	Cerro de Oro	10	Octubre	2023-01-10T00:00:00	2024-11-08T00:00:00	4	Temperatura máxima	19.9
175627	7	Sololá	719	Santiago Atitlán	14	Cerro de Oro	10	Octubre	2023-01-10T00:00:00	2024-11-08T00:00:00	3	Temperatura mínima	19.5
175628	7	Sololá	719	Santiago Atitlán	14	Cerro de Oro	10	Octubre	2023-01-10T00:00:00	2024-11-08T00:00:00	5	Humedad	84
175629	7	Sololá	719	Santiago Atitlán	14	Cerro de Oro	10	Octubre	2023-01-10T00:00:00	2024-11-08T00:00:00	6	Velocidad del viento	4.8
175630	7	Sololá	719	Santiago Atitlán	14	Cerro de Oro	10	Octubre	2023-01-10T00:00:00	2024-11-08T00:00:00	7	Dirección del viento	4.83
175631	7	Sololá	719	Santiago Atitlán	14	Cerro de Oro	10	Octubre	2023-01-10T00:00:00	2024-11-08T00:00:00	1	Precipitación	0
175632	7	Sololá	719	Santiago Atitlán	14	Cerro de Oro	10	Octubre	2023-01-10T00:00:00	2024-11-08T00:00:00	8	Radiación solar	0
175633	7	Sololá	719	Santiago Atitlán	14	Cerro de Oro	10	Octubre	2023-01-10T00:00:00	2024-11-08T01:00:00	2	Temperatura media	19.3
175634	7	Sololá	719	Santiago Atitlán	14	Cerro de Oro	10	Octubre	2023-01-10T00:00:00	2024-11-08T01:00:00	4	Temperatura máxima	19.9
175635	7	Sololá	719	Santiago Atitlán	14	Cerro de Oro	10	Octubre	2023-01-10T00:00:00	2024-11-08T01:00:00	3	Temperatura mínima	19.3
175636	7	Sololá	719	Santiago Atitlán	14	Cerro de Oro	10	Octubre	2023-01-10T00:00:00	2024-11-08T01:00:00	5	Humedad	84
175637	7	Sololá	719	Santiago Atitlán	14	Cerro de Oro	10	Octubre	2023-01-10T00:00:00	2024-11-08T01:00:00	6	Velocidad del viento	6.4
175638	7	Sololá	719	Santiago Atitlán	14	Cerro de Oro	10	Octubre	2023-01-10T00:00:00	2024-11-08T01:00:00	7	Dirección del viento	6.44
175639	7	Sololá	719	Santiago Atitlán	14	Cerro de Oro	10	Octubre	2023-01-10T00:00:00	2024-11-08T01:00:00	1	Precipitación	0
175640	7	Sololá	719	Santiago Atitlán	14	Cerro de Oro	10	Octubre	2023-01-10T00:00:00	2024-11-08T01:00:00	8	Radiación solar	0
175641	7	Sololá	719	Santiago Atitlán	14	Cerro de Oro	10	Octubre	2023-01-10T00:00:00	2024-11-08T02:00:00	2	Temperatura media	19.3
175642	7	Sololá	719	Santiago Atitlán	14	Cerro de Oro	10	Octubre	2023-01-10T00:00:00	2024-11-08T02:00:00	4	Temperatura máxima	20
175643	7	Sololá	719	Santiago Atitlán	14	Cerro de Oro	10	Octubre	2023-01-10T00:00:00	2024-11-08T02:00:00	3	Temperatura mínima	19.2
175644	7	Sololá	719	Santiago Atitlán	14	Cerro de Oro	10	Octubre	2023-01-10T00:00:00	2024-11-08T02:00:00	5	Humedad	82
175645	7	Sololá	719	Santiago Atitlán	14	Cerro de Oro	10	Octubre	2023-01-10T00:00:00	2024-11-08T02:00:00	6	Velocidad del viento	6.4
175646	7	Sololá	719	Santiago Atitlán	14	Cerro de Oro	10	Octubre	2023-01-10T00:00:00	2024-11-08T02:00:00	7	Dirección del viento	6.44
175647	7	Sololá	719	Santiago Atitlán	14	Cerro de Oro	10	Octubre	2023-01-10T00:00:00	2024-11-08T02:00:00	1	Precipitación	0
175648	7	Sololá	719	Santiago Atitlán	14	Cerro de Oro	10	Octubre	2023-01-10T00:00:00	2024-11-08T02:00:00	8	Radiación solar	0
175649	7	Sololá	719	Santiago Atitlán	14	Cerro de Oro	10	Octubre	2023-01-10T00:00:00	2024-11-08T03:00:00	2	Temperatura media	19.2
175650	7	Sololá	719	Santiago Atitlán	14	Cerro de Oro	10	Octubre	2023-01-10T00:00:00	2024-11-08T03:00:00	4	Temperatura máxima	19.6
175651	7	Sololá	719	Santiago Atitlán	14	Cerro de Oro	10	Octubre	2023-01-10T00:00:00	2024-11-08T03:00:00	3	Temperatura mínima	19.1
175652	7	Sololá	719	Santiago Atitlán	14	Cerro de Oro	10	Octubre	2023-01-10T00:00:00	2024-11-08T03:00:00	5	Humedad	82
175653	7	Sololá	719	Santiago Atitlán	14	Cerro de Oro	10	Octubre	2023-01-10T00:00:00	2024-11-08T03:00:00	6	Velocidad del viento	4.8
175654	7	Sololá	719	Santiago Atitlán	14	Cerro de Oro	10	Octubre	2023-01-10T00:00:00	2024-11-08T03:00:00	7	Dirección del viento	4.83
175655	7	Sololá	719	Santiago Atitlán	14	Cerro de Oro	10	Octubre	2023-01-10T00:00:00	2024-11-08T03:00:00	1	Precipitación	0
175656	7	Sololá	719	Santiago Atitlán	14	Cerro de Oro	10	Octubre	2023-01-10T00:00:00	2024-11-08T03:00:00	8	Radiación solar	0
175657	7	Sololá	719	Santiago Atitlán	14	Cerro de Oro	10	Octubre	2023-01-10T00:00:00	2024-11-08T04:00:00	2	Temperatura media	18.7
175658	7	Sololá	719	Santiago Atitlán	14	Cerro de Oro	10	Octubre	2023-01-10T00:00:00	2024-11-08T04:00:00	4	Temperatura máxima	19.3
175659	7	Sololá	719	Santiago Atitlán	14	Cerro de Oro	10	Octubre	2023-01-10T00:00:00	2024-11-08T04:00:00	3	Temperatura mínima	18.6
175660	7	Sololá	719	Santiago Atitlán	14	Cerro de Oro	10	Octubre	2023-01-10T00:00:00	2024-11-08T04:00:00	5	Humedad	82
175661	7	Sololá	719	Santiago Atitlán	14	Cerro de Oro	10	Octubre	2023-01-10T00:00:00	2024-11-08T04:00:00	6	Velocidad del viento	4.8
175662	7	Sololá	719	Santiago Atitlán	14	Cerro de Oro	10	Octubre	2023-01-10T00:00:00	2024-11-08T04:00:00	7	Dirección del viento	4.83
175663	7	Sololá	719	Santiago Atitlán	14	Cerro de Oro	10	Octubre	2023-01-10T00:00:00	2024-11-08T04:00:00	1	Precipitación	0
175664	7	Sololá	719	Santiago Atitlán	14	Cerro de Oro	10	Octubre	2023-01-10T00:00:00	2024-11-08T04:00:00	8	Radiación solar	0
175665	7	Sololá	719	Santiago Atitlán	14	Cerro de Oro	10	Octubre	2023-01-10T00:00:00	2024-11-08T05:00:00	2	Temperatura media	19.2
175666	7	Sololá	719	Santiago Atitlán	14	Cerro de Oro	10	Octubre	2023-01-10T00:00:00	2024-11-08T05:00:00	4	Temperatura máxima	19.2
175667	7	Sololá	719	Santiago Atitlán	14	Cerro de Oro	10	Octubre	2023-01-10T00:00:00	2024-11-08T05:00:00	3	Temperatura mínima	18.7
175668	7	Sololá	719	Santiago Atitlán	14	Cerro de Oro	10	Octubre	2023-01-10T00:00:00	2024-11-08T05:00:00	5	Humedad	80
175669	7	Sololá	719	Santiago Atitlán	14	Cerro de Oro	10	Octubre	2023-01-10T00:00:00	2024-11-08T05:00:00	6	Velocidad del viento	4.8
175670	7	Sololá	719	Santiago Atitlán	14	Cerro de Oro	10	Octubre	2023-01-10T00:00:00	2024-11-08T05:00:00	7	Dirección del viento	4.83
175671	7	Sololá	719	Santiago Atitlán	14	Cerro de Oro	10	Octubre	2023-01-10T00:00:00	2024-11-08T05:00:00	1	Precipitación	0
175672	7	Sololá	719	Santiago Atitlán	14	Cerro de Oro	10	Octubre	2023-01-10T00:00:00	2024-11-08T05:00:00	8	Radiación solar	0
175673	7	Sololá	719	Santiago Atitlán	14	Cerro de Oro	10	Octubre	2023-01-10T00:00:00	2024-11-08T06:00:00	2	Temperatura media	18.7
175674	7	Sololá	719	Santiago Atitlán	14	Cerro de Oro	10	Octubre	2023-01-10T00:00:00	2024-11-08T06:00:00	4	Temperatura máxima	19.3
175675	7	Sololá	719	Santiago Atitlán	14	Cerro de Oro	10	Octubre	2023-01-10T00:00:00	2024-11-08T06:00:00	3	Temperatura mínima	18.5
175676	7	Sololá	719	Santiago Atitlán	14	Cerro de Oro	10	Octubre	2023-01-10T00:00:00	2024-11-08T06:00:00	5	Humedad	82
175677	7	Sololá	719	Santiago Atitlán	14	Cerro de Oro	10	Octubre	2023-01-10T00:00:00	2024-11-08T06:00:00	6	Velocidad del viento	3.2
175678	7	Sololá	719	Santiago Atitlán	14	Cerro de Oro	10	Octubre	2023-01-10T00:00:00	2024-11-08T06:00:00	7	Dirección del viento	3.22
175679	7	Sololá	719	Santiago Atitlán	14	Cerro de Oro	10	Octubre	2023-01-10T00:00:00	2024-11-08T06:00:00	1	Precipitación	0
175680	7	Sololá	719	Santiago Atitlán	14	Cerro de Oro	10	Octubre	2023-01-10T00:00:00	2024-11-08T06:00:00	8	Radiación solar	1
175681	7	Sololá	719	Santiago Atitlán	14	Cerro de Oro	10	Octubre	2023-01-10T00:00:00	2024-11-08T07:00:00	2	Temperatura media	20.7
175682	7	Sololá	719	Santiago Atitlán	14	Cerro de Oro	10	Octubre	2023-01-10T00:00:00	2024-11-08T07:00:00	4	Temperatura máxima	20.8
175683	7	Sololá	719	Santiago Atitlán	14	Cerro de Oro	10	Octubre	2023-01-10T00:00:00	2024-11-08T07:00:00	3	Temperatura mínima	18.7
175684	7	Sololá	719	Santiago Atitlán	14	Cerro de Oro	10	Octubre	2023-01-10T00:00:00	2024-11-08T07:00:00	5	Humedad	74
175685	7	Sololá	719	Santiago Atitlán	14	Cerro de Oro	10	Octubre	2023-01-10T00:00:00	2024-11-08T07:00:00	6	Velocidad del viento	6.4
175686	7	Sololá	719	Santiago Atitlán	14	Cerro de Oro	10	Octubre	2023-01-10T00:00:00	2024-11-08T07:00:00	7	Dirección del viento	6.44
175687	7	Sololá	719	Santiago Atitlán	14	Cerro de Oro	10	Octubre	2023-01-10T00:00:00	2024-11-08T07:00:00	1	Precipitación	0
175688	7	Sololá	719	Santiago Atitlán	14	Cerro de Oro	10	Octubre	2023-01-10T00:00:00	2024-11-08T07:00:00	8	Radiación solar	68
175689	7	Sololá	719	Santiago Atitlán	14	Cerro de Oro	10	Octubre	2023-01-10T00:00:00	2024-11-08T08:00:00	2	Temperatura media	21.6
175690	7	Sololá	719	Santiago Atitlán	14	Cerro de Oro	10	Octubre	2023-01-10T00:00:00	2024-11-08T08:00:00	4	Temperatura máxima	21.6
175691	7	Sololá	719	Santiago Atitlán	14	Cerro de Oro	10	Octubre	2023-01-10T00:00:00	2024-11-08T08:00:00	3	Temperatura mínima	20.7
175692	7	Sololá	719	Santiago Atitlán	14	Cerro de Oro	10	Octubre	2023-01-10T00:00:00	2024-11-08T08:00:00	5	Humedad	71
175693	7	Sololá	719	Santiago Atitlán	14	Cerro de Oro	10	Octubre	2023-01-10T00:00:00	2024-11-08T08:00:00	6	Velocidad del viento	9.7
175694	7	Sololá	719	Santiago Atitlán	14	Cerro de Oro	10	Octubre	2023-01-10T00:00:00	2024-11-08T08:00:00	7	Dirección del viento	9.66
175695	7	Sololá	719	Santiago Atitlán	14	Cerro de Oro	10	Octubre	2023-01-10T00:00:00	2024-11-08T08:00:00	1	Precipitación	0
175696	7	Sololá	719	Santiago Atitlán	14	Cerro de Oro	10	Octubre	2023-01-10T00:00:00	2024-11-08T08:00:00	8	Radiación solar	244
175697	7	Sololá	719	Santiago Atitlán	14	Cerro de Oro	10	Octubre	2023-01-10T00:00:00	2024-11-08T09:00:00	2	Temperatura media	23.4
175698	7	Sololá	719	Santiago Atitlán	14	Cerro de Oro	10	Octubre	2023-01-10T00:00:00	2024-11-08T09:00:00	4	Temperatura máxima	23.4
175699	7	Sololá	719	Santiago Atitlán	14	Cerro de Oro	10	Octubre	2023-01-10T00:00:00	2024-11-08T09:00:00	3	Temperatura mínima	21.6
175700	7	Sololá	719	Santiago Atitlán	14	Cerro de Oro	10	Octubre	2023-01-10T00:00:00	2024-11-08T09:00:00	5	Humedad	62
175701	7	Sololá	719	Santiago Atitlán	14	Cerro de Oro	10	Octubre	2023-01-10T00:00:00	2024-11-08T09:00:00	6	Velocidad del viento	3.2
175702	7	Sololá	719	Santiago Atitlán	14	Cerro de Oro	10	Octubre	2023-01-10T00:00:00	2024-11-08T09:00:00	7	Dirección del viento	3.22
175703	7	Sololá	719	Santiago Atitlán	14	Cerro de Oro	10	Octubre	2023-01-10T00:00:00	2024-11-08T09:00:00	1	Precipitación	0
175704	7	Sololá	719	Santiago Atitlán	14	Cerro de Oro	10	Octubre	2023-01-10T00:00:00	2024-11-08T09:00:00	8	Radiación solar	510
175705	7	Sololá	719	Santiago Atitlán	14	Cerro de Oro	10	Octubre	2023-01-10T00:00:00	2024-11-08T10:00:00	2	Temperatura media	23.8
175706	7	Sololá	719	Santiago Atitlán	14	Cerro de Oro	10	Octubre	2023-01-10T00:00:00	2024-11-08T10:00:00	4	Temperatura máxima	23.9
175707	7	Sololá	719	Santiago Atitlán	14	Cerro de Oro	10	Octubre	2023-01-10T00:00:00	2024-11-08T10:00:00	3	Temperatura mínima	23.4
175708	7	Sololá	719	Santiago Atitlán	14	Cerro de Oro	10	Octubre	2023-01-10T00:00:00	2024-11-08T10:00:00	5	Humedad	75
175709	7	Sololá	719	Santiago Atitlán	14	Cerro de Oro	10	Octubre	2023-01-10T00:00:00	2024-11-08T10:00:00	6	Velocidad del viento	4.8
175710	7	Sololá	719	Santiago Atitlán	14	Cerro de Oro	10	Octubre	2023-01-10T00:00:00	2024-11-08T10:00:00	7	Dirección del viento	4.83
175711	7	Sololá	719	Santiago Atitlán	14	Cerro de Oro	10	Octubre	2023-01-10T00:00:00	2024-11-08T10:00:00	1	Precipitación	0
175712	7	Sololá	719	Santiago Atitlán	14	Cerro de Oro	10	Octubre	2023-01-10T00:00:00	2024-11-08T10:00:00	8	Radiación solar	703
175713	7	Sololá	719	Santiago Atitlán	14	Cerro de Oro	10	Octubre	2023-01-10T00:00:00	2024-11-08T11:00:00	2	Temperatura media	24.3
175714	7	Sololá	719	Santiago Atitlán	14	Cerro de Oro	10	Octubre	2023-01-10T00:00:00	2024-11-08T11:00:00	4	Temperatura máxima	24.4
175715	7	Sololá	719	Santiago Atitlán	14	Cerro de Oro	10	Octubre	2023-01-10T00:00:00	2024-11-08T11:00:00	3	Temperatura mínima	23.7
175716	7	Sololá	719	Santiago Atitlán	14	Cerro de Oro	10	Octubre	2023-01-10T00:00:00	2024-11-08T11:00:00	5	Humedad	77
175717	7	Sololá	719	Santiago Atitlán	14	Cerro de Oro	10	Octubre	2023-01-10T00:00:00	2024-11-08T11:00:00	6	Velocidad del viento	8
175718	7	Sololá	719	Santiago Atitlán	14	Cerro de Oro	10	Octubre	2023-01-10T00:00:00	2024-11-08T11:00:00	7	Dirección del viento	8.05
175719	7	Sololá	719	Santiago Atitlán	14	Cerro de Oro	10	Octubre	2023-01-10T00:00:00	2024-11-08T11:00:00	1	Precipitación	0
175720	7	Sololá	719	Santiago Atitlán	14	Cerro de Oro	10	Octubre	2023-01-10T00:00:00	2024-11-08T11:00:00	8	Radiación solar	826
175721	7	Sololá	719	Santiago Atitlán	14	Cerro de Oro	10	Octubre	2023-01-10T00:00:00	2024-11-08T12:00:00	2	Temperatura media	24.6
175722	7	Sololá	719	Santiago Atitlán	14	Cerro de Oro	10	Octubre	2023-01-10T00:00:00	2024-11-08T12:00:00	4	Temperatura máxima	24.7
175723	7	Sololá	719	Santiago Atitlán	14	Cerro de Oro	10	Octubre	2023-01-10T00:00:00	2024-11-08T12:00:00	3	Temperatura mínima	24.1
175724	7	Sololá	719	Santiago Atitlán	14	Cerro de Oro	10	Octubre	2023-01-10T00:00:00	2024-11-08T12:00:00	5	Humedad	74
175725	7	Sololá	719	Santiago Atitlán	14	Cerro de Oro	10	Octubre	2023-01-10T00:00:00	2024-11-08T12:00:00	6	Velocidad del viento	11.3
175726	7	Sololá	719	Santiago Atitlán	14	Cerro de Oro	10	Octubre	2023-01-10T00:00:00	2024-11-08T12:00:00	7	Dirección del viento	11.27
175727	7	Sololá	719	Santiago Atitlán	14	Cerro de Oro	10	Octubre	2023-01-10T00:00:00	2024-11-08T12:00:00	1	Precipitación	0
175728	7	Sololá	719	Santiago Atitlán	14	Cerro de Oro	10	Octubre	2023-01-10T00:00:00	2024-11-08T12:00:00	8	Radiación solar	1007
175729	7	Sololá	719	Santiago Atitlán	14	Cerro de Oro	10	Octubre	2023-01-10T00:00:00	2024-11-08T13:00:00	2	Temperatura media	24.7
175730	7	Sololá	719	Santiago Atitlán	14	Cerro de Oro	10	Octubre	2023-01-10T00:00:00	2024-11-08T13:00:00	4	Temperatura máxima	25
175731	7	Sololá	719	Santiago Atitlán	14	Cerro de Oro	10	Octubre	2023-01-10T00:00:00	2024-11-08T13:00:00	3	Temperatura mínima	24.3
175732	7	Sololá	719	Santiago Atitlán	14	Cerro de Oro	10	Octubre	2023-01-10T00:00:00	2024-11-08T13:00:00	5	Humedad	74
175733	7	Sololá	719	Santiago Atitlán	14	Cerro de Oro	10	Octubre	2023-01-10T00:00:00	2024-11-08T13:00:00	6	Velocidad del viento	8
175734	7	Sololá	719	Santiago Atitlán	14	Cerro de Oro	10	Octubre	2023-01-10T00:00:00	2024-11-08T13:00:00	7	Dirección del viento	8.05
175735	7	Sololá	719	Santiago Atitlán	14	Cerro de Oro	10	Octubre	2023-01-10T00:00:00	2024-11-08T13:00:00	1	Precipitación	0
175736	7	Sololá	719	Santiago Atitlán	14	Cerro de Oro	10	Octubre	2023-01-10T00:00:00	2024-11-08T13:00:00	8	Radiación solar	760
175737	7	Sololá	719	Santiago Atitlán	14	Cerro de Oro	10	Octubre	2023-01-10T00:00:00	2024-11-08T14:00:00	2	Temperatura media	24.8
175738	7	Sololá	719	Santiago Atitlán	14	Cerro de Oro	10	Octubre	2023-01-10T00:00:00	2024-11-08T14:00:00	4	Temperatura máxima	24.9
175739	7	Sololá	719	Santiago Atitlán	14	Cerro de Oro	10	Octubre	2023-01-10T00:00:00	2024-11-08T14:00:00	3	Temperatura mínima	23.5
175740	7	Sololá	719	Santiago Atitlán	14	Cerro de Oro	10	Octubre	2023-01-10T00:00:00	2024-11-08T14:00:00	5	Humedad	77
175741	7	Sololá	719	Santiago Atitlán	14	Cerro de Oro	10	Octubre	2023-01-10T00:00:00	2024-11-08T14:00:00	6	Velocidad del viento	9.7
175742	7	Sololá	719	Santiago Atitlán	14	Cerro de Oro	10	Octubre	2023-01-10T00:00:00	2024-11-08T14:00:00	7	Dirección del viento	9.66
175743	7	Sololá	719	Santiago Atitlán	14	Cerro de Oro	10	Octubre	2023-01-10T00:00:00	2024-11-08T14:00:00	1	Precipitación	0
175744	7	Sololá	719	Santiago Atitlán	14	Cerro de Oro	10	Octubre	2023-01-10T00:00:00	2024-11-08T14:00:00	8	Radiación solar	630
175745	7	Sololá	719	Santiago Atitlán	14	Cerro de Oro	10	Octubre	2023-01-10T00:00:00	2024-11-08T15:00:00	2	Temperatura media	23.1
175746	7	Sololá	719	Santiago Atitlán	14	Cerro de Oro	10	Octubre	2023-01-10T00:00:00	2024-11-08T15:00:00	4	Temperatura máxima	24.8
175747	7	Sololá	719	Santiago Atitlán	14	Cerro de Oro	10	Octubre	2023-01-10T00:00:00	2024-11-08T15:00:00	3	Temperatura mínima	23.1
175748	7	Sololá	719	Santiago Atitlán	14	Cerro de Oro	10	Octubre	2023-01-10T00:00:00	2024-11-08T15:00:00	5	Humedad	81
175749	7	Sololá	719	Santiago Atitlán	14	Cerro de Oro	10	Octubre	2023-01-10T00:00:00	2024-11-08T15:00:00	6	Velocidad del viento	9.7
175750	7	Sololá	719	Santiago Atitlán	14	Cerro de Oro	10	Octubre	2023-01-10T00:00:00	2024-11-08T15:00:00	7	Dirección del viento	9.66
175751	7	Sololá	719	Santiago Atitlán	14	Cerro de Oro	10	Octubre	2023-01-10T00:00:00	2024-11-08T15:00:00	1	Precipitación	0
175752	7	Sololá	719	Santiago Atitlán	14	Cerro de Oro	10	Octubre	2023-01-10T00:00:00	2024-11-08T15:00:00	8	Radiación solar	459
175753	7	Sololá	719	Santiago Atitlán	14	Cerro de Oro	10	Octubre	2023-01-10T00:00:00	2024-11-08T16:00:00	2	Temperatura media	21.9
175754	7	Sololá	719	Santiago Atitlán	14	Cerro de Oro	10	Octubre	2023-01-10T00:00:00	2024-11-08T16:00:00	4	Temperatura máxima	23.1
175755	7	Sololá	719	Santiago Atitlán	14	Cerro de Oro	10	Octubre	2023-01-10T00:00:00	2024-11-08T16:00:00	3	Temperatura mínima	21.9
175756	7	Sololá	719	Santiago Atitlán	14	Cerro de Oro	10	Octubre	2023-01-10T00:00:00	2024-11-08T16:00:00	5	Humedad	85
175757	7	Sololá	719	Santiago Atitlán	14	Cerro de Oro	10	Octubre	2023-01-10T00:00:00	2024-11-08T16:00:00	6	Velocidad del viento	9.7
175758	7	Sololá	719	Santiago Atitlán	14	Cerro de Oro	10	Octubre	2023-01-10T00:00:00	2024-11-08T16:00:00	7	Dirección del viento	9.66
175759	7	Sololá	719	Santiago Atitlán	14	Cerro de Oro	10	Octubre	2023-01-10T00:00:00	2024-11-08T16:00:00	1	Precipitación	0
175760	7	Sololá	719	Santiago Atitlán	14	Cerro de Oro	10	Octubre	2023-01-10T00:00:00	2024-11-08T16:00:00	8	Radiación solar	176
175761	7	Sololá	719	Santiago Atitlán	14	Cerro de Oro	10	Octubre	2023-01-10T00:00:00	2024-11-08T17:00:00	2	Temperatura media	21.2
175762	7	Sololá	719	Santiago Atitlán	14	Cerro de Oro	10	Octubre	2023-01-10T00:00:00	2024-11-08T17:00:00	4	Temperatura máxima	21.9
175763	7	Sololá	719	Santiago Atitlán	14	Cerro de Oro	10	Octubre	2023-01-10T00:00:00	2024-11-08T17:00:00	3	Temperatura mínima	21.2
175764	7	Sololá	719	Santiago Atitlán	14	Cerro de Oro	10	Octubre	2023-01-10T00:00:00	2024-11-08T17:00:00	5	Humedad	85
175765	7	Sololá	719	Santiago Atitlán	14	Cerro de Oro	10	Octubre	2023-01-10T00:00:00	2024-11-08T17:00:00	6	Velocidad del viento	4.8
175766	7	Sololá	719	Santiago Atitlán	14	Cerro de Oro	10	Octubre	2023-01-10T00:00:00	2024-11-08T17:00:00	7	Dirección del viento	4.83
175767	7	Sololá	719	Santiago Atitlán	14	Cerro de Oro	10	Octubre	2023-01-10T00:00:00	2024-11-08T17:00:00	1	Precipitación	0
175768	7	Sololá	719	Santiago Atitlán	14	Cerro de Oro	10	Octubre	2023-01-10T00:00:00	2024-11-08T17:00:00	8	Radiación solar	59
175769	7	Sololá	719	Santiago Atitlán	14	Cerro de Oro	10	Octubre	2023-01-10T00:00:00	2024-11-08T18:00:00	2	Temperatura media	18.3
175770	7	Sololá	719	Santiago Atitlán	14	Cerro de Oro	10	Octubre	2023-01-10T00:00:00	2024-11-08T18:00:00	4	Temperatura máxima	21.3
175771	7	Sololá	719	Santiago Atitlán	14	Cerro de Oro	10	Octubre	2023-01-10T00:00:00	2024-11-08T18:00:00	3	Temperatura mínima	18.3
175772	7	Sololá	719	Santiago Atitlán	14	Cerro de Oro	10	Octubre	2023-01-10T00:00:00	2024-11-08T18:00:00	5	Humedad	93
175773	7	Sololá	719	Santiago Atitlán	14	Cerro de Oro	10	Octubre	2023-01-10T00:00:00	2024-11-08T18:00:00	6	Velocidad del viento	11.3
175774	7	Sololá	719	Santiago Atitlán	14	Cerro de Oro	10	Octubre	2023-01-10T00:00:00	2024-11-08T18:00:00	7	Dirección del viento	11.27
175775	7	Sololá	719	Santiago Atitlán	14	Cerro de Oro	10	Octubre	2023-01-10T00:00:00	2024-11-08T18:00:00	1	Precipitación	0
175776	7	Sololá	719	Santiago Atitlán	14	Cerro de Oro	10	Octubre	2023-01-10T00:00:00	2024-11-08T18:00:00	8	Radiación solar	15
175777	7	Sololá	719	Santiago Atitlán	14	Cerro de Oro	10	Octubre	2023-01-10T00:00:00	2024-11-08T19:00:00	2	Temperatura media	18.6
175778	7	Sololá	719	Santiago Atitlán	14	Cerro de Oro	10	Octubre	2023-01-10T00:00:00	2024-11-08T19:00:00	4	Temperatura máxima	18.6
175779	7	Sololá	719	Santiago Atitlán	14	Cerro de Oro	10	Octubre	2023-01-10T00:00:00	2024-11-08T19:00:00	3	Temperatura mínima	18
175780	7	Sololá	719	Santiago Atitlán	14	Cerro de Oro	10	Octubre	2023-01-10T00:00:00	2024-11-08T19:00:00	5	Humedad	93
175781	7	Sololá	719	Santiago Atitlán	14	Cerro de Oro	10	Octubre	2023-01-10T00:00:00	2024-11-08T19:00:00	6	Velocidad del viento	4.8
175782	7	Sololá	719	Santiago Atitlán	14	Cerro de Oro	10	Octubre	2023-01-10T00:00:00	2024-11-08T19:00:00	7	Dirección del viento	4.83
175783	7	Sololá	719	Santiago Atitlán	14	Cerro de Oro	10	Octubre	2023-01-10T00:00:00	2024-11-08T19:00:00	1	Precipitación	0
175784	7	Sololá	719	Santiago Atitlán	14	Cerro de Oro	10	Octubre	2023-01-10T00:00:00	2024-11-08T19:00:00	8	Radiación solar	0
175785	7	Sololá	719	Santiago Atitlán	14	Cerro de Oro	10	Octubre	2023-01-10T00:00:00	2024-11-08T20:00:00	2	Temperatura media	19.1
175786	7	Sololá	719	Santiago Atitlán	14	Cerro de Oro	10	Octubre	2023-01-10T00:00:00	2024-11-08T20:00:00	4	Temperatura máxima	19.2
175787	7	Sololá	719	Santiago Atitlán	14	Cerro de Oro	10	Octubre	2023-01-10T00:00:00	2024-11-08T20:00:00	3	Temperatura mínima	18.6
175788	7	Sololá	719	Santiago Atitlán	14	Cerro de Oro	10	Octubre	2023-01-10T00:00:00	2024-11-08T20:00:00	5	Humedad	92
175789	7	Sololá	719	Santiago Atitlán	14	Cerro de Oro	10	Octubre	2023-01-10T00:00:00	2024-11-08T20:00:00	6	Velocidad del viento	3.2
175790	7	Sololá	719	Santiago Atitlán	14	Cerro de Oro	10	Octubre	2023-01-10T00:00:00	2024-11-08T20:00:00	7	Dirección del viento	3.22
175791	7	Sololá	719	Santiago Atitlán	14	Cerro de Oro	10	Octubre	2023-01-10T00:00:00	2024-11-08T20:00:00	1	Precipitación	0
175792	7	Sololá	719	Santiago Atitlán	14	Cerro de Oro	10	Octubre	2023-01-10T00:00:00	2024-11-08T20:00:00	8	Radiación solar	0
175793	7	Sololá	719	Santiago Atitlán	14	Cerro de Oro	10	Octubre	2023-01-10T00:00:00	2024-11-08T21:00:00	2	Temperatura media	18.9
175794	7	Sololá	719	Santiago Atitlán	14	Cerro de Oro	10	Octubre	2023-01-10T00:00:00	2024-11-08T21:00:00	4	Temperatura máxima	19.3
175795	7	Sololá	719	Santiago Atitlán	14	Cerro de Oro	10	Octubre	2023-01-10T00:00:00	2024-11-08T21:00:00	3	Temperatura mínima	18.9
175796	7	Sololá	719	Santiago Atitlán	14	Cerro de Oro	10	Octubre	2023-01-10T00:00:00	2024-11-08T21:00:00	5	Humedad	91
175797	7	Sololá	719	Santiago Atitlán	14	Cerro de Oro	10	Octubre	2023-01-10T00:00:00	2024-11-08T21:00:00	6	Velocidad del viento	3.2
175798	7	Sololá	719	Santiago Atitlán	14	Cerro de Oro	10	Octubre	2023-01-10T00:00:00	2024-11-08T21:00:00	7	Dirección del viento	3.22
175799	7	Sololá	719	Santiago Atitlán	14	Cerro de Oro	10	Octubre	2023-01-10T00:00:00	2024-11-08T21:00:00	1	Precipitación	0.6
175800	7	Sololá	719	Santiago Atitlán	14	Cerro de Oro	10	Octubre	2023-01-10T00:00:00	2024-11-08T21:00:00	8	Radiación solar	0
175801	7	Sololá	719	Santiago Atitlán	14	Cerro de Oro	10	Octubre	2023-01-10T00:00:00	2024-11-08T22:00:00	2	Temperatura media	18.6
175802	7	Sololá	719	Santiago Atitlán	14	Cerro de Oro	10	Octubre	2023-01-10T00:00:00	2024-11-08T22:00:00	4	Temperatura máxima	19
175803	7	Sololá	719	Santiago Atitlán	14	Cerro de Oro	10	Octubre	2023-01-10T00:00:00	2024-11-08T22:00:00	3	Temperatura mínima	18.6
175804	7	Sololá	719	Santiago Atitlán	14	Cerro de Oro	10	Octubre	2023-01-10T00:00:00	2024-11-08T22:00:00	5	Humedad	92
175805	7	Sololá	719	Santiago Atitlán	14	Cerro de Oro	10	Octubre	2023-01-10T00:00:00	2024-11-08T22:00:00	6	Velocidad del viento	1.6
175806	7	Sololá	719	Santiago Atitlán	14	Cerro de Oro	10	Octubre	2023-01-10T00:00:00	2024-11-08T22:00:00	7	Dirección del viento	1.61
175807	7	Sololá	719	Santiago Atitlán	14	Cerro de Oro	10	Octubre	2023-01-10T00:00:00	2024-11-08T22:00:00	1	Precipitación	1
175808	7	Sololá	719	Santiago Atitlán	14	Cerro de Oro	10	Octubre	2023-01-10T00:00:00	2024-11-08T22:00:00	8	Radiación solar	0
175809	7	Sololá	719	Santiago Atitlán	14	Cerro de Oro	10	Octubre	2023-01-10T00:00:00	2024-11-08T23:00:00	2	Temperatura media	18.7
175810	7	Sololá	719	Santiago Atitlán	14	Cerro de Oro	10	Octubre	2023-01-10T00:00:00	2024-11-08T23:00:00	4	Temperatura máxima	18.9
175811	7	Sololá	719	Santiago Atitlán	14	Cerro de Oro	10	Octubre	2023-01-10T00:00:00	2024-11-08T23:00:00	3	Temperatura mínima	18.6
175812	7	Sololá	719	Santiago Atitlán	14	Cerro de Oro	10	Octubre	2023-01-10T00:00:00	2024-11-08T23:00:00	5	Humedad	93
175813	7	Sololá	719	Santiago Atitlán	14	Cerro de Oro	10	Octubre	2023-01-10T00:00:00	2024-11-08T23:00:00	6	Velocidad del viento	1.6
175814	7	Sololá	719	Santiago Atitlán	14	Cerro de Oro	10	Octubre	2023-01-10T00:00:00	2024-11-08T23:00:00	7	Dirección del viento	1.61
175815	7	Sololá	719	Santiago Atitlán	14	Cerro de Oro	10	Octubre	2023-01-10T00:00:00	2024-11-08T23:00:00	1	Precipitación	0
175816	7	Sololá	719	Santiago Atitlán	14	Cerro de Oro	10	Octubre	2023-01-10T00:00:00	2024-11-08T23:00:00	8	Radiación solar	0
175817	7	Sololá	719	Santiago Atitlán	14	Cerro de Oro	10	Octubre	2023-02-10T00:00:00	2024-11-08T00:00:00	2	Temperatura media	18.3
175818	7	Sololá	719	Santiago Atitlán	14	Cerro de Oro	10	Octubre	2023-02-10T00:00:00	2024-11-08T00:00:00	4	Temperatura máxima	18.7
175819	7	Sololá	719	Santiago Atitlán	14	Cerro de Oro	10	Octubre	2023-02-10T00:00:00	2024-11-08T00:00:00	3	Temperatura mínima	18.3
175820	7	Sololá	719	Santiago Atitlán	14	Cerro de Oro	10	Octubre	2023-02-10T00:00:00	2024-11-08T00:00:00	5	Humedad	93
175821	7	Sololá	719	Santiago Atitlán	14	Cerro de Oro	10	Octubre	2023-02-10T00:00:00	2024-11-08T00:00:00	6	Velocidad del viento	3.2
175822	7	Sololá	719	Santiago Atitlán	14	Cerro de Oro	10	Octubre	2023-02-10T00:00:00	2024-11-08T00:00:00	7	Dirección del viento	3.22
175823	7	Sololá	719	Santiago Atitlán	14	Cerro de Oro	10	Octubre	2023-02-10T00:00:00	2024-11-08T00:00:00	1	Precipitación	0
175824	7	Sololá	719	Santiago Atitlán	14	Cerro de Oro	10	Octubre	2023-02-10T00:00:00	2024-11-08T00:00:00	8	Radiación solar	0
175825	7	Sololá	719	Santiago Atitlán	14	Cerro de Oro	10	Octubre	2023-02-10T00:00:00	2024-11-08T01:00:00	2	Temperatura media	18.2
175826	7	Sololá	719	Santiago Atitlán	14	Cerro de Oro	10	Octubre	2023-02-10T00:00:00	2024-11-08T01:00:00	4	Temperatura máxima	18.3
175827	7	Sololá	719	Santiago Atitlán	14	Cerro de Oro	10	Octubre	2023-02-10T00:00:00	2024-11-08T01:00:00	3	Temperatura mínima	18.1
175828	7	Sololá	719	Santiago Atitlán	14	Cerro de Oro	10	Octubre	2023-02-10T00:00:00	2024-11-08T01:00:00	5	Humedad	93
175829	7	Sololá	719	Santiago Atitlán	14	Cerro de Oro	10	Octubre	2023-02-10T00:00:00	2024-11-08T01:00:00	6	Velocidad del viento	3.2
175830	7	Sololá	719	Santiago Atitlán	14	Cerro de Oro	10	Octubre	2023-02-10T00:00:00	2024-11-08T01:00:00	7	Dirección del viento	3.22
175831	7	Sololá	719	Santiago Atitlán	14	Cerro de Oro	10	Octubre	2023-02-10T00:00:00	2024-11-08T01:00:00	1	Precipitación	0
175832	7	Sololá	719	Santiago Atitlán	14	Cerro de Oro	10	Octubre	2023-02-10T00:00:00	2024-11-08T01:00:00	8	Radiación solar	0
175833	7	Sololá	719	Santiago Atitlán	14	Cerro de Oro	10	Octubre	2023-02-10T00:00:00	2024-11-08T02:00:00	2	Temperatura media	18.1
175834	7	Sololá	719	Santiago Atitlán	14	Cerro de Oro	10	Octubre	2023-02-10T00:00:00	2024-11-08T02:00:00	4	Temperatura máxima	18.2
175835	7	Sololá	719	Santiago Atitlán	14	Cerro de Oro	10	Octubre	2023-02-10T00:00:00	2024-11-08T02:00:00	3	Temperatura mínima	18
175836	7	Sololá	719	Santiago Atitlán	14	Cerro de Oro	10	Octubre	2023-02-10T00:00:00	2024-11-08T02:00:00	5	Humedad	93
175837	7	Sololá	719	Santiago Atitlán	14	Cerro de Oro	10	Octubre	2023-02-10T00:00:00	2024-11-08T02:00:00	6	Velocidad del viento	4.8
175838	7	Sololá	719	Santiago Atitlán	14	Cerro de Oro	10	Octubre	2023-02-10T00:00:00	2024-11-08T02:00:00	7	Dirección del viento	4.83
175839	7	Sololá	719	Santiago Atitlán	14	Cerro de Oro	10	Octubre	2023-02-10T00:00:00	2024-11-08T02:00:00	1	Precipitación	0
175840	7	Sololá	719	Santiago Atitlán	14	Cerro de Oro	10	Octubre	2023-02-10T00:00:00	2024-11-08T02:00:00	8	Radiación solar	0
175841	7	Sololá	719	Santiago Atitlán	14	Cerro de Oro	10	Octubre	2023-02-10T00:00:00	2024-11-08T03:00:00	2	Temperatura media	18
175842	7	Sololá	719	Santiago Atitlán	14	Cerro de Oro	10	Octubre	2023-02-10T00:00:00	2024-11-08T03:00:00	4	Temperatura máxima	18.2
175843	7	Sololá	719	Santiago Atitlán	14	Cerro de Oro	10	Octubre	2023-02-10T00:00:00	2024-11-08T03:00:00	3	Temperatura mínima	17.8
175844	7	Sololá	719	Santiago Atitlán	14	Cerro de Oro	10	Octubre	2023-02-10T00:00:00	2024-11-08T03:00:00	5	Humedad	92
175845	7	Sololá	719	Santiago Atitlán	14	Cerro de Oro	10	Octubre	2023-02-10T00:00:00	2024-11-08T03:00:00	6	Velocidad del viento	3.2
175846	7	Sololá	719	Santiago Atitlán	14	Cerro de Oro	10	Octubre	2023-02-10T00:00:00	2024-11-08T03:00:00	7	Dirección del viento	3.22
175847	7	Sololá	719	Santiago Atitlán	14	Cerro de Oro	10	Octubre	2023-02-10T00:00:00	2024-11-08T03:00:00	1	Precipitación	0
175848	7	Sololá	719	Santiago Atitlán	14	Cerro de Oro	10	Octubre	2023-02-10T00:00:00	2024-11-08T03:00:00	8	Radiación solar	0
175849	7	Sololá	719	Santiago Atitlán	14	Cerro de Oro	10	Octubre	2023-02-10T00:00:00	2024-11-08T04:00:00	2	Temperatura media	18.1
175850	7	Sololá	719	Santiago Atitlán	14	Cerro de Oro	10	Octubre	2023-02-10T00:00:00	2024-11-08T04:00:00	4	Temperatura máxima	18.5
175851	7	Sololá	719	Santiago Atitlán	14	Cerro de Oro	10	Octubre	2023-02-10T00:00:00	2024-11-08T04:00:00	3	Temperatura mínima	17.9
175852	7	Sololá	719	Santiago Atitlán	14	Cerro de Oro	10	Octubre	2023-02-10T00:00:00	2024-11-08T04:00:00	5	Humedad	89
175853	7	Sololá	719	Santiago Atitlán	14	Cerro de Oro	10	Octubre	2023-02-10T00:00:00	2024-11-08T04:00:00	6	Velocidad del viento	4.8
175854	7	Sololá	719	Santiago Atitlán	14	Cerro de Oro	10	Octubre	2023-02-10T00:00:00	2024-11-08T04:00:00	7	Dirección del viento	4.83
175855	7	Sololá	719	Santiago Atitlán	14	Cerro de Oro	10	Octubre	2023-02-10T00:00:00	2024-11-08T04:00:00	1	Precipitación	0
175856	7	Sololá	719	Santiago Atitlán	14	Cerro de Oro	10	Octubre	2023-02-10T00:00:00	2024-11-08T04:00:00	8	Radiación solar	0
175857	7	Sololá	719	Santiago Atitlán	14	Cerro de Oro	10	Octubre	2023-02-10T00:00:00	2024-11-08T05:00:00	2	Temperatura media	18.6
175858	7	Sololá	719	Santiago Atitlán	14	Cerro de Oro	10	Octubre	2023-02-10T00:00:00	2024-11-08T05:00:00	4	Temperatura máxima	18.8
175859	7	Sololá	719	Santiago Atitlán	14	Cerro de Oro	10	Octubre	2023-02-10T00:00:00	2024-11-08T05:00:00	3	Temperatura mínima	17.9
175860	7	Sololá	719	Santiago Atitlán	14	Cerro de Oro	10	Octubre	2023-02-10T00:00:00	2024-11-08T05:00:00	5	Humedad	86
175861	7	Sololá	719	Santiago Atitlán	14	Cerro de Oro	10	Octubre	2023-02-10T00:00:00	2024-11-08T05:00:00	6	Velocidad del viento	4.8
175862	7	Sololá	719	Santiago Atitlán	14	Cerro de Oro	10	Octubre	2023-02-10T00:00:00	2024-11-08T05:00:00	7	Dirección del viento	4.83
175863	7	Sololá	719	Santiago Atitlán	14	Cerro de Oro	10	Octubre	2023-02-10T00:00:00	2024-11-08T05:00:00	1	Precipitación	0
175864	7	Sololá	719	Santiago Atitlán	14	Cerro de Oro	10	Octubre	2023-02-10T00:00:00	2024-11-08T05:00:00	8	Radiación solar	0
175865	7	Sololá	719	Santiago Atitlán	14	Cerro de Oro	10	Octubre	2023-02-10T00:00:00	2024-11-08T06:00:00	2	Temperatura media	18.3
175866	7	Sololá	719	Santiago Atitlán	14	Cerro de Oro	10	Octubre	2023-02-10T00:00:00	2024-11-08T06:00:00	4	Temperatura máxima	18.6
175867	7	Sololá	719	Santiago Atitlán	14	Cerro de Oro	10	Octubre	2023-02-10T00:00:00	2024-11-08T06:00:00	3	Temperatura mínima	18.2
175868	7	Sololá	719	Santiago Atitlán	14	Cerro de Oro	10	Octubre	2023-02-10T00:00:00	2024-11-08T06:00:00	5	Humedad	87
175869	7	Sololá	719	Santiago Atitlán	14	Cerro de Oro	10	Octubre	2023-02-10T00:00:00	2024-11-08T06:00:00	6	Velocidad del viento	3.2
175870	7	Sololá	719	Santiago Atitlán	14	Cerro de Oro	10	Octubre	2023-02-10T00:00:00	2024-11-08T06:00:00	7	Dirección del viento	3.22
175871	7	Sololá	719	Santiago Atitlán	14	Cerro de Oro	10	Octubre	2023-02-10T00:00:00	2024-11-08T06:00:00	1	Precipitación	0
175872	7	Sololá	719	Santiago Atitlán	14	Cerro de Oro	10	Octubre	2023-02-10T00:00:00	2024-11-08T06:00:00	8	Radiación solar	0
175873	7	Sololá	719	Santiago Atitlán	14	Cerro de Oro	10	Octubre	2023-02-10T00:00:00	2024-11-08T07:00:00	2	Temperatura media	18.6
175874	7	Sololá	719	Santiago Atitlán	14	Cerro de Oro	10	Octubre	2023-02-10T00:00:00	2024-11-08T07:00:00	4	Temperatura máxima	19.2
175875	7	Sololá	719	Santiago Atitlán	14	Cerro de Oro	10	Octubre	2023-02-10T00:00:00	2024-11-08T07:00:00	3	Temperatura mínima	18.4
175876	7	Sololá	719	Santiago Atitlán	14	Cerro de Oro	10	Octubre	2023-02-10T00:00:00	2024-11-08T07:00:00	5	Humedad	89
175877	7	Sololá	719	Santiago Atitlán	14	Cerro de Oro	10	Octubre	2023-02-10T00:00:00	2024-11-08T07:00:00	6	Velocidad del viento	3.2
175878	7	Sololá	719	Santiago Atitlán	14	Cerro de Oro	10	Octubre	2023-02-10T00:00:00	2024-11-08T07:00:00	7	Dirección del viento	3.22
175879	7	Sololá	719	Santiago Atitlán	14	Cerro de Oro	10	Octubre	2023-02-10T00:00:00	2024-11-08T07:00:00	1	Precipitación	0
175880	7	Sololá	719	Santiago Atitlán	14	Cerro de Oro	10	Octubre	2023-02-10T00:00:00	2024-11-08T07:00:00	8	Radiación solar	56
175881	7	Sololá	719	Santiago Atitlán	14	Cerro de Oro	10	Octubre	2023-02-10T00:00:00	2024-11-08T08:00:00	2	Temperatura media	21.3
175882	7	Sololá	719	Santiago Atitlán	14	Cerro de Oro	10	Octubre	2023-02-10T00:00:00	2024-11-08T08:00:00	4	Temperatura máxima	21.3
175883	7	Sololá	719	Santiago Atitlán	14	Cerro de Oro	10	Octubre	2023-02-10T00:00:00	2024-11-08T08:00:00	3	Temperatura mínima	18.6
175884	7	Sololá	719	Santiago Atitlán	14	Cerro de Oro	10	Octubre	2023-02-10T00:00:00	2024-11-08T08:00:00	5	Humedad	77
175885	7	Sololá	719	Santiago Atitlán	14	Cerro de Oro	10	Octubre	2023-02-10T00:00:00	2024-11-08T08:00:00	6	Velocidad del viento	1.6
175886	7	Sololá	719	Santiago Atitlán	14	Cerro de Oro	10	Octubre	2023-02-10T00:00:00	2024-11-08T08:00:00	7	Dirección del viento	1.61
175887	7	Sololá	719	Santiago Atitlán	14	Cerro de Oro	10	Octubre	2023-02-10T00:00:00	2024-11-08T08:00:00	1	Precipitación	0
175888	7	Sololá	719	Santiago Atitlán	14	Cerro de Oro	10	Octubre	2023-02-10T00:00:00	2024-11-08T08:00:00	8	Radiación solar	178
175889	7	Sololá	719	Santiago Atitlán	14	Cerro de Oro	10	Octubre	2023-02-10T00:00:00	2024-11-08T09:00:00	2	Temperatura media	22.8
175890	7	Sololá	719	Santiago Atitlán	14	Cerro de Oro	10	Octubre	2023-02-10T00:00:00	2024-11-08T09:00:00	4	Temperatura máxima	22.8
175891	7	Sololá	719	Santiago Atitlán	14	Cerro de Oro	10	Octubre	2023-02-10T00:00:00	2024-11-08T09:00:00	3	Temperatura mínima	21.3
175892	7	Sololá	719	Santiago Atitlán	14	Cerro de Oro	10	Octubre	2023-02-10T00:00:00	2024-11-08T09:00:00	5	Humedad	72
175893	7	Sololá	719	Santiago Atitlán	14	Cerro de Oro	10	Octubre	2023-02-10T00:00:00	2024-11-08T09:00:00	6	Velocidad del viento	3.2
175894	7	Sololá	719	Santiago Atitlán	14	Cerro de Oro	10	Octubre	2023-02-10T00:00:00	2024-11-08T09:00:00	7	Dirección del viento	3.22
175895	7	Sololá	719	Santiago Atitlán	14	Cerro de Oro	10	Octubre	2023-02-10T00:00:00	2024-11-08T09:00:00	1	Precipitación	0
175896	7	Sololá	719	Santiago Atitlán	14	Cerro de Oro	10	Octubre	2023-02-10T00:00:00	2024-11-08T09:00:00	8	Radiación solar	474
175897	7	Sololá	719	Santiago Atitlán	14	Cerro de Oro	10	Octubre	2023-02-10T00:00:00	2024-11-08T10:00:00	2	Temperatura media	24.6
175898	7	Sololá	719	Santiago Atitlán	14	Cerro de Oro	10	Octubre	2023-02-10T00:00:00	2024-11-08T10:00:00	4	Temperatura máxima	24.7
175899	7	Sololá	719	Santiago Atitlán	14	Cerro de Oro	10	Octubre	2023-02-10T00:00:00	2024-11-08T10:00:00	3	Temperatura mínima	22.8
175900	7	Sololá	719	Santiago Atitlán	14	Cerro de Oro	10	Octubre	2023-02-10T00:00:00	2024-11-08T10:00:00	5	Humedad	62
175901	7	Sololá	719	Santiago Atitlán	14	Cerro de Oro	10	Octubre	2023-02-10T00:00:00	2024-11-08T10:00:00	6	Velocidad del viento	3.2
175902	7	Sololá	719	Santiago Atitlán	14	Cerro de Oro	10	Octubre	2023-02-10T00:00:00	2024-11-08T10:00:00	7	Dirección del viento	3.22
175903	7	Sololá	719	Santiago Atitlán	14	Cerro de Oro	10	Octubre	2023-02-10T00:00:00	2024-11-08T10:00:00	1	Precipitación	0
175904	7	Sololá	719	Santiago Atitlán	14	Cerro de Oro	10	Octubre	2023-02-10T00:00:00	2024-11-08T10:00:00	8	Radiación solar	706
175905	7	Sololá	719	Santiago Atitlán	14	Cerro de Oro	10	Octubre	2023-02-10T00:00:00	2024-11-08T11:00:00	2	Temperatura media	23.8
175906	7	Sololá	719	Santiago Atitlán	14	Cerro de Oro	10	Octubre	2023-02-10T00:00:00	2024-11-08T11:00:00	4	Temperatura máxima	24.7
175907	7	Sololá	719	Santiago Atitlán	14	Cerro de Oro	10	Octubre	2023-02-10T00:00:00	2024-11-08T11:00:00	3	Temperatura mínima	23.5
175908	7	Sololá	719	Santiago Atitlán	14	Cerro de Oro	10	Octubre	2023-02-10T00:00:00	2024-11-08T11:00:00	5	Humedad	74
175909	7	Sololá	719	Santiago Atitlán	14	Cerro de Oro	10	Octubre	2023-02-10T00:00:00	2024-11-08T11:00:00	6	Velocidad del viento	4.8
175910	7	Sololá	719	Santiago Atitlán	14	Cerro de Oro	10	Octubre	2023-02-10T00:00:00	2024-11-08T11:00:00	7	Dirección del viento	4.83
175911	7	Sololá	719	Santiago Atitlán	14	Cerro de Oro	10	Octubre	2023-02-10T00:00:00	2024-11-08T11:00:00	1	Precipitación	0
175912	7	Sololá	719	Santiago Atitlán	14	Cerro de Oro	10	Octubre	2023-02-10T00:00:00	2024-11-08T11:00:00	8	Radiación solar	835
175913	7	Sololá	719	Santiago Atitlán	14	Cerro de Oro	10	Octubre	2023-02-10T00:00:00	2024-11-08T12:00:00	2	Temperatura media	24.6
175914	7	Sololá	719	Santiago Atitlán	14	Cerro de Oro	10	Octubre	2023-02-10T00:00:00	2024-11-08T12:00:00	4	Temperatura máxima	25.8
175915	7	Sololá	719	Santiago Atitlán	14	Cerro de Oro	10	Octubre	2023-02-10T00:00:00	2024-11-08T12:00:00	3	Temperatura mínima	23.8
175916	7	Sololá	719	Santiago Atitlán	14	Cerro de Oro	10	Octubre	2023-02-10T00:00:00	2024-11-08T12:00:00	5	Humedad	76
175917	7	Sololá	719	Santiago Atitlán	14	Cerro de Oro	10	Octubre	2023-02-10T00:00:00	2024-11-08T12:00:00	6	Velocidad del viento	8
175918	7	Sololá	719	Santiago Atitlán	14	Cerro de Oro	10	Octubre	2023-02-10T00:00:00	2024-11-08T12:00:00	7	Dirección del viento	8.05
175919	7	Sololá	719	Santiago Atitlán	14	Cerro de Oro	10	Octubre	2023-02-10T00:00:00	2024-11-08T12:00:00	1	Precipitación	0
175920	7	Sololá	719	Santiago Atitlán	14	Cerro de Oro	10	Octubre	2023-02-10T00:00:00	2024-11-08T12:00:00	8	Radiación solar	898
175921	7	Sololá	719	Santiago Atitlán	14	Cerro de Oro	10	Octubre	2023-02-10T00:00:00	2024-11-08T13:00:00	2	Temperatura media	24.8
175922	7	Sololá	719	Santiago Atitlán	14	Cerro de Oro	10	Octubre	2023-02-10T00:00:00	2024-11-08T13:00:00	4	Temperatura máxima	25.9
175923	7	Sololá	719	Santiago Atitlán	14	Cerro de Oro	10	Octubre	2023-02-10T00:00:00	2024-11-08T13:00:00	3	Temperatura mínima	24.6
175924	7	Sololá	719	Santiago Atitlán	14	Cerro de Oro	10	Octubre	2023-02-10T00:00:00	2024-11-08T13:00:00	5	Humedad	78
175925	7	Sololá	719	Santiago Atitlán	14	Cerro de Oro	10	Octubre	2023-02-10T00:00:00	2024-11-08T13:00:00	6	Velocidad del viento	11.3
175926	7	Sololá	719	Santiago Atitlán	14	Cerro de Oro	10	Octubre	2023-02-10T00:00:00	2024-11-08T13:00:00	7	Dirección del viento	11.27
175927	7	Sololá	719	Santiago Atitlán	14	Cerro de Oro	10	Octubre	2023-02-10T00:00:00	2024-11-08T13:00:00	1	Precipitación	0
175928	7	Sololá	719	Santiago Atitlán	14	Cerro de Oro	10	Octubre	2023-02-10T00:00:00	2024-11-08T13:00:00	8	Radiación solar	896
175929	7	Sololá	719	Santiago Atitlán	14	Cerro de Oro	10	Octubre	2023-02-10T00:00:00	2024-11-08T14:00:00	2	Temperatura media	25.4
175930	7	Sololá	719	Santiago Atitlán	14	Cerro de Oro	10	Octubre	2023-02-10T00:00:00	2024-11-08T14:00:00	4	Temperatura máxima	25.5
175931	7	Sololá	719	Santiago Atitlán	14	Cerro de Oro	10	Octubre	2023-02-10T00:00:00	2024-11-08T14:00:00	3	Temperatura mínima	24.4
175932	7	Sololá	719	Santiago Atitlán	14	Cerro de Oro	10	Octubre	2023-02-10T00:00:00	2024-11-08T14:00:00	5	Humedad	74
175933	7	Sololá	719	Santiago Atitlán	14	Cerro de Oro	10	Octubre	2023-02-10T00:00:00	2024-11-08T14:00:00	6	Velocidad del viento	11.3
175934	7	Sololá	719	Santiago Atitlán	14	Cerro de Oro	10	Octubre	2023-02-10T00:00:00	2024-11-08T14:00:00	7	Dirección del viento	11.27
175935	7	Sololá	719	Santiago Atitlán	14	Cerro de Oro	10	Octubre	2023-02-10T00:00:00	2024-11-08T14:00:00	1	Precipitación	0
175936	7	Sololá	719	Santiago Atitlán	14	Cerro de Oro	10	Octubre	2023-02-10T00:00:00	2024-11-08T14:00:00	8	Radiación solar	851
175937	7	Sololá	719	Santiago Atitlán	14	Cerro de Oro	10	Octubre	2023-02-10T00:00:00	2024-11-08T15:00:00	2	Temperatura media	23.1
175938	7	Sololá	719	Santiago Atitlán	14	Cerro de Oro	10	Octubre	2023-02-10T00:00:00	2024-11-08T15:00:00	4	Temperatura máxima	25.5
175939	7	Sololá	719	Santiago Atitlán	14	Cerro de Oro	10	Octubre	2023-02-10T00:00:00	2024-11-08T15:00:00	3	Temperatura mínima	23
175940	7	Sololá	719	Santiago Atitlán	14	Cerro de Oro	10	Octubre	2023-02-10T00:00:00	2024-11-08T15:00:00	5	Humedad	82
175941	7	Sololá	719	Santiago Atitlán	14	Cerro de Oro	10	Octubre	2023-02-10T00:00:00	2024-11-08T15:00:00	6	Velocidad del viento	4.8
175942	7	Sololá	719	Santiago Atitlán	14	Cerro de Oro	10	Octubre	2023-02-10T00:00:00	2024-11-08T15:00:00	7	Dirección del viento	4.83
175943	7	Sololá	719	Santiago Atitlán	14	Cerro de Oro	10	Octubre	2023-02-10T00:00:00	2024-11-08T15:00:00	1	Precipitación	0
175944	7	Sololá	719	Santiago Atitlán	14	Cerro de Oro	10	Octubre	2023-02-10T00:00:00	2024-11-08T15:00:00	8	Radiación solar	175
175945	7	Sololá	719	Santiago Atitlán	14	Cerro de Oro	10	Octubre	2023-02-10T00:00:00	2024-11-08T16:00:00	2	Temperatura media	21.3
175946	7	Sololá	719	Santiago Atitlán	14	Cerro de Oro	10	Octubre	2023-02-10T00:00:00	2024-11-08T16:00:00	4	Temperatura máxima	23.2
175947	7	Sololá	719	Santiago Atitlán	14	Cerro de Oro	10	Octubre	2023-02-10T00:00:00	2024-11-08T16:00:00	3	Temperatura mínima	21.2
175948	7	Sololá	719	Santiago Atitlán	14	Cerro de Oro	10	Octubre	2023-02-10T00:00:00	2024-11-08T16:00:00	5	Humedad	85
175949	7	Sololá	719	Santiago Atitlán	14	Cerro de Oro	10	Octubre	2023-02-10T00:00:00	2024-11-08T16:00:00	6	Velocidad del viento	11.3
175950	7	Sololá	719	Santiago Atitlán	14	Cerro de Oro	10	Octubre	2023-02-10T00:00:00	2024-11-08T16:00:00	7	Dirección del viento	11.27
175951	7	Sololá	719	Santiago Atitlán	14	Cerro de Oro	10	Octubre	2023-02-10T00:00:00	2024-11-08T16:00:00	1	Precipitación	0
175952	7	Sololá	719	Santiago Atitlán	14	Cerro de Oro	10	Octubre	2023-02-10T00:00:00	2024-11-08T16:00:00	8	Radiación solar	124
175953	7	Sololá	719	Santiago Atitlán	14	Cerro de Oro	10	Octubre	2023-02-10T00:00:00	2024-11-08T17:00:00	2	Temperatura media	19.9
175954	7	Sololá	719	Santiago Atitlán	14	Cerro de Oro	10	Octubre	2023-02-10T00:00:00	2024-11-08T17:00:00	4	Temperatura máxima	21.4
175955	7	Sololá	719	Santiago Atitlán	14	Cerro de Oro	10	Octubre	2023-02-10T00:00:00	2024-11-08T17:00:00	3	Temperatura mínima	19.7
175956	7	Sololá	719	Santiago Atitlán	14	Cerro de Oro	10	Octubre	2023-02-10T00:00:00	2024-11-08T17:00:00	5	Humedad	88
175957	7	Sololá	719	Santiago Atitlán	14	Cerro de Oro	10	Octubre	2023-02-10T00:00:00	2024-11-08T17:00:00	6	Velocidad del viento	12.9
175958	7	Sololá	719	Santiago Atitlán	14	Cerro de Oro	10	Octubre	2023-02-10T00:00:00	2024-11-08T17:00:00	7	Dirección del viento	12.87
175959	7	Sololá	719	Santiago Atitlán	14	Cerro de Oro	10	Octubre	2023-02-10T00:00:00	2024-11-08T17:00:00	1	Precipitación	0
175960	7	Sololá	719	Santiago Atitlán	14	Cerro de Oro	10	Octubre	2023-02-10T00:00:00	2024-11-08T17:00:00	8	Radiación solar	33
175961	7	Sololá	719	Santiago Atitlán	14	Cerro de Oro	10	Octubre	2023-02-10T00:00:00	2024-11-08T18:00:00	2	Temperatura media	18.7
175962	7	Sololá	719	Santiago Atitlán	14	Cerro de Oro	10	Octubre	2023-02-10T00:00:00	2024-11-08T18:00:00	4	Temperatura máxima	20.1
175963	7	Sololá	719	Santiago Atitlán	14	Cerro de Oro	10	Octubre	2023-02-10T00:00:00	2024-11-08T18:00:00	3	Temperatura mínima	18.2
175964	7	Sololá	719	Santiago Atitlán	14	Cerro de Oro	10	Octubre	2023-02-10T00:00:00	2024-11-08T18:00:00	5	Humedad	91
175965	7	Sololá	719	Santiago Atitlán	14	Cerro de Oro	10	Octubre	2023-02-10T00:00:00	2024-11-08T18:00:00	6	Velocidad del viento	11.3
175966	7	Sololá	719	Santiago Atitlán	14	Cerro de Oro	10	Octubre	2023-02-10T00:00:00	2024-11-08T18:00:00	7	Dirección del viento	11.27
175967	7	Sololá	719	Santiago Atitlán	14	Cerro de Oro	10	Octubre	2023-02-10T00:00:00	2024-11-08T18:00:00	1	Precipitación	0
175968	7	Sololá	719	Santiago Atitlán	14	Cerro de Oro	10	Octubre	2023-02-10T00:00:00	2024-11-08T18:00:00	8	Radiación solar	6
175969	7	Sololá	719	Santiago Atitlán	14	Cerro de Oro	10	Octubre	2023-02-10T00:00:00	2024-11-08T19:00:00	2	Temperatura media	18.6
175970	7	Sololá	719	Santiago Atitlán	14	Cerro de Oro	10	Octubre	2023-02-10T00:00:00	2024-11-08T19:00:00	4	Temperatura máxima	19
175971	7	Sololá	719	Santiago Atitlán	14	Cerro de Oro	10	Octubre	2023-02-10T00:00:00	2024-11-08T19:00:00	3	Temperatura mínima	18.2
175972	7	Sololá	719	Santiago Atitlán	14	Cerro de Oro	10	Octubre	2023-02-10T00:00:00	2024-11-08T19:00:00	5	Humedad	91
175973	7	Sololá	719	Santiago Atitlán	14	Cerro de Oro	10	Octubre	2023-02-10T00:00:00	2024-11-08T19:00:00	6	Velocidad del viento	6.4
175974	7	Sololá	719	Santiago Atitlán	14	Cerro de Oro	10	Octubre	2023-02-10T00:00:00	2024-11-08T19:00:00	7	Dirección del viento	6.44
175975	7	Sololá	719	Santiago Atitlán	14	Cerro de Oro	10	Octubre	2023-02-10T00:00:00	2024-11-08T19:00:00	1	Precipitación	0
175976	7	Sololá	719	Santiago Atitlán	14	Cerro de Oro	10	Octubre	2023-02-10T00:00:00	2024-11-08T19:00:00	8	Radiación solar	0
175977	7	Sololá	719	Santiago Atitlán	14	Cerro de Oro	10	Octubre	2023-02-10T00:00:00	2024-11-08T20:00:00	2	Temperatura media	19.2
175978	7	Sololá	719	Santiago Atitlán	14	Cerro de Oro	10	Octubre	2023-02-10T00:00:00	2024-11-08T20:00:00	4	Temperatura máxima	19.2
175979	7	Sololá	719	Santiago Atitlán	14	Cerro de Oro	10	Octubre	2023-02-10T00:00:00	2024-11-08T20:00:00	3	Temperatura mínima	18.6
175980	7	Sololá	719	Santiago Atitlán	14	Cerro de Oro	10	Octubre	2023-02-10T00:00:00	2024-11-08T20:00:00	5	Humedad	87
175981	7	Sololá	719	Santiago Atitlán	14	Cerro de Oro	10	Octubre	2023-02-10T00:00:00	2024-11-08T20:00:00	6	Velocidad del viento	4.8
175982	7	Sololá	719	Santiago Atitlán	14	Cerro de Oro	10	Octubre	2023-02-10T00:00:00	2024-11-08T20:00:00	7	Dirección del viento	4.83
175983	7	Sololá	719	Santiago Atitlán	14	Cerro de Oro	10	Octubre	2023-02-10T00:00:00	2024-11-08T20:00:00	1	Precipitación	0
175984	7	Sololá	719	Santiago Atitlán	14	Cerro de Oro	10	Octubre	2023-02-10T00:00:00	2024-11-08T20:00:00	8	Radiación solar	0
175985	7	Sololá	719	Santiago Atitlán	14	Cerro de Oro	10	Octubre	2023-02-10T00:00:00	2024-11-08T21:00:00	2	Temperatura media	18.9
175986	7	Sololá	719	Santiago Atitlán	14	Cerro de Oro	10	Octubre	2023-02-10T00:00:00	2024-11-08T21:00:00	4	Temperatura máxima	19.4
175987	7	Sololá	719	Santiago Atitlán	14	Cerro de Oro	10	Octubre	2023-02-10T00:00:00	2024-11-08T21:00:00	3	Temperatura mínima	18.9
175988	7	Sololá	719	Santiago Atitlán	14	Cerro de Oro	10	Octubre	2023-02-10T00:00:00	2024-11-08T21:00:00	5	Humedad	89
175989	7	Sololá	719	Santiago Atitlán	14	Cerro de Oro	10	Octubre	2023-02-10T00:00:00	2024-11-08T21:00:00	6	Velocidad del viento	4.8
175990	7	Sololá	719	Santiago Atitlán	14	Cerro de Oro	10	Octubre	2023-02-10T00:00:00	2024-11-08T21:00:00	7	Dirección del viento	4.83
175991	7	Sololá	719	Santiago Atitlán	14	Cerro de Oro	10	Octubre	2023-02-10T00:00:00	2024-11-08T21:00:00	1	Precipitación	0.4
175992	7	Sololá	719	Santiago Atitlán	14	Cerro de Oro	10	Octubre	2023-02-10T00:00:00	2024-11-08T21:00:00	8	Radiación solar	0
175993	7	Sololá	719	Santiago Atitlán	14	Cerro de Oro	10	Octubre	2023-02-10T00:00:00	2024-11-08T22:00:00	2	Temperatura media	17.7
175994	7	Sololá	719	Santiago Atitlán	14	Cerro de Oro	10	Octubre	2023-02-10T00:00:00	2024-11-08T22:00:00	4	Temperatura máxima	18.9
175995	7	Sololá	719	Santiago Atitlán	14	Cerro de Oro	10	Octubre	2023-02-10T00:00:00	2024-11-08T22:00:00	3	Temperatura mínima	17.7
175996	7	Sololá	719	Santiago Atitlán	14	Cerro de Oro	10	Octubre	2023-02-10T00:00:00	2024-11-08T22:00:00	5	Humedad	91
175997	7	Sololá	719	Santiago Atitlán	14	Cerro de Oro	10	Octubre	2023-02-10T00:00:00	2024-11-08T22:00:00	6	Velocidad del viento	4.8
175998	7	Sololá	719	Santiago Atitlán	14	Cerro de Oro	10	Octubre	2023-02-10T00:00:00	2024-11-08T22:00:00	7	Dirección del viento	4.83
175999	7	Sololá	719	Santiago Atitlán	14	Cerro de Oro	10	Octubre	2023-02-10T00:00:00	2024-11-08T22:00:00	1	Precipitación	2.6
176000	7	Sololá	719	Santiago Atitlán	14	Cerro de Oro	10	Octubre	2023-02-10T00:00:00	2024-11-08T22:00:00	8	Radiación solar	0
176001	7	Sololá	719	Santiago Atitlán	14	Cerro de Oro	10	Octubre	2023-02-10T00:00:00	2024-11-08T23:00:00	2	Temperatura media	17.4
176002	7	Sololá	719	Santiago Atitlán	14	Cerro de Oro	10	Octubre	2023-02-10T00:00:00	2024-11-08T23:00:00	4	Temperatura máxima	17.8
176003	7	Sololá	719	Santiago Atitlán	14	Cerro de Oro	10	Octubre	2023-02-10T00:00:00	2024-11-08T23:00:00	3	Temperatura mínima	17.4
176004	7	Sololá	719	Santiago Atitlán	14	Cerro de Oro	10	Octubre	2023-02-10T00:00:00	2024-11-08T23:00:00	5	Humedad	93
176005	7	Sololá	719	Santiago Atitlán	14	Cerro de Oro	10	Octubre	2023-02-10T00:00:00	2024-11-08T23:00:00	6	Velocidad del viento	3.2
176006	7	Sololá	719	Santiago Atitlán	14	Cerro de Oro	10	Octubre	2023-02-10T00:00:00	2024-11-08T23:00:00	7	Dirección del viento	3.22
176007	7	Sololá	719	Santiago Atitlán	14	Cerro de Oro	10	Octubre	2023-02-10T00:00:00	2024-11-08T23:00:00	1	Precipitación	1.6
176008	7	Sololá	719	Santiago Atitlán	14	Cerro de Oro	10	Octubre	2023-02-10T00:00:00	2024-11-08T23:00:00	8	Radiación solar	0
176009	7	Sololá	719	Santiago Atitlán	14	Cerro de Oro	10	Octubre	2023-03-10T00:00:00	2024-11-08T00:00:00	2	Temperatura media	17.5
176010	7	Sololá	719	Santiago Atitlán	14	Cerro de Oro	10	Octubre	2023-03-10T00:00:00	2024-11-08T00:00:00	4	Temperatura máxima	18
176011	7	Sololá	719	Santiago Atitlán	14	Cerro de Oro	10	Octubre	2023-03-10T00:00:00	2024-11-08T00:00:00	3	Temperatura mínima	17.3
176012	7	Sololá	719	Santiago Atitlán	14	Cerro de Oro	10	Octubre	2023-03-10T00:00:00	2024-11-08T00:00:00	5	Humedad	92
176013	7	Sololá	719	Santiago Atitlán	14	Cerro de Oro	10	Octubre	2023-03-10T00:00:00	2024-11-08T00:00:00	6	Velocidad del viento	4.8
176014	7	Sololá	719	Santiago Atitlán	14	Cerro de Oro	10	Octubre	2023-03-10T00:00:00	2024-11-08T00:00:00	7	Dirección del viento	4.83
176015	7	Sololá	719	Santiago Atitlán	14	Cerro de Oro	10	Octubre	2023-03-10T00:00:00	2024-11-08T00:00:00	1	Precipitación	0
176016	7	Sololá	719	Santiago Atitlán	14	Cerro de Oro	10	Octubre	2023-03-10T00:00:00	2024-11-08T00:00:00	8	Radiación solar	0
176017	7	Sololá	719	Santiago Atitlán	14	Cerro de Oro	10	Octubre	2023-03-10T00:00:00	2024-11-08T01:00:00	2	Temperatura media	18.4
176018	7	Sololá	719	Santiago Atitlán	14	Cerro de Oro	10	Octubre	2023-03-10T00:00:00	2024-11-08T01:00:00	4	Temperatura máxima	18.5
176019	7	Sololá	719	Santiago Atitlán	14	Cerro de Oro	10	Octubre	2023-03-10T00:00:00	2024-11-08T01:00:00	3	Temperatura mínima	17.4
176020	7	Sololá	719	Santiago Atitlán	14	Cerro de Oro	10	Octubre	2023-03-10T00:00:00	2024-11-08T01:00:00	5	Humedad	88
176021	7	Sololá	719	Santiago Atitlán	14	Cerro de Oro	10	Octubre	2023-03-10T00:00:00	2024-11-08T01:00:00	6	Velocidad del viento	4.8
176022	7	Sololá	719	Santiago Atitlán	14	Cerro de Oro	10	Octubre	2023-03-10T00:00:00	2024-11-08T01:00:00	7	Dirección del viento	4.83
176023	7	Sololá	719	Santiago Atitlán	14	Cerro de Oro	10	Octubre	2023-03-10T00:00:00	2024-11-08T01:00:00	1	Precipitación	0
176024	7	Sololá	719	Santiago Atitlán	14	Cerro de Oro	10	Octubre	2023-03-10T00:00:00	2024-11-08T01:00:00	8	Radiación solar	0
176025	7	Sololá	719	Santiago Atitlán	14	Cerro de Oro	10	Octubre	2023-03-10T00:00:00	2024-11-08T02:00:00	2	Temperatura media	18.4
176026	7	Sololá	719	Santiago Atitlán	14	Cerro de Oro	10	Octubre	2023-03-10T00:00:00	2024-11-08T02:00:00	4	Temperatura máxima	18.6
176027	7	Sololá	719	Santiago Atitlán	14	Cerro de Oro	10	Octubre	2023-03-10T00:00:00	2024-11-08T02:00:00	3	Temperatura mínima	17.6
176028	7	Sololá	719	Santiago Atitlán	14	Cerro de Oro	10	Octubre	2023-03-10T00:00:00	2024-11-08T02:00:00	5	Humedad	85
176029	7	Sololá	719	Santiago Atitlán	14	Cerro de Oro	10	Octubre	2023-03-10T00:00:00	2024-11-08T02:00:00	6	Velocidad del viento	4.8
176030	7	Sololá	719	Santiago Atitlán	14	Cerro de Oro	10	Octubre	2023-03-10T00:00:00	2024-11-08T02:00:00	7	Dirección del viento	4.83
176031	7	Sololá	719	Santiago Atitlán	14	Cerro de Oro	10	Octubre	2023-03-10T00:00:00	2024-11-08T02:00:00	1	Precipitación	0
176032	7	Sololá	719	Santiago Atitlán	14	Cerro de Oro	10	Octubre	2023-03-10T00:00:00	2024-11-08T02:00:00	8	Radiación solar	0
176033	7	Sololá	719	Santiago Atitlán	14	Cerro de Oro	10	Octubre	2023-03-10T00:00:00	2024-11-08T03:00:00	2	Temperatura media	18.1
176034	7	Sololá	719	Santiago Atitlán	14	Cerro de Oro	10	Octubre	2023-03-10T00:00:00	2024-11-08T03:00:00	4	Temperatura máxima	18.6
176035	7	Sololá	719	Santiago Atitlán	14	Cerro de Oro	10	Octubre	2023-03-10T00:00:00	2024-11-08T03:00:00	3	Temperatura mínima	18.1
176036	7	Sololá	719	Santiago Atitlán	14	Cerro de Oro	10	Octubre	2023-03-10T00:00:00	2024-11-08T03:00:00	5	Humedad	86
176037	7	Sololá	719	Santiago Atitlán	14	Cerro de Oro	10	Octubre	2023-03-10T00:00:00	2024-11-08T03:00:00	6	Velocidad del viento	4.8
176038	7	Sololá	719	Santiago Atitlán	14	Cerro de Oro	10	Octubre	2023-03-10T00:00:00	2024-11-08T03:00:00	7	Dirección del viento	4.83
176039	7	Sololá	719	Santiago Atitlán	14	Cerro de Oro	10	Octubre	2023-03-10T00:00:00	2024-11-08T03:00:00	1	Precipitación	0
176040	7	Sololá	719	Santiago Atitlán	14	Cerro de Oro	10	Octubre	2023-03-10T00:00:00	2024-11-08T03:00:00	8	Radiación solar	0
176041	7	Sololá	719	Santiago Atitlán	14	Cerro de Oro	10	Octubre	2023-03-10T00:00:00	2024-11-08T04:00:00	2	Temperatura media	17.8
176042	7	Sololá	719	Santiago Atitlán	14	Cerro de Oro	10	Octubre	2023-03-10T00:00:00	2024-11-08T04:00:00	4	Temperatura máxima	18.3
176043	7	Sololá	719	Santiago Atitlán	14	Cerro de Oro	10	Octubre	2023-03-10T00:00:00	2024-11-08T04:00:00	3	Temperatura mínima	17.6
176044	7	Sololá	719	Santiago Atitlán	14	Cerro de Oro	10	Octubre	2023-03-10T00:00:00	2024-11-08T04:00:00	5	Humedad	86
176045	7	Sololá	719	Santiago Atitlán	14	Cerro de Oro	10	Octubre	2023-03-10T00:00:00	2024-11-08T04:00:00	6	Velocidad del viento	6.4
176046	7	Sololá	719	Santiago Atitlán	14	Cerro de Oro	10	Octubre	2023-03-10T00:00:00	2024-11-08T04:00:00	7	Dirección del viento	6.44
176047	7	Sololá	719	Santiago Atitlán	14	Cerro de Oro	10	Octubre	2023-03-10T00:00:00	2024-11-08T04:00:00	1	Precipitación	0
176048	7	Sololá	719	Santiago Atitlán	14	Cerro de Oro	10	Octubre	2023-03-10T00:00:00	2024-11-08T04:00:00	8	Radiación solar	0
176049	7	Sololá	719	Santiago Atitlán	14	Cerro de Oro	10	Octubre	2023-03-10T00:00:00	2024-11-08T05:00:00	2	Temperatura media	18.6
176050	7	Sololá	719	Santiago Atitlán	14	Cerro de Oro	10	Octubre	2023-03-10T00:00:00	2024-11-08T05:00:00	4	Temperatura máxima	18.8
176051	7	Sololá	719	Santiago Atitlán	14	Cerro de Oro	10	Octubre	2023-03-10T00:00:00	2024-11-08T05:00:00	3	Temperatura mínima	17.8
176052	7	Sololá	719	Santiago Atitlán	14	Cerro de Oro	10	Octubre	2023-03-10T00:00:00	2024-11-08T05:00:00	5	Humedad	82
176053	7	Sololá	719	Santiago Atitlán	14	Cerro de Oro	10	Octubre	2023-03-10T00:00:00	2024-11-08T05:00:00	6	Velocidad del viento	4.8
176054	7	Sololá	719	Santiago Atitlán	14	Cerro de Oro	10	Octubre	2023-03-10T00:00:00	2024-11-08T05:00:00	7	Dirección del viento	4.83
176055	7	Sololá	719	Santiago Atitlán	14	Cerro de Oro	10	Octubre	2023-03-10T00:00:00	2024-11-08T05:00:00	1	Precipitación	0
176056	7	Sololá	719	Santiago Atitlán	14	Cerro de Oro	10	Octubre	2023-03-10T00:00:00	2024-11-08T05:00:00	8	Radiación solar	0
176057	7	Sololá	719	Santiago Atitlán	14	Cerro de Oro	10	Octubre	2023-03-10T00:00:00	2024-11-08T06:00:00	2	Temperatura media	18
176058	7	Sololá	719	Santiago Atitlán	14	Cerro de Oro	10	Octubre	2023-03-10T00:00:00	2024-11-08T06:00:00	4	Temperatura máxima	18.8
176059	7	Sololá	719	Santiago Atitlán	14	Cerro de Oro	10	Octubre	2023-03-10T00:00:00	2024-11-08T06:00:00	3	Temperatura mínima	17.9
176060	7	Sololá	719	Santiago Atitlán	14	Cerro de Oro	10	Octubre	2023-03-10T00:00:00	2024-11-08T06:00:00	5	Humedad	85
176061	7	Sololá	719	Santiago Atitlán	14	Cerro de Oro	10	Octubre	2023-03-10T00:00:00	2024-11-08T06:00:00	6	Velocidad del viento	3.2
176062	7	Sololá	719	Santiago Atitlán	14	Cerro de Oro	10	Octubre	2023-03-10T00:00:00	2024-11-08T06:00:00	7	Dirección del viento	3.22
176063	7	Sololá	719	Santiago Atitlán	14	Cerro de Oro	10	Octubre	2023-03-10T00:00:00	2024-11-08T06:00:00	1	Precipitación	0
176064	7	Sololá	719	Santiago Atitlán	14	Cerro de Oro	10	Octubre	2023-03-10T00:00:00	2024-11-08T06:00:00	8	Radiación solar	1
176065	7	Sololá	719	Santiago Atitlán	14	Cerro de Oro	10	Octubre	2023-03-10T00:00:00	2024-11-08T07:00:00	2	Temperatura media	20.3
176066	7	Sololá	719	Santiago Atitlán	14	Cerro de Oro	10	Octubre	2023-03-10T00:00:00	2024-11-08T07:00:00	4	Temperatura máxima	20.3
176067	7	Sololá	719	Santiago Atitlán	14	Cerro de Oro	10	Octubre	2023-03-10T00:00:00	2024-11-08T07:00:00	3	Temperatura mínima	18
176068	7	Sololá	719	Santiago Atitlán	14	Cerro de Oro	10	Octubre	2023-03-10T00:00:00	2024-11-08T07:00:00	5	Humedad	81
176069	7	Sololá	719	Santiago Atitlán	14	Cerro de Oro	10	Octubre	2023-03-10T00:00:00	2024-11-08T07:00:00	6	Velocidad del viento	3.2
176070	7	Sololá	719	Santiago Atitlán	14	Cerro de Oro	10	Octubre	2023-03-10T00:00:00	2024-11-08T07:00:00	7	Dirección del viento	3.22
176071	7	Sololá	719	Santiago Atitlán	14	Cerro de Oro	10	Octubre	2023-03-10T00:00:00	2024-11-08T07:00:00	1	Precipitación	0
176072	7	Sololá	719	Santiago Atitlán	14	Cerro de Oro	10	Octubre	2023-03-10T00:00:00	2024-11-08T07:00:00	8	Radiación solar	62
176073	7	Sololá	719	Santiago Atitlán	14	Cerro de Oro	10	Octubre	2023-03-10T00:00:00	2024-11-08T08:00:00	2	Temperatura media	22.1
176074	7	Sololá	719	Santiago Atitlán	14	Cerro de Oro	10	Octubre	2023-03-10T00:00:00	2024-11-08T08:00:00	4	Temperatura máxima	22.4
176075	7	Sololá	719	Santiago Atitlán	14	Cerro de Oro	10	Octubre	2023-03-10T00:00:00	2024-11-08T08:00:00	3	Temperatura mínima	20.3
176076	7	Sololá	719	Santiago Atitlán	14	Cerro de Oro	10	Octubre	2023-03-10T00:00:00	2024-11-08T08:00:00	5	Humedad	74
176077	7	Sololá	719	Santiago Atitlán	14	Cerro de Oro	10	Octubre	2023-03-10T00:00:00	2024-11-08T08:00:00	6	Velocidad del viento	1.6
176078	7	Sololá	719	Santiago Atitlán	14	Cerro de Oro	10	Octubre	2023-03-10T00:00:00	2024-11-08T08:00:00	7	Dirección del viento	1.61
176079	7	Sololá	719	Santiago Atitlán	14	Cerro de Oro	10	Octubre	2023-03-10T00:00:00	2024-11-08T08:00:00	1	Precipitación	0
176080	7	Sololá	719	Santiago Atitlán	14	Cerro de Oro	10	Octubre	2023-03-10T00:00:00	2024-11-08T08:00:00	8	Radiación solar	244
176081	7	Sololá	719	Santiago Atitlán	14	Cerro de Oro	10	Octubre	2023-03-10T00:00:00	2024-11-08T09:00:00	2	Temperatura media	22.6
176082	7	Sololá	719	Santiago Atitlán	14	Cerro de Oro	10	Octubre	2023-03-10T00:00:00	2024-11-08T09:00:00	4	Temperatura máxima	22.6
176083	7	Sololá	719	Santiago Atitlán	14	Cerro de Oro	10	Octubre	2023-03-10T00:00:00	2024-11-08T09:00:00	3	Temperatura mínima	22
176084	7	Sololá	719	Santiago Atitlán	14	Cerro de Oro	10	Octubre	2023-03-10T00:00:00	2024-11-08T09:00:00	5	Humedad	73
176085	7	Sololá	719	Santiago Atitlán	14	Cerro de Oro	10	Octubre	2023-03-10T00:00:00	2024-11-08T09:00:00	6	Velocidad del viento	3.2
176086	7	Sololá	719	Santiago Atitlán	14	Cerro de Oro	10	Octubre	2023-03-10T00:00:00	2024-11-08T09:00:00	7	Dirección del viento	3.22
176087	7	Sololá	719	Santiago Atitlán	14	Cerro de Oro	10	Octubre	2023-03-10T00:00:00	2024-11-08T09:00:00	1	Precipitación	0
176088	7	Sololá	719	Santiago Atitlán	14	Cerro de Oro	10	Octubre	2023-03-10T00:00:00	2024-11-08T09:00:00	8	Radiación solar	528
176089	7	Sololá	719	Santiago Atitlán	14	Cerro de Oro	10	Octubre	2023-03-10T00:00:00	2024-11-08T10:00:00	2	Temperatura media	22.4
176090	7	Sololá	719	Santiago Atitlán	14	Cerro de Oro	10	Octubre	2023-03-10T00:00:00	2024-11-08T10:00:00	4	Temperatura máxima	22.8
176091	7	Sololá	719	Santiago Atitlán	14	Cerro de Oro	10	Octubre	2023-03-10T00:00:00	2024-11-08T10:00:00	3	Temperatura mínima	21.7
176092	7	Sololá	719	Santiago Atitlán	14	Cerro de Oro	10	Octubre	2023-03-10T00:00:00	2024-11-08T10:00:00	5	Humedad	75
176093	7	Sololá	719	Santiago Atitlán	14	Cerro de Oro	10	Octubre	2023-03-10T00:00:00	2024-11-08T10:00:00	6	Velocidad del viento	4.8
176094	7	Sololá	719	Santiago Atitlán	14	Cerro de Oro	10	Octubre	2023-03-10T00:00:00	2024-11-08T10:00:00	7	Dirección del viento	4.83
176095	7	Sololá	719	Santiago Atitlán	14	Cerro de Oro	10	Octubre	2023-03-10T00:00:00	2024-11-08T10:00:00	1	Precipitación	0
176096	7	Sololá	719	Santiago Atitlán	14	Cerro de Oro	10	Octubre	2023-03-10T00:00:00	2024-11-08T10:00:00	8	Radiación solar	595
176097	7	Sololá	719	Santiago Atitlán	14	Cerro de Oro	10	Octubre	2023-03-10T00:00:00	2024-11-08T11:00:00	2	Temperatura media	22.8
176098	7	Sololá	719	Santiago Atitlán	14	Cerro de Oro	10	Octubre	2023-03-10T00:00:00	2024-11-08T11:00:00	4	Temperatura máxima	23
176099	7	Sololá	719	Santiago Atitlán	14	Cerro de Oro	10	Octubre	2023-03-10T00:00:00	2024-11-08T11:00:00	3	Temperatura mínima	22.1
176100	7	Sololá	719	Santiago Atitlán	14	Cerro de Oro	10	Octubre	2023-03-10T00:00:00	2024-11-08T11:00:00	5	Humedad	80
176101	7	Sololá	719	Santiago Atitlán	14	Cerro de Oro	10	Octubre	2023-03-10T00:00:00	2024-11-08T11:00:00	6	Velocidad del viento	4.8
176102	7	Sololá	719	Santiago Atitlán	14	Cerro de Oro	10	Octubre	2023-03-10T00:00:00	2024-11-08T11:00:00	7	Dirección del viento	4.83
176103	7	Sololá	719	Santiago Atitlán	14	Cerro de Oro	10	Octubre	2023-03-10T00:00:00	2024-11-08T11:00:00	1	Precipitación	0
176104	7	Sololá	719	Santiago Atitlán	14	Cerro de Oro	10	Octubre	2023-03-10T00:00:00	2024-11-08T11:00:00	8	Radiación solar	391
176105	7	Sololá	719	Santiago Atitlán	14	Cerro de Oro	10	Octubre	2023-03-10T00:00:00	2024-11-08T12:00:00	2	Temperatura media	23.8
176106	7	Sololá	719	Santiago Atitlán	14	Cerro de Oro	10	Octubre	2023-03-10T00:00:00	2024-11-08T12:00:00	4	Temperatura máxima	24.5
176107	7	Sololá	719	Santiago Atitlán	14	Cerro de Oro	10	Octubre	2023-03-10T00:00:00	2024-11-08T12:00:00	3	Temperatura mínima	22.8
176108	7	Sololá	719	Santiago Atitlán	14	Cerro de Oro	10	Octubre	2023-03-10T00:00:00	2024-11-08T12:00:00	5	Humedad	78
176109	7	Sololá	719	Santiago Atitlán	14	Cerro de Oro	10	Octubre	2023-03-10T00:00:00	2024-11-08T12:00:00	6	Velocidad del viento	8
176110	7	Sololá	719	Santiago Atitlán	14	Cerro de Oro	10	Octubre	2023-03-10T00:00:00	2024-11-08T12:00:00	7	Dirección del viento	8.05
176111	7	Sololá	719	Santiago Atitlán	14	Cerro de Oro	10	Octubre	2023-03-10T00:00:00	2024-11-08T12:00:00	1	Precipitación	0
176112	7	Sololá	719	Santiago Atitlán	14	Cerro de Oro	10	Octubre	2023-03-10T00:00:00	2024-11-08T12:00:00	8	Radiación solar	726
176113	7	Sololá	719	Santiago Atitlán	14	Cerro de Oro	10	Octubre	2023-03-10T00:00:00	2024-11-08T13:00:00	2	Temperatura media	23.9
176114	7	Sololá	719	Santiago Atitlán	14	Cerro de Oro	10	Octubre	2023-03-10T00:00:00	2024-11-08T13:00:00	4	Temperatura máxima	24.5
176115	7	Sololá	719	Santiago Atitlán	14	Cerro de Oro	10	Octubre	2023-03-10T00:00:00	2024-11-08T13:00:00	3	Temperatura mínima	23.3
176116	7	Sololá	719	Santiago Atitlán	14	Cerro de Oro	10	Octubre	2023-03-10T00:00:00	2024-11-08T13:00:00	5	Humedad	75
176117	7	Sololá	719	Santiago Atitlán	14	Cerro de Oro	10	Octubre	2023-03-10T00:00:00	2024-11-08T13:00:00	6	Velocidad del viento	4.8
176118	7	Sololá	719	Santiago Atitlán	14	Cerro de Oro	10	Octubre	2023-03-10T00:00:00	2024-11-08T13:00:00	7	Dirección del viento	4.83
176119	7	Sololá	719	Santiago Atitlán	14	Cerro de Oro	10	Octubre	2023-03-10T00:00:00	2024-11-08T13:00:00	1	Precipitación	0
176120	7	Sololá	719	Santiago Atitlán	14	Cerro de Oro	10	Octubre	2023-03-10T00:00:00	2024-11-08T13:00:00	8	Radiación solar	477
176121	7	Sololá	719	Santiago Atitlán	14	Cerro de Oro	10	Octubre	2023-03-10T00:00:00	2024-11-08T14:00:00	2	Temperatura media	22.2
176122	7	Sololá	719	Santiago Atitlán	14	Cerro de Oro	10	Octubre	2023-03-10T00:00:00	2024-11-08T14:00:00	4	Temperatura máxima	24
176123	7	Sololá	719	Santiago Atitlán	14	Cerro de Oro	10	Octubre	2023-03-10T00:00:00	2024-11-08T14:00:00	3	Temperatura mínima	22.2
176124	7	Sololá	719	Santiago Atitlán	14	Cerro de Oro	10	Octubre	2023-03-10T00:00:00	2024-11-08T14:00:00	5	Humedad	85
176125	7	Sololá	719	Santiago Atitlán	14	Cerro de Oro	10	Octubre	2023-03-10T00:00:00	2024-11-08T14:00:00	6	Velocidad del viento	8
176126	7	Sololá	719	Santiago Atitlán	14	Cerro de Oro	10	Octubre	2023-03-10T00:00:00	2024-11-08T14:00:00	7	Dirección del viento	8.05
176127	7	Sololá	719	Santiago Atitlán	14	Cerro de Oro	10	Octubre	2023-03-10T00:00:00	2024-11-08T14:00:00	1	Precipitación	0
176128	7	Sololá	719	Santiago Atitlán	14	Cerro de Oro	10	Octubre	2023-03-10T00:00:00	2024-11-08T14:00:00	8	Radiación solar	303
176129	7	Sololá	719	Santiago Atitlán	14	Cerro de Oro	10	Octubre	2023-03-10T00:00:00	2024-11-08T15:00:00	2	Temperatura media	20.9
176130	7	Sololá	719	Santiago Atitlán	14	Cerro de Oro	10	Octubre	2023-03-10T00:00:00	2024-11-08T15:00:00	4	Temperatura máxima	22.2
176131	7	Sololá	719	Santiago Atitlán	14	Cerro de Oro	10	Octubre	2023-03-10T00:00:00	2024-11-08T15:00:00	3	Temperatura mínima	20.9
176132	7	Sololá	719	Santiago Atitlán	14	Cerro de Oro	10	Octubre	2023-03-10T00:00:00	2024-11-08T15:00:00	5	Humedad	89
176133	7	Sololá	719	Santiago Atitlán	14	Cerro de Oro	10	Octubre	2023-03-10T00:00:00	2024-11-08T15:00:00	6	Velocidad del viento	11.3
176134	7	Sololá	719	Santiago Atitlán	14	Cerro de Oro	10	Octubre	2023-03-10T00:00:00	2024-11-08T15:00:00	7	Dirección del viento	11.27
176135	7	Sololá	719	Santiago Atitlán	14	Cerro de Oro	10	Octubre	2023-03-10T00:00:00	2024-11-08T15:00:00	1	Precipitación	0
176136	7	Sololá	719	Santiago Atitlán	14	Cerro de Oro	10	Octubre	2023-03-10T00:00:00	2024-11-08T15:00:00	8	Radiación solar	220
176137	7	Sololá	719	Santiago Atitlán	14	Cerro de Oro	10	Octubre	2023-03-10T00:00:00	2024-11-08T16:00:00	2	Temperatura media	19.9
176138	7	Sololá	719	Santiago Atitlán	14	Cerro de Oro	10	Octubre	2023-03-10T00:00:00	2024-11-08T16:00:00	4	Temperatura máxima	21
176139	7	Sololá	719	Santiago Atitlán	14	Cerro de Oro	10	Octubre	2023-03-10T00:00:00	2024-11-08T16:00:00	3	Temperatura mínima	19.2
176140	7	Sololá	719	Santiago Atitlán	14	Cerro de Oro	10	Octubre	2023-03-10T00:00:00	2024-11-08T16:00:00	5	Humedad	89
176141	7	Sololá	719	Santiago Atitlán	14	Cerro de Oro	10	Octubre	2023-03-10T00:00:00	2024-11-08T16:00:00	6	Velocidad del viento	11.3
176142	7	Sololá	719	Santiago Atitlán	14	Cerro de Oro	10	Octubre	2023-03-10T00:00:00	2024-11-08T16:00:00	7	Dirección del viento	11.27
176143	7	Sololá	719	Santiago Atitlán	14	Cerro de Oro	10	Octubre	2023-03-10T00:00:00	2024-11-08T16:00:00	1	Precipitación	0
176144	7	Sololá	719	Santiago Atitlán	14	Cerro de Oro	10	Octubre	2023-03-10T00:00:00	2024-11-08T16:00:00	8	Radiación solar	152
176145	7	Sololá	719	Santiago Atitlán	14	Cerro de Oro	10	Octubre	2023-03-10T00:00:00	2024-11-08T17:00:00	2	Temperatura media	19.3
176146	7	Sololá	719	Santiago Atitlán	14	Cerro de Oro	10	Octubre	2023-03-10T00:00:00	2024-11-08T17:00:00	4	Temperatura máxima	19.8
176147	7	Sololá	719	Santiago Atitlán	14	Cerro de Oro	10	Octubre	2023-03-10T00:00:00	2024-11-08T17:00:00	3	Temperatura mínima	19.3
176148	7	Sololá	719	Santiago Atitlán	14	Cerro de Oro	10	Octubre	2023-03-10T00:00:00	2024-11-08T17:00:00	5	Humedad	91
176149	7	Sololá	719	Santiago Atitlán	14	Cerro de Oro	10	Octubre	2023-03-10T00:00:00	2024-11-08T17:00:00	6	Velocidad del viento	4.8
176150	7	Sololá	719	Santiago Atitlán	14	Cerro de Oro	10	Octubre	2023-03-10T00:00:00	2024-11-08T17:00:00	7	Dirección del viento	4.83
176151	7	Sololá	719	Santiago Atitlán	14	Cerro de Oro	10	Octubre	2023-03-10T00:00:00	2024-11-08T17:00:00	1	Precipitación	0.8
176152	7	Sololá	719	Santiago Atitlán	14	Cerro de Oro	10	Octubre	2023-03-10T00:00:00	2024-11-08T17:00:00	8	Radiación solar	14
176153	7	Sololá	719	Santiago Atitlán	14	Cerro de Oro	10	Octubre	2023-03-10T00:00:00	2024-11-08T18:00:00	2	Temperatura media	18.8
176154	7	Sololá	719	Santiago Atitlán	14	Cerro de Oro	10	Octubre	2023-03-10T00:00:00	2024-11-08T18:00:00	4	Temperatura máxima	19.3
176155	7	Sololá	719	Santiago Atitlán	14	Cerro de Oro	10	Octubre	2023-03-10T00:00:00	2024-11-08T18:00:00	3	Temperatura mínima	18.7
176156	7	Sololá	719	Santiago Atitlán	14	Cerro de Oro	10	Octubre	2023-03-10T00:00:00	2024-11-08T18:00:00	5	Humedad	94
176157	7	Sololá	719	Santiago Atitlán	14	Cerro de Oro	10	Octubre	2023-03-10T00:00:00	2024-11-08T18:00:00	6	Velocidad del viento	3.2
176158	7	Sololá	719	Santiago Atitlán	14	Cerro de Oro	10	Octubre	2023-03-10T00:00:00	2024-11-08T18:00:00	7	Dirección del viento	3.22
176159	7	Sololá	719	Santiago Atitlán	14	Cerro de Oro	10	Octubre	2023-03-10T00:00:00	2024-11-08T18:00:00	1	Precipitación	8.4
176160	7	Sololá	719	Santiago Atitlán	14	Cerro de Oro	10	Octubre	2023-03-10T00:00:00	2024-11-08T18:00:00	8	Radiación solar	4
176161	7	Sololá	719	Santiago Atitlán	14	Cerro de Oro	10	Octubre	2023-03-10T00:00:00	2024-11-08T19:00:00	2	Temperatura media	18.8
176162	7	Sololá	719	Santiago Atitlán	14	Cerro de Oro	10	Octubre	2023-03-10T00:00:00	2024-11-08T19:00:00	4	Temperatura máxima	18.8
176163	7	Sololá	719	Santiago Atitlán	14	Cerro de Oro	10	Octubre	2023-03-10T00:00:00	2024-11-08T19:00:00	3	Temperatura mínima	18.7
176164	7	Sololá	719	Santiago Atitlán	14	Cerro de Oro	10	Octubre	2023-03-10T00:00:00	2024-11-08T19:00:00	5	Humedad	93
176165	7	Sololá	719	Santiago Atitlán	14	Cerro de Oro	10	Octubre	2023-03-10T00:00:00	2024-11-08T19:00:00	6	Velocidad del viento	3.2
176166	7	Sololá	719	Santiago Atitlán	14	Cerro de Oro	10	Octubre	2023-03-10T00:00:00	2024-11-08T19:00:00	7	Dirección del viento	3.22
176167	7	Sololá	719	Santiago Atitlán	14	Cerro de Oro	10	Octubre	2023-03-10T00:00:00	2024-11-08T19:00:00	1	Precipitación	0.2
176168	7	Sololá	719	Santiago Atitlán	14	Cerro de Oro	10	Octubre	2023-03-10T00:00:00	2024-11-08T19:00:00	8	Radiación solar	0
176169	7	Sololá	719	Santiago Atitlán	14	Cerro de Oro	10	Octubre	2023-03-10T00:00:00	2024-11-08T20:00:00	2	Temperatura media	18.6
176170	7	Sololá	719	Santiago Atitlán	14	Cerro de Oro	10	Octubre	2023-03-10T00:00:00	2024-11-08T20:00:00	4	Temperatura máxima	18.8
176171	7	Sololá	719	Santiago Atitlán	14	Cerro de Oro	10	Octubre	2023-03-10T00:00:00	2024-11-08T20:00:00	3	Temperatura mínima	18.6
176172	7	Sololá	719	Santiago Atitlán	14	Cerro de Oro	10	Octubre	2023-03-10T00:00:00	2024-11-08T20:00:00	5	Humedad	93
176173	7	Sololá	719	Santiago Atitlán	14	Cerro de Oro	10	Octubre	2023-03-10T00:00:00	2024-11-08T20:00:00	6	Velocidad del viento	3.2
176174	7	Sololá	719	Santiago Atitlán	14	Cerro de Oro	10	Octubre	2023-03-10T00:00:00	2024-11-08T20:00:00	7	Dirección del viento	3.22
176175	7	Sololá	719	Santiago Atitlán	14	Cerro de Oro	10	Octubre	2023-03-10T00:00:00	2024-11-08T20:00:00	1	Precipitación	0
176176	7	Sololá	719	Santiago Atitlán	14	Cerro de Oro	10	Octubre	2023-03-10T00:00:00	2024-11-08T20:00:00	8	Radiación solar	0
176177	7	Sololá	719	Santiago Atitlán	14	Cerro de Oro	10	Octubre	2023-03-10T00:00:00	2024-11-08T21:00:00	2	Temperatura media	18.1
176178	7	Sololá	719	Santiago Atitlán	14	Cerro de Oro	10	Octubre	2023-03-10T00:00:00	2024-11-08T21:00:00	4	Temperatura máxima	18.6
176179	7	Sololá	719	Santiago Atitlán	14	Cerro de Oro	10	Octubre	2023-03-10T00:00:00	2024-11-08T21:00:00	3	Temperatura mínima	18
176180	7	Sololá	719	Santiago Atitlán	14	Cerro de Oro	10	Octubre	2023-03-10T00:00:00	2024-11-08T21:00:00	5	Humedad	94
176181	7	Sololá	719	Santiago Atitlán	14	Cerro de Oro	10	Octubre	2023-03-10T00:00:00	2024-11-08T21:00:00	6	Velocidad del viento	4.8
176182	7	Sololá	719	Santiago Atitlán	14	Cerro de Oro	10	Octubre	2023-03-10T00:00:00	2024-11-08T21:00:00	7	Dirección del viento	4.83
176183	7	Sololá	719	Santiago Atitlán	14	Cerro de Oro	10	Octubre	2023-03-10T00:00:00	2024-11-08T21:00:00	1	Precipitación	13
176184	7	Sololá	719	Santiago Atitlán	14	Cerro de Oro	10	Octubre	2023-03-10T00:00:00	2024-11-08T21:00:00	8	Radiación solar	0
176185	7	Sololá	719	Santiago Atitlán	14	Cerro de Oro	10	Octubre	2023-03-10T00:00:00	2024-11-08T22:00:00	2	Temperatura media	17.8
176186	7	Sololá	719	Santiago Atitlán	14	Cerro de Oro	10	Octubre	2023-03-10T00:00:00	2024-11-08T22:00:00	4	Temperatura máxima	18.1
176187	7	Sololá	719	Santiago Atitlán	14	Cerro de Oro	10	Octubre	2023-03-10T00:00:00	2024-11-08T22:00:00	3	Temperatura mínima	17.8
176188	7	Sololá	719	Santiago Atitlán	14	Cerro de Oro	10	Octubre	2023-03-10T00:00:00	2024-11-08T22:00:00	5	Humedad	94
176189	7	Sololá	719	Santiago Atitlán	14	Cerro de Oro	10	Octubre	2023-03-10T00:00:00	2024-11-08T22:00:00	6	Velocidad del viento	1.6
176190	7	Sololá	719	Santiago Atitlán	14	Cerro de Oro	10	Octubre	2023-03-10T00:00:00	2024-11-08T22:00:00	7	Dirección del viento	1.61
176191	7	Sololá	719	Santiago Atitlán	14	Cerro de Oro	10	Octubre	2023-03-10T00:00:00	2024-11-08T22:00:00	1	Precipitación	2.8
176192	7	Sololá	719	Santiago Atitlán	14	Cerro de Oro	10	Octubre	2023-03-10T00:00:00	2024-11-08T22:00:00	8	Radiación solar	0
176193	7	Sololá	719	Santiago Atitlán	14	Cerro de Oro	10	Octubre	2023-03-10T00:00:00	2024-11-08T23:00:00	2	Temperatura media	17.5
176194	7	Sololá	719	Santiago Atitlán	14	Cerro de Oro	10	Octubre	2023-03-10T00:00:00	2024-11-08T23:00:00	4	Temperatura máxima	17.8
176195	7	Sololá	719	Santiago Atitlán	14	Cerro de Oro	10	Octubre	2023-03-10T00:00:00	2024-11-08T23:00:00	3	Temperatura mínima	17.4
176196	7	Sololá	719	Santiago Atitlán	14	Cerro de Oro	10	Octubre	2023-03-10T00:00:00	2024-11-08T23:00:00	5	Humedad	94
176197	7	Sololá	719	Santiago Atitlán	14	Cerro de Oro	10	Octubre	2023-03-10T00:00:00	2024-11-08T23:00:00	6	Velocidad del viento	3.2
176198	7	Sololá	719	Santiago Atitlán	14	Cerro de Oro	10	Octubre	2023-03-10T00:00:00	2024-11-08T23:00:00	7	Dirección del viento	3.22
176199	7	Sololá	719	Santiago Atitlán	14	Cerro de Oro	10	Octubre	2023-03-10T00:00:00	2024-11-08T23:00:00	1	Precipitación	0.6
176200	7	Sololá	719	Santiago Atitlán	14	Cerro de Oro	10	Octubre	2023-03-10T00:00:00	2024-11-08T23:00:00	8	Radiación solar	0
176201	7	Sololá	719	Santiago Atitlán	14	Cerro de Oro	10	Octubre	2023-04-10T00:00:00	2024-11-08T00:00:00	2	Temperatura media	17.8
176202	7	Sololá	719	Santiago Atitlán	14	Cerro de Oro	10	Octubre	2023-04-10T00:00:00	2024-11-08T00:00:00	4	Temperatura máxima	17.8
176203	7	Sololá	719	Santiago Atitlán	14	Cerro de Oro	10	Octubre	2023-04-10T00:00:00	2024-11-08T00:00:00	3	Temperatura mínima	17.4
176204	7	Sololá	719	Santiago Atitlán	14	Cerro de Oro	10	Octubre	2023-04-10T00:00:00	2024-11-08T00:00:00	5	Humedad	93
176205	7	Sololá	719	Santiago Atitlán	14	Cerro de Oro	10	Octubre	2023-04-10T00:00:00	2024-11-08T00:00:00	6	Velocidad del viento	4.8
176206	7	Sololá	719	Santiago Atitlán	14	Cerro de Oro	10	Octubre	2023-04-10T00:00:00	2024-11-08T00:00:00	7	Dirección del viento	4.83
176207	7	Sololá	719	Santiago Atitlán	14	Cerro de Oro	10	Octubre	2023-04-10T00:00:00	2024-11-08T00:00:00	1	Precipitación	0
176208	7	Sololá	719	Santiago Atitlán	14	Cerro de Oro	10	Octubre	2023-04-10T00:00:00	2024-11-08T00:00:00	8	Radiación solar	0
176209	7	Sololá	719	Santiago Atitlán	14	Cerro de Oro	10	Octubre	2023-04-10T00:00:00	2024-11-08T01:00:00	2	Temperatura media	17.6
176210	7	Sololá	719	Santiago Atitlán	14	Cerro de Oro	10	Octubre	2023-04-10T00:00:00	2024-11-08T01:00:00	4	Temperatura máxima	17.9
176211	7	Sololá	719	Santiago Atitlán	14	Cerro de Oro	10	Octubre	2023-04-10T00:00:00	2024-11-08T01:00:00	3	Temperatura mínima	17.5
176212	7	Sololá	719	Santiago Atitlán	14	Cerro de Oro	10	Octubre	2023-04-10T00:00:00	2024-11-08T01:00:00	5	Humedad	92
176213	7	Sololá	719	Santiago Atitlán	14	Cerro de Oro	10	Octubre	2023-04-10T00:00:00	2024-11-08T01:00:00	6	Velocidad del viento	4.8
176214	7	Sololá	719	Santiago Atitlán	14	Cerro de Oro	10	Octubre	2023-04-10T00:00:00	2024-11-08T01:00:00	7	Dirección del viento	4.83
176215	7	Sololá	719	Santiago Atitlán	14	Cerro de Oro	10	Octubre	2023-04-10T00:00:00	2024-11-08T01:00:00	1	Precipitación	0
176216	7	Sololá	719	Santiago Atitlán	14	Cerro de Oro	10	Octubre	2023-04-10T00:00:00	2024-11-08T01:00:00	8	Radiación solar	0
176217	7	Sololá	719	Santiago Atitlán	14	Cerro de Oro	10	Octubre	2023-04-10T00:00:00	2024-11-08T02:00:00	2	Temperatura media	17.7
176218	7	Sololá	719	Santiago Atitlán	14	Cerro de Oro	10	Octubre	2023-04-10T00:00:00	2024-11-08T02:00:00	4	Temperatura máxima	17.9
176219	7	Sololá	719	Santiago Atitlán	14	Cerro de Oro	10	Octubre	2023-04-10T00:00:00	2024-11-08T02:00:00	3	Temperatura mínima	17.3
176220	7	Sololá	719	Santiago Atitlán	14	Cerro de Oro	10	Octubre	2023-04-10T00:00:00	2024-11-08T02:00:00	5	Humedad	93
176221	7	Sololá	719	Santiago Atitlán	14	Cerro de Oro	10	Octubre	2023-04-10T00:00:00	2024-11-08T02:00:00	6	Velocidad del viento	4.8
176222	7	Sololá	719	Santiago Atitlán	14	Cerro de Oro	10	Octubre	2023-04-10T00:00:00	2024-11-08T02:00:00	7	Dirección del viento	4.83
176223	7	Sololá	719	Santiago Atitlán	14	Cerro de Oro	10	Octubre	2023-04-10T00:00:00	2024-11-08T02:00:00	1	Precipitación	0
176224	7	Sololá	719	Santiago Atitlán	14	Cerro de Oro	10	Octubre	2023-04-10T00:00:00	2024-11-08T02:00:00	8	Radiación solar	0
176225	7	Sololá	719	Santiago Atitlán	14	Cerro de Oro	10	Octubre	2023-04-10T00:00:00	2024-11-08T03:00:00	2	Temperatura media	17.7
176226	7	Sololá	719	Santiago Atitlán	14	Cerro de Oro	10	Octubre	2023-04-10T00:00:00	2024-11-08T03:00:00	4	Temperatura máxima	17.9
176227	7	Sololá	719	Santiago Atitlán	14	Cerro de Oro	10	Octubre	2023-04-10T00:00:00	2024-11-08T03:00:00	3	Temperatura mínima	17.5
176228	7	Sololá	719	Santiago Atitlán	14	Cerro de Oro	10	Octubre	2023-04-10T00:00:00	2024-11-08T03:00:00	5	Humedad	92
176229	7	Sololá	719	Santiago Atitlán	14	Cerro de Oro	10	Octubre	2023-04-10T00:00:00	2024-11-08T03:00:00	6	Velocidad del viento	3.2
176230	7	Sololá	719	Santiago Atitlán	14	Cerro de Oro	10	Octubre	2023-04-10T00:00:00	2024-11-08T03:00:00	7	Dirección del viento	3.22
176231	7	Sololá	719	Santiago Atitlán	14	Cerro de Oro	10	Octubre	2023-04-10T00:00:00	2024-11-08T03:00:00	1	Precipitación	0
176232	7	Sololá	719	Santiago Atitlán	14	Cerro de Oro	10	Octubre	2023-04-10T00:00:00	2024-11-08T03:00:00	8	Radiación solar	0
176233	7	Sololá	719	Santiago Atitlán	14	Cerro de Oro	10	Octubre	2023-04-10T00:00:00	2024-11-08T04:00:00	2	Temperatura media	17.7
176234	7	Sololá	719	Santiago Atitlán	14	Cerro de Oro	10	Octubre	2023-04-10T00:00:00	2024-11-08T04:00:00	4	Temperatura máxima	18
176235	7	Sololá	719	Santiago Atitlán	14	Cerro de Oro	10	Octubre	2023-04-10T00:00:00	2024-11-08T04:00:00	3	Temperatura mínima	17.6
176236	7	Sololá	719	Santiago Atitlán	14	Cerro de Oro	10	Octubre	2023-04-10T00:00:00	2024-11-08T04:00:00	5	Humedad	93
176237	7	Sololá	719	Santiago Atitlán	14	Cerro de Oro	10	Octubre	2023-04-10T00:00:00	2024-11-08T04:00:00	6	Velocidad del viento	4.8
176238	7	Sololá	719	Santiago Atitlán	14	Cerro de Oro	10	Octubre	2023-04-10T00:00:00	2024-11-08T04:00:00	7	Dirección del viento	4.83
176239	7	Sololá	719	Santiago Atitlán	14	Cerro de Oro	10	Octubre	2023-04-10T00:00:00	2024-11-08T04:00:00	1	Precipitación	0
176240	7	Sololá	719	Santiago Atitlán	14	Cerro de Oro	10	Octubre	2023-04-10T00:00:00	2024-11-08T04:00:00	8	Radiación solar	0
176241	7	Sololá	719	Santiago Atitlán	14	Cerro de Oro	10	Octubre	2023-04-10T00:00:00	2024-11-08T05:00:00	2	Temperatura media	17.5
176242	7	Sololá	719	Santiago Atitlán	14	Cerro de Oro	10	Octubre	2023-04-10T00:00:00	2024-11-08T05:00:00	4	Temperatura máxima	17.9
176243	7	Sololá	719	Santiago Atitlán	14	Cerro de Oro	10	Octubre	2023-04-10T00:00:00	2024-11-08T05:00:00	3	Temperatura mínima	17.4
176244	7	Sololá	719	Santiago Atitlán	14	Cerro de Oro	10	Octubre	2023-04-10T00:00:00	2024-11-08T05:00:00	5	Humedad	93
176245	7	Sololá	719	Santiago Atitlán	14	Cerro de Oro	10	Octubre	2023-04-10T00:00:00	2024-11-08T05:00:00	6	Velocidad del viento	4.8
176246	7	Sololá	719	Santiago Atitlán	14	Cerro de Oro	10	Octubre	2023-04-10T00:00:00	2024-11-08T05:00:00	7	Dirección del viento	4.83
176247	7	Sololá	719	Santiago Atitlán	14	Cerro de Oro	10	Octubre	2023-04-10T00:00:00	2024-11-08T05:00:00	1	Precipitación	0
176248	7	Sololá	719	Santiago Atitlán	14	Cerro de Oro	10	Octubre	2023-04-10T00:00:00	2024-11-08T05:00:00	8	Radiación solar	0
176249	7	Sololá	719	Santiago Atitlán	14	Cerro de Oro	10	Octubre	2023-04-10T00:00:00	2024-11-08T06:00:00	2	Temperatura media	17.8
176250	7	Sololá	719	Santiago Atitlán	14	Cerro de Oro	10	Octubre	2023-04-10T00:00:00	2024-11-08T06:00:00	4	Temperatura máxima	18
176251	7	Sololá	719	Santiago Atitlán	14	Cerro de Oro	10	Octubre	2023-04-10T00:00:00	2024-11-08T06:00:00	3	Temperatura mínima	17.6
176252	7	Sololá	719	Santiago Atitlán	14	Cerro de Oro	10	Octubre	2023-04-10T00:00:00	2024-11-08T06:00:00	5	Humedad	92
176253	7	Sololá	719	Santiago Atitlán	14	Cerro de Oro	10	Octubre	2023-04-10T00:00:00	2024-11-08T06:00:00	6	Velocidad del viento	3.2
176254	7	Sololá	719	Santiago Atitlán	14	Cerro de Oro	10	Octubre	2023-04-10T00:00:00	2024-11-08T06:00:00	7	Dirección del viento	3.22
176255	7	Sololá	719	Santiago Atitlán	14	Cerro de Oro	10	Octubre	2023-04-10T00:00:00	2024-11-08T06:00:00	1	Precipitación	0
176256	7	Sololá	719	Santiago Atitlán	14	Cerro de Oro	10	Octubre	2023-04-10T00:00:00	2024-11-08T06:00:00	8	Radiación solar	1
176257	7	Sololá	719	Santiago Atitlán	14	Cerro de Oro	10	Octubre	2023-04-10T00:00:00	2024-11-08T07:00:00	2	Temperatura media	19.2
176258	7	Sololá	719	Santiago Atitlán	14	Cerro de Oro	10	Octubre	2023-04-10T00:00:00	2024-11-08T07:00:00	4	Temperatura máxima	19.2
176259	7	Sololá	719	Santiago Atitlán	14	Cerro de Oro	10	Octubre	2023-04-10T00:00:00	2024-11-08T07:00:00	3	Temperatura mínima	17.4
176260	7	Sololá	719	Santiago Atitlán	14	Cerro de Oro	10	Octubre	2023-04-10T00:00:00	2024-11-08T07:00:00	5	Humedad	90
176261	7	Sololá	719	Santiago Atitlán	14	Cerro de Oro	10	Octubre	2023-04-10T00:00:00	2024-11-08T07:00:00	6	Velocidad del viento	3.2
176262	7	Sololá	719	Santiago Atitlán	14	Cerro de Oro	10	Octubre	2023-04-10T00:00:00	2024-11-08T07:00:00	7	Dirección del viento	3.22
176263	7	Sololá	719	Santiago Atitlán	14	Cerro de Oro	10	Octubre	2023-04-10T00:00:00	2024-11-08T07:00:00	1	Precipitación	0
176264	7	Sololá	719	Santiago Atitlán	14	Cerro de Oro	10	Octubre	2023-04-10T00:00:00	2024-11-08T07:00:00	8	Radiación solar	61
176265	7	Sololá	719	Santiago Atitlán	14	Cerro de Oro	10	Octubre	2023-04-10T00:00:00	2024-11-08T08:00:00	2	Temperatura media	20.8
176266	7	Sololá	719	Santiago Atitlán	14	Cerro de Oro	10	Octubre	2023-04-10T00:00:00	2024-11-08T08:00:00	4	Temperatura máxima	20.8
176267	7	Sololá	719	Santiago Atitlán	14	Cerro de Oro	10	Octubre	2023-04-10T00:00:00	2024-11-08T08:00:00	3	Temperatura mínima	19.2
176268	7	Sololá	719	Santiago Atitlán	14	Cerro de Oro	10	Octubre	2023-04-10T00:00:00	2024-11-08T08:00:00	5	Humedad	84
176269	7	Sololá	719	Santiago Atitlán	14	Cerro de Oro	10	Octubre	2023-04-10T00:00:00	2024-11-08T08:00:00	6	Velocidad del viento	3.2
176270	7	Sololá	719	Santiago Atitlán	14	Cerro de Oro	10	Octubre	2023-04-10T00:00:00	2024-11-08T08:00:00	7	Dirección del viento	3.22
176271	7	Sololá	719	Santiago Atitlán	14	Cerro de Oro	10	Octubre	2023-04-10T00:00:00	2024-11-08T08:00:00	1	Precipitación	0
176272	7	Sololá	719	Santiago Atitlán	14	Cerro de Oro	10	Octubre	2023-04-10T00:00:00	2024-11-08T08:00:00	8	Radiación solar	256
176273	7	Sololá	719	Santiago Atitlán	14	Cerro de Oro	10	Octubre	2023-04-10T00:00:00	2024-11-08T09:00:00	2	Temperatura media	22.8
176274	7	Sololá	719	Santiago Atitlán	14	Cerro de Oro	10	Octubre	2023-04-10T00:00:00	2024-11-08T09:00:00	4	Temperatura máxima	22.8
176275	7	Sololá	719	Santiago Atitlán	14	Cerro de Oro	10	Octubre	2023-04-10T00:00:00	2024-11-08T09:00:00	3	Temperatura mínima	20.7
176276	7	Sololá	719	Santiago Atitlán	14	Cerro de Oro	10	Octubre	2023-04-10T00:00:00	2024-11-08T09:00:00	5	Humedad	70
176277	7	Sololá	719	Santiago Atitlán	14	Cerro de Oro	10	Octubre	2023-04-10T00:00:00	2024-11-08T09:00:00	6	Velocidad del viento	3.2
176278	7	Sololá	719	Santiago Atitlán	14	Cerro de Oro	10	Octubre	2023-04-10T00:00:00	2024-11-08T09:00:00	7	Dirección del viento	3.22
176279	7	Sololá	719	Santiago Atitlán	14	Cerro de Oro	10	Octubre	2023-04-10T00:00:00	2024-11-08T09:00:00	1	Precipitación	0
176280	7	Sololá	719	Santiago Atitlán	14	Cerro de Oro	10	Octubre	2023-04-10T00:00:00	2024-11-08T09:00:00	8	Radiación solar	509
176281	7	Sololá	719	Santiago Atitlán	14	Cerro de Oro	10	Octubre	2023-04-10T00:00:00	2024-11-08T10:00:00	2	Temperatura media	23.8
176282	7	Sololá	719	Santiago Atitlán	14	Cerro de Oro	10	Octubre	2023-04-10T00:00:00	2024-11-08T10:00:00	4	Temperatura máxima	23.9
176283	7	Sololá	719	Santiago Atitlán	14	Cerro de Oro	10	Octubre	2023-04-10T00:00:00	2024-11-08T10:00:00	3	Temperatura mínima	22.8
176284	7	Sololá	719	Santiago Atitlán	14	Cerro de Oro	10	Octubre	2023-04-10T00:00:00	2024-11-08T10:00:00	5	Humedad	67
176285	7	Sololá	719	Santiago Atitlán	14	Cerro de Oro	10	Octubre	2023-04-10T00:00:00	2024-11-08T10:00:00	6	Velocidad del viento	3.2
176286	7	Sololá	719	Santiago Atitlán	14	Cerro de Oro	10	Octubre	2023-04-10T00:00:00	2024-11-08T10:00:00	7	Dirección del viento	3.22
176287	7	Sololá	719	Santiago Atitlán	14	Cerro de Oro	10	Octubre	2023-04-10T00:00:00	2024-11-08T10:00:00	1	Precipitación	0
176288	7	Sololá	719	Santiago Atitlán	14	Cerro de Oro	10	Octubre	2023-04-10T00:00:00	2024-11-08T10:00:00	8	Radiación solar	693
176289	7	Sololá	719	Santiago Atitlán	14	Cerro de Oro	10	Octubre	2023-04-10T00:00:00	2024-11-08T11:00:00	2	Temperatura media	24.8
176290	7	Sololá	719	Santiago Atitlán	14	Cerro de Oro	10	Octubre	2023-04-10T00:00:00	2024-11-08T11:00:00	4	Temperatura máxima	25
176291	7	Sololá	719	Santiago Atitlán	14	Cerro de Oro	10	Octubre	2023-04-10T00:00:00	2024-11-08T11:00:00	3	Temperatura mínima	23.7
176292	7	Sololá	719	Santiago Atitlán	14	Cerro de Oro	10	Octubre	2023-04-10T00:00:00	2024-11-08T11:00:00	5	Humedad	77
176293	7	Sololá	719	Santiago Atitlán	14	Cerro de Oro	10	Octubre	2023-04-10T00:00:00	2024-11-08T11:00:00	6	Velocidad del viento	4.8
176294	7	Sololá	719	Santiago Atitlán	14	Cerro de Oro	10	Octubre	2023-04-10T00:00:00	2024-11-08T11:00:00	7	Dirección del viento	4.83
176295	7	Sololá	719	Santiago Atitlán	14	Cerro de Oro	10	Octubre	2023-04-10T00:00:00	2024-11-08T11:00:00	1	Precipitación	0
176296	7	Sololá	719	Santiago Atitlán	14	Cerro de Oro	10	Octubre	2023-04-10T00:00:00	2024-11-08T11:00:00	8	Radiación solar	832
176297	7	Sololá	719	Santiago Atitlán	14	Cerro de Oro	10	Octubre	2023-04-10T00:00:00	2024-11-08T12:00:00	2	Temperatura media	24
176298	7	Sololá	719	Santiago Atitlán	14	Cerro de Oro	10	Octubre	2023-04-10T00:00:00	2024-11-08T12:00:00	4	Temperatura máxima	24.8
176299	7	Sololá	719	Santiago Atitlán	14	Cerro de Oro	10	Octubre	2023-04-10T00:00:00	2024-11-08T12:00:00	3	Temperatura mínima	23.9
176300	7	Sololá	719	Santiago Atitlán	14	Cerro de Oro	10	Octubre	2023-04-10T00:00:00	2024-11-08T12:00:00	5	Humedad	78
176301	7	Sololá	719	Santiago Atitlán	14	Cerro de Oro	10	Octubre	2023-04-10T00:00:00	2024-11-08T12:00:00	6	Velocidad del viento	12.9
176302	7	Sololá	719	Santiago Atitlán	14	Cerro de Oro	10	Octubre	2023-04-10T00:00:00	2024-11-08T12:00:00	7	Dirección del viento	12.87
176303	7	Sololá	719	Santiago Atitlán	14	Cerro de Oro	10	Octubre	2023-04-10T00:00:00	2024-11-08T12:00:00	1	Precipitación	0
176304	7	Sololá	719	Santiago Atitlán	14	Cerro de Oro	10	Octubre	2023-04-10T00:00:00	2024-11-08T12:00:00	8	Radiación solar	918
176305	7	Sololá	719	Santiago Atitlán	14	Cerro de Oro	10	Octubre	2023-04-10T00:00:00	2024-11-08T13:00:00	2	Temperatura media	23.6
176306	7	Sololá	719	Santiago Atitlán	14	Cerro de Oro	10	Octubre	2023-04-10T00:00:00	2024-11-08T13:00:00	4	Temperatura máxima	24.1
176307	7	Sololá	719	Santiago Atitlán	14	Cerro de Oro	10	Octubre	2023-04-10T00:00:00	2024-11-08T13:00:00	3	Temperatura mínima	23.3
176308	7	Sololá	719	Santiago Atitlán	14	Cerro de Oro	10	Octubre	2023-04-10T00:00:00	2024-11-08T13:00:00	5	Humedad	79
176309	7	Sololá	719	Santiago Atitlán	14	Cerro de Oro	10	Octubre	2023-04-10T00:00:00	2024-11-08T13:00:00	6	Velocidad del viento	12.9
176310	7	Sololá	719	Santiago Atitlán	14	Cerro de Oro	10	Octubre	2023-04-10T00:00:00	2024-11-08T13:00:00	7	Dirección del viento	12.87
176311	7	Sololá	719	Santiago Atitlán	14	Cerro de Oro	10	Octubre	2023-04-10T00:00:00	2024-11-08T13:00:00	1	Precipitación	0
176312	7	Sololá	719	Santiago Atitlán	14	Cerro de Oro	10	Octubre	2023-04-10T00:00:00	2024-11-08T13:00:00	8	Radiación solar	934
176313	7	Sololá	719	Santiago Atitlán	14	Cerro de Oro	10	Octubre	2023-04-10T00:00:00	2024-11-08T14:00:00	2	Temperatura media	22.1
176314	7	Sololá	719	Santiago Atitlán	14	Cerro de Oro	10	Octubre	2023-04-10T00:00:00	2024-11-08T14:00:00	4	Temperatura máxima	23.6
176315	7	Sololá	719	Santiago Atitlán	14	Cerro de Oro	10	Octubre	2023-04-10T00:00:00	2024-11-08T14:00:00	3	Temperatura mínima	22.1
176316	7	Sololá	719	Santiago Atitlán	14	Cerro de Oro	10	Octubre	2023-04-10T00:00:00	2024-11-08T14:00:00	5	Humedad	82
176317	7	Sololá	719	Santiago Atitlán	14	Cerro de Oro	10	Octubre	2023-04-10T00:00:00	2024-11-08T14:00:00	6	Velocidad del viento	12.9
176318	7	Sololá	719	Santiago Atitlán	14	Cerro de Oro	10	Octubre	2023-04-10T00:00:00	2024-11-08T14:00:00	7	Dirección del viento	12.87
176319	7	Sololá	719	Santiago Atitlán	14	Cerro de Oro	10	Octubre	2023-04-10T00:00:00	2024-11-08T14:00:00	1	Precipitación	0
176320	7	Sololá	719	Santiago Atitlán	14	Cerro de Oro	10	Octubre	2023-04-10T00:00:00	2024-11-08T14:00:00	8	Radiación solar	505
176321	7	Sololá	719	Santiago Atitlán	14	Cerro de Oro	10	Octubre	2023-04-10T00:00:00	2024-11-08T15:00:00	2	Temperatura media	19.8
176322	7	Sololá	719	Santiago Atitlán	14	Cerro de Oro	10	Octubre	2023-04-10T00:00:00	2024-11-08T15:00:00	4	Temperatura máxima	22.1
176323	7	Sololá	719	Santiago Atitlán	14	Cerro de Oro	10	Octubre	2023-04-10T00:00:00	2024-11-08T15:00:00	3	Temperatura mínima	19.8
176324	7	Sololá	719	Santiago Atitlán	14	Cerro de Oro	10	Octubre	2023-04-10T00:00:00	2024-11-08T15:00:00	5	Humedad	91
176325	7	Sololá	719	Santiago Atitlán	14	Cerro de Oro	10	Octubre	2023-04-10T00:00:00	2024-11-08T15:00:00	6	Velocidad del viento	11.3
176326	7	Sololá	719	Santiago Atitlán	14	Cerro de Oro	10	Octubre	2023-04-10T00:00:00	2024-11-08T15:00:00	7	Dirección del viento	11.27
176327	7	Sololá	719	Santiago Atitlán	14	Cerro de Oro	10	Octubre	2023-04-10T00:00:00	2024-11-08T15:00:00	1	Precipitación	0
176328	7	Sololá	719	Santiago Atitlán	14	Cerro de Oro	10	Octubre	2023-04-10T00:00:00	2024-11-08T15:00:00	8	Radiación solar	92
176329	7	Sololá	719	Santiago Atitlán	14	Cerro de Oro	10	Octubre	2023-04-10T00:00:00	2024-11-08T16:00:00	2	Temperatura media	18.6
176330	7	Sololá	719	Santiago Atitlán	14	Cerro de Oro	10	Octubre	2023-04-10T00:00:00	2024-11-08T16:00:00	4	Temperatura máxima	20.1
176331	7	Sololá	719	Santiago Atitlán	14	Cerro de Oro	10	Octubre	2023-04-10T00:00:00	2024-11-08T16:00:00	3	Temperatura mínima	18.6
176332	7	Sololá	719	Santiago Atitlán	14	Cerro de Oro	10	Octubre	2023-04-10T00:00:00	2024-11-08T16:00:00	5	Humedad	92
176333	7	Sololá	719	Santiago Atitlán	14	Cerro de Oro	10	Octubre	2023-04-10T00:00:00	2024-11-08T16:00:00	6	Velocidad del viento	9.7
176334	7	Sololá	719	Santiago Atitlán	14	Cerro de Oro	10	Octubre	2023-04-10T00:00:00	2024-11-08T16:00:00	7	Dirección del viento	9.66
176335	7	Sololá	719	Santiago Atitlán	14	Cerro de Oro	10	Octubre	2023-04-10T00:00:00	2024-11-08T16:00:00	1	Precipitación	10.6
176336	7	Sololá	719	Santiago Atitlán	14	Cerro de Oro	10	Octubre	2023-04-10T00:00:00	2024-11-08T16:00:00	8	Radiación solar	16
176337	7	Sololá	719	Santiago Atitlán	14	Cerro de Oro	10	Octubre	2023-04-10T00:00:00	2024-11-08T17:00:00	2	Temperatura media	18.9
176338	7	Sololá	719	Santiago Atitlán	14	Cerro de Oro	10	Octubre	2023-04-10T00:00:00	2024-11-08T17:00:00	4	Temperatura máxima	19
176339	7	Sololá	719	Santiago Atitlán	14	Cerro de Oro	10	Octubre	2023-04-10T00:00:00	2024-11-08T17:00:00	3	Temperatura mínima	18.1
176340	7	Sololá	719	Santiago Atitlán	14	Cerro de Oro	10	Octubre	2023-04-10T00:00:00	2024-11-08T17:00:00	5	Humedad	94
176341	7	Sololá	719	Santiago Atitlán	14	Cerro de Oro	10	Octubre	2023-04-10T00:00:00	2024-11-08T17:00:00	6	Velocidad del viento	4.8
176342	7	Sololá	719	Santiago Atitlán	14	Cerro de Oro	10	Octubre	2023-04-10T00:00:00	2024-11-08T17:00:00	7	Dirección del viento	4.83
176343	7	Sololá	719	Santiago Atitlán	14	Cerro de Oro	10	Octubre	2023-04-10T00:00:00	2024-11-08T17:00:00	1	Precipitación	0.2
176344	7	Sololá	719	Santiago Atitlán	14	Cerro de Oro	10	Octubre	2023-04-10T00:00:00	2024-11-08T17:00:00	8	Radiación solar	20
176345	7	Sololá	719	Santiago Atitlán	14	Cerro de Oro	10	Octubre	2023-04-10T00:00:00	2024-11-08T18:00:00	2	Temperatura media	18.7
176346	7	Sololá	719	Santiago Atitlán	14	Cerro de Oro	10	Octubre	2023-04-10T00:00:00	2024-11-08T18:00:00	4	Temperatura máxima	19.1
176347	7	Sololá	719	Santiago Atitlán	14	Cerro de Oro	10	Octubre	2023-04-10T00:00:00	2024-11-08T18:00:00	3	Temperatura mínima	18.7
176348	7	Sololá	719	Santiago Atitlán	14	Cerro de Oro	10	Octubre	2023-04-10T00:00:00	2024-11-08T18:00:00	5	Humedad	92
176349	7	Sololá	719	Santiago Atitlán	14	Cerro de Oro	10	Octubre	2023-04-10T00:00:00	2024-11-08T18:00:00	6	Velocidad del viento	1.6
176350	7	Sololá	719	Santiago Atitlán	14	Cerro de Oro	10	Octubre	2023-04-10T00:00:00	2024-11-08T18:00:00	7	Dirección del viento	1.61
176351	7	Sololá	719	Santiago Atitlán	14	Cerro de Oro	10	Octubre	2023-04-10T00:00:00	2024-11-08T18:00:00	1	Precipitación	0
176352	7	Sololá	719	Santiago Atitlán	14	Cerro de Oro	10	Octubre	2023-04-10T00:00:00	2024-11-08T18:00:00	8	Radiación solar	10
176353	7	Sololá	719	Santiago Atitlán	14	Cerro de Oro	10	Octubre	2023-04-10T00:00:00	2024-11-08T19:00:00	2	Temperatura media	18.1
176354	7	Sololá	719	Santiago Atitlán	14	Cerro de Oro	10	Octubre	2023-04-10T00:00:00	2024-11-08T19:00:00	4	Temperatura máxima	18.7
176355	7	Sololá	719	Santiago Atitlán	14	Cerro de Oro	10	Octubre	2023-04-10T00:00:00	2024-11-08T19:00:00	3	Temperatura mínima	18.1
176356	7	Sololá	719	Santiago Atitlán	14	Cerro de Oro	10	Octubre	2023-04-10T00:00:00	2024-11-08T19:00:00	5	Humedad	93
176357	7	Sololá	719	Santiago Atitlán	14	Cerro de Oro	10	Octubre	2023-04-10T00:00:00	2024-11-08T19:00:00	6	Velocidad del viento	4.8
176358	7	Sololá	719	Santiago Atitlán	14	Cerro de Oro	10	Octubre	2023-04-10T00:00:00	2024-11-08T19:00:00	7	Dirección del viento	4.83
176359	7	Sololá	719	Santiago Atitlán	14	Cerro de Oro	10	Octubre	2023-04-10T00:00:00	2024-11-08T19:00:00	1	Precipitación	0
176360	7	Sololá	719	Santiago Atitlán	14	Cerro de Oro	10	Octubre	2023-04-10T00:00:00	2024-11-08T19:00:00	8	Radiación solar	0
176361	7	Sololá	719	Santiago Atitlán	14	Cerro de Oro	10	Octubre	2023-04-10T00:00:00	2024-11-08T20:00:00	2	Temperatura media	18.2
176362	7	Sololá	719	Santiago Atitlán	14	Cerro de Oro	10	Octubre	2023-04-10T00:00:00	2024-11-08T20:00:00	4	Temperatura máxima	18.3
176363	7	Sololá	719	Santiago Atitlán	14	Cerro de Oro	10	Octubre	2023-04-10T00:00:00	2024-11-08T20:00:00	3	Temperatura mínima	18.1
176364	7	Sololá	719	Santiago Atitlán	14	Cerro de Oro	10	Octubre	2023-04-10T00:00:00	2024-11-08T20:00:00	5	Humedad	93
176365	7	Sololá	719	Santiago Atitlán	14	Cerro de Oro	10	Octubre	2023-04-10T00:00:00	2024-11-08T20:00:00	6	Velocidad del viento	6.4
176366	7	Sololá	719	Santiago Atitlán	14	Cerro de Oro	10	Octubre	2023-04-10T00:00:00	2024-11-08T20:00:00	7	Dirección del viento	6.44
176367	7	Sololá	719	Santiago Atitlán	14	Cerro de Oro	10	Octubre	2023-04-10T00:00:00	2024-11-08T20:00:00	1	Precipitación	0
176368	7	Sololá	719	Santiago Atitlán	14	Cerro de Oro	10	Octubre	2023-04-10T00:00:00	2024-11-08T20:00:00	8	Radiación solar	0
176369	7	Sololá	719	Santiago Atitlán	14	Cerro de Oro	10	Octubre	2023-04-10T00:00:00	2024-11-08T21:00:00	2	Temperatura media	17.8
176370	7	Sololá	719	Santiago Atitlán	14	Cerro de Oro	10	Octubre	2023-04-10T00:00:00	2024-11-08T21:00:00	4	Temperatura máxima	18.3
176371	7	Sololá	719	Santiago Atitlán	14	Cerro de Oro	10	Octubre	2023-04-10T00:00:00	2024-11-08T21:00:00	3	Temperatura mínima	17.7
176372	7	Sololá	719	Santiago Atitlán	14	Cerro de Oro	10	Octubre	2023-04-10T00:00:00	2024-11-08T21:00:00	5	Humedad	93
176373	7	Sololá	719	Santiago Atitlán	14	Cerro de Oro	10	Octubre	2023-04-10T00:00:00	2024-11-08T21:00:00	6	Velocidad del viento	4.8
176374	7	Sololá	719	Santiago Atitlán	14	Cerro de Oro	10	Octubre	2023-04-10T00:00:00	2024-11-08T21:00:00	7	Dirección del viento	4.83
176375	7	Sololá	719	Santiago Atitlán	14	Cerro de Oro	10	Octubre	2023-04-10T00:00:00	2024-11-08T21:00:00	1	Precipitación	0
176376	7	Sololá	719	Santiago Atitlán	14	Cerro de Oro	10	Octubre	2023-04-10T00:00:00	2024-11-08T21:00:00	8	Radiación solar	0
176377	7	Sololá	719	Santiago Atitlán	14	Cerro de Oro	10	Octubre	2023-04-10T00:00:00	2024-11-08T22:00:00	2	Temperatura media	18
176378	7	Sololá	719	Santiago Atitlán	14	Cerro de Oro	10	Octubre	2023-04-10T00:00:00	2024-11-08T22:00:00	4	Temperatura máxima	18.7
176379	7	Sololá	719	Santiago Atitlán	14	Cerro de Oro	10	Octubre	2023-04-10T00:00:00	2024-11-08T22:00:00	3	Temperatura mínima	17.8
176380	7	Sololá	719	Santiago Atitlán	14	Cerro de Oro	10	Octubre	2023-04-10T00:00:00	2024-11-08T22:00:00	5	Humedad	91
176381	7	Sololá	719	Santiago Atitlán	14	Cerro de Oro	10	Octubre	2023-04-10T00:00:00	2024-11-08T22:00:00	6	Velocidad del viento	8
176382	7	Sololá	719	Santiago Atitlán	14	Cerro de Oro	10	Octubre	2023-04-10T00:00:00	2024-11-08T22:00:00	7	Dirección del viento	8.05
176383	7	Sololá	719	Santiago Atitlán	14	Cerro de Oro	10	Octubre	2023-04-10T00:00:00	2024-11-08T22:00:00	1	Precipitación	0
176384	7	Sololá	719	Santiago Atitlán	14	Cerro de Oro	10	Octubre	2023-04-10T00:00:00	2024-11-08T22:00:00	8	Radiación solar	0
176385	7	Sololá	719	Santiago Atitlán	14	Cerro de Oro	10	Octubre	2023-04-10T00:00:00	2024-11-08T23:00:00	2	Temperatura media	17.8
176386	7	Sololá	719	Santiago Atitlán	14	Cerro de Oro	10	Octubre	2023-04-10T00:00:00	2024-11-08T23:00:00	4	Temperatura máxima	18.2
176387	7	Sololá	719	Santiago Atitlán	14	Cerro de Oro	10	Octubre	2023-04-10T00:00:00	2024-11-08T23:00:00	3	Temperatura mínima	17.6
176388	7	Sololá	719	Santiago Atitlán	14	Cerro de Oro	10	Octubre	2023-04-10T00:00:00	2024-11-08T23:00:00	5	Humedad	89
176389	7	Sololá	719	Santiago Atitlán	14	Cerro de Oro	10	Octubre	2023-04-10T00:00:00	2024-11-08T23:00:00	6	Velocidad del viento	3.2
176390	7	Sololá	719	Santiago Atitlán	14	Cerro de Oro	10	Octubre	2023-04-10T00:00:00	2024-11-08T23:00:00	7	Dirección del viento	3.22
176391	7	Sololá	719	Santiago Atitlán	14	Cerro de Oro	10	Octubre	2023-04-10T00:00:00	2024-11-08T23:00:00	1	Precipitación	0
176392	7	Sololá	719	Santiago Atitlán	14	Cerro de Oro	10	Octubre	2023-04-10T00:00:00	2024-11-08T23:00:00	8	Radiación solar	0
176393	7	Sololá	719	Santiago Atitlán	14	Cerro de Oro	10	Octubre	2023-05-10T00:00:00	2024-11-08T00:00:00	2	Temperatura media	18.1
176394	7	Sololá	719	Santiago Atitlán	14	Cerro de Oro	10	Octubre	2023-05-10T00:00:00	2024-11-08T00:00:00	4	Temperatura máxima	18.1
176395	7	Sololá	719	Santiago Atitlán	14	Cerro de Oro	10	Octubre	2023-05-10T00:00:00	2024-11-08T00:00:00	3	Temperatura mínima	17.6
176396	7	Sololá	719	Santiago Atitlán	14	Cerro de Oro	10	Octubre	2023-05-10T00:00:00	2024-11-08T00:00:00	5	Humedad	89
176397	7	Sololá	719	Santiago Atitlán	14	Cerro de Oro	10	Octubre	2023-05-10T00:00:00	2024-11-08T00:00:00	6	Velocidad del viento	6.4
176398	7	Sololá	719	Santiago Atitlán	14	Cerro de Oro	10	Octubre	2023-05-10T00:00:00	2024-11-08T00:00:00	7	Dirección del viento	6.44
176399	7	Sololá	719	Santiago Atitlán	14	Cerro de Oro	10	Octubre	2023-05-10T00:00:00	2024-11-08T00:00:00	1	Precipitación	0
176400	7	Sololá	719	Santiago Atitlán	14	Cerro de Oro	10	Octubre	2023-05-10T00:00:00	2024-11-08T00:00:00	8	Radiación solar	0
176401	7	Sololá	719	Santiago Atitlán	14	Cerro de Oro	10	Octubre	2023-05-10T00:00:00	2024-11-08T01:00:00	2	Temperatura media	17.4
176402	7	Sololá	719	Santiago Atitlán	14	Cerro de Oro	10	Octubre	2023-05-10T00:00:00	2024-11-08T01:00:00	4	Temperatura máxima	17.8
176403	7	Sololá	719	Santiago Atitlán	14	Cerro de Oro	10	Octubre	2023-05-10T00:00:00	2024-11-08T01:00:00	3	Temperatura mínima	17.3
176404	7	Sololá	719	Santiago Atitlán	14	Cerro de Oro	10	Octubre	2023-05-10T00:00:00	2024-11-08T01:00:00	5	Humedad	94
176405	7	Sololá	719	Santiago Atitlán	14	Cerro de Oro	10	Octubre	2023-05-10T00:00:00	2024-11-08T01:00:00	6	Velocidad del viento	3.2
176406	7	Sololá	719	Santiago Atitlán	14	Cerro de Oro	10	Octubre	2023-05-10T00:00:00	2024-11-08T01:00:00	7	Dirección del viento	3.22
176407	7	Sololá	719	Santiago Atitlán	14	Cerro de Oro	10	Octubre	2023-05-10T00:00:00	2024-11-08T01:00:00	1	Precipitación	0
176408	7	Sololá	719	Santiago Atitlán	14	Cerro de Oro	10	Octubre	2023-05-10T00:00:00	2024-11-08T01:00:00	8	Radiación solar	0
176409	7	Sololá	719	Santiago Atitlán	14	Cerro de Oro	10	Octubre	2023-05-10T00:00:00	2024-11-08T02:00:00	2	Temperatura media	17.3
176410	7	Sololá	719	Santiago Atitlán	14	Cerro de Oro	10	Octubre	2023-05-10T00:00:00	2024-11-08T02:00:00	4	Temperatura máxima	17.7
176411	7	Sololá	719	Santiago Atitlán	14	Cerro de Oro	10	Octubre	2023-05-10T00:00:00	2024-11-08T02:00:00	3	Temperatura mínima	17.3
176412	7	Sololá	719	Santiago Atitlán	14	Cerro de Oro	10	Octubre	2023-05-10T00:00:00	2024-11-08T02:00:00	5	Humedad	92
176413	7	Sololá	719	Santiago Atitlán	14	Cerro de Oro	10	Octubre	2023-05-10T00:00:00	2024-11-08T02:00:00	6	Velocidad del viento	3.2
176414	7	Sololá	719	Santiago Atitlán	14	Cerro de Oro	10	Octubre	2023-05-10T00:00:00	2024-11-08T02:00:00	7	Dirección del viento	3.22
176415	7	Sololá	719	Santiago Atitlán	14	Cerro de Oro	10	Octubre	2023-05-10T00:00:00	2024-11-08T02:00:00	1	Precipitación	0
176416	7	Sololá	719	Santiago Atitlán	14	Cerro de Oro	10	Octubre	2023-05-10T00:00:00	2024-11-08T02:00:00	8	Radiación solar	0
176417	7	Sololá	719	Santiago Atitlán	14	Cerro de Oro	10	Octubre	2023-05-10T00:00:00	2024-11-08T03:00:00	2	Temperatura media	17.7
176418	7	Sololá	719	Santiago Atitlán	14	Cerro de Oro	10	Octubre	2023-05-10T00:00:00	2024-11-08T03:00:00	4	Temperatura máxima	17.7
176419	7	Sololá	719	Santiago Atitlán	14	Cerro de Oro	10	Octubre	2023-05-10T00:00:00	2024-11-08T03:00:00	3	Temperatura mínima	17.3
176420	7	Sololá	719	Santiago Atitlán	14	Cerro de Oro	10	Octubre	2023-05-10T00:00:00	2024-11-08T03:00:00	5	Humedad	89
176421	7	Sololá	719	Santiago Atitlán	14	Cerro de Oro	10	Octubre	2023-05-10T00:00:00	2024-11-08T03:00:00	6	Velocidad del viento	1.6
176422	7	Sololá	719	Santiago Atitlán	14	Cerro de Oro	10	Octubre	2023-05-10T00:00:00	2024-11-08T03:00:00	7	Dirección del viento	1.61
176423	7	Sololá	719	Santiago Atitlán	14	Cerro de Oro	10	Octubre	2023-05-10T00:00:00	2024-11-08T03:00:00	1	Precipitación	0
176424	7	Sololá	719	Santiago Atitlán	14	Cerro de Oro	10	Octubre	2023-05-10T00:00:00	2024-11-08T03:00:00	8	Radiación solar	0
176425	7	Sololá	719	Santiago Atitlán	14	Cerro de Oro	10	Octubre	2023-05-10T00:00:00	2024-11-08T04:00:00	2	Temperatura media	17
176426	7	Sololá	719	Santiago Atitlán	14	Cerro de Oro	10	Octubre	2023-05-10T00:00:00	2024-11-08T04:00:00	4	Temperatura máxima	17.7
176427	7	Sololá	719	Santiago Atitlán	14	Cerro de Oro	10	Octubre	2023-05-10T00:00:00	2024-11-08T04:00:00	3	Temperatura mínima	17
176428	7	Sololá	719	Santiago Atitlán	14	Cerro de Oro	10	Octubre	2023-05-10T00:00:00	2024-11-08T04:00:00	5	Humedad	91
176429	7	Sololá	719	Santiago Atitlán	14	Cerro de Oro	10	Octubre	2023-05-10T00:00:00	2024-11-08T04:00:00	6	Velocidad del viento	1.6
176430	7	Sololá	719	Santiago Atitlán	14	Cerro de Oro	10	Octubre	2023-05-10T00:00:00	2024-11-08T04:00:00	7	Dirección del viento	1.61
176431	7	Sololá	719	Santiago Atitlán	14	Cerro de Oro	10	Octubre	2023-05-10T00:00:00	2024-11-08T04:00:00	1	Precipitación	0
176432	7	Sololá	719	Santiago Atitlán	14	Cerro de Oro	10	Octubre	2023-05-10T00:00:00	2024-11-08T04:00:00	8	Radiación solar	0
176433	7	Sololá	719	Santiago Atitlán	14	Cerro de Oro	10	Octubre	2023-05-10T00:00:00	2024-11-08T05:00:00	2	Temperatura media	17.3
176434	7	Sololá	719	Santiago Atitlán	14	Cerro de Oro	10	Octubre	2023-05-10T00:00:00	2024-11-08T05:00:00	4	Temperatura máxima	17.6
176435	7	Sololá	719	Santiago Atitlán	14	Cerro de Oro	10	Octubre	2023-05-10T00:00:00	2024-11-08T05:00:00	3	Temperatura mínima	16.8
176436	7	Sololá	719	Santiago Atitlán	14	Cerro de Oro	10	Octubre	2023-05-10T00:00:00	2024-11-08T05:00:00	5	Humedad	89
176437	7	Sololá	719	Santiago Atitlán	14	Cerro de Oro	10	Octubre	2023-05-10T00:00:00	2024-11-08T05:00:00	6	Velocidad del viento	1.6
176438	7	Sololá	719	Santiago Atitlán	14	Cerro de Oro	10	Octubre	2023-05-10T00:00:00	2024-11-08T05:00:00	7	Dirección del viento	1.61
176439	7	Sololá	719	Santiago Atitlán	14	Cerro de Oro	10	Octubre	2023-05-10T00:00:00	2024-11-08T05:00:00	1	Precipitación	0
176440	7	Sololá	719	Santiago Atitlán	14	Cerro de Oro	10	Octubre	2023-05-10T00:00:00	2024-11-08T05:00:00	8	Radiación solar	0
176441	7	Sololá	719	Santiago Atitlán	14	Cerro de Oro	10	Octubre	2023-05-10T00:00:00	2024-11-08T06:00:00	2	Temperatura media	16.1
176442	7	Sololá	719	Santiago Atitlán	14	Cerro de Oro	10	Octubre	2023-05-10T00:00:00	2024-11-08T06:00:00	4	Temperatura máxima	17.3
176443	7	Sololá	719	Santiago Atitlán	14	Cerro de Oro	10	Octubre	2023-05-10T00:00:00	2024-11-08T06:00:00	3	Temperatura mínima	16.1
176444	7	Sololá	719	Santiago Atitlán	14	Cerro de Oro	10	Octubre	2023-05-10T00:00:00	2024-11-08T06:00:00	5	Humedad	92
176445	7	Sololá	719	Santiago Atitlán	14	Cerro de Oro	10	Octubre	2023-05-10T00:00:00	2024-11-08T06:00:00	6	Velocidad del viento	1.6
176446	7	Sololá	719	Santiago Atitlán	14	Cerro de Oro	10	Octubre	2023-05-10T00:00:00	2024-11-08T06:00:00	7	Dirección del viento	1.61
176447	7	Sololá	719	Santiago Atitlán	14	Cerro de Oro	10	Octubre	2023-05-10T00:00:00	2024-11-08T06:00:00	1	Precipitación	0
176448	7	Sololá	719	Santiago Atitlán	14	Cerro de Oro	10	Octubre	2023-05-10T00:00:00	2024-11-08T06:00:00	8	Radiación solar	1
176449	7	Sololá	719	Santiago Atitlán	14	Cerro de Oro	10	Octubre	2023-05-10T00:00:00	2024-11-08T07:00:00	2	Temperatura media	18.1
176450	7	Sololá	719	Santiago Atitlán	14	Cerro de Oro	10	Octubre	2023-05-10T00:00:00	2024-11-08T07:00:00	4	Temperatura máxima	18.1
176451	7	Sololá	719	Santiago Atitlán	14	Cerro de Oro	10	Octubre	2023-05-10T00:00:00	2024-11-08T07:00:00	3	Temperatura mínima	16.1
176452	7	Sololá	719	Santiago Atitlán	14	Cerro de Oro	10	Octubre	2023-05-10T00:00:00	2024-11-08T07:00:00	5	Humedad	86
176453	7	Sololá	719	Santiago Atitlán	14	Cerro de Oro	10	Octubre	2023-05-10T00:00:00	2024-11-08T07:00:00	6	Velocidad del viento	1.6
176454	7	Sololá	719	Santiago Atitlán	14	Cerro de Oro	10	Octubre	2023-05-10T00:00:00	2024-11-08T07:00:00	7	Dirección del viento	1.61
176455	7	Sololá	719	Santiago Atitlán	14	Cerro de Oro	10	Octubre	2023-05-10T00:00:00	2024-11-08T07:00:00	1	Precipitación	0
176456	7	Sololá	719	Santiago Atitlán	14	Cerro de Oro	10	Octubre	2023-05-10T00:00:00	2024-11-08T07:00:00	8	Radiación solar	67
176457	7	Sololá	719	Santiago Atitlán	14	Cerro de Oro	10	Octubre	2023-05-10T00:00:00	2024-11-08T08:00:00	2	Temperatura media	20.8
176458	7	Sololá	719	Santiago Atitlán	14	Cerro de Oro	10	Octubre	2023-05-10T00:00:00	2024-11-08T08:00:00	4	Temperatura máxima	20.8
176459	7	Sololá	719	Santiago Atitlán	14	Cerro de Oro	10	Octubre	2023-05-10T00:00:00	2024-11-08T08:00:00	3	Temperatura mínima	18.1
176460	7	Sololá	719	Santiago Atitlán	14	Cerro de Oro	10	Octubre	2023-05-10T00:00:00	2024-11-08T08:00:00	5	Humedad	81
176461	7	Sololá	719	Santiago Atitlán	14	Cerro de Oro	10	Octubre	2023-05-10T00:00:00	2024-11-08T08:00:00	6	Velocidad del viento	1.6
176462	7	Sololá	719	Santiago Atitlán	14	Cerro de Oro	10	Octubre	2023-05-10T00:00:00	2024-11-08T08:00:00	7	Dirección del viento	1.61
176463	7	Sololá	719	Santiago Atitlán	14	Cerro de Oro	10	Octubre	2023-05-10T00:00:00	2024-11-08T08:00:00	1	Precipitación	0
176464	7	Sololá	719	Santiago Atitlán	14	Cerro de Oro	10	Octubre	2023-05-10T00:00:00	2024-11-08T08:00:00	8	Radiación solar	310
176465	7	Sololá	719	Santiago Atitlán	14	Cerro de Oro	10	Octubre	2023-05-10T00:00:00	2024-11-08T09:00:00	2	Temperatura media	22.1
176466	7	Sololá	719	Santiago Atitlán	14	Cerro de Oro	10	Octubre	2023-05-10T00:00:00	2024-11-08T09:00:00	4	Temperatura máxima	22.1
176467	7	Sololá	719	Santiago Atitlán	14	Cerro de Oro	10	Octubre	2023-05-10T00:00:00	2024-11-08T09:00:00	3	Temperatura mínima	20.8
176468	7	Sololá	719	Santiago Atitlán	14	Cerro de Oro	10	Octubre	2023-05-10T00:00:00	2024-11-08T09:00:00	5	Humedad	79
176469	7	Sololá	719	Santiago Atitlán	14	Cerro de Oro	10	Octubre	2023-05-10T00:00:00	2024-11-08T09:00:00	6	Velocidad del viento	0
176470	7	Sololá	719	Santiago Atitlán	14	Cerro de Oro	10	Octubre	2023-05-10T00:00:00	2024-11-08T09:00:00	7	Dirección del viento	0
176471	7	Sololá	719	Santiago Atitlán	14	Cerro de Oro	10	Octubre	2023-05-10T00:00:00	2024-11-08T09:00:00	1	Precipitación	0
176472	7	Sololá	719	Santiago Atitlán	14	Cerro de Oro	10	Octubre	2023-05-10T00:00:00	2024-11-08T09:00:00	8	Radiación solar	530
176473	7	Sololá	719	Santiago Atitlán	14	Cerro de Oro	10	Octubre	2023-05-10T00:00:00	2024-11-08T10:00:00	2	Temperatura media	23.2
176474	7	Sololá	719	Santiago Atitlán	14	Cerro de Oro	10	Octubre	2023-05-10T00:00:00	2024-11-08T10:00:00	4	Temperatura máxima	23.2
176475	7	Sololá	719	Santiago Atitlán	14	Cerro de Oro	10	Octubre	2023-05-10T00:00:00	2024-11-08T10:00:00	3	Temperatura mínima	22.1
176476	7	Sololá	719	Santiago Atitlán	14	Cerro de Oro	10	Octubre	2023-05-10T00:00:00	2024-11-08T10:00:00	5	Humedad	77
176477	7	Sololá	719	Santiago Atitlán	14	Cerro de Oro	10	Octubre	2023-05-10T00:00:00	2024-11-08T10:00:00	6	Velocidad del viento	1.6
176478	7	Sololá	719	Santiago Atitlán	14	Cerro de Oro	10	Octubre	2023-05-10T00:00:00	2024-11-08T10:00:00	7	Dirección del viento	1.61
176479	7	Sololá	719	Santiago Atitlán	14	Cerro de Oro	10	Octubre	2023-05-10T00:00:00	2024-11-08T10:00:00	1	Precipitación	0
176480	7	Sololá	719	Santiago Atitlán	14	Cerro de Oro	10	Octubre	2023-05-10T00:00:00	2024-11-08T10:00:00	8	Radiación solar	708
176481	7	Sololá	719	Santiago Atitlán	14	Cerro de Oro	10	Octubre	2023-05-10T00:00:00	2024-11-08T11:00:00	2	Temperatura media	23.6
176482	7	Sololá	719	Santiago Atitlán	14	Cerro de Oro	10	Octubre	2023-05-10T00:00:00	2024-11-08T11:00:00	4	Temperatura máxima	24.3
176483	7	Sololá	719	Santiago Atitlán	14	Cerro de Oro	10	Octubre	2023-05-10T00:00:00	2024-11-08T11:00:00	3	Temperatura mínima	23.2
176484	7	Sololá	719	Santiago Atitlán	14	Cerro de Oro	10	Octubre	2023-05-10T00:00:00	2024-11-08T11:00:00	5	Humedad	74
176485	7	Sololá	719	Santiago Atitlán	14	Cerro de Oro	10	Octubre	2023-05-10T00:00:00	2024-11-08T11:00:00	6	Velocidad del viento	3.2
176486	7	Sololá	719	Santiago Atitlán	14	Cerro de Oro	10	Octubre	2023-05-10T00:00:00	2024-11-08T11:00:00	7	Dirección del viento	3.22
176487	7	Sololá	719	Santiago Atitlán	14	Cerro de Oro	10	Octubre	2023-05-10T00:00:00	2024-11-08T11:00:00	1	Precipitación	0
176488	7	Sololá	719	Santiago Atitlán	14	Cerro de Oro	10	Octubre	2023-05-10T00:00:00	2024-11-08T11:00:00	8	Radiación solar	841
176489	7	Sololá	719	Santiago Atitlán	14	Cerro de Oro	10	Octubre	2023-05-10T00:00:00	2024-11-08T12:00:00	2	Temperatura media	24.8
176490	7	Sololá	719	Santiago Atitlán	14	Cerro de Oro	10	Octubre	2023-05-10T00:00:00	2024-11-08T12:00:00	4	Temperatura máxima	24.9
176491	7	Sololá	719	Santiago Atitlán	14	Cerro de Oro	10	Octubre	2023-05-10T00:00:00	2024-11-08T12:00:00	3	Temperatura mínima	23.4
176492	7	Sololá	719	Santiago Atitlán	14	Cerro de Oro	10	Octubre	2023-05-10T00:00:00	2024-11-08T12:00:00	5	Humedad	78
176493	7	Sololá	719	Santiago Atitlán	14	Cerro de Oro	10	Octubre	2023-05-10T00:00:00	2024-11-08T12:00:00	6	Velocidad del viento	3.2
176494	7	Sololá	719	Santiago Atitlán	14	Cerro de Oro	10	Octubre	2023-05-10T00:00:00	2024-11-08T12:00:00	7	Dirección del viento	3.22
176495	7	Sololá	719	Santiago Atitlán	14	Cerro de Oro	10	Octubre	2023-05-10T00:00:00	2024-11-08T12:00:00	1	Precipitación	0
176496	7	Sololá	719	Santiago Atitlán	14	Cerro de Oro	10	Octubre	2023-05-10T00:00:00	2024-11-08T12:00:00	8	Radiación solar	912
176497	7	Sololá	719	Santiago Atitlán	14	Cerro de Oro	10	Octubre	2023-05-10T00:00:00	2024-11-08T13:00:00	2	Temperatura media	23.7
176498	7	Sololá	719	Santiago Atitlán	14	Cerro de Oro	10	Octubre	2023-05-10T00:00:00	2024-11-08T13:00:00	4	Temperatura máxima	24.8
176499	7	Sololá	719	Santiago Atitlán	14	Cerro de Oro	10	Octubre	2023-05-10T00:00:00	2024-11-08T13:00:00	3	Temperatura mínima	23.5
176500	7	Sololá	719	Santiago Atitlán	14	Cerro de Oro	10	Octubre	2023-05-10T00:00:00	2024-11-08T13:00:00	5	Humedad	81
176501	7	Sololá	719	Santiago Atitlán	14	Cerro de Oro	10	Octubre	2023-05-10T00:00:00	2024-11-08T13:00:00	6	Velocidad del viento	4.8
176502	7	Sololá	719	Santiago Atitlán	14	Cerro de Oro	10	Octubre	2023-05-10T00:00:00	2024-11-08T13:00:00	7	Dirección del viento	4.83
176503	7	Sololá	719	Santiago Atitlán	14	Cerro de Oro	10	Octubre	2023-05-10T00:00:00	2024-11-08T13:00:00	1	Precipitación	0
176504	7	Sololá	719	Santiago Atitlán	14	Cerro de Oro	10	Octubre	2023-05-10T00:00:00	2024-11-08T13:00:00	8	Radiación solar	669
176505	7	Sololá	719	Santiago Atitlán	14	Cerro de Oro	10	Octubre	2023-05-10T00:00:00	2024-11-08T14:00:00	2	Temperatura media	22.9
176506	7	Sololá	719	Santiago Atitlán	14	Cerro de Oro	10	Octubre	2023-05-10T00:00:00	2024-11-08T14:00:00	4	Temperatura máxima	23.7
176507	7	Sololá	719	Santiago Atitlán	14	Cerro de Oro	10	Octubre	2023-05-10T00:00:00	2024-11-08T14:00:00	3	Temperatura mínima	22.9
176508	7	Sololá	719	Santiago Atitlán	14	Cerro de Oro	10	Octubre	2023-05-10T00:00:00	2024-11-08T14:00:00	5	Humedad	85
176509	7	Sololá	719	Santiago Atitlán	14	Cerro de Oro	10	Octubre	2023-05-10T00:00:00	2024-11-08T14:00:00	6	Velocidad del viento	4.8
176510	7	Sololá	719	Santiago Atitlán	14	Cerro de Oro	10	Octubre	2023-05-10T00:00:00	2024-11-08T14:00:00	7	Dirección del viento	4.83
176511	7	Sololá	719	Santiago Atitlán	14	Cerro de Oro	10	Octubre	2023-05-10T00:00:00	2024-11-08T14:00:00	1	Precipitación	0
176512	7	Sololá	719	Santiago Atitlán	14	Cerro de Oro	10	Octubre	2023-05-10T00:00:00	2024-11-08T14:00:00	8	Radiación solar	282
176513	7	Sololá	719	Santiago Atitlán	14	Cerro de Oro	10	Octubre	2023-05-10T00:00:00	2024-11-08T15:00:00	2	Temperatura media	22.3
176514	7	Sololá	719	Santiago Atitlán	14	Cerro de Oro	10	Octubre	2023-05-10T00:00:00	2024-11-08T15:00:00	4	Temperatura máxima	23.5
176515	7	Sololá	719	Santiago Atitlán	14	Cerro de Oro	10	Octubre	2023-05-10T00:00:00	2024-11-08T15:00:00	3	Temperatura mínima	22.2
176516	7	Sololá	719	Santiago Atitlán	14	Cerro de Oro	10	Octubre	2023-05-10T00:00:00	2024-11-08T15:00:00	5	Humedad	87
176517	7	Sololá	719	Santiago Atitlán	14	Cerro de Oro	10	Octubre	2023-05-10T00:00:00	2024-11-08T15:00:00	6	Velocidad del viento	4.8
176518	7	Sololá	719	Santiago Atitlán	14	Cerro de Oro	10	Octubre	2023-05-10T00:00:00	2024-11-08T15:00:00	7	Dirección del viento	4.83
176519	7	Sololá	719	Santiago Atitlán	14	Cerro de Oro	10	Octubre	2023-05-10T00:00:00	2024-11-08T15:00:00	1	Precipitación	0
176520	7	Sololá	719	Santiago Atitlán	14	Cerro de Oro	10	Octubre	2023-05-10T00:00:00	2024-11-08T15:00:00	8	Radiación solar	292
176521	7	Sololá	719	Santiago Atitlán	14	Cerro de Oro	10	Octubre	2023-05-10T00:00:00	2024-11-08T16:00:00	2	Temperatura media	21.8
176522	7	Sololá	719	Santiago Atitlán	14	Cerro de Oro	10	Octubre	2023-05-10T00:00:00	2024-11-08T16:00:00	4	Temperatura máxima	22.4
176523	7	Sololá	719	Santiago Atitlán	14	Cerro de Oro	10	Octubre	2023-05-10T00:00:00	2024-11-08T16:00:00	3	Temperatura mínima	21.8
176524	7	Sololá	719	Santiago Atitlán	14	Cerro de Oro	10	Octubre	2023-05-10T00:00:00	2024-11-08T16:00:00	5	Humedad	90
176525	7	Sololá	719	Santiago Atitlán	14	Cerro de Oro	10	Octubre	2023-05-10T00:00:00	2024-11-08T16:00:00	6	Velocidad del viento	4.8
176526	7	Sololá	719	Santiago Atitlán	14	Cerro de Oro	10	Octubre	2023-05-10T00:00:00	2024-11-08T16:00:00	7	Dirección del viento	4.83
176527	7	Sololá	719	Santiago Atitlán	14	Cerro de Oro	10	Octubre	2023-05-10T00:00:00	2024-11-08T16:00:00	1	Precipitación	0
176528	7	Sololá	719	Santiago Atitlán	14	Cerro de Oro	10	Octubre	2023-05-10T00:00:00	2024-11-08T16:00:00	8	Radiación solar	152
176529	7	Sololá	719	Santiago Atitlán	14	Cerro de Oro	10	Octubre	2023-05-10T00:00:00	2024-11-08T17:00:00	2	Temperatura media	21.7
176530	7	Sololá	719	Santiago Atitlán	14	Cerro de Oro	10	Octubre	2023-05-10T00:00:00	2024-11-08T17:00:00	4	Temperatura máxima	22.1
176531	7	Sololá	719	Santiago Atitlán	14	Cerro de Oro	10	Octubre	2023-05-10T00:00:00	2024-11-08T17:00:00	3	Temperatura mínima	21.6
176532	7	Sololá	719	Santiago Atitlán	14	Cerro de Oro	10	Octubre	2023-05-10T00:00:00	2024-11-08T17:00:00	5	Humedad	88
176533	7	Sololá	719	Santiago Atitlán	14	Cerro de Oro	10	Octubre	2023-05-10T00:00:00	2024-11-08T17:00:00	6	Velocidad del viento	1.6
176534	7	Sololá	719	Santiago Atitlán	14	Cerro de Oro	10	Octubre	2023-05-10T00:00:00	2024-11-08T17:00:00	7	Dirección del viento	1.61
176535	7	Sololá	719	Santiago Atitlán	14	Cerro de Oro	10	Octubre	2023-05-10T00:00:00	2024-11-08T17:00:00	1	Precipitación	0
176536	7	Sololá	719	Santiago Atitlán	14	Cerro de Oro	10	Octubre	2023-05-10T00:00:00	2024-11-08T17:00:00	8	Radiación solar	107
176537	7	Sololá	719	Santiago Atitlán	14	Cerro de Oro	10	Octubre	2023-05-10T00:00:00	2024-11-08T18:00:00	2	Temperatura media	20.3
176538	7	Sololá	719	Santiago Atitlán	14	Cerro de Oro	10	Octubre	2023-05-10T00:00:00	2024-11-08T18:00:00	4	Temperatura máxima	21.7
176539	7	Sololá	719	Santiago Atitlán	14	Cerro de Oro	10	Octubre	2023-05-10T00:00:00	2024-11-08T18:00:00	3	Temperatura mínima	20.3
176540	7	Sololá	719	Santiago Atitlán	14	Cerro de Oro	10	Octubre	2023-05-10T00:00:00	2024-11-08T18:00:00	5	Humedad	89
176541	7	Sololá	719	Santiago Atitlán	14	Cerro de Oro	10	Octubre	2023-05-10T00:00:00	2024-11-08T18:00:00	6	Velocidad del viento	3.2
176542	7	Sololá	719	Santiago Atitlán	14	Cerro de Oro	10	Octubre	2023-05-10T00:00:00	2024-11-08T18:00:00	7	Dirección del viento	3.22
176543	7	Sololá	719	Santiago Atitlán	14	Cerro de Oro	10	Octubre	2023-05-10T00:00:00	2024-11-08T18:00:00	1	Precipitación	0
176544	7	Sololá	719	Santiago Atitlán	14	Cerro de Oro	10	Octubre	2023-05-10T00:00:00	2024-11-08T18:00:00	8	Radiación solar	7
176545	7	Sololá	719	Santiago Atitlán	14	Cerro de Oro	10	Octubre	2023-05-10T00:00:00	2024-11-08T19:00:00	2	Temperatura media	20.2
176546	7	Sololá	719	Santiago Atitlán	14	Cerro de Oro	10	Octubre	2023-05-10T00:00:00	2024-11-08T19:00:00	4	Temperatura máxima	20.3
176547	7	Sololá	719	Santiago Atitlán	14	Cerro de Oro	10	Octubre	2023-05-10T00:00:00	2024-11-08T19:00:00	3	Temperatura mínima	20.1
176548	7	Sololá	719	Santiago Atitlán	14	Cerro de Oro	10	Octubre	2023-05-10T00:00:00	2024-11-08T19:00:00	5	Humedad	88
176549	7	Sololá	719	Santiago Atitlán	14	Cerro de Oro	10	Octubre	2023-05-10T00:00:00	2024-11-08T19:00:00	6	Velocidad del viento	1.6
176550	7	Sololá	719	Santiago Atitlán	14	Cerro de Oro	10	Octubre	2023-05-10T00:00:00	2024-11-08T19:00:00	7	Dirección del viento	1.61
176551	7	Sololá	719	Santiago Atitlán	14	Cerro de Oro	10	Octubre	2023-05-10T00:00:00	2024-11-08T19:00:00	1	Precipitación	0
176552	7	Sololá	719	Santiago Atitlán	14	Cerro de Oro	10	Octubre	2023-05-10T00:00:00	2024-11-08T19:00:00	8	Radiación solar	0
176553	7	Sololá	719	Santiago Atitlán	14	Cerro de Oro	10	Octubre	2023-05-10T00:00:00	2024-11-08T20:00:00	2	Temperatura media	20
176554	7	Sololá	719	Santiago Atitlán	14	Cerro de Oro	10	Octubre	2023-05-10T00:00:00	2024-11-08T20:00:00	4	Temperatura máxima	20.3
176555	7	Sololá	719	Santiago Atitlán	14	Cerro de Oro	10	Octubre	2023-05-10T00:00:00	2024-11-08T20:00:00	3	Temperatura mínima	19.7
176556	7	Sololá	719	Santiago Atitlán	14	Cerro de Oro	10	Octubre	2023-05-10T00:00:00	2024-11-08T20:00:00	5	Humedad	86
176557	7	Sololá	719	Santiago Atitlán	14	Cerro de Oro	10	Octubre	2023-05-10T00:00:00	2024-11-08T20:00:00	6	Velocidad del viento	3.2
176558	7	Sololá	719	Santiago Atitlán	14	Cerro de Oro	10	Octubre	2023-05-10T00:00:00	2024-11-08T20:00:00	7	Dirección del viento	3.22
176559	7	Sololá	719	Santiago Atitlán	14	Cerro de Oro	10	Octubre	2023-05-10T00:00:00	2024-11-08T20:00:00	1	Precipitación	0
176560	7	Sololá	719	Santiago Atitlán	14	Cerro de Oro	10	Octubre	2023-05-10T00:00:00	2024-11-08T20:00:00	8	Radiación solar	0
176561	7	Sololá	719	Santiago Atitlán	14	Cerro de Oro	10	Octubre	2023-05-10T00:00:00	2024-11-08T21:00:00	2	Temperatura media	19.9
176562	7	Sololá	719	Santiago Atitlán	14	Cerro de Oro	10	Octubre	2023-05-10T00:00:00	2024-11-08T21:00:00	4	Temperatura máxima	20.1
176563	7	Sololá	719	Santiago Atitlán	14	Cerro de Oro	10	Octubre	2023-05-10T00:00:00	2024-11-08T21:00:00	3	Temperatura mínima	19.8
176564	7	Sololá	719	Santiago Atitlán	14	Cerro de Oro	10	Octubre	2023-05-10T00:00:00	2024-11-08T21:00:00	5	Humedad	86
176565	7	Sololá	719	Santiago Atitlán	14	Cerro de Oro	10	Octubre	2023-05-10T00:00:00	2024-11-08T21:00:00	6	Velocidad del viento	1.6
176566	7	Sololá	719	Santiago Atitlán	14	Cerro de Oro	10	Octubre	2023-05-10T00:00:00	2024-11-08T21:00:00	7	Dirección del viento	1.61
176567	7	Sololá	719	Santiago Atitlán	14	Cerro de Oro	10	Octubre	2023-05-10T00:00:00	2024-11-08T21:00:00	1	Precipitación	0
176568	7	Sololá	719	Santiago Atitlán	14	Cerro de Oro	10	Octubre	2023-05-10T00:00:00	2024-11-08T21:00:00	8	Radiación solar	0
176569	7	Sololá	719	Santiago Atitlán	14	Cerro de Oro	10	Octubre	2023-05-10T00:00:00	2024-11-08T22:00:00	2	Temperatura media	18.7
176570	7	Sololá	719	Santiago Atitlán	14	Cerro de Oro	10	Octubre	2023-05-10T00:00:00	2024-11-08T22:00:00	4	Temperatura máxima	19.9
176571	7	Sololá	719	Santiago Atitlán	14	Cerro de Oro	10	Octubre	2023-05-10T00:00:00	2024-11-08T22:00:00	3	Temperatura mínima	18.6
176572	7	Sololá	719	Santiago Atitlán	14	Cerro de Oro	10	Octubre	2023-05-10T00:00:00	2024-11-08T22:00:00	5	Humedad	90
176573	7	Sololá	719	Santiago Atitlán	14	Cerro de Oro	10	Octubre	2023-05-10T00:00:00	2024-11-08T22:00:00	6	Velocidad del viento	1.6
176574	7	Sololá	719	Santiago Atitlán	14	Cerro de Oro	10	Octubre	2023-05-10T00:00:00	2024-11-08T22:00:00	7	Dirección del viento	1.61
176575	7	Sololá	719	Santiago Atitlán	14	Cerro de Oro	10	Octubre	2023-05-10T00:00:00	2024-11-08T22:00:00	1	Precipitación	0
176576	7	Sololá	719	Santiago Atitlán	14	Cerro de Oro	10	Octubre	2023-05-10T00:00:00	2024-11-08T22:00:00	8	Radiación solar	0
176577	7	Sololá	719	Santiago Atitlán	14	Cerro de Oro	10	Octubre	2023-05-10T00:00:00	2024-11-08T23:00:00	2	Temperatura media	19.3
176578	7	Sololá	719	Santiago Atitlán	14	Cerro de Oro	10	Octubre	2023-05-10T00:00:00	2024-11-08T23:00:00	4	Temperatura máxima	19.5
176579	7	Sololá	719	Santiago Atitlán	14	Cerro de Oro	10	Octubre	2023-05-10T00:00:00	2024-11-08T23:00:00	3	Temperatura mínima	18.7
176580	7	Sololá	719	Santiago Atitlán	14	Cerro de Oro	10	Octubre	2023-05-10T00:00:00	2024-11-08T23:00:00	5	Humedad	87
176581	7	Sololá	719	Santiago Atitlán	14	Cerro de Oro	10	Octubre	2023-05-10T00:00:00	2024-11-08T23:00:00	6	Velocidad del viento	1.6
176582	7	Sololá	719	Santiago Atitlán	14	Cerro de Oro	10	Octubre	2023-05-10T00:00:00	2024-11-08T23:00:00	7	Dirección del viento	1.61
176583	7	Sololá	719	Santiago Atitlán	14	Cerro de Oro	10	Octubre	2023-05-10T00:00:00	2024-11-08T23:00:00	1	Precipitación	0
176584	7	Sololá	719	Santiago Atitlán	14	Cerro de Oro	10	Octubre	2023-05-10T00:00:00	2024-11-08T23:00:00	8	Radiación solar	0
176585	7	Sololá	719	Santiago Atitlán	14	Cerro de Oro	10	Octubre	2023-06-10T00:00:00	2024-11-08T00:00:00	2	Temperatura media	19.3
176586	7	Sololá	719	Santiago Atitlán	14	Cerro de Oro	10	Octubre	2023-06-10T00:00:00	2024-11-08T00:00:00	4	Temperatura máxima	19.3
176587	7	Sololá	719	Santiago Atitlán	14	Cerro de Oro	10	Octubre	2023-06-10T00:00:00	2024-11-08T00:00:00	3	Temperatura mínima	18.9
176588	7	Sololá	719	Santiago Atitlán	14	Cerro de Oro	10	Octubre	2023-06-10T00:00:00	2024-11-08T00:00:00	5	Humedad	84
176589	7	Sololá	719	Santiago Atitlán	14	Cerro de Oro	10	Octubre	2023-06-10T00:00:00	2024-11-08T00:00:00	6	Velocidad del viento	1.6
176590	7	Sololá	719	Santiago Atitlán	14	Cerro de Oro	10	Octubre	2023-06-10T00:00:00	2024-11-08T00:00:00	7	Dirección del viento	1.61
176591	7	Sololá	719	Santiago Atitlán	14	Cerro de Oro	10	Octubre	2023-06-10T00:00:00	2024-11-08T00:00:00	1	Precipitación	0
176592	7	Sololá	719	Santiago Atitlán	14	Cerro de Oro	10	Octubre	2023-06-10T00:00:00	2024-11-08T00:00:00	8	Radiación solar	0
176593	7	Sololá	719	Santiago Atitlán	14	Cerro de Oro	10	Octubre	2023-06-10T00:00:00	2024-11-08T01:00:00	2	Temperatura media	19.2
176594	7	Sololá	719	Santiago Atitlán	14	Cerro de Oro	10	Octubre	2023-06-10T00:00:00	2024-11-08T01:00:00	4	Temperatura máxima	19.3
176595	7	Sololá	719	Santiago Atitlán	14	Cerro de Oro	10	Octubre	2023-06-10T00:00:00	2024-11-08T01:00:00	3	Temperatura mínima	18.7
176596	7	Sololá	719	Santiago Atitlán	14	Cerro de Oro	10	Octubre	2023-06-10T00:00:00	2024-11-08T01:00:00	5	Humedad	95
176597	7	Sololá	719	Santiago Atitlán	14	Cerro de Oro	10	Octubre	2023-06-10T00:00:00	2024-11-08T01:00:00	6	Velocidad del viento	1.6
176598	7	Sololá	719	Santiago Atitlán	14	Cerro de Oro	10	Octubre	2023-06-10T00:00:00	2024-11-08T01:00:00	7	Dirección del viento	1.61
176599	7	Sololá	719	Santiago Atitlán	14	Cerro de Oro	10	Octubre	2023-06-10T00:00:00	2024-11-08T01:00:00	1	Precipitación	0
176600	7	Sololá	719	Santiago Atitlán	14	Cerro de Oro	10	Octubre	2023-06-10T00:00:00	2024-11-08T01:00:00	8	Radiación solar	0
176601	7	Sololá	719	Santiago Atitlán	14	Cerro de Oro	10	Octubre	2023-06-10T00:00:00	2024-11-08T02:00:00	2	Temperatura media	17.8
176602	7	Sololá	719	Santiago Atitlán	14	Cerro de Oro	10	Octubre	2023-06-10T00:00:00	2024-11-08T02:00:00	4	Temperatura máxima	19.2
176603	7	Sololá	719	Santiago Atitlán	14	Cerro de Oro	10	Octubre	2023-06-10T00:00:00	2024-11-08T02:00:00	3	Temperatura mínima	17.8
176604	7	Sololá	719	Santiago Atitlán	14	Cerro de Oro	10	Octubre	2023-06-10T00:00:00	2024-11-08T02:00:00	5	Humedad	89
176605	7	Sololá	719	Santiago Atitlán	14	Cerro de Oro	10	Octubre	2023-06-10T00:00:00	2024-11-08T02:00:00	6	Velocidad del viento	1.6
176606	7	Sololá	719	Santiago Atitlán	14	Cerro de Oro	10	Octubre	2023-06-10T00:00:00	2024-11-08T02:00:00	7	Dirección del viento	1.61
176607	7	Sololá	719	Santiago Atitlán	14	Cerro de Oro	10	Octubre	2023-06-10T00:00:00	2024-11-08T02:00:00	1	Precipitación	0
176608	7	Sololá	719	Santiago Atitlán	14	Cerro de Oro	10	Octubre	2023-06-10T00:00:00	2024-11-08T02:00:00	8	Radiación solar	0
176609	7	Sololá	719	Santiago Atitlán	14	Cerro de Oro	10	Octubre	2023-06-10T00:00:00	2024-11-08T03:00:00	2	Temperatura media	17.7
176610	7	Sololá	719	Santiago Atitlán	14	Cerro de Oro	10	Octubre	2023-06-10T00:00:00	2024-11-08T03:00:00	4	Temperatura máxima	18
176611	7	Sololá	719	Santiago Atitlán	14	Cerro de Oro	10	Octubre	2023-06-10T00:00:00	2024-11-08T03:00:00	3	Temperatura mínima	17.7
176612	7	Sololá	719	Santiago Atitlán	14	Cerro de Oro	10	Octubre	2023-06-10T00:00:00	2024-11-08T03:00:00	5	Humedad	88
176613	7	Sololá	719	Santiago Atitlán	14	Cerro de Oro	10	Octubre	2023-06-10T00:00:00	2024-11-08T03:00:00	6	Velocidad del viento	1.6
176614	7	Sololá	719	Santiago Atitlán	14	Cerro de Oro	10	Octubre	2023-06-10T00:00:00	2024-11-08T03:00:00	7	Dirección del viento	1.61
176615	7	Sololá	719	Santiago Atitlán	14	Cerro de Oro	10	Octubre	2023-06-10T00:00:00	2024-11-08T03:00:00	1	Precipitación	0
176616	7	Sololá	719	Santiago Atitlán	14	Cerro de Oro	10	Octubre	2023-06-10T00:00:00	2024-11-08T03:00:00	8	Radiación solar	0
176617	7	Sololá	719	Santiago Atitlán	14	Cerro de Oro	10	Octubre	2023-06-10T00:00:00	2024-11-08T04:00:00	2	Temperatura media	16.9
176618	7	Sololá	719	Santiago Atitlán	14	Cerro de Oro	10	Octubre	2023-06-10T00:00:00	2024-11-08T04:00:00	4	Temperatura máxima	17.7
176619	7	Sololá	719	Santiago Atitlán	14	Cerro de Oro	10	Octubre	2023-06-10T00:00:00	2024-11-08T04:00:00	3	Temperatura mínima	16.9
176620	7	Sololá	719	Santiago Atitlán	14	Cerro de Oro	10	Octubre	2023-06-10T00:00:00	2024-11-08T04:00:00	5	Humedad	91
176621	7	Sololá	719	Santiago Atitlán	14	Cerro de Oro	10	Octubre	2023-06-10T00:00:00	2024-11-08T04:00:00	6	Velocidad del viento	3.2
176622	7	Sololá	719	Santiago Atitlán	14	Cerro de Oro	10	Octubre	2023-06-10T00:00:00	2024-11-08T04:00:00	7	Dirección del viento	3.22
176623	7	Sololá	719	Santiago Atitlán	14	Cerro de Oro	10	Octubre	2023-06-10T00:00:00	2024-11-08T04:00:00	1	Precipitación	0
176624	7	Sololá	719	Santiago Atitlán	14	Cerro de Oro	10	Octubre	2023-06-10T00:00:00	2024-11-08T04:00:00	8	Radiación solar	0
176625	7	Sololá	719	Santiago Atitlán	14	Cerro de Oro	10	Octubre	2023-06-10T00:00:00	2024-11-08T05:00:00	2	Temperatura media	16.5
176626	7	Sololá	719	Santiago Atitlán	14	Cerro de Oro	10	Octubre	2023-06-10T00:00:00	2024-11-08T05:00:00	4	Temperatura máxima	17
176627	7	Sololá	719	Santiago Atitlán	14	Cerro de Oro	10	Octubre	2023-06-10T00:00:00	2024-11-08T05:00:00	3	Temperatura mínima	16.5
176628	7	Sololá	719	Santiago Atitlán	14	Cerro de Oro	10	Octubre	2023-06-10T00:00:00	2024-11-08T05:00:00	5	Humedad	93
176629	7	Sololá	719	Santiago Atitlán	14	Cerro de Oro	10	Octubre	2023-06-10T00:00:00	2024-11-08T05:00:00	6	Velocidad del viento	1.6
176630	7	Sololá	719	Santiago Atitlán	14	Cerro de Oro	10	Octubre	2023-06-10T00:00:00	2024-11-08T05:00:00	7	Dirección del viento	1.61
176631	7	Sololá	719	Santiago Atitlán	14	Cerro de Oro	10	Octubre	2023-06-10T00:00:00	2024-11-08T05:00:00	1	Precipitación	0
176632	7	Sololá	719	Santiago Atitlán	14	Cerro de Oro	10	Octubre	2023-06-10T00:00:00	2024-11-08T05:00:00	8	Radiación solar	0
176633	7	Sololá	719	Santiago Atitlán	14	Cerro de Oro	10	Octubre	2023-06-10T00:00:00	2024-11-08T06:00:00	2	Temperatura media	17.1
176634	7	Sololá	719	Santiago Atitlán	14	Cerro de Oro	10	Octubre	2023-06-10T00:00:00	2024-11-08T06:00:00	4	Temperatura máxima	17.1
176635	7	Sololá	719	Santiago Atitlán	14	Cerro de Oro	10	Octubre	2023-06-10T00:00:00	2024-11-08T06:00:00	3	Temperatura mínima	16.4
176636	7	Sololá	719	Santiago Atitlán	14	Cerro de Oro	10	Octubre	2023-06-10T00:00:00	2024-11-08T06:00:00	5	Humedad	92
176637	7	Sololá	719	Santiago Atitlán	14	Cerro de Oro	10	Octubre	2023-06-10T00:00:00	2024-11-08T06:00:00	6	Velocidad del viento	1.6
176638	7	Sololá	719	Santiago Atitlán	14	Cerro de Oro	10	Octubre	2023-06-10T00:00:00	2024-11-08T06:00:00	7	Dirección del viento	1.61
176639	7	Sololá	719	Santiago Atitlán	14	Cerro de Oro	10	Octubre	2023-06-10T00:00:00	2024-11-08T06:00:00	1	Precipitación	0
176640	7	Sololá	719	Santiago Atitlán	14	Cerro de Oro	10	Octubre	2023-06-10T00:00:00	2024-11-08T06:00:00	8	Radiación solar	1
176641	7	Sololá	719	Santiago Atitlán	14	Cerro de Oro	10	Octubre	2023-06-10T00:00:00	2024-11-08T07:00:00	2	Temperatura media	18.7
176642	7	Sololá	719	Santiago Atitlán	14	Cerro de Oro	10	Octubre	2023-06-10T00:00:00	2024-11-08T07:00:00	4	Temperatura máxima	18.7
176643	7	Sololá	719	Santiago Atitlán	14	Cerro de Oro	10	Octubre	2023-06-10T00:00:00	2024-11-08T07:00:00	3	Temperatura mínima	17.1
176644	7	Sololá	719	Santiago Atitlán	14	Cerro de Oro	10	Octubre	2023-06-10T00:00:00	2024-11-08T07:00:00	5	Humedad	91
176645	7	Sololá	719	Santiago Atitlán	14	Cerro de Oro	10	Octubre	2023-06-10T00:00:00	2024-11-08T07:00:00	6	Velocidad del viento	0
176646	7	Sololá	719	Santiago Atitlán	14	Cerro de Oro	10	Octubre	2023-06-10T00:00:00	2024-11-08T07:00:00	7	Dirección del viento	0
176647	7	Sololá	719	Santiago Atitlán	14	Cerro de Oro	10	Octubre	2023-06-10T00:00:00	2024-11-08T07:00:00	1	Precipitación	0
176648	7	Sololá	719	Santiago Atitlán	14	Cerro de Oro	10	Octubre	2023-06-10T00:00:00	2024-11-08T07:00:00	8	Radiación solar	72
176649	7	Sololá	719	Santiago Atitlán	14	Cerro de Oro	10	Octubre	2023-06-10T00:00:00	2024-11-08T08:00:00	2	Temperatura media	21.8
176650	7	Sololá	719	Santiago Atitlán	14	Cerro de Oro	10	Octubre	2023-06-10T00:00:00	2024-11-08T08:00:00	4	Temperatura máxima	21.8
176651	7	Sololá	719	Santiago Atitlán	14	Cerro de Oro	10	Octubre	2023-06-10T00:00:00	2024-11-08T08:00:00	3	Temperatura mínima	18.7
176652	7	Sololá	719	Santiago Atitlán	14	Cerro de Oro	10	Octubre	2023-06-10T00:00:00	2024-11-08T08:00:00	5	Humedad	81
176653	7	Sololá	719	Santiago Atitlán	14	Cerro de Oro	10	Octubre	2023-06-10T00:00:00	2024-11-08T08:00:00	6	Velocidad del viento	0
176654	7	Sololá	719	Santiago Atitlán	14	Cerro de Oro	10	Octubre	2023-06-10T00:00:00	2024-11-08T08:00:00	7	Dirección del viento	0
176655	7	Sololá	719	Santiago Atitlán	14	Cerro de Oro	10	Octubre	2023-06-10T00:00:00	2024-11-08T08:00:00	1	Precipitación	0
176656	7	Sololá	719	Santiago Atitlán	14	Cerro de Oro	10	Octubre	2023-06-10T00:00:00	2024-11-08T08:00:00	8	Radiación solar	305
176657	7	Sololá	719	Santiago Atitlán	14	Cerro de Oro	10	Octubre	2023-06-10T00:00:00	2024-11-08T09:00:00	2	Temperatura media	21.9
176658	7	Sololá	719	Santiago Atitlán	14	Cerro de Oro	10	Octubre	2023-06-10T00:00:00	2024-11-08T09:00:00	4	Temperatura máxima	22.3
176659	7	Sololá	719	Santiago Atitlán	14	Cerro de Oro	10	Octubre	2023-06-10T00:00:00	2024-11-08T09:00:00	3	Temperatura mínima	21.5
176660	7	Sololá	719	Santiago Atitlán	14	Cerro de Oro	10	Octubre	2023-06-10T00:00:00	2024-11-08T09:00:00	5	Humedad	81
176661	7	Sololá	719	Santiago Atitlán	14	Cerro de Oro	10	Octubre	2023-06-10T00:00:00	2024-11-08T09:00:00	6	Velocidad del viento	1.6
176662	7	Sololá	719	Santiago Atitlán	14	Cerro de Oro	10	Octubre	2023-06-10T00:00:00	2024-11-08T09:00:00	7	Dirección del viento	1.61
176663	7	Sololá	719	Santiago Atitlán	14	Cerro de Oro	10	Octubre	2023-06-10T00:00:00	2024-11-08T09:00:00	1	Precipitación	0
176664	7	Sololá	719	Santiago Atitlán	14	Cerro de Oro	10	Octubre	2023-06-10T00:00:00	2024-11-08T09:00:00	8	Radiación solar	528
176665	7	Sololá	719	Santiago Atitlán	14	Cerro de Oro	10	Octubre	2023-06-10T00:00:00	2024-11-08T10:00:00	2	Temperatura media	23
176666	7	Sololá	719	Santiago Atitlán	14	Cerro de Oro	10	Octubre	2023-06-10T00:00:00	2024-11-08T10:00:00	4	Temperatura máxima	23.4
176667	7	Sololá	719	Santiago Atitlán	14	Cerro de Oro	10	Octubre	2023-06-10T00:00:00	2024-11-08T10:00:00	3	Temperatura mínima	21.9
176668	7	Sololá	719	Santiago Atitlán	14	Cerro de Oro	10	Octubre	2023-06-10T00:00:00	2024-11-08T10:00:00	5	Humedad	82
176669	7	Sololá	719	Santiago Atitlán	14	Cerro de Oro	10	Octubre	2023-06-10T00:00:00	2024-11-08T10:00:00	6	Velocidad del viento	3.2
176670	7	Sololá	719	Santiago Atitlán	14	Cerro de Oro	10	Octubre	2023-06-10T00:00:00	2024-11-08T10:00:00	7	Dirección del viento	3.22
176671	7	Sololá	719	Santiago Atitlán	14	Cerro de Oro	10	Octubre	2023-06-10T00:00:00	2024-11-08T10:00:00	1	Precipitación	0
176672	7	Sololá	719	Santiago Atitlán	14	Cerro de Oro	10	Octubre	2023-06-10T00:00:00	2024-11-08T10:00:00	8	Radiación solar	724
176673	7	Sololá	719	Santiago Atitlán	14	Cerro de Oro	10	Octubre	2023-06-10T00:00:00	2024-11-08T11:00:00	2	Temperatura media	23.8
176674	7	Sololá	719	Santiago Atitlán	14	Cerro de Oro	10	Octubre	2023-06-10T00:00:00	2024-11-08T11:00:00	4	Temperatura máxima	23.9
176675	7	Sololá	719	Santiago Atitlán	14	Cerro de Oro	10	Octubre	2023-06-10T00:00:00	2024-11-08T11:00:00	3	Temperatura mínima	22.9
176676	7	Sololá	719	Santiago Atitlán	14	Cerro de Oro	10	Octubre	2023-06-10T00:00:00	2024-11-08T11:00:00	5	Humedad	78
176677	7	Sololá	719	Santiago Atitlán	14	Cerro de Oro	10	Octubre	2023-06-10T00:00:00	2024-11-08T11:00:00	6	Velocidad del viento	3.2
176678	7	Sololá	719	Santiago Atitlán	14	Cerro de Oro	10	Octubre	2023-06-10T00:00:00	2024-11-08T11:00:00	7	Dirección del viento	3.22
176679	7	Sololá	719	Santiago Atitlán	14	Cerro de Oro	10	Octubre	2023-06-10T00:00:00	2024-11-08T11:00:00	1	Precipitación	0
176680	7	Sololá	719	Santiago Atitlán	14	Cerro de Oro	10	Octubre	2023-06-10T00:00:00	2024-11-08T11:00:00	8	Radiación solar	857
176681	7	Sololá	719	Santiago Atitlán	14	Cerro de Oro	10	Octubre	2023-06-10T00:00:00	2024-11-08T12:00:00	2	Temperatura media	24.7
176682	7	Sololá	719	Santiago Atitlán	14	Cerro de Oro	10	Octubre	2023-06-10T00:00:00	2024-11-08T12:00:00	4	Temperatura máxima	24.7
176683	7	Sololá	719	Santiago Atitlán	14	Cerro de Oro	10	Octubre	2023-06-10T00:00:00	2024-11-08T12:00:00	3	Temperatura mínima	23.8
176684	7	Sololá	719	Santiago Atitlán	14	Cerro de Oro	10	Octubre	2023-06-10T00:00:00	2024-11-08T12:00:00	5	Humedad	77
176685	7	Sololá	719	Santiago Atitlán	14	Cerro de Oro	10	Octubre	2023-06-10T00:00:00	2024-11-08T12:00:00	6	Velocidad del viento	3.2
176686	7	Sololá	719	Santiago Atitlán	14	Cerro de Oro	10	Octubre	2023-06-10T00:00:00	2024-11-08T12:00:00	7	Dirección del viento	3.22
176687	7	Sololá	719	Santiago Atitlán	14	Cerro de Oro	10	Octubre	2023-06-10T00:00:00	2024-11-08T12:00:00	1	Precipitación	0
176688	7	Sololá	719	Santiago Atitlán	14	Cerro de Oro	10	Octubre	2023-06-10T00:00:00	2024-11-08T12:00:00	8	Radiación solar	918
176689	7	Sololá	719	Santiago Atitlán	14	Cerro de Oro	10	Octubre	2023-06-10T00:00:00	2024-11-08T13:00:00	2	Temperatura media	24
176690	7	Sololá	719	Santiago Atitlán	14	Cerro de Oro	10	Octubre	2023-06-10T00:00:00	2024-11-08T13:00:00	4	Temperatura máxima	25.3
176691	7	Sololá	719	Santiago Atitlán	14	Cerro de Oro	10	Octubre	2023-06-10T00:00:00	2024-11-08T13:00:00	3	Temperatura mínima	24
176692	7	Sololá	719	Santiago Atitlán	14	Cerro de Oro	10	Octubre	2023-06-10T00:00:00	2024-11-08T13:00:00	5	Humedad	81
176693	7	Sololá	719	Santiago Atitlán	14	Cerro de Oro	10	Octubre	2023-06-10T00:00:00	2024-11-08T13:00:00	6	Velocidad del viento	3.2
176694	7	Sololá	719	Santiago Atitlán	14	Cerro de Oro	10	Octubre	2023-06-10T00:00:00	2024-11-08T13:00:00	7	Dirección del viento	3.22
176695	7	Sololá	719	Santiago Atitlán	14	Cerro de Oro	10	Octubre	2023-06-10T00:00:00	2024-11-08T13:00:00	1	Precipitación	0
176696	7	Sololá	719	Santiago Atitlán	14	Cerro de Oro	10	Octubre	2023-06-10T00:00:00	2024-11-08T13:00:00	8	Radiación solar	693
176697	7	Sololá	719	Santiago Atitlán	14	Cerro de Oro	10	Octubre	2023-06-10T00:00:00	2024-11-08T14:00:00	2	Temperatura media	23.5
176698	7	Sololá	719	Santiago Atitlán	14	Cerro de Oro	10	Octubre	2023-06-10T00:00:00	2024-11-08T14:00:00	4	Temperatura máxima	24
176699	7	Sololá	719	Santiago Atitlán	14	Cerro de Oro	10	Octubre	2023-06-10T00:00:00	2024-11-08T14:00:00	3	Temperatura mínima	22.8
176700	7	Sololá	719	Santiago Atitlán	14	Cerro de Oro	10	Octubre	2023-06-10T00:00:00	2024-11-08T14:00:00	5	Humedad	84
176701	7	Sololá	719	Santiago Atitlán	14	Cerro de Oro	10	Octubre	2023-06-10T00:00:00	2024-11-08T14:00:00	6	Velocidad del viento	4.8
176702	7	Sololá	719	Santiago Atitlán	14	Cerro de Oro	10	Octubre	2023-06-10T00:00:00	2024-11-08T14:00:00	7	Dirección del viento	4.83
176703	7	Sololá	719	Santiago Atitlán	14	Cerro de Oro	10	Octubre	2023-06-10T00:00:00	2024-11-08T14:00:00	1	Precipitación	0
176704	7	Sololá	719	Santiago Atitlán	14	Cerro de Oro	10	Octubre	2023-06-10T00:00:00	2024-11-08T14:00:00	8	Radiación solar	327
176705	7	Sololá	719	Santiago Atitlán	14	Cerro de Oro	10	Octubre	2023-06-10T00:00:00	2024-11-08T15:00:00	2	Temperatura media	24.4
176706	7	Sololá	719	Santiago Atitlán	14	Cerro de Oro	10	Octubre	2023-06-10T00:00:00	2024-11-08T15:00:00	4	Temperatura máxima	24.7
176707	7	Sololá	719	Santiago Atitlán	14	Cerro de Oro	10	Octubre	2023-06-10T00:00:00	2024-11-08T15:00:00	3	Temperatura mínima	23.5
176708	7	Sololá	719	Santiago Atitlán	14	Cerro de Oro	10	Octubre	2023-06-10T00:00:00	2024-11-08T15:00:00	5	Humedad	82
176709	7	Sololá	719	Santiago Atitlán	14	Cerro de Oro	10	Octubre	2023-06-10T00:00:00	2024-11-08T15:00:00	6	Velocidad del viento	4.8
176710	7	Sololá	719	Santiago Atitlán	14	Cerro de Oro	10	Octubre	2023-06-10T00:00:00	2024-11-08T15:00:00	7	Dirección del viento	4.83
176711	7	Sololá	719	Santiago Atitlán	14	Cerro de Oro	10	Octubre	2023-06-10T00:00:00	2024-11-08T15:00:00	1	Precipitación	0
176712	7	Sololá	719	Santiago Atitlán	14	Cerro de Oro	10	Octubre	2023-06-10T00:00:00	2024-11-08T15:00:00	8	Radiación solar	677
176713	7	Sololá	719	Santiago Atitlán	14	Cerro de Oro	10	Octubre	2023-06-10T00:00:00	2024-11-08T16:00:00	2	Temperatura media	23.6
176714	7	Sololá	719	Santiago Atitlán	14	Cerro de Oro	10	Octubre	2023-06-10T00:00:00	2024-11-08T16:00:00	4	Temperatura máxima	24.5
176715	7	Sololá	719	Santiago Atitlán	14	Cerro de Oro	10	Octubre	2023-06-10T00:00:00	2024-11-08T16:00:00	3	Temperatura mínima	23.2
176716	7	Sololá	719	Santiago Atitlán	14	Cerro de Oro	10	Octubre	2023-06-10T00:00:00	2024-11-08T16:00:00	5	Humedad	84
176717	7	Sololá	719	Santiago Atitlán	14	Cerro de Oro	10	Octubre	2023-06-10T00:00:00	2024-11-08T16:00:00	6	Velocidad del viento	3.2
176718	7	Sololá	719	Santiago Atitlán	14	Cerro de Oro	10	Octubre	2023-06-10T00:00:00	2024-11-08T16:00:00	7	Dirección del viento	3.22
176719	7	Sololá	719	Santiago Atitlán	14	Cerro de Oro	10	Octubre	2023-06-10T00:00:00	2024-11-08T16:00:00	1	Precipitación	0
176720	7	Sololá	719	Santiago Atitlán	14	Cerro de Oro	10	Octubre	2023-06-10T00:00:00	2024-11-08T16:00:00	8	Radiación solar	213
176721	7	Sololá	719	Santiago Atitlán	14	Cerro de Oro	10	Octubre	2023-06-10T00:00:00	2024-11-08T17:00:00	2	Temperatura media	22.6
176722	7	Sololá	719	Santiago Atitlán	14	Cerro de Oro	10	Octubre	2023-06-10T00:00:00	2024-11-08T17:00:00	4	Temperatura máxima	23.7
176723	7	Sololá	719	Santiago Atitlán	14	Cerro de Oro	10	Octubre	2023-06-10T00:00:00	2024-11-08T17:00:00	3	Temperatura mínima	22.4
176724	7	Sololá	719	Santiago Atitlán	14	Cerro de Oro	10	Octubre	2023-06-10T00:00:00	2024-11-08T17:00:00	5	Humedad	87
176725	7	Sololá	719	Santiago Atitlán	14	Cerro de Oro	10	Octubre	2023-06-10T00:00:00	2024-11-08T17:00:00	6	Velocidad del viento	3.2
176726	7	Sololá	719	Santiago Atitlán	14	Cerro de Oro	10	Octubre	2023-06-10T00:00:00	2024-11-08T17:00:00	7	Dirección del viento	3.22
176727	7	Sololá	719	Santiago Atitlán	14	Cerro de Oro	10	Octubre	2023-06-10T00:00:00	2024-11-08T17:00:00	1	Precipitación	0
176728	7	Sololá	719	Santiago Atitlán	14	Cerro de Oro	10	Octubre	2023-06-10T00:00:00	2024-11-08T17:00:00	8	Radiación solar	113
176729	7	Sololá	719	Santiago Atitlán	14	Cerro de Oro	10	Octubre	2023-06-10T00:00:00	2024-11-08T18:00:00	2	Temperatura media	21.4
176730	7	Sololá	719	Santiago Atitlán	14	Cerro de Oro	10	Octubre	2023-06-10T00:00:00	2024-11-08T18:00:00	4	Temperatura máxima	22.7
176731	7	Sololá	719	Santiago Atitlán	14	Cerro de Oro	10	Octubre	2023-06-10T00:00:00	2024-11-08T18:00:00	3	Temperatura mínima	21.3
176732	7	Sololá	719	Santiago Atitlán	14	Cerro de Oro	10	Octubre	2023-06-10T00:00:00	2024-11-08T18:00:00	5	Humedad	91
176733	7	Sololá	719	Santiago Atitlán	14	Cerro de Oro	10	Octubre	2023-06-10T00:00:00	2024-11-08T18:00:00	6	Velocidad del viento	1.6
176734	7	Sololá	719	Santiago Atitlán	14	Cerro de Oro	10	Octubre	2023-06-10T00:00:00	2024-11-08T18:00:00	7	Dirección del viento	1.61
176735	7	Sololá	719	Santiago Atitlán	14	Cerro de Oro	10	Octubre	2023-06-10T00:00:00	2024-11-08T18:00:00	1	Precipitación	0
176736	7	Sololá	719	Santiago Atitlán	14	Cerro de Oro	10	Octubre	2023-06-10T00:00:00	2024-11-08T18:00:00	8	Radiación solar	9
176737	7	Sololá	719	Santiago Atitlán	14	Cerro de Oro	10	Octubre	2023-06-10T00:00:00	2024-11-08T19:00:00	2	Temperatura media	21.2
176738	7	Sololá	719	Santiago Atitlán	14	Cerro de Oro	10	Octubre	2023-06-10T00:00:00	2024-11-08T19:00:00	4	Temperatura máxima	21.5
176739	7	Sololá	719	Santiago Atitlán	14	Cerro de Oro	10	Octubre	2023-06-10T00:00:00	2024-11-08T19:00:00	3	Temperatura mínima	21.2
176740	7	Sololá	719	Santiago Atitlán	14	Cerro de Oro	10	Octubre	2023-06-10T00:00:00	2024-11-08T19:00:00	5	Humedad	89
176741	7	Sololá	719	Santiago Atitlán	14	Cerro de Oro	10	Octubre	2023-06-10T00:00:00	2024-11-08T19:00:00	6	Velocidad del viento	1.6
176742	7	Sololá	719	Santiago Atitlán	14	Cerro de Oro	10	Octubre	2023-06-10T00:00:00	2024-11-08T19:00:00	7	Dirección del viento	1.61
176743	7	Sololá	719	Santiago Atitlán	14	Cerro de Oro	10	Octubre	2023-06-10T00:00:00	2024-11-08T19:00:00	1	Precipitación	0
176744	7	Sololá	719	Santiago Atitlán	14	Cerro de Oro	10	Octubre	2023-06-10T00:00:00	2024-11-08T19:00:00	8	Radiación solar	0
176745	7	Sololá	719	Santiago Atitlán	14	Cerro de Oro	10	Octubre	2023-06-10T00:00:00	2024-11-08T20:00:00	2	Temperatura media	20.1
176746	7	Sololá	719	Santiago Atitlán	14	Cerro de Oro	10	Octubre	2023-06-10T00:00:00	2024-11-08T20:00:00	4	Temperatura máxima	21.2
176747	7	Sololá	719	Santiago Atitlán	14	Cerro de Oro	10	Octubre	2023-06-10T00:00:00	2024-11-08T20:00:00	3	Temperatura mínima	20.1
176748	7	Sololá	719	Santiago Atitlán	14	Cerro de Oro	10	Octubre	2023-06-10T00:00:00	2024-11-08T20:00:00	5	Humedad	94
176749	7	Sololá	719	Santiago Atitlán	14	Cerro de Oro	10	Octubre	2023-06-10T00:00:00	2024-11-08T20:00:00	6	Velocidad del viento	3.2
176750	7	Sololá	719	Santiago Atitlán	14	Cerro de Oro	10	Octubre	2023-06-10T00:00:00	2024-11-08T20:00:00	7	Dirección del viento	3.22
176751	7	Sololá	719	Santiago Atitlán	14	Cerro de Oro	10	Octubre	2023-06-10T00:00:00	2024-11-08T20:00:00	1	Precipitación	0
176752	7	Sololá	719	Santiago Atitlán	14	Cerro de Oro	10	Octubre	2023-06-10T00:00:00	2024-11-08T20:00:00	8	Radiación solar	0
176753	7	Sololá	719	Santiago Atitlán	14	Cerro de Oro	10	Octubre	2023-06-10T00:00:00	2024-11-08T21:00:00	2	Temperatura media	19.4
176754	7	Sololá	719	Santiago Atitlán	14	Cerro de Oro	10	Octubre	2023-06-10T00:00:00	2024-11-08T21:00:00	4	Temperatura máxima	20.1
176755	7	Sololá	719	Santiago Atitlán	14	Cerro de Oro	10	Octubre	2023-06-10T00:00:00	2024-11-08T21:00:00	3	Temperatura mínima	19.4
176756	7	Sololá	719	Santiago Atitlán	14	Cerro de Oro	10	Octubre	2023-06-10T00:00:00	2024-11-08T21:00:00	5	Humedad	93
176757	7	Sololá	719	Santiago Atitlán	14	Cerro de Oro	10	Octubre	2023-06-10T00:00:00	2024-11-08T21:00:00	6	Velocidad del viento	1.6
176758	7	Sololá	719	Santiago Atitlán	14	Cerro de Oro	10	Octubre	2023-06-10T00:00:00	2024-11-08T21:00:00	7	Dirección del viento	1.61
176759	7	Sololá	719	Santiago Atitlán	14	Cerro de Oro	10	Octubre	2023-06-10T00:00:00	2024-11-08T21:00:00	1	Precipitación	0
176760	7	Sololá	719	Santiago Atitlán	14	Cerro de Oro	10	Octubre	2023-06-10T00:00:00	2024-11-08T21:00:00	8	Radiación solar	0
176761	7	Sololá	719	Santiago Atitlán	14	Cerro de Oro	10	Octubre	2023-06-10T00:00:00	2024-11-08T22:00:00	2	Temperatura media	19.4
176762	7	Sololá	719	Santiago Atitlán	14	Cerro de Oro	10	Octubre	2023-06-10T00:00:00	2024-11-08T22:00:00	4	Temperatura máxima	19.5
176763	7	Sololá	719	Santiago Atitlán	14	Cerro de Oro	10	Octubre	2023-06-10T00:00:00	2024-11-08T22:00:00	3	Temperatura mínima	19.3
176764	7	Sololá	719	Santiago Atitlán	14	Cerro de Oro	10	Octubre	2023-06-10T00:00:00	2024-11-08T22:00:00	5	Humedad	93
176765	7	Sololá	719	Santiago Atitlán	14	Cerro de Oro	10	Octubre	2023-06-10T00:00:00	2024-11-08T22:00:00	6	Velocidad del viento	0
176766	7	Sololá	719	Santiago Atitlán	14	Cerro de Oro	10	Octubre	2023-06-10T00:00:00	2024-11-08T22:00:00	7	Dirección del viento	0
176767	7	Sololá	719	Santiago Atitlán	14	Cerro de Oro	10	Octubre	2023-06-10T00:00:00	2024-11-08T22:00:00	1	Precipitación	0
176768	7	Sololá	719	Santiago Atitlán	14	Cerro de Oro	10	Octubre	2023-06-10T00:00:00	2024-11-08T22:00:00	8	Radiación solar	0
176769	7	Sololá	719	Santiago Atitlán	14	Cerro de Oro	10	Octubre	2023-06-10T00:00:00	2024-11-08T23:00:00	2	Temperatura media	19.2
176770	7	Sololá	719	Santiago Atitlán	14	Cerro de Oro	10	Octubre	2023-06-10T00:00:00	2024-11-08T23:00:00	4	Temperatura máxima	19.5
176771	7	Sololá	719	Santiago Atitlán	14	Cerro de Oro	10	Octubre	2023-06-10T00:00:00	2024-11-08T23:00:00	3	Temperatura mínima	19.2
176772	7	Sololá	719	Santiago Atitlán	14	Cerro de Oro	10	Octubre	2023-06-10T00:00:00	2024-11-08T23:00:00	5	Humedad	94
176773	7	Sololá	719	Santiago Atitlán	14	Cerro de Oro	10	Octubre	2023-06-10T00:00:00	2024-11-08T23:00:00	6	Velocidad del viento	0
176774	7	Sololá	719	Santiago Atitlán	14	Cerro de Oro	10	Octubre	2023-06-10T00:00:00	2024-11-08T23:00:00	7	Dirección del viento	0
176775	7	Sololá	719	Santiago Atitlán	14	Cerro de Oro	10	Octubre	2023-06-10T00:00:00	2024-11-08T23:00:00	1	Precipitación	3.2
176776	7	Sololá	719	Santiago Atitlán	14	Cerro de Oro	10	Octubre	2023-06-10T00:00:00	2024-11-08T23:00:00	8	Radiación solar	0
176777	7	Sololá	719	Santiago Atitlán	14	Cerro de Oro	10	Octubre	2023-07-10T00:00:00	2024-11-08T00:00:00	2	Temperatura media	18.7
176778	7	Sololá	719	Santiago Atitlán	14	Cerro de Oro	10	Octubre	2023-07-10T00:00:00	2024-11-08T00:00:00	4	Temperatura máxima	19.2
176779	7	Sololá	719	Santiago Atitlán	14	Cerro de Oro	10	Octubre	2023-07-10T00:00:00	2024-11-08T00:00:00	3	Temperatura mínima	18.6
176780	7	Sololá	719	Santiago Atitlán	14	Cerro de Oro	10	Octubre	2023-07-10T00:00:00	2024-11-08T00:00:00	5	Humedad	97
176781	7	Sololá	719	Santiago Atitlán	14	Cerro de Oro	10	Octubre	2023-07-10T00:00:00	2024-11-08T00:00:00	6	Velocidad del viento	0
176782	7	Sololá	719	Santiago Atitlán	14	Cerro de Oro	10	Octubre	2023-07-10T00:00:00	2024-11-08T00:00:00	7	Dirección del viento	0
176783	7	Sololá	719	Santiago Atitlán	14	Cerro de Oro	10	Octubre	2023-07-10T00:00:00	2024-11-08T00:00:00	1	Precipitación	2
176784	7	Sololá	719	Santiago Atitlán	14	Cerro de Oro	10	Octubre	2023-07-10T00:00:00	2024-11-08T00:00:00	8	Radiación solar	0
176785	7	Sololá	719	Santiago Atitlán	14	Cerro de Oro	10	Octubre	2023-07-10T00:00:00	2024-11-08T01:00:00	2	Temperatura media	18.4
176786	7	Sololá	719	Santiago Atitlán	14	Cerro de Oro	10	Octubre	2023-07-10T00:00:00	2024-11-08T01:00:00	4	Temperatura máxima	18.7
176787	7	Sololá	719	Santiago Atitlán	14	Cerro de Oro	10	Octubre	2023-07-10T00:00:00	2024-11-08T01:00:00	3	Temperatura mínima	18.4
176788	7	Sololá	719	Santiago Atitlán	14	Cerro de Oro	10	Octubre	2023-07-10T00:00:00	2024-11-08T01:00:00	5	Humedad	96
176789	7	Sololá	719	Santiago Atitlán	14	Cerro de Oro	10	Octubre	2023-07-10T00:00:00	2024-11-08T01:00:00	6	Velocidad del viento	0
176790	7	Sololá	719	Santiago Atitlán	14	Cerro de Oro	10	Octubre	2023-07-10T00:00:00	2024-11-08T01:00:00	7	Dirección del viento	0
176791	7	Sololá	719	Santiago Atitlán	14	Cerro de Oro	10	Octubre	2023-07-10T00:00:00	2024-11-08T01:00:00	1	Precipitación	0.2
176792	7	Sololá	719	Santiago Atitlán	14	Cerro de Oro	10	Octubre	2023-07-10T00:00:00	2024-11-08T01:00:00	8	Radiación solar	0
176793	7	Sololá	719	Santiago Atitlán	14	Cerro de Oro	10	Octubre	2023-07-10T00:00:00	2024-11-08T02:00:00	2	Temperatura media	18.3
176794	7	Sololá	719	Santiago Atitlán	14	Cerro de Oro	10	Octubre	2023-07-10T00:00:00	2024-11-08T02:00:00	4	Temperatura máxima	18.4
176795	7	Sololá	719	Santiago Atitlán	14	Cerro de Oro	10	Octubre	2023-07-10T00:00:00	2024-11-08T02:00:00	3	Temperatura mínima	18.3
176796	7	Sololá	719	Santiago Atitlán	14	Cerro de Oro	10	Octubre	2023-07-10T00:00:00	2024-11-08T02:00:00	5	Humedad	97
176797	7	Sololá	719	Santiago Atitlán	14	Cerro de Oro	10	Octubre	2023-07-10T00:00:00	2024-11-08T02:00:00	6	Velocidad del viento	0
176798	7	Sololá	719	Santiago Atitlán	14	Cerro de Oro	10	Octubre	2023-07-10T00:00:00	2024-11-08T02:00:00	7	Dirección del viento	0
176799	7	Sololá	719	Santiago Atitlán	14	Cerro de Oro	10	Octubre	2023-07-10T00:00:00	2024-11-08T02:00:00	1	Precipitación	0
176800	7	Sololá	719	Santiago Atitlán	14	Cerro de Oro	10	Octubre	2023-07-10T00:00:00	2024-11-08T02:00:00	8	Radiación solar	0
176801	7	Sololá	719	Santiago Atitlán	14	Cerro de Oro	10	Octubre	2023-07-10T00:00:00	2024-11-08T03:00:00	2	Temperatura media	18.2
176802	7	Sololá	719	Santiago Atitlán	14	Cerro de Oro	10	Octubre	2023-07-10T00:00:00	2024-11-08T03:00:00	4	Temperatura máxima	18.3
176803	7	Sololá	719	Santiago Atitlán	14	Cerro de Oro	10	Octubre	2023-07-10T00:00:00	2024-11-08T03:00:00	3	Temperatura mínima	18.1
176804	7	Sololá	719	Santiago Atitlán	14	Cerro de Oro	10	Octubre	2023-07-10T00:00:00	2024-11-08T03:00:00	5	Humedad	98
176805	7	Sololá	719	Santiago Atitlán	14	Cerro de Oro	10	Octubre	2023-07-10T00:00:00	2024-11-08T03:00:00	6	Velocidad del viento	0
176806	7	Sololá	719	Santiago Atitlán	14	Cerro de Oro	10	Octubre	2023-07-10T00:00:00	2024-11-08T03:00:00	7	Dirección del viento	0
176807	7	Sololá	719	Santiago Atitlán	14	Cerro de Oro	10	Octubre	2023-07-10T00:00:00	2024-11-08T03:00:00	1	Precipitación	0
176808	7	Sololá	719	Santiago Atitlán	14	Cerro de Oro	10	Octubre	2023-07-10T00:00:00	2024-11-08T03:00:00	8	Radiación solar	0
176809	7	Sololá	719	Santiago Atitlán	14	Cerro de Oro	10	Octubre	2023-07-10T00:00:00	2024-11-08T04:00:00	2	Temperatura media	18
176810	7	Sololá	719	Santiago Atitlán	14	Cerro de Oro	10	Octubre	2023-07-10T00:00:00	2024-11-08T04:00:00	4	Temperatura máxima	18.2
176811	7	Sololá	719	Santiago Atitlán	14	Cerro de Oro	10	Octubre	2023-07-10T00:00:00	2024-11-08T04:00:00	3	Temperatura mínima	18
176812	7	Sololá	719	Santiago Atitlán	14	Cerro de Oro	10	Octubre	2023-07-10T00:00:00	2024-11-08T04:00:00	5	Humedad	96
176813	7	Sololá	719	Santiago Atitlán	14	Cerro de Oro	10	Octubre	2023-07-10T00:00:00	2024-11-08T04:00:00	6	Velocidad del viento	1.6
176814	7	Sololá	719	Santiago Atitlán	14	Cerro de Oro	10	Octubre	2023-07-10T00:00:00	2024-11-08T04:00:00	7	Dirección del viento	1.61
176815	7	Sololá	719	Santiago Atitlán	14	Cerro de Oro	10	Octubre	2023-07-10T00:00:00	2024-11-08T04:00:00	1	Precipitación	0
176816	7	Sololá	719	Santiago Atitlán	14	Cerro de Oro	10	Octubre	2023-07-10T00:00:00	2024-11-08T04:00:00	8	Radiación solar	0
176817	7	Sololá	719	Santiago Atitlán	14	Cerro de Oro	10	Octubre	2023-07-10T00:00:00	2024-11-08T05:00:00	2	Temperatura media	17.9
176818	7	Sololá	719	Santiago Atitlán	14	Cerro de Oro	10	Octubre	2023-07-10T00:00:00	2024-11-08T05:00:00	4	Temperatura máxima	18.2
176819	7	Sololá	719	Santiago Atitlán	14	Cerro de Oro	10	Octubre	2023-07-10T00:00:00	2024-11-08T05:00:00	3	Temperatura mínima	17.9
176820	7	Sololá	719	Santiago Atitlán	14	Cerro de Oro	10	Octubre	2023-07-10T00:00:00	2024-11-08T05:00:00	5	Humedad	96
176821	7	Sololá	719	Santiago Atitlán	14	Cerro de Oro	10	Octubre	2023-07-10T00:00:00	2024-11-08T05:00:00	6	Velocidad del viento	1.6
176822	7	Sololá	719	Santiago Atitlán	14	Cerro de Oro	10	Octubre	2023-07-10T00:00:00	2024-11-08T05:00:00	7	Dirección del viento	1.61
176823	7	Sololá	719	Santiago Atitlán	14	Cerro de Oro	10	Octubre	2023-07-10T00:00:00	2024-11-08T05:00:00	1	Precipitación	0
176824	7	Sololá	719	Santiago Atitlán	14	Cerro de Oro	10	Octubre	2023-07-10T00:00:00	2024-11-08T05:00:00	8	Radiación solar	0
176825	7	Sololá	719	Santiago Atitlán	14	Cerro de Oro	10	Octubre	2023-07-10T00:00:00	2024-11-08T06:00:00	2	Temperatura media	18.2
176826	7	Sololá	719	Santiago Atitlán	14	Cerro de Oro	10	Octubre	2023-07-10T00:00:00	2024-11-08T06:00:00	4	Temperatura máxima	18.2
176827	7	Sololá	719	Santiago Atitlán	14	Cerro de Oro	10	Octubre	2023-07-10T00:00:00	2024-11-08T06:00:00	3	Temperatura mínima	17.9
176828	7	Sololá	719	Santiago Atitlán	14	Cerro de Oro	10	Octubre	2023-07-10T00:00:00	2024-11-08T06:00:00	5	Humedad	95
176829	7	Sololá	719	Santiago Atitlán	14	Cerro de Oro	10	Octubre	2023-07-10T00:00:00	2024-11-08T06:00:00	6	Velocidad del viento	1.6
176830	7	Sololá	719	Santiago Atitlán	14	Cerro de Oro	10	Octubre	2023-07-10T00:00:00	2024-11-08T06:00:00	7	Dirección del viento	1.61
176831	7	Sololá	719	Santiago Atitlán	14	Cerro de Oro	10	Octubre	2023-07-10T00:00:00	2024-11-08T06:00:00	1	Precipitación	0
176832	7	Sololá	719	Santiago Atitlán	14	Cerro de Oro	10	Octubre	2023-07-10T00:00:00	2024-11-08T06:00:00	8	Radiación solar	0
176833	7	Sololá	719	Santiago Atitlán	14	Cerro de Oro	10	Octubre	2023-07-10T00:00:00	2024-11-08T07:00:00	2	Temperatura media	18.9
176834	7	Sololá	719	Santiago Atitlán	14	Cerro de Oro	10	Octubre	2023-07-10T00:00:00	2024-11-08T07:00:00	4	Temperatura máxima	18.9
176835	7	Sololá	719	Santiago Atitlán	14	Cerro de Oro	10	Octubre	2023-07-10T00:00:00	2024-11-08T07:00:00	3	Temperatura mínima	18.2
176836	7	Sololá	719	Santiago Atitlán	14	Cerro de Oro	10	Octubre	2023-07-10T00:00:00	2024-11-08T07:00:00	5	Humedad	94
176837	7	Sololá	719	Santiago Atitlán	14	Cerro de Oro	10	Octubre	2023-07-10T00:00:00	2024-11-08T07:00:00	6	Velocidad del viento	1.6
176838	7	Sololá	719	Santiago Atitlán	14	Cerro de Oro	10	Octubre	2023-07-10T00:00:00	2024-11-08T07:00:00	7	Dirección del viento	1.61
176839	7	Sololá	719	Santiago Atitlán	14	Cerro de Oro	10	Octubre	2023-07-10T00:00:00	2024-11-08T07:00:00	1	Precipitación	0
176840	7	Sololá	719	Santiago Atitlán	14	Cerro de Oro	10	Octubre	2023-07-10T00:00:00	2024-11-08T07:00:00	8	Radiación solar	46
176841	7	Sololá	719	Santiago Atitlán	14	Cerro de Oro	10	Octubre	2023-07-10T00:00:00	2024-11-08T08:00:00	2	Temperatura media	20.9
176842	7	Sololá	719	Santiago Atitlán	14	Cerro de Oro	10	Octubre	2023-07-10T00:00:00	2024-11-08T08:00:00	4	Temperatura máxima	20.9
176843	7	Sololá	719	Santiago Atitlán	14	Cerro de Oro	10	Octubre	2023-07-10T00:00:00	2024-11-08T08:00:00	3	Temperatura mínima	18.9
176844	7	Sololá	719	Santiago Atitlán	14	Cerro de Oro	10	Octubre	2023-07-10T00:00:00	2024-11-08T08:00:00	5	Humedad	89
176845	7	Sololá	719	Santiago Atitlán	14	Cerro de Oro	10	Octubre	2023-07-10T00:00:00	2024-11-08T08:00:00	6	Velocidad del viento	0
176846	7	Sololá	719	Santiago Atitlán	14	Cerro de Oro	10	Octubre	2023-07-10T00:00:00	2024-11-08T08:00:00	7	Dirección del viento	0
176847	7	Sololá	719	Santiago Atitlán	14	Cerro de Oro	10	Octubre	2023-07-10T00:00:00	2024-11-08T08:00:00	1	Precipitación	0
176848	7	Sololá	719	Santiago Atitlán	14	Cerro de Oro	10	Octubre	2023-07-10T00:00:00	2024-11-08T08:00:00	8	Radiación solar	163
176849	7	Sololá	719	Santiago Atitlán	14	Cerro de Oro	10	Octubre	2023-07-10T00:00:00	2024-11-08T09:00:00	2	Temperatura media	21.8
176850	7	Sololá	719	Santiago Atitlán	14	Cerro de Oro	10	Octubre	2023-07-10T00:00:00	2024-11-08T09:00:00	4	Temperatura máxima	22.2
176851	7	Sololá	719	Santiago Atitlán	14	Cerro de Oro	10	Octubre	2023-07-10T00:00:00	2024-11-08T09:00:00	3	Temperatura mínima	20.9
176852	7	Sololá	719	Santiago Atitlán	14	Cerro de Oro	10	Octubre	2023-07-10T00:00:00	2024-11-08T09:00:00	5	Humedad	86
176853	7	Sololá	719	Santiago Atitlán	14	Cerro de Oro	10	Octubre	2023-07-10T00:00:00	2024-11-08T09:00:00	6	Velocidad del viento	1.6
176854	7	Sololá	719	Santiago Atitlán	14	Cerro de Oro	10	Octubre	2023-07-10T00:00:00	2024-11-08T09:00:00	7	Dirección del viento	1.61
176855	7	Sololá	719	Santiago Atitlán	14	Cerro de Oro	10	Octubre	2023-07-10T00:00:00	2024-11-08T09:00:00	1	Precipitación	0.2
176856	7	Sololá	719	Santiago Atitlán	14	Cerro de Oro	10	Octubre	2023-07-10T00:00:00	2024-11-08T09:00:00	8	Radiación solar	374
176857	7	Sololá	719	Santiago Atitlán	14	Cerro de Oro	10	Octubre	2023-07-10T00:00:00	2024-11-08T10:00:00	2	Temperatura media	23
176858	7	Sololá	719	Santiago Atitlán	14	Cerro de Oro	10	Octubre	2023-07-10T00:00:00	2024-11-08T10:00:00	4	Temperatura máxima	23.2
176859	7	Sololá	719	Santiago Atitlán	14	Cerro de Oro	10	Octubre	2023-07-10T00:00:00	2024-11-08T10:00:00	3	Temperatura mínima	21.8
176860	7	Sololá	719	Santiago Atitlán	14	Cerro de Oro	10	Octubre	2023-07-10T00:00:00	2024-11-08T10:00:00	5	Humedad	80
176861	7	Sololá	719	Santiago Atitlán	14	Cerro de Oro	10	Octubre	2023-07-10T00:00:00	2024-11-08T10:00:00	6	Velocidad del viento	3.2
176862	7	Sololá	719	Santiago Atitlán	14	Cerro de Oro	10	Octubre	2023-07-10T00:00:00	2024-11-08T10:00:00	7	Dirección del viento	3.22
176863	7	Sololá	719	Santiago Atitlán	14	Cerro de Oro	10	Octubre	2023-07-10T00:00:00	2024-11-08T10:00:00	1	Precipitación	0
176864	7	Sololá	719	Santiago Atitlán	14	Cerro de Oro	10	Octubre	2023-07-10T00:00:00	2024-11-08T10:00:00	8	Radiación solar	715
176865	7	Sololá	719	Santiago Atitlán	14	Cerro de Oro	10	Octubre	2023-07-10T00:00:00	2024-11-08T11:00:00	2	Temperatura media	23.3
176866	7	Sololá	719	Santiago Atitlán	14	Cerro de Oro	10	Octubre	2023-07-10T00:00:00	2024-11-08T11:00:00	4	Temperatura máxima	23.9
176867	7	Sololá	719	Santiago Atitlán	14	Cerro de Oro	10	Octubre	2023-07-10T00:00:00	2024-11-08T11:00:00	3	Temperatura mínima	23
176868	7	Sololá	719	Santiago Atitlán	14	Cerro de Oro	10	Octubre	2023-07-10T00:00:00	2024-11-08T11:00:00	5	Humedad	79
176869	7	Sololá	719	Santiago Atitlán	14	Cerro de Oro	10	Octubre	2023-07-10T00:00:00	2024-11-08T11:00:00	6	Velocidad del viento	3.2
176870	7	Sololá	719	Santiago Atitlán	14	Cerro de Oro	10	Octubre	2023-07-10T00:00:00	2024-11-08T11:00:00	7	Dirección del viento	3.22
176871	7	Sololá	719	Santiago Atitlán	14	Cerro de Oro	10	Octubre	2023-07-10T00:00:00	2024-11-08T11:00:00	1	Precipitación	0
176872	7	Sololá	719	Santiago Atitlán	14	Cerro de Oro	10	Octubre	2023-07-10T00:00:00	2024-11-08T11:00:00	8	Radiación solar	825
176873	7	Sololá	719	Santiago Atitlán	14	Cerro de Oro	10	Octubre	2023-07-10T00:00:00	2024-11-08T12:00:00	2	Temperatura media	25.3
176874	7	Sololá	719	Santiago Atitlán	14	Cerro de Oro	10	Octubre	2023-07-10T00:00:00	2024-11-08T12:00:00	4	Temperatura máxima	25.7
176875	7	Sololá	719	Santiago Atitlán	14	Cerro de Oro	10	Octubre	2023-07-10T00:00:00	2024-11-08T12:00:00	3	Temperatura mínima	23.2
176876	7	Sololá	719	Santiago Atitlán	14	Cerro de Oro	10	Octubre	2023-07-10T00:00:00	2024-11-08T12:00:00	5	Humedad	71
176877	7	Sololá	719	Santiago Atitlán	14	Cerro de Oro	10	Octubre	2023-07-10T00:00:00	2024-11-08T12:00:00	6	Velocidad del viento	3.2
176878	7	Sololá	719	Santiago Atitlán	14	Cerro de Oro	10	Octubre	2023-07-10T00:00:00	2024-11-08T12:00:00	7	Dirección del viento	3.22
176879	7	Sololá	719	Santiago Atitlán	14	Cerro de Oro	10	Octubre	2023-07-10T00:00:00	2024-11-08T12:00:00	1	Precipitación	0
176880	7	Sololá	719	Santiago Atitlán	14	Cerro de Oro	10	Octubre	2023-07-10T00:00:00	2024-11-08T12:00:00	8	Radiación solar	870
176881	7	Sololá	719	Santiago Atitlán	14	Cerro de Oro	10	Octubre	2023-07-10T00:00:00	2024-11-08T13:00:00	2	Temperatura media	25.2
176882	7	Sololá	719	Santiago Atitlán	14	Cerro de Oro	10	Octubre	2023-07-10T00:00:00	2024-11-08T13:00:00	4	Temperatura máxima	25.7
176883	7	Sololá	719	Santiago Atitlán	14	Cerro de Oro	10	Octubre	2023-07-10T00:00:00	2024-11-08T13:00:00	3	Temperatura mínima	25.2
176884	7	Sololá	719	Santiago Atitlán	14	Cerro de Oro	10	Octubre	2023-07-10T00:00:00	2024-11-08T13:00:00	5	Humedad	82
176885	7	Sololá	719	Santiago Atitlán	14	Cerro de Oro	10	Octubre	2023-07-10T00:00:00	2024-11-08T13:00:00	6	Velocidad del viento	3.2
176886	7	Sololá	719	Santiago Atitlán	14	Cerro de Oro	10	Octubre	2023-07-10T00:00:00	2024-11-08T13:00:00	7	Dirección del viento	3.22
176887	7	Sololá	719	Santiago Atitlán	14	Cerro de Oro	10	Octubre	2023-07-10T00:00:00	2024-11-08T13:00:00	1	Precipitación	0
176888	7	Sololá	719	Santiago Atitlán	14	Cerro de Oro	10	Octubre	2023-07-10T00:00:00	2024-11-08T13:00:00	8	Radiación solar	778
176889	7	Sololá	719	Santiago Atitlán	14	Cerro de Oro	10	Octubre	2023-07-10T00:00:00	2024-11-08T14:00:00	2	Temperatura media	25.6
176890	7	Sololá	719	Santiago Atitlán	14	Cerro de Oro	10	Octubre	2023-07-10T00:00:00	2024-11-08T14:00:00	4	Temperatura máxima	25.7
176891	7	Sololá	719	Santiago Atitlán	14	Cerro de Oro	10	Octubre	2023-07-10T00:00:00	2024-11-08T14:00:00	3	Temperatura mínima	25.2
176892	7	Sololá	719	Santiago Atitlán	14	Cerro de Oro	10	Octubre	2023-07-10T00:00:00	2024-11-08T14:00:00	5	Humedad	82
176893	7	Sololá	719	Santiago Atitlán	14	Cerro de Oro	10	Octubre	2023-07-10T00:00:00	2024-11-08T14:00:00	6	Velocidad del viento	4.8
176894	7	Sololá	719	Santiago Atitlán	14	Cerro de Oro	10	Octubre	2023-07-10T00:00:00	2024-11-08T14:00:00	7	Dirección del viento	4.83
176895	7	Sololá	719	Santiago Atitlán	14	Cerro de Oro	10	Octubre	2023-07-10T00:00:00	2024-11-08T14:00:00	1	Precipitación	0
176896	7	Sololá	719	Santiago Atitlán	14	Cerro de Oro	10	Octubre	2023-07-10T00:00:00	2024-11-08T14:00:00	8	Radiación solar	825
176897	7	Sololá	719	Santiago Atitlán	14	Cerro de Oro	10	Octubre	2023-07-10T00:00:00	2024-11-08T15:00:00	2	Temperatura media	22.9
176898	7	Sololá	719	Santiago Atitlán	14	Cerro de Oro	10	Octubre	2023-07-10T00:00:00	2024-11-08T15:00:00	4	Temperatura máxima	25.6
176899	7	Sololá	719	Santiago Atitlán	14	Cerro de Oro	10	Octubre	2023-07-10T00:00:00	2024-11-08T15:00:00	3	Temperatura mínima	22.9
176900	7	Sololá	719	Santiago Atitlán	14	Cerro de Oro	10	Octubre	2023-07-10T00:00:00	2024-11-08T15:00:00	5	Humedad	90
176901	7	Sololá	719	Santiago Atitlán	14	Cerro de Oro	10	Octubre	2023-07-10T00:00:00	2024-11-08T15:00:00	6	Velocidad del viento	4.8
176902	7	Sololá	719	Santiago Atitlán	14	Cerro de Oro	10	Octubre	2023-07-10T00:00:00	2024-11-08T15:00:00	7	Dirección del viento	4.83
176903	7	Sololá	719	Santiago Atitlán	14	Cerro de Oro	10	Octubre	2023-07-10T00:00:00	2024-11-08T15:00:00	1	Precipitación	0
176904	7	Sololá	719	Santiago Atitlán	14	Cerro de Oro	10	Octubre	2023-07-10T00:00:00	2024-11-08T15:00:00	8	Radiación solar	238
176905	7	Sololá	719	Santiago Atitlán	14	Cerro de Oro	10	Octubre	2023-07-10T00:00:00	2024-11-08T16:00:00	2	Temperatura media	21.3
176906	7	Sololá	719	Santiago Atitlán	14	Cerro de Oro	10	Octubre	2023-07-10T00:00:00	2024-11-08T16:00:00	4	Temperatura máxima	22.9
176907	7	Sololá	719	Santiago Atitlán	14	Cerro de Oro	10	Octubre	2023-07-10T00:00:00	2024-11-08T16:00:00	3	Temperatura mínima	21.3
176908	7	Sololá	719	Santiago Atitlán	14	Cerro de Oro	10	Octubre	2023-07-10T00:00:00	2024-11-08T16:00:00	5	Humedad	95
176909	7	Sololá	719	Santiago Atitlán	14	Cerro de Oro	10	Octubre	2023-07-10T00:00:00	2024-11-08T16:00:00	6	Velocidad del viento	1.6
176910	7	Sololá	719	Santiago Atitlán	14	Cerro de Oro	10	Octubre	2023-07-10T00:00:00	2024-11-08T16:00:00	7	Dirección del viento	1.61
176911	7	Sololá	719	Santiago Atitlán	14	Cerro de Oro	10	Octubre	2023-07-10T00:00:00	2024-11-08T16:00:00	1	Precipitación	5.4
176912	7	Sololá	719	Santiago Atitlán	14	Cerro de Oro	10	Octubre	2023-07-10T00:00:00	2024-11-08T16:00:00	8	Radiación solar	34
176913	7	Sololá	719	Santiago Atitlán	14	Cerro de Oro	10	Octubre	2023-07-10T00:00:00	2024-11-08T17:00:00	2	Temperatura media	19.7
176914	7	Sololá	719	Santiago Atitlán	14	Cerro de Oro	10	Octubre	2023-07-10T00:00:00	2024-11-08T17:00:00	4	Temperatura máxima	21.3
176915	7	Sololá	719	Santiago Atitlán	14	Cerro de Oro	10	Octubre	2023-07-10T00:00:00	2024-11-08T17:00:00	3	Temperatura mínima	19.7
176916	7	Sololá	719	Santiago Atitlán	14	Cerro de Oro	10	Octubre	2023-07-10T00:00:00	2024-11-08T17:00:00	5	Humedad	94
176917	7	Sololá	719	Santiago Atitlán	14	Cerro de Oro	10	Octubre	2023-07-10T00:00:00	2024-11-08T17:00:00	6	Velocidad del viento	6.4
176918	7	Sololá	719	Santiago Atitlán	14	Cerro de Oro	10	Octubre	2023-07-10T00:00:00	2024-11-08T17:00:00	7	Dirección del viento	6.44
176919	7	Sololá	719	Santiago Atitlán	14	Cerro de Oro	10	Octubre	2023-07-10T00:00:00	2024-11-08T17:00:00	1	Precipitación	0.6
176920	7	Sololá	719	Santiago Atitlán	14	Cerro de Oro	10	Octubre	2023-07-10T00:00:00	2024-11-08T17:00:00	8	Radiación solar	2
176921	7	Sololá	719	Santiago Atitlán	14	Cerro de Oro	10	Octubre	2023-07-10T00:00:00	2024-11-08T18:00:00	2	Temperatura media	20.1
176922	7	Sololá	719	Santiago Atitlán	14	Cerro de Oro	10	Octubre	2023-07-10T00:00:00	2024-11-08T18:00:00	4	Temperatura máxima	20.1
176923	7	Sololá	719	Santiago Atitlán	14	Cerro de Oro	10	Octubre	2023-07-10T00:00:00	2024-11-08T18:00:00	3	Temperatura mínima	19.5
176924	7	Sololá	719	Santiago Atitlán	14	Cerro de Oro	10	Octubre	2023-07-10T00:00:00	2024-11-08T18:00:00	5	Humedad	96
176925	7	Sololá	719	Santiago Atitlán	14	Cerro de Oro	10	Octubre	2023-07-10T00:00:00	2024-11-08T18:00:00	6	Velocidad del viento	1.6
176926	7	Sololá	719	Santiago Atitlán	14	Cerro de Oro	10	Octubre	2023-07-10T00:00:00	2024-11-08T18:00:00	7	Dirección del viento	1.61
176927	7	Sololá	719	Santiago Atitlán	14	Cerro de Oro	10	Octubre	2023-07-10T00:00:00	2024-11-08T18:00:00	1	Precipitación	0
176928	7	Sololá	719	Santiago Atitlán	14	Cerro de Oro	10	Octubre	2023-07-10T00:00:00	2024-11-08T18:00:00	8	Radiación solar	0
176929	7	Sololá	719	Santiago Atitlán	14	Cerro de Oro	10	Octubre	2023-07-10T00:00:00	2024-11-08T19:00:00	2	Temperatura media	19.4
176930	7	Sololá	719	Santiago Atitlán	14	Cerro de Oro	10	Octubre	2023-07-10T00:00:00	2024-11-08T19:00:00	4	Temperatura máxima	20.2
176931	7	Sololá	719	Santiago Atitlán	14	Cerro de Oro	10	Octubre	2023-07-10T00:00:00	2024-11-08T19:00:00	3	Temperatura mínima	19.3
176932	7	Sololá	719	Santiago Atitlán	14	Cerro de Oro	10	Octubre	2023-07-10T00:00:00	2024-11-08T19:00:00	5	Humedad	98
176933	7	Sololá	719	Santiago Atitlán	14	Cerro de Oro	10	Octubre	2023-07-10T00:00:00	2024-11-08T19:00:00	6	Velocidad del viento	1.6
176934	7	Sololá	719	Santiago Atitlán	14	Cerro de Oro	10	Octubre	2023-07-10T00:00:00	2024-11-08T19:00:00	7	Dirección del viento	1.61
176935	7	Sololá	719	Santiago Atitlán	14	Cerro de Oro	10	Octubre	2023-07-10T00:00:00	2024-11-08T19:00:00	1	Precipitación	8.4
176936	7	Sololá	719	Santiago Atitlán	14	Cerro de Oro	10	Octubre	2023-07-10T00:00:00	2024-11-08T19:00:00	8	Radiación solar	0
176937	7	Sololá	719	Santiago Atitlán	14	Cerro de Oro	10	Octubre	2023-07-10T00:00:00	2024-11-08T20:00:00	2	Temperatura media	18.8
176938	7	Sololá	719	Santiago Atitlán	14	Cerro de Oro	10	Octubre	2023-07-10T00:00:00	2024-11-08T20:00:00	4	Temperatura máxima	19.4
176939	7	Sololá	719	Santiago Atitlán	14	Cerro de Oro	10	Octubre	2023-07-10T00:00:00	2024-11-08T20:00:00	3	Temperatura mínima	18.7
176940	7	Sololá	719	Santiago Atitlán	14	Cerro de Oro	10	Octubre	2023-07-10T00:00:00	2024-11-08T20:00:00	5	Humedad	98
176941	7	Sololá	719	Santiago Atitlán	14	Cerro de Oro	10	Octubre	2023-07-10T00:00:00	2024-11-08T20:00:00	6	Velocidad del viento	1.6
176942	7	Sololá	719	Santiago Atitlán	14	Cerro de Oro	10	Octubre	2023-07-10T00:00:00	2024-11-08T20:00:00	7	Dirección del viento	1.61
176943	7	Sololá	719	Santiago Atitlán	14	Cerro de Oro	10	Octubre	2023-07-10T00:00:00	2024-11-08T20:00:00	1	Precipitación	6.8
176944	7	Sololá	719	Santiago Atitlán	14	Cerro de Oro	10	Octubre	2023-07-10T00:00:00	2024-11-08T20:00:00	8	Radiación solar	0
176945	7	Sololá	719	Santiago Atitlán	14	Cerro de Oro	10	Octubre	2023-07-10T00:00:00	2024-11-08T21:00:00	2	Temperatura media	18.3
176946	7	Sololá	719	Santiago Atitlán	14	Cerro de Oro	10	Octubre	2023-07-10T00:00:00	2024-11-08T21:00:00	4	Temperatura máxima	18.8
176947	7	Sololá	719	Santiago Atitlán	14	Cerro de Oro	10	Octubre	2023-07-10T00:00:00	2024-11-08T21:00:00	3	Temperatura mínima	18.2
176948	7	Sololá	719	Santiago Atitlán	14	Cerro de Oro	10	Octubre	2023-07-10T00:00:00	2024-11-08T21:00:00	5	Humedad	97
176949	7	Sololá	719	Santiago Atitlán	14	Cerro de Oro	10	Octubre	2023-07-10T00:00:00	2024-11-08T21:00:00	6	Velocidad del viento	1.6
176950	7	Sololá	719	Santiago Atitlán	14	Cerro de Oro	10	Octubre	2023-07-10T00:00:00	2024-11-08T21:00:00	7	Dirección del viento	1.61
176951	7	Sololá	719	Santiago Atitlán	14	Cerro de Oro	10	Octubre	2023-07-10T00:00:00	2024-11-08T21:00:00	1	Precipitación	5
176952	7	Sololá	719	Santiago Atitlán	14	Cerro de Oro	10	Octubre	2023-07-10T00:00:00	2024-11-08T21:00:00	8	Radiación solar	0
176953	7	Sololá	719	Santiago Atitlán	14	Cerro de Oro	10	Octubre	2023-07-10T00:00:00	2024-11-08T22:00:00	2	Temperatura media	17.9
176954	7	Sololá	719	Santiago Atitlán	14	Cerro de Oro	10	Octubre	2023-07-10T00:00:00	2024-11-08T22:00:00	4	Temperatura máxima	18.3
176955	7	Sololá	719	Santiago Atitlán	14	Cerro de Oro	10	Octubre	2023-07-10T00:00:00	2024-11-08T22:00:00	3	Temperatura mínima	17.8
176956	7	Sololá	719	Santiago Atitlán	14	Cerro de Oro	10	Octubre	2023-07-10T00:00:00	2024-11-08T22:00:00	5	Humedad	98
176957	7	Sololá	719	Santiago Atitlán	14	Cerro de Oro	10	Octubre	2023-07-10T00:00:00	2024-11-08T22:00:00	6	Velocidad del viento	0
176958	7	Sololá	719	Santiago Atitlán	14	Cerro de Oro	10	Octubre	2023-07-10T00:00:00	2024-11-08T22:00:00	7	Dirección del viento	0
176959	7	Sololá	719	Santiago Atitlán	14	Cerro de Oro	10	Octubre	2023-07-10T00:00:00	2024-11-08T22:00:00	1	Precipitación	4.6
176960	7	Sololá	719	Santiago Atitlán	14	Cerro de Oro	10	Octubre	2023-07-10T00:00:00	2024-11-08T22:00:00	8	Radiación solar	0
176961	7	Sololá	719	Santiago Atitlán	14	Cerro de Oro	10	Octubre	2023-07-10T00:00:00	2024-11-08T23:00:00	2	Temperatura media	17.8
176962	7	Sololá	719	Santiago Atitlán	14	Cerro de Oro	10	Octubre	2023-07-10T00:00:00	2024-11-08T23:00:00	4	Temperatura máxima	17.9
176963	7	Sololá	719	Santiago Atitlán	14	Cerro de Oro	10	Octubre	2023-07-10T00:00:00	2024-11-08T23:00:00	3	Temperatura mínima	17.7
176964	7	Sololá	719	Santiago Atitlán	14	Cerro de Oro	10	Octubre	2023-07-10T00:00:00	2024-11-08T23:00:00	5	Humedad	96
176965	7	Sololá	719	Santiago Atitlán	14	Cerro de Oro	10	Octubre	2023-07-10T00:00:00	2024-11-08T23:00:00	6	Velocidad del viento	0
176966	7	Sololá	719	Santiago Atitlán	14	Cerro de Oro	10	Octubre	2023-07-10T00:00:00	2024-11-08T23:00:00	7	Dirección del viento	0
176967	7	Sololá	719	Santiago Atitlán	14	Cerro de Oro	10	Octubre	2023-07-10T00:00:00	2024-11-08T23:00:00	1	Precipitación	1.2
176968	7	Sololá	719	Santiago Atitlán	14	Cerro de Oro	10	Octubre	2023-07-10T00:00:00	2024-11-08T23:00:00	8	Radiación solar	0
176969	7	Sololá	719	Santiago Atitlán	14	Cerro de Oro	10	Octubre	2023-08-10T00:00:00	2024-11-08T00:00:00	2	Temperatura media	17.7
176970	7	Sololá	719	Santiago Atitlán	14	Cerro de Oro	10	Octubre	2023-08-10T00:00:00	2024-11-08T00:00:00	4	Temperatura máxima	17.9
176971	7	Sololá	719	Santiago Atitlán	14	Cerro de Oro	10	Octubre	2023-08-10T00:00:00	2024-11-08T00:00:00	3	Temperatura mínima	17.7
176972	7	Sololá	719	Santiago Atitlán	14	Cerro de Oro	10	Octubre	2023-08-10T00:00:00	2024-11-08T00:00:00	5	Humedad	98
176973	7	Sololá	719	Santiago Atitlán	14	Cerro de Oro	10	Octubre	2023-08-10T00:00:00	2024-11-08T00:00:00	6	Velocidad del viento	0
176974	7	Sololá	719	Santiago Atitlán	14	Cerro de Oro	10	Octubre	2023-08-10T00:00:00	2024-11-08T00:00:00	7	Dirección del viento	0
176975	7	Sololá	719	Santiago Atitlán	14	Cerro de Oro	10	Octubre	2023-08-10T00:00:00	2024-11-08T00:00:00	1	Precipitación	1.8
176976	7	Sololá	719	Santiago Atitlán	14	Cerro de Oro	10	Octubre	2023-08-10T00:00:00	2024-11-08T00:00:00	8	Radiación solar	0
176977	7	Sololá	719	Santiago Atitlán	14	Cerro de Oro	10	Octubre	2023-08-10T00:00:00	2024-11-08T01:00:00	2	Temperatura media	17.5
176978	7	Sololá	719	Santiago Atitlán	14	Cerro de Oro	10	Octubre	2023-08-10T00:00:00	2024-11-08T01:00:00	4	Temperatura máxima	17.7
176979	7	Sololá	719	Santiago Atitlán	14	Cerro de Oro	10	Octubre	2023-08-10T00:00:00	2024-11-08T01:00:00	3	Temperatura mínima	17.4
176980	7	Sololá	719	Santiago Atitlán	14	Cerro de Oro	10	Octubre	2023-08-10T00:00:00	2024-11-08T01:00:00	5	Humedad	97
176981	7	Sololá	719	Santiago Atitlán	14	Cerro de Oro	10	Octubre	2023-08-10T00:00:00	2024-11-08T01:00:00	6	Velocidad del viento	1.6
176982	7	Sololá	719	Santiago Atitlán	14	Cerro de Oro	10	Octubre	2023-08-10T00:00:00	2024-11-08T01:00:00	7	Dirección del viento	1.61
176983	7	Sololá	719	Santiago Atitlán	14	Cerro de Oro	10	Octubre	2023-08-10T00:00:00	2024-11-08T01:00:00	1	Precipitación	0.2
176984	7	Sololá	719	Santiago Atitlán	14	Cerro de Oro	10	Octubre	2023-08-10T00:00:00	2024-11-08T01:00:00	8	Radiación solar	0
176985	7	Sololá	719	Santiago Atitlán	14	Cerro de Oro	10	Octubre	2023-08-10T00:00:00	2024-11-08T02:00:00	2	Temperatura media	17.4
176986	7	Sololá	719	Santiago Atitlán	14	Cerro de Oro	10	Octubre	2023-08-10T00:00:00	2024-11-08T02:00:00	4	Temperatura máxima	17.7
176987	7	Sololá	719	Santiago Atitlán	14	Cerro de Oro	10	Octubre	2023-08-10T00:00:00	2024-11-08T02:00:00	3	Temperatura mínima	17.3
176988	7	Sololá	719	Santiago Atitlán	14	Cerro de Oro	10	Octubre	2023-08-10T00:00:00	2024-11-08T02:00:00	5	Humedad	97
176989	7	Sololá	719	Santiago Atitlán	14	Cerro de Oro	10	Octubre	2023-08-10T00:00:00	2024-11-08T02:00:00	6	Velocidad del viento	1.6
176990	7	Sololá	719	Santiago Atitlán	14	Cerro de Oro	10	Octubre	2023-08-10T00:00:00	2024-11-08T02:00:00	7	Dirección del viento	1.61
176991	7	Sololá	719	Santiago Atitlán	14	Cerro de Oro	10	Octubre	2023-08-10T00:00:00	2024-11-08T02:00:00	1	Precipitación	0
176992	7	Sololá	719	Santiago Atitlán	14	Cerro de Oro	10	Octubre	2023-08-10T00:00:00	2024-11-08T02:00:00	8	Radiación solar	0
176993	7	Sololá	719	Santiago Atitlán	14	Cerro de Oro	10	Octubre	2023-08-10T00:00:00	2024-11-08T03:00:00	2	Temperatura media	17.1
176994	7	Sololá	719	Santiago Atitlán	14	Cerro de Oro	10	Octubre	2023-08-10T00:00:00	2024-11-08T03:00:00	4	Temperatura máxima	17.4
176995	7	Sololá	719	Santiago Atitlán	14	Cerro de Oro	10	Octubre	2023-08-10T00:00:00	2024-11-08T03:00:00	3	Temperatura mínima	17.1
176996	7	Sololá	719	Santiago Atitlán	14	Cerro de Oro	10	Octubre	2023-08-10T00:00:00	2024-11-08T03:00:00	5	Humedad	96
176997	7	Sololá	719	Santiago Atitlán	14	Cerro de Oro	10	Octubre	2023-08-10T00:00:00	2024-11-08T03:00:00	6	Velocidad del viento	0
176998	7	Sololá	719	Santiago Atitlán	14	Cerro de Oro	10	Octubre	2023-08-10T00:00:00	2024-11-08T03:00:00	7	Dirección del viento	0
176999	7	Sololá	719	Santiago Atitlán	14	Cerro de Oro	10	Octubre	2023-08-10T00:00:00	2024-11-08T03:00:00	1	Precipitación	0
177000	7	Sololá	719	Santiago Atitlán	14	Cerro de Oro	10	Octubre	2023-08-10T00:00:00	2024-11-08T03:00:00	8	Radiación solar	0
177001	7	Sololá	719	Santiago Atitlán	14	Cerro de Oro	10	Octubre	2023-08-10T00:00:00	2024-11-08T04:00:00	2	Temperatura media	16.7
177002	7	Sololá	719	Santiago Atitlán	14	Cerro de Oro	10	Octubre	2023-08-10T00:00:00	2024-11-08T04:00:00	4	Temperatura máxima	17.2
177003	7	Sololá	719	Santiago Atitlán	14	Cerro de Oro	10	Octubre	2023-08-10T00:00:00	2024-11-08T04:00:00	3	Temperatura mínima	16.7
177004	7	Sololá	719	Santiago Atitlán	14	Cerro de Oro	10	Octubre	2023-08-10T00:00:00	2024-11-08T04:00:00	5	Humedad	97
177005	7	Sololá	719	Santiago Atitlán	14	Cerro de Oro	10	Octubre	2023-08-10T00:00:00	2024-11-08T04:00:00	6	Velocidad del viento	0
177006	7	Sololá	719	Santiago Atitlán	14	Cerro de Oro	10	Octubre	2023-08-10T00:00:00	2024-11-08T04:00:00	7	Dirección del viento	0
177007	7	Sololá	719	Santiago Atitlán	14	Cerro de Oro	10	Octubre	2023-08-10T00:00:00	2024-11-08T04:00:00	1	Precipitación	0
177008	7	Sololá	719	Santiago Atitlán	14	Cerro de Oro	10	Octubre	2023-08-10T00:00:00	2024-11-08T04:00:00	8	Radiación solar	0
177009	7	Sololá	719	Santiago Atitlán	14	Cerro de Oro	10	Octubre	2023-08-10T00:00:00	2024-11-08T05:00:00	2	Temperatura media	16.9
177010	7	Sololá	719	Santiago Atitlán	14	Cerro de Oro	10	Octubre	2023-08-10T00:00:00	2024-11-08T05:00:00	4	Temperatura máxima	16.9
177011	7	Sololá	719	Santiago Atitlán	14	Cerro de Oro	10	Octubre	2023-08-10T00:00:00	2024-11-08T05:00:00	3	Temperatura mínima	16.7
177012	7	Sololá	719	Santiago Atitlán	14	Cerro de Oro	10	Octubre	2023-08-10T00:00:00	2024-11-08T05:00:00	5	Humedad	97
177013	7	Sololá	719	Santiago Atitlán	14	Cerro de Oro	10	Octubre	2023-08-10T00:00:00	2024-11-08T05:00:00	6	Velocidad del viento	0
177014	7	Sololá	719	Santiago Atitlán	14	Cerro de Oro	10	Octubre	2023-08-10T00:00:00	2024-11-08T05:00:00	7	Dirección del viento	0
177015	7	Sololá	719	Santiago Atitlán	14	Cerro de Oro	10	Octubre	2023-08-10T00:00:00	2024-11-08T05:00:00	1	Precipitación	0
177016	7	Sololá	719	Santiago Atitlán	14	Cerro de Oro	10	Octubre	2023-08-10T00:00:00	2024-11-08T05:00:00	8	Radiación solar	0
177017	7	Sololá	719	Santiago Atitlán	14	Cerro de Oro	10	Octubre	2023-08-10T00:00:00	2024-11-08T06:00:00	2	Temperatura media	17.1
177018	7	Sololá	719	Santiago Atitlán	14	Cerro de Oro	10	Octubre	2023-08-10T00:00:00	2024-11-08T06:00:00	4	Temperatura máxima	17.2
177019	7	Sololá	719	Santiago Atitlán	14	Cerro de Oro	10	Octubre	2023-08-10T00:00:00	2024-11-08T06:00:00	3	Temperatura mínima	16.9
177020	7	Sololá	719	Santiago Atitlán	14	Cerro de Oro	10	Octubre	2023-08-10T00:00:00	2024-11-08T06:00:00	5	Humedad	96
177021	7	Sololá	719	Santiago Atitlán	14	Cerro de Oro	10	Octubre	2023-08-10T00:00:00	2024-11-08T06:00:00	6	Velocidad del viento	0
177022	7	Sololá	719	Santiago Atitlán	14	Cerro de Oro	10	Octubre	2023-08-10T00:00:00	2024-11-08T06:00:00	7	Dirección del viento	0
177023	7	Sololá	719	Santiago Atitlán	14	Cerro de Oro	10	Octubre	2023-08-10T00:00:00	2024-11-08T06:00:00	1	Precipitación	0
177024	7	Sololá	719	Santiago Atitlán	14	Cerro de Oro	10	Octubre	2023-08-10T00:00:00	2024-11-08T06:00:00	8	Radiación solar	0
177025	7	Sololá	719	Santiago Atitlán	14	Cerro de Oro	10	Octubre	2023-08-10T00:00:00	2024-11-08T07:00:00	2	Temperatura media	17.8
177026	7	Sololá	719	Santiago Atitlán	14	Cerro de Oro	10	Octubre	2023-08-10T00:00:00	2024-11-08T07:00:00	4	Temperatura máxima	17.8
177027	7	Sololá	719	Santiago Atitlán	14	Cerro de Oro	10	Octubre	2023-08-10T00:00:00	2024-11-08T07:00:00	3	Temperatura mínima	17.1
177028	7	Sololá	719	Santiago Atitlán	14	Cerro de Oro	10	Octubre	2023-08-10T00:00:00	2024-11-08T07:00:00	5	Humedad	94
177029	7	Sololá	719	Santiago Atitlán	14	Cerro de Oro	10	Octubre	2023-08-10T00:00:00	2024-11-08T07:00:00	6	Velocidad del viento	1.6
177030	7	Sololá	719	Santiago Atitlán	14	Cerro de Oro	10	Octubre	2023-08-10T00:00:00	2024-11-08T07:00:00	7	Dirección del viento	1.61
177031	7	Sololá	719	Santiago Atitlán	14	Cerro de Oro	10	Octubre	2023-08-10T00:00:00	2024-11-08T07:00:00	1	Precipitación	0
177032	7	Sololá	719	Santiago Atitlán	14	Cerro de Oro	10	Octubre	2023-08-10T00:00:00	2024-11-08T07:00:00	8	Radiación solar	32
177033	7	Sololá	719	Santiago Atitlán	14	Cerro de Oro	10	Octubre	2023-08-10T00:00:00	2024-11-08T08:00:00	2	Temperatura media	20.4
177034	7	Sololá	719	Santiago Atitlán	14	Cerro de Oro	10	Octubre	2023-08-10T00:00:00	2024-11-08T08:00:00	4	Temperatura máxima	20.4
177035	7	Sololá	719	Santiago Atitlán	14	Cerro de Oro	10	Octubre	2023-08-10T00:00:00	2024-11-08T08:00:00	3	Temperatura mínima	17.9
177036	7	Sololá	719	Santiago Atitlán	14	Cerro de Oro	10	Octubre	2023-08-10T00:00:00	2024-11-08T08:00:00	5	Humedad	87
177037	7	Sololá	719	Santiago Atitlán	14	Cerro de Oro	10	Octubre	2023-08-10T00:00:00	2024-11-08T08:00:00	6	Velocidad del viento	0
177038	7	Sololá	719	Santiago Atitlán	14	Cerro de Oro	10	Octubre	2023-08-10T00:00:00	2024-11-08T08:00:00	7	Dirección del viento	0
177039	7	Sololá	719	Santiago Atitlán	14	Cerro de Oro	10	Octubre	2023-08-10T00:00:00	2024-11-08T08:00:00	1	Precipitación	0
177040	7	Sololá	719	Santiago Atitlán	14	Cerro de Oro	10	Octubre	2023-08-10T00:00:00	2024-11-08T08:00:00	8	Radiación solar	201
177041	7	Sololá	719	Santiago Atitlán	14	Cerro de Oro	10	Octubre	2023-08-10T00:00:00	2024-11-08T09:00:00	2	Temperatura media	21.5
177042	7	Sololá	719	Santiago Atitlán	14	Cerro de Oro	10	Octubre	2023-08-10T00:00:00	2024-11-08T09:00:00	4	Temperatura máxima	22.1
177043	7	Sololá	719	Santiago Atitlán	14	Cerro de Oro	10	Octubre	2023-08-10T00:00:00	2024-11-08T09:00:00	3	Temperatura mínima	20.4
177044	7	Sololá	719	Santiago Atitlán	14	Cerro de Oro	10	Octubre	2023-08-10T00:00:00	2024-11-08T09:00:00	5	Humedad	86
177045	7	Sololá	719	Santiago Atitlán	14	Cerro de Oro	10	Octubre	2023-08-10T00:00:00	2024-11-08T09:00:00	6	Velocidad del viento	1.6
177046	7	Sololá	719	Santiago Atitlán	14	Cerro de Oro	10	Octubre	2023-08-10T00:00:00	2024-11-08T09:00:00	7	Dirección del viento	1.61
177047	7	Sololá	719	Santiago Atitlán	14	Cerro de Oro	10	Octubre	2023-08-10T00:00:00	2024-11-08T09:00:00	1	Precipitación	0
177048	7	Sololá	719	Santiago Atitlán	14	Cerro de Oro	10	Octubre	2023-08-10T00:00:00	2024-11-08T09:00:00	8	Radiación solar	466
177049	7	Sololá	719	Santiago Atitlán	14	Cerro de Oro	10	Octubre	2023-08-10T00:00:00	2024-11-08T10:00:00	2	Temperatura media	22.7
177050	7	Sololá	719	Santiago Atitlán	14	Cerro de Oro	10	Octubre	2023-08-10T00:00:00	2024-11-08T10:00:00	4	Temperatura máxima	22.8
177051	7	Sololá	719	Santiago Atitlán	14	Cerro de Oro	10	Octubre	2023-08-10T00:00:00	2024-11-08T10:00:00	3	Temperatura mínima	21.4
177052	7	Sololá	719	Santiago Atitlán	14	Cerro de Oro	10	Octubre	2023-08-10T00:00:00	2024-11-08T10:00:00	5	Humedad	80
177053	7	Sololá	719	Santiago Atitlán	14	Cerro de Oro	10	Octubre	2023-08-10T00:00:00	2024-11-08T10:00:00	6	Velocidad del viento	1.6
177054	7	Sololá	719	Santiago Atitlán	14	Cerro de Oro	10	Octubre	2023-08-10T00:00:00	2024-11-08T10:00:00	7	Dirección del viento	1.61
177055	7	Sololá	719	Santiago Atitlán	14	Cerro de Oro	10	Octubre	2023-08-10T00:00:00	2024-11-08T10:00:00	1	Precipitación	0
177056	7	Sololá	719	Santiago Atitlán	14	Cerro de Oro	10	Octubre	2023-08-10T00:00:00	2024-11-08T10:00:00	8	Radiación solar	543
177057	7	Sololá	719	Santiago Atitlán	14	Cerro de Oro	10	Octubre	2023-08-10T00:00:00	2024-11-08T11:00:00	2	Temperatura media	21.9
177058	7	Sololá	719	Santiago Atitlán	14	Cerro de Oro	10	Octubre	2023-08-10T00:00:00	2024-11-08T11:00:00	4	Temperatura máxima	22.7
177059	7	Sololá	719	Santiago Atitlán	14	Cerro de Oro	10	Octubre	2023-08-10T00:00:00	2024-11-08T11:00:00	3	Temperatura mínima	21.8
177060	7	Sololá	719	Santiago Atitlán	14	Cerro de Oro	10	Octubre	2023-08-10T00:00:00	2024-11-08T11:00:00	5	Humedad	83
177061	7	Sololá	719	Santiago Atitlán	14	Cerro de Oro	10	Octubre	2023-08-10T00:00:00	2024-11-08T11:00:00	6	Velocidad del viento	1.6
177062	7	Sololá	719	Santiago Atitlán	14	Cerro de Oro	10	Octubre	2023-08-10T00:00:00	2024-11-08T11:00:00	7	Dirección del viento	1.61
177063	7	Sololá	719	Santiago Atitlán	14	Cerro de Oro	10	Octubre	2023-08-10T00:00:00	2024-11-08T11:00:00	1	Precipitación	0
177064	7	Sololá	719	Santiago Atitlán	14	Cerro de Oro	10	Octubre	2023-08-10T00:00:00	2024-11-08T11:00:00	8	Radiación solar	487
177065	7	Sololá	719	Santiago Atitlán	14	Cerro de Oro	10	Octubre	2023-08-10T00:00:00	2024-11-08T12:00:00	2	Temperatura media	23.7
177066	7	Sololá	719	Santiago Atitlán	14	Cerro de Oro	10	Octubre	2023-08-10T00:00:00	2024-11-08T12:00:00	4	Temperatura máxima	23.7
177067	7	Sololá	719	Santiago Atitlán	14	Cerro de Oro	10	Octubre	2023-08-10T00:00:00	2024-11-08T12:00:00	3	Temperatura mínima	21.8
177068	7	Sololá	719	Santiago Atitlán	14	Cerro de Oro	10	Octubre	2023-08-10T00:00:00	2024-11-08T12:00:00	5	Humedad	79
177069	7	Sololá	719	Santiago Atitlán	14	Cerro de Oro	10	Octubre	2023-08-10T00:00:00	2024-11-08T12:00:00	6	Velocidad del viento	1.6
177070	7	Sololá	719	Santiago Atitlán	14	Cerro de Oro	10	Octubre	2023-08-10T00:00:00	2024-11-08T12:00:00	7	Dirección del viento	1.61
177071	7	Sololá	719	Santiago Atitlán	14	Cerro de Oro	10	Octubre	2023-08-10T00:00:00	2024-11-08T12:00:00	1	Precipitación	0
177072	7	Sololá	719	Santiago Atitlán	14	Cerro de Oro	10	Octubre	2023-08-10T00:00:00	2024-11-08T12:00:00	8	Radiación solar	581
177073	7	Sololá	719	Santiago Atitlán	14	Cerro de Oro	10	Octubre	2023-08-10T00:00:00	2024-11-08T13:00:00	2	Temperatura media	24.7
177074	7	Sololá	719	Santiago Atitlán	14	Cerro de Oro	10	Octubre	2023-08-10T00:00:00	2024-11-08T13:00:00	4	Temperatura máxima	25.2
177075	7	Sololá	719	Santiago Atitlán	14	Cerro de Oro	10	Octubre	2023-08-10T00:00:00	2024-11-08T13:00:00	3	Temperatura mínima	23.3
177076	7	Sololá	719	Santiago Atitlán	14	Cerro de Oro	10	Octubre	2023-08-10T00:00:00	2024-11-08T13:00:00	5	Humedad	71
177077	7	Sololá	719	Santiago Atitlán	14	Cerro de Oro	10	Octubre	2023-08-10T00:00:00	2024-11-08T13:00:00	6	Velocidad del viento	3.2
177078	7	Sololá	719	Santiago Atitlán	14	Cerro de Oro	10	Octubre	2023-08-10T00:00:00	2024-11-08T13:00:00	7	Dirección del viento	3.22
177079	7	Sololá	719	Santiago Atitlán	14	Cerro de Oro	10	Octubre	2023-08-10T00:00:00	2024-11-08T13:00:00	1	Precipitación	0
177080	7	Sololá	719	Santiago Atitlán	14	Cerro de Oro	10	Octubre	2023-08-10T00:00:00	2024-11-08T13:00:00	8	Radiación solar	975
177081	7	Sololá	719	Santiago Atitlán	14	Cerro de Oro	10	Octubre	2023-08-10T00:00:00	2024-11-08T14:00:00	2	Temperatura media	25.7
177082	7	Sololá	719	Santiago Atitlán	14	Cerro de Oro	10	Octubre	2023-08-10T00:00:00	2024-11-08T14:00:00	4	Temperatura máxima	25.7
177083	7	Sololá	719	Santiago Atitlán	14	Cerro de Oro	10	Octubre	2023-08-10T00:00:00	2024-11-08T14:00:00	3	Temperatura mínima	24.4
177084	7	Sololá	719	Santiago Atitlán	14	Cerro de Oro	10	Octubre	2023-08-10T00:00:00	2024-11-08T14:00:00	5	Humedad	63
177085	7	Sololá	719	Santiago Atitlán	14	Cerro de Oro	10	Octubre	2023-08-10T00:00:00	2024-11-08T14:00:00	6	Velocidad del viento	4.8
177086	7	Sololá	719	Santiago Atitlán	14	Cerro de Oro	10	Octubre	2023-08-10T00:00:00	2024-11-08T14:00:00	7	Dirección del viento	4.83
177087	7	Sololá	719	Santiago Atitlán	14	Cerro de Oro	10	Octubre	2023-08-10T00:00:00	2024-11-08T14:00:00	1	Precipitación	0
177088	7	Sololá	719	Santiago Atitlán	14	Cerro de Oro	10	Octubre	2023-08-10T00:00:00	2024-11-08T14:00:00	8	Radiación solar	894
177089	7	Sololá	719	Santiago Atitlán	14	Cerro de Oro	10	Octubre	2023-08-10T00:00:00	2024-11-08T15:00:00	2	Temperatura media	26.3
177090	7	Sololá	719	Santiago Atitlán	14	Cerro de Oro	10	Octubre	2023-08-10T00:00:00	2024-11-08T15:00:00	4	Temperatura máxima	26.4
177091	7	Sololá	719	Santiago Atitlán	14	Cerro de Oro	10	Octubre	2023-08-10T00:00:00	2024-11-08T15:00:00	3	Temperatura mínima	25
177092	7	Sololá	719	Santiago Atitlán	14	Cerro de Oro	10	Octubre	2023-08-10T00:00:00	2024-11-08T15:00:00	5	Humedad	71
177093	7	Sololá	719	Santiago Atitlán	14	Cerro de Oro	10	Octubre	2023-08-10T00:00:00	2024-11-08T15:00:00	6	Velocidad del viento	1.6
177094	7	Sololá	719	Santiago Atitlán	14	Cerro de Oro	10	Octubre	2023-08-10T00:00:00	2024-11-08T15:00:00	7	Dirección del viento	1.61
177095	7	Sololá	719	Santiago Atitlán	14	Cerro de Oro	10	Octubre	2023-08-10T00:00:00	2024-11-08T15:00:00	1	Precipitación	0
177096	7	Sololá	719	Santiago Atitlán	14	Cerro de Oro	10	Octubre	2023-08-10T00:00:00	2024-11-08T15:00:00	8	Radiación solar	672
177097	7	Sololá	719	Santiago Atitlán	14	Cerro de Oro	10	Octubre	2023-08-10T00:00:00	2024-11-08T16:00:00	2	Temperatura media	19.3
177098	7	Sololá	719	Santiago Atitlán	14	Cerro de Oro	10	Octubre	2023-08-10T00:00:00	2024-11-08T16:00:00	4	Temperatura máxima	26.4
177099	7	Sololá	719	Santiago Atitlán	14	Cerro de Oro	10	Octubre	2023-08-10T00:00:00	2024-11-08T16:00:00	3	Temperatura mínima	19.3
177100	7	Sololá	719	Santiago Atitlán	14	Cerro de Oro	10	Octubre	2023-08-10T00:00:00	2024-11-08T16:00:00	5	Humedad	88
177101	7	Sololá	719	Santiago Atitlán	14	Cerro de Oro	10	Octubre	2023-08-10T00:00:00	2024-11-08T16:00:00	6	Velocidad del viento	8
177102	7	Sololá	719	Santiago Atitlán	14	Cerro de Oro	10	Octubre	2023-08-10T00:00:00	2024-11-08T16:00:00	7	Dirección del viento	8.05
177103	7	Sololá	719	Santiago Atitlán	14	Cerro de Oro	10	Octubre	2023-08-10T00:00:00	2024-11-08T16:00:00	1	Precipitación	2.2
177104	7	Sololá	719	Santiago Atitlán	14	Cerro de Oro	10	Octubre	2023-08-10T00:00:00	2024-11-08T16:00:00	8	Radiación solar	261
177105	7	Sololá	719	Santiago Atitlán	14	Cerro de Oro	10	Octubre	2023-08-10T00:00:00	2024-11-08T17:00:00	2	Temperatura media	18.4
177106	7	Sololá	719	Santiago Atitlán	14	Cerro de Oro	10	Octubre	2023-08-10T00:00:00	2024-11-08T17:00:00	4	Temperatura máxima	19.3
177107	7	Sololá	719	Santiago Atitlán	14	Cerro de Oro	10	Octubre	2023-08-10T00:00:00	2024-11-08T17:00:00	3	Temperatura mínima	18.3
177108	7	Sololá	719	Santiago Atitlán	14	Cerro de Oro	10	Octubre	2023-08-10T00:00:00	2024-11-08T17:00:00	5	Humedad	93
177109	7	Sololá	719	Santiago Atitlán	14	Cerro de Oro	10	Octubre	2023-08-10T00:00:00	2024-11-08T17:00:00	6	Velocidad del viento	6.4
177110	7	Sololá	719	Santiago Atitlán	14	Cerro de Oro	10	Octubre	2023-08-10T00:00:00	2024-11-08T17:00:00	7	Dirección del viento	6.44
177111	7	Sololá	719	Santiago Atitlán	14	Cerro de Oro	10	Octubre	2023-08-10T00:00:00	2024-11-08T17:00:00	1	Precipitación	2.6
177112	7	Sololá	719	Santiago Atitlán	14	Cerro de Oro	10	Octubre	2023-08-10T00:00:00	2024-11-08T17:00:00	8	Radiación solar	5
177113	7	Sololá	719	Santiago Atitlán	14	Cerro de Oro	10	Octubre	2023-08-10T00:00:00	2024-11-08T18:00:00	2	Temperatura media	18.4
177114	7	Sololá	719	Santiago Atitlán	14	Cerro de Oro	10	Octubre	2023-08-10T00:00:00	2024-11-08T18:00:00	4	Temperatura máxima	18.7
177115	7	Sololá	719	Santiago Atitlán	14	Cerro de Oro	10	Octubre	2023-08-10T00:00:00	2024-11-08T18:00:00	3	Temperatura mínima	18.4
177116	7	Sololá	719	Santiago Atitlán	14	Cerro de Oro	10	Octubre	2023-08-10T00:00:00	2024-11-08T18:00:00	5	Humedad	94
177117	7	Sololá	719	Santiago Atitlán	14	Cerro de Oro	10	Octubre	2023-08-10T00:00:00	2024-11-08T18:00:00	6	Velocidad del viento	3.2
177118	7	Sololá	719	Santiago Atitlán	14	Cerro de Oro	10	Octubre	2023-08-10T00:00:00	2024-11-08T18:00:00	7	Dirección del viento	3.22
177119	7	Sololá	719	Santiago Atitlán	14	Cerro de Oro	10	Octubre	2023-08-10T00:00:00	2024-11-08T18:00:00	1	Precipitación	0
177120	7	Sololá	719	Santiago Atitlán	14	Cerro de Oro	10	Octubre	2023-08-10T00:00:00	2024-11-08T18:00:00	8	Radiación solar	4
177121	7	Sololá	719	Santiago Atitlán	14	Cerro de Oro	10	Octubre	2023-08-10T00:00:00	2024-11-08T19:00:00	2	Temperatura media	18.4
177122	7	Sololá	719	Santiago Atitlán	14	Cerro de Oro	10	Octubre	2023-08-10T00:00:00	2024-11-08T19:00:00	4	Temperatura máxima	18.5
177123	7	Sololá	719	Santiago Atitlán	14	Cerro de Oro	10	Octubre	2023-08-10T00:00:00	2024-11-08T19:00:00	3	Temperatura mínima	18.4
177124	7	Sololá	719	Santiago Atitlán	14	Cerro de Oro	10	Octubre	2023-08-10T00:00:00	2024-11-08T19:00:00	5	Humedad	94
177125	7	Sololá	719	Santiago Atitlán	14	Cerro de Oro	10	Octubre	2023-08-10T00:00:00	2024-11-08T19:00:00	6	Velocidad del viento	1.6
177126	7	Sololá	719	Santiago Atitlán	14	Cerro de Oro	10	Octubre	2023-08-10T00:00:00	2024-11-08T19:00:00	7	Dirección del viento	1.61
177127	7	Sololá	719	Santiago Atitlán	14	Cerro de Oro	10	Octubre	2023-08-10T00:00:00	2024-11-08T19:00:00	1	Precipitación	0
177128	7	Sololá	719	Santiago Atitlán	14	Cerro de Oro	10	Octubre	2023-08-10T00:00:00	2024-11-08T19:00:00	8	Radiación solar	0
177129	7	Sololá	719	Santiago Atitlán	14	Cerro de Oro	10	Octubre	2023-08-10T00:00:00	2024-11-08T20:00:00	2	Temperatura media	18.4
177130	7	Sololá	719	Santiago Atitlán	14	Cerro de Oro	10	Octubre	2023-08-10T00:00:00	2024-11-08T20:00:00	4	Temperatura máxima	18.4
177131	7	Sololá	719	Santiago Atitlán	14	Cerro de Oro	10	Octubre	2023-08-10T00:00:00	2024-11-08T20:00:00	3	Temperatura mínima	18.3
177132	7	Sololá	719	Santiago Atitlán	14	Cerro de Oro	10	Octubre	2023-08-10T00:00:00	2024-11-08T20:00:00	5	Humedad	94
177133	7	Sololá	719	Santiago Atitlán	14	Cerro de Oro	10	Octubre	2023-08-10T00:00:00	2024-11-08T20:00:00	6	Velocidad del viento	1.6
177134	7	Sololá	719	Santiago Atitlán	14	Cerro de Oro	10	Octubre	2023-08-10T00:00:00	2024-11-08T20:00:00	7	Dirección del viento	1.61
177135	7	Sololá	719	Santiago Atitlán	14	Cerro de Oro	10	Octubre	2023-08-10T00:00:00	2024-11-08T20:00:00	1	Precipitación	0
177136	7	Sololá	719	Santiago Atitlán	14	Cerro de Oro	10	Octubre	2023-08-10T00:00:00	2024-11-08T20:00:00	8	Radiación solar	0
177137	7	Sololá	719	Santiago Atitlán	14	Cerro de Oro	10	Octubre	2023-08-10T00:00:00	2024-11-08T21:00:00	2	Temperatura media	18.4
177138	7	Sololá	719	Santiago Atitlán	14	Cerro de Oro	10	Octubre	2023-08-10T00:00:00	2024-11-08T21:00:00	4	Temperatura máxima	18.5
177139	7	Sololá	719	Santiago Atitlán	14	Cerro de Oro	10	Octubre	2023-08-10T00:00:00	2024-11-08T21:00:00	3	Temperatura mínima	18.3
177140	7	Sololá	719	Santiago Atitlán	14	Cerro de Oro	10	Octubre	2023-08-10T00:00:00	2024-11-08T21:00:00	5	Humedad	95
177141	7	Sololá	719	Santiago Atitlán	14	Cerro de Oro	10	Octubre	2023-08-10T00:00:00	2024-11-08T21:00:00	6	Velocidad del viento	1.6
177142	7	Sololá	719	Santiago Atitlán	14	Cerro de Oro	10	Octubre	2023-08-10T00:00:00	2024-11-08T21:00:00	7	Dirección del viento	1.61
177143	7	Sololá	719	Santiago Atitlán	14	Cerro de Oro	10	Octubre	2023-08-10T00:00:00	2024-11-08T21:00:00	1	Precipitación	0
177144	7	Sololá	719	Santiago Atitlán	14	Cerro de Oro	10	Octubre	2023-08-10T00:00:00	2024-11-08T21:00:00	8	Radiación solar	0
177145	7	Sololá	719	Santiago Atitlán	14	Cerro de Oro	10	Octubre	2023-08-10T00:00:00	2024-11-08T22:00:00	2	Temperatura media	18.6
177146	7	Sololá	719	Santiago Atitlán	14	Cerro de Oro	10	Octubre	2023-08-10T00:00:00	2024-11-08T22:00:00	4	Temperatura máxima	18.6
177147	7	Sololá	719	Santiago Atitlán	14	Cerro de Oro	10	Octubre	2023-08-10T00:00:00	2024-11-08T22:00:00	3	Temperatura mínima	18.4
177148	7	Sololá	719	Santiago Atitlán	14	Cerro de Oro	10	Octubre	2023-08-10T00:00:00	2024-11-08T22:00:00	5	Humedad	95
177149	7	Sololá	719	Santiago Atitlán	14	Cerro de Oro	10	Octubre	2023-08-10T00:00:00	2024-11-08T22:00:00	6	Velocidad del viento	3.2
177150	7	Sololá	719	Santiago Atitlán	14	Cerro de Oro	10	Octubre	2023-08-10T00:00:00	2024-11-08T22:00:00	7	Dirección del viento	3.22
177151	7	Sololá	719	Santiago Atitlán	14	Cerro de Oro	10	Octubre	2023-08-10T00:00:00	2024-11-08T22:00:00	1	Precipitación	0
177152	7	Sololá	719	Santiago Atitlán	14	Cerro de Oro	10	Octubre	2023-08-10T00:00:00	2024-11-08T22:00:00	8	Radiación solar	0
177153	7	Sololá	719	Santiago Atitlán	14	Cerro de Oro	10	Octubre	2023-08-10T00:00:00	2024-11-08T23:00:00	2	Temperatura media	18.3
177154	7	Sololá	719	Santiago Atitlán	14	Cerro de Oro	10	Octubre	2023-08-10T00:00:00	2024-11-08T23:00:00	4	Temperatura máxima	18.7
177155	7	Sololá	719	Santiago Atitlán	14	Cerro de Oro	10	Octubre	2023-08-10T00:00:00	2024-11-08T23:00:00	3	Temperatura mínima	18.3
177156	7	Sololá	719	Santiago Atitlán	14	Cerro de Oro	10	Octubre	2023-08-10T00:00:00	2024-11-08T23:00:00	5	Humedad	97
177157	7	Sololá	719	Santiago Atitlán	14	Cerro de Oro	10	Octubre	2023-08-10T00:00:00	2024-11-08T23:00:00	6	Velocidad del viento	1.6
177158	7	Sololá	719	Santiago Atitlán	14	Cerro de Oro	10	Octubre	2023-08-10T00:00:00	2024-11-08T23:00:00	7	Dirección del viento	1.61
177159	7	Sololá	719	Santiago Atitlán	14	Cerro de Oro	10	Octubre	2023-08-10T00:00:00	2024-11-08T23:00:00	1	Precipitación	0.8
177160	7	Sololá	719	Santiago Atitlán	14	Cerro de Oro	10	Octubre	2023-08-10T00:00:00	2024-11-08T23:00:00	8	Radiación solar	0
177161	7	Sololá	719	Santiago Atitlán	14	Cerro de Oro	10	Octubre	2023-09-10T00:00:00	2024-11-08T00:00:00	2	Temperatura media	18.3
177162	7	Sololá	719	Santiago Atitlán	14	Cerro de Oro	10	Octubre	2023-09-10T00:00:00	2024-11-08T00:00:00	4	Temperatura máxima	18.4
177163	7	Sololá	719	Santiago Atitlán	14	Cerro de Oro	10	Octubre	2023-09-10T00:00:00	2024-11-08T00:00:00	3	Temperatura mínima	18.1
177164	7	Sololá	719	Santiago Atitlán	14	Cerro de Oro	10	Octubre	2023-09-10T00:00:00	2024-11-08T00:00:00	5	Humedad	97
177165	7	Sololá	719	Santiago Atitlán	14	Cerro de Oro	10	Octubre	2023-09-10T00:00:00	2024-11-08T00:00:00	6	Velocidad del viento	1.6
177166	7	Sololá	719	Santiago Atitlán	14	Cerro de Oro	10	Octubre	2023-09-10T00:00:00	2024-11-08T00:00:00	7	Dirección del viento	1.61
177167	7	Sololá	719	Santiago Atitlán	14	Cerro de Oro	10	Octubre	2023-09-10T00:00:00	2024-11-08T00:00:00	1	Precipitación	4.6
177168	7	Sololá	719	Santiago Atitlán	14	Cerro de Oro	10	Octubre	2023-09-10T00:00:00	2024-11-08T00:00:00	8	Radiación solar	0
177169	7	Sololá	719	Santiago Atitlán	14	Cerro de Oro	10	Octubre	2023-09-10T00:00:00	2024-11-08T01:00:00	2	Temperatura media	18.2
177170	7	Sololá	719	Santiago Atitlán	14	Cerro de Oro	10	Octubre	2023-09-10T00:00:00	2024-11-08T01:00:00	4	Temperatura máxima	18.4
177171	7	Sololá	719	Santiago Atitlán	14	Cerro de Oro	10	Octubre	2023-09-10T00:00:00	2024-11-08T01:00:00	3	Temperatura mínima	18.2
177172	7	Sololá	719	Santiago Atitlán	14	Cerro de Oro	10	Octubre	2023-09-10T00:00:00	2024-11-08T01:00:00	5	Humedad	98
177173	7	Sololá	719	Santiago Atitlán	14	Cerro de Oro	10	Octubre	2023-09-10T00:00:00	2024-11-08T01:00:00	6	Velocidad del viento	1.6
177174	7	Sololá	719	Santiago Atitlán	14	Cerro de Oro	10	Octubre	2023-09-10T00:00:00	2024-11-08T01:00:00	7	Dirección del viento	1.61
177175	7	Sololá	719	Santiago Atitlán	14	Cerro de Oro	10	Octubre	2023-09-10T00:00:00	2024-11-08T01:00:00	1	Precipitación	0.4
177176	7	Sololá	719	Santiago Atitlán	14	Cerro de Oro	10	Octubre	2023-09-10T00:00:00	2024-11-08T01:00:00	8	Radiación solar	0
177177	7	Sololá	719	Santiago Atitlán	14	Cerro de Oro	10	Octubre	2023-09-10T00:00:00	2024-11-08T02:00:00	2	Temperatura media	18.2
177178	7	Sololá	719	Santiago Atitlán	14	Cerro de Oro	10	Octubre	2023-09-10T00:00:00	2024-11-08T02:00:00	4	Temperatura máxima	18.2
177179	7	Sololá	719	Santiago Atitlán	14	Cerro de Oro	10	Octubre	2023-09-10T00:00:00	2024-11-08T02:00:00	3	Temperatura mínima	18.1
177180	7	Sololá	719	Santiago Atitlán	14	Cerro de Oro	10	Octubre	2023-09-10T00:00:00	2024-11-08T02:00:00	5	Humedad	98
177181	7	Sololá	719	Santiago Atitlán	14	Cerro de Oro	10	Octubre	2023-09-10T00:00:00	2024-11-08T02:00:00	6	Velocidad del viento	1.6
177182	7	Sololá	719	Santiago Atitlán	14	Cerro de Oro	10	Octubre	2023-09-10T00:00:00	2024-11-08T02:00:00	7	Dirección del viento	1.61
177183	7	Sololá	719	Santiago Atitlán	14	Cerro de Oro	10	Octubre	2023-09-10T00:00:00	2024-11-08T02:00:00	1	Precipitación	0.2
177184	7	Sololá	719	Santiago Atitlán	14	Cerro de Oro	10	Octubre	2023-09-10T00:00:00	2024-11-08T02:00:00	8	Radiación solar	0
177185	7	Sololá	719	Santiago Atitlán	14	Cerro de Oro	10	Octubre	2023-09-10T00:00:00	2024-11-08T03:00:00	2	Temperatura media	18
177186	7	Sololá	719	Santiago Atitlán	14	Cerro de Oro	10	Octubre	2023-09-10T00:00:00	2024-11-08T03:00:00	4	Temperatura máxima	18.2
177187	7	Sololá	719	Santiago Atitlán	14	Cerro de Oro	10	Octubre	2023-09-10T00:00:00	2024-11-08T03:00:00	3	Temperatura mínima	18
177188	7	Sololá	719	Santiago Atitlán	14	Cerro de Oro	10	Octubre	2023-09-10T00:00:00	2024-11-08T03:00:00	5	Humedad	96
177189	7	Sololá	719	Santiago Atitlán	14	Cerro de Oro	10	Octubre	2023-09-10T00:00:00	2024-11-08T03:00:00	6	Velocidad del viento	1.6
177190	7	Sololá	719	Santiago Atitlán	14	Cerro de Oro	10	Octubre	2023-09-10T00:00:00	2024-11-08T03:00:00	7	Dirección del viento	1.61
177191	7	Sololá	719	Santiago Atitlán	14	Cerro de Oro	10	Octubre	2023-09-10T00:00:00	2024-11-08T03:00:00	1	Precipitación	0
177192	7	Sololá	719	Santiago Atitlán	14	Cerro de Oro	10	Octubre	2023-09-10T00:00:00	2024-11-08T03:00:00	8	Radiación solar	0
177193	7	Sololá	719	Santiago Atitlán	14	Cerro de Oro	10	Octubre	2023-09-10T00:00:00	2024-11-08T04:00:00	2	Temperatura media	17.7
177194	7	Sololá	719	Santiago Atitlán	14	Cerro de Oro	10	Octubre	2023-09-10T00:00:00	2024-11-08T04:00:00	4	Temperatura máxima	18
177195	7	Sololá	719	Santiago Atitlán	14	Cerro de Oro	10	Octubre	2023-09-10T00:00:00	2024-11-08T04:00:00	3	Temperatura mínima	17.5
177196	7	Sololá	719	Santiago Atitlán	14	Cerro de Oro	10	Octubre	2023-09-10T00:00:00	2024-11-08T04:00:00	5	Humedad	96
177197	7	Sololá	719	Santiago Atitlán	14	Cerro de Oro	10	Octubre	2023-09-10T00:00:00	2024-11-08T04:00:00	6	Velocidad del viento	1.6
177198	7	Sololá	719	Santiago Atitlán	14	Cerro de Oro	10	Octubre	2023-09-10T00:00:00	2024-11-08T04:00:00	7	Dirección del viento	1.61
177199	7	Sololá	719	Santiago Atitlán	14	Cerro de Oro	10	Octubre	2023-09-10T00:00:00	2024-11-08T04:00:00	1	Precipitación	0
177200	7	Sololá	719	Santiago Atitlán	14	Cerro de Oro	10	Octubre	2023-09-10T00:00:00	2024-11-08T04:00:00	8	Radiación solar	0
177201	7	Sololá	719	Santiago Atitlán	14	Cerro de Oro	10	Octubre	2023-09-10T00:00:00	2024-11-08T05:00:00	2	Temperatura media	17.5
177202	7	Sololá	719	Santiago Atitlán	14	Cerro de Oro	10	Octubre	2023-09-10T00:00:00	2024-11-08T05:00:00	4	Temperatura máxima	17.7
177203	7	Sololá	719	Santiago Atitlán	14	Cerro de Oro	10	Octubre	2023-09-10T00:00:00	2024-11-08T05:00:00	3	Temperatura mínima	17.3
177204	7	Sololá	719	Santiago Atitlán	14	Cerro de Oro	10	Octubre	2023-09-10T00:00:00	2024-11-08T05:00:00	5	Humedad	94
177205	7	Sololá	719	Santiago Atitlán	14	Cerro de Oro	10	Octubre	2023-09-10T00:00:00	2024-11-08T05:00:00	6	Velocidad del viento	1.6
177206	7	Sololá	719	Santiago Atitlán	14	Cerro de Oro	10	Octubre	2023-09-10T00:00:00	2024-11-08T05:00:00	7	Dirección del viento	1.61
177207	7	Sololá	719	Santiago Atitlán	14	Cerro de Oro	10	Octubre	2023-09-10T00:00:00	2024-11-08T05:00:00	1	Precipitación	0
177208	7	Sololá	719	Santiago Atitlán	14	Cerro de Oro	10	Octubre	2023-09-10T00:00:00	2024-11-08T05:00:00	8	Radiación solar	0
177209	7	Sololá	719	Santiago Atitlán	14	Cerro de Oro	10	Octubre	2023-09-10T00:00:00	2024-11-08T06:00:00	2	Temperatura media	17.9
177210	7	Sololá	719	Santiago Atitlán	14	Cerro de Oro	10	Octubre	2023-09-10T00:00:00	2024-11-08T06:00:00	4	Temperatura máxima	17.9
177211	7	Sololá	719	Santiago Atitlán	14	Cerro de Oro	10	Octubre	2023-09-10T00:00:00	2024-11-08T06:00:00	3	Temperatura mínima	17.5
177212	7	Sololá	719	Santiago Atitlán	14	Cerro de Oro	10	Octubre	2023-09-10T00:00:00	2024-11-08T06:00:00	5	Humedad	94
177213	7	Sololá	719	Santiago Atitlán	14	Cerro de Oro	10	Octubre	2023-09-10T00:00:00	2024-11-08T06:00:00	6	Velocidad del viento	3.2
177214	7	Sololá	719	Santiago Atitlán	14	Cerro de Oro	10	Octubre	2023-09-10T00:00:00	2024-11-08T06:00:00	7	Dirección del viento	3.22
177215	7	Sololá	719	Santiago Atitlán	14	Cerro de Oro	10	Octubre	2023-09-10T00:00:00	2024-11-08T06:00:00	1	Precipitación	0
177216	7	Sololá	719	Santiago Atitlán	14	Cerro de Oro	10	Octubre	2023-09-10T00:00:00	2024-11-08T06:00:00	8	Radiación solar	0
177217	7	Sololá	719	Santiago Atitlán	14	Cerro de Oro	10	Octubre	2023-09-10T00:00:00	2024-11-08T07:00:00	2	Temperatura media	18.1
177218	7	Sololá	719	Santiago Atitlán	14	Cerro de Oro	10	Octubre	2023-09-10T00:00:00	2024-11-08T07:00:00	4	Temperatura máxima	18.1
177219	7	Sololá	719	Santiago Atitlán	14	Cerro de Oro	10	Octubre	2023-09-10T00:00:00	2024-11-08T07:00:00	3	Temperatura mínima	17.7
177220	7	Sololá	719	Santiago Atitlán	14	Cerro de Oro	10	Octubre	2023-09-10T00:00:00	2024-11-08T07:00:00	5	Humedad	95
177221	7	Sololá	719	Santiago Atitlán	14	Cerro de Oro	10	Octubre	2023-09-10T00:00:00	2024-11-08T07:00:00	6	Velocidad del viento	1.6
177222	7	Sololá	719	Santiago Atitlán	14	Cerro de Oro	10	Octubre	2023-09-10T00:00:00	2024-11-08T07:00:00	7	Dirección del viento	1.61
177223	7	Sololá	719	Santiago Atitlán	14	Cerro de Oro	10	Octubre	2023-09-10T00:00:00	2024-11-08T07:00:00	1	Precipitación	0
177224	7	Sololá	719	Santiago Atitlán	14	Cerro de Oro	10	Octubre	2023-09-10T00:00:00	2024-11-08T07:00:00	8	Radiación solar	17
177225	7	Sololá	719	Santiago Atitlán	14	Cerro de Oro	10	Octubre	2023-09-10T00:00:00	2024-11-08T08:00:00	2	Temperatura media	19.2
177226	7	Sololá	719	Santiago Atitlán	14	Cerro de Oro	10	Octubre	2023-09-10T00:00:00	2024-11-08T08:00:00	4	Temperatura máxima	19.2
177227	7	Sololá	719	Santiago Atitlán	14	Cerro de Oro	10	Octubre	2023-09-10T00:00:00	2024-11-08T08:00:00	3	Temperatura mínima	18.1
177228	7	Sololá	719	Santiago Atitlán	14	Cerro de Oro	10	Octubre	2023-09-10T00:00:00	2024-11-08T08:00:00	5	Humedad	93
177229	7	Sololá	719	Santiago Atitlán	14	Cerro de Oro	10	Octubre	2023-09-10T00:00:00	2024-11-08T08:00:00	6	Velocidad del viento	1.6
177230	7	Sololá	719	Santiago Atitlán	14	Cerro de Oro	10	Octubre	2023-09-10T00:00:00	2024-11-08T08:00:00	7	Dirección del viento	1.61
177231	7	Sololá	719	Santiago Atitlán	14	Cerro de Oro	10	Octubre	2023-09-10T00:00:00	2024-11-08T08:00:00	1	Precipitación	0
177232	7	Sololá	719	Santiago Atitlán	14	Cerro de Oro	10	Octubre	2023-09-10T00:00:00	2024-11-08T08:00:00	8	Radiación solar	74
177233	7	Sololá	719	Santiago Atitlán	14	Cerro de Oro	10	Octubre	2023-09-10T00:00:00	2024-11-08T09:00:00	2	Temperatura media	21.8
177234	7	Sololá	719	Santiago Atitlán	14	Cerro de Oro	10	Octubre	2023-09-10T00:00:00	2024-11-08T09:00:00	4	Temperatura máxima	21.8
177235	7	Sololá	719	Santiago Atitlán	14	Cerro de Oro	10	Octubre	2023-09-10T00:00:00	2024-11-08T09:00:00	3	Temperatura mínima	19.2
177236	7	Sololá	719	Santiago Atitlán	14	Cerro de Oro	10	Octubre	2023-09-10T00:00:00	2024-11-08T09:00:00	5	Humedad	81
177237	7	Sololá	719	Santiago Atitlán	14	Cerro de Oro	10	Octubre	2023-09-10T00:00:00	2024-11-08T09:00:00	6	Velocidad del viento	0
177238	7	Sololá	719	Santiago Atitlán	14	Cerro de Oro	10	Octubre	2023-09-10T00:00:00	2024-11-08T09:00:00	7	Dirección del viento	0
177239	7	Sololá	719	Santiago Atitlán	14	Cerro de Oro	10	Octubre	2023-09-10T00:00:00	2024-11-08T09:00:00	1	Precipitación	0
177240	7	Sololá	719	Santiago Atitlán	14	Cerro de Oro	10	Octubre	2023-09-10T00:00:00	2024-11-08T09:00:00	8	Radiación solar	359
177241	7	Sololá	719	Santiago Atitlán	14	Cerro de Oro	10	Octubre	2023-09-10T00:00:00	2024-11-08T10:00:00	2	Temperatura media	22.1
177242	7	Sololá	719	Santiago Atitlán	14	Cerro de Oro	10	Octubre	2023-09-10T00:00:00	2024-11-08T10:00:00	4	Temperatura máxima	22.8
177243	7	Sololá	719	Santiago Atitlán	14	Cerro de Oro	10	Octubre	2023-09-10T00:00:00	2024-11-08T10:00:00	3	Temperatura mínima	21.8
177244	7	Sololá	719	Santiago Atitlán	14	Cerro de Oro	10	Octubre	2023-09-10T00:00:00	2024-11-08T10:00:00	5	Humedad	83
177245	7	Sololá	719	Santiago Atitlán	14	Cerro de Oro	10	Octubre	2023-09-10T00:00:00	2024-11-08T10:00:00	6	Velocidad del viento	3.2
177246	7	Sololá	719	Santiago Atitlán	14	Cerro de Oro	10	Octubre	2023-09-10T00:00:00	2024-11-08T10:00:00	7	Dirección del viento	3.22
177247	7	Sololá	719	Santiago Atitlán	14	Cerro de Oro	10	Octubre	2023-09-10T00:00:00	2024-11-08T10:00:00	1	Precipitación	0
177248	7	Sololá	719	Santiago Atitlán	14	Cerro de Oro	10	Octubre	2023-09-10T00:00:00	2024-11-08T10:00:00	8	Radiación solar	461
177249	7	Sololá	719	Santiago Atitlán	14	Cerro de Oro	10	Octubre	2023-09-10T00:00:00	2024-11-08T11:00:00	2	Temperatura media	23.2
177250	7	Sololá	719	Santiago Atitlán	14	Cerro de Oro	10	Octubre	2023-09-10T00:00:00	2024-11-08T11:00:00	4	Temperatura máxima	23.2
177251	7	Sololá	719	Santiago Atitlán	14	Cerro de Oro	10	Octubre	2023-09-10T00:00:00	2024-11-08T11:00:00	3	Temperatura mínima	22.1
177252	7	Sololá	719	Santiago Atitlán	14	Cerro de Oro	10	Octubre	2023-09-10T00:00:00	2024-11-08T11:00:00	5	Humedad	79
177253	7	Sololá	719	Santiago Atitlán	14	Cerro de Oro	10	Octubre	2023-09-10T00:00:00	2024-11-08T11:00:00	6	Velocidad del viento	3.2
177254	7	Sololá	719	Santiago Atitlán	14	Cerro de Oro	10	Octubre	2023-09-10T00:00:00	2024-11-08T11:00:00	7	Dirección del viento	3.22
177255	7	Sololá	719	Santiago Atitlán	14	Cerro de Oro	10	Octubre	2023-09-10T00:00:00	2024-11-08T11:00:00	1	Precipitación	0
177256	7	Sololá	719	Santiago Atitlán	14	Cerro de Oro	10	Octubre	2023-09-10T00:00:00	2024-11-08T11:00:00	8	Radiación solar	659
177257	7	Sololá	719	Santiago Atitlán	14	Cerro de Oro	10	Octubre	2023-09-10T00:00:00	2024-11-08T12:00:00	2	Temperatura media	23.9
177258	7	Sololá	719	Santiago Atitlán	14	Cerro de Oro	10	Octubre	2023-09-10T00:00:00	2024-11-08T12:00:00	4	Temperatura máxima	23.9
177259	7	Sololá	719	Santiago Atitlán	14	Cerro de Oro	10	Octubre	2023-09-10T00:00:00	2024-11-08T12:00:00	3	Temperatura mínima	23.1
177260	7	Sololá	719	Santiago Atitlán	14	Cerro de Oro	10	Octubre	2023-09-10T00:00:00	2024-11-08T12:00:00	5	Humedad	78
177261	7	Sololá	719	Santiago Atitlán	14	Cerro de Oro	10	Octubre	2023-09-10T00:00:00	2024-11-08T12:00:00	6	Velocidad del viento	3.2
177262	7	Sololá	719	Santiago Atitlán	14	Cerro de Oro	10	Octubre	2023-09-10T00:00:00	2024-11-08T12:00:00	7	Dirección del viento	3.22
177263	7	Sololá	719	Santiago Atitlán	14	Cerro de Oro	10	Octubre	2023-09-10T00:00:00	2024-11-08T12:00:00	1	Precipitación	0
177264	7	Sololá	719	Santiago Atitlán	14	Cerro de Oro	10	Octubre	2023-09-10T00:00:00	2024-11-08T12:00:00	8	Radiación solar	833
177265	7	Sololá	719	Santiago Atitlán	14	Cerro de Oro	10	Octubre	2023-09-10T00:00:00	2024-11-08T13:00:00	2	Temperatura media	21.8
177266	7	Sololá	719	Santiago Atitlán	14	Cerro de Oro	10	Octubre	2023-09-10T00:00:00	2024-11-08T13:00:00	4	Temperatura máxima	24.6
177267	7	Sololá	719	Santiago Atitlán	14	Cerro de Oro	10	Octubre	2023-09-10T00:00:00	2024-11-08T13:00:00	3	Temperatura mínima	21.8
177268	7	Sololá	719	Santiago Atitlán	14	Cerro de Oro	10	Octubre	2023-09-10T00:00:00	2024-11-08T13:00:00	5	Humedad	91
177269	7	Sololá	719	Santiago Atitlán	14	Cerro de Oro	10	Octubre	2023-09-10T00:00:00	2024-11-08T13:00:00	6	Velocidad del viento	8
177270	7	Sololá	719	Santiago Atitlán	14	Cerro de Oro	10	Octubre	2023-09-10T00:00:00	2024-11-08T13:00:00	7	Dirección del viento	8.05
177271	7	Sololá	719	Santiago Atitlán	14	Cerro de Oro	10	Octubre	2023-09-10T00:00:00	2024-11-08T13:00:00	1	Precipitación	0
177272	7	Sololá	719	Santiago Atitlán	14	Cerro de Oro	10	Octubre	2023-09-10T00:00:00	2024-11-08T13:00:00	8	Radiación solar	328
177273	7	Sololá	719	Santiago Atitlán	14	Cerro de Oro	10	Octubre	2023-09-10T00:00:00	2024-11-08T14:00:00	2	Temperatura media	20.5
177274	7	Sololá	719	Santiago Atitlán	14	Cerro de Oro	10	Octubre	2023-09-10T00:00:00	2024-11-08T14:00:00	4	Temperatura máxima	21.8
177275	7	Sololá	719	Santiago Atitlán	14	Cerro de Oro	10	Octubre	2023-09-10T00:00:00	2024-11-08T14:00:00	3	Temperatura mínima	20.5
177276	7	Sololá	719	Santiago Atitlán	14	Cerro de Oro	10	Octubre	2023-09-10T00:00:00	2024-11-08T14:00:00	5	Humedad	95
177277	7	Sololá	719	Santiago Atitlán	14	Cerro de Oro	10	Octubre	2023-09-10T00:00:00	2024-11-08T14:00:00	6	Velocidad del viento	1.6
177278	7	Sololá	719	Santiago Atitlán	14	Cerro de Oro	10	Octubre	2023-09-10T00:00:00	2024-11-08T14:00:00	7	Dirección del viento	1.61
177279	7	Sololá	719	Santiago Atitlán	14	Cerro de Oro	10	Octubre	2023-09-10T00:00:00	2024-11-08T14:00:00	1	Precipitación	3.6
177280	7	Sololá	719	Santiago Atitlán	14	Cerro de Oro	10	Octubre	2023-09-10T00:00:00	2024-11-08T14:00:00	8	Radiación solar	44
177281	7	Sololá	719	Santiago Atitlán	14	Cerro de Oro	10	Octubre	2023-09-10T00:00:00	2024-11-08T15:00:00	2	Temperatura media	20.4
177282	7	Sololá	719	Santiago Atitlán	14	Cerro de Oro	10	Octubre	2023-09-10T00:00:00	2024-11-08T15:00:00	4	Temperatura máxima	20.6
177283	7	Sololá	719	Santiago Atitlán	14	Cerro de Oro	10	Octubre	2023-09-10T00:00:00	2024-11-08T15:00:00	3	Temperatura mínima	20.2
177284	7	Sololá	719	Santiago Atitlán	14	Cerro de Oro	10	Octubre	2023-09-10T00:00:00	2024-11-08T15:00:00	5	Humedad	95
177285	7	Sololá	719	Santiago Atitlán	14	Cerro de Oro	10	Octubre	2023-09-10T00:00:00	2024-11-08T15:00:00	6	Velocidad del viento	0
177286	7	Sololá	719	Santiago Atitlán	14	Cerro de Oro	10	Octubre	2023-09-10T00:00:00	2024-11-08T15:00:00	7	Dirección del viento	0
177287	7	Sololá	719	Santiago Atitlán	14	Cerro de Oro	10	Octubre	2023-09-10T00:00:00	2024-11-08T15:00:00	1	Precipitación	0
177288	7	Sololá	719	Santiago Atitlán	14	Cerro de Oro	10	Octubre	2023-09-10T00:00:00	2024-11-08T15:00:00	8	Radiación solar	63
177289	7	Sololá	719	Santiago Atitlán	14	Cerro de Oro	10	Octubre	2023-09-10T00:00:00	2024-11-08T16:00:00	2	Temperatura media	19.6
177290	7	Sololá	719	Santiago Atitlán	14	Cerro de Oro	10	Octubre	2023-09-10T00:00:00	2024-11-08T16:00:00	4	Temperatura máxima	20.5
177291	7	Sololá	719	Santiago Atitlán	14	Cerro de Oro	10	Octubre	2023-09-10T00:00:00	2024-11-08T16:00:00	3	Temperatura mínima	19.6
177292	7	Sololá	719	Santiago Atitlán	14	Cerro de Oro	10	Octubre	2023-09-10T00:00:00	2024-11-08T16:00:00	5	Humedad	95
177293	7	Sololá	719	Santiago Atitlán	14	Cerro de Oro	10	Octubre	2023-09-10T00:00:00	2024-11-08T16:00:00	6	Velocidad del viento	1.6
177294	7	Sololá	719	Santiago Atitlán	14	Cerro de Oro	10	Octubre	2023-09-10T00:00:00	2024-11-08T16:00:00	7	Dirección del viento	1.61
177295	7	Sololá	719	Santiago Atitlán	14	Cerro de Oro	10	Octubre	2023-09-10T00:00:00	2024-11-08T16:00:00	1	Precipitación	0.2
177296	7	Sololá	719	Santiago Atitlán	14	Cerro de Oro	10	Octubre	2023-09-10T00:00:00	2024-11-08T16:00:00	8	Radiación solar	34
177297	7	Sololá	719	Santiago Atitlán	14	Cerro de Oro	10	Octubre	2023-09-10T00:00:00	2024-11-08T17:00:00	2	Temperatura media	19
177298	7	Sololá	719	Santiago Atitlán	14	Cerro de Oro	10	Octubre	2023-09-10T00:00:00	2024-11-08T17:00:00	4	Temperatura máxima	19.6
177299	7	Sololá	719	Santiago Atitlán	14	Cerro de Oro	10	Octubre	2023-09-10T00:00:00	2024-11-08T17:00:00	3	Temperatura mínima	18.9
177300	7	Sololá	719	Santiago Atitlán	14	Cerro de Oro	10	Octubre	2023-09-10T00:00:00	2024-11-08T17:00:00	5	Humedad	97
177301	7	Sololá	719	Santiago Atitlán	14	Cerro de Oro	10	Octubre	2023-09-10T00:00:00	2024-11-08T17:00:00	6	Velocidad del viento	0
177302	7	Sololá	719	Santiago Atitlán	14	Cerro de Oro	10	Octubre	2023-09-10T00:00:00	2024-11-08T17:00:00	7	Dirección del viento	0
177303	7	Sololá	719	Santiago Atitlán	14	Cerro de Oro	10	Octubre	2023-09-10T00:00:00	2024-11-08T17:00:00	1	Precipitación	1
177304	7	Sololá	719	Santiago Atitlán	14	Cerro de Oro	10	Octubre	2023-09-10T00:00:00	2024-11-08T17:00:00	8	Radiación solar	12
177305	7	Sololá	719	Santiago Atitlán	14	Cerro de Oro	10	Octubre	2023-09-10T00:00:00	2024-11-08T18:00:00	2	Temperatura media	19.1
177306	7	Sololá	719	Santiago Atitlán	14	Cerro de Oro	10	Octubre	2023-09-10T00:00:00	2024-11-08T18:00:00	4	Temperatura máxima	19.1
177307	7	Sololá	719	Santiago Atitlán	14	Cerro de Oro	10	Octubre	2023-09-10T00:00:00	2024-11-08T18:00:00	3	Temperatura mínima	18.8
177308	7	Sololá	719	Santiago Atitlán	14	Cerro de Oro	10	Octubre	2023-09-10T00:00:00	2024-11-08T18:00:00	5	Humedad	97
177309	7	Sololá	719	Santiago Atitlán	14	Cerro de Oro	10	Octubre	2023-09-10T00:00:00	2024-11-08T18:00:00	6	Velocidad del viento	0
177310	7	Sololá	719	Santiago Atitlán	14	Cerro de Oro	10	Octubre	2023-09-10T00:00:00	2024-11-08T18:00:00	7	Dirección del viento	0
177311	7	Sololá	719	Santiago Atitlán	14	Cerro de Oro	10	Octubre	2023-09-10T00:00:00	2024-11-08T18:00:00	1	Precipitación	0.2
177312	7	Sololá	719	Santiago Atitlán	14	Cerro de Oro	10	Octubre	2023-09-10T00:00:00	2024-11-08T18:00:00	8	Radiación solar	0
177313	7	Sololá	719	Santiago Atitlán	14	Cerro de Oro	10	Octubre	2023-09-10T00:00:00	2024-11-08T19:00:00	2	Temperatura media	18.9
177314	7	Sololá	719	Santiago Atitlán	14	Cerro de Oro	10	Octubre	2023-09-10T00:00:00	2024-11-08T19:00:00	4	Temperatura máxima	19.1
177315	7	Sololá	719	Santiago Atitlán	14	Cerro de Oro	10	Octubre	2023-09-10T00:00:00	2024-11-08T19:00:00	3	Temperatura mínima	18.8
177316	7	Sololá	719	Santiago Atitlán	14	Cerro de Oro	10	Octubre	2023-09-10T00:00:00	2024-11-08T19:00:00	5	Humedad	97
177317	7	Sololá	719	Santiago Atitlán	14	Cerro de Oro	10	Octubre	2023-09-10T00:00:00	2024-11-08T19:00:00	6	Velocidad del viento	0
177318	7	Sololá	719	Santiago Atitlán	14	Cerro de Oro	10	Octubre	2023-09-10T00:00:00	2024-11-08T19:00:00	7	Dirección del viento	0
177319	7	Sololá	719	Santiago Atitlán	14	Cerro de Oro	10	Octubre	2023-09-10T00:00:00	2024-11-08T19:00:00	1	Precipitación	0
177320	7	Sololá	719	Santiago Atitlán	14	Cerro de Oro	10	Octubre	2023-09-10T00:00:00	2024-11-08T19:00:00	8	Radiación solar	0
177321	7	Sololá	719	Santiago Atitlán	14	Cerro de Oro	10	Octubre	2023-09-10T00:00:00	2024-11-08T20:00:00	2	Temperatura media	18.8
177322	7	Sololá	719	Santiago Atitlán	14	Cerro de Oro	10	Octubre	2023-09-10T00:00:00	2024-11-08T20:00:00	4	Temperatura máxima	18.9
177323	7	Sololá	719	Santiago Atitlán	14	Cerro de Oro	10	Octubre	2023-09-10T00:00:00	2024-11-08T20:00:00	3	Temperatura mínima	18.8
177324	7	Sololá	719	Santiago Atitlán	14	Cerro de Oro	10	Octubre	2023-09-10T00:00:00	2024-11-08T20:00:00	5	Humedad	97
177325	7	Sololá	719	Santiago Atitlán	14	Cerro de Oro	10	Octubre	2023-09-10T00:00:00	2024-11-08T20:00:00	6	Velocidad del viento	0
177326	7	Sololá	719	Santiago Atitlán	14	Cerro de Oro	10	Octubre	2023-09-10T00:00:00	2024-11-08T20:00:00	7	Dirección del viento	0
177327	7	Sololá	719	Santiago Atitlán	14	Cerro de Oro	10	Octubre	2023-09-10T00:00:00	2024-11-08T20:00:00	1	Precipitación	0
177328	7	Sololá	719	Santiago Atitlán	14	Cerro de Oro	10	Octubre	2023-09-10T00:00:00	2024-11-08T20:00:00	8	Radiación solar	0
177329	7	Sololá	719	Santiago Atitlán	14	Cerro de Oro	10	Octubre	2023-09-10T00:00:00	2024-11-08T21:00:00	2	Temperatura media	18.6
177330	7	Sololá	719	Santiago Atitlán	14	Cerro de Oro	10	Octubre	2023-09-10T00:00:00	2024-11-08T21:00:00	4	Temperatura máxima	18.9
177331	7	Sololá	719	Santiago Atitlán	14	Cerro de Oro	10	Octubre	2023-09-10T00:00:00	2024-11-08T21:00:00	3	Temperatura mínima	18.6
177332	7	Sololá	719	Santiago Atitlán	14	Cerro de Oro	10	Octubre	2023-09-10T00:00:00	2024-11-08T21:00:00	5	Humedad	96
177333	7	Sololá	719	Santiago Atitlán	14	Cerro de Oro	10	Octubre	2023-09-10T00:00:00	2024-11-08T21:00:00	6	Velocidad del viento	1.6
177334	7	Sololá	719	Santiago Atitlán	14	Cerro de Oro	10	Octubre	2023-09-10T00:00:00	2024-11-08T21:00:00	7	Dirección del viento	1.61
177335	7	Sololá	719	Santiago Atitlán	14	Cerro de Oro	10	Octubre	2023-09-10T00:00:00	2024-11-08T21:00:00	1	Precipitación	0
177336	7	Sololá	719	Santiago Atitlán	14	Cerro de Oro	10	Octubre	2023-09-10T00:00:00	2024-11-08T21:00:00	8	Radiación solar	0
177337	7	Sololá	719	Santiago Atitlán	14	Cerro de Oro	10	Octubre	2023-09-10T00:00:00	2024-11-08T22:00:00	2	Temperatura media	18.3
177338	7	Sololá	719	Santiago Atitlán	14	Cerro de Oro	10	Octubre	2023-09-10T00:00:00	2024-11-08T22:00:00	4	Temperatura máxima	18.6
177339	7	Sololá	719	Santiago Atitlán	14	Cerro de Oro	10	Octubre	2023-09-10T00:00:00	2024-11-08T22:00:00	3	Temperatura mínima	18.3
177340	7	Sololá	719	Santiago Atitlán	14	Cerro de Oro	10	Octubre	2023-09-10T00:00:00	2024-11-08T22:00:00	5	Humedad	97
177341	7	Sololá	719	Santiago Atitlán	14	Cerro de Oro	10	Octubre	2023-09-10T00:00:00	2024-11-08T22:00:00	6	Velocidad del viento	1.6
177342	7	Sololá	719	Santiago Atitlán	14	Cerro de Oro	10	Octubre	2023-09-10T00:00:00	2024-11-08T22:00:00	7	Dirección del viento	1.61
177343	7	Sololá	719	Santiago Atitlán	14	Cerro de Oro	10	Octubre	2023-09-10T00:00:00	2024-11-08T22:00:00	1	Precipitación	0
177344	7	Sololá	719	Santiago Atitlán	14	Cerro de Oro	10	Octubre	2023-09-10T00:00:00	2024-11-08T22:00:00	8	Radiación solar	0
177345	7	Sololá	719	Santiago Atitlán	14	Cerro de Oro	10	Octubre	2023-09-10T00:00:00	2024-11-08T23:00:00	2	Temperatura media	18.6
177346	7	Sololá	719	Santiago Atitlán	14	Cerro de Oro	10	Octubre	2023-09-10T00:00:00	2024-11-08T23:00:00	4	Temperatura máxima	18.6
177347	7	Sololá	719	Santiago Atitlán	14	Cerro de Oro	10	Octubre	2023-09-10T00:00:00	2024-11-08T23:00:00	3	Temperatura mínima	18.3
177348	7	Sololá	719	Santiago Atitlán	14	Cerro de Oro	10	Octubre	2023-09-10T00:00:00	2024-11-08T23:00:00	5	Humedad	96
177349	7	Sololá	719	Santiago Atitlán	14	Cerro de Oro	10	Octubre	2023-09-10T00:00:00	2024-11-08T23:00:00	6	Velocidad del viento	1.6
177350	7	Sololá	719	Santiago Atitlán	14	Cerro de Oro	10	Octubre	2023-09-10T00:00:00	2024-11-08T23:00:00	7	Dirección del viento	1.61
177351	7	Sololá	719	Santiago Atitlán	14	Cerro de Oro	10	Octubre	2023-09-10T00:00:00	2024-11-08T23:00:00	1	Precipitación	1.4
177352	7	Sololá	719	Santiago Atitlán	14	Cerro de Oro	10	Octubre	2023-09-10T00:00:00	2024-11-08T23:00:00	8	Radiación solar	0
177353	7	Sololá	719	Santiago Atitlán	14	Cerro de Oro	10	Octubre	2023-10-10T00:00:00	2024-11-08T00:00:00	2	Temperatura media	18.3
177354	7	Sololá	719	Santiago Atitlán	14	Cerro de Oro	10	Octubre	2023-10-10T00:00:00	2024-11-08T00:00:00	4	Temperatura máxima	18.6
177355	7	Sololá	719	Santiago Atitlán	14	Cerro de Oro	10	Octubre	2023-10-10T00:00:00	2024-11-08T00:00:00	3	Temperatura mínima	18.2
177356	7	Sololá	719	Santiago Atitlán	14	Cerro de Oro	10	Octubre	2023-10-10T00:00:00	2024-11-08T00:00:00	5	Humedad	97
177357	7	Sololá	719	Santiago Atitlán	14	Cerro de Oro	10	Octubre	2023-10-10T00:00:00	2024-11-08T00:00:00	6	Velocidad del viento	0
177358	7	Sololá	719	Santiago Atitlán	14	Cerro de Oro	10	Octubre	2023-10-10T00:00:00	2024-11-08T00:00:00	7	Dirección del viento	0
177359	7	Sololá	719	Santiago Atitlán	14	Cerro de Oro	10	Octubre	2023-10-10T00:00:00	2024-11-08T00:00:00	1	Precipitación	0.6
177360	7	Sololá	719	Santiago Atitlán	14	Cerro de Oro	10	Octubre	2023-10-10T00:00:00	2024-11-08T00:00:00	8	Radiación solar	0
177361	7	Sololá	719	Santiago Atitlán	14	Cerro de Oro	10	Octubre	2023-10-10T00:00:00	2024-11-08T01:00:00	2	Temperatura media	17.9
177362	7	Sololá	719	Santiago Atitlán	14	Cerro de Oro	10	Octubre	2023-10-10T00:00:00	2024-11-08T01:00:00	4	Temperatura máxima	18.3
177363	7	Sololá	719	Santiago Atitlán	14	Cerro de Oro	10	Octubre	2023-10-10T00:00:00	2024-11-08T01:00:00	3	Temperatura mínima	17.9
177364	7	Sololá	719	Santiago Atitlán	14	Cerro de Oro	10	Octubre	2023-10-10T00:00:00	2024-11-08T01:00:00	5	Humedad	97
177365	7	Sololá	719	Santiago Atitlán	14	Cerro de Oro	10	Octubre	2023-10-10T00:00:00	2024-11-08T01:00:00	6	Velocidad del viento	0
177366	7	Sololá	719	Santiago Atitlán	14	Cerro de Oro	10	Octubre	2023-10-10T00:00:00	2024-11-08T01:00:00	7	Dirección del viento	0
177367	7	Sololá	719	Santiago Atitlán	14	Cerro de Oro	10	Octubre	2023-10-10T00:00:00	2024-11-08T01:00:00	1	Precipitación	0
177368	7	Sololá	719	Santiago Atitlán	14	Cerro de Oro	10	Octubre	2023-10-10T00:00:00	2024-11-08T01:00:00	8	Radiación solar	0
177369	7	Sololá	719	Santiago Atitlán	14	Cerro de Oro	10	Octubre	2023-10-10T00:00:00	2024-11-08T02:00:00	2	Temperatura media	17.6
177370	7	Sololá	719	Santiago Atitlán	14	Cerro de Oro	10	Octubre	2023-10-10T00:00:00	2024-11-08T02:00:00	4	Temperatura máxima	18
177371	7	Sololá	719	Santiago Atitlán	14	Cerro de Oro	10	Octubre	2023-10-10T00:00:00	2024-11-08T02:00:00	3	Temperatura mínima	17.6
177372	7	Sololá	719	Santiago Atitlán	14	Cerro de Oro	10	Octubre	2023-10-10T00:00:00	2024-11-08T02:00:00	5	Humedad	97
177373	7	Sololá	719	Santiago Atitlán	14	Cerro de Oro	10	Octubre	2023-10-10T00:00:00	2024-11-08T02:00:00	6	Velocidad del viento	1.6
177374	7	Sololá	719	Santiago Atitlán	14	Cerro de Oro	10	Octubre	2023-10-10T00:00:00	2024-11-08T02:00:00	7	Dirección del viento	1.61
177375	7	Sololá	719	Santiago Atitlán	14	Cerro de Oro	10	Octubre	2023-10-10T00:00:00	2024-11-08T02:00:00	1	Precipitación	0
177376	7	Sololá	719	Santiago Atitlán	14	Cerro de Oro	10	Octubre	2023-10-10T00:00:00	2024-11-08T02:00:00	8	Radiación solar	0
177377	7	Sololá	719	Santiago Atitlán	14	Cerro de Oro	10	Octubre	2023-10-10T00:00:00	2024-11-08T03:00:00	2	Temperatura media	17.2
177378	7	Sololá	719	Santiago Atitlán	14	Cerro de Oro	10	Octubre	2023-10-10T00:00:00	2024-11-08T03:00:00	4	Temperatura máxima	17.6
177379	7	Sololá	719	Santiago Atitlán	14	Cerro de Oro	10	Octubre	2023-10-10T00:00:00	2024-11-08T03:00:00	3	Temperatura mínima	17.2
177380	7	Sololá	719	Santiago Atitlán	14	Cerro de Oro	10	Octubre	2023-10-10T00:00:00	2024-11-08T03:00:00	5	Humedad	96
177381	7	Sololá	719	Santiago Atitlán	14	Cerro de Oro	10	Octubre	2023-10-10T00:00:00	2024-11-08T03:00:00	6	Velocidad del viento	0
177382	7	Sololá	719	Santiago Atitlán	14	Cerro de Oro	10	Octubre	2023-10-10T00:00:00	2024-11-08T03:00:00	7	Dirección del viento	0
177383	7	Sololá	719	Santiago Atitlán	14	Cerro de Oro	10	Octubre	2023-10-10T00:00:00	2024-11-08T03:00:00	1	Precipitación	0
177384	7	Sololá	719	Santiago Atitlán	14	Cerro de Oro	10	Octubre	2023-10-10T00:00:00	2024-11-08T03:00:00	8	Radiación solar	0
177385	7	Sololá	719	Santiago Atitlán	14	Cerro de Oro	10	Octubre	2023-10-10T00:00:00	2024-11-08T04:00:00	2	Temperatura media	16.8
177386	7	Sololá	719	Santiago Atitlán	14	Cerro de Oro	10	Octubre	2023-10-10T00:00:00	2024-11-08T04:00:00	4	Temperatura máxima	17.2
177387	7	Sololá	719	Santiago Atitlán	14	Cerro de Oro	10	Octubre	2023-10-10T00:00:00	2024-11-08T04:00:00	3	Temperatura mínima	16.8
177388	7	Sololá	719	Santiago Atitlán	14	Cerro de Oro	10	Octubre	2023-10-10T00:00:00	2024-11-08T04:00:00	5	Humedad	97
177389	7	Sololá	719	Santiago Atitlán	14	Cerro de Oro	10	Octubre	2023-10-10T00:00:00	2024-11-08T04:00:00	6	Velocidad del viento	1.6
177390	7	Sololá	719	Santiago Atitlán	14	Cerro de Oro	10	Octubre	2023-10-10T00:00:00	2024-11-08T04:00:00	7	Dirección del viento	1.61
177391	7	Sololá	719	Santiago Atitlán	14	Cerro de Oro	10	Octubre	2023-10-10T00:00:00	2024-11-08T04:00:00	1	Precipitación	0
177392	7	Sololá	719	Santiago Atitlán	14	Cerro de Oro	10	Octubre	2023-10-10T00:00:00	2024-11-08T04:00:00	8	Radiación solar	0
177393	7	Sololá	719	Santiago Atitlán	14	Cerro de Oro	10	Octubre	2023-10-10T00:00:00	2024-11-08T05:00:00	2	Temperatura media	17.1
177394	7	Sololá	719	Santiago Atitlán	14	Cerro de Oro	10	Octubre	2023-10-10T00:00:00	2024-11-08T05:00:00	4	Temperatura máxima	17.1
177395	7	Sololá	719	Santiago Atitlán	14	Cerro de Oro	10	Octubre	2023-10-10T00:00:00	2024-11-08T05:00:00	3	Temperatura mínima	16.8
177396	7	Sololá	719	Santiago Atitlán	14	Cerro de Oro	10	Octubre	2023-10-10T00:00:00	2024-11-08T05:00:00	5	Humedad	95
177397	7	Sololá	719	Santiago Atitlán	14	Cerro de Oro	10	Octubre	2023-10-10T00:00:00	2024-11-08T05:00:00	6	Velocidad del viento	1.6
177398	7	Sololá	719	Santiago Atitlán	14	Cerro de Oro	10	Octubre	2023-10-10T00:00:00	2024-11-08T05:00:00	7	Dirección del viento	1.61
177399	7	Sololá	719	Santiago Atitlán	14	Cerro de Oro	10	Octubre	2023-10-10T00:00:00	2024-11-08T05:00:00	1	Precipitación	0
177400	7	Sololá	719	Santiago Atitlán	14	Cerro de Oro	10	Octubre	2023-10-10T00:00:00	2024-11-08T05:00:00	8	Radiación solar	0
177401	7	Sololá	719	Santiago Atitlán	14	Cerro de Oro	10	Octubre	2023-10-10T00:00:00	2024-11-08T06:00:00	2	Temperatura media	17.2
177402	7	Sololá	719	Santiago Atitlán	14	Cerro de Oro	10	Octubre	2023-10-10T00:00:00	2024-11-08T06:00:00	4	Temperatura máxima	17.3
177403	7	Sololá	719	Santiago Atitlán	14	Cerro de Oro	10	Octubre	2023-10-10T00:00:00	2024-11-08T06:00:00	3	Temperatura mínima	17
177404	7	Sololá	719	Santiago Atitlán	14	Cerro de Oro	10	Octubre	2023-10-10T00:00:00	2024-11-08T06:00:00	5	Humedad	92
177405	7	Sololá	719	Santiago Atitlán	14	Cerro de Oro	10	Octubre	2023-10-10T00:00:00	2024-11-08T06:00:00	6	Velocidad del viento	3.2
177406	7	Sololá	719	Santiago Atitlán	14	Cerro de Oro	10	Octubre	2023-10-10T00:00:00	2024-11-08T06:00:00	7	Dirección del viento	3.22
177407	7	Sololá	719	Santiago Atitlán	14	Cerro de Oro	10	Octubre	2023-10-10T00:00:00	2024-11-08T06:00:00	1	Precipitación	0
177408	7	Sololá	719	Santiago Atitlán	14	Cerro de Oro	10	Octubre	2023-10-10T00:00:00	2024-11-08T06:00:00	8	Radiación solar	0
177409	7	Sololá	719	Santiago Atitlán	14	Cerro de Oro	10	Octubre	2023-10-10T00:00:00	2024-11-08T07:00:00	2	Temperatura media	17.8
177410	7	Sololá	719	Santiago Atitlán	14	Cerro de Oro	10	Octubre	2023-10-10T00:00:00	2024-11-08T07:00:00	4	Temperatura máxima	17.8
177411	7	Sololá	719	Santiago Atitlán	14	Cerro de Oro	10	Octubre	2023-10-10T00:00:00	2024-11-08T07:00:00	3	Temperatura mínima	17.1
177412	7	Sololá	719	Santiago Atitlán	14	Cerro de Oro	10	Octubre	2023-10-10T00:00:00	2024-11-08T07:00:00	5	Humedad	91
177413	7	Sololá	719	Santiago Atitlán	14	Cerro de Oro	10	Octubre	2023-10-10T00:00:00	2024-11-08T07:00:00	6	Velocidad del viento	3.2
177414	7	Sololá	719	Santiago Atitlán	14	Cerro de Oro	10	Octubre	2023-10-10T00:00:00	2024-11-08T07:00:00	7	Dirección del viento	3.22
177415	7	Sololá	719	Santiago Atitlán	14	Cerro de Oro	10	Octubre	2023-10-10T00:00:00	2024-11-08T07:00:00	1	Precipitación	0
177416	7	Sololá	719	Santiago Atitlán	14	Cerro de Oro	10	Octubre	2023-10-10T00:00:00	2024-11-08T07:00:00	8	Radiación solar	49
177417	7	Sololá	719	Santiago Atitlán	14	Cerro de Oro	10	Octubre	2023-10-10T00:00:00	2024-11-08T08:00:00	2	Temperatura media	20.9
177418	7	Sololá	719	Santiago Atitlán	14	Cerro de Oro	10	Octubre	2023-10-10T00:00:00	2024-11-08T08:00:00	4	Temperatura máxima	20.9
177419	7	Sololá	719	Santiago Atitlán	14	Cerro de Oro	10	Octubre	2023-10-10T00:00:00	2024-11-08T08:00:00	3	Temperatura mínima	17.8
177420	7	Sololá	719	Santiago Atitlán	14	Cerro de Oro	10	Octubre	2023-10-10T00:00:00	2024-11-08T08:00:00	5	Humedad	86
177421	7	Sololá	719	Santiago Atitlán	14	Cerro de Oro	10	Octubre	2023-10-10T00:00:00	2024-11-08T08:00:00	6	Velocidad del viento	0
177422	7	Sololá	719	Santiago Atitlán	14	Cerro de Oro	10	Octubre	2023-10-10T00:00:00	2024-11-08T08:00:00	7	Dirección del viento	0
177423	7	Sololá	719	Santiago Atitlán	14	Cerro de Oro	10	Octubre	2023-10-10T00:00:00	2024-11-08T08:00:00	1	Precipitación	0
177424	7	Sololá	719	Santiago Atitlán	14	Cerro de Oro	10	Octubre	2023-10-10T00:00:00	2024-11-08T08:00:00	8	Radiación solar	283
177425	7	Sololá	719	Santiago Atitlán	14	Cerro de Oro	10	Octubre	2023-10-10T00:00:00	2024-11-08T09:00:00	2	Temperatura media	21.4
177426	7	Sololá	719	Santiago Atitlán	14	Cerro de Oro	10	Octubre	2023-10-10T00:00:00	2024-11-08T09:00:00	4	Temperatura máxima	21.5
177427	7	Sololá	719	Santiago Atitlán	14	Cerro de Oro	10	Octubre	2023-10-10T00:00:00	2024-11-08T09:00:00	3	Temperatura mínima	20.9
177428	7	Sololá	719	Santiago Atitlán	14	Cerro de Oro	10	Octubre	2023-10-10T00:00:00	2024-11-08T09:00:00	5	Humedad	86
177429	7	Sololá	719	Santiago Atitlán	14	Cerro de Oro	10	Octubre	2023-10-10T00:00:00	2024-11-08T09:00:00	6	Velocidad del viento	1.6
177430	7	Sololá	719	Santiago Atitlán	14	Cerro de Oro	10	Octubre	2023-10-10T00:00:00	2024-11-08T09:00:00	7	Dirección del viento	1.61
177431	7	Sololá	719	Santiago Atitlán	14	Cerro de Oro	10	Octubre	2023-10-10T00:00:00	2024-11-08T09:00:00	1	Precipitación	0
177432	7	Sololá	719	Santiago Atitlán	14	Cerro de Oro	10	Octubre	2023-10-10T00:00:00	2024-11-08T09:00:00	8	Radiación solar	553
177433	7	Sololá	719	Santiago Atitlán	14	Cerro de Oro	10	Octubre	2023-10-10T00:00:00	2024-11-08T10:00:00	2	Temperatura media	22.8
177434	7	Sololá	719	Santiago Atitlán	14	Cerro de Oro	10	Octubre	2023-10-10T00:00:00	2024-11-08T10:00:00	4	Temperatura máxima	22.8
177435	7	Sololá	719	Santiago Atitlán	14	Cerro de Oro	10	Octubre	2023-10-10T00:00:00	2024-11-08T10:00:00	3	Temperatura mínima	21.3
177436	7	Sololá	719	Santiago Atitlán	14	Cerro de Oro	10	Octubre	2023-10-10T00:00:00	2024-11-08T10:00:00	5	Humedad	81
177437	7	Sololá	719	Santiago Atitlán	14	Cerro de Oro	10	Octubre	2023-10-10T00:00:00	2024-11-08T10:00:00	6	Velocidad del viento	1.6
177438	7	Sololá	719	Santiago Atitlán	14	Cerro de Oro	10	Octubre	2023-10-10T00:00:00	2024-11-08T10:00:00	7	Dirección del viento	1.61
177439	7	Sololá	719	Santiago Atitlán	14	Cerro de Oro	10	Octubre	2023-10-10T00:00:00	2024-11-08T10:00:00	1	Precipitación	0
177440	7	Sololá	719	Santiago Atitlán	14	Cerro de Oro	10	Octubre	2023-10-10T00:00:00	2024-11-08T10:00:00	8	Radiación solar	700
177441	7	Sololá	719	Santiago Atitlán	14	Cerro de Oro	10	Octubre	2023-10-10T00:00:00	2024-11-08T11:00:00	2	Temperatura media	23.4
177442	7	Sololá	719	Santiago Atitlán	14	Cerro de Oro	10	Octubre	2023-10-10T00:00:00	2024-11-08T11:00:00	4	Temperatura máxima	23.4
177443	7	Sololá	719	Santiago Atitlán	14	Cerro de Oro	10	Octubre	2023-10-10T00:00:00	2024-11-08T11:00:00	3	Temperatura mínima	22.4
177444	7	Sololá	719	Santiago Atitlán	14	Cerro de Oro	10	Octubre	2023-10-10T00:00:00	2024-11-08T11:00:00	5	Humedad	79
177445	7	Sololá	719	Santiago Atitlán	14	Cerro de Oro	10	Octubre	2023-10-10T00:00:00	2024-11-08T11:00:00	6	Velocidad del viento	3.2
177446	7	Sololá	719	Santiago Atitlán	14	Cerro de Oro	10	Octubre	2023-10-10T00:00:00	2024-11-08T11:00:00	7	Dirección del viento	3.22
177447	7	Sololá	719	Santiago Atitlán	14	Cerro de Oro	10	Octubre	2023-10-10T00:00:00	2024-11-08T11:00:00	1	Precipitación	0
177448	7	Sololá	719	Santiago Atitlán	14	Cerro de Oro	10	Octubre	2023-10-10T00:00:00	2024-11-08T11:00:00	8	Radiación solar	774
177449	7	Sololá	719	Santiago Atitlán	14	Cerro de Oro	10	Octubre	2023-10-10T00:00:00	2024-11-08T12:00:00	2	Temperatura media	24.1
177450	7	Sololá	719	Santiago Atitlán	14	Cerro de Oro	10	Octubre	2023-10-10T00:00:00	2024-11-08T12:00:00	4	Temperatura máxima	24.7
177451	7	Sololá	719	Santiago Atitlán	14	Cerro de Oro	10	Octubre	2023-10-10T00:00:00	2024-11-08T12:00:00	3	Temperatura mínima	23.4
177452	7	Sololá	719	Santiago Atitlán	14	Cerro de Oro	10	Octubre	2023-10-10T00:00:00	2024-11-08T12:00:00	5	Humedad	82
177453	7	Sololá	719	Santiago Atitlán	14	Cerro de Oro	10	Octubre	2023-10-10T00:00:00	2024-11-08T12:00:00	6	Velocidad del viento	4.8
177454	7	Sololá	719	Santiago Atitlán	14	Cerro de Oro	10	Octubre	2023-10-10T00:00:00	2024-11-08T12:00:00	7	Dirección del viento	4.83
177455	7	Sololá	719	Santiago Atitlán	14	Cerro de Oro	10	Octubre	2023-10-10T00:00:00	2024-11-08T12:00:00	1	Precipitación	0
177456	7	Sololá	719	Santiago Atitlán	14	Cerro de Oro	10	Octubre	2023-10-10T00:00:00	2024-11-08T12:00:00	8	Radiación solar	877
177457	7	Sololá	719	Santiago Atitlán	14	Cerro de Oro	10	Octubre	2023-10-10T00:00:00	2024-11-08T13:00:00	2	Temperatura media	24.3
177458	7	Sololá	719	Santiago Atitlán	14	Cerro de Oro	10	Octubre	2023-10-10T00:00:00	2024-11-08T13:00:00	4	Temperatura máxima	24.8
177459	7	Sololá	719	Santiago Atitlán	14	Cerro de Oro	10	Octubre	2023-10-10T00:00:00	2024-11-08T13:00:00	3	Temperatura mínima	23.9
177460	7	Sololá	719	Santiago Atitlán	14	Cerro de Oro	10	Octubre	2023-10-10T00:00:00	2024-11-08T13:00:00	5	Humedad	80
177461	7	Sololá	719	Santiago Atitlán	14	Cerro de Oro	10	Octubre	2023-10-10T00:00:00	2024-11-08T13:00:00	6	Velocidad del viento	4.8
177462	7	Sololá	719	Santiago Atitlán	14	Cerro de Oro	10	Octubre	2023-10-10T00:00:00	2024-11-08T13:00:00	7	Dirección del viento	4.83
177463	7	Sololá	719	Santiago Atitlán	14	Cerro de Oro	10	Octubre	2023-10-10T00:00:00	2024-11-08T13:00:00	1	Precipitación	0
177464	7	Sololá	719	Santiago Atitlán	14	Cerro de Oro	10	Octubre	2023-10-10T00:00:00	2024-11-08T13:00:00	8	Radiación solar	887
177465	7	Sololá	719	Santiago Atitlán	14	Cerro de Oro	10	Octubre	2023-10-10T00:00:00	2024-11-08T14:00:00	2	Temperatura media	23.1
177466	7	Sololá	719	Santiago Atitlán	14	Cerro de Oro	10	Octubre	2023-10-10T00:00:00	2024-11-08T14:00:00	4	Temperatura máxima	24.4
177467	7	Sololá	719	Santiago Atitlán	14	Cerro de Oro	10	Octubre	2023-10-10T00:00:00	2024-11-08T14:00:00	3	Temperatura mínima	23
177468	7	Sololá	719	Santiago Atitlán	14	Cerro de Oro	10	Octubre	2023-10-10T00:00:00	2024-11-08T14:00:00	5	Humedad	83
177469	7	Sololá	719	Santiago Atitlán	14	Cerro de Oro	10	Octubre	2023-10-10T00:00:00	2024-11-08T14:00:00	6	Velocidad del viento	3.2
177470	7	Sololá	719	Santiago Atitlán	14	Cerro de Oro	10	Octubre	2023-10-10T00:00:00	2024-11-08T14:00:00	7	Dirección del viento	3.22
177471	7	Sololá	719	Santiago Atitlán	14	Cerro de Oro	10	Octubre	2023-10-10T00:00:00	2024-11-08T14:00:00	1	Precipitación	0
177472	7	Sololá	719	Santiago Atitlán	14	Cerro de Oro	10	Octubre	2023-10-10T00:00:00	2024-11-08T14:00:00	8	Radiación solar	536
177473	7	Sololá	719	Santiago Atitlán	14	Cerro de Oro	10	Octubre	2023-10-10T00:00:00	2024-11-08T15:00:00	2	Temperatura media	22.6
177474	7	Sololá	719	Santiago Atitlán	14	Cerro de Oro	10	Octubre	2023-10-10T00:00:00	2024-11-08T15:00:00	4	Temperatura máxima	23.6
177475	7	Sololá	719	Santiago Atitlán	14	Cerro de Oro	10	Octubre	2023-10-10T00:00:00	2024-11-08T15:00:00	3	Temperatura mínima	22.5
177476	7	Sololá	719	Santiago Atitlán	14	Cerro de Oro	10	Octubre	2023-10-10T00:00:00	2024-11-08T15:00:00	5	Humedad	86
177477	7	Sololá	719	Santiago Atitlán	14	Cerro de Oro	10	Octubre	2023-10-10T00:00:00	2024-11-08T15:00:00	6	Velocidad del viento	4.8
177478	7	Sololá	719	Santiago Atitlán	14	Cerro de Oro	10	Octubre	2023-10-10T00:00:00	2024-11-08T15:00:00	7	Dirección del viento	4.83
177479	7	Sololá	719	Santiago Atitlán	14	Cerro de Oro	10	Octubre	2023-10-10T00:00:00	2024-11-08T15:00:00	1	Precipitación	0
177480	7	Sololá	719	Santiago Atitlán	14	Cerro de Oro	10	Octubre	2023-10-10T00:00:00	2024-11-08T15:00:00	8	Radiación solar	338
177481	7	Sololá	719	Santiago Atitlán	14	Cerro de Oro	10	Octubre	2023-10-10T00:00:00	2024-11-08T16:00:00	2	Temperatura media	22.1
177482	7	Sololá	719	Santiago Atitlán	14	Cerro de Oro	10	Octubre	2023-10-10T00:00:00	2024-11-08T16:00:00	4	Temperatura máxima	22.5
177483	7	Sololá	719	Santiago Atitlán	14	Cerro de Oro	10	Octubre	2023-10-10T00:00:00	2024-11-08T16:00:00	3	Temperatura mínima	22
177484	7	Sololá	719	Santiago Atitlán	14	Cerro de Oro	10	Octubre	2023-10-10T00:00:00	2024-11-08T16:00:00	5	Humedad	87
177485	7	Sololá	719	Santiago Atitlán	14	Cerro de Oro	10	Octubre	2023-10-10T00:00:00	2024-11-08T16:00:00	6	Velocidad del viento	3.2
177486	7	Sololá	719	Santiago Atitlán	14	Cerro de Oro	10	Octubre	2023-10-10T00:00:00	2024-11-08T16:00:00	7	Dirección del viento	3.22
177487	7	Sololá	719	Santiago Atitlán	14	Cerro de Oro	10	Octubre	2023-10-10T00:00:00	2024-11-08T16:00:00	1	Precipitación	0
177488	7	Sololá	719	Santiago Atitlán	14	Cerro de Oro	10	Octubre	2023-10-10T00:00:00	2024-11-08T16:00:00	8	Radiación solar	167
177489	7	Sololá	719	Santiago Atitlán	14	Cerro de Oro	10	Octubre	2023-10-10T00:00:00	2024-11-08T17:00:00	2	Temperatura media	20.5
177490	7	Sololá	719	Santiago Atitlán	14	Cerro de Oro	10	Octubre	2023-10-10T00:00:00	2024-11-08T17:00:00	4	Temperatura máxima	22.1
177491	7	Sololá	719	Santiago Atitlán	14	Cerro de Oro	10	Octubre	2023-10-10T00:00:00	2024-11-08T17:00:00	3	Temperatura mínima	20.4
177492	7	Sololá	719	Santiago Atitlán	14	Cerro de Oro	10	Octubre	2023-10-10T00:00:00	2024-11-08T17:00:00	5	Humedad	93
177493	7	Sololá	719	Santiago Atitlán	14	Cerro de Oro	10	Octubre	2023-10-10T00:00:00	2024-11-08T17:00:00	6	Velocidad del viento	3.2
177494	7	Sololá	719	Santiago Atitlán	14	Cerro de Oro	10	Octubre	2023-10-10T00:00:00	2024-11-08T17:00:00	7	Dirección del viento	3.22
177495	7	Sololá	719	Santiago Atitlán	14	Cerro de Oro	10	Octubre	2023-10-10T00:00:00	2024-11-08T17:00:00	1	Precipitación	0
177496	7	Sololá	719	Santiago Atitlán	14	Cerro de Oro	10	Octubre	2023-10-10T00:00:00	2024-11-08T17:00:00	8	Radiación solar	53
177497	7	Sololá	719	Santiago Atitlán	14	Cerro de Oro	10	Octubre	2023-10-10T00:00:00	2024-11-08T18:00:00	2	Temperatura media	20.2
177498	7	Sololá	719	Santiago Atitlán	14	Cerro de Oro	10	Octubre	2023-10-10T00:00:00	2024-11-08T18:00:00	4	Temperatura máxima	20.5
177499	7	Sololá	719	Santiago Atitlán	14	Cerro de Oro	10	Octubre	2023-10-10T00:00:00	2024-11-08T18:00:00	3	Temperatura mínima	20.1
177500	7	Sololá	719	Santiago Atitlán	14	Cerro de Oro	10	Octubre	2023-10-10T00:00:00	2024-11-08T18:00:00	5	Humedad	92
177501	7	Sololá	719	Santiago Atitlán	14	Cerro de Oro	10	Octubre	2023-10-10T00:00:00	2024-11-08T18:00:00	6	Velocidad del viento	3.2
177502	7	Sololá	719	Santiago Atitlán	14	Cerro de Oro	10	Octubre	2023-10-10T00:00:00	2024-11-08T18:00:00	7	Dirección del viento	3.22
177503	7	Sololá	719	Santiago Atitlán	14	Cerro de Oro	10	Octubre	2023-10-10T00:00:00	2024-11-08T18:00:00	1	Precipitación	0
177504	7	Sololá	719	Santiago Atitlán	14	Cerro de Oro	10	Octubre	2023-10-10T00:00:00	2024-11-08T18:00:00	8	Radiación solar	0
177505	7	Sololá	719	Santiago Atitlán	14	Cerro de Oro	10	Octubre	2023-10-10T00:00:00	2024-11-08T19:00:00	2	Temperatura media	20.2
177506	7	Sololá	719	Santiago Atitlán	14	Cerro de Oro	10	Octubre	2023-10-10T00:00:00	2024-11-08T19:00:00	4	Temperatura máxima	20.3
177507	7	Sololá	719	Santiago Atitlán	14	Cerro de Oro	10	Octubre	2023-10-10T00:00:00	2024-11-08T19:00:00	3	Temperatura mínima	20.1
177508	7	Sololá	719	Santiago Atitlán	14	Cerro de Oro	10	Octubre	2023-10-10T00:00:00	2024-11-08T19:00:00	5	Humedad	92
177509	7	Sololá	719	Santiago Atitlán	14	Cerro de Oro	10	Octubre	2023-10-10T00:00:00	2024-11-08T19:00:00	6	Velocidad del viento	1.6
177510	7	Sololá	719	Santiago Atitlán	14	Cerro de Oro	10	Octubre	2023-10-10T00:00:00	2024-11-08T19:00:00	7	Dirección del viento	1.61
177511	7	Sololá	719	Santiago Atitlán	14	Cerro de Oro	10	Octubre	2023-10-10T00:00:00	2024-11-08T19:00:00	1	Precipitación	0
177512	7	Sololá	719	Santiago Atitlán	14	Cerro de Oro	10	Octubre	2023-10-10T00:00:00	2024-11-08T19:00:00	8	Radiación solar	0
177513	7	Sololá	719	Santiago Atitlán	14	Cerro de Oro	10	Octubre	2023-10-10T00:00:00	2024-11-08T20:00:00	2	Temperatura media	20
177514	7	Sololá	719	Santiago Atitlán	14	Cerro de Oro	10	Octubre	2023-10-10T00:00:00	2024-11-08T20:00:00	4	Temperatura máxima	20.2
177515	7	Sololá	719	Santiago Atitlán	14	Cerro de Oro	10	Octubre	2023-10-10T00:00:00	2024-11-08T20:00:00	3	Temperatura mínima	20
177516	7	Sololá	719	Santiago Atitlán	14	Cerro de Oro	10	Octubre	2023-10-10T00:00:00	2024-11-08T20:00:00	5	Humedad	93
177517	7	Sololá	719	Santiago Atitlán	14	Cerro de Oro	10	Octubre	2023-10-10T00:00:00	2024-11-08T20:00:00	6	Velocidad del viento	0
177518	7	Sololá	719	Santiago Atitlán	14	Cerro de Oro	10	Octubre	2023-10-10T00:00:00	2024-11-08T20:00:00	7	Dirección del viento	0
177519	7	Sololá	719	Santiago Atitlán	14	Cerro de Oro	10	Octubre	2023-10-10T00:00:00	2024-11-08T20:00:00	1	Precipitación	0
177520	7	Sololá	719	Santiago Atitlán	14	Cerro de Oro	10	Octubre	2023-10-10T00:00:00	2024-11-08T20:00:00	8	Radiación solar	0
177521	7	Sololá	719	Santiago Atitlán	14	Cerro de Oro	10	Octubre	2023-10-10T00:00:00	2024-11-08T21:00:00	2	Temperatura media	19.9
177522	7	Sololá	719	Santiago Atitlán	14	Cerro de Oro	10	Octubre	2023-10-10T00:00:00	2024-11-08T21:00:00	4	Temperatura máxima	20.1
177523	7	Sololá	719	Santiago Atitlán	14	Cerro de Oro	10	Octubre	2023-10-10T00:00:00	2024-11-08T21:00:00	3	Temperatura mínima	19.9
177524	7	Sololá	719	Santiago Atitlán	14	Cerro de Oro	10	Octubre	2023-10-10T00:00:00	2024-11-08T21:00:00	5	Humedad	93
177525	7	Sololá	719	Santiago Atitlán	14	Cerro de Oro	10	Octubre	2023-10-10T00:00:00	2024-11-08T21:00:00	6	Velocidad del viento	0
177526	7	Sololá	719	Santiago Atitlán	14	Cerro de Oro	10	Octubre	2023-10-10T00:00:00	2024-11-08T21:00:00	7	Dirección del viento	0
177527	7	Sololá	719	Santiago Atitlán	14	Cerro de Oro	10	Octubre	2023-10-10T00:00:00	2024-11-08T21:00:00	1	Precipitación	0
177528	7	Sololá	719	Santiago Atitlán	14	Cerro de Oro	10	Octubre	2023-10-10T00:00:00	2024-11-08T21:00:00	8	Radiación solar	0
177529	7	Sololá	719	Santiago Atitlán	14	Cerro de Oro	10	Octubre	2023-10-10T00:00:00	2024-11-08T22:00:00	2	Temperatura media	19.7
177530	7	Sololá	719	Santiago Atitlán	14	Cerro de Oro	10	Octubre	2023-10-10T00:00:00	2024-11-08T22:00:00	4	Temperatura máxima	19.9
177531	7	Sololá	719	Santiago Atitlán	14	Cerro de Oro	10	Octubre	2023-10-10T00:00:00	2024-11-08T22:00:00	3	Temperatura mínima	19.7
177532	7	Sololá	719	Santiago Atitlán	14	Cerro de Oro	10	Octubre	2023-10-10T00:00:00	2024-11-08T22:00:00	5	Humedad	93
177533	7	Sololá	719	Santiago Atitlán	14	Cerro de Oro	10	Octubre	2023-10-10T00:00:00	2024-11-08T22:00:00	6	Velocidad del viento	3.2
177534	7	Sololá	719	Santiago Atitlán	14	Cerro de Oro	10	Octubre	2023-10-10T00:00:00	2024-11-08T22:00:00	7	Dirección del viento	3.22
177535	7	Sololá	719	Santiago Atitlán	14	Cerro de Oro	10	Octubre	2023-10-10T00:00:00	2024-11-08T22:00:00	1	Precipitación	0
177536	7	Sololá	719	Santiago Atitlán	14	Cerro de Oro	10	Octubre	2023-10-10T00:00:00	2024-11-08T22:00:00	8	Radiación solar	0
177537	7	Sololá	719	Santiago Atitlán	14	Cerro de Oro	10	Octubre	2023-10-10T00:00:00	2024-11-08T23:00:00	2	Temperatura media	19.9
177538	7	Sololá	719	Santiago Atitlán	14	Cerro de Oro	10	Octubre	2023-10-10T00:00:00	2024-11-08T23:00:00	4	Temperatura máxima	19.9
177539	7	Sololá	719	Santiago Atitlán	14	Cerro de Oro	10	Octubre	2023-10-10T00:00:00	2024-11-08T23:00:00	3	Temperatura mínima	19.6
177540	7	Sololá	719	Santiago Atitlán	14	Cerro de Oro	10	Octubre	2023-10-10T00:00:00	2024-11-08T23:00:00	5	Humedad	91
177541	7	Sololá	719	Santiago Atitlán	14	Cerro de Oro	10	Octubre	2023-10-10T00:00:00	2024-11-08T23:00:00	6	Velocidad del viento	1.6
177542	7	Sololá	719	Santiago Atitlán	14	Cerro de Oro	10	Octubre	2023-10-10T00:00:00	2024-11-08T23:00:00	7	Dirección del viento	1.61
177543	7	Sololá	719	Santiago Atitlán	14	Cerro de Oro	10	Octubre	2023-10-10T00:00:00	2024-11-08T23:00:00	1	Precipitación	0
177544	7	Sololá	719	Santiago Atitlán	14	Cerro de Oro	10	Octubre	2023-10-10T00:00:00	2024-11-08T23:00:00	8	Radiación solar	0
177545	7	Sololá	719	Santiago Atitlán	14	Cerro de Oro	10	Octubre	2023-11-10T00:00:00	2024-11-08T00:00:00	2	Temperatura media	19.7
177546	7	Sololá	719	Santiago Atitlán	14	Cerro de Oro	10	Octubre	2023-11-10T00:00:00	2024-11-08T00:00:00	4	Temperatura máxima	19.9
177547	7	Sololá	719	Santiago Atitlán	14	Cerro de Oro	10	Octubre	2023-11-10T00:00:00	2024-11-08T00:00:00	3	Temperatura mínima	19.7
177548	7	Sololá	719	Santiago Atitlán	14	Cerro de Oro	10	Octubre	2023-11-10T00:00:00	2024-11-08T00:00:00	5	Humedad	92
177549	7	Sololá	719	Santiago Atitlán	14	Cerro de Oro	10	Octubre	2023-11-10T00:00:00	2024-11-08T00:00:00	6	Velocidad del viento	1.6
177550	7	Sololá	719	Santiago Atitlán	14	Cerro de Oro	10	Octubre	2023-11-10T00:00:00	2024-11-08T00:00:00	7	Dirección del viento	1.61
177551	7	Sololá	719	Santiago Atitlán	14	Cerro de Oro	10	Octubre	2023-11-10T00:00:00	2024-11-08T00:00:00	1	Precipitación	0
177552	7	Sololá	719	Santiago Atitlán	14	Cerro de Oro	10	Octubre	2023-11-10T00:00:00	2024-11-08T00:00:00	8	Radiación solar	0
177553	7	Sololá	719	Santiago Atitlán	14	Cerro de Oro	10	Octubre	2023-11-10T00:00:00	2024-11-08T01:00:00	2	Temperatura media	19.4
177554	7	Sololá	719	Santiago Atitlán	14	Cerro de Oro	10	Octubre	2023-11-10T00:00:00	2024-11-08T01:00:00	4	Temperatura máxima	19.7
177555	7	Sololá	719	Santiago Atitlán	14	Cerro de Oro	10	Octubre	2023-11-10T00:00:00	2024-11-08T01:00:00	3	Temperatura mínima	19.4
177556	7	Sololá	719	Santiago Atitlán	14	Cerro de Oro	10	Octubre	2023-11-10T00:00:00	2024-11-08T01:00:00	5	Humedad	94
177557	7	Sololá	719	Santiago Atitlán	14	Cerro de Oro	10	Octubre	2023-11-10T00:00:00	2024-11-08T01:00:00	6	Velocidad del viento	1.6
177558	7	Sololá	719	Santiago Atitlán	14	Cerro de Oro	10	Octubre	2023-11-10T00:00:00	2024-11-08T01:00:00	7	Dirección del viento	1.61
177559	7	Sololá	719	Santiago Atitlán	14	Cerro de Oro	10	Octubre	2023-11-10T00:00:00	2024-11-08T01:00:00	1	Precipitación	0
177560	7	Sololá	719	Santiago Atitlán	14	Cerro de Oro	10	Octubre	2023-11-10T00:00:00	2024-11-08T01:00:00	8	Radiación solar	0
177561	7	Sololá	719	Santiago Atitlán	14	Cerro de Oro	10	Octubre	2023-11-10T00:00:00	2024-11-08T02:00:00	2	Temperatura media	18.7
177562	7	Sololá	719	Santiago Atitlán	14	Cerro de Oro	10	Octubre	2023-11-10T00:00:00	2024-11-08T02:00:00	4	Temperatura máxima	19.4
177563	7	Sololá	719	Santiago Atitlán	14	Cerro de Oro	10	Octubre	2023-11-10T00:00:00	2024-11-08T02:00:00	3	Temperatura mínima	18.6
177564	7	Sololá	719	Santiago Atitlán	14	Cerro de Oro	10	Octubre	2023-11-10T00:00:00	2024-11-08T02:00:00	5	Humedad	96
177565	7	Sololá	719	Santiago Atitlán	14	Cerro de Oro	10	Octubre	2023-11-10T00:00:00	2024-11-08T02:00:00	6	Velocidad del viento	1.6
177566	7	Sololá	719	Santiago Atitlán	14	Cerro de Oro	10	Octubre	2023-11-10T00:00:00	2024-11-08T02:00:00	7	Dirección del viento	1.61
177567	7	Sololá	719	Santiago Atitlán	14	Cerro de Oro	10	Octubre	2023-11-10T00:00:00	2024-11-08T02:00:00	1	Precipitación	0.6
177568	7	Sololá	719	Santiago Atitlán	14	Cerro de Oro	10	Octubre	2023-11-10T00:00:00	2024-11-08T02:00:00	8	Radiación solar	0
177569	7	Sololá	719	Santiago Atitlán	14	Cerro de Oro	10	Octubre	2023-11-10T00:00:00	2024-11-08T03:00:00	2	Temperatura media	18.4
177570	7	Sololá	719	Santiago Atitlán	14	Cerro de Oro	10	Octubre	2023-11-10T00:00:00	2024-11-08T03:00:00	4	Temperatura máxima	18.7
177571	7	Sololá	719	Santiago Atitlán	14	Cerro de Oro	10	Octubre	2023-11-10T00:00:00	2024-11-08T03:00:00	3	Temperatura mínima	18.3
177572	7	Sololá	719	Santiago Atitlán	14	Cerro de Oro	10	Octubre	2023-11-10T00:00:00	2024-11-08T03:00:00	5	Humedad	97
177573	7	Sololá	719	Santiago Atitlán	14	Cerro de Oro	10	Octubre	2023-11-10T00:00:00	2024-11-08T03:00:00	6	Velocidad del viento	0
177574	7	Sololá	719	Santiago Atitlán	14	Cerro de Oro	10	Octubre	2023-11-10T00:00:00	2024-11-08T03:00:00	7	Dirección del viento	0
177575	7	Sololá	719	Santiago Atitlán	14	Cerro de Oro	10	Octubre	2023-11-10T00:00:00	2024-11-08T03:00:00	1	Precipitación	0
177576	7	Sololá	719	Santiago Atitlán	14	Cerro de Oro	10	Octubre	2023-11-10T00:00:00	2024-11-08T03:00:00	8	Radiación solar	0
177577	7	Sololá	719	Santiago Atitlán	14	Cerro de Oro	10	Octubre	2023-11-10T00:00:00	2024-11-08T04:00:00	2	Temperatura media	18.4
177578	7	Sololá	719	Santiago Atitlán	14	Cerro de Oro	10	Octubre	2023-11-10T00:00:00	2024-11-08T04:00:00	4	Temperatura máxima	18.4
177579	7	Sololá	719	Santiago Atitlán	14	Cerro de Oro	10	Octubre	2023-11-10T00:00:00	2024-11-08T04:00:00	3	Temperatura mínima	18.2
177580	7	Sololá	719	Santiago Atitlán	14	Cerro de Oro	10	Octubre	2023-11-10T00:00:00	2024-11-08T04:00:00	5	Humedad	96
177581	7	Sololá	719	Santiago Atitlán	14	Cerro de Oro	10	Octubre	2023-11-10T00:00:00	2024-11-08T04:00:00	6	Velocidad del viento	0
177582	7	Sololá	719	Santiago Atitlán	14	Cerro de Oro	10	Octubre	2023-11-10T00:00:00	2024-11-08T04:00:00	7	Dirección del viento	0
177583	7	Sololá	719	Santiago Atitlán	14	Cerro de Oro	10	Octubre	2023-11-10T00:00:00	2024-11-08T04:00:00	1	Precipitación	0
177584	7	Sololá	719	Santiago Atitlán	14	Cerro de Oro	10	Octubre	2023-11-10T00:00:00	2024-11-08T04:00:00	8	Radiación solar	0
177585	7	Sololá	719	Santiago Atitlán	14	Cerro de Oro	10	Octubre	2023-11-10T00:00:00	2024-11-08T05:00:00	2	Temperatura media	18.3
177586	7	Sololá	719	Santiago Atitlán	14	Cerro de Oro	10	Octubre	2023-11-10T00:00:00	2024-11-08T05:00:00	4	Temperatura máxima	18.8
177587	7	Sololá	719	Santiago Atitlán	14	Cerro de Oro	10	Octubre	2023-11-10T00:00:00	2024-11-08T05:00:00	3	Temperatura mínima	18.3
177588	7	Sololá	719	Santiago Atitlán	14	Cerro de Oro	10	Octubre	2023-11-10T00:00:00	2024-11-08T05:00:00	5	Humedad	97
177589	7	Sololá	719	Santiago Atitlán	14	Cerro de Oro	10	Octubre	2023-11-10T00:00:00	2024-11-08T05:00:00	6	Velocidad del viento	1.6
177590	7	Sololá	719	Santiago Atitlán	14	Cerro de Oro	10	Octubre	2023-11-10T00:00:00	2024-11-08T05:00:00	7	Dirección del viento	1.61
177591	7	Sololá	719	Santiago Atitlán	14	Cerro de Oro	10	Octubre	2023-11-10T00:00:00	2024-11-08T05:00:00	1	Precipitación	3.8
177592	7	Sololá	719	Santiago Atitlán	14	Cerro de Oro	10	Octubre	2023-11-10T00:00:00	2024-11-08T05:00:00	8	Radiación solar	0
177593	7	Sololá	719	Santiago Atitlán	14	Cerro de Oro	10	Octubre	2023-11-10T00:00:00	2024-11-08T06:00:00	2	Temperatura media	18.1
177594	7	Sololá	719	Santiago Atitlán	14	Cerro de Oro	10	Octubre	2023-11-10T00:00:00	2024-11-08T06:00:00	4	Temperatura máxima	18.3
177595	7	Sololá	719	Santiago Atitlán	14	Cerro de Oro	10	Octubre	2023-11-10T00:00:00	2024-11-08T06:00:00	3	Temperatura mínima	18.1
177596	7	Sololá	719	Santiago Atitlán	14	Cerro de Oro	10	Octubre	2023-11-10T00:00:00	2024-11-08T06:00:00	5	Humedad	97
177597	7	Sololá	719	Santiago Atitlán	14	Cerro de Oro	10	Octubre	2023-11-10T00:00:00	2024-11-08T06:00:00	6	Velocidad del viento	1.6
177598	7	Sololá	719	Santiago Atitlán	14	Cerro de Oro	10	Octubre	2023-11-10T00:00:00	2024-11-08T06:00:00	7	Dirección del viento	1.61
177599	7	Sololá	719	Santiago Atitlán	14	Cerro de Oro	10	Octubre	2023-11-10T00:00:00	2024-11-08T06:00:00	1	Precipitación	0.6
177600	7	Sololá	719	Santiago Atitlán	14	Cerro de Oro	10	Octubre	2023-11-10T00:00:00	2024-11-08T06:00:00	8	Radiación solar	0
177601	7	Sololá	719	Santiago Atitlán	14	Cerro de Oro	10	Octubre	2023-11-10T00:00:00	2024-11-08T07:00:00	2	Temperatura media	18.7
177602	7	Sololá	719	Santiago Atitlán	14	Cerro de Oro	10	Octubre	2023-11-10T00:00:00	2024-11-08T07:00:00	4	Temperatura máxima	18.7
177603	7	Sololá	719	Santiago Atitlán	14	Cerro de Oro	10	Octubre	2023-11-10T00:00:00	2024-11-08T07:00:00	3	Temperatura mínima	18
177604	7	Sololá	719	Santiago Atitlán	14	Cerro de Oro	10	Octubre	2023-11-10T00:00:00	2024-11-08T07:00:00	5	Humedad	95
177605	7	Sololá	719	Santiago Atitlán	14	Cerro de Oro	10	Octubre	2023-11-10T00:00:00	2024-11-08T07:00:00	6	Velocidad del viento	0
177606	7	Sololá	719	Santiago Atitlán	14	Cerro de Oro	10	Octubre	2023-11-10T00:00:00	2024-11-08T07:00:00	7	Dirección del viento	0
177607	7	Sololá	719	Santiago Atitlán	14	Cerro de Oro	10	Octubre	2023-11-10T00:00:00	2024-11-08T07:00:00	1	Precipitación	0
177608	7	Sololá	719	Santiago Atitlán	14	Cerro de Oro	10	Octubre	2023-11-10T00:00:00	2024-11-08T07:00:00	8	Radiación solar	52
177609	7	Sololá	719	Santiago Atitlán	14	Cerro de Oro	10	Octubre	2023-11-10T00:00:00	2024-11-08T08:00:00	2	Temperatura media	21.2
177610	7	Sololá	719	Santiago Atitlán	14	Cerro de Oro	10	Octubre	2023-11-10T00:00:00	2024-11-08T08:00:00	4	Temperatura máxima	21.2
177611	7	Sololá	719	Santiago Atitlán	14	Cerro de Oro	10	Octubre	2023-11-10T00:00:00	2024-11-08T08:00:00	3	Temperatura mínima	18.7
177612	7	Sololá	719	Santiago Atitlán	14	Cerro de Oro	10	Octubre	2023-11-10T00:00:00	2024-11-08T08:00:00	5	Humedad	89
177613	7	Sololá	719	Santiago Atitlán	14	Cerro de Oro	10	Octubre	2023-11-10T00:00:00	2024-11-08T08:00:00	6	Velocidad del viento	0
177614	7	Sololá	719	Santiago Atitlán	14	Cerro de Oro	10	Octubre	2023-11-10T00:00:00	2024-11-08T08:00:00	7	Dirección del viento	0
177615	7	Sololá	719	Santiago Atitlán	14	Cerro de Oro	10	Octubre	2023-11-10T00:00:00	2024-11-08T08:00:00	1	Precipitación	0
177616	7	Sololá	719	Santiago Atitlán	14	Cerro de Oro	10	Octubre	2023-11-10T00:00:00	2024-11-08T08:00:00	8	Radiación solar	243
177617	7	Sololá	719	Santiago Atitlán	14	Cerro de Oro	10	Octubre	2023-11-10T00:00:00	2024-11-08T09:00:00	2	Temperatura media	21.3
177618	7	Sololá	719	Santiago Atitlán	14	Cerro de Oro	10	Octubre	2023-11-10T00:00:00	2024-11-08T09:00:00	4	Temperatura máxima	21.5
177619	7	Sololá	719	Santiago Atitlán	14	Cerro de Oro	10	Octubre	2023-11-10T00:00:00	2024-11-08T09:00:00	3	Temperatura mínima	21.1
177620	7	Sololá	719	Santiago Atitlán	14	Cerro de Oro	10	Octubre	2023-11-10T00:00:00	2024-11-08T09:00:00	5	Humedad	88
177621	7	Sololá	719	Santiago Atitlán	14	Cerro de Oro	10	Octubre	2023-11-10T00:00:00	2024-11-08T09:00:00	6	Velocidad del viento	0
177622	7	Sololá	719	Santiago Atitlán	14	Cerro de Oro	10	Octubre	2023-11-10T00:00:00	2024-11-08T09:00:00	7	Dirección del viento	0
177623	7	Sololá	719	Santiago Atitlán	14	Cerro de Oro	10	Octubre	2023-11-10T00:00:00	2024-11-08T09:00:00	1	Precipitación	0
177624	7	Sololá	719	Santiago Atitlán	14	Cerro de Oro	10	Octubre	2023-11-10T00:00:00	2024-11-08T09:00:00	8	Radiación solar	429
177625	7	Sololá	719	Santiago Atitlán	14	Cerro de Oro	10	Octubre	2023-11-10T00:00:00	2024-11-08T10:00:00	2	Temperatura media	22.4
177626	7	Sololá	719	Santiago Atitlán	14	Cerro de Oro	10	Octubre	2023-11-10T00:00:00	2024-11-08T10:00:00	4	Temperatura máxima	22.5
177627	7	Sololá	719	Santiago Atitlán	14	Cerro de Oro	10	Octubre	2023-11-10T00:00:00	2024-11-08T10:00:00	3	Temperatura mínima	21.3
177628	7	Sololá	719	Santiago Atitlán	14	Cerro de Oro	10	Octubre	2023-11-10T00:00:00	2024-11-08T10:00:00	5	Humedad	83
177629	7	Sololá	719	Santiago Atitlán	14	Cerro de Oro	10	Octubre	2023-11-10T00:00:00	2024-11-08T10:00:00	6	Velocidad del viento	1.6
177630	7	Sololá	719	Santiago Atitlán	14	Cerro de Oro	10	Octubre	2023-11-10T00:00:00	2024-11-08T10:00:00	7	Dirección del viento	1.61
177631	7	Sololá	719	Santiago Atitlán	14	Cerro de Oro	10	Octubre	2023-11-10T00:00:00	2024-11-08T10:00:00	1	Precipitación	0
177632	7	Sololá	719	Santiago Atitlán	14	Cerro de Oro	10	Octubre	2023-11-10T00:00:00	2024-11-08T10:00:00	8	Radiación solar	672
177633	7	Sololá	719	Santiago Atitlán	14	Cerro de Oro	10	Octubre	2023-11-10T00:00:00	2024-11-08T11:00:00	2	Temperatura media	22.4
177634	7	Sololá	719	Santiago Atitlán	14	Cerro de Oro	10	Octubre	2023-11-10T00:00:00	2024-11-08T11:00:00	4	Temperatura máxima	22.6
177635	7	Sololá	719	Santiago Atitlán	14	Cerro de Oro	10	Octubre	2023-11-10T00:00:00	2024-11-08T11:00:00	3	Temperatura mínima	22.2
177636	7	Sololá	719	Santiago Atitlán	14	Cerro de Oro	10	Octubre	2023-11-10T00:00:00	2024-11-08T11:00:00	5	Humedad	85
177637	7	Sololá	719	Santiago Atitlán	14	Cerro de Oro	10	Octubre	2023-11-10T00:00:00	2024-11-08T11:00:00	6	Velocidad del viento	3.2
177638	7	Sololá	719	Santiago Atitlán	14	Cerro de Oro	10	Octubre	2023-11-10T00:00:00	2024-11-08T11:00:00	7	Dirección del viento	3.22
177639	7	Sololá	719	Santiago Atitlán	14	Cerro de Oro	10	Octubre	2023-11-10T00:00:00	2024-11-08T11:00:00	1	Precipitación	0
177640	7	Sololá	719	Santiago Atitlán	14	Cerro de Oro	10	Octubre	2023-11-10T00:00:00	2024-11-08T11:00:00	8	Radiación solar	378
177641	7	Sololá	719	Santiago Atitlán	14	Cerro de Oro	10	Octubre	2023-11-10T00:00:00	2024-11-08T12:00:00	2	Temperatura media	22.8
177642	7	Sololá	719	Santiago Atitlán	14	Cerro de Oro	10	Octubre	2023-11-10T00:00:00	2024-11-08T12:00:00	4	Temperatura máxima	22.8
177643	7	Sololá	719	Santiago Atitlán	14	Cerro de Oro	10	Octubre	2023-11-10T00:00:00	2024-11-08T12:00:00	3	Temperatura mínima	22.3
177644	7	Sololá	719	Santiago Atitlán	14	Cerro de Oro	10	Octubre	2023-11-10T00:00:00	2024-11-08T12:00:00	5	Humedad	86
177645	7	Sololá	719	Santiago Atitlán	14	Cerro de Oro	10	Octubre	2023-11-10T00:00:00	2024-11-08T12:00:00	6	Velocidad del viento	1.6
177646	7	Sololá	719	Santiago Atitlán	14	Cerro de Oro	10	Octubre	2023-11-10T00:00:00	2024-11-08T12:00:00	7	Dirección del viento	1.61
177647	7	Sololá	719	Santiago Atitlán	14	Cerro de Oro	10	Octubre	2023-11-10T00:00:00	2024-11-08T12:00:00	1	Precipitación	0
177648	7	Sololá	719	Santiago Atitlán	14	Cerro de Oro	10	Octubre	2023-11-10T00:00:00	2024-11-08T12:00:00	8	Radiación solar	423
177649	7	Sololá	719	Santiago Atitlán	14	Cerro de Oro	10	Octubre	2023-11-10T00:00:00	2024-11-08T13:00:00	2	Temperatura media	22.5
177650	7	Sololá	719	Santiago Atitlán	14	Cerro de Oro	10	Octubre	2023-11-10T00:00:00	2024-11-08T13:00:00	4	Temperatura máxima	23.1
177651	7	Sololá	719	Santiago Atitlán	14	Cerro de Oro	10	Octubre	2023-11-10T00:00:00	2024-11-08T13:00:00	3	Temperatura mínima	22.4
177652	7	Sololá	719	Santiago Atitlán	14	Cerro de Oro	10	Octubre	2023-11-10T00:00:00	2024-11-08T13:00:00	5	Humedad	84
177653	7	Sololá	719	Santiago Atitlán	14	Cerro de Oro	10	Octubre	2023-11-10T00:00:00	2024-11-08T13:00:00	6	Velocidad del viento	1.6
177654	7	Sololá	719	Santiago Atitlán	14	Cerro de Oro	10	Octubre	2023-11-10T00:00:00	2024-11-08T13:00:00	7	Dirección del viento	1.61
177655	7	Sololá	719	Santiago Atitlán	14	Cerro de Oro	10	Octubre	2023-11-10T00:00:00	2024-11-08T13:00:00	1	Precipitación	0
177656	7	Sololá	719	Santiago Atitlán	14	Cerro de Oro	10	Octubre	2023-11-10T00:00:00	2024-11-08T13:00:00	8	Radiación solar	389
177657	7	Sololá	719	Santiago Atitlán	14	Cerro de Oro	10	Octubre	2023-11-10T00:00:00	2024-11-08T14:00:00	2	Temperatura media	21.1
177658	7	Sololá	719	Santiago Atitlán	14	Cerro de Oro	10	Octubre	2023-11-10T00:00:00	2024-11-08T14:00:00	4	Temperatura máxima	22.6
177659	7	Sololá	719	Santiago Atitlán	14	Cerro de Oro	10	Octubre	2023-11-10T00:00:00	2024-11-08T14:00:00	3	Temperatura mínima	21.1
177660	7	Sololá	719	Santiago Atitlán	14	Cerro de Oro	10	Octubre	2023-11-10T00:00:00	2024-11-08T14:00:00	5	Humedad	92
177661	7	Sololá	719	Santiago Atitlán	14	Cerro de Oro	10	Octubre	2023-11-10T00:00:00	2024-11-08T14:00:00	6	Velocidad del viento	3.2
177662	7	Sololá	719	Santiago Atitlán	14	Cerro de Oro	10	Octubre	2023-11-10T00:00:00	2024-11-08T14:00:00	7	Dirección del viento	3.22
177663	7	Sololá	719	Santiago Atitlán	14	Cerro de Oro	10	Octubre	2023-11-10T00:00:00	2024-11-08T14:00:00	1	Precipitación	0
177664	7	Sololá	719	Santiago Atitlán	14	Cerro de Oro	10	Octubre	2023-11-10T00:00:00	2024-11-08T14:00:00	8	Radiación solar	172
177665	7	Sololá	719	Santiago Atitlán	14	Cerro de Oro	10	Octubre	2023-11-10T00:00:00	2024-11-08T15:00:00	2	Temperatura media	21.4
177666	7	Sololá	719	Santiago Atitlán	14	Cerro de Oro	10	Octubre	2023-11-10T00:00:00	2024-11-08T15:00:00	4	Temperatura máxima	21.6
177667	7	Sololá	719	Santiago Atitlán	14	Cerro de Oro	10	Octubre	2023-11-10T00:00:00	2024-11-08T15:00:00	3	Temperatura mínima	20.9
177668	7	Sololá	719	Santiago Atitlán	14	Cerro de Oro	10	Octubre	2023-11-10T00:00:00	2024-11-08T15:00:00	5	Humedad	88
177669	7	Sololá	719	Santiago Atitlán	14	Cerro de Oro	10	Octubre	2023-11-10T00:00:00	2024-11-08T15:00:00	6	Velocidad del viento	3.2
177670	7	Sololá	719	Santiago Atitlán	14	Cerro de Oro	10	Octubre	2023-11-10T00:00:00	2024-11-08T15:00:00	7	Dirección del viento	3.22
177671	7	Sololá	719	Santiago Atitlán	14	Cerro de Oro	10	Octubre	2023-11-10T00:00:00	2024-11-08T15:00:00	1	Precipitación	0
177672	7	Sololá	719	Santiago Atitlán	14	Cerro de Oro	10	Octubre	2023-11-10T00:00:00	2024-11-08T15:00:00	8	Radiación solar	205
177673	7	Sololá	719	Santiago Atitlán	14	Cerro de Oro	10	Octubre	2023-11-10T00:00:00	2024-11-08T16:00:00	2	Temperatura media	21.1
177674	7	Sololá	719	Santiago Atitlán	14	Cerro de Oro	10	Octubre	2023-11-10T00:00:00	2024-11-08T16:00:00	4	Temperatura máxima	21.4
177675	7	Sololá	719	Santiago Atitlán	14	Cerro de Oro	10	Octubre	2023-11-10T00:00:00	2024-11-08T16:00:00	3	Temperatura mínima	21.1
177676	7	Sololá	719	Santiago Atitlán	14	Cerro de Oro	10	Octubre	2023-11-10T00:00:00	2024-11-08T16:00:00	5	Humedad	90
177677	7	Sololá	719	Santiago Atitlán	14	Cerro de Oro	10	Octubre	2023-11-10T00:00:00	2024-11-08T16:00:00	6	Velocidad del viento	0
177678	7	Sololá	719	Santiago Atitlán	14	Cerro de Oro	10	Octubre	2023-11-10T00:00:00	2024-11-08T16:00:00	7	Dirección del viento	0
177679	7	Sololá	719	Santiago Atitlán	14	Cerro de Oro	10	Octubre	2023-11-10T00:00:00	2024-11-08T16:00:00	1	Precipitación	0
177680	7	Sololá	719	Santiago Atitlán	14	Cerro de Oro	10	Octubre	2023-11-10T00:00:00	2024-11-08T16:00:00	8	Radiación solar	38
177681	7	Sololá	719	Santiago Atitlán	14	Cerro de Oro	10	Octubre	2023-11-10T00:00:00	2024-11-08T17:00:00	2	Temperatura media	20.9
177682	7	Sololá	719	Santiago Atitlán	14	Cerro de Oro	10	Octubre	2023-11-10T00:00:00	2024-11-08T17:00:00	4	Temperatura máxima	21.1
177683	7	Sololá	719	Santiago Atitlán	14	Cerro de Oro	10	Octubre	2023-11-10T00:00:00	2024-11-08T17:00:00	3	Temperatura mínima	20.9
177684	7	Sololá	719	Santiago Atitlán	14	Cerro de Oro	10	Octubre	2023-11-10T00:00:00	2024-11-08T17:00:00	5	Humedad	90
177685	7	Sololá	719	Santiago Atitlán	14	Cerro de Oro	10	Octubre	2023-11-10T00:00:00	2024-11-08T17:00:00	6	Velocidad del viento	0
177686	7	Sololá	719	Santiago Atitlán	14	Cerro de Oro	10	Octubre	2023-11-10T00:00:00	2024-11-08T17:00:00	7	Dirección del viento	0
177687	7	Sololá	719	Santiago Atitlán	14	Cerro de Oro	10	Octubre	2023-11-10T00:00:00	2024-11-08T17:00:00	1	Precipitación	0
177688	7	Sololá	719	Santiago Atitlán	14	Cerro de Oro	10	Octubre	2023-11-10T00:00:00	2024-11-08T17:00:00	8	Radiación solar	16
177689	7	Sololá	719	Santiago Atitlán	14	Cerro de Oro	10	Octubre	2023-11-10T00:00:00	2024-11-08T18:00:00	2	Temperatura media	20.2
177690	7	Sololá	719	Santiago Atitlán	14	Cerro de Oro	10	Octubre	2023-11-10T00:00:00	2024-11-08T18:00:00	4	Temperatura máxima	20.9
177691	7	Sololá	719	Santiago Atitlán	14	Cerro de Oro	10	Octubre	2023-11-10T00:00:00	2024-11-08T18:00:00	3	Temperatura mínima	20.2
177692	7	Sololá	719	Santiago Atitlán	14	Cerro de Oro	10	Octubre	2023-11-10T00:00:00	2024-11-08T18:00:00	5	Humedad	95
177693	7	Sololá	719	Santiago Atitlán	14	Cerro de Oro	10	Octubre	2023-11-10T00:00:00	2024-11-08T18:00:00	6	Velocidad del viento	3.2
177694	7	Sololá	719	Santiago Atitlán	14	Cerro de Oro	10	Octubre	2023-11-10T00:00:00	2024-11-08T18:00:00	7	Dirección del viento	3.22
177695	7	Sololá	719	Santiago Atitlán	14	Cerro de Oro	10	Octubre	2023-11-10T00:00:00	2024-11-08T18:00:00	1	Precipitación	0
177696	7	Sololá	719	Santiago Atitlán	14	Cerro de Oro	10	Octubre	2023-11-10T00:00:00	2024-11-08T18:00:00	8	Radiación solar	0
177697	7	Sololá	719	Santiago Atitlán	14	Cerro de Oro	10	Octubre	2023-11-10T00:00:00	2024-11-08T19:00:00	2	Temperatura media	19.7
177698	7	Sololá	719	Santiago Atitlán	14	Cerro de Oro	10	Octubre	2023-11-10T00:00:00	2024-11-08T19:00:00	4	Temperatura máxima	20.2
177699	7	Sololá	719	Santiago Atitlán	14	Cerro de Oro	10	Octubre	2023-11-10T00:00:00	2024-11-08T19:00:00	3	Temperatura mínima	19.7
177700	7	Sololá	719	Santiago Atitlán	14	Cerro de Oro	10	Octubre	2023-11-10T00:00:00	2024-11-08T19:00:00	5	Humedad	93
177701	7	Sololá	719	Santiago Atitlán	14	Cerro de Oro	10	Octubre	2023-11-10T00:00:00	2024-11-08T19:00:00	6	Velocidad del viento	1.6
177702	7	Sololá	719	Santiago Atitlán	14	Cerro de Oro	10	Octubre	2023-11-10T00:00:00	2024-11-08T19:00:00	7	Dirección del viento	1.61
177703	7	Sololá	719	Santiago Atitlán	14	Cerro de Oro	10	Octubre	2023-11-10T00:00:00	2024-11-08T19:00:00	1	Precipitación	0
177704	7	Sololá	719	Santiago Atitlán	14	Cerro de Oro	10	Octubre	2023-11-10T00:00:00	2024-11-08T19:00:00	8	Radiación solar	0
177705	7	Sololá	719	Santiago Atitlán	14	Cerro de Oro	10	Octubre	2023-11-10T00:00:00	2024-11-08T20:00:00	2	Temperatura media	18.6
177706	7	Sololá	719	Santiago Atitlán	14	Cerro de Oro	10	Octubre	2023-11-10T00:00:00	2024-11-08T20:00:00	4	Temperatura máxima	19.9
177707	7	Sololá	719	Santiago Atitlán	14	Cerro de Oro	10	Octubre	2023-11-10T00:00:00	2024-11-08T20:00:00	3	Temperatura mínima	18.6
177708	7	Sololá	719	Santiago Atitlán	14	Cerro de Oro	10	Octubre	2023-11-10T00:00:00	2024-11-08T20:00:00	5	Humedad	98
177709	7	Sololá	719	Santiago Atitlán	14	Cerro de Oro	10	Octubre	2023-11-10T00:00:00	2024-11-08T20:00:00	6	Velocidad del viento	1.6
177710	7	Sololá	719	Santiago Atitlán	14	Cerro de Oro	10	Octubre	2023-11-10T00:00:00	2024-11-08T20:00:00	7	Dirección del viento	1.61
177711	7	Sololá	719	Santiago Atitlán	14	Cerro de Oro	10	Octubre	2023-11-10T00:00:00	2024-11-08T20:00:00	1	Precipitación	14
177712	7	Sololá	719	Santiago Atitlán	14	Cerro de Oro	10	Octubre	2023-11-10T00:00:00	2024-11-08T20:00:00	8	Radiación solar	0
177713	7	Sololá	719	Santiago Atitlán	14	Cerro de Oro	10	Octubre	2023-11-10T00:00:00	2024-11-08T21:00:00	2	Temperatura media	18.5
177714	7	Sololá	719	Santiago Atitlán	14	Cerro de Oro	10	Octubre	2023-11-10T00:00:00	2024-11-08T21:00:00	4	Temperatura máxima	18.6
177715	7	Sololá	719	Santiago Atitlán	14	Cerro de Oro	10	Octubre	2023-11-10T00:00:00	2024-11-08T21:00:00	3	Temperatura mínima	18.4
177716	7	Sololá	719	Santiago Atitlán	14	Cerro de Oro	10	Octubre	2023-11-10T00:00:00	2024-11-08T21:00:00	5	Humedad	98
177717	7	Sololá	719	Santiago Atitlán	14	Cerro de Oro	10	Octubre	2023-11-10T00:00:00	2024-11-08T21:00:00	6	Velocidad del viento	0
177718	7	Sololá	719	Santiago Atitlán	14	Cerro de Oro	10	Octubre	2023-11-10T00:00:00	2024-11-08T21:00:00	7	Dirección del viento	0
177719	7	Sololá	719	Santiago Atitlán	14	Cerro de Oro	10	Octubre	2023-11-10T00:00:00	2024-11-08T21:00:00	1	Precipitación	1.4
177720	7	Sololá	719	Santiago Atitlán	14	Cerro de Oro	10	Octubre	2023-11-10T00:00:00	2024-11-08T21:00:00	8	Radiación solar	0
177721	7	Sololá	719	Santiago Atitlán	14	Cerro de Oro	10	Octubre	2023-11-10T00:00:00	2024-11-08T22:00:00	2	Temperatura media	18.6
177722	7	Sololá	719	Santiago Atitlán	14	Cerro de Oro	10	Octubre	2023-11-10T00:00:00	2024-11-08T22:00:00	4	Temperatura máxima	18.7
177723	7	Sololá	719	Santiago Atitlán	14	Cerro de Oro	10	Octubre	2023-11-10T00:00:00	2024-11-08T22:00:00	3	Temperatura mínima	18.4
177724	7	Sololá	719	Santiago Atitlán	14	Cerro de Oro	10	Octubre	2023-11-10T00:00:00	2024-11-08T22:00:00	5	Humedad	98
177725	7	Sololá	719	Santiago Atitlán	14	Cerro de Oro	10	Octubre	2023-11-10T00:00:00	2024-11-08T22:00:00	6	Velocidad del viento	0
177726	7	Sololá	719	Santiago Atitlán	14	Cerro de Oro	10	Octubre	2023-11-10T00:00:00	2024-11-08T22:00:00	7	Dirección del viento	0
177727	7	Sololá	719	Santiago Atitlán	14	Cerro de Oro	10	Octubre	2023-11-10T00:00:00	2024-11-08T22:00:00	1	Precipitación	0.2
177728	7	Sololá	719	Santiago Atitlán	14	Cerro de Oro	10	Octubre	2023-11-10T00:00:00	2024-11-08T22:00:00	8	Radiación solar	0
177729	7	Sololá	719	Santiago Atitlán	14	Cerro de Oro	10	Octubre	2023-11-10T00:00:00	2024-11-08T23:00:00	2	Temperatura media	18.9
177730	7	Sololá	719	Santiago Atitlán	14	Cerro de Oro	10	Octubre	2023-11-10T00:00:00	2024-11-08T23:00:00	4	Temperatura máxima	18.9
177731	7	Sololá	719	Santiago Atitlán	14	Cerro de Oro	10	Octubre	2023-11-10T00:00:00	2024-11-08T23:00:00	3	Temperatura mínima	18.6
177732	7	Sololá	719	Santiago Atitlán	14	Cerro de Oro	10	Octubre	2023-11-10T00:00:00	2024-11-08T23:00:00	5	Humedad	97
177733	7	Sololá	719	Santiago Atitlán	14	Cerro de Oro	10	Octubre	2023-11-10T00:00:00	2024-11-08T23:00:00	6	Velocidad del viento	0
177734	7	Sololá	719	Santiago Atitlán	14	Cerro de Oro	10	Octubre	2023-11-10T00:00:00	2024-11-08T23:00:00	7	Dirección del viento	0
177735	7	Sololá	719	Santiago Atitlán	14	Cerro de Oro	10	Octubre	2023-11-10T00:00:00	2024-11-08T23:00:00	1	Precipitación	0
177736	7	Sololá	719	Santiago Atitlán	14	Cerro de Oro	10	Octubre	2023-11-10T00:00:00	2024-11-08T23:00:00	8	Radiación solar	0
177737	7	Sololá	719	Santiago Atitlán	14	Cerro de Oro	10	Octubre	2023-12-10T00:00:00	2024-11-08T00:00:00	2	Temperatura media	19.1
177738	7	Sololá	719	Santiago Atitlán	14	Cerro de Oro	10	Octubre	2023-12-10T00:00:00	2024-11-08T00:00:00	4	Temperatura máxima	19.5
177739	7	Sololá	719	Santiago Atitlán	14	Cerro de Oro	10	Octubre	2023-12-10T00:00:00	2024-11-08T00:00:00	3	Temperatura mínima	18.9
177740	7	Sololá	719	Santiago Atitlán	14	Cerro de Oro	10	Octubre	2023-12-10T00:00:00	2024-11-08T00:00:00	5	Humedad	96
177741	7	Sololá	719	Santiago Atitlán	14	Cerro de Oro	10	Octubre	2023-12-10T00:00:00	2024-11-08T00:00:00	6	Velocidad del viento	1.6
177742	7	Sololá	719	Santiago Atitlán	14	Cerro de Oro	10	Octubre	2023-12-10T00:00:00	2024-11-08T00:00:00	7	Dirección del viento	1.61
177743	7	Sololá	719	Santiago Atitlán	14	Cerro de Oro	10	Octubre	2023-12-10T00:00:00	2024-11-08T00:00:00	1	Precipitación	0
177744	7	Sololá	719	Santiago Atitlán	14	Cerro de Oro	10	Octubre	2023-12-10T00:00:00	2024-11-08T00:00:00	8	Radiación solar	0
177745	7	Sololá	719	Santiago Atitlán	14	Cerro de Oro	10	Octubre	2023-12-10T00:00:00	2024-11-08T01:00:00	2	Temperatura media	18.8
177746	7	Sololá	719	Santiago Atitlán	14	Cerro de Oro	10	Octubre	2023-12-10T00:00:00	2024-11-08T01:00:00	4	Temperatura máxima	19.2
177747	7	Sololá	719	Santiago Atitlán	14	Cerro de Oro	10	Octubre	2023-12-10T00:00:00	2024-11-08T01:00:00	3	Temperatura mínima	18.8
177748	7	Sololá	719	Santiago Atitlán	14	Cerro de Oro	10	Octubre	2023-12-10T00:00:00	2024-11-08T01:00:00	5	Humedad	98
177749	7	Sololá	719	Santiago Atitlán	14	Cerro de Oro	10	Octubre	2023-12-10T00:00:00	2024-11-08T01:00:00	6	Velocidad del viento	0
177750	7	Sololá	719	Santiago Atitlán	14	Cerro de Oro	10	Octubre	2023-12-10T00:00:00	2024-11-08T01:00:00	7	Dirección del viento	0
177751	7	Sololá	719	Santiago Atitlán	14	Cerro de Oro	10	Octubre	2023-12-10T00:00:00	2024-11-08T01:00:00	1	Precipitación	0
177752	7	Sololá	719	Santiago Atitlán	14	Cerro de Oro	10	Octubre	2023-12-10T00:00:00	2024-11-08T01:00:00	8	Radiación solar	0
177753	7	Sololá	719	Santiago Atitlán	14	Cerro de Oro	10	Octubre	2023-12-10T00:00:00	2024-11-08T02:00:00	2	Temperatura media	18.5
177754	7	Sololá	719	Santiago Atitlán	14	Cerro de Oro	10	Octubre	2023-12-10T00:00:00	2024-11-08T02:00:00	4	Temperatura máxima	18.8
177755	7	Sololá	719	Santiago Atitlán	14	Cerro de Oro	10	Octubre	2023-12-10T00:00:00	2024-11-08T02:00:00	3	Temperatura mínima	18.4
177756	7	Sololá	719	Santiago Atitlán	14	Cerro de Oro	10	Octubre	2023-12-10T00:00:00	2024-11-08T02:00:00	5	Humedad	98
177757	7	Sololá	719	Santiago Atitlán	14	Cerro de Oro	10	Octubre	2023-12-10T00:00:00	2024-11-08T02:00:00	6	Velocidad del viento	0
177758	7	Sololá	719	Santiago Atitlán	14	Cerro de Oro	10	Octubre	2023-12-10T00:00:00	2024-11-08T02:00:00	7	Dirección del viento	0
177759	7	Sololá	719	Santiago Atitlán	14	Cerro de Oro	10	Octubre	2023-12-10T00:00:00	2024-11-08T02:00:00	1	Precipitación	0
177760	7	Sololá	719	Santiago Atitlán	14	Cerro de Oro	10	Octubre	2023-12-10T00:00:00	2024-11-08T02:00:00	8	Radiación solar	0
177761	7	Sololá	719	Santiago Atitlán	14	Cerro de Oro	10	Octubre	2023-12-10T00:00:00	2024-11-08T03:00:00	2	Temperatura media	18.6
177762	7	Sololá	719	Santiago Atitlán	14	Cerro de Oro	10	Octubre	2023-12-10T00:00:00	2024-11-08T03:00:00	4	Temperatura máxima	18.6
177763	7	Sololá	719	Santiago Atitlán	14	Cerro de Oro	10	Octubre	2023-12-10T00:00:00	2024-11-08T03:00:00	3	Temperatura mínima	18.4
177764	7	Sololá	719	Santiago Atitlán	14	Cerro de Oro	10	Octubre	2023-12-10T00:00:00	2024-11-08T03:00:00	5	Humedad	98
177765	7	Sololá	719	Santiago Atitlán	14	Cerro de Oro	10	Octubre	2023-12-10T00:00:00	2024-11-08T03:00:00	6	Velocidad del viento	0
177766	7	Sololá	719	Santiago Atitlán	14	Cerro de Oro	10	Octubre	2023-12-10T00:00:00	2024-11-08T03:00:00	7	Dirección del viento	0
177767	7	Sololá	719	Santiago Atitlán	14	Cerro de Oro	10	Octubre	2023-12-10T00:00:00	2024-11-08T03:00:00	1	Precipitación	0.4
177768	7	Sololá	719	Santiago Atitlán	14	Cerro de Oro	10	Octubre	2023-12-10T00:00:00	2024-11-08T03:00:00	8	Radiación solar	0
177769	7	Sololá	719	Santiago Atitlán	14	Cerro de Oro	10	Octubre	2023-12-10T00:00:00	2024-11-08T04:00:00	2	Temperatura media	18.4
177770	7	Sololá	719	Santiago Atitlán	14	Cerro de Oro	10	Octubre	2023-12-10T00:00:00	2024-11-08T04:00:00	4	Temperatura máxima	18.6
177771	7	Sololá	719	Santiago Atitlán	14	Cerro de Oro	10	Octubre	2023-12-10T00:00:00	2024-11-08T04:00:00	3	Temperatura mínima	18.4
177772	7	Sololá	719	Santiago Atitlán	14	Cerro de Oro	10	Octubre	2023-12-10T00:00:00	2024-11-08T04:00:00	5	Humedad	98
177773	7	Sololá	719	Santiago Atitlán	14	Cerro de Oro	10	Octubre	2023-12-10T00:00:00	2024-11-08T04:00:00	6	Velocidad del viento	1.6
177774	7	Sololá	719	Santiago Atitlán	14	Cerro de Oro	10	Octubre	2023-12-10T00:00:00	2024-11-08T04:00:00	7	Dirección del viento	1.61
177775	7	Sololá	719	Santiago Atitlán	14	Cerro de Oro	10	Octubre	2023-12-10T00:00:00	2024-11-08T04:00:00	1	Precipitación	0
177776	7	Sololá	719	Santiago Atitlán	14	Cerro de Oro	10	Octubre	2023-12-10T00:00:00	2024-11-08T04:00:00	8	Radiación solar	0
177777	7	Sololá	719	Santiago Atitlán	14	Cerro de Oro	10	Octubre	2023-12-10T00:00:00	2024-11-08T05:00:00	2	Temperatura media	18.1
177778	7	Sololá	719	Santiago Atitlán	14	Cerro de Oro	10	Octubre	2023-12-10T00:00:00	2024-11-08T05:00:00	4	Temperatura máxima	18.5
177779	7	Sololá	719	Santiago Atitlán	14	Cerro de Oro	10	Octubre	2023-12-10T00:00:00	2024-11-08T05:00:00	3	Temperatura mínima	18.1
177780	7	Sololá	719	Santiago Atitlán	14	Cerro de Oro	10	Octubre	2023-12-10T00:00:00	2024-11-08T05:00:00	5	Humedad	98
177781	7	Sololá	719	Santiago Atitlán	14	Cerro de Oro	10	Octubre	2023-12-10T00:00:00	2024-11-08T05:00:00	6	Velocidad del viento	0
177782	7	Sololá	719	Santiago Atitlán	14	Cerro de Oro	10	Octubre	2023-12-10T00:00:00	2024-11-08T05:00:00	7	Dirección del viento	0
177783	7	Sololá	719	Santiago Atitlán	14	Cerro de Oro	10	Octubre	2023-12-10T00:00:00	2024-11-08T05:00:00	1	Precipitación	0
177784	7	Sololá	719	Santiago Atitlán	14	Cerro de Oro	10	Octubre	2023-12-10T00:00:00	2024-11-08T05:00:00	8	Radiación solar	0
177785	7	Sololá	719	Santiago Atitlán	14	Cerro de Oro	10	Octubre	2023-12-10T00:00:00	2024-11-08T06:00:00	2	Temperatura media	17.6
177786	7	Sololá	719	Santiago Atitlán	14	Cerro de Oro	10	Octubre	2023-12-10T00:00:00	2024-11-08T06:00:00	4	Temperatura máxima	18.1
177787	7	Sololá	719	Santiago Atitlán	14	Cerro de Oro	10	Octubre	2023-12-10T00:00:00	2024-11-08T06:00:00	3	Temperatura mínima	17.6
177788	7	Sololá	719	Santiago Atitlán	14	Cerro de Oro	10	Octubre	2023-12-10T00:00:00	2024-11-08T06:00:00	5	Humedad	97
177789	7	Sololá	719	Santiago Atitlán	14	Cerro de Oro	10	Octubre	2023-12-10T00:00:00	2024-11-08T06:00:00	6	Velocidad del viento	0
177790	7	Sololá	719	Santiago Atitlán	14	Cerro de Oro	10	Octubre	2023-12-10T00:00:00	2024-11-08T06:00:00	7	Dirección del viento	0
177791	7	Sololá	719	Santiago Atitlán	14	Cerro de Oro	10	Octubre	2023-12-10T00:00:00	2024-11-08T06:00:00	1	Precipitación	0
177792	7	Sololá	719	Santiago Atitlán	14	Cerro de Oro	10	Octubre	2023-12-10T00:00:00	2024-11-08T06:00:00	8	Radiación solar	0
177793	7	Sololá	719	Santiago Atitlán	14	Cerro de Oro	10	Octubre	2023-12-10T00:00:00	2024-11-08T07:00:00	2	Temperatura media	17.6
177794	7	Sololá	719	Santiago Atitlán	14	Cerro de Oro	10	Octubre	2023-12-10T00:00:00	2024-11-08T07:00:00	4	Temperatura máxima	17.7
177795	7	Sololá	719	Santiago Atitlán	14	Cerro de Oro	10	Octubre	2023-12-10T00:00:00	2024-11-08T07:00:00	3	Temperatura mínima	17.5
177796	7	Sololá	719	Santiago Atitlán	14	Cerro de Oro	10	Octubre	2023-12-10T00:00:00	2024-11-08T07:00:00	5	Humedad	96
177797	7	Sololá	719	Santiago Atitlán	14	Cerro de Oro	10	Octubre	2023-12-10T00:00:00	2024-11-08T07:00:00	6	Velocidad del viento	1.6
177798	7	Sololá	719	Santiago Atitlán	14	Cerro de Oro	10	Octubre	2023-12-10T00:00:00	2024-11-08T07:00:00	7	Dirección del viento	1.61
177799	7	Sololá	719	Santiago Atitlán	14	Cerro de Oro	10	Octubre	2023-12-10T00:00:00	2024-11-08T07:00:00	1	Precipitación	0.2
177800	7	Sololá	719	Santiago Atitlán	14	Cerro de Oro	10	Octubre	2023-12-10T00:00:00	2024-11-08T07:00:00	8	Radiación solar	34
177801	7	Sololá	719	Santiago Atitlán	14	Cerro de Oro	10	Octubre	2023-12-10T00:00:00	2024-11-08T08:00:00	2	Temperatura media	19.4
177802	7	Sololá	719	Santiago Atitlán	14	Cerro de Oro	10	Octubre	2023-12-10T00:00:00	2024-11-08T08:00:00	4	Temperatura máxima	19.4
177803	7	Sololá	719	Santiago Atitlán	14	Cerro de Oro	10	Octubre	2023-12-10T00:00:00	2024-11-08T08:00:00	3	Temperatura mínima	17.6
177804	7	Sololá	719	Santiago Atitlán	14	Cerro de Oro	10	Octubre	2023-12-10T00:00:00	2024-11-08T08:00:00	5	Humedad	91
177805	7	Sololá	719	Santiago Atitlán	14	Cerro de Oro	10	Octubre	2023-12-10T00:00:00	2024-11-08T08:00:00	6	Velocidad del viento	1.6
177806	7	Sololá	719	Santiago Atitlán	14	Cerro de Oro	10	Octubre	2023-12-10T00:00:00	2024-11-08T08:00:00	7	Dirección del viento	1.61
177807	7	Sololá	719	Santiago Atitlán	14	Cerro de Oro	10	Octubre	2023-12-10T00:00:00	2024-11-08T08:00:00	1	Precipitación	0
177808	7	Sololá	719	Santiago Atitlán	14	Cerro de Oro	10	Octubre	2023-12-10T00:00:00	2024-11-08T08:00:00	8	Radiación solar	145
177809	7	Sololá	719	Santiago Atitlán	14	Cerro de Oro	10	Octubre	2023-12-10T00:00:00	2024-11-08T09:00:00	2	Temperatura media	20.9
177810	7	Sololá	719	Santiago Atitlán	14	Cerro de Oro	10	Octubre	2023-12-10T00:00:00	2024-11-08T09:00:00	4	Temperatura máxima	21.2
177811	7	Sololá	719	Santiago Atitlán	14	Cerro de Oro	10	Octubre	2023-12-10T00:00:00	2024-11-08T09:00:00	3	Temperatura mínima	19.5
177812	7	Sololá	719	Santiago Atitlán	14	Cerro de Oro	10	Octubre	2023-12-10T00:00:00	2024-11-08T09:00:00	5	Humedad	90
177813	7	Sololá	719	Santiago Atitlán	14	Cerro de Oro	10	Octubre	2023-12-10T00:00:00	2024-11-08T09:00:00	6	Velocidad del viento	0
177814	7	Sololá	719	Santiago Atitlán	14	Cerro de Oro	10	Octubre	2023-12-10T00:00:00	2024-11-08T09:00:00	7	Dirección del viento	0
177815	7	Sololá	719	Santiago Atitlán	14	Cerro de Oro	10	Octubre	2023-12-10T00:00:00	2024-11-08T09:00:00	1	Precipitación	0
177816	7	Sololá	719	Santiago Atitlán	14	Cerro de Oro	10	Octubre	2023-12-10T00:00:00	2024-11-08T09:00:00	8	Radiación solar	321
177817	7	Sololá	719	Santiago Atitlán	14	Cerro de Oro	10	Octubre	2023-12-10T00:00:00	2024-11-08T10:00:00	2	Temperatura media	21.4
177818	7	Sololá	719	Santiago Atitlán	14	Cerro de Oro	10	Octubre	2023-12-10T00:00:00	2024-11-08T10:00:00	4	Temperatura máxima	21.4
177819	7	Sololá	719	Santiago Atitlán	14	Cerro de Oro	10	Octubre	2023-12-10T00:00:00	2024-11-08T10:00:00	3	Temperatura mínima	20.8
177820	7	Sololá	719	Santiago Atitlán	14	Cerro de Oro	10	Octubre	2023-12-10T00:00:00	2024-11-08T10:00:00	5	Humedad	87
177821	7	Sololá	719	Santiago Atitlán	14	Cerro de Oro	10	Octubre	2023-12-10T00:00:00	2024-11-08T10:00:00	6	Velocidad del viento	3.2
177822	7	Sololá	719	Santiago Atitlán	14	Cerro de Oro	10	Octubre	2023-12-10T00:00:00	2024-11-08T10:00:00	7	Dirección del viento	3.22
177823	7	Sololá	719	Santiago Atitlán	14	Cerro de Oro	10	Octubre	2023-12-10T00:00:00	2024-11-08T10:00:00	1	Precipitación	0
177824	7	Sololá	719	Santiago Atitlán	14	Cerro de Oro	10	Octubre	2023-12-10T00:00:00	2024-11-08T10:00:00	8	Radiación solar	430
177825	7	Sololá	719	Santiago Atitlán	14	Cerro de Oro	10	Octubre	2023-12-10T00:00:00	2024-11-08T11:00:00	2	Temperatura media	22.6
177826	7	Sololá	719	Santiago Atitlán	14	Cerro de Oro	10	Octubre	2023-12-10T00:00:00	2024-11-08T11:00:00	4	Temperatura máxima	23.1
177827	7	Sololá	719	Santiago Atitlán	14	Cerro de Oro	10	Octubre	2023-12-10T00:00:00	2024-11-08T11:00:00	3	Temperatura mínima	21.4
177828	7	Sololá	719	Santiago Atitlán	14	Cerro de Oro	10	Octubre	2023-12-10T00:00:00	2024-11-08T11:00:00	5	Humedad	83
177829	7	Sololá	719	Santiago Atitlán	14	Cerro de Oro	10	Octubre	2023-12-10T00:00:00	2024-11-08T11:00:00	6	Velocidad del viento	1.6
177830	7	Sololá	719	Santiago Atitlán	14	Cerro de Oro	10	Octubre	2023-12-10T00:00:00	2024-11-08T11:00:00	7	Dirección del viento	1.61
177831	7	Sololá	719	Santiago Atitlán	14	Cerro de Oro	10	Octubre	2023-12-10T00:00:00	2024-11-08T11:00:00	1	Precipitación	0
177832	7	Sololá	719	Santiago Atitlán	14	Cerro de Oro	10	Octubre	2023-12-10T00:00:00	2024-11-08T11:00:00	8	Radiación solar	697
177833	7	Sololá	719	Santiago Atitlán	14	Cerro de Oro	10	Octubre	2023-12-10T00:00:00	2024-11-08T12:00:00	2	Temperatura media	22.9
177834	7	Sololá	719	Santiago Atitlán	14	Cerro de Oro	10	Octubre	2023-12-10T00:00:00	2024-11-08T12:00:00	4	Temperatura máxima	23
177835	7	Sololá	719	Santiago Atitlán	14	Cerro de Oro	10	Octubre	2023-12-10T00:00:00	2024-11-08T12:00:00	3	Temperatura mínima	22.1
177836	7	Sololá	719	Santiago Atitlán	14	Cerro de Oro	10	Octubre	2023-12-10T00:00:00	2024-11-08T12:00:00	5	Humedad	80
177837	7	Sololá	719	Santiago Atitlán	14	Cerro de Oro	10	Octubre	2023-12-10T00:00:00	2024-11-08T12:00:00	6	Velocidad del viento	1.6
177838	7	Sololá	719	Santiago Atitlán	14	Cerro de Oro	10	Octubre	2023-12-10T00:00:00	2024-11-08T12:00:00	7	Dirección del viento	1.61
177839	7	Sololá	719	Santiago Atitlán	14	Cerro de Oro	10	Octubre	2023-12-10T00:00:00	2024-11-08T12:00:00	1	Precipitación	0
177840	7	Sololá	719	Santiago Atitlán	14	Cerro de Oro	10	Octubre	2023-12-10T00:00:00	2024-11-08T12:00:00	8	Radiación solar	555
177841	7	Sololá	719	Santiago Atitlán	14	Cerro de Oro	10	Octubre	2023-12-10T00:00:00	2024-11-08T13:00:00	2	Temperatura media	25.3
177842	7	Sololá	719	Santiago Atitlán	14	Cerro de Oro	10	Octubre	2023-12-10T00:00:00	2024-11-08T13:00:00	4	Temperatura máxima	25.3
177843	7	Sololá	719	Santiago Atitlán	14	Cerro de Oro	10	Octubre	2023-12-10T00:00:00	2024-11-08T13:00:00	3	Temperatura mínima	22.7
177844	7	Sololá	719	Santiago Atitlán	14	Cerro de Oro	10	Octubre	2023-12-10T00:00:00	2024-11-08T13:00:00	5	Humedad	76
177845	7	Sololá	719	Santiago Atitlán	14	Cerro de Oro	10	Octubre	2023-12-10T00:00:00	2024-11-08T13:00:00	6	Velocidad del viento	0
177846	7	Sololá	719	Santiago Atitlán	14	Cerro de Oro	10	Octubre	2023-12-10T00:00:00	2024-11-08T13:00:00	7	Dirección del viento	0
177847	7	Sololá	719	Santiago Atitlán	14	Cerro de Oro	10	Octubre	2023-12-10T00:00:00	2024-11-08T13:00:00	1	Precipitación	0
177848	7	Sololá	719	Santiago Atitlán	14	Cerro de Oro	10	Octubre	2023-12-10T00:00:00	2024-11-08T13:00:00	8	Radiación solar	651
177849	7	Sololá	719	Santiago Atitlán	14	Cerro de Oro	10	Octubre	2023-12-10T00:00:00	2024-11-08T14:00:00	2	Temperatura media	22.3
177850	7	Sololá	719	Santiago Atitlán	14	Cerro de Oro	10	Octubre	2023-12-10T00:00:00	2024-11-08T14:00:00	4	Temperatura máxima	25.4
177851	7	Sololá	719	Santiago Atitlán	14	Cerro de Oro	10	Octubre	2023-12-10T00:00:00	2024-11-08T14:00:00	3	Temperatura mínima	22.3
177852	7	Sololá	719	Santiago Atitlán	14	Cerro de Oro	10	Octubre	2023-12-10T00:00:00	2024-11-08T14:00:00	5	Humedad	90
177853	7	Sololá	719	Santiago Atitlán	14	Cerro de Oro	10	Octubre	2023-12-10T00:00:00	2024-11-08T14:00:00	6	Velocidad del viento	4.8
177854	7	Sololá	719	Santiago Atitlán	14	Cerro de Oro	10	Octubre	2023-12-10T00:00:00	2024-11-08T14:00:00	7	Dirección del viento	4.83
177855	7	Sololá	719	Santiago Atitlán	14	Cerro de Oro	10	Octubre	2023-12-10T00:00:00	2024-11-08T14:00:00	1	Precipitación	0
177856	7	Sololá	719	Santiago Atitlán	14	Cerro de Oro	10	Octubre	2023-12-10T00:00:00	2024-11-08T14:00:00	8	Radiación solar	424
177857	7	Sololá	719	Santiago Atitlán	14	Cerro de Oro	10	Octubre	2023-12-10T00:00:00	2024-11-08T15:00:00	2	Temperatura media	21.2
177858	7	Sololá	719	Santiago Atitlán	14	Cerro de Oro	10	Octubre	2023-12-10T00:00:00	2024-11-08T15:00:00	4	Temperatura máxima	22.3
177859	7	Sololá	719	Santiago Atitlán	14	Cerro de Oro	10	Octubre	2023-12-10T00:00:00	2024-11-08T15:00:00	3	Temperatura mínima	21.1
177860	7	Sololá	719	Santiago Atitlán	14	Cerro de Oro	10	Octubre	2023-12-10T00:00:00	2024-11-08T15:00:00	5	Humedad	92
177861	7	Sololá	719	Santiago Atitlán	14	Cerro de Oro	10	Octubre	2023-12-10T00:00:00	2024-11-08T15:00:00	6	Velocidad del viento	6.4
177862	7	Sololá	719	Santiago Atitlán	14	Cerro de Oro	10	Octubre	2023-12-10T00:00:00	2024-11-08T15:00:00	7	Dirección del viento	6.44
177863	7	Sololá	719	Santiago Atitlán	14	Cerro de Oro	10	Octubre	2023-12-10T00:00:00	2024-11-08T15:00:00	1	Precipitación	0
177864	7	Sololá	719	Santiago Atitlán	14	Cerro de Oro	10	Octubre	2023-12-10T00:00:00	2024-11-08T15:00:00	8	Radiación solar	79
177865	7	Sololá	719	Santiago Atitlán	14	Cerro de Oro	10	Octubre	2023-12-10T00:00:00	2024-11-08T16:00:00	2	Temperatura media	21
177866	7	Sololá	719	Santiago Atitlán	14	Cerro de Oro	10	Octubre	2023-12-10T00:00:00	2024-11-08T16:00:00	4	Temperatura máxima	21.3
177867	7	Sololá	719	Santiago Atitlán	14	Cerro de Oro	10	Octubre	2023-12-10T00:00:00	2024-11-08T16:00:00	3	Temperatura mínima	20.7
177868	7	Sololá	719	Santiago Atitlán	14	Cerro de Oro	10	Octubre	2023-12-10T00:00:00	2024-11-08T16:00:00	5	Humedad	92
177869	7	Sololá	719	Santiago Atitlán	14	Cerro de Oro	10	Octubre	2023-12-10T00:00:00	2024-11-08T16:00:00	6	Velocidad del viento	3.2
177870	7	Sololá	719	Santiago Atitlán	14	Cerro de Oro	10	Octubre	2023-12-10T00:00:00	2024-11-08T16:00:00	7	Dirección del viento	3.22
177871	7	Sololá	719	Santiago Atitlán	14	Cerro de Oro	10	Octubre	2023-12-10T00:00:00	2024-11-08T16:00:00	1	Precipitación	0
177872	7	Sololá	719	Santiago Atitlán	14	Cerro de Oro	10	Octubre	2023-12-10T00:00:00	2024-11-08T16:00:00	8	Radiación solar	44
177873	7	Sololá	719	Santiago Atitlán	14	Cerro de Oro	10	Octubre	2023-12-10T00:00:00	2024-11-08T17:00:00	2	Temperatura media	21.1
177874	7	Sololá	719	Santiago Atitlán	14	Cerro de Oro	10	Octubre	2023-12-10T00:00:00	2024-11-08T17:00:00	4	Temperatura máxima	21.2
177875	7	Sololá	719	Santiago Atitlán	14	Cerro de Oro	10	Octubre	2023-12-10T00:00:00	2024-11-08T17:00:00	3	Temperatura mínima	21
177876	7	Sololá	719	Santiago Atitlán	14	Cerro de Oro	10	Octubre	2023-12-10T00:00:00	2024-11-08T17:00:00	5	Humedad	91
177877	7	Sololá	719	Santiago Atitlán	14	Cerro de Oro	10	Octubre	2023-12-10T00:00:00	2024-11-08T17:00:00	6	Velocidad del viento	0
177878	7	Sololá	719	Santiago Atitlán	14	Cerro de Oro	10	Octubre	2023-12-10T00:00:00	2024-11-08T17:00:00	7	Dirección del viento	0
177879	7	Sololá	719	Santiago Atitlán	14	Cerro de Oro	10	Octubre	2023-12-10T00:00:00	2024-11-08T17:00:00	1	Precipitación	0
177880	7	Sololá	719	Santiago Atitlán	14	Cerro de Oro	10	Octubre	2023-12-10T00:00:00	2024-11-08T17:00:00	8	Radiación solar	27
177881	7	Sololá	719	Santiago Atitlán	14	Cerro de Oro	10	Octubre	2023-12-10T00:00:00	2024-11-08T18:00:00	2	Temperatura media	20.6
177882	7	Sololá	719	Santiago Atitlán	14	Cerro de Oro	10	Octubre	2023-12-10T00:00:00	2024-11-08T18:00:00	4	Temperatura máxima	21.1
177883	7	Sololá	719	Santiago Atitlán	14	Cerro de Oro	10	Octubre	2023-12-10T00:00:00	2024-11-08T18:00:00	3	Temperatura mínima	20.6
177884	7	Sololá	719	Santiago Atitlán	14	Cerro de Oro	10	Octubre	2023-12-10T00:00:00	2024-11-08T18:00:00	5	Humedad	92
177885	7	Sololá	719	Santiago Atitlán	14	Cerro de Oro	10	Octubre	2023-12-10T00:00:00	2024-11-08T18:00:00	6	Velocidad del viento	1.6
177886	7	Sololá	719	Santiago Atitlán	14	Cerro de Oro	10	Octubre	2023-12-10T00:00:00	2024-11-08T18:00:00	7	Dirección del viento	1.61
177887	7	Sololá	719	Santiago Atitlán	14	Cerro de Oro	10	Octubre	2023-12-10T00:00:00	2024-11-08T18:00:00	1	Precipitación	0
177888	7	Sololá	719	Santiago Atitlán	14	Cerro de Oro	10	Octubre	2023-12-10T00:00:00	2024-11-08T18:00:00	8	Radiación solar	2
177889	7	Sololá	719	Santiago Atitlán	14	Cerro de Oro	10	Octubre	2023-12-10T00:00:00	2024-11-08T19:00:00	2	Temperatura media	20.6
177890	7	Sololá	719	Santiago Atitlán	14	Cerro de Oro	10	Octubre	2023-12-10T00:00:00	2024-11-08T19:00:00	4	Temperatura máxima	20.7
177891	7	Sololá	719	Santiago Atitlán	14	Cerro de Oro	10	Octubre	2023-12-10T00:00:00	2024-11-08T19:00:00	3	Temperatura mínima	20.4
177892	7	Sololá	719	Santiago Atitlán	14	Cerro de Oro	10	Octubre	2023-12-10T00:00:00	2024-11-08T19:00:00	5	Humedad	93
177893	7	Sololá	719	Santiago Atitlán	14	Cerro de Oro	10	Octubre	2023-12-10T00:00:00	2024-11-08T19:00:00	6	Velocidad del viento	1.6
177894	7	Sololá	719	Santiago Atitlán	14	Cerro de Oro	10	Octubre	2023-12-10T00:00:00	2024-11-08T19:00:00	7	Dirección del viento	1.61
177895	7	Sololá	719	Santiago Atitlán	14	Cerro de Oro	10	Octubre	2023-12-10T00:00:00	2024-11-08T19:00:00	1	Precipitación	0
177896	7	Sololá	719	Santiago Atitlán	14	Cerro de Oro	10	Octubre	2023-12-10T00:00:00	2024-11-08T19:00:00	8	Radiación solar	0
177897	7	Sololá	719	Santiago Atitlán	14	Cerro de Oro	10	Octubre	2023-12-10T00:00:00	2024-11-08T20:00:00	2	Temperatura media	20.1
177898	7	Sololá	719	Santiago Atitlán	14	Cerro de Oro	10	Octubre	2023-12-10T00:00:00	2024-11-08T20:00:00	4	Temperatura máxima	20.6
177899	7	Sololá	719	Santiago Atitlán	14	Cerro de Oro	10	Octubre	2023-12-10T00:00:00	2024-11-08T20:00:00	3	Temperatura mínima	20.1
177900	7	Sololá	719	Santiago Atitlán	14	Cerro de Oro	10	Octubre	2023-12-10T00:00:00	2024-11-08T20:00:00	5	Humedad	92
177901	7	Sololá	719	Santiago Atitlán	14	Cerro de Oro	10	Octubre	2023-12-10T00:00:00	2024-11-08T20:00:00	6	Velocidad del viento	1.6
177902	7	Sololá	719	Santiago Atitlán	14	Cerro de Oro	10	Octubre	2023-12-10T00:00:00	2024-11-08T20:00:00	7	Dirección del viento	1.61
177903	7	Sololá	719	Santiago Atitlán	14	Cerro de Oro	10	Octubre	2023-12-10T00:00:00	2024-11-08T20:00:00	1	Precipitación	0
177904	7	Sololá	719	Santiago Atitlán	14	Cerro de Oro	10	Octubre	2023-12-10T00:00:00	2024-11-08T20:00:00	8	Radiación solar	0
177905	7	Sololá	719	Santiago Atitlán	14	Cerro de Oro	10	Octubre	2023-12-10T00:00:00	2024-11-08T21:00:00	2	Temperatura media	19.9
177906	7	Sololá	719	Santiago Atitlán	14	Cerro de Oro	10	Octubre	2023-12-10T00:00:00	2024-11-08T21:00:00	4	Temperatura máxima	20.2
177907	7	Sololá	719	Santiago Atitlán	14	Cerro de Oro	10	Octubre	2023-12-10T00:00:00	2024-11-08T21:00:00	3	Temperatura mínima	19.9
177908	7	Sololá	719	Santiago Atitlán	14	Cerro de Oro	10	Octubre	2023-12-10T00:00:00	2024-11-08T21:00:00	5	Humedad	93
177909	7	Sololá	719	Santiago Atitlán	14	Cerro de Oro	10	Octubre	2023-12-10T00:00:00	2024-11-08T21:00:00	6	Velocidad del viento	1.6
177910	7	Sololá	719	Santiago Atitlán	14	Cerro de Oro	10	Octubre	2023-12-10T00:00:00	2024-11-08T21:00:00	7	Dirección del viento	1.61
177911	7	Sololá	719	Santiago Atitlán	14	Cerro de Oro	10	Octubre	2023-12-10T00:00:00	2024-11-08T21:00:00	1	Precipitación	0.2
177912	7	Sololá	719	Santiago Atitlán	14	Cerro de Oro	10	Octubre	2023-12-10T00:00:00	2024-11-08T21:00:00	8	Radiación solar	0
177913	7	Sololá	719	Santiago Atitlán	14	Cerro de Oro	10	Octubre	2023-12-10T00:00:00	2024-11-08T22:00:00	2	Temperatura media	19.4
177914	7	Sololá	719	Santiago Atitlán	14	Cerro de Oro	10	Octubre	2023-12-10T00:00:00	2024-11-08T22:00:00	4	Temperatura máxima	20
177915	7	Sololá	719	Santiago Atitlán	14	Cerro de Oro	10	Octubre	2023-12-10T00:00:00	2024-11-08T22:00:00	3	Temperatura mínima	19.4
177916	7	Sololá	719	Santiago Atitlán	14	Cerro de Oro	10	Octubre	2023-12-10T00:00:00	2024-11-08T22:00:00	5	Humedad	94
177917	7	Sololá	719	Santiago Atitlán	14	Cerro de Oro	10	Octubre	2023-12-10T00:00:00	2024-11-08T22:00:00	6	Velocidad del viento	1.6
177918	7	Sololá	719	Santiago Atitlán	14	Cerro de Oro	10	Octubre	2023-12-10T00:00:00	2024-11-08T22:00:00	7	Dirección del viento	1.61
177919	7	Sololá	719	Santiago Atitlán	14	Cerro de Oro	10	Octubre	2023-12-10T00:00:00	2024-11-08T22:00:00	1	Precipitación	0
177920	7	Sololá	719	Santiago Atitlán	14	Cerro de Oro	10	Octubre	2023-12-10T00:00:00	2024-11-08T22:00:00	8	Radiación solar	0
177921	7	Sololá	719	Santiago Atitlán	14	Cerro de Oro	10	Octubre	2023-12-10T00:00:00	2024-11-08T23:00:00	2	Temperatura media	19.4
177922	7	Sololá	719	Santiago Atitlán	14	Cerro de Oro	10	Octubre	2023-12-10T00:00:00	2024-11-08T23:00:00	4	Temperatura máxima	19.8
177923	7	Sololá	719	Santiago Atitlán	14	Cerro de Oro	10	Octubre	2023-12-10T00:00:00	2024-11-08T23:00:00	3	Temperatura mínima	19.4
177924	7	Sololá	719	Santiago Atitlán	14	Cerro de Oro	10	Octubre	2023-12-10T00:00:00	2024-11-08T23:00:00	5	Humedad	93
177925	7	Sololá	719	Santiago Atitlán	14	Cerro de Oro	10	Octubre	2023-12-10T00:00:00	2024-11-08T23:00:00	6	Velocidad del viento	1.6
177926	7	Sololá	719	Santiago Atitlán	14	Cerro de Oro	10	Octubre	2023-12-10T00:00:00	2024-11-08T23:00:00	7	Dirección del viento	1.61
177927	7	Sololá	719	Santiago Atitlán	14	Cerro de Oro	10	Octubre	2023-12-10T00:00:00	2024-11-08T23:00:00	1	Precipitación	0
177928	7	Sololá	719	Santiago Atitlán	14	Cerro de Oro	10	Octubre	2023-12-10T00:00:00	2024-11-08T23:00:00	8	Radiación solar	0
177929	7	Sololá	719	Santiago Atitlán	14	Cerro de Oro	10	Octubre	2023-10-13T00:00:00	2024-11-08T00:00:00	2	Temperatura media	19.3
177930	7	Sololá	719	Santiago Atitlán	14	Cerro de Oro	10	Octubre	2023-10-13T00:00:00	2024-11-08T00:00:00	4	Temperatura máxima	19.5
177931	7	Sololá	719	Santiago Atitlán	14	Cerro de Oro	10	Octubre	2023-10-13T00:00:00	2024-11-08T00:00:00	3	Temperatura mínima	18.9
177932	7	Sololá	719	Santiago Atitlán	14	Cerro de Oro	10	Octubre	2023-10-13T00:00:00	2024-11-08T00:00:00	5	Humedad	96
177933	7	Sololá	719	Santiago Atitlán	14	Cerro de Oro	10	Octubre	2023-10-13T00:00:00	2024-11-08T00:00:00	6	Velocidad del viento	1.6
177934	7	Sololá	719	Santiago Atitlán	14	Cerro de Oro	10	Octubre	2023-10-13T00:00:00	2024-11-08T00:00:00	7	Dirección del viento	1.61
177935	7	Sololá	719	Santiago Atitlán	14	Cerro de Oro	10	Octubre	2023-10-13T00:00:00	2024-11-08T00:00:00	1	Precipitación	0
177936	7	Sololá	719	Santiago Atitlán	14	Cerro de Oro	10	Octubre	2023-10-13T00:00:00	2024-11-08T00:00:00	8	Radiación solar	0
177937	7	Sololá	719	Santiago Atitlán	14	Cerro de Oro	10	Octubre	2023-10-13T00:00:00	2024-11-08T01:00:00	2	Temperatura media	19.2
177938	7	Sololá	719	Santiago Atitlán	14	Cerro de Oro	10	Octubre	2023-10-13T00:00:00	2024-11-08T01:00:00	4	Temperatura máxima	19.4
177939	7	Sololá	719	Santiago Atitlán	14	Cerro de Oro	10	Octubre	2023-10-13T00:00:00	2024-11-08T01:00:00	3	Temperatura mínima	19.1
177940	7	Sololá	719	Santiago Atitlán	14	Cerro de Oro	10	Octubre	2023-10-13T00:00:00	2024-11-08T01:00:00	5	Humedad	95
177941	7	Sololá	719	Santiago Atitlán	14	Cerro de Oro	10	Octubre	2023-10-13T00:00:00	2024-11-08T01:00:00	6	Velocidad del viento	1.6
177942	7	Sololá	719	Santiago Atitlán	14	Cerro de Oro	10	Octubre	2023-10-13T00:00:00	2024-11-08T01:00:00	7	Dirección del viento	1.61
177943	7	Sololá	719	Santiago Atitlán	14	Cerro de Oro	10	Octubre	2023-10-13T00:00:00	2024-11-08T01:00:00	1	Precipitación	0
177944	7	Sololá	719	Santiago Atitlán	14	Cerro de Oro	10	Octubre	2023-10-13T00:00:00	2024-11-08T01:00:00	8	Radiación solar	0
177945	7	Sololá	719	Santiago Atitlán	14	Cerro de Oro	10	Octubre	2023-10-13T00:00:00	2024-11-08T02:00:00	2	Temperatura media	19.1
177946	7	Sololá	719	Santiago Atitlán	14	Cerro de Oro	10	Octubre	2023-10-13T00:00:00	2024-11-08T02:00:00	4	Temperatura máxima	19.2
177947	7	Sololá	719	Santiago Atitlán	14	Cerro de Oro	10	Octubre	2023-10-13T00:00:00	2024-11-08T02:00:00	3	Temperatura mínima	18.8
177948	7	Sololá	719	Santiago Atitlán	14	Cerro de Oro	10	Octubre	2023-10-13T00:00:00	2024-11-08T02:00:00	5	Humedad	95
177949	7	Sololá	719	Santiago Atitlán	14	Cerro de Oro	10	Octubre	2023-10-13T00:00:00	2024-11-08T02:00:00	6	Velocidad del viento	1.6
177950	7	Sololá	719	Santiago Atitlán	14	Cerro de Oro	10	Octubre	2023-10-13T00:00:00	2024-11-08T02:00:00	7	Dirección del viento	1.61
177951	7	Sololá	719	Santiago Atitlán	14	Cerro de Oro	10	Octubre	2023-10-13T00:00:00	2024-11-08T02:00:00	1	Precipitación	0
177952	7	Sololá	719	Santiago Atitlán	14	Cerro de Oro	10	Octubre	2023-10-13T00:00:00	2024-11-08T02:00:00	8	Radiación solar	0
177953	7	Sololá	719	Santiago Atitlán	14	Cerro de Oro	10	Octubre	2023-10-13T00:00:00	2024-11-08T03:00:00	2	Temperatura media	18.1
177954	7	Sololá	719	Santiago Atitlán	14	Cerro de Oro	10	Octubre	2023-10-13T00:00:00	2024-11-08T03:00:00	4	Temperatura máxima	19.2
177955	7	Sololá	719	Santiago Atitlán	14	Cerro de Oro	10	Octubre	2023-10-13T00:00:00	2024-11-08T03:00:00	3	Temperatura mínima	18.1
177956	7	Sololá	719	Santiago Atitlán	14	Cerro de Oro	10	Octubre	2023-10-13T00:00:00	2024-11-08T03:00:00	5	Humedad	94
177957	7	Sololá	719	Santiago Atitlán	14	Cerro de Oro	10	Octubre	2023-10-13T00:00:00	2024-11-08T03:00:00	6	Velocidad del viento	1.6
177958	7	Sololá	719	Santiago Atitlán	14	Cerro de Oro	10	Octubre	2023-10-13T00:00:00	2024-11-08T03:00:00	7	Dirección del viento	1.61
177959	7	Sololá	719	Santiago Atitlán	14	Cerro de Oro	10	Octubre	2023-10-13T00:00:00	2024-11-08T03:00:00	1	Precipitación	0
177960	7	Sololá	719	Santiago Atitlán	14	Cerro de Oro	10	Octubre	2023-10-13T00:00:00	2024-11-08T03:00:00	8	Radiación solar	0
177961	7	Sololá	719	Santiago Atitlán	14	Cerro de Oro	10	Octubre	2023-10-13T00:00:00	2024-11-08T04:00:00	2	Temperatura media	17.9
177962	7	Sololá	719	Santiago Atitlán	14	Cerro de Oro	10	Octubre	2023-10-13T00:00:00	2024-11-08T04:00:00	4	Temperatura máxima	18.2
177963	7	Sololá	719	Santiago Atitlán	14	Cerro de Oro	10	Octubre	2023-10-13T00:00:00	2024-11-08T04:00:00	3	Temperatura mínima	17.8
177964	7	Sololá	719	Santiago Atitlán	14	Cerro de Oro	10	Octubre	2023-10-13T00:00:00	2024-11-08T04:00:00	5	Humedad	91
177965	7	Sololá	719	Santiago Atitlán	14	Cerro de Oro	10	Octubre	2023-10-13T00:00:00	2024-11-08T04:00:00	6	Velocidad del viento	3.2
177966	7	Sololá	719	Santiago Atitlán	14	Cerro de Oro	10	Octubre	2023-10-13T00:00:00	2024-11-08T04:00:00	7	Dirección del viento	3.22
177967	7	Sololá	719	Santiago Atitlán	14	Cerro de Oro	10	Octubre	2023-10-13T00:00:00	2024-11-08T04:00:00	1	Precipitación	0
177968	7	Sololá	719	Santiago Atitlán	14	Cerro de Oro	10	Octubre	2023-10-13T00:00:00	2024-11-08T04:00:00	8	Radiación solar	0
177969	7	Sololá	719	Santiago Atitlán	14	Cerro de Oro	10	Octubre	2023-10-13T00:00:00	2024-11-08T05:00:00	2	Temperatura media	17.4
177970	7	Sololá	719	Santiago Atitlán	14	Cerro de Oro	10	Octubre	2023-10-13T00:00:00	2024-11-08T05:00:00	4	Temperatura máxima	18.2
177971	7	Sololá	719	Santiago Atitlán	14	Cerro de Oro	10	Octubre	2023-10-13T00:00:00	2024-11-08T05:00:00	3	Temperatura mínima	17.4
177972	7	Sololá	719	Santiago Atitlán	14	Cerro de Oro	10	Octubre	2023-10-13T00:00:00	2024-11-08T05:00:00	5	Humedad	93
177973	7	Sololá	719	Santiago Atitlán	14	Cerro de Oro	10	Octubre	2023-10-13T00:00:00	2024-11-08T05:00:00	6	Velocidad del viento	1.6
177974	7	Sololá	719	Santiago Atitlán	14	Cerro de Oro	10	Octubre	2023-10-13T00:00:00	2024-11-08T05:00:00	7	Dirección del viento	1.61
177975	7	Sololá	719	Santiago Atitlán	14	Cerro de Oro	10	Octubre	2023-10-13T00:00:00	2024-11-08T05:00:00	1	Precipitación	0
177976	7	Sololá	719	Santiago Atitlán	14	Cerro de Oro	10	Octubre	2023-10-13T00:00:00	2024-11-08T05:00:00	8	Radiación solar	0
177977	7	Sololá	719	Santiago Atitlán	14	Cerro de Oro	10	Octubre	2023-10-13T00:00:00	2024-11-08T06:00:00	2	Temperatura media	16.9
177978	7	Sololá	719	Santiago Atitlán	14	Cerro de Oro	10	Octubre	2023-10-13T00:00:00	2024-11-08T06:00:00	4	Temperatura máxima	17.5
177979	7	Sololá	719	Santiago Atitlán	14	Cerro de Oro	10	Octubre	2023-10-13T00:00:00	2024-11-08T06:00:00	3	Temperatura mínima	16.9
177980	7	Sololá	719	Santiago Atitlán	14	Cerro de Oro	10	Octubre	2023-10-13T00:00:00	2024-11-08T06:00:00	5	Humedad	94
177981	7	Sololá	719	Santiago Atitlán	14	Cerro de Oro	10	Octubre	2023-10-13T00:00:00	2024-11-08T06:00:00	6	Velocidad del viento	1.6
177982	7	Sololá	719	Santiago Atitlán	14	Cerro de Oro	10	Octubre	2023-10-13T00:00:00	2024-11-08T06:00:00	7	Dirección del viento	1.61
177983	7	Sololá	719	Santiago Atitlán	14	Cerro de Oro	10	Octubre	2023-10-13T00:00:00	2024-11-08T06:00:00	1	Precipitación	0
177984	7	Sololá	719	Santiago Atitlán	14	Cerro de Oro	10	Octubre	2023-10-13T00:00:00	2024-11-08T06:00:00	8	Radiación solar	1
177985	7	Sololá	719	Santiago Atitlán	14	Cerro de Oro	10	Octubre	2023-10-13T00:00:00	2024-11-08T07:00:00	2	Temperatura media	18.2
177986	7	Sololá	719	Santiago Atitlán	14	Cerro de Oro	10	Octubre	2023-10-13T00:00:00	2024-11-08T07:00:00	4	Temperatura máxima	18.2
177987	7	Sololá	719	Santiago Atitlán	14	Cerro de Oro	10	Octubre	2023-10-13T00:00:00	2024-11-08T07:00:00	3	Temperatura mínima	16.8
177988	7	Sololá	719	Santiago Atitlán	14	Cerro de Oro	10	Octubre	2023-10-13T00:00:00	2024-11-08T07:00:00	5	Humedad	92
177989	7	Sololá	719	Santiago Atitlán	14	Cerro de Oro	10	Octubre	2023-10-13T00:00:00	2024-11-08T07:00:00	6	Velocidad del viento	1.6
177990	7	Sololá	719	Santiago Atitlán	14	Cerro de Oro	10	Octubre	2023-10-13T00:00:00	2024-11-08T07:00:00	7	Dirección del viento	1.61
177991	7	Sololá	719	Santiago Atitlán	14	Cerro de Oro	10	Octubre	2023-10-13T00:00:00	2024-11-08T07:00:00	1	Precipitación	0
177992	7	Sololá	719	Santiago Atitlán	14	Cerro de Oro	10	Octubre	2023-10-13T00:00:00	2024-11-08T07:00:00	8	Radiación solar	53
177993	7	Sololá	719	Santiago Atitlán	14	Cerro de Oro	10	Octubre	2023-10-13T00:00:00	2024-11-08T08:00:00	2	Temperatura media	22.4
177994	7	Sololá	719	Santiago Atitlán	14	Cerro de Oro	10	Octubre	2023-10-13T00:00:00	2024-11-08T08:00:00	4	Temperatura máxima	22.4
177995	7	Sololá	719	Santiago Atitlán	14	Cerro de Oro	10	Octubre	2023-10-13T00:00:00	2024-11-08T08:00:00	3	Temperatura mínima	18.3
177996	7	Sololá	719	Santiago Atitlán	14	Cerro de Oro	10	Octubre	2023-10-13T00:00:00	2024-11-08T08:00:00	5	Humedad	82
177997	7	Sololá	719	Santiago Atitlán	14	Cerro de Oro	10	Octubre	2023-10-13T00:00:00	2024-11-08T08:00:00	6	Velocidad del viento	1.6
177998	7	Sololá	719	Santiago Atitlán	14	Cerro de Oro	10	Octubre	2023-10-13T00:00:00	2024-11-08T08:00:00	7	Dirección del viento	1.61
177999	7	Sololá	719	Santiago Atitlán	14	Cerro de Oro	10	Octubre	2023-10-13T00:00:00	2024-11-08T08:00:00	1	Precipitación	0
178000	7	Sololá	719	Santiago Atitlán	14	Cerro de Oro	10	Octubre	2023-10-13T00:00:00	2024-11-08T08:00:00	8	Radiación solar	302
178001	7	Sololá	719	Santiago Atitlán	14	Cerro de Oro	10	Octubre	2023-10-13T00:00:00	2024-11-08T09:00:00	2	Temperatura media	22.6
178002	7	Sololá	719	Santiago Atitlán	14	Cerro de Oro	10	Octubre	2023-10-13T00:00:00	2024-11-08T09:00:00	4	Temperatura máxima	22.6
178003	7	Sololá	719	Santiago Atitlán	14	Cerro de Oro	10	Octubre	2023-10-13T00:00:00	2024-11-08T09:00:00	3	Temperatura mínima	21.6
178004	7	Sololá	719	Santiago Atitlán	14	Cerro de Oro	10	Octubre	2023-10-13T00:00:00	2024-11-08T09:00:00	5	Humedad	83
178005	7	Sololá	719	Santiago Atitlán	14	Cerro de Oro	10	Octubre	2023-10-13T00:00:00	2024-11-08T09:00:00	6	Velocidad del viento	1.6
178006	7	Sololá	719	Santiago Atitlán	14	Cerro de Oro	10	Octubre	2023-10-13T00:00:00	2024-11-08T09:00:00	7	Dirección del viento	1.61
178007	7	Sololá	719	Santiago Atitlán	14	Cerro de Oro	10	Octubre	2023-10-13T00:00:00	2024-11-08T09:00:00	1	Precipitación	0
178008	7	Sololá	719	Santiago Atitlán	14	Cerro de Oro	10	Octubre	2023-10-13T00:00:00	2024-11-08T09:00:00	8	Radiación solar	516
178009	7	Sololá	719	Santiago Atitlán	14	Cerro de Oro	10	Octubre	2023-10-13T00:00:00	2024-11-08T10:00:00	2	Temperatura media	23.2
178010	7	Sololá	719	Santiago Atitlán	14	Cerro de Oro	10	Octubre	2023-10-13T00:00:00	2024-11-08T10:00:00	4	Temperatura máxima	23.3
178011	7	Sololá	719	Santiago Atitlán	14	Cerro de Oro	10	Octubre	2023-10-13T00:00:00	2024-11-08T10:00:00	3	Temperatura mínima	22.6
178012	7	Sololá	719	Santiago Atitlán	14	Cerro de Oro	10	Octubre	2023-10-13T00:00:00	2024-11-08T10:00:00	5	Humedad	82
178013	7	Sololá	719	Santiago Atitlán	14	Cerro de Oro	10	Octubre	2023-10-13T00:00:00	2024-11-08T10:00:00	6	Velocidad del viento	1.6
178014	7	Sololá	719	Santiago Atitlán	14	Cerro de Oro	10	Octubre	2023-10-13T00:00:00	2024-11-08T10:00:00	7	Dirección del viento	1.61
178015	7	Sololá	719	Santiago Atitlán	14	Cerro de Oro	10	Octubre	2023-10-13T00:00:00	2024-11-08T10:00:00	1	Precipitación	0
178016	7	Sololá	719	Santiago Atitlán	14	Cerro de Oro	10	Octubre	2023-10-13T00:00:00	2024-11-08T10:00:00	8	Radiación solar	689
178017	7	Sololá	719	Santiago Atitlán	14	Cerro de Oro	10	Octubre	2023-10-13T00:00:00	2024-11-08T11:00:00	2	Temperatura media	23.3
178018	7	Sololá	719	Santiago Atitlán	14	Cerro de Oro	10	Octubre	2023-10-13T00:00:00	2024-11-08T11:00:00	4	Temperatura máxima	23.6
178019	7	Sololá	719	Santiago Atitlán	14	Cerro de Oro	10	Octubre	2023-10-13T00:00:00	2024-11-08T11:00:00	3	Temperatura mínima	23.1
178020	7	Sololá	719	Santiago Atitlán	14	Cerro de Oro	10	Octubre	2023-10-13T00:00:00	2024-11-08T11:00:00	5	Humedad	84
178021	7	Sololá	719	Santiago Atitlán	14	Cerro de Oro	10	Octubre	2023-10-13T00:00:00	2024-11-08T11:00:00	6	Velocidad del viento	3.2
178022	7	Sololá	719	Santiago Atitlán	14	Cerro de Oro	10	Octubre	2023-10-13T00:00:00	2024-11-08T11:00:00	7	Dirección del viento	3.22
178023	7	Sololá	719	Santiago Atitlán	14	Cerro de Oro	10	Octubre	2023-10-13T00:00:00	2024-11-08T11:00:00	1	Precipitación	0
178024	7	Sololá	719	Santiago Atitlán	14	Cerro de Oro	10	Octubre	2023-10-13T00:00:00	2024-11-08T11:00:00	8	Radiación solar	825
178025	7	Sololá	719	Santiago Atitlán	14	Cerro de Oro	10	Octubre	2023-10-13T00:00:00	2024-11-08T12:00:00	2	Temperatura media	23
178026	7	Sololá	719	Santiago Atitlán	14	Cerro de Oro	10	Octubre	2023-10-13T00:00:00	2024-11-08T12:00:00	4	Temperatura máxima	24.1
178027	7	Sololá	719	Santiago Atitlán	14	Cerro de Oro	10	Octubre	2023-10-13T00:00:00	2024-11-08T12:00:00	3	Temperatura mínima	22.9
178028	7	Sololá	719	Santiago Atitlán	14	Cerro de Oro	10	Octubre	2023-10-13T00:00:00	2024-11-08T12:00:00	5	Humedad	85
178029	7	Sololá	719	Santiago Atitlán	14	Cerro de Oro	10	Octubre	2023-10-13T00:00:00	2024-11-08T12:00:00	6	Velocidad del viento	4.8
178030	7	Sololá	719	Santiago Atitlán	14	Cerro de Oro	10	Octubre	2023-10-13T00:00:00	2024-11-08T12:00:00	7	Dirección del viento	4.83
178031	7	Sololá	719	Santiago Atitlán	14	Cerro de Oro	10	Octubre	2023-10-13T00:00:00	2024-11-08T12:00:00	1	Precipitación	0
178032	7	Sololá	719	Santiago Atitlán	14	Cerro de Oro	10	Octubre	2023-10-13T00:00:00	2024-11-08T12:00:00	8	Radiación solar	644
178033	7	Sololá	719	Santiago Atitlán	14	Cerro de Oro	10	Octubre	2023-10-13T00:00:00	2024-11-08T13:00:00	2	Temperatura media	22.7
178034	7	Sololá	719	Santiago Atitlán	14	Cerro de Oro	10	Octubre	2023-10-13T00:00:00	2024-11-08T13:00:00	4	Temperatura máxima	23
178035	7	Sololá	719	Santiago Atitlán	14	Cerro de Oro	10	Octubre	2023-10-13T00:00:00	2024-11-08T13:00:00	3	Temperatura mínima	22.3
178036	7	Sololá	719	Santiago Atitlán	14	Cerro de Oro	10	Octubre	2023-10-13T00:00:00	2024-11-08T13:00:00	5	Humedad	88
178037	7	Sololá	719	Santiago Atitlán	14	Cerro de Oro	10	Octubre	2023-10-13T00:00:00	2024-11-08T13:00:00	6	Velocidad del viento	4.8
178038	7	Sololá	719	Santiago Atitlán	14	Cerro de Oro	10	Octubre	2023-10-13T00:00:00	2024-11-08T13:00:00	7	Dirección del viento	4.83
178039	7	Sololá	719	Santiago Atitlán	14	Cerro de Oro	10	Octubre	2023-10-13T00:00:00	2024-11-08T13:00:00	1	Precipitación	0
178040	7	Sololá	719	Santiago Atitlán	14	Cerro de Oro	10	Octubre	2023-10-13T00:00:00	2024-11-08T13:00:00	8	Radiación solar	268
178041	7	Sololá	719	Santiago Atitlán	14	Cerro de Oro	10	Octubre	2023-10-13T00:00:00	2024-11-08T14:00:00	2	Temperatura media	22.8
178042	7	Sololá	719	Santiago Atitlán	14	Cerro de Oro	10	Octubre	2023-10-13T00:00:00	2024-11-08T14:00:00	4	Temperatura máxima	23.3
178043	7	Sololá	719	Santiago Atitlán	14	Cerro de Oro	10	Octubre	2023-10-13T00:00:00	2024-11-08T14:00:00	3	Temperatura mínima	22.5
178044	7	Sololá	719	Santiago Atitlán	14	Cerro de Oro	10	Octubre	2023-10-13T00:00:00	2024-11-08T14:00:00	5	Humedad	86
178045	7	Sololá	719	Santiago Atitlán	14	Cerro de Oro	10	Octubre	2023-10-13T00:00:00	2024-11-08T14:00:00	6	Velocidad del viento	3.2
178046	7	Sololá	719	Santiago Atitlán	14	Cerro de Oro	10	Octubre	2023-10-13T00:00:00	2024-11-08T14:00:00	7	Dirección del viento	3.22
178047	7	Sololá	719	Santiago Atitlán	14	Cerro de Oro	10	Octubre	2023-10-13T00:00:00	2024-11-08T14:00:00	1	Precipitación	0
178048	7	Sololá	719	Santiago Atitlán	14	Cerro de Oro	10	Octubre	2023-10-13T00:00:00	2024-11-08T14:00:00	8	Radiación solar	380
178049	7	Sololá	719	Santiago Atitlán	14	Cerro de Oro	10	Octubre	2023-10-13T00:00:00	2024-11-08T15:00:00	2	Temperatura media	21.6
178050	7	Sololá	719	Santiago Atitlán	14	Cerro de Oro	10	Octubre	2023-10-13T00:00:00	2024-11-08T15:00:00	4	Temperatura máxima	23.2
178051	7	Sololá	719	Santiago Atitlán	14	Cerro de Oro	10	Octubre	2023-10-13T00:00:00	2024-11-08T15:00:00	3	Temperatura mínima	21.6
178052	7	Sololá	719	Santiago Atitlán	14	Cerro de Oro	10	Octubre	2023-10-13T00:00:00	2024-11-08T15:00:00	5	Humedad	89
178053	7	Sololá	719	Santiago Atitlán	14	Cerro de Oro	10	Octubre	2023-10-13T00:00:00	2024-11-08T15:00:00	6	Velocidad del viento	3.2
178054	7	Sololá	719	Santiago Atitlán	14	Cerro de Oro	10	Octubre	2023-10-13T00:00:00	2024-11-08T15:00:00	7	Dirección del viento	3.22
178055	7	Sololá	719	Santiago Atitlán	14	Cerro de Oro	10	Octubre	2023-10-13T00:00:00	2024-11-08T15:00:00	1	Precipitación	0
178056	7	Sololá	719	Santiago Atitlán	14	Cerro de Oro	10	Octubre	2023-10-13T00:00:00	2024-11-08T15:00:00	8	Radiación solar	209
178057	7	Sololá	719	Santiago Atitlán	14	Cerro de Oro	10	Octubre	2023-10-13T00:00:00	2024-11-08T16:00:00	2	Temperatura media	21.3
178058	7	Sololá	719	Santiago Atitlán	14	Cerro de Oro	10	Octubre	2023-10-13T00:00:00	2024-11-08T16:00:00	4	Temperatura máxima	21.6
178059	7	Sololá	719	Santiago Atitlán	14	Cerro de Oro	10	Octubre	2023-10-13T00:00:00	2024-11-08T16:00:00	3	Temperatura mínima	21.3
178060	7	Sololá	719	Santiago Atitlán	14	Cerro de Oro	10	Octubre	2023-10-13T00:00:00	2024-11-08T16:00:00	5	Humedad	90
178061	7	Sololá	719	Santiago Atitlán	14	Cerro de Oro	10	Octubre	2023-10-13T00:00:00	2024-11-08T16:00:00	6	Velocidad del viento	0
178062	7	Sololá	719	Santiago Atitlán	14	Cerro de Oro	10	Octubre	2023-10-13T00:00:00	2024-11-08T16:00:00	7	Dirección del viento	0
178063	7	Sololá	719	Santiago Atitlán	14	Cerro de Oro	10	Octubre	2023-10-13T00:00:00	2024-11-08T16:00:00	1	Precipitación	0
178064	7	Sololá	719	Santiago Atitlán	14	Cerro de Oro	10	Octubre	2023-10-13T00:00:00	2024-11-08T16:00:00	8	Radiación solar	66
178065	7	Sololá	719	Santiago Atitlán	14	Cerro de Oro	10	Octubre	2023-10-13T00:00:00	2024-11-08T17:00:00	2	Temperatura media	21.2
178066	7	Sololá	719	Santiago Atitlán	14	Cerro de Oro	10	Octubre	2023-10-13T00:00:00	2024-11-08T17:00:00	4	Temperatura máxima	21.4
178067	7	Sololá	719	Santiago Atitlán	14	Cerro de Oro	10	Octubre	2023-10-13T00:00:00	2024-11-08T17:00:00	3	Temperatura mínima	21.2
178068	7	Sololá	719	Santiago Atitlán	14	Cerro de Oro	10	Octubre	2023-10-13T00:00:00	2024-11-08T17:00:00	5	Humedad	91
178069	7	Sololá	719	Santiago Atitlán	14	Cerro de Oro	10	Octubre	2023-10-13T00:00:00	2024-11-08T17:00:00	6	Velocidad del viento	1.6
178070	7	Sololá	719	Santiago Atitlán	14	Cerro de Oro	10	Octubre	2023-10-13T00:00:00	2024-11-08T17:00:00	7	Dirección del viento	1.61
178071	7	Sololá	719	Santiago Atitlán	14	Cerro de Oro	10	Octubre	2023-10-13T00:00:00	2024-11-08T17:00:00	1	Precipitación	0
178072	7	Sololá	719	Santiago Atitlán	14	Cerro de Oro	10	Octubre	2023-10-13T00:00:00	2024-11-08T17:00:00	8	Radiación solar	36
178073	7	Sololá	719	Santiago Atitlán	14	Cerro de Oro	10	Octubre	2023-10-13T00:00:00	2024-11-08T18:00:00	2	Temperatura media	20.9
178074	7	Sololá	719	Santiago Atitlán	14	Cerro de Oro	10	Octubre	2023-10-13T00:00:00	2024-11-08T18:00:00	4	Temperatura máxima	21.2
178075	7	Sololá	719	Santiago Atitlán	14	Cerro de Oro	10	Octubre	2023-10-13T00:00:00	2024-11-08T18:00:00	3	Temperatura mínima	20.9
178076	7	Sololá	719	Santiago Atitlán	14	Cerro de Oro	10	Octubre	2023-10-13T00:00:00	2024-11-08T18:00:00	5	Humedad	93
178077	7	Sololá	719	Santiago Atitlán	14	Cerro de Oro	10	Octubre	2023-10-13T00:00:00	2024-11-08T18:00:00	6	Velocidad del viento	0
178078	7	Sololá	719	Santiago Atitlán	14	Cerro de Oro	10	Octubre	2023-10-13T00:00:00	2024-11-08T18:00:00	7	Dirección del viento	0
178079	7	Sololá	719	Santiago Atitlán	14	Cerro de Oro	10	Octubre	2023-10-13T00:00:00	2024-11-08T18:00:00	1	Precipitación	0
178080	7	Sololá	719	Santiago Atitlán	14	Cerro de Oro	10	Octubre	2023-10-13T00:00:00	2024-11-08T18:00:00	8	Radiación solar	4
178081	7	Sololá	719	Santiago Atitlán	14	Cerro de Oro	10	Octubre	2023-10-13T00:00:00	2024-11-08T19:00:00	2	Temperatura media	20.6
178082	7	Sololá	719	Santiago Atitlán	14	Cerro de Oro	10	Octubre	2023-10-13T00:00:00	2024-11-08T19:00:00	4	Temperatura máxima	20.9
178083	7	Sololá	719	Santiago Atitlán	14	Cerro de Oro	10	Octubre	2023-10-13T00:00:00	2024-11-08T19:00:00	3	Temperatura mínima	20.6
178084	7	Sololá	719	Santiago Atitlán	14	Cerro de Oro	10	Octubre	2023-10-13T00:00:00	2024-11-08T19:00:00	5	Humedad	92
178085	7	Sololá	719	Santiago Atitlán	14	Cerro de Oro	10	Octubre	2023-10-13T00:00:00	2024-11-08T19:00:00	6	Velocidad del viento	1.6
178086	7	Sololá	719	Santiago Atitlán	14	Cerro de Oro	10	Octubre	2023-10-13T00:00:00	2024-11-08T19:00:00	7	Dirección del viento	1.61
178087	7	Sololá	719	Santiago Atitlán	14	Cerro de Oro	10	Octubre	2023-10-13T00:00:00	2024-11-08T19:00:00	1	Precipitación	0
178088	7	Sololá	719	Santiago Atitlán	14	Cerro de Oro	10	Octubre	2023-10-13T00:00:00	2024-11-08T19:00:00	8	Radiación solar	0
178089	7	Sololá	719	Santiago Atitlán	14	Cerro de Oro	10	Octubre	2023-10-13T00:00:00	2024-11-08T20:00:00	2	Temperatura media	20.6
178090	7	Sololá	719	Santiago Atitlán	14	Cerro de Oro	10	Octubre	2023-10-13T00:00:00	2024-11-08T20:00:00	4	Temperatura máxima	20.7
178091	7	Sololá	719	Santiago Atitlán	14	Cerro de Oro	10	Octubre	2023-10-13T00:00:00	2024-11-08T20:00:00	3	Temperatura mínima	20.4
178092	7	Sololá	719	Santiago Atitlán	14	Cerro de Oro	10	Octubre	2023-10-13T00:00:00	2024-11-08T20:00:00	5	Humedad	92
178093	7	Sololá	719	Santiago Atitlán	14	Cerro de Oro	10	Octubre	2023-10-13T00:00:00	2024-11-08T20:00:00	6	Velocidad del viento	1.6
178094	7	Sololá	719	Santiago Atitlán	14	Cerro de Oro	10	Octubre	2023-10-13T00:00:00	2024-11-08T20:00:00	7	Dirección del viento	1.61
178095	7	Sololá	719	Santiago Atitlán	14	Cerro de Oro	10	Octubre	2023-10-13T00:00:00	2024-11-08T20:00:00	1	Precipitación	0
178096	7	Sololá	719	Santiago Atitlán	14	Cerro de Oro	10	Octubre	2023-10-13T00:00:00	2024-11-08T20:00:00	8	Radiación solar	0
178097	7	Sololá	719	Santiago Atitlán	14	Cerro de Oro	10	Octubre	2023-10-13T00:00:00	2024-11-08T21:00:00	2	Temperatura media	20.4
178098	7	Sololá	719	Santiago Atitlán	14	Cerro de Oro	10	Octubre	2023-10-13T00:00:00	2024-11-08T21:00:00	4	Temperatura máxima	20.7
178099	7	Sololá	719	Santiago Atitlán	14	Cerro de Oro	10	Octubre	2023-10-13T00:00:00	2024-11-08T21:00:00	3	Temperatura mínima	20.3
178100	7	Sololá	719	Santiago Atitlán	14	Cerro de Oro	10	Octubre	2023-10-13T00:00:00	2024-11-08T21:00:00	5	Humedad	93
178101	7	Sololá	719	Santiago Atitlán	14	Cerro de Oro	10	Octubre	2023-10-13T00:00:00	2024-11-08T21:00:00	6	Velocidad del viento	0
178102	7	Sololá	719	Santiago Atitlán	14	Cerro de Oro	10	Octubre	2023-10-13T00:00:00	2024-11-08T21:00:00	7	Dirección del viento	0
178103	7	Sololá	719	Santiago Atitlán	14	Cerro de Oro	10	Octubre	2023-10-13T00:00:00	2024-11-08T21:00:00	1	Precipitación	0
178104	7	Sololá	719	Santiago Atitlán	14	Cerro de Oro	10	Octubre	2023-10-13T00:00:00	2024-11-08T21:00:00	8	Radiación solar	0
178105	7	Sololá	719	Santiago Atitlán	14	Cerro de Oro	10	Octubre	2023-10-13T00:00:00	2024-11-08T22:00:00	2	Temperatura media	19.2
178106	7	Sololá	719	Santiago Atitlán	14	Cerro de Oro	10	Octubre	2023-10-13T00:00:00	2024-11-08T22:00:00	4	Temperatura máxima	20.3
178107	7	Sololá	719	Santiago Atitlán	14	Cerro de Oro	10	Octubre	2023-10-13T00:00:00	2024-11-08T22:00:00	3	Temperatura mínima	19.2
178108	7	Sololá	719	Santiago Atitlán	14	Cerro de Oro	10	Octubre	2023-10-13T00:00:00	2024-11-08T22:00:00	5	Humedad	94
178109	7	Sololá	719	Santiago Atitlán	14	Cerro de Oro	10	Octubre	2023-10-13T00:00:00	2024-11-08T22:00:00	6	Velocidad del viento	0
178110	7	Sololá	719	Santiago Atitlán	14	Cerro de Oro	10	Octubre	2023-10-13T00:00:00	2024-11-08T22:00:00	7	Dirección del viento	0
178111	7	Sololá	719	Santiago Atitlán	14	Cerro de Oro	10	Octubre	2023-10-13T00:00:00	2024-11-08T22:00:00	1	Precipitación	0
178112	7	Sololá	719	Santiago Atitlán	14	Cerro de Oro	10	Octubre	2023-10-13T00:00:00	2024-11-08T22:00:00	8	Radiación solar	0
178113	7	Sololá	719	Santiago Atitlán	14	Cerro de Oro	10	Octubre	2023-10-13T00:00:00	2024-11-08T23:00:00	2	Temperatura media	18.8
178114	7	Sololá	719	Santiago Atitlán	14	Cerro de Oro	10	Octubre	2023-10-13T00:00:00	2024-11-08T23:00:00	4	Temperatura máxima	19.2
178115	7	Sololá	719	Santiago Atitlán	14	Cerro de Oro	10	Octubre	2023-10-13T00:00:00	2024-11-08T23:00:00	3	Temperatura mínima	18.8
178116	7	Sololá	719	Santiago Atitlán	14	Cerro de Oro	10	Octubre	2023-10-13T00:00:00	2024-11-08T23:00:00	5	Humedad	93
178117	7	Sololá	719	Santiago Atitlán	14	Cerro de Oro	10	Octubre	2023-10-13T00:00:00	2024-11-08T23:00:00	6	Velocidad del viento	1.6
178118	7	Sololá	719	Santiago Atitlán	14	Cerro de Oro	10	Octubre	2023-10-13T00:00:00	2024-11-08T23:00:00	7	Dirección del viento	1.61
178119	7	Sololá	719	Santiago Atitlán	14	Cerro de Oro	10	Octubre	2023-10-13T00:00:00	2024-11-08T23:00:00	1	Precipitación	0
178120	7	Sololá	719	Santiago Atitlán	14	Cerro de Oro	10	Octubre	2023-10-13T00:00:00	2024-11-08T23:00:00	8	Radiación solar	0
178121	7	Sololá	719	Santiago Atitlán	14	Cerro de Oro	10	Octubre	2023-10-14T00:00:00	2024-11-08T00:00:00	2	Temperatura media	18.6
178122	7	Sololá	719	Santiago Atitlán	14	Cerro de Oro	10	Octubre	2023-10-14T00:00:00	2024-11-08T00:00:00	4	Temperatura máxima	19
178123	7	Sololá	719	Santiago Atitlán	14	Cerro de Oro	10	Octubre	2023-10-14T00:00:00	2024-11-08T00:00:00	3	Temperatura mínima	18.6
178124	7	Sololá	719	Santiago Atitlán	14	Cerro de Oro	10	Octubre	2023-10-14T00:00:00	2024-11-08T00:00:00	5	Humedad	90
178125	7	Sololá	719	Santiago Atitlán	14	Cerro de Oro	10	Octubre	2023-10-14T00:00:00	2024-11-08T00:00:00	6	Velocidad del viento	3.2
178126	7	Sololá	719	Santiago Atitlán	14	Cerro de Oro	10	Octubre	2023-10-14T00:00:00	2024-11-08T00:00:00	7	Dirección del viento	3.22
178127	7	Sololá	719	Santiago Atitlán	14	Cerro de Oro	10	Octubre	2023-10-14T00:00:00	2024-11-08T00:00:00	1	Precipitación	0
178128	7	Sololá	719	Santiago Atitlán	14	Cerro de Oro	10	Octubre	2023-10-14T00:00:00	2024-11-08T00:00:00	8	Radiación solar	0
178129	7	Sololá	719	Santiago Atitlán	14	Cerro de Oro	10	Octubre	2023-10-14T00:00:00	2024-11-08T01:00:00	2	Temperatura media	18.7
178130	7	Sololá	719	Santiago Atitlán	14	Cerro de Oro	10	Octubre	2023-10-14T00:00:00	2024-11-08T01:00:00	4	Temperatura máxima	19
178131	7	Sololá	719	Santiago Atitlán	14	Cerro de Oro	10	Octubre	2023-10-14T00:00:00	2024-11-08T01:00:00	3	Temperatura mínima	18.6
178132	7	Sololá	719	Santiago Atitlán	14	Cerro de Oro	10	Octubre	2023-10-14T00:00:00	2024-11-08T01:00:00	5	Humedad	88
178133	7	Sololá	719	Santiago Atitlán	14	Cerro de Oro	10	Octubre	2023-10-14T00:00:00	2024-11-08T01:00:00	6	Velocidad del viento	3.2
178134	7	Sololá	719	Santiago Atitlán	14	Cerro de Oro	10	Octubre	2023-10-14T00:00:00	2024-11-08T01:00:00	7	Dirección del viento	3.22
178135	7	Sololá	719	Santiago Atitlán	14	Cerro de Oro	10	Octubre	2023-10-14T00:00:00	2024-11-08T01:00:00	1	Precipitación	0
178136	7	Sololá	719	Santiago Atitlán	14	Cerro de Oro	10	Octubre	2023-10-14T00:00:00	2024-11-08T01:00:00	8	Radiación solar	0
178137	7	Sololá	719	Santiago Atitlán	14	Cerro de Oro	10	Octubre	2023-10-14T00:00:00	2024-11-08T02:00:00	2	Temperatura media	17.9
178138	7	Sololá	719	Santiago Atitlán	14	Cerro de Oro	10	Octubre	2023-10-14T00:00:00	2024-11-08T02:00:00	4	Temperatura máxima	18.7
178139	7	Sololá	719	Santiago Atitlán	14	Cerro de Oro	10	Octubre	2023-10-14T00:00:00	2024-11-08T02:00:00	3	Temperatura mínima	17.9
178140	7	Sololá	719	Santiago Atitlán	14	Cerro de Oro	10	Octubre	2023-10-14T00:00:00	2024-11-08T02:00:00	5	Humedad	91
178141	7	Sololá	719	Santiago Atitlán	14	Cerro de Oro	10	Octubre	2023-10-14T00:00:00	2024-11-08T02:00:00	6	Velocidad del viento	0
178142	7	Sololá	719	Santiago Atitlán	14	Cerro de Oro	10	Octubre	2023-10-14T00:00:00	2024-11-08T02:00:00	7	Dirección del viento	0
178143	7	Sololá	719	Santiago Atitlán	14	Cerro de Oro	10	Octubre	2023-10-14T00:00:00	2024-11-08T02:00:00	1	Precipitación	0
178144	7	Sololá	719	Santiago Atitlán	14	Cerro de Oro	10	Octubre	2023-10-14T00:00:00	2024-11-08T02:00:00	8	Radiación solar	0
178145	7	Sololá	719	Santiago Atitlán	14	Cerro de Oro	10	Octubre	2023-10-14T00:00:00	2024-11-08T03:00:00	2	Temperatura media	17.3
178146	7	Sololá	719	Santiago Atitlán	14	Cerro de Oro	10	Octubre	2023-10-14T00:00:00	2024-11-08T03:00:00	4	Temperatura máxima	17.9
178147	7	Sololá	719	Santiago Atitlán	14	Cerro de Oro	10	Octubre	2023-10-14T00:00:00	2024-11-08T03:00:00	3	Temperatura mínima	17.3
178148	7	Sololá	719	Santiago Atitlán	14	Cerro de Oro	10	Octubre	2023-10-14T00:00:00	2024-11-08T03:00:00	5	Humedad	93
178149	7	Sololá	719	Santiago Atitlán	14	Cerro de Oro	10	Octubre	2023-10-14T00:00:00	2024-11-08T03:00:00	6	Velocidad del viento	1.6
178150	7	Sololá	719	Santiago Atitlán	14	Cerro de Oro	10	Octubre	2023-10-14T00:00:00	2024-11-08T03:00:00	7	Dirección del viento	1.61
178151	7	Sololá	719	Santiago Atitlán	14	Cerro de Oro	10	Octubre	2023-10-14T00:00:00	2024-11-08T03:00:00	1	Precipitación	0
178152	7	Sololá	719	Santiago Atitlán	14	Cerro de Oro	10	Octubre	2023-10-14T00:00:00	2024-11-08T03:00:00	8	Radiación solar	0
178153	7	Sololá	719	Santiago Atitlán	14	Cerro de Oro	10	Octubre	2023-10-14T00:00:00	2024-11-08T04:00:00	2	Temperatura media	17.2
178154	7	Sololá	719	Santiago Atitlán	14	Cerro de Oro	10	Octubre	2023-10-14T00:00:00	2024-11-08T04:00:00	4	Temperatura máxima	17.8
178155	7	Sololá	719	Santiago Atitlán	14	Cerro de Oro	10	Octubre	2023-10-14T00:00:00	2024-11-08T04:00:00	3	Temperatura mínima	17.2
178156	7	Sololá	719	Santiago Atitlán	14	Cerro de Oro	10	Octubre	2023-10-14T00:00:00	2024-11-08T04:00:00	5	Humedad	92
178157	7	Sololá	719	Santiago Atitlán	14	Cerro de Oro	10	Octubre	2023-10-14T00:00:00	2024-11-08T04:00:00	6	Velocidad del viento	1.6
178158	7	Sololá	719	Santiago Atitlán	14	Cerro de Oro	10	Octubre	2023-10-14T00:00:00	2024-11-08T04:00:00	7	Dirección del viento	1.61
178159	7	Sololá	719	Santiago Atitlán	14	Cerro de Oro	10	Octubre	2023-10-14T00:00:00	2024-11-08T04:00:00	1	Precipitación	0
178160	7	Sololá	719	Santiago Atitlán	14	Cerro de Oro	10	Octubre	2023-10-14T00:00:00	2024-11-08T04:00:00	8	Radiación solar	0
178161	7	Sololá	719	Santiago Atitlán	14	Cerro de Oro	10	Octubre	2023-10-14T00:00:00	2024-11-08T05:00:00	2	Temperatura media	17.3
178162	7	Sololá	719	Santiago Atitlán	14	Cerro de Oro	10	Octubre	2023-10-14T00:00:00	2024-11-08T05:00:00	4	Temperatura máxima	17.9
178163	7	Sololá	719	Santiago Atitlán	14	Cerro de Oro	10	Octubre	2023-10-14T00:00:00	2024-11-08T05:00:00	3	Temperatura mínima	17.1
178164	7	Sololá	719	Santiago Atitlán	14	Cerro de Oro	10	Octubre	2023-10-14T00:00:00	2024-11-08T05:00:00	5	Humedad	91
178165	7	Sololá	719	Santiago Atitlán	14	Cerro de Oro	10	Octubre	2023-10-14T00:00:00	2024-11-08T05:00:00	6	Velocidad del viento	1.6
178166	7	Sololá	719	Santiago Atitlán	14	Cerro de Oro	10	Octubre	2023-10-14T00:00:00	2024-11-08T05:00:00	7	Dirección del viento	1.61
178167	7	Sololá	719	Santiago Atitlán	14	Cerro de Oro	10	Octubre	2023-10-14T00:00:00	2024-11-08T05:00:00	1	Precipitación	0
178168	7	Sololá	719	Santiago Atitlán	14	Cerro de Oro	10	Octubre	2023-10-14T00:00:00	2024-11-08T05:00:00	8	Radiación solar	0
178169	7	Sololá	719	Santiago Atitlán	14	Cerro de Oro	10	Octubre	2023-10-14T00:00:00	2024-11-08T06:00:00	2	Temperatura media	16.8
178170	7	Sololá	719	Santiago Atitlán	14	Cerro de Oro	10	Octubre	2023-10-14T00:00:00	2024-11-08T06:00:00	4	Temperatura máxima	17.3
178171	7	Sololá	719	Santiago Atitlán	14	Cerro de Oro	10	Octubre	2023-10-14T00:00:00	2024-11-08T06:00:00	3	Temperatura mínima	16.8
178172	7	Sololá	719	Santiago Atitlán	14	Cerro de Oro	10	Octubre	2023-10-14T00:00:00	2024-11-08T06:00:00	5	Humedad	91
178173	7	Sololá	719	Santiago Atitlán	14	Cerro de Oro	10	Octubre	2023-10-14T00:00:00	2024-11-08T06:00:00	6	Velocidad del viento	1.6
178174	7	Sololá	719	Santiago Atitlán	14	Cerro de Oro	10	Octubre	2023-10-14T00:00:00	2024-11-08T06:00:00	7	Dirección del viento	1.61
178175	7	Sololá	719	Santiago Atitlán	14	Cerro de Oro	10	Octubre	2023-10-14T00:00:00	2024-11-08T06:00:00	1	Precipitación	0
178176	7	Sololá	719	Santiago Atitlán	14	Cerro de Oro	10	Octubre	2023-10-14T00:00:00	2024-11-08T06:00:00	8	Radiación solar	0
178177	7	Sololá	719	Santiago Atitlán	14	Cerro de Oro	10	Octubre	2023-10-14T00:00:00	2024-11-08T07:00:00	2	Temperatura media	18.8
178178	7	Sololá	719	Santiago Atitlán	14	Cerro de Oro	10	Octubre	2023-10-14T00:00:00	2024-11-08T07:00:00	4	Temperatura máxima	18.8
178179	7	Sololá	719	Santiago Atitlán	14	Cerro de Oro	10	Octubre	2023-10-14T00:00:00	2024-11-08T07:00:00	3	Temperatura mínima	16.8
178180	7	Sololá	719	Santiago Atitlán	14	Cerro de Oro	10	Octubre	2023-10-14T00:00:00	2024-11-08T07:00:00	5	Humedad	84
178181	7	Sololá	719	Santiago Atitlán	14	Cerro de Oro	10	Octubre	2023-10-14T00:00:00	2024-11-08T07:00:00	6	Velocidad del viento	1.6
178182	7	Sololá	719	Santiago Atitlán	14	Cerro de Oro	10	Octubre	2023-10-14T00:00:00	2024-11-08T07:00:00	7	Dirección del viento	1.61
178183	7	Sololá	719	Santiago Atitlán	14	Cerro de Oro	10	Octubre	2023-10-14T00:00:00	2024-11-08T07:00:00	1	Precipitación	0
178184	7	Sololá	719	Santiago Atitlán	14	Cerro de Oro	10	Octubre	2023-10-14T00:00:00	2024-11-08T07:00:00	8	Radiación solar	55
178185	7	Sololá	719	Santiago Atitlán	14	Cerro de Oro	10	Octubre	2023-10-14T00:00:00	2024-11-08T08:00:00	2	Temperatura media	22.3
178186	7	Sololá	719	Santiago Atitlán	14	Cerro de Oro	10	Octubre	2023-10-14T00:00:00	2024-11-08T08:00:00	4	Temperatura máxima	22.3
178187	7	Sololá	719	Santiago Atitlán	14	Cerro de Oro	10	Octubre	2023-10-14T00:00:00	2024-11-08T08:00:00	3	Temperatura mínima	18.8
178188	7	Sololá	719	Santiago Atitlán	14	Cerro de Oro	10	Octubre	2023-10-14T00:00:00	2024-11-08T08:00:00	5	Humedad	75
178189	7	Sololá	719	Santiago Atitlán	14	Cerro de Oro	10	Octubre	2023-10-14T00:00:00	2024-11-08T08:00:00	6	Velocidad del viento	0
178190	7	Sololá	719	Santiago Atitlán	14	Cerro de Oro	10	Octubre	2023-10-14T00:00:00	2024-11-08T08:00:00	7	Dirección del viento	0
178191	7	Sololá	719	Santiago Atitlán	14	Cerro de Oro	10	Octubre	2023-10-14T00:00:00	2024-11-08T08:00:00	1	Precipitación	0
178192	7	Sololá	719	Santiago Atitlán	14	Cerro de Oro	10	Octubre	2023-10-14T00:00:00	2024-11-08T08:00:00	8	Radiación solar	301
178193	7	Sololá	719	Santiago Atitlán	14	Cerro de Oro	10	Octubre	2023-10-14T00:00:00	2024-11-08T09:00:00	2	Temperatura media	22.4
178194	7	Sololá	719	Santiago Atitlán	14	Cerro de Oro	10	Octubre	2023-10-14T00:00:00	2024-11-08T09:00:00	4	Temperatura máxima	22.6
178195	7	Sololá	719	Santiago Atitlán	14	Cerro de Oro	10	Octubre	2023-10-14T00:00:00	2024-11-08T09:00:00	3	Temperatura mínima	22
178196	7	Sololá	719	Santiago Atitlán	14	Cerro de Oro	10	Octubre	2023-10-14T00:00:00	2024-11-08T09:00:00	5	Humedad	80
178197	7	Sololá	719	Santiago Atitlán	14	Cerro de Oro	10	Octubre	2023-10-14T00:00:00	2024-11-08T09:00:00	6	Velocidad del viento	1.6
178198	7	Sololá	719	Santiago Atitlán	14	Cerro de Oro	10	Octubre	2023-10-14T00:00:00	2024-11-08T09:00:00	7	Dirección del viento	1.61
178199	7	Sololá	719	Santiago Atitlán	14	Cerro de Oro	10	Octubre	2023-10-14T00:00:00	2024-11-08T09:00:00	1	Precipitación	0
178200	7	Sololá	719	Santiago Atitlán	14	Cerro de Oro	10	Octubre	2023-10-14T00:00:00	2024-11-08T09:00:00	8	Radiación solar	514
178201	7	Sololá	719	Santiago Atitlán	14	Cerro de Oro	10	Octubre	2023-10-14T00:00:00	2024-11-08T10:00:00	2	Temperatura media	22.7
178202	7	Sololá	719	Santiago Atitlán	14	Cerro de Oro	10	Octubre	2023-10-14T00:00:00	2024-11-08T10:00:00	4	Temperatura máxima	22.9
178203	7	Sololá	719	Santiago Atitlán	14	Cerro de Oro	10	Octubre	2023-10-14T00:00:00	2024-11-08T10:00:00	3	Temperatura mínima	22.3
178204	7	Sololá	719	Santiago Atitlán	14	Cerro de Oro	10	Octubre	2023-10-14T00:00:00	2024-11-08T10:00:00	5	Humedad	77
178205	7	Sololá	719	Santiago Atitlán	14	Cerro de Oro	10	Octubre	2023-10-14T00:00:00	2024-11-08T10:00:00	6	Velocidad del viento	1.6
178206	7	Sololá	719	Santiago Atitlán	14	Cerro de Oro	10	Octubre	2023-10-14T00:00:00	2024-11-08T10:00:00	7	Dirección del viento	1.61
178207	7	Sololá	719	Santiago Atitlán	14	Cerro de Oro	10	Octubre	2023-10-14T00:00:00	2024-11-08T10:00:00	1	Precipitación	0
178208	7	Sololá	719	Santiago Atitlán	14	Cerro de Oro	10	Octubre	2023-10-14T00:00:00	2024-11-08T10:00:00	8	Radiación solar	378
178209	7	Sololá	719	Santiago Atitlán	14	Cerro de Oro	10	Octubre	2023-10-14T00:00:00	2024-11-08T11:00:00	2	Temperatura media	23.4
178210	7	Sololá	719	Santiago Atitlán	14	Cerro de Oro	10	Octubre	2023-10-14T00:00:00	2024-11-08T11:00:00	4	Temperatura máxima	23.7
178211	7	Sololá	719	Santiago Atitlán	14	Cerro de Oro	10	Octubre	2023-10-14T00:00:00	2024-11-08T11:00:00	3	Temperatura mínima	22.7
178212	7	Sololá	719	Santiago Atitlán	14	Cerro de Oro	10	Octubre	2023-10-14T00:00:00	2024-11-08T11:00:00	5	Humedad	82
178213	7	Sololá	719	Santiago Atitlán	14	Cerro de Oro	10	Octubre	2023-10-14T00:00:00	2024-11-08T11:00:00	6	Velocidad del viento	0
178214	7	Sololá	719	Santiago Atitlán	14	Cerro de Oro	10	Octubre	2023-10-14T00:00:00	2024-11-08T11:00:00	7	Dirección del viento	0
178215	7	Sololá	719	Santiago Atitlán	14	Cerro de Oro	10	Octubre	2023-10-14T00:00:00	2024-11-08T11:00:00	1	Precipitación	0
178216	7	Sololá	719	Santiago Atitlán	14	Cerro de Oro	10	Octubre	2023-10-14T00:00:00	2024-11-08T11:00:00	8	Radiación solar	192
178217	7	Sololá	719	Santiago Atitlán	14	Cerro de Oro	10	Octubre	2023-10-14T00:00:00	2024-11-08T12:00:00	2	Temperatura media	21.9
178218	7	Sololá	719	Santiago Atitlán	14	Cerro de Oro	10	Octubre	2023-10-14T00:00:00	2024-11-08T12:00:00	4	Temperatura máxima	23.4
178219	7	Sololá	719	Santiago Atitlán	14	Cerro de Oro	10	Octubre	2023-10-14T00:00:00	2024-11-08T12:00:00	3	Temperatura mínima	21.9
178220	7	Sololá	719	Santiago Atitlán	14	Cerro de Oro	10	Octubre	2023-10-14T00:00:00	2024-11-08T12:00:00	5	Humedad	89
178221	7	Sololá	719	Santiago Atitlán	14	Cerro de Oro	10	Octubre	2023-10-14T00:00:00	2024-11-08T12:00:00	6	Velocidad del viento	3.2
178222	7	Sololá	719	Santiago Atitlán	14	Cerro de Oro	10	Octubre	2023-10-14T00:00:00	2024-11-08T12:00:00	7	Dirección del viento	3.22
178223	7	Sololá	719	Santiago Atitlán	14	Cerro de Oro	10	Octubre	2023-10-14T00:00:00	2024-11-08T12:00:00	1	Precipitación	0
178224	7	Sololá	719	Santiago Atitlán	14	Cerro de Oro	10	Octubre	2023-10-14T00:00:00	2024-11-08T12:00:00	8	Radiación solar	106
178225	7	Sololá	719	Santiago Atitlán	14	Cerro de Oro	10	Octubre	2023-10-14T00:00:00	2024-11-08T13:00:00	2	Temperatura media	23.3
178226	7	Sololá	719	Santiago Atitlán	14	Cerro de Oro	10	Octubre	2023-10-14T00:00:00	2024-11-08T13:00:00	4	Temperatura máxima	23.3
178227	7	Sololá	719	Santiago Atitlán	14	Cerro de Oro	10	Octubre	2023-10-14T00:00:00	2024-11-08T13:00:00	3	Temperatura mínima	21.9
178228	7	Sololá	719	Santiago Atitlán	14	Cerro de Oro	10	Octubre	2023-10-14T00:00:00	2024-11-08T13:00:00	5	Humedad	84
178229	7	Sololá	719	Santiago Atitlán	14	Cerro de Oro	10	Octubre	2023-10-14T00:00:00	2024-11-08T13:00:00	6	Velocidad del viento	1.6
178230	7	Sololá	719	Santiago Atitlán	14	Cerro de Oro	10	Octubre	2023-10-14T00:00:00	2024-11-08T13:00:00	7	Dirección del viento	1.61
178231	7	Sololá	719	Santiago Atitlán	14	Cerro de Oro	10	Octubre	2023-10-14T00:00:00	2024-11-08T13:00:00	1	Precipitación	0
178232	7	Sololá	719	Santiago Atitlán	14	Cerro de Oro	10	Octubre	2023-10-14T00:00:00	2024-11-08T13:00:00	8	Radiación solar	353
178233	7	Sololá	719	Santiago Atitlán	14	Cerro de Oro	10	Octubre	2023-10-14T00:00:00	2024-11-08T14:00:00	2	Temperatura media	23.1
178234	7	Sololá	719	Santiago Atitlán	14	Cerro de Oro	10	Octubre	2023-10-14T00:00:00	2024-11-08T14:00:00	4	Temperatura máxima	24.3
178235	7	Sololá	719	Santiago Atitlán	14	Cerro de Oro	10	Octubre	2023-10-14T00:00:00	2024-11-08T14:00:00	3	Temperatura mínima	23.1
178236	7	Sololá	719	Santiago Atitlán	14	Cerro de Oro	10	Octubre	2023-10-14T00:00:00	2024-11-08T14:00:00	5	Humedad	83
178237	7	Sololá	719	Santiago Atitlán	14	Cerro de Oro	10	Octubre	2023-10-14T00:00:00	2024-11-08T14:00:00	6	Velocidad del viento	1.6
178238	7	Sololá	719	Santiago Atitlán	14	Cerro de Oro	10	Octubre	2023-10-14T00:00:00	2024-11-08T14:00:00	7	Dirección del viento	1.61
178239	7	Sololá	719	Santiago Atitlán	14	Cerro de Oro	10	Octubre	2023-10-14T00:00:00	2024-11-08T14:00:00	1	Precipitación	0
178240	7	Sololá	719	Santiago Atitlán	14	Cerro de Oro	10	Octubre	2023-10-14T00:00:00	2024-11-08T14:00:00	8	Radiación solar	435
178241	7	Sololá	719	Santiago Atitlán	14	Cerro de Oro	10	Octubre	2023-10-14T00:00:00	2024-11-08T15:00:00	2	Temperatura media	21.9
178242	7	Sololá	719	Santiago Atitlán	14	Cerro de Oro	10	Octubre	2023-10-14T00:00:00	2024-11-08T15:00:00	4	Temperatura máxima	23.5
178243	7	Sololá	719	Santiago Atitlán	14	Cerro de Oro	10	Octubre	2023-10-14T00:00:00	2024-11-08T15:00:00	3	Temperatura mínima	21.9
178244	7	Sololá	719	Santiago Atitlán	14	Cerro de Oro	10	Octubre	2023-10-14T00:00:00	2024-11-08T15:00:00	5	Humedad	89
178245	7	Sololá	719	Santiago Atitlán	14	Cerro de Oro	10	Octubre	2023-10-14T00:00:00	2024-11-08T15:00:00	6	Velocidad del viento	3.2
178246	7	Sololá	719	Santiago Atitlán	14	Cerro de Oro	10	Octubre	2023-10-14T00:00:00	2024-11-08T15:00:00	7	Dirección del viento	3.22
178247	7	Sololá	719	Santiago Atitlán	14	Cerro de Oro	10	Octubre	2023-10-14T00:00:00	2024-11-08T15:00:00	1	Precipitación	0
178248	7	Sololá	719	Santiago Atitlán	14	Cerro de Oro	10	Octubre	2023-10-14T00:00:00	2024-11-08T15:00:00	8	Radiación solar	189
178249	7	Sololá	719	Santiago Atitlán	14	Cerro de Oro	10	Octubre	2023-10-14T00:00:00	2024-11-08T16:00:00	2	Temperatura media	22.1
178250	7	Sololá	719	Santiago Atitlán	14	Cerro de Oro	10	Octubre	2023-10-14T00:00:00	2024-11-08T16:00:00	4	Temperatura máxima	22.1
178251	7	Sololá	719	Santiago Atitlán	14	Cerro de Oro	10	Octubre	2023-10-14T00:00:00	2024-11-08T16:00:00	3	Temperatura mínima	21.5
178252	7	Sololá	719	Santiago Atitlán	14	Cerro de Oro	10	Octubre	2023-10-14T00:00:00	2024-11-08T16:00:00	5	Humedad	88
178253	7	Sololá	719	Santiago Atitlán	14	Cerro de Oro	10	Octubre	2023-10-14T00:00:00	2024-11-08T16:00:00	6	Velocidad del viento	3.2
178254	7	Sololá	719	Santiago Atitlán	14	Cerro de Oro	10	Octubre	2023-10-14T00:00:00	2024-11-08T16:00:00	7	Dirección del viento	3.22
178255	7	Sololá	719	Santiago Atitlán	14	Cerro de Oro	10	Octubre	2023-10-14T00:00:00	2024-11-08T16:00:00	1	Precipitación	0
178256	7	Sololá	719	Santiago Atitlán	14	Cerro de Oro	10	Octubre	2023-10-14T00:00:00	2024-11-08T16:00:00	8	Radiación solar	177
178257	7	Sololá	719	Santiago Atitlán	14	Cerro de Oro	10	Octubre	2023-10-14T00:00:00	2024-11-08T17:00:00	2	Temperatura media	21.7
178258	7	Sololá	719	Santiago Atitlán	14	Cerro de Oro	10	Octubre	2023-10-14T00:00:00	2024-11-08T17:00:00	4	Temperatura máxima	22.2
178259	7	Sololá	719	Santiago Atitlán	14	Cerro de Oro	10	Octubre	2023-10-14T00:00:00	2024-11-08T17:00:00	3	Temperatura mínima	21.7
178260	7	Sololá	719	Santiago Atitlán	14	Cerro de Oro	10	Octubre	2023-10-14T00:00:00	2024-11-08T17:00:00	5	Humedad	90
178261	7	Sololá	719	Santiago Atitlán	14	Cerro de Oro	10	Octubre	2023-10-14T00:00:00	2024-11-08T17:00:00	6	Velocidad del viento	0
178262	7	Sololá	719	Santiago Atitlán	14	Cerro de Oro	10	Octubre	2023-10-14T00:00:00	2024-11-08T17:00:00	7	Dirección del viento	0
178263	7	Sololá	719	Santiago Atitlán	14	Cerro de Oro	10	Octubre	2023-10-14T00:00:00	2024-11-08T17:00:00	1	Precipitación	0
178264	7	Sololá	719	Santiago Atitlán	14	Cerro de Oro	10	Octubre	2023-10-14T00:00:00	2024-11-08T17:00:00	8	Radiación solar	85
178265	7	Sololá	719	Santiago Atitlán	14	Cerro de Oro	10	Octubre	2023-10-14T00:00:00	2024-11-08T18:00:00	2	Temperatura media	20.7
178266	7	Sololá	719	Santiago Atitlán	14	Cerro de Oro	10	Octubre	2023-10-14T00:00:00	2024-11-08T18:00:00	4	Temperatura máxima	21.7
178267	7	Sololá	719	Santiago Atitlán	14	Cerro de Oro	10	Octubre	2023-10-14T00:00:00	2024-11-08T18:00:00	3	Temperatura mínima	20.7
178268	7	Sololá	719	Santiago Atitlán	14	Cerro de Oro	10	Octubre	2023-10-14T00:00:00	2024-11-08T18:00:00	5	Humedad	93
178269	7	Sololá	719	Santiago Atitlán	14	Cerro de Oro	10	Octubre	2023-10-14T00:00:00	2024-11-08T18:00:00	6	Velocidad del viento	0
178270	7	Sololá	719	Santiago Atitlán	14	Cerro de Oro	10	Octubre	2023-10-14T00:00:00	2024-11-08T18:00:00	7	Dirección del viento	0
178271	7	Sololá	719	Santiago Atitlán	14	Cerro de Oro	10	Octubre	2023-10-14T00:00:00	2024-11-08T18:00:00	1	Precipitación	0
178272	7	Sololá	719	Santiago Atitlán	14	Cerro de Oro	10	Octubre	2023-10-14T00:00:00	2024-11-08T18:00:00	8	Radiación solar	14
178273	7	Sololá	719	Santiago Atitlán	14	Cerro de Oro	10	Octubre	2023-10-14T00:00:00	2024-11-08T19:00:00	2	Temperatura media	20.2
178274	7	Sololá	719	Santiago Atitlán	14	Cerro de Oro	10	Octubre	2023-10-14T00:00:00	2024-11-08T19:00:00	4	Temperatura máxima	20.7
178275	7	Sololá	719	Santiago Atitlán	14	Cerro de Oro	10	Octubre	2023-10-14T00:00:00	2024-11-08T19:00:00	3	Temperatura mínima	19.8
178276	7	Sololá	719	Santiago Atitlán	14	Cerro de Oro	10	Octubre	2023-10-14T00:00:00	2024-11-08T19:00:00	5	Humedad	82
178277	7	Sololá	719	Santiago Atitlán	14	Cerro de Oro	10	Octubre	2023-10-14T00:00:00	2024-11-08T19:00:00	6	Velocidad del viento	1.6
178278	7	Sololá	719	Santiago Atitlán	14	Cerro de Oro	10	Octubre	2023-10-14T00:00:00	2024-11-08T19:00:00	7	Dirección del viento	1.61
178279	7	Sololá	719	Santiago Atitlán	14	Cerro de Oro	10	Octubre	2023-10-14T00:00:00	2024-11-08T19:00:00	1	Precipitación	0
178280	7	Sololá	719	Santiago Atitlán	14	Cerro de Oro	10	Octubre	2023-10-14T00:00:00	2024-11-08T19:00:00	8	Radiación solar	0
178281	7	Sololá	719	Santiago Atitlán	14	Cerro de Oro	10	Octubre	2023-10-14T00:00:00	2024-11-08T20:00:00	2	Temperatura media	20.1
178282	7	Sololá	719	Santiago Atitlán	14	Cerro de Oro	10	Octubre	2023-10-14T00:00:00	2024-11-08T20:00:00	4	Temperatura máxima	21.6
178283	7	Sololá	719	Santiago Atitlán	14	Cerro de Oro	10	Octubre	2023-10-14T00:00:00	2024-11-08T20:00:00	3	Temperatura mínima	20.1
178284	7	Sololá	719	Santiago Atitlán	14	Cerro de Oro	10	Octubre	2023-10-14T00:00:00	2024-11-08T20:00:00	5	Humedad	84
178285	7	Sololá	719	Santiago Atitlán	14	Cerro de Oro	10	Octubre	2023-10-14T00:00:00	2024-11-08T20:00:00	6	Velocidad del viento	0
178286	7	Sololá	719	Santiago Atitlán	14	Cerro de Oro	10	Octubre	2023-10-14T00:00:00	2024-11-08T20:00:00	7	Dirección del viento	0
178287	7	Sololá	719	Santiago Atitlán	14	Cerro de Oro	10	Octubre	2023-10-14T00:00:00	2024-11-08T20:00:00	1	Precipitación	0
178288	7	Sololá	719	Santiago Atitlán	14	Cerro de Oro	10	Octubre	2023-10-14T00:00:00	2024-11-08T20:00:00	8	Radiación solar	0
178289	7	Sololá	719	Santiago Atitlán	14	Cerro de Oro	10	Octubre	2023-10-14T00:00:00	2024-11-08T21:00:00	2	Temperatura media	19.5
178290	7	Sololá	719	Santiago Atitlán	14	Cerro de Oro	10	Octubre	2023-10-14T00:00:00	2024-11-08T21:00:00	4	Temperatura máxima	20.1
178291	7	Sololá	719	Santiago Atitlán	14	Cerro de Oro	10	Octubre	2023-10-14T00:00:00	2024-11-08T21:00:00	3	Temperatura mínima	19.4
178292	7	Sololá	719	Santiago Atitlán	14	Cerro de Oro	10	Octubre	2023-10-14T00:00:00	2024-11-08T21:00:00	5	Humedad	86
178293	7	Sololá	719	Santiago Atitlán	14	Cerro de Oro	10	Octubre	2023-10-14T00:00:00	2024-11-08T21:00:00	6	Velocidad del viento	1.6
178294	7	Sololá	719	Santiago Atitlán	14	Cerro de Oro	10	Octubre	2023-10-14T00:00:00	2024-11-08T21:00:00	7	Dirección del viento	1.61
178295	7	Sololá	719	Santiago Atitlán	14	Cerro de Oro	10	Octubre	2023-10-14T00:00:00	2024-11-08T21:00:00	1	Precipitación	0
178296	7	Sololá	719	Santiago Atitlán	14	Cerro de Oro	10	Octubre	2023-10-14T00:00:00	2024-11-08T21:00:00	8	Radiación solar	0
178297	7	Sololá	719	Santiago Atitlán	14	Cerro de Oro	10	Octubre	2023-10-14T00:00:00	2024-11-08T22:00:00	2	Temperatura media	19.1
178298	7	Sololá	719	Santiago Atitlán	14	Cerro de Oro	10	Octubre	2023-10-14T00:00:00	2024-11-08T22:00:00	4	Temperatura máxima	19.6
178299	7	Sololá	719	Santiago Atitlán	14	Cerro de Oro	10	Octubre	2023-10-14T00:00:00	2024-11-08T22:00:00	3	Temperatura mínima	18.9
178300	7	Sololá	719	Santiago Atitlán	14	Cerro de Oro	10	Octubre	2023-10-14T00:00:00	2024-11-08T22:00:00	5	Humedad	88
178301	7	Sololá	719	Santiago Atitlán	14	Cerro de Oro	10	Octubre	2023-10-14T00:00:00	2024-11-08T22:00:00	6	Velocidad del viento	1.6
178302	7	Sololá	719	Santiago Atitlán	14	Cerro de Oro	10	Octubre	2023-10-14T00:00:00	2024-11-08T22:00:00	7	Dirección del viento	1.61
178303	7	Sololá	719	Santiago Atitlán	14	Cerro de Oro	10	Octubre	2023-10-14T00:00:00	2024-11-08T22:00:00	1	Precipitación	0
178304	7	Sololá	719	Santiago Atitlán	14	Cerro de Oro	10	Octubre	2023-10-14T00:00:00	2024-11-08T22:00:00	8	Radiación solar	0
178305	7	Sololá	719	Santiago Atitlán	14	Cerro de Oro	10	Octubre	2023-10-14T00:00:00	2024-11-08T23:00:00	2	Temperatura media	18.8
178306	7	Sololá	719	Santiago Atitlán	14	Cerro de Oro	10	Octubre	2023-10-14T00:00:00	2024-11-08T23:00:00	4	Temperatura máxima	19.1
178307	7	Sololá	719	Santiago Atitlán	14	Cerro de Oro	10	Octubre	2023-10-14T00:00:00	2024-11-08T23:00:00	3	Temperatura mínima	18.7
178308	7	Sololá	719	Santiago Atitlán	14	Cerro de Oro	10	Octubre	2023-10-14T00:00:00	2024-11-08T23:00:00	5	Humedad	89
178309	7	Sololá	719	Santiago Atitlán	14	Cerro de Oro	10	Octubre	2023-10-14T00:00:00	2024-11-08T23:00:00	6	Velocidad del viento	3.2
178310	7	Sololá	719	Santiago Atitlán	14	Cerro de Oro	10	Octubre	2023-10-14T00:00:00	2024-11-08T23:00:00	7	Dirección del viento	3.22
178311	7	Sololá	719	Santiago Atitlán	14	Cerro de Oro	10	Octubre	2023-10-14T00:00:00	2024-11-08T23:00:00	1	Precipitación	0
178312	7	Sololá	719	Santiago Atitlán	14	Cerro de Oro	10	Octubre	2023-10-14T00:00:00	2024-11-08T23:00:00	8	Radiación solar	0
178313	7	Sololá	719	Santiago Atitlán	14	Cerro de Oro	10	Octubre	2023-10-15T00:00:00	2024-11-08T00:00:00	2	Temperatura media	18.7
178314	7	Sololá	719	Santiago Atitlán	14	Cerro de Oro	10	Octubre	2023-10-15T00:00:00	2024-11-08T00:00:00	4	Temperatura máxima	18.8
178315	7	Sololá	719	Santiago Atitlán	14	Cerro de Oro	10	Octubre	2023-10-15T00:00:00	2024-11-08T00:00:00	3	Temperatura mínima	18.6
178316	7	Sololá	719	Santiago Atitlán	14	Cerro de Oro	10	Octubre	2023-10-15T00:00:00	2024-11-08T00:00:00	5	Humedad	88
178317	7	Sololá	719	Santiago Atitlán	14	Cerro de Oro	10	Octubre	2023-10-15T00:00:00	2024-11-08T00:00:00	6	Velocidad del viento	3.2
178318	7	Sololá	719	Santiago Atitlán	14	Cerro de Oro	10	Octubre	2023-10-15T00:00:00	2024-11-08T00:00:00	7	Dirección del viento	3.22
178319	7	Sololá	719	Santiago Atitlán	14	Cerro de Oro	10	Octubre	2023-10-15T00:00:00	2024-11-08T00:00:00	1	Precipitación	0
178320	7	Sololá	719	Santiago Atitlán	14	Cerro de Oro	10	Octubre	2023-10-15T00:00:00	2024-11-08T00:00:00	8	Radiación solar	0
178321	7	Sololá	719	Santiago Atitlán	14	Cerro de Oro	10	Octubre	2023-10-15T00:00:00	2024-11-08T01:00:00	2	Temperatura media	18.2
178322	7	Sololá	719	Santiago Atitlán	14	Cerro de Oro	10	Octubre	2023-10-15T00:00:00	2024-11-08T01:00:00	4	Temperatura máxima	18.7
178323	7	Sololá	719	Santiago Atitlán	14	Cerro de Oro	10	Octubre	2023-10-15T00:00:00	2024-11-08T01:00:00	3	Temperatura mínima	18.1
178324	7	Sololá	719	Santiago Atitlán	14	Cerro de Oro	10	Octubre	2023-10-15T00:00:00	2024-11-08T01:00:00	5	Humedad	89
178325	7	Sololá	719	Santiago Atitlán	14	Cerro de Oro	10	Octubre	2023-10-15T00:00:00	2024-11-08T01:00:00	6	Velocidad del viento	1.6
178326	7	Sololá	719	Santiago Atitlán	14	Cerro de Oro	10	Octubre	2023-10-15T00:00:00	2024-11-08T01:00:00	7	Dirección del viento	1.61
178327	7	Sololá	719	Santiago Atitlán	14	Cerro de Oro	10	Octubre	2023-10-15T00:00:00	2024-11-08T01:00:00	1	Precipitación	0
178328	7	Sololá	719	Santiago Atitlán	14	Cerro de Oro	10	Octubre	2023-10-15T00:00:00	2024-11-08T01:00:00	8	Radiación solar	0
178329	7	Sololá	719	Santiago Atitlán	14	Cerro de Oro	10	Octubre	2023-10-15T00:00:00	2024-11-08T02:00:00	2	Temperatura media	18.4
178330	7	Sololá	719	Santiago Atitlán	14	Cerro de Oro	10	Octubre	2023-10-15T00:00:00	2024-11-08T02:00:00	4	Temperatura máxima	18.6
178331	7	Sololá	719	Santiago Atitlán	14	Cerro de Oro	10	Octubre	2023-10-15T00:00:00	2024-11-08T02:00:00	3	Temperatura mínima	18.2
178332	7	Sololá	719	Santiago Atitlán	14	Cerro de Oro	10	Octubre	2023-10-15T00:00:00	2024-11-08T02:00:00	5	Humedad	88
178333	7	Sololá	719	Santiago Atitlán	14	Cerro de Oro	10	Octubre	2023-10-15T00:00:00	2024-11-08T02:00:00	6	Velocidad del viento	1.6
178334	7	Sololá	719	Santiago Atitlán	14	Cerro de Oro	10	Octubre	2023-10-15T00:00:00	2024-11-08T02:00:00	7	Dirección del viento	1.61
178335	7	Sololá	719	Santiago Atitlán	14	Cerro de Oro	10	Octubre	2023-10-15T00:00:00	2024-11-08T02:00:00	1	Precipitación	0
178336	7	Sololá	719	Santiago Atitlán	14	Cerro de Oro	10	Octubre	2023-10-15T00:00:00	2024-11-08T02:00:00	8	Radiación solar	0
178337	7	Sololá	719	Santiago Atitlán	14	Cerro de Oro	10	Octubre	2023-10-15T00:00:00	2024-11-08T03:00:00	2	Temperatura media	19.2
178338	7	Sololá	719	Santiago Atitlán	14	Cerro de Oro	10	Octubre	2023-10-15T00:00:00	2024-11-08T03:00:00	4	Temperatura máxima	19.2
178339	7	Sololá	719	Santiago Atitlán	14	Cerro de Oro	10	Octubre	2023-10-15T00:00:00	2024-11-08T03:00:00	3	Temperatura mínima	18.3
178340	7	Sololá	719	Santiago Atitlán	14	Cerro de Oro	10	Octubre	2023-10-15T00:00:00	2024-11-08T03:00:00	5	Humedad	82
178341	7	Sololá	719	Santiago Atitlán	14	Cerro de Oro	10	Octubre	2023-10-15T00:00:00	2024-11-08T03:00:00	6	Velocidad del viento	1.6
178342	7	Sololá	719	Santiago Atitlán	14	Cerro de Oro	10	Octubre	2023-10-15T00:00:00	2024-11-08T03:00:00	7	Dirección del viento	1.61
178343	7	Sololá	719	Santiago Atitlán	14	Cerro de Oro	10	Octubre	2023-10-15T00:00:00	2024-11-08T03:00:00	1	Precipitación	0
178344	7	Sololá	719	Santiago Atitlán	14	Cerro de Oro	10	Octubre	2023-10-15T00:00:00	2024-11-08T03:00:00	8	Radiación solar	0
178345	7	Sololá	719	Santiago Atitlán	14	Cerro de Oro	10	Octubre	2023-10-15T00:00:00	2024-11-08T04:00:00	2	Temperatura media	18.6
178346	7	Sololá	719	Santiago Atitlán	14	Cerro de Oro	10	Octubre	2023-10-15T00:00:00	2024-11-08T04:00:00	4	Temperatura máxima	19.9
178347	7	Sololá	719	Santiago Atitlán	14	Cerro de Oro	10	Octubre	2023-10-15T00:00:00	2024-11-08T04:00:00	3	Temperatura mínima	18.6
178348	7	Sololá	719	Santiago Atitlán	14	Cerro de Oro	10	Octubre	2023-10-15T00:00:00	2024-11-08T04:00:00	5	Humedad	84
178349	7	Sololá	719	Santiago Atitlán	14	Cerro de Oro	10	Octubre	2023-10-15T00:00:00	2024-11-08T04:00:00	6	Velocidad del viento	1.6
178350	7	Sololá	719	Santiago Atitlán	14	Cerro de Oro	10	Octubre	2023-10-15T00:00:00	2024-11-08T04:00:00	7	Dirección del viento	1.61
178351	7	Sololá	719	Santiago Atitlán	14	Cerro de Oro	10	Octubre	2023-10-15T00:00:00	2024-11-08T04:00:00	1	Precipitación	0
178352	7	Sololá	719	Santiago Atitlán	14	Cerro de Oro	10	Octubre	2023-10-15T00:00:00	2024-11-08T04:00:00	8	Radiación solar	0
178353	7	Sololá	719	Santiago Atitlán	14	Cerro de Oro	10	Octubre	2023-10-15T00:00:00	2024-11-08T05:00:00	2	Temperatura media	17.3
178354	7	Sololá	719	Santiago Atitlán	14	Cerro de Oro	10	Octubre	2023-10-15T00:00:00	2024-11-08T05:00:00	4	Temperatura máxima	18.6
178355	7	Sololá	719	Santiago Atitlán	14	Cerro de Oro	10	Octubre	2023-10-15T00:00:00	2024-11-08T05:00:00	3	Temperatura mínima	17.3
178356	7	Sololá	719	Santiago Atitlán	14	Cerro de Oro	10	Octubre	2023-10-15T00:00:00	2024-11-08T05:00:00	5	Humedad	89
178357	7	Sololá	719	Santiago Atitlán	14	Cerro de Oro	10	Octubre	2023-10-15T00:00:00	2024-11-08T05:00:00	6	Velocidad del viento	1.6
178358	7	Sololá	719	Santiago Atitlán	14	Cerro de Oro	10	Octubre	2023-10-15T00:00:00	2024-11-08T05:00:00	7	Dirección del viento	1.61
178359	7	Sololá	719	Santiago Atitlán	14	Cerro de Oro	10	Octubre	2023-10-15T00:00:00	2024-11-08T05:00:00	1	Precipitación	0
178360	7	Sololá	719	Santiago Atitlán	14	Cerro de Oro	10	Octubre	2023-10-15T00:00:00	2024-11-08T05:00:00	8	Radiación solar	0
178361	7	Sololá	719	Santiago Atitlán	14	Cerro de Oro	10	Octubre	2023-10-15T00:00:00	2024-11-08T06:00:00	2	Temperatura media	17.3
178362	7	Sololá	719	Santiago Atitlán	14	Cerro de Oro	10	Octubre	2023-10-15T00:00:00	2024-11-08T06:00:00	4	Temperatura máxima	17.3
178363	7	Sololá	719	Santiago Atitlán	14	Cerro de Oro	10	Octubre	2023-10-15T00:00:00	2024-11-08T06:00:00	3	Temperatura mínima	16.9
178364	7	Sololá	719	Santiago Atitlán	14	Cerro de Oro	10	Octubre	2023-10-15T00:00:00	2024-11-08T06:00:00	5	Humedad	88
178365	7	Sololá	719	Santiago Atitlán	14	Cerro de Oro	10	Octubre	2023-10-15T00:00:00	2024-11-08T06:00:00	6	Velocidad del viento	1.6
178366	7	Sololá	719	Santiago Atitlán	14	Cerro de Oro	10	Octubre	2023-10-15T00:00:00	2024-11-08T06:00:00	7	Dirección del viento	1.61
178367	7	Sololá	719	Santiago Atitlán	14	Cerro de Oro	10	Octubre	2023-10-15T00:00:00	2024-11-08T06:00:00	1	Precipitación	0
178368	7	Sololá	719	Santiago Atitlán	14	Cerro de Oro	10	Octubre	2023-10-15T00:00:00	2024-11-08T06:00:00	8	Radiación solar	0
178369	7	Sololá	719	Santiago Atitlán	14	Cerro de Oro	10	Octubre	2023-10-15T00:00:00	2024-11-08T07:00:00	2	Temperatura media	19.6
178370	7	Sololá	719	Santiago Atitlán	14	Cerro de Oro	10	Octubre	2023-10-15T00:00:00	2024-11-08T07:00:00	4	Temperatura máxima	19.6
178371	7	Sololá	719	Santiago Atitlán	14	Cerro de Oro	10	Octubre	2023-10-15T00:00:00	2024-11-08T07:00:00	3	Temperatura mínima	17
178372	7	Sololá	719	Santiago Atitlán	14	Cerro de Oro	10	Octubre	2023-10-15T00:00:00	2024-11-08T07:00:00	5	Humedad	82
178373	7	Sololá	719	Santiago Atitlán	14	Cerro de Oro	10	Octubre	2023-10-15T00:00:00	2024-11-08T07:00:00	6	Velocidad del viento	1.6
178374	7	Sololá	719	Santiago Atitlán	14	Cerro de Oro	10	Octubre	2023-10-15T00:00:00	2024-11-08T07:00:00	7	Dirección del viento	1.61
178375	7	Sololá	719	Santiago Atitlán	14	Cerro de Oro	10	Octubre	2023-10-15T00:00:00	2024-11-08T07:00:00	1	Precipitación	0
178376	7	Sololá	719	Santiago Atitlán	14	Cerro de Oro	10	Octubre	2023-10-15T00:00:00	2024-11-08T07:00:00	8	Radiación solar	58
178377	7	Sololá	719	Santiago Atitlán	14	Cerro de Oro	10	Octubre	2023-10-15T00:00:00	2024-11-08T08:00:00	2	Temperatura media	22.3
178378	7	Sololá	719	Santiago Atitlán	14	Cerro de Oro	10	Octubre	2023-10-15T00:00:00	2024-11-08T08:00:00	4	Temperatura máxima	22.9
178379	7	Sololá	719	Santiago Atitlán	14	Cerro de Oro	10	Octubre	2023-10-15T00:00:00	2024-11-08T08:00:00	3	Temperatura mínima	19.6
178380	7	Sololá	719	Santiago Atitlán	14	Cerro de Oro	10	Octubre	2023-10-15T00:00:00	2024-11-08T08:00:00	5	Humedad	75
178381	7	Sololá	719	Santiago Atitlán	14	Cerro de Oro	10	Octubre	2023-10-15T00:00:00	2024-11-08T08:00:00	6	Velocidad del viento	0
178382	7	Sololá	719	Santiago Atitlán	14	Cerro de Oro	10	Octubre	2023-10-15T00:00:00	2024-11-08T08:00:00	7	Dirección del viento	0
178383	7	Sololá	719	Santiago Atitlán	14	Cerro de Oro	10	Octubre	2023-10-15T00:00:00	2024-11-08T08:00:00	1	Precipitación	0
178384	7	Sololá	719	Santiago Atitlán	14	Cerro de Oro	10	Octubre	2023-10-15T00:00:00	2024-11-08T08:00:00	8	Radiación solar	304
178385	7	Sololá	719	Santiago Atitlán	14	Cerro de Oro	10	Octubre	2023-10-15T00:00:00	2024-11-08T09:00:00	2	Temperatura media	22.3
178386	7	Sololá	719	Santiago Atitlán	14	Cerro de Oro	10	Octubre	2023-10-15T00:00:00	2024-11-08T09:00:00	4	Temperatura máxima	22.7
178387	7	Sololá	719	Santiago Atitlán	14	Cerro de Oro	10	Octubre	2023-10-15T00:00:00	2024-11-08T09:00:00	3	Temperatura mínima	21.9
178388	7	Sololá	719	Santiago Atitlán	14	Cerro de Oro	10	Octubre	2023-10-15T00:00:00	2024-11-08T09:00:00	5	Humedad	79
178389	7	Sololá	719	Santiago Atitlán	14	Cerro de Oro	10	Octubre	2023-10-15T00:00:00	2024-11-08T09:00:00	6	Velocidad del viento	1.6
178390	7	Sololá	719	Santiago Atitlán	14	Cerro de Oro	10	Octubre	2023-10-15T00:00:00	2024-11-08T09:00:00	7	Dirección del viento	1.61
178391	7	Sololá	719	Santiago Atitlán	14	Cerro de Oro	10	Octubre	2023-10-15T00:00:00	2024-11-08T09:00:00	1	Precipitación	0
178392	7	Sololá	719	Santiago Atitlán	14	Cerro de Oro	10	Octubre	2023-10-15T00:00:00	2024-11-08T09:00:00	8	Radiación solar	518
178393	7	Sololá	719	Santiago Atitlán	14	Cerro de Oro	10	Octubre	2023-10-15T00:00:00	2024-11-08T10:00:00	2	Temperatura media	22.8
178394	7	Sololá	719	Santiago Atitlán	14	Cerro de Oro	10	Octubre	2023-10-15T00:00:00	2024-11-08T10:00:00	4	Temperatura máxima	23.1
178395	7	Sololá	719	Santiago Atitlán	14	Cerro de Oro	10	Octubre	2023-10-15T00:00:00	2024-11-08T10:00:00	3	Temperatura mínima	22.4
178396	7	Sololá	719	Santiago Atitlán	14	Cerro de Oro	10	Octubre	2023-10-15T00:00:00	2024-11-08T10:00:00	5	Humedad	80
178397	7	Sololá	719	Santiago Atitlán	14	Cerro de Oro	10	Octubre	2023-10-15T00:00:00	2024-11-08T10:00:00	6	Velocidad del viento	3.2
178398	7	Sololá	719	Santiago Atitlán	14	Cerro de Oro	10	Octubre	2023-10-15T00:00:00	2024-11-08T10:00:00	7	Dirección del viento	3.22
178399	7	Sololá	719	Santiago Atitlán	14	Cerro de Oro	10	Octubre	2023-10-15T00:00:00	2024-11-08T10:00:00	1	Precipitación	0
178400	7	Sololá	719	Santiago Atitlán	14	Cerro de Oro	10	Octubre	2023-10-15T00:00:00	2024-11-08T10:00:00	8	Radiación solar	726
178401	7	Sololá	719	Santiago Atitlán	14	Cerro de Oro	10	Octubre	2023-10-15T00:00:00	2024-11-08T11:00:00	2	Temperatura media	22.8
178402	7	Sololá	719	Santiago Atitlán	14	Cerro de Oro	10	Octubre	2023-10-15T00:00:00	2024-11-08T11:00:00	4	Temperatura máxima	23.8
178403	7	Sololá	719	Santiago Atitlán	14	Cerro de Oro	10	Octubre	2023-10-15T00:00:00	2024-11-08T11:00:00	3	Temperatura mínima	22.6
178404	7	Sololá	719	Santiago Atitlán	14	Cerro de Oro	10	Octubre	2023-10-15T00:00:00	2024-11-08T11:00:00	5	Humedad	84
178405	7	Sololá	719	Santiago Atitlán	14	Cerro de Oro	10	Octubre	2023-10-15T00:00:00	2024-11-08T11:00:00	6	Velocidad del viento	3.2
178406	7	Sololá	719	Santiago Atitlán	14	Cerro de Oro	10	Octubre	2023-10-15T00:00:00	2024-11-08T11:00:00	7	Dirección del viento	3.22
178407	7	Sololá	719	Santiago Atitlán	14	Cerro de Oro	10	Octubre	2023-10-15T00:00:00	2024-11-08T11:00:00	1	Precipitación	0
178408	7	Sololá	719	Santiago Atitlán	14	Cerro de Oro	10	Octubre	2023-10-15T00:00:00	2024-11-08T11:00:00	8	Radiación solar	648
178409	7	Sololá	719	Santiago Atitlán	14	Cerro de Oro	10	Octubre	2023-10-15T00:00:00	2024-11-08T12:00:00	2	Temperatura media	23.2
178410	7	Sololá	719	Santiago Atitlán	14	Cerro de Oro	10	Octubre	2023-10-15T00:00:00	2024-11-08T12:00:00	4	Temperatura máxima	23.6
178411	7	Sololá	719	Santiago Atitlán	14	Cerro de Oro	10	Octubre	2023-10-15T00:00:00	2024-11-08T12:00:00	3	Temperatura mínima	22.8
178412	7	Sololá	719	Santiago Atitlán	14	Cerro de Oro	10	Octubre	2023-10-15T00:00:00	2024-11-08T12:00:00	5	Humedad	81
178413	7	Sololá	719	Santiago Atitlán	14	Cerro de Oro	10	Octubre	2023-10-15T00:00:00	2024-11-08T12:00:00	6	Velocidad del viento	3.2
178414	7	Sololá	719	Santiago Atitlán	14	Cerro de Oro	10	Octubre	2023-10-15T00:00:00	2024-11-08T12:00:00	7	Dirección del viento	3.22
178415	7	Sololá	719	Santiago Atitlán	14	Cerro de Oro	10	Octubre	2023-10-15T00:00:00	2024-11-08T12:00:00	1	Precipitación	0
178416	7	Sololá	719	Santiago Atitlán	14	Cerro de Oro	10	Octubre	2023-10-15T00:00:00	2024-11-08T12:00:00	8	Radiación solar	480
178417	7	Sololá	719	Santiago Atitlán	14	Cerro de Oro	10	Octubre	2023-10-15T00:00:00	2024-11-08T13:00:00	2	Temperatura media	22.4
178418	7	Sololá	719	Santiago Atitlán	14	Cerro de Oro	10	Octubre	2023-10-15T00:00:00	2024-11-08T13:00:00	4	Temperatura máxima	23.2
178419	7	Sololá	719	Santiago Atitlán	14	Cerro de Oro	10	Octubre	2023-10-15T00:00:00	2024-11-08T13:00:00	3	Temperatura mínima	22
178420	7	Sololá	719	Santiago Atitlán	14	Cerro de Oro	10	Octubre	2023-10-15T00:00:00	2024-11-08T13:00:00	5	Humedad	84
178421	7	Sololá	719	Santiago Atitlán	14	Cerro de Oro	10	Octubre	2023-10-15T00:00:00	2024-11-08T13:00:00	6	Velocidad del viento	1.6
178422	7	Sololá	719	Santiago Atitlán	14	Cerro de Oro	10	Octubre	2023-10-15T00:00:00	2024-11-08T13:00:00	7	Dirección del viento	1.61
178423	7	Sololá	719	Santiago Atitlán	14	Cerro de Oro	10	Octubre	2023-10-15T00:00:00	2024-11-08T13:00:00	1	Precipitación	0
178424	7	Sololá	719	Santiago Atitlán	14	Cerro de Oro	10	Octubre	2023-10-15T00:00:00	2024-11-08T13:00:00	8	Radiación solar	215
178425	7	Sololá	719	Santiago Atitlán	14	Cerro de Oro	10	Octubre	2023-10-15T00:00:00	2024-11-08T14:00:00	2	Temperatura media	22.7
178426	7	Sololá	719	Santiago Atitlán	14	Cerro de Oro	10	Octubre	2023-10-15T00:00:00	2024-11-08T14:00:00	4	Temperatura máxima	22.8
178427	7	Sololá	719	Santiago Atitlán	14	Cerro de Oro	10	Octubre	2023-10-15T00:00:00	2024-11-08T14:00:00	3	Temperatura mínima	22.1
178428	7	Sololá	719	Santiago Atitlán	14	Cerro de Oro	10	Octubre	2023-10-15T00:00:00	2024-11-08T14:00:00	5	Humedad	85
178429	7	Sololá	719	Santiago Atitlán	14	Cerro de Oro	10	Octubre	2023-10-15T00:00:00	2024-11-08T14:00:00	6	Velocidad del viento	3.2
178430	7	Sololá	719	Santiago Atitlán	14	Cerro de Oro	10	Octubre	2023-10-15T00:00:00	2024-11-08T14:00:00	7	Dirección del viento	3.22
178431	7	Sololá	719	Santiago Atitlán	14	Cerro de Oro	10	Octubre	2023-10-15T00:00:00	2024-11-08T14:00:00	1	Precipitación	0
178432	7	Sololá	719	Santiago Atitlán	14	Cerro de Oro	10	Octubre	2023-10-15T00:00:00	2024-11-08T14:00:00	8	Radiación solar	345
178433	7	Sololá	719	Santiago Atitlán	14	Cerro de Oro	10	Octubre	2023-10-15T00:00:00	2024-11-08T15:00:00	2	Temperatura media	21.4
178434	7	Sololá	719	Santiago Atitlán	14	Cerro de Oro	10	Octubre	2023-10-15T00:00:00	2024-11-08T15:00:00	4	Temperatura máxima	22.8
178435	7	Sololá	719	Santiago Atitlán	14	Cerro de Oro	10	Octubre	2023-10-15T00:00:00	2024-11-08T15:00:00	3	Temperatura mínima	21.4
178436	7	Sololá	719	Santiago Atitlán	14	Cerro de Oro	10	Octubre	2023-10-15T00:00:00	2024-11-08T15:00:00	5	Humedad	89
178437	7	Sololá	719	Santiago Atitlán	14	Cerro de Oro	10	Octubre	2023-10-15T00:00:00	2024-11-08T15:00:00	6	Velocidad del viento	4.8
178438	7	Sololá	719	Santiago Atitlán	14	Cerro de Oro	10	Octubre	2023-10-15T00:00:00	2024-11-08T15:00:00	7	Dirección del viento	4.83
178439	7	Sololá	719	Santiago Atitlán	14	Cerro de Oro	10	Octubre	2023-10-15T00:00:00	2024-11-08T15:00:00	1	Precipitación	0
178440	7	Sololá	719	Santiago Atitlán	14	Cerro de Oro	10	Octubre	2023-10-15T00:00:00	2024-11-08T15:00:00	8	Radiación solar	302
178441	7	Sololá	719	Santiago Atitlán	14	Cerro de Oro	10	Octubre	2023-10-15T00:00:00	2024-11-08T16:00:00	2	Temperatura media	20.2
178442	7	Sololá	719	Santiago Atitlán	14	Cerro de Oro	10	Octubre	2023-10-15T00:00:00	2024-11-08T16:00:00	4	Temperatura máxima	21.4
178443	7	Sololá	719	Santiago Atitlán	14	Cerro de Oro	10	Octubre	2023-10-15T00:00:00	2024-11-08T16:00:00	3	Temperatura mínima	20.2
178444	7	Sololá	719	Santiago Atitlán	14	Cerro de Oro	10	Octubre	2023-10-15T00:00:00	2024-11-08T16:00:00	5	Humedad	95
178445	7	Sololá	719	Santiago Atitlán	14	Cerro de Oro	10	Octubre	2023-10-15T00:00:00	2024-11-08T16:00:00	6	Velocidad del viento	3.2
178446	7	Sololá	719	Santiago Atitlán	14	Cerro de Oro	10	Octubre	2023-10-15T00:00:00	2024-11-08T16:00:00	7	Dirección del viento	3.22
178447	7	Sololá	719	Santiago Atitlán	14	Cerro de Oro	10	Octubre	2023-10-15T00:00:00	2024-11-08T16:00:00	1	Precipitación	2.2
178448	7	Sololá	719	Santiago Atitlán	14	Cerro de Oro	10	Octubre	2023-10-15T00:00:00	2024-11-08T16:00:00	8	Radiación solar	98
178449	7	Sololá	719	Santiago Atitlán	14	Cerro de Oro	10	Octubre	2023-10-15T00:00:00	2024-11-08T17:00:00	2	Temperatura media	20.1
178450	7	Sololá	719	Santiago Atitlán	14	Cerro de Oro	10	Octubre	2023-10-15T00:00:00	2024-11-08T17:00:00	4	Temperatura máxima	20.3
178451	7	Sololá	719	Santiago Atitlán	14	Cerro de Oro	10	Octubre	2023-10-15T00:00:00	2024-11-08T17:00:00	3	Temperatura mínima	20.1
178452	7	Sololá	719	Santiago Atitlán	14	Cerro de Oro	10	Octubre	2023-10-15T00:00:00	2024-11-08T17:00:00	5	Humedad	95
178453	7	Sololá	719	Santiago Atitlán	14	Cerro de Oro	10	Octubre	2023-10-15T00:00:00	2024-11-08T17:00:00	6	Velocidad del viento	0
178454	7	Sololá	719	Santiago Atitlán	14	Cerro de Oro	10	Octubre	2023-10-15T00:00:00	2024-11-08T17:00:00	7	Dirección del viento	0
178455	7	Sololá	719	Santiago Atitlán	14	Cerro de Oro	10	Octubre	2023-10-15T00:00:00	2024-11-08T17:00:00	1	Precipitación	0
178456	7	Sololá	719	Santiago Atitlán	14	Cerro de Oro	10	Octubre	2023-10-15T00:00:00	2024-11-08T17:00:00	8	Radiación solar	44
178457	7	Sololá	719	Santiago Atitlán	14	Cerro de Oro	10	Octubre	2023-10-15T00:00:00	2024-11-08T18:00:00	2	Temperatura media	19.6
178458	7	Sololá	719	Santiago Atitlán	14	Cerro de Oro	10	Octubre	2023-10-15T00:00:00	2024-11-08T18:00:00	4	Temperatura máxima	20.2
178459	7	Sololá	719	Santiago Atitlán	14	Cerro de Oro	10	Octubre	2023-10-15T00:00:00	2024-11-08T18:00:00	3	Temperatura mínima	19.6
178460	7	Sololá	719	Santiago Atitlán	14	Cerro de Oro	10	Octubre	2023-10-15T00:00:00	2024-11-08T18:00:00	5	Humedad	95
178461	7	Sololá	719	Santiago Atitlán	14	Cerro de Oro	10	Octubre	2023-10-15T00:00:00	2024-11-08T18:00:00	6	Velocidad del viento	1.6
178462	7	Sololá	719	Santiago Atitlán	14	Cerro de Oro	10	Octubre	2023-10-15T00:00:00	2024-11-08T18:00:00	7	Dirección del viento	1.61
178463	7	Sololá	719	Santiago Atitlán	14	Cerro de Oro	10	Octubre	2023-10-15T00:00:00	2024-11-08T18:00:00	1	Precipitación	0
178464	7	Sololá	719	Santiago Atitlán	14	Cerro de Oro	10	Octubre	2023-10-15T00:00:00	2024-11-08T18:00:00	8	Radiación solar	2
178465	7	Sololá	719	Santiago Atitlán	14	Cerro de Oro	10	Octubre	2023-10-15T00:00:00	2024-11-08T19:00:00	2	Temperatura media	19.5
178466	7	Sololá	719	Santiago Atitlán	14	Cerro de Oro	10	Octubre	2023-10-15T00:00:00	2024-11-08T19:00:00	4	Temperatura máxima	19.6
178467	7	Sololá	719	Santiago Atitlán	14	Cerro de Oro	10	Octubre	2023-10-15T00:00:00	2024-11-08T19:00:00	3	Temperatura mínima	19.5
178468	7	Sololá	719	Santiago Atitlán	14	Cerro de Oro	10	Octubre	2023-10-15T00:00:00	2024-11-08T19:00:00	5	Humedad	95
178469	7	Sololá	719	Santiago Atitlán	14	Cerro de Oro	10	Octubre	2023-10-15T00:00:00	2024-11-08T19:00:00	6	Velocidad del viento	1.6
178470	7	Sololá	719	Santiago Atitlán	14	Cerro de Oro	10	Octubre	2023-10-15T00:00:00	2024-11-08T19:00:00	7	Dirección del viento	1.61
178471	7	Sololá	719	Santiago Atitlán	14	Cerro de Oro	10	Octubre	2023-10-15T00:00:00	2024-11-08T19:00:00	1	Precipitación	0
178472	7	Sololá	719	Santiago Atitlán	14	Cerro de Oro	10	Octubre	2023-10-15T00:00:00	2024-11-08T19:00:00	8	Radiación solar	0
178473	7	Sololá	719	Santiago Atitlán	14	Cerro de Oro	10	Octubre	2023-10-15T00:00:00	2024-11-08T20:00:00	2	Temperatura media	19.3
178474	7	Sololá	719	Santiago Atitlán	14	Cerro de Oro	10	Octubre	2023-10-15T00:00:00	2024-11-08T20:00:00	4	Temperatura máxima	19.6
178475	7	Sololá	719	Santiago Atitlán	14	Cerro de Oro	10	Octubre	2023-10-15T00:00:00	2024-11-08T20:00:00	3	Temperatura mínima	19.3
178476	7	Sololá	719	Santiago Atitlán	14	Cerro de Oro	10	Octubre	2023-10-15T00:00:00	2024-11-08T20:00:00	5	Humedad	95
178477	7	Sololá	719	Santiago Atitlán	14	Cerro de Oro	10	Octubre	2023-10-15T00:00:00	2024-11-08T20:00:00	6	Velocidad del viento	0
178478	7	Sololá	719	Santiago Atitlán	14	Cerro de Oro	10	Octubre	2023-10-15T00:00:00	2024-11-08T20:00:00	7	Dirección del viento	0
178479	7	Sololá	719	Santiago Atitlán	14	Cerro de Oro	10	Octubre	2023-10-15T00:00:00	2024-11-08T20:00:00	1	Precipitación	0
178480	7	Sololá	719	Santiago Atitlán	14	Cerro de Oro	10	Octubre	2023-10-15T00:00:00	2024-11-08T20:00:00	8	Radiación solar	0
178481	7	Sololá	719	Santiago Atitlán	14	Cerro de Oro	10	Octubre	2023-10-15T00:00:00	2024-11-08T21:00:00	2	Temperatura media	18.9
178482	7	Sololá	719	Santiago Atitlán	14	Cerro de Oro	10	Octubre	2023-10-15T00:00:00	2024-11-08T21:00:00	4	Temperatura máxima	19.4
178483	7	Sololá	719	Santiago Atitlán	14	Cerro de Oro	10	Octubre	2023-10-15T00:00:00	2024-11-08T21:00:00	3	Temperatura mínima	18.9
178484	7	Sololá	719	Santiago Atitlán	14	Cerro de Oro	10	Octubre	2023-10-15T00:00:00	2024-11-08T21:00:00	5	Humedad	96
178485	7	Sololá	719	Santiago Atitlán	14	Cerro de Oro	10	Octubre	2023-10-15T00:00:00	2024-11-08T21:00:00	6	Velocidad del viento	0
178486	7	Sololá	719	Santiago Atitlán	14	Cerro de Oro	10	Octubre	2023-10-15T00:00:00	2024-11-08T21:00:00	7	Dirección del viento	0
178487	7	Sololá	719	Santiago Atitlán	14	Cerro de Oro	10	Octubre	2023-10-15T00:00:00	2024-11-08T21:00:00	1	Precipitación	0
178488	7	Sololá	719	Santiago Atitlán	14	Cerro de Oro	10	Octubre	2023-10-15T00:00:00	2024-11-08T21:00:00	8	Radiación solar	0
178489	7	Sololá	719	Santiago Atitlán	14	Cerro de Oro	10	Octubre	2023-10-15T00:00:00	2024-11-08T22:00:00	2	Temperatura media	18.7
178490	7	Sololá	719	Santiago Atitlán	14	Cerro de Oro	10	Octubre	2023-10-15T00:00:00	2024-11-08T22:00:00	4	Temperatura máxima	18.9
178491	7	Sololá	719	Santiago Atitlán	14	Cerro de Oro	10	Octubre	2023-10-15T00:00:00	2024-11-08T22:00:00	3	Temperatura mínima	18.6
178492	7	Sololá	719	Santiago Atitlán	14	Cerro de Oro	10	Octubre	2023-10-15T00:00:00	2024-11-08T22:00:00	5	Humedad	95
178493	7	Sololá	719	Santiago Atitlán	14	Cerro de Oro	10	Octubre	2023-10-15T00:00:00	2024-11-08T22:00:00	6	Velocidad del viento	1.6
178494	7	Sololá	719	Santiago Atitlán	14	Cerro de Oro	10	Octubre	2023-10-15T00:00:00	2024-11-08T22:00:00	7	Dirección del viento	1.61
178495	7	Sololá	719	Santiago Atitlán	14	Cerro de Oro	10	Octubre	2023-10-15T00:00:00	2024-11-08T22:00:00	1	Precipitación	0.2
178496	7	Sololá	719	Santiago Atitlán	14	Cerro de Oro	10	Octubre	2023-10-15T00:00:00	2024-11-08T22:00:00	8	Radiación solar	0
178497	7	Sololá	719	Santiago Atitlán	14	Cerro de Oro	10	Octubre	2023-10-15T00:00:00	2024-11-08T23:00:00	2	Temperatura media	17.7
178498	7	Sololá	719	Santiago Atitlán	14	Cerro de Oro	10	Octubre	2023-10-15T00:00:00	2024-11-08T23:00:00	4	Temperatura máxima	18.7
178499	7	Sololá	719	Santiago Atitlán	14	Cerro de Oro	10	Octubre	2023-10-15T00:00:00	2024-11-08T23:00:00	3	Temperatura mínima	17.7
178500	7	Sololá	719	Santiago Atitlán	14	Cerro de Oro	10	Octubre	2023-10-15T00:00:00	2024-11-08T23:00:00	5	Humedad	98
178501	7	Sololá	719	Santiago Atitlán	14	Cerro de Oro	10	Octubre	2023-10-15T00:00:00	2024-11-08T23:00:00	6	Velocidad del viento	1.6
178502	7	Sololá	719	Santiago Atitlán	14	Cerro de Oro	10	Octubre	2023-10-15T00:00:00	2024-11-08T23:00:00	7	Dirección del viento	1.61
178503	7	Sololá	719	Santiago Atitlán	14	Cerro de Oro	10	Octubre	2023-10-15T00:00:00	2024-11-08T23:00:00	1	Precipitación	6.2
178504	7	Sololá	719	Santiago Atitlán	14	Cerro de Oro	10	Octubre	2023-10-15T00:00:00	2024-11-08T23:00:00	8	Radiación solar	0
178505	7	Sololá	719	Santiago Atitlán	14	Cerro de Oro	10	Octubre	2023-10-16T00:00:00	2024-11-08T00:00:00	2	Temperatura media	17.6
178506	7	Sololá	719	Santiago Atitlán	14	Cerro de Oro	10	Octubre	2023-10-16T00:00:00	2024-11-08T00:00:00	4	Temperatura máxima	17.8
178507	7	Sololá	719	Santiago Atitlán	14	Cerro de Oro	10	Octubre	2023-10-16T00:00:00	2024-11-08T00:00:00	3	Temperatura mínima	17.6
178508	7	Sololá	719	Santiago Atitlán	14	Cerro de Oro	10	Octubre	2023-10-16T00:00:00	2024-11-08T00:00:00	5	Humedad	98
178509	7	Sololá	719	Santiago Atitlán	14	Cerro de Oro	10	Octubre	2023-10-16T00:00:00	2024-11-08T00:00:00	6	Velocidad del viento	1.6
178510	7	Sololá	719	Santiago Atitlán	14	Cerro de Oro	10	Octubre	2023-10-16T00:00:00	2024-11-08T00:00:00	7	Dirección del viento	1.61
178511	7	Sololá	719	Santiago Atitlán	14	Cerro de Oro	10	Octubre	2023-10-16T00:00:00	2024-11-08T00:00:00	1	Precipitación	2.2
178512	7	Sololá	719	Santiago Atitlán	14	Cerro de Oro	10	Octubre	2023-10-16T00:00:00	2024-11-08T00:00:00	8	Radiación solar	0
178513	7	Sololá	719	Santiago Atitlán	14	Cerro de Oro	10	Octubre	2023-10-16T00:00:00	2024-11-08T01:00:00	2	Temperatura media	17.2
178514	7	Sololá	719	Santiago Atitlán	14	Cerro de Oro	10	Octubre	2023-10-16T00:00:00	2024-11-08T01:00:00	4	Temperatura máxima	17.6
178515	7	Sololá	719	Santiago Atitlán	14	Cerro de Oro	10	Octubre	2023-10-16T00:00:00	2024-11-08T01:00:00	3	Temperatura mínima	17.2
178516	7	Sololá	719	Santiago Atitlán	14	Cerro de Oro	10	Octubre	2023-10-16T00:00:00	2024-11-08T01:00:00	5	Humedad	98
178517	7	Sololá	719	Santiago Atitlán	14	Cerro de Oro	10	Octubre	2023-10-16T00:00:00	2024-11-08T01:00:00	6	Velocidad del viento	0
178518	7	Sololá	719	Santiago Atitlán	14	Cerro de Oro	10	Octubre	2023-10-16T00:00:00	2024-11-08T01:00:00	7	Dirección del viento	0
178519	7	Sololá	719	Santiago Atitlán	14	Cerro de Oro	10	Octubre	2023-10-16T00:00:00	2024-11-08T01:00:00	1	Precipitación	0
178520	7	Sololá	719	Santiago Atitlán	14	Cerro de Oro	10	Octubre	2023-10-16T00:00:00	2024-11-08T01:00:00	8	Radiación solar	0
178521	7	Sololá	719	Santiago Atitlán	14	Cerro de Oro	10	Octubre	2023-10-16T00:00:00	2024-11-08T02:00:00	2	Temperatura media	17.2
178522	7	Sololá	719	Santiago Atitlán	14	Cerro de Oro	10	Octubre	2023-10-16T00:00:00	2024-11-08T02:00:00	4	Temperatura máxima	17.6
178523	7	Sololá	719	Santiago Atitlán	14	Cerro de Oro	10	Octubre	2023-10-16T00:00:00	2024-11-08T02:00:00	3	Temperatura mínima	16.8
178524	7	Sololá	719	Santiago Atitlán	14	Cerro de Oro	10	Octubre	2023-10-16T00:00:00	2024-11-08T02:00:00	5	Humedad	88
178525	7	Sololá	719	Santiago Atitlán	14	Cerro de Oro	10	Octubre	2023-10-16T00:00:00	2024-11-08T02:00:00	6	Velocidad del viento	1.6
178526	7	Sololá	719	Santiago Atitlán	14	Cerro de Oro	10	Octubre	2023-10-16T00:00:00	2024-11-08T02:00:00	7	Dirección del viento	1.61
178527	7	Sololá	719	Santiago Atitlán	14	Cerro de Oro	10	Octubre	2023-10-16T00:00:00	2024-11-08T02:00:00	1	Precipitación	0
178528	7	Sololá	719	Santiago Atitlán	14	Cerro de Oro	10	Octubre	2023-10-16T00:00:00	2024-11-08T02:00:00	8	Radiación solar	0
178529	7	Sololá	719	Santiago Atitlán	14	Cerro de Oro	10	Octubre	2023-10-16T00:00:00	2024-11-08T03:00:00	2	Temperatura media	16.8
178530	7	Sololá	719	Santiago Atitlán	14	Cerro de Oro	10	Octubre	2023-10-16T00:00:00	2024-11-08T03:00:00	4	Temperatura máxima	17.5
178531	7	Sololá	719	Santiago Atitlán	14	Cerro de Oro	10	Octubre	2023-10-16T00:00:00	2024-11-08T03:00:00	3	Temperatura mínima	16.7
178532	7	Sololá	719	Santiago Atitlán	14	Cerro de Oro	10	Octubre	2023-10-16T00:00:00	2024-11-08T03:00:00	5	Humedad	95
178533	7	Sololá	719	Santiago Atitlán	14	Cerro de Oro	10	Octubre	2023-10-16T00:00:00	2024-11-08T03:00:00	6	Velocidad del viento	1.6
178534	7	Sololá	719	Santiago Atitlán	14	Cerro de Oro	10	Octubre	2023-10-16T00:00:00	2024-11-08T03:00:00	7	Dirección del viento	1.61
178535	7	Sololá	719	Santiago Atitlán	14	Cerro de Oro	10	Octubre	2023-10-16T00:00:00	2024-11-08T03:00:00	1	Precipitación	0
178536	7	Sololá	719	Santiago Atitlán	14	Cerro de Oro	10	Octubre	2023-10-16T00:00:00	2024-11-08T03:00:00	8	Radiación solar	0
178537	7	Sololá	719	Santiago Atitlán	14	Cerro de Oro	10	Octubre	2023-10-16T00:00:00	2024-11-08T04:00:00	2	Temperatura media	16.1
178538	7	Sololá	719	Santiago Atitlán	14	Cerro de Oro	10	Octubre	2023-10-16T00:00:00	2024-11-08T04:00:00	4	Temperatura máxima	16.8
178539	7	Sololá	719	Santiago Atitlán	14	Cerro de Oro	10	Octubre	2023-10-16T00:00:00	2024-11-08T04:00:00	3	Temperatura mínima	15.9
178540	7	Sololá	719	Santiago Atitlán	14	Cerro de Oro	10	Octubre	2023-10-16T00:00:00	2024-11-08T04:00:00	5	Humedad	94
178541	7	Sololá	719	Santiago Atitlán	14	Cerro de Oro	10	Octubre	2023-10-16T00:00:00	2024-11-08T04:00:00	6	Velocidad del viento	1.6
178542	7	Sololá	719	Santiago Atitlán	14	Cerro de Oro	10	Octubre	2023-10-16T00:00:00	2024-11-08T04:00:00	7	Dirección del viento	1.61
178543	7	Sololá	719	Santiago Atitlán	14	Cerro de Oro	10	Octubre	2023-10-16T00:00:00	2024-11-08T04:00:00	1	Precipitación	0
178544	7	Sololá	719	Santiago Atitlán	14	Cerro de Oro	10	Octubre	2023-10-16T00:00:00	2024-11-08T04:00:00	8	Radiación solar	0
178545	7	Sololá	719	Santiago Atitlán	14	Cerro de Oro	10	Octubre	2023-10-16T00:00:00	2024-11-08T05:00:00	2	Temperatura media	16.7
178546	7	Sololá	719	Santiago Atitlán	14	Cerro de Oro	10	Octubre	2023-10-16T00:00:00	2024-11-08T05:00:00	4	Temperatura máxima	17.4
178547	7	Sololá	719	Santiago Atitlán	14	Cerro de Oro	10	Octubre	2023-10-16T00:00:00	2024-11-08T05:00:00	3	Temperatura mínima	15.9
178548	7	Sololá	719	Santiago Atitlán	14	Cerro de Oro	10	Octubre	2023-10-16T00:00:00	2024-11-08T05:00:00	5	Humedad	92
178549	7	Sololá	719	Santiago Atitlán	14	Cerro de Oro	10	Octubre	2023-10-16T00:00:00	2024-11-08T05:00:00	6	Velocidad del viento	1.6
178550	7	Sololá	719	Santiago Atitlán	14	Cerro de Oro	10	Octubre	2023-10-16T00:00:00	2024-11-08T05:00:00	7	Dirección del viento	1.61
178551	7	Sololá	719	Santiago Atitlán	14	Cerro de Oro	10	Octubre	2023-10-16T00:00:00	2024-11-08T05:00:00	1	Precipitación	0
178552	7	Sololá	719	Santiago Atitlán	14	Cerro de Oro	10	Octubre	2023-10-16T00:00:00	2024-11-08T05:00:00	8	Radiación solar	0
178553	7	Sololá	719	Santiago Atitlán	14	Cerro de Oro	10	Octubre	2023-10-16T00:00:00	2024-11-08T06:00:00	2	Temperatura media	17.2
178554	7	Sololá	719	Santiago Atitlán	14	Cerro de Oro	10	Octubre	2023-10-16T00:00:00	2024-11-08T06:00:00	4	Temperatura máxima	17.4
178555	7	Sololá	719	Santiago Atitlán	14	Cerro de Oro	10	Octubre	2023-10-16T00:00:00	2024-11-08T06:00:00	3	Temperatura mínima	16.7
178556	7	Sololá	719	Santiago Atitlán	14	Cerro de Oro	10	Octubre	2023-10-16T00:00:00	2024-11-08T06:00:00	5	Humedad	86
178557	7	Sololá	719	Santiago Atitlán	14	Cerro de Oro	10	Octubre	2023-10-16T00:00:00	2024-11-08T06:00:00	6	Velocidad del viento	1.6
178558	7	Sololá	719	Santiago Atitlán	14	Cerro de Oro	10	Octubre	2023-10-16T00:00:00	2024-11-08T06:00:00	7	Dirección del viento	1.61
178559	7	Sololá	719	Santiago Atitlán	14	Cerro de Oro	10	Octubre	2023-10-16T00:00:00	2024-11-08T06:00:00	1	Precipitación	0
178560	7	Sololá	719	Santiago Atitlán	14	Cerro de Oro	10	Octubre	2023-10-16T00:00:00	2024-11-08T06:00:00	8	Radiación solar	0
178561	7	Sololá	719	Santiago Atitlán	14	Cerro de Oro	10	Octubre	2023-10-16T00:00:00	2024-11-08T07:00:00	2	Temperatura media	17.9
178562	7	Sololá	719	Santiago Atitlán	14	Cerro de Oro	10	Octubre	2023-10-16T00:00:00	2024-11-08T07:00:00	4	Temperatura máxima	17.9
178563	7	Sololá	719	Santiago Atitlán	14	Cerro de Oro	10	Octubre	2023-10-16T00:00:00	2024-11-08T07:00:00	3	Temperatura mínima	16.8
178564	7	Sololá	719	Santiago Atitlán	14	Cerro de Oro	10	Octubre	2023-10-16T00:00:00	2024-11-08T07:00:00	5	Humedad	90
178565	7	Sololá	719	Santiago Atitlán	14	Cerro de Oro	10	Octubre	2023-10-16T00:00:00	2024-11-08T07:00:00	6	Velocidad del viento	0
178566	7	Sololá	719	Santiago Atitlán	14	Cerro de Oro	10	Octubre	2023-10-16T00:00:00	2024-11-08T07:00:00	7	Dirección del viento	0
178567	7	Sololá	719	Santiago Atitlán	14	Cerro de Oro	10	Octubre	2023-10-16T00:00:00	2024-11-08T07:00:00	1	Precipitación	0
178568	7	Sololá	719	Santiago Atitlán	14	Cerro de Oro	10	Octubre	2023-10-16T00:00:00	2024-11-08T07:00:00	8	Radiación solar	53
178569	7	Sololá	719	Santiago Atitlán	14	Cerro de Oro	10	Octubre	2023-10-16T00:00:00	2024-11-08T08:00:00	2	Temperatura media	20.4
178570	7	Sololá	719	Santiago Atitlán	14	Cerro de Oro	10	Octubre	2023-10-16T00:00:00	2024-11-08T08:00:00	4	Temperatura máxima	20.7
178571	7	Sololá	719	Santiago Atitlán	14	Cerro de Oro	10	Octubre	2023-10-16T00:00:00	2024-11-08T08:00:00	3	Temperatura mínima	17.9
178572	7	Sololá	719	Santiago Atitlán	14	Cerro de Oro	10	Octubre	2023-10-16T00:00:00	2024-11-08T08:00:00	5	Humedad	83
178573	7	Sololá	719	Santiago Atitlán	14	Cerro de Oro	10	Octubre	2023-10-16T00:00:00	2024-11-08T08:00:00	6	Velocidad del viento	1.6
178574	7	Sololá	719	Santiago Atitlán	14	Cerro de Oro	10	Octubre	2023-10-16T00:00:00	2024-11-08T08:00:00	7	Dirección del viento	1.61
178575	7	Sololá	719	Santiago Atitlán	14	Cerro de Oro	10	Octubre	2023-10-16T00:00:00	2024-11-08T08:00:00	1	Precipitación	0
178576	7	Sololá	719	Santiago Atitlán	14	Cerro de Oro	10	Octubre	2023-10-16T00:00:00	2024-11-08T08:00:00	8	Radiación solar	235
178577	7	Sololá	719	Santiago Atitlán	14	Cerro de Oro	10	Octubre	2023-10-16T00:00:00	2024-11-08T09:00:00	2	Temperatura media	21.8
178578	7	Sololá	719	Santiago Atitlán	14	Cerro de Oro	10	Octubre	2023-10-16T00:00:00	2024-11-08T09:00:00	4	Temperatura máxima	21.9
178579	7	Sololá	719	Santiago Atitlán	14	Cerro de Oro	10	Octubre	2023-10-16T00:00:00	2024-11-08T09:00:00	3	Temperatura mínima	20.3
178580	7	Sololá	719	Santiago Atitlán	14	Cerro de Oro	10	Octubre	2023-10-16T00:00:00	2024-11-08T09:00:00	5	Humedad	77
178581	7	Sololá	719	Santiago Atitlán	14	Cerro de Oro	10	Octubre	2023-10-16T00:00:00	2024-11-08T09:00:00	6	Velocidad del viento	1.6
178582	7	Sololá	719	Santiago Atitlán	14	Cerro de Oro	10	Octubre	2023-10-16T00:00:00	2024-11-08T09:00:00	7	Dirección del viento	1.61
178583	7	Sololá	719	Santiago Atitlán	14	Cerro de Oro	10	Octubre	2023-10-16T00:00:00	2024-11-08T09:00:00	1	Precipitación	0
178584	7	Sololá	719	Santiago Atitlán	14	Cerro de Oro	10	Octubre	2023-10-16T00:00:00	2024-11-08T09:00:00	8	Radiación solar	425
178585	7	Sololá	719	Santiago Atitlán	14	Cerro de Oro	10	Octubre	2023-10-16T00:00:00	2024-11-08T10:00:00	2	Temperatura media	24
178586	7	Sololá	719	Santiago Atitlán	14	Cerro de Oro	10	Octubre	2023-10-16T00:00:00	2024-11-08T10:00:00	4	Temperatura máxima	24.2
178587	7	Sololá	719	Santiago Atitlán	14	Cerro de Oro	10	Octubre	2023-10-16T00:00:00	2024-11-08T10:00:00	3	Temperatura mínima	21.8
178588	7	Sololá	719	Santiago Atitlán	14	Cerro de Oro	10	Octubre	2023-10-16T00:00:00	2024-11-08T10:00:00	5	Humedad	65
178589	7	Sololá	719	Santiago Atitlán	14	Cerro de Oro	10	Octubre	2023-10-16T00:00:00	2024-11-08T10:00:00	6	Velocidad del viento	4.8
178590	7	Sololá	719	Santiago Atitlán	14	Cerro de Oro	10	Octubre	2023-10-16T00:00:00	2024-11-08T10:00:00	7	Dirección del viento	4.83
178591	7	Sololá	719	Santiago Atitlán	14	Cerro de Oro	10	Octubre	2023-10-16T00:00:00	2024-11-08T10:00:00	1	Precipitación	0
178592	7	Sololá	719	Santiago Atitlán	14	Cerro de Oro	10	Octubre	2023-10-16T00:00:00	2024-11-08T10:00:00	8	Radiación solar	627
178593	7	Sololá	719	Santiago Atitlán	14	Cerro de Oro	10	Octubre	2023-10-16T00:00:00	2024-11-08T11:00:00	2	Temperatura media	23.3
178594	7	Sololá	719	Santiago Atitlán	14	Cerro de Oro	10	Octubre	2023-10-16T00:00:00	2024-11-08T11:00:00	4	Temperatura máxima	24
178595	7	Sololá	719	Santiago Atitlán	14	Cerro de Oro	10	Octubre	2023-10-16T00:00:00	2024-11-08T11:00:00	3	Temperatura mínima	23.3
178596	7	Sololá	719	Santiago Atitlán	14	Cerro de Oro	10	Octubre	2023-10-16T00:00:00	2024-11-08T11:00:00	5	Humedad	68
178597	7	Sololá	719	Santiago Atitlán	14	Cerro de Oro	10	Octubre	2023-10-16T00:00:00	2024-11-08T11:00:00	6	Velocidad del viento	6.4
178598	7	Sololá	719	Santiago Atitlán	14	Cerro de Oro	10	Octubre	2023-10-16T00:00:00	2024-11-08T11:00:00	7	Dirección del viento	6.44
178599	7	Sololá	719	Santiago Atitlán	14	Cerro de Oro	10	Octubre	2023-10-16T00:00:00	2024-11-08T11:00:00	1	Precipitación	0
178600	7	Sololá	719	Santiago Atitlán	14	Cerro de Oro	10	Octubre	2023-10-16T00:00:00	2024-11-08T11:00:00	8	Radiación solar	406
178601	7	Sololá	719	Santiago Atitlán	14	Cerro de Oro	10	Octubre	2023-10-16T00:00:00	2024-11-08T12:00:00	2	Temperatura media	25.1
178602	7	Sololá	719	Santiago Atitlán	14	Cerro de Oro	10	Octubre	2023-10-16T00:00:00	2024-11-08T12:00:00	4	Temperatura máxima	25.1
178603	7	Sololá	719	Santiago Atitlán	14	Cerro de Oro	10	Octubre	2023-10-16T00:00:00	2024-11-08T12:00:00	3	Temperatura mínima	23.3
178604	7	Sololá	719	Santiago Atitlán	14	Cerro de Oro	10	Octubre	2023-10-16T00:00:00	2024-11-08T12:00:00	5	Humedad	63
178605	7	Sololá	719	Santiago Atitlán	14	Cerro de Oro	10	Octubre	2023-10-16T00:00:00	2024-11-08T12:00:00	6	Velocidad del viento	8
178606	7	Sololá	719	Santiago Atitlán	14	Cerro de Oro	10	Octubre	2023-10-16T00:00:00	2024-11-08T12:00:00	7	Dirección del viento	8.05
178607	7	Sololá	719	Santiago Atitlán	14	Cerro de Oro	10	Octubre	2023-10-16T00:00:00	2024-11-08T12:00:00	1	Precipitación	0
178608	7	Sololá	719	Santiago Atitlán	14	Cerro de Oro	10	Octubre	2023-10-16T00:00:00	2024-11-08T12:00:00	8	Radiación solar	662
178609	7	Sololá	719	Santiago Atitlán	14	Cerro de Oro	10	Octubre	2023-10-16T00:00:00	2024-11-08T13:00:00	2	Temperatura media	23.9
178610	7	Sololá	719	Santiago Atitlán	14	Cerro de Oro	10	Octubre	2023-10-16T00:00:00	2024-11-08T13:00:00	4	Temperatura máxima	25.2
178611	7	Sololá	719	Santiago Atitlán	14	Cerro de Oro	10	Octubre	2023-10-16T00:00:00	2024-11-08T13:00:00	3	Temperatura mínima	23.9
178612	7	Sololá	719	Santiago Atitlán	14	Cerro de Oro	10	Octubre	2023-10-16T00:00:00	2024-11-08T13:00:00	5	Humedad	65
178613	7	Sololá	719	Santiago Atitlán	14	Cerro de Oro	10	Octubre	2023-10-16T00:00:00	2024-11-08T13:00:00	6	Velocidad del viento	11.3
178614	7	Sololá	719	Santiago Atitlán	14	Cerro de Oro	10	Octubre	2023-10-16T00:00:00	2024-11-08T13:00:00	7	Dirección del viento	11.27
178615	7	Sololá	719	Santiago Atitlán	14	Cerro de Oro	10	Octubre	2023-10-16T00:00:00	2024-11-08T13:00:00	1	Precipitación	0
178616	7	Sololá	719	Santiago Atitlán	14	Cerro de Oro	10	Octubre	2023-10-16T00:00:00	2024-11-08T13:00:00	8	Radiación solar	843
178617	7	Sololá	719	Santiago Atitlán	14	Cerro de Oro	10	Octubre	2023-10-16T00:00:00	2024-11-08T14:00:00	2	Temperatura media	23.7
178618	7	Sololá	719	Santiago Atitlán	14	Cerro de Oro	10	Octubre	2023-10-16T00:00:00	2024-11-08T14:00:00	4	Temperatura máxima	23.9
178619	7	Sololá	719	Santiago Atitlán	14	Cerro de Oro	10	Octubre	2023-10-16T00:00:00	2024-11-08T14:00:00	3	Temperatura mínima	23.5
178620	7	Sololá	719	Santiago Atitlán	14	Cerro de Oro	10	Octubre	2023-10-16T00:00:00	2024-11-08T14:00:00	5	Humedad	66
178621	7	Sololá	719	Santiago Atitlán	14	Cerro de Oro	10	Octubre	2023-10-16T00:00:00	2024-11-08T14:00:00	6	Velocidad del viento	9.7
178622	7	Sololá	719	Santiago Atitlán	14	Cerro de Oro	10	Octubre	2023-10-16T00:00:00	2024-11-08T14:00:00	7	Dirección del viento	9.66
178623	7	Sololá	719	Santiago Atitlán	14	Cerro de Oro	10	Octubre	2023-10-16T00:00:00	2024-11-08T14:00:00	1	Precipitación	0
178624	7	Sololá	719	Santiago Atitlán	14	Cerro de Oro	10	Octubre	2023-10-16T00:00:00	2024-11-08T14:00:00	8	Radiación solar	372
178625	7	Sololá	719	Santiago Atitlán	14	Cerro de Oro	10	Octubre	2023-10-16T00:00:00	2024-11-08T15:00:00	2	Temperatura media	24
178626	7	Sololá	719	Santiago Atitlán	14	Cerro de Oro	10	Octubre	2023-10-16T00:00:00	2024-11-08T15:00:00	4	Temperatura máxima	24.8
178627	7	Sololá	719	Santiago Atitlán	14	Cerro de Oro	10	Octubre	2023-10-16T00:00:00	2024-11-08T15:00:00	3	Temperatura mínima	23.6
178628	7	Sololá	719	Santiago Atitlán	14	Cerro de Oro	10	Octubre	2023-10-16T00:00:00	2024-11-08T15:00:00	5	Humedad	66
178629	7	Sololá	719	Santiago Atitlán	14	Cerro de Oro	10	Octubre	2023-10-16T00:00:00	2024-11-08T15:00:00	6	Velocidad del viento	8
178630	7	Sololá	719	Santiago Atitlán	14	Cerro de Oro	10	Octubre	2023-10-16T00:00:00	2024-11-08T15:00:00	7	Dirección del viento	8.05
178631	7	Sololá	719	Santiago Atitlán	14	Cerro de Oro	10	Octubre	2023-10-16T00:00:00	2024-11-08T15:00:00	1	Precipitación	0
178632	7	Sololá	719	Santiago Atitlán	14	Cerro de Oro	10	Octubre	2023-10-16T00:00:00	2024-11-08T15:00:00	8	Radiación solar	342
178633	7	Sololá	719	Santiago Atitlán	14	Cerro de Oro	10	Octubre	2023-10-16T00:00:00	2024-11-08T16:00:00	2	Temperatura media	23.6
178634	7	Sololá	719	Santiago Atitlán	14	Cerro de Oro	10	Octubre	2023-10-16T00:00:00	2024-11-08T16:00:00	4	Temperatura máxima	24.6
178635	7	Sololá	719	Santiago Atitlán	14	Cerro de Oro	10	Octubre	2023-10-16T00:00:00	2024-11-08T16:00:00	3	Temperatura mínima	23.5
178636	7	Sololá	719	Santiago Atitlán	14	Cerro de Oro	10	Octubre	2023-10-16T00:00:00	2024-11-08T16:00:00	5	Humedad	66
178637	7	Sololá	719	Santiago Atitlán	14	Cerro de Oro	10	Octubre	2023-10-16T00:00:00	2024-11-08T16:00:00	6	Velocidad del viento	4.8
178638	7	Sololá	719	Santiago Atitlán	14	Cerro de Oro	10	Octubre	2023-10-16T00:00:00	2024-11-08T16:00:00	7	Dirección del viento	4.83
178639	7	Sololá	719	Santiago Atitlán	14	Cerro de Oro	10	Octubre	2023-10-16T00:00:00	2024-11-08T16:00:00	1	Precipitación	0
178640	7	Sololá	719	Santiago Atitlán	14	Cerro de Oro	10	Octubre	2023-10-16T00:00:00	2024-11-08T16:00:00	8	Radiación solar	327
178641	7	Sololá	719	Santiago Atitlán	14	Cerro de Oro	10	Octubre	2023-10-16T00:00:00	2024-11-08T17:00:00	2	Temperatura media	22.2
178642	7	Sololá	719	Santiago Atitlán	14	Cerro de Oro	10	Octubre	2023-10-16T00:00:00	2024-11-08T17:00:00	4	Temperatura máxima	24.1
178643	7	Sololá	719	Santiago Atitlán	14	Cerro de Oro	10	Octubre	2023-10-16T00:00:00	2024-11-08T17:00:00	3	Temperatura mínima	22.2
178644	7	Sololá	719	Santiago Atitlán	14	Cerro de Oro	10	Octubre	2023-10-16T00:00:00	2024-11-08T17:00:00	5	Humedad	68
178645	7	Sololá	719	Santiago Atitlán	14	Cerro de Oro	10	Octubre	2023-10-16T00:00:00	2024-11-08T17:00:00	6	Velocidad del viento	4.8
178646	7	Sololá	719	Santiago Atitlán	14	Cerro de Oro	10	Octubre	2023-10-16T00:00:00	2024-11-08T17:00:00	7	Dirección del viento	4.83
178647	7	Sololá	719	Santiago Atitlán	14	Cerro de Oro	10	Octubre	2023-10-16T00:00:00	2024-11-08T17:00:00	1	Precipitación	0
178648	7	Sololá	719	Santiago Atitlán	14	Cerro de Oro	10	Octubre	2023-10-16T00:00:00	2024-11-08T17:00:00	8	Radiación solar	161
178649	7	Sololá	719	Santiago Atitlán	14	Cerro de Oro	10	Octubre	2023-10-16T00:00:00	2024-11-08T18:00:00	2	Temperatura media	21.1
178650	7	Sololá	719	Santiago Atitlán	14	Cerro de Oro	10	Octubre	2023-10-16T00:00:00	2024-11-08T18:00:00	4	Temperatura máxima	22.2
178651	7	Sololá	719	Santiago Atitlán	14	Cerro de Oro	10	Octubre	2023-10-16T00:00:00	2024-11-08T18:00:00	3	Temperatura mínima	21.1
178652	7	Sololá	719	Santiago Atitlán	14	Cerro de Oro	10	Octubre	2023-10-16T00:00:00	2024-11-08T18:00:00	5	Humedad	71
178653	7	Sololá	719	Santiago Atitlán	14	Cerro de Oro	10	Octubre	2023-10-16T00:00:00	2024-11-08T18:00:00	6	Velocidad del viento	6.4
178654	7	Sololá	719	Santiago Atitlán	14	Cerro de Oro	10	Octubre	2023-10-16T00:00:00	2024-11-08T18:00:00	7	Dirección del viento	6.44
178655	7	Sololá	719	Santiago Atitlán	14	Cerro de Oro	10	Octubre	2023-10-16T00:00:00	2024-11-08T18:00:00	1	Precipitación	0
178656	7	Sololá	719	Santiago Atitlán	14	Cerro de Oro	10	Octubre	2023-10-16T00:00:00	2024-11-08T18:00:00	8	Radiación solar	7
178657	7	Sololá	719	Santiago Atitlán	14	Cerro de Oro	10	Octubre	2023-10-16T00:00:00	2024-11-08T19:00:00	2	Temperatura media	20.7
178658	7	Sololá	719	Santiago Atitlán	14	Cerro de Oro	10	Octubre	2023-10-16T00:00:00	2024-11-08T19:00:00	4	Temperatura máxima	21.1
178659	7	Sololá	719	Santiago Atitlán	14	Cerro de Oro	10	Octubre	2023-10-16T00:00:00	2024-11-08T19:00:00	3	Temperatura mínima	20.7
178660	7	Sololá	719	Santiago Atitlán	14	Cerro de Oro	10	Octubre	2023-10-16T00:00:00	2024-11-08T19:00:00	5	Humedad	72
178661	7	Sololá	719	Santiago Atitlán	14	Cerro de Oro	10	Octubre	2023-10-16T00:00:00	2024-11-08T19:00:00	6	Velocidad del viento	4.8
178662	7	Sololá	719	Santiago Atitlán	14	Cerro de Oro	10	Octubre	2023-10-16T00:00:00	2024-11-08T19:00:00	7	Dirección del viento	4.83
178663	7	Sololá	719	Santiago Atitlán	14	Cerro de Oro	10	Octubre	2023-10-16T00:00:00	2024-11-08T19:00:00	1	Precipitación	0
178664	7	Sololá	719	Santiago Atitlán	14	Cerro de Oro	10	Octubre	2023-10-16T00:00:00	2024-11-08T19:00:00	8	Radiación solar	0
178665	7	Sololá	719	Santiago Atitlán	14	Cerro de Oro	10	Octubre	2023-10-16T00:00:00	2024-11-08T20:00:00	2	Temperatura media	20.6
178666	7	Sololá	719	Santiago Atitlán	14	Cerro de Oro	10	Octubre	2023-10-16T00:00:00	2024-11-08T20:00:00	4	Temperatura máxima	20.7
178667	7	Sololá	719	Santiago Atitlán	14	Cerro de Oro	10	Octubre	2023-10-16T00:00:00	2024-11-08T20:00:00	3	Temperatura mínima	20.5
178668	7	Sololá	719	Santiago Atitlán	14	Cerro de Oro	10	Octubre	2023-10-16T00:00:00	2024-11-08T20:00:00	5	Humedad	71
178669	7	Sololá	719	Santiago Atitlán	14	Cerro de Oro	10	Octubre	2023-10-16T00:00:00	2024-11-08T20:00:00	6	Velocidad del viento	3.2
178670	7	Sololá	719	Santiago Atitlán	14	Cerro de Oro	10	Octubre	2023-10-16T00:00:00	2024-11-08T20:00:00	7	Dirección del viento	3.22
178671	7	Sololá	719	Santiago Atitlán	14	Cerro de Oro	10	Octubre	2023-10-16T00:00:00	2024-11-08T20:00:00	1	Precipitación	0
178672	7	Sololá	719	Santiago Atitlán	14	Cerro de Oro	10	Octubre	2023-10-16T00:00:00	2024-11-08T20:00:00	8	Radiación solar	0
178673	7	Sololá	719	Santiago Atitlán	14	Cerro de Oro	10	Octubre	2023-10-16T00:00:00	2024-11-08T21:00:00	2	Temperatura media	20.3
178674	7	Sololá	719	Santiago Atitlán	14	Cerro de Oro	10	Octubre	2023-10-16T00:00:00	2024-11-08T21:00:00	4	Temperatura máxima	20.7
178675	7	Sololá	719	Santiago Atitlán	14	Cerro de Oro	10	Octubre	2023-10-16T00:00:00	2024-11-08T21:00:00	3	Temperatura mínima	20.3
178676	7	Sololá	719	Santiago Atitlán	14	Cerro de Oro	10	Octubre	2023-10-16T00:00:00	2024-11-08T21:00:00	5	Humedad	72
178677	7	Sololá	719	Santiago Atitlán	14	Cerro de Oro	10	Octubre	2023-10-16T00:00:00	2024-11-08T21:00:00	6	Velocidad del viento	6.4
178678	7	Sololá	719	Santiago Atitlán	14	Cerro de Oro	10	Octubre	2023-10-16T00:00:00	2024-11-08T21:00:00	7	Dirección del viento	6.44
178679	7	Sololá	719	Santiago Atitlán	14	Cerro de Oro	10	Octubre	2023-10-16T00:00:00	2024-11-08T21:00:00	1	Precipitación	0
178680	7	Sololá	719	Santiago Atitlán	14	Cerro de Oro	10	Octubre	2023-10-16T00:00:00	2024-11-08T21:00:00	8	Radiación solar	0
178681	7	Sololá	719	Santiago Atitlán	14	Cerro de Oro	10	Octubre	2023-10-16T00:00:00	2024-11-08T22:00:00	2	Temperatura media	19.9
178682	7	Sololá	719	Santiago Atitlán	14	Cerro de Oro	10	Octubre	2023-10-16T00:00:00	2024-11-08T22:00:00	4	Temperatura máxima	20.3
178683	7	Sololá	719	Santiago Atitlán	14	Cerro de Oro	10	Octubre	2023-10-16T00:00:00	2024-11-08T22:00:00	3	Temperatura mínima	19.8
178684	7	Sololá	719	Santiago Atitlán	14	Cerro de Oro	10	Octubre	2023-10-16T00:00:00	2024-11-08T22:00:00	5	Humedad	74
178685	7	Sololá	719	Santiago Atitlán	14	Cerro de Oro	10	Octubre	2023-10-16T00:00:00	2024-11-08T22:00:00	6	Velocidad del viento	3.2
178686	7	Sololá	719	Santiago Atitlán	14	Cerro de Oro	10	Octubre	2023-10-16T00:00:00	2024-11-08T22:00:00	7	Dirección del viento	3.22
178687	7	Sololá	719	Santiago Atitlán	14	Cerro de Oro	10	Octubre	2023-10-16T00:00:00	2024-11-08T22:00:00	1	Precipitación	0
178688	7	Sololá	719	Santiago Atitlán	14	Cerro de Oro	10	Octubre	2023-10-16T00:00:00	2024-11-08T22:00:00	8	Radiación solar	0
178689	7	Sololá	719	Santiago Atitlán	14	Cerro de Oro	10	Octubre	2023-10-16T00:00:00	2024-11-08T23:00:00	2	Temperatura media	19.6
178690	7	Sololá	719	Santiago Atitlán	14	Cerro de Oro	10	Octubre	2023-10-16T00:00:00	2024-11-08T23:00:00	4	Temperatura máxima	20.1
178691	7	Sololá	719	Santiago Atitlán	14	Cerro de Oro	10	Octubre	2023-10-16T00:00:00	2024-11-08T23:00:00	3	Temperatura mínima	19.6
178692	7	Sololá	719	Santiago Atitlán	14	Cerro de Oro	10	Octubre	2023-10-16T00:00:00	2024-11-08T23:00:00	5	Humedad	73
178693	7	Sololá	719	Santiago Atitlán	14	Cerro de Oro	10	Octubre	2023-10-16T00:00:00	2024-11-08T23:00:00	6	Velocidad del viento	8
178694	7	Sololá	719	Santiago Atitlán	14	Cerro de Oro	10	Octubre	2023-10-16T00:00:00	2024-11-08T23:00:00	7	Dirección del viento	8.05
178695	7	Sololá	719	Santiago Atitlán	14	Cerro de Oro	10	Octubre	2023-10-16T00:00:00	2024-11-08T23:00:00	1	Precipitación	0
178696	7	Sololá	719	Santiago Atitlán	14	Cerro de Oro	10	Octubre	2023-10-16T00:00:00	2024-11-08T23:00:00	8	Radiación solar	0
178697	7	Sololá	719	Santiago Atitlán	14	Cerro de Oro	10	Octubre	2023-10-17T00:00:00	2024-11-08T00:00:00	2	Temperatura media	19.1
178698	7	Sololá	719	Santiago Atitlán	14	Cerro de Oro	10	Octubre	2023-10-17T00:00:00	2024-11-08T00:00:00	4	Temperatura máxima	19.8
178699	7	Sololá	719	Santiago Atitlán	14	Cerro de Oro	10	Octubre	2023-10-17T00:00:00	2024-11-08T00:00:00	3	Temperatura mínima	19.1
178700	7	Sololá	719	Santiago Atitlán	14	Cerro de Oro	10	Octubre	2023-10-17T00:00:00	2024-11-08T00:00:00	5	Humedad	74
178701	7	Sololá	719	Santiago Atitlán	14	Cerro de Oro	10	Octubre	2023-10-17T00:00:00	2024-11-08T00:00:00	6	Velocidad del viento	3.2
178702	7	Sololá	719	Santiago Atitlán	14	Cerro de Oro	10	Octubre	2023-10-17T00:00:00	2024-11-08T00:00:00	7	Dirección del viento	3.22
178703	7	Sololá	719	Santiago Atitlán	14	Cerro de Oro	10	Octubre	2023-10-17T00:00:00	2024-11-08T00:00:00	1	Precipitación	0
178704	7	Sololá	719	Santiago Atitlán	14	Cerro de Oro	10	Octubre	2023-10-17T00:00:00	2024-11-08T00:00:00	8	Radiación solar	0
178705	7	Sololá	719	Santiago Atitlán	14	Cerro de Oro	10	Octubre	2023-10-17T00:00:00	2024-11-08T01:00:00	2	Temperatura media	18.8
178706	7	Sololá	719	Santiago Atitlán	14	Cerro de Oro	10	Octubre	2023-10-17T00:00:00	2024-11-08T01:00:00	4	Temperatura máxima	19.1
178707	7	Sololá	719	Santiago Atitlán	14	Cerro de Oro	10	Octubre	2023-10-17T00:00:00	2024-11-08T01:00:00	3	Temperatura mínima	18.7
178708	7	Sololá	719	Santiago Atitlán	14	Cerro de Oro	10	Octubre	2023-10-17T00:00:00	2024-11-08T01:00:00	5	Humedad	74
178709	7	Sololá	719	Santiago Atitlán	14	Cerro de Oro	10	Octubre	2023-10-17T00:00:00	2024-11-08T01:00:00	6	Velocidad del viento	3.2
178710	7	Sololá	719	Santiago Atitlán	14	Cerro de Oro	10	Octubre	2023-10-17T00:00:00	2024-11-08T01:00:00	7	Dirección del viento	3.22
178711	7	Sololá	719	Santiago Atitlán	14	Cerro de Oro	10	Octubre	2023-10-17T00:00:00	2024-11-08T01:00:00	1	Precipitación	0
178712	7	Sololá	719	Santiago Atitlán	14	Cerro de Oro	10	Octubre	2023-10-17T00:00:00	2024-11-08T01:00:00	8	Radiación solar	0
178713	7	Sololá	719	Santiago Atitlán	14	Cerro de Oro	10	Octubre	2023-10-17T00:00:00	2024-11-08T02:00:00	2	Temperatura media	18.3
178714	7	Sololá	719	Santiago Atitlán	14	Cerro de Oro	10	Octubre	2023-10-17T00:00:00	2024-11-08T02:00:00	4	Temperatura máxima	18.8
178715	7	Sololá	719	Santiago Atitlán	14	Cerro de Oro	10	Octubre	2023-10-17T00:00:00	2024-11-08T02:00:00	3	Temperatura mínima	18.3
178716	7	Sololá	719	Santiago Atitlán	14	Cerro de Oro	10	Octubre	2023-10-17T00:00:00	2024-11-08T02:00:00	5	Humedad	74
178717	7	Sololá	719	Santiago Atitlán	14	Cerro de Oro	10	Octubre	2023-10-17T00:00:00	2024-11-08T02:00:00	6	Velocidad del viento	4.8
178718	7	Sololá	719	Santiago Atitlán	14	Cerro de Oro	10	Octubre	2023-10-17T00:00:00	2024-11-08T02:00:00	7	Dirección del viento	4.83
178719	7	Sololá	719	Santiago Atitlán	14	Cerro de Oro	10	Octubre	2023-10-17T00:00:00	2024-11-08T02:00:00	1	Precipitación	0
178720	7	Sololá	719	Santiago Atitlán	14	Cerro de Oro	10	Octubre	2023-10-17T00:00:00	2024-11-08T02:00:00	8	Radiación solar	0
178721	7	Sololá	719	Santiago Atitlán	14	Cerro de Oro	10	Octubre	2023-10-17T00:00:00	2024-11-08T03:00:00	2	Temperatura media	18.2
178722	7	Sololá	719	Santiago Atitlán	14	Cerro de Oro	10	Octubre	2023-10-17T00:00:00	2024-11-08T03:00:00	4	Temperatura máxima	18.4
178723	7	Sololá	719	Santiago Atitlán	14	Cerro de Oro	10	Octubre	2023-10-17T00:00:00	2024-11-08T03:00:00	3	Temperatura mínima	18.1
178724	7	Sololá	719	Santiago Atitlán	14	Cerro de Oro	10	Octubre	2023-10-17T00:00:00	2024-11-08T03:00:00	5	Humedad	73
178725	7	Sololá	719	Santiago Atitlán	14	Cerro de Oro	10	Octubre	2023-10-17T00:00:00	2024-11-08T03:00:00	6	Velocidad del viento	4.8
178726	7	Sololá	719	Santiago Atitlán	14	Cerro de Oro	10	Octubre	2023-10-17T00:00:00	2024-11-08T03:00:00	7	Dirección del viento	4.83
178727	7	Sololá	719	Santiago Atitlán	14	Cerro de Oro	10	Octubre	2023-10-17T00:00:00	2024-11-08T03:00:00	1	Precipitación	0
178728	7	Sololá	719	Santiago Atitlán	14	Cerro de Oro	10	Octubre	2023-10-17T00:00:00	2024-11-08T03:00:00	8	Radiación solar	0
178729	7	Sololá	719	Santiago Atitlán	14	Cerro de Oro	10	Octubre	2023-10-17T00:00:00	2024-11-08T04:00:00	2	Temperatura media	18.5
178730	7	Sololá	719	Santiago Atitlán	14	Cerro de Oro	10	Octubre	2023-10-17T00:00:00	2024-11-08T04:00:00	4	Temperatura máxima	18.5
178731	7	Sololá	719	Santiago Atitlán	14	Cerro de Oro	10	Octubre	2023-10-17T00:00:00	2024-11-08T04:00:00	3	Temperatura mínima	17.9
178732	7	Sololá	719	Santiago Atitlán	14	Cerro de Oro	10	Octubre	2023-10-17T00:00:00	2024-11-08T04:00:00	5	Humedad	71
178733	7	Sololá	719	Santiago Atitlán	14	Cerro de Oro	10	Octubre	2023-10-17T00:00:00	2024-11-08T04:00:00	6	Velocidad del viento	4.8
178734	7	Sololá	719	Santiago Atitlán	14	Cerro de Oro	10	Octubre	2023-10-17T00:00:00	2024-11-08T04:00:00	7	Dirección del viento	4.83
178735	7	Sololá	719	Santiago Atitlán	14	Cerro de Oro	10	Octubre	2023-10-17T00:00:00	2024-11-08T04:00:00	1	Precipitación	0
178736	7	Sololá	719	Santiago Atitlán	14	Cerro de Oro	10	Octubre	2023-10-17T00:00:00	2024-11-08T04:00:00	8	Radiación solar	0
178737	7	Sololá	719	Santiago Atitlán	14	Cerro de Oro	10	Octubre	2023-10-17T00:00:00	2024-11-08T05:00:00	2	Temperatura media	18.7
178738	7	Sololá	719	Santiago Atitlán	14	Cerro de Oro	10	Octubre	2023-10-17T00:00:00	2024-11-08T05:00:00	4	Temperatura máxima	18.9
178739	7	Sololá	719	Santiago Atitlán	14	Cerro de Oro	10	Octubre	2023-10-17T00:00:00	2024-11-08T05:00:00	3	Temperatura mínima	18.4
178740	7	Sololá	719	Santiago Atitlán	14	Cerro de Oro	10	Octubre	2023-10-17T00:00:00	2024-11-08T05:00:00	5	Humedad	69
178741	7	Sololá	719	Santiago Atitlán	14	Cerro de Oro	10	Octubre	2023-10-17T00:00:00	2024-11-08T05:00:00	6	Velocidad del viento	6.4
178742	7	Sololá	719	Santiago Atitlán	14	Cerro de Oro	10	Octubre	2023-10-17T00:00:00	2024-11-08T05:00:00	7	Dirección del viento	6.44
178743	7	Sololá	719	Santiago Atitlán	14	Cerro de Oro	10	Octubre	2023-10-17T00:00:00	2024-11-08T05:00:00	1	Precipitación	0
178744	7	Sololá	719	Santiago Atitlán	14	Cerro de Oro	10	Octubre	2023-10-17T00:00:00	2024-11-08T05:00:00	8	Radiación solar	0
178745	7	Sololá	719	Santiago Atitlán	14	Cerro de Oro	10	Octubre	2023-10-17T00:00:00	2024-11-08T06:00:00	2	Temperatura media	18.7
178746	7	Sololá	719	Santiago Atitlán	14	Cerro de Oro	10	Octubre	2023-10-17T00:00:00	2024-11-08T06:00:00	4	Temperatura máxima	18.8
178747	7	Sololá	719	Santiago Atitlán	14	Cerro de Oro	10	Octubre	2023-10-17T00:00:00	2024-11-08T06:00:00	3	Temperatura mínima	18.4
178748	7	Sololá	719	Santiago Atitlán	14	Cerro de Oro	10	Octubre	2023-10-17T00:00:00	2024-11-08T06:00:00	5	Humedad	68
178749	7	Sololá	719	Santiago Atitlán	14	Cerro de Oro	10	Octubre	2023-10-17T00:00:00	2024-11-08T06:00:00	6	Velocidad del viento	6.4
178750	7	Sololá	719	Santiago Atitlán	14	Cerro de Oro	10	Octubre	2023-10-17T00:00:00	2024-11-08T06:00:00	7	Dirección del viento	6.44
178751	7	Sololá	719	Santiago Atitlán	14	Cerro de Oro	10	Octubre	2023-10-17T00:00:00	2024-11-08T06:00:00	1	Precipitación	0
178752	7	Sololá	719	Santiago Atitlán	14	Cerro de Oro	10	Octubre	2023-10-17T00:00:00	2024-11-08T06:00:00	8	Radiación solar	0
178753	7	Sololá	719	Santiago Atitlán	14	Cerro de Oro	10	Octubre	2023-10-17T00:00:00	2024-11-08T07:00:00	2	Temperatura media	19.9
178754	7	Sololá	719	Santiago Atitlán	14	Cerro de Oro	10	Octubre	2023-10-17T00:00:00	2024-11-08T07:00:00	4	Temperatura máxima	19.9
178755	7	Sololá	719	Santiago Atitlán	14	Cerro de Oro	10	Octubre	2023-10-17T00:00:00	2024-11-08T07:00:00	3	Temperatura mínima	18.6
178756	7	Sololá	719	Santiago Atitlán	14	Cerro de Oro	10	Octubre	2023-10-17T00:00:00	2024-11-08T07:00:00	5	Humedad	65
178757	7	Sololá	719	Santiago Atitlán	14	Cerro de Oro	10	Octubre	2023-10-17T00:00:00	2024-11-08T07:00:00	6	Velocidad del viento	6.4
178758	7	Sololá	719	Santiago Atitlán	14	Cerro de Oro	10	Octubre	2023-10-17T00:00:00	2024-11-08T07:00:00	7	Dirección del viento	6.44
178759	7	Sololá	719	Santiago Atitlán	14	Cerro de Oro	10	Octubre	2023-10-17T00:00:00	2024-11-08T07:00:00	1	Precipitación	0
178760	7	Sololá	719	Santiago Atitlán	14	Cerro de Oro	10	Octubre	2023-10-17T00:00:00	2024-11-08T07:00:00	8	Radiación solar	66
178761	7	Sololá	719	Santiago Atitlán	14	Cerro de Oro	10	Octubre	2023-10-17T00:00:00	2024-11-08T08:00:00	2	Temperatura media	20.6
178762	7	Sololá	719	Santiago Atitlán	14	Cerro de Oro	10	Octubre	2023-10-17T00:00:00	2024-11-08T08:00:00	4	Temperatura máxima	20.7
178763	7	Sololá	719	Santiago Atitlán	14	Cerro de Oro	10	Octubre	2023-10-17T00:00:00	2024-11-08T08:00:00	3	Temperatura mínima	19.7
178764	7	Sololá	719	Santiago Atitlán	14	Cerro de Oro	10	Octubre	2023-10-17T00:00:00	2024-11-08T08:00:00	5	Humedad	66
178765	7	Sololá	719	Santiago Atitlán	14	Cerro de Oro	10	Octubre	2023-10-17T00:00:00	2024-11-08T08:00:00	6	Velocidad del viento	6.4
178766	7	Sololá	719	Santiago Atitlán	14	Cerro de Oro	10	Octubre	2023-10-17T00:00:00	2024-11-08T08:00:00	7	Dirección del viento	6.44
178767	7	Sololá	719	Santiago Atitlán	14	Cerro de Oro	10	Octubre	2023-10-17T00:00:00	2024-11-08T08:00:00	1	Precipitación	0
178768	7	Sololá	719	Santiago Atitlán	14	Cerro de Oro	10	Octubre	2023-10-17T00:00:00	2024-11-08T08:00:00	8	Radiación solar	257
178769	7	Sololá	719	Santiago Atitlán	14	Cerro de Oro	10	Octubre	2023-10-17T00:00:00	2024-11-08T09:00:00	2	Temperatura media	20.8
178770	7	Sololá	719	Santiago Atitlán	14	Cerro de Oro	10	Octubre	2023-10-17T00:00:00	2024-11-08T09:00:00	4	Temperatura máxima	20.8
178771	7	Sololá	719	Santiago Atitlán	14	Cerro de Oro	10	Octubre	2023-10-17T00:00:00	2024-11-08T09:00:00	3	Temperatura mínima	20.3
178772	7	Sololá	719	Santiago Atitlán	14	Cerro de Oro	10	Octubre	2023-10-17T00:00:00	2024-11-08T09:00:00	5	Humedad	65
178773	7	Sololá	719	Santiago Atitlán	14	Cerro de Oro	10	Octubre	2023-10-17T00:00:00	2024-11-08T09:00:00	6	Velocidad del viento	9.7
178774	7	Sololá	719	Santiago Atitlán	14	Cerro de Oro	10	Octubre	2023-10-17T00:00:00	2024-11-08T09:00:00	7	Dirección del viento	9.66
178775	7	Sololá	719	Santiago Atitlán	14	Cerro de Oro	10	Octubre	2023-10-17T00:00:00	2024-11-08T09:00:00	1	Precipitación	0
178776	7	Sololá	719	Santiago Atitlán	14	Cerro de Oro	10	Octubre	2023-10-17T00:00:00	2024-11-08T09:00:00	8	Radiación solar	303
178777	7	Sololá	719	Santiago Atitlán	14	Cerro de Oro	10	Octubre	2023-10-17T00:00:00	2024-11-08T10:00:00	2	Temperatura media	21.6
178778	7	Sololá	719	Santiago Atitlán	14	Cerro de Oro	10	Octubre	2023-10-17T00:00:00	2024-11-08T10:00:00	4	Temperatura máxima	21.6
178779	7	Sololá	719	Santiago Atitlán	14	Cerro de Oro	10	Octubre	2023-10-17T00:00:00	2024-11-08T10:00:00	3	Temperatura mínima	20.7
178780	7	Sololá	719	Santiago Atitlán	14	Cerro de Oro	10	Octubre	2023-10-17T00:00:00	2024-11-08T10:00:00	5	Humedad	64
178781	7	Sololá	719	Santiago Atitlán	14	Cerro de Oro	10	Octubre	2023-10-17T00:00:00	2024-11-08T10:00:00	6	Velocidad del viento	9.7
178782	7	Sololá	719	Santiago Atitlán	14	Cerro de Oro	10	Octubre	2023-10-17T00:00:00	2024-11-08T10:00:00	7	Dirección del viento	9.66
178783	7	Sololá	719	Santiago Atitlán	14	Cerro de Oro	10	Octubre	2023-10-17T00:00:00	2024-11-08T10:00:00	1	Precipitación	0
178784	7	Sololá	719	Santiago Atitlán	14	Cerro de Oro	10	Octubre	2023-10-17T00:00:00	2024-11-08T10:00:00	8	Radiación solar	359
178785	7	Sololá	719	Santiago Atitlán	14	Cerro de Oro	10	Octubre	2023-10-17T00:00:00	2024-11-08T11:00:00	2	Temperatura media	21.9
178786	7	Sololá	719	Santiago Atitlán	14	Cerro de Oro	10	Octubre	2023-10-17T00:00:00	2024-11-08T11:00:00	4	Temperatura máxima	21.9
178787	7	Sololá	719	Santiago Atitlán	14	Cerro de Oro	10	Octubre	2023-10-17T00:00:00	2024-11-08T11:00:00	3	Temperatura mínima	21.4
178788	7	Sololá	719	Santiago Atitlán	14	Cerro de Oro	10	Octubre	2023-10-17T00:00:00	2024-11-08T11:00:00	5	Humedad	64
178789	7	Sololá	719	Santiago Atitlán	14	Cerro de Oro	10	Octubre	2023-10-17T00:00:00	2024-11-08T11:00:00	6	Velocidad del viento	9.7
178790	7	Sololá	719	Santiago Atitlán	14	Cerro de Oro	10	Octubre	2023-10-17T00:00:00	2024-11-08T11:00:00	7	Dirección del viento	9.66
178791	7	Sololá	719	Santiago Atitlán	14	Cerro de Oro	10	Octubre	2023-10-17T00:00:00	2024-11-08T11:00:00	1	Precipitación	0
178792	7	Sololá	719	Santiago Atitlán	14	Cerro de Oro	10	Octubre	2023-10-17T00:00:00	2024-11-08T11:00:00	8	Radiación solar	353
178793	7	Sololá	719	Santiago Atitlán	14	Cerro de Oro	10	Octubre	2023-10-17T00:00:00	2024-11-08T12:00:00	2	Temperatura media	21.8
178794	7	Sololá	719	Santiago Atitlán	14	Cerro de Oro	10	Octubre	2023-10-17T00:00:00	2024-11-08T12:00:00	4	Temperatura máxima	23.1
178795	7	Sololá	719	Santiago Atitlán	14	Cerro de Oro	10	Octubre	2023-10-17T00:00:00	2024-11-08T12:00:00	3	Temperatura mínima	21.8
178796	7	Sololá	719	Santiago Atitlán	14	Cerro de Oro	10	Octubre	2023-10-17T00:00:00	2024-11-08T12:00:00	5	Humedad	64
178797	7	Sololá	719	Santiago Atitlán	14	Cerro de Oro	10	Octubre	2023-10-17T00:00:00	2024-11-08T12:00:00	6	Velocidad del viento	9.7
178798	7	Sololá	719	Santiago Atitlán	14	Cerro de Oro	10	Octubre	2023-10-17T00:00:00	2024-11-08T12:00:00	7	Dirección del viento	9.66
178799	7	Sololá	719	Santiago Atitlán	14	Cerro de Oro	10	Octubre	2023-10-17T00:00:00	2024-11-08T12:00:00	1	Precipitación	0
178800	7	Sololá	719	Santiago Atitlán	14	Cerro de Oro	10	Octubre	2023-10-17T00:00:00	2024-11-08T12:00:00	8	Radiación solar	520
178801	7	Sololá	719	Santiago Atitlán	14	Cerro de Oro	10	Octubre	2023-10-17T00:00:00	2024-11-08T13:00:00	2	Temperatura media	22.4
178802	7	Sololá	719	Santiago Atitlán	14	Cerro de Oro	10	Octubre	2023-10-17T00:00:00	2024-11-08T13:00:00	4	Temperatura máxima	22.4
178803	7	Sololá	719	Santiago Atitlán	14	Cerro de Oro	10	Octubre	2023-10-17T00:00:00	2024-11-08T13:00:00	3	Temperatura mínima	21.6
178804	7	Sololá	719	Santiago Atitlán	14	Cerro de Oro	10	Octubre	2023-10-17T00:00:00	2024-11-08T13:00:00	5	Humedad	65
178805	7	Sololá	719	Santiago Atitlán	14	Cerro de Oro	10	Octubre	2023-10-17T00:00:00	2024-11-08T13:00:00	6	Velocidad del viento	8
178806	7	Sololá	719	Santiago Atitlán	14	Cerro de Oro	10	Octubre	2023-10-17T00:00:00	2024-11-08T13:00:00	7	Dirección del viento	8.05
178807	7	Sololá	719	Santiago Atitlán	14	Cerro de Oro	10	Octubre	2023-10-17T00:00:00	2024-11-08T13:00:00	1	Precipitación	0
178808	7	Sololá	719	Santiago Atitlán	14	Cerro de Oro	10	Octubre	2023-10-17T00:00:00	2024-11-08T13:00:00	8	Radiación solar	245
178809	7	Sololá	719	Santiago Atitlán	14	Cerro de Oro	10	Octubre	2023-10-17T00:00:00	2024-11-08T14:00:00	2	Temperatura media	23.4
178810	7	Sololá	719	Santiago Atitlán	14	Cerro de Oro	10	Octubre	2023-10-17T00:00:00	2024-11-08T14:00:00	4	Temperatura máxima	23.9
178811	7	Sololá	719	Santiago Atitlán	14	Cerro de Oro	10	Octubre	2023-10-17T00:00:00	2024-11-08T14:00:00	3	Temperatura mínima	22.4
178812	7	Sololá	719	Santiago Atitlán	14	Cerro de Oro	10	Octubre	2023-10-17T00:00:00	2024-11-08T14:00:00	5	Humedad	61
178813	7	Sololá	719	Santiago Atitlán	14	Cerro de Oro	10	Octubre	2023-10-17T00:00:00	2024-11-08T14:00:00	6	Velocidad del viento	9.7
178814	7	Sololá	719	Santiago Atitlán	14	Cerro de Oro	10	Octubre	2023-10-17T00:00:00	2024-11-08T14:00:00	7	Dirección del viento	9.66
178815	7	Sololá	719	Santiago Atitlán	14	Cerro de Oro	10	Octubre	2023-10-17T00:00:00	2024-11-08T14:00:00	1	Precipitación	0
178816	7	Sololá	719	Santiago Atitlán	14	Cerro de Oro	10	Octubre	2023-10-17T00:00:00	2024-11-08T14:00:00	8	Radiación solar	608
178817	7	Sololá	719	Santiago Atitlán	14	Cerro de Oro	10	Octubre	2023-10-17T00:00:00	2024-11-08T15:00:00	2	Temperatura media	22
178818	7	Sololá	719	Santiago Atitlán	14	Cerro de Oro	10	Octubre	2023-10-17T00:00:00	2024-11-08T15:00:00	4	Temperatura máxima	23.4
178819	7	Sololá	719	Santiago Atitlán	14	Cerro de Oro	10	Octubre	2023-10-17T00:00:00	2024-11-08T15:00:00	3	Temperatura mínima	21.9
178820	7	Sololá	719	Santiago Atitlán	14	Cerro de Oro	10	Octubre	2023-10-17T00:00:00	2024-11-08T15:00:00	5	Humedad	66
178821	7	Sololá	719	Santiago Atitlán	14	Cerro de Oro	10	Octubre	2023-10-17T00:00:00	2024-11-08T15:00:00	6	Velocidad del viento	9.7
178822	7	Sololá	719	Santiago Atitlán	14	Cerro de Oro	10	Octubre	2023-10-17T00:00:00	2024-11-08T15:00:00	7	Dirección del viento	9.66
178823	7	Sololá	719	Santiago Atitlán	14	Cerro de Oro	10	Octubre	2023-10-17T00:00:00	2024-11-08T15:00:00	1	Precipitación	0
178824	7	Sololá	719	Santiago Atitlán	14	Cerro de Oro	10	Octubre	2023-10-17T00:00:00	2024-11-08T15:00:00	8	Radiación solar	205
178825	7	Sololá	719	Santiago Atitlán	14	Cerro de Oro	10	Octubre	2023-10-17T00:00:00	2024-11-08T16:00:00	2	Temperatura media	22
178826	7	Sololá	719	Santiago Atitlán	14	Cerro de Oro	10	Octubre	2023-10-17T00:00:00	2024-11-08T16:00:00	4	Temperatura máxima	22.3
178827	7	Sololá	719	Santiago Atitlán	14	Cerro de Oro	10	Octubre	2023-10-17T00:00:00	2024-11-08T16:00:00	3	Temperatura mínima	22
178828	7	Sololá	719	Santiago Atitlán	14	Cerro de Oro	10	Octubre	2023-10-17T00:00:00	2024-11-08T16:00:00	5	Humedad	66
178829	7	Sololá	719	Santiago Atitlán	14	Cerro de Oro	10	Octubre	2023-10-17T00:00:00	2024-11-08T16:00:00	6	Velocidad del viento	11.3
178830	7	Sololá	719	Santiago Atitlán	14	Cerro de Oro	10	Octubre	2023-10-17T00:00:00	2024-11-08T16:00:00	7	Dirección del viento	11.27
178831	7	Sololá	719	Santiago Atitlán	14	Cerro de Oro	10	Octubre	2023-10-17T00:00:00	2024-11-08T16:00:00	1	Precipitación	0
178832	7	Sololá	719	Santiago Atitlán	14	Cerro de Oro	10	Octubre	2023-10-17T00:00:00	2024-11-08T16:00:00	8	Radiación solar	224
178833	7	Sololá	719	Santiago Atitlán	14	Cerro de Oro	10	Octubre	2023-10-17T00:00:00	2024-11-08T17:00:00	2	Temperatura media	20.9
178834	7	Sololá	719	Santiago Atitlán	14	Cerro de Oro	10	Octubre	2023-10-17T00:00:00	2024-11-08T17:00:00	4	Temperatura máxima	22.1
178835	7	Sololá	719	Santiago Atitlán	14	Cerro de Oro	10	Octubre	2023-10-17T00:00:00	2024-11-08T17:00:00	3	Temperatura mínima	20.9
178836	7	Sololá	719	Santiago Atitlán	14	Cerro de Oro	10	Octubre	2023-10-17T00:00:00	2024-11-08T17:00:00	5	Humedad	70
178837	7	Sololá	719	Santiago Atitlán	14	Cerro de Oro	10	Octubre	2023-10-17T00:00:00	2024-11-08T17:00:00	6	Velocidad del viento	11.3
178838	7	Sololá	719	Santiago Atitlán	14	Cerro de Oro	10	Octubre	2023-10-17T00:00:00	2024-11-08T17:00:00	7	Dirección del viento	11.27
178839	7	Sololá	719	Santiago Atitlán	14	Cerro de Oro	10	Octubre	2023-10-17T00:00:00	2024-11-08T17:00:00	1	Precipitación	0
178840	7	Sololá	719	Santiago Atitlán	14	Cerro de Oro	10	Octubre	2023-10-17T00:00:00	2024-11-08T17:00:00	8	Radiación solar	163
178841	7	Sololá	719	Santiago Atitlán	14	Cerro de Oro	10	Octubre	2023-10-17T00:00:00	2024-11-08T18:00:00	2	Temperatura media	19.7
178842	7	Sololá	719	Santiago Atitlán	14	Cerro de Oro	10	Octubre	2023-10-17T00:00:00	2024-11-08T18:00:00	4	Temperatura máxima	20.9
178843	7	Sololá	719	Santiago Atitlán	14	Cerro de Oro	10	Octubre	2023-10-17T00:00:00	2024-11-08T18:00:00	3	Temperatura mínima	19.7
178844	7	Sololá	719	Santiago Atitlán	14	Cerro de Oro	10	Octubre	2023-10-17T00:00:00	2024-11-08T18:00:00	5	Humedad	73
178845	7	Sololá	719	Santiago Atitlán	14	Cerro de Oro	10	Octubre	2023-10-17T00:00:00	2024-11-08T18:00:00	6	Velocidad del viento	12.9
178846	7	Sololá	719	Santiago Atitlán	14	Cerro de Oro	10	Octubre	2023-10-17T00:00:00	2024-11-08T18:00:00	7	Dirección del viento	12.87
178847	7	Sololá	719	Santiago Atitlán	14	Cerro de Oro	10	Octubre	2023-10-17T00:00:00	2024-11-08T18:00:00	1	Precipitación	0
178848	7	Sololá	719	Santiago Atitlán	14	Cerro de Oro	10	Octubre	2023-10-17T00:00:00	2024-11-08T18:00:00	8	Radiación solar	19
178849	7	Sololá	719	Santiago Atitlán	14	Cerro de Oro	10	Octubre	2023-10-17T00:00:00	2024-11-08T19:00:00	2	Temperatura media	19.3
178850	7	Sololá	719	Santiago Atitlán	14	Cerro de Oro	10	Octubre	2023-10-17T00:00:00	2024-11-08T19:00:00	4	Temperatura máxima	19.7
178851	7	Sololá	719	Santiago Atitlán	14	Cerro de Oro	10	Octubre	2023-10-17T00:00:00	2024-11-08T19:00:00	3	Temperatura mínima	19.3
178852	7	Sololá	719	Santiago Atitlán	14	Cerro de Oro	10	Octubre	2023-10-17T00:00:00	2024-11-08T19:00:00	5	Humedad	74
178853	7	Sololá	719	Santiago Atitlán	14	Cerro de Oro	10	Octubre	2023-10-17T00:00:00	2024-11-08T19:00:00	6	Velocidad del viento	14.5
178854	7	Sololá	719	Santiago Atitlán	14	Cerro de Oro	10	Octubre	2023-10-17T00:00:00	2024-11-08T19:00:00	7	Dirección del viento	14.48
178855	7	Sololá	719	Santiago Atitlán	14	Cerro de Oro	10	Octubre	2023-10-17T00:00:00	2024-11-08T19:00:00	1	Precipitación	0
178856	7	Sololá	719	Santiago Atitlán	14	Cerro de Oro	10	Octubre	2023-10-17T00:00:00	2024-11-08T19:00:00	8	Radiación solar	0
178857	7	Sololá	719	Santiago Atitlán	14	Cerro de Oro	10	Octubre	2023-10-17T00:00:00	2024-11-08T20:00:00	2	Temperatura media	19.2
178858	7	Sololá	719	Santiago Atitlán	14	Cerro de Oro	10	Octubre	2023-10-17T00:00:00	2024-11-08T20:00:00	4	Temperatura máxima	19.4
178859	7	Sololá	719	Santiago Atitlán	14	Cerro de Oro	10	Octubre	2023-10-17T00:00:00	2024-11-08T20:00:00	3	Temperatura mínima	19.1
178860	7	Sololá	719	Santiago Atitlán	14	Cerro de Oro	10	Octubre	2023-10-17T00:00:00	2024-11-08T20:00:00	5	Humedad	74
178861	7	Sololá	719	Santiago Atitlán	14	Cerro de Oro	10	Octubre	2023-10-17T00:00:00	2024-11-08T20:00:00	6	Velocidad del viento	8
178862	7	Sololá	719	Santiago Atitlán	14	Cerro de Oro	10	Octubre	2023-10-17T00:00:00	2024-11-08T20:00:00	7	Dirección del viento	8.05
178863	7	Sololá	719	Santiago Atitlán	14	Cerro de Oro	10	Octubre	2023-10-17T00:00:00	2024-11-08T20:00:00	1	Precipitación	0
178864	7	Sololá	719	Santiago Atitlán	14	Cerro de Oro	10	Octubre	2023-10-17T00:00:00	2024-11-08T20:00:00	8	Radiación solar	0
178865	7	Sololá	719	Santiago Atitlán	14	Cerro de Oro	10	Octubre	2023-10-17T00:00:00	2024-11-08T21:00:00	2	Temperatura media	18.6
178866	7	Sololá	719	Santiago Atitlán	14	Cerro de Oro	10	Octubre	2023-10-17T00:00:00	2024-11-08T21:00:00	4	Temperatura máxima	19.3
178867	7	Sololá	719	Santiago Atitlán	14	Cerro de Oro	10	Octubre	2023-10-17T00:00:00	2024-11-08T21:00:00	3	Temperatura mínima	18.6
178868	7	Sololá	719	Santiago Atitlán	14	Cerro de Oro	10	Octubre	2023-10-17T00:00:00	2024-11-08T21:00:00	5	Humedad	76
178869	7	Sololá	719	Santiago Atitlán	14	Cerro de Oro	10	Octubre	2023-10-17T00:00:00	2024-11-08T21:00:00	6	Velocidad del viento	8
178870	7	Sololá	719	Santiago Atitlán	14	Cerro de Oro	10	Octubre	2023-10-17T00:00:00	2024-11-08T21:00:00	7	Dirección del viento	8.05
178871	7	Sololá	719	Santiago Atitlán	14	Cerro de Oro	10	Octubre	2023-10-17T00:00:00	2024-11-08T21:00:00	1	Precipitación	0
178872	7	Sololá	719	Santiago Atitlán	14	Cerro de Oro	10	Octubre	2023-10-17T00:00:00	2024-11-08T21:00:00	8	Radiación solar	0
178873	7	Sololá	719	Santiago Atitlán	14	Cerro de Oro	10	Octubre	2023-10-17T00:00:00	2024-11-08T22:00:00	2	Temperatura media	18.4
178874	7	Sololá	719	Santiago Atitlán	14	Cerro de Oro	10	Octubre	2023-10-17T00:00:00	2024-11-08T22:00:00	4	Temperatura máxima	18.6
178875	7	Sololá	719	Santiago Atitlán	14	Cerro de Oro	10	Octubre	2023-10-17T00:00:00	2024-11-08T22:00:00	3	Temperatura mínima	18.4
178876	7	Sololá	719	Santiago Atitlán	14	Cerro de Oro	10	Octubre	2023-10-17T00:00:00	2024-11-08T22:00:00	5	Humedad	75
178877	7	Sololá	719	Santiago Atitlán	14	Cerro de Oro	10	Octubre	2023-10-17T00:00:00	2024-11-08T22:00:00	6	Velocidad del viento	11.3
178878	7	Sololá	719	Santiago Atitlán	14	Cerro de Oro	10	Octubre	2023-10-17T00:00:00	2024-11-08T22:00:00	7	Dirección del viento	11.27
178879	7	Sololá	719	Santiago Atitlán	14	Cerro de Oro	10	Octubre	2023-10-17T00:00:00	2024-11-08T22:00:00	1	Precipitación	0
178880	7	Sololá	719	Santiago Atitlán	14	Cerro de Oro	10	Octubre	2023-10-17T00:00:00	2024-11-08T22:00:00	8	Radiación solar	0
178881	7	Sololá	719	Santiago Atitlán	14	Cerro de Oro	10	Octubre	2023-10-17T00:00:00	2024-11-08T23:00:00	2	Temperatura media	18.2
178882	7	Sololá	719	Santiago Atitlán	14	Cerro de Oro	10	Octubre	2023-10-17T00:00:00	2024-11-08T23:00:00	4	Temperatura máxima	18.4
178883	7	Sololá	719	Santiago Atitlán	14	Cerro de Oro	10	Octubre	2023-10-17T00:00:00	2024-11-08T23:00:00	3	Temperatura mínima	18.2
178884	7	Sololá	719	Santiago Atitlán	14	Cerro de Oro	10	Octubre	2023-10-17T00:00:00	2024-11-08T23:00:00	5	Humedad	75
178885	7	Sololá	719	Santiago Atitlán	14	Cerro de Oro	10	Octubre	2023-10-17T00:00:00	2024-11-08T23:00:00	6	Velocidad del viento	8
178886	7	Sololá	719	Santiago Atitlán	14	Cerro de Oro	10	Octubre	2023-10-17T00:00:00	2024-11-08T23:00:00	7	Dirección del viento	8.05
178887	7	Sololá	719	Santiago Atitlán	14	Cerro de Oro	10	Octubre	2023-10-17T00:00:00	2024-11-08T23:00:00	1	Precipitación	0
178888	7	Sololá	719	Santiago Atitlán	14	Cerro de Oro	10	Octubre	2023-10-17T00:00:00	2024-11-08T23:00:00	8	Radiación solar	0
178889	7	Sololá	719	Santiago Atitlán	14	Cerro de Oro	10	Octubre	2023-10-18T00:00:00	2024-11-08T00:00:00	2	Temperatura media	18
178890	7	Sololá	719	Santiago Atitlán	14	Cerro de Oro	10	Octubre	2023-10-18T00:00:00	2024-11-08T00:00:00	4	Temperatura máxima	18.2
178891	7	Sololá	719	Santiago Atitlán	14	Cerro de Oro	10	Octubre	2023-10-18T00:00:00	2024-11-08T00:00:00	3	Temperatura mínima	17.9
178892	7	Sololá	719	Santiago Atitlán	14	Cerro de Oro	10	Octubre	2023-10-18T00:00:00	2024-11-08T00:00:00	5	Humedad	75
178893	7	Sololá	719	Santiago Atitlán	14	Cerro de Oro	10	Octubre	2023-10-18T00:00:00	2024-11-08T00:00:00	6	Velocidad del viento	3.2
178894	7	Sololá	719	Santiago Atitlán	14	Cerro de Oro	10	Octubre	2023-10-18T00:00:00	2024-11-08T00:00:00	7	Dirección del viento	3.22
178895	7	Sololá	719	Santiago Atitlán	14	Cerro de Oro	10	Octubre	2023-10-18T00:00:00	2024-11-08T00:00:00	1	Precipitación	0
178896	7	Sololá	719	Santiago Atitlán	14	Cerro de Oro	10	Octubre	2023-10-18T00:00:00	2024-11-08T00:00:00	8	Radiación solar	0
178897	7	Sololá	719	Santiago Atitlán	14	Cerro de Oro	10	Octubre	2023-10-18T00:00:00	2024-11-08T01:00:00	2	Temperatura media	17.7
178898	7	Sololá	719	Santiago Atitlán	14	Cerro de Oro	10	Octubre	2023-10-18T00:00:00	2024-11-08T01:00:00	4	Temperatura máxima	18.1
178899	7	Sololá	719	Santiago Atitlán	14	Cerro de Oro	10	Octubre	2023-10-18T00:00:00	2024-11-08T01:00:00	3	Temperatura mínima	17.7
178900	7	Sololá	719	Santiago Atitlán	14	Cerro de Oro	10	Octubre	2023-10-18T00:00:00	2024-11-08T01:00:00	5	Humedad	76
178901	7	Sololá	719	Santiago Atitlán	14	Cerro de Oro	10	Octubre	2023-10-18T00:00:00	2024-11-08T01:00:00	6	Velocidad del viento	1.6
178902	7	Sololá	719	Santiago Atitlán	14	Cerro de Oro	10	Octubre	2023-10-18T00:00:00	2024-11-08T01:00:00	7	Dirección del viento	1.61
178903	7	Sololá	719	Santiago Atitlán	14	Cerro de Oro	10	Octubre	2023-10-18T00:00:00	2024-11-08T01:00:00	1	Precipitación	0
178904	7	Sololá	719	Santiago Atitlán	14	Cerro de Oro	10	Octubre	2023-10-18T00:00:00	2024-11-08T01:00:00	8	Radiación solar	0
178905	7	Sololá	719	Santiago Atitlán	14	Cerro de Oro	10	Octubre	2023-10-18T00:00:00	2024-11-08T02:00:00	2	Temperatura media	17.8
178906	7	Sololá	719	Santiago Atitlán	14	Cerro de Oro	10	Octubre	2023-10-18T00:00:00	2024-11-08T02:00:00	4	Temperatura máxima	18.1
178907	7	Sololá	719	Santiago Atitlán	14	Cerro de Oro	10	Octubre	2023-10-18T00:00:00	2024-11-08T02:00:00	3	Temperatura mínima	17.7
178908	7	Sololá	719	Santiago Atitlán	14	Cerro de Oro	10	Octubre	2023-10-18T00:00:00	2024-11-08T02:00:00	5	Humedad	75
178909	7	Sololá	719	Santiago Atitlán	14	Cerro de Oro	10	Octubre	2023-10-18T00:00:00	2024-11-08T02:00:00	6	Velocidad del viento	1.6
178910	7	Sololá	719	Santiago Atitlán	14	Cerro de Oro	10	Octubre	2023-10-18T00:00:00	2024-11-08T02:00:00	7	Dirección del viento	1.61
178911	7	Sololá	719	Santiago Atitlán	14	Cerro de Oro	10	Octubre	2023-10-18T00:00:00	2024-11-08T02:00:00	1	Precipitación	0
178912	7	Sololá	719	Santiago Atitlán	14	Cerro de Oro	10	Octubre	2023-10-18T00:00:00	2024-11-08T02:00:00	8	Radiación solar	0
178913	7	Sololá	719	Santiago Atitlán	14	Cerro de Oro	10	Octubre	2023-10-18T00:00:00	2024-11-08T03:00:00	2	Temperatura media	17.5
178914	7	Sololá	719	Santiago Atitlán	14	Cerro de Oro	10	Octubre	2023-10-18T00:00:00	2024-11-08T03:00:00	4	Temperatura máxima	17.9
178915	7	Sololá	719	Santiago Atitlán	14	Cerro de Oro	10	Octubre	2023-10-18T00:00:00	2024-11-08T03:00:00	3	Temperatura mínima	17.4
178916	7	Sololá	719	Santiago Atitlán	14	Cerro de Oro	10	Octubre	2023-10-18T00:00:00	2024-11-08T03:00:00	5	Humedad	75
178917	7	Sololá	719	Santiago Atitlán	14	Cerro de Oro	10	Octubre	2023-10-18T00:00:00	2024-11-08T03:00:00	6	Velocidad del viento	1.6
178918	7	Sololá	719	Santiago Atitlán	14	Cerro de Oro	10	Octubre	2023-10-18T00:00:00	2024-11-08T03:00:00	7	Dirección del viento	1.61
178919	7	Sololá	719	Santiago Atitlán	14	Cerro de Oro	10	Octubre	2023-10-18T00:00:00	2024-11-08T03:00:00	1	Precipitación	0
178920	7	Sololá	719	Santiago Atitlán	14	Cerro de Oro	10	Octubre	2023-10-18T00:00:00	2024-11-08T03:00:00	8	Radiación solar	0
178921	7	Sololá	719	Santiago Atitlán	14	Cerro de Oro	10	Octubre	2023-10-18T00:00:00	2024-11-08T04:00:00	2	Temperatura media	17.8
178922	7	Sololá	719	Santiago Atitlán	14	Cerro de Oro	10	Octubre	2023-10-18T00:00:00	2024-11-08T04:00:00	4	Temperatura máxima	17.9
178923	7	Sololá	719	Santiago Atitlán	14	Cerro de Oro	10	Octubre	2023-10-18T00:00:00	2024-11-08T04:00:00	3	Temperatura mínima	17.5
178924	7	Sololá	719	Santiago Atitlán	14	Cerro de Oro	10	Octubre	2023-10-18T00:00:00	2024-11-08T04:00:00	5	Humedad	72
178925	7	Sololá	719	Santiago Atitlán	14	Cerro de Oro	10	Octubre	2023-10-18T00:00:00	2024-11-08T04:00:00	6	Velocidad del viento	3.2
178926	7	Sololá	719	Santiago Atitlán	14	Cerro de Oro	10	Octubre	2023-10-18T00:00:00	2024-11-08T04:00:00	7	Dirección del viento	3.22
178927	7	Sololá	719	Santiago Atitlán	14	Cerro de Oro	10	Octubre	2023-10-18T00:00:00	2024-11-08T04:00:00	1	Precipitación	0
178928	7	Sololá	719	Santiago Atitlán	14	Cerro de Oro	10	Octubre	2023-10-18T00:00:00	2024-11-08T04:00:00	8	Radiación solar	0
178929	7	Sololá	719	Santiago Atitlán	14	Cerro de Oro	10	Octubre	2023-10-18T00:00:00	2024-11-08T05:00:00	2	Temperatura media	17.3
178930	7	Sololá	719	Santiago Atitlán	14	Cerro de Oro	10	Octubre	2023-10-18T00:00:00	2024-11-08T05:00:00	4	Temperatura máxima	17.9
178931	7	Sololá	719	Santiago Atitlán	14	Cerro de Oro	10	Octubre	2023-10-18T00:00:00	2024-11-08T05:00:00	3	Temperatura mínima	16.9
178932	7	Sololá	719	Santiago Atitlán	14	Cerro de Oro	10	Octubre	2023-10-18T00:00:00	2024-11-08T05:00:00	5	Humedad	73
178933	7	Sololá	719	Santiago Atitlán	14	Cerro de Oro	10	Octubre	2023-10-18T00:00:00	2024-11-08T05:00:00	6	Velocidad del viento	0
178934	7	Sololá	719	Santiago Atitlán	14	Cerro de Oro	10	Octubre	2023-10-18T00:00:00	2024-11-08T05:00:00	7	Dirección del viento	0
178935	7	Sololá	719	Santiago Atitlán	14	Cerro de Oro	10	Octubre	2023-10-18T00:00:00	2024-11-08T05:00:00	1	Precipitación	0
178936	7	Sololá	719	Santiago Atitlán	14	Cerro de Oro	10	Octubre	2023-10-18T00:00:00	2024-11-08T05:00:00	8	Radiación solar	0
178937	7	Sololá	719	Santiago Atitlán	14	Cerro de Oro	10	Octubre	2023-10-18T00:00:00	2024-11-08T06:00:00	2	Temperatura media	16.6
178938	7	Sololá	719	Santiago Atitlán	14	Cerro de Oro	10	Octubre	2023-10-18T00:00:00	2024-11-08T06:00:00	4	Temperatura máxima	17.3
178939	7	Sololá	719	Santiago Atitlán	14	Cerro de Oro	10	Octubre	2023-10-18T00:00:00	2024-11-08T06:00:00	3	Temperatura mínima	16.6
178940	7	Sololá	719	Santiago Atitlán	14	Cerro de Oro	10	Octubre	2023-10-18T00:00:00	2024-11-08T06:00:00	5	Humedad	77
178941	7	Sololá	719	Santiago Atitlán	14	Cerro de Oro	10	Octubre	2023-10-18T00:00:00	2024-11-08T06:00:00	6	Velocidad del viento	1.6
178942	7	Sololá	719	Santiago Atitlán	14	Cerro de Oro	10	Octubre	2023-10-18T00:00:00	2024-11-08T06:00:00	7	Dirección del viento	1.61
178943	7	Sololá	719	Santiago Atitlán	14	Cerro de Oro	10	Octubre	2023-10-18T00:00:00	2024-11-08T06:00:00	1	Precipitación	0
178944	7	Sololá	719	Santiago Atitlán	14	Cerro de Oro	10	Octubre	2023-10-18T00:00:00	2024-11-08T06:00:00	8	Radiación solar	0
178945	7	Sololá	719	Santiago Atitlán	14	Cerro de Oro	10	Octubre	2023-10-18T00:00:00	2024-11-08T07:00:00	2	Temperatura media	18.2
178946	7	Sololá	719	Santiago Atitlán	14	Cerro de Oro	10	Octubre	2023-10-18T00:00:00	2024-11-08T07:00:00	4	Temperatura máxima	18.2
178947	7	Sololá	719	Santiago Atitlán	14	Cerro de Oro	10	Octubre	2023-10-18T00:00:00	2024-11-08T07:00:00	3	Temperatura mínima	16.6
178948	7	Sololá	719	Santiago Atitlán	14	Cerro de Oro	10	Octubre	2023-10-18T00:00:00	2024-11-08T07:00:00	5	Humedad	73
178949	7	Sololá	719	Santiago Atitlán	14	Cerro de Oro	10	Octubre	2023-10-18T00:00:00	2024-11-08T07:00:00	6	Velocidad del viento	1.6
178950	7	Sololá	719	Santiago Atitlán	14	Cerro de Oro	10	Octubre	2023-10-18T00:00:00	2024-11-08T07:00:00	7	Dirección del viento	1.61
178951	7	Sololá	719	Santiago Atitlán	14	Cerro de Oro	10	Octubre	2023-10-18T00:00:00	2024-11-08T07:00:00	1	Precipitación	0
178952	7	Sololá	719	Santiago Atitlán	14	Cerro de Oro	10	Octubre	2023-10-18T00:00:00	2024-11-08T07:00:00	8	Radiación solar	61
178953	7	Sololá	719	Santiago Atitlán	14	Cerro de Oro	10	Octubre	2023-10-18T00:00:00	2024-11-08T08:00:00	2	Temperatura media	20.6
178954	7	Sololá	719	Santiago Atitlán	14	Cerro de Oro	10	Octubre	2023-10-18T00:00:00	2024-11-08T08:00:00	4	Temperatura máxima	20.6
178955	7	Sololá	719	Santiago Atitlán	14	Cerro de Oro	10	Octubre	2023-10-18T00:00:00	2024-11-08T08:00:00	3	Temperatura mínima	18.2
178956	7	Sololá	719	Santiago Atitlán	14	Cerro de Oro	10	Octubre	2023-10-18T00:00:00	2024-11-08T08:00:00	5	Humedad	75
178957	7	Sololá	719	Santiago Atitlán	14	Cerro de Oro	10	Octubre	2023-10-18T00:00:00	2024-11-08T08:00:00	6	Velocidad del viento	0
178958	7	Sololá	719	Santiago Atitlán	14	Cerro de Oro	10	Octubre	2023-10-18T00:00:00	2024-11-08T08:00:00	7	Dirección del viento	0
178959	7	Sololá	719	Santiago Atitlán	14	Cerro de Oro	10	Octubre	2023-10-18T00:00:00	2024-11-08T08:00:00	1	Precipitación	0
178960	7	Sololá	719	Santiago Atitlán	14	Cerro de Oro	10	Octubre	2023-10-18T00:00:00	2024-11-08T08:00:00	8	Radiación solar	316
178961	7	Sololá	719	Santiago Atitlán	14	Cerro de Oro	10	Octubre	2023-10-18T00:00:00	2024-11-08T09:00:00	2	Temperatura media	20.3
178962	7	Sololá	719	Santiago Atitlán	14	Cerro de Oro	10	Octubre	2023-10-18T00:00:00	2024-11-08T09:00:00	4	Temperatura máxima	21.3
178963	7	Sololá	719	Santiago Atitlán	14	Cerro de Oro	10	Octubre	2023-10-18T00:00:00	2024-11-08T09:00:00	3	Temperatura mínima	20.2
178964	7	Sololá	719	Santiago Atitlán	14	Cerro de Oro	10	Octubre	2023-10-18T00:00:00	2024-11-08T09:00:00	5	Humedad	75
178965	7	Sololá	719	Santiago Atitlán	14	Cerro de Oro	10	Octubre	2023-10-18T00:00:00	2024-11-08T09:00:00	6	Velocidad del viento	0
178966	7	Sololá	719	Santiago Atitlán	14	Cerro de Oro	10	Octubre	2023-10-18T00:00:00	2024-11-08T09:00:00	7	Dirección del viento	0
178967	7	Sololá	719	Santiago Atitlán	14	Cerro de Oro	10	Octubre	2023-10-18T00:00:00	2024-11-08T09:00:00	1	Precipitación	0
178968	7	Sololá	719	Santiago Atitlán	14	Cerro de Oro	10	Octubre	2023-10-18T00:00:00	2024-11-08T09:00:00	8	Radiación solar	488
178969	7	Sololá	719	Santiago Atitlán	14	Cerro de Oro	10	Octubre	2023-10-18T00:00:00	2024-11-08T10:00:00	2	Temperatura media	21.3
178970	7	Sololá	719	Santiago Atitlán	14	Cerro de Oro	10	Octubre	2023-10-18T00:00:00	2024-11-08T10:00:00	4	Temperatura máxima	21.7
178971	7	Sololá	719	Santiago Atitlán	14	Cerro de Oro	10	Octubre	2023-10-18T00:00:00	2024-11-08T10:00:00	3	Temperatura mínima	20.3
178972	7	Sololá	719	Santiago Atitlán	14	Cerro de Oro	10	Octubre	2023-10-18T00:00:00	2024-11-08T10:00:00	5	Humedad	73
178973	7	Sololá	719	Santiago Atitlán	14	Cerro de Oro	10	Octubre	2023-10-18T00:00:00	2024-11-08T10:00:00	6	Velocidad del viento	0
178974	7	Sololá	719	Santiago Atitlán	14	Cerro de Oro	10	Octubre	2023-10-18T00:00:00	2024-11-08T10:00:00	7	Dirección del viento	0
178975	7	Sololá	719	Santiago Atitlán	14	Cerro de Oro	10	Octubre	2023-10-18T00:00:00	2024-11-08T10:00:00	1	Precipitación	0
178976	7	Sololá	719	Santiago Atitlán	14	Cerro de Oro	10	Octubre	2023-10-18T00:00:00	2024-11-08T10:00:00	8	Radiación solar	415
178977	7	Sololá	719	Santiago Atitlán	14	Cerro de Oro	10	Octubre	2023-10-18T00:00:00	2024-11-08T11:00:00	2	Temperatura media	23
178978	7	Sololá	719	Santiago Atitlán	14	Cerro de Oro	10	Octubre	2023-10-18T00:00:00	2024-11-08T11:00:00	4	Temperatura máxima	23
178979	7	Sololá	719	Santiago Atitlán	14	Cerro de Oro	10	Octubre	2023-10-18T00:00:00	2024-11-08T11:00:00	3	Temperatura mínima	21.4
178980	7	Sololá	719	Santiago Atitlán	14	Cerro de Oro	10	Octubre	2023-10-18T00:00:00	2024-11-08T11:00:00	5	Humedad	68
178981	7	Sololá	719	Santiago Atitlán	14	Cerro de Oro	10	Octubre	2023-10-18T00:00:00	2024-11-08T11:00:00	6	Velocidad del viento	1.6
178982	7	Sololá	719	Santiago Atitlán	14	Cerro de Oro	10	Octubre	2023-10-18T00:00:00	2024-11-08T11:00:00	7	Dirección del viento	1.61
178983	7	Sololá	719	Santiago Atitlán	14	Cerro de Oro	10	Octubre	2023-10-18T00:00:00	2024-11-08T11:00:00	1	Precipitación	0
178984	7	Sololá	719	Santiago Atitlán	14	Cerro de Oro	10	Octubre	2023-10-18T00:00:00	2024-11-08T11:00:00	8	Radiación solar	496
178985	7	Sololá	719	Santiago Atitlán	14	Cerro de Oro	10	Octubre	2023-10-18T00:00:00	2024-11-08T12:00:00	2	Temperatura media	24.5
178986	7	Sololá	719	Santiago Atitlán	14	Cerro de Oro	10	Octubre	2023-10-18T00:00:00	2024-11-08T12:00:00	4	Temperatura máxima	24.5
178987	7	Sololá	719	Santiago Atitlán	14	Cerro de Oro	10	Octubre	2023-10-18T00:00:00	2024-11-08T12:00:00	3	Temperatura mínima	23
178988	7	Sololá	719	Santiago Atitlán	14	Cerro de Oro	10	Octubre	2023-10-18T00:00:00	2024-11-08T12:00:00	5	Humedad	66
178989	7	Sololá	719	Santiago Atitlán	14	Cerro de Oro	10	Octubre	2023-10-18T00:00:00	2024-11-08T12:00:00	6	Velocidad del viento	0
178990	7	Sololá	719	Santiago Atitlán	14	Cerro de Oro	10	Octubre	2023-10-18T00:00:00	2024-11-08T12:00:00	7	Dirección del viento	0
178991	7	Sololá	719	Santiago Atitlán	14	Cerro de Oro	10	Octubre	2023-10-18T00:00:00	2024-11-08T12:00:00	1	Precipitación	0
178992	7	Sololá	719	Santiago Atitlán	14	Cerro de Oro	10	Octubre	2023-10-18T00:00:00	2024-11-08T12:00:00	8	Radiación solar	679
178993	7	Sololá	719	Santiago Atitlán	14	Cerro de Oro	10	Octubre	2023-10-18T00:00:00	2024-11-08T13:00:00	2	Temperatura media	26.4
178994	7	Sololá	719	Santiago Atitlán	14	Cerro de Oro	10	Octubre	2023-10-18T00:00:00	2024-11-08T13:00:00	4	Temperatura máxima	26.4
178995	7	Sololá	719	Santiago Atitlán	14	Cerro de Oro	10	Octubre	2023-10-18T00:00:00	2024-11-08T13:00:00	3	Temperatura mínima	24.4
178996	7	Sololá	719	Santiago Atitlán	14	Cerro de Oro	10	Octubre	2023-10-18T00:00:00	2024-11-08T13:00:00	5	Humedad	57
178997	7	Sololá	719	Santiago Atitlán	14	Cerro de Oro	10	Octubre	2023-10-18T00:00:00	2024-11-08T13:00:00	6	Velocidad del viento	0
178998	7	Sololá	719	Santiago Atitlán	14	Cerro de Oro	10	Octubre	2023-10-18T00:00:00	2024-11-08T13:00:00	7	Dirección del viento	0
178999	7	Sololá	719	Santiago Atitlán	14	Cerro de Oro	10	Octubre	2023-10-18T00:00:00	2024-11-08T13:00:00	1	Precipitación	0
179000	7	Sololá	719	Santiago Atitlán	14	Cerro de Oro	10	Octubre	2023-10-18T00:00:00	2024-11-08T13:00:00	8	Radiación solar	925
179001	7	Sololá	719	Santiago Atitlán	14	Cerro de Oro	10	Octubre	2023-10-18T00:00:00	2024-11-08T14:00:00	2	Temperatura media	24.3
179002	7	Sololá	719	Santiago Atitlán	14	Cerro de Oro	10	Octubre	2023-10-18T00:00:00	2024-11-08T14:00:00	4	Temperatura máxima	26.4
179003	7	Sololá	719	Santiago Atitlán	14	Cerro de Oro	10	Octubre	2023-10-18T00:00:00	2024-11-08T14:00:00	3	Temperatura mínima	23.9
179004	7	Sololá	719	Santiago Atitlán	14	Cerro de Oro	10	Octubre	2023-10-18T00:00:00	2024-11-08T14:00:00	5	Humedad	71
179005	7	Sololá	719	Santiago Atitlán	14	Cerro de Oro	10	Octubre	2023-10-18T00:00:00	2024-11-08T14:00:00	6	Velocidad del viento	1.6
179006	7	Sololá	719	Santiago Atitlán	14	Cerro de Oro	10	Octubre	2023-10-18T00:00:00	2024-11-08T14:00:00	7	Dirección del viento	1.61
179007	7	Sololá	719	Santiago Atitlán	14	Cerro de Oro	10	Octubre	2023-10-18T00:00:00	2024-11-08T14:00:00	1	Precipitación	0
179008	7	Sololá	719	Santiago Atitlán	14	Cerro de Oro	10	Octubre	2023-10-18T00:00:00	2024-11-08T14:00:00	8	Radiación solar	669
179009	7	Sololá	719	Santiago Atitlán	14	Cerro de Oro	10	Octubre	2023-10-18T00:00:00	2024-11-08T15:00:00	2	Temperatura media	24.3
179010	7	Sololá	719	Santiago Atitlán	14	Cerro de Oro	10	Octubre	2023-10-18T00:00:00	2024-11-08T15:00:00	4	Temperatura máxima	24.4
179011	7	Sololá	719	Santiago Atitlán	14	Cerro de Oro	10	Octubre	2023-10-18T00:00:00	2024-11-08T15:00:00	3	Temperatura mínima	23
179012	7	Sololá	719	Santiago Atitlán	14	Cerro de Oro	10	Octubre	2023-10-18T00:00:00	2024-11-08T15:00:00	5	Humedad	72
179013	7	Sololá	719	Santiago Atitlán	14	Cerro de Oro	10	Octubre	2023-10-18T00:00:00	2024-11-08T15:00:00	6	Velocidad del viento	0
179014	7	Sololá	719	Santiago Atitlán	14	Cerro de Oro	10	Octubre	2023-10-18T00:00:00	2024-11-08T15:00:00	7	Dirección del viento	0
179015	7	Sololá	719	Santiago Atitlán	14	Cerro de Oro	10	Octubre	2023-10-18T00:00:00	2024-11-08T15:00:00	1	Precipitación	0
179016	7	Sololá	719	Santiago Atitlán	14	Cerro de Oro	10	Octubre	2023-10-18T00:00:00	2024-11-08T15:00:00	8	Radiación solar	273
179017	7	Sololá	719	Santiago Atitlán	14	Cerro de Oro	10	Octubre	2023-10-18T00:00:00	2024-11-08T16:00:00	2	Temperatura media	24.2
179018	7	Sololá	719	Santiago Atitlán	14	Cerro de Oro	10	Octubre	2023-10-18T00:00:00	2024-11-08T16:00:00	4	Temperatura máxima	25.1
179019	7	Sololá	719	Santiago Atitlán	14	Cerro de Oro	10	Octubre	2023-10-18T00:00:00	2024-11-08T16:00:00	3	Temperatura mínima	23.8
179020	7	Sololá	719	Santiago Atitlán	14	Cerro de Oro	10	Octubre	2023-10-18T00:00:00	2024-11-08T16:00:00	5	Humedad	69
179021	7	Sololá	719	Santiago Atitlán	14	Cerro de Oro	10	Octubre	2023-10-18T00:00:00	2024-11-08T16:00:00	6	Velocidad del viento	0
179022	7	Sololá	719	Santiago Atitlán	14	Cerro de Oro	10	Octubre	2023-10-18T00:00:00	2024-11-08T16:00:00	7	Dirección del viento	0
179023	7	Sololá	719	Santiago Atitlán	14	Cerro de Oro	10	Octubre	2023-10-18T00:00:00	2024-11-08T16:00:00	1	Precipitación	0
179024	7	Sololá	719	Santiago Atitlán	14	Cerro de Oro	10	Octubre	2023-10-18T00:00:00	2024-11-08T16:00:00	8	Radiación solar	237
179025	7	Sololá	719	Santiago Atitlán	14	Cerro de Oro	10	Octubre	2023-10-18T00:00:00	2024-11-08T17:00:00	2	Temperatura media	22.6
179026	7	Sololá	719	Santiago Atitlán	14	Cerro de Oro	10	Octubre	2023-10-18T00:00:00	2024-11-08T17:00:00	4	Temperatura máxima	24.2
179027	7	Sololá	719	Santiago Atitlán	14	Cerro de Oro	10	Octubre	2023-10-18T00:00:00	2024-11-08T17:00:00	3	Temperatura mínima	22.6
179028	7	Sololá	719	Santiago Atitlán	14	Cerro de Oro	10	Octubre	2023-10-18T00:00:00	2024-11-08T17:00:00	5	Humedad	70
179029	7	Sololá	719	Santiago Atitlán	14	Cerro de Oro	10	Octubre	2023-10-18T00:00:00	2024-11-08T17:00:00	6	Velocidad del viento	0
179030	7	Sololá	719	Santiago Atitlán	14	Cerro de Oro	10	Octubre	2023-10-18T00:00:00	2024-11-08T17:00:00	7	Dirección del viento	0
179031	7	Sololá	719	Santiago Atitlán	14	Cerro de Oro	10	Octubre	2023-10-18T00:00:00	2024-11-08T17:00:00	1	Precipitación	0
179032	7	Sololá	719	Santiago Atitlán	14	Cerro de Oro	10	Octubre	2023-10-18T00:00:00	2024-11-08T17:00:00	8	Radiación solar	60
179033	7	Sololá	719	Santiago Atitlán	14	Cerro de Oro	10	Octubre	2023-10-18T00:00:00	2024-11-08T18:00:00	2	Temperatura media	21.5
179034	7	Sololá	719	Santiago Atitlán	14	Cerro de Oro	10	Octubre	2023-10-18T00:00:00	2024-11-08T18:00:00	4	Temperatura máxima	22.6
179035	7	Sololá	719	Santiago Atitlán	14	Cerro de Oro	10	Octubre	2023-10-18T00:00:00	2024-11-08T18:00:00	3	Temperatura mínima	21.4
179036	7	Sololá	719	Santiago Atitlán	14	Cerro de Oro	10	Octubre	2023-10-18T00:00:00	2024-11-08T18:00:00	5	Humedad	76
179037	7	Sololá	719	Santiago Atitlán	14	Cerro de Oro	10	Octubre	2023-10-18T00:00:00	2024-11-08T18:00:00	6	Velocidad del viento	0
179038	7	Sololá	719	Santiago Atitlán	14	Cerro de Oro	10	Octubre	2023-10-18T00:00:00	2024-11-08T18:00:00	7	Dirección del viento	0
179039	7	Sololá	719	Santiago Atitlán	14	Cerro de Oro	10	Octubre	2023-10-18T00:00:00	2024-11-08T18:00:00	1	Precipitación	0
179040	7	Sololá	719	Santiago Atitlán	14	Cerro de Oro	10	Octubre	2023-10-18T00:00:00	2024-11-08T18:00:00	8	Radiación solar	10
179041	7	Sololá	719	Santiago Atitlán	14	Cerro de Oro	10	Octubre	2023-10-18T00:00:00	2024-11-08T19:00:00	2	Temperatura media	20.6
179042	7	Sololá	719	Santiago Atitlán	14	Cerro de Oro	10	Octubre	2023-10-18T00:00:00	2024-11-08T19:00:00	4	Temperatura máxima	21.5
179043	7	Sololá	719	Santiago Atitlán	14	Cerro de Oro	10	Octubre	2023-10-18T00:00:00	2024-11-08T19:00:00	3	Temperatura mínima	20.6
179044	7	Sololá	719	Santiago Atitlán	14	Cerro de Oro	10	Octubre	2023-10-18T00:00:00	2024-11-08T19:00:00	5	Humedad	78
179045	7	Sololá	719	Santiago Atitlán	14	Cerro de Oro	10	Octubre	2023-10-18T00:00:00	2024-11-08T19:00:00	6	Velocidad del viento	0
179046	7	Sololá	719	Santiago Atitlán	14	Cerro de Oro	10	Octubre	2023-10-18T00:00:00	2024-11-08T19:00:00	7	Dirección del viento	0
179047	7	Sololá	719	Santiago Atitlán	14	Cerro de Oro	10	Octubre	2023-10-18T00:00:00	2024-11-08T19:00:00	1	Precipitación	0
179048	7	Sololá	719	Santiago Atitlán	14	Cerro de Oro	10	Octubre	2023-10-18T00:00:00	2024-11-08T19:00:00	8	Radiación solar	0
179049	7	Sololá	719	Santiago Atitlán	14	Cerro de Oro	10	Octubre	2023-10-18T00:00:00	2024-11-08T20:00:00	2	Temperatura media	20.2
179050	7	Sololá	719	Santiago Atitlán	14	Cerro de Oro	10	Octubre	2023-10-18T00:00:00	2024-11-08T20:00:00	4	Temperatura máxima	20.6
179051	7	Sololá	719	Santiago Atitlán	14	Cerro de Oro	10	Octubre	2023-10-18T00:00:00	2024-11-08T20:00:00	3	Temperatura mínima	19.9
179052	7	Sololá	719	Santiago Atitlán	14	Cerro de Oro	10	Octubre	2023-10-18T00:00:00	2024-11-08T20:00:00	5	Humedad	76
179053	7	Sololá	719	Santiago Atitlán	14	Cerro de Oro	10	Octubre	2023-10-18T00:00:00	2024-11-08T20:00:00	6	Velocidad del viento	0
179054	7	Sololá	719	Santiago Atitlán	14	Cerro de Oro	10	Octubre	2023-10-18T00:00:00	2024-11-08T20:00:00	7	Dirección del viento	0
179055	7	Sololá	719	Santiago Atitlán	14	Cerro de Oro	10	Octubre	2023-10-18T00:00:00	2024-11-08T20:00:00	1	Precipitación	0
179056	7	Sololá	719	Santiago Atitlán	14	Cerro de Oro	10	Octubre	2023-10-18T00:00:00	2024-11-08T20:00:00	8	Radiación solar	0
179057	7	Sololá	719	Santiago Atitlán	14	Cerro de Oro	10	Octubre	2023-10-18T00:00:00	2024-11-08T21:00:00	2	Temperatura media	20
179058	7	Sololá	719	Santiago Atitlán	14	Cerro de Oro	10	Octubre	2023-10-18T00:00:00	2024-11-08T21:00:00	4	Temperatura máxima	20.9
179059	7	Sololá	719	Santiago Atitlán	14	Cerro de Oro	10	Octubre	2023-10-18T00:00:00	2024-11-08T21:00:00	3	Temperatura mínima	20
179060	7	Sololá	719	Santiago Atitlán	14	Cerro de Oro	10	Octubre	2023-10-18T00:00:00	2024-11-08T21:00:00	5	Humedad	76
179061	7	Sololá	719	Santiago Atitlán	14	Cerro de Oro	10	Octubre	2023-10-18T00:00:00	2024-11-08T21:00:00	6	Velocidad del viento	1.6
179062	7	Sololá	719	Santiago Atitlán	14	Cerro de Oro	10	Octubre	2023-10-18T00:00:00	2024-11-08T21:00:00	7	Dirección del viento	1.61
179063	7	Sololá	719	Santiago Atitlán	14	Cerro de Oro	10	Octubre	2023-10-18T00:00:00	2024-11-08T21:00:00	1	Precipitación	0
179064	7	Sololá	719	Santiago Atitlán	14	Cerro de Oro	10	Octubre	2023-10-18T00:00:00	2024-11-08T21:00:00	8	Radiación solar	0
179065	7	Sololá	719	Santiago Atitlán	14	Cerro de Oro	10	Octubre	2023-10-18T00:00:00	2024-11-08T22:00:00	2	Temperatura media	19.3
179066	7	Sololá	719	Santiago Atitlán	14	Cerro de Oro	10	Octubre	2023-10-18T00:00:00	2024-11-08T22:00:00	4	Temperatura máxima	20
179067	7	Sololá	719	Santiago Atitlán	14	Cerro de Oro	10	Octubre	2023-10-18T00:00:00	2024-11-08T22:00:00	3	Temperatura mínima	19.3
179068	7	Sololá	719	Santiago Atitlán	14	Cerro de Oro	10	Octubre	2023-10-18T00:00:00	2024-11-08T22:00:00	5	Humedad	77
179069	7	Sololá	719	Santiago Atitlán	14	Cerro de Oro	10	Octubre	2023-10-18T00:00:00	2024-11-08T22:00:00	6	Velocidad del viento	0
179070	7	Sololá	719	Santiago Atitlán	14	Cerro de Oro	10	Octubre	2023-10-18T00:00:00	2024-11-08T22:00:00	7	Dirección del viento	0
179071	7	Sololá	719	Santiago Atitlán	14	Cerro de Oro	10	Octubre	2023-10-18T00:00:00	2024-11-08T22:00:00	1	Precipitación	0
179072	7	Sololá	719	Santiago Atitlán	14	Cerro de Oro	10	Octubre	2023-10-18T00:00:00	2024-11-08T22:00:00	8	Radiación solar	0
179073	7	Sololá	719	Santiago Atitlán	14	Cerro de Oro	10	Octubre	2023-10-18T00:00:00	2024-11-08T23:00:00	2	Temperatura media	18.5
179074	7	Sololá	719	Santiago Atitlán	14	Cerro de Oro	10	Octubre	2023-10-18T00:00:00	2024-11-08T23:00:00	4	Temperatura máxima	19.3
179075	7	Sololá	719	Santiago Atitlán	14	Cerro de Oro	10	Octubre	2023-10-18T00:00:00	2024-11-08T23:00:00	3	Temperatura mínima	18.4
179076	7	Sololá	719	Santiago Atitlán	14	Cerro de Oro	10	Octubre	2023-10-18T00:00:00	2024-11-08T23:00:00	5	Humedad	79
179077	7	Sololá	719	Santiago Atitlán	14	Cerro de Oro	10	Octubre	2023-10-18T00:00:00	2024-11-08T23:00:00	6	Velocidad del viento	0
179078	7	Sololá	719	Santiago Atitlán	14	Cerro de Oro	10	Octubre	2023-10-18T00:00:00	2024-11-08T23:00:00	7	Dirección del viento	0
179079	7	Sololá	719	Santiago Atitlán	14	Cerro de Oro	10	Octubre	2023-10-18T00:00:00	2024-11-08T23:00:00	1	Precipitación	0
179080	7	Sololá	719	Santiago Atitlán	14	Cerro de Oro	10	Octubre	2023-10-18T00:00:00	2024-11-08T23:00:00	8	Radiación solar	0
179081	7	Sololá	719	Santiago Atitlán	14	Cerro de Oro	10	Octubre	2023-10-19T00:00:00	2024-11-08T00:00:00	2	Temperatura media	18.3
179082	7	Sololá	719	Santiago Atitlán	14	Cerro de Oro	10	Octubre	2023-10-19T00:00:00	2024-11-08T00:00:00	4	Temperatura máxima	18.7
179083	7	Sololá	719	Santiago Atitlán	14	Cerro de Oro	10	Octubre	2023-10-19T00:00:00	2024-11-08T00:00:00	3	Temperatura mínima	18.2
179084	7	Sololá	719	Santiago Atitlán	14	Cerro de Oro	10	Octubre	2023-10-19T00:00:00	2024-11-08T00:00:00	5	Humedad	79
179085	7	Sololá	719	Santiago Atitlán	14	Cerro de Oro	10	Octubre	2023-10-19T00:00:00	2024-11-08T00:00:00	6	Velocidad del viento	0
179086	7	Sololá	719	Santiago Atitlán	14	Cerro de Oro	10	Octubre	2023-10-19T00:00:00	2024-11-08T00:00:00	7	Dirección del viento	0
179087	7	Sololá	719	Santiago Atitlán	14	Cerro de Oro	10	Octubre	2023-10-19T00:00:00	2024-11-08T00:00:00	1	Precipitación	0
179088	7	Sololá	719	Santiago Atitlán	14	Cerro de Oro	10	Octubre	2023-10-19T00:00:00	2024-11-08T00:00:00	8	Radiación solar	0
179089	7	Sololá	719	Santiago Atitlán	14	Cerro de Oro	10	Octubre	2023-10-19T00:00:00	2024-11-08T01:00:00	2	Temperatura media	17.9
179090	7	Sololá	719	Santiago Atitlán	14	Cerro de Oro	10	Octubre	2023-10-19T00:00:00	2024-11-08T01:00:00	4	Temperatura máxima	18.4
179091	7	Sololá	719	Santiago Atitlán	14	Cerro de Oro	10	Octubre	2023-10-19T00:00:00	2024-11-08T01:00:00	3	Temperatura mínima	17.9
179092	7	Sololá	719	Santiago Atitlán	14	Cerro de Oro	10	Octubre	2023-10-19T00:00:00	2024-11-08T01:00:00	5	Humedad	80
179093	7	Sololá	719	Santiago Atitlán	14	Cerro de Oro	10	Octubre	2023-10-19T00:00:00	2024-11-08T01:00:00	6	Velocidad del viento	0
179094	7	Sololá	719	Santiago Atitlán	14	Cerro de Oro	10	Octubre	2023-10-19T00:00:00	2024-11-08T01:00:00	7	Dirección del viento	0
179095	7	Sololá	719	Santiago Atitlán	14	Cerro de Oro	10	Octubre	2023-10-19T00:00:00	2024-11-08T01:00:00	1	Precipitación	0
179096	7	Sololá	719	Santiago Atitlán	14	Cerro de Oro	10	Octubre	2023-10-19T00:00:00	2024-11-08T01:00:00	8	Radiación solar	0
179097	7	Sololá	719	Santiago Atitlán	14	Cerro de Oro	10	Octubre	2023-10-19T00:00:00	2024-11-08T02:00:00	2	Temperatura media	18.1
179098	7	Sololá	719	Santiago Atitlán	14	Cerro de Oro	10	Octubre	2023-10-19T00:00:00	2024-11-08T02:00:00	4	Temperatura máxima	18.1
179099	7	Sololá	719	Santiago Atitlán	14	Cerro de Oro	10	Octubre	2023-10-19T00:00:00	2024-11-08T02:00:00	3	Temperatura mínima	17.7
179100	7	Sololá	719	Santiago Atitlán	14	Cerro de Oro	10	Octubre	2023-10-19T00:00:00	2024-11-08T02:00:00	5	Humedad	79
179101	7	Sololá	719	Santiago Atitlán	14	Cerro de Oro	10	Octubre	2023-10-19T00:00:00	2024-11-08T02:00:00	6	Velocidad del viento	0
179102	7	Sololá	719	Santiago Atitlán	14	Cerro de Oro	10	Octubre	2023-10-19T00:00:00	2024-11-08T02:00:00	7	Dirección del viento	0
179103	7	Sololá	719	Santiago Atitlán	14	Cerro de Oro	10	Octubre	2023-10-19T00:00:00	2024-11-08T02:00:00	1	Precipitación	0
179104	7	Sololá	719	Santiago Atitlán	14	Cerro de Oro	10	Octubre	2023-10-19T00:00:00	2024-11-08T02:00:00	8	Radiación solar	0
179105	7	Sololá	719	Santiago Atitlán	14	Cerro de Oro	10	Octubre	2023-10-19T00:00:00	2024-11-08T03:00:00	2	Temperatura media	17.7
179106	7	Sololá	719	Santiago Atitlán	14	Cerro de Oro	10	Octubre	2023-10-19T00:00:00	2024-11-08T03:00:00	4	Temperatura máxima	18.2
179107	7	Sololá	719	Santiago Atitlán	14	Cerro de Oro	10	Octubre	2023-10-19T00:00:00	2024-11-08T03:00:00	3	Temperatura mínima	17.7
179108	7	Sololá	719	Santiago Atitlán	14	Cerro de Oro	10	Octubre	2023-10-19T00:00:00	2024-11-08T03:00:00	5	Humedad	82
179109	7	Sololá	719	Santiago Atitlán	14	Cerro de Oro	10	Octubre	2023-10-19T00:00:00	2024-11-08T03:00:00	6	Velocidad del viento	0
179110	7	Sololá	719	Santiago Atitlán	14	Cerro de Oro	10	Octubre	2023-10-19T00:00:00	2024-11-08T03:00:00	7	Dirección del viento	0
179111	7	Sololá	719	Santiago Atitlán	14	Cerro de Oro	10	Octubre	2023-10-19T00:00:00	2024-11-08T03:00:00	1	Precipitación	0
179112	7	Sololá	719	Santiago Atitlán	14	Cerro de Oro	10	Octubre	2023-10-19T00:00:00	2024-11-08T03:00:00	8	Radiación solar	0
179113	7	Sololá	719	Santiago Atitlán	14	Cerro de Oro	10	Octubre	2023-10-19T00:00:00	2024-11-08T04:00:00	2	Temperatura media	17.2
179114	7	Sololá	719	Santiago Atitlán	14	Cerro de Oro	10	Octubre	2023-10-19T00:00:00	2024-11-08T04:00:00	4	Temperatura máxima	17.7
179115	7	Sololá	719	Santiago Atitlán	14	Cerro de Oro	10	Octubre	2023-10-19T00:00:00	2024-11-08T04:00:00	3	Temperatura mínima	16.8
179116	7	Sololá	719	Santiago Atitlán	14	Cerro de Oro	10	Octubre	2023-10-19T00:00:00	2024-11-08T04:00:00	5	Humedad	83
179117	7	Sololá	719	Santiago Atitlán	14	Cerro de Oro	10	Octubre	2023-10-19T00:00:00	2024-11-08T04:00:00	6	Velocidad del viento	0
179118	7	Sololá	719	Santiago Atitlán	14	Cerro de Oro	10	Octubre	2023-10-19T00:00:00	2024-11-08T04:00:00	7	Dirección del viento	0
179119	7	Sololá	719	Santiago Atitlán	14	Cerro de Oro	10	Octubre	2023-10-19T00:00:00	2024-11-08T04:00:00	1	Precipitación	0
179120	7	Sololá	719	Santiago Atitlán	14	Cerro de Oro	10	Octubre	2023-10-19T00:00:00	2024-11-08T04:00:00	8	Radiación solar	0
179121	7	Sololá	719	Santiago Atitlán	14	Cerro de Oro	10	Octubre	2023-10-19T00:00:00	2024-11-08T05:00:00	2	Temperatura media	16.6
179122	7	Sololá	719	Santiago Atitlán	14	Cerro de Oro	10	Octubre	2023-10-19T00:00:00	2024-11-08T05:00:00	4	Temperatura máxima	17.4
179123	7	Sololá	719	Santiago Atitlán	14	Cerro de Oro	10	Octubre	2023-10-19T00:00:00	2024-11-08T05:00:00	3	Temperatura mínima	16.5
179124	7	Sololá	719	Santiago Atitlán	14	Cerro de Oro	10	Octubre	2023-10-19T00:00:00	2024-11-08T05:00:00	5	Humedad	85
179125	7	Sololá	719	Santiago Atitlán	14	Cerro de Oro	10	Octubre	2023-10-19T00:00:00	2024-11-08T05:00:00	6	Velocidad del viento	0
179126	7	Sololá	719	Santiago Atitlán	14	Cerro de Oro	10	Octubre	2023-10-19T00:00:00	2024-11-08T05:00:00	7	Dirección del viento	0
179127	7	Sololá	719	Santiago Atitlán	14	Cerro de Oro	10	Octubre	2023-10-19T00:00:00	2024-11-08T05:00:00	1	Precipitación	0
179128	7	Sololá	719	Santiago Atitlán	14	Cerro de Oro	10	Octubre	2023-10-19T00:00:00	2024-11-08T05:00:00	8	Radiación solar	0
179129	7	Sololá	719	Santiago Atitlán	14	Cerro de Oro	10	Octubre	2023-10-19T00:00:00	2024-11-08T06:00:00	2	Temperatura media	16.4
179130	7	Sololá	719	Santiago Atitlán	14	Cerro de Oro	10	Octubre	2023-10-19T00:00:00	2024-11-08T06:00:00	4	Temperatura máxima	16.7
179131	7	Sololá	719	Santiago Atitlán	14	Cerro de Oro	10	Octubre	2023-10-19T00:00:00	2024-11-08T06:00:00	3	Temperatura mínima	16.4
179132	7	Sololá	719	Santiago Atitlán	14	Cerro de Oro	10	Octubre	2023-10-19T00:00:00	2024-11-08T06:00:00	5	Humedad	85
179133	7	Sololá	719	Santiago Atitlán	14	Cerro de Oro	10	Octubre	2023-10-19T00:00:00	2024-11-08T06:00:00	6	Velocidad del viento	0
179134	7	Sololá	719	Santiago Atitlán	14	Cerro de Oro	10	Octubre	2023-10-19T00:00:00	2024-11-08T06:00:00	7	Dirección del viento	0
179135	7	Sololá	719	Santiago Atitlán	14	Cerro de Oro	10	Octubre	2023-10-19T00:00:00	2024-11-08T06:00:00	1	Precipitación	0
179136	7	Sololá	719	Santiago Atitlán	14	Cerro de Oro	10	Octubre	2023-10-19T00:00:00	2024-11-08T06:00:00	8	Radiación solar	0
179137	7	Sololá	719	Santiago Atitlán	14	Cerro de Oro	10	Octubre	2023-10-19T00:00:00	2024-11-08T07:00:00	2	Temperatura media	18.5
179138	7	Sololá	719	Santiago Atitlán	14	Cerro de Oro	10	Octubre	2023-10-19T00:00:00	2024-11-08T07:00:00	4	Temperatura máxima	18.5
179139	7	Sololá	719	Santiago Atitlán	14	Cerro de Oro	10	Octubre	2023-10-19T00:00:00	2024-11-08T07:00:00	3	Temperatura mínima	16.3
179140	7	Sololá	719	Santiago Atitlán	14	Cerro de Oro	10	Octubre	2023-10-19T00:00:00	2024-11-08T07:00:00	5	Humedad	82
179141	7	Sololá	719	Santiago Atitlán	14	Cerro de Oro	10	Octubre	2023-10-19T00:00:00	2024-11-08T07:00:00	6	Velocidad del viento	0
179142	7	Sololá	719	Santiago Atitlán	14	Cerro de Oro	10	Octubre	2023-10-19T00:00:00	2024-11-08T07:00:00	7	Dirección del viento	0
179143	7	Sololá	719	Santiago Atitlán	14	Cerro de Oro	10	Octubre	2023-10-19T00:00:00	2024-11-08T07:00:00	1	Precipitación	0
179144	7	Sololá	719	Santiago Atitlán	14	Cerro de Oro	10	Octubre	2023-10-19T00:00:00	2024-11-08T07:00:00	8	Radiación solar	52
179145	7	Sololá	719	Santiago Atitlán	14	Cerro de Oro	10	Octubre	2023-10-19T00:00:00	2024-11-08T08:00:00	2	Temperatura media	20.6
179146	7	Sololá	719	Santiago Atitlán	14	Cerro de Oro	10	Octubre	2023-10-19T00:00:00	2024-11-08T08:00:00	4	Temperatura máxima	20.9
179147	7	Sololá	719	Santiago Atitlán	14	Cerro de Oro	10	Octubre	2023-10-19T00:00:00	2024-11-08T08:00:00	3	Temperatura mínima	18.5
179148	7	Sololá	719	Santiago Atitlán	14	Cerro de Oro	10	Octubre	2023-10-19T00:00:00	2024-11-08T08:00:00	5	Humedad	80
179149	7	Sololá	719	Santiago Atitlán	14	Cerro de Oro	10	Octubre	2023-10-19T00:00:00	2024-11-08T08:00:00	6	Velocidad del viento	0
179150	7	Sololá	719	Santiago Atitlán	14	Cerro de Oro	10	Octubre	2023-10-19T00:00:00	2024-11-08T08:00:00	7	Dirección del viento	0
179151	7	Sololá	719	Santiago Atitlán	14	Cerro de Oro	10	Octubre	2023-10-19T00:00:00	2024-11-08T08:00:00	1	Precipitación	0
179152	7	Sololá	719	Santiago Atitlán	14	Cerro de Oro	10	Octubre	2023-10-19T00:00:00	2024-11-08T08:00:00	8	Radiación solar	284
179153	7	Sololá	719	Santiago Atitlán	14	Cerro de Oro	10	Octubre	2023-10-19T00:00:00	2024-11-08T09:00:00	2	Temperatura media	21.4
179154	7	Sololá	719	Santiago Atitlán	14	Cerro de Oro	10	Octubre	2023-10-19T00:00:00	2024-11-08T09:00:00	4	Temperatura máxima	21.9
179155	7	Sololá	719	Santiago Atitlán	14	Cerro de Oro	10	Octubre	2023-10-19T00:00:00	2024-11-08T09:00:00	3	Temperatura mínima	20.5
179156	7	Sololá	719	Santiago Atitlán	14	Cerro de Oro	10	Octubre	2023-10-19T00:00:00	2024-11-08T09:00:00	5	Humedad	80
179157	7	Sololá	719	Santiago Atitlán	14	Cerro de Oro	10	Octubre	2023-10-19T00:00:00	2024-11-08T09:00:00	6	Velocidad del viento	0
179158	7	Sololá	719	Santiago Atitlán	14	Cerro de Oro	10	Octubre	2023-10-19T00:00:00	2024-11-08T09:00:00	7	Dirección del viento	0
179159	7	Sololá	719	Santiago Atitlán	14	Cerro de Oro	10	Octubre	2023-10-19T00:00:00	2024-11-08T09:00:00	1	Precipitación	0
179160	7	Sololá	719	Santiago Atitlán	14	Cerro de Oro	10	Octubre	2023-10-19T00:00:00	2024-11-08T09:00:00	8	Radiación solar	522
179161	7	Sololá	719	Santiago Atitlán	14	Cerro de Oro	10	Octubre	2023-10-19T00:00:00	2024-11-08T10:00:00	2	Temperatura media	22.5
179162	7	Sololá	719	Santiago Atitlán	14	Cerro de Oro	10	Octubre	2023-10-19T00:00:00	2024-11-08T10:00:00	4	Temperatura máxima	22.6
179163	7	Sololá	719	Santiago Atitlán	14	Cerro de Oro	10	Octubre	2023-10-19T00:00:00	2024-11-08T10:00:00	3	Temperatura mínima	21.3
179164	7	Sololá	719	Santiago Atitlán	14	Cerro de Oro	10	Octubre	2023-10-19T00:00:00	2024-11-08T10:00:00	5	Humedad	71
179165	7	Sololá	719	Santiago Atitlán	14	Cerro de Oro	10	Octubre	2023-10-19T00:00:00	2024-11-08T10:00:00	6	Velocidad del viento	0
179166	7	Sololá	719	Santiago Atitlán	14	Cerro de Oro	10	Octubre	2023-10-19T00:00:00	2024-11-08T10:00:00	7	Dirección del viento	0
179167	7	Sololá	719	Santiago Atitlán	14	Cerro de Oro	10	Octubre	2023-10-19T00:00:00	2024-11-08T10:00:00	1	Precipitación	0
179168	7	Sololá	719	Santiago Atitlán	14	Cerro de Oro	10	Octubre	2023-10-19T00:00:00	2024-11-08T10:00:00	8	Radiación solar	467
179169	7	Sololá	719	Santiago Atitlán	14	Cerro de Oro	10	Octubre	2023-10-19T00:00:00	2024-11-08T11:00:00	2	Temperatura media	23.2
179170	7	Sololá	719	Santiago Atitlán	14	Cerro de Oro	10	Octubre	2023-10-19T00:00:00	2024-11-08T11:00:00	4	Temperatura máxima	23.7
179171	7	Sololá	719	Santiago Atitlán	14	Cerro de Oro	10	Octubre	2023-10-19T00:00:00	2024-11-08T11:00:00	3	Temperatura mínima	22.4
179172	7	Sololá	719	Santiago Atitlán	14	Cerro de Oro	10	Octubre	2023-10-19T00:00:00	2024-11-08T11:00:00	5	Humedad	71
179173	7	Sololá	719	Santiago Atitlán	14	Cerro de Oro	10	Octubre	2023-10-19T00:00:00	2024-11-08T11:00:00	6	Velocidad del viento	0
179174	7	Sololá	719	Santiago Atitlán	14	Cerro de Oro	10	Octubre	2023-10-19T00:00:00	2024-11-08T11:00:00	7	Dirección del viento	0
179175	7	Sololá	719	Santiago Atitlán	14	Cerro de Oro	10	Octubre	2023-10-19T00:00:00	2024-11-08T11:00:00	1	Precipitación	0
179176	7	Sololá	719	Santiago Atitlán	14	Cerro de Oro	10	Octubre	2023-10-19T00:00:00	2024-11-08T11:00:00	8	Radiación solar	310
179177	7	Sololá	719	Santiago Atitlán	14	Cerro de Oro	10	Octubre	2023-10-19T00:00:00	2024-11-08T12:00:00	2	Temperatura media	22.9
179178	7	Sololá	719	Santiago Atitlán	14	Cerro de Oro	10	Octubre	2023-10-19T00:00:00	2024-11-08T12:00:00	4	Temperatura máxima	23.4
179179	7	Sololá	719	Santiago Atitlán	14	Cerro de Oro	10	Octubre	2023-10-19T00:00:00	2024-11-08T12:00:00	3	Temperatura mínima	22.9
179180	7	Sololá	719	Santiago Atitlán	14	Cerro de Oro	10	Octubre	2023-10-19T00:00:00	2024-11-08T12:00:00	5	Humedad	81
179181	7	Sololá	719	Santiago Atitlán	14	Cerro de Oro	10	Octubre	2023-10-19T00:00:00	2024-11-08T12:00:00	6	Velocidad del viento	0
179182	7	Sololá	719	Santiago Atitlán	14	Cerro de Oro	10	Octubre	2023-10-19T00:00:00	2024-11-08T12:00:00	7	Dirección del viento	0
179183	7	Sololá	719	Santiago Atitlán	14	Cerro de Oro	10	Octubre	2023-10-19T00:00:00	2024-11-08T12:00:00	1	Precipitación	0
179184	7	Sololá	719	Santiago Atitlán	14	Cerro de Oro	10	Octubre	2023-10-19T00:00:00	2024-11-08T12:00:00	8	Radiación solar	275
179185	7	Sololá	719	Santiago Atitlán	14	Cerro de Oro	10	Octubre	2023-10-19T00:00:00	2024-11-08T13:00:00	2	Temperatura media	21.7
179186	7	Sololá	719	Santiago Atitlán	14	Cerro de Oro	10	Octubre	2023-10-19T00:00:00	2024-11-08T13:00:00	4	Temperatura máxima	22.9
179187	7	Sololá	719	Santiago Atitlán	14	Cerro de Oro	10	Octubre	2023-10-19T00:00:00	2024-11-08T13:00:00	3	Temperatura mínima	21.6
179188	7	Sololá	719	Santiago Atitlán	14	Cerro de Oro	10	Octubre	2023-10-19T00:00:00	2024-11-08T13:00:00	5	Humedad	84
179189	7	Sololá	719	Santiago Atitlán	14	Cerro de Oro	10	Octubre	2023-10-19T00:00:00	2024-11-08T13:00:00	6	Velocidad del viento	0
179190	7	Sololá	719	Santiago Atitlán	14	Cerro de Oro	10	Octubre	2023-10-19T00:00:00	2024-11-08T13:00:00	7	Dirección del viento	0
179191	7	Sololá	719	Santiago Atitlán	14	Cerro de Oro	10	Octubre	2023-10-19T00:00:00	2024-11-08T13:00:00	1	Precipitación	0
179192	7	Sololá	719	Santiago Atitlán	14	Cerro de Oro	10	Octubre	2023-10-19T00:00:00	2024-11-08T13:00:00	8	Radiación solar	174
179193	7	Sololá	719	Santiago Atitlán	14	Cerro de Oro	10	Octubre	2023-10-19T00:00:00	2024-11-08T14:00:00	2	Temperatura media	21.5
179194	7	Sololá	719	Santiago Atitlán	14	Cerro de Oro	10	Octubre	2023-10-19T00:00:00	2024-11-08T14:00:00	4	Temperatura máxima	21.8
179195	7	Sololá	719	Santiago Atitlán	14	Cerro de Oro	10	Octubre	2023-10-19T00:00:00	2024-11-08T14:00:00	3	Temperatura mínima	21.3
179196	7	Sololá	719	Santiago Atitlán	14	Cerro de Oro	10	Octubre	2023-10-19T00:00:00	2024-11-08T14:00:00	5	Humedad	86
179197	7	Sololá	719	Santiago Atitlán	14	Cerro de Oro	10	Octubre	2023-10-19T00:00:00	2024-11-08T14:00:00	6	Velocidad del viento	0
179198	7	Sololá	719	Santiago Atitlán	14	Cerro de Oro	10	Octubre	2023-10-19T00:00:00	2024-11-08T14:00:00	7	Dirección del viento	0
179199	7	Sololá	719	Santiago Atitlán	14	Cerro de Oro	10	Octubre	2023-10-19T00:00:00	2024-11-08T14:00:00	1	Precipitación	0
179200	7	Sololá	719	Santiago Atitlán	14	Cerro de Oro	10	Octubre	2023-10-19T00:00:00	2024-11-08T14:00:00	8	Radiación solar	117
179201	7	Sololá	719	Santiago Atitlán	14	Cerro de Oro	10	Octubre	2023-10-19T00:00:00	2024-11-08T15:00:00	2	Temperatura media	20.7
179202	7	Sololá	719	Santiago Atitlán	14	Cerro de Oro	10	Octubre	2023-10-19T00:00:00	2024-11-08T15:00:00	4	Temperatura máxima	22.5
179203	7	Sololá	719	Santiago Atitlán	14	Cerro de Oro	10	Octubre	2023-10-19T00:00:00	2024-11-08T15:00:00	3	Temperatura mínima	20.7
179204	7	Sololá	719	Santiago Atitlán	14	Cerro de Oro	10	Octubre	2023-10-19T00:00:00	2024-11-08T15:00:00	5	Humedad	89
179205	7	Sololá	719	Santiago Atitlán	14	Cerro de Oro	10	Octubre	2023-10-19T00:00:00	2024-11-08T15:00:00	6	Velocidad del viento	1.6
179206	7	Sololá	719	Santiago Atitlán	14	Cerro de Oro	10	Octubre	2023-10-19T00:00:00	2024-11-08T15:00:00	7	Dirección del viento	1.61
179207	7	Sololá	719	Santiago Atitlán	14	Cerro de Oro	10	Octubre	2023-10-19T00:00:00	2024-11-08T15:00:00	1	Precipitación	0
179208	7	Sololá	719	Santiago Atitlán	14	Cerro de Oro	10	Octubre	2023-10-19T00:00:00	2024-11-08T15:00:00	8	Radiación solar	128
179209	7	Sololá	719	Santiago Atitlán	14	Cerro de Oro	10	Octubre	2023-10-19T00:00:00	2024-11-08T16:00:00	2	Temperatura media	20.8
179210	7	Sololá	719	Santiago Atitlán	14	Cerro de Oro	10	Octubre	2023-10-19T00:00:00	2024-11-08T16:00:00	4	Temperatura máxima	20.8
179211	7	Sololá	719	Santiago Atitlán	14	Cerro de Oro	10	Octubre	2023-10-19T00:00:00	2024-11-08T16:00:00	3	Temperatura mínima	20.6
179212	7	Sololá	719	Santiago Atitlán	14	Cerro de Oro	10	Octubre	2023-10-19T00:00:00	2024-11-08T16:00:00	5	Humedad	90
179213	7	Sololá	719	Santiago Atitlán	14	Cerro de Oro	10	Octubre	2023-10-19T00:00:00	2024-11-08T16:00:00	6	Velocidad del viento	0
179214	7	Sololá	719	Santiago Atitlán	14	Cerro de Oro	10	Octubre	2023-10-19T00:00:00	2024-11-08T16:00:00	7	Dirección del viento	0
179215	7	Sololá	719	Santiago Atitlán	14	Cerro de Oro	10	Octubre	2023-10-19T00:00:00	2024-11-08T16:00:00	1	Precipitación	0
179216	7	Sololá	719	Santiago Atitlán	14	Cerro de Oro	10	Octubre	2023-10-19T00:00:00	2024-11-08T16:00:00	8	Radiación solar	78
179217	7	Sololá	719	Santiago Atitlán	14	Cerro de Oro	10	Octubre	2023-10-19T00:00:00	2024-11-08T17:00:00	2	Temperatura media	20.1
179218	7	Sololá	719	Santiago Atitlán	14	Cerro de Oro	10	Octubre	2023-10-19T00:00:00	2024-11-08T17:00:00	4	Temperatura máxima	20.8
179219	7	Sololá	719	Santiago Atitlán	14	Cerro de Oro	10	Octubre	2023-10-19T00:00:00	2024-11-08T17:00:00	3	Temperatura mínima	20
179220	7	Sololá	719	Santiago Atitlán	14	Cerro de Oro	10	Octubre	2023-10-19T00:00:00	2024-11-08T17:00:00	5	Humedad	92
179221	7	Sololá	719	Santiago Atitlán	14	Cerro de Oro	10	Octubre	2023-10-19T00:00:00	2024-11-08T17:00:00	6	Velocidad del viento	1.6
179222	7	Sololá	719	Santiago Atitlán	14	Cerro de Oro	10	Octubre	2023-10-19T00:00:00	2024-11-08T17:00:00	7	Dirección del viento	1.61
179223	7	Sololá	719	Santiago Atitlán	14	Cerro de Oro	10	Octubre	2023-10-19T00:00:00	2024-11-08T17:00:00	1	Precipitación	0
179224	7	Sololá	719	Santiago Atitlán	14	Cerro de Oro	10	Octubre	2023-10-19T00:00:00	2024-11-08T17:00:00	8	Radiación solar	55
179225	7	Sololá	719	Santiago Atitlán	14	Cerro de Oro	10	Octubre	2023-10-19T00:00:00	2024-11-08T18:00:00	2	Temperatura media	19.8
179226	7	Sololá	719	Santiago Atitlán	14	Cerro de Oro	10	Octubre	2023-10-19T00:00:00	2024-11-08T18:00:00	4	Temperatura máxima	20.1
179227	7	Sololá	719	Santiago Atitlán	14	Cerro de Oro	10	Octubre	2023-10-19T00:00:00	2024-11-08T18:00:00	3	Temperatura mínima	19.8
179228	7	Sololá	719	Santiago Atitlán	14	Cerro de Oro	10	Octubre	2023-10-19T00:00:00	2024-11-08T18:00:00	5	Humedad	92
179229	7	Sololá	719	Santiago Atitlán	14	Cerro de Oro	10	Octubre	2023-10-19T00:00:00	2024-11-08T18:00:00	6	Velocidad del viento	0
179230	7	Sololá	719	Santiago Atitlán	14	Cerro de Oro	10	Octubre	2023-10-19T00:00:00	2024-11-08T18:00:00	7	Dirección del viento	0
179231	7	Sololá	719	Santiago Atitlán	14	Cerro de Oro	10	Octubre	2023-10-19T00:00:00	2024-11-08T18:00:00	1	Precipitación	0
179232	7	Sololá	719	Santiago Atitlán	14	Cerro de Oro	10	Octubre	2023-10-19T00:00:00	2024-11-08T18:00:00	8	Radiación solar	4
179233	7	Sololá	719	Santiago Atitlán	14	Cerro de Oro	10	Octubre	2023-10-19T00:00:00	2024-11-08T19:00:00	2	Temperatura media	19.3
179234	7	Sololá	719	Santiago Atitlán	14	Cerro de Oro	10	Octubre	2023-10-19T00:00:00	2024-11-08T19:00:00	4	Temperatura máxima	19.8
179235	7	Sololá	719	Santiago Atitlán	14	Cerro de Oro	10	Octubre	2023-10-19T00:00:00	2024-11-08T19:00:00	3	Temperatura mínima	19.3
179236	7	Sololá	719	Santiago Atitlán	14	Cerro de Oro	10	Octubre	2023-10-19T00:00:00	2024-11-08T19:00:00	5	Humedad	93
179237	7	Sololá	719	Santiago Atitlán	14	Cerro de Oro	10	Octubre	2023-10-19T00:00:00	2024-11-08T19:00:00	6	Velocidad del viento	0
179238	7	Sololá	719	Santiago Atitlán	14	Cerro de Oro	10	Octubre	2023-10-19T00:00:00	2024-11-08T19:00:00	7	Dirección del viento	0
179239	7	Sololá	719	Santiago Atitlán	14	Cerro de Oro	10	Octubre	2023-10-19T00:00:00	2024-11-08T19:00:00	1	Precipitación	0
179240	7	Sololá	719	Santiago Atitlán	14	Cerro de Oro	10	Octubre	2023-10-19T00:00:00	2024-11-08T19:00:00	8	Radiación solar	0
179241	7	Sololá	719	Santiago Atitlán	14	Cerro de Oro	10	Octubre	2023-10-19T00:00:00	2024-11-08T20:00:00	2	Temperatura media	19.4
179242	7	Sololá	719	Santiago Atitlán	14	Cerro de Oro	10	Octubre	2023-10-19T00:00:00	2024-11-08T20:00:00	4	Temperatura máxima	19.4
179243	7	Sololá	719	Santiago Atitlán	14	Cerro de Oro	10	Octubre	2023-10-19T00:00:00	2024-11-08T20:00:00	3	Temperatura mínima	19.2
179244	7	Sololá	719	Santiago Atitlán	14	Cerro de Oro	10	Octubre	2023-10-19T00:00:00	2024-11-08T20:00:00	5	Humedad	92
179245	7	Sololá	719	Santiago Atitlán	14	Cerro de Oro	10	Octubre	2023-10-19T00:00:00	2024-11-08T20:00:00	6	Velocidad del viento	0
179246	7	Sololá	719	Santiago Atitlán	14	Cerro de Oro	10	Octubre	2023-10-19T00:00:00	2024-11-08T20:00:00	7	Dirección del viento	0
179247	7	Sololá	719	Santiago Atitlán	14	Cerro de Oro	10	Octubre	2023-10-19T00:00:00	2024-11-08T20:00:00	1	Precipitación	0
179248	7	Sololá	719	Santiago Atitlán	14	Cerro de Oro	10	Octubre	2023-10-19T00:00:00	2024-11-08T20:00:00	8	Radiación solar	0
179249	7	Sololá	719	Santiago Atitlán	14	Cerro de Oro	10	Octubre	2023-10-19T00:00:00	2024-11-08T21:00:00	2	Temperatura media	18.9
179250	7	Sololá	719	Santiago Atitlán	14	Cerro de Oro	10	Octubre	2023-10-19T00:00:00	2024-11-08T21:00:00	4	Temperatura máxima	19.4
179251	7	Sololá	719	Santiago Atitlán	14	Cerro de Oro	10	Octubre	2023-10-19T00:00:00	2024-11-08T21:00:00	3	Temperatura mínima	18.9
179252	7	Sololá	719	Santiago Atitlán	14	Cerro de Oro	10	Octubre	2023-10-19T00:00:00	2024-11-08T21:00:00	5	Humedad	92
179253	7	Sololá	719	Santiago Atitlán	14	Cerro de Oro	10	Octubre	2023-10-19T00:00:00	2024-11-08T21:00:00	6	Velocidad del viento	0
179254	7	Sololá	719	Santiago Atitlán	14	Cerro de Oro	10	Octubre	2023-10-19T00:00:00	2024-11-08T21:00:00	7	Dirección del viento	0
179255	7	Sololá	719	Santiago Atitlán	14	Cerro de Oro	10	Octubre	2023-10-19T00:00:00	2024-11-08T21:00:00	1	Precipitación	0
179256	7	Sololá	719	Santiago Atitlán	14	Cerro de Oro	10	Octubre	2023-10-19T00:00:00	2024-11-08T21:00:00	8	Radiación solar	0
179257	7	Sololá	719	Santiago Atitlán	14	Cerro de Oro	10	Octubre	2023-10-19T00:00:00	2024-11-08T22:00:00	2	Temperatura media	18.4
179258	7	Sololá	719	Santiago Atitlán	14	Cerro de Oro	10	Octubre	2023-10-19T00:00:00	2024-11-08T22:00:00	4	Temperatura máxima	19.1
179259	7	Sololá	719	Santiago Atitlán	14	Cerro de Oro	10	Octubre	2023-10-19T00:00:00	2024-11-08T22:00:00	3	Temperatura mínima	18.4
179260	7	Sololá	719	Santiago Atitlán	14	Cerro de Oro	10	Octubre	2023-10-19T00:00:00	2024-11-08T22:00:00	5	Humedad	93
179261	7	Sololá	719	Santiago Atitlán	14	Cerro de Oro	10	Octubre	2023-10-19T00:00:00	2024-11-08T22:00:00	6	Velocidad del viento	0
179262	7	Sololá	719	Santiago Atitlán	14	Cerro de Oro	10	Octubre	2023-10-19T00:00:00	2024-11-08T22:00:00	7	Dirección del viento	0
179263	7	Sololá	719	Santiago Atitlán	14	Cerro de Oro	10	Octubre	2023-10-19T00:00:00	2024-11-08T22:00:00	1	Precipitación	0
179264	7	Sololá	719	Santiago Atitlán	14	Cerro de Oro	10	Octubre	2023-10-19T00:00:00	2024-11-08T22:00:00	8	Radiación solar	0
179265	7	Sololá	719	Santiago Atitlán	14	Cerro de Oro	10	Octubre	2023-10-19T00:00:00	2024-11-08T23:00:00	2	Temperatura media	18.4
179266	7	Sololá	719	Santiago Atitlán	14	Cerro de Oro	10	Octubre	2023-10-19T00:00:00	2024-11-08T23:00:00	4	Temperatura máxima	18.5
179267	7	Sololá	719	Santiago Atitlán	14	Cerro de Oro	10	Octubre	2023-10-19T00:00:00	2024-11-08T23:00:00	3	Temperatura mínima	18.1
179268	7	Sololá	719	Santiago Atitlán	14	Cerro de Oro	10	Octubre	2023-10-19T00:00:00	2024-11-08T23:00:00	5	Humedad	85
179269	7	Sololá	719	Santiago Atitlán	14	Cerro de Oro	10	Octubre	2023-10-19T00:00:00	2024-11-08T23:00:00	6	Velocidad del viento	1.6
179270	7	Sololá	719	Santiago Atitlán	14	Cerro de Oro	10	Octubre	2023-10-19T00:00:00	2024-11-08T23:00:00	7	Dirección del viento	1.61
179271	7	Sololá	719	Santiago Atitlán	14	Cerro de Oro	10	Octubre	2023-10-19T00:00:00	2024-11-08T23:00:00	1	Precipitación	0
179272	7	Sololá	719	Santiago Atitlán	14	Cerro de Oro	10	Octubre	2023-10-19T00:00:00	2024-11-08T23:00:00	8	Radiación solar	0
179273	7	Sololá	719	Santiago Atitlán	14	Cerro de Oro	10	Octubre	2023-10-20T00:00:00	2024-11-08T00:00:00	2	Temperatura media	18.9
179274	7	Sololá	719	Santiago Atitlán	14	Cerro de Oro	10	Octubre	2023-10-20T00:00:00	2024-11-08T00:00:00	4	Temperatura máxima	19.2
179275	7	Sololá	719	Santiago Atitlán	14	Cerro de Oro	10	Octubre	2023-10-20T00:00:00	2024-11-08T00:00:00	3	Temperatura mínima	18.4
179276	7	Sololá	719	Santiago Atitlán	14	Cerro de Oro	10	Octubre	2023-10-20T00:00:00	2024-11-08T00:00:00	5	Humedad	81
179277	7	Sololá	719	Santiago Atitlán	14	Cerro de Oro	10	Octubre	2023-10-20T00:00:00	2024-11-08T00:00:00	6	Velocidad del viento	4.8
179278	7	Sololá	719	Santiago Atitlán	14	Cerro de Oro	10	Octubre	2023-10-20T00:00:00	2024-11-08T00:00:00	7	Dirección del viento	4.83
179279	7	Sololá	719	Santiago Atitlán	14	Cerro de Oro	10	Octubre	2023-10-20T00:00:00	2024-11-08T00:00:00	1	Precipitación	0
179280	7	Sololá	719	Santiago Atitlán	14	Cerro de Oro	10	Octubre	2023-10-20T00:00:00	2024-11-08T00:00:00	8	Radiación solar	0
179281	7	Sololá	719	Santiago Atitlán	14	Cerro de Oro	10	Octubre	2023-10-20T00:00:00	2024-11-08T01:00:00	2	Temperatura media	19
179282	7	Sololá	719	Santiago Atitlán	14	Cerro de Oro	10	Octubre	2023-10-20T00:00:00	2024-11-08T01:00:00	4	Temperatura máxima	19.2
179283	7	Sololá	719	Santiago Atitlán	14	Cerro de Oro	10	Octubre	2023-10-20T00:00:00	2024-11-08T01:00:00	3	Temperatura mínima	18.7
179284	7	Sololá	719	Santiago Atitlán	14	Cerro de Oro	10	Octubre	2023-10-20T00:00:00	2024-11-08T01:00:00	5	Humedad	80
179285	7	Sololá	719	Santiago Atitlán	14	Cerro de Oro	10	Octubre	2023-10-20T00:00:00	2024-11-08T01:00:00	6	Velocidad del viento	9.7
179286	7	Sololá	719	Santiago Atitlán	14	Cerro de Oro	10	Octubre	2023-10-20T00:00:00	2024-11-08T01:00:00	7	Dirección del viento	9.66
179287	7	Sololá	719	Santiago Atitlán	14	Cerro de Oro	10	Octubre	2023-10-20T00:00:00	2024-11-08T01:00:00	1	Precipitación	0
179288	7	Sololá	719	Santiago Atitlán	14	Cerro de Oro	10	Octubre	2023-10-20T00:00:00	2024-11-08T01:00:00	8	Radiación solar	0
179289	7	Sololá	719	Santiago Atitlán	14	Cerro de Oro	10	Octubre	2023-10-20T00:00:00	2024-11-08T02:00:00	2	Temperatura media	18.7
179290	7	Sololá	719	Santiago Atitlán	14	Cerro de Oro	10	Octubre	2023-10-20T00:00:00	2024-11-08T02:00:00	4	Temperatura máxima	19
179291	7	Sololá	719	Santiago Atitlán	14	Cerro de Oro	10	Octubre	2023-10-20T00:00:00	2024-11-08T02:00:00	3	Temperatura mínima	18.7
179292	7	Sololá	719	Santiago Atitlán	14	Cerro de Oro	10	Octubre	2023-10-20T00:00:00	2024-11-08T02:00:00	5	Humedad	79
179293	7	Sololá	719	Santiago Atitlán	14	Cerro de Oro	10	Octubre	2023-10-20T00:00:00	2024-11-08T02:00:00	6	Velocidad del viento	4.8
179294	7	Sololá	719	Santiago Atitlán	14	Cerro de Oro	10	Octubre	2023-10-20T00:00:00	2024-11-08T02:00:00	7	Dirección del viento	4.83
179295	7	Sololá	719	Santiago Atitlán	14	Cerro de Oro	10	Octubre	2023-10-20T00:00:00	2024-11-08T02:00:00	1	Precipitación	0
179296	7	Sololá	719	Santiago Atitlán	14	Cerro de Oro	10	Octubre	2023-10-20T00:00:00	2024-11-08T02:00:00	8	Radiación solar	0
179297	7	Sololá	719	Santiago Atitlán	14	Cerro de Oro	10	Octubre	2023-10-20T00:00:00	2024-11-08T03:00:00	2	Temperatura media	18.6
179298	7	Sololá	719	Santiago Atitlán	14	Cerro de Oro	10	Octubre	2023-10-20T00:00:00	2024-11-08T03:00:00	4	Temperatura máxima	19
179299	7	Sololá	719	Santiago Atitlán	14	Cerro de Oro	10	Octubre	2023-10-20T00:00:00	2024-11-08T03:00:00	3	Temperatura mínima	18.6
179300	7	Sololá	719	Santiago Atitlán	14	Cerro de Oro	10	Octubre	2023-10-20T00:00:00	2024-11-08T03:00:00	5	Humedad	80
179301	7	Sololá	719	Santiago Atitlán	14	Cerro de Oro	10	Octubre	2023-10-20T00:00:00	2024-11-08T03:00:00	6	Velocidad del viento	9.7
179302	7	Sololá	719	Santiago Atitlán	14	Cerro de Oro	10	Octubre	2023-10-20T00:00:00	2024-11-08T03:00:00	7	Dirección del viento	9.66
179303	7	Sololá	719	Santiago Atitlán	14	Cerro de Oro	10	Octubre	2023-10-20T00:00:00	2024-11-08T03:00:00	1	Precipitación	0
179304	7	Sololá	719	Santiago Atitlán	14	Cerro de Oro	10	Octubre	2023-10-20T00:00:00	2024-11-08T03:00:00	8	Radiación solar	0
179305	7	Sololá	719	Santiago Atitlán	14	Cerro de Oro	10	Octubre	2023-10-20T00:00:00	2024-11-08T04:00:00	2	Temperatura media	18.4
179306	7	Sololá	719	Santiago Atitlán	14	Cerro de Oro	10	Octubre	2023-10-20T00:00:00	2024-11-08T04:00:00	4	Temperatura máxima	18.7
179307	7	Sololá	719	Santiago Atitlán	14	Cerro de Oro	10	Octubre	2023-10-20T00:00:00	2024-11-08T04:00:00	3	Temperatura mínima	18.4
179308	7	Sololá	719	Santiago Atitlán	14	Cerro de Oro	10	Octubre	2023-10-20T00:00:00	2024-11-08T04:00:00	5	Humedad	79
179309	7	Sololá	719	Santiago Atitlán	14	Cerro de Oro	10	Octubre	2023-10-20T00:00:00	2024-11-08T04:00:00	6	Velocidad del viento	8
179310	7	Sololá	719	Santiago Atitlán	14	Cerro de Oro	10	Octubre	2023-10-20T00:00:00	2024-11-08T04:00:00	7	Dirección del viento	8.05
179311	7	Sololá	719	Santiago Atitlán	14	Cerro de Oro	10	Octubre	2023-10-20T00:00:00	2024-11-08T04:00:00	1	Precipitación	0
179312	7	Sololá	719	Santiago Atitlán	14	Cerro de Oro	10	Octubre	2023-10-20T00:00:00	2024-11-08T04:00:00	8	Radiación solar	0
179313	7	Sololá	719	Santiago Atitlán	14	Cerro de Oro	10	Octubre	2023-10-20T00:00:00	2024-11-08T05:00:00	2	Temperatura media	18.4
179314	7	Sololá	719	Santiago Atitlán	14	Cerro de Oro	10	Octubre	2023-10-20T00:00:00	2024-11-08T05:00:00	4	Temperatura máxima	18.6
179315	7	Sololá	719	Santiago Atitlán	14	Cerro de Oro	10	Octubre	2023-10-20T00:00:00	2024-11-08T05:00:00	3	Temperatura mínima	18.3
179316	7	Sololá	719	Santiago Atitlán	14	Cerro de Oro	10	Octubre	2023-10-20T00:00:00	2024-11-08T05:00:00	5	Humedad	78
179317	7	Sololá	719	Santiago Atitlán	14	Cerro de Oro	10	Octubre	2023-10-20T00:00:00	2024-11-08T05:00:00	6	Velocidad del viento	12.9
179318	7	Sololá	719	Santiago Atitlán	14	Cerro de Oro	10	Octubre	2023-10-20T00:00:00	2024-11-08T05:00:00	7	Dirección del viento	12.87
179319	7	Sololá	719	Santiago Atitlán	14	Cerro de Oro	10	Octubre	2023-10-20T00:00:00	2024-11-08T05:00:00	1	Precipitación	0
179320	7	Sololá	719	Santiago Atitlán	14	Cerro de Oro	10	Octubre	2023-10-20T00:00:00	2024-11-08T05:00:00	8	Radiación solar	0
179321	7	Sololá	719	Santiago Atitlán	14	Cerro de Oro	10	Octubre	2023-10-20T00:00:00	2024-11-08T06:00:00	2	Temperatura media	18.1
179322	7	Sololá	719	Santiago Atitlán	14	Cerro de Oro	10	Octubre	2023-10-20T00:00:00	2024-11-08T06:00:00	4	Temperatura máxima	18.6
179323	7	Sololá	719	Santiago Atitlán	14	Cerro de Oro	10	Octubre	2023-10-20T00:00:00	2024-11-08T06:00:00	3	Temperatura mínima	18.1
179324	7	Sololá	719	Santiago Atitlán	14	Cerro de Oro	10	Octubre	2023-10-20T00:00:00	2024-11-08T06:00:00	5	Humedad	80
179325	7	Sololá	719	Santiago Atitlán	14	Cerro de Oro	10	Octubre	2023-10-20T00:00:00	2024-11-08T06:00:00	6	Velocidad del viento	6.4
179326	7	Sololá	719	Santiago Atitlán	14	Cerro de Oro	10	Octubre	2023-10-20T00:00:00	2024-11-08T06:00:00	7	Dirección del viento	6.44
179327	7	Sololá	719	Santiago Atitlán	14	Cerro de Oro	10	Octubre	2023-10-20T00:00:00	2024-11-08T06:00:00	1	Precipitación	0
179328	7	Sololá	719	Santiago Atitlán	14	Cerro de Oro	10	Octubre	2023-10-20T00:00:00	2024-11-08T06:00:00	8	Radiación solar	0
179329	7	Sololá	719	Santiago Atitlán	14	Cerro de Oro	10	Octubre	2023-10-20T00:00:00	2024-11-08T07:00:00	2	Temperatura media	17.9
179330	7	Sololá	719	Santiago Atitlán	14	Cerro de Oro	10	Octubre	2023-10-20T00:00:00	2024-11-08T07:00:00	4	Temperatura máxima	18.2
179331	7	Sololá	719	Santiago Atitlán	14	Cerro de Oro	10	Octubre	2023-10-20T00:00:00	2024-11-08T07:00:00	3	Temperatura mínima	17.9
179332	7	Sololá	719	Santiago Atitlán	14	Cerro de Oro	10	Octubre	2023-10-20T00:00:00	2024-11-08T07:00:00	5	Humedad	78
179333	7	Sololá	719	Santiago Atitlán	14	Cerro de Oro	10	Octubre	2023-10-20T00:00:00	2024-11-08T07:00:00	6	Velocidad del viento	11.3
179334	7	Sololá	719	Santiago Atitlán	14	Cerro de Oro	10	Octubre	2023-10-20T00:00:00	2024-11-08T07:00:00	7	Dirección del viento	11.27
179335	7	Sololá	719	Santiago Atitlán	14	Cerro de Oro	10	Octubre	2023-10-20T00:00:00	2024-11-08T07:00:00	1	Precipitación	0
179336	7	Sololá	719	Santiago Atitlán	14	Cerro de Oro	10	Octubre	2023-10-20T00:00:00	2024-11-08T07:00:00	8	Radiación solar	8
179337	7	Sololá	719	Santiago Atitlán	14	Cerro de Oro	10	Octubre	2023-10-20T00:00:00	2024-11-08T08:00:00	2	Temperatura media	19.2
179338	7	Sololá	719	Santiago Atitlán	14	Cerro de Oro	10	Octubre	2023-10-20T00:00:00	2024-11-08T08:00:00	4	Temperatura máxima	19.2
179339	7	Sololá	719	Santiago Atitlán	14	Cerro de Oro	10	Octubre	2023-10-20T00:00:00	2024-11-08T08:00:00	3	Temperatura mínima	17.9
179340	7	Sololá	719	Santiago Atitlán	14	Cerro de Oro	10	Octubre	2023-10-20T00:00:00	2024-11-08T08:00:00	5	Humedad	77
179341	7	Sololá	719	Santiago Atitlán	14	Cerro de Oro	10	Octubre	2023-10-20T00:00:00	2024-11-08T08:00:00	6	Velocidad del viento	11.3
179342	7	Sololá	719	Santiago Atitlán	14	Cerro de Oro	10	Octubre	2023-10-20T00:00:00	2024-11-08T08:00:00	7	Dirección del viento	11.27
179343	7	Sololá	719	Santiago Atitlán	14	Cerro de Oro	10	Octubre	2023-10-20T00:00:00	2024-11-08T08:00:00	1	Precipitación	0
179344	7	Sololá	719	Santiago Atitlán	14	Cerro de Oro	10	Octubre	2023-10-20T00:00:00	2024-11-08T08:00:00	8	Radiación solar	109
179345	7	Sololá	719	Santiago Atitlán	14	Cerro de Oro	10	Octubre	2023-10-20T00:00:00	2024-11-08T09:00:00	2	Temperatura media	21.2
179346	7	Sololá	719	Santiago Atitlán	14	Cerro de Oro	10	Octubre	2023-10-20T00:00:00	2024-11-08T09:00:00	4	Temperatura máxima	21.2
179347	7	Sololá	719	Santiago Atitlán	14	Cerro de Oro	10	Octubre	2023-10-20T00:00:00	2024-11-08T09:00:00	3	Temperatura mínima	19.1
179348	7	Sololá	719	Santiago Atitlán	14	Cerro de Oro	10	Octubre	2023-10-20T00:00:00	2024-11-08T09:00:00	5	Humedad	75
179349	7	Sololá	719	Santiago Atitlán	14	Cerro de Oro	10	Octubre	2023-10-20T00:00:00	2024-11-08T09:00:00	6	Velocidad del viento	6.4
179350	7	Sololá	719	Santiago Atitlán	14	Cerro de Oro	10	Octubre	2023-10-20T00:00:00	2024-11-08T09:00:00	7	Dirección del viento	6.44
179351	7	Sololá	719	Santiago Atitlán	14	Cerro de Oro	10	Octubre	2023-10-20T00:00:00	2024-11-08T09:00:00	1	Precipitación	0
179352	7	Sololá	719	Santiago Atitlán	14	Cerro de Oro	10	Octubre	2023-10-20T00:00:00	2024-11-08T09:00:00	8	Radiación solar	288
179353	7	Sololá	719	Santiago Atitlán	14	Cerro de Oro	10	Octubre	2023-10-20T00:00:00	2024-11-08T10:00:00	2	Temperatura media	22.4
179354	7	Sololá	719	Santiago Atitlán	14	Cerro de Oro	10	Octubre	2023-10-20T00:00:00	2024-11-08T10:00:00	4	Temperatura máxima	22.4
179355	7	Sololá	719	Santiago Atitlán	14	Cerro de Oro	10	Octubre	2023-10-20T00:00:00	2024-11-08T10:00:00	3	Temperatura mínima	21.2
179356	7	Sololá	719	Santiago Atitlán	14	Cerro de Oro	10	Octubre	2023-10-20T00:00:00	2024-11-08T10:00:00	5	Humedad	71
179357	7	Sololá	719	Santiago Atitlán	14	Cerro de Oro	10	Octubre	2023-10-20T00:00:00	2024-11-08T10:00:00	6	Velocidad del viento	3.2
179358	7	Sololá	719	Santiago Atitlán	14	Cerro de Oro	10	Octubre	2023-10-20T00:00:00	2024-11-08T10:00:00	7	Dirección del viento	3.22
179359	7	Sololá	719	Santiago Atitlán	14	Cerro de Oro	10	Octubre	2023-10-20T00:00:00	2024-11-08T10:00:00	1	Precipitación	0
179360	7	Sololá	719	Santiago Atitlán	14	Cerro de Oro	10	Octubre	2023-10-20T00:00:00	2024-11-08T10:00:00	8	Radiación solar	530
179361	7	Sololá	719	Santiago Atitlán	14	Cerro de Oro	10	Octubre	2023-10-20T00:00:00	2024-11-08T11:00:00	2	Temperatura media	22.5
179362	7	Sololá	719	Santiago Atitlán	14	Cerro de Oro	10	Octubre	2023-10-20T00:00:00	2024-11-08T11:00:00	4	Temperatura máxima	23.1
179363	7	Sololá	719	Santiago Atitlán	14	Cerro de Oro	10	Octubre	2023-10-20T00:00:00	2024-11-08T11:00:00	3	Temperatura mínima	22.3
179364	7	Sololá	719	Santiago Atitlán	14	Cerro de Oro	10	Octubre	2023-10-20T00:00:00	2024-11-08T11:00:00	5	Humedad	73
179365	7	Sololá	719	Santiago Atitlán	14	Cerro de Oro	10	Octubre	2023-10-20T00:00:00	2024-11-08T11:00:00	6	Velocidad del viento	3.2
179366	7	Sololá	719	Santiago Atitlán	14	Cerro de Oro	10	Octubre	2023-10-20T00:00:00	2024-11-08T11:00:00	7	Dirección del viento	3.22
179367	7	Sololá	719	Santiago Atitlán	14	Cerro de Oro	10	Octubre	2023-10-20T00:00:00	2024-11-08T11:00:00	1	Precipitación	0
179368	7	Sololá	719	Santiago Atitlán	14	Cerro de Oro	10	Octubre	2023-10-20T00:00:00	2024-11-08T11:00:00	8	Radiación solar	720
179369	7	Sololá	719	Santiago Atitlán	14	Cerro de Oro	10	Octubre	2023-10-20T00:00:00	2024-11-08T12:00:00	2	Temperatura media	24.2
179370	7	Sololá	719	Santiago Atitlán	14	Cerro de Oro	10	Octubre	2023-10-20T00:00:00	2024-11-08T12:00:00	4	Temperatura máxima	24.2
179371	7	Sololá	719	Santiago Atitlán	14	Cerro de Oro	10	Octubre	2023-10-20T00:00:00	2024-11-08T12:00:00	3	Temperatura mínima	22.6
179372	7	Sololá	719	Santiago Atitlán	14	Cerro de Oro	10	Octubre	2023-10-20T00:00:00	2024-11-08T12:00:00	5	Humedad	70
179373	7	Sololá	719	Santiago Atitlán	14	Cerro de Oro	10	Octubre	2023-10-20T00:00:00	2024-11-08T12:00:00	6	Velocidad del viento	4.8
179374	7	Sololá	719	Santiago Atitlán	14	Cerro de Oro	10	Octubre	2023-10-20T00:00:00	2024-11-08T12:00:00	7	Dirección del viento	4.83
179375	7	Sololá	719	Santiago Atitlán	14	Cerro de Oro	10	Octubre	2023-10-20T00:00:00	2024-11-08T12:00:00	1	Precipitación	0
179376	7	Sololá	719	Santiago Atitlán	14	Cerro de Oro	10	Octubre	2023-10-20T00:00:00	2024-11-08T12:00:00	8	Radiación solar	793
179377	7	Sololá	719	Santiago Atitlán	14	Cerro de Oro	10	Octubre	2023-10-20T00:00:00	2024-11-08T13:00:00	2	Temperatura media	23.1
179378	7	Sololá	719	Santiago Atitlán	14	Cerro de Oro	10	Octubre	2023-10-20T00:00:00	2024-11-08T13:00:00	4	Temperatura máxima	24.4
179379	7	Sololá	719	Santiago Atitlán	14	Cerro de Oro	10	Octubre	2023-10-20T00:00:00	2024-11-08T13:00:00	3	Temperatura mínima	22.8
179380	7	Sololá	719	Santiago Atitlán	14	Cerro de Oro	10	Octubre	2023-10-20T00:00:00	2024-11-08T13:00:00	5	Humedad	73
179381	7	Sololá	719	Santiago Atitlán	14	Cerro de Oro	10	Octubre	2023-10-20T00:00:00	2024-11-08T13:00:00	6	Velocidad del viento	6.4
179382	7	Sololá	719	Santiago Atitlán	14	Cerro de Oro	10	Octubre	2023-10-20T00:00:00	2024-11-08T13:00:00	7	Dirección del viento	6.44
179383	7	Sololá	719	Santiago Atitlán	14	Cerro de Oro	10	Octubre	2023-10-20T00:00:00	2024-11-08T13:00:00	1	Precipitación	0
179384	7	Sololá	719	Santiago Atitlán	14	Cerro de Oro	10	Octubre	2023-10-20T00:00:00	2024-11-08T13:00:00	8	Radiación solar	852
179385	7	Sololá	719	Santiago Atitlán	14	Cerro de Oro	10	Octubre	2023-10-20T00:00:00	2024-11-08T14:00:00	2	Temperatura media	22.9
179386	7	Sololá	719	Santiago Atitlán	14	Cerro de Oro	10	Octubre	2023-10-20T00:00:00	2024-11-08T14:00:00	4	Temperatura máxima	23.1
179387	7	Sololá	719	Santiago Atitlán	14	Cerro de Oro	10	Octubre	2023-10-20T00:00:00	2024-11-08T14:00:00	3	Temperatura mínima	22.2
179388	7	Sololá	719	Santiago Atitlán	14	Cerro de Oro	10	Octubre	2023-10-20T00:00:00	2024-11-08T14:00:00	5	Humedad	74
179389	7	Sololá	719	Santiago Atitlán	14	Cerro de Oro	10	Octubre	2023-10-20T00:00:00	2024-11-08T14:00:00	6	Velocidad del viento	3.2
179390	7	Sololá	719	Santiago Atitlán	14	Cerro de Oro	10	Octubre	2023-10-20T00:00:00	2024-11-08T14:00:00	7	Dirección del viento	3.22
179391	7	Sololá	719	Santiago Atitlán	14	Cerro de Oro	10	Octubre	2023-10-20T00:00:00	2024-11-08T14:00:00	1	Precipitación	0
179392	7	Sololá	719	Santiago Atitlán	14	Cerro de Oro	10	Octubre	2023-10-20T00:00:00	2024-11-08T14:00:00	8	Radiación solar	868
179393	7	Sololá	719	Santiago Atitlán	14	Cerro de Oro	10	Octubre	2023-10-20T00:00:00	2024-11-08T15:00:00	2	Temperatura media	22.6
179394	7	Sololá	719	Santiago Atitlán	14	Cerro de Oro	10	Octubre	2023-10-20T00:00:00	2024-11-08T15:00:00	4	Temperatura máxima	23.3
179395	7	Sololá	719	Santiago Atitlán	14	Cerro de Oro	10	Octubre	2023-10-20T00:00:00	2024-11-08T15:00:00	3	Temperatura mínima	22.5
179396	7	Sololá	719	Santiago Atitlán	14	Cerro de Oro	10	Octubre	2023-10-20T00:00:00	2024-11-08T15:00:00	5	Humedad	77
179397	7	Sololá	719	Santiago Atitlán	14	Cerro de Oro	10	Octubre	2023-10-20T00:00:00	2024-11-08T15:00:00	6	Velocidad del viento	4.8
179398	7	Sololá	719	Santiago Atitlán	14	Cerro de Oro	10	Octubre	2023-10-20T00:00:00	2024-11-08T15:00:00	7	Dirección del viento	4.83
179399	7	Sololá	719	Santiago Atitlán	14	Cerro de Oro	10	Octubre	2023-10-20T00:00:00	2024-11-08T15:00:00	1	Precipitación	0
179400	7	Sololá	719	Santiago Atitlán	14	Cerro de Oro	10	Octubre	2023-10-20T00:00:00	2024-11-08T15:00:00	8	Radiación solar	851
179401	7	Sololá	719	Santiago Atitlán	14	Cerro de Oro	10	Octubre	2023-10-20T00:00:00	2024-11-08T16:00:00	2	Temperatura media	22
179402	7	Sololá	719	Santiago Atitlán	14	Cerro de Oro	10	Octubre	2023-10-20T00:00:00	2024-11-08T16:00:00	4	Temperatura máxima	22.5
179403	7	Sololá	719	Santiago Atitlán	14	Cerro de Oro	10	Octubre	2023-10-20T00:00:00	2024-11-08T16:00:00	3	Temperatura mínima	21.9
179404	7	Sololá	719	Santiago Atitlán	14	Cerro de Oro	10	Octubre	2023-10-20T00:00:00	2024-11-08T16:00:00	5	Humedad	80
179405	7	Sololá	719	Santiago Atitlán	14	Cerro de Oro	10	Octubre	2023-10-20T00:00:00	2024-11-08T16:00:00	6	Velocidad del viento	1.6
179406	7	Sololá	719	Santiago Atitlán	14	Cerro de Oro	10	Octubre	2023-10-20T00:00:00	2024-11-08T16:00:00	7	Dirección del viento	1.61
179407	7	Sololá	719	Santiago Atitlán	14	Cerro de Oro	10	Octubre	2023-10-20T00:00:00	2024-11-08T16:00:00	1	Precipitación	0
179408	7	Sololá	719	Santiago Atitlán	14	Cerro de Oro	10	Octubre	2023-10-20T00:00:00	2024-11-08T16:00:00	8	Radiación solar	720
179409	7	Sololá	719	Santiago Atitlán	14	Cerro de Oro	10	Octubre	2023-10-20T00:00:00	2024-11-08T17:00:00	2	Temperatura media	23.1
179410	7	Sololá	719	Santiago Atitlán	14	Cerro de Oro	10	Octubre	2023-10-20T00:00:00	2024-11-08T17:00:00	4	Temperatura máxima	23.2
179411	7	Sololá	719	Santiago Atitlán	14	Cerro de Oro	10	Octubre	2023-10-20T00:00:00	2024-11-08T17:00:00	3	Temperatura mínima	22.1
179412	7	Sololá	719	Santiago Atitlán	14	Cerro de Oro	10	Octubre	2023-10-20T00:00:00	2024-11-08T17:00:00	5	Humedad	77
179413	7	Sololá	719	Santiago Atitlán	14	Cerro de Oro	10	Octubre	2023-10-20T00:00:00	2024-11-08T17:00:00	6	Velocidad del viento	3.2
179414	7	Sololá	719	Santiago Atitlán	14	Cerro de Oro	10	Octubre	2023-10-20T00:00:00	2024-11-08T17:00:00	7	Dirección del viento	3.22
179415	7	Sololá	719	Santiago Atitlán	14	Cerro de Oro	10	Octubre	2023-10-20T00:00:00	2024-11-08T17:00:00	1	Precipitación	0
179416	7	Sololá	719	Santiago Atitlán	14	Cerro de Oro	10	Octubre	2023-10-20T00:00:00	2024-11-08T17:00:00	8	Radiación solar	429
179417	7	Sololá	719	Santiago Atitlán	14	Cerro de Oro	10	Octubre	2023-10-20T00:00:00	2024-11-08T18:00:00	2	Temperatura media	20.4
179418	7	Sololá	719	Santiago Atitlán	14	Cerro de Oro	10	Octubre	2023-10-20T00:00:00	2024-11-08T18:00:00	4	Temperatura máxima	23.1
179419	7	Sololá	719	Santiago Atitlán	14	Cerro de Oro	10	Octubre	2023-10-20T00:00:00	2024-11-08T18:00:00	3	Temperatura mínima	20.4
179420	7	Sololá	719	Santiago Atitlán	14	Cerro de Oro	10	Octubre	2023-10-20T00:00:00	2024-11-08T18:00:00	5	Humedad	86
179421	7	Sololá	719	Santiago Atitlán	14	Cerro de Oro	10	Octubre	2023-10-20T00:00:00	2024-11-08T18:00:00	6	Velocidad del viento	3.2
179422	7	Sololá	719	Santiago Atitlán	14	Cerro de Oro	10	Octubre	2023-10-20T00:00:00	2024-11-08T18:00:00	7	Dirección del viento	3.22
179423	7	Sololá	719	Santiago Atitlán	14	Cerro de Oro	10	Octubre	2023-10-20T00:00:00	2024-11-08T18:00:00	1	Precipitación	0
179424	7	Sololá	719	Santiago Atitlán	14	Cerro de Oro	10	Octubre	2023-10-20T00:00:00	2024-11-08T18:00:00	8	Radiación solar	387
179425	7	Sololá	719	Santiago Atitlán	14	Cerro de Oro	10	Octubre	2023-10-20T00:00:00	2024-11-08T19:00:00	2	Temperatura media	19.9
179426	7	Sololá	719	Santiago Atitlán	14	Cerro de Oro	10	Octubre	2023-10-20T00:00:00	2024-11-08T19:00:00	4	Temperatura máxima	20.3
179427	7	Sololá	719	Santiago Atitlán	14	Cerro de Oro	10	Octubre	2023-10-20T00:00:00	2024-11-08T19:00:00	3	Temperatura mínima	19.9
179428	7	Sololá	719	Santiago Atitlán	14	Cerro de Oro	10	Octubre	2023-10-20T00:00:00	2024-11-08T19:00:00	5	Humedad	82
179429	7	Sololá	719	Santiago Atitlán	14	Cerro de Oro	10	Octubre	2023-10-20T00:00:00	2024-11-08T19:00:00	6	Velocidad del viento	1.6
179430	7	Sololá	719	Santiago Atitlán	14	Cerro de Oro	10	Octubre	2023-10-20T00:00:00	2024-11-08T19:00:00	7	Dirección del viento	1.61
179431	7	Sololá	719	Santiago Atitlán	14	Cerro de Oro	10	Octubre	2023-10-20T00:00:00	2024-11-08T19:00:00	1	Precipitación	0
179432	7	Sololá	719	Santiago Atitlán	14	Cerro de Oro	10	Octubre	2023-10-20T00:00:00	2024-11-08T19:00:00	8	Radiación solar	0
179433	7	Sololá	719	Santiago Atitlán	14	Cerro de Oro	10	Octubre	2023-10-20T00:00:00	2024-11-08T20:00:00	2	Temperatura media	19.9
179434	7	Sololá	719	Santiago Atitlán	14	Cerro de Oro	10	Octubre	2023-10-20T00:00:00	2024-11-08T20:00:00	4	Temperatura máxima	20.2
179435	7	Sololá	719	Santiago Atitlán	14	Cerro de Oro	10	Octubre	2023-10-20T00:00:00	2024-11-08T20:00:00	3	Temperatura mínima	19.8
179436	7	Sololá	719	Santiago Atitlán	14	Cerro de Oro	10	Octubre	2023-10-20T00:00:00	2024-11-08T20:00:00	5	Humedad	77
179437	7	Sololá	719	Santiago Atitlán	14	Cerro de Oro	10	Octubre	2023-10-20T00:00:00	2024-11-08T20:00:00	6	Velocidad del viento	8
179438	7	Sololá	719	Santiago Atitlán	14	Cerro de Oro	10	Octubre	2023-10-20T00:00:00	2024-11-08T20:00:00	7	Dirección del viento	8.05
179439	7	Sololá	719	Santiago Atitlán	14	Cerro de Oro	10	Octubre	2023-10-20T00:00:00	2024-11-08T20:00:00	1	Precipitación	0
179440	7	Sololá	719	Santiago Atitlán	14	Cerro de Oro	10	Octubre	2023-10-20T00:00:00	2024-11-08T20:00:00	8	Radiación solar	0
179441	7	Sololá	719	Santiago Atitlán	14	Cerro de Oro	10	Octubre	2023-10-20T00:00:00	2024-11-08T21:00:00	2	Temperatura media	19.7
179442	7	Sololá	719	Santiago Atitlán	14	Cerro de Oro	10	Octubre	2023-10-20T00:00:00	2024-11-08T21:00:00	4	Temperatura máxima	19.9
179443	7	Sololá	719	Santiago Atitlán	14	Cerro de Oro	10	Octubre	2023-10-20T00:00:00	2024-11-08T21:00:00	3	Temperatura mínima	19.6
179444	7	Sololá	719	Santiago Atitlán	14	Cerro de Oro	10	Octubre	2023-10-20T00:00:00	2024-11-08T21:00:00	5	Humedad	77
179445	7	Sololá	719	Santiago Atitlán	14	Cerro de Oro	10	Octubre	2023-10-20T00:00:00	2024-11-08T21:00:00	6	Velocidad del viento	9.7
179446	7	Sololá	719	Santiago Atitlán	14	Cerro de Oro	10	Octubre	2023-10-20T00:00:00	2024-11-08T21:00:00	7	Dirección del viento	9.66
179447	7	Sololá	719	Santiago Atitlán	14	Cerro de Oro	10	Octubre	2023-10-20T00:00:00	2024-11-08T21:00:00	1	Precipitación	0
179448	7	Sololá	719	Santiago Atitlán	14	Cerro de Oro	10	Octubre	2023-10-20T00:00:00	2024-11-08T21:00:00	8	Radiación solar	0
179449	7	Sololá	719	Santiago Atitlán	14	Cerro de Oro	10	Octubre	2023-10-20T00:00:00	2024-11-08T22:00:00	2	Temperatura media	19.4
179450	7	Sololá	719	Santiago Atitlán	14	Cerro de Oro	10	Octubre	2023-10-20T00:00:00	2024-11-08T22:00:00	4	Temperatura máxima	19.8
179451	7	Sololá	719	Santiago Atitlán	14	Cerro de Oro	10	Octubre	2023-10-20T00:00:00	2024-11-08T22:00:00	3	Temperatura mínima	19.4
179452	7	Sololá	719	Santiago Atitlán	14	Cerro de Oro	10	Octubre	2023-10-20T00:00:00	2024-11-08T22:00:00	5	Humedad	77
179453	7	Sololá	719	Santiago Atitlán	14	Cerro de Oro	10	Octubre	2023-10-20T00:00:00	2024-11-08T22:00:00	6	Velocidad del viento	9.7
179454	7	Sololá	719	Santiago Atitlán	14	Cerro de Oro	10	Octubre	2023-10-20T00:00:00	2024-11-08T22:00:00	7	Dirección del viento	9.66
179455	7	Sololá	719	Santiago Atitlán	14	Cerro de Oro	10	Octubre	2023-10-20T00:00:00	2024-11-08T22:00:00	1	Precipitación	0
179456	7	Sololá	719	Santiago Atitlán	14	Cerro de Oro	10	Octubre	2023-10-20T00:00:00	2024-11-08T22:00:00	8	Radiación solar	0
179457	7	Sololá	719	Santiago Atitlán	14	Cerro de Oro	10	Octubre	2023-10-20T00:00:00	2024-11-08T23:00:00	2	Temperatura media	19.4
179458	7	Sololá	719	Santiago Atitlán	14	Cerro de Oro	10	Octubre	2023-10-20T00:00:00	2024-11-08T23:00:00	4	Temperatura máxima	19.6
179459	7	Sololá	719	Santiago Atitlán	14	Cerro de Oro	10	Octubre	2023-10-20T00:00:00	2024-11-08T23:00:00	3	Temperatura mínima	19.4
179460	7	Sololá	719	Santiago Atitlán	14	Cerro de Oro	10	Octubre	2023-10-20T00:00:00	2024-11-08T23:00:00	5	Humedad	76
179461	7	Sololá	719	Santiago Atitlán	14	Cerro de Oro	10	Octubre	2023-10-20T00:00:00	2024-11-08T23:00:00	6	Velocidad del viento	11.3
179462	7	Sololá	719	Santiago Atitlán	14	Cerro de Oro	10	Octubre	2023-10-20T00:00:00	2024-11-08T23:00:00	7	Dirección del viento	11.27
179463	7	Sololá	719	Santiago Atitlán	14	Cerro de Oro	10	Octubre	2023-10-20T00:00:00	2024-11-08T23:00:00	1	Precipitación	0
179464	7	Sololá	719	Santiago Atitlán	14	Cerro de Oro	10	Octubre	2023-10-20T00:00:00	2024-11-08T23:00:00	8	Radiación solar	0
179465	7	Sololá	719	Santiago Atitlán	14	Cerro de Oro	10	Octubre	2023-10-21T00:00:00	2024-11-08T00:00:00	2	Temperatura media	19.2
179466	7	Sololá	719	Santiago Atitlán	14	Cerro de Oro	10	Octubre	2023-10-21T00:00:00	2024-11-08T00:00:00	4	Temperatura máxima	19.5
179467	7	Sololá	719	Santiago Atitlán	14	Cerro de Oro	10	Octubre	2023-10-21T00:00:00	2024-11-08T00:00:00	3	Temperatura mínima	19.1
179468	7	Sololá	719	Santiago Atitlán	14	Cerro de Oro	10	Octubre	2023-10-21T00:00:00	2024-11-08T00:00:00	5	Humedad	75
179469	7	Sololá	719	Santiago Atitlán	14	Cerro de Oro	10	Octubre	2023-10-21T00:00:00	2024-11-08T00:00:00	6	Velocidad del viento	11.3
179470	7	Sololá	719	Santiago Atitlán	14	Cerro de Oro	10	Octubre	2023-10-21T00:00:00	2024-11-08T00:00:00	7	Dirección del viento	11.27
179471	7	Sololá	719	Santiago Atitlán	14	Cerro de Oro	10	Octubre	2023-10-21T00:00:00	2024-11-08T00:00:00	1	Precipitación	0
179472	7	Sololá	719	Santiago Atitlán	14	Cerro de Oro	10	Octubre	2023-10-21T00:00:00	2024-11-08T00:00:00	8	Radiación solar	0
179473	7	Sololá	719	Santiago Atitlán	14	Cerro de Oro	10	Octubre	2023-10-21T00:00:00	2024-11-08T01:00:00	2	Temperatura media	18.7
179474	7	Sololá	719	Santiago Atitlán	14	Cerro de Oro	10	Octubre	2023-10-21T00:00:00	2024-11-08T01:00:00	4	Temperatura máxima	19.4
179475	7	Sololá	719	Santiago Atitlán	14	Cerro de Oro	10	Octubre	2023-10-21T00:00:00	2024-11-08T01:00:00	3	Temperatura mínima	18.7
179476	7	Sololá	719	Santiago Atitlán	14	Cerro de Oro	10	Octubre	2023-10-21T00:00:00	2024-11-08T01:00:00	5	Humedad	76
179477	7	Sololá	719	Santiago Atitlán	14	Cerro de Oro	10	Octubre	2023-10-21T00:00:00	2024-11-08T01:00:00	6	Velocidad del viento	9.7
179478	7	Sololá	719	Santiago Atitlán	14	Cerro de Oro	10	Octubre	2023-10-21T00:00:00	2024-11-08T01:00:00	7	Dirección del viento	9.66
179479	7	Sololá	719	Santiago Atitlán	14	Cerro de Oro	10	Octubre	2023-10-21T00:00:00	2024-11-08T01:00:00	1	Precipitación	0
179480	7	Sololá	719	Santiago Atitlán	14	Cerro de Oro	10	Octubre	2023-10-21T00:00:00	2024-11-08T01:00:00	8	Radiación solar	0
179481	7	Sololá	719	Santiago Atitlán	14	Cerro de Oro	10	Octubre	2023-10-21T00:00:00	2024-11-08T02:00:00	2	Temperatura media	18.2
179482	7	Sololá	719	Santiago Atitlán	14	Cerro de Oro	10	Octubre	2023-10-21T00:00:00	2024-11-08T02:00:00	4	Temperatura máxima	18.7
179483	7	Sololá	719	Santiago Atitlán	14	Cerro de Oro	10	Octubre	2023-10-21T00:00:00	2024-11-08T02:00:00	3	Temperatura mínima	18.2
179484	7	Sololá	719	Santiago Atitlán	14	Cerro de Oro	10	Octubre	2023-10-21T00:00:00	2024-11-08T02:00:00	5	Humedad	77
179485	7	Sololá	719	Santiago Atitlán	14	Cerro de Oro	10	Octubre	2023-10-21T00:00:00	2024-11-08T02:00:00	6	Velocidad del viento	8
179486	7	Sololá	719	Santiago Atitlán	14	Cerro de Oro	10	Octubre	2023-10-21T00:00:00	2024-11-08T02:00:00	7	Dirección del viento	8.05
179487	7	Sololá	719	Santiago Atitlán	14	Cerro de Oro	10	Octubre	2023-10-21T00:00:00	2024-11-08T02:00:00	1	Precipitación	0
179488	7	Sololá	719	Santiago Atitlán	14	Cerro de Oro	10	Octubre	2023-10-21T00:00:00	2024-11-08T02:00:00	8	Radiación solar	0
179489	7	Sololá	719	Santiago Atitlán	14	Cerro de Oro	10	Octubre	2023-10-21T00:00:00	2024-11-08T03:00:00	2	Temperatura media	18
179490	7	Sololá	719	Santiago Atitlán	14	Cerro de Oro	10	Octubre	2023-10-21T00:00:00	2024-11-08T03:00:00	4	Temperatura máxima	18.2
179491	7	Sololá	719	Santiago Atitlán	14	Cerro de Oro	10	Octubre	2023-10-21T00:00:00	2024-11-08T03:00:00	3	Temperatura mínima	17.9
179492	7	Sololá	719	Santiago Atitlán	14	Cerro de Oro	10	Octubre	2023-10-21T00:00:00	2024-11-08T03:00:00	5	Humedad	76
179493	7	Sololá	719	Santiago Atitlán	14	Cerro de Oro	10	Octubre	2023-10-21T00:00:00	2024-11-08T03:00:00	6	Velocidad del viento	9.7
179494	7	Sololá	719	Santiago Atitlán	14	Cerro de Oro	10	Octubre	2023-10-21T00:00:00	2024-11-08T03:00:00	7	Dirección del viento	9.66
179495	7	Sololá	719	Santiago Atitlán	14	Cerro de Oro	10	Octubre	2023-10-21T00:00:00	2024-11-08T03:00:00	1	Precipitación	0
179496	7	Sololá	719	Santiago Atitlán	14	Cerro de Oro	10	Octubre	2023-10-21T00:00:00	2024-11-08T03:00:00	8	Radiación solar	0
179497	7	Sololá	719	Santiago Atitlán	14	Cerro de Oro	10	Octubre	2023-10-21T00:00:00	2024-11-08T04:00:00	2	Temperatura media	16.9
179498	7	Sololá	719	Santiago Atitlán	14	Cerro de Oro	10	Octubre	2023-10-21T00:00:00	2024-11-08T04:00:00	4	Temperatura máxima	18
179499	7	Sololá	719	Santiago Atitlán	14	Cerro de Oro	10	Octubre	2023-10-21T00:00:00	2024-11-08T04:00:00	3	Temperatura mínima	16.9
179500	7	Sololá	719	Santiago Atitlán	14	Cerro de Oro	10	Octubre	2023-10-21T00:00:00	2024-11-08T04:00:00	5	Humedad	80
179501	7	Sololá	719	Santiago Atitlán	14	Cerro de Oro	10	Octubre	2023-10-21T00:00:00	2024-11-08T04:00:00	6	Velocidad del viento	16.1
179502	7	Sololá	719	Santiago Atitlán	14	Cerro de Oro	10	Octubre	2023-10-21T00:00:00	2024-11-08T04:00:00	7	Dirección del viento	16.09
179503	7	Sololá	719	Santiago Atitlán	14	Cerro de Oro	10	Octubre	2023-10-21T00:00:00	2024-11-08T04:00:00	1	Precipitación	0
179504	7	Sololá	719	Santiago Atitlán	14	Cerro de Oro	10	Octubre	2023-10-21T00:00:00	2024-11-08T04:00:00	8	Radiación solar	0
179505	7	Sololá	719	Santiago Atitlán	14	Cerro de Oro	10	Octubre	2023-10-21T00:00:00	2024-11-08T05:00:00	2	Temperatura media	16.8
179506	7	Sololá	719	Santiago Atitlán	14	Cerro de Oro	10	Octubre	2023-10-21T00:00:00	2024-11-08T05:00:00	4	Temperatura máxima	16.9
179507	7	Sololá	719	Santiago Atitlán	14	Cerro de Oro	10	Octubre	2023-10-21T00:00:00	2024-11-08T05:00:00	3	Temperatura mínima	16.3
179508	7	Sololá	719	Santiago Atitlán	14	Cerro de Oro	10	Octubre	2023-10-21T00:00:00	2024-11-08T05:00:00	5	Humedad	81
179509	7	Sololá	719	Santiago Atitlán	14	Cerro de Oro	10	Octubre	2023-10-21T00:00:00	2024-11-08T05:00:00	6	Velocidad del viento	22.5
179510	7	Sololá	719	Santiago Atitlán	14	Cerro de Oro	10	Octubre	2023-10-21T00:00:00	2024-11-08T05:00:00	7	Dirección del viento	22.53
179511	7	Sololá	719	Santiago Atitlán	14	Cerro de Oro	10	Octubre	2023-10-21T00:00:00	2024-11-08T05:00:00	1	Precipitación	0
179512	7	Sololá	719	Santiago Atitlán	14	Cerro de Oro	10	Octubre	2023-10-21T00:00:00	2024-11-08T05:00:00	8	Radiación solar	0
179513	7	Sololá	719	Santiago Atitlán	14	Cerro de Oro	10	Octubre	2023-10-21T00:00:00	2024-11-08T06:00:00	2	Temperatura media	17.5
179514	7	Sololá	719	Santiago Atitlán	14	Cerro de Oro	10	Octubre	2023-10-21T00:00:00	2024-11-08T06:00:00	4	Temperatura máxima	17.5
179515	7	Sololá	719	Santiago Atitlán	14	Cerro de Oro	10	Octubre	2023-10-21T00:00:00	2024-11-08T06:00:00	3	Temperatura mínima	16.8
179516	7	Sololá	719	Santiago Atitlán	14	Cerro de Oro	10	Octubre	2023-10-21T00:00:00	2024-11-08T06:00:00	5	Humedad	78
179517	7	Sololá	719	Santiago Atitlán	14	Cerro de Oro	10	Octubre	2023-10-21T00:00:00	2024-11-08T06:00:00	6	Velocidad del viento	17.7
179518	7	Sololá	719	Santiago Atitlán	14	Cerro de Oro	10	Octubre	2023-10-21T00:00:00	2024-11-08T06:00:00	7	Dirección del viento	17.7
179519	7	Sololá	719	Santiago Atitlán	14	Cerro de Oro	10	Octubre	2023-10-21T00:00:00	2024-11-08T06:00:00	1	Precipitación	0
179520	7	Sololá	719	Santiago Atitlán	14	Cerro de Oro	10	Octubre	2023-10-21T00:00:00	2024-11-08T06:00:00	8	Radiación solar	0
179521	7	Sololá	719	Santiago Atitlán	14	Cerro de Oro	10	Octubre	2023-10-21T00:00:00	2024-11-08T07:00:00	2	Temperatura media	17.8
179522	7	Sololá	719	Santiago Atitlán	14	Cerro de Oro	10	Octubre	2023-10-21T00:00:00	2024-11-08T07:00:00	4	Temperatura máxima	17.8
179523	7	Sololá	719	Santiago Atitlán	14	Cerro de Oro	10	Octubre	2023-10-21T00:00:00	2024-11-08T07:00:00	3	Temperatura mínima	17.4
179524	7	Sololá	719	Santiago Atitlán	14	Cerro de Oro	10	Octubre	2023-10-21T00:00:00	2024-11-08T07:00:00	5	Humedad	77
179525	7	Sololá	719	Santiago Atitlán	14	Cerro de Oro	10	Octubre	2023-10-21T00:00:00	2024-11-08T07:00:00	6	Velocidad del viento	14.5
179526	7	Sololá	719	Santiago Atitlán	14	Cerro de Oro	10	Octubre	2023-10-21T00:00:00	2024-11-08T07:00:00	7	Dirección del viento	14.48
179527	7	Sololá	719	Santiago Atitlán	14	Cerro de Oro	10	Octubre	2023-10-21T00:00:00	2024-11-08T07:00:00	1	Precipitación	0
179528	7	Sololá	719	Santiago Atitlán	14	Cerro de Oro	10	Octubre	2023-10-21T00:00:00	2024-11-08T07:00:00	8	Radiación solar	2
179529	7	Sololá	719	Santiago Atitlán	14	Cerro de Oro	10	Octubre	2023-10-21T00:00:00	2024-11-08T08:00:00	2	Temperatura media	18.8
179530	7	Sololá	719	Santiago Atitlán	14	Cerro de Oro	10	Octubre	2023-10-21T00:00:00	2024-11-08T08:00:00	4	Temperatura máxima	18.8
179531	7	Sololá	719	Santiago Atitlán	14	Cerro de Oro	10	Octubre	2023-10-21T00:00:00	2024-11-08T08:00:00	3	Temperatura mínima	17.8
179532	7	Sololá	719	Santiago Atitlán	14	Cerro de Oro	10	Octubre	2023-10-21T00:00:00	2024-11-08T08:00:00	5	Humedad	74
179533	7	Sololá	719	Santiago Atitlán	14	Cerro de Oro	10	Octubre	2023-10-21T00:00:00	2024-11-08T08:00:00	6	Velocidad del viento	12.9
179534	7	Sololá	719	Santiago Atitlán	14	Cerro de Oro	10	Octubre	2023-10-21T00:00:00	2024-11-08T08:00:00	7	Dirección del viento	12.87
179535	7	Sololá	719	Santiago Atitlán	14	Cerro de Oro	10	Octubre	2023-10-21T00:00:00	2024-11-08T08:00:00	1	Precipitación	0
179536	7	Sololá	719	Santiago Atitlán	14	Cerro de Oro	10	Octubre	2023-10-21T00:00:00	2024-11-08T08:00:00	8	Radiación solar	17
179537	7	Sololá	719	Santiago Atitlán	14	Cerro de Oro	10	Octubre	2023-10-21T00:00:00	2024-11-08T09:00:00	2	Temperatura media	20
179538	7	Sololá	719	Santiago Atitlán	14	Cerro de Oro	10	Octubre	2023-10-21T00:00:00	2024-11-08T09:00:00	4	Temperatura máxima	20
179539	7	Sololá	719	Santiago Atitlán	14	Cerro de Oro	10	Octubre	2023-10-21T00:00:00	2024-11-08T09:00:00	3	Temperatura mínima	18.8
179540	7	Sololá	719	Santiago Atitlán	14	Cerro de Oro	10	Octubre	2023-10-21T00:00:00	2024-11-08T09:00:00	5	Humedad	71
179541	7	Sololá	719	Santiago Atitlán	14	Cerro de Oro	10	Octubre	2023-10-21T00:00:00	2024-11-08T09:00:00	6	Velocidad del viento	9.7
179542	7	Sololá	719	Santiago Atitlán	14	Cerro de Oro	10	Octubre	2023-10-21T00:00:00	2024-11-08T09:00:00	7	Dirección del viento	9.66
179543	7	Sololá	719	Santiago Atitlán	14	Cerro de Oro	10	Octubre	2023-10-21T00:00:00	2024-11-08T09:00:00	1	Precipitación	0
179544	7	Sololá	719	Santiago Atitlán	14	Cerro de Oro	10	Octubre	2023-10-21T00:00:00	2024-11-08T09:00:00	8	Radiación solar	210
179545	7	Sololá	719	Santiago Atitlán	14	Cerro de Oro	10	Octubre	2023-10-21T00:00:00	2024-11-08T10:00:00	2	Temperatura media	22.2
179546	7	Sololá	719	Santiago Atitlán	14	Cerro de Oro	10	Octubre	2023-10-21T00:00:00	2024-11-08T10:00:00	4	Temperatura máxima	22.2
179547	7	Sololá	719	Santiago Atitlán	14	Cerro de Oro	10	Octubre	2023-10-21T00:00:00	2024-11-08T10:00:00	3	Temperatura mínima	20
179548	7	Sololá	719	Santiago Atitlán	14	Cerro de Oro	10	Octubre	2023-10-21T00:00:00	2024-11-08T10:00:00	5	Humedad	68
179549	7	Sololá	719	Santiago Atitlán	14	Cerro de Oro	10	Octubre	2023-10-21T00:00:00	2024-11-08T10:00:00	6	Velocidad del viento	3.2
179550	7	Sololá	719	Santiago Atitlán	14	Cerro de Oro	10	Octubre	2023-10-21T00:00:00	2024-11-08T10:00:00	7	Dirección del viento	3.22
179551	7	Sololá	719	Santiago Atitlán	14	Cerro de Oro	10	Octubre	2023-10-21T00:00:00	2024-11-08T10:00:00	1	Precipitación	0
179552	7	Sololá	719	Santiago Atitlán	14	Cerro de Oro	10	Octubre	2023-10-21T00:00:00	2024-11-08T10:00:00	8	Radiación solar	198
179553	7	Sololá	719	Santiago Atitlán	14	Cerro de Oro	10	Octubre	2023-10-21T00:00:00	2024-11-08T11:00:00	2	Temperatura media	22.3
179554	7	Sololá	719	Santiago Atitlán	14	Cerro de Oro	10	Octubre	2023-10-21T00:00:00	2024-11-08T11:00:00	4	Temperatura máxima	22.5
179555	7	Sololá	719	Santiago Atitlán	14	Cerro de Oro	10	Octubre	2023-10-21T00:00:00	2024-11-08T11:00:00	3	Temperatura mínima	21.8
179556	7	Sololá	719	Santiago Atitlán	14	Cerro de Oro	10	Octubre	2023-10-21T00:00:00	2024-11-08T11:00:00	5	Humedad	68
179557	7	Sololá	719	Santiago Atitlán	14	Cerro de Oro	10	Octubre	2023-10-21T00:00:00	2024-11-08T11:00:00	6	Velocidad del viento	1.6
179558	7	Sololá	719	Santiago Atitlán	14	Cerro de Oro	10	Octubre	2023-10-21T00:00:00	2024-11-08T11:00:00	7	Dirección del viento	1.61
179559	7	Sololá	719	Santiago Atitlán	14	Cerro de Oro	10	Octubre	2023-10-21T00:00:00	2024-11-08T11:00:00	1	Precipitación	0
179560	7	Sololá	719	Santiago Atitlán	14	Cerro de Oro	10	Octubre	2023-10-21T00:00:00	2024-11-08T11:00:00	8	Radiación solar	373
179561	7	Sololá	719	Santiago Atitlán	14	Cerro de Oro	10	Octubre	2023-10-21T00:00:00	2024-11-08T12:00:00	2	Temperatura media	23.2
179562	7	Sololá	719	Santiago Atitlán	14	Cerro de Oro	10	Octubre	2023-10-21T00:00:00	2024-11-08T12:00:00	4	Temperatura máxima	23.2
179563	7	Sololá	719	Santiago Atitlán	14	Cerro de Oro	10	Octubre	2023-10-21T00:00:00	2024-11-08T12:00:00	3	Temperatura mínima	22.3
179564	7	Sololá	719	Santiago Atitlán	14	Cerro de Oro	10	Octubre	2023-10-21T00:00:00	2024-11-08T12:00:00	5	Humedad	66
179565	7	Sololá	719	Santiago Atitlán	14	Cerro de Oro	10	Octubre	2023-10-21T00:00:00	2024-11-08T12:00:00	6	Velocidad del viento	3.2
179566	7	Sololá	719	Santiago Atitlán	14	Cerro de Oro	10	Octubre	2023-10-21T00:00:00	2024-11-08T12:00:00	7	Dirección del viento	3.22
179567	7	Sololá	719	Santiago Atitlán	14	Cerro de Oro	10	Octubre	2023-10-21T00:00:00	2024-11-08T12:00:00	1	Precipitación	0
179568	7	Sololá	719	Santiago Atitlán	14	Cerro de Oro	10	Octubre	2023-10-21T00:00:00	2024-11-08T12:00:00	8	Radiación solar	492
179569	7	Sololá	719	Santiago Atitlán	14	Cerro de Oro	10	Octubre	2023-10-21T00:00:00	2024-11-08T13:00:00	2	Temperatura media	23.5
179570	7	Sololá	719	Santiago Atitlán	14	Cerro de Oro	10	Octubre	2023-10-21T00:00:00	2024-11-08T13:00:00	4	Temperatura máxima	24.1
179571	7	Sololá	719	Santiago Atitlán	14	Cerro de Oro	10	Octubre	2023-10-21T00:00:00	2024-11-08T13:00:00	3	Temperatura mínima	23
179572	7	Sololá	719	Santiago Atitlán	14	Cerro de Oro	10	Octubre	2023-10-21T00:00:00	2024-11-08T13:00:00	5	Humedad	71
179573	7	Sololá	719	Santiago Atitlán	14	Cerro de Oro	10	Octubre	2023-10-21T00:00:00	2024-11-08T13:00:00	6	Velocidad del viento	3.2
179574	7	Sololá	719	Santiago Atitlán	14	Cerro de Oro	10	Octubre	2023-10-21T00:00:00	2024-11-08T13:00:00	7	Dirección del viento	3.22
179575	7	Sololá	719	Santiago Atitlán	14	Cerro de Oro	10	Octubre	2023-10-21T00:00:00	2024-11-08T13:00:00	1	Precipitación	0
179576	7	Sololá	719	Santiago Atitlán	14	Cerro de Oro	10	Octubre	2023-10-21T00:00:00	2024-11-08T13:00:00	8	Radiación solar	271
179577	7	Sololá	719	Santiago Atitlán	14	Cerro de Oro	10	Octubre	2023-10-21T00:00:00	2024-11-08T14:00:00	2	Temperatura media	24.3
179578	7	Sololá	719	Santiago Atitlán	14	Cerro de Oro	10	Octubre	2023-10-21T00:00:00	2024-11-08T14:00:00	4	Temperatura máxima	24.6
179579	7	Sololá	719	Santiago Atitlán	14	Cerro de Oro	10	Octubre	2023-10-21T00:00:00	2024-11-08T14:00:00	3	Temperatura mínima	23.6
179580	7	Sololá	719	Santiago Atitlán	14	Cerro de Oro	10	Octubre	2023-10-21T00:00:00	2024-11-08T14:00:00	5	Humedad	70
179581	7	Sololá	719	Santiago Atitlán	14	Cerro de Oro	10	Octubre	2023-10-21T00:00:00	2024-11-08T14:00:00	6	Velocidad del viento	6.4
179582	7	Sololá	719	Santiago Atitlán	14	Cerro de Oro	10	Octubre	2023-10-21T00:00:00	2024-11-08T14:00:00	7	Dirección del viento	6.44
179583	7	Sololá	719	Santiago Atitlán	14	Cerro de Oro	10	Octubre	2023-10-21T00:00:00	2024-11-08T14:00:00	1	Precipitación	0
179584	7	Sololá	719	Santiago Atitlán	14	Cerro de Oro	10	Octubre	2023-10-21T00:00:00	2024-11-08T14:00:00	8	Radiación solar	188
179585	7	Sololá	719	Santiago Atitlán	14	Cerro de Oro	10	Octubre	2023-10-21T00:00:00	2024-11-08T15:00:00	2	Temperatura media	25.7
179586	7	Sololá	719	Santiago Atitlán	14	Cerro de Oro	10	Octubre	2023-10-21T00:00:00	2024-11-08T15:00:00	4	Temperatura máxima	26.1
179587	7	Sololá	719	Santiago Atitlán	14	Cerro de Oro	10	Octubre	2023-10-21T00:00:00	2024-11-08T15:00:00	3	Temperatura mínima	24.3
179588	7	Sololá	719	Santiago Atitlán	14	Cerro de Oro	10	Octubre	2023-10-21T00:00:00	2024-11-08T15:00:00	5	Humedad	65
179589	7	Sololá	719	Santiago Atitlán	14	Cerro de Oro	10	Octubre	2023-10-21T00:00:00	2024-11-08T15:00:00	6	Velocidad del viento	6.4
179590	7	Sololá	719	Santiago Atitlán	14	Cerro de Oro	10	Octubre	2023-10-21T00:00:00	2024-11-08T15:00:00	7	Dirección del viento	6.44
179591	7	Sololá	719	Santiago Atitlán	14	Cerro de Oro	10	Octubre	2023-10-21T00:00:00	2024-11-08T15:00:00	1	Precipitación	0
179592	7	Sololá	719	Santiago Atitlán	14	Cerro de Oro	10	Octubre	2023-10-21T00:00:00	2024-11-08T15:00:00	8	Radiación solar	174
179593	7	Sololá	719	Santiago Atitlán	14	Cerro de Oro	10	Octubre	2023-10-21T00:00:00	2024-11-08T16:00:00	2	Temperatura media	22.9
179594	7	Sololá	719	Santiago Atitlán	14	Cerro de Oro	10	Octubre	2023-10-21T00:00:00	2024-11-08T16:00:00	4	Temperatura máxima	25.8
179595	7	Sololá	719	Santiago Atitlán	14	Cerro de Oro	10	Octubre	2023-10-21T00:00:00	2024-11-08T16:00:00	3	Temperatura mínima	22.9
179596	7	Sololá	719	Santiago Atitlán	14	Cerro de Oro	10	Octubre	2023-10-21T00:00:00	2024-11-08T16:00:00	5	Humedad	72
179597	7	Sololá	719	Santiago Atitlán	14	Cerro de Oro	10	Octubre	2023-10-21T00:00:00	2024-11-08T16:00:00	6	Velocidad del viento	4.8
179598	7	Sololá	719	Santiago Atitlán	14	Cerro de Oro	10	Octubre	2023-10-21T00:00:00	2024-11-08T16:00:00	7	Dirección del viento	4.83
179599	7	Sololá	719	Santiago Atitlán	14	Cerro de Oro	10	Octubre	2023-10-21T00:00:00	2024-11-08T16:00:00	1	Precipitación	0
179600	7	Sololá	719	Santiago Atitlán	14	Cerro de Oro	10	Octubre	2023-10-21T00:00:00	2024-11-08T16:00:00	8	Radiación solar	396
179601	7	Sololá	719	Santiago Atitlán	14	Cerro de Oro	10	Octubre	2023-10-21T00:00:00	2024-11-08T17:00:00	2	Temperatura media	21.2
179602	7	Sololá	719	Santiago Atitlán	14	Cerro de Oro	10	Octubre	2023-10-21T00:00:00	2024-11-08T17:00:00	4	Temperatura máxima	22.9
179603	7	Sololá	719	Santiago Atitlán	14	Cerro de Oro	10	Octubre	2023-10-21T00:00:00	2024-11-08T17:00:00	3	Temperatura mínima	21.2
179604	7	Sololá	719	Santiago Atitlán	14	Cerro de Oro	10	Octubre	2023-10-21T00:00:00	2024-11-08T17:00:00	5	Humedad	78
179605	7	Sololá	719	Santiago Atitlán	14	Cerro de Oro	10	Octubre	2023-10-21T00:00:00	2024-11-08T17:00:00	6	Velocidad del viento	3.2
179606	7	Sololá	719	Santiago Atitlán	14	Cerro de Oro	10	Octubre	2023-10-21T00:00:00	2024-11-08T17:00:00	7	Dirección del viento	3.22
179607	7	Sololá	719	Santiago Atitlán	14	Cerro de Oro	10	Octubre	2023-10-21T00:00:00	2024-11-08T17:00:00	1	Precipitación	0
179608	7	Sololá	719	Santiago Atitlán	14	Cerro de Oro	10	Octubre	2023-10-21T00:00:00	2024-11-08T17:00:00	8	Radiación solar	223
179609	7	Sololá	719	Santiago Atitlán	14	Cerro de Oro	10	Octubre	2023-10-21T00:00:00	2024-11-08T18:00:00	2	Temperatura media	19.6
179610	7	Sololá	719	Santiago Atitlán	14	Cerro de Oro	10	Octubre	2023-10-21T00:00:00	2024-11-08T18:00:00	4	Temperatura máxima	21.2
179611	7	Sololá	719	Santiago Atitlán	14	Cerro de Oro	10	Octubre	2023-10-21T00:00:00	2024-11-08T18:00:00	3	Temperatura mínima	19.6
179612	7	Sololá	719	Santiago Atitlán	14	Cerro de Oro	10	Octubre	2023-10-21T00:00:00	2024-11-08T18:00:00	5	Humedad	83
179613	7	Sololá	719	Santiago Atitlán	14	Cerro de Oro	10	Octubre	2023-10-21T00:00:00	2024-11-08T18:00:00	6	Velocidad del viento	3.2
179614	7	Sololá	719	Santiago Atitlán	14	Cerro de Oro	10	Octubre	2023-10-21T00:00:00	2024-11-08T18:00:00	7	Dirección del viento	3.22
179615	7	Sololá	719	Santiago Atitlán	14	Cerro de Oro	10	Octubre	2023-10-21T00:00:00	2024-11-08T18:00:00	1	Precipitación	0.4
179616	7	Sololá	719	Santiago Atitlán	14	Cerro de Oro	10	Octubre	2023-10-21T00:00:00	2024-11-08T18:00:00	8	Radiación solar	184
179617	7	Sololá	719	Santiago Atitlán	14	Cerro de Oro	10	Octubre	2023-10-21T00:00:00	2024-11-08T19:00:00	2	Temperatura media	19.1
179618	7	Sololá	719	Santiago Atitlán	14	Cerro de Oro	10	Octubre	2023-10-21T00:00:00	2024-11-08T19:00:00	4	Temperatura máxima	19.6
179619	7	Sololá	719	Santiago Atitlán	14	Cerro de Oro	10	Octubre	2023-10-21T00:00:00	2024-11-08T19:00:00	3	Temperatura mínima	18.9
179620	7	Sololá	719	Santiago Atitlán	14	Cerro de Oro	10	Octubre	2023-10-21T00:00:00	2024-11-08T19:00:00	5	Humedad	84
179621	7	Sololá	719	Santiago Atitlán	14	Cerro de Oro	10	Octubre	2023-10-21T00:00:00	2024-11-08T19:00:00	6	Velocidad del viento	4.8
179622	7	Sololá	719	Santiago Atitlán	14	Cerro de Oro	10	Octubre	2023-10-21T00:00:00	2024-11-08T19:00:00	7	Dirección del viento	4.83
179623	7	Sololá	719	Santiago Atitlán	14	Cerro de Oro	10	Octubre	2023-10-21T00:00:00	2024-11-08T19:00:00	1	Precipitación	0
179624	7	Sololá	719	Santiago Atitlán	14	Cerro de Oro	10	Octubre	2023-10-21T00:00:00	2024-11-08T19:00:00	8	Radiación solar	0
179625	7	Sololá	719	Santiago Atitlán	14	Cerro de Oro	10	Octubre	2023-10-21T00:00:00	2024-11-08T20:00:00	2	Temperatura media	19.2
179626	7	Sololá	719	Santiago Atitlán	14	Cerro de Oro	10	Octubre	2023-10-21T00:00:00	2024-11-08T20:00:00	4	Temperatura máxima	19.2
179627	7	Sololá	719	Santiago Atitlán	14	Cerro de Oro	10	Octubre	2023-10-21T00:00:00	2024-11-08T20:00:00	3	Temperatura mínima	19.1
179628	7	Sololá	719	Santiago Atitlán	14	Cerro de Oro	10	Octubre	2023-10-21T00:00:00	2024-11-08T20:00:00	5	Humedad	85
179629	7	Sololá	719	Santiago Atitlán	14	Cerro de Oro	10	Octubre	2023-10-21T00:00:00	2024-11-08T20:00:00	6	Velocidad del viento	0
179630	7	Sololá	719	Santiago Atitlán	14	Cerro de Oro	10	Octubre	2023-10-21T00:00:00	2024-11-08T20:00:00	7	Dirección del viento	0
179631	7	Sololá	719	Santiago Atitlán	14	Cerro de Oro	10	Octubre	2023-10-21T00:00:00	2024-11-08T20:00:00	1	Precipitación	0
179632	7	Sololá	719	Santiago Atitlán	14	Cerro de Oro	10	Octubre	2023-10-21T00:00:00	2024-11-08T20:00:00	8	Radiación solar	0
179633	7	Sololá	719	Santiago Atitlán	14	Cerro de Oro	10	Octubre	2023-10-21T00:00:00	2024-11-08T21:00:00	2	Temperatura media	19.1
179634	7	Sololá	719	Santiago Atitlán	14	Cerro de Oro	10	Octubre	2023-10-21T00:00:00	2024-11-08T21:00:00	4	Temperatura máxima	19.2
179635	7	Sololá	719	Santiago Atitlán	14	Cerro de Oro	10	Octubre	2023-10-21T00:00:00	2024-11-08T21:00:00	3	Temperatura mínima	18.8
179636	7	Sololá	719	Santiago Atitlán	14	Cerro de Oro	10	Octubre	2023-10-21T00:00:00	2024-11-08T21:00:00	5	Humedad	86
179637	7	Sololá	719	Santiago Atitlán	14	Cerro de Oro	10	Octubre	2023-10-21T00:00:00	2024-11-08T21:00:00	6	Velocidad del viento	1.6
179638	7	Sololá	719	Santiago Atitlán	14	Cerro de Oro	10	Octubre	2023-10-21T00:00:00	2024-11-08T21:00:00	7	Dirección del viento	1.61
179639	7	Sololá	719	Santiago Atitlán	14	Cerro de Oro	10	Octubre	2023-10-21T00:00:00	2024-11-08T21:00:00	1	Precipitación	0
179640	7	Sololá	719	Santiago Atitlán	14	Cerro de Oro	10	Octubre	2023-10-21T00:00:00	2024-11-08T21:00:00	8	Radiación solar	0
179641	7	Sololá	719	Santiago Atitlán	14	Cerro de Oro	10	Octubre	2023-10-21T00:00:00	2024-11-08T22:00:00	2	Temperatura media	19
179642	7	Sololá	719	Santiago Atitlán	14	Cerro de Oro	10	Octubre	2023-10-21T00:00:00	2024-11-08T22:00:00	4	Temperatura máxima	19.1
179643	7	Sololá	719	Santiago Atitlán	14	Cerro de Oro	10	Octubre	2023-10-21T00:00:00	2024-11-08T22:00:00	3	Temperatura mínima	18.9
179644	7	Sololá	719	Santiago Atitlán	14	Cerro de Oro	10	Octubre	2023-10-21T00:00:00	2024-11-08T22:00:00	5	Humedad	85
179645	7	Sololá	719	Santiago Atitlán	14	Cerro de Oro	10	Octubre	2023-10-21T00:00:00	2024-11-08T22:00:00	6	Velocidad del viento	0
179646	7	Sololá	719	Santiago Atitlán	14	Cerro de Oro	10	Octubre	2023-10-21T00:00:00	2024-11-08T22:00:00	7	Dirección del viento	0
179647	7	Sololá	719	Santiago Atitlán	14	Cerro de Oro	10	Octubre	2023-10-21T00:00:00	2024-11-08T22:00:00	1	Precipitación	0
179648	7	Sololá	719	Santiago Atitlán	14	Cerro de Oro	10	Octubre	2023-10-21T00:00:00	2024-11-08T22:00:00	8	Radiación solar	0
179649	7	Sololá	719	Santiago Atitlán	14	Cerro de Oro	10	Octubre	2023-10-21T00:00:00	2024-11-08T23:00:00	2	Temperatura media	18.7
179650	7	Sololá	719	Santiago Atitlán	14	Cerro de Oro	10	Octubre	2023-10-21T00:00:00	2024-11-08T23:00:00	4	Temperatura máxima	19
179651	7	Sololá	719	Santiago Atitlán	14	Cerro de Oro	10	Octubre	2023-10-21T00:00:00	2024-11-08T23:00:00	3	Temperatura mínima	18.7
179652	7	Sololá	719	Santiago Atitlán	14	Cerro de Oro	10	Octubre	2023-10-21T00:00:00	2024-11-08T23:00:00	5	Humedad	87
179653	7	Sololá	719	Santiago Atitlán	14	Cerro de Oro	10	Octubre	2023-10-21T00:00:00	2024-11-08T23:00:00	6	Velocidad del viento	0
179654	7	Sololá	719	Santiago Atitlán	14	Cerro de Oro	10	Octubre	2023-10-21T00:00:00	2024-11-08T23:00:00	7	Dirección del viento	0
179655	7	Sololá	719	Santiago Atitlán	14	Cerro de Oro	10	Octubre	2023-10-21T00:00:00	2024-11-08T23:00:00	1	Precipitación	0
179656	7	Sololá	719	Santiago Atitlán	14	Cerro de Oro	10	Octubre	2023-10-21T00:00:00	2024-11-08T23:00:00	8	Radiación solar	0
179657	7	Sololá	719	Santiago Atitlán	14	Cerro de Oro	10	Octubre	2023-10-22T00:00:00	2024-11-08T00:00:00	2	Temperatura media	18.8
179658	7	Sololá	719	Santiago Atitlán	14	Cerro de Oro	10	Octubre	2023-10-22T00:00:00	2024-11-08T00:00:00	4	Temperatura máxima	18.9
179659	7	Sololá	719	Santiago Atitlán	14	Cerro de Oro	10	Octubre	2023-10-22T00:00:00	2024-11-08T00:00:00	3	Temperatura mínima	18.7
179660	7	Sololá	719	Santiago Atitlán	14	Cerro de Oro	10	Octubre	2023-10-22T00:00:00	2024-11-08T00:00:00	5	Humedad	86
179661	7	Sololá	719	Santiago Atitlán	14	Cerro de Oro	10	Octubre	2023-10-22T00:00:00	2024-11-08T00:00:00	6	Velocidad del viento	0
179662	7	Sololá	719	Santiago Atitlán	14	Cerro de Oro	10	Octubre	2023-10-22T00:00:00	2024-11-08T00:00:00	7	Dirección del viento	0
179663	7	Sololá	719	Santiago Atitlán	14	Cerro de Oro	10	Octubre	2023-10-22T00:00:00	2024-11-08T00:00:00	1	Precipitación	0
179664	7	Sololá	719	Santiago Atitlán	14	Cerro de Oro	10	Octubre	2023-10-22T00:00:00	2024-11-08T00:00:00	8	Radiación solar	0
179665	7	Sololá	719	Santiago Atitlán	14	Cerro de Oro	10	Octubre	2023-10-22T00:00:00	2024-11-08T01:00:00	2	Temperatura media	18.8
179666	7	Sololá	719	Santiago Atitlán	14	Cerro de Oro	10	Octubre	2023-10-22T00:00:00	2024-11-08T01:00:00	4	Temperatura máxima	18.9
179667	7	Sololá	719	Santiago Atitlán	14	Cerro de Oro	10	Octubre	2023-10-22T00:00:00	2024-11-08T01:00:00	3	Temperatura mínima	18.8
179668	7	Sololá	719	Santiago Atitlán	14	Cerro de Oro	10	Octubre	2023-10-22T00:00:00	2024-11-08T01:00:00	5	Humedad	85
179669	7	Sololá	719	Santiago Atitlán	14	Cerro de Oro	10	Octubre	2023-10-22T00:00:00	2024-11-08T01:00:00	6	Velocidad del viento	0
179670	7	Sololá	719	Santiago Atitlán	14	Cerro de Oro	10	Octubre	2023-10-22T00:00:00	2024-11-08T01:00:00	7	Dirección del viento	0
179671	7	Sololá	719	Santiago Atitlán	14	Cerro de Oro	10	Octubre	2023-10-22T00:00:00	2024-11-08T01:00:00	1	Precipitación	0
179672	7	Sololá	719	Santiago Atitlán	14	Cerro de Oro	10	Octubre	2023-10-22T00:00:00	2024-11-08T01:00:00	8	Radiación solar	0
179673	7	Sololá	719	Santiago Atitlán	14	Cerro de Oro	10	Octubre	2023-10-22T00:00:00	2024-11-08T02:00:00	2	Temperatura media	19.2
179674	7	Sololá	719	Santiago Atitlán	14	Cerro de Oro	10	Octubre	2023-10-22T00:00:00	2024-11-08T02:00:00	4	Temperatura máxima	19.2
179675	7	Sololá	719	Santiago Atitlán	14	Cerro de Oro	10	Octubre	2023-10-22T00:00:00	2024-11-08T02:00:00	3	Temperatura mínima	18.8
179676	7	Sololá	719	Santiago Atitlán	14	Cerro de Oro	10	Octubre	2023-10-22T00:00:00	2024-11-08T02:00:00	5	Humedad	80
179677	7	Sololá	719	Santiago Atitlán	14	Cerro de Oro	10	Octubre	2023-10-22T00:00:00	2024-11-08T02:00:00	6	Velocidad del viento	3.2
179678	7	Sololá	719	Santiago Atitlán	14	Cerro de Oro	10	Octubre	2023-10-22T00:00:00	2024-11-08T02:00:00	7	Dirección del viento	3.22
179679	7	Sololá	719	Santiago Atitlán	14	Cerro de Oro	10	Octubre	2023-10-22T00:00:00	2024-11-08T02:00:00	1	Precipitación	0
179680	7	Sololá	719	Santiago Atitlán	14	Cerro de Oro	10	Octubre	2023-10-22T00:00:00	2024-11-08T02:00:00	8	Radiación solar	0
179681	7	Sololá	719	Santiago Atitlán	14	Cerro de Oro	10	Octubre	2023-10-22T00:00:00	2024-11-08T03:00:00	2	Temperatura media	18.7
179682	7	Sololá	719	Santiago Atitlán	14	Cerro de Oro	10	Octubre	2023-10-22T00:00:00	2024-11-08T03:00:00	4	Temperatura máxima	19.2
179683	7	Sololá	719	Santiago Atitlán	14	Cerro de Oro	10	Octubre	2023-10-22T00:00:00	2024-11-08T03:00:00	3	Temperatura mínima	18.7
179684	7	Sololá	719	Santiago Atitlán	14	Cerro de Oro	10	Octubre	2023-10-22T00:00:00	2024-11-08T03:00:00	5	Humedad	82
179685	7	Sololá	719	Santiago Atitlán	14	Cerro de Oro	10	Octubre	2023-10-22T00:00:00	2024-11-08T03:00:00	6	Velocidad del viento	1.6
179686	7	Sololá	719	Santiago Atitlán	14	Cerro de Oro	10	Octubre	2023-10-22T00:00:00	2024-11-08T03:00:00	7	Dirección del viento	1.61
179687	7	Sololá	719	Santiago Atitlán	14	Cerro de Oro	10	Octubre	2023-10-22T00:00:00	2024-11-08T03:00:00	1	Precipitación	0
179688	7	Sololá	719	Santiago Atitlán	14	Cerro de Oro	10	Octubre	2023-10-22T00:00:00	2024-11-08T03:00:00	8	Radiación solar	0
179689	7	Sololá	719	Santiago Atitlán	14	Cerro de Oro	10	Octubre	2023-10-22T00:00:00	2024-11-08T04:00:00	2	Temperatura media	18.8
179690	7	Sololá	719	Santiago Atitlán	14	Cerro de Oro	10	Octubre	2023-10-22T00:00:00	2024-11-08T04:00:00	4	Temperatura máxima	18.9
179691	7	Sololá	719	Santiago Atitlán	14	Cerro de Oro	10	Octubre	2023-10-22T00:00:00	2024-11-08T04:00:00	3	Temperatura mínima	18.6
179692	7	Sololá	719	Santiago Atitlán	14	Cerro de Oro	10	Octubre	2023-10-22T00:00:00	2024-11-08T04:00:00	5	Humedad	80
179693	7	Sololá	719	Santiago Atitlán	14	Cerro de Oro	10	Octubre	2023-10-22T00:00:00	2024-11-08T04:00:00	6	Velocidad del viento	3.2
179694	7	Sololá	719	Santiago Atitlán	14	Cerro de Oro	10	Octubre	2023-10-22T00:00:00	2024-11-08T04:00:00	7	Dirección del viento	3.22
179695	7	Sololá	719	Santiago Atitlán	14	Cerro de Oro	10	Octubre	2023-10-22T00:00:00	2024-11-08T04:00:00	1	Precipitación	0
179696	7	Sololá	719	Santiago Atitlán	14	Cerro de Oro	10	Octubre	2023-10-22T00:00:00	2024-11-08T04:00:00	8	Radiación solar	0
179697	7	Sololá	719	Santiago Atitlán	14	Cerro de Oro	10	Octubre	2023-10-22T00:00:00	2024-11-08T05:00:00	2	Temperatura media	18.6
179698	7	Sololá	719	Santiago Atitlán	14	Cerro de Oro	10	Octubre	2023-10-22T00:00:00	2024-11-08T05:00:00	4	Temperatura máxima	18.9
179699	7	Sololá	719	Santiago Atitlán	14	Cerro de Oro	10	Octubre	2023-10-22T00:00:00	2024-11-08T05:00:00	3	Temperatura mínima	18.6
179700	7	Sololá	719	Santiago Atitlán	14	Cerro de Oro	10	Octubre	2023-10-22T00:00:00	2024-11-08T05:00:00	5	Humedad	80
179701	7	Sololá	719	Santiago Atitlán	14	Cerro de Oro	10	Octubre	2023-10-22T00:00:00	2024-11-08T05:00:00	6	Velocidad del viento	6.4
179702	7	Sololá	719	Santiago Atitlán	14	Cerro de Oro	10	Octubre	2023-10-22T00:00:00	2024-11-08T05:00:00	7	Dirección del viento	6.44
179703	7	Sololá	719	Santiago Atitlán	14	Cerro de Oro	10	Octubre	2023-10-22T00:00:00	2024-11-08T05:00:00	1	Precipitación	0
179704	7	Sololá	719	Santiago Atitlán	14	Cerro de Oro	10	Octubre	2023-10-22T00:00:00	2024-11-08T05:00:00	8	Radiación solar	0
179705	7	Sololá	719	Santiago Atitlán	14	Cerro de Oro	10	Octubre	2023-10-22T00:00:00	2024-11-08T06:00:00	2	Temperatura media	17.5
179706	7	Sololá	719	Santiago Atitlán	14	Cerro de Oro	10	Octubre	2023-10-22T00:00:00	2024-11-08T06:00:00	4	Temperatura máxima	18.6
179707	7	Sololá	719	Santiago Atitlán	14	Cerro de Oro	10	Octubre	2023-10-22T00:00:00	2024-11-08T06:00:00	3	Temperatura mínima	17.5
179708	7	Sololá	719	Santiago Atitlán	14	Cerro de Oro	10	Octubre	2023-10-22T00:00:00	2024-11-08T06:00:00	5	Humedad	81
179709	7	Sololá	719	Santiago Atitlán	14	Cerro de Oro	10	Octubre	2023-10-22T00:00:00	2024-11-08T06:00:00	6	Velocidad del viento	12.9
179710	7	Sololá	719	Santiago Atitlán	14	Cerro de Oro	10	Octubre	2023-10-22T00:00:00	2024-11-08T06:00:00	7	Dirección del viento	12.87
179711	7	Sololá	719	Santiago Atitlán	14	Cerro de Oro	10	Octubre	2023-10-22T00:00:00	2024-11-08T06:00:00	1	Precipitación	0
179712	7	Sololá	719	Santiago Atitlán	14	Cerro de Oro	10	Octubre	2023-10-22T00:00:00	2024-11-08T06:00:00	8	Radiación solar	0
179713	7	Sololá	719	Santiago Atitlán	14	Cerro de Oro	10	Octubre	2023-10-22T00:00:00	2024-11-08T07:00:00	2	Temperatura media	17.4
179714	7	Sololá	719	Santiago Atitlán	14	Cerro de Oro	10	Octubre	2023-10-22T00:00:00	2024-11-08T07:00:00	4	Temperatura máxima	17.5
179715	7	Sololá	719	Santiago Atitlán	14	Cerro de Oro	10	Octubre	2023-10-22T00:00:00	2024-11-08T07:00:00	3	Temperatura mínima	17.2
179716	7	Sololá	719	Santiago Atitlán	14	Cerro de Oro	10	Octubre	2023-10-22T00:00:00	2024-11-08T07:00:00	5	Humedad	81
179717	7	Sololá	719	Santiago Atitlán	14	Cerro de Oro	10	Octubre	2023-10-22T00:00:00	2024-11-08T07:00:00	6	Velocidad del viento	20.9
179718	7	Sololá	719	Santiago Atitlán	14	Cerro de Oro	10	Octubre	2023-10-22T00:00:00	2024-11-08T07:00:00	7	Dirección del viento	20.92
179719	7	Sololá	719	Santiago Atitlán	14	Cerro de Oro	10	Octubre	2023-10-22T00:00:00	2024-11-08T07:00:00	1	Precipitación	0
179720	7	Sololá	719	Santiago Atitlán	14	Cerro de Oro	10	Octubre	2023-10-22T00:00:00	2024-11-08T07:00:00	8	Radiación solar	1
179721	7	Sololá	719	Santiago Atitlán	14	Cerro de Oro	10	Octubre	2023-10-22T00:00:00	2024-11-08T08:00:00	2	Temperatura media	18.3
179722	7	Sololá	719	Santiago Atitlán	14	Cerro de Oro	10	Octubre	2023-10-22T00:00:00	2024-11-08T08:00:00	4	Temperatura máxima	18.3
179723	7	Sololá	719	Santiago Atitlán	14	Cerro de Oro	10	Octubre	2023-10-22T00:00:00	2024-11-08T08:00:00	3	Temperatura mínima	17.4
179724	7	Sololá	719	Santiago Atitlán	14	Cerro de Oro	10	Octubre	2023-10-22T00:00:00	2024-11-08T08:00:00	5	Humedad	79
179725	7	Sololá	719	Santiago Atitlán	14	Cerro de Oro	10	Octubre	2023-10-22T00:00:00	2024-11-08T08:00:00	6	Velocidad del viento	17.7
179726	7	Sololá	719	Santiago Atitlán	14	Cerro de Oro	10	Octubre	2023-10-22T00:00:00	2024-11-08T08:00:00	7	Dirección del viento	17.7
179727	7	Sololá	719	Santiago Atitlán	14	Cerro de Oro	10	Octubre	2023-10-22T00:00:00	2024-11-08T08:00:00	1	Precipitación	0
179728	7	Sololá	719	Santiago Atitlán	14	Cerro de Oro	10	Octubre	2023-10-22T00:00:00	2024-11-08T08:00:00	8	Radiación solar	57
179729	7	Sololá	719	Santiago Atitlán	14	Cerro de Oro	10	Octubre	2023-10-22T00:00:00	2024-11-08T09:00:00	2	Temperatura media	21.6
179730	7	Sololá	719	Santiago Atitlán	14	Cerro de Oro	10	Octubre	2023-10-22T00:00:00	2024-11-08T09:00:00	4	Temperatura máxima	21.6
179731	7	Sololá	719	Santiago Atitlán	14	Cerro de Oro	10	Octubre	2023-10-22T00:00:00	2024-11-08T09:00:00	3	Temperatura mínima	18.3
179732	7	Sololá	719	Santiago Atitlán	14	Cerro de Oro	10	Octubre	2023-10-22T00:00:00	2024-11-08T09:00:00	5	Humedad	72
179733	7	Sololá	719	Santiago Atitlán	14	Cerro de Oro	10	Octubre	2023-10-22T00:00:00	2024-11-08T09:00:00	6	Velocidad del viento	8
179734	7	Sololá	719	Santiago Atitlán	14	Cerro de Oro	10	Octubre	2023-10-22T00:00:00	2024-11-08T09:00:00	7	Dirección del viento	8.05
179735	7	Sololá	719	Santiago Atitlán	14	Cerro de Oro	10	Octubre	2023-10-22T00:00:00	2024-11-08T09:00:00	1	Precipitación	0
179736	7	Sololá	719	Santiago Atitlán	14	Cerro de Oro	10	Octubre	2023-10-22T00:00:00	2024-11-08T09:00:00	8	Radiación solar	170
179737	7	Sololá	719	Santiago Atitlán	14	Cerro de Oro	10	Octubre	2023-10-22T00:00:00	2024-11-08T10:00:00	2	Temperatura media	22.9
179738	7	Sololá	719	Santiago Atitlán	14	Cerro de Oro	10	Octubre	2023-10-22T00:00:00	2024-11-08T10:00:00	4	Temperatura máxima	23
179739	7	Sololá	719	Santiago Atitlán	14	Cerro de Oro	10	Octubre	2023-10-22T00:00:00	2024-11-08T10:00:00	3	Temperatura mínima	21.6
179740	7	Sololá	719	Santiago Atitlán	14	Cerro de Oro	10	Octubre	2023-10-22T00:00:00	2024-11-08T10:00:00	5	Humedad	69
179741	7	Sololá	719	Santiago Atitlán	14	Cerro de Oro	10	Octubre	2023-10-22T00:00:00	2024-11-08T10:00:00	6	Velocidad del viento	1.6
179742	7	Sololá	719	Santiago Atitlán	14	Cerro de Oro	10	Octubre	2023-10-22T00:00:00	2024-11-08T10:00:00	7	Dirección del viento	1.61
179743	7	Sololá	719	Santiago Atitlán	14	Cerro de Oro	10	Octubre	2023-10-22T00:00:00	2024-11-08T10:00:00	1	Precipitación	0
179744	7	Sololá	719	Santiago Atitlán	14	Cerro de Oro	10	Octubre	2023-10-22T00:00:00	2024-11-08T10:00:00	8	Radiación solar	304
179745	7	Sololá	719	Santiago Atitlán	14	Cerro de Oro	10	Octubre	2023-10-22T00:00:00	2024-11-08T11:00:00	2	Temperatura media	23.9
179746	7	Sololá	719	Santiago Atitlán	14	Cerro de Oro	10	Octubre	2023-10-22T00:00:00	2024-11-08T11:00:00	4	Temperatura máxima	23.9
179747	7	Sololá	719	Santiago Atitlán	14	Cerro de Oro	10	Octubre	2023-10-22T00:00:00	2024-11-08T11:00:00	3	Temperatura mínima	22.7
179748	7	Sololá	719	Santiago Atitlán	14	Cerro de Oro	10	Octubre	2023-10-22T00:00:00	2024-11-08T11:00:00	5	Humedad	70
179749	7	Sololá	719	Santiago Atitlán	14	Cerro de Oro	10	Octubre	2023-10-22T00:00:00	2024-11-08T11:00:00	6	Velocidad del viento	3.2
179750	7	Sololá	719	Santiago Atitlán	14	Cerro de Oro	10	Octubre	2023-10-22T00:00:00	2024-11-08T11:00:00	7	Dirección del viento	3.22
179751	7	Sololá	719	Santiago Atitlán	14	Cerro de Oro	10	Octubre	2023-10-22T00:00:00	2024-11-08T11:00:00	1	Precipitación	0
179752	7	Sololá	719	Santiago Atitlán	14	Cerro de Oro	10	Octubre	2023-10-22T00:00:00	2024-11-08T11:00:00	8	Radiación solar	509
179753	7	Sololá	719	Santiago Atitlán	14	Cerro de Oro	10	Octubre	2023-10-22T00:00:00	2024-11-08T12:00:00	2	Temperatura media	25.8
179754	7	Sololá	719	Santiago Atitlán	14	Cerro de Oro	10	Octubre	2023-10-22T00:00:00	2024-11-08T12:00:00	4	Temperatura máxima	25.8
179755	7	Sololá	719	Santiago Atitlán	14	Cerro de Oro	10	Octubre	2023-10-22T00:00:00	2024-11-08T12:00:00	3	Temperatura mínima	24
179756	7	Sololá	719	Santiago Atitlán	14	Cerro de Oro	10	Octubre	2023-10-22T00:00:00	2024-11-08T12:00:00	5	Humedad	64
179757	7	Sololá	719	Santiago Atitlán	14	Cerro de Oro	10	Octubre	2023-10-22T00:00:00	2024-11-08T12:00:00	6	Velocidad del viento	4.8
179758	7	Sololá	719	Santiago Atitlán	14	Cerro de Oro	10	Octubre	2023-10-22T00:00:00	2024-11-08T12:00:00	7	Dirección del viento	4.83
179759	7	Sololá	719	Santiago Atitlán	14	Cerro de Oro	10	Octubre	2023-10-22T00:00:00	2024-11-08T12:00:00	1	Precipitación	0
179760	7	Sololá	719	Santiago Atitlán	14	Cerro de Oro	10	Octubre	2023-10-22T00:00:00	2024-11-08T12:00:00	8	Radiación solar	832
179761	7	Sololá	719	Santiago Atitlán	14	Cerro de Oro	10	Octubre	2023-10-22T00:00:00	2024-11-08T13:00:00	2	Temperatura media	26.6
179762	7	Sololá	719	Santiago Atitlán	14	Cerro de Oro	10	Octubre	2023-10-22T00:00:00	2024-11-08T13:00:00	4	Temperatura máxima	26.7
179763	7	Sololá	719	Santiago Atitlán	14	Cerro de Oro	10	Octubre	2023-10-22T00:00:00	2024-11-08T13:00:00	3	Temperatura mínima	25.8
179764	7	Sololá	719	Santiago Atitlán	14	Cerro de Oro	10	Octubre	2023-10-22T00:00:00	2024-11-08T13:00:00	5	Humedad	66
179765	7	Sololá	719	Santiago Atitlán	14	Cerro de Oro	10	Octubre	2023-10-22T00:00:00	2024-11-08T13:00:00	6	Velocidad del viento	4.8
179766	7	Sololá	719	Santiago Atitlán	14	Cerro de Oro	10	Octubre	2023-10-22T00:00:00	2024-11-08T13:00:00	7	Dirección del viento	4.83
179767	7	Sololá	719	Santiago Atitlán	14	Cerro de Oro	10	Octubre	2023-10-22T00:00:00	2024-11-08T13:00:00	1	Precipitación	0
179768	7	Sololá	719	Santiago Atitlán	14	Cerro de Oro	10	Octubre	2023-10-22T00:00:00	2024-11-08T13:00:00	8	Radiación solar	309
179769	7	Sololá	719	Santiago Atitlán	14	Cerro de Oro	10	Octubre	2023-10-22T00:00:00	2024-11-08T14:00:00	2	Temperatura media	22
179770	7	Sololá	719	Santiago Atitlán	14	Cerro de Oro	10	Octubre	2023-10-22T00:00:00	2024-11-08T14:00:00	4	Temperatura máxima	26.6
179771	7	Sololá	719	Santiago Atitlán	14	Cerro de Oro	10	Octubre	2023-10-22T00:00:00	2024-11-08T14:00:00	3	Temperatura mínima	22
179772	7	Sololá	719	Santiago Atitlán	14	Cerro de Oro	10	Octubre	2023-10-22T00:00:00	2024-11-08T14:00:00	5	Humedad	78
179773	7	Sololá	719	Santiago Atitlán	14	Cerro de Oro	10	Octubre	2023-10-22T00:00:00	2024-11-08T14:00:00	6	Velocidad del viento	6.4
179774	7	Sololá	719	Santiago Atitlán	14	Cerro de Oro	10	Octubre	2023-10-22T00:00:00	2024-11-08T14:00:00	7	Dirección del viento	6.44
179775	7	Sololá	719	Santiago Atitlán	14	Cerro de Oro	10	Octubre	2023-10-22T00:00:00	2024-11-08T14:00:00	1	Precipitación	0
179776	7	Sololá	719	Santiago Atitlán	14	Cerro de Oro	10	Octubre	2023-10-22T00:00:00	2024-11-08T14:00:00	8	Radiación solar	445
179777	7	Sololá	719	Santiago Atitlán	14	Cerro de Oro	10	Octubre	2023-10-22T00:00:00	2024-11-08T15:00:00	2	Temperatura media	20.8
179778	7	Sololá	719	Santiago Atitlán	14	Cerro de Oro	10	Octubre	2023-10-22T00:00:00	2024-11-08T15:00:00	4	Temperatura máxima	22
179779	7	Sololá	719	Santiago Atitlán	14	Cerro de Oro	10	Octubre	2023-10-22T00:00:00	2024-11-08T15:00:00	3	Temperatura mínima	20.8
179780	7	Sololá	719	Santiago Atitlán	14	Cerro de Oro	10	Octubre	2023-10-22T00:00:00	2024-11-08T15:00:00	5	Humedad	83
179781	7	Sololá	719	Santiago Atitlán	14	Cerro de Oro	10	Octubre	2023-10-22T00:00:00	2024-11-08T15:00:00	6	Velocidad del viento	3.2
179782	7	Sololá	719	Santiago Atitlán	14	Cerro de Oro	10	Octubre	2023-10-22T00:00:00	2024-11-08T15:00:00	7	Dirección del viento	3.22
179783	7	Sololá	719	Santiago Atitlán	14	Cerro de Oro	10	Octubre	2023-10-22T00:00:00	2024-11-08T15:00:00	1	Precipitación	0
179784	7	Sololá	719	Santiago Atitlán	14	Cerro de Oro	10	Octubre	2023-10-22T00:00:00	2024-11-08T15:00:00	8	Radiación solar	305
179785	7	Sololá	719	Santiago Atitlán	14	Cerro de Oro	10	Octubre	2023-10-22T00:00:00	2024-11-08T16:00:00	2	Temperatura media	20.9
179786	7	Sololá	719	Santiago Atitlán	14	Cerro de Oro	10	Octubre	2023-10-22T00:00:00	2024-11-08T16:00:00	4	Temperatura máxima	22.1
179787	7	Sololá	719	Santiago Atitlán	14	Cerro de Oro	10	Octubre	2023-10-22T00:00:00	2024-11-08T16:00:00	3	Temperatura mínima	20.4
179788	7	Sololá	719	Santiago Atitlán	14	Cerro de Oro	10	Octubre	2023-10-22T00:00:00	2024-11-08T16:00:00	5	Humedad	79
179789	7	Sololá	719	Santiago Atitlán	14	Cerro de Oro	10	Octubre	2023-10-22T00:00:00	2024-11-08T16:00:00	6	Velocidad del viento	4.8
179790	7	Sololá	719	Santiago Atitlán	14	Cerro de Oro	10	Octubre	2023-10-22T00:00:00	2024-11-08T16:00:00	7	Dirección del viento	4.83
179791	7	Sololá	719	Santiago Atitlán	14	Cerro de Oro	10	Octubre	2023-10-22T00:00:00	2024-11-08T16:00:00	1	Precipitación	0
179792	7	Sololá	719	Santiago Atitlán	14	Cerro de Oro	10	Octubre	2023-10-22T00:00:00	2024-11-08T16:00:00	8	Radiación solar	232
179793	7	Sololá	719	Santiago Atitlán	14	Cerro de Oro	10	Octubre	2023-10-22T00:00:00	2024-11-08T17:00:00	2	Temperatura media	20.7
179794	7	Sololá	719	Santiago Atitlán	14	Cerro de Oro	10	Octubre	2023-10-22T00:00:00	2024-11-08T17:00:00	4	Temperatura máxima	20.9
179795	7	Sololá	719	Santiago Atitlán	14	Cerro de Oro	10	Octubre	2023-10-22T00:00:00	2024-11-08T17:00:00	3	Temperatura mínima	20.7
179796	7	Sololá	719	Santiago Atitlán	14	Cerro de Oro	10	Octubre	2023-10-22T00:00:00	2024-11-08T17:00:00	5	Humedad	81
179797	7	Sololá	719	Santiago Atitlán	14	Cerro de Oro	10	Octubre	2023-10-22T00:00:00	2024-11-08T17:00:00	6	Velocidad del viento	1.6
179798	7	Sololá	719	Santiago Atitlán	14	Cerro de Oro	10	Octubre	2023-10-22T00:00:00	2024-11-08T17:00:00	7	Dirección del viento	1.61
179799	7	Sololá	719	Santiago Atitlán	14	Cerro de Oro	10	Octubre	2023-10-22T00:00:00	2024-11-08T17:00:00	1	Precipitación	0
179800	7	Sololá	719	Santiago Atitlán	14	Cerro de Oro	10	Octubre	2023-10-22T00:00:00	2024-11-08T17:00:00	8	Radiación solar	207
179801	7	Sololá	719	Santiago Atitlán	14	Cerro de Oro	10	Octubre	2023-10-22T00:00:00	2024-11-08T18:00:00	2	Temperatura media	19.9
179802	7	Sololá	719	Santiago Atitlán	14	Cerro de Oro	10	Octubre	2023-10-22T00:00:00	2024-11-08T18:00:00	4	Temperatura máxima	20.7
179803	7	Sololá	719	Santiago Atitlán	14	Cerro de Oro	10	Octubre	2023-10-22T00:00:00	2024-11-08T18:00:00	3	Temperatura mínima	19.9
179804	7	Sololá	719	Santiago Atitlán	14	Cerro de Oro	10	Octubre	2023-10-22T00:00:00	2024-11-08T18:00:00	5	Humedad	85
179805	7	Sololá	719	Santiago Atitlán	14	Cerro de Oro	10	Octubre	2023-10-22T00:00:00	2024-11-08T18:00:00	6	Velocidad del viento	0
179806	7	Sololá	719	Santiago Atitlán	14	Cerro de Oro	10	Octubre	2023-10-22T00:00:00	2024-11-08T18:00:00	7	Dirección del viento	0
179807	7	Sololá	719	Santiago Atitlán	14	Cerro de Oro	10	Octubre	2023-10-22T00:00:00	2024-11-08T18:00:00	1	Precipitación	0.2
179808	7	Sololá	719	Santiago Atitlán	14	Cerro de Oro	10	Octubre	2023-10-22T00:00:00	2024-11-08T18:00:00	8	Radiación solar	191
179809	7	Sololá	719	Santiago Atitlán	14	Cerro de Oro	10	Octubre	2023-10-22T00:00:00	2024-11-08T19:00:00	2	Temperatura media	19.3
179810	7	Sololá	719	Santiago Atitlán	14	Cerro de Oro	10	Octubre	2023-10-22T00:00:00	2024-11-08T19:00:00	4	Temperatura máxima	19.9
179811	7	Sololá	719	Santiago Atitlán	14	Cerro de Oro	10	Octubre	2023-10-22T00:00:00	2024-11-08T19:00:00	3	Temperatura mínima	19.3
179812	7	Sololá	719	Santiago Atitlán	14	Cerro de Oro	10	Octubre	2023-10-22T00:00:00	2024-11-08T19:00:00	5	Humedad	88
179813	7	Sololá	719	Santiago Atitlán	14	Cerro de Oro	10	Octubre	2023-10-22T00:00:00	2024-11-08T19:00:00	6	Velocidad del viento	0
179814	7	Sololá	719	Santiago Atitlán	14	Cerro de Oro	10	Octubre	2023-10-22T00:00:00	2024-11-08T19:00:00	7	Dirección del viento	0
179815	7	Sololá	719	Santiago Atitlán	14	Cerro de Oro	10	Octubre	2023-10-22T00:00:00	2024-11-08T19:00:00	1	Precipitación	0.4
179816	7	Sololá	719	Santiago Atitlán	14	Cerro de Oro	10	Octubre	2023-10-22T00:00:00	2024-11-08T19:00:00	8	Radiación solar	0
179817	7	Sololá	719	Santiago Atitlán	14	Cerro de Oro	10	Octubre	2023-10-22T00:00:00	2024-11-08T20:00:00	2	Temperatura media	18.9
179818	7	Sololá	719	Santiago Atitlán	14	Cerro de Oro	10	Octubre	2023-10-22T00:00:00	2024-11-08T20:00:00	4	Temperatura máxima	19.3
179819	7	Sololá	719	Santiago Atitlán	14	Cerro de Oro	10	Octubre	2023-10-22T00:00:00	2024-11-08T20:00:00	3	Temperatura mínima	18.9
179820	7	Sololá	719	Santiago Atitlán	14	Cerro de Oro	10	Octubre	2023-10-22T00:00:00	2024-11-08T20:00:00	5	Humedad	89
179821	7	Sololá	719	Santiago Atitlán	14	Cerro de Oro	10	Octubre	2023-10-22T00:00:00	2024-11-08T20:00:00	6	Velocidad del viento	0
179822	7	Sololá	719	Santiago Atitlán	14	Cerro de Oro	10	Octubre	2023-10-22T00:00:00	2024-11-08T20:00:00	7	Dirección del viento	0
179823	7	Sololá	719	Santiago Atitlán	14	Cerro de Oro	10	Octubre	2023-10-22T00:00:00	2024-11-08T20:00:00	1	Precipitación	0.4
179824	7	Sololá	719	Santiago Atitlán	14	Cerro de Oro	10	Octubre	2023-10-22T00:00:00	2024-11-08T20:00:00	8	Radiación solar	0
179825	7	Sololá	719	Santiago Atitlán	14	Cerro de Oro	10	Octubre	2023-10-22T00:00:00	2024-11-08T21:00:00	2	Temperatura media	18.8
179826	7	Sololá	719	Santiago Atitlán	14	Cerro de Oro	10	Octubre	2023-10-22T00:00:00	2024-11-08T21:00:00	4	Temperatura máxima	18.9
179827	7	Sololá	719	Santiago Atitlán	14	Cerro de Oro	10	Octubre	2023-10-22T00:00:00	2024-11-08T21:00:00	3	Temperatura mínima	18.7
179828	7	Sololá	719	Santiago Atitlán	14	Cerro de Oro	10	Octubre	2023-10-22T00:00:00	2024-11-08T21:00:00	5	Humedad	90
179829	7	Sololá	719	Santiago Atitlán	14	Cerro de Oro	10	Octubre	2023-10-22T00:00:00	2024-11-08T21:00:00	6	Velocidad del viento	0
179830	7	Sololá	719	Santiago Atitlán	14	Cerro de Oro	10	Octubre	2023-10-22T00:00:00	2024-11-08T21:00:00	7	Dirección del viento	0
179831	7	Sololá	719	Santiago Atitlán	14	Cerro de Oro	10	Octubre	2023-10-22T00:00:00	2024-11-08T21:00:00	1	Precipitación	0
179832	7	Sololá	719	Santiago Atitlán	14	Cerro de Oro	10	Octubre	2023-10-22T00:00:00	2024-11-08T21:00:00	8	Radiación solar	0
179833	7	Sololá	719	Santiago Atitlán	14	Cerro de Oro	10	Octubre	2023-10-22T00:00:00	2024-11-08T22:00:00	2	Temperatura media	18.6
179834	7	Sololá	719	Santiago Atitlán	14	Cerro de Oro	10	Octubre	2023-10-22T00:00:00	2024-11-08T22:00:00	4	Temperatura máxima	18.8
179835	7	Sololá	719	Santiago Atitlán	14	Cerro de Oro	10	Octubre	2023-10-22T00:00:00	2024-11-08T22:00:00	3	Temperatura mínima	18.5
179836	7	Sololá	719	Santiago Atitlán	14	Cerro de Oro	10	Octubre	2023-10-22T00:00:00	2024-11-08T22:00:00	5	Humedad	89
179837	7	Sololá	719	Santiago Atitlán	14	Cerro de Oro	10	Octubre	2023-10-22T00:00:00	2024-11-08T22:00:00	6	Velocidad del viento	0
179838	7	Sololá	719	Santiago Atitlán	14	Cerro de Oro	10	Octubre	2023-10-22T00:00:00	2024-11-08T22:00:00	7	Dirección del viento	0
179839	7	Sololá	719	Santiago Atitlán	14	Cerro de Oro	10	Octubre	2023-10-22T00:00:00	2024-11-08T22:00:00	1	Precipitación	0
179840	7	Sololá	719	Santiago Atitlán	14	Cerro de Oro	10	Octubre	2023-10-22T00:00:00	2024-11-08T22:00:00	8	Radiación solar	0
179841	7	Sololá	719	Santiago Atitlán	14	Cerro de Oro	10	Octubre	2023-10-22T00:00:00	2024-11-08T23:00:00	2	Temperatura media	18.3
179842	7	Sololá	719	Santiago Atitlán	14	Cerro de Oro	10	Octubre	2023-10-22T00:00:00	2024-11-08T23:00:00	4	Temperatura máxima	18.6
179843	7	Sololá	719	Santiago Atitlán	14	Cerro de Oro	10	Octubre	2023-10-22T00:00:00	2024-11-08T23:00:00	3	Temperatura mínima	18.2
179844	7	Sololá	719	Santiago Atitlán	14	Cerro de Oro	10	Octubre	2023-10-22T00:00:00	2024-11-08T23:00:00	5	Humedad	89
179845	7	Sololá	719	Santiago Atitlán	14	Cerro de Oro	10	Octubre	2023-10-22T00:00:00	2024-11-08T23:00:00	6	Velocidad del viento	1.6
179846	7	Sololá	719	Santiago Atitlán	14	Cerro de Oro	10	Octubre	2023-10-22T00:00:00	2024-11-08T23:00:00	7	Dirección del viento	1.61
179847	7	Sololá	719	Santiago Atitlán	14	Cerro de Oro	10	Octubre	2023-10-22T00:00:00	2024-11-08T23:00:00	1	Precipitación	0
179848	7	Sololá	719	Santiago Atitlán	14	Cerro de Oro	10	Octubre	2023-10-22T00:00:00	2024-11-08T23:00:00	8	Radiación solar	0
179849	7	Sololá	719	Santiago Atitlán	14	Cerro de Oro	10	Octubre	2023-10-23T00:00:00	2024-11-08T00:00:00	2	Temperatura media	18.6
179850	7	Sololá	719	Santiago Atitlán	14	Cerro de Oro	10	Octubre	2023-10-23T00:00:00	2024-11-08T00:00:00	4	Temperatura máxima	18.6
179851	7	Sololá	719	Santiago Atitlán	14	Cerro de Oro	10	Octubre	2023-10-23T00:00:00	2024-11-08T00:00:00	3	Temperatura mínima	18.3
179852	7	Sololá	719	Santiago Atitlán	14	Cerro de Oro	10	Octubre	2023-10-23T00:00:00	2024-11-08T00:00:00	5	Humedad	86
179853	7	Sololá	719	Santiago Atitlán	14	Cerro de Oro	10	Octubre	2023-10-23T00:00:00	2024-11-08T00:00:00	6	Velocidad del viento	1.6
179854	7	Sololá	719	Santiago Atitlán	14	Cerro de Oro	10	Octubre	2023-10-23T00:00:00	2024-11-08T00:00:00	7	Dirección del viento	1.61
179855	7	Sololá	719	Santiago Atitlán	14	Cerro de Oro	10	Octubre	2023-10-23T00:00:00	2024-11-08T00:00:00	1	Precipitación	0
179856	7	Sololá	719	Santiago Atitlán	14	Cerro de Oro	10	Octubre	2023-10-23T00:00:00	2024-11-08T00:00:00	8	Radiación solar	0
179857	7	Sololá	719	Santiago Atitlán	14	Cerro de Oro	10	Octubre	2023-10-23T00:00:00	2024-11-08T01:00:00	2	Temperatura media	18.8
179858	7	Sololá	719	Santiago Atitlán	14	Cerro de Oro	10	Octubre	2023-10-23T00:00:00	2024-11-08T01:00:00	4	Temperatura máxima	18.8
179859	7	Sololá	719	Santiago Atitlán	14	Cerro de Oro	10	Octubre	2023-10-23T00:00:00	2024-11-08T01:00:00	3	Temperatura mínima	18.4
179860	7	Sololá	719	Santiago Atitlán	14	Cerro de Oro	10	Octubre	2023-10-23T00:00:00	2024-11-08T01:00:00	5	Humedad	81
179861	7	Sololá	719	Santiago Atitlán	14	Cerro de Oro	10	Octubre	2023-10-23T00:00:00	2024-11-08T01:00:00	6	Velocidad del viento	3.2
179862	7	Sololá	719	Santiago Atitlán	14	Cerro de Oro	10	Octubre	2023-10-23T00:00:00	2024-11-08T01:00:00	7	Dirección del viento	3.22
179863	7	Sololá	719	Santiago Atitlán	14	Cerro de Oro	10	Octubre	2023-10-23T00:00:00	2024-11-08T01:00:00	1	Precipitación	0
179864	7	Sololá	719	Santiago Atitlán	14	Cerro de Oro	10	Octubre	2023-10-23T00:00:00	2024-11-08T01:00:00	8	Radiación solar	0
179865	7	Sololá	719	Santiago Atitlán	14	Cerro de Oro	10	Octubre	2023-10-23T00:00:00	2024-11-08T02:00:00	2	Temperatura media	18.9
179866	7	Sololá	719	Santiago Atitlán	14	Cerro de Oro	10	Octubre	2023-10-23T00:00:00	2024-11-08T02:00:00	4	Temperatura máxima	19.2
179867	7	Sololá	719	Santiago Atitlán	14	Cerro de Oro	10	Octubre	2023-10-23T00:00:00	2024-11-08T02:00:00	3	Temperatura mínima	18.8
179868	7	Sololá	719	Santiago Atitlán	14	Cerro de Oro	10	Octubre	2023-10-23T00:00:00	2024-11-08T02:00:00	5	Humedad	80
179869	7	Sololá	719	Santiago Atitlán	14	Cerro de Oro	10	Octubre	2023-10-23T00:00:00	2024-11-08T02:00:00	6	Velocidad del viento	9.7
179870	7	Sololá	719	Santiago Atitlán	14	Cerro de Oro	10	Octubre	2023-10-23T00:00:00	2024-11-08T02:00:00	7	Dirección del viento	9.66
179871	7	Sololá	719	Santiago Atitlán	14	Cerro de Oro	10	Octubre	2023-10-23T00:00:00	2024-11-08T02:00:00	1	Precipitación	0
179872	7	Sololá	719	Santiago Atitlán	14	Cerro de Oro	10	Octubre	2023-10-23T00:00:00	2024-11-08T02:00:00	8	Radiación solar	0
179873	7	Sololá	719	Santiago Atitlán	14	Cerro de Oro	10	Octubre	2023-10-23T00:00:00	2024-11-08T03:00:00	2	Temperatura media	18.8
179874	7	Sololá	719	Santiago Atitlán	14	Cerro de Oro	10	Octubre	2023-10-23T00:00:00	2024-11-08T03:00:00	4	Temperatura máxima	19
179875	7	Sololá	719	Santiago Atitlán	14	Cerro de Oro	10	Octubre	2023-10-23T00:00:00	2024-11-08T03:00:00	3	Temperatura mínima	18.7
179876	7	Sololá	719	Santiago Atitlán	14	Cerro de Oro	10	Octubre	2023-10-23T00:00:00	2024-11-08T03:00:00	5	Humedad	79
179877	7	Sololá	719	Santiago Atitlán	14	Cerro de Oro	10	Octubre	2023-10-23T00:00:00	2024-11-08T03:00:00	6	Velocidad del viento	8
179878	7	Sololá	719	Santiago Atitlán	14	Cerro de Oro	10	Octubre	2023-10-23T00:00:00	2024-11-08T03:00:00	7	Dirección del viento	8.05
179879	7	Sololá	719	Santiago Atitlán	14	Cerro de Oro	10	Octubre	2023-10-23T00:00:00	2024-11-08T03:00:00	1	Precipitación	0
179880	7	Sololá	719	Santiago Atitlán	14	Cerro de Oro	10	Octubre	2023-10-23T00:00:00	2024-11-08T03:00:00	8	Radiación solar	0
179881	7	Sololá	719	Santiago Atitlán	14	Cerro de Oro	10	Octubre	2023-10-23T00:00:00	2024-11-08T04:00:00	2	Temperatura media	18.6
179882	7	Sololá	719	Santiago Atitlán	14	Cerro de Oro	10	Octubre	2023-10-23T00:00:00	2024-11-08T04:00:00	4	Temperatura máxima	18.9
179883	7	Sololá	719	Santiago Atitlán	14	Cerro de Oro	10	Octubre	2023-10-23T00:00:00	2024-11-08T04:00:00	3	Temperatura mínima	18.6
179884	7	Sololá	719	Santiago Atitlán	14	Cerro de Oro	10	Octubre	2023-10-23T00:00:00	2024-11-08T04:00:00	5	Humedad	81
179885	7	Sololá	719	Santiago Atitlán	14	Cerro de Oro	10	Octubre	2023-10-23T00:00:00	2024-11-08T04:00:00	6	Velocidad del viento	6.4
179886	7	Sololá	719	Santiago Atitlán	14	Cerro de Oro	10	Octubre	2023-10-23T00:00:00	2024-11-08T04:00:00	7	Dirección del viento	6.44
179887	7	Sololá	719	Santiago Atitlán	14	Cerro de Oro	10	Octubre	2023-10-23T00:00:00	2024-11-08T04:00:00	1	Precipitación	0
179888	7	Sololá	719	Santiago Atitlán	14	Cerro de Oro	10	Octubre	2023-10-23T00:00:00	2024-11-08T04:00:00	8	Radiación solar	0
179889	7	Sololá	719	Santiago Atitlán	14	Cerro de Oro	10	Octubre	2023-10-23T00:00:00	2024-11-08T05:00:00	2	Temperatura media	18.1
179890	7	Sololá	719	Santiago Atitlán	14	Cerro de Oro	10	Octubre	2023-10-23T00:00:00	2024-11-08T05:00:00	4	Temperatura máxima	18.7
179891	7	Sololá	719	Santiago Atitlán	14	Cerro de Oro	10	Octubre	2023-10-23T00:00:00	2024-11-08T05:00:00	3	Temperatura mínima	18
179892	7	Sololá	719	Santiago Atitlán	14	Cerro de Oro	10	Octubre	2023-10-23T00:00:00	2024-11-08T05:00:00	5	Humedad	80
179893	7	Sololá	719	Santiago Atitlán	14	Cerro de Oro	10	Octubre	2023-10-23T00:00:00	2024-11-08T05:00:00	6	Velocidad del viento	8
179894	7	Sololá	719	Santiago Atitlán	14	Cerro de Oro	10	Octubre	2023-10-23T00:00:00	2024-11-08T05:00:00	7	Dirección del viento	8.05
179895	7	Sololá	719	Santiago Atitlán	14	Cerro de Oro	10	Octubre	2023-10-23T00:00:00	2024-11-08T05:00:00	1	Precipitación	0
179896	7	Sololá	719	Santiago Atitlán	14	Cerro de Oro	10	Octubre	2023-10-23T00:00:00	2024-11-08T05:00:00	8	Radiación solar	0
179897	7	Sololá	719	Santiago Atitlán	14	Cerro de Oro	10	Octubre	2023-10-23T00:00:00	2024-11-08T06:00:00	2	Temperatura media	17.8
179898	7	Sololá	719	Santiago Atitlán	14	Cerro de Oro	10	Octubre	2023-10-23T00:00:00	2024-11-08T06:00:00	4	Temperatura máxima	18
179899	7	Sololá	719	Santiago Atitlán	14	Cerro de Oro	10	Octubre	2023-10-23T00:00:00	2024-11-08T06:00:00	3	Temperatura mínima	17.6
179900	7	Sololá	719	Santiago Atitlán	14	Cerro de Oro	10	Octubre	2023-10-23T00:00:00	2024-11-08T06:00:00	5	Humedad	80
179901	7	Sololá	719	Santiago Atitlán	14	Cerro de Oro	10	Octubre	2023-10-23T00:00:00	2024-11-08T06:00:00	6	Velocidad del viento	16.1
179902	7	Sololá	719	Santiago Atitlán	14	Cerro de Oro	10	Octubre	2023-10-23T00:00:00	2024-11-08T06:00:00	7	Dirección del viento	16.09
179903	7	Sololá	719	Santiago Atitlán	14	Cerro de Oro	10	Octubre	2023-10-23T00:00:00	2024-11-08T06:00:00	1	Precipitación	0
179904	7	Sololá	719	Santiago Atitlán	14	Cerro de Oro	10	Octubre	2023-10-23T00:00:00	2024-11-08T06:00:00	8	Radiación solar	0
179905	7	Sololá	719	Santiago Atitlán	14	Cerro de Oro	10	Octubre	2023-10-23T00:00:00	2024-11-08T07:00:00	2	Temperatura media	18.1
179906	7	Sololá	719	Santiago Atitlán	14	Cerro de Oro	10	Octubre	2023-10-23T00:00:00	2024-11-08T07:00:00	4	Temperatura máxima	18.1
179907	7	Sololá	719	Santiago Atitlán	14	Cerro de Oro	10	Octubre	2023-10-23T00:00:00	2024-11-08T07:00:00	3	Temperatura mínima	17.7
179908	7	Sololá	719	Santiago Atitlán	14	Cerro de Oro	10	Octubre	2023-10-23T00:00:00	2024-11-08T07:00:00	5	Humedad	78
179909	7	Sololá	719	Santiago Atitlán	14	Cerro de Oro	10	Octubre	2023-10-23T00:00:00	2024-11-08T07:00:00	6	Velocidad del viento	16.1
179910	7	Sololá	719	Santiago Atitlán	14	Cerro de Oro	10	Octubre	2023-10-23T00:00:00	2024-11-08T07:00:00	7	Dirección del viento	16.09
179911	7	Sololá	719	Santiago Atitlán	14	Cerro de Oro	10	Octubre	2023-10-23T00:00:00	2024-11-08T07:00:00	1	Precipitación	0
179912	7	Sololá	719	Santiago Atitlán	14	Cerro de Oro	10	Octubre	2023-10-23T00:00:00	2024-11-08T07:00:00	8	Radiación solar	10
179913	7	Sololá	719	Santiago Atitlán	14	Cerro de Oro	10	Octubre	2023-10-23T00:00:00	2024-11-08T08:00:00	2	Temperatura media	19.2
179914	7	Sololá	719	Santiago Atitlán	14	Cerro de Oro	10	Octubre	2023-10-23T00:00:00	2024-11-08T08:00:00	4	Temperatura máxima	19.2
179915	7	Sololá	719	Santiago Atitlán	14	Cerro de Oro	10	Octubre	2023-10-23T00:00:00	2024-11-08T08:00:00	3	Temperatura mínima	18.1
179916	7	Sololá	719	Santiago Atitlán	14	Cerro de Oro	10	Octubre	2023-10-23T00:00:00	2024-11-08T08:00:00	5	Humedad	76
179917	7	Sololá	719	Santiago Atitlán	14	Cerro de Oro	10	Octubre	2023-10-23T00:00:00	2024-11-08T08:00:00	6	Velocidad del viento	11.3
179918	7	Sololá	719	Santiago Atitlán	14	Cerro de Oro	10	Octubre	2023-10-23T00:00:00	2024-11-08T08:00:00	7	Dirección del viento	11.27
179919	7	Sololá	719	Santiago Atitlán	14	Cerro de Oro	10	Octubre	2023-10-23T00:00:00	2024-11-08T08:00:00	1	Precipitación	0
179920	7	Sololá	719	Santiago Atitlán	14	Cerro de Oro	10	Octubre	2023-10-23T00:00:00	2024-11-08T08:00:00	8	Radiación solar	91
179921	7	Sololá	719	Santiago Atitlán	14	Cerro de Oro	10	Octubre	2023-10-23T00:00:00	2024-11-08T09:00:00	2	Temperatura media	22
179922	7	Sololá	719	Santiago Atitlán	14	Cerro de Oro	10	Octubre	2023-10-23T00:00:00	2024-11-08T09:00:00	4	Temperatura máxima	22.4
179923	7	Sololá	719	Santiago Atitlán	14	Cerro de Oro	10	Octubre	2023-10-23T00:00:00	2024-11-08T09:00:00	3	Temperatura mínima	19.2
179924	7	Sololá	719	Santiago Atitlán	14	Cerro de Oro	10	Octubre	2023-10-23T00:00:00	2024-11-08T09:00:00	5	Humedad	70
179925	7	Sololá	719	Santiago Atitlán	14	Cerro de Oro	10	Octubre	2023-10-23T00:00:00	2024-11-08T09:00:00	6	Velocidad del viento	1.6
179926	7	Sololá	719	Santiago Atitlán	14	Cerro de Oro	10	Octubre	2023-10-23T00:00:00	2024-11-08T09:00:00	7	Dirección del viento	1.61
179927	7	Sololá	719	Santiago Atitlán	14	Cerro de Oro	10	Octubre	2023-10-23T00:00:00	2024-11-08T09:00:00	1	Precipitación	0
179928	7	Sololá	719	Santiago Atitlán	14	Cerro de Oro	10	Octubre	2023-10-23T00:00:00	2024-11-08T09:00:00	8	Radiación solar	323
179929	7	Sololá	719	Santiago Atitlán	14	Cerro de Oro	10	Octubre	2023-10-23T00:00:00	2024-11-08T10:00:00	2	Temperatura media	22.8
179930	7	Sololá	719	Santiago Atitlán	14	Cerro de Oro	10	Octubre	2023-10-23T00:00:00	2024-11-08T10:00:00	4	Temperatura máxima	22.8
179931	7	Sololá	719	Santiago Atitlán	14	Cerro de Oro	10	Octubre	2023-10-23T00:00:00	2024-11-08T10:00:00	3	Temperatura mínima	21.1
179932	7	Sololá	719	Santiago Atitlán	14	Cerro de Oro	10	Octubre	2023-10-23T00:00:00	2024-11-08T10:00:00	5	Humedad	71
179933	7	Sololá	719	Santiago Atitlán	14	Cerro de Oro	10	Octubre	2023-10-23T00:00:00	2024-11-08T10:00:00	6	Velocidad del viento	1.6
179934	7	Sololá	719	Santiago Atitlán	14	Cerro de Oro	10	Octubre	2023-10-23T00:00:00	2024-11-08T10:00:00	7	Dirección del viento	1.61
179935	7	Sololá	719	Santiago Atitlán	14	Cerro de Oro	10	Octubre	2023-10-23T00:00:00	2024-11-08T10:00:00	1	Precipitación	0
179936	7	Sololá	719	Santiago Atitlán	14	Cerro de Oro	10	Octubre	2023-10-23T00:00:00	2024-11-08T10:00:00	8	Radiación solar	479
179937	7	Sololá	719	Santiago Atitlán	14	Cerro de Oro	10	Octubre	2023-10-23T00:00:00	2024-11-08T11:00:00	2	Temperatura media	24.1
179938	7	Sololá	719	Santiago Atitlán	14	Cerro de Oro	10	Octubre	2023-10-23T00:00:00	2024-11-08T11:00:00	4	Temperatura máxima	24.4
179939	7	Sololá	719	Santiago Atitlán	14	Cerro de Oro	10	Octubre	2023-10-23T00:00:00	2024-11-08T11:00:00	3	Temperatura mínima	22.8
179940	7	Sololá	719	Santiago Atitlán	14	Cerro de Oro	10	Octubre	2023-10-23T00:00:00	2024-11-08T11:00:00	5	Humedad	66
179941	7	Sololá	719	Santiago Atitlán	14	Cerro de Oro	10	Octubre	2023-10-23T00:00:00	2024-11-08T11:00:00	6	Velocidad del viento	3.2
179942	7	Sololá	719	Santiago Atitlán	14	Cerro de Oro	10	Octubre	2023-10-23T00:00:00	2024-11-08T11:00:00	7	Dirección del viento	3.22
179943	7	Sololá	719	Santiago Atitlán	14	Cerro de Oro	10	Octubre	2023-10-23T00:00:00	2024-11-08T11:00:00	1	Precipitación	0
179944	7	Sololá	719	Santiago Atitlán	14	Cerro de Oro	10	Octubre	2023-10-23T00:00:00	2024-11-08T11:00:00	8	Radiación solar	668
179945	7	Sololá	719	Santiago Atitlán	14	Cerro de Oro	10	Octubre	2023-10-23T00:00:00	2024-11-08T12:00:00	2	Temperatura media	25.3
179946	7	Sololá	719	Santiago Atitlán	14	Cerro de Oro	10	Octubre	2023-10-23T00:00:00	2024-11-08T12:00:00	4	Temperatura máxima	25.3
179947	7	Sololá	719	Santiago Atitlán	14	Cerro de Oro	10	Octubre	2023-10-23T00:00:00	2024-11-08T12:00:00	3	Temperatura mínima	23.9
179948	7	Sololá	719	Santiago Atitlán	14	Cerro de Oro	10	Octubre	2023-10-23T00:00:00	2024-11-08T12:00:00	5	Humedad	70
179949	7	Sololá	719	Santiago Atitlán	14	Cerro de Oro	10	Octubre	2023-10-23T00:00:00	2024-11-08T12:00:00	6	Velocidad del viento	3.2
179950	7	Sololá	719	Santiago Atitlán	14	Cerro de Oro	10	Octubre	2023-10-23T00:00:00	2024-11-08T12:00:00	7	Dirección del viento	3.22
179951	7	Sololá	719	Santiago Atitlán	14	Cerro de Oro	10	Octubre	2023-10-23T00:00:00	2024-11-08T12:00:00	1	Precipitación	0
179952	7	Sololá	719	Santiago Atitlán	14	Cerro de Oro	10	Octubre	2023-10-23T00:00:00	2024-11-08T12:00:00	8	Radiación solar	856
179953	7	Sololá	719	Santiago Atitlán	14	Cerro de Oro	10	Octubre	2023-10-23T00:00:00	2024-11-08T13:00:00	2	Temperatura media	25.7
179954	7	Sololá	719	Santiago Atitlán	14	Cerro de Oro	10	Octubre	2023-10-23T00:00:00	2024-11-08T13:00:00	4	Temperatura máxima	25.9
179955	7	Sololá	719	Santiago Atitlán	14	Cerro de Oro	10	Octubre	2023-10-23T00:00:00	2024-11-08T13:00:00	3	Temperatura mínima	25.3
179956	7	Sololá	719	Santiago Atitlán	14	Cerro de Oro	10	Octubre	2023-10-23T00:00:00	2024-11-08T13:00:00	5	Humedad	65
179957	7	Sololá	719	Santiago Atitlán	14	Cerro de Oro	10	Octubre	2023-10-23T00:00:00	2024-11-08T13:00:00	6	Velocidad del viento	4.8
179958	7	Sololá	719	Santiago Atitlán	14	Cerro de Oro	10	Octubre	2023-10-23T00:00:00	2024-11-08T13:00:00	7	Dirección del viento	4.83
179959	7	Sololá	719	Santiago Atitlán	14	Cerro de Oro	10	Octubre	2023-10-23T00:00:00	2024-11-08T13:00:00	1	Precipitación	0
179960	7	Sololá	719	Santiago Atitlán	14	Cerro de Oro	10	Octubre	2023-10-23T00:00:00	2024-11-08T13:00:00	8	Radiación solar	965
179961	7	Sololá	719	Santiago Atitlán	14	Cerro de Oro	10	Octubre	2023-10-23T00:00:00	2024-11-08T14:00:00	2	Temperatura media	25.3
179962	7	Sololá	719	Santiago Atitlán	14	Cerro de Oro	10	Octubre	2023-10-23T00:00:00	2024-11-08T14:00:00	4	Temperatura máxima	25.9
179963	7	Sololá	719	Santiago Atitlán	14	Cerro de Oro	10	Octubre	2023-10-23T00:00:00	2024-11-08T14:00:00	3	Temperatura mínima	25.3
179964	7	Sololá	719	Santiago Atitlán	14	Cerro de Oro	10	Octubre	2023-10-23T00:00:00	2024-11-08T14:00:00	5	Humedad	69
179965	7	Sololá	719	Santiago Atitlán	14	Cerro de Oro	10	Octubre	2023-10-23T00:00:00	2024-11-08T14:00:00	6	Velocidad del viento	6.4
179966	7	Sololá	719	Santiago Atitlán	14	Cerro de Oro	10	Octubre	2023-10-23T00:00:00	2024-11-08T14:00:00	7	Dirección del viento	6.44
179967	7	Sololá	719	Santiago Atitlán	14	Cerro de Oro	10	Octubre	2023-10-23T00:00:00	2024-11-08T14:00:00	1	Precipitación	0
179968	7	Sololá	719	Santiago Atitlán	14	Cerro de Oro	10	Octubre	2023-10-23T00:00:00	2024-11-08T14:00:00	8	Radiación solar	648
179969	7	Sololá	719	Santiago Atitlán	14	Cerro de Oro	10	Octubre	2023-10-23T00:00:00	2024-11-08T15:00:00	2	Temperatura media	24.4
179970	7	Sololá	719	Santiago Atitlán	14	Cerro de Oro	10	Octubre	2023-10-23T00:00:00	2024-11-08T15:00:00	4	Temperatura máxima	25.3
179971	7	Sololá	719	Santiago Atitlán	14	Cerro de Oro	10	Octubre	2023-10-23T00:00:00	2024-11-08T15:00:00	3	Temperatura mínima	24.1
179972	7	Sololá	719	Santiago Atitlán	14	Cerro de Oro	10	Octubre	2023-10-23T00:00:00	2024-11-08T15:00:00	5	Humedad	71
179973	7	Sololá	719	Santiago Atitlán	14	Cerro de Oro	10	Octubre	2023-10-23T00:00:00	2024-11-08T15:00:00	6	Velocidad del viento	6.4
179974	7	Sololá	719	Santiago Atitlán	14	Cerro de Oro	10	Octubre	2023-10-23T00:00:00	2024-11-08T15:00:00	7	Dirección del viento	6.44
179975	7	Sololá	719	Santiago Atitlán	14	Cerro de Oro	10	Octubre	2023-10-23T00:00:00	2024-11-08T15:00:00	1	Precipitación	0
179976	7	Sololá	719	Santiago Atitlán	14	Cerro de Oro	10	Octubre	2023-10-23T00:00:00	2024-11-08T15:00:00	8	Radiación solar	286
179977	7	Sololá	719	Santiago Atitlán	14	Cerro de Oro	10	Octubre	2023-10-23T00:00:00	2024-11-08T16:00:00	2	Temperatura media	24.1
179978	7	Sololá	719	Santiago Atitlán	14	Cerro de Oro	10	Octubre	2023-10-23T00:00:00	2024-11-08T16:00:00	4	Temperatura máxima	24.7
179979	7	Sololá	719	Santiago Atitlán	14	Cerro de Oro	10	Octubre	2023-10-23T00:00:00	2024-11-08T16:00:00	3	Temperatura mínima	23.7
179980	7	Sololá	719	Santiago Atitlán	14	Cerro de Oro	10	Octubre	2023-10-23T00:00:00	2024-11-08T16:00:00	5	Humedad	73
179981	7	Sololá	719	Santiago Atitlán	14	Cerro de Oro	10	Octubre	2023-10-23T00:00:00	2024-11-08T16:00:00	6	Velocidad del viento	4.8
179982	7	Sololá	719	Santiago Atitlán	14	Cerro de Oro	10	Octubre	2023-10-23T00:00:00	2024-11-08T16:00:00	7	Dirección del viento	4.83
179983	7	Sololá	719	Santiago Atitlán	14	Cerro de Oro	10	Octubre	2023-10-23T00:00:00	2024-11-08T16:00:00	1	Precipitación	0
179984	7	Sololá	719	Santiago Atitlán	14	Cerro de Oro	10	Octubre	2023-10-23T00:00:00	2024-11-08T16:00:00	8	Radiación solar	308
179985	7	Sololá	719	Santiago Atitlán	14	Cerro de Oro	10	Octubre	2023-10-23T00:00:00	2024-11-08T17:00:00	2	Temperatura media	23.8
179986	7	Sololá	719	Santiago Atitlán	14	Cerro de Oro	10	Octubre	2023-10-23T00:00:00	2024-11-08T17:00:00	4	Temperatura máxima	24.7
179987	7	Sololá	719	Santiago Atitlán	14	Cerro de Oro	10	Octubre	2023-10-23T00:00:00	2024-11-08T17:00:00	3	Temperatura mínima	23.8
179988	7	Sololá	719	Santiago Atitlán	14	Cerro de Oro	10	Octubre	2023-10-23T00:00:00	2024-11-08T17:00:00	5	Humedad	74
179989	7	Sololá	719	Santiago Atitlán	14	Cerro de Oro	10	Octubre	2023-10-23T00:00:00	2024-11-08T17:00:00	6	Velocidad del viento	3.2
179990	7	Sololá	719	Santiago Atitlán	14	Cerro de Oro	10	Octubre	2023-10-23T00:00:00	2024-11-08T17:00:00	7	Dirección del viento	3.22
179991	7	Sololá	719	Santiago Atitlán	14	Cerro de Oro	10	Octubre	2023-10-23T00:00:00	2024-11-08T17:00:00	1	Precipitación	0
179992	7	Sololá	719	Santiago Atitlán	14	Cerro de Oro	10	Octubre	2023-10-23T00:00:00	2024-11-08T17:00:00	8	Radiación solar	195
179993	7	Sololá	719	Santiago Atitlán	14	Cerro de Oro	10	Octubre	2023-10-23T00:00:00	2024-11-08T18:00:00	2	Temperatura media	21.4
179994	7	Sololá	719	Santiago Atitlán	14	Cerro de Oro	10	Octubre	2023-10-23T00:00:00	2024-11-08T18:00:00	4	Temperatura máxima	23.8
179995	7	Sololá	719	Santiago Atitlán	14	Cerro de Oro	10	Octubre	2023-10-23T00:00:00	2024-11-08T18:00:00	3	Temperatura mínima	21.3
179996	7	Sololá	719	Santiago Atitlán	14	Cerro de Oro	10	Octubre	2023-10-23T00:00:00	2024-11-08T18:00:00	5	Humedad	82
179997	7	Sololá	719	Santiago Atitlán	14	Cerro de Oro	10	Octubre	2023-10-23T00:00:00	2024-11-08T18:00:00	6	Velocidad del viento	3.2
179998	7	Sololá	719	Santiago Atitlán	14	Cerro de Oro	10	Octubre	2023-10-23T00:00:00	2024-11-08T18:00:00	7	Dirección del viento	3.22
179999	7	Sololá	719	Santiago Atitlán	14	Cerro de Oro	10	Octubre	2023-10-23T00:00:00	2024-11-08T18:00:00	1	Precipitación	0
180000	7	Sololá	719	Santiago Atitlán	14	Cerro de Oro	10	Octubre	2023-10-23T00:00:00	2024-11-08T18:00:00	8	Radiación solar	117
180001	7	Sololá	719	Santiago Atitlán	14	Cerro de Oro	10	Octubre	2023-10-23T00:00:00	2024-11-08T19:00:00	2	Temperatura media	20.8
180002	7	Sololá	719	Santiago Atitlán	14	Cerro de Oro	10	Octubre	2023-10-23T00:00:00	2024-11-08T19:00:00	4	Temperatura máxima	21.4
180003	7	Sololá	719	Santiago Atitlán	14	Cerro de Oro	10	Octubre	2023-10-23T00:00:00	2024-11-08T19:00:00	3	Temperatura mínima	20.8
180004	7	Sololá	719	Santiago Atitlán	14	Cerro de Oro	10	Octubre	2023-10-23T00:00:00	2024-11-08T19:00:00	5	Humedad	84
180005	7	Sololá	719	Santiago Atitlán	14	Cerro de Oro	10	Octubre	2023-10-23T00:00:00	2024-11-08T19:00:00	6	Velocidad del viento	1.6
180006	7	Sololá	719	Santiago Atitlán	14	Cerro de Oro	10	Octubre	2023-10-23T00:00:00	2024-11-08T19:00:00	7	Dirección del viento	1.61
180007	7	Sololá	719	Santiago Atitlán	14	Cerro de Oro	10	Octubre	2023-10-23T00:00:00	2024-11-08T19:00:00	1	Precipitación	0
180008	7	Sololá	719	Santiago Atitlán	14	Cerro de Oro	10	Octubre	2023-10-23T00:00:00	2024-11-08T19:00:00	8	Radiación solar	0
180009	7	Sololá	719	Santiago Atitlán	14	Cerro de Oro	10	Octubre	2023-10-23T00:00:00	2024-11-08T20:00:00	2	Temperatura media	20.7
180010	7	Sololá	719	Santiago Atitlán	14	Cerro de Oro	10	Octubre	2023-10-23T00:00:00	2024-11-08T20:00:00	4	Temperatura máxima	20.8
180011	7	Sololá	719	Santiago Atitlán	14	Cerro de Oro	10	Octubre	2023-10-23T00:00:00	2024-11-08T20:00:00	3	Temperatura mínima	20.6
180012	7	Sololá	719	Santiago Atitlán	14	Cerro de Oro	10	Octubre	2023-10-23T00:00:00	2024-11-08T20:00:00	5	Humedad	85
180013	7	Sololá	719	Santiago Atitlán	14	Cerro de Oro	10	Octubre	2023-10-23T00:00:00	2024-11-08T20:00:00	6	Velocidad del viento	1.6
180014	7	Sololá	719	Santiago Atitlán	14	Cerro de Oro	10	Octubre	2023-10-23T00:00:00	2024-11-08T20:00:00	7	Dirección del viento	1.61
180015	7	Sololá	719	Santiago Atitlán	14	Cerro de Oro	10	Octubre	2023-10-23T00:00:00	2024-11-08T20:00:00	1	Precipitación	0
180016	7	Sololá	719	Santiago Atitlán	14	Cerro de Oro	10	Octubre	2023-10-23T00:00:00	2024-11-08T20:00:00	8	Radiación solar	0
180017	7	Sololá	719	Santiago Atitlán	14	Cerro de Oro	10	Octubre	2023-10-23T00:00:00	2024-11-08T21:00:00	2	Temperatura media	20.4
180018	7	Sololá	719	Santiago Atitlán	14	Cerro de Oro	10	Octubre	2023-10-23T00:00:00	2024-11-08T21:00:00	4	Temperatura máxima	20.8
180019	7	Sololá	719	Santiago Atitlán	14	Cerro de Oro	10	Octubre	2023-10-23T00:00:00	2024-11-08T21:00:00	3	Temperatura mínima	20.4
180020	7	Sololá	719	Santiago Atitlán	14	Cerro de Oro	10	Octubre	2023-10-23T00:00:00	2024-11-08T21:00:00	5	Humedad	88
180021	7	Sololá	719	Santiago Atitlán	14	Cerro de Oro	10	Octubre	2023-10-23T00:00:00	2024-11-08T21:00:00	6	Velocidad del viento	1.6
180022	7	Sololá	719	Santiago Atitlán	14	Cerro de Oro	10	Octubre	2023-10-23T00:00:00	2024-11-08T21:00:00	7	Dirección del viento	1.61
180023	7	Sololá	719	Santiago Atitlán	14	Cerro de Oro	10	Octubre	2023-10-23T00:00:00	2024-11-08T21:00:00	1	Precipitación	0
180024	7	Sololá	719	Santiago Atitlán	14	Cerro de Oro	10	Octubre	2023-10-23T00:00:00	2024-11-08T21:00:00	8	Radiación solar	0
180025	7	Sololá	719	Santiago Atitlán	14	Cerro de Oro	10	Octubre	2023-10-23T00:00:00	2024-11-08T22:00:00	2	Temperatura media	20.1
180026	7	Sololá	719	Santiago Atitlán	14	Cerro de Oro	10	Octubre	2023-10-23T00:00:00	2024-11-08T22:00:00	4	Temperatura máxima	20.4
180027	7	Sololá	719	Santiago Atitlán	14	Cerro de Oro	10	Octubre	2023-10-23T00:00:00	2024-11-08T22:00:00	3	Temperatura mínima	20.1
180028	7	Sololá	719	Santiago Atitlán	14	Cerro de Oro	10	Octubre	2023-10-23T00:00:00	2024-11-08T22:00:00	5	Humedad	86
180029	7	Sololá	719	Santiago Atitlán	14	Cerro de Oro	10	Octubre	2023-10-23T00:00:00	2024-11-08T22:00:00	6	Velocidad del viento	1.6
180030	7	Sololá	719	Santiago Atitlán	14	Cerro de Oro	10	Octubre	2023-10-23T00:00:00	2024-11-08T22:00:00	7	Dirección del viento	1.61
180031	7	Sololá	719	Santiago Atitlán	14	Cerro de Oro	10	Octubre	2023-10-23T00:00:00	2024-11-08T22:00:00	1	Precipitación	0
180032	7	Sololá	719	Santiago Atitlán	14	Cerro de Oro	10	Octubre	2023-10-23T00:00:00	2024-11-08T22:00:00	8	Radiación solar	0
180033	7	Sololá	719	Santiago Atitlán	14	Cerro de Oro	10	Octubre	2023-10-23T00:00:00	2024-11-08T23:00:00	2	Temperatura media	19.7
180034	7	Sololá	719	Santiago Atitlán	14	Cerro de Oro	10	Octubre	2023-10-23T00:00:00	2024-11-08T23:00:00	4	Temperatura máxima	20.1
180035	7	Sololá	719	Santiago Atitlán	14	Cerro de Oro	10	Octubre	2023-10-23T00:00:00	2024-11-08T23:00:00	3	Temperatura mínima	19.7
180036	7	Sololá	719	Santiago Atitlán	14	Cerro de Oro	10	Octubre	2023-10-23T00:00:00	2024-11-08T23:00:00	5	Humedad	86
180037	7	Sololá	719	Santiago Atitlán	14	Cerro de Oro	10	Octubre	2023-10-23T00:00:00	2024-11-08T23:00:00	6	Velocidad del viento	1.6
180038	7	Sololá	719	Santiago Atitlán	14	Cerro de Oro	10	Octubre	2023-10-23T00:00:00	2024-11-08T23:00:00	7	Dirección del viento	1.61
180039	7	Sololá	719	Santiago Atitlán	14	Cerro de Oro	10	Octubre	2023-10-23T00:00:00	2024-11-08T23:00:00	1	Precipitación	0
180040	7	Sololá	719	Santiago Atitlán	14	Cerro de Oro	10	Octubre	2023-10-23T00:00:00	2024-11-08T23:00:00	8	Radiación solar	0
180041	7	Sololá	719	Santiago Atitlán	14	Cerro de Oro	10	Octubre	2023-10-24T00:00:00	2024-11-08T00:00:00	2	Temperatura media	19.4
180042	7	Sololá	719	Santiago Atitlán	14	Cerro de Oro	10	Octubre	2023-10-24T00:00:00	2024-11-08T00:00:00	4	Temperatura máxima	19.8
180043	7	Sololá	719	Santiago Atitlán	14	Cerro de Oro	10	Octubre	2023-10-24T00:00:00	2024-11-08T00:00:00	3	Temperatura mínima	19.3
180044	7	Sololá	719	Santiago Atitlán	14	Cerro de Oro	10	Octubre	2023-10-24T00:00:00	2024-11-08T00:00:00	5	Humedad	87
180045	7	Sololá	719	Santiago Atitlán	14	Cerro de Oro	10	Octubre	2023-10-24T00:00:00	2024-11-08T00:00:00	6	Velocidad del viento	1.6
180046	7	Sololá	719	Santiago Atitlán	14	Cerro de Oro	10	Octubre	2023-10-24T00:00:00	2024-11-08T00:00:00	7	Dirección del viento	1.61
180047	7	Sololá	719	Santiago Atitlán	14	Cerro de Oro	10	Octubre	2023-10-24T00:00:00	2024-11-08T00:00:00	1	Precipitación	0
180048	7	Sololá	719	Santiago Atitlán	14	Cerro de Oro	10	Octubre	2023-10-24T00:00:00	2024-11-08T00:00:00	8	Radiación solar	0
180049	7	Sololá	719	Santiago Atitlán	14	Cerro de Oro	10	Octubre	2023-10-24T00:00:00	2024-11-08T01:00:00	2	Temperatura media	19.4
180050	7	Sololá	719	Santiago Atitlán	14	Cerro de Oro	10	Octubre	2023-10-24T00:00:00	2024-11-08T01:00:00	4	Temperatura máxima	19.4
180051	7	Sololá	719	Santiago Atitlán	14	Cerro de Oro	10	Octubre	2023-10-24T00:00:00	2024-11-08T01:00:00	3	Temperatura mínima	19.3
180052	7	Sololá	719	Santiago Atitlán	14	Cerro de Oro	10	Octubre	2023-10-24T00:00:00	2024-11-08T01:00:00	5	Humedad	88
180053	7	Sololá	719	Santiago Atitlán	14	Cerro de Oro	10	Octubre	2023-10-24T00:00:00	2024-11-08T01:00:00	6	Velocidad del viento	0
180054	7	Sololá	719	Santiago Atitlán	14	Cerro de Oro	10	Octubre	2023-10-24T00:00:00	2024-11-08T01:00:00	7	Dirección del viento	0
180055	7	Sololá	719	Santiago Atitlán	14	Cerro de Oro	10	Octubre	2023-10-24T00:00:00	2024-11-08T01:00:00	1	Precipitación	0
180056	7	Sololá	719	Santiago Atitlán	14	Cerro de Oro	10	Octubre	2023-10-24T00:00:00	2024-11-08T01:00:00	8	Radiación solar	0
180057	7	Sololá	719	Santiago Atitlán	14	Cerro de Oro	10	Octubre	2023-10-24T00:00:00	2024-11-08T02:00:00	2	Temperatura media	19.1
180058	7	Sololá	719	Santiago Atitlán	14	Cerro de Oro	10	Octubre	2023-10-24T00:00:00	2024-11-08T02:00:00	4	Temperatura máxima	19.4
180059	7	Sololá	719	Santiago Atitlán	14	Cerro de Oro	10	Octubre	2023-10-24T00:00:00	2024-11-08T02:00:00	3	Temperatura mínima	19.1
180060	7	Sololá	719	Santiago Atitlán	14	Cerro de Oro	10	Octubre	2023-10-24T00:00:00	2024-11-08T02:00:00	5	Humedad	85
180061	7	Sololá	719	Santiago Atitlán	14	Cerro de Oro	10	Octubre	2023-10-24T00:00:00	2024-11-08T02:00:00	6	Velocidad del viento	1.6
180062	7	Sololá	719	Santiago Atitlán	14	Cerro de Oro	10	Octubre	2023-10-24T00:00:00	2024-11-08T02:00:00	7	Dirección del viento	1.61
180063	7	Sololá	719	Santiago Atitlán	14	Cerro de Oro	10	Octubre	2023-10-24T00:00:00	2024-11-08T02:00:00	1	Precipitación	0
180064	7	Sololá	719	Santiago Atitlán	14	Cerro de Oro	10	Octubre	2023-10-24T00:00:00	2024-11-08T02:00:00	8	Radiación solar	0
180065	7	Sololá	719	Santiago Atitlán	14	Cerro de Oro	10	Octubre	2023-10-24T00:00:00	2024-11-08T03:00:00	2	Temperatura media	19.1
180066	7	Sololá	719	Santiago Atitlán	14	Cerro de Oro	10	Octubre	2023-10-24T00:00:00	2024-11-08T03:00:00	4	Temperatura máxima	19.3
180067	7	Sololá	719	Santiago Atitlán	14	Cerro de Oro	10	Octubre	2023-10-24T00:00:00	2024-11-08T03:00:00	3	Temperatura mínima	19.1
180068	7	Sololá	719	Santiago Atitlán	14	Cerro de Oro	10	Octubre	2023-10-24T00:00:00	2024-11-08T03:00:00	5	Humedad	88
180069	7	Sololá	719	Santiago Atitlán	14	Cerro de Oro	10	Octubre	2023-10-24T00:00:00	2024-11-08T03:00:00	6	Velocidad del viento	0
180070	7	Sololá	719	Santiago Atitlán	14	Cerro de Oro	10	Octubre	2023-10-24T00:00:00	2024-11-08T03:00:00	7	Dirección del viento	0
180071	7	Sololá	719	Santiago Atitlán	14	Cerro de Oro	10	Octubre	2023-10-24T00:00:00	2024-11-08T03:00:00	1	Precipitación	0
180072	7	Sololá	719	Santiago Atitlán	14	Cerro de Oro	10	Octubre	2023-10-24T00:00:00	2024-11-08T03:00:00	8	Radiación solar	0
180073	7	Sololá	719	Santiago Atitlán	14	Cerro de Oro	10	Octubre	2023-10-24T00:00:00	2024-11-08T04:00:00	2	Temperatura media	19.3
180074	7	Sololá	719	Santiago Atitlán	14	Cerro de Oro	10	Octubre	2023-10-24T00:00:00	2024-11-08T04:00:00	4	Temperatura máxima	19.4
180075	7	Sololá	719	Santiago Atitlán	14	Cerro de Oro	10	Octubre	2023-10-24T00:00:00	2024-11-08T04:00:00	3	Temperatura mínima	19
180076	7	Sololá	719	Santiago Atitlán	14	Cerro de Oro	10	Octubre	2023-10-24T00:00:00	2024-11-08T04:00:00	5	Humedad	81
180077	7	Sololá	719	Santiago Atitlán	14	Cerro de Oro	10	Octubre	2023-10-24T00:00:00	2024-11-08T04:00:00	6	Velocidad del viento	4.8
180078	7	Sololá	719	Santiago Atitlán	14	Cerro de Oro	10	Octubre	2023-10-24T00:00:00	2024-11-08T04:00:00	7	Dirección del viento	4.83
180079	7	Sololá	719	Santiago Atitlán	14	Cerro de Oro	10	Octubre	2023-10-24T00:00:00	2024-11-08T04:00:00	1	Precipitación	0
180080	7	Sololá	719	Santiago Atitlán	14	Cerro de Oro	10	Octubre	2023-10-24T00:00:00	2024-11-08T04:00:00	8	Radiación solar	0
180081	7	Sololá	719	Santiago Atitlán	14	Cerro de Oro	10	Octubre	2023-10-24T00:00:00	2024-11-08T05:00:00	2	Temperatura media	19.3
180082	7	Sololá	719	Santiago Atitlán	14	Cerro de Oro	10	Octubre	2023-10-24T00:00:00	2024-11-08T05:00:00	4	Temperatura máxima	19.4
180083	7	Sololá	719	Santiago Atitlán	14	Cerro de Oro	10	Octubre	2023-10-24T00:00:00	2024-11-08T05:00:00	3	Temperatura mínima	19.2
180084	7	Sololá	719	Santiago Atitlán	14	Cerro de Oro	10	Octubre	2023-10-24T00:00:00	2024-11-08T05:00:00	5	Humedad	80
180085	7	Sololá	719	Santiago Atitlán	14	Cerro de Oro	10	Octubre	2023-10-24T00:00:00	2024-11-08T05:00:00	6	Velocidad del viento	8
180086	7	Sololá	719	Santiago Atitlán	14	Cerro de Oro	10	Octubre	2023-10-24T00:00:00	2024-11-08T05:00:00	7	Dirección del viento	8.05
180087	7	Sololá	719	Santiago Atitlán	14	Cerro de Oro	10	Octubre	2023-10-24T00:00:00	2024-11-08T05:00:00	1	Precipitación	0
180088	7	Sololá	719	Santiago Atitlán	14	Cerro de Oro	10	Octubre	2023-10-24T00:00:00	2024-11-08T05:00:00	8	Radiación solar	0
180089	7	Sololá	719	Santiago Atitlán	14	Cerro de Oro	10	Octubre	2023-10-24T00:00:00	2024-11-08T06:00:00	2	Temperatura media	19.1
180090	7	Sololá	719	Santiago Atitlán	14	Cerro de Oro	10	Octubre	2023-10-24T00:00:00	2024-11-08T06:00:00	4	Temperatura máxima	19.4
180091	7	Sololá	719	Santiago Atitlán	14	Cerro de Oro	10	Octubre	2023-10-24T00:00:00	2024-11-08T06:00:00	3	Temperatura mínima	19.1
180092	7	Sololá	719	Santiago Atitlán	14	Cerro de Oro	10	Octubre	2023-10-24T00:00:00	2024-11-08T06:00:00	5	Humedad	86
180093	7	Sololá	719	Santiago Atitlán	14	Cerro de Oro	10	Octubre	2023-10-24T00:00:00	2024-11-08T06:00:00	6	Velocidad del viento	1.6
180094	7	Sololá	719	Santiago Atitlán	14	Cerro de Oro	10	Octubre	2023-10-24T00:00:00	2024-11-08T06:00:00	7	Dirección del viento	1.61
180095	7	Sololá	719	Santiago Atitlán	14	Cerro de Oro	10	Octubre	2023-10-24T00:00:00	2024-11-08T06:00:00	1	Precipitación	0
180096	7	Sololá	719	Santiago Atitlán	14	Cerro de Oro	10	Octubre	2023-10-24T00:00:00	2024-11-08T06:00:00	8	Radiación solar	0
180097	7	Sololá	719	Santiago Atitlán	14	Cerro de Oro	10	Octubre	2023-10-24T00:00:00	2024-11-08T07:00:00	2	Temperatura media	19.3
180098	7	Sololá	719	Santiago Atitlán	14	Cerro de Oro	10	Octubre	2023-10-24T00:00:00	2024-11-08T07:00:00	4	Temperatura máxima	19.4
180099	7	Sololá	719	Santiago Atitlán	14	Cerro de Oro	10	Octubre	2023-10-24T00:00:00	2024-11-08T07:00:00	3	Temperatura mínima	18.9
180100	7	Sololá	719	Santiago Atitlán	14	Cerro de Oro	10	Octubre	2023-10-24T00:00:00	2024-11-08T07:00:00	5	Humedad	83
180101	7	Sololá	719	Santiago Atitlán	14	Cerro de Oro	10	Octubre	2023-10-24T00:00:00	2024-11-08T07:00:00	6	Velocidad del viento	0
180102	7	Sololá	719	Santiago Atitlán	14	Cerro de Oro	10	Octubre	2023-10-24T00:00:00	2024-11-08T07:00:00	7	Dirección del viento	0
180103	7	Sololá	719	Santiago Atitlán	14	Cerro de Oro	10	Octubre	2023-10-24T00:00:00	2024-11-08T07:00:00	1	Precipitación	0
180104	7	Sololá	719	Santiago Atitlán	14	Cerro de Oro	10	Octubre	2023-10-24T00:00:00	2024-11-08T07:00:00	8	Radiación solar	6
180105	7	Sololá	719	Santiago Atitlán	14	Cerro de Oro	10	Octubre	2023-10-24T00:00:00	2024-11-08T08:00:00	2	Temperatura media	19.9
180106	7	Sololá	719	Santiago Atitlán	14	Cerro de Oro	10	Octubre	2023-10-24T00:00:00	2024-11-08T08:00:00	4	Temperatura máxima	19.9
180107	7	Sololá	719	Santiago Atitlán	14	Cerro de Oro	10	Octubre	2023-10-24T00:00:00	2024-11-08T08:00:00	3	Temperatura mínima	19.3
180108	7	Sololá	719	Santiago Atitlán	14	Cerro de Oro	10	Octubre	2023-10-24T00:00:00	2024-11-08T08:00:00	5	Humedad	83
180109	7	Sololá	719	Santiago Atitlán	14	Cerro de Oro	10	Octubre	2023-10-24T00:00:00	2024-11-08T08:00:00	6	Velocidad del viento	0
180110	7	Sololá	719	Santiago Atitlán	14	Cerro de Oro	10	Octubre	2023-10-24T00:00:00	2024-11-08T08:00:00	7	Dirección del viento	0
180111	7	Sololá	719	Santiago Atitlán	14	Cerro de Oro	10	Octubre	2023-10-24T00:00:00	2024-11-08T08:00:00	1	Precipitación	0
180112	7	Sololá	719	Santiago Atitlán	14	Cerro de Oro	10	Octubre	2023-10-24T00:00:00	2024-11-08T08:00:00	8	Radiación solar	83
180113	7	Sololá	719	Santiago Atitlán	14	Cerro de Oro	10	Octubre	2023-10-24T00:00:00	2024-11-08T09:00:00	2	Temperatura media	22.9
180114	7	Sololá	719	Santiago Atitlán	14	Cerro de Oro	10	Octubre	2023-10-24T00:00:00	2024-11-08T09:00:00	4	Temperatura máxima	22.9
180115	7	Sololá	719	Santiago Atitlán	14	Cerro de Oro	10	Octubre	2023-10-24T00:00:00	2024-11-08T09:00:00	3	Temperatura mínima	19.9
180116	7	Sololá	719	Santiago Atitlán	14	Cerro de Oro	10	Octubre	2023-10-24T00:00:00	2024-11-08T09:00:00	5	Humedad	75
180117	7	Sololá	719	Santiago Atitlán	14	Cerro de Oro	10	Octubre	2023-10-24T00:00:00	2024-11-08T09:00:00	6	Velocidad del viento	0
180118	7	Sololá	719	Santiago Atitlán	14	Cerro de Oro	10	Octubre	2023-10-24T00:00:00	2024-11-08T09:00:00	7	Dirección del viento	0
180119	7	Sololá	719	Santiago Atitlán	14	Cerro de Oro	10	Octubre	2023-10-24T00:00:00	2024-11-08T09:00:00	1	Precipitación	0
180120	7	Sololá	719	Santiago Atitlán	14	Cerro de Oro	10	Octubre	2023-10-24T00:00:00	2024-11-08T09:00:00	8	Radiación solar	316
180121	7	Sololá	719	Santiago Atitlán	14	Cerro de Oro	10	Octubre	2023-10-24T00:00:00	2024-11-08T10:00:00	2	Temperatura media	23.3
180122	7	Sololá	719	Santiago Atitlán	14	Cerro de Oro	10	Octubre	2023-10-24T00:00:00	2024-11-08T10:00:00	4	Temperatura máxima	23.5
180123	7	Sololá	719	Santiago Atitlán	14	Cerro de Oro	10	Octubre	2023-10-24T00:00:00	2024-11-08T10:00:00	3	Temperatura mínima	22.8
180124	7	Sololá	719	Santiago Atitlán	14	Cerro de Oro	10	Octubre	2023-10-24T00:00:00	2024-11-08T10:00:00	5	Humedad	71
180125	7	Sololá	719	Santiago Atitlán	14	Cerro de Oro	10	Octubre	2023-10-24T00:00:00	2024-11-08T10:00:00	6	Velocidad del viento	1.6
180126	7	Sololá	719	Santiago Atitlán	14	Cerro de Oro	10	Octubre	2023-10-24T00:00:00	2024-11-08T10:00:00	7	Dirección del viento	1.61
180127	7	Sololá	719	Santiago Atitlán	14	Cerro de Oro	10	Octubre	2023-10-24T00:00:00	2024-11-08T10:00:00	1	Precipitación	0
180128	7	Sololá	719	Santiago Atitlán	14	Cerro de Oro	10	Octubre	2023-10-24T00:00:00	2024-11-08T10:00:00	8	Radiación solar	536
180129	7	Sololá	719	Santiago Atitlán	14	Cerro de Oro	10	Octubre	2023-10-24T00:00:00	2024-11-08T11:00:00	2	Temperatura media	25.1
180130	7	Sololá	719	Santiago Atitlán	14	Cerro de Oro	10	Octubre	2023-10-24T00:00:00	2024-11-08T11:00:00	4	Temperatura máxima	25.1
180131	7	Sololá	719	Santiago Atitlán	14	Cerro de Oro	10	Octubre	2023-10-24T00:00:00	2024-11-08T11:00:00	3	Temperatura mínima	23.3
180132	7	Sololá	719	Santiago Atitlán	14	Cerro de Oro	10	Octubre	2023-10-24T00:00:00	2024-11-08T11:00:00	5	Humedad	73
180133	7	Sololá	719	Santiago Atitlán	14	Cerro de Oro	10	Octubre	2023-10-24T00:00:00	2024-11-08T11:00:00	6	Velocidad del viento	3.2
180134	7	Sololá	719	Santiago Atitlán	14	Cerro de Oro	10	Octubre	2023-10-24T00:00:00	2024-11-08T11:00:00	7	Dirección del viento	3.22
180135	7	Sololá	719	Santiago Atitlán	14	Cerro de Oro	10	Octubre	2023-10-24T00:00:00	2024-11-08T11:00:00	1	Precipitación	0
180136	7	Sololá	719	Santiago Atitlán	14	Cerro de Oro	10	Octubre	2023-10-24T00:00:00	2024-11-08T11:00:00	8	Radiación solar	701
180137	7	Sololá	719	Santiago Atitlán	14	Cerro de Oro	10	Octubre	2023-10-24T00:00:00	2024-11-08T12:00:00	2	Temperatura media	24.1
180138	7	Sololá	719	Santiago Atitlán	14	Cerro de Oro	10	Octubre	2023-10-24T00:00:00	2024-11-08T12:00:00	4	Temperatura máxima	25.5
180139	7	Sololá	719	Santiago Atitlán	14	Cerro de Oro	10	Octubre	2023-10-24T00:00:00	2024-11-08T12:00:00	3	Temperatura mínima	23.7
180140	7	Sololá	719	Santiago Atitlán	14	Cerro de Oro	10	Octubre	2023-10-24T00:00:00	2024-11-08T12:00:00	5	Humedad	75
180141	7	Sololá	719	Santiago Atitlán	14	Cerro de Oro	10	Octubre	2023-10-24T00:00:00	2024-11-08T12:00:00	6	Velocidad del viento	8
180142	7	Sololá	719	Santiago Atitlán	14	Cerro de Oro	10	Octubre	2023-10-24T00:00:00	2024-11-08T12:00:00	7	Dirección del viento	8.05
180143	7	Sololá	719	Santiago Atitlán	14	Cerro de Oro	10	Octubre	2023-10-24T00:00:00	2024-11-08T12:00:00	1	Precipitación	0
180144	7	Sololá	719	Santiago Atitlán	14	Cerro de Oro	10	Octubre	2023-10-24T00:00:00	2024-11-08T12:00:00	8	Radiación solar	943
180145	7	Sololá	719	Santiago Atitlán	14	Cerro de Oro	10	Octubre	2023-10-24T00:00:00	2024-11-08T13:00:00	2	Temperatura media	20.8
180146	7	Sololá	719	Santiago Atitlán	14	Cerro de Oro	10	Octubre	2023-10-24T00:00:00	2024-11-08T13:00:00	4	Temperatura máxima	24.1
180147	7	Sololá	719	Santiago Atitlán	14	Cerro de Oro	10	Octubre	2023-10-24T00:00:00	2024-11-08T13:00:00	3	Temperatura mínima	20.8
180148	7	Sololá	719	Santiago Atitlán	14	Cerro de Oro	10	Octubre	2023-10-24T00:00:00	2024-11-08T13:00:00	5	Humedad	87
180149	7	Sololá	719	Santiago Atitlán	14	Cerro de Oro	10	Octubre	2023-10-24T00:00:00	2024-11-08T13:00:00	6	Velocidad del viento	8
180150	7	Sololá	719	Santiago Atitlán	14	Cerro de Oro	10	Octubre	2023-10-24T00:00:00	2024-11-08T13:00:00	7	Dirección del viento	8.05
180151	7	Sololá	719	Santiago Atitlán	14	Cerro de Oro	10	Octubre	2023-10-24T00:00:00	2024-11-08T13:00:00	1	Precipitación	0
180152	7	Sololá	719	Santiago Atitlán	14	Cerro de Oro	10	Octubre	2023-10-24T00:00:00	2024-11-08T13:00:00	8	Radiación solar	979
180153	7	Sololá	719	Santiago Atitlán	14	Cerro de Oro	10	Octubre	2023-10-24T00:00:00	2024-11-08T14:00:00	2	Temperatura media	20.1
180154	7	Sololá	719	Santiago Atitlán	14	Cerro de Oro	10	Octubre	2023-10-24T00:00:00	2024-11-08T14:00:00	4	Temperatura máxima	20.8
180155	7	Sololá	719	Santiago Atitlán	14	Cerro de Oro	10	Octubre	2023-10-24T00:00:00	2024-11-08T14:00:00	3	Temperatura mínima	20.1
180156	7	Sololá	719	Santiago Atitlán	14	Cerro de Oro	10	Octubre	2023-10-24T00:00:00	2024-11-08T14:00:00	5	Humedad	90
180157	7	Sololá	719	Santiago Atitlán	14	Cerro de Oro	10	Octubre	2023-10-24T00:00:00	2024-11-08T14:00:00	6	Velocidad del viento	4.8
180158	7	Sololá	719	Santiago Atitlán	14	Cerro de Oro	10	Octubre	2023-10-24T00:00:00	2024-11-08T14:00:00	7	Dirección del viento	4.83
180159	7	Sololá	719	Santiago Atitlán	14	Cerro de Oro	10	Octubre	2023-10-24T00:00:00	2024-11-08T14:00:00	1	Precipitación	0.4
180160	7	Sololá	719	Santiago Atitlán	14	Cerro de Oro	10	Octubre	2023-10-24T00:00:00	2024-11-08T14:00:00	8	Radiación solar	357
180161	7	Sololá	719	Santiago Atitlán	14	Cerro de Oro	10	Octubre	2023-10-24T00:00:00	2024-11-08T15:00:00	2	Temperatura media	20.2
180162	7	Sololá	719	Santiago Atitlán	14	Cerro de Oro	10	Octubre	2023-10-24T00:00:00	2024-11-08T15:00:00	4	Temperatura máxima	20.5
180163	7	Sololá	719	Santiago Atitlán	14	Cerro de Oro	10	Octubre	2023-10-24T00:00:00	2024-11-08T15:00:00	3	Temperatura mínima	20
180164	7	Sololá	719	Santiago Atitlán	14	Cerro de Oro	10	Octubre	2023-10-24T00:00:00	2024-11-08T15:00:00	5	Humedad	89
180165	7	Sololá	719	Santiago Atitlán	14	Cerro de Oro	10	Octubre	2023-10-24T00:00:00	2024-11-08T15:00:00	6	Velocidad del viento	0
180166	7	Sololá	719	Santiago Atitlán	14	Cerro de Oro	10	Octubre	2023-10-24T00:00:00	2024-11-08T15:00:00	7	Dirección del viento	0
180167	7	Sololá	719	Santiago Atitlán	14	Cerro de Oro	10	Octubre	2023-10-24T00:00:00	2024-11-08T15:00:00	1	Precipitación	0.2
180168	7	Sololá	719	Santiago Atitlán	14	Cerro de Oro	10	Octubre	2023-10-24T00:00:00	2024-11-08T15:00:00	8	Radiación solar	244
180169	7	Sololá	719	Santiago Atitlán	14	Cerro de Oro	10	Octubre	2023-10-24T00:00:00	2024-11-08T16:00:00	2	Temperatura media	21.1
180170	7	Sololá	719	Santiago Atitlán	14	Cerro de Oro	10	Octubre	2023-10-24T00:00:00	2024-11-08T16:00:00	4	Temperatura máxima	21.1
180171	7	Sololá	719	Santiago Atitlán	14	Cerro de Oro	10	Octubre	2023-10-24T00:00:00	2024-11-08T16:00:00	3	Temperatura mínima	20.2
180172	7	Sololá	719	Santiago Atitlán	14	Cerro de Oro	10	Octubre	2023-10-24T00:00:00	2024-11-08T16:00:00	5	Humedad	84
180173	7	Sololá	719	Santiago Atitlán	14	Cerro de Oro	10	Octubre	2023-10-24T00:00:00	2024-11-08T16:00:00	6	Velocidad del viento	0
180174	7	Sololá	719	Santiago Atitlán	14	Cerro de Oro	10	Octubre	2023-10-24T00:00:00	2024-11-08T16:00:00	7	Dirección del viento	0
180175	7	Sololá	719	Santiago Atitlán	14	Cerro de Oro	10	Octubre	2023-10-24T00:00:00	2024-11-08T16:00:00	1	Precipitación	0
180176	7	Sololá	719	Santiago Atitlán	14	Cerro de Oro	10	Octubre	2023-10-24T00:00:00	2024-11-08T16:00:00	8	Radiación solar	185
180177	7	Sololá	719	Santiago Atitlán	14	Cerro de Oro	10	Octubre	2023-10-24T00:00:00	2024-11-08T17:00:00	2	Temperatura media	20.7
180178	7	Sololá	719	Santiago Atitlán	14	Cerro de Oro	10	Octubre	2023-10-24T00:00:00	2024-11-08T17:00:00	4	Temperatura máxima	21.3
180179	7	Sololá	719	Santiago Atitlán	14	Cerro de Oro	10	Octubre	2023-10-24T00:00:00	2024-11-08T17:00:00	3	Temperatura mínima	20.7
180180	7	Sololá	719	Santiago Atitlán	14	Cerro de Oro	10	Octubre	2023-10-24T00:00:00	2024-11-08T17:00:00	5	Humedad	86
180181	7	Sololá	719	Santiago Atitlán	14	Cerro de Oro	10	Octubre	2023-10-24T00:00:00	2024-11-08T17:00:00	6	Velocidad del viento	0
180182	7	Sololá	719	Santiago Atitlán	14	Cerro de Oro	10	Octubre	2023-10-24T00:00:00	2024-11-08T17:00:00	7	Dirección del viento	0
180183	7	Sololá	719	Santiago Atitlán	14	Cerro de Oro	10	Octubre	2023-10-24T00:00:00	2024-11-08T17:00:00	1	Precipitación	0
180184	7	Sololá	719	Santiago Atitlán	14	Cerro de Oro	10	Octubre	2023-10-24T00:00:00	2024-11-08T17:00:00	8	Radiación solar	116
180185	7	Sololá	719	Santiago Atitlán	14	Cerro de Oro	10	Octubre	2023-10-24T00:00:00	2024-11-08T18:00:00	2	Temperatura media	20.2
180186	7	Sololá	719	Santiago Atitlán	14	Cerro de Oro	10	Octubre	2023-10-24T00:00:00	2024-11-08T18:00:00	4	Temperatura máxima	20.7
180187	7	Sololá	719	Santiago Atitlán	14	Cerro de Oro	10	Octubre	2023-10-24T00:00:00	2024-11-08T18:00:00	3	Temperatura mínima	20.1
180188	7	Sololá	719	Santiago Atitlán	14	Cerro de Oro	10	Octubre	2023-10-24T00:00:00	2024-11-08T18:00:00	5	Humedad	84
180189	7	Sololá	719	Santiago Atitlán	14	Cerro de Oro	10	Octubre	2023-10-24T00:00:00	2024-11-08T18:00:00	6	Velocidad del viento	1.6
180190	7	Sololá	719	Santiago Atitlán	14	Cerro de Oro	10	Octubre	2023-10-24T00:00:00	2024-11-08T18:00:00	7	Dirección del viento	1.61
180191	7	Sololá	719	Santiago Atitlán	14	Cerro de Oro	10	Octubre	2023-10-24T00:00:00	2024-11-08T18:00:00	1	Precipitación	0
180192	7	Sololá	719	Santiago Atitlán	14	Cerro de Oro	10	Octubre	2023-10-24T00:00:00	2024-11-08T18:00:00	8	Radiación solar	126
180193	7	Sololá	719	Santiago Atitlán	14	Cerro de Oro	10	Octubre	2023-10-24T00:00:00	2024-11-08T19:00:00	2	Temperatura media	20.1
180194	7	Sololá	719	Santiago Atitlán	14	Cerro de Oro	10	Octubre	2023-10-24T00:00:00	2024-11-08T19:00:00	4	Temperatura máxima	20.2
180195	7	Sololá	719	Santiago Atitlán	14	Cerro de Oro	10	Octubre	2023-10-24T00:00:00	2024-11-08T19:00:00	3	Temperatura mínima	20.1
180196	7	Sololá	719	Santiago Atitlán	14	Cerro de Oro	10	Octubre	2023-10-24T00:00:00	2024-11-08T19:00:00	5	Humedad	84
180197	7	Sololá	719	Santiago Atitlán	14	Cerro de Oro	10	Octubre	2023-10-24T00:00:00	2024-11-08T19:00:00	6	Velocidad del viento	1.6
180198	7	Sololá	719	Santiago Atitlán	14	Cerro de Oro	10	Octubre	2023-10-24T00:00:00	2024-11-08T19:00:00	7	Dirección del viento	1.61
180199	7	Sololá	719	Santiago Atitlán	14	Cerro de Oro	10	Octubre	2023-10-24T00:00:00	2024-11-08T19:00:00	1	Precipitación	0
180200	7	Sololá	719	Santiago Atitlán	14	Cerro de Oro	10	Octubre	2023-10-24T00:00:00	2024-11-08T19:00:00	8	Radiación solar	0
180201	7	Sololá	719	Santiago Atitlán	14	Cerro de Oro	10	Octubre	2023-10-24T00:00:00	2024-11-08T20:00:00	2	Temperatura media	19.9
180202	7	Sololá	719	Santiago Atitlán	14	Cerro de Oro	10	Octubre	2023-10-24T00:00:00	2024-11-08T20:00:00	4	Temperatura máxima	20.4
180203	7	Sololá	719	Santiago Atitlán	14	Cerro de Oro	10	Octubre	2023-10-24T00:00:00	2024-11-08T20:00:00	3	Temperatura mínima	19.9
180204	7	Sololá	719	Santiago Atitlán	14	Cerro de Oro	10	Octubre	2023-10-24T00:00:00	2024-11-08T20:00:00	5	Humedad	87
180205	7	Sololá	719	Santiago Atitlán	14	Cerro de Oro	10	Octubre	2023-10-24T00:00:00	2024-11-08T20:00:00	6	Velocidad del viento	3.2
180206	7	Sololá	719	Santiago Atitlán	14	Cerro de Oro	10	Octubre	2023-10-24T00:00:00	2024-11-08T20:00:00	7	Dirección del viento	3.22
180207	7	Sololá	719	Santiago Atitlán	14	Cerro de Oro	10	Octubre	2023-10-24T00:00:00	2024-11-08T20:00:00	1	Precipitación	0.2
180208	7	Sololá	719	Santiago Atitlán	14	Cerro de Oro	10	Octubre	2023-10-24T00:00:00	2024-11-08T20:00:00	8	Radiación solar	0
180209	7	Sololá	719	Santiago Atitlán	14	Cerro de Oro	10	Octubre	2023-10-24T00:00:00	2024-11-08T21:00:00	2	Temperatura media	20.2
180210	7	Sololá	719	Santiago Atitlán	14	Cerro de Oro	10	Octubre	2023-10-24T00:00:00	2024-11-08T21:00:00	4	Temperatura máxima	20.2
180211	7	Sololá	719	Santiago Atitlán	14	Cerro de Oro	10	Octubre	2023-10-24T00:00:00	2024-11-08T21:00:00	3	Temperatura mínima	19.7
180212	7	Sololá	719	Santiago Atitlán	14	Cerro de Oro	10	Octubre	2023-10-24T00:00:00	2024-11-08T21:00:00	5	Humedad	81
180213	7	Sololá	719	Santiago Atitlán	14	Cerro de Oro	10	Octubre	2023-10-24T00:00:00	2024-11-08T21:00:00	6	Velocidad del viento	3.2
180214	7	Sololá	719	Santiago Atitlán	14	Cerro de Oro	10	Octubre	2023-10-24T00:00:00	2024-11-08T21:00:00	7	Dirección del viento	3.22
180215	7	Sololá	719	Santiago Atitlán	14	Cerro de Oro	10	Octubre	2023-10-24T00:00:00	2024-11-08T21:00:00	1	Precipitación	0
180216	7	Sololá	719	Santiago Atitlán	14	Cerro de Oro	10	Octubre	2023-10-24T00:00:00	2024-11-08T21:00:00	8	Radiación solar	0
180217	7	Sololá	719	Santiago Atitlán	14	Cerro de Oro	10	Octubre	2023-10-24T00:00:00	2024-11-08T22:00:00	2	Temperatura media	20.2
180218	7	Sololá	719	Santiago Atitlán	14	Cerro de Oro	10	Octubre	2023-10-24T00:00:00	2024-11-08T22:00:00	4	Temperatura máxima	20.4
180219	7	Sololá	719	Santiago Atitlán	14	Cerro de Oro	10	Octubre	2023-10-24T00:00:00	2024-11-08T22:00:00	3	Temperatura mínima	20.1
180220	7	Sololá	719	Santiago Atitlán	14	Cerro de Oro	10	Octubre	2023-10-24T00:00:00	2024-11-08T22:00:00	5	Humedad	81
180221	7	Sololá	719	Santiago Atitlán	14	Cerro de Oro	10	Octubre	2023-10-24T00:00:00	2024-11-08T22:00:00	6	Velocidad del viento	4.8
180222	7	Sololá	719	Santiago Atitlán	14	Cerro de Oro	10	Octubre	2023-10-24T00:00:00	2024-11-08T22:00:00	7	Dirección del viento	4.83
180223	7	Sololá	719	Santiago Atitlán	14	Cerro de Oro	10	Octubre	2023-10-24T00:00:00	2024-11-08T22:00:00	1	Precipitación	0
180224	7	Sololá	719	Santiago Atitlán	14	Cerro de Oro	10	Octubre	2023-10-24T00:00:00	2024-11-08T22:00:00	8	Radiación solar	0
180225	7	Sololá	719	Santiago Atitlán	14	Cerro de Oro	10	Octubre	2023-10-24T00:00:00	2024-11-08T23:00:00	2	Temperatura media	19.8
180226	7	Sololá	719	Santiago Atitlán	14	Cerro de Oro	10	Octubre	2023-10-24T00:00:00	2024-11-08T23:00:00	4	Temperatura máxima	20.2
180227	7	Sololá	719	Santiago Atitlán	14	Cerro de Oro	10	Octubre	2023-10-24T00:00:00	2024-11-08T23:00:00	3	Temperatura mínima	19.6
180228	7	Sololá	719	Santiago Atitlán	14	Cerro de Oro	10	Octubre	2023-10-24T00:00:00	2024-11-08T23:00:00	5	Humedad	81
180229	7	Sololá	719	Santiago Atitlán	14	Cerro de Oro	10	Octubre	2023-10-24T00:00:00	2024-11-08T23:00:00	6	Velocidad del viento	3.2
180230	7	Sololá	719	Santiago Atitlán	14	Cerro de Oro	10	Octubre	2023-10-24T00:00:00	2024-11-08T23:00:00	7	Dirección del viento	3.22
180231	7	Sololá	719	Santiago Atitlán	14	Cerro de Oro	10	Octubre	2023-10-24T00:00:00	2024-11-08T23:00:00	1	Precipitación	0
180232	7	Sololá	719	Santiago Atitlán	14	Cerro de Oro	10	Octubre	2023-10-24T00:00:00	2024-11-08T23:00:00	8	Radiación solar	0
180233	7	Sololá	719	Santiago Atitlán	14	Cerro de Oro	10	Octubre	2023-10-25T00:00:00	2024-11-08T00:00:00	2	Temperatura media	19.6
180234	7	Sololá	719	Santiago Atitlán	14	Cerro de Oro	10	Octubre	2023-10-25T00:00:00	2024-11-08T00:00:00	4	Temperatura máxima	19.9
180235	7	Sololá	719	Santiago Atitlán	14	Cerro de Oro	10	Octubre	2023-10-25T00:00:00	2024-11-08T00:00:00	3	Temperatura mínima	19.4
180236	7	Sololá	719	Santiago Atitlán	14	Cerro de Oro	10	Octubre	2023-10-25T00:00:00	2024-11-08T00:00:00	5	Humedad	84
180237	7	Sololá	719	Santiago Atitlán	14	Cerro de Oro	10	Octubre	2023-10-25T00:00:00	2024-11-08T00:00:00	6	Velocidad del viento	1.6
180238	7	Sololá	719	Santiago Atitlán	14	Cerro de Oro	10	Octubre	2023-10-25T00:00:00	2024-11-08T00:00:00	7	Dirección del viento	1.61
180239	7	Sololá	719	Santiago Atitlán	14	Cerro de Oro	10	Octubre	2023-10-25T00:00:00	2024-11-08T00:00:00	1	Precipitación	0
180240	7	Sololá	719	Santiago Atitlán	14	Cerro de Oro	10	Octubre	2023-10-25T00:00:00	2024-11-08T00:00:00	8	Radiación solar	0
180241	7	Sololá	719	Santiago Atitlán	14	Cerro de Oro	10	Octubre	2023-10-25T00:00:00	2024-11-08T01:00:00	2	Temperatura media	19.2
180242	7	Sololá	719	Santiago Atitlán	14	Cerro de Oro	10	Octubre	2023-10-25T00:00:00	2024-11-08T01:00:00	4	Temperatura máxima	19.6
180243	7	Sololá	719	Santiago Atitlán	14	Cerro de Oro	10	Octubre	2023-10-25T00:00:00	2024-11-08T01:00:00	3	Temperatura mínima	19.2
180244	7	Sololá	719	Santiago Atitlán	14	Cerro de Oro	10	Octubre	2023-10-25T00:00:00	2024-11-08T01:00:00	5	Humedad	87
180245	7	Sololá	719	Santiago Atitlán	14	Cerro de Oro	10	Octubre	2023-10-25T00:00:00	2024-11-08T01:00:00	6	Velocidad del viento	1.6
180246	7	Sololá	719	Santiago Atitlán	14	Cerro de Oro	10	Octubre	2023-10-25T00:00:00	2024-11-08T01:00:00	7	Dirección del viento	1.61
180247	7	Sololá	719	Santiago Atitlán	14	Cerro de Oro	10	Octubre	2023-10-25T00:00:00	2024-11-08T01:00:00	1	Precipitación	0
180248	7	Sololá	719	Santiago Atitlán	14	Cerro de Oro	10	Octubre	2023-10-25T00:00:00	2024-11-08T01:00:00	8	Radiación solar	0
180249	7	Sololá	719	Santiago Atitlán	14	Cerro de Oro	10	Octubre	2023-10-25T00:00:00	2024-11-08T02:00:00	2	Temperatura media	19.2
180250	7	Sololá	719	Santiago Atitlán	14	Cerro de Oro	10	Octubre	2023-10-25T00:00:00	2024-11-08T02:00:00	4	Temperatura máxima	19.4
180251	7	Sololá	719	Santiago Atitlán	14	Cerro de Oro	10	Octubre	2023-10-25T00:00:00	2024-11-08T02:00:00	3	Temperatura mínima	19.2
180252	7	Sololá	719	Santiago Atitlán	14	Cerro de Oro	10	Octubre	2023-10-25T00:00:00	2024-11-08T02:00:00	5	Humedad	84
180253	7	Sololá	719	Santiago Atitlán	14	Cerro de Oro	10	Octubre	2023-10-25T00:00:00	2024-11-08T02:00:00	6	Velocidad del viento	1.6
180254	7	Sololá	719	Santiago Atitlán	14	Cerro de Oro	10	Octubre	2023-10-25T00:00:00	2024-11-08T02:00:00	7	Dirección del viento	1.61
180255	7	Sololá	719	Santiago Atitlán	14	Cerro de Oro	10	Octubre	2023-10-25T00:00:00	2024-11-08T02:00:00	1	Precipitación	0
180256	7	Sololá	719	Santiago Atitlán	14	Cerro de Oro	10	Octubre	2023-10-25T00:00:00	2024-11-08T02:00:00	8	Radiación solar	0
180257	7	Sololá	719	Santiago Atitlán	14	Cerro de Oro	10	Octubre	2023-10-25T00:00:00	2024-11-08T03:00:00	2	Temperatura media	19.2
180258	7	Sololá	719	Santiago Atitlán	14	Cerro de Oro	10	Octubre	2023-10-25T00:00:00	2024-11-08T03:00:00	4	Temperatura máxima	19.6
180259	7	Sololá	719	Santiago Atitlán	14	Cerro de Oro	10	Octubre	2023-10-25T00:00:00	2024-11-08T03:00:00	3	Temperatura mínima	19.1
180260	7	Sololá	719	Santiago Atitlán	14	Cerro de Oro	10	Octubre	2023-10-25T00:00:00	2024-11-08T03:00:00	5	Humedad	83
180261	7	Sololá	719	Santiago Atitlán	14	Cerro de Oro	10	Octubre	2023-10-25T00:00:00	2024-11-08T03:00:00	6	Velocidad del viento	4.8
180262	7	Sololá	719	Santiago Atitlán	14	Cerro de Oro	10	Octubre	2023-10-25T00:00:00	2024-11-08T03:00:00	7	Dirección del viento	4.83
180263	7	Sololá	719	Santiago Atitlán	14	Cerro de Oro	10	Octubre	2023-10-25T00:00:00	2024-11-08T03:00:00	1	Precipitación	0
180264	7	Sololá	719	Santiago Atitlán	14	Cerro de Oro	10	Octubre	2023-10-25T00:00:00	2024-11-08T03:00:00	8	Radiación solar	0
180265	7	Sololá	719	Santiago Atitlán	14	Cerro de Oro	10	Octubre	2023-10-25T00:00:00	2024-11-08T04:00:00	2	Temperatura media	18.9
180266	7	Sololá	719	Santiago Atitlán	14	Cerro de Oro	10	Octubre	2023-10-25T00:00:00	2024-11-08T04:00:00	4	Temperatura máxima	19.4
180267	7	Sololá	719	Santiago Atitlán	14	Cerro de Oro	10	Octubre	2023-10-25T00:00:00	2024-11-08T04:00:00	3	Temperatura mínima	18.9
180268	7	Sololá	719	Santiago Atitlán	14	Cerro de Oro	10	Octubre	2023-10-25T00:00:00	2024-11-08T04:00:00	5	Humedad	80
180269	7	Sololá	719	Santiago Atitlán	14	Cerro de Oro	10	Octubre	2023-10-25T00:00:00	2024-11-08T04:00:00	6	Velocidad del viento	3.2
180270	7	Sololá	719	Santiago Atitlán	14	Cerro de Oro	10	Octubre	2023-10-25T00:00:00	2024-11-08T04:00:00	7	Dirección del viento	3.22
180271	7	Sololá	719	Santiago Atitlán	14	Cerro de Oro	10	Octubre	2023-10-25T00:00:00	2024-11-08T04:00:00	1	Precipitación	0
180272	7	Sololá	719	Santiago Atitlán	14	Cerro de Oro	10	Octubre	2023-10-25T00:00:00	2024-11-08T04:00:00	8	Radiación solar	0
180273	7	Sololá	719	Santiago Atitlán	14	Cerro de Oro	10	Octubre	2023-10-25T00:00:00	2024-11-08T05:00:00	2	Temperatura media	19.3
180274	7	Sololá	719	Santiago Atitlán	14	Cerro de Oro	10	Octubre	2023-10-25T00:00:00	2024-11-08T05:00:00	4	Temperatura máxima	19.4
180275	7	Sololá	719	Santiago Atitlán	14	Cerro de Oro	10	Octubre	2023-10-25T00:00:00	2024-11-08T05:00:00	3	Temperatura mínima	18.9
180276	7	Sololá	719	Santiago Atitlán	14	Cerro de Oro	10	Octubre	2023-10-25T00:00:00	2024-11-08T05:00:00	5	Humedad	77
180277	7	Sololá	719	Santiago Atitlán	14	Cerro de Oro	10	Octubre	2023-10-25T00:00:00	2024-11-08T05:00:00	6	Velocidad del viento	6.4
180278	7	Sololá	719	Santiago Atitlán	14	Cerro de Oro	10	Octubre	2023-10-25T00:00:00	2024-11-08T05:00:00	7	Dirección del viento	6.44
180279	7	Sololá	719	Santiago Atitlán	14	Cerro de Oro	10	Octubre	2023-10-25T00:00:00	2024-11-08T05:00:00	1	Precipitación	0
180280	7	Sololá	719	Santiago Atitlán	14	Cerro de Oro	10	Octubre	2023-10-25T00:00:00	2024-11-08T05:00:00	8	Radiación solar	0
180281	7	Sololá	719	Santiago Atitlán	14	Cerro de Oro	10	Octubre	2023-10-25T00:00:00	2024-11-08T06:00:00	2	Temperatura media	19.4
180282	7	Sololá	719	Santiago Atitlán	14	Cerro de Oro	10	Octubre	2023-10-25T00:00:00	2024-11-08T06:00:00	4	Temperatura máxima	19.6
180283	7	Sololá	719	Santiago Atitlán	14	Cerro de Oro	10	Octubre	2023-10-25T00:00:00	2024-11-08T06:00:00	3	Temperatura mínima	19.3
180284	7	Sololá	719	Santiago Atitlán	14	Cerro de Oro	10	Octubre	2023-10-25T00:00:00	2024-11-08T06:00:00	5	Humedad	76
180285	7	Sololá	719	Santiago Atitlán	14	Cerro de Oro	10	Octubre	2023-10-25T00:00:00	2024-11-08T06:00:00	6	Velocidad del viento	6.4
180286	7	Sololá	719	Santiago Atitlán	14	Cerro de Oro	10	Octubre	2023-10-25T00:00:00	2024-11-08T06:00:00	7	Dirección del viento	6.44
180287	7	Sololá	719	Santiago Atitlán	14	Cerro de Oro	10	Octubre	2023-10-25T00:00:00	2024-11-08T06:00:00	1	Precipitación	0
180288	7	Sololá	719	Santiago Atitlán	14	Cerro de Oro	10	Octubre	2023-10-25T00:00:00	2024-11-08T06:00:00	8	Radiación solar	12
180289	7	Sololá	719	Santiago Atitlán	14	Cerro de Oro	10	Octubre	2023-10-25T00:00:00	2024-11-08T07:00:00	2	Temperatura media	19.6
180290	7	Sololá	719	Santiago Atitlán	14	Cerro de Oro	10	Octubre	2023-10-25T00:00:00	2024-11-08T07:00:00	4	Temperatura máxima	19.6
180291	7	Sololá	719	Santiago Atitlán	14	Cerro de Oro	10	Octubre	2023-10-25T00:00:00	2024-11-08T07:00:00	3	Temperatura mínima	19.1
180292	7	Sololá	719	Santiago Atitlán	14	Cerro de Oro	10	Octubre	2023-10-25T00:00:00	2024-11-08T07:00:00	5	Humedad	81
180293	7	Sololá	719	Santiago Atitlán	14	Cerro de Oro	10	Octubre	2023-10-25T00:00:00	2024-11-08T07:00:00	6	Velocidad del viento	1.6
180294	7	Sololá	719	Santiago Atitlán	14	Cerro de Oro	10	Octubre	2023-10-25T00:00:00	2024-11-08T07:00:00	7	Dirección del viento	1.61
180295	7	Sololá	719	Santiago Atitlán	14	Cerro de Oro	10	Octubre	2023-10-25T00:00:00	2024-11-08T07:00:00	1	Precipitación	0
180296	7	Sololá	719	Santiago Atitlán	14	Cerro de Oro	10	Octubre	2023-10-25T00:00:00	2024-11-08T07:00:00	8	Radiación solar	102
180297	7	Sololá	719	Santiago Atitlán	14	Cerro de Oro	10	Octubre	2023-10-25T00:00:00	2024-11-08T08:00:00	2	Temperatura media	20.8
180298	7	Sololá	719	Santiago Atitlán	14	Cerro de Oro	10	Octubre	2023-10-25T00:00:00	2024-11-08T08:00:00	4	Temperatura máxima	20.8
180299	7	Sololá	719	Santiago Atitlán	14	Cerro de Oro	10	Octubre	2023-10-25T00:00:00	2024-11-08T08:00:00	3	Temperatura mínima	19.6
180300	7	Sololá	719	Santiago Atitlán	14	Cerro de Oro	10	Octubre	2023-10-25T00:00:00	2024-11-08T08:00:00	5	Humedad	82
180301	7	Sololá	719	Santiago Atitlán	14	Cerro de Oro	10	Octubre	2023-10-25T00:00:00	2024-11-08T08:00:00	6	Velocidad del viento	1.6
180302	7	Sololá	719	Santiago Atitlán	14	Cerro de Oro	10	Octubre	2023-10-25T00:00:00	2024-11-08T08:00:00	7	Dirección del viento	1.61
180303	7	Sololá	719	Santiago Atitlán	14	Cerro de Oro	10	Octubre	2023-10-25T00:00:00	2024-11-08T08:00:00	1	Precipitación	0
180304	7	Sololá	719	Santiago Atitlán	14	Cerro de Oro	10	Octubre	2023-10-25T00:00:00	2024-11-08T08:00:00	8	Radiación solar	301
180305	7	Sololá	719	Santiago Atitlán	14	Cerro de Oro	10	Octubre	2023-10-25T00:00:00	2024-11-08T09:00:00	2	Temperatura media	22.3
180306	7	Sololá	719	Santiago Atitlán	14	Cerro de Oro	10	Octubre	2023-10-25T00:00:00	2024-11-08T09:00:00	4	Temperatura máxima	22.3
180307	7	Sololá	719	Santiago Atitlán	14	Cerro de Oro	10	Octubre	2023-10-25T00:00:00	2024-11-08T09:00:00	3	Temperatura mínima	20.8
180308	7	Sololá	719	Santiago Atitlán	14	Cerro de Oro	10	Octubre	2023-10-25T00:00:00	2024-11-08T09:00:00	5	Humedad	77
180309	7	Sololá	719	Santiago Atitlán	14	Cerro de Oro	10	Octubre	2023-10-25T00:00:00	2024-11-08T09:00:00	6	Velocidad del viento	1.6
180310	7	Sololá	719	Santiago Atitlán	14	Cerro de Oro	10	Octubre	2023-10-25T00:00:00	2024-11-08T09:00:00	7	Dirección del viento	1.61
180311	7	Sololá	719	Santiago Atitlán	14	Cerro de Oro	10	Octubre	2023-10-25T00:00:00	2024-11-08T09:00:00	1	Precipitación	0
180312	7	Sololá	719	Santiago Atitlán	14	Cerro de Oro	10	Octubre	2023-10-25T00:00:00	2024-11-08T09:00:00	8	Radiación solar	553
180313	7	Sololá	719	Santiago Atitlán	14	Cerro de Oro	10	Octubre	2023-10-25T00:00:00	2024-11-08T10:00:00	2	Temperatura media	23.7
180314	7	Sololá	719	Santiago Atitlán	14	Cerro de Oro	10	Octubre	2023-10-25T00:00:00	2024-11-08T10:00:00	4	Temperatura máxima	24.1
180315	7	Sololá	719	Santiago Atitlán	14	Cerro de Oro	10	Octubre	2023-10-25T00:00:00	2024-11-08T10:00:00	3	Temperatura mínima	22.3
180316	7	Sololá	719	Santiago Atitlán	14	Cerro de Oro	10	Octubre	2023-10-25T00:00:00	2024-11-08T10:00:00	5	Humedad	67
180317	7	Sololá	719	Santiago Atitlán	14	Cerro de Oro	10	Octubre	2023-10-25T00:00:00	2024-11-08T10:00:00	6	Velocidad del viento	1.6
180318	7	Sololá	719	Santiago Atitlán	14	Cerro de Oro	10	Octubre	2023-10-25T00:00:00	2024-11-08T10:00:00	7	Dirección del viento	1.61
180319	7	Sololá	719	Santiago Atitlán	14	Cerro de Oro	10	Octubre	2023-10-25T00:00:00	2024-11-08T10:00:00	1	Precipitación	0
180320	7	Sololá	719	Santiago Atitlán	14	Cerro de Oro	10	Octubre	2023-10-25T00:00:00	2024-11-08T10:00:00	8	Radiación solar	736
180321	7	Sololá	719	Santiago Atitlán	14	Cerro de Oro	10	Octubre	2023-10-25T00:00:00	2024-11-08T11:00:00	2	Temperatura media	24.4
180322	7	Sololá	719	Santiago Atitlán	14	Cerro de Oro	10	Octubre	2023-10-25T00:00:00	2024-11-08T11:00:00	4	Temperatura máxima	24.4
180323	7	Sololá	719	Santiago Atitlán	14	Cerro de Oro	10	Octubre	2023-10-25T00:00:00	2024-11-08T11:00:00	3	Temperatura mínima	23.4
180324	7	Sololá	719	Santiago Atitlán	14	Cerro de Oro	10	Octubre	2023-10-25T00:00:00	2024-11-08T11:00:00	5	Humedad	65
180325	7	Sololá	719	Santiago Atitlán	14	Cerro de Oro	10	Octubre	2023-10-25T00:00:00	2024-11-08T11:00:00	6	Velocidad del viento	3.2
180326	7	Sololá	719	Santiago Atitlán	14	Cerro de Oro	10	Octubre	2023-10-25T00:00:00	2024-11-08T11:00:00	7	Dirección del viento	3.22
180327	7	Sololá	719	Santiago Atitlán	14	Cerro de Oro	10	Octubre	2023-10-25T00:00:00	2024-11-08T11:00:00	1	Precipitación	0
180328	7	Sololá	719	Santiago Atitlán	14	Cerro de Oro	10	Octubre	2023-10-25T00:00:00	2024-11-08T11:00:00	8	Radiación solar	864
180329	7	Sololá	719	Santiago Atitlán	14	Cerro de Oro	10	Octubre	2023-10-25T00:00:00	2024-11-08T12:00:00	2	Temperatura media	25.6
180330	7	Sololá	719	Santiago Atitlán	14	Cerro de Oro	10	Octubre	2023-10-25T00:00:00	2024-11-08T12:00:00	4	Temperatura máxima	26
180331	7	Sololá	719	Santiago Atitlán	14	Cerro de Oro	10	Octubre	2023-10-25T00:00:00	2024-11-08T12:00:00	3	Temperatura mínima	24.3
180332	7	Sololá	719	Santiago Atitlán	14	Cerro de Oro	10	Octubre	2023-10-25T00:00:00	2024-11-08T12:00:00	5	Humedad	60
180333	7	Sololá	719	Santiago Atitlán	14	Cerro de Oro	10	Octubre	2023-10-25T00:00:00	2024-11-08T12:00:00	6	Velocidad del viento	3.2
180334	7	Sololá	719	Santiago Atitlán	14	Cerro de Oro	10	Octubre	2023-10-25T00:00:00	2024-11-08T12:00:00	7	Dirección del viento	3.22
180335	7	Sololá	719	Santiago Atitlán	14	Cerro de Oro	10	Octubre	2023-10-25T00:00:00	2024-11-08T12:00:00	1	Precipitación	0
180336	7	Sololá	719	Santiago Atitlán	14	Cerro de Oro	10	Octubre	2023-10-25T00:00:00	2024-11-08T12:00:00	8	Radiación solar	885
180337	7	Sololá	719	Santiago Atitlán	14	Cerro de Oro	10	Octubre	2023-10-25T00:00:00	2024-11-08T13:00:00	2	Temperatura media	26
180338	7	Sololá	719	Santiago Atitlán	14	Cerro de Oro	10	Octubre	2023-10-25T00:00:00	2024-11-08T13:00:00	4	Temperatura máxima	26.1
180339	7	Sololá	719	Santiago Atitlán	14	Cerro de Oro	10	Octubre	2023-10-25T00:00:00	2024-11-08T13:00:00	3	Temperatura mínima	25.1
180340	7	Sololá	719	Santiago Atitlán	14	Cerro de Oro	10	Octubre	2023-10-25T00:00:00	2024-11-08T13:00:00	5	Humedad	58
180341	7	Sololá	719	Santiago Atitlán	14	Cerro de Oro	10	Octubre	2023-10-25T00:00:00	2024-11-08T13:00:00	6	Velocidad del viento	6.4
180342	7	Sololá	719	Santiago Atitlán	14	Cerro de Oro	10	Octubre	2023-10-25T00:00:00	2024-11-08T13:00:00	7	Dirección del viento	6.44
180343	7	Sololá	719	Santiago Atitlán	14	Cerro de Oro	10	Octubre	2023-10-25T00:00:00	2024-11-08T13:00:00	1	Precipitación	0
180344	7	Sololá	719	Santiago Atitlán	14	Cerro de Oro	10	Octubre	2023-10-25T00:00:00	2024-11-08T13:00:00	8	Radiación solar	811
180345	7	Sololá	719	Santiago Atitlán	14	Cerro de Oro	10	Octubre	2023-10-25T00:00:00	2024-11-08T14:00:00	2	Temperatura media	25.5
180346	7	Sololá	719	Santiago Atitlán	14	Cerro de Oro	10	Octubre	2023-10-25T00:00:00	2024-11-08T14:00:00	4	Temperatura máxima	26.2
180347	7	Sololá	719	Santiago Atitlán	14	Cerro de Oro	10	Octubre	2023-10-25T00:00:00	2024-11-08T14:00:00	3	Temperatura mínima	24.7
180348	7	Sololá	719	Santiago Atitlán	14	Cerro de Oro	10	Octubre	2023-10-25T00:00:00	2024-11-08T14:00:00	5	Humedad	59
180349	7	Sololá	719	Santiago Atitlán	14	Cerro de Oro	10	Octubre	2023-10-25T00:00:00	2024-11-08T14:00:00	6	Velocidad del viento	4.8
180350	7	Sololá	719	Santiago Atitlán	14	Cerro de Oro	10	Octubre	2023-10-25T00:00:00	2024-11-08T14:00:00	7	Dirección del viento	4.83
180351	7	Sololá	719	Santiago Atitlán	14	Cerro de Oro	10	Octubre	2023-10-25T00:00:00	2024-11-08T14:00:00	1	Precipitación	0
180352	7	Sololá	719	Santiago Atitlán	14	Cerro de Oro	10	Octubre	2023-10-25T00:00:00	2024-11-08T14:00:00	8	Radiación solar	313
180353	7	Sololá	719	Santiago Atitlán	14	Cerro de Oro	10	Octubre	2023-10-25T00:00:00	2024-11-08T15:00:00	2	Temperatura media	22
180354	7	Sololá	719	Santiago Atitlán	14	Cerro de Oro	10	Octubre	2023-10-25T00:00:00	2024-11-08T15:00:00	4	Temperatura máxima	26.1
180355	7	Sololá	719	Santiago Atitlán	14	Cerro de Oro	10	Octubre	2023-10-25T00:00:00	2024-11-08T15:00:00	3	Temperatura mínima	22
180356	7	Sololá	719	Santiago Atitlán	14	Cerro de Oro	10	Octubre	2023-10-25T00:00:00	2024-11-08T15:00:00	5	Humedad	83
180357	7	Sololá	719	Santiago Atitlán	14	Cerro de Oro	10	Octubre	2023-10-25T00:00:00	2024-11-08T15:00:00	6	Velocidad del viento	6.4
180358	7	Sololá	719	Santiago Atitlán	14	Cerro de Oro	10	Octubre	2023-10-25T00:00:00	2024-11-08T15:00:00	7	Dirección del viento	6.44
180359	7	Sololá	719	Santiago Atitlán	14	Cerro de Oro	10	Octubre	2023-10-25T00:00:00	2024-11-08T15:00:00	1	Precipitación	0.8
180360	7	Sololá	719	Santiago Atitlán	14	Cerro de Oro	10	Octubre	2023-10-25T00:00:00	2024-11-08T15:00:00	8	Radiación solar	221
180361	7	Sololá	719	Santiago Atitlán	14	Cerro de Oro	10	Octubre	2023-10-25T00:00:00	2024-11-08T16:00:00	2	Temperatura media	22.2
180362	7	Sololá	719	Santiago Atitlán	14	Cerro de Oro	10	Octubre	2023-10-25T00:00:00	2024-11-08T16:00:00	4	Temperatura máxima	22.5
180363	7	Sololá	719	Santiago Atitlán	14	Cerro de Oro	10	Octubre	2023-10-25T00:00:00	2024-11-08T16:00:00	3	Temperatura mínima	21.8
180364	7	Sololá	719	Santiago Atitlán	14	Cerro de Oro	10	Octubre	2023-10-25T00:00:00	2024-11-08T16:00:00	5	Humedad	81
180365	7	Sololá	719	Santiago Atitlán	14	Cerro de Oro	10	Octubre	2023-10-25T00:00:00	2024-11-08T16:00:00	6	Velocidad del viento	3.2
180366	7	Sololá	719	Santiago Atitlán	14	Cerro de Oro	10	Octubre	2023-10-25T00:00:00	2024-11-08T16:00:00	7	Dirección del viento	3.22
180367	7	Sololá	719	Santiago Atitlán	14	Cerro de Oro	10	Octubre	2023-10-25T00:00:00	2024-11-08T16:00:00	1	Precipitación	0
180368	7	Sololá	719	Santiago Atitlán	14	Cerro de Oro	10	Octubre	2023-10-25T00:00:00	2024-11-08T16:00:00	8	Radiación solar	130
180369	7	Sololá	719	Santiago Atitlán	14	Cerro de Oro	10	Octubre	2023-10-25T00:00:00	2024-11-08T17:00:00	2	Temperatura media	21.9
180370	7	Sololá	719	Santiago Atitlán	14	Cerro de Oro	10	Octubre	2023-10-25T00:00:00	2024-11-08T17:00:00	4	Temperatura máxima	22.2
180371	7	Sololá	719	Santiago Atitlán	14	Cerro de Oro	10	Octubre	2023-10-25T00:00:00	2024-11-08T17:00:00	3	Temperatura mínima	21.9
180372	7	Sololá	719	Santiago Atitlán	14	Cerro de Oro	10	Octubre	2023-10-25T00:00:00	2024-11-08T17:00:00	5	Humedad	83
180373	7	Sololá	719	Santiago Atitlán	14	Cerro de Oro	10	Octubre	2023-10-25T00:00:00	2024-11-08T17:00:00	6	Velocidad del viento	1.6
180374	7	Sololá	719	Santiago Atitlán	14	Cerro de Oro	10	Octubre	2023-10-25T00:00:00	2024-11-08T17:00:00	7	Dirección del viento	1.61
180375	7	Sololá	719	Santiago Atitlán	14	Cerro de Oro	10	Octubre	2023-10-25T00:00:00	2024-11-08T17:00:00	1	Precipitación	0
180376	7	Sololá	719	Santiago Atitlán	14	Cerro de Oro	10	Octubre	2023-10-25T00:00:00	2024-11-08T17:00:00	8	Radiación solar	49
180377	7	Sololá	719	Santiago Atitlán	14	Cerro de Oro	10	Octubre	2023-10-25T00:00:00	2024-11-08T18:00:00	2	Temperatura media	20.6
180378	7	Sololá	719	Santiago Atitlán	14	Cerro de Oro	10	Octubre	2023-10-25T00:00:00	2024-11-08T18:00:00	4	Temperatura máxima	21.9
180379	7	Sololá	719	Santiago Atitlán	14	Cerro de Oro	10	Octubre	2023-10-25T00:00:00	2024-11-08T18:00:00	3	Temperatura mínima	20.6
180380	7	Sololá	719	Santiago Atitlán	14	Cerro de Oro	10	Octubre	2023-10-25T00:00:00	2024-11-08T18:00:00	5	Humedad	82
180381	7	Sololá	719	Santiago Atitlán	14	Cerro de Oro	10	Octubre	2023-10-25T00:00:00	2024-11-08T18:00:00	6	Velocidad del viento	1.6
180382	7	Sololá	719	Santiago Atitlán	14	Cerro de Oro	10	Octubre	2023-10-25T00:00:00	2024-11-08T18:00:00	7	Dirección del viento	1.61
180383	7	Sololá	719	Santiago Atitlán	14	Cerro de Oro	10	Octubre	2023-10-25T00:00:00	2024-11-08T18:00:00	1	Precipitación	0
180384	7	Sololá	719	Santiago Atitlán	14	Cerro de Oro	10	Octubre	2023-10-25T00:00:00	2024-11-08T18:00:00	8	Radiación solar	7
180385	7	Sololá	719	Santiago Atitlán	14	Cerro de Oro	10	Octubre	2023-10-25T00:00:00	2024-11-08T19:00:00	2	Temperatura media	21.1
180386	7	Sololá	719	Santiago Atitlán	14	Cerro de Oro	10	Octubre	2023-10-25T00:00:00	2024-11-08T19:00:00	4	Temperatura máxima	21.2
180387	7	Sololá	719	Santiago Atitlán	14	Cerro de Oro	10	Octubre	2023-10-25T00:00:00	2024-11-08T19:00:00	3	Temperatura mínima	20.6
180388	7	Sololá	719	Santiago Atitlán	14	Cerro de Oro	10	Octubre	2023-10-25T00:00:00	2024-11-08T19:00:00	5	Humedad	76
180389	7	Sololá	719	Santiago Atitlán	14	Cerro de Oro	10	Octubre	2023-10-25T00:00:00	2024-11-08T19:00:00	6	Velocidad del viento	4.8
180390	7	Sololá	719	Santiago Atitlán	14	Cerro de Oro	10	Octubre	2023-10-25T00:00:00	2024-11-08T19:00:00	7	Dirección del viento	4.83
180391	7	Sololá	719	Santiago Atitlán	14	Cerro de Oro	10	Octubre	2023-10-25T00:00:00	2024-11-08T19:00:00	1	Precipitación	0
180392	7	Sololá	719	Santiago Atitlán	14	Cerro de Oro	10	Octubre	2023-10-25T00:00:00	2024-11-08T19:00:00	8	Radiación solar	0
180393	7	Sololá	719	Santiago Atitlán	14	Cerro de Oro	10	Octubre	2023-10-25T00:00:00	2024-11-08T20:00:00	2	Temperatura media	21.2
180394	7	Sololá	719	Santiago Atitlán	14	Cerro de Oro	10	Octubre	2023-10-25T00:00:00	2024-11-08T20:00:00	4	Temperatura máxima	21.4
180395	7	Sololá	719	Santiago Atitlán	14	Cerro de Oro	10	Octubre	2023-10-25T00:00:00	2024-11-08T20:00:00	3	Temperatura mínima	21
180396	7	Sololá	719	Santiago Atitlán	14	Cerro de Oro	10	Octubre	2023-10-25T00:00:00	2024-11-08T20:00:00	5	Humedad	76
180397	7	Sololá	719	Santiago Atitlán	14	Cerro de Oro	10	Octubre	2023-10-25T00:00:00	2024-11-08T20:00:00	6	Velocidad del viento	3.2
180398	7	Sololá	719	Santiago Atitlán	14	Cerro de Oro	10	Octubre	2023-10-25T00:00:00	2024-11-08T20:00:00	7	Dirección del viento	3.22
180399	7	Sololá	719	Santiago Atitlán	14	Cerro de Oro	10	Octubre	2023-10-25T00:00:00	2024-11-08T20:00:00	1	Precipitación	0
180400	7	Sololá	719	Santiago Atitlán	14	Cerro de Oro	10	Octubre	2023-10-25T00:00:00	2024-11-08T20:00:00	8	Radiación solar	0
180401	7	Sololá	719	Santiago Atitlán	14	Cerro de Oro	10	Octubre	2023-10-25T00:00:00	2024-11-08T21:00:00	2	Temperatura media	20.9
180402	7	Sololá	719	Santiago Atitlán	14	Cerro de Oro	10	Octubre	2023-10-25T00:00:00	2024-11-08T21:00:00	4	Temperatura máxima	21.3
180403	7	Sololá	719	Santiago Atitlán	14	Cerro de Oro	10	Octubre	2023-10-25T00:00:00	2024-11-08T21:00:00	3	Temperatura mínima	20.9
180404	7	Sololá	719	Santiago Atitlán	14	Cerro de Oro	10	Octubre	2023-10-25T00:00:00	2024-11-08T21:00:00	5	Humedad	76
180405	7	Sololá	719	Santiago Atitlán	14	Cerro de Oro	10	Octubre	2023-10-25T00:00:00	2024-11-08T21:00:00	6	Velocidad del viento	8
180406	7	Sololá	719	Santiago Atitlán	14	Cerro de Oro	10	Octubre	2023-10-25T00:00:00	2024-11-08T21:00:00	7	Dirección del viento	8.05
180407	7	Sololá	719	Santiago Atitlán	14	Cerro de Oro	10	Octubre	2023-10-25T00:00:00	2024-11-08T21:00:00	1	Precipitación	0
180408	7	Sololá	719	Santiago Atitlán	14	Cerro de Oro	10	Octubre	2023-10-25T00:00:00	2024-11-08T21:00:00	8	Radiación solar	0
180409	7	Sololá	719	Santiago Atitlán	14	Cerro de Oro	10	Octubre	2023-10-25T00:00:00	2024-11-08T22:00:00	2	Temperatura media	20.7
180410	7	Sololá	719	Santiago Atitlán	14	Cerro de Oro	10	Octubre	2023-10-25T00:00:00	2024-11-08T22:00:00	4	Temperatura máxima	21
180411	7	Sololá	719	Santiago Atitlán	14	Cerro de Oro	10	Octubre	2023-10-25T00:00:00	2024-11-08T22:00:00	3	Temperatura mínima	20.6
180412	7	Sololá	719	Santiago Atitlán	14	Cerro de Oro	10	Octubre	2023-10-25T00:00:00	2024-11-08T22:00:00	5	Humedad	75
180413	7	Sololá	719	Santiago Atitlán	14	Cerro de Oro	10	Octubre	2023-10-25T00:00:00	2024-11-08T22:00:00	6	Velocidad del viento	9.7
180414	7	Sololá	719	Santiago Atitlán	14	Cerro de Oro	10	Octubre	2023-10-25T00:00:00	2024-11-08T22:00:00	7	Dirección del viento	9.66
180415	7	Sololá	719	Santiago Atitlán	14	Cerro de Oro	10	Octubre	2023-10-25T00:00:00	2024-11-08T22:00:00	1	Precipitación	0
180416	7	Sololá	719	Santiago Atitlán	14	Cerro de Oro	10	Octubre	2023-10-25T00:00:00	2024-11-08T22:00:00	8	Radiación solar	0
180417	7	Sololá	719	Santiago Atitlán	14	Cerro de Oro	10	Octubre	2023-10-25T00:00:00	2024-11-08T23:00:00	2	Temperatura media	20.2
180418	7	Sololá	719	Santiago Atitlán	14	Cerro de Oro	10	Octubre	2023-10-25T00:00:00	2024-11-08T23:00:00	4	Temperatura máxima	20.7
180419	7	Sololá	719	Santiago Atitlán	14	Cerro de Oro	10	Octubre	2023-10-25T00:00:00	2024-11-08T23:00:00	3	Temperatura mínima	20.1
180420	7	Sololá	719	Santiago Atitlán	14	Cerro de Oro	10	Octubre	2023-10-25T00:00:00	2024-11-08T23:00:00	5	Humedad	74
180421	7	Sololá	719	Santiago Atitlán	14	Cerro de Oro	10	Octubre	2023-10-25T00:00:00	2024-11-08T23:00:00	6	Velocidad del viento	8
180422	7	Sololá	719	Santiago Atitlán	14	Cerro de Oro	10	Octubre	2023-10-25T00:00:00	2024-11-08T23:00:00	7	Dirección del viento	8.05
180423	7	Sololá	719	Santiago Atitlán	14	Cerro de Oro	10	Octubre	2023-10-25T00:00:00	2024-11-08T23:00:00	1	Precipitación	0
180424	7	Sololá	719	Santiago Atitlán	14	Cerro de Oro	10	Octubre	2023-10-25T00:00:00	2024-11-08T23:00:00	8	Radiación solar	0
180425	7	Sololá	719	Santiago Atitlán	14	Cerro de Oro	10	Octubre	2023-10-26T00:00:00	2024-11-08T00:00:00	2	Temperatura media	19.9
180426	7	Sololá	719	Santiago Atitlán	14	Cerro de Oro	10	Octubre	2023-10-26T00:00:00	2024-11-08T00:00:00	4	Temperatura máxima	20.7
180427	7	Sololá	719	Santiago Atitlán	14	Cerro de Oro	10	Octubre	2023-10-26T00:00:00	2024-11-08T00:00:00	3	Temperatura mínima	19.9
180428	7	Sololá	719	Santiago Atitlán	14	Cerro de Oro	10	Octubre	2023-10-26T00:00:00	2024-11-08T00:00:00	5	Humedad	78
180429	7	Sololá	719	Santiago Atitlán	14	Cerro de Oro	10	Octubre	2023-10-26T00:00:00	2024-11-08T00:00:00	6	Velocidad del viento	3.2
180430	7	Sololá	719	Santiago Atitlán	14	Cerro de Oro	10	Octubre	2023-10-26T00:00:00	2024-11-08T00:00:00	7	Dirección del viento	3.22
180431	7	Sololá	719	Santiago Atitlán	14	Cerro de Oro	10	Octubre	2023-10-26T00:00:00	2024-11-08T00:00:00	1	Precipitación	0
180432	7	Sololá	719	Santiago Atitlán	14	Cerro de Oro	10	Octubre	2023-10-26T00:00:00	2024-11-08T00:00:00	8	Radiación solar	0
180433	7	Sololá	719	Santiago Atitlán	14	Cerro de Oro	10	Octubre	2023-10-26T00:00:00	2024-11-08T01:00:00	2	Temperatura media	19.5
180434	7	Sololá	719	Santiago Atitlán	14	Cerro de Oro	10	Octubre	2023-10-26T00:00:00	2024-11-08T01:00:00	4	Temperatura máxima	19.9
180435	7	Sololá	719	Santiago Atitlán	14	Cerro de Oro	10	Octubre	2023-10-26T00:00:00	2024-11-08T01:00:00	3	Temperatura mínima	19.5
180436	7	Sololá	719	Santiago Atitlán	14	Cerro de Oro	10	Octubre	2023-10-26T00:00:00	2024-11-08T01:00:00	5	Humedad	77
180437	7	Sololá	719	Santiago Atitlán	14	Cerro de Oro	10	Octubre	2023-10-26T00:00:00	2024-11-08T01:00:00	6	Velocidad del viento	4.8
180438	7	Sololá	719	Santiago Atitlán	14	Cerro de Oro	10	Octubre	2023-10-26T00:00:00	2024-11-08T01:00:00	7	Dirección del viento	4.83
180439	7	Sololá	719	Santiago Atitlán	14	Cerro de Oro	10	Octubre	2023-10-26T00:00:00	2024-11-08T01:00:00	1	Precipitación	0
180440	7	Sololá	719	Santiago Atitlán	14	Cerro de Oro	10	Octubre	2023-10-26T00:00:00	2024-11-08T01:00:00	8	Radiación solar	0
180441	7	Sololá	719	Santiago Atitlán	14	Cerro de Oro	10	Octubre	2023-10-26T00:00:00	2024-11-08T02:00:00	2	Temperatura media	20
180442	7	Sololá	719	Santiago Atitlán	14	Cerro de Oro	10	Octubre	2023-10-26T00:00:00	2024-11-08T02:00:00	4	Temperatura máxima	20
180443	7	Sololá	719	Santiago Atitlán	14	Cerro de Oro	10	Octubre	2023-10-26T00:00:00	2024-11-08T02:00:00	3	Temperatura mínima	19.4
180444	7	Sololá	719	Santiago Atitlán	14	Cerro de Oro	10	Octubre	2023-10-26T00:00:00	2024-11-08T02:00:00	5	Humedad	75
180445	7	Sololá	719	Santiago Atitlán	14	Cerro de Oro	10	Octubre	2023-10-26T00:00:00	2024-11-08T02:00:00	6	Velocidad del viento	6.4
180446	7	Sololá	719	Santiago Atitlán	14	Cerro de Oro	10	Octubre	2023-10-26T00:00:00	2024-11-08T02:00:00	7	Dirección del viento	6.44
180447	7	Sololá	719	Santiago Atitlán	14	Cerro de Oro	10	Octubre	2023-10-26T00:00:00	2024-11-08T02:00:00	1	Precipitación	0
180448	7	Sololá	719	Santiago Atitlán	14	Cerro de Oro	10	Octubre	2023-10-26T00:00:00	2024-11-08T02:00:00	8	Radiación solar	0
180449	7	Sololá	719	Santiago Atitlán	14	Cerro de Oro	10	Octubre	2023-10-26T00:00:00	2024-11-08T03:00:00	2	Temperatura media	19.8
180450	7	Sololá	719	Santiago Atitlán	14	Cerro de Oro	10	Octubre	2023-10-26T00:00:00	2024-11-08T03:00:00	4	Temperatura máxima	20.2
180451	7	Sololá	719	Santiago Atitlán	14	Cerro de Oro	10	Octubre	2023-10-26T00:00:00	2024-11-08T03:00:00	3	Temperatura mínima	19.8
180452	7	Sololá	719	Santiago Atitlán	14	Cerro de Oro	10	Octubre	2023-10-26T00:00:00	2024-11-08T03:00:00	5	Humedad	74
180453	7	Sololá	719	Santiago Atitlán	14	Cerro de Oro	10	Octubre	2023-10-26T00:00:00	2024-11-08T03:00:00	6	Velocidad del viento	4.8
180454	7	Sololá	719	Santiago Atitlán	14	Cerro de Oro	10	Octubre	2023-10-26T00:00:00	2024-11-08T03:00:00	7	Dirección del viento	4.83
180455	7	Sololá	719	Santiago Atitlán	14	Cerro de Oro	10	Octubre	2023-10-26T00:00:00	2024-11-08T03:00:00	1	Precipitación	0
180456	7	Sololá	719	Santiago Atitlán	14	Cerro de Oro	10	Octubre	2023-10-26T00:00:00	2024-11-08T03:00:00	8	Radiación solar	0
180457	7	Sololá	719	Santiago Atitlán	14	Cerro de Oro	10	Octubre	2023-10-26T00:00:00	2024-11-08T04:00:00	2	Temperatura media	19.5
180458	7	Sololá	719	Santiago Atitlán	14	Cerro de Oro	10	Octubre	2023-10-26T00:00:00	2024-11-08T04:00:00	4	Temperatura máxima	19.8
180459	7	Sololá	719	Santiago Atitlán	14	Cerro de Oro	10	Octubre	2023-10-26T00:00:00	2024-11-08T04:00:00	3	Temperatura mínima	19.5
180460	7	Sololá	719	Santiago Atitlán	14	Cerro de Oro	10	Octubre	2023-10-26T00:00:00	2024-11-08T04:00:00	5	Humedad	75
180461	7	Sololá	719	Santiago Atitlán	14	Cerro de Oro	10	Octubre	2023-10-26T00:00:00	2024-11-08T04:00:00	6	Velocidad del viento	6.4
180462	7	Sololá	719	Santiago Atitlán	14	Cerro de Oro	10	Octubre	2023-10-26T00:00:00	2024-11-08T04:00:00	7	Dirección del viento	6.44
180463	7	Sololá	719	Santiago Atitlán	14	Cerro de Oro	10	Octubre	2023-10-26T00:00:00	2024-11-08T04:00:00	1	Precipitación	0
180464	7	Sololá	719	Santiago Atitlán	14	Cerro de Oro	10	Octubre	2023-10-26T00:00:00	2024-11-08T04:00:00	8	Radiación solar	0
180465	7	Sololá	719	Santiago Atitlán	14	Cerro de Oro	10	Octubre	2023-10-26T00:00:00	2024-11-08T05:00:00	2	Temperatura media	19.1
180466	7	Sololá	719	Santiago Atitlán	14	Cerro de Oro	10	Octubre	2023-10-26T00:00:00	2024-11-08T05:00:00	4	Temperatura máxima	19.5
180467	7	Sololá	719	Santiago Atitlán	14	Cerro de Oro	10	Octubre	2023-10-26T00:00:00	2024-11-08T05:00:00	3	Temperatura mínima	19.1
180468	7	Sololá	719	Santiago Atitlán	14	Cerro de Oro	10	Octubre	2023-10-26T00:00:00	2024-11-08T05:00:00	5	Humedad	76
180469	7	Sololá	719	Santiago Atitlán	14	Cerro de Oro	10	Octubre	2023-10-26T00:00:00	2024-11-08T05:00:00	6	Velocidad del viento	9.7
180470	7	Sololá	719	Santiago Atitlán	14	Cerro de Oro	10	Octubre	2023-10-26T00:00:00	2024-11-08T05:00:00	7	Dirección del viento	9.66
180471	7	Sololá	719	Santiago Atitlán	14	Cerro de Oro	10	Octubre	2023-10-26T00:00:00	2024-11-08T05:00:00	1	Precipitación	0
180472	7	Sololá	719	Santiago Atitlán	14	Cerro de Oro	10	Octubre	2023-10-26T00:00:00	2024-11-08T05:00:00	8	Radiación solar	0
180473	7	Sololá	719	Santiago Atitlán	14	Cerro de Oro	10	Octubre	2023-10-26T00:00:00	2024-11-08T06:00:00	2	Temperatura media	19.3
180474	7	Sololá	719	Santiago Atitlán	14	Cerro de Oro	10	Octubre	2023-10-26T00:00:00	2024-11-08T06:00:00	4	Temperatura máxima	19.4
180475	7	Sololá	719	Santiago Atitlán	14	Cerro de Oro	10	Octubre	2023-10-26T00:00:00	2024-11-08T06:00:00	3	Temperatura mínima	19
180476	7	Sololá	719	Santiago Atitlán	14	Cerro de Oro	10	Octubre	2023-10-26T00:00:00	2024-11-08T06:00:00	5	Humedad	74
180477	7	Sololá	719	Santiago Atitlán	14	Cerro de Oro	10	Octubre	2023-10-26T00:00:00	2024-11-08T06:00:00	6	Velocidad del viento	8
180478	7	Sololá	719	Santiago Atitlán	14	Cerro de Oro	10	Octubre	2023-10-26T00:00:00	2024-11-08T06:00:00	7	Dirección del viento	8.05
180479	7	Sololá	719	Santiago Atitlán	14	Cerro de Oro	10	Octubre	2023-10-26T00:00:00	2024-11-08T06:00:00	1	Precipitación	0
180480	7	Sololá	719	Santiago Atitlán	14	Cerro de Oro	10	Octubre	2023-10-26T00:00:00	2024-11-08T06:00:00	8	Radiación solar	7
180481	7	Sololá	719	Santiago Atitlán	14	Cerro de Oro	10	Octubre	2023-10-26T00:00:00	2024-11-08T07:00:00	2	Temperatura media	19.6
180482	7	Sololá	719	Santiago Atitlán	14	Cerro de Oro	10	Octubre	2023-10-26T00:00:00	2024-11-08T07:00:00	4	Temperatura máxima	19.7
180483	7	Sololá	719	Santiago Atitlán	14	Cerro de Oro	10	Octubre	2023-10-26T00:00:00	2024-11-08T07:00:00	3	Temperatura mínima	19.3
180484	7	Sololá	719	Santiago Atitlán	14	Cerro de Oro	10	Octubre	2023-10-26T00:00:00	2024-11-08T07:00:00	5	Humedad	74
180485	7	Sololá	719	Santiago Atitlán	14	Cerro de Oro	10	Octubre	2023-10-26T00:00:00	2024-11-08T07:00:00	6	Velocidad del viento	4.8
180486	7	Sololá	719	Santiago Atitlán	14	Cerro de Oro	10	Octubre	2023-10-26T00:00:00	2024-11-08T07:00:00	7	Dirección del viento	4.83
180487	7	Sololá	719	Santiago Atitlán	14	Cerro de Oro	10	Octubre	2023-10-26T00:00:00	2024-11-08T07:00:00	1	Precipitación	0
180488	7	Sololá	719	Santiago Atitlán	14	Cerro de Oro	10	Octubre	2023-10-26T00:00:00	2024-11-08T07:00:00	8	Radiación solar	90
180489	7	Sololá	719	Santiago Atitlán	14	Cerro de Oro	10	Octubre	2023-10-26T00:00:00	2024-11-08T08:00:00	2	Temperatura media	20.4
180490	7	Sololá	719	Santiago Atitlán	14	Cerro de Oro	10	Octubre	2023-10-26T00:00:00	2024-11-08T08:00:00	4	Temperatura máxima	20.4
180491	7	Sololá	719	Santiago Atitlán	14	Cerro de Oro	10	Octubre	2023-10-26T00:00:00	2024-11-08T08:00:00	3	Temperatura mínima	19.6
180492	7	Sololá	719	Santiago Atitlán	14	Cerro de Oro	10	Octubre	2023-10-26T00:00:00	2024-11-08T08:00:00	5	Humedad	74
180493	7	Sololá	719	Santiago Atitlán	14	Cerro de Oro	10	Octubre	2023-10-26T00:00:00	2024-11-08T08:00:00	6	Velocidad del viento	1.6
180494	7	Sololá	719	Santiago Atitlán	14	Cerro de Oro	10	Octubre	2023-10-26T00:00:00	2024-11-08T08:00:00	7	Dirección del viento	1.61
180495	7	Sololá	719	Santiago Atitlán	14	Cerro de Oro	10	Octubre	2023-10-26T00:00:00	2024-11-08T08:00:00	1	Precipitación	0
180496	7	Sololá	719	Santiago Atitlán	14	Cerro de Oro	10	Octubre	2023-10-26T00:00:00	2024-11-08T08:00:00	8	Radiación solar	183
180497	7	Sololá	719	Santiago Atitlán	14	Cerro de Oro	10	Octubre	2023-10-26T00:00:00	2024-11-08T09:00:00	2	Temperatura media	23.9
180498	7	Sololá	719	Santiago Atitlán	14	Cerro de Oro	10	Octubre	2023-10-26T00:00:00	2024-11-08T09:00:00	4	Temperatura máxima	23.9
180499	7	Sololá	719	Santiago Atitlán	14	Cerro de Oro	10	Octubre	2023-10-26T00:00:00	2024-11-08T09:00:00	3	Temperatura mínima	20.4
180500	7	Sololá	719	Santiago Atitlán	14	Cerro de Oro	10	Octubre	2023-10-26T00:00:00	2024-11-08T09:00:00	5	Humedad	63
180501	7	Sololá	719	Santiago Atitlán	14	Cerro de Oro	10	Octubre	2023-10-26T00:00:00	2024-11-08T09:00:00	6	Velocidad del viento	3.2
180502	7	Sololá	719	Santiago Atitlán	14	Cerro de Oro	10	Octubre	2023-10-26T00:00:00	2024-11-08T09:00:00	7	Dirección del viento	3.22
180503	7	Sololá	719	Santiago Atitlán	14	Cerro de Oro	10	Octubre	2023-10-26T00:00:00	2024-11-08T09:00:00	1	Precipitación	0
180504	7	Sololá	719	Santiago Atitlán	14	Cerro de Oro	10	Octubre	2023-10-26T00:00:00	2024-11-08T09:00:00	8	Radiación solar	403
180505	7	Sololá	719	Santiago Atitlán	14	Cerro de Oro	10	Octubre	2023-10-26T00:00:00	2024-11-08T10:00:00	2	Temperatura media	23.8
180506	7	Sololá	719	Santiago Atitlán	14	Cerro de Oro	10	Octubre	2023-10-26T00:00:00	2024-11-08T10:00:00	4	Temperatura máxima	24.2
180507	7	Sololá	719	Santiago Atitlán	14	Cerro de Oro	10	Octubre	2023-10-26T00:00:00	2024-11-08T10:00:00	3	Temperatura mínima	23.3
180508	7	Sololá	719	Santiago Atitlán	14	Cerro de Oro	10	Octubre	2023-10-26T00:00:00	2024-11-08T10:00:00	5	Humedad	63
180509	7	Sololá	719	Santiago Atitlán	14	Cerro de Oro	10	Octubre	2023-10-26T00:00:00	2024-11-08T10:00:00	6	Velocidad del viento	6.4
180510	7	Sololá	719	Santiago Atitlán	14	Cerro de Oro	10	Octubre	2023-10-26T00:00:00	2024-11-08T10:00:00	7	Dirección del viento	6.44
180511	7	Sololá	719	Santiago Atitlán	14	Cerro de Oro	10	Octubre	2023-10-26T00:00:00	2024-11-08T10:00:00	1	Precipitación	0
180512	7	Sololá	719	Santiago Atitlán	14	Cerro de Oro	10	Octubre	2023-10-26T00:00:00	2024-11-08T10:00:00	8	Radiación solar	477
180513	7	Sololá	719	Santiago Atitlán	14	Cerro de Oro	10	Octubre	2023-10-26T00:00:00	2024-11-08T11:00:00	2	Temperatura media	24.7
180514	7	Sololá	719	Santiago Atitlán	14	Cerro de Oro	10	Octubre	2023-10-26T00:00:00	2024-11-08T11:00:00	4	Temperatura máxima	24.9
180515	7	Sololá	719	Santiago Atitlán	14	Cerro de Oro	10	Octubre	2023-10-26T00:00:00	2024-11-08T11:00:00	3	Temperatura mínima	23.7
180516	7	Sololá	719	Santiago Atitlán	14	Cerro de Oro	10	Octubre	2023-10-26T00:00:00	2024-11-08T11:00:00	5	Humedad	66
180517	7	Sololá	719	Santiago Atitlán	14	Cerro de Oro	10	Octubre	2023-10-26T00:00:00	2024-11-08T11:00:00	6	Velocidad del viento	8
180518	7	Sololá	719	Santiago Atitlán	14	Cerro de Oro	10	Octubre	2023-10-26T00:00:00	2024-11-08T11:00:00	7	Dirección del viento	8.05
180519	7	Sololá	719	Santiago Atitlán	14	Cerro de Oro	10	Octubre	2023-10-26T00:00:00	2024-11-08T11:00:00	1	Precipitación	0
180520	7	Sololá	719	Santiago Atitlán	14	Cerro de Oro	10	Octubre	2023-10-26T00:00:00	2024-11-08T11:00:00	8	Radiación solar	642
180521	7	Sololá	719	Santiago Atitlán	14	Cerro de Oro	10	Octubre	2023-10-26T00:00:00	2024-11-08T12:00:00	2	Temperatura media	25.5
180522	7	Sololá	719	Santiago Atitlán	14	Cerro de Oro	10	Octubre	2023-10-26T00:00:00	2024-11-08T12:00:00	4	Temperatura máxima	26.4
180523	7	Sololá	719	Santiago Atitlán	14	Cerro de Oro	10	Octubre	2023-10-26T00:00:00	2024-11-08T12:00:00	3	Temperatura mínima	24.7
180524	7	Sololá	719	Santiago Atitlán	14	Cerro de Oro	10	Octubre	2023-10-26T00:00:00	2024-11-08T12:00:00	5	Humedad	67
180525	7	Sololá	719	Santiago Atitlán	14	Cerro de Oro	10	Octubre	2023-10-26T00:00:00	2024-11-08T12:00:00	6	Velocidad del viento	6.4
180526	7	Sololá	719	Santiago Atitlán	14	Cerro de Oro	10	Octubre	2023-10-26T00:00:00	2024-11-08T12:00:00	7	Dirección del viento	6.44
180527	7	Sololá	719	Santiago Atitlán	14	Cerro de Oro	10	Octubre	2023-10-26T00:00:00	2024-11-08T12:00:00	1	Precipitación	0
180528	7	Sololá	719	Santiago Atitlán	14	Cerro de Oro	10	Octubre	2023-10-26T00:00:00	2024-11-08T12:00:00	8	Radiación solar	757
180529	7	Sololá	719	Santiago Atitlán	14	Cerro de Oro	10	Octubre	2023-10-26T00:00:00	2024-11-08T13:00:00	2	Temperatura media	24.1
180530	7	Sololá	719	Santiago Atitlán	14	Cerro de Oro	10	Octubre	2023-10-26T00:00:00	2024-11-08T13:00:00	4	Temperatura máxima	26.1
180531	7	Sololá	719	Santiago Atitlán	14	Cerro de Oro	10	Octubre	2023-10-26T00:00:00	2024-11-08T13:00:00	3	Temperatura mínima	24.1
180532	7	Sololá	719	Santiago Atitlán	14	Cerro de Oro	10	Octubre	2023-10-26T00:00:00	2024-11-08T13:00:00	5	Humedad	70
180533	7	Sololá	719	Santiago Atitlán	14	Cerro de Oro	10	Octubre	2023-10-26T00:00:00	2024-11-08T13:00:00	6	Velocidad del viento	4.8
180534	7	Sololá	719	Santiago Atitlán	14	Cerro de Oro	10	Octubre	2023-10-26T00:00:00	2024-11-08T13:00:00	7	Dirección del viento	4.83
180535	7	Sololá	719	Santiago Atitlán	14	Cerro de Oro	10	Octubre	2023-10-26T00:00:00	2024-11-08T13:00:00	1	Precipitación	0
180536	7	Sololá	719	Santiago Atitlán	14	Cerro de Oro	10	Octubre	2023-10-26T00:00:00	2024-11-08T13:00:00	8	Radiación solar	812
180537	7	Sololá	719	Santiago Atitlán	14	Cerro de Oro	10	Octubre	2023-10-26T00:00:00	2024-11-08T14:00:00	2	Temperatura media	25
180538	7	Sololá	719	Santiago Atitlán	14	Cerro de Oro	10	Octubre	2023-10-26T00:00:00	2024-11-08T14:00:00	4	Temperatura máxima	25.7
180539	7	Sololá	719	Santiago Atitlán	14	Cerro de Oro	10	Octubre	2023-10-26T00:00:00	2024-11-08T14:00:00	3	Temperatura mínima	24.1
180540	7	Sololá	719	Santiago Atitlán	14	Cerro de Oro	10	Octubre	2023-10-26T00:00:00	2024-11-08T14:00:00	5	Humedad	73
180541	7	Sololá	719	Santiago Atitlán	14	Cerro de Oro	10	Octubre	2023-10-26T00:00:00	2024-11-08T14:00:00	6	Velocidad del viento	4.8
180542	7	Sololá	719	Santiago Atitlán	14	Cerro de Oro	10	Octubre	2023-10-26T00:00:00	2024-11-08T14:00:00	7	Dirección del viento	4.83
180543	7	Sololá	719	Santiago Atitlán	14	Cerro de Oro	10	Octubre	2023-10-26T00:00:00	2024-11-08T14:00:00	1	Precipitación	0
180544	7	Sololá	719	Santiago Atitlán	14	Cerro de Oro	10	Octubre	2023-10-26T00:00:00	2024-11-08T14:00:00	8	Radiación solar	760
180545	7	Sololá	719	Santiago Atitlán	14	Cerro de Oro	10	Octubre	2023-10-26T00:00:00	2024-11-08T15:00:00	2	Temperatura media	24.3
180546	7	Sololá	719	Santiago Atitlán	14	Cerro de Oro	10	Octubre	2023-10-26T00:00:00	2024-11-08T15:00:00	4	Temperatura máxima	25.7
180547	7	Sololá	719	Santiago Atitlán	14	Cerro de Oro	10	Octubre	2023-10-26T00:00:00	2024-11-08T15:00:00	3	Temperatura mínima	24.1
180548	7	Sololá	719	Santiago Atitlán	14	Cerro de Oro	10	Octubre	2023-10-26T00:00:00	2024-11-08T15:00:00	5	Humedad	74
180549	7	Sololá	719	Santiago Atitlán	14	Cerro de Oro	10	Octubre	2023-10-26T00:00:00	2024-11-08T15:00:00	6	Velocidad del viento	4.8
180550	7	Sololá	719	Santiago Atitlán	14	Cerro de Oro	10	Octubre	2023-10-26T00:00:00	2024-11-08T15:00:00	7	Dirección del viento	4.83
180551	7	Sololá	719	Santiago Atitlán	14	Cerro de Oro	10	Octubre	2023-10-26T00:00:00	2024-11-08T15:00:00	1	Precipitación	0
180552	7	Sololá	719	Santiago Atitlán	14	Cerro de Oro	10	Octubre	2023-10-26T00:00:00	2024-11-08T15:00:00	8	Radiación solar	589
180553	7	Sololá	719	Santiago Atitlán	14	Cerro de Oro	10	Octubre	2023-10-26T00:00:00	2024-11-08T16:00:00	2	Temperatura media	24.3
180554	7	Sololá	719	Santiago Atitlán	14	Cerro de Oro	10	Octubre	2023-10-26T00:00:00	2024-11-08T16:00:00	4	Temperatura máxima	25
180555	7	Sololá	719	Santiago Atitlán	14	Cerro de Oro	10	Octubre	2023-10-26T00:00:00	2024-11-08T16:00:00	3	Temperatura mínima	24.2
180556	7	Sololá	719	Santiago Atitlán	14	Cerro de Oro	10	Octubre	2023-10-26T00:00:00	2024-11-08T16:00:00	5	Humedad	74
180557	7	Sololá	719	Santiago Atitlán	14	Cerro de Oro	10	Octubre	2023-10-26T00:00:00	2024-11-08T16:00:00	6	Velocidad del viento	4.8
180558	7	Sololá	719	Santiago Atitlán	14	Cerro de Oro	10	Octubre	2023-10-26T00:00:00	2024-11-08T16:00:00	7	Dirección del viento	4.83
180559	7	Sololá	719	Santiago Atitlán	14	Cerro de Oro	10	Octubre	2023-10-26T00:00:00	2024-11-08T16:00:00	1	Precipitación	0
180560	7	Sololá	719	Santiago Atitlán	14	Cerro de Oro	10	Octubre	2023-10-26T00:00:00	2024-11-08T16:00:00	8	Radiación solar	309
180561	7	Sololá	719	Santiago Atitlán	14	Cerro de Oro	10	Octubre	2023-10-26T00:00:00	2024-11-08T17:00:00	2	Temperatura media	22.1
180562	7	Sololá	719	Santiago Atitlán	14	Cerro de Oro	10	Octubre	2023-10-26T00:00:00	2024-11-08T17:00:00	4	Temperatura máxima	24.3
180563	7	Sololá	719	Santiago Atitlán	14	Cerro de Oro	10	Octubre	2023-10-26T00:00:00	2024-11-08T17:00:00	3	Temperatura mínima	22.1
180564	7	Sololá	719	Santiago Atitlán	14	Cerro de Oro	10	Octubre	2023-10-26T00:00:00	2024-11-08T17:00:00	5	Humedad	81
180565	7	Sololá	719	Santiago Atitlán	14	Cerro de Oro	10	Octubre	2023-10-26T00:00:00	2024-11-08T17:00:00	6	Velocidad del viento	3.2
180566	7	Sololá	719	Santiago Atitlán	14	Cerro de Oro	10	Octubre	2023-10-26T00:00:00	2024-11-08T17:00:00	7	Dirección del viento	3.22
180567	7	Sololá	719	Santiago Atitlán	14	Cerro de Oro	10	Octubre	2023-10-26T00:00:00	2024-11-08T17:00:00	1	Precipitación	0
180568	7	Sololá	719	Santiago Atitlán	14	Cerro de Oro	10	Octubre	2023-10-26T00:00:00	2024-11-08T17:00:00	8	Radiación solar	89
180569	7	Sololá	719	Santiago Atitlán	14	Cerro de Oro	10	Octubre	2023-10-26T00:00:00	2024-11-08T18:00:00	2	Temperatura media	21
180570	7	Sololá	719	Santiago Atitlán	14	Cerro de Oro	10	Octubre	2023-10-26T00:00:00	2024-11-08T18:00:00	4	Temperatura máxima	22.1
180571	7	Sololá	719	Santiago Atitlán	14	Cerro de Oro	10	Octubre	2023-10-26T00:00:00	2024-11-08T18:00:00	3	Temperatura mínima	21
180572	7	Sololá	719	Santiago Atitlán	14	Cerro de Oro	10	Octubre	2023-10-26T00:00:00	2024-11-08T18:00:00	5	Humedad	84
180573	7	Sololá	719	Santiago Atitlán	14	Cerro de Oro	10	Octubre	2023-10-26T00:00:00	2024-11-08T18:00:00	6	Velocidad del viento	1.6
180574	7	Sololá	719	Santiago Atitlán	14	Cerro de Oro	10	Octubre	2023-10-26T00:00:00	2024-11-08T18:00:00	7	Dirección del viento	1.61
180575	7	Sololá	719	Santiago Atitlán	14	Cerro de Oro	10	Octubre	2023-10-26T00:00:00	2024-11-08T18:00:00	1	Precipitación	0
180576	7	Sololá	719	Santiago Atitlán	14	Cerro de Oro	10	Octubre	2023-10-26T00:00:00	2024-11-08T18:00:00	8	Radiación solar	18
180577	7	Sololá	719	Santiago Atitlán	14	Cerro de Oro	10	Octubre	2023-10-26T00:00:00	2024-11-08T19:00:00	2	Temperatura media	20.8
180578	7	Sololá	719	Santiago Atitlán	14	Cerro de Oro	10	Octubre	2023-10-26T00:00:00	2024-11-08T19:00:00	4	Temperatura máxima	21.1
180579	7	Sololá	719	Santiago Atitlán	14	Cerro de Oro	10	Octubre	2023-10-26T00:00:00	2024-11-08T19:00:00	3	Temperatura mínima	20.8
180580	7	Sololá	719	Santiago Atitlán	14	Cerro de Oro	10	Octubre	2023-10-26T00:00:00	2024-11-08T19:00:00	5	Humedad	83
180581	7	Sololá	719	Santiago Atitlán	14	Cerro de Oro	10	Octubre	2023-10-26T00:00:00	2024-11-08T19:00:00	6	Velocidad del viento	0
180582	7	Sololá	719	Santiago Atitlán	14	Cerro de Oro	10	Octubre	2023-10-26T00:00:00	2024-11-08T19:00:00	7	Dirección del viento	0
180583	7	Sololá	719	Santiago Atitlán	14	Cerro de Oro	10	Octubre	2023-10-26T00:00:00	2024-11-08T19:00:00	1	Precipitación	0
180584	7	Sololá	719	Santiago Atitlán	14	Cerro de Oro	10	Octubre	2023-10-26T00:00:00	2024-11-08T19:00:00	8	Radiación solar	0
180585	7	Sololá	719	Santiago Atitlán	14	Cerro de Oro	10	Octubre	2023-10-26T00:00:00	2024-11-08T20:00:00	2	Temperatura media	20.6
180586	7	Sololá	719	Santiago Atitlán	14	Cerro de Oro	10	Octubre	2023-10-26T00:00:00	2024-11-08T20:00:00	4	Temperatura máxima	20.8
180587	7	Sololá	719	Santiago Atitlán	14	Cerro de Oro	10	Octubre	2023-10-26T00:00:00	2024-11-08T20:00:00	3	Temperatura mínima	20.6
180588	7	Sololá	719	Santiago Atitlán	14	Cerro de Oro	10	Octubre	2023-10-26T00:00:00	2024-11-08T20:00:00	5	Humedad	75
180589	7	Sololá	719	Santiago Atitlán	14	Cerro de Oro	10	Octubre	2023-10-26T00:00:00	2024-11-08T20:00:00	6	Velocidad del viento	3.2
180590	7	Sololá	719	Santiago Atitlán	14	Cerro de Oro	10	Octubre	2023-10-26T00:00:00	2024-11-08T20:00:00	7	Dirección del viento	3.22
180591	7	Sololá	719	Santiago Atitlán	14	Cerro de Oro	10	Octubre	2023-10-26T00:00:00	2024-11-08T20:00:00	1	Precipitación	0
180592	7	Sololá	719	Santiago Atitlán	14	Cerro de Oro	10	Octubre	2023-10-26T00:00:00	2024-11-08T20:00:00	8	Radiación solar	0
180593	7	Sololá	719	Santiago Atitlán	14	Cerro de Oro	10	Octubre	2023-10-26T00:00:00	2024-11-08T21:00:00	2	Temperatura media	20.6
180594	7	Sololá	719	Santiago Atitlán	14	Cerro de Oro	10	Octubre	2023-10-26T00:00:00	2024-11-08T21:00:00	4	Temperatura máxima	20.9
180595	7	Sololá	719	Santiago Atitlán	14	Cerro de Oro	10	Octubre	2023-10-26T00:00:00	2024-11-08T21:00:00	3	Temperatura mínima	20.4
180596	7	Sololá	719	Santiago Atitlán	14	Cerro de Oro	10	Octubre	2023-10-26T00:00:00	2024-11-08T21:00:00	5	Humedad	76
180597	7	Sololá	719	Santiago Atitlán	14	Cerro de Oro	10	Octubre	2023-10-26T00:00:00	2024-11-08T21:00:00	6	Velocidad del viento	8
180598	7	Sololá	719	Santiago Atitlán	14	Cerro de Oro	10	Octubre	2023-10-26T00:00:00	2024-11-08T21:00:00	7	Dirección del viento	8.05
180599	7	Sololá	719	Santiago Atitlán	14	Cerro de Oro	10	Octubre	2023-10-26T00:00:00	2024-11-08T21:00:00	1	Precipitación	0
180600	7	Sololá	719	Santiago Atitlán	14	Cerro de Oro	10	Octubre	2023-10-26T00:00:00	2024-11-08T21:00:00	8	Radiación solar	0
180601	7	Sololá	719	Santiago Atitlán	14	Cerro de Oro	10	Octubre	2023-10-26T00:00:00	2024-11-08T22:00:00	2	Temperatura media	20.4
180602	7	Sololá	719	Santiago Atitlán	14	Cerro de Oro	10	Octubre	2023-10-26T00:00:00	2024-11-08T22:00:00	4	Temperatura máxima	20.8
180603	7	Sololá	719	Santiago Atitlán	14	Cerro de Oro	10	Octubre	2023-10-26T00:00:00	2024-11-08T22:00:00	3	Temperatura mínima	20.3
180604	7	Sololá	719	Santiago Atitlán	14	Cerro de Oro	10	Octubre	2023-10-26T00:00:00	2024-11-08T22:00:00	5	Humedad	76
180605	7	Sololá	719	Santiago Atitlán	14	Cerro de Oro	10	Octubre	2023-10-26T00:00:00	2024-11-08T22:00:00	6	Velocidad del viento	11.3
180606	7	Sololá	719	Santiago Atitlán	14	Cerro de Oro	10	Octubre	2023-10-26T00:00:00	2024-11-08T22:00:00	7	Dirección del viento	11.27
180607	7	Sololá	719	Santiago Atitlán	14	Cerro de Oro	10	Octubre	2023-10-26T00:00:00	2024-11-08T22:00:00	1	Precipitación	0
180608	7	Sololá	719	Santiago Atitlán	14	Cerro de Oro	10	Octubre	2023-10-26T00:00:00	2024-11-08T22:00:00	8	Radiación solar	0
180609	7	Sololá	719	Santiago Atitlán	14	Cerro de Oro	10	Octubre	2023-10-26T00:00:00	2024-11-08T23:00:00	2	Temperatura media	20.7
180610	7	Sololá	719	Santiago Atitlán	14	Cerro de Oro	10	Octubre	2023-10-26T00:00:00	2024-11-08T23:00:00	4	Temperatura máxima	20.9
180611	7	Sololá	719	Santiago Atitlán	14	Cerro de Oro	10	Octubre	2023-10-26T00:00:00	2024-11-08T23:00:00	3	Temperatura mínima	20.4
180612	7	Sololá	719	Santiago Atitlán	14	Cerro de Oro	10	Octubre	2023-10-26T00:00:00	2024-11-08T23:00:00	5	Humedad	74
180613	7	Sololá	719	Santiago Atitlán	14	Cerro de Oro	10	Octubre	2023-10-26T00:00:00	2024-11-08T23:00:00	6	Velocidad del viento	6.4
180614	7	Sololá	719	Santiago Atitlán	14	Cerro de Oro	10	Octubre	2023-10-26T00:00:00	2024-11-08T23:00:00	7	Dirección del viento	6.44
180615	7	Sololá	719	Santiago Atitlán	14	Cerro de Oro	10	Octubre	2023-10-26T00:00:00	2024-11-08T23:00:00	1	Precipitación	0
180616	7	Sololá	719	Santiago Atitlán	14	Cerro de Oro	10	Octubre	2023-10-26T00:00:00	2024-11-08T23:00:00	8	Radiación solar	0
180617	7	Sololá	719	Santiago Atitlán	14	Cerro de Oro	10	Octubre	2023-10-27T00:00:00	2024-11-08T00:00:00	2	Temperatura media	20.6
180618	7	Sololá	719	Santiago Atitlán	14	Cerro de Oro	10	Octubre	2023-10-27T00:00:00	2024-11-08T00:00:00	4	Temperatura máxima	20.8
180619	7	Sololá	719	Santiago Atitlán	14	Cerro de Oro	10	Octubre	2023-10-27T00:00:00	2024-11-08T00:00:00	3	Temperatura mínima	20.6
180620	7	Sololá	719	Santiago Atitlán	14	Cerro de Oro	10	Octubre	2023-10-27T00:00:00	2024-11-08T00:00:00	5	Humedad	75
180621	7	Sololá	719	Santiago Atitlán	14	Cerro de Oro	10	Octubre	2023-10-27T00:00:00	2024-11-08T00:00:00	6	Velocidad del viento	6.4
180622	7	Sololá	719	Santiago Atitlán	14	Cerro de Oro	10	Octubre	2023-10-27T00:00:00	2024-11-08T00:00:00	7	Dirección del viento	6.44
180623	7	Sololá	719	Santiago Atitlán	14	Cerro de Oro	10	Octubre	2023-10-27T00:00:00	2024-11-08T00:00:00	1	Precipitación	0
180624	7	Sololá	719	Santiago Atitlán	14	Cerro de Oro	10	Octubre	2023-10-27T00:00:00	2024-11-08T00:00:00	8	Radiación solar	0
180625	7	Sololá	719	Santiago Atitlán	14	Cerro de Oro	10	Octubre	2023-10-27T00:00:00	2024-11-08T01:00:00	2	Temperatura media	20.7
180626	7	Sololá	719	Santiago Atitlán	14	Cerro de Oro	10	Octubre	2023-10-27T00:00:00	2024-11-08T01:00:00	4	Temperatura máxima	20.7
180627	7	Sololá	719	Santiago Atitlán	14	Cerro de Oro	10	Octubre	2023-10-27T00:00:00	2024-11-08T01:00:00	3	Temperatura mínima	20.5
180628	7	Sololá	719	Santiago Atitlán	14	Cerro de Oro	10	Octubre	2023-10-27T00:00:00	2024-11-08T01:00:00	5	Humedad	74
180629	7	Sololá	719	Santiago Atitlán	14	Cerro de Oro	10	Octubre	2023-10-27T00:00:00	2024-11-08T01:00:00	6	Velocidad del viento	12.9
180630	7	Sololá	719	Santiago Atitlán	14	Cerro de Oro	10	Octubre	2023-10-27T00:00:00	2024-11-08T01:00:00	7	Dirección del viento	12.87
180631	7	Sololá	719	Santiago Atitlán	14	Cerro de Oro	10	Octubre	2023-10-27T00:00:00	2024-11-08T01:00:00	1	Precipitación	0
180632	7	Sololá	719	Santiago Atitlán	14	Cerro de Oro	10	Octubre	2023-10-27T00:00:00	2024-11-08T01:00:00	8	Radiación solar	0
180633	7	Sololá	719	Santiago Atitlán	14	Cerro de Oro	10	Octubre	2023-10-27T00:00:00	2024-11-08T02:00:00	2	Temperatura media	20.1
180634	7	Sololá	719	Santiago Atitlán	14	Cerro de Oro	10	Octubre	2023-10-27T00:00:00	2024-11-08T02:00:00	4	Temperatura máxima	20.7
180635	7	Sololá	719	Santiago Atitlán	14	Cerro de Oro	10	Octubre	2023-10-27T00:00:00	2024-11-08T02:00:00	3	Temperatura mínima	20.1
180636	7	Sololá	719	Santiago Atitlán	14	Cerro de Oro	10	Octubre	2023-10-27T00:00:00	2024-11-08T02:00:00	5	Humedad	76
180637	7	Sololá	719	Santiago Atitlán	14	Cerro de Oro	10	Octubre	2023-10-27T00:00:00	2024-11-08T02:00:00	6	Velocidad del viento	12.9
180638	7	Sololá	719	Santiago Atitlán	14	Cerro de Oro	10	Octubre	2023-10-27T00:00:00	2024-11-08T02:00:00	7	Dirección del viento	12.87
180639	7	Sololá	719	Santiago Atitlán	14	Cerro de Oro	10	Octubre	2023-10-27T00:00:00	2024-11-08T02:00:00	1	Precipitación	0
180640	7	Sololá	719	Santiago Atitlán	14	Cerro de Oro	10	Octubre	2023-10-27T00:00:00	2024-11-08T02:00:00	8	Radiación solar	0
180641	7	Sololá	719	Santiago Atitlán	14	Cerro de Oro	10	Octubre	2023-10-27T00:00:00	2024-11-08T03:00:00	2	Temperatura media	19.6
180642	7	Sololá	719	Santiago Atitlán	14	Cerro de Oro	10	Octubre	2023-10-27T00:00:00	2024-11-08T03:00:00	4	Temperatura máxima	20.1
180643	7	Sololá	719	Santiago Atitlán	14	Cerro de Oro	10	Octubre	2023-10-27T00:00:00	2024-11-08T03:00:00	3	Temperatura mínima	19.6
180644	7	Sololá	719	Santiago Atitlán	14	Cerro de Oro	10	Octubre	2023-10-27T00:00:00	2024-11-08T03:00:00	5	Humedad	77
180645	7	Sololá	719	Santiago Atitlán	14	Cerro de Oro	10	Octubre	2023-10-27T00:00:00	2024-11-08T03:00:00	6	Velocidad del viento	9.7
180646	7	Sololá	719	Santiago Atitlán	14	Cerro de Oro	10	Octubre	2023-10-27T00:00:00	2024-11-08T03:00:00	7	Dirección del viento	9.66
180647	7	Sololá	719	Santiago Atitlán	14	Cerro de Oro	10	Octubre	2023-10-27T00:00:00	2024-11-08T03:00:00	1	Precipitación	0
180648	7	Sololá	719	Santiago Atitlán	14	Cerro de Oro	10	Octubre	2023-10-27T00:00:00	2024-11-08T03:00:00	8	Radiación solar	0
180649	7	Sololá	719	Santiago Atitlán	14	Cerro de Oro	10	Octubre	2023-10-27T00:00:00	2024-11-08T04:00:00	2	Temperatura media	20.1
180650	7	Sololá	719	Santiago Atitlán	14	Cerro de Oro	10	Octubre	2023-10-27T00:00:00	2024-11-08T04:00:00	4	Temperatura máxima	20.1
180651	7	Sololá	719	Santiago Atitlán	14	Cerro de Oro	10	Octubre	2023-10-27T00:00:00	2024-11-08T04:00:00	3	Temperatura mínima	19.4
180652	7	Sololá	719	Santiago Atitlán	14	Cerro de Oro	10	Octubre	2023-10-27T00:00:00	2024-11-08T04:00:00	5	Humedad	73
180653	7	Sololá	719	Santiago Atitlán	14	Cerro de Oro	10	Octubre	2023-10-27T00:00:00	2024-11-08T04:00:00	6	Velocidad del viento	9.7
180654	7	Sololá	719	Santiago Atitlán	14	Cerro de Oro	10	Octubre	2023-10-27T00:00:00	2024-11-08T04:00:00	7	Dirección del viento	9.66
180655	7	Sololá	719	Santiago Atitlán	14	Cerro de Oro	10	Octubre	2023-10-27T00:00:00	2024-11-08T04:00:00	1	Precipitación	0
180656	7	Sololá	719	Santiago Atitlán	14	Cerro de Oro	10	Octubre	2023-10-27T00:00:00	2024-11-08T04:00:00	8	Radiación solar	0
180657	7	Sololá	719	Santiago Atitlán	14	Cerro de Oro	10	Octubre	2023-10-27T00:00:00	2024-11-08T05:00:00	2	Temperatura media	19.6
180658	7	Sololá	719	Santiago Atitlán	14	Cerro de Oro	10	Octubre	2023-10-27T00:00:00	2024-11-08T05:00:00	4	Temperatura máxima	20.6
180659	7	Sololá	719	Santiago Atitlán	14	Cerro de Oro	10	Octubre	2023-10-27T00:00:00	2024-11-08T05:00:00	3	Temperatura mínima	19.6
180660	7	Sololá	719	Santiago Atitlán	14	Cerro de Oro	10	Octubre	2023-10-27T00:00:00	2024-11-08T05:00:00	5	Humedad	75
180661	7	Sololá	719	Santiago Atitlán	14	Cerro de Oro	10	Octubre	2023-10-27T00:00:00	2024-11-08T05:00:00	6	Velocidad del viento	8
180662	7	Sololá	719	Santiago Atitlán	14	Cerro de Oro	10	Octubre	2023-10-27T00:00:00	2024-11-08T05:00:00	7	Dirección del viento	8.05
180663	7	Sololá	719	Santiago Atitlán	14	Cerro de Oro	10	Octubre	2023-10-27T00:00:00	2024-11-08T05:00:00	1	Precipitación	0
180664	7	Sololá	719	Santiago Atitlán	14	Cerro de Oro	10	Octubre	2023-10-27T00:00:00	2024-11-08T05:00:00	8	Radiación solar	0
180665	7	Sololá	719	Santiago Atitlán	14	Cerro de Oro	10	Octubre	2023-10-27T00:00:00	2024-11-08T06:00:00	2	Temperatura media	19.6
180666	7	Sololá	719	Santiago Atitlán	14	Cerro de Oro	10	Octubre	2023-10-27T00:00:00	2024-11-08T06:00:00	4	Temperatura máxima	19.8
180667	7	Sololá	719	Santiago Atitlán	14	Cerro de Oro	10	Octubre	2023-10-27T00:00:00	2024-11-08T06:00:00	3	Temperatura mínima	19.5
180668	7	Sololá	719	Santiago Atitlán	14	Cerro de Oro	10	Octubre	2023-10-27T00:00:00	2024-11-08T06:00:00	5	Humedad	75
180669	7	Sololá	719	Santiago Atitlán	14	Cerro de Oro	10	Octubre	2023-10-27T00:00:00	2024-11-08T06:00:00	6	Velocidad del viento	9.7
180670	7	Sololá	719	Santiago Atitlán	14	Cerro de Oro	10	Octubre	2023-10-27T00:00:00	2024-11-08T06:00:00	7	Dirección del viento	9.66
180671	7	Sololá	719	Santiago Atitlán	14	Cerro de Oro	10	Octubre	2023-10-27T00:00:00	2024-11-08T06:00:00	1	Precipitación	0
180672	7	Sololá	719	Santiago Atitlán	14	Cerro de Oro	10	Octubre	2023-10-27T00:00:00	2024-11-08T06:00:00	8	Radiación solar	5
180673	7	Sololá	719	Santiago Atitlán	14	Cerro de Oro	10	Octubre	2023-10-27T00:00:00	2024-11-08T07:00:00	2	Temperatura media	20.3
180674	7	Sololá	719	Santiago Atitlán	14	Cerro de Oro	10	Octubre	2023-10-27T00:00:00	2024-11-08T07:00:00	4	Temperatura máxima	20.3
180675	7	Sololá	719	Santiago Atitlán	14	Cerro de Oro	10	Octubre	2023-10-27T00:00:00	2024-11-08T07:00:00	3	Temperatura mínima	19.6
180676	7	Sololá	719	Santiago Atitlán	14	Cerro de Oro	10	Octubre	2023-10-27T00:00:00	2024-11-08T07:00:00	5	Humedad	74
180677	7	Sololá	719	Santiago Atitlán	14	Cerro de Oro	10	Octubre	2023-10-27T00:00:00	2024-11-08T07:00:00	6	Velocidad del viento	8
180678	7	Sololá	719	Santiago Atitlán	14	Cerro de Oro	10	Octubre	2023-10-27T00:00:00	2024-11-08T07:00:00	7	Dirección del viento	8.05
180679	7	Sololá	719	Santiago Atitlán	14	Cerro de Oro	10	Octubre	2023-10-27T00:00:00	2024-11-08T07:00:00	1	Precipitación	0
180680	7	Sololá	719	Santiago Atitlán	14	Cerro de Oro	10	Octubre	2023-10-27T00:00:00	2024-11-08T07:00:00	8	Radiación solar	90
180681	7	Sololá	719	Santiago Atitlán	14	Cerro de Oro	10	Octubre	2023-10-27T00:00:00	2024-11-08T08:00:00	2	Temperatura media	20.8
180682	7	Sololá	719	Santiago Atitlán	14	Cerro de Oro	10	Octubre	2023-10-27T00:00:00	2024-11-08T08:00:00	4	Temperatura máxima	20.8
180683	7	Sololá	719	Santiago Atitlán	14	Cerro de Oro	10	Octubre	2023-10-27T00:00:00	2024-11-08T08:00:00	3	Temperatura mínima	20.3
180684	7	Sololá	719	Santiago Atitlán	14	Cerro de Oro	10	Octubre	2023-10-27T00:00:00	2024-11-08T08:00:00	5	Humedad	74
180685	7	Sololá	719	Santiago Atitlán	14	Cerro de Oro	10	Octubre	2023-10-27T00:00:00	2024-11-08T08:00:00	6	Velocidad del viento	3.2
180686	7	Sololá	719	Santiago Atitlán	14	Cerro de Oro	10	Octubre	2023-10-27T00:00:00	2024-11-08T08:00:00	7	Dirección del viento	3.22
180687	7	Sololá	719	Santiago Atitlán	14	Cerro de Oro	10	Octubre	2023-10-27T00:00:00	2024-11-08T08:00:00	1	Precipitación	0
180688	7	Sololá	719	Santiago Atitlán	14	Cerro de Oro	10	Octubre	2023-10-27T00:00:00	2024-11-08T08:00:00	8	Radiación solar	276
180689	7	Sololá	719	Santiago Atitlán	14	Cerro de Oro	10	Octubre	2023-10-27T00:00:00	2024-11-08T09:00:00	2	Temperatura media	23.6
180690	7	Sololá	719	Santiago Atitlán	14	Cerro de Oro	10	Octubre	2023-10-27T00:00:00	2024-11-08T09:00:00	4	Temperatura máxima	24
180691	7	Sololá	719	Santiago Atitlán	14	Cerro de Oro	10	Octubre	2023-10-27T00:00:00	2024-11-08T09:00:00	3	Temperatura mínima	20.8
180692	7	Sololá	719	Santiago Atitlán	14	Cerro de Oro	10	Octubre	2023-10-27T00:00:00	2024-11-08T09:00:00	5	Humedad	65
180693	7	Sololá	719	Santiago Atitlán	14	Cerro de Oro	10	Octubre	2023-10-27T00:00:00	2024-11-08T09:00:00	6	Velocidad del viento	1.6
180694	7	Sololá	719	Santiago Atitlán	14	Cerro de Oro	10	Octubre	2023-10-27T00:00:00	2024-11-08T09:00:00	7	Dirección del viento	1.61
180695	7	Sololá	719	Santiago Atitlán	14	Cerro de Oro	10	Octubre	2023-10-27T00:00:00	2024-11-08T09:00:00	1	Precipitación	0
180696	7	Sololá	719	Santiago Atitlán	14	Cerro de Oro	10	Octubre	2023-10-27T00:00:00	2024-11-08T09:00:00	8	Radiación solar	379
180697	7	Sololá	719	Santiago Atitlán	14	Cerro de Oro	10	Octubre	2023-10-27T00:00:00	2024-11-08T10:00:00	2	Temperatura media	24.7
180698	7	Sololá	719	Santiago Atitlán	14	Cerro de Oro	10	Octubre	2023-10-27T00:00:00	2024-11-08T10:00:00	4	Temperatura máxima	24.7
180699	7	Sololá	719	Santiago Atitlán	14	Cerro de Oro	10	Octubre	2023-10-27T00:00:00	2024-11-08T10:00:00	3	Temperatura mínima	23.3
180700	7	Sololá	719	Santiago Atitlán	14	Cerro de Oro	10	Octubre	2023-10-27T00:00:00	2024-11-08T10:00:00	5	Humedad	65
180701	7	Sololá	719	Santiago Atitlán	14	Cerro de Oro	10	Octubre	2023-10-27T00:00:00	2024-11-08T10:00:00	6	Velocidad del viento	1.6
180702	7	Sololá	719	Santiago Atitlán	14	Cerro de Oro	10	Octubre	2023-10-27T00:00:00	2024-11-08T10:00:00	7	Dirección del viento	1.61
180703	7	Sololá	719	Santiago Atitlán	14	Cerro de Oro	10	Octubre	2023-10-27T00:00:00	2024-11-08T10:00:00	1	Precipitación	0
180704	7	Sololá	719	Santiago Atitlán	14	Cerro de Oro	10	Octubre	2023-10-27T00:00:00	2024-11-08T10:00:00	8	Radiación solar	458
180705	7	Sololá	719	Santiago Atitlán	14	Cerro de Oro	10	Octubre	2023-10-27T00:00:00	2024-11-08T11:00:00	2	Temperatura media	23.9
180706	7	Sololá	719	Santiago Atitlán	14	Cerro de Oro	10	Octubre	2023-10-27T00:00:00	2024-11-08T11:00:00	4	Temperatura máxima	25.2
180707	7	Sololá	719	Santiago Atitlán	14	Cerro de Oro	10	Octubre	2023-10-27T00:00:00	2024-11-08T11:00:00	3	Temperatura mínima	23.9
180708	7	Sololá	719	Santiago Atitlán	14	Cerro de Oro	10	Octubre	2023-10-27T00:00:00	2024-11-08T11:00:00	5	Humedad	72
180709	7	Sololá	719	Santiago Atitlán	14	Cerro de Oro	10	Octubre	2023-10-27T00:00:00	2024-11-08T11:00:00	6	Velocidad del viento	4.8
180710	7	Sololá	719	Santiago Atitlán	14	Cerro de Oro	10	Octubre	2023-10-27T00:00:00	2024-11-08T11:00:00	7	Dirección del viento	4.83
180711	7	Sololá	719	Santiago Atitlán	14	Cerro de Oro	10	Octubre	2023-10-27T00:00:00	2024-11-08T11:00:00	1	Precipitación	0
180712	7	Sololá	719	Santiago Atitlán	14	Cerro de Oro	10	Octubre	2023-10-27T00:00:00	2024-11-08T11:00:00	8	Radiación solar	600
180713	7	Sololá	719	Santiago Atitlán	14	Cerro de Oro	10	Octubre	2023-10-27T00:00:00	2024-11-08T12:00:00	2	Temperatura media	25.4
180714	7	Sololá	719	Santiago Atitlán	14	Cerro de Oro	10	Octubre	2023-10-27T00:00:00	2024-11-08T12:00:00	4	Temperatura máxima	25.6
180715	7	Sololá	719	Santiago Atitlán	14	Cerro de Oro	10	Octubre	2023-10-27T00:00:00	2024-11-08T12:00:00	3	Temperatura mínima	23.7
180716	7	Sololá	719	Santiago Atitlán	14	Cerro de Oro	10	Octubre	2023-10-27T00:00:00	2024-11-08T12:00:00	5	Humedad	58
180717	7	Sololá	719	Santiago Atitlán	14	Cerro de Oro	10	Octubre	2023-10-27T00:00:00	2024-11-08T12:00:00	6	Velocidad del viento	4.8
180718	7	Sololá	719	Santiago Atitlán	14	Cerro de Oro	10	Octubre	2023-10-27T00:00:00	2024-11-08T12:00:00	7	Dirección del viento	4.83
180719	7	Sololá	719	Santiago Atitlán	14	Cerro de Oro	10	Octubre	2023-10-27T00:00:00	2024-11-08T12:00:00	1	Precipitación	0
180720	7	Sololá	719	Santiago Atitlán	14	Cerro de Oro	10	Octubre	2023-10-27T00:00:00	2024-11-08T12:00:00	8	Radiación solar	934
180721	7	Sololá	719	Santiago Atitlán	14	Cerro de Oro	10	Octubre	2023-10-27T00:00:00	2024-11-08T13:00:00	2	Temperatura media	24.3
180722	7	Sololá	719	Santiago Atitlán	14	Cerro de Oro	10	Octubre	2023-10-27T00:00:00	2024-11-08T13:00:00	4	Temperatura máxima	25.4
180723	7	Sololá	719	Santiago Atitlán	14	Cerro de Oro	10	Octubre	2023-10-27T00:00:00	2024-11-08T13:00:00	3	Temperatura mínima	23.8
180724	7	Sololá	719	Santiago Atitlán	14	Cerro de Oro	10	Octubre	2023-10-27T00:00:00	2024-11-08T13:00:00	5	Humedad	65
180725	7	Sololá	719	Santiago Atitlán	14	Cerro de Oro	10	Octubre	2023-10-27T00:00:00	2024-11-08T13:00:00	6	Velocidad del viento	6.4
180726	7	Sololá	719	Santiago Atitlán	14	Cerro de Oro	10	Octubre	2023-10-27T00:00:00	2024-11-08T13:00:00	7	Dirección del viento	6.44
180727	7	Sololá	719	Santiago Atitlán	14	Cerro de Oro	10	Octubre	2023-10-27T00:00:00	2024-11-08T13:00:00	1	Precipitación	0
180728	7	Sololá	719	Santiago Atitlán	14	Cerro de Oro	10	Octubre	2023-10-27T00:00:00	2024-11-08T13:00:00	8	Radiación solar	859
180729	7	Sololá	719	Santiago Atitlán	14	Cerro de Oro	10	Octubre	2023-10-27T00:00:00	2024-11-08T14:00:00	2	Temperatura media	21.2
180730	7	Sololá	719	Santiago Atitlán	14	Cerro de Oro	10	Octubre	2023-10-27T00:00:00	2024-11-08T14:00:00	4	Temperatura máxima	25.7
180731	7	Sololá	719	Santiago Atitlán	14	Cerro de Oro	10	Octubre	2023-10-27T00:00:00	2024-11-08T14:00:00	3	Temperatura mínima	21.2
180732	7	Sololá	719	Santiago Atitlán	14	Cerro de Oro	10	Octubre	2023-10-27T00:00:00	2024-11-08T14:00:00	5	Humedad	73
180733	7	Sololá	719	Santiago Atitlán	14	Cerro de Oro	10	Octubre	2023-10-27T00:00:00	2024-11-08T14:00:00	6	Velocidad del viento	6.4
180734	7	Sololá	719	Santiago Atitlán	14	Cerro de Oro	10	Octubre	2023-10-27T00:00:00	2024-11-08T14:00:00	7	Dirección del viento	6.44
180735	7	Sololá	719	Santiago Atitlán	14	Cerro de Oro	10	Octubre	2023-10-27T00:00:00	2024-11-08T14:00:00	1	Precipitación	0
180736	7	Sololá	719	Santiago Atitlán	14	Cerro de Oro	10	Octubre	2023-10-27T00:00:00	2024-11-08T14:00:00	8	Radiación solar	482
180737	7	Sololá	719	Santiago Atitlán	14	Cerro de Oro	10	Octubre	2023-10-27T00:00:00	2024-11-08T15:00:00	2	Temperatura media	21.5
180738	7	Sololá	719	Santiago Atitlán	14	Cerro de Oro	10	Octubre	2023-10-27T00:00:00	2024-11-08T15:00:00	4	Temperatura máxima	21.5
180739	7	Sololá	719	Santiago Atitlán	14	Cerro de Oro	10	Octubre	2023-10-27T00:00:00	2024-11-08T15:00:00	3	Temperatura mínima	20.9
180740	7	Sololá	719	Santiago Atitlán	14	Cerro de Oro	10	Octubre	2023-10-27T00:00:00	2024-11-08T15:00:00	5	Humedad	76
180741	7	Sololá	719	Santiago Atitlán	14	Cerro de Oro	10	Octubre	2023-10-27T00:00:00	2024-11-08T15:00:00	6	Velocidad del viento	4.8
180742	7	Sololá	719	Santiago Atitlán	14	Cerro de Oro	10	Octubre	2023-10-27T00:00:00	2024-11-08T15:00:00	7	Dirección del viento	4.83
180743	7	Sololá	719	Santiago Atitlán	14	Cerro de Oro	10	Octubre	2023-10-27T00:00:00	2024-11-08T15:00:00	1	Precipitación	0
180744	7	Sololá	719	Santiago Atitlán	14	Cerro de Oro	10	Octubre	2023-10-27T00:00:00	2024-11-08T15:00:00	8	Radiación solar	589
180745	7	Sololá	719	Santiago Atitlán	14	Cerro de Oro	10	Octubre	2023-10-27T00:00:00	2024-11-08T16:00:00	2	Temperatura media	22.1
180746	7	Sololá	719	Santiago Atitlán	14	Cerro de Oro	10	Octubre	2023-10-27T00:00:00	2024-11-08T16:00:00	4	Temperatura máxima	22.9
180747	7	Sololá	719	Santiago Atitlán	14	Cerro de Oro	10	Octubre	2023-10-27T00:00:00	2024-11-08T16:00:00	3	Temperatura mínima	21.5
180748	7	Sololá	719	Santiago Atitlán	14	Cerro de Oro	10	Octubre	2023-10-27T00:00:00	2024-11-08T16:00:00	5	Humedad	67
180749	7	Sololá	719	Santiago Atitlán	14	Cerro de Oro	10	Octubre	2023-10-27T00:00:00	2024-11-08T16:00:00	6	Velocidad del viento	6.4
180750	7	Sololá	719	Santiago Atitlán	14	Cerro de Oro	10	Octubre	2023-10-27T00:00:00	2024-11-08T16:00:00	7	Dirección del viento	6.44
180751	7	Sololá	719	Santiago Atitlán	14	Cerro de Oro	10	Octubre	2023-10-27T00:00:00	2024-11-08T16:00:00	1	Precipitación	0
180752	7	Sololá	719	Santiago Atitlán	14	Cerro de Oro	10	Octubre	2023-10-27T00:00:00	2024-11-08T16:00:00	8	Radiación solar	232
180753	7	Sololá	719	Santiago Atitlán	14	Cerro de Oro	10	Octubre	2023-10-27T00:00:00	2024-11-08T17:00:00	2	Temperatura media	22.6
180754	7	Sololá	719	Santiago Atitlán	14	Cerro de Oro	10	Octubre	2023-10-27T00:00:00	2024-11-08T17:00:00	4	Temperatura máxima	22.6
180755	7	Sololá	719	Santiago Atitlán	14	Cerro de Oro	10	Octubre	2023-10-27T00:00:00	2024-11-08T17:00:00	3	Temperatura mínima	22.1
180756	7	Sololá	719	Santiago Atitlán	14	Cerro de Oro	10	Octubre	2023-10-27T00:00:00	2024-11-08T17:00:00	5	Humedad	67
180757	7	Sololá	719	Santiago Atitlán	14	Cerro de Oro	10	Octubre	2023-10-27T00:00:00	2024-11-08T17:00:00	6	Velocidad del viento	6.4
180758	7	Sololá	719	Santiago Atitlán	14	Cerro de Oro	10	Octubre	2023-10-27T00:00:00	2024-11-08T17:00:00	7	Dirección del viento	6.44
180759	7	Sololá	719	Santiago Atitlán	14	Cerro de Oro	10	Octubre	2023-10-27T00:00:00	2024-11-08T17:00:00	1	Precipitación	0
180760	7	Sololá	719	Santiago Atitlán	14	Cerro de Oro	10	Octubre	2023-10-27T00:00:00	2024-11-08T17:00:00	8	Radiación solar	200
180761	7	Sololá	719	Santiago Atitlán	14	Cerro de Oro	10	Octubre	2023-10-27T00:00:00	2024-11-08T18:00:00	2	Temperatura media	21.6
180762	7	Sololá	719	Santiago Atitlán	14	Cerro de Oro	10	Octubre	2023-10-27T00:00:00	2024-11-08T18:00:00	4	Temperatura máxima	22.7
180763	7	Sololá	719	Santiago Atitlán	14	Cerro de Oro	10	Octubre	2023-10-27T00:00:00	2024-11-08T18:00:00	3	Temperatura mínima	21.6
180764	7	Sololá	719	Santiago Atitlán	14	Cerro de Oro	10	Octubre	2023-10-27T00:00:00	2024-11-08T18:00:00	5	Humedad	71
180765	7	Sololá	719	Santiago Atitlán	14	Cerro de Oro	10	Octubre	2023-10-27T00:00:00	2024-11-08T18:00:00	6	Velocidad del viento	1.6
180766	7	Sololá	719	Santiago Atitlán	14	Cerro de Oro	10	Octubre	2023-10-27T00:00:00	2024-11-08T18:00:00	7	Dirección del viento	1.61
180767	7	Sololá	719	Santiago Atitlán	14	Cerro de Oro	10	Octubre	2023-10-27T00:00:00	2024-11-08T18:00:00	1	Precipitación	0
180768	7	Sololá	719	Santiago Atitlán	14	Cerro de Oro	10	Octubre	2023-10-27T00:00:00	2024-11-08T18:00:00	8	Radiación solar	58
180769	7	Sololá	719	Santiago Atitlán	14	Cerro de Oro	10	Octubre	2023-10-27T00:00:00	2024-11-08T19:00:00	2	Temperatura media	20.7
180770	7	Sololá	719	Santiago Atitlán	14	Cerro de Oro	10	Octubre	2023-10-27T00:00:00	2024-11-08T19:00:00	4	Temperatura máxima	21.6
180771	7	Sololá	719	Santiago Atitlán	14	Cerro de Oro	10	Octubre	2023-10-27T00:00:00	2024-11-08T19:00:00	3	Temperatura mínima	20.6
180772	7	Sololá	719	Santiago Atitlán	14	Cerro de Oro	10	Octubre	2023-10-27T00:00:00	2024-11-08T19:00:00	5	Humedad	74
180773	7	Sololá	719	Santiago Atitlán	14	Cerro de Oro	10	Octubre	2023-10-27T00:00:00	2024-11-08T19:00:00	6	Velocidad del viento	8
180774	7	Sololá	719	Santiago Atitlán	14	Cerro de Oro	10	Octubre	2023-10-27T00:00:00	2024-11-08T19:00:00	7	Dirección del viento	8.05
180775	7	Sololá	719	Santiago Atitlán	14	Cerro de Oro	10	Octubre	2023-10-27T00:00:00	2024-11-08T19:00:00	1	Precipitación	0
180776	7	Sololá	719	Santiago Atitlán	14	Cerro de Oro	10	Octubre	2023-10-27T00:00:00	2024-11-08T19:00:00	8	Radiación solar	0
180777	7	Sololá	719	Santiago Atitlán	14	Cerro de Oro	10	Octubre	2023-10-27T00:00:00	2024-11-08T20:00:00	2	Temperatura media	19.7
180778	7	Sololá	719	Santiago Atitlán	14	Cerro de Oro	10	Octubre	2023-10-27T00:00:00	2024-11-08T20:00:00	4	Temperatura máxima	20.7
180779	7	Sololá	719	Santiago Atitlán	14	Cerro de Oro	10	Octubre	2023-10-27T00:00:00	2024-11-08T20:00:00	3	Temperatura mínima	19.5
180780	7	Sololá	719	Santiago Atitlán	14	Cerro de Oro	10	Octubre	2023-10-27T00:00:00	2024-11-08T20:00:00	5	Humedad	80
180781	7	Sololá	719	Santiago Atitlán	14	Cerro de Oro	10	Octubre	2023-10-27T00:00:00	2024-11-08T20:00:00	6	Velocidad del viento	8
180782	7	Sololá	719	Santiago Atitlán	14	Cerro de Oro	10	Octubre	2023-10-27T00:00:00	2024-11-08T20:00:00	7	Dirección del viento	8.05
180783	7	Sololá	719	Santiago Atitlán	14	Cerro de Oro	10	Octubre	2023-10-27T00:00:00	2024-11-08T20:00:00	1	Precipitación	0
180784	7	Sololá	719	Santiago Atitlán	14	Cerro de Oro	10	Octubre	2023-10-27T00:00:00	2024-11-08T20:00:00	8	Radiación solar	0
180785	7	Sololá	719	Santiago Atitlán	14	Cerro de Oro	10	Octubre	2023-10-27T00:00:00	2024-11-08T21:00:00	2	Temperatura media	20.3
180786	7	Sololá	719	Santiago Atitlán	14	Cerro de Oro	10	Octubre	2023-10-27T00:00:00	2024-11-08T21:00:00	4	Temperatura máxima	20.3
180787	7	Sololá	719	Santiago Atitlán	14	Cerro de Oro	10	Octubre	2023-10-27T00:00:00	2024-11-08T21:00:00	3	Temperatura mínima	19.6
180788	7	Sololá	719	Santiago Atitlán	14	Cerro de Oro	10	Octubre	2023-10-27T00:00:00	2024-11-08T21:00:00	5	Humedad	76
180789	7	Sololá	719	Santiago Atitlán	14	Cerro de Oro	10	Octubre	2023-10-27T00:00:00	2024-11-08T21:00:00	6	Velocidad del viento	6.4
180790	7	Sololá	719	Santiago Atitlán	14	Cerro de Oro	10	Octubre	2023-10-27T00:00:00	2024-11-08T21:00:00	7	Dirección del viento	6.44
180791	7	Sololá	719	Santiago Atitlán	14	Cerro de Oro	10	Octubre	2023-10-27T00:00:00	2024-11-08T21:00:00	1	Precipitación	0
180792	7	Sololá	719	Santiago Atitlán	14	Cerro de Oro	10	Octubre	2023-10-27T00:00:00	2024-11-08T21:00:00	8	Radiación solar	0
180793	7	Sololá	719	Santiago Atitlán	14	Cerro de Oro	10	Octubre	2023-10-27T00:00:00	2024-11-08T22:00:00	2	Temperatura media	19.8
180794	7	Sololá	719	Santiago Atitlán	14	Cerro de Oro	10	Octubre	2023-10-27T00:00:00	2024-11-08T22:00:00	4	Temperatura máxima	20.4
180795	7	Sololá	719	Santiago Atitlán	14	Cerro de Oro	10	Octubre	2023-10-27T00:00:00	2024-11-08T22:00:00	3	Temperatura mínima	19.8
180796	7	Sololá	719	Santiago Atitlán	14	Cerro de Oro	10	Octubre	2023-10-27T00:00:00	2024-11-08T22:00:00	5	Humedad	77
180797	7	Sololá	719	Santiago Atitlán	14	Cerro de Oro	10	Octubre	2023-10-27T00:00:00	2024-11-08T22:00:00	6	Velocidad del viento	6.4
180798	7	Sololá	719	Santiago Atitlán	14	Cerro de Oro	10	Octubre	2023-10-27T00:00:00	2024-11-08T22:00:00	7	Dirección del viento	6.44
180799	7	Sololá	719	Santiago Atitlán	14	Cerro de Oro	10	Octubre	2023-10-27T00:00:00	2024-11-08T22:00:00	1	Precipitación	0
180800	7	Sololá	719	Santiago Atitlán	14	Cerro de Oro	10	Octubre	2023-10-27T00:00:00	2024-11-08T22:00:00	8	Radiación solar	0
180801	7	Sololá	719	Santiago Atitlán	14	Cerro de Oro	10	Octubre	2023-10-27T00:00:00	2024-11-08T23:00:00	2	Temperatura media	20.1
180802	7	Sololá	719	Santiago Atitlán	14	Cerro de Oro	10	Octubre	2023-10-27T00:00:00	2024-11-08T23:00:00	4	Temperatura máxima	20.1
180803	7	Sololá	719	Santiago Atitlán	14	Cerro de Oro	10	Octubre	2023-10-27T00:00:00	2024-11-08T23:00:00	3	Temperatura mínima	19.7
180804	7	Sololá	719	Santiago Atitlán	14	Cerro de Oro	10	Octubre	2023-10-27T00:00:00	2024-11-08T23:00:00	5	Humedad	75
180805	7	Sololá	719	Santiago Atitlán	14	Cerro de Oro	10	Octubre	2023-10-27T00:00:00	2024-11-08T23:00:00	6	Velocidad del viento	3.2
180806	7	Sololá	719	Santiago Atitlán	14	Cerro de Oro	10	Octubre	2023-10-27T00:00:00	2024-11-08T23:00:00	7	Dirección del viento	3.22
180807	7	Sololá	719	Santiago Atitlán	14	Cerro de Oro	10	Octubre	2023-10-27T00:00:00	2024-11-08T23:00:00	1	Precipitación	0
180808	7	Sololá	719	Santiago Atitlán	14	Cerro de Oro	10	Octubre	2023-10-27T00:00:00	2024-11-08T23:00:00	8	Radiación solar	0
180809	7	Sololá	719	Santiago Atitlán	14	Cerro de Oro	10	Octubre	2023-10-28T00:00:00	2024-11-08T00:00:00	2	Temperatura media	19.8
180810	7	Sololá	719	Santiago Atitlán	14	Cerro de Oro	10	Octubre	2023-10-28T00:00:00	2024-11-08T00:00:00	4	Temperatura máxima	20.2
180811	7	Sololá	719	Santiago Atitlán	14	Cerro de Oro	10	Octubre	2023-10-28T00:00:00	2024-11-08T00:00:00	3	Temperatura mínima	19.8
180812	7	Sololá	719	Santiago Atitlán	14	Cerro de Oro	10	Octubre	2023-10-28T00:00:00	2024-11-08T00:00:00	5	Humedad	75
180813	7	Sololá	719	Santiago Atitlán	14	Cerro de Oro	10	Octubre	2023-10-28T00:00:00	2024-11-08T00:00:00	6	Velocidad del viento	3.2
180814	7	Sololá	719	Santiago Atitlán	14	Cerro de Oro	10	Octubre	2023-10-28T00:00:00	2024-11-08T00:00:00	7	Dirección del viento	3.22
180815	7	Sololá	719	Santiago Atitlán	14	Cerro de Oro	10	Octubre	2023-10-28T00:00:00	2024-11-08T00:00:00	1	Precipitación	0
180816	7	Sololá	719	Santiago Atitlán	14	Cerro de Oro	10	Octubre	2023-10-28T00:00:00	2024-11-08T00:00:00	8	Radiación solar	0
180817	7	Sololá	719	Santiago Atitlán	14	Cerro de Oro	10	Octubre	2023-10-28T00:00:00	2024-11-08T01:00:00	2	Temperatura media	19.4
180818	7	Sololá	719	Santiago Atitlán	14	Cerro de Oro	10	Octubre	2023-10-28T00:00:00	2024-11-08T01:00:00	4	Temperatura máxima	19.9
180819	7	Sololá	719	Santiago Atitlán	14	Cerro de Oro	10	Octubre	2023-10-28T00:00:00	2024-11-08T01:00:00	3	Temperatura mínima	19.4
180820	7	Sololá	719	Santiago Atitlán	14	Cerro de Oro	10	Octubre	2023-10-28T00:00:00	2024-11-08T01:00:00	5	Humedad	77
180821	7	Sololá	719	Santiago Atitlán	14	Cerro de Oro	10	Octubre	2023-10-28T00:00:00	2024-11-08T01:00:00	6	Velocidad del viento	3.2
180822	7	Sololá	719	Santiago Atitlán	14	Cerro de Oro	10	Octubre	2023-10-28T00:00:00	2024-11-08T01:00:00	7	Dirección del viento	3.22
180823	7	Sololá	719	Santiago Atitlán	14	Cerro de Oro	10	Octubre	2023-10-28T00:00:00	2024-11-08T01:00:00	1	Precipitación	0
180824	7	Sololá	719	Santiago Atitlán	14	Cerro de Oro	10	Octubre	2023-10-28T00:00:00	2024-11-08T01:00:00	8	Radiación solar	0
180825	7	Sololá	719	Santiago Atitlán	14	Cerro de Oro	10	Octubre	2023-10-28T00:00:00	2024-11-08T02:00:00	2	Temperatura media	19.6
180826	7	Sololá	719	Santiago Atitlán	14	Cerro de Oro	10	Octubre	2023-10-28T00:00:00	2024-11-08T02:00:00	4	Temperatura máxima	20
180827	7	Sololá	719	Santiago Atitlán	14	Cerro de Oro	10	Octubre	2023-10-28T00:00:00	2024-11-08T02:00:00	3	Temperatura mínima	19.2
180828	7	Sololá	719	Santiago Atitlán	14	Cerro de Oro	10	Octubre	2023-10-28T00:00:00	2024-11-08T02:00:00	5	Humedad	74
180829	7	Sololá	719	Santiago Atitlán	14	Cerro de Oro	10	Octubre	2023-10-28T00:00:00	2024-11-08T02:00:00	6	Velocidad del viento	6.4
180830	7	Sololá	719	Santiago Atitlán	14	Cerro de Oro	10	Octubre	2023-10-28T00:00:00	2024-11-08T02:00:00	7	Dirección del viento	6.44
180831	7	Sololá	719	Santiago Atitlán	14	Cerro de Oro	10	Octubre	2023-10-28T00:00:00	2024-11-08T02:00:00	1	Precipitación	0
180832	7	Sololá	719	Santiago Atitlán	14	Cerro de Oro	10	Octubre	2023-10-28T00:00:00	2024-11-08T02:00:00	8	Radiación solar	0
180833	7	Sololá	719	Santiago Atitlán	14	Cerro de Oro	10	Octubre	2023-10-28T00:00:00	2024-11-08T03:00:00	2	Temperatura media	19.4
180834	7	Sololá	719	Santiago Atitlán	14	Cerro de Oro	10	Octubre	2023-10-28T00:00:00	2024-11-08T03:00:00	4	Temperatura máxima	19.9
180835	7	Sololá	719	Santiago Atitlán	14	Cerro de Oro	10	Octubre	2023-10-28T00:00:00	2024-11-08T03:00:00	3	Temperatura mínima	19.3
180836	7	Sololá	719	Santiago Atitlán	14	Cerro de Oro	10	Octubre	2023-10-28T00:00:00	2024-11-08T03:00:00	5	Humedad	74
180837	7	Sololá	719	Santiago Atitlán	14	Cerro de Oro	10	Octubre	2023-10-28T00:00:00	2024-11-08T03:00:00	6	Velocidad del viento	8
180838	7	Sololá	719	Santiago Atitlán	14	Cerro de Oro	10	Octubre	2023-10-28T00:00:00	2024-11-08T03:00:00	7	Dirección del viento	8.05
180839	7	Sololá	719	Santiago Atitlán	14	Cerro de Oro	10	Octubre	2023-10-28T00:00:00	2024-11-08T03:00:00	1	Precipitación	0
180840	7	Sololá	719	Santiago Atitlán	14	Cerro de Oro	10	Octubre	2023-10-28T00:00:00	2024-11-08T03:00:00	8	Radiación solar	0
180841	7	Sololá	719	Santiago Atitlán	14	Cerro de Oro	10	Octubre	2023-10-28T00:00:00	2024-11-08T04:00:00	2	Temperatura media	19.1
180842	7	Sololá	719	Santiago Atitlán	14	Cerro de Oro	10	Octubre	2023-10-28T00:00:00	2024-11-08T04:00:00	4	Temperatura máxima	19.4
180843	7	Sololá	719	Santiago Atitlán	14	Cerro de Oro	10	Octubre	2023-10-28T00:00:00	2024-11-08T04:00:00	3	Temperatura mínima	19
180844	7	Sololá	719	Santiago Atitlán	14	Cerro de Oro	10	Octubre	2023-10-28T00:00:00	2024-11-08T04:00:00	5	Humedad	75
180845	7	Sololá	719	Santiago Atitlán	14	Cerro de Oro	10	Octubre	2023-10-28T00:00:00	2024-11-08T04:00:00	6	Velocidad del viento	6.4
180846	7	Sololá	719	Santiago Atitlán	14	Cerro de Oro	10	Octubre	2023-10-28T00:00:00	2024-11-08T04:00:00	7	Dirección del viento	6.44
180847	7	Sololá	719	Santiago Atitlán	14	Cerro de Oro	10	Octubre	2023-10-28T00:00:00	2024-11-08T04:00:00	1	Precipitación	0
180848	7	Sololá	719	Santiago Atitlán	14	Cerro de Oro	10	Octubre	2023-10-28T00:00:00	2024-11-08T04:00:00	8	Radiación solar	0
180849	7	Sololá	719	Santiago Atitlán	14	Cerro de Oro	10	Octubre	2023-10-28T00:00:00	2024-11-08T05:00:00	2	Temperatura media	18.9
180850	7	Sololá	719	Santiago Atitlán	14	Cerro de Oro	10	Octubre	2023-10-28T00:00:00	2024-11-08T05:00:00	4	Temperatura máxima	19.2
180851	7	Sololá	719	Santiago Atitlán	14	Cerro de Oro	10	Octubre	2023-10-28T00:00:00	2024-11-08T05:00:00	3	Temperatura mínima	18.8
180852	7	Sololá	719	Santiago Atitlán	14	Cerro de Oro	10	Octubre	2023-10-28T00:00:00	2024-11-08T05:00:00	5	Humedad	73
180853	7	Sololá	719	Santiago Atitlán	14	Cerro de Oro	10	Octubre	2023-10-28T00:00:00	2024-11-08T05:00:00	6	Velocidad del viento	6.4
180854	7	Sololá	719	Santiago Atitlán	14	Cerro de Oro	10	Octubre	2023-10-28T00:00:00	2024-11-08T05:00:00	7	Dirección del viento	6.44
180855	7	Sololá	719	Santiago Atitlán	14	Cerro de Oro	10	Octubre	2023-10-28T00:00:00	2024-11-08T05:00:00	1	Precipitación	0
180856	7	Sololá	719	Santiago Atitlán	14	Cerro de Oro	10	Octubre	2023-10-28T00:00:00	2024-11-08T05:00:00	8	Radiación solar	0
180857	7	Sololá	719	Santiago Atitlán	14	Cerro de Oro	10	Octubre	2023-10-28T00:00:00	2024-11-08T06:00:00	2	Temperatura media	19
180858	7	Sololá	719	Santiago Atitlán	14	Cerro de Oro	10	Octubre	2023-10-28T00:00:00	2024-11-08T06:00:00	4	Temperatura máxima	19.8
180859	7	Sololá	719	Santiago Atitlán	14	Cerro de Oro	10	Octubre	2023-10-28T00:00:00	2024-11-08T06:00:00	3	Temperatura mínima	18.8
180860	7	Sololá	719	Santiago Atitlán	14	Cerro de Oro	10	Octubre	2023-10-28T00:00:00	2024-11-08T06:00:00	5	Humedad	68
180861	7	Sololá	719	Santiago Atitlán	14	Cerro de Oro	10	Octubre	2023-10-28T00:00:00	2024-11-08T06:00:00	6	Velocidad del viento	6.4
180862	7	Sololá	719	Santiago Atitlán	14	Cerro de Oro	10	Octubre	2023-10-28T00:00:00	2024-11-08T06:00:00	7	Dirección del viento	6.44
180863	7	Sololá	719	Santiago Atitlán	14	Cerro de Oro	10	Octubre	2023-10-28T00:00:00	2024-11-08T06:00:00	1	Precipitación	0
180864	7	Sololá	719	Santiago Atitlán	14	Cerro de Oro	10	Octubre	2023-10-28T00:00:00	2024-11-08T06:00:00	8	Radiación solar	3
180865	7	Sololá	719	Santiago Atitlán	14	Cerro de Oro	10	Octubre	2023-10-28T00:00:00	2024-11-08T07:00:00	2	Temperatura media	19.1
180866	7	Sololá	719	Santiago Atitlán	14	Cerro de Oro	10	Octubre	2023-10-28T00:00:00	2024-11-08T07:00:00	4	Temperatura máxima	19.2
180867	7	Sololá	719	Santiago Atitlán	14	Cerro de Oro	10	Octubre	2023-10-28T00:00:00	2024-11-08T07:00:00	3	Temperatura mínima	18.4
180868	7	Sololá	719	Santiago Atitlán	14	Cerro de Oro	10	Octubre	2023-10-28T00:00:00	2024-11-08T07:00:00	5	Humedad	70
180869	7	Sololá	719	Santiago Atitlán	14	Cerro de Oro	10	Octubre	2023-10-28T00:00:00	2024-11-08T07:00:00	6	Velocidad del viento	4.8
180870	7	Sololá	719	Santiago Atitlán	14	Cerro de Oro	10	Octubre	2023-10-28T00:00:00	2024-11-08T07:00:00	7	Dirección del viento	4.83
180871	7	Sololá	719	Santiago Atitlán	14	Cerro de Oro	10	Octubre	2023-10-28T00:00:00	2024-11-08T07:00:00	1	Precipitación	0
180872	7	Sololá	719	Santiago Atitlán	14	Cerro de Oro	10	Octubre	2023-10-28T00:00:00	2024-11-08T07:00:00	8	Radiación solar	46
180873	7	Sololá	719	Santiago Atitlán	14	Cerro de Oro	10	Octubre	2023-10-28T00:00:00	2024-11-08T08:00:00	2	Temperatura media	19.9
180874	7	Sololá	719	Santiago Atitlán	14	Cerro de Oro	10	Octubre	2023-10-28T00:00:00	2024-11-08T08:00:00	4	Temperatura máxima	19.9
180875	7	Sololá	719	Santiago Atitlán	14	Cerro de Oro	10	Octubre	2023-10-28T00:00:00	2024-11-08T08:00:00	3	Temperatura mínima	19.2
180876	7	Sololá	719	Santiago Atitlán	14	Cerro de Oro	10	Octubre	2023-10-28T00:00:00	2024-11-08T08:00:00	5	Humedad	69
180877	7	Sololá	719	Santiago Atitlán	14	Cerro de Oro	10	Octubre	2023-10-28T00:00:00	2024-11-08T08:00:00	6	Velocidad del viento	3.2
180878	7	Sololá	719	Santiago Atitlán	14	Cerro de Oro	10	Octubre	2023-10-28T00:00:00	2024-11-08T08:00:00	7	Dirección del viento	3.22
180879	7	Sololá	719	Santiago Atitlán	14	Cerro de Oro	10	Octubre	2023-10-28T00:00:00	2024-11-08T08:00:00	1	Precipitación	0
180880	7	Sololá	719	Santiago Atitlán	14	Cerro de Oro	10	Octubre	2023-10-28T00:00:00	2024-11-08T08:00:00	8	Radiación solar	248
180881	7	Sololá	719	Santiago Atitlán	14	Cerro de Oro	10	Octubre	2023-10-28T00:00:00	2024-11-08T09:00:00	2	Temperatura media	22.5
180882	7	Sololá	719	Santiago Atitlán	14	Cerro de Oro	10	Octubre	2023-10-28T00:00:00	2024-11-08T09:00:00	4	Temperatura máxima	22.5
180883	7	Sololá	719	Santiago Atitlán	14	Cerro de Oro	10	Octubre	2023-10-28T00:00:00	2024-11-08T09:00:00	3	Temperatura mínima	19.6
180884	7	Sololá	719	Santiago Atitlán	14	Cerro de Oro	10	Octubre	2023-10-28T00:00:00	2024-11-08T09:00:00	5	Humedad	65
180885	7	Sololá	719	Santiago Atitlán	14	Cerro de Oro	10	Octubre	2023-10-28T00:00:00	2024-11-08T09:00:00	6	Velocidad del viento	4.8
180886	7	Sololá	719	Santiago Atitlán	14	Cerro de Oro	10	Octubre	2023-10-28T00:00:00	2024-11-08T09:00:00	7	Dirección del viento	4.83
180887	7	Sololá	719	Santiago Atitlán	14	Cerro de Oro	10	Octubre	2023-10-28T00:00:00	2024-11-08T09:00:00	1	Precipitación	0
180888	7	Sololá	719	Santiago Atitlán	14	Cerro de Oro	10	Octubre	2023-10-28T00:00:00	2024-11-08T09:00:00	8	Radiación solar	387
180889	7	Sololá	719	Santiago Atitlán	14	Cerro de Oro	10	Octubre	2023-10-28T00:00:00	2024-11-08T10:00:00	2	Temperatura media	23
180890	7	Sololá	719	Santiago Atitlán	14	Cerro de Oro	10	Octubre	2023-10-28T00:00:00	2024-11-08T10:00:00	4	Temperatura máxima	23.1
180891	7	Sololá	719	Santiago Atitlán	14	Cerro de Oro	10	Octubre	2023-10-28T00:00:00	2024-11-08T10:00:00	3	Temperatura mínima	22.5
180892	7	Sololá	719	Santiago Atitlán	14	Cerro de Oro	10	Octubre	2023-10-28T00:00:00	2024-11-08T10:00:00	5	Humedad	64
180893	7	Sololá	719	Santiago Atitlán	14	Cerro de Oro	10	Octubre	2023-10-28T00:00:00	2024-11-08T10:00:00	6	Velocidad del viento	6.4
180894	7	Sololá	719	Santiago Atitlán	14	Cerro de Oro	10	Octubre	2023-10-28T00:00:00	2024-11-08T10:00:00	7	Dirección del viento	6.44
180895	7	Sololá	719	Santiago Atitlán	14	Cerro de Oro	10	Octubre	2023-10-28T00:00:00	2024-11-08T10:00:00	1	Precipitación	0
180896	7	Sololá	719	Santiago Atitlán	14	Cerro de Oro	10	Octubre	2023-10-28T00:00:00	2024-11-08T10:00:00	8	Radiación solar	388
180897	7	Sololá	719	Santiago Atitlán	14	Cerro de Oro	10	Octubre	2023-10-28T00:00:00	2024-11-08T11:00:00	2	Temperatura media	24
180898	7	Sololá	719	Santiago Atitlán	14	Cerro de Oro	10	Octubre	2023-10-28T00:00:00	2024-11-08T11:00:00	4	Temperatura máxima	24.1
180899	7	Sololá	719	Santiago Atitlán	14	Cerro de Oro	10	Octubre	2023-10-28T00:00:00	2024-11-08T11:00:00	3	Temperatura mínima	23
180900	7	Sololá	719	Santiago Atitlán	14	Cerro de Oro	10	Octubre	2023-10-28T00:00:00	2024-11-08T11:00:00	5	Humedad	63
180901	7	Sololá	719	Santiago Atitlán	14	Cerro de Oro	10	Octubre	2023-10-28T00:00:00	2024-11-08T11:00:00	6	Velocidad del viento	3.2
180902	7	Sololá	719	Santiago Atitlán	14	Cerro de Oro	10	Octubre	2023-10-28T00:00:00	2024-11-08T11:00:00	7	Dirección del viento	3.22
180903	7	Sololá	719	Santiago Atitlán	14	Cerro de Oro	10	Octubre	2023-10-28T00:00:00	2024-11-08T11:00:00	1	Precipitación	0
180904	7	Sololá	719	Santiago Atitlán	14	Cerro de Oro	10	Octubre	2023-10-28T00:00:00	2024-11-08T11:00:00	8	Radiación solar	380
180905	7	Sololá	719	Santiago Atitlán	14	Cerro de Oro	10	Octubre	2023-10-28T00:00:00	2024-11-08T12:00:00	2	Temperatura media	23.3
180906	7	Sololá	719	Santiago Atitlán	14	Cerro de Oro	10	Octubre	2023-10-28T00:00:00	2024-11-08T12:00:00	4	Temperatura máxima	24.6
180907	7	Sololá	719	Santiago Atitlán	14	Cerro de Oro	10	Octubre	2023-10-28T00:00:00	2024-11-08T12:00:00	3	Temperatura mínima	23.3
180908	7	Sololá	719	Santiago Atitlán	14	Cerro de Oro	10	Octubre	2023-10-28T00:00:00	2024-11-08T12:00:00	5	Humedad	62
180909	7	Sololá	719	Santiago Atitlán	14	Cerro de Oro	10	Octubre	2023-10-28T00:00:00	2024-11-08T12:00:00	6	Velocidad del viento	4.8
180910	7	Sololá	719	Santiago Atitlán	14	Cerro de Oro	10	Octubre	2023-10-28T00:00:00	2024-11-08T12:00:00	7	Dirección del viento	4.83
180911	7	Sololá	719	Santiago Atitlán	14	Cerro de Oro	10	Octubre	2023-10-28T00:00:00	2024-11-08T12:00:00	1	Precipitación	0
180912	7	Sololá	719	Santiago Atitlán	14	Cerro de Oro	10	Octubre	2023-10-28T00:00:00	2024-11-08T12:00:00	8	Radiación solar	856
180913	7	Sololá	719	Santiago Atitlán	14	Cerro de Oro	10	Octubre	2023-10-28T00:00:00	2024-11-08T13:00:00	2	Temperatura media	24.9
180914	7	Sololá	719	Santiago Atitlán	14	Cerro de Oro	10	Octubre	2023-10-28T00:00:00	2024-11-08T13:00:00	4	Temperatura máxima	25.2
180915	7	Sololá	719	Santiago Atitlán	14	Cerro de Oro	10	Octubre	2023-10-28T00:00:00	2024-11-08T13:00:00	3	Temperatura mínima	23.3
180916	7	Sololá	719	Santiago Atitlán	14	Cerro de Oro	10	Octubre	2023-10-28T00:00:00	2024-11-08T13:00:00	5	Humedad	59
180917	7	Sololá	719	Santiago Atitlán	14	Cerro de Oro	10	Octubre	2023-10-28T00:00:00	2024-11-08T13:00:00	6	Velocidad del viento	4.8
180918	7	Sololá	719	Santiago Atitlán	14	Cerro de Oro	10	Octubre	2023-10-28T00:00:00	2024-11-08T13:00:00	7	Dirección del viento	4.83
180919	7	Sololá	719	Santiago Atitlán	14	Cerro de Oro	10	Octubre	2023-10-28T00:00:00	2024-11-08T13:00:00	1	Precipitación	0
180920	7	Sololá	719	Santiago Atitlán	14	Cerro de Oro	10	Octubre	2023-10-28T00:00:00	2024-11-08T13:00:00	8	Radiación solar	311
180921	7	Sololá	719	Santiago Atitlán	14	Cerro de Oro	10	Octubre	2023-10-28T00:00:00	2024-11-08T14:00:00	2	Temperatura media	24.6
180922	7	Sololá	719	Santiago Atitlán	14	Cerro de Oro	10	Octubre	2023-10-28T00:00:00	2024-11-08T14:00:00	4	Temperatura máxima	26.2
180923	7	Sololá	719	Santiago Atitlán	14	Cerro de Oro	10	Octubre	2023-10-28T00:00:00	2024-11-08T14:00:00	3	Temperatura mínima	24.4
180924	7	Sololá	719	Santiago Atitlán	14	Cerro de Oro	10	Octubre	2023-10-28T00:00:00	2024-11-08T14:00:00	5	Humedad	62
180925	7	Sololá	719	Santiago Atitlán	14	Cerro de Oro	10	Octubre	2023-10-28T00:00:00	2024-11-08T14:00:00	6	Velocidad del viento	6.4
180926	7	Sololá	719	Santiago Atitlán	14	Cerro de Oro	10	Octubre	2023-10-28T00:00:00	2024-11-08T14:00:00	7	Dirección del viento	6.44
180927	7	Sololá	719	Santiago Atitlán	14	Cerro de Oro	10	Octubre	2023-10-28T00:00:00	2024-11-08T14:00:00	1	Precipitación	0
180928	7	Sololá	719	Santiago Atitlán	14	Cerro de Oro	10	Octubre	2023-10-28T00:00:00	2024-11-08T14:00:00	8	Radiación solar	280
180929	7	Sololá	719	Santiago Atitlán	14	Cerro de Oro	10	Octubre	2023-10-28T00:00:00	2024-11-08T15:00:00	2	Temperatura media	25.6
180930	7	Sololá	719	Santiago Atitlán	14	Cerro de Oro	10	Octubre	2023-10-28T00:00:00	2024-11-08T15:00:00	4	Temperatura máxima	25.9
180931	7	Sololá	719	Santiago Atitlán	14	Cerro de Oro	10	Octubre	2023-10-28T00:00:00	2024-11-08T15:00:00	3	Temperatura mínima	24.6
180932	7	Sololá	719	Santiago Atitlán	14	Cerro de Oro	10	Octubre	2023-10-28T00:00:00	2024-11-08T15:00:00	5	Humedad	59
180933	7	Sololá	719	Santiago Atitlán	14	Cerro de Oro	10	Octubre	2023-10-28T00:00:00	2024-11-08T15:00:00	6	Velocidad del viento	6.4
180934	7	Sololá	719	Santiago Atitlán	14	Cerro de Oro	10	Octubre	2023-10-28T00:00:00	2024-11-08T15:00:00	7	Dirección del viento	6.44
180935	7	Sololá	719	Santiago Atitlán	14	Cerro de Oro	10	Octubre	2023-10-28T00:00:00	2024-11-08T15:00:00	1	Precipitación	0
180936	7	Sololá	719	Santiago Atitlán	14	Cerro de Oro	10	Octubre	2023-10-28T00:00:00	2024-11-08T15:00:00	8	Radiación solar	153
180937	7	Sololá	719	Santiago Atitlán	14	Cerro de Oro	10	Octubre	2023-10-28T00:00:00	2024-11-08T16:00:00	2	Temperatura media	23.8
180938	7	Sololá	719	Santiago Atitlán	14	Cerro de Oro	10	Octubre	2023-10-28T00:00:00	2024-11-08T16:00:00	4	Temperatura máxima	25.6
180939	7	Sololá	719	Santiago Atitlán	14	Cerro de Oro	10	Octubre	2023-10-28T00:00:00	2024-11-08T16:00:00	3	Temperatura mínima	23.8
180940	7	Sololá	719	Santiago Atitlán	14	Cerro de Oro	10	Octubre	2023-10-28T00:00:00	2024-11-08T16:00:00	5	Humedad	65
180941	7	Sololá	719	Santiago Atitlán	14	Cerro de Oro	10	Octubre	2023-10-28T00:00:00	2024-11-08T16:00:00	6	Velocidad del viento	4.8
180942	7	Sololá	719	Santiago Atitlán	14	Cerro de Oro	10	Octubre	2023-10-28T00:00:00	2024-11-08T16:00:00	7	Dirección del viento	4.83
180943	7	Sololá	719	Santiago Atitlán	14	Cerro de Oro	10	Octubre	2023-10-28T00:00:00	2024-11-08T16:00:00	1	Precipitación	0
180944	7	Sololá	719	Santiago Atitlán	14	Cerro de Oro	10	Octubre	2023-10-28T00:00:00	2024-11-08T16:00:00	8	Radiación solar	227
180945	7	Sololá	719	Santiago Atitlán	14	Cerro de Oro	10	Octubre	2023-10-28T00:00:00	2024-11-08T17:00:00	2	Temperatura media	22.5
180946	7	Sololá	719	Santiago Atitlán	14	Cerro de Oro	10	Octubre	2023-10-28T00:00:00	2024-11-08T17:00:00	4	Temperatura máxima	23.8
180947	7	Sololá	719	Santiago Atitlán	14	Cerro de Oro	10	Octubre	2023-10-28T00:00:00	2024-11-08T17:00:00	3	Temperatura mínima	22.5
180948	7	Sololá	719	Santiago Atitlán	14	Cerro de Oro	10	Octubre	2023-10-28T00:00:00	2024-11-08T17:00:00	5	Humedad	66
180949	7	Sololá	719	Santiago Atitlán	14	Cerro de Oro	10	Octubre	2023-10-28T00:00:00	2024-11-08T17:00:00	6	Velocidad del viento	3.2
180950	7	Sololá	719	Santiago Atitlán	14	Cerro de Oro	10	Octubre	2023-10-28T00:00:00	2024-11-08T17:00:00	7	Dirección del viento	3.22
180951	7	Sololá	719	Santiago Atitlán	14	Cerro de Oro	10	Octubre	2023-10-28T00:00:00	2024-11-08T17:00:00	1	Precipitación	0
180952	7	Sololá	719	Santiago Atitlán	14	Cerro de Oro	10	Octubre	2023-10-28T00:00:00	2024-11-08T17:00:00	8	Radiación solar	79
180953	7	Sololá	719	Santiago Atitlán	14	Cerro de Oro	10	Octubre	2023-10-28T00:00:00	2024-11-08T18:00:00	2	Temperatura media	21.5
180954	7	Sololá	719	Santiago Atitlán	14	Cerro de Oro	10	Octubre	2023-10-28T00:00:00	2024-11-08T18:00:00	4	Temperatura máxima	22.6
180955	7	Sololá	719	Santiago Atitlán	14	Cerro de Oro	10	Octubre	2023-10-28T00:00:00	2024-11-08T18:00:00	3	Temperatura mínima	21.3
180956	7	Sololá	719	Santiago Atitlán	14	Cerro de Oro	10	Octubre	2023-10-28T00:00:00	2024-11-08T18:00:00	5	Humedad	70
180957	7	Sololá	719	Santiago Atitlán	14	Cerro de Oro	10	Octubre	2023-10-28T00:00:00	2024-11-08T18:00:00	6	Velocidad del viento	4.8
180958	7	Sololá	719	Santiago Atitlán	14	Cerro de Oro	10	Octubre	2023-10-28T00:00:00	2024-11-08T18:00:00	7	Dirección del viento	4.83
180959	7	Sololá	719	Santiago Atitlán	14	Cerro de Oro	10	Octubre	2023-10-28T00:00:00	2024-11-08T18:00:00	1	Precipitación	0
180960	7	Sololá	719	Santiago Atitlán	14	Cerro de Oro	10	Octubre	2023-10-28T00:00:00	2024-11-08T18:00:00	8	Radiación solar	28
180961	7	Sololá	719	Santiago Atitlán	14	Cerro de Oro	10	Octubre	2023-10-28T00:00:00	2024-11-08T19:00:00	2	Temperatura media	20.6
180962	7	Sololá	719	Santiago Atitlán	14	Cerro de Oro	10	Octubre	2023-10-28T00:00:00	2024-11-08T19:00:00	4	Temperatura máxima	21.4
180963	7	Sololá	719	Santiago Atitlán	14	Cerro de Oro	10	Octubre	2023-10-28T00:00:00	2024-11-08T19:00:00	3	Temperatura mínima	20.6
180964	7	Sololá	719	Santiago Atitlán	14	Cerro de Oro	10	Octubre	2023-10-28T00:00:00	2024-11-08T19:00:00	5	Humedad	73
180965	7	Sololá	719	Santiago Atitlán	14	Cerro de Oro	10	Octubre	2023-10-28T00:00:00	2024-11-08T19:00:00	6	Velocidad del viento	6.4
180966	7	Sololá	719	Santiago Atitlán	14	Cerro de Oro	10	Octubre	2023-10-28T00:00:00	2024-11-08T19:00:00	7	Dirección del viento	6.44
180967	7	Sololá	719	Santiago Atitlán	14	Cerro de Oro	10	Octubre	2023-10-28T00:00:00	2024-11-08T19:00:00	1	Precipitación	0
180968	7	Sololá	719	Santiago Atitlán	14	Cerro de Oro	10	Octubre	2023-10-28T00:00:00	2024-11-08T19:00:00	8	Radiación solar	0
180969	7	Sololá	719	Santiago Atitlán	14	Cerro de Oro	10	Octubre	2023-10-28T00:00:00	2024-11-08T20:00:00	2	Temperatura media	20.8
180970	7	Sololá	719	Santiago Atitlán	14	Cerro de Oro	10	Octubre	2023-10-28T00:00:00	2024-11-08T20:00:00	4	Temperatura máxima	20.8
180971	7	Sololá	719	Santiago Atitlán	14	Cerro de Oro	10	Octubre	2023-10-28T00:00:00	2024-11-08T20:00:00	3	Temperatura mínima	20.5
180972	7	Sololá	719	Santiago Atitlán	14	Cerro de Oro	10	Octubre	2023-10-28T00:00:00	2024-11-08T20:00:00	5	Humedad	73
180973	7	Sololá	719	Santiago Atitlán	14	Cerro de Oro	10	Octubre	2023-10-28T00:00:00	2024-11-08T20:00:00	6	Velocidad del viento	6.4
180974	7	Sololá	719	Santiago Atitlán	14	Cerro de Oro	10	Octubre	2023-10-28T00:00:00	2024-11-08T20:00:00	7	Dirección del viento	6.44
180975	7	Sololá	719	Santiago Atitlán	14	Cerro de Oro	10	Octubre	2023-10-28T00:00:00	2024-11-08T20:00:00	1	Precipitación	0
180976	7	Sololá	719	Santiago Atitlán	14	Cerro de Oro	10	Octubre	2023-10-28T00:00:00	2024-11-08T20:00:00	8	Radiación solar	0
180977	7	Sololá	719	Santiago Atitlán	14	Cerro de Oro	10	Octubre	2023-10-28T00:00:00	2024-11-08T21:00:00	2	Temperatura media	21
180978	7	Sololá	719	Santiago Atitlán	14	Cerro de Oro	10	Octubre	2023-10-28T00:00:00	2024-11-08T21:00:00	4	Temperatura máxima	21.1
180979	7	Sololá	719	Santiago Atitlán	14	Cerro de Oro	10	Octubre	2023-10-28T00:00:00	2024-11-08T21:00:00	3	Temperatura mínima	20.8
180980	7	Sololá	719	Santiago Atitlán	14	Cerro de Oro	10	Octubre	2023-10-28T00:00:00	2024-11-08T21:00:00	5	Humedad	73
180981	7	Sololá	719	Santiago Atitlán	14	Cerro de Oro	10	Octubre	2023-10-28T00:00:00	2024-11-08T21:00:00	6	Velocidad del viento	3.2
180982	7	Sololá	719	Santiago Atitlán	14	Cerro de Oro	10	Octubre	2023-10-28T00:00:00	2024-11-08T21:00:00	7	Dirección del viento	3.22
180983	7	Sololá	719	Santiago Atitlán	14	Cerro de Oro	10	Octubre	2023-10-28T00:00:00	2024-11-08T21:00:00	1	Precipitación	0
180984	7	Sololá	719	Santiago Atitlán	14	Cerro de Oro	10	Octubre	2023-10-28T00:00:00	2024-11-08T21:00:00	8	Radiación solar	0
180985	7	Sololá	719	Santiago Atitlán	14	Cerro de Oro	10	Octubre	2023-10-28T00:00:00	2024-11-08T22:00:00	2	Temperatura media	20.8
180986	7	Sololá	719	Santiago Atitlán	14	Cerro de Oro	10	Octubre	2023-10-28T00:00:00	2024-11-08T22:00:00	4	Temperatura máxima	21.1
180987	7	Sololá	719	Santiago Atitlán	14	Cerro de Oro	10	Octubre	2023-10-28T00:00:00	2024-11-08T22:00:00	3	Temperatura mínima	20.8
180988	7	Sololá	719	Santiago Atitlán	14	Cerro de Oro	10	Octubre	2023-10-28T00:00:00	2024-11-08T22:00:00	5	Humedad	73
180989	7	Sololá	719	Santiago Atitlán	14	Cerro de Oro	10	Octubre	2023-10-28T00:00:00	2024-11-08T22:00:00	6	Velocidad del viento	4.8
180990	7	Sololá	719	Santiago Atitlán	14	Cerro de Oro	10	Octubre	2023-10-28T00:00:00	2024-11-08T22:00:00	7	Dirección del viento	4.83
180991	7	Sololá	719	Santiago Atitlán	14	Cerro de Oro	10	Octubre	2023-10-28T00:00:00	2024-11-08T22:00:00	1	Precipitación	0
180992	7	Sololá	719	Santiago Atitlán	14	Cerro de Oro	10	Octubre	2023-10-28T00:00:00	2024-11-08T22:00:00	8	Radiación solar	0
180993	7	Sololá	719	Santiago Atitlán	14	Cerro de Oro	10	Octubre	2023-10-28T00:00:00	2024-11-08T23:00:00	2	Temperatura media	20.7
180994	7	Sololá	719	Santiago Atitlán	14	Cerro de Oro	10	Octubre	2023-10-28T00:00:00	2024-11-08T23:00:00	4	Temperatura máxima	20.8
180995	7	Sololá	719	Santiago Atitlán	14	Cerro de Oro	10	Octubre	2023-10-28T00:00:00	2024-11-08T23:00:00	3	Temperatura mínima	20.6
180996	7	Sololá	719	Santiago Atitlán	14	Cerro de Oro	10	Octubre	2023-10-28T00:00:00	2024-11-08T23:00:00	5	Humedad	73
180997	7	Sololá	719	Santiago Atitlán	14	Cerro de Oro	10	Octubre	2023-10-28T00:00:00	2024-11-08T23:00:00	6	Velocidad del viento	4.8
180998	7	Sololá	719	Santiago Atitlán	14	Cerro de Oro	10	Octubre	2023-10-28T00:00:00	2024-11-08T23:00:00	7	Dirección del viento	4.83
180999	7	Sololá	719	Santiago Atitlán	14	Cerro de Oro	10	Octubre	2023-10-28T00:00:00	2024-11-08T23:00:00	1	Precipitación	0
181000	7	Sololá	719	Santiago Atitlán	14	Cerro de Oro	10	Octubre	2023-10-28T00:00:00	2024-11-08T23:00:00	8	Radiación solar	0
181001	7	Sololá	719	Santiago Atitlán	14	Cerro de Oro	10	Octubre	2023-10-29T00:00:00	2024-11-08T00:00:00	2	Temperatura media	20.3
181002	7	Sololá	719	Santiago Atitlán	14	Cerro de Oro	10	Octubre	2023-10-29T00:00:00	2024-11-08T00:00:00	4	Temperatura máxima	20.8
181003	7	Sololá	719	Santiago Atitlán	14	Cerro de Oro	10	Octubre	2023-10-29T00:00:00	2024-11-08T00:00:00	3	Temperatura mínima	20.3
181004	7	Sololá	719	Santiago Atitlán	14	Cerro de Oro	10	Octubre	2023-10-29T00:00:00	2024-11-08T00:00:00	5	Humedad	72
181005	7	Sololá	719	Santiago Atitlán	14	Cerro de Oro	10	Octubre	2023-10-29T00:00:00	2024-11-08T00:00:00	6	Velocidad del viento	3.2
181006	7	Sololá	719	Santiago Atitlán	14	Cerro de Oro	10	Octubre	2023-10-29T00:00:00	2024-11-08T00:00:00	7	Dirección del viento	3.22
181007	7	Sololá	719	Santiago Atitlán	14	Cerro de Oro	10	Octubre	2023-10-29T00:00:00	2024-11-08T00:00:00	1	Precipitación	0
181008	7	Sololá	719	Santiago Atitlán	14	Cerro de Oro	10	Octubre	2023-10-29T00:00:00	2024-11-08T00:00:00	8	Radiación solar	0
181009	7	Sololá	719	Santiago Atitlán	14	Cerro de Oro	10	Octubre	2023-10-29T00:00:00	2024-11-08T01:00:00	2	Temperatura media	19.7
181010	7	Sololá	719	Santiago Atitlán	14	Cerro de Oro	10	Octubre	2023-10-29T00:00:00	2024-11-08T01:00:00	4	Temperatura máxima	20.3
181011	7	Sololá	719	Santiago Atitlán	14	Cerro de Oro	10	Octubre	2023-10-29T00:00:00	2024-11-08T01:00:00	3	Temperatura mínima	19.6
181012	7	Sololá	719	Santiago Atitlán	14	Cerro de Oro	10	Octubre	2023-10-29T00:00:00	2024-11-08T01:00:00	5	Humedad	73
181013	7	Sololá	719	Santiago Atitlán	14	Cerro de Oro	10	Octubre	2023-10-29T00:00:00	2024-11-08T01:00:00	6	Velocidad del viento	8
181014	7	Sololá	719	Santiago Atitlán	14	Cerro de Oro	10	Octubre	2023-10-29T00:00:00	2024-11-08T01:00:00	7	Dirección del viento	8.05
181015	7	Sololá	719	Santiago Atitlán	14	Cerro de Oro	10	Octubre	2023-10-29T00:00:00	2024-11-08T01:00:00	1	Precipitación	0
181016	7	Sololá	719	Santiago Atitlán	14	Cerro de Oro	10	Octubre	2023-10-29T00:00:00	2024-11-08T01:00:00	8	Radiación solar	0
181017	7	Sololá	719	Santiago Atitlán	14	Cerro de Oro	10	Octubre	2023-10-29T00:00:00	2024-11-08T02:00:00	2	Temperatura media	19.6
181018	7	Sololá	719	Santiago Atitlán	14	Cerro de Oro	10	Octubre	2023-10-29T00:00:00	2024-11-08T02:00:00	4	Temperatura máxima	19.8
181019	7	Sololá	719	Santiago Atitlán	14	Cerro de Oro	10	Octubre	2023-10-29T00:00:00	2024-11-08T02:00:00	3	Temperatura mínima	19.3
181020	7	Sololá	719	Santiago Atitlán	14	Cerro de Oro	10	Octubre	2023-10-29T00:00:00	2024-11-08T02:00:00	5	Humedad	73
181021	7	Sololá	719	Santiago Atitlán	14	Cerro de Oro	10	Octubre	2023-10-29T00:00:00	2024-11-08T02:00:00	6	Velocidad del viento	9.7
181022	7	Sololá	719	Santiago Atitlán	14	Cerro de Oro	10	Octubre	2023-10-29T00:00:00	2024-11-08T02:00:00	7	Dirección del viento	9.66
181023	7	Sololá	719	Santiago Atitlán	14	Cerro de Oro	10	Octubre	2023-10-29T00:00:00	2024-11-08T02:00:00	1	Precipitación	0
181024	7	Sololá	719	Santiago Atitlán	14	Cerro de Oro	10	Octubre	2023-10-29T00:00:00	2024-11-08T02:00:00	8	Radiación solar	0
181025	7	Sololá	719	Santiago Atitlán	14	Cerro de Oro	10	Octubre	2023-10-29T00:00:00	2024-11-08T03:00:00	2	Temperatura media	18.9
181026	7	Sololá	719	Santiago Atitlán	14	Cerro de Oro	10	Octubre	2023-10-29T00:00:00	2024-11-08T03:00:00	4	Temperatura máxima	19.6
181027	7	Sololá	719	Santiago Atitlán	14	Cerro de Oro	10	Octubre	2023-10-29T00:00:00	2024-11-08T03:00:00	3	Temperatura mínima	18.8
181028	7	Sololá	719	Santiago Atitlán	14	Cerro de Oro	10	Octubre	2023-10-29T00:00:00	2024-11-08T03:00:00	5	Humedad	75
181029	7	Sololá	719	Santiago Atitlán	14	Cerro de Oro	10	Octubre	2023-10-29T00:00:00	2024-11-08T03:00:00	6	Velocidad del viento	6.4
181030	7	Sololá	719	Santiago Atitlán	14	Cerro de Oro	10	Octubre	2023-10-29T00:00:00	2024-11-08T03:00:00	7	Dirección del viento	6.44
181031	7	Sololá	719	Santiago Atitlán	14	Cerro de Oro	10	Octubre	2023-10-29T00:00:00	2024-11-08T03:00:00	1	Precipitación	0
181032	7	Sololá	719	Santiago Atitlán	14	Cerro de Oro	10	Octubre	2023-10-29T00:00:00	2024-11-08T03:00:00	8	Radiación solar	0
181033	7	Sololá	719	Santiago Atitlán	14	Cerro de Oro	10	Octubre	2023-10-29T00:00:00	2024-11-08T04:00:00	2	Temperatura media	18.6
181034	7	Sololá	719	Santiago Atitlán	14	Cerro de Oro	10	Octubre	2023-10-29T00:00:00	2024-11-08T04:00:00	4	Temperatura máxima	19
181035	7	Sololá	719	Santiago Atitlán	14	Cerro de Oro	10	Octubre	2023-10-29T00:00:00	2024-11-08T04:00:00	3	Temperatura mínima	18.6
181036	7	Sololá	719	Santiago Atitlán	14	Cerro de Oro	10	Octubre	2023-10-29T00:00:00	2024-11-08T04:00:00	5	Humedad	77
181037	7	Sololá	719	Santiago Atitlán	14	Cerro de Oro	10	Octubre	2023-10-29T00:00:00	2024-11-08T04:00:00	6	Velocidad del viento	4.8
181038	7	Sololá	719	Santiago Atitlán	14	Cerro de Oro	10	Octubre	2023-10-29T00:00:00	2024-11-08T04:00:00	7	Dirección del viento	4.83
181039	7	Sololá	719	Santiago Atitlán	14	Cerro de Oro	10	Octubre	2023-10-29T00:00:00	2024-11-08T04:00:00	1	Precipitación	0
181040	7	Sololá	719	Santiago Atitlán	14	Cerro de Oro	10	Octubre	2023-10-29T00:00:00	2024-11-08T04:00:00	8	Radiación solar	0
181041	7	Sololá	719	Santiago Atitlán	14	Cerro de Oro	10	Octubre	2023-10-29T00:00:00	2024-11-08T05:00:00	2	Temperatura media	19
181042	7	Sololá	719	Santiago Atitlán	14	Cerro de Oro	10	Octubre	2023-10-29T00:00:00	2024-11-08T05:00:00	4	Temperatura máxima	19.1
181043	7	Sololá	719	Santiago Atitlán	14	Cerro de Oro	10	Octubre	2023-10-29T00:00:00	2024-11-08T05:00:00	3	Temperatura mínima	18.6
181044	7	Sololá	719	Santiago Atitlán	14	Cerro de Oro	10	Octubre	2023-10-29T00:00:00	2024-11-08T05:00:00	5	Humedad	76
181045	7	Sololá	719	Santiago Atitlán	14	Cerro de Oro	10	Octubre	2023-10-29T00:00:00	2024-11-08T05:00:00	6	Velocidad del viento	6.4
181046	7	Sololá	719	Santiago Atitlán	14	Cerro de Oro	10	Octubre	2023-10-29T00:00:00	2024-11-08T05:00:00	7	Dirección del viento	6.44
181047	7	Sololá	719	Santiago Atitlán	14	Cerro de Oro	10	Octubre	2023-10-29T00:00:00	2024-11-08T05:00:00	1	Precipitación	0
181048	7	Sololá	719	Santiago Atitlán	14	Cerro de Oro	10	Octubre	2023-10-29T00:00:00	2024-11-08T05:00:00	8	Radiación solar	0
181049	7	Sololá	719	Santiago Atitlán	14	Cerro de Oro	10	Octubre	2023-10-29T00:00:00	2024-11-08T06:00:00	2	Temperatura media	19.4
181050	7	Sololá	719	Santiago Atitlán	14	Cerro de Oro	10	Octubre	2023-10-29T00:00:00	2024-11-08T06:00:00	4	Temperatura máxima	19.4
181051	7	Sololá	719	Santiago Atitlán	14	Cerro de Oro	10	Octubre	2023-10-29T00:00:00	2024-11-08T06:00:00	3	Temperatura mínima	18.8
181052	7	Sololá	719	Santiago Atitlán	14	Cerro de Oro	10	Octubre	2023-10-29T00:00:00	2024-11-08T06:00:00	5	Humedad	74
181053	7	Sololá	719	Santiago Atitlán	14	Cerro de Oro	10	Octubre	2023-10-29T00:00:00	2024-11-08T06:00:00	6	Velocidad del viento	4.8
181054	7	Sololá	719	Santiago Atitlán	14	Cerro de Oro	10	Octubre	2023-10-29T00:00:00	2024-11-08T06:00:00	7	Dirección del viento	4.83
181055	7	Sololá	719	Santiago Atitlán	14	Cerro de Oro	10	Octubre	2023-10-29T00:00:00	2024-11-08T06:00:00	1	Precipitación	0
181056	7	Sololá	719	Santiago Atitlán	14	Cerro de Oro	10	Octubre	2023-10-29T00:00:00	2024-11-08T06:00:00	8	Radiación solar	1
181057	7	Sololá	719	Santiago Atitlán	14	Cerro de Oro	10	Octubre	2023-10-29T00:00:00	2024-11-08T07:00:00	2	Temperatura media	19.5
181058	7	Sololá	719	Santiago Atitlán	14	Cerro de Oro	10	Octubre	2023-10-29T00:00:00	2024-11-08T07:00:00	4	Temperatura máxima	19.5
181059	7	Sololá	719	Santiago Atitlán	14	Cerro de Oro	10	Octubre	2023-10-29T00:00:00	2024-11-08T07:00:00	3	Temperatura mínima	19.1
181060	7	Sololá	719	Santiago Atitlán	14	Cerro de Oro	10	Octubre	2023-10-29T00:00:00	2024-11-08T07:00:00	5	Humedad	74
181061	7	Sololá	719	Santiago Atitlán	14	Cerro de Oro	10	Octubre	2023-10-29T00:00:00	2024-11-08T07:00:00	6	Velocidad del viento	4.8
181062	7	Sololá	719	Santiago Atitlán	14	Cerro de Oro	10	Octubre	2023-10-29T00:00:00	2024-11-08T07:00:00	7	Dirección del viento	4.83
181063	7	Sololá	719	Santiago Atitlán	14	Cerro de Oro	10	Octubre	2023-10-29T00:00:00	2024-11-08T07:00:00	1	Precipitación	0
181064	7	Sololá	719	Santiago Atitlán	14	Cerro de Oro	10	Octubre	2023-10-29T00:00:00	2024-11-08T07:00:00	8	Radiación solar	17
181065	7	Sololá	719	Santiago Atitlán	14	Cerro de Oro	10	Octubre	2023-10-29T00:00:00	2024-11-08T08:00:00	2	Temperatura media	20.4
181066	7	Sololá	719	Santiago Atitlán	14	Cerro de Oro	10	Octubre	2023-10-29T00:00:00	2024-11-08T08:00:00	4	Temperatura máxima	20.4
181067	7	Sololá	719	Santiago Atitlán	14	Cerro de Oro	10	Octubre	2023-10-29T00:00:00	2024-11-08T08:00:00	3	Temperatura mínima	19.4
181068	7	Sololá	719	Santiago Atitlán	14	Cerro de Oro	10	Octubre	2023-10-29T00:00:00	2024-11-08T08:00:00	5	Humedad	72
181069	7	Sololá	719	Santiago Atitlán	14	Cerro de Oro	10	Octubre	2023-10-29T00:00:00	2024-11-08T08:00:00	6	Velocidad del viento	1.6
181070	7	Sololá	719	Santiago Atitlán	14	Cerro de Oro	10	Octubre	2023-10-29T00:00:00	2024-11-08T08:00:00	7	Dirección del viento	1.61
181071	7	Sololá	719	Santiago Atitlán	14	Cerro de Oro	10	Octubre	2023-10-29T00:00:00	2024-11-08T08:00:00	1	Precipitación	0
181072	7	Sololá	719	Santiago Atitlán	14	Cerro de Oro	10	Octubre	2023-10-29T00:00:00	2024-11-08T08:00:00	8	Radiación solar	65
181073	7	Sololá	719	Santiago Atitlán	14	Cerro de Oro	10	Octubre	2023-10-29T00:00:00	2024-11-08T09:00:00	2	Temperatura media	23.2
181074	7	Sololá	719	Santiago Atitlán	14	Cerro de Oro	10	Octubre	2023-10-29T00:00:00	2024-11-08T09:00:00	4	Temperatura máxima	23.2
181075	7	Sololá	719	Santiago Atitlán	14	Cerro de Oro	10	Octubre	2023-10-29T00:00:00	2024-11-08T09:00:00	3	Temperatura mínima	20.4
181076	7	Sololá	719	Santiago Atitlán	14	Cerro de Oro	10	Octubre	2023-10-29T00:00:00	2024-11-08T09:00:00	5	Humedad	66
181077	7	Sololá	719	Santiago Atitlán	14	Cerro de Oro	10	Octubre	2023-10-29T00:00:00	2024-11-08T09:00:00	6	Velocidad del viento	3.2
181078	7	Sololá	719	Santiago Atitlán	14	Cerro de Oro	10	Octubre	2023-10-29T00:00:00	2024-11-08T09:00:00	7	Dirección del viento	3.22
181079	7	Sololá	719	Santiago Atitlán	14	Cerro de Oro	10	Octubre	2023-10-29T00:00:00	2024-11-08T09:00:00	1	Precipitación	0
181080	7	Sololá	719	Santiago Atitlán	14	Cerro de Oro	10	Octubre	2023-10-29T00:00:00	2024-11-08T09:00:00	8	Radiación solar	57
181081	7	Sololá	719	Santiago Atitlán	14	Cerro de Oro	10	Octubre	2023-10-29T00:00:00	2024-11-08T10:00:00	2	Temperatura media	24.6
181082	7	Sololá	719	Santiago Atitlán	14	Cerro de Oro	10	Octubre	2023-10-29T00:00:00	2024-11-08T10:00:00	4	Temperatura máxima	25.2
181083	7	Sololá	719	Santiago Atitlán	14	Cerro de Oro	10	Octubre	2023-10-29T00:00:00	2024-11-08T10:00:00	3	Temperatura mínima	23.1
181084	7	Sololá	719	Santiago Atitlán	14	Cerro de Oro	10	Octubre	2023-10-29T00:00:00	2024-11-08T10:00:00	5	Humedad	60
181085	7	Sololá	719	Santiago Atitlán	14	Cerro de Oro	10	Octubre	2023-10-29T00:00:00	2024-11-08T10:00:00	6	Velocidad del viento	4.8
181086	7	Sololá	719	Santiago Atitlán	14	Cerro de Oro	10	Octubre	2023-10-29T00:00:00	2024-11-08T10:00:00	7	Dirección del viento	4.83
181087	7	Sololá	719	Santiago Atitlán	14	Cerro de Oro	10	Octubre	2023-10-29T00:00:00	2024-11-08T10:00:00	1	Precipitación	0
181088	7	Sololá	719	Santiago Atitlán	14	Cerro de Oro	10	Octubre	2023-10-29T00:00:00	2024-11-08T10:00:00	8	Radiación solar	367
181089	7	Sololá	719	Santiago Atitlán	14	Cerro de Oro	10	Octubre	2023-10-29T00:00:00	2024-11-08T11:00:00	2	Temperatura media	26.2
181090	7	Sololá	719	Santiago Atitlán	14	Cerro de Oro	10	Octubre	2023-10-29T00:00:00	2024-11-08T11:00:00	4	Temperatura máxima	26.7
181091	7	Sololá	719	Santiago Atitlán	14	Cerro de Oro	10	Octubre	2023-10-29T00:00:00	2024-11-08T11:00:00	3	Temperatura mínima	24.6
181092	7	Sololá	719	Santiago Atitlán	14	Cerro de Oro	10	Octubre	2023-10-29T00:00:00	2024-11-08T11:00:00	5	Humedad	56
181093	7	Sololá	719	Santiago Atitlán	14	Cerro de Oro	10	Octubre	2023-10-29T00:00:00	2024-11-08T11:00:00	6	Velocidad del viento	3.2
181094	7	Sololá	719	Santiago Atitlán	14	Cerro de Oro	10	Octubre	2023-10-29T00:00:00	2024-11-08T11:00:00	7	Dirección del viento	3.22
181095	7	Sololá	719	Santiago Atitlán	14	Cerro de Oro	10	Octubre	2023-10-29T00:00:00	2024-11-08T11:00:00	1	Precipitación	0
181096	7	Sololá	719	Santiago Atitlán	14	Cerro de Oro	10	Octubre	2023-10-29T00:00:00	2024-11-08T11:00:00	8	Radiación solar	618
181097	7	Sololá	719	Santiago Atitlán	14	Cerro de Oro	10	Octubre	2023-10-29T00:00:00	2024-11-08T12:00:00	2	Temperatura media	25.5
181098	7	Sololá	719	Santiago Atitlán	14	Cerro de Oro	10	Octubre	2023-10-29T00:00:00	2024-11-08T12:00:00	4	Temperatura máxima	26.8
181099	7	Sololá	719	Santiago Atitlán	14	Cerro de Oro	10	Octubre	2023-10-29T00:00:00	2024-11-08T12:00:00	3	Temperatura mínima	25.2
181100	7	Sololá	719	Santiago Atitlán	14	Cerro de Oro	10	Octubre	2023-10-29T00:00:00	2024-11-08T12:00:00	5	Humedad	58
181101	7	Sololá	719	Santiago Atitlán	14	Cerro de Oro	10	Octubre	2023-10-29T00:00:00	2024-11-08T12:00:00	6	Velocidad del viento	4.8
181102	7	Sololá	719	Santiago Atitlán	14	Cerro de Oro	10	Octubre	2023-10-29T00:00:00	2024-11-08T12:00:00	7	Dirección del viento	4.83
181103	7	Sololá	719	Santiago Atitlán	14	Cerro de Oro	10	Octubre	2023-10-29T00:00:00	2024-11-08T12:00:00	1	Precipitación	0
181104	7	Sololá	719	Santiago Atitlán	14	Cerro de Oro	10	Octubre	2023-10-29T00:00:00	2024-11-08T12:00:00	8	Radiación solar	839
181105	7	Sololá	719	Santiago Atitlán	14	Cerro de Oro	10	Octubre	2023-10-29T00:00:00	2024-11-08T13:00:00	2	Temperatura media	24.7
181106	7	Sololá	719	Santiago Atitlán	14	Cerro de Oro	10	Octubre	2023-10-29T00:00:00	2024-11-08T13:00:00	4	Temperatura máxima	26.1
181107	7	Sololá	719	Santiago Atitlán	14	Cerro de Oro	10	Octubre	2023-10-29T00:00:00	2024-11-08T13:00:00	3	Temperatura mínima	24.7
181108	7	Sololá	719	Santiago Atitlán	14	Cerro de Oro	10	Octubre	2023-10-29T00:00:00	2024-11-08T13:00:00	5	Humedad	64
181109	7	Sololá	719	Santiago Atitlán	14	Cerro de Oro	10	Octubre	2023-10-29T00:00:00	2024-11-08T13:00:00	6	Velocidad del viento	8
181110	7	Sololá	719	Santiago Atitlán	14	Cerro de Oro	10	Octubre	2023-10-29T00:00:00	2024-11-08T13:00:00	7	Dirección del viento	8.05
181111	7	Sololá	719	Santiago Atitlán	14	Cerro de Oro	10	Octubre	2023-10-29T00:00:00	2024-11-08T13:00:00	1	Precipitación	0
181112	7	Sololá	719	Santiago Atitlán	14	Cerro de Oro	10	Octubre	2023-10-29T00:00:00	2024-11-08T13:00:00	8	Radiación solar	243
181113	7	Sololá	719	Santiago Atitlán	14	Cerro de Oro	10	Octubre	2023-10-29T00:00:00	2024-11-08T14:00:00	2	Temperatura media	23.1
181114	7	Sololá	719	Santiago Atitlán	14	Cerro de Oro	10	Octubre	2023-10-29T00:00:00	2024-11-08T14:00:00	4	Temperatura máxima	24.7
181115	7	Sololá	719	Santiago Atitlán	14	Cerro de Oro	10	Octubre	2023-10-29T00:00:00	2024-11-08T14:00:00	3	Temperatura mínima	23
181116	7	Sololá	719	Santiago Atitlán	14	Cerro de Oro	10	Octubre	2023-10-29T00:00:00	2024-11-08T14:00:00	5	Humedad	69
181117	7	Sololá	719	Santiago Atitlán	14	Cerro de Oro	10	Octubre	2023-10-29T00:00:00	2024-11-08T14:00:00	6	Velocidad del viento	6.4
181118	7	Sololá	719	Santiago Atitlán	14	Cerro de Oro	10	Octubre	2023-10-29T00:00:00	2024-11-08T14:00:00	7	Dirección del viento	6.44
181119	7	Sololá	719	Santiago Atitlán	14	Cerro de Oro	10	Octubre	2023-10-29T00:00:00	2024-11-08T14:00:00	1	Precipitación	0
181120	7	Sololá	719	Santiago Atitlán	14	Cerro de Oro	10	Octubre	2023-10-29T00:00:00	2024-11-08T14:00:00	8	Radiación solar	275
181121	7	Sololá	719	Santiago Atitlán	14	Cerro de Oro	10	Octubre	2023-10-29T00:00:00	2024-11-08T15:00:00	2	Temperatura media	23
181122	7	Sololá	719	Santiago Atitlán	14	Cerro de Oro	10	Octubre	2023-10-29T00:00:00	2024-11-08T15:00:00	4	Temperatura máxima	23.4
181123	7	Sololá	719	Santiago Atitlán	14	Cerro de Oro	10	Octubre	2023-10-29T00:00:00	2024-11-08T15:00:00	3	Temperatura mínima	22.9
181124	7	Sololá	719	Santiago Atitlán	14	Cerro de Oro	10	Octubre	2023-10-29T00:00:00	2024-11-08T15:00:00	5	Humedad	68
181125	7	Sololá	719	Santiago Atitlán	14	Cerro de Oro	10	Octubre	2023-10-29T00:00:00	2024-11-08T15:00:00	6	Velocidad del viento	6.4
181126	7	Sololá	719	Santiago Atitlán	14	Cerro de Oro	10	Octubre	2023-10-29T00:00:00	2024-11-08T15:00:00	7	Dirección del viento	6.44
181127	7	Sololá	719	Santiago Atitlán	14	Cerro de Oro	10	Octubre	2023-10-29T00:00:00	2024-11-08T15:00:00	1	Precipitación	0
181128	7	Sololá	719	Santiago Atitlán	14	Cerro de Oro	10	Octubre	2023-10-29T00:00:00	2024-11-08T15:00:00	8	Radiación solar	296
181129	7	Sololá	719	Santiago Atitlán	14	Cerro de Oro	10	Octubre	2023-10-29T00:00:00	2024-11-08T16:00:00	2	Temperatura media	21.8
181130	7	Sololá	719	Santiago Atitlán	14	Cerro de Oro	10	Octubre	2023-10-29T00:00:00	2024-11-08T16:00:00	4	Temperatura máxima	23.1
181131	7	Sololá	719	Santiago Atitlán	14	Cerro de Oro	10	Octubre	2023-10-29T00:00:00	2024-11-08T16:00:00	3	Temperatura mínima	21.8
181132	7	Sololá	719	Santiago Atitlán	14	Cerro de Oro	10	Octubre	2023-10-29T00:00:00	2024-11-08T16:00:00	5	Humedad	71
181133	7	Sololá	719	Santiago Atitlán	14	Cerro de Oro	10	Octubre	2023-10-29T00:00:00	2024-11-08T16:00:00	6	Velocidad del viento	8
181134	7	Sololá	719	Santiago Atitlán	14	Cerro de Oro	10	Octubre	2023-10-29T00:00:00	2024-11-08T16:00:00	7	Dirección del viento	8.05
181135	7	Sololá	719	Santiago Atitlán	14	Cerro de Oro	10	Octubre	2023-10-29T00:00:00	2024-11-08T16:00:00	1	Precipitación	0
181136	7	Sololá	719	Santiago Atitlán	14	Cerro de Oro	10	Octubre	2023-10-29T00:00:00	2024-11-08T16:00:00	8	Radiación solar	129
181137	7	Sololá	719	Santiago Atitlán	14	Cerro de Oro	10	Octubre	2023-10-29T00:00:00	2024-11-08T17:00:00	2	Temperatura media	21.3
181138	7	Sololá	719	Santiago Atitlán	14	Cerro de Oro	10	Octubre	2023-10-29T00:00:00	2024-11-08T17:00:00	4	Temperatura máxima	21.8
181139	7	Sololá	719	Santiago Atitlán	14	Cerro de Oro	10	Octubre	2023-10-29T00:00:00	2024-11-08T17:00:00	3	Temperatura mínima	21.3
181140	7	Sololá	719	Santiago Atitlán	14	Cerro de Oro	10	Octubre	2023-10-29T00:00:00	2024-11-08T17:00:00	5	Humedad	72
181141	7	Sololá	719	Santiago Atitlán	14	Cerro de Oro	10	Octubre	2023-10-29T00:00:00	2024-11-08T17:00:00	6	Velocidad del viento	6.4
181142	7	Sololá	719	Santiago Atitlán	14	Cerro de Oro	10	Octubre	2023-10-29T00:00:00	2024-11-08T17:00:00	7	Dirección del viento	6.44
181143	7	Sololá	719	Santiago Atitlán	14	Cerro de Oro	10	Octubre	2023-10-29T00:00:00	2024-11-08T17:00:00	1	Precipitación	0
181144	7	Sololá	719	Santiago Atitlán	14	Cerro de Oro	10	Octubre	2023-10-29T00:00:00	2024-11-08T17:00:00	8	Radiación solar	43
181145	7	Sololá	719	Santiago Atitlán	14	Cerro de Oro	10	Octubre	2023-10-29T00:00:00	2024-11-08T18:00:00	2	Temperatura media	20.7
181146	7	Sololá	719	Santiago Atitlán	14	Cerro de Oro	10	Octubre	2023-10-29T00:00:00	2024-11-08T18:00:00	4	Temperatura máxima	21.3
181147	7	Sololá	719	Santiago Atitlán	14	Cerro de Oro	10	Octubre	2023-10-29T00:00:00	2024-11-08T18:00:00	3	Temperatura mínima	20.7
181148	7	Sololá	719	Santiago Atitlán	14	Cerro de Oro	10	Octubre	2023-10-29T00:00:00	2024-11-08T18:00:00	5	Humedad	75
181149	7	Sololá	719	Santiago Atitlán	14	Cerro de Oro	10	Octubre	2023-10-29T00:00:00	2024-11-08T18:00:00	6	Velocidad del viento	3.2
181150	7	Sololá	719	Santiago Atitlán	14	Cerro de Oro	10	Octubre	2023-10-29T00:00:00	2024-11-08T18:00:00	7	Dirección del viento	3.22
181151	7	Sololá	719	Santiago Atitlán	14	Cerro de Oro	10	Octubre	2023-10-29T00:00:00	2024-11-08T18:00:00	1	Precipitación	0
181152	7	Sololá	719	Santiago Atitlán	14	Cerro de Oro	10	Octubre	2023-10-29T00:00:00	2024-11-08T18:00:00	8	Radiación solar	2
181153	7	Sololá	719	Santiago Atitlán	14	Cerro de Oro	10	Octubre	2023-10-29T00:00:00	2024-11-08T19:00:00	2	Temperatura media	19.8
181154	7	Sololá	719	Santiago Atitlán	14	Cerro de Oro	10	Octubre	2023-10-29T00:00:00	2024-11-08T19:00:00	4	Temperatura máxima	20.7
181155	7	Sololá	719	Santiago Atitlán	14	Cerro de Oro	10	Octubre	2023-10-29T00:00:00	2024-11-08T19:00:00	3	Temperatura mínima	19.8
181156	7	Sololá	719	Santiago Atitlán	14	Cerro de Oro	10	Octubre	2023-10-29T00:00:00	2024-11-08T19:00:00	5	Humedad	80
181157	7	Sololá	719	Santiago Atitlán	14	Cerro de Oro	10	Octubre	2023-10-29T00:00:00	2024-11-08T19:00:00	6	Velocidad del viento	0
181158	7	Sololá	719	Santiago Atitlán	14	Cerro de Oro	10	Octubre	2023-10-29T00:00:00	2024-11-08T19:00:00	7	Dirección del viento	0
181159	7	Sololá	719	Santiago Atitlán	14	Cerro de Oro	10	Octubre	2023-10-29T00:00:00	2024-11-08T19:00:00	1	Precipitación	0
181160	7	Sololá	719	Santiago Atitlán	14	Cerro de Oro	10	Octubre	2023-10-29T00:00:00	2024-11-08T19:00:00	8	Radiación solar	0
181161	7	Sololá	719	Santiago Atitlán	14	Cerro de Oro	10	Octubre	2023-10-29T00:00:00	2024-11-08T20:00:00	2	Temperatura media	20.8
181162	7	Sololá	719	Santiago Atitlán	14	Cerro de Oro	10	Octubre	2023-10-29T00:00:00	2024-11-08T20:00:00	4	Temperatura máxima	20.9
181163	7	Sololá	719	Santiago Atitlán	14	Cerro de Oro	10	Octubre	2023-10-29T00:00:00	2024-11-08T20:00:00	3	Temperatura mínima	19.5
181164	7	Sololá	719	Santiago Atitlán	14	Cerro de Oro	10	Octubre	2023-10-29T00:00:00	2024-11-08T20:00:00	5	Humedad	74
181165	7	Sololá	719	Santiago Atitlán	14	Cerro de Oro	10	Octubre	2023-10-29T00:00:00	2024-11-08T20:00:00	6	Velocidad del viento	1.6
181166	7	Sololá	719	Santiago Atitlán	14	Cerro de Oro	10	Octubre	2023-10-29T00:00:00	2024-11-08T20:00:00	7	Dirección del viento	1.61
181167	7	Sololá	719	Santiago Atitlán	14	Cerro de Oro	10	Octubre	2023-10-29T00:00:00	2024-11-08T20:00:00	1	Precipitación	0
181168	7	Sololá	719	Santiago Atitlán	14	Cerro de Oro	10	Octubre	2023-10-29T00:00:00	2024-11-08T20:00:00	8	Radiación solar	0
181169	7	Sololá	719	Santiago Atitlán	14	Cerro de Oro	10	Octubre	2023-10-29T00:00:00	2024-11-08T21:00:00	2	Temperatura media	19.3
181170	7	Sololá	719	Santiago Atitlán	14	Cerro de Oro	10	Octubre	2023-10-29T00:00:00	2024-11-08T21:00:00	4	Temperatura máxima	20.9
181171	7	Sololá	719	Santiago Atitlán	14	Cerro de Oro	10	Octubre	2023-10-29T00:00:00	2024-11-08T21:00:00	3	Temperatura mínima	19.3
181172	7	Sololá	719	Santiago Atitlán	14	Cerro de Oro	10	Octubre	2023-10-29T00:00:00	2024-11-08T21:00:00	5	Humedad	81
181173	7	Sololá	719	Santiago Atitlán	14	Cerro de Oro	10	Octubre	2023-10-29T00:00:00	2024-11-08T21:00:00	6	Velocidad del viento	0
181174	7	Sololá	719	Santiago Atitlán	14	Cerro de Oro	10	Octubre	2023-10-29T00:00:00	2024-11-08T21:00:00	7	Dirección del viento	0
181175	7	Sololá	719	Santiago Atitlán	14	Cerro de Oro	10	Octubre	2023-10-29T00:00:00	2024-11-08T21:00:00	1	Precipitación	0
181176	7	Sololá	719	Santiago Atitlán	14	Cerro de Oro	10	Octubre	2023-10-29T00:00:00	2024-11-08T21:00:00	8	Radiación solar	0
181177	7	Sololá	719	Santiago Atitlán	14	Cerro de Oro	10	Octubre	2023-10-29T00:00:00	2024-11-08T22:00:00	2	Temperatura media	19
181178	7	Sololá	719	Santiago Atitlán	14	Cerro de Oro	10	Octubre	2023-10-29T00:00:00	2024-11-08T22:00:00	4	Temperatura máxima	19.3
181179	7	Sololá	719	Santiago Atitlán	14	Cerro de Oro	10	Octubre	2023-10-29T00:00:00	2024-11-08T22:00:00	3	Temperatura mínima	18.9
181180	7	Sololá	719	Santiago Atitlán	14	Cerro de Oro	10	Octubre	2023-10-29T00:00:00	2024-11-08T22:00:00	5	Humedad	80
181181	7	Sololá	719	Santiago Atitlán	14	Cerro de Oro	10	Octubre	2023-10-29T00:00:00	2024-11-08T22:00:00	6	Velocidad del viento	0
181182	7	Sololá	719	Santiago Atitlán	14	Cerro de Oro	10	Octubre	2023-10-29T00:00:00	2024-11-08T22:00:00	7	Dirección del viento	0
181183	7	Sololá	719	Santiago Atitlán	14	Cerro de Oro	10	Octubre	2023-10-29T00:00:00	2024-11-08T22:00:00	1	Precipitación	0
181184	7	Sololá	719	Santiago Atitlán	14	Cerro de Oro	10	Octubre	2023-10-29T00:00:00	2024-11-08T22:00:00	8	Radiación solar	0
181185	7	Sololá	719	Santiago Atitlán	14	Cerro de Oro	10	Octubre	2023-10-29T00:00:00	2024-11-08T23:00:00	2	Temperatura media	19.1
181186	7	Sololá	719	Santiago Atitlán	14	Cerro de Oro	10	Octubre	2023-10-29T00:00:00	2024-11-08T23:00:00	4	Temperatura máxima	19.4
181187	7	Sololá	719	Santiago Atitlán	14	Cerro de Oro	10	Octubre	2023-10-29T00:00:00	2024-11-08T23:00:00	3	Temperatura mínima	18.9
181188	7	Sololá	719	Santiago Atitlán	14	Cerro de Oro	10	Octubre	2023-10-29T00:00:00	2024-11-08T23:00:00	5	Humedad	82
181189	7	Sololá	719	Santiago Atitlán	14	Cerro de Oro	10	Octubre	2023-10-29T00:00:00	2024-11-08T23:00:00	6	Velocidad del viento	0
181190	7	Sololá	719	Santiago Atitlán	14	Cerro de Oro	10	Octubre	2023-10-29T00:00:00	2024-11-08T23:00:00	7	Dirección del viento	0
181191	7	Sololá	719	Santiago Atitlán	14	Cerro de Oro	10	Octubre	2023-10-29T00:00:00	2024-11-08T23:00:00	1	Precipitación	0
181192	7	Sololá	719	Santiago Atitlán	14	Cerro de Oro	10	Octubre	2023-10-29T00:00:00	2024-11-08T23:00:00	8	Radiación solar	0
181193	7	Sololá	719	Santiago Atitlán	14	Cerro de Oro	10	Octubre	2023-10-30T00:00:00	2024-11-08T00:00:00	2	Temperatura media	20.2
181194	7	Sololá	719	Santiago Atitlán	14	Cerro de Oro	10	Octubre	2023-10-30T00:00:00	2024-11-08T00:00:00	4	Temperatura máxima	20.7
181195	7	Sololá	719	Santiago Atitlán	14	Cerro de Oro	10	Octubre	2023-10-30T00:00:00	2024-11-08T00:00:00	3	Temperatura mínima	19
181196	7	Sololá	719	Santiago Atitlán	14	Cerro de Oro	10	Octubre	2023-10-30T00:00:00	2024-11-08T00:00:00	5	Humedad	78
181197	7	Sololá	719	Santiago Atitlán	14	Cerro de Oro	10	Octubre	2023-10-30T00:00:00	2024-11-08T00:00:00	6	Velocidad del viento	1.6
181198	7	Sololá	719	Santiago Atitlán	14	Cerro de Oro	10	Octubre	2023-10-30T00:00:00	2024-11-08T00:00:00	7	Dirección del viento	1.61
181199	7	Sololá	719	Santiago Atitlán	14	Cerro de Oro	10	Octubre	2023-10-30T00:00:00	2024-11-08T00:00:00	1	Precipitación	0
181200	7	Sololá	719	Santiago Atitlán	14	Cerro de Oro	10	Octubre	2023-10-30T00:00:00	2024-11-08T00:00:00	8	Radiación solar	0
181201	7	Sololá	719	Santiago Atitlán	14	Cerro de Oro	10	Octubre	2023-10-30T00:00:00	2024-11-08T01:00:00	2	Temperatura media	18.2
181202	7	Sololá	719	Santiago Atitlán	14	Cerro de Oro	10	Octubre	2023-10-30T00:00:00	2024-11-08T01:00:00	4	Temperatura máxima	20.2
181203	7	Sololá	719	Santiago Atitlán	14	Cerro de Oro	10	Octubre	2023-10-30T00:00:00	2024-11-08T01:00:00	3	Temperatura mínima	18.2
181204	7	Sololá	719	Santiago Atitlán	14	Cerro de Oro	10	Octubre	2023-10-30T00:00:00	2024-11-08T01:00:00	5	Humedad	88
181205	7	Sololá	719	Santiago Atitlán	14	Cerro de Oro	10	Octubre	2023-10-30T00:00:00	2024-11-08T01:00:00	6	Velocidad del viento	0
181206	7	Sololá	719	Santiago Atitlán	14	Cerro de Oro	10	Octubre	2023-10-30T00:00:00	2024-11-08T01:00:00	7	Dirección del viento	0
181207	7	Sololá	719	Santiago Atitlán	14	Cerro de Oro	10	Octubre	2023-10-30T00:00:00	2024-11-08T01:00:00	1	Precipitación	0
181208	7	Sololá	719	Santiago Atitlán	14	Cerro de Oro	10	Octubre	2023-10-30T00:00:00	2024-11-08T01:00:00	8	Radiación solar	0
181209	7	Sololá	719	Santiago Atitlán	14	Cerro de Oro	10	Octubre	2023-10-30T00:00:00	2024-11-08T02:00:00	2	Temperatura media	18.3
181210	7	Sololá	719	Santiago Atitlán	14	Cerro de Oro	10	Octubre	2023-10-30T00:00:00	2024-11-08T02:00:00	4	Temperatura máxima	18.3
181211	7	Sololá	719	Santiago Atitlán	14	Cerro de Oro	10	Octubre	2023-10-30T00:00:00	2024-11-08T02:00:00	3	Temperatura mínima	18.1
181212	7	Sololá	719	Santiago Atitlán	14	Cerro de Oro	10	Octubre	2023-10-30T00:00:00	2024-11-08T02:00:00	5	Humedad	83
181213	7	Sololá	719	Santiago Atitlán	14	Cerro de Oro	10	Octubre	2023-10-30T00:00:00	2024-11-08T02:00:00	6	Velocidad del viento	0
181214	7	Sololá	719	Santiago Atitlán	14	Cerro de Oro	10	Octubre	2023-10-30T00:00:00	2024-11-08T02:00:00	7	Dirección del viento	0
181215	7	Sololá	719	Santiago Atitlán	14	Cerro de Oro	10	Octubre	2023-10-30T00:00:00	2024-11-08T02:00:00	1	Precipitación	0
181216	7	Sololá	719	Santiago Atitlán	14	Cerro de Oro	10	Octubre	2023-10-30T00:00:00	2024-11-08T02:00:00	8	Radiación solar	0
181217	7	Sololá	719	Santiago Atitlán	14	Cerro de Oro	10	Octubre	2023-10-30T00:00:00	2024-11-08T03:00:00	2	Temperatura media	19.5
181218	7	Sololá	719	Santiago Atitlán	14	Cerro de Oro	10	Octubre	2023-10-30T00:00:00	2024-11-08T03:00:00	4	Temperatura máxima	20.1
181219	7	Sololá	719	Santiago Atitlán	14	Cerro de Oro	10	Octubre	2023-10-30T00:00:00	2024-11-08T03:00:00	3	Temperatura mínima	18.3
181220	7	Sololá	719	Santiago Atitlán	14	Cerro de Oro	10	Octubre	2023-10-30T00:00:00	2024-11-08T03:00:00	5	Humedad	79
181221	7	Sololá	719	Santiago Atitlán	14	Cerro de Oro	10	Octubre	2023-10-30T00:00:00	2024-11-08T03:00:00	6	Velocidad del viento	4.8
181222	7	Sololá	719	Santiago Atitlán	14	Cerro de Oro	10	Octubre	2023-10-30T00:00:00	2024-11-08T03:00:00	7	Dirección del viento	4.83
181223	7	Sololá	719	Santiago Atitlán	14	Cerro de Oro	10	Octubre	2023-10-30T00:00:00	2024-11-08T03:00:00	1	Precipitación	0
181224	7	Sololá	719	Santiago Atitlán	14	Cerro de Oro	10	Octubre	2023-10-30T00:00:00	2024-11-08T03:00:00	8	Radiación solar	0
181225	7	Sololá	719	Santiago Atitlán	14	Cerro de Oro	10	Octubre	2023-10-30T00:00:00	2024-11-08T04:00:00	2	Temperatura media	18.9
181226	7	Sololá	719	Santiago Atitlán	14	Cerro de Oro	10	Octubre	2023-10-30T00:00:00	2024-11-08T04:00:00	4	Temperatura máxima	19.9
181227	7	Sololá	719	Santiago Atitlán	14	Cerro de Oro	10	Octubre	2023-10-30T00:00:00	2024-11-08T04:00:00	3	Temperatura mínima	18.8
181228	7	Sololá	719	Santiago Atitlán	14	Cerro de Oro	10	Octubre	2023-10-30T00:00:00	2024-11-08T04:00:00	5	Humedad	81
181229	7	Sololá	719	Santiago Atitlán	14	Cerro de Oro	10	Octubre	2023-10-30T00:00:00	2024-11-08T04:00:00	6	Velocidad del viento	1.6
181230	7	Sololá	719	Santiago Atitlán	14	Cerro de Oro	10	Octubre	2023-10-30T00:00:00	2024-11-08T04:00:00	7	Dirección del viento	1.61
181231	7	Sololá	719	Santiago Atitlán	14	Cerro de Oro	10	Octubre	2023-10-30T00:00:00	2024-11-08T04:00:00	1	Precipitación	0
181232	7	Sololá	719	Santiago Atitlán	14	Cerro de Oro	10	Octubre	2023-10-30T00:00:00	2024-11-08T04:00:00	8	Radiación solar	0
181233	7	Sololá	719	Santiago Atitlán	14	Cerro de Oro	10	Octubre	2023-10-30T00:00:00	2024-11-08T05:00:00	2	Temperatura media	17.6
181234	7	Sololá	719	Santiago Atitlán	14	Cerro de Oro	10	Octubre	2023-10-30T00:00:00	2024-11-08T05:00:00	4	Temperatura máxima	18.8
181235	7	Sololá	719	Santiago Atitlán	14	Cerro de Oro	10	Octubre	2023-10-30T00:00:00	2024-11-08T05:00:00	3	Temperatura mínima	17.6
181236	7	Sololá	719	Santiago Atitlán	14	Cerro de Oro	10	Octubre	2023-10-30T00:00:00	2024-11-08T05:00:00	5	Humedad	86
181237	7	Sololá	719	Santiago Atitlán	14	Cerro de Oro	10	Octubre	2023-10-30T00:00:00	2024-11-08T05:00:00	6	Velocidad del viento	0
181238	7	Sololá	719	Santiago Atitlán	14	Cerro de Oro	10	Octubre	2023-10-30T00:00:00	2024-11-08T05:00:00	7	Dirección del viento	0
181239	7	Sololá	719	Santiago Atitlán	14	Cerro de Oro	10	Octubre	2023-10-30T00:00:00	2024-11-08T05:00:00	1	Precipitación	0
181240	7	Sololá	719	Santiago Atitlán	14	Cerro de Oro	10	Octubre	2023-10-30T00:00:00	2024-11-08T05:00:00	8	Radiación solar	0
181241	7	Sololá	719	Santiago Atitlán	14	Cerro de Oro	10	Octubre	2023-10-30T00:00:00	2024-11-08T06:00:00	2	Temperatura media	18.1
181242	7	Sololá	719	Santiago Atitlán	14	Cerro de Oro	10	Octubre	2023-10-30T00:00:00	2024-11-08T06:00:00	4	Temperatura máxima	18.1
181243	7	Sololá	719	Santiago Atitlán	14	Cerro de Oro	10	Octubre	2023-10-30T00:00:00	2024-11-08T06:00:00	3	Temperatura mínima	17.6
181244	7	Sololá	719	Santiago Atitlán	14	Cerro de Oro	10	Octubre	2023-10-30T00:00:00	2024-11-08T06:00:00	5	Humedad	84
181245	7	Sololá	719	Santiago Atitlán	14	Cerro de Oro	10	Octubre	2023-10-30T00:00:00	2024-11-08T06:00:00	6	Velocidad del viento	0
181246	7	Sololá	719	Santiago Atitlán	14	Cerro de Oro	10	Octubre	2023-10-30T00:00:00	2024-11-08T06:00:00	7	Dirección del viento	0
181247	7	Sololá	719	Santiago Atitlán	14	Cerro de Oro	10	Octubre	2023-10-30T00:00:00	2024-11-08T06:00:00	1	Precipitación	0
181248	7	Sololá	719	Santiago Atitlán	14	Cerro de Oro	10	Octubre	2023-10-30T00:00:00	2024-11-08T06:00:00	8	Radiación solar	0
181249	7	Sololá	719	Santiago Atitlán	14	Cerro de Oro	10	Octubre	2023-10-30T00:00:00	2024-11-08T07:00:00	2	Temperatura media	19.9
181250	7	Sololá	719	Santiago Atitlán	14	Cerro de Oro	10	Octubre	2023-10-30T00:00:00	2024-11-08T07:00:00	4	Temperatura máxima	19.9
181251	7	Sololá	719	Santiago Atitlán	14	Cerro de Oro	10	Octubre	2023-10-30T00:00:00	2024-11-08T07:00:00	3	Temperatura mínima	18.1
181252	7	Sololá	719	Santiago Atitlán	14	Cerro de Oro	10	Octubre	2023-10-30T00:00:00	2024-11-08T07:00:00	5	Humedad	77
181253	7	Sololá	719	Santiago Atitlán	14	Cerro de Oro	10	Octubre	2023-10-30T00:00:00	2024-11-08T07:00:00	6	Velocidad del viento	3.2
181254	7	Sololá	719	Santiago Atitlán	14	Cerro de Oro	10	Octubre	2023-10-30T00:00:00	2024-11-08T07:00:00	7	Dirección del viento	3.22
181255	7	Sololá	719	Santiago Atitlán	14	Cerro de Oro	10	Octubre	2023-10-30T00:00:00	2024-11-08T07:00:00	1	Precipitación	0
181256	7	Sololá	719	Santiago Atitlán	14	Cerro de Oro	10	Octubre	2023-10-30T00:00:00	2024-11-08T07:00:00	8	Radiación solar	41
181257	7	Sololá	719	Santiago Atitlán	14	Cerro de Oro	10	Octubre	2023-10-30T00:00:00	2024-11-08T08:00:00	2	Temperatura media	21.4
181258	7	Sololá	719	Santiago Atitlán	14	Cerro de Oro	10	Octubre	2023-10-30T00:00:00	2024-11-08T08:00:00	4	Temperatura máxima	21.4
181259	7	Sololá	719	Santiago Atitlán	14	Cerro de Oro	10	Octubre	2023-10-30T00:00:00	2024-11-08T08:00:00	3	Temperatura mínima	19.9
181260	7	Sololá	719	Santiago Atitlán	14	Cerro de Oro	10	Octubre	2023-10-30T00:00:00	2024-11-08T08:00:00	5	Humedad	73
181261	7	Sololá	719	Santiago Atitlán	14	Cerro de Oro	10	Octubre	2023-10-30T00:00:00	2024-11-08T08:00:00	6	Velocidad del viento	6.4
181262	7	Sololá	719	Santiago Atitlán	14	Cerro de Oro	10	Octubre	2023-10-30T00:00:00	2024-11-08T08:00:00	7	Dirección del viento	6.44
181263	7	Sololá	719	Santiago Atitlán	14	Cerro de Oro	10	Octubre	2023-10-30T00:00:00	2024-11-08T08:00:00	1	Precipitación	0
181264	7	Sololá	719	Santiago Atitlán	14	Cerro de Oro	10	Octubre	2023-10-30T00:00:00	2024-11-08T08:00:00	8	Radiación solar	262
181265	7	Sololá	719	Santiago Atitlán	14	Cerro de Oro	10	Octubre	2023-10-30T00:00:00	2024-11-08T09:00:00	2	Temperatura media	23
181266	7	Sololá	719	Santiago Atitlán	14	Cerro de Oro	10	Octubre	2023-10-30T00:00:00	2024-11-08T09:00:00	4	Temperatura máxima	23
181267	7	Sololá	719	Santiago Atitlán	14	Cerro de Oro	10	Octubre	2023-10-30T00:00:00	2024-11-08T09:00:00	3	Temperatura mínima	21.4
181268	7	Sololá	719	Santiago Atitlán	14	Cerro de Oro	10	Octubre	2023-10-30T00:00:00	2024-11-08T09:00:00	5	Humedad	66
181269	7	Sololá	719	Santiago Atitlán	14	Cerro de Oro	10	Octubre	2023-10-30T00:00:00	2024-11-08T09:00:00	6	Velocidad del viento	8
181270	7	Sololá	719	Santiago Atitlán	14	Cerro de Oro	10	Octubre	2023-10-30T00:00:00	2024-11-08T09:00:00	7	Dirección del viento	8.05
181271	7	Sololá	719	Santiago Atitlán	14	Cerro de Oro	10	Octubre	2023-10-30T00:00:00	2024-11-08T09:00:00	1	Precipitación	0
181272	7	Sololá	719	Santiago Atitlán	14	Cerro de Oro	10	Octubre	2023-10-30T00:00:00	2024-11-08T09:00:00	8	Radiación solar	527
181273	7	Sololá	719	Santiago Atitlán	14	Cerro de Oro	10	Octubre	2023-10-30T00:00:00	2024-11-08T10:00:00	2	Temperatura media	23.9
181274	7	Sololá	719	Santiago Atitlán	14	Cerro de Oro	10	Octubre	2023-10-30T00:00:00	2024-11-08T10:00:00	4	Temperatura máxima	23.9
181275	7	Sololá	719	Santiago Atitlán	14	Cerro de Oro	10	Octubre	2023-10-30T00:00:00	2024-11-08T10:00:00	3	Temperatura mínima	23
181276	7	Sololá	719	Santiago Atitlán	14	Cerro de Oro	10	Octubre	2023-10-30T00:00:00	2024-11-08T10:00:00	5	Humedad	64
181277	7	Sololá	719	Santiago Atitlán	14	Cerro de Oro	10	Octubre	2023-10-30T00:00:00	2024-11-08T10:00:00	6	Velocidad del viento	8
181278	7	Sololá	719	Santiago Atitlán	14	Cerro de Oro	10	Octubre	2023-10-30T00:00:00	2024-11-08T10:00:00	7	Dirección del viento	8.05
181279	7	Sololá	719	Santiago Atitlán	14	Cerro de Oro	10	Octubre	2023-10-30T00:00:00	2024-11-08T10:00:00	1	Precipitación	0
181280	7	Sololá	719	Santiago Atitlán	14	Cerro de Oro	10	Octubre	2023-10-30T00:00:00	2024-11-08T10:00:00	8	Radiación solar	715
181281	7	Sololá	719	Santiago Atitlán	14	Cerro de Oro	10	Octubre	2023-10-30T00:00:00	2024-11-08T11:00:00	2	Temperatura media	24.8
181282	7	Sololá	719	Santiago Atitlán	14	Cerro de Oro	10	Octubre	2023-10-30T00:00:00	2024-11-08T11:00:00	4	Temperatura máxima	24.8
181283	7	Sololá	719	Santiago Atitlán	14	Cerro de Oro	10	Octubre	2023-10-30T00:00:00	2024-11-08T11:00:00	3	Temperatura mínima	23.9
181284	7	Sololá	719	Santiago Atitlán	14	Cerro de Oro	10	Octubre	2023-10-30T00:00:00	2024-11-08T11:00:00	5	Humedad	62
181285	7	Sololá	719	Santiago Atitlán	14	Cerro de Oro	10	Octubre	2023-10-30T00:00:00	2024-11-08T11:00:00	6	Velocidad del viento	4.8
181286	7	Sololá	719	Santiago Atitlán	14	Cerro de Oro	10	Octubre	2023-10-30T00:00:00	2024-11-08T11:00:00	7	Dirección del viento	4.83
181287	7	Sololá	719	Santiago Atitlán	14	Cerro de Oro	10	Octubre	2023-10-30T00:00:00	2024-11-08T11:00:00	1	Precipitación	0
181288	7	Sololá	719	Santiago Atitlán	14	Cerro de Oro	10	Octubre	2023-10-30T00:00:00	2024-11-08T11:00:00	8	Radiación solar	751
181289	7	Sololá	719	Santiago Atitlán	14	Cerro de Oro	10	Octubre	2023-10-30T00:00:00	2024-11-08T12:00:00	2	Temperatura media	25.2
181290	7	Sololá	719	Santiago Atitlán	14	Cerro de Oro	10	Octubre	2023-10-30T00:00:00	2024-11-08T12:00:00	4	Temperatura máxima	25.2
181291	7	Sololá	719	Santiago Atitlán	14	Cerro de Oro	10	Octubre	2023-10-30T00:00:00	2024-11-08T12:00:00	3	Temperatura mínima	24.4
181292	7	Sololá	719	Santiago Atitlán	14	Cerro de Oro	10	Octubre	2023-10-30T00:00:00	2024-11-08T12:00:00	5	Humedad	58
181293	7	Sololá	719	Santiago Atitlán	14	Cerro de Oro	10	Octubre	2023-10-30T00:00:00	2024-11-08T12:00:00	6	Velocidad del viento	8
181294	7	Sololá	719	Santiago Atitlán	14	Cerro de Oro	10	Octubre	2023-10-30T00:00:00	2024-11-08T12:00:00	7	Dirección del viento	8.05
181295	7	Sololá	719	Santiago Atitlán	14	Cerro de Oro	10	Octubre	2023-10-30T00:00:00	2024-11-08T12:00:00	1	Precipitación	0
181296	7	Sololá	719	Santiago Atitlán	14	Cerro de Oro	10	Octubre	2023-10-30T00:00:00	2024-11-08T12:00:00	8	Radiación solar	905
181297	7	Sololá	719	Santiago Atitlán	14	Cerro de Oro	10	Octubre	2023-10-30T00:00:00	2024-11-08T13:00:00	2	Temperatura media	26.9
181298	7	Sololá	719	Santiago Atitlán	14	Cerro de Oro	10	Octubre	2023-10-30T00:00:00	2024-11-08T13:00:00	4	Temperatura máxima	27
181299	7	Sololá	719	Santiago Atitlán	14	Cerro de Oro	10	Octubre	2023-10-30T00:00:00	2024-11-08T13:00:00	3	Temperatura mínima	25.2
181300	7	Sololá	719	Santiago Atitlán	14	Cerro de Oro	10	Octubre	2023-10-30T00:00:00	2024-11-08T13:00:00	5	Humedad	51
181301	7	Sololá	719	Santiago Atitlán	14	Cerro de Oro	10	Octubre	2023-10-30T00:00:00	2024-11-08T13:00:00	6	Velocidad del viento	6.4
181302	7	Sololá	719	Santiago Atitlán	14	Cerro de Oro	10	Octubre	2023-10-30T00:00:00	2024-11-08T13:00:00	7	Dirección del viento	6.44
181303	7	Sololá	719	Santiago Atitlán	14	Cerro de Oro	10	Octubre	2023-10-30T00:00:00	2024-11-08T13:00:00	1	Precipitación	0
181304	7	Sololá	719	Santiago Atitlán	14	Cerro de Oro	10	Octubre	2023-10-30T00:00:00	2024-11-08T13:00:00	8	Radiación solar	887
181305	7	Sololá	719	Santiago Atitlán	14	Cerro de Oro	10	Octubre	2023-10-30T00:00:00	2024-11-08T14:00:00	2	Temperatura media	25.3
181306	7	Sololá	719	Santiago Atitlán	14	Cerro de Oro	10	Octubre	2023-10-30T00:00:00	2024-11-08T14:00:00	4	Temperatura máxima	26.9
181307	7	Sololá	719	Santiago Atitlán	14	Cerro de Oro	10	Octubre	2023-10-30T00:00:00	2024-11-08T14:00:00	3	Temperatura mínima	25.3
181308	7	Sololá	719	Santiago Atitlán	14	Cerro de Oro	10	Octubre	2023-10-30T00:00:00	2024-11-08T14:00:00	5	Humedad	58
181309	7	Sololá	719	Santiago Atitlán	14	Cerro de Oro	10	Octubre	2023-10-30T00:00:00	2024-11-08T14:00:00	6	Velocidad del viento	6.4
181310	7	Sololá	719	Santiago Atitlán	14	Cerro de Oro	10	Octubre	2023-10-30T00:00:00	2024-11-08T14:00:00	7	Dirección del viento	6.44
181311	7	Sololá	719	Santiago Atitlán	14	Cerro de Oro	10	Octubre	2023-10-30T00:00:00	2024-11-08T14:00:00	1	Precipitación	0
181312	7	Sololá	719	Santiago Atitlán	14	Cerro de Oro	10	Octubre	2023-10-30T00:00:00	2024-11-08T14:00:00	8	Radiación solar	574
181313	7	Sololá	719	Santiago Atitlán	14	Cerro de Oro	10	Octubre	2023-10-30T00:00:00	2024-11-08T15:00:00	2	Temperatura media	23.1
181314	7	Sololá	719	Santiago Atitlán	14	Cerro de Oro	10	Octubre	2023-10-30T00:00:00	2024-11-08T15:00:00	4	Temperatura máxima	25.3
181315	7	Sololá	719	Santiago Atitlán	14	Cerro de Oro	10	Octubre	2023-10-30T00:00:00	2024-11-08T15:00:00	3	Temperatura mínima	22.4
181316	7	Sololá	719	Santiago Atitlán	14	Cerro de Oro	10	Octubre	2023-10-30T00:00:00	2024-11-08T15:00:00	5	Humedad	68
181317	7	Sololá	719	Santiago Atitlán	14	Cerro de Oro	10	Octubre	2023-10-30T00:00:00	2024-11-08T15:00:00	6	Velocidad del viento	4.8
181318	7	Sololá	719	Santiago Atitlán	14	Cerro de Oro	10	Octubre	2023-10-30T00:00:00	2024-11-08T15:00:00	7	Dirección del viento	4.83
181319	7	Sololá	719	Santiago Atitlán	14	Cerro de Oro	10	Octubre	2023-10-30T00:00:00	2024-11-08T15:00:00	1	Precipitación	0
181320	7	Sololá	719	Santiago Atitlán	14	Cerro de Oro	10	Octubre	2023-10-30T00:00:00	2024-11-08T15:00:00	8	Radiación solar	185
181321	7	Sololá	719	Santiago Atitlán	14	Cerro de Oro	10	Octubre	2023-10-30T00:00:00	2024-11-08T16:00:00	2	Temperatura media	23
181322	7	Sololá	719	Santiago Atitlán	14	Cerro de Oro	10	Octubre	2023-10-30T00:00:00	2024-11-08T16:00:00	4	Temperatura máxima	23.8
181323	7	Sololá	719	Santiago Atitlán	14	Cerro de Oro	10	Octubre	2023-10-30T00:00:00	2024-11-08T16:00:00	3	Temperatura mínima	22.9
181324	7	Sololá	719	Santiago Atitlán	14	Cerro de Oro	10	Octubre	2023-10-30T00:00:00	2024-11-08T16:00:00	5	Humedad	64
181325	7	Sololá	719	Santiago Atitlán	14	Cerro de Oro	10	Octubre	2023-10-30T00:00:00	2024-11-08T16:00:00	6	Velocidad del viento	1.6
181326	7	Sololá	719	Santiago Atitlán	14	Cerro de Oro	10	Octubre	2023-10-30T00:00:00	2024-11-08T16:00:00	7	Dirección del viento	1.61
181327	7	Sololá	719	Santiago Atitlán	14	Cerro de Oro	10	Octubre	2023-10-30T00:00:00	2024-11-08T16:00:00	1	Precipitación	0
181328	7	Sololá	719	Santiago Atitlán	14	Cerro de Oro	10	Octubre	2023-10-30T00:00:00	2024-11-08T16:00:00	8	Radiación solar	164
181329	7	Sololá	719	Santiago Atitlán	14	Cerro de Oro	10	Octubre	2023-10-30T00:00:00	2024-11-08T17:00:00	2	Temperatura media	22.1
181330	7	Sololá	719	Santiago Atitlán	14	Cerro de Oro	10	Octubre	2023-10-30T00:00:00	2024-11-08T17:00:00	4	Temperatura máxima	23.3
181331	7	Sololá	719	Santiago Atitlán	14	Cerro de Oro	10	Octubre	2023-10-30T00:00:00	2024-11-08T17:00:00	3	Temperatura mínima	22.1
181332	7	Sololá	719	Santiago Atitlán	14	Cerro de Oro	10	Octubre	2023-10-30T00:00:00	2024-11-08T17:00:00	5	Humedad	65
181333	7	Sololá	719	Santiago Atitlán	14	Cerro de Oro	10	Octubre	2023-10-30T00:00:00	2024-11-08T17:00:00	6	Velocidad del viento	6.4
181334	7	Sololá	719	Santiago Atitlán	14	Cerro de Oro	10	Octubre	2023-10-30T00:00:00	2024-11-08T17:00:00	7	Dirección del viento	6.44
181335	7	Sololá	719	Santiago Atitlán	14	Cerro de Oro	10	Octubre	2023-10-30T00:00:00	2024-11-08T17:00:00	1	Precipitación	0
181336	7	Sololá	719	Santiago Atitlán	14	Cerro de Oro	10	Octubre	2023-10-30T00:00:00	2024-11-08T17:00:00	8	Radiación solar	73
181337	7	Sololá	719	Santiago Atitlán	14	Cerro de Oro	10	Octubre	2023-10-30T00:00:00	2024-11-08T18:00:00	2	Temperatura media	20.9
181338	7	Sololá	719	Santiago Atitlán	14	Cerro de Oro	10	Octubre	2023-10-30T00:00:00	2024-11-08T18:00:00	4	Temperatura máxima	22
181339	7	Sololá	719	Santiago Atitlán	14	Cerro de Oro	10	Octubre	2023-10-30T00:00:00	2024-11-08T18:00:00	3	Temperatura mínima	20.9
181340	7	Sololá	719	Santiago Atitlán	14	Cerro de Oro	10	Octubre	2023-10-30T00:00:00	2024-11-08T18:00:00	5	Humedad	67
181341	7	Sololá	719	Santiago Atitlán	14	Cerro de Oro	10	Octubre	2023-10-30T00:00:00	2024-11-08T18:00:00	6	Velocidad del viento	9.7
181342	7	Sololá	719	Santiago Atitlán	14	Cerro de Oro	10	Octubre	2023-10-30T00:00:00	2024-11-08T18:00:00	7	Dirección del viento	9.66
181343	7	Sololá	719	Santiago Atitlán	14	Cerro de Oro	10	Octubre	2023-10-30T00:00:00	2024-11-08T18:00:00	1	Precipitación	0
181344	7	Sololá	719	Santiago Atitlán	14	Cerro de Oro	10	Octubre	2023-10-30T00:00:00	2024-11-08T18:00:00	8	Radiación solar	6
181345	7	Sololá	719	Santiago Atitlán	14	Cerro de Oro	10	Octubre	2023-10-30T00:00:00	2024-11-08T19:00:00	2	Temperatura media	20.6
181346	7	Sololá	719	Santiago Atitlán	14	Cerro de Oro	10	Octubre	2023-10-30T00:00:00	2024-11-08T19:00:00	4	Temperatura máxima	20.9
181347	7	Sololá	719	Santiago Atitlán	14	Cerro de Oro	10	Octubre	2023-10-30T00:00:00	2024-11-08T19:00:00	3	Temperatura mínima	20.4
181348	7	Sololá	719	Santiago Atitlán	14	Cerro de Oro	10	Octubre	2023-10-30T00:00:00	2024-11-08T19:00:00	5	Humedad	66
181349	7	Sololá	719	Santiago Atitlán	14	Cerro de Oro	10	Octubre	2023-10-30T00:00:00	2024-11-08T19:00:00	6	Velocidad del viento	6.4
181350	7	Sololá	719	Santiago Atitlán	14	Cerro de Oro	10	Octubre	2023-10-30T00:00:00	2024-11-08T19:00:00	7	Dirección del viento	6.44
181351	7	Sololá	719	Santiago Atitlán	14	Cerro de Oro	10	Octubre	2023-10-30T00:00:00	2024-11-08T19:00:00	1	Precipitación	0
181352	7	Sololá	719	Santiago Atitlán	14	Cerro de Oro	10	Octubre	2023-10-30T00:00:00	2024-11-08T19:00:00	8	Radiación solar	0
181353	7	Sololá	719	Santiago Atitlán	14	Cerro de Oro	10	Octubre	2023-10-30T00:00:00	2024-11-08T20:00:00	2	Temperatura media	19.7
181354	7	Sololá	719	Santiago Atitlán	14	Cerro de Oro	10	Octubre	2023-10-30T00:00:00	2024-11-08T20:00:00	4	Temperatura máxima	20.6
181355	7	Sololá	719	Santiago Atitlán	14	Cerro de Oro	10	Octubre	2023-10-30T00:00:00	2024-11-08T20:00:00	3	Temperatura mínima	19.7
181356	7	Sololá	719	Santiago Atitlán	14	Cerro de Oro	10	Octubre	2023-10-30T00:00:00	2024-11-08T20:00:00	5	Humedad	72
181357	7	Sololá	719	Santiago Atitlán	14	Cerro de Oro	10	Octubre	2023-10-30T00:00:00	2024-11-08T20:00:00	6	Velocidad del viento	0
181358	7	Sololá	719	Santiago Atitlán	14	Cerro de Oro	10	Octubre	2023-10-30T00:00:00	2024-11-08T20:00:00	7	Dirección del viento	0
181359	7	Sololá	719	Santiago Atitlán	14	Cerro de Oro	10	Octubre	2023-10-30T00:00:00	2024-11-08T20:00:00	1	Precipitación	0
181360	7	Sololá	719	Santiago Atitlán	14	Cerro de Oro	10	Octubre	2023-10-30T00:00:00	2024-11-08T20:00:00	8	Radiación solar	0
181361	7	Sololá	719	Santiago Atitlán	14	Cerro de Oro	10	Octubre	2023-10-30T00:00:00	2024-11-08T21:00:00	2	Temperatura media	20.2
181362	7	Sololá	719	Santiago Atitlán	14	Cerro de Oro	10	Octubre	2023-10-30T00:00:00	2024-11-08T21:00:00	4	Temperatura máxima	20.2
181363	7	Sololá	719	Santiago Atitlán	14	Cerro de Oro	10	Octubre	2023-10-30T00:00:00	2024-11-08T21:00:00	3	Temperatura mínima	19.1
181364	7	Sololá	719	Santiago Atitlán	14	Cerro de Oro	10	Octubre	2023-10-30T00:00:00	2024-11-08T21:00:00	5	Humedad	69
181365	7	Sololá	719	Santiago Atitlán	14	Cerro de Oro	10	Octubre	2023-10-30T00:00:00	2024-11-08T21:00:00	6	Velocidad del viento	0
181366	7	Sololá	719	Santiago Atitlán	14	Cerro de Oro	10	Octubre	2023-10-30T00:00:00	2024-11-08T21:00:00	7	Dirección del viento	0
181367	7	Sololá	719	Santiago Atitlán	14	Cerro de Oro	10	Octubre	2023-10-30T00:00:00	2024-11-08T21:00:00	1	Precipitación	0
181368	7	Sololá	719	Santiago Atitlán	14	Cerro de Oro	10	Octubre	2023-10-30T00:00:00	2024-11-08T21:00:00	8	Radiación solar	0
181369	7	Sololá	719	Santiago Atitlán	14	Cerro de Oro	10	Octubre	2023-10-30T00:00:00	2024-11-08T22:00:00	2	Temperatura media	19.8
181370	7	Sololá	719	Santiago Atitlán	14	Cerro de Oro	10	Octubre	2023-10-30T00:00:00	2024-11-08T22:00:00	4	Temperatura máxima	20.2
181371	7	Sololá	719	Santiago Atitlán	14	Cerro de Oro	10	Octubre	2023-10-30T00:00:00	2024-11-08T22:00:00	3	Temperatura mínima	19.6
181372	7	Sololá	719	Santiago Atitlán	14	Cerro de Oro	10	Octubre	2023-10-30T00:00:00	2024-11-08T22:00:00	5	Humedad	69
181373	7	Sololá	719	Santiago Atitlán	14	Cerro de Oro	10	Octubre	2023-10-30T00:00:00	2024-11-08T22:00:00	6	Velocidad del viento	1.6
181374	7	Sololá	719	Santiago Atitlán	14	Cerro de Oro	10	Octubre	2023-10-30T00:00:00	2024-11-08T22:00:00	7	Dirección del viento	1.61
181375	7	Sololá	719	Santiago Atitlán	14	Cerro de Oro	10	Octubre	2023-10-30T00:00:00	2024-11-08T22:00:00	1	Precipitación	0
181376	7	Sololá	719	Santiago Atitlán	14	Cerro de Oro	10	Octubre	2023-10-30T00:00:00	2024-11-08T22:00:00	8	Radiación solar	0
181377	7	Sololá	719	Santiago Atitlán	14	Cerro de Oro	10	Octubre	2023-10-30T00:00:00	2024-11-08T23:00:00	2	Temperatura media	19.7
181378	7	Sololá	719	Santiago Atitlán	14	Cerro de Oro	10	Octubre	2023-10-30T00:00:00	2024-11-08T23:00:00	4	Temperatura máxima	20.1
181379	7	Sololá	719	Santiago Atitlán	14	Cerro de Oro	10	Octubre	2023-10-30T00:00:00	2024-11-08T23:00:00	3	Temperatura mínima	19.7
181380	7	Sololá	719	Santiago Atitlán	14	Cerro de Oro	10	Octubre	2023-10-30T00:00:00	2024-11-08T23:00:00	5	Humedad	69
181381	7	Sololá	719	Santiago Atitlán	14	Cerro de Oro	10	Octubre	2023-10-30T00:00:00	2024-11-08T23:00:00	6	Velocidad del viento	3.2
181382	7	Sololá	719	Santiago Atitlán	14	Cerro de Oro	10	Octubre	2023-10-30T00:00:00	2024-11-08T23:00:00	7	Dirección del viento	3.22
181383	7	Sololá	719	Santiago Atitlán	14	Cerro de Oro	10	Octubre	2023-10-30T00:00:00	2024-11-08T23:00:00	1	Precipitación	0
181384	7	Sololá	719	Santiago Atitlán	14	Cerro de Oro	10	Octubre	2023-10-30T00:00:00	2024-11-08T23:00:00	8	Radiación solar	0
181385	7	Sololá	719	Santiago Atitlán	14	Cerro de Oro	10	Octubre	2023-10-31T00:00:00	2024-11-08T00:00:00	2	Temperatura media	19.8
181386	7	Sololá	719	Santiago Atitlán	14	Cerro de Oro	10	Octubre	2023-10-31T00:00:00	2024-11-08T00:00:00	4	Temperatura máxima	19.8
181387	7	Sololá	719	Santiago Atitlán	14	Cerro de Oro	10	Octubre	2023-10-31T00:00:00	2024-11-08T00:00:00	3	Temperatura mínima	19.5
181388	7	Sololá	719	Santiago Atitlán	14	Cerro de Oro	10	Octubre	2023-10-31T00:00:00	2024-11-08T00:00:00	5	Humedad	68
181389	7	Sololá	719	Santiago Atitlán	14	Cerro de Oro	10	Octubre	2023-10-31T00:00:00	2024-11-08T00:00:00	6	Velocidad del viento	3.2
181390	7	Sololá	719	Santiago Atitlán	14	Cerro de Oro	10	Octubre	2023-10-31T00:00:00	2024-11-08T00:00:00	7	Dirección del viento	3.22
181391	7	Sololá	719	Santiago Atitlán	14	Cerro de Oro	10	Octubre	2023-10-31T00:00:00	2024-11-08T00:00:00	1	Precipitación	0
181392	7	Sololá	719	Santiago Atitlán	14	Cerro de Oro	10	Octubre	2023-10-31T00:00:00	2024-11-08T00:00:00	8	Radiación solar	0
181393	7	Sololá	719	Santiago Atitlán	14	Cerro de Oro	10	Octubre	2023-10-31T00:00:00	2024-11-08T01:00:00	2	Temperatura media	19.1
181394	7	Sololá	719	Santiago Atitlán	14	Cerro de Oro	10	Octubre	2023-10-31T00:00:00	2024-11-08T01:00:00	4	Temperatura máxima	19.8
181395	7	Sololá	719	Santiago Atitlán	14	Cerro de Oro	10	Octubre	2023-10-31T00:00:00	2024-11-08T01:00:00	3	Temperatura mínima	19.1
181396	7	Sololá	719	Santiago Atitlán	14	Cerro de Oro	10	Octubre	2023-10-31T00:00:00	2024-11-08T01:00:00	5	Humedad	68
181397	7	Sololá	719	Santiago Atitlán	14	Cerro de Oro	10	Octubre	2023-10-31T00:00:00	2024-11-08T01:00:00	6	Velocidad del viento	9.7
181398	7	Sololá	719	Santiago Atitlán	14	Cerro de Oro	10	Octubre	2023-10-31T00:00:00	2024-11-08T01:00:00	7	Dirección del viento	9.66
181399	7	Sololá	719	Santiago Atitlán	14	Cerro de Oro	10	Octubre	2023-10-31T00:00:00	2024-11-08T01:00:00	1	Precipitación	0
181400	7	Sololá	719	Santiago Atitlán	14	Cerro de Oro	10	Octubre	2023-10-31T00:00:00	2024-11-08T01:00:00	8	Radiación solar	0
181401	7	Sololá	719	Santiago Atitlán	14	Cerro de Oro	10	Octubre	2023-10-31T00:00:00	2024-11-08T02:00:00	2	Temperatura media	18.9
181402	7	Sololá	719	Santiago Atitlán	14	Cerro de Oro	10	Octubre	2023-10-31T00:00:00	2024-11-08T02:00:00	4	Temperatura máxima	19.2
181403	7	Sololá	719	Santiago Atitlán	14	Cerro de Oro	10	Octubre	2023-10-31T00:00:00	2024-11-08T02:00:00	3	Temperatura mínima	18.9
181404	7	Sololá	719	Santiago Atitlán	14	Cerro de Oro	10	Octubre	2023-10-31T00:00:00	2024-11-08T02:00:00	5	Humedad	68
181405	7	Sololá	719	Santiago Atitlán	14	Cerro de Oro	10	Octubre	2023-10-31T00:00:00	2024-11-08T02:00:00	6	Velocidad del viento	12.9
181406	7	Sololá	719	Santiago Atitlán	14	Cerro de Oro	10	Octubre	2023-10-31T00:00:00	2024-11-08T02:00:00	7	Dirección del viento	12.87
181407	7	Sololá	719	Santiago Atitlán	14	Cerro de Oro	10	Octubre	2023-10-31T00:00:00	2024-11-08T02:00:00	1	Precipitación	0
181408	7	Sololá	719	Santiago Atitlán	14	Cerro de Oro	10	Octubre	2023-10-31T00:00:00	2024-11-08T02:00:00	8	Radiación solar	0
181409	7	Sololá	719	Santiago Atitlán	14	Cerro de Oro	10	Octubre	2023-10-31T00:00:00	2024-11-08T03:00:00	2	Temperatura media	18.7
181410	7	Sololá	719	Santiago Atitlán	14	Cerro de Oro	10	Octubre	2023-10-31T00:00:00	2024-11-08T03:00:00	4	Temperatura máxima	19.1
181411	7	Sololá	719	Santiago Atitlán	14	Cerro de Oro	10	Octubre	2023-10-31T00:00:00	2024-11-08T03:00:00	3	Temperatura mínima	18.7
181412	7	Sololá	719	Santiago Atitlán	14	Cerro de Oro	10	Octubre	2023-10-31T00:00:00	2024-11-08T03:00:00	5	Humedad	69
181413	7	Sololá	719	Santiago Atitlán	14	Cerro de Oro	10	Octubre	2023-10-31T00:00:00	2024-11-08T03:00:00	6	Velocidad del viento	9.7
181414	7	Sololá	719	Santiago Atitlán	14	Cerro de Oro	10	Octubre	2023-10-31T00:00:00	2024-11-08T03:00:00	7	Dirección del viento	9.66
181415	7	Sololá	719	Santiago Atitlán	14	Cerro de Oro	10	Octubre	2023-10-31T00:00:00	2024-11-08T03:00:00	1	Precipitación	0
181416	7	Sololá	719	Santiago Atitlán	14	Cerro de Oro	10	Octubre	2023-10-31T00:00:00	2024-11-08T03:00:00	8	Radiación solar	0
181417	7	Sololá	719	Santiago Atitlán	14	Cerro de Oro	10	Octubre	2023-10-31T00:00:00	2024-11-08T04:00:00	2	Temperatura media	18.9
181418	7	Sololá	719	Santiago Atitlán	14	Cerro de Oro	10	Octubre	2023-10-31T00:00:00	2024-11-08T04:00:00	4	Temperatura máxima	18.9
181419	7	Sololá	719	Santiago Atitlán	14	Cerro de Oro	10	Octubre	2023-10-31T00:00:00	2024-11-08T04:00:00	3	Temperatura mínima	18.7
181420	7	Sololá	719	Santiago Atitlán	14	Cerro de Oro	10	Octubre	2023-10-31T00:00:00	2024-11-08T04:00:00	5	Humedad	69
181421	7	Sololá	719	Santiago Atitlán	14	Cerro de Oro	10	Octubre	2023-10-31T00:00:00	2024-11-08T04:00:00	6	Velocidad del viento	6.4
181422	7	Sololá	719	Santiago Atitlán	14	Cerro de Oro	10	Octubre	2023-10-31T00:00:00	2024-11-08T04:00:00	7	Dirección del viento	6.44
181423	7	Sololá	719	Santiago Atitlán	14	Cerro de Oro	10	Octubre	2023-10-31T00:00:00	2024-11-08T04:00:00	1	Precipitación	0
181424	7	Sololá	719	Santiago Atitlán	14	Cerro de Oro	10	Octubre	2023-10-31T00:00:00	2024-11-08T04:00:00	8	Radiación solar	0
181425	7	Sololá	719	Santiago Atitlán	14	Cerro de Oro	10	Octubre	2023-10-31T00:00:00	2024-11-08T05:00:00	2	Temperatura media	19.2
181426	7	Sololá	719	Santiago Atitlán	14	Cerro de Oro	10	Octubre	2023-10-31T00:00:00	2024-11-08T05:00:00	4	Temperatura máxima	19.3
181427	7	Sololá	719	Santiago Atitlán	14	Cerro de Oro	10	Octubre	2023-10-31T00:00:00	2024-11-08T05:00:00	3	Temperatura mínima	18.8
181428	7	Sololá	719	Santiago Atitlán	14	Cerro de Oro	10	Octubre	2023-10-31T00:00:00	2024-11-08T05:00:00	5	Humedad	67
181429	7	Sololá	719	Santiago Atitlán	14	Cerro de Oro	10	Octubre	2023-10-31T00:00:00	2024-11-08T05:00:00	6	Velocidad del viento	11.3
181430	7	Sololá	719	Santiago Atitlán	14	Cerro de Oro	10	Octubre	2023-10-31T00:00:00	2024-11-08T05:00:00	7	Dirección del viento	11.27
181431	7	Sololá	719	Santiago Atitlán	14	Cerro de Oro	10	Octubre	2023-10-31T00:00:00	2024-11-08T05:00:00	1	Precipitación	0
181432	7	Sololá	719	Santiago Atitlán	14	Cerro de Oro	10	Octubre	2023-10-31T00:00:00	2024-11-08T05:00:00	8	Radiación solar	0
181433	7	Sololá	719	Santiago Atitlán	14	Cerro de Oro	10	Octubre	2023-10-31T00:00:00	2024-11-08T06:00:00	2	Temperatura media	19
181434	7	Sololá	719	Santiago Atitlán	14	Cerro de Oro	10	Octubre	2023-10-31T00:00:00	2024-11-08T06:00:00	4	Temperatura máxima	19.2
181435	7	Sololá	719	Santiago Atitlán	14	Cerro de Oro	10	Octubre	2023-10-31T00:00:00	2024-11-08T06:00:00	3	Temperatura mínima	18.9
181436	7	Sololá	719	Santiago Atitlán	14	Cerro de Oro	10	Octubre	2023-10-31T00:00:00	2024-11-08T06:00:00	5	Humedad	68
181437	7	Sololá	719	Santiago Atitlán	14	Cerro de Oro	10	Octubre	2023-10-31T00:00:00	2024-11-08T06:00:00	6	Velocidad del viento	9.7
181438	7	Sololá	719	Santiago Atitlán	14	Cerro de Oro	10	Octubre	2023-10-31T00:00:00	2024-11-08T06:00:00	7	Dirección del viento	9.66
181439	7	Sololá	719	Santiago Atitlán	14	Cerro de Oro	10	Octubre	2023-10-31T00:00:00	2024-11-08T06:00:00	1	Precipitación	0
181440	7	Sololá	719	Santiago Atitlán	14	Cerro de Oro	10	Octubre	2023-10-31T00:00:00	2024-11-08T06:00:00	8	Radiación solar	0
181441	7	Sololá	719	Santiago Atitlán	14	Cerro de Oro	10	Octubre	2023-10-31T00:00:00	2024-11-08T07:00:00	2	Temperatura media	19.2
181442	7	Sololá	719	Santiago Atitlán	14	Cerro de Oro	10	Octubre	2023-10-31T00:00:00	2024-11-08T07:00:00	4	Temperatura máxima	19.3
181443	7	Sololá	719	Santiago Atitlán	14	Cerro de Oro	10	Octubre	2023-10-31T00:00:00	2024-11-08T07:00:00	3	Temperatura mínima	18.9
181444	7	Sololá	719	Santiago Atitlán	14	Cerro de Oro	10	Octubre	2023-10-31T00:00:00	2024-11-08T07:00:00	5	Humedad	67
181445	7	Sololá	719	Santiago Atitlán	14	Cerro de Oro	10	Octubre	2023-10-31T00:00:00	2024-11-08T07:00:00	6	Velocidad del viento	8
181446	7	Sololá	719	Santiago Atitlán	14	Cerro de Oro	10	Octubre	2023-10-31T00:00:00	2024-11-08T07:00:00	7	Dirección del viento	8.05
181447	7	Sololá	719	Santiago Atitlán	14	Cerro de Oro	10	Octubre	2023-10-31T00:00:00	2024-11-08T07:00:00	1	Precipitación	0
181448	7	Sololá	719	Santiago Atitlán	14	Cerro de Oro	10	Octubre	2023-10-31T00:00:00	2024-11-08T07:00:00	8	Radiación solar	10
181449	7	Sololá	719	Santiago Atitlán	14	Cerro de Oro	10	Octubre	2023-10-31T00:00:00	2024-11-08T08:00:00	2	Temperatura media	20.1
181450	7	Sololá	719	Santiago Atitlán	14	Cerro de Oro	10	Octubre	2023-10-31T00:00:00	2024-11-08T08:00:00	4	Temperatura máxima	20.1
181451	7	Sololá	719	Santiago Atitlán	14	Cerro de Oro	10	Octubre	2023-10-31T00:00:00	2024-11-08T08:00:00	3	Temperatura mínima	19.2
181452	7	Sololá	719	Santiago Atitlán	14	Cerro de Oro	10	Octubre	2023-10-31T00:00:00	2024-11-08T08:00:00	5	Humedad	65
181453	7	Sololá	719	Santiago Atitlán	14	Cerro de Oro	10	Octubre	2023-10-31T00:00:00	2024-11-08T08:00:00	6	Velocidad del viento	4.8
181454	7	Sololá	719	Santiago Atitlán	14	Cerro de Oro	10	Octubre	2023-10-31T00:00:00	2024-11-08T08:00:00	7	Dirección del viento	4.83
181455	7	Sololá	719	Santiago Atitlán	14	Cerro de Oro	10	Octubre	2023-10-31T00:00:00	2024-11-08T08:00:00	1	Precipitación	0
181456	7	Sololá	719	Santiago Atitlán	14	Cerro de Oro	10	Octubre	2023-10-31T00:00:00	2024-11-08T08:00:00	8	Radiación solar	97
181457	7	Sololá	719	Santiago Atitlán	14	Cerro de Oro	10	Octubre	2023-10-31T00:00:00	2024-11-08T09:00:00	2	Temperatura media	21.2
181458	7	Sololá	719	Santiago Atitlán	14	Cerro de Oro	10	Octubre	2023-10-31T00:00:00	2024-11-08T09:00:00	4	Temperatura máxima	21.3
181459	7	Sololá	719	Santiago Atitlán	14	Cerro de Oro	10	Octubre	2023-10-31T00:00:00	2024-11-08T09:00:00	3	Temperatura mínima	20.1
181460	7	Sololá	719	Santiago Atitlán	14	Cerro de Oro	10	Octubre	2023-10-31T00:00:00	2024-11-08T09:00:00	5	Humedad	63
181461	7	Sololá	719	Santiago Atitlán	14	Cerro de Oro	10	Octubre	2023-10-31T00:00:00	2024-11-08T09:00:00	6	Velocidad del viento	6.4
181462	7	Sololá	719	Santiago Atitlán	14	Cerro de Oro	10	Octubre	2023-10-31T00:00:00	2024-11-08T09:00:00	7	Dirección del viento	6.44
181463	7	Sololá	719	Santiago Atitlán	14	Cerro de Oro	10	Octubre	2023-10-31T00:00:00	2024-11-08T09:00:00	1	Precipitación	0
181464	7	Sololá	719	Santiago Atitlán	14	Cerro de Oro	10	Octubre	2023-10-31T00:00:00	2024-11-08T09:00:00	8	Radiación solar	227
181465	7	Sololá	719	Santiago Atitlán	14	Cerro de Oro	10	Octubre	2023-10-31T00:00:00	2024-11-08T10:00:00	2	Temperatura media	21
181466	7	Sololá	719	Santiago Atitlán	14	Cerro de Oro	10	Octubre	2023-10-31T00:00:00	2024-11-08T10:00:00	4	Temperatura máxima	21.2
181467	7	Sololá	719	Santiago Atitlán	14	Cerro de Oro	10	Octubre	2023-10-31T00:00:00	2024-11-08T10:00:00	3	Temperatura mínima	20.9
181468	7	Sololá	719	Santiago Atitlán	14	Cerro de Oro	10	Octubre	2023-10-31T00:00:00	2024-11-08T10:00:00	5	Humedad	65
181469	7	Sololá	719	Santiago Atitlán	14	Cerro de Oro	10	Octubre	2023-10-31T00:00:00	2024-11-08T10:00:00	6	Velocidad del viento	8
181470	7	Sololá	719	Santiago Atitlán	14	Cerro de Oro	10	Octubre	2023-10-31T00:00:00	2024-11-08T10:00:00	7	Dirección del viento	8.05
181471	7	Sololá	719	Santiago Atitlán	14	Cerro de Oro	10	Octubre	2023-10-31T00:00:00	2024-11-08T10:00:00	1	Precipitación	0
181472	7	Sololá	719	Santiago Atitlán	14	Cerro de Oro	10	Octubre	2023-10-31T00:00:00	2024-11-08T10:00:00	8	Radiación solar	173
181473	7	Sololá	719	Santiago Atitlán	14	Cerro de Oro	10	Octubre	2023-10-31T00:00:00	2024-11-08T11:00:00	2	Temperatura media	21.9
181474	7	Sololá	719	Santiago Atitlán	14	Cerro de Oro	10	Octubre	2023-10-31T00:00:00	2024-11-08T11:00:00	4	Temperatura máxima	22
181475	7	Sololá	719	Santiago Atitlán	14	Cerro de Oro	10	Octubre	2023-10-31T00:00:00	2024-11-08T11:00:00	3	Temperatura mínima	20.9
181476	7	Sololá	719	Santiago Atitlán	14	Cerro de Oro	10	Octubre	2023-10-31T00:00:00	2024-11-08T11:00:00	5	Humedad	64
181477	7	Sololá	719	Santiago Atitlán	14	Cerro de Oro	10	Octubre	2023-10-31T00:00:00	2024-11-08T11:00:00	6	Velocidad del viento	8
181478	7	Sololá	719	Santiago Atitlán	14	Cerro de Oro	10	Octubre	2023-10-31T00:00:00	2024-11-08T11:00:00	7	Dirección del viento	8.05
181479	7	Sololá	719	Santiago Atitlán	14	Cerro de Oro	10	Octubre	2023-10-31T00:00:00	2024-11-08T11:00:00	1	Precipitación	0
181480	7	Sololá	719	Santiago Atitlán	14	Cerro de Oro	10	Octubre	2023-10-31T00:00:00	2024-11-08T11:00:00	8	Radiación solar	267
181481	7	Sololá	719	Santiago Atitlán	14	Cerro de Oro	10	Octubre	2023-10-31T00:00:00	2024-11-08T12:00:00	2	Temperatura media	21.4
181482	7	Sololá	719	Santiago Atitlán	14	Cerro de Oro	10	Octubre	2023-10-31T00:00:00	2024-11-08T12:00:00	4	Temperatura máxima	22.2
181483	7	Sololá	719	Santiago Atitlán	14	Cerro de Oro	10	Octubre	2023-10-31T00:00:00	2024-11-08T12:00:00	3	Temperatura mínima	21.2
181484	7	Sololá	719	Santiago Atitlán	14	Cerro de Oro	10	Octubre	2023-10-31T00:00:00	2024-11-08T12:00:00	5	Humedad	67
181485	7	Sololá	719	Santiago Atitlán	14	Cerro de Oro	10	Octubre	2023-10-31T00:00:00	2024-11-08T12:00:00	6	Velocidad del viento	4.8
181486	7	Sololá	719	Santiago Atitlán	14	Cerro de Oro	10	Octubre	2023-10-31T00:00:00	2024-11-08T12:00:00	7	Dirección del viento	4.83
181487	7	Sololá	719	Santiago Atitlán	14	Cerro de Oro	10	Octubre	2023-10-31T00:00:00	2024-11-08T12:00:00	1	Precipitación	0
181488	7	Sololá	719	Santiago Atitlán	14	Cerro de Oro	10	Octubre	2023-10-31T00:00:00	2024-11-08T12:00:00	8	Radiación solar	285
181489	7	Sololá	719	Santiago Atitlán	14	Cerro de Oro	10	Octubre	2023-10-31T00:00:00	2024-11-08T13:00:00	2	Temperatura media	20.9
181490	7	Sololá	719	Santiago Atitlán	14	Cerro de Oro	10	Octubre	2023-10-31T00:00:00	2024-11-08T13:00:00	4	Temperatura máxima	21.5
181491	7	Sololá	719	Santiago Atitlán	14	Cerro de Oro	10	Octubre	2023-10-31T00:00:00	2024-11-08T13:00:00	3	Temperatura mínima	20.9
181492	7	Sololá	719	Santiago Atitlán	14	Cerro de Oro	10	Octubre	2023-10-31T00:00:00	2024-11-08T13:00:00	5	Humedad	68
181493	7	Sololá	719	Santiago Atitlán	14	Cerro de Oro	10	Octubre	2023-10-31T00:00:00	2024-11-08T13:00:00	6	Velocidad del viento	8
181494	7	Sololá	719	Santiago Atitlán	14	Cerro de Oro	10	Octubre	2023-10-31T00:00:00	2024-11-08T13:00:00	7	Dirección del viento	8.05
181495	7	Sololá	719	Santiago Atitlán	14	Cerro de Oro	10	Octubre	2023-10-31T00:00:00	2024-11-08T13:00:00	1	Precipitación	0
181496	7	Sololá	719	Santiago Atitlán	14	Cerro de Oro	10	Octubre	2023-10-31T00:00:00	2024-11-08T13:00:00	8	Radiación solar	182
181497	7	Sololá	719	Santiago Atitlán	14	Cerro de Oro	10	Octubre	2023-10-31T00:00:00	2024-11-08T14:00:00	2	Temperatura media	19.5
181498	7	Sololá	719	Santiago Atitlán	14	Cerro de Oro	10	Octubre	2023-10-31T00:00:00	2024-11-08T14:00:00	4	Temperatura máxima	20.9
181499	7	Sololá	719	Santiago Atitlán	14	Cerro de Oro	10	Octubre	2023-10-31T00:00:00	2024-11-08T14:00:00	3	Temperatura mínima	19.5
181500	7	Sololá	719	Santiago Atitlán	14	Cerro de Oro	10	Octubre	2023-10-31T00:00:00	2024-11-08T14:00:00	5	Humedad	78
181501	7	Sololá	719	Santiago Atitlán	14	Cerro de Oro	10	Octubre	2023-10-31T00:00:00	2024-11-08T14:00:00	6	Velocidad del viento	4.8
181502	7	Sololá	719	Santiago Atitlán	14	Cerro de Oro	10	Octubre	2023-10-31T00:00:00	2024-11-08T14:00:00	7	Dirección del viento	4.83
181503	7	Sololá	719	Santiago Atitlán	14	Cerro de Oro	10	Octubre	2023-10-31T00:00:00	2024-11-08T14:00:00	1	Precipitación	0.2
181504	7	Sololá	719	Santiago Atitlán	14	Cerro de Oro	10	Octubre	2023-10-31T00:00:00	2024-11-08T14:00:00	8	Radiación solar	131
181505	7	Sololá	719	Santiago Atitlán	14	Cerro de Oro	10	Octubre	2023-10-31T00:00:00	2024-11-08T15:00:00	2	Temperatura media	18.2
181506	7	Sololá	719	Santiago Atitlán	14	Cerro de Oro	10	Octubre	2023-10-31T00:00:00	2024-11-08T15:00:00	4	Temperatura máxima	19.5
181507	7	Sololá	719	Santiago Atitlán	14	Cerro de Oro	10	Octubre	2023-10-31T00:00:00	2024-11-08T15:00:00	3	Temperatura mínima	18.2
181508	7	Sololá	719	Santiago Atitlán	14	Cerro de Oro	10	Octubre	2023-10-31T00:00:00	2024-11-08T15:00:00	5	Humedad	84
181509	7	Sololá	719	Santiago Atitlán	14	Cerro de Oro	10	Octubre	2023-10-31T00:00:00	2024-11-08T15:00:00	6	Velocidad del viento	3.2
181510	7	Sololá	719	Santiago Atitlán	14	Cerro de Oro	10	Octubre	2023-10-31T00:00:00	2024-11-08T15:00:00	7	Dirección del viento	3.22
181511	7	Sololá	719	Santiago Atitlán	14	Cerro de Oro	10	Octubre	2023-10-31T00:00:00	2024-11-08T15:00:00	1	Precipitación	0.4
181512	7	Sololá	719	Santiago Atitlán	14	Cerro de Oro	10	Octubre	2023-10-31T00:00:00	2024-11-08T15:00:00	8	Radiación solar	83
181513	7	Sololá	719	Santiago Atitlán	14	Cerro de Oro	10	Octubre	2023-10-31T00:00:00	2024-11-08T16:00:00	2	Temperatura media	17.9
181514	7	Sololá	719	Santiago Atitlán	14	Cerro de Oro	10	Octubre	2023-10-31T00:00:00	2024-11-08T16:00:00	4	Temperatura máxima	18.3
181515	7	Sololá	719	Santiago Atitlán	14	Cerro de Oro	10	Octubre	2023-10-31T00:00:00	2024-11-08T16:00:00	3	Temperatura mínima	17.8
181516	7	Sololá	719	Santiago Atitlán	14	Cerro de Oro	10	Octubre	2023-10-31T00:00:00	2024-11-08T16:00:00	5	Humedad	84
181517	7	Sololá	719	Santiago Atitlán	14	Cerro de Oro	10	Octubre	2023-10-31T00:00:00	2024-11-08T16:00:00	6	Velocidad del viento	3.2
181518	7	Sololá	719	Santiago Atitlán	14	Cerro de Oro	10	Octubre	2023-10-31T00:00:00	2024-11-08T16:00:00	7	Dirección del viento	3.22
181519	7	Sololá	719	Santiago Atitlán	14	Cerro de Oro	10	Octubre	2023-10-31T00:00:00	2024-11-08T16:00:00	1	Precipitación	0.4
181520	7	Sololá	719	Santiago Atitlán	14	Cerro de Oro	10	Octubre	2023-10-31T00:00:00	2024-11-08T16:00:00	8	Radiación solar	54
181521	7	Sololá	719	Santiago Atitlán	14	Cerro de Oro	10	Octubre	2023-10-31T00:00:00	2024-11-08T17:00:00	2	Temperatura media	17.6
181522	7	Sololá	719	Santiago Atitlán	14	Cerro de Oro	10	Octubre	2023-10-31T00:00:00	2024-11-08T17:00:00	4	Temperatura máxima	18
181523	7	Sololá	719	Santiago Atitlán	14	Cerro de Oro	10	Octubre	2023-10-31T00:00:00	2024-11-08T17:00:00	3	Temperatura mínima	17.6
181524	7	Sololá	719	Santiago Atitlán	14	Cerro de Oro	10	Octubre	2023-10-31T00:00:00	2024-11-08T17:00:00	5	Humedad	84
181525	7	Sololá	719	Santiago Atitlán	14	Cerro de Oro	10	Octubre	2023-10-31T00:00:00	2024-11-08T17:00:00	6	Velocidad del viento	6.4
181526	7	Sololá	719	Santiago Atitlán	14	Cerro de Oro	10	Octubre	2023-10-31T00:00:00	2024-11-08T17:00:00	7	Dirección del viento	6.44
181527	7	Sololá	719	Santiago Atitlán	14	Cerro de Oro	10	Octubre	2023-10-31T00:00:00	2024-11-08T17:00:00	1	Precipitación	0.8
181528	7	Sololá	719	Santiago Atitlán	14	Cerro de Oro	10	Octubre	2023-10-31T00:00:00	2024-11-08T17:00:00	8	Radiación solar	21
181529	7	Sololá	719	Santiago Atitlán	14	Cerro de Oro	10	Octubre	2023-10-31T00:00:00	2024-11-08T18:00:00	2	Temperatura media	16.9
181530	7	Sololá	719	Santiago Atitlán	14	Cerro de Oro	10	Octubre	2023-10-31T00:00:00	2024-11-08T18:00:00	4	Temperatura máxima	17.7
181531	7	Sololá	719	Santiago Atitlán	14	Cerro de Oro	10	Octubre	2023-10-31T00:00:00	2024-11-08T18:00:00	3	Temperatura mínima	16.8
181532	7	Sololá	719	Santiago Atitlán	14	Cerro de Oro	10	Octubre	2023-10-31T00:00:00	2024-11-08T18:00:00	5	Humedad	86
181533	7	Sololá	719	Santiago Atitlán	14	Cerro de Oro	10	Octubre	2023-10-31T00:00:00	2024-11-08T18:00:00	6	Velocidad del viento	1.6
181534	7	Sololá	719	Santiago Atitlán	14	Cerro de Oro	10	Octubre	2023-10-31T00:00:00	2024-11-08T18:00:00	7	Dirección del viento	1.61
181535	7	Sololá	719	Santiago Atitlán	14	Cerro de Oro	10	Octubre	2023-10-31T00:00:00	2024-11-08T18:00:00	1	Precipitación	0.2
181536	7	Sololá	719	Santiago Atitlán	14	Cerro de Oro	10	Octubre	2023-10-31T00:00:00	2024-11-08T18:00:00	8	Radiación solar	2
181537	7	Sololá	719	Santiago Atitlán	14	Cerro de Oro	10	Octubre	2023-10-31T00:00:00	2024-11-08T19:00:00	2	Temperatura media	18.2
181538	7	Sololá	719	Santiago Atitlán	14	Cerro de Oro	10	Octubre	2023-10-31T00:00:00	2024-11-08T19:00:00	4	Temperatura máxima	18.2
181539	7	Sololá	719	Santiago Atitlán	14	Cerro de Oro	10	Octubre	2023-10-31T00:00:00	2024-11-08T19:00:00	3	Temperatura mínima	16.9
181540	7	Sololá	719	Santiago Atitlán	14	Cerro de Oro	10	Octubre	2023-10-31T00:00:00	2024-11-08T19:00:00	5	Humedad	77
181541	7	Sololá	719	Santiago Atitlán	14	Cerro de Oro	10	Octubre	2023-10-31T00:00:00	2024-11-08T19:00:00	6	Velocidad del viento	3.2
181542	7	Sololá	719	Santiago Atitlán	14	Cerro de Oro	10	Octubre	2023-10-31T00:00:00	2024-11-08T19:00:00	7	Dirección del viento	3.22
181543	7	Sololá	719	Santiago Atitlán	14	Cerro de Oro	10	Octubre	2023-10-31T00:00:00	2024-11-08T19:00:00	1	Precipitación	0
181544	7	Sololá	719	Santiago Atitlán	14	Cerro de Oro	10	Octubre	2023-10-31T00:00:00	2024-11-08T19:00:00	8	Radiación solar	0
181545	7	Sololá	719	Santiago Atitlán	14	Cerro de Oro	10	Octubre	2023-10-31T00:00:00	2024-11-08T20:00:00	2	Temperatura media	18.2
181546	7	Sololá	719	Santiago Atitlán	14	Cerro de Oro	10	Octubre	2023-10-31T00:00:00	2024-11-08T20:00:00	4	Temperatura máxima	18.6
181547	7	Sololá	719	Santiago Atitlán	14	Cerro de Oro	10	Octubre	2023-10-31T00:00:00	2024-11-08T20:00:00	3	Temperatura mínima	18.1
181548	7	Sololá	719	Santiago Atitlán	14	Cerro de Oro	10	Octubre	2023-10-31T00:00:00	2024-11-08T20:00:00	5	Humedad	76
181549	7	Sololá	719	Santiago Atitlán	14	Cerro de Oro	10	Octubre	2023-10-31T00:00:00	2024-11-08T20:00:00	6	Velocidad del viento	4.8
181550	7	Sololá	719	Santiago Atitlán	14	Cerro de Oro	10	Octubre	2023-10-31T00:00:00	2024-11-08T20:00:00	7	Dirección del viento	4.83
181551	7	Sololá	719	Santiago Atitlán	14	Cerro de Oro	10	Octubre	2023-10-31T00:00:00	2024-11-08T20:00:00	1	Precipitación	0
181552	7	Sololá	719	Santiago Atitlán	14	Cerro de Oro	10	Octubre	2023-10-31T00:00:00	2024-11-08T20:00:00	8	Radiación solar	0
181553	7	Sololá	719	Santiago Atitlán	14	Cerro de Oro	10	Octubre	2023-10-31T00:00:00	2024-11-08T21:00:00	2	Temperatura media	17.9
181554	7	Sololá	719	Santiago Atitlán	14	Cerro de Oro	10	Octubre	2023-10-31T00:00:00	2024-11-08T21:00:00	4	Temperatura máxima	18.3
181555	7	Sololá	719	Santiago Atitlán	14	Cerro de Oro	10	Octubre	2023-10-31T00:00:00	2024-11-08T21:00:00	3	Temperatura mínima	17.9
181556	7	Sololá	719	Santiago Atitlán	14	Cerro de Oro	10	Octubre	2023-10-31T00:00:00	2024-11-08T21:00:00	5	Humedad	77
181557	7	Sololá	719	Santiago Atitlán	14	Cerro de Oro	10	Octubre	2023-10-31T00:00:00	2024-11-08T21:00:00	6	Velocidad del viento	4.8
181558	7	Sololá	719	Santiago Atitlán	14	Cerro de Oro	10	Octubre	2023-10-31T00:00:00	2024-11-08T21:00:00	7	Dirección del viento	4.83
181559	7	Sololá	719	Santiago Atitlán	14	Cerro de Oro	10	Octubre	2023-10-31T00:00:00	2024-11-08T21:00:00	1	Precipitación	0.2
181560	7	Sololá	719	Santiago Atitlán	14	Cerro de Oro	10	Octubre	2023-10-31T00:00:00	2024-11-08T21:00:00	8	Radiación solar	0
181561	7	Sololá	719	Santiago Atitlán	14	Cerro de Oro	10	Octubre	2023-10-31T00:00:00	2024-11-08T22:00:00	2	Temperatura media	17.6
181562	7	Sololá	719	Santiago Atitlán	14	Cerro de Oro	10	Octubre	2023-10-31T00:00:00	2024-11-08T22:00:00	4	Temperatura máxima	18.1
181563	7	Sololá	719	Santiago Atitlán	14	Cerro de Oro	10	Octubre	2023-10-31T00:00:00	2024-11-08T22:00:00	3	Temperatura mínima	17.5
181564	7	Sololá	719	Santiago Atitlán	14	Cerro de Oro	10	Octubre	2023-10-31T00:00:00	2024-11-08T22:00:00	5	Humedad	75
181565	7	Sololá	719	Santiago Atitlán	14	Cerro de Oro	10	Octubre	2023-10-31T00:00:00	2024-11-08T22:00:00	6	Velocidad del viento	8
181566	7	Sololá	719	Santiago Atitlán	14	Cerro de Oro	10	Octubre	2023-10-31T00:00:00	2024-11-08T22:00:00	7	Dirección del viento	8.05
181567	7	Sololá	719	Santiago Atitlán	14	Cerro de Oro	10	Octubre	2023-10-31T00:00:00	2024-11-08T22:00:00	1	Precipitación	0
181568	7	Sololá	719	Santiago Atitlán	14	Cerro de Oro	10	Octubre	2023-10-31T00:00:00	2024-11-08T22:00:00	8	Radiación solar	0
181569	7	Sololá	719	Santiago Atitlán	14	Cerro de Oro	10	Octubre	2023-10-31T00:00:00	2024-11-08T23:00:00	2	Temperatura media	17.9
181570	7	Sololá	719	Santiago Atitlán	14	Cerro de Oro	10	Octubre	2023-10-31T00:00:00	2024-11-08T23:00:00	4	Temperatura máxima	17.9
181571	7	Sololá	719	Santiago Atitlán	14	Cerro de Oro	10	Octubre	2023-10-31T00:00:00	2024-11-08T23:00:00	3	Temperatura mínima	17.5
181572	7	Sololá	719	Santiago Atitlán	14	Cerro de Oro	10	Octubre	2023-10-31T00:00:00	2024-11-08T23:00:00	5	Humedad	74
181573	7	Sololá	719	Santiago Atitlán	14	Cerro de Oro	10	Octubre	2023-10-31T00:00:00	2024-11-08T23:00:00	6	Velocidad del viento	8
181574	7	Sololá	719	Santiago Atitlán	14	Cerro de Oro	10	Octubre	2023-10-31T00:00:00	2024-11-08T23:00:00	7	Dirección del viento	8.05
181575	7	Sololá	719	Santiago Atitlán	14	Cerro de Oro	10	Octubre	2023-10-31T00:00:00	2024-11-08T23:00:00	1	Precipitación	0
181576	7	Sololá	719	Santiago Atitlán	14	Cerro de Oro	10	Octubre	2023-10-31T00:00:00	2024-11-08T23:00:00	8	Radiación solar	0
181577	7	Sololá	719	Santiago Atitlán	14	Cerro de Oro	11	Noviembre	2023-01-11T00:00:00	2024-11-08T00:00:00	2	Temperatura media	17.9
181578	7	Sololá	719	Santiago Atitlán	14	Cerro de Oro	11	Noviembre	2023-01-11T00:00:00	2024-11-08T00:00:00	4	Temperatura máxima	18.2
181579	7	Sololá	719	Santiago Atitlán	14	Cerro de Oro	11	Noviembre	2023-01-11T00:00:00	2024-11-08T00:00:00	3	Temperatura mínima	17.9
181580	7	Sololá	719	Santiago Atitlán	14	Cerro de Oro	11	Noviembre	2023-01-11T00:00:00	2024-11-08T00:00:00	5	Humedad	73
181581	7	Sololá	719	Santiago Atitlán	14	Cerro de Oro	11	Noviembre	2023-01-11T00:00:00	2024-11-08T00:00:00	6	Velocidad del viento	8
181582	7	Sololá	719	Santiago Atitlán	14	Cerro de Oro	11	Noviembre	2023-01-11T00:00:00	2024-11-08T00:00:00	7	Dirección del viento	8.05
181583	7	Sololá	719	Santiago Atitlán	14	Cerro de Oro	11	Noviembre	2023-01-11T00:00:00	2024-11-08T00:00:00	1	Precipitación	0
181584	7	Sololá	719	Santiago Atitlán	14	Cerro de Oro	11	Noviembre	2023-01-11T00:00:00	2024-11-08T00:00:00	8	Radiación solar	0
181585	7	Sololá	719	Santiago Atitlán	14	Cerro de Oro	11	Noviembre	2023-01-11T00:00:00	2024-11-08T01:00:00	2	Temperatura media	18
181586	7	Sololá	719	Santiago Atitlán	14	Cerro de Oro	11	Noviembre	2023-01-11T00:00:00	2024-11-08T01:00:00	4	Temperatura máxima	18.1
181587	7	Sololá	719	Santiago Atitlán	14	Cerro de Oro	11	Noviembre	2023-01-11T00:00:00	2024-11-08T01:00:00	3	Temperatura mínima	17.7
181588	7	Sololá	719	Santiago Atitlán	14	Cerro de Oro	11	Noviembre	2023-01-11T00:00:00	2024-11-08T01:00:00	5	Humedad	69
181589	7	Sololá	719	Santiago Atitlán	14	Cerro de Oro	11	Noviembre	2023-01-11T00:00:00	2024-11-08T01:00:00	6	Velocidad del viento	6.4
181590	7	Sololá	719	Santiago Atitlán	14	Cerro de Oro	11	Noviembre	2023-01-11T00:00:00	2024-11-08T01:00:00	7	Dirección del viento	6.44
181591	7	Sololá	719	Santiago Atitlán	14	Cerro de Oro	11	Noviembre	2023-01-11T00:00:00	2024-11-08T01:00:00	1	Precipitación	0
181592	7	Sololá	719	Santiago Atitlán	14	Cerro de Oro	11	Noviembre	2023-01-11T00:00:00	2024-11-08T01:00:00	8	Radiación solar	0
181593	7	Sololá	719	Santiago Atitlán	14	Cerro de Oro	11	Noviembre	2023-01-11T00:00:00	2024-11-08T02:00:00	2	Temperatura media	17.9
181594	7	Sololá	719	Santiago Atitlán	14	Cerro de Oro	11	Noviembre	2023-01-11T00:00:00	2024-11-08T02:00:00	4	Temperatura máxima	18.1
181595	7	Sololá	719	Santiago Atitlán	14	Cerro de Oro	11	Noviembre	2023-01-11T00:00:00	2024-11-08T02:00:00	3	Temperatura mínima	17.8
181596	7	Sololá	719	Santiago Atitlán	14	Cerro de Oro	11	Noviembre	2023-01-11T00:00:00	2024-11-08T02:00:00	5	Humedad	68
181597	7	Sololá	719	Santiago Atitlán	14	Cerro de Oro	11	Noviembre	2023-01-11T00:00:00	2024-11-08T02:00:00	6	Velocidad del viento	4.8
181598	7	Sololá	719	Santiago Atitlán	14	Cerro de Oro	11	Noviembre	2023-01-11T00:00:00	2024-11-08T02:00:00	7	Dirección del viento	4.83
181599	7	Sololá	719	Santiago Atitlán	14	Cerro de Oro	11	Noviembre	2023-01-11T00:00:00	2024-11-08T02:00:00	1	Precipitación	0
181600	7	Sololá	719	Santiago Atitlán	14	Cerro de Oro	11	Noviembre	2023-01-11T00:00:00	2024-11-08T02:00:00	8	Radiación solar	0
181601	7	Sololá	719	Santiago Atitlán	14	Cerro de Oro	11	Noviembre	2023-01-11T00:00:00	2024-11-08T03:00:00	2	Temperatura media	17.9
181602	7	Sololá	719	Santiago Atitlán	14	Cerro de Oro	11	Noviembre	2023-01-11T00:00:00	2024-11-08T03:00:00	4	Temperatura máxima	18.1
181603	7	Sololá	719	Santiago Atitlán	14	Cerro de Oro	11	Noviembre	2023-01-11T00:00:00	2024-11-08T03:00:00	3	Temperatura mínima	17.8
181604	7	Sololá	719	Santiago Atitlán	14	Cerro de Oro	11	Noviembre	2023-01-11T00:00:00	2024-11-08T03:00:00	5	Humedad	70
181605	7	Sololá	719	Santiago Atitlán	14	Cerro de Oro	11	Noviembre	2023-01-11T00:00:00	2024-11-08T03:00:00	6	Velocidad del viento	6.4
181606	7	Sololá	719	Santiago Atitlán	14	Cerro de Oro	11	Noviembre	2023-01-11T00:00:00	2024-11-08T03:00:00	7	Dirección del viento	6.44
181607	7	Sololá	719	Santiago Atitlán	14	Cerro de Oro	11	Noviembre	2023-01-11T00:00:00	2024-11-08T03:00:00	1	Precipitación	0
181608	7	Sololá	719	Santiago Atitlán	14	Cerro de Oro	11	Noviembre	2023-01-11T00:00:00	2024-11-08T03:00:00	8	Radiación solar	0
181609	7	Sololá	719	Santiago Atitlán	14	Cerro de Oro	11	Noviembre	2023-01-11T00:00:00	2024-11-08T04:00:00	2	Temperatura media	17.8
181610	7	Sololá	719	Santiago Atitlán	14	Cerro de Oro	11	Noviembre	2023-01-11T00:00:00	2024-11-08T04:00:00	4	Temperatura máxima	18.1
181611	7	Sololá	719	Santiago Atitlán	14	Cerro de Oro	11	Noviembre	2023-01-11T00:00:00	2024-11-08T04:00:00	3	Temperatura mínima	17.6
181612	7	Sololá	719	Santiago Atitlán	14	Cerro de Oro	11	Noviembre	2023-01-11T00:00:00	2024-11-08T04:00:00	5	Humedad	71
181613	7	Sololá	719	Santiago Atitlán	14	Cerro de Oro	11	Noviembre	2023-01-11T00:00:00	2024-11-08T04:00:00	6	Velocidad del viento	12.9
181614	7	Sololá	719	Santiago Atitlán	14	Cerro de Oro	11	Noviembre	2023-01-11T00:00:00	2024-11-08T04:00:00	7	Dirección del viento	12.87
181615	7	Sololá	719	Santiago Atitlán	14	Cerro de Oro	11	Noviembre	2023-01-11T00:00:00	2024-11-08T04:00:00	1	Precipitación	0
181616	7	Sololá	719	Santiago Atitlán	14	Cerro de Oro	11	Noviembre	2023-01-11T00:00:00	2024-11-08T04:00:00	8	Radiación solar	0
181617	7	Sololá	719	Santiago Atitlán	14	Cerro de Oro	11	Noviembre	2023-01-11T00:00:00	2024-11-08T05:00:00	2	Temperatura media	17.7
181618	7	Sololá	719	Santiago Atitlán	14	Cerro de Oro	11	Noviembre	2023-01-11T00:00:00	2024-11-08T05:00:00	4	Temperatura máxima	17.8
181619	7	Sololá	719	Santiago Atitlán	14	Cerro de Oro	11	Noviembre	2023-01-11T00:00:00	2024-11-08T05:00:00	3	Temperatura mínima	17.6
181620	7	Sololá	719	Santiago Atitlán	14	Cerro de Oro	11	Noviembre	2023-01-11T00:00:00	2024-11-08T05:00:00	5	Humedad	74
181621	7	Sololá	719	Santiago Atitlán	14	Cerro de Oro	11	Noviembre	2023-01-11T00:00:00	2024-11-08T05:00:00	6	Velocidad del viento	6.4
181622	7	Sololá	719	Santiago Atitlán	14	Cerro de Oro	11	Noviembre	2023-01-11T00:00:00	2024-11-08T05:00:00	7	Dirección del viento	6.44
181623	7	Sololá	719	Santiago Atitlán	14	Cerro de Oro	11	Noviembre	2023-01-11T00:00:00	2024-11-08T05:00:00	1	Precipitación	0
181624	7	Sololá	719	Santiago Atitlán	14	Cerro de Oro	11	Noviembre	2023-01-11T00:00:00	2024-11-08T05:00:00	8	Radiación solar	0
181625	7	Sololá	719	Santiago Atitlán	14	Cerro de Oro	11	Noviembre	2023-01-11T00:00:00	2024-11-08T06:00:00	2	Temperatura media	18.4
181626	7	Sololá	719	Santiago Atitlán	14	Cerro de Oro	11	Noviembre	2023-01-11T00:00:00	2024-11-08T06:00:00	4	Temperatura máxima	18.4
181627	7	Sololá	719	Santiago Atitlán	14	Cerro de Oro	11	Noviembre	2023-01-11T00:00:00	2024-11-08T06:00:00	3	Temperatura mínima	17.5
181628	7	Sololá	719	Santiago Atitlán	14	Cerro de Oro	11	Noviembre	2023-01-11T00:00:00	2024-11-08T06:00:00	5	Humedad	73
181629	7	Sololá	719	Santiago Atitlán	14	Cerro de Oro	11	Noviembre	2023-01-11T00:00:00	2024-11-08T06:00:00	6	Velocidad del viento	8
181630	7	Sololá	719	Santiago Atitlán	14	Cerro de Oro	11	Noviembre	2023-01-11T00:00:00	2024-11-08T06:00:00	7	Dirección del viento	8.05
181631	7	Sololá	719	Santiago Atitlán	14	Cerro de Oro	11	Noviembre	2023-01-11T00:00:00	2024-11-08T06:00:00	1	Precipitación	0
181632	7	Sololá	719	Santiago Atitlán	14	Cerro de Oro	11	Noviembre	2023-01-11T00:00:00	2024-11-08T06:00:00	8	Radiación solar	0
181633	7	Sololá	719	Santiago Atitlán	14	Cerro de Oro	11	Noviembre	2023-01-11T00:00:00	2024-11-08T07:00:00	2	Temperatura media	19.1
181634	7	Sololá	719	Santiago Atitlán	14	Cerro de Oro	11	Noviembre	2023-01-11T00:00:00	2024-11-08T07:00:00	4	Temperatura máxima	19.1
181635	7	Sololá	719	Santiago Atitlán	14	Cerro de Oro	11	Noviembre	2023-01-11T00:00:00	2024-11-08T07:00:00	3	Temperatura mínima	18.3
181636	7	Sololá	719	Santiago Atitlán	14	Cerro de Oro	11	Noviembre	2023-01-11T00:00:00	2024-11-08T07:00:00	5	Humedad	72
181637	7	Sololá	719	Santiago Atitlán	14	Cerro de Oro	11	Noviembre	2023-01-11T00:00:00	2024-11-08T07:00:00	6	Velocidad del viento	6.4
181638	7	Sololá	719	Santiago Atitlán	14	Cerro de Oro	11	Noviembre	2023-01-11T00:00:00	2024-11-08T07:00:00	7	Dirección del viento	6.44
181639	7	Sololá	719	Santiago Atitlán	14	Cerro de Oro	11	Noviembre	2023-01-11T00:00:00	2024-11-08T07:00:00	1	Precipitación	0
181640	7	Sololá	719	Santiago Atitlán	14	Cerro de Oro	11	Noviembre	2023-01-11T00:00:00	2024-11-08T07:00:00	8	Radiación solar	20
181641	7	Sololá	719	Santiago Atitlán	14	Cerro de Oro	11	Noviembre	2023-01-11T00:00:00	2024-11-08T08:00:00	2	Temperatura media	19.1
181642	7	Sololá	719	Santiago Atitlán	14	Cerro de Oro	11	Noviembre	2023-01-11T00:00:00	2024-11-08T08:00:00	4	Temperatura máxima	19.3
181643	7	Sololá	719	Santiago Atitlán	14	Cerro de Oro	11	Noviembre	2023-01-11T00:00:00	2024-11-08T08:00:00	3	Temperatura mínima	19
181644	7	Sololá	719	Santiago Atitlán	14	Cerro de Oro	11	Noviembre	2023-01-11T00:00:00	2024-11-08T08:00:00	5	Humedad	73
181645	7	Sololá	719	Santiago Atitlán	14	Cerro de Oro	11	Noviembre	2023-01-11T00:00:00	2024-11-08T08:00:00	6	Velocidad del viento	4.8
181646	7	Sololá	719	Santiago Atitlán	14	Cerro de Oro	11	Noviembre	2023-01-11T00:00:00	2024-11-08T08:00:00	7	Dirección del viento	4.83
181647	7	Sololá	719	Santiago Atitlán	14	Cerro de Oro	11	Noviembre	2023-01-11T00:00:00	2024-11-08T08:00:00	1	Precipitación	0
181648	7	Sololá	719	Santiago Atitlán	14	Cerro de Oro	11	Noviembre	2023-01-11T00:00:00	2024-11-08T08:00:00	8	Radiación solar	79
181649	7	Sololá	719	Santiago Atitlán	14	Cerro de Oro	11	Noviembre	2023-01-11T00:00:00	2024-11-08T09:00:00	2	Temperatura media	19.3
181650	7	Sololá	719	Santiago Atitlán	14	Cerro de Oro	11	Noviembre	2023-01-11T00:00:00	2024-11-08T09:00:00	4	Temperatura máxima	19.4
181651	7	Sololá	719	Santiago Atitlán	14	Cerro de Oro	11	Noviembre	2023-01-11T00:00:00	2024-11-08T09:00:00	3	Temperatura mínima	19
181652	7	Sololá	719	Santiago Atitlán	14	Cerro de Oro	11	Noviembre	2023-01-11T00:00:00	2024-11-08T09:00:00	5	Humedad	72
181653	7	Sololá	719	Santiago Atitlán	14	Cerro de Oro	11	Noviembre	2023-01-11T00:00:00	2024-11-08T09:00:00	6	Velocidad del viento	8
181654	7	Sololá	719	Santiago Atitlán	14	Cerro de Oro	11	Noviembre	2023-01-11T00:00:00	2024-11-08T09:00:00	7	Dirección del viento	8.05
181655	7	Sololá	719	Santiago Atitlán	14	Cerro de Oro	11	Noviembre	2023-01-11T00:00:00	2024-11-08T09:00:00	1	Precipitación	0
181656	7	Sololá	719	Santiago Atitlán	14	Cerro de Oro	11	Noviembre	2023-01-11T00:00:00	2024-11-08T09:00:00	8	Radiación solar	149
181657	7	Sololá	719	Santiago Atitlán	14	Cerro de Oro	11	Noviembre	2023-01-11T00:00:00	2024-11-08T10:00:00	2	Temperatura media	20.2
181658	7	Sololá	719	Santiago Atitlán	14	Cerro de Oro	11	Noviembre	2023-01-11T00:00:00	2024-11-08T10:00:00	4	Temperatura máxima	20.3
181659	7	Sololá	719	Santiago Atitlán	14	Cerro de Oro	11	Noviembre	2023-01-11T00:00:00	2024-11-08T10:00:00	3	Temperatura mínima	19.3
181660	7	Sololá	719	Santiago Atitlán	14	Cerro de Oro	11	Noviembre	2023-01-11T00:00:00	2024-11-08T10:00:00	5	Humedad	70
181661	7	Sololá	719	Santiago Atitlán	14	Cerro de Oro	11	Noviembre	2023-01-11T00:00:00	2024-11-08T10:00:00	6	Velocidad del viento	8
181662	7	Sololá	719	Santiago Atitlán	14	Cerro de Oro	11	Noviembre	2023-01-11T00:00:00	2024-11-08T10:00:00	7	Dirección del viento	8.05
181663	7	Sololá	719	Santiago Atitlán	14	Cerro de Oro	11	Noviembre	2023-01-11T00:00:00	2024-11-08T10:00:00	1	Precipitación	0
181664	7	Sololá	719	Santiago Atitlán	14	Cerro de Oro	11	Noviembre	2023-01-11T00:00:00	2024-11-08T10:00:00	8	Radiación solar	288
181665	7	Sololá	719	Santiago Atitlán	14	Cerro de Oro	11	Noviembre	2023-01-11T00:00:00	2024-11-08T11:00:00	2	Temperatura media	20.3
181666	7	Sololá	719	Santiago Atitlán	14	Cerro de Oro	11	Noviembre	2023-01-11T00:00:00	2024-11-08T11:00:00	4	Temperatura máxima	20.7
181667	7	Sololá	719	Santiago Atitlán	14	Cerro de Oro	11	Noviembre	2023-01-11T00:00:00	2024-11-08T11:00:00	3	Temperatura mínima	20.2
181668	7	Sololá	719	Santiago Atitlán	14	Cerro de Oro	11	Noviembre	2023-01-11T00:00:00	2024-11-08T11:00:00	5	Humedad	72
181669	7	Sololá	719	Santiago Atitlán	14	Cerro de Oro	11	Noviembre	2023-01-11T00:00:00	2024-11-08T11:00:00	6	Velocidad del viento	9.7
181670	7	Sololá	719	Santiago Atitlán	14	Cerro de Oro	11	Noviembre	2023-01-11T00:00:00	2024-11-08T11:00:00	7	Dirección del viento	9.66
181671	7	Sololá	719	Santiago Atitlán	14	Cerro de Oro	11	Noviembre	2023-01-11T00:00:00	2024-11-08T11:00:00	1	Precipitación	0
181672	7	Sololá	719	Santiago Atitlán	14	Cerro de Oro	11	Noviembre	2023-01-11T00:00:00	2024-11-08T11:00:00	8	Radiación solar	326
181673	7	Sololá	719	Santiago Atitlán	14	Cerro de Oro	11	Noviembre	2023-01-11T00:00:00	2024-11-08T12:00:00	2	Temperatura media	20.7
181674	7	Sololá	719	Santiago Atitlán	14	Cerro de Oro	11	Noviembre	2023-01-11T00:00:00	2024-11-08T12:00:00	4	Temperatura máxima	21.2
181675	7	Sololá	719	Santiago Atitlán	14	Cerro de Oro	11	Noviembre	2023-01-11T00:00:00	2024-11-08T12:00:00	3	Temperatura mínima	20.3
181676	7	Sololá	719	Santiago Atitlán	14	Cerro de Oro	11	Noviembre	2023-01-11T00:00:00	2024-11-08T12:00:00	5	Humedad	72
181677	7	Sololá	719	Santiago Atitlán	14	Cerro de Oro	11	Noviembre	2023-01-11T00:00:00	2024-11-08T12:00:00	6	Velocidad del viento	6.4
181678	7	Sololá	719	Santiago Atitlán	14	Cerro de Oro	11	Noviembre	2023-01-11T00:00:00	2024-11-08T12:00:00	7	Dirección del viento	6.44
181679	7	Sololá	719	Santiago Atitlán	14	Cerro de Oro	11	Noviembre	2023-01-11T00:00:00	2024-11-08T12:00:00	1	Precipitación	0
181680	7	Sololá	719	Santiago Atitlán	14	Cerro de Oro	11	Noviembre	2023-01-11T00:00:00	2024-11-08T12:00:00	8	Radiación solar	323
181681	7	Sololá	719	Santiago Atitlán	14	Cerro de Oro	11	Noviembre	2023-01-11T00:00:00	2024-11-08T13:00:00	2	Temperatura media	20
181682	7	Sololá	719	Santiago Atitlán	14	Cerro de Oro	11	Noviembre	2023-01-11T00:00:00	2024-11-08T13:00:00	4	Temperatura máxima	20.7
181683	7	Sololá	719	Santiago Atitlán	14	Cerro de Oro	11	Noviembre	2023-01-11T00:00:00	2024-11-08T13:00:00	3	Temperatura mínima	19.9
181684	7	Sololá	719	Santiago Atitlán	14	Cerro de Oro	11	Noviembre	2023-01-11T00:00:00	2024-11-08T13:00:00	5	Humedad	72
181685	7	Sololá	719	Santiago Atitlán	14	Cerro de Oro	11	Noviembre	2023-01-11T00:00:00	2024-11-08T13:00:00	6	Velocidad del viento	9.7
181686	7	Sololá	719	Santiago Atitlán	14	Cerro de Oro	11	Noviembre	2023-01-11T00:00:00	2024-11-08T13:00:00	7	Dirección del viento	9.66
181687	7	Sololá	719	Santiago Atitlán	14	Cerro de Oro	11	Noviembre	2023-01-11T00:00:00	2024-11-08T13:00:00	1	Precipitación	0
181688	7	Sololá	719	Santiago Atitlán	14	Cerro de Oro	11	Noviembre	2023-01-11T00:00:00	2024-11-08T13:00:00	8	Radiación solar	299
181689	7	Sololá	719	Santiago Atitlán	14	Cerro de Oro	11	Noviembre	2023-01-11T00:00:00	2024-11-08T14:00:00	2	Temperatura media	19.8
181690	7	Sololá	719	Santiago Atitlán	14	Cerro de Oro	11	Noviembre	2023-01-11T00:00:00	2024-11-08T14:00:00	4	Temperatura máxima	20.1
181691	7	Sololá	719	Santiago Atitlán	14	Cerro de Oro	11	Noviembre	2023-01-11T00:00:00	2024-11-08T14:00:00	3	Temperatura mínima	19.8
181692	7	Sololá	719	Santiago Atitlán	14	Cerro de Oro	11	Noviembre	2023-01-11T00:00:00	2024-11-08T14:00:00	5	Humedad	72
181693	7	Sololá	719	Santiago Atitlán	14	Cerro de Oro	11	Noviembre	2023-01-11T00:00:00	2024-11-08T14:00:00	6	Velocidad del viento	9.7
181694	7	Sololá	719	Santiago Atitlán	14	Cerro de Oro	11	Noviembre	2023-01-11T00:00:00	2024-11-08T14:00:00	7	Dirección del viento	9.66
181695	7	Sololá	719	Santiago Atitlán	14	Cerro de Oro	11	Noviembre	2023-01-11T00:00:00	2024-11-08T14:00:00	1	Precipitación	0
181696	7	Sololá	719	Santiago Atitlán	14	Cerro de Oro	11	Noviembre	2023-01-11T00:00:00	2024-11-08T14:00:00	8	Radiación solar	237
181697	7	Sololá	719	Santiago Atitlán	14	Cerro de Oro	11	Noviembre	2023-01-11T00:00:00	2024-11-08T15:00:00	2	Temperatura media	19.9
181698	7	Sololá	719	Santiago Atitlán	14	Cerro de Oro	11	Noviembre	2023-01-11T00:00:00	2024-11-08T15:00:00	4	Temperatura máxima	20.2
181699	7	Sololá	719	Santiago Atitlán	14	Cerro de Oro	11	Noviembre	2023-01-11T00:00:00	2024-11-08T15:00:00	3	Temperatura mínima	19.8
181700	7	Sololá	719	Santiago Atitlán	14	Cerro de Oro	11	Noviembre	2023-01-11T00:00:00	2024-11-08T15:00:00	5	Humedad	69
181701	7	Sololá	719	Santiago Atitlán	14	Cerro de Oro	11	Noviembre	2023-01-11T00:00:00	2024-11-08T15:00:00	6	Velocidad del viento	9.7
181702	7	Sololá	719	Santiago Atitlán	14	Cerro de Oro	11	Noviembre	2023-01-11T00:00:00	2024-11-08T15:00:00	7	Dirección del viento	9.66
181703	7	Sololá	719	Santiago Atitlán	14	Cerro de Oro	11	Noviembre	2023-01-11T00:00:00	2024-11-08T15:00:00	1	Precipitación	0
181704	7	Sololá	719	Santiago Atitlán	14	Cerro de Oro	11	Noviembre	2023-01-11T00:00:00	2024-11-08T15:00:00	8	Radiación solar	184
181705	7	Sololá	719	Santiago Atitlán	14	Cerro de Oro	11	Noviembre	2023-01-11T00:00:00	2024-11-08T16:00:00	2	Temperatura media	19.6
181706	7	Sololá	719	Santiago Atitlán	14	Cerro de Oro	11	Noviembre	2023-01-11T00:00:00	2024-11-08T16:00:00	4	Temperatura máxima	19.9
181707	7	Sololá	719	Santiago Atitlán	14	Cerro de Oro	11	Noviembre	2023-01-11T00:00:00	2024-11-08T16:00:00	3	Temperatura mínima	19.6
181708	7	Sololá	719	Santiago Atitlán	14	Cerro de Oro	11	Noviembre	2023-01-11T00:00:00	2024-11-08T16:00:00	5	Humedad	70
181709	7	Sololá	719	Santiago Atitlán	14	Cerro de Oro	11	Noviembre	2023-01-11T00:00:00	2024-11-08T16:00:00	6	Velocidad del viento	9.7
181710	7	Sololá	719	Santiago Atitlán	14	Cerro de Oro	11	Noviembre	2023-01-11T00:00:00	2024-11-08T16:00:00	7	Dirección del viento	9.66
181711	7	Sololá	719	Santiago Atitlán	14	Cerro de Oro	11	Noviembre	2023-01-11T00:00:00	2024-11-08T16:00:00	1	Precipitación	0
181712	7	Sololá	719	Santiago Atitlán	14	Cerro de Oro	11	Noviembre	2023-01-11T00:00:00	2024-11-08T16:00:00	8	Radiación solar	134
181713	7	Sololá	719	Santiago Atitlán	14	Cerro de Oro	11	Noviembre	2023-01-11T00:00:00	2024-11-08T17:00:00	2	Temperatura media	18.8
181714	7	Sololá	719	Santiago Atitlán	14	Cerro de Oro	11	Noviembre	2023-01-11T00:00:00	2024-11-08T17:00:00	4	Temperatura máxima	19.6
181715	7	Sololá	719	Santiago Atitlán	14	Cerro de Oro	11	Noviembre	2023-01-11T00:00:00	2024-11-08T17:00:00	3	Temperatura mínima	18.8
181716	7	Sololá	719	Santiago Atitlán	14	Cerro de Oro	11	Noviembre	2023-01-11T00:00:00	2024-11-08T17:00:00	5	Humedad	74
181717	7	Sololá	719	Santiago Atitlán	14	Cerro de Oro	11	Noviembre	2023-01-11T00:00:00	2024-11-08T17:00:00	6	Velocidad del viento	6.4
181718	7	Sololá	719	Santiago Atitlán	14	Cerro de Oro	11	Noviembre	2023-01-11T00:00:00	2024-11-08T17:00:00	7	Dirección del viento	6.44
181719	7	Sololá	719	Santiago Atitlán	14	Cerro de Oro	11	Noviembre	2023-01-11T00:00:00	2024-11-08T17:00:00	1	Precipitación	0
181720	7	Sololá	719	Santiago Atitlán	14	Cerro de Oro	11	Noviembre	2023-01-11T00:00:00	2024-11-08T17:00:00	8	Radiación solar	65
181721	7	Sololá	719	Santiago Atitlán	14	Cerro de Oro	11	Noviembre	2023-01-11T00:00:00	2024-11-08T18:00:00	2	Temperatura media	18.8
181722	7	Sololá	719	Santiago Atitlán	14	Cerro de Oro	11	Noviembre	2023-01-11T00:00:00	2024-11-08T18:00:00	4	Temperatura máxima	18.8
181723	7	Sololá	719	Santiago Atitlán	14	Cerro de Oro	11	Noviembre	2023-01-11T00:00:00	2024-11-08T18:00:00	3	Temperatura mínima	18.5
181724	7	Sololá	719	Santiago Atitlán	14	Cerro de Oro	11	Noviembre	2023-01-11T00:00:00	2024-11-08T18:00:00	5	Humedad	73
181725	7	Sololá	719	Santiago Atitlán	14	Cerro de Oro	11	Noviembre	2023-01-11T00:00:00	2024-11-08T18:00:00	6	Velocidad del viento	6.4
181726	7	Sololá	719	Santiago Atitlán	14	Cerro de Oro	11	Noviembre	2023-01-11T00:00:00	2024-11-08T18:00:00	7	Dirección del viento	6.44
181727	7	Sololá	719	Santiago Atitlán	14	Cerro de Oro	11	Noviembre	2023-01-11T00:00:00	2024-11-08T18:00:00	1	Precipitación	0
181728	7	Sololá	719	Santiago Atitlán	14	Cerro de Oro	11	Noviembre	2023-01-11T00:00:00	2024-11-08T18:00:00	8	Radiación solar	10
181729	7	Sololá	719	Santiago Atitlán	14	Cerro de Oro	11	Noviembre	2023-01-11T00:00:00	2024-11-08T19:00:00	2	Temperatura media	19.6
181730	7	Sololá	719	Santiago Atitlán	14	Cerro de Oro	11	Noviembre	2023-01-11T00:00:00	2024-11-08T19:00:00	4	Temperatura máxima	19.6
181731	7	Sololá	719	Santiago Atitlán	14	Cerro de Oro	11	Noviembre	2023-01-11T00:00:00	2024-11-08T19:00:00	3	Temperatura mínima	18.7
181732	7	Sololá	719	Santiago Atitlán	14	Cerro de Oro	11	Noviembre	2023-01-11T00:00:00	2024-11-08T19:00:00	5	Humedad	71
181733	7	Sololá	719	Santiago Atitlán	14	Cerro de Oro	11	Noviembre	2023-01-11T00:00:00	2024-11-08T19:00:00	6	Velocidad del viento	12.9
181734	7	Sololá	719	Santiago Atitlán	14	Cerro de Oro	11	Noviembre	2023-01-11T00:00:00	2024-11-08T19:00:00	7	Dirección del viento	12.87
181735	7	Sololá	719	Santiago Atitlán	14	Cerro de Oro	11	Noviembre	2023-01-11T00:00:00	2024-11-08T19:00:00	1	Precipitación	0
181736	7	Sololá	719	Santiago Atitlán	14	Cerro de Oro	11	Noviembre	2023-01-11T00:00:00	2024-11-08T19:00:00	8	Radiación solar	0
181737	7	Sololá	719	Santiago Atitlán	14	Cerro de Oro	11	Noviembre	2023-01-11T00:00:00	2024-11-08T20:00:00	2	Temperatura media	19.6
181738	7	Sololá	719	Santiago Atitlán	14	Cerro de Oro	11	Noviembre	2023-01-11T00:00:00	2024-11-08T20:00:00	4	Temperatura máxima	20.2
181739	7	Sololá	719	Santiago Atitlán	14	Cerro de Oro	11	Noviembre	2023-01-11T00:00:00	2024-11-08T20:00:00	3	Temperatura mínima	19.6
181740	7	Sololá	719	Santiago Atitlán	14	Cerro de Oro	11	Noviembre	2023-01-11T00:00:00	2024-11-08T20:00:00	5	Humedad	71
181741	7	Sololá	719	Santiago Atitlán	14	Cerro de Oro	11	Noviembre	2023-01-11T00:00:00	2024-11-08T20:00:00	6	Velocidad del viento	14.5
181742	7	Sololá	719	Santiago Atitlán	14	Cerro de Oro	11	Noviembre	2023-01-11T00:00:00	2024-11-08T20:00:00	7	Dirección del viento	14.48
181743	7	Sololá	719	Santiago Atitlán	14	Cerro de Oro	11	Noviembre	2023-01-11T00:00:00	2024-11-08T20:00:00	1	Precipitación	0
181744	7	Sololá	719	Santiago Atitlán	14	Cerro de Oro	11	Noviembre	2023-01-11T00:00:00	2024-11-08T20:00:00	8	Radiación solar	0
181745	7	Sololá	719	Santiago Atitlán	14	Cerro de Oro	11	Noviembre	2023-01-11T00:00:00	2024-11-08T21:00:00	2	Temperatura media	19.7
181746	7	Sololá	719	Santiago Atitlán	14	Cerro de Oro	11	Noviembre	2023-01-11T00:00:00	2024-11-08T21:00:00	4	Temperatura máxima	19.9
181747	7	Sololá	719	Santiago Atitlán	14	Cerro de Oro	11	Noviembre	2023-01-11T00:00:00	2024-11-08T21:00:00	3	Temperatura mínima	19.6
181748	7	Sololá	719	Santiago Atitlán	14	Cerro de Oro	11	Noviembre	2023-01-11T00:00:00	2024-11-08T21:00:00	5	Humedad	71
181749	7	Sololá	719	Santiago Atitlán	14	Cerro de Oro	11	Noviembre	2023-01-11T00:00:00	2024-11-08T21:00:00	6	Velocidad del viento	8
181750	7	Sololá	719	Santiago Atitlán	14	Cerro de Oro	11	Noviembre	2023-01-11T00:00:00	2024-11-08T21:00:00	7	Dirección del viento	8.05
181751	7	Sololá	719	Santiago Atitlán	14	Cerro de Oro	11	Noviembre	2023-01-11T00:00:00	2024-11-08T21:00:00	1	Precipitación	0
181752	7	Sololá	719	Santiago Atitlán	14	Cerro de Oro	11	Noviembre	2023-01-11T00:00:00	2024-11-08T21:00:00	8	Radiación solar	0
181753	7	Sololá	719	Santiago Atitlán	14	Cerro de Oro	11	Noviembre	2023-01-11T00:00:00	2024-11-08T22:00:00	2	Temperatura media	19.5
181754	7	Sololá	719	Santiago Atitlán	14	Cerro de Oro	11	Noviembre	2023-01-11T00:00:00	2024-11-08T22:00:00	4	Temperatura máxima	19.8
181755	7	Sololá	719	Santiago Atitlán	14	Cerro de Oro	11	Noviembre	2023-01-11T00:00:00	2024-11-08T22:00:00	3	Temperatura mínima	19.5
181756	7	Sololá	719	Santiago Atitlán	14	Cerro de Oro	11	Noviembre	2023-01-11T00:00:00	2024-11-08T22:00:00	5	Humedad	70
181757	7	Sololá	719	Santiago Atitlán	14	Cerro de Oro	11	Noviembre	2023-01-11T00:00:00	2024-11-08T22:00:00	6	Velocidad del viento	8
181758	7	Sololá	719	Santiago Atitlán	14	Cerro de Oro	11	Noviembre	2023-01-11T00:00:00	2024-11-08T22:00:00	7	Dirección del viento	8.05
181759	7	Sololá	719	Santiago Atitlán	14	Cerro de Oro	11	Noviembre	2023-01-11T00:00:00	2024-11-08T22:00:00	1	Precipitación	0
181760	7	Sololá	719	Santiago Atitlán	14	Cerro de Oro	11	Noviembre	2023-01-11T00:00:00	2024-11-08T22:00:00	8	Radiación solar	0
181761	7	Sololá	719	Santiago Atitlán	14	Cerro de Oro	11	Noviembre	2023-01-11T00:00:00	2024-11-08T23:00:00	2	Temperatura media	18.8
181762	7	Sololá	719	Santiago Atitlán	14	Cerro de Oro	11	Noviembre	2023-01-11T00:00:00	2024-11-08T23:00:00	4	Temperatura máxima	19.5
181763	7	Sololá	719	Santiago Atitlán	14	Cerro de Oro	11	Noviembre	2023-01-11T00:00:00	2024-11-08T23:00:00	3	Temperatura mínima	18.8
181764	7	Sololá	719	Santiago Atitlán	14	Cerro de Oro	11	Noviembre	2023-01-11T00:00:00	2024-11-08T23:00:00	5	Humedad	68
181765	7	Sololá	719	Santiago Atitlán	14	Cerro de Oro	11	Noviembre	2023-01-11T00:00:00	2024-11-08T23:00:00	6	Velocidad del viento	3.2
181766	7	Sololá	719	Santiago Atitlán	14	Cerro de Oro	11	Noviembre	2023-01-11T00:00:00	2024-11-08T23:00:00	7	Dirección del viento	3.22
181767	7	Sololá	719	Santiago Atitlán	14	Cerro de Oro	11	Noviembre	2023-01-11T00:00:00	2024-11-08T23:00:00	1	Precipitación	0
181768	7	Sololá	719	Santiago Atitlán	14	Cerro de Oro	11	Noviembre	2023-01-11T00:00:00	2024-11-08T23:00:00	8	Radiación solar	0
181769	7	Sololá	719	Santiago Atitlán	14	Cerro de Oro	11	Noviembre	2023-02-11T00:00:00	2024-11-08T00:00:00	2	Temperatura media	19.1
181770	7	Sololá	719	Santiago Atitlán	14	Cerro de Oro	11	Noviembre	2023-02-11T00:00:00	2024-11-08T00:00:00	4	Temperatura máxima	19.1
181771	7	Sololá	719	Santiago Atitlán	14	Cerro de Oro	11	Noviembre	2023-02-11T00:00:00	2024-11-08T00:00:00	3	Temperatura mínima	18.7
181772	7	Sololá	719	Santiago Atitlán	14	Cerro de Oro	11	Noviembre	2023-02-11T00:00:00	2024-11-08T00:00:00	5	Humedad	69
181773	7	Sololá	719	Santiago Atitlán	14	Cerro de Oro	11	Noviembre	2023-02-11T00:00:00	2024-11-08T00:00:00	6	Velocidad del viento	6.4
181774	7	Sololá	719	Santiago Atitlán	14	Cerro de Oro	11	Noviembre	2023-02-11T00:00:00	2024-11-08T00:00:00	7	Dirección del viento	6.44
181775	7	Sololá	719	Santiago Atitlán	14	Cerro de Oro	11	Noviembre	2023-02-11T00:00:00	2024-11-08T00:00:00	1	Precipitación	0
181776	7	Sololá	719	Santiago Atitlán	14	Cerro de Oro	11	Noviembre	2023-02-11T00:00:00	2024-11-08T00:00:00	8	Radiación solar	0
181777	7	Sololá	719	Santiago Atitlán	14	Cerro de Oro	11	Noviembre	2023-02-11T00:00:00	2024-11-08T01:00:00	2	Temperatura media	19
181778	7	Sololá	719	Santiago Atitlán	14	Cerro de Oro	11	Noviembre	2023-02-11T00:00:00	2024-11-08T01:00:00	4	Temperatura máxima	19.4
181779	7	Sololá	719	Santiago Atitlán	14	Cerro de Oro	11	Noviembre	2023-02-11T00:00:00	2024-11-08T01:00:00	3	Temperatura mínima	18.9
181780	7	Sololá	719	Santiago Atitlán	14	Cerro de Oro	11	Noviembre	2023-02-11T00:00:00	2024-11-08T01:00:00	5	Humedad	72
181781	7	Sololá	719	Santiago Atitlán	14	Cerro de Oro	11	Noviembre	2023-02-11T00:00:00	2024-11-08T01:00:00	6	Velocidad del viento	8
181782	7	Sololá	719	Santiago Atitlán	14	Cerro de Oro	11	Noviembre	2023-02-11T00:00:00	2024-11-08T01:00:00	7	Dirección del viento	8.05
181783	7	Sololá	719	Santiago Atitlán	14	Cerro de Oro	11	Noviembre	2023-02-11T00:00:00	2024-11-08T01:00:00	1	Precipitación	0
181784	7	Sololá	719	Santiago Atitlán	14	Cerro de Oro	11	Noviembre	2023-02-11T00:00:00	2024-11-08T01:00:00	8	Radiación solar	0
181785	7	Sololá	719	Santiago Atitlán	14	Cerro de Oro	11	Noviembre	2023-02-11T00:00:00	2024-11-08T02:00:00	2	Temperatura media	18.7
181786	7	Sololá	719	Santiago Atitlán	14	Cerro de Oro	11	Noviembre	2023-02-11T00:00:00	2024-11-08T02:00:00	4	Temperatura máxima	19
181787	7	Sololá	719	Santiago Atitlán	14	Cerro de Oro	11	Noviembre	2023-02-11T00:00:00	2024-11-08T02:00:00	3	Temperatura mínima	18.7
181788	7	Sololá	719	Santiago Atitlán	14	Cerro de Oro	11	Noviembre	2023-02-11T00:00:00	2024-11-08T02:00:00	5	Humedad	73
181789	7	Sololá	719	Santiago Atitlán	14	Cerro de Oro	11	Noviembre	2023-02-11T00:00:00	2024-11-08T02:00:00	6	Velocidad del viento	4.8
181790	7	Sololá	719	Santiago Atitlán	14	Cerro de Oro	11	Noviembre	2023-02-11T00:00:00	2024-11-08T02:00:00	7	Dirección del viento	4.83
181791	7	Sololá	719	Santiago Atitlán	14	Cerro de Oro	11	Noviembre	2023-02-11T00:00:00	2024-11-08T02:00:00	1	Precipitación	0
181792	7	Sololá	719	Santiago Atitlán	14	Cerro de Oro	11	Noviembre	2023-02-11T00:00:00	2024-11-08T02:00:00	8	Radiación solar	0
181793	7	Sololá	719	Santiago Atitlán	14	Cerro de Oro	11	Noviembre	2023-02-11T00:00:00	2024-11-08T03:00:00	2	Temperatura media	18.9
181794	7	Sololá	719	Santiago Atitlán	14	Cerro de Oro	11	Noviembre	2023-02-11T00:00:00	2024-11-08T03:00:00	4	Temperatura máxima	19.1
181795	7	Sololá	719	Santiago Atitlán	14	Cerro de Oro	11	Noviembre	2023-02-11T00:00:00	2024-11-08T03:00:00	3	Temperatura mínima	18.7
181796	7	Sololá	719	Santiago Atitlán	14	Cerro de Oro	11	Noviembre	2023-02-11T00:00:00	2024-11-08T03:00:00	5	Humedad	74
181797	7	Sololá	719	Santiago Atitlán	14	Cerro de Oro	11	Noviembre	2023-02-11T00:00:00	2024-11-08T03:00:00	6	Velocidad del viento	1.6
181798	7	Sololá	719	Santiago Atitlán	14	Cerro de Oro	11	Noviembre	2023-02-11T00:00:00	2024-11-08T03:00:00	7	Dirección del viento	1.61
181799	7	Sololá	719	Santiago Atitlán	14	Cerro de Oro	11	Noviembre	2023-02-11T00:00:00	2024-11-08T03:00:00	1	Precipitación	0
181800	7	Sololá	719	Santiago Atitlán	14	Cerro de Oro	11	Noviembre	2023-02-11T00:00:00	2024-11-08T03:00:00	8	Radiación solar	0
181801	7	Sololá	719	Santiago Atitlán	14	Cerro de Oro	11	Noviembre	2023-02-11T00:00:00	2024-11-08T04:00:00	2	Temperatura media	19.1
181802	7	Sololá	719	Santiago Atitlán	14	Cerro de Oro	11	Noviembre	2023-02-11T00:00:00	2024-11-08T04:00:00	4	Temperatura máxima	19.4
181803	7	Sololá	719	Santiago Atitlán	14	Cerro de Oro	11	Noviembre	2023-02-11T00:00:00	2024-11-08T04:00:00	3	Temperatura mínima	18.9
181804	7	Sololá	719	Santiago Atitlán	14	Cerro de Oro	11	Noviembre	2023-02-11T00:00:00	2024-11-08T04:00:00	5	Humedad	74
181805	7	Sololá	719	Santiago Atitlán	14	Cerro de Oro	11	Noviembre	2023-02-11T00:00:00	2024-11-08T04:00:00	6	Velocidad del viento	3.2
181806	7	Sololá	719	Santiago Atitlán	14	Cerro de Oro	11	Noviembre	2023-02-11T00:00:00	2024-11-08T04:00:00	7	Dirección del viento	3.22
181807	7	Sololá	719	Santiago Atitlán	14	Cerro de Oro	11	Noviembre	2023-02-11T00:00:00	2024-11-08T04:00:00	1	Precipitación	0
181808	7	Sololá	719	Santiago Atitlán	14	Cerro de Oro	11	Noviembre	2023-02-11T00:00:00	2024-11-08T04:00:00	8	Radiación solar	0
181809	7	Sololá	719	Santiago Atitlán	14	Cerro de Oro	11	Noviembre	2023-02-11T00:00:00	2024-11-08T05:00:00	2	Temperatura media	19.8
181810	7	Sololá	719	Santiago Atitlán	14	Cerro de Oro	11	Noviembre	2023-02-11T00:00:00	2024-11-08T05:00:00	4	Temperatura máxima	19.8
181811	7	Sololá	719	Santiago Atitlán	14	Cerro de Oro	11	Noviembre	2023-02-11T00:00:00	2024-11-08T05:00:00	3	Temperatura mínima	19.1
181812	7	Sololá	719	Santiago Atitlán	14	Cerro de Oro	11	Noviembre	2023-02-11T00:00:00	2024-11-08T05:00:00	5	Humedad	72
181813	7	Sololá	719	Santiago Atitlán	14	Cerro de Oro	11	Noviembre	2023-02-11T00:00:00	2024-11-08T05:00:00	6	Velocidad del viento	6.4
181814	7	Sololá	719	Santiago Atitlán	14	Cerro de Oro	11	Noviembre	2023-02-11T00:00:00	2024-11-08T05:00:00	7	Dirección del viento	6.44
181815	7	Sololá	719	Santiago Atitlán	14	Cerro de Oro	11	Noviembre	2023-02-11T00:00:00	2024-11-08T05:00:00	1	Precipitación	0
181816	7	Sololá	719	Santiago Atitlán	14	Cerro de Oro	11	Noviembre	2023-02-11T00:00:00	2024-11-08T05:00:00	8	Radiación solar	0
181817	7	Sololá	719	Santiago Atitlán	14	Cerro de Oro	11	Noviembre	2023-02-11T00:00:00	2024-11-08T06:00:00	2	Temperatura media	20.9
181818	7	Sololá	719	Santiago Atitlán	14	Cerro de Oro	11	Noviembre	2023-02-11T00:00:00	2024-11-08T06:00:00	4	Temperatura máxima	20.9
181819	7	Sololá	719	Santiago Atitlán	14	Cerro de Oro	11	Noviembre	2023-02-11T00:00:00	2024-11-08T06:00:00	3	Temperatura mínima	19.8
181820	7	Sololá	719	Santiago Atitlán	14	Cerro de Oro	11	Noviembre	2023-02-11T00:00:00	2024-11-08T06:00:00	5	Humedad	69
181821	7	Sololá	719	Santiago Atitlán	14	Cerro de Oro	11	Noviembre	2023-02-11T00:00:00	2024-11-08T06:00:00	6	Velocidad del viento	12.9
181822	7	Sololá	719	Santiago Atitlán	14	Cerro de Oro	11	Noviembre	2023-02-11T00:00:00	2024-11-08T06:00:00	7	Dirección del viento	12.87
181823	7	Sololá	719	Santiago Atitlán	14	Cerro de Oro	11	Noviembre	2023-02-11T00:00:00	2024-11-08T06:00:00	1	Precipitación	0
181824	7	Sololá	719	Santiago Atitlán	14	Cerro de Oro	11	Noviembre	2023-02-11T00:00:00	2024-11-08T06:00:00	8	Radiación solar	0
181825	7	Sololá	719	Santiago Atitlán	14	Cerro de Oro	11	Noviembre	2023-02-11T00:00:00	2024-11-08T07:00:00	2	Temperatura media	20.6
181826	7	Sololá	719	Santiago Atitlán	14	Cerro de Oro	11	Noviembre	2023-02-11T00:00:00	2024-11-08T07:00:00	4	Temperatura máxima	20.9
181827	7	Sololá	719	Santiago Atitlán	14	Cerro de Oro	11	Noviembre	2023-02-11T00:00:00	2024-11-08T07:00:00	3	Temperatura mínima	20.2
181828	7	Sololá	719	Santiago Atitlán	14	Cerro de Oro	11	Noviembre	2023-02-11T00:00:00	2024-11-08T07:00:00	5	Humedad	72
181829	7	Sololá	719	Santiago Atitlán	14	Cerro de Oro	11	Noviembre	2023-02-11T00:00:00	2024-11-08T07:00:00	6	Velocidad del viento	12.9
181830	7	Sololá	719	Santiago Atitlán	14	Cerro de Oro	11	Noviembre	2023-02-11T00:00:00	2024-11-08T07:00:00	7	Dirección del viento	12.87
181831	7	Sololá	719	Santiago Atitlán	14	Cerro de Oro	11	Noviembre	2023-02-11T00:00:00	2024-11-08T07:00:00	1	Precipitación	0
181832	7	Sololá	719	Santiago Atitlán	14	Cerro de Oro	11	Noviembre	2023-02-11T00:00:00	2024-11-08T07:00:00	8	Radiación solar	68
181833	7	Sololá	719	Santiago Atitlán	14	Cerro de Oro	11	Noviembre	2023-02-11T00:00:00	2024-11-08T08:00:00	2	Temperatura media	21.8
181834	7	Sololá	719	Santiago Atitlán	14	Cerro de Oro	11	Noviembre	2023-02-11T00:00:00	2024-11-08T08:00:00	4	Temperatura máxima	21.8
181835	7	Sololá	719	Santiago Atitlán	14	Cerro de Oro	11	Noviembre	2023-02-11T00:00:00	2024-11-08T08:00:00	3	Temperatura mínima	20.4
181836	7	Sololá	719	Santiago Atitlán	14	Cerro de Oro	11	Noviembre	2023-02-11T00:00:00	2024-11-08T08:00:00	5	Humedad	70
181837	7	Sololá	719	Santiago Atitlán	14	Cerro de Oro	11	Noviembre	2023-02-11T00:00:00	2024-11-08T08:00:00	6	Velocidad del viento	12.9
181838	7	Sololá	719	Santiago Atitlán	14	Cerro de Oro	11	Noviembre	2023-02-11T00:00:00	2024-11-08T08:00:00	7	Dirección del viento	12.87
181839	7	Sololá	719	Santiago Atitlán	14	Cerro de Oro	11	Noviembre	2023-02-11T00:00:00	2024-11-08T08:00:00	1	Precipitación	0
181840	7	Sololá	719	Santiago Atitlán	14	Cerro de Oro	11	Noviembre	2023-02-11T00:00:00	2024-11-08T08:00:00	8	Radiación solar	342
181841	7	Sololá	719	Santiago Atitlán	14	Cerro de Oro	11	Noviembre	2023-02-11T00:00:00	2024-11-08T09:00:00	2	Temperatura media	22.2
181842	7	Sololá	719	Santiago Atitlán	14	Cerro de Oro	11	Noviembre	2023-02-11T00:00:00	2024-11-08T09:00:00	4	Temperatura máxima	22.3
181843	7	Sololá	719	Santiago Atitlán	14	Cerro de Oro	11	Noviembre	2023-02-11T00:00:00	2024-11-08T09:00:00	3	Temperatura mínima	21.4
181844	7	Sololá	719	Santiago Atitlán	14	Cerro de Oro	11	Noviembre	2023-02-11T00:00:00	2024-11-08T09:00:00	5	Humedad	69
181845	7	Sololá	719	Santiago Atitlán	14	Cerro de Oro	11	Noviembre	2023-02-11T00:00:00	2024-11-08T09:00:00	6	Velocidad del viento	12.9
181846	7	Sololá	719	Santiago Atitlán	14	Cerro de Oro	11	Noviembre	2023-02-11T00:00:00	2024-11-08T09:00:00	7	Dirección del viento	12.87
181847	7	Sololá	719	Santiago Atitlán	14	Cerro de Oro	11	Noviembre	2023-02-11T00:00:00	2024-11-08T09:00:00	1	Precipitación	0
181848	7	Sololá	719	Santiago Atitlán	14	Cerro de Oro	11	Noviembre	2023-02-11T00:00:00	2024-11-08T09:00:00	8	Radiación solar	424
181849	7	Sololá	719	Santiago Atitlán	14	Cerro de Oro	11	Noviembre	2023-02-11T00:00:00	2024-11-08T10:00:00	2	Temperatura media	24.3
181850	7	Sololá	719	Santiago Atitlán	14	Cerro de Oro	11	Noviembre	2023-02-11T00:00:00	2024-11-08T10:00:00	4	Temperatura máxima	24.3
181851	7	Sololá	719	Santiago Atitlán	14	Cerro de Oro	11	Noviembre	2023-02-11T00:00:00	2024-11-08T10:00:00	3	Temperatura mínima	22.2
181852	7	Sololá	719	Santiago Atitlán	14	Cerro de Oro	11	Noviembre	2023-02-11T00:00:00	2024-11-08T10:00:00	5	Humedad	64
181853	7	Sololá	719	Santiago Atitlán	14	Cerro de Oro	11	Noviembre	2023-02-11T00:00:00	2024-11-08T10:00:00	6	Velocidad del viento	8
181854	7	Sololá	719	Santiago Atitlán	14	Cerro de Oro	11	Noviembre	2023-02-11T00:00:00	2024-11-08T10:00:00	7	Dirección del viento	8.05
181855	7	Sololá	719	Santiago Atitlán	14	Cerro de Oro	11	Noviembre	2023-02-11T00:00:00	2024-11-08T10:00:00	1	Precipitación	0
181856	7	Sololá	719	Santiago Atitlán	14	Cerro de Oro	11	Noviembre	2023-02-11T00:00:00	2024-11-08T10:00:00	8	Radiación solar	811
181857	7	Sololá	719	Santiago Atitlán	14	Cerro de Oro	11	Noviembre	2023-02-11T00:00:00	2024-11-08T11:00:00	2	Temperatura media	24.2
181858	7	Sololá	719	Santiago Atitlán	14	Cerro de Oro	11	Noviembre	2023-02-11T00:00:00	2024-11-08T11:00:00	4	Temperatura máxima	24.3
181859	7	Sololá	719	Santiago Atitlán	14	Cerro de Oro	11	Noviembre	2023-02-11T00:00:00	2024-11-08T11:00:00	3	Temperatura mínima	23.5
181860	7	Sololá	719	Santiago Atitlán	14	Cerro de Oro	11	Noviembre	2023-02-11T00:00:00	2024-11-08T11:00:00	5	Humedad	64
181861	7	Sololá	719	Santiago Atitlán	14	Cerro de Oro	11	Noviembre	2023-02-11T00:00:00	2024-11-08T11:00:00	6	Velocidad del viento	8
181862	7	Sololá	719	Santiago Atitlán	14	Cerro de Oro	11	Noviembre	2023-02-11T00:00:00	2024-11-08T11:00:00	7	Dirección del viento	8.05
181863	7	Sololá	719	Santiago Atitlán	14	Cerro de Oro	11	Noviembre	2023-02-11T00:00:00	2024-11-08T11:00:00	1	Precipitación	0
181864	7	Sololá	719	Santiago Atitlán	14	Cerro de Oro	11	Noviembre	2023-02-11T00:00:00	2024-11-08T11:00:00	8	Radiación solar	788
181865	7	Sololá	719	Santiago Atitlán	14	Cerro de Oro	11	Noviembre	2023-02-11T00:00:00	2024-11-08T12:00:00	2	Temperatura media	24.6
181866	7	Sololá	719	Santiago Atitlán	14	Cerro de Oro	11	Noviembre	2023-02-11T00:00:00	2024-11-08T12:00:00	4	Temperatura máxima	25.1
181867	7	Sololá	719	Santiago Atitlán	14	Cerro de Oro	11	Noviembre	2023-02-11T00:00:00	2024-11-08T12:00:00	3	Temperatura mínima	23.6
181868	7	Sololá	719	Santiago Atitlán	14	Cerro de Oro	11	Noviembre	2023-02-11T00:00:00	2024-11-08T12:00:00	5	Humedad	64
181869	7	Sololá	719	Santiago Atitlán	14	Cerro de Oro	11	Noviembre	2023-02-11T00:00:00	2024-11-08T12:00:00	6	Velocidad del viento	8
181870	7	Sololá	719	Santiago Atitlán	14	Cerro de Oro	11	Noviembre	2023-02-11T00:00:00	2024-11-08T12:00:00	7	Dirección del viento	8.05
181871	7	Sololá	719	Santiago Atitlán	14	Cerro de Oro	11	Noviembre	2023-02-11T00:00:00	2024-11-08T12:00:00	1	Precipitación	0
181872	7	Sololá	719	Santiago Atitlán	14	Cerro de Oro	11	Noviembre	2023-02-11T00:00:00	2024-11-08T12:00:00	8	Radiación solar	955
181873	7	Sololá	719	Santiago Atitlán	14	Cerro de Oro	11	Noviembre	2023-02-11T00:00:00	2024-11-08T13:00:00	2	Temperatura media	24.2
181874	7	Sololá	719	Santiago Atitlán	14	Cerro de Oro	11	Noviembre	2023-02-11T00:00:00	2024-11-08T13:00:00	4	Temperatura máxima	24.7
181875	7	Sololá	719	Santiago Atitlán	14	Cerro de Oro	11	Noviembre	2023-02-11T00:00:00	2024-11-08T13:00:00	3	Temperatura mínima	23.5
181876	7	Sololá	719	Santiago Atitlán	14	Cerro de Oro	11	Noviembre	2023-02-11T00:00:00	2024-11-08T13:00:00	5	Humedad	63
181877	7	Sololá	719	Santiago Atitlán	14	Cerro de Oro	11	Noviembre	2023-02-11T00:00:00	2024-11-08T13:00:00	6	Velocidad del viento	6.4
181878	7	Sololá	719	Santiago Atitlán	14	Cerro de Oro	11	Noviembre	2023-02-11T00:00:00	2024-11-08T13:00:00	7	Dirección del viento	6.44
181879	7	Sololá	719	Santiago Atitlán	14	Cerro de Oro	11	Noviembre	2023-02-11T00:00:00	2024-11-08T13:00:00	1	Precipitación	0
181880	7	Sololá	719	Santiago Atitlán	14	Cerro de Oro	11	Noviembre	2023-02-11T00:00:00	2024-11-08T13:00:00	8	Radiación solar	558
181881	7	Sololá	719	Santiago Atitlán	14	Cerro de Oro	11	Noviembre	2023-02-11T00:00:00	2024-11-08T14:00:00	2	Temperatura media	22.2
181882	7	Sololá	719	Santiago Atitlán	14	Cerro de Oro	11	Noviembre	2023-02-11T00:00:00	2024-11-08T14:00:00	4	Temperatura máxima	24.2
181883	7	Sololá	719	Santiago Atitlán	14	Cerro de Oro	11	Noviembre	2023-02-11T00:00:00	2024-11-08T14:00:00	3	Temperatura mínima	22.1
181884	7	Sololá	719	Santiago Atitlán	14	Cerro de Oro	11	Noviembre	2023-02-11T00:00:00	2024-11-08T14:00:00	5	Humedad	68
181885	7	Sololá	719	Santiago Atitlán	14	Cerro de Oro	11	Noviembre	2023-02-11T00:00:00	2024-11-08T14:00:00	6	Velocidad del viento	6.4
181886	7	Sololá	719	Santiago Atitlán	14	Cerro de Oro	11	Noviembre	2023-02-11T00:00:00	2024-11-08T14:00:00	7	Dirección del viento	6.44
181887	7	Sololá	719	Santiago Atitlán	14	Cerro de Oro	11	Noviembre	2023-02-11T00:00:00	2024-11-08T14:00:00	1	Precipitación	0
181888	7	Sololá	719	Santiago Atitlán	14	Cerro de Oro	11	Noviembre	2023-02-11T00:00:00	2024-11-08T14:00:00	8	Radiación solar	339
181889	7	Sololá	719	Santiago Atitlán	14	Cerro de Oro	11	Noviembre	2023-02-11T00:00:00	2024-11-08T15:00:00	2	Temperatura media	22.1
181890	7	Sololá	719	Santiago Atitlán	14	Cerro de Oro	11	Noviembre	2023-02-11T00:00:00	2024-11-08T15:00:00	4	Temperatura máxima	22.5
181891	7	Sololá	719	Santiago Atitlán	14	Cerro de Oro	11	Noviembre	2023-02-11T00:00:00	2024-11-08T15:00:00	3	Temperatura mínima	21.9
181892	7	Sololá	719	Santiago Atitlán	14	Cerro de Oro	11	Noviembre	2023-02-11T00:00:00	2024-11-08T15:00:00	5	Humedad	68
181893	7	Sololá	719	Santiago Atitlán	14	Cerro de Oro	11	Noviembre	2023-02-11T00:00:00	2024-11-08T15:00:00	6	Velocidad del viento	6.4
181894	7	Sololá	719	Santiago Atitlán	14	Cerro de Oro	11	Noviembre	2023-02-11T00:00:00	2024-11-08T15:00:00	7	Dirección del viento	6.44
181895	7	Sololá	719	Santiago Atitlán	14	Cerro de Oro	11	Noviembre	2023-02-11T00:00:00	2024-11-08T15:00:00	1	Precipitación	0
181896	7	Sololá	719	Santiago Atitlán	14	Cerro de Oro	11	Noviembre	2023-02-11T00:00:00	2024-11-08T15:00:00	8	Radiación solar	256
181897	7	Sololá	719	Santiago Atitlán	14	Cerro de Oro	11	Noviembre	2023-02-11T00:00:00	2024-11-08T16:00:00	2	Temperatura media	21.3
181898	7	Sololá	719	Santiago Atitlán	14	Cerro de Oro	11	Noviembre	2023-02-11T00:00:00	2024-11-08T16:00:00	4	Temperatura máxima	22.1
181899	7	Sololá	719	Santiago Atitlán	14	Cerro de Oro	11	Noviembre	2023-02-11T00:00:00	2024-11-08T16:00:00	3	Temperatura mínima	21.3
181900	7	Sololá	719	Santiago Atitlán	14	Cerro de Oro	11	Noviembre	2023-02-11T00:00:00	2024-11-08T16:00:00	5	Humedad	69
181901	7	Sololá	719	Santiago Atitlán	14	Cerro de Oro	11	Noviembre	2023-02-11T00:00:00	2024-11-08T16:00:00	6	Velocidad del viento	9.7
181902	7	Sololá	719	Santiago Atitlán	14	Cerro de Oro	11	Noviembre	2023-02-11T00:00:00	2024-11-08T16:00:00	7	Dirección del viento	9.66
181903	7	Sololá	719	Santiago Atitlán	14	Cerro de Oro	11	Noviembre	2023-02-11T00:00:00	2024-11-08T16:00:00	1	Precipitación	0
181904	7	Sololá	719	Santiago Atitlán	14	Cerro de Oro	11	Noviembre	2023-02-11T00:00:00	2024-11-08T16:00:00	8	Radiación solar	120
181905	7	Sololá	719	Santiago Atitlán	14	Cerro de Oro	11	Noviembre	2023-02-11T00:00:00	2024-11-08T17:00:00	2	Temperatura media	21.1
181906	7	Sololá	719	Santiago Atitlán	14	Cerro de Oro	11	Noviembre	2023-02-11T00:00:00	2024-11-08T17:00:00	4	Temperatura máxima	21.4
181907	7	Sololá	719	Santiago Atitlán	14	Cerro de Oro	11	Noviembre	2023-02-11T00:00:00	2024-11-08T17:00:00	3	Temperatura mínima	21.1
181908	7	Sololá	719	Santiago Atitlán	14	Cerro de Oro	11	Noviembre	2023-02-11T00:00:00	2024-11-08T17:00:00	5	Humedad	70
181909	7	Sololá	719	Santiago Atitlán	14	Cerro de Oro	11	Noviembre	2023-02-11T00:00:00	2024-11-08T17:00:00	6	Velocidad del viento	9.7
181910	7	Sololá	719	Santiago Atitlán	14	Cerro de Oro	11	Noviembre	2023-02-11T00:00:00	2024-11-08T17:00:00	7	Dirección del viento	9.66
181911	7	Sololá	719	Santiago Atitlán	14	Cerro de Oro	11	Noviembre	2023-02-11T00:00:00	2024-11-08T17:00:00	1	Precipitación	0
181912	7	Sololá	719	Santiago Atitlán	14	Cerro de Oro	11	Noviembre	2023-02-11T00:00:00	2024-11-08T17:00:00	8	Radiación solar	64
181913	7	Sololá	719	Santiago Atitlán	14	Cerro de Oro	11	Noviembre	2023-02-11T00:00:00	2024-11-08T18:00:00	2	Temperatura media	20.5
181914	7	Sololá	719	Santiago Atitlán	14	Cerro de Oro	11	Noviembre	2023-02-11T00:00:00	2024-11-08T18:00:00	4	Temperatura máxima	21.1
181915	7	Sololá	719	Santiago Atitlán	14	Cerro de Oro	11	Noviembre	2023-02-11T00:00:00	2024-11-08T18:00:00	3	Temperatura mínima	20.5
181916	7	Sololá	719	Santiago Atitlán	14	Cerro de Oro	11	Noviembre	2023-02-11T00:00:00	2024-11-08T18:00:00	5	Humedad	71
181917	7	Sololá	719	Santiago Atitlán	14	Cerro de Oro	11	Noviembre	2023-02-11T00:00:00	2024-11-08T18:00:00	6	Velocidad del viento	4.8
181918	7	Sololá	719	Santiago Atitlán	14	Cerro de Oro	11	Noviembre	2023-02-11T00:00:00	2024-11-08T18:00:00	7	Dirección del viento	4.83
181919	7	Sololá	719	Santiago Atitlán	14	Cerro de Oro	11	Noviembre	2023-02-11T00:00:00	2024-11-08T18:00:00	1	Precipitación	0
181920	7	Sololá	719	Santiago Atitlán	14	Cerro de Oro	11	Noviembre	2023-02-11T00:00:00	2024-11-08T18:00:00	8	Radiación solar	8
181921	7	Sololá	719	Santiago Atitlán	14	Cerro de Oro	11	Noviembre	2023-02-11T00:00:00	2024-11-08T19:00:00	2	Temperatura media	20.3
181922	7	Sololá	719	Santiago Atitlán	14	Cerro de Oro	11	Noviembre	2023-02-11T00:00:00	2024-11-08T19:00:00	4	Temperatura máxima	20.6
181923	7	Sololá	719	Santiago Atitlán	14	Cerro de Oro	11	Noviembre	2023-02-11T00:00:00	2024-11-08T19:00:00	3	Temperatura mínima	20.2
181924	7	Sololá	719	Santiago Atitlán	14	Cerro de Oro	11	Noviembre	2023-02-11T00:00:00	2024-11-08T19:00:00	5	Humedad	72
181925	7	Sololá	719	Santiago Atitlán	14	Cerro de Oro	11	Noviembre	2023-02-11T00:00:00	2024-11-08T19:00:00	6	Velocidad del viento	6.4
181926	7	Sololá	719	Santiago Atitlán	14	Cerro de Oro	11	Noviembre	2023-02-11T00:00:00	2024-11-08T19:00:00	7	Dirección del viento	6.44
181927	7	Sololá	719	Santiago Atitlán	14	Cerro de Oro	11	Noviembre	2023-02-11T00:00:00	2024-11-08T19:00:00	1	Precipitación	0
181928	7	Sololá	719	Santiago Atitlán	14	Cerro de Oro	11	Noviembre	2023-02-11T00:00:00	2024-11-08T19:00:00	8	Radiación solar	0
181929	7	Sololá	719	Santiago Atitlán	14	Cerro de Oro	11	Noviembre	2023-02-11T00:00:00	2024-11-08T20:00:00	2	Temperatura media	20.5
181930	7	Sololá	719	Santiago Atitlán	14	Cerro de Oro	11	Noviembre	2023-02-11T00:00:00	2024-11-08T20:00:00	4	Temperatura máxima	20.6
181931	7	Sololá	719	Santiago Atitlán	14	Cerro de Oro	11	Noviembre	2023-02-11T00:00:00	2024-11-08T20:00:00	3	Temperatura mínima	20.3
181932	7	Sololá	719	Santiago Atitlán	14	Cerro de Oro	11	Noviembre	2023-02-11T00:00:00	2024-11-08T20:00:00	5	Humedad	71
181933	7	Sololá	719	Santiago Atitlán	14	Cerro de Oro	11	Noviembre	2023-02-11T00:00:00	2024-11-08T20:00:00	6	Velocidad del viento	11.3
181934	7	Sololá	719	Santiago Atitlán	14	Cerro de Oro	11	Noviembre	2023-02-11T00:00:00	2024-11-08T20:00:00	7	Dirección del viento	11.27
181935	7	Sololá	719	Santiago Atitlán	14	Cerro de Oro	11	Noviembre	2023-02-11T00:00:00	2024-11-08T20:00:00	1	Precipitación	0
181936	7	Sololá	719	Santiago Atitlán	14	Cerro de Oro	11	Noviembre	2023-02-11T00:00:00	2024-11-08T20:00:00	8	Radiación solar	0
181937	7	Sololá	719	Santiago Atitlán	14	Cerro de Oro	11	Noviembre	2023-02-11T00:00:00	2024-11-08T21:00:00	2	Temperatura media	20.4
181938	7	Sololá	719	Santiago Atitlán	14	Cerro de Oro	11	Noviembre	2023-02-11T00:00:00	2024-11-08T21:00:00	4	Temperatura máxima	20.6
181939	7	Sololá	719	Santiago Atitlán	14	Cerro de Oro	11	Noviembre	2023-02-11T00:00:00	2024-11-08T21:00:00	3	Temperatura mínima	20.3
181940	7	Sololá	719	Santiago Atitlán	14	Cerro de Oro	11	Noviembre	2023-02-11T00:00:00	2024-11-08T21:00:00	5	Humedad	72
181941	7	Sololá	719	Santiago Atitlán	14	Cerro de Oro	11	Noviembre	2023-02-11T00:00:00	2024-11-08T21:00:00	6	Velocidad del viento	11.3
181942	7	Sololá	719	Santiago Atitlán	14	Cerro de Oro	11	Noviembre	2023-02-11T00:00:00	2024-11-08T21:00:00	7	Dirección del viento	11.27
181943	7	Sololá	719	Santiago Atitlán	14	Cerro de Oro	11	Noviembre	2023-02-11T00:00:00	2024-11-08T21:00:00	1	Precipitación	0
181944	7	Sololá	719	Santiago Atitlán	14	Cerro de Oro	11	Noviembre	2023-02-11T00:00:00	2024-11-08T21:00:00	8	Radiación solar	0
181945	7	Sololá	719	Santiago Atitlán	14	Cerro de Oro	11	Noviembre	2023-02-11T00:00:00	2024-11-08T22:00:00	2	Temperatura media	20.2
181946	7	Sololá	719	Santiago Atitlán	14	Cerro de Oro	11	Noviembre	2023-02-11T00:00:00	2024-11-08T22:00:00	4	Temperatura máxima	20.4
181947	7	Sololá	719	Santiago Atitlán	14	Cerro de Oro	11	Noviembre	2023-02-11T00:00:00	2024-11-08T22:00:00	3	Temperatura mínima	20.2
181948	7	Sololá	719	Santiago Atitlán	14	Cerro de Oro	11	Noviembre	2023-02-11T00:00:00	2024-11-08T22:00:00	5	Humedad	72
181949	7	Sololá	719	Santiago Atitlán	14	Cerro de Oro	11	Noviembre	2023-02-11T00:00:00	2024-11-08T22:00:00	6	Velocidad del viento	6.4
181950	7	Sololá	719	Santiago Atitlán	14	Cerro de Oro	11	Noviembre	2023-02-11T00:00:00	2024-11-08T22:00:00	7	Dirección del viento	6.44
181951	7	Sololá	719	Santiago Atitlán	14	Cerro de Oro	11	Noviembre	2023-02-11T00:00:00	2024-11-08T22:00:00	1	Precipitación	0
181952	7	Sololá	719	Santiago Atitlán	14	Cerro de Oro	11	Noviembre	2023-02-11T00:00:00	2024-11-08T22:00:00	8	Radiación solar	0
181953	7	Sololá	719	Santiago Atitlán	14	Cerro de Oro	11	Noviembre	2023-02-11T00:00:00	2024-11-08T23:00:00	2	Temperatura media	20.1
181954	7	Sololá	719	Santiago Atitlán	14	Cerro de Oro	11	Noviembre	2023-02-11T00:00:00	2024-11-08T23:00:00	4	Temperatura máxima	20.4
181955	7	Sololá	719	Santiago Atitlán	14	Cerro de Oro	11	Noviembre	2023-02-11T00:00:00	2024-11-08T23:00:00	3	Temperatura mínima	20.1
181956	7	Sololá	719	Santiago Atitlán	14	Cerro de Oro	11	Noviembre	2023-02-11T00:00:00	2024-11-08T23:00:00	5	Humedad	71
181957	7	Sololá	719	Santiago Atitlán	14	Cerro de Oro	11	Noviembre	2023-02-11T00:00:00	2024-11-08T23:00:00	6	Velocidad del viento	9.7
181958	7	Sololá	719	Santiago Atitlán	14	Cerro de Oro	11	Noviembre	2023-02-11T00:00:00	2024-11-08T23:00:00	7	Dirección del viento	9.66
181959	7	Sololá	719	Santiago Atitlán	14	Cerro de Oro	11	Noviembre	2023-02-11T00:00:00	2024-11-08T23:00:00	1	Precipitación	0
181960	7	Sololá	719	Santiago Atitlán	14	Cerro de Oro	11	Noviembre	2023-02-11T00:00:00	2024-11-08T23:00:00	8	Radiación solar	0
181961	7	Sololá	719	Santiago Atitlán	14	Cerro de Oro	11	Noviembre	2023-03-11T00:00:00	2024-11-08T00:00:00	2	Temperatura media	19.8
181962	7	Sololá	719	Santiago Atitlán	14	Cerro de Oro	11	Noviembre	2023-03-11T00:00:00	2024-11-08T00:00:00	4	Temperatura máxima	20.1
181963	7	Sololá	719	Santiago Atitlán	14	Cerro de Oro	11	Noviembre	2023-03-11T00:00:00	2024-11-08T00:00:00	3	Temperatura mínima	19.8
181964	7	Sololá	719	Santiago Atitlán	14	Cerro de Oro	11	Noviembre	2023-03-11T00:00:00	2024-11-08T00:00:00	5	Humedad	70
181965	7	Sololá	719	Santiago Atitlán	14	Cerro de Oro	11	Noviembre	2023-03-11T00:00:00	2024-11-08T00:00:00	6	Velocidad del viento	8
181966	7	Sololá	719	Santiago Atitlán	14	Cerro de Oro	11	Noviembre	2023-03-11T00:00:00	2024-11-08T00:00:00	7	Dirección del viento	8.05
181967	7	Sololá	719	Santiago Atitlán	14	Cerro de Oro	11	Noviembre	2023-03-11T00:00:00	2024-11-08T00:00:00	1	Precipitación	0
181968	7	Sololá	719	Santiago Atitlán	14	Cerro de Oro	11	Noviembre	2023-03-11T00:00:00	2024-11-08T00:00:00	8	Radiación solar	0
181969	7	Sololá	719	Santiago Atitlán	14	Cerro de Oro	11	Noviembre	2023-03-11T00:00:00	2024-11-08T01:00:00	2	Temperatura media	19.4
181970	7	Sololá	719	Santiago Atitlán	14	Cerro de Oro	11	Noviembre	2023-03-11T00:00:00	2024-11-08T01:00:00	4	Temperatura máxima	19.8
181971	7	Sololá	719	Santiago Atitlán	14	Cerro de Oro	11	Noviembre	2023-03-11T00:00:00	2024-11-08T01:00:00	3	Temperatura mínima	19.3
181972	7	Sololá	719	Santiago Atitlán	14	Cerro de Oro	11	Noviembre	2023-03-11T00:00:00	2024-11-08T01:00:00	5	Humedad	71
181973	7	Sololá	719	Santiago Atitlán	14	Cerro de Oro	11	Noviembre	2023-03-11T00:00:00	2024-11-08T01:00:00	6	Velocidad del viento	11.3
181974	7	Sololá	719	Santiago Atitlán	14	Cerro de Oro	11	Noviembre	2023-03-11T00:00:00	2024-11-08T01:00:00	7	Dirección del viento	11.27
181975	7	Sololá	719	Santiago Atitlán	14	Cerro de Oro	11	Noviembre	2023-03-11T00:00:00	2024-11-08T01:00:00	1	Precipitación	0
181976	7	Sololá	719	Santiago Atitlán	14	Cerro de Oro	11	Noviembre	2023-03-11T00:00:00	2024-11-08T01:00:00	8	Radiación solar	0
181977	7	Sololá	719	Santiago Atitlán	14	Cerro de Oro	11	Noviembre	2023-03-11T00:00:00	2024-11-08T02:00:00	2	Temperatura media	19.1
181978	7	Sololá	719	Santiago Atitlán	14	Cerro de Oro	11	Noviembre	2023-03-11T00:00:00	2024-11-08T02:00:00	4	Temperatura máxima	19.4
181979	7	Sololá	719	Santiago Atitlán	14	Cerro de Oro	11	Noviembre	2023-03-11T00:00:00	2024-11-08T02:00:00	3	Temperatura mínima	19.1
181980	7	Sololá	719	Santiago Atitlán	14	Cerro de Oro	11	Noviembre	2023-03-11T00:00:00	2024-11-08T02:00:00	5	Humedad	70
181981	7	Sololá	719	Santiago Atitlán	14	Cerro de Oro	11	Noviembre	2023-03-11T00:00:00	2024-11-08T02:00:00	6	Velocidad del viento	11.3
181982	7	Sololá	719	Santiago Atitlán	14	Cerro de Oro	11	Noviembre	2023-03-11T00:00:00	2024-11-08T02:00:00	7	Dirección del viento	11.27
181983	7	Sololá	719	Santiago Atitlán	14	Cerro de Oro	11	Noviembre	2023-03-11T00:00:00	2024-11-08T02:00:00	1	Precipitación	0
181984	7	Sololá	719	Santiago Atitlán	14	Cerro de Oro	11	Noviembre	2023-03-11T00:00:00	2024-11-08T02:00:00	8	Radiación solar	0
181985	7	Sololá	719	Santiago Atitlán	14	Cerro de Oro	11	Noviembre	2023-03-11T00:00:00	2024-11-08T03:00:00	2	Temperatura media	18.7
181986	7	Sololá	719	Santiago Atitlán	14	Cerro de Oro	11	Noviembre	2023-03-11T00:00:00	2024-11-08T03:00:00	4	Temperatura máxima	19.2
181987	7	Sololá	719	Santiago Atitlán	14	Cerro de Oro	11	Noviembre	2023-03-11T00:00:00	2024-11-08T03:00:00	3	Temperatura mínima	18.7
181988	7	Sololá	719	Santiago Atitlán	14	Cerro de Oro	11	Noviembre	2023-03-11T00:00:00	2024-11-08T03:00:00	5	Humedad	71
181989	7	Sololá	719	Santiago Atitlán	14	Cerro de Oro	11	Noviembre	2023-03-11T00:00:00	2024-11-08T03:00:00	6	Velocidad del viento	8
181990	7	Sololá	719	Santiago Atitlán	14	Cerro de Oro	11	Noviembre	2023-03-11T00:00:00	2024-11-08T03:00:00	7	Dirección del viento	8.05
181991	7	Sololá	719	Santiago Atitlán	14	Cerro de Oro	11	Noviembre	2023-03-11T00:00:00	2024-11-08T03:00:00	1	Precipitación	0
181992	7	Sololá	719	Santiago Atitlán	14	Cerro de Oro	11	Noviembre	2023-03-11T00:00:00	2024-11-08T03:00:00	8	Radiación solar	0
181993	7	Sololá	719	Santiago Atitlán	14	Cerro de Oro	11	Noviembre	2023-03-11T00:00:00	2024-11-08T04:00:00	2	Temperatura media	18.6
181994	7	Sololá	719	Santiago Atitlán	14	Cerro de Oro	11	Noviembre	2023-03-11T00:00:00	2024-11-08T04:00:00	4	Temperatura máxima	18.8
181995	7	Sololá	719	Santiago Atitlán	14	Cerro de Oro	11	Noviembre	2023-03-11T00:00:00	2024-11-08T04:00:00	3	Temperatura mínima	18.5
181996	7	Sololá	719	Santiago Atitlán	14	Cerro de Oro	11	Noviembre	2023-03-11T00:00:00	2024-11-08T04:00:00	5	Humedad	71
181997	7	Sololá	719	Santiago Atitlán	14	Cerro de Oro	11	Noviembre	2023-03-11T00:00:00	2024-11-08T04:00:00	6	Velocidad del viento	8
181998	7	Sololá	719	Santiago Atitlán	14	Cerro de Oro	11	Noviembre	2023-03-11T00:00:00	2024-11-08T04:00:00	7	Dirección del viento	8.05
181999	7	Sololá	719	Santiago Atitlán	14	Cerro de Oro	11	Noviembre	2023-03-11T00:00:00	2024-11-08T04:00:00	1	Precipitación	0
182000	7	Sololá	719	Santiago Atitlán	14	Cerro de Oro	11	Noviembre	2023-03-11T00:00:00	2024-11-08T04:00:00	8	Radiación solar	0
182001	7	Sololá	719	Santiago Atitlán	14	Cerro de Oro	11	Noviembre	2023-03-11T00:00:00	2024-11-08T05:00:00	2	Temperatura media	18.4
182002	7	Sololá	719	Santiago Atitlán	14	Cerro de Oro	11	Noviembre	2023-03-11T00:00:00	2024-11-08T05:00:00	4	Temperatura máxima	18.7
182003	7	Sololá	719	Santiago Atitlán	14	Cerro de Oro	11	Noviembre	2023-03-11T00:00:00	2024-11-08T05:00:00	3	Temperatura mínima	18.3
182004	7	Sololá	719	Santiago Atitlán	14	Cerro de Oro	11	Noviembre	2023-03-11T00:00:00	2024-11-08T05:00:00	5	Humedad	72
182005	7	Sololá	719	Santiago Atitlán	14	Cerro de Oro	11	Noviembre	2023-03-11T00:00:00	2024-11-08T05:00:00	6	Velocidad del viento	9.7
182006	7	Sololá	719	Santiago Atitlán	14	Cerro de Oro	11	Noviembre	2023-03-11T00:00:00	2024-11-08T05:00:00	7	Dirección del viento	9.66
182007	7	Sololá	719	Santiago Atitlán	14	Cerro de Oro	11	Noviembre	2023-03-11T00:00:00	2024-11-08T05:00:00	1	Precipitación	0
182008	7	Sololá	719	Santiago Atitlán	14	Cerro de Oro	11	Noviembre	2023-03-11T00:00:00	2024-11-08T05:00:00	8	Radiación solar	0
182009	7	Sololá	719	Santiago Atitlán	14	Cerro de Oro	11	Noviembre	2023-03-11T00:00:00	2024-11-08T06:00:00	2	Temperatura media	18.6
182010	7	Sololá	719	Santiago Atitlán	14	Cerro de Oro	11	Noviembre	2023-03-11T00:00:00	2024-11-08T06:00:00	4	Temperatura máxima	18.7
182011	7	Sololá	719	Santiago Atitlán	14	Cerro de Oro	11	Noviembre	2023-03-11T00:00:00	2024-11-08T06:00:00	3	Temperatura mínima	18.4
182012	7	Sololá	719	Santiago Atitlán	14	Cerro de Oro	11	Noviembre	2023-03-11T00:00:00	2024-11-08T06:00:00	5	Humedad	69
182013	7	Sololá	719	Santiago Atitlán	14	Cerro de Oro	11	Noviembre	2023-03-11T00:00:00	2024-11-08T06:00:00	6	Velocidad del viento	12.9
182014	7	Sololá	719	Santiago Atitlán	14	Cerro de Oro	11	Noviembre	2023-03-11T00:00:00	2024-11-08T06:00:00	7	Dirección del viento	12.87
182015	7	Sololá	719	Santiago Atitlán	14	Cerro de Oro	11	Noviembre	2023-03-11T00:00:00	2024-11-08T06:00:00	1	Precipitación	0
182016	7	Sololá	719	Santiago Atitlán	14	Cerro de Oro	11	Noviembre	2023-03-11T00:00:00	2024-11-08T06:00:00	8	Radiación solar	0
182017	7	Sololá	719	Santiago Atitlán	14	Cerro de Oro	11	Noviembre	2023-03-11T00:00:00	2024-11-08T07:00:00	2	Temperatura media	19.2
182018	7	Sololá	719	Santiago Atitlán	14	Cerro de Oro	11	Noviembre	2023-03-11T00:00:00	2024-11-08T07:00:00	4	Temperatura máxima	19.2
182019	7	Sololá	719	Santiago Atitlán	14	Cerro de Oro	11	Noviembre	2023-03-11T00:00:00	2024-11-08T07:00:00	3	Temperatura mínima	18.6
182020	7	Sololá	719	Santiago Atitlán	14	Cerro de Oro	11	Noviembre	2023-03-11T00:00:00	2024-11-08T07:00:00	5	Humedad	66
182021	7	Sololá	719	Santiago Atitlán	14	Cerro de Oro	11	Noviembre	2023-03-11T00:00:00	2024-11-08T07:00:00	6	Velocidad del viento	9.7
182022	7	Sololá	719	Santiago Atitlán	14	Cerro de Oro	11	Noviembre	2023-03-11T00:00:00	2024-11-08T07:00:00	7	Dirección del viento	9.66
182023	7	Sololá	719	Santiago Atitlán	14	Cerro de Oro	11	Noviembre	2023-03-11T00:00:00	2024-11-08T07:00:00	1	Precipitación	0
182024	7	Sololá	719	Santiago Atitlán	14	Cerro de Oro	11	Noviembre	2023-03-11T00:00:00	2024-11-08T07:00:00	8	Radiación solar	13
182025	7	Sololá	719	Santiago Atitlán	14	Cerro de Oro	11	Noviembre	2023-03-11T00:00:00	2024-11-08T08:00:00	2	Temperatura media	20.2
182026	7	Sololá	719	Santiago Atitlán	14	Cerro de Oro	11	Noviembre	2023-03-11T00:00:00	2024-11-08T08:00:00	4	Temperatura máxima	20.2
182027	7	Sololá	719	Santiago Atitlán	14	Cerro de Oro	11	Noviembre	2023-03-11T00:00:00	2024-11-08T08:00:00	3	Temperatura mínima	19.2
182028	7	Sololá	719	Santiago Atitlán	14	Cerro de Oro	11	Noviembre	2023-03-11T00:00:00	2024-11-08T08:00:00	5	Humedad	64
182029	7	Sololá	719	Santiago Atitlán	14	Cerro de Oro	11	Noviembre	2023-03-11T00:00:00	2024-11-08T08:00:00	6	Velocidad del viento	9.7
182030	7	Sololá	719	Santiago Atitlán	14	Cerro de Oro	11	Noviembre	2023-03-11T00:00:00	2024-11-08T08:00:00	7	Dirección del viento	9.66
182031	7	Sololá	719	Santiago Atitlán	14	Cerro de Oro	11	Noviembre	2023-03-11T00:00:00	2024-11-08T08:00:00	1	Precipitación	0
182032	7	Sololá	719	Santiago Atitlán	14	Cerro de Oro	11	Noviembre	2023-03-11T00:00:00	2024-11-08T08:00:00	8	Radiación solar	82
182033	7	Sololá	719	Santiago Atitlán	14	Cerro de Oro	11	Noviembre	2023-03-11T00:00:00	2024-11-08T09:00:00	2	Temperatura media	21.3
182034	7	Sololá	719	Santiago Atitlán	14	Cerro de Oro	11	Noviembre	2023-03-11T00:00:00	2024-11-08T09:00:00	4	Temperatura máxima	21.3
182035	7	Sololá	719	Santiago Atitlán	14	Cerro de Oro	11	Noviembre	2023-03-11T00:00:00	2024-11-08T09:00:00	3	Temperatura mínima	20.1
182036	7	Sololá	719	Santiago Atitlán	14	Cerro de Oro	11	Noviembre	2023-03-11T00:00:00	2024-11-08T09:00:00	5	Humedad	63
182037	7	Sololá	719	Santiago Atitlán	14	Cerro de Oro	11	Noviembre	2023-03-11T00:00:00	2024-11-08T09:00:00	6	Velocidad del viento	8
182038	7	Sololá	719	Santiago Atitlán	14	Cerro de Oro	11	Noviembre	2023-03-11T00:00:00	2024-11-08T09:00:00	7	Dirección del viento	8.05
182039	7	Sololá	719	Santiago Atitlán	14	Cerro de Oro	11	Noviembre	2023-03-11T00:00:00	2024-11-08T09:00:00	1	Precipitación	0
182040	7	Sololá	719	Santiago Atitlán	14	Cerro de Oro	11	Noviembre	2023-03-11T00:00:00	2024-11-08T09:00:00	8	Radiación solar	242
182041	7	Sololá	719	Santiago Atitlán	14	Cerro de Oro	11	Noviembre	2023-03-11T00:00:00	2024-11-08T10:00:00	2	Temperatura media	21.1
182042	7	Sololá	719	Santiago Atitlán	14	Cerro de Oro	11	Noviembre	2023-03-11T00:00:00	2024-11-08T10:00:00	4	Temperatura máxima	21.4
182043	7	Sololá	719	Santiago Atitlán	14	Cerro de Oro	11	Noviembre	2023-03-11T00:00:00	2024-11-08T10:00:00	3	Temperatura mínima	21
182044	7	Sololá	719	Santiago Atitlán	14	Cerro de Oro	11	Noviembre	2023-03-11T00:00:00	2024-11-08T10:00:00	5	Humedad	64
182045	7	Sololá	719	Santiago Atitlán	14	Cerro de Oro	11	Noviembre	2023-03-11T00:00:00	2024-11-08T10:00:00	6	Velocidad del viento	6.4
182046	7	Sololá	719	Santiago Atitlán	14	Cerro de Oro	11	Noviembre	2023-03-11T00:00:00	2024-11-08T10:00:00	7	Dirección del viento	6.44
182047	7	Sololá	719	Santiago Atitlán	14	Cerro de Oro	11	Noviembre	2023-03-11T00:00:00	2024-11-08T10:00:00	1	Precipitación	0
182048	7	Sololá	719	Santiago Atitlán	14	Cerro de Oro	11	Noviembre	2023-03-11T00:00:00	2024-11-08T10:00:00	8	Radiación solar	173
182049	7	Sololá	719	Santiago Atitlán	14	Cerro de Oro	11	Noviembre	2023-03-11T00:00:00	2024-11-08T11:00:00	2	Temperatura media	21.9
182050	7	Sololá	719	Santiago Atitlán	14	Cerro de Oro	11	Noviembre	2023-03-11T00:00:00	2024-11-08T11:00:00	4	Temperatura máxima	22
182051	7	Sololá	719	Santiago Atitlán	14	Cerro de Oro	11	Noviembre	2023-03-11T00:00:00	2024-11-08T11:00:00	3	Temperatura mínima	21.1
182052	7	Sololá	719	Santiago Atitlán	14	Cerro de Oro	11	Noviembre	2023-03-11T00:00:00	2024-11-08T11:00:00	5	Humedad	65
182053	7	Sololá	719	Santiago Atitlán	14	Cerro de Oro	11	Noviembre	2023-03-11T00:00:00	2024-11-08T11:00:00	6	Velocidad del viento	6.4
182054	7	Sololá	719	Santiago Atitlán	14	Cerro de Oro	11	Noviembre	2023-03-11T00:00:00	2024-11-08T11:00:00	7	Dirección del viento	6.44
182055	7	Sololá	719	Santiago Atitlán	14	Cerro de Oro	11	Noviembre	2023-03-11T00:00:00	2024-11-08T11:00:00	1	Precipitación	0
182056	7	Sololá	719	Santiago Atitlán	14	Cerro de Oro	11	Noviembre	2023-03-11T00:00:00	2024-11-08T11:00:00	8	Radiación solar	244
182057	7	Sololá	719	Santiago Atitlán	14	Cerro de Oro	11	Noviembre	2023-03-11T00:00:00	2024-11-08T12:00:00	2	Temperatura media	23.2
182058	7	Sololá	719	Santiago Atitlán	14	Cerro de Oro	11	Noviembre	2023-03-11T00:00:00	2024-11-08T12:00:00	4	Temperatura máxima	23.3
182059	7	Sololá	719	Santiago Atitlán	14	Cerro de Oro	11	Noviembre	2023-03-11T00:00:00	2024-11-08T12:00:00	3	Temperatura mínima	22
182060	7	Sololá	719	Santiago Atitlán	14	Cerro de Oro	11	Noviembre	2023-03-11T00:00:00	2024-11-08T12:00:00	5	Humedad	62
182061	7	Sololá	719	Santiago Atitlán	14	Cerro de Oro	11	Noviembre	2023-03-11T00:00:00	2024-11-08T12:00:00	6	Velocidad del viento	6.4
182062	7	Sololá	719	Santiago Atitlán	14	Cerro de Oro	11	Noviembre	2023-03-11T00:00:00	2024-11-08T12:00:00	7	Dirección del viento	6.44
182063	7	Sololá	719	Santiago Atitlán	14	Cerro de Oro	11	Noviembre	2023-03-11T00:00:00	2024-11-08T12:00:00	1	Precipitación	0
182064	7	Sololá	719	Santiago Atitlán	14	Cerro de Oro	11	Noviembre	2023-03-11T00:00:00	2024-11-08T12:00:00	8	Radiación solar	371
182065	7	Sololá	719	Santiago Atitlán	14	Cerro de Oro	11	Noviembre	2023-03-11T00:00:00	2024-11-08T13:00:00	2	Temperatura media	22.9
182066	7	Sololá	719	Santiago Atitlán	14	Cerro de Oro	11	Noviembre	2023-03-11T00:00:00	2024-11-08T13:00:00	4	Temperatura máxima	23.3
182067	7	Sololá	719	Santiago Atitlán	14	Cerro de Oro	11	Noviembre	2023-03-11T00:00:00	2024-11-08T13:00:00	3	Temperatura mínima	22.9
182068	7	Sololá	719	Santiago Atitlán	14	Cerro de Oro	11	Noviembre	2023-03-11T00:00:00	2024-11-08T13:00:00	5	Humedad	63
182069	7	Sololá	719	Santiago Atitlán	14	Cerro de Oro	11	Noviembre	2023-03-11T00:00:00	2024-11-08T13:00:00	6	Velocidad del viento	8
182070	7	Sololá	719	Santiago Atitlán	14	Cerro de Oro	11	Noviembre	2023-03-11T00:00:00	2024-11-08T13:00:00	7	Dirección del viento	8.05
182071	7	Sololá	719	Santiago Atitlán	14	Cerro de Oro	11	Noviembre	2023-03-11T00:00:00	2024-11-08T13:00:00	1	Precipitación	0
182072	7	Sololá	719	Santiago Atitlán	14	Cerro de Oro	11	Noviembre	2023-03-11T00:00:00	2024-11-08T13:00:00	8	Radiación solar	265
182073	7	Sololá	719	Santiago Atitlán	14	Cerro de Oro	11	Noviembre	2023-03-11T00:00:00	2024-11-08T14:00:00	2	Temperatura media	21.9
182074	7	Sololá	719	Santiago Atitlán	14	Cerro de Oro	11	Noviembre	2023-03-11T00:00:00	2024-11-08T14:00:00	4	Temperatura máxima	22.9
182075	7	Sololá	719	Santiago Atitlán	14	Cerro de Oro	11	Noviembre	2023-03-11T00:00:00	2024-11-08T14:00:00	3	Temperatura mínima	21.9
182076	7	Sololá	719	Santiago Atitlán	14	Cerro de Oro	11	Noviembre	2023-03-11T00:00:00	2024-11-08T14:00:00	5	Humedad	66
182077	7	Sololá	719	Santiago Atitlán	14	Cerro de Oro	11	Noviembre	2023-03-11T00:00:00	2024-11-08T14:00:00	6	Velocidad del viento	8
182078	7	Sololá	719	Santiago Atitlán	14	Cerro de Oro	11	Noviembre	2023-03-11T00:00:00	2024-11-08T14:00:00	7	Dirección del viento	8.05
182079	7	Sololá	719	Santiago Atitlán	14	Cerro de Oro	11	Noviembre	2023-03-11T00:00:00	2024-11-08T14:00:00	1	Precipitación	0
182080	7	Sololá	719	Santiago Atitlán	14	Cerro de Oro	11	Noviembre	2023-03-11T00:00:00	2024-11-08T14:00:00	8	Radiación solar	169
182081	7	Sololá	719	Santiago Atitlán	14	Cerro de Oro	11	Noviembre	2023-03-11T00:00:00	2024-11-08T15:00:00	2	Temperatura media	21.8
182082	7	Sololá	719	Santiago Atitlán	14	Cerro de Oro	11	Noviembre	2023-03-11T00:00:00	2024-11-08T15:00:00	4	Temperatura máxima	21.9
182083	7	Sololá	719	Santiago Atitlán	14	Cerro de Oro	11	Noviembre	2023-03-11T00:00:00	2024-11-08T15:00:00	3	Temperatura mínima	21.6
182084	7	Sololá	719	Santiago Atitlán	14	Cerro de Oro	11	Noviembre	2023-03-11T00:00:00	2024-11-08T15:00:00	5	Humedad	67
182085	7	Sololá	719	Santiago Atitlán	14	Cerro de Oro	11	Noviembre	2023-03-11T00:00:00	2024-11-08T15:00:00	6	Velocidad del viento	11.3
182086	7	Sololá	719	Santiago Atitlán	14	Cerro de Oro	11	Noviembre	2023-03-11T00:00:00	2024-11-08T15:00:00	7	Dirección del viento	11.27
182087	7	Sololá	719	Santiago Atitlán	14	Cerro de Oro	11	Noviembre	2023-03-11T00:00:00	2024-11-08T15:00:00	1	Precipitación	0
182088	7	Sololá	719	Santiago Atitlán	14	Cerro de Oro	11	Noviembre	2023-03-11T00:00:00	2024-11-08T15:00:00	8	Radiación solar	123
182089	7	Sololá	719	Santiago Atitlán	14	Cerro de Oro	11	Noviembre	2023-03-11T00:00:00	2024-11-08T16:00:00	2	Temperatura media	22.1
182090	7	Sololá	719	Santiago Atitlán	14	Cerro de Oro	11	Noviembre	2023-03-11T00:00:00	2024-11-08T16:00:00	4	Temperatura máxima	22.3
182091	7	Sololá	719	Santiago Atitlán	14	Cerro de Oro	11	Noviembre	2023-03-11T00:00:00	2024-11-08T16:00:00	3	Temperatura mínima	21.8
182092	7	Sololá	719	Santiago Atitlán	14	Cerro de Oro	11	Noviembre	2023-03-11T00:00:00	2024-11-08T16:00:00	5	Humedad	67
182093	7	Sololá	719	Santiago Atitlán	14	Cerro de Oro	11	Noviembre	2023-03-11T00:00:00	2024-11-08T16:00:00	6	Velocidad del viento	9.7
182094	7	Sololá	719	Santiago Atitlán	14	Cerro de Oro	11	Noviembre	2023-03-11T00:00:00	2024-11-08T16:00:00	7	Dirección del viento	9.66
182095	7	Sololá	719	Santiago Atitlán	14	Cerro de Oro	11	Noviembre	2023-03-11T00:00:00	2024-11-08T16:00:00	1	Precipitación	0
182096	7	Sololá	719	Santiago Atitlán	14	Cerro de Oro	11	Noviembre	2023-03-11T00:00:00	2024-11-08T16:00:00	8	Radiación solar	201
182097	7	Sololá	719	Santiago Atitlán	14	Cerro de Oro	11	Noviembre	2023-03-11T00:00:00	2024-11-08T17:00:00	2	Temperatura media	21.5
182098	7	Sololá	719	Santiago Atitlán	14	Cerro de Oro	11	Noviembre	2023-03-11T00:00:00	2024-11-08T17:00:00	4	Temperatura máxima	22.2
182099	7	Sololá	719	Santiago Atitlán	14	Cerro de Oro	11	Noviembre	2023-03-11T00:00:00	2024-11-08T17:00:00	3	Temperatura mínima	21.5
182100	7	Sololá	719	Santiago Atitlán	14	Cerro de Oro	11	Noviembre	2023-03-11T00:00:00	2024-11-08T17:00:00	5	Humedad	64
182101	7	Sololá	719	Santiago Atitlán	14	Cerro de Oro	11	Noviembre	2023-03-11T00:00:00	2024-11-08T17:00:00	6	Velocidad del viento	6.4
182102	7	Sololá	719	Santiago Atitlán	14	Cerro de Oro	11	Noviembre	2023-03-11T00:00:00	2024-11-08T17:00:00	7	Dirección del viento	6.44
182103	7	Sololá	719	Santiago Atitlán	14	Cerro de Oro	11	Noviembre	2023-03-11T00:00:00	2024-11-08T17:00:00	1	Precipitación	0
182104	7	Sololá	719	Santiago Atitlán	14	Cerro de Oro	11	Noviembre	2023-03-11T00:00:00	2024-11-08T17:00:00	8	Radiación solar	131
182105	7	Sololá	719	Santiago Atitlán	14	Cerro de Oro	11	Noviembre	2023-03-11T00:00:00	2024-11-08T18:00:00	2	Temperatura media	20.2
182106	7	Sololá	719	Santiago Atitlán	14	Cerro de Oro	11	Noviembre	2023-03-11T00:00:00	2024-11-08T18:00:00	4	Temperatura máxima	21.5
182107	7	Sololá	719	Santiago Atitlán	14	Cerro de Oro	11	Noviembre	2023-03-11T00:00:00	2024-11-08T18:00:00	3	Temperatura mínima	20.2
182108	7	Sololá	719	Santiago Atitlán	14	Cerro de Oro	11	Noviembre	2023-03-11T00:00:00	2024-11-08T18:00:00	5	Humedad	68
182109	7	Sololá	719	Santiago Atitlán	14	Cerro de Oro	11	Noviembre	2023-03-11T00:00:00	2024-11-08T18:00:00	6	Velocidad del viento	8
182110	7	Sololá	719	Santiago Atitlán	14	Cerro de Oro	11	Noviembre	2023-03-11T00:00:00	2024-11-08T18:00:00	7	Dirección del viento	8.05
182111	7	Sololá	719	Santiago Atitlán	14	Cerro de Oro	11	Noviembre	2023-03-11T00:00:00	2024-11-08T18:00:00	1	Precipitación	0
182112	7	Sololá	719	Santiago Atitlán	14	Cerro de Oro	11	Noviembre	2023-03-11T00:00:00	2024-11-08T18:00:00	8	Radiación solar	16
182113	7	Sololá	719	Santiago Atitlán	14	Cerro de Oro	11	Noviembre	2023-03-11T00:00:00	2024-11-08T19:00:00	2	Temperatura media	20.3
182114	7	Sololá	719	Santiago Atitlán	14	Cerro de Oro	11	Noviembre	2023-03-11T00:00:00	2024-11-08T19:00:00	4	Temperatura máxima	20.3
182115	7	Sololá	719	Santiago Atitlán	14	Cerro de Oro	11	Noviembre	2023-03-11T00:00:00	2024-11-08T19:00:00	3	Temperatura mínima	20.1
182116	7	Sololá	719	Santiago Atitlán	14	Cerro de Oro	11	Noviembre	2023-03-11T00:00:00	2024-11-08T19:00:00	5	Humedad	65
182117	7	Sololá	719	Santiago Atitlán	14	Cerro de Oro	11	Noviembre	2023-03-11T00:00:00	2024-11-08T19:00:00	6	Velocidad del viento	12.9
182118	7	Sololá	719	Santiago Atitlán	14	Cerro de Oro	11	Noviembre	2023-03-11T00:00:00	2024-11-08T19:00:00	7	Dirección del viento	12.87
182119	7	Sololá	719	Santiago Atitlán	14	Cerro de Oro	11	Noviembre	2023-03-11T00:00:00	2024-11-08T19:00:00	1	Precipitación	0
182120	7	Sololá	719	Santiago Atitlán	14	Cerro de Oro	11	Noviembre	2023-03-11T00:00:00	2024-11-08T19:00:00	8	Radiación solar	0
182121	7	Sololá	719	Santiago Atitlán	14	Cerro de Oro	11	Noviembre	2023-03-11T00:00:00	2024-11-08T20:00:00	2	Temperatura media	20.1
182122	7	Sololá	719	Santiago Atitlán	14	Cerro de Oro	11	Noviembre	2023-03-11T00:00:00	2024-11-08T20:00:00	4	Temperatura máxima	20.3
182123	7	Sololá	719	Santiago Atitlán	14	Cerro de Oro	11	Noviembre	2023-03-11T00:00:00	2024-11-08T20:00:00	3	Temperatura mínima	20.1
182124	7	Sololá	719	Santiago Atitlán	14	Cerro de Oro	11	Noviembre	2023-03-11T00:00:00	2024-11-08T20:00:00	5	Humedad	66
182125	7	Sololá	719	Santiago Atitlán	14	Cerro de Oro	11	Noviembre	2023-03-11T00:00:00	2024-11-08T20:00:00	6	Velocidad del viento	9.7
182126	7	Sololá	719	Santiago Atitlán	14	Cerro de Oro	11	Noviembre	2023-03-11T00:00:00	2024-11-08T20:00:00	7	Dirección del viento	9.66
182127	7	Sololá	719	Santiago Atitlán	14	Cerro de Oro	11	Noviembre	2023-03-11T00:00:00	2024-11-08T20:00:00	1	Precipitación	0
182128	7	Sololá	719	Santiago Atitlán	14	Cerro de Oro	11	Noviembre	2023-03-11T00:00:00	2024-11-08T20:00:00	8	Radiación solar	0
182129	7	Sololá	719	Santiago Atitlán	14	Cerro de Oro	11	Noviembre	2023-03-11T00:00:00	2024-11-08T21:00:00	2	Temperatura media	20.4
182130	7	Sololá	719	Santiago Atitlán	14	Cerro de Oro	11	Noviembre	2023-03-11T00:00:00	2024-11-08T21:00:00	4	Temperatura máxima	20.5
182131	7	Sololá	719	Santiago Atitlán	14	Cerro de Oro	11	Noviembre	2023-03-11T00:00:00	2024-11-08T21:00:00	3	Temperatura mínima	20.1
182132	7	Sololá	719	Santiago Atitlán	14	Cerro de Oro	11	Noviembre	2023-03-11T00:00:00	2024-11-08T21:00:00	5	Humedad	65
182133	7	Sololá	719	Santiago Atitlán	14	Cerro de Oro	11	Noviembre	2023-03-11T00:00:00	2024-11-08T21:00:00	6	Velocidad del viento	4.8
182134	7	Sololá	719	Santiago Atitlán	14	Cerro de Oro	11	Noviembre	2023-03-11T00:00:00	2024-11-08T21:00:00	7	Dirección del viento	4.83
182135	7	Sololá	719	Santiago Atitlán	14	Cerro de Oro	11	Noviembre	2023-03-11T00:00:00	2024-11-08T21:00:00	1	Precipitación	0
182136	7	Sololá	719	Santiago Atitlán	14	Cerro de Oro	11	Noviembre	2023-03-11T00:00:00	2024-11-08T21:00:00	8	Radiación solar	0
182137	7	Sololá	719	Santiago Atitlán	14	Cerro de Oro	11	Noviembre	2023-03-11T00:00:00	2024-11-08T22:00:00	2	Temperatura media	20.2
182138	7	Sololá	719	Santiago Atitlán	14	Cerro de Oro	11	Noviembre	2023-03-11T00:00:00	2024-11-08T22:00:00	4	Temperatura máxima	20.5
182139	7	Sololá	719	Santiago Atitlán	14	Cerro de Oro	11	Noviembre	2023-03-11T00:00:00	2024-11-08T22:00:00	3	Temperatura mínima	20.2
182140	7	Sololá	719	Santiago Atitlán	14	Cerro de Oro	11	Noviembre	2023-03-11T00:00:00	2024-11-08T22:00:00	5	Humedad	67
182141	7	Sololá	719	Santiago Atitlán	14	Cerro de Oro	11	Noviembre	2023-03-11T00:00:00	2024-11-08T22:00:00	6	Velocidad del viento	6.4
182142	7	Sololá	719	Santiago Atitlán	14	Cerro de Oro	11	Noviembre	2023-03-11T00:00:00	2024-11-08T22:00:00	7	Dirección del viento	6.44
182143	7	Sololá	719	Santiago Atitlán	14	Cerro de Oro	11	Noviembre	2023-03-11T00:00:00	2024-11-08T22:00:00	1	Precipitación	0
182144	7	Sololá	719	Santiago Atitlán	14	Cerro de Oro	11	Noviembre	2023-03-11T00:00:00	2024-11-08T22:00:00	8	Radiación solar	0
182145	7	Sololá	719	Santiago Atitlán	14	Cerro de Oro	11	Noviembre	2023-03-11T00:00:00	2024-11-08T23:00:00	2	Temperatura media	20.7
182146	7	Sololá	719	Santiago Atitlán	14	Cerro de Oro	11	Noviembre	2023-03-11T00:00:00	2024-11-08T23:00:00	4	Temperatura máxima	20.8
182147	7	Sololá	719	Santiago Atitlán	14	Cerro de Oro	11	Noviembre	2023-03-11T00:00:00	2024-11-08T23:00:00	3	Temperatura mínima	20
182148	7	Sololá	719	Santiago Atitlán	14	Cerro de Oro	11	Noviembre	2023-03-11T00:00:00	2024-11-08T23:00:00	5	Humedad	68
182149	7	Sololá	719	Santiago Atitlán	14	Cerro de Oro	11	Noviembre	2023-03-11T00:00:00	2024-11-08T23:00:00	6	Velocidad del viento	4.8
182150	7	Sololá	719	Santiago Atitlán	14	Cerro de Oro	11	Noviembre	2023-03-11T00:00:00	2024-11-08T23:00:00	7	Dirección del viento	4.83
182151	7	Sololá	719	Santiago Atitlán	14	Cerro de Oro	11	Noviembre	2023-03-11T00:00:00	2024-11-08T23:00:00	1	Precipitación	0
182152	7	Sololá	719	Santiago Atitlán	14	Cerro de Oro	11	Noviembre	2023-03-11T00:00:00	2024-11-08T23:00:00	8	Radiación solar	0
182153	7	Sololá	719	Santiago Atitlán	14	Cerro de Oro	11	Noviembre	2023-04-11T00:00:00	2024-11-08T00:00:00	2	Temperatura media	20.5
182154	7	Sololá	719	Santiago Atitlán	14	Cerro de Oro	11	Noviembre	2023-04-11T00:00:00	2024-11-08T00:00:00	4	Temperatura máxima	20.9
182155	7	Sololá	719	Santiago Atitlán	14	Cerro de Oro	11	Noviembre	2023-04-11T00:00:00	2024-11-08T00:00:00	3	Temperatura mínima	20.5
182156	7	Sololá	719	Santiago Atitlán	14	Cerro de Oro	11	Noviembre	2023-04-11T00:00:00	2024-11-08T00:00:00	5	Humedad	69
182157	7	Sololá	719	Santiago Atitlán	14	Cerro de Oro	11	Noviembre	2023-04-11T00:00:00	2024-11-08T00:00:00	6	Velocidad del viento	12.9
182158	7	Sololá	719	Santiago Atitlán	14	Cerro de Oro	11	Noviembre	2023-04-11T00:00:00	2024-11-08T00:00:00	7	Dirección del viento	12.87
182159	7	Sololá	719	Santiago Atitlán	14	Cerro de Oro	11	Noviembre	2023-04-11T00:00:00	2024-11-08T00:00:00	1	Precipitación	0
182160	7	Sololá	719	Santiago Atitlán	14	Cerro de Oro	11	Noviembre	2023-04-11T00:00:00	2024-11-08T00:00:00	8	Radiación solar	0
182161	7	Sololá	719	Santiago Atitlán	14	Cerro de Oro	11	Noviembre	2023-04-11T00:00:00	2024-11-08T01:00:00	2	Temperatura media	19.8
182162	7	Sololá	719	Santiago Atitlán	14	Cerro de Oro	11	Noviembre	2023-04-11T00:00:00	2024-11-08T01:00:00	4	Temperatura máxima	20.7
182163	7	Sololá	719	Santiago Atitlán	14	Cerro de Oro	11	Noviembre	2023-04-11T00:00:00	2024-11-08T01:00:00	3	Temperatura mínima	19.8
182164	7	Sololá	719	Santiago Atitlán	14	Cerro de Oro	11	Noviembre	2023-04-11T00:00:00	2024-11-08T01:00:00	5	Humedad	72
182165	7	Sololá	719	Santiago Atitlán	14	Cerro de Oro	11	Noviembre	2023-04-11T00:00:00	2024-11-08T01:00:00	6	Velocidad del viento	11.3
182166	7	Sololá	719	Santiago Atitlán	14	Cerro de Oro	11	Noviembre	2023-04-11T00:00:00	2024-11-08T01:00:00	7	Dirección del viento	11.27
182167	7	Sololá	719	Santiago Atitlán	14	Cerro de Oro	11	Noviembre	2023-04-11T00:00:00	2024-11-08T01:00:00	1	Precipitación	0
182168	7	Sololá	719	Santiago Atitlán	14	Cerro de Oro	11	Noviembre	2023-04-11T00:00:00	2024-11-08T01:00:00	8	Radiación solar	0
182169	7	Sololá	719	Santiago Atitlán	14	Cerro de Oro	11	Noviembre	2023-04-11T00:00:00	2024-11-08T02:00:00	2	Temperatura media	19.9
182170	7	Sololá	719	Santiago Atitlán	14	Cerro de Oro	11	Noviembre	2023-04-11T00:00:00	2024-11-08T02:00:00	4	Temperatura máxima	20.3
182171	7	Sololá	719	Santiago Atitlán	14	Cerro de Oro	11	Noviembre	2023-04-11T00:00:00	2024-11-08T02:00:00	3	Temperatura mínima	19.7
182172	7	Sololá	719	Santiago Atitlán	14	Cerro de Oro	11	Noviembre	2023-04-11T00:00:00	2024-11-08T02:00:00	5	Humedad	71
182173	7	Sololá	719	Santiago Atitlán	14	Cerro de Oro	11	Noviembre	2023-04-11T00:00:00	2024-11-08T02:00:00	6	Velocidad del viento	4.8
182174	7	Sololá	719	Santiago Atitlán	14	Cerro de Oro	11	Noviembre	2023-04-11T00:00:00	2024-11-08T02:00:00	7	Dirección del viento	4.83
182175	7	Sololá	719	Santiago Atitlán	14	Cerro de Oro	11	Noviembre	2023-04-11T00:00:00	2024-11-08T02:00:00	1	Precipitación	0
182176	7	Sololá	719	Santiago Atitlán	14	Cerro de Oro	11	Noviembre	2023-04-11T00:00:00	2024-11-08T02:00:00	8	Radiación solar	0
182177	7	Sololá	719	Santiago Atitlán	14	Cerro de Oro	11	Noviembre	2023-04-11T00:00:00	2024-11-08T03:00:00	2	Temperatura media	20.2
182178	7	Sololá	719	Santiago Atitlán	14	Cerro de Oro	11	Noviembre	2023-04-11T00:00:00	2024-11-08T03:00:00	4	Temperatura máxima	20.3
182179	7	Sololá	719	Santiago Atitlán	14	Cerro de Oro	11	Noviembre	2023-04-11T00:00:00	2024-11-08T03:00:00	3	Temperatura mínima	19.8
182180	7	Sololá	719	Santiago Atitlán	14	Cerro de Oro	11	Noviembre	2023-04-11T00:00:00	2024-11-08T03:00:00	5	Humedad	71
182181	7	Sololá	719	Santiago Atitlán	14	Cerro de Oro	11	Noviembre	2023-04-11T00:00:00	2024-11-08T03:00:00	6	Velocidad del viento	6.4
182182	7	Sololá	719	Santiago Atitlán	14	Cerro de Oro	11	Noviembre	2023-04-11T00:00:00	2024-11-08T03:00:00	7	Dirección del viento	6.44
182183	7	Sololá	719	Santiago Atitlán	14	Cerro de Oro	11	Noviembre	2023-04-11T00:00:00	2024-11-08T03:00:00	1	Precipitación	0
182184	7	Sololá	719	Santiago Atitlán	14	Cerro de Oro	11	Noviembre	2023-04-11T00:00:00	2024-11-08T03:00:00	8	Radiación solar	0
182185	7	Sololá	719	Santiago Atitlán	14	Cerro de Oro	11	Noviembre	2023-04-11T00:00:00	2024-11-08T04:00:00	2	Temperatura media	19.8
182186	7	Sololá	719	Santiago Atitlán	14	Cerro de Oro	11	Noviembre	2023-04-11T00:00:00	2024-11-08T04:00:00	4	Temperatura máxima	20.5
182187	7	Sololá	719	Santiago Atitlán	14	Cerro de Oro	11	Noviembre	2023-04-11T00:00:00	2024-11-08T04:00:00	3	Temperatura mínima	19.6
182188	7	Sololá	719	Santiago Atitlán	14	Cerro de Oro	11	Noviembre	2023-04-11T00:00:00	2024-11-08T04:00:00	5	Humedad	73
182189	7	Sololá	719	Santiago Atitlán	14	Cerro de Oro	11	Noviembre	2023-04-11T00:00:00	2024-11-08T04:00:00	6	Velocidad del viento	3.2
182190	7	Sololá	719	Santiago Atitlán	14	Cerro de Oro	11	Noviembre	2023-04-11T00:00:00	2024-11-08T04:00:00	7	Dirección del viento	3.22
182191	7	Sololá	719	Santiago Atitlán	14	Cerro de Oro	11	Noviembre	2023-04-11T00:00:00	2024-11-08T04:00:00	1	Precipitación	0
182192	7	Sololá	719	Santiago Atitlán	14	Cerro de Oro	11	Noviembre	2023-04-11T00:00:00	2024-11-08T04:00:00	8	Radiación solar	0
182193	7	Sololá	719	Santiago Atitlán	14	Cerro de Oro	11	Noviembre	2023-04-11T00:00:00	2024-11-08T05:00:00	2	Temperatura media	20.5
182194	7	Sololá	719	Santiago Atitlán	14	Cerro de Oro	11	Noviembre	2023-04-11T00:00:00	2024-11-08T05:00:00	4	Temperatura máxima	20.5
182195	7	Sololá	719	Santiago Atitlán	14	Cerro de Oro	11	Noviembre	2023-04-11T00:00:00	2024-11-08T05:00:00	3	Temperatura mínima	19.7
182196	7	Sololá	719	Santiago Atitlán	14	Cerro de Oro	11	Noviembre	2023-04-11T00:00:00	2024-11-08T05:00:00	5	Humedad	71
182197	7	Sololá	719	Santiago Atitlán	14	Cerro de Oro	11	Noviembre	2023-04-11T00:00:00	2024-11-08T05:00:00	6	Velocidad del viento	4.8
182198	7	Sololá	719	Santiago Atitlán	14	Cerro de Oro	11	Noviembre	2023-04-11T00:00:00	2024-11-08T05:00:00	7	Dirección del viento	4.83
182199	7	Sololá	719	Santiago Atitlán	14	Cerro de Oro	11	Noviembre	2023-04-11T00:00:00	2024-11-08T05:00:00	1	Precipitación	0
182200	7	Sololá	719	Santiago Atitlán	14	Cerro de Oro	11	Noviembre	2023-04-11T00:00:00	2024-11-08T05:00:00	8	Radiación solar	0
182201	7	Sololá	719	Santiago Atitlán	14	Cerro de Oro	11	Noviembre	2023-04-11T00:00:00	2024-11-08T06:00:00	2	Temperatura media	20.1
182202	7	Sololá	719	Santiago Atitlán	14	Cerro de Oro	11	Noviembre	2023-04-11T00:00:00	2024-11-08T06:00:00	4	Temperatura máxima	20.7
182203	7	Sololá	719	Santiago Atitlán	14	Cerro de Oro	11	Noviembre	2023-04-11T00:00:00	2024-11-08T06:00:00	3	Temperatura mínima	20.1
182204	7	Sololá	719	Santiago Atitlán	14	Cerro de Oro	11	Noviembre	2023-04-11T00:00:00	2024-11-08T06:00:00	5	Humedad	73
182205	7	Sololá	719	Santiago Atitlán	14	Cerro de Oro	11	Noviembre	2023-04-11T00:00:00	2024-11-08T06:00:00	6	Velocidad del viento	1.6
182206	7	Sololá	719	Santiago Atitlán	14	Cerro de Oro	11	Noviembre	2023-04-11T00:00:00	2024-11-08T06:00:00	7	Dirección del viento	1.61
182207	7	Sololá	719	Santiago Atitlán	14	Cerro de Oro	11	Noviembre	2023-04-11T00:00:00	2024-11-08T06:00:00	1	Precipitación	0
182208	7	Sololá	719	Santiago Atitlán	14	Cerro de Oro	11	Noviembre	2023-04-11T00:00:00	2024-11-08T06:00:00	8	Radiación solar	0
182209	7	Sololá	719	Santiago Atitlán	14	Cerro de Oro	11	Noviembre	2023-04-11T00:00:00	2024-11-08T07:00:00	2	Temperatura media	20.8
182210	7	Sololá	719	Santiago Atitlán	14	Cerro de Oro	11	Noviembre	2023-04-11T00:00:00	2024-11-08T07:00:00	4	Temperatura máxima	20.9
182211	7	Sololá	719	Santiago Atitlán	14	Cerro de Oro	11	Noviembre	2023-04-11T00:00:00	2024-11-08T07:00:00	3	Temperatura mínima	20
182212	7	Sololá	719	Santiago Atitlán	14	Cerro de Oro	11	Noviembre	2023-04-11T00:00:00	2024-11-08T07:00:00	5	Humedad	72
182213	7	Sololá	719	Santiago Atitlán	14	Cerro de Oro	11	Noviembre	2023-04-11T00:00:00	2024-11-08T07:00:00	6	Velocidad del viento	3.2
182214	7	Sololá	719	Santiago Atitlán	14	Cerro de Oro	11	Noviembre	2023-04-11T00:00:00	2024-11-08T07:00:00	7	Dirección del viento	3.22
182215	7	Sololá	719	Santiago Atitlán	14	Cerro de Oro	11	Noviembre	2023-04-11T00:00:00	2024-11-08T07:00:00	1	Precipitación	0
182216	7	Sololá	719	Santiago Atitlán	14	Cerro de Oro	11	Noviembre	2023-04-11T00:00:00	2024-11-08T07:00:00	8	Radiación solar	43
182217	7	Sololá	719	Santiago Atitlán	14	Cerro de Oro	11	Noviembre	2023-04-11T00:00:00	2024-11-08T08:00:00	2	Temperatura media	21.7
182218	7	Sololá	719	Santiago Atitlán	14	Cerro de Oro	11	Noviembre	2023-04-11T00:00:00	2024-11-08T08:00:00	4	Temperatura máxima	21.7
182219	7	Sololá	719	Santiago Atitlán	14	Cerro de Oro	11	Noviembre	2023-04-11T00:00:00	2024-11-08T08:00:00	3	Temperatura mínima	20.8
182220	7	Sololá	719	Santiago Atitlán	14	Cerro de Oro	11	Noviembre	2023-04-11T00:00:00	2024-11-08T08:00:00	5	Humedad	71
182221	7	Sololá	719	Santiago Atitlán	14	Cerro de Oro	11	Noviembre	2023-04-11T00:00:00	2024-11-08T08:00:00	6	Velocidad del viento	4.8
182222	7	Sololá	719	Santiago Atitlán	14	Cerro de Oro	11	Noviembre	2023-04-11T00:00:00	2024-11-08T08:00:00	7	Dirección del viento	4.83
182223	7	Sololá	719	Santiago Atitlán	14	Cerro de Oro	11	Noviembre	2023-04-11T00:00:00	2024-11-08T08:00:00	1	Precipitación	0
182224	7	Sololá	719	Santiago Atitlán	14	Cerro de Oro	11	Noviembre	2023-04-11T00:00:00	2024-11-08T08:00:00	8	Radiación solar	108
182225	7	Sololá	719	Santiago Atitlán	14	Cerro de Oro	11	Noviembre	2023-04-11T00:00:00	2024-11-08T09:00:00	2	Temperatura media	21.8
182226	7	Sololá	719	Santiago Atitlán	14	Cerro de Oro	11	Noviembre	2023-04-11T00:00:00	2024-11-08T09:00:00	4	Temperatura máxima	22.2
182227	7	Sololá	719	Santiago Atitlán	14	Cerro de Oro	11	Noviembre	2023-04-11T00:00:00	2024-11-08T09:00:00	3	Temperatura mínima	21.7
182228	7	Sololá	719	Santiago Atitlán	14	Cerro de Oro	11	Noviembre	2023-04-11T00:00:00	2024-11-08T09:00:00	5	Humedad	72
182229	7	Sololá	719	Santiago Atitlán	14	Cerro de Oro	11	Noviembre	2023-04-11T00:00:00	2024-11-08T09:00:00	6	Velocidad del viento	4.8
182230	7	Sololá	719	Santiago Atitlán	14	Cerro de Oro	11	Noviembre	2023-04-11T00:00:00	2024-11-08T09:00:00	7	Dirección del viento	4.83
182231	7	Sololá	719	Santiago Atitlán	14	Cerro de Oro	11	Noviembre	2023-04-11T00:00:00	2024-11-08T09:00:00	1	Precipitación	0
182232	7	Sololá	719	Santiago Atitlán	14	Cerro de Oro	11	Noviembre	2023-04-11T00:00:00	2024-11-08T09:00:00	8	Radiación solar	174
182233	7	Sololá	719	Santiago Atitlán	14	Cerro de Oro	11	Noviembre	2023-04-11T00:00:00	2024-11-08T10:00:00	2	Temperatura media	22
182234	7	Sololá	719	Santiago Atitlán	14	Cerro de Oro	11	Noviembre	2023-04-11T00:00:00	2024-11-08T10:00:00	4	Temperatura máxima	22
182235	7	Sololá	719	Santiago Atitlán	14	Cerro de Oro	11	Noviembre	2023-04-11T00:00:00	2024-11-08T10:00:00	3	Temperatura mínima	21.7
182236	7	Sololá	719	Santiago Atitlán	14	Cerro de Oro	11	Noviembre	2023-04-11T00:00:00	2024-11-08T10:00:00	5	Humedad	73
182237	7	Sololá	719	Santiago Atitlán	14	Cerro de Oro	11	Noviembre	2023-04-11T00:00:00	2024-11-08T10:00:00	6	Velocidad del viento	4.8
182238	7	Sololá	719	Santiago Atitlán	14	Cerro de Oro	11	Noviembre	2023-04-11T00:00:00	2024-11-08T10:00:00	7	Dirección del viento	4.83
182239	7	Sololá	719	Santiago Atitlán	14	Cerro de Oro	11	Noviembre	2023-04-11T00:00:00	2024-11-08T10:00:00	1	Precipitación	0
182240	7	Sololá	719	Santiago Atitlán	14	Cerro de Oro	11	Noviembre	2023-04-11T00:00:00	2024-11-08T10:00:00	8	Radiación solar	208
182241	7	Sololá	719	Santiago Atitlán	14	Cerro de Oro	11	Noviembre	2023-04-11T00:00:00	2024-11-08T11:00:00	2	Temperatura media	23.8
182242	7	Sololá	719	Santiago Atitlán	14	Cerro de Oro	11	Noviembre	2023-04-11T00:00:00	2024-11-08T11:00:00	4	Temperatura máxima	23.8
182243	7	Sololá	719	Santiago Atitlán	14	Cerro de Oro	11	Noviembre	2023-04-11T00:00:00	2024-11-08T11:00:00	3	Temperatura mínima	22
182244	7	Sololá	719	Santiago Atitlán	14	Cerro de Oro	11	Noviembre	2023-04-11T00:00:00	2024-11-08T11:00:00	5	Humedad	69
182245	7	Sololá	719	Santiago Atitlán	14	Cerro de Oro	11	Noviembre	2023-04-11T00:00:00	2024-11-08T11:00:00	6	Velocidad del viento	4.8
182246	7	Sololá	719	Santiago Atitlán	14	Cerro de Oro	11	Noviembre	2023-04-11T00:00:00	2024-11-08T11:00:00	7	Dirección del viento	4.83
182247	7	Sololá	719	Santiago Atitlán	14	Cerro de Oro	11	Noviembre	2023-04-11T00:00:00	2024-11-08T11:00:00	1	Precipitación	0
182248	7	Sololá	719	Santiago Atitlán	14	Cerro de Oro	11	Noviembre	2023-04-11T00:00:00	2024-11-08T11:00:00	8	Radiación solar	375
182249	7	Sololá	719	Santiago Atitlán	14	Cerro de Oro	11	Noviembre	2023-04-11T00:00:00	2024-11-08T12:00:00	2	Temperatura media	24.3
182250	7	Sololá	719	Santiago Atitlán	14	Cerro de Oro	11	Noviembre	2023-04-11T00:00:00	2024-11-08T12:00:00	4	Temperatura máxima	24.8
182251	7	Sololá	719	Santiago Atitlán	14	Cerro de Oro	11	Noviembre	2023-04-11T00:00:00	2024-11-08T12:00:00	3	Temperatura mínima	23.8
182252	7	Sololá	719	Santiago Atitlán	14	Cerro de Oro	11	Noviembre	2023-04-11T00:00:00	2024-11-08T12:00:00	5	Humedad	70
182253	7	Sololá	719	Santiago Atitlán	14	Cerro de Oro	11	Noviembre	2023-04-11T00:00:00	2024-11-08T12:00:00	6	Velocidad del viento	8
182254	7	Sololá	719	Santiago Atitlán	14	Cerro de Oro	11	Noviembre	2023-04-11T00:00:00	2024-11-08T12:00:00	7	Dirección del viento	8.05
182255	7	Sololá	719	Santiago Atitlán	14	Cerro de Oro	11	Noviembre	2023-04-11T00:00:00	2024-11-08T12:00:00	1	Precipitación	0
182256	7	Sololá	719	Santiago Atitlán	14	Cerro de Oro	11	Noviembre	2023-04-11T00:00:00	2024-11-08T12:00:00	8	Radiación solar	810
182257	7	Sololá	719	Santiago Atitlán	14	Cerro de Oro	11	Noviembre	2023-04-11T00:00:00	2024-11-08T13:00:00	2	Temperatura media	22.1
182258	7	Sololá	719	Santiago Atitlán	14	Cerro de Oro	11	Noviembre	2023-04-11T00:00:00	2024-11-08T13:00:00	4	Temperatura máxima	24.3
182259	7	Sololá	719	Santiago Atitlán	14	Cerro de Oro	11	Noviembre	2023-04-11T00:00:00	2024-11-08T13:00:00	3	Temperatura mínima	22.1
182260	7	Sololá	719	Santiago Atitlán	14	Cerro de Oro	11	Noviembre	2023-04-11T00:00:00	2024-11-08T13:00:00	5	Humedad	78
182261	7	Sololá	719	Santiago Atitlán	14	Cerro de Oro	11	Noviembre	2023-04-11T00:00:00	2024-11-08T13:00:00	6	Velocidad del viento	4.8
182262	7	Sololá	719	Santiago Atitlán	14	Cerro de Oro	11	Noviembre	2023-04-11T00:00:00	2024-11-08T13:00:00	7	Dirección del viento	4.83
182263	7	Sololá	719	Santiago Atitlán	14	Cerro de Oro	11	Noviembre	2023-04-11T00:00:00	2024-11-08T13:00:00	1	Precipitación	0
182264	7	Sololá	719	Santiago Atitlán	14	Cerro de Oro	11	Noviembre	2023-04-11T00:00:00	2024-11-08T13:00:00	8	Radiación solar	278
182265	7	Sololá	719	Santiago Atitlán	14	Cerro de Oro	11	Noviembre	2023-04-11T00:00:00	2024-11-08T14:00:00	2	Temperatura media	21.9
182266	7	Sololá	719	Santiago Atitlán	14	Cerro de Oro	11	Noviembre	2023-04-11T00:00:00	2024-11-08T14:00:00	4	Temperatura máxima	22.2
182267	7	Sololá	719	Santiago Atitlán	14	Cerro de Oro	11	Noviembre	2023-04-11T00:00:00	2024-11-08T14:00:00	3	Temperatura mínima	21.8
182268	7	Sololá	719	Santiago Atitlán	14	Cerro de Oro	11	Noviembre	2023-04-11T00:00:00	2024-11-08T14:00:00	5	Humedad	77
182269	7	Sololá	719	Santiago Atitlán	14	Cerro de Oro	11	Noviembre	2023-04-11T00:00:00	2024-11-08T14:00:00	6	Velocidad del viento	3.2
182270	7	Sololá	719	Santiago Atitlán	14	Cerro de Oro	11	Noviembre	2023-04-11T00:00:00	2024-11-08T14:00:00	7	Dirección del viento	3.22
182271	7	Sololá	719	Santiago Atitlán	14	Cerro de Oro	11	Noviembre	2023-04-11T00:00:00	2024-11-08T14:00:00	1	Precipitación	0
182272	7	Sololá	719	Santiago Atitlán	14	Cerro de Oro	11	Noviembre	2023-04-11T00:00:00	2024-11-08T14:00:00	8	Radiación solar	228
182273	7	Sololá	719	Santiago Atitlán	14	Cerro de Oro	11	Noviembre	2023-04-11T00:00:00	2024-11-08T15:00:00	2	Temperatura media	22.2
182274	7	Sololá	719	Santiago Atitlán	14	Cerro de Oro	11	Noviembre	2023-04-11T00:00:00	2024-11-08T15:00:00	4	Temperatura máxima	22.3
182275	7	Sololá	719	Santiago Atitlán	14	Cerro de Oro	11	Noviembre	2023-04-11T00:00:00	2024-11-08T15:00:00	3	Temperatura mínima	21.4
182276	7	Sololá	719	Santiago Atitlán	14	Cerro de Oro	11	Noviembre	2023-04-11T00:00:00	2024-11-08T15:00:00	5	Humedad	70
182277	7	Sololá	719	Santiago Atitlán	14	Cerro de Oro	11	Noviembre	2023-04-11T00:00:00	2024-11-08T15:00:00	6	Velocidad del viento	4.8
182278	7	Sololá	719	Santiago Atitlán	14	Cerro de Oro	11	Noviembre	2023-04-11T00:00:00	2024-11-08T15:00:00	7	Dirección del viento	4.83
182279	7	Sololá	719	Santiago Atitlán	14	Cerro de Oro	11	Noviembre	2023-04-11T00:00:00	2024-11-08T15:00:00	1	Precipitación	0
182280	7	Sololá	719	Santiago Atitlán	14	Cerro de Oro	11	Noviembre	2023-04-11T00:00:00	2024-11-08T15:00:00	8	Radiación solar	223
182281	7	Sololá	719	Santiago Atitlán	14	Cerro de Oro	11	Noviembre	2023-04-11T00:00:00	2024-11-08T16:00:00	2	Temperatura media	21.8
182282	7	Sololá	719	Santiago Atitlán	14	Cerro de Oro	11	Noviembre	2023-04-11T00:00:00	2024-11-08T16:00:00	4	Temperatura máxima	22.3
182283	7	Sololá	719	Santiago Atitlán	14	Cerro de Oro	11	Noviembre	2023-04-11T00:00:00	2024-11-08T16:00:00	3	Temperatura mínima	21.8
182284	7	Sololá	719	Santiago Atitlán	14	Cerro de Oro	11	Noviembre	2023-04-11T00:00:00	2024-11-08T16:00:00	5	Humedad	73
182285	7	Sololá	719	Santiago Atitlán	14	Cerro de Oro	11	Noviembre	2023-04-11T00:00:00	2024-11-08T16:00:00	6	Velocidad del viento	4.8
182286	7	Sololá	719	Santiago Atitlán	14	Cerro de Oro	11	Noviembre	2023-04-11T00:00:00	2024-11-08T16:00:00	7	Dirección del viento	4.83
182287	7	Sololá	719	Santiago Atitlán	14	Cerro de Oro	11	Noviembre	2023-04-11T00:00:00	2024-11-08T16:00:00	1	Precipitación	0
182288	7	Sololá	719	Santiago Atitlán	14	Cerro de Oro	11	Noviembre	2023-04-11T00:00:00	2024-11-08T16:00:00	8	Radiación solar	138
182289	7	Sololá	719	Santiago Atitlán	14	Cerro de Oro	11	Noviembre	2023-04-11T00:00:00	2024-11-08T17:00:00	2	Temperatura media	21.5
182290	7	Sololá	719	Santiago Atitlán	14	Cerro de Oro	11	Noviembre	2023-04-11T00:00:00	2024-11-08T17:00:00	4	Temperatura máxima	21.8
182291	7	Sololá	719	Santiago Atitlán	14	Cerro de Oro	11	Noviembre	2023-04-11T00:00:00	2024-11-08T17:00:00	3	Temperatura mínima	21.4
182292	7	Sololá	719	Santiago Atitlán	14	Cerro de Oro	11	Noviembre	2023-04-11T00:00:00	2024-11-08T17:00:00	5	Humedad	72
182293	7	Sololá	719	Santiago Atitlán	14	Cerro de Oro	11	Noviembre	2023-04-11T00:00:00	2024-11-08T17:00:00	6	Velocidad del viento	4.8
182294	7	Sololá	719	Santiago Atitlán	14	Cerro de Oro	11	Noviembre	2023-04-11T00:00:00	2024-11-08T17:00:00	7	Dirección del viento	4.83
182295	7	Sololá	719	Santiago Atitlán	14	Cerro de Oro	11	Noviembre	2023-04-11T00:00:00	2024-11-08T17:00:00	1	Precipitación	0
182296	7	Sololá	719	Santiago Atitlán	14	Cerro de Oro	11	Noviembre	2023-04-11T00:00:00	2024-11-08T17:00:00	8	Radiación solar	52
182297	7	Sololá	719	Santiago Atitlán	14	Cerro de Oro	11	Noviembre	2023-04-11T00:00:00	2024-11-08T18:00:00	2	Temperatura media	21.2
182298	7	Sololá	719	Santiago Atitlán	14	Cerro de Oro	11	Noviembre	2023-04-11T00:00:00	2024-11-08T18:00:00	4	Temperatura máxima	21.5
182299	7	Sololá	719	Santiago Atitlán	14	Cerro de Oro	11	Noviembre	2023-04-11T00:00:00	2024-11-08T18:00:00	3	Temperatura mínima	21.1
182300	7	Sololá	719	Santiago Atitlán	14	Cerro de Oro	11	Noviembre	2023-04-11T00:00:00	2024-11-08T18:00:00	5	Humedad	74
182301	7	Sololá	719	Santiago Atitlán	14	Cerro de Oro	11	Noviembre	2023-04-11T00:00:00	2024-11-08T18:00:00	6	Velocidad del viento	6.4
182302	7	Sololá	719	Santiago Atitlán	14	Cerro de Oro	11	Noviembre	2023-04-11T00:00:00	2024-11-08T18:00:00	7	Dirección del viento	6.44
182303	7	Sololá	719	Santiago Atitlán	14	Cerro de Oro	11	Noviembre	2023-04-11T00:00:00	2024-11-08T18:00:00	1	Precipitación	0
182304	7	Sololá	719	Santiago Atitlán	14	Cerro de Oro	11	Noviembre	2023-04-11T00:00:00	2024-11-08T18:00:00	8	Radiación solar	6
182305	7	Sololá	719	Santiago Atitlán	14	Cerro de Oro	11	Noviembre	2023-04-11T00:00:00	2024-11-08T19:00:00	2	Temperatura media	21
182306	7	Sololá	719	Santiago Atitlán	14	Cerro de Oro	11	Noviembre	2023-04-11T00:00:00	2024-11-08T19:00:00	4	Temperatura máxima	21.3
182307	7	Sololá	719	Santiago Atitlán	14	Cerro de Oro	11	Noviembre	2023-04-11T00:00:00	2024-11-08T19:00:00	3	Temperatura mínima	20.9
182308	7	Sololá	719	Santiago Atitlán	14	Cerro de Oro	11	Noviembre	2023-04-11T00:00:00	2024-11-08T19:00:00	5	Humedad	74
182309	7	Sololá	719	Santiago Atitlán	14	Cerro de Oro	11	Noviembre	2023-04-11T00:00:00	2024-11-08T19:00:00	6	Velocidad del viento	3.2
182310	7	Sololá	719	Santiago Atitlán	14	Cerro de Oro	11	Noviembre	2023-04-11T00:00:00	2024-11-08T19:00:00	7	Dirección del viento	3.22
182311	7	Sololá	719	Santiago Atitlán	14	Cerro de Oro	11	Noviembre	2023-04-11T00:00:00	2024-11-08T19:00:00	1	Precipitación	0
182312	7	Sololá	719	Santiago Atitlán	14	Cerro de Oro	11	Noviembre	2023-04-11T00:00:00	2024-11-08T19:00:00	8	Radiación solar	0
182313	7	Sololá	719	Santiago Atitlán	14	Cerro de Oro	11	Noviembre	2023-04-11T00:00:00	2024-11-08T20:00:00	2	Temperatura media	21.3
182314	7	Sololá	719	Santiago Atitlán	14	Cerro de Oro	11	Noviembre	2023-04-11T00:00:00	2024-11-08T20:00:00	4	Temperatura máxima	21.3
182315	7	Sololá	719	Santiago Atitlán	14	Cerro de Oro	11	Noviembre	2023-04-11T00:00:00	2024-11-08T20:00:00	3	Temperatura mínima	20.9
182316	7	Sololá	719	Santiago Atitlán	14	Cerro de Oro	11	Noviembre	2023-04-11T00:00:00	2024-11-08T20:00:00	5	Humedad	74
182317	7	Sololá	719	Santiago Atitlán	14	Cerro de Oro	11	Noviembre	2023-04-11T00:00:00	2024-11-08T20:00:00	6	Velocidad del viento	8
182318	7	Sololá	719	Santiago Atitlán	14	Cerro de Oro	11	Noviembre	2023-04-11T00:00:00	2024-11-08T20:00:00	7	Dirección del viento	8.05
182319	7	Sololá	719	Santiago Atitlán	14	Cerro de Oro	11	Noviembre	2023-04-11T00:00:00	2024-11-08T20:00:00	1	Precipitación	0
182320	7	Sololá	719	Santiago Atitlán	14	Cerro de Oro	11	Noviembre	2023-04-11T00:00:00	2024-11-08T20:00:00	8	Radiación solar	0
182321	7	Sololá	719	Santiago Atitlán	14	Cerro de Oro	11	Noviembre	2023-04-11T00:00:00	2024-11-08T21:00:00	2	Temperatura media	20.7
182322	7	Sololá	719	Santiago Atitlán	14	Cerro de Oro	11	Noviembre	2023-04-11T00:00:00	2024-11-08T21:00:00	4	Temperatura máxima	21.3
182323	7	Sololá	719	Santiago Atitlán	14	Cerro de Oro	11	Noviembre	2023-04-11T00:00:00	2024-11-08T21:00:00	3	Temperatura mínima	20.6
182324	7	Sololá	719	Santiago Atitlán	14	Cerro de Oro	11	Noviembre	2023-04-11T00:00:00	2024-11-08T21:00:00	5	Humedad	76
182325	7	Sololá	719	Santiago Atitlán	14	Cerro de Oro	11	Noviembre	2023-04-11T00:00:00	2024-11-08T21:00:00	6	Velocidad del viento	4.8
182326	7	Sololá	719	Santiago Atitlán	14	Cerro de Oro	11	Noviembre	2023-04-11T00:00:00	2024-11-08T21:00:00	7	Dirección del viento	4.83
182327	7	Sololá	719	Santiago Atitlán	14	Cerro de Oro	11	Noviembre	2023-04-11T00:00:00	2024-11-08T21:00:00	1	Precipitación	0
182328	7	Sololá	719	Santiago Atitlán	14	Cerro de Oro	11	Noviembre	2023-04-11T00:00:00	2024-11-08T21:00:00	8	Radiación solar	0
182329	7	Sololá	719	Santiago Atitlán	14	Cerro de Oro	11	Noviembre	2023-04-11T00:00:00	2024-11-08T22:00:00	2	Temperatura media	21
182330	7	Sololá	719	Santiago Atitlán	14	Cerro de Oro	11	Noviembre	2023-04-11T00:00:00	2024-11-08T22:00:00	4	Temperatura máxima	21.1
182331	7	Sololá	719	Santiago Atitlán	14	Cerro de Oro	11	Noviembre	2023-04-11T00:00:00	2024-11-08T22:00:00	3	Temperatura mínima	20.7
182332	7	Sololá	719	Santiago Atitlán	14	Cerro de Oro	11	Noviembre	2023-04-11T00:00:00	2024-11-08T22:00:00	5	Humedad	74
182333	7	Sololá	719	Santiago Atitlán	14	Cerro de Oro	11	Noviembre	2023-04-11T00:00:00	2024-11-08T22:00:00	6	Velocidad del viento	6.4
182334	7	Sololá	719	Santiago Atitlán	14	Cerro de Oro	11	Noviembre	2023-04-11T00:00:00	2024-11-08T22:00:00	7	Dirección del viento	6.44
182335	7	Sololá	719	Santiago Atitlán	14	Cerro de Oro	11	Noviembre	2023-04-11T00:00:00	2024-11-08T22:00:00	1	Precipitación	0
182336	7	Sololá	719	Santiago Atitlán	14	Cerro de Oro	11	Noviembre	2023-04-11T00:00:00	2024-11-08T22:00:00	8	Radiación solar	0
182337	7	Sololá	719	Santiago Atitlán	14	Cerro de Oro	11	Noviembre	2023-04-11T00:00:00	2024-11-08T23:00:00	2	Temperatura media	20.8
182338	7	Sololá	719	Santiago Atitlán	14	Cerro de Oro	11	Noviembre	2023-04-11T00:00:00	2024-11-08T23:00:00	4	Temperatura máxima	21.1
182339	7	Sololá	719	Santiago Atitlán	14	Cerro de Oro	11	Noviembre	2023-04-11T00:00:00	2024-11-08T23:00:00	3	Temperatura mínima	20.8
182340	7	Sololá	719	Santiago Atitlán	14	Cerro de Oro	11	Noviembre	2023-04-11T00:00:00	2024-11-08T23:00:00	5	Humedad	74
182341	7	Sololá	719	Santiago Atitlán	14	Cerro de Oro	11	Noviembre	2023-04-11T00:00:00	2024-11-08T23:00:00	6	Velocidad del viento	8
182342	7	Sololá	719	Santiago Atitlán	14	Cerro de Oro	11	Noviembre	2023-04-11T00:00:00	2024-11-08T23:00:00	7	Dirección del viento	8.05
182343	7	Sololá	719	Santiago Atitlán	14	Cerro de Oro	11	Noviembre	2023-04-11T00:00:00	2024-11-08T23:00:00	1	Precipitación	0
182344	7	Sololá	719	Santiago Atitlán	14	Cerro de Oro	11	Noviembre	2023-04-11T00:00:00	2024-11-08T23:00:00	8	Radiación solar	0
182345	7	Sololá	719	Santiago Atitlán	14	Cerro de Oro	11	Noviembre	2023-05-11T00:00:00	2024-11-08T00:00:00	2	Temperatura media	20.7
182346	7	Sololá	719	Santiago Atitlán	14	Cerro de Oro	11	Noviembre	2023-05-11T00:00:00	2024-11-08T00:00:00	4	Temperatura máxima	21.1
182347	7	Sololá	719	Santiago Atitlán	14	Cerro de Oro	11	Noviembre	2023-05-11T00:00:00	2024-11-08T00:00:00	3	Temperatura mínima	20.7
182348	7	Sololá	719	Santiago Atitlán	14	Cerro de Oro	11	Noviembre	2023-05-11T00:00:00	2024-11-08T00:00:00	5	Humedad	74
182349	7	Sololá	719	Santiago Atitlán	14	Cerro de Oro	11	Noviembre	2023-05-11T00:00:00	2024-11-08T00:00:00	6	Velocidad del viento	6.4
182350	7	Sololá	719	Santiago Atitlán	14	Cerro de Oro	11	Noviembre	2023-05-11T00:00:00	2024-11-08T00:00:00	7	Dirección del viento	6.44
182351	7	Sololá	719	Santiago Atitlán	14	Cerro de Oro	11	Noviembre	2023-05-11T00:00:00	2024-11-08T00:00:00	1	Precipitación	0
182352	7	Sololá	719	Santiago Atitlán	14	Cerro de Oro	11	Noviembre	2023-05-11T00:00:00	2024-11-08T00:00:00	8	Radiación solar	0
182353	7	Sololá	719	Santiago Atitlán	14	Cerro de Oro	11	Noviembre	2023-05-11T00:00:00	2024-11-08T01:00:00	2	Temperatura media	20.8
182354	7	Sololá	719	Santiago Atitlán	14	Cerro de Oro	11	Noviembre	2023-05-11T00:00:00	2024-11-08T01:00:00	4	Temperatura máxima	20.8
182355	7	Sololá	719	Santiago Atitlán	14	Cerro de Oro	11	Noviembre	2023-05-11T00:00:00	2024-11-08T01:00:00	3	Temperatura mínima	20.4
182356	7	Sololá	719	Santiago Atitlán	14	Cerro de Oro	11	Noviembre	2023-05-11T00:00:00	2024-11-08T01:00:00	5	Humedad	73
182357	7	Sololá	719	Santiago Atitlán	14	Cerro de Oro	11	Noviembre	2023-05-11T00:00:00	2024-11-08T01:00:00	6	Velocidad del viento	4.8
182358	7	Sololá	719	Santiago Atitlán	14	Cerro de Oro	11	Noviembre	2023-05-11T00:00:00	2024-11-08T01:00:00	7	Dirección del viento	4.83
182359	7	Sololá	719	Santiago Atitlán	14	Cerro de Oro	11	Noviembre	2023-05-11T00:00:00	2024-11-08T01:00:00	1	Precipitación	0
182360	7	Sololá	719	Santiago Atitlán	14	Cerro de Oro	11	Noviembre	2023-05-11T00:00:00	2024-11-08T01:00:00	8	Radiación solar	0
182361	7	Sololá	719	Santiago Atitlán	14	Cerro de Oro	11	Noviembre	2023-05-11T00:00:00	2024-11-08T02:00:00	2	Temperatura media	20.1
182362	7	Sololá	719	Santiago Atitlán	14	Cerro de Oro	11	Noviembre	2023-05-11T00:00:00	2024-11-08T02:00:00	4	Temperatura máxima	20.8
182363	7	Sololá	719	Santiago Atitlán	14	Cerro de Oro	11	Noviembre	2023-05-11T00:00:00	2024-11-08T02:00:00	3	Temperatura mínima	20.1
182364	7	Sololá	719	Santiago Atitlán	14	Cerro de Oro	11	Noviembre	2023-05-11T00:00:00	2024-11-08T02:00:00	5	Humedad	76
182365	7	Sololá	719	Santiago Atitlán	14	Cerro de Oro	11	Noviembre	2023-05-11T00:00:00	2024-11-08T02:00:00	6	Velocidad del viento	3.2
182366	7	Sololá	719	Santiago Atitlán	14	Cerro de Oro	11	Noviembre	2023-05-11T00:00:00	2024-11-08T02:00:00	7	Dirección del viento	3.22
182367	7	Sololá	719	Santiago Atitlán	14	Cerro de Oro	11	Noviembre	2023-05-11T00:00:00	2024-11-08T02:00:00	1	Precipitación	0
182368	7	Sololá	719	Santiago Atitlán	14	Cerro de Oro	11	Noviembre	2023-05-11T00:00:00	2024-11-08T02:00:00	8	Radiación solar	0
182369	7	Sololá	719	Santiago Atitlán	14	Cerro de Oro	11	Noviembre	2023-05-11T00:00:00	2024-11-08T03:00:00	2	Temperatura media	20.6
182370	7	Sololá	719	Santiago Atitlán	14	Cerro de Oro	11	Noviembre	2023-05-11T00:00:00	2024-11-08T03:00:00	4	Temperatura máxima	20.8
182371	7	Sololá	719	Santiago Atitlán	14	Cerro de Oro	11	Noviembre	2023-05-11T00:00:00	2024-11-08T03:00:00	3	Temperatura mínima	20.1
182372	7	Sololá	719	Santiago Atitlán	14	Cerro de Oro	11	Noviembre	2023-05-11T00:00:00	2024-11-08T03:00:00	5	Humedad	75
182373	7	Sololá	719	Santiago Atitlán	14	Cerro de Oro	11	Noviembre	2023-05-11T00:00:00	2024-11-08T03:00:00	6	Velocidad del viento	8
182374	7	Sololá	719	Santiago Atitlán	14	Cerro de Oro	11	Noviembre	2023-05-11T00:00:00	2024-11-08T03:00:00	7	Dirección del viento	8.05
182375	7	Sololá	719	Santiago Atitlán	14	Cerro de Oro	11	Noviembre	2023-05-11T00:00:00	2024-11-08T03:00:00	1	Precipitación	0
182376	7	Sololá	719	Santiago Atitlán	14	Cerro de Oro	11	Noviembre	2023-05-11T00:00:00	2024-11-08T03:00:00	8	Radiación solar	0
182377	7	Sololá	719	Santiago Atitlán	14	Cerro de Oro	11	Noviembre	2023-05-11T00:00:00	2024-11-08T04:00:00	2	Temperatura media	19.2
182378	7	Sololá	719	Santiago Atitlán	14	Cerro de Oro	11	Noviembre	2023-05-11T00:00:00	2024-11-08T04:00:00	4	Temperatura máxima	20.7
182379	7	Sololá	719	Santiago Atitlán	14	Cerro de Oro	11	Noviembre	2023-05-11T00:00:00	2024-11-08T04:00:00	3	Temperatura mínima	19.1
182380	7	Sololá	719	Santiago Atitlán	14	Cerro de Oro	11	Noviembre	2023-05-11T00:00:00	2024-11-08T04:00:00	5	Humedad	84
182381	7	Sololá	719	Santiago Atitlán	14	Cerro de Oro	11	Noviembre	2023-05-11T00:00:00	2024-11-08T04:00:00	6	Velocidad del viento	4.8
182382	7	Sololá	719	Santiago Atitlán	14	Cerro de Oro	11	Noviembre	2023-05-11T00:00:00	2024-11-08T04:00:00	7	Dirección del viento	4.83
182383	7	Sololá	719	Santiago Atitlán	14	Cerro de Oro	11	Noviembre	2023-05-11T00:00:00	2024-11-08T04:00:00	1	Precipitación	0
182384	7	Sololá	719	Santiago Atitlán	14	Cerro de Oro	11	Noviembre	2023-05-11T00:00:00	2024-11-08T04:00:00	8	Radiación solar	0
182385	7	Sololá	719	Santiago Atitlán	14	Cerro de Oro	11	Noviembre	2023-05-11T00:00:00	2024-11-08T05:00:00	2	Temperatura media	19.7
182386	7	Sololá	719	Santiago Atitlán	14	Cerro de Oro	11	Noviembre	2023-05-11T00:00:00	2024-11-08T05:00:00	4	Temperatura máxima	19.7
182387	7	Sololá	719	Santiago Atitlán	14	Cerro de Oro	11	Noviembre	2023-05-11T00:00:00	2024-11-08T05:00:00	3	Temperatura mínima	18.9
182388	7	Sololá	719	Santiago Atitlán	14	Cerro de Oro	11	Noviembre	2023-05-11T00:00:00	2024-11-08T05:00:00	5	Humedad	80
182389	7	Sololá	719	Santiago Atitlán	14	Cerro de Oro	11	Noviembre	2023-05-11T00:00:00	2024-11-08T05:00:00	6	Velocidad del viento	1.6
182390	7	Sololá	719	Santiago Atitlán	14	Cerro de Oro	11	Noviembre	2023-05-11T00:00:00	2024-11-08T05:00:00	7	Dirección del viento	1.61
182391	7	Sololá	719	Santiago Atitlán	14	Cerro de Oro	11	Noviembre	2023-05-11T00:00:00	2024-11-08T05:00:00	1	Precipitación	0
182392	7	Sololá	719	Santiago Atitlán	14	Cerro de Oro	11	Noviembre	2023-05-11T00:00:00	2024-11-08T05:00:00	8	Radiación solar	0
182393	7	Sololá	719	Santiago Atitlán	14	Cerro de Oro	11	Noviembre	2023-05-11T00:00:00	2024-11-08T06:00:00	2	Temperatura media	21
182394	7	Sololá	719	Santiago Atitlán	14	Cerro de Oro	11	Noviembre	2023-05-11T00:00:00	2024-11-08T06:00:00	4	Temperatura máxima	21.1
182395	7	Sololá	719	Santiago Atitlán	14	Cerro de Oro	11	Noviembre	2023-05-11T00:00:00	2024-11-08T06:00:00	3	Temperatura mínima	19.7
182396	7	Sololá	719	Santiago Atitlán	14	Cerro de Oro	11	Noviembre	2023-05-11T00:00:00	2024-11-08T06:00:00	5	Humedad	76
182397	7	Sololá	719	Santiago Atitlán	14	Cerro de Oro	11	Noviembre	2023-05-11T00:00:00	2024-11-08T06:00:00	6	Velocidad del viento	4.8
182398	7	Sololá	719	Santiago Atitlán	14	Cerro de Oro	11	Noviembre	2023-05-11T00:00:00	2024-11-08T06:00:00	7	Dirección del viento	4.83
182399	7	Sololá	719	Santiago Atitlán	14	Cerro de Oro	11	Noviembre	2023-05-11T00:00:00	2024-11-08T06:00:00	1	Precipitación	0
182400	7	Sololá	719	Santiago Atitlán	14	Cerro de Oro	11	Noviembre	2023-05-11T00:00:00	2024-11-08T06:00:00	8	Radiación solar	24
182401	7	Sololá	719	Santiago Atitlán	14	Cerro de Oro	11	Noviembre	2023-05-11T00:00:00	2024-11-08T07:00:00	2	Temperatura media	21.2
182402	7	Sololá	719	Santiago Atitlán	14	Cerro de Oro	11	Noviembre	2023-05-11T00:00:00	2024-11-08T07:00:00	4	Temperatura máxima	21.2
182403	7	Sololá	719	Santiago Atitlán	14	Cerro de Oro	11	Noviembre	2023-05-11T00:00:00	2024-11-08T07:00:00	3	Temperatura mínima	20.9
182404	7	Sololá	719	Santiago Atitlán	14	Cerro de Oro	11	Noviembre	2023-05-11T00:00:00	2024-11-08T07:00:00	5	Humedad	75
182405	7	Sololá	719	Santiago Atitlán	14	Cerro de Oro	11	Noviembre	2023-05-11T00:00:00	2024-11-08T07:00:00	6	Velocidad del viento	3.2
182406	7	Sololá	719	Santiago Atitlán	14	Cerro de Oro	11	Noviembre	2023-05-11T00:00:00	2024-11-08T07:00:00	7	Dirección del viento	3.22
182407	7	Sololá	719	Santiago Atitlán	14	Cerro de Oro	11	Noviembre	2023-05-11T00:00:00	2024-11-08T07:00:00	1	Precipitación	0
182408	7	Sololá	719	Santiago Atitlán	14	Cerro de Oro	11	Noviembre	2023-05-11T00:00:00	2024-11-08T07:00:00	8	Radiación solar	96
182409	7	Sololá	719	Santiago Atitlán	14	Cerro de Oro	11	Noviembre	2023-05-11T00:00:00	2024-11-08T08:00:00	2	Temperatura media	21.7
182410	7	Sololá	719	Santiago Atitlán	14	Cerro de Oro	11	Noviembre	2023-05-11T00:00:00	2024-11-08T08:00:00	4	Temperatura máxima	21.7
182411	7	Sololá	719	Santiago Atitlán	14	Cerro de Oro	11	Noviembre	2023-05-11T00:00:00	2024-11-08T08:00:00	3	Temperatura mínima	21.2
182412	7	Sololá	719	Santiago Atitlán	14	Cerro de Oro	11	Noviembre	2023-05-11T00:00:00	2024-11-08T08:00:00	5	Humedad	74
182413	7	Sololá	719	Santiago Atitlán	14	Cerro de Oro	11	Noviembre	2023-05-11T00:00:00	2024-11-08T08:00:00	6	Velocidad del viento	6.4
182414	7	Sololá	719	Santiago Atitlán	14	Cerro de Oro	11	Noviembre	2023-05-11T00:00:00	2024-11-08T08:00:00	7	Dirección del viento	6.44
182415	7	Sololá	719	Santiago Atitlán	14	Cerro de Oro	11	Noviembre	2023-05-11T00:00:00	2024-11-08T08:00:00	1	Precipitación	0
182416	7	Sololá	719	Santiago Atitlán	14	Cerro de Oro	11	Noviembre	2023-05-11T00:00:00	2024-11-08T08:00:00	8	Radiación solar	178
182417	7	Sololá	719	Santiago Atitlán	14	Cerro de Oro	11	Noviembre	2023-05-11T00:00:00	2024-11-08T09:00:00	2	Temperatura media	22.9
182418	7	Sololá	719	Santiago Atitlán	14	Cerro de Oro	11	Noviembre	2023-05-11T00:00:00	2024-11-08T09:00:00	4	Temperatura máxima	23.2
182419	7	Sololá	719	Santiago Atitlán	14	Cerro de Oro	11	Noviembre	2023-05-11T00:00:00	2024-11-08T09:00:00	3	Temperatura mínima	21.6
182420	7	Sololá	719	Santiago Atitlán	14	Cerro de Oro	11	Noviembre	2023-05-11T00:00:00	2024-11-08T09:00:00	5	Humedad	72
182421	7	Sololá	719	Santiago Atitlán	14	Cerro de Oro	11	Noviembre	2023-05-11T00:00:00	2024-11-08T09:00:00	6	Velocidad del viento	8
182422	7	Sololá	719	Santiago Atitlán	14	Cerro de Oro	11	Noviembre	2023-05-11T00:00:00	2024-11-08T09:00:00	7	Dirección del viento	8.05
182423	7	Sololá	719	Santiago Atitlán	14	Cerro de Oro	11	Noviembre	2023-05-11T00:00:00	2024-11-08T09:00:00	1	Precipitación	0
182424	7	Sololá	719	Santiago Atitlán	14	Cerro de Oro	11	Noviembre	2023-05-11T00:00:00	2024-11-08T09:00:00	8	Radiación solar	339
182425	7	Sololá	719	Santiago Atitlán	14	Cerro de Oro	11	Noviembre	2023-05-11T00:00:00	2024-11-08T10:00:00	2	Temperatura media	22.9
182426	7	Sololá	719	Santiago Atitlán	14	Cerro de Oro	11	Noviembre	2023-05-11T00:00:00	2024-11-08T10:00:00	4	Temperatura máxima	23.2
182427	7	Sololá	719	Santiago Atitlán	14	Cerro de Oro	11	Noviembre	2023-05-11T00:00:00	2024-11-08T10:00:00	3	Temperatura mínima	22.7
182428	7	Sololá	719	Santiago Atitlán	14	Cerro de Oro	11	Noviembre	2023-05-11T00:00:00	2024-11-08T10:00:00	5	Humedad	71
182429	7	Sololá	719	Santiago Atitlán	14	Cerro de Oro	11	Noviembre	2023-05-11T00:00:00	2024-11-08T10:00:00	6	Velocidad del viento	8
182430	7	Sololá	719	Santiago Atitlán	14	Cerro de Oro	11	Noviembre	2023-05-11T00:00:00	2024-11-08T10:00:00	7	Dirección del viento	8.05
182431	7	Sololá	719	Santiago Atitlán	14	Cerro de Oro	11	Noviembre	2023-05-11T00:00:00	2024-11-08T10:00:00	1	Precipitación	0
182432	7	Sololá	719	Santiago Atitlán	14	Cerro de Oro	11	Noviembre	2023-05-11T00:00:00	2024-11-08T10:00:00	8	Radiación solar	390
182433	7	Sololá	719	Santiago Atitlán	14	Cerro de Oro	11	Noviembre	2023-05-11T00:00:00	2024-11-08T11:00:00	2	Temperatura media	22.9
182434	7	Sololá	719	Santiago Atitlán	14	Cerro de Oro	11	Noviembre	2023-05-11T00:00:00	2024-11-08T11:00:00	4	Temperatura máxima	23.2
182435	7	Sololá	719	Santiago Atitlán	14	Cerro de Oro	11	Noviembre	2023-05-11T00:00:00	2024-11-08T11:00:00	3	Temperatura mínima	22.6
182436	7	Sololá	719	Santiago Atitlán	14	Cerro de Oro	11	Noviembre	2023-05-11T00:00:00	2024-11-08T11:00:00	5	Humedad	73
182437	7	Sololá	719	Santiago Atitlán	14	Cerro de Oro	11	Noviembre	2023-05-11T00:00:00	2024-11-08T11:00:00	6	Velocidad del viento	8
182438	7	Sololá	719	Santiago Atitlán	14	Cerro de Oro	11	Noviembre	2023-05-11T00:00:00	2024-11-08T11:00:00	7	Dirección del viento	8.05
182439	7	Sololá	719	Santiago Atitlán	14	Cerro de Oro	11	Noviembre	2023-05-11T00:00:00	2024-11-08T11:00:00	1	Precipitación	0
182440	7	Sololá	719	Santiago Atitlán	14	Cerro de Oro	11	Noviembre	2023-05-11T00:00:00	2024-11-08T11:00:00	8	Radiación solar	352
182441	7	Sololá	719	Santiago Atitlán	14	Cerro de Oro	11	Noviembre	2023-05-11T00:00:00	2024-11-08T12:00:00	2	Temperatura media	23.7
182442	7	Sololá	719	Santiago Atitlán	14	Cerro de Oro	11	Noviembre	2023-05-11T00:00:00	2024-11-08T12:00:00	4	Temperatura máxima	23.7
182443	7	Sololá	719	Santiago Atitlán	14	Cerro de Oro	11	Noviembre	2023-05-11T00:00:00	2024-11-08T12:00:00	3	Temperatura mínima	22.7
182444	7	Sololá	719	Santiago Atitlán	14	Cerro de Oro	11	Noviembre	2023-05-11T00:00:00	2024-11-08T12:00:00	5	Humedad	69
182445	7	Sololá	719	Santiago Atitlán	14	Cerro de Oro	11	Noviembre	2023-05-11T00:00:00	2024-11-08T12:00:00	6	Velocidad del viento	4.8
182446	7	Sololá	719	Santiago Atitlán	14	Cerro de Oro	11	Noviembre	2023-05-11T00:00:00	2024-11-08T12:00:00	7	Dirección del viento	4.83
182447	7	Sololá	719	Santiago Atitlán	14	Cerro de Oro	11	Noviembre	2023-05-11T00:00:00	2024-11-08T12:00:00	1	Precipitación	0
182448	7	Sololá	719	Santiago Atitlán	14	Cerro de Oro	11	Noviembre	2023-05-11T00:00:00	2024-11-08T12:00:00	8	Radiación solar	400
182449	7	Sololá	719	Santiago Atitlán	14	Cerro de Oro	11	Noviembre	2023-05-11T00:00:00	2024-11-08T13:00:00	2	Temperatura media	24
182450	7	Sololá	719	Santiago Atitlán	14	Cerro de Oro	11	Noviembre	2023-05-11T00:00:00	2024-11-08T13:00:00	4	Temperatura máxima	24.1
182451	7	Sololá	719	Santiago Atitlán	14	Cerro de Oro	11	Noviembre	2023-05-11T00:00:00	2024-11-08T13:00:00	3	Temperatura mínima	23.6
182452	7	Sololá	719	Santiago Atitlán	14	Cerro de Oro	11	Noviembre	2023-05-11T00:00:00	2024-11-08T13:00:00	5	Humedad	68
182453	7	Sololá	719	Santiago Atitlán	14	Cerro de Oro	11	Noviembre	2023-05-11T00:00:00	2024-11-08T13:00:00	6	Velocidad del viento	6.4
182454	7	Sololá	719	Santiago Atitlán	14	Cerro de Oro	11	Noviembre	2023-05-11T00:00:00	2024-11-08T13:00:00	7	Dirección del viento	6.44
182455	7	Sololá	719	Santiago Atitlán	14	Cerro de Oro	11	Noviembre	2023-05-11T00:00:00	2024-11-08T13:00:00	1	Precipitación	0
182456	7	Sololá	719	Santiago Atitlán	14	Cerro de Oro	11	Noviembre	2023-05-11T00:00:00	2024-11-08T13:00:00	8	Radiación solar	352
182457	7	Sololá	719	Santiago Atitlán	14	Cerro de Oro	11	Noviembre	2023-05-11T00:00:00	2024-11-08T14:00:00	2	Temperatura media	24.7
182458	7	Sololá	719	Santiago Atitlán	14	Cerro de Oro	11	Noviembre	2023-05-11T00:00:00	2024-11-08T14:00:00	4	Temperatura máxima	25.2
182459	7	Sololá	719	Santiago Atitlán	14	Cerro de Oro	11	Noviembre	2023-05-11T00:00:00	2024-11-08T14:00:00	3	Temperatura mínima	23.3
182460	7	Sololá	719	Santiago Atitlán	14	Cerro de Oro	11	Noviembre	2023-05-11T00:00:00	2024-11-08T14:00:00	5	Humedad	65
182461	7	Sololá	719	Santiago Atitlán	14	Cerro de Oro	11	Noviembre	2023-05-11T00:00:00	2024-11-08T14:00:00	6	Velocidad del viento	4.8
182462	7	Sololá	719	Santiago Atitlán	14	Cerro de Oro	11	Noviembre	2023-05-11T00:00:00	2024-11-08T14:00:00	7	Dirección del viento	4.83
182463	7	Sololá	719	Santiago Atitlán	14	Cerro de Oro	11	Noviembre	2023-05-11T00:00:00	2024-11-08T14:00:00	1	Precipitación	0
182464	7	Sololá	719	Santiago Atitlán	14	Cerro de Oro	11	Noviembre	2023-05-11T00:00:00	2024-11-08T14:00:00	8	Radiación solar	329
182465	7	Sololá	719	Santiago Atitlán	14	Cerro de Oro	11	Noviembre	2023-05-11T00:00:00	2024-11-08T15:00:00	2	Temperatura media	22.3
182466	7	Sololá	719	Santiago Atitlán	14	Cerro de Oro	11	Noviembre	2023-05-11T00:00:00	2024-11-08T15:00:00	4	Temperatura máxima	25.7
182467	7	Sololá	719	Santiago Atitlán	14	Cerro de Oro	11	Noviembre	2023-05-11T00:00:00	2024-11-08T15:00:00	3	Temperatura mínima	22.1
182468	7	Sololá	719	Santiago Atitlán	14	Cerro de Oro	11	Noviembre	2023-05-11T00:00:00	2024-11-08T15:00:00	5	Humedad	74
182469	7	Sololá	719	Santiago Atitlán	14	Cerro de Oro	11	Noviembre	2023-05-11T00:00:00	2024-11-08T15:00:00	6	Velocidad del viento	6.4
182470	7	Sololá	719	Santiago Atitlán	14	Cerro de Oro	11	Noviembre	2023-05-11T00:00:00	2024-11-08T15:00:00	7	Dirección del viento	6.44
182471	7	Sololá	719	Santiago Atitlán	14	Cerro de Oro	11	Noviembre	2023-05-11T00:00:00	2024-11-08T15:00:00	1	Precipitación	0
182472	7	Sololá	719	Santiago Atitlán	14	Cerro de Oro	11	Noviembre	2023-05-11T00:00:00	2024-11-08T15:00:00	8	Radiación solar	194
182473	7	Sololá	719	Santiago Atitlán	14	Cerro de Oro	11	Noviembre	2023-05-11T00:00:00	2024-11-08T16:00:00	2	Temperatura media	21.5
182474	7	Sololá	719	Santiago Atitlán	14	Cerro de Oro	11	Noviembre	2023-05-11T00:00:00	2024-11-08T16:00:00	4	Temperatura máxima	22.6
182475	7	Sololá	719	Santiago Atitlán	14	Cerro de Oro	11	Noviembre	2023-05-11T00:00:00	2024-11-08T16:00:00	3	Temperatura mínima	21.4
182476	7	Sololá	719	Santiago Atitlán	14	Cerro de Oro	11	Noviembre	2023-05-11T00:00:00	2024-11-08T16:00:00	5	Humedad	78
182477	7	Sololá	719	Santiago Atitlán	14	Cerro de Oro	11	Noviembre	2023-05-11T00:00:00	2024-11-08T16:00:00	6	Velocidad del viento	4.8
182478	7	Sololá	719	Santiago Atitlán	14	Cerro de Oro	11	Noviembre	2023-05-11T00:00:00	2024-11-08T16:00:00	7	Dirección del viento	4.83
182479	7	Sololá	719	Santiago Atitlán	14	Cerro de Oro	11	Noviembre	2023-05-11T00:00:00	2024-11-08T16:00:00	1	Precipitación	0
182480	7	Sololá	719	Santiago Atitlán	14	Cerro de Oro	11	Noviembre	2023-05-11T00:00:00	2024-11-08T16:00:00	8	Radiación solar	75
182481	7	Sololá	719	Santiago Atitlán	14	Cerro de Oro	11	Noviembre	2023-05-11T00:00:00	2024-11-08T17:00:00	2	Temperatura media	21.4
182482	7	Sololá	719	Santiago Atitlán	14	Cerro de Oro	11	Noviembre	2023-05-11T00:00:00	2024-11-08T17:00:00	4	Temperatura máxima	21.8
182483	7	Sololá	719	Santiago Atitlán	14	Cerro de Oro	11	Noviembre	2023-05-11T00:00:00	2024-11-08T17:00:00	3	Temperatura mínima	21.4
182484	7	Sololá	719	Santiago Atitlán	14	Cerro de Oro	11	Noviembre	2023-05-11T00:00:00	2024-11-08T17:00:00	5	Humedad	77
182485	7	Sololá	719	Santiago Atitlán	14	Cerro de Oro	11	Noviembre	2023-05-11T00:00:00	2024-11-08T17:00:00	6	Velocidad del viento	4.8
182486	7	Sololá	719	Santiago Atitlán	14	Cerro de Oro	11	Noviembre	2023-05-11T00:00:00	2024-11-08T17:00:00	7	Dirección del viento	4.83
182487	7	Sololá	719	Santiago Atitlán	14	Cerro de Oro	11	Noviembre	2023-05-11T00:00:00	2024-11-08T17:00:00	1	Precipitación	0
182488	7	Sololá	719	Santiago Atitlán	14	Cerro de Oro	11	Noviembre	2023-05-11T00:00:00	2024-11-08T17:00:00	8	Radiación solar	16
182489	7	Sololá	719	Santiago Atitlán	14	Cerro de Oro	11	Noviembre	2023-05-11T00:00:00	2024-11-08T18:00:00	2	Temperatura media	19.9
182490	7	Sololá	719	Santiago Atitlán	14	Cerro de Oro	11	Noviembre	2023-05-11T00:00:00	2024-11-08T18:00:00	4	Temperatura máxima	21.4
182491	7	Sololá	719	Santiago Atitlán	14	Cerro de Oro	11	Noviembre	2023-05-11T00:00:00	2024-11-08T18:00:00	3	Temperatura mínima	19.9
182492	7	Sololá	719	Santiago Atitlán	14	Cerro de Oro	11	Noviembre	2023-05-11T00:00:00	2024-11-08T18:00:00	5	Humedad	85
182493	7	Sololá	719	Santiago Atitlán	14	Cerro de Oro	11	Noviembre	2023-05-11T00:00:00	2024-11-08T18:00:00	6	Velocidad del viento	1.6
182494	7	Sololá	719	Santiago Atitlán	14	Cerro de Oro	11	Noviembre	2023-05-11T00:00:00	2024-11-08T18:00:00	7	Dirección del viento	1.61
182495	7	Sololá	719	Santiago Atitlán	14	Cerro de Oro	11	Noviembre	2023-05-11T00:00:00	2024-11-08T18:00:00	1	Precipitación	0
182496	7	Sololá	719	Santiago Atitlán	14	Cerro de Oro	11	Noviembre	2023-05-11T00:00:00	2024-11-08T18:00:00	8	Radiación solar	0
182497	7	Sololá	719	Santiago Atitlán	14	Cerro de Oro	11	Noviembre	2023-05-11T00:00:00	2024-11-08T19:00:00	2	Temperatura media	19.7
182498	7	Sololá	719	Santiago Atitlán	14	Cerro de Oro	11	Noviembre	2023-05-11T00:00:00	2024-11-08T19:00:00	4	Temperatura máxima	19.9
182499	7	Sololá	719	Santiago Atitlán	14	Cerro de Oro	11	Noviembre	2023-05-11T00:00:00	2024-11-08T19:00:00	3	Temperatura mínima	19.3
182500	7	Sololá	719	Santiago Atitlán	14	Cerro de Oro	11	Noviembre	2023-05-11T00:00:00	2024-11-08T19:00:00	5	Humedad	84
182501	7	Sololá	719	Santiago Atitlán	14	Cerro de Oro	11	Noviembre	2023-05-11T00:00:00	2024-11-08T19:00:00	6	Velocidad del viento	3.2
182502	7	Sololá	719	Santiago Atitlán	14	Cerro de Oro	11	Noviembre	2023-05-11T00:00:00	2024-11-08T19:00:00	7	Dirección del viento	3.22
182503	7	Sololá	719	Santiago Atitlán	14	Cerro de Oro	11	Noviembre	2023-05-11T00:00:00	2024-11-08T19:00:00	1	Precipitación	0
182504	7	Sololá	719	Santiago Atitlán	14	Cerro de Oro	11	Noviembre	2023-05-11T00:00:00	2024-11-08T19:00:00	8	Radiación solar	0
182505	7	Sololá	719	Santiago Atitlán	14	Cerro de Oro	11	Noviembre	2023-05-11T00:00:00	2024-11-08T20:00:00	2	Temperatura media	20.9
182506	7	Sololá	719	Santiago Atitlán	14	Cerro de Oro	11	Noviembre	2023-05-11T00:00:00	2024-11-08T20:00:00	4	Temperatura máxima	21.1
182507	7	Sololá	719	Santiago Atitlán	14	Cerro de Oro	11	Noviembre	2023-05-11T00:00:00	2024-11-08T20:00:00	3	Temperatura mínima	19.6
182508	7	Sololá	719	Santiago Atitlán	14	Cerro de Oro	11	Noviembre	2023-05-11T00:00:00	2024-11-08T20:00:00	5	Humedad	77
182509	7	Sololá	719	Santiago Atitlán	14	Cerro de Oro	11	Noviembre	2023-05-11T00:00:00	2024-11-08T20:00:00	6	Velocidad del viento	8
182510	7	Sololá	719	Santiago Atitlán	14	Cerro de Oro	11	Noviembre	2023-05-11T00:00:00	2024-11-08T20:00:00	7	Dirección del viento	8.05
182511	7	Sololá	719	Santiago Atitlán	14	Cerro de Oro	11	Noviembre	2023-05-11T00:00:00	2024-11-08T20:00:00	1	Precipitación	0
182512	7	Sololá	719	Santiago Atitlán	14	Cerro de Oro	11	Noviembre	2023-05-11T00:00:00	2024-11-08T20:00:00	8	Radiación solar	0
182513	7	Sololá	719	Santiago Atitlán	14	Cerro de Oro	11	Noviembre	2023-05-11T00:00:00	2024-11-08T21:00:00	2	Temperatura media	20.3
182514	7	Sololá	719	Santiago Atitlán	14	Cerro de Oro	11	Noviembre	2023-05-11T00:00:00	2024-11-08T21:00:00	4	Temperatura máxima	20.9
182515	7	Sololá	719	Santiago Atitlán	14	Cerro de Oro	11	Noviembre	2023-05-11T00:00:00	2024-11-08T21:00:00	3	Temperatura mínima	20
182516	7	Sololá	719	Santiago Atitlán	14	Cerro de Oro	11	Noviembre	2023-05-11T00:00:00	2024-11-08T21:00:00	5	Humedad	77
182517	7	Sololá	719	Santiago Atitlán	14	Cerro de Oro	11	Noviembre	2023-05-11T00:00:00	2024-11-08T21:00:00	6	Velocidad del viento	3.2
182518	7	Sololá	719	Santiago Atitlán	14	Cerro de Oro	11	Noviembre	2023-05-11T00:00:00	2024-11-08T21:00:00	7	Dirección del viento	3.22
182519	7	Sololá	719	Santiago Atitlán	14	Cerro de Oro	11	Noviembre	2023-05-11T00:00:00	2024-11-08T21:00:00	1	Precipitación	0
182520	7	Sololá	719	Santiago Atitlán	14	Cerro de Oro	11	Noviembre	2023-05-11T00:00:00	2024-11-08T21:00:00	8	Radiación solar	0
182521	7	Sololá	719	Santiago Atitlán	14	Cerro de Oro	11	Noviembre	2023-05-11T00:00:00	2024-11-08T22:00:00	2	Temperatura media	19.5
182522	7	Sololá	719	Santiago Atitlán	14	Cerro de Oro	11	Noviembre	2023-05-11T00:00:00	2024-11-08T22:00:00	4	Temperatura máxima	20.3
182523	7	Sololá	719	Santiago Atitlán	14	Cerro de Oro	11	Noviembre	2023-05-11T00:00:00	2024-11-08T22:00:00	3	Temperatura mínima	19.2
182524	7	Sololá	719	Santiago Atitlán	14	Cerro de Oro	11	Noviembre	2023-05-11T00:00:00	2024-11-08T22:00:00	5	Humedad	82
182525	7	Sololá	719	Santiago Atitlán	14	Cerro de Oro	11	Noviembre	2023-05-11T00:00:00	2024-11-08T22:00:00	6	Velocidad del viento	3.2
182526	7	Sololá	719	Santiago Atitlán	14	Cerro de Oro	11	Noviembre	2023-05-11T00:00:00	2024-11-08T22:00:00	7	Dirección del viento	3.22
182527	7	Sololá	719	Santiago Atitlán	14	Cerro de Oro	11	Noviembre	2023-05-11T00:00:00	2024-11-08T22:00:00	1	Precipitación	0
182528	7	Sololá	719	Santiago Atitlán	14	Cerro de Oro	11	Noviembre	2023-05-11T00:00:00	2024-11-08T22:00:00	8	Radiación solar	0
182529	7	Sololá	719	Santiago Atitlán	14	Cerro de Oro	11	Noviembre	2023-05-11T00:00:00	2024-11-08T23:00:00	2	Temperatura media	20.1
182530	7	Sololá	719	Santiago Atitlán	14	Cerro de Oro	11	Noviembre	2023-05-11T00:00:00	2024-11-08T23:00:00	4	Temperatura máxima	20.8
182531	7	Sololá	719	Santiago Atitlán	14	Cerro de Oro	11	Noviembre	2023-05-11T00:00:00	2024-11-08T23:00:00	3	Temperatura mínima	19.6
182532	7	Sololá	719	Santiago Atitlán	14	Cerro de Oro	11	Noviembre	2023-05-11T00:00:00	2024-11-08T23:00:00	5	Humedad	80
182533	7	Sololá	719	Santiago Atitlán	14	Cerro de Oro	11	Noviembre	2023-05-11T00:00:00	2024-11-08T23:00:00	6	Velocidad del viento	3.2
182534	7	Sololá	719	Santiago Atitlán	14	Cerro de Oro	11	Noviembre	2023-05-11T00:00:00	2024-11-08T23:00:00	7	Dirección del viento	3.22
182535	7	Sololá	719	Santiago Atitlán	14	Cerro de Oro	11	Noviembre	2023-05-11T00:00:00	2024-11-08T23:00:00	1	Precipitación	0
182536	7	Sololá	719	Santiago Atitlán	14	Cerro de Oro	11	Noviembre	2023-05-11T00:00:00	2024-11-08T23:00:00	8	Radiación solar	0
182537	7	Sololá	719	Santiago Atitlán	14	Cerro de Oro	11	Noviembre	2023-06-11T00:00:00	2024-11-08T00:00:00	2	Temperatura media	19.9
182538	7	Sololá	719	Santiago Atitlán	14	Cerro de Oro	11	Noviembre	2023-06-11T00:00:00	2024-11-08T00:00:00	4	Temperatura máxima	20.1
182539	7	Sololá	719	Santiago Atitlán	14	Cerro de Oro	11	Noviembre	2023-06-11T00:00:00	2024-11-08T00:00:00	3	Temperatura mínima	19.8
182540	7	Sololá	719	Santiago Atitlán	14	Cerro de Oro	11	Noviembre	2023-06-11T00:00:00	2024-11-08T00:00:00	5	Humedad	81
182541	7	Sololá	719	Santiago Atitlán	14	Cerro de Oro	11	Noviembre	2023-06-11T00:00:00	2024-11-08T00:00:00	6	Velocidad del viento	0
182542	7	Sololá	719	Santiago Atitlán	14	Cerro de Oro	11	Noviembre	2023-06-11T00:00:00	2024-11-08T00:00:00	7	Dirección del viento	0
182543	7	Sololá	719	Santiago Atitlán	14	Cerro de Oro	11	Noviembre	2023-06-11T00:00:00	2024-11-08T00:00:00	1	Precipitación	0
182544	7	Sololá	719	Santiago Atitlán	14	Cerro de Oro	11	Noviembre	2023-06-11T00:00:00	2024-11-08T00:00:00	8	Radiación solar	0
182545	7	Sololá	719	Santiago Atitlán	14	Cerro de Oro	11	Noviembre	2023-06-11T00:00:00	2024-11-08T01:00:00	2	Temperatura media	18.9
182546	7	Sololá	719	Santiago Atitlán	14	Cerro de Oro	11	Noviembre	2023-06-11T00:00:00	2024-11-08T01:00:00	4	Temperatura máxima	19.9
182547	7	Sololá	719	Santiago Atitlán	14	Cerro de Oro	11	Noviembre	2023-06-11T00:00:00	2024-11-08T01:00:00	3	Temperatura mínima	18.9
182548	7	Sololá	719	Santiago Atitlán	14	Cerro de Oro	11	Noviembre	2023-06-11T00:00:00	2024-11-08T01:00:00	5	Humedad	85
182549	7	Sololá	719	Santiago Atitlán	14	Cerro de Oro	11	Noviembre	2023-06-11T00:00:00	2024-11-08T01:00:00	6	Velocidad del viento	0
182550	7	Sololá	719	Santiago Atitlán	14	Cerro de Oro	11	Noviembre	2023-06-11T00:00:00	2024-11-08T01:00:00	7	Dirección del viento	0
182551	7	Sololá	719	Santiago Atitlán	14	Cerro de Oro	11	Noviembre	2023-06-11T00:00:00	2024-11-08T01:00:00	1	Precipitación	0
182552	7	Sololá	719	Santiago Atitlán	14	Cerro de Oro	11	Noviembre	2023-06-11T00:00:00	2024-11-08T01:00:00	8	Radiación solar	0
182553	7	Sololá	719	Santiago Atitlán	14	Cerro de Oro	11	Noviembre	2023-06-11T00:00:00	2024-11-08T02:00:00	2	Temperatura media	19.3
182554	7	Sololá	719	Santiago Atitlán	14	Cerro de Oro	11	Noviembre	2023-06-11T00:00:00	2024-11-08T02:00:00	4	Temperatura máxima	19.3
182555	7	Sololá	719	Santiago Atitlán	14	Cerro de Oro	11	Noviembre	2023-06-11T00:00:00	2024-11-08T02:00:00	3	Temperatura mínima	18.9
182556	7	Sololá	719	Santiago Atitlán	14	Cerro de Oro	11	Noviembre	2023-06-11T00:00:00	2024-11-08T02:00:00	5	Humedad	82
182557	7	Sololá	719	Santiago Atitlán	14	Cerro de Oro	11	Noviembre	2023-06-11T00:00:00	2024-11-08T02:00:00	6	Velocidad del viento	0
182558	7	Sololá	719	Santiago Atitlán	14	Cerro de Oro	11	Noviembre	2023-06-11T00:00:00	2024-11-08T02:00:00	7	Dirección del viento	0
182559	7	Sololá	719	Santiago Atitlán	14	Cerro de Oro	11	Noviembre	2023-06-11T00:00:00	2024-11-08T02:00:00	1	Precipitación	0
182560	7	Sololá	719	Santiago Atitlán	14	Cerro de Oro	11	Noviembre	2023-06-11T00:00:00	2024-11-08T02:00:00	8	Radiación solar	0
182561	7	Sololá	719	Santiago Atitlán	14	Cerro de Oro	11	Noviembre	2023-06-11T00:00:00	2024-11-08T03:00:00	2	Temperatura media	19.5
182562	7	Sololá	719	Santiago Atitlán	14	Cerro de Oro	11	Noviembre	2023-06-11T00:00:00	2024-11-08T03:00:00	4	Temperatura máxima	20.3
182563	7	Sololá	719	Santiago Atitlán	14	Cerro de Oro	11	Noviembre	2023-06-11T00:00:00	2024-11-08T03:00:00	3	Temperatura mínima	19.3
182564	7	Sololá	719	Santiago Atitlán	14	Cerro de Oro	11	Noviembre	2023-06-11T00:00:00	2024-11-08T03:00:00	5	Humedad	81
182565	7	Sololá	719	Santiago Atitlán	14	Cerro de Oro	11	Noviembre	2023-06-11T00:00:00	2024-11-08T03:00:00	6	Velocidad del viento	0
182566	7	Sololá	719	Santiago Atitlán	14	Cerro de Oro	11	Noviembre	2023-06-11T00:00:00	2024-11-08T03:00:00	7	Dirección del viento	0
182567	7	Sololá	719	Santiago Atitlán	14	Cerro de Oro	11	Noviembre	2023-06-11T00:00:00	2024-11-08T03:00:00	1	Precipitación	0
182568	7	Sololá	719	Santiago Atitlán	14	Cerro de Oro	11	Noviembre	2023-06-11T00:00:00	2024-11-08T03:00:00	8	Radiación solar	0
182569	7	Sololá	719	Santiago Atitlán	14	Cerro de Oro	11	Noviembre	2023-06-11T00:00:00	2024-11-08T04:00:00	2	Temperatura media	19.4
182570	7	Sololá	719	Santiago Atitlán	14	Cerro de Oro	11	Noviembre	2023-06-11T00:00:00	2024-11-08T04:00:00	4	Temperatura máxima	19.6
182571	7	Sololá	719	Santiago Atitlán	14	Cerro de Oro	11	Noviembre	2023-06-11T00:00:00	2024-11-08T04:00:00	3	Temperatura mínima	19.3
182572	7	Sololá	719	Santiago Atitlán	14	Cerro de Oro	11	Noviembre	2023-06-11T00:00:00	2024-11-08T04:00:00	5	Humedad	83
182573	7	Sololá	719	Santiago Atitlán	14	Cerro de Oro	11	Noviembre	2023-06-11T00:00:00	2024-11-08T04:00:00	6	Velocidad del viento	1.6
182574	7	Sololá	719	Santiago Atitlán	14	Cerro de Oro	11	Noviembre	2023-06-11T00:00:00	2024-11-08T04:00:00	7	Dirección del viento	1.61
182575	7	Sololá	719	Santiago Atitlán	14	Cerro de Oro	11	Noviembre	2023-06-11T00:00:00	2024-11-08T04:00:00	1	Precipitación	0
182576	7	Sololá	719	Santiago Atitlán	14	Cerro de Oro	11	Noviembre	2023-06-11T00:00:00	2024-11-08T04:00:00	8	Radiación solar	0
182577	7	Sololá	719	Santiago Atitlán	14	Cerro de Oro	11	Noviembre	2023-06-11T00:00:00	2024-11-08T05:00:00	2	Temperatura media	19.3
182578	7	Sololá	719	Santiago Atitlán	14	Cerro de Oro	11	Noviembre	2023-06-11T00:00:00	2024-11-08T05:00:00	4	Temperatura máxima	19.4
182579	7	Sololá	719	Santiago Atitlán	14	Cerro de Oro	11	Noviembre	2023-06-11T00:00:00	2024-11-08T05:00:00	3	Temperatura mínima	19.1
182580	7	Sololá	719	Santiago Atitlán	14	Cerro de Oro	11	Noviembre	2023-06-11T00:00:00	2024-11-08T05:00:00	5	Humedad	83
182581	7	Sololá	719	Santiago Atitlán	14	Cerro de Oro	11	Noviembre	2023-06-11T00:00:00	2024-11-08T05:00:00	6	Velocidad del viento	1.6
182582	7	Sololá	719	Santiago Atitlán	14	Cerro de Oro	11	Noviembre	2023-06-11T00:00:00	2024-11-08T05:00:00	7	Dirección del viento	1.61
182583	7	Sololá	719	Santiago Atitlán	14	Cerro de Oro	11	Noviembre	2023-06-11T00:00:00	2024-11-08T05:00:00	1	Precipitación	0
182584	7	Sololá	719	Santiago Atitlán	14	Cerro de Oro	11	Noviembre	2023-06-11T00:00:00	2024-11-08T05:00:00	8	Radiación solar	0
182585	7	Sololá	719	Santiago Atitlán	14	Cerro de Oro	11	Noviembre	2023-06-11T00:00:00	2024-11-08T06:00:00	2	Temperatura media	19.6
182586	7	Sololá	719	Santiago Atitlán	14	Cerro de Oro	11	Noviembre	2023-06-11T00:00:00	2024-11-08T06:00:00	4	Temperatura máxima	19.6
182587	7	Sololá	719	Santiago Atitlán	14	Cerro de Oro	11	Noviembre	2023-06-11T00:00:00	2024-11-08T06:00:00	3	Temperatura mínima	19.1
182588	7	Sololá	719	Santiago Atitlán	14	Cerro de Oro	11	Noviembre	2023-06-11T00:00:00	2024-11-08T06:00:00	5	Humedad	83
182589	7	Sololá	719	Santiago Atitlán	14	Cerro de Oro	11	Noviembre	2023-06-11T00:00:00	2024-11-08T06:00:00	6	Velocidad del viento	1.6
182590	7	Sololá	719	Santiago Atitlán	14	Cerro de Oro	11	Noviembre	2023-06-11T00:00:00	2024-11-08T06:00:00	7	Dirección del viento	1.61
182591	7	Sololá	719	Santiago Atitlán	14	Cerro de Oro	11	Noviembre	2023-06-11T00:00:00	2024-11-08T06:00:00	1	Precipitación	0
182592	7	Sololá	719	Santiago Atitlán	14	Cerro de Oro	11	Noviembre	2023-06-11T00:00:00	2024-11-08T06:00:00	8	Radiación solar	41
182593	7	Sololá	719	Santiago Atitlán	14	Cerro de Oro	11	Noviembre	2023-06-11T00:00:00	2024-11-08T07:00:00	2	Temperatura media	21.7
182594	7	Sololá	719	Santiago Atitlán	14	Cerro de Oro	11	Noviembre	2023-06-11T00:00:00	2024-11-08T07:00:00	4	Temperatura máxima	21.8
182595	7	Sololá	719	Santiago Atitlán	14	Cerro de Oro	11	Noviembre	2023-06-11T00:00:00	2024-11-08T07:00:00	3	Temperatura mínima	19.6
182596	7	Sololá	719	Santiago Atitlán	14	Cerro de Oro	11	Noviembre	2023-06-11T00:00:00	2024-11-08T07:00:00	5	Humedad	72
182597	7	Sololá	719	Santiago Atitlán	14	Cerro de Oro	11	Noviembre	2023-06-11T00:00:00	2024-11-08T07:00:00	6	Velocidad del viento	1.6
182598	7	Sololá	719	Santiago Atitlán	14	Cerro de Oro	11	Noviembre	2023-06-11T00:00:00	2024-11-08T07:00:00	7	Dirección del viento	1.61
182599	7	Sololá	719	Santiago Atitlán	14	Cerro de Oro	11	Noviembre	2023-06-11T00:00:00	2024-11-08T07:00:00	1	Precipitación	0
182600	7	Sololá	719	Santiago Atitlán	14	Cerro de Oro	11	Noviembre	2023-06-11T00:00:00	2024-11-08T07:00:00	8	Radiación solar	110
182601	7	Sololá	719	Santiago Atitlán	14	Cerro de Oro	11	Noviembre	2023-06-11T00:00:00	2024-11-08T08:00:00	2	Temperatura media	22.3
182602	7	Sololá	719	Santiago Atitlán	14	Cerro de Oro	11	Noviembre	2023-06-11T00:00:00	2024-11-08T08:00:00	4	Temperatura máxima	22.4
182603	7	Sololá	719	Santiago Atitlán	14	Cerro de Oro	11	Noviembre	2023-06-11T00:00:00	2024-11-08T08:00:00	3	Temperatura mínima	21.7
182604	7	Sololá	719	Santiago Atitlán	14	Cerro de Oro	11	Noviembre	2023-06-11T00:00:00	2024-11-08T08:00:00	5	Humedad	70
182605	7	Sololá	719	Santiago Atitlán	14	Cerro de Oro	11	Noviembre	2023-06-11T00:00:00	2024-11-08T08:00:00	6	Velocidad del viento	4.8
182606	7	Sololá	719	Santiago Atitlán	14	Cerro de Oro	11	Noviembre	2023-06-11T00:00:00	2024-11-08T08:00:00	7	Dirección del viento	4.83
182607	7	Sololá	719	Santiago Atitlán	14	Cerro de Oro	11	Noviembre	2023-06-11T00:00:00	2024-11-08T08:00:00	1	Precipitación	0
182608	7	Sololá	719	Santiago Atitlán	14	Cerro de Oro	11	Noviembre	2023-06-11T00:00:00	2024-11-08T08:00:00	8	Radiación solar	151
182609	7	Sololá	719	Santiago Atitlán	14	Cerro de Oro	11	Noviembre	2023-06-11T00:00:00	2024-11-08T09:00:00	2	Temperatura media	23.5
182610	7	Sololá	719	Santiago Atitlán	14	Cerro de Oro	11	Noviembre	2023-06-11T00:00:00	2024-11-08T09:00:00	4	Temperatura máxima	23.5
182611	7	Sololá	719	Santiago Atitlán	14	Cerro de Oro	11	Noviembre	2023-06-11T00:00:00	2024-11-08T09:00:00	3	Temperatura mínima	22.3
182612	7	Sololá	719	Santiago Atitlán	14	Cerro de Oro	11	Noviembre	2023-06-11T00:00:00	2024-11-08T09:00:00	5	Humedad	69
182613	7	Sololá	719	Santiago Atitlán	14	Cerro de Oro	11	Noviembre	2023-06-11T00:00:00	2024-11-08T09:00:00	6	Velocidad del viento	6.4
182614	7	Sololá	719	Santiago Atitlán	14	Cerro de Oro	11	Noviembre	2023-06-11T00:00:00	2024-11-08T09:00:00	7	Dirección del viento	6.44
182615	7	Sololá	719	Santiago Atitlán	14	Cerro de Oro	11	Noviembre	2023-06-11T00:00:00	2024-11-08T09:00:00	1	Precipitación	0
182616	7	Sololá	719	Santiago Atitlán	14	Cerro de Oro	11	Noviembre	2023-06-11T00:00:00	2024-11-08T09:00:00	8	Radiación solar	357
182617	7	Sololá	719	Santiago Atitlán	14	Cerro de Oro	11	Noviembre	2023-06-11T00:00:00	2024-11-08T10:00:00	2	Temperatura media	23.7
182618	7	Sololá	719	Santiago Atitlán	14	Cerro de Oro	11	Noviembre	2023-06-11T00:00:00	2024-11-08T10:00:00	4	Temperatura máxima	24.3
182619	7	Sololá	719	Santiago Atitlán	14	Cerro de Oro	11	Noviembre	2023-06-11T00:00:00	2024-11-08T10:00:00	3	Temperatura mínima	23.4
182620	7	Sololá	719	Santiago Atitlán	14	Cerro de Oro	11	Noviembre	2023-06-11T00:00:00	2024-11-08T10:00:00	5	Humedad	70
182621	7	Sololá	719	Santiago Atitlán	14	Cerro de Oro	11	Noviembre	2023-06-11T00:00:00	2024-11-08T10:00:00	6	Velocidad del viento	8
182622	7	Sololá	719	Santiago Atitlán	14	Cerro de Oro	11	Noviembre	2023-06-11T00:00:00	2024-11-08T10:00:00	7	Dirección del viento	8.05
182623	7	Sololá	719	Santiago Atitlán	14	Cerro de Oro	11	Noviembre	2023-06-11T00:00:00	2024-11-08T10:00:00	1	Precipitación	0
182624	7	Sololá	719	Santiago Atitlán	14	Cerro de Oro	11	Noviembre	2023-06-11T00:00:00	2024-11-08T10:00:00	8	Radiación solar	481
182625	7	Sololá	719	Santiago Atitlán	14	Cerro de Oro	11	Noviembre	2023-06-11T00:00:00	2024-11-08T11:00:00	2	Temperatura media	23.6
182626	7	Sololá	719	Santiago Atitlán	14	Cerro de Oro	11	Noviembre	2023-06-11T00:00:00	2024-11-08T11:00:00	4	Temperatura máxima	24
182627	7	Sololá	719	Santiago Atitlán	14	Cerro de Oro	11	Noviembre	2023-06-11T00:00:00	2024-11-08T11:00:00	3	Temperatura mínima	23.6
182628	7	Sololá	719	Santiago Atitlán	14	Cerro de Oro	11	Noviembre	2023-06-11T00:00:00	2024-11-08T11:00:00	5	Humedad	68
182629	7	Sololá	719	Santiago Atitlán	14	Cerro de Oro	11	Noviembre	2023-06-11T00:00:00	2024-11-08T11:00:00	6	Velocidad del viento	9.7
182630	7	Sololá	719	Santiago Atitlán	14	Cerro de Oro	11	Noviembre	2023-06-11T00:00:00	2024-11-08T11:00:00	7	Dirección del viento	9.66
182631	7	Sololá	719	Santiago Atitlán	14	Cerro de Oro	11	Noviembre	2023-06-11T00:00:00	2024-11-08T11:00:00	1	Precipitación	0
182632	7	Sololá	719	Santiago Atitlán	14	Cerro de Oro	11	Noviembre	2023-06-11T00:00:00	2024-11-08T11:00:00	8	Radiación solar	407
182633	7	Sololá	719	Santiago Atitlán	14	Cerro de Oro	11	Noviembre	2023-06-11T00:00:00	2024-11-08T12:00:00	2	Temperatura media	24.2
182634	7	Sololá	719	Santiago Atitlán	14	Cerro de Oro	11	Noviembre	2023-06-11T00:00:00	2024-11-08T12:00:00	4	Temperatura máxima	24.2
182635	7	Sololá	719	Santiago Atitlán	14	Cerro de Oro	11	Noviembre	2023-06-11T00:00:00	2024-11-08T12:00:00	3	Temperatura mínima	23.6
182636	7	Sololá	719	Santiago Atitlán	14	Cerro de Oro	11	Noviembre	2023-06-11T00:00:00	2024-11-08T12:00:00	5	Humedad	67
182637	7	Sololá	719	Santiago Atitlán	14	Cerro de Oro	11	Noviembre	2023-06-11T00:00:00	2024-11-08T12:00:00	6	Velocidad del viento	6.4
182638	7	Sololá	719	Santiago Atitlán	14	Cerro de Oro	11	Noviembre	2023-06-11T00:00:00	2024-11-08T12:00:00	7	Dirección del viento	6.44
182639	7	Sololá	719	Santiago Atitlán	14	Cerro de Oro	11	Noviembre	2023-06-11T00:00:00	2024-11-08T12:00:00	1	Precipitación	0
182640	7	Sololá	719	Santiago Atitlán	14	Cerro de Oro	11	Noviembre	2023-06-11T00:00:00	2024-11-08T12:00:00	8	Radiación solar	275
182641	7	Sololá	719	Santiago Atitlán	14	Cerro de Oro	11	Noviembre	2023-06-11T00:00:00	2024-11-08T13:00:00	2	Temperatura media	23.9
182642	7	Sololá	719	Santiago Atitlán	14	Cerro de Oro	11	Noviembre	2023-06-11T00:00:00	2024-11-08T13:00:00	4	Temperatura máxima	24.9
182643	7	Sololá	719	Santiago Atitlán	14	Cerro de Oro	11	Noviembre	2023-06-11T00:00:00	2024-11-08T13:00:00	3	Temperatura mínima	23.9
182644	7	Sololá	719	Santiago Atitlán	14	Cerro de Oro	11	Noviembre	2023-06-11T00:00:00	2024-11-08T13:00:00	5	Humedad	68
182645	7	Sololá	719	Santiago Atitlán	14	Cerro de Oro	11	Noviembre	2023-06-11T00:00:00	2024-11-08T13:00:00	6	Velocidad del viento	8
182646	7	Sololá	719	Santiago Atitlán	14	Cerro de Oro	11	Noviembre	2023-06-11T00:00:00	2024-11-08T13:00:00	7	Dirección del viento	8.05
182647	7	Sololá	719	Santiago Atitlán	14	Cerro de Oro	11	Noviembre	2023-06-11T00:00:00	2024-11-08T13:00:00	1	Precipitación	0
182648	7	Sololá	719	Santiago Atitlán	14	Cerro de Oro	11	Noviembre	2023-06-11T00:00:00	2024-11-08T13:00:00	8	Radiación solar	270
182649	7	Sololá	719	Santiago Atitlán	14	Cerro de Oro	11	Noviembre	2023-06-11T00:00:00	2024-11-08T14:00:00	2	Temperatura media	24
182650	7	Sololá	719	Santiago Atitlán	14	Cerro de Oro	11	Noviembre	2023-06-11T00:00:00	2024-11-08T14:00:00	4	Temperatura máxima	24.3
182651	7	Sololá	719	Santiago Atitlán	14	Cerro de Oro	11	Noviembre	2023-06-11T00:00:00	2024-11-08T14:00:00	3	Temperatura mínima	23.9
182652	7	Sololá	719	Santiago Atitlán	14	Cerro de Oro	11	Noviembre	2023-06-11T00:00:00	2024-11-08T14:00:00	5	Humedad	68
182653	7	Sololá	719	Santiago Atitlán	14	Cerro de Oro	11	Noviembre	2023-06-11T00:00:00	2024-11-08T14:00:00	6	Velocidad del viento	4.8
182654	7	Sololá	719	Santiago Atitlán	14	Cerro de Oro	11	Noviembre	2023-06-11T00:00:00	2024-11-08T14:00:00	7	Dirección del viento	4.83
182655	7	Sololá	719	Santiago Atitlán	14	Cerro de Oro	11	Noviembre	2023-06-11T00:00:00	2024-11-08T14:00:00	1	Precipitación	0
182656	7	Sololá	719	Santiago Atitlán	14	Cerro de Oro	11	Noviembre	2023-06-11T00:00:00	2024-11-08T14:00:00	8	Radiación solar	196
182657	7	Sololá	719	Santiago Atitlán	14	Cerro de Oro	11	Noviembre	2023-06-11T00:00:00	2024-11-08T15:00:00	2	Temperatura media	24.1
182658	7	Sololá	719	Santiago Atitlán	14	Cerro de Oro	11	Noviembre	2023-06-11T00:00:00	2024-11-08T15:00:00	4	Temperatura máxima	24.1
182659	7	Sololá	719	Santiago Atitlán	14	Cerro de Oro	11	Noviembre	2023-06-11T00:00:00	2024-11-08T15:00:00	3	Temperatura mínima	23.7
182660	7	Sololá	719	Santiago Atitlán	14	Cerro de Oro	11	Noviembre	2023-06-11T00:00:00	2024-11-08T15:00:00	5	Humedad	66
182661	7	Sololá	719	Santiago Atitlán	14	Cerro de Oro	11	Noviembre	2023-06-11T00:00:00	2024-11-08T15:00:00	6	Velocidad del viento	6.4
182662	7	Sololá	719	Santiago Atitlán	14	Cerro de Oro	11	Noviembre	2023-06-11T00:00:00	2024-11-08T15:00:00	7	Dirección del viento	6.44
182663	7	Sololá	719	Santiago Atitlán	14	Cerro de Oro	11	Noviembre	2023-06-11T00:00:00	2024-11-08T15:00:00	1	Precipitación	0
182664	7	Sololá	719	Santiago Atitlán	14	Cerro de Oro	11	Noviembre	2023-06-11T00:00:00	2024-11-08T15:00:00	8	Radiación solar	146
182665	7	Sololá	719	Santiago Atitlán	14	Cerro de Oro	11	Noviembre	2023-06-11T00:00:00	2024-11-08T16:00:00	2	Temperatura media	22.7
182666	7	Sololá	719	Santiago Atitlán	14	Cerro de Oro	11	Noviembre	2023-06-11T00:00:00	2024-11-08T16:00:00	4	Temperatura máxima	24.3
182667	7	Sololá	719	Santiago Atitlán	14	Cerro de Oro	11	Noviembre	2023-06-11T00:00:00	2024-11-08T16:00:00	3	Temperatura mínima	22.7
182668	7	Sololá	719	Santiago Atitlán	14	Cerro de Oro	11	Noviembre	2023-06-11T00:00:00	2024-11-08T16:00:00	5	Humedad	72
182669	7	Sololá	719	Santiago Atitlán	14	Cerro de Oro	11	Noviembre	2023-06-11T00:00:00	2024-11-08T16:00:00	6	Velocidad del viento	8
182670	7	Sololá	719	Santiago Atitlán	14	Cerro de Oro	11	Noviembre	2023-06-11T00:00:00	2024-11-08T16:00:00	7	Dirección del viento	8.05
182671	7	Sololá	719	Santiago Atitlán	14	Cerro de Oro	11	Noviembre	2023-06-11T00:00:00	2024-11-08T16:00:00	1	Precipitación	0
182672	7	Sololá	719	Santiago Atitlán	14	Cerro de Oro	11	Noviembre	2023-06-11T00:00:00	2024-11-08T16:00:00	8	Radiación solar	47
182673	7	Sololá	719	Santiago Atitlán	14	Cerro de Oro	11	Noviembre	2023-06-11T00:00:00	2024-11-08T17:00:00	2	Temperatura media	22.2
182674	7	Sololá	719	Santiago Atitlán	14	Cerro de Oro	11	Noviembre	2023-06-11T00:00:00	2024-11-08T17:00:00	4	Temperatura máxima	22.7
182675	7	Sololá	719	Santiago Atitlán	14	Cerro de Oro	11	Noviembre	2023-06-11T00:00:00	2024-11-08T17:00:00	3	Temperatura mínima	22.1
182676	7	Sololá	719	Santiago Atitlán	14	Cerro de Oro	11	Noviembre	2023-06-11T00:00:00	2024-11-08T17:00:00	5	Humedad	72
182677	7	Sololá	719	Santiago Atitlán	14	Cerro de Oro	11	Noviembre	2023-06-11T00:00:00	2024-11-08T17:00:00	6	Velocidad del viento	1.6
182678	7	Sololá	719	Santiago Atitlán	14	Cerro de Oro	11	Noviembre	2023-06-11T00:00:00	2024-11-08T17:00:00	7	Dirección del viento	1.61
182679	7	Sololá	719	Santiago Atitlán	14	Cerro de Oro	11	Noviembre	2023-06-11T00:00:00	2024-11-08T17:00:00	1	Precipitación	0
182680	7	Sololá	719	Santiago Atitlán	14	Cerro de Oro	11	Noviembre	2023-06-11T00:00:00	2024-11-08T17:00:00	8	Radiación solar	1
182681	7	Sololá	719	Santiago Atitlán	14	Cerro de Oro	11	Noviembre	2023-06-11T00:00:00	2024-11-08T18:00:00	2	Temperatura media	20.9
182682	7	Sololá	719	Santiago Atitlán	14	Cerro de Oro	11	Noviembre	2023-06-11T00:00:00	2024-11-08T18:00:00	4	Temperatura máxima	22.2
182683	7	Sololá	719	Santiago Atitlán	14	Cerro de Oro	11	Noviembre	2023-06-11T00:00:00	2024-11-08T18:00:00	3	Temperatura mínima	20.9
182684	7	Sololá	719	Santiago Atitlán	14	Cerro de Oro	11	Noviembre	2023-06-11T00:00:00	2024-11-08T18:00:00	5	Humedad	80
182685	7	Sololá	719	Santiago Atitlán	14	Cerro de Oro	11	Noviembre	2023-06-11T00:00:00	2024-11-08T18:00:00	6	Velocidad del viento	0
182686	7	Sololá	719	Santiago Atitlán	14	Cerro de Oro	11	Noviembre	2023-06-11T00:00:00	2024-11-08T18:00:00	7	Dirección del viento	0
182687	7	Sololá	719	Santiago Atitlán	14	Cerro de Oro	11	Noviembre	2023-06-11T00:00:00	2024-11-08T18:00:00	1	Precipitación	0
182688	7	Sololá	719	Santiago Atitlán	14	Cerro de Oro	11	Noviembre	2023-06-11T00:00:00	2024-11-08T18:00:00	8	Radiación solar	0
182689	7	Sololá	719	Santiago Atitlán	14	Cerro de Oro	11	Noviembre	2023-06-11T00:00:00	2024-11-08T19:00:00	2	Temperatura media	20.7
182690	7	Sololá	719	Santiago Atitlán	14	Cerro de Oro	11	Noviembre	2023-06-11T00:00:00	2024-11-08T19:00:00	4	Temperatura máxima	21.9
182691	7	Sololá	719	Santiago Atitlán	14	Cerro de Oro	11	Noviembre	2023-06-11T00:00:00	2024-11-08T19:00:00	3	Temperatura mínima	20.4
182692	7	Sololá	719	Santiago Atitlán	14	Cerro de Oro	11	Noviembre	2023-06-11T00:00:00	2024-11-08T19:00:00	5	Humedad	79
182693	7	Sololá	719	Santiago Atitlán	14	Cerro de Oro	11	Noviembre	2023-06-11T00:00:00	2024-11-08T19:00:00	6	Velocidad del viento	1.6
182694	7	Sololá	719	Santiago Atitlán	14	Cerro de Oro	11	Noviembre	2023-06-11T00:00:00	2024-11-08T19:00:00	7	Dirección del viento	1.61
182695	7	Sololá	719	Santiago Atitlán	14	Cerro de Oro	11	Noviembre	2023-06-11T00:00:00	2024-11-08T19:00:00	1	Precipitación	0
182696	7	Sololá	719	Santiago Atitlán	14	Cerro de Oro	11	Noviembre	2023-06-11T00:00:00	2024-11-08T19:00:00	8	Radiación solar	0
182697	7	Sololá	719	Santiago Atitlán	14	Cerro de Oro	11	Noviembre	2023-06-11T00:00:00	2024-11-08T20:00:00	2	Temperatura media	20.3
182698	7	Sololá	719	Santiago Atitlán	14	Cerro de Oro	11	Noviembre	2023-06-11T00:00:00	2024-11-08T20:00:00	4	Temperatura máxima	21.4
182699	7	Sololá	719	Santiago Atitlán	14	Cerro de Oro	11	Noviembre	2023-06-11T00:00:00	2024-11-08T20:00:00	3	Temperatura mínima	20.3
182700	7	Sololá	719	Santiago Atitlán	14	Cerro de Oro	11	Noviembre	2023-06-11T00:00:00	2024-11-08T20:00:00	5	Humedad	81
182701	7	Sololá	719	Santiago Atitlán	14	Cerro de Oro	11	Noviembre	2023-06-11T00:00:00	2024-11-08T20:00:00	6	Velocidad del viento	0
182702	7	Sololá	719	Santiago Atitlán	14	Cerro de Oro	11	Noviembre	2023-06-11T00:00:00	2024-11-08T20:00:00	7	Dirección del viento	0
182703	7	Sololá	719	Santiago Atitlán	14	Cerro de Oro	11	Noviembre	2023-06-11T00:00:00	2024-11-08T20:00:00	1	Precipitación	0
182704	7	Sololá	719	Santiago Atitlán	14	Cerro de Oro	11	Noviembre	2023-06-11T00:00:00	2024-11-08T20:00:00	8	Radiación solar	0
182705	7	Sololá	719	Santiago Atitlán	14	Cerro de Oro	11	Noviembre	2023-06-11T00:00:00	2024-11-08T21:00:00	2	Temperatura media	21.4
182706	7	Sololá	719	Santiago Atitlán	14	Cerro de Oro	11	Noviembre	2023-06-11T00:00:00	2024-11-08T21:00:00	4	Temperatura máxima	21.5
182707	7	Sololá	719	Santiago Atitlán	14	Cerro de Oro	11	Noviembre	2023-06-11T00:00:00	2024-11-08T21:00:00	3	Temperatura mínima	20
182708	7	Sololá	719	Santiago Atitlán	14	Cerro de Oro	11	Noviembre	2023-06-11T00:00:00	2024-11-08T21:00:00	5	Humedad	76
182709	7	Sololá	719	Santiago Atitlán	14	Cerro de Oro	11	Noviembre	2023-06-11T00:00:00	2024-11-08T21:00:00	6	Velocidad del viento	3.2
182710	7	Sololá	719	Santiago Atitlán	14	Cerro de Oro	11	Noviembre	2023-06-11T00:00:00	2024-11-08T21:00:00	7	Dirección del viento	3.22
182711	7	Sololá	719	Santiago Atitlán	14	Cerro de Oro	11	Noviembre	2023-06-11T00:00:00	2024-11-08T21:00:00	1	Precipitación	0
182712	7	Sololá	719	Santiago Atitlán	14	Cerro de Oro	11	Noviembre	2023-06-11T00:00:00	2024-11-08T21:00:00	8	Radiación solar	0
182713	7	Sololá	719	Santiago Atitlán	14	Cerro de Oro	11	Noviembre	2023-06-11T00:00:00	2024-11-08T22:00:00	2	Temperatura media	20.6
182714	7	Sololá	719	Santiago Atitlán	14	Cerro de Oro	11	Noviembre	2023-06-11T00:00:00	2024-11-08T22:00:00	4	Temperatura máxima	21.4
182715	7	Sololá	719	Santiago Atitlán	14	Cerro de Oro	11	Noviembre	2023-06-11T00:00:00	2024-11-08T22:00:00	3	Temperatura mínima	20.3
182716	7	Sololá	719	Santiago Atitlán	14	Cerro de Oro	11	Noviembre	2023-06-11T00:00:00	2024-11-08T22:00:00	5	Humedad	81
182717	7	Sololá	719	Santiago Atitlán	14	Cerro de Oro	11	Noviembre	2023-06-11T00:00:00	2024-11-08T22:00:00	6	Velocidad del viento	0
182718	7	Sololá	719	Santiago Atitlán	14	Cerro de Oro	11	Noviembre	2023-06-11T00:00:00	2024-11-08T22:00:00	7	Dirección del viento	0
182719	7	Sololá	719	Santiago Atitlán	14	Cerro de Oro	11	Noviembre	2023-06-11T00:00:00	2024-11-08T22:00:00	1	Precipitación	0
182720	7	Sololá	719	Santiago Atitlán	14	Cerro de Oro	11	Noviembre	2023-06-11T00:00:00	2024-11-08T22:00:00	8	Radiación solar	0
182721	7	Sololá	719	Santiago Atitlán	14	Cerro de Oro	11	Noviembre	2023-06-11T00:00:00	2024-11-08T23:00:00	2	Temperatura media	19.4
182722	7	Sololá	719	Santiago Atitlán	14	Cerro de Oro	11	Noviembre	2023-06-11T00:00:00	2024-11-08T23:00:00	4	Temperatura máxima	20.6
182723	7	Sololá	719	Santiago Atitlán	14	Cerro de Oro	11	Noviembre	2023-06-11T00:00:00	2024-11-08T23:00:00	3	Temperatura mínima	19.4
182724	7	Sololá	719	Santiago Atitlán	14	Cerro de Oro	11	Noviembre	2023-06-11T00:00:00	2024-11-08T23:00:00	5	Humedad	84
182725	7	Sololá	719	Santiago Atitlán	14	Cerro de Oro	11	Noviembre	2023-06-11T00:00:00	2024-11-08T23:00:00	6	Velocidad del viento	0
182726	7	Sololá	719	Santiago Atitlán	14	Cerro de Oro	11	Noviembre	2023-06-11T00:00:00	2024-11-08T23:00:00	7	Dirección del viento	0
182727	7	Sololá	719	Santiago Atitlán	14	Cerro de Oro	11	Noviembre	2023-06-11T00:00:00	2024-11-08T23:00:00	1	Precipitación	0
182728	7	Sololá	719	Santiago Atitlán	14	Cerro de Oro	11	Noviembre	2023-06-11T00:00:00	2024-11-08T23:00:00	8	Radiación solar	0
182729	7	Sololá	719	Santiago Atitlán	14	Cerro de Oro	11	Noviembre	2023-07-11T00:00:00	2024-11-08T00:00:00	2	Temperatura media	19.3
182730	7	Sololá	719	Santiago Atitlán	14	Cerro de Oro	11	Noviembre	2023-07-11T00:00:00	2024-11-08T00:00:00	4	Temperatura máxima	19.6
182731	7	Sololá	719	Santiago Atitlán	14	Cerro de Oro	11	Noviembre	2023-07-11T00:00:00	2024-11-08T00:00:00	3	Temperatura mínima	19.3
182732	7	Sololá	719	Santiago Atitlán	14	Cerro de Oro	11	Noviembre	2023-07-11T00:00:00	2024-11-08T00:00:00	5	Humedad	84
182733	7	Sololá	719	Santiago Atitlán	14	Cerro de Oro	11	Noviembre	2023-07-11T00:00:00	2024-11-08T00:00:00	6	Velocidad del viento	0
182734	7	Sololá	719	Santiago Atitlán	14	Cerro de Oro	11	Noviembre	2023-07-11T00:00:00	2024-11-08T00:00:00	7	Dirección del viento	0
182735	7	Sololá	719	Santiago Atitlán	14	Cerro de Oro	11	Noviembre	2023-07-11T00:00:00	2024-11-08T00:00:00	1	Precipitación	0
182736	7	Sololá	719	Santiago Atitlán	14	Cerro de Oro	11	Noviembre	2023-07-11T00:00:00	2024-11-08T00:00:00	8	Radiación solar	0
182737	7	Sololá	719	Santiago Atitlán	14	Cerro de Oro	11	Noviembre	2023-07-11T00:00:00	2024-11-08T01:00:00	2	Temperatura media	18.2
182738	7	Sololá	719	Santiago Atitlán	14	Cerro de Oro	11	Noviembre	2023-07-11T00:00:00	2024-11-08T01:00:00	4	Temperatura máxima	19.3
182739	7	Sololá	719	Santiago Atitlán	14	Cerro de Oro	11	Noviembre	2023-07-11T00:00:00	2024-11-08T01:00:00	3	Temperatura mínima	18.2
182740	7	Sololá	719	Santiago Atitlán	14	Cerro de Oro	11	Noviembre	2023-07-11T00:00:00	2024-11-08T01:00:00	5	Humedad	87
182741	7	Sololá	719	Santiago Atitlán	14	Cerro de Oro	11	Noviembre	2023-07-11T00:00:00	2024-11-08T01:00:00	6	Velocidad del viento	1.6
182742	7	Sololá	719	Santiago Atitlán	14	Cerro de Oro	11	Noviembre	2023-07-11T00:00:00	2024-11-08T01:00:00	7	Dirección del viento	1.61
182743	7	Sololá	719	Santiago Atitlán	14	Cerro de Oro	11	Noviembre	2023-07-11T00:00:00	2024-11-08T01:00:00	1	Precipitación	0
182744	7	Sololá	719	Santiago Atitlán	14	Cerro de Oro	11	Noviembre	2023-07-11T00:00:00	2024-11-08T01:00:00	8	Radiación solar	0
182745	7	Sololá	719	Santiago Atitlán	14	Cerro de Oro	11	Noviembre	2023-07-11T00:00:00	2024-11-08T02:00:00	2	Temperatura media	20.4
182746	7	Sololá	719	Santiago Atitlán	14	Cerro de Oro	11	Noviembre	2023-07-11T00:00:00	2024-11-08T02:00:00	4	Temperatura máxima	20.4
182747	7	Sololá	719	Santiago Atitlán	14	Cerro de Oro	11	Noviembre	2023-07-11T00:00:00	2024-11-08T02:00:00	3	Temperatura mínima	18.1
182748	7	Sololá	719	Santiago Atitlán	14	Cerro de Oro	11	Noviembre	2023-07-11T00:00:00	2024-11-08T02:00:00	5	Humedad	77
182749	7	Sololá	719	Santiago Atitlán	14	Cerro de Oro	11	Noviembre	2023-07-11T00:00:00	2024-11-08T02:00:00	6	Velocidad del viento	3.2
182750	7	Sololá	719	Santiago Atitlán	14	Cerro de Oro	11	Noviembre	2023-07-11T00:00:00	2024-11-08T02:00:00	7	Dirección del viento	3.22
182751	7	Sololá	719	Santiago Atitlán	14	Cerro de Oro	11	Noviembre	2023-07-11T00:00:00	2024-11-08T02:00:00	1	Precipitación	0
182752	7	Sololá	719	Santiago Atitlán	14	Cerro de Oro	11	Noviembre	2023-07-11T00:00:00	2024-11-08T02:00:00	8	Radiación solar	0
182753	7	Sololá	719	Santiago Atitlán	14	Cerro de Oro	11	Noviembre	2023-07-11T00:00:00	2024-11-08T03:00:00	2	Temperatura media	19.8
182754	7	Sololá	719	Santiago Atitlán	14	Cerro de Oro	11	Noviembre	2023-07-11T00:00:00	2024-11-08T03:00:00	4	Temperatura máxima	20.9
182755	7	Sololá	719	Santiago Atitlán	14	Cerro de Oro	11	Noviembre	2023-07-11T00:00:00	2024-11-08T03:00:00	3	Temperatura mínima	19.8
182756	7	Sololá	719	Santiago Atitlán	14	Cerro de Oro	11	Noviembre	2023-07-11T00:00:00	2024-11-08T03:00:00	5	Humedad	80
182757	7	Sololá	719	Santiago Atitlán	14	Cerro de Oro	11	Noviembre	2023-07-11T00:00:00	2024-11-08T03:00:00	6	Velocidad del viento	4.8
182758	7	Sololá	719	Santiago Atitlán	14	Cerro de Oro	11	Noviembre	2023-07-11T00:00:00	2024-11-08T03:00:00	7	Dirección del viento	4.83
182759	7	Sololá	719	Santiago Atitlán	14	Cerro de Oro	11	Noviembre	2023-07-11T00:00:00	2024-11-08T03:00:00	1	Precipitación	0
182760	7	Sololá	719	Santiago Atitlán	14	Cerro de Oro	11	Noviembre	2023-07-11T00:00:00	2024-11-08T03:00:00	8	Radiación solar	0
182761	7	Sololá	719	Santiago Atitlán	14	Cerro de Oro	11	Noviembre	2023-07-11T00:00:00	2024-11-08T04:00:00	2	Temperatura media	19.9
182762	7	Sololá	719	Santiago Atitlán	14	Cerro de Oro	11	Noviembre	2023-07-11T00:00:00	2024-11-08T04:00:00	4	Temperatura máxima	19.9
182763	7	Sololá	719	Santiago Atitlán	14	Cerro de Oro	11	Noviembre	2023-07-11T00:00:00	2024-11-08T04:00:00	3	Temperatura mínima	18.5
182764	7	Sololá	719	Santiago Atitlán	14	Cerro de Oro	11	Noviembre	2023-07-11T00:00:00	2024-11-08T04:00:00	5	Humedad	81
182765	7	Sololá	719	Santiago Atitlán	14	Cerro de Oro	11	Noviembre	2023-07-11T00:00:00	2024-11-08T04:00:00	6	Velocidad del viento	1.6
182766	7	Sololá	719	Santiago Atitlán	14	Cerro de Oro	11	Noviembre	2023-07-11T00:00:00	2024-11-08T04:00:00	7	Dirección del viento	1.61
182767	7	Sololá	719	Santiago Atitlán	14	Cerro de Oro	11	Noviembre	2023-07-11T00:00:00	2024-11-08T04:00:00	1	Precipitación	0
182768	7	Sololá	719	Santiago Atitlán	14	Cerro de Oro	11	Noviembre	2023-07-11T00:00:00	2024-11-08T04:00:00	8	Radiación solar	0
182769	7	Sololá	719	Santiago Atitlán	14	Cerro de Oro	11	Noviembre	2023-07-11T00:00:00	2024-11-08T05:00:00	2	Temperatura media	19.6
182770	7	Sololá	719	Santiago Atitlán	14	Cerro de Oro	11	Noviembre	2023-07-11T00:00:00	2024-11-08T05:00:00	4	Temperatura máxima	20
182771	7	Sololá	719	Santiago Atitlán	14	Cerro de Oro	11	Noviembre	2023-07-11T00:00:00	2024-11-08T05:00:00	3	Temperatura mínima	18.9
182772	7	Sololá	719	Santiago Atitlán	14	Cerro de Oro	11	Noviembre	2023-07-11T00:00:00	2024-11-08T05:00:00	5	Humedad	81
182773	7	Sololá	719	Santiago Atitlán	14	Cerro de Oro	11	Noviembre	2023-07-11T00:00:00	2024-11-08T05:00:00	6	Velocidad del viento	0
182774	7	Sololá	719	Santiago Atitlán	14	Cerro de Oro	11	Noviembre	2023-07-11T00:00:00	2024-11-08T05:00:00	7	Dirección del viento	0
182775	7	Sololá	719	Santiago Atitlán	14	Cerro de Oro	11	Noviembre	2023-07-11T00:00:00	2024-11-08T05:00:00	1	Precipitación	0
182776	7	Sololá	719	Santiago Atitlán	14	Cerro de Oro	11	Noviembre	2023-07-11T00:00:00	2024-11-08T05:00:00	8	Radiación solar	0
182777	7	Sololá	719	Santiago Atitlán	14	Cerro de Oro	11	Noviembre	2023-07-11T00:00:00	2024-11-08T06:00:00	2	Temperatura media	21
182778	7	Sololá	719	Santiago Atitlán	14	Cerro de Oro	11	Noviembre	2023-07-11T00:00:00	2024-11-08T06:00:00	4	Temperatura máxima	21.1
182779	7	Sololá	719	Santiago Atitlán	14	Cerro de Oro	11	Noviembre	2023-07-11T00:00:00	2024-11-08T06:00:00	3	Temperatura mínima	19.5
182780	7	Sololá	719	Santiago Atitlán	14	Cerro de Oro	11	Noviembre	2023-07-11T00:00:00	2024-11-08T06:00:00	5	Humedad	76
182781	7	Sololá	719	Santiago Atitlán	14	Cerro de Oro	11	Noviembre	2023-07-11T00:00:00	2024-11-08T06:00:00	6	Velocidad del viento	3.2
182782	7	Sololá	719	Santiago Atitlán	14	Cerro de Oro	11	Noviembre	2023-07-11T00:00:00	2024-11-08T06:00:00	7	Dirección del viento	3.22
182783	7	Sololá	719	Santiago Atitlán	14	Cerro de Oro	11	Noviembre	2023-07-11T00:00:00	2024-11-08T06:00:00	1	Precipitación	0
182784	7	Sololá	719	Santiago Atitlán	14	Cerro de Oro	11	Noviembre	2023-07-11T00:00:00	2024-11-08T06:00:00	8	Radiación solar	20
182785	7	Sololá	719	Santiago Atitlán	14	Cerro de Oro	11	Noviembre	2023-07-11T00:00:00	2024-11-08T07:00:00	2	Temperatura media	22.9
182786	7	Sololá	719	Santiago Atitlán	14	Cerro de Oro	11	Noviembre	2023-07-11T00:00:00	2024-11-08T07:00:00	4	Temperatura máxima	23.1
182787	7	Sololá	719	Santiago Atitlán	14	Cerro de Oro	11	Noviembre	2023-07-11T00:00:00	2024-11-08T07:00:00	3	Temperatura mínima	21
182788	7	Sololá	719	Santiago Atitlán	14	Cerro de Oro	11	Noviembre	2023-07-11T00:00:00	2024-11-08T07:00:00	5	Humedad	71
182789	7	Sololá	719	Santiago Atitlán	14	Cerro de Oro	11	Noviembre	2023-07-11T00:00:00	2024-11-08T07:00:00	6	Velocidad del viento	4.8
182790	7	Sololá	719	Santiago Atitlán	14	Cerro de Oro	11	Noviembre	2023-07-11T00:00:00	2024-11-08T07:00:00	7	Dirección del viento	4.83
182791	7	Sololá	719	Santiago Atitlán	14	Cerro de Oro	11	Noviembre	2023-07-11T00:00:00	2024-11-08T07:00:00	1	Precipitación	0
182792	7	Sololá	719	Santiago Atitlán	14	Cerro de Oro	11	Noviembre	2023-07-11T00:00:00	2024-11-08T07:00:00	8	Radiación solar	205
182793	7	Sololá	719	Santiago Atitlán	14	Cerro de Oro	11	Noviembre	2023-07-11T00:00:00	2024-11-08T08:00:00	2	Temperatura media	24
182794	7	Sololá	719	Santiago Atitlán	14	Cerro de Oro	11	Noviembre	2023-07-11T00:00:00	2024-11-08T08:00:00	4	Temperatura máxima	24
182795	7	Sololá	719	Santiago Atitlán	14	Cerro de Oro	11	Noviembre	2023-07-11T00:00:00	2024-11-08T08:00:00	3	Temperatura mínima	22.9
182796	7	Sololá	719	Santiago Atitlán	14	Cerro de Oro	11	Noviembre	2023-07-11T00:00:00	2024-11-08T08:00:00	5	Humedad	68
182797	7	Sololá	719	Santiago Atitlán	14	Cerro de Oro	11	Noviembre	2023-07-11T00:00:00	2024-11-08T08:00:00	6	Velocidad del viento	4.8
182798	7	Sololá	719	Santiago Atitlán	14	Cerro de Oro	11	Noviembre	2023-07-11T00:00:00	2024-11-08T08:00:00	7	Dirección del viento	4.83
182799	7	Sololá	719	Santiago Atitlán	14	Cerro de Oro	11	Noviembre	2023-07-11T00:00:00	2024-11-08T08:00:00	1	Precipitación	0
182800	7	Sololá	719	Santiago Atitlán	14	Cerro de Oro	11	Noviembre	2023-07-11T00:00:00	2024-11-08T08:00:00	8	Radiación solar	536
182801	7	Sololá	719	Santiago Atitlán	14	Cerro de Oro	11	Noviembre	2023-07-11T00:00:00	2024-11-08T09:00:00	2	Temperatura media	25
182802	7	Sololá	719	Santiago Atitlán	14	Cerro de Oro	11	Noviembre	2023-07-11T00:00:00	2024-11-08T09:00:00	4	Temperatura máxima	25
182803	7	Sololá	719	Santiago Atitlán	14	Cerro de Oro	11	Noviembre	2023-07-11T00:00:00	2024-11-08T09:00:00	3	Temperatura mínima	24
182804	7	Sololá	719	Santiago Atitlán	14	Cerro de Oro	11	Noviembre	2023-07-11T00:00:00	2024-11-08T09:00:00	5	Humedad	66
182805	7	Sololá	719	Santiago Atitlán	14	Cerro de Oro	11	Noviembre	2023-07-11T00:00:00	2024-11-08T09:00:00	6	Velocidad del viento	6.4
182806	7	Sololá	719	Santiago Atitlán	14	Cerro de Oro	11	Noviembre	2023-07-11T00:00:00	2024-11-08T09:00:00	7	Dirección del viento	6.44
182807	7	Sololá	719	Santiago Atitlán	14	Cerro de Oro	11	Noviembre	2023-07-11T00:00:00	2024-11-08T09:00:00	1	Precipitación	0
182808	7	Sololá	719	Santiago Atitlán	14	Cerro de Oro	11	Noviembre	2023-07-11T00:00:00	2024-11-08T09:00:00	8	Radiación solar	765
182809	7	Sololá	719	Santiago Atitlán	14	Cerro de Oro	11	Noviembre	2023-07-11T00:00:00	2024-11-08T10:00:00	2	Temperatura media	24.9
182810	7	Sololá	719	Santiago Atitlán	14	Cerro de Oro	11	Noviembre	2023-07-11T00:00:00	2024-11-08T10:00:00	4	Temperatura máxima	25.8
182811	7	Sololá	719	Santiago Atitlán	14	Cerro de Oro	11	Noviembre	2023-07-11T00:00:00	2024-11-08T10:00:00	3	Temperatura mínima	24.7
182812	7	Sololá	719	Santiago Atitlán	14	Cerro de Oro	11	Noviembre	2023-07-11T00:00:00	2024-11-08T10:00:00	5	Humedad	65
182813	7	Sololá	719	Santiago Atitlán	14	Cerro de Oro	11	Noviembre	2023-07-11T00:00:00	2024-11-08T10:00:00	6	Velocidad del viento	6.4
182814	7	Sololá	719	Santiago Atitlán	14	Cerro de Oro	11	Noviembre	2023-07-11T00:00:00	2024-11-08T10:00:00	7	Dirección del viento	6.44
182815	7	Sololá	719	Santiago Atitlán	14	Cerro de Oro	11	Noviembre	2023-07-11T00:00:00	2024-11-08T10:00:00	1	Precipitación	0
182816	7	Sololá	719	Santiago Atitlán	14	Cerro de Oro	11	Noviembre	2023-07-11T00:00:00	2024-11-08T10:00:00	8	Radiación solar	891
182817	7	Sololá	719	Santiago Atitlán	14	Cerro de Oro	11	Noviembre	2023-07-11T00:00:00	2024-11-08T11:00:00	2	Temperatura media	25.6
182818	7	Sololá	719	Santiago Atitlán	14	Cerro de Oro	11	Noviembre	2023-07-11T00:00:00	2024-11-08T11:00:00	4	Temperatura máxima	25.9
182819	7	Sololá	719	Santiago Atitlán	14	Cerro de Oro	11	Noviembre	2023-07-11T00:00:00	2024-11-08T11:00:00	3	Temperatura mínima	24.9
182820	7	Sololá	719	Santiago Atitlán	14	Cerro de Oro	11	Noviembre	2023-07-11T00:00:00	2024-11-08T11:00:00	5	Humedad	63
182821	7	Sololá	719	Santiago Atitlán	14	Cerro de Oro	11	Noviembre	2023-07-11T00:00:00	2024-11-08T11:00:00	6	Velocidad del viento	6.4
182822	7	Sololá	719	Santiago Atitlán	14	Cerro de Oro	11	Noviembre	2023-07-11T00:00:00	2024-11-08T11:00:00	7	Dirección del viento	6.44
182823	7	Sololá	719	Santiago Atitlán	14	Cerro de Oro	11	Noviembre	2023-07-11T00:00:00	2024-11-08T11:00:00	1	Precipitación	0
182824	7	Sololá	719	Santiago Atitlán	14	Cerro de Oro	11	Noviembre	2023-07-11T00:00:00	2024-11-08T11:00:00	8	Radiación solar	912
182825	7	Sololá	719	Santiago Atitlán	14	Cerro de Oro	11	Noviembre	2023-07-11T00:00:00	2024-11-08T12:00:00	2	Temperatura media	26.3
182826	7	Sololá	719	Santiago Atitlán	14	Cerro de Oro	11	Noviembre	2023-07-11T00:00:00	2024-11-08T12:00:00	4	Temperatura máxima	26.5
182827	7	Sololá	719	Santiago Atitlán	14	Cerro de Oro	11	Noviembre	2023-07-11T00:00:00	2024-11-08T12:00:00	3	Temperatura mínima	25.3
182828	7	Sololá	719	Santiago Atitlán	14	Cerro de Oro	11	Noviembre	2023-07-11T00:00:00	2024-11-08T12:00:00	5	Humedad	60
182829	7	Sololá	719	Santiago Atitlán	14	Cerro de Oro	11	Noviembre	2023-07-11T00:00:00	2024-11-08T12:00:00	6	Velocidad del viento	8
182830	7	Sololá	719	Santiago Atitlán	14	Cerro de Oro	11	Noviembre	2023-07-11T00:00:00	2024-11-08T12:00:00	7	Dirección del viento	8.05
182831	7	Sololá	719	Santiago Atitlán	14	Cerro de Oro	11	Noviembre	2023-07-11T00:00:00	2024-11-08T12:00:00	1	Precipitación	0
182832	7	Sololá	719	Santiago Atitlán	14	Cerro de Oro	11	Noviembre	2023-07-11T00:00:00	2024-11-08T12:00:00	8	Radiación solar	886
182833	7	Sololá	719	Santiago Atitlán	14	Cerro de Oro	11	Noviembre	2023-07-11T00:00:00	2024-11-08T13:00:00	2	Temperatura media	25.9
182834	7	Sololá	719	Santiago Atitlán	14	Cerro de Oro	11	Noviembre	2023-07-11T00:00:00	2024-11-08T13:00:00	4	Temperatura máxima	26.2
182835	7	Sololá	719	Santiago Atitlán	14	Cerro de Oro	11	Noviembre	2023-07-11T00:00:00	2024-11-08T13:00:00	3	Temperatura mínima	25.2
182836	7	Sololá	719	Santiago Atitlán	14	Cerro de Oro	11	Noviembre	2023-07-11T00:00:00	2024-11-08T13:00:00	5	Humedad	61
182837	7	Sololá	719	Santiago Atitlán	14	Cerro de Oro	11	Noviembre	2023-07-11T00:00:00	2024-11-08T13:00:00	6	Velocidad del viento	6.4
182838	7	Sololá	719	Santiago Atitlán	14	Cerro de Oro	11	Noviembre	2023-07-11T00:00:00	2024-11-08T13:00:00	7	Dirección del viento	6.44
182839	7	Sololá	719	Santiago Atitlán	14	Cerro de Oro	11	Noviembre	2023-07-11T00:00:00	2024-11-08T13:00:00	1	Precipitación	0
182840	7	Sololá	719	Santiago Atitlán	14	Cerro de Oro	11	Noviembre	2023-07-11T00:00:00	2024-11-08T13:00:00	8	Radiación solar	504
182841	7	Sololá	719	Santiago Atitlán	14	Cerro de Oro	11	Noviembre	2023-07-11T00:00:00	2024-11-08T14:00:00	2	Temperatura media	24.2
182842	7	Sololá	719	Santiago Atitlán	14	Cerro de Oro	11	Noviembre	2023-07-11T00:00:00	2024-11-08T14:00:00	4	Temperatura máxima	26.5
182843	7	Sololá	719	Santiago Atitlán	14	Cerro de Oro	11	Noviembre	2023-07-11T00:00:00	2024-11-08T14:00:00	3	Temperatura mínima	24.2
182844	7	Sololá	719	Santiago Atitlán	14	Cerro de Oro	11	Noviembre	2023-07-11T00:00:00	2024-11-08T14:00:00	5	Humedad	67
182845	7	Sololá	719	Santiago Atitlán	14	Cerro de Oro	11	Noviembre	2023-07-11T00:00:00	2024-11-08T14:00:00	6	Velocidad del viento	6.4
182846	7	Sololá	719	Santiago Atitlán	14	Cerro de Oro	11	Noviembre	2023-07-11T00:00:00	2024-11-08T14:00:00	7	Dirección del viento	6.44
182847	7	Sololá	719	Santiago Atitlán	14	Cerro de Oro	11	Noviembre	2023-07-11T00:00:00	2024-11-08T14:00:00	1	Precipitación	0
182848	7	Sololá	719	Santiago Atitlán	14	Cerro de Oro	11	Noviembre	2023-07-11T00:00:00	2024-11-08T14:00:00	8	Radiación solar	256
182849	7	Sololá	719	Santiago Atitlán	14	Cerro de Oro	11	Noviembre	2023-07-11T00:00:00	2024-11-08T15:00:00	2	Temperatura media	24.9
182850	7	Sololá	719	Santiago Atitlán	14	Cerro de Oro	11	Noviembre	2023-07-11T00:00:00	2024-11-08T15:00:00	4	Temperatura máxima	25.1
182851	7	Sololá	719	Santiago Atitlán	14	Cerro de Oro	11	Noviembre	2023-07-11T00:00:00	2024-11-08T15:00:00	3	Temperatura mínima	24.1
182852	7	Sololá	719	Santiago Atitlán	14	Cerro de Oro	11	Noviembre	2023-07-11T00:00:00	2024-11-08T15:00:00	5	Humedad	65
182853	7	Sololá	719	Santiago Atitlán	14	Cerro de Oro	11	Noviembre	2023-07-11T00:00:00	2024-11-08T15:00:00	6	Velocidad del viento	8
182854	7	Sololá	719	Santiago Atitlán	14	Cerro de Oro	11	Noviembre	2023-07-11T00:00:00	2024-11-08T15:00:00	7	Dirección del viento	8.05
182855	7	Sololá	719	Santiago Atitlán	14	Cerro de Oro	11	Noviembre	2023-07-11T00:00:00	2024-11-08T15:00:00	1	Precipitación	0
182856	7	Sololá	719	Santiago Atitlán	14	Cerro de Oro	11	Noviembre	2023-07-11T00:00:00	2024-11-08T15:00:00	8	Radiación solar	369
182857	7	Sololá	719	Santiago Atitlán	14	Cerro de Oro	11	Noviembre	2023-07-11T00:00:00	2024-11-08T16:00:00	2	Temperatura media	24.3
182858	7	Sololá	719	Santiago Atitlán	14	Cerro de Oro	11	Noviembre	2023-07-11T00:00:00	2024-11-08T16:00:00	4	Temperatura máxima	24.9
182859	7	Sololá	719	Santiago Atitlán	14	Cerro de Oro	11	Noviembre	2023-07-11T00:00:00	2024-11-08T16:00:00	3	Temperatura mínima	24.3
182860	7	Sololá	719	Santiago Atitlán	14	Cerro de Oro	11	Noviembre	2023-07-11T00:00:00	2024-11-08T16:00:00	5	Humedad	65
182861	7	Sololá	719	Santiago Atitlán	14	Cerro de Oro	11	Noviembre	2023-07-11T00:00:00	2024-11-08T16:00:00	6	Velocidad del viento	6.4
182862	7	Sololá	719	Santiago Atitlán	14	Cerro de Oro	11	Noviembre	2023-07-11T00:00:00	2024-11-08T16:00:00	7	Dirección del viento	6.44
182863	7	Sololá	719	Santiago Atitlán	14	Cerro de Oro	11	Noviembre	2023-07-11T00:00:00	2024-11-08T16:00:00	1	Precipitación	0
182864	7	Sololá	719	Santiago Atitlán	14	Cerro de Oro	11	Noviembre	2023-07-11T00:00:00	2024-11-08T16:00:00	8	Radiación solar	176
182865	7	Sololá	719	Santiago Atitlán	14	Cerro de Oro	11	Noviembre	2023-07-11T00:00:00	2024-11-08T17:00:00	2	Temperatura media	22.5
182866	7	Sololá	719	Santiago Atitlán	14	Cerro de Oro	11	Noviembre	2023-07-11T00:00:00	2024-11-08T17:00:00	4	Temperatura máxima	24.3
182867	7	Sololá	719	Santiago Atitlán	14	Cerro de Oro	11	Noviembre	2023-07-11T00:00:00	2024-11-08T17:00:00	3	Temperatura mínima	22.4
182868	7	Sololá	719	Santiago Atitlán	14	Cerro de Oro	11	Noviembre	2023-07-11T00:00:00	2024-11-08T17:00:00	5	Humedad	70
182869	7	Sololá	719	Santiago Atitlán	14	Cerro de Oro	11	Noviembre	2023-07-11T00:00:00	2024-11-08T17:00:00	6	Velocidad del viento	6.4
182870	7	Sololá	719	Santiago Atitlán	14	Cerro de Oro	11	Noviembre	2023-07-11T00:00:00	2024-11-08T17:00:00	7	Dirección del viento	6.44
182871	7	Sololá	719	Santiago Atitlán	14	Cerro de Oro	11	Noviembre	2023-07-11T00:00:00	2024-11-08T17:00:00	1	Precipitación	0
182872	7	Sololá	719	Santiago Atitlán	14	Cerro de Oro	11	Noviembre	2023-07-11T00:00:00	2024-11-08T17:00:00	8	Radiación solar	12
182873	7	Sololá	719	Santiago Atitlán	14	Cerro de Oro	11	Noviembre	2023-07-11T00:00:00	2024-11-08T18:00:00	2	Temperatura media	22.1
182874	7	Sololá	719	Santiago Atitlán	14	Cerro de Oro	11	Noviembre	2023-07-11T00:00:00	2024-11-08T18:00:00	4	Temperatura máxima	22.5
182875	7	Sololá	719	Santiago Atitlán	14	Cerro de Oro	11	Noviembre	2023-07-11T00:00:00	2024-11-08T18:00:00	3	Temperatura mínima	21.8
182876	7	Sololá	719	Santiago Atitlán	14	Cerro de Oro	11	Noviembre	2023-07-11T00:00:00	2024-11-08T18:00:00	5	Humedad	71
182877	7	Sololá	719	Santiago Atitlán	14	Cerro de Oro	11	Noviembre	2023-07-11T00:00:00	2024-11-08T18:00:00	6	Velocidad del viento	6.4
182878	7	Sololá	719	Santiago Atitlán	14	Cerro de Oro	11	Noviembre	2023-07-11T00:00:00	2024-11-08T18:00:00	7	Dirección del viento	6.44
182879	7	Sololá	719	Santiago Atitlán	14	Cerro de Oro	11	Noviembre	2023-07-11T00:00:00	2024-11-08T18:00:00	1	Precipitación	0
182880	7	Sololá	719	Santiago Atitlán	14	Cerro de Oro	11	Noviembre	2023-07-11T00:00:00	2024-11-08T18:00:00	8	Radiación solar	0
182881	7	Sololá	719	Santiago Atitlán	14	Cerro de Oro	11	Noviembre	2023-07-11T00:00:00	2024-11-08T19:00:00	2	Temperatura media	22.1
182882	7	Sololá	719	Santiago Atitlán	14	Cerro de Oro	11	Noviembre	2023-07-11T00:00:00	2024-11-08T19:00:00	4	Temperatura máxima	22.2
182883	7	Sololá	719	Santiago Atitlán	14	Cerro de Oro	11	Noviembre	2023-07-11T00:00:00	2024-11-08T19:00:00	3	Temperatura mínima	21.7
182884	7	Sololá	719	Santiago Atitlán	14	Cerro de Oro	11	Noviembre	2023-07-11T00:00:00	2024-11-08T19:00:00	5	Humedad	70
182885	7	Sololá	719	Santiago Atitlán	14	Cerro de Oro	11	Noviembre	2023-07-11T00:00:00	2024-11-08T19:00:00	6	Velocidad del viento	6.4
182886	7	Sololá	719	Santiago Atitlán	14	Cerro de Oro	11	Noviembre	2023-07-11T00:00:00	2024-11-08T19:00:00	7	Dirección del viento	6.44
182887	7	Sololá	719	Santiago Atitlán	14	Cerro de Oro	11	Noviembre	2023-07-11T00:00:00	2024-11-08T19:00:00	1	Precipitación	0
182888	7	Sololá	719	Santiago Atitlán	14	Cerro de Oro	11	Noviembre	2023-07-11T00:00:00	2024-11-08T19:00:00	8	Radiación solar	0
182889	7	Sololá	719	Santiago Atitlán	14	Cerro de Oro	11	Noviembre	2023-07-11T00:00:00	2024-11-08T20:00:00	2	Temperatura media	21.8
182890	7	Sololá	719	Santiago Atitlán	14	Cerro de Oro	11	Noviembre	2023-07-11T00:00:00	2024-11-08T20:00:00	4	Temperatura máxima	22.2
182891	7	Sololá	719	Santiago Atitlán	14	Cerro de Oro	11	Noviembre	2023-07-11T00:00:00	2024-11-08T20:00:00	3	Temperatura mínima	21.8
182892	7	Sololá	719	Santiago Atitlán	14	Cerro de Oro	11	Noviembre	2023-07-11T00:00:00	2024-11-08T20:00:00	5	Humedad	72
182893	7	Sololá	719	Santiago Atitlán	14	Cerro de Oro	11	Noviembre	2023-07-11T00:00:00	2024-11-08T20:00:00	6	Velocidad del viento	8
182894	7	Sololá	719	Santiago Atitlán	14	Cerro de Oro	11	Noviembre	2023-07-11T00:00:00	2024-11-08T20:00:00	7	Dirección del viento	8.05
182895	7	Sololá	719	Santiago Atitlán	14	Cerro de Oro	11	Noviembre	2023-07-11T00:00:00	2024-11-08T20:00:00	1	Precipitación	0
182896	7	Sololá	719	Santiago Atitlán	14	Cerro de Oro	11	Noviembre	2023-07-11T00:00:00	2024-11-08T20:00:00	8	Radiación solar	0
182897	7	Sololá	719	Santiago Atitlán	14	Cerro de Oro	11	Noviembre	2023-07-11T00:00:00	2024-11-08T21:00:00	2	Temperatura media	21.7
182898	7	Sololá	719	Santiago Atitlán	14	Cerro de Oro	11	Noviembre	2023-07-11T00:00:00	2024-11-08T21:00:00	4	Temperatura máxima	21.9
182899	7	Sololá	719	Santiago Atitlán	14	Cerro de Oro	11	Noviembre	2023-07-11T00:00:00	2024-11-08T21:00:00	3	Temperatura mínima	21.6
182900	7	Sololá	719	Santiago Atitlán	14	Cerro de Oro	11	Noviembre	2023-07-11T00:00:00	2024-11-08T21:00:00	5	Humedad	73
182901	7	Sololá	719	Santiago Atitlán	14	Cerro de Oro	11	Noviembre	2023-07-11T00:00:00	2024-11-08T21:00:00	6	Velocidad del viento	8
182902	7	Sololá	719	Santiago Atitlán	14	Cerro de Oro	11	Noviembre	2023-07-11T00:00:00	2024-11-08T21:00:00	7	Dirección del viento	8.05
182903	7	Sololá	719	Santiago Atitlán	14	Cerro de Oro	11	Noviembre	2023-07-11T00:00:00	2024-11-08T21:00:00	1	Precipitación	0
182904	7	Sololá	719	Santiago Atitlán	14	Cerro de Oro	11	Noviembre	2023-07-11T00:00:00	2024-11-08T21:00:00	8	Radiación solar	0
182905	7	Sololá	719	Santiago Atitlán	14	Cerro de Oro	11	Noviembre	2023-07-11T00:00:00	2024-11-08T22:00:00	2	Temperatura media	21.8
182906	7	Sololá	719	Santiago Atitlán	14	Cerro de Oro	11	Noviembre	2023-07-11T00:00:00	2024-11-08T22:00:00	4	Temperatura máxima	21.9
182907	7	Sololá	719	Santiago Atitlán	14	Cerro de Oro	11	Noviembre	2023-07-11T00:00:00	2024-11-08T22:00:00	3	Temperatura mínima	21.5
182908	7	Sololá	719	Santiago Atitlán	14	Cerro de Oro	11	Noviembre	2023-07-11T00:00:00	2024-11-08T22:00:00	5	Humedad	72
182909	7	Sololá	719	Santiago Atitlán	14	Cerro de Oro	11	Noviembre	2023-07-11T00:00:00	2024-11-08T22:00:00	6	Velocidad del viento	8
182910	7	Sololá	719	Santiago Atitlán	14	Cerro de Oro	11	Noviembre	2023-07-11T00:00:00	2024-11-08T22:00:00	7	Dirección del viento	8.05
182911	7	Sololá	719	Santiago Atitlán	14	Cerro de Oro	11	Noviembre	2023-07-11T00:00:00	2024-11-08T22:00:00	1	Precipitación	0
182912	7	Sololá	719	Santiago Atitlán	14	Cerro de Oro	11	Noviembre	2023-07-11T00:00:00	2024-11-08T22:00:00	8	Radiación solar	0
182913	7	Sololá	719	Santiago Atitlán	14	Cerro de Oro	11	Noviembre	2023-07-11T00:00:00	2024-11-08T23:00:00	2	Temperatura media	21.5
182914	7	Sololá	719	Santiago Atitlán	14	Cerro de Oro	11	Noviembre	2023-07-11T00:00:00	2024-11-08T23:00:00	4	Temperatura máxima	21.9
182915	7	Sololá	719	Santiago Atitlán	14	Cerro de Oro	11	Noviembre	2023-07-11T00:00:00	2024-11-08T23:00:00	3	Temperatura mínima	21.3
182916	7	Sololá	719	Santiago Atitlán	14	Cerro de Oro	11	Noviembre	2023-07-11T00:00:00	2024-11-08T23:00:00	5	Humedad	72
182917	7	Sololá	719	Santiago Atitlán	14	Cerro de Oro	11	Noviembre	2023-07-11T00:00:00	2024-11-08T23:00:00	6	Velocidad del viento	8
182918	7	Sololá	719	Santiago Atitlán	14	Cerro de Oro	11	Noviembre	2023-07-11T00:00:00	2024-11-08T23:00:00	7	Dirección del viento	8.05
182919	7	Sololá	719	Santiago Atitlán	14	Cerro de Oro	11	Noviembre	2023-07-11T00:00:00	2024-11-08T23:00:00	1	Precipitación	0
182920	7	Sololá	719	Santiago Atitlán	14	Cerro de Oro	11	Noviembre	2023-07-11T00:00:00	2024-11-08T23:00:00	8	Radiación solar	0
182921	7	Sololá	719	Santiago Atitlán	14	Cerro de Oro	11	Noviembre	2023-08-11T00:00:00	2024-11-08T00:00:00	2	Temperatura media	21.6
182922	7	Sololá	719	Santiago Atitlán	14	Cerro de Oro	11	Noviembre	2023-08-11T00:00:00	2024-11-08T00:00:00	4	Temperatura máxima	21.7
182923	7	Sololá	719	Santiago Atitlán	14	Cerro de Oro	11	Noviembre	2023-08-11T00:00:00	2024-11-08T00:00:00	3	Temperatura mínima	21.5
182924	7	Sololá	719	Santiago Atitlán	14	Cerro de Oro	11	Noviembre	2023-08-11T00:00:00	2024-11-08T00:00:00	5	Humedad	71
182925	7	Sololá	719	Santiago Atitlán	14	Cerro de Oro	11	Noviembre	2023-08-11T00:00:00	2024-11-08T00:00:00	6	Velocidad del viento	9.7
182926	7	Sololá	719	Santiago Atitlán	14	Cerro de Oro	11	Noviembre	2023-08-11T00:00:00	2024-11-08T00:00:00	7	Dirección del viento	9.66
182927	7	Sololá	719	Santiago Atitlán	14	Cerro de Oro	11	Noviembre	2023-08-11T00:00:00	2024-11-08T00:00:00	1	Precipitación	0
182928	7	Sololá	719	Santiago Atitlán	14	Cerro de Oro	11	Noviembre	2023-08-11T00:00:00	2024-11-08T00:00:00	8	Radiación solar	0
182929	7	Sololá	719	Santiago Atitlán	14	Cerro de Oro	11	Noviembre	2023-08-11T00:00:00	2024-11-08T01:00:00	2	Temperatura media	21.3
182930	7	Sololá	719	Santiago Atitlán	14	Cerro de Oro	11	Noviembre	2023-08-11T00:00:00	2024-11-08T01:00:00	4	Temperatura máxima	21.7
182931	7	Sololá	719	Santiago Atitlán	14	Cerro de Oro	11	Noviembre	2023-08-11T00:00:00	2024-11-08T01:00:00	3	Temperatura mínima	21.3
182932	7	Sololá	719	Santiago Atitlán	14	Cerro de Oro	11	Noviembre	2023-08-11T00:00:00	2024-11-08T01:00:00	5	Humedad	72
182933	7	Sololá	719	Santiago Atitlán	14	Cerro de Oro	11	Noviembre	2023-08-11T00:00:00	2024-11-08T01:00:00	6	Velocidad del viento	4.8
182934	7	Sololá	719	Santiago Atitlán	14	Cerro de Oro	11	Noviembre	2023-08-11T00:00:00	2024-11-08T01:00:00	7	Dirección del viento	4.83
182935	7	Sololá	719	Santiago Atitlán	14	Cerro de Oro	11	Noviembre	2023-08-11T00:00:00	2024-11-08T01:00:00	1	Precipitación	0
182936	7	Sololá	719	Santiago Atitlán	14	Cerro de Oro	11	Noviembre	2023-08-11T00:00:00	2024-11-08T01:00:00	8	Radiación solar	0
182937	7	Sololá	719	Santiago Atitlán	14	Cerro de Oro	11	Noviembre	2023-08-11T00:00:00	2024-11-08T02:00:00	2	Temperatura media	20.2
182938	7	Sololá	719	Santiago Atitlán	14	Cerro de Oro	11	Noviembre	2023-08-11T00:00:00	2024-11-08T02:00:00	4	Temperatura máxima	21.3
182939	7	Sololá	719	Santiago Atitlán	14	Cerro de Oro	11	Noviembre	2023-08-11T00:00:00	2024-11-08T02:00:00	3	Temperatura mínima	20.2
182940	7	Sololá	719	Santiago Atitlán	14	Cerro de Oro	11	Noviembre	2023-08-11T00:00:00	2024-11-08T02:00:00	5	Humedad	77
182941	7	Sololá	719	Santiago Atitlán	14	Cerro de Oro	11	Noviembre	2023-08-11T00:00:00	2024-11-08T02:00:00	6	Velocidad del viento	0
182942	7	Sololá	719	Santiago Atitlán	14	Cerro de Oro	11	Noviembre	2023-08-11T00:00:00	2024-11-08T02:00:00	7	Dirección del viento	0
182943	7	Sololá	719	Santiago Atitlán	14	Cerro de Oro	11	Noviembre	2023-08-11T00:00:00	2024-11-08T02:00:00	1	Precipitación	0
182944	7	Sololá	719	Santiago Atitlán	14	Cerro de Oro	11	Noviembre	2023-08-11T00:00:00	2024-11-08T02:00:00	8	Radiación solar	0
182945	7	Sololá	719	Santiago Atitlán	14	Cerro de Oro	11	Noviembre	2023-08-11T00:00:00	2024-11-08T03:00:00	2	Temperatura media	19.2
182946	7	Sololá	719	Santiago Atitlán	14	Cerro de Oro	11	Noviembre	2023-08-11T00:00:00	2024-11-08T03:00:00	4	Temperatura máxima	20.2
182947	7	Sololá	719	Santiago Atitlán	14	Cerro de Oro	11	Noviembre	2023-08-11T00:00:00	2024-11-08T03:00:00	3	Temperatura mínima	19.2
182948	7	Sololá	719	Santiago Atitlán	14	Cerro de Oro	11	Noviembre	2023-08-11T00:00:00	2024-11-08T03:00:00	5	Humedad	78
182949	7	Sololá	719	Santiago Atitlán	14	Cerro de Oro	11	Noviembre	2023-08-11T00:00:00	2024-11-08T03:00:00	6	Velocidad del viento	1.6
182950	7	Sololá	719	Santiago Atitlán	14	Cerro de Oro	11	Noviembre	2023-08-11T00:00:00	2024-11-08T03:00:00	7	Dirección del viento	1.61
182951	7	Sololá	719	Santiago Atitlán	14	Cerro de Oro	11	Noviembre	2023-08-11T00:00:00	2024-11-08T03:00:00	1	Precipitación	0
182952	7	Sololá	719	Santiago Atitlán	14	Cerro de Oro	11	Noviembre	2023-08-11T00:00:00	2024-11-08T03:00:00	8	Radiación solar	0
182953	7	Sololá	719	Santiago Atitlán	14	Cerro de Oro	11	Noviembre	2023-08-11T00:00:00	2024-11-08T04:00:00	2	Temperatura media	20.2
182954	7	Sololá	719	Santiago Atitlán	14	Cerro de Oro	11	Noviembre	2023-08-11T00:00:00	2024-11-08T04:00:00	4	Temperatura máxima	20.2
182955	7	Sololá	719	Santiago Atitlán	14	Cerro de Oro	11	Noviembre	2023-08-11T00:00:00	2024-11-08T04:00:00	3	Temperatura mínima	19.1
182956	7	Sololá	719	Santiago Atitlán	14	Cerro de Oro	11	Noviembre	2023-08-11T00:00:00	2024-11-08T04:00:00	5	Humedad	74
182957	7	Sololá	719	Santiago Atitlán	14	Cerro de Oro	11	Noviembre	2023-08-11T00:00:00	2024-11-08T04:00:00	6	Velocidad del viento	1.6
182958	7	Sololá	719	Santiago Atitlán	14	Cerro de Oro	11	Noviembre	2023-08-11T00:00:00	2024-11-08T04:00:00	7	Dirección del viento	1.61
182959	7	Sololá	719	Santiago Atitlán	14	Cerro de Oro	11	Noviembre	2023-08-11T00:00:00	2024-11-08T04:00:00	1	Precipitación	0
182960	7	Sololá	719	Santiago Atitlán	14	Cerro de Oro	11	Noviembre	2023-08-11T00:00:00	2024-11-08T04:00:00	8	Radiación solar	0
182961	7	Sololá	719	Santiago Atitlán	14	Cerro de Oro	11	Noviembre	2023-08-11T00:00:00	2024-11-08T05:00:00	2	Temperatura media	19.6
182962	7	Sololá	719	Santiago Atitlán	14	Cerro de Oro	11	Noviembre	2023-08-11T00:00:00	2024-11-08T05:00:00	4	Temperatura máxima	20.3
182963	7	Sololá	719	Santiago Atitlán	14	Cerro de Oro	11	Noviembre	2023-08-11T00:00:00	2024-11-08T05:00:00	3	Temperatura mínima	19.6
182964	7	Sololá	719	Santiago Atitlán	14	Cerro de Oro	11	Noviembre	2023-08-11T00:00:00	2024-11-08T05:00:00	5	Humedad	77
182965	7	Sololá	719	Santiago Atitlán	14	Cerro de Oro	11	Noviembre	2023-08-11T00:00:00	2024-11-08T05:00:00	6	Velocidad del viento	1.6
182966	7	Sololá	719	Santiago Atitlán	14	Cerro de Oro	11	Noviembre	2023-08-11T00:00:00	2024-11-08T05:00:00	7	Dirección del viento	1.61
182967	7	Sololá	719	Santiago Atitlán	14	Cerro de Oro	11	Noviembre	2023-08-11T00:00:00	2024-11-08T05:00:00	1	Precipitación	0
182968	7	Sololá	719	Santiago Atitlán	14	Cerro de Oro	11	Noviembre	2023-08-11T00:00:00	2024-11-08T05:00:00	8	Radiación solar	0
182969	7	Sololá	719	Santiago Atitlán	14	Cerro de Oro	11	Noviembre	2023-08-11T00:00:00	2024-11-08T06:00:00	2	Temperatura media	20.1
182970	7	Sololá	719	Santiago Atitlán	14	Cerro de Oro	11	Noviembre	2023-08-11T00:00:00	2024-11-08T06:00:00	4	Temperatura máxima	20.2
182971	7	Sololá	719	Santiago Atitlán	14	Cerro de Oro	11	Noviembre	2023-08-11T00:00:00	2024-11-08T06:00:00	3	Temperatura mínima	19.4
182972	7	Sololá	719	Santiago Atitlán	14	Cerro de Oro	11	Noviembre	2023-08-11T00:00:00	2024-11-08T06:00:00	5	Humedad	76
182973	7	Sololá	719	Santiago Atitlán	14	Cerro de Oro	11	Noviembre	2023-08-11T00:00:00	2024-11-08T06:00:00	6	Velocidad del viento	3.2
182974	7	Sololá	719	Santiago Atitlán	14	Cerro de Oro	11	Noviembre	2023-08-11T00:00:00	2024-11-08T06:00:00	7	Dirección del viento	3.22
182975	7	Sololá	719	Santiago Atitlán	14	Cerro de Oro	11	Noviembre	2023-08-11T00:00:00	2024-11-08T06:00:00	1	Precipitación	0
182976	7	Sololá	719	Santiago Atitlán	14	Cerro de Oro	11	Noviembre	2023-08-11T00:00:00	2024-11-08T06:00:00	8	Radiación solar	33
182977	7	Sololá	719	Santiago Atitlán	14	Cerro de Oro	11	Noviembre	2023-08-11T00:00:00	2024-11-08T07:00:00	2	Temperatura media	21.7
182978	7	Sololá	719	Santiago Atitlán	14	Cerro de Oro	11	Noviembre	2023-08-11T00:00:00	2024-11-08T07:00:00	4	Temperatura máxima	21.7
182979	7	Sololá	719	Santiago Atitlán	14	Cerro de Oro	11	Noviembre	2023-08-11T00:00:00	2024-11-08T07:00:00	3	Temperatura mínima	20.1
182980	7	Sololá	719	Santiago Atitlán	14	Cerro de Oro	11	Noviembre	2023-08-11T00:00:00	2024-11-08T07:00:00	5	Humedad	73
182981	7	Sololá	719	Santiago Atitlán	14	Cerro de Oro	11	Noviembre	2023-08-11T00:00:00	2024-11-08T07:00:00	6	Velocidad del viento	1.6
182982	7	Sololá	719	Santiago Atitlán	14	Cerro de Oro	11	Noviembre	2023-08-11T00:00:00	2024-11-08T07:00:00	7	Dirección del viento	1.61
182983	7	Sololá	719	Santiago Atitlán	14	Cerro de Oro	11	Noviembre	2023-08-11T00:00:00	2024-11-08T07:00:00	1	Precipitación	0
182984	7	Sololá	719	Santiago Atitlán	14	Cerro de Oro	11	Noviembre	2023-08-11T00:00:00	2024-11-08T07:00:00	8	Radiación solar	114
182985	7	Sololá	719	Santiago Atitlán	14	Cerro de Oro	11	Noviembre	2023-08-11T00:00:00	2024-11-08T08:00:00	2	Temperatura media	24.4
182986	7	Sololá	719	Santiago Atitlán	14	Cerro de Oro	11	Noviembre	2023-08-11T00:00:00	2024-11-08T08:00:00	4	Temperatura máxima	24.4
182987	7	Sololá	719	Santiago Atitlán	14	Cerro de Oro	11	Noviembre	2023-08-11T00:00:00	2024-11-08T08:00:00	3	Temperatura mínima	21.7
182988	7	Sololá	719	Santiago Atitlán	14	Cerro de Oro	11	Noviembre	2023-08-11T00:00:00	2024-11-08T08:00:00	5	Humedad	67
182989	7	Sololá	719	Santiago Atitlán	14	Cerro de Oro	11	Noviembre	2023-08-11T00:00:00	2024-11-08T08:00:00	6	Velocidad del viento	1.6
182990	7	Sololá	719	Santiago Atitlán	14	Cerro de Oro	11	Noviembre	2023-08-11T00:00:00	2024-11-08T08:00:00	7	Dirección del viento	1.61
182991	7	Sololá	719	Santiago Atitlán	14	Cerro de Oro	11	Noviembre	2023-08-11T00:00:00	2024-11-08T08:00:00	1	Precipitación	0
182992	7	Sololá	719	Santiago Atitlán	14	Cerro de Oro	11	Noviembre	2023-08-11T00:00:00	2024-11-08T08:00:00	8	Radiación solar	442
182993	7	Sololá	719	Santiago Atitlán	14	Cerro de Oro	11	Noviembre	2023-08-11T00:00:00	2024-11-08T09:00:00	2	Temperatura media	23.9
182994	7	Sololá	719	Santiago Atitlán	14	Cerro de Oro	11	Noviembre	2023-08-11T00:00:00	2024-11-08T09:00:00	4	Temperatura máxima	24.4
182995	7	Sololá	719	Santiago Atitlán	14	Cerro de Oro	11	Noviembre	2023-08-11T00:00:00	2024-11-08T09:00:00	3	Temperatura mínima	23.4
182996	7	Sololá	719	Santiago Atitlán	14	Cerro de Oro	11	Noviembre	2023-08-11T00:00:00	2024-11-08T09:00:00	5	Humedad	67
182997	7	Sololá	719	Santiago Atitlán	14	Cerro de Oro	11	Noviembre	2023-08-11T00:00:00	2024-11-08T09:00:00	6	Velocidad del viento	3.2
182998	7	Sololá	719	Santiago Atitlán	14	Cerro de Oro	11	Noviembre	2023-08-11T00:00:00	2024-11-08T09:00:00	7	Dirección del viento	3.22
182999	7	Sololá	719	Santiago Atitlán	14	Cerro de Oro	11	Noviembre	2023-08-11T00:00:00	2024-11-08T09:00:00	1	Precipitación	0
183000	7	Sololá	719	Santiago Atitlán	14	Cerro de Oro	11	Noviembre	2023-08-11T00:00:00	2024-11-08T09:00:00	8	Radiación solar	588
183001	7	Sololá	719	Santiago Atitlán	14	Cerro de Oro	11	Noviembre	2023-08-11T00:00:00	2024-11-08T10:00:00	2	Temperatura media	24.3
183002	7	Sololá	719	Santiago Atitlán	14	Cerro de Oro	11	Noviembre	2023-08-11T00:00:00	2024-11-08T10:00:00	4	Temperatura máxima	24.3
183003	7	Sololá	719	Santiago Atitlán	14	Cerro de Oro	11	Noviembre	2023-08-11T00:00:00	2024-11-08T10:00:00	3	Temperatura mínima	23.3
183004	7	Sololá	719	Santiago Atitlán	14	Cerro de Oro	11	Noviembre	2023-08-11T00:00:00	2024-11-08T10:00:00	5	Humedad	70
183005	7	Sololá	719	Santiago Atitlán	14	Cerro de Oro	11	Noviembre	2023-08-11T00:00:00	2024-11-08T10:00:00	6	Velocidad del viento	1.6
183006	7	Sololá	719	Santiago Atitlán	14	Cerro de Oro	11	Noviembre	2023-08-11T00:00:00	2024-11-08T10:00:00	7	Dirección del viento	1.61
183007	7	Sololá	719	Santiago Atitlán	14	Cerro de Oro	11	Noviembre	2023-08-11T00:00:00	2024-11-08T10:00:00	1	Precipitación	0
183008	7	Sololá	719	Santiago Atitlán	14	Cerro de Oro	11	Noviembre	2023-08-11T00:00:00	2024-11-08T10:00:00	8	Radiación solar	300
183009	7	Sololá	719	Santiago Atitlán	14	Cerro de Oro	11	Noviembre	2023-08-11T00:00:00	2024-11-08T11:00:00	2	Temperatura media	25.9
183010	7	Sololá	719	Santiago Atitlán	14	Cerro de Oro	11	Noviembre	2023-08-11T00:00:00	2024-11-08T11:00:00	4	Temperatura máxima	25.9
183011	7	Sololá	719	Santiago Atitlán	14	Cerro de Oro	11	Noviembre	2023-08-11T00:00:00	2024-11-08T11:00:00	3	Temperatura mínima	24.3
183012	7	Sololá	719	Santiago Atitlán	14	Cerro de Oro	11	Noviembre	2023-08-11T00:00:00	2024-11-08T11:00:00	5	Humedad	62
183013	7	Sololá	719	Santiago Atitlán	14	Cerro de Oro	11	Noviembre	2023-08-11T00:00:00	2024-11-08T11:00:00	6	Velocidad del viento	3.2
183014	7	Sololá	719	Santiago Atitlán	14	Cerro de Oro	11	Noviembre	2023-08-11T00:00:00	2024-11-08T11:00:00	7	Dirección del viento	3.22
183015	7	Sololá	719	Santiago Atitlán	14	Cerro de Oro	11	Noviembre	2023-08-11T00:00:00	2024-11-08T11:00:00	1	Precipitación	0
183016	7	Sololá	719	Santiago Atitlán	14	Cerro de Oro	11	Noviembre	2023-08-11T00:00:00	2024-11-08T11:00:00	8	Radiación solar	318
183017	7	Sololá	719	Santiago Atitlán	14	Cerro de Oro	11	Noviembre	2023-08-11T00:00:00	2024-11-08T12:00:00	2	Temperatura media	25.8
183018	7	Sololá	719	Santiago Atitlán	14	Cerro de Oro	11	Noviembre	2023-08-11T00:00:00	2024-11-08T12:00:00	4	Temperatura máxima	26.4
183019	7	Sololá	719	Santiago Atitlán	14	Cerro de Oro	11	Noviembre	2023-08-11T00:00:00	2024-11-08T12:00:00	3	Temperatura mínima	25.7
183020	7	Sololá	719	Santiago Atitlán	14	Cerro de Oro	11	Noviembre	2023-08-11T00:00:00	2024-11-08T12:00:00	5	Humedad	61
183021	7	Sololá	719	Santiago Atitlán	14	Cerro de Oro	11	Noviembre	2023-08-11T00:00:00	2024-11-08T12:00:00	6	Velocidad del viento	3.2
183022	7	Sololá	719	Santiago Atitlán	14	Cerro de Oro	11	Noviembre	2023-08-11T00:00:00	2024-11-08T12:00:00	7	Dirección del viento	3.22
183023	7	Sololá	719	Santiago Atitlán	14	Cerro de Oro	11	Noviembre	2023-08-11T00:00:00	2024-11-08T12:00:00	1	Precipitación	0
183024	7	Sololá	719	Santiago Atitlán	14	Cerro de Oro	11	Noviembre	2023-08-11T00:00:00	2024-11-08T12:00:00	8	Radiación solar	268
183025	7	Sololá	719	Santiago Atitlán	14	Cerro de Oro	11	Noviembre	2023-08-11T00:00:00	2024-11-08T13:00:00	2	Temperatura media	26.7
183026	7	Sololá	719	Santiago Atitlán	14	Cerro de Oro	11	Noviembre	2023-08-11T00:00:00	2024-11-08T13:00:00	4	Temperatura máxima	26.7
183027	7	Sololá	719	Santiago Atitlán	14	Cerro de Oro	11	Noviembre	2023-08-11T00:00:00	2024-11-08T13:00:00	3	Temperatura mínima	25.6
183028	7	Sololá	719	Santiago Atitlán	14	Cerro de Oro	11	Noviembre	2023-08-11T00:00:00	2024-11-08T13:00:00	5	Humedad	59
183029	7	Sololá	719	Santiago Atitlán	14	Cerro de Oro	11	Noviembre	2023-08-11T00:00:00	2024-11-08T13:00:00	6	Velocidad del viento	3.2
183030	7	Sololá	719	Santiago Atitlán	14	Cerro de Oro	11	Noviembre	2023-08-11T00:00:00	2024-11-08T13:00:00	7	Dirección del viento	3.22
183031	7	Sololá	719	Santiago Atitlán	14	Cerro de Oro	11	Noviembre	2023-08-11T00:00:00	2024-11-08T13:00:00	1	Precipitación	0
183032	7	Sololá	719	Santiago Atitlán	14	Cerro de Oro	11	Noviembre	2023-08-11T00:00:00	2024-11-08T13:00:00	8	Radiación solar	298
183033	7	Sololá	719	Santiago Atitlán	14	Cerro de Oro	11	Noviembre	2023-08-11T00:00:00	2024-11-08T14:00:00	2	Temperatura media	23.9
183034	7	Sololá	719	Santiago Atitlán	14	Cerro de Oro	11	Noviembre	2023-08-11T00:00:00	2024-11-08T14:00:00	4	Temperatura máxima	26.7
183035	7	Sololá	719	Santiago Atitlán	14	Cerro de Oro	11	Noviembre	2023-08-11T00:00:00	2024-11-08T14:00:00	3	Temperatura mínima	23.9
183036	7	Sololá	719	Santiago Atitlán	14	Cerro de Oro	11	Noviembre	2023-08-11T00:00:00	2024-11-08T14:00:00	5	Humedad	79
183037	7	Sololá	719	Santiago Atitlán	14	Cerro de Oro	11	Noviembre	2023-08-11T00:00:00	2024-11-08T14:00:00	6	Velocidad del viento	3.2
183038	7	Sololá	719	Santiago Atitlán	14	Cerro de Oro	11	Noviembre	2023-08-11T00:00:00	2024-11-08T14:00:00	7	Dirección del viento	3.22
183039	7	Sololá	719	Santiago Atitlán	14	Cerro de Oro	11	Noviembre	2023-08-11T00:00:00	2024-11-08T14:00:00	1	Precipitación	0
183040	7	Sololá	719	Santiago Atitlán	14	Cerro de Oro	11	Noviembre	2023-08-11T00:00:00	2024-11-08T14:00:00	8	Radiación solar	211
183041	7	Sololá	719	Santiago Atitlán	14	Cerro de Oro	11	Noviembre	2023-08-11T00:00:00	2024-11-08T15:00:00	2	Temperatura media	25.5
183042	7	Sololá	719	Santiago Atitlán	14	Cerro de Oro	11	Noviembre	2023-08-11T00:00:00	2024-11-08T15:00:00	4	Temperatura máxima	25.5
183043	7	Sololá	719	Santiago Atitlán	14	Cerro de Oro	11	Noviembre	2023-08-11T00:00:00	2024-11-08T15:00:00	3	Temperatura mínima	23.4
183044	7	Sololá	719	Santiago Atitlán	14	Cerro de Oro	11	Noviembre	2023-08-11T00:00:00	2024-11-08T15:00:00	5	Humedad	72
183045	7	Sololá	719	Santiago Atitlán	14	Cerro de Oro	11	Noviembre	2023-08-11T00:00:00	2024-11-08T15:00:00	6	Velocidad del viento	1.6
183046	7	Sololá	719	Santiago Atitlán	14	Cerro de Oro	11	Noviembre	2023-08-11T00:00:00	2024-11-08T15:00:00	7	Dirección del viento	1.61
183047	7	Sololá	719	Santiago Atitlán	14	Cerro de Oro	11	Noviembre	2023-08-11T00:00:00	2024-11-08T15:00:00	1	Precipitación	0
183048	7	Sololá	719	Santiago Atitlán	14	Cerro de Oro	11	Noviembre	2023-08-11T00:00:00	2024-11-08T15:00:00	8	Radiación solar	213
183049	7	Sololá	719	Santiago Atitlán	14	Cerro de Oro	11	Noviembre	2023-08-11T00:00:00	2024-11-08T16:00:00	2	Temperatura media	23.1
183050	7	Sololá	719	Santiago Atitlán	14	Cerro de Oro	11	Noviembre	2023-08-11T00:00:00	2024-11-08T16:00:00	4	Temperatura máxima	25.7
183051	7	Sololá	719	Santiago Atitlán	14	Cerro de Oro	11	Noviembre	2023-08-11T00:00:00	2024-11-08T16:00:00	3	Temperatura mínima	23.1
183052	7	Sololá	719	Santiago Atitlán	14	Cerro de Oro	11	Noviembre	2023-08-11T00:00:00	2024-11-08T16:00:00	5	Humedad	83
183053	7	Sololá	719	Santiago Atitlán	14	Cerro de Oro	11	Noviembre	2023-08-11T00:00:00	2024-11-08T16:00:00	6	Velocidad del viento	1.6
183054	7	Sololá	719	Santiago Atitlán	14	Cerro de Oro	11	Noviembre	2023-08-11T00:00:00	2024-11-08T16:00:00	7	Dirección del viento	1.61
183055	7	Sololá	719	Santiago Atitlán	14	Cerro de Oro	11	Noviembre	2023-08-11T00:00:00	2024-11-08T16:00:00	1	Precipitación	0
183056	7	Sololá	719	Santiago Atitlán	14	Cerro de Oro	11	Noviembre	2023-08-11T00:00:00	2024-11-08T16:00:00	8	Radiación solar	101
183057	7	Sololá	719	Santiago Atitlán	14	Cerro de Oro	11	Noviembre	2023-08-11T00:00:00	2024-11-08T17:00:00	2	Temperatura media	21.8
183058	7	Sololá	719	Santiago Atitlán	14	Cerro de Oro	11	Noviembre	2023-08-11T00:00:00	2024-11-08T17:00:00	4	Temperatura máxima	23.1
183059	7	Sololá	719	Santiago Atitlán	14	Cerro de Oro	11	Noviembre	2023-08-11T00:00:00	2024-11-08T17:00:00	3	Temperatura mínima	21.7
183060	7	Sololá	719	Santiago Atitlán	14	Cerro de Oro	11	Noviembre	2023-08-11T00:00:00	2024-11-08T17:00:00	5	Humedad	87
183061	7	Sololá	719	Santiago Atitlán	14	Cerro de Oro	11	Noviembre	2023-08-11T00:00:00	2024-11-08T17:00:00	6	Velocidad del viento	1.6
183062	7	Sololá	719	Santiago Atitlán	14	Cerro de Oro	11	Noviembre	2023-08-11T00:00:00	2024-11-08T17:00:00	7	Dirección del viento	1.61
183063	7	Sololá	719	Santiago Atitlán	14	Cerro de Oro	11	Noviembre	2023-08-11T00:00:00	2024-11-08T17:00:00	1	Precipitación	0
183064	7	Sololá	719	Santiago Atitlán	14	Cerro de Oro	11	Noviembre	2023-08-11T00:00:00	2024-11-08T17:00:00	8	Radiación solar	10
183065	7	Sololá	719	Santiago Atitlán	14	Cerro de Oro	11	Noviembre	2023-08-11T00:00:00	2024-11-08T18:00:00	2	Temperatura media	20.7
183066	7	Sololá	719	Santiago Atitlán	14	Cerro de Oro	11	Noviembre	2023-08-11T00:00:00	2024-11-08T18:00:00	4	Temperatura máxima	21.8
183067	7	Sololá	719	Santiago Atitlán	14	Cerro de Oro	11	Noviembre	2023-08-11T00:00:00	2024-11-08T18:00:00	3	Temperatura mínima	20.7
183068	7	Sololá	719	Santiago Atitlán	14	Cerro de Oro	11	Noviembre	2023-08-11T00:00:00	2024-11-08T18:00:00	5	Humedad	80
183069	7	Sololá	719	Santiago Atitlán	14	Cerro de Oro	11	Noviembre	2023-08-11T00:00:00	2024-11-08T18:00:00	6	Velocidad del viento	0
183070	7	Sololá	719	Santiago Atitlán	14	Cerro de Oro	11	Noviembre	2023-08-11T00:00:00	2024-11-08T18:00:00	7	Dirección del viento	0
183071	7	Sololá	719	Santiago Atitlán	14	Cerro de Oro	11	Noviembre	2023-08-11T00:00:00	2024-11-08T18:00:00	1	Precipitación	0
183072	7	Sololá	719	Santiago Atitlán	14	Cerro de Oro	11	Noviembre	2023-08-11T00:00:00	2024-11-08T18:00:00	8	Radiación solar	0
183073	7	Sololá	719	Santiago Atitlán	14	Cerro de Oro	11	Noviembre	2023-08-11T00:00:00	2024-11-08T19:00:00	2	Temperatura media	20.5
183074	7	Sololá	719	Santiago Atitlán	14	Cerro de Oro	11	Noviembre	2023-08-11T00:00:00	2024-11-08T19:00:00	4	Temperatura máxima	21.8
183075	7	Sololá	719	Santiago Atitlán	14	Cerro de Oro	11	Noviembre	2023-08-11T00:00:00	2024-11-08T19:00:00	3	Temperatura mínima	20.5
183076	7	Sololá	719	Santiago Atitlán	14	Cerro de Oro	11	Noviembre	2023-08-11T00:00:00	2024-11-08T19:00:00	5	Humedad	81
183077	7	Sololá	719	Santiago Atitlán	14	Cerro de Oro	11	Noviembre	2023-08-11T00:00:00	2024-11-08T19:00:00	6	Velocidad del viento	1.6
183078	7	Sololá	719	Santiago Atitlán	14	Cerro de Oro	11	Noviembre	2023-08-11T00:00:00	2024-11-08T19:00:00	7	Dirección del viento	1.61
183079	7	Sololá	719	Santiago Atitlán	14	Cerro de Oro	11	Noviembre	2023-08-11T00:00:00	2024-11-08T19:00:00	1	Precipitación	0
183080	7	Sololá	719	Santiago Atitlán	14	Cerro de Oro	11	Noviembre	2023-08-11T00:00:00	2024-11-08T19:00:00	8	Radiación solar	0
183081	7	Sololá	719	Santiago Atitlán	14	Cerro de Oro	11	Noviembre	2023-08-11T00:00:00	2024-11-08T20:00:00	2	Temperatura media	19.7
183082	7	Sololá	719	Santiago Atitlán	14	Cerro de Oro	11	Noviembre	2023-08-11T00:00:00	2024-11-08T20:00:00	4	Temperatura máxima	20.6
183083	7	Sololá	719	Santiago Atitlán	14	Cerro de Oro	11	Noviembre	2023-08-11T00:00:00	2024-11-08T20:00:00	3	Temperatura mínima	19.7
183084	7	Sololá	719	Santiago Atitlán	14	Cerro de Oro	11	Noviembre	2023-08-11T00:00:00	2024-11-08T20:00:00	5	Humedad	82
183085	7	Sololá	719	Santiago Atitlán	14	Cerro de Oro	11	Noviembre	2023-08-11T00:00:00	2024-11-08T20:00:00	6	Velocidad del viento	1.6
183086	7	Sololá	719	Santiago Atitlán	14	Cerro de Oro	11	Noviembre	2023-08-11T00:00:00	2024-11-08T20:00:00	7	Dirección del viento	1.61
183087	7	Sololá	719	Santiago Atitlán	14	Cerro de Oro	11	Noviembre	2023-08-11T00:00:00	2024-11-08T20:00:00	1	Precipitación	0
183088	7	Sololá	719	Santiago Atitlán	14	Cerro de Oro	11	Noviembre	2023-08-11T00:00:00	2024-11-08T20:00:00	8	Radiación solar	0
183089	7	Sololá	719	Santiago Atitlán	14	Cerro de Oro	11	Noviembre	2023-08-11T00:00:00	2024-11-08T21:00:00	2	Temperatura media	20.1
183090	7	Sololá	719	Santiago Atitlán	14	Cerro de Oro	11	Noviembre	2023-08-11T00:00:00	2024-11-08T21:00:00	4	Temperatura máxima	20.2
183091	7	Sololá	719	Santiago Atitlán	14	Cerro de Oro	11	Noviembre	2023-08-11T00:00:00	2024-11-08T21:00:00	3	Temperatura mínima	19.7
183092	7	Sololá	719	Santiago Atitlán	14	Cerro de Oro	11	Noviembre	2023-08-11T00:00:00	2024-11-08T21:00:00	5	Humedad	82
183093	7	Sololá	719	Santiago Atitlán	14	Cerro de Oro	11	Noviembre	2023-08-11T00:00:00	2024-11-08T21:00:00	6	Velocidad del viento	0
183094	7	Sololá	719	Santiago Atitlán	14	Cerro de Oro	11	Noviembre	2023-08-11T00:00:00	2024-11-08T21:00:00	7	Dirección del viento	0
183095	7	Sololá	719	Santiago Atitlán	14	Cerro de Oro	11	Noviembre	2023-08-11T00:00:00	2024-11-08T21:00:00	1	Precipitación	0
183096	7	Sololá	719	Santiago Atitlán	14	Cerro de Oro	11	Noviembre	2023-08-11T00:00:00	2024-11-08T21:00:00	8	Radiación solar	0
183097	7	Sololá	719	Santiago Atitlán	14	Cerro de Oro	11	Noviembre	2023-08-11T00:00:00	2024-11-08T22:00:00	2	Temperatura media	20.7
183098	7	Sololá	719	Santiago Atitlán	14	Cerro de Oro	11	Noviembre	2023-08-11T00:00:00	2024-11-08T22:00:00	4	Temperatura máxima	20.9
183099	7	Sololá	719	Santiago Atitlán	14	Cerro de Oro	11	Noviembre	2023-08-11T00:00:00	2024-11-08T22:00:00	3	Temperatura mínima	19.6
183100	7	Sololá	719	Santiago Atitlán	14	Cerro de Oro	11	Noviembre	2023-08-11T00:00:00	2024-11-08T22:00:00	5	Humedad	78
183101	7	Sololá	719	Santiago Atitlán	14	Cerro de Oro	11	Noviembre	2023-08-11T00:00:00	2024-11-08T22:00:00	6	Velocidad del viento	1.6
183102	7	Sololá	719	Santiago Atitlán	14	Cerro de Oro	11	Noviembre	2023-08-11T00:00:00	2024-11-08T22:00:00	7	Dirección del viento	1.61
183103	7	Sololá	719	Santiago Atitlán	14	Cerro de Oro	11	Noviembre	2023-08-11T00:00:00	2024-11-08T22:00:00	1	Precipitación	0
183104	7	Sololá	719	Santiago Atitlán	14	Cerro de Oro	11	Noviembre	2023-08-11T00:00:00	2024-11-08T22:00:00	8	Radiación solar	0
183105	7	Sololá	719	Santiago Atitlán	14	Cerro de Oro	11	Noviembre	2023-08-11T00:00:00	2024-11-08T23:00:00	2	Temperatura media	21.4
183106	7	Sololá	719	Santiago Atitlán	14	Cerro de Oro	11	Noviembre	2023-08-11T00:00:00	2024-11-08T23:00:00	4	Temperatura máxima	21.9
183107	7	Sololá	719	Santiago Atitlán	14	Cerro de Oro	11	Noviembre	2023-08-11T00:00:00	2024-11-08T23:00:00	3	Temperatura mínima	20.7
183108	7	Sololá	719	Santiago Atitlán	14	Cerro de Oro	11	Noviembre	2023-08-11T00:00:00	2024-11-08T23:00:00	5	Humedad	75
183109	7	Sololá	719	Santiago Atitlán	14	Cerro de Oro	11	Noviembre	2023-08-11T00:00:00	2024-11-08T23:00:00	6	Velocidad del viento	8
183110	7	Sololá	719	Santiago Atitlán	14	Cerro de Oro	11	Noviembre	2023-08-11T00:00:00	2024-11-08T23:00:00	7	Dirección del viento	8.05
183111	7	Sololá	719	Santiago Atitlán	14	Cerro de Oro	11	Noviembre	2023-08-11T00:00:00	2024-11-08T23:00:00	1	Precipitación	0
183112	7	Sololá	719	Santiago Atitlán	14	Cerro de Oro	11	Noviembre	2023-08-11T00:00:00	2024-11-08T23:00:00	8	Radiación solar	0
183113	7	Sololá	719	Santiago Atitlán	14	Cerro de Oro	11	Noviembre	2023-09-11T00:00:00	2024-11-08T00:00:00	2	Temperatura media	19.6
183114	7	Sololá	719	Santiago Atitlán	14	Cerro de Oro	11	Noviembre	2023-09-11T00:00:00	2024-11-08T00:00:00	4	Temperatura máxima	21.4
183115	7	Sololá	719	Santiago Atitlán	14	Cerro de Oro	11	Noviembre	2023-09-11T00:00:00	2024-11-08T00:00:00	3	Temperatura mínima	19.6
183116	7	Sololá	719	Santiago Atitlán	14	Cerro de Oro	11	Noviembre	2023-09-11T00:00:00	2024-11-08T00:00:00	5	Humedad	82
183117	7	Sololá	719	Santiago Atitlán	14	Cerro de Oro	11	Noviembre	2023-09-11T00:00:00	2024-11-08T00:00:00	6	Velocidad del viento	0
183118	7	Sololá	719	Santiago Atitlán	14	Cerro de Oro	11	Noviembre	2023-09-11T00:00:00	2024-11-08T00:00:00	7	Dirección del viento	0
183119	7	Sololá	719	Santiago Atitlán	14	Cerro de Oro	11	Noviembre	2023-09-11T00:00:00	2024-11-08T00:00:00	1	Precipitación	0
183120	7	Sololá	719	Santiago Atitlán	14	Cerro de Oro	11	Noviembre	2023-09-11T00:00:00	2024-11-08T00:00:00	8	Radiación solar	0
183121	7	Sololá	719	Santiago Atitlán	14	Cerro de Oro	11	Noviembre	2023-09-11T00:00:00	2024-11-08T01:00:00	2	Temperatura media	18.7
183122	7	Sololá	719	Santiago Atitlán	14	Cerro de Oro	11	Noviembre	2023-09-11T00:00:00	2024-11-08T01:00:00	4	Temperatura máxima	19.6
183123	7	Sololá	719	Santiago Atitlán	14	Cerro de Oro	11	Noviembre	2023-09-11T00:00:00	2024-11-08T01:00:00	3	Temperatura mínima	18.4
183124	7	Sololá	719	Santiago Atitlán	14	Cerro de Oro	11	Noviembre	2023-09-11T00:00:00	2024-11-08T01:00:00	5	Humedad	85
183125	7	Sololá	719	Santiago Atitlán	14	Cerro de Oro	11	Noviembre	2023-09-11T00:00:00	2024-11-08T01:00:00	6	Velocidad del viento	0
183126	7	Sololá	719	Santiago Atitlán	14	Cerro de Oro	11	Noviembre	2023-09-11T00:00:00	2024-11-08T01:00:00	7	Dirección del viento	0
183127	7	Sololá	719	Santiago Atitlán	14	Cerro de Oro	11	Noviembre	2023-09-11T00:00:00	2024-11-08T01:00:00	1	Precipitación	0
183128	7	Sololá	719	Santiago Atitlán	14	Cerro de Oro	11	Noviembre	2023-09-11T00:00:00	2024-11-08T01:00:00	8	Radiación solar	0
183129	7	Sololá	719	Santiago Atitlán	14	Cerro de Oro	11	Noviembre	2023-09-11T00:00:00	2024-11-08T02:00:00	2	Temperatura media	17.8
183130	7	Sololá	719	Santiago Atitlán	14	Cerro de Oro	11	Noviembre	2023-09-11T00:00:00	2024-11-08T02:00:00	4	Temperatura máxima	18.7
183131	7	Sololá	719	Santiago Atitlán	14	Cerro de Oro	11	Noviembre	2023-09-11T00:00:00	2024-11-08T02:00:00	3	Temperatura mínima	17.8
183132	7	Sololá	719	Santiago Atitlán	14	Cerro de Oro	11	Noviembre	2023-09-11T00:00:00	2024-11-08T02:00:00	5	Humedad	87
183133	7	Sololá	719	Santiago Atitlán	14	Cerro de Oro	11	Noviembre	2023-09-11T00:00:00	2024-11-08T02:00:00	6	Velocidad del viento	0
183134	7	Sololá	719	Santiago Atitlán	14	Cerro de Oro	11	Noviembre	2023-09-11T00:00:00	2024-11-08T02:00:00	7	Dirección del viento	0
183135	7	Sololá	719	Santiago Atitlán	14	Cerro de Oro	11	Noviembre	2023-09-11T00:00:00	2024-11-08T02:00:00	1	Precipitación	0
183136	7	Sololá	719	Santiago Atitlán	14	Cerro de Oro	11	Noviembre	2023-09-11T00:00:00	2024-11-08T02:00:00	8	Radiación solar	0
183137	7	Sololá	719	Santiago Atitlán	14	Cerro de Oro	11	Noviembre	2023-09-11T00:00:00	2024-11-08T03:00:00	2	Temperatura media	17.3
183138	7	Sololá	719	Santiago Atitlán	14	Cerro de Oro	11	Noviembre	2023-09-11T00:00:00	2024-11-08T03:00:00	4	Temperatura máxima	17.8
183139	7	Sololá	719	Santiago Atitlán	14	Cerro de Oro	11	Noviembre	2023-09-11T00:00:00	2024-11-08T03:00:00	3	Temperatura mínima	17.3
183140	7	Sololá	719	Santiago Atitlán	14	Cerro de Oro	11	Noviembre	2023-09-11T00:00:00	2024-11-08T03:00:00	5	Humedad	88
183141	7	Sololá	719	Santiago Atitlán	14	Cerro de Oro	11	Noviembre	2023-09-11T00:00:00	2024-11-08T03:00:00	6	Velocidad del viento	1.6
183142	7	Sololá	719	Santiago Atitlán	14	Cerro de Oro	11	Noviembre	2023-09-11T00:00:00	2024-11-08T03:00:00	7	Dirección del viento	1.61
183143	7	Sololá	719	Santiago Atitlán	14	Cerro de Oro	11	Noviembre	2023-09-11T00:00:00	2024-11-08T03:00:00	1	Precipitación	0
183144	7	Sololá	719	Santiago Atitlán	14	Cerro de Oro	11	Noviembre	2023-09-11T00:00:00	2024-11-08T03:00:00	8	Radiación solar	0
183145	7	Sololá	719	Santiago Atitlán	14	Cerro de Oro	11	Noviembre	2023-09-11T00:00:00	2024-11-08T04:00:00	2	Temperatura media	17.2
183146	7	Sololá	719	Santiago Atitlán	14	Cerro de Oro	11	Noviembre	2023-09-11T00:00:00	2024-11-08T04:00:00	4	Temperatura máxima	17.3
183147	7	Sololá	719	Santiago Atitlán	14	Cerro de Oro	11	Noviembre	2023-09-11T00:00:00	2024-11-08T04:00:00	3	Temperatura mínima	17.1
183148	7	Sololá	719	Santiago Atitlán	14	Cerro de Oro	11	Noviembre	2023-09-11T00:00:00	2024-11-08T04:00:00	5	Humedad	86
183149	7	Sololá	719	Santiago Atitlán	14	Cerro de Oro	11	Noviembre	2023-09-11T00:00:00	2024-11-08T04:00:00	6	Velocidad del viento	1.6
183150	7	Sololá	719	Santiago Atitlán	14	Cerro de Oro	11	Noviembre	2023-09-11T00:00:00	2024-11-08T04:00:00	7	Dirección del viento	1.61
183151	7	Sololá	719	Santiago Atitlán	14	Cerro de Oro	11	Noviembre	2023-09-11T00:00:00	2024-11-08T04:00:00	1	Precipitación	0
183152	7	Sololá	719	Santiago Atitlán	14	Cerro de Oro	11	Noviembre	2023-09-11T00:00:00	2024-11-08T04:00:00	8	Radiación solar	0
183153	7	Sololá	719	Santiago Atitlán	14	Cerro de Oro	11	Noviembre	2023-09-11T00:00:00	2024-11-08T05:00:00	2	Temperatura media	16.7
183154	7	Sololá	719	Santiago Atitlán	14	Cerro de Oro	11	Noviembre	2023-09-11T00:00:00	2024-11-08T05:00:00	4	Temperatura máxima	17.4
183155	7	Sololá	719	Santiago Atitlán	14	Cerro de Oro	11	Noviembre	2023-09-11T00:00:00	2024-11-08T05:00:00	3	Temperatura mínima	16.6
183156	7	Sololá	719	Santiago Atitlán	14	Cerro de Oro	11	Noviembre	2023-09-11T00:00:00	2024-11-08T05:00:00	5	Humedad	89
183157	7	Sololá	719	Santiago Atitlán	14	Cerro de Oro	11	Noviembre	2023-09-11T00:00:00	2024-11-08T05:00:00	6	Velocidad del viento	0
183158	7	Sololá	719	Santiago Atitlán	14	Cerro de Oro	11	Noviembre	2023-09-11T00:00:00	2024-11-08T05:00:00	7	Dirección del viento	0
183159	7	Sololá	719	Santiago Atitlán	14	Cerro de Oro	11	Noviembre	2023-09-11T00:00:00	2024-11-08T05:00:00	1	Precipitación	0
183160	7	Sololá	719	Santiago Atitlán	14	Cerro de Oro	11	Noviembre	2023-09-11T00:00:00	2024-11-08T05:00:00	8	Radiación solar	0
183161	7	Sololá	719	Santiago Atitlán	14	Cerro de Oro	11	Noviembre	2023-09-11T00:00:00	2024-11-08T06:00:00	2	Temperatura media	17.6
183162	7	Sololá	719	Santiago Atitlán	14	Cerro de Oro	11	Noviembre	2023-09-11T00:00:00	2024-11-08T06:00:00	4	Temperatura máxima	17.6
183163	7	Sololá	719	Santiago Atitlán	14	Cerro de Oro	11	Noviembre	2023-09-11T00:00:00	2024-11-08T06:00:00	3	Temperatura mínima	16.4
183164	7	Sololá	719	Santiago Atitlán	14	Cerro de Oro	11	Noviembre	2023-09-11T00:00:00	2024-11-08T06:00:00	5	Humedad	84
183165	7	Sololá	719	Santiago Atitlán	14	Cerro de Oro	11	Noviembre	2023-09-11T00:00:00	2024-11-08T06:00:00	6	Velocidad del viento	1.6
183166	7	Sololá	719	Santiago Atitlán	14	Cerro de Oro	11	Noviembre	2023-09-11T00:00:00	2024-11-08T06:00:00	7	Dirección del viento	1.61
183167	7	Sololá	719	Santiago Atitlán	14	Cerro de Oro	11	Noviembre	2023-09-11T00:00:00	2024-11-08T06:00:00	1	Precipitación	0
183168	7	Sololá	719	Santiago Atitlán	14	Cerro de Oro	11	Noviembre	2023-09-11T00:00:00	2024-11-08T06:00:00	8	Radiación solar	26
183169	7	Sololá	719	Santiago Atitlán	14	Cerro de Oro	11	Noviembre	2023-09-11T00:00:00	2024-11-08T07:00:00	2	Temperatura media	20.8
183170	7	Sololá	719	Santiago Atitlán	14	Cerro de Oro	11	Noviembre	2023-09-11T00:00:00	2024-11-08T07:00:00	4	Temperatura máxima	20.8
183171	7	Sololá	719	Santiago Atitlán	14	Cerro de Oro	11	Noviembre	2023-09-11T00:00:00	2024-11-08T07:00:00	3	Temperatura mínima	17.6
183172	7	Sololá	719	Santiago Atitlán	14	Cerro de Oro	11	Noviembre	2023-09-11T00:00:00	2024-11-08T07:00:00	5	Humedad	80
183173	7	Sololá	719	Santiago Atitlán	14	Cerro de Oro	11	Noviembre	2023-09-11T00:00:00	2024-11-08T07:00:00	6	Velocidad del viento	0
183174	7	Sololá	719	Santiago Atitlán	14	Cerro de Oro	11	Noviembre	2023-09-11T00:00:00	2024-11-08T07:00:00	7	Dirección del viento	0
183175	7	Sololá	719	Santiago Atitlán	14	Cerro de Oro	11	Noviembre	2023-09-11T00:00:00	2024-11-08T07:00:00	1	Precipitación	0
183176	7	Sololá	719	Santiago Atitlán	14	Cerro de Oro	11	Noviembre	2023-09-11T00:00:00	2024-11-08T07:00:00	8	Radiación solar	228
183177	7	Sololá	719	Santiago Atitlán	14	Cerro de Oro	11	Noviembre	2023-09-11T00:00:00	2024-11-08T08:00:00	2	Temperatura media	21.2
183178	7	Sololá	719	Santiago Atitlán	14	Cerro de Oro	11	Noviembre	2023-09-11T00:00:00	2024-11-08T08:00:00	4	Temperatura máxima	21.6
183179	7	Sololá	719	Santiago Atitlán	14	Cerro de Oro	11	Noviembre	2023-09-11T00:00:00	2024-11-08T08:00:00	3	Temperatura mínima	20.8
183180	7	Sololá	719	Santiago Atitlán	14	Cerro de Oro	11	Noviembre	2023-09-11T00:00:00	2024-11-08T08:00:00	5	Humedad	81
183181	7	Sololá	719	Santiago Atitlán	14	Cerro de Oro	11	Noviembre	2023-09-11T00:00:00	2024-11-08T08:00:00	6	Velocidad del viento	0
183182	7	Sololá	719	Santiago Atitlán	14	Cerro de Oro	11	Noviembre	2023-09-11T00:00:00	2024-11-08T08:00:00	7	Dirección del viento	0
183183	7	Sololá	719	Santiago Atitlán	14	Cerro de Oro	11	Noviembre	2023-09-11T00:00:00	2024-11-08T08:00:00	1	Precipitación	0
183184	7	Sololá	719	Santiago Atitlán	14	Cerro de Oro	11	Noviembre	2023-09-11T00:00:00	2024-11-08T08:00:00	8	Radiación solar	478
183185	7	Sololá	719	Santiago Atitlán	14	Cerro de Oro	11	Noviembre	2023-09-11T00:00:00	2024-11-08T09:00:00	2	Temperatura media	21.3
183186	7	Sololá	719	Santiago Atitlán	14	Cerro de Oro	11	Noviembre	2023-09-11T00:00:00	2024-11-08T09:00:00	4	Temperatura máxima	21.4
183187	7	Sololá	719	Santiago Atitlán	14	Cerro de Oro	11	Noviembre	2023-09-11T00:00:00	2024-11-08T09:00:00	3	Temperatura mínima	21.1
183188	7	Sololá	719	Santiago Atitlán	14	Cerro de Oro	11	Noviembre	2023-09-11T00:00:00	2024-11-08T09:00:00	5	Humedad	80
183189	7	Sololá	719	Santiago Atitlán	14	Cerro de Oro	11	Noviembre	2023-09-11T00:00:00	2024-11-08T09:00:00	6	Velocidad del viento	0
183190	7	Sololá	719	Santiago Atitlán	14	Cerro de Oro	11	Noviembre	2023-09-11T00:00:00	2024-11-08T09:00:00	7	Dirección del viento	0
183191	7	Sololá	719	Santiago Atitlán	14	Cerro de Oro	11	Noviembre	2023-09-11T00:00:00	2024-11-08T09:00:00	1	Precipitación	0
183192	7	Sololá	719	Santiago Atitlán	14	Cerro de Oro	11	Noviembre	2023-09-11T00:00:00	2024-11-08T09:00:00	8	Radiación solar	619
183193	7	Sololá	719	Santiago Atitlán	14	Cerro de Oro	11	Noviembre	2023-09-11T00:00:00	2024-11-08T10:00:00	2	Temperatura media	22.3
183194	7	Sololá	719	Santiago Atitlán	14	Cerro de Oro	11	Noviembre	2023-09-11T00:00:00	2024-11-08T10:00:00	4	Temperatura máxima	23.1
183195	7	Sololá	719	Santiago Atitlán	14	Cerro de Oro	11	Noviembre	2023-09-11T00:00:00	2024-11-08T10:00:00	3	Temperatura mínima	21.1
183196	7	Sololá	719	Santiago Atitlán	14	Cerro de Oro	11	Noviembre	2023-09-11T00:00:00	2024-11-08T10:00:00	5	Humedad	78
183197	7	Sololá	719	Santiago Atitlán	14	Cerro de Oro	11	Noviembre	2023-09-11T00:00:00	2024-11-08T10:00:00	6	Velocidad del viento	0
183198	7	Sololá	719	Santiago Atitlán	14	Cerro de Oro	11	Noviembre	2023-09-11T00:00:00	2024-11-08T10:00:00	7	Dirección del viento	0
183199	7	Sololá	719	Santiago Atitlán	14	Cerro de Oro	11	Noviembre	2023-09-11T00:00:00	2024-11-08T10:00:00	1	Precipitación	0
183200	7	Sololá	719	Santiago Atitlán	14	Cerro de Oro	11	Noviembre	2023-09-11T00:00:00	2024-11-08T10:00:00	8	Radiación solar	683
183201	7	Sololá	719	Santiago Atitlán	14	Cerro de Oro	11	Noviembre	2023-09-11T00:00:00	2024-11-08T11:00:00	2	Temperatura media	24
183202	7	Sololá	719	Santiago Atitlán	14	Cerro de Oro	11	Noviembre	2023-09-11T00:00:00	2024-11-08T11:00:00	4	Temperatura máxima	24
183203	7	Sololá	719	Santiago Atitlán	14	Cerro de Oro	11	Noviembre	2023-09-11T00:00:00	2024-11-08T11:00:00	3	Temperatura mínima	22.1
183204	7	Sololá	719	Santiago Atitlán	14	Cerro de Oro	11	Noviembre	2023-09-11T00:00:00	2024-11-08T11:00:00	5	Humedad	72
183205	7	Sololá	719	Santiago Atitlán	14	Cerro de Oro	11	Noviembre	2023-09-11T00:00:00	2024-11-08T11:00:00	6	Velocidad del viento	1.6
183206	7	Sololá	719	Santiago Atitlán	14	Cerro de Oro	11	Noviembre	2023-09-11T00:00:00	2024-11-08T11:00:00	7	Dirección del viento	1.61
183207	7	Sololá	719	Santiago Atitlán	14	Cerro de Oro	11	Noviembre	2023-09-11T00:00:00	2024-11-08T11:00:00	1	Precipitación	0
183208	7	Sololá	719	Santiago Atitlán	14	Cerro de Oro	11	Noviembre	2023-09-11T00:00:00	2024-11-08T11:00:00	8	Radiación solar	751
183209	7	Sololá	719	Santiago Atitlán	14	Cerro de Oro	11	Noviembre	2023-09-11T00:00:00	2024-11-08T12:00:00	2	Temperatura media	24.4
183210	7	Sololá	719	Santiago Atitlán	14	Cerro de Oro	11	Noviembre	2023-09-11T00:00:00	2024-11-08T12:00:00	4	Temperatura máxima	25
183211	7	Sololá	719	Santiago Atitlán	14	Cerro de Oro	11	Noviembre	2023-09-11T00:00:00	2024-11-08T12:00:00	3	Temperatura mínima	24
183212	7	Sololá	719	Santiago Atitlán	14	Cerro de Oro	11	Noviembre	2023-09-11T00:00:00	2024-11-08T12:00:00	5	Humedad	73
183213	7	Sololá	719	Santiago Atitlán	14	Cerro de Oro	11	Noviembre	2023-09-11T00:00:00	2024-11-08T12:00:00	6	Velocidad del viento	1.6
183214	7	Sololá	719	Santiago Atitlán	14	Cerro de Oro	11	Noviembre	2023-09-11T00:00:00	2024-11-08T12:00:00	7	Dirección del viento	1.61
183215	7	Sololá	719	Santiago Atitlán	14	Cerro de Oro	11	Noviembre	2023-09-11T00:00:00	2024-11-08T12:00:00	1	Precipitación	0
183216	7	Sololá	719	Santiago Atitlán	14	Cerro de Oro	11	Noviembre	2023-09-11T00:00:00	2024-11-08T12:00:00	8	Radiación solar	804
183217	7	Sololá	719	Santiago Atitlán	14	Cerro de Oro	11	Noviembre	2023-09-11T00:00:00	2024-11-08T13:00:00	2	Temperatura media	25
183218	7	Sololá	719	Santiago Atitlán	14	Cerro de Oro	11	Noviembre	2023-09-11T00:00:00	2024-11-08T13:00:00	4	Temperatura máxima	25.4
183219	7	Sololá	719	Santiago Atitlán	14	Cerro de Oro	11	Noviembre	2023-09-11T00:00:00	2024-11-08T13:00:00	3	Temperatura mínima	23.9
183220	7	Sololá	719	Santiago Atitlán	14	Cerro de Oro	11	Noviembre	2023-09-11T00:00:00	2024-11-08T13:00:00	5	Humedad	73
183221	7	Sololá	719	Santiago Atitlán	14	Cerro de Oro	11	Noviembre	2023-09-11T00:00:00	2024-11-08T13:00:00	6	Velocidad del viento	1.6
183222	7	Sololá	719	Santiago Atitlán	14	Cerro de Oro	11	Noviembre	2023-09-11T00:00:00	2024-11-08T13:00:00	7	Dirección del viento	1.61
183223	7	Sololá	719	Santiago Atitlán	14	Cerro de Oro	11	Noviembre	2023-09-11T00:00:00	2024-11-08T13:00:00	1	Precipitación	0
183224	7	Sololá	719	Santiago Atitlán	14	Cerro de Oro	11	Noviembre	2023-09-11T00:00:00	2024-11-08T13:00:00	8	Radiación solar	722
183225	7	Sololá	719	Santiago Atitlán	14	Cerro de Oro	11	Noviembre	2023-09-11T00:00:00	2024-11-08T14:00:00	2	Temperatura media	23.3
183226	7	Sololá	719	Santiago Atitlán	14	Cerro de Oro	11	Noviembre	2023-09-11T00:00:00	2024-11-08T14:00:00	4	Temperatura máxima	24.9
183227	7	Sololá	719	Santiago Atitlán	14	Cerro de Oro	11	Noviembre	2023-09-11T00:00:00	2024-11-08T14:00:00	3	Temperatura mínima	23.3
183228	7	Sololá	719	Santiago Atitlán	14	Cerro de Oro	11	Noviembre	2023-09-11T00:00:00	2024-11-08T14:00:00	5	Humedad	81
183229	7	Sololá	719	Santiago Atitlán	14	Cerro de Oro	11	Noviembre	2023-09-11T00:00:00	2024-11-08T14:00:00	6	Velocidad del viento	4.8
183230	7	Sololá	719	Santiago Atitlán	14	Cerro de Oro	11	Noviembre	2023-09-11T00:00:00	2024-11-08T14:00:00	7	Dirección del viento	4.83
183231	7	Sololá	719	Santiago Atitlán	14	Cerro de Oro	11	Noviembre	2023-09-11T00:00:00	2024-11-08T14:00:00	1	Precipitación	0
183232	7	Sololá	719	Santiago Atitlán	14	Cerro de Oro	11	Noviembre	2023-09-11T00:00:00	2024-11-08T14:00:00	8	Radiación solar	574
183233	7	Sololá	719	Santiago Atitlán	14	Cerro de Oro	11	Noviembre	2023-09-11T00:00:00	2024-11-08T15:00:00	2	Temperatura media	23.9
183234	7	Sololá	719	Santiago Atitlán	14	Cerro de Oro	11	Noviembre	2023-09-11T00:00:00	2024-11-08T15:00:00	4	Temperatura máxima	24.1
183235	7	Sololá	719	Santiago Atitlán	14	Cerro de Oro	11	Noviembre	2023-09-11T00:00:00	2024-11-08T15:00:00	3	Temperatura mínima	22.7
183236	7	Sololá	719	Santiago Atitlán	14	Cerro de Oro	11	Noviembre	2023-09-11T00:00:00	2024-11-08T15:00:00	5	Humedad	81
183237	7	Sololá	719	Santiago Atitlán	14	Cerro de Oro	11	Noviembre	2023-09-11T00:00:00	2024-11-08T15:00:00	6	Velocidad del viento	3.2
183238	7	Sololá	719	Santiago Atitlán	14	Cerro de Oro	11	Noviembre	2023-09-11T00:00:00	2024-11-08T15:00:00	7	Dirección del viento	3.22
183239	7	Sololá	719	Santiago Atitlán	14	Cerro de Oro	11	Noviembre	2023-09-11T00:00:00	2024-11-08T15:00:00	1	Precipitación	0
183240	7	Sololá	719	Santiago Atitlán	14	Cerro de Oro	11	Noviembre	2023-09-11T00:00:00	2024-11-08T15:00:00	8	Radiación solar	282
183241	7	Sololá	719	Santiago Atitlán	14	Cerro de Oro	11	Noviembre	2023-09-11T00:00:00	2024-11-08T16:00:00	2	Temperatura media	22
183242	7	Sololá	719	Santiago Atitlán	14	Cerro de Oro	11	Noviembre	2023-09-11T00:00:00	2024-11-08T16:00:00	4	Temperatura máxima	23.9
183243	7	Sololá	719	Santiago Atitlán	14	Cerro de Oro	11	Noviembre	2023-09-11T00:00:00	2024-11-08T16:00:00	3	Temperatura mínima	22
183244	7	Sololá	719	Santiago Atitlán	14	Cerro de Oro	11	Noviembre	2023-09-11T00:00:00	2024-11-08T16:00:00	5	Humedad	87
183245	7	Sololá	719	Santiago Atitlán	14	Cerro de Oro	11	Noviembre	2023-09-11T00:00:00	2024-11-08T16:00:00	6	Velocidad del viento	1.6
183246	7	Sololá	719	Santiago Atitlán	14	Cerro de Oro	11	Noviembre	2023-09-11T00:00:00	2024-11-08T16:00:00	7	Dirección del viento	1.61
183247	7	Sololá	719	Santiago Atitlán	14	Cerro de Oro	11	Noviembre	2023-09-11T00:00:00	2024-11-08T16:00:00	1	Precipitación	0
183248	7	Sololá	719	Santiago Atitlán	14	Cerro de Oro	11	Noviembre	2023-09-11T00:00:00	2024-11-08T16:00:00	8	Radiación solar	77
183249	7	Sololá	719	Santiago Atitlán	14	Cerro de Oro	11	Noviembre	2023-09-11T00:00:00	2024-11-08T17:00:00	2	Temperatura media	21.1
183250	7	Sololá	719	Santiago Atitlán	14	Cerro de Oro	11	Noviembre	2023-09-11T00:00:00	2024-11-08T17:00:00	4	Temperatura máxima	22
183251	7	Sololá	719	Santiago Atitlán	14	Cerro de Oro	11	Noviembre	2023-09-11T00:00:00	2024-11-08T17:00:00	3	Temperatura mínima	21.1
183252	7	Sololá	719	Santiago Atitlán	14	Cerro de Oro	11	Noviembre	2023-09-11T00:00:00	2024-11-08T17:00:00	5	Humedad	91
183253	7	Sololá	719	Santiago Atitlán	14	Cerro de Oro	11	Noviembre	2023-09-11T00:00:00	2024-11-08T17:00:00	6	Velocidad del viento	0
183254	7	Sololá	719	Santiago Atitlán	14	Cerro de Oro	11	Noviembre	2023-09-11T00:00:00	2024-11-08T17:00:00	7	Dirección del viento	0
183255	7	Sololá	719	Santiago Atitlán	14	Cerro de Oro	11	Noviembre	2023-09-11T00:00:00	2024-11-08T17:00:00	1	Precipitación	0
183256	7	Sololá	719	Santiago Atitlán	14	Cerro de Oro	11	Noviembre	2023-09-11T00:00:00	2024-11-08T17:00:00	8	Radiación solar	6
183257	7	Sololá	719	Santiago Atitlán	14	Cerro de Oro	11	Noviembre	2023-09-11T00:00:00	2024-11-08T18:00:00	2	Temperatura media	20.4
183258	7	Sololá	719	Santiago Atitlán	14	Cerro de Oro	11	Noviembre	2023-09-11T00:00:00	2024-11-08T18:00:00	4	Temperatura máxima	21.1
183259	7	Sololá	719	Santiago Atitlán	14	Cerro de Oro	11	Noviembre	2023-09-11T00:00:00	2024-11-08T18:00:00	3	Temperatura mínima	20.4
183260	7	Sololá	719	Santiago Atitlán	14	Cerro de Oro	11	Noviembre	2023-09-11T00:00:00	2024-11-08T18:00:00	5	Humedad	84
183261	7	Sololá	719	Santiago Atitlán	14	Cerro de Oro	11	Noviembre	2023-09-11T00:00:00	2024-11-08T18:00:00	6	Velocidad del viento	0
183262	7	Sololá	719	Santiago Atitlán	14	Cerro de Oro	11	Noviembre	2023-09-11T00:00:00	2024-11-08T18:00:00	7	Dirección del viento	0
183263	7	Sololá	719	Santiago Atitlán	14	Cerro de Oro	11	Noviembre	2023-09-11T00:00:00	2024-11-08T18:00:00	1	Precipitación	0
183264	7	Sololá	719	Santiago Atitlán	14	Cerro de Oro	11	Noviembre	2023-09-11T00:00:00	2024-11-08T18:00:00	8	Radiación solar	0
183265	7	Sololá	719	Santiago Atitlán	14	Cerro de Oro	11	Noviembre	2023-09-11T00:00:00	2024-11-08T19:00:00	2	Temperatura media	18.9
183266	7	Sololá	719	Santiago Atitlán	14	Cerro de Oro	11	Noviembre	2023-09-11T00:00:00	2024-11-08T19:00:00	4	Temperatura máxima	20.5
183267	7	Sololá	719	Santiago Atitlán	14	Cerro de Oro	11	Noviembre	2023-09-11T00:00:00	2024-11-08T19:00:00	3	Temperatura mínima	18.9
183268	7	Sololá	719	Santiago Atitlán	14	Cerro de Oro	11	Noviembre	2023-09-11T00:00:00	2024-11-08T19:00:00	5	Humedad	82
183269	7	Sololá	719	Santiago Atitlán	14	Cerro de Oro	11	Noviembre	2023-09-11T00:00:00	2024-11-08T19:00:00	6	Velocidad del viento	1.6
183270	7	Sololá	719	Santiago Atitlán	14	Cerro de Oro	11	Noviembre	2023-09-11T00:00:00	2024-11-08T19:00:00	7	Dirección del viento	1.61
183271	7	Sololá	719	Santiago Atitlán	14	Cerro de Oro	11	Noviembre	2023-09-11T00:00:00	2024-11-08T19:00:00	1	Precipitación	0
183272	7	Sololá	719	Santiago Atitlán	14	Cerro de Oro	11	Noviembre	2023-09-11T00:00:00	2024-11-08T19:00:00	8	Radiación solar	0
183273	7	Sololá	719	Santiago Atitlán	14	Cerro de Oro	11	Noviembre	2023-09-11T00:00:00	2024-11-08T20:00:00	2	Temperatura media	18.1
183274	7	Sololá	719	Santiago Atitlán	14	Cerro de Oro	11	Noviembre	2023-09-11T00:00:00	2024-11-08T20:00:00	4	Temperatura máxima	18.9
183275	7	Sololá	719	Santiago Atitlán	14	Cerro de Oro	11	Noviembre	2023-09-11T00:00:00	2024-11-08T20:00:00	3	Temperatura mínima	17.9
183276	7	Sololá	719	Santiago Atitlán	14	Cerro de Oro	11	Noviembre	2023-09-11T00:00:00	2024-11-08T20:00:00	5	Humedad	83
183277	7	Sololá	719	Santiago Atitlán	14	Cerro de Oro	11	Noviembre	2023-09-11T00:00:00	2024-11-08T20:00:00	6	Velocidad del viento	3.2
183278	7	Sololá	719	Santiago Atitlán	14	Cerro de Oro	11	Noviembre	2023-09-11T00:00:00	2024-11-08T20:00:00	7	Dirección del viento	3.22
183279	7	Sololá	719	Santiago Atitlán	14	Cerro de Oro	11	Noviembre	2023-09-11T00:00:00	2024-11-08T20:00:00	1	Precipitación	0
183280	7	Sololá	719	Santiago Atitlán	14	Cerro de Oro	11	Noviembre	2023-09-11T00:00:00	2024-11-08T20:00:00	8	Radiación solar	0
183281	7	Sololá	719	Santiago Atitlán	14	Cerro de Oro	11	Noviembre	2023-09-11T00:00:00	2024-11-08T21:00:00	2	Temperatura media	17.5
183282	7	Sololá	719	Santiago Atitlán	14	Cerro de Oro	11	Noviembre	2023-09-11T00:00:00	2024-11-08T21:00:00	4	Temperatura máxima	18.1
183283	7	Sololá	719	Santiago Atitlán	14	Cerro de Oro	11	Noviembre	2023-09-11T00:00:00	2024-11-08T21:00:00	3	Temperatura mínima	17.5
183284	7	Sololá	719	Santiago Atitlán	14	Cerro de Oro	11	Noviembre	2023-09-11T00:00:00	2024-11-08T21:00:00	5	Humedad	83
183285	7	Sololá	719	Santiago Atitlán	14	Cerro de Oro	11	Noviembre	2023-09-11T00:00:00	2024-11-08T21:00:00	6	Velocidad del viento	1.6
183286	7	Sololá	719	Santiago Atitlán	14	Cerro de Oro	11	Noviembre	2023-09-11T00:00:00	2024-11-08T21:00:00	7	Dirección del viento	1.61
183287	7	Sololá	719	Santiago Atitlán	14	Cerro de Oro	11	Noviembre	2023-09-11T00:00:00	2024-11-08T21:00:00	1	Precipitación	0
183288	7	Sololá	719	Santiago Atitlán	14	Cerro de Oro	11	Noviembre	2023-09-11T00:00:00	2024-11-08T21:00:00	8	Radiación solar	0
183289	7	Sololá	719	Santiago Atitlán	14	Cerro de Oro	11	Noviembre	2023-09-11T00:00:00	2024-11-08T22:00:00	2	Temperatura media	17.4
183290	7	Sololá	719	Santiago Atitlán	14	Cerro de Oro	11	Noviembre	2023-09-11T00:00:00	2024-11-08T22:00:00	4	Temperatura máxima	17.5
183291	7	Sololá	719	Santiago Atitlán	14	Cerro de Oro	11	Noviembre	2023-09-11T00:00:00	2024-11-08T22:00:00	3	Temperatura mínima	17.3
183292	7	Sololá	719	Santiago Atitlán	14	Cerro de Oro	11	Noviembre	2023-09-11T00:00:00	2024-11-08T22:00:00	5	Humedad	79
183293	7	Sololá	719	Santiago Atitlán	14	Cerro de Oro	11	Noviembre	2023-09-11T00:00:00	2024-11-08T22:00:00	6	Velocidad del viento	1.6
183294	7	Sololá	719	Santiago Atitlán	14	Cerro de Oro	11	Noviembre	2023-09-11T00:00:00	2024-11-08T22:00:00	7	Dirección del viento	1.61
183295	7	Sololá	719	Santiago Atitlán	14	Cerro de Oro	11	Noviembre	2023-09-11T00:00:00	2024-11-08T22:00:00	1	Precipitación	0
183296	7	Sololá	719	Santiago Atitlán	14	Cerro de Oro	11	Noviembre	2023-09-11T00:00:00	2024-11-08T22:00:00	8	Radiación solar	0
183297	7	Sololá	719	Santiago Atitlán	14	Cerro de Oro	11	Noviembre	2023-09-11T00:00:00	2024-11-08T23:00:00	2	Temperatura media	17
183298	7	Sololá	719	Santiago Atitlán	14	Cerro de Oro	11	Noviembre	2023-09-11T00:00:00	2024-11-08T23:00:00	4	Temperatura máxima	17.4
183299	7	Sololá	719	Santiago Atitlán	14	Cerro de Oro	11	Noviembre	2023-09-11T00:00:00	2024-11-08T23:00:00	3	Temperatura mínima	17
183300	7	Sololá	719	Santiago Atitlán	14	Cerro de Oro	11	Noviembre	2023-09-11T00:00:00	2024-11-08T23:00:00	5	Humedad	79
183301	7	Sololá	719	Santiago Atitlán	14	Cerro de Oro	11	Noviembre	2023-09-11T00:00:00	2024-11-08T23:00:00	6	Velocidad del viento	1.6
183302	7	Sololá	719	Santiago Atitlán	14	Cerro de Oro	11	Noviembre	2023-09-11T00:00:00	2024-11-08T23:00:00	7	Dirección del viento	1.61
183303	7	Sololá	719	Santiago Atitlán	14	Cerro de Oro	11	Noviembre	2023-09-11T00:00:00	2024-11-08T23:00:00	1	Precipitación	0
183304	7	Sololá	719	Santiago Atitlán	14	Cerro de Oro	11	Noviembre	2023-09-11T00:00:00	2024-11-08T23:00:00	8	Radiación solar	0
183305	7	Sololá	719	Santiago Atitlán	14	Cerro de Oro	11	Noviembre	2023-10-11T00:00:00	2024-11-08T00:00:00	2	Temperatura media	16.8
183306	7	Sololá	719	Santiago Atitlán	14	Cerro de Oro	11	Noviembre	2023-10-11T00:00:00	2024-11-08T00:00:00	4	Temperatura máxima	17.1
183307	7	Sololá	719	Santiago Atitlán	14	Cerro de Oro	11	Noviembre	2023-10-11T00:00:00	2024-11-08T00:00:00	3	Temperatura mínima	16.7
183308	7	Sololá	719	Santiago Atitlán	14	Cerro de Oro	11	Noviembre	2023-10-11T00:00:00	2024-11-08T00:00:00	5	Humedad	78
183309	7	Sololá	719	Santiago Atitlán	14	Cerro de Oro	11	Noviembre	2023-10-11T00:00:00	2024-11-08T00:00:00	6	Velocidad del viento	3.2
183310	7	Sololá	719	Santiago Atitlán	14	Cerro de Oro	11	Noviembre	2023-10-11T00:00:00	2024-11-08T00:00:00	7	Dirección del viento	3.22
183311	7	Sololá	719	Santiago Atitlán	14	Cerro de Oro	11	Noviembre	2023-10-11T00:00:00	2024-11-08T00:00:00	1	Precipitación	0
183312	7	Sololá	719	Santiago Atitlán	14	Cerro de Oro	11	Noviembre	2023-10-11T00:00:00	2024-11-08T00:00:00	8	Radiación solar	0
183313	7	Sololá	719	Santiago Atitlán	14	Cerro de Oro	11	Noviembre	2023-10-11T00:00:00	2024-11-08T01:00:00	2	Temperatura media	16
183314	7	Sololá	719	Santiago Atitlán	14	Cerro de Oro	11	Noviembre	2023-10-11T00:00:00	2024-11-08T01:00:00	4	Temperatura máxima	16.8
183315	7	Sololá	719	Santiago Atitlán	14	Cerro de Oro	11	Noviembre	2023-10-11T00:00:00	2024-11-08T01:00:00	3	Temperatura mínima	16
183316	7	Sololá	719	Santiago Atitlán	14	Cerro de Oro	11	Noviembre	2023-10-11T00:00:00	2024-11-08T01:00:00	5	Humedad	79
183317	7	Sololá	719	Santiago Atitlán	14	Cerro de Oro	11	Noviembre	2023-10-11T00:00:00	2024-11-08T01:00:00	6	Velocidad del viento	3.2
183318	7	Sololá	719	Santiago Atitlán	14	Cerro de Oro	11	Noviembre	2023-10-11T00:00:00	2024-11-08T01:00:00	7	Dirección del viento	3.22
183319	7	Sololá	719	Santiago Atitlán	14	Cerro de Oro	11	Noviembre	2023-10-11T00:00:00	2024-11-08T01:00:00	1	Precipitación	0
183320	7	Sololá	719	Santiago Atitlán	14	Cerro de Oro	11	Noviembre	2023-10-11T00:00:00	2024-11-08T01:00:00	8	Radiación solar	0
183321	7	Sololá	719	Santiago Atitlán	14	Cerro de Oro	11	Noviembre	2023-10-11T00:00:00	2024-11-08T02:00:00	2	Temperatura media	16.2
183322	7	Sololá	719	Santiago Atitlán	14	Cerro de Oro	11	Noviembre	2023-10-11T00:00:00	2024-11-08T02:00:00	4	Temperatura máxima	16.4
183323	7	Sololá	719	Santiago Atitlán	14	Cerro de Oro	11	Noviembre	2023-10-11T00:00:00	2024-11-08T02:00:00	3	Temperatura mínima	16
183324	7	Sololá	719	Santiago Atitlán	14	Cerro de Oro	11	Noviembre	2023-10-11T00:00:00	2024-11-08T02:00:00	5	Humedad	79
183325	7	Sololá	719	Santiago Atitlán	14	Cerro de Oro	11	Noviembre	2023-10-11T00:00:00	2024-11-08T02:00:00	6	Velocidad del viento	1.6
183326	7	Sololá	719	Santiago Atitlán	14	Cerro de Oro	11	Noviembre	2023-10-11T00:00:00	2024-11-08T02:00:00	7	Dirección del viento	1.61
183327	7	Sololá	719	Santiago Atitlán	14	Cerro de Oro	11	Noviembre	2023-10-11T00:00:00	2024-11-08T02:00:00	1	Precipitación	0
183328	7	Sololá	719	Santiago Atitlán	14	Cerro de Oro	11	Noviembre	2023-10-11T00:00:00	2024-11-08T02:00:00	8	Radiación solar	0
183329	7	Sololá	719	Santiago Atitlán	14	Cerro de Oro	11	Noviembre	2023-10-11T00:00:00	2024-11-08T03:00:00	2	Temperatura media	16.2
183330	7	Sololá	719	Santiago Atitlán	14	Cerro de Oro	11	Noviembre	2023-10-11T00:00:00	2024-11-08T03:00:00	4	Temperatura máxima	16.4
183331	7	Sololá	719	Santiago Atitlán	14	Cerro de Oro	11	Noviembre	2023-10-11T00:00:00	2024-11-08T03:00:00	3	Temperatura mínima	16.1
183332	7	Sololá	719	Santiago Atitlán	14	Cerro de Oro	11	Noviembre	2023-10-11T00:00:00	2024-11-08T03:00:00	5	Humedad	77
183333	7	Sololá	719	Santiago Atitlán	14	Cerro de Oro	11	Noviembre	2023-10-11T00:00:00	2024-11-08T03:00:00	6	Velocidad del viento	1.6
183334	7	Sololá	719	Santiago Atitlán	14	Cerro de Oro	11	Noviembre	2023-10-11T00:00:00	2024-11-08T03:00:00	7	Dirección del viento	1.61
183335	7	Sololá	719	Santiago Atitlán	14	Cerro de Oro	11	Noviembre	2023-10-11T00:00:00	2024-11-08T03:00:00	1	Precipitación	0
183336	7	Sololá	719	Santiago Atitlán	14	Cerro de Oro	11	Noviembre	2023-10-11T00:00:00	2024-11-08T03:00:00	8	Radiación solar	0
183337	7	Sololá	719	Santiago Atitlán	14	Cerro de Oro	11	Noviembre	2023-10-11T00:00:00	2024-11-08T04:00:00	2	Temperatura media	15.8
183338	7	Sololá	719	Santiago Atitlán	14	Cerro de Oro	11	Noviembre	2023-10-11T00:00:00	2024-11-08T04:00:00	4	Temperatura máxima	16.3
183339	7	Sololá	719	Santiago Atitlán	14	Cerro de Oro	11	Noviembre	2023-10-11T00:00:00	2024-11-08T04:00:00	3	Temperatura mínima	15.8
183340	7	Sololá	719	Santiago Atitlán	14	Cerro de Oro	11	Noviembre	2023-10-11T00:00:00	2024-11-08T04:00:00	5	Humedad	78
183341	7	Sololá	719	Santiago Atitlán	14	Cerro de Oro	11	Noviembre	2023-10-11T00:00:00	2024-11-08T04:00:00	6	Velocidad del viento	1.6
183342	7	Sololá	719	Santiago Atitlán	14	Cerro de Oro	11	Noviembre	2023-10-11T00:00:00	2024-11-08T04:00:00	7	Dirección del viento	1.61
183343	7	Sololá	719	Santiago Atitlán	14	Cerro de Oro	11	Noviembre	2023-10-11T00:00:00	2024-11-08T04:00:00	1	Precipitación	0
183344	7	Sololá	719	Santiago Atitlán	14	Cerro de Oro	11	Noviembre	2023-10-11T00:00:00	2024-11-08T04:00:00	8	Radiación solar	0
183345	7	Sololá	719	Santiago Atitlán	14	Cerro de Oro	11	Noviembre	2023-10-11T00:00:00	2024-11-08T05:00:00	2	Temperatura media	15.2
183346	7	Sololá	719	Santiago Atitlán	14	Cerro de Oro	11	Noviembre	2023-10-11T00:00:00	2024-11-08T05:00:00	4	Temperatura máxima	15.8
183347	7	Sololá	719	Santiago Atitlán	14	Cerro de Oro	11	Noviembre	2023-10-11T00:00:00	2024-11-08T05:00:00	3	Temperatura mínima	15
183348	7	Sololá	719	Santiago Atitlán	14	Cerro de Oro	11	Noviembre	2023-10-11T00:00:00	2024-11-08T05:00:00	5	Humedad	77
183349	7	Sololá	719	Santiago Atitlán	14	Cerro de Oro	11	Noviembre	2023-10-11T00:00:00	2024-11-08T05:00:00	6	Velocidad del viento	0
183350	7	Sololá	719	Santiago Atitlán	14	Cerro de Oro	11	Noviembre	2023-10-11T00:00:00	2024-11-08T05:00:00	7	Dirección del viento	0
183351	7	Sololá	719	Santiago Atitlán	14	Cerro de Oro	11	Noviembre	2023-10-11T00:00:00	2024-11-08T05:00:00	1	Precipitación	0
183352	7	Sololá	719	Santiago Atitlán	14	Cerro de Oro	11	Noviembre	2023-10-11T00:00:00	2024-11-08T05:00:00	8	Radiación solar	0
183353	7	Sololá	719	Santiago Atitlán	14	Cerro de Oro	11	Noviembre	2023-10-11T00:00:00	2024-11-08T06:00:00	2	Temperatura media	15.5
183354	7	Sololá	719	Santiago Atitlán	14	Cerro de Oro	11	Noviembre	2023-10-11T00:00:00	2024-11-08T06:00:00	4	Temperatura máxima	15.5
183355	7	Sololá	719	Santiago Atitlán	14	Cerro de Oro	11	Noviembre	2023-10-11T00:00:00	2024-11-08T06:00:00	3	Temperatura mínima	14.2
183356	7	Sololá	719	Santiago Atitlán	14	Cerro de Oro	11	Noviembre	2023-10-11T00:00:00	2024-11-08T06:00:00	5	Humedad	72
183357	7	Sololá	719	Santiago Atitlán	14	Cerro de Oro	11	Noviembre	2023-10-11T00:00:00	2024-11-08T06:00:00	6	Velocidad del viento	1.6
183358	7	Sololá	719	Santiago Atitlán	14	Cerro de Oro	11	Noviembre	2023-10-11T00:00:00	2024-11-08T06:00:00	7	Dirección del viento	1.61
183359	7	Sololá	719	Santiago Atitlán	14	Cerro de Oro	11	Noviembre	2023-10-11T00:00:00	2024-11-08T06:00:00	1	Precipitación	0
183360	7	Sololá	719	Santiago Atitlán	14	Cerro de Oro	11	Noviembre	2023-10-11T00:00:00	2024-11-08T06:00:00	8	Radiación solar	40
183361	7	Sololá	719	Santiago Atitlán	14	Cerro de Oro	11	Noviembre	2023-10-11T00:00:00	2024-11-08T07:00:00	2	Temperatura media	19
183362	7	Sololá	719	Santiago Atitlán	14	Cerro de Oro	11	Noviembre	2023-10-11T00:00:00	2024-11-08T07:00:00	4	Temperatura máxima	19
183363	7	Sololá	719	Santiago Atitlán	14	Cerro de Oro	11	Noviembre	2023-10-11T00:00:00	2024-11-08T07:00:00	3	Temperatura mínima	15.5
183364	7	Sololá	719	Santiago Atitlán	14	Cerro de Oro	11	Noviembre	2023-10-11T00:00:00	2024-11-08T07:00:00	5	Humedad	66
183365	7	Sololá	719	Santiago Atitlán	14	Cerro de Oro	11	Noviembre	2023-10-11T00:00:00	2024-11-08T07:00:00	6	Velocidad del viento	0
183366	7	Sololá	719	Santiago Atitlán	14	Cerro de Oro	11	Noviembre	2023-10-11T00:00:00	2024-11-08T07:00:00	7	Dirección del viento	0
183367	7	Sololá	719	Santiago Atitlán	14	Cerro de Oro	11	Noviembre	2023-10-11T00:00:00	2024-11-08T07:00:00	1	Precipitación	0
183368	7	Sololá	719	Santiago Atitlán	14	Cerro de Oro	11	Noviembre	2023-10-11T00:00:00	2024-11-08T07:00:00	8	Radiación solar	276
183369	7	Sololá	719	Santiago Atitlán	14	Cerro de Oro	11	Noviembre	2023-10-11T00:00:00	2024-11-08T08:00:00	2	Temperatura media	19.3
183370	7	Sololá	719	Santiago Atitlán	14	Cerro de Oro	11	Noviembre	2023-10-11T00:00:00	2024-11-08T08:00:00	4	Temperatura máxima	20.2
183371	7	Sololá	719	Santiago Atitlán	14	Cerro de Oro	11	Noviembre	2023-10-11T00:00:00	2024-11-08T08:00:00	3	Temperatura mínima	19
183372	7	Sololá	719	Santiago Atitlán	14	Cerro de Oro	11	Noviembre	2023-10-11T00:00:00	2024-11-08T08:00:00	5	Humedad	77
183373	7	Sololá	719	Santiago Atitlán	14	Cerro de Oro	11	Noviembre	2023-10-11T00:00:00	2024-11-08T08:00:00	6	Velocidad del viento	1.6
183374	7	Sololá	719	Santiago Atitlán	14	Cerro de Oro	11	Noviembre	2023-10-11T00:00:00	2024-11-08T08:00:00	7	Dirección del viento	1.61
183375	7	Sololá	719	Santiago Atitlán	14	Cerro de Oro	11	Noviembre	2023-10-11T00:00:00	2024-11-08T08:00:00	1	Precipitación	0
183376	7	Sololá	719	Santiago Atitlán	14	Cerro de Oro	11	Noviembre	2023-10-11T00:00:00	2024-11-08T08:00:00	8	Radiación solar	491
183377	7	Sololá	719	Santiago Atitlán	14	Cerro de Oro	11	Noviembre	2023-10-11T00:00:00	2024-11-08T09:00:00	2	Temperatura media	20.3
183378	7	Sololá	719	Santiago Atitlán	14	Cerro de Oro	11	Noviembre	2023-10-11T00:00:00	2024-11-08T09:00:00	4	Temperatura máxima	20.8
183379	7	Sololá	719	Santiago Atitlán	14	Cerro de Oro	11	Noviembre	2023-10-11T00:00:00	2024-11-08T09:00:00	3	Temperatura mínima	19.3
183380	7	Sololá	719	Santiago Atitlán	14	Cerro de Oro	11	Noviembre	2023-10-11T00:00:00	2024-11-08T09:00:00	5	Humedad	75
183381	7	Sololá	719	Santiago Atitlán	14	Cerro de Oro	11	Noviembre	2023-10-11T00:00:00	2024-11-08T09:00:00	6	Velocidad del viento	1.6
183382	7	Sololá	719	Santiago Atitlán	14	Cerro de Oro	11	Noviembre	2023-10-11T00:00:00	2024-11-08T09:00:00	7	Dirección del viento	1.61
183383	7	Sololá	719	Santiago Atitlán	14	Cerro de Oro	11	Noviembre	2023-10-11T00:00:00	2024-11-08T09:00:00	1	Precipitación	0
183384	7	Sololá	719	Santiago Atitlán	14	Cerro de Oro	11	Noviembre	2023-10-11T00:00:00	2024-11-08T09:00:00	8	Radiación solar	660
183385	7	Sololá	719	Santiago Atitlán	14	Cerro de Oro	11	Noviembre	2023-10-11T00:00:00	2024-11-08T10:00:00	2	Temperatura media	22.2
183386	7	Sololá	719	Santiago Atitlán	14	Cerro de Oro	11	Noviembre	2023-10-11T00:00:00	2024-11-08T10:00:00	4	Temperatura máxima	22.2
183387	7	Sololá	719	Santiago Atitlán	14	Cerro de Oro	11	Noviembre	2023-10-11T00:00:00	2024-11-08T10:00:00	3	Temperatura mínima	20.3
183388	7	Sololá	719	Santiago Atitlán	14	Cerro de Oro	11	Noviembre	2023-10-11T00:00:00	2024-11-08T10:00:00	5	Humedad	67
183389	7	Sololá	719	Santiago Atitlán	14	Cerro de Oro	11	Noviembre	2023-10-11T00:00:00	2024-11-08T10:00:00	6	Velocidad del viento	1.6
183390	7	Sololá	719	Santiago Atitlán	14	Cerro de Oro	11	Noviembre	2023-10-11T00:00:00	2024-11-08T10:00:00	7	Dirección del viento	1.61
183391	7	Sololá	719	Santiago Atitlán	14	Cerro de Oro	11	Noviembre	2023-10-11T00:00:00	2024-11-08T10:00:00	1	Precipitación	0
183392	7	Sololá	719	Santiago Atitlán	14	Cerro de Oro	11	Noviembre	2023-10-11T00:00:00	2024-11-08T10:00:00	8	Radiación solar	773
183393	7	Sololá	719	Santiago Atitlán	14	Cerro de Oro	11	Noviembre	2023-10-11T00:00:00	2024-11-08T11:00:00	2	Temperatura media	24.1
183394	7	Sololá	719	Santiago Atitlán	14	Cerro de Oro	11	Noviembre	2023-10-11T00:00:00	2024-11-08T11:00:00	4	Temperatura máxima	24.3
183395	7	Sololá	719	Santiago Atitlán	14	Cerro de Oro	11	Noviembre	2023-10-11T00:00:00	2024-11-08T11:00:00	3	Temperatura mínima	22.2
183396	7	Sololá	719	Santiago Atitlán	14	Cerro de Oro	11	Noviembre	2023-10-11T00:00:00	2024-11-08T11:00:00	5	Humedad	57
183397	7	Sololá	719	Santiago Atitlán	14	Cerro de Oro	11	Noviembre	2023-10-11T00:00:00	2024-11-08T11:00:00	6	Velocidad del viento	1.6
183398	7	Sololá	719	Santiago Atitlán	14	Cerro de Oro	11	Noviembre	2023-10-11T00:00:00	2024-11-08T11:00:00	7	Dirección del viento	1.61
183399	7	Sololá	719	Santiago Atitlán	14	Cerro de Oro	11	Noviembre	2023-10-11T00:00:00	2024-11-08T11:00:00	1	Precipitación	0
183400	7	Sololá	719	Santiago Atitlán	14	Cerro de Oro	11	Noviembre	2023-10-11T00:00:00	2024-11-08T11:00:00	8	Radiación solar	827
183401	7	Sololá	719	Santiago Atitlán	14	Cerro de Oro	11	Noviembre	2023-10-11T00:00:00	2024-11-08T12:00:00	2	Temperatura media	25.2
183402	7	Sololá	719	Santiago Atitlán	14	Cerro de Oro	11	Noviembre	2023-10-11T00:00:00	2024-11-08T12:00:00	4	Temperatura máxima	25.3
183403	7	Sololá	719	Santiago Atitlán	14	Cerro de Oro	11	Noviembre	2023-10-11T00:00:00	2024-11-08T12:00:00	3	Temperatura mínima	24.1
183404	7	Sololá	719	Santiago Atitlán	14	Cerro de Oro	11	Noviembre	2023-10-11T00:00:00	2024-11-08T12:00:00	5	Humedad	70
183405	7	Sololá	719	Santiago Atitlán	14	Cerro de Oro	11	Noviembre	2023-10-11T00:00:00	2024-11-08T12:00:00	6	Velocidad del viento	1.6
183406	7	Sololá	719	Santiago Atitlán	14	Cerro de Oro	11	Noviembre	2023-10-11T00:00:00	2024-11-08T12:00:00	7	Dirección del viento	1.61
183407	7	Sololá	719	Santiago Atitlán	14	Cerro de Oro	11	Noviembre	2023-10-11T00:00:00	2024-11-08T12:00:00	1	Precipitación	0
183408	7	Sololá	719	Santiago Atitlán	14	Cerro de Oro	11	Noviembre	2023-10-11T00:00:00	2024-11-08T12:00:00	8	Radiación solar	804
183409	7	Sololá	719	Santiago Atitlán	14	Cerro de Oro	11	Noviembre	2023-10-11T00:00:00	2024-11-08T13:00:00	2	Temperatura media	25.8
183410	7	Sololá	719	Santiago Atitlán	14	Cerro de Oro	11	Noviembre	2023-10-11T00:00:00	2024-11-08T13:00:00	4	Temperatura máxima	26.3
183411	7	Sololá	719	Santiago Atitlán	14	Cerro de Oro	11	Noviembre	2023-10-11T00:00:00	2024-11-08T13:00:00	3	Temperatura mínima	25.2
183412	7	Sololá	719	Santiago Atitlán	14	Cerro de Oro	11	Noviembre	2023-10-11T00:00:00	2024-11-08T13:00:00	5	Humedad	65
183413	7	Sololá	719	Santiago Atitlán	14	Cerro de Oro	11	Noviembre	2023-10-11T00:00:00	2024-11-08T13:00:00	6	Velocidad del viento	1.6
183414	7	Sololá	719	Santiago Atitlán	14	Cerro de Oro	11	Noviembre	2023-10-11T00:00:00	2024-11-08T13:00:00	7	Dirección del viento	1.61
183415	7	Sololá	719	Santiago Atitlán	14	Cerro de Oro	11	Noviembre	2023-10-11T00:00:00	2024-11-08T13:00:00	1	Precipitación	0
183416	7	Sololá	719	Santiago Atitlán	14	Cerro de Oro	11	Noviembre	2023-10-11T00:00:00	2024-11-08T13:00:00	8	Radiación solar	715
183417	7	Sololá	719	Santiago Atitlán	14	Cerro de Oro	11	Noviembre	2023-10-11T00:00:00	2024-11-08T14:00:00	2	Temperatura media	24.8
183418	7	Sololá	719	Santiago Atitlán	14	Cerro de Oro	11	Noviembre	2023-10-11T00:00:00	2024-11-08T14:00:00	4	Temperatura máxima	25.9
183419	7	Sololá	719	Santiago Atitlán	14	Cerro de Oro	11	Noviembre	2023-10-11T00:00:00	2024-11-08T14:00:00	3	Temperatura mínima	24.3
183420	7	Sololá	719	Santiago Atitlán	14	Cerro de Oro	11	Noviembre	2023-10-11T00:00:00	2024-11-08T14:00:00	5	Humedad	76
183421	7	Sololá	719	Santiago Atitlán	14	Cerro de Oro	11	Noviembre	2023-10-11T00:00:00	2024-11-08T14:00:00	6	Velocidad del viento	3.2
183422	7	Sololá	719	Santiago Atitlán	14	Cerro de Oro	11	Noviembre	2023-10-11T00:00:00	2024-11-08T14:00:00	7	Dirección del viento	3.22
183423	7	Sololá	719	Santiago Atitlán	14	Cerro de Oro	11	Noviembre	2023-10-11T00:00:00	2024-11-08T14:00:00	1	Precipitación	0
183424	7	Sololá	719	Santiago Atitlán	14	Cerro de Oro	11	Noviembre	2023-10-11T00:00:00	2024-11-08T14:00:00	8	Radiación solar	561
183425	7	Sololá	719	Santiago Atitlán	14	Cerro de Oro	11	Noviembre	2023-10-11T00:00:00	2024-11-08T15:00:00	2	Temperatura media	24.6
183426	7	Sololá	719	Santiago Atitlán	14	Cerro de Oro	11	Noviembre	2023-10-11T00:00:00	2024-11-08T15:00:00	4	Temperatura máxima	25
183427	7	Sololá	719	Santiago Atitlán	14	Cerro de Oro	11	Noviembre	2023-10-11T00:00:00	2024-11-08T15:00:00	3	Temperatura mínima	24.2
183428	7	Sololá	719	Santiago Atitlán	14	Cerro de Oro	11	Noviembre	2023-10-11T00:00:00	2024-11-08T15:00:00	5	Humedad	76
183429	7	Sololá	719	Santiago Atitlán	14	Cerro de Oro	11	Noviembre	2023-10-11T00:00:00	2024-11-08T15:00:00	6	Velocidad del viento	3.2
183430	7	Sololá	719	Santiago Atitlán	14	Cerro de Oro	11	Noviembre	2023-10-11T00:00:00	2024-11-08T15:00:00	7	Dirección del viento	3.22
183431	7	Sololá	719	Santiago Atitlán	14	Cerro de Oro	11	Noviembre	2023-10-11T00:00:00	2024-11-08T15:00:00	1	Precipitación	0
183432	7	Sololá	719	Santiago Atitlán	14	Cerro de Oro	11	Noviembre	2023-10-11T00:00:00	2024-11-08T15:00:00	8	Radiación solar	370
183433	7	Sololá	719	Santiago Atitlán	14	Cerro de Oro	11	Noviembre	2023-10-11T00:00:00	2024-11-08T16:00:00	2	Temperatura media	23
183434	7	Sololá	719	Santiago Atitlán	14	Cerro de Oro	11	Noviembre	2023-10-11T00:00:00	2024-11-08T16:00:00	4	Temperatura máxima	24.6
183435	7	Sololá	719	Santiago Atitlán	14	Cerro de Oro	11	Noviembre	2023-10-11T00:00:00	2024-11-08T16:00:00	3	Temperatura mínima	23
183436	7	Sololá	719	Santiago Atitlán	14	Cerro de Oro	11	Noviembre	2023-10-11T00:00:00	2024-11-08T16:00:00	5	Humedad	84
183437	7	Sololá	719	Santiago Atitlán	14	Cerro de Oro	11	Noviembre	2023-10-11T00:00:00	2024-11-08T16:00:00	6	Velocidad del viento	1.6
183438	7	Sololá	719	Santiago Atitlán	14	Cerro de Oro	11	Noviembre	2023-10-11T00:00:00	2024-11-08T16:00:00	7	Dirección del viento	1.61
183439	7	Sololá	719	Santiago Atitlán	14	Cerro de Oro	11	Noviembre	2023-10-11T00:00:00	2024-11-08T16:00:00	1	Precipitación	0
183440	7	Sololá	719	Santiago Atitlán	14	Cerro de Oro	11	Noviembre	2023-10-11T00:00:00	2024-11-08T16:00:00	8	Radiación solar	161
183441	7	Sololá	719	Santiago Atitlán	14	Cerro de Oro	11	Noviembre	2023-10-11T00:00:00	2024-11-08T17:00:00	2	Temperatura media	21.6
183442	7	Sololá	719	Santiago Atitlán	14	Cerro de Oro	11	Noviembre	2023-10-11T00:00:00	2024-11-08T17:00:00	4	Temperatura máxima	23
183443	7	Sololá	719	Santiago Atitlán	14	Cerro de Oro	11	Noviembre	2023-10-11T00:00:00	2024-11-08T17:00:00	3	Temperatura mínima	21.6
183444	7	Sololá	719	Santiago Atitlán	14	Cerro de Oro	11	Noviembre	2023-10-11T00:00:00	2024-11-08T17:00:00	5	Humedad	87
183445	7	Sololá	719	Santiago Atitlán	14	Cerro de Oro	11	Noviembre	2023-10-11T00:00:00	2024-11-08T17:00:00	6	Velocidad del viento	0
183446	7	Sololá	719	Santiago Atitlán	14	Cerro de Oro	11	Noviembre	2023-10-11T00:00:00	2024-11-08T17:00:00	7	Dirección del viento	0
183447	7	Sololá	719	Santiago Atitlán	14	Cerro de Oro	11	Noviembre	2023-10-11T00:00:00	2024-11-08T17:00:00	1	Precipitación	0
183448	7	Sololá	719	Santiago Atitlán	14	Cerro de Oro	11	Noviembre	2023-10-11T00:00:00	2024-11-08T17:00:00	8	Radiación solar	10
183449	7	Sololá	719	Santiago Atitlán	14	Cerro de Oro	11	Noviembre	2023-10-11T00:00:00	2024-11-08T18:00:00	2	Temperatura media	19.9
183450	7	Sololá	719	Santiago Atitlán	14	Cerro de Oro	11	Noviembre	2023-10-11T00:00:00	2024-11-08T18:00:00	4	Temperatura máxima	21.6
183451	7	Sololá	719	Santiago Atitlán	14	Cerro de Oro	11	Noviembre	2023-10-11T00:00:00	2024-11-08T18:00:00	3	Temperatura mínima	19.8
183452	7	Sololá	719	Santiago Atitlán	14	Cerro de Oro	11	Noviembre	2023-10-11T00:00:00	2024-11-08T18:00:00	5	Humedad	80
183453	7	Sololá	719	Santiago Atitlán	14	Cerro de Oro	11	Noviembre	2023-10-11T00:00:00	2024-11-08T18:00:00	6	Velocidad del viento	0
183454	7	Sololá	719	Santiago Atitlán	14	Cerro de Oro	11	Noviembre	2023-10-11T00:00:00	2024-11-08T18:00:00	7	Dirección del viento	0
183455	7	Sololá	719	Santiago Atitlán	14	Cerro de Oro	11	Noviembre	2023-10-11T00:00:00	2024-11-08T18:00:00	1	Precipitación	0
183456	7	Sololá	719	Santiago Atitlán	14	Cerro de Oro	11	Noviembre	2023-10-11T00:00:00	2024-11-08T18:00:00	8	Radiación solar	0
183457	7	Sololá	719	Santiago Atitlán	14	Cerro de Oro	11	Noviembre	2023-10-11T00:00:00	2024-11-08T19:00:00	2	Temperatura media	21.2
183458	7	Sololá	719	Santiago Atitlán	14	Cerro de Oro	11	Noviembre	2023-10-11T00:00:00	2024-11-08T19:00:00	4	Temperatura máxima	21.9
183459	7	Sololá	719	Santiago Atitlán	14	Cerro de Oro	11	Noviembre	2023-10-11T00:00:00	2024-11-08T19:00:00	3	Temperatura mínima	19.7
183460	7	Sololá	719	Santiago Atitlán	14	Cerro de Oro	11	Noviembre	2023-10-11T00:00:00	2024-11-08T19:00:00	5	Humedad	75
183461	7	Sololá	719	Santiago Atitlán	14	Cerro de Oro	11	Noviembre	2023-10-11T00:00:00	2024-11-08T19:00:00	6	Velocidad del viento	3.2
183462	7	Sololá	719	Santiago Atitlán	14	Cerro de Oro	11	Noviembre	2023-10-11T00:00:00	2024-11-08T19:00:00	7	Dirección del viento	3.22
183463	7	Sololá	719	Santiago Atitlán	14	Cerro de Oro	11	Noviembre	2023-10-11T00:00:00	2024-11-08T19:00:00	1	Precipitación	0
183464	7	Sololá	719	Santiago Atitlán	14	Cerro de Oro	11	Noviembre	2023-10-11T00:00:00	2024-11-08T19:00:00	8	Radiación solar	0
183465	7	Sololá	719	Santiago Atitlán	14	Cerro de Oro	11	Noviembre	2023-10-11T00:00:00	2024-11-08T20:00:00	2	Temperatura media	21.5
183466	7	Sololá	719	Santiago Atitlán	14	Cerro de Oro	11	Noviembre	2023-10-11T00:00:00	2024-11-08T20:00:00	4	Temperatura máxima	21.8
183467	7	Sololá	719	Santiago Atitlán	14	Cerro de Oro	11	Noviembre	2023-10-11T00:00:00	2024-11-08T20:00:00	3	Temperatura mínima	20.6
183468	7	Sololá	719	Santiago Atitlán	14	Cerro de Oro	11	Noviembre	2023-10-11T00:00:00	2024-11-08T20:00:00	5	Humedad	74
183469	7	Sololá	719	Santiago Atitlán	14	Cerro de Oro	11	Noviembre	2023-10-11T00:00:00	2024-11-08T20:00:00	6	Velocidad del viento	4.8
183470	7	Sololá	719	Santiago Atitlán	14	Cerro de Oro	11	Noviembre	2023-10-11T00:00:00	2024-11-08T20:00:00	7	Dirección del viento	4.83
183471	7	Sololá	719	Santiago Atitlán	14	Cerro de Oro	11	Noviembre	2023-10-11T00:00:00	2024-11-08T20:00:00	1	Precipitación	0
183472	7	Sololá	719	Santiago Atitlán	14	Cerro de Oro	11	Noviembre	2023-10-11T00:00:00	2024-11-08T20:00:00	8	Radiación solar	0
183473	7	Sololá	719	Santiago Atitlán	14	Cerro de Oro	11	Noviembre	2023-10-11T00:00:00	2024-11-08T21:00:00	2	Temperatura media	21.8
183474	7	Sololá	719	Santiago Atitlán	14	Cerro de Oro	11	Noviembre	2023-10-11T00:00:00	2024-11-08T21:00:00	4	Temperatura máxima	21.9
183475	7	Sololá	719	Santiago Atitlán	14	Cerro de Oro	11	Noviembre	2023-10-11T00:00:00	2024-11-08T21:00:00	3	Temperatura mínima	20.1
183476	7	Sololá	719	Santiago Atitlán	14	Cerro de Oro	11	Noviembre	2023-10-11T00:00:00	2024-11-08T21:00:00	5	Humedad	73
183477	7	Sololá	719	Santiago Atitlán	14	Cerro de Oro	11	Noviembre	2023-10-11T00:00:00	2024-11-08T21:00:00	6	Velocidad del viento	3.2
183478	7	Sololá	719	Santiago Atitlán	14	Cerro de Oro	11	Noviembre	2023-10-11T00:00:00	2024-11-08T21:00:00	7	Dirección del viento	3.22
183479	7	Sololá	719	Santiago Atitlán	14	Cerro de Oro	11	Noviembre	2023-10-11T00:00:00	2024-11-08T21:00:00	1	Precipitación	0
183480	7	Sololá	719	Santiago Atitlán	14	Cerro de Oro	11	Noviembre	2023-10-11T00:00:00	2024-11-08T21:00:00	8	Radiación solar	0
183481	7	Sololá	719	Santiago Atitlán	14	Cerro de Oro	11	Noviembre	2023-10-11T00:00:00	2024-11-08T22:00:00	2	Temperatura media	21
183482	7	Sololá	719	Santiago Atitlán	14	Cerro de Oro	11	Noviembre	2023-10-11T00:00:00	2024-11-08T22:00:00	4	Temperatura máxima	21.8
183483	7	Sololá	719	Santiago Atitlán	14	Cerro de Oro	11	Noviembre	2023-10-11T00:00:00	2024-11-08T22:00:00	3	Temperatura mínima	20.9
183484	7	Sololá	719	Santiago Atitlán	14	Cerro de Oro	11	Noviembre	2023-10-11T00:00:00	2024-11-08T22:00:00	5	Humedad	76
183485	7	Sololá	719	Santiago Atitlán	14	Cerro de Oro	11	Noviembre	2023-10-11T00:00:00	2024-11-08T22:00:00	6	Velocidad del viento	0
183486	7	Sololá	719	Santiago Atitlán	14	Cerro de Oro	11	Noviembre	2023-10-11T00:00:00	2024-11-08T22:00:00	7	Dirección del viento	0
183487	7	Sololá	719	Santiago Atitlán	14	Cerro de Oro	11	Noviembre	2023-10-11T00:00:00	2024-11-08T22:00:00	1	Precipitación	0
183488	7	Sololá	719	Santiago Atitlán	14	Cerro de Oro	11	Noviembre	2023-10-11T00:00:00	2024-11-08T22:00:00	8	Radiación solar	0
183489	7	Sololá	719	Santiago Atitlán	14	Cerro de Oro	11	Noviembre	2023-10-11T00:00:00	2024-11-08T23:00:00	2	Temperatura media	21
183490	7	Sololá	719	Santiago Atitlán	14	Cerro de Oro	11	Noviembre	2023-10-11T00:00:00	2024-11-08T23:00:00	4	Temperatura máxima	21.1
183491	7	Sololá	719	Santiago Atitlán	14	Cerro de Oro	11	Noviembre	2023-10-11T00:00:00	2024-11-08T23:00:00	3	Temperatura mínima	20.6
183492	7	Sololá	719	Santiago Atitlán	14	Cerro de Oro	11	Noviembre	2023-10-11T00:00:00	2024-11-08T23:00:00	5	Humedad	76
183493	7	Sololá	719	Santiago Atitlán	14	Cerro de Oro	11	Noviembre	2023-10-11T00:00:00	2024-11-08T23:00:00	6	Velocidad del viento	0
183494	7	Sololá	719	Santiago Atitlán	14	Cerro de Oro	11	Noviembre	2023-10-11T00:00:00	2024-11-08T23:00:00	7	Dirección del viento	0
183495	7	Sololá	719	Santiago Atitlán	14	Cerro de Oro	11	Noviembre	2023-10-11T00:00:00	2024-11-08T23:00:00	1	Precipitación	0
183496	7	Sololá	719	Santiago Atitlán	14	Cerro de Oro	11	Noviembre	2023-10-11T00:00:00	2024-11-08T23:00:00	8	Radiación solar	0
183497	7	Sololá	719	Santiago Atitlán	14	Cerro de Oro	11	Noviembre	2023-11-11T00:00:00	2024-11-08T00:00:00	2	Temperatura media	21.9
183498	7	Sololá	719	Santiago Atitlán	14	Cerro de Oro	11	Noviembre	2023-11-11T00:00:00	2024-11-08T00:00:00	4	Temperatura máxima	22
183499	7	Sololá	719	Santiago Atitlán	14	Cerro de Oro	11	Noviembre	2023-11-11T00:00:00	2024-11-08T00:00:00	3	Temperatura mínima	21
183500	7	Sololá	719	Santiago Atitlán	14	Cerro de Oro	11	Noviembre	2023-11-11T00:00:00	2024-11-08T00:00:00	5	Humedad	72
183501	7	Sololá	719	Santiago Atitlán	14	Cerro de Oro	11	Noviembre	2023-11-11T00:00:00	2024-11-08T00:00:00	6	Velocidad del viento	1.6
183502	7	Sololá	719	Santiago Atitlán	14	Cerro de Oro	11	Noviembre	2023-11-11T00:00:00	2024-11-08T00:00:00	7	Dirección del viento	1.61
183503	7	Sololá	719	Santiago Atitlán	14	Cerro de Oro	11	Noviembre	2023-11-11T00:00:00	2024-11-08T00:00:00	1	Precipitación	0
183504	7	Sololá	719	Santiago Atitlán	14	Cerro de Oro	11	Noviembre	2023-11-11T00:00:00	2024-11-08T00:00:00	8	Radiación solar	0
183505	7	Sololá	719	Santiago Atitlán	14	Cerro de Oro	11	Noviembre	2023-11-11T00:00:00	2024-11-08T01:00:00	2	Temperatura media	20.1
183506	7	Sololá	719	Santiago Atitlán	14	Cerro de Oro	11	Noviembre	2023-11-11T00:00:00	2024-11-08T01:00:00	4	Temperatura máxima	21.9
183507	7	Sololá	719	Santiago Atitlán	14	Cerro de Oro	11	Noviembre	2023-11-11T00:00:00	2024-11-08T01:00:00	3	Temperatura mínima	20.1
183508	7	Sololá	719	Santiago Atitlán	14	Cerro de Oro	11	Noviembre	2023-11-11T00:00:00	2024-11-08T01:00:00	5	Humedad	78
183509	7	Sololá	719	Santiago Atitlán	14	Cerro de Oro	11	Noviembre	2023-11-11T00:00:00	2024-11-08T01:00:00	6	Velocidad del viento	0
183510	7	Sololá	719	Santiago Atitlán	14	Cerro de Oro	11	Noviembre	2023-11-11T00:00:00	2024-11-08T01:00:00	7	Dirección del viento	0
183511	7	Sololá	719	Santiago Atitlán	14	Cerro de Oro	11	Noviembre	2023-11-11T00:00:00	2024-11-08T01:00:00	1	Precipitación	0
183512	7	Sololá	719	Santiago Atitlán	14	Cerro de Oro	11	Noviembre	2023-11-11T00:00:00	2024-11-08T01:00:00	8	Radiación solar	0
183513	7	Sololá	719	Santiago Atitlán	14	Cerro de Oro	11	Noviembre	2023-11-11T00:00:00	2024-11-08T02:00:00	2	Temperatura media	19.6
183514	7	Sololá	719	Santiago Atitlán	14	Cerro de Oro	11	Noviembre	2023-11-11T00:00:00	2024-11-08T02:00:00	4	Temperatura máxima	20.3
183515	7	Sololá	719	Santiago Atitlán	14	Cerro de Oro	11	Noviembre	2023-11-11T00:00:00	2024-11-08T02:00:00	3	Temperatura mínima	19.4
183516	7	Sololá	719	Santiago Atitlán	14	Cerro de Oro	11	Noviembre	2023-11-11T00:00:00	2024-11-08T02:00:00	5	Humedad	79
183517	7	Sololá	719	Santiago Atitlán	14	Cerro de Oro	11	Noviembre	2023-11-11T00:00:00	2024-11-08T02:00:00	6	Velocidad del viento	0
183518	7	Sololá	719	Santiago Atitlán	14	Cerro de Oro	11	Noviembre	2023-11-11T00:00:00	2024-11-08T02:00:00	7	Dirección del viento	0
183519	7	Sololá	719	Santiago Atitlán	14	Cerro de Oro	11	Noviembre	2023-11-11T00:00:00	2024-11-08T02:00:00	1	Precipitación	0
183520	7	Sololá	719	Santiago Atitlán	14	Cerro de Oro	11	Noviembre	2023-11-11T00:00:00	2024-11-08T02:00:00	8	Radiación solar	0
183521	7	Sololá	719	Santiago Atitlán	14	Cerro de Oro	11	Noviembre	2023-11-11T00:00:00	2024-11-08T03:00:00	2	Temperatura media	20.2
183522	7	Sololá	719	Santiago Atitlán	14	Cerro de Oro	11	Noviembre	2023-11-11T00:00:00	2024-11-08T03:00:00	4	Temperatura máxima	20.3
183523	7	Sololá	719	Santiago Atitlán	14	Cerro de Oro	11	Noviembre	2023-11-11T00:00:00	2024-11-08T03:00:00	3	Temperatura mínima	19.6
183524	7	Sololá	719	Santiago Atitlán	14	Cerro de Oro	11	Noviembre	2023-11-11T00:00:00	2024-11-08T03:00:00	5	Humedad	77
183525	7	Sololá	719	Santiago Atitlán	14	Cerro de Oro	11	Noviembre	2023-11-11T00:00:00	2024-11-08T03:00:00	6	Velocidad del viento	0
183526	7	Sololá	719	Santiago Atitlán	14	Cerro de Oro	11	Noviembre	2023-11-11T00:00:00	2024-11-08T03:00:00	7	Dirección del viento	0
183527	7	Sololá	719	Santiago Atitlán	14	Cerro de Oro	11	Noviembre	2023-11-11T00:00:00	2024-11-08T03:00:00	1	Precipitación	0
183528	7	Sololá	719	Santiago Atitlán	14	Cerro de Oro	11	Noviembre	2023-11-11T00:00:00	2024-11-08T03:00:00	8	Radiación solar	0
183529	7	Sololá	719	Santiago Atitlán	14	Cerro de Oro	11	Noviembre	2023-11-11T00:00:00	2024-11-08T04:00:00	2	Temperatura media	19.4
183530	7	Sololá	719	Santiago Atitlán	14	Cerro de Oro	11	Noviembre	2023-11-11T00:00:00	2024-11-08T04:00:00	4	Temperatura máxima	20.2
183531	7	Sololá	719	Santiago Atitlán	14	Cerro de Oro	11	Noviembre	2023-11-11T00:00:00	2024-11-08T04:00:00	3	Temperatura mínima	19.4
183532	7	Sololá	719	Santiago Atitlán	14	Cerro de Oro	11	Noviembre	2023-11-11T00:00:00	2024-11-08T04:00:00	5	Humedad	80
183533	7	Sololá	719	Santiago Atitlán	14	Cerro de Oro	11	Noviembre	2023-11-11T00:00:00	2024-11-08T04:00:00	6	Velocidad del viento	0
183534	7	Sololá	719	Santiago Atitlán	14	Cerro de Oro	11	Noviembre	2023-11-11T00:00:00	2024-11-08T04:00:00	7	Dirección del viento	0
183535	7	Sololá	719	Santiago Atitlán	14	Cerro de Oro	11	Noviembre	2023-11-11T00:00:00	2024-11-08T04:00:00	1	Precipitación	0
183536	7	Sololá	719	Santiago Atitlán	14	Cerro de Oro	11	Noviembre	2023-11-11T00:00:00	2024-11-08T04:00:00	8	Radiación solar	0
183537	7	Sololá	719	Santiago Atitlán	14	Cerro de Oro	11	Noviembre	2023-11-11T00:00:00	2024-11-08T05:00:00	2	Temperatura media	21.3
183538	7	Sololá	719	Santiago Atitlán	14	Cerro de Oro	11	Noviembre	2023-11-11T00:00:00	2024-11-08T05:00:00	4	Temperatura máxima	21.3
183539	7	Sololá	719	Santiago Atitlán	14	Cerro de Oro	11	Noviembre	2023-11-11T00:00:00	2024-11-08T05:00:00	3	Temperatura mínima	19.1
183540	7	Sololá	719	Santiago Atitlán	14	Cerro de Oro	11	Noviembre	2023-11-11T00:00:00	2024-11-08T05:00:00	5	Humedad	73
183541	7	Sololá	719	Santiago Atitlán	14	Cerro de Oro	11	Noviembre	2023-11-11T00:00:00	2024-11-08T05:00:00	6	Velocidad del viento	3.2
183542	7	Sololá	719	Santiago Atitlán	14	Cerro de Oro	11	Noviembre	2023-11-11T00:00:00	2024-11-08T05:00:00	7	Dirección del viento	3.22
183543	7	Sololá	719	Santiago Atitlán	14	Cerro de Oro	11	Noviembre	2023-11-11T00:00:00	2024-11-08T05:00:00	1	Precipitación	0
183544	7	Sololá	719	Santiago Atitlán	14	Cerro de Oro	11	Noviembre	2023-11-11T00:00:00	2024-11-08T05:00:00	8	Radiación solar	0
183545	7	Sololá	719	Santiago Atitlán	14	Cerro de Oro	11	Noviembre	2023-11-11T00:00:00	2024-11-08T06:00:00	2	Temperatura media	19.9
183546	7	Sololá	719	Santiago Atitlán	14	Cerro de Oro	11	Noviembre	2023-11-11T00:00:00	2024-11-08T06:00:00	4	Temperatura máxima	21.3
183547	7	Sololá	719	Santiago Atitlán	14	Cerro de Oro	11	Noviembre	2023-11-11T00:00:00	2024-11-08T06:00:00	3	Temperatura mínima	19.3
183548	7	Sololá	719	Santiago Atitlán	14	Cerro de Oro	11	Noviembre	2023-11-11T00:00:00	2024-11-08T06:00:00	5	Humedad	80
183549	7	Sololá	719	Santiago Atitlán	14	Cerro de Oro	11	Noviembre	2023-11-11T00:00:00	2024-11-08T06:00:00	6	Velocidad del viento	0
183550	7	Sololá	719	Santiago Atitlán	14	Cerro de Oro	11	Noviembre	2023-11-11T00:00:00	2024-11-08T06:00:00	7	Dirección del viento	0
183551	7	Sololá	719	Santiago Atitlán	14	Cerro de Oro	11	Noviembre	2023-11-11T00:00:00	2024-11-08T06:00:00	1	Precipitación	0
183552	7	Sololá	719	Santiago Atitlán	14	Cerro de Oro	11	Noviembre	2023-11-11T00:00:00	2024-11-08T06:00:00	8	Radiación solar	35
183553	7	Sololá	719	Santiago Atitlán	14	Cerro de Oro	11	Noviembre	2023-11-11T00:00:00	2024-11-08T07:00:00	2	Temperatura media	23.4
183554	7	Sololá	719	Santiago Atitlán	14	Cerro de Oro	11	Noviembre	2023-11-11T00:00:00	2024-11-08T07:00:00	4	Temperatura máxima	23.4
183555	7	Sololá	719	Santiago Atitlán	14	Cerro de Oro	11	Noviembre	2023-11-11T00:00:00	2024-11-08T07:00:00	3	Temperatura mínima	19.9
183556	7	Sololá	719	Santiago Atitlán	14	Cerro de Oro	11	Noviembre	2023-11-11T00:00:00	2024-11-08T07:00:00	5	Humedad	67
183557	7	Sololá	719	Santiago Atitlán	14	Cerro de Oro	11	Noviembre	2023-11-11T00:00:00	2024-11-08T07:00:00	6	Velocidad del viento	4.8
183558	7	Sololá	719	Santiago Atitlán	14	Cerro de Oro	11	Noviembre	2023-11-11T00:00:00	2024-11-08T07:00:00	7	Dirección del viento	4.83
183559	7	Sololá	719	Santiago Atitlán	14	Cerro de Oro	11	Noviembre	2023-11-11T00:00:00	2024-11-08T07:00:00	1	Precipitación	0
183560	7	Sololá	719	Santiago Atitlán	14	Cerro de Oro	11	Noviembre	2023-11-11T00:00:00	2024-11-08T07:00:00	8	Radiación solar	275
183561	7	Sololá	719	Santiago Atitlán	14	Cerro de Oro	11	Noviembre	2023-11-11T00:00:00	2024-11-08T08:00:00	2	Temperatura media	24.4
183562	7	Sololá	719	Santiago Atitlán	14	Cerro de Oro	11	Noviembre	2023-11-11T00:00:00	2024-11-08T08:00:00	4	Temperatura máxima	24.7
183563	7	Sololá	719	Santiago Atitlán	14	Cerro de Oro	11	Noviembre	2023-11-11T00:00:00	2024-11-08T08:00:00	3	Temperatura mínima	23.4
183564	7	Sololá	719	Santiago Atitlán	14	Cerro de Oro	11	Noviembre	2023-11-11T00:00:00	2024-11-08T08:00:00	5	Humedad	63
183565	7	Sololá	719	Santiago Atitlán	14	Cerro de Oro	11	Noviembre	2023-11-11T00:00:00	2024-11-08T08:00:00	6	Velocidad del viento	4.8
183566	7	Sololá	719	Santiago Atitlán	14	Cerro de Oro	11	Noviembre	2023-11-11T00:00:00	2024-11-08T08:00:00	7	Dirección del viento	4.83
183567	7	Sololá	719	Santiago Atitlán	14	Cerro de Oro	11	Noviembre	2023-11-11T00:00:00	2024-11-08T08:00:00	1	Precipitación	0
183568	7	Sololá	719	Santiago Atitlán	14	Cerro de Oro	11	Noviembre	2023-11-11T00:00:00	2024-11-08T08:00:00	8	Radiación solar	489
183569	7	Sololá	719	Santiago Atitlán	14	Cerro de Oro	11	Noviembre	2023-11-11T00:00:00	2024-11-08T09:00:00	2	Temperatura media	25
183570	7	Sololá	719	Santiago Atitlán	14	Cerro de Oro	11	Noviembre	2023-11-11T00:00:00	2024-11-08T09:00:00	4	Temperatura máxima	25
183571	7	Sololá	719	Santiago Atitlán	14	Cerro de Oro	11	Noviembre	2023-11-11T00:00:00	2024-11-08T09:00:00	3	Temperatura mínima	24.4
183572	7	Sololá	719	Santiago Atitlán	14	Cerro de Oro	11	Noviembre	2023-11-11T00:00:00	2024-11-08T09:00:00	5	Humedad	63
183573	7	Sololá	719	Santiago Atitlán	14	Cerro de Oro	11	Noviembre	2023-11-11T00:00:00	2024-11-08T09:00:00	6	Velocidad del viento	9.7
183574	7	Sololá	719	Santiago Atitlán	14	Cerro de Oro	11	Noviembre	2023-11-11T00:00:00	2024-11-08T09:00:00	7	Dirección del viento	9.66
183575	7	Sololá	719	Santiago Atitlán	14	Cerro de Oro	11	Noviembre	2023-11-11T00:00:00	2024-11-08T09:00:00	1	Precipitación	0
183576	7	Sololá	719	Santiago Atitlán	14	Cerro de Oro	11	Noviembre	2023-11-11T00:00:00	2024-11-08T09:00:00	8	Radiación solar	573
183577	7	Sololá	719	Santiago Atitlán	14	Cerro de Oro	11	Noviembre	2023-11-11T00:00:00	2024-11-08T10:00:00	2	Temperatura media	26.5
183578	7	Sololá	719	Santiago Atitlán	14	Cerro de Oro	11	Noviembre	2023-11-11T00:00:00	2024-11-08T10:00:00	4	Temperatura máxima	26.5
183579	7	Sololá	719	Santiago Atitlán	14	Cerro de Oro	11	Noviembre	2023-11-11T00:00:00	2024-11-08T10:00:00	3	Temperatura mínima	24.8
183580	7	Sololá	719	Santiago Atitlán	14	Cerro de Oro	11	Noviembre	2023-11-11T00:00:00	2024-11-08T10:00:00	5	Humedad	60
183581	7	Sololá	719	Santiago Atitlán	14	Cerro de Oro	11	Noviembre	2023-11-11T00:00:00	2024-11-08T10:00:00	6	Velocidad del viento	6.4
183582	7	Sololá	719	Santiago Atitlán	14	Cerro de Oro	11	Noviembre	2023-11-11T00:00:00	2024-11-08T10:00:00	7	Dirección del viento	6.44
183583	7	Sololá	719	Santiago Atitlán	14	Cerro de Oro	11	Noviembre	2023-11-11T00:00:00	2024-11-08T10:00:00	1	Precipitación	0
183584	7	Sololá	719	Santiago Atitlán	14	Cerro de Oro	11	Noviembre	2023-11-11T00:00:00	2024-11-08T10:00:00	8	Radiación solar	700
183585	7	Sololá	719	Santiago Atitlán	14	Cerro de Oro	11	Noviembre	2023-11-11T00:00:00	2024-11-08T11:00:00	2	Temperatura media	26.1
183586	7	Sololá	719	Santiago Atitlán	14	Cerro de Oro	11	Noviembre	2023-11-11T00:00:00	2024-11-08T11:00:00	4	Temperatura máxima	26.9
183587	7	Sololá	719	Santiago Atitlán	14	Cerro de Oro	11	Noviembre	2023-11-11T00:00:00	2024-11-08T11:00:00	3	Temperatura mínima	25.8
183588	7	Sololá	719	Santiago Atitlán	14	Cerro de Oro	11	Noviembre	2023-11-11T00:00:00	2024-11-08T11:00:00	5	Humedad	60
183589	7	Sololá	719	Santiago Atitlán	14	Cerro de Oro	11	Noviembre	2023-11-11T00:00:00	2024-11-08T11:00:00	6	Velocidad del viento	8
183590	7	Sololá	719	Santiago Atitlán	14	Cerro de Oro	11	Noviembre	2023-11-11T00:00:00	2024-11-08T11:00:00	7	Dirección del viento	8.05
183591	7	Sololá	719	Santiago Atitlán	14	Cerro de Oro	11	Noviembre	2023-11-11T00:00:00	2024-11-08T11:00:00	1	Precipitación	0
183592	7	Sololá	719	Santiago Atitlán	14	Cerro de Oro	11	Noviembre	2023-11-11T00:00:00	2024-11-08T11:00:00	8	Radiación solar	697
183593	7	Sololá	719	Santiago Atitlán	14	Cerro de Oro	11	Noviembre	2023-11-11T00:00:00	2024-11-08T12:00:00	2	Temperatura media	26.7
183594	7	Sololá	719	Santiago Atitlán	14	Cerro de Oro	11	Noviembre	2023-11-11T00:00:00	2024-11-08T12:00:00	4	Temperatura máxima	26.8
183595	7	Sololá	719	Santiago Atitlán	14	Cerro de Oro	11	Noviembre	2023-11-11T00:00:00	2024-11-08T12:00:00	3	Temperatura mínima	26
183596	7	Sololá	719	Santiago Atitlán	14	Cerro de Oro	11	Noviembre	2023-11-11T00:00:00	2024-11-08T12:00:00	5	Humedad	55
183597	7	Sololá	719	Santiago Atitlán	14	Cerro de Oro	11	Noviembre	2023-11-11T00:00:00	2024-11-08T12:00:00	6	Velocidad del viento	8
183598	7	Sololá	719	Santiago Atitlán	14	Cerro de Oro	11	Noviembre	2023-11-11T00:00:00	2024-11-08T12:00:00	7	Dirección del viento	8.05
183599	7	Sololá	719	Santiago Atitlán	14	Cerro de Oro	11	Noviembre	2023-11-11T00:00:00	2024-11-08T12:00:00	1	Precipitación	0
183600	7	Sololá	719	Santiago Atitlán	14	Cerro de Oro	11	Noviembre	2023-11-11T00:00:00	2024-11-08T12:00:00	8	Radiación solar	780
183601	7	Sololá	719	Santiago Atitlán	14	Cerro de Oro	11	Noviembre	2023-11-11T00:00:00	2024-11-08T13:00:00	2	Temperatura media	27.7
183602	7	Sololá	719	Santiago Atitlán	14	Cerro de Oro	11	Noviembre	2023-11-11T00:00:00	2024-11-08T13:00:00	4	Temperatura máxima	27.7
183603	7	Sololá	719	Santiago Atitlán	14	Cerro de Oro	11	Noviembre	2023-11-11T00:00:00	2024-11-08T13:00:00	3	Temperatura mínima	26.7
183604	7	Sololá	719	Santiago Atitlán	14	Cerro de Oro	11	Noviembre	2023-11-11T00:00:00	2024-11-08T13:00:00	5	Humedad	52
183605	7	Sololá	719	Santiago Atitlán	14	Cerro de Oro	11	Noviembre	2023-11-11T00:00:00	2024-11-08T13:00:00	6	Velocidad del viento	8
183606	7	Sololá	719	Santiago Atitlán	14	Cerro de Oro	11	Noviembre	2023-11-11T00:00:00	2024-11-08T13:00:00	7	Dirección del viento	8.05
183607	7	Sololá	719	Santiago Atitlán	14	Cerro de Oro	11	Noviembre	2023-11-11T00:00:00	2024-11-08T13:00:00	1	Precipitación	0
183608	7	Sololá	719	Santiago Atitlán	14	Cerro de Oro	11	Noviembre	2023-11-11T00:00:00	2024-11-08T13:00:00	8	Radiación solar	773
183609	7	Sololá	719	Santiago Atitlán	14	Cerro de Oro	11	Noviembre	2023-11-11T00:00:00	2024-11-08T14:00:00	2	Temperatura media	26.9
183610	7	Sololá	719	Santiago Atitlán	14	Cerro de Oro	11	Noviembre	2023-11-11T00:00:00	2024-11-08T14:00:00	4	Temperatura máxima	27.7
183611	7	Sololá	719	Santiago Atitlán	14	Cerro de Oro	11	Noviembre	2023-11-11T00:00:00	2024-11-08T14:00:00	3	Temperatura mínima	26.3
183612	7	Sololá	719	Santiago Atitlán	14	Cerro de Oro	11	Noviembre	2023-11-11T00:00:00	2024-11-08T14:00:00	5	Humedad	56
183613	7	Sololá	719	Santiago Atitlán	14	Cerro de Oro	11	Noviembre	2023-11-11T00:00:00	2024-11-08T14:00:00	6	Velocidad del viento	8
183614	7	Sololá	719	Santiago Atitlán	14	Cerro de Oro	11	Noviembre	2023-11-11T00:00:00	2024-11-08T14:00:00	7	Dirección del viento	8.05
183615	7	Sololá	719	Santiago Atitlán	14	Cerro de Oro	11	Noviembre	2023-11-11T00:00:00	2024-11-08T14:00:00	1	Precipitación	0
183616	7	Sololá	719	Santiago Atitlán	14	Cerro de Oro	11	Noviembre	2023-11-11T00:00:00	2024-11-08T14:00:00	8	Radiación solar	524
183617	7	Sololá	719	Santiago Atitlán	14	Cerro de Oro	11	Noviembre	2023-11-11T00:00:00	2024-11-08T15:00:00	2	Temperatura media	25.6
183618	7	Sololá	719	Santiago Atitlán	14	Cerro de Oro	11	Noviembre	2023-11-11T00:00:00	2024-11-08T15:00:00	4	Temperatura máxima	27.3
183619	7	Sololá	719	Santiago Atitlán	14	Cerro de Oro	11	Noviembre	2023-11-11T00:00:00	2024-11-08T15:00:00	3	Temperatura mínima	25
183620	7	Sololá	719	Santiago Atitlán	14	Cerro de Oro	11	Noviembre	2023-11-11T00:00:00	2024-11-08T15:00:00	5	Humedad	62
183621	7	Sololá	719	Santiago Atitlán	14	Cerro de Oro	11	Noviembre	2023-11-11T00:00:00	2024-11-08T15:00:00	6	Velocidad del viento	9.7
183622	7	Sololá	719	Santiago Atitlán	14	Cerro de Oro	11	Noviembre	2023-11-11T00:00:00	2024-11-08T15:00:00	7	Dirección del viento	9.66
183623	7	Sololá	719	Santiago Atitlán	14	Cerro de Oro	11	Noviembre	2023-11-11T00:00:00	2024-11-08T15:00:00	1	Precipitación	0
183624	7	Sololá	719	Santiago Atitlán	14	Cerro de Oro	11	Noviembre	2023-11-11T00:00:00	2024-11-08T15:00:00	8	Radiación solar	325
183625	7	Sololá	719	Santiago Atitlán	14	Cerro de Oro	11	Noviembre	2023-11-11T00:00:00	2024-11-08T16:00:00	2	Temperatura media	24.6
183626	7	Sololá	719	Santiago Atitlán	14	Cerro de Oro	11	Noviembre	2023-11-11T00:00:00	2024-11-08T16:00:00	4	Temperatura máxima	25.6
183627	7	Sololá	719	Santiago Atitlán	14	Cerro de Oro	11	Noviembre	2023-11-11T00:00:00	2024-11-08T16:00:00	3	Temperatura mínima	24.5
183628	7	Sololá	719	Santiago Atitlán	14	Cerro de Oro	11	Noviembre	2023-11-11T00:00:00	2024-11-08T16:00:00	5	Humedad	64
183629	7	Sololá	719	Santiago Atitlán	14	Cerro de Oro	11	Noviembre	2023-11-11T00:00:00	2024-11-08T16:00:00	6	Velocidad del viento	8
183630	7	Sololá	719	Santiago Atitlán	14	Cerro de Oro	11	Noviembre	2023-11-11T00:00:00	2024-11-08T16:00:00	7	Dirección del viento	8.05
183631	7	Sololá	719	Santiago Atitlán	14	Cerro de Oro	11	Noviembre	2023-11-11T00:00:00	2024-11-08T16:00:00	1	Precipitación	0
183632	7	Sololá	719	Santiago Atitlán	14	Cerro de Oro	11	Noviembre	2023-11-11T00:00:00	2024-11-08T16:00:00	8	Radiación solar	105
183633	7	Sololá	719	Santiago Atitlán	14	Cerro de Oro	11	Noviembre	2023-11-11T00:00:00	2024-11-08T17:00:00	2	Temperatura media	22.9
183634	7	Sololá	719	Santiago Atitlán	14	Cerro de Oro	11	Noviembre	2023-11-11T00:00:00	2024-11-08T17:00:00	4	Temperatura máxima	24.6
183635	7	Sololá	719	Santiago Atitlán	14	Cerro de Oro	11	Noviembre	2023-11-11T00:00:00	2024-11-08T17:00:00	3	Temperatura mínima	22.9
183636	7	Sololá	719	Santiago Atitlán	14	Cerro de Oro	11	Noviembre	2023-11-11T00:00:00	2024-11-08T17:00:00	5	Humedad	71
183637	7	Sololá	719	Santiago Atitlán	14	Cerro de Oro	11	Noviembre	2023-11-11T00:00:00	2024-11-08T17:00:00	6	Velocidad del viento	3.2
183638	7	Sololá	719	Santiago Atitlán	14	Cerro de Oro	11	Noviembre	2023-11-11T00:00:00	2024-11-08T17:00:00	7	Dirección del viento	3.22
183639	7	Sololá	719	Santiago Atitlán	14	Cerro de Oro	11	Noviembre	2023-11-11T00:00:00	2024-11-08T17:00:00	1	Precipitación	0
183640	7	Sololá	719	Santiago Atitlán	14	Cerro de Oro	11	Noviembre	2023-11-11T00:00:00	2024-11-08T17:00:00	8	Radiación solar	8
183641	7	Sololá	719	Santiago Atitlán	14	Cerro de Oro	11	Noviembre	2023-11-11T00:00:00	2024-11-08T18:00:00	2	Temperatura media	22.2
183642	7	Sololá	719	Santiago Atitlán	14	Cerro de Oro	11	Noviembre	2023-11-11T00:00:00	2024-11-08T18:00:00	4	Temperatura máxima	22.9
183643	7	Sololá	719	Santiago Atitlán	14	Cerro de Oro	11	Noviembre	2023-11-11T00:00:00	2024-11-08T18:00:00	3	Temperatura mínima	22.2
183644	7	Sololá	719	Santiago Atitlán	14	Cerro de Oro	11	Noviembre	2023-11-11T00:00:00	2024-11-08T18:00:00	5	Humedad	71
183645	7	Sololá	719	Santiago Atitlán	14	Cerro de Oro	11	Noviembre	2023-11-11T00:00:00	2024-11-08T18:00:00	6	Velocidad del viento	3.2
183646	7	Sololá	719	Santiago Atitlán	14	Cerro de Oro	11	Noviembre	2023-11-11T00:00:00	2024-11-08T18:00:00	7	Dirección del viento	3.22
183647	7	Sololá	719	Santiago Atitlán	14	Cerro de Oro	11	Noviembre	2023-11-11T00:00:00	2024-11-08T18:00:00	1	Precipitación	0
183648	7	Sololá	719	Santiago Atitlán	14	Cerro de Oro	11	Noviembre	2023-11-11T00:00:00	2024-11-08T18:00:00	8	Radiación solar	0
183649	7	Sololá	719	Santiago Atitlán	14	Cerro de Oro	11	Noviembre	2023-11-11T00:00:00	2024-11-08T19:00:00	2	Temperatura media	20.7
183650	7	Sololá	719	Santiago Atitlán	14	Cerro de Oro	11	Noviembre	2023-11-11T00:00:00	2024-11-08T19:00:00	4	Temperatura máxima	22.2
183651	7	Sololá	719	Santiago Atitlán	14	Cerro de Oro	11	Noviembre	2023-11-11T00:00:00	2024-11-08T19:00:00	3	Temperatura mínima	20.7
183652	7	Sololá	719	Santiago Atitlán	14	Cerro de Oro	11	Noviembre	2023-11-11T00:00:00	2024-11-08T19:00:00	5	Humedad	77
183653	7	Sololá	719	Santiago Atitlán	14	Cerro de Oro	11	Noviembre	2023-11-11T00:00:00	2024-11-08T19:00:00	6	Velocidad del viento	0
183654	7	Sololá	719	Santiago Atitlán	14	Cerro de Oro	11	Noviembre	2023-11-11T00:00:00	2024-11-08T19:00:00	7	Dirección del viento	0
183655	7	Sololá	719	Santiago Atitlán	14	Cerro de Oro	11	Noviembre	2023-11-11T00:00:00	2024-11-08T19:00:00	1	Precipitación	0
183656	7	Sololá	719	Santiago Atitlán	14	Cerro de Oro	11	Noviembre	2023-11-11T00:00:00	2024-11-08T19:00:00	8	Radiación solar	0
183657	7	Sololá	719	Santiago Atitlán	14	Cerro de Oro	11	Noviembre	2023-11-11T00:00:00	2024-11-08T20:00:00	2	Temperatura media	19.8
183658	7	Sololá	719	Santiago Atitlán	14	Cerro de Oro	11	Noviembre	2023-11-11T00:00:00	2024-11-08T20:00:00	4	Temperatura máxima	20.7
183659	7	Sololá	719	Santiago Atitlán	14	Cerro de Oro	11	Noviembre	2023-11-11T00:00:00	2024-11-08T20:00:00	3	Temperatura mínima	19.8
183660	7	Sololá	719	Santiago Atitlán	14	Cerro de Oro	11	Noviembre	2023-11-11T00:00:00	2024-11-08T20:00:00	5	Humedad	79
183661	7	Sololá	719	Santiago Atitlán	14	Cerro de Oro	11	Noviembre	2023-11-11T00:00:00	2024-11-08T20:00:00	6	Velocidad del viento	0
183662	7	Sololá	719	Santiago Atitlán	14	Cerro de Oro	11	Noviembre	2023-11-11T00:00:00	2024-11-08T20:00:00	7	Dirección del viento	0
183663	7	Sololá	719	Santiago Atitlán	14	Cerro de Oro	11	Noviembre	2023-11-11T00:00:00	2024-11-08T20:00:00	1	Precipitación	0
183664	7	Sololá	719	Santiago Atitlán	14	Cerro de Oro	11	Noviembre	2023-11-11T00:00:00	2024-11-08T20:00:00	8	Radiación solar	0
183665	7	Sololá	719	Santiago Atitlán	14	Cerro de Oro	11	Noviembre	2023-11-11T00:00:00	2024-11-08T21:00:00	2	Temperatura media	19.6
183666	7	Sololá	719	Santiago Atitlán	14	Cerro de Oro	11	Noviembre	2023-11-11T00:00:00	2024-11-08T21:00:00	4	Temperatura máxima	19.8
183667	7	Sololá	719	Santiago Atitlán	14	Cerro de Oro	11	Noviembre	2023-11-11T00:00:00	2024-11-08T21:00:00	3	Temperatura mínima	19.3
183668	7	Sololá	719	Santiago Atitlán	14	Cerro de Oro	11	Noviembre	2023-11-11T00:00:00	2024-11-08T21:00:00	5	Humedad	80
183669	7	Sololá	719	Santiago Atitlán	14	Cerro de Oro	11	Noviembre	2023-11-11T00:00:00	2024-11-08T21:00:00	6	Velocidad del viento	0
183670	7	Sololá	719	Santiago Atitlán	14	Cerro de Oro	11	Noviembre	2023-11-11T00:00:00	2024-11-08T21:00:00	7	Dirección del viento	0
183671	7	Sololá	719	Santiago Atitlán	14	Cerro de Oro	11	Noviembre	2023-11-11T00:00:00	2024-11-08T21:00:00	1	Precipitación	0
183672	7	Sololá	719	Santiago Atitlán	14	Cerro de Oro	11	Noviembre	2023-11-11T00:00:00	2024-11-08T21:00:00	8	Radiación solar	0
183673	7	Sololá	719	Santiago Atitlán	14	Cerro de Oro	11	Noviembre	2023-11-11T00:00:00	2024-11-08T22:00:00	2	Temperatura media	21.3
183674	7	Sololá	719	Santiago Atitlán	14	Cerro de Oro	11	Noviembre	2023-11-11T00:00:00	2024-11-08T22:00:00	4	Temperatura máxima	21.4
183675	7	Sololá	719	Santiago Atitlán	14	Cerro de Oro	11	Noviembre	2023-11-11T00:00:00	2024-11-08T22:00:00	3	Temperatura mínima	19.5
183676	7	Sololá	719	Santiago Atitlán	14	Cerro de Oro	11	Noviembre	2023-11-11T00:00:00	2024-11-08T22:00:00	5	Humedad	75
183677	7	Sololá	719	Santiago Atitlán	14	Cerro de Oro	11	Noviembre	2023-11-11T00:00:00	2024-11-08T22:00:00	6	Velocidad del viento	3.2
183678	7	Sololá	719	Santiago Atitlán	14	Cerro de Oro	11	Noviembre	2023-11-11T00:00:00	2024-11-08T22:00:00	7	Dirección del viento	3.22
183679	7	Sololá	719	Santiago Atitlán	14	Cerro de Oro	11	Noviembre	2023-11-11T00:00:00	2024-11-08T22:00:00	1	Precipitación	0
183680	7	Sololá	719	Santiago Atitlán	14	Cerro de Oro	11	Noviembre	2023-11-11T00:00:00	2024-11-08T22:00:00	8	Radiación solar	0
183681	7	Sololá	719	Santiago Atitlán	14	Cerro de Oro	11	Noviembre	2023-11-11T00:00:00	2024-11-08T23:00:00	2	Temperatura media	21.6
183682	7	Sololá	719	Santiago Atitlán	14	Cerro de Oro	11	Noviembre	2023-11-11T00:00:00	2024-11-08T23:00:00	4	Temperatura máxima	21.6
183683	7	Sololá	719	Santiago Atitlán	14	Cerro de Oro	11	Noviembre	2023-11-11T00:00:00	2024-11-08T23:00:00	3	Temperatura mínima	20.4
183684	7	Sololá	719	Santiago Atitlán	14	Cerro de Oro	11	Noviembre	2023-11-11T00:00:00	2024-11-08T23:00:00	5	Humedad	74
183685	7	Sololá	719	Santiago Atitlán	14	Cerro de Oro	11	Noviembre	2023-11-11T00:00:00	2024-11-08T23:00:00	6	Velocidad del viento	4.8
183686	7	Sololá	719	Santiago Atitlán	14	Cerro de Oro	11	Noviembre	2023-11-11T00:00:00	2024-11-08T23:00:00	7	Dirección del viento	4.83
183687	7	Sololá	719	Santiago Atitlán	14	Cerro de Oro	11	Noviembre	2023-11-11T00:00:00	2024-11-08T23:00:00	1	Precipitación	0
183688	7	Sololá	719	Santiago Atitlán	14	Cerro de Oro	11	Noviembre	2023-11-11T00:00:00	2024-11-08T23:00:00	8	Radiación solar	0
183689	7	Sololá	719	Santiago Atitlán	14	Cerro de Oro	11	Noviembre	2023-12-11T00:00:00	2024-11-08T00:00:00	2	Temperatura media	21.1
183690	7	Sololá	719	Santiago Atitlán	14	Cerro de Oro	11	Noviembre	2023-12-11T00:00:00	2024-11-08T00:00:00	4	Temperatura máxima	21.6
183691	7	Sololá	719	Santiago Atitlán	14	Cerro de Oro	11	Noviembre	2023-12-11T00:00:00	2024-11-08T00:00:00	3	Temperatura mínima	20.9
183692	7	Sololá	719	Santiago Atitlán	14	Cerro de Oro	11	Noviembre	2023-12-11T00:00:00	2024-11-08T00:00:00	5	Humedad	76
183693	7	Sololá	719	Santiago Atitlán	14	Cerro de Oro	11	Noviembre	2023-12-11T00:00:00	2024-11-08T00:00:00	6	Velocidad del viento	6.4
183694	7	Sololá	719	Santiago Atitlán	14	Cerro de Oro	11	Noviembre	2023-12-11T00:00:00	2024-11-08T00:00:00	7	Dirección del viento	6.44
183695	7	Sololá	719	Santiago Atitlán	14	Cerro de Oro	11	Noviembre	2023-12-11T00:00:00	2024-11-08T00:00:00	1	Precipitación	0
183696	7	Sololá	719	Santiago Atitlán	14	Cerro de Oro	11	Noviembre	2023-12-11T00:00:00	2024-11-08T00:00:00	8	Radiación solar	0
183697	7	Sololá	719	Santiago Atitlán	14	Cerro de Oro	11	Noviembre	2023-12-11T00:00:00	2024-11-08T01:00:00	2	Temperatura media	21.1
183698	7	Sololá	719	Santiago Atitlán	14	Cerro de Oro	11	Noviembre	2023-12-11T00:00:00	2024-11-08T01:00:00	4	Temperatura máxima	21.3
183699	7	Sololá	719	Santiago Atitlán	14	Cerro de Oro	11	Noviembre	2023-12-11T00:00:00	2024-11-08T01:00:00	3	Temperatura mínima	20.7
183700	7	Sololá	719	Santiago Atitlán	14	Cerro de Oro	11	Noviembre	2023-12-11T00:00:00	2024-11-08T01:00:00	5	Humedad	74
183701	7	Sololá	719	Santiago Atitlán	14	Cerro de Oro	11	Noviembre	2023-12-11T00:00:00	2024-11-08T01:00:00	6	Velocidad del viento	1.6
183702	7	Sololá	719	Santiago Atitlán	14	Cerro de Oro	11	Noviembre	2023-12-11T00:00:00	2024-11-08T01:00:00	7	Dirección del viento	1.61
183703	7	Sololá	719	Santiago Atitlán	14	Cerro de Oro	11	Noviembre	2023-12-11T00:00:00	2024-11-08T01:00:00	1	Precipitación	0
183704	7	Sololá	719	Santiago Atitlán	14	Cerro de Oro	11	Noviembre	2023-12-11T00:00:00	2024-11-08T01:00:00	8	Radiación solar	0
183705	7	Sololá	719	Santiago Atitlán	14	Cerro de Oro	11	Noviembre	2023-12-11T00:00:00	2024-11-08T02:00:00	2	Temperatura media	21.4
183706	7	Sololá	719	Santiago Atitlán	14	Cerro de Oro	11	Noviembre	2023-12-11T00:00:00	2024-11-08T02:00:00	4	Temperatura máxima	21.4
183707	7	Sololá	719	Santiago Atitlán	14	Cerro de Oro	11	Noviembre	2023-12-11T00:00:00	2024-11-08T02:00:00	3	Temperatura mínima	21.1
183708	7	Sololá	719	Santiago Atitlán	14	Cerro de Oro	11	Noviembre	2023-12-11T00:00:00	2024-11-08T02:00:00	5	Humedad	73
183709	7	Sololá	719	Santiago Atitlán	14	Cerro de Oro	11	Noviembre	2023-12-11T00:00:00	2024-11-08T02:00:00	6	Velocidad del viento	4.8
183710	7	Sololá	719	Santiago Atitlán	14	Cerro de Oro	11	Noviembre	2023-12-11T00:00:00	2024-11-08T02:00:00	7	Dirección del viento	4.83
183711	7	Sololá	719	Santiago Atitlán	14	Cerro de Oro	11	Noviembre	2023-12-11T00:00:00	2024-11-08T02:00:00	1	Precipitación	0
183712	7	Sololá	719	Santiago Atitlán	14	Cerro de Oro	11	Noviembre	2023-12-11T00:00:00	2024-11-08T02:00:00	8	Radiación solar	0
183713	7	Sololá	719	Santiago Atitlán	14	Cerro de Oro	11	Noviembre	2023-12-11T00:00:00	2024-11-08T03:00:00	2	Temperatura media	21.3
183714	7	Sololá	719	Santiago Atitlán	14	Cerro de Oro	11	Noviembre	2023-12-11T00:00:00	2024-11-08T03:00:00	4	Temperatura máxima	21.7
183715	7	Sololá	719	Santiago Atitlán	14	Cerro de Oro	11	Noviembre	2023-12-11T00:00:00	2024-11-08T03:00:00	3	Temperatura mínima	21.3
183716	7	Sololá	719	Santiago Atitlán	14	Cerro de Oro	11	Noviembre	2023-12-11T00:00:00	2024-11-08T03:00:00	5	Humedad	74
183717	7	Sololá	719	Santiago Atitlán	14	Cerro de Oro	11	Noviembre	2023-12-11T00:00:00	2024-11-08T03:00:00	6	Velocidad del viento	8
183718	7	Sololá	719	Santiago Atitlán	14	Cerro de Oro	11	Noviembre	2023-12-11T00:00:00	2024-11-08T03:00:00	7	Dirección del viento	8.05
183719	7	Sololá	719	Santiago Atitlán	14	Cerro de Oro	11	Noviembre	2023-12-11T00:00:00	2024-11-08T03:00:00	1	Precipitación	0
183720	7	Sololá	719	Santiago Atitlán	14	Cerro de Oro	11	Noviembre	2023-12-11T00:00:00	2024-11-08T03:00:00	8	Radiación solar	0
183721	7	Sololá	719	Santiago Atitlán	14	Cerro de Oro	11	Noviembre	2023-12-11T00:00:00	2024-11-08T04:00:00	2	Temperatura media	21.2
183722	7	Sololá	719	Santiago Atitlán	14	Cerro de Oro	11	Noviembre	2023-12-11T00:00:00	2024-11-08T04:00:00	4	Temperatura máxima	21.3
183723	7	Sololá	719	Santiago Atitlán	14	Cerro de Oro	11	Noviembre	2023-12-11T00:00:00	2024-11-08T04:00:00	3	Temperatura mínima	20.6
183724	7	Sololá	719	Santiago Atitlán	14	Cerro de Oro	11	Noviembre	2023-12-11T00:00:00	2024-11-08T04:00:00	5	Humedad	74
183725	7	Sololá	719	Santiago Atitlán	14	Cerro de Oro	11	Noviembre	2023-12-11T00:00:00	2024-11-08T04:00:00	6	Velocidad del viento	4.8
183726	7	Sololá	719	Santiago Atitlán	14	Cerro de Oro	11	Noviembre	2023-12-11T00:00:00	2024-11-08T04:00:00	7	Dirección del viento	4.83
183727	7	Sololá	719	Santiago Atitlán	14	Cerro de Oro	11	Noviembre	2023-12-11T00:00:00	2024-11-08T04:00:00	1	Precipitación	0
183728	7	Sololá	719	Santiago Atitlán	14	Cerro de Oro	11	Noviembre	2023-12-11T00:00:00	2024-11-08T04:00:00	8	Radiación solar	0
183729	7	Sololá	719	Santiago Atitlán	14	Cerro de Oro	11	Noviembre	2023-12-11T00:00:00	2024-11-08T05:00:00	2	Temperatura media	20.9
183730	7	Sololá	719	Santiago Atitlán	14	Cerro de Oro	11	Noviembre	2023-12-11T00:00:00	2024-11-08T05:00:00	4	Temperatura máxima	21.2
183731	7	Sololá	719	Santiago Atitlán	14	Cerro de Oro	11	Noviembre	2023-12-11T00:00:00	2024-11-08T05:00:00	3	Temperatura mínima	20.8
183732	7	Sololá	719	Santiago Atitlán	14	Cerro de Oro	11	Noviembre	2023-12-11T00:00:00	2024-11-08T05:00:00	5	Humedad	72
183733	7	Sololá	719	Santiago Atitlán	14	Cerro de Oro	11	Noviembre	2023-12-11T00:00:00	2024-11-08T05:00:00	6	Velocidad del viento	6.4
183734	7	Sololá	719	Santiago Atitlán	14	Cerro de Oro	11	Noviembre	2023-12-11T00:00:00	2024-11-08T05:00:00	7	Dirección del viento	6.44
183735	7	Sololá	719	Santiago Atitlán	14	Cerro de Oro	11	Noviembre	2023-12-11T00:00:00	2024-11-08T05:00:00	1	Precipitación	0
183736	7	Sololá	719	Santiago Atitlán	14	Cerro de Oro	11	Noviembre	2023-12-11T00:00:00	2024-11-08T05:00:00	8	Radiación solar	0
183737	7	Sololá	719	Santiago Atitlán	14	Cerro de Oro	11	Noviembre	2023-12-11T00:00:00	2024-11-08T06:00:00	2	Temperatura media	20.2
183738	7	Sololá	719	Santiago Atitlán	14	Cerro de Oro	11	Noviembre	2023-12-11T00:00:00	2024-11-08T06:00:00	4	Temperatura máxima	20.9
183739	7	Sololá	719	Santiago Atitlán	14	Cerro de Oro	11	Noviembre	2023-12-11T00:00:00	2024-11-08T06:00:00	3	Temperatura mínima	19.4
183740	7	Sololá	719	Santiago Atitlán	14	Cerro de Oro	11	Noviembre	2023-12-11T00:00:00	2024-11-08T06:00:00	5	Humedad	76
183741	7	Sololá	719	Santiago Atitlán	14	Cerro de Oro	11	Noviembre	2023-12-11T00:00:00	2024-11-08T06:00:00	6	Velocidad del viento	0
183742	7	Sololá	719	Santiago Atitlán	14	Cerro de Oro	11	Noviembre	2023-12-11T00:00:00	2024-11-08T06:00:00	7	Dirección del viento	0
183743	7	Sololá	719	Santiago Atitlán	14	Cerro de Oro	11	Noviembre	2023-12-11T00:00:00	2024-11-08T06:00:00	1	Precipitación	0
183744	7	Sololá	719	Santiago Atitlán	14	Cerro de Oro	11	Noviembre	2023-12-11T00:00:00	2024-11-08T06:00:00	8	Radiación solar	35
183745	7	Sololá	719	Santiago Atitlán	14	Cerro de Oro	11	Noviembre	2023-12-11T00:00:00	2024-11-08T07:00:00	2	Temperatura media	23.1
183746	7	Sololá	719	Santiago Atitlán	14	Cerro de Oro	11	Noviembre	2023-12-11T00:00:00	2024-11-08T07:00:00	4	Temperatura máxima	23.1
183747	7	Sololá	719	Santiago Atitlán	14	Cerro de Oro	11	Noviembre	2023-12-11T00:00:00	2024-11-08T07:00:00	3	Temperatura mínima	20.3
183748	7	Sololá	719	Santiago Atitlán	14	Cerro de Oro	11	Noviembre	2023-12-11T00:00:00	2024-11-08T07:00:00	5	Humedad	67
183749	7	Sololá	719	Santiago Atitlán	14	Cerro de Oro	11	Noviembre	2023-12-11T00:00:00	2024-11-08T07:00:00	6	Velocidad del viento	1.6
183750	7	Sololá	719	Santiago Atitlán	14	Cerro de Oro	11	Noviembre	2023-12-11T00:00:00	2024-11-08T07:00:00	7	Dirección del viento	1.61
183751	7	Sololá	719	Santiago Atitlán	14	Cerro de Oro	11	Noviembre	2023-12-11T00:00:00	2024-11-08T07:00:00	1	Precipitación	0
183752	7	Sololá	719	Santiago Atitlán	14	Cerro de Oro	11	Noviembre	2023-12-11T00:00:00	2024-11-08T07:00:00	8	Radiación solar	211
183753	7	Sololá	719	Santiago Atitlán	14	Cerro de Oro	11	Noviembre	2023-12-11T00:00:00	2024-11-08T08:00:00	2	Temperatura media	23.5
183754	7	Sololá	719	Santiago Atitlán	14	Cerro de Oro	11	Noviembre	2023-12-11T00:00:00	2024-11-08T08:00:00	4	Temperatura máxima	24.1
183755	7	Sololá	719	Santiago Atitlán	14	Cerro de Oro	11	Noviembre	2023-12-11T00:00:00	2024-11-08T08:00:00	3	Temperatura mínima	22.9
183756	7	Sololá	719	Santiago Atitlán	14	Cerro de Oro	11	Noviembre	2023-12-11T00:00:00	2024-11-08T08:00:00	5	Humedad	63
183757	7	Sololá	719	Santiago Atitlán	14	Cerro de Oro	11	Noviembre	2023-12-11T00:00:00	2024-11-08T08:00:00	6	Velocidad del viento	4.8
183758	7	Sololá	719	Santiago Atitlán	14	Cerro de Oro	11	Noviembre	2023-12-11T00:00:00	2024-11-08T08:00:00	7	Dirección del viento	4.83
183759	7	Sololá	719	Santiago Atitlán	14	Cerro de Oro	11	Noviembre	2023-12-11T00:00:00	2024-11-08T08:00:00	1	Precipitación	0
183760	7	Sololá	719	Santiago Atitlán	14	Cerro de Oro	11	Noviembre	2023-12-11T00:00:00	2024-11-08T08:00:00	8	Radiación solar	362
183761	7	Sololá	719	Santiago Atitlán	14	Cerro de Oro	11	Noviembre	2023-12-11T00:00:00	2024-11-08T09:00:00	2	Temperatura media	24.4
183762	7	Sololá	719	Santiago Atitlán	14	Cerro de Oro	11	Noviembre	2023-12-11T00:00:00	2024-11-08T09:00:00	4	Temperatura máxima	24.4
183763	7	Sololá	719	Santiago Atitlán	14	Cerro de Oro	11	Noviembre	2023-12-11T00:00:00	2024-11-08T09:00:00	3	Temperatura mínima	23.5
183764	7	Sololá	719	Santiago Atitlán	14	Cerro de Oro	11	Noviembre	2023-12-11T00:00:00	2024-11-08T09:00:00	5	Humedad	61
183765	7	Sololá	719	Santiago Atitlán	14	Cerro de Oro	11	Noviembre	2023-12-11T00:00:00	2024-11-08T09:00:00	6	Velocidad del viento	6.4
183766	7	Sololá	719	Santiago Atitlán	14	Cerro de Oro	11	Noviembre	2023-12-11T00:00:00	2024-11-08T09:00:00	7	Dirección del viento	6.44
183767	7	Sololá	719	Santiago Atitlán	14	Cerro de Oro	11	Noviembre	2023-12-11T00:00:00	2024-11-08T09:00:00	1	Precipitación	0
183768	7	Sololá	719	Santiago Atitlán	14	Cerro de Oro	11	Noviembre	2023-12-11T00:00:00	2024-11-08T09:00:00	8	Radiación solar	321
183769	7	Sololá	719	Santiago Atitlán	14	Cerro de Oro	11	Noviembre	2023-12-11T00:00:00	2024-11-08T10:00:00	2	Temperatura media	24.7
183770	7	Sololá	719	Santiago Atitlán	14	Cerro de Oro	11	Noviembre	2023-12-11T00:00:00	2024-11-08T10:00:00	4	Temperatura máxima	25.2
183771	7	Sololá	719	Santiago Atitlán	14	Cerro de Oro	11	Noviembre	2023-12-11T00:00:00	2024-11-08T10:00:00	3	Temperatura mínima	24.3
183772	7	Sololá	719	Santiago Atitlán	14	Cerro de Oro	11	Noviembre	2023-12-11T00:00:00	2024-11-08T10:00:00	5	Humedad	59
183773	7	Sololá	719	Santiago Atitlán	14	Cerro de Oro	11	Noviembre	2023-12-11T00:00:00	2024-11-08T10:00:00	6	Velocidad del viento	4.8
183774	7	Sololá	719	Santiago Atitlán	14	Cerro de Oro	11	Noviembre	2023-12-11T00:00:00	2024-11-08T10:00:00	7	Dirección del viento	4.83
183775	7	Sololá	719	Santiago Atitlán	14	Cerro de Oro	11	Noviembre	2023-12-11T00:00:00	2024-11-08T10:00:00	1	Precipitación	0
183776	7	Sololá	719	Santiago Atitlán	14	Cerro de Oro	11	Noviembre	2023-12-11T00:00:00	2024-11-08T10:00:00	8	Radiación solar	232
183777	7	Sololá	719	Santiago Atitlán	14	Cerro de Oro	11	Noviembre	2023-12-11T00:00:00	2024-11-08T11:00:00	2	Temperatura media	26.9
183778	7	Sololá	719	Santiago Atitlán	14	Cerro de Oro	11	Noviembre	2023-12-11T00:00:00	2024-11-08T11:00:00	4	Temperatura máxima	26.9
183779	7	Sololá	719	Santiago Atitlán	14	Cerro de Oro	11	Noviembre	2023-12-11T00:00:00	2024-11-08T11:00:00	3	Temperatura mínima	24.6
183780	7	Sololá	719	Santiago Atitlán	14	Cerro de Oro	11	Noviembre	2023-12-11T00:00:00	2024-11-08T11:00:00	5	Humedad	52
183781	7	Sololá	719	Santiago Atitlán	14	Cerro de Oro	11	Noviembre	2023-12-11T00:00:00	2024-11-08T11:00:00	6	Velocidad del viento	8
183782	7	Sololá	719	Santiago Atitlán	14	Cerro de Oro	11	Noviembre	2023-12-11T00:00:00	2024-11-08T11:00:00	7	Dirección del viento	8.05
183783	7	Sololá	719	Santiago Atitlán	14	Cerro de Oro	11	Noviembre	2023-12-11T00:00:00	2024-11-08T11:00:00	1	Precipitación	0
183784	7	Sololá	719	Santiago Atitlán	14	Cerro de Oro	11	Noviembre	2023-12-11T00:00:00	2024-11-08T11:00:00	8	Radiación solar	675
183785	7	Sololá	719	Santiago Atitlán	14	Cerro de Oro	11	Noviembre	2023-12-11T00:00:00	2024-11-08T12:00:00	2	Temperatura media	26.5
183786	7	Sololá	719	Santiago Atitlán	14	Cerro de Oro	11	Noviembre	2023-12-11T00:00:00	2024-11-08T12:00:00	4	Temperatura máxima	27.2
183787	7	Sololá	719	Santiago Atitlán	14	Cerro de Oro	11	Noviembre	2023-12-11T00:00:00	2024-11-08T12:00:00	3	Temperatura mínima	26.2
183788	7	Sololá	719	Santiago Atitlán	14	Cerro de Oro	11	Noviembre	2023-12-11T00:00:00	2024-11-08T12:00:00	5	Humedad	52
183789	7	Sololá	719	Santiago Atitlán	14	Cerro de Oro	11	Noviembre	2023-12-11T00:00:00	2024-11-08T12:00:00	6	Velocidad del viento	8
183790	7	Sololá	719	Santiago Atitlán	14	Cerro de Oro	11	Noviembre	2023-12-11T00:00:00	2024-11-08T12:00:00	7	Dirección del viento	8.05
183791	7	Sololá	719	Santiago Atitlán	14	Cerro de Oro	11	Noviembre	2023-12-11T00:00:00	2024-11-08T12:00:00	1	Precipitación	0
183792	7	Sololá	719	Santiago Atitlán	14	Cerro de Oro	11	Noviembre	2023-12-11T00:00:00	2024-11-08T12:00:00	8	Radiación solar	841
183793	7	Sololá	719	Santiago Atitlán	14	Cerro de Oro	11	Noviembre	2023-12-11T00:00:00	2024-11-08T13:00:00	2	Temperatura media	26.7
183794	7	Sololá	719	Santiago Atitlán	14	Cerro de Oro	11	Noviembre	2023-12-11T00:00:00	2024-11-08T13:00:00	4	Temperatura máxima	27.5
183795	7	Sololá	719	Santiago Atitlán	14	Cerro de Oro	11	Noviembre	2023-12-11T00:00:00	2024-11-08T13:00:00	3	Temperatura mínima	26.1
183796	7	Sololá	719	Santiago Atitlán	14	Cerro de Oro	11	Noviembre	2023-12-11T00:00:00	2024-11-08T13:00:00	5	Humedad	51
183797	7	Sololá	719	Santiago Atitlán	14	Cerro de Oro	11	Noviembre	2023-12-11T00:00:00	2024-11-08T13:00:00	6	Velocidad del viento	8
183798	7	Sololá	719	Santiago Atitlán	14	Cerro de Oro	11	Noviembre	2023-12-11T00:00:00	2024-11-08T13:00:00	7	Dirección del viento	8.05
183799	7	Sololá	719	Santiago Atitlán	14	Cerro de Oro	11	Noviembre	2023-12-11T00:00:00	2024-11-08T13:00:00	1	Precipitación	0
183800	7	Sololá	719	Santiago Atitlán	14	Cerro de Oro	11	Noviembre	2023-12-11T00:00:00	2024-11-08T13:00:00	8	Radiación solar	645
183801	7	Sololá	719	Santiago Atitlán	14	Cerro de Oro	11	Noviembre	2023-12-11T00:00:00	2024-11-08T14:00:00	2	Temperatura media	26.1
183802	7	Sololá	719	Santiago Atitlán	14	Cerro de Oro	11	Noviembre	2023-12-11T00:00:00	2024-11-08T14:00:00	4	Temperatura máxima	27
183803	7	Sololá	719	Santiago Atitlán	14	Cerro de Oro	11	Noviembre	2023-12-11T00:00:00	2024-11-08T14:00:00	3	Temperatura mínima	25.8
183804	7	Sololá	719	Santiago Atitlán	14	Cerro de Oro	11	Noviembre	2023-12-11T00:00:00	2024-11-08T14:00:00	5	Humedad	54
183805	7	Sololá	719	Santiago Atitlán	14	Cerro de Oro	11	Noviembre	2023-12-11T00:00:00	2024-11-08T14:00:00	6	Velocidad del viento	6.4
183806	7	Sololá	719	Santiago Atitlán	14	Cerro de Oro	11	Noviembre	2023-12-11T00:00:00	2024-11-08T14:00:00	7	Dirección del viento	6.44
183807	7	Sololá	719	Santiago Atitlán	14	Cerro de Oro	11	Noviembre	2023-12-11T00:00:00	2024-11-08T14:00:00	1	Precipitación	0
183808	7	Sololá	719	Santiago Atitlán	14	Cerro de Oro	11	Noviembre	2023-12-11T00:00:00	2024-11-08T14:00:00	8	Radiación solar	359
183809	7	Sololá	719	Santiago Atitlán	14	Cerro de Oro	11	Noviembre	2023-12-11T00:00:00	2024-11-08T15:00:00	2	Temperatura media	24.7
183810	7	Sololá	719	Santiago Atitlán	14	Cerro de Oro	11	Noviembre	2023-12-11T00:00:00	2024-11-08T15:00:00	4	Temperatura máxima	27.1
183811	7	Sololá	719	Santiago Atitlán	14	Cerro de Oro	11	Noviembre	2023-12-11T00:00:00	2024-11-08T15:00:00	3	Temperatura mínima	24.7
183812	7	Sololá	719	Santiago Atitlán	14	Cerro de Oro	11	Noviembre	2023-12-11T00:00:00	2024-11-08T15:00:00	5	Humedad	61
183813	7	Sololá	719	Santiago Atitlán	14	Cerro de Oro	11	Noviembre	2023-12-11T00:00:00	2024-11-08T15:00:00	6	Velocidad del viento	8
183814	7	Sololá	719	Santiago Atitlán	14	Cerro de Oro	11	Noviembre	2023-12-11T00:00:00	2024-11-08T15:00:00	7	Dirección del viento	8.05
183815	7	Sololá	719	Santiago Atitlán	14	Cerro de Oro	11	Noviembre	2023-12-11T00:00:00	2024-11-08T15:00:00	1	Precipitación	0
183816	7	Sololá	719	Santiago Atitlán	14	Cerro de Oro	11	Noviembre	2023-12-11T00:00:00	2024-11-08T15:00:00	8	Radiación solar	341
183817	7	Sololá	719	Santiago Atitlán	14	Cerro de Oro	11	Noviembre	2023-12-11T00:00:00	2024-11-08T16:00:00	2	Temperatura media	24.5
183818	7	Sololá	719	Santiago Atitlán	14	Cerro de Oro	11	Noviembre	2023-12-11T00:00:00	2024-11-08T16:00:00	4	Temperatura máxima	25.3
183819	7	Sololá	719	Santiago Atitlán	14	Cerro de Oro	11	Noviembre	2023-12-11T00:00:00	2024-11-08T16:00:00	3	Temperatura mínima	24.4
183820	7	Sololá	719	Santiago Atitlán	14	Cerro de Oro	11	Noviembre	2023-12-11T00:00:00	2024-11-08T16:00:00	5	Humedad	57
183821	7	Sololá	719	Santiago Atitlán	14	Cerro de Oro	11	Noviembre	2023-12-11T00:00:00	2024-11-08T16:00:00	6	Velocidad del viento	8
183822	7	Sololá	719	Santiago Atitlán	14	Cerro de Oro	11	Noviembre	2023-12-11T00:00:00	2024-11-08T16:00:00	7	Dirección del viento	8.05
183823	7	Sololá	719	Santiago Atitlán	14	Cerro de Oro	11	Noviembre	2023-12-11T00:00:00	2024-11-08T16:00:00	1	Precipitación	0
183824	7	Sololá	719	Santiago Atitlán	14	Cerro de Oro	11	Noviembre	2023-12-11T00:00:00	2024-11-08T16:00:00	8	Radiación solar	162
183825	7	Sololá	719	Santiago Atitlán	14	Cerro de Oro	11	Noviembre	2023-12-11T00:00:00	2024-11-08T17:00:00	2	Temperatura media	22.8
183826	7	Sololá	719	Santiago Atitlán	14	Cerro de Oro	11	Noviembre	2023-12-11T00:00:00	2024-11-08T17:00:00	4	Temperatura máxima	24.5
183827	7	Sololá	719	Santiago Atitlán	14	Cerro de Oro	11	Noviembre	2023-12-11T00:00:00	2024-11-08T17:00:00	3	Temperatura mínima	22.7
183828	7	Sololá	719	Santiago Atitlán	14	Cerro de Oro	11	Noviembre	2023-12-11T00:00:00	2024-11-08T17:00:00	5	Humedad	65
183829	7	Sololá	719	Santiago Atitlán	14	Cerro de Oro	11	Noviembre	2023-12-11T00:00:00	2024-11-08T17:00:00	6	Velocidad del viento	4.8
183830	7	Sololá	719	Santiago Atitlán	14	Cerro de Oro	11	Noviembre	2023-12-11T00:00:00	2024-11-08T17:00:00	7	Dirección del viento	4.83
183831	7	Sololá	719	Santiago Atitlán	14	Cerro de Oro	11	Noviembre	2023-12-11T00:00:00	2024-11-08T17:00:00	1	Precipitación	0
183832	7	Sololá	719	Santiago Atitlán	14	Cerro de Oro	11	Noviembre	2023-12-11T00:00:00	2024-11-08T17:00:00	8	Radiación solar	8
183833	7	Sololá	719	Santiago Atitlán	14	Cerro de Oro	11	Noviembre	2023-12-11T00:00:00	2024-11-08T18:00:00	2	Temperatura media	22.2
183834	7	Sololá	719	Santiago Atitlán	14	Cerro de Oro	11	Noviembre	2023-12-11T00:00:00	2024-11-08T18:00:00	4	Temperatura máxima	22.8
183835	7	Sololá	719	Santiago Atitlán	14	Cerro de Oro	11	Noviembre	2023-12-11T00:00:00	2024-11-08T18:00:00	3	Temperatura mínima	22.2
183836	7	Sololá	719	Santiago Atitlán	14	Cerro de Oro	11	Noviembre	2023-12-11T00:00:00	2024-11-08T18:00:00	5	Humedad	67
183837	7	Sololá	719	Santiago Atitlán	14	Cerro de Oro	11	Noviembre	2023-12-11T00:00:00	2024-11-08T18:00:00	6	Velocidad del viento	11.3
183838	7	Sololá	719	Santiago Atitlán	14	Cerro de Oro	11	Noviembre	2023-12-11T00:00:00	2024-11-08T18:00:00	7	Dirección del viento	11.27
183839	7	Sololá	719	Santiago Atitlán	14	Cerro de Oro	11	Noviembre	2023-12-11T00:00:00	2024-11-08T18:00:00	1	Precipitación	0
183840	7	Sololá	719	Santiago Atitlán	14	Cerro de Oro	11	Noviembre	2023-12-11T00:00:00	2024-11-08T18:00:00	8	Radiación solar	0
183841	7	Sololá	719	Santiago Atitlán	14	Cerro de Oro	11	Noviembre	2023-12-11T00:00:00	2024-11-08T19:00:00	2	Temperatura media	21.3
183842	7	Sololá	719	Santiago Atitlán	14	Cerro de Oro	11	Noviembre	2023-12-11T00:00:00	2024-11-08T19:00:00	4	Temperatura máxima	22.3
183843	7	Sololá	719	Santiago Atitlán	14	Cerro de Oro	11	Noviembre	2023-12-11T00:00:00	2024-11-08T19:00:00	3	Temperatura mínima	21.3
183844	7	Sololá	719	Santiago Atitlán	14	Cerro de Oro	11	Noviembre	2023-12-11T00:00:00	2024-11-08T19:00:00	5	Humedad	67
183845	7	Sololá	719	Santiago Atitlán	14	Cerro de Oro	11	Noviembre	2023-12-11T00:00:00	2024-11-08T19:00:00	6	Velocidad del viento	8
183846	7	Sololá	719	Santiago Atitlán	14	Cerro de Oro	11	Noviembre	2023-12-11T00:00:00	2024-11-08T19:00:00	7	Dirección del viento	8.05
183847	7	Sololá	719	Santiago Atitlán	14	Cerro de Oro	11	Noviembre	2023-12-11T00:00:00	2024-11-08T19:00:00	1	Precipitación	0
183848	7	Sololá	719	Santiago Atitlán	14	Cerro de Oro	11	Noviembre	2023-12-11T00:00:00	2024-11-08T19:00:00	8	Radiación solar	0
183849	7	Sololá	719	Santiago Atitlán	14	Cerro de Oro	11	Noviembre	2023-12-11T00:00:00	2024-11-08T20:00:00	2	Temperatura media	21.1
183850	7	Sololá	719	Santiago Atitlán	14	Cerro de Oro	11	Noviembre	2023-12-11T00:00:00	2024-11-08T20:00:00	4	Temperatura máxima	21.4
183851	7	Sololá	719	Santiago Atitlán	14	Cerro de Oro	11	Noviembre	2023-12-11T00:00:00	2024-11-08T20:00:00	3	Temperatura mínima	21.1
183852	7	Sololá	719	Santiago Atitlán	14	Cerro de Oro	11	Noviembre	2023-12-11T00:00:00	2024-11-08T20:00:00	5	Humedad	72
183853	7	Sololá	719	Santiago Atitlán	14	Cerro de Oro	11	Noviembre	2023-12-11T00:00:00	2024-11-08T20:00:00	6	Velocidad del viento	8
183854	7	Sololá	719	Santiago Atitlán	14	Cerro de Oro	11	Noviembre	2023-12-11T00:00:00	2024-11-08T20:00:00	7	Dirección del viento	8.05
183855	7	Sololá	719	Santiago Atitlán	14	Cerro de Oro	11	Noviembre	2023-12-11T00:00:00	2024-11-08T20:00:00	1	Precipitación	0
183856	7	Sololá	719	Santiago Atitlán	14	Cerro de Oro	11	Noviembre	2023-12-11T00:00:00	2024-11-08T20:00:00	8	Radiación solar	0
183857	7	Sololá	719	Santiago Atitlán	14	Cerro de Oro	11	Noviembre	2023-12-11T00:00:00	2024-11-08T21:00:00	2	Temperatura media	20.9
183858	7	Sololá	719	Santiago Atitlán	14	Cerro de Oro	11	Noviembre	2023-12-11T00:00:00	2024-11-08T21:00:00	4	Temperatura máxima	21.1
183859	7	Sololá	719	Santiago Atitlán	14	Cerro de Oro	11	Noviembre	2023-12-11T00:00:00	2024-11-08T21:00:00	3	Temperatura mínima	20.8
183860	7	Sololá	719	Santiago Atitlán	14	Cerro de Oro	11	Noviembre	2023-12-11T00:00:00	2024-11-08T21:00:00	5	Humedad	72
183861	7	Sololá	719	Santiago Atitlán	14	Cerro de Oro	11	Noviembre	2023-12-11T00:00:00	2024-11-08T21:00:00	6	Velocidad del viento	4.8
183862	7	Sololá	719	Santiago Atitlán	14	Cerro de Oro	11	Noviembre	2023-12-11T00:00:00	2024-11-08T21:00:00	7	Dirección del viento	4.83
183863	7	Sololá	719	Santiago Atitlán	14	Cerro de Oro	11	Noviembre	2023-12-11T00:00:00	2024-11-08T21:00:00	1	Precipitación	0
183864	7	Sololá	719	Santiago Atitlán	14	Cerro de Oro	11	Noviembre	2023-12-11T00:00:00	2024-11-08T21:00:00	8	Radiación solar	0
183865	7	Sololá	719	Santiago Atitlán	14	Cerro de Oro	11	Noviembre	2023-12-11T00:00:00	2024-11-08T22:00:00	2	Temperatura media	20.8
183866	7	Sololá	719	Santiago Atitlán	14	Cerro de Oro	11	Noviembre	2023-12-11T00:00:00	2024-11-08T22:00:00	4	Temperatura máxima	21.1
183867	7	Sololá	719	Santiago Atitlán	14	Cerro de Oro	11	Noviembre	2023-12-11T00:00:00	2024-11-08T22:00:00	3	Temperatura mínima	20.7
183868	7	Sololá	719	Santiago Atitlán	14	Cerro de Oro	11	Noviembre	2023-12-11T00:00:00	2024-11-08T22:00:00	5	Humedad	72
183869	7	Sololá	719	Santiago Atitlán	14	Cerro de Oro	11	Noviembre	2023-12-11T00:00:00	2024-11-08T22:00:00	6	Velocidad del viento	6.4
183870	7	Sololá	719	Santiago Atitlán	14	Cerro de Oro	11	Noviembre	2023-12-11T00:00:00	2024-11-08T22:00:00	7	Dirección del viento	6.44
183871	7	Sololá	719	Santiago Atitlán	14	Cerro de Oro	11	Noviembre	2023-12-11T00:00:00	2024-11-08T22:00:00	1	Precipitación	0
183872	7	Sololá	719	Santiago Atitlán	14	Cerro de Oro	11	Noviembre	2023-12-11T00:00:00	2024-11-08T22:00:00	8	Radiación solar	0
183873	7	Sololá	719	Santiago Atitlán	14	Cerro de Oro	11	Noviembre	2023-12-11T00:00:00	2024-11-08T23:00:00	2	Temperatura media	20.8
183874	7	Sololá	719	Santiago Atitlán	14	Cerro de Oro	11	Noviembre	2023-12-11T00:00:00	2024-11-08T23:00:00	4	Temperatura máxima	21
183875	7	Sololá	719	Santiago Atitlán	14	Cerro de Oro	11	Noviembre	2023-12-11T00:00:00	2024-11-08T23:00:00	3	Temperatura mínima	20.8
183876	7	Sololá	719	Santiago Atitlán	14	Cerro de Oro	11	Noviembre	2023-12-11T00:00:00	2024-11-08T23:00:00	5	Humedad	71
183877	7	Sololá	719	Santiago Atitlán	14	Cerro de Oro	11	Noviembre	2023-12-11T00:00:00	2024-11-08T23:00:00	6	Velocidad del viento	3.2
183878	7	Sololá	719	Santiago Atitlán	14	Cerro de Oro	11	Noviembre	2023-12-11T00:00:00	2024-11-08T23:00:00	7	Dirección del viento	3.22
183879	7	Sololá	719	Santiago Atitlán	14	Cerro de Oro	11	Noviembre	2023-12-11T00:00:00	2024-11-08T23:00:00	1	Precipitación	0
183880	7	Sololá	719	Santiago Atitlán	14	Cerro de Oro	11	Noviembre	2023-12-11T00:00:00	2024-11-08T23:00:00	8	Radiación solar	0
183881	7	Sololá	719	Santiago Atitlán	14	Cerro de Oro	11	Noviembre	2023-11-13T00:00:00	2024-11-08T00:00:00	2	Temperatura media	20.6
183882	7	Sololá	719	Santiago Atitlán	14	Cerro de Oro	11	Noviembre	2023-11-13T00:00:00	2024-11-08T00:00:00	4	Temperatura máxima	20.8
183883	7	Sololá	719	Santiago Atitlán	14	Cerro de Oro	11	Noviembre	2023-11-13T00:00:00	2024-11-08T00:00:00	3	Temperatura mínima	20.5
183884	7	Sololá	719	Santiago Atitlán	14	Cerro de Oro	11	Noviembre	2023-11-13T00:00:00	2024-11-08T00:00:00	5	Humedad	71
183885	7	Sololá	719	Santiago Atitlán	14	Cerro de Oro	11	Noviembre	2023-11-13T00:00:00	2024-11-08T00:00:00	6	Velocidad del viento	6.4
183886	7	Sololá	719	Santiago Atitlán	14	Cerro de Oro	11	Noviembre	2023-11-13T00:00:00	2024-11-08T00:00:00	7	Dirección del viento	6.44
183887	7	Sololá	719	Santiago Atitlán	14	Cerro de Oro	11	Noviembre	2023-11-13T00:00:00	2024-11-08T00:00:00	1	Precipitación	0
183888	7	Sololá	719	Santiago Atitlán	14	Cerro de Oro	11	Noviembre	2023-11-13T00:00:00	2024-11-08T00:00:00	8	Radiación solar	0
183889	7	Sololá	719	Santiago Atitlán	14	Cerro de Oro	11	Noviembre	2023-11-13T00:00:00	2024-11-08T01:00:00	2	Temperatura media	20.3
183890	7	Sololá	719	Santiago Atitlán	14	Cerro de Oro	11	Noviembre	2023-11-13T00:00:00	2024-11-08T01:00:00	4	Temperatura máxima	20.7
183891	7	Sololá	719	Santiago Atitlán	14	Cerro de Oro	11	Noviembre	2023-11-13T00:00:00	2024-11-08T01:00:00	3	Temperatura mínima	20.2
183892	7	Sololá	719	Santiago Atitlán	14	Cerro de Oro	11	Noviembre	2023-11-13T00:00:00	2024-11-08T01:00:00	5	Humedad	72
183893	7	Sololá	719	Santiago Atitlán	14	Cerro de Oro	11	Noviembre	2023-11-13T00:00:00	2024-11-08T01:00:00	6	Velocidad del viento	9.7
183894	7	Sololá	719	Santiago Atitlán	14	Cerro de Oro	11	Noviembre	2023-11-13T00:00:00	2024-11-08T01:00:00	7	Dirección del viento	9.66
183895	7	Sololá	719	Santiago Atitlán	14	Cerro de Oro	11	Noviembre	2023-11-13T00:00:00	2024-11-08T01:00:00	1	Precipitación	0
183896	7	Sololá	719	Santiago Atitlán	14	Cerro de Oro	11	Noviembre	2023-11-13T00:00:00	2024-11-08T01:00:00	8	Radiación solar	0
183897	7	Sololá	719	Santiago Atitlán	14	Cerro de Oro	11	Noviembre	2023-11-13T00:00:00	2024-11-08T02:00:00	2	Temperatura media	19.8
183898	7	Sololá	719	Santiago Atitlán	14	Cerro de Oro	11	Noviembre	2023-11-13T00:00:00	2024-11-08T02:00:00	4	Temperatura máxima	20.3
183899	7	Sololá	719	Santiago Atitlán	14	Cerro de Oro	11	Noviembre	2023-11-13T00:00:00	2024-11-08T02:00:00	3	Temperatura mínima	19.8
183900	7	Sololá	719	Santiago Atitlán	14	Cerro de Oro	11	Noviembre	2023-11-13T00:00:00	2024-11-08T02:00:00	5	Humedad	70
183901	7	Sololá	719	Santiago Atitlán	14	Cerro de Oro	11	Noviembre	2023-11-13T00:00:00	2024-11-08T02:00:00	6	Velocidad del viento	4.8
183902	7	Sololá	719	Santiago Atitlán	14	Cerro de Oro	11	Noviembre	2023-11-13T00:00:00	2024-11-08T02:00:00	7	Dirección del viento	4.83
183903	7	Sololá	719	Santiago Atitlán	14	Cerro de Oro	11	Noviembre	2023-11-13T00:00:00	2024-11-08T02:00:00	1	Precipitación	0
183904	7	Sololá	719	Santiago Atitlán	14	Cerro de Oro	11	Noviembre	2023-11-13T00:00:00	2024-11-08T02:00:00	8	Radiación solar	0
183905	7	Sololá	719	Santiago Atitlán	14	Cerro de Oro	11	Noviembre	2023-11-13T00:00:00	2024-11-08T03:00:00	2	Temperatura media	19.6
183906	7	Sololá	719	Santiago Atitlán	14	Cerro de Oro	11	Noviembre	2023-11-13T00:00:00	2024-11-08T03:00:00	4	Temperatura máxima	19.8
183907	7	Sololá	719	Santiago Atitlán	14	Cerro de Oro	11	Noviembre	2023-11-13T00:00:00	2024-11-08T03:00:00	3	Temperatura mínima	19.6
183908	7	Sololá	719	Santiago Atitlán	14	Cerro de Oro	11	Noviembre	2023-11-13T00:00:00	2024-11-08T03:00:00	5	Humedad	70
183909	7	Sololá	719	Santiago Atitlán	14	Cerro de Oro	11	Noviembre	2023-11-13T00:00:00	2024-11-08T03:00:00	6	Velocidad del viento	4.8
183910	7	Sololá	719	Santiago Atitlán	14	Cerro de Oro	11	Noviembre	2023-11-13T00:00:00	2024-11-08T03:00:00	7	Dirección del viento	4.83
183911	7	Sololá	719	Santiago Atitlán	14	Cerro de Oro	11	Noviembre	2023-11-13T00:00:00	2024-11-08T03:00:00	1	Precipitación	0
183912	7	Sololá	719	Santiago Atitlán	14	Cerro de Oro	11	Noviembre	2023-11-13T00:00:00	2024-11-08T03:00:00	8	Radiación solar	0
183913	7	Sololá	719	Santiago Atitlán	14	Cerro de Oro	11	Noviembre	2023-11-13T00:00:00	2024-11-08T04:00:00	2	Temperatura media	18.4
183914	7	Sololá	719	Santiago Atitlán	14	Cerro de Oro	11	Noviembre	2023-11-13T00:00:00	2024-11-08T04:00:00	4	Temperatura máxima	19.7
183915	7	Sololá	719	Santiago Atitlán	14	Cerro de Oro	11	Noviembre	2023-11-13T00:00:00	2024-11-08T04:00:00	3	Temperatura mínima	18.4
183916	7	Sololá	719	Santiago Atitlán	14	Cerro de Oro	11	Noviembre	2023-11-13T00:00:00	2024-11-08T04:00:00	5	Humedad	75
183917	7	Sololá	719	Santiago Atitlán	14	Cerro de Oro	11	Noviembre	2023-11-13T00:00:00	2024-11-08T04:00:00	6	Velocidad del viento	1.6
183918	7	Sololá	719	Santiago Atitlán	14	Cerro de Oro	11	Noviembre	2023-11-13T00:00:00	2024-11-08T04:00:00	7	Dirección del viento	1.61
183919	7	Sololá	719	Santiago Atitlán	14	Cerro de Oro	11	Noviembre	2023-11-13T00:00:00	2024-11-08T04:00:00	1	Precipitación	0
183920	7	Sololá	719	Santiago Atitlán	14	Cerro de Oro	11	Noviembre	2023-11-13T00:00:00	2024-11-08T04:00:00	8	Radiación solar	0
183921	7	Sololá	719	Santiago Atitlán	14	Cerro de Oro	11	Noviembre	2023-11-13T00:00:00	2024-11-08T05:00:00	2	Temperatura media	19.1
183922	7	Sololá	719	Santiago Atitlán	14	Cerro de Oro	11	Noviembre	2023-11-13T00:00:00	2024-11-08T05:00:00	4	Temperatura máxima	19.4
183923	7	Sololá	719	Santiago Atitlán	14	Cerro de Oro	11	Noviembre	2023-11-13T00:00:00	2024-11-08T05:00:00	3	Temperatura mínima	17.9
183924	7	Sololá	719	Santiago Atitlán	14	Cerro de Oro	11	Noviembre	2023-11-13T00:00:00	2024-11-08T05:00:00	5	Humedad	76
183925	7	Sololá	719	Santiago Atitlán	14	Cerro de Oro	11	Noviembre	2023-11-13T00:00:00	2024-11-08T05:00:00	6	Velocidad del viento	1.6
183926	7	Sololá	719	Santiago Atitlán	14	Cerro de Oro	11	Noviembre	2023-11-13T00:00:00	2024-11-08T05:00:00	7	Dirección del viento	1.61
183927	7	Sololá	719	Santiago Atitlán	14	Cerro de Oro	11	Noviembre	2023-11-13T00:00:00	2024-11-08T05:00:00	1	Precipitación	0
183928	7	Sololá	719	Santiago Atitlán	14	Cerro de Oro	11	Noviembre	2023-11-13T00:00:00	2024-11-08T05:00:00	8	Radiación solar	0
183929	7	Sololá	719	Santiago Atitlán	14	Cerro de Oro	11	Noviembre	2023-11-13T00:00:00	2024-11-08T06:00:00	2	Temperatura media	20.6
183930	7	Sololá	719	Santiago Atitlán	14	Cerro de Oro	11	Noviembre	2023-11-13T00:00:00	2024-11-08T06:00:00	4	Temperatura máxima	20.6
183931	7	Sololá	719	Santiago Atitlán	14	Cerro de Oro	11	Noviembre	2023-11-13T00:00:00	2024-11-08T06:00:00	3	Temperatura mínima	18.9
183932	7	Sololá	719	Santiago Atitlán	14	Cerro de Oro	11	Noviembre	2023-11-13T00:00:00	2024-11-08T06:00:00	5	Humedad	73
183933	7	Sololá	719	Santiago Atitlán	14	Cerro de Oro	11	Noviembre	2023-11-13T00:00:00	2024-11-08T06:00:00	6	Velocidad del viento	3.2
183934	7	Sololá	719	Santiago Atitlán	14	Cerro de Oro	11	Noviembre	2023-11-13T00:00:00	2024-11-08T06:00:00	7	Dirección del viento	3.22
183935	7	Sololá	719	Santiago Atitlán	14	Cerro de Oro	11	Noviembre	2023-11-13T00:00:00	2024-11-08T06:00:00	1	Precipitación	0
183936	7	Sololá	719	Santiago Atitlán	14	Cerro de Oro	11	Noviembre	2023-11-13T00:00:00	2024-11-08T06:00:00	8	Radiación solar	42
183937	7	Sololá	719	Santiago Atitlán	14	Cerro de Oro	11	Noviembre	2023-11-13T00:00:00	2024-11-08T07:00:00	2	Temperatura media	22.1
183938	7	Sololá	719	Santiago Atitlán	14	Cerro de Oro	11	Noviembre	2023-11-13T00:00:00	2024-11-08T07:00:00	4	Temperatura máxima	22.1
183939	7	Sololá	719	Santiago Atitlán	14	Cerro de Oro	11	Noviembre	2023-11-13T00:00:00	2024-11-08T07:00:00	3	Temperatura mínima	20.6
183940	7	Sololá	719	Santiago Atitlán	14	Cerro de Oro	11	Noviembre	2023-11-13T00:00:00	2024-11-08T07:00:00	5	Humedad	68
183941	7	Sololá	719	Santiago Atitlán	14	Cerro de Oro	11	Noviembre	2023-11-13T00:00:00	2024-11-08T07:00:00	6	Velocidad del viento	8
183942	7	Sololá	719	Santiago Atitlán	14	Cerro de Oro	11	Noviembre	2023-11-13T00:00:00	2024-11-08T07:00:00	7	Dirección del viento	8.05
183943	7	Sololá	719	Santiago Atitlán	14	Cerro de Oro	11	Noviembre	2023-11-13T00:00:00	2024-11-08T07:00:00	1	Precipitación	0
183944	7	Sololá	719	Santiago Atitlán	14	Cerro de Oro	11	Noviembre	2023-11-13T00:00:00	2024-11-08T07:00:00	8	Radiación solar	273
183945	7	Sololá	719	Santiago Atitlán	14	Cerro de Oro	11	Noviembre	2023-11-13T00:00:00	2024-11-08T08:00:00	2	Temperatura media	23.3
183946	7	Sololá	719	Santiago Atitlán	14	Cerro de Oro	11	Noviembre	2023-11-13T00:00:00	2024-11-08T08:00:00	4	Temperatura máxima	23.3
183947	7	Sololá	719	Santiago Atitlán	14	Cerro de Oro	11	Noviembre	2023-11-13T00:00:00	2024-11-08T08:00:00	3	Temperatura mínima	22.1
183948	7	Sololá	719	Santiago Atitlán	14	Cerro de Oro	11	Noviembre	2023-11-13T00:00:00	2024-11-08T08:00:00	5	Humedad	66
183949	7	Sololá	719	Santiago Atitlán	14	Cerro de Oro	11	Noviembre	2023-11-13T00:00:00	2024-11-08T08:00:00	6	Velocidad del viento	8
183950	7	Sololá	719	Santiago Atitlán	14	Cerro de Oro	11	Noviembre	2023-11-13T00:00:00	2024-11-08T08:00:00	7	Dirección del viento	8.05
183951	7	Sololá	719	Santiago Atitlán	14	Cerro de Oro	11	Noviembre	2023-11-13T00:00:00	2024-11-08T08:00:00	1	Precipitación	0
183952	7	Sololá	719	Santiago Atitlán	14	Cerro de Oro	11	Noviembre	2023-11-13T00:00:00	2024-11-08T08:00:00	8	Radiación solar	489
183953	7	Sololá	719	Santiago Atitlán	14	Cerro de Oro	11	Noviembre	2023-11-13T00:00:00	2024-11-08T09:00:00	2	Temperatura media	24.7
183954	7	Sololá	719	Santiago Atitlán	14	Cerro de Oro	11	Noviembre	2023-11-13T00:00:00	2024-11-08T09:00:00	4	Temperatura máxima	24.7
183955	7	Sololá	719	Santiago Atitlán	14	Cerro de Oro	11	Noviembre	2023-11-13T00:00:00	2024-11-08T09:00:00	3	Temperatura mínima	23.3
183956	7	Sololá	719	Santiago Atitlán	14	Cerro de Oro	11	Noviembre	2023-11-13T00:00:00	2024-11-08T09:00:00	5	Humedad	64
183957	7	Sololá	719	Santiago Atitlán	14	Cerro de Oro	11	Noviembre	2023-11-13T00:00:00	2024-11-08T09:00:00	6	Velocidad del viento	9.7
183958	7	Sololá	719	Santiago Atitlán	14	Cerro de Oro	11	Noviembre	2023-11-13T00:00:00	2024-11-08T09:00:00	7	Dirección del viento	9.66
183959	7	Sololá	719	Santiago Atitlán	14	Cerro de Oro	11	Noviembre	2023-11-13T00:00:00	2024-11-08T09:00:00	1	Precipitación	0
183960	7	Sololá	719	Santiago Atitlán	14	Cerro de Oro	11	Noviembre	2023-11-13T00:00:00	2024-11-08T09:00:00	8	Radiación solar	648
183961	7	Sololá	719	Santiago Atitlán	14	Cerro de Oro	11	Noviembre	2023-11-13T00:00:00	2024-11-08T10:00:00	2	Temperatura media	25.7
183962	7	Sololá	719	Santiago Atitlán	14	Cerro de Oro	11	Noviembre	2023-11-13T00:00:00	2024-11-08T10:00:00	4	Temperatura máxima	29.1
183963	7	Sololá	719	Santiago Atitlán	14	Cerro de Oro	11	Noviembre	2023-11-13T00:00:00	2024-11-08T10:00:00	3	Temperatura mínima	24.5
183964	7	Sololá	719	Santiago Atitlán	14	Cerro de Oro	11	Noviembre	2023-11-13T00:00:00	2024-11-08T10:00:00	5	Humedad	61
183965	7	Sololá	719	Santiago Atitlán	14	Cerro de Oro	11	Noviembre	2023-11-13T00:00:00	2024-11-08T10:00:00	6	Velocidad del viento	8
183966	7	Sololá	719	Santiago Atitlán	14	Cerro de Oro	11	Noviembre	2023-11-13T00:00:00	2024-11-08T10:00:00	7	Dirección del viento	8.05
183967	7	Sololá	719	Santiago Atitlán	14	Cerro de Oro	11	Noviembre	2023-11-13T00:00:00	2024-11-08T10:00:00	1	Precipitación	0
183968	7	Sololá	719	Santiago Atitlán	14	Cerro de Oro	11	Noviembre	2023-11-13T00:00:00	2024-11-08T10:00:00	8	Radiación solar	769
183969	7	Sololá	719	Santiago Atitlán	14	Cerro de Oro	11	Noviembre	2023-11-13T00:00:00	2024-11-08T11:00:00	2	Temperatura media	26.8
183970	7	Sololá	719	Santiago Atitlán	14	Cerro de Oro	11	Noviembre	2023-11-13T00:00:00	2024-11-08T11:00:00	4	Temperatura máxima	27
183971	7	Sololá	719	Santiago Atitlán	14	Cerro de Oro	11	Noviembre	2023-11-13T00:00:00	2024-11-08T11:00:00	3	Temperatura mínima	25.7
183972	7	Sololá	719	Santiago Atitlán	14	Cerro de Oro	11	Noviembre	2023-11-13T00:00:00	2024-11-08T11:00:00	5	Humedad	57
183973	7	Sololá	719	Santiago Atitlán	14	Cerro de Oro	11	Noviembre	2023-11-13T00:00:00	2024-11-08T11:00:00	6	Velocidad del viento	6.4
183974	7	Sololá	719	Santiago Atitlán	14	Cerro de Oro	11	Noviembre	2023-11-13T00:00:00	2024-11-08T11:00:00	7	Dirección del viento	6.44
183975	7	Sololá	719	Santiago Atitlán	14	Cerro de Oro	11	Noviembre	2023-11-13T00:00:00	2024-11-08T11:00:00	1	Precipitación	0
183976	7	Sololá	719	Santiago Atitlán	14	Cerro de Oro	11	Noviembre	2023-11-13T00:00:00	2024-11-08T11:00:00	8	Radiación solar	834
183977	7	Sololá	719	Santiago Atitlán	14	Cerro de Oro	11	Noviembre	2023-11-13T00:00:00	2024-11-08T12:00:00	2	Temperatura media	27.2
183978	7	Sololá	719	Santiago Atitlán	14	Cerro de Oro	11	Noviembre	2023-11-13T00:00:00	2024-11-08T12:00:00	4	Temperatura máxima	27.2
183979	7	Sololá	719	Santiago Atitlán	14	Cerro de Oro	11	Noviembre	2023-11-13T00:00:00	2024-11-08T12:00:00	3	Temperatura mínima	26.7
183980	7	Sololá	719	Santiago Atitlán	14	Cerro de Oro	11	Noviembre	2023-11-13T00:00:00	2024-11-08T12:00:00	5	Humedad	57
183981	7	Sololá	719	Santiago Atitlán	14	Cerro de Oro	11	Noviembre	2023-11-13T00:00:00	2024-11-08T12:00:00	6	Velocidad del viento	9.7
183982	7	Sololá	719	Santiago Atitlán	14	Cerro de Oro	11	Noviembre	2023-11-13T00:00:00	2024-11-08T12:00:00	7	Dirección del viento	9.66
183983	7	Sololá	719	Santiago Atitlán	14	Cerro de Oro	11	Noviembre	2023-11-13T00:00:00	2024-11-08T12:00:00	1	Precipitación	0
183984	7	Sololá	719	Santiago Atitlán	14	Cerro de Oro	11	Noviembre	2023-11-13T00:00:00	2024-11-08T12:00:00	8	Radiación solar	846
183985	7	Sololá	719	Santiago Atitlán	14	Cerro de Oro	11	Noviembre	2023-11-13T00:00:00	2024-11-08T13:00:00	2	Temperatura media	25.9
183986	7	Sololá	719	Santiago Atitlán	14	Cerro de Oro	11	Noviembre	2023-11-13T00:00:00	2024-11-08T13:00:00	4	Temperatura máxima	27.4
183987	7	Sololá	719	Santiago Atitlán	14	Cerro de Oro	11	Noviembre	2023-11-13T00:00:00	2024-11-08T13:00:00	3	Temperatura mínima	25.9
183988	7	Sololá	719	Santiago Atitlán	14	Cerro de Oro	11	Noviembre	2023-11-13T00:00:00	2024-11-08T13:00:00	5	Humedad	61
183989	7	Sololá	719	Santiago Atitlán	14	Cerro de Oro	11	Noviembre	2023-11-13T00:00:00	2024-11-08T13:00:00	6	Velocidad del viento	9.7
183990	7	Sololá	719	Santiago Atitlán	14	Cerro de Oro	11	Noviembre	2023-11-13T00:00:00	2024-11-08T13:00:00	7	Dirección del viento	9.66
183991	7	Sololá	719	Santiago Atitlán	14	Cerro de Oro	11	Noviembre	2023-11-13T00:00:00	2024-11-08T13:00:00	1	Precipitación	0
183992	7	Sololá	719	Santiago Atitlán	14	Cerro de Oro	11	Noviembre	2023-11-13T00:00:00	2024-11-08T13:00:00	8	Radiación solar	612
183993	7	Sololá	719	Santiago Atitlán	14	Cerro de Oro	11	Noviembre	2023-11-13T00:00:00	2024-11-08T14:00:00	2	Temperatura media	24.5
183994	7	Sololá	719	Santiago Atitlán	14	Cerro de Oro	11	Noviembre	2023-11-13T00:00:00	2024-11-08T14:00:00	4	Temperatura máxima	26
183995	7	Sololá	719	Santiago Atitlán	14	Cerro de Oro	11	Noviembre	2023-11-13T00:00:00	2024-11-08T14:00:00	3	Temperatura mínima	24.4
183996	7	Sololá	719	Santiago Atitlán	14	Cerro de Oro	11	Noviembre	2023-11-13T00:00:00	2024-11-08T14:00:00	5	Humedad	65
183997	7	Sololá	719	Santiago Atitlán	14	Cerro de Oro	11	Noviembre	2023-11-13T00:00:00	2024-11-08T14:00:00	6	Velocidad del viento	8
183998	7	Sololá	719	Santiago Atitlán	14	Cerro de Oro	11	Noviembre	2023-11-13T00:00:00	2024-11-08T14:00:00	7	Dirección del viento	8.05
183999	7	Sololá	719	Santiago Atitlán	14	Cerro de Oro	11	Noviembre	2023-11-13T00:00:00	2024-11-08T14:00:00	1	Precipitación	0
184000	7	Sololá	719	Santiago Atitlán	14	Cerro de Oro	11	Noviembre	2023-11-13T00:00:00	2024-11-08T14:00:00	8	Radiación solar	224
184001	7	Sololá	719	Santiago Atitlán	14	Cerro de Oro	11	Noviembre	2023-11-13T00:00:00	2024-11-08T15:00:00	2	Temperatura media	25
184002	7	Sololá	719	Santiago Atitlán	14	Cerro de Oro	11	Noviembre	2023-11-13T00:00:00	2024-11-08T15:00:00	4	Temperatura máxima	26.8
184003	7	Sololá	719	Santiago Atitlán	14	Cerro de Oro	11	Noviembre	2023-11-13T00:00:00	2024-11-08T15:00:00	3	Temperatura mínima	24.4
184004	7	Sololá	719	Santiago Atitlán	14	Cerro de Oro	11	Noviembre	2023-11-13T00:00:00	2024-11-08T15:00:00	5	Humedad	63
184005	7	Sololá	719	Santiago Atitlán	14	Cerro de Oro	11	Noviembre	2023-11-13T00:00:00	2024-11-08T15:00:00	6	Velocidad del viento	4.8
184006	7	Sololá	719	Santiago Atitlán	14	Cerro de Oro	11	Noviembre	2023-11-13T00:00:00	2024-11-08T15:00:00	7	Dirección del viento	4.83
184007	7	Sololá	719	Santiago Atitlán	14	Cerro de Oro	11	Noviembre	2023-11-13T00:00:00	2024-11-08T15:00:00	1	Precipitación	0
184008	7	Sololá	719	Santiago Atitlán	14	Cerro de Oro	11	Noviembre	2023-11-13T00:00:00	2024-11-08T15:00:00	8	Radiación solar	329
184009	7	Sololá	719	Santiago Atitlán	14	Cerro de Oro	11	Noviembre	2023-11-13T00:00:00	2024-11-08T16:00:00	2	Temperatura media	23.2
184010	7	Sololá	719	Santiago Atitlán	14	Cerro de Oro	11	Noviembre	2023-11-13T00:00:00	2024-11-08T16:00:00	4	Temperatura máxima	25
184011	7	Sololá	719	Santiago Atitlán	14	Cerro de Oro	11	Noviembre	2023-11-13T00:00:00	2024-11-08T16:00:00	3	Temperatura mínima	23.2
184012	7	Sololá	719	Santiago Atitlán	14	Cerro de Oro	11	Noviembre	2023-11-13T00:00:00	2024-11-08T16:00:00	5	Humedad	83
184013	7	Sololá	719	Santiago Atitlán	14	Cerro de Oro	11	Noviembre	2023-11-13T00:00:00	2024-11-08T16:00:00	6	Velocidad del viento	3.2
184014	7	Sololá	719	Santiago Atitlán	14	Cerro de Oro	11	Noviembre	2023-11-13T00:00:00	2024-11-08T16:00:00	7	Dirección del viento	3.22
184015	7	Sololá	719	Santiago Atitlán	14	Cerro de Oro	11	Noviembre	2023-11-13T00:00:00	2024-11-08T16:00:00	1	Precipitación	0
184016	7	Sololá	719	Santiago Atitlán	14	Cerro de Oro	11	Noviembre	2023-11-13T00:00:00	2024-11-08T16:00:00	8	Radiación solar	33
184017	7	Sololá	719	Santiago Atitlán	14	Cerro de Oro	11	Noviembre	2023-11-13T00:00:00	2024-11-08T17:00:00	2	Temperatura media	22
184018	7	Sololá	719	Santiago Atitlán	14	Cerro de Oro	11	Noviembre	2023-11-13T00:00:00	2024-11-08T17:00:00	4	Temperatura máxima	23.1
184019	7	Sololá	719	Santiago Atitlán	14	Cerro de Oro	11	Noviembre	2023-11-13T00:00:00	2024-11-08T17:00:00	3	Temperatura mínima	22
184020	7	Sololá	719	Santiago Atitlán	14	Cerro de Oro	11	Noviembre	2023-11-13T00:00:00	2024-11-08T17:00:00	5	Humedad	83
184021	7	Sololá	719	Santiago Atitlán	14	Cerro de Oro	11	Noviembre	2023-11-13T00:00:00	2024-11-08T17:00:00	6	Velocidad del viento	0
184022	7	Sololá	719	Santiago Atitlán	14	Cerro de Oro	11	Noviembre	2023-11-13T00:00:00	2024-11-08T17:00:00	7	Dirección del viento	0
184023	7	Sololá	719	Santiago Atitlán	14	Cerro de Oro	11	Noviembre	2023-11-13T00:00:00	2024-11-08T17:00:00	1	Precipitación	0
184024	7	Sololá	719	Santiago Atitlán	14	Cerro de Oro	11	Noviembre	2023-11-13T00:00:00	2024-11-08T17:00:00	8	Radiación solar	10
184025	7	Sololá	719	Santiago Atitlán	14	Cerro de Oro	11	Noviembre	2023-11-13T00:00:00	2024-11-08T18:00:00	2	Temperatura media	22.2
184026	7	Sololá	719	Santiago Atitlán	14	Cerro de Oro	11	Noviembre	2023-11-13T00:00:00	2024-11-08T18:00:00	4	Temperatura máxima	22.3
184027	7	Sololá	719	Santiago Atitlán	14	Cerro de Oro	11	Noviembre	2023-11-13T00:00:00	2024-11-08T18:00:00	3	Temperatura mínima	21.9
184028	7	Sololá	719	Santiago Atitlán	14	Cerro de Oro	11	Noviembre	2023-11-13T00:00:00	2024-11-08T18:00:00	5	Humedad	73
184029	7	Sololá	719	Santiago Atitlán	14	Cerro de Oro	11	Noviembre	2023-11-13T00:00:00	2024-11-08T18:00:00	6	Velocidad del viento	1.6
184030	7	Sololá	719	Santiago Atitlán	14	Cerro de Oro	11	Noviembre	2023-11-13T00:00:00	2024-11-08T18:00:00	7	Dirección del viento	1.61
184031	7	Sololá	719	Santiago Atitlán	14	Cerro de Oro	11	Noviembre	2023-11-13T00:00:00	2024-11-08T18:00:00	1	Precipitación	0
184032	7	Sololá	719	Santiago Atitlán	14	Cerro de Oro	11	Noviembre	2023-11-13T00:00:00	2024-11-08T18:00:00	8	Radiación solar	0
184033	7	Sololá	719	Santiago Atitlán	14	Cerro de Oro	11	Noviembre	2023-11-13T00:00:00	2024-11-08T19:00:00	2	Temperatura media	22.1
184034	7	Sololá	719	Santiago Atitlán	14	Cerro de Oro	11	Noviembre	2023-11-13T00:00:00	2024-11-08T19:00:00	4	Temperatura máxima	22.4
184035	7	Sololá	719	Santiago Atitlán	14	Cerro de Oro	11	Noviembre	2023-11-13T00:00:00	2024-11-08T19:00:00	3	Temperatura mínima	22.1
184036	7	Sololá	719	Santiago Atitlán	14	Cerro de Oro	11	Noviembre	2023-11-13T00:00:00	2024-11-08T19:00:00	5	Humedad	71
184037	7	Sololá	719	Santiago Atitlán	14	Cerro de Oro	11	Noviembre	2023-11-13T00:00:00	2024-11-08T19:00:00	6	Velocidad del viento	3.2
184038	7	Sololá	719	Santiago Atitlán	14	Cerro de Oro	11	Noviembre	2023-11-13T00:00:00	2024-11-08T19:00:00	7	Dirección del viento	3.22
184039	7	Sololá	719	Santiago Atitlán	14	Cerro de Oro	11	Noviembre	2023-11-13T00:00:00	2024-11-08T19:00:00	1	Precipitación	0
184040	7	Sololá	719	Santiago Atitlán	14	Cerro de Oro	11	Noviembre	2023-11-13T00:00:00	2024-11-08T19:00:00	8	Radiación solar	0
184041	7	Sololá	719	Santiago Atitlán	14	Cerro de Oro	11	Noviembre	2023-11-13T00:00:00	2024-11-08T20:00:00	2	Temperatura media	21.9
184042	7	Sololá	719	Santiago Atitlán	14	Cerro de Oro	11	Noviembre	2023-11-13T00:00:00	2024-11-08T20:00:00	4	Temperatura máxima	22.2
184043	7	Sololá	719	Santiago Atitlán	14	Cerro de Oro	11	Noviembre	2023-11-13T00:00:00	2024-11-08T20:00:00	3	Temperatura mínima	21.9
184044	7	Sololá	719	Santiago Atitlán	14	Cerro de Oro	11	Noviembre	2023-11-13T00:00:00	2024-11-08T20:00:00	5	Humedad	74
184045	7	Sololá	719	Santiago Atitlán	14	Cerro de Oro	11	Noviembre	2023-11-13T00:00:00	2024-11-08T20:00:00	6	Velocidad del viento	1.6
184046	7	Sololá	719	Santiago Atitlán	14	Cerro de Oro	11	Noviembre	2023-11-13T00:00:00	2024-11-08T20:00:00	7	Dirección del viento	1.61
184047	7	Sololá	719	Santiago Atitlán	14	Cerro de Oro	11	Noviembre	2023-11-13T00:00:00	2024-11-08T20:00:00	1	Precipitación	0
184048	7	Sololá	719	Santiago Atitlán	14	Cerro de Oro	11	Noviembre	2023-11-13T00:00:00	2024-11-08T20:00:00	8	Radiación solar	0
184049	7	Sololá	719	Santiago Atitlán	14	Cerro de Oro	11	Noviembre	2023-11-13T00:00:00	2024-11-08T21:00:00	2	Temperatura media	21.8
184050	7	Sololá	719	Santiago Atitlán	14	Cerro de Oro	11	Noviembre	2023-11-13T00:00:00	2024-11-08T21:00:00	4	Temperatura máxima	22.1
184051	7	Sololá	719	Santiago Atitlán	14	Cerro de Oro	11	Noviembre	2023-11-13T00:00:00	2024-11-08T21:00:00	3	Temperatura mínima	21.7
184052	7	Sololá	719	Santiago Atitlán	14	Cerro de Oro	11	Noviembre	2023-11-13T00:00:00	2024-11-08T21:00:00	5	Humedad	74
184053	7	Sololá	719	Santiago Atitlán	14	Cerro de Oro	11	Noviembre	2023-11-13T00:00:00	2024-11-08T21:00:00	6	Velocidad del viento	4.8
184054	7	Sololá	719	Santiago Atitlán	14	Cerro de Oro	11	Noviembre	2023-11-13T00:00:00	2024-11-08T21:00:00	7	Dirección del viento	4.83
184055	7	Sololá	719	Santiago Atitlán	14	Cerro de Oro	11	Noviembre	2023-11-13T00:00:00	2024-11-08T21:00:00	1	Precipitación	0
184056	7	Sololá	719	Santiago Atitlán	14	Cerro de Oro	11	Noviembre	2023-11-13T00:00:00	2024-11-08T21:00:00	8	Radiación solar	0
184057	7	Sololá	719	Santiago Atitlán	14	Cerro de Oro	11	Noviembre	2023-11-13T00:00:00	2024-11-08T22:00:00	2	Temperatura media	21.1
184058	7	Sololá	719	Santiago Atitlán	14	Cerro de Oro	11	Noviembre	2023-11-13T00:00:00	2024-11-08T22:00:00	4	Temperatura máxima	21.8
184059	7	Sololá	719	Santiago Atitlán	14	Cerro de Oro	11	Noviembre	2023-11-13T00:00:00	2024-11-08T22:00:00	3	Temperatura mínima	21.1
184060	7	Sololá	719	Santiago Atitlán	14	Cerro de Oro	11	Noviembre	2023-11-13T00:00:00	2024-11-08T22:00:00	5	Humedad	78
184061	7	Sololá	719	Santiago Atitlán	14	Cerro de Oro	11	Noviembre	2023-11-13T00:00:00	2024-11-08T22:00:00	6	Velocidad del viento	3.2
184062	7	Sololá	719	Santiago Atitlán	14	Cerro de Oro	11	Noviembre	2023-11-13T00:00:00	2024-11-08T22:00:00	7	Dirección del viento	3.22
184063	7	Sololá	719	Santiago Atitlán	14	Cerro de Oro	11	Noviembre	2023-11-13T00:00:00	2024-11-08T22:00:00	1	Precipitación	0
184064	7	Sololá	719	Santiago Atitlán	14	Cerro de Oro	11	Noviembre	2023-11-13T00:00:00	2024-11-08T22:00:00	8	Radiación solar	0
184065	7	Sololá	719	Santiago Atitlán	14	Cerro de Oro	11	Noviembre	2023-11-13T00:00:00	2024-11-08T23:00:00	2	Temperatura media	20.6
184066	7	Sololá	719	Santiago Atitlán	14	Cerro de Oro	11	Noviembre	2023-11-13T00:00:00	2024-11-08T23:00:00	4	Temperatura máxima	21.1
184067	7	Sololá	719	Santiago Atitlán	14	Cerro de Oro	11	Noviembre	2023-11-13T00:00:00	2024-11-08T23:00:00	3	Temperatura mínima	20.2
184068	7	Sololá	719	Santiago Atitlán	14	Cerro de Oro	11	Noviembre	2023-11-13T00:00:00	2024-11-08T23:00:00	5	Humedad	78
184069	7	Sololá	719	Santiago Atitlán	14	Cerro de Oro	11	Noviembre	2023-11-13T00:00:00	2024-11-08T23:00:00	6	Velocidad del viento	1.6
184070	7	Sololá	719	Santiago Atitlán	14	Cerro de Oro	11	Noviembre	2023-11-13T00:00:00	2024-11-08T23:00:00	7	Dirección del viento	1.61
184071	7	Sololá	719	Santiago Atitlán	14	Cerro de Oro	11	Noviembre	2023-11-13T00:00:00	2024-11-08T23:00:00	1	Precipitación	0
184072	7	Sololá	719	Santiago Atitlán	14	Cerro de Oro	11	Noviembre	2023-11-13T00:00:00	2024-11-08T23:00:00	8	Radiación solar	0
184073	7	Sololá	719	Santiago Atitlán	14	Cerro de Oro	11	Noviembre	2023-11-14T00:00:00	2024-11-08T00:00:00	2	Temperatura media	21.3
184074	7	Sololá	719	Santiago Atitlán	14	Cerro de Oro	11	Noviembre	2023-11-14T00:00:00	2024-11-08T00:00:00	4	Temperatura máxima	21.5
184075	7	Sololá	719	Santiago Atitlán	14	Cerro de Oro	11	Noviembre	2023-11-14T00:00:00	2024-11-08T00:00:00	3	Temperatura mínima	20.6
184076	7	Sololá	719	Santiago Atitlán	14	Cerro de Oro	11	Noviembre	2023-11-14T00:00:00	2024-11-08T00:00:00	5	Humedad	75
184077	7	Sololá	719	Santiago Atitlán	14	Cerro de Oro	11	Noviembre	2023-11-14T00:00:00	2024-11-08T00:00:00	6	Velocidad del viento	4.8
184078	7	Sololá	719	Santiago Atitlán	14	Cerro de Oro	11	Noviembre	2023-11-14T00:00:00	2024-11-08T00:00:00	7	Dirección del viento	4.83
184079	7	Sololá	719	Santiago Atitlán	14	Cerro de Oro	11	Noviembre	2023-11-14T00:00:00	2024-11-08T00:00:00	1	Precipitación	0
184080	7	Sololá	719	Santiago Atitlán	14	Cerro de Oro	11	Noviembre	2023-11-14T00:00:00	2024-11-08T00:00:00	8	Radiación solar	0
184081	7	Sololá	719	Santiago Atitlán	14	Cerro de Oro	11	Noviembre	2023-11-14T00:00:00	2024-11-08T01:00:00	2	Temperatura media	20.7
184082	7	Sololá	719	Santiago Atitlán	14	Cerro de Oro	11	Noviembre	2023-11-14T00:00:00	2024-11-08T01:00:00	4	Temperatura máxima	21.3
184083	7	Sololá	719	Santiago Atitlán	14	Cerro de Oro	11	Noviembre	2023-11-14T00:00:00	2024-11-08T01:00:00	3	Temperatura mínima	20.6
184084	7	Sololá	719	Santiago Atitlán	14	Cerro de Oro	11	Noviembre	2023-11-14T00:00:00	2024-11-08T01:00:00	5	Humedad	77
184085	7	Sololá	719	Santiago Atitlán	14	Cerro de Oro	11	Noviembre	2023-11-14T00:00:00	2024-11-08T01:00:00	6	Velocidad del viento	3.2
184086	7	Sololá	719	Santiago Atitlán	14	Cerro de Oro	11	Noviembre	2023-11-14T00:00:00	2024-11-08T01:00:00	7	Dirección del viento	3.22
184087	7	Sololá	719	Santiago Atitlán	14	Cerro de Oro	11	Noviembre	2023-11-14T00:00:00	2024-11-08T01:00:00	1	Precipitación	0
184088	7	Sololá	719	Santiago Atitlán	14	Cerro de Oro	11	Noviembre	2023-11-14T00:00:00	2024-11-08T01:00:00	8	Radiación solar	0
184089	7	Sololá	719	Santiago Atitlán	14	Cerro de Oro	11	Noviembre	2023-11-14T00:00:00	2024-11-08T02:00:00	2	Temperatura media	20.8
184090	7	Sololá	719	Santiago Atitlán	14	Cerro de Oro	11	Noviembre	2023-11-14T00:00:00	2024-11-08T02:00:00	4	Temperatura máxima	20.8
184091	7	Sololá	719	Santiago Atitlán	14	Cerro de Oro	11	Noviembre	2023-11-14T00:00:00	2024-11-08T02:00:00	3	Temperatura mínima	20
184092	7	Sololá	719	Santiago Atitlán	14	Cerro de Oro	11	Noviembre	2023-11-14T00:00:00	2024-11-08T02:00:00	5	Humedad	76
184093	7	Sololá	719	Santiago Atitlán	14	Cerro de Oro	11	Noviembre	2023-11-14T00:00:00	2024-11-08T02:00:00	6	Velocidad del viento	3.2
184094	7	Sololá	719	Santiago Atitlán	14	Cerro de Oro	11	Noviembre	2023-11-14T00:00:00	2024-11-08T02:00:00	7	Dirección del viento	3.22
184095	7	Sololá	719	Santiago Atitlán	14	Cerro de Oro	11	Noviembre	2023-11-14T00:00:00	2024-11-08T02:00:00	1	Precipitación	0
184096	7	Sololá	719	Santiago Atitlán	14	Cerro de Oro	11	Noviembre	2023-11-14T00:00:00	2024-11-08T02:00:00	8	Radiación solar	0
184097	7	Sololá	719	Santiago Atitlán	14	Cerro de Oro	11	Noviembre	2023-11-14T00:00:00	2024-11-08T03:00:00	2	Temperatura media	20.9
184098	7	Sololá	719	Santiago Atitlán	14	Cerro de Oro	11	Noviembre	2023-11-14T00:00:00	2024-11-08T03:00:00	4	Temperatura máxima	21.1
184099	7	Sololá	719	Santiago Atitlán	14	Cerro de Oro	11	Noviembre	2023-11-14T00:00:00	2024-11-08T03:00:00	3	Temperatura mínima	20.6
184100	7	Sololá	719	Santiago Atitlán	14	Cerro de Oro	11	Noviembre	2023-11-14T00:00:00	2024-11-08T03:00:00	5	Humedad	74
184101	7	Sololá	719	Santiago Atitlán	14	Cerro de Oro	11	Noviembre	2023-11-14T00:00:00	2024-11-08T03:00:00	6	Velocidad del viento	4.8
184102	7	Sololá	719	Santiago Atitlán	14	Cerro de Oro	11	Noviembre	2023-11-14T00:00:00	2024-11-08T03:00:00	7	Dirección del viento	4.83
184103	7	Sololá	719	Santiago Atitlán	14	Cerro de Oro	11	Noviembre	2023-11-14T00:00:00	2024-11-08T03:00:00	1	Precipitación	0
184104	7	Sololá	719	Santiago Atitlán	14	Cerro de Oro	11	Noviembre	2023-11-14T00:00:00	2024-11-08T03:00:00	8	Radiación solar	0
184105	7	Sololá	719	Santiago Atitlán	14	Cerro de Oro	11	Noviembre	2023-11-14T00:00:00	2024-11-08T04:00:00	2	Temperatura media	20.9
184106	7	Sololá	719	Santiago Atitlán	14	Cerro de Oro	11	Noviembre	2023-11-14T00:00:00	2024-11-08T04:00:00	4	Temperatura máxima	21.1
184107	7	Sololá	719	Santiago Atitlán	14	Cerro de Oro	11	Noviembre	2023-11-14T00:00:00	2024-11-08T04:00:00	3	Temperatura mínima	20.8
184108	7	Sololá	719	Santiago Atitlán	14	Cerro de Oro	11	Noviembre	2023-11-14T00:00:00	2024-11-08T04:00:00	5	Humedad	74
184109	7	Sololá	719	Santiago Atitlán	14	Cerro de Oro	11	Noviembre	2023-11-14T00:00:00	2024-11-08T04:00:00	6	Velocidad del viento	6.4
184110	7	Sololá	719	Santiago Atitlán	14	Cerro de Oro	11	Noviembre	2023-11-14T00:00:00	2024-11-08T04:00:00	7	Dirección del viento	6.44
184111	7	Sololá	719	Santiago Atitlán	14	Cerro de Oro	11	Noviembre	2023-11-14T00:00:00	2024-11-08T04:00:00	1	Precipitación	0
184112	7	Sololá	719	Santiago Atitlán	14	Cerro de Oro	11	Noviembre	2023-11-14T00:00:00	2024-11-08T04:00:00	8	Radiación solar	0
184113	7	Sololá	719	Santiago Atitlán	14	Cerro de Oro	11	Noviembre	2023-11-14T00:00:00	2024-11-08T05:00:00	2	Temperatura media	20.1
184114	7	Sololá	719	Santiago Atitlán	14	Cerro de Oro	11	Noviembre	2023-11-14T00:00:00	2024-11-08T05:00:00	4	Temperatura máxima	20.9
184115	7	Sololá	719	Santiago Atitlán	14	Cerro de Oro	11	Noviembre	2023-11-14T00:00:00	2024-11-08T05:00:00	3	Temperatura mínima	20.1
184116	7	Sololá	719	Santiago Atitlán	14	Cerro de Oro	11	Noviembre	2023-11-14T00:00:00	2024-11-08T05:00:00	5	Humedad	78
184117	7	Sololá	719	Santiago Atitlán	14	Cerro de Oro	11	Noviembre	2023-11-14T00:00:00	2024-11-08T05:00:00	6	Velocidad del viento	1.6
184118	7	Sololá	719	Santiago Atitlán	14	Cerro de Oro	11	Noviembre	2023-11-14T00:00:00	2024-11-08T05:00:00	7	Dirección del viento	1.61
184119	7	Sololá	719	Santiago Atitlán	14	Cerro de Oro	11	Noviembre	2023-11-14T00:00:00	2024-11-08T05:00:00	1	Precipitación	0
184120	7	Sololá	719	Santiago Atitlán	14	Cerro de Oro	11	Noviembre	2023-11-14T00:00:00	2024-11-08T05:00:00	8	Radiación solar	0
184121	7	Sololá	719	Santiago Atitlán	14	Cerro de Oro	11	Noviembre	2023-11-14T00:00:00	2024-11-08T06:00:00	2	Temperatura media	19.6
184122	7	Sololá	719	Santiago Atitlán	14	Cerro de Oro	11	Noviembre	2023-11-14T00:00:00	2024-11-08T06:00:00	4	Temperatura máxima	20.1
184123	7	Sololá	719	Santiago Atitlán	14	Cerro de Oro	11	Noviembre	2023-11-14T00:00:00	2024-11-08T06:00:00	3	Temperatura mínima	19.3
184124	7	Sololá	719	Santiago Atitlán	14	Cerro de Oro	11	Noviembre	2023-11-14T00:00:00	2024-11-08T06:00:00	5	Humedad	82
184125	7	Sololá	719	Santiago Atitlán	14	Cerro de Oro	11	Noviembre	2023-11-14T00:00:00	2024-11-08T06:00:00	6	Velocidad del viento	0
184126	7	Sololá	719	Santiago Atitlán	14	Cerro de Oro	11	Noviembre	2023-11-14T00:00:00	2024-11-08T06:00:00	7	Dirección del viento	0
184127	7	Sololá	719	Santiago Atitlán	14	Cerro de Oro	11	Noviembre	2023-11-14T00:00:00	2024-11-08T06:00:00	1	Precipitación	0
184128	7	Sololá	719	Santiago Atitlán	14	Cerro de Oro	11	Noviembre	2023-11-14T00:00:00	2024-11-08T06:00:00	8	Radiación solar	26
184129	7	Sololá	719	Santiago Atitlán	14	Cerro de Oro	11	Noviembre	2023-11-14T00:00:00	2024-11-08T07:00:00	2	Temperatura media	22.3
184130	7	Sololá	719	Santiago Atitlán	14	Cerro de Oro	11	Noviembre	2023-11-14T00:00:00	2024-11-08T07:00:00	4	Temperatura máxima	22.6
184131	7	Sololá	719	Santiago Atitlán	14	Cerro de Oro	11	Noviembre	2023-11-14T00:00:00	2024-11-08T07:00:00	3	Temperatura mínima	19.6
184132	7	Sololá	719	Santiago Atitlán	14	Cerro de Oro	11	Noviembre	2023-11-14T00:00:00	2024-11-08T07:00:00	5	Humedad	74
184133	7	Sololá	719	Santiago Atitlán	14	Cerro de Oro	11	Noviembre	2023-11-14T00:00:00	2024-11-08T07:00:00	6	Velocidad del viento	0
184134	7	Sololá	719	Santiago Atitlán	14	Cerro de Oro	11	Noviembre	2023-11-14T00:00:00	2024-11-08T07:00:00	7	Dirección del viento	0
184135	7	Sololá	719	Santiago Atitlán	14	Cerro de Oro	11	Noviembre	2023-11-14T00:00:00	2024-11-08T07:00:00	1	Precipitación	0
184136	7	Sololá	719	Santiago Atitlán	14	Cerro de Oro	11	Noviembre	2023-11-14T00:00:00	2024-11-08T07:00:00	8	Radiación solar	274
184137	7	Sololá	719	Santiago Atitlán	14	Cerro de Oro	11	Noviembre	2023-11-14T00:00:00	2024-11-08T08:00:00	2	Temperatura media	25.3
184138	7	Sololá	719	Santiago Atitlán	14	Cerro de Oro	11	Noviembre	2023-11-14T00:00:00	2024-11-08T08:00:00	4	Temperatura máxima	25.3
184139	7	Sololá	719	Santiago Atitlán	14	Cerro de Oro	11	Noviembre	2023-11-14T00:00:00	2024-11-08T08:00:00	3	Temperatura mínima	22.3
184140	7	Sololá	719	Santiago Atitlán	14	Cerro de Oro	11	Noviembre	2023-11-14T00:00:00	2024-11-08T08:00:00	5	Humedad	63
184141	7	Sololá	719	Santiago Atitlán	14	Cerro de Oro	11	Noviembre	2023-11-14T00:00:00	2024-11-08T08:00:00	6	Velocidad del viento	3.2
184142	7	Sololá	719	Santiago Atitlán	14	Cerro de Oro	11	Noviembre	2023-11-14T00:00:00	2024-11-08T08:00:00	7	Dirección del viento	3.22
184143	7	Sololá	719	Santiago Atitlán	14	Cerro de Oro	11	Noviembre	2023-11-14T00:00:00	2024-11-08T08:00:00	1	Precipitación	0
184144	7	Sololá	719	Santiago Atitlán	14	Cerro de Oro	11	Noviembre	2023-11-14T00:00:00	2024-11-08T08:00:00	8	Radiación solar	520
184145	7	Sololá	719	Santiago Atitlán	14	Cerro de Oro	11	Noviembre	2023-11-14T00:00:00	2024-11-08T09:00:00	2	Temperatura media	25.7
184146	7	Sololá	719	Santiago Atitlán	14	Cerro de Oro	11	Noviembre	2023-11-14T00:00:00	2024-11-08T09:00:00	4	Temperatura máxima	26
184147	7	Sololá	719	Santiago Atitlán	14	Cerro de Oro	11	Noviembre	2023-11-14T00:00:00	2024-11-08T09:00:00	3	Temperatura mínima	24.9
184148	7	Sololá	719	Santiago Atitlán	14	Cerro de Oro	11	Noviembre	2023-11-14T00:00:00	2024-11-08T09:00:00	5	Humedad	61
184149	7	Sololá	719	Santiago Atitlán	14	Cerro de Oro	11	Noviembre	2023-11-14T00:00:00	2024-11-08T09:00:00	6	Velocidad del viento	6.4
184150	7	Sololá	719	Santiago Atitlán	14	Cerro de Oro	11	Noviembre	2023-11-14T00:00:00	2024-11-08T09:00:00	7	Dirección del viento	6.44
184151	7	Sololá	719	Santiago Atitlán	14	Cerro de Oro	11	Noviembre	2023-11-14T00:00:00	2024-11-08T09:00:00	1	Precipitación	0
184152	7	Sololá	719	Santiago Atitlán	14	Cerro de Oro	11	Noviembre	2023-11-14T00:00:00	2024-11-08T09:00:00	8	Radiación solar	475
184153	7	Sololá	719	Santiago Atitlán	14	Cerro de Oro	11	Noviembre	2023-11-14T00:00:00	2024-11-08T10:00:00	2	Temperatura media	26.3
184154	7	Sololá	719	Santiago Atitlán	14	Cerro de Oro	11	Noviembre	2023-11-14T00:00:00	2024-11-08T10:00:00	4	Temperatura máxima	26.3
184155	7	Sololá	719	Santiago Atitlán	14	Cerro de Oro	11	Noviembre	2023-11-14T00:00:00	2024-11-08T10:00:00	3	Temperatura mínima	25.4
184156	7	Sololá	719	Santiago Atitlán	14	Cerro de Oro	11	Noviembre	2023-11-14T00:00:00	2024-11-08T10:00:00	5	Humedad	62
184157	7	Sololá	719	Santiago Atitlán	14	Cerro de Oro	11	Noviembre	2023-11-14T00:00:00	2024-11-08T10:00:00	6	Velocidad del viento	8
184158	7	Sololá	719	Santiago Atitlán	14	Cerro de Oro	11	Noviembre	2023-11-14T00:00:00	2024-11-08T10:00:00	7	Dirección del viento	8.05
184159	7	Sololá	719	Santiago Atitlán	14	Cerro de Oro	11	Noviembre	2023-11-14T00:00:00	2024-11-08T10:00:00	1	Precipitación	0
184160	7	Sololá	719	Santiago Atitlán	14	Cerro de Oro	11	Noviembre	2023-11-14T00:00:00	2024-11-08T10:00:00	8	Radiación solar	613
184161	7	Sololá	719	Santiago Atitlán	14	Cerro de Oro	11	Noviembre	2023-11-14T00:00:00	2024-11-08T11:00:00	2	Temperatura media	25.9
184162	7	Sololá	719	Santiago Atitlán	14	Cerro de Oro	11	Noviembre	2023-11-14T00:00:00	2024-11-08T11:00:00	4	Temperatura máxima	27.2
184163	7	Sololá	719	Santiago Atitlán	14	Cerro de Oro	11	Noviembre	2023-11-14T00:00:00	2024-11-08T11:00:00	3	Temperatura mínima	25.8
184164	7	Sololá	719	Santiago Atitlán	14	Cerro de Oro	11	Noviembre	2023-11-14T00:00:00	2024-11-08T11:00:00	5	Humedad	61
184165	7	Sololá	719	Santiago Atitlán	14	Cerro de Oro	11	Noviembre	2023-11-14T00:00:00	2024-11-08T11:00:00	6	Velocidad del viento	9.7
184166	7	Sololá	719	Santiago Atitlán	14	Cerro de Oro	11	Noviembre	2023-11-14T00:00:00	2024-11-08T11:00:00	7	Dirección del viento	9.66
184167	7	Sololá	719	Santiago Atitlán	14	Cerro de Oro	11	Noviembre	2023-11-14T00:00:00	2024-11-08T11:00:00	1	Precipitación	0
184168	7	Sololá	719	Santiago Atitlán	14	Cerro de Oro	11	Noviembre	2023-11-14T00:00:00	2024-11-08T11:00:00	8	Radiación solar	657
184169	7	Sololá	719	Santiago Atitlán	14	Cerro de Oro	11	Noviembre	2023-11-14T00:00:00	2024-11-08T12:00:00	2	Temperatura media	24.8
184170	7	Sololá	719	Santiago Atitlán	14	Cerro de Oro	11	Noviembre	2023-11-14T00:00:00	2024-11-08T12:00:00	4	Temperatura máxima	26.2
184171	7	Sololá	719	Santiago Atitlán	14	Cerro de Oro	11	Noviembre	2023-11-14T00:00:00	2024-11-08T12:00:00	3	Temperatura mínima	24.4
184172	7	Sololá	719	Santiago Atitlán	14	Cerro de Oro	11	Noviembre	2023-11-14T00:00:00	2024-11-08T12:00:00	5	Humedad	77
184173	7	Sololá	719	Santiago Atitlán	14	Cerro de Oro	11	Noviembre	2023-11-14T00:00:00	2024-11-08T12:00:00	6	Velocidad del viento	8
184174	7	Sololá	719	Santiago Atitlán	14	Cerro de Oro	11	Noviembre	2023-11-14T00:00:00	2024-11-08T12:00:00	7	Dirección del viento	8.05
184175	7	Sololá	719	Santiago Atitlán	14	Cerro de Oro	11	Noviembre	2023-11-14T00:00:00	2024-11-08T12:00:00	1	Precipitación	0
184176	7	Sololá	719	Santiago Atitlán	14	Cerro de Oro	11	Noviembre	2023-11-14T00:00:00	2024-11-08T12:00:00	8	Radiación solar	565
184177	7	Sololá	719	Santiago Atitlán	14	Cerro de Oro	11	Noviembre	2023-11-14T00:00:00	2024-11-08T13:00:00	2	Temperatura media	23.4
184178	7	Sololá	719	Santiago Atitlán	14	Cerro de Oro	11	Noviembre	2023-11-14T00:00:00	2024-11-08T13:00:00	4	Temperatura máxima	25
184179	7	Sololá	719	Santiago Atitlán	14	Cerro de Oro	11	Noviembre	2023-11-14T00:00:00	2024-11-08T13:00:00	3	Temperatura mínima	23.4
184180	7	Sololá	719	Santiago Atitlán	14	Cerro de Oro	11	Noviembre	2023-11-14T00:00:00	2024-11-08T13:00:00	5	Humedad	82
184181	7	Sololá	719	Santiago Atitlán	14	Cerro de Oro	11	Noviembre	2023-11-14T00:00:00	2024-11-08T13:00:00	6	Velocidad del viento	6.4
184182	7	Sololá	719	Santiago Atitlán	14	Cerro de Oro	11	Noviembre	2023-11-14T00:00:00	2024-11-08T13:00:00	7	Dirección del viento	6.44
184183	7	Sololá	719	Santiago Atitlán	14	Cerro de Oro	11	Noviembre	2023-11-14T00:00:00	2024-11-08T13:00:00	1	Precipitación	0
184184	7	Sololá	719	Santiago Atitlán	14	Cerro de Oro	11	Noviembre	2023-11-14T00:00:00	2024-11-08T13:00:00	8	Radiación solar	399
184185	7	Sololá	719	Santiago Atitlán	14	Cerro de Oro	11	Noviembre	2023-11-14T00:00:00	2024-11-08T14:00:00	2	Temperatura media	23.3
184186	7	Sololá	719	Santiago Atitlán	14	Cerro de Oro	11	Noviembre	2023-11-14T00:00:00	2024-11-08T14:00:00	4	Temperatura máxima	23.6
184187	7	Sololá	719	Santiago Atitlán	14	Cerro de Oro	11	Noviembre	2023-11-14T00:00:00	2024-11-08T14:00:00	3	Temperatura mínima	22.6
184188	7	Sololá	719	Santiago Atitlán	14	Cerro de Oro	11	Noviembre	2023-11-14T00:00:00	2024-11-08T14:00:00	5	Humedad	71
184189	7	Sololá	719	Santiago Atitlán	14	Cerro de Oro	11	Noviembre	2023-11-14T00:00:00	2024-11-08T14:00:00	6	Velocidad del viento	4.8
184190	7	Sololá	719	Santiago Atitlán	14	Cerro de Oro	11	Noviembre	2023-11-14T00:00:00	2024-11-08T14:00:00	7	Dirección del viento	4.83
184191	7	Sololá	719	Santiago Atitlán	14	Cerro de Oro	11	Noviembre	2023-11-14T00:00:00	2024-11-08T14:00:00	1	Precipitación	0
184192	7	Sololá	719	Santiago Atitlán	14	Cerro de Oro	11	Noviembre	2023-11-14T00:00:00	2024-11-08T14:00:00	8	Radiación solar	176
184193	7	Sololá	719	Santiago Atitlán	14	Cerro de Oro	11	Noviembre	2023-11-14T00:00:00	2024-11-08T15:00:00	2	Temperatura media	23.4
184194	7	Sololá	719	Santiago Atitlán	14	Cerro de Oro	11	Noviembre	2023-11-14T00:00:00	2024-11-08T15:00:00	4	Temperatura máxima	23.7
184195	7	Sololá	719	Santiago Atitlán	14	Cerro de Oro	11	Noviembre	2023-11-14T00:00:00	2024-11-08T15:00:00	3	Temperatura mínima	23.3
184196	7	Sololá	719	Santiago Atitlán	14	Cerro de Oro	11	Noviembre	2023-11-14T00:00:00	2024-11-08T15:00:00	5	Humedad	70
184197	7	Sololá	719	Santiago Atitlán	14	Cerro de Oro	11	Noviembre	2023-11-14T00:00:00	2024-11-08T15:00:00	6	Velocidad del viento	4.8
184198	7	Sololá	719	Santiago Atitlán	14	Cerro de Oro	11	Noviembre	2023-11-14T00:00:00	2024-11-08T15:00:00	7	Dirección del viento	4.83
184199	7	Sololá	719	Santiago Atitlán	14	Cerro de Oro	11	Noviembre	2023-11-14T00:00:00	2024-11-08T15:00:00	1	Precipitación	0
184200	7	Sololá	719	Santiago Atitlán	14	Cerro de Oro	11	Noviembre	2023-11-14T00:00:00	2024-11-08T15:00:00	8	Radiación solar	102
184201	7	Sololá	719	Santiago Atitlán	14	Cerro de Oro	11	Noviembre	2023-11-14T00:00:00	2024-11-08T16:00:00	2	Temperatura media	22.8
184202	7	Sololá	719	Santiago Atitlán	14	Cerro de Oro	11	Noviembre	2023-11-14T00:00:00	2024-11-08T16:00:00	4	Temperatura máxima	23.4
184203	7	Sololá	719	Santiago Atitlán	14	Cerro de Oro	11	Noviembre	2023-11-14T00:00:00	2024-11-08T16:00:00	3	Temperatura mínima	22.7
184204	7	Sololá	719	Santiago Atitlán	14	Cerro de Oro	11	Noviembre	2023-11-14T00:00:00	2024-11-08T16:00:00	5	Humedad	69
184205	7	Sololá	719	Santiago Atitlán	14	Cerro de Oro	11	Noviembre	2023-11-14T00:00:00	2024-11-08T16:00:00	6	Velocidad del viento	6.4
184206	7	Sololá	719	Santiago Atitlán	14	Cerro de Oro	11	Noviembre	2023-11-14T00:00:00	2024-11-08T16:00:00	7	Dirección del viento	6.44
184207	7	Sololá	719	Santiago Atitlán	14	Cerro de Oro	11	Noviembre	2023-11-14T00:00:00	2024-11-08T16:00:00	1	Precipitación	0
184208	7	Sololá	719	Santiago Atitlán	14	Cerro de Oro	11	Noviembre	2023-11-14T00:00:00	2024-11-08T16:00:00	8	Radiación solar	49
184209	7	Sololá	719	Santiago Atitlán	14	Cerro de Oro	11	Noviembre	2023-11-14T00:00:00	2024-11-08T17:00:00	2	Temperatura media	22.1
184210	7	Sololá	719	Santiago Atitlán	14	Cerro de Oro	11	Noviembre	2023-11-14T00:00:00	2024-11-08T17:00:00	4	Temperatura máxima	22.8
184211	7	Sololá	719	Santiago Atitlán	14	Cerro de Oro	11	Noviembre	2023-11-14T00:00:00	2024-11-08T17:00:00	3	Temperatura mínima	22.1
184212	7	Sololá	719	Santiago Atitlán	14	Cerro de Oro	11	Noviembre	2023-11-14T00:00:00	2024-11-08T17:00:00	5	Humedad	71
184213	7	Sololá	719	Santiago Atitlán	14	Cerro de Oro	11	Noviembre	2023-11-14T00:00:00	2024-11-08T17:00:00	6	Velocidad del viento	6.4
184214	7	Sololá	719	Santiago Atitlán	14	Cerro de Oro	11	Noviembre	2023-11-14T00:00:00	2024-11-08T17:00:00	7	Dirección del viento	6.44
184215	7	Sololá	719	Santiago Atitlán	14	Cerro de Oro	11	Noviembre	2023-11-14T00:00:00	2024-11-08T17:00:00	1	Precipitación	0
184216	7	Sololá	719	Santiago Atitlán	14	Cerro de Oro	11	Noviembre	2023-11-14T00:00:00	2024-11-08T17:00:00	8	Radiación solar	4
184217	7	Sololá	719	Santiago Atitlán	14	Cerro de Oro	11	Noviembre	2023-11-14T00:00:00	2024-11-08T18:00:00	2	Temperatura media	21.7
184218	7	Sololá	719	Santiago Atitlán	14	Cerro de Oro	11	Noviembre	2023-11-14T00:00:00	2024-11-08T18:00:00	4	Temperatura máxima	22.1
184219	7	Sololá	719	Santiago Atitlán	14	Cerro de Oro	11	Noviembre	2023-11-14T00:00:00	2024-11-08T18:00:00	3	Temperatura mínima	21.7
184220	7	Sololá	719	Santiago Atitlán	14	Cerro de Oro	11	Noviembre	2023-11-14T00:00:00	2024-11-08T18:00:00	5	Humedad	71
184221	7	Sololá	719	Santiago Atitlán	14	Cerro de Oro	11	Noviembre	2023-11-14T00:00:00	2024-11-08T18:00:00	6	Velocidad del viento	4.8
184222	7	Sololá	719	Santiago Atitlán	14	Cerro de Oro	11	Noviembre	2023-11-14T00:00:00	2024-11-08T18:00:00	7	Dirección del viento	4.83
184223	7	Sololá	719	Santiago Atitlán	14	Cerro de Oro	11	Noviembre	2023-11-14T00:00:00	2024-11-08T18:00:00	1	Precipitación	0
184224	7	Sololá	719	Santiago Atitlán	14	Cerro de Oro	11	Noviembre	2023-11-14T00:00:00	2024-11-08T18:00:00	8	Radiación solar	0
184225	7	Sololá	719	Santiago Atitlán	14	Cerro de Oro	11	Noviembre	2023-11-14T00:00:00	2024-11-08T19:00:00	2	Temperatura media	21.3
184226	7	Sololá	719	Santiago Atitlán	14	Cerro de Oro	11	Noviembre	2023-11-14T00:00:00	2024-11-08T19:00:00	4	Temperatura máxima	21.8
184227	7	Sololá	719	Santiago Atitlán	14	Cerro de Oro	11	Noviembre	2023-11-14T00:00:00	2024-11-08T19:00:00	3	Temperatura mínima	21.3
184228	7	Sololá	719	Santiago Atitlán	14	Cerro de Oro	11	Noviembre	2023-11-14T00:00:00	2024-11-08T19:00:00	5	Humedad	73
184229	7	Sololá	719	Santiago Atitlán	14	Cerro de Oro	11	Noviembre	2023-11-14T00:00:00	2024-11-08T19:00:00	6	Velocidad del viento	3.2
184230	7	Sololá	719	Santiago Atitlán	14	Cerro de Oro	11	Noviembre	2023-11-14T00:00:00	2024-11-08T19:00:00	7	Dirección del viento	3.22
184231	7	Sololá	719	Santiago Atitlán	14	Cerro de Oro	11	Noviembre	2023-11-14T00:00:00	2024-11-08T19:00:00	1	Precipitación	0
184232	7	Sololá	719	Santiago Atitlán	14	Cerro de Oro	11	Noviembre	2023-11-14T00:00:00	2024-11-08T19:00:00	8	Radiación solar	0
184233	7	Sololá	719	Santiago Atitlán	14	Cerro de Oro	11	Noviembre	2023-11-14T00:00:00	2024-11-08T20:00:00	2	Temperatura media	21.3
184234	7	Sololá	719	Santiago Atitlán	14	Cerro de Oro	11	Noviembre	2023-11-14T00:00:00	2024-11-08T20:00:00	4	Temperatura máxima	21.3
184235	7	Sololá	719	Santiago Atitlán	14	Cerro de Oro	11	Noviembre	2023-11-14T00:00:00	2024-11-08T20:00:00	3	Temperatura mínima	20.9
184236	7	Sololá	719	Santiago Atitlán	14	Cerro de Oro	11	Noviembre	2023-11-14T00:00:00	2024-11-08T20:00:00	5	Humedad	73
184237	7	Sololá	719	Santiago Atitlán	14	Cerro de Oro	11	Noviembre	2023-11-14T00:00:00	2024-11-08T20:00:00	6	Velocidad del viento	3.2
184238	7	Sololá	719	Santiago Atitlán	14	Cerro de Oro	11	Noviembre	2023-11-14T00:00:00	2024-11-08T20:00:00	7	Dirección del viento	3.22
184239	7	Sololá	719	Santiago Atitlán	14	Cerro de Oro	11	Noviembre	2023-11-14T00:00:00	2024-11-08T20:00:00	1	Precipitación	0
184240	7	Sololá	719	Santiago Atitlán	14	Cerro de Oro	11	Noviembre	2023-11-14T00:00:00	2024-11-08T20:00:00	8	Radiación solar	0
184241	7	Sololá	719	Santiago Atitlán	14	Cerro de Oro	11	Noviembre	2023-11-14T00:00:00	2024-11-08T21:00:00	2	Temperatura media	21.4
184242	7	Sololá	719	Santiago Atitlán	14	Cerro de Oro	11	Noviembre	2023-11-14T00:00:00	2024-11-08T21:00:00	4	Temperatura máxima	21.5
184243	7	Sololá	719	Santiago Atitlán	14	Cerro de Oro	11	Noviembre	2023-11-14T00:00:00	2024-11-08T21:00:00	3	Temperatura mínima	21.3
184244	7	Sololá	719	Santiago Atitlán	14	Cerro de Oro	11	Noviembre	2023-11-14T00:00:00	2024-11-08T21:00:00	5	Humedad	72
184245	7	Sololá	719	Santiago Atitlán	14	Cerro de Oro	11	Noviembre	2023-11-14T00:00:00	2024-11-08T21:00:00	6	Velocidad del viento	3.2
184246	7	Sololá	719	Santiago Atitlán	14	Cerro de Oro	11	Noviembre	2023-11-14T00:00:00	2024-11-08T21:00:00	7	Dirección del viento	3.22
184247	7	Sololá	719	Santiago Atitlán	14	Cerro de Oro	11	Noviembre	2023-11-14T00:00:00	2024-11-08T21:00:00	1	Precipitación	0
184248	7	Sololá	719	Santiago Atitlán	14	Cerro de Oro	11	Noviembre	2023-11-14T00:00:00	2024-11-08T21:00:00	8	Radiación solar	0
184249	7	Sololá	719	Santiago Atitlán	14	Cerro de Oro	11	Noviembre	2023-11-14T00:00:00	2024-11-08T22:00:00	2	Temperatura media	20.9
184250	7	Sololá	719	Santiago Atitlán	14	Cerro de Oro	11	Noviembre	2023-11-14T00:00:00	2024-11-08T22:00:00	4	Temperatura máxima	21.4
184251	7	Sololá	719	Santiago Atitlán	14	Cerro de Oro	11	Noviembre	2023-11-14T00:00:00	2024-11-08T22:00:00	3	Temperatura mínima	20.9
184252	7	Sololá	719	Santiago Atitlán	14	Cerro de Oro	11	Noviembre	2023-11-14T00:00:00	2024-11-08T22:00:00	5	Humedad	72
184253	7	Sololá	719	Santiago Atitlán	14	Cerro de Oro	11	Noviembre	2023-11-14T00:00:00	2024-11-08T22:00:00	6	Velocidad del viento	3.2
184254	7	Sololá	719	Santiago Atitlán	14	Cerro de Oro	11	Noviembre	2023-11-14T00:00:00	2024-11-08T22:00:00	7	Dirección del viento	3.22
184255	7	Sololá	719	Santiago Atitlán	14	Cerro de Oro	11	Noviembre	2023-11-14T00:00:00	2024-11-08T22:00:00	1	Precipitación	0
184256	7	Sololá	719	Santiago Atitlán	14	Cerro de Oro	11	Noviembre	2023-11-14T00:00:00	2024-11-08T22:00:00	8	Radiación solar	0
184257	7	Sololá	719	Santiago Atitlán	14	Cerro de Oro	11	Noviembre	2023-11-14T00:00:00	2024-11-08T23:00:00	2	Temperatura media	20.8
184258	7	Sololá	719	Santiago Atitlán	14	Cerro de Oro	11	Noviembre	2023-11-14T00:00:00	2024-11-08T23:00:00	4	Temperatura máxima	21.2
184259	7	Sololá	719	Santiago Atitlán	14	Cerro de Oro	11	Noviembre	2023-11-14T00:00:00	2024-11-08T23:00:00	3	Temperatura mínima	20.7
184260	7	Sololá	719	Santiago Atitlán	14	Cerro de Oro	11	Noviembre	2023-11-14T00:00:00	2024-11-08T23:00:00	5	Humedad	72
184261	7	Sololá	719	Santiago Atitlán	14	Cerro de Oro	11	Noviembre	2023-11-14T00:00:00	2024-11-08T23:00:00	6	Velocidad del viento	4.8
184262	7	Sololá	719	Santiago Atitlán	14	Cerro de Oro	11	Noviembre	2023-11-14T00:00:00	2024-11-08T23:00:00	7	Dirección del viento	4.83
184263	7	Sololá	719	Santiago Atitlán	14	Cerro de Oro	11	Noviembre	2023-11-14T00:00:00	2024-11-08T23:00:00	1	Precipitación	0
184264	7	Sololá	719	Santiago Atitlán	14	Cerro de Oro	11	Noviembre	2023-11-14T00:00:00	2024-11-08T23:00:00	8	Radiación solar	0
184265	7	Sololá	719	Santiago Atitlán	14	Cerro de Oro	11	Noviembre	2023-11-15T00:00:00	2024-11-08T00:00:00	2	Temperatura media	20.5
184266	7	Sololá	719	Santiago Atitlán	14	Cerro de Oro	11	Noviembre	2023-11-15T00:00:00	2024-11-08T00:00:00	4	Temperatura máxima	20.9
184267	7	Sololá	719	Santiago Atitlán	14	Cerro de Oro	11	Noviembre	2023-11-15T00:00:00	2024-11-08T00:00:00	3	Temperatura mínima	20.5
184268	7	Sololá	719	Santiago Atitlán	14	Cerro de Oro	11	Noviembre	2023-11-15T00:00:00	2024-11-08T00:00:00	5	Humedad	76
184269	7	Sololá	719	Santiago Atitlán	14	Cerro de Oro	11	Noviembre	2023-11-15T00:00:00	2024-11-08T00:00:00	6	Velocidad del viento	3.2
184270	7	Sololá	719	Santiago Atitlán	14	Cerro de Oro	11	Noviembre	2023-11-15T00:00:00	2024-11-08T00:00:00	7	Dirección del viento	3.22
184271	7	Sololá	719	Santiago Atitlán	14	Cerro de Oro	11	Noviembre	2023-11-15T00:00:00	2024-11-08T00:00:00	1	Precipitación	0
184272	7	Sololá	719	Santiago Atitlán	14	Cerro de Oro	11	Noviembre	2023-11-15T00:00:00	2024-11-08T00:00:00	8	Radiación solar	0
184273	7	Sololá	719	Santiago Atitlán	14	Cerro de Oro	11	Noviembre	2023-11-15T00:00:00	2024-11-08T01:00:00	2	Temperatura media	19.4
184274	7	Sololá	719	Santiago Atitlán	14	Cerro de Oro	11	Noviembre	2023-11-15T00:00:00	2024-11-08T01:00:00	4	Temperatura máxima	20.5
184275	7	Sololá	719	Santiago Atitlán	14	Cerro de Oro	11	Noviembre	2023-11-15T00:00:00	2024-11-08T01:00:00	3	Temperatura mínima	19.4
184276	7	Sololá	719	Santiago Atitlán	14	Cerro de Oro	11	Noviembre	2023-11-15T00:00:00	2024-11-08T01:00:00	5	Humedad	82
184277	7	Sololá	719	Santiago Atitlán	14	Cerro de Oro	11	Noviembre	2023-11-15T00:00:00	2024-11-08T01:00:00	6	Velocidad del viento	0
184278	7	Sololá	719	Santiago Atitlán	14	Cerro de Oro	11	Noviembre	2023-11-15T00:00:00	2024-11-08T01:00:00	7	Dirección del viento	0
184279	7	Sololá	719	Santiago Atitlán	14	Cerro de Oro	11	Noviembre	2023-11-15T00:00:00	2024-11-08T01:00:00	1	Precipitación	0
184280	7	Sololá	719	Santiago Atitlán	14	Cerro de Oro	11	Noviembre	2023-11-15T00:00:00	2024-11-08T01:00:00	8	Radiación solar	0
184281	7	Sololá	719	Santiago Atitlán	14	Cerro de Oro	11	Noviembre	2023-11-15T00:00:00	2024-11-08T02:00:00	2	Temperatura media	18.9
184282	7	Sololá	719	Santiago Atitlán	14	Cerro de Oro	11	Noviembre	2023-11-15T00:00:00	2024-11-08T02:00:00	4	Temperatura máxima	19.4
184283	7	Sololá	719	Santiago Atitlán	14	Cerro de Oro	11	Noviembre	2023-11-15T00:00:00	2024-11-08T02:00:00	3	Temperatura mínima	18.6
184284	7	Sololá	719	Santiago Atitlán	14	Cerro de Oro	11	Noviembre	2023-11-15T00:00:00	2024-11-08T02:00:00	5	Humedad	85
184285	7	Sololá	719	Santiago Atitlán	14	Cerro de Oro	11	Noviembre	2023-11-15T00:00:00	2024-11-08T02:00:00	6	Velocidad del viento	0
184286	7	Sololá	719	Santiago Atitlán	14	Cerro de Oro	11	Noviembre	2023-11-15T00:00:00	2024-11-08T02:00:00	7	Dirección del viento	0
184287	7	Sololá	719	Santiago Atitlán	14	Cerro de Oro	11	Noviembre	2023-11-15T00:00:00	2024-11-08T02:00:00	1	Precipitación	0
184288	7	Sololá	719	Santiago Atitlán	14	Cerro de Oro	11	Noviembre	2023-11-15T00:00:00	2024-11-08T02:00:00	8	Radiación solar	0
184289	7	Sololá	719	Santiago Atitlán	14	Cerro de Oro	11	Noviembre	2023-11-15T00:00:00	2024-11-08T03:00:00	2	Temperatura media	19
184290	7	Sololá	719	Santiago Atitlán	14	Cerro de Oro	11	Noviembre	2023-11-15T00:00:00	2024-11-08T03:00:00	4	Temperatura máxima	19.2
184291	7	Sololá	719	Santiago Atitlán	14	Cerro de Oro	11	Noviembre	2023-11-15T00:00:00	2024-11-08T03:00:00	3	Temperatura mínima	18.9
184292	7	Sololá	719	Santiago Atitlán	14	Cerro de Oro	11	Noviembre	2023-11-15T00:00:00	2024-11-08T03:00:00	5	Humedad	84
184293	7	Sololá	719	Santiago Atitlán	14	Cerro de Oro	11	Noviembre	2023-11-15T00:00:00	2024-11-08T03:00:00	6	Velocidad del viento	0
184294	7	Sololá	719	Santiago Atitlán	14	Cerro de Oro	11	Noviembre	2023-11-15T00:00:00	2024-11-08T03:00:00	7	Dirección del viento	0
184295	7	Sololá	719	Santiago Atitlán	14	Cerro de Oro	11	Noviembre	2023-11-15T00:00:00	2024-11-08T03:00:00	1	Precipitación	0
184296	7	Sololá	719	Santiago Atitlán	14	Cerro de Oro	11	Noviembre	2023-11-15T00:00:00	2024-11-08T03:00:00	8	Radiación solar	0
184297	7	Sololá	719	Santiago Atitlán	14	Cerro de Oro	11	Noviembre	2023-11-15T00:00:00	2024-11-08T04:00:00	2	Temperatura media	18.6
184298	7	Sololá	719	Santiago Atitlán	14	Cerro de Oro	11	Noviembre	2023-11-15T00:00:00	2024-11-08T04:00:00	4	Temperatura máxima	19
184299	7	Sololá	719	Santiago Atitlán	14	Cerro de Oro	11	Noviembre	2023-11-15T00:00:00	2024-11-08T04:00:00	3	Temperatura mínima	18.6
184300	7	Sololá	719	Santiago Atitlán	14	Cerro de Oro	11	Noviembre	2023-11-15T00:00:00	2024-11-08T04:00:00	5	Humedad	84
184301	7	Sololá	719	Santiago Atitlán	14	Cerro de Oro	11	Noviembre	2023-11-15T00:00:00	2024-11-08T04:00:00	6	Velocidad del viento	0
184302	7	Sololá	719	Santiago Atitlán	14	Cerro de Oro	11	Noviembre	2023-11-15T00:00:00	2024-11-08T04:00:00	7	Dirección del viento	0
184303	7	Sololá	719	Santiago Atitlán	14	Cerro de Oro	11	Noviembre	2023-11-15T00:00:00	2024-11-08T04:00:00	1	Precipitación	0
184304	7	Sololá	719	Santiago Atitlán	14	Cerro de Oro	11	Noviembre	2023-11-15T00:00:00	2024-11-08T04:00:00	8	Radiación solar	0
184305	7	Sololá	719	Santiago Atitlán	14	Cerro de Oro	11	Noviembre	2023-11-15T00:00:00	2024-11-08T05:00:00	2	Temperatura media	19.4
184306	7	Sololá	719	Santiago Atitlán	14	Cerro de Oro	11	Noviembre	2023-11-15T00:00:00	2024-11-08T05:00:00	4	Temperatura máxima	19.4
184307	7	Sololá	719	Santiago Atitlán	14	Cerro de Oro	11	Noviembre	2023-11-15T00:00:00	2024-11-08T05:00:00	3	Temperatura mínima	18.3
184308	7	Sololá	719	Santiago Atitlán	14	Cerro de Oro	11	Noviembre	2023-11-15T00:00:00	2024-11-08T05:00:00	5	Humedad	81
184309	7	Sololá	719	Santiago Atitlán	14	Cerro de Oro	11	Noviembre	2023-11-15T00:00:00	2024-11-08T05:00:00	6	Velocidad del viento	0
184310	7	Sololá	719	Santiago Atitlán	14	Cerro de Oro	11	Noviembre	2023-11-15T00:00:00	2024-11-08T05:00:00	7	Dirección del viento	0
184311	7	Sololá	719	Santiago Atitlán	14	Cerro de Oro	11	Noviembre	2023-11-15T00:00:00	2024-11-08T05:00:00	1	Precipitación	0
184312	7	Sololá	719	Santiago Atitlán	14	Cerro de Oro	11	Noviembre	2023-11-15T00:00:00	2024-11-08T05:00:00	8	Radiación solar	0
184313	7	Sololá	719	Santiago Atitlán	14	Cerro de Oro	11	Noviembre	2023-11-15T00:00:00	2024-11-08T06:00:00	2	Temperatura media	19.7
184314	7	Sololá	719	Santiago Atitlán	14	Cerro de Oro	11	Noviembre	2023-11-15T00:00:00	2024-11-08T06:00:00	4	Temperatura máxima	19.7
184315	7	Sololá	719	Santiago Atitlán	14	Cerro de Oro	11	Noviembre	2023-11-15T00:00:00	2024-11-08T06:00:00	3	Temperatura mínima	18.9
184316	7	Sololá	719	Santiago Atitlán	14	Cerro de Oro	11	Noviembre	2023-11-15T00:00:00	2024-11-08T06:00:00	5	Humedad	83
184317	7	Sololá	719	Santiago Atitlán	14	Cerro de Oro	11	Noviembre	2023-11-15T00:00:00	2024-11-08T06:00:00	6	Velocidad del viento	0
184318	7	Sololá	719	Santiago Atitlán	14	Cerro de Oro	11	Noviembre	2023-11-15T00:00:00	2024-11-08T06:00:00	7	Dirección del viento	0
184319	7	Sololá	719	Santiago Atitlán	14	Cerro de Oro	11	Noviembre	2023-11-15T00:00:00	2024-11-08T06:00:00	1	Precipitación	0
184320	7	Sololá	719	Santiago Atitlán	14	Cerro de Oro	11	Noviembre	2023-11-15T00:00:00	2024-11-08T06:00:00	8	Radiación solar	35
184321	7	Sololá	719	Santiago Atitlán	14	Cerro de Oro	11	Noviembre	2023-11-15T00:00:00	2024-11-08T07:00:00	2	Temperatura media	22.7
184322	7	Sololá	719	Santiago Atitlán	14	Cerro de Oro	11	Noviembre	2023-11-15T00:00:00	2024-11-08T07:00:00	4	Temperatura máxima	22.7
184323	7	Sololá	719	Santiago Atitlán	14	Cerro de Oro	11	Noviembre	2023-11-15T00:00:00	2024-11-08T07:00:00	3	Temperatura mínima	19.7
184324	7	Sololá	719	Santiago Atitlán	14	Cerro de Oro	11	Noviembre	2023-11-15T00:00:00	2024-11-08T07:00:00	5	Humedad	69
184325	7	Sololá	719	Santiago Atitlán	14	Cerro de Oro	11	Noviembre	2023-11-15T00:00:00	2024-11-08T07:00:00	6	Velocidad del viento	1.6
184326	7	Sololá	719	Santiago Atitlán	14	Cerro de Oro	11	Noviembre	2023-11-15T00:00:00	2024-11-08T07:00:00	7	Dirección del viento	1.61
184327	7	Sololá	719	Santiago Atitlán	14	Cerro de Oro	11	Noviembre	2023-11-15T00:00:00	2024-11-08T07:00:00	1	Precipitación	0
184328	7	Sololá	719	Santiago Atitlán	14	Cerro de Oro	11	Noviembre	2023-11-15T00:00:00	2024-11-08T07:00:00	8	Radiación solar	276
184329	7	Sololá	719	Santiago Atitlán	14	Cerro de Oro	11	Noviembre	2023-11-15T00:00:00	2024-11-08T08:00:00	2	Temperatura media	24.2
184330	7	Sololá	719	Santiago Atitlán	14	Cerro de Oro	11	Noviembre	2023-11-15T00:00:00	2024-11-08T08:00:00	4	Temperatura máxima	24.2
184331	7	Sololá	719	Santiago Atitlán	14	Cerro de Oro	11	Noviembre	2023-11-15T00:00:00	2024-11-08T08:00:00	3	Temperatura mínima	21.9
184332	7	Sololá	719	Santiago Atitlán	14	Cerro de Oro	11	Noviembre	2023-11-15T00:00:00	2024-11-08T08:00:00	5	Humedad	63
184333	7	Sololá	719	Santiago Atitlán	14	Cerro de Oro	11	Noviembre	2023-11-15T00:00:00	2024-11-08T08:00:00	6	Velocidad del viento	3.2
184334	7	Sololá	719	Santiago Atitlán	14	Cerro de Oro	11	Noviembre	2023-11-15T00:00:00	2024-11-08T08:00:00	7	Dirección del viento	3.22
184335	7	Sololá	719	Santiago Atitlán	14	Cerro de Oro	11	Noviembre	2023-11-15T00:00:00	2024-11-08T08:00:00	1	Precipitación	0
184336	7	Sololá	719	Santiago Atitlán	14	Cerro de Oro	11	Noviembre	2023-11-15T00:00:00	2024-11-08T08:00:00	8	Radiación solar	401
184337	7	Sololá	719	Santiago Atitlán	14	Cerro de Oro	11	Noviembre	2023-11-15T00:00:00	2024-11-08T09:00:00	2	Temperatura media	25.2
184338	7	Sololá	719	Santiago Atitlán	14	Cerro de Oro	11	Noviembre	2023-11-15T00:00:00	2024-11-08T09:00:00	4	Temperatura máxima	25.2
184339	7	Sololá	719	Santiago Atitlán	14	Cerro de Oro	11	Noviembre	2023-11-15T00:00:00	2024-11-08T09:00:00	3	Temperatura mínima	24.1
184340	7	Sololá	719	Santiago Atitlán	14	Cerro de Oro	11	Noviembre	2023-11-15T00:00:00	2024-11-08T09:00:00	5	Humedad	60
184341	7	Sololá	719	Santiago Atitlán	14	Cerro de Oro	11	Noviembre	2023-11-15T00:00:00	2024-11-08T09:00:00	6	Velocidad del viento	6.4
184342	7	Sololá	719	Santiago Atitlán	14	Cerro de Oro	11	Noviembre	2023-11-15T00:00:00	2024-11-08T09:00:00	7	Dirección del viento	6.44
184343	7	Sololá	719	Santiago Atitlán	14	Cerro de Oro	11	Noviembre	2023-11-15T00:00:00	2024-11-08T09:00:00	1	Precipitación	0
184344	7	Sololá	719	Santiago Atitlán	14	Cerro de Oro	11	Noviembre	2023-11-15T00:00:00	2024-11-08T09:00:00	8	Radiación solar	578
184345	7	Sololá	719	Santiago Atitlán	14	Cerro de Oro	11	Noviembre	2023-11-15T00:00:00	2024-11-08T10:00:00	2	Temperatura media	25.7
184346	7	Sololá	719	Santiago Atitlán	14	Cerro de Oro	11	Noviembre	2023-11-15T00:00:00	2024-11-08T10:00:00	4	Temperatura máxima	25.8
184347	7	Sololá	719	Santiago Atitlán	14	Cerro de Oro	11	Noviembre	2023-11-15T00:00:00	2024-11-08T10:00:00	3	Temperatura mínima	25.2
184348	7	Sololá	719	Santiago Atitlán	14	Cerro de Oro	11	Noviembre	2023-11-15T00:00:00	2024-11-08T10:00:00	5	Humedad	59
184349	7	Sololá	719	Santiago Atitlán	14	Cerro de Oro	11	Noviembre	2023-11-15T00:00:00	2024-11-08T10:00:00	6	Velocidad del viento	6.4
184350	7	Sololá	719	Santiago Atitlán	14	Cerro de Oro	11	Noviembre	2023-11-15T00:00:00	2024-11-08T10:00:00	7	Dirección del viento	6.44
184351	7	Sololá	719	Santiago Atitlán	14	Cerro de Oro	11	Noviembre	2023-11-15T00:00:00	2024-11-08T10:00:00	1	Precipitación	0
184352	7	Sololá	719	Santiago Atitlán	14	Cerro de Oro	11	Noviembre	2023-11-15T00:00:00	2024-11-08T10:00:00	8	Radiación solar	720
184353	7	Sololá	719	Santiago Atitlán	14	Cerro de Oro	11	Noviembre	2023-11-15T00:00:00	2024-11-08T11:00:00	2	Temperatura media	26.6
184354	7	Sololá	719	Santiago Atitlán	14	Cerro de Oro	11	Noviembre	2023-11-15T00:00:00	2024-11-08T11:00:00	4	Temperatura máxima	26.7
184355	7	Sololá	719	Santiago Atitlán	14	Cerro de Oro	11	Noviembre	2023-11-15T00:00:00	2024-11-08T11:00:00	3	Temperatura mínima	25.6
184356	7	Sololá	719	Santiago Atitlán	14	Cerro de Oro	11	Noviembre	2023-11-15T00:00:00	2024-11-08T11:00:00	5	Humedad	57
184357	7	Sololá	719	Santiago Atitlán	14	Cerro de Oro	11	Noviembre	2023-11-15T00:00:00	2024-11-08T11:00:00	6	Velocidad del viento	6.4
184358	7	Sololá	719	Santiago Atitlán	14	Cerro de Oro	11	Noviembre	2023-11-15T00:00:00	2024-11-08T11:00:00	7	Dirección del viento	6.44
184359	7	Sololá	719	Santiago Atitlán	14	Cerro de Oro	11	Noviembre	2023-11-15T00:00:00	2024-11-08T11:00:00	1	Precipitación	0
184360	7	Sololá	719	Santiago Atitlán	14	Cerro de Oro	11	Noviembre	2023-11-15T00:00:00	2024-11-08T11:00:00	8	Radiación solar	770
184361	7	Sololá	719	Santiago Atitlán	14	Cerro de Oro	11	Noviembre	2023-11-15T00:00:00	2024-11-08T12:00:00	2	Temperatura media	26.4
184362	7	Sololá	719	Santiago Atitlán	14	Cerro de Oro	11	Noviembre	2023-11-15T00:00:00	2024-11-08T12:00:00	4	Temperatura máxima	26.6
184363	7	Sololá	719	Santiago Atitlán	14	Cerro de Oro	11	Noviembre	2023-11-15T00:00:00	2024-11-08T12:00:00	3	Temperatura mínima	26.4
184364	7	Sololá	719	Santiago Atitlán	14	Cerro de Oro	11	Noviembre	2023-11-15T00:00:00	2024-11-08T12:00:00	5	Humedad	55
184365	7	Sololá	719	Santiago Atitlán	14	Cerro de Oro	11	Noviembre	2023-11-15T00:00:00	2024-11-08T12:00:00	6	Velocidad del viento	9.7
184366	7	Sololá	719	Santiago Atitlán	14	Cerro de Oro	11	Noviembre	2023-11-15T00:00:00	2024-11-08T12:00:00	7	Dirección del viento	0.16
184367	7	Sololá	719	Santiago Atitlán	14	Cerro de Oro	11	Noviembre	2023-11-15T00:00:00	2024-11-08T12:00:00	1	Precipitación	0
184368	7	Sololá	719	Santiago Atitlán	14	Cerro de Oro	11	Noviembre	2023-11-15T00:00:00	2024-11-08T12:00:00	8	Radiación solar	768
184369	7	Sololá	719	Santiago Atitlán	14	Cerro de Oro	11	Noviembre	2023-11-15T00:00:00	2024-11-08T13:00:00	2	Temperatura media	26.4
184370	7	Sololá	719	Santiago Atitlán	14	Cerro de Oro	11	Noviembre	2023-11-15T00:00:00	2024-11-08T13:00:00	4	Temperatura máxima	26.4
184371	7	Sololá	719	Santiago Atitlán	14	Cerro de Oro	11	Noviembre	2023-11-15T00:00:00	2024-11-08T13:00:00	3	Temperatura mínima	26.4
184372	7	Sololá	719	Santiago Atitlán	14	Cerro de Oro	11	Noviembre	2023-11-15T00:00:00	2024-11-08T13:00:00	5	Humedad	55
184373	7	Sololá	719	Santiago Atitlán	14	Cerro de Oro	11	Noviembre	2023-11-15T00:00:00	2024-11-08T13:00:00	6	Velocidad del viento	9.7
184374	7	Sololá	719	Santiago Atitlán	14	Cerro de Oro	11	Noviembre	2023-11-15T00:00:00	2024-11-08T13:00:00	7	Dirección del viento	0.16
184375	7	Sololá	719	Santiago Atitlán	14	Cerro de Oro	11	Noviembre	2023-11-15T00:00:00	2024-11-08T13:00:00	1	Precipitación	0
184376	7	Sololá	719	Santiago Atitlán	14	Cerro de Oro	11	Noviembre	2023-11-15T00:00:00	2024-11-08T13:00:00	8	Radiación solar	766
184377	7	Sololá	719	Santiago Atitlán	14	Cerro de Oro	11	Noviembre	2023-11-15T00:00:00	2024-11-08T14:00:00	2	Temperatura media	26.2
184378	7	Sololá	719	Santiago Atitlán	14	Cerro de Oro	11	Noviembre	2023-11-15T00:00:00	2024-11-08T14:00:00	4	Temperatura máxima	26.4
184379	7	Sololá	719	Santiago Atitlán	14	Cerro de Oro	11	Noviembre	2023-11-15T00:00:00	2024-11-08T14:00:00	3	Temperatura mínima	26.1
184380	7	Sololá	719	Santiago Atitlán	14	Cerro de Oro	11	Noviembre	2023-11-15T00:00:00	2024-11-08T14:00:00	5	Humedad	58
184381	7	Sololá	719	Santiago Atitlán	14	Cerro de Oro	11	Noviembre	2023-11-15T00:00:00	2024-11-08T14:00:00	6	Velocidad del viento	11.3
184382	7	Sololá	719	Santiago Atitlán	14	Cerro de Oro	11	Noviembre	2023-11-15T00:00:00	2024-11-08T14:00:00	7	Dirección del viento	11.27
184383	7	Sololá	719	Santiago Atitlán	14	Cerro de Oro	11	Noviembre	2023-11-15T00:00:00	2024-11-08T14:00:00	1	Precipitación	0
184384	7	Sololá	719	Santiago Atitlán	14	Cerro de Oro	11	Noviembre	2023-11-15T00:00:00	2024-11-08T14:00:00	8	Radiación solar	769
184385	7	Sololá	719	Santiago Atitlán	14	Cerro de Oro	11	Noviembre	2023-11-15T00:00:00	2024-11-08T15:00:00	2	Temperatura media	24.8
184386	7	Sololá	719	Santiago Atitlán	14	Cerro de Oro	11	Noviembre	2023-11-15T00:00:00	2024-11-08T15:00:00	4	Temperatura máxima	26.3
184387	7	Sololá	719	Santiago Atitlán	14	Cerro de Oro	11	Noviembre	2023-11-15T00:00:00	2024-11-08T15:00:00	3	Temperatura mínima	24.8
184388	7	Sololá	719	Santiago Atitlán	14	Cerro de Oro	11	Noviembre	2023-11-15T00:00:00	2024-11-08T15:00:00	5	Humedad	69
184389	7	Sololá	719	Santiago Atitlán	14	Cerro de Oro	11	Noviembre	2023-11-15T00:00:00	2024-11-08T15:00:00	6	Velocidad del viento	11.3
184390	7	Sololá	719	Santiago Atitlán	14	Cerro de Oro	11	Noviembre	2023-11-15T00:00:00	2024-11-08T15:00:00	7	Dirección del viento	11.27
184391	7	Sololá	719	Santiago Atitlán	14	Cerro de Oro	11	Noviembre	2023-11-15T00:00:00	2024-11-08T15:00:00	1	Precipitación	0
184392	7	Sololá	719	Santiago Atitlán	14	Cerro de Oro	11	Noviembre	2023-11-15T00:00:00	2024-11-08T15:00:00	8	Radiación solar	611
184393	7	Sololá	719	Santiago Atitlán	14	Cerro de Oro	11	Noviembre	2023-11-15T00:00:00	2024-11-08T16:00:00	2	Temperatura media	23.6
184394	7	Sololá	719	Santiago Atitlán	14	Cerro de Oro	11	Noviembre	2023-11-15T00:00:00	2024-11-08T16:00:00	4	Temperatura máxima	24.9
184395	7	Sololá	719	Santiago Atitlán	14	Cerro de Oro	11	Noviembre	2023-11-15T00:00:00	2024-11-08T16:00:00	3	Temperatura mínima	23.4
184396	7	Sololá	719	Santiago Atitlán	14	Cerro de Oro	11	Noviembre	2023-11-15T00:00:00	2024-11-08T16:00:00	5	Humedad	76
184397	7	Sololá	719	Santiago Atitlán	14	Cerro de Oro	11	Noviembre	2023-11-15T00:00:00	2024-11-08T16:00:00	6	Velocidad del viento	9.7
184398	7	Sololá	719	Santiago Atitlán	14	Cerro de Oro	11	Noviembre	2023-11-15T00:00:00	2024-11-08T16:00:00	7	Dirección del viento	9.66
184399	7	Sololá	719	Santiago Atitlán	14	Cerro de Oro	11	Noviembre	2023-11-15T00:00:00	2024-11-08T16:00:00	1	Precipitación	0
184400	7	Sololá	719	Santiago Atitlán	14	Cerro de Oro	11	Noviembre	2023-11-15T00:00:00	2024-11-08T16:00:00	8	Radiación solar	361
184401	7	Sololá	719	Santiago Atitlán	14	Cerro de Oro	11	Noviembre	2023-11-15T00:00:00	2024-11-08T17:00:00	2	Temperatura media	22.5
184402	7	Sololá	719	Santiago Atitlán	14	Cerro de Oro	11	Noviembre	2023-11-15T00:00:00	2024-11-08T17:00:00	4	Temperatura máxima	24
184403	7	Sololá	719	Santiago Atitlán	14	Cerro de Oro	11	Noviembre	2023-11-15T00:00:00	2024-11-08T17:00:00	3	Temperatura mínima	22.5
184404	7	Sololá	719	Santiago Atitlán	14	Cerro de Oro	11	Noviembre	2023-11-15T00:00:00	2024-11-08T17:00:00	5	Humedad	75
184405	7	Sololá	719	Santiago Atitlán	14	Cerro de Oro	11	Noviembre	2023-11-15T00:00:00	2024-11-08T17:00:00	6	Velocidad del viento	8
184406	7	Sololá	719	Santiago Atitlán	14	Cerro de Oro	11	Noviembre	2023-11-15T00:00:00	2024-11-08T17:00:00	7	Dirección del viento	8.05
184407	7	Sololá	719	Santiago Atitlán	14	Cerro de Oro	11	Noviembre	2023-11-15T00:00:00	2024-11-08T17:00:00	1	Precipitación	0
184408	7	Sololá	719	Santiago Atitlán	14	Cerro de Oro	11	Noviembre	2023-11-15T00:00:00	2024-11-08T17:00:00	8	Radiación solar	157
184409	7	Sololá	719	Santiago Atitlán	14	Cerro de Oro	11	Noviembre	2023-11-15T00:00:00	2024-11-08T18:00:00	2	Temperatura media	22.4
184410	7	Sololá	719	Santiago Atitlán	14	Cerro de Oro	11	Noviembre	2023-11-15T00:00:00	2024-11-08T18:00:00	4	Temperatura máxima	23.1
184411	7	Sololá	719	Santiago Atitlán	14	Cerro de Oro	11	Noviembre	2023-11-15T00:00:00	2024-11-08T18:00:00	3	Temperatura mínima	22.1
184412	7	Sololá	719	Santiago Atitlán	14	Cerro de Oro	11	Noviembre	2023-11-15T00:00:00	2024-11-08T18:00:00	5	Humedad	68
184413	7	Sololá	719	Santiago Atitlán	14	Cerro de Oro	11	Noviembre	2023-11-15T00:00:00	2024-11-08T18:00:00	6	Velocidad del viento	9.7
184414	7	Sololá	719	Santiago Atitlán	14	Cerro de Oro	11	Noviembre	2023-11-15T00:00:00	2024-11-08T18:00:00	7	Dirección del viento	9.66
184415	7	Sololá	719	Santiago Atitlán	14	Cerro de Oro	11	Noviembre	2023-11-15T00:00:00	2024-11-08T18:00:00	1	Precipitación	0
184416	7	Sololá	719	Santiago Atitlán	14	Cerro de Oro	11	Noviembre	2023-11-15T00:00:00	2024-11-08T18:00:00	8	Radiación solar	6
184417	7	Sololá	719	Santiago Atitlán	14	Cerro de Oro	11	Noviembre	2023-11-15T00:00:00	2024-11-08T19:00:00	2	Temperatura media	21.7
184418	7	Sololá	719	Santiago Atitlán	14	Cerro de Oro	11	Noviembre	2023-11-15T00:00:00	2024-11-08T19:00:00	4	Temperatura máxima	22.4
184419	7	Sololá	719	Santiago Atitlán	14	Cerro de Oro	11	Noviembre	2023-11-15T00:00:00	2024-11-08T19:00:00	3	Temperatura mínima	21.6
184420	7	Sololá	719	Santiago Atitlán	14	Cerro de Oro	11	Noviembre	2023-11-15T00:00:00	2024-11-08T19:00:00	5	Humedad	69
184421	7	Sololá	719	Santiago Atitlán	14	Cerro de Oro	11	Noviembre	2023-11-15T00:00:00	2024-11-08T19:00:00	6	Velocidad del viento	12.9
184422	7	Sololá	719	Santiago Atitlán	14	Cerro de Oro	11	Noviembre	2023-11-15T00:00:00	2024-11-08T19:00:00	7	Dirección del viento	12.87
184423	7	Sololá	719	Santiago Atitlán	14	Cerro de Oro	11	Noviembre	2023-11-15T00:00:00	2024-11-08T19:00:00	1	Precipitación	0
184424	7	Sololá	719	Santiago Atitlán	14	Cerro de Oro	11	Noviembre	2023-11-15T00:00:00	2024-11-08T19:00:00	8	Radiación solar	0
184425	7	Sololá	719	Santiago Atitlán	14	Cerro de Oro	11	Noviembre	2023-11-15T00:00:00	2024-11-08T20:00:00	2	Temperatura media	21.7
184426	7	Sololá	719	Santiago Atitlán	14	Cerro de Oro	11	Noviembre	2023-11-15T00:00:00	2024-11-08T20:00:00	4	Temperatura máxima	21.7
184427	7	Sololá	719	Santiago Atitlán	14	Cerro de Oro	11	Noviembre	2023-11-15T00:00:00	2024-11-08T20:00:00	3	Temperatura mínima	20.7
184428	7	Sololá	719	Santiago Atitlán	14	Cerro de Oro	11	Noviembre	2023-11-15T00:00:00	2024-11-08T20:00:00	5	Humedad	69
184429	7	Sololá	719	Santiago Atitlán	14	Cerro de Oro	11	Noviembre	2023-11-15T00:00:00	2024-11-08T20:00:00	6	Velocidad del viento	9.7
184430	7	Sololá	719	Santiago Atitlán	14	Cerro de Oro	11	Noviembre	2023-11-15T00:00:00	2024-11-08T20:00:00	7	Dirección del viento	9.66
184431	7	Sololá	719	Santiago Atitlán	14	Cerro de Oro	11	Noviembre	2023-11-15T00:00:00	2024-11-08T20:00:00	1	Precipitación	0
184432	7	Sololá	719	Santiago Atitlán	14	Cerro de Oro	11	Noviembre	2023-11-15T00:00:00	2024-11-08T20:00:00	8	Radiación solar	0
184433	7	Sololá	719	Santiago Atitlán	14	Cerro de Oro	11	Noviembre	2023-11-15T00:00:00	2024-11-08T21:00:00	2	Temperatura media	21.4
184434	7	Sololá	719	Santiago Atitlán	14	Cerro de Oro	11	Noviembre	2023-11-15T00:00:00	2024-11-08T21:00:00	4	Temperatura máxima	21.7
184435	7	Sololá	719	Santiago Atitlán	14	Cerro de Oro	11	Noviembre	2023-11-15T00:00:00	2024-11-08T21:00:00	3	Temperatura mínima	21.4
184436	7	Sololá	719	Santiago Atitlán	14	Cerro de Oro	11	Noviembre	2023-11-15T00:00:00	2024-11-08T21:00:00	5	Humedad	69
184437	7	Sololá	719	Santiago Atitlán	14	Cerro de Oro	11	Noviembre	2023-11-15T00:00:00	2024-11-08T21:00:00	6	Velocidad del viento	17.7
184438	7	Sololá	719	Santiago Atitlán	14	Cerro de Oro	11	Noviembre	2023-11-15T00:00:00	2024-11-08T21:00:00	7	Dirección del viento	17.7
184439	7	Sololá	719	Santiago Atitlán	14	Cerro de Oro	11	Noviembre	2023-11-15T00:00:00	2024-11-08T21:00:00	1	Precipitación	0
184440	7	Sololá	719	Santiago Atitlán	14	Cerro de Oro	11	Noviembre	2023-11-15T00:00:00	2024-11-08T21:00:00	8	Radiación solar	0
184441	7	Sololá	719	Santiago Atitlán	14	Cerro de Oro	11	Noviembre	2023-11-15T00:00:00	2024-11-08T22:00:00	2	Temperatura media	21.3
184442	7	Sololá	719	Santiago Atitlán	14	Cerro de Oro	11	Noviembre	2023-11-15T00:00:00	2024-11-08T22:00:00	4	Temperatura máxima	21.5
184443	7	Sololá	719	Santiago Atitlán	14	Cerro de Oro	11	Noviembre	2023-11-15T00:00:00	2024-11-08T22:00:00	3	Temperatura mínima	21.3
184444	7	Sololá	719	Santiago Atitlán	14	Cerro de Oro	11	Noviembre	2023-11-15T00:00:00	2024-11-08T22:00:00	5	Humedad	68
184445	7	Sololá	719	Santiago Atitlán	14	Cerro de Oro	11	Noviembre	2023-11-15T00:00:00	2024-11-08T22:00:00	6	Velocidad del viento	16.1
184446	7	Sololá	719	Santiago Atitlán	14	Cerro de Oro	11	Noviembre	2023-11-15T00:00:00	2024-11-08T22:00:00	7	Dirección del viento	16.09
184447	7	Sololá	719	Santiago Atitlán	14	Cerro de Oro	11	Noviembre	2023-11-15T00:00:00	2024-11-08T22:00:00	1	Precipitación	0
184448	7	Sololá	719	Santiago Atitlán	14	Cerro de Oro	11	Noviembre	2023-11-15T00:00:00	2024-11-08T22:00:00	8	Radiación solar	0
184449	7	Sololá	719	Santiago Atitlán	14	Cerro de Oro	11	Noviembre	2023-11-15T00:00:00	2024-11-08T23:00:00	2	Temperatura media	21.1
184450	7	Sololá	719	Santiago Atitlán	14	Cerro de Oro	11	Noviembre	2023-11-15T00:00:00	2024-11-08T23:00:00	4	Temperatura máxima	21.4
184451	7	Sololá	719	Santiago Atitlán	14	Cerro de Oro	11	Noviembre	2023-11-15T00:00:00	2024-11-08T23:00:00	3	Temperatura mínima	21.1
184452	7	Sololá	719	Santiago Atitlán	14	Cerro de Oro	11	Noviembre	2023-11-15T00:00:00	2024-11-08T23:00:00	5	Humedad	66
184453	7	Sololá	719	Santiago Atitlán	14	Cerro de Oro	11	Noviembre	2023-11-15T00:00:00	2024-11-08T23:00:00	6	Velocidad del viento	9.7
184454	7	Sololá	719	Santiago Atitlán	14	Cerro de Oro	11	Noviembre	2023-11-15T00:00:00	2024-11-08T23:00:00	7	Dirección del viento	9.66
184455	7	Sololá	719	Santiago Atitlán	14	Cerro de Oro	11	Noviembre	2023-11-15T00:00:00	2024-11-08T23:00:00	1	Precipitación	0
184456	7	Sololá	719	Santiago Atitlán	14	Cerro de Oro	11	Noviembre	2023-11-15T00:00:00	2024-11-08T23:00:00	8	Radiación solar	0
184457	7	Sololá	719	Santiago Atitlán	14	Cerro de Oro	11	Noviembre	2023-11-16T00:00:00	2024-11-08T00:00:00	2	Temperatura media	19.8
184458	7	Sololá	719	Santiago Atitlán	14	Cerro de Oro	11	Noviembre	2023-11-16T00:00:00	2024-11-08T00:00:00	4	Temperatura máxima	21.1
184459	7	Sololá	719	Santiago Atitlán	14	Cerro de Oro	11	Noviembre	2023-11-16T00:00:00	2024-11-08T00:00:00	3	Temperatura mínima	19.8
184460	7	Sololá	719	Santiago Atitlán	14	Cerro de Oro	11	Noviembre	2023-11-16T00:00:00	2024-11-08T00:00:00	5	Humedad	68
184461	7	Sololá	719	Santiago Atitlán	14	Cerro de Oro	11	Noviembre	2023-11-16T00:00:00	2024-11-08T00:00:00	6	Velocidad del viento	8
184462	7	Sololá	719	Santiago Atitlán	14	Cerro de Oro	11	Noviembre	2023-11-16T00:00:00	2024-11-08T00:00:00	7	Dirección del viento	8.05
184463	7	Sololá	719	Santiago Atitlán	14	Cerro de Oro	11	Noviembre	2023-11-16T00:00:00	2024-11-08T00:00:00	1	Precipitación	0
184464	7	Sololá	719	Santiago Atitlán	14	Cerro de Oro	11	Noviembre	2023-11-16T00:00:00	2024-11-08T00:00:00	8	Radiación solar	0
184465	7	Sololá	719	Santiago Atitlán	14	Cerro de Oro	11	Noviembre	2023-11-16T00:00:00	2024-11-08T01:00:00	2	Temperatura media	18.5
184466	7	Sololá	719	Santiago Atitlán	14	Cerro de Oro	11	Noviembre	2023-11-16T00:00:00	2024-11-08T01:00:00	4	Temperatura máxima	19.7
184467	7	Sololá	719	Santiago Atitlán	14	Cerro de Oro	11	Noviembre	2023-11-16T00:00:00	2024-11-08T01:00:00	3	Temperatura mínima	18.2
184468	7	Sololá	719	Santiago Atitlán	14	Cerro de Oro	11	Noviembre	2023-11-16T00:00:00	2024-11-08T01:00:00	5	Humedad	81
184469	7	Sololá	719	Santiago Atitlán	14	Cerro de Oro	11	Noviembre	2023-11-16T00:00:00	2024-11-08T01:00:00	6	Velocidad del viento	4.8
184470	7	Sololá	719	Santiago Atitlán	14	Cerro de Oro	11	Noviembre	2023-11-16T00:00:00	2024-11-08T01:00:00	7	Dirección del viento	4.83
184471	7	Sololá	719	Santiago Atitlán	14	Cerro de Oro	11	Noviembre	2023-11-16T00:00:00	2024-11-08T01:00:00	1	Precipitación	0
184472	7	Sololá	719	Santiago Atitlán	14	Cerro de Oro	11	Noviembre	2023-11-16T00:00:00	2024-11-08T01:00:00	8	Radiación solar	0
184473	7	Sololá	719	Santiago Atitlán	14	Cerro de Oro	11	Noviembre	2023-11-16T00:00:00	2024-11-08T02:00:00	2	Temperatura media	18.2
184474	7	Sololá	719	Santiago Atitlán	14	Cerro de Oro	11	Noviembre	2023-11-16T00:00:00	2024-11-08T02:00:00	4	Temperatura máxima	18.8
184475	7	Sololá	719	Santiago Atitlán	14	Cerro de Oro	11	Noviembre	2023-11-16T00:00:00	2024-11-08T02:00:00	3	Temperatura mínima	18.1
184476	7	Sololá	719	Santiago Atitlán	14	Cerro de Oro	11	Noviembre	2023-11-16T00:00:00	2024-11-08T02:00:00	5	Humedad	82
184477	7	Sololá	719	Santiago Atitlán	14	Cerro de Oro	11	Noviembre	2023-11-16T00:00:00	2024-11-08T02:00:00	6	Velocidad del viento	3.2
184478	7	Sololá	719	Santiago Atitlán	14	Cerro de Oro	11	Noviembre	2023-11-16T00:00:00	2024-11-08T02:00:00	7	Dirección del viento	3.22
184479	7	Sololá	719	Santiago Atitlán	14	Cerro de Oro	11	Noviembre	2023-11-16T00:00:00	2024-11-08T02:00:00	1	Precipitación	0
184480	7	Sololá	719	Santiago Atitlán	14	Cerro de Oro	11	Noviembre	2023-11-16T00:00:00	2024-11-08T02:00:00	8	Radiación solar	0
184481	7	Sololá	719	Santiago Atitlán	14	Cerro de Oro	11	Noviembre	2023-11-16T00:00:00	2024-11-08T03:00:00	2	Temperatura media	18.9
184482	7	Sololá	719	Santiago Atitlán	14	Cerro de Oro	11	Noviembre	2023-11-16T00:00:00	2024-11-08T03:00:00	4	Temperatura máxima	18.9
184483	7	Sololá	719	Santiago Atitlán	14	Cerro de Oro	11	Noviembre	2023-11-16T00:00:00	2024-11-08T03:00:00	3	Temperatura mínima	17.7
184484	7	Sololá	719	Santiago Atitlán	14	Cerro de Oro	11	Noviembre	2023-11-16T00:00:00	2024-11-08T03:00:00	5	Humedad	76
184485	7	Sololá	719	Santiago Atitlán	14	Cerro de Oro	11	Noviembre	2023-11-16T00:00:00	2024-11-08T03:00:00	6	Velocidad del viento	6.4
184486	7	Sololá	719	Santiago Atitlán	14	Cerro de Oro	11	Noviembre	2023-11-16T00:00:00	2024-11-08T03:00:00	7	Dirección del viento	6.44
184487	7	Sololá	719	Santiago Atitlán	14	Cerro de Oro	11	Noviembre	2023-11-16T00:00:00	2024-11-08T03:00:00	1	Precipitación	0
184488	7	Sololá	719	Santiago Atitlán	14	Cerro de Oro	11	Noviembre	2023-11-16T00:00:00	2024-11-08T03:00:00	8	Radiación solar	0
184489	7	Sololá	719	Santiago Atitlán	14	Cerro de Oro	11	Noviembre	2023-11-16T00:00:00	2024-11-08T04:00:00	2	Temperatura media	18.3
184490	7	Sololá	719	Santiago Atitlán	14	Cerro de Oro	11	Noviembre	2023-11-16T00:00:00	2024-11-08T04:00:00	4	Temperatura máxima	18.9
184491	7	Sololá	719	Santiago Atitlán	14	Cerro de Oro	11	Noviembre	2023-11-16T00:00:00	2024-11-08T04:00:00	3	Temperatura mínima	17.8
184492	7	Sololá	719	Santiago Atitlán	14	Cerro de Oro	11	Noviembre	2023-11-16T00:00:00	2024-11-08T04:00:00	5	Humedad	75
184493	7	Sololá	719	Santiago Atitlán	14	Cerro de Oro	11	Noviembre	2023-11-16T00:00:00	2024-11-08T04:00:00	6	Velocidad del viento	4.8
184494	7	Sololá	719	Santiago Atitlán	14	Cerro de Oro	11	Noviembre	2023-11-16T00:00:00	2024-11-08T04:00:00	7	Dirección del viento	4.83
184495	7	Sololá	719	Santiago Atitlán	14	Cerro de Oro	11	Noviembre	2023-11-16T00:00:00	2024-11-08T04:00:00	1	Precipitación	0
184496	7	Sololá	719	Santiago Atitlán	14	Cerro de Oro	11	Noviembre	2023-11-16T00:00:00	2024-11-08T04:00:00	8	Radiación solar	0
184497	7	Sololá	719	Santiago Atitlán	14	Cerro de Oro	11	Noviembre	2023-11-16T00:00:00	2024-11-08T05:00:00	2	Temperatura media	18.1
184498	7	Sololá	719	Santiago Atitlán	14	Cerro de Oro	11	Noviembre	2023-11-16T00:00:00	2024-11-08T05:00:00	4	Temperatura máxima	19
184499	7	Sololá	719	Santiago Atitlán	14	Cerro de Oro	11	Noviembre	2023-11-16T00:00:00	2024-11-08T05:00:00	3	Temperatura mínima	18.1
184500	7	Sololá	719	Santiago Atitlán	14	Cerro de Oro	11	Noviembre	2023-11-16T00:00:00	2024-11-08T05:00:00	5	Humedad	76
184501	7	Sololá	719	Santiago Atitlán	14	Cerro de Oro	11	Noviembre	2023-11-16T00:00:00	2024-11-08T05:00:00	6	Velocidad del viento	4.8
184502	7	Sololá	719	Santiago Atitlán	14	Cerro de Oro	11	Noviembre	2023-11-16T00:00:00	2024-11-08T05:00:00	7	Dirección del viento	4.83
184503	7	Sololá	719	Santiago Atitlán	14	Cerro de Oro	11	Noviembre	2023-11-16T00:00:00	2024-11-08T05:00:00	1	Precipitación	0
184504	7	Sololá	719	Santiago Atitlán	14	Cerro de Oro	11	Noviembre	2023-11-16T00:00:00	2024-11-08T05:00:00	8	Radiación solar	0
184505	7	Sololá	719	Santiago Atitlán	14	Cerro de Oro	11	Noviembre	2023-11-16T00:00:00	2024-11-08T06:00:00	2	Temperatura media	18.8
184506	7	Sololá	719	Santiago Atitlán	14	Cerro de Oro	11	Noviembre	2023-11-16T00:00:00	2024-11-08T06:00:00	4	Temperatura máxima	18.8
184507	7	Sololá	719	Santiago Atitlán	14	Cerro de Oro	11	Noviembre	2023-11-16T00:00:00	2024-11-08T06:00:00	3	Temperatura mínima	17.7
184508	7	Sololá	719	Santiago Atitlán	14	Cerro de Oro	11	Noviembre	2023-11-16T00:00:00	2024-11-08T06:00:00	5	Humedad	72
184509	7	Sololá	719	Santiago Atitlán	14	Cerro de Oro	11	Noviembre	2023-11-16T00:00:00	2024-11-08T06:00:00	6	Velocidad del viento	6.4
184510	7	Sololá	719	Santiago Atitlán	14	Cerro de Oro	11	Noviembre	2023-11-16T00:00:00	2024-11-08T06:00:00	7	Dirección del viento	6.44
184511	7	Sololá	719	Santiago Atitlán	14	Cerro de Oro	11	Noviembre	2023-11-16T00:00:00	2024-11-08T06:00:00	1	Precipitación	0
184512	7	Sololá	719	Santiago Atitlán	14	Cerro de Oro	11	Noviembre	2023-11-16T00:00:00	2024-11-08T06:00:00	8	Radiación solar	0
184513	7	Sololá	719	Santiago Atitlán	14	Cerro de Oro	11	Noviembre	2023-11-16T00:00:00	2024-11-08T07:00:00	2	Temperatura media	20.8
184514	7	Sololá	719	Santiago Atitlán	14	Cerro de Oro	11	Noviembre	2023-11-16T00:00:00	2024-11-08T07:00:00	4	Temperatura máxima	20.8
184515	7	Sololá	719	Santiago Atitlán	14	Cerro de Oro	11	Noviembre	2023-11-16T00:00:00	2024-11-08T07:00:00	3	Temperatura mínima	18.8
184516	7	Sololá	719	Santiago Atitlán	14	Cerro de Oro	11	Noviembre	2023-11-16T00:00:00	2024-11-08T07:00:00	5	Humedad	67
184517	7	Sololá	719	Santiago Atitlán	14	Cerro de Oro	11	Noviembre	2023-11-16T00:00:00	2024-11-08T07:00:00	6	Velocidad del viento	8
184518	7	Sololá	719	Santiago Atitlán	14	Cerro de Oro	11	Noviembre	2023-11-16T00:00:00	2024-11-08T07:00:00	7	Dirección del viento	8.05
184519	7	Sololá	719	Santiago Atitlán	14	Cerro de Oro	11	Noviembre	2023-11-16T00:00:00	2024-11-08T07:00:00	1	Precipitación	0
184520	7	Sololá	719	Santiago Atitlán	14	Cerro de Oro	11	Noviembre	2023-11-16T00:00:00	2024-11-08T07:00:00	8	Radiación solar	32
184521	7	Sololá	719	Santiago Atitlán	14	Cerro de Oro	11	Noviembre	2023-11-16T00:00:00	2024-11-08T08:00:00	2	Temperatura media	22.1
184522	7	Sololá	719	Santiago Atitlán	14	Cerro de Oro	11	Noviembre	2023-11-16T00:00:00	2024-11-08T08:00:00	4	Temperatura máxima	22.1
184523	7	Sololá	719	Santiago Atitlán	14	Cerro de Oro	11	Noviembre	2023-11-16T00:00:00	2024-11-08T08:00:00	3	Temperatura mínima	20.8
184524	7	Sololá	719	Santiago Atitlán	14	Cerro de Oro	11	Noviembre	2023-11-16T00:00:00	2024-11-08T08:00:00	5	Humedad	59
184525	7	Sololá	719	Santiago Atitlán	14	Cerro de Oro	11	Noviembre	2023-11-16T00:00:00	2024-11-08T08:00:00	6	Velocidad del viento	11.3
184526	7	Sololá	719	Santiago Atitlán	14	Cerro de Oro	11	Noviembre	2023-11-16T00:00:00	2024-11-08T08:00:00	7	Dirección del viento	11.27
184527	7	Sololá	719	Santiago Atitlán	14	Cerro de Oro	11	Noviembre	2023-11-16T00:00:00	2024-11-08T08:00:00	1	Precipitación	0
184528	7	Sololá	719	Santiago Atitlán	14	Cerro de Oro	11	Noviembre	2023-11-16T00:00:00	2024-11-08T08:00:00	8	Radiación solar	246
184529	7	Sololá	719	Santiago Atitlán	14	Cerro de Oro	11	Noviembre	2023-11-16T00:00:00	2024-11-08T09:00:00	2	Temperatura media	23
184530	7	Sololá	719	Santiago Atitlán	14	Cerro de Oro	11	Noviembre	2023-11-16T00:00:00	2024-11-08T09:00:00	4	Temperatura máxima	23
184531	7	Sololá	719	Santiago Atitlán	14	Cerro de Oro	11	Noviembre	2023-11-16T00:00:00	2024-11-08T09:00:00	3	Temperatura mínima	22.1
184532	7	Sololá	719	Santiago Atitlán	14	Cerro de Oro	11	Noviembre	2023-11-16T00:00:00	2024-11-08T09:00:00	5	Humedad	56
184533	7	Sololá	719	Santiago Atitlán	14	Cerro de Oro	11	Noviembre	2023-11-16T00:00:00	2024-11-08T09:00:00	6	Velocidad del viento	11.3
184534	7	Sololá	719	Santiago Atitlán	14	Cerro de Oro	11	Noviembre	2023-11-16T00:00:00	2024-11-08T09:00:00	7	Dirección del viento	11.27
184535	7	Sololá	719	Santiago Atitlán	14	Cerro de Oro	11	Noviembre	2023-11-16T00:00:00	2024-11-08T09:00:00	1	Precipitación	0
184536	7	Sololá	719	Santiago Atitlán	14	Cerro de Oro	11	Noviembre	2023-11-16T00:00:00	2024-11-08T09:00:00	8	Radiación solar	453
184537	7	Sololá	719	Santiago Atitlán	14	Cerro de Oro	11	Noviembre	2023-11-16T00:00:00	2024-11-08T10:00:00	2	Temperatura media	24
184538	7	Sololá	719	Santiago Atitlán	14	Cerro de Oro	11	Noviembre	2023-11-16T00:00:00	2024-11-08T10:00:00	4	Temperatura máxima	24.1
184539	7	Sololá	719	Santiago Atitlán	14	Cerro de Oro	11	Noviembre	2023-11-16T00:00:00	2024-11-08T10:00:00	3	Temperatura mínima	23
184540	7	Sololá	719	Santiago Atitlán	14	Cerro de Oro	11	Noviembre	2023-11-16T00:00:00	2024-11-08T10:00:00	5	Humedad	55
184541	7	Sololá	719	Santiago Atitlán	14	Cerro de Oro	11	Noviembre	2023-11-16T00:00:00	2024-11-08T10:00:00	6	Velocidad del viento	11.3
184542	7	Sololá	719	Santiago Atitlán	14	Cerro de Oro	11	Noviembre	2023-11-16T00:00:00	2024-11-08T10:00:00	7	Dirección del viento	11.27
184543	7	Sololá	719	Santiago Atitlán	14	Cerro de Oro	11	Noviembre	2023-11-16T00:00:00	2024-11-08T10:00:00	1	Precipitación	0
184544	7	Sololá	719	Santiago Atitlán	14	Cerro de Oro	11	Noviembre	2023-11-16T00:00:00	2024-11-08T10:00:00	8	Radiación solar	625
184545	7	Sololá	719	Santiago Atitlán	14	Cerro de Oro	11	Noviembre	2023-11-16T00:00:00	2024-11-08T11:00:00	2	Temperatura media	24.8
184546	7	Sololá	719	Santiago Atitlán	14	Cerro de Oro	11	Noviembre	2023-11-16T00:00:00	2024-11-08T11:00:00	4	Temperatura máxima	24.9
184547	7	Sololá	719	Santiago Atitlán	14	Cerro de Oro	11	Noviembre	2023-11-16T00:00:00	2024-11-08T11:00:00	3	Temperatura mínima	24
184548	7	Sololá	719	Santiago Atitlán	14	Cerro de Oro	11	Noviembre	2023-11-16T00:00:00	2024-11-08T11:00:00	5	Humedad	54
184549	7	Sololá	719	Santiago Atitlán	14	Cerro de Oro	11	Noviembre	2023-11-16T00:00:00	2024-11-08T11:00:00	6	Velocidad del viento	8
184550	7	Sololá	719	Santiago Atitlán	14	Cerro de Oro	11	Noviembre	2023-11-16T00:00:00	2024-11-08T11:00:00	7	Dirección del viento	8.05
184551	7	Sololá	719	Santiago Atitlán	14	Cerro de Oro	11	Noviembre	2023-11-16T00:00:00	2024-11-08T11:00:00	1	Precipitación	0
184552	7	Sololá	719	Santiago Atitlán	14	Cerro de Oro	11	Noviembre	2023-11-16T00:00:00	2024-11-08T11:00:00	8	Radiación solar	749
184553	7	Sololá	719	Santiago Atitlán	14	Cerro de Oro	11	Noviembre	2023-11-16T00:00:00	2024-11-08T12:00:00	2	Temperatura media	26
184554	7	Sololá	719	Santiago Atitlán	14	Cerro de Oro	11	Noviembre	2023-11-16T00:00:00	2024-11-08T12:00:00	4	Temperatura máxima	26
184555	7	Sololá	719	Santiago Atitlán	14	Cerro de Oro	11	Noviembre	2023-11-16T00:00:00	2024-11-08T12:00:00	3	Temperatura mínima	24.8
184556	7	Sololá	719	Santiago Atitlán	14	Cerro de Oro	11	Noviembre	2023-11-16T00:00:00	2024-11-08T12:00:00	5	Humedad	56
184557	7	Sololá	719	Santiago Atitlán	14	Cerro de Oro	11	Noviembre	2023-11-16T00:00:00	2024-11-08T12:00:00	6	Velocidad del viento	6.4
184558	7	Sololá	719	Santiago Atitlán	14	Cerro de Oro	11	Noviembre	2023-11-16T00:00:00	2024-11-08T12:00:00	7	Dirección del viento	6.44
184559	7	Sololá	719	Santiago Atitlán	14	Cerro de Oro	11	Noviembre	2023-11-16T00:00:00	2024-11-08T12:00:00	1	Precipitación	0
184560	7	Sololá	719	Santiago Atitlán	14	Cerro de Oro	11	Noviembre	2023-11-16T00:00:00	2024-11-08T12:00:00	8	Radiación solar	806
184561	7	Sololá	719	Santiago Atitlán	14	Cerro de Oro	11	Noviembre	2023-11-16T00:00:00	2024-11-08T13:00:00	2	Temperatura media	24.5
184562	7	Sololá	719	Santiago Atitlán	14	Cerro de Oro	11	Noviembre	2023-11-16T00:00:00	2024-11-08T13:00:00	4	Temperatura máxima	26.2
184563	7	Sololá	719	Santiago Atitlán	14	Cerro de Oro	11	Noviembre	2023-11-16T00:00:00	2024-11-08T13:00:00	3	Temperatura mínima	24.3
184564	7	Sololá	719	Santiago Atitlán	14	Cerro de Oro	11	Noviembre	2023-11-16T00:00:00	2024-11-08T13:00:00	5	Humedad	72
184565	7	Sololá	719	Santiago Atitlán	14	Cerro de Oro	11	Noviembre	2023-11-16T00:00:00	2024-11-08T13:00:00	6	Velocidad del viento	11.3
184566	7	Sololá	719	Santiago Atitlán	14	Cerro de Oro	11	Noviembre	2023-11-16T00:00:00	2024-11-08T13:00:00	7	Dirección del viento	11.27
184567	7	Sololá	719	Santiago Atitlán	14	Cerro de Oro	11	Noviembre	2023-11-16T00:00:00	2024-11-08T13:00:00	1	Precipitación	0
184568	7	Sololá	719	Santiago Atitlán	14	Cerro de Oro	11	Noviembre	2023-11-16T00:00:00	2024-11-08T13:00:00	8	Radiación solar	785
184569	7	Sololá	719	Santiago Atitlán	14	Cerro de Oro	11	Noviembre	2023-11-16T00:00:00	2024-11-08T14:00:00	2	Temperatura media	23.8
184570	7	Sololá	719	Santiago Atitlán	14	Cerro de Oro	11	Noviembre	2023-11-16T00:00:00	2024-11-08T14:00:00	4	Temperatura máxima	24.6
184571	7	Sololá	719	Santiago Atitlán	14	Cerro de Oro	11	Noviembre	2023-11-16T00:00:00	2024-11-08T14:00:00	3	Temperatura mínima	23.6
184572	7	Sololá	719	Santiago Atitlán	14	Cerro de Oro	11	Noviembre	2023-11-16T00:00:00	2024-11-08T14:00:00	5	Humedad	77
184573	7	Sololá	719	Santiago Atitlán	14	Cerro de Oro	11	Noviembre	2023-11-16T00:00:00	2024-11-08T14:00:00	6	Velocidad del viento	14.5
184574	7	Sololá	719	Santiago Atitlán	14	Cerro de Oro	11	Noviembre	2023-11-16T00:00:00	2024-11-08T14:00:00	7	Dirección del viento	14.48
184575	7	Sololá	719	Santiago Atitlán	14	Cerro de Oro	11	Noviembre	2023-11-16T00:00:00	2024-11-08T14:00:00	1	Precipitación	0
184576	7	Sololá	719	Santiago Atitlán	14	Cerro de Oro	11	Noviembre	2023-11-16T00:00:00	2024-11-08T14:00:00	8	Radiación solar	700
184577	7	Sololá	719	Santiago Atitlán	14	Cerro de Oro	11	Noviembre	2023-11-16T00:00:00	2024-11-08T15:00:00	2	Temperatura media	22.9
184578	7	Sololá	719	Santiago Atitlán	14	Cerro de Oro	11	Noviembre	2023-11-16T00:00:00	2024-11-08T15:00:00	4	Temperatura máxima	23.8
184579	7	Sololá	719	Santiago Atitlán	14	Cerro de Oro	11	Noviembre	2023-11-16T00:00:00	2024-11-08T15:00:00	3	Temperatura mínima	22.9
184580	7	Sololá	719	Santiago Atitlán	14	Cerro de Oro	11	Noviembre	2023-11-16T00:00:00	2024-11-08T15:00:00	5	Humedad	79
184581	7	Sololá	719	Santiago Atitlán	14	Cerro de Oro	11	Noviembre	2023-11-16T00:00:00	2024-11-08T15:00:00	6	Velocidad del viento	12.9
184582	7	Sololá	719	Santiago Atitlán	14	Cerro de Oro	11	Noviembre	2023-11-16T00:00:00	2024-11-08T15:00:00	7	Dirección del viento	12.87
184583	7	Sololá	719	Santiago Atitlán	14	Cerro de Oro	11	Noviembre	2023-11-16T00:00:00	2024-11-08T15:00:00	1	Precipitación	0
184584	7	Sololá	719	Santiago Atitlán	14	Cerro de Oro	11	Noviembre	2023-11-16T00:00:00	2024-11-08T15:00:00	8	Radiación solar	572
184585	7	Sololá	719	Santiago Atitlán	14	Cerro de Oro	11	Noviembre	2023-11-16T00:00:00	2024-11-08T16:00:00	2	Temperatura media	21.4
184586	7	Sololá	719	Santiago Atitlán	14	Cerro de Oro	11	Noviembre	2023-11-16T00:00:00	2024-11-08T16:00:00	4	Temperatura máxima	23
184587	7	Sololá	719	Santiago Atitlán	14	Cerro de Oro	11	Noviembre	2023-11-16T00:00:00	2024-11-08T16:00:00	3	Temperatura mínima	21.4
184588	7	Sololá	719	Santiago Atitlán	14	Cerro de Oro	11	Noviembre	2023-11-16T00:00:00	2024-11-08T16:00:00	5	Humedad	85
184589	7	Sololá	719	Santiago Atitlán	14	Cerro de Oro	11	Noviembre	2023-11-16T00:00:00	2024-11-08T16:00:00	6	Velocidad del viento	9.7
184590	7	Sololá	719	Santiago Atitlán	14	Cerro de Oro	11	Noviembre	2023-11-16T00:00:00	2024-11-08T16:00:00	7	Dirección del viento	9.66
184591	7	Sololá	719	Santiago Atitlán	14	Cerro de Oro	11	Noviembre	2023-11-16T00:00:00	2024-11-08T16:00:00	1	Precipitación	0
184592	7	Sololá	719	Santiago Atitlán	14	Cerro de Oro	11	Noviembre	2023-11-16T00:00:00	2024-11-08T16:00:00	8	Radiación solar	155
184593	7	Sololá	719	Santiago Atitlán	14	Cerro de Oro	11	Noviembre	2023-11-16T00:00:00	2024-11-08T17:00:00	2	Temperatura media	21.4
184594	7	Sololá	719	Santiago Atitlán	14	Cerro de Oro	11	Noviembre	2023-11-16T00:00:00	2024-11-08T17:00:00	4	Temperatura máxima	21.5
184595	7	Sololá	719	Santiago Atitlán	14	Cerro de Oro	11	Noviembre	2023-11-16T00:00:00	2024-11-08T17:00:00	3	Temperatura mínima	21.3
184596	7	Sololá	719	Santiago Atitlán	14	Cerro de Oro	11	Noviembre	2023-11-16T00:00:00	2024-11-08T17:00:00	5	Humedad	82
184597	7	Sololá	719	Santiago Atitlán	14	Cerro de Oro	11	Noviembre	2023-11-16T00:00:00	2024-11-08T17:00:00	6	Velocidad del viento	8
184598	7	Sololá	719	Santiago Atitlán	14	Cerro de Oro	11	Noviembre	2023-11-16T00:00:00	2024-11-08T17:00:00	7	Dirección del viento	8.05
184599	7	Sololá	719	Santiago Atitlán	14	Cerro de Oro	11	Noviembre	2023-11-16T00:00:00	2024-11-08T17:00:00	1	Precipitación	0
184600	7	Sololá	719	Santiago Atitlán	14	Cerro de Oro	11	Noviembre	2023-11-16T00:00:00	2024-11-08T17:00:00	8	Radiación solar	57
184601	7	Sololá	719	Santiago Atitlán	14	Cerro de Oro	11	Noviembre	2023-11-16T00:00:00	2024-11-08T18:00:00	2	Temperatura media	21.2
184602	7	Sololá	719	Santiago Atitlán	14	Cerro de Oro	11	Noviembre	2023-11-16T00:00:00	2024-11-08T18:00:00	4	Temperatura máxima	21.4
184603	7	Sololá	719	Santiago Atitlán	14	Cerro de Oro	11	Noviembre	2023-11-16T00:00:00	2024-11-08T18:00:00	3	Temperatura mínima	21.1
184604	7	Sololá	719	Santiago Atitlán	14	Cerro de Oro	11	Noviembre	2023-11-16T00:00:00	2024-11-08T18:00:00	5	Humedad	80
184605	7	Sololá	719	Santiago Atitlán	14	Cerro de Oro	11	Noviembre	2023-11-16T00:00:00	2024-11-08T18:00:00	6	Velocidad del viento	6.4
184606	7	Sololá	719	Santiago Atitlán	14	Cerro de Oro	11	Noviembre	2023-11-16T00:00:00	2024-11-08T18:00:00	7	Dirección del viento	6.44
184607	7	Sololá	719	Santiago Atitlán	14	Cerro de Oro	11	Noviembre	2023-11-16T00:00:00	2024-11-08T18:00:00	1	Precipitación	0
184608	7	Sololá	719	Santiago Atitlán	14	Cerro de Oro	11	Noviembre	2023-11-16T00:00:00	2024-11-08T18:00:00	8	Radiación solar	6
184609	7	Sololá	719	Santiago Atitlán	14	Cerro de Oro	11	Noviembre	2023-11-16T00:00:00	2024-11-08T19:00:00	2	Temperatura media	20.4
184610	7	Sololá	719	Santiago Atitlán	14	Cerro de Oro	11	Noviembre	2023-11-16T00:00:00	2024-11-08T19:00:00	4	Temperatura máxima	21.2
184611	7	Sololá	719	Santiago Atitlán	14	Cerro de Oro	11	Noviembre	2023-11-16T00:00:00	2024-11-08T19:00:00	3	Temperatura mínima	20.4
184612	7	Sololá	719	Santiago Atitlán	14	Cerro de Oro	11	Noviembre	2023-11-16T00:00:00	2024-11-08T19:00:00	5	Humedad	80
184613	7	Sololá	719	Santiago Atitlán	14	Cerro de Oro	11	Noviembre	2023-11-16T00:00:00	2024-11-08T19:00:00	6	Velocidad del viento	4.8
184614	7	Sololá	719	Santiago Atitlán	14	Cerro de Oro	11	Noviembre	2023-11-16T00:00:00	2024-11-08T19:00:00	7	Dirección del viento	4.83
184615	7	Sololá	719	Santiago Atitlán	14	Cerro de Oro	11	Noviembre	2023-11-16T00:00:00	2024-11-08T19:00:00	1	Precipitación	0
184616	7	Sololá	719	Santiago Atitlán	14	Cerro de Oro	11	Noviembre	2023-11-16T00:00:00	2024-11-08T19:00:00	8	Radiación solar	0
184617	7	Sololá	719	Santiago Atitlán	14	Cerro de Oro	11	Noviembre	2023-11-16T00:00:00	2024-11-08T20:00:00	2	Temperatura media	19.3
184618	7	Sololá	719	Santiago Atitlán	14	Cerro de Oro	11	Noviembre	2023-11-16T00:00:00	2024-11-08T20:00:00	4	Temperatura máxima	20.4
184619	7	Sololá	719	Santiago Atitlán	14	Cerro de Oro	11	Noviembre	2023-11-16T00:00:00	2024-11-08T20:00:00	3	Temperatura mínima	19.2
184620	7	Sololá	719	Santiago Atitlán	14	Cerro de Oro	11	Noviembre	2023-11-16T00:00:00	2024-11-08T20:00:00	5	Humedad	80
184621	7	Sololá	719	Santiago Atitlán	14	Cerro de Oro	11	Noviembre	2023-11-16T00:00:00	2024-11-08T20:00:00	6	Velocidad del viento	4.8
184622	7	Sololá	719	Santiago Atitlán	14	Cerro de Oro	11	Noviembre	2023-11-16T00:00:00	2024-11-08T20:00:00	7	Dirección del viento	4.83
184623	7	Sololá	719	Santiago Atitlán	14	Cerro de Oro	11	Noviembre	2023-11-16T00:00:00	2024-11-08T20:00:00	1	Precipitación	0
184624	7	Sololá	719	Santiago Atitlán	14	Cerro de Oro	11	Noviembre	2023-11-16T00:00:00	2024-11-08T20:00:00	8	Radiación solar	0
184625	7	Sololá	719	Santiago Atitlán	14	Cerro de Oro	11	Noviembre	2023-11-16T00:00:00	2024-11-08T21:00:00	2	Temperatura media	20
184626	7	Sololá	719	Santiago Atitlán	14	Cerro de Oro	11	Noviembre	2023-11-16T00:00:00	2024-11-08T21:00:00	4	Temperatura máxima	20.1
184627	7	Sololá	719	Santiago Atitlán	14	Cerro de Oro	11	Noviembre	2023-11-16T00:00:00	2024-11-08T21:00:00	3	Temperatura mínima	19.2
184628	7	Sololá	719	Santiago Atitlán	14	Cerro de Oro	11	Noviembre	2023-11-16T00:00:00	2024-11-08T21:00:00	5	Humedad	78
184629	7	Sololá	719	Santiago Atitlán	14	Cerro de Oro	11	Noviembre	2023-11-16T00:00:00	2024-11-08T21:00:00	6	Velocidad del viento	3.2
184630	7	Sololá	719	Santiago Atitlán	14	Cerro de Oro	11	Noviembre	2023-11-16T00:00:00	2024-11-08T21:00:00	7	Dirección del viento	3.22
184631	7	Sololá	719	Santiago Atitlán	14	Cerro de Oro	11	Noviembre	2023-11-16T00:00:00	2024-11-08T21:00:00	1	Precipitación	0
184632	7	Sololá	719	Santiago Atitlán	14	Cerro de Oro	11	Noviembre	2023-11-16T00:00:00	2024-11-08T21:00:00	8	Radiación solar	0
184633	7	Sololá	719	Santiago Atitlán	14	Cerro de Oro	11	Noviembre	2023-11-16T00:00:00	2024-11-08T22:00:00	2	Temperatura media	19.1
184634	7	Sololá	719	Santiago Atitlán	14	Cerro de Oro	11	Noviembre	2023-11-16T00:00:00	2024-11-08T22:00:00	4	Temperatura máxima	20
184635	7	Sololá	719	Santiago Atitlán	14	Cerro de Oro	11	Noviembre	2023-11-16T00:00:00	2024-11-08T22:00:00	3	Temperatura mínima	19
184636	7	Sololá	719	Santiago Atitlán	14	Cerro de Oro	11	Noviembre	2023-11-16T00:00:00	2024-11-08T22:00:00	5	Humedad	81
184637	7	Sololá	719	Santiago Atitlán	14	Cerro de Oro	11	Noviembre	2023-11-16T00:00:00	2024-11-08T22:00:00	6	Velocidad del viento	3.2
184638	7	Sololá	719	Santiago Atitlán	14	Cerro de Oro	11	Noviembre	2023-11-16T00:00:00	2024-11-08T22:00:00	7	Dirección del viento	3.22
184639	7	Sololá	719	Santiago Atitlán	14	Cerro de Oro	11	Noviembre	2023-11-16T00:00:00	2024-11-08T22:00:00	1	Precipitación	0
184640	7	Sololá	719	Santiago Atitlán	14	Cerro de Oro	11	Noviembre	2023-11-16T00:00:00	2024-11-08T22:00:00	8	Radiación solar	0
184641	7	Sololá	719	Santiago Atitlán	14	Cerro de Oro	11	Noviembre	2023-11-16T00:00:00	2024-11-08T23:00:00	2	Temperatura media	19.6
184642	7	Sololá	719	Santiago Atitlán	14	Cerro de Oro	11	Noviembre	2023-11-16T00:00:00	2024-11-08T23:00:00	4	Temperatura máxima	19.7
184643	7	Sololá	719	Santiago Atitlán	14	Cerro de Oro	11	Noviembre	2023-11-16T00:00:00	2024-11-08T23:00:00	3	Temperatura mínima	19.1
184644	7	Sololá	719	Santiago Atitlán	14	Cerro de Oro	11	Noviembre	2023-11-16T00:00:00	2024-11-08T23:00:00	5	Humedad	79
184645	7	Sololá	719	Santiago Atitlán	14	Cerro de Oro	11	Noviembre	2023-11-16T00:00:00	2024-11-08T23:00:00	6	Velocidad del viento	3.2
184646	7	Sololá	719	Santiago Atitlán	14	Cerro de Oro	11	Noviembre	2023-11-16T00:00:00	2024-11-08T23:00:00	7	Dirección del viento	3.22
184647	7	Sololá	719	Santiago Atitlán	14	Cerro de Oro	11	Noviembre	2023-11-16T00:00:00	2024-11-08T23:00:00	1	Precipitación	0
184648	7	Sololá	719	Santiago Atitlán	14	Cerro de Oro	11	Noviembre	2023-11-16T00:00:00	2024-11-08T23:00:00	8	Radiación solar	0
184649	7	Sololá	719	Santiago Atitlán	14	Cerro de Oro	11	Noviembre	2023-11-17T00:00:00	2024-11-08T00:00:00	2	Temperatura media	19.3
184650	7	Sololá	719	Santiago Atitlán	14	Cerro de Oro	11	Noviembre	2023-11-17T00:00:00	2024-11-08T00:00:00	4	Temperatura máxima	19.6
184651	7	Sololá	719	Santiago Atitlán	14	Cerro de Oro	11	Noviembre	2023-11-17T00:00:00	2024-11-08T00:00:00	3	Temperatura mínima	19.3
184652	7	Sololá	719	Santiago Atitlán	14	Cerro de Oro	11	Noviembre	2023-11-17T00:00:00	2024-11-08T00:00:00	5	Humedad	81
184653	7	Sololá	719	Santiago Atitlán	14	Cerro de Oro	11	Noviembre	2023-11-17T00:00:00	2024-11-08T00:00:00	6	Velocidad del viento	3.2
184654	7	Sololá	719	Santiago Atitlán	14	Cerro de Oro	11	Noviembre	2023-11-17T00:00:00	2024-11-08T00:00:00	7	Dirección del viento	3.22
184655	7	Sololá	719	Santiago Atitlán	14	Cerro de Oro	11	Noviembre	2023-11-17T00:00:00	2024-11-08T00:00:00	1	Precipitación	0
184656	7	Sololá	719	Santiago Atitlán	14	Cerro de Oro	11	Noviembre	2023-11-17T00:00:00	2024-11-08T00:00:00	8	Radiación solar	0
184657	7	Sololá	719	Santiago Atitlán	14	Cerro de Oro	11	Noviembre	2023-11-17T00:00:00	2024-11-08T01:00:00	2	Temperatura media	17.8
184658	7	Sololá	719	Santiago Atitlán	14	Cerro de Oro	11	Noviembre	2023-11-17T00:00:00	2024-11-08T01:00:00	4	Temperatura máxima	19.3
184659	7	Sololá	719	Santiago Atitlán	14	Cerro de Oro	11	Noviembre	2023-11-17T00:00:00	2024-11-08T01:00:00	3	Temperatura mínima	17.8
184660	7	Sololá	719	Santiago Atitlán	14	Cerro de Oro	11	Noviembre	2023-11-17T00:00:00	2024-11-08T01:00:00	5	Humedad	92
184661	7	Sololá	719	Santiago Atitlán	14	Cerro de Oro	11	Noviembre	2023-11-17T00:00:00	2024-11-08T01:00:00	6	Velocidad del viento	4.8
184662	7	Sololá	719	Santiago Atitlán	14	Cerro de Oro	11	Noviembre	2023-11-17T00:00:00	2024-11-08T01:00:00	7	Dirección del viento	4.83
184663	7	Sololá	719	Santiago Atitlán	14	Cerro de Oro	11	Noviembre	2023-11-17T00:00:00	2024-11-08T01:00:00	1	Precipitación	1
184664	7	Sololá	719	Santiago Atitlán	14	Cerro de Oro	11	Noviembre	2023-11-17T00:00:00	2024-11-08T01:00:00	8	Radiación solar	0
184665	7	Sololá	719	Santiago Atitlán	14	Cerro de Oro	11	Noviembre	2023-11-17T00:00:00	2024-11-08T02:00:00	2	Temperatura media	17.6
184666	7	Sololá	719	Santiago Atitlán	14	Cerro de Oro	11	Noviembre	2023-11-17T00:00:00	2024-11-08T02:00:00	4	Temperatura máxima	17.8
184667	7	Sololá	719	Santiago Atitlán	14	Cerro de Oro	11	Noviembre	2023-11-17T00:00:00	2024-11-08T02:00:00	3	Temperatura mínima	17.5
184668	7	Sololá	719	Santiago Atitlán	14	Cerro de Oro	11	Noviembre	2023-11-17T00:00:00	2024-11-08T02:00:00	5	Humedad	90
184669	7	Sololá	719	Santiago Atitlán	14	Cerro de Oro	11	Noviembre	2023-11-17T00:00:00	2024-11-08T02:00:00	6	Velocidad del viento	1.6
184670	7	Sololá	719	Santiago Atitlán	14	Cerro de Oro	11	Noviembre	2023-11-17T00:00:00	2024-11-08T02:00:00	7	Dirección del viento	1.61
184671	7	Sololá	719	Santiago Atitlán	14	Cerro de Oro	11	Noviembre	2023-11-17T00:00:00	2024-11-08T02:00:00	1	Precipitación	0.2
184672	7	Sololá	719	Santiago Atitlán	14	Cerro de Oro	11	Noviembre	2023-11-17T00:00:00	2024-11-08T02:00:00	8	Radiación solar	0
184673	7	Sololá	719	Santiago Atitlán	14	Cerro de Oro	11	Noviembre	2023-11-17T00:00:00	2024-11-08T03:00:00	2	Temperatura media	17.6
184674	7	Sololá	719	Santiago Atitlán	14	Cerro de Oro	11	Noviembre	2023-11-17T00:00:00	2024-11-08T03:00:00	4	Temperatura máxima	17.8
184675	7	Sololá	719	Santiago Atitlán	14	Cerro de Oro	11	Noviembre	2023-11-17T00:00:00	2024-11-08T03:00:00	3	Temperatura mínima	17.5
184676	7	Sololá	719	Santiago Atitlán	14	Cerro de Oro	11	Noviembre	2023-11-17T00:00:00	2024-11-08T03:00:00	5	Humedad	92
184677	7	Sololá	719	Santiago Atitlán	14	Cerro de Oro	11	Noviembre	2023-11-17T00:00:00	2024-11-08T03:00:00	6	Velocidad del viento	1.6
184678	7	Sololá	719	Santiago Atitlán	14	Cerro de Oro	11	Noviembre	2023-11-17T00:00:00	2024-11-08T03:00:00	7	Dirección del viento	1.61
184679	7	Sololá	719	Santiago Atitlán	14	Cerro de Oro	11	Noviembre	2023-11-17T00:00:00	2024-11-08T03:00:00	1	Precipitación	0.2
184680	7	Sololá	719	Santiago Atitlán	14	Cerro de Oro	11	Noviembre	2023-11-17T00:00:00	2024-11-08T03:00:00	8	Radiación solar	0
184681	7	Sololá	719	Santiago Atitlán	14	Cerro de Oro	11	Noviembre	2023-11-17T00:00:00	2024-11-08T04:00:00	2	Temperatura media	17.1
184682	7	Sololá	719	Santiago Atitlán	14	Cerro de Oro	11	Noviembre	2023-11-17T00:00:00	2024-11-08T04:00:00	4	Temperatura máxima	17.7
184683	7	Sololá	719	Santiago Atitlán	14	Cerro de Oro	11	Noviembre	2023-11-17T00:00:00	2024-11-08T04:00:00	3	Temperatura mínima	17.1
184684	7	Sololá	719	Santiago Atitlán	14	Cerro de Oro	11	Noviembre	2023-11-17T00:00:00	2024-11-08T04:00:00	5	Humedad	91
184685	7	Sololá	719	Santiago Atitlán	14	Cerro de Oro	11	Noviembre	2023-11-17T00:00:00	2024-11-08T04:00:00	6	Velocidad del viento	3.2
184686	7	Sololá	719	Santiago Atitlán	14	Cerro de Oro	11	Noviembre	2023-11-17T00:00:00	2024-11-08T04:00:00	7	Dirección del viento	3.22
184687	7	Sololá	719	Santiago Atitlán	14	Cerro de Oro	11	Noviembre	2023-11-17T00:00:00	2024-11-08T04:00:00	1	Precipitación	0
184688	7	Sololá	719	Santiago Atitlán	14	Cerro de Oro	11	Noviembre	2023-11-17T00:00:00	2024-11-08T04:00:00	8	Radiación solar	0
184689	7	Sololá	719	Santiago Atitlán	14	Cerro de Oro	11	Noviembre	2023-11-17T00:00:00	2024-11-08T05:00:00	2	Temperatura media	17.2
184690	7	Sololá	719	Santiago Atitlán	14	Cerro de Oro	11	Noviembre	2023-11-17T00:00:00	2024-11-08T05:00:00	4	Temperatura máxima	17.3
184691	7	Sololá	719	Santiago Atitlán	14	Cerro de Oro	11	Noviembre	2023-11-17T00:00:00	2024-11-08T05:00:00	3	Temperatura mínima	17
184692	7	Sololá	719	Santiago Atitlán	14	Cerro de Oro	11	Noviembre	2023-11-17T00:00:00	2024-11-08T05:00:00	5	Humedad	91
184693	7	Sololá	719	Santiago Atitlán	14	Cerro de Oro	11	Noviembre	2023-11-17T00:00:00	2024-11-08T05:00:00	6	Velocidad del viento	3.2
184694	7	Sololá	719	Santiago Atitlán	14	Cerro de Oro	11	Noviembre	2023-11-17T00:00:00	2024-11-08T05:00:00	7	Dirección del viento	3.22
184695	7	Sololá	719	Santiago Atitlán	14	Cerro de Oro	11	Noviembre	2023-11-17T00:00:00	2024-11-08T05:00:00	1	Precipitación	0
184696	7	Sololá	719	Santiago Atitlán	14	Cerro de Oro	11	Noviembre	2023-11-17T00:00:00	2024-11-08T05:00:00	8	Radiación solar	0
184697	7	Sololá	719	Santiago Atitlán	14	Cerro de Oro	11	Noviembre	2023-11-17T00:00:00	2024-11-08T06:00:00	2	Temperatura media	17
184698	7	Sololá	719	Santiago Atitlán	14	Cerro de Oro	11	Noviembre	2023-11-17T00:00:00	2024-11-08T06:00:00	4	Temperatura máxima	17.3
184699	7	Sololá	719	Santiago Atitlán	14	Cerro de Oro	11	Noviembre	2023-11-17T00:00:00	2024-11-08T06:00:00	3	Temperatura mínima	17
184700	7	Sololá	719	Santiago Atitlán	14	Cerro de Oro	11	Noviembre	2023-11-17T00:00:00	2024-11-08T06:00:00	5	Humedad	87
184701	7	Sololá	719	Santiago Atitlán	14	Cerro de Oro	11	Noviembre	2023-11-17T00:00:00	2024-11-08T06:00:00	6	Velocidad del viento	4.8
184702	7	Sololá	719	Santiago Atitlán	14	Cerro de Oro	11	Noviembre	2023-11-17T00:00:00	2024-11-08T06:00:00	7	Dirección del viento	4.83
184703	7	Sololá	719	Santiago Atitlán	14	Cerro de Oro	11	Noviembre	2023-11-17T00:00:00	2024-11-08T06:00:00	1	Precipitación	0
184704	7	Sololá	719	Santiago Atitlán	14	Cerro de Oro	11	Noviembre	2023-11-17T00:00:00	2024-11-08T06:00:00	8	Radiación solar	0
184705	7	Sololá	719	Santiago Atitlán	14	Cerro de Oro	11	Noviembre	2023-11-17T00:00:00	2024-11-08T07:00:00	2	Temperatura media	17.9
184706	7	Sololá	719	Santiago Atitlán	14	Cerro de Oro	11	Noviembre	2023-11-17T00:00:00	2024-11-08T07:00:00	4	Temperatura máxima	17.9
184707	7	Sololá	719	Santiago Atitlán	14	Cerro de Oro	11	Noviembre	2023-11-17T00:00:00	2024-11-08T07:00:00	3	Temperatura mínima	16.6
184708	7	Sololá	719	Santiago Atitlán	14	Cerro de Oro	11	Noviembre	2023-11-17T00:00:00	2024-11-08T07:00:00	5	Humedad	84
184709	7	Sololá	719	Santiago Atitlán	14	Cerro de Oro	11	Noviembre	2023-11-17T00:00:00	2024-11-08T07:00:00	6	Velocidad del viento	1.6
184710	7	Sololá	719	Santiago Atitlán	14	Cerro de Oro	11	Noviembre	2023-11-17T00:00:00	2024-11-08T07:00:00	7	Dirección del viento	1.61
184711	7	Sololá	719	Santiago Atitlán	14	Cerro de Oro	11	Noviembre	2023-11-17T00:00:00	2024-11-08T07:00:00	1	Precipitación	0
184712	7	Sololá	719	Santiago Atitlán	14	Cerro de Oro	11	Noviembre	2023-11-17T00:00:00	2024-11-08T07:00:00	8	Radiación solar	49
184713	7	Sololá	719	Santiago Atitlán	14	Cerro de Oro	11	Noviembre	2023-11-17T00:00:00	2024-11-08T08:00:00	2	Temperatura media	19.2
184714	7	Sololá	719	Santiago Atitlán	14	Cerro de Oro	11	Noviembre	2023-11-17T00:00:00	2024-11-08T08:00:00	4	Temperatura máxima	19.3
184715	7	Sololá	719	Santiago Atitlán	14	Cerro de Oro	11	Noviembre	2023-11-17T00:00:00	2024-11-08T08:00:00	3	Temperatura mínima	17.9
184716	7	Sololá	719	Santiago Atitlán	14	Cerro de Oro	11	Noviembre	2023-11-17T00:00:00	2024-11-08T08:00:00	5	Humedad	80
184717	7	Sololá	719	Santiago Atitlán	14	Cerro de Oro	11	Noviembre	2023-11-17T00:00:00	2024-11-08T08:00:00	6	Velocidad del viento	3.2
184718	7	Sololá	719	Santiago Atitlán	14	Cerro de Oro	11	Noviembre	2023-11-17T00:00:00	2024-11-08T08:00:00	7	Dirección del viento	3.22
184719	7	Sololá	719	Santiago Atitlán	14	Cerro de Oro	11	Noviembre	2023-11-17T00:00:00	2024-11-08T08:00:00	1	Precipitación	0
184720	7	Sololá	719	Santiago Atitlán	14	Cerro de Oro	11	Noviembre	2023-11-17T00:00:00	2024-11-08T08:00:00	8	Radiación solar	193
184721	7	Sololá	719	Santiago Atitlán	14	Cerro de Oro	11	Noviembre	2023-11-17T00:00:00	2024-11-08T09:00:00	2	Temperatura media	20.2
184722	7	Sololá	719	Santiago Atitlán	14	Cerro de Oro	11	Noviembre	2023-11-17T00:00:00	2024-11-08T09:00:00	4	Temperatura máxima	20.3
184723	7	Sololá	719	Santiago Atitlán	14	Cerro de Oro	11	Noviembre	2023-11-17T00:00:00	2024-11-08T09:00:00	3	Temperatura mínima	19.2
184724	7	Sololá	719	Santiago Atitlán	14	Cerro de Oro	11	Noviembre	2023-11-17T00:00:00	2024-11-08T09:00:00	5	Humedad	79
184725	7	Sololá	719	Santiago Atitlán	14	Cerro de Oro	11	Noviembre	2023-11-17T00:00:00	2024-11-08T09:00:00	6	Velocidad del viento	3.2
184726	7	Sololá	719	Santiago Atitlán	14	Cerro de Oro	11	Noviembre	2023-11-17T00:00:00	2024-11-08T09:00:00	7	Dirección del viento	3.22
184727	7	Sololá	719	Santiago Atitlán	14	Cerro de Oro	11	Noviembre	2023-11-17T00:00:00	2024-11-08T09:00:00	1	Precipitación	0
184728	7	Sololá	719	Santiago Atitlán	14	Cerro de Oro	11	Noviembre	2023-11-17T00:00:00	2024-11-08T09:00:00	8	Radiación solar	457
184729	7	Sololá	719	Santiago Atitlán	14	Cerro de Oro	11	Noviembre	2023-11-17T00:00:00	2024-11-08T10:00:00	2	Temperatura media	21.2
184730	7	Sololá	719	Santiago Atitlán	14	Cerro de Oro	11	Noviembre	2023-11-17T00:00:00	2024-11-08T10:00:00	4	Temperatura máxima	21.2
184731	7	Sololá	719	Santiago Atitlán	14	Cerro de Oro	11	Noviembre	2023-11-17T00:00:00	2024-11-08T10:00:00	3	Temperatura mínima	20.1
184732	7	Sololá	719	Santiago Atitlán	14	Cerro de Oro	11	Noviembre	2023-11-17T00:00:00	2024-11-08T10:00:00	5	Humedad	77
184733	7	Sololá	719	Santiago Atitlán	14	Cerro de Oro	11	Noviembre	2023-11-17T00:00:00	2024-11-08T10:00:00	6	Velocidad del viento	4.8
184734	7	Sololá	719	Santiago Atitlán	14	Cerro de Oro	11	Noviembre	2023-11-17T00:00:00	2024-11-08T10:00:00	7	Dirección del viento	4.83
184735	7	Sololá	719	Santiago Atitlán	14	Cerro de Oro	11	Noviembre	2023-11-17T00:00:00	2024-11-08T10:00:00	1	Precipitación	0
184736	7	Sololá	719	Santiago Atitlán	14	Cerro de Oro	11	Noviembre	2023-11-17T00:00:00	2024-11-08T10:00:00	8	Radiación solar	628
184737	7	Sololá	719	Santiago Atitlán	14	Cerro de Oro	11	Noviembre	2023-11-17T00:00:00	2024-11-08T11:00:00	2	Temperatura media	21.3
184738	7	Sololá	719	Santiago Atitlán	14	Cerro de Oro	11	Noviembre	2023-11-17T00:00:00	2024-11-08T11:00:00	4	Temperatura máxima	21.4
184739	7	Sololá	719	Santiago Atitlán	14	Cerro de Oro	11	Noviembre	2023-11-17T00:00:00	2024-11-08T11:00:00	3	Temperatura mínima	20.9
184740	7	Sololá	719	Santiago Atitlán	14	Cerro de Oro	11	Noviembre	2023-11-17T00:00:00	2024-11-08T11:00:00	5	Humedad	75
184741	7	Sololá	719	Santiago Atitlán	14	Cerro de Oro	11	Noviembre	2023-11-17T00:00:00	2024-11-08T11:00:00	6	Velocidad del viento	4.8
184742	7	Sololá	719	Santiago Atitlán	14	Cerro de Oro	11	Noviembre	2023-11-17T00:00:00	2024-11-08T11:00:00	7	Dirección del viento	4.83
184743	7	Sololá	719	Santiago Atitlán	14	Cerro de Oro	11	Noviembre	2023-11-17T00:00:00	2024-11-08T11:00:00	1	Precipitación	0
184744	7	Sololá	719	Santiago Atitlán	14	Cerro de Oro	11	Noviembre	2023-11-17T00:00:00	2024-11-08T11:00:00	8	Radiación solar	610
184745	7	Sololá	719	Santiago Atitlán	14	Cerro de Oro	11	Noviembre	2023-11-17T00:00:00	2024-11-08T12:00:00	2	Temperatura media	22.6
184746	7	Sololá	719	Santiago Atitlán	14	Cerro de Oro	11	Noviembre	2023-11-17T00:00:00	2024-11-08T12:00:00	4	Temperatura máxima	22.6
184747	7	Sololá	719	Santiago Atitlán	14	Cerro de Oro	11	Noviembre	2023-11-17T00:00:00	2024-11-08T12:00:00	3	Temperatura mínima	21.2
184748	7	Sololá	719	Santiago Atitlán	14	Cerro de Oro	11	Noviembre	2023-11-17T00:00:00	2024-11-08T12:00:00	5	Humedad	75
184749	7	Sololá	719	Santiago Atitlán	14	Cerro de Oro	11	Noviembre	2023-11-17T00:00:00	2024-11-08T12:00:00	6	Velocidad del viento	3.2
184750	7	Sololá	719	Santiago Atitlán	14	Cerro de Oro	11	Noviembre	2023-11-17T00:00:00	2024-11-08T12:00:00	7	Dirección del viento	3.22
184751	7	Sololá	719	Santiago Atitlán	14	Cerro de Oro	11	Noviembre	2023-11-17T00:00:00	2024-11-08T12:00:00	1	Precipitación	0
184752	7	Sololá	719	Santiago Atitlán	14	Cerro de Oro	11	Noviembre	2023-11-17T00:00:00	2024-11-08T12:00:00	8	Radiación solar	367
184753	7	Sololá	719	Santiago Atitlán	14	Cerro de Oro	11	Noviembre	2023-11-17T00:00:00	2024-11-08T13:00:00	2	Temperatura media	22.1
184754	7	Sololá	719	Santiago Atitlán	14	Cerro de Oro	11	Noviembre	2023-11-17T00:00:00	2024-11-08T13:00:00	4	Temperatura máxima	22.7
184755	7	Sololá	719	Santiago Atitlán	14	Cerro de Oro	11	Noviembre	2023-11-17T00:00:00	2024-11-08T13:00:00	3	Temperatura mínima	22.1
184756	7	Sololá	719	Santiago Atitlán	14	Cerro de Oro	11	Noviembre	2023-11-17T00:00:00	2024-11-08T13:00:00	5	Humedad	77
184757	7	Sololá	719	Santiago Atitlán	14	Cerro de Oro	11	Noviembre	2023-11-17T00:00:00	2024-11-08T13:00:00	6	Velocidad del viento	8
184758	7	Sololá	719	Santiago Atitlán	14	Cerro de Oro	11	Noviembre	2023-11-17T00:00:00	2024-11-08T13:00:00	7	Dirección del viento	8.05
184759	7	Sololá	719	Santiago Atitlán	14	Cerro de Oro	11	Noviembre	2023-11-17T00:00:00	2024-11-08T13:00:00	1	Precipitación	0
184760	7	Sololá	719	Santiago Atitlán	14	Cerro de Oro	11	Noviembre	2023-11-17T00:00:00	2024-11-08T13:00:00	8	Radiación solar	303
184761	7	Sololá	719	Santiago Atitlán	14	Cerro de Oro	11	Noviembre	2023-11-17T00:00:00	2024-11-08T14:00:00	2	Temperatura media	22
184762	7	Sololá	719	Santiago Atitlán	14	Cerro de Oro	11	Noviembre	2023-11-17T00:00:00	2024-11-08T14:00:00	4	Temperatura máxima	22.6
184763	7	Sololá	719	Santiago Atitlán	14	Cerro de Oro	11	Noviembre	2023-11-17T00:00:00	2024-11-08T14:00:00	3	Temperatura mínima	21.6
184764	7	Sololá	719	Santiago Atitlán	14	Cerro de Oro	11	Noviembre	2023-11-17T00:00:00	2024-11-08T14:00:00	5	Humedad	79
184765	7	Sololá	719	Santiago Atitlán	14	Cerro de Oro	11	Noviembre	2023-11-17T00:00:00	2024-11-08T14:00:00	6	Velocidad del viento	11.3
184766	7	Sololá	719	Santiago Atitlán	14	Cerro de Oro	11	Noviembre	2023-11-17T00:00:00	2024-11-08T14:00:00	7	Dirección del viento	11.27
184767	7	Sololá	719	Santiago Atitlán	14	Cerro de Oro	11	Noviembre	2023-11-17T00:00:00	2024-11-08T14:00:00	1	Precipitación	0
184768	7	Sololá	719	Santiago Atitlán	14	Cerro de Oro	11	Noviembre	2023-11-17T00:00:00	2024-11-08T14:00:00	8	Radiación solar	637
184769	7	Sololá	719	Santiago Atitlán	14	Cerro de Oro	11	Noviembre	2023-11-17T00:00:00	2024-11-08T15:00:00	2	Temperatura media	21.1
184770	7	Sololá	719	Santiago Atitlán	14	Cerro de Oro	11	Noviembre	2023-11-17T00:00:00	2024-11-08T15:00:00	4	Temperatura máxima	22.1
184771	7	Sololá	719	Santiago Atitlán	14	Cerro de Oro	11	Noviembre	2023-11-17T00:00:00	2024-11-08T15:00:00	3	Temperatura mínima	20.8
184772	7	Sololá	719	Santiago Atitlán	14	Cerro de Oro	11	Noviembre	2023-11-17T00:00:00	2024-11-08T15:00:00	5	Humedad	83
184773	7	Sololá	719	Santiago Atitlán	14	Cerro de Oro	11	Noviembre	2023-11-17T00:00:00	2024-11-08T15:00:00	6	Velocidad del viento	9.7
184774	7	Sololá	719	Santiago Atitlán	14	Cerro de Oro	11	Noviembre	2023-11-17T00:00:00	2024-11-08T15:00:00	7	Dirección del viento	9.66
184775	7	Sololá	719	Santiago Atitlán	14	Cerro de Oro	11	Noviembre	2023-11-17T00:00:00	2024-11-08T15:00:00	1	Precipitación	0
184776	7	Sololá	719	Santiago Atitlán	14	Cerro de Oro	11	Noviembre	2023-11-17T00:00:00	2024-11-08T15:00:00	8	Radiación solar	278
184777	7	Sololá	719	Santiago Atitlán	14	Cerro de Oro	11	Noviembre	2023-11-17T00:00:00	2024-11-08T16:00:00	2	Temperatura media	20.6
184778	7	Sololá	719	Santiago Atitlán	14	Cerro de Oro	11	Noviembre	2023-11-17T00:00:00	2024-11-08T16:00:00	4	Temperatura máxima	21.1
184779	7	Sololá	719	Santiago Atitlán	14	Cerro de Oro	11	Noviembre	2023-11-17T00:00:00	2024-11-08T16:00:00	3	Temperatura mínima	20.4
184780	7	Sololá	719	Santiago Atitlán	14	Cerro de Oro	11	Noviembre	2023-11-17T00:00:00	2024-11-08T16:00:00	5	Humedad	84
184781	7	Sololá	719	Santiago Atitlán	14	Cerro de Oro	11	Noviembre	2023-11-17T00:00:00	2024-11-08T16:00:00	6	Velocidad del viento	9.7
184782	7	Sololá	719	Santiago Atitlán	14	Cerro de Oro	11	Noviembre	2023-11-17T00:00:00	2024-11-08T16:00:00	7	Dirección del viento	9.66
184783	7	Sololá	719	Santiago Atitlán	14	Cerro de Oro	11	Noviembre	2023-11-17T00:00:00	2024-11-08T16:00:00	1	Precipitación	0
184784	7	Sololá	719	Santiago Atitlán	14	Cerro de Oro	11	Noviembre	2023-11-17T00:00:00	2024-11-08T16:00:00	8	Radiación solar	146
184785	7	Sololá	719	Santiago Atitlán	14	Cerro de Oro	11	Noviembre	2023-11-17T00:00:00	2024-11-08T17:00:00	2	Temperatura media	20.2
184786	7	Sololá	719	Santiago Atitlán	14	Cerro de Oro	11	Noviembre	2023-11-17T00:00:00	2024-11-08T17:00:00	4	Temperatura máxima	21.2
184787	7	Sololá	719	Santiago Atitlán	14	Cerro de Oro	11	Noviembre	2023-11-17T00:00:00	2024-11-08T17:00:00	3	Temperatura mínima	20.2
184788	7	Sololá	719	Santiago Atitlán	14	Cerro de Oro	11	Noviembre	2023-11-17T00:00:00	2024-11-08T17:00:00	5	Humedad	86
184789	7	Sololá	719	Santiago Atitlán	14	Cerro de Oro	11	Noviembre	2023-11-17T00:00:00	2024-11-08T17:00:00	6	Velocidad del viento	4.8
184790	7	Sololá	719	Santiago Atitlán	14	Cerro de Oro	11	Noviembre	2023-11-17T00:00:00	2024-11-08T17:00:00	7	Dirección del viento	4.83
184791	7	Sololá	719	Santiago Atitlán	14	Cerro de Oro	11	Noviembre	2023-11-17T00:00:00	2024-11-08T17:00:00	1	Precipitación	0
184792	7	Sololá	719	Santiago Atitlán	14	Cerro de Oro	11	Noviembre	2023-11-17T00:00:00	2024-11-08T17:00:00	8	Radiación solar	126
184793	7	Sololá	719	Santiago Atitlán	14	Cerro de Oro	11	Noviembre	2023-11-17T00:00:00	2024-11-08T18:00:00	2	Temperatura media	19.2
184794	7	Sololá	719	Santiago Atitlán	14	Cerro de Oro	11	Noviembre	2023-11-17T00:00:00	2024-11-08T18:00:00	4	Temperatura máxima	20.2
184795	7	Sololá	719	Santiago Atitlán	14	Cerro de Oro	11	Noviembre	2023-11-17T00:00:00	2024-11-08T18:00:00	3	Temperatura mínima	19.1
184796	7	Sololá	719	Santiago Atitlán	14	Cerro de Oro	11	Noviembre	2023-11-17T00:00:00	2024-11-08T18:00:00	5	Humedad	86
184797	7	Sololá	719	Santiago Atitlán	14	Cerro de Oro	11	Noviembre	2023-11-17T00:00:00	2024-11-08T18:00:00	6	Velocidad del viento	4.8
184798	7	Sololá	719	Santiago Atitlán	14	Cerro de Oro	11	Noviembre	2023-11-17T00:00:00	2024-11-08T18:00:00	7	Dirección del viento	4.83
184799	7	Sololá	719	Santiago Atitlán	14	Cerro de Oro	11	Noviembre	2023-11-17T00:00:00	2024-11-08T18:00:00	1	Precipitación	0
184800	7	Sololá	719	Santiago Atitlán	14	Cerro de Oro	11	Noviembre	2023-11-17T00:00:00	2024-11-08T18:00:00	8	Radiación solar	3
184801	7	Sololá	719	Santiago Atitlán	14	Cerro de Oro	11	Noviembre	2023-11-17T00:00:00	2024-11-08T19:00:00	2	Temperatura media	19.3
184802	7	Sololá	719	Santiago Atitlán	14	Cerro de Oro	11	Noviembre	2023-11-17T00:00:00	2024-11-08T19:00:00	4	Temperatura máxima	19.6
184803	7	Sololá	719	Santiago Atitlán	14	Cerro de Oro	11	Noviembre	2023-11-17T00:00:00	2024-11-08T19:00:00	3	Temperatura mínima	19.2
184804	7	Sololá	719	Santiago Atitlán	14	Cerro de Oro	11	Noviembre	2023-11-17T00:00:00	2024-11-08T19:00:00	5	Humedad	86
184805	7	Sololá	719	Santiago Atitlán	14	Cerro de Oro	11	Noviembre	2023-11-17T00:00:00	2024-11-08T19:00:00	6	Velocidad del viento	3.2
184806	7	Sololá	719	Santiago Atitlán	14	Cerro de Oro	11	Noviembre	2023-11-17T00:00:00	2024-11-08T19:00:00	7	Dirección del viento	3.22
184807	7	Sololá	719	Santiago Atitlán	14	Cerro de Oro	11	Noviembre	2023-11-17T00:00:00	2024-11-08T19:00:00	1	Precipitación	0
184808	7	Sololá	719	Santiago Atitlán	14	Cerro de Oro	11	Noviembre	2023-11-17T00:00:00	2024-11-08T19:00:00	8	Radiación solar	0
184809	7	Sololá	719	Santiago Atitlán	14	Cerro de Oro	11	Noviembre	2023-11-17T00:00:00	2024-11-08T20:00:00	2	Temperatura media	18.4
184810	7	Sololá	719	Santiago Atitlán	14	Cerro de Oro	11	Noviembre	2023-11-17T00:00:00	2024-11-08T20:00:00	4	Temperatura máxima	19.3
184811	7	Sololá	719	Santiago Atitlán	14	Cerro de Oro	11	Noviembre	2023-11-17T00:00:00	2024-11-08T20:00:00	3	Temperatura mínima	18.4
184812	7	Sololá	719	Santiago Atitlán	14	Cerro de Oro	11	Noviembre	2023-11-17T00:00:00	2024-11-08T20:00:00	5	Humedad	92
184813	7	Sololá	719	Santiago Atitlán	14	Cerro de Oro	11	Noviembre	2023-11-17T00:00:00	2024-11-08T20:00:00	6	Velocidad del viento	4.8
184814	7	Sololá	719	Santiago Atitlán	14	Cerro de Oro	11	Noviembre	2023-11-17T00:00:00	2024-11-08T20:00:00	7	Dirección del viento	4.83
184815	7	Sololá	719	Santiago Atitlán	14	Cerro de Oro	11	Noviembre	2023-11-17T00:00:00	2024-11-08T20:00:00	1	Precipitación	0
184816	7	Sololá	719	Santiago Atitlán	14	Cerro de Oro	11	Noviembre	2023-11-17T00:00:00	2024-11-08T20:00:00	8	Radiación solar	0
184817	7	Sololá	719	Santiago Atitlán	14	Cerro de Oro	11	Noviembre	2023-11-17T00:00:00	2024-11-08T21:00:00	2	Temperatura media	17.8
184818	7	Sololá	719	Santiago Atitlán	14	Cerro de Oro	11	Noviembre	2023-11-17T00:00:00	2024-11-08T21:00:00	4	Temperatura máxima	18.4
184819	7	Sololá	719	Santiago Atitlán	14	Cerro de Oro	11	Noviembre	2023-11-17T00:00:00	2024-11-08T21:00:00	3	Temperatura mínima	17.7
184820	7	Sololá	719	Santiago Atitlán	14	Cerro de Oro	11	Noviembre	2023-11-17T00:00:00	2024-11-08T21:00:00	5	Humedad	94
184821	7	Sololá	719	Santiago Atitlán	14	Cerro de Oro	11	Noviembre	2023-11-17T00:00:00	2024-11-08T21:00:00	6	Velocidad del viento	4.8
184822	7	Sololá	719	Santiago Atitlán	14	Cerro de Oro	11	Noviembre	2023-11-17T00:00:00	2024-11-08T21:00:00	7	Dirección del viento	4.83
184823	7	Sololá	719	Santiago Atitlán	14	Cerro de Oro	11	Noviembre	2023-11-17T00:00:00	2024-11-08T21:00:00	1	Precipitación	0.2
184824	7	Sololá	719	Santiago Atitlán	14	Cerro de Oro	11	Noviembre	2023-11-17T00:00:00	2024-11-08T21:00:00	8	Radiación solar	0
184825	7	Sololá	719	Santiago Atitlán	14	Cerro de Oro	11	Noviembre	2023-11-17T00:00:00	2024-11-08T22:00:00	2	Temperatura media	17.6
184826	7	Sololá	719	Santiago Atitlán	14	Cerro de Oro	11	Noviembre	2023-11-17T00:00:00	2024-11-08T22:00:00	4	Temperatura máxima	17.8
184827	7	Sololá	719	Santiago Atitlán	14	Cerro de Oro	11	Noviembre	2023-11-17T00:00:00	2024-11-08T22:00:00	3	Temperatura mínima	17.6
184828	7	Sololá	719	Santiago Atitlán	14	Cerro de Oro	11	Noviembre	2023-11-17T00:00:00	2024-11-08T22:00:00	5	Humedad	94
184829	7	Sololá	719	Santiago Atitlán	14	Cerro de Oro	11	Noviembre	2023-11-17T00:00:00	2024-11-08T22:00:00	6	Velocidad del viento	1.6
184830	7	Sololá	719	Santiago Atitlán	14	Cerro de Oro	11	Noviembre	2023-11-17T00:00:00	2024-11-08T22:00:00	7	Dirección del viento	1.61
184831	7	Sololá	719	Santiago Atitlán	14	Cerro de Oro	11	Noviembre	2023-11-17T00:00:00	2024-11-08T22:00:00	1	Precipitación	0.8
184832	7	Sololá	719	Santiago Atitlán	14	Cerro de Oro	11	Noviembre	2023-11-17T00:00:00	2024-11-08T22:00:00	8	Radiación solar	0
184833	7	Sololá	719	Santiago Atitlán	14	Cerro de Oro	11	Noviembre	2023-11-17T00:00:00	2024-11-08T23:00:00	2	Temperatura media	17.5
184834	7	Sololá	719	Santiago Atitlán	14	Cerro de Oro	11	Noviembre	2023-11-17T00:00:00	2024-11-08T23:00:00	4	Temperatura máxima	17.6
184835	7	Sololá	719	Santiago Atitlán	14	Cerro de Oro	11	Noviembre	2023-11-17T00:00:00	2024-11-08T23:00:00	3	Temperatura mínima	17.5
184836	7	Sololá	719	Santiago Atitlán	14	Cerro de Oro	11	Noviembre	2023-11-17T00:00:00	2024-11-08T23:00:00	5	Humedad	94
184837	7	Sololá	719	Santiago Atitlán	14	Cerro de Oro	11	Noviembre	2023-11-17T00:00:00	2024-11-08T23:00:00	6	Velocidad del viento	1.6
184838	7	Sololá	719	Santiago Atitlán	14	Cerro de Oro	11	Noviembre	2023-11-17T00:00:00	2024-11-08T23:00:00	7	Dirección del viento	1.61
184839	7	Sololá	719	Santiago Atitlán	14	Cerro de Oro	11	Noviembre	2023-11-17T00:00:00	2024-11-08T23:00:00	1	Precipitación	1.2
184840	7	Sololá	719	Santiago Atitlán	14	Cerro de Oro	11	Noviembre	2023-11-17T00:00:00	2024-11-08T23:00:00	8	Radiación solar	0
184841	7	Sololá	719	Santiago Atitlán	14	Cerro de Oro	11	Noviembre	2023-11-18T00:00:00	2024-11-08T00:00:00	2	Temperatura media	17.2
184842	7	Sololá	719	Santiago Atitlán	14	Cerro de Oro	11	Noviembre	2023-11-18T00:00:00	2024-11-08T00:00:00	4	Temperatura máxima	17.6
184843	7	Sololá	719	Santiago Atitlán	14	Cerro de Oro	11	Noviembre	2023-11-18T00:00:00	2024-11-08T00:00:00	3	Temperatura mínima	17.2
184844	7	Sololá	719	Santiago Atitlán	14	Cerro de Oro	11	Noviembre	2023-11-18T00:00:00	2024-11-08T00:00:00	5	Humedad	93
184845	7	Sololá	719	Santiago Atitlán	14	Cerro de Oro	11	Noviembre	2023-11-18T00:00:00	2024-11-08T00:00:00	6	Velocidad del viento	1.6
184846	7	Sololá	719	Santiago Atitlán	14	Cerro de Oro	11	Noviembre	2023-11-18T00:00:00	2024-11-08T00:00:00	7	Dirección del viento	1.61
184847	7	Sololá	719	Santiago Atitlán	14	Cerro de Oro	11	Noviembre	2023-11-18T00:00:00	2024-11-08T00:00:00	1	Precipitación	1.2
184848	7	Sololá	719	Santiago Atitlán	14	Cerro de Oro	11	Noviembre	2023-11-18T00:00:00	2024-11-08T00:00:00	8	Radiación solar	0
184849	7	Sololá	719	Santiago Atitlán	14	Cerro de Oro	11	Noviembre	2023-11-18T00:00:00	2024-11-08T01:00:00	2	Temperatura media	16.9
184850	7	Sololá	719	Santiago Atitlán	14	Cerro de Oro	11	Noviembre	2023-11-18T00:00:00	2024-11-08T01:00:00	4	Temperatura máxima	17.3
184851	7	Sololá	719	Santiago Atitlán	14	Cerro de Oro	11	Noviembre	2023-11-18T00:00:00	2024-11-08T01:00:00	3	Temperatura mínima	16.9
184852	7	Sololá	719	Santiago Atitlán	14	Cerro de Oro	11	Noviembre	2023-11-18T00:00:00	2024-11-08T01:00:00	5	Humedad	94
184853	7	Sololá	719	Santiago Atitlán	14	Cerro de Oro	11	Noviembre	2023-11-18T00:00:00	2024-11-08T01:00:00	6	Velocidad del viento	4.8
184854	7	Sololá	719	Santiago Atitlán	14	Cerro de Oro	11	Noviembre	2023-11-18T00:00:00	2024-11-08T01:00:00	7	Dirección del viento	4.83
184855	7	Sololá	719	Santiago Atitlán	14	Cerro de Oro	11	Noviembre	2023-11-18T00:00:00	2024-11-08T01:00:00	1	Precipitación	0.2
184856	7	Sololá	719	Santiago Atitlán	14	Cerro de Oro	11	Noviembre	2023-11-18T00:00:00	2024-11-08T01:00:00	8	Radiación solar	0
184857	7	Sololá	719	Santiago Atitlán	14	Cerro de Oro	11	Noviembre	2023-11-18T00:00:00	2024-11-08T02:00:00	2	Temperatura media	16.6
184858	7	Sololá	719	Santiago Atitlán	14	Cerro de Oro	11	Noviembre	2023-11-18T00:00:00	2024-11-08T02:00:00	4	Temperatura máxima	16.9
184859	7	Sololá	719	Santiago Atitlán	14	Cerro de Oro	11	Noviembre	2023-11-18T00:00:00	2024-11-08T02:00:00	3	Temperatura mínima	16.5
184860	7	Sololá	719	Santiago Atitlán	14	Cerro de Oro	11	Noviembre	2023-11-18T00:00:00	2024-11-08T02:00:00	5	Humedad	94
184861	7	Sololá	719	Santiago Atitlán	14	Cerro de Oro	11	Noviembre	2023-11-18T00:00:00	2024-11-08T02:00:00	6	Velocidad del viento	4.8
184862	7	Sololá	719	Santiago Atitlán	14	Cerro de Oro	11	Noviembre	2023-11-18T00:00:00	2024-11-08T02:00:00	7	Dirección del viento	4.83
184863	7	Sololá	719	Santiago Atitlán	14	Cerro de Oro	11	Noviembre	2023-11-18T00:00:00	2024-11-08T02:00:00	1	Precipitación	0
184864	7	Sololá	719	Santiago Atitlán	14	Cerro de Oro	11	Noviembre	2023-11-18T00:00:00	2024-11-08T02:00:00	8	Radiación solar	0
184865	7	Sololá	719	Santiago Atitlán	14	Cerro de Oro	11	Noviembre	2023-11-18T00:00:00	2024-11-08T03:00:00	2	Temperatura media	16.7
184866	7	Sololá	719	Santiago Atitlán	14	Cerro de Oro	11	Noviembre	2023-11-18T00:00:00	2024-11-08T03:00:00	4	Temperatura máxima	16.7
184867	7	Sololá	719	Santiago Atitlán	14	Cerro de Oro	11	Noviembre	2023-11-18T00:00:00	2024-11-08T03:00:00	3	Temperatura mínima	16.6
184868	7	Sololá	719	Santiago Atitlán	14	Cerro de Oro	11	Noviembre	2023-11-18T00:00:00	2024-11-08T03:00:00	5	Humedad	94
184869	7	Sololá	719	Santiago Atitlán	14	Cerro de Oro	11	Noviembre	2023-11-18T00:00:00	2024-11-08T03:00:00	6	Velocidad del viento	3.2
184870	7	Sololá	719	Santiago Atitlán	14	Cerro de Oro	11	Noviembre	2023-11-18T00:00:00	2024-11-08T03:00:00	7	Dirección del viento	3.22
184871	7	Sololá	719	Santiago Atitlán	14	Cerro de Oro	11	Noviembre	2023-11-18T00:00:00	2024-11-08T03:00:00	1	Precipitación	0
184872	7	Sololá	719	Santiago Atitlán	14	Cerro de Oro	11	Noviembre	2023-11-18T00:00:00	2024-11-08T03:00:00	8	Radiación solar	0
184873	7	Sololá	719	Santiago Atitlán	14	Cerro de Oro	11	Noviembre	2023-11-18T00:00:00	2024-11-08T04:00:00	2	Temperatura media	16.7
184874	7	Sololá	719	Santiago Atitlán	14	Cerro de Oro	11	Noviembre	2023-11-18T00:00:00	2024-11-08T04:00:00	4	Temperatura máxima	16.9
184875	7	Sololá	719	Santiago Atitlán	14	Cerro de Oro	11	Noviembre	2023-11-18T00:00:00	2024-11-08T04:00:00	3	Temperatura mínima	16.7
184876	7	Sololá	719	Santiago Atitlán	14	Cerro de Oro	11	Noviembre	2023-11-18T00:00:00	2024-11-08T04:00:00	5	Humedad	94
184877	7	Sololá	719	Santiago Atitlán	14	Cerro de Oro	11	Noviembre	2023-11-18T00:00:00	2024-11-08T04:00:00	6	Velocidad del viento	1.6
184878	7	Sololá	719	Santiago Atitlán	14	Cerro de Oro	11	Noviembre	2023-11-18T00:00:00	2024-11-08T04:00:00	7	Dirección del viento	1.61
184879	7	Sololá	719	Santiago Atitlán	14	Cerro de Oro	11	Noviembre	2023-11-18T00:00:00	2024-11-08T04:00:00	1	Precipitación	0
184880	7	Sololá	719	Santiago Atitlán	14	Cerro de Oro	11	Noviembre	2023-11-18T00:00:00	2024-11-08T04:00:00	8	Radiación solar	0
184881	7	Sololá	719	Santiago Atitlán	14	Cerro de Oro	11	Noviembre	2023-11-18T00:00:00	2024-11-08T05:00:00	2	Temperatura media	16.7
184882	7	Sololá	719	Santiago Atitlán	14	Cerro de Oro	11	Noviembre	2023-11-18T00:00:00	2024-11-08T05:00:00	4	Temperatura máxima	16.7
184883	7	Sololá	719	Santiago Atitlán	14	Cerro de Oro	11	Noviembre	2023-11-18T00:00:00	2024-11-08T05:00:00	3	Temperatura mínima	16.5
184884	7	Sololá	719	Santiago Atitlán	14	Cerro de Oro	11	Noviembre	2023-11-18T00:00:00	2024-11-08T05:00:00	5	Humedad	93
184885	7	Sololá	719	Santiago Atitlán	14	Cerro de Oro	11	Noviembre	2023-11-18T00:00:00	2024-11-08T05:00:00	6	Velocidad del viento	3.2
184886	7	Sololá	719	Santiago Atitlán	14	Cerro de Oro	11	Noviembre	2023-11-18T00:00:00	2024-11-08T05:00:00	7	Dirección del viento	3.22
184887	7	Sololá	719	Santiago Atitlán	14	Cerro de Oro	11	Noviembre	2023-11-18T00:00:00	2024-11-08T05:00:00	1	Precipitación	0
184888	7	Sololá	719	Santiago Atitlán	14	Cerro de Oro	11	Noviembre	2023-11-18T00:00:00	2024-11-08T05:00:00	8	Radiación solar	0
184889	7	Sololá	719	Santiago Atitlán	14	Cerro de Oro	11	Noviembre	2023-11-18T00:00:00	2024-11-08T06:00:00	2	Temperatura media	15.9
184890	7	Sololá	719	Santiago Atitlán	14	Cerro de Oro	11	Noviembre	2023-11-18T00:00:00	2024-11-08T06:00:00	4	Temperatura máxima	16.8
184891	7	Sololá	719	Santiago Atitlán	14	Cerro de Oro	11	Noviembre	2023-11-18T00:00:00	2024-11-08T06:00:00	3	Temperatura mínima	15.8
184892	7	Sololá	719	Santiago Atitlán	14	Cerro de Oro	11	Noviembre	2023-11-18T00:00:00	2024-11-08T06:00:00	5	Humedad	92
184893	7	Sololá	719	Santiago Atitlán	14	Cerro de Oro	11	Noviembre	2023-11-18T00:00:00	2024-11-08T06:00:00	6	Velocidad del viento	4.8
184894	7	Sololá	719	Santiago Atitlán	14	Cerro de Oro	11	Noviembre	2023-11-18T00:00:00	2024-11-08T06:00:00	7	Dirección del viento	4.83
184895	7	Sololá	719	Santiago Atitlán	14	Cerro de Oro	11	Noviembre	2023-11-18T00:00:00	2024-11-08T06:00:00	1	Precipitación	0
184896	7	Sololá	719	Santiago Atitlán	14	Cerro de Oro	11	Noviembre	2023-11-18T00:00:00	2024-11-08T06:00:00	8	Radiación solar	0
184897	7	Sololá	719	Santiago Atitlán	14	Cerro de Oro	11	Noviembre	2023-11-18T00:00:00	2024-11-08T07:00:00	2	Temperatura media	16.1
184898	7	Sololá	719	Santiago Atitlán	14	Cerro de Oro	11	Noviembre	2023-11-18T00:00:00	2024-11-08T07:00:00	4	Temperatura máxima	16.3
184899	7	Sololá	719	Santiago Atitlán	14	Cerro de Oro	11	Noviembre	2023-11-18T00:00:00	2024-11-08T07:00:00	3	Temperatura mínima	15.9
184900	7	Sololá	719	Santiago Atitlán	14	Cerro de Oro	11	Noviembre	2023-11-18T00:00:00	2024-11-08T07:00:00	5	Humedad	93
184901	7	Sololá	719	Santiago Atitlán	14	Cerro de Oro	11	Noviembre	2023-11-18T00:00:00	2024-11-08T07:00:00	6	Velocidad del viento	3.2
184902	7	Sololá	719	Santiago Atitlán	14	Cerro de Oro	11	Noviembre	2023-11-18T00:00:00	2024-11-08T07:00:00	7	Dirección del viento	3.22
184903	7	Sololá	719	Santiago Atitlán	14	Cerro de Oro	11	Noviembre	2023-11-18T00:00:00	2024-11-08T07:00:00	1	Precipitación	0
184904	7	Sololá	719	Santiago Atitlán	14	Cerro de Oro	11	Noviembre	2023-11-18T00:00:00	2024-11-08T07:00:00	8	Radiación solar	39
184905	7	Sololá	719	Santiago Atitlán	14	Cerro de Oro	11	Noviembre	2023-11-18T00:00:00	2024-11-08T08:00:00	2	Temperatura media	17.9
184906	7	Sololá	719	Santiago Atitlán	14	Cerro de Oro	11	Noviembre	2023-11-18T00:00:00	2024-11-08T08:00:00	4	Temperatura máxima	18
184907	7	Sololá	719	Santiago Atitlán	14	Cerro de Oro	11	Noviembre	2023-11-18T00:00:00	2024-11-08T08:00:00	3	Temperatura mínima	16
184908	7	Sololá	719	Santiago Atitlán	14	Cerro de Oro	11	Noviembre	2023-11-18T00:00:00	2024-11-08T08:00:00	5	Humedad	88
184909	7	Sololá	719	Santiago Atitlán	14	Cerro de Oro	11	Noviembre	2023-11-18T00:00:00	2024-11-08T08:00:00	6	Velocidad del viento	1.6
184910	7	Sololá	719	Santiago Atitlán	14	Cerro de Oro	11	Noviembre	2023-11-18T00:00:00	2024-11-08T08:00:00	7	Dirección del viento	1.61
184911	7	Sololá	719	Santiago Atitlán	14	Cerro de Oro	11	Noviembre	2023-11-18T00:00:00	2024-11-08T08:00:00	1	Precipitación	0
184912	7	Sololá	719	Santiago Atitlán	14	Cerro de Oro	11	Noviembre	2023-11-18T00:00:00	2024-11-08T08:00:00	8	Radiación solar	131
184913	7	Sololá	719	Santiago Atitlán	14	Cerro de Oro	11	Noviembre	2023-11-18T00:00:00	2024-11-08T09:00:00	2	Temperatura media	20
184914	7	Sololá	719	Santiago Atitlán	14	Cerro de Oro	11	Noviembre	2023-11-18T00:00:00	2024-11-08T09:00:00	4	Temperatura máxima	20
184915	7	Sololá	719	Santiago Atitlán	14	Cerro de Oro	11	Noviembre	2023-11-18T00:00:00	2024-11-08T09:00:00	3	Temperatura mínima	18
184916	7	Sololá	719	Santiago Atitlán	14	Cerro de Oro	11	Noviembre	2023-11-18T00:00:00	2024-11-08T09:00:00	5	Humedad	82
184917	7	Sololá	719	Santiago Atitlán	14	Cerro de Oro	11	Noviembre	2023-11-18T00:00:00	2024-11-08T09:00:00	6	Velocidad del viento	1.6
184918	7	Sololá	719	Santiago Atitlán	14	Cerro de Oro	11	Noviembre	2023-11-18T00:00:00	2024-11-08T09:00:00	7	Dirección del viento	1.61
184919	7	Sololá	719	Santiago Atitlán	14	Cerro de Oro	11	Noviembre	2023-11-18T00:00:00	2024-11-08T09:00:00	1	Precipitación	0
184920	7	Sololá	719	Santiago Atitlán	14	Cerro de Oro	11	Noviembre	2023-11-18T00:00:00	2024-11-08T09:00:00	8	Radiación solar	396
184921	7	Sololá	719	Santiago Atitlán	14	Cerro de Oro	11	Noviembre	2023-11-18T00:00:00	2024-11-08T10:00:00	2	Temperatura media	19.9
184922	7	Sololá	719	Santiago Atitlán	14	Cerro de Oro	11	Noviembre	2023-11-18T00:00:00	2024-11-08T10:00:00	4	Temperatura máxima	20.4
184923	7	Sololá	719	Santiago Atitlán	14	Cerro de Oro	11	Noviembre	2023-11-18T00:00:00	2024-11-08T10:00:00	3	Temperatura mínima	19.8
184924	7	Sololá	719	Santiago Atitlán	14	Cerro de Oro	11	Noviembre	2023-11-18T00:00:00	2024-11-08T10:00:00	5	Humedad	79
184925	7	Sololá	719	Santiago Atitlán	14	Cerro de Oro	11	Noviembre	2023-11-18T00:00:00	2024-11-08T10:00:00	6	Velocidad del viento	3.2
184926	7	Sololá	719	Santiago Atitlán	14	Cerro de Oro	11	Noviembre	2023-11-18T00:00:00	2024-11-08T10:00:00	7	Dirección del viento	3.22
184927	7	Sololá	719	Santiago Atitlán	14	Cerro de Oro	11	Noviembre	2023-11-18T00:00:00	2024-11-08T10:00:00	1	Precipitación	0
184928	7	Sololá	719	Santiago Atitlán	14	Cerro de Oro	11	Noviembre	2023-11-18T00:00:00	2024-11-08T10:00:00	8	Radiación solar	389
184929	7	Sololá	719	Santiago Atitlán	14	Cerro de Oro	11	Noviembre	2023-11-18T00:00:00	2024-11-08T11:00:00	2	Temperatura media	20.6
184930	7	Sololá	719	Santiago Atitlán	14	Cerro de Oro	11	Noviembre	2023-11-18T00:00:00	2024-11-08T11:00:00	4	Temperatura máxima	20.8
184931	7	Sololá	719	Santiago Atitlán	14	Cerro de Oro	11	Noviembre	2023-11-18T00:00:00	2024-11-08T11:00:00	3	Temperatura mínima	19.9
184932	7	Sololá	719	Santiago Atitlán	14	Cerro de Oro	11	Noviembre	2023-11-18T00:00:00	2024-11-08T11:00:00	5	Humedad	78
184933	7	Sololá	719	Santiago Atitlán	14	Cerro de Oro	11	Noviembre	2023-11-18T00:00:00	2024-11-08T11:00:00	6	Velocidad del viento	1.6
184934	7	Sololá	719	Santiago Atitlán	14	Cerro de Oro	11	Noviembre	2023-11-18T00:00:00	2024-11-08T11:00:00	7	Dirección del viento	1.61
184935	7	Sololá	719	Santiago Atitlán	14	Cerro de Oro	11	Noviembre	2023-11-18T00:00:00	2024-11-08T11:00:00	1	Precipitación	0
184936	7	Sololá	719	Santiago Atitlán	14	Cerro de Oro	11	Noviembre	2023-11-18T00:00:00	2024-11-08T11:00:00	8	Radiación solar	292
184937	7	Sololá	719	Santiago Atitlán	14	Cerro de Oro	11	Noviembre	2023-11-18T00:00:00	2024-11-08T12:00:00	2	Temperatura media	21.1
184938	7	Sololá	719	Santiago Atitlán	14	Cerro de Oro	11	Noviembre	2023-11-18T00:00:00	2024-11-08T12:00:00	4	Temperatura máxima	21.6
184939	7	Sololá	719	Santiago Atitlán	14	Cerro de Oro	11	Noviembre	2023-11-18T00:00:00	2024-11-08T12:00:00	3	Temperatura mínima	20.6
184940	7	Sololá	719	Santiago Atitlán	14	Cerro de Oro	11	Noviembre	2023-11-18T00:00:00	2024-11-08T12:00:00	5	Humedad	78
184941	7	Sololá	719	Santiago Atitlán	14	Cerro de Oro	11	Noviembre	2023-11-18T00:00:00	2024-11-08T12:00:00	6	Velocidad del viento	6.4
184942	7	Sololá	719	Santiago Atitlán	14	Cerro de Oro	11	Noviembre	2023-11-18T00:00:00	2024-11-08T12:00:00	7	Dirección del viento	6.44
184943	7	Sololá	719	Santiago Atitlán	14	Cerro de Oro	11	Noviembre	2023-11-18T00:00:00	2024-11-08T12:00:00	1	Precipitación	0
184944	7	Sololá	719	Santiago Atitlán	14	Cerro de Oro	11	Noviembre	2023-11-18T00:00:00	2024-11-08T12:00:00	8	Radiación solar	389
184945	7	Sololá	719	Santiago Atitlán	14	Cerro de Oro	11	Noviembre	2023-11-18T00:00:00	2024-11-08T13:00:00	2	Temperatura media	22.5
184946	7	Sololá	719	Santiago Atitlán	14	Cerro de Oro	11	Noviembre	2023-11-18T00:00:00	2024-11-08T13:00:00	4	Temperatura máxima	22.8
184947	7	Sololá	719	Santiago Atitlán	14	Cerro de Oro	11	Noviembre	2023-11-18T00:00:00	2024-11-08T13:00:00	3	Temperatura mínima	21.1
184948	7	Sololá	719	Santiago Atitlán	14	Cerro de Oro	11	Noviembre	2023-11-18T00:00:00	2024-11-08T13:00:00	5	Humedad	72
184949	7	Sololá	719	Santiago Atitlán	14	Cerro de Oro	11	Noviembre	2023-11-18T00:00:00	2024-11-08T13:00:00	6	Velocidad del viento	6.4
184950	7	Sololá	719	Santiago Atitlán	14	Cerro de Oro	11	Noviembre	2023-11-18T00:00:00	2024-11-08T13:00:00	7	Dirección del viento	6.44
184951	7	Sololá	719	Santiago Atitlán	14	Cerro de Oro	11	Noviembre	2023-11-18T00:00:00	2024-11-08T13:00:00	1	Precipitación	0
184952	7	Sololá	719	Santiago Atitlán	14	Cerro de Oro	11	Noviembre	2023-11-18T00:00:00	2024-11-08T13:00:00	8	Radiación solar	722
184953	7	Sololá	719	Santiago Atitlán	14	Cerro de Oro	11	Noviembre	2023-11-18T00:00:00	2024-11-08T14:00:00	2	Temperatura media	22.2
184954	7	Sololá	719	Santiago Atitlán	14	Cerro de Oro	11	Noviembre	2023-11-18T00:00:00	2024-11-08T14:00:00	4	Temperatura máxima	22.9
184955	7	Sololá	719	Santiago Atitlán	14	Cerro de Oro	11	Noviembre	2023-11-18T00:00:00	2024-11-08T14:00:00	3	Temperatura mínima	21.6
184956	7	Sololá	719	Santiago Atitlán	14	Cerro de Oro	11	Noviembre	2023-11-18T00:00:00	2024-11-08T14:00:00	5	Humedad	75
184957	7	Sololá	719	Santiago Atitlán	14	Cerro de Oro	11	Noviembre	2023-11-18T00:00:00	2024-11-08T14:00:00	6	Velocidad del viento	3.2
184958	7	Sololá	719	Santiago Atitlán	14	Cerro de Oro	11	Noviembre	2023-11-18T00:00:00	2024-11-08T14:00:00	7	Dirección del viento	3.22
184959	7	Sololá	719	Santiago Atitlán	14	Cerro de Oro	11	Noviembre	2023-11-18T00:00:00	2024-11-08T14:00:00	1	Precipitación	0
184960	7	Sololá	719	Santiago Atitlán	14	Cerro de Oro	11	Noviembre	2023-11-18T00:00:00	2024-11-08T14:00:00	8	Radiación solar	377
184961	7	Sololá	719	Santiago Atitlán	14	Cerro de Oro	11	Noviembre	2023-11-18T00:00:00	2024-11-08T15:00:00	2	Temperatura media	21.1
184962	7	Sololá	719	Santiago Atitlán	14	Cerro de Oro	11	Noviembre	2023-11-18T00:00:00	2024-11-08T15:00:00	4	Temperatura máxima	22.2
184963	7	Sololá	719	Santiago Atitlán	14	Cerro de Oro	11	Noviembre	2023-11-18T00:00:00	2024-11-08T15:00:00	3	Temperatura mínima	21.1
184964	7	Sololá	719	Santiago Atitlán	14	Cerro de Oro	11	Noviembre	2023-11-18T00:00:00	2024-11-08T15:00:00	5	Humedad	82
184965	7	Sololá	719	Santiago Atitlán	14	Cerro de Oro	11	Noviembre	2023-11-18T00:00:00	2024-11-08T15:00:00	6	Velocidad del viento	4.8
184966	7	Sololá	719	Santiago Atitlán	14	Cerro de Oro	11	Noviembre	2023-11-18T00:00:00	2024-11-08T15:00:00	7	Dirección del viento	4.83
184967	7	Sololá	719	Santiago Atitlán	14	Cerro de Oro	11	Noviembre	2023-11-18T00:00:00	2024-11-08T15:00:00	1	Precipitación	0
184968	7	Sololá	719	Santiago Atitlán	14	Cerro de Oro	11	Noviembre	2023-11-18T00:00:00	2024-11-08T15:00:00	8	Radiación solar	139
184969	7	Sololá	719	Santiago Atitlán	14	Cerro de Oro	11	Noviembre	2023-11-18T00:00:00	2024-11-08T16:00:00	2	Temperatura media	20.1
184970	7	Sololá	719	Santiago Atitlán	14	Cerro de Oro	11	Noviembre	2023-11-18T00:00:00	2024-11-08T16:00:00	4	Temperatura máxima	21.3
184971	7	Sololá	719	Santiago Atitlán	14	Cerro de Oro	11	Noviembre	2023-11-18T00:00:00	2024-11-08T16:00:00	3	Temperatura mínima	20.1
184972	7	Sololá	719	Santiago Atitlán	14	Cerro de Oro	11	Noviembre	2023-11-18T00:00:00	2024-11-08T16:00:00	5	Humedad	87
184973	7	Sololá	719	Santiago Atitlán	14	Cerro de Oro	11	Noviembre	2023-11-18T00:00:00	2024-11-08T16:00:00	6	Velocidad del viento	9.7
184974	7	Sololá	719	Santiago Atitlán	14	Cerro de Oro	11	Noviembre	2023-11-18T00:00:00	2024-11-08T16:00:00	7	Dirección del viento	9.66
184975	7	Sololá	719	Santiago Atitlán	14	Cerro de Oro	11	Noviembre	2023-11-18T00:00:00	2024-11-08T16:00:00	1	Precipitación	0
184976	7	Sololá	719	Santiago Atitlán	14	Cerro de Oro	11	Noviembre	2023-11-18T00:00:00	2024-11-08T16:00:00	8	Radiación solar	203
184977	7	Sololá	719	Santiago Atitlán	14	Cerro de Oro	11	Noviembre	2023-11-18T00:00:00	2024-11-08T17:00:00	2	Temperatura media	19.5
184978	7	Sololá	719	Santiago Atitlán	14	Cerro de Oro	11	Noviembre	2023-11-18T00:00:00	2024-11-08T17:00:00	4	Temperatura máxima	20.1
184979	7	Sololá	719	Santiago Atitlán	14	Cerro de Oro	11	Noviembre	2023-11-18T00:00:00	2024-11-08T17:00:00	3	Temperatura mínima	19.5
184980	7	Sololá	719	Santiago Atitlán	14	Cerro de Oro	11	Noviembre	2023-11-18T00:00:00	2024-11-08T17:00:00	5	Humedad	88
184981	7	Sololá	719	Santiago Atitlán	14	Cerro de Oro	11	Noviembre	2023-11-18T00:00:00	2024-11-08T17:00:00	6	Velocidad del viento	8
184982	7	Sololá	719	Santiago Atitlán	14	Cerro de Oro	11	Noviembre	2023-11-18T00:00:00	2024-11-08T17:00:00	7	Dirección del viento	8.05
184983	7	Sololá	719	Santiago Atitlán	14	Cerro de Oro	11	Noviembre	2023-11-18T00:00:00	2024-11-08T17:00:00	1	Precipitación	0
184984	7	Sololá	719	Santiago Atitlán	14	Cerro de Oro	11	Noviembre	2023-11-18T00:00:00	2024-11-08T17:00:00	8	Radiación solar	82
184985	7	Sololá	719	Santiago Atitlán	14	Cerro de Oro	11	Noviembre	2023-11-18T00:00:00	2024-11-08T18:00:00	2	Temperatura media	19.2
184986	7	Sololá	719	Santiago Atitlán	14	Cerro de Oro	11	Noviembre	2023-11-18T00:00:00	2024-11-08T18:00:00	4	Temperatura máxima	19.5
184987	7	Sololá	719	Santiago Atitlán	14	Cerro de Oro	11	Noviembre	2023-11-18T00:00:00	2024-11-08T18:00:00	3	Temperatura mínima	19.1
184988	7	Sololá	719	Santiago Atitlán	14	Cerro de Oro	11	Noviembre	2023-11-18T00:00:00	2024-11-08T18:00:00	5	Humedad	89
184989	7	Sololá	719	Santiago Atitlán	14	Cerro de Oro	11	Noviembre	2023-11-18T00:00:00	2024-11-08T18:00:00	6	Velocidad del viento	6.4
184990	7	Sololá	719	Santiago Atitlán	14	Cerro de Oro	11	Noviembre	2023-11-18T00:00:00	2024-11-08T18:00:00	7	Dirección del viento	6.44
184991	7	Sololá	719	Santiago Atitlán	14	Cerro de Oro	11	Noviembre	2023-11-18T00:00:00	2024-11-08T18:00:00	1	Precipitación	0
184992	7	Sololá	719	Santiago Atitlán	14	Cerro de Oro	11	Noviembre	2023-11-18T00:00:00	2024-11-08T18:00:00	8	Radiación solar	9
184993	7	Sololá	719	Santiago Atitlán	14	Cerro de Oro	11	Noviembre	2023-11-18T00:00:00	2024-11-08T19:00:00	2	Temperatura media	19
184994	7	Sololá	719	Santiago Atitlán	14	Cerro de Oro	11	Noviembre	2023-11-18T00:00:00	2024-11-08T19:00:00	4	Temperatura máxima	19.2
184995	7	Sololá	719	Santiago Atitlán	14	Cerro de Oro	11	Noviembre	2023-11-18T00:00:00	2024-11-08T19:00:00	3	Temperatura mínima	18.9
184996	7	Sololá	719	Santiago Atitlán	14	Cerro de Oro	11	Noviembre	2023-11-18T00:00:00	2024-11-08T19:00:00	5	Humedad	88
184997	7	Sololá	719	Santiago Atitlán	14	Cerro de Oro	11	Noviembre	2023-11-18T00:00:00	2024-11-08T19:00:00	6	Velocidad del viento	4.8
184998	7	Sololá	719	Santiago Atitlán	14	Cerro de Oro	11	Noviembre	2023-11-18T00:00:00	2024-11-08T19:00:00	7	Dirección del viento	4.83
184999	7	Sololá	719	Santiago Atitlán	14	Cerro de Oro	11	Noviembre	2023-11-18T00:00:00	2024-11-08T19:00:00	1	Precipitación	0
185000	7	Sololá	719	Santiago Atitlán	14	Cerro de Oro	11	Noviembre	2023-11-18T00:00:00	2024-11-08T19:00:00	8	Radiación solar	0
185001	7	Sololá	719	Santiago Atitlán	14	Cerro de Oro	11	Noviembre	2023-11-18T00:00:00	2024-11-08T20:00:00	2	Temperatura media	18.5
185002	7	Sololá	719	Santiago Atitlán	14	Cerro de Oro	11	Noviembre	2023-11-18T00:00:00	2024-11-08T20:00:00	4	Temperatura máxima	19
185003	7	Sololá	719	Santiago Atitlán	14	Cerro de Oro	11	Noviembre	2023-11-18T00:00:00	2024-11-08T20:00:00	3	Temperatura mínima	18.1
185004	7	Sololá	719	Santiago Atitlán	14	Cerro de Oro	11	Noviembre	2023-11-18T00:00:00	2024-11-08T20:00:00	5	Humedad	85
185005	7	Sololá	719	Santiago Atitlán	14	Cerro de Oro	11	Noviembre	2023-11-18T00:00:00	2024-11-08T20:00:00	6	Velocidad del viento	3.2
185006	7	Sololá	719	Santiago Atitlán	14	Cerro de Oro	11	Noviembre	2023-11-18T00:00:00	2024-11-08T20:00:00	7	Dirección del viento	3.22
185007	7	Sololá	719	Santiago Atitlán	14	Cerro de Oro	11	Noviembre	2023-11-18T00:00:00	2024-11-08T20:00:00	1	Precipitación	0
185008	7	Sololá	719	Santiago Atitlán	14	Cerro de Oro	11	Noviembre	2023-11-18T00:00:00	2024-11-08T20:00:00	8	Radiación solar	0
185009	7	Sololá	719	Santiago Atitlán	14	Cerro de Oro	11	Noviembre	2023-11-18T00:00:00	2024-11-08T21:00:00	2	Temperatura media	18.4
185010	7	Sololá	719	Santiago Atitlán	14	Cerro de Oro	11	Noviembre	2023-11-18T00:00:00	2024-11-08T21:00:00	4	Temperatura máxima	19.2
185011	7	Sololá	719	Santiago Atitlán	14	Cerro de Oro	11	Noviembre	2023-11-18T00:00:00	2024-11-08T21:00:00	3	Temperatura mínima	18.4
185012	7	Sololá	719	Santiago Atitlán	14	Cerro de Oro	11	Noviembre	2023-11-18T00:00:00	2024-11-08T21:00:00	5	Humedad	79
185013	7	Sololá	719	Santiago Atitlán	14	Cerro de Oro	11	Noviembre	2023-11-18T00:00:00	2024-11-08T21:00:00	6	Velocidad del viento	3.2
185014	7	Sololá	719	Santiago Atitlán	14	Cerro de Oro	11	Noviembre	2023-11-18T00:00:00	2024-11-08T21:00:00	7	Dirección del viento	3.22
185015	7	Sololá	719	Santiago Atitlán	14	Cerro de Oro	11	Noviembre	2023-11-18T00:00:00	2024-11-08T21:00:00	1	Precipitación	0
185016	7	Sololá	719	Santiago Atitlán	14	Cerro de Oro	11	Noviembre	2023-11-18T00:00:00	2024-11-08T21:00:00	8	Radiación solar	0
185017	7	Sololá	719	Santiago Atitlán	14	Cerro de Oro	11	Noviembre	2023-11-18T00:00:00	2024-11-08T22:00:00	2	Temperatura media	18.1
185018	7	Sololá	719	Santiago Atitlán	14	Cerro de Oro	11	Noviembre	2023-11-18T00:00:00	2024-11-08T22:00:00	4	Temperatura máxima	18.7
185019	7	Sololá	719	Santiago Atitlán	14	Cerro de Oro	11	Noviembre	2023-11-18T00:00:00	2024-11-08T22:00:00	3	Temperatura mínima	18.1
185020	7	Sololá	719	Santiago Atitlán	14	Cerro de Oro	11	Noviembre	2023-11-18T00:00:00	2024-11-08T22:00:00	5	Humedad	77
185021	7	Sololá	719	Santiago Atitlán	14	Cerro de Oro	11	Noviembre	2023-11-18T00:00:00	2024-11-08T22:00:00	6	Velocidad del viento	4.8
185022	7	Sololá	719	Santiago Atitlán	14	Cerro de Oro	11	Noviembre	2023-11-18T00:00:00	2024-11-08T22:00:00	7	Dirección del viento	4.83
185023	7	Sololá	719	Santiago Atitlán	14	Cerro de Oro	11	Noviembre	2023-11-18T00:00:00	2024-11-08T22:00:00	1	Precipitación	0
185024	7	Sololá	719	Santiago Atitlán	14	Cerro de Oro	11	Noviembre	2023-11-18T00:00:00	2024-11-08T22:00:00	8	Radiación solar	0
185025	7	Sololá	719	Santiago Atitlán	14	Cerro de Oro	11	Noviembre	2023-11-18T00:00:00	2024-11-08T23:00:00	2	Temperatura media	18.6
185026	7	Sololá	719	Santiago Atitlán	14	Cerro de Oro	11	Noviembre	2023-11-18T00:00:00	2024-11-08T23:00:00	4	Temperatura máxima	18.6
185027	7	Sololá	719	Santiago Atitlán	14	Cerro de Oro	11	Noviembre	2023-11-18T00:00:00	2024-11-08T23:00:00	3	Temperatura mínima	17.3
185028	7	Sololá	719	Santiago Atitlán	14	Cerro de Oro	11	Noviembre	2023-11-18T00:00:00	2024-11-08T23:00:00	5	Humedad	71
185029	7	Sololá	719	Santiago Atitlán	14	Cerro de Oro	11	Noviembre	2023-11-18T00:00:00	2024-11-08T23:00:00	6	Velocidad del viento	4.8
185030	7	Sololá	719	Santiago Atitlán	14	Cerro de Oro	11	Noviembre	2023-11-18T00:00:00	2024-11-08T23:00:00	7	Dirección del viento	4.83
185031	7	Sololá	719	Santiago Atitlán	14	Cerro de Oro	11	Noviembre	2023-11-18T00:00:00	2024-11-08T23:00:00	1	Precipitación	0
185032	7	Sololá	719	Santiago Atitlán	14	Cerro de Oro	11	Noviembre	2023-11-18T00:00:00	2024-11-08T23:00:00	8	Radiación solar	0
185033	7	Sololá	719	Santiago Atitlán	14	Cerro de Oro	11	Noviembre	2023-11-19T00:00:00	2024-11-08T00:00:00	2	Temperatura media	18.1
185034	7	Sololá	719	Santiago Atitlán	14	Cerro de Oro	11	Noviembre	2023-11-19T00:00:00	2024-11-08T00:00:00	4	Temperatura máxima	18.6
185035	7	Sololá	719	Santiago Atitlán	14	Cerro de Oro	11	Noviembre	2023-11-19T00:00:00	2024-11-08T00:00:00	3	Temperatura mínima	17.9
185036	7	Sololá	719	Santiago Atitlán	14	Cerro de Oro	11	Noviembre	2023-11-19T00:00:00	2024-11-08T00:00:00	5	Humedad	75
185037	7	Sololá	719	Santiago Atitlán	14	Cerro de Oro	11	Noviembre	2023-11-19T00:00:00	2024-11-08T00:00:00	6	Velocidad del viento	6.4
185038	7	Sololá	719	Santiago Atitlán	14	Cerro de Oro	11	Noviembre	2023-11-19T00:00:00	2024-11-08T00:00:00	7	Dirección del viento	6.44
185039	7	Sololá	719	Santiago Atitlán	14	Cerro de Oro	11	Noviembre	2023-11-19T00:00:00	2024-11-08T00:00:00	1	Precipitación	0
185040	7	Sololá	719	Santiago Atitlán	14	Cerro de Oro	11	Noviembre	2023-11-19T00:00:00	2024-11-08T00:00:00	8	Radiación solar	0
185041	7	Sololá	719	Santiago Atitlán	14	Cerro de Oro	11	Noviembre	2023-11-19T00:00:00	2024-11-08T01:00:00	2	Temperatura media	16.3
185042	7	Sololá	719	Santiago Atitlán	14	Cerro de Oro	11	Noviembre	2023-11-19T00:00:00	2024-11-08T01:00:00	4	Temperatura máxima	18.1
185043	7	Sololá	719	Santiago Atitlán	14	Cerro de Oro	11	Noviembre	2023-11-19T00:00:00	2024-11-08T01:00:00	3	Temperatura mínima	16.2
185044	7	Sololá	719	Santiago Atitlán	14	Cerro de Oro	11	Noviembre	2023-11-19T00:00:00	2024-11-08T01:00:00	5	Humedad	78
185045	7	Sololá	719	Santiago Atitlán	14	Cerro de Oro	11	Noviembre	2023-11-19T00:00:00	2024-11-08T01:00:00	6	Velocidad del viento	4.8
185046	7	Sololá	719	Santiago Atitlán	14	Cerro de Oro	11	Noviembre	2023-11-19T00:00:00	2024-11-08T01:00:00	7	Dirección del viento	4.83
185047	7	Sololá	719	Santiago Atitlán	14	Cerro de Oro	11	Noviembre	2023-11-19T00:00:00	2024-11-08T01:00:00	1	Precipitación	0
185048	7	Sololá	719	Santiago Atitlán	14	Cerro de Oro	11	Noviembre	2023-11-19T00:00:00	2024-11-08T01:00:00	8	Radiación solar	0
185049	7	Sololá	719	Santiago Atitlán	14	Cerro de Oro	11	Noviembre	2023-11-19T00:00:00	2024-11-08T02:00:00	2	Temperatura media	16.9
185050	7	Sololá	719	Santiago Atitlán	14	Cerro de Oro	11	Noviembre	2023-11-19T00:00:00	2024-11-08T02:00:00	4	Temperatura máxima	16.9
185051	7	Sololá	719	Santiago Atitlán	14	Cerro de Oro	11	Noviembre	2023-11-19T00:00:00	2024-11-08T02:00:00	3	Temperatura mínima	16.2
185052	7	Sololá	719	Santiago Atitlán	14	Cerro de Oro	11	Noviembre	2023-11-19T00:00:00	2024-11-08T02:00:00	5	Humedad	74
185053	7	Sololá	719	Santiago Atitlán	14	Cerro de Oro	11	Noviembre	2023-11-19T00:00:00	2024-11-08T02:00:00	6	Velocidad del viento	3.2
185054	7	Sololá	719	Santiago Atitlán	14	Cerro de Oro	11	Noviembre	2023-11-19T00:00:00	2024-11-08T02:00:00	7	Dirección del viento	3.22
185055	7	Sololá	719	Santiago Atitlán	14	Cerro de Oro	11	Noviembre	2023-11-19T00:00:00	2024-11-08T02:00:00	1	Precipitación	0
185056	7	Sololá	719	Santiago Atitlán	14	Cerro de Oro	11	Noviembre	2023-11-19T00:00:00	2024-11-08T02:00:00	8	Radiación solar	0
185057	7	Sololá	719	Santiago Atitlán	14	Cerro de Oro	11	Noviembre	2023-11-19T00:00:00	2024-11-08T03:00:00	2	Temperatura media	15.9
185058	7	Sololá	719	Santiago Atitlán	14	Cerro de Oro	11	Noviembre	2023-11-19T00:00:00	2024-11-08T03:00:00	4	Temperatura máxima	16.9
185059	7	Sololá	719	Santiago Atitlán	14	Cerro de Oro	11	Noviembre	2023-11-19T00:00:00	2024-11-08T03:00:00	3	Temperatura mínima	15.9
185060	7	Sololá	719	Santiago Atitlán	14	Cerro de Oro	11	Noviembre	2023-11-19T00:00:00	2024-11-08T03:00:00	5	Humedad	76
185061	7	Sololá	719	Santiago Atitlán	14	Cerro de Oro	11	Noviembre	2023-11-19T00:00:00	2024-11-08T03:00:00	6	Velocidad del viento	4.8
185062	7	Sololá	719	Santiago Atitlán	14	Cerro de Oro	11	Noviembre	2023-11-19T00:00:00	2024-11-08T03:00:00	7	Dirección del viento	4.83
185063	7	Sololá	719	Santiago Atitlán	14	Cerro de Oro	11	Noviembre	2023-11-19T00:00:00	2024-11-08T03:00:00	1	Precipitación	0
185064	7	Sololá	719	Santiago Atitlán	14	Cerro de Oro	11	Noviembre	2023-11-19T00:00:00	2024-11-08T03:00:00	8	Radiación solar	0
185065	7	Sololá	719	Santiago Atitlán	14	Cerro de Oro	11	Noviembre	2023-11-19T00:00:00	2024-11-08T04:00:00	2	Temperatura media	15.8
185066	7	Sololá	719	Santiago Atitlán	14	Cerro de Oro	11	Noviembre	2023-11-19T00:00:00	2024-11-08T04:00:00	4	Temperatura máxima	16.3
185067	7	Sololá	719	Santiago Atitlán	14	Cerro de Oro	11	Noviembre	2023-11-19T00:00:00	2024-11-08T04:00:00	3	Temperatura mínima	15.8
185068	7	Sololá	719	Santiago Atitlán	14	Cerro de Oro	11	Noviembre	2023-11-19T00:00:00	2024-11-08T04:00:00	5	Humedad	78
185069	7	Sololá	719	Santiago Atitlán	14	Cerro de Oro	11	Noviembre	2023-11-19T00:00:00	2024-11-08T04:00:00	6	Velocidad del viento	3.2
185070	7	Sololá	719	Santiago Atitlán	14	Cerro de Oro	11	Noviembre	2023-11-19T00:00:00	2024-11-08T04:00:00	7	Dirección del viento	3.22
185071	7	Sololá	719	Santiago Atitlán	14	Cerro de Oro	11	Noviembre	2023-11-19T00:00:00	2024-11-08T04:00:00	1	Precipitación	0
185072	7	Sololá	719	Santiago Atitlán	14	Cerro de Oro	11	Noviembre	2023-11-19T00:00:00	2024-11-08T04:00:00	8	Radiación solar	0
185073	7	Sololá	719	Santiago Atitlán	14	Cerro de Oro	11	Noviembre	2023-11-19T00:00:00	2024-11-08T05:00:00	2	Temperatura media	16.3
185074	7	Sololá	719	Santiago Atitlán	14	Cerro de Oro	11	Noviembre	2023-11-19T00:00:00	2024-11-08T05:00:00	4	Temperatura máxima	16.3
185075	7	Sololá	719	Santiago Atitlán	14	Cerro de Oro	11	Noviembre	2023-11-19T00:00:00	2024-11-08T05:00:00	3	Temperatura mínima	15.3
185076	7	Sololá	719	Santiago Atitlán	14	Cerro de Oro	11	Noviembre	2023-11-19T00:00:00	2024-11-08T05:00:00	5	Humedad	74
185077	7	Sololá	719	Santiago Atitlán	14	Cerro de Oro	11	Noviembre	2023-11-19T00:00:00	2024-11-08T05:00:00	6	Velocidad del viento	4.8
185078	7	Sololá	719	Santiago Atitlán	14	Cerro de Oro	11	Noviembre	2023-11-19T00:00:00	2024-11-08T05:00:00	7	Dirección del viento	4.83
185079	7	Sololá	719	Santiago Atitlán	14	Cerro de Oro	11	Noviembre	2023-11-19T00:00:00	2024-11-08T05:00:00	1	Precipitación	0
185080	7	Sololá	719	Santiago Atitlán	14	Cerro de Oro	11	Noviembre	2023-11-19T00:00:00	2024-11-08T05:00:00	8	Radiación solar	0
185081	7	Sololá	719	Santiago Atitlán	14	Cerro de Oro	11	Noviembre	2023-11-19T00:00:00	2024-11-08T06:00:00	2	Temperatura media	15.7
185082	7	Sololá	719	Santiago Atitlán	14	Cerro de Oro	11	Noviembre	2023-11-19T00:00:00	2024-11-08T06:00:00	4	Temperatura máxima	16.4
185083	7	Sololá	719	Santiago Atitlán	14	Cerro de Oro	11	Noviembre	2023-11-19T00:00:00	2024-11-08T06:00:00	3	Temperatura mínima	15.4
185084	7	Sololá	719	Santiago Atitlán	14	Cerro de Oro	11	Noviembre	2023-11-19T00:00:00	2024-11-08T06:00:00	5	Humedad	78
185085	7	Sololá	719	Santiago Atitlán	14	Cerro de Oro	11	Noviembre	2023-11-19T00:00:00	2024-11-08T06:00:00	6	Velocidad del viento	3.2
185086	7	Sololá	719	Santiago Atitlán	14	Cerro de Oro	11	Noviembre	2023-11-19T00:00:00	2024-11-08T06:00:00	7	Dirección del viento	3.22
185087	7	Sololá	719	Santiago Atitlán	14	Cerro de Oro	11	Noviembre	2023-11-19T00:00:00	2024-11-08T06:00:00	1	Precipitación	0
185088	7	Sololá	719	Santiago Atitlán	14	Cerro de Oro	11	Noviembre	2023-11-19T00:00:00	2024-11-08T06:00:00	8	Radiación solar	0
185089	7	Sololá	719	Santiago Atitlán	14	Cerro de Oro	11	Noviembre	2023-11-19T00:00:00	2024-11-08T07:00:00	2	Temperatura media	17
185090	7	Sololá	719	Santiago Atitlán	14	Cerro de Oro	11	Noviembre	2023-11-19T00:00:00	2024-11-08T07:00:00	4	Temperatura máxima	17
185091	7	Sololá	719	Santiago Atitlán	14	Cerro de Oro	11	Noviembre	2023-11-19T00:00:00	2024-11-08T07:00:00	3	Temperatura mínima	15.4
185092	7	Sololá	719	Santiago Atitlán	14	Cerro de Oro	11	Noviembre	2023-11-19T00:00:00	2024-11-08T07:00:00	5	Humedad	73
185093	7	Sololá	719	Santiago Atitlán	14	Cerro de Oro	11	Noviembre	2023-11-19T00:00:00	2024-11-08T07:00:00	6	Velocidad del viento	3.2
185094	7	Sololá	719	Santiago Atitlán	14	Cerro de Oro	11	Noviembre	2023-11-19T00:00:00	2024-11-08T07:00:00	7	Dirección del viento	3.22
185095	7	Sololá	719	Santiago Atitlán	14	Cerro de Oro	11	Noviembre	2023-11-19T00:00:00	2024-11-08T07:00:00	1	Precipitación	0
185096	7	Sololá	719	Santiago Atitlán	14	Cerro de Oro	11	Noviembre	2023-11-19T00:00:00	2024-11-08T07:00:00	8	Radiación solar	35
185097	7	Sololá	719	Santiago Atitlán	14	Cerro de Oro	11	Noviembre	2023-11-19T00:00:00	2024-11-08T08:00:00	2	Temperatura media	18.7
185098	7	Sololá	719	Santiago Atitlán	14	Cerro de Oro	11	Noviembre	2023-11-19T00:00:00	2024-11-08T08:00:00	4	Temperatura máxima	18.7
185099	7	Sololá	719	Santiago Atitlán	14	Cerro de Oro	11	Noviembre	2023-11-19T00:00:00	2024-11-08T08:00:00	3	Temperatura mínima	17
185100	7	Sololá	719	Santiago Atitlán	14	Cerro de Oro	11	Noviembre	2023-11-19T00:00:00	2024-11-08T08:00:00	5	Humedad	71
185101	7	Sololá	719	Santiago Atitlán	14	Cerro de Oro	11	Noviembre	2023-11-19T00:00:00	2024-11-08T08:00:00	6	Velocidad del viento	3.2
185102	7	Sololá	719	Santiago Atitlán	14	Cerro de Oro	11	Noviembre	2023-11-19T00:00:00	2024-11-08T08:00:00	7	Dirección del viento	3.22
185103	7	Sololá	719	Santiago Atitlán	14	Cerro de Oro	11	Noviembre	2023-11-19T00:00:00	2024-11-08T08:00:00	1	Precipitación	0
185104	7	Sololá	719	Santiago Atitlán	14	Cerro de Oro	11	Noviembre	2023-11-19T00:00:00	2024-11-08T08:00:00	8	Radiación solar	237
185105	7	Sololá	719	Santiago Atitlán	14	Cerro de Oro	11	Noviembre	2023-11-19T00:00:00	2024-11-08T09:00:00	2	Temperatura media	19.3
185106	7	Sololá	719	Santiago Atitlán	14	Cerro de Oro	11	Noviembre	2023-11-19T00:00:00	2024-11-08T09:00:00	4	Temperatura máxima	19.3
185107	7	Sololá	719	Santiago Atitlán	14	Cerro de Oro	11	Noviembre	2023-11-19T00:00:00	2024-11-08T09:00:00	3	Temperatura mínima	18.6
185108	7	Sololá	719	Santiago Atitlán	14	Cerro de Oro	11	Noviembre	2023-11-19T00:00:00	2024-11-08T09:00:00	5	Humedad	70
185109	7	Sololá	719	Santiago Atitlán	14	Cerro de Oro	11	Noviembre	2023-11-19T00:00:00	2024-11-08T09:00:00	6	Velocidad del viento	4.8
185110	7	Sololá	719	Santiago Atitlán	14	Cerro de Oro	11	Noviembre	2023-11-19T00:00:00	2024-11-08T09:00:00	7	Dirección del viento	4.83
185111	7	Sololá	719	Santiago Atitlán	14	Cerro de Oro	11	Noviembre	2023-11-19T00:00:00	2024-11-08T09:00:00	1	Precipitación	0
185112	7	Sololá	719	Santiago Atitlán	14	Cerro de Oro	11	Noviembre	2023-11-19T00:00:00	2024-11-08T09:00:00	8	Radiación solar	448
185113	7	Sololá	719	Santiago Atitlán	14	Cerro de Oro	11	Noviembre	2023-11-19T00:00:00	2024-11-08T10:00:00	2	Temperatura media	19.9
185114	7	Sololá	719	Santiago Atitlán	14	Cerro de Oro	11	Noviembre	2023-11-19T00:00:00	2024-11-08T10:00:00	4	Temperatura máxima	20
185115	7	Sololá	719	Santiago Atitlán	14	Cerro de Oro	11	Noviembre	2023-11-19T00:00:00	2024-11-08T10:00:00	3	Temperatura mínima	19.3
185116	7	Sololá	719	Santiago Atitlán	14	Cerro de Oro	11	Noviembre	2023-11-19T00:00:00	2024-11-08T10:00:00	5	Humedad	71
185117	7	Sololá	719	Santiago Atitlán	14	Cerro de Oro	11	Noviembre	2023-11-19T00:00:00	2024-11-08T10:00:00	6	Velocidad del viento	4.8
185118	7	Sololá	719	Santiago Atitlán	14	Cerro de Oro	11	Noviembre	2023-11-19T00:00:00	2024-11-08T10:00:00	7	Dirección del viento	4.83
185119	7	Sololá	719	Santiago Atitlán	14	Cerro de Oro	11	Noviembre	2023-11-19T00:00:00	2024-11-08T10:00:00	1	Precipitación	0
185120	7	Sololá	719	Santiago Atitlán	14	Cerro de Oro	11	Noviembre	2023-11-19T00:00:00	2024-11-08T10:00:00	8	Radiación solar	624
185121	7	Sololá	719	Santiago Atitlán	14	Cerro de Oro	11	Noviembre	2023-11-19T00:00:00	2024-11-08T11:00:00	2	Temperatura media	22.4
185122	7	Sololá	719	Santiago Atitlán	14	Cerro de Oro	11	Noviembre	2023-11-19T00:00:00	2024-11-08T11:00:00	4	Temperatura máxima	22.4
185123	7	Sololá	719	Santiago Atitlán	14	Cerro de Oro	11	Noviembre	2023-11-19T00:00:00	2024-11-08T11:00:00	3	Temperatura mínima	19.9
185124	7	Sololá	719	Santiago Atitlán	14	Cerro de Oro	11	Noviembre	2023-11-19T00:00:00	2024-11-08T11:00:00	5	Humedad	70
185125	7	Sololá	719	Santiago Atitlán	14	Cerro de Oro	11	Noviembre	2023-11-19T00:00:00	2024-11-08T11:00:00	6	Velocidad del viento	4.8
185126	7	Sololá	719	Santiago Atitlán	14	Cerro de Oro	11	Noviembre	2023-11-19T00:00:00	2024-11-08T11:00:00	7	Dirección del viento	4.83
185127	7	Sololá	719	Santiago Atitlán	14	Cerro de Oro	11	Noviembre	2023-11-19T00:00:00	2024-11-08T11:00:00	1	Precipitación	0
185128	7	Sololá	719	Santiago Atitlán	14	Cerro de Oro	11	Noviembre	2023-11-19T00:00:00	2024-11-08T11:00:00	8	Radiación solar	752
185129	7	Sololá	719	Santiago Atitlán	14	Cerro de Oro	11	Noviembre	2023-11-19T00:00:00	2024-11-08T12:00:00	2	Temperatura media	22.3
185130	7	Sololá	719	Santiago Atitlán	14	Cerro de Oro	11	Noviembre	2023-11-19T00:00:00	2024-11-08T12:00:00	4	Temperatura máxima	22.6
185131	7	Sololá	719	Santiago Atitlán	14	Cerro de Oro	11	Noviembre	2023-11-19T00:00:00	2024-11-08T12:00:00	3	Temperatura mínima	21.4
185132	7	Sololá	719	Santiago Atitlán	14	Cerro de Oro	11	Noviembre	2023-11-19T00:00:00	2024-11-08T12:00:00	5	Humedad	73
185133	7	Sololá	719	Santiago Atitlán	14	Cerro de Oro	11	Noviembre	2023-11-19T00:00:00	2024-11-08T12:00:00	6	Velocidad del viento	6.4
185134	7	Sololá	719	Santiago Atitlán	14	Cerro de Oro	11	Noviembre	2023-11-19T00:00:00	2024-11-08T12:00:00	7	Dirección del viento	6.44
185135	7	Sololá	719	Santiago Atitlán	14	Cerro de Oro	11	Noviembre	2023-11-19T00:00:00	2024-11-08T12:00:00	1	Precipitación	0
185136	7	Sololá	719	Santiago Atitlán	14	Cerro de Oro	11	Noviembre	2023-11-19T00:00:00	2024-11-08T12:00:00	8	Radiación solar	864
185137	7	Sololá	719	Santiago Atitlán	14	Cerro de Oro	11	Noviembre	2023-11-19T00:00:00	2024-11-08T13:00:00	2	Temperatura media	21.4
185138	7	Sololá	719	Santiago Atitlán	14	Cerro de Oro	11	Noviembre	2023-11-19T00:00:00	2024-11-08T13:00:00	4	Temperatura máxima	22.4
185139	7	Sololá	719	Santiago Atitlán	14	Cerro de Oro	11	Noviembre	2023-11-19T00:00:00	2024-11-08T13:00:00	3	Temperatura mínima	21.4
185140	7	Sololá	719	Santiago Atitlán	14	Cerro de Oro	11	Noviembre	2023-11-19T00:00:00	2024-11-08T13:00:00	5	Humedad	78
185141	7	Sololá	719	Santiago Atitlán	14	Cerro de Oro	11	Noviembre	2023-11-19T00:00:00	2024-11-08T13:00:00	6	Velocidad del viento	12.9
185142	7	Sololá	719	Santiago Atitlán	14	Cerro de Oro	11	Noviembre	2023-11-19T00:00:00	2024-11-08T13:00:00	7	Dirección del viento	12.87
185143	7	Sololá	719	Santiago Atitlán	14	Cerro de Oro	11	Noviembre	2023-11-19T00:00:00	2024-11-08T13:00:00	1	Precipitación	0
185144	7	Sololá	719	Santiago Atitlán	14	Cerro de Oro	11	Noviembre	2023-11-19T00:00:00	2024-11-08T13:00:00	8	Radiación solar	856
185145	7	Sololá	719	Santiago Atitlán	14	Cerro de Oro	11	Noviembre	2023-11-19T00:00:00	2024-11-08T14:00:00	2	Temperatura media	20.7
185146	7	Sololá	719	Santiago Atitlán	14	Cerro de Oro	11	Noviembre	2023-11-19T00:00:00	2024-11-08T14:00:00	4	Temperatura máxima	21.8
185147	7	Sololá	719	Santiago Atitlán	14	Cerro de Oro	11	Noviembre	2023-11-19T00:00:00	2024-11-08T14:00:00	3	Temperatura mínima	20.7
185148	7	Sololá	719	Santiago Atitlán	14	Cerro de Oro	11	Noviembre	2023-11-19T00:00:00	2024-11-08T14:00:00	5	Humedad	80
185149	7	Sololá	719	Santiago Atitlán	14	Cerro de Oro	11	Noviembre	2023-11-19T00:00:00	2024-11-08T14:00:00	6	Velocidad del viento	11.3
185150	7	Sololá	719	Santiago Atitlán	14	Cerro de Oro	11	Noviembre	2023-11-19T00:00:00	2024-11-08T14:00:00	7	Dirección del viento	11.27
185151	7	Sololá	719	Santiago Atitlán	14	Cerro de Oro	11	Noviembre	2023-11-19T00:00:00	2024-11-08T14:00:00	1	Precipitación	0
185152	7	Sololá	719	Santiago Atitlán	14	Cerro de Oro	11	Noviembre	2023-11-19T00:00:00	2024-11-08T14:00:00	8	Radiación solar	435
185153	7	Sololá	719	Santiago Atitlán	14	Cerro de Oro	11	Noviembre	2023-11-19T00:00:00	2024-11-08T15:00:00	2	Temperatura media	20.3
185154	7	Sololá	719	Santiago Atitlán	14	Cerro de Oro	11	Noviembre	2023-11-19T00:00:00	2024-11-08T15:00:00	4	Temperatura máxima	20.8
185155	7	Sololá	719	Santiago Atitlán	14	Cerro de Oro	11	Noviembre	2023-11-19T00:00:00	2024-11-08T15:00:00	3	Temperatura mínima	20.2
185156	7	Sololá	719	Santiago Atitlán	14	Cerro de Oro	11	Noviembre	2023-11-19T00:00:00	2024-11-08T15:00:00	5	Humedad	83
185157	7	Sololá	719	Santiago Atitlán	14	Cerro de Oro	11	Noviembre	2023-11-19T00:00:00	2024-11-08T15:00:00	6	Velocidad del viento	8
185158	7	Sololá	719	Santiago Atitlán	14	Cerro de Oro	11	Noviembre	2023-11-19T00:00:00	2024-11-08T15:00:00	7	Dirección del viento	8.05
185159	7	Sololá	719	Santiago Atitlán	14	Cerro de Oro	11	Noviembre	2023-11-19T00:00:00	2024-11-08T15:00:00	1	Precipitación	0
185160	7	Sololá	719	Santiago Atitlán	14	Cerro de Oro	11	Noviembre	2023-11-19T00:00:00	2024-11-08T15:00:00	8	Radiación solar	174
185161	7	Sololá	719	Santiago Atitlán	14	Cerro de Oro	11	Noviembre	2023-11-19T00:00:00	2024-11-08T16:00:00	2	Temperatura media	19.7
185162	7	Sololá	719	Santiago Atitlán	14	Cerro de Oro	11	Noviembre	2023-11-19T00:00:00	2024-11-08T16:00:00	4	Temperatura máxima	20.4
185163	7	Sololá	719	Santiago Atitlán	14	Cerro de Oro	11	Noviembre	2023-11-19T00:00:00	2024-11-08T16:00:00	3	Temperatura mínima	19.7
185164	7	Sololá	719	Santiago Atitlán	14	Cerro de Oro	11	Noviembre	2023-11-19T00:00:00	2024-11-08T16:00:00	5	Humedad	85
185165	7	Sololá	719	Santiago Atitlán	14	Cerro de Oro	11	Noviembre	2023-11-19T00:00:00	2024-11-08T16:00:00	6	Velocidad del viento	6.4
185166	7	Sololá	719	Santiago Atitlán	14	Cerro de Oro	11	Noviembre	2023-11-19T00:00:00	2024-11-08T16:00:00	7	Dirección del viento	6.44
185167	7	Sololá	719	Santiago Atitlán	14	Cerro de Oro	11	Noviembre	2023-11-19T00:00:00	2024-11-08T16:00:00	1	Precipitación	0
185168	7	Sololá	719	Santiago Atitlán	14	Cerro de Oro	11	Noviembre	2023-11-19T00:00:00	2024-11-08T16:00:00	8	Radiación solar	117
185169	7	Sololá	719	Santiago Atitlán	14	Cerro de Oro	11	Noviembre	2023-11-19T00:00:00	2024-11-08T17:00:00	2	Temperatura media	18.9
185170	7	Sololá	719	Santiago Atitlán	14	Cerro de Oro	11	Noviembre	2023-11-19T00:00:00	2024-11-08T17:00:00	4	Temperatura máxima	19.8
185171	7	Sololá	719	Santiago Atitlán	14	Cerro de Oro	11	Noviembre	2023-11-19T00:00:00	2024-11-08T17:00:00	3	Temperatura mínima	18.8
185172	7	Sololá	719	Santiago Atitlán	14	Cerro de Oro	11	Noviembre	2023-11-19T00:00:00	2024-11-08T17:00:00	5	Humedad	87
185173	7	Sololá	719	Santiago Atitlán	14	Cerro de Oro	11	Noviembre	2023-11-19T00:00:00	2024-11-08T17:00:00	6	Velocidad del viento	8
185174	7	Sololá	719	Santiago Atitlán	14	Cerro de Oro	11	Noviembre	2023-11-19T00:00:00	2024-11-08T17:00:00	7	Dirección del viento	8.05
185175	7	Sololá	719	Santiago Atitlán	14	Cerro de Oro	11	Noviembre	2023-11-19T00:00:00	2024-11-08T17:00:00	1	Precipitación	0
185176	7	Sololá	719	Santiago Atitlán	14	Cerro de Oro	11	Noviembre	2023-11-19T00:00:00	2024-11-08T17:00:00	8	Radiación solar	88
185177	7	Sololá	719	Santiago Atitlán	14	Cerro de Oro	11	Noviembre	2023-11-19T00:00:00	2024-11-08T18:00:00	2	Temperatura media	18.6
185178	7	Sololá	719	Santiago Atitlán	14	Cerro de Oro	11	Noviembre	2023-11-19T00:00:00	2024-11-08T18:00:00	4	Temperatura máxima	18.8
185179	7	Sololá	719	Santiago Atitlán	14	Cerro de Oro	11	Noviembre	2023-11-19T00:00:00	2024-11-08T18:00:00	3	Temperatura mínima	18.4
185180	7	Sololá	719	Santiago Atitlán	14	Cerro de Oro	11	Noviembre	2023-11-19T00:00:00	2024-11-08T18:00:00	5	Humedad	86
185181	7	Sololá	719	Santiago Atitlán	14	Cerro de Oro	11	Noviembre	2023-11-19T00:00:00	2024-11-08T18:00:00	6	Velocidad del viento	8
185182	7	Sololá	719	Santiago Atitlán	14	Cerro de Oro	11	Noviembre	2023-11-19T00:00:00	2024-11-08T18:00:00	7	Dirección del viento	8.05
185183	7	Sololá	719	Santiago Atitlán	14	Cerro de Oro	11	Noviembre	2023-11-19T00:00:00	2024-11-08T18:00:00	1	Precipitación	0
185184	7	Sololá	719	Santiago Atitlán	14	Cerro de Oro	11	Noviembre	2023-11-19T00:00:00	2024-11-08T18:00:00	8	Radiación solar	6
185185	7	Sololá	719	Santiago Atitlán	14	Cerro de Oro	11	Noviembre	2023-11-19T00:00:00	2024-11-08T19:00:00	2	Temperatura media	16.9
185186	7	Sololá	719	Santiago Atitlán	14	Cerro de Oro	11	Noviembre	2023-11-19T00:00:00	2024-11-08T19:00:00	4	Temperatura máxima	18.7
185187	7	Sololá	719	Santiago Atitlán	14	Cerro de Oro	11	Noviembre	2023-11-19T00:00:00	2024-11-08T19:00:00	3	Temperatura mínima	16.9
185188	7	Sololá	719	Santiago Atitlán	14	Cerro de Oro	11	Noviembre	2023-11-19T00:00:00	2024-11-08T19:00:00	5	Humedad	94
185189	7	Sololá	719	Santiago Atitlán	14	Cerro de Oro	11	Noviembre	2023-11-19T00:00:00	2024-11-08T19:00:00	6	Velocidad del viento	8
185190	7	Sololá	719	Santiago Atitlán	14	Cerro de Oro	11	Noviembre	2023-11-19T00:00:00	2024-11-08T19:00:00	7	Dirección del viento	8.05
185191	7	Sololá	719	Santiago Atitlán	14	Cerro de Oro	11	Noviembre	2023-11-19T00:00:00	2024-11-08T19:00:00	1	Precipitación	0
185192	7	Sololá	719	Santiago Atitlán	14	Cerro de Oro	11	Noviembre	2023-11-19T00:00:00	2024-11-08T19:00:00	8	Radiación solar	0
185193	7	Sololá	719	Santiago Atitlán	14	Cerro de Oro	11	Noviembre	2023-11-19T00:00:00	2024-11-08T20:00:00	2	Temperatura media	17.4
185194	7	Sololá	719	Santiago Atitlán	14	Cerro de Oro	11	Noviembre	2023-11-19T00:00:00	2024-11-08T20:00:00	4	Temperatura máxima	17.4
185195	7	Sololá	719	Santiago Atitlán	14	Cerro de Oro	11	Noviembre	2023-11-19T00:00:00	2024-11-08T20:00:00	3	Temperatura mínima	16.7
185196	7	Sololá	719	Santiago Atitlán	14	Cerro de Oro	11	Noviembre	2023-11-19T00:00:00	2024-11-08T20:00:00	5	Humedad	90
185197	7	Sololá	719	Santiago Atitlán	14	Cerro de Oro	11	Noviembre	2023-11-19T00:00:00	2024-11-08T20:00:00	6	Velocidad del viento	8
185198	7	Sololá	719	Santiago Atitlán	14	Cerro de Oro	11	Noviembre	2023-11-19T00:00:00	2024-11-08T20:00:00	7	Dirección del viento	8.05
185199	7	Sololá	719	Santiago Atitlán	14	Cerro de Oro	11	Noviembre	2023-11-19T00:00:00	2024-11-08T20:00:00	1	Precipitación	0
185200	7	Sololá	719	Santiago Atitlán	14	Cerro de Oro	11	Noviembre	2023-11-19T00:00:00	2024-11-08T20:00:00	8	Radiación solar	0
185201	7	Sololá	719	Santiago Atitlán	14	Cerro de Oro	11	Noviembre	2023-11-19T00:00:00	2024-11-08T21:00:00	2	Temperatura media	17.6
185202	7	Sololá	719	Santiago Atitlán	14	Cerro de Oro	11	Noviembre	2023-11-19T00:00:00	2024-11-08T21:00:00	4	Temperatura máxima	17.6
185203	7	Sololá	719	Santiago Atitlán	14	Cerro de Oro	11	Noviembre	2023-11-19T00:00:00	2024-11-08T21:00:00	3	Temperatura mínima	17.3
185204	7	Sololá	719	Santiago Atitlán	14	Cerro de Oro	11	Noviembre	2023-11-19T00:00:00	2024-11-08T21:00:00	5	Humedad	88
185205	7	Sololá	719	Santiago Atitlán	14	Cerro de Oro	11	Noviembre	2023-11-19T00:00:00	2024-11-08T21:00:00	6	Velocidad del viento	6.4
185206	7	Sololá	719	Santiago Atitlán	14	Cerro de Oro	11	Noviembre	2023-11-19T00:00:00	2024-11-08T21:00:00	7	Dirección del viento	6.44
185207	7	Sololá	719	Santiago Atitlán	14	Cerro de Oro	11	Noviembre	2023-11-19T00:00:00	2024-11-08T21:00:00	1	Precipitación	0
185208	7	Sololá	719	Santiago Atitlán	14	Cerro de Oro	11	Noviembre	2023-11-19T00:00:00	2024-11-08T21:00:00	8	Radiación solar	0
185209	7	Sololá	719	Santiago Atitlán	14	Cerro de Oro	11	Noviembre	2023-11-19T00:00:00	2024-11-08T22:00:00	2	Temperatura media	17.3
185210	7	Sololá	719	Santiago Atitlán	14	Cerro de Oro	11	Noviembre	2023-11-19T00:00:00	2024-11-08T22:00:00	4	Temperatura máxima	17.8
185211	7	Sololá	719	Santiago Atitlán	14	Cerro de Oro	11	Noviembre	2023-11-19T00:00:00	2024-11-08T22:00:00	3	Temperatura mínima	17.2
185212	7	Sololá	719	Santiago Atitlán	14	Cerro de Oro	11	Noviembre	2023-11-19T00:00:00	2024-11-08T22:00:00	5	Humedad	89
185213	7	Sololá	719	Santiago Atitlán	14	Cerro de Oro	11	Noviembre	2023-11-19T00:00:00	2024-11-08T22:00:00	6	Velocidad del viento	6.4
185214	7	Sololá	719	Santiago Atitlán	14	Cerro de Oro	11	Noviembre	2023-11-19T00:00:00	2024-11-08T22:00:00	7	Dirección del viento	6.44
185215	7	Sololá	719	Santiago Atitlán	14	Cerro de Oro	11	Noviembre	2023-11-19T00:00:00	2024-11-08T22:00:00	1	Precipitación	0
185216	7	Sololá	719	Santiago Atitlán	14	Cerro de Oro	11	Noviembre	2023-11-19T00:00:00	2024-11-08T22:00:00	8	Radiación solar	0
185217	7	Sololá	719	Santiago Atitlán	14	Cerro de Oro	11	Noviembre	2023-11-19T00:00:00	2024-11-08T23:00:00	2	Temperatura media	17.3
185218	7	Sololá	719	Santiago Atitlán	14	Cerro de Oro	11	Noviembre	2023-11-19T00:00:00	2024-11-08T23:00:00	4	Temperatura máxima	17.3
185219	7	Sololá	719	Santiago Atitlán	14	Cerro de Oro	11	Noviembre	2023-11-19T00:00:00	2024-11-08T23:00:00	3	Temperatura mínima	17.1
185220	7	Sololá	719	Santiago Atitlán	14	Cerro de Oro	11	Noviembre	2023-11-19T00:00:00	2024-11-08T23:00:00	5	Humedad	86
185221	7	Sololá	719	Santiago Atitlán	14	Cerro de Oro	11	Noviembre	2023-11-19T00:00:00	2024-11-08T23:00:00	6	Velocidad del viento	6.4
185222	7	Sololá	719	Santiago Atitlán	14	Cerro de Oro	11	Noviembre	2023-11-19T00:00:00	2024-11-08T23:00:00	7	Dirección del viento	6.44
185223	7	Sololá	719	Santiago Atitlán	14	Cerro de Oro	11	Noviembre	2023-11-19T00:00:00	2024-11-08T23:00:00	1	Precipitación	0
185224	7	Sololá	719	Santiago Atitlán	14	Cerro de Oro	11	Noviembre	2023-11-19T00:00:00	2024-11-08T23:00:00	8	Radiación solar	0
185225	7	Sololá	719	Santiago Atitlán	14	Cerro de Oro	11	Noviembre	2023-11-20T00:00:00	2024-11-08T00:00:00	2	Temperatura media	16.4
185226	7	Sololá	719	Santiago Atitlán	14	Cerro de Oro	11	Noviembre	2023-11-20T00:00:00	2024-11-08T00:00:00	4	Temperatura máxima	17.4
185227	7	Sololá	719	Santiago Atitlán	14	Cerro de Oro	11	Noviembre	2023-11-20T00:00:00	2024-11-08T00:00:00	3	Temperatura mínima	16.4
185228	7	Sololá	719	Santiago Atitlán	14	Cerro de Oro	11	Noviembre	2023-11-20T00:00:00	2024-11-08T00:00:00	5	Humedad	85
185229	7	Sololá	719	Santiago Atitlán	14	Cerro de Oro	11	Noviembre	2023-11-20T00:00:00	2024-11-08T00:00:00	6	Velocidad del viento	4.8
185230	7	Sololá	719	Santiago Atitlán	14	Cerro de Oro	11	Noviembre	2023-11-20T00:00:00	2024-11-08T00:00:00	7	Dirección del viento	4.83
185231	7	Sololá	719	Santiago Atitlán	14	Cerro de Oro	11	Noviembre	2023-11-20T00:00:00	2024-11-08T00:00:00	1	Precipitación	0
185232	7	Sololá	719	Santiago Atitlán	14	Cerro de Oro	11	Noviembre	2023-11-20T00:00:00	2024-11-08T00:00:00	8	Radiación solar	0
185233	7	Sololá	719	Santiago Atitlán	14	Cerro de Oro	11	Noviembre	2023-11-20T00:00:00	2024-11-08T01:00:00	2	Temperatura media	16.8
185234	7	Sololá	719	Santiago Atitlán	14	Cerro de Oro	11	Noviembre	2023-11-20T00:00:00	2024-11-08T01:00:00	4	Temperatura máxima	16.9
185235	7	Sololá	719	Santiago Atitlán	14	Cerro de Oro	11	Noviembre	2023-11-20T00:00:00	2024-11-08T01:00:00	3	Temperatura mínima	16.3
185236	7	Sololá	719	Santiago Atitlán	14	Cerro de Oro	11	Noviembre	2023-11-20T00:00:00	2024-11-08T01:00:00	5	Humedad	82
185237	7	Sololá	719	Santiago Atitlán	14	Cerro de Oro	11	Noviembre	2023-11-20T00:00:00	2024-11-08T01:00:00	6	Velocidad del viento	1.6
185238	7	Sololá	719	Santiago Atitlán	14	Cerro de Oro	11	Noviembre	2023-11-20T00:00:00	2024-11-08T01:00:00	7	Dirección del viento	1.61
185239	7	Sololá	719	Santiago Atitlán	14	Cerro de Oro	11	Noviembre	2023-11-20T00:00:00	2024-11-08T01:00:00	1	Precipitación	0
185240	7	Sololá	719	Santiago Atitlán	14	Cerro de Oro	11	Noviembre	2023-11-20T00:00:00	2024-11-08T01:00:00	8	Radiación solar	0
185241	7	Sololá	719	Santiago Atitlán	14	Cerro de Oro	11	Noviembre	2023-11-20T00:00:00	2024-11-08T02:00:00	2	Temperatura media	16.4
185242	7	Sololá	719	Santiago Atitlán	14	Cerro de Oro	11	Noviembre	2023-11-20T00:00:00	2024-11-08T02:00:00	4	Temperatura máxima	16.8
185243	7	Sololá	719	Santiago Atitlán	14	Cerro de Oro	11	Noviembre	2023-11-20T00:00:00	2024-11-08T02:00:00	3	Temperatura mínima	16.2
185244	7	Sololá	719	Santiago Atitlán	14	Cerro de Oro	11	Noviembre	2023-11-20T00:00:00	2024-11-08T02:00:00	5	Humedad	84
185245	7	Sololá	719	Santiago Atitlán	14	Cerro de Oro	11	Noviembre	2023-11-20T00:00:00	2024-11-08T02:00:00	6	Velocidad del viento	1.6
185246	7	Sololá	719	Santiago Atitlán	14	Cerro de Oro	11	Noviembre	2023-11-20T00:00:00	2024-11-08T02:00:00	7	Dirección del viento	1.61
185247	7	Sololá	719	Santiago Atitlán	14	Cerro de Oro	11	Noviembre	2023-11-20T00:00:00	2024-11-08T02:00:00	1	Precipitación	0
185248	7	Sololá	719	Santiago Atitlán	14	Cerro de Oro	11	Noviembre	2023-11-20T00:00:00	2024-11-08T02:00:00	8	Radiación solar	0
185249	7	Sololá	719	Santiago Atitlán	14	Cerro de Oro	11	Noviembre	2023-11-20T00:00:00	2024-11-08T03:00:00	2	Temperatura media	16.2
185250	7	Sololá	719	Santiago Atitlán	14	Cerro de Oro	11	Noviembre	2023-11-20T00:00:00	2024-11-08T03:00:00	4	Temperatura máxima	16.4
185251	7	Sololá	719	Santiago Atitlán	14	Cerro de Oro	11	Noviembre	2023-11-20T00:00:00	2024-11-08T03:00:00	3	Temperatura mínima	16.1
185252	7	Sololá	719	Santiago Atitlán	14	Cerro de Oro	11	Noviembre	2023-11-20T00:00:00	2024-11-08T03:00:00	5	Humedad	84
185253	7	Sololá	719	Santiago Atitlán	14	Cerro de Oro	11	Noviembre	2023-11-20T00:00:00	2024-11-08T03:00:00	6	Velocidad del viento	3.2
185254	7	Sololá	719	Santiago Atitlán	14	Cerro de Oro	11	Noviembre	2023-11-20T00:00:00	2024-11-08T03:00:00	7	Dirección del viento	3.22
185255	7	Sololá	719	Santiago Atitlán	14	Cerro de Oro	11	Noviembre	2023-11-20T00:00:00	2024-11-08T03:00:00	1	Precipitación	0
185256	7	Sololá	719	Santiago Atitlán	14	Cerro de Oro	11	Noviembre	2023-11-20T00:00:00	2024-11-08T03:00:00	8	Radiación solar	0
185257	7	Sololá	719	Santiago Atitlán	14	Cerro de Oro	11	Noviembre	2023-11-20T00:00:00	2024-11-08T04:00:00	2	Temperatura media	15.9
185258	7	Sololá	719	Santiago Atitlán	14	Cerro de Oro	11	Noviembre	2023-11-20T00:00:00	2024-11-08T04:00:00	4	Temperatura máxima	16.3
185259	7	Sololá	719	Santiago Atitlán	14	Cerro de Oro	11	Noviembre	2023-11-20T00:00:00	2024-11-08T04:00:00	3	Temperatura mínima	15.9
185260	7	Sololá	719	Santiago Atitlán	14	Cerro de Oro	11	Noviembre	2023-11-20T00:00:00	2024-11-08T04:00:00	5	Humedad	85
185261	7	Sololá	719	Santiago Atitlán	14	Cerro de Oro	11	Noviembre	2023-11-20T00:00:00	2024-11-08T04:00:00	6	Velocidad del viento	4.8
185262	7	Sololá	719	Santiago Atitlán	14	Cerro de Oro	11	Noviembre	2023-11-20T00:00:00	2024-11-08T04:00:00	7	Dirección del viento	4.83
185263	7	Sololá	719	Santiago Atitlán	14	Cerro de Oro	11	Noviembre	2023-11-20T00:00:00	2024-11-08T04:00:00	1	Precipitación	0
185264	7	Sololá	719	Santiago Atitlán	14	Cerro de Oro	11	Noviembre	2023-11-20T00:00:00	2024-11-08T04:00:00	8	Radiación solar	0
185265	7	Sololá	719	Santiago Atitlán	14	Cerro de Oro	11	Noviembre	2023-11-20T00:00:00	2024-11-08T05:00:00	2	Temperatura media	15.7
185266	7	Sololá	719	Santiago Atitlán	14	Cerro de Oro	11	Noviembre	2023-11-20T00:00:00	2024-11-08T05:00:00	4	Temperatura máxima	16.2
185267	7	Sololá	719	Santiago Atitlán	14	Cerro de Oro	11	Noviembre	2023-11-20T00:00:00	2024-11-08T05:00:00	3	Temperatura mínima	15.7
185268	7	Sololá	719	Santiago Atitlán	14	Cerro de Oro	11	Noviembre	2023-11-20T00:00:00	2024-11-08T05:00:00	5	Humedad	81
185269	7	Sololá	719	Santiago Atitlán	14	Cerro de Oro	11	Noviembre	2023-11-20T00:00:00	2024-11-08T05:00:00	6	Velocidad del viento	4.8
185270	7	Sololá	719	Santiago Atitlán	14	Cerro de Oro	11	Noviembre	2023-11-20T00:00:00	2024-11-08T05:00:00	7	Dirección del viento	4.83
185271	7	Sololá	719	Santiago Atitlán	14	Cerro de Oro	11	Noviembre	2023-11-20T00:00:00	2024-11-08T05:00:00	1	Precipitación	0
185272	7	Sololá	719	Santiago Atitlán	14	Cerro de Oro	11	Noviembre	2023-11-20T00:00:00	2024-11-08T05:00:00	8	Radiación solar	0
185273	7	Sololá	719	Santiago Atitlán	14	Cerro de Oro	11	Noviembre	2023-11-20T00:00:00	2024-11-08T06:00:00	2	Temperatura media	15.2
185274	7	Sololá	719	Santiago Atitlán	14	Cerro de Oro	11	Noviembre	2023-11-20T00:00:00	2024-11-08T06:00:00	4	Temperatura máxima	15.7
185275	7	Sololá	719	Santiago Atitlán	14	Cerro de Oro	11	Noviembre	2023-11-20T00:00:00	2024-11-08T06:00:00	3	Temperatura mínima	14.9
185276	7	Sololá	719	Santiago Atitlán	14	Cerro de Oro	11	Noviembre	2023-11-20T00:00:00	2024-11-08T06:00:00	5	Humedad	82
185277	7	Sololá	719	Santiago Atitlán	14	Cerro de Oro	11	Noviembre	2023-11-20T00:00:00	2024-11-08T06:00:00	6	Velocidad del viento	3.2
185278	7	Sololá	719	Santiago Atitlán	14	Cerro de Oro	11	Noviembre	2023-11-20T00:00:00	2024-11-08T06:00:00	7	Dirección del viento	3.22
185279	7	Sololá	719	Santiago Atitlán	14	Cerro de Oro	11	Noviembre	2023-11-20T00:00:00	2024-11-08T06:00:00	1	Precipitación	0
185280	7	Sololá	719	Santiago Atitlán	14	Cerro de Oro	11	Noviembre	2023-11-20T00:00:00	2024-11-08T06:00:00	8	Radiación solar	0
185281	7	Sololá	719	Santiago Atitlán	14	Cerro de Oro	11	Noviembre	2023-11-20T00:00:00	2024-11-08T07:00:00	2	Temperatura media	16.2
185282	7	Sololá	719	Santiago Atitlán	14	Cerro de Oro	11	Noviembre	2023-11-20T00:00:00	2024-11-08T07:00:00	4	Temperatura máxima	16.2
185283	7	Sololá	719	Santiago Atitlán	14	Cerro de Oro	11	Noviembre	2023-11-20T00:00:00	2024-11-08T07:00:00	3	Temperatura mínima	15
185284	7	Sololá	719	Santiago Atitlán	14	Cerro de Oro	11	Noviembre	2023-11-20T00:00:00	2024-11-08T07:00:00	5	Humedad	80
185285	7	Sololá	719	Santiago Atitlán	14	Cerro de Oro	11	Noviembre	2023-11-20T00:00:00	2024-11-08T07:00:00	6	Velocidad del viento	4.8
185286	7	Sololá	719	Santiago Atitlán	14	Cerro de Oro	11	Noviembre	2023-11-20T00:00:00	2024-11-08T07:00:00	7	Dirección del viento	4.83
185287	7	Sololá	719	Santiago Atitlán	14	Cerro de Oro	11	Noviembre	2023-11-20T00:00:00	2024-11-08T07:00:00	1	Precipitación	0
185288	7	Sololá	719	Santiago Atitlán	14	Cerro de Oro	11	Noviembre	2023-11-20T00:00:00	2024-11-08T07:00:00	8	Radiación solar	35
185289	7	Sololá	719	Santiago Atitlán	14	Cerro de Oro	11	Noviembre	2023-11-20T00:00:00	2024-11-08T08:00:00	2	Temperatura media	18.7
185290	7	Sololá	719	Santiago Atitlán	14	Cerro de Oro	11	Noviembre	2023-11-20T00:00:00	2024-11-08T08:00:00	4	Temperatura máxima	18.7
185291	7	Sololá	719	Santiago Atitlán	14	Cerro de Oro	11	Noviembre	2023-11-20T00:00:00	2024-11-08T08:00:00	3	Temperatura mínima	16.2
185292	7	Sololá	719	Santiago Atitlán	14	Cerro de Oro	11	Noviembre	2023-11-20T00:00:00	2024-11-08T08:00:00	5	Humedad	73
185293	7	Sololá	719	Santiago Atitlán	14	Cerro de Oro	11	Noviembre	2023-11-20T00:00:00	2024-11-08T08:00:00	6	Velocidad del viento	3.2
185294	7	Sololá	719	Santiago Atitlán	14	Cerro de Oro	11	Noviembre	2023-11-20T00:00:00	2024-11-08T08:00:00	7	Dirección del viento	3.22
185295	7	Sololá	719	Santiago Atitlán	14	Cerro de Oro	11	Noviembre	2023-11-20T00:00:00	2024-11-08T08:00:00	1	Precipitación	0
185296	7	Sololá	719	Santiago Atitlán	14	Cerro de Oro	11	Noviembre	2023-11-20T00:00:00	2024-11-08T08:00:00	8	Radiación solar	230
185297	7	Sololá	719	Santiago Atitlán	14	Cerro de Oro	11	Noviembre	2023-11-20T00:00:00	2024-11-08T09:00:00	2	Temperatura media	19.6
185298	7	Sololá	719	Santiago Atitlán	14	Cerro de Oro	11	Noviembre	2023-11-20T00:00:00	2024-11-08T09:00:00	4	Temperatura máxima	19.6
185299	7	Sololá	719	Santiago Atitlán	14	Cerro de Oro	11	Noviembre	2023-11-20T00:00:00	2024-11-08T09:00:00	3	Temperatura mínima	18.3
185300	7	Sololá	719	Santiago Atitlán	14	Cerro de Oro	11	Noviembre	2023-11-20T00:00:00	2024-11-08T09:00:00	5	Humedad	71
185301	7	Sololá	719	Santiago Atitlán	14	Cerro de Oro	11	Noviembre	2023-11-20T00:00:00	2024-11-08T09:00:00	6	Velocidad del viento	3.2
185302	7	Sololá	719	Santiago Atitlán	14	Cerro de Oro	11	Noviembre	2023-11-20T00:00:00	2024-11-08T09:00:00	7	Dirección del viento	3.22
185303	7	Sololá	719	Santiago Atitlán	14	Cerro de Oro	11	Noviembre	2023-11-20T00:00:00	2024-11-08T09:00:00	1	Precipitación	0
185304	7	Sololá	719	Santiago Atitlán	14	Cerro de Oro	11	Noviembre	2023-11-20T00:00:00	2024-11-08T09:00:00	8	Radiación solar	447
185305	7	Sololá	719	Santiago Atitlán	14	Cerro de Oro	11	Noviembre	2023-11-20T00:00:00	2024-11-08T10:00:00	2	Temperatura media	19.8
185306	7	Sololá	719	Santiago Atitlán	14	Cerro de Oro	11	Noviembre	2023-11-20T00:00:00	2024-11-08T10:00:00	4	Temperatura máxima	20.3
185307	7	Sololá	719	Santiago Atitlán	14	Cerro de Oro	11	Noviembre	2023-11-20T00:00:00	2024-11-08T10:00:00	3	Temperatura mínima	19.6
185308	7	Sololá	719	Santiago Atitlán	14	Cerro de Oro	11	Noviembre	2023-11-20T00:00:00	2024-11-08T10:00:00	5	Humedad	74
185309	7	Sololá	719	Santiago Atitlán	14	Cerro de Oro	11	Noviembre	2023-11-20T00:00:00	2024-11-08T10:00:00	6	Velocidad del viento	4.8
185310	7	Sololá	719	Santiago Atitlán	14	Cerro de Oro	11	Noviembre	2023-11-20T00:00:00	2024-11-08T10:00:00	7	Dirección del viento	4.83
185311	7	Sololá	719	Santiago Atitlán	14	Cerro de Oro	11	Noviembre	2023-11-20T00:00:00	2024-11-08T10:00:00	1	Precipitación	0
185312	7	Sololá	719	Santiago Atitlán	14	Cerro de Oro	11	Noviembre	2023-11-20T00:00:00	2024-11-08T10:00:00	8	Radiación solar	620
185313	7	Sololá	719	Santiago Atitlán	14	Cerro de Oro	11	Noviembre	2023-11-20T00:00:00	2024-11-08T11:00:00	2	Temperatura media	21
185314	7	Sololá	719	Santiago Atitlán	14	Cerro de Oro	11	Noviembre	2023-11-20T00:00:00	2024-11-08T11:00:00	4	Temperatura máxima	21
185315	7	Sololá	719	Santiago Atitlán	14	Cerro de Oro	11	Noviembre	2023-11-20T00:00:00	2024-11-08T11:00:00	3	Temperatura mínima	19.8
185316	7	Sololá	719	Santiago Atitlán	14	Cerro de Oro	11	Noviembre	2023-11-20T00:00:00	2024-11-08T11:00:00	5	Humedad	71
185317	7	Sololá	719	Santiago Atitlán	14	Cerro de Oro	11	Noviembre	2023-11-20T00:00:00	2024-11-08T11:00:00	6	Velocidad del viento	4.8
185318	7	Sololá	719	Santiago Atitlán	14	Cerro de Oro	11	Noviembre	2023-11-20T00:00:00	2024-11-08T11:00:00	7	Dirección del viento	4.83
185319	7	Sololá	719	Santiago Atitlán	14	Cerro de Oro	11	Noviembre	2023-11-20T00:00:00	2024-11-08T11:00:00	1	Precipitación	0
185320	7	Sololá	719	Santiago Atitlán	14	Cerro de Oro	11	Noviembre	2023-11-20T00:00:00	2024-11-08T11:00:00	8	Radiación solar	752
185321	7	Sololá	719	Santiago Atitlán	14	Cerro de Oro	11	Noviembre	2023-11-20T00:00:00	2024-11-08T12:00:00	2	Temperatura media	22.1
185322	7	Sololá	719	Santiago Atitlán	14	Cerro de Oro	11	Noviembre	2023-11-20T00:00:00	2024-11-08T12:00:00	4	Temperatura máxima	22.7
185323	7	Sololá	719	Santiago Atitlán	14	Cerro de Oro	11	Noviembre	2023-11-20T00:00:00	2024-11-08T12:00:00	3	Temperatura mínima	21
185324	7	Sololá	719	Santiago Atitlán	14	Cerro de Oro	11	Noviembre	2023-11-20T00:00:00	2024-11-08T12:00:00	5	Humedad	74
185325	7	Sololá	719	Santiago Atitlán	14	Cerro de Oro	11	Noviembre	2023-11-20T00:00:00	2024-11-08T12:00:00	6	Velocidad del viento	6.4
185326	7	Sololá	719	Santiago Atitlán	14	Cerro de Oro	11	Noviembre	2023-11-20T00:00:00	2024-11-08T12:00:00	7	Dirección del viento	6.44
185327	7	Sololá	719	Santiago Atitlán	14	Cerro de Oro	11	Noviembre	2023-11-20T00:00:00	2024-11-08T12:00:00	1	Precipitación	0
185328	7	Sololá	719	Santiago Atitlán	14	Cerro de Oro	11	Noviembre	2023-11-20T00:00:00	2024-11-08T12:00:00	8	Radiación solar	837
185329	7	Sololá	719	Santiago Atitlán	14	Cerro de Oro	11	Noviembre	2023-11-20T00:00:00	2024-11-08T13:00:00	2	Temperatura media	21.7
185330	7	Sololá	719	Santiago Atitlán	14	Cerro de Oro	11	Noviembre	2023-11-20T00:00:00	2024-11-08T13:00:00	4	Temperatura máxima	22.4
185331	7	Sololá	719	Santiago Atitlán	14	Cerro de Oro	11	Noviembre	2023-11-20T00:00:00	2024-11-08T13:00:00	3	Temperatura mínima	21.6
185332	7	Sololá	719	Santiago Atitlán	14	Cerro de Oro	11	Noviembre	2023-11-20T00:00:00	2024-11-08T13:00:00	5	Humedad	77
185333	7	Sololá	719	Santiago Atitlán	14	Cerro de Oro	11	Noviembre	2023-11-20T00:00:00	2024-11-08T13:00:00	6	Velocidad del viento	11.3
185334	7	Sololá	719	Santiago Atitlán	14	Cerro de Oro	11	Noviembre	2023-11-20T00:00:00	2024-11-08T13:00:00	7	Dirección del viento	11.27
185335	7	Sololá	719	Santiago Atitlán	14	Cerro de Oro	11	Noviembre	2023-11-20T00:00:00	2024-11-08T13:00:00	1	Precipitación	0
185336	7	Sololá	719	Santiago Atitlán	14	Cerro de Oro	11	Noviembre	2023-11-20T00:00:00	2024-11-08T13:00:00	8	Radiación solar	817
185337	7	Sololá	719	Santiago Atitlán	14	Cerro de Oro	11	Noviembre	2023-11-20T00:00:00	2024-11-08T14:00:00	2	Temperatura media	20.7
185338	7	Sololá	719	Santiago Atitlán	14	Cerro de Oro	11	Noviembre	2023-11-20T00:00:00	2024-11-08T14:00:00	4	Temperatura máxima	21.8
185339	7	Sololá	719	Santiago Atitlán	14	Cerro de Oro	11	Noviembre	2023-11-20T00:00:00	2024-11-08T14:00:00	3	Temperatura mínima	20.7
185340	7	Sololá	719	Santiago Atitlán	14	Cerro de Oro	11	Noviembre	2023-11-20T00:00:00	2024-11-08T14:00:00	5	Humedad	79
185341	7	Sololá	719	Santiago Atitlán	14	Cerro de Oro	11	Noviembre	2023-11-20T00:00:00	2024-11-08T14:00:00	6	Velocidad del viento	9.7
185342	7	Sololá	719	Santiago Atitlán	14	Cerro de Oro	11	Noviembre	2023-11-20T00:00:00	2024-11-08T14:00:00	7	Dirección del viento	9.66
185343	7	Sololá	719	Santiago Atitlán	14	Cerro de Oro	11	Noviembre	2023-11-20T00:00:00	2024-11-08T14:00:00	1	Precipitación	0
185344	7	Sololá	719	Santiago Atitlán	14	Cerro de Oro	11	Noviembre	2023-11-20T00:00:00	2024-11-08T14:00:00	8	Radiación solar	260
185345	7	Sololá	719	Santiago Atitlán	14	Cerro de Oro	11	Noviembre	2023-11-20T00:00:00	2024-11-08T15:00:00	2	Temperatura media	20.4
185346	7	Sololá	719	Santiago Atitlán	14	Cerro de Oro	11	Noviembre	2023-11-20T00:00:00	2024-11-08T15:00:00	4	Temperatura máxima	20.7
185347	7	Sololá	719	Santiago Atitlán	14	Cerro de Oro	11	Noviembre	2023-11-20T00:00:00	2024-11-08T15:00:00	3	Temperatura mínima	20.2
185348	7	Sololá	719	Santiago Atitlán	14	Cerro de Oro	11	Noviembre	2023-11-20T00:00:00	2024-11-08T15:00:00	5	Humedad	78
185349	7	Sololá	719	Santiago Atitlán	14	Cerro de Oro	11	Noviembre	2023-11-20T00:00:00	2024-11-08T15:00:00	6	Velocidad del viento	8
185350	7	Sololá	719	Santiago Atitlán	14	Cerro de Oro	11	Noviembre	2023-11-20T00:00:00	2024-11-08T15:00:00	7	Dirección del viento	8.05
185351	7	Sololá	719	Santiago Atitlán	14	Cerro de Oro	11	Noviembre	2023-11-20T00:00:00	2024-11-08T15:00:00	1	Precipitación	0
185352	7	Sololá	719	Santiago Atitlán	14	Cerro de Oro	11	Noviembre	2023-11-20T00:00:00	2024-11-08T15:00:00	8	Radiación solar	176
185353	7	Sololá	719	Santiago Atitlán	14	Cerro de Oro	11	Noviembre	2023-11-20T00:00:00	2024-11-08T16:00:00	2	Temperatura media	19.2
185354	7	Sololá	719	Santiago Atitlán	14	Cerro de Oro	11	Noviembre	2023-11-20T00:00:00	2024-11-08T16:00:00	4	Temperatura máxima	20.5
185355	7	Sololá	719	Santiago Atitlán	14	Cerro de Oro	11	Noviembre	2023-11-20T00:00:00	2024-11-08T16:00:00	3	Temperatura mínima	19.2
185356	7	Sololá	719	Santiago Atitlán	14	Cerro de Oro	11	Noviembre	2023-11-20T00:00:00	2024-11-08T16:00:00	5	Humedad	86
185357	7	Sololá	719	Santiago Atitlán	14	Cerro de Oro	11	Noviembre	2023-11-20T00:00:00	2024-11-08T16:00:00	6	Velocidad del viento	9.7
185358	7	Sololá	719	Santiago Atitlán	14	Cerro de Oro	11	Noviembre	2023-11-20T00:00:00	2024-11-08T16:00:00	7	Dirección del viento	9.66
185359	7	Sololá	719	Santiago Atitlán	14	Cerro de Oro	11	Noviembre	2023-11-20T00:00:00	2024-11-08T16:00:00	1	Precipitación	0
185360	7	Sololá	719	Santiago Atitlán	14	Cerro de Oro	11	Noviembre	2023-11-20T00:00:00	2024-11-08T16:00:00	8	Radiación solar	104
185361	7	Sololá	719	Santiago Atitlán	14	Cerro de Oro	11	Noviembre	2023-11-20T00:00:00	2024-11-08T17:00:00	2	Temperatura media	18.8
185362	7	Sololá	719	Santiago Atitlán	14	Cerro de Oro	11	Noviembre	2023-11-20T00:00:00	2024-11-08T17:00:00	4	Temperatura máxima	19.4
185363	7	Sololá	719	Santiago Atitlán	14	Cerro de Oro	11	Noviembre	2023-11-20T00:00:00	2024-11-08T17:00:00	3	Temperatura mínima	18.8
185364	7	Sololá	719	Santiago Atitlán	14	Cerro de Oro	11	Noviembre	2023-11-20T00:00:00	2024-11-08T17:00:00	5	Humedad	87
185365	7	Sololá	719	Santiago Atitlán	14	Cerro de Oro	11	Noviembre	2023-11-20T00:00:00	2024-11-08T17:00:00	6	Velocidad del viento	6.4
185366	7	Sololá	719	Santiago Atitlán	14	Cerro de Oro	11	Noviembre	2023-11-20T00:00:00	2024-11-08T17:00:00	7	Dirección del viento	6.44
185367	7	Sololá	719	Santiago Atitlán	14	Cerro de Oro	11	Noviembre	2023-11-20T00:00:00	2024-11-08T17:00:00	1	Precipitación	0
185368	7	Sololá	719	Santiago Atitlán	14	Cerro de Oro	11	Noviembre	2023-11-20T00:00:00	2024-11-08T17:00:00	8	Radiación solar	44
185369	7	Sololá	719	Santiago Atitlán	14	Cerro de Oro	11	Noviembre	2023-11-20T00:00:00	2024-11-08T18:00:00	2	Temperatura media	18.4
185370	7	Sololá	719	Santiago Atitlán	14	Cerro de Oro	11	Noviembre	2023-11-20T00:00:00	2024-11-08T18:00:00	4	Temperatura máxima	18.8
185371	7	Sololá	719	Santiago Atitlán	14	Cerro de Oro	11	Noviembre	2023-11-20T00:00:00	2024-11-08T18:00:00	3	Temperatura mínima	18.4
185372	7	Sololá	719	Santiago Atitlán	14	Cerro de Oro	11	Noviembre	2023-11-20T00:00:00	2024-11-08T18:00:00	5	Humedad	88
185373	7	Sololá	719	Santiago Atitlán	14	Cerro de Oro	11	Noviembre	2023-11-20T00:00:00	2024-11-08T18:00:00	6	Velocidad del viento	6.4
185374	7	Sololá	719	Santiago Atitlán	14	Cerro de Oro	11	Noviembre	2023-11-20T00:00:00	2024-11-08T18:00:00	7	Dirección del viento	6.44
185375	7	Sololá	719	Santiago Atitlán	14	Cerro de Oro	11	Noviembre	2023-11-20T00:00:00	2024-11-08T18:00:00	1	Precipitación	0
185376	7	Sololá	719	Santiago Atitlán	14	Cerro de Oro	11	Noviembre	2023-11-20T00:00:00	2024-11-08T18:00:00	8	Radiación solar	7
185377	7	Sololá	719	Santiago Atitlán	14	Cerro de Oro	11	Noviembre	2023-11-20T00:00:00	2024-11-08T19:00:00	2	Temperatura media	18.1
185378	7	Sololá	719	Santiago Atitlán	14	Cerro de Oro	11	Noviembre	2023-11-20T00:00:00	2024-11-08T19:00:00	4	Temperatura máxima	18.5
185379	7	Sololá	719	Santiago Atitlán	14	Cerro de Oro	11	Noviembre	2023-11-20T00:00:00	2024-11-08T19:00:00	3	Temperatura mínima	18.1
185380	7	Sololá	719	Santiago Atitlán	14	Cerro de Oro	11	Noviembre	2023-11-20T00:00:00	2024-11-08T19:00:00	5	Humedad	88
185381	7	Sololá	719	Santiago Atitlán	14	Cerro de Oro	11	Noviembre	2023-11-20T00:00:00	2024-11-08T19:00:00	6	Velocidad del viento	3.2
185382	7	Sololá	719	Santiago Atitlán	14	Cerro de Oro	11	Noviembre	2023-11-20T00:00:00	2024-11-08T19:00:00	7	Dirección del viento	3.22
185383	7	Sololá	719	Santiago Atitlán	14	Cerro de Oro	11	Noviembre	2023-11-20T00:00:00	2024-11-08T19:00:00	1	Precipitación	0
185384	7	Sololá	719	Santiago Atitlán	14	Cerro de Oro	11	Noviembre	2023-11-20T00:00:00	2024-11-08T19:00:00	8	Radiación solar	0
185385	7	Sololá	719	Santiago Atitlán	14	Cerro de Oro	11	Noviembre	2023-11-20T00:00:00	2024-11-08T20:00:00	2	Temperatura media	16.9
185386	7	Sololá	719	Santiago Atitlán	14	Cerro de Oro	11	Noviembre	2023-11-20T00:00:00	2024-11-08T20:00:00	4	Temperatura máxima	18.1
185387	7	Sololá	719	Santiago Atitlán	14	Cerro de Oro	11	Noviembre	2023-11-20T00:00:00	2024-11-08T20:00:00	3	Temperatura mínima	16.8
185388	7	Sololá	719	Santiago Atitlán	14	Cerro de Oro	11	Noviembre	2023-11-20T00:00:00	2024-11-08T20:00:00	5	Humedad	90
185389	7	Sololá	719	Santiago Atitlán	14	Cerro de Oro	11	Noviembre	2023-11-20T00:00:00	2024-11-08T20:00:00	6	Velocidad del viento	4.8
185390	7	Sololá	719	Santiago Atitlán	14	Cerro de Oro	11	Noviembre	2023-11-20T00:00:00	2024-11-08T20:00:00	7	Dirección del viento	4.83
185391	7	Sololá	719	Santiago Atitlán	14	Cerro de Oro	11	Noviembre	2023-11-20T00:00:00	2024-11-08T20:00:00	1	Precipitación	0
185392	7	Sololá	719	Santiago Atitlán	14	Cerro de Oro	11	Noviembre	2023-11-20T00:00:00	2024-11-08T20:00:00	8	Radiación solar	0
185393	7	Sololá	719	Santiago Atitlán	14	Cerro de Oro	11	Noviembre	2023-11-20T00:00:00	2024-11-08T21:00:00	2	Temperatura media	17.6
185394	7	Sololá	719	Santiago Atitlán	14	Cerro de Oro	11	Noviembre	2023-11-20T00:00:00	2024-11-08T21:00:00	4	Temperatura máxima	17.7
185395	7	Sololá	719	Santiago Atitlán	14	Cerro de Oro	11	Noviembre	2023-11-20T00:00:00	2024-11-08T21:00:00	3	Temperatura mínima	16.9
185396	7	Sololá	719	Santiago Atitlán	14	Cerro de Oro	11	Noviembre	2023-11-20T00:00:00	2024-11-08T21:00:00	5	Humedad	85
185397	7	Sololá	719	Santiago Atitlán	14	Cerro de Oro	11	Noviembre	2023-11-20T00:00:00	2024-11-08T21:00:00	6	Velocidad del viento	4.8
185398	7	Sololá	719	Santiago Atitlán	14	Cerro de Oro	11	Noviembre	2023-11-20T00:00:00	2024-11-08T21:00:00	7	Dirección del viento	4.83
185399	7	Sololá	719	Santiago Atitlán	14	Cerro de Oro	11	Noviembre	2023-11-20T00:00:00	2024-11-08T21:00:00	1	Precipitación	0
185400	7	Sololá	719	Santiago Atitlán	14	Cerro de Oro	11	Noviembre	2023-11-20T00:00:00	2024-11-08T21:00:00	8	Radiación solar	0
185401	7	Sololá	719	Santiago Atitlán	14	Cerro de Oro	11	Noviembre	2023-11-20T00:00:00	2024-11-08T22:00:00	2	Temperatura media	17.1
185402	7	Sololá	719	Santiago Atitlán	14	Cerro de Oro	11	Noviembre	2023-11-20T00:00:00	2024-11-08T22:00:00	4	Temperatura máxima	17.7
185403	7	Sololá	719	Santiago Atitlán	14	Cerro de Oro	11	Noviembre	2023-11-20T00:00:00	2024-11-08T22:00:00	3	Temperatura mínima	17.1
185404	7	Sololá	719	Santiago Atitlán	14	Cerro de Oro	11	Noviembre	2023-11-20T00:00:00	2024-11-08T22:00:00	5	Humedad	88
185405	7	Sololá	719	Santiago Atitlán	14	Cerro de Oro	11	Noviembre	2023-11-20T00:00:00	2024-11-08T22:00:00	6	Velocidad del viento	4.8
185406	7	Sololá	719	Santiago Atitlán	14	Cerro de Oro	11	Noviembre	2023-11-20T00:00:00	2024-11-08T22:00:00	7	Dirección del viento	4.83
185407	7	Sololá	719	Santiago Atitlán	14	Cerro de Oro	11	Noviembre	2023-11-20T00:00:00	2024-11-08T22:00:00	1	Precipitación	0
185408	7	Sololá	719	Santiago Atitlán	14	Cerro de Oro	11	Noviembre	2023-11-20T00:00:00	2024-11-08T22:00:00	8	Radiación solar	0
185409	7	Sololá	719	Santiago Atitlán	14	Cerro de Oro	11	Noviembre	2023-11-20T00:00:00	2024-11-08T23:00:00	2	Temperatura media	17.1
185410	7	Sololá	719	Santiago Atitlán	14	Cerro de Oro	11	Noviembre	2023-11-20T00:00:00	2024-11-08T23:00:00	4	Temperatura máxima	17.4
185411	7	Sololá	719	Santiago Atitlán	14	Cerro de Oro	11	Noviembre	2023-11-20T00:00:00	2024-11-08T23:00:00	3	Temperatura mínima	16.8
185412	7	Sololá	719	Santiago Atitlán	14	Cerro de Oro	11	Noviembre	2023-11-20T00:00:00	2024-11-08T23:00:00	5	Humedad	86
185413	7	Sololá	719	Santiago Atitlán	14	Cerro de Oro	11	Noviembre	2023-11-20T00:00:00	2024-11-08T23:00:00	6	Velocidad del viento	4.8
185414	7	Sololá	719	Santiago Atitlán	14	Cerro de Oro	11	Noviembre	2023-11-20T00:00:00	2024-11-08T23:00:00	7	Dirección del viento	4.83
185415	7	Sololá	719	Santiago Atitlán	14	Cerro de Oro	11	Noviembre	2023-11-20T00:00:00	2024-11-08T23:00:00	1	Precipitación	0
185416	7	Sololá	719	Santiago Atitlán	14	Cerro de Oro	11	Noviembre	2023-11-20T00:00:00	2024-11-08T23:00:00	8	Radiación solar	0
185417	7	Sololá	719	Santiago Atitlán	14	Cerro de Oro	11	Noviembre	2023-11-21T00:00:00	2024-11-08T00:00:00	2	Temperatura media	16.9
185418	7	Sololá	719	Santiago Atitlán	14	Cerro de Oro	11	Noviembre	2023-11-21T00:00:00	2024-11-08T00:00:00	4	Temperatura máxima	17.2
185419	7	Sololá	719	Santiago Atitlán	14	Cerro de Oro	11	Noviembre	2023-11-21T00:00:00	2024-11-08T00:00:00	3	Temperatura mínima	16.5
185420	7	Sololá	719	Santiago Atitlán	14	Cerro de Oro	11	Noviembre	2023-11-21T00:00:00	2024-11-08T00:00:00	5	Humedad	89
185421	7	Sololá	719	Santiago Atitlán	14	Cerro de Oro	11	Noviembre	2023-11-21T00:00:00	2024-11-08T00:00:00	6	Velocidad del viento	3.2
185422	7	Sololá	719	Santiago Atitlán	14	Cerro de Oro	11	Noviembre	2023-11-21T00:00:00	2024-11-08T00:00:00	7	Dirección del viento	3.22
185423	7	Sololá	719	Santiago Atitlán	14	Cerro de Oro	11	Noviembre	2023-11-21T00:00:00	2024-11-08T00:00:00	1	Precipitación	0
185424	7	Sololá	719	Santiago Atitlán	14	Cerro de Oro	11	Noviembre	2023-11-21T00:00:00	2024-11-08T00:00:00	8	Radiación solar	0
185425	7	Sololá	719	Santiago Atitlán	14	Cerro de Oro	11	Noviembre	2023-11-21T00:00:00	2024-11-08T01:00:00	2	Temperatura media	17.3
185426	7	Sololá	719	Santiago Atitlán	14	Cerro de Oro	11	Noviembre	2023-11-21T00:00:00	2024-11-08T01:00:00	4	Temperatura máxima	17.4
185427	7	Sololá	719	Santiago Atitlán	14	Cerro de Oro	11	Noviembre	2023-11-21T00:00:00	2024-11-08T01:00:00	3	Temperatura mínima	16.9
185428	7	Sololá	719	Santiago Atitlán	14	Cerro de Oro	11	Noviembre	2023-11-21T00:00:00	2024-11-08T01:00:00	5	Humedad	89
185429	7	Sololá	719	Santiago Atitlán	14	Cerro de Oro	11	Noviembre	2023-11-21T00:00:00	2024-11-08T01:00:00	6	Velocidad del viento	3.2
185430	7	Sololá	719	Santiago Atitlán	14	Cerro de Oro	11	Noviembre	2023-11-21T00:00:00	2024-11-08T01:00:00	7	Dirección del viento	3.22
185431	7	Sololá	719	Santiago Atitlán	14	Cerro de Oro	11	Noviembre	2023-11-21T00:00:00	2024-11-08T01:00:00	1	Precipitación	0
185432	7	Sololá	719	Santiago Atitlán	14	Cerro de Oro	11	Noviembre	2023-11-21T00:00:00	2024-11-08T01:00:00	8	Radiación solar	0
185433	7	Sololá	719	Santiago Atitlán	14	Cerro de Oro	11	Noviembre	2023-11-21T00:00:00	2024-11-08T02:00:00	2	Temperatura media	16.9
185434	7	Sololá	719	Santiago Atitlán	14	Cerro de Oro	11	Noviembre	2023-11-21T00:00:00	2024-11-08T02:00:00	4	Temperatura máxima	17.3
185435	7	Sololá	719	Santiago Atitlán	14	Cerro de Oro	11	Noviembre	2023-11-21T00:00:00	2024-11-08T02:00:00	3	Temperatura mínima	16.8
185436	7	Sololá	719	Santiago Atitlán	14	Cerro de Oro	11	Noviembre	2023-11-21T00:00:00	2024-11-08T02:00:00	5	Humedad	89
185437	7	Sololá	719	Santiago Atitlán	14	Cerro de Oro	11	Noviembre	2023-11-21T00:00:00	2024-11-08T02:00:00	6	Velocidad del viento	4.8
185438	7	Sololá	719	Santiago Atitlán	14	Cerro de Oro	11	Noviembre	2023-11-21T00:00:00	2024-11-08T02:00:00	7	Dirección del viento	4.83
185439	7	Sololá	719	Santiago Atitlán	14	Cerro de Oro	11	Noviembre	2023-11-21T00:00:00	2024-11-08T02:00:00	1	Precipitación	0
185440	7	Sololá	719	Santiago Atitlán	14	Cerro de Oro	11	Noviembre	2023-11-21T00:00:00	2024-11-08T02:00:00	8	Radiación solar	0
185441	7	Sololá	719	Santiago Atitlán	14	Cerro de Oro	11	Noviembre	2023-11-21T00:00:00	2024-11-08T03:00:00	2	Temperatura media	17
185442	7	Sololá	719	Santiago Atitlán	14	Cerro de Oro	11	Noviembre	2023-11-21T00:00:00	2024-11-08T03:00:00	4	Temperatura máxima	17.6
185443	7	Sololá	719	Santiago Atitlán	14	Cerro de Oro	11	Noviembre	2023-11-21T00:00:00	2024-11-08T03:00:00	3	Temperatura mínima	16.8
185444	7	Sololá	719	Santiago Atitlán	14	Cerro de Oro	11	Noviembre	2023-11-21T00:00:00	2024-11-08T03:00:00	5	Humedad	85
185445	7	Sololá	719	Santiago Atitlán	14	Cerro de Oro	11	Noviembre	2023-11-21T00:00:00	2024-11-08T03:00:00	6	Velocidad del viento	4.8
185446	7	Sololá	719	Santiago Atitlán	14	Cerro de Oro	11	Noviembre	2023-11-21T00:00:00	2024-11-08T03:00:00	7	Dirección del viento	4.83
185447	7	Sololá	719	Santiago Atitlán	14	Cerro de Oro	11	Noviembre	2023-11-21T00:00:00	2024-11-08T03:00:00	1	Precipitación	0
185448	7	Sololá	719	Santiago Atitlán	14	Cerro de Oro	11	Noviembre	2023-11-21T00:00:00	2024-11-08T03:00:00	8	Radiación solar	0
185449	7	Sololá	719	Santiago Atitlán	14	Cerro de Oro	11	Noviembre	2023-11-21T00:00:00	2024-11-08T04:00:00	2	Temperatura media	15.7
185450	7	Sololá	719	Santiago Atitlán	14	Cerro de Oro	11	Noviembre	2023-11-21T00:00:00	2024-11-08T04:00:00	4	Temperatura máxima	17
185451	7	Sololá	719	Santiago Atitlán	14	Cerro de Oro	11	Noviembre	2023-11-21T00:00:00	2024-11-08T04:00:00	3	Temperatura mínima	15.7
185452	7	Sololá	719	Santiago Atitlán	14	Cerro de Oro	11	Noviembre	2023-11-21T00:00:00	2024-11-08T04:00:00	5	Humedad	86
185453	7	Sololá	719	Santiago Atitlán	14	Cerro de Oro	11	Noviembre	2023-11-21T00:00:00	2024-11-08T04:00:00	6	Velocidad del viento	3.2
185454	7	Sololá	719	Santiago Atitlán	14	Cerro de Oro	11	Noviembre	2023-11-21T00:00:00	2024-11-08T04:00:00	7	Dirección del viento	3.22
185455	7	Sololá	719	Santiago Atitlán	14	Cerro de Oro	11	Noviembre	2023-11-21T00:00:00	2024-11-08T04:00:00	1	Precipitación	0
185456	7	Sololá	719	Santiago Atitlán	14	Cerro de Oro	11	Noviembre	2023-11-21T00:00:00	2024-11-08T04:00:00	8	Radiación solar	0
185457	7	Sololá	719	Santiago Atitlán	14	Cerro de Oro	11	Noviembre	2023-11-21T00:00:00	2024-11-08T05:00:00	2	Temperatura media	15.3
185458	7	Sololá	719	Santiago Atitlán	14	Cerro de Oro	11	Noviembre	2023-11-21T00:00:00	2024-11-08T05:00:00	4	Temperatura máxima	15.8
185459	7	Sololá	719	Santiago Atitlán	14	Cerro de Oro	11	Noviembre	2023-11-21T00:00:00	2024-11-08T05:00:00	3	Temperatura mínima	15.1
185460	7	Sololá	719	Santiago Atitlán	14	Cerro de Oro	11	Noviembre	2023-11-21T00:00:00	2024-11-08T05:00:00	5	Humedad	86
185461	7	Sololá	719	Santiago Atitlán	14	Cerro de Oro	11	Noviembre	2023-11-21T00:00:00	2024-11-08T05:00:00	6	Velocidad del viento	3.2
185462	7	Sololá	719	Santiago Atitlán	14	Cerro de Oro	11	Noviembre	2023-11-21T00:00:00	2024-11-08T05:00:00	7	Dirección del viento	3.22
185463	7	Sololá	719	Santiago Atitlán	14	Cerro de Oro	11	Noviembre	2023-11-21T00:00:00	2024-11-08T05:00:00	1	Precipitación	0
185464	7	Sololá	719	Santiago Atitlán	14	Cerro de Oro	11	Noviembre	2023-11-21T00:00:00	2024-11-08T05:00:00	8	Radiación solar	0
185465	7	Sololá	719	Santiago Atitlán	14	Cerro de Oro	11	Noviembre	2023-11-21T00:00:00	2024-11-08T06:00:00	2	Temperatura media	15.6
185466	7	Sololá	719	Santiago Atitlán	14	Cerro de Oro	11	Noviembre	2023-11-21T00:00:00	2024-11-08T06:00:00	4	Temperatura máxima	15.6
185467	7	Sololá	719	Santiago Atitlán	14	Cerro de Oro	11	Noviembre	2023-11-21T00:00:00	2024-11-08T06:00:00	3	Temperatura mínima	15.2
185468	7	Sololá	719	Santiago Atitlán	14	Cerro de Oro	11	Noviembre	2023-11-21T00:00:00	2024-11-08T06:00:00	5	Humedad	84
185469	7	Sololá	719	Santiago Atitlán	14	Cerro de Oro	11	Noviembre	2023-11-21T00:00:00	2024-11-08T06:00:00	6	Velocidad del viento	3.2
185470	7	Sololá	719	Santiago Atitlán	14	Cerro de Oro	11	Noviembre	2023-11-21T00:00:00	2024-11-08T06:00:00	7	Dirección del viento	3.22
185471	7	Sololá	719	Santiago Atitlán	14	Cerro de Oro	11	Noviembre	2023-11-21T00:00:00	2024-11-08T06:00:00	1	Precipitación	0
185472	7	Sololá	719	Santiago Atitlán	14	Cerro de Oro	11	Noviembre	2023-11-21T00:00:00	2024-11-08T06:00:00	8	Radiación solar	0
185473	7	Sololá	719	Santiago Atitlán	14	Cerro de Oro	11	Noviembre	2023-11-21T00:00:00	2024-11-08T07:00:00	2	Temperatura media	16.6
185474	7	Sololá	719	Santiago Atitlán	14	Cerro de Oro	11	Noviembre	2023-11-21T00:00:00	2024-11-08T07:00:00	4	Temperatura máxima	16.6
185475	7	Sololá	719	Santiago Atitlán	14	Cerro de Oro	11	Noviembre	2023-11-21T00:00:00	2024-11-08T07:00:00	3	Temperatura mínima	15.6
185476	7	Sololá	719	Santiago Atitlán	14	Cerro de Oro	11	Noviembre	2023-11-21T00:00:00	2024-11-08T07:00:00	5	Humedad	83
185477	7	Sololá	719	Santiago Atitlán	14	Cerro de Oro	11	Noviembre	2023-11-21T00:00:00	2024-11-08T07:00:00	6	Velocidad del viento	4.8
185478	7	Sololá	719	Santiago Atitlán	14	Cerro de Oro	11	Noviembre	2023-11-21T00:00:00	2024-11-08T07:00:00	7	Dirección del viento	4.83
185479	7	Sololá	719	Santiago Atitlán	14	Cerro de Oro	11	Noviembre	2023-11-21T00:00:00	2024-11-08T07:00:00	1	Precipitación	0
185480	7	Sololá	719	Santiago Atitlán	14	Cerro de Oro	11	Noviembre	2023-11-21T00:00:00	2024-11-08T07:00:00	8	Radiación solar	31
185481	7	Sololá	719	Santiago Atitlán	14	Cerro de Oro	11	Noviembre	2023-11-21T00:00:00	2024-11-08T08:00:00	2	Temperatura media	18.8
185482	7	Sololá	719	Santiago Atitlán	14	Cerro de Oro	11	Noviembre	2023-11-21T00:00:00	2024-11-08T08:00:00	4	Temperatura máxima	18.8
185483	7	Sololá	719	Santiago Atitlán	14	Cerro de Oro	11	Noviembre	2023-11-21T00:00:00	2024-11-08T08:00:00	3	Temperatura mínima	16.6
185484	7	Sololá	719	Santiago Atitlán	14	Cerro de Oro	11	Noviembre	2023-11-21T00:00:00	2024-11-08T08:00:00	5	Humedad	78
185485	7	Sololá	719	Santiago Atitlán	14	Cerro de Oro	11	Noviembre	2023-11-21T00:00:00	2024-11-08T08:00:00	6	Velocidad del viento	1.6
185486	7	Sololá	719	Santiago Atitlán	14	Cerro de Oro	11	Noviembre	2023-11-21T00:00:00	2024-11-08T08:00:00	7	Dirección del viento	1.61
185487	7	Sololá	719	Santiago Atitlán	14	Cerro de Oro	11	Noviembre	2023-11-21T00:00:00	2024-11-08T08:00:00	1	Precipitación	0
185488	7	Sololá	719	Santiago Atitlán	14	Cerro de Oro	11	Noviembre	2023-11-21T00:00:00	2024-11-08T08:00:00	8	Radiación solar	211
185489	7	Sololá	719	Santiago Atitlán	14	Cerro de Oro	11	Noviembre	2023-11-21T00:00:00	2024-11-08T09:00:00	2	Temperatura media	19.2
185490	7	Sololá	719	Santiago Atitlán	14	Cerro de Oro	11	Noviembre	2023-11-21T00:00:00	2024-11-08T09:00:00	4	Temperatura máxima	19.4
185491	7	Sololá	719	Santiago Atitlán	14	Cerro de Oro	11	Noviembre	2023-11-21T00:00:00	2024-11-08T09:00:00	3	Temperatura mínima	18.6
185492	7	Sololá	719	Santiago Atitlán	14	Cerro de Oro	11	Noviembre	2023-11-21T00:00:00	2024-11-08T09:00:00	5	Humedad	78
185493	7	Sololá	719	Santiago Atitlán	14	Cerro de Oro	11	Noviembre	2023-11-21T00:00:00	2024-11-08T09:00:00	6	Velocidad del viento	3.2
185494	7	Sololá	719	Santiago Atitlán	14	Cerro de Oro	11	Noviembre	2023-11-21T00:00:00	2024-11-08T09:00:00	7	Dirección del viento	3.22
185495	7	Sololá	719	Santiago Atitlán	14	Cerro de Oro	11	Noviembre	2023-11-21T00:00:00	2024-11-08T09:00:00	1	Precipitación	0
185496	7	Sololá	719	Santiago Atitlán	14	Cerro de Oro	11	Noviembre	2023-11-21T00:00:00	2024-11-08T09:00:00	8	Radiación solar	438
185497	7	Sololá	719	Santiago Atitlán	14	Cerro de Oro	11	Noviembre	2023-11-21T00:00:00	2024-11-08T10:00:00	2	Temperatura media	19.9
185498	7	Sololá	719	Santiago Atitlán	14	Cerro de Oro	11	Noviembre	2023-11-21T00:00:00	2024-11-08T10:00:00	4	Temperatura máxima	19.9
185499	7	Sololá	719	Santiago Atitlán	14	Cerro de Oro	11	Noviembre	2023-11-21T00:00:00	2024-11-08T10:00:00	3	Temperatura mínima	19
185500	7	Sololá	719	Santiago Atitlán	14	Cerro de Oro	11	Noviembre	2023-11-21T00:00:00	2024-11-08T10:00:00	5	Humedad	76
185501	7	Sololá	719	Santiago Atitlán	14	Cerro de Oro	11	Noviembre	2023-11-21T00:00:00	2024-11-08T10:00:00	6	Velocidad del viento	4.8
185502	7	Sololá	719	Santiago Atitlán	14	Cerro de Oro	11	Noviembre	2023-11-21T00:00:00	2024-11-08T10:00:00	7	Dirección del viento	4.83
185503	7	Sololá	719	Santiago Atitlán	14	Cerro de Oro	11	Noviembre	2023-11-21T00:00:00	2024-11-08T10:00:00	1	Precipitación	0
185504	7	Sololá	719	Santiago Atitlán	14	Cerro de Oro	11	Noviembre	2023-11-21T00:00:00	2024-11-08T10:00:00	8	Radiación solar	608
185505	7	Sololá	719	Santiago Atitlán	14	Cerro de Oro	11	Noviembre	2023-11-21T00:00:00	2024-11-08T11:00:00	2	Temperatura media	20.8
185506	7	Sololá	719	Santiago Atitlán	14	Cerro de Oro	11	Noviembre	2023-11-21T00:00:00	2024-11-08T11:00:00	4	Temperatura máxima	20.8
185507	7	Sololá	719	Santiago Atitlán	14	Cerro de Oro	11	Noviembre	2023-11-21T00:00:00	2024-11-08T11:00:00	3	Temperatura mínima	19.9
185508	7	Sololá	719	Santiago Atitlán	14	Cerro de Oro	11	Noviembre	2023-11-21T00:00:00	2024-11-08T11:00:00	5	Humedad	78
185509	7	Sololá	719	Santiago Atitlán	14	Cerro de Oro	11	Noviembre	2023-11-21T00:00:00	2024-11-08T11:00:00	6	Velocidad del viento	4.8
185510	7	Sololá	719	Santiago Atitlán	14	Cerro de Oro	11	Noviembre	2023-11-21T00:00:00	2024-11-08T11:00:00	7	Dirección del viento	4.83
185511	7	Sololá	719	Santiago Atitlán	14	Cerro de Oro	11	Noviembre	2023-11-21T00:00:00	2024-11-08T11:00:00	1	Precipitación	0
185512	7	Sololá	719	Santiago Atitlán	14	Cerro de Oro	11	Noviembre	2023-11-21T00:00:00	2024-11-08T11:00:00	8	Radiación solar	733
185513	7	Sololá	719	Santiago Atitlán	14	Cerro de Oro	11	Noviembre	2023-11-21T00:00:00	2024-11-08T12:00:00	2	Temperatura media	22.1
185514	7	Sololá	719	Santiago Atitlán	14	Cerro de Oro	11	Noviembre	2023-11-21T00:00:00	2024-11-08T12:00:00	4	Temperatura máxima	22.1
185515	7	Sololá	719	Santiago Atitlán	14	Cerro de Oro	11	Noviembre	2023-11-21T00:00:00	2024-11-08T12:00:00	3	Temperatura mínima	20.8
185516	7	Sololá	719	Santiago Atitlán	14	Cerro de Oro	11	Noviembre	2023-11-21T00:00:00	2024-11-08T12:00:00	5	Humedad	76
185517	7	Sololá	719	Santiago Atitlán	14	Cerro de Oro	11	Noviembre	2023-11-21T00:00:00	2024-11-08T12:00:00	6	Velocidad del viento	8
185518	7	Sololá	719	Santiago Atitlán	14	Cerro de Oro	11	Noviembre	2023-11-21T00:00:00	2024-11-08T12:00:00	7	Dirección del viento	8.05
185519	7	Sololá	719	Santiago Atitlán	14	Cerro de Oro	11	Noviembre	2023-11-21T00:00:00	2024-11-08T12:00:00	1	Precipitación	0
185520	7	Sololá	719	Santiago Atitlán	14	Cerro de Oro	11	Noviembre	2023-11-21T00:00:00	2024-11-08T12:00:00	8	Radiación solar	793
185521	7	Sololá	719	Santiago Atitlán	14	Cerro de Oro	11	Noviembre	2023-11-21T00:00:00	2024-11-08T13:00:00	2	Temperatura media	21.8
185522	7	Sololá	719	Santiago Atitlán	14	Cerro de Oro	11	Noviembre	2023-11-21T00:00:00	2024-11-08T13:00:00	4	Temperatura máxima	22.5
185523	7	Sololá	719	Santiago Atitlán	14	Cerro de Oro	11	Noviembre	2023-11-21T00:00:00	2024-11-08T13:00:00	3	Temperatura mínima	21.7
185524	7	Sololá	719	Santiago Atitlán	14	Cerro de Oro	11	Noviembre	2023-11-21T00:00:00	2024-11-08T13:00:00	5	Humedad	76
185525	7	Sololá	719	Santiago Atitlán	14	Cerro de Oro	11	Noviembre	2023-11-21T00:00:00	2024-11-08T13:00:00	6	Velocidad del viento	9.7
185526	7	Sololá	719	Santiago Atitlán	14	Cerro de Oro	11	Noviembre	2023-11-21T00:00:00	2024-11-08T13:00:00	7	Dirección del viento	9.66
185527	7	Sololá	719	Santiago Atitlán	14	Cerro de Oro	11	Noviembre	2023-11-21T00:00:00	2024-11-08T13:00:00	1	Precipitación	0
185528	7	Sololá	719	Santiago Atitlán	14	Cerro de Oro	11	Noviembre	2023-11-21T00:00:00	2024-11-08T13:00:00	8	Radiación solar	820
185529	7	Sololá	719	Santiago Atitlán	14	Cerro de Oro	11	Noviembre	2023-11-21T00:00:00	2024-11-08T14:00:00	2	Temperatura media	21.7
185530	7	Sololá	719	Santiago Atitlán	14	Cerro de Oro	11	Noviembre	2023-11-21T00:00:00	2024-11-08T14:00:00	4	Temperatura máxima	21.9
185531	7	Sololá	719	Santiago Atitlán	14	Cerro de Oro	11	Noviembre	2023-11-21T00:00:00	2024-11-08T14:00:00	3	Temperatura mínima	21.4
185532	7	Sololá	719	Santiago Atitlán	14	Cerro de Oro	11	Noviembre	2023-11-21T00:00:00	2024-11-08T14:00:00	5	Humedad	78
185533	7	Sololá	719	Santiago Atitlán	14	Cerro de Oro	11	Noviembre	2023-11-21T00:00:00	2024-11-08T14:00:00	6	Velocidad del viento	9.7
185534	7	Sololá	719	Santiago Atitlán	14	Cerro de Oro	11	Noviembre	2023-11-21T00:00:00	2024-11-08T14:00:00	7	Dirección del viento	9.66
185535	7	Sololá	719	Santiago Atitlán	14	Cerro de Oro	11	Noviembre	2023-11-21T00:00:00	2024-11-08T14:00:00	1	Precipitación	0
185536	7	Sololá	719	Santiago Atitlán	14	Cerro de Oro	11	Noviembre	2023-11-21T00:00:00	2024-11-08T14:00:00	8	Radiación solar	698
185537	7	Sololá	719	Santiago Atitlán	14	Cerro de Oro	11	Noviembre	2023-11-21T00:00:00	2024-11-08T15:00:00	2	Temperatura media	21.5
185538	7	Sololá	719	Santiago Atitlán	14	Cerro de Oro	11	Noviembre	2023-11-21T00:00:00	2024-11-08T15:00:00	4	Temperatura máxima	22.1
185539	7	Sololá	719	Santiago Atitlán	14	Cerro de Oro	11	Noviembre	2023-11-21T00:00:00	2024-11-08T15:00:00	3	Temperatura mínima	21.2
185540	7	Sololá	719	Santiago Atitlán	14	Cerro de Oro	11	Noviembre	2023-11-21T00:00:00	2024-11-08T15:00:00	5	Humedad	79
185541	7	Sololá	719	Santiago Atitlán	14	Cerro de Oro	11	Noviembre	2023-11-21T00:00:00	2024-11-08T15:00:00	6	Velocidad del viento	8
185542	7	Sololá	719	Santiago Atitlán	14	Cerro de Oro	11	Noviembre	2023-11-21T00:00:00	2024-11-08T15:00:00	7	Dirección del viento	8.05
185543	7	Sololá	719	Santiago Atitlán	14	Cerro de Oro	11	Noviembre	2023-11-21T00:00:00	2024-11-08T15:00:00	1	Precipitación	0
185544	7	Sololá	719	Santiago Atitlán	14	Cerro de Oro	11	Noviembre	2023-11-21T00:00:00	2024-11-08T15:00:00	8	Radiación solar	554
185545	7	Sololá	719	Santiago Atitlán	14	Cerro de Oro	11	Noviembre	2023-11-21T00:00:00	2024-11-08T16:00:00	2	Temperatura media	20.7
185546	7	Sololá	719	Santiago Atitlán	14	Cerro de Oro	11	Noviembre	2023-11-21T00:00:00	2024-11-08T16:00:00	4	Temperatura máxima	21.6
185547	7	Sololá	719	Santiago Atitlán	14	Cerro de Oro	11	Noviembre	2023-11-21T00:00:00	2024-11-08T16:00:00	3	Temperatura mínima	20.6
185548	7	Sololá	719	Santiago Atitlán	14	Cerro de Oro	11	Noviembre	2023-11-21T00:00:00	2024-11-08T16:00:00	5	Humedad	82
185549	7	Sololá	719	Santiago Atitlán	14	Cerro de Oro	11	Noviembre	2023-11-21T00:00:00	2024-11-08T16:00:00	6	Velocidad del viento	8
185550	7	Sololá	719	Santiago Atitlán	14	Cerro de Oro	11	Noviembre	2023-11-21T00:00:00	2024-11-08T16:00:00	7	Dirección del viento	8.05
185551	7	Sololá	719	Santiago Atitlán	14	Cerro de Oro	11	Noviembre	2023-11-21T00:00:00	2024-11-08T16:00:00	1	Precipitación	0
185552	7	Sololá	719	Santiago Atitlán	14	Cerro de Oro	11	Noviembre	2023-11-21T00:00:00	2024-11-08T16:00:00	8	Radiación solar	353
185553	7	Sololá	719	Santiago Atitlán	14	Cerro de Oro	11	Noviembre	2023-11-21T00:00:00	2024-11-08T17:00:00	2	Temperatura media	19.8
185554	7	Sololá	719	Santiago Atitlán	14	Cerro de Oro	11	Noviembre	2023-11-21T00:00:00	2024-11-08T17:00:00	4	Temperatura máxima	20.7
185555	7	Sololá	719	Santiago Atitlán	14	Cerro de Oro	11	Noviembre	2023-11-21T00:00:00	2024-11-08T17:00:00	3	Temperatura mínima	19.8
185556	7	Sololá	719	Santiago Atitlán	14	Cerro de Oro	11	Noviembre	2023-11-21T00:00:00	2024-11-08T17:00:00	5	Humedad	84
185557	7	Sololá	719	Santiago Atitlán	14	Cerro de Oro	11	Noviembre	2023-11-21T00:00:00	2024-11-08T17:00:00	6	Velocidad del viento	6.4
185558	7	Sololá	719	Santiago Atitlán	14	Cerro de Oro	11	Noviembre	2023-11-21T00:00:00	2024-11-08T17:00:00	7	Dirección del viento	6.44
185559	7	Sololá	719	Santiago Atitlán	14	Cerro de Oro	11	Noviembre	2023-11-21T00:00:00	2024-11-08T17:00:00	1	Precipitación	0
185560	7	Sololá	719	Santiago Atitlán	14	Cerro de Oro	11	Noviembre	2023-11-21T00:00:00	2024-11-08T17:00:00	8	Radiación solar	129
185561	7	Sololá	719	Santiago Atitlán	14	Cerro de Oro	11	Noviembre	2023-11-21T00:00:00	2024-11-08T18:00:00	2	Temperatura media	18.2
185562	7	Sololá	719	Santiago Atitlán	14	Cerro de Oro	11	Noviembre	2023-11-21T00:00:00	2024-11-08T18:00:00	4	Temperatura máxima	19.8
185563	7	Sololá	719	Santiago Atitlán	14	Cerro de Oro	11	Noviembre	2023-11-21T00:00:00	2024-11-08T18:00:00	3	Temperatura mínima	18.2
185564	7	Sololá	719	Santiago Atitlán	14	Cerro de Oro	11	Noviembre	2023-11-21T00:00:00	2024-11-08T18:00:00	5	Humedad	87
185565	7	Sololá	719	Santiago Atitlán	14	Cerro de Oro	11	Noviembre	2023-11-21T00:00:00	2024-11-08T18:00:00	6	Velocidad del viento	6.4
185566	7	Sololá	719	Santiago Atitlán	14	Cerro de Oro	11	Noviembre	2023-11-21T00:00:00	2024-11-08T18:00:00	7	Dirección del viento	6.44
185567	7	Sololá	719	Santiago Atitlán	14	Cerro de Oro	11	Noviembre	2023-11-21T00:00:00	2024-11-08T18:00:00	1	Precipitación	0
185568	7	Sololá	719	Santiago Atitlán	14	Cerro de Oro	11	Noviembre	2023-11-21T00:00:00	2024-11-08T18:00:00	8	Radiación solar	8
185569	7	Sololá	719	Santiago Atitlán	14	Cerro de Oro	11	Noviembre	2023-11-21T00:00:00	2024-11-08T19:00:00	2	Temperatura media	18.3
185570	7	Sololá	719	Santiago Atitlán	14	Cerro de Oro	11	Noviembre	2023-11-21T00:00:00	2024-11-08T19:00:00	4	Temperatura máxima	18.6
185571	7	Sololá	719	Santiago Atitlán	14	Cerro de Oro	11	Noviembre	2023-11-21T00:00:00	2024-11-08T19:00:00	3	Temperatura mínima	17.8
185572	7	Sololá	719	Santiago Atitlán	14	Cerro de Oro	11	Noviembre	2023-11-21T00:00:00	2024-11-08T19:00:00	5	Humedad	78
185573	7	Sololá	719	Santiago Atitlán	14	Cerro de Oro	11	Noviembre	2023-11-21T00:00:00	2024-11-08T19:00:00	6	Velocidad del viento	4.8
185574	7	Sololá	719	Santiago Atitlán	14	Cerro de Oro	11	Noviembre	2023-11-21T00:00:00	2024-11-08T19:00:00	7	Dirección del viento	4.83
185575	7	Sololá	719	Santiago Atitlán	14	Cerro de Oro	11	Noviembre	2023-11-21T00:00:00	2024-11-08T19:00:00	1	Precipitación	0
185576	7	Sololá	719	Santiago Atitlán	14	Cerro de Oro	11	Noviembre	2023-11-21T00:00:00	2024-11-08T19:00:00	8	Radiación solar	0
185577	7	Sololá	719	Santiago Atitlán	14	Cerro de Oro	11	Noviembre	2023-11-21T00:00:00	2024-11-08T20:00:00	2	Temperatura media	18.2
185578	7	Sololá	719	Santiago Atitlán	14	Cerro de Oro	11	Noviembre	2023-11-21T00:00:00	2024-11-08T20:00:00	4	Temperatura máxima	18.8
185579	7	Sololá	719	Santiago Atitlán	14	Cerro de Oro	11	Noviembre	2023-11-21T00:00:00	2024-11-08T20:00:00	3	Temperatura mínima	18
185580	7	Sololá	719	Santiago Atitlán	14	Cerro de Oro	11	Noviembre	2023-11-21T00:00:00	2024-11-08T20:00:00	5	Humedad	64
185581	7	Sololá	719	Santiago Atitlán	14	Cerro de Oro	11	Noviembre	2023-11-21T00:00:00	2024-11-08T20:00:00	6	Velocidad del viento	4.8
185582	7	Sololá	719	Santiago Atitlán	14	Cerro de Oro	11	Noviembre	2023-11-21T00:00:00	2024-11-08T20:00:00	7	Dirección del viento	4.83
185583	7	Sololá	719	Santiago Atitlán	14	Cerro de Oro	11	Noviembre	2023-11-21T00:00:00	2024-11-08T20:00:00	1	Precipitación	0
185584	7	Sololá	719	Santiago Atitlán	14	Cerro de Oro	11	Noviembre	2023-11-21T00:00:00	2024-11-08T20:00:00	8	Radiación solar	0
185585	7	Sololá	719	Santiago Atitlán	14	Cerro de Oro	11	Noviembre	2023-11-21T00:00:00	2024-11-08T21:00:00	2	Temperatura media	18.2
185586	7	Sololá	719	Santiago Atitlán	14	Cerro de Oro	11	Noviembre	2023-11-21T00:00:00	2024-11-08T21:00:00	4	Temperatura máxima	18.3
185587	7	Sololá	719	Santiago Atitlán	14	Cerro de Oro	11	Noviembre	2023-11-21T00:00:00	2024-11-08T21:00:00	3	Temperatura mínima	17.6
185588	7	Sololá	719	Santiago Atitlán	14	Cerro de Oro	11	Noviembre	2023-11-21T00:00:00	2024-11-08T21:00:00	5	Humedad	64
185589	7	Sololá	719	Santiago Atitlán	14	Cerro de Oro	11	Noviembre	2023-11-21T00:00:00	2024-11-08T21:00:00	6	Velocidad del viento	6.4
185590	7	Sololá	719	Santiago Atitlán	14	Cerro de Oro	11	Noviembre	2023-11-21T00:00:00	2024-11-08T21:00:00	7	Dirección del viento	6.44
185591	7	Sololá	719	Santiago Atitlán	14	Cerro de Oro	11	Noviembre	2023-11-21T00:00:00	2024-11-08T21:00:00	1	Precipitación	0
185592	7	Sololá	719	Santiago Atitlán	14	Cerro de Oro	11	Noviembre	2023-11-21T00:00:00	2024-11-08T21:00:00	8	Radiación solar	0
185593	7	Sololá	719	Santiago Atitlán	14	Cerro de Oro	11	Noviembre	2023-11-21T00:00:00	2024-11-08T22:00:00	2	Temperatura media	17.8
185594	7	Sololá	719	Santiago Atitlán	14	Cerro de Oro	11	Noviembre	2023-11-21T00:00:00	2024-11-08T22:00:00	4	Temperatura máxima	18.7
185595	7	Sololá	719	Santiago Atitlán	14	Cerro de Oro	11	Noviembre	2023-11-21T00:00:00	2024-11-08T22:00:00	3	Temperatura mínima	17.5
185596	7	Sololá	719	Santiago Atitlán	14	Cerro de Oro	11	Noviembre	2023-11-21T00:00:00	2024-11-08T22:00:00	5	Humedad	67
185597	7	Sololá	719	Santiago Atitlán	14	Cerro de Oro	11	Noviembre	2023-11-21T00:00:00	2024-11-08T22:00:00	6	Velocidad del viento	6.4
185598	7	Sololá	719	Santiago Atitlán	14	Cerro de Oro	11	Noviembre	2023-11-21T00:00:00	2024-11-08T22:00:00	7	Dirección del viento	6.44
185599	7	Sololá	719	Santiago Atitlán	14	Cerro de Oro	11	Noviembre	2023-11-21T00:00:00	2024-11-08T22:00:00	1	Precipitación	0
185600	7	Sololá	719	Santiago Atitlán	14	Cerro de Oro	11	Noviembre	2023-11-21T00:00:00	2024-11-08T22:00:00	8	Radiación solar	0
185601	7	Sololá	719	Santiago Atitlán	14	Cerro de Oro	11	Noviembre	2023-11-21T00:00:00	2024-11-08T23:00:00	2	Temperatura media	17.4
185602	7	Sololá	719	Santiago Atitlán	14	Cerro de Oro	11	Noviembre	2023-11-21T00:00:00	2024-11-08T23:00:00	4	Temperatura máxima	17.9
185603	7	Sololá	719	Santiago Atitlán	14	Cerro de Oro	11	Noviembre	2023-11-21T00:00:00	2024-11-08T23:00:00	3	Temperatura mínima	17.1
185604	7	Sololá	719	Santiago Atitlán	14	Cerro de Oro	11	Noviembre	2023-11-21T00:00:00	2024-11-08T23:00:00	5	Humedad	71
185605	7	Sololá	719	Santiago Atitlán	14	Cerro de Oro	11	Noviembre	2023-11-21T00:00:00	2024-11-08T23:00:00	6	Velocidad del viento	6.4
185606	7	Sololá	719	Santiago Atitlán	14	Cerro de Oro	11	Noviembre	2023-11-21T00:00:00	2024-11-08T23:00:00	7	Dirección del viento	6.44
185607	7	Sololá	719	Santiago Atitlán	14	Cerro de Oro	11	Noviembre	2023-11-21T00:00:00	2024-11-08T23:00:00	1	Precipitación	0
185608	7	Sololá	719	Santiago Atitlán	14	Cerro de Oro	11	Noviembre	2023-11-21T00:00:00	2024-11-08T23:00:00	8	Radiación solar	0
185609	7	Sololá	719	Santiago Atitlán	14	Cerro de Oro	11	Noviembre	2023-11-22T00:00:00	2024-11-08T00:00:00	2	Temperatura media	17.7
185610	7	Sololá	719	Santiago Atitlán	14	Cerro de Oro	11	Noviembre	2023-11-22T00:00:00	2024-11-08T00:00:00	4	Temperatura máxima	18
185611	7	Sololá	719	Santiago Atitlán	14	Cerro de Oro	11	Noviembre	2023-11-22T00:00:00	2024-11-08T00:00:00	3	Temperatura mínima	17.4
185612	7	Sololá	719	Santiago Atitlán	14	Cerro de Oro	11	Noviembre	2023-11-22T00:00:00	2024-11-08T00:00:00	5	Humedad	73
185613	7	Sololá	719	Santiago Atitlán	14	Cerro de Oro	11	Noviembre	2023-11-22T00:00:00	2024-11-08T00:00:00	6	Velocidad del viento	4.8
185614	7	Sololá	719	Santiago Atitlán	14	Cerro de Oro	11	Noviembre	2023-11-22T00:00:00	2024-11-08T00:00:00	7	Dirección del viento	4.83
185615	7	Sololá	719	Santiago Atitlán	14	Cerro de Oro	11	Noviembre	2023-11-22T00:00:00	2024-11-08T00:00:00	1	Precipitación	0
185616	7	Sololá	719	Santiago Atitlán	14	Cerro de Oro	11	Noviembre	2023-11-22T00:00:00	2024-11-08T00:00:00	8	Radiación solar	0
185617	7	Sololá	719	Santiago Atitlán	14	Cerro de Oro	11	Noviembre	2023-11-22T00:00:00	2024-11-08T01:00:00	2	Temperatura media	18.1
185618	7	Sololá	719	Santiago Atitlán	14	Cerro de Oro	11	Noviembre	2023-11-22T00:00:00	2024-11-08T01:00:00	4	Temperatura máxima	18.2
185619	7	Sololá	719	Santiago Atitlán	14	Cerro de Oro	11	Noviembre	2023-11-22T00:00:00	2024-11-08T01:00:00	3	Temperatura mínima	17.5
185620	7	Sololá	719	Santiago Atitlán	14	Cerro de Oro	11	Noviembre	2023-11-22T00:00:00	2024-11-08T01:00:00	5	Humedad	68
185621	7	Sololá	719	Santiago Atitlán	14	Cerro de Oro	11	Noviembre	2023-11-22T00:00:00	2024-11-08T01:00:00	6	Velocidad del viento	6.4
185622	7	Sololá	719	Santiago Atitlán	14	Cerro de Oro	11	Noviembre	2023-11-22T00:00:00	2024-11-08T01:00:00	7	Dirección del viento	6.44
185623	7	Sololá	719	Santiago Atitlán	14	Cerro de Oro	11	Noviembre	2023-11-22T00:00:00	2024-11-08T01:00:00	1	Precipitación	0
185624	7	Sololá	719	Santiago Atitlán	14	Cerro de Oro	11	Noviembre	2023-11-22T00:00:00	2024-11-08T01:00:00	8	Radiación solar	0
185625	7	Sololá	719	Santiago Atitlán	14	Cerro de Oro	11	Noviembre	2023-11-22T00:00:00	2024-11-08T02:00:00	2	Temperatura media	17.3
185626	7	Sololá	719	Santiago Atitlán	14	Cerro de Oro	11	Noviembre	2023-11-22T00:00:00	2024-11-08T02:00:00	4	Temperatura máxima	18.1
185627	7	Sololá	719	Santiago Atitlán	14	Cerro de Oro	11	Noviembre	2023-11-22T00:00:00	2024-11-08T02:00:00	3	Temperatura mínima	17.3
185628	7	Sololá	719	Santiago Atitlán	14	Cerro de Oro	11	Noviembre	2023-11-22T00:00:00	2024-11-08T02:00:00	5	Humedad	70
185629	7	Sololá	719	Santiago Atitlán	14	Cerro de Oro	11	Noviembre	2023-11-22T00:00:00	2024-11-08T02:00:00	6	Velocidad del viento	4.8
185630	7	Sololá	719	Santiago Atitlán	14	Cerro de Oro	11	Noviembre	2023-11-22T00:00:00	2024-11-08T02:00:00	7	Dirección del viento	4.83
185631	7	Sololá	719	Santiago Atitlán	14	Cerro de Oro	11	Noviembre	2023-11-22T00:00:00	2024-11-08T02:00:00	1	Precipitación	0
185632	7	Sololá	719	Santiago Atitlán	14	Cerro de Oro	11	Noviembre	2023-11-22T00:00:00	2024-11-08T02:00:00	8	Radiación solar	0
185633	7	Sololá	719	Santiago Atitlán	14	Cerro de Oro	11	Noviembre	2023-11-22T00:00:00	2024-11-08T03:00:00	2	Temperatura media	18.3
185634	7	Sololá	719	Santiago Atitlán	14	Cerro de Oro	11	Noviembre	2023-11-22T00:00:00	2024-11-08T03:00:00	4	Temperatura máxima	18.6
185635	7	Sololá	719	Santiago Atitlán	14	Cerro de Oro	11	Noviembre	2023-11-22T00:00:00	2024-11-08T03:00:00	3	Temperatura mínima	17.3
185636	7	Sololá	719	Santiago Atitlán	14	Cerro de Oro	11	Noviembre	2023-11-22T00:00:00	2024-11-08T03:00:00	5	Humedad	65
185637	7	Sololá	719	Santiago Atitlán	14	Cerro de Oro	11	Noviembre	2023-11-22T00:00:00	2024-11-08T03:00:00	6	Velocidad del viento	4.8
185638	7	Sololá	719	Santiago Atitlán	14	Cerro de Oro	11	Noviembre	2023-11-22T00:00:00	2024-11-08T03:00:00	7	Dirección del viento	4.83
185639	7	Sololá	719	Santiago Atitlán	14	Cerro de Oro	11	Noviembre	2023-11-22T00:00:00	2024-11-08T03:00:00	1	Precipitación	0
185640	7	Sololá	719	Santiago Atitlán	14	Cerro de Oro	11	Noviembre	2023-11-22T00:00:00	2024-11-08T03:00:00	8	Radiación solar	0
185641	7	Sololá	719	Santiago Atitlán	14	Cerro de Oro	11	Noviembre	2023-11-22T00:00:00	2024-11-08T04:00:00	2	Temperatura media	18.3
185642	7	Sololá	719	Santiago Atitlán	14	Cerro de Oro	11	Noviembre	2023-11-22T00:00:00	2024-11-08T04:00:00	4	Temperatura máxima	19.1
185643	7	Sololá	719	Santiago Atitlán	14	Cerro de Oro	11	Noviembre	2023-11-22T00:00:00	2024-11-08T04:00:00	3	Temperatura mínima	17.9
185644	7	Sololá	719	Santiago Atitlán	14	Cerro de Oro	11	Noviembre	2023-11-22T00:00:00	2024-11-08T04:00:00	5	Humedad	65
185645	7	Sololá	719	Santiago Atitlán	14	Cerro de Oro	11	Noviembre	2023-11-22T00:00:00	2024-11-08T04:00:00	6	Velocidad del viento	4.8
185646	7	Sololá	719	Santiago Atitlán	14	Cerro de Oro	11	Noviembre	2023-11-22T00:00:00	2024-11-08T04:00:00	7	Dirección del viento	4.83
185647	7	Sololá	719	Santiago Atitlán	14	Cerro de Oro	11	Noviembre	2023-11-22T00:00:00	2024-11-08T04:00:00	1	Precipitación	0
185648	7	Sololá	719	Santiago Atitlán	14	Cerro de Oro	11	Noviembre	2023-11-22T00:00:00	2024-11-08T04:00:00	8	Radiación solar	0
185649	7	Sololá	719	Santiago Atitlán	14	Cerro de Oro	11	Noviembre	2023-11-22T00:00:00	2024-11-08T05:00:00	2	Temperatura media	18.5
185650	7	Sololá	719	Santiago Atitlán	14	Cerro de Oro	11	Noviembre	2023-11-22T00:00:00	2024-11-08T05:00:00	4	Temperatura máxima	19.1
185651	7	Sololá	719	Santiago Atitlán	14	Cerro de Oro	11	Noviembre	2023-11-22T00:00:00	2024-11-08T05:00:00	3	Temperatura mínima	17.9
185652	7	Sololá	719	Santiago Atitlán	14	Cerro de Oro	11	Noviembre	2023-11-22T00:00:00	2024-11-08T05:00:00	5	Humedad	64
185653	7	Sololá	719	Santiago Atitlán	14	Cerro de Oro	11	Noviembre	2023-11-22T00:00:00	2024-11-08T05:00:00	6	Velocidad del viento	4.8
185654	7	Sololá	719	Santiago Atitlán	14	Cerro de Oro	11	Noviembre	2023-11-22T00:00:00	2024-11-08T05:00:00	7	Dirección del viento	4.83
185655	7	Sololá	719	Santiago Atitlán	14	Cerro de Oro	11	Noviembre	2023-11-22T00:00:00	2024-11-08T05:00:00	1	Precipitación	0
185656	7	Sololá	719	Santiago Atitlán	14	Cerro de Oro	11	Noviembre	2023-11-22T00:00:00	2024-11-08T05:00:00	8	Radiación solar	0
185657	7	Sololá	719	Santiago Atitlán	14	Cerro de Oro	11	Noviembre	2023-11-22T00:00:00	2024-11-08T06:00:00	2	Temperatura media	17.6
185658	7	Sololá	719	Santiago Atitlán	14	Cerro de Oro	11	Noviembre	2023-11-22T00:00:00	2024-11-08T06:00:00	4	Temperatura máxima	18.6
185659	7	Sololá	719	Santiago Atitlán	14	Cerro de Oro	11	Noviembre	2023-11-22T00:00:00	2024-11-08T06:00:00	3	Temperatura mínima	17.6
185660	7	Sololá	719	Santiago Atitlán	14	Cerro de Oro	11	Noviembre	2023-11-22T00:00:00	2024-11-08T06:00:00	5	Humedad	68
185661	7	Sololá	719	Santiago Atitlán	14	Cerro de Oro	11	Noviembre	2023-11-22T00:00:00	2024-11-08T06:00:00	6	Velocidad del viento	6.4
185662	7	Sololá	719	Santiago Atitlán	14	Cerro de Oro	11	Noviembre	2023-11-22T00:00:00	2024-11-08T06:00:00	7	Dirección del viento	6.44
185663	7	Sololá	719	Santiago Atitlán	14	Cerro de Oro	11	Noviembre	2023-11-22T00:00:00	2024-11-08T06:00:00	1	Precipitación	0
185664	7	Sololá	719	Santiago Atitlán	14	Cerro de Oro	11	Noviembre	2023-11-22T00:00:00	2024-11-08T06:00:00	8	Radiación solar	0
185665	7	Sololá	719	Santiago Atitlán	14	Cerro de Oro	11	Noviembre	2023-11-22T00:00:00	2024-11-08T07:00:00	2	Temperatura media	19.8
185666	7	Sololá	719	Santiago Atitlán	14	Cerro de Oro	11	Noviembre	2023-11-22T00:00:00	2024-11-08T07:00:00	4	Temperatura máxima	19.8
185667	7	Sololá	719	Santiago Atitlán	14	Cerro de Oro	11	Noviembre	2023-11-22T00:00:00	2024-11-08T07:00:00	3	Temperatura mínima	17.6
185668	7	Sololá	719	Santiago Atitlán	14	Cerro de Oro	11	Noviembre	2023-11-22T00:00:00	2024-11-08T07:00:00	5	Humedad	64
185669	7	Sololá	719	Santiago Atitlán	14	Cerro de Oro	11	Noviembre	2023-11-22T00:00:00	2024-11-08T07:00:00	6	Velocidad del viento	8
185670	7	Sololá	719	Santiago Atitlán	14	Cerro de Oro	11	Noviembre	2023-11-22T00:00:00	2024-11-08T07:00:00	7	Dirección del viento	8.05
185671	7	Sololá	719	Santiago Atitlán	14	Cerro de Oro	11	Noviembre	2023-11-22T00:00:00	2024-11-08T07:00:00	1	Precipitación	0
185672	7	Sololá	719	Santiago Atitlán	14	Cerro de Oro	11	Noviembre	2023-11-22T00:00:00	2024-11-08T07:00:00	8	Radiación solar	31
185673	7	Sololá	719	Santiago Atitlán	14	Cerro de Oro	11	Noviembre	2023-11-22T00:00:00	2024-11-08T08:00:00	2	Temperatura media	22.2
185674	7	Sololá	719	Santiago Atitlán	14	Cerro de Oro	11	Noviembre	2023-11-22T00:00:00	2024-11-08T08:00:00	4	Temperatura máxima	22.4
185675	7	Sololá	719	Santiago Atitlán	14	Cerro de Oro	11	Noviembre	2023-11-22T00:00:00	2024-11-08T08:00:00	3	Temperatura mínima	19.8
185676	7	Sololá	719	Santiago Atitlán	14	Cerro de Oro	11	Noviembre	2023-11-22T00:00:00	2024-11-08T08:00:00	5	Humedad	59
185677	7	Sololá	719	Santiago Atitlán	14	Cerro de Oro	11	Noviembre	2023-11-22T00:00:00	2024-11-08T08:00:00	6	Velocidad del viento	6.4
185678	7	Sololá	719	Santiago Atitlán	14	Cerro de Oro	11	Noviembre	2023-11-22T00:00:00	2024-11-08T08:00:00	7	Dirección del viento	6.44
185679	7	Sololá	719	Santiago Atitlán	14	Cerro de Oro	11	Noviembre	2023-11-22T00:00:00	2024-11-08T08:00:00	1	Precipitación	0
185680	7	Sololá	719	Santiago Atitlán	14	Cerro de Oro	11	Noviembre	2023-11-22T00:00:00	2024-11-08T08:00:00	8	Radiación solar	227
185681	7	Sololá	719	Santiago Atitlán	14	Cerro de Oro	11	Noviembre	2023-11-22T00:00:00	2024-11-08T09:00:00	2	Temperatura media	24
185682	7	Sololá	719	Santiago Atitlán	14	Cerro de Oro	11	Noviembre	2023-11-22T00:00:00	2024-11-08T09:00:00	4	Temperatura máxima	24.1
185683	7	Sololá	719	Santiago Atitlán	14	Cerro de Oro	11	Noviembre	2023-11-22T00:00:00	2024-11-08T09:00:00	3	Temperatura mínima	22.2
185684	7	Sololá	719	Santiago Atitlán	14	Cerro de Oro	11	Noviembre	2023-11-22T00:00:00	2024-11-08T09:00:00	5	Humedad	55
185685	7	Sololá	719	Santiago Atitlán	14	Cerro de Oro	11	Noviembre	2023-11-22T00:00:00	2024-11-08T09:00:00	6	Velocidad del viento	3.2
185686	7	Sololá	719	Santiago Atitlán	14	Cerro de Oro	11	Noviembre	2023-11-22T00:00:00	2024-11-08T09:00:00	7	Dirección del viento	3.22
185687	7	Sololá	719	Santiago Atitlán	14	Cerro de Oro	11	Noviembre	2023-11-22T00:00:00	2024-11-08T09:00:00	1	Precipitación	0
185688	7	Sololá	719	Santiago Atitlán	14	Cerro de Oro	11	Noviembre	2023-11-22T00:00:00	2024-11-08T09:00:00	8	Radiación solar	425
185689	7	Sololá	719	Santiago Atitlán	14	Cerro de Oro	11	Noviembre	2023-11-22T00:00:00	2024-11-08T10:00:00	2	Temperatura media	23.8
185690	7	Sololá	719	Santiago Atitlán	14	Cerro de Oro	11	Noviembre	2023-11-22T00:00:00	2024-11-08T10:00:00	4	Temperatura máxima	24
185691	7	Sololá	719	Santiago Atitlán	14	Cerro de Oro	11	Noviembre	2023-11-22T00:00:00	2024-11-08T10:00:00	3	Temperatura mínima	23.4
185692	7	Sololá	719	Santiago Atitlán	14	Cerro de Oro	11	Noviembre	2023-11-22T00:00:00	2024-11-08T10:00:00	5	Humedad	57
185693	7	Sololá	719	Santiago Atitlán	14	Cerro de Oro	11	Noviembre	2023-11-22T00:00:00	2024-11-08T10:00:00	6	Velocidad del viento	8
185694	7	Sololá	719	Santiago Atitlán	14	Cerro de Oro	11	Noviembre	2023-11-22T00:00:00	2024-11-08T10:00:00	7	Dirección del viento	8.05
185695	7	Sololá	719	Santiago Atitlán	14	Cerro de Oro	11	Noviembre	2023-11-22T00:00:00	2024-11-08T10:00:00	1	Precipitación	0
185696	7	Sololá	719	Santiago Atitlán	14	Cerro de Oro	11	Noviembre	2023-11-22T00:00:00	2024-11-08T10:00:00	8	Radiación solar	603
185697	7	Sololá	719	Santiago Atitlán	14	Cerro de Oro	11	Noviembre	2023-11-22T00:00:00	2024-11-08T11:00:00	2	Temperatura media	23.9
185698	7	Sololá	719	Santiago Atitlán	14	Cerro de Oro	11	Noviembre	2023-11-22T00:00:00	2024-11-08T11:00:00	4	Temperatura máxima	24
185699	7	Sololá	719	Santiago Atitlán	14	Cerro de Oro	11	Noviembre	2023-11-22T00:00:00	2024-11-08T11:00:00	3	Temperatura mínima	23.6
185700	7	Sololá	719	Santiago Atitlán	14	Cerro de Oro	11	Noviembre	2023-11-22T00:00:00	2024-11-08T11:00:00	5	Humedad	58
185701	7	Sololá	719	Santiago Atitlán	14	Cerro de Oro	11	Noviembre	2023-11-22T00:00:00	2024-11-08T11:00:00	6	Velocidad del viento	9.7
185702	7	Sololá	719	Santiago Atitlán	14	Cerro de Oro	11	Noviembre	2023-11-22T00:00:00	2024-11-08T11:00:00	7	Dirección del viento	9.66
185703	7	Sololá	719	Santiago Atitlán	14	Cerro de Oro	11	Noviembre	2023-11-22T00:00:00	2024-11-08T11:00:00	1	Precipitación	0
185704	7	Sololá	719	Santiago Atitlán	14	Cerro de Oro	11	Noviembre	2023-11-22T00:00:00	2024-11-08T11:00:00	8	Radiación solar	734
185705	7	Sololá	719	Santiago Atitlán	14	Cerro de Oro	11	Noviembre	2023-11-22T00:00:00	2024-11-08T12:00:00	2	Temperatura media	23.8
185706	7	Sololá	719	Santiago Atitlán	14	Cerro de Oro	11	Noviembre	2023-11-22T00:00:00	2024-11-08T12:00:00	4	Temperatura máxima	24.3
185707	7	Sololá	719	Santiago Atitlán	14	Cerro de Oro	11	Noviembre	2023-11-22T00:00:00	2024-11-08T12:00:00	3	Temperatura mínima	23.7
185708	7	Sololá	719	Santiago Atitlán	14	Cerro de Oro	11	Noviembre	2023-11-22T00:00:00	2024-11-08T12:00:00	5	Humedad	59
185709	7	Sololá	719	Santiago Atitlán	14	Cerro de Oro	11	Noviembre	2023-11-22T00:00:00	2024-11-08T12:00:00	6	Velocidad del viento	11.3
185710	7	Sololá	719	Santiago Atitlán	14	Cerro de Oro	11	Noviembre	2023-11-22T00:00:00	2024-11-08T12:00:00	7	Dirección del viento	11.27
185711	7	Sololá	719	Santiago Atitlán	14	Cerro de Oro	11	Noviembre	2023-11-22T00:00:00	2024-11-08T12:00:00	1	Precipitación	0
185712	7	Sololá	719	Santiago Atitlán	14	Cerro de Oro	11	Noviembre	2023-11-22T00:00:00	2024-11-08T12:00:00	8	Radiación solar	807
185713	7	Sololá	719	Santiago Atitlán	14	Cerro de Oro	11	Noviembre	2023-11-22T00:00:00	2024-11-08T13:00:00	2	Temperatura media	23.5
185714	7	Sololá	719	Santiago Atitlán	14	Cerro de Oro	11	Noviembre	2023-11-22T00:00:00	2024-11-08T13:00:00	4	Temperatura máxima	24
185715	7	Sololá	719	Santiago Atitlán	14	Cerro de Oro	11	Noviembre	2023-11-22T00:00:00	2024-11-08T13:00:00	3	Temperatura mínima	23.4
185716	7	Sololá	719	Santiago Atitlán	14	Cerro de Oro	11	Noviembre	2023-11-22T00:00:00	2024-11-08T13:00:00	5	Humedad	71
185717	7	Sololá	719	Santiago Atitlán	14	Cerro de Oro	11	Noviembre	2023-11-22T00:00:00	2024-11-08T13:00:00	6	Velocidad del viento	9.7
185718	7	Sololá	719	Santiago Atitlán	14	Cerro de Oro	11	Noviembre	2023-11-22T00:00:00	2024-11-08T13:00:00	7	Dirección del viento	9.66
185719	7	Sololá	719	Santiago Atitlán	14	Cerro de Oro	11	Noviembre	2023-11-22T00:00:00	2024-11-08T13:00:00	1	Precipitación	0
185720	7	Sololá	719	Santiago Atitlán	14	Cerro de Oro	11	Noviembre	2023-11-22T00:00:00	2024-11-08T13:00:00	8	Radiación solar	787
185721	7	Sololá	719	Santiago Atitlán	14	Cerro de Oro	11	Noviembre	2023-11-22T00:00:00	2024-11-08T14:00:00	2	Temperatura media	23.5
185722	7	Sololá	719	Santiago Atitlán	14	Cerro de Oro	11	Noviembre	2023-11-22T00:00:00	2024-11-08T14:00:00	4	Temperatura máxima	24.1
185723	7	Sololá	719	Santiago Atitlán	14	Cerro de Oro	11	Noviembre	2023-11-22T00:00:00	2024-11-08T14:00:00	3	Temperatura mínima	23.3
185724	7	Sololá	719	Santiago Atitlán	14	Cerro de Oro	11	Noviembre	2023-11-22T00:00:00	2024-11-08T14:00:00	5	Humedad	70
185725	7	Sololá	719	Santiago Atitlán	14	Cerro de Oro	11	Noviembre	2023-11-22T00:00:00	2024-11-08T14:00:00	6	Velocidad del viento	8
185726	7	Sololá	719	Santiago Atitlán	14	Cerro de Oro	11	Noviembre	2023-11-22T00:00:00	2024-11-08T14:00:00	7	Dirección del viento	8.05
185727	7	Sololá	719	Santiago Atitlán	14	Cerro de Oro	11	Noviembre	2023-11-22T00:00:00	2024-11-08T14:00:00	1	Precipitación	0
185728	7	Sololá	719	Santiago Atitlán	14	Cerro de Oro	11	Noviembre	2023-11-22T00:00:00	2024-11-08T14:00:00	8	Radiación solar	741
185729	7	Sololá	719	Santiago Atitlán	14	Cerro de Oro	11	Noviembre	2023-11-22T00:00:00	2024-11-08T15:00:00	2	Temperatura media	22.7
185730	7	Sololá	719	Santiago Atitlán	14	Cerro de Oro	11	Noviembre	2023-11-22T00:00:00	2024-11-08T15:00:00	4	Temperatura máxima	23.9
185731	7	Sololá	719	Santiago Atitlán	14	Cerro de Oro	11	Noviembre	2023-11-22T00:00:00	2024-11-08T15:00:00	3	Temperatura mínima	22.5
185732	7	Sololá	719	Santiago Atitlán	14	Cerro de Oro	11	Noviembre	2023-11-22T00:00:00	2024-11-08T15:00:00	5	Humedad	72
185733	7	Sololá	719	Santiago Atitlán	14	Cerro de Oro	11	Noviembre	2023-11-22T00:00:00	2024-11-08T15:00:00	6	Velocidad del viento	9.7
185734	7	Sololá	719	Santiago Atitlán	14	Cerro de Oro	11	Noviembre	2023-11-22T00:00:00	2024-11-08T15:00:00	7	Dirección del viento	9.66
185735	7	Sololá	719	Santiago Atitlán	14	Cerro de Oro	11	Noviembre	2023-11-22T00:00:00	2024-11-08T15:00:00	1	Precipitación	0
185736	7	Sololá	719	Santiago Atitlán	14	Cerro de Oro	11	Noviembre	2023-11-22T00:00:00	2024-11-08T15:00:00	8	Radiación solar	593
185737	7	Sololá	719	Santiago Atitlán	14	Cerro de Oro	11	Noviembre	2023-11-22T00:00:00	2024-11-08T16:00:00	2	Temperatura media	22.3
185738	7	Sololá	719	Santiago Atitlán	14	Cerro de Oro	11	Noviembre	2023-11-22T00:00:00	2024-11-08T16:00:00	4	Temperatura máxima	23.3
185739	7	Sololá	719	Santiago Atitlán	14	Cerro de Oro	11	Noviembre	2023-11-22T00:00:00	2024-11-08T16:00:00	3	Temperatura mínima	22.3
185740	7	Sololá	719	Santiago Atitlán	14	Cerro de Oro	11	Noviembre	2023-11-22T00:00:00	2024-11-08T16:00:00	5	Humedad	68
185741	7	Sololá	719	Santiago Atitlán	14	Cerro de Oro	11	Noviembre	2023-11-22T00:00:00	2024-11-08T16:00:00	6	Velocidad del viento	8
185742	7	Sololá	719	Santiago Atitlán	14	Cerro de Oro	11	Noviembre	2023-11-22T00:00:00	2024-11-08T16:00:00	7	Dirección del viento	8.05
185743	7	Sololá	719	Santiago Atitlán	14	Cerro de Oro	11	Noviembre	2023-11-22T00:00:00	2024-11-08T16:00:00	1	Precipitación	0
185744	7	Sololá	719	Santiago Atitlán	14	Cerro de Oro	11	Noviembre	2023-11-22T00:00:00	2024-11-08T16:00:00	8	Radiación solar	400
185745	7	Sololá	719	Santiago Atitlán	14	Cerro de Oro	11	Noviembre	2023-11-22T00:00:00	2024-11-08T17:00:00	2	Temperatura media	22.4
185746	7	Sololá	719	Santiago Atitlán	14	Cerro de Oro	11	Noviembre	2023-11-22T00:00:00	2024-11-08T17:00:00	4	Temperatura máxima	22.8
185747	7	Sololá	719	Santiago Atitlán	14	Cerro de Oro	11	Noviembre	2023-11-22T00:00:00	2024-11-08T17:00:00	3	Temperatura mínima	22.2
185748	7	Sololá	719	Santiago Atitlán	14	Cerro de Oro	11	Noviembre	2023-11-22T00:00:00	2024-11-08T17:00:00	5	Humedad	64
185749	7	Sololá	719	Santiago Atitlán	14	Cerro de Oro	11	Noviembre	2023-11-22T00:00:00	2024-11-08T17:00:00	6	Velocidad del viento	6.4
185750	7	Sololá	719	Santiago Atitlán	14	Cerro de Oro	11	Noviembre	2023-11-22T00:00:00	2024-11-08T17:00:00	7	Dirección del viento	6.44
185751	7	Sololá	719	Santiago Atitlán	14	Cerro de Oro	11	Noviembre	2023-11-22T00:00:00	2024-11-08T17:00:00	1	Precipitación	0
185752	7	Sololá	719	Santiago Atitlán	14	Cerro de Oro	11	Noviembre	2023-11-22T00:00:00	2024-11-08T17:00:00	8	Radiación solar	195
185753	7	Sololá	719	Santiago Atitlán	14	Cerro de Oro	11	Noviembre	2023-11-22T00:00:00	2024-11-08T18:00:00	2	Temperatura media	21.1
185754	7	Sololá	719	Santiago Atitlán	14	Cerro de Oro	11	Noviembre	2023-11-22T00:00:00	2024-11-08T18:00:00	4	Temperatura máxima	22.4
185755	7	Sololá	719	Santiago Atitlán	14	Cerro de Oro	11	Noviembre	2023-11-22T00:00:00	2024-11-08T18:00:00	3	Temperatura mínima	21.1
185756	7	Sololá	719	Santiago Atitlán	14	Cerro de Oro	11	Noviembre	2023-11-22T00:00:00	2024-11-08T18:00:00	5	Humedad	68
185757	7	Sololá	719	Santiago Atitlán	14	Cerro de Oro	11	Noviembre	2023-11-22T00:00:00	2024-11-08T18:00:00	6	Velocidad del viento	6.4
185758	7	Sololá	719	Santiago Atitlán	14	Cerro de Oro	11	Noviembre	2023-11-22T00:00:00	2024-11-08T18:00:00	7	Dirección del viento	6.44
185759	7	Sololá	719	Santiago Atitlán	14	Cerro de Oro	11	Noviembre	2023-11-22T00:00:00	2024-11-08T18:00:00	1	Precipitación	0
185760	7	Sololá	719	Santiago Atitlán	14	Cerro de Oro	11	Noviembre	2023-11-22T00:00:00	2024-11-08T18:00:00	8	Radiación solar	12
185761	7	Sololá	719	Santiago Atitlán	14	Cerro de Oro	11	Noviembre	2023-11-22T00:00:00	2024-11-08T19:00:00	2	Temperatura media	19.9
185762	7	Sololá	719	Santiago Atitlán	14	Cerro de Oro	11	Noviembre	2023-11-22T00:00:00	2024-11-08T19:00:00	4	Temperatura máxima	21.1
185763	7	Sololá	719	Santiago Atitlán	14	Cerro de Oro	11	Noviembre	2023-11-22T00:00:00	2024-11-08T19:00:00	3	Temperatura mínima	19.9
185764	7	Sololá	719	Santiago Atitlán	14	Cerro de Oro	11	Noviembre	2023-11-22T00:00:00	2024-11-08T19:00:00	5	Humedad	71
185765	7	Sololá	719	Santiago Atitlán	14	Cerro de Oro	11	Noviembre	2023-11-22T00:00:00	2024-11-08T19:00:00	6	Velocidad del viento	8
185766	7	Sololá	719	Santiago Atitlán	14	Cerro de Oro	11	Noviembre	2023-11-22T00:00:00	2024-11-08T19:00:00	7	Dirección del viento	8.05
185767	7	Sololá	719	Santiago Atitlán	14	Cerro de Oro	11	Noviembre	2023-11-22T00:00:00	2024-11-08T19:00:00	1	Precipitación	0
185768	7	Sololá	719	Santiago Atitlán	14	Cerro de Oro	11	Noviembre	2023-11-22T00:00:00	2024-11-08T19:00:00	8	Radiación solar	0
185769	7	Sololá	719	Santiago Atitlán	14	Cerro de Oro	11	Noviembre	2023-11-22T00:00:00	2024-11-08T20:00:00	2	Temperatura media	18.9
185770	7	Sololá	719	Santiago Atitlán	14	Cerro de Oro	11	Noviembre	2023-11-22T00:00:00	2024-11-08T20:00:00	4	Temperatura máxima	20.3
185771	7	Sololá	719	Santiago Atitlán	14	Cerro de Oro	11	Noviembre	2023-11-22T00:00:00	2024-11-08T20:00:00	3	Temperatura mínima	18.9
185772	7	Sololá	719	Santiago Atitlán	14	Cerro de Oro	11	Noviembre	2023-11-22T00:00:00	2024-11-08T20:00:00	5	Humedad	74
185773	7	Sololá	719	Santiago Atitlán	14	Cerro de Oro	11	Noviembre	2023-11-22T00:00:00	2024-11-08T20:00:00	6	Velocidad del viento	8
185774	7	Sololá	719	Santiago Atitlán	14	Cerro de Oro	11	Noviembre	2023-11-22T00:00:00	2024-11-08T20:00:00	7	Dirección del viento	8.05
185775	7	Sololá	719	Santiago Atitlán	14	Cerro de Oro	11	Noviembre	2023-11-22T00:00:00	2024-11-08T20:00:00	1	Precipitación	0
185776	7	Sololá	719	Santiago Atitlán	14	Cerro de Oro	11	Noviembre	2023-11-22T00:00:00	2024-11-08T20:00:00	8	Radiación solar	0
185777	7	Sololá	719	Santiago Atitlán	14	Cerro de Oro	11	Noviembre	2023-11-22T00:00:00	2024-11-08T21:00:00	2	Temperatura media	19.2
185778	7	Sololá	719	Santiago Atitlán	14	Cerro de Oro	11	Noviembre	2023-11-22T00:00:00	2024-11-08T21:00:00	4	Temperatura máxima	19.4
185779	7	Sololá	719	Santiago Atitlán	14	Cerro de Oro	11	Noviembre	2023-11-22T00:00:00	2024-11-08T21:00:00	3	Temperatura mínima	18.9
185780	7	Sololá	719	Santiago Atitlán	14	Cerro de Oro	11	Noviembre	2023-11-22T00:00:00	2024-11-08T21:00:00	5	Humedad	73
185781	7	Sololá	719	Santiago Atitlán	14	Cerro de Oro	11	Noviembre	2023-11-22T00:00:00	2024-11-08T21:00:00	6	Velocidad del viento	6.4
185782	7	Sololá	719	Santiago Atitlán	14	Cerro de Oro	11	Noviembre	2023-11-22T00:00:00	2024-11-08T21:00:00	7	Dirección del viento	6.44
185783	7	Sololá	719	Santiago Atitlán	14	Cerro de Oro	11	Noviembre	2023-11-22T00:00:00	2024-11-08T21:00:00	1	Precipitación	0
185784	7	Sololá	719	Santiago Atitlán	14	Cerro de Oro	11	Noviembre	2023-11-22T00:00:00	2024-11-08T21:00:00	8	Radiación solar	0
185785	7	Sololá	719	Santiago Atitlán	14	Cerro de Oro	11	Noviembre	2023-11-22T00:00:00	2024-11-08T22:00:00	2	Temperatura media	19.3
185786	7	Sololá	719	Santiago Atitlán	14	Cerro de Oro	11	Noviembre	2023-11-22T00:00:00	2024-11-08T22:00:00	4	Temperatura máxima	19.5
185787	7	Sololá	719	Santiago Atitlán	14	Cerro de Oro	11	Noviembre	2023-11-22T00:00:00	2024-11-08T22:00:00	3	Temperatura mínima	19.2
185788	7	Sololá	719	Santiago Atitlán	14	Cerro de Oro	11	Noviembre	2023-11-22T00:00:00	2024-11-08T22:00:00	5	Humedad	73
185789	7	Sololá	719	Santiago Atitlán	14	Cerro de Oro	11	Noviembre	2023-11-22T00:00:00	2024-11-08T22:00:00	6	Velocidad del viento	9.7
185790	7	Sololá	719	Santiago Atitlán	14	Cerro de Oro	11	Noviembre	2023-11-22T00:00:00	2024-11-08T22:00:00	7	Dirección del viento	9.66
185791	7	Sololá	719	Santiago Atitlán	14	Cerro de Oro	11	Noviembre	2023-11-22T00:00:00	2024-11-08T22:00:00	1	Precipitación	0
185792	7	Sololá	719	Santiago Atitlán	14	Cerro de Oro	11	Noviembre	2023-11-22T00:00:00	2024-11-08T22:00:00	8	Radiación solar	0
185793	7	Sololá	719	Santiago Atitlán	14	Cerro de Oro	11	Noviembre	2023-11-22T00:00:00	2024-11-08T23:00:00	2	Temperatura media	18.7
185794	7	Sololá	719	Santiago Atitlán	14	Cerro de Oro	11	Noviembre	2023-11-22T00:00:00	2024-11-08T23:00:00	4	Temperatura máxima	19.2
185795	7	Sololá	719	Santiago Atitlán	14	Cerro de Oro	11	Noviembre	2023-11-22T00:00:00	2024-11-08T23:00:00	3	Temperatura mínima	18.7
185796	7	Sololá	719	Santiago Atitlán	14	Cerro de Oro	11	Noviembre	2023-11-22T00:00:00	2024-11-08T23:00:00	5	Humedad	74
185797	7	Sololá	719	Santiago Atitlán	14	Cerro de Oro	11	Noviembre	2023-11-22T00:00:00	2024-11-08T23:00:00	6	Velocidad del viento	4.8
185798	7	Sololá	719	Santiago Atitlán	14	Cerro de Oro	11	Noviembre	2023-11-22T00:00:00	2024-11-08T23:00:00	7	Dirección del viento	4.83
185799	7	Sololá	719	Santiago Atitlán	14	Cerro de Oro	11	Noviembre	2023-11-22T00:00:00	2024-11-08T23:00:00	1	Precipitación	0
185800	7	Sololá	719	Santiago Atitlán	14	Cerro de Oro	11	Noviembre	2023-11-22T00:00:00	2024-11-08T23:00:00	8	Radiación solar	0
185801	7	Sololá	719	Santiago Atitlán	14	Cerro de Oro	11	Noviembre	2023-11-23T00:00:00	2024-11-08T00:00:00	2	Temperatura media	18.7
185802	7	Sololá	719	Santiago Atitlán	14	Cerro de Oro	11	Noviembre	2023-11-23T00:00:00	2024-11-08T00:00:00	4	Temperatura máxima	18.8
185803	7	Sololá	719	Santiago Atitlán	14	Cerro de Oro	11	Noviembre	2023-11-23T00:00:00	2024-11-08T00:00:00	3	Temperatura mínima	18.3
185804	7	Sololá	719	Santiago Atitlán	14	Cerro de Oro	11	Noviembre	2023-11-23T00:00:00	2024-11-08T00:00:00	5	Humedad	73
185805	7	Sololá	719	Santiago Atitlán	14	Cerro de Oro	11	Noviembre	2023-11-23T00:00:00	2024-11-08T00:00:00	6	Velocidad del viento	3.2
185806	7	Sololá	719	Santiago Atitlán	14	Cerro de Oro	11	Noviembre	2023-11-23T00:00:00	2024-11-08T00:00:00	7	Dirección del viento	3.22
185807	7	Sololá	719	Santiago Atitlán	14	Cerro de Oro	11	Noviembre	2023-11-23T00:00:00	2024-11-08T00:00:00	1	Precipitación	0
185808	7	Sololá	719	Santiago Atitlán	14	Cerro de Oro	11	Noviembre	2023-11-23T00:00:00	2024-11-08T00:00:00	8	Radiación solar	0
185809	7	Sololá	719	Santiago Atitlán	14	Cerro de Oro	11	Noviembre	2023-11-23T00:00:00	2024-11-08T01:00:00	2	Temperatura media	18.1
185810	7	Sololá	719	Santiago Atitlán	14	Cerro de Oro	11	Noviembre	2023-11-23T00:00:00	2024-11-08T01:00:00	4	Temperatura máxima	19
185811	7	Sololá	719	Santiago Atitlán	14	Cerro de Oro	11	Noviembre	2023-11-23T00:00:00	2024-11-08T01:00:00	3	Temperatura mínima	18.1
185812	7	Sololá	719	Santiago Atitlán	14	Cerro de Oro	11	Noviembre	2023-11-23T00:00:00	2024-11-08T01:00:00	5	Humedad	77
185813	7	Sololá	719	Santiago Atitlán	14	Cerro de Oro	11	Noviembre	2023-11-23T00:00:00	2024-11-08T01:00:00	6	Velocidad del viento	3.2
185814	7	Sololá	719	Santiago Atitlán	14	Cerro de Oro	11	Noviembre	2023-11-23T00:00:00	2024-11-08T01:00:00	7	Dirección del viento	3.22
185815	7	Sololá	719	Santiago Atitlán	14	Cerro de Oro	11	Noviembre	2023-11-23T00:00:00	2024-11-08T01:00:00	1	Precipitación	0
185816	7	Sololá	719	Santiago Atitlán	14	Cerro de Oro	11	Noviembre	2023-11-23T00:00:00	2024-11-08T01:00:00	8	Radiación solar	0
185817	7	Sololá	719	Santiago Atitlán	14	Cerro de Oro	11	Noviembre	2023-11-23T00:00:00	2024-11-08T02:00:00	2	Temperatura media	18
185818	7	Sololá	719	Santiago Atitlán	14	Cerro de Oro	11	Noviembre	2023-11-23T00:00:00	2024-11-08T02:00:00	4	Temperatura máxima	18.1
185819	7	Sololá	719	Santiago Atitlán	14	Cerro de Oro	11	Noviembre	2023-11-23T00:00:00	2024-11-08T02:00:00	3	Temperatura mínima	17.3
185820	7	Sololá	719	Santiago Atitlán	14	Cerro de Oro	11	Noviembre	2023-11-23T00:00:00	2024-11-08T02:00:00	5	Humedad	76
185821	7	Sololá	719	Santiago Atitlán	14	Cerro de Oro	11	Noviembre	2023-11-23T00:00:00	2024-11-08T02:00:00	6	Velocidad del viento	3.2
185822	7	Sololá	719	Santiago Atitlán	14	Cerro de Oro	11	Noviembre	2023-11-23T00:00:00	2024-11-08T02:00:00	7	Dirección del viento	3.22
185823	7	Sololá	719	Santiago Atitlán	14	Cerro de Oro	11	Noviembre	2023-11-23T00:00:00	2024-11-08T02:00:00	1	Precipitación	0
185824	7	Sololá	719	Santiago Atitlán	14	Cerro de Oro	11	Noviembre	2023-11-23T00:00:00	2024-11-08T02:00:00	8	Radiación solar	0
185825	7	Sololá	719	Santiago Atitlán	14	Cerro de Oro	11	Noviembre	2023-11-23T00:00:00	2024-11-08T03:00:00	2	Temperatura media	18.1
185826	7	Sololá	719	Santiago Atitlán	14	Cerro de Oro	11	Noviembre	2023-11-23T00:00:00	2024-11-08T03:00:00	4	Temperatura máxima	18.2
185827	7	Sololá	719	Santiago Atitlán	14	Cerro de Oro	11	Noviembre	2023-11-23T00:00:00	2024-11-08T03:00:00	3	Temperatura mínima	17.4
185828	7	Sololá	719	Santiago Atitlán	14	Cerro de Oro	11	Noviembre	2023-11-23T00:00:00	2024-11-08T03:00:00	5	Humedad	74
185829	7	Sololá	719	Santiago Atitlán	14	Cerro de Oro	11	Noviembre	2023-11-23T00:00:00	2024-11-08T03:00:00	6	Velocidad del viento	6.4
185830	7	Sololá	719	Santiago Atitlán	14	Cerro de Oro	11	Noviembre	2023-11-23T00:00:00	2024-11-08T03:00:00	7	Dirección del viento	6.44
185831	7	Sololá	719	Santiago Atitlán	14	Cerro de Oro	11	Noviembre	2023-11-23T00:00:00	2024-11-08T03:00:00	1	Precipitación	0
185832	7	Sololá	719	Santiago Atitlán	14	Cerro de Oro	11	Noviembre	2023-11-23T00:00:00	2024-11-08T03:00:00	8	Radiación solar	0
185833	7	Sololá	719	Santiago Atitlán	14	Cerro de Oro	11	Noviembre	2023-11-23T00:00:00	2024-11-08T04:00:00	2	Temperatura media	17.6
185834	7	Sololá	719	Santiago Atitlán	14	Cerro de Oro	11	Noviembre	2023-11-23T00:00:00	2024-11-08T04:00:00	4	Temperatura máxima	18.2
185835	7	Sololá	719	Santiago Atitlán	14	Cerro de Oro	11	Noviembre	2023-11-23T00:00:00	2024-11-08T04:00:00	3	Temperatura mínima	16.8
185836	7	Sololá	719	Santiago Atitlán	14	Cerro de Oro	11	Noviembre	2023-11-23T00:00:00	2024-11-08T04:00:00	5	Humedad	77
185837	7	Sololá	719	Santiago Atitlán	14	Cerro de Oro	11	Noviembre	2023-11-23T00:00:00	2024-11-08T04:00:00	6	Velocidad del viento	4.8
185838	7	Sololá	719	Santiago Atitlán	14	Cerro de Oro	11	Noviembre	2023-11-23T00:00:00	2024-11-08T04:00:00	7	Dirección del viento	4.83
185839	7	Sololá	719	Santiago Atitlán	14	Cerro de Oro	11	Noviembre	2023-11-23T00:00:00	2024-11-08T04:00:00	1	Precipitación	0
185840	7	Sololá	719	Santiago Atitlán	14	Cerro de Oro	11	Noviembre	2023-11-23T00:00:00	2024-11-08T04:00:00	8	Radiación solar	0
185841	7	Sololá	719	Santiago Atitlán	14	Cerro de Oro	11	Noviembre	2023-11-23T00:00:00	2024-11-08T05:00:00	2	Temperatura media	17.7
185842	7	Sololá	719	Santiago Atitlán	14	Cerro de Oro	11	Noviembre	2023-11-23T00:00:00	2024-11-08T05:00:00	4	Temperatura máxima	18.1
185843	7	Sololá	719	Santiago Atitlán	14	Cerro de Oro	11	Noviembre	2023-11-23T00:00:00	2024-11-08T05:00:00	3	Temperatura mínima	17.4
185844	7	Sololá	719	Santiago Atitlán	14	Cerro de Oro	11	Noviembre	2023-11-23T00:00:00	2024-11-08T05:00:00	5	Humedad	78
185845	7	Sololá	719	Santiago Atitlán	14	Cerro de Oro	11	Noviembre	2023-11-23T00:00:00	2024-11-08T05:00:00	6	Velocidad del viento	4.8
185846	7	Sololá	719	Santiago Atitlán	14	Cerro de Oro	11	Noviembre	2023-11-23T00:00:00	2024-11-08T05:00:00	7	Dirección del viento	4.83
185847	7	Sololá	719	Santiago Atitlán	14	Cerro de Oro	11	Noviembre	2023-11-23T00:00:00	2024-11-08T05:00:00	1	Precipitación	0
185848	7	Sololá	719	Santiago Atitlán	14	Cerro de Oro	11	Noviembre	2023-11-23T00:00:00	2024-11-08T05:00:00	8	Radiación solar	0
185849	7	Sololá	719	Santiago Atitlán	14	Cerro de Oro	11	Noviembre	2023-11-23T00:00:00	2024-11-08T06:00:00	2	Temperatura media	16.8
185850	7	Sololá	719	Santiago Atitlán	14	Cerro de Oro	11	Noviembre	2023-11-23T00:00:00	2024-11-08T06:00:00	4	Temperatura máxima	17.7
185851	7	Sololá	719	Santiago Atitlán	14	Cerro de Oro	11	Noviembre	2023-11-23T00:00:00	2024-11-08T06:00:00	3	Temperatura mínima	16.6
185852	7	Sololá	719	Santiago Atitlán	14	Cerro de Oro	11	Noviembre	2023-11-23T00:00:00	2024-11-08T06:00:00	5	Humedad	85
185853	7	Sololá	719	Santiago Atitlán	14	Cerro de Oro	11	Noviembre	2023-11-23T00:00:00	2024-11-08T06:00:00	6	Velocidad del viento	4.8
185854	7	Sololá	719	Santiago Atitlán	14	Cerro de Oro	11	Noviembre	2023-11-23T00:00:00	2024-11-08T06:00:00	7	Dirección del viento	4.83
185855	7	Sololá	719	Santiago Atitlán	14	Cerro de Oro	11	Noviembre	2023-11-23T00:00:00	2024-11-08T06:00:00	1	Precipitación	0
185856	7	Sololá	719	Santiago Atitlán	14	Cerro de Oro	11	Noviembre	2023-11-23T00:00:00	2024-11-08T06:00:00	8	Radiación solar	0
185857	7	Sololá	719	Santiago Atitlán	14	Cerro de Oro	11	Noviembre	2023-11-23T00:00:00	2024-11-08T07:00:00	2	Temperatura media	18.8
185858	7	Sololá	719	Santiago Atitlán	14	Cerro de Oro	11	Noviembre	2023-11-23T00:00:00	2024-11-08T07:00:00	4	Temperatura máxima	18.8
185859	7	Sololá	719	Santiago Atitlán	14	Cerro de Oro	11	Noviembre	2023-11-23T00:00:00	2024-11-08T07:00:00	3	Temperatura mínima	16.7
185860	7	Sololá	719	Santiago Atitlán	14	Cerro de Oro	11	Noviembre	2023-11-23T00:00:00	2024-11-08T07:00:00	5	Humedad	80
185861	7	Sololá	719	Santiago Atitlán	14	Cerro de Oro	11	Noviembre	2023-11-23T00:00:00	2024-11-08T07:00:00	6	Velocidad del viento	3.2
185862	7	Sololá	719	Santiago Atitlán	14	Cerro de Oro	11	Noviembre	2023-11-23T00:00:00	2024-11-08T07:00:00	7	Dirección del viento	3.22
185863	7	Sololá	719	Santiago Atitlán	14	Cerro de Oro	11	Noviembre	2023-11-23T00:00:00	2024-11-08T07:00:00	1	Precipitación	0
185864	7	Sololá	719	Santiago Atitlán	14	Cerro de Oro	11	Noviembre	2023-11-23T00:00:00	2024-11-08T07:00:00	8	Radiación solar	31
185865	7	Sololá	719	Santiago Atitlán	14	Cerro de Oro	11	Noviembre	2023-11-23T00:00:00	2024-11-08T08:00:00	2	Temperatura media	21
185866	7	Sololá	719	Santiago Atitlán	14	Cerro de Oro	11	Noviembre	2023-11-23T00:00:00	2024-11-08T08:00:00	4	Temperatura máxima	21.1
185867	7	Sololá	719	Santiago Atitlán	14	Cerro de Oro	11	Noviembre	2023-11-23T00:00:00	2024-11-08T08:00:00	3	Temperatura mínima	18.8
185868	7	Sololá	719	Santiago Atitlán	14	Cerro de Oro	11	Noviembre	2023-11-23T00:00:00	2024-11-08T08:00:00	5	Humedad	74
185869	7	Sololá	719	Santiago Atitlán	14	Cerro de Oro	11	Noviembre	2023-11-23T00:00:00	2024-11-08T08:00:00	6	Velocidad del viento	1.6
185870	7	Sololá	719	Santiago Atitlán	14	Cerro de Oro	11	Noviembre	2023-11-23T00:00:00	2024-11-08T08:00:00	7	Dirección del viento	1.61
185871	7	Sololá	719	Santiago Atitlán	14	Cerro de Oro	11	Noviembre	2023-11-23T00:00:00	2024-11-08T08:00:00	1	Precipitación	0
185872	7	Sololá	719	Santiago Atitlán	14	Cerro de Oro	11	Noviembre	2023-11-23T00:00:00	2024-11-08T08:00:00	8	Radiación solar	224
185873	7	Sololá	719	Santiago Atitlán	14	Cerro de Oro	11	Noviembre	2023-11-23T00:00:00	2024-11-08T09:00:00	2	Temperatura media	21.7
185874	7	Sololá	719	Santiago Atitlán	14	Cerro de Oro	11	Noviembre	2023-11-23T00:00:00	2024-11-08T09:00:00	4	Temperatura máxima	21.9
185875	7	Sololá	719	Santiago Atitlán	14	Cerro de Oro	11	Noviembre	2023-11-23T00:00:00	2024-11-08T09:00:00	3	Temperatura mínima	20.8
185876	7	Sololá	719	Santiago Atitlán	14	Cerro de Oro	11	Noviembre	2023-11-23T00:00:00	2024-11-08T09:00:00	5	Humedad	68
185877	7	Sololá	719	Santiago Atitlán	14	Cerro de Oro	11	Noviembre	2023-11-23T00:00:00	2024-11-08T09:00:00	6	Velocidad del viento	3.2
185878	7	Sololá	719	Santiago Atitlán	14	Cerro de Oro	11	Noviembre	2023-11-23T00:00:00	2024-11-08T09:00:00	7	Dirección del viento	3.22
185879	7	Sololá	719	Santiago Atitlán	14	Cerro de Oro	11	Noviembre	2023-11-23T00:00:00	2024-11-08T09:00:00	1	Precipitación	0
185880	7	Sololá	719	Santiago Atitlán	14	Cerro de Oro	11	Noviembre	2023-11-23T00:00:00	2024-11-08T09:00:00	8	Radiación solar	432
185881	7	Sololá	719	Santiago Atitlán	14	Cerro de Oro	11	Noviembre	2023-11-23T00:00:00	2024-11-08T10:00:00	2	Temperatura media	23.1
185882	7	Sololá	719	Santiago Atitlán	14	Cerro de Oro	11	Noviembre	2023-11-23T00:00:00	2024-11-08T10:00:00	4	Temperatura máxima	23.1
185883	7	Sololá	719	Santiago Atitlán	14	Cerro de Oro	11	Noviembre	2023-11-23T00:00:00	2024-11-08T10:00:00	3	Temperatura mínima	21.7
185884	7	Sololá	719	Santiago Atitlán	14	Cerro de Oro	11	Noviembre	2023-11-23T00:00:00	2024-11-08T10:00:00	5	Humedad	64
185885	7	Sololá	719	Santiago Atitlán	14	Cerro de Oro	11	Noviembre	2023-11-23T00:00:00	2024-11-08T10:00:00	6	Velocidad del viento	4.8
185886	7	Sololá	719	Santiago Atitlán	14	Cerro de Oro	11	Noviembre	2023-11-23T00:00:00	2024-11-08T10:00:00	7	Dirección del viento	4.83
185887	7	Sololá	719	Santiago Atitlán	14	Cerro de Oro	11	Noviembre	2023-11-23T00:00:00	2024-11-08T10:00:00	1	Precipitación	0
185888	7	Sololá	719	Santiago Atitlán	14	Cerro de Oro	11	Noviembre	2023-11-23T00:00:00	2024-11-08T10:00:00	8	Radiación solar	603
185889	7	Sololá	719	Santiago Atitlán	14	Cerro de Oro	11	Noviembre	2023-11-23T00:00:00	2024-11-08T11:00:00	2	Temperatura media	24
185890	7	Sololá	719	Santiago Atitlán	14	Cerro de Oro	11	Noviembre	2023-11-23T00:00:00	2024-11-08T11:00:00	4	Temperatura máxima	24.1
185891	7	Sololá	719	Santiago Atitlán	14	Cerro de Oro	11	Noviembre	2023-11-23T00:00:00	2024-11-08T11:00:00	3	Temperatura mínima	23
185892	7	Sololá	719	Santiago Atitlán	14	Cerro de Oro	11	Noviembre	2023-11-23T00:00:00	2024-11-08T11:00:00	5	Humedad	63
185893	7	Sololá	719	Santiago Atitlán	14	Cerro de Oro	11	Noviembre	2023-11-23T00:00:00	2024-11-08T11:00:00	6	Velocidad del viento	6.4
185894	7	Sololá	719	Santiago Atitlán	14	Cerro de Oro	11	Noviembre	2023-11-23T00:00:00	2024-11-08T11:00:00	7	Dirección del viento	6.44
185895	7	Sololá	719	Santiago Atitlán	14	Cerro de Oro	11	Noviembre	2023-11-23T00:00:00	2024-11-08T11:00:00	1	Precipitación	0
185896	7	Sololá	719	Santiago Atitlán	14	Cerro de Oro	11	Noviembre	2023-11-23T00:00:00	2024-11-08T11:00:00	8	Radiación solar	723
185897	7	Sololá	719	Santiago Atitlán	14	Cerro de Oro	11	Noviembre	2023-11-23T00:00:00	2024-11-08T12:00:00	2	Temperatura media	23.7
185898	7	Sololá	719	Santiago Atitlán	14	Cerro de Oro	11	Noviembre	2023-11-23T00:00:00	2024-11-08T12:00:00	4	Temperatura máxima	24.2
185899	7	Sololá	719	Santiago Atitlán	14	Cerro de Oro	11	Noviembre	2023-11-23T00:00:00	2024-11-08T12:00:00	3	Temperatura mínima	23.6
185900	7	Sololá	719	Santiago Atitlán	14	Cerro de Oro	11	Noviembre	2023-11-23T00:00:00	2024-11-08T12:00:00	5	Humedad	69
185901	7	Sololá	719	Santiago Atitlán	14	Cerro de Oro	11	Noviembre	2023-11-23T00:00:00	2024-11-08T12:00:00	6	Velocidad del viento	8
185902	7	Sololá	719	Santiago Atitlán	14	Cerro de Oro	11	Noviembre	2023-11-23T00:00:00	2024-11-08T12:00:00	7	Dirección del viento	8.05
185903	7	Sololá	719	Santiago Atitlán	14	Cerro de Oro	11	Noviembre	2023-11-23T00:00:00	2024-11-08T12:00:00	1	Precipitación	0
185904	7	Sololá	719	Santiago Atitlán	14	Cerro de Oro	11	Noviembre	2023-11-23T00:00:00	2024-11-08T12:00:00	8	Radiación solar	787
185905	7	Sololá	719	Santiago Atitlán	14	Cerro de Oro	11	Noviembre	2023-11-23T00:00:00	2024-11-08T13:00:00	2	Temperatura media	23.4
185906	7	Sololá	719	Santiago Atitlán	14	Cerro de Oro	11	Noviembre	2023-11-23T00:00:00	2024-11-08T13:00:00	4	Temperatura máxima	24.3
185907	7	Sololá	719	Santiago Atitlán	14	Cerro de Oro	11	Noviembre	2023-11-23T00:00:00	2024-11-08T13:00:00	3	Temperatura mínima	23.4
185908	7	Sololá	719	Santiago Atitlán	14	Cerro de Oro	11	Noviembre	2023-11-23T00:00:00	2024-11-08T13:00:00	5	Humedad	72
185909	7	Sololá	719	Santiago Atitlán	14	Cerro de Oro	11	Noviembre	2023-11-23T00:00:00	2024-11-08T13:00:00	6	Velocidad del viento	9.7
185910	7	Sololá	719	Santiago Atitlán	14	Cerro de Oro	11	Noviembre	2023-11-23T00:00:00	2024-11-08T13:00:00	7	Dirección del viento	9.66
185911	7	Sololá	719	Santiago Atitlán	14	Cerro de Oro	11	Noviembre	2023-11-23T00:00:00	2024-11-08T13:00:00	1	Precipitación	0
185912	7	Sololá	719	Santiago Atitlán	14	Cerro de Oro	11	Noviembre	2023-11-23T00:00:00	2024-11-08T13:00:00	8	Radiación solar	775
185913	7	Sololá	719	Santiago Atitlán	14	Cerro de Oro	11	Noviembre	2023-11-23T00:00:00	2024-11-08T14:00:00	2	Temperatura media	22.9
185914	7	Sololá	719	Santiago Atitlán	14	Cerro de Oro	11	Noviembre	2023-11-23T00:00:00	2024-11-08T14:00:00	4	Temperatura máxima	23.7
185915	7	Sololá	719	Santiago Atitlán	14	Cerro de Oro	11	Noviembre	2023-11-23T00:00:00	2024-11-08T14:00:00	3	Temperatura mínima	22.7
185916	7	Sololá	719	Santiago Atitlán	14	Cerro de Oro	11	Noviembre	2023-11-23T00:00:00	2024-11-08T14:00:00	5	Humedad	73
185917	7	Sololá	719	Santiago Atitlán	14	Cerro de Oro	11	Noviembre	2023-11-23T00:00:00	2024-11-08T14:00:00	6	Velocidad del viento	11.3
185918	7	Sololá	719	Santiago Atitlán	14	Cerro de Oro	11	Noviembre	2023-11-23T00:00:00	2024-11-08T14:00:00	7	Dirección del viento	11.27
185919	7	Sololá	719	Santiago Atitlán	14	Cerro de Oro	11	Noviembre	2023-11-23T00:00:00	2024-11-08T14:00:00	1	Precipitación	0
185920	7	Sololá	719	Santiago Atitlán	14	Cerro de Oro	11	Noviembre	2023-11-23T00:00:00	2024-11-08T14:00:00	8	Radiación solar	675
185921	7	Sololá	719	Santiago Atitlán	14	Cerro de Oro	11	Noviembre	2023-11-23T00:00:00	2024-11-08T15:00:00	2	Temperatura media	22.8
185922	7	Sololá	719	Santiago Atitlán	14	Cerro de Oro	11	Noviembre	2023-11-23T00:00:00	2024-11-08T15:00:00	4	Temperatura máxima	23.2
185923	7	Sololá	719	Santiago Atitlán	14	Cerro de Oro	11	Noviembre	2023-11-23T00:00:00	2024-11-08T15:00:00	3	Temperatura mínima	22.8
185924	7	Sololá	719	Santiago Atitlán	14	Cerro de Oro	11	Noviembre	2023-11-23T00:00:00	2024-11-08T15:00:00	5	Humedad	75
185925	7	Sololá	719	Santiago Atitlán	14	Cerro de Oro	11	Noviembre	2023-11-23T00:00:00	2024-11-08T15:00:00	6	Velocidad del viento	9.7
185926	7	Sololá	719	Santiago Atitlán	14	Cerro de Oro	11	Noviembre	2023-11-23T00:00:00	2024-11-08T15:00:00	7	Dirección del viento	9.66
185927	7	Sololá	719	Santiago Atitlán	14	Cerro de Oro	11	Noviembre	2023-11-23T00:00:00	2024-11-08T15:00:00	1	Precipitación	0
185928	7	Sololá	719	Santiago Atitlán	14	Cerro de Oro	11	Noviembre	2023-11-23T00:00:00	2024-11-08T15:00:00	8	Radiación solar	548
185929	7	Sololá	719	Santiago Atitlán	14	Cerro de Oro	11	Noviembre	2023-11-23T00:00:00	2024-11-08T16:00:00	2	Temperatura media	21.8
185930	7	Sololá	719	Santiago Atitlán	14	Cerro de Oro	11	Noviembre	2023-11-23T00:00:00	2024-11-08T16:00:00	4	Temperatura máxima	23.1
185931	7	Sololá	719	Santiago Atitlán	14	Cerro de Oro	11	Noviembre	2023-11-23T00:00:00	2024-11-08T16:00:00	3	Temperatura mínima	21.8
185932	7	Sololá	719	Santiago Atitlán	14	Cerro de Oro	11	Noviembre	2023-11-23T00:00:00	2024-11-08T16:00:00	5	Humedad	79
185933	7	Sololá	719	Santiago Atitlán	14	Cerro de Oro	11	Noviembre	2023-11-23T00:00:00	2024-11-08T16:00:00	6	Velocidad del viento	9.7
185934	7	Sololá	719	Santiago Atitlán	14	Cerro de Oro	11	Noviembre	2023-11-23T00:00:00	2024-11-08T16:00:00	7	Dirección del viento	9.66
185935	7	Sololá	719	Santiago Atitlán	14	Cerro de Oro	11	Noviembre	2023-11-23T00:00:00	2024-11-08T16:00:00	1	Precipitación	0
185936	7	Sololá	719	Santiago Atitlán	14	Cerro de Oro	11	Noviembre	2023-11-23T00:00:00	2024-11-08T16:00:00	8	Radiación solar	406
185937	7	Sololá	719	Santiago Atitlán	14	Cerro de Oro	11	Noviembre	2023-11-23T00:00:00	2024-11-08T17:00:00	2	Temperatura media	20.4
185938	7	Sololá	719	Santiago Atitlán	14	Cerro de Oro	11	Noviembre	2023-11-23T00:00:00	2024-11-08T17:00:00	4	Temperatura máxima	21.8
185939	7	Sololá	719	Santiago Atitlán	14	Cerro de Oro	11	Noviembre	2023-11-23T00:00:00	2024-11-08T17:00:00	3	Temperatura mínima	20.4
185940	7	Sololá	719	Santiago Atitlán	14	Cerro de Oro	11	Noviembre	2023-11-23T00:00:00	2024-11-08T17:00:00	5	Humedad	84
185941	7	Sololá	719	Santiago Atitlán	14	Cerro de Oro	11	Noviembre	2023-11-23T00:00:00	2024-11-08T17:00:00	6	Velocidad del viento	6.4
185942	7	Sololá	719	Santiago Atitlán	14	Cerro de Oro	11	Noviembre	2023-11-23T00:00:00	2024-11-08T17:00:00	7	Dirección del viento	6.44
185943	7	Sololá	719	Santiago Atitlán	14	Cerro de Oro	11	Noviembre	2023-11-23T00:00:00	2024-11-08T17:00:00	1	Precipitación	0
185944	7	Sololá	719	Santiago Atitlán	14	Cerro de Oro	11	Noviembre	2023-11-23T00:00:00	2024-11-08T17:00:00	8	Radiación solar	117
185945	7	Sololá	719	Santiago Atitlán	14	Cerro de Oro	11	Noviembre	2023-11-23T00:00:00	2024-11-08T18:00:00	2	Temperatura media	19.1
185946	7	Sololá	719	Santiago Atitlán	14	Cerro de Oro	11	Noviembre	2023-11-23T00:00:00	2024-11-08T18:00:00	4	Temperatura máxima	20.4
185947	7	Sololá	719	Santiago Atitlán	14	Cerro de Oro	11	Noviembre	2023-11-23T00:00:00	2024-11-08T18:00:00	3	Temperatura mínima	19.1
185948	7	Sololá	719	Santiago Atitlán	14	Cerro de Oro	11	Noviembre	2023-11-23T00:00:00	2024-11-08T18:00:00	5	Humedad	86
185949	7	Sololá	719	Santiago Atitlán	14	Cerro de Oro	11	Noviembre	2023-11-23T00:00:00	2024-11-08T18:00:00	6	Velocidad del viento	9.7
185950	7	Sololá	719	Santiago Atitlán	14	Cerro de Oro	11	Noviembre	2023-11-23T00:00:00	2024-11-08T18:00:00	7	Dirección del viento	9.66
185951	7	Sololá	719	Santiago Atitlán	14	Cerro de Oro	11	Noviembre	2023-11-23T00:00:00	2024-11-08T18:00:00	1	Precipitación	0
185952	7	Sololá	719	Santiago Atitlán	14	Cerro de Oro	11	Noviembre	2023-11-23T00:00:00	2024-11-08T18:00:00	8	Radiación solar	9
185953	7	Sololá	719	Santiago Atitlán	14	Cerro de Oro	11	Noviembre	2023-11-23T00:00:00	2024-11-08T19:00:00	2	Temperatura media	18.6
185954	7	Sololá	719	Santiago Atitlán	14	Cerro de Oro	11	Noviembre	2023-11-23T00:00:00	2024-11-08T19:00:00	4	Temperatura máxima	19.3
185955	7	Sololá	719	Santiago Atitlán	14	Cerro de Oro	11	Noviembre	2023-11-23T00:00:00	2024-11-08T19:00:00	3	Temperatura mínima	18.5
185956	7	Sololá	719	Santiago Atitlán	14	Cerro de Oro	11	Noviembre	2023-11-23T00:00:00	2024-11-08T19:00:00	5	Humedad	87
185957	7	Sololá	719	Santiago Atitlán	14	Cerro de Oro	11	Noviembre	2023-11-23T00:00:00	2024-11-08T19:00:00	6	Velocidad del viento	4.8
185958	7	Sololá	719	Santiago Atitlán	14	Cerro de Oro	11	Noviembre	2023-11-23T00:00:00	2024-11-08T19:00:00	7	Dirección del viento	4.83
185959	7	Sololá	719	Santiago Atitlán	14	Cerro de Oro	11	Noviembre	2023-11-23T00:00:00	2024-11-08T19:00:00	1	Precipitación	0
185960	7	Sololá	719	Santiago Atitlán	14	Cerro de Oro	11	Noviembre	2023-11-23T00:00:00	2024-11-08T19:00:00	8	Radiación solar	0
185961	7	Sololá	719	Santiago Atitlán	14	Cerro de Oro	11	Noviembre	2023-11-23T00:00:00	2024-11-08T20:00:00	2	Temperatura media	18.7
185962	7	Sololá	719	Santiago Atitlán	14	Cerro de Oro	11	Noviembre	2023-11-23T00:00:00	2024-11-08T20:00:00	4	Temperatura máxima	19.3
185963	7	Sololá	719	Santiago Atitlán	14	Cerro de Oro	11	Noviembre	2023-11-23T00:00:00	2024-11-08T20:00:00	3	Temperatura mínima	18.5
185964	7	Sololá	719	Santiago Atitlán	14	Cerro de Oro	11	Noviembre	2023-11-23T00:00:00	2024-11-08T20:00:00	5	Humedad	80
185965	7	Sololá	719	Santiago Atitlán	14	Cerro de Oro	11	Noviembre	2023-11-23T00:00:00	2024-11-08T20:00:00	6	Velocidad del viento	4.8
185966	7	Sololá	719	Santiago Atitlán	14	Cerro de Oro	11	Noviembre	2023-11-23T00:00:00	2024-11-08T20:00:00	7	Dirección del viento	4.83
185967	7	Sololá	719	Santiago Atitlán	14	Cerro de Oro	11	Noviembre	2023-11-23T00:00:00	2024-11-08T20:00:00	1	Precipitación	0
185968	7	Sololá	719	Santiago Atitlán	14	Cerro de Oro	11	Noviembre	2023-11-23T00:00:00	2024-11-08T20:00:00	8	Radiación solar	0
185969	7	Sololá	719	Santiago Atitlán	14	Cerro de Oro	11	Noviembre	2023-11-23T00:00:00	2024-11-08T21:00:00	2	Temperatura media	19.2
185970	7	Sololá	719	Santiago Atitlán	14	Cerro de Oro	11	Noviembre	2023-11-23T00:00:00	2024-11-08T21:00:00	4	Temperatura máxima	19.2
185971	7	Sololá	719	Santiago Atitlán	14	Cerro de Oro	11	Noviembre	2023-11-23T00:00:00	2024-11-08T21:00:00	3	Temperatura mínima	18.7
185972	7	Sololá	719	Santiago Atitlán	14	Cerro de Oro	11	Noviembre	2023-11-23T00:00:00	2024-11-08T21:00:00	5	Humedad	79
185973	7	Sololá	719	Santiago Atitlán	14	Cerro de Oro	11	Noviembre	2023-11-23T00:00:00	2024-11-08T21:00:00	6	Velocidad del viento	4.8
185974	7	Sololá	719	Santiago Atitlán	14	Cerro de Oro	11	Noviembre	2023-11-23T00:00:00	2024-11-08T21:00:00	7	Dirección del viento	4.83
185975	7	Sololá	719	Santiago Atitlán	14	Cerro de Oro	11	Noviembre	2023-11-23T00:00:00	2024-11-08T21:00:00	1	Precipitación	0
185976	7	Sololá	719	Santiago Atitlán	14	Cerro de Oro	11	Noviembre	2023-11-23T00:00:00	2024-11-08T21:00:00	8	Radiación solar	0
185977	7	Sololá	719	Santiago Atitlán	14	Cerro de Oro	11	Noviembre	2023-11-23T00:00:00	2024-11-08T22:00:00	2	Temperatura media	18.6
185978	7	Sololá	719	Santiago Atitlán	14	Cerro de Oro	11	Noviembre	2023-11-23T00:00:00	2024-11-08T22:00:00	4	Temperatura máxima	19.1
185979	7	Sololá	719	Santiago Atitlán	14	Cerro de Oro	11	Noviembre	2023-11-23T00:00:00	2024-11-08T22:00:00	3	Temperatura mínima	18.3
185980	7	Sololá	719	Santiago Atitlán	14	Cerro de Oro	11	Noviembre	2023-11-23T00:00:00	2024-11-08T22:00:00	5	Humedad	78
185981	7	Sololá	719	Santiago Atitlán	14	Cerro de Oro	11	Noviembre	2023-11-23T00:00:00	2024-11-08T22:00:00	6	Velocidad del viento	3.2
185982	7	Sololá	719	Santiago Atitlán	14	Cerro de Oro	11	Noviembre	2023-11-23T00:00:00	2024-11-08T22:00:00	7	Dirección del viento	3.22
185983	7	Sololá	719	Santiago Atitlán	14	Cerro de Oro	11	Noviembre	2023-11-23T00:00:00	2024-11-08T22:00:00	1	Precipitación	0
185984	7	Sololá	719	Santiago Atitlán	14	Cerro de Oro	11	Noviembre	2023-11-23T00:00:00	2024-11-08T22:00:00	8	Radiación solar	0
185985	7	Sololá	719	Santiago Atitlán	14	Cerro de Oro	11	Noviembre	2023-11-23T00:00:00	2024-11-08T23:00:00	2	Temperatura media	18
185986	7	Sololá	719	Santiago Atitlán	14	Cerro de Oro	11	Noviembre	2023-11-23T00:00:00	2024-11-08T23:00:00	4	Temperatura máxima	18.6
185987	7	Sololá	719	Santiago Atitlán	14	Cerro de Oro	11	Noviembre	2023-11-23T00:00:00	2024-11-08T23:00:00	3	Temperatura mínima	17.7
185988	7	Sololá	719	Santiago Atitlán	14	Cerro de Oro	11	Noviembre	2023-11-23T00:00:00	2024-11-08T23:00:00	5	Humedad	79
185989	7	Sololá	719	Santiago Atitlán	14	Cerro de Oro	11	Noviembre	2023-11-23T00:00:00	2024-11-08T23:00:00	6	Velocidad del viento	4.8
185990	7	Sololá	719	Santiago Atitlán	14	Cerro de Oro	11	Noviembre	2023-11-23T00:00:00	2024-11-08T23:00:00	7	Dirección del viento	4.83
185991	7	Sololá	719	Santiago Atitlán	14	Cerro de Oro	11	Noviembre	2023-11-23T00:00:00	2024-11-08T23:00:00	1	Precipitación	0
185992	7	Sololá	719	Santiago Atitlán	14	Cerro de Oro	11	Noviembre	2023-11-23T00:00:00	2024-11-08T23:00:00	8	Radiación solar	0
185993	7	Sololá	719	Santiago Atitlán	14	Cerro de Oro	11	Noviembre	2023-11-24T00:00:00	2024-11-08T00:00:00	2	Temperatura media	17.6
185994	7	Sololá	719	Santiago Atitlán	14	Cerro de Oro	11	Noviembre	2023-11-24T00:00:00	2024-11-08T00:00:00	4	Temperatura máxima	18
185995	7	Sololá	719	Santiago Atitlán	14	Cerro de Oro	11	Noviembre	2023-11-24T00:00:00	2024-11-08T00:00:00	3	Temperatura mínima	17.6
185996	7	Sololá	719	Santiago Atitlán	14	Cerro de Oro	11	Noviembre	2023-11-24T00:00:00	2024-11-08T00:00:00	5	Humedad	83
185997	7	Sololá	719	Santiago Atitlán	14	Cerro de Oro	11	Noviembre	2023-11-24T00:00:00	2024-11-08T00:00:00	6	Velocidad del viento	4.8
185998	7	Sololá	719	Santiago Atitlán	14	Cerro de Oro	11	Noviembre	2023-11-24T00:00:00	2024-11-08T00:00:00	7	Dirección del viento	4.83
185999	7	Sololá	719	Santiago Atitlán	14	Cerro de Oro	11	Noviembre	2023-11-24T00:00:00	2024-11-08T00:00:00	1	Precipitación	0
186000	7	Sololá	719	Santiago Atitlán	14	Cerro de Oro	11	Noviembre	2023-11-24T00:00:00	2024-11-08T00:00:00	8	Radiación solar	0
186001	7	Sololá	719	Santiago Atitlán	14	Cerro de Oro	11	Noviembre	2023-11-24T00:00:00	2024-11-08T01:00:00	2	Temperatura media	16.9
186002	7	Sololá	719	Santiago Atitlán	14	Cerro de Oro	11	Noviembre	2023-11-24T00:00:00	2024-11-08T01:00:00	4	Temperatura máxima	17.7
186003	7	Sololá	719	Santiago Atitlán	14	Cerro de Oro	11	Noviembre	2023-11-24T00:00:00	2024-11-08T01:00:00	3	Temperatura mínima	16.8
186004	7	Sololá	719	Santiago Atitlán	14	Cerro de Oro	11	Noviembre	2023-11-24T00:00:00	2024-11-08T01:00:00	5	Humedad	86
186005	7	Sololá	719	Santiago Atitlán	14	Cerro de Oro	11	Noviembre	2023-11-24T00:00:00	2024-11-08T01:00:00	6	Velocidad del viento	3.2
186006	7	Sololá	719	Santiago Atitlán	14	Cerro de Oro	11	Noviembre	2023-11-24T00:00:00	2024-11-08T01:00:00	7	Dirección del viento	3.22
186007	7	Sololá	719	Santiago Atitlán	14	Cerro de Oro	11	Noviembre	2023-11-24T00:00:00	2024-11-08T01:00:00	1	Precipitación	0
186008	7	Sololá	719	Santiago Atitlán	14	Cerro de Oro	11	Noviembre	2023-11-24T00:00:00	2024-11-08T01:00:00	8	Radiación solar	0
186009	7	Sololá	719	Santiago Atitlán	14	Cerro de Oro	11	Noviembre	2023-11-24T00:00:00	2024-11-08T02:00:00	2	Temperatura media	16.8
186010	7	Sololá	719	Santiago Atitlán	14	Cerro de Oro	11	Noviembre	2023-11-24T00:00:00	2024-11-08T02:00:00	4	Temperatura máxima	17.1
186011	7	Sololá	719	Santiago Atitlán	14	Cerro de Oro	11	Noviembre	2023-11-24T00:00:00	2024-11-08T02:00:00	3	Temperatura mínima	16.7
186012	7	Sololá	719	Santiago Atitlán	14	Cerro de Oro	11	Noviembre	2023-11-24T00:00:00	2024-11-08T02:00:00	5	Humedad	86
186013	7	Sololá	719	Santiago Atitlán	14	Cerro de Oro	11	Noviembre	2023-11-24T00:00:00	2024-11-08T02:00:00	6	Velocidad del viento	3.2
186014	7	Sololá	719	Santiago Atitlán	14	Cerro de Oro	11	Noviembre	2023-11-24T00:00:00	2024-11-08T02:00:00	7	Dirección del viento	3.22
186015	7	Sololá	719	Santiago Atitlán	14	Cerro de Oro	11	Noviembre	2023-11-24T00:00:00	2024-11-08T02:00:00	1	Precipitación	0
186016	7	Sololá	719	Santiago Atitlán	14	Cerro de Oro	11	Noviembre	2023-11-24T00:00:00	2024-11-08T02:00:00	8	Radiación solar	0
186017	7	Sololá	719	Santiago Atitlán	14	Cerro de Oro	11	Noviembre	2023-11-24T00:00:00	2024-11-08T03:00:00	2	Temperatura media	16.7
186018	7	Sololá	719	Santiago Atitlán	14	Cerro de Oro	11	Noviembre	2023-11-24T00:00:00	2024-11-08T03:00:00	4	Temperatura máxima	17.3
186019	7	Sololá	719	Santiago Atitlán	14	Cerro de Oro	11	Noviembre	2023-11-24T00:00:00	2024-11-08T03:00:00	3	Temperatura mínima	16.7
186020	7	Sololá	719	Santiago Atitlán	14	Cerro de Oro	11	Noviembre	2023-11-24T00:00:00	2024-11-08T03:00:00	5	Humedad	86
186021	7	Sololá	719	Santiago Atitlán	14	Cerro de Oro	11	Noviembre	2023-11-24T00:00:00	2024-11-08T03:00:00	6	Velocidad del viento	4.8
186022	7	Sololá	719	Santiago Atitlán	14	Cerro de Oro	11	Noviembre	2023-11-24T00:00:00	2024-11-08T03:00:00	7	Dirección del viento	4.83
186023	7	Sololá	719	Santiago Atitlán	14	Cerro de Oro	11	Noviembre	2023-11-24T00:00:00	2024-11-08T03:00:00	1	Precipitación	0
186024	7	Sololá	719	Santiago Atitlán	14	Cerro de Oro	11	Noviembre	2023-11-24T00:00:00	2024-11-08T03:00:00	8	Radiación solar	0
186025	7	Sololá	719	Santiago Atitlán	14	Cerro de Oro	11	Noviembre	2023-11-24T00:00:00	2024-11-08T04:00:00	2	Temperatura media	16.4
186026	7	Sololá	719	Santiago Atitlán	14	Cerro de Oro	11	Noviembre	2023-11-24T00:00:00	2024-11-08T04:00:00	4	Temperatura máxima	16.8
186027	7	Sololá	719	Santiago Atitlán	14	Cerro de Oro	11	Noviembre	2023-11-24T00:00:00	2024-11-08T04:00:00	3	Temperatura mínima	16.4
186028	7	Sololá	719	Santiago Atitlán	14	Cerro de Oro	11	Noviembre	2023-11-24T00:00:00	2024-11-08T04:00:00	5	Humedad	87
186029	7	Sololá	719	Santiago Atitlán	14	Cerro de Oro	11	Noviembre	2023-11-24T00:00:00	2024-11-08T04:00:00	6	Velocidad del viento	4.8
186030	7	Sololá	719	Santiago Atitlán	14	Cerro de Oro	11	Noviembre	2023-11-24T00:00:00	2024-11-08T04:00:00	7	Dirección del viento	4.83
186031	7	Sololá	719	Santiago Atitlán	14	Cerro de Oro	11	Noviembre	2023-11-24T00:00:00	2024-11-08T04:00:00	1	Precipitación	0
186032	7	Sololá	719	Santiago Atitlán	14	Cerro de Oro	11	Noviembre	2023-11-24T00:00:00	2024-11-08T04:00:00	8	Radiación solar	0
186033	7	Sololá	719	Santiago Atitlán	14	Cerro de Oro	11	Noviembre	2023-11-24T00:00:00	2024-11-08T05:00:00	2	Temperatura media	16.2
186034	7	Sololá	719	Santiago Atitlán	14	Cerro de Oro	11	Noviembre	2023-11-24T00:00:00	2024-11-08T05:00:00	4	Temperatura máxima	16.4
186035	7	Sololá	719	Santiago Atitlán	14	Cerro de Oro	11	Noviembre	2023-11-24T00:00:00	2024-11-08T05:00:00	3	Temperatura mínima	15.9
186036	7	Sololá	719	Santiago Atitlán	14	Cerro de Oro	11	Noviembre	2023-11-24T00:00:00	2024-11-08T05:00:00	5	Humedad	88
186037	7	Sololá	719	Santiago Atitlán	14	Cerro de Oro	11	Noviembre	2023-11-24T00:00:00	2024-11-08T05:00:00	6	Velocidad del viento	3.2
186038	7	Sololá	719	Santiago Atitlán	14	Cerro de Oro	11	Noviembre	2023-11-24T00:00:00	2024-11-08T05:00:00	7	Dirección del viento	3.22
186039	7	Sololá	719	Santiago Atitlán	14	Cerro de Oro	11	Noviembre	2023-11-24T00:00:00	2024-11-08T05:00:00	1	Precipitación	0
186040	7	Sololá	719	Santiago Atitlán	14	Cerro de Oro	11	Noviembre	2023-11-24T00:00:00	2024-11-08T05:00:00	8	Radiación solar	0
186041	7	Sololá	719	Santiago Atitlán	14	Cerro de Oro	11	Noviembre	2023-11-24T00:00:00	2024-11-08T06:00:00	2	Temperatura media	16.5
186042	7	Sololá	719	Santiago Atitlán	14	Cerro de Oro	11	Noviembre	2023-11-24T00:00:00	2024-11-08T06:00:00	4	Temperatura máxima	16.5
186043	7	Sololá	719	Santiago Atitlán	14	Cerro de Oro	11	Noviembre	2023-11-24T00:00:00	2024-11-08T06:00:00	3	Temperatura mínima	16.2
186044	7	Sololá	719	Santiago Atitlán	14	Cerro de Oro	11	Noviembre	2023-11-24T00:00:00	2024-11-08T06:00:00	5	Humedad	83
186045	7	Sololá	719	Santiago Atitlán	14	Cerro de Oro	11	Noviembre	2023-11-24T00:00:00	2024-11-08T06:00:00	6	Velocidad del viento	3.2
186046	7	Sololá	719	Santiago Atitlán	14	Cerro de Oro	11	Noviembre	2023-11-24T00:00:00	2024-11-08T06:00:00	7	Dirección del viento	3.22
186047	7	Sololá	719	Santiago Atitlán	14	Cerro de Oro	11	Noviembre	2023-11-24T00:00:00	2024-11-08T06:00:00	1	Precipitación	0
186048	7	Sololá	719	Santiago Atitlán	14	Cerro de Oro	11	Noviembre	2023-11-24T00:00:00	2024-11-08T06:00:00	8	Radiación solar	0
186049	7	Sololá	719	Santiago Atitlán	14	Cerro de Oro	11	Noviembre	2023-11-24T00:00:00	2024-11-08T07:00:00	2	Temperatura media	17.4
186050	7	Sololá	719	Santiago Atitlán	14	Cerro de Oro	11	Noviembre	2023-11-24T00:00:00	2024-11-08T07:00:00	4	Temperatura máxima	17.4
186051	7	Sololá	719	Santiago Atitlán	14	Cerro de Oro	11	Noviembre	2023-11-24T00:00:00	2024-11-08T07:00:00	3	Temperatura mínima	16.3
186052	7	Sololá	719	Santiago Atitlán	14	Cerro de Oro	11	Noviembre	2023-11-24T00:00:00	2024-11-08T07:00:00	5	Humedad	81
186053	7	Sololá	719	Santiago Atitlán	14	Cerro de Oro	11	Noviembre	2023-11-24T00:00:00	2024-11-08T07:00:00	6	Velocidad del viento	3.2
186054	7	Sololá	719	Santiago Atitlán	14	Cerro de Oro	11	Noviembre	2023-11-24T00:00:00	2024-11-08T07:00:00	7	Dirección del viento	3.22
186055	7	Sololá	719	Santiago Atitlán	14	Cerro de Oro	11	Noviembre	2023-11-24T00:00:00	2024-11-08T07:00:00	1	Precipitación	0
186056	7	Sololá	719	Santiago Atitlán	14	Cerro de Oro	11	Noviembre	2023-11-24T00:00:00	2024-11-08T07:00:00	8	Radiación solar	29
186057	7	Sololá	719	Santiago Atitlán	14	Cerro de Oro	11	Noviembre	2023-11-24T00:00:00	2024-11-08T08:00:00	2	Temperatura media	19.6
186058	7	Sololá	719	Santiago Atitlán	14	Cerro de Oro	11	Noviembre	2023-11-24T00:00:00	2024-11-08T08:00:00	4	Temperatura máxima	19.7
186059	7	Sololá	719	Santiago Atitlán	14	Cerro de Oro	11	Noviembre	2023-11-24T00:00:00	2024-11-08T08:00:00	3	Temperatura mínima	17.5
186060	7	Sololá	719	Santiago Atitlán	14	Cerro de Oro	11	Noviembre	2023-11-24T00:00:00	2024-11-08T08:00:00	5	Humedad	76
186061	7	Sololá	719	Santiago Atitlán	14	Cerro de Oro	11	Noviembre	2023-11-24T00:00:00	2024-11-08T08:00:00	6	Velocidad del viento	3.2
186062	7	Sololá	719	Santiago Atitlán	14	Cerro de Oro	11	Noviembre	2023-11-24T00:00:00	2024-11-08T08:00:00	7	Dirección del viento	3.22
186063	7	Sololá	719	Santiago Atitlán	14	Cerro de Oro	11	Noviembre	2023-11-24T00:00:00	2024-11-08T08:00:00	1	Precipitación	0
186064	7	Sololá	719	Santiago Atitlán	14	Cerro de Oro	11	Noviembre	2023-11-24T00:00:00	2024-11-08T08:00:00	8	Radiación solar	216
186065	7	Sololá	719	Santiago Atitlán	14	Cerro de Oro	11	Noviembre	2023-11-24T00:00:00	2024-11-08T09:00:00	2	Temperatura media	20.6
186066	7	Sololá	719	Santiago Atitlán	14	Cerro de Oro	11	Noviembre	2023-11-24T00:00:00	2024-11-08T09:00:00	4	Temperatura máxima	21.2
186067	7	Sololá	719	Santiago Atitlán	14	Cerro de Oro	11	Noviembre	2023-11-24T00:00:00	2024-11-08T09:00:00	3	Temperatura mínima	19.6
186068	7	Sololá	719	Santiago Atitlán	14	Cerro de Oro	11	Noviembre	2023-11-24T00:00:00	2024-11-08T09:00:00	5	Humedad	76
186069	7	Sololá	719	Santiago Atitlán	14	Cerro de Oro	11	Noviembre	2023-11-24T00:00:00	2024-11-08T09:00:00	6	Velocidad del viento	3.2
186070	7	Sololá	719	Santiago Atitlán	14	Cerro de Oro	11	Noviembre	2023-11-24T00:00:00	2024-11-08T09:00:00	7	Dirección del viento	3.22
186071	7	Sololá	719	Santiago Atitlán	14	Cerro de Oro	11	Noviembre	2023-11-24T00:00:00	2024-11-08T09:00:00	1	Precipitación	0
186072	7	Sololá	719	Santiago Atitlán	14	Cerro de Oro	11	Noviembre	2023-11-24T00:00:00	2024-11-08T09:00:00	8	Radiación solar	427
186073	7	Sololá	719	Santiago Atitlán	14	Cerro de Oro	11	Noviembre	2023-11-24T00:00:00	2024-11-08T10:00:00	2	Temperatura media	20.7
186074	7	Sololá	719	Santiago Atitlán	14	Cerro de Oro	11	Noviembre	2023-11-24T00:00:00	2024-11-08T10:00:00	4	Temperatura máxima	20.8
186075	7	Sololá	719	Santiago Atitlán	14	Cerro de Oro	11	Noviembre	2023-11-24T00:00:00	2024-11-08T10:00:00	3	Temperatura mínima	20.5
186076	7	Sololá	719	Santiago Atitlán	14	Cerro de Oro	11	Noviembre	2023-11-24T00:00:00	2024-11-08T10:00:00	5	Humedad	77
186077	7	Sololá	719	Santiago Atitlán	14	Cerro de Oro	11	Noviembre	2023-11-24T00:00:00	2024-11-08T10:00:00	6	Velocidad del viento	4.8
186078	7	Sololá	719	Santiago Atitlán	14	Cerro de Oro	11	Noviembre	2023-11-24T00:00:00	2024-11-08T10:00:00	7	Dirección del viento	4.83
186079	7	Sololá	719	Santiago Atitlán	14	Cerro de Oro	11	Noviembre	2023-11-24T00:00:00	2024-11-08T10:00:00	1	Precipitación	0
186080	7	Sololá	719	Santiago Atitlán	14	Cerro de Oro	11	Noviembre	2023-11-24T00:00:00	2024-11-08T10:00:00	8	Radiación solar	598
186081	7	Sololá	719	Santiago Atitlán	14	Cerro de Oro	11	Noviembre	2023-11-24T00:00:00	2024-11-08T11:00:00	2	Temperatura media	22.2
186082	7	Sololá	719	Santiago Atitlán	14	Cerro de Oro	11	Noviembre	2023-11-24T00:00:00	2024-11-08T11:00:00	4	Temperatura máxima	22.2
186083	7	Sololá	719	Santiago Atitlán	14	Cerro de Oro	11	Noviembre	2023-11-24T00:00:00	2024-11-08T11:00:00	3	Temperatura mínima	20.7
186084	7	Sololá	719	Santiago Atitlán	14	Cerro de Oro	11	Noviembre	2023-11-24T00:00:00	2024-11-08T11:00:00	5	Humedad	69
186085	7	Sololá	719	Santiago Atitlán	14	Cerro de Oro	11	Noviembre	2023-11-24T00:00:00	2024-11-08T11:00:00	6	Velocidad del viento	4.8
186086	7	Sololá	719	Santiago Atitlán	14	Cerro de Oro	11	Noviembre	2023-11-24T00:00:00	2024-11-08T11:00:00	7	Dirección del viento	4.83
186087	7	Sololá	719	Santiago Atitlán	14	Cerro de Oro	11	Noviembre	2023-11-24T00:00:00	2024-11-08T11:00:00	1	Precipitación	0
186088	7	Sololá	719	Santiago Atitlán	14	Cerro de Oro	11	Noviembre	2023-11-24T00:00:00	2024-11-08T11:00:00	8	Radiación solar	718
186089	7	Sololá	719	Santiago Atitlán	14	Cerro de Oro	11	Noviembre	2023-11-24T00:00:00	2024-11-08T12:00:00	2	Temperatura media	24.3
186090	7	Sololá	719	Santiago Atitlán	14	Cerro de Oro	11	Noviembre	2023-11-24T00:00:00	2024-11-08T12:00:00	4	Temperatura máxima	24.3
186091	7	Sololá	719	Santiago Atitlán	14	Cerro de Oro	11	Noviembre	2023-11-24T00:00:00	2024-11-08T12:00:00	3	Temperatura mínima	22.2
186092	7	Sololá	719	Santiago Atitlán	14	Cerro de Oro	11	Noviembre	2023-11-24T00:00:00	2024-11-08T12:00:00	5	Humedad	69
186093	7	Sololá	719	Santiago Atitlán	14	Cerro de Oro	11	Noviembre	2023-11-24T00:00:00	2024-11-08T12:00:00	6	Velocidad del viento	6.4
186094	7	Sololá	719	Santiago Atitlán	14	Cerro de Oro	11	Noviembre	2023-11-24T00:00:00	2024-11-08T12:00:00	7	Dirección del viento	6.44
186095	7	Sololá	719	Santiago Atitlán	14	Cerro de Oro	11	Noviembre	2023-11-24T00:00:00	2024-11-08T12:00:00	1	Precipitación	0
186096	7	Sololá	719	Santiago Atitlán	14	Cerro de Oro	11	Noviembre	2023-11-24T00:00:00	2024-11-08T12:00:00	8	Radiación solar	777
186097	7	Sololá	719	Santiago Atitlán	14	Cerro de Oro	11	Noviembre	2023-11-24T00:00:00	2024-11-08T13:00:00	2	Temperatura media	23.7
186098	7	Sololá	719	Santiago Atitlán	14	Cerro de Oro	11	Noviembre	2023-11-24T00:00:00	2024-11-08T13:00:00	4	Temperatura máxima	24.6
186099	7	Sololá	719	Santiago Atitlán	14	Cerro de Oro	11	Noviembre	2023-11-24T00:00:00	2024-11-08T13:00:00	3	Temperatura mínima	23.6
186100	7	Sololá	719	Santiago Atitlán	14	Cerro de Oro	11	Noviembre	2023-11-24T00:00:00	2024-11-08T13:00:00	5	Humedad	75
186101	7	Sololá	719	Santiago Atitlán	14	Cerro de Oro	11	Noviembre	2023-11-24T00:00:00	2024-11-08T13:00:00	6	Velocidad del viento	12.9
186102	7	Sololá	719	Santiago Atitlán	14	Cerro de Oro	11	Noviembre	2023-11-24T00:00:00	2024-11-08T13:00:00	7	Dirección del viento	12.87
186103	7	Sololá	719	Santiago Atitlán	14	Cerro de Oro	11	Noviembre	2023-11-24T00:00:00	2024-11-08T13:00:00	1	Precipitación	0
186104	7	Sololá	719	Santiago Atitlán	14	Cerro de Oro	11	Noviembre	2023-11-24T00:00:00	2024-11-08T13:00:00	8	Radiación solar	755
186105	7	Sololá	719	Santiago Atitlán	14	Cerro de Oro	11	Noviembre	2023-11-24T00:00:00	2024-11-08T14:00:00	2	Temperatura media	23.3
186106	7	Sololá	719	Santiago Atitlán	14	Cerro de Oro	11	Noviembre	2023-11-24T00:00:00	2024-11-08T14:00:00	4	Temperatura máxima	23.9
186107	7	Sololá	719	Santiago Atitlán	14	Cerro de Oro	11	Noviembre	2023-11-24T00:00:00	2024-11-08T14:00:00	3	Temperatura mínima	22.6
186108	7	Sololá	719	Santiago Atitlán	14	Cerro de Oro	11	Noviembre	2023-11-24T00:00:00	2024-11-08T14:00:00	5	Humedad	76
186109	7	Sololá	719	Santiago Atitlán	14	Cerro de Oro	11	Noviembre	2023-11-24T00:00:00	2024-11-08T14:00:00	6	Velocidad del viento	11.3
186110	7	Sololá	719	Santiago Atitlán	14	Cerro de Oro	11	Noviembre	2023-11-24T00:00:00	2024-11-08T14:00:00	7	Dirección del viento	11.27
186111	7	Sololá	719	Santiago Atitlán	14	Cerro de Oro	11	Noviembre	2023-11-24T00:00:00	2024-11-08T14:00:00	1	Precipitación	0
186112	7	Sololá	719	Santiago Atitlán	14	Cerro de Oro	11	Noviembre	2023-11-24T00:00:00	2024-11-08T14:00:00	8	Radiación solar	464
186113	7	Sololá	719	Santiago Atitlán	14	Cerro de Oro	11	Noviembre	2023-11-24T00:00:00	2024-11-08T15:00:00	2	Temperatura media	21.6
186114	7	Sololá	719	Santiago Atitlán	14	Cerro de Oro	11	Noviembre	2023-11-24T00:00:00	2024-11-08T15:00:00	4	Temperatura máxima	23.3
186115	7	Sololá	719	Santiago Atitlán	14	Cerro de Oro	11	Noviembre	2023-11-24T00:00:00	2024-11-08T15:00:00	3	Temperatura mínima	21.6
186116	7	Sololá	719	Santiago Atitlán	14	Cerro de Oro	11	Noviembre	2023-11-24T00:00:00	2024-11-08T15:00:00	5	Humedad	82
186117	7	Sololá	719	Santiago Atitlán	14	Cerro de Oro	11	Noviembre	2023-11-24T00:00:00	2024-11-08T15:00:00	6	Velocidad del viento	9.7
186118	7	Sololá	719	Santiago Atitlán	14	Cerro de Oro	11	Noviembre	2023-11-24T00:00:00	2024-11-08T15:00:00	7	Dirección del viento	9.66
186119	7	Sololá	719	Santiago Atitlán	14	Cerro de Oro	11	Noviembre	2023-11-24T00:00:00	2024-11-08T15:00:00	1	Precipitación	0
186120	7	Sololá	719	Santiago Atitlán	14	Cerro de Oro	11	Noviembre	2023-11-24T00:00:00	2024-11-08T15:00:00	8	Radiación solar	211
186121	7	Sololá	719	Santiago Atitlán	14	Cerro de Oro	11	Noviembre	2023-11-24T00:00:00	2024-11-08T16:00:00	2	Temperatura media	20.4
186122	7	Sololá	719	Santiago Atitlán	14	Cerro de Oro	11	Noviembre	2023-11-24T00:00:00	2024-11-08T16:00:00	4	Temperatura máxima	22.1
186123	7	Sololá	719	Santiago Atitlán	14	Cerro de Oro	11	Noviembre	2023-11-24T00:00:00	2024-11-08T16:00:00	3	Temperatura mínima	20.4
186124	7	Sololá	719	Santiago Atitlán	14	Cerro de Oro	11	Noviembre	2023-11-24T00:00:00	2024-11-08T16:00:00	5	Humedad	86
186125	7	Sololá	719	Santiago Atitlán	14	Cerro de Oro	11	Noviembre	2023-11-24T00:00:00	2024-11-08T16:00:00	6	Velocidad del viento	11.3
186126	7	Sololá	719	Santiago Atitlán	14	Cerro de Oro	11	Noviembre	2023-11-24T00:00:00	2024-11-08T16:00:00	7	Dirección del viento	11.27
186127	7	Sololá	719	Santiago Atitlán	14	Cerro de Oro	11	Noviembre	2023-11-24T00:00:00	2024-11-08T16:00:00	1	Precipitación	0
186128	7	Sololá	719	Santiago Atitlán	14	Cerro de Oro	11	Noviembre	2023-11-24T00:00:00	2024-11-08T16:00:00	8	Radiación solar	167
186129	7	Sololá	719	Santiago Atitlán	14	Cerro de Oro	11	Noviembre	2023-11-24T00:00:00	2024-11-08T17:00:00	2	Temperatura media	20.4
186130	7	Sololá	719	Santiago Atitlán	14	Cerro de Oro	11	Noviembre	2023-11-24T00:00:00	2024-11-08T17:00:00	4	Temperatura máxima	20.4
186131	7	Sololá	719	Santiago Atitlán	14	Cerro de Oro	11	Noviembre	2023-11-24T00:00:00	2024-11-08T17:00:00	3	Temperatura mínima	20.2
186132	7	Sololá	719	Santiago Atitlán	14	Cerro de Oro	11	Noviembre	2023-11-24T00:00:00	2024-11-08T17:00:00	5	Humedad	84
186133	7	Sololá	719	Santiago Atitlán	14	Cerro de Oro	11	Noviembre	2023-11-24T00:00:00	2024-11-08T17:00:00	6	Velocidad del viento	6.4
186134	7	Sololá	719	Santiago Atitlán	14	Cerro de Oro	11	Noviembre	2023-11-24T00:00:00	2024-11-08T17:00:00	7	Dirección del viento	6.44
186135	7	Sololá	719	Santiago Atitlán	14	Cerro de Oro	11	Noviembre	2023-11-24T00:00:00	2024-11-08T17:00:00	1	Precipitación	0
186136	7	Sololá	719	Santiago Atitlán	14	Cerro de Oro	11	Noviembre	2023-11-24T00:00:00	2024-11-08T17:00:00	8	Radiación solar	26
186137	7	Sololá	719	Santiago Atitlán	14	Cerro de Oro	11	Noviembre	2023-11-24T00:00:00	2024-11-08T18:00:00	2	Temperatura media	19.6
186138	7	Sololá	719	Santiago Atitlán	14	Cerro de Oro	11	Noviembre	2023-11-24T00:00:00	2024-11-08T18:00:00	4	Temperatura máxima	20.3
186139	7	Sololá	719	Santiago Atitlán	14	Cerro de Oro	11	Noviembre	2023-11-24T00:00:00	2024-11-08T18:00:00	3	Temperatura mínima	19.5
186140	7	Sololá	719	Santiago Atitlán	14	Cerro de Oro	11	Noviembre	2023-11-24T00:00:00	2024-11-08T18:00:00	5	Humedad	86
186141	7	Sololá	719	Santiago Atitlán	14	Cerro de Oro	11	Noviembre	2023-11-24T00:00:00	2024-11-08T18:00:00	6	Velocidad del viento	4.8
186142	7	Sololá	719	Santiago Atitlán	14	Cerro de Oro	11	Noviembre	2023-11-24T00:00:00	2024-11-08T18:00:00	7	Dirección del viento	4.83
186143	7	Sololá	719	Santiago Atitlán	14	Cerro de Oro	11	Noviembre	2023-11-24T00:00:00	2024-11-08T18:00:00	1	Precipitación	0
186144	7	Sololá	719	Santiago Atitlán	14	Cerro de Oro	11	Noviembre	2023-11-24T00:00:00	2024-11-08T18:00:00	8	Radiación solar	6
186145	7	Sololá	719	Santiago Atitlán	14	Cerro de Oro	11	Noviembre	2023-11-24T00:00:00	2024-11-08T19:00:00	2	Temperatura media	19.2
186146	7	Sololá	719	Santiago Atitlán	14	Cerro de Oro	11	Noviembre	2023-11-24T00:00:00	2024-11-08T19:00:00	4	Temperatura máxima	19.6
186147	7	Sololá	719	Santiago Atitlán	14	Cerro de Oro	11	Noviembre	2023-11-24T00:00:00	2024-11-08T19:00:00	3	Temperatura mínima	19.1
186148	7	Sololá	719	Santiago Atitlán	14	Cerro de Oro	11	Noviembre	2023-11-24T00:00:00	2024-11-08T19:00:00	5	Humedad	89
186149	7	Sololá	719	Santiago Atitlán	14	Cerro de Oro	11	Noviembre	2023-11-24T00:00:00	2024-11-08T19:00:00	6	Velocidad del viento	4.8
186150	7	Sololá	719	Santiago Atitlán	14	Cerro de Oro	11	Noviembre	2023-11-24T00:00:00	2024-11-08T19:00:00	7	Dirección del viento	4.83
186151	7	Sololá	719	Santiago Atitlán	14	Cerro de Oro	11	Noviembre	2023-11-24T00:00:00	2024-11-08T19:00:00	1	Precipitación	0
186152	7	Sololá	719	Santiago Atitlán	14	Cerro de Oro	11	Noviembre	2023-11-24T00:00:00	2024-11-08T19:00:00	8	Radiación solar	0
186153	7	Sololá	719	Santiago Atitlán	14	Cerro de Oro	11	Noviembre	2023-11-24T00:00:00	2024-11-08T20:00:00	2	Temperatura media	19
186154	7	Sololá	719	Santiago Atitlán	14	Cerro de Oro	11	Noviembre	2023-11-24T00:00:00	2024-11-08T20:00:00	4	Temperatura máxima	19.3
186155	7	Sololá	719	Santiago Atitlán	14	Cerro de Oro	11	Noviembre	2023-11-24T00:00:00	2024-11-08T20:00:00	3	Temperatura mínima	18.9
186156	7	Sololá	719	Santiago Atitlán	14	Cerro de Oro	11	Noviembre	2023-11-24T00:00:00	2024-11-08T20:00:00	5	Humedad	87
186157	7	Sololá	719	Santiago Atitlán	14	Cerro de Oro	11	Noviembre	2023-11-24T00:00:00	2024-11-08T20:00:00	6	Velocidad del viento	3.2
186158	7	Sololá	719	Santiago Atitlán	14	Cerro de Oro	11	Noviembre	2023-11-24T00:00:00	2024-11-08T20:00:00	7	Dirección del viento	3.22
186159	7	Sololá	719	Santiago Atitlán	14	Cerro de Oro	11	Noviembre	2023-11-24T00:00:00	2024-11-08T20:00:00	1	Precipitación	0
186160	7	Sololá	719	Santiago Atitlán	14	Cerro de Oro	11	Noviembre	2023-11-24T00:00:00	2024-11-08T20:00:00	8	Radiación solar	0
186161	7	Sololá	719	Santiago Atitlán	14	Cerro de Oro	11	Noviembre	2023-11-24T00:00:00	2024-11-08T21:00:00	2	Temperatura media	19.7
186162	7	Sololá	719	Santiago Atitlán	14	Cerro de Oro	11	Noviembre	2023-11-24T00:00:00	2024-11-08T21:00:00	4	Temperatura máxima	19.7
186163	7	Sololá	719	Santiago Atitlán	14	Cerro de Oro	11	Noviembre	2023-11-24T00:00:00	2024-11-08T21:00:00	3	Temperatura mínima	18.9
186164	7	Sololá	719	Santiago Atitlán	14	Cerro de Oro	11	Noviembre	2023-11-24T00:00:00	2024-11-08T21:00:00	5	Humedad	86
186165	7	Sololá	719	Santiago Atitlán	14	Cerro de Oro	11	Noviembre	2023-11-24T00:00:00	2024-11-08T21:00:00	6	Velocidad del viento	3.2
186166	7	Sololá	719	Santiago Atitlán	14	Cerro de Oro	11	Noviembre	2023-11-24T00:00:00	2024-11-08T21:00:00	7	Dirección del viento	3.22
186167	7	Sololá	719	Santiago Atitlán	14	Cerro de Oro	11	Noviembre	2023-11-24T00:00:00	2024-11-08T21:00:00	1	Precipitación	0
186168	7	Sololá	719	Santiago Atitlán	14	Cerro de Oro	11	Noviembre	2023-11-24T00:00:00	2024-11-08T21:00:00	8	Radiación solar	0
186169	7	Sololá	719	Santiago Atitlán	14	Cerro de Oro	11	Noviembre	2023-11-24T00:00:00	2024-11-08T22:00:00	2	Temperatura media	19.1
186170	7	Sololá	719	Santiago Atitlán	14	Cerro de Oro	11	Noviembre	2023-11-24T00:00:00	2024-11-08T22:00:00	4	Temperatura máxima	19.7
186171	7	Sololá	719	Santiago Atitlán	14	Cerro de Oro	11	Noviembre	2023-11-24T00:00:00	2024-11-08T22:00:00	3	Temperatura mínima	18.8
186172	7	Sololá	719	Santiago Atitlán	14	Cerro de Oro	11	Noviembre	2023-11-24T00:00:00	2024-11-08T22:00:00	5	Humedad	86
186173	7	Sololá	719	Santiago Atitlán	14	Cerro de Oro	11	Noviembre	2023-11-24T00:00:00	2024-11-08T22:00:00	6	Velocidad del viento	4.8
186174	7	Sololá	719	Santiago Atitlán	14	Cerro de Oro	11	Noviembre	2023-11-24T00:00:00	2024-11-08T22:00:00	7	Dirección del viento	4.83
186175	7	Sololá	719	Santiago Atitlán	14	Cerro de Oro	11	Noviembre	2023-11-24T00:00:00	2024-11-08T22:00:00	1	Precipitación	0
186176	7	Sololá	719	Santiago Atitlán	14	Cerro de Oro	11	Noviembre	2023-11-24T00:00:00	2024-11-08T22:00:00	8	Radiación solar	0
186177	7	Sololá	719	Santiago Atitlán	14	Cerro de Oro	11	Noviembre	2023-11-24T00:00:00	2024-11-08T23:00:00	2	Temperatura media	19.7
186178	7	Sololá	719	Santiago Atitlán	14	Cerro de Oro	11	Noviembre	2023-11-24T00:00:00	2024-11-08T23:00:00	4	Temperatura máxima	19.8
186179	7	Sololá	719	Santiago Atitlán	14	Cerro de Oro	11	Noviembre	2023-11-24T00:00:00	2024-11-08T23:00:00	3	Temperatura mínima	19.1
186180	7	Sololá	719	Santiago Atitlán	14	Cerro de Oro	11	Noviembre	2023-11-24T00:00:00	2024-11-08T23:00:00	5	Humedad	81
186181	7	Sololá	719	Santiago Atitlán	14	Cerro de Oro	11	Noviembre	2023-11-24T00:00:00	2024-11-08T23:00:00	6	Velocidad del viento	4.8
186182	7	Sololá	719	Santiago Atitlán	14	Cerro de Oro	11	Noviembre	2023-11-24T00:00:00	2024-11-08T23:00:00	7	Dirección del viento	4.83
186183	7	Sololá	719	Santiago Atitlán	14	Cerro de Oro	11	Noviembre	2023-11-24T00:00:00	2024-11-08T23:00:00	1	Precipitación	0
186184	7	Sololá	719	Santiago Atitlán	14	Cerro de Oro	11	Noviembre	2023-11-24T00:00:00	2024-11-08T23:00:00	8	Radiación solar	0
186185	7	Sololá	719	Santiago Atitlán	14	Cerro de Oro	11	Noviembre	2023-11-25T00:00:00	2024-11-08T00:00:00	2	Temperatura media	19.3
186186	7	Sololá	719	Santiago Atitlán	14	Cerro de Oro	11	Noviembre	2023-11-25T00:00:00	2024-11-08T00:00:00	4	Temperatura máxima	19.7
186187	7	Sololá	719	Santiago Atitlán	14	Cerro de Oro	11	Noviembre	2023-11-25T00:00:00	2024-11-08T00:00:00	3	Temperatura mínima	19.3
186188	7	Sololá	719	Santiago Atitlán	14	Cerro de Oro	11	Noviembre	2023-11-25T00:00:00	2024-11-08T00:00:00	5	Humedad	82
186189	7	Sololá	719	Santiago Atitlán	14	Cerro de Oro	11	Noviembre	2023-11-25T00:00:00	2024-11-08T00:00:00	6	Velocidad del viento	4.8
186190	7	Sololá	719	Santiago Atitlán	14	Cerro de Oro	11	Noviembre	2023-11-25T00:00:00	2024-11-08T00:00:00	7	Dirección del viento	4.83
186191	7	Sololá	719	Santiago Atitlán	14	Cerro de Oro	11	Noviembre	2023-11-25T00:00:00	2024-11-08T00:00:00	1	Precipitación	0
186192	7	Sololá	719	Santiago Atitlán	14	Cerro de Oro	11	Noviembre	2023-11-25T00:00:00	2024-11-08T00:00:00	8	Radiación solar	0
186193	7	Sololá	719	Santiago Atitlán	14	Cerro de Oro	11	Noviembre	2023-11-25T00:00:00	2024-11-08T01:00:00	2	Temperatura media	18.6
186194	7	Sololá	719	Santiago Atitlán	14	Cerro de Oro	11	Noviembre	2023-11-25T00:00:00	2024-11-08T01:00:00	4	Temperatura máxima	19.3
186195	7	Sololá	719	Santiago Atitlán	14	Cerro de Oro	11	Noviembre	2023-11-25T00:00:00	2024-11-08T01:00:00	3	Temperatura mínima	18.4
186196	7	Sololá	719	Santiago Atitlán	14	Cerro de Oro	11	Noviembre	2023-11-25T00:00:00	2024-11-08T01:00:00	5	Humedad	85
186197	7	Sololá	719	Santiago Atitlán	14	Cerro de Oro	11	Noviembre	2023-11-25T00:00:00	2024-11-08T01:00:00	6	Velocidad del viento	3.2
186198	7	Sololá	719	Santiago Atitlán	14	Cerro de Oro	11	Noviembre	2023-11-25T00:00:00	2024-11-08T01:00:00	7	Dirección del viento	3.22
186199	7	Sololá	719	Santiago Atitlán	14	Cerro de Oro	11	Noviembre	2023-11-25T00:00:00	2024-11-08T01:00:00	1	Precipitación	0
186200	7	Sololá	719	Santiago Atitlán	14	Cerro de Oro	11	Noviembre	2023-11-25T00:00:00	2024-11-08T01:00:00	8	Radiación solar	0
186201	7	Sololá	719	Santiago Atitlán	14	Cerro de Oro	11	Noviembre	2023-11-25T00:00:00	2024-11-08T02:00:00	2	Temperatura media	18.3
186202	7	Sololá	719	Santiago Atitlán	14	Cerro de Oro	11	Noviembre	2023-11-25T00:00:00	2024-11-08T02:00:00	4	Temperatura máxima	18.9
186203	7	Sololá	719	Santiago Atitlán	14	Cerro de Oro	11	Noviembre	2023-11-25T00:00:00	2024-11-08T02:00:00	3	Temperatura mínima	18.2
186204	7	Sololá	719	Santiago Atitlán	14	Cerro de Oro	11	Noviembre	2023-11-25T00:00:00	2024-11-08T02:00:00	5	Humedad	87
186205	7	Sololá	719	Santiago Atitlán	14	Cerro de Oro	11	Noviembre	2023-11-25T00:00:00	2024-11-08T02:00:00	6	Velocidad del viento	3.2
186206	7	Sololá	719	Santiago Atitlán	14	Cerro de Oro	11	Noviembre	2023-11-25T00:00:00	2024-11-08T02:00:00	7	Dirección del viento	3.22
186207	7	Sololá	719	Santiago Atitlán	14	Cerro de Oro	11	Noviembre	2023-11-25T00:00:00	2024-11-08T02:00:00	1	Precipitación	0
186208	7	Sololá	719	Santiago Atitlán	14	Cerro de Oro	11	Noviembre	2023-11-25T00:00:00	2024-11-08T02:00:00	8	Radiación solar	0
186209	7	Sololá	719	Santiago Atitlán	14	Cerro de Oro	11	Noviembre	2023-11-25T00:00:00	2024-11-08T03:00:00	2	Temperatura media	18.9
186210	7	Sololá	719	Santiago Atitlán	14	Cerro de Oro	11	Noviembre	2023-11-25T00:00:00	2024-11-08T03:00:00	4	Temperatura máxima	19
186211	7	Sololá	719	Santiago Atitlán	14	Cerro de Oro	11	Noviembre	2023-11-25T00:00:00	2024-11-08T03:00:00	3	Temperatura mínima	18.3
186212	7	Sololá	719	Santiago Atitlán	14	Cerro de Oro	11	Noviembre	2023-11-25T00:00:00	2024-11-08T03:00:00	5	Humedad	83
186213	7	Sololá	719	Santiago Atitlán	14	Cerro de Oro	11	Noviembre	2023-11-25T00:00:00	2024-11-08T03:00:00	6	Velocidad del viento	4.8
186214	7	Sololá	719	Santiago Atitlán	14	Cerro de Oro	11	Noviembre	2023-11-25T00:00:00	2024-11-08T03:00:00	7	Dirección del viento	4.83
186215	7	Sololá	719	Santiago Atitlán	14	Cerro de Oro	11	Noviembre	2023-11-25T00:00:00	2024-11-08T03:00:00	1	Precipitación	0
186216	7	Sololá	719	Santiago Atitlán	14	Cerro de Oro	11	Noviembre	2023-11-25T00:00:00	2024-11-08T03:00:00	8	Radiación solar	0
186217	7	Sololá	719	Santiago Atitlán	14	Cerro de Oro	11	Noviembre	2023-11-25T00:00:00	2024-11-08T04:00:00	2	Temperatura media	18.9
186218	7	Sololá	719	Santiago Atitlán	14	Cerro de Oro	11	Noviembre	2023-11-25T00:00:00	2024-11-08T04:00:00	4	Temperatura máxima	19.3
186219	7	Sololá	719	Santiago Atitlán	14	Cerro de Oro	11	Noviembre	2023-11-25T00:00:00	2024-11-08T04:00:00	3	Temperatura mínima	18.9
186220	7	Sololá	719	Santiago Atitlán	14	Cerro de Oro	11	Noviembre	2023-11-25T00:00:00	2024-11-08T04:00:00	5	Humedad	80
186221	7	Sololá	719	Santiago Atitlán	14	Cerro de Oro	11	Noviembre	2023-11-25T00:00:00	2024-11-08T04:00:00	6	Velocidad del viento	3.2
186222	7	Sololá	719	Santiago Atitlán	14	Cerro de Oro	11	Noviembre	2023-11-25T00:00:00	2024-11-08T04:00:00	7	Dirección del viento	3.22
186223	7	Sololá	719	Santiago Atitlán	14	Cerro de Oro	11	Noviembre	2023-11-25T00:00:00	2024-11-08T04:00:00	1	Precipitación	0
186224	7	Sololá	719	Santiago Atitlán	14	Cerro de Oro	11	Noviembre	2023-11-25T00:00:00	2024-11-08T04:00:00	8	Radiación solar	0
186225	7	Sololá	719	Santiago Atitlán	14	Cerro de Oro	11	Noviembre	2023-11-25T00:00:00	2024-11-08T05:00:00	2	Temperatura media	18.6
186226	7	Sololá	719	Santiago Atitlán	14	Cerro de Oro	11	Noviembre	2023-11-25T00:00:00	2024-11-08T05:00:00	4	Temperatura máxima	19.2
186227	7	Sololá	719	Santiago Atitlán	14	Cerro de Oro	11	Noviembre	2023-11-25T00:00:00	2024-11-08T05:00:00	3	Temperatura mínima	18.4
186228	7	Sololá	719	Santiago Atitlán	14	Cerro de Oro	11	Noviembre	2023-11-25T00:00:00	2024-11-08T05:00:00	5	Humedad	82
186229	7	Sololá	719	Santiago Atitlán	14	Cerro de Oro	11	Noviembre	2023-11-25T00:00:00	2024-11-08T05:00:00	6	Velocidad del viento	3.2
186230	7	Sololá	719	Santiago Atitlán	14	Cerro de Oro	11	Noviembre	2023-11-25T00:00:00	2024-11-08T05:00:00	7	Dirección del viento	3.22
186231	7	Sololá	719	Santiago Atitlán	14	Cerro de Oro	11	Noviembre	2023-11-25T00:00:00	2024-11-08T05:00:00	1	Precipitación	0
186232	7	Sololá	719	Santiago Atitlán	14	Cerro de Oro	11	Noviembre	2023-11-25T00:00:00	2024-11-08T05:00:00	8	Radiación solar	0
186233	7	Sololá	719	Santiago Atitlán	14	Cerro de Oro	11	Noviembre	2023-11-25T00:00:00	2024-11-08T06:00:00	2	Temperatura media	18.4
186234	7	Sololá	719	Santiago Atitlán	14	Cerro de Oro	11	Noviembre	2023-11-25T00:00:00	2024-11-08T06:00:00	4	Temperatura máxima	19.1
186235	7	Sololá	719	Santiago Atitlán	14	Cerro de Oro	11	Noviembre	2023-11-25T00:00:00	2024-11-08T06:00:00	3	Temperatura mínima	18.2
186236	7	Sololá	719	Santiago Atitlán	14	Cerro de Oro	11	Noviembre	2023-11-25T00:00:00	2024-11-08T06:00:00	5	Humedad	81
186237	7	Sololá	719	Santiago Atitlán	14	Cerro de Oro	11	Noviembre	2023-11-25T00:00:00	2024-11-08T06:00:00	6	Velocidad del viento	3.2
186238	7	Sololá	719	Santiago Atitlán	14	Cerro de Oro	11	Noviembre	2023-11-25T00:00:00	2024-11-08T06:00:00	7	Dirección del viento	3.22
186239	7	Sololá	719	Santiago Atitlán	14	Cerro de Oro	11	Noviembre	2023-11-25T00:00:00	2024-11-08T06:00:00	1	Precipitación	0
186240	7	Sololá	719	Santiago Atitlán	14	Cerro de Oro	11	Noviembre	2023-11-25T00:00:00	2024-11-08T06:00:00	8	Radiación solar	0
186241	7	Sololá	719	Santiago Atitlán	14	Cerro de Oro	11	Noviembre	2023-11-25T00:00:00	2024-11-08T07:00:00	2	Temperatura media	18.8
186242	7	Sololá	719	Santiago Atitlán	14	Cerro de Oro	11	Noviembre	2023-11-25T00:00:00	2024-11-08T07:00:00	4	Temperatura máxima	19.4
186243	7	Sololá	719	Santiago Atitlán	14	Cerro de Oro	11	Noviembre	2023-11-25T00:00:00	2024-11-08T07:00:00	3	Temperatura mínima	18.4
186244	7	Sololá	719	Santiago Atitlán	14	Cerro de Oro	11	Noviembre	2023-11-25T00:00:00	2024-11-08T07:00:00	5	Humedad	82
186245	7	Sololá	719	Santiago Atitlán	14	Cerro de Oro	11	Noviembre	2023-11-25T00:00:00	2024-11-08T07:00:00	6	Velocidad del viento	3.2
186246	7	Sololá	719	Santiago Atitlán	14	Cerro de Oro	11	Noviembre	2023-11-25T00:00:00	2024-11-08T07:00:00	7	Dirección del viento	3.22
186247	7	Sololá	719	Santiago Atitlán	14	Cerro de Oro	11	Noviembre	2023-11-25T00:00:00	2024-11-08T07:00:00	1	Precipitación	0
186248	7	Sololá	719	Santiago Atitlán	14	Cerro de Oro	11	Noviembre	2023-11-25T00:00:00	2024-11-08T07:00:00	8	Radiación solar	30
186249	7	Sololá	719	Santiago Atitlán	14	Cerro de Oro	11	Noviembre	2023-11-25T00:00:00	2024-11-08T08:00:00	2	Temperatura media	20.9
186250	7	Sololá	719	Santiago Atitlán	14	Cerro de Oro	11	Noviembre	2023-11-25T00:00:00	2024-11-08T08:00:00	4	Temperatura máxima	20.9
186251	7	Sololá	719	Santiago Atitlán	14	Cerro de Oro	11	Noviembre	2023-11-25T00:00:00	2024-11-08T08:00:00	3	Temperatura mínima	18.8
186252	7	Sololá	719	Santiago Atitlán	14	Cerro de Oro	11	Noviembre	2023-11-25T00:00:00	2024-11-08T08:00:00	5	Humedad	74
186253	7	Sololá	719	Santiago Atitlán	14	Cerro de Oro	11	Noviembre	2023-11-25T00:00:00	2024-11-08T08:00:00	6	Velocidad del viento	3.2
186254	7	Sololá	719	Santiago Atitlán	14	Cerro de Oro	11	Noviembre	2023-11-25T00:00:00	2024-11-08T08:00:00	7	Dirección del viento	3.22
186255	7	Sololá	719	Santiago Atitlán	14	Cerro de Oro	11	Noviembre	2023-11-25T00:00:00	2024-11-08T08:00:00	1	Precipitación	0
186256	7	Sololá	719	Santiago Atitlán	14	Cerro de Oro	11	Noviembre	2023-11-25T00:00:00	2024-11-08T08:00:00	8	Radiación solar	135
186257	7	Sololá	719	Santiago Atitlán	14	Cerro de Oro	11	Noviembre	2023-11-25T00:00:00	2024-11-08T09:00:00	2	Temperatura media	23.1
186258	7	Sololá	719	Santiago Atitlán	14	Cerro de Oro	11	Noviembre	2023-11-25T00:00:00	2024-11-08T09:00:00	4	Temperatura máxima	23.1
186259	7	Sololá	719	Santiago Atitlán	14	Cerro de Oro	11	Noviembre	2023-11-25T00:00:00	2024-11-08T09:00:00	3	Temperatura mínima	20.9
186260	7	Sololá	719	Santiago Atitlán	14	Cerro de Oro	11	Noviembre	2023-11-25T00:00:00	2024-11-08T09:00:00	5	Humedad	67
186261	7	Sololá	719	Santiago Atitlán	14	Cerro de Oro	11	Noviembre	2023-11-25T00:00:00	2024-11-08T09:00:00	6	Velocidad del viento	4.8
186262	7	Sololá	719	Santiago Atitlán	14	Cerro de Oro	11	Noviembre	2023-11-25T00:00:00	2024-11-08T09:00:00	7	Dirección del viento	4.83
186263	7	Sololá	719	Santiago Atitlán	14	Cerro de Oro	11	Noviembre	2023-11-25T00:00:00	2024-11-08T09:00:00	1	Precipitación	0
186264	7	Sololá	719	Santiago Atitlán	14	Cerro de Oro	11	Noviembre	2023-11-25T00:00:00	2024-11-08T09:00:00	8	Radiación solar	412
186265	7	Sololá	719	Santiago Atitlán	14	Cerro de Oro	11	Noviembre	2023-11-25T00:00:00	2024-11-08T10:00:00	2	Temperatura media	24.9
186266	7	Sololá	719	Santiago Atitlán	14	Cerro de Oro	11	Noviembre	2023-11-25T00:00:00	2024-11-08T10:00:00	4	Temperatura máxima	25
186267	7	Sololá	719	Santiago Atitlán	14	Cerro de Oro	11	Noviembre	2023-11-25T00:00:00	2024-11-08T10:00:00	3	Temperatura mínima	23.1
186268	7	Sololá	719	Santiago Atitlán	14	Cerro de Oro	11	Noviembre	2023-11-25T00:00:00	2024-11-08T10:00:00	5	Humedad	60
186269	7	Sololá	719	Santiago Atitlán	14	Cerro de Oro	11	Noviembre	2023-11-25T00:00:00	2024-11-08T10:00:00	6	Velocidad del viento	3.2
186270	7	Sololá	719	Santiago Atitlán	14	Cerro de Oro	11	Noviembre	2023-11-25T00:00:00	2024-11-08T10:00:00	7	Dirección del viento	3.22
186271	7	Sololá	719	Santiago Atitlán	14	Cerro de Oro	11	Noviembre	2023-11-25T00:00:00	2024-11-08T10:00:00	1	Precipitación	0
186272	7	Sololá	719	Santiago Atitlán	14	Cerro de Oro	11	Noviembre	2023-11-25T00:00:00	2024-11-08T10:00:00	8	Radiación solar	591
186273	7	Sololá	719	Santiago Atitlán	14	Cerro de Oro	11	Noviembre	2023-11-25T00:00:00	2024-11-08T11:00:00	2	Temperatura media	25.3
186274	7	Sololá	719	Santiago Atitlán	14	Cerro de Oro	11	Noviembre	2023-11-25T00:00:00	2024-11-08T11:00:00	4	Temperatura máxima	25.6
186275	7	Sololá	719	Santiago Atitlán	14	Cerro de Oro	11	Noviembre	2023-11-25T00:00:00	2024-11-08T11:00:00	3	Temperatura mínima	24.9
186276	7	Sololá	719	Santiago Atitlán	14	Cerro de Oro	11	Noviembre	2023-11-25T00:00:00	2024-11-08T11:00:00	5	Humedad	61
186277	7	Sololá	719	Santiago Atitlán	14	Cerro de Oro	11	Noviembre	2023-11-25T00:00:00	2024-11-08T11:00:00	6	Velocidad del viento	4.8
186278	7	Sololá	719	Santiago Atitlán	14	Cerro de Oro	11	Noviembre	2023-11-25T00:00:00	2024-11-08T11:00:00	7	Dirección del viento	4.83
186279	7	Sololá	719	Santiago Atitlán	14	Cerro de Oro	11	Noviembre	2023-11-25T00:00:00	2024-11-08T11:00:00	1	Precipitación	0
186280	7	Sololá	719	Santiago Atitlán	14	Cerro de Oro	11	Noviembre	2023-11-25T00:00:00	2024-11-08T11:00:00	8	Radiación solar	715
186281	7	Sololá	719	Santiago Atitlán	14	Cerro de Oro	11	Noviembre	2023-11-25T00:00:00	2024-11-08T12:00:00	2	Temperatura media	23.8
186282	7	Sololá	719	Santiago Atitlán	14	Cerro de Oro	11	Noviembre	2023-11-25T00:00:00	2024-11-08T12:00:00	4	Temperatura máxima	25.8
186283	7	Sololá	719	Santiago Atitlán	14	Cerro de Oro	11	Noviembre	2023-11-25T00:00:00	2024-11-08T12:00:00	3	Temperatura mínima	23.8
186284	7	Sololá	719	Santiago Atitlán	14	Cerro de Oro	11	Noviembre	2023-11-25T00:00:00	2024-11-08T12:00:00	5	Humedad	74
186285	7	Sololá	719	Santiago Atitlán	14	Cerro de Oro	11	Noviembre	2023-11-25T00:00:00	2024-11-08T12:00:00	6	Velocidad del viento	11.3
186286	7	Sololá	719	Santiago Atitlán	14	Cerro de Oro	11	Noviembre	2023-11-25T00:00:00	2024-11-08T12:00:00	7	Dirección del viento	11.27
186287	7	Sololá	719	Santiago Atitlán	14	Cerro de Oro	11	Noviembre	2023-11-25T00:00:00	2024-11-08T12:00:00	1	Precipitación	0
186288	7	Sololá	719	Santiago Atitlán	14	Cerro de Oro	11	Noviembre	2023-11-25T00:00:00	2024-11-08T12:00:00	8	Radiación solar	783
186289	7	Sololá	719	Santiago Atitlán	14	Cerro de Oro	11	Noviembre	2023-11-25T00:00:00	2024-11-08T13:00:00	2	Temperatura media	24.7
186290	7	Sololá	719	Santiago Atitlán	14	Cerro de Oro	11	Noviembre	2023-11-25T00:00:00	2024-11-08T13:00:00	4	Temperatura máxima	25.2
186291	7	Sololá	719	Santiago Atitlán	14	Cerro de Oro	11	Noviembre	2023-11-25T00:00:00	2024-11-08T13:00:00	3	Temperatura mínima	23.6
186292	7	Sololá	719	Santiago Atitlán	14	Cerro de Oro	11	Noviembre	2023-11-25T00:00:00	2024-11-08T13:00:00	5	Humedad	73
186293	7	Sololá	719	Santiago Atitlán	14	Cerro de Oro	11	Noviembre	2023-11-25T00:00:00	2024-11-08T13:00:00	6	Velocidad del viento	9.7
186294	7	Sololá	719	Santiago Atitlán	14	Cerro de Oro	11	Noviembre	2023-11-25T00:00:00	2024-11-08T13:00:00	7	Dirección del viento	9.66
186295	7	Sololá	719	Santiago Atitlán	14	Cerro de Oro	11	Noviembre	2023-11-25T00:00:00	2024-11-08T13:00:00	1	Precipitación	0
186296	7	Sololá	719	Santiago Atitlán	14	Cerro de Oro	11	Noviembre	2023-11-25T00:00:00	2024-11-08T13:00:00	8	Radiación solar	775
186297	7	Sololá	719	Santiago Atitlán	14	Cerro de Oro	11	Noviembre	2023-11-25T00:00:00	2024-11-08T14:00:00	2	Temperatura media	23.4
186298	7	Sololá	719	Santiago Atitlán	14	Cerro de Oro	11	Noviembre	2023-11-25T00:00:00	2024-11-08T14:00:00	4	Temperatura máxima	24.8
186299	7	Sololá	719	Santiago Atitlán	14	Cerro de Oro	11	Noviembre	2023-11-25T00:00:00	2024-11-08T14:00:00	3	Temperatura mínima	23.4
186300	7	Sololá	719	Santiago Atitlán	14	Cerro de Oro	11	Noviembre	2023-11-25T00:00:00	2024-11-08T14:00:00	5	Humedad	77
186301	7	Sololá	719	Santiago Atitlán	14	Cerro de Oro	11	Noviembre	2023-11-25T00:00:00	2024-11-08T14:00:00	6	Velocidad del viento	11.3
186302	7	Sololá	719	Santiago Atitlán	14	Cerro de Oro	11	Noviembre	2023-11-25T00:00:00	2024-11-08T14:00:00	7	Dirección del viento	11.27
186303	7	Sololá	719	Santiago Atitlán	14	Cerro de Oro	11	Noviembre	2023-11-25T00:00:00	2024-11-08T14:00:00	1	Precipitación	0
186304	7	Sololá	719	Santiago Atitlán	14	Cerro de Oro	11	Noviembre	2023-11-25T00:00:00	2024-11-08T14:00:00	8	Radiación solar	713
186305	7	Sololá	719	Santiago Atitlán	14	Cerro de Oro	11	Noviembre	2023-11-25T00:00:00	2024-11-08T15:00:00	2	Temperatura media	23.2
186306	7	Sololá	719	Santiago Atitlán	14	Cerro de Oro	11	Noviembre	2023-11-25T00:00:00	2024-11-08T15:00:00	4	Temperatura máxima	23.7
186307	7	Sololá	719	Santiago Atitlán	14	Cerro de Oro	11	Noviembre	2023-11-25T00:00:00	2024-11-08T15:00:00	3	Temperatura mínima	23
186308	7	Sololá	719	Santiago Atitlán	14	Cerro de Oro	11	Noviembre	2023-11-25T00:00:00	2024-11-08T15:00:00	5	Humedad	76
186309	7	Sololá	719	Santiago Atitlán	14	Cerro de Oro	11	Noviembre	2023-11-25T00:00:00	2024-11-08T15:00:00	6	Velocidad del viento	9.7
186310	7	Sololá	719	Santiago Atitlán	14	Cerro de Oro	11	Noviembre	2023-11-25T00:00:00	2024-11-08T15:00:00	7	Dirección del viento	9.66
186311	7	Sololá	719	Santiago Atitlán	14	Cerro de Oro	11	Noviembre	2023-11-25T00:00:00	2024-11-08T15:00:00	1	Precipitación	0
186312	7	Sololá	719	Santiago Atitlán	14	Cerro de Oro	11	Noviembre	2023-11-25T00:00:00	2024-11-08T15:00:00	8	Radiación solar	549
186313	7	Sololá	719	Santiago Atitlán	14	Cerro de Oro	11	Noviembre	2023-11-25T00:00:00	2024-11-08T16:00:00	2	Temperatura media	22.2
186314	7	Sololá	719	Santiago Atitlán	14	Cerro de Oro	11	Noviembre	2023-11-25T00:00:00	2024-11-08T16:00:00	4	Temperatura máxima	23.3
186315	7	Sololá	719	Santiago Atitlán	14	Cerro de Oro	11	Noviembre	2023-11-25T00:00:00	2024-11-08T16:00:00	3	Temperatura mínima	22.1
186316	7	Sololá	719	Santiago Atitlán	14	Cerro de Oro	11	Noviembre	2023-11-25T00:00:00	2024-11-08T16:00:00	5	Humedad	81
186317	7	Sololá	719	Santiago Atitlán	14	Cerro de Oro	11	Noviembre	2023-11-25T00:00:00	2024-11-08T16:00:00	6	Velocidad del viento	8
186318	7	Sololá	719	Santiago Atitlán	14	Cerro de Oro	11	Noviembre	2023-11-25T00:00:00	2024-11-08T16:00:00	7	Dirección del viento	8.05
186319	7	Sololá	719	Santiago Atitlán	14	Cerro de Oro	11	Noviembre	2023-11-25T00:00:00	2024-11-08T16:00:00	1	Precipitación	0
186320	7	Sololá	719	Santiago Atitlán	14	Cerro de Oro	11	Noviembre	2023-11-25T00:00:00	2024-11-08T16:00:00	8	Radiación solar	312
186321	7	Sololá	719	Santiago Atitlán	14	Cerro de Oro	11	Noviembre	2023-11-25T00:00:00	2024-11-08T17:00:00	2	Temperatura media	20.6
186322	7	Sololá	719	Santiago Atitlán	14	Cerro de Oro	11	Noviembre	2023-11-25T00:00:00	2024-11-08T17:00:00	4	Temperatura máxima	22.2
186323	7	Sololá	719	Santiago Atitlán	14	Cerro de Oro	11	Noviembre	2023-11-25T00:00:00	2024-11-08T17:00:00	3	Temperatura mínima	20.6
186324	7	Sololá	719	Santiago Atitlán	14	Cerro de Oro	11	Noviembre	2023-11-25T00:00:00	2024-11-08T17:00:00	5	Humedad	85
186325	7	Sololá	719	Santiago Atitlán	14	Cerro de Oro	11	Noviembre	2023-11-25T00:00:00	2024-11-08T17:00:00	6	Velocidad del viento	9.7
186326	7	Sololá	719	Santiago Atitlán	14	Cerro de Oro	11	Noviembre	2023-11-25T00:00:00	2024-11-08T17:00:00	7	Dirección del viento	9.66
186327	7	Sololá	719	Santiago Atitlán	14	Cerro de Oro	11	Noviembre	2023-11-25T00:00:00	2024-11-08T17:00:00	1	Precipitación	0
186328	7	Sololá	719	Santiago Atitlán	14	Cerro de Oro	11	Noviembre	2023-11-25T00:00:00	2024-11-08T17:00:00	8	Radiación solar	47
186329	7	Sololá	719	Santiago Atitlán	14	Cerro de Oro	11	Noviembre	2023-11-25T00:00:00	2024-11-08T18:00:00	2	Temperatura media	19.6
186330	7	Sololá	719	Santiago Atitlán	14	Cerro de Oro	11	Noviembre	2023-11-25T00:00:00	2024-11-08T18:00:00	4	Temperatura máxima	20.6
186331	7	Sololá	719	Santiago Atitlán	14	Cerro de Oro	11	Noviembre	2023-11-25T00:00:00	2024-11-08T18:00:00	3	Temperatura mínima	19.6
186332	7	Sololá	719	Santiago Atitlán	14	Cerro de Oro	11	Noviembre	2023-11-25T00:00:00	2024-11-08T18:00:00	5	Humedad	87
186333	7	Sololá	719	Santiago Atitlán	14	Cerro de Oro	11	Noviembre	2023-11-25T00:00:00	2024-11-08T18:00:00	6	Velocidad del viento	4.8
186334	7	Sololá	719	Santiago Atitlán	14	Cerro de Oro	11	Noviembre	2023-11-25T00:00:00	2024-11-08T18:00:00	7	Dirección del viento	4.83
186335	7	Sololá	719	Santiago Atitlán	14	Cerro de Oro	11	Noviembre	2023-11-25T00:00:00	2024-11-08T18:00:00	1	Precipitación	0
186336	7	Sololá	719	Santiago Atitlán	14	Cerro de Oro	11	Noviembre	2023-11-25T00:00:00	2024-11-08T18:00:00	8	Radiación solar	8
186337	7	Sololá	719	Santiago Atitlán	14	Cerro de Oro	11	Noviembre	2023-11-25T00:00:00	2024-11-08T19:00:00	2	Temperatura media	20.4
186338	7	Sololá	719	Santiago Atitlán	14	Cerro de Oro	11	Noviembre	2023-11-25T00:00:00	2024-11-08T19:00:00	4	Temperatura máxima	20.4
186339	7	Sololá	719	Santiago Atitlán	14	Cerro de Oro	11	Noviembre	2023-11-25T00:00:00	2024-11-08T19:00:00	3	Temperatura mínima	19.3
186340	7	Sololá	719	Santiago Atitlán	14	Cerro de Oro	11	Noviembre	2023-11-25T00:00:00	2024-11-08T19:00:00	5	Humedad	78
186341	7	Sololá	719	Santiago Atitlán	14	Cerro de Oro	11	Noviembre	2023-11-25T00:00:00	2024-11-08T19:00:00	6	Velocidad del viento	4.8
186342	7	Sololá	719	Santiago Atitlán	14	Cerro de Oro	11	Noviembre	2023-11-25T00:00:00	2024-11-08T19:00:00	7	Dirección del viento	4.83
186343	7	Sololá	719	Santiago Atitlán	14	Cerro de Oro	11	Noviembre	2023-11-25T00:00:00	2024-11-08T19:00:00	1	Precipitación	0
186344	7	Sololá	719	Santiago Atitlán	14	Cerro de Oro	11	Noviembre	2023-11-25T00:00:00	2024-11-08T19:00:00	8	Radiación solar	0
186345	7	Sololá	719	Santiago Atitlán	14	Cerro de Oro	11	Noviembre	2023-11-25T00:00:00	2024-11-08T20:00:00	2	Temperatura media	20.7
186346	7	Sololá	719	Santiago Atitlán	14	Cerro de Oro	11	Noviembre	2023-11-25T00:00:00	2024-11-08T20:00:00	4	Temperatura máxima	20.8
186347	7	Sololá	719	Santiago Atitlán	14	Cerro de Oro	11	Noviembre	2023-11-25T00:00:00	2024-11-08T20:00:00	3	Temperatura mínima	20.3
186348	7	Sololá	719	Santiago Atitlán	14	Cerro de Oro	11	Noviembre	2023-11-25T00:00:00	2024-11-08T20:00:00	5	Humedad	74
186349	7	Sololá	719	Santiago Atitlán	14	Cerro de Oro	11	Noviembre	2023-11-25T00:00:00	2024-11-08T20:00:00	6	Velocidad del viento	9.7
186350	7	Sololá	719	Santiago Atitlán	14	Cerro de Oro	11	Noviembre	2023-11-25T00:00:00	2024-11-08T20:00:00	7	Dirección del viento	9.66
186351	7	Sololá	719	Santiago Atitlán	14	Cerro de Oro	11	Noviembre	2023-11-25T00:00:00	2024-11-08T20:00:00	1	Precipitación	0
186352	7	Sololá	719	Santiago Atitlán	14	Cerro de Oro	11	Noviembre	2023-11-25T00:00:00	2024-11-08T20:00:00	8	Radiación solar	0
186353	7	Sololá	719	Santiago Atitlán	14	Cerro de Oro	11	Noviembre	2023-11-25T00:00:00	2024-11-08T21:00:00	2	Temperatura media	20.3
186354	7	Sololá	719	Santiago Atitlán	14	Cerro de Oro	11	Noviembre	2023-11-25T00:00:00	2024-11-08T21:00:00	4	Temperatura máxima	20.8
186355	7	Sololá	719	Santiago Atitlán	14	Cerro de Oro	11	Noviembre	2023-11-25T00:00:00	2024-11-08T21:00:00	3	Temperatura mínima	20.1
186356	7	Sololá	719	Santiago Atitlán	14	Cerro de Oro	11	Noviembre	2023-11-25T00:00:00	2024-11-08T21:00:00	5	Humedad	74
186357	7	Sololá	719	Santiago Atitlán	14	Cerro de Oro	11	Noviembre	2023-11-25T00:00:00	2024-11-08T21:00:00	6	Velocidad del viento	11.3
186358	7	Sololá	719	Santiago Atitlán	14	Cerro de Oro	11	Noviembre	2023-11-25T00:00:00	2024-11-08T21:00:00	7	Dirección del viento	11.27
186359	7	Sololá	719	Santiago Atitlán	14	Cerro de Oro	11	Noviembre	2023-11-25T00:00:00	2024-11-08T21:00:00	1	Precipitación	0
186360	7	Sololá	719	Santiago Atitlán	14	Cerro de Oro	11	Noviembre	2023-11-25T00:00:00	2024-11-08T21:00:00	8	Radiación solar	0
186361	7	Sololá	719	Santiago Atitlán	14	Cerro de Oro	11	Noviembre	2023-11-25T00:00:00	2024-11-08T22:00:00	2	Temperatura media	20.3
186362	7	Sololá	719	Santiago Atitlán	14	Cerro de Oro	11	Noviembre	2023-11-25T00:00:00	2024-11-08T22:00:00	4	Temperatura máxima	20.6
186363	7	Sololá	719	Santiago Atitlán	14	Cerro de Oro	11	Noviembre	2023-11-25T00:00:00	2024-11-08T22:00:00	3	Temperatura mínima	20.1
186364	7	Sololá	719	Santiago Atitlán	14	Cerro de Oro	11	Noviembre	2023-11-25T00:00:00	2024-11-08T22:00:00	5	Humedad	73
186365	7	Sololá	719	Santiago Atitlán	14	Cerro de Oro	11	Noviembre	2023-11-25T00:00:00	2024-11-08T22:00:00	6	Velocidad del viento	12.9
186366	7	Sololá	719	Santiago Atitlán	14	Cerro de Oro	11	Noviembre	2023-11-25T00:00:00	2024-11-08T22:00:00	7	Dirección del viento	12.87
186367	7	Sololá	719	Santiago Atitlán	14	Cerro de Oro	11	Noviembre	2023-11-25T00:00:00	2024-11-08T22:00:00	1	Precipitación	0
186368	7	Sololá	719	Santiago Atitlán	14	Cerro de Oro	11	Noviembre	2023-11-25T00:00:00	2024-11-08T22:00:00	8	Radiación solar	0
186369	7	Sololá	719	Santiago Atitlán	14	Cerro de Oro	11	Noviembre	2023-11-25T00:00:00	2024-11-08T23:00:00	2	Temperatura media	20.4
186370	7	Sololá	719	Santiago Atitlán	14	Cerro de Oro	11	Noviembre	2023-11-25T00:00:00	2024-11-08T23:00:00	4	Temperatura máxima	20.4
186371	7	Sololá	719	Santiago Atitlán	14	Cerro de Oro	11	Noviembre	2023-11-25T00:00:00	2024-11-08T23:00:00	3	Temperatura mínima	19.8
186372	7	Sololá	719	Santiago Atitlán	14	Cerro de Oro	11	Noviembre	2023-11-25T00:00:00	2024-11-08T23:00:00	5	Humedad	73
186373	7	Sololá	719	Santiago Atitlán	14	Cerro de Oro	11	Noviembre	2023-11-25T00:00:00	2024-11-08T23:00:00	6	Velocidad del viento	9.7
186374	7	Sololá	719	Santiago Atitlán	14	Cerro de Oro	11	Noviembre	2023-11-25T00:00:00	2024-11-08T23:00:00	7	Dirección del viento	9.66
186375	7	Sololá	719	Santiago Atitlán	14	Cerro de Oro	11	Noviembre	2023-11-25T00:00:00	2024-11-08T23:00:00	1	Precipitación	0
186376	7	Sololá	719	Santiago Atitlán	14	Cerro de Oro	11	Noviembre	2023-11-25T00:00:00	2024-11-08T23:00:00	8	Radiación solar	0
186377	7	Sololá	719	Santiago Atitlán	14	Cerro de Oro	11	Noviembre	2023-11-26T00:00:00	2024-11-08T00:00:00	2	Temperatura media	19.8
186378	7	Sololá	719	Santiago Atitlán	14	Cerro de Oro	11	Noviembre	2023-11-26T00:00:00	2024-11-08T00:00:00	4	Temperatura máxima	20.4
186379	7	Sololá	719	Santiago Atitlán	14	Cerro de Oro	11	Noviembre	2023-11-26T00:00:00	2024-11-08T00:00:00	3	Temperatura mínima	19.8
186380	7	Sololá	719	Santiago Atitlán	14	Cerro de Oro	11	Noviembre	2023-11-26T00:00:00	2024-11-08T00:00:00	5	Humedad	76
186381	7	Sololá	719	Santiago Atitlán	14	Cerro de Oro	11	Noviembre	2023-11-26T00:00:00	2024-11-08T00:00:00	6	Velocidad del viento	8
186382	7	Sololá	719	Santiago Atitlán	14	Cerro de Oro	11	Noviembre	2023-11-26T00:00:00	2024-11-08T00:00:00	7	Dirección del viento	8.05
186383	7	Sololá	719	Santiago Atitlán	14	Cerro de Oro	11	Noviembre	2023-11-26T00:00:00	2024-11-08T00:00:00	1	Precipitación	0
186384	7	Sololá	719	Santiago Atitlán	14	Cerro de Oro	11	Noviembre	2023-11-26T00:00:00	2024-11-08T00:00:00	8	Radiación solar	0
186385	7	Sololá	719	Santiago Atitlán	14	Cerro de Oro	11	Noviembre	2023-11-26T00:00:00	2024-11-08T01:00:00	2	Temperatura media	19.7
186386	7	Sololá	719	Santiago Atitlán	14	Cerro de Oro	11	Noviembre	2023-11-26T00:00:00	2024-11-08T01:00:00	4	Temperatura máxima	19.9
186387	7	Sololá	719	Santiago Atitlán	14	Cerro de Oro	11	Noviembre	2023-11-26T00:00:00	2024-11-08T01:00:00	3	Temperatura mínima	19.7
186388	7	Sololá	719	Santiago Atitlán	14	Cerro de Oro	11	Noviembre	2023-11-26T00:00:00	2024-11-08T01:00:00	5	Humedad	78
186389	7	Sololá	719	Santiago Atitlán	14	Cerro de Oro	11	Noviembre	2023-11-26T00:00:00	2024-11-08T01:00:00	6	Velocidad del viento	11.3
186390	7	Sololá	719	Santiago Atitlán	14	Cerro de Oro	11	Noviembre	2023-11-26T00:00:00	2024-11-08T01:00:00	7	Dirección del viento	11.27
186391	7	Sololá	719	Santiago Atitlán	14	Cerro de Oro	11	Noviembre	2023-11-26T00:00:00	2024-11-08T01:00:00	1	Precipitación	0
186392	7	Sololá	719	Santiago Atitlán	14	Cerro de Oro	11	Noviembre	2023-11-26T00:00:00	2024-11-08T01:00:00	8	Radiación solar	0
186393	7	Sololá	719	Santiago Atitlán	14	Cerro de Oro	11	Noviembre	2023-11-26T00:00:00	2024-11-08T02:00:00	2	Temperatura media	18.6
186394	7	Sololá	719	Santiago Atitlán	14	Cerro de Oro	11	Noviembre	2023-11-26T00:00:00	2024-11-08T02:00:00	4	Temperatura máxima	19.8
186395	7	Sololá	719	Santiago Atitlán	14	Cerro de Oro	11	Noviembre	2023-11-26T00:00:00	2024-11-08T02:00:00	3	Temperatura mínima	18.6
186396	7	Sololá	719	Santiago Atitlán	14	Cerro de Oro	11	Noviembre	2023-11-26T00:00:00	2024-11-08T02:00:00	5	Humedad	77
186397	7	Sololá	719	Santiago Atitlán	14	Cerro de Oro	11	Noviembre	2023-11-26T00:00:00	2024-11-08T02:00:00	6	Velocidad del viento	8
186398	7	Sololá	719	Santiago Atitlán	14	Cerro de Oro	11	Noviembre	2023-11-26T00:00:00	2024-11-08T02:00:00	7	Dirección del viento	8.05
186399	7	Sololá	719	Santiago Atitlán	14	Cerro de Oro	11	Noviembre	2023-11-26T00:00:00	2024-11-08T02:00:00	1	Precipitación	0
186400	7	Sololá	719	Santiago Atitlán	14	Cerro de Oro	11	Noviembre	2023-11-26T00:00:00	2024-11-08T02:00:00	8	Radiación solar	0
186401	7	Sololá	719	Santiago Atitlán	14	Cerro de Oro	11	Noviembre	2023-11-26T00:00:00	2024-11-08T03:00:00	2	Temperatura media	18.2
186402	7	Sololá	719	Santiago Atitlán	14	Cerro de Oro	11	Noviembre	2023-11-26T00:00:00	2024-11-08T03:00:00	4	Temperatura máxima	18.6
186403	7	Sololá	719	Santiago Atitlán	14	Cerro de Oro	11	Noviembre	2023-11-26T00:00:00	2024-11-08T03:00:00	3	Temperatura mínima	17.5
186404	7	Sololá	719	Santiago Atitlán	14	Cerro de Oro	11	Noviembre	2023-11-26T00:00:00	2024-11-08T03:00:00	5	Humedad	78
186405	7	Sololá	719	Santiago Atitlán	14	Cerro de Oro	11	Noviembre	2023-11-26T00:00:00	2024-11-08T03:00:00	6	Velocidad del viento	3.2
186406	7	Sololá	719	Santiago Atitlán	14	Cerro de Oro	11	Noviembre	2023-11-26T00:00:00	2024-11-08T03:00:00	7	Dirección del viento	3.22
186407	7	Sololá	719	Santiago Atitlán	14	Cerro de Oro	11	Noviembre	2023-11-26T00:00:00	2024-11-08T03:00:00	1	Precipitación	0
186408	7	Sololá	719	Santiago Atitlán	14	Cerro de Oro	11	Noviembre	2023-11-26T00:00:00	2024-11-08T03:00:00	8	Radiación solar	0
186409	7	Sololá	719	Santiago Atitlán	14	Cerro de Oro	11	Noviembre	2023-11-26T00:00:00	2024-11-08T04:00:00	2	Temperatura media	17.7
186410	7	Sololá	719	Santiago Atitlán	14	Cerro de Oro	11	Noviembre	2023-11-26T00:00:00	2024-11-08T04:00:00	4	Temperatura máxima	18.3
186411	7	Sololá	719	Santiago Atitlán	14	Cerro de Oro	11	Noviembre	2023-11-26T00:00:00	2024-11-08T04:00:00	3	Temperatura mínima	17.6
186412	7	Sololá	719	Santiago Atitlán	14	Cerro de Oro	11	Noviembre	2023-11-26T00:00:00	2024-11-08T04:00:00	5	Humedad	80
186413	7	Sololá	719	Santiago Atitlán	14	Cerro de Oro	11	Noviembre	2023-11-26T00:00:00	2024-11-08T04:00:00	6	Velocidad del viento	4.8
186414	7	Sololá	719	Santiago Atitlán	14	Cerro de Oro	11	Noviembre	2023-11-26T00:00:00	2024-11-08T04:00:00	7	Dirección del viento	4.83
186415	7	Sololá	719	Santiago Atitlán	14	Cerro de Oro	11	Noviembre	2023-11-26T00:00:00	2024-11-08T04:00:00	1	Precipitación	0
186416	7	Sololá	719	Santiago Atitlán	14	Cerro de Oro	11	Noviembre	2023-11-26T00:00:00	2024-11-08T04:00:00	8	Radiación solar	0
186417	7	Sololá	719	Santiago Atitlán	14	Cerro de Oro	11	Noviembre	2023-11-26T00:00:00	2024-11-08T05:00:00	2	Temperatura media	17.1
186418	7	Sololá	719	Santiago Atitlán	14	Cerro de Oro	11	Noviembre	2023-11-26T00:00:00	2024-11-08T05:00:00	4	Temperatura máxima	17.7
186419	7	Sololá	719	Santiago Atitlán	14	Cerro de Oro	11	Noviembre	2023-11-26T00:00:00	2024-11-08T05:00:00	3	Temperatura mínima	16.9
186420	7	Sololá	719	Santiago Atitlán	14	Cerro de Oro	11	Noviembre	2023-11-26T00:00:00	2024-11-08T05:00:00	5	Humedad	82
186421	7	Sololá	719	Santiago Atitlán	14	Cerro de Oro	11	Noviembre	2023-11-26T00:00:00	2024-11-08T05:00:00	6	Velocidad del viento	6.4
186422	7	Sololá	719	Santiago Atitlán	14	Cerro de Oro	11	Noviembre	2023-11-26T00:00:00	2024-11-08T05:00:00	7	Dirección del viento	6.44
186423	7	Sololá	719	Santiago Atitlán	14	Cerro de Oro	11	Noviembre	2023-11-26T00:00:00	2024-11-08T05:00:00	1	Precipitación	0
186424	7	Sololá	719	Santiago Atitlán	14	Cerro de Oro	11	Noviembre	2023-11-26T00:00:00	2024-11-08T05:00:00	8	Radiación solar	0
186425	7	Sololá	719	Santiago Atitlán	14	Cerro de Oro	11	Noviembre	2023-11-26T00:00:00	2024-11-08T06:00:00	2	Temperatura media	17.2
186426	7	Sololá	719	Santiago Atitlán	14	Cerro de Oro	11	Noviembre	2023-11-26T00:00:00	2024-11-08T06:00:00	4	Temperatura máxima	17.6
186427	7	Sololá	719	Santiago Atitlán	14	Cerro de Oro	11	Noviembre	2023-11-26T00:00:00	2024-11-08T06:00:00	3	Temperatura mínima	17.1
186428	7	Sololá	719	Santiago Atitlán	14	Cerro de Oro	11	Noviembre	2023-11-26T00:00:00	2024-11-08T06:00:00	5	Humedad	79
186429	7	Sololá	719	Santiago Atitlán	14	Cerro de Oro	11	Noviembre	2023-11-26T00:00:00	2024-11-08T06:00:00	6	Velocidad del viento	4.8
186430	7	Sololá	719	Santiago Atitlán	14	Cerro de Oro	11	Noviembre	2023-11-26T00:00:00	2024-11-08T06:00:00	7	Dirección del viento	4.83
186431	7	Sololá	719	Santiago Atitlán	14	Cerro de Oro	11	Noviembre	2023-11-26T00:00:00	2024-11-08T06:00:00	1	Precipitación	0
186432	7	Sololá	719	Santiago Atitlán	14	Cerro de Oro	11	Noviembre	2023-11-26T00:00:00	2024-11-08T06:00:00	8	Radiación solar	0
186433	7	Sololá	719	Santiago Atitlán	14	Cerro de Oro	11	Noviembre	2023-11-26T00:00:00	2024-11-08T07:00:00	2	Temperatura media	18.5
186434	7	Sololá	719	Santiago Atitlán	14	Cerro de Oro	11	Noviembre	2023-11-26T00:00:00	2024-11-08T07:00:00	4	Temperatura máxima	18.5
186435	7	Sololá	719	Santiago Atitlán	14	Cerro de Oro	11	Noviembre	2023-11-26T00:00:00	2024-11-08T07:00:00	3	Temperatura mínima	17.2
186436	7	Sololá	719	Santiago Atitlán	14	Cerro de Oro	11	Noviembre	2023-11-26T00:00:00	2024-11-08T07:00:00	5	Humedad	75
186437	7	Sololá	719	Santiago Atitlán	14	Cerro de Oro	11	Noviembre	2023-11-26T00:00:00	2024-11-08T07:00:00	6	Velocidad del viento	4.8
186438	7	Sololá	719	Santiago Atitlán	14	Cerro de Oro	11	Noviembre	2023-11-26T00:00:00	2024-11-08T07:00:00	7	Dirección del viento	4.83
186439	7	Sololá	719	Santiago Atitlán	14	Cerro de Oro	11	Noviembre	2023-11-26T00:00:00	2024-11-08T07:00:00	1	Precipitación	0
186440	7	Sololá	719	Santiago Atitlán	14	Cerro de Oro	11	Noviembre	2023-11-26T00:00:00	2024-11-08T07:00:00	8	Radiación solar	29
186441	7	Sololá	719	Santiago Atitlán	14	Cerro de Oro	11	Noviembre	2023-11-26T00:00:00	2024-11-08T08:00:00	2	Temperatura media	20.8
186442	7	Sololá	719	Santiago Atitlán	14	Cerro de Oro	11	Noviembre	2023-11-26T00:00:00	2024-11-08T08:00:00	4	Temperatura máxima	20.8
186443	7	Sololá	719	Santiago Atitlán	14	Cerro de Oro	11	Noviembre	2023-11-26T00:00:00	2024-11-08T08:00:00	3	Temperatura mínima	18.5
186444	7	Sololá	719	Santiago Atitlán	14	Cerro de Oro	11	Noviembre	2023-11-26T00:00:00	2024-11-08T08:00:00	5	Humedad	70
186445	7	Sololá	719	Santiago Atitlán	14	Cerro de Oro	11	Noviembre	2023-11-26T00:00:00	2024-11-08T08:00:00	6	Velocidad del viento	1.6
186446	7	Sololá	719	Santiago Atitlán	14	Cerro de Oro	11	Noviembre	2023-11-26T00:00:00	2024-11-08T08:00:00	7	Dirección del viento	1.61
186447	7	Sololá	719	Santiago Atitlán	14	Cerro de Oro	11	Noviembre	2023-11-26T00:00:00	2024-11-08T08:00:00	1	Precipitación	0
186448	7	Sololá	719	Santiago Atitlán	14	Cerro de Oro	11	Noviembre	2023-11-26T00:00:00	2024-11-08T08:00:00	8	Radiación solar	185
186449	7	Sololá	719	Santiago Atitlán	14	Cerro de Oro	11	Noviembre	2023-11-26T00:00:00	2024-11-08T09:00:00	2	Temperatura media	22.6
186450	7	Sololá	719	Santiago Atitlán	14	Cerro de Oro	11	Noviembre	2023-11-26T00:00:00	2024-11-08T09:00:00	4	Temperatura máxima	22.8
186451	7	Sololá	719	Santiago Atitlán	14	Cerro de Oro	11	Noviembre	2023-11-26T00:00:00	2024-11-08T09:00:00	3	Temperatura mínima	20.7
186452	7	Sololá	719	Santiago Atitlán	14	Cerro de Oro	11	Noviembre	2023-11-26T00:00:00	2024-11-08T09:00:00	5	Humedad	59
186453	7	Sololá	719	Santiago Atitlán	14	Cerro de Oro	11	Noviembre	2023-11-26T00:00:00	2024-11-08T09:00:00	6	Velocidad del viento	3.2
186454	7	Sololá	719	Santiago Atitlán	14	Cerro de Oro	11	Noviembre	2023-11-26T00:00:00	2024-11-08T09:00:00	7	Dirección del viento	3.22
186455	7	Sololá	719	Santiago Atitlán	14	Cerro de Oro	11	Noviembre	2023-11-26T00:00:00	2024-11-08T09:00:00	1	Precipitación	0
186456	7	Sololá	719	Santiago Atitlán	14	Cerro de Oro	11	Noviembre	2023-11-26T00:00:00	2024-11-08T09:00:00	8	Radiación solar	407
186457	7	Sololá	719	Santiago Atitlán	14	Cerro de Oro	11	Noviembre	2023-11-26T00:00:00	2024-11-08T10:00:00	2	Temperatura media	23.6
186458	7	Sololá	719	Santiago Atitlán	14	Cerro de Oro	11	Noviembre	2023-11-26T00:00:00	2024-11-08T10:00:00	4	Temperatura máxima	23.7
186459	7	Sololá	719	Santiago Atitlán	14	Cerro de Oro	11	Noviembre	2023-11-26T00:00:00	2024-11-08T10:00:00	3	Temperatura mínima	22.6
186460	7	Sololá	719	Santiago Atitlán	14	Cerro de Oro	11	Noviembre	2023-11-26T00:00:00	2024-11-08T10:00:00	5	Humedad	62
186461	7	Sololá	719	Santiago Atitlán	14	Cerro de Oro	11	Noviembre	2023-11-26T00:00:00	2024-11-08T10:00:00	6	Velocidad del viento	3.2
186462	7	Sololá	719	Santiago Atitlán	14	Cerro de Oro	11	Noviembre	2023-11-26T00:00:00	2024-11-08T10:00:00	7	Dirección del viento	3.22
186463	7	Sololá	719	Santiago Atitlán	14	Cerro de Oro	11	Noviembre	2023-11-26T00:00:00	2024-11-08T10:00:00	1	Precipitación	0
186464	7	Sololá	719	Santiago Atitlán	14	Cerro de Oro	11	Noviembre	2023-11-26T00:00:00	2024-11-08T10:00:00	8	Radiación solar	608
186465	7	Sololá	719	Santiago Atitlán	14	Cerro de Oro	11	Noviembre	2023-11-26T00:00:00	2024-11-08T11:00:00	2	Temperatura media	24.6
186466	7	Sololá	719	Santiago Atitlán	14	Cerro de Oro	11	Noviembre	2023-11-26T00:00:00	2024-11-08T11:00:00	4	Temperatura máxima	25
186467	7	Sololá	719	Santiago Atitlán	14	Cerro de Oro	11	Noviembre	2023-11-26T00:00:00	2024-11-08T11:00:00	3	Temperatura mínima	23.5
186468	7	Sololá	719	Santiago Atitlán	14	Cerro de Oro	11	Noviembre	2023-11-26T00:00:00	2024-11-08T11:00:00	5	Humedad	60
186469	7	Sololá	719	Santiago Atitlán	14	Cerro de Oro	11	Noviembre	2023-11-26T00:00:00	2024-11-08T11:00:00	6	Velocidad del viento	6.4
186470	7	Sololá	719	Santiago Atitlán	14	Cerro de Oro	11	Noviembre	2023-11-26T00:00:00	2024-11-08T11:00:00	7	Dirección del viento	6.44
186471	7	Sololá	719	Santiago Atitlán	14	Cerro de Oro	11	Noviembre	2023-11-26T00:00:00	2024-11-08T11:00:00	1	Precipitación	0
186472	7	Sololá	719	Santiago Atitlán	14	Cerro de Oro	11	Noviembre	2023-11-26T00:00:00	2024-11-08T11:00:00	8	Radiación solar	728
186473	7	Sololá	719	Santiago Atitlán	14	Cerro de Oro	11	Noviembre	2023-11-26T00:00:00	2024-11-08T12:00:00	2	Temperatura media	25.1
186474	7	Sololá	719	Santiago Atitlán	14	Cerro de Oro	11	Noviembre	2023-11-26T00:00:00	2024-11-08T12:00:00	4	Temperatura máxima	25.1
186475	7	Sololá	719	Santiago Atitlán	14	Cerro de Oro	11	Noviembre	2023-11-26T00:00:00	2024-11-08T12:00:00	3	Temperatura mínima	24.4
186476	7	Sololá	719	Santiago Atitlán	14	Cerro de Oro	11	Noviembre	2023-11-26T00:00:00	2024-11-08T12:00:00	5	Humedad	59
186477	7	Sololá	719	Santiago Atitlán	14	Cerro de Oro	11	Noviembre	2023-11-26T00:00:00	2024-11-08T12:00:00	6	Velocidad del viento	11.3
186478	7	Sololá	719	Santiago Atitlán	14	Cerro de Oro	11	Noviembre	2023-11-26T00:00:00	2024-11-08T12:00:00	7	Dirección del viento	11.27
186479	7	Sololá	719	Santiago Atitlán	14	Cerro de Oro	11	Noviembre	2023-11-26T00:00:00	2024-11-08T12:00:00	1	Precipitación	0
186480	7	Sololá	719	Santiago Atitlán	14	Cerro de Oro	11	Noviembre	2023-11-26T00:00:00	2024-11-08T12:00:00	8	Radiación solar	778
186481	7	Sololá	719	Santiago Atitlán	14	Cerro de Oro	11	Noviembre	2023-11-26T00:00:00	2024-11-08T13:00:00	2	Temperatura media	24.2
186482	7	Sololá	719	Santiago Atitlán	14	Cerro de Oro	11	Noviembre	2023-11-26T00:00:00	2024-11-08T13:00:00	4	Temperatura máxima	25.5
186483	7	Sololá	719	Santiago Atitlán	14	Cerro de Oro	11	Noviembre	2023-11-26T00:00:00	2024-11-08T13:00:00	3	Temperatura mínima	23.9
186484	7	Sololá	719	Santiago Atitlán	14	Cerro de Oro	11	Noviembre	2023-11-26T00:00:00	2024-11-08T13:00:00	5	Humedad	70
186485	7	Sololá	719	Santiago Atitlán	14	Cerro de Oro	11	Noviembre	2023-11-26T00:00:00	2024-11-08T13:00:00	6	Velocidad del viento	14.5
186486	7	Sololá	719	Santiago Atitlán	14	Cerro de Oro	11	Noviembre	2023-11-26T00:00:00	2024-11-08T13:00:00	7	Dirección del viento	14.48
186487	7	Sololá	719	Santiago Atitlán	14	Cerro de Oro	11	Noviembre	2023-11-26T00:00:00	2024-11-08T13:00:00	1	Precipitación	0
186488	7	Sololá	719	Santiago Atitlán	14	Cerro de Oro	11	Noviembre	2023-11-26T00:00:00	2024-11-08T13:00:00	8	Radiación solar	775
186489	7	Sololá	719	Santiago Atitlán	14	Cerro de Oro	11	Noviembre	2023-11-26T00:00:00	2024-11-08T14:00:00	2	Temperatura media	24.8
186490	7	Sololá	719	Santiago Atitlán	14	Cerro de Oro	11	Noviembre	2023-11-26T00:00:00	2024-11-08T14:00:00	4	Temperatura máxima	24.9
186491	7	Sololá	719	Santiago Atitlán	14	Cerro de Oro	11	Noviembre	2023-11-26T00:00:00	2024-11-08T14:00:00	3	Temperatura mínima	23.8
186492	7	Sololá	719	Santiago Atitlán	14	Cerro de Oro	11	Noviembre	2023-11-26T00:00:00	2024-11-08T14:00:00	5	Humedad	66
186493	7	Sololá	719	Santiago Atitlán	14	Cerro de Oro	11	Noviembre	2023-11-26T00:00:00	2024-11-08T14:00:00	6	Velocidad del viento	12.9
186494	7	Sololá	719	Santiago Atitlán	14	Cerro de Oro	11	Noviembre	2023-11-26T00:00:00	2024-11-08T14:00:00	7	Dirección del viento	12.87
186495	7	Sololá	719	Santiago Atitlán	14	Cerro de Oro	11	Noviembre	2023-11-26T00:00:00	2024-11-08T14:00:00	1	Precipitación	0
186496	7	Sololá	719	Santiago Atitlán	14	Cerro de Oro	11	Noviembre	2023-11-26T00:00:00	2024-11-08T14:00:00	8	Radiación solar	698
186497	7	Sololá	719	Santiago Atitlán	14	Cerro de Oro	11	Noviembre	2023-11-26T00:00:00	2024-11-08T15:00:00	2	Temperatura media	23.5
186498	7	Sololá	719	Santiago Atitlán	14	Cerro de Oro	11	Noviembre	2023-11-26T00:00:00	2024-11-08T15:00:00	4	Temperatura máxima	24.8
186499	7	Sololá	719	Santiago Atitlán	14	Cerro de Oro	11	Noviembre	2023-11-26T00:00:00	2024-11-08T15:00:00	3	Temperatura mínima	23.3
186500	7	Sololá	719	Santiago Atitlán	14	Cerro de Oro	11	Noviembre	2023-11-26T00:00:00	2024-11-08T15:00:00	5	Humedad	75
186501	7	Sololá	719	Santiago Atitlán	14	Cerro de Oro	11	Noviembre	2023-11-26T00:00:00	2024-11-08T15:00:00	6	Velocidad del viento	14.5
186502	7	Sololá	719	Santiago Atitlán	14	Cerro de Oro	11	Noviembre	2023-11-26T00:00:00	2024-11-08T15:00:00	7	Dirección del viento	14.48
186503	7	Sololá	719	Santiago Atitlán	14	Cerro de Oro	11	Noviembre	2023-11-26T00:00:00	2024-11-08T15:00:00	1	Precipitación	0
186504	7	Sololá	719	Santiago Atitlán	14	Cerro de Oro	11	Noviembre	2023-11-26T00:00:00	2024-11-08T15:00:00	8	Radiación solar	562
186505	7	Sololá	719	Santiago Atitlán	14	Cerro de Oro	11	Noviembre	2023-11-26T00:00:00	2024-11-08T16:00:00	2	Temperatura media	23.2
186506	7	Sololá	719	Santiago Atitlán	14	Cerro de Oro	11	Noviembre	2023-11-26T00:00:00	2024-11-08T16:00:00	4	Temperatura máxima	23.8
186507	7	Sololá	719	Santiago Atitlán	14	Cerro de Oro	11	Noviembre	2023-11-26T00:00:00	2024-11-08T16:00:00	3	Temperatura mínima	23.1
186508	7	Sololá	719	Santiago Atitlán	14	Cerro de Oro	11	Noviembre	2023-11-26T00:00:00	2024-11-08T16:00:00	5	Humedad	74
186509	7	Sololá	719	Santiago Atitlán	14	Cerro de Oro	11	Noviembre	2023-11-26T00:00:00	2024-11-08T16:00:00	6	Velocidad del viento	9.7
186510	7	Sololá	719	Santiago Atitlán	14	Cerro de Oro	11	Noviembre	2023-11-26T00:00:00	2024-11-08T16:00:00	7	Dirección del viento	9.66
186511	7	Sololá	719	Santiago Atitlán	14	Cerro de Oro	11	Noviembre	2023-11-26T00:00:00	2024-11-08T16:00:00	1	Precipitación	0
186512	7	Sololá	719	Santiago Atitlán	14	Cerro de Oro	11	Noviembre	2023-11-26T00:00:00	2024-11-08T16:00:00	8	Radiación solar	356
186513	7	Sololá	719	Santiago Atitlán	14	Cerro de Oro	11	Noviembre	2023-11-26T00:00:00	2024-11-08T17:00:00	2	Temperatura media	22.4
186514	7	Sololá	719	Santiago Atitlán	14	Cerro de Oro	11	Noviembre	2023-11-26T00:00:00	2024-11-08T17:00:00	4	Temperatura máxima	23.4
186515	7	Sololá	719	Santiago Atitlán	14	Cerro de Oro	11	Noviembre	2023-11-26T00:00:00	2024-11-08T17:00:00	3	Temperatura mínima	22.3
186516	7	Sololá	719	Santiago Atitlán	14	Cerro de Oro	11	Noviembre	2023-11-26T00:00:00	2024-11-08T17:00:00	5	Humedad	72
186517	7	Sololá	719	Santiago Atitlán	14	Cerro de Oro	11	Noviembre	2023-11-26T00:00:00	2024-11-08T17:00:00	6	Velocidad del viento	6.4
186518	7	Sololá	719	Santiago Atitlán	14	Cerro de Oro	11	Noviembre	2023-11-26T00:00:00	2024-11-08T17:00:00	7	Dirección del viento	6.44
186519	7	Sololá	719	Santiago Atitlán	14	Cerro de Oro	11	Noviembre	2023-11-26T00:00:00	2024-11-08T17:00:00	1	Precipitación	0
186520	7	Sololá	719	Santiago Atitlán	14	Cerro de Oro	11	Noviembre	2023-11-26T00:00:00	2024-11-08T17:00:00	8	Radiación solar	147
186521	7	Sololá	719	Santiago Atitlán	14	Cerro de Oro	11	Noviembre	2023-11-26T00:00:00	2024-11-08T18:00:00	2	Temperatura media	20.4
186522	7	Sololá	719	Santiago Atitlán	14	Cerro de Oro	11	Noviembre	2023-11-26T00:00:00	2024-11-08T18:00:00	4	Temperatura máxima	22.4
186523	7	Sololá	719	Santiago Atitlán	14	Cerro de Oro	11	Noviembre	2023-11-26T00:00:00	2024-11-08T18:00:00	3	Temperatura mínima	20.4
186524	7	Sololá	719	Santiago Atitlán	14	Cerro de Oro	11	Noviembre	2023-11-26T00:00:00	2024-11-08T18:00:00	5	Humedad	73
186525	7	Sololá	719	Santiago Atitlán	14	Cerro de Oro	11	Noviembre	2023-11-26T00:00:00	2024-11-08T18:00:00	6	Velocidad del viento	3.2
186526	7	Sololá	719	Santiago Atitlán	14	Cerro de Oro	11	Noviembre	2023-11-26T00:00:00	2024-11-08T18:00:00	7	Dirección del viento	3.22
186527	7	Sololá	719	Santiago Atitlán	14	Cerro de Oro	11	Noviembre	2023-11-26T00:00:00	2024-11-08T18:00:00	1	Precipitación	0
186528	7	Sololá	719	Santiago Atitlán	14	Cerro de Oro	11	Noviembre	2023-11-26T00:00:00	2024-11-08T18:00:00	8	Radiación solar	10
186529	7	Sololá	719	Santiago Atitlán	14	Cerro de Oro	11	Noviembre	2023-11-26T00:00:00	2024-11-08T19:00:00	2	Temperatura media	19.8
186530	7	Sololá	719	Santiago Atitlán	14	Cerro de Oro	11	Noviembre	2023-11-26T00:00:00	2024-11-08T19:00:00	4	Temperatura máxima	20.7
186531	7	Sololá	719	Santiago Atitlán	14	Cerro de Oro	11	Noviembre	2023-11-26T00:00:00	2024-11-08T19:00:00	3	Temperatura mínima	19.6
186532	7	Sololá	719	Santiago Atitlán	14	Cerro de Oro	11	Noviembre	2023-11-26T00:00:00	2024-11-08T19:00:00	5	Humedad	83
186533	7	Sololá	719	Santiago Atitlán	14	Cerro de Oro	11	Noviembre	2023-11-26T00:00:00	2024-11-08T19:00:00	6	Velocidad del viento	1.6
186534	7	Sololá	719	Santiago Atitlán	14	Cerro de Oro	11	Noviembre	2023-11-26T00:00:00	2024-11-08T19:00:00	7	Dirección del viento	1.61
186535	7	Sololá	719	Santiago Atitlán	14	Cerro de Oro	11	Noviembre	2023-11-26T00:00:00	2024-11-08T19:00:00	1	Precipitación	0
186536	7	Sololá	719	Santiago Atitlán	14	Cerro de Oro	11	Noviembre	2023-11-26T00:00:00	2024-11-08T19:00:00	8	Radiación solar	0
186537	7	Sololá	719	Santiago Atitlán	14	Cerro de Oro	11	Noviembre	2023-11-26T00:00:00	2024-11-08T20:00:00	2	Temperatura media	19.5
186538	7	Sololá	719	Santiago Atitlán	14	Cerro de Oro	11	Noviembre	2023-11-26T00:00:00	2024-11-08T20:00:00	4	Temperatura máxima	20.1
186539	7	Sololá	719	Santiago Atitlán	14	Cerro de Oro	11	Noviembre	2023-11-26T00:00:00	2024-11-08T20:00:00	3	Temperatura mínima	19.2
186540	7	Sololá	719	Santiago Atitlán	14	Cerro de Oro	11	Noviembre	2023-11-26T00:00:00	2024-11-08T20:00:00	5	Humedad	79
186541	7	Sololá	719	Santiago Atitlán	14	Cerro de Oro	11	Noviembre	2023-11-26T00:00:00	2024-11-08T20:00:00	6	Velocidad del viento	4.8
186542	7	Sololá	719	Santiago Atitlán	14	Cerro de Oro	11	Noviembre	2023-11-26T00:00:00	2024-11-08T20:00:00	7	Dirección del viento	4.83
186543	7	Sololá	719	Santiago Atitlán	14	Cerro de Oro	11	Noviembre	2023-11-26T00:00:00	2024-11-08T20:00:00	1	Precipitación	0
186544	7	Sololá	719	Santiago Atitlán	14	Cerro de Oro	11	Noviembre	2023-11-26T00:00:00	2024-11-08T20:00:00	8	Radiación solar	0
186545	7	Sololá	719	Santiago Atitlán	14	Cerro de Oro	11	Noviembre	2023-11-26T00:00:00	2024-11-08T21:00:00	2	Temperatura media	19.6
186546	7	Sololá	719	Santiago Atitlán	14	Cerro de Oro	11	Noviembre	2023-11-26T00:00:00	2024-11-08T21:00:00	4	Temperatura máxima	19.6
186547	7	Sololá	719	Santiago Atitlán	14	Cerro de Oro	11	Noviembre	2023-11-26T00:00:00	2024-11-08T21:00:00	3	Temperatura mínima	19.1
186548	7	Sololá	719	Santiago Atitlán	14	Cerro de Oro	11	Noviembre	2023-11-26T00:00:00	2024-11-08T21:00:00	5	Humedad	76
186549	7	Sololá	719	Santiago Atitlán	14	Cerro de Oro	11	Noviembre	2023-11-26T00:00:00	2024-11-08T21:00:00	6	Velocidad del viento	6.4
186550	7	Sololá	719	Santiago Atitlán	14	Cerro de Oro	11	Noviembre	2023-11-26T00:00:00	2024-11-08T21:00:00	7	Dirección del viento	6.44
186551	7	Sololá	719	Santiago Atitlán	14	Cerro de Oro	11	Noviembre	2023-11-26T00:00:00	2024-11-08T21:00:00	1	Precipitación	0
186552	7	Sololá	719	Santiago Atitlán	14	Cerro de Oro	11	Noviembre	2023-11-26T00:00:00	2024-11-08T21:00:00	8	Radiación solar	0
186553	7	Sololá	719	Santiago Atitlán	14	Cerro de Oro	11	Noviembre	2023-11-26T00:00:00	2024-11-08T22:00:00	2	Temperatura media	19.5
186554	7	Sololá	719	Santiago Atitlán	14	Cerro de Oro	11	Noviembre	2023-11-26T00:00:00	2024-11-08T22:00:00	4	Temperatura máxima	19.9
186555	7	Sololá	719	Santiago Atitlán	14	Cerro de Oro	11	Noviembre	2023-11-26T00:00:00	2024-11-08T22:00:00	3	Temperatura mínima	19.1
186556	7	Sololá	719	Santiago Atitlán	14	Cerro de Oro	11	Noviembre	2023-11-26T00:00:00	2024-11-08T22:00:00	5	Humedad	75
186557	7	Sololá	719	Santiago Atitlán	14	Cerro de Oro	11	Noviembre	2023-11-26T00:00:00	2024-11-08T22:00:00	6	Velocidad del viento	4.8
186558	7	Sololá	719	Santiago Atitlán	14	Cerro de Oro	11	Noviembre	2023-11-26T00:00:00	2024-11-08T22:00:00	7	Dirección del viento	4.83
186559	7	Sololá	719	Santiago Atitlán	14	Cerro de Oro	11	Noviembre	2023-11-26T00:00:00	2024-11-08T22:00:00	1	Precipitación	0
186560	7	Sololá	719	Santiago Atitlán	14	Cerro de Oro	11	Noviembre	2023-11-26T00:00:00	2024-11-08T22:00:00	8	Radiación solar	0
186561	7	Sololá	719	Santiago Atitlán	14	Cerro de Oro	11	Noviembre	2023-11-26T00:00:00	2024-11-08T23:00:00	2	Temperatura media	19.2
186562	7	Sololá	719	Santiago Atitlán	14	Cerro de Oro	11	Noviembre	2023-11-26T00:00:00	2024-11-08T23:00:00	4	Temperatura máxima	19.6
186563	7	Sololá	719	Santiago Atitlán	14	Cerro de Oro	11	Noviembre	2023-11-26T00:00:00	2024-11-08T23:00:00	3	Temperatura mínima	18.9
186564	7	Sololá	719	Santiago Atitlán	14	Cerro de Oro	11	Noviembre	2023-11-26T00:00:00	2024-11-08T23:00:00	5	Humedad	75
186565	7	Sololá	719	Santiago Atitlán	14	Cerro de Oro	11	Noviembre	2023-11-26T00:00:00	2024-11-08T23:00:00	6	Velocidad del viento	6.4
186566	7	Sololá	719	Santiago Atitlán	14	Cerro de Oro	11	Noviembre	2023-11-26T00:00:00	2024-11-08T23:00:00	7	Dirección del viento	6.44
186567	7	Sololá	719	Santiago Atitlán	14	Cerro de Oro	11	Noviembre	2023-11-26T00:00:00	2024-11-08T23:00:00	1	Precipitación	0
186568	7	Sololá	719	Santiago Atitlán	14	Cerro de Oro	11	Noviembre	2023-11-26T00:00:00	2024-11-08T23:00:00	8	Radiación solar	0
186569	7	Sololá	719	Santiago Atitlán	14	Cerro de Oro	11	Noviembre	2023-11-27T00:00:00	2024-11-08T00:00:00	2	Temperatura media	18.6
186570	7	Sololá	719	Santiago Atitlán	14	Cerro de Oro	11	Noviembre	2023-11-27T00:00:00	2024-11-08T00:00:00	4	Temperatura máxima	19.5
186571	7	Sololá	719	Santiago Atitlán	14	Cerro de Oro	11	Noviembre	2023-11-27T00:00:00	2024-11-08T00:00:00	3	Temperatura mínima	18.1
186572	7	Sololá	719	Santiago Atitlán	14	Cerro de Oro	11	Noviembre	2023-11-27T00:00:00	2024-11-08T00:00:00	5	Humedad	73
186573	7	Sololá	719	Santiago Atitlán	14	Cerro de Oro	11	Noviembre	2023-11-27T00:00:00	2024-11-08T00:00:00	6	Velocidad del viento	6.4
186574	7	Sololá	719	Santiago Atitlán	14	Cerro de Oro	11	Noviembre	2023-11-27T00:00:00	2024-11-08T00:00:00	7	Dirección del viento	6.44
186575	7	Sololá	719	Santiago Atitlán	14	Cerro de Oro	11	Noviembre	2023-11-27T00:00:00	2024-11-08T00:00:00	1	Precipitación	0
186576	7	Sololá	719	Santiago Atitlán	14	Cerro de Oro	11	Noviembre	2023-11-27T00:00:00	2024-11-08T00:00:00	8	Radiación solar	0
186577	7	Sololá	719	Santiago Atitlán	14	Cerro de Oro	11	Noviembre	2023-11-27T00:00:00	2024-11-08T01:00:00	2	Temperatura media	18.3
186578	7	Sololá	719	Santiago Atitlán	14	Cerro de Oro	11	Noviembre	2023-11-27T00:00:00	2024-11-08T01:00:00	4	Temperatura máxima	19.5
186579	7	Sololá	719	Santiago Atitlán	14	Cerro de Oro	11	Noviembre	2023-11-27T00:00:00	2024-11-08T01:00:00	3	Temperatura mínima	17.7
186580	7	Sololá	719	Santiago Atitlán	14	Cerro de Oro	11	Noviembre	2023-11-27T00:00:00	2024-11-08T01:00:00	5	Humedad	70
186581	7	Sololá	719	Santiago Atitlán	14	Cerro de Oro	11	Noviembre	2023-11-27T00:00:00	2024-11-08T01:00:00	6	Velocidad del viento	4.8
186582	7	Sololá	719	Santiago Atitlán	14	Cerro de Oro	11	Noviembre	2023-11-27T00:00:00	2024-11-08T01:00:00	7	Dirección del viento	4.83
186583	7	Sololá	719	Santiago Atitlán	14	Cerro de Oro	11	Noviembre	2023-11-27T00:00:00	2024-11-08T01:00:00	1	Precipitación	0
186584	7	Sololá	719	Santiago Atitlán	14	Cerro de Oro	11	Noviembre	2023-11-27T00:00:00	2024-11-08T01:00:00	8	Radiación solar	0
186585	7	Sololá	719	Santiago Atitlán	14	Cerro de Oro	11	Noviembre	2023-11-27T00:00:00	2024-11-08T02:00:00	2	Temperatura media	18.2
186586	7	Sololá	719	Santiago Atitlán	14	Cerro de Oro	11	Noviembre	2023-11-27T00:00:00	2024-11-08T02:00:00	4	Temperatura máxima	18.7
186587	7	Sololá	719	Santiago Atitlán	14	Cerro de Oro	11	Noviembre	2023-11-27T00:00:00	2024-11-08T02:00:00	3	Temperatura mínima	17.5
186588	7	Sololá	719	Santiago Atitlán	14	Cerro de Oro	11	Noviembre	2023-11-27T00:00:00	2024-11-08T02:00:00	5	Humedad	72
186589	7	Sololá	719	Santiago Atitlán	14	Cerro de Oro	11	Noviembre	2023-11-27T00:00:00	2024-11-08T02:00:00	6	Velocidad del viento	6.4
186590	7	Sololá	719	Santiago Atitlán	14	Cerro de Oro	11	Noviembre	2023-11-27T00:00:00	2024-11-08T02:00:00	7	Dirección del viento	6.44
186591	7	Sololá	719	Santiago Atitlán	14	Cerro de Oro	11	Noviembre	2023-11-27T00:00:00	2024-11-08T02:00:00	1	Precipitación	0
186592	7	Sololá	719	Santiago Atitlán	14	Cerro de Oro	11	Noviembre	2023-11-27T00:00:00	2024-11-08T02:00:00	8	Radiación solar	0
186593	7	Sololá	719	Santiago Atitlán	14	Cerro de Oro	11	Noviembre	2023-11-27T00:00:00	2024-11-08T03:00:00	2	Temperatura media	19.3
186594	7	Sololá	719	Santiago Atitlán	14	Cerro de Oro	11	Noviembre	2023-11-27T00:00:00	2024-11-08T03:00:00	4	Temperatura máxima	19.3
186595	7	Sololá	719	Santiago Atitlán	14	Cerro de Oro	11	Noviembre	2023-11-27T00:00:00	2024-11-08T03:00:00	3	Temperatura mínima	18.1
186596	7	Sololá	719	Santiago Atitlán	14	Cerro de Oro	11	Noviembre	2023-11-27T00:00:00	2024-11-08T03:00:00	5	Humedad	69
186597	7	Sololá	719	Santiago Atitlán	14	Cerro de Oro	11	Noviembre	2023-11-27T00:00:00	2024-11-08T03:00:00	6	Velocidad del viento	4.8
186598	7	Sololá	719	Santiago Atitlán	14	Cerro de Oro	11	Noviembre	2023-11-27T00:00:00	2024-11-08T03:00:00	7	Dirección del viento	4.83
186599	7	Sololá	719	Santiago Atitlán	14	Cerro de Oro	11	Noviembre	2023-11-27T00:00:00	2024-11-08T03:00:00	1	Precipitación	0
186600	7	Sololá	719	Santiago Atitlán	14	Cerro de Oro	11	Noviembre	2023-11-27T00:00:00	2024-11-08T03:00:00	8	Radiación solar	0
186601	7	Sololá	719	Santiago Atitlán	14	Cerro de Oro	11	Noviembre	2023-11-27T00:00:00	2024-11-08T04:00:00	2	Temperatura media	19.5
186602	7	Sololá	719	Santiago Atitlán	14	Cerro de Oro	11	Noviembre	2023-11-27T00:00:00	2024-11-08T04:00:00	4	Temperatura máxima	19.7
186603	7	Sololá	719	Santiago Atitlán	14	Cerro de Oro	11	Noviembre	2023-11-27T00:00:00	2024-11-08T04:00:00	3	Temperatura mínima	19.2
186604	7	Sololá	719	Santiago Atitlán	14	Cerro de Oro	11	Noviembre	2023-11-27T00:00:00	2024-11-08T04:00:00	5	Humedad	64
186605	7	Sololá	719	Santiago Atitlán	14	Cerro de Oro	11	Noviembre	2023-11-27T00:00:00	2024-11-08T04:00:00	6	Velocidad del viento	8
186606	7	Sololá	719	Santiago Atitlán	14	Cerro de Oro	11	Noviembre	2023-11-27T00:00:00	2024-11-08T04:00:00	7	Dirección del viento	8.05
186607	7	Sololá	719	Santiago Atitlán	14	Cerro de Oro	11	Noviembre	2023-11-27T00:00:00	2024-11-08T04:00:00	1	Precipitación	0
186608	7	Sololá	719	Santiago Atitlán	14	Cerro de Oro	11	Noviembre	2023-11-27T00:00:00	2024-11-08T04:00:00	8	Radiación solar	0
186609	7	Sololá	719	Santiago Atitlán	14	Cerro de Oro	11	Noviembre	2023-11-27T00:00:00	2024-11-08T05:00:00	2	Temperatura media	19.2
186610	7	Sololá	719	Santiago Atitlán	14	Cerro de Oro	11	Noviembre	2023-11-27T00:00:00	2024-11-08T05:00:00	4	Temperatura máxima	19.7
186611	7	Sololá	719	Santiago Atitlán	14	Cerro de Oro	11	Noviembre	2023-11-27T00:00:00	2024-11-08T05:00:00	3	Temperatura mínima	19.1
186612	7	Sololá	719	Santiago Atitlán	14	Cerro de Oro	11	Noviembre	2023-11-27T00:00:00	2024-11-08T05:00:00	5	Humedad	64
186613	7	Sololá	719	Santiago Atitlán	14	Cerro de Oro	11	Noviembre	2023-11-27T00:00:00	2024-11-08T05:00:00	6	Velocidad del viento	6.4
186614	7	Sololá	719	Santiago Atitlán	14	Cerro de Oro	11	Noviembre	2023-11-27T00:00:00	2024-11-08T05:00:00	7	Dirección del viento	6.44
186615	7	Sololá	719	Santiago Atitlán	14	Cerro de Oro	11	Noviembre	2023-11-27T00:00:00	2024-11-08T05:00:00	1	Precipitación	0
186616	7	Sololá	719	Santiago Atitlán	14	Cerro de Oro	11	Noviembre	2023-11-27T00:00:00	2024-11-08T05:00:00	8	Radiación solar	0
186617	7	Sololá	719	Santiago Atitlán	14	Cerro de Oro	11	Noviembre	2023-11-27T00:00:00	2024-11-08T06:00:00	2	Temperatura media	17.9
186618	7	Sololá	719	Santiago Atitlán	14	Cerro de Oro	11	Noviembre	2023-11-27T00:00:00	2024-11-08T06:00:00	4	Temperatura máxima	19.4
186619	7	Sololá	719	Santiago Atitlán	14	Cerro de Oro	11	Noviembre	2023-11-27T00:00:00	2024-11-08T06:00:00	3	Temperatura mínima	17.9
186620	7	Sololá	719	Santiago Atitlán	14	Cerro de Oro	11	Noviembre	2023-11-27T00:00:00	2024-11-08T06:00:00	5	Humedad	67
186621	7	Sololá	719	Santiago Atitlán	14	Cerro de Oro	11	Noviembre	2023-11-27T00:00:00	2024-11-08T06:00:00	6	Velocidad del viento	4.8
186622	7	Sololá	719	Santiago Atitlán	14	Cerro de Oro	11	Noviembre	2023-11-27T00:00:00	2024-11-08T06:00:00	7	Dirección del viento	4.83
186623	7	Sololá	719	Santiago Atitlán	14	Cerro de Oro	11	Noviembre	2023-11-27T00:00:00	2024-11-08T06:00:00	1	Precipitación	0
186624	7	Sololá	719	Santiago Atitlán	14	Cerro de Oro	11	Noviembre	2023-11-27T00:00:00	2024-11-08T06:00:00	8	Radiación solar	0
186625	7	Sololá	719	Santiago Atitlán	14	Cerro de Oro	11	Noviembre	2023-11-27T00:00:00	2024-11-08T07:00:00	2	Temperatura media	19.6
186626	7	Sololá	719	Santiago Atitlán	14	Cerro de Oro	11	Noviembre	2023-11-27T00:00:00	2024-11-08T07:00:00	4	Temperatura máxima	19.6
186627	7	Sololá	719	Santiago Atitlán	14	Cerro de Oro	11	Noviembre	2023-11-27T00:00:00	2024-11-08T07:00:00	3	Temperatura mínima	17.3
186628	7	Sololá	719	Santiago Atitlán	14	Cerro de Oro	11	Noviembre	2023-11-27T00:00:00	2024-11-08T07:00:00	5	Humedad	65
186629	7	Sololá	719	Santiago Atitlán	14	Cerro de Oro	11	Noviembre	2023-11-27T00:00:00	2024-11-08T07:00:00	6	Velocidad del viento	4.8
186630	7	Sololá	719	Santiago Atitlán	14	Cerro de Oro	11	Noviembre	2023-11-27T00:00:00	2024-11-08T07:00:00	7	Dirección del viento	4.83
186631	7	Sololá	719	Santiago Atitlán	14	Cerro de Oro	11	Noviembre	2023-11-27T00:00:00	2024-11-08T07:00:00	1	Precipitación	0
186632	7	Sololá	719	Santiago Atitlán	14	Cerro de Oro	11	Noviembre	2023-11-27T00:00:00	2024-11-08T07:00:00	8	Radiación solar	28
186633	7	Sololá	719	Santiago Atitlán	14	Cerro de Oro	11	Noviembre	2023-11-27T00:00:00	2024-11-08T08:00:00	2	Temperatura media	21.4
186634	7	Sololá	719	Santiago Atitlán	14	Cerro de Oro	11	Noviembre	2023-11-27T00:00:00	2024-11-08T08:00:00	4	Temperatura máxima	21.4
186635	7	Sololá	719	Santiago Atitlán	14	Cerro de Oro	11	Noviembre	2023-11-27T00:00:00	2024-11-08T08:00:00	3	Temperatura mínima	19.6
186636	7	Sololá	719	Santiago Atitlán	14	Cerro de Oro	11	Noviembre	2023-11-27T00:00:00	2024-11-08T08:00:00	5	Humedad	62
186637	7	Sololá	719	Santiago Atitlán	14	Cerro de Oro	11	Noviembre	2023-11-27T00:00:00	2024-11-08T08:00:00	6	Velocidad del viento	6.4
186638	7	Sololá	719	Santiago Atitlán	14	Cerro de Oro	11	Noviembre	2023-11-27T00:00:00	2024-11-08T08:00:00	7	Dirección del viento	6.44
186639	7	Sololá	719	Santiago Atitlán	14	Cerro de Oro	11	Noviembre	2023-11-27T00:00:00	2024-11-08T08:00:00	1	Precipitación	0
186640	7	Sololá	719	Santiago Atitlán	14	Cerro de Oro	11	Noviembre	2023-11-27T00:00:00	2024-11-08T08:00:00	8	Radiación solar	216
186641	7	Sololá	719	Santiago Atitlán	14	Cerro de Oro	11	Noviembre	2023-11-27T00:00:00	2024-11-08T09:00:00	2	Temperatura media	22.4
186642	7	Sololá	719	Santiago Atitlán	14	Cerro de Oro	11	Noviembre	2023-11-27T00:00:00	2024-11-08T09:00:00	4	Temperatura máxima	22.6
186643	7	Sololá	719	Santiago Atitlán	14	Cerro de Oro	11	Noviembre	2023-11-27T00:00:00	2024-11-08T09:00:00	3	Temperatura mínima	21.4
186644	7	Sololá	719	Santiago Atitlán	14	Cerro de Oro	11	Noviembre	2023-11-27T00:00:00	2024-11-08T09:00:00	5	Humedad	60
186645	7	Sololá	719	Santiago Atitlán	14	Cerro de Oro	11	Noviembre	2023-11-27T00:00:00	2024-11-08T09:00:00	6	Velocidad del viento	3.2
186646	7	Sololá	719	Santiago Atitlán	14	Cerro de Oro	11	Noviembre	2023-11-27T00:00:00	2024-11-08T09:00:00	7	Dirección del viento	3.22
186647	7	Sololá	719	Santiago Atitlán	14	Cerro de Oro	11	Noviembre	2023-11-27T00:00:00	2024-11-08T09:00:00	1	Precipitación	0
186648	7	Sololá	719	Santiago Atitlán	14	Cerro de Oro	11	Noviembre	2023-11-27T00:00:00	2024-11-08T09:00:00	8	Radiación solar	424
186649	7	Sololá	719	Santiago Atitlán	14	Cerro de Oro	11	Noviembre	2023-11-27T00:00:00	2024-11-08T10:00:00	2	Temperatura media	23.5
186650	7	Sololá	719	Santiago Atitlán	14	Cerro de Oro	11	Noviembre	2023-11-27T00:00:00	2024-11-08T10:00:00	4	Temperatura máxima	23.5
186651	7	Sololá	719	Santiago Atitlán	14	Cerro de Oro	11	Noviembre	2023-11-27T00:00:00	2024-11-08T10:00:00	3	Temperatura mínima	22.4
186652	7	Sololá	719	Santiago Atitlán	14	Cerro de Oro	11	Noviembre	2023-11-27T00:00:00	2024-11-08T10:00:00	5	Humedad	59
186653	7	Sololá	719	Santiago Atitlán	14	Cerro de Oro	11	Noviembre	2023-11-27T00:00:00	2024-11-08T10:00:00	6	Velocidad del viento	4.8
186654	7	Sololá	719	Santiago Atitlán	14	Cerro de Oro	11	Noviembre	2023-11-27T00:00:00	2024-11-08T10:00:00	7	Dirección del viento	4.83
186655	7	Sololá	719	Santiago Atitlán	14	Cerro de Oro	11	Noviembre	2023-11-27T00:00:00	2024-11-08T10:00:00	1	Precipitación	0
186656	7	Sololá	719	Santiago Atitlán	14	Cerro de Oro	11	Noviembre	2023-11-27T00:00:00	2024-11-08T10:00:00	8	Radiación solar	601
186657	7	Sololá	719	Santiago Atitlán	14	Cerro de Oro	11	Noviembre	2023-11-27T00:00:00	2024-11-08T11:00:00	2	Temperatura media	24
186658	7	Sololá	719	Santiago Atitlán	14	Cerro de Oro	11	Noviembre	2023-11-27T00:00:00	2024-11-08T11:00:00	4	Temperatura máxima	24.1
186659	7	Sololá	719	Santiago Atitlán	14	Cerro de Oro	11	Noviembre	2023-11-27T00:00:00	2024-11-08T11:00:00	3	Temperatura mínima	23.2
186660	7	Sololá	719	Santiago Atitlán	14	Cerro de Oro	11	Noviembre	2023-11-27T00:00:00	2024-11-08T11:00:00	5	Humedad	59
186661	7	Sololá	719	Santiago Atitlán	14	Cerro de Oro	11	Noviembre	2023-11-27T00:00:00	2024-11-08T11:00:00	6	Velocidad del viento	8
186662	7	Sololá	719	Santiago Atitlán	14	Cerro de Oro	11	Noviembre	2023-11-27T00:00:00	2024-11-08T11:00:00	7	Dirección del viento	8.05
186663	7	Sololá	719	Santiago Atitlán	14	Cerro de Oro	11	Noviembre	2023-11-27T00:00:00	2024-11-08T11:00:00	1	Precipitación	0
186664	7	Sololá	719	Santiago Atitlán	14	Cerro de Oro	11	Noviembre	2023-11-27T00:00:00	2024-11-08T11:00:00	8	Radiación solar	742
186665	7	Sololá	719	Santiago Atitlán	14	Cerro de Oro	11	Noviembre	2023-11-27T00:00:00	2024-11-08T12:00:00	2	Temperatura media	23.8
186666	7	Sololá	719	Santiago Atitlán	14	Cerro de Oro	11	Noviembre	2023-11-27T00:00:00	2024-11-08T12:00:00	4	Temperatura máxima	24.3
186667	7	Sololá	719	Santiago Atitlán	14	Cerro de Oro	11	Noviembre	2023-11-27T00:00:00	2024-11-08T12:00:00	3	Temperatura mínima	23.7
186668	7	Sololá	719	Santiago Atitlán	14	Cerro de Oro	11	Noviembre	2023-11-27T00:00:00	2024-11-08T12:00:00	5	Humedad	60
186669	7	Sololá	719	Santiago Atitlán	14	Cerro de Oro	11	Noviembre	2023-11-27T00:00:00	2024-11-08T12:00:00	6	Velocidad del viento	11.3
186670	7	Sololá	719	Santiago Atitlán	14	Cerro de Oro	11	Noviembre	2023-11-27T00:00:00	2024-11-08T12:00:00	7	Dirección del viento	11.27
186671	7	Sololá	719	Santiago Atitlán	14	Cerro de Oro	11	Noviembre	2023-11-27T00:00:00	2024-11-08T12:00:00	1	Precipitación	0
186672	7	Sololá	719	Santiago Atitlán	14	Cerro de Oro	11	Noviembre	2023-11-27T00:00:00	2024-11-08T12:00:00	8	Radiación solar	879
186673	7	Sololá	719	Santiago Atitlán	14	Cerro de Oro	11	Noviembre	2023-11-27T00:00:00	2024-11-08T13:00:00	2	Temperatura media	22.6
186674	7	Sololá	719	Santiago Atitlán	14	Cerro de Oro	11	Noviembre	2023-11-27T00:00:00	2024-11-08T13:00:00	4	Temperatura máxima	23.8
186675	7	Sololá	719	Santiago Atitlán	14	Cerro de Oro	11	Noviembre	2023-11-27T00:00:00	2024-11-08T13:00:00	3	Temperatura mínima	22.5
186676	7	Sololá	719	Santiago Atitlán	14	Cerro de Oro	11	Noviembre	2023-11-27T00:00:00	2024-11-08T13:00:00	5	Humedad	65
186677	7	Sololá	719	Santiago Atitlán	14	Cerro de Oro	11	Noviembre	2023-11-27T00:00:00	2024-11-08T13:00:00	6	Velocidad del viento	11.3
186678	7	Sololá	719	Santiago Atitlán	14	Cerro de Oro	11	Noviembre	2023-11-27T00:00:00	2024-11-08T13:00:00	7	Dirección del viento	11.27
186679	7	Sololá	719	Santiago Atitlán	14	Cerro de Oro	11	Noviembre	2023-11-27T00:00:00	2024-11-08T13:00:00	1	Precipitación	0
186680	7	Sololá	719	Santiago Atitlán	14	Cerro de Oro	11	Noviembre	2023-11-27T00:00:00	2024-11-08T13:00:00	8	Radiación solar	292
186681	7	Sololá	719	Santiago Atitlán	14	Cerro de Oro	11	Noviembre	2023-11-27T00:00:00	2024-11-08T14:00:00	2	Temperatura media	22.3
186682	7	Sololá	719	Santiago Atitlán	14	Cerro de Oro	11	Noviembre	2023-11-27T00:00:00	2024-11-08T14:00:00	4	Temperatura máxima	22.8
186683	7	Sololá	719	Santiago Atitlán	14	Cerro de Oro	11	Noviembre	2023-11-27T00:00:00	2024-11-08T14:00:00	3	Temperatura mínima	22.3
186684	7	Sololá	719	Santiago Atitlán	14	Cerro de Oro	11	Noviembre	2023-11-27T00:00:00	2024-11-08T14:00:00	5	Humedad	66
186685	7	Sololá	719	Santiago Atitlán	14	Cerro de Oro	11	Noviembre	2023-11-27T00:00:00	2024-11-08T14:00:00	6	Velocidad del viento	11.3
186686	7	Sololá	719	Santiago Atitlán	14	Cerro de Oro	11	Noviembre	2023-11-27T00:00:00	2024-11-08T14:00:00	7	Dirección del viento	11.27
186687	7	Sololá	719	Santiago Atitlán	14	Cerro de Oro	11	Noviembre	2023-11-27T00:00:00	2024-11-08T14:00:00	1	Precipitación	0
186688	7	Sololá	719	Santiago Atitlán	14	Cerro de Oro	11	Noviembre	2023-11-27T00:00:00	2024-11-08T14:00:00	8	Radiación solar	229
186689	7	Sololá	719	Santiago Atitlán	14	Cerro de Oro	11	Noviembre	2023-11-27T00:00:00	2024-11-08T15:00:00	2	Temperatura media	22.3
186690	7	Sololá	719	Santiago Atitlán	14	Cerro de Oro	11	Noviembre	2023-11-27T00:00:00	2024-11-08T15:00:00	4	Temperatura máxima	22.6
186691	7	Sololá	719	Santiago Atitlán	14	Cerro de Oro	11	Noviembre	2023-11-27T00:00:00	2024-11-08T15:00:00	3	Temperatura mínima	22.3
186692	7	Sololá	719	Santiago Atitlán	14	Cerro de Oro	11	Noviembre	2023-11-27T00:00:00	2024-11-08T15:00:00	5	Humedad	67
186693	7	Sololá	719	Santiago Atitlán	14	Cerro de Oro	11	Noviembre	2023-11-27T00:00:00	2024-11-08T15:00:00	6	Velocidad del viento	9.7
186694	7	Sololá	719	Santiago Atitlán	14	Cerro de Oro	11	Noviembre	2023-11-27T00:00:00	2024-11-08T15:00:00	7	Dirección del viento	9.66
186695	7	Sololá	719	Santiago Atitlán	14	Cerro de Oro	11	Noviembre	2023-11-27T00:00:00	2024-11-08T15:00:00	1	Precipitación	0
186696	7	Sololá	719	Santiago Atitlán	14	Cerro de Oro	11	Noviembre	2023-11-27T00:00:00	2024-11-08T15:00:00	8	Radiación solar	200
186697	7	Sololá	719	Santiago Atitlán	14	Cerro de Oro	11	Noviembre	2023-11-27T00:00:00	2024-11-08T16:00:00	2	Temperatura media	23
186698	7	Sololá	719	Santiago Atitlán	14	Cerro de Oro	11	Noviembre	2023-11-27T00:00:00	2024-11-08T16:00:00	4	Temperatura máxima	23.3
186699	7	Sololá	719	Santiago Atitlán	14	Cerro de Oro	11	Noviembre	2023-11-27T00:00:00	2024-11-08T16:00:00	3	Temperatura mínima	22.3
186700	7	Sololá	719	Santiago Atitlán	14	Cerro de Oro	11	Noviembre	2023-11-27T00:00:00	2024-11-08T16:00:00	5	Humedad	56
186701	7	Sololá	719	Santiago Atitlán	14	Cerro de Oro	11	Noviembre	2023-11-27T00:00:00	2024-11-08T16:00:00	6	Velocidad del viento	8
186702	7	Sololá	719	Santiago Atitlán	14	Cerro de Oro	11	Noviembre	2023-11-27T00:00:00	2024-11-08T16:00:00	7	Dirección del viento	8.05
186703	7	Sololá	719	Santiago Atitlán	14	Cerro de Oro	11	Noviembre	2023-11-27T00:00:00	2024-11-08T16:00:00	1	Precipitación	0
186704	7	Sololá	719	Santiago Atitlán	14	Cerro de Oro	11	Noviembre	2023-11-27T00:00:00	2024-11-08T16:00:00	8	Radiación solar	276
186705	7	Sololá	719	Santiago Atitlán	14	Cerro de Oro	11	Noviembre	2023-11-27T00:00:00	2024-11-08T17:00:00	2	Temperatura media	23.1
186706	7	Sololá	719	Santiago Atitlán	14	Cerro de Oro	11	Noviembre	2023-11-27T00:00:00	2024-11-08T17:00:00	4	Temperatura máxima	23.3
186707	7	Sololá	719	Santiago Atitlán	14	Cerro de Oro	11	Noviembre	2023-11-27T00:00:00	2024-11-08T17:00:00	3	Temperatura mínima	22.9
186708	7	Sololá	719	Santiago Atitlán	14	Cerro de Oro	11	Noviembre	2023-11-27T00:00:00	2024-11-08T17:00:00	5	Humedad	59
186709	7	Sololá	719	Santiago Atitlán	14	Cerro de Oro	11	Noviembre	2023-11-27T00:00:00	2024-11-08T17:00:00	6	Velocidad del viento	8
186710	7	Sololá	719	Santiago Atitlán	14	Cerro de Oro	11	Noviembre	2023-11-27T00:00:00	2024-11-08T17:00:00	7	Dirección del viento	8.05
186711	7	Sololá	719	Santiago Atitlán	14	Cerro de Oro	11	Noviembre	2023-11-27T00:00:00	2024-11-08T17:00:00	1	Precipitación	0
186712	7	Sololá	719	Santiago Atitlán	14	Cerro de Oro	11	Noviembre	2023-11-27T00:00:00	2024-11-08T17:00:00	8	Radiación solar	158
186713	7	Sololá	719	Santiago Atitlán	14	Cerro de Oro	11	Noviembre	2023-11-27T00:00:00	2024-11-08T18:00:00	2	Temperatura media	21.6
186714	7	Sololá	719	Santiago Atitlán	14	Cerro de Oro	11	Noviembre	2023-11-27T00:00:00	2024-11-08T18:00:00	4	Temperatura máxima	23.1
186715	7	Sololá	719	Santiago Atitlán	14	Cerro de Oro	11	Noviembre	2023-11-27T00:00:00	2024-11-08T18:00:00	3	Temperatura mínima	21.6
186716	7	Sololá	719	Santiago Atitlán	14	Cerro de Oro	11	Noviembre	2023-11-27T00:00:00	2024-11-08T18:00:00	5	Humedad	64
186717	7	Sololá	719	Santiago Atitlán	14	Cerro de Oro	11	Noviembre	2023-11-27T00:00:00	2024-11-08T18:00:00	6	Velocidad del viento	8
186718	7	Sololá	719	Santiago Atitlán	14	Cerro de Oro	11	Noviembre	2023-11-27T00:00:00	2024-11-08T18:00:00	7	Dirección del viento	8.05
186719	7	Sololá	719	Santiago Atitlán	14	Cerro de Oro	11	Noviembre	2023-11-27T00:00:00	2024-11-08T18:00:00	1	Precipitación	0
186720	7	Sololá	719	Santiago Atitlán	14	Cerro de Oro	11	Noviembre	2023-11-27T00:00:00	2024-11-08T18:00:00	8	Radiación solar	8
186721	7	Sololá	719	Santiago Atitlán	14	Cerro de Oro	11	Noviembre	2023-11-27T00:00:00	2024-11-08T19:00:00	2	Temperatura media	19.9
186722	7	Sololá	719	Santiago Atitlán	14	Cerro de Oro	11	Noviembre	2023-11-27T00:00:00	2024-11-08T19:00:00	4	Temperatura máxima	21.6
186723	7	Sololá	719	Santiago Atitlán	14	Cerro de Oro	11	Noviembre	2023-11-27T00:00:00	2024-11-08T19:00:00	3	Temperatura mínima	19.7
186724	7	Sololá	719	Santiago Atitlán	14	Cerro de Oro	11	Noviembre	2023-11-27T00:00:00	2024-11-08T19:00:00	5	Humedad	69
186725	7	Sololá	719	Santiago Atitlán	14	Cerro de Oro	11	Noviembre	2023-11-27T00:00:00	2024-11-08T19:00:00	6	Velocidad del viento	4.8
186726	7	Sololá	719	Santiago Atitlán	14	Cerro de Oro	11	Noviembre	2023-11-27T00:00:00	2024-11-08T19:00:00	7	Dirección del viento	4.83
186727	7	Sololá	719	Santiago Atitlán	14	Cerro de Oro	11	Noviembre	2023-11-27T00:00:00	2024-11-08T19:00:00	1	Precipitación	0
186728	7	Sololá	719	Santiago Atitlán	14	Cerro de Oro	11	Noviembre	2023-11-27T00:00:00	2024-11-08T19:00:00	8	Radiación solar	0
186729	7	Sololá	719	Santiago Atitlán	14	Cerro de Oro	11	Noviembre	2023-11-27T00:00:00	2024-11-08T20:00:00	2	Temperatura media	20.3
186730	7	Sololá	719	Santiago Atitlán	14	Cerro de Oro	11	Noviembre	2023-11-27T00:00:00	2024-11-08T20:00:00	4	Temperatura máxima	20.7
186731	7	Sololá	719	Santiago Atitlán	14	Cerro de Oro	11	Noviembre	2023-11-27T00:00:00	2024-11-08T20:00:00	3	Temperatura mínima	19.8
186732	7	Sololá	719	Santiago Atitlán	14	Cerro de Oro	11	Noviembre	2023-11-27T00:00:00	2024-11-08T20:00:00	5	Humedad	69
186733	7	Sololá	719	Santiago Atitlán	14	Cerro de Oro	11	Noviembre	2023-11-27T00:00:00	2024-11-08T20:00:00	6	Velocidad del viento	8
186734	7	Sololá	719	Santiago Atitlán	14	Cerro de Oro	11	Noviembre	2023-11-27T00:00:00	2024-11-08T20:00:00	7	Dirección del viento	8.05
186735	7	Sololá	719	Santiago Atitlán	14	Cerro de Oro	11	Noviembre	2023-11-27T00:00:00	2024-11-08T20:00:00	1	Precipitación	0
186736	7	Sololá	719	Santiago Atitlán	14	Cerro de Oro	11	Noviembre	2023-11-27T00:00:00	2024-11-08T20:00:00	8	Radiación solar	0
186737	7	Sololá	719	Santiago Atitlán	14	Cerro de Oro	11	Noviembre	2023-11-27T00:00:00	2024-11-08T21:00:00	2	Temperatura media	20.3
186738	7	Sololá	719	Santiago Atitlán	14	Cerro de Oro	11	Noviembre	2023-11-27T00:00:00	2024-11-08T21:00:00	4	Temperatura máxima	20.4
186739	7	Sololá	719	Santiago Atitlán	14	Cerro de Oro	11	Noviembre	2023-11-27T00:00:00	2024-11-08T21:00:00	3	Temperatura mínima	20.1
186740	7	Sololá	719	Santiago Atitlán	14	Cerro de Oro	11	Noviembre	2023-11-27T00:00:00	2024-11-08T21:00:00	5	Humedad	66
186741	7	Sololá	719	Santiago Atitlán	14	Cerro de Oro	11	Noviembre	2023-11-27T00:00:00	2024-11-08T21:00:00	6	Velocidad del viento	9.7
186742	7	Sololá	719	Santiago Atitlán	14	Cerro de Oro	11	Noviembre	2023-11-27T00:00:00	2024-11-08T21:00:00	7	Dirección del viento	9.66
186743	7	Sololá	719	Santiago Atitlán	14	Cerro de Oro	11	Noviembre	2023-11-27T00:00:00	2024-11-08T21:00:00	1	Precipitación	0
186744	7	Sololá	719	Santiago Atitlán	14	Cerro de Oro	11	Noviembre	2023-11-27T00:00:00	2024-11-08T21:00:00	8	Radiación solar	0
186745	7	Sololá	719	Santiago Atitlán	14	Cerro de Oro	11	Noviembre	2023-11-27T00:00:00	2024-11-08T22:00:00	2	Temperatura media	18.8
186746	7	Sololá	719	Santiago Atitlán	14	Cerro de Oro	11	Noviembre	2023-11-27T00:00:00	2024-11-08T22:00:00	4	Temperatura máxima	20.3
186747	7	Sololá	719	Santiago Atitlán	14	Cerro de Oro	11	Noviembre	2023-11-27T00:00:00	2024-11-08T22:00:00	3	Temperatura mínima	18.8
186748	7	Sololá	719	Santiago Atitlán	14	Cerro de Oro	11	Noviembre	2023-11-27T00:00:00	2024-11-08T22:00:00	5	Humedad	71
186749	7	Sololá	719	Santiago Atitlán	14	Cerro de Oro	11	Noviembre	2023-11-27T00:00:00	2024-11-08T22:00:00	6	Velocidad del viento	4.8
186750	7	Sololá	719	Santiago Atitlán	14	Cerro de Oro	11	Noviembre	2023-11-27T00:00:00	2024-11-08T22:00:00	7	Dirección del viento	4.83
186751	7	Sololá	719	Santiago Atitlán	14	Cerro de Oro	11	Noviembre	2023-11-27T00:00:00	2024-11-08T22:00:00	1	Precipitación	0
186752	7	Sololá	719	Santiago Atitlán	14	Cerro de Oro	11	Noviembre	2023-11-27T00:00:00	2024-11-08T22:00:00	8	Radiación solar	0
186753	7	Sololá	719	Santiago Atitlán	14	Cerro de Oro	11	Noviembre	2023-11-27T00:00:00	2024-11-08T23:00:00	2	Temperatura media	19.5
186754	7	Sololá	719	Santiago Atitlán	14	Cerro de Oro	11	Noviembre	2023-11-27T00:00:00	2024-11-08T23:00:00	4	Temperatura máxima	19.7
186755	7	Sololá	719	Santiago Atitlán	14	Cerro de Oro	11	Noviembre	2023-11-27T00:00:00	2024-11-08T23:00:00	3	Temperatura mínima	18.5
186756	7	Sololá	719	Santiago Atitlán	14	Cerro de Oro	11	Noviembre	2023-11-27T00:00:00	2024-11-08T23:00:00	5	Humedad	69
186757	7	Sololá	719	Santiago Atitlán	14	Cerro de Oro	11	Noviembre	2023-11-27T00:00:00	2024-11-08T23:00:00	6	Velocidad del viento	6.4
186758	7	Sololá	719	Santiago Atitlán	14	Cerro de Oro	11	Noviembre	2023-11-27T00:00:00	2024-11-08T23:00:00	7	Dirección del viento	6.44
186759	7	Sololá	719	Santiago Atitlán	14	Cerro de Oro	11	Noviembre	2023-11-27T00:00:00	2024-11-08T23:00:00	1	Precipitación	0
186760	7	Sololá	719	Santiago Atitlán	14	Cerro de Oro	11	Noviembre	2023-11-27T00:00:00	2024-11-08T23:00:00	8	Radiación solar	0
186761	7	Sololá	719	Santiago Atitlán	14	Cerro de Oro	11	Noviembre	2023-11-28T00:00:00	2024-11-08T00:00:00	2	Temperatura media	19.2
186762	7	Sololá	719	Santiago Atitlán	14	Cerro de Oro	11	Noviembre	2023-11-28T00:00:00	2024-11-08T00:00:00	4	Temperatura máxima	19.6
186763	7	Sololá	719	Santiago Atitlán	14	Cerro de Oro	11	Noviembre	2023-11-28T00:00:00	2024-11-08T00:00:00	3	Temperatura mínima	18.2
186764	7	Sololá	719	Santiago Atitlán	14	Cerro de Oro	11	Noviembre	2023-11-28T00:00:00	2024-11-08T00:00:00	5	Humedad	70
186765	7	Sololá	719	Santiago Atitlán	14	Cerro de Oro	11	Noviembre	2023-11-28T00:00:00	2024-11-08T00:00:00	6	Velocidad del viento	4.8
186766	7	Sololá	719	Santiago Atitlán	14	Cerro de Oro	11	Noviembre	2023-11-28T00:00:00	2024-11-08T00:00:00	7	Dirección del viento	4.83
186767	7	Sololá	719	Santiago Atitlán	14	Cerro de Oro	11	Noviembre	2023-11-28T00:00:00	2024-11-08T00:00:00	1	Precipitación	0
186768	7	Sololá	719	Santiago Atitlán	14	Cerro de Oro	11	Noviembre	2023-11-28T00:00:00	2024-11-08T00:00:00	8	Radiación solar	0
186769	7	Sololá	719	Santiago Atitlán	14	Cerro de Oro	11	Noviembre	2023-11-28T00:00:00	2024-11-08T01:00:00	2	Temperatura media	18.5
186770	7	Sololá	719	Santiago Atitlán	14	Cerro de Oro	11	Noviembre	2023-11-28T00:00:00	2024-11-08T01:00:00	4	Temperatura máxima	19.3
186771	7	Sololá	719	Santiago Atitlán	14	Cerro de Oro	11	Noviembre	2023-11-28T00:00:00	2024-11-08T01:00:00	3	Temperatura mínima	18.3
186772	7	Sololá	719	Santiago Atitlán	14	Cerro de Oro	11	Noviembre	2023-11-28T00:00:00	2024-11-08T01:00:00	5	Humedad	74
186773	7	Sololá	719	Santiago Atitlán	14	Cerro de Oro	11	Noviembre	2023-11-28T00:00:00	2024-11-08T01:00:00	6	Velocidad del viento	3.2
186774	7	Sololá	719	Santiago Atitlán	14	Cerro de Oro	11	Noviembre	2023-11-28T00:00:00	2024-11-08T01:00:00	7	Dirección del viento	3.22
186775	7	Sololá	719	Santiago Atitlán	14	Cerro de Oro	11	Noviembre	2023-11-28T00:00:00	2024-11-08T01:00:00	1	Precipitación	0
186776	7	Sololá	719	Santiago Atitlán	14	Cerro de Oro	11	Noviembre	2023-11-28T00:00:00	2024-11-08T01:00:00	8	Radiación solar	0
186777	7	Sololá	719	Santiago Atitlán	14	Cerro de Oro	11	Noviembre	2023-11-28T00:00:00	2024-11-08T02:00:00	2	Temperatura media	19.2
186778	7	Sololá	719	Santiago Atitlán	14	Cerro de Oro	11	Noviembre	2023-11-28T00:00:00	2024-11-08T02:00:00	4	Temperatura máxima	19.2
186779	7	Sololá	719	Santiago Atitlán	14	Cerro de Oro	11	Noviembre	2023-11-28T00:00:00	2024-11-08T02:00:00	3	Temperatura mínima	18.3
186780	7	Sololá	719	Santiago Atitlán	14	Cerro de Oro	11	Noviembre	2023-11-28T00:00:00	2024-11-08T02:00:00	5	Humedad	74
186781	7	Sololá	719	Santiago Atitlán	14	Cerro de Oro	11	Noviembre	2023-11-28T00:00:00	2024-11-08T02:00:00	6	Velocidad del viento	4.8
186782	7	Sololá	719	Santiago Atitlán	14	Cerro de Oro	11	Noviembre	2023-11-28T00:00:00	2024-11-08T02:00:00	7	Dirección del viento	4.83
186783	7	Sololá	719	Santiago Atitlán	14	Cerro de Oro	11	Noviembre	2023-11-28T00:00:00	2024-11-08T02:00:00	1	Precipitación	0
186784	7	Sololá	719	Santiago Atitlán	14	Cerro de Oro	11	Noviembre	2023-11-28T00:00:00	2024-11-08T02:00:00	8	Radiación solar	0
186785	7	Sololá	719	Santiago Atitlán	14	Cerro de Oro	11	Noviembre	2023-11-28T00:00:00	2024-11-08T03:00:00	2	Temperatura media	18.3
186786	7	Sololá	719	Santiago Atitlán	14	Cerro de Oro	11	Noviembre	2023-11-28T00:00:00	2024-11-08T03:00:00	4	Temperatura máxima	19.2
186787	7	Sololá	719	Santiago Atitlán	14	Cerro de Oro	11	Noviembre	2023-11-28T00:00:00	2024-11-08T03:00:00	3	Temperatura mínima	18.1
186788	7	Sololá	719	Santiago Atitlán	14	Cerro de Oro	11	Noviembre	2023-11-28T00:00:00	2024-11-08T03:00:00	5	Humedad	76
186789	7	Sololá	719	Santiago Atitlán	14	Cerro de Oro	11	Noviembre	2023-11-28T00:00:00	2024-11-08T03:00:00	6	Velocidad del viento	3.2
186790	7	Sololá	719	Santiago Atitlán	14	Cerro de Oro	11	Noviembre	2023-11-28T00:00:00	2024-11-08T03:00:00	7	Dirección del viento	3.22
186791	7	Sololá	719	Santiago Atitlán	14	Cerro de Oro	11	Noviembre	2023-11-28T00:00:00	2024-11-08T03:00:00	1	Precipitación	0
186792	7	Sololá	719	Santiago Atitlán	14	Cerro de Oro	11	Noviembre	2023-11-28T00:00:00	2024-11-08T03:00:00	8	Radiación solar	0
186793	7	Sololá	719	Santiago Atitlán	14	Cerro de Oro	11	Noviembre	2023-11-28T00:00:00	2024-11-08T04:00:00	2	Temperatura media	18.8
186794	7	Sololá	719	Santiago Atitlán	14	Cerro de Oro	11	Noviembre	2023-11-28T00:00:00	2024-11-08T04:00:00	4	Temperatura máxima	19.1
186795	7	Sololá	719	Santiago Atitlán	14	Cerro de Oro	11	Noviembre	2023-11-28T00:00:00	2024-11-08T04:00:00	3	Temperatura mínima	18.3
186796	7	Sololá	719	Santiago Atitlán	14	Cerro de Oro	11	Noviembre	2023-11-28T00:00:00	2024-11-08T04:00:00	5	Humedad	75
186797	7	Sololá	719	Santiago Atitlán	14	Cerro de Oro	11	Noviembre	2023-11-28T00:00:00	2024-11-08T04:00:00	6	Velocidad del viento	3.2
186798	7	Sololá	719	Santiago Atitlán	14	Cerro de Oro	11	Noviembre	2023-11-28T00:00:00	2024-11-08T04:00:00	7	Dirección del viento	3.22
186799	7	Sololá	719	Santiago Atitlán	14	Cerro de Oro	11	Noviembre	2023-11-28T00:00:00	2024-11-08T04:00:00	1	Precipitación	0
186800	7	Sololá	719	Santiago Atitlán	14	Cerro de Oro	11	Noviembre	2023-11-28T00:00:00	2024-11-08T04:00:00	8	Radiación solar	0
186801	7	Sololá	719	Santiago Atitlán	14	Cerro de Oro	11	Noviembre	2023-11-28T00:00:00	2024-11-08T05:00:00	2	Temperatura media	19.1
186802	7	Sololá	719	Santiago Atitlán	14	Cerro de Oro	11	Noviembre	2023-11-28T00:00:00	2024-11-08T05:00:00	4	Temperatura máxima	19.3
186803	7	Sololá	719	Santiago Atitlán	14	Cerro de Oro	11	Noviembre	2023-11-28T00:00:00	2024-11-08T05:00:00	3	Temperatura mínima	18.7
186804	7	Sololá	719	Santiago Atitlán	14	Cerro de Oro	11	Noviembre	2023-11-28T00:00:00	2024-11-08T05:00:00	5	Humedad	73
186805	7	Sololá	719	Santiago Atitlán	14	Cerro de Oro	11	Noviembre	2023-11-28T00:00:00	2024-11-08T05:00:00	6	Velocidad del viento	4.8
186806	7	Sololá	719	Santiago Atitlán	14	Cerro de Oro	11	Noviembre	2023-11-28T00:00:00	2024-11-08T05:00:00	7	Dirección del viento	4.83
186807	7	Sololá	719	Santiago Atitlán	14	Cerro de Oro	11	Noviembre	2023-11-28T00:00:00	2024-11-08T05:00:00	1	Precipitación	0
186808	7	Sololá	719	Santiago Atitlán	14	Cerro de Oro	11	Noviembre	2023-11-28T00:00:00	2024-11-08T05:00:00	8	Radiación solar	0
186809	7	Sololá	719	Santiago Atitlán	14	Cerro de Oro	11	Noviembre	2023-11-28T00:00:00	2024-11-08T06:00:00	2	Temperatura media	19.1
186810	7	Sololá	719	Santiago Atitlán	14	Cerro de Oro	11	Noviembre	2023-11-28T00:00:00	2024-11-08T06:00:00	4	Temperatura máxima	19.2
186811	7	Sololá	719	Santiago Atitlán	14	Cerro de Oro	11	Noviembre	2023-11-28T00:00:00	2024-11-08T06:00:00	3	Temperatura mínima	18.8
186812	7	Sololá	719	Santiago Atitlán	14	Cerro de Oro	11	Noviembre	2023-11-28T00:00:00	2024-11-08T06:00:00	5	Humedad	74
186813	7	Sololá	719	Santiago Atitlán	14	Cerro de Oro	11	Noviembre	2023-11-28T00:00:00	2024-11-08T06:00:00	6	Velocidad del viento	4.8
186814	7	Sololá	719	Santiago Atitlán	14	Cerro de Oro	11	Noviembre	2023-11-28T00:00:00	2024-11-08T06:00:00	7	Dirección del viento	4.83
186815	7	Sololá	719	Santiago Atitlán	14	Cerro de Oro	11	Noviembre	2023-11-28T00:00:00	2024-11-08T06:00:00	1	Precipitación	0
186816	7	Sololá	719	Santiago Atitlán	14	Cerro de Oro	11	Noviembre	2023-11-28T00:00:00	2024-11-08T06:00:00	8	Radiación solar	0
186817	7	Sololá	719	Santiago Atitlán	14	Cerro de Oro	11	Noviembre	2023-11-28T00:00:00	2024-11-08T07:00:00	2	Temperatura media	20.4
186818	7	Sololá	719	Santiago Atitlán	14	Cerro de Oro	11	Noviembre	2023-11-28T00:00:00	2024-11-08T07:00:00	4	Temperatura máxima	20.4
186819	7	Sololá	719	Santiago Atitlán	14	Cerro de Oro	11	Noviembre	2023-11-28T00:00:00	2024-11-08T07:00:00	3	Temperatura mínima	18.7
186820	7	Sololá	719	Santiago Atitlán	14	Cerro de Oro	11	Noviembre	2023-11-28T00:00:00	2024-11-08T07:00:00	5	Humedad	70
186821	7	Sololá	719	Santiago Atitlán	14	Cerro de Oro	11	Noviembre	2023-11-28T00:00:00	2024-11-08T07:00:00	6	Velocidad del viento	3.2
186822	7	Sololá	719	Santiago Atitlán	14	Cerro de Oro	11	Noviembre	2023-11-28T00:00:00	2024-11-08T07:00:00	7	Dirección del viento	3.22
186823	7	Sololá	719	Santiago Atitlán	14	Cerro de Oro	11	Noviembre	2023-11-28T00:00:00	2024-11-08T07:00:00	1	Precipitación	0
186824	7	Sololá	719	Santiago Atitlán	14	Cerro de Oro	11	Noviembre	2023-11-28T00:00:00	2024-11-08T07:00:00	8	Radiación solar	37
186825	7	Sololá	719	Santiago Atitlán	14	Cerro de Oro	11	Noviembre	2023-11-28T00:00:00	2024-11-08T08:00:00	2	Temperatura media	22.3
186826	7	Sololá	719	Santiago Atitlán	14	Cerro de Oro	11	Noviembre	2023-11-28T00:00:00	2024-11-08T08:00:00	4	Temperatura máxima	22.3
186827	7	Sololá	719	Santiago Atitlán	14	Cerro de Oro	11	Noviembre	2023-11-28T00:00:00	2024-11-08T08:00:00	3	Temperatura mínima	20.4
186828	7	Sololá	719	Santiago Atitlán	14	Cerro de Oro	11	Noviembre	2023-11-28T00:00:00	2024-11-08T08:00:00	5	Humedad	65
186829	7	Sololá	719	Santiago Atitlán	14	Cerro de Oro	11	Noviembre	2023-11-28T00:00:00	2024-11-08T08:00:00	6	Velocidad del viento	4.8
186830	7	Sololá	719	Santiago Atitlán	14	Cerro de Oro	11	Noviembre	2023-11-28T00:00:00	2024-11-08T08:00:00	7	Dirección del viento	4.83
186831	7	Sololá	719	Santiago Atitlán	14	Cerro de Oro	11	Noviembre	2023-11-28T00:00:00	2024-11-08T08:00:00	1	Precipitación	0
186832	7	Sololá	719	Santiago Atitlán	14	Cerro de Oro	11	Noviembre	2023-11-28T00:00:00	2024-11-08T08:00:00	8	Radiación solar	207
186833	7	Sololá	719	Santiago Atitlán	14	Cerro de Oro	11	Noviembre	2023-11-28T00:00:00	2024-11-08T09:00:00	2	Temperatura media	22.6
186834	7	Sololá	719	Santiago Atitlán	14	Cerro de Oro	11	Noviembre	2023-11-28T00:00:00	2024-11-08T09:00:00	4	Temperatura máxima	22.6
186835	7	Sololá	719	Santiago Atitlán	14	Cerro de Oro	11	Noviembre	2023-11-28T00:00:00	2024-11-08T09:00:00	3	Temperatura mínima	22.3
186836	7	Sololá	719	Santiago Atitlán	14	Cerro de Oro	11	Noviembre	2023-11-28T00:00:00	2024-11-08T09:00:00	5	Humedad	66
186837	7	Sololá	719	Santiago Atitlán	14	Cerro de Oro	11	Noviembre	2023-11-28T00:00:00	2024-11-08T09:00:00	6	Velocidad del viento	8
186838	7	Sololá	719	Santiago Atitlán	14	Cerro de Oro	11	Noviembre	2023-11-28T00:00:00	2024-11-08T09:00:00	7	Dirección del viento	8.05
186839	7	Sololá	719	Santiago Atitlán	14	Cerro de Oro	11	Noviembre	2023-11-28T00:00:00	2024-11-08T09:00:00	1	Precipitación	0
186840	7	Sololá	719	Santiago Atitlán	14	Cerro de Oro	11	Noviembre	2023-11-28T00:00:00	2024-11-08T09:00:00	8	Radiación solar	418
186841	7	Sololá	719	Santiago Atitlán	14	Cerro de Oro	11	Noviembre	2023-11-28T00:00:00	2024-11-08T10:00:00	2	Temperatura media	23.1
186842	7	Sololá	719	Santiago Atitlán	14	Cerro de Oro	11	Noviembre	2023-11-28T00:00:00	2024-11-08T10:00:00	4	Temperatura máxima	23.1
186843	7	Sololá	719	Santiago Atitlán	14	Cerro de Oro	11	Noviembre	2023-11-28T00:00:00	2024-11-08T10:00:00	3	Temperatura mínima	22.6
186844	7	Sololá	719	Santiago Atitlán	14	Cerro de Oro	11	Noviembre	2023-11-28T00:00:00	2024-11-08T10:00:00	5	Humedad	64
186845	7	Sololá	719	Santiago Atitlán	14	Cerro de Oro	11	Noviembre	2023-11-28T00:00:00	2024-11-08T10:00:00	6	Velocidad del viento	8
186846	7	Sololá	719	Santiago Atitlán	14	Cerro de Oro	11	Noviembre	2023-11-28T00:00:00	2024-11-08T10:00:00	7	Dirección del viento	8.05
186847	7	Sololá	719	Santiago Atitlán	14	Cerro de Oro	11	Noviembre	2023-11-28T00:00:00	2024-11-08T10:00:00	1	Precipitación	0
186848	7	Sololá	719	Santiago Atitlán	14	Cerro de Oro	11	Noviembre	2023-11-28T00:00:00	2024-11-08T10:00:00	8	Radiación solar	485
186849	7	Sololá	719	Santiago Atitlán	14	Cerro de Oro	11	Noviembre	2023-11-28T00:00:00	2024-11-08T11:00:00	2	Temperatura media	24
186850	7	Sololá	719	Santiago Atitlán	14	Cerro de Oro	11	Noviembre	2023-11-28T00:00:00	2024-11-08T11:00:00	4	Temperatura máxima	24.2
186851	7	Sololá	719	Santiago Atitlán	14	Cerro de Oro	11	Noviembre	2023-11-28T00:00:00	2024-11-08T11:00:00	3	Temperatura mínima	23.1
186852	7	Sololá	719	Santiago Atitlán	14	Cerro de Oro	11	Noviembre	2023-11-28T00:00:00	2024-11-08T11:00:00	5	Humedad	61
186853	7	Sololá	719	Santiago Atitlán	14	Cerro de Oro	11	Noviembre	2023-11-28T00:00:00	2024-11-08T11:00:00	6	Velocidad del viento	8
186854	7	Sololá	719	Santiago Atitlán	14	Cerro de Oro	11	Noviembre	2023-11-28T00:00:00	2024-11-08T11:00:00	7	Dirección del viento	8.05
186855	7	Sololá	719	Santiago Atitlán	14	Cerro de Oro	11	Noviembre	2023-11-28T00:00:00	2024-11-08T11:00:00	1	Precipitación	0
186856	7	Sololá	719	Santiago Atitlán	14	Cerro de Oro	11	Noviembre	2023-11-28T00:00:00	2024-11-08T11:00:00	8	Radiación solar	556
186857	7	Sololá	719	Santiago Atitlán	14	Cerro de Oro	11	Noviembre	2023-11-28T00:00:00	2024-11-08T12:00:00	2	Temperatura media	23.5
186858	7	Sololá	719	Santiago Atitlán	14	Cerro de Oro	11	Noviembre	2023-11-28T00:00:00	2024-11-08T12:00:00	4	Temperatura máxima	24
186859	7	Sololá	719	Santiago Atitlán	14	Cerro de Oro	11	Noviembre	2023-11-28T00:00:00	2024-11-08T12:00:00	3	Temperatura mínima	23.3
186860	7	Sololá	719	Santiago Atitlán	14	Cerro de Oro	11	Noviembre	2023-11-28T00:00:00	2024-11-08T12:00:00	5	Humedad	65
186861	7	Sololá	719	Santiago Atitlán	14	Cerro de Oro	11	Noviembre	2023-11-28T00:00:00	2024-11-08T12:00:00	6	Velocidad del viento	8
186862	7	Sololá	719	Santiago Atitlán	14	Cerro de Oro	11	Noviembre	2023-11-28T00:00:00	2024-11-08T12:00:00	7	Dirección del viento	8.05
186863	7	Sololá	719	Santiago Atitlán	14	Cerro de Oro	11	Noviembre	2023-11-28T00:00:00	2024-11-08T12:00:00	1	Precipitación	0
186864	7	Sololá	719	Santiago Atitlán	14	Cerro de Oro	11	Noviembre	2023-11-28T00:00:00	2024-11-08T12:00:00	8	Radiación solar	280
186865	7	Sololá	719	Santiago Atitlán	14	Cerro de Oro	11	Noviembre	2023-11-28T00:00:00	2024-11-08T13:00:00	2	Temperatura media	23.9
186866	7	Sololá	719	Santiago Atitlán	14	Cerro de Oro	11	Noviembre	2023-11-28T00:00:00	2024-11-08T13:00:00	4	Temperatura máxima	24.5
186867	7	Sololá	719	Santiago Atitlán	14	Cerro de Oro	11	Noviembre	2023-11-28T00:00:00	2024-11-08T13:00:00	3	Temperatura mínima	23.3
186868	7	Sololá	719	Santiago Atitlán	14	Cerro de Oro	11	Noviembre	2023-11-28T00:00:00	2024-11-08T13:00:00	5	Humedad	65
186869	7	Sololá	719	Santiago Atitlán	14	Cerro de Oro	11	Noviembre	2023-11-28T00:00:00	2024-11-08T13:00:00	6	Velocidad del viento	9.7
186870	7	Sololá	719	Santiago Atitlán	14	Cerro de Oro	11	Noviembre	2023-11-28T00:00:00	2024-11-08T13:00:00	7	Dirección del viento	9.66
186871	7	Sololá	719	Santiago Atitlán	14	Cerro de Oro	11	Noviembre	2023-11-28T00:00:00	2024-11-08T13:00:00	1	Precipitación	0
186872	7	Sololá	719	Santiago Atitlán	14	Cerro de Oro	11	Noviembre	2023-11-28T00:00:00	2024-11-08T13:00:00	8	Radiación solar	476
186873	7	Sololá	719	Santiago Atitlán	14	Cerro de Oro	11	Noviembre	2023-11-28T00:00:00	2024-11-08T14:00:00	2	Temperatura media	23.8
186874	7	Sololá	719	Santiago Atitlán	14	Cerro de Oro	11	Noviembre	2023-11-28T00:00:00	2024-11-08T14:00:00	4	Temperatura máxima	24.1
186875	7	Sololá	719	Santiago Atitlán	14	Cerro de Oro	11	Noviembre	2023-11-28T00:00:00	2024-11-08T14:00:00	3	Temperatura mínima	23.7
186876	7	Sololá	719	Santiago Atitlán	14	Cerro de Oro	11	Noviembre	2023-11-28T00:00:00	2024-11-08T14:00:00	5	Humedad	62
186877	7	Sololá	719	Santiago Atitlán	14	Cerro de Oro	11	Noviembre	2023-11-28T00:00:00	2024-11-08T14:00:00	6	Velocidad del viento	8
186878	7	Sololá	719	Santiago Atitlán	14	Cerro de Oro	11	Noviembre	2023-11-28T00:00:00	2024-11-08T14:00:00	7	Dirección del viento	8.05
186879	7	Sololá	719	Santiago Atitlán	14	Cerro de Oro	11	Noviembre	2023-11-28T00:00:00	2024-11-08T14:00:00	1	Precipitación	0
186880	7	Sololá	719	Santiago Atitlán	14	Cerro de Oro	11	Noviembre	2023-11-28T00:00:00	2024-11-08T14:00:00	8	Radiación solar	233
186881	7	Sololá	719	Santiago Atitlán	14	Cerro de Oro	11	Noviembre	2023-11-28T00:00:00	2024-11-08T15:00:00	2	Temperatura media	23.3
186882	7	Sololá	719	Santiago Atitlán	14	Cerro de Oro	11	Noviembre	2023-11-28T00:00:00	2024-11-08T15:00:00	4	Temperatura máxima	23.8
186883	7	Sololá	719	Santiago Atitlán	14	Cerro de Oro	11	Noviembre	2023-11-28T00:00:00	2024-11-08T15:00:00	3	Temperatura mínima	23.2
186884	7	Sololá	719	Santiago Atitlán	14	Cerro de Oro	11	Noviembre	2023-11-28T00:00:00	2024-11-08T15:00:00	5	Humedad	67
186885	7	Sololá	719	Santiago Atitlán	14	Cerro de Oro	11	Noviembre	2023-11-28T00:00:00	2024-11-08T15:00:00	6	Velocidad del viento	9.7
186886	7	Sololá	719	Santiago Atitlán	14	Cerro de Oro	11	Noviembre	2023-11-28T00:00:00	2024-11-08T15:00:00	7	Dirección del viento	9.66
186887	7	Sololá	719	Santiago Atitlán	14	Cerro de Oro	11	Noviembre	2023-11-28T00:00:00	2024-11-08T15:00:00	1	Precipitación	0
186888	7	Sololá	719	Santiago Atitlán	14	Cerro de Oro	11	Noviembre	2023-11-28T00:00:00	2024-11-08T15:00:00	8	Radiación solar	144
186889	7	Sololá	719	Santiago Atitlán	14	Cerro de Oro	11	Noviembre	2023-11-28T00:00:00	2024-11-08T16:00:00	2	Temperatura media	23.4
186890	7	Sololá	719	Santiago Atitlán	14	Cerro de Oro	11	Noviembre	2023-11-28T00:00:00	2024-11-08T16:00:00	4	Temperatura máxima	23.6
186891	7	Sololá	719	Santiago Atitlán	14	Cerro de Oro	11	Noviembre	2023-11-28T00:00:00	2024-11-08T16:00:00	3	Temperatura mínima	23.1
186892	7	Sololá	719	Santiago Atitlán	14	Cerro de Oro	11	Noviembre	2023-11-28T00:00:00	2024-11-08T16:00:00	5	Humedad	63
186893	7	Sololá	719	Santiago Atitlán	14	Cerro de Oro	11	Noviembre	2023-11-28T00:00:00	2024-11-08T16:00:00	6	Velocidad del viento	11.3
186894	7	Sololá	719	Santiago Atitlán	14	Cerro de Oro	11	Noviembre	2023-11-28T00:00:00	2024-11-08T16:00:00	7	Dirección del viento	11.27
186895	7	Sololá	719	Santiago Atitlán	14	Cerro de Oro	11	Noviembre	2023-11-28T00:00:00	2024-11-08T16:00:00	1	Precipitación	0
186896	7	Sololá	719	Santiago Atitlán	14	Cerro de Oro	11	Noviembre	2023-11-28T00:00:00	2024-11-08T16:00:00	8	Radiación solar	302
186897	7	Sololá	719	Santiago Atitlán	14	Cerro de Oro	11	Noviembre	2023-11-28T00:00:00	2024-11-08T17:00:00	2	Temperatura media	23.2
186898	7	Sololá	719	Santiago Atitlán	14	Cerro de Oro	11	Noviembre	2023-11-28T00:00:00	2024-11-08T17:00:00	4	Temperatura máxima	23.4
186899	7	Sololá	719	Santiago Atitlán	14	Cerro de Oro	11	Noviembre	2023-11-28T00:00:00	2024-11-08T17:00:00	3	Temperatura mínima	22.9
186900	7	Sololá	719	Santiago Atitlán	14	Cerro de Oro	11	Noviembre	2023-11-28T00:00:00	2024-11-08T17:00:00	5	Humedad	64
186901	7	Sololá	719	Santiago Atitlán	14	Cerro de Oro	11	Noviembre	2023-11-28T00:00:00	2024-11-08T17:00:00	6	Velocidad del viento	9.7
186902	7	Sololá	719	Santiago Atitlán	14	Cerro de Oro	11	Noviembre	2023-11-28T00:00:00	2024-11-08T17:00:00	7	Dirección del viento	9.66
186903	7	Sololá	719	Santiago Atitlán	14	Cerro de Oro	11	Noviembre	2023-11-28T00:00:00	2024-11-08T17:00:00	1	Precipitación	0
186904	7	Sololá	719	Santiago Atitlán	14	Cerro de Oro	11	Noviembre	2023-11-28T00:00:00	2024-11-08T17:00:00	8	Radiación solar	122
186905	7	Sololá	719	Santiago Atitlán	14	Cerro de Oro	11	Noviembre	2023-11-28T00:00:00	2024-11-08T18:00:00	2	Temperatura media	22.3
186906	7	Sololá	719	Santiago Atitlán	14	Cerro de Oro	11	Noviembre	2023-11-28T00:00:00	2024-11-08T18:00:00	4	Temperatura máxima	23.2
186907	7	Sololá	719	Santiago Atitlán	14	Cerro de Oro	11	Noviembre	2023-11-28T00:00:00	2024-11-08T18:00:00	3	Temperatura mínima	21.9
186908	7	Sololá	719	Santiago Atitlán	14	Cerro de Oro	11	Noviembre	2023-11-28T00:00:00	2024-11-08T18:00:00	5	Humedad	64
186909	7	Sololá	719	Santiago Atitlán	14	Cerro de Oro	11	Noviembre	2023-11-28T00:00:00	2024-11-08T18:00:00	6	Velocidad del viento	4.8
186910	7	Sololá	719	Santiago Atitlán	14	Cerro de Oro	11	Noviembre	2023-11-28T00:00:00	2024-11-08T18:00:00	7	Dirección del viento	4.83
186911	7	Sololá	719	Santiago Atitlán	14	Cerro de Oro	11	Noviembre	2023-11-28T00:00:00	2024-11-08T18:00:00	1	Precipitación	0
186912	7	Sololá	719	Santiago Atitlán	14	Cerro de Oro	11	Noviembre	2023-11-28T00:00:00	2024-11-08T18:00:00	8	Radiación solar	13
186913	7	Sololá	719	Santiago Atitlán	14	Cerro de Oro	11	Noviembre	2023-11-28T00:00:00	2024-11-08T19:00:00	2	Temperatura media	20.8
186914	7	Sololá	719	Santiago Atitlán	14	Cerro de Oro	11	Noviembre	2023-11-28T00:00:00	2024-11-08T19:00:00	4	Temperatura máxima	22.3
186915	7	Sololá	719	Santiago Atitlán	14	Cerro de Oro	11	Noviembre	2023-11-28T00:00:00	2024-11-08T19:00:00	3	Temperatura mínima	20.7
186916	7	Sololá	719	Santiago Atitlán	14	Cerro de Oro	11	Noviembre	2023-11-28T00:00:00	2024-11-08T19:00:00	5	Humedad	70
186917	7	Sololá	719	Santiago Atitlán	14	Cerro de Oro	11	Noviembre	2023-11-28T00:00:00	2024-11-08T19:00:00	6	Velocidad del viento	4.8
186918	7	Sololá	719	Santiago Atitlán	14	Cerro de Oro	11	Noviembre	2023-11-28T00:00:00	2024-11-08T19:00:00	7	Dirección del viento	4.83
186919	7	Sololá	719	Santiago Atitlán	14	Cerro de Oro	11	Noviembre	2023-11-28T00:00:00	2024-11-08T19:00:00	1	Precipitación	0
186920	7	Sololá	719	Santiago Atitlán	14	Cerro de Oro	11	Noviembre	2023-11-28T00:00:00	2024-11-08T19:00:00	8	Radiación solar	0
186921	7	Sololá	719	Santiago Atitlán	14	Cerro de Oro	11	Noviembre	2023-11-28T00:00:00	2024-11-08T20:00:00	2	Temperatura media	20.9
186922	7	Sololá	719	Santiago Atitlán	14	Cerro de Oro	11	Noviembre	2023-11-28T00:00:00	2024-11-08T20:00:00	4	Temperatura máxima	21.5
186923	7	Sololá	719	Santiago Atitlán	14	Cerro de Oro	11	Noviembre	2023-11-28T00:00:00	2024-11-08T20:00:00	3	Temperatura mínima	20.8
186924	7	Sololá	719	Santiago Atitlán	14	Cerro de Oro	11	Noviembre	2023-11-28T00:00:00	2024-11-08T20:00:00	5	Humedad	68
186925	7	Sololá	719	Santiago Atitlán	14	Cerro de Oro	11	Noviembre	2023-11-28T00:00:00	2024-11-08T20:00:00	6	Velocidad del viento	4.8
186926	7	Sololá	719	Santiago Atitlán	14	Cerro de Oro	11	Noviembre	2023-11-28T00:00:00	2024-11-08T20:00:00	7	Dirección del viento	4.83
186927	7	Sololá	719	Santiago Atitlán	14	Cerro de Oro	11	Noviembre	2023-11-28T00:00:00	2024-11-08T20:00:00	1	Precipitación	0
186928	7	Sololá	719	Santiago Atitlán	14	Cerro de Oro	11	Noviembre	2023-11-28T00:00:00	2024-11-08T20:00:00	8	Radiación solar	0
186929	7	Sololá	719	Santiago Atitlán	14	Cerro de Oro	11	Noviembre	2023-11-28T00:00:00	2024-11-08T21:00:00	2	Temperatura media	20.2
186930	7	Sololá	719	Santiago Atitlán	14	Cerro de Oro	11	Noviembre	2023-11-28T00:00:00	2024-11-08T21:00:00	4	Temperatura máxima	21.1
186931	7	Sololá	719	Santiago Atitlán	14	Cerro de Oro	11	Noviembre	2023-11-28T00:00:00	2024-11-08T21:00:00	3	Temperatura mínima	19.5
186932	7	Sololá	719	Santiago Atitlán	14	Cerro de Oro	11	Noviembre	2023-11-28T00:00:00	2024-11-08T21:00:00	5	Humedad	70
186933	7	Sololá	719	Santiago Atitlán	14	Cerro de Oro	11	Noviembre	2023-11-28T00:00:00	2024-11-08T21:00:00	6	Velocidad del viento	4.8
186934	7	Sololá	719	Santiago Atitlán	14	Cerro de Oro	11	Noviembre	2023-11-28T00:00:00	2024-11-08T21:00:00	7	Dirección del viento	4.83
186935	7	Sololá	719	Santiago Atitlán	14	Cerro de Oro	11	Noviembre	2023-11-28T00:00:00	2024-11-08T21:00:00	1	Precipitación	0
186936	7	Sololá	719	Santiago Atitlán	14	Cerro de Oro	11	Noviembre	2023-11-28T00:00:00	2024-11-08T21:00:00	8	Radiación solar	0
186937	7	Sololá	719	Santiago Atitlán	14	Cerro de Oro	11	Noviembre	2023-11-28T00:00:00	2024-11-08T22:00:00	2	Temperatura media	20.5
186938	7	Sololá	719	Santiago Atitlán	14	Cerro de Oro	11	Noviembre	2023-11-28T00:00:00	2024-11-08T22:00:00	4	Temperatura máxima	21.1
186939	7	Sololá	719	Santiago Atitlán	14	Cerro de Oro	11	Noviembre	2023-11-28T00:00:00	2024-11-08T22:00:00	3	Temperatura mínima	20.2
186940	7	Sololá	719	Santiago Atitlán	14	Cerro de Oro	11	Noviembre	2023-11-28T00:00:00	2024-11-08T22:00:00	5	Humedad	70
186941	7	Sololá	719	Santiago Atitlán	14	Cerro de Oro	11	Noviembre	2023-11-28T00:00:00	2024-11-08T22:00:00	6	Velocidad del viento	8
186942	7	Sololá	719	Santiago Atitlán	14	Cerro de Oro	11	Noviembre	2023-11-28T00:00:00	2024-11-08T22:00:00	7	Dirección del viento	8.05
186943	7	Sololá	719	Santiago Atitlán	14	Cerro de Oro	11	Noviembre	2023-11-28T00:00:00	2024-11-08T22:00:00	1	Precipitación	0
186944	7	Sololá	719	Santiago Atitlán	14	Cerro de Oro	11	Noviembre	2023-11-28T00:00:00	2024-11-08T22:00:00	8	Radiación solar	0
186945	7	Sololá	719	Santiago Atitlán	14	Cerro de Oro	11	Noviembre	2023-11-28T00:00:00	2024-11-08T23:00:00	2	Temperatura media	19.9
186946	7	Sololá	719	Santiago Atitlán	14	Cerro de Oro	11	Noviembre	2023-11-28T00:00:00	2024-11-08T23:00:00	4	Temperatura máxima	20.5
186947	7	Sololá	719	Santiago Atitlán	14	Cerro de Oro	11	Noviembre	2023-11-28T00:00:00	2024-11-08T23:00:00	3	Temperatura mínima	19.8
186948	7	Sololá	719	Santiago Atitlán	14	Cerro de Oro	11	Noviembre	2023-11-28T00:00:00	2024-11-08T23:00:00	5	Humedad	68
186949	7	Sololá	719	Santiago Atitlán	14	Cerro de Oro	11	Noviembre	2023-11-28T00:00:00	2024-11-08T23:00:00	6	Velocidad del viento	4.8
186950	7	Sololá	719	Santiago Atitlán	14	Cerro de Oro	11	Noviembre	2023-11-28T00:00:00	2024-11-08T23:00:00	7	Dirección del viento	4.83
186951	7	Sololá	719	Santiago Atitlán	14	Cerro de Oro	11	Noviembre	2023-11-28T00:00:00	2024-11-08T23:00:00	1	Precipitación	0
186952	7	Sololá	719	Santiago Atitlán	14	Cerro de Oro	11	Noviembre	2023-11-28T00:00:00	2024-11-08T23:00:00	8	Radiación solar	0
186953	7	Sololá	719	Santiago Atitlán	14	Cerro de Oro	11	Noviembre	2023-11-29T00:00:00	2024-11-08T00:00:00	2	Temperatura media	18.7
186954	7	Sololá	719	Santiago Atitlán	14	Cerro de Oro	11	Noviembre	2023-11-29T00:00:00	2024-11-08T00:00:00	4	Temperatura máxima	20
186955	7	Sololá	719	Santiago Atitlán	14	Cerro de Oro	11	Noviembre	2023-11-29T00:00:00	2024-11-08T00:00:00	3	Temperatura mínima	18.4
186956	7	Sololá	719	Santiago Atitlán	14	Cerro de Oro	11	Noviembre	2023-11-29T00:00:00	2024-11-08T00:00:00	5	Humedad	72
186957	7	Sololá	719	Santiago Atitlán	14	Cerro de Oro	11	Noviembre	2023-11-29T00:00:00	2024-11-08T00:00:00	6	Velocidad del viento	4.8
186958	7	Sololá	719	Santiago Atitlán	14	Cerro de Oro	11	Noviembre	2023-11-29T00:00:00	2024-11-08T00:00:00	7	Dirección del viento	4.83
186959	7	Sololá	719	Santiago Atitlán	14	Cerro de Oro	11	Noviembre	2023-11-29T00:00:00	2024-11-08T00:00:00	1	Precipitación	0
186960	7	Sololá	719	Santiago Atitlán	14	Cerro de Oro	11	Noviembre	2023-11-29T00:00:00	2024-11-08T00:00:00	8	Radiación solar	0
186961	7	Sololá	719	Santiago Atitlán	14	Cerro de Oro	11	Noviembre	2023-11-29T00:00:00	2024-11-08T01:00:00	2	Temperatura media	18.3
186962	7	Sololá	719	Santiago Atitlán	14	Cerro de Oro	11	Noviembre	2023-11-29T00:00:00	2024-11-08T01:00:00	4	Temperatura máxima	18.8
186963	7	Sololá	719	Santiago Atitlán	14	Cerro de Oro	11	Noviembre	2023-11-29T00:00:00	2024-11-08T01:00:00	3	Temperatura mínima	18.1
186964	7	Sololá	719	Santiago Atitlán	14	Cerro de Oro	11	Noviembre	2023-11-29T00:00:00	2024-11-08T01:00:00	5	Humedad	72
186965	7	Sololá	719	Santiago Atitlán	14	Cerro de Oro	11	Noviembre	2023-11-29T00:00:00	2024-11-08T01:00:00	6	Velocidad del viento	4.8
186966	7	Sololá	719	Santiago Atitlán	14	Cerro de Oro	11	Noviembre	2023-11-29T00:00:00	2024-11-08T01:00:00	7	Dirección del viento	4.83
186967	7	Sololá	719	Santiago Atitlán	14	Cerro de Oro	11	Noviembre	2023-11-29T00:00:00	2024-11-08T01:00:00	1	Precipitación	0
186968	7	Sololá	719	Santiago Atitlán	14	Cerro de Oro	11	Noviembre	2023-11-29T00:00:00	2024-11-08T01:00:00	8	Radiación solar	0
186969	7	Sololá	719	Santiago Atitlán	14	Cerro de Oro	11	Noviembre	2023-11-29T00:00:00	2024-11-08T02:00:00	2	Temperatura media	17.9
186970	7	Sololá	719	Santiago Atitlán	14	Cerro de Oro	11	Noviembre	2023-11-29T00:00:00	2024-11-08T02:00:00	4	Temperatura máxima	18.6
186971	7	Sololá	719	Santiago Atitlán	14	Cerro de Oro	11	Noviembre	2023-11-29T00:00:00	2024-11-08T02:00:00	3	Temperatura mínima	17.8
186972	7	Sololá	719	Santiago Atitlán	14	Cerro de Oro	11	Noviembre	2023-11-29T00:00:00	2024-11-08T02:00:00	5	Humedad	73
186973	7	Sololá	719	Santiago Atitlán	14	Cerro de Oro	11	Noviembre	2023-11-29T00:00:00	2024-11-08T02:00:00	6	Velocidad del viento	4.8
186974	7	Sololá	719	Santiago Atitlán	14	Cerro de Oro	11	Noviembre	2023-11-29T00:00:00	2024-11-08T02:00:00	7	Dirección del viento	4.83
186975	7	Sololá	719	Santiago Atitlán	14	Cerro de Oro	11	Noviembre	2023-11-29T00:00:00	2024-11-08T02:00:00	1	Precipitación	0
186976	7	Sololá	719	Santiago Atitlán	14	Cerro de Oro	11	Noviembre	2023-11-29T00:00:00	2024-11-08T02:00:00	8	Radiación solar	0
186977	7	Sololá	719	Santiago Atitlán	14	Cerro de Oro	11	Noviembre	2023-11-29T00:00:00	2024-11-08T03:00:00	2	Temperatura media	17.7
186978	7	Sololá	719	Santiago Atitlán	14	Cerro de Oro	11	Noviembre	2023-11-29T00:00:00	2024-11-08T03:00:00	4	Temperatura máxima	18.1
186979	7	Sololá	719	Santiago Atitlán	14	Cerro de Oro	11	Noviembre	2023-11-29T00:00:00	2024-11-08T03:00:00	3	Temperatura mínima	17.2
186980	7	Sololá	719	Santiago Atitlán	14	Cerro de Oro	11	Noviembre	2023-11-29T00:00:00	2024-11-08T03:00:00	5	Humedad	74
186981	7	Sololá	719	Santiago Atitlán	14	Cerro de Oro	11	Noviembre	2023-11-29T00:00:00	2024-11-08T03:00:00	6	Velocidad del viento	6.4
186982	7	Sololá	719	Santiago Atitlán	14	Cerro de Oro	11	Noviembre	2023-11-29T00:00:00	2024-11-08T03:00:00	7	Dirección del viento	6.44
186983	7	Sololá	719	Santiago Atitlán	14	Cerro de Oro	11	Noviembre	2023-11-29T00:00:00	2024-11-08T03:00:00	1	Precipitación	0
186984	7	Sololá	719	Santiago Atitlán	14	Cerro de Oro	11	Noviembre	2023-11-29T00:00:00	2024-11-08T03:00:00	8	Radiación solar	0
186985	7	Sololá	719	Santiago Atitlán	14	Cerro de Oro	11	Noviembre	2023-11-29T00:00:00	2024-11-08T04:00:00	2	Temperatura media	17.8
186986	7	Sololá	719	Santiago Atitlán	14	Cerro de Oro	11	Noviembre	2023-11-29T00:00:00	2024-11-08T04:00:00	4	Temperatura máxima	18.3
186987	7	Sololá	719	Santiago Atitlán	14	Cerro de Oro	11	Noviembre	2023-11-29T00:00:00	2024-11-08T04:00:00	3	Temperatura mínima	17.3
186988	7	Sololá	719	Santiago Atitlán	14	Cerro de Oro	11	Noviembre	2023-11-29T00:00:00	2024-11-08T04:00:00	5	Humedad	72
186989	7	Sololá	719	Santiago Atitlán	14	Cerro de Oro	11	Noviembre	2023-11-29T00:00:00	2024-11-08T04:00:00	6	Velocidad del viento	6.4
186990	7	Sololá	719	Santiago Atitlán	14	Cerro de Oro	11	Noviembre	2023-11-29T00:00:00	2024-11-08T04:00:00	7	Dirección del viento	6.44
186991	7	Sololá	719	Santiago Atitlán	14	Cerro de Oro	11	Noviembre	2023-11-29T00:00:00	2024-11-08T04:00:00	1	Precipitación	0
186992	7	Sololá	719	Santiago Atitlán	14	Cerro de Oro	11	Noviembre	2023-11-29T00:00:00	2024-11-08T04:00:00	8	Radiación solar	0
186993	7	Sololá	719	Santiago Atitlán	14	Cerro de Oro	11	Noviembre	2023-11-29T00:00:00	2024-11-08T05:00:00	2	Temperatura media	17.4
186994	7	Sololá	719	Santiago Atitlán	14	Cerro de Oro	11	Noviembre	2023-11-29T00:00:00	2024-11-08T05:00:00	4	Temperatura máxima	17.8
186995	7	Sololá	719	Santiago Atitlán	14	Cerro de Oro	11	Noviembre	2023-11-29T00:00:00	2024-11-08T05:00:00	3	Temperatura mínima	16.5
186996	7	Sololá	719	Santiago Atitlán	14	Cerro de Oro	11	Noviembre	2023-11-29T00:00:00	2024-11-08T05:00:00	5	Humedad	74
186997	7	Sololá	719	Santiago Atitlán	14	Cerro de Oro	11	Noviembre	2023-11-29T00:00:00	2024-11-08T05:00:00	6	Velocidad del viento	6.4
186998	7	Sololá	719	Santiago Atitlán	14	Cerro de Oro	11	Noviembre	2023-11-29T00:00:00	2024-11-08T05:00:00	7	Dirección del viento	6.44
186999	7	Sololá	719	Santiago Atitlán	14	Cerro de Oro	11	Noviembre	2023-11-29T00:00:00	2024-11-08T05:00:00	1	Precipitación	0
187000	7	Sololá	719	Santiago Atitlán	14	Cerro de Oro	11	Noviembre	2023-11-29T00:00:00	2024-11-08T05:00:00	8	Radiación solar	0
187001	7	Sololá	719	Santiago Atitlán	14	Cerro de Oro	11	Noviembre	2023-11-29T00:00:00	2024-11-08T06:00:00	2	Temperatura media	18.1
187002	7	Sololá	719	Santiago Atitlán	14	Cerro de Oro	11	Noviembre	2023-11-29T00:00:00	2024-11-08T06:00:00	4	Temperatura máxima	18.1
187003	7	Sololá	719	Santiago Atitlán	14	Cerro de Oro	11	Noviembre	2023-11-29T00:00:00	2024-11-08T06:00:00	3	Temperatura mínima	16.9
187004	7	Sololá	719	Santiago Atitlán	14	Cerro de Oro	11	Noviembre	2023-11-29T00:00:00	2024-11-08T06:00:00	5	Humedad	70
187005	7	Sololá	719	Santiago Atitlán	14	Cerro de Oro	11	Noviembre	2023-11-29T00:00:00	2024-11-08T06:00:00	6	Velocidad del viento	4.8
187006	7	Sololá	719	Santiago Atitlán	14	Cerro de Oro	11	Noviembre	2023-11-29T00:00:00	2024-11-08T06:00:00	7	Dirección del viento	4.83
187007	7	Sololá	719	Santiago Atitlán	14	Cerro de Oro	11	Noviembre	2023-11-29T00:00:00	2024-11-08T06:00:00	1	Precipitación	0
187008	7	Sololá	719	Santiago Atitlán	14	Cerro de Oro	11	Noviembre	2023-11-29T00:00:00	2024-11-08T06:00:00	8	Radiación solar	0
187009	7	Sololá	719	Santiago Atitlán	14	Cerro de Oro	11	Noviembre	2023-11-29T00:00:00	2024-11-08T07:00:00	2	Temperatura media	17.9
187010	7	Sololá	719	Santiago Atitlán	14	Cerro de Oro	11	Noviembre	2023-11-29T00:00:00	2024-11-08T07:00:00	4	Temperatura máxima	18.1
187011	7	Sololá	719	Santiago Atitlán	14	Cerro de Oro	11	Noviembre	2023-11-29T00:00:00	2024-11-08T07:00:00	3	Temperatura mínima	17.2
187012	7	Sololá	719	Santiago Atitlán	14	Cerro de Oro	11	Noviembre	2023-11-29T00:00:00	2024-11-08T07:00:00	5	Humedad	70
187013	7	Sololá	719	Santiago Atitlán	14	Cerro de Oro	11	Noviembre	2023-11-29T00:00:00	2024-11-08T07:00:00	6	Velocidad del viento	4.8
187014	7	Sololá	719	Santiago Atitlán	14	Cerro de Oro	11	Noviembre	2023-11-29T00:00:00	2024-11-08T07:00:00	7	Dirección del viento	4.83
187015	7	Sololá	719	Santiago Atitlán	14	Cerro de Oro	11	Noviembre	2023-11-29T00:00:00	2024-11-08T07:00:00	1	Precipitación	0
187016	7	Sololá	719	Santiago Atitlán	14	Cerro de Oro	11	Noviembre	2023-11-29T00:00:00	2024-11-08T07:00:00	8	Radiación solar	27
187017	7	Sololá	719	Santiago Atitlán	14	Cerro de Oro	11	Noviembre	2023-11-29T00:00:00	2024-11-08T08:00:00	2	Temperatura media	21.5
187018	7	Sololá	719	Santiago Atitlán	14	Cerro de Oro	11	Noviembre	2023-11-29T00:00:00	2024-11-08T08:00:00	4	Temperatura máxima	21.5
187019	7	Sololá	719	Santiago Atitlán	14	Cerro de Oro	11	Noviembre	2023-11-29T00:00:00	2024-11-08T08:00:00	3	Temperatura mínima	17.9
187020	7	Sololá	719	Santiago Atitlán	14	Cerro de Oro	11	Noviembre	2023-11-29T00:00:00	2024-11-08T08:00:00	5	Humedad	53
187021	7	Sololá	719	Santiago Atitlán	14	Cerro de Oro	11	Noviembre	2023-11-29T00:00:00	2024-11-08T08:00:00	6	Velocidad del viento	1.6
187022	7	Sololá	719	Santiago Atitlán	14	Cerro de Oro	11	Noviembre	2023-11-29T00:00:00	2024-11-08T08:00:00	7	Dirección del viento	1.61
187023	7	Sololá	719	Santiago Atitlán	14	Cerro de Oro	11	Noviembre	2023-11-29T00:00:00	2024-11-08T08:00:00	1	Precipitación	0
187024	7	Sololá	719	Santiago Atitlán	14	Cerro de Oro	11	Noviembre	2023-11-29T00:00:00	2024-11-08T08:00:00	8	Radiación solar	215
187025	7	Sololá	719	Santiago Atitlán	14	Cerro de Oro	11	Noviembre	2023-11-29T00:00:00	2024-11-08T09:00:00	2	Temperatura media	22.2
187026	7	Sololá	719	Santiago Atitlán	14	Cerro de Oro	11	Noviembre	2023-11-29T00:00:00	2024-11-08T09:00:00	4	Temperatura máxima	22.2
187027	7	Sololá	719	Santiago Atitlán	14	Cerro de Oro	11	Noviembre	2023-11-29T00:00:00	2024-11-08T09:00:00	3	Temperatura mínima	21.3
187028	7	Sololá	719	Santiago Atitlán	14	Cerro de Oro	11	Noviembre	2023-11-29T00:00:00	2024-11-08T09:00:00	5	Humedad	48
187029	7	Sololá	719	Santiago Atitlán	14	Cerro de Oro	11	Noviembre	2023-11-29T00:00:00	2024-11-08T09:00:00	6	Velocidad del viento	4.8
187030	7	Sololá	719	Santiago Atitlán	14	Cerro de Oro	11	Noviembre	2023-11-29T00:00:00	2024-11-08T09:00:00	7	Dirección del viento	4.83
187031	7	Sololá	719	Santiago Atitlán	14	Cerro de Oro	11	Noviembre	2023-11-29T00:00:00	2024-11-08T09:00:00	1	Precipitación	0
187032	7	Sololá	719	Santiago Atitlán	14	Cerro de Oro	11	Noviembre	2023-11-29T00:00:00	2024-11-08T09:00:00	8	Radiación solar	418
187033	7	Sololá	719	Santiago Atitlán	14	Cerro de Oro	11	Noviembre	2023-11-29T00:00:00	2024-11-08T10:00:00	2	Temperatura media	23.4
187034	7	Sololá	719	Santiago Atitlán	14	Cerro de Oro	11	Noviembre	2023-11-29T00:00:00	2024-11-08T10:00:00	4	Temperatura máxima	23.4
187035	7	Sololá	719	Santiago Atitlán	14	Cerro de Oro	11	Noviembre	2023-11-29T00:00:00	2024-11-08T10:00:00	3	Temperatura mínima	22
187036	7	Sololá	719	Santiago Atitlán	14	Cerro de Oro	11	Noviembre	2023-11-29T00:00:00	2024-11-08T10:00:00	5	Humedad	47
187037	7	Sololá	719	Santiago Atitlán	14	Cerro de Oro	11	Noviembre	2023-11-29T00:00:00	2024-11-08T10:00:00	6	Velocidad del viento	4.8
187038	7	Sololá	719	Santiago Atitlán	14	Cerro de Oro	11	Noviembre	2023-11-29T00:00:00	2024-11-08T10:00:00	7	Dirección del viento	4.83
187039	7	Sololá	719	Santiago Atitlán	14	Cerro de Oro	11	Noviembre	2023-11-29T00:00:00	2024-11-08T10:00:00	1	Precipitación	0
187040	7	Sololá	719	Santiago Atitlán	14	Cerro de Oro	11	Noviembre	2023-11-29T00:00:00	2024-11-08T10:00:00	8	Radiación solar	588
187041	7	Sololá	719	Santiago Atitlán	14	Cerro de Oro	11	Noviembre	2023-11-29T00:00:00	2024-11-08T11:00:00	2	Temperatura media	24.4
187042	7	Sololá	719	Santiago Atitlán	14	Cerro de Oro	11	Noviembre	2023-11-29T00:00:00	2024-11-08T11:00:00	4	Temperatura máxima	24.6
187043	7	Sololá	719	Santiago Atitlán	14	Cerro de Oro	11	Noviembre	2023-11-29T00:00:00	2024-11-08T11:00:00	3	Temperatura mínima	23.4
187044	7	Sololá	719	Santiago Atitlán	14	Cerro de Oro	11	Noviembre	2023-11-29T00:00:00	2024-11-08T11:00:00	5	Humedad	43
187045	7	Sololá	719	Santiago Atitlán	14	Cerro de Oro	11	Noviembre	2023-11-29T00:00:00	2024-11-08T11:00:00	6	Velocidad del viento	3.2
187046	7	Sololá	719	Santiago Atitlán	14	Cerro de Oro	11	Noviembre	2023-11-29T00:00:00	2024-11-08T11:00:00	7	Dirección del viento	3.22
187047	7	Sololá	719	Santiago Atitlán	14	Cerro de Oro	11	Noviembre	2023-11-29T00:00:00	2024-11-08T11:00:00	1	Precipitación	0
187048	7	Sololá	719	Santiago Atitlán	14	Cerro de Oro	11	Noviembre	2023-11-29T00:00:00	2024-11-08T11:00:00	8	Radiación solar	699
187049	7	Sololá	719	Santiago Atitlán	14	Cerro de Oro	11	Noviembre	2023-11-29T00:00:00	2024-11-08T12:00:00	2	Temperatura media	24.6
187050	7	Sololá	719	Santiago Atitlán	14	Cerro de Oro	11	Noviembre	2023-11-29T00:00:00	2024-11-08T12:00:00	4	Temperatura máxima	24.7
187051	7	Sololá	719	Santiago Atitlán	14	Cerro de Oro	11	Noviembre	2023-11-29T00:00:00	2024-11-08T12:00:00	3	Temperatura mínima	24.1
187052	7	Sololá	719	Santiago Atitlán	14	Cerro de Oro	11	Noviembre	2023-11-29T00:00:00	2024-11-08T12:00:00	5	Humedad	47
187053	7	Sololá	719	Santiago Atitlán	14	Cerro de Oro	11	Noviembre	2023-11-29T00:00:00	2024-11-08T12:00:00	6	Velocidad del viento	6.4
187054	7	Sololá	719	Santiago Atitlán	14	Cerro de Oro	11	Noviembre	2023-11-29T00:00:00	2024-11-08T12:00:00	7	Dirección del viento	6.44
187055	7	Sololá	719	Santiago Atitlán	14	Cerro de Oro	11	Noviembre	2023-11-29T00:00:00	2024-11-08T12:00:00	1	Precipitación	0
187056	7	Sololá	719	Santiago Atitlán	14	Cerro de Oro	11	Noviembre	2023-11-29T00:00:00	2024-11-08T12:00:00	8	Radiación solar	775
187057	7	Sololá	719	Santiago Atitlán	14	Cerro de Oro	11	Noviembre	2023-11-29T00:00:00	2024-11-08T13:00:00	2	Temperatura media	23.6
187058	7	Sololá	719	Santiago Atitlán	14	Cerro de Oro	11	Noviembre	2023-11-29T00:00:00	2024-11-08T13:00:00	4	Temperatura máxima	25
187059	7	Sololá	719	Santiago Atitlán	14	Cerro de Oro	11	Noviembre	2023-11-29T00:00:00	2024-11-08T13:00:00	3	Temperatura mínima	23.6
187060	7	Sololá	719	Santiago Atitlán	14	Cerro de Oro	11	Noviembre	2023-11-29T00:00:00	2024-11-08T13:00:00	5	Humedad	58
187061	7	Sololá	719	Santiago Atitlán	14	Cerro de Oro	11	Noviembre	2023-11-29T00:00:00	2024-11-08T13:00:00	6	Velocidad del viento	9.7
187062	7	Sololá	719	Santiago Atitlán	14	Cerro de Oro	11	Noviembre	2023-11-29T00:00:00	2024-11-08T13:00:00	7	Dirección del viento	9.66
187063	7	Sololá	719	Santiago Atitlán	14	Cerro de Oro	11	Noviembre	2023-11-29T00:00:00	2024-11-08T13:00:00	1	Precipitación	0
187064	7	Sololá	719	Santiago Atitlán	14	Cerro de Oro	11	Noviembre	2023-11-29T00:00:00	2024-11-08T13:00:00	8	Radiación solar	747
187065	7	Sololá	719	Santiago Atitlán	14	Cerro de Oro	11	Noviembre	2023-11-29T00:00:00	2024-11-08T14:00:00	2	Temperatura media	24.6
187066	7	Sololá	719	Santiago Atitlán	14	Cerro de Oro	11	Noviembre	2023-11-29T00:00:00	2024-11-08T14:00:00	4	Temperatura máxima	24.7
187067	7	Sololá	719	Santiago Atitlán	14	Cerro de Oro	11	Noviembre	2023-11-29T00:00:00	2024-11-08T14:00:00	3	Temperatura mínima	23.4
187068	7	Sololá	719	Santiago Atitlán	14	Cerro de Oro	11	Noviembre	2023-11-29T00:00:00	2024-11-08T14:00:00	5	Humedad	60
187069	7	Sololá	719	Santiago Atitlán	14	Cerro de Oro	11	Noviembre	2023-11-29T00:00:00	2024-11-08T14:00:00	6	Velocidad del viento	4.8
187070	7	Sololá	719	Santiago Atitlán	14	Cerro de Oro	11	Noviembre	2023-11-29T00:00:00	2024-11-08T14:00:00	7	Dirección del viento	4.83
187071	7	Sololá	719	Santiago Atitlán	14	Cerro de Oro	11	Noviembre	2023-11-29T00:00:00	2024-11-08T14:00:00	1	Precipitación	0
187072	7	Sololá	719	Santiago Atitlán	14	Cerro de Oro	11	Noviembre	2023-11-29T00:00:00	2024-11-08T14:00:00	8	Radiación solar	404
187073	7	Sololá	719	Santiago Atitlán	14	Cerro de Oro	11	Noviembre	2023-11-29T00:00:00	2024-11-08T15:00:00	2	Temperatura media	23.6
187074	7	Sololá	719	Santiago Atitlán	14	Cerro de Oro	11	Noviembre	2023-11-29T00:00:00	2024-11-08T15:00:00	4	Temperatura máxima	24.6
187075	7	Sololá	719	Santiago Atitlán	14	Cerro de Oro	11	Noviembre	2023-11-29T00:00:00	2024-11-08T15:00:00	3	Temperatura mínima	23.6
187076	7	Sololá	719	Santiago Atitlán	14	Cerro de Oro	11	Noviembre	2023-11-29T00:00:00	2024-11-08T15:00:00	5	Humedad	56
187077	7	Sololá	719	Santiago Atitlán	14	Cerro de Oro	11	Noviembre	2023-11-29T00:00:00	2024-11-08T15:00:00	6	Velocidad del viento	11.3
187078	7	Sololá	719	Santiago Atitlán	14	Cerro de Oro	11	Noviembre	2023-11-29T00:00:00	2024-11-08T15:00:00	7	Dirección del viento	11.27
187079	7	Sololá	719	Santiago Atitlán	14	Cerro de Oro	11	Noviembre	2023-11-29T00:00:00	2024-11-08T15:00:00	1	Precipitación	0
187080	7	Sololá	719	Santiago Atitlán	14	Cerro de Oro	11	Noviembre	2023-11-29T00:00:00	2024-11-08T15:00:00	8	Radiación solar	417
187081	7	Sololá	719	Santiago Atitlán	14	Cerro de Oro	11	Noviembre	2023-11-29T00:00:00	2024-11-08T16:00:00	2	Temperatura media	23.1
187082	7	Sololá	719	Santiago Atitlán	14	Cerro de Oro	11	Noviembre	2023-11-29T00:00:00	2024-11-08T16:00:00	4	Temperatura máxima	23.8
187083	7	Sololá	719	Santiago Atitlán	14	Cerro de Oro	11	Noviembre	2023-11-29T00:00:00	2024-11-08T16:00:00	3	Temperatura mínima	23.1
187084	7	Sololá	719	Santiago Atitlán	14	Cerro de Oro	11	Noviembre	2023-11-29T00:00:00	2024-11-08T16:00:00	5	Humedad	58
187085	7	Sololá	719	Santiago Atitlán	14	Cerro de Oro	11	Noviembre	2023-11-29T00:00:00	2024-11-08T16:00:00	6	Velocidad del viento	12.9
187086	7	Sololá	719	Santiago Atitlán	14	Cerro de Oro	11	Noviembre	2023-11-29T00:00:00	2024-11-08T16:00:00	7	Dirección del viento	12.87
187087	7	Sololá	719	Santiago Atitlán	14	Cerro de Oro	11	Noviembre	2023-11-29T00:00:00	2024-11-08T16:00:00	1	Precipitación	0
187088	7	Sololá	719	Santiago Atitlán	14	Cerro de Oro	11	Noviembre	2023-11-29T00:00:00	2024-11-08T16:00:00	8	Radiación solar	361
187089	7	Sololá	719	Santiago Atitlán	14	Cerro de Oro	11	Noviembre	2023-11-29T00:00:00	2024-11-08T17:00:00	2	Temperatura media	22.6
187090	7	Sololá	719	Santiago Atitlán	14	Cerro de Oro	11	Noviembre	2023-11-29T00:00:00	2024-11-08T17:00:00	4	Temperatura máxima	23.1
187091	7	Sololá	719	Santiago Atitlán	14	Cerro de Oro	11	Noviembre	2023-11-29T00:00:00	2024-11-08T17:00:00	3	Temperatura mínima	22.4
187092	7	Sololá	719	Santiago Atitlán	14	Cerro de Oro	11	Noviembre	2023-11-29T00:00:00	2024-11-08T17:00:00	5	Humedad	58
187093	7	Sololá	719	Santiago Atitlán	14	Cerro de Oro	11	Noviembre	2023-11-29T00:00:00	2024-11-08T17:00:00	6	Velocidad del viento	12.9
187094	7	Sololá	719	Santiago Atitlán	14	Cerro de Oro	11	Noviembre	2023-11-29T00:00:00	2024-11-08T17:00:00	7	Dirección del viento	12.87
187095	7	Sololá	719	Santiago Atitlán	14	Cerro de Oro	11	Noviembre	2023-11-29T00:00:00	2024-11-08T17:00:00	1	Precipitación	0
187096	7	Sololá	719	Santiago Atitlán	14	Cerro de Oro	11	Noviembre	2023-11-29T00:00:00	2024-11-08T17:00:00	8	Radiación solar	139
187097	7	Sololá	719	Santiago Atitlán	14	Cerro de Oro	11	Noviembre	2023-11-29T00:00:00	2024-11-08T18:00:00	2	Temperatura media	21.3
187098	7	Sololá	719	Santiago Atitlán	14	Cerro de Oro	11	Noviembre	2023-11-29T00:00:00	2024-11-08T18:00:00	4	Temperatura máxima	22.6
187099	7	Sololá	719	Santiago Atitlán	14	Cerro de Oro	11	Noviembre	2023-11-29T00:00:00	2024-11-08T18:00:00	3	Temperatura mínima	21.3
187100	7	Sololá	719	Santiago Atitlán	14	Cerro de Oro	11	Noviembre	2023-11-29T00:00:00	2024-11-08T18:00:00	5	Humedad	64
187101	7	Sololá	719	Santiago Atitlán	14	Cerro de Oro	11	Noviembre	2023-11-29T00:00:00	2024-11-08T18:00:00	6	Velocidad del viento	9.7
187102	7	Sololá	719	Santiago Atitlán	14	Cerro de Oro	11	Noviembre	2023-11-29T00:00:00	2024-11-08T18:00:00	7	Dirección del viento	9.66
187103	7	Sololá	719	Santiago Atitlán	14	Cerro de Oro	11	Noviembre	2023-11-29T00:00:00	2024-11-08T18:00:00	1	Precipitación	0
187104	7	Sololá	719	Santiago Atitlán	14	Cerro de Oro	11	Noviembre	2023-11-29T00:00:00	2024-11-08T18:00:00	8	Radiación solar	13
187105	7	Sololá	719	Santiago Atitlán	14	Cerro de Oro	11	Noviembre	2023-11-29T00:00:00	2024-11-08T19:00:00	2	Temperatura media	20.2
187106	7	Sololá	719	Santiago Atitlán	14	Cerro de Oro	11	Noviembre	2023-11-29T00:00:00	2024-11-08T19:00:00	4	Temperatura máxima	21.3
187107	7	Sololá	719	Santiago Atitlán	14	Cerro de Oro	11	Noviembre	2023-11-29T00:00:00	2024-11-08T19:00:00	3	Temperatura mínima	20.2
187108	7	Sololá	719	Santiago Atitlán	14	Cerro de Oro	11	Noviembre	2023-11-29T00:00:00	2024-11-08T19:00:00	5	Humedad	68
187109	7	Sololá	719	Santiago Atitlán	14	Cerro de Oro	11	Noviembre	2023-11-29T00:00:00	2024-11-08T19:00:00	6	Velocidad del viento	3.2
187110	7	Sololá	719	Santiago Atitlán	14	Cerro de Oro	11	Noviembre	2023-11-29T00:00:00	2024-11-08T19:00:00	7	Dirección del viento	3.22
187111	7	Sololá	719	Santiago Atitlán	14	Cerro de Oro	11	Noviembre	2023-11-29T00:00:00	2024-11-08T19:00:00	1	Precipitación	0
187112	7	Sololá	719	Santiago Atitlán	14	Cerro de Oro	11	Noviembre	2023-11-29T00:00:00	2024-11-08T19:00:00	8	Radiación solar	0
187113	7	Sololá	719	Santiago Atitlán	14	Cerro de Oro	11	Noviembre	2023-11-29T00:00:00	2024-11-08T20:00:00	2	Temperatura media	19.5
187114	7	Sololá	719	Santiago Atitlán	14	Cerro de Oro	11	Noviembre	2023-11-29T00:00:00	2024-11-08T20:00:00	4	Temperatura máxima	20.2
187115	7	Sololá	719	Santiago Atitlán	14	Cerro de Oro	11	Noviembre	2023-11-29T00:00:00	2024-11-08T20:00:00	3	Temperatura mínima	19.2
187116	7	Sololá	719	Santiago Atitlán	14	Cerro de Oro	11	Noviembre	2023-11-29T00:00:00	2024-11-08T20:00:00	5	Humedad	72
187117	7	Sololá	719	Santiago Atitlán	14	Cerro de Oro	11	Noviembre	2023-11-29T00:00:00	2024-11-08T20:00:00	6	Velocidad del viento	3.2
187118	7	Sololá	719	Santiago Atitlán	14	Cerro de Oro	11	Noviembre	2023-11-29T00:00:00	2024-11-08T20:00:00	7	Dirección del viento	3.22
187119	7	Sololá	719	Santiago Atitlán	14	Cerro de Oro	11	Noviembre	2023-11-29T00:00:00	2024-11-08T20:00:00	1	Precipitación	0
187120	7	Sololá	719	Santiago Atitlán	14	Cerro de Oro	11	Noviembre	2023-11-29T00:00:00	2024-11-08T20:00:00	8	Radiación solar	0
187121	7	Sololá	719	Santiago Atitlán	14	Cerro de Oro	11	Noviembre	2023-11-29T00:00:00	2024-11-08T21:00:00	2	Temperatura media	18.6
187122	7	Sololá	719	Santiago Atitlán	14	Cerro de Oro	11	Noviembre	2023-11-29T00:00:00	2024-11-08T21:00:00	4	Temperatura máxima	19.5
187123	7	Sololá	719	Santiago Atitlán	14	Cerro de Oro	11	Noviembre	2023-11-29T00:00:00	2024-11-08T21:00:00	3	Temperatura mínima	18.6
187124	7	Sololá	719	Santiago Atitlán	14	Cerro de Oro	11	Noviembre	2023-11-29T00:00:00	2024-11-08T21:00:00	5	Humedad	72
187125	7	Sololá	719	Santiago Atitlán	14	Cerro de Oro	11	Noviembre	2023-11-29T00:00:00	2024-11-08T21:00:00	6	Velocidad del viento	4.8
187126	7	Sololá	719	Santiago Atitlán	14	Cerro de Oro	11	Noviembre	2023-11-29T00:00:00	2024-11-08T21:00:00	7	Dirección del viento	4.83
187127	7	Sololá	719	Santiago Atitlán	14	Cerro de Oro	11	Noviembre	2023-11-29T00:00:00	2024-11-08T21:00:00	1	Precipitación	0
187128	7	Sololá	719	Santiago Atitlán	14	Cerro de Oro	11	Noviembre	2023-11-29T00:00:00	2024-11-08T21:00:00	8	Radiación solar	0
187129	7	Sololá	719	Santiago Atitlán	14	Cerro de Oro	11	Noviembre	2023-11-29T00:00:00	2024-11-08T22:00:00	2	Temperatura media	18.3
187130	7	Sololá	719	Santiago Atitlán	14	Cerro de Oro	11	Noviembre	2023-11-29T00:00:00	2024-11-08T22:00:00	4	Temperatura máxima	18.9
187131	7	Sololá	719	Santiago Atitlán	14	Cerro de Oro	11	Noviembre	2023-11-29T00:00:00	2024-11-08T22:00:00	3	Temperatura mínima	17.7
187132	7	Sololá	719	Santiago Atitlán	14	Cerro de Oro	11	Noviembre	2023-11-29T00:00:00	2024-11-08T22:00:00	5	Humedad	75
187133	7	Sololá	719	Santiago Atitlán	14	Cerro de Oro	11	Noviembre	2023-11-29T00:00:00	2024-11-08T22:00:00	6	Velocidad del viento	6.4
187134	7	Sololá	719	Santiago Atitlán	14	Cerro de Oro	11	Noviembre	2023-11-29T00:00:00	2024-11-08T22:00:00	7	Dirección del viento	6.44
187135	7	Sololá	719	Santiago Atitlán	14	Cerro de Oro	11	Noviembre	2023-11-29T00:00:00	2024-11-08T22:00:00	1	Precipitación	0
187136	7	Sololá	719	Santiago Atitlán	14	Cerro de Oro	11	Noviembre	2023-11-29T00:00:00	2024-11-08T22:00:00	8	Radiación solar	0
187137	7	Sololá	719	Santiago Atitlán	14	Cerro de Oro	11	Noviembre	2023-11-29T00:00:00	2024-11-08T23:00:00	2	Temperatura media	18.4
187138	7	Sololá	719	Santiago Atitlán	14	Cerro de Oro	11	Noviembre	2023-11-29T00:00:00	2024-11-08T23:00:00	4	Temperatura máxima	19.7
187139	7	Sololá	719	Santiago Atitlán	14	Cerro de Oro	11	Noviembre	2023-11-29T00:00:00	2024-11-08T23:00:00	3	Temperatura mínima	18.2
187140	7	Sololá	719	Santiago Atitlán	14	Cerro de Oro	11	Noviembre	2023-11-29T00:00:00	2024-11-08T23:00:00	5	Humedad	74
187141	7	Sololá	719	Santiago Atitlán	14	Cerro de Oro	11	Noviembre	2023-11-29T00:00:00	2024-11-08T23:00:00	6	Velocidad del viento	6.4
187142	7	Sololá	719	Santiago Atitlán	14	Cerro de Oro	11	Noviembre	2023-11-29T00:00:00	2024-11-08T23:00:00	7	Dirección del viento	6.44
187143	7	Sololá	719	Santiago Atitlán	14	Cerro de Oro	11	Noviembre	2023-11-29T00:00:00	2024-11-08T23:00:00	1	Precipitación	0
187144	7	Sololá	719	Santiago Atitlán	14	Cerro de Oro	11	Noviembre	2023-11-29T00:00:00	2024-11-08T23:00:00	8	Radiación solar	0
187145	7	Sololá	719	Santiago Atitlán	14	Cerro de Oro	11	Noviembre	2023-11-30T00:00:00	2024-11-08T00:00:00	2	Temperatura media	18.3
187146	7	Sololá	719	Santiago Atitlán	14	Cerro de Oro	11	Noviembre	2023-11-30T00:00:00	2024-11-08T00:00:00	4	Temperatura máxima	18.7
187147	7	Sololá	719	Santiago Atitlán	14	Cerro de Oro	11	Noviembre	2023-11-30T00:00:00	2024-11-08T00:00:00	3	Temperatura mínima	18.2
187148	7	Sololá	719	Santiago Atitlán	14	Cerro de Oro	11	Noviembre	2023-11-30T00:00:00	2024-11-08T00:00:00	5	Humedad	73
187149	7	Sololá	719	Santiago Atitlán	14	Cerro de Oro	11	Noviembre	2023-11-30T00:00:00	2024-11-08T00:00:00	6	Velocidad del viento	6.4
187150	7	Sololá	719	Santiago Atitlán	14	Cerro de Oro	11	Noviembre	2023-11-30T00:00:00	2024-11-08T00:00:00	7	Dirección del viento	6.44
187151	7	Sololá	719	Santiago Atitlán	14	Cerro de Oro	11	Noviembre	2023-11-30T00:00:00	2024-11-08T00:00:00	1	Precipitación	0
187152	7	Sololá	719	Santiago Atitlán	14	Cerro de Oro	11	Noviembre	2023-11-30T00:00:00	2024-11-08T00:00:00	8	Radiación solar	0
187153	7	Sololá	719	Santiago Atitlán	14	Cerro de Oro	11	Noviembre	2023-11-30T00:00:00	2024-11-08T01:00:00	2	Temperatura media	17.6
187154	7	Sololá	719	Santiago Atitlán	14	Cerro de Oro	11	Noviembre	2023-11-30T00:00:00	2024-11-08T01:00:00	4	Temperatura máxima	18.3
187155	7	Sololá	719	Santiago Atitlán	14	Cerro de Oro	11	Noviembre	2023-11-30T00:00:00	2024-11-08T01:00:00	3	Temperatura mínima	17.6
187156	7	Sololá	719	Santiago Atitlán	14	Cerro de Oro	11	Noviembre	2023-11-30T00:00:00	2024-11-08T01:00:00	5	Humedad	75
187157	7	Sololá	719	Santiago Atitlán	14	Cerro de Oro	11	Noviembre	2023-11-30T00:00:00	2024-11-08T01:00:00	6	Velocidad del viento	4.8
187158	7	Sololá	719	Santiago Atitlán	14	Cerro de Oro	11	Noviembre	2023-11-30T00:00:00	2024-11-08T01:00:00	7	Dirección del viento	4.83
187159	7	Sololá	719	Santiago Atitlán	14	Cerro de Oro	11	Noviembre	2023-11-30T00:00:00	2024-11-08T01:00:00	1	Precipitación	0
187160	7	Sololá	719	Santiago Atitlán	14	Cerro de Oro	11	Noviembre	2023-11-30T00:00:00	2024-11-08T01:00:00	8	Radiación solar	0
187161	7	Sololá	719	Santiago Atitlán	14	Cerro de Oro	11	Noviembre	2023-11-30T00:00:00	2024-11-08T02:00:00	2	Temperatura media	17.4
187162	7	Sololá	719	Santiago Atitlán	14	Cerro de Oro	11	Noviembre	2023-11-30T00:00:00	2024-11-08T02:00:00	4	Temperatura máxima	18.3
187163	7	Sololá	719	Santiago Atitlán	14	Cerro de Oro	11	Noviembre	2023-11-30T00:00:00	2024-11-08T02:00:00	3	Temperatura mínima	17.4
187164	7	Sololá	719	Santiago Atitlán	14	Cerro de Oro	11	Noviembre	2023-11-30T00:00:00	2024-11-08T02:00:00	5	Humedad	76
187165	7	Sololá	719	Santiago Atitlán	14	Cerro de Oro	11	Noviembre	2023-11-30T00:00:00	2024-11-08T02:00:00	6	Velocidad del viento	4.8
187166	7	Sololá	719	Santiago Atitlán	14	Cerro de Oro	11	Noviembre	2023-11-30T00:00:00	2024-11-08T02:00:00	7	Dirección del viento	4.83
187167	7	Sololá	719	Santiago Atitlán	14	Cerro de Oro	11	Noviembre	2023-11-30T00:00:00	2024-11-08T02:00:00	1	Precipitación	0
187168	7	Sololá	719	Santiago Atitlán	14	Cerro de Oro	11	Noviembre	2023-11-30T00:00:00	2024-11-08T02:00:00	8	Radiación solar	0
187169	7	Sololá	719	Santiago Atitlán	14	Cerro de Oro	11	Noviembre	2023-11-30T00:00:00	2024-11-08T03:00:00	2	Temperatura media	17.7
187170	7	Sololá	719	Santiago Atitlán	14	Cerro de Oro	11	Noviembre	2023-11-30T00:00:00	2024-11-08T03:00:00	4	Temperatura máxima	17.8
187171	7	Sololá	719	Santiago Atitlán	14	Cerro de Oro	11	Noviembre	2023-11-30T00:00:00	2024-11-08T03:00:00	3	Temperatura mínima	17.1
187172	7	Sololá	719	Santiago Atitlán	14	Cerro de Oro	11	Noviembre	2023-11-30T00:00:00	2024-11-08T03:00:00	5	Humedad	76
187173	7	Sololá	719	Santiago Atitlán	14	Cerro de Oro	11	Noviembre	2023-11-30T00:00:00	2024-11-08T03:00:00	6	Velocidad del viento	3.2
187174	7	Sololá	719	Santiago Atitlán	14	Cerro de Oro	11	Noviembre	2023-11-30T00:00:00	2024-11-08T03:00:00	7	Dirección del viento	3.22
187175	7	Sololá	719	Santiago Atitlán	14	Cerro de Oro	11	Noviembre	2023-11-30T00:00:00	2024-11-08T03:00:00	1	Precipitación	0
187176	7	Sololá	719	Santiago Atitlán	14	Cerro de Oro	11	Noviembre	2023-11-30T00:00:00	2024-11-08T03:00:00	8	Radiación solar	0
187177	7	Sololá	719	Santiago Atitlán	14	Cerro de Oro	11	Noviembre	2023-11-30T00:00:00	2024-11-08T04:00:00	2	Temperatura media	16.9
187178	7	Sololá	719	Santiago Atitlán	14	Cerro de Oro	11	Noviembre	2023-11-30T00:00:00	2024-11-08T04:00:00	4	Temperatura máxima	17.7
187179	7	Sololá	719	Santiago Atitlán	14	Cerro de Oro	11	Noviembre	2023-11-30T00:00:00	2024-11-08T04:00:00	3	Temperatura mínima	16.9
187180	7	Sololá	719	Santiago Atitlán	14	Cerro de Oro	11	Noviembre	2023-11-30T00:00:00	2024-11-08T04:00:00	5	Humedad	77
187181	7	Sololá	719	Santiago Atitlán	14	Cerro de Oro	11	Noviembre	2023-11-30T00:00:00	2024-11-08T04:00:00	6	Velocidad del viento	4.8
187182	7	Sololá	719	Santiago Atitlán	14	Cerro de Oro	11	Noviembre	2023-11-30T00:00:00	2024-11-08T04:00:00	7	Dirección del viento	4.83
187183	7	Sololá	719	Santiago Atitlán	14	Cerro de Oro	11	Noviembre	2023-11-30T00:00:00	2024-11-08T04:00:00	1	Precipitación	0
187184	7	Sololá	719	Santiago Atitlán	14	Cerro de Oro	11	Noviembre	2023-11-30T00:00:00	2024-11-08T04:00:00	8	Radiación solar	0
187185	7	Sololá	719	Santiago Atitlán	14	Cerro de Oro	11	Noviembre	2023-11-30T00:00:00	2024-11-08T05:00:00	2	Temperatura media	17.1
187186	7	Sololá	719	Santiago Atitlán	14	Cerro de Oro	11	Noviembre	2023-11-30T00:00:00	2024-11-08T05:00:00	4	Temperatura máxima	17.2
187187	7	Sololá	719	Santiago Atitlán	14	Cerro de Oro	11	Noviembre	2023-11-30T00:00:00	2024-11-08T05:00:00	3	Temperatura mínima	16.7
187188	7	Sololá	719	Santiago Atitlán	14	Cerro de Oro	11	Noviembre	2023-11-30T00:00:00	2024-11-08T05:00:00	5	Humedad	77
187189	7	Sololá	719	Santiago Atitlán	14	Cerro de Oro	11	Noviembre	2023-11-30T00:00:00	2024-11-08T05:00:00	6	Velocidad del viento	4.8
187190	7	Sololá	719	Santiago Atitlán	14	Cerro de Oro	11	Noviembre	2023-11-30T00:00:00	2024-11-08T05:00:00	7	Dirección del viento	4.83
187191	7	Sololá	719	Santiago Atitlán	14	Cerro de Oro	11	Noviembre	2023-11-30T00:00:00	2024-11-08T05:00:00	1	Precipitación	0
187192	7	Sololá	719	Santiago Atitlán	14	Cerro de Oro	11	Noviembre	2023-11-30T00:00:00	2024-11-08T05:00:00	8	Radiación solar	0
187193	7	Sololá	719	Santiago Atitlán	14	Cerro de Oro	11	Noviembre	2023-11-30T00:00:00	2024-11-08T06:00:00	2	Temperatura media	17
187194	7	Sololá	719	Santiago Atitlán	14	Cerro de Oro	11	Noviembre	2023-11-30T00:00:00	2024-11-08T06:00:00	4	Temperatura máxima	17.2
187195	7	Sololá	719	Santiago Atitlán	14	Cerro de Oro	11	Noviembre	2023-11-30T00:00:00	2024-11-08T06:00:00	3	Temperatura mínima	16.3
187196	7	Sololá	719	Santiago Atitlán	14	Cerro de Oro	11	Noviembre	2023-11-30T00:00:00	2024-11-08T06:00:00	5	Humedad	78
187197	7	Sololá	719	Santiago Atitlán	14	Cerro de Oro	11	Noviembre	2023-11-30T00:00:00	2024-11-08T06:00:00	6	Velocidad del viento	4.8
187198	7	Sololá	719	Santiago Atitlán	14	Cerro de Oro	11	Noviembre	2023-11-30T00:00:00	2024-11-08T06:00:00	7	Dirección del viento	4.83
187199	7	Sololá	719	Santiago Atitlán	14	Cerro de Oro	11	Noviembre	2023-11-30T00:00:00	2024-11-08T06:00:00	1	Precipitación	0
187200	7	Sololá	719	Santiago Atitlán	14	Cerro de Oro	11	Noviembre	2023-11-30T00:00:00	2024-11-08T06:00:00	8	Radiación solar	0
187201	7	Sololá	719	Santiago Atitlán	14	Cerro de Oro	11	Noviembre	2023-11-30T00:00:00	2024-11-08T07:00:00	2	Temperatura media	18.6
187202	7	Sololá	719	Santiago Atitlán	14	Cerro de Oro	11	Noviembre	2023-11-30T00:00:00	2024-11-08T07:00:00	4	Temperatura máxima	18.6
187203	7	Sololá	719	Santiago Atitlán	14	Cerro de Oro	11	Noviembre	2023-11-30T00:00:00	2024-11-08T07:00:00	3	Temperatura mínima	17.1
187204	7	Sololá	719	Santiago Atitlán	14	Cerro de Oro	11	Noviembre	2023-11-30T00:00:00	2024-11-08T07:00:00	5	Humedad	73
187205	7	Sololá	719	Santiago Atitlán	14	Cerro de Oro	11	Noviembre	2023-11-30T00:00:00	2024-11-08T07:00:00	6	Velocidad del viento	6.4
187206	7	Sololá	719	Santiago Atitlán	14	Cerro de Oro	11	Noviembre	2023-11-30T00:00:00	2024-11-08T07:00:00	7	Dirección del viento	6.44
187207	7	Sololá	719	Santiago Atitlán	14	Cerro de Oro	11	Noviembre	2023-11-30T00:00:00	2024-11-08T07:00:00	1	Precipitación	0
187208	7	Sololá	719	Santiago Atitlán	14	Cerro de Oro	11	Noviembre	2023-11-30T00:00:00	2024-11-08T07:00:00	8	Radiación solar	24
187209	7	Sololá	719	Santiago Atitlán	14	Cerro de Oro	11	Noviembre	2023-11-30T00:00:00	2024-11-08T08:00:00	2	Temperatura media	20.4
187210	7	Sololá	719	Santiago Atitlán	14	Cerro de Oro	11	Noviembre	2023-11-30T00:00:00	2024-11-08T08:00:00	4	Temperatura máxima	20.5
187211	7	Sololá	719	Santiago Atitlán	14	Cerro de Oro	11	Noviembre	2023-11-30T00:00:00	2024-11-08T08:00:00	3	Temperatura mínima	18.6
187212	7	Sololá	719	Santiago Atitlán	14	Cerro de Oro	11	Noviembre	2023-11-30T00:00:00	2024-11-08T08:00:00	5	Humedad	69
187213	7	Sololá	719	Santiago Atitlán	14	Cerro de Oro	11	Noviembre	2023-11-30T00:00:00	2024-11-08T08:00:00	6	Velocidad del viento	4.8
187214	7	Sololá	719	Santiago Atitlán	14	Cerro de Oro	11	Noviembre	2023-11-30T00:00:00	2024-11-08T08:00:00	7	Dirección del viento	4.83
187215	7	Sololá	719	Santiago Atitlán	14	Cerro de Oro	11	Noviembre	2023-11-30T00:00:00	2024-11-08T08:00:00	1	Precipitación	0
187216	7	Sololá	719	Santiago Atitlán	14	Cerro de Oro	11	Noviembre	2023-11-30T00:00:00	2024-11-08T08:00:00	8	Radiación solar	209
187217	7	Sololá	719	Santiago Atitlán	14	Cerro de Oro	11	Noviembre	2023-11-30T00:00:00	2024-11-08T09:00:00	2	Temperatura media	21.1
187218	7	Sololá	719	Santiago Atitlán	14	Cerro de Oro	11	Noviembre	2023-11-30T00:00:00	2024-11-08T09:00:00	4	Temperatura máxima	21.1
187219	7	Sololá	719	Santiago Atitlán	14	Cerro de Oro	11	Noviembre	2023-11-30T00:00:00	2024-11-08T09:00:00	3	Temperatura mínima	20.4
187220	7	Sololá	719	Santiago Atitlán	14	Cerro de Oro	11	Noviembre	2023-11-30T00:00:00	2024-11-08T09:00:00	5	Humedad	68
187221	7	Sololá	719	Santiago Atitlán	14	Cerro de Oro	11	Noviembre	2023-11-30T00:00:00	2024-11-08T09:00:00	6	Velocidad del viento	14.5
187222	7	Sololá	719	Santiago Atitlán	14	Cerro de Oro	11	Noviembre	2023-11-30T00:00:00	2024-11-08T09:00:00	7	Dirección del viento	14.48
187223	7	Sololá	719	Santiago Atitlán	14	Cerro de Oro	11	Noviembre	2023-11-30T00:00:00	2024-11-08T09:00:00	1	Precipitación	0
187224	7	Sololá	719	Santiago Atitlán	14	Cerro de Oro	11	Noviembre	2023-11-30T00:00:00	2024-11-08T09:00:00	8	Radiación solar	418
187225	7	Sololá	719	Santiago Atitlán	14	Cerro de Oro	11	Noviembre	2023-11-30T00:00:00	2024-11-08T10:00:00	2	Temperatura media	22.3
187226	7	Sololá	719	Santiago Atitlán	14	Cerro de Oro	11	Noviembre	2023-11-30T00:00:00	2024-11-08T10:00:00	4	Temperatura máxima	22.4
187227	7	Sololá	719	Santiago Atitlán	14	Cerro de Oro	11	Noviembre	2023-11-30T00:00:00	2024-11-08T10:00:00	3	Temperatura mínima	21.1
187228	7	Sololá	719	Santiago Atitlán	14	Cerro de Oro	11	Noviembre	2023-11-30T00:00:00	2024-11-08T10:00:00	5	Humedad	63
187229	7	Sololá	719	Santiago Atitlán	14	Cerro de Oro	11	Noviembre	2023-11-30T00:00:00	2024-11-08T10:00:00	6	Velocidad del viento	11.3
187230	7	Sololá	719	Santiago Atitlán	14	Cerro de Oro	11	Noviembre	2023-11-30T00:00:00	2024-11-08T10:00:00	7	Dirección del viento	11.27
187231	7	Sololá	719	Santiago Atitlán	14	Cerro de Oro	11	Noviembre	2023-11-30T00:00:00	2024-11-08T10:00:00	1	Precipitación	0
187232	7	Sololá	719	Santiago Atitlán	14	Cerro de Oro	11	Noviembre	2023-11-30T00:00:00	2024-11-08T10:00:00	8	Radiación solar	507
187233	7	Sololá	719	Santiago Atitlán	14	Cerro de Oro	11	Noviembre	2023-11-30T00:00:00	2024-11-08T11:00:00	2	Temperatura media	23.4
187234	7	Sololá	719	Santiago Atitlán	14	Cerro de Oro	11	Noviembre	2023-11-30T00:00:00	2024-11-08T11:00:00	4	Temperatura máxima	23.8
187235	7	Sololá	719	Santiago Atitlán	14	Cerro de Oro	11	Noviembre	2023-11-30T00:00:00	2024-11-08T11:00:00	3	Temperatura mínima	22.3
187236	7	Sololá	719	Santiago Atitlán	14	Cerro de Oro	11	Noviembre	2023-11-30T00:00:00	2024-11-08T11:00:00	5	Humedad	60
187237	7	Sololá	719	Santiago Atitlán	14	Cerro de Oro	11	Noviembre	2023-11-30T00:00:00	2024-11-08T11:00:00	6	Velocidad del viento	9.7
187238	7	Sololá	719	Santiago Atitlán	14	Cerro de Oro	11	Noviembre	2023-11-30T00:00:00	2024-11-08T11:00:00	7	Dirección del viento	9.66
187239	7	Sololá	719	Santiago Atitlán	14	Cerro de Oro	11	Noviembre	2023-11-30T00:00:00	2024-11-08T11:00:00	1	Precipitación	0
187240	7	Sololá	719	Santiago Atitlán	14	Cerro de Oro	11	Noviembre	2023-11-30T00:00:00	2024-11-08T11:00:00	8	Radiación solar	682
187241	7	Sololá	719	Santiago Atitlán	14	Cerro de Oro	11	Noviembre	2023-11-30T00:00:00	2024-11-08T12:00:00	2	Temperatura media	24.2
187242	7	Sololá	719	Santiago Atitlán	14	Cerro de Oro	11	Noviembre	2023-11-30T00:00:00	2024-11-08T12:00:00	4	Temperatura máxima	24.2
187243	7	Sololá	719	Santiago Atitlán	14	Cerro de Oro	11	Noviembre	2023-11-30T00:00:00	2024-11-08T12:00:00	3	Temperatura mínima	23.4
187244	7	Sololá	719	Santiago Atitlán	14	Cerro de Oro	11	Noviembre	2023-11-30T00:00:00	2024-11-08T12:00:00	5	Humedad	58
187245	7	Sololá	719	Santiago Atitlán	14	Cerro de Oro	11	Noviembre	2023-11-30T00:00:00	2024-11-08T12:00:00	6	Velocidad del viento	12.9
187246	7	Sololá	719	Santiago Atitlán	14	Cerro de Oro	11	Noviembre	2023-11-30T00:00:00	2024-11-08T12:00:00	7	Dirección del viento	12.87
187247	7	Sololá	719	Santiago Atitlán	14	Cerro de Oro	11	Noviembre	2023-11-30T00:00:00	2024-11-08T12:00:00	1	Precipitación	0
187248	7	Sololá	719	Santiago Atitlán	14	Cerro de Oro	11	Noviembre	2023-11-30T00:00:00	2024-11-08T12:00:00	8	Radiación solar	771
187249	7	Sololá	719	Santiago Atitlán	14	Cerro de Oro	11	Noviembre	2023-11-30T00:00:00	2024-11-08T13:00:00	2	Temperatura media	24
187250	7	Sololá	719	Santiago Atitlán	14	Cerro de Oro	11	Noviembre	2023-11-30T00:00:00	2024-11-08T13:00:00	4	Temperatura máxima	24.8
187251	7	Sololá	719	Santiago Atitlán	14	Cerro de Oro	11	Noviembre	2023-11-30T00:00:00	2024-11-08T13:00:00	3	Temperatura mínima	24
187252	7	Sololá	719	Santiago Atitlán	14	Cerro de Oro	11	Noviembre	2023-11-30T00:00:00	2024-11-08T13:00:00	5	Humedad	70
187253	7	Sololá	719	Santiago Atitlán	14	Cerro de Oro	11	Noviembre	2023-11-30T00:00:00	2024-11-08T13:00:00	6	Velocidad del viento	9.7
187254	7	Sololá	719	Santiago Atitlán	14	Cerro de Oro	11	Noviembre	2023-11-30T00:00:00	2024-11-08T13:00:00	7	Dirección del viento	9.66
187255	7	Sololá	719	Santiago Atitlán	14	Cerro de Oro	11	Noviembre	2023-11-30T00:00:00	2024-11-08T13:00:00	1	Precipitación	0
187256	7	Sololá	719	Santiago Atitlán	14	Cerro de Oro	11	Noviembre	2023-11-30T00:00:00	2024-11-08T13:00:00	8	Radiación solar	763
187257	7	Sololá	719	Santiago Atitlán	14	Cerro de Oro	11	Noviembre	2023-11-30T00:00:00	2024-11-08T14:00:00	2	Temperatura media	23.6
187258	7	Sololá	719	Santiago Atitlán	14	Cerro de Oro	11	Noviembre	2023-11-30T00:00:00	2024-11-08T14:00:00	4	Temperatura máxima	24
187259	7	Sololá	719	Santiago Atitlán	14	Cerro de Oro	11	Noviembre	2023-11-30T00:00:00	2024-11-08T14:00:00	3	Temperatura mínima	23.3
187260	7	Sololá	719	Santiago Atitlán	14	Cerro de Oro	11	Noviembre	2023-11-30T00:00:00	2024-11-08T14:00:00	5	Humedad	73
187261	7	Sololá	719	Santiago Atitlán	14	Cerro de Oro	11	Noviembre	2023-11-30T00:00:00	2024-11-08T14:00:00	6	Velocidad del viento	12.9
187262	7	Sololá	719	Santiago Atitlán	14	Cerro de Oro	11	Noviembre	2023-11-30T00:00:00	2024-11-08T14:00:00	7	Dirección del viento	12.87
187263	7	Sololá	719	Santiago Atitlán	14	Cerro de Oro	11	Noviembre	2023-11-30T00:00:00	2024-11-08T14:00:00	1	Precipitación	0
187264	7	Sololá	719	Santiago Atitlán	14	Cerro de Oro	11	Noviembre	2023-11-30T00:00:00	2024-11-08T14:00:00	8	Radiación solar	682
187265	7	Sololá	719	Santiago Atitlán	14	Cerro de Oro	11	Noviembre	2023-11-30T00:00:00	2024-11-08T15:00:00	2	Temperatura media	22.8
187266	7	Sololá	719	Santiago Atitlán	14	Cerro de Oro	11	Noviembre	2023-11-30T00:00:00	2024-11-08T15:00:00	4	Temperatura máxima	24.2
187267	7	Sololá	719	Santiago Atitlán	14	Cerro de Oro	11	Noviembre	2023-11-30T00:00:00	2024-11-08T15:00:00	3	Temperatura mínima	22.8
187268	7	Sololá	719	Santiago Atitlán	14	Cerro de Oro	11	Noviembre	2023-11-30T00:00:00	2024-11-08T15:00:00	5	Humedad	76
187269	7	Sololá	719	Santiago Atitlán	14	Cerro de Oro	11	Noviembre	2023-11-30T00:00:00	2024-11-08T15:00:00	6	Velocidad del viento	11.3
187270	7	Sololá	719	Santiago Atitlán	14	Cerro de Oro	11	Noviembre	2023-11-30T00:00:00	2024-11-08T15:00:00	7	Dirección del viento	11.27
187271	7	Sololá	719	Santiago Atitlán	14	Cerro de Oro	11	Noviembre	2023-11-30T00:00:00	2024-11-08T15:00:00	1	Precipitación	0
187272	7	Sololá	719	Santiago Atitlán	14	Cerro de Oro	11	Noviembre	2023-11-30T00:00:00	2024-11-08T15:00:00	8	Radiación solar	552
187273	7	Sololá	719	Santiago Atitlán	14	Cerro de Oro	11	Noviembre	2023-11-30T00:00:00	2024-11-08T16:00:00	2	Temperatura media	22.5
187274	7	Sololá	719	Santiago Atitlán	14	Cerro de Oro	11	Noviembre	2023-11-30T00:00:00	2024-11-08T16:00:00	4	Temperatura máxima	23.2
187275	7	Sololá	719	Santiago Atitlán	14	Cerro de Oro	11	Noviembre	2023-11-30T00:00:00	2024-11-08T16:00:00	3	Temperatura mínima	22
187276	7	Sololá	719	Santiago Atitlán	14	Cerro de Oro	11	Noviembre	2023-11-30T00:00:00	2024-11-08T16:00:00	5	Humedad	78
187277	7	Sololá	719	Santiago Atitlán	14	Cerro de Oro	11	Noviembre	2023-11-30T00:00:00	2024-11-08T16:00:00	6	Velocidad del viento	9.7
187278	7	Sololá	719	Santiago Atitlán	14	Cerro de Oro	11	Noviembre	2023-11-30T00:00:00	2024-11-08T16:00:00	7	Dirección del viento	9.66
187279	7	Sololá	719	Santiago Atitlán	14	Cerro de Oro	11	Noviembre	2023-11-30T00:00:00	2024-11-08T16:00:00	1	Precipitación	0
187280	7	Sololá	719	Santiago Atitlán	14	Cerro de Oro	11	Noviembre	2023-11-30T00:00:00	2024-11-08T16:00:00	8	Radiación solar	355
187281	7	Sololá	719	Santiago Atitlán	14	Cerro de Oro	11	Noviembre	2023-11-30T00:00:00	2024-11-08T17:00:00	2	Temperatura media	21.1
187282	7	Sololá	719	Santiago Atitlán	14	Cerro de Oro	11	Noviembre	2023-11-30T00:00:00	2024-11-08T17:00:00	4	Temperatura máxima	22.5
187283	7	Sololá	719	Santiago Atitlán	14	Cerro de Oro	11	Noviembre	2023-11-30T00:00:00	2024-11-08T17:00:00	3	Temperatura mínima	21
187284	7	Sololá	719	Santiago Atitlán	14	Cerro de Oro	11	Noviembre	2023-11-30T00:00:00	2024-11-08T17:00:00	5	Humedad	82
187285	7	Sololá	719	Santiago Atitlán	14	Cerro de Oro	11	Noviembre	2023-11-30T00:00:00	2024-11-08T17:00:00	6	Velocidad del viento	9.7
187286	7	Sololá	719	Santiago Atitlán	14	Cerro de Oro	11	Noviembre	2023-11-30T00:00:00	2024-11-08T17:00:00	7	Dirección del viento	9.66
187287	7	Sololá	719	Santiago Atitlán	14	Cerro de Oro	11	Noviembre	2023-11-30T00:00:00	2024-11-08T17:00:00	1	Precipitación	0
187288	7	Sololá	719	Santiago Atitlán	14	Cerro de Oro	11	Noviembre	2023-11-30T00:00:00	2024-11-08T17:00:00	8	Radiación solar	180
187289	7	Sololá	719	Santiago Atitlán	14	Cerro de Oro	11	Noviembre	2023-11-30T00:00:00	2024-11-08T18:00:00	2	Temperatura media	19.6
187290	7	Sololá	719	Santiago Atitlán	14	Cerro de Oro	11	Noviembre	2023-11-30T00:00:00	2024-11-08T18:00:00	4	Temperatura máxima	21.1
187291	7	Sololá	719	Santiago Atitlán	14	Cerro de Oro	11	Noviembre	2023-11-30T00:00:00	2024-11-08T18:00:00	3	Temperatura mínima	19.5
187292	7	Sololá	719	Santiago Atitlán	14	Cerro de Oro	11	Noviembre	2023-11-30T00:00:00	2024-11-08T18:00:00	5	Humedad	86
187293	7	Sololá	719	Santiago Atitlán	14	Cerro de Oro	11	Noviembre	2023-11-30T00:00:00	2024-11-08T18:00:00	6	Velocidad del viento	8
187294	7	Sololá	719	Santiago Atitlán	14	Cerro de Oro	11	Noviembre	2023-11-30T00:00:00	2024-11-08T18:00:00	7	Dirección del viento	8.05
187295	7	Sololá	719	Santiago Atitlán	14	Cerro de Oro	11	Noviembre	2023-11-30T00:00:00	2024-11-08T18:00:00	1	Precipitación	0
187296	7	Sololá	719	Santiago Atitlán	14	Cerro de Oro	11	Noviembre	2023-11-30T00:00:00	2024-11-08T18:00:00	8	Radiación solar	20
187297	7	Sololá	719	Santiago Atitlán	14	Cerro de Oro	11	Noviembre	2023-11-30T00:00:00	2024-11-08T19:00:00	2	Temperatura media	19.2
187298	7	Sololá	719	Santiago Atitlán	14	Cerro de Oro	11	Noviembre	2023-11-30T00:00:00	2024-11-08T19:00:00	4	Temperatura máxima	19.7
187299	7	Sololá	719	Santiago Atitlán	14	Cerro de Oro	11	Noviembre	2023-11-30T00:00:00	2024-11-08T19:00:00	3	Temperatura mínima	19.2
187300	7	Sololá	719	Santiago Atitlán	14	Cerro de Oro	11	Noviembre	2023-11-30T00:00:00	2024-11-08T19:00:00	5	Humedad	85
187301	7	Sololá	719	Santiago Atitlán	14	Cerro de Oro	11	Noviembre	2023-11-30T00:00:00	2024-11-08T19:00:00	6	Velocidad del viento	4.8
187302	7	Sololá	719	Santiago Atitlán	14	Cerro de Oro	11	Noviembre	2023-11-30T00:00:00	2024-11-08T19:00:00	7	Dirección del viento	4.83
187303	7	Sololá	719	Santiago Atitlán	14	Cerro de Oro	11	Noviembre	2023-11-30T00:00:00	2024-11-08T19:00:00	1	Precipitación	0
187304	7	Sololá	719	Santiago Atitlán	14	Cerro de Oro	11	Noviembre	2023-11-30T00:00:00	2024-11-08T19:00:00	8	Radiación solar	0
187305	7	Sololá	719	Santiago Atitlán	14	Cerro de Oro	11	Noviembre	2023-11-30T00:00:00	2024-11-08T20:00:00	2	Temperatura media	19
187306	7	Sololá	719	Santiago Atitlán	14	Cerro de Oro	11	Noviembre	2023-11-30T00:00:00	2024-11-08T20:00:00	4	Temperatura máxima	19.4
187307	7	Sololá	719	Santiago Atitlán	14	Cerro de Oro	11	Noviembre	2023-11-30T00:00:00	2024-11-08T20:00:00	3	Temperatura mínima	18.7
187308	7	Sololá	719	Santiago Atitlán	14	Cerro de Oro	11	Noviembre	2023-11-30T00:00:00	2024-11-08T20:00:00	5	Humedad	85
187309	7	Sololá	719	Santiago Atitlán	14	Cerro de Oro	11	Noviembre	2023-11-30T00:00:00	2024-11-08T20:00:00	6	Velocidad del viento	3.2
187310	7	Sololá	719	Santiago Atitlán	14	Cerro de Oro	11	Noviembre	2023-11-30T00:00:00	2024-11-08T20:00:00	7	Dirección del viento	3.22
187311	7	Sololá	719	Santiago Atitlán	14	Cerro de Oro	11	Noviembre	2023-11-30T00:00:00	2024-11-08T20:00:00	1	Precipitación	0
187312	7	Sololá	719	Santiago Atitlán	14	Cerro de Oro	11	Noviembre	2023-11-30T00:00:00	2024-11-08T20:00:00	8	Radiación solar	0
187313	7	Sololá	719	Santiago Atitlán	14	Cerro de Oro	11	Noviembre	2023-11-30T00:00:00	2024-11-08T21:00:00	2	Temperatura media	18.2
187314	7	Sololá	719	Santiago Atitlán	14	Cerro de Oro	11	Noviembre	2023-11-30T00:00:00	2024-11-08T21:00:00	4	Temperatura máxima	19
187315	7	Sololá	719	Santiago Atitlán	14	Cerro de Oro	11	Noviembre	2023-11-30T00:00:00	2024-11-08T21:00:00	3	Temperatura mínima	18.2
187316	7	Sololá	719	Santiago Atitlán	14	Cerro de Oro	11	Noviembre	2023-11-30T00:00:00	2024-11-08T21:00:00	5	Humedad	87
187317	7	Sololá	719	Santiago Atitlán	14	Cerro de Oro	11	Noviembre	2023-11-30T00:00:00	2024-11-08T21:00:00	6	Velocidad del viento	4.8
187318	7	Sololá	719	Santiago Atitlán	14	Cerro de Oro	11	Noviembre	2023-11-30T00:00:00	2024-11-08T21:00:00	7	Dirección del viento	4.83
187319	7	Sololá	719	Santiago Atitlán	14	Cerro de Oro	11	Noviembre	2023-11-30T00:00:00	2024-11-08T21:00:00	1	Precipitación	0
187320	7	Sololá	719	Santiago Atitlán	14	Cerro de Oro	11	Noviembre	2023-11-30T00:00:00	2024-11-08T21:00:00	8	Radiación solar	0
187321	7	Sololá	719	Santiago Atitlán	14	Cerro de Oro	11	Noviembre	2023-11-30T00:00:00	2024-11-08T22:00:00	2	Temperatura media	18.1
187322	7	Sololá	719	Santiago Atitlán	14	Cerro de Oro	11	Noviembre	2023-11-30T00:00:00	2024-11-08T22:00:00	4	Temperatura máxima	18.3
187323	7	Sololá	719	Santiago Atitlán	14	Cerro de Oro	11	Noviembre	2023-11-30T00:00:00	2024-11-08T22:00:00	3	Temperatura mínima	17.6
187324	7	Sololá	719	Santiago Atitlán	14	Cerro de Oro	11	Noviembre	2023-11-30T00:00:00	2024-11-08T22:00:00	5	Humedad	84
187325	7	Sololá	719	Santiago Atitlán	14	Cerro de Oro	11	Noviembre	2023-11-30T00:00:00	2024-11-08T22:00:00	6	Velocidad del viento	3.2
187326	7	Sololá	719	Santiago Atitlán	14	Cerro de Oro	11	Noviembre	2023-11-30T00:00:00	2024-11-08T22:00:00	7	Dirección del viento	3.22
187327	7	Sololá	719	Santiago Atitlán	14	Cerro de Oro	11	Noviembre	2023-11-30T00:00:00	2024-11-08T22:00:00	1	Precipitación	0
187328	7	Sololá	719	Santiago Atitlán	14	Cerro de Oro	11	Noviembre	2023-11-30T00:00:00	2024-11-08T22:00:00	8	Radiación solar	0
187329	7	Sololá	719	Santiago Atitlán	14	Cerro de Oro	11	Noviembre	2023-11-30T00:00:00	2024-11-08T23:00:00	2	Temperatura media	17.6
187330	7	Sololá	719	Santiago Atitlán	14	Cerro de Oro	11	Noviembre	2023-11-30T00:00:00	2024-11-08T23:00:00	4	Temperatura máxima	18.4
187331	7	Sololá	719	Santiago Atitlán	14	Cerro de Oro	11	Noviembre	2023-11-30T00:00:00	2024-11-08T23:00:00	3	Temperatura mínima	17.6
187332	7	Sololá	719	Santiago Atitlán	14	Cerro de Oro	11	Noviembre	2023-11-30T00:00:00	2024-11-08T23:00:00	5	Humedad	85
187333	7	Sololá	719	Santiago Atitlán	14	Cerro de Oro	11	Noviembre	2023-11-30T00:00:00	2024-11-08T23:00:00	6	Velocidad del viento	3.2
187334	7	Sololá	719	Santiago Atitlán	14	Cerro de Oro	11	Noviembre	2023-11-30T00:00:00	2024-11-08T23:00:00	7	Dirección del viento	3.22
187335	7	Sololá	719	Santiago Atitlán	14	Cerro de Oro	11	Noviembre	2023-11-30T00:00:00	2024-11-08T23:00:00	1	Precipitación	0
187336	7	Sololá	719	Santiago Atitlán	14	Cerro de Oro	11	Noviembre	2023-11-30T00:00:00	2024-11-08T23:00:00	8	Radiación solar	0
